date time	SYS.CALC.date_ddmmyyyy	SYS.CALC.date_ddmmyy	SYS.CALC.time_hhmmss	SYS.STR.HDG	SYS.STR.PosLat	SYS.STR.PosLon	SEAPATH.PSXN.Heading	SEAPATH.PSXN.Heave	SEAPATH.PSXN.Pitch	SEAPATH.PSXN.Roll	FOG.HEHDT.heading	FOG.PPPRP.pitch	FOG.PPPRP.roll	WEATHER.PBWWI.AirPress	WEATHER.PBWWI.AirTempPort	WEATHER.PBWWI.AirTempStarboard	WEATHER.PBWWI.DewPointPort	WEATHER.PBWWI.DewPointStarboard	WEATHER.PBWWI.GlobalRadiation	WEATHER.PBWWI.HumidityPort	WEATHER.PBWWI.HumidityStarboard	WEATHER.PBWWI.LwRadiation	WEATHER.PBWWI.PyrradiometerTemp	WEATHER.PBWWI.RealWindDir	WEATHER.PBWWI.RelWindSpeed	WEATHER.PBWWI.TrueWindDir	WEATHER.PBWWI.TrueWindSpeed	WEATHER.PBWWI.UvRadiation	WEATHER.PBWWI.Visibility	WEATHER.PBWWI.WaterTempPort	WEATHER.PBWWI.WaterTempStarboard	SYS.CALC.Timestamp	SYS.STR.Speed	SYS.CALC.SPEED_kmh
	spot	spot	spot	spot	spot	spot	spot	spot	spot	spot	spot	spot	spot	spot	spot	spot	spot	spot	spot	spot	spot	spot	spot	spot	spot	spot	spot	spot	spot	spot	spot	spot	spot	spot
				°	°	°	°	m	°	°	deg	deg	deg	hPa	°C	°C	°C	°C	W/m²	%	%	W/m²	°C	deg	m/s	deg	m/s	mW/m2	m	°C	°C	s	kn	
26/01/2020 00:00:00	26012020	260120	000000	263.000	12.415945	-57.468358	263.140	-0.110	-0.190	0.510	263.030	-1.600	0.900																			1579996800.0	8.96	16.59
26/01/2020 00:00:01	26012020	260120	000001	263.050	12.415937	-57.468442	263.100	-0.250	-0.060	0.530	263.040	-1.500	0.900																			1579996801.0	9.06	16.78
26/01/2020 00:00:02	26012020	260120	000002	262.950	12.415937	-57.468442	262.930	-0.330	0.040	0.590	262.910	-1.400	0.900																			1579996802.0	9.06	16.78
26/01/2020 00:00:03	26012020	260120	000003	262.770	12.415930	-57.468485	262.790	-0.350	0.060	0.660	262.740	-1.300	1.000																			1579996803.0	9.07	16.80
26/01/2020 00:00:04	26012020	260120	000004	262.650	12.415925	-57.468528	262.730	-0.240	-0.010	0.600	262.630	-1.400	1.000																			1579996804.0	9.07	16.80
26/01/2020 00:00:05	26012020	260120	000005	262.610	12.415920	-57.468570	262.730	-0.020	-0.120	0.380	262.610	-1.500	0.900																			1579996805.0	9.11	16.87
26/01/2020 00:00:06	26012020	260120	000006	262.640	12.415913	-57.468613	262.810	0.200	-0.250	0.060	262.650	-1.600	0.600																			1579996806.0	9.14	16.93
26/01/2020 00:00:07	26012020	260120	000007	262.750	12.415907	-57.468655	262.910	0.310	-0.390	-0.170	262.770	-1.700	0.300																			1579996807.0	9.14	16.93
26/01/2020 00:00:08	26012020	260120	000008	262.830	12.415902	-57.468698	262.980	0.300	-0.450	-0.180	262.840	-1.800	0.200																			1579996808.0	9.14	16.93
26/01/2020 00:00:09	26012020	260120	000009	262.900	12.415897	-57.468742	263.020	0.210	-0.380	0.030	262.910	-1.800	0.300																			1579996809.0	9.15	16.95
26/01/2020 00:00:10	26012020	260120	000010	262.930	12.415893	-57.468785	263.050	0.050	-0.190	0.370	262.930	-1.700	0.600																			1579996810.0	9.09	16.83
26/01/2020 00:00:11	26012020	260120	000011	262.950	12.415890	-57.468827	263.080	-0.110	0.020	0.710	262.950	-1.500	0.900																			1579996811.0	9.02	16.71
26/01/2020 00:00:12	26012020	260120	000012	262.950	12.415888	-57.468870	263.030	-0.210	0.070	1.000	262.940	-1.300	1.200																			1579996812.0	8.96	16.59
26/01/2020 00:00:13	26012020	260120	000013	262.870	12.415885	-57.468912	262.910	-0.220	-0.070	1.140	262.840	-1.400	1.500																			1579996813.0	9.02	16.71
26/01/2020 00:00:14	26012020	260120	000014	262.750	12.415882	-57.468955	262.820	-0.180	-0.170	1.040	262.730	-1.500	1.500																			1579996814.0	9.17	16.98
26/01/2020 00:00:15	26012020	260120	000015	262.690	12.415875	-57.468998	262.790	-0.130	-0.220	0.680	262.680	-1.600	1.300																			1579996815.0	9.22	17.08
26/01/2020 00:00:16	26012020	260120	000016	262.670	12.415868	-57.469042	262.790	-0.050	-0.290	0.200	262.680	-1.700	0.800																			1579996816.0	9.11	16.87
26/01/2020 00:00:17	26012020	260120	000017	262.720	12.415862	-57.469083	262.890	0.080	-0.340	-0.260	262.740	-1.700	0.300																			1579996817.0	9.09	16.83
26/01/2020 00:00:18	26012020	260120	000018	262.820	12.415855	-57.469127	263.050	0.220	-0.300	-0.550	262.850	-1.700	-0.100																			1579996818.0	9.14	16.93
26/01/2020 00:00:19	26012020	260120	000019	263.030	12.415848	-57.469168	263.220	0.300	-0.190	-0.530	263.070	-1.600	-0.200																			1579996819.0	9.11	16.87
26/01/2020 00:00:20	26012020	260120	000020	263.160	12.415843	-57.469212	263.270	0.240	-0.080	-0.160	263.170	-1.500	-0.000																			1579996820.0	9.07	16.80
26/01/2020 00:00:21	26012020	260120	000021	263.150	12.415840	-57.469253	263.140	0.080	0.020	0.450	263.120	-1.400	0.500																			1579996821.0	9.08	16.82
26/01/2020 00:00:22	26012020	260120	000022	262.960	12.415840	-57.469297	262.920	-0.100	0.050	1.000	262.910	-1.400	1.100																			1579996822.0	9.09	16.83
26/01/2020 00:00:23	26012020	260120	000023	262.730	12.415838	-57.469340	262.790	-0.230	0.010	1.240	262.710	-1.400	1.500																			1579996823.0	9.06	16.78
26/01/2020 00:00:24	26012020	260120	000024	262.660	12.415835	-57.469383	262.820	-0.260	-0.180	1.120	262.660	-1.500	1.600																			1579996824.0	9.05	16.76
26/01/2020 00:00:25	26012020	260120	000025	262.750	12.415830	-57.469425	262.930	-0.130	-0.460	0.810	262.770	-1.700	1.400																			1579996825.0	9.10	16.85
26/01/2020 00:00:26	26012020	260120	000026	262.860	12.415823	-57.469468	263.020	0.100	-0.660	0.460	262.880	-2.000	1.000																			1579996826.0	9.21	17.06
26/01/2020 00:00:27	26012020	260120	000027	262.930	12.415817	-57.469512	263.100	0.250	-0.540	0.140	262.940	-2.000	0.700																			1579996827.0	9.30	17.22
26/01/2020 00:00:28	26012020	260120	000028	263.010	12.415810	-57.469555	263.160	0.200	-0.100	-0.090	263.030	-1.700	0.400																			1579996828.0	9.18	17.00
26/01/2020 00:00:29	26012020	260120	000029	263.050	12.415803	-57.469597	263.110	0.010	0.280	-0.150	263.040	-1.300	0.200																			1579996829.0	8.85	16.39
26/01/2020 00:00:30	26012020	260120	000030	262.960	12.415800	-57.469637	262.960	-0.130	0.270	-0.040	262.930	-1.100	0.300																			1579996830.0	8.68	16.08
26/01/2020 00:00:31	26012020	260120	000031	262.820	12.415795	-57.469678	262.850	-0.150	-0.050	0.230	262.790	-1.300	0.500																			1579996831.0	8.95	16.58
26/01/2020 00:00:32	26012020	260120	000032	262.740	12.415792	-57.469723	262.840	-0.110	-0.380	0.540	262.730	-1.600	0.800																			1579996832.0	9.34	17.30
26/01/2020 00:00:33	26012020	260120	000033	262.730	12.415788	-57.469768	262.900	-0.080	-0.520	0.750	262.750	-1.900	1.000																			1579996833.0	9.45	17.50
26/01/2020 00:00:34	26012020	260120	000034	262.790	12.415785	-57.469812	263.000	-0.040	-0.500	0.770	262.810	-1.900	1.200																			1579996834.0	9.29	17.21
26/01/2020 00:00:35	26012020	260120	000035	262.920	12.415780	-57.469855	263.130	0.040	-0.320	0.630	262.940	-1.800	1.100																			1579996835.0	9.11	16.87
26/01/2020 00:00:36	26012020	260120	000036	263.040	12.415775	-57.469897	263.210	0.090	-0.090	0.510	263.060	-1.600	0.900																			1579996836.0	9.01	16.69
26/01/2020 00:00:37	26012020	260120	000037	263.080	12.415770	-57.469938	263.170	0.090	0.080	0.530	263.070	-1.400	0.900																			1579996837.0	8.93	16.54
26/01/2020 00:00:38	26012020	260120	000038	262.990	12.415765	-57.469980	262.990	0.020	0.160	0.600	262.950	-1.300	1.000																			1579996838.0	8.98	16.63
26/01/2020 00:00:39	26012020	260120	000039	262.800	12.415760	-57.470023	262.790	-0.070	0.190	0.560	262.760	-1.200	1.000																			1579996839.0	9.04	16.74
26/01/2020 00:00:40	26012020	260120	000040	262.610	12.415757	-57.470065	262.650	-0.090	0.050	0.440	262.580	-1.300	0.900																			1579996840.0	9.02	16.71
26/01/2020 00:00:41	26012020	260120	000041	262.490	12.415750	-57.470108	262.590	0.010	-0.290	0.320	262.480	-1.500	0.800																			1579996841.0	9.02	16.71
26/01/2020 00:00:42	26012020	260120	000042	262.480	12.415745	-57.470152	262.650	0.200	-0.620	0.250	262.490	-1.900	0.700																			1579996842.0	9.20	17.04
26/01/2020 00:00:43	26012020	260120	000043	262.580	12.415740	-57.470195	262.790	0.340	-0.680	0.230	262.610	-2.100	0.600																			1579996843.0	9.33	17.28
26/01/2020 00:00:44	26012020	260120	000044	262.740	12.415737	-57.470238	262.950	0.290	-0.460	0.320	262.770	-2.000	0.600																			1579996844.0	9.24	17.11
26/01/2020 00:00:45	26012020	260120	000045	262.880	12.415733	-57.470282	263.050	0.060	-0.150	0.480	262.900	-1.700	0.800																			1579996845.0	9.00	16.67
26/01/2020 00:00:46	26012020	260120	000046	262.950	12.415728	-57.470323	263.080	-0.210	0.040	0.640	262.960	-1.400	0.900																			1579996846.0	8.84	16.37
26/01/2020 00:00:47	26012020	260120	000047	262.950	12.415725	-57.470365	263.020	-0.370	0.020	0.690	262.940	-1.300	1.100																			1579996847.0	8.88	16.45
26/01/2020 00:00:48	26012020	260120	000048	262.870	12.415720	-57.470407	262.900	-0.350	-0.100	0.550	262.840	-1.400	1.000																			1579996848.0	9.07	16.80
26/01/2020 00:00:49	26012020	260120	000049	262.760	12.415715	-57.470450	262.810	-0.240	-0.170	0.270	262.740	-1.500	0.800																			1579996849.0	9.26	17.15
26/01/2020 00:00:50	26012020	260120	000050	262.680	12.415708	-57.470493	262.760	-0.130	-0.180	-0.020	262.670	-1.600	0.500																			1579996850.0	9.26	17.15
26/01/2020 00:00:51	26012020	260120	000051	262.650	12.415700	-57.470537	262.750	-0.030	-0.180	-0.110	262.650	-1.600	0.300																			1579996851.0	9.17	16.98
26/01/2020 00:00:52	26012020	260120	000052	262.650	12.415693	-57.470578	262.760	0.050	-0.170	0.070	262.650	-1.600	0.300																			1579996852.0	9.13	16.91
26/01/2020 00:00:53	26012020	260120	000053	262.660	12.415688	-57.470622	262.780	0.130	-0.150	0.470	262.660	-1.600	0.600																			1579996853.0	9.09	16.83
26/01/2020 00:00:54	26012020	260120	000054	262.670	12.415687	-57.470665	262.800	0.170	-0.090	0.920	262.670	-1.500	1.100																			1579996854.0	9.09	16.83
26/01/2020 00:00:55	26012020	260120	000055	262.680	12.415685	-57.470708	262.830	0.180	-0.010	1.230	262.680	-1.400	1.500																			1579996855.0	9.08	16.82
26/01/2020 00:00:56	26012020	260120	000056	262.700	12.415683	-57.470750	262.820	0.150	0.000	1.270	262.690	-1.400	1.700																			1579996856.0	8.99	16.65
26/01/2020 00:00:57	26012020	260120	000057	262.670	12.415680	-57.470792	262.750	0.140	-0.180	1.040	262.660	-1.500	1.600																			1579996857.0	8.94	16.56
26/01/2020 00:00:58	26012020	260120	000058	262.610	12.415675	-57.470835	262.670	0.120	-0.450	0.590	262.590	-1.700	1.200																			1579996858.0	9.03	16.72
26/01/2020 00:00:59	26012020	260120	000059	262.530	12.415668	-57.470878	262.660	0.060	-0.600	0.040	262.530	-1.900	0.700	1014.70	25.80	25.80	21.10	21.10	-1.00	75.00	75.00	402.00	25.10	57.00	4.30	25.00	4.30	15	3568.00	27.40	27.40	1579996859.0	9.22	17.08
26/01/2020 00:01:00	26012020	260120	000100	262.580	12.415660	-57.470922	262.760	-0.050	-0.510	-0.420	262.600	-2.000	0.200																			1579996860.0	9.26	17.15
26/01/2020 00:01:01	26012020	260120	000101	262.730	12.415652	-57.470963	262.920	-0.150	-0.280	-0.620	262.760	-1.800	-0.200																			1579996861.0	9.11	16.87
26/01/2020 00:01:02	26012020	260120	000102	262.870	12.415647	-57.471005	263.020	-0.210	-0.060	-0.510	262.890	-1.500	-0.200																			1579996862.0	8.96	16.59
26/01/2020 00:01:03	26012020	260120	000103	262.930	12.415642	-57.471047	263.020	-0.210	0.030	-0.140	262.930	-1.400	0.000																			1579996863.0	8.95	16.58
26/01/2020 00:01:04	26012020	260120	000104	262.890	12.415637	-57.471090	262.960	-0.200	0.010	0.310	262.880	-1.400	0.500																			1579996864.0	9.05	16.76
26/01/2020 00:01:05	26012020	260120	000105	262.820	12.415635	-57.471133	262.900	-0.200	0.040	0.660	262.800	-1.400	0.900																			1579996865.0	9.21	17.06
26/01/2020 00:01:06	26012020	260120	000106	262.760	12.415632	-57.471177	262.870	-0.200	0.050	0.830	262.760	-1.300	1.100																			1579996866.0	9.18	17.00
26/01/2020 00:01:07	26012020	260120	000107	262.730	12.415627	-57.471220	262.820	-0.130	-0.090	0.850	262.720	-1.400	1.200																			1579996867.0	9.03	16.72
26/01/2020 00:01:08	26012020	260120	000108	262.670	12.415622	-57.471262	262.780	0.050	-0.330	0.830	262.660	-1.600	1.200																			1579996868.0	9.09	16.83
26/01/2020 00:01:09	26012020	260120	000109	262.640	12.415617	-57.471305	262.780	0.240	-0.490	0.800	262.640	-1.800	1.200																			1579996869.0	9.22	17.08
26/01/2020 00:01:10	26012020	260120	000110	262.650	12.415612	-57.471348	262.770	0.320	-0.490	0.840	262.650	-1.900	1.200																			1579996870.0	9.23	17.09
26/01/2020 00:01:11	26012020	260120	000111	262.620	12.415608	-57.471392	262.690	0.290	-0.350	0.930	262.600	-1.800	1.300																			1579996871.0	9.12	16.89
26/01/2020 00:01:12	26012020	260120	000112	262.510	12.415605	-57.471433	262.580	0.190	-0.170	0.940	262.490	-1.700	1.300																			1579996872.0	9.00	16.67
26/01/2020 00:01:13	26012020	260120	000113	262.430	12.415602	-57.471477	262.550	0.030	0.020	0.730	262.420	-1.500	1.300																			1579996873.0	8.96	16.59
26/01/2020 00:01:14	26012020	260120	000114	262.450	12.415595	-57.471518	262.620	-0.180	0.140	0.290	262.470	-1.300	0.900																			1579996874.0	8.96	16.59
26/01/2020 00:01:15	26012020	260120	000115	262.540	12.415588	-57.471560	262.730	-0.320	0.130	-0.220	262.560	-1.200	0.400																			1579996875.0	8.98	16.63
26/01/2020 00:01:16	26012020	260120	000116	262.660	12.415582	-57.471602	262.850	-0.300	0.030	-0.610	262.680	-1.300	-0.100																			1579996876.0	9.06	16.78
26/01/2020 00:01:17	26012020	260120	000117	262.780	12.415573	-57.471645	262.940	-0.110	-0.130	-0.680	262.800	-1.400	-0.300																			1579996877.0	9.12	16.89
26/01/2020 00:01:18	26012020	260120	000118	262.840	12.415567	-57.471687	262.920	0.160	-0.330	-0.340	262.840	-1.600	-0.200																			1579996878.0	9.14	16.93
26/01/2020 00:01:19	26012020	260120	000119	262.780	12.415562	-57.471730	262.800	0.360	-0.500	0.310	262.760	-1.800	0.300																			1579996879.0	9.15	16.95
26/01/2020 00:01:20	26012020	260120	000120	262.620	12.415558	-57.471773	262.600	0.380	-0.560	1.090	262.570	-1.900	1.100																			1579996880.0	9.18	17.00
26/01/2020 00:01:21	26012020	260120	000121	262.380	12.415558	-57.471817	262.400	0.200	-0.470	1.680	262.340	-1.900	1.800																			1579996881.0	9.19	17.02
26/01/2020 00:01:22	26012020	260120	000122	262.230	12.415558	-57.471860	262.350	-0.070	-0.320	1.830	262.210	-1.800	2.200																			1579996882.0	9.11	16.87
26/01/2020 00:01:23	26012020	260120	000123	262.240	12.415557	-57.471903	262.500	-0.280	-0.220	1.490	262.270	-1.600	2.100																			1579996883.0	8.99	16.65
26/01/2020 00:01:24	26012020	260120	000124	262.390	12.415552	-57.471945	262.730	-0.350	-0.240	0.830	262.440	-1.600	1.600																			1579996884.0	8.98	16.63
26/01/2020 00:01:25	26012020	260120	000125	262.680	12.415543	-57.471988	262.950	-0.340	-0.230	0.130	262.720	-1.600	0.900																			1579996885.0	9.18	17.00
26/01/2020 00:01:26	26012020	260120	000126	262.910	12.415533	-57.472030	263.140	-0.330	-0.050	-0.420	262.950	-1.600	0.200																			1579996886.0	9.36	17.33
26/01/2020 00:01:27	26012020	260120	000127	263.090	12.415523	-57.472073	263.230	-0.290	0.220	-0.680	263.110	-1.300	-0.200																			1579996887.0	9.24	17.11
26/01/2020 00:01:28	26012020	260120	000128	263.130	12.415517	-57.472115	263.180	-0.120	0.400	-0.590	263.120	-1.100	-0.300																			1579996888.0	9.01	16.69
26/01/2020 00:01:29	26012020	260120	000129	263.030	12.415512	-57.472157	263.010	0.160	0.380	-0.180	263.000	-1.000	-0.000																			1579996889.0	8.91	16.50
26/01/2020 00:01:30	26012020	260120	000130	262.860	12.415507	-57.472198	262.870	0.420	0.130	0.500	262.830	-1.100	0.500																			1579996890.0	8.95	16.58
26/01/2020 00:01:31	26012020	260120	000131	262.720	12.415503	-57.472242	262.790	0.550	-0.250	1.310	262.700	-1.400	1.300																			1579996891.0	9.06	16.78
26/01/2020 00:01:32	26012020	260120	000132	262.670	12.415503	-57.472285	262.860	0.550	-0.580	1.980	262.680	-1.800	2.100																			1579996892.0	9.12	16.89
26/01/2020 00:01:33	26012020	260120	000133	262.800	12.415505	-57.472328	263.170	0.430	-0.720	2.240	262.860	-2.100	2.500																			1579996893.0	9.09	16.83
26/01/2020 00:01:34	26012020	260120	000134	263.160	12.415503	-57.472370	263.640	0.270	-0.710	2.030	263.250	-2.100	2.600																			1579996894.0	8.88	16.45
26/01/2020 00:01:35	26012020	260120	000135	263.660	12.415500	-57.472412	264.170	0.060	-0.610	1.540	263.770	-2.100	2.200																			1579996895.0	8.67	16.06
26/01/2020 00:01:36	26012020	260120	000136	264.220	12.415493	-57.472452	264.730	-0.200	-0.460	0.920	264.330	-1.900	1.600																			1579996896.0	8.67	16.06
26/01/2020 00:01:37	26012020	260120	000137	264.810	12.415487	-57.472492	265.330	-0.480	-0.290	0.210	264.920	-1.800	0.900																			1579996897.0	8.76	16.22
26/01/2020 00:01:38	26012020	260120	000138	265.460	12.415477	-57.472533	266.040	-0.650	-0.160	-0.480	265.590	-1.600	0.200																			1579996898.0	8.87	16.43
26/01/2020 00:01:39	26012020	260120	000139	266.190	12.415468	-57.472575	266.810	-0.610	-0.010	-0.950	266.350	-1.500	-0.400																			1579996899.0	8.96	16.59
26/01/2020 00:01:40	26012020	260120	000140	266.970	12.415460	-57.472617	267.610	-0.380	0.140	-1.070	267.130	-1.300	-0.700																			1579996900.0	8.97	16.61
26/01/2020 00:01:41	26012020	260120	000141	267.780	12.415452	-57.472657	268.420	-0.090	0.250	-0.750	267.940	-1.200	-0.600																			1579996901.0	8.88	16.45
26/01/2020 00:01:42	26012020	260120	000142	268.560	12.415448	-57.472698	269.180	0.110	0.270	0.030	268.710	-1.100	-0.000																			1579996902.0	8.73	16.17
26/01/2020 00:01:43	26012020	260120	000143	269.270	12.415447	-57.472738	269.870	0.220	0.210	0.950	269.410	-1.200	0.900																			1579996903.0	8.59	15.91
26/01/2020 00:01:44	26012020	260120	000144	269.950	12.415448	-57.472780	270.590	0.290	0.050	1.650	270.100	-1.300	1.700																			1579996904.0	8.47	15.69
26/01/2020 00:01:45	26012020	260120	000145	270.700	12.415452	-57.472818	271.440	0.340	-0.180	1.840	270.870	-1.400	2.200																			1579996905.0	8.36	15.48
26/01/2020 00:01:46	26012020	260120	000146	271.620	12.415453	-57.472858	272.450	0.310	-0.440	1.430	271.830	-1.700	2.100																			1579996906.0	8.29	15.35
26/01/2020 00:01:47	26012020	260120	000147	272.710	12.415452	-57.472897	273.590	0.180	-0.630	0.590	272.950	-2.000	1.400																			1579996907.0	8.30	15.37
26/01/2020 00:01:48	26012020	260120	000148	273.680	12.415447	-57.472937	274.810	0.010	-0.610	-0.460	273.910	-2.000	0.400																			1579996908.0	8.35	15.46
26/01/2020 00:01:49	26012020	260120	000149	275.210	12.415442	-57.472975	276.100	-0.140	-0.410	-1.440	275.460	-1.900	-0.600																			1579996909.0	8.35	15.46
26/01/2020 00:01:50	26012020	260120	000150	276.550	12.415435	-57.473013	277.430	-0.220	-0.190	-2.100	276.810	-1.700	-1.500																			1579996910.0	8.29	15.35
26/01/2020 00:01:51	26012020	260120	000151	277.920	12.415430	-57.473053	278.760	-0.240	-0.040	-2.310	278.170	-1.500	-1.900																			1579996911.0	8.22	15.22
26/01/2020 00:01:52	26012020	260120	000152	279.230	12.415428	-57.473092	279.980	-0.190	0.070	-2.040	279.480	-1.400	-1.900																			1579996912.0	8.19	15.17
26/01/2020 00:01:53	26012020	260120	000153	280.390	12.415428	-57.473130	281.060	-0.140	0.130	-1.380	280.610	-1.300	-1.400																			1579996913.0	8.12	15.04
26/01/2020 00:01:54	26012020	260120	000154	281.420	12.415432	-57.473167	282.070	-0.150	0.130	-0.570	281.630	-1.300	-0.600																			1579996914.0	7.99	14.80
26/01/2020 00:01:55	26012020	260120	000155	282.430	12.415437	-57.473203	283.140	-0.170	0.040	0.080	282.650	-1.300	0.200																			1579996915.0	7.82	14.48
26/01/2020 00:01:56	26012020	260120	000156	283.510	12.415442	-57.473240	284.300	-0.100	-0.120	0.390	283.740	-1.400	0.600																			1579996916.0	7.72	14.30
26/01/2020 00:01:57	26012020	260120	000157	284.710	12.415448	-57.473277	285.590	0.110	-0.280	0.370	284.970	-1.600	0.800																			1579996917.0	7.68	14.22
26/01/2020 00:01:58	26012020	260120	000158	286.030	12.415453	-57.473312	286.950	0.320	-0.360	0.230	286.300	-1.700	0.700																			1579996918.0	7.68	14.22
26/01/2020 00:01:59	26012020	260120	000159	287.350	12.415457	-57.473348	288.230	0.340	-0.290	0.130	287.620	-1.800	0.500	1014.70	25.80	25.80	21.10	21.10	-1.00	75.00	75.00	402.00	25.10	55.00	4.70	23.00	4.30	15	3600.00	27.40	27.40	1579996919.0	7.65	14.17
26/01/2020 00:02:00	26012020	260120	000200	288.380	12.415462	-57.473383	289.480	0.160	-0.020	-0.040	288.610	-1.600	0.400																			1579996920.0	7.52	13.93
26/01/2020 00:02:01	26012020	260120	000201	289.850	12.415467	-57.473417	290.710	-0.100	0.250	-0.390	290.110	-1.300	0.200																			1579996921.0	7.29	13.50
26/01/2020 00:02:02	26012020	260120	000202	291.100	12.415470	-57.473450	291.870	-0.250	0.220	-0.900	291.320	-1.100	-0.300																			1579996922.0	7.12	13.19
26/01/2020 00:02:03	26012020	260120	000203	292.250	12.415473	-57.473485	293.040	-0.220	-0.140	-1.430	292.470	-1.300	-0.800																			1579996923.0	7.25	13.43
26/01/2020 00:02:04	26012020	260120	000204	293.450	12.415477	-57.473520	294.310	-0.080	-0.530	-1.880	293.700	-1.800	-1.300																			1579996924.0	7.61	14.09
26/01/2020 00:02:05	26012020	260120	000205	294.780	12.415482	-57.473557	295.730	0.040	-0.580	-2.140	295.070	-2.000	-1.700																			1579996925.0	7.74	14.33
26/01/2020 00:02:06	26012020	260120	000206	296.240	12.415487	-57.473592	297.190	0.060	-0.290	-2.090	296.530	-1.900	-1.800																			1579996926.0	7.43	13.76
26/01/2020 00:02:07	26012020	260120	000207	297.650	12.415495	-57.473623	298.490	0.010	0.060	-1.640	297.910	-1.500	-1.600																			1579996927.0	6.93	12.83
26/01/2020 00:02:08	26012020	260120	000208	298.850	12.415503	-57.473653	299.590	-0.010	0.230	-0.880	299.070	-1.200	-0.900																			1579996928.0	6.61	12.24
26/01/2020 00:02:09	26012020	260120	000209	299.880	12.415515	-57.473683	300.610	0.030	0.220	-0.110	300.090	-1.200	-0.100																			1579996929.0	6.60	12.22
26/01/2020 00:02:10	26012020	260120	000210	300.920	12.415527	-57.473712	301.710	0.100	0.110	0.430	301.140	-1.200	0.500																			1579996930.0	6.69	12.39
26/01/2020 00:02:11	26012020	260120	000211	302.050	12.415540	-57.473740	302.890	0.140	-0.070	0.580	302.290	-1.400	0.900																			1579996931.0	6.69	12.39
26/01/2020 00:02:12	26012020	260120	000212	303.020	12.415553	-57.473768	304.050	0.120	-0.300	0.340	303.240	-1.600	0.800																			1579996932.0	6.69	12.39
26/01/2020 00:02:13	26012020	260120	000213	304.420	12.415565	-57.473798	305.210	0.070	-0.440	-0.200	304.670	-1.800	0.400																			1579996933.0	6.75	12.50
26/01/2020 00:02:14	26012020	260120	000214	305.410	12.415573	-57.473830	306.440	-0.020	-0.360	-0.800	305.660	-1.800	-0.200																			1579996934.0	6.81	12.61
26/01/2020 00:02:15	26012020	260120	000215	306.910	12.415582	-57.473860	307.660	-0.120	-0.070	-1.250	307.140	-1.600	-0.700																			1579996935.0	6.72	12.45
26/01/2020 00:02:16	26012020	260120	000216	308.100	12.415590	-57.473890	308.780	-0.170	0.230	-1.440	308.310	-1.300	-1.000																			1579996936.0	6.47	11.98
26/01/2020 00:02:17	26012020	260120	000217	309.170	12.415598	-57.473918	309.810	-0.100	0.310	-1.440	309.380	-1.100	-1.100																			1579996937.0	6.23	11.54
26/01/2020 00:02:18	26012020	260120	000218	310.200	12.415610	-57.473945	310.860	0.050	0.070	-1.390	310.420	-1.200	-1.100																			1579996938.0	6.15	11.39
26/01/2020 00:02:19	26012020	260120	000219	311.270	12.415623	-57.473972	311.980	0.170	-0.310	-1.270	311.490	-1.500	-1.000																			1579996939.0	6.31	11.69
26/01/2020 00:02:20	26012020	260120	000220	312.390	12.415637	-57.473998	313.150	0.170	-0.540	-1.120	312.620	-1.900	-0.900																			1579996940.0	6.45	11.95
26/01/2020 00:02:21	26012020	260120	000221	313.560	12.415652	-57.474025	314.340	0.090	-0.430	-0.910	313.800	-1.900	-0.700																			1579996941.0	6.40	11.85
26/01/2020 00:02:22	26012020	260120	000222	314.720	12.415667	-57.474050	315.440	0.030	-0.060	-0.490	314.940	-1.700	-0.400																			1579996942.0	6.11	11.32
26/01/2020 00:02:23	26012020	260120	000223	315.750	12.415680	-57.474073	316.410	0.060	0.280	0.070	315.950	-1.300	0.100																			1579996943.0	5.73	10.61
26/01/2020 00:02:24	26012020	260120	000224	316.660	12.415693	-57.474095	317.310	0.100	0.350	0.500	316.840	-1.100	0.600																			1579996944.0	5.48	10.15
26/01/2020 00:02:25	26012020	260120	000225	317.560	12.415710	-57.474115	318.300	0.060	0.100	0.520	317.750	-1.200	0.900																			1579996945.0	5.54	10.26
26/01/2020 00:02:26	26012020	260120	000226	318.580	12.415725	-57.474138	319.400	-0.060	-0.280	0.090	318.800	-1.500	0.700																			1579996946.0	5.81	10.76
26/01/2020 00:02:27	26012020	260120	000227	319.740	12.415740	-57.474162	320.560	-0.170	-0.490	-0.540	319.960	-1.800	0.100																			1579996947.0	6.12	11.33
26/01/2020 00:02:28	26012020	260120	000228	320.870	12.415753	-57.474188	321.610	-0.160	-0.390	-1.010	321.070	-1.900	-0.500																			1579996948.0	6.27	11.61
26/01/2020 00:02:29	26012020	260120	000229	321.890	12.415765	-57.474215	322.570	0.030	-0.170	-1.140	322.080	-1.700	-0.800																			1579996949.0	6.07	11.24
26/01/2020 00:02:30	26012020	260120	000230	322.860	12.415778	-57.474238	323.560	0.300	-0.060	-1.000	323.060	-1.500	-0.800																			1579996950.0	5.69	10.54
26/01/2020 00:02:31	26012020	260120	000231	323.860	12.415793	-57.474260	324.570	0.460	-0.030	-0.700	324.070	-1.500	-0.500																			1579996951.0	5.51	10.20
26/01/2020 00:02:32	26012020	260120	000232	324.860	12.415810	-57.474278	325.560	0.310	0.070	-0.420	325.050	-1.400	-0.200																			1579996952.0	5.50	10.19
26/01/2020 00:02:33	26012020	260120	000233	325.820	12.415828	-57.474297	326.490	-0.060	0.210	-0.250	326.010	-1.300	0.000																			1579996953.0	5.39	9.98
26/01/2020 00:02:34	26012020	260120	000234	326.760	12.415845	-57.474315	327.410	-0.390	0.260	-0.260	326.950	-1.200	0.100																			1579996954.0	5.24	9.70
26/01/2020 00:02:35	26012020	260120	000235	327.690	12.415860	-57.474335	328.300	-0.460	0.170	-0.340	327.880	-1.200	0.000																			1579996955.0	5.28	9.78
26/01/2020 00:02:36	26012020	260120	000236	328.410	12.415875	-57.474355	329.140	-0.280	-0.030	-0.390	328.580	-1.300	-0.100																			1579996956.0	5.39	9.98
26/01/2020 00:02:37	26012020	260120	000237	329.430	12.415890	-57.474375	330.030	-0.000	-0.340	-0.410	329.610	-1.600	-0.100																			1579996957.0	5.42	10.04
26/01/2020 00:02:38	26012020	260120	000238	330.200	12.415905	-57.474395	331.080	0.210	-0.620	-0.450	330.390	-1.900	-0.100																			1579996958.0	5.41	10.02
26/01/2020 00:02:39	26012020	260120	000239	331.540	12.415923	-57.474415	332.270	0.280	-0.650	-0.490	331.760	-2.100	-0.200																			1579996959.0	5.42	10.04
26/01/2020 00:02:40	26012020	260120	000240	332.720	12.415940	-57.474432	333.340	0.210	-0.300	-0.420	332.930	-1.900	-0.200																			1579996960.0	5.31	9.83
26/01/2020 00:02:41	26012020	260120	000241	333.710	12.415957	-57.474448	334.180	0.110	0.210	-0.210	333.870	-1.400	-0.000																			1579996961.0	5.00	9.26
26/01/2020 00:02:42	26012020	260120	000242	334.440	12.415973	-57.474463	334.820	0.070	0.480	0.010	334.560	-1.000	0.200																			1579996962.0	4.70	8.70
26/01/2020 00:02:43	26012020	260120	000243	335.050	12.415988	-57.474478	335.500	0.150	0.270	0.100	335.180	-1.000	0.400																			1579996963.0	4.72	8.74
26/01/2020 00:02:44	26012020	260120	000244	335.780	12.416007	-57.474495	336.360	0.210	-0.200	-0.080	335.950	-1.400	0.300																			1579996964.0	5.07	9.39
26/01/2020 00:02:45	26012020	260120	000245	336.690	12.416025	-57.474512	337.300	0.060	-0.450	-0.470	336.890	-1.800	0.000																			1579996965.0	5.46	10.11
26/01/2020 00:02:46	26012020	260120	000246	337.630	12.416045	-57.474530	338.160	-0.270	-0.270	-0.950	337.810	-1.800	-0.400																			1579996966.0	5.47	10.13
26/01/2020 00:02:47	26012020	260120	000247	338.440	12.416060	-57.474547	338.870	-0.500	0.040	-1.360	338.580	-1.500	-0.900																			1579996967.0	5.13	9.50
26/01/2020 00:02:48	26012020	260120	000248	339.100	12.416075	-57.474565	339.480	-0.390	0.090	-1.610	339.220	-1.300	-1.200																			1579996968.0	4.98	9.22
26/01/2020 00:02:49	26012020	260120	000249	339.700	12.416092	-57.474583	340.080	-0.000	-0.090	-1.630	339.820	-1.400	-1.300																			1579996969.0	5.11	9.46
26/01/2020 00:02:50	26012020	260120	000250	340.180	12.416110	-57.474600	340.640	0.300	-0.110	-1.380	340.290	-1.500	-1.200																			1579996970.0	5.27	9.76
26/01/2020 00:02:51	26012020	260120	000251	340.790	12.416130	-57.474613	341.040	0.250	0.100	-0.840	340.880	-1.400	-0.800																			1579996971.0	5.09	9.43
26/01/2020 00:02:52	26012020	260120	000252	341.120	12.416148	-57.474623	341.300	-0.030	0.280	-0.210	341.170	-1.200	-0.200																			1579996972.0	4.61	8.54
26/01/2020 00:02:53	26012020	260120	000253	341.320	12.416167	-57.474632	341.480	-0.190	0.030	0.200	341.350	-1.200	0.300																			1579996973.0	4.30	7.96
26/01/2020 00:02:54	26012020	260120	000254	341.510	12.416185	-57.474642	341.680	-0.040	-0.540	0.260	341.560	-1.600	0.600																			1579996974.0	4.57	8.46
26/01/2020 00:02:55	26012020	260120	000255	341.760	12.416207	-57.474653	341.950	0.220	-0.900	0.060	341.810	-2.200	0.500																			1579996975.0	5.19	9.61
26/01/2020 00:02:56	26012020	260120	000256	342.060	12.416227	-57.474668	342.260	0.280	-0.650	-0.240	342.120	-2.200	0.200																			1579996976.0	5.49	10.17
26/01/2020 00:02:57	26012020	260120	000257	342.350	12.416247	-57.474683	342.510	0.100	-0.020	-0.520	342.400	-1.700	-0.100																			1579996977.0	5.20	9.63
26/01/2020 00:02:58	26012020	260120	000258	342.560	12.416263	-57.474698	342.680	-0.110	0.450	-0.660	342.590	-1.100	-0.300																			1579996978.0	4.72	8.74
26/01/2020 00:02:59	26012020	260120	000259	342.720	12.416278	-57.474712	342.860	-0.120	0.440	-0.630	342.750	-0.900	-0.400	1014.80	25.70	25.80	21.10	21.10	-1.00	75.00	75.00	402.00	25.10	33.00	5.80	19.00	3.90	15	3567.00	27.40	27.40	1579996979.0	4.56	8.45
26/01/2020 00:03:00	26012020	260120	000300	342.900	12.416298	-57.474725	343.060	0.020	0.130	-0.440	342.930	-1.100	-0.300																			1579996980.0	4.81	8.91
26/01/2020 00:03:01	26012020	260120	000301	343.090	12.416318	-57.474737	343.240	0.100	-0.110	-0.080	343.140	-1.400	0.000																			1579996981.0	5.14	9.52
26/01/2020 00:03:02	26012020	260120	000302	343.240	12.416340	-57.474747	343.370	0.010	-0.110	0.360	343.270	-1.500	0.400																			1579996982.0	5.11	9.46
26/01/2020 00:03:03	26012020	260120	000303	343.360	12.416360	-57.474757	343.440	-0.120	-0.050	0.760	343.370	-1.500	0.900																			1579996983.0	4.78	8.85
26/01/2020 00:03:04	26012020	260120	000304	343.410	12.416380	-57.474765	343.610	-0.130	-0.170	0.910	343.430	-1.500	1.200																			1579996984.0	4.51	8.35
26/01/2020 00:03:05	26012020	260120	000305	343.690	12.416398	-57.474775	344.020	-0.000	-0.490	0.690	343.760	-1.700	1.100																			1579996985.0	4.60	8.52
26/01/2020 00:03:06	26012020	260120	000306	344.180	12.416418	-57.474787	344.540	0.130	-0.670	0.260	344.280	-2.000	0.800																			1579996986.0	4.96	9.19
26/01/2020 00:03:07	26012020	260120	000307	344.690	12.416438	-57.474800	344.970	0.160	-0.440	-0.110	344.780	-2.000	0.400																			1579996987.0	5.23	9.69
26/01/2020 00:03:08	26012020	260120	000308	345.070	12.416457	-57.474815	345.250	0.110	0.030	-0.290	345.130	-1.600	0.100																			1579996988.0	5.04	9.33
26/01/2020 00:03:09	26012020	260120	000309	345.310	12.416475	-57.474828	345.400	0.100	0.350	-0.180	345.340	-1.200	0.000																			1579996989.0	4.64	8.59
26/01/2020 00:03:10	26012020	260120	000310	345.440	12.416492	-57.474838	345.550	0.130	0.300	0.060	345.460	-1.000	0.300																			1579996990.0	4.47	8.28
26/01/2020 00:03:11	26012020	260120	000311	345.630	12.416512	-57.474848	345.870	0.110	-0.000	0.110	345.690	-1.200	0.400																			1579996991.0	4.62	8.56
26/01/2020 00:03:12	26012020	260120	000312	346.040	12.416532	-57.474858	346.400	-0.030	-0.240	-0.050	346.150	-1.500	0.300																			1579996992.0	4.86	9.00
26/01/2020 00:03:13	26012020	260120	000313	346.620	12.416552	-57.474868	346.940	-0.290	-0.160	-0.250	346.740	-1.600	0.100																			1579996993.0	4.89	9.06
26/01/2020 00:03:14	26012020	260120	000314	347.160	12.416572	-57.474880	347.420	-0.490	0.060	-0.390	347.260	-1.400	-0.000																			1579996994.0	4.63	8.57
26/01/2020 00:03:15	26012020	260120	000315	347.600	12.416588	-57.474892	347.790	-0.400	0.020	-0.400	347.680	-1.300	-0.100																			1579996995.0	4.36	8.07
26/01/2020 00:03:16	26012020	260120	000316	347.920	12.416605	-57.474903	348.060	0.030	-0.360	-0.210	347.970	-1.500	-0.000																			1579996996.0	4.44	8.22
26/01/2020 00:03:17	26012020	260120	000317	348.130	12.416625	-57.474913	348.210	0.520	-0.740	0.130	348.160	-2.000	0.200																			1579996997.0	4.77	8.83
26/01/2020 00:03:18	26012020	260120	000318	348.310	12.416647	-57.474922	348.500	0.720	-0.740	0.460	348.360	-2.200	0.600																			1579996998.0	4.96	9.19
26/01/2020 00:03:19	26012020	260120	000319	348.660	12.416668	-57.474928	348.980	0.500	-0.300	0.600	348.750	-2.000	0.900																			1579996999.0	4.75	8.80
26/01/2020 00:03:20	26012020	260120	000320	349.190	12.416687	-57.474937	349.530	0.000	0.360	0.480	349.300	-1.400	0.900																			1579997000.0	4.32	8.00
26/01/2020 00:03:21	26012020	260120	000321	349.690	12.416703	-57.474945	349.970	-0.470	0.850	0.170	349.780	-0.700	0.600																			1579997001.0	3.99	7.39
26/01/2020 00:03:22	26012020	260120	000322	350.090	12.416718	-57.474955	350.350	-0.680	0.830	-0.160	350.170	-0.500	0.300																			1579997002.0	4.00	7.41
26/01/2020 00:03:23	26012020	260120	000323	350.450	12.416735	-57.474967	350.680	-0.570	0.290	-0.360	350.520	-0.800	0.000																			1579997003.0	4.29	7.95
26/01/2020 00:03:24	26012020	260120	000324	350.760	12.416753	-57.474977	350.940	-0.290	-0.420	-0.420	350.810	-1.500	-0.100																			1579997004.0	4.66	8.63
26/01/2020 00:03:25	26012020	260120	000325	351.020	12.416773	-57.474987	351.230	-0.000	-0.940	-0.460	351.080	-2.100	-0.100																			1579997005.0	4.84	8.96
26/01/2020 00:03:26	26012020	260120	000326	351.280	12.416793	-57.474997	351.700	0.230	-1.070	-0.530	351.370	-2.400	-0.200																			1579997006.0	4.75	8.80
26/01/2020 00:03:27	26012020	260120	000327	351.880	12.416813	-57.475005	352.280	0.410	-0.840	-0.470	352.000	-2.400	-0.200																			1579997007.0	4.51	8.35
26/01/2020 00:03:28	26012020	260120	000328	352.460	12.416832	-57.475015	352.810	0.510	-0.290	-0.180	352.560	-2.000	-0.100																			1579997008.0	4.28	7.93
26/01/2020 00:03:29	26012020	260120	000329	352.930	12.416848	-57.475022	353.210	0.440	0.330	0.260	353.000	-1.400	0.300																			1579997009.0	4.02	7.45
26/01/2020 00:03:30	26012020	260120	000330	353.290	12.416865	-57.475027	353.560	0.230	0.660	0.640	353.360	-0.800	0.700																			1579997010.0	3.76	6.96
26/01/2020 00:03:31	26012020	260120	000331	353.620	12.416882	-57.475030	353.830	-0.030	0.530	0.880	353.670	-0.700	1.100																			1579997011.0	3.80	7.04
26/01/2020 00:03:32	26012020	260120	000332	353.870	12.416902	-57.475037	354.030	-0.270	0.190	0.860	353.920	-1.000	1.200																			1579997012.0	4.16	7.70
26/01/2020 00:03:33	26012020	260120	000333	354.100	12.416920	-57.475043	354.340	-0.430	-0.090	0.460	354.160	-1.400	1.000																			1579997013.0	4.44	8.22
26/01/2020 00:03:34	26012020	260120	000334	354.510	12.416938	-57.475053	354.920	-0.490	-0.260	-0.180	354.630	-1.600	0.400																			1579997014.0	4.46	8.26
26/01/2020 00:03:35	26012020	260120	000335	355.160	12.416957	-57.475063	355.580	-0.420	-0.330	-0.660	355.310	-1.700	-0.200																			1579997015.0	4.39	8.13
26/01/2020 00:03:36	26012020	260120	000336	355.810	12.416973	-57.475075	356.090	-0.230	-0.300	-0.800	355.910	-1.700	-0.500																			1579997016.0	4.29	7.95
26/01/2020 00:03:37	26012020	260120	000337	356.220	12.416990	-57.475083	356.360	0.020	-0.220	-0.630	356.270	-1.600	-0.500																			1579997017.0	4.13	7.65
26/01/2020 00:03:38	26012020	260120	000338	356.380	12.417007	-57.475092	356.480	0.250	-0.210	-0.280	356.400	-1.600	-0.200																			1579997018.0	3.97	7.35
26/01/2020 00:03:39	26012020	260120	000339	356.520	12.417025	-57.475097	356.660	0.380	-0.300	0.090	356.550	-1.600	0.200																			1579997019.0	3.89	7.20
26/01/2020 00:03:40	26012020	260120	000340	356.680	12.417042	-57.475100	357.020	0.340	-0.410	0.350	356.740	-1.700	0.500																			1579997020.0	3.97	7.35
26/01/2020 00:03:41	26012020	260120	000341	357.180	12.417062	-57.475105	357.630	0.180	-0.370	0.320	357.310	-1.800	0.700																			1579997021.0	4.07	7.54
26/01/2020 00:03:42	26012020	260120	000342	357.890	12.417078	-57.475112	358.400	0.020	-0.160	0.070	358.040	-1.700	0.500																			1579997022.0	4.09	7.57
26/01/2020 00:03:43	26012020	260120	000343	358.660	12.417097	-57.475118	359.030	-0.050	0.150	-0.010	358.780	-1.400	0.300																			1579997023.0	4.07	7.54
26/01/2020 00:03:44	26012020	260120	000344	359.160	12.417113	-57.475127	359.330	-0.090	0.410	0.180	359.220	-1.100	0.300																			1579997024.0	3.92	7.26
26/01/2020 00:03:45	26012020	260120	000345	359.370	12.417130	-57.475132	359.490	-0.140	0.480	0.480	359.390	-0.900	0.600																			1579997025.0	3.70	6.85
26/01/2020 00:03:46	26012020	260120	000346	359.520	12.417145	-57.475135	359.710	-0.140	0.300	0.700	359.560	-1.000	0.900																			1579997026.0	3.64	6.74
26/01/2020 00:03:47	26012020	260120	000347	359.770	12.417163	-57.475140	359.990	-0.040	-0.060	0.730	359.830	-1.300	1.000																			1579997027.0	3.71	6.87
26/01/2020 00:03:48	26012020	260120	000348	0.080	12.417180	-57.475143	0.340	0.070	-0.460	0.520	0.150	-1.700	0.900																			1579997028.0	3.86	7.15
26/01/2020 00:03:49	26012020	260120	000349	0.460	12.417198	-57.475150	0.760	0.060	-0.710	0.020	0.540	-2.000	0.600																			1579997029.0	4.01	7.43
26/01/2020 00:03:50	26012020	260120	000350	0.910	12.417215	-57.475157	1.210	-0.050	-0.690	-0.540	1.000	-2.100	0.000																			1579997030.0	4.11	7.61
26/01/2020 00:03:51	26012020	260120	000351	1.360	12.417233	-57.475167	1.670	-0.130	-0.410	-0.920	1.460	-1.900	-0.500																			1579997031.0	4.14	7.67
26/01/2020 00:03:52	26012020	260120	000352	1.740	12.417248	-57.475175	2.140	-0.100	-0.050	-1.040	1.830	-1.600	-0.700																			1579997032.0	4.00	7.41
26/01/2020 00:03:53	26012020	260120	000353	2.310	12.417265	-57.475183	2.610	-0.030	0.220	-0.850	2.410	-1.300	-0.700																			1579997033.0	3.75	6.95
26/01/2020 00:03:54	26012020	260120	000354	2.660	12.417280	-57.475188	2.970	0.010	0.350	-0.380	2.740	-1.100	-0.400																			1579997034.0	3.60	6.67
26/01/2020 00:03:55	26012020	260120	000355	3.070	12.417297	-57.475192	3.290	-0.030	0.350	0.220	3.110	-1.000	0.200																			1579997035.0	3.54	6.56
26/01/2020 00:03:56	26012020	260120	000356	3.330	12.417313	-57.475192	3.570	-0.080	0.170	0.780	3.390	-1.100	0.800																			1579997036.0	3.49	6.46
26/01/2020 00:03:57	26012020	260120	000357	3.640	12.417328	-57.475193	3.960	-0.070	-0.200	1.080	3.720	-1.400	1.300																			1579997037.0	3.47	6.43
26/01/2020 00:03:58	26012020	260120	000358	4.070	12.417345	-57.475195	4.440	0.010	-0.530	1.060	4.170	-1.800	1.400																			1579997038.0	3.62	6.70
26/01/2020 00:03:59	26012020	260120	000359	4.540	12.417363	-57.475198	4.840	0.090	-0.560	0.900	4.630	-2.000	1.300	1014.70	25.80	25.80	21.00	21.00	-1.00	75.00	74.00	403.00	25.10	25.00	6.20	30.00	4.30	15	3630.00	27.40	27.40	1579997039.0	3.77	6.98
26/01/2020 00:04:00	26012020	260120	000400	4.880	12.417380	-57.475203	5.070	0.170	-0.360	0.710	4.930	-1.900	1.100																			1579997040.0	3.70	6.85
26/01/2020 00:04:01	26012020	260120	000401	5.100	12.417395	-57.475208	5.340	0.240	-0.180	0.430	5.150	-1.600	0.900																			1579997041.0	3.54	6.56
26/01/2020 00:04:02	26012020	260120	000402	5.420	12.417410	-57.475213	5.740	0.300	-0.120	0.050	5.500	-1.500	0.500																			1579997042.0	3.55	6.57
26/01/2020 00:04:03	26012020	260120	000403	5.870	12.417427	-57.475220	6.200	0.250	-0.020	-0.350	5.970	-1.500	0.100																			1579997043.0	3.72	6.89
26/01/2020 00:04:04	26012020	260120	000404	6.320	12.417443	-57.475225	6.560	0.030	0.220	-0.610	6.390	-1.300	-0.200																			1579997044.0	3.76	6.96
26/01/2020 00:04:05	26012020	260120	000405	6.650	12.417460	-57.475230	6.840	-0.310	0.400	-0.740	6.710	-1.000	-0.400																			1579997045.0	3.51	6.50
26/01/2020 00:04:06	26012020	260120	000406	6.920	12.417473	-57.475235	7.110	-0.540	0.310	-0.710	6.970	-1.000	-0.400																			1579997046.0	3.28	6.07
26/01/2020 00:04:07	26012020	260120	000407	7.170	12.417488	-57.475238	7.360	-0.520	-0.010	-0.530	7.220	-1.200	-0.300																			1579997047.0	3.34	6.19
26/01/2020 00:04:08	26012020	260120	000408	7.440	12.417505	-57.475242	7.680	-0.280	-0.370	-0.250	7.490	-1.600	-0.100																			1579997048.0	3.52	6.52
26/01/2020 00:04:09	26012020	260120	000409	7.740	12.417522	-57.475245	8.020	0.050	-0.580	0.090	7.810	-1.900	0.200																			1579997049.0	3.55	6.57
26/01/2020 00:04:10	26012020	260120	000410	8.080	12.417537	-57.475248	8.390	0.300	-0.600	0.430	8.150	-2.000	0.500																			1579997050.0	3.45	6.39
26/01/2020 00:04:11	26012020	260120	000411	8.460	12.417552	-57.475248	8.820	0.350	-0.440	0.690	8.540	-1.900	0.900																			1579997051.0	3.28	6.07
26/01/2020 00:04:12	26012020	260120	000412	8.880	12.417567	-57.475250	9.210	0.220	-0.140	0.900	8.950	-1.700	1.100																			1579997052.0	3.16	5.85
26/01/2020 00:04:13	26012020	260120	000413	9.220	12.417582	-57.475250	9.460	0.000	0.190	1.010	9.270	-1.300	1.300																			1579997053.0	3.09	5.72
26/01/2020 00:04:14	26012020	260120	000414	9.430	12.417595	-57.475252	9.630	-0.130	0.370	0.960	9.460	-1.100	1.300																			1579997054.0	3.03	5.61
26/01/2020 00:04:15	26012020	260120	000415	9.580	12.417608	-57.475255	9.790	-0.070	0.270	0.780	9.610	-1.000	1.200																			1579997055.0	3.09	5.72
26/01/2020 00:04:16	26012020	260120	000416	9.720	12.417623	-57.475260	10.050	0.120	-0.060	0.500	9.760	-1.300	0.900																			1579997056.0	3.29	6.09
26/01/2020 00:04:17	26012020	260120	000417	10.060	12.417640	-57.475263	10.420	0.250	-0.390	0.110	10.130	-1.600	0.600																			1579997057.0	3.48	6.44
26/01/2020 00:04:18	26012020	260120	000418	10.370	12.417657	-57.475265	10.770	0.170	-0.450	-0.320	10.440	-1.800	0.200																			1579997058.0	3.59	6.65
26/01/2020 00:04:19	26012020	260120	000419	10.770	12.417672	-57.475270	10.990	-0.090	-0.190	-0.640	10.810	-1.700	-0.200																			1579997059.0	3.49	6.46
26/01/2020 00:04:20	26012020	260120	000420	10.920	12.417687	-57.475273	11.080	-0.340	0.140	-0.750	10.940	-1.400	-0.400																			1579997060.0	3.24	6.00
26/01/2020 00:04:21	26012020	260120	000421	11.030	12.417700	-57.475278	11.250	-0.350	0.220	-0.700	11.060	-1.100	-0.400																			1579997061.0	3.01	5.57
26/01/2020 00:04:22	26012020	260120	000422	11.250	12.417713	-57.475283	11.590	-0.090	-0.060	-0.580	11.320	-1.300	-0.300																			1579997062.0	3.00	5.56
26/01/2020 00:04:23	26012020	260120	000423	11.640	12.417728	-57.475285	12.060	0.210	-0.430	-0.360	11.730	-1.600	-0.200																			1579997063.0	3.23	5.98
26/01/2020 00:04:24	26012020	260120	000424	12.120	12.417743	-57.475287	12.510	0.300	-0.510	0.090	12.210	-1.900	0.100																			1579997064.0	3.41	6.32
26/01/2020 00:04:25	26012020	260120	000425	12.500	12.417758	-57.475285	12.770	0.090	-0.140	0.750	12.560	-1.700	0.700																			1579997065.0	3.22	5.96
26/01/2020 00:04:26	26012020	260120	000426	12.670	12.417772	-57.475283	12.810	-0.200	0.390	1.440	12.670	-1.200	1.400																			1579997066.0	2.72	5.04
26/01/2020 00:04:27	26012020	260120	000427	12.630	12.417782	-57.475282	12.770	-0.340	0.540	1.770	12.620	-0.800	2.000																			1579997067.0	2.28	4.22
26/01/2020 00:04:28	26012020	260120	000428	12.620	12.417792	-57.475282	12.900	-0.210	0.030	1.510	12.650	-1.000	2.000																			1579997068.0	2.31	4.28
26/01/2020 00:04:29	26012020	260120	000429	12.850	12.417807	-57.475283	13.260	0.080	-0.730	0.820	12.930	-1.700	1.500																			1579997069.0	3.03	5.61
26/01/2020 00:04:30	26012020	260120	000430	13.210	12.417823	-57.475288	13.720	0.320	-1.000	0.050	13.300	-2.300	0.700																			1579997070.0	3.86	7.15
26/01/2020 00:04:31	26012020	260120	000431	13.750	12.417842	-57.475293	14.050	0.390	-0.520	-0.450	13.830	-2.200	0.100																			1579997071.0	3.99	7.39
26/01/2020 00:04:32	26012020	260120	000432	13.990	12.417855	-57.475300	14.210	0.310	0.210	-0.550	14.030	-1.500	-0.200																			1579997072.0	3.33	6.17
26/01/2020 00:04:33	26012020	260120	000433	14.140	12.417867	-57.475305	14.320	0.130	0.560	-0.400	14.160	-0.900	-0.200																			1579997073.0	2.53	4.69
26/01/2020 00:04:34	26012020	260120	000434	14.280	12.417877	-57.475307	14.550	-0.070	0.380	-0.210	14.330	-0.800	-0.000																			1579997074.0	2.31	4.28
26/01/2020 00:04:35	26012020	260120	000435	14.590	12.417888	-57.475307	14.990	-0.280	-0.010	-0.090	14.670	-1.200	0.200																			1579997075.0	2.68	4.96
26/01/2020 00:04:36	26012020	260120	000436	15.050	12.417903	-57.475305	15.470	-0.400	-0.240	0.010	15.140	-1.500	0.200																			1579997076.0	2.98	5.52
26/01/2020 00:04:37	26012020	260120	000437	15.480	12.417917	-57.475307	15.760	-0.370	-0.200	0.250	15.550	-1.600	0.400																			1579997077.0	2.95	5.46
26/01/2020 00:04:38	26012020	260120	000438	15.710	12.417928	-57.475308	15.840	-0.190	-0.050	0.680	15.720	-1.500	0.700																			1579997078.0	2.68	4.96
26/01/2020 00:04:39	26012020	260120	000439	15.740	12.417940	-57.475308	15.870	0.040	-0.060	1.080	15.730	-1.400	1.200																			1579997079.0	2.38	4.41
26/01/2020 00:04:40	26012020	260120	000440	15.800	12.417952	-57.475308	16.100	0.250	-0.310	1.160	15.840	-1.500	1.500																			1579997080.0	2.37	4.39
26/01/2020 00:04:41	26012020	260120	000441	16.120	12.417963	-57.475308	16.560	0.370	-0.570	0.930	16.220	-1.800	1.400																			1579997081.0	2.62	4.85
26/01/2020 00:04:42	26012020	260120	000442	16.520	12.417977	-57.475310	17.030	0.350	-0.530	0.610	16.610	-2.000	1.100																			1579997082.0	2.85	5.28
26/01/2020 00:04:43	26012020	260120	000443	17.050	12.417990	-57.475312	17.370	0.200	-0.190	0.280	17.120	-1.800	0.700																			1579997083.0	2.79	5.17
26/01/2020 00:04:44	26012020	260120	000444	17.290	12.418000	-57.475315	17.580	-0.020	0.200	-0.010	17.340	-1.400	0.400																			1579997084.0	2.54	4.70
26/01/2020 00:04:45	26012020	260120	000445	17.500	12.418012	-57.475318	17.670	-0.230	0.430	-0.150	17.520	-1.000	0.200																			1579997085.0	2.46	4.56
26/01/2020 00:04:46	26012020	260120	000446	17.590	12.418023	-57.475322	17.780	-0.340	0.470	-0.210	17.610	-0.900	0.100																			1579997086.0	2.54	4.70
26/01/2020 00:04:47	26012020	260120	000447	17.730	12.418035	-57.475325	18.030	-0.280	0.240	-0.290	17.780	-1.000	0.100																			1579997087.0	2.58	4.78
26/01/2020 00:04:48	26012020	260120	000448	18.060	12.418047	-57.475328	18.470	-0.100	-0.230	-0.340	18.140	-1.400	-0.000																			1579997088.0	2.55	4.72
26/01/2020 00:04:49	26012020	260120	000449	18.550	12.418058	-57.475330	18.980	0.040	-0.630	-0.250	18.650	-1.800	-0.000																			1579997089.0	2.60	4.82
26/01/2020 00:04:50	26012020	260120	000450	19.040	12.418070	-57.475330	19.390	0.070	-0.650	-0.010	19.130	-2.100	0.100																			1579997090.0	2.60	4.82
26/01/2020 00:04:51	26012020	260120	000451	19.400	12.418082	-57.475328	19.650	0.040	-0.340	0.380	19.450	-1.900	0.500																			1579997091.0	2.34	4.33
26/01/2020 00:04:52	26012020	260120	000452	19.610	12.418090	-57.475328	19.800	0.040	0.020	0.840	19.640	-1.500	0.900																			1579997092.0	1.94	3.59
26/01/2020 00:04:53	26012020	260120	000453	19.750	12.418098	-57.475328	19.980	0.080	0.190	1.210	19.790	-1.200	1.400																			1579997093.0	1.77	3.28
26/01/2020 00:04:54	26012020	260120	000454	19.970	12.418107	-57.475328	20.280	0.080	0.120	1.280	20.030	-1.200	1.600																			1579997094.0	1.86	3.44
26/01/2020 00:04:55	26012020	260120	000455	20.310	12.418117	-57.475328	20.650	0.010	0.000	1.030	20.390	-1.300	1.500																			1579997095.0	2.11	3.91
26/01/2020 00:04:56	26012020	260120	000456	20.670	12.418127	-57.475330	20.970	-0.080	0.000	0.590	20.730	-1.400	1.100																			1579997096.0	2.35	4.35
26/01/2020 00:04:57	26012020	260120	000457	20.950	12.418138	-57.475333	21.200	-0.100	0.010	0.160	21.000	-1.400	0.700																			1579997097.0	2.42	4.48
26/01/2020 00:04:58	26012020	260120	000458	21.190	12.418148	-57.475337	21.460	-0.000	-0.160	-0.160	21.240	-1.400	0.300																			1579997098.0	2.35	4.35
26/01/2020 00:04:59	26012020	260120	000459	21.490	12.418158	-57.475342	21.790	0.100	-0.410	-0.380	21.560	-1.700	0.000	1014.80	25.80	25.80	21.00	21.00	-1.00	74.00	74.00	405.00	25.10	6.00	5.80	22.00	4.30	15	3550.00	27.40	27.40	1579997099.0	2.30	4.26
26/01/2020 00:05:00	26012020	260120	000500	21.840	12.418168	-57.475343	22.150	0.120	-0.510	-0.590	21.920	-1.900	-0.200																			1579997100.0	2.36	4.37
26/01/2020 00:05:01	26012020	260120	000501	22.200	12.418180	-57.475345	22.450	0.070	-0.280	-0.690	22.270	-1.800	-0.400																			1579997101.0	2.34	4.33
26/01/2020 00:05:02	26012020	260120	000502	22.470	12.418190	-57.475348	22.620	0.000	0.130	-0.470	22.510	-1.400	-0.300																			1579997102.0	2.14	3.96
26/01/2020 00:05:03	26012020	260120	000503	22.640	12.418197	-57.475350	22.810	-0.030	0.350	0.000	22.670	-1.100	0.100																			1579997103.0	1.76	3.26
26/01/2020 00:05:04	26012020	260120	000504	22.850	12.418203	-57.475350	23.150	-0.010	0.190	0.450	22.920	-1.100	0.500																			1579997104.0	1.50	2.78
26/01/2020 00:05:05	26012020	260120	000505	23.220	12.418212	-57.475348	23.560	-0.040	-0.130	0.740	23.300	-1.400	0.900																			1579997105.0	1.68	3.11
26/01/2020 00:05:06	26012020	260120	000506	23.530	12.418220	-57.475347	23.840	-0.140	-0.220	0.960	23.590	-1.600	1.100																			1579997106.0	1.94	3.59
26/01/2020 00:05:07	26012020	260120	000507	23.790	12.418230	-57.475347	23.930	-0.230	-0.060	1.220	23.810	-1.500	1.400																			1579997107.0	1.87	3.46
26/01/2020 00:05:08	26012020	260120	000508	23.830	12.418237	-57.475347	24.000	-0.180	0.000	1.330	23.840	-1.400	1.600																			1579997108.0	1.58	2.93
26/01/2020 00:05:09	26012020	260120	000509	23.950	12.418243	-57.475348	24.200	0.030	-0.220	1.080	23.990	-1.500	1.600																			1579997109.0	1.54	2.85
26/01/2020 00:05:10	26012020	260120	000510	24.210	12.418253	-57.475350	24.490	0.220	-0.450	0.580	24.270	-1.700	1.200																			1579997110.0	1.91	3.54
26/01/2020 00:05:11	26012020	260120	000511	24.500	12.418263	-57.475352	24.690	0.270	-0.400	0.120	24.540	-1.800	0.600																			1579997111.0	2.28	4.22
26/01/2020 00:05:12	26012020	260120	000512	24.670	12.418273	-57.475355	24.800	0.160	-0.110	-0.180	24.690	-1.600	0.300																			1579997112.0	2.28	4.22
26/01/2020 00:05:13	26012020	260120	000513	24.800	12.418282	-57.475358	24.970	0.010	0.150	-0.380	24.830	-1.300	0.000																			1579997113.0	2.02	3.74
26/01/2020 00:05:14	26012020	260120	000514	24.980	12.418290	-57.475363	25.190	-0.110	0.170	-0.490	25.030	-1.200	-0.100																			1579997114.0	1.89	3.50
26/01/2020 00:05:15	26012020	260120	000515	25.230	12.418298	-57.475365	25.430	-0.140	-0.000	-0.530	25.290	-1.300	-0.200																			1579997115.0	1.92	3.56
26/01/2020 00:05:16	26012020	260120	000516	25.500	12.418307	-57.475367	25.720	-0.090	-0.150	-0.380	25.560	-1.500	-0.200																			1579997116.0	1.96	3.63
26/01/2020 00:05:17	26012020	260120	000517	25.780	12.418315	-57.475367	26.000	-0.010	-0.160	0.030	25.830	-1.500	0.100																			1579997117.0	1.84	3.41
26/01/2020 00:05:18	26012020	260120	000518	26.020	12.418323	-57.475367	26.250	0.030	-0.090	0.590	26.070	-1.500	0.600																			1579997118.0	1.57	2.91
26/01/2020 00:05:19	26012020	260120	000519	26.250	12.418328	-57.475363	26.460	0.000	-0.010	1.090	26.290	-1.400	1.200																			1579997119.0	1.35	2.50
26/01/2020 00:05:20	26012020	260120	000520	26.380	12.418335	-57.475362	26.520	-0.040	0.030	1.430	26.400	-1.400	1.600																			1579997120.0	1.29	2.39
26/01/2020 00:05:21	26012020	260120	000521	26.400	12.418340	-57.475362	26.480	-0.030	-0.040	1.560	26.390	-1.400	1.800																			1579997121.0	1.33	2.46
26/01/2020 00:05:22	26012020	260120	000522	26.370	12.418348	-57.475362	26.570	0.040	-0.240	1.370	26.380	-1.500	1.800																			1579997122.0	1.50	2.78
26/01/2020 00:05:23	26012020	260120	000523	26.530	12.418357	-57.475363	26.810	0.100	-0.410	0.910	26.580	-1.700	1.500																			1579997123.0	1.81	3.35
26/01/2020 00:05:24	26012020	260120	000524	26.820	12.418365	-57.475367	27.140	0.100	-0.410	0.320	26.890	-1.800	0.900																			1579997124.0	2.11	3.91
26/01/2020 00:05:25	26012020	260120	000525	27.160	12.418375	-57.475370	27.430	0.070	-0.210	-0.140	27.240	-1.700	0.400																			1579997125.0	2.24	4.15
26/01/2020 00:05:26	26012020	260120	000526	27.460	12.418383	-57.475375	27.640	0.000	0.110	-0.300	27.500	-1.400	0.100																			1579997126.0	2.12	3.93
26/01/2020 00:05:27	26012020	260120	000527	27.650	12.418390	-57.475378	27.800	-0.120	0.370	-0.280	27.690	-1.100	0.000																			1579997127.0	1.66	3.07
26/01/2020 00:05:28	26012020	260120	000528	27.820	12.418397	-57.475380	27.950	-0.260	0.370	-0.200	27.850	-1.000	0.100																			1579997128.0	1.26	2.33
26/01/2020 00:05:29	26012020	260120	000529	27.970	12.418402	-57.475380	28.130	-0.280	0.040	-0.000	28.000	-1.100	0.200																			1579997129.0	1.23	2.28
26/01/2020 00:05:30	26012020	260120	000530	28.160	12.418408	-57.475380	28.380	-0.100	-0.380	0.280	28.220	-1.600	0.400																			1579997130.0	1.47	2.72
26/01/2020 00:05:31	26012020	260120	000531	28.420	12.418417	-57.475380	28.620	0.120	-0.550	0.650	28.470	-1.900	0.800																			1579997131.0	1.67	3.09
26/01/2020 00:05:32	26012020	260120	000532	28.630	12.418423	-57.475380	28.820	0.240	-0.420	0.920	28.630	-1.900	1.100																			1579997132.0	1.52	2.82
26/01/2020 00:05:33	26012020	260120	000533	28.830	12.418430	-57.475380	29.090	0.260	-0.230	0.970	28.880	-1.700	1.300																			1579997133.0	1.18	2.19
26/01/2020 00:05:34	26012020	260120	000534	29.050	12.418435	-57.475382	29.390	0.300	-0.150	0.980	29.110	-1.500	1.300																			1579997134.0	1.14	2.11
26/01/2020 00:05:35	26012020	260120	000535	29.440	12.418440	-57.475383	29.680	0.270	-0.090	1.060	29.490	-1.500	1.300																			1579997135.0	1.28	2.37
26/01/2020 00:05:36	26012020	260120	000536	29.660	12.418447	-57.475383	29.820	0.020	0.140	1.060	29.680	-1.400	1.400																			1579997136.0	1.32	2.44
26/01/2020 00:05:37	26012020	260120	000537	29.750	12.418452	-57.475385	29.890	-0.380	0.450	0.770	29.760	-1.100	1.300																			1579997137.0	1.24	2.30
26/01/2020 00:05:38	26012020	260120	000538	29.830	12.418458	-57.475388	30.010	-0.620	0.530	0.300	29.860	-0.800	0.900																			1579997138.0	1.44	2.67
26/01/2020 00:05:39	26012020	260120	000539	29.990	12.418463	-57.475393	30.230	-0.440	0.100	-0.130	30.040	-1.000	0.400																			1579997139.0	1.81	3.35
26/01/2020 00:05:40	26012020	260120	000540	30.280	12.418472	-57.475400	30.580	0.030	-0.610	-0.370	30.350	-1.600	0.000																			1579997140.0	1.94	3.59
26/01/2020 00:05:41	26012020	260120	000541	30.650	12.418480	-57.475402	30.940	0.400	-0.960	-0.390	30.730	-2.200	-0.100																			1579997141.0	1.94	3.59
26/01/2020 00:05:42	26012020	260120	000542	31.000	12.418487	-57.475402	31.230	0.410	-0.700	-0.260	31.060	-2.300	-0.000																			1579997142.0	1.61	2.98
26/01/2020 00:05:43	26012020	260120	000543	31.260	12.418492	-57.475402	31.450	0.110	-0.120	-0.040	31.300	-1.800	0.200																			1579997143.0	1.00	1.85
26/01/2020 00:05:44	26012020	260120	000544	31.450	12.418495	-57.475403	31.650	-0.220	0.370	0.210	31.480	-1.200	0.400																			1579997144.0	0.66	1.22
26/01/2020 00:05:45	26012020	260120	000545	31.620	12.418497	-57.475407	31.800	-0.330	0.590	0.510	31.650	-0.900	0.700																			1579997145.0	0.81	1.50
26/01/2020 00:05:46	26012020	260120	000546	31.730	12.418500	-57.475410	31.830	-0.150	0.420	0.870	31.730	-0.800	1.000																			1579997146.0	1.01	1.87
26/01/2020 00:05:47	26012020	260120	000547	31.720	12.418505	-57.475412	31.850	0.170	-0.080	1.150	31.720	-1.200	1.400																			1579997147.0	1.11	2.06
26/01/2020 00:05:48	26012020	260120	000548	31.790	12.418512	-57.475413	32.060	0.390	-0.610	1.220	31.820	-1.700	1.500																			1579997148.0	1.25	2.31
26/01/2020 00:05:49	26012020	260120	000549	32.070	12.418517	-57.475413	32.460	0.350	-0.780	1.070	32.160	-2.100	1.500																			1579997149.0	1.34	2.48
26/01/2020 00:05:50	26012020	260120	000550	32.530	12.418523	-57.475415	32.910	0.070	-0.440	0.810	32.620	-2.000	1.300																			1579997150.0	1.21	2.24
26/01/2020 00:05:51	26012020	260120	000551	32.940	12.418527	-57.475417	33.160	-0.260	0.140	0.620	32.990	-1.500	1.000																			1579997151.0	1.03	1.91
26/01/2020 00:05:52	26012020	260120	000552	33.100	12.418530	-57.475422	33.170	-0.450	0.520	0.540	33.100	-1.000	0.900																			1579997152.0	1.05	1.94
26/01/2020 00:05:53	26012020	260120	000553	33.050	12.418532	-57.475427	33.080	-0.410	0.460	0.510	33.030	-0.800	0.900																			1579997153.0	1.11	2.06
26/01/2020 00:05:54	26012020	260120	000554	32.970	12.418535	-57.475430	33.100	-0.150	-0.010	0.380	32.970	-1.100	0.800																			1579997154.0	1.13	2.09
26/01/2020 00:05:55	26012020	260120	000555	33.090	12.418542	-57.475433	33.360	0.190	-0.540	0.110	33.150	-1.700	0.600																			1579997155.0	1.28	2.37
26/01/2020 00:05:56	26012020	260120	000556	33.340	12.418547	-57.475435	33.650	0.380	-0.670	-0.110	33.400	-2.000	0.300																			1579997156.0	1.42	2.63
26/01/2020 00:05:57	26012020	260120	000557	33.660	12.418552	-57.475438	33.760	0.330	-0.340	-0.180	33.690	-1.900	0.200																			1579997157.0	1.28	2.37
26/01/2020 00:05:58	26012020	260120	000558	33.710	12.418555	-57.475442	33.700	0.120	0.100	-0.080	33.700	-1.500	0.200																			1579997158.0	1.07	1.98
26/01/2020 00:05:59	26012020	260120	000559	33.650	12.418558	-57.475447	33.700	-0.030	0.160	0.090	33.640	-1.200	0.300	1014.80	25.80	25.80	21.00	21.00	-1.00	75.00	74.00	406.00	25.10	347.00	5.40	13.00	4.60	15	3698.00	27.40	27.40	1579997159.0	1.09	2.02
26/01/2020 00:06:00	26012020	260120	000600	33.710	12.418560	-57.475450	33.920	-0.030	-0.110	0.160	33.750	-1.300	0.500																			1579997160.0	1.08	2.00
26/01/2020 00:06:01	26012020	260120	000601	34.010	12.418565	-57.475453	34.300	0.010	-0.330	0.160	34.090	-1.600	0.500																			1579997161.0	1.23	2.28
26/01/2020 00:06:02	26012020	260120	000602	34.430	12.418570	-57.475457	34.690	-0.020	-0.170	0.340	34.510	-1.700	0.500																			1579997162.0	1.23	2.28
26/01/2020 00:06:03	26012020	260120	000603	34.760	12.418573	-57.475458	34.880	-0.150	0.170	0.780	34.790	-1.400	0.900																			1579997163.0	0.76	1.41
26/01/2020 00:06:04	26012020	260120	000604	34.860	12.418573	-57.475458	34.860	-0.290	0.370	1.280	34.850	-1.100	1.400																			1579997164.0	0.17	0.31
26/01/2020 00:06:05	26012020	260120	000605	34.780	12.418573	-57.475458	34.720	-0.350	0.320	1.570	34.760	-1.000	1.800																			1579997165.0	0.21	0.39
26/01/2020 00:06:06	26012020	260120	000606	34.620	12.418573	-57.475460	34.550	-0.260	0.090	1.550	34.590	-1.200	1.900																			1579997166.0	0.12	0.22
26/01/2020 00:06:07	26012020	260120	000607	34.490	12.418575	-57.475462	34.500	-0.040	-0.310	1.130	34.480	-1.500	1.700																			1579997167.0	0.72	1.33
26/01/2020 00:06:08	26012020	260120	000608	34.530	12.418580	-57.475467	34.680	0.240	-0.720	0.320	34.570	-1.900	1.100																			1579997168.0	1.42	2.63
26/01/2020 00:06:09	26012020	260120	000609	34.800	12.418587	-57.475473	35.010	0.460	-0.870	-0.570	34.880	-2.200	0.200																			1579997169.0	2.03	3.76
26/01/2020 00:06:10	26012020	260120	000610	35.090	12.418595	-57.475480	35.250	0.500	-0.580	-1.070	35.150	-2.100	-0.600																			1579997170.0	2.26	4.19
26/01/2020 00:06:11	26012020	260120	000611	35.320	12.418600	-57.475487	35.290	0.360	-0.030	-0.990	35.330	-1.700	-0.800																			1579997171.0	1.89	3.50
26/01/2020 00:06:12	26012020	260120	000612	35.320	12.418603	-57.475492	35.290	0.120	0.360	-0.540	35.310	-1.200	-0.500																			1579997172.0	1.16	2.15
26/01/2020 00:06:13	26012020	260120	000613	35.320	12.418603	-57.475493	35.380	-0.120	0.420	0.050	35.330	-0.900	0.100																			1579997173.0	0.48	0.89
26/01/2020 00:06:14	26012020	260120	000614	35.440	12.418605	-57.475493	35.550	-0.310	0.290	0.640	35.470	-1.000	0.700																			1579997174.0	0.14	0.26
26/01/2020 00:06:15	26012020	260120	000615	35.610	12.418605	-57.475493	35.710	-0.410	0.200	1.150	35.640	-1.100	1.200																			1579997175.0	0.30	0.56
26/01/2020 00:06:16	26012020	260120	000616	35.720	12.418607	-57.475492	35.750	-0.400	0.160	1.500	35.730	-1.200	1.700																			1579997176.0	0.23	0.43
26/01/2020 00:06:17	26012020	260120	000617	35.710	12.418607	-57.475493	35.670	-0.250	0.000	1.680	35.690	-1.300	1.900																			1579997177.0	0.18	0.33
26/01/2020 00:06:18	26012020	260120	000618	35.620	12.418608	-57.475495	35.610	0.020	-0.400	1.650	35.610	-1.600	2.000																			1579997178.0	0.41	0.76
26/01/2020 00:06:19	26012020	260120	000619	35.590	12.418610	-57.475497	35.600	0.280	-0.780	1.400	35.590	-2.000	1.900																			1579997179.0	0.73	1.35
26/01/2020 00:06:20	26012020	260120	000620	35.610	12.418615	-57.475500	35.630	0.440	-0.830	0.890	35.610	-2.200	1.500																			1579997180.0	1.15	2.13
26/01/2020 00:06:21	26012020	260120	000621	35.660	12.418620	-57.475503	35.690	0.460	-0.530	0.250	35.670	-2.100	0.900																			1579997181.0	1.45	2.69
26/01/2020 00:06:22	26012020	260120	000622	35.730	12.418625	-57.475510	35.810	0.320	-0.020	-0.350	35.750	-1.700	0.300																			1579997182.0	1.61	2.98
26/01/2020 00:06:23	26012020	260120	000623	35.870	12.418630	-57.475517	35.910	-0.000	0.550	-0.690	35.890	-1.100	-0.200																			1579997183.0	1.56	2.89
26/01/2020 00:06:24	26012020	260120	000624	35.940	12.418632	-57.475522	35.940	-0.390	0.890	-0.770	35.940	-0.600	-0.400																			1579997184.0	1.37	2.54
26/01/2020 00:06:25	26012020	260120	000625	35.970	12.418633	-57.475527	36.000	-0.580	0.690	-0.620	35.970	-0.500	-0.400																			1579997185.0	1.18	2.19
26/01/2020 00:06:26	26012020	260120	000626	36.020	12.418637	-57.475532	36.090	-0.410	-0.020	-0.270	36.040	-1.000	-0.100																			1579997186.0	0.96	1.78
26/01/2020 00:06:27	26012020	260120	000627	36.110	12.418640	-57.475532	36.190	0.010	-0.770	0.250	36.130	-1.800	0.300																			1579997187.0	0.79	1.46
26/01/2020 00:06:28	26012020	260120	000628	36.170	12.418643	-57.475532	36.210	0.360	-1.030	0.890	36.170	-2.300	0.900																			1579997188.0	0.76	1.41
26/01/2020 00:06:29	26012020	260120	000629	36.160	12.418645	-57.475528	36.180	0.410	-0.730	1.530	36.160	-2.300	1.500																			1579997189.0	0.56	1.04
26/01/2020 00:06:30	26012020	260120	000630	36.110	12.418643	-57.475528	36.110	0.190	-0.200	2.000	36.090	-1.800	2.100																			1579997190.0	0.27	0.50
26/01/2020 00:06:31	26012020	260120	000631	36.000	12.418643	-57.475528	35.940	-0.090	0.260	2.100	35.960	-1.300	2.400																			1579997191.0	0.25	0.46
26/01/2020 00:06:32	26012020	260120	000632	35.810	12.418643	-57.475532	35.770	-0.190	0.450	1.710	35.780	-1.000	2.300																			1579997192.0	0.64	1.19
26/01/2020 00:06:33	26012020	260120	000633	35.730	12.418647	-57.475537	35.830	-0.030	0.270	0.870	35.740	-1.000	1.700																			1579997193.0	1.33	2.46
26/01/2020 00:06:34	26012020	260120	000634	35.890	12.418652	-57.475543	36.040	0.210	-0.070	-0.070	35.940	-1.300	0.700																			1579997194.0	1.78	3.30
26/01/2020 00:06:35	26012020	260120	000635	36.110	12.418658	-57.475548	36.150	0.220	-0.180	-0.700	36.140	-1.500	-0.100																			1579997195.0	1.84	3.41
26/01/2020 00:06:36	26012020	260120	000636	36.140	12.418663	-57.475553	36.020	-0.060	-0.020	-0.990	36.120	-1.500	-0.600																			1579997196.0	1.48	2.74
26/01/2020 00:06:37	26012020	260120	000637	35.950	12.418667	-57.475558	35.790	-0.380	0.060	-1.110	35.900	-1.300	-0.700																			1579997197.0	1.12	2.07
26/01/2020 00:06:38	26012020	260120	000638	35.740	12.418668	-57.475562	35.700	-0.410	-0.160	-1.160	35.720	-1.400	-0.800																			1579997198.0	1.10	2.04
26/01/2020 00:06:39	26012020	260120	000639	35.730	12.418672	-57.475567	35.830	-0.090	-0.530	-1.090	35.760	-1.700	-0.800																			1579997199.0	1.16	2.15
26/01/2020 00:06:40	26012020	260120	000640	35.890	12.418677	-57.475570	35.970	0.250	-0.630	-0.710	35.910	-2.000	-0.600																			1579997200.0	1.05	1.94
26/01/2020 00:06:41	26012020	260120	000641	35.950	12.418680	-57.475570	35.910	0.290	-0.240	0.010	35.940	-1.900	-0.100																			1579997201.0	0.62	1.15
26/01/2020 00:06:42	26012020	260120	000642	35.810	12.418680	-57.475570	35.720	-0.000	0.340	0.800	35.770	-1.300	0.700																			1579997202.0	0.08	0.15
26/01/2020 00:06:43	26012020	260120	000643	35.610	12.418677	-57.475570	35.590	-0.310	0.560	1.300	35.580	-0.900	1.400																			1579997203.0	0.51	0.94
26/01/2020 00:06:44	26012020	260120	000644	35.530	12.418675	-57.475570	35.590	-0.320	0.220	1.350	35.530	-0.900	1.700																			1579997204.0	0.43	0.80
26/01/2020 00:06:45	26012020	260120	000645	35.580	12.418677	-57.475572	35.680	-0.020	-0.320	1.080	35.600	-1.400	1.600																			1579997205.0	0.48	0.89
26/01/2020 00:06:46	26012020	260120	000646	35.710	12.418682	-57.475575	35.820	0.310	-0.630	0.650	35.740	-1.900	1.200																			1579997206.0	0.97	1.80
26/01/2020 00:06:47	26012020	260120	000647	35.840	12.418685	-57.475577	35.880	0.390	-0.540	0.220	35.850	-2.000	0.800																			1579997207.0	1.07	1.98
26/01/2020 00:06:48	26012020	260120	000648	35.860	12.418688	-57.475580	35.790	0.180	-0.200	-0.160	35.850	-1.800	0.400																			1579997208.0	1.06	1.96
26/01/2020 00:06:49	26012020	260120	000649	35.740	12.418692	-57.475585	35.690	-0.050	0.100	-0.510	35.710	-1.400	0.000																			1579997209.0	1.23	2.28
26/01/2020 00:06:50	26012020	260120	000650	35.670	12.418695	-57.475592	35.720	-0.070	0.160	-0.790	35.680	-1.200	-0.300																			1579997210.0	1.37	2.54
26/01/2020 00:06:51	26012020	260120	000651	35.760	12.418697	-57.475595	35.860	0.020	0.050	-0.940	35.790	-1.300	-0.600																			1579997211.0	1.13	2.09
26/01/2020 00:06:52	26012020	260120	000652	35.910	12.418700	-57.475598	35.970	-0.000	0.000	-0.830	35.930	-1.400	-0.600																			1579997212.0	0.76	1.41
26/01/2020 00:06:53	26012020	260120	000653	35.980	12.418702	-57.475600	35.960	-0.170	0.110	-0.430	35.970	-1.300	-0.300																			1579997213.0	0.42	0.78
26/01/2020 00:06:54	26012020	260120	000654	35.930	12.418702	-57.475600	35.870	-0.350	0.180	0.130	35.900	-1.200	0.200																			1579997214.0	0.13	0.24
26/01/2020 00:06:55	26012020	260120	000655	35.830	12.418700	-57.475600	35.810	-0.350	0.010	0.530	35.810	-1.200	0.700																			1579997215.0	0.24	0.44
26/01/2020 00:06:56	26012020	260120	000656	35.780	12.418700	-57.475602	35.810	-0.150	-0.330	0.670	35.780	-1.500	1.000																			1579997216.0	0.14	0.26
26/01/2020 00:06:57	26012020	260120	000657	35.800	12.418702	-57.475602	35.880	0.140	-0.620	0.600	35.820	-1.900	1.000																			1579997217.0	0.42	0.78
26/01/2020 00:06:58	26012020	260120	000658	35.910	12.418705	-57.475603	36.050	0.370	-0.650	0.510	35.950	-2.100	0.900																			1579997218.0	0.72	1.33
26/01/2020 00:06:59	26012020	260120	000659	36.100	12.418708	-57.475607	36.240	0.450	-0.420	0.480	36.130	-1.900	0.800	1014.80	25.80	25.80	21.10	21.10	-1.00	75.00	75.00	407.00	25.10	346.00	5.30	20.00	4.90	15	3522.00	27.40	27.40	1579997219.0	0.77	1.43
26/01/2020 00:07:00	26012020	260120	000700	36.250	12.418710	-57.475608	36.420	0.370	-0.080	0.410	36.290	-1.600	0.800																			1579997220.0	0.61	1.13
26/01/2020 00:07:01	26012020	260120	000701	36.440	12.418710	-57.475610	36.500	0.170	0.270	0.260	36.450	-1.300	0.700																			1579997221.0	0.50	0.93
26/01/2020 00:07:02	26012020	260120	000702	36.470	12.418712	-57.475613	36.450	-0.140	0.570	0.100	36.460	-0.900	0.500																			1579997222.0	0.50	0.93
26/01/2020 00:07:03	26012020	260120	000703	36.390	12.418712	-57.475615	36.400	-0.440	0.580	-0.110	36.380	-0.800	0.300																			1579997223.0	0.59	1.09
26/01/2020 00:07:04	26012020	260120	000704	36.380	12.418713	-57.475620	36.450	-0.510	0.220	-0.360	36.400	-0.900	0.100																			1579997224.0	0.78	1.44
26/01/2020 00:07:05	26012020	260120	000705	36.470	12.418715	-57.475623	36.600	-0.220	-0.320	-0.540	36.500	-1.400	-0.100																			1579997225.0	1.00	1.85
26/01/2020 00:07:06	26012020	260120	000706	36.630	12.418720	-57.475627	36.770	0.240	-0.690	-0.500	36.670	-1.900	-0.200																			1579997226.0	1.02	1.89
26/01/2020 00:07:07	26012020	260120	000707	36.810	12.418722	-57.475627	36.940	0.500	-0.770	-0.250	36.840	-2.100	-0.100																			1579997227.0	0.60	1.11
26/01/2020 00:07:08	26012020	260120	000708	36.940	12.418722	-57.475627	37.030	0.370	-0.580	0.070	36.950	-2.100	0.200																			1579997228.0	0.13	0.24
26/01/2020 00:07:09	26012020	260120	000709	36.990	12.418722	-57.475627	37.050	0.020	-0.190	0.410	36.990	-1.800	0.600																			1579997229.0	0.12	0.22
26/01/2020 00:07:10	26012020	260120	000710	36.990	12.418722	-57.475627	37.050	-0.230	0.260	0.800	36.990	-1.300	0.900																			1579997230.0	0.24	0.44
26/01/2020 00:07:11	26012020	260120	000711	36.970	12.418720	-57.475630	37.090	-0.240	0.520	1.120	36.980	-0.900	1.300																			1579997231.0	0.41	0.76
26/01/2020 00:07:12	26012020	260120	000712	37.030	12.418720	-57.475632	37.260	-0.090	0.390	1.210	37.060	-0.900	1.500																			1579997232.0	0.41	0.76
26/01/2020 00:07:13	26012020	260120	000713	37.270	12.418722	-57.475633	37.480	0.040	0.080	1.130	37.320	-1.100	1.500																			1579997233.0	0.35	0.65
26/01/2020 00:07:14	26012020	260120	000714	37.460	12.418723	-57.475633	37.560	0.040	-0.110	1.060	37.480	-1.400	1.400																			1579997234.0	0.45	0.83
26/01/2020 00:07:15	26012020	260120	000715	37.470	12.418725	-57.475635	37.450	-0.040	-0.200	1.000	37.450	-1.500	1.400																			1579997235.0	0.41	0.76
26/01/2020 00:07:16	26012020	260120	000716	37.320	12.418725	-57.475637	37.270	0.000	-0.390	0.860	37.280	-1.700	1.300																			1579997236.0	0.48	0.89
26/01/2020 00:07:17	26012020	260120	000717	37.160	12.418727	-57.475640	37.150	0.200	-0.630	0.630	37.130	-1.900	1.100																			1579997237.0	0.63	1.17
26/01/2020 00:07:18	26012020	260120	000718	37.090	12.418730	-57.475642	37.170	0.380	-0.650	0.330	37.090	-2.100	0.800																			1579997238.0	0.83	1.54
26/01/2020 00:07:19	26012020	260120	000719	37.170	12.418733	-57.475645	37.320	0.360	-0.370	-0.090	37.210	-1.900	0.500																			1579997239.0	0.94	1.74
26/01/2020 00:07:20	26012020	260120	000720	37.350	12.418737	-57.475648	37.480	0.110	0.130	-0.470	37.390	-1.500	0.000																			1579997240.0	1.01	1.87
26/01/2020 00:07:21	26012020	260120	000721	37.490	12.418738	-57.475653	37.550	-0.220	0.620	-0.560	37.500	-1.000	-0.200																			1579997241.0	1.10	2.04
26/01/2020 00:07:22	26012020	260120	000722	37.520	12.418740	-57.475658	37.540	-0.420	0.790	-0.340	37.510	-0.600	-0.100																			1579997242.0	0.97	1.80
26/01/2020 00:07:23	26012020	260120	000723	37.490	12.418740	-57.475660	37.530	-0.360	0.440	0.070	37.490	-0.700	0.200																			1579997243.0	0.61	1.13
26/01/2020 00:07:24	26012020	260120	000724	37.470	12.418740	-57.475662	37.550	-0.100	-0.270	0.510	37.470	-1.300	0.600																			1579997244.0	0.08	0.15
26/01/2020 00:07:25	26012020	260120	000725	37.490	12.418740	-57.475658	37.570	0.140	-0.850	0.920	37.490	-2.000	1.000																			1579997245.0	0.46	0.85
26/01/2020 00:07:26	26012020	260120	000726	37.500	12.418742	-57.475657	37.590	0.160	-0.880	1.160	37.500	-2.300	1.400																			1579997246.0	0.64	1.19
26/01/2020 00:07:27	26012020	260120	000727	37.500	12.418743	-57.475655	37.610	-0.000	-0.400	1.070	37.510	-2.100	1.500																			1579997247.0	0.31	0.57
26/01/2020 00:07:28	26012020	260120	000728	37.540	12.418743	-57.475658	37.670	-0.130	0.190	0.740	37.550	-1.500	1.300																			1579997248.0	0.58	1.07
26/01/2020 00:07:29	26012020	260120	000729	37.610	12.418745	-57.475663	37.750	-0.060	0.470	0.400	37.620	-1.000	0.900																			1579997249.0	1.08	2.00
26/01/2020 00:07:30	26012020	260120	000730	37.690	12.418747	-57.475668	37.800	0.110	0.290	0.050	37.700	-0.900	0.600																			1579997250.0	1.01	1.87
26/01/2020 00:07:31	26012020	260120	000731	37.720	12.418748	-57.475670	37.770	0.180	-0.120	-0.270	37.710	-1.300	0.200																			1579997251.0	0.72	1.33
26/01/2020 00:07:32	26012020	260120	000732	37.660	12.418753	-57.475672	37.680	0.070	-0.420	-0.550	37.640	-1.700	-0.100																			1579997252.0	0.84	1.56
26/01/2020 00:07:33	26012020	260120	000733	37.570	12.418757	-57.475673	37.620	-0.070	-0.460	-0.750	37.570	-1.900	-0.300																			1579997253.0	1.01	1.87
26/01/2020 00:07:34	26012020	260120	000734	37.560	12.418762	-57.475677	37.660	-0.080	-0.300	-0.800	37.570	-1.800	-0.500																			1579997254.0	1.05	1.94
26/01/2020 00:07:35	26012020	260120	000735	37.630	12.418763	-57.475678	37.770	0.040	-0.040	-0.620	37.650	-1.500	-0.400																			1579997255.0	0.85	1.57
26/01/2020 00:07:36	26012020	260120	000736	37.730	12.418765	-57.475680	37.820	0.080	0.210	-0.210	37.740	-1.300	-0.100																			1579997256.0	0.36	0.67
26/01/2020 00:07:37	26012020	260120	000737	37.710	12.418765	-57.475680	37.710	-0.030	0.300	0.310	37.690	-1.100	0.400																			1579997257.0	0.14	0.26
26/01/2020 00:07:38	26012020	260120	000738	37.600	12.418763	-57.475678	37.540	-0.180	0.130	0.730	37.560	-1.100	0.900																			1579997258.0	0.31	0.57
26/01/2020 00:07:39	26012020	260120	000739	37.410	12.418763	-57.475678	37.450	-0.190	-0.240	0.900	37.390	-1.400	1.200																			1579997259.0	0.25	0.46
26/01/2020 00:07:40	26012020	260120	000740	37.350	12.418763	-57.475677	37.410	-0.040	-0.530	0.870	37.340	-1.800	1.200																			1579997260.0	0.31	0.57
26/01/2020 00:07:41	26012020	260120	000741	37.280	12.418767	-57.475678	37.260	0.150	-0.430	0.860	37.250	-1.900	1.200																			1579997261.0	0.59	1.09
26/01/2020 00:07:42	26012020	260120	000742	37.100	12.418768	-57.475680	37.080	0.230	-0.150	0.750	37.060	-1.700	1.200																			1579997262.0	0.54	1.00
26/01/2020 00:07:43	26012020	260120	000743	36.960	12.418770	-57.475682	37.040	0.170	-0.010	0.360	36.960	-1.400	0.900																			1579997263.0	0.52	0.96
26/01/2020 00:07:44	26012020	260120	000744	37.000	12.418770	-57.475685	37.090	0.030	-0.040	-0.150	37.010	-1.400	0.400																			1579997264.0	0.68	1.26
26/01/2020 00:07:45	26012020	260120	000745	37.040	12.418773	-57.475688	37.030	-0.100	-0.020	-0.410	37.030	-1.400	0.000																			1579997265.0	0.94	1.74
26/01/2020 00:07:46	26012020	260120	000746	36.940	12.418777	-57.475692	36.900	-0.130	0.060	-0.320	36.910	-1.400	-0.100																			1579997266.0	1.02	1.89
26/01/2020 00:07:47	26012020	260120	000747	36.820	12.418778	-57.475695	36.810	-0.030	-0.000	-0.060	36.790	-1.300	0.100																			1579997267.0	0.76	1.41
26/01/2020 00:07:48	26012020	260120	000748	36.770	12.418778	-57.475697	36.800	0.070	-0.190	0.230	36.770	-1.500	0.400																			1579997268.0	0.34	0.63
26/01/2020 00:07:49	26012020	260120	000749	36.760	12.418778	-57.475697	36.770	0.010	-0.250	0.480	36.760	-1.600	0.700																			1579997269.0	0.05	0.09
26/01/2020 00:07:50	26012020	260120	000750	36.720	12.418778	-57.475697	36.670	-0.160	-0.060	0.680	36.700	-1.600	0.900																			1579997270.0	0.10	0.19
26/01/2020 00:07:51	26012020	260120	000751	36.580	12.418777	-57.475697	36.550	-0.280	0.190	0.790	36.560	-1.300	1.100																			1579997271.0	0.28	0.52
26/01/2020 00:07:52	26012020	260120	000752	36.490	12.418775	-57.475700	36.500	-0.200	0.090	0.740	36.470	-1.200	1.100																			1579997272.0	0.57	1.06
26/01/2020 00:07:53	26012020	260120	000753	36.480	12.418775	-57.475702	36.560	0.090	-0.390	0.500	36.490	-1.500	1.000																			1579997273.0	0.59	1.09
26/01/2020 00:07:54	26012020	260120	000754	36.590	12.418778	-57.475705	36.700	0.390	-0.780	0.170	36.620	-2.000	0.700																			1579997274.0	0.75	1.39
26/01/2020 00:07:55	26012020	260120	000755	36.730	12.418782	-57.475707	36.800	0.480	-0.630	-0.070	36.760	-2.200	0.400																			1579997275.0	0.90	1.67
26/01/2020 00:07:56	26012020	260120	000756	36.800	12.418783	-57.475708	36.770	0.270	-0.010	-0.140	36.790	-1.700	0.200																			1579997276.0	0.60	1.11
26/01/2020 00:07:57	26012020	260120	000757	36.720	12.418783	-57.475710	36.600	-0.080	0.590	-0.030	36.680	-1.100	0.200																			1579997277.0	0.59	1.09
26/01/2020 00:07:58	26012020	260120	000758	36.510	12.418782	-57.475713	36.400	-0.350	0.790	0.120	36.460	-0.600	0.400																			1579997278.0	0.79	1.46
26/01/2020 00:07:59	26012020	260120	000759	36.330	12.418780	-57.475717	36.320	-0.380	0.460	0.120	36.320	-0.700	0.500	1014.80	25.80	25.80	20.90	21.00	-1.00	74.00	74.00	408.00	25.10	353.00	5.10	30.00	4.80	15	3653.00	27.40	27.40	1579997279.0	0.68	1.26
26/01/2020 00:08:00	26012020	260120	000800	36.330	12.418782	-57.475720	36.410	-0.220	-0.210	-0.020	36.350	-1.300	0.400																			1579997280.0	0.55	1.02
26/01/2020 00:08:01	26012020	260120	000801	36.470	12.418785	-57.475722	36.570	-0.040	-0.730	-0.090	36.510	-1.900	0.300																			1579997281.0	0.74	1.37
26/01/2020 00:08:02	26012020	260120	000802	36.590	12.418788	-57.475723	36.680	0.020	-0.740	0.070	36.610	-2.200	0.300																			1579997282.0	0.76	1.41
26/01/2020 00:08:03	26012020	260120	000803	36.670	12.418788	-57.475723	36.700	-0.010	-0.410	0.380	36.670	-2.000	0.600																			1579997283.0	0.30	0.56
26/01/2020 00:08:04	26012020	260120	000804	36.650	12.418787	-57.475725	36.660	-0.070	-0.070	0.680	36.640	-1.600	0.900																			1579997284.0	0.38	0.70
26/01/2020 00:08:05	26012020	260120	000805	36.580	12.418785	-57.475725	36.600	-0.080	0.130	0.900	36.570	-1.300	1.100																			1579997285.0	0.49	0.91
26/01/2020 00:08:06	26012020	260120	000806	36.530	12.418783	-57.475725	36.560	-0.030	0.200	1.000	36.520	-1.200	1.300																			1579997286.0	0.28	0.52
26/01/2020 00:08:07	26012020	260120	000807	36.500	12.418783	-57.475725	36.520	0.090	0.140	0.900	36.490	-1.200	1.300																			1579997287.0	0.16	0.30
26/01/2020 00:08:08	26012020	260120	000808	36.460	12.418785	-57.475727	36.460	0.200	-0.040	0.570	36.450	-1.300	1.100																			1579997288.0	0.36	0.67
26/01/2020 00:08:09	26012020	260120	000809	36.400	12.418787	-57.475730	36.390	0.250	-0.270	0.130	36.390	-1.500	0.700																			1579997289.0	0.65	1.20
26/01/2020 00:08:10	26012020	260120	000810	36.350	12.418790	-57.475732	36.370	0.220	-0.440	-0.260	36.350	-1.800	0.300																			1579997290.0	0.89	1.65
26/01/2020 00:08:11	26012020	260120	000811	36.350	12.418793	-57.475735	36.370	0.130	-0.340	-0.490	36.360	-1.800	-0.000																			1579997291.0	0.97	1.80
26/01/2020 00:08:12	26012020	260120	000812	36.360	12.418795	-57.475738	36.370	0.010	-0.040	-0.540	36.360	-1.600	-0.200																			1579997292.0	0.84	1.56
26/01/2020 00:08:13	26012020	260120	000813	36.350	12.418797	-57.475742	36.360	-0.060	0.180	-0.500	36.350	-1.300	-0.200																			1579997293.0	0.66	1.22
26/01/2020 00:08:14	26012020	260120	000814	36.370	12.418797	-57.475743	36.450	-0.070	0.130	-0.370	36.390	-1.200	-0.100																			1579997294.0	0.51	0.94
26/01/2020 00:08:15	26012020	260120	000815	36.460	12.418797	-57.475745	36.540	-0.090	-0.010	-0.130	36.480	-1.300	0.100																			1579997295.0	0.20	0.37
26/01/2020 00:08:16	26012020	260120	000816	36.540	12.418797	-57.475743	36.570	-0.230	-0.000	0.250	36.540	-1.400	0.400																			1579997296.0	0.19	0.35
26/01/2020 00:08:17	26012020	260120	000817	36.540	12.418797	-57.475743	36.580	-0.390	0.090	0.590	36.540	-1.300	0.800																			1579997297.0	0.20	0.37
26/01/2020 00:08:18	26012020	260120	000818	36.540	12.418797	-57.475743	36.600	-0.390	0.030	0.760	36.550	-1.300	1.000																			1579997298.0	0.25	0.46
26/01/2020 00:08:19	26012020	260120	000819	36.580	12.418795	-57.475743	36.650	-0.190	-0.200	0.830	36.600	-1.500	1.100																			1579997299.0	0.17	0.31
26/01/2020 00:08:20	26012020	260120	000820	36.630	12.418795	-57.475743	36.700	0.080	-0.380	0.750	36.640	-1.700	1.200																			1579997300.0	0.05	0.09
26/01/2020 00:08:21	26012020	260120	000821	36.670	12.418797	-57.475743	36.710	0.230	-0.450	0.430	36.670	-1.800	1.000																			1579997301.0	0.12	0.22
26/01/2020 00:08:22	26012020	260120	000822	36.680	12.418797	-57.475745	36.720	0.280	-0.420	-0.010	36.690	-1.800	0.600																			1579997302.0	0.33	0.61
26/01/2020 00:08:23	26012020	260120	000823	36.700	12.418800	-57.475747	36.750	0.340	-0.330	-0.430	36.710	-1.800	0.100																			1579997303.0	0.77	1.43
26/01/2020 00:08:24	26012020	260120	000824	36.750	12.418802	-57.475750	36.830	0.400	-0.210	-0.740	36.770	-1.700	-0.300																			1579997304.0	0.96	1.78
26/01/2020 00:08:25	26012020	260120	000825	36.850	12.418805	-57.475753	36.920	0.320	-0.040	-0.940	36.870	-1.500	-0.500																			1579997305.0	0.84	1.56
26/01/2020 00:08:26	26012020	260120	000826	36.950	12.418807	-57.475755	37.020	0.050	0.190	-1.000	36.970	-1.300	-0.700																			1579997306.0	0.57	1.06
26/01/2020 00:08:27	26012020	260120	000827	37.070	12.418808	-57.475757	37.210	-0.270	0.400	-0.890	37.100	-1.100	-0.600																			1579997307.0	0.34	0.63
26/01/2020 00:08:28	26012020	260120	000828	37.230	12.418808	-57.475758	37.450	-0.460	0.440	-0.610	37.270	-0.900	-0.400																			1579997308.0	0.22	0.41
26/01/2020 00:08:29	26012020	260120	000829	37.520	12.418807	-57.475758	37.700	-0.420	0.250	-0.200	37.560	-1.000	-0.100																			1579997309.0	0.13	0.24
26/01/2020 00:08:30	26012020	260120	000830	37.720	12.418807	-57.475757	37.890	-0.250	-0.120	0.240	37.750	-1.300	0.400																			1579997310.0	0.30	0.56
26/01/2020 00:08:31	26012020	260120	000831	37.870	12.418805	-57.475755	38.040	-0.070	-0.500	0.610	37.890	-1.700	0.800																			1579997311.0	0.54	1.00
26/01/2020 00:08:32	26012020	260120	000832	38.000	12.418805	-57.475752	38.150	0.060	-0.680	0.870	38.020	-2.000	1.100																			1579997312.0	0.62	1.15
26/01/2020 00:08:33	26012020	260120	000833	38.080	12.418803	-57.475750	38.200	0.120	-0.540	1.000	38.100	-2.000	1.300																			1579997313.0	0.53	0.98
26/01/2020 00:08:34	26012020	260120	000834	38.110	12.418803	-57.475748	38.180	0.140	-0.190	0.910	38.110	-1.800	1.300																			1579997314.0	0.31	0.57
26/01/2020 00:08:35	26012020	260120	000835	38.080	12.418802	-57.475748	38.170	0.120	0.090	0.530	38.080	-1.400	1.100																			1579997315.0	0.20	0.37
26/01/2020 00:08:36	26012020	260120	000836	38.130	12.418803	-57.475752	38.340	0.120	0.140	-0.130	38.160	-1.200	0.600																			1579997316.0	0.60	1.11
26/01/2020 00:08:37	26012020	260120	000837	38.390	12.418805	-57.475755	38.660	0.120	-0.020	-0.820	38.460	-1.300	-0.200																			1579997317.0	0.95	1.76
26/01/2020 00:08:38	26012020	260120	000838	38.730	12.418810	-57.475758	38.930	0.100	-0.110	-1.200	38.790	-1.500	-0.700																			1579997318.0	1.03	1.91
26/01/2020 00:08:39	26012020	260120	000839	38.960	12.418812	-57.475760	39.080	0.010	-0.040	-1.150	39.000	-1.500	-0.900																			1579997319.0	0.69	1.28
26/01/2020 00:08:40	26012020	260120	000840	39.070	12.418812	-57.475760	39.180	-0.120	0.060	-0.800	39.100	-1.400	-0.700																			1579997320.0	0.07	0.13
26/01/2020 00:08:41	26012020	260120	000841	39.180	12.418810	-57.475758	39.240	-0.230	0.050	-0.290	39.190	-1.300	-0.200																			1579997321.0	0.52	0.96
26/01/2020 00:08:42	26012020	260120	000842	39.200	12.418808	-57.475755	39.210	-0.250	-0.030	0.220	39.190	-1.400	0.300																			1579997322.0	0.71	1.31
26/01/2020 00:08:43	26012020	260120	000843	39.130	12.418807	-57.475753	39.110	-0.160	-0.140	0.630	39.110	-1.500	0.800																			1579997323.0	0.67	1.24
26/01/2020 00:08:44	26012020	260120	000844	39.050	12.418805	-57.475752	39.110	0.030	-0.280	0.840	39.050	-1.600	1.100																			1579997324.0	0.45	0.83
26/01/2020 00:08:45	26012020	260120	000845	39.110	12.418805	-57.475750	39.290	0.280	-0.440	0.810	39.140	-1.700	1.200																			1579997325.0	0.18	0.33
26/01/2020 00:08:46	26012020	260120	000846	39.360	12.418807	-57.475750	39.640	0.420	-0.470	0.600	39.440	-1.900	1.100																			1579997326.0	0.22	0.41
26/01/2020 00:08:47	26012020	260120	000847	39.730	12.418807	-57.475748	39.940	0.290	-0.220	0.290	39.790	-1.800	0.800																			1579997327.0	0.25	0.46
26/01/2020 00:08:48	26012020	260120	000848	39.990	12.418808	-57.475748	40.050	-0.030	0.180	0.050	40.020	-1.400	0.500																			1579997328.0	0.08	0.15
26/01/2020 00:08:49	26012020	260120	000849	40.050	12.418807	-57.475750	39.950	-0.290	0.400	-0.010	40.020	-1.100	0.300																			1579997329.0	0.20	0.37
26/01/2020 00:08:50	26012020	260120	000850	39.890	12.418807	-57.475750	39.750	-0.260	0.230	0.070	39.840	-1.000	0.400																			1579997330.0	0.21	0.39
26/01/2020 00:08:51	26012020	260120	000851	39.700	12.418807	-57.475750	39.670	-0.010	-0.170	0.040	39.690	-1.300	0.400																			1579997331.0	0.13	0.24
26/01/2020 00:08:52	26012020	260120	000852	39.670	12.418808	-57.475748	39.710	0.160	-0.340	-0.160	39.670	-1.700	0.300																			1579997332.0	0.46	0.85
26/01/2020 00:08:53	26012020	260120	000853	39.740	12.418808	-57.475747	39.790	0.050	-0.090	-0.390	39.760	-1.600	0.100																			1579997333.0	0.43	0.80
26/01/2020 00:08:54	26012020	260120	000854	39.810	12.418810	-57.475747	39.860	-0.180	0.240	-0.490	39.830	-1.300	-0.100																			1579997334.0	0.20	0.37
26/01/2020 00:08:55	26012020	260120	000855	39.890	12.418808	-57.475750	39.990	-0.270	0.130	-0.500	39.910	-1.100	-0.200																			1579997335.0	0.48	0.89
26/01/2020 00:08:56	26012020	260120	000856	40.050	12.418808	-57.475750	40.150	-0.120	-0.410	-0.430	40.080	-1.500	-0.100																			1579997336.0	0.24	0.44
26/01/2020 00:08:57	26012020	260120	000857	40.180	12.418810	-57.475748	40.180	0.150	-0.810	-0.090	40.180	-2.000	0.000																			1579997337.0	0.40	0.74
26/01/2020 00:08:58	26012020	260120	000858	40.130	12.418810	-57.475745	40.080	0.320	-0.740	0.490	40.110	-2.200	0.500																			1579997338.0	0.79	1.46
26/01/2020 00:08:59	26012020	260120	000859	40.010	12.418810	-57.475742	39.970	0.300	-0.270	1.030	39.990	-1.900	1.100	1014.80	25.80	25.90	21.00	21.00	-1.00	74.00	74.00	407.00	25.10	350.00	5.20	27.00	5.00	15	3544.00	27.40	27.40	1579997339.0	0.93	1.72
26/01/2020 00:09:00	26012020	260120	000900	39.900	12.418807	-57.475738	39.900	0.170	0.280	1.390	39.890	-1.400	1.600																			1579997340.0	1.00	1.85
26/01/2020 00:09:01	26012020	260120	000901	39.830	12.418803	-57.475735	39.870	0.030	0.570	1.440	39.830	-0.900	1.800																			1579997341.0	0.88	1.63
26/01/2020 00:09:02	26012020	260120	000902	39.830	12.418802	-57.475733	39.920	-0.090	0.490	1.030	39.840	-0.800	1.600																			1579997342.0	0.49	0.91
26/01/2020 00:09:03	26012020	260120	000903	39.910	12.418802	-57.475733	40.000	-0.160	0.190	0.280	39.920	-1.000	1.000																			1579997343.0	0.13	0.24
26/01/2020 00:09:04	26012020	260120	000904	40.010	12.418805	-57.475735	40.060	-0.170	-0.140	-0.380	40.020	-1.400	0.300																			1579997344.0	0.67	1.24
26/01/2020 00:09:05	26012020	260120	000905	40.060	12.418808	-57.475737	40.060	-0.110	-0.360	-0.670	40.070	-1.700	-0.200																			1579997345.0	0.81	1.50
26/01/2020 00:09:06	26012020	260120	000906	40.050	12.418810	-57.475738	40.000	-0.050	-0.450	-0.670	40.030	-1.800	-0.400																			1579997346.0	0.47	0.87
26/01/2020 00:09:07	26012020	260120	000907	39.960	12.418810	-57.475737	39.900	-0.010	-0.440	-0.590	39.940	-1.800	-0.300																			1579997347.0	0.16	0.30
26/01/2020 00:09:08	26012020	260120	000908	39.850	12.418810	-57.475737	39.860	0.030	-0.430	-0.510	39.840	-1.800	-0.200																			1579997348.0	0.29	0.54
26/01/2020 00:09:09	26012020	260120	000909	39.860	12.418810	-57.475735	39.980	0.120	-0.390	-0.330	39.890	-1.800	-0.100																			1579997349.0	0.27	0.50
26/01/2020 00:09:10	26012020	260120	000910	39.990	12.418810	-57.475733	40.060	0.200	-0.130	0.130	40.000	-1.700	0.200																			1579997350.0	0.34	0.63
26/01/2020 00:09:11	26012020	260120	000911	40.010	12.418808	-57.475730	40.010	0.160	0.300	0.810	40.000	-1.300	0.800																			1579997351.0	0.55	1.02
26/01/2020 00:09:12	26012020	260120	000912	39.930	12.418805	-57.475728	39.930	0.010	0.470	1.370	39.910	-0.900	1.500																			1579997352.0	0.97	1.80
26/01/2020 00:09:13	26012020	260120	000913	39.860	12.418800	-57.475725	39.930	-0.130	0.130	1.640	39.850	-1.000	1.900																			1579997353.0	1.07	1.98
26/01/2020 00:09:14	26012020	260120	000914	39.900	12.418798	-57.475723	40.050	-0.130	-0.380	1.750	39.920	-1.500	2.000																			1579997354.0	0.69	1.28
26/01/2020 00:09:15	26012020	260120	000915	40.030	12.418798	-57.475720	40.140	-0.030	-0.500	1.840	40.060	-1.900	2.100																			1579997355.0	0.52	0.96
26/01/2020 00:09:16	26012020	260120	000916	40.090	12.418798	-57.475718	40.070	0.080	-0.160	1.860	40.090	-1.800	2.200																			1579997356.0	0.33	0.61
26/01/2020 00:09:17	26012020	260120	000917	39.950	12.418797	-57.475718	39.810	0.160	0.190	1.760	39.900	-1.300	2.200																			1579997357.0	0.39	0.72
26/01/2020 00:09:18	26012020	260120	000918	39.660	12.418795	-57.475720	39.520	0.240	0.100	1.440	39.600	-1.200	2.000																			1579997358.0	0.64	1.19
26/01/2020 00:09:19	26012020	260120	000919	39.440	12.418793	-57.475722	39.440	0.240	-0.380	0.840	39.420	-1.500	1.500																			1579997359.0	0.36	0.67
26/01/2020 00:09:20	26012020	260120	000920	39.450	12.418795	-57.475722	39.560	0.090	-0.700	0.140	39.480	-2.000	0.800																			1579997360.0	0.40	0.74
26/01/2020 00:09:21	26012020	260120	000921	39.620	12.418798	-57.475723	39.690	-0.140	-0.390	-0.350	39.640	-2.000	0.200																			1579997361.0	0.94	1.74
26/01/2020 00:09:22	26012020	260120	000922	39.700	12.418802	-57.475728	39.690	-0.290	0.330	-0.390	39.700	-1.400	-0.100																			1579997362.0	1.01	1.87
26/01/2020 00:09:23	26012020	260120	000923	39.660	12.418800	-57.475732	39.600	-0.280	0.700	-0.100	39.630	-0.800	0.100																			1579997363.0	0.86	1.59
26/01/2020 00:09:24	26012020	260120	000924	39.550	12.418797	-57.475733	39.500	-0.190	0.340	0.400	39.520	-0.800	0.500																			1579997364.0	0.88	1.63
26/01/2020 00:09:25	26012020	260120	000925	39.450	12.418793	-57.475730	39.470	-0.130	-0.350	0.950	39.440	-1.400	1.000																			1579997365.0	0.86	1.59
26/01/2020 00:09:26	26012020	260120	000926	39.430	12.418792	-57.475727	39.510	-0.090	-0.740	1.450	39.430	-2.000	1.500																			1579997366.0	1.00	1.85
26/01/2020 00:09:27	26012020	260120	000927	39.450	12.418790	-57.475722	39.470	0.010	-0.590	1.840	39.440	-2.100	2.000																			1579997367.0	0.83	1.54
26/01/2020 00:09:28	26012020	260120	000928	39.350	12.418788	-57.475720	39.280	0.170	-0.170	2.090	39.310	-1.800	2.300																			1579997368.0	0.62	1.15
26/01/2020 00:09:29	26012020	260120	000929	39.110	12.418785	-57.475720	39.000	0.320	0.100	2.050	39.050	-1.400	2.500																			1579997369.0	0.62	1.15
26/01/2020 00:09:30	26012020	260120	000930	38.890	12.418783	-57.475722	38.820	0.360	0.040	1.570	38.850	-1.300	2.200																			1579997370.0	0.45	0.83
26/01/2020 00:09:31	26012020	260120	000931	38.720	12.418785	-57.475723	38.770	0.290	-0.120	0.780	38.710	-1.400	1.500																			1579997371.0	0.53	0.98
26/01/2020 00:09:32	26012020	260120	000932	38.730	12.418788	-57.475728	38.830	0.130	-0.110	0.010	38.740	-1.500	0.700																			1579997372.0	1.08	2.00
26/01/2020 00:09:33	26012020	260120	000933	38.820	12.418793	-57.475732	38.960	-0.110	0.110	-0.530	38.840	-1.400	0.100																			1579997373.0	1.19	2.20
26/01/2020 00:09:34	26012020	260120	000934	38.970	12.418795	-57.475735	39.140	-0.340	0.260	-0.760	39.010	-1.200	-0.300																			1579997374.0	0.89	1.65
26/01/2020 00:09:35	26012020	260120	000935	39.160	12.418795	-57.475738	39.350	-0.470	0.130	-0.650	39.200	-1.200	-0.400																			1579997375.0	0.51	0.94
26/01/2020 00:09:36	26012020	260120	000936	39.360	12.418793	-57.475738	39.500	-0.430	-0.180	-0.230	39.390	-1.400	-0.100																			1579997376.0	0.24	0.44
26/01/2020 00:09:37	26012020	260120	000937	39.440	12.418792	-57.475735	39.460	-0.310	-0.330	0.530	39.430	-1.700	0.500																			1579997377.0	0.69	1.28
26/01/2020 00:09:38	26012020	260120	000938	39.280	12.418788	-57.475730	39.190	-0.200	-0.200	1.420	39.220	-1.700	1.300																			1579997378.0	1.13	2.09
26/01/2020 00:09:39	26012020	260120	000939	38.960	12.418785	-57.475727	38.940	-0.060	-0.060	2.050	38.900	-1.500	2.100																			1579997379.0	1.25	2.31
26/01/2020 00:09:40	26012020	260120	000940	38.770	12.418780	-57.475725	38.930	0.210	-0.220	2.160	38.770	-1.500	2.500																			1579997380.0	0.96	1.78
26/01/2020 00:09:41	26012020	260120	000941	38.850	12.418780	-57.475723	39.100	0.550	-0.530	1.810	38.890	-1.800	2.400																			1579997381.0	0.24	0.44
26/01/2020 00:09:42	26012020	260120	000942	39.030	12.418782	-57.475725	39.210	0.670	-0.560	1.300	39.060	-2.000	1.900																			1579997382.0	0.51	0.94
26/01/2020 00:09:43	26012020	260120	000943	39.110	12.418785	-57.475727	39.220	0.430	-0.170	0.790	39.120	-1.800	1.400																			1579997383.0	0.85	1.57
26/01/2020 00:09:44	26012020	260120	000944	39.140	12.418788	-57.475730	39.280	-0.020	0.320	0.340	39.150	-1.300	0.900																			1579997384.0	0.94	1.74
26/01/2020 00:09:45	26012020	260120	000945	39.250	12.418788	-57.475735	39.440	-0.350	0.520	0.060	39.290	-0.900	0.500																			1579997385.0	0.99	1.83
26/01/2020 00:09:46	26012020	260120	000946	39.440	12.418788	-57.475738	39.560	-0.400	0.350	0.090	39.460	-0.900	0.400																			1579997386.0	0.65	1.20
26/01/2020 00:09:47	26012020	260120	000947	39.500	12.418788	-57.475738	39.510	-0.280	-0.030	0.390	39.500	-1.200	0.600																			1579997387.0	0.08	0.15
26/01/2020 00:09:48	26012020	260120	000948	39.410	12.418788	-57.475735	39.360	-0.140	-0.350	0.750	39.380	-1.600	0.900																			1579997388.0	0.55	1.02
26/01/2020 00:09:49	26012020	260120	000949	39.250	12.418787	-57.475733	39.250	-0.060	-0.410	0.990	39.230	-1.800	1.200																			1579997389.0	0.60	1.11
26/01/2020 00:09:50	26012020	260120	000950	39.180	12.418787	-57.475732	39.260	-0.030	-0.260	1.050	39.180	-1.700	1.400																			1579997390.0	0.32	0.59
26/01/2020 00:09:51	26012020	260120	000951	39.230	12.418785	-57.475732	39.370	-0.010	-0.130	1.000	39.250	-1.600	1.400																			1579997391.0	0.25	0.46
26/01/2020 00:09:52	26012020	260120	000952	39.330	12.418783	-57.475733	39.390	-0.000	-0.070	0.990	39.340	-1.500	1.300																			1579997392.0	0.33	0.61
26/01/2020 00:09:53	26012020	260120	000953	39.300	12.418785	-57.475735	39.250	-0.010	-0.010	1.030	39.270	-1.400	1.400																			1579997393.0	0.28	0.52
26/01/2020 00:09:54	26012020	260120	000954	39.120	12.418785	-57.475737	39.070	-0.000	0.010	1.000	39.080	-1.400	1.400																			1579997394.0	0.24	0.44
26/01/2020 00:09:55	26012020	260120	000955	38.970	12.418785	-57.475737	39.030	0.040	-0.130	0.750	38.960	-1.400	1.300																			1579997395.0	0.21	0.39
26/01/2020 00:09:56	26012020	260120	000956	39.000	12.418785	-57.475738	39.120	0.120	-0.390	0.400	39.020	-1.700	0.900																			1579997396.0	0.25	0.46
26/01/2020 00:09:57	26012020	260120	000957	39.120	12.418787	-57.475740	39.170	0.170	-0.450	0.230	39.130	-1.900	0.700																			1579997397.0	0.46	0.85
26/01/2020 00:09:58	26012020	260120	000958	39.120	12.418788	-57.475740	39.100	0.140	-0.150	0.220	39.100	-1.700	0.600																			1579997398.0	0.52	0.96
26/01/2020 00:09:59	26012020	260120	000959	39.010	12.418788	-57.475742	38.980	-0.020	0.310	0.240	38.980	-1.300	0.600	1014.80	25.80	25.80	20.70	20.80	-1.00	73.00	73.00	407.00	25.10	348.00	4.70	27.00	4.40	15	3601.00	27.40	27.40	1579997399.0	0.33	0.61
26/01/2020 00:10:00	26012020	260120	001000	38.910	12.418788	-57.475743	38.980	-0.200	0.480	0.190	38.910	-0.900	0.600																			1579997400.0	0.49	0.91
26/01/2020 00:10:01	26012020	260120	001001	38.970	12.418787	-57.475747	39.110	-0.250	0.170	0.160	39.000	-1.000	0.500																			1579997401.0	0.52	0.96
26/01/2020 00:10:02	26012020	260120	001002	39.110	12.418787	-57.475747	39.220	-0.130	-0.360	0.320	39.130	-1.500	0.600																			1579997402.0	0.17	0.31
26/01/2020 00:10:03	26012020	260120	001003	39.190	12.418788	-57.475747	39.260	0.050	-0.630	0.610	39.190	-1.900	0.800																			1579997403.0	0.30	0.56
26/01/2020 00:10:04	26012020	260120	001004	39.190	12.418788	-57.475743	39.230	0.160	-0.500	0.860	39.180	-2.000	1.100																			1579997404.0	0.42	0.78
26/01/2020 00:10:05	26012020	260120	001005	39.140	12.418787	-57.475743	39.140	0.100	-0.130	0.980	39.120	-1.700	1.300																			1579997405.0	0.38	0.70
26/01/2020 00:10:06	26012020	260120	001006	39.050	12.418785	-57.475743	39.050	-0.050	0.220	0.990	39.030	-1.300	1.400																			1579997406.0	0.36	0.67
26/01/2020 00:10:07	26012020	260120	001007	38.960	12.418783	-57.475745	39.040	-0.140	0.370	0.860	38.960	-1.100	1.300																			1579997407.0	0.39	0.72
26/01/2020 00:10:08	26012020	260120	001008	38.990	12.418783	-57.475747	39.150	-0.070	0.200	0.580	39.010	-1.100	1.100																			1579997408.0	0.44	0.81
26/01/2020 00:10:09	26012020	260120	001009	39.150	12.418785	-57.475748	39.270	0.070	-0.170	0.260	39.180	-1.400	0.800																			1579997409.0	0.41	0.76
26/01/2020 00:10:10	26012020	260120	001010	39.260	12.418787	-57.475748	39.350	0.100	-0.480	-0.030	39.280	-1.700	0.500																			1579997410.0	0.47	0.87
26/01/2020 00:10:11	26012020	260120	001011	39.370	12.418790	-57.475750	39.490	0.010	-0.520	-0.290	39.400	-1.900	0.200																			1579997411.0	0.55	1.02
26/01/2020 00:10:12	26012020	260120	001012	39.530	12.418792	-57.475752	39.630	-0.020	-0.310	-0.300	39.570	-1.800	0.000																			1579997412.0	0.52	0.96
26/01/2020 00:10:13	26012020	260120	001013	39.620	12.418792	-57.475752	39.610	0.070	-0.030	0.060	39.620	-1.500	0.200																			1579997413.0	0.25	0.46
26/01/2020 00:10:14	26012020	260120	001014	39.540	12.418790	-57.475752	39.470	0.160	0.130	0.630	39.510	-1.300	0.700																			1579997414.0	0.39	0.72
26/01/2020 00:10:15	26012020	260120	001015	39.380	12.418787	-57.475748	39.340	0.090	0.120	1.090	39.350	-1.200	1.300																			1579997415.0	0.76	1.41
26/01/2020 00:10:16	26012020	260120	001016	39.290	12.418785	-57.475747	39.340	-0.140	0.040	1.130	39.290	-1.300	1.500																			1579997416.0	0.67	1.24
26/01/2020 00:10:17	26012020	260120	001017	39.350	12.418785	-57.475745	39.470	-0.300	-0.010	0.850	39.380	-1.400	1.400																			1579997417.0	0.15	0.28
26/01/2020 00:10:18	26012020	260120	001018	39.480	12.418787	-57.475747	39.650	-0.200	-0.070	0.570	39.520	-1.400	1.100																			1579997418.0	0.49	0.91
26/01/2020 00:10:19	26012020	260120	001019	39.680	12.418790	-57.475750	39.760	0.140	-0.230	0.470	39.710	-1.500	0.900																			1579997419.0	0.67	1.24
26/01/2020 00:10:20	26012020	260120	001020	39.770	12.418790	-57.475750	39.800	0.390	-0.450	0.440	39.780	-1.700	0.800																			1579997420.0	0.30	0.56
26/01/2020 00:10:21	26012020	260120	001021	39.810	12.418792	-57.475750	39.800	0.290	-0.430	0.400	39.810	-1.900	0.800																			1579997421.0	0.29	0.54
26/01/2020 00:10:22	26012020	260120	001022	39.810	12.418792	-57.475748	39.790	-0.070	-0.050	0.390	39.810	-1.700	0.700																			1579997422.0	0.26	0.48
26/01/2020 00:10:23	26012020	260120	001023	39.790	12.418792	-57.475750	39.800	-0.360	0.370	0.430	39.790	-1.200	0.800																			1579997423.0	0.29	0.54
26/01/2020 00:10:24	26012020	260120	001024	39.840	12.418792	-57.475752	39.940	-0.330	0.390	0.400	39.860	-0.900	0.800																			1579997424.0	0.54	1.00
26/01/2020 00:10:25	26012020	260120	001025	40.030	12.418792	-57.475753	40.180	-0.060	-0.020	0.320	40.080	-1.200	0.700																			1579997425.0	0.32	0.59
26/01/2020 00:10:26	26012020	260120	001026	40.290	12.418792	-57.475753	40.400	0.180	-0.440	0.360	40.330	-1.600	0.700																			1579997426.0	0.22	0.41
26/01/2020 00:10:27	26012020	260120	001027	40.470	12.418793	-57.475750	40.490	0.200	-0.550	0.540	40.490	-1.900	0.800																			1579997427.0	0.53	0.98
26/01/2020 00:10:28	26012020	260120	001028	40.500	12.418793	-57.475748	40.410	0.040	-0.340	0.750	40.480	-1.900	1.000																			1579997428.0	0.51	0.94
26/01/2020 00:10:29	26012020	260120	001029	40.370	12.418792	-57.475747	40.260	-0.080	-0.020	0.870	40.340	-1.600	1.200																			1579997429.0	0.30	0.56
26/01/2020 00:10:30	26012020	260120	001030	40.270	12.418792	-57.475748	40.290	-0.020	0.080	0.720	40.260	-1.300	1.200																			1579997430.0	0.21	0.39
26/01/2020 00:10:31	26012020	260120	001031	40.400	12.418792	-57.475748	40.570	0.160	-0.080	0.340	40.450	-1.400	0.900																			1579997431.0	0.26	0.48
26/01/2020 00:10:32	26012020	260120	001032	40.660	12.418793	-57.475750	40.850	0.260	-0.210	0.030	40.720	-1.500	0.500																			1579997432.0	0.49	0.91
26/01/2020 00:10:33	26012020	260120	001033	40.960	12.418797	-57.475750	40.980	0.160	-0.080	-0.050	40.980	-1.500	0.300																			1579997433.0	0.63	1.17
26/01/2020 00:10:34	26012020	260120	001034	41.030	12.418798	-57.475752	41.020	-0.040	0.130	0.030	41.050	-1.300	0.300																			1579997434.0	0.40	0.74
26/01/2020 00:10:35	26012020	260120	001035	41.080	12.418798	-57.475753	41.070	-0.200	0.190	0.200	41.090	-1.200	0.500																			1579997435.0	0.19	0.35
26/01/2020 00:10:36	26012020	260120	001036	41.140	12.418797	-57.475753	41.190	-0.240	0.020	0.340	41.170	-1.300	0.600																			1579997436.0	0.18	0.33
26/01/2020 00:10:37	26012020	260120	001037	41.290	12.418797	-57.475752	41.350	-0.200	-0.170	0.530	41.320	-1.500	0.800																			1579997437.0	0.17	0.31
26/01/2020 00:10:38	26012020	260120	001038	41.440	12.418797	-57.475752	41.490	-0.170	-0.240	0.860	41.470	-1.600	1.000																			1579997438.0	0.26	0.48
26/01/2020 00:10:39	26012020	260120	001039	41.590	12.418795	-57.475750	41.680	-0.120	-0.270	1.100	41.630	-1.600	1.400																			1579997439.0	0.35	0.65
26/01/2020 00:10:40	26012020	260120	001040	41.790	12.418795	-57.475748	41.870	-0.010	-0.310	1.140	41.830	-1.700	1.500																			1579997440.0	0.37	0.69
26/01/2020 00:10:41	26012020	260120	001041	41.970	12.418793	-57.475747	41.990	0.160	-0.340	1.020	42.000	-1.700	1.400																			1579997441.0	0.28	0.52
26/01/2020 00:10:42	26012020	260120	001042	42.060	12.418793	-57.475747	42.030	0.290	-0.260	0.850	42.070	-1.700	1.300																			1579997442.0	0.17	0.31
26/01/2020 00:10:43	26012020	260120	001043	42.090	12.418795	-57.475747	42.050	0.300	-0.060	0.720	42.100	-1.500	1.100																			1579997443.0	0.12	0.22
26/01/2020 00:10:44	26012020	260120	001044	42.130	12.418795	-57.475747	42.140	0.170	0.130	0.580	42.140	-1.300	1.000																			1579997444.0	0.16	0.30
26/01/2020 00:10:45	26012020	260120	001045	42.260	12.418795	-57.475748	42.350	-0.020	0.180	0.280	42.310	-1.200	0.800																			1579997445.0	0.25	0.46
26/01/2020 00:10:46	26012020	260120	001046	42.450	12.418797	-57.475748	42.560	-0.160	0.120	-0.060	42.500	-1.200	0.500																			1579997446.0	0.36	0.67
26/01/2020 00:10:47	26012020	260120	001047	42.670	12.418798	-57.475750	42.670	-0.200	-0.000	-0.220	42.690	-1.300	0.200																			1579997447.0	0.46	0.85
26/01/2020 00:10:48	26012020	260120	001048	42.750	12.418800	-57.475752	42.770	-0.120	-0.170	-0.160	42.770	-1.500	0.200																			1579997448.0	0.36	0.67
26/01/2020 00:10:49	26012020	260120	001049	42.850	12.418800	-57.475752	42.920	0.030	-0.380	0.030	42.880	-1.700	0.300																			1579997449.0	0.11	0.20
26/01/2020 00:10:50	26012020	260120	001050	43.020	12.418800	-57.475750	43.120	0.140	-0.470	0.300	43.070	-1.800	0.500																			1579997450.0	0.25	0.46
26/01/2020 00:10:51	26012020	260120	001051	43.230	12.418800	-57.475748	43.310	0.110	-0.300	0.590	43.260	-1.800	0.800																			1579997451.0	0.37	0.69
26/01/2020 00:10:52	26012020	260120	001052	43.390	12.418798	-57.475747	43.450	-0.030	0.070	0.860	43.410	-1.500	1.100																			1579997452.0	0.32	0.59
26/01/2020 00:10:53	26012020	260120	001053	43.460	12.418797	-57.475747	43.480	-0.140	0.340	1.140	43.470	-1.100	1.400																			1579997453.0	0.40	0.74
26/01/2020 00:10:54	26012020	260120	001054	43.470	12.418795	-57.475747	43.490	-0.160	0.280	1.350	43.470	-1.000	1.600																			1579997454.0	0.52	0.96
26/01/2020 00:10:55	26012020	260120	001055	43.520	12.418793	-57.475745	43.640	-0.090	-0.090	1.310	43.560	-1.300	1.700																			1579997455.0	0.41	0.76
26/01/2020 00:10:56	26012020	260120	001056	43.680	12.418793	-57.475745	43.890	-0.000	-0.420	1.010	43.730	-1.700	1.500																			1579997456.0	0.26	0.48
26/01/2020 00:10:57	26012020	260120	001057	43.980	12.418795	-57.475743	44.090	0.040	-0.450	0.660	44.030	-1.900	1.200																			1579997457.0	0.36	0.67
26/01/2020 00:10:58	26012020	260120	001058	44.130	12.418797	-57.475745	44.180	0.040	-0.240	0.370	44.150	-1.700	0.900																			1579997458.0	0.34	0.63
26/01/2020 00:10:59	26012020	260120	001059	44.220	12.418797	-57.475747	44.210	0.080	-0.070	0.190	44.230	-1.500	0.600	1014.90	25.80	25.80	20.90	20.90	-1.00	74.00	74.00	407.00	25.10	345.00	5.10	26.00	5.00	15	3618.00	27.40	27.50	1579997459.0	0.35	0.65
26/01/2020 00:11:00	26012020	260120	001100	44.220	12.418797	-57.475747	44.170	0.150	-0.050	0.170	44.210	-1.400	0.500																			1579997460.0	0.31	0.57
26/01/2020 00:11:01	26012020	260120	001101	44.190	12.418797	-57.475748	44.220	0.190	-0.150	0.190	44.190	-1.500	0.600																			1579997461.0	0.08	0.15
26/01/2020 00:11:02	26012020	260120	001102	44.310	12.418797	-57.475747	44.460	0.100	-0.200	0.090	44.360	-1.600	0.500																			1579997462.0	0.19	0.35
26/01/2020 00:11:03	26012020	260120	001103	44.610	12.418798	-57.475747	44.760	-0.120	-0.020	-0.030	44.680	-1.500	0.400																			1579997463.0	0.20	0.37
26/01/2020 00:11:04	26012020	260120	001104	44.860	12.418798	-57.475747	44.850	-0.340	0.360	0.130	44.880	-1.200	0.400																			1579997464.0	0.08	0.15
26/01/2020 00:11:05	26012020	260120	001105	44.850	12.418797	-57.475748	44.750	-0.380	0.490	0.560	44.820	-0.900	0.700																			1579997465.0	0.34	0.63
26/01/2020 00:11:06	26012020	260120	001106	44.730	12.418795	-57.475748	44.720	-0.180	0.020	0.910	44.730	-1.100	1.100																			1579997466.0	0.55	1.02
26/01/2020 00:11:07	26012020	260120	001107	44.780	12.418793	-57.475747	44.880	0.160	-0.710	1.060	44.810	-1.700	1.400																			1579997467.0	0.46	0.85
26/01/2020 00:11:08	26012020	260120	001108	44.930	12.418793	-57.475743	45.100	0.360	-0.950	1.050	44.970	-2.300	1.400																			1579997468.0	0.69	1.28
26/01/2020 00:11:09	26012020	260120	001109	45.180	12.418795	-57.475740	45.260	0.290	-0.450	0.890	45.210	-2.100	1.300																			1579997469.0	0.56	1.04
26/01/2020 00:11:10	26012020	260120	001110	45.290	12.418795	-57.475742	45.320	0.060	0.260	0.740	45.310	-1.400	1.200																			1579997470.0	0.18	0.33
26/01/2020 00:11:11	26012020	260120	001111	45.340	12.418793	-57.475745	45.310	-0.090	0.540	0.730	45.340	-0.900	1.100																			1579997471.0	0.71	1.31
26/01/2020 00:11:12	26012020	260120	001112	45.340	12.418792	-57.475747	45.350	-0.080	0.220	0.730	45.340	-0.900	1.100																			1579997472.0	0.52	0.96
26/01/2020 00:11:13	26012020	260120	001113	45.420	12.418792	-57.475747	45.490	-0.000	-0.290	0.560	45.450	-1.400	1.000																			1579997473.0	0.09	0.17
26/01/2020 00:11:14	26012020	260120	001114	45.600	12.418795	-57.475745	45.680	0.050	-0.500	0.330	45.640	-1.800	0.800																			1579997474.0	0.51	0.94
26/01/2020 00:11:15	26012020	260120	001115	45.770	12.418795	-57.475743	45.790	0.020	-0.310	0.270	45.790	-1.800	0.600																			1579997475.0	0.38	0.70
26/01/2020 00:11:16	26012020	260120	001116	45.850	12.418795	-57.475743	45.840	-0.050	-0.040	0.400	45.860	-1.500	0.700																			1579997476.0	0.13	0.24
26/01/2020 00:11:17	26012020	260120	001117	45.870	12.418793	-57.475743	45.850	-0.100	0.060	0.550	45.870	-1.300	0.800																			1579997477.0	0.46	0.85
26/01/2020 00:11:18	26012020	260120	001118	45.870	12.418792	-57.475742	45.840	-0.110	0.050	0.620	45.870	-1.300	1.000																			1579997478.0	0.41	0.76
26/01/2020 00:11:19	26012020	260120	001119	45.850	12.418790	-57.475742	45.810	-0.080	0.040	0.570	45.850	-1.300	1.000																			1579997479.0	0.18	0.33
26/01/2020 00:11:20	26012020	260120	001120	45.840	12.418792	-57.475742	45.840	-0.050	0.040	0.420	45.850	-1.300	0.900																			1579997480.0	0.07	0.13
26/01/2020 00:11:21	26012020	260120	001121	45.920	12.418792	-57.475743	45.960	-0.010	0.040	0.290	45.950	-1.300	0.700																			1579997481.0	0.29	0.54
26/01/2020 00:11:22	26012020	260120	001122	46.030	12.418792	-57.475745	46.090	0.020	-0.060	0.280	46.050	-1.400	0.600																			1579997482.0	0.33	0.61
26/01/2020 00:11:23	26012020	260120	001123	46.170	12.418792	-57.475745	46.220	0.040	-0.310	0.360	46.200	-1.500	0.700																			1579997483.0	0.17	0.31
26/01/2020 00:11:24	26012020	260120	001124	46.280	12.418792	-57.475745	46.410	0.050	-0.600	0.410	46.310	-1.800	0.800																			1579997484.0	0.07	0.13
26/01/2020 00:11:25	26012020	260120	001125	46.510	12.418793	-57.475743	46.590	0.100	-0.630	0.530	46.540	-2.000	0.800																			1579997485.0	0.26	0.48
26/01/2020 00:11:26	26012020	260120	001126	46.630	12.418793	-57.475742	46.580	0.140	-0.230	0.890	46.630	-1.900	1.000																			1579997486.0	0.31	0.57
26/01/2020 00:11:27	26012020	260120	001127	46.550	12.418792	-57.475742	46.490	0.110	0.270	1.300	46.530	-1.300	1.500																			1579997487.0	0.51	0.94
26/01/2020 00:11:28	26012020	260120	001128	46.470	12.418787	-57.475740	46.500	0.000	0.400	1.400	46.470	-1.000	1.700																			1579997488.0	0.86	1.59
26/01/2020 00:11:29	26012020	260120	001129	46.530	12.418785	-57.475738	46.620	-0.110	0.210	1.160	46.550	-1.100	1.700																			1579997489.0	0.58	1.07
26/01/2020 00:11:30	26012020	260120	001130	46.690	12.418785	-57.475738	46.810	-0.140	-0.020	0.730	46.730	-1.300	1.300																			1579997490.0	0.11	0.20
26/01/2020 00:11:31	26012020	260120	001131	46.890	12.418787	-57.475738	47.010	-0.080	-0.180	0.250	46.930	-1.500	0.800																			1579997491.0	0.43	0.80
26/01/2020 00:11:32	26012020	260120	001132	47.090	12.418788	-57.475740	47.140	0.020	-0.300	-0.030	47.120	-1.600	0.400																			1579997492.0	0.49	0.91
26/01/2020 00:11:33	26012020	260120	001133	47.180	12.418790	-57.475742	47.110	0.060	-0.320	-0.000	47.170	-1.700	0.300																			1579997493.0	0.29	0.54
26/01/2020 00:11:34	26012020	260120	001134	47.100	12.418790	-57.475740	47.000	0.000	-0.200	0.150	47.080	-1.700	0.400																			1579997494.0	0.10	0.19
26/01/2020 00:11:35	26012020	260120	001135	47.000	12.418788	-57.475740	46.980	-0.070	-0.010	0.210	46.990	-1.500	0.600																			1579997495.0	0.25	0.46
26/01/2020 00:11:36	26012020	260120	001136	47.020	12.418788	-57.475740	47.060	-0.080	0.120	0.210	47.030	-1.300	0.600																			1579997496.0	0.21	0.39
26/01/2020 00:11:37	26012020	260120	001137	47.120	12.418787	-57.475742	47.170	-0.040	0.080	0.280	47.140	-1.300	0.600																			1579997497.0	0.21	0.39
26/01/2020 00:11:38	26012020	260120	001138	47.240	12.418787	-57.475742	47.330	0.010	-0.190	0.400	47.270	-1.400	0.700																			1579997498.0	0.11	0.20
26/01/2020 00:11:39	26012020	260120	001139	47.440	12.418787	-57.475742	47.590	0.060	-0.490	0.490	47.500	-1.700	0.800																			1579997499.0	0.15	0.28
26/01/2020 00:11:40	26012020	260120	001140	47.700	12.418788	-57.475740	47.740	0.070	-0.450	0.710	47.730	-1.900	0.900																			1579997500.0	0.36	0.67
26/01/2020 00:11:41	26012020	260120	001141	47.740	12.418787	-57.475738	47.630	-0.040	-0.010	1.120	47.720	-1.600	1.300																			1579997501.0	0.43	0.80
26/01/2020 00:11:42	26012020	260120	001142	47.560	12.418785	-57.475737	47.480	-0.190	0.390	1.430	47.520	-1.100	1.700																			1579997502.0	0.63	1.17
26/01/2020 00:11:43	26012020	260120	001143	47.460	12.418780	-57.475737	47.550	-0.190	0.270	1.280	47.480	-1.000	1.800																			1579997503.0	0.80	1.48
26/01/2020 00:11:44	26012020	260120	001144	47.620	12.418780	-57.475737	47.770	0.000	-0.190	0.820	47.670	-1.300	1.400																			1579997504.0	0.34	0.63
26/01/2020 00:11:45	26012020	260120	001145	47.830	12.418782	-57.475737	47.890	0.240	-0.490	0.380	47.870	-1.800	0.900																			1579997505.0	0.37	0.69
26/01/2020 00:11:46	26012020	260120	001146	47.920	12.418783	-57.475737	47.920	0.350	-0.470	0.100	47.930	-1.900	0.600																			1579997506.0	0.59	1.09
26/01/2020 00:11:47	26012020	260120	001147	47.940	12.418785	-57.475737	47.920	0.280	-0.270	-0.040	47.940	-1.800	0.400																			1579997507.0	0.35	0.65
26/01/2020 00:11:48	26012020	260120	001148	47.950	12.418785	-57.475737	47.950	0.070	-0.000	-0.120	47.950	-1.500	0.300																			1579997508.0	0.16	0.30
26/01/2020 00:11:49	26012020	260120	001149	48.010	12.418785	-57.475738	48.080	-0.140	0.220	-0.170	48.040	-1.300	0.200																			1579997509.0	0.18	0.33
26/01/2020 00:11:50	26012020	260120	001150	48.160	12.418785	-57.475738	48.230	-0.280	0.310	-0.090	48.190	-1.100	0.200																			1579997510.0	0.22	0.41
26/01/2020 00:11:51	26012020	260120	001151	48.280	12.418783	-57.475738	48.290	-0.310	0.230	0.210	48.290	-1.100	0.400																			1579997511.0	0.21	0.39
26/01/2020 00:11:52	26012020	260120	001152	48.300	12.418782	-57.475738	48.290	-0.250	-0.040	0.660	48.300	-1.300	0.800																			1579997512.0	0.34	0.63
26/01/2020 00:11:53	26012020	260120	001153	48.290	12.418780	-57.475737	48.320	-0.120	-0.400	1.070	48.290	-1.600	1.200																			1579997513.0	0.58	1.07
26/01/2020 00:11:54	26012020	260120	001154	48.320	12.418778	-57.475733	48.400	0.050	-0.590	1.280	48.340	-1.900	1.600																			1579997514.0	0.66	1.22
26/01/2020 00:11:55	26012020	260120	001155	48.440	12.418778	-57.475732	48.570	0.160	-0.450	1.240	48.480	-1.900	1.600																			1579997515.0	0.56	1.04
26/01/2020 00:11:56	26012020	260120	001156	48.610	12.418777	-57.475730	48.710	0.160	-0.120	1.050	48.650	-1.700	1.500																			1579997516.0	0.29	0.54
26/01/2020 00:11:57	26012020	260120	001157	48.740	12.418777	-57.475732	48.790	0.070	0.160	0.870	48.760	-1.300	1.300																			1579997517.0	0.26	0.48
26/01/2020 00:11:58	26012020	260120	001158	48.810	12.418775	-57.475733	48.860	0.010	0.180	0.700	48.820	-1.200	1.200																			1579997518.0	0.34	0.63
26/01/2020 00:11:59	26012020	260120	001159	48.910	12.418777	-57.475733	49.010	0.050	-0.040	0.440	48.930	-1.300	1.000	1014.90	25.80	25.90	21.10	21.10	-1.00	75.00	75.00	407.00	25.10	343.00	5.10	29.00	5.00	15	3547.00	27.50	27.40	1579997519.0	0.26	0.48
26/01/2020 00:12:00	26012020	260120	001200	49.040	12.418777	-57.475733	49.190	0.130	-0.300	0.120	49.080	-1.600	0.600																			1579997520.0	0.25	0.46
26/01/2020 00:12:01	26012020	260120	001201	49.260	12.418778	-57.475733	49.330	0.130	-0.300	-0.050	49.280	-1.700	0.400																			1579997521.0	0.33	0.61
26/01/2020 00:12:02	26012020	260120	001202	49.350	12.418780	-57.475733	49.360	0.000	-0.010	0.100	49.350	-1.600	0.400																			1579997522.0	0.16	0.30
26/01/2020 00:12:03	26012020	260120	001203	49.320	12.418778	-57.475733	49.320	-0.150	0.230	0.430	49.310	-1.200	0.600																			1579997523.0	0.31	0.57
26/01/2020 00:12:04	26012020	260120	001204	49.290	12.418775	-57.475733	49.390	-0.210	0.060	0.630	49.300	-1.200	0.900																			1579997524.0	0.57	1.06
26/01/2020 00:12:05	26012020	260120	001205	49.410	12.418773	-57.475732	49.590	-0.090	-0.380	0.560	49.440	-1.500	1.000																			1579997525.0	0.40	0.74
26/01/2020 00:12:06	26012020	260120	001206	49.620	12.418775	-57.475730	49.810	0.100	-0.610	0.490	49.660	-1.900	0.900																			1579997526.0	0.38	0.70
26/01/2020 00:12:07	26012020	260120	001207	49.830	12.418775	-57.475728	50.010	0.220	-0.410	0.510	49.870	-1.900	0.900																			1579997527.0	0.42	0.78
26/01/2020 00:12:08	26012020	260120	001208	50.000	12.418775	-57.475727	50.150	0.170	0.070	0.640	50.030	-1.600	0.900																			1579997528.0	0.22	0.41
26/01/2020 00:12:09	26012020	260120	001209	50.110	12.418773	-57.475728	50.250	-0.030	0.490	0.760	50.130	-1.100	1.100																			1579997529.0	0.42	0.78
26/01/2020 00:12:10	26012020	260120	001210	50.190	12.418770	-57.475728	50.350	-0.200	0.530	0.740	50.210	-0.800	1.100																			1579997530.0	0.51	0.94
26/01/2020 00:12:11	26012020	260120	001211	50.310	12.418770	-57.475730	50.510	-0.190	0.140	0.560	50.340	-1.000	1.000																			1579997531.0	0.33	0.61
26/01/2020 00:12:12	26012020	260120	001212	50.430	12.418770	-57.475730	50.630	-0.050	-0.400	0.440	50.460	-1.500	0.800																			1579997532.0	0.17	0.31
26/01/2020 00:12:13	26012020	260120	001213	50.560	12.418772	-57.475728	50.720	0.010	-0.670	0.470	50.580	-2.000	0.800																			1579997533.0	0.40	0.74
26/01/2020 00:12:14	26012020	260120	001214	50.660	12.418772	-57.475727	50.880	-0.050	-0.600	0.580	50.690	-2.000	0.900																			1579997534.0	0.35	0.65
26/01/2020 00:12:15	26012020	260120	001215	50.850	12.418772	-57.475727	51.140	-0.080	-0.380	0.640	50.890	-1.900	1.000																			1579997535.0	0.27	0.50
26/01/2020 00:12:16	26012020	260120	001216	51.110	12.418770	-57.475727	51.400	0.040	-0.170	0.650	51.170	-1.700	1.000																			1579997536.0	0.37	0.69
26/01/2020 00:12:17	26012020	260120	001217	51.340	12.418768	-57.475725	51.510	0.210	0.080	0.690	51.370	-1.400	1.000																			1579997537.0	0.37	0.69
26/01/2020 00:12:18	26012020	260120	001218	51.380	12.418767	-57.475723	51.440	0.220	0.300	0.770	51.370	-1.200	1.100																			1579997538.0	0.46	0.85
26/01/2020 00:12:19	26012020	260120	001219	51.300	12.418765	-57.475723	51.390	0.050	0.310	0.750	51.280	-1.000	1.100																			1579997539.0	0.44	0.81
26/01/2020 00:12:20	26012020	260120	001220	51.320	12.418763	-57.475723	51.560	-0.100	0.030	0.520	51.350	-1.200	1.000																			1579997540.0	0.17	0.31
26/01/2020 00:12:21	26012020	260120	001221	51.560	12.418765	-57.475723	51.850	-0.040	-0.280	0.210	51.630	-1.500	0.700																			1579997541.0	0.31	0.57
26/01/2020 00:12:22	26012020	260120	001222	51.860	12.418768	-57.475723	52.070	0.130	-0.330	0.060	51.910	-1.700	0.500																			1579997542.0	0.57	1.06
26/01/2020 00:12:23	26012020	260120	001223	52.040	12.418770	-57.475723	52.180	0.170	-0.180	0.080	52.060	-1.700	0.400																			1579997543.0	0.35	0.65
26/01/2020 00:12:24	26012020	260120	001224	52.120	12.418768	-57.475725	52.310	0.000	0.000	0.240	52.140	-1.500	0.500																			1579997544.0	0.11	0.20
26/01/2020 00:12:25	26012020	260120	001225	52.300	12.418767	-57.475725	52.530	-0.240	0.020	0.460	52.340	-1.400	0.700																			1579997545.0	0.41	0.76
26/01/2020 00:12:26	26012020	260120	001226	52.490	12.418765	-57.475723	52.750	-0.360	-0.080	0.780	52.530	-1.400	1.000																			1579997546.0	0.55	1.02
26/01/2020 00:12:27	26012020	260120	001227	52.720	12.418762	-57.475722	52.880	-0.300	-0.150	1.100	52.750	-1.500	1.300																			1579997547.0	0.60	1.11
26/01/2020 00:12:28	26012020	260120	001228	52.810	12.418760	-57.475720	52.920	-0.090	-0.140	1.320	52.810	-1.500	1.600																			1579997548.0	0.62	1.15
26/01/2020 00:12:29	26012020	260120	001229	52.810	12.418758	-57.475718	52.920	0.150	-0.220	1.300	52.810	-1.500	1.700																			1579997549.0	0.57	1.06
26/01/2020 00:12:30	26012020	260120	001230	52.860	12.418757	-57.475718	53.070	0.340	-0.370	1.050	52.890	-1.700	1.600																			1579997550.0	0.38	0.70
26/01/2020 00:12:31	26012020	260120	001231	53.060	12.418757	-57.475717	53.300	0.400	-0.380	0.700	53.110	-1.800	1.200																			1579997551.0	0.18	0.33
26/01/2020 00:12:32	26012020	260120	001232	53.310	12.418758	-57.475717	53.510	0.270	-0.080	0.280	53.350	-1.600	0.900																			1579997552.0	0.21	0.39
26/01/2020 00:12:33	26012020	260120	001233	53.500	12.418758	-57.475717	53.650	0.010	0.340	-0.170	53.540	-1.200	0.400																			1579997553.0	0.32	0.59
26/01/2020 00:12:34	26012020	260120	001234	53.650	12.418760	-57.475720	53.750	-0.160	0.510	-0.400	53.670	-0.900	0.100																			1579997554.0	0.74	1.37
26/01/2020 00:12:35	26012020	260120	001235	53.760	12.418762	-57.475723	53.870	-0.130	0.200	-0.310	53.780	-1.000	-0.000																			1579997555.0	0.73	1.35
26/01/2020 00:12:36	26012020	260120	001236	53.840	12.418762	-57.475723	54.000	0.010	-0.360	0.000	53.870	-1.500	0.200																			1579997556.0	0.12	0.22
26/01/2020 00:12:37	26012020	260120	001237	54.000	12.418760	-57.475722	54.140	0.070	-0.770	0.440	54.030	-2.000	0.600																			1579997557.0	0.61	1.13
26/01/2020 00:12:38	26012020	260120	001238	54.120	12.418758	-57.475717	54.290	-0.010	-0.750	0.930	54.150	-2.200	1.000																			1579997558.0	0.98	1.81
26/01/2020 00:12:39	26012020	260120	001239	54.290	12.418757	-57.475713	54.460	-0.130	-0.380	1.370	54.320	-2.000	1.500																			1579997559.0	0.96	1.78
26/01/2020 00:12:40	26012020	260120	001240	54.450	12.418752	-57.475712	54.610	-0.160	0.070	1.580	54.490	-1.500	1.900																			1579997560.0	0.92	1.70
26/01/2020 00:12:41	26012020	260120	001241	54.600	12.418748	-57.475710	54.710	-0.120	0.440	1.520	54.620	-1.100	1.900																			1579997561.0	0.78	1.44
26/01/2020 00:12:42	26012020	260120	001242	54.680	12.418747	-57.475710	54.740	-0.050	0.670	1.220	54.680	-0.800	1.800																			1579997562.0	0.43	0.80
26/01/2020 00:12:43	26012020	260120	001243	54.720	12.418747	-57.475712	54.820	-0.000	0.600	0.750	54.730	-0.700	1.400																			1579997563.0	0.28	0.52
26/01/2020 00:12:44	26012020	260120	001244	54.850	12.418747	-57.475713	55.010	0.030	0.110	0.190	54.890	-1.000	0.800																			1579997564.0	0.46	0.85
26/01/2020 00:12:45	26012020	260120	001245	55.100	12.418748	-57.475715	55.270	0.090	-0.620	-0.330	55.150	-1.600	0.300																			1579997565.0	0.58	1.07
26/01/2020 00:12:46	26012020	260120	001246	55.340	12.418752	-57.475717	55.450	0.170	-1.100	-0.580	55.380	-2.300	-0.100																			1579997566.0	0.72	1.33
26/01/2020 00:12:47	26012020	260120	001247	55.460	12.418755	-57.475715	55.480	0.240	-1.020	-0.410	55.470	-2.500	-0.200																			1579997567.0	0.64	1.19
26/01/2020 00:12:48	26012020	260120	001248	55.470	12.418755	-57.475715	55.500	0.210	-0.530	0.060	55.470	-2.200	0.200																			1579997568.0	0.20	0.37
26/01/2020 00:12:49	26012020	260120	001249	55.500	12.418753	-57.475713	55.590	0.080	0.030	0.640	55.520	-1.600	0.700																			1579997569.0	0.66	1.22
26/01/2020 00:12:50	26012020	260120	001250	55.590	12.418748	-57.475712	55.730	-0.100	0.410	1.220	55.610	-1.100	1.300																			1579997570.0	1.02	1.89
26/01/2020 00:12:51	26012020	260120	001251	55.730	12.418743	-57.475710	55.880	-0.240	0.570	1.540	55.760	-0.900	1.800																			1579997571.0	1.10	2.04
26/01/2020 00:12:52	26012020	260120	001252	55.860	12.418740	-57.475708	56.050	-0.270	0.490	1.470	55.890	-0.800	1.900																			1579997572.0	0.89	1.65
26/01/2020 00:12:53	26012020	260120	001253	56.070	12.418738	-57.475707	56.200	-0.170	0.250	1.190	56.100	-1.000	1.700																			1579997573.0	0.46	0.85
26/01/2020 00:12:54	26012020	260120	001254	56.210	12.418738	-57.475707	56.320	-0.020	-0.100	0.900	56.230	-1.300	1.400																			1579997574.0	0.07	0.13
26/01/2020 00:12:55	26012020	260120	001255	56.330	12.418740	-57.475707	56.460	0.110	-0.470	0.610	56.370	-1.700	1.100																			1579997575.0	0.25	0.46
26/01/2020 00:12:56	26012020	260120	001256	56.510	12.418742	-57.475707	56.690	0.160	-0.670	0.280	56.550	-2.000	0.800																			1579997576.0	0.34	0.63
26/01/2020 00:12:57	26012020	260120	001257	56.700	12.418742	-57.475707	56.830	0.110	-0.530	0.020	56.730	-2.000	0.500																			1579997577.0	0.33	0.61
26/01/2020 00:12:58	26012020	260120	001258	56.800	12.418743	-57.475707	56.860	-0.010	-0.110	-0.020	56.810	-1.700	0.300																			1579997578.0	0.18	0.33
26/01/2020 00:12:59	26012020	260120	001259	56.810	12.418742	-57.475708	56.860	-0.090	0.240	0.190	56.800	-1.300	0.400	1014.90	25.80	25.90	20.90	21.00	-1.00	74.00	74.00	406.00	25.10	334.00	4.90	26.00	4.80	15	3551.00	27.50	27.40	1579997579.0	0.34	0.63
26/01/2020 00:13:00	26012020	260120	001300	56.810	12.418740	-57.475710	56.930	-0.070	0.200	0.420	56.820	-1.100	0.700																			1579997580.0	0.53	0.98
26/01/2020 00:13:01	26012020	260120	001301	56.920	12.418738	-57.475708	57.100	-0.040	-0.100	0.530	56.950	-1.300	0.900																			1579997581.0	0.48	0.89
26/01/2020 00:13:02	26012020	260120	001302	57.100	12.418737	-57.475707	57.280	-0.080	-0.260	0.610	57.140	-1.600	0.900																			1579997582.0	0.47	0.87
26/01/2020 00:13:03	26012020	260120	001303	57.260	12.418737	-57.475705	57.390	-0.160	-0.180	0.740	57.290	-1.600	1.000																			1579997583.0	0.39	0.72
26/01/2020 00:13:04	26012020	260120	001304	57.360	12.418735	-57.475705	57.530	-0.140	-0.070	0.880	57.390	-1.500	1.200																			1579997584.0	0.31	0.57
26/01/2020 00:13:05	26012020	260120	001305	57.510	12.418733	-57.475703	57.610	0.050	-0.170	1.040	57.520	-1.500	1.300																			1579997585.0	0.50	0.93
26/01/2020 00:13:06	26012020	260120	001306	57.560	12.418730	-57.475703	57.560	0.270	-0.340	1.170	57.550	-1.600	1.500																			1579997586.0	0.62	1.15
26/01/2020 00:13:07	26012020	260120	001307	57.510	12.418728	-57.475700	57.540	0.380	-0.390	1.050	57.510	-1.800	1.500																			1579997587.0	0.63	1.17
26/01/2020 00:13:08	26012020	260120	001308	57.550	12.418728	-57.475698	57.700	0.360	-0.220	0.610	57.580	-1.700	1.200																			1579997588.0	0.31	0.57
26/01/2020 00:13:09	26012020	260120	001309	57.780	12.418730	-57.475700	57.960	0.270	0.060	0.090	57.840	-1.500	0.700																			1579997589.0	0.37	0.69
26/01/2020 00:13:10	26012020	260120	001310	58.040	12.418732	-57.475702	58.100	0.080	0.390	-0.140	58.070	-1.200	0.300																			1579997590.0	0.63	1.17
26/01/2020 00:13:11	26012020	260120	001311	58.120	12.418733	-57.475703	58.090	-0.230	0.630	-0.020	58.120	-0.900	0.300																			1579997591.0	0.44	0.81
26/01/2020 00:13:12	26012020	260120	001312	58.090	12.418732	-57.475705	58.070	-0.570	0.560	0.230	58.080	-0.700	0.500																			1579997592.0	0.37	0.69
26/01/2020 00:13:13	26012020	260120	001313	58.090	12.418728	-57.475705	58.140	-0.690	0.050	0.450	58.100	-1.000	0.700																			1579997593.0	0.55	1.02
26/01/2020 00:13:14	26012020	260120	001314	58.170	12.418727	-57.475703	58.280	-0.470	-0.700	0.620	58.190	-1.700	0.900																			1579997594.0	0.54	1.00
26/01/2020 00:13:15	26012020	260120	001315	58.330	12.418725	-57.475702	58.360	-0.080	-1.130	0.890	58.340	-2.400	1.100																			1579997595.0	0.63	1.17
26/01/2020 00:13:16	26012020	260120	001316	58.350	12.418725	-57.475698	58.350	0.210	-0.920	1.230	58.350	-2.500	1.400																			1579997596.0	0.77	1.43
26/01/2020 00:13:17	26012020	260120	001317	58.350	12.418722	-57.475695	58.390	0.300	-0.360	1.420	58.360	-2.000	1.700																			1579997597.0	0.70	1.30
26/01/2020 00:13:18	26012020	260120	001318	58.440	12.418718	-57.475695	58.530	0.260	0.100	1.270	58.470	-1.500	1.700																			1579997598.0	0.80	1.48
26/01/2020 00:13:19	26012020	260120	001319	58.580	12.418715	-57.475697	58.600	0.160	0.320	0.870	58.610	-1.200	1.400																			1579997599.0	0.63	1.17
26/01/2020 00:13:20	26012020	260120	001320	58.620	12.418715	-57.475697	58.560	0.090	0.420	0.410	58.610	-1.000	1.000																			1579997600.0	0.15	0.28
26/01/2020 00:13:21	26012020	260120	001321	58.560	12.418717	-57.475698	58.510	0.090	0.380	0.010	58.560	-1.000	0.600																			1579997601.0	0.44	0.81
26/01/2020 00:13:22	26012020	260120	001322	58.570	12.418718	-57.475700	58.600	0.170	0.130	-0.330	58.590	-1.100	0.200																			1579997602.0	0.62	1.15
26/01/2020 00:13:23	26012020	260120	001323	58.700	12.418722	-57.475700	58.770	0.240	-0.230	-0.550	58.730	-1.400	-0.100																			1579997603.0	0.58	1.07
26/01/2020 00:13:24	26012020	260120	001324	58.890	12.418723	-57.475700	58.970	0.190	-0.510	-0.540	58.930	-1.800	-0.200																			1579997604.0	0.42	0.78
26/01/2020 00:13:25	26012020	260120	001325	59.080	12.418723	-57.475700	59.150	0.060	-0.560	-0.160	59.120	-2.000	-0.000																			1579997605.0	0.20	0.37
26/01/2020 00:13:26	26012020	260120	001326	59.190	12.418722	-57.475698	59.180	-0.070	-0.350	0.620	59.210	-1.900	0.500																			1579997606.0	0.47	0.87
26/01/2020 00:13:27	26012020	260120	001327	59.170	12.418718	-57.475697	59.040	-0.200	-0.030	1.550	59.130	-1.600	1.400																			1579997607.0	1.04	1.93
26/01/2020 00:13:28	26012020	260120	001328	59.020	12.418712	-57.475693	58.920	-0.340	0.180	2.270	58.990	-1.300	2.300																			1579997608.0	1.39	2.57
26/01/2020 00:13:29	26012020	260120	001329	58.900	12.418707	-57.475692	58.960	-0.400	0.200	2.520	58.910	-1.200	2.800																			1579997609.0	1.28	2.37
26/01/2020 00:13:30	26012020	260120	001330	58.990	12.418702	-57.475690	59.100	-0.370	0.160	2.340	59.010	-1.200	2.800																			1579997610.0	0.88	1.63
26/01/2020 00:13:31	26012020	260120	001331	59.130	12.418700	-57.475690	59.220	-0.280	0.150	1.810	59.160	-1.200	2.500																			1579997611.0	0.43	0.80
26/01/2020 00:13:32	26012020	260120	001332	59.290	12.418700	-57.475690	59.360	-0.130	0.070	1.080	59.330	-1.300	1.800																			1579997612.0	0.16	0.30
26/01/2020 00:13:33	26012020	260120	001333	59.430	12.418702	-57.475692	59.420	0.100	-0.220	0.310	59.450	-1.400	1.100																			1579997613.0	0.43	0.80
26/01/2020 00:13:34	26012020	260120	001334	59.480	12.418703	-57.475693	59.360	0.400	-0.640	-0.290	59.470	-1.800	0.400																			1579997614.0	0.62	1.15
26/01/2020 00:13:35	26012020	260120	001335	59.400	12.418707	-57.475695	59.230	0.640	-0.860	-0.640	59.370	-2.200	-0.100																			1579997615.0	0.77	1.43
26/01/2020 00:13:36	26012020	260120	001336	59.250	12.418710	-57.475695	59.110	0.700	-0.680	-0.700	59.220	-2.200	-0.300																			1579997616.0	0.82	1.52
26/01/2020 00:13:37	26012020	260120	001337	59.150	12.418713	-57.475695	59.110	0.510	-0.180	-0.430	59.150	-1.800	-0.200																			1579997617.0	0.56	1.04
26/01/2020 00:13:38	26012020	260120	001338	59.190	12.418713	-57.475697	59.220	0.120	0.360	0.130	59.220	-1.300	0.200																			1579997618.0	0.23	0.43
26/01/2020 00:13:39	26012020	260120	001339	59.330	12.418710	-57.475697	59.370	-0.300	0.680	0.880	59.360	-0.800	0.900																			1579997619.0	0.61	1.13
26/01/2020 00:13:40	26012020	260120	001340	59.430	12.418705	-57.475697	59.460	-0.590	0.630	1.650	59.450	-0.700	1.600																			1579997620.0	0.99	1.83
26/01/2020 00:13:41	26012020	260120	001341	59.470	12.418700	-57.475693	59.420	-0.650	0.230	2.320	59.460	-0.900	2.400																			1579997621.0	1.19	2.20
26/01/2020 00:13:42	26012020	260120	001342	59.390	12.418695	-57.475690	59.330	-0.490	-0.270	2.730	59.370	-1.400	2.900																			1579997622.0	1.30	2.41
26/01/2020 00:13:43	26012020	260120	001343	59.280	12.418692	-57.475687	59.260	-0.210	-0.560	2.730	59.270	-1.800	3.100																			1579997623.0	1.19	2.20
26/01/2020 00:13:44	26012020	260120	001344	59.230	12.418690	-57.475685	59.250	0.090	-0.520	2.250	59.230	-2.000	2.900																			1579997624.0	0.71	1.31
26/01/2020 00:13:45	26012020	260120	001345	59.230	12.418688	-57.475685	59.220	0.300	-0.270	1.400	59.230	-1.800	2.200																			1579997625.0	0.10	0.19
26/01/2020 00:13:46	26012020	260120	001346	59.230	12.418692	-57.475688	59.160	0.360	-0.110	0.320	59.230	-1.500	1.300																			1579997626.0	0.76	1.41
26/01/2020 00:13:47	26012020	260120	001347	59.210	12.418695	-57.475692	59.130	0.260	-0.130	-0.720	59.210	-1.500	0.100																			1579997627.0	1.21	2.24
26/01/2020 00:13:48	26012020	260120	001348	59.210	12.418700	-57.475695	59.170	0.100	-0.220	-1.430	59.220	-1.600	-0.800																			1579997628.0	1.45	2.69
26/01/2020 00:13:49	26012020	260120	001349	59.300	12.418707	-57.475698	59.340	0.000	-0.170	-1.660	59.340	-1.600	-1.200																			1579997629.0	1.30	2.41
26/01/2020 00:13:50	26012020	260120	001350	59.490	12.418708	-57.475700	59.540	-0.010	-0.040	-1.340	59.530	-1.500	-1.200																			1579997630.0	0.72	1.33
26/01/2020 00:13:51	26012020	260120	001351	59.670	12.418708	-57.475700	59.690	-0.000	0.070	-0.500	59.700	-1.400	-0.600																			1579997631.0	0.13	0.24
26/01/2020 00:13:52	26012020	260120	001352	59.750	12.418703	-57.475698	59.730	-0.050	0.050	0.650	59.760	-1.300	0.400																			1579997632.0	1.03	1.91
26/01/2020 00:13:53	26012020	260120	001353	59.740	12.418697	-57.475693	59.700	-0.140	-0.030	1.780	59.730	-1.400	1.600																			1579997633.0	1.64	3.04
26/01/2020 00:13:54	26012020	260120	001354	59.700	12.418690	-57.475690	59.700	-0.190	-0.050	2.580	59.690	-1.400	2.600																			1579997634.0	1.65	3.06
26/01/2020 00:13:55	26012020	260120	001355	59.700	12.418687	-57.475687	59.760	-0.120	-0.020	2.940	59.710	-1.400	3.200																			1579997635.0	1.19	2.20
26/01/2020 00:13:56	26012020	260120	001356	59.780	12.418683	-57.475687	59.860	0.020	-0.040	2.890	59.800	-1.400	3.300																			1579997636.0	0.62	1.15
26/01/2020 00:13:57	26012020	260120	001357	59.880	12.418682	-57.475687	59.950	0.100	-0.150	2.460	59.900	-1.500	3.100																			1579997637.0	0.18	0.33
26/01/2020 00:13:58	26012020	260120	001358	59.960	12.418683	-57.475687	60.030	0.090	-0.300	1.760	59.990	-1.600	2.500																			1579997638.0	0.23	0.43
26/01/2020 00:13:59	26012020	260120	001359	60.100	12.418687	-57.475687	60.170	0.040	-0.340	0.920	60.130	-1.700	1.700	1014.90	25.80	25.90	21.00	21.10	-1.00	74.00	74.00	406.00	25.10	333.00	5.00	30.00	4.80	15	3566.00	27.50	27.40	1579997639.0	0.60	1.11
26/01/2020 00:14:00	26012020	260120	001400	60.250	12.418690	-57.475688	60.260	-0.010	-0.140	0.190	60.280	-1.700	0.900																			1579997640.0	0.81	1.50
26/01/2020 00:14:01	26012020	260120	001401	60.300	12.418692	-57.475690	60.200	-0.060	0.140	-0.300	60.290	-1.400	0.300																			1579997641.0	0.73	1.35
26/01/2020 00:14:02	26012020	260120	001402	60.220	12.418693	-57.475693	60.090	-0.090	0.200	-0.610	60.210	-1.200	-0.100																			1579997642.0	0.56	1.04
26/01/2020 00:14:03	26012020	260120	001403	60.140	12.418695	-57.475695	60.060	-0.030	-0.070	-0.720	60.130	-1.300	-0.300																			1579997643.0	0.46	0.85
26/01/2020 00:14:04	26012020	260120	001404	60.120	12.418697	-57.475695	60.030	0.100	-0.370	-0.530	60.110	-1.600	-0.300																			1579997644.0	0.41	0.76
26/01/2020 00:14:05	26012020	260120	001405	60.080	12.418698	-57.475695	60.040	0.140	-0.390	-0.110	60.080	-1.800	0.000																			1579997645.0	0.38	0.70
26/01/2020 00:14:06	26012020	260120	001406	60.120	12.418698	-57.475693	60.140	0.030	-0.160	0.400	60.140	-1.700	0.500																			1579997646.0	0.29	0.54
26/01/2020 00:14:07	26012020	260120	001407	60.250	12.418695	-57.475693	60.310	-0.130	0.080	1.010	60.280	-1.400	1.100																			1579997647.0	0.54	1.00
26/01/2020 00:14:08	26012020	260120	001408	60.400	12.418692	-57.475692	60.400	-0.180	0.130	1.680	60.420	-1.300	1.700																			1579997648.0	0.86	1.59
26/01/2020 00:14:09	26012020	260120	001409	60.450	12.418687	-57.475690	60.400	-0.100	-0.020	2.250	60.440	-1.300	2.400																			1579997649.0	0.99	1.83
26/01/2020 00:14:10	26012020	260120	001410	60.390	12.418683	-57.475688	60.330	0.070	-0.230	2.480	60.370	-1.500	2.800																			1579997650.0	0.86	1.59
26/01/2020 00:14:11	26012020	260120	001411	60.300	12.418682	-57.475687	60.250	0.160	-0.310	2.250	60.290	-1.700	2.800																			1579997651.0	0.54	1.00
26/01/2020 00:14:12	26012020	260120	001412	60.230	12.418682	-57.475685	60.190	0.110	-0.190	1.660	60.220	-1.700	2.300																			1579997652.0	0.18	0.33
26/01/2020 00:14:13	26012020	260120	001413	60.220	12.418683	-57.475687	60.250	-0.030	-0.020	0.890	60.230	-1.500	1.700																			1579997653.0	0.44	0.81
26/01/2020 00:14:14	26012020	260120	001414	60.360	12.418687	-57.475690	60.450	-0.110	0.080	0.020	60.400	-1.400	0.800																			1579997654.0	0.84	1.56
26/01/2020 00:14:15	26012020	260120	001415	60.610	12.418690	-57.475693	60.670	-0.110	0.160	-0.720	60.660	-1.300	0.000																			1579997655.0	1.02	1.89
26/01/2020 00:14:16	26012020	260120	001416	60.780	12.418693	-57.475695	60.770	-0.100	0.160	-1.150	60.810	-1.200	-0.600																			1579997656.0	0.95	1.76
26/01/2020 00:14:17	26012020	260120	001417	60.860	12.418695	-57.475698	60.770	-0.110	0.000	-1.200	60.850	-1.300	-0.900																			1579997657.0	0.61	1.13
26/01/2020 00:14:18	26012020	260120	001418	60.840	12.418697	-57.475698	60.800	-0.080	-0.310	-0.880	60.840	-1.500	-0.700																			1579997658.0	0.21	0.39
26/01/2020 00:14:19	26012020	260120	001419	60.880	12.418695	-57.475698	60.870	0.010	-0.550	-0.240	60.890	-1.900	-0.200																			1579997659.0	0.27	0.50
26/01/2020 00:14:20	26012020	260120	001420	60.930	12.418693	-57.475695	60.900	0.120	-0.510	0.580	60.930	-2.000	0.500																			1579997660.0	0.65	1.20
26/01/2020 00:14:21	26012020	260120	001421	60.900	12.418690	-57.475693	60.840	0.170	-0.200	1.370	60.890	-1.800	1.400																			1579997661.0	0.83	1.54
26/01/2020 00:14:22	26012020	260120	001422	60.800	12.418687	-57.475692	60.760	0.120	0.140	1.970	60.790	-1.400	2.100																			1579997662.0	0.90	1.67
26/01/2020 00:14:23	26012020	260120	001423	60.750	12.418682	-57.475692	60.780	0.070	0.200	2.300	60.750	-1.200	2.500																			1579997663.0	0.82	1.52
26/01/2020 00:14:24	26012020	260120	001424	60.800	12.418680	-57.475690	60.900	0.080	-0.070	2.330	60.830	-1.300	2.700																			1579997664.0	0.57	1.06
26/01/2020 00:14:25	26012020	260120	001425	60.930	12.418678	-57.475688	60.960	0.090	-0.300	2.050	60.950	-1.600	2.600																			1579997665.0	0.39	0.72
26/01/2020 00:14:26	26012020	260120	001426	60.960	12.418680	-57.475687	60.890	0.040	-0.210	1.540	60.950	-1.700	2.200																			1579997666.0	0.42	0.78
26/01/2020 00:14:27	26012020	260120	001427	60.850	12.418682	-57.475687	60.740	-0.060	0.090	0.900	60.820	-1.500	1.600																			1579997667.0	0.38	0.70
26/01/2020 00:14:28	26012020	260120	001428	60.720	12.418683	-57.475688	60.630	-0.170	0.310	0.280	60.700	-1.200	1.000																			1579997668.0	0.65	1.20
26/01/2020 00:14:29	26012020	260120	001429	60.660	12.418687	-57.475692	60.600	-0.250	0.280	-0.160	60.650	-1.100	0.400																			1579997669.0	0.80	1.48
26/01/2020 00:14:30	26012020	260120	001430	60.650	12.418688	-57.475695	60.630	-0.260	0.020	-0.440	60.660	-1.200	0.100																			1579997670.0	0.68	1.26
26/01/2020 00:14:31	26012020	260120	001431	60.670	12.418690	-57.475695	60.610	-0.180	-0.310	-0.560	60.670	-1.600	-0.100																			1579997671.0	0.44	0.81
26/01/2020 00:14:32	26012020	260120	001432	60.640	12.418692	-57.475695	60.480	-0.020	-0.460	-0.410	60.620	-1.800	-0.200																			1579997672.0	0.24	0.44
26/01/2020 00:14:33	26012020	260120	001433	60.430	12.418692	-57.475695	60.240	0.150	-0.450	0.060	60.370	-1.900	0.200																			1579997673.0	0.12	0.22
26/01/2020 00:14:34	26012020	260120	001434	60.170	12.418690	-57.475693	60.090	0.280	-0.420	0.660	60.130	-1.800	0.700																			1579997674.0	0.39	0.72
26/01/2020 00:14:35	26012020	260120	001435	60.080	12.418687	-57.475693	60.130	0.320	-0.390	1.150	60.080	-1.800	1.300																			1579997675.0	0.52	0.96
26/01/2020 00:14:36	26012020	260120	001436	60.170	12.418685	-57.475692	60.230	0.250	-0.190	1.430	60.190	-1.700	1.700																			1579997676.0	0.46	0.85
26/01/2020 00:14:37	26012020	260120	001437	60.260	12.418685	-57.475690	60.220	0.090	0.210	1.570	60.260	-1.400	1.900																			1579997677.0	0.32	0.59
26/01/2020 00:14:38	26012020	260120	001438	60.210	12.418683	-57.475692	60.080	-0.090	0.520	1.620	60.180	-1.000	2.000																			1579997678.0	0.31	0.57
26/01/2020 00:14:39	26012020	260120	001439	60.030	12.418682	-57.475692	59.940	-0.200	0.380	1.520	60.000	-0.900	2.000																			1579997679.0	0.41	0.76
26/01/2020 00:14:40	26012020	260120	001440	59.930	12.418682	-57.475693	59.980	-0.170	-0.150	1.150	59.940	-1.300	1.700																			1579997680.0	0.14	0.26
26/01/2020 00:14:41	26012020	260120	001441	60.060	12.418683	-57.475692	60.180	-0.080	-0.580	0.620	60.100	-1.800	1.300																			1579997681.0	0.40	0.74
26/01/2020 00:14:42	26012020	260120	001442	60.220	12.418687	-57.475692	60.270	-0.040	-0.460	0.180	60.250	-2.000	0.700																			1579997682.0	0.63	1.17
26/01/2020 00:14:43	26012020	260120	001443	60.260	12.418688	-57.475692	60.100	-0.080	0.020	-0.030	60.230	-1.600	0.400																			1579997683.0	0.39	0.72
26/01/2020 00:14:44	26012020	260120	001444	60.100	12.418687	-57.475693	59.860	-0.090	0.320	-0.110	60.050	-1.200	0.300																			1579997684.0	0.50	0.93
26/01/2020 00:14:45	26012020	260120	001445	59.860	12.418687	-57.475697	59.780	-0.000	0.140	-0.240	59.850	-1.100	0.200																			1579997685.0	0.56	1.04
26/01/2020 00:14:46	26012020	260120	001446	59.880	12.418687	-57.475698	59.920	0.140	-0.270	-0.300	59.900	-1.500	0.100																			1579997686.0	0.25	0.46
26/01/2020 00:14:47	26012020	260120	001447	60.020	12.418690	-57.475697	60.030	0.210	-0.440	-0.070	60.040	-1.800	0.200																			1579997687.0	0.48	0.89
26/01/2020 00:14:48	26012020	260120	001448	60.080	12.418690	-57.475697	60.020	0.090	-0.240	0.400	60.070	-1.800	0.500																			1579997688.0	0.34	0.63
26/01/2020 00:14:49	26012020	260120	001449	60.020	12.418688	-57.475695	59.940	-0.110	0.060	0.930	60.000	-1.500	1.000																			1579997689.0	0.28	0.52
26/01/2020 00:14:50	26012020	260120	001450	59.940	12.418687	-57.475697	59.880	-0.200	0.120	1.490	59.920	-1.300	1.600																			1579997690.0	0.61	1.13
26/01/2020 00:14:51	26012020	260120	001451	59.860	12.418683	-57.475695	59.840	-0.110	-0.130	2.030	59.850	-1.400	2.100																			1579997691.0	0.66	1.22
26/01/2020 00:14:52	26012020	260120	001452	59.830	12.418680	-57.475693	59.830	0.060	-0.450	2.350	59.830	-1.700	2.600																			1579997692.0	0.77	1.43
26/01/2020 00:14:53	26012020	260120	001453	59.820	12.418678	-57.475690	59.810	0.150	-0.480	2.240	59.820	-1.900	2.700																			1579997693.0	0.81	1.50
26/01/2020 00:14:54	26012020	260120	001454	59.800	12.418678	-57.475688	59.770	0.120	-0.150	1.710	59.800	-1.700	2.400																			1579997694.0	0.46	0.85
26/01/2020 00:14:55	26012020	260120	001455	59.780	12.418680	-57.475688	59.730	0.040	0.250	0.970	59.780	-1.300	1.700																			1579997695.0	0.30	0.56
26/01/2020 00:14:56	26012020	260120	001456	59.760	12.418682	-57.475692	59.700	0.030	0.390	0.240	59.760	-1.000	1.000																			1579997696.0	0.86	1.59
26/01/2020 00:14:57	26012020	260120	001457	59.760	12.418685	-57.475695	59.720	0.110	0.240	-0.430	59.760	-1.100	0.300																			1579997697.0	1.02	1.89
26/01/2020 00:14:58	26012020	260120	001458	59.780	12.418688	-57.475698	59.770	0.180	-0.050	-0.930	59.790	-1.300	-0.300																			1579997698.0	1.00	1.85
26/01/2020 00:14:59	26012020	260120	001459	59.840	12.418693	-57.475700	59.810	0.140	-0.320	-1.110	59.850	-1.600	-0.700	1014.90	25.80	25.90	21.00	21.10	-1.00	74.00	74.00	406.00	25.10	330.00	5.10	29.00	4.90	15	3603.00	27.50	27.40	1579997699.0	0.93	1.72
26/01/2020 00:15:00	26012020	260120	001500	59.860	12.418695	-57.475700	59.790	-0.010	-0.460	-0.850	59.850	-1.800	-0.700																			1579997700.0	0.65	1.20
26/01/2020 00:15:01	26012020	260120	001501	59.800	12.418697	-57.475700	59.720	-0.190	-0.320	-0.160	59.780	-1.800	-0.200																			1579997701.0	0.20	0.37
26/01/2020 00:15:02	26012020	260120	001502	59.690	12.418695	-57.475698	59.620	-0.330	-0.030	0.830	59.670	-1.600	0.700																			1579997702.0	0.47	0.87
26/01/2020 00:15:03	26012020	260120	001503	59.610	12.418690	-57.475698	59.620	-0.360	0.120	1.770	59.610	-1.300	1.700																			1579997703.0	1.08	2.00
26/01/2020 00:15:04	26012020	260120	001504	59.640	12.418683	-57.475695	59.720	-0.260	-0.040	2.340	59.660	-1.300	2.500																			1579997704.0	1.35	2.50
26/01/2020 00:15:05	26012020	260120	001505	59.750	12.418678	-57.475693	59.820	-0.080	-0.300	2.480	59.780	-1.600	2.800																			1579997705.0	1.15	2.13
26/01/2020 00:15:06	26012020	260120	001506	59.850	12.418677	-57.475690	59.860	0.130	-0.370	2.310	59.860	-1.800	2.800																			1579997706.0	0.71	1.31
26/01/2020 00:15:07	26012020	260120	001507	59.850	12.418677	-57.475690	59.770	0.300	-0.150	1.960	59.840	-1.700	2.500																			1579997707.0	0.26	0.48
26/01/2020 00:15:08	26012020	260120	001508	59.760	12.418678	-57.475690	59.570	0.390	0.120	1.400	59.730	-1.400	2.100																			1579997708.0	0.26	0.48
26/01/2020 00:15:09	26012020	260120	001509	59.550	12.418680	-57.475693	59.440	0.380	0.140	0.580	59.530	-1.200	1.400																			1579997709.0	0.68	1.26
26/01/2020 00:15:10	26012020	260120	001510	59.520	12.418683	-57.475695	59.520	0.300	-0.090	-0.360	59.540	-1.400	0.500																			1579997710.0	1.10	2.04
26/01/2020 00:15:11	26012020	260120	001511	59.670	12.418690	-57.475698	59.650	0.140	-0.280	-1.010	59.690	-1.600	-0.400																			1579997711.0	1.42	2.63
26/01/2020 00:15:12	26012020	260120	001512	59.770	12.418695	-57.475700	59.650	-0.110	-0.160	-1.120	59.770	-1.700	-0.800																			1579997712.0	1.26	2.33
26/01/2020 00:15:13	26012020	260120	001513	59.680	12.418698	-57.475702	59.480	-0.350	0.190	-0.680	59.640	-1.400	-0.600																			1579997713.0	0.64	1.19
26/01/2020 00:15:14	26012020	260120	001514	59.470	12.418697	-57.475703	59.310	-0.450	0.320	0.120	59.430	-1.100	0.100																			1579997714.0	0.36	0.67
26/01/2020 00:15:15	26012020	260120	001515	59.300	12.418693	-57.475703	59.240	-0.340	-0.010	0.960	59.280	-1.200	0.900																			1579997715.0	0.84	1.56
26/01/2020 00:15:16	26012020	260120	001516	59.260	12.418688	-57.475702	59.260	-0.130	-0.500	1.600	59.270	-1.700	1.700																			1579997716.0	1.07	1.98
26/01/2020 00:15:17	26012020	260120	001517	59.290	12.418685	-57.475697	59.260	0.020	-0.630	2.040	59.290	-2.000	2.200																			1579997717.0	1.09	2.02
26/01/2020 00:15:18	26012020	260120	001518	59.270	12.418683	-57.475693	59.200	0.030	-0.310	2.330	59.260	-1.900	2.600																			1579997718.0	0.84	1.56
26/01/2020 00:15:19	26012020	260120	001519	59.190	12.418682	-57.475693	59.090	0.020	0.020	2.320	59.170	-1.500	2.700																			1579997719.0	0.53	0.98
26/01/2020 00:15:20	26012020	260120	001520	59.100	12.418680	-57.475693	58.940	0.090	0.120	1.950	59.070	-1.300	2.600																			1579997720.0	0.35	0.65
26/01/2020 00:15:21	26012020	260120	001521	58.920	12.418680	-57.475695	58.790	0.210	0.060	1.220	58.890	-1.300	2.000																			1579997721.0	0.31	0.57
26/01/2020 00:15:22	26012020	260120	001522	58.830	12.418683	-57.475695	58.740	0.280	-0.030	0.230	58.820	-1.400	1.100																			1579997722.0	0.72	1.33
26/01/2020 00:15:23	26012020	260120	001523	58.830	12.418688	-57.475698	58.800	0.250	-0.090	-0.710	58.840	-1.500	0.100																			1579997723.0	1.12	2.07
26/01/2020 00:15:24	26012020	260120	001524	58.910	12.418693	-57.475700	58.830	0.190	-0.110	-1.270	58.920	-1.500	-0.700																			1579997724.0	1.35	2.50
26/01/2020 00:15:25	26012020	260120	001525	58.930	12.418698	-57.475703	58.800	0.120	-0.160	-1.370	58.910	-1.500	-1.000																			1579997725.0	1.16	2.15
26/01/2020 00:15:26	26012020	260120	001526	58.850	12.418702	-57.475705	58.710	0.020	-0.230	-1.110	58.830	-1.600	-0.900																			1579997726.0	0.63	1.17
26/01/2020 00:15:27	26012020	260120	001527	58.740	12.418702	-57.475705	58.620	-0.160	-0.200	-0.520	58.720	-1.600	-0.500																			1579997727.0	0.15	0.28
26/01/2020 00:15:28	26012020	260120	001528	58.650	12.418702	-57.475703	58.580	-0.390	0.020	0.380	58.640	-1.500	0.300																			1579997728.0	0.37	0.69
26/01/2020 00:15:29	26012020	260120	001529	58.620	12.418697	-57.475702	58.610	-0.550	0.260	1.390	58.620	-1.200	1.300																			1579997729.0	0.85	1.57
26/01/2020 00:15:30	26012020	260120	001530	58.650	12.418692	-57.475698	58.670	-0.540	0.240	2.200	58.650	-1.100	2.200																			1579997730.0	1.32	2.44
26/01/2020 00:15:31	26012020	260120	001531	58.690	12.418685	-57.475697	58.710	-0.320	-0.100	2.640	58.700	-1.300	2.800																			1579997731.0	1.42	2.63
26/01/2020 00:15:32	26012020	260120	001532	58.710	12.418682	-57.475693	58.680	0.060	-0.520	2.740	58.710	-1.700	3.100																			1579997732.0	1.08	2.00
26/01/2020 00:15:33	26012020	260120	001533	58.630	12.418680	-57.475690	58.510	0.380	-0.640	2.520	58.600	-2.000	3.000																			1579997733.0	0.72	1.33
26/01/2020 00:15:34	26012020	260120	001534	58.460	12.418680	-57.475688	58.200	0.480	-0.350	1.910	58.410	-1.900	2.600																			1579997734.0	0.34	0.63
26/01/2020 00:15:35	26012020	260120	001535	58.120	12.418682	-57.475690	57.910	0.410	0.090	0.930	58.070	-1.500	1.800																			1579997735.0	0.53	0.98
26/01/2020 00:15:36	26012020	260120	001536	57.900	12.418687	-57.475695	57.750	0.340	0.280	-0.180	57.870	-1.200	0.800																			1579997736.0	1.34	2.48
26/01/2020 00:15:37	26012020	260120	001537	57.800	12.418693	-57.475700	57.730	0.310	0.050	-1.080	57.800	-1.200	-0.300																			1579997737.0	1.80	3.33
26/01/2020 00:15:38	26012020	260120	001538	57.830	12.418700	-57.475705	57.800	0.220	-0.340	-1.520	57.840	-1.500	-1.000																			1579997738.0	1.73	3.20
26/01/2020 00:15:39	26012020	260120	001539	57.890	12.418707	-57.475705	57.830	-0.030	-0.430	-1.370	57.890	-1.800	-1.100																			1579997739.0	1.25	2.31
26/01/2020 00:15:40	26012020	260120	001540	57.840	12.418708	-57.475703	57.670	-0.400	-0.050	-0.570	57.800	-1.700	-0.700																			1579997740.0	0.50	0.93
26/01/2020 00:15:41	26012020	260120	001541	57.600	12.418705	-57.475702	57.360	-0.670	0.440	0.640	57.530	-1.200	0.400																			1579997741.0	0.77	1.43
26/01/2020 00:15:42	26012020	260120	001542	57.250	12.418697	-57.475700	57.040	-0.680	0.530	1.850	57.170	-0.800	1.700																			1579997742.0	1.63	3.02
26/01/2020 00:15:43	26012020	260120	001543	56.920	12.418690	-57.475697	56.810	-0.430	0.170	2.650	56.870	-1.000	2.700																			1579997743.0	1.85	3.43
26/01/2020 00:15:44	26012020	260120	001544	56.750	12.418683	-57.475693	56.680	-0.040	-0.350	2.880	56.720	-1.500	3.200																			1579997744.0	1.43	2.65
26/01/2020 00:15:45	26012020	260120	001545	56.610	12.418683	-57.475690	56.600	0.350	-0.680	2.620	56.600	-1.900	3.200																			1579997745.0	0.72	1.33
26/01/2020 00:15:46	26012020	260120	001546	56.560	12.418685	-57.475690	56.520	0.640	-0.740	1.990	56.550	-2.100	2.700																			1579997746.0	0.44	0.81
26/01/2020 00:15:47	26012020	260120	001547	56.500	12.418688	-57.475690	56.460	0.720	-0.560	1.110	56.490	-2.100	2.000																			1579997747.0	0.84	1.56
26/01/2020 00:15:48	26012020	260120	001548	56.430	12.418693	-57.475693	56.350	0.520	-0.180	0.250	56.400	-1.800	1.100																			1579997748.0	1.15	2.13
26/01/2020 00:15:49	26012020	260120	001549	56.280	12.418698	-57.475697	56.150	0.090	0.370	-0.330	56.240	-1.300	0.300																			1579997749.0	1.26	2.33
26/01/2020 00:15:50	26012020	260120	001550	56.070	12.418702	-57.475700	55.920	-0.380	0.760	-0.600	56.030	-0.800	-0.100																			1579997750.0	1.13	2.09
26/01/2020 00:15:51	26012020	260120	001551	55.900	12.418703	-57.475703	55.850	-0.600	0.600	-0.700	55.880	-0.600	-0.300																			1579997751.0	0.81	1.50
26/01/2020 00:15:52	26012020	260120	001552	55.870	12.418703	-57.475705	55.890	-0.490	-0.070	-0.640	55.880	-1.100	-0.300																			1579997752.0	0.29	0.54
26/01/2020 00:15:53	26012020	260120	001553	55.900	12.418705	-57.475703	55.880	-0.210	-0.740	-0.340	55.900	-1.800	-0.100																			1579997753.0	0.43	0.80
26/01/2020 00:15:54	26012020	260120	001554	55.870	12.418705	-57.475700	55.820	0.030	-0.890	0.180	55.850	-2.300	0.300																			1579997754.0	0.80	1.48
26/01/2020 00:15:55	26012020	260120	001555	55.810	12.418703	-57.475697	55.830	0.150	-0.510	0.820	55.800	-2.100	0.900																			1579997755.0	0.77	1.43
26/01/2020 00:15:56	26012020	260120	001556	55.810	12.418700	-57.475693	55.850	0.180	0.030	1.460	55.810	-1.600	1.500																			1579997756.0	0.84	1.56
26/01/2020 00:15:57	26012020	260120	001557	55.820	12.418695	-57.475693	55.840	0.140	0.380	1.880	55.820	-1.100	2.100																			1579997757.0	1.02	1.89
26/01/2020 00:15:58	26012020	260120	001558	55.790	12.418692	-57.475693	55.770	0.110	0.350	1.890	55.780	-1.000	2.300																			1579997758.0	0.79	1.46
26/01/2020 00:15:59	26012020	260120	001559	55.690	12.418692	-57.475693	55.650	0.130	0.070	1.560	55.670	-1.200	2.100	1014.90	25.80	25.90	20.90	21.00	-1.00	74.00	74.00	407.00	25.10	325.00	5.00	21.00	4.70	15	3538.00	27.50	27.40	1579997759.0	0.08	0.15
26/01/2020 00:16:00	26012020	260120	001600	55.620	12.418695	-57.475693	55.620	0.170	-0.170	1.100	55.620	-1.500	1.700																			1579997760.0	0.60	1.11
26/01/2020 00:16:01	26012020	260120	001601	55.650	12.418698	-57.475695	55.700	0.110	-0.220	0.720	55.670	-1.600	1.300																			1579997761.0	0.79	1.46
26/01/2020 00:16:02	26012020	260120	001602	55.740	12.418700	-57.475695	55.770	-0.080	-0.140	0.490	55.760	-1.600	1.000																			1579997762.0	0.60	1.11
26/01/2020 00:16:03	26012020	260120	001603	55.790	12.418702	-57.475697	55.760	-0.320	-0.090	0.310	55.790	-1.500	0.800																			1579997763.0	0.34	0.63
26/01/2020 00:16:04	26012020	260120	001604	55.760	12.418702	-57.475698	55.670	-0.410	-0.140	0.140	55.740	-1.500	0.600																			1579997764.0	0.27	0.50
26/01/2020 00:16:05	26012020	260120	001605	55.660	12.418703	-57.475698	55.540	-0.270	-0.240	0.180	55.630	-1.600	0.500																			1579997765.0	0.19	0.35
26/01/2020 00:16:06	26012020	260120	001606	55.530	12.418703	-57.475698	55.440	0.020	-0.340	0.450	55.500	-1.700	0.700																			1579997766.0	0.06	0.11
26/01/2020 00:16:07	26012020	260120	001607	55.460	12.418702	-57.475697	55.470	0.320	-0.450	0.680	55.460	-1.800	1.000																			1579997767.0	0.42	0.78
26/01/2020 00:16:08	26012020	260120	001608	55.500	12.418700	-57.475695	55.540	0.460	-0.420	0.680	55.520	-1.900	1.100																			1579997768.0	0.58	1.07
26/01/2020 00:16:09	26012020	260120	001609	55.560	12.418700	-57.475692	55.550	0.350	-0.060	0.560	55.560	-1.700	1.000																			1579997769.0	0.38	0.70
26/01/2020 00:16:10	26012020	260120	001610	55.540	12.418702	-57.475693	55.470	0.090	0.480	0.540	55.530	-1.200	0.900																			1579997770.0	0.26	0.48
26/01/2020 00:16:11	26012020	260120	001611	55.430	12.418702	-57.475695	55.360	-0.130	0.780	0.710	55.400	-0.700	1.000																			1579997771.0	0.56	1.04
26/01/2020 00:16:12	26012020	260120	001612	55.330	12.418702	-57.475698	55.340	-0.180	0.500	0.910	55.330	-0.700	1.200																			1579997772.0	0.52	0.96
26/01/2020 00:16:13	26012020	260120	001613	55.370	12.418700	-57.475698	55.430	-0.110	-0.230	0.960	55.390	-1.200	1.300																			1579997773.0	0.17	0.31
26/01/2020 00:16:14	26012020	260120	001614	55.460	12.418702	-57.475695	55.470	-0.030	-0.790	0.980	55.480	-2.000	1.300																			1579997774.0	0.46	0.85
26/01/2020 00:16:15	26012020	260120	001615	55.420	12.418702	-57.475693	55.290	-0.050	-0.690	1.180	55.380	-2.200	1.400																			1579997775.0	0.60	1.11
26/01/2020 00:16:16	26012020	260120	001616	55.170	12.418702	-57.475692	55.000	-0.110	-0.240	1.470	55.110	-1.900	1.700																			1579997776.0	0.24	0.44
26/01/2020 00:16:17	26012020	260120	001617	54.920	12.418700	-57.475693	54.890	-0.080	-0.070	1.450	54.890	-1.500	1.900																			1579997777.0	0.48	0.89
26/01/2020 00:16:18	26012020	260120	001618	54.930	12.418698	-57.475693	55.050	0.060	-0.250	1.000	54.960	-1.500	1.600																			1579997778.0	0.35	0.65
26/01/2020 00:16:19	26012020	260120	001619	55.140	12.418700	-57.475693	55.210	0.160	-0.260	0.490	55.170	-1.700	1.100																			1579997779.0	0.37	0.69
26/01/2020 00:16:20	26012020	260120	001620	55.230	12.418703	-57.475693	55.140	0.080	0.140	0.250	55.230	-1.500	0.700																			1579997780.0	0.65	1.20
26/01/2020 00:16:21	26012020	260120	001621	55.100	12.418703	-57.475695	54.980	-0.140	0.520	0.220	55.060	-1.000	0.600																			1579997781.0	0.36	0.67
26/01/2020 00:16:22	26012020	260120	001622	54.970	12.418703	-57.475697	54.930	-0.280	0.430	0.180	54.950	-0.900	0.600																			1579997782.0	0.45	0.83
26/01/2020 00:16:23	26012020	260120	001623	54.980	12.418702	-57.475698	55.030	-0.190	-0.060	0.120	54.990	-1.200	0.500																			1579997783.0	0.25	0.46
26/01/2020 00:16:24	26012020	260120	001624	55.040	12.418703	-57.475697	55.040	0.080	-0.540	0.200	55.050	-1.700	0.500																			1579997784.0	0.24	0.44
26/01/2020 00:16:25	26012020	260120	001625	55.020	12.418705	-57.475697	54.940	0.360	-0.720	0.420	55.000	-2.100	0.700																			1579997785.0	0.45	0.83
26/01/2020 00:16:26	26012020	260120	001626	54.900	12.418705	-57.475695	54.830	0.470	-0.580	0.700	54.880	-2.100	0.900																			1579997786.0	0.30	0.56
26/01/2020 00:16:27	26012020	260120	001627	54.820	12.418705	-57.475695	54.800	0.340	-0.220	0.990	54.810	-1.800	1.200																			1579997787.0	0.13	0.24
26/01/2020 00:16:28	26012020	260120	001628	54.810	12.418705	-57.475695	54.840	0.050	0.210	1.290	54.820	-1.400	1.500																			1579997788.0	0.21	0.39
26/01/2020 00:16:29	26012020	260120	001629	54.860	12.418703	-57.475695	54.900	-0.280	0.500	1.470	54.870	-1.000	1.800																			1579997789.0	0.37	0.69
26/01/2020 00:16:30	26012020	260120	001630	54.940	12.418702	-57.475695	54.990	-0.450	0.470	1.430	54.960	-0.900	1.900																			1579997790.0	0.40	0.74
26/01/2020 00:16:31	26012020	260120	001631	55.040	12.418700	-57.475695	55.070	-0.370	0.120	1.270	55.060	-1.100	1.700																			1579997791.0	0.16	0.30
26/01/2020 00:16:32	26012020	260120	001632	55.100	12.418700	-57.475695	55.100	-0.110	-0.310	1.100	55.110	-1.500	1.600																			1579997792.0	0.14	0.26
26/01/2020 00:16:33	26012020	260120	001633	55.120	12.418702	-57.475693	55.100	0.120	-0.560	0.920	55.110	-1.900	1.400																			1579997793.0	0.30	0.56
26/01/2020 00:16:34	26012020	260120	001634	55.090	12.418702	-57.475693	55.050	0.170	-0.480	0.660	55.070	-1.900	1.200																			1579997794.0	0.26	0.48
26/01/2020 00:16:35	26012020	260120	001635	55.030	12.418702	-57.475693	54.990	0.130	-0.270	0.320	55.010	-1.800	0.900																			1579997795.0	0.14	0.26
26/01/2020 00:16:36	26012020	260120	001636	54.980	12.418703	-57.475695	54.990	0.100	-0.130	0.060	54.980	-1.600	0.600																			1579997796.0	0.49	0.91
26/01/2020 00:16:37	26012020	260120	001637	55.010	12.418705	-57.475697	55.110	0.120	-0.090	-0.080	55.040	-1.500	0.400																			1579997797.0	0.60	1.11
26/01/2020 00:16:38	26012020	260120	001638	55.160	12.418707	-57.475698	55.300	0.080	-0.050	-0.120	55.200	-1.500	0.300																			1579997798.0	0.41	0.76
26/01/2020 00:16:39	26012020	260120	001639	55.350	12.418708	-57.475698	55.460	-0.060	0.070	-0.060	55.390	-1.400	0.300																			1579997799.0	0.16	0.30
26/01/2020 00:16:40	26012020	260120	001640	55.500	12.418707	-57.475698	55.550	-0.180	0.250	0.240	55.530	-1.200	0.400																			1579997800.0	0.10	0.19
26/01/2020 00:16:41	26012020	260120	001641	55.530	12.418705	-57.475698	55.480	-0.160	0.300	0.820	55.510	-1.100	0.900																			1579997801.0	0.29	0.54
26/01/2020 00:16:42	26012020	260120	001642	55.420	12.418703	-57.475697	55.340	0.040	-0.010	1.440	55.380	-1.200	1.500																			1579997802.0	0.53	0.98
26/01/2020 00:16:43	26012020	260120	001643	55.290	12.418700	-57.475695	55.280	0.240	-0.540	1.730	55.270	-1.700	2.000																			1579997803.0	0.73	1.35
26/01/2020 00:16:44	26012020	260120	001644	55.270	12.418700	-57.475692	55.330	0.280	-0.780	1.660	55.280	-2.100	2.100																			1579997804.0	0.72	1.33
26/01/2020 00:16:45	26012020	260120	001645	55.360	12.418702	-57.475690	55.460	0.120	-0.440	1.400	55.390	-2.100	1.900																			1579997805.0	0.49	0.91
26/01/2020 00:16:46	26012020	260120	001646	55.490	12.418702	-57.475690	55.650	-0.080	0.150	1.040	55.530	-1.500	1.600																			1579997806.0	0.34	0.63
26/01/2020 00:16:47	26012020	260120	001647	55.720	12.418703	-57.475693	55.780	-0.200	0.490	0.710	55.750	-1.000	1.200																			1579997807.0	0.64	1.19
26/01/2020 00:16:48	26012020	260120	001648	55.820	12.418703	-57.475697	55.790	-0.200	0.400	0.460	55.820	-0.900	0.900																			1579997808.0	0.56	1.04
26/01/2020 00:16:49	26012020	260120	001649	55.780	12.418703	-57.475697	55.710	-0.130	0.010	0.320	55.770	-1.200	0.800																			1579997809.0	0.17	0.31
26/01/2020 00:16:50	26012020	260120	001650	55.710	12.418703	-57.475695	55.700	-0.040	-0.440	0.210	55.710	-1.600	0.600																			1579997810.0	0.27	0.50
26/01/2020 00:16:51	26012020	260120	001651	55.740	12.418705	-57.475695	55.800	0.010	-0.620	0.160	55.760	-2.000	0.600																			1579997811.0	0.40	0.74
26/01/2020 00:16:52	26012020	260120	001652	55.820	12.418707	-57.475693	55.820	0.040	-0.340	0.280	55.830	-1.900	0.600																			1579997812.0	0.31	0.57
26/01/2020 00:16:53	26012020	260120	001653	55.780	12.418705	-57.475693	55.660	0.050	0.100	0.530	55.740	-1.500	0.800																			1579997813.0	0.12	0.22
26/01/2020 00:16:54	26012020	260120	001654	55.570	12.418703	-57.475695	55.470	0.070	0.230	0.740	55.530	-1.200	1.000																			1579997814.0	0.45	0.83
26/01/2020 00:16:55	26012020	260120	001655	55.440	12.418703	-57.475695	55.490	0.100	-0.040	0.830	55.440	-1.300	1.200																			1579997815.0	0.30	0.56
26/01/2020 00:16:56	26012020	260120	001656	55.560	12.418703	-57.475695	55.770	0.120	-0.410	0.830	55.620	-1.600	1.200																			1579997816.0	0.19	0.35
26/01/2020 00:16:57	26012020	260120	001657	55.860	12.418705	-57.475693	56.010	0.050	-0.410	0.880	55.920	-1.900	1.200																			1579997817.0	0.49	0.91
26/01/2020 00:16:58	26012020	260120	001658	56.040	12.418705	-57.475692	56.030	-0.100	0.020	1.090	56.050	-1.600	1.300																			1579997818.0	0.30	0.56
26/01/2020 00:16:59	26012020	260120	001659	55.980	12.418703	-57.475692	55.880	-0.230	0.420	1.370	55.940	-1.100	1.600	1014.90	25.80	25.90	20.90	21.10	-1.00	74.00	74.00	407.00	25.10	322.00	5.00	17.00	4.90	15	3613.00	27.40	27.40	1579997819.0	0.38	0.70
26/01/2020 00:17:00	26012020	260120	001700	55.830	12.418700	-57.475692	55.710	-0.230	0.350	1.550	55.790	-0.900	1.900																			1579997820.0	0.75	1.39
26/01/2020 00:17:01	26012020	260120	001701	55.670	12.418698	-57.475692	55.660	-0.070	-0.160	1.510	55.660	-1.300	1.900																			1579997821.0	0.58	1.07
26/01/2020 00:17:02	26012020	260120	001702	55.660	12.418698	-57.475690	55.650	0.120	-0.640	1.250	55.660	-1.800	1.800																			1579997822.0	0.39	0.72
26/01/2020 00:17:03	26012020	260120	001703	55.660	12.418700	-57.475688	55.620	0.220	-0.640	0.800	55.660	-2.100	1.400																			1579997823.0	0.58	1.07
26/01/2020 00:17:04	26012020	260120	001704	55.630	12.418703	-57.475688	55.570	0.190	-0.210	0.330	55.620	-1.900	0.900																			1579997824.0	0.63	1.17
26/01/2020 00:17:05	26012020	260120	001705	55.600	12.418705	-57.475692	55.580	0.080	0.230	-0.020	55.600	-1.400	0.500																			1579997825.0	0.82	1.52
26/01/2020 00:17:06	26012020	260120	001706	55.640	12.418707	-57.475695	55.680	-0.010	0.280	-0.150	55.660	-1.100	0.300																			1579997826.0	0.85	1.57
26/01/2020 00:17:07	26012020	260120	001707	55.780	12.418707	-57.475697	55.830	-0.070	0.020	-0.030	55.810	-1.200	0.300																			1579997827.0	0.44	0.81
26/01/2020 00:17:08	26012020	260120	001708	55.900	12.418708	-57.475697	55.910	-0.120	-0.210	0.300	55.920	-1.500	0.500																			1579997828.0	0.20	0.37
26/01/2020 00:17:09	26012020	260120	001709	55.920	12.418707	-57.475695	55.860	-0.170	-0.260	0.800	55.900	-1.700	0.900																			1579997829.0	0.52	0.96
26/01/2020 00:17:10	26012020	260120	001710	55.810	12.418705	-57.475692	55.720	-0.200	-0.120	1.340	55.780	-1.600	1.500																			1579997830.0	0.74	1.37
26/01/2020 00:17:11	26012020	260120	001711	55.650	12.418702	-57.475690	55.590	-0.170	0.040	1.700	55.620	-1.400	1.900																			1579997831.0	0.87	1.61
26/01/2020 00:17:12	26012020	260120	001712	55.560	12.418698	-57.475688	55.510	-0.060	0.030	1.780	55.540	-1.300	2.200																			1579997832.0	0.74	1.37
26/01/2020 00:17:13	26012020	260120	001713	55.520	12.418697	-57.475688	55.550	0.130	-0.160	1.540	55.530	-1.400	2.100																			1579997833.0	0.27	0.50
26/01/2020 00:17:14	26012020	260120	001714	55.580	12.418698	-57.475690	55.650	0.310	-0.370	1.100	55.600	-1.700	1.700																			1579997834.0	0.37	0.69
26/01/2020 00:17:15	26012020	260120	001715	55.710	12.418702	-57.475690	55.750	0.350	-0.410	0.670	55.730	-1.800	1.300																			1579997835.0	0.72	1.33
26/01/2020 00:17:16	26012020	260120	001716	55.790	12.418705	-57.475692	55.800	0.150	-0.200	0.350	55.810	-1.700	0.900																			1579997836.0	0.64	1.19
26/01/2020 00:17:17	26012020	260120	001717	55.840	12.418705	-57.475692	55.810	-0.190	0.130	0.200	55.840	-1.400	0.600																			1579997837.0	0.38	0.70
26/01/2020 00:17:18	26012020	260120	001718	55.820	12.418705	-57.475693	55.750	-0.380	0.350	0.290	55.800	-1.100	0.600																			1579997838.0	0.34	0.63
26/01/2020 00:17:19	26012020	260120	001719	55.730	12.418705	-57.475695	55.690	-0.310	0.230	0.480	55.720	-1.100	0.800																			1579997839.0	0.32	0.59
26/01/2020 00:17:20	26012020	260120	001720	55.700	12.418703	-57.475695	55.760	-0.060	-0.160	0.600	55.710	-1.300	0.900																			1579997840.0	0.30	0.56
26/01/2020 00:17:21	26012020	260120	001721	55.840	12.418703	-57.475693	55.990	0.130	-0.510	0.530	55.880	-1.800	1.000																			1579997841.0	0.44	0.81
26/01/2020 00:17:22	26012020	260120	001722	56.070	12.418703	-57.475690	56.130	0.110	-0.470	0.490	56.100	-1.900	0.900																			1579997842.0	0.45	0.83
26/01/2020 00:17:23	26012020	260120	001723	56.120	12.418703	-57.475690	55.990	-0.040	-0.070	0.680	56.090	-1.700	0.900																			1579997843.0	0.16	0.30
26/01/2020 00:17:24	26012020	260120	001724	55.910	12.418702	-57.475692	55.740	-0.100	0.270	0.970	55.850	-1.200	1.200																			1579997844.0	0.32	0.59
26/01/2020 00:17:25	26012020	260120	001725	55.670	12.418700	-57.475693	55.610	0.020	0.170	1.090	55.640	-1.100	1.400																			1579997845.0	0.49	0.91
26/01/2020 00:17:26	26012020	260120	001726	55.620	12.418700	-57.475693	55.720	0.220	-0.290	0.950	55.640	-1.400	1.400																			1579997846.0	0.13	0.24
26/01/2020 00:17:27	26012020	260120	001727	55.820	12.418702	-57.475692	56.010	0.330	-0.630	0.640	55.870	-1.900	1.200																			1579997847.0	0.40	0.74
26/01/2020 00:17:28	26012020	260120	001728	56.130	12.418703	-57.475692	56.240	0.210	-0.420	0.460	56.180	-2.000	0.900																			1579997848.0	0.60	1.11
26/01/2020 00:17:29	26012020	260120	001729	56.290	12.418705	-57.475690	56.230	-0.090	0.250	0.550	56.290	-1.500	0.800																			1579997849.0	0.23	0.43
26/01/2020 00:17:30	26012020	260120	001730	56.210	12.418703	-57.475692	56.100	-0.350	0.660	0.780	56.180	-0.900	1.000																			1579997850.0	0.51	0.94
26/01/2020 00:17:31	26012020	260120	001731	56.090	12.418700	-57.475695	56.050	-0.330	0.310	0.890	56.070	-0.800	1.200																			1579997851.0	0.78	1.44
26/01/2020 00:17:32	26012020	260120	001732	56.080	12.418698	-57.475695	56.080	-0.060	-0.400	0.850	56.090	-1.400	1.300																			1579997852.0	0.30	0.56
26/01/2020 00:17:33	26012020	260120	001733	56.100	12.418700	-57.475692	56.070	0.180	-0.720	0.820	56.100	-2.000	1.200																			1579997853.0	0.56	1.04
26/01/2020 00:17:34	26012020	260120	001734	56.060	12.418702	-57.475690	56.020	0.180	-0.480	0.810	56.050	-2.000	1.200																			1579997854.0	0.54	1.00
26/01/2020 00:17:35	26012020	260120	001735	56.000	12.418702	-57.475690	56.020	0.020	-0.120	0.740	56.000	-1.700	1.200																			1579997855.0	0.05	0.09
26/01/2020 00:17:36	26012020	260120	001736	56.050	12.418700	-57.475692	56.140	-0.070	0.050	0.550	56.080	-1.400	1.000																			1579997856.0	0.37	0.69
26/01/2020 00:17:37	26012020	260120	001737	56.200	12.418700	-57.475693	56.270	-0.000	0.070	0.370	56.230	-1.300	0.800																			1579997857.0	0.27	0.50
26/01/2020 00:17:38	26012020	260120	001738	56.300	12.418702	-57.475693	56.310	0.120	0.080	0.330	56.320	-1.300	0.700																			1579997858.0	0.13	0.24
26/01/2020 00:17:39	26012020	260120	001739	56.320	12.418702	-57.475693	56.260	0.120	0.080	0.480	56.310	-1.300	0.800																			1579997859.0	0.09	0.17
26/01/2020 00:17:40	26012020	260120	001740	56.260	12.418702	-57.475693	56.230	-0.060	0.110	0.680	56.250	-1.300	1.000																			1579997860.0	0.06	0.11
26/01/2020 00:17:41	26012020	260120	001741	56.250	12.418702	-57.475693	56.270	-0.290	0.110	0.820	56.260	-1.300	1.100																			1579997861.0	0.15	0.28
26/01/2020 00:17:42	26012020	260120	001742	56.310	12.418700	-57.475693	56.320	-0.370	-0.100	0.950	56.320	-1.300	1.300																			1579997862.0	0.30	0.56
26/01/2020 00:17:43	26012020	260120	001743	56.330	12.418698	-57.475692	56.260	-0.180	-0.470	1.150	56.310	-1.700	1.400																			1579997863.0	0.35	0.65
26/01/2020 00:17:44	26012020	260120	001744	56.210	12.418697	-57.475690	56.090	0.150	-0.710	1.340	56.170	-2.000	1.600																			1579997864.0	0.44	0.81
26/01/2020 00:17:45	26012020	260120	001745	56.040	12.418697	-57.475688	56.010	0.410	-0.600	1.340	56.020	-2.100	1.800																			1579997865.0	0.49	0.91
26/01/2020 00:17:46	26012020	260120	001746	56.020	12.418697	-57.475688	56.100	0.450	-0.230	1.080	56.040	-1.800	1.600																			1579997866.0	0.21	0.39
26/01/2020 00:17:47	26012020	260120	001747	56.200	12.418697	-57.475688	56.320	0.310	0.150	0.640	56.240	-1.400	1.200																			1579997867.0	0.25	0.46
26/01/2020 00:17:48	26012020	260120	001748	56.420	12.418698	-57.475690	56.420	0.110	0.440	0.270	56.440	-1.100	0.800																			1579997868.0	0.51	0.94
26/01/2020 00:17:49	26012020	260120	001749	56.450	12.418700	-57.475693	56.330	-0.060	0.550	0.150	56.440	-0.900	0.600																			1579997869.0	0.52	0.96
26/01/2020 00:17:50	26012020	260120	001750	56.350	12.418700	-57.475693	56.200	-0.160	0.340	0.170	56.320	-0.900	0.500																			1579997870.0	0.33	0.61
26/01/2020 00:17:51	26012020	260120	001751	56.230	12.418700	-57.475695	56.200	-0.190	-0.140	0.230	56.230	-1.300	0.600																			1579997871.0	0.11	0.20
26/01/2020 00:17:52	26012020	260120	001752	56.260	12.418702	-57.475693	56.270	-0.160	-0.540	0.410	56.280	-1.800	0.700																			1579997872.0	0.24	0.44
26/01/2020 00:17:53	26012020	260120	001753	56.300	12.418702	-57.475693	56.240	-0.120	-0.590	0.820	56.290	-2.000	1.000																			1579997873.0	0.34	0.63
26/01/2020 00:17:54	26012020	260120	001754	56.220	12.418702	-57.475692	56.160	-0.130	-0.380	1.220	56.200	-1.900	1.400																			1579997874.0	0.36	0.67
26/01/2020 00:17:55	26012020	260120	001755	56.140	12.418698	-57.475690	56.150	-0.170	-0.160	1.410	56.140	-1.600	1.700																			1579997875.0	0.70	1.30
26/01/2020 00:17:56	26012020	260120	001756	56.170	12.418695	-57.475690	56.260	-0.170	-0.080	1.350	56.200	-1.500	1.800																			1579997876.0	0.71	1.31
26/01/2020 00:17:57	26012020	260120	001757	56.320	12.418693	-57.475688	56.400	-0.080	-0.060	1.200	56.350	-1.500	1.700																			1579997877.0	0.40	0.74
26/01/2020 00:17:58	26012020	260120	001758	56.440	12.418693	-57.475688	56.400	0.040	0.100	1.050	56.440	-1.400	1.500																			1579997878.0	0.13	0.24
26/01/2020 00:17:59	26012020	260120	001759	56.390	12.418693	-57.475688	56.240	0.120	0.330	0.860	56.360	-1.200	1.400	1014.90	25.80	25.80	20.80	21.00	-1.00	74.00	74.00	407.00	25.10	331.00	5.50	27.00	5.40	15	3626.00	27.50	27.40	1579997879.0	0.09	0.17
26/01/2020 00:18:00	26012020	260120	001800	56.210	12.418693	-57.475690	56.060	0.220	0.280	0.530	56.170	-1.000	1.100																			1579997880.0	0.28	0.52
26/01/2020 00:18:01	26012020	260120	001801	56.060	12.418695	-57.475692	55.990	0.360	-0.170	0.010	56.040	-1.300	0.700																			1579997881.0	0.42	0.78
26/01/2020 00:18:02	26012020	260120	001802	56.050	12.418697	-57.475692	56.050	0.480	-0.680	-0.490	56.070	-1.800	0.100																			1579997882.0	0.67	1.24
26/01/2020 00:18:03	26012020	260120	001803	56.150	12.418702	-57.475693	56.140	0.460	-0.810	-0.620	56.160	-2.200	-0.200																			1579997883.0	1.04	1.93
26/01/2020 00:18:04	26012020	260120	001804	56.210	12.418707	-57.475693	56.200	0.250	-0.450	-0.310	56.220	-2.100	-0.100																			1579997884.0	0.92	1.70
26/01/2020 00:18:05	26012020	260120	001805	56.250	12.418708	-57.475693	56.220	-0.080	0.120	0.260	56.260	-1.500	0.300																			1579997885.0	0.28	0.52
26/01/2020 00:18:06	26012020	260120	001806	56.240	12.418705	-57.475695	56.210	-0.430	0.550	0.960	56.240	-1.000	1.000																			1579997886.0	0.51	0.94
26/01/2020 00:18:07	26012020	260120	001807	56.210	12.418700	-57.475693	56.220	-0.710	0.650	1.660	56.210	-0.700	1.700																			1579997887.0	1.06	1.96
26/01/2020 00:18:08	26012020	260120	001808	56.240	12.418695	-57.475690	56.310	-0.800	0.440	2.200	56.250	-0.800	2.300																			1579997888.0	1.30	2.41
26/01/2020 00:18:09	26012020	260120	001809	56.320	12.418690	-57.475688	56.360	-0.610	-0.010	2.430	56.330	-1.100	2.700																			1579997889.0	1.22	2.26
26/01/2020 00:18:10	26012020	260120	001810	56.350	12.418687	-57.475685	56.330	-0.140	-0.550	2.270	56.340	-1.700	2.800																			1579997890.0	0.85	1.57
26/01/2020 00:18:11	26012020	260120	001811	56.300	12.418687	-57.475683	56.250	0.420	-0.940	1.740	56.290	-2.200	2.400																			1579997891.0	0.39	0.72
26/01/2020 00:18:12	26012020	260120	001812	56.260	12.418688	-57.475683	56.200	0.750	-0.900	0.960	56.240	-2.400	1.800																			1579997892.0	0.53	0.98
26/01/2020 00:18:13	26012020	260120	001813	56.220	12.418693	-57.475683	56.110	0.670	-0.330	0.170	56.200	-2.000	0.900																			1579997893.0	0.90	1.67
26/01/2020 00:18:14	26012020	260120	001814	56.140	12.418697	-57.475688	55.950	0.290	0.420	-0.330	56.110	-1.300	0.300																			1579997894.0	1.17	2.17
26/01/2020 00:18:15	26012020	260120	001815	55.960	12.418700	-57.475693	55.880	-0.030	0.670	-0.630	55.940	-0.700	-0.100																			1579997895.0	1.25	2.31
26/01/2020 00:18:16	26012020	260120	001816	55.950	12.418702	-57.475697	56.010	-0.090	0.190	-0.860	55.960	-0.900	-0.400																			1579997896.0	0.94	1.74
26/01/2020 00:18:17	26012020	260120	001817	56.150	12.418705	-57.475698	56.200	0.010	-0.440	-0.810	56.180	-1.500	-0.500																			1579997897.0	0.60	1.11
26/01/2020 00:18:18	26012020	260120	001818	56.300	12.418707	-57.475695	56.300	0.020	-0.540	-0.310	56.320	-2.000	-0.200																			1579997898.0	0.78	1.44
26/01/2020 00:18:19	26012020	260120	001819	56.330	12.418707	-57.475692	56.280	-0.170	-0.120	0.560	56.330	-1.800	0.500																			1579997899.0	0.65	1.20
26/01/2020 00:18:20	26012020	260120	001820	56.250	12.418702	-57.475690	56.130	-0.380	0.310	1.520	56.220	-1.200	1.400																			1579997900.0	1.08	2.00
26/01/2020 00:18:21	26012020	260120	001821	56.080	12.418695	-57.475688	55.960	-0.400	0.320	2.240	56.040	-1.000	2.300																			1579997901.0	1.44	2.67
26/01/2020 00:18:22	26012020	260120	001822	55.900	12.418690	-57.475687	55.840	-0.170	-0.050	2.530	55.870	-1.200	2.800																			1579997902.0	1.19	2.20
26/01/2020 00:18:23	26012020	260120	001823	55.820	12.418688	-57.475685	55.870	0.110	-0.420	2.300	55.830	-1.600	2.900																			1579997903.0	0.67	1.24
26/01/2020 00:18:24	26012020	260120	001824	55.900	12.418688	-57.475683	55.980	0.240	-0.440	1.680	55.930	-1.900	2.400																			1579997904.0	0.40	0.74
26/01/2020 00:18:25	26012020	260120	001825	56.020	12.418692	-57.475683	56.010	0.170	-0.120	0.950	56.040	-1.700	1.700																			1579997905.0	0.56	1.04
26/01/2020 00:18:26	26012020	260120	001826	56.040	12.418693	-57.475687	55.930	0.050	0.110	0.310	56.040	-1.400	1.000																			1579997906.0	0.91	1.69
26/01/2020 00:18:27	26012020	260120	001827	55.950	12.418697	-57.475692	55.830	0.070	-0.080	-0.220	55.930	-1.300	0.400																			1579997907.0	1.03	1.91
26/01/2020 00:18:28	26012020	260120	001828	55.880	12.418700	-57.475695	55.770	0.220	-0.440	-0.520	55.870	-1.600	-0.000																			1579997908.0	0.85	1.57
26/01/2020 00:18:29	26012020	260120	001829	55.810	12.418702	-57.475693	55.700	0.260	-0.470	-0.500	55.790	-1.900	-0.200																			1579997909.0	0.68	1.26
26/01/2020 00:18:30	26012020	260120	001830	55.710	12.418703	-57.475693	55.610	0.030	-0.060	-0.210	55.690	-1.700	0.000																			1579997910.0	0.38	0.70
26/01/2020 00:18:31	26012020	260120	001831	55.610	12.418703	-57.475693	55.560	-0.310	0.390	0.190	55.600	-1.200	0.400																			1579997911.0	0.27	0.50
26/01/2020 00:18:32	26012020	260120	001832	55.570	12.418700	-57.475695	55.580	-0.430	0.480	0.620	55.570	-0.900	0.800																			1579997912.0	0.62	1.15
26/01/2020 00:18:33	26012020	260120	001833	55.600	12.418698	-57.475695	55.610	-0.220	0.170	1.130	55.610	-1.000	1.200																			1579997913.0	0.51	0.94
26/01/2020 00:18:34	26012020	260120	001834	55.600	12.418695	-57.475693	55.560	0.110	-0.300	1.720	55.590	-1.400	1.800																			1579997914.0	0.54	1.00
26/01/2020 00:18:35	26012020	260120	001835	55.500	12.418693	-57.475690	55.400	0.250	-0.540	2.170	55.470	-1.800	2.400																			1579997915.0	0.88	1.63
26/01/2020 00:18:36	26012020	260120	001836	55.320	12.418692	-57.475687	55.190	0.140	-0.410	2.290	55.270	-1.900	2.700																			1579997916.0	0.83	1.54
26/01/2020 00:18:37	26012020	260120	001837	55.120	12.418690	-57.475687	55.010	-0.020	-0.140	1.980	55.090	-1.600	2.600																			1579997917.0	0.39	0.72
26/01/2020 00:18:38	26012020	260120	001838	54.980	12.418690	-57.475688	54.890	-0.070	0.050	1.450	54.960	-1.400	2.100																			1579997918.0	0.40	0.74
26/01/2020 00:18:39	26012020	260120	001839	54.860	12.418692	-57.475692	54.760	-0.010	0.130	0.880	54.830	-1.300	1.600																			1579997919.0	0.83	1.54
26/01/2020 00:18:40	26012020	260120	001840	54.770	12.418695	-57.475695	54.720	0.090	0.010	0.250	54.760	-1.300	1.000																			1579997920.0	0.97	1.80
26/01/2020 00:18:41	26012020	260120	001841	54.780	12.418698	-57.475697	54.770	0.130	-0.270	-0.360	54.790	-1.500	0.300																			1579997921.0	0.89	1.65
26/01/2020 00:18:42	26012020	260120	001842	54.820	12.418702	-57.475698	54.740	0.070	-0.410	-0.700	54.820	-1.700	-0.200																			1579997922.0	0.77	1.43
26/01/2020 00:18:43	26012020	260120	001843	54.720	12.418705	-57.475698	54.540	-0.070	-0.250	-0.550	54.680	-1.700	-0.300																			1579997923.0	0.55	1.02
26/01/2020 00:18:44	26012020	260120	001844	54.480	12.418705	-57.475698	54.340	-0.180	0.070	-0.090	54.440	-1.500	0.000																			1579997924.0	0.10	0.19
26/01/2020 00:18:45	26012020	260120	001845	54.340	12.418703	-57.475698	54.370	-0.180	0.210	0.310	54.340	-1.200	0.500																			1579997925.0	0.37	0.69
26/01/2020 00:18:46	26012020	260120	001846	54.460	12.418702	-57.475698	54.590	-0.080	0.110	0.520	54.510	-1.200	0.800																			1579997926.0	0.43	0.80
26/01/2020 00:18:47	26012020	260120	001847	54.680	12.418700	-57.475697	54.750	0.040	-0.050	0.750	54.720	-1.400	1.000																			1579997927.0	0.20	0.37
26/01/2020 00:18:48	26012020	260120	001848	54.780	12.418700	-57.475697	54.760	0.090	-0.100	1.130	54.780	-1.500	1.300																			1579997928.0	0.20	0.37
26/01/2020 00:18:49	26012020	260120	001849	54.730	12.418700	-57.475695	54.690	0.070	-0.120	1.500	54.720	-1.500	1.700																			1579997929.0	0.28	0.52
26/01/2020 00:18:50	26012020	260120	001850	54.670	12.418698	-57.475695	54.650	0.020	-0.230	1.680	54.660	-1.500	2.000																			1579997930.0	0.43	0.80
26/01/2020 00:18:51	26012020	260120	001851	54.670	12.418697	-57.475693	54.690	-0.050	-0.340	1.630	54.680	-1.700	2.100																			1579997931.0	0.31	0.57
26/01/2020 00:18:52	26012020	260120	001852	54.720	12.418697	-57.475693	54.780	-0.100	-0.310	1.390	54.740	-1.700	1.900																			1579997932.0	0.11	0.20
26/01/2020 00:18:53	26012020	260120	001853	54.860	12.418698	-57.475693	54.900	-0.130	-0.130	0.980	54.880	-1.600	1.600																			1579997933.0	0.18	0.33
26/01/2020 00:18:54	26012020	260120	001854	54.970	12.418698	-57.475695	55.060	-0.130	0.090	0.500	55.000	-1.400	1.100																			1579997934.0	0.33	0.61
26/01/2020 00:18:55	26012020	260120	001855	55.150	12.418700	-57.475697	55.160	-0.090	0.190	0.060	55.170	-1.200	0.700																			1579997935.0	0.47	0.87
26/01/2020 00:18:56	26012020	260120	001856	55.230	12.418702	-57.475698	55.190	0.030	0.010	-0.200	55.230	-1.200	0.300																			1579997936.0	0.54	1.00
26/01/2020 00:18:57	26012020	260120	001857	55.230	12.418703	-57.475700	55.200	0.200	-0.330	-0.210	55.230	-1.500	0.200																			1579997937.0	0.50	0.93
26/01/2020 00:18:58	26012020	260120	001858	55.270	12.418705	-57.475700	55.310	0.280	-0.450	-0.100	55.290	-1.800	0.200																			1579997938.0	0.45	0.83
26/01/2020 00:18:59	26012020	260120	001859	55.400	12.418707	-57.475698	55.480	0.180	-0.180	0.170	55.430	-1.700	0.400	1014.90	25.80	25.90	20.80	20.90	-1.00	73.00	74.00	406.00	25.10	333.00	5.00	27.00	4.80	15	3478.00	27.50	27.40	1579997939.0	0.36	0.67
26/01/2020 00:19:00	26012020	260120	001900	55.510	12.418707	-57.475698	55.530	-0.030	0.180	0.650	55.520	-1.300	0.800																			1579997940.0	0.06	0.11
26/01/2020 00:19:01	26012020	260120	001901	55.500	12.418703	-57.475698	55.490	-0.150	0.200	1.190	55.490	-1.100	1.300																			1579997941.0	0.50	0.93
26/01/2020 00:19:02	26012020	260120	001902	55.480	12.418702	-57.475698	55.540	-0.110	-0.100	1.540	55.490	-1.300	1.800																			1579997942.0	0.62	1.15
26/01/2020 00:19:03	26012020	260120	001903	55.570	12.418700	-57.475695	55.640	0.000	-0.320	1.650	55.600	-1.600	2.000																			1579997943.0	0.61	1.13
26/01/2020 00:19:04	26012020	260120	001904	55.680	12.418698	-57.475693	55.680	0.070	-0.250	1.650	55.680	-1.700	2.000																			1579997944.0	0.50	0.93
26/01/2020 00:19:05	26012020	260120	001905	55.680	12.418698	-57.475692	55.610	0.050	-0.010	1.610	55.670	-1.500	2.000																			1579997945.0	0.16	0.30
26/01/2020 00:19:06	26012020	260120	001906	55.600	12.418698	-57.475693	55.510	-0.030	0.180	1.500	55.580	-1.300	1.900																			1579997946.0	0.13	0.24
26/01/2020 00:19:07	26012020	260120	001907	55.500	12.418698	-57.475695	55.400	-0.130	0.140	1.170	55.490	-1.200	1.800																			1579997947.0	0.22	0.41
26/01/2020 00:19:08	26012020	260120	001908	55.420	12.418700	-57.475695	55.320	-0.210	-0.130	0.640	55.410	-1.400	1.300																			1579997948.0	0.25	0.46
26/01/2020 00:19:09	26012020	260120	001909	55.350	12.418702	-57.475695	55.270	-0.200	-0.390	0.120	55.340	-1.700	0.800																			1579997949.0	0.52	0.96
26/01/2020 00:19:10	26012020	260120	001910	55.320	12.418705	-57.475697	55.250	-0.090	-0.420	-0.190	55.320	-1.800	0.300																			1579997950.0	0.71	1.31
26/01/2020 00:19:11	26012020	260120	001911	55.300	12.418708	-57.475697	55.210	0.090	-0.200	-0.240	55.290	-1.700	0.100																			1579997951.0	0.59	1.09
26/01/2020 00:19:12	26012020	260120	001912	55.230	12.418708	-57.475698	55.110	0.230	0.010	-0.100	55.210	-1.500	0.200																			1579997952.0	0.29	0.54
26/01/2020 00:19:13	26012020	260120	001913	55.110	12.418708	-57.475698	54.990	0.240	-0.010	0.090	55.080	-1.300	0.400																			1579997953.0	0.10	0.19
26/01/2020 00:19:14	26012020	260120	001914	55.000	12.418708	-57.475698	54.950	0.110	-0.170	0.270	54.990	-1.500	0.600																			1579997954.0	0.13	0.24
26/01/2020 00:19:15	26012020	260120	001915	54.990	12.418710	-57.475697	55.000	-0.060	-0.170	0.540	55.000	-1.600	0.800																			1579997955.0	0.31	0.57
26/01/2020 00:19:16	26012020	260120	001916	55.050	12.418710	-57.475695	55.060	-0.140	0.090	0.960	55.060	-1.400	1.100																			1579997956.0	0.27	0.50
26/01/2020 00:19:17	26012020	260120	001917	55.090	12.418708	-57.475695	55.050	-0.080	0.260	1.380	55.090	-1.200	1.600																			1579997957.0	0.32	0.59
26/01/2020 00:19:18	26012020	260120	001918	55.070	12.418705	-57.475693	54.980	0.030	0.100	1.620	55.060	-1.200	1.900																			1579997958.0	0.61	1.13
26/01/2020 00:19:19	26012020	260120	001919	54.980	12.418703	-57.475692	54.890	0.090	-0.260	1.660	54.960	-1.500	2.000																			1579997959.0	0.56	1.04
26/01/2020 00:19:20	26012020	260120	001920	54.890	12.418703	-57.475690	54.800	0.060	-0.450	1.530	54.880	-1.800	2.000																			1579997960.0	0.43	0.80
26/01/2020 00:19:21	26012020	260120	001921	54.820	12.418705	-57.475688	54.740	0.010	-0.370	1.230	54.810	-1.800	1.800																			1579997961.0	0.35	0.65
26/01/2020 00:19:22	26012020	260120	001922	54.770	12.418707	-57.475690	54.710	0.020	-0.180	0.770	54.760	-1.700	1.400																			1579997962.0	0.37	0.69
26/01/2020 00:19:23	26012020	260120	001923	54.780	12.418708	-57.475692	54.770	0.060	-0.080	0.230	54.790	-1.500	0.900																			1579997963.0	0.55	1.02
26/01/2020 00:19:24	26012020	260120	001924	54.890	12.418710	-57.475693	54.910	0.020	-0.060	-0.230	54.920	-1.400	0.400																			1579997964.0	0.61	1.13
26/01/2020 00:19:25	26012020	260120	001925	55.030	12.418713	-57.475695	55.010	-0.100	0.040	-0.450	55.050	-1.400	0.000																			1579997965.0	0.54	1.00
26/01/2020 00:19:26	26012020	260120	001926	55.070	12.418713	-57.475695	55.000	-0.260	0.260	-0.320	55.070	-1.200	-0.000																			1579997966.0	0.33	0.61
26/01/2020 00:19:27	26012020	260120	001927	55.020	12.418713	-57.475695	54.930	-0.320	0.290	0.010	55.000	-1.100	0.200																			1579997967.0	0.15	0.28
26/01/2020 00:19:28	26012020	260120	001928	54.960	12.418712	-57.475695	54.940	-0.200	-0.060	0.360	54.960	-1.200	0.600																			1579997968.0	0.44	0.81
26/01/2020 00:19:29	26012020	260120	001929	54.960	12.418710	-57.475693	54.980	0.060	-0.570	0.690	54.970	-1.700	0.900																			1579997969.0	0.47	0.87
26/01/2020 00:19:30	26012020	260120	001930	55.000	12.418710	-57.475692	55.030	0.310	-0.760	1.040	55.010	-2.100	1.200																			1579997970.0	0.57	1.06
26/01/2020 00:19:31	26012020	260120	001931	55.030	12.418708	-57.475688	55.000	0.370	-0.440	1.430	55.020	-2.000	1.600																			1579997971.0	0.54	1.00
26/01/2020 00:19:32	26012020	260120	001932	54.960	12.418707	-57.475687	54.900	0.210	0.100	1.670	54.940	-1.500	2.000																			1579997972.0	0.40	0.74
26/01/2020 00:19:33	26012020	260120	001933	54.860	12.418705	-57.475688	54.830	-0.010	0.430	1.600	54.850	-1.100	2.100																			1579997973.0	0.48	0.89
26/01/2020 00:19:34	26012020	260120	001934	54.850	12.418705	-57.475690	54.890	-0.130	0.340	1.230	54.870	-0.900	1.800																			1579997974.0	0.42	0.78
26/01/2020 00:19:35	26012020	260120	001935	54.980	12.418705	-57.475692	55.070	-0.130	-0.020	0.750	55.020	-1.200	1.400																			1579997975.0	0.36	0.67
26/01/2020 00:19:36	26012020	260120	001936	55.160	12.418708	-57.475692	55.180	-0.090	-0.300	0.380	55.190	-1.600	0.900																			1579997976.0	0.55	1.02
26/01/2020 00:19:37	26012020	260120	001937	55.250	12.418710	-57.475692	55.180	-0.080	-0.340	0.220	55.250	-1.700	0.700																			1579997977.0	0.51	0.94
26/01/2020 00:19:38	26012020	260120	001938	55.210	12.418712	-57.475692	55.080	-0.090	-0.230	0.290	55.190	-1.700	0.600																			1579997978.0	0.18	0.33
26/01/2020 00:19:39	26012020	260120	001939	55.050	12.418710	-57.475692	54.900	-0.060	-0.150	0.490	55.010	-1.600	0.800																			1579997979.0	0.20	0.37
26/01/2020 00:19:40	26012020	260120	001940	54.870	12.418708	-57.475692	54.780	0.020	-0.190	0.560	54.840	-1.500	0.900																			1579997980.0	0.39	0.72
26/01/2020 00:19:41	26012020	260120	001941	54.800	12.418707	-57.475690	54.810	0.130	-0.190	0.510	54.810	-1.600	0.900																			1579997981.0	0.27	0.50
26/01/2020 00:19:42	26012020	260120	001942	54.840	12.418708	-57.475690	54.900	0.190	-0.010	0.500	54.860	-1.500	0.900																			1579997982.0	0.15	0.28
26/01/2020 00:19:43	26012020	260120	001943	54.940	12.418708	-57.475690	54.970	0.170	0.150	0.570	54.960	-1.300	0.900																			1579997983.0	0.23	0.43
26/01/2020 00:19:44	26012020	260120	001944	55.010	12.418708	-57.475692	55.020	0.060	0.070	0.660	55.030	-1.200	1.000																			1579997984.0	0.21	0.39
26/01/2020 00:19:45	26012020	260120	001945	55.050	12.418708	-57.475692	54.980	-0.110	-0.090	0.820	55.040	-1.400	1.100																			1579997985.0	0.09	0.17
26/01/2020 00:19:46	26012020	260120	001946	54.960	12.418708	-57.475690	54.820	-0.280	-0.010	1.120	54.930	-1.500	1.300																			1579997986.0	0.21	0.39
26/01/2020 00:19:47	26012020	260120	001947	54.770	12.418707	-57.475690	54.650	-0.340	0.150	1.420	54.740	-1.300	1.700																			1579997987.0	0.20	0.37
26/01/2020 00:19:48	26012020	260120	001948	54.630	12.418705	-57.475690	54.590	-0.190	-0.050	1.450	54.620	-1.300	1.900																			1579997988.0	0.45	0.83
26/01/2020 00:19:49	26012020	260120	001949	54.620	12.418703	-57.475690	54.650	0.110	-0.580	1.230	54.630	-1.700	1.700																			1579997989.0	0.25	0.46
26/01/2020 00:19:50	26012020	260120	001950	54.720	12.418705	-57.475690	54.770	0.340	-0.880	0.930	54.750	-2.200	1.500																			1579997990.0	0.36	0.67
26/01/2020 00:19:51	26012020	260120	001951	54.840	12.418707	-57.475688	54.810	0.310	-0.540	0.670	54.850	-2.200	1.200																			1579997991.0	0.58	1.07
26/01/2020 00:19:52	26012020	260120	001952	54.840	12.418708	-57.475688	54.740	0.040	0.210	0.460	54.830	-1.500	0.900																			1579997992.0	0.22	0.41
26/01/2020 00:19:53	26012020	260120	001953	54.740	12.418708	-57.475690	54.620	-0.220	0.720	0.320	54.710	-0.900	0.800																			1579997993.0	0.54	1.00
26/01/2020 00:19:54	26012020	260120	001954	54.620	12.418707	-57.475693	54.540	-0.250	0.630	0.190	54.610	-0.600	0.600																			1579997994.0	0.71	1.31
26/01/2020 00:19:55	26012020	260120	001955	54.590	12.418707	-57.475695	54.590	-0.010	0.010	0.030	54.600	-1.000	0.500																			1579997995.0	0.31	0.57
26/01/2020 00:19:56	26012020	260120	001956	54.700	12.418708	-57.475695	54.780	0.300	-0.650	-0.090	54.730	-1.700	0.400																			1579997996.0	0.33	0.61
26/01/2020 00:19:57	26012020	260120	001957	54.880	12.418710	-57.475693	54.890	0.430	-0.870	-0.020	54.900	-2.200	0.300																			1579997997.0	0.66	1.22
26/01/2020 00:19:58	26012020	260120	001958	54.950	12.418712	-57.475692	54.860	0.310	-0.500	0.340	54.950	-2.100	0.500																			1579997998.0	0.47	0.87
26/01/2020 00:19:59	26012020	260120	001959	54.860	12.418712	-57.475692	54.700	0.010	0.160	0.950	54.830	-1.600	1.000	1014.90	25.80	25.90	20.90	21.00	-1.00	74.00	74.00	405.00	25.10	334.00	5.40	28.00	5.30	15	3528.00	27.50	27.40	1579997999.0	0.15	0.28
26/01/2020 00:20:00	26012020	260120	002000	54.670	12.418708	-57.475693	54.510	-0.290	0.550	1.610	54.620	-1.000	1.700																			1579998000.0	0.78	1.44
26/01/2020 00:20:01	26012020	260120	002001	54.500	12.418703	-57.475693	54.500	-0.450	0.350	1.970	54.500	-0.900	2.200																			1579998001.0	0.98	1.81
26/01/2020 00:20:02	26012020	260120	002002	54.600	12.418702	-57.475692	54.770	-0.380	-0.210	1.890	54.650	-1.300	2.400																			1579998002.0	0.60	1.11
26/01/2020 00:20:03	26012020	260120	002003	54.920	12.418702	-57.475690	55.070	-0.170	-0.540	1.600	54.990	-1.800	2.100																			1579998003.0	0.38	0.70
26/01/2020 00:20:04	26012020	260120	002004	55.160	12.418703	-57.475688	55.120	0.010	-0.350	1.340	55.170	-1.900	1.800																			1579998004.0	0.44	0.81
26/01/2020 00:20:05	26012020	260120	002005	55.140	12.418703	-57.475688	54.970	0.040	0.100	1.110	55.110	-1.500	1.600																			1579998005.0	0.05	0.09
26/01/2020 00:20:06	26012020	260120	002006	55.000	12.418702	-57.475690	54.810	0.010	0.320	0.840	54.960	-1.100	1.400																			1579998006.0	0.49	0.91
26/01/2020 00:20:07	26012020	260120	002007	54.850	12.418700	-57.475693	54.790	0.060	0.060	0.420	54.850	-1.200	1.000																			1579998007.0	0.56	1.04
26/01/2020 00:20:08	26012020	260120	002008	54.880	12.418702	-57.475695	54.900	0.200	-0.350	-0.060	54.900	-1.500	0.600																			1579998008.0	0.56	1.04
26/01/2020 00:20:09	26012020	260120	002009	55.000	12.418707	-57.475697	54.960	0.340	-0.550	-0.390	55.010	-1.900	0.100																			1579998009.0	0.87	1.61
26/01/2020 00:20:10	26012020	260120	002010	55.050	12.418710	-57.475697	54.970	0.360	-0.460	-0.400	55.050	-1.900	-0.000																			1579998010.0	0.83	1.54
26/01/2020 00:20:11	26012020	260120	002011	55.030	12.418712	-57.475698	54.960	0.280	-0.340	-0.070	55.030	-1.800	0.100																			1579998011.0	0.47	0.87
26/01/2020 00:20:12	26012020	260120	002012	55.010	12.418712	-57.475698	54.980	0.170	-0.230	0.470	55.010	-1.700	0.600																			1579998012.0	0.07	0.13
26/01/2020 00:20:13	26012020	260120	002013	55.030	12.418710	-57.475698	55.050	0.020	-0.000	1.090	55.040	-1.500	1.200																			1579998013.0	0.38	0.70
26/01/2020 00:20:14	26012020	260120	002014	55.110	12.418708	-57.475695	55.120	-0.190	0.360	1.680	55.120	-1.200	1.800																			1579998014.0	0.70	1.30
26/01/2020 00:20:15	26012020	260120	002015	55.170	12.418705	-57.475693	55.150	-0.410	0.640	2.130	55.180	-0.900	2.300																			1579998015.0	0.89	1.65
26/01/2020 00:20:16	26012020	260120	002016	55.200	12.418700	-57.475693	55.130	-0.580	0.570	2.250	55.190	-0.700	2.600																			1579998016.0	0.93	1.72
26/01/2020 00:20:17	26012020	260120	002017	55.160	12.418697	-57.475693	55.070	-0.590	0.190	1.970	55.150	-1.000	2.500																			1579998017.0	0.58	1.07
26/01/2020 00:20:18	26012020	260120	002018	55.120	12.418698	-57.475693	55.040	-0.360	-0.370	1.350	55.110	-1.500	2.100																			1579998018.0	0.11	0.20
26/01/2020 00:20:19	26012020	260120	002019	55.150	12.418700	-57.475695	55.130	0.070	-0.790	0.630	55.160	-2.000	1.400																			1579998019.0	0.71	1.31
26/01/2020 00:20:20	26012020	260120	002020	55.230	12.418705	-57.475697	55.260	0.500	-0.930	-0.030	55.260	-2.300	0.700																			1579998020.0	0.89	1.65
26/01/2020 00:20:21	26012020	260120	002021	55.380	12.418708	-57.475698	55.340	0.670	-0.770	-0.520	55.390	-2.300	0.100																			1579998021.0	0.78	1.44
26/01/2020 00:20:22	26012020	260120	002022	55.430	12.418710	-57.475700	55.370	0.500	-0.350	-0.770	55.440	-2.000	-0.300																			1579998022.0	0.66	1.22
26/01/2020 00:20:23	26012020	260120	002023	55.430	12.418712	-57.475702	55.330	0.160	0.200	-0.680	55.420	-1.500	-0.400																			1579998023.0	0.61	1.13
26/01/2020 00:20:24	26012020	260120	002024	55.390	12.418713	-57.475703	55.330	-0.080	0.550	-0.290	55.390	-1.000	-0.100																			1579998024.0	0.49	0.91
26/01/2020 00:20:25	26012020	260120	002025	55.420	12.418712	-57.475705	55.430	-0.140	0.430	0.230	55.430	-0.800	0.400																			1579998025.0	0.35	0.65
26/01/2020 00:20:26	26012020	260120	002026	55.550	12.418710	-57.475703	55.620	-0.130	0.020	0.770	55.590	-1.200	0.900																			1579998026.0	0.55	1.02
26/01/2020 00:20:27	26012020	260120	002027	55.710	12.418708	-57.475700	55.730	-0.200	-0.170	1.340	55.730	-1.500	1.400																			1579998027.0	0.79	1.46
26/01/2020 00:20:28	26012020	260120	002028	55.770	12.418705	-57.475697	55.730	-0.320	0.000	1.840	55.770	-1.500	2.000																			1579998028.0	0.79	1.46
26/01/2020 00:20:29	26012020	260120	002029	55.740	12.418702	-57.475697	55.700	-0.330	0.170	2.120	55.730	-1.300	2.400																			1579998029.0	0.71	1.31
26/01/2020 00:20:30	26012020	260120	002030	55.710	12.418700	-57.475697	55.710	-0.080	-0.090	2.030	55.710	-1.300	2.500																			1579998030.0	0.68	1.26
26/01/2020 00:20:31	26012020	260120	002031	55.760	12.418698	-57.475697	55.810	0.300	-0.660	1.620	55.780	-1.800	2.200																			1579998031.0	0.25	0.46
26/01/2020 00:20:32	26012020	260120	002032	55.900	12.418700	-57.475697	55.930	0.500	-0.970	1.040	55.930	-2.300	1.700																			1579998032.0	0.43	0.80
26/01/2020 00:20:33	26012020	260120	002033	55.980	12.418703	-57.475697	55.880	0.370	-0.580	0.440	55.980	-2.300	1.100																			1579998033.0	0.79	1.46
26/01/2020 00:20:34	26012020	260120	002034	55.930	12.418707	-57.475698	55.750	0.030	0.250	-0.060	55.910	-1.600	0.600																			1579998034.0	0.81	1.50
26/01/2020 00:20:35	26012020	260120	002035	55.800	12.418708	-57.475702	55.690	-0.280	0.830	-0.380	55.790	-0.800	0.200																			1579998035.0	1.00	1.85
26/01/2020 00:20:36	26012020	260120	002036	55.810	12.418708	-57.475707	55.760	-0.410	0.760	-0.520	55.820	-0.500	-0.100																			1579998036.0	0.97	1.80
26/01/2020 00:20:37	26012020	260120	002037	55.930	12.418708	-57.475708	55.900	-0.320	0.190	-0.440	55.960	-0.900	-0.100																			1579998037.0	0.46	0.85
26/01/2020 00:20:38	26012020	260120	002038	56.050	12.418710	-57.475708	55.970	-0.080	-0.440	-0.160	56.060	-1.500	0.100																			1579998038.0	0.21	0.39
26/01/2020 00:20:39	26012020	260120	002039	56.050	12.418710	-57.475707	55.880	0.190	-0.820	0.370	56.030	-2.100	0.500																			1579998039.0	0.49	0.91
26/01/2020 00:20:40	26012020	260120	002040	55.890	12.418708	-57.475703	55.690	0.310	-0.870	1.120	55.850	-2.300	1.100																			1579998040.0	0.65	1.20
26/01/2020 00:20:41	26012020	260120	002041	55.680	12.418707	-57.475700	55.540	0.240	-0.590	1.760	55.650	-2.100	1.900																			1579998041.0	0.79	1.46
26/01/2020 00:20:42	26012020	260120	002042	55.580	12.418703	-57.475698	55.570	0.080	-0.120	1.970	55.580	-1.700	2.300																			1579998042.0	0.67	1.24
26/01/2020 00:20:43	26012020	260120	002043	55.670	12.418702	-57.475700	55.730	0.010	0.320	1.760	55.700	-1.300	2.300																			1579998043.0	0.34	0.63
26/01/2020 00:20:44	26012020	260120	002044	55.840	12.418702	-57.475700	55.860	0.010	0.550	1.380	55.870	-0.900	2.000																			1579998044.0	0.33	0.61
26/01/2020 00:20:45	26012020	260120	002045	55.950	12.418702	-57.475702	55.880	-0.070	0.520	0.950	55.950	-0.800	1.600																			1579998045.0	0.29	0.54
26/01/2020 00:20:46	26012020	260120	002046	55.950	12.418702	-57.475703	55.820	-0.210	0.270	0.510	55.940	-1.000	1.100																			1579998046.0	0.28	0.52
26/01/2020 00:20:47	26012020	260120	002047	55.900	12.418705	-57.475705	55.750	-0.250	-0.100	0.130	55.880	-1.300	0.700																			1579998047.0	0.50	0.93
26/01/2020 00:20:48	26012020	260120	002048	55.840	12.418707	-57.475707	55.730	-0.100	-0.470	-0.200	55.840	-1.700	0.400																			1579998048.0	0.70	1.30
26/01/2020 00:20:49	26012020	260120	002049	55.870	12.418710	-57.475707	55.780	0.120	-0.630	-0.410	55.880	-2.000	0.100																			1579998049.0	0.67	1.24
26/01/2020 00:20:50	26012020	260120	002050	55.920	12.418712	-57.475708	55.820	0.190	-0.460	-0.420	55.920	-2.000	-0.100																			1579998050.0	0.38	0.70
26/01/2020 00:20:51	26012020	260120	002051	55.920	12.418712	-57.475708	55.830	0.110	-0.180	-0.160	55.920	-1.700	0.100																			1579998051.0	0.21	0.39
26/01/2020 00:20:52	26012020	260120	002052	55.940	12.418712	-57.475710	55.920	0.040	-0.090	0.230	55.960	-1.500	0.400																			1579998052.0	0.34	0.63
26/01/2020 00:20:53	26012020	260120	002053	56.060	12.418710	-57.475710	56.030	0.060	-0.180	0.710	56.090	-1.500	0.900																			1579998053.0	0.23	0.43
26/01/2020 00:20:54	26012020	260120	002054	56.120	12.418708	-57.475708	56.020	0.060	-0.160	1.280	56.120	-1.600	1.400																			1579998054.0	0.41	0.76
26/01/2020 00:20:55	26012020	260120	002055	56.050	12.418707	-57.475707	55.940	-0.030	0.030	1.790	56.030	-1.500	1.900																			1579998055.0	0.71	1.31
26/01/2020 00:20:56	26012020	260120	002056	55.980	12.418703	-57.475705	55.950	-0.170	0.220	2.040	55.970	-1.200	2.300																			1579998056.0	0.81	1.50
26/01/2020 00:20:57	26012020	260120	002057	56.010	12.418700	-57.475703	56.030	-0.230	0.240	1.850	56.040	-1.100	2.400																			1579998057.0	0.68	1.26
26/01/2020 00:20:58	26012020	260120	002058	56.100	12.418700	-57.475703	56.110	-0.130	0.110	1.340	56.120	-1.200	2.000																			1579998058.0	0.24	0.44
26/01/2020 00:20:59	26012020	260120	002059	56.200	12.418702	-57.475705	56.170	0.080	-0.110	0.650	56.210	-1.400	1.400	1014.90	25.80	25.80	20.80	20.80	-1.00	73.00	74.00	404.00	25.10	334.00	5.30	29.00	5.10	15	3596.00	27.40	27.50	1579998059.0	0.43	0.80
26/01/2020 00:21:00	26012020	260120	002100	56.290	12.418705	-57.475707	56.280	0.270	-0.330	-0.090	56.320	-1.600	0.700																			1579998060.0	0.86	1.59
26/01/2020 00:21:01	26012020	260120	002101	56.420	12.418708	-57.475708	56.330	0.320	-0.390	-0.610	56.440	-1.800	0.000																			1579998061.0	1.05	1.94
26/01/2020 00:21:02	26012020	260120	002102	56.440	12.418713	-57.475712	56.270	0.170	-0.240	-0.730	56.430	-1.700	-0.300																			1579998062.0	0.95	1.76
26/01/2020 00:21:03	26012020	260120	002103	56.360	12.418715	-57.475713	56.220	-0.070	-0.070	-0.530	56.340	-1.500	-0.300																			1579998063.0	0.58	1.07
26/01/2020 00:21:04	26012020	260120	002104	56.330	12.418715	-57.475715	56.260	-0.230	-0.070	-0.140	56.340	-1.400	0.000																			1579998064.0	0.25	0.46
26/01/2020 00:21:05	26012020	260120	002105	56.390	12.418713	-57.475713	56.360	-0.210	-0.170	0.390	56.410	-1.500	0.500																			1579998065.0	0.25	0.46
26/01/2020 00:21:06	26012020	260120	002106	56.480	12.418712	-57.475712	56.450	-0.100	-0.140	0.940	56.500	-1.600	1.100																			1579998066.0	0.55	1.02
26/01/2020 00:21:07	26012020	260120	002107	56.550	12.418708	-57.475710	56.540	-0.050	0.010	1.370	56.570	-1.400	1.600																			1579998067.0	0.79	1.46
26/01/2020 00:21:08	26012020	260120	002108	56.610	12.418705	-57.475708	56.600	-0.080	0.110	1.670	56.620	-1.300	1.900																			1579998068.0	0.79	1.46
26/01/2020 00:21:09	26012020	260120	002109	56.640	12.418703	-57.475707	56.610	-0.110	0.050	1.780	56.640	-1.300	2.100																			1579998069.0	0.63	1.17
26/01/2020 00:21:10	26012020	260120	002110	56.650	12.418702	-57.475707	56.630	-0.050	-0.090	1.590	56.660	-1.400	2.100																			1579998070.0	0.34	0.63
26/01/2020 00:21:11	26012020	260120	002111	56.710	12.418702	-57.475707	56.680	0.110	-0.180	1.120	56.720	-1.500	1.800																			1579998071.0	0.11	0.20
26/01/2020 00:21:12	26012020	260120	002112	56.760	12.418703	-57.475707	56.720	0.300	-0.260	0.540	56.770	-1.600	1.200																			1579998072.0	0.45	0.83
26/01/2020 00:21:13	26012020	260120	002113	56.810	12.418707	-57.475708	56.740	0.370	-0.360	0.000	56.820	-1.700	0.700																			1579998073.0	0.68	1.26
26/01/2020 00:21:14	26012020	260120	002114	56.870	12.418710	-57.475710	56.820	0.250	-0.360	-0.400	56.880	-1.800	0.200																			1579998074.0	0.69	1.28
26/01/2020 00:21:15	26012020	260120	002115	56.940	12.418712	-57.475710	56.860	-0.030	-0.140	-0.540	56.950	-1.700	-0.100																			1579998075.0	0.58	1.07
26/01/2020 00:21:16	26012020	260120	002116	56.920	12.418713	-57.475712	56.740	-0.310	0.250	-0.340	56.890	-1.300	-0.100																			1579998076.0	0.37	0.69
26/01/2020 00:21:17	26012020	260120	002117	56.790	12.418713	-57.475712	56.670	-0.400	0.430	-0.000	56.770	-1.000	0.200																			1579998077.0	0.24	0.44
26/01/2020 00:21:18	26012020	260120	002118	56.780	12.418712	-57.475713	56.790	-0.230	0.150	0.230	56.810	-1.000	0.500																			1579998078.0	0.42	0.78
26/01/2020 00:21:19	26012020	260120	002119	56.960	12.418710	-57.475712	56.990	0.050	-0.350	0.460	57.000	-1.500	0.700																			1579998079.0	0.38	0.70
26/01/2020 00:21:20	26012020	260120	002120	57.100	12.418710	-57.475708	57.090	0.180	-0.560	0.820	57.120	-1.900	1.000																			1579998080.0	0.63	1.17
26/01/2020 00:21:21	26012020	260120	002121	57.150	12.418710	-57.475705	57.050	0.080	-0.310	1.250	57.150	-1.900	1.400																			1579998081.0	0.68	1.26
26/01/2020 00:21:22	26012020	260120	002122	57.100	12.418707	-57.475703	56.960	-0.140	0.080	1.560	57.090	-1.500	1.800																			1579998082.0	0.56	1.04
26/01/2020 00:21:23	26012020	260120	002123	56.990	12.418705	-57.475703	56.900	-0.230	0.250	1.560	56.980	-1.200	2.000																			1579998083.0	0.58	1.07
26/01/2020 00:21:24	26012020	260120	002124	56.950	12.418703	-57.475705	56.910	-0.130	0.140	1.280	56.950	-1.200	1.800																			1579998084.0	0.37	0.69
26/01/2020 00:21:25	26012020	260120	002125	56.980	12.418703	-57.475705	56.940	0.040	-0.100	0.910	56.990	-1.400	1.500																			1579998085.0	0.10	0.19
26/01/2020 00:21:26	26012020	260120	002126	57.040	12.418705	-57.475705	57.040	0.140	-0.350	0.480	57.060	-1.600	1.100																			1579998086.0	0.32	0.59
26/01/2020 00:21:27	26012020	260120	002127	57.160	12.418707	-57.475705	57.150	0.180	-0.510	0.050	57.190	-1.800	0.600																			1579998087.0	0.47	0.87
26/01/2020 00:21:28	26012020	260120	002128	57.260	12.418710	-57.475705	57.170	0.240	-0.460	-0.170	57.270	-1.900	0.300																			1579998088.0	0.56	1.04
26/01/2020 00:21:29	26012020	260120	002129	57.230	12.418712	-57.475705	57.030	0.330	-0.240	-0.130	57.200	-1.700	0.200																			1579998089.0	0.36	0.67
26/01/2020 00:21:30	26012020	260120	002130	57.060	12.418712	-57.475705	56.860	0.320	0.040	0.060	57.030	-1.500	0.300																			1579998090.0	0.05	0.09
26/01/2020 00:21:31	26012020	260120	002131	56.930	12.418710	-57.475705	56.830	0.110	0.220	0.240	56.920	-1.200	0.600																			1579998091.0	0.16	0.30
26/01/2020 00:21:32	26012020	260120	002132	56.960	12.418710	-57.475705	56.950	-0.200	0.290	0.380	56.990	-1.100	0.700																			1579998092.0	0.08	0.15
26/01/2020 00:21:33	26012020	260120	002133	57.100	12.418710	-57.475705	57.080	-0.470	0.290	0.640	57.120	-1.100	0.900																			1579998093.0	0.05	0.09
26/01/2020 00:21:34	26012020	260120	002134	57.200	12.418710	-57.475705	57.150	-0.550	0.170	1.020	57.220	-1.100	1.200																			1579998094.0	0.12	0.22
26/01/2020 00:21:35	26012020	260120	002135	57.260	12.418708	-57.475703	57.210	-0.390	-0.190	1.430	57.260	-1.400	1.600																			1579998095.0	0.53	0.98
26/01/2020 00:21:36	26012020	260120	002136	57.280	12.418705	-57.475700	57.240	-0.100	-0.630	1.710	57.290	-1.800	2.000																			1579998096.0	0.89	1.65
26/01/2020 00:21:37	26012020	260120	002137	57.280	12.418702	-57.475697	57.200	0.170	-0.780	1.730	57.280	-2.100	2.100																			1579998097.0	1.00	1.85
26/01/2020 00:21:38	26012020	260120	002138	57.220	12.418702	-57.475693	57.100	0.280	-0.420	1.480	57.210	-2.000	2.000																			1579998098.0	0.72	1.33
26/01/2020 00:21:39	26012020	260120	002139	57.110	12.418702	-57.475693	56.980	0.230	0.220	1.020	57.090	-1.500	1.700																			1579998099.0	0.08	0.15
26/01/2020 00:21:40	26012020	260120	002140	57.000	12.418702	-57.475695	56.900	0.140	0.580	0.400	56.990	-0.900	1.100																			1579998100.0	0.65	1.20
26/01/2020 00:21:41	26012020	260120	002141	56.980	12.418703	-57.475700	56.930	0.140	0.300	-0.310	56.990	-0.900	0.400																			1579998101.0	1.04	1.93
26/01/2020 00:21:42	26012020	260120	002142	57.060	12.418708	-57.475703	57.030	0.210	-0.350	-0.860	57.080	-1.400	-0.200																			1579998102.0	1.14	2.11
26/01/2020 00:21:43	26012020	260120	002143	57.150	12.418713	-57.475703	57.060	0.230	-0.730	-0.950	57.160	-2.000	-0.600																			1579998103.0	1.22	2.26
26/01/2020 00:21:44	26012020	260120	002144	57.140	12.418718	-57.475702	56.990	0.070	-0.510	-0.480	57.120	-2.100	-0.400																			1579998104.0	0.86	1.59
26/01/2020 00:21:45	26012020	260120	002145	57.030	12.418717	-57.475700	56.910	-0.200	0.010	0.360	57.010	-1.600	0.300																			1579998105.0	0.35	0.65
26/01/2020 00:21:46	26012020	260120	002146	56.970	12.418712	-57.475700	56.910	-0.410	0.370	1.250	56.960	-1.100	1.200																			1579998106.0	1.10	2.04
26/01/2020 00:21:47	26012020	260120	002147	56.980	12.418705	-57.475697	56.980	-0.410	0.300	1.890	56.990	-1.000	2.000																			1579998107.0	1.49	2.76
26/01/2020 00:21:48	26012020	260120	002148	57.020	12.418700	-57.475695	57.030	-0.190	-0.140	2.140	57.040	-1.300	2.400																			1579998108.0	1.36	2.52
26/01/2020 00:21:49	26012020	260120	002149	57.050	12.418697	-57.475690	56.980	0.100	-0.440	2.100	57.050	-1.700	2.500																			1579998109.0	0.94	1.74
26/01/2020 00:21:50	26012020	260120	002150	56.970	12.418697	-57.475688	56.850	0.250	-0.260	1.830	56.950	-1.800	2.400																			1579998110.0	0.59	1.09
26/01/2020 00:21:51	26012020	260120	002151	56.850	12.418698	-57.475688	56.750	0.190	0.140	1.280	56.840	-1.400	2.000																			1579998111.0	0.20	0.37
26/01/2020 00:21:52	26012020	260120	002152	56.810	12.418700	-57.475692	56.740	0.040	0.240	0.530	56.810	-1.100	1.300																			1579998112.0	0.68	1.26
26/01/2020 00:21:53	26012020	260120	002153	56.820	12.418702	-57.475695	56.700	-0.030	-0.070	-0.120	56.820	-1.300	0.600																			1579998113.0	0.96	1.78
26/01/2020 00:21:54	26012020	260120	002154	56.800	12.418707	-57.475697	56.670	0.030	-0.470	-0.490	56.790	-1.700	0.000																			1579998114.0	1.00	1.85
26/01/2020 00:21:55	26012020	260120	002155	56.780	12.418710	-57.475697	56.690	0.120	-0.640	-0.600	56.780	-2.000	-0.200																			1579998115.0	0.83	1.54
26/01/2020 00:21:56	26012020	260120	002156	56.840	12.418712	-57.475697	56.780	0.150	-0.450	-0.430	56.860	-2.000	-0.200																			1579998116.0	0.46	0.85
26/01/2020 00:21:57	26012020	260120	002157	56.910	12.418712	-57.475695	56.780	0.050	-0.010	0.070	56.910	-1.600	0.200																			1579998117.0	0.26	0.48
26/01/2020 00:21:58	26012020	260120	002158	56.820	12.418708	-57.475693	56.580	-0.140	0.460	0.760	56.770	-1.100	0.800																			1579998118.0	0.70	1.30
26/01/2020 00:21:59	26012020	260120	002159	56.560	12.418703	-57.475693	56.320	-0.320	0.680	1.310	56.500	-0.800	1.500	1014.90	25.80	25.80	20.80	20.90	-1.00	74.00	74.00	403.00	25.10	330.00	5.00	25.00	4.70	15	3555.00	27.40	27.40	1579998119.0	0.96	1.78
26/01/2020 00:22:00	26012020	260120	002200	56.360	12.418700	-57.475693	56.220	-0.310	0.400	1.520	56.330	-0.800	1.800																			1579998120.0	0.78	1.44
26/01/2020 00:22:01	26012020	260120	002201	56.330	12.418700	-57.475692	56.390	-0.090	-0.250	1.440	56.370	-1.300	1.900																			1579998121.0	0.26	0.48
26/01/2020 00:22:02	26012020	260120	002202	56.560	12.418700	-57.475692	56.650	0.190	-0.870	1.230	56.610	-2.000	1.700																			1579998122.0	0.34	0.63
26/01/2020 00:22:03	26012020	260120	002203	56.790	12.418702	-57.475690	56.750	0.300	-1.000	1.070	56.810	-2.400	1.500																			1579998123.0	0.57	1.06
26/01/2020 00:22:04	26012020	260120	002204	56.790	12.418703	-57.475688	56.620	0.170	-0.520	1.050	56.770	-2.200	1.400																			1579998124.0	0.40	0.74
26/01/2020 00:22:05	26012020	260120	002205	56.590	12.418702	-57.475688	56.350	-0.070	0.210	1.100	56.530	-1.500	1.500																			1579998125.0	0.18	0.33
26/01/2020 00:22:06	26012020	260120	002206	56.320	12.418700	-57.475688	56.150	-0.230	0.580	0.930	56.280	-0.900	1.400																			1579998126.0	0.58	1.07
26/01/2020 00:22:07	26012020	260120	002207	56.200	12.418698	-57.475690	56.120	-0.180	0.410	0.430	56.190	-0.800	1.100																			1579998127.0	0.50	0.93
26/01/2020 00:22:08	26012020	260120	002208	56.230	12.418700	-57.475692	56.150	0.030	0.020	-0.090	56.240	-1.200	0.500																			1579998128.0	0.41	0.76
26/01/2020 00:22:09	26012020	260120	002209	56.280	12.418703	-57.475693	56.190	0.250	-0.300	-0.390	56.280	-1.500	0.100																			1579998129.0	0.79	1.46
26/01/2020 00:22:10	26012020	260120	002210	56.330	12.418707	-57.475693	56.270	0.350	-0.450	-0.500	56.350	-1.800	-0.100																			1579998130.0	0.70	1.30
26/01/2020 00:22:11	26012020	260120	002211	56.430	12.418708	-57.475693	56.340	0.250	-0.360	-0.370	56.450	-1.800	-0.100																			1579998131.0	0.43	0.80
26/01/2020 00:22:12	26012020	260120	002212	56.460	12.418708	-57.475693	56.270	-0.020	-0.050	0.130	56.450	-1.600	0.200																			1579998132.0	0.09	0.17
26/01/2020 00:22:13	26012020	260120	002213	56.330	12.418707	-57.475693	56.090	-0.340	0.290	0.940	56.280	-1.200	0.900																			1579998133.0	0.37	0.69
26/01/2020 00:22:14	26012020	260120	002214	56.150	12.418703	-57.475693	55.890	-0.490	0.350	1.720	56.100	-1.000	1.800																			1579998134.0	0.82	1.52
26/01/2020 00:22:15	26012020	260120	002215	55.920	12.418698	-57.475692	55.820	-0.370	-0.020	2.170	55.900	-1.200	2.400																			1579998135.0	0.98	1.81
26/01/2020 00:22:16	26012020	260120	002216	55.890	12.418697	-57.475690	55.870	-0.040	-0.590	2.270	55.900	-1.700	2.600																			1579998136.0	0.79	1.46
26/01/2020 00:22:17	26012020	260120	002217	55.970	12.418695	-57.475687	55.940	0.270	-0.890	2.180	55.990	-2.200	2.600																			1579998137.0	0.72	1.33
26/01/2020 00:22:18	26012020	260120	002218	55.990	12.418695	-57.475683	55.840	0.350	-0.610	1.950	55.970	-2.200	2.500																			1579998138.0	0.63	1.17
26/01/2020 00:22:19	26012020	260120	002219	55.810	12.418695	-57.475683	55.560	0.220	0.060	1.510	55.760	-1.700	2.100																			1579998139.0	0.17	0.31
26/01/2020 00:22:20	26012020	260120	002220	55.520	12.418697	-57.475685	55.300	0.100	0.580	0.810	55.460	-1.000	1.600																			1579998140.0	0.54	1.00
26/01/2020 00:22:21	26012020	260120	002221	55.320	12.418698	-57.475690	55.210	0.110	0.550	-0.100	55.310	-0.700	0.800																			1579998141.0	1.05	1.94
26/01/2020 00:22:22	26012020	260120	002222	55.340	12.418703	-57.475693	55.310	0.150	0.150	-0.980	55.370	-1.000	-0.200																			1579998142.0	1.29	2.39
26/01/2020 00:22:23	26012020	260120	002223	55.500	12.418708	-57.475697	55.450	0.050	-0.190	-1.460	55.530	-1.400	-0.900																			1579998143.0	1.42	2.63
26/01/2020 00:22:24	26012020	260120	002224	55.630	12.418713	-57.475698	55.530	-0.150	-0.290	-1.440	55.650	-1.600	-1.100																			1579998144.0	1.19	2.20
26/01/2020 00:22:25	26012020	260120	002225	55.680	12.418717	-57.475698	55.540	-0.280	-0.280	-0.890	55.690	-1.700	-0.800																			1579998145.0	0.54	1.00
26/01/2020 00:22:26	26012020	260120	002226	55.650	12.418715	-57.475698	55.450	-0.270	-0.250	0.180	55.620	-1.600	-0.000																			1579998146.0	0.26	0.48
26/01/2020 00:22:27	26012020	260120	002227	55.500	12.418710	-57.475695	55.330	-0.220	-0.260	1.410	55.480	-1.600	1.200																			1579998147.0	1.11	2.06
26/01/2020 00:22:28	26012020	260120	002228	55.400	12.418705	-57.475692	55.340	-0.220	-0.270	2.310	55.390	-1.600	2.300																			1579998148.0	1.68	3.11
26/01/2020 00:22:29	26012020	260120	002229	55.430	12.418698	-57.475687	55.450	-0.210	-0.200	2.650	55.450	-1.600	2.900																			1579998149.0	1.58	2.93
26/01/2020 00:22:30	26012020	260120	002230	55.540	12.418695	-57.475683	55.560	-0.070	-0.030	2.530	55.560	-1.500	3.000																			1579998150.0	0.98	1.81
26/01/2020 00:22:31	26012020	260120	002231	55.620	12.418693	-57.475683	55.560	0.200	0.080	2.050	55.620	-1.300	2.700																			1579998151.0	0.32	0.59
26/01/2020 00:22:32	26012020	260120	002232	55.600	12.418695	-57.475685	55.510	0.500	-0.020	1.250	55.590	-1.300	2.100																			1579998152.0	0.35	0.65
26/01/2020 00:22:33	26012020	260120	002233	55.580	12.418698	-57.475687	55.520	0.650	-0.210	0.210	55.590	-1.500	1.100																			1579998153.0	1.02	1.89
26/01/2020 00:22:34	26012020	260120	002234	55.680	12.418705	-57.475690	55.690	0.540	-0.240	-0.730	55.720	-1.600	0.100																			1579998154.0	1.57	2.91
26/01/2020 00:22:35	26012020	260120	002235	55.890	12.418712	-57.475693	55.900	0.180	-0.100	-1.250	55.940	-1.600	-0.700																			1579998155.0	1.62	3.00
26/01/2020 00:22:36	26012020	260120	002236	56.110	12.418717	-57.475697	56.100	-0.240	0.060	-1.250	56.150	-1.400	-0.900																			1579998156.0	1.13	2.09
26/01/2020 00:22:37	26012020	260120	002237	56.280	12.418717	-57.475698	56.250	-0.540	0.130	-0.760	56.310	-1.300	-0.700																			1579998157.0	0.47	0.87
26/01/2020 00:22:38	26012020	260120	002238	56.390	12.418717	-57.475698	56.360	-0.600	0.060	0.090	56.420	-1.300	0.000																			1579998158.0	0.34	0.63
26/01/2020 00:22:39	26012020	260120	002239	56.510	12.418712	-57.475697	56.430	-0.460	-0.100	1.110	56.510	-1.400	1.000																			1579998159.0	1.02	1.89
26/01/2020 00:22:40	26012020	260120	002240	56.530	12.418707	-57.475692	56.440	-0.210	-0.270	2.050	56.530	-1.600	2.000																			1579998160.0	1.53	2.83
26/01/2020 00:22:41	26012020	260120	002241	56.490	12.418700	-57.475687	56.360	0.020	-0.350	2.610	56.470	-1.700	2.800																			1579998161.0	1.64	3.04
26/01/2020 00:22:42	26012020	260120	002242	56.370	12.418695	-57.475683	56.250	0.180	-0.250	2.600	56.340	-1.700	3.100																			1579998162.0	1.22	2.26
26/01/2020 00:22:43	26012020	260120	002243	56.280	12.418695	-57.475682	56.250	0.270	-0.080	2.000	56.280	-1.500	2.800																			1579998163.0	0.36	0.67
26/01/2020 00:22:44	26012020	260120	002244	56.360	12.418697	-57.475685	56.380	0.320	-0.000	1.060	56.390	-1.400	1.900																			1579998164.0	0.55	1.02
26/01/2020 00:22:45	26012020	260120	002245	56.520	12.418700	-57.475688	56.490	0.330	-0.040	0.120	56.540	-1.400	1.000																			1579998165.0	1.16	2.15
26/01/2020 00:22:46	26012020	260120	002246	56.610	12.418705	-57.475692	56.490	0.270	-0.130	-0.610	56.620	-1.500	0.100																			1579998166.0	1.40	2.59
26/01/2020 00:22:47	26012020	260120	002247	56.590	12.418712	-57.475693	56.400	0.150	-0.180	-0.970	56.570	-1.500	-0.400																			1579998167.0	1.27	2.35
26/01/2020 00:22:48	26012020	260120	002248	56.480	12.418715	-57.475695	56.280	-0.040	-0.140	-0.960	56.460	-1.600	-0.600																			1579998168.0	0.83	1.54
26/01/2020 00:22:49	26012020	260120	002249	56.390	12.418715	-57.475697	56.230	-0.270	-0.010	-0.640	56.380	-1.500	-0.400																			1579998169.0	0.25	0.46
26/01/2020 00:22:50	26012020	260120	002250	56.350	12.418715	-57.475695	56.230	-0.430	0.090	-0.010	56.350	-1.300	0.000																			1579998170.0	0.24	0.44
26/01/2020 00:22:51	26012020	260120	002251	56.350	12.418712	-57.475695	56.240	-0.400	0.010	0.770	56.350	-1.300	0.800																			1579998171.0	0.68	1.26
26/01/2020 00:22:52	26012020	260120	002252	56.340	12.418708	-57.475692	56.240	-0.190	-0.260	1.460	56.340	-1.500	1.500																			1579998172.0	1.04	1.93
26/01/2020 00:22:53	26012020	260120	002253	56.320	12.418703	-57.475688	56.220	0.070	-0.470	1.830	56.320	-1.800	2.100																			1579998173.0	1.20	2.22
26/01/2020 00:22:54	26012020	260120	002254	56.310	12.418700	-57.475683	56.210	0.250	-0.390	1.850	56.310	-1.900	2.300																			1579998174.0	0.97	1.80
26/01/2020 00:22:55	26012020	260120	002255	56.300	12.418700	-57.475682	56.180	0.270	0.030	1.680	56.290	-1.600	2.200																			1579998175.0	0.41	0.76
26/01/2020 00:22:56	26012020	260120	002256	56.230	12.418700	-57.475683	56.050	0.160	0.400	1.400	56.210	-1.100	1.900																			1579998176.0	0.21	0.39
26/01/2020 00:22:57	26012020	260120	002257	56.100	12.418700	-57.475687	55.900	0.050	0.350	0.940	56.070	-0.900	1.600																			1579998177.0	0.57	1.06
26/01/2020 00:22:58	26012020	260120	002258	55.980	12.418702	-57.475688	55.810	0.050	-0.090	0.320	55.960	-1.200	1.000																			1579998178.0	0.71	1.31
26/01/2020 00:22:59	26012020	260120	002259	55.930	12.418707	-57.475690	55.790	0.090	-0.460	-0.270	55.930	-1.700	0.400	1014.90	25.80	25.80	21.00	21.00	-1.00	75.00	75.00	402.00	25.10	334.00	5.50	29.00	5.20	15	3545.00	27.40	27.40	1579998179.0	0.98	1.81
26/01/2020 00:23:00	26012020	260120	002300	55.960	12.418712	-57.475692	55.870	0.060	-0.480	-0.620	55.980	-1.900	-0.100																			1579998180.0	1.03	1.91
26/01/2020 00:23:01	26012020	260120	002301	56.070	12.418713	-57.475692	56.010	-0.070	-0.250	-0.550	56.100	-1.800	-0.300																			1579998181.0	0.62	1.15
26/01/2020 00:23:02	26012020	260120	002302	56.170	12.418713	-57.475692	56.040	-0.240	-0.030	-0.070	56.180	-1.500	0.000																			1579998182.0	0.13	0.24
26/01/2020 00:23:03	26012020	260120	002303	56.130	12.418712	-57.475692	55.860	-0.340	0.060	0.610	56.090	-1.300	0.600																			1579998183.0	0.60	1.11
26/01/2020 00:23:04	26012020	260120	002304	55.940	12.418707	-57.475690	55.570	-0.290	0.070	1.250	55.880	-1.300	1.300																			1579998184.0	0.93	1.72
26/01/2020 00:23:05	26012020	260120	002305	55.590	12.418703	-57.475687	55.390	-0.090	-0.030	1.620	55.550	-1.300	1.900																			1579998185.0	0.91	1.69
26/01/2020 00:23:06	26012020	260120	002306	55.480	12.418702	-57.475685	55.440	0.150	-0.190	1.670	55.490	-1.500	2.100																			1579998186.0	0.66	1.22
26/01/2020 00:23:07	26012020	260120	002307	55.600	12.418700	-57.475683	55.590	0.290	-0.280	1.530	55.630	-1.600	2.000																			1579998187.0	0.33	0.61
26/01/2020 00:23:08	26012020	260120	002308	55.730	12.418702	-57.475683	55.620	0.280	-0.250	1.260	55.740	-1.700	1.800																			1579998188.0	0.18	0.33
26/01/2020 00:23:09	26012020	260120	002309	55.710	12.418703	-57.475683	55.500	0.220	-0.170	0.880	55.680	-1.600	1.500																			1579998189.0	0.32	0.59
26/01/2020 00:23:10	26012020	260120	002310	55.570	12.418705	-57.475685	55.360	0.200	-0.120	0.430	55.550	-1.500	1.000																			1579998190.0	0.55	1.02
26/01/2020 00:23:11	26012020	260120	002311	55.470	12.418707	-57.475687	55.290	0.190	-0.080	0.130	55.450	-1.500	0.700																			1579998191.0	0.68	1.26
26/01/2020 00:23:12	26012020	260120	002312	55.420	12.418710	-57.475688	55.280	0.070	0.030	0.060	55.420	-1.400	0.500																			1579998192.0	0.57	1.06
26/01/2020 00:23:13	26012020	260120	002313	55.430	12.418710	-57.475688	55.330	-0.180	0.180	0.100	55.440	-1.300	0.500																			1579998193.0	0.25	0.46
26/01/2020 00:23:14	26012020	260120	002314	55.480	12.418710	-57.475690	55.350	-0.430	0.290	0.210	55.490	-1.100	0.500																			1579998194.0	0.09	0.17
26/01/2020 00:23:15	26012020	260120	002315	55.490	12.418710	-57.475690	55.330	-0.520	0.250	0.410	55.480	-1.100	0.700																			1579998195.0	0.25	0.46
26/01/2020 00:23:16	26012020	260120	002316	55.450	12.418708	-57.475690	55.310	-0.360	-0.050	0.680	55.450	-1.200	0.900																			1579998196.0	0.37	0.69
26/01/2020 00:23:17	26012020	260120	002317	55.430	12.418707	-57.475688	55.320	-0.020	-0.560	0.950	55.430	-1.700	1.200																			1579998197.0	0.46	0.85
26/01/2020 00:23:18	26012020	260120	002318	55.430	12.418705	-57.475687	55.300	0.320	-0.950	1.200	55.430	-2.200	1.500																			1579998198.0	0.56	1.04
26/01/2020 00:23:19	26012020	260120	002319	55.370	12.418705	-57.475683	55.210	0.460	-0.830	1.380	55.350	-2.300	1.700																			1579998199.0	0.62	1.15
26/01/2020 00:23:20	26012020	260120	002320	55.260	12.418705	-57.475682	55.110	0.370	-0.230	1.380	55.230	-1.900	1.800																			1579998200.0	0.35	0.65
26/01/2020 00:23:21	26012020	260120	002321	55.180	12.418703	-57.475682	55.080	0.160	0.430	1.160	55.170	-1.300	1.700																			1579998201.0	0.19	0.35
26/01/2020 00:23:22	26012020	260120	002322	55.200	12.418703	-57.475685	55.180	-0.050	0.670	0.750	55.220	-0.800	1.400																			1579998202.0	0.56	1.04
26/01/2020 00:23:23	26012020	260120	002323	55.350	12.418705	-57.475688	55.400	-0.190	0.450	0.200	55.400	-0.800	0.900																			1579998203.0	0.63	1.17
26/01/2020 00:23:24	26012020	260120	002324	55.620	12.418708	-57.475690	55.680	-0.260	0.080	-0.250	55.690	-1.100	0.300																			1579998204.0	0.72	1.33
26/01/2020 00:23:25	26012020	260120	002325	55.900	12.418712	-57.475690	55.870	-0.240	-0.150	-0.310	55.950	-1.400	0.100																			1579998205.0	0.72	1.33
26/01/2020 00:23:26	26012020	260120	002326	56.010	12.418712	-57.475690	55.820	-0.170	-0.220	0.090	56.010	-1.600	0.200																			1579998206.0	0.26	0.48
26/01/2020 00:23:27	26012020	260120	002327	55.890	12.418710	-57.475690	55.650	-0.070	-0.310	0.670	55.840	-1.600	0.800																			1579998207.0	0.42	0.78
26/01/2020 00:23:28	26012020	260120	002328	55.730	12.418707	-57.475688	55.570	0.070	-0.510	1.100	55.710	-1.800	1.300																			1579998208.0	0.77	1.43
26/01/2020 00:23:29	26012020	260120	002329	55.680	12.418705	-57.475687	55.650	0.240	-0.690	1.320	55.690	-2.000	1.600																			1579998209.0	0.65	1.20
26/01/2020 00:23:30	26012020	260120	002330	55.780	12.418703	-57.475683	55.800	0.380	-0.620	1.380	55.810	-2.100	1.800																			1579998210.0	0.41	0.76
26/01/2020 00:23:31	26012020	260120	002331	55.940	12.418705	-57.475683	55.980	0.330	-0.200	1.250	55.970	-1.800	1.700																			1579998211.0	0.27	0.50
26/01/2020 00:23:32	26012020	260120	002332	56.120	12.418705	-57.475683	56.160	0.030	0.420	0.980	56.160	-1.300	1.500																			1579998212.0	0.05	0.09
26/01/2020 00:23:33	26012020	260120	002333	56.290	12.418705	-57.475685	56.300	-0.320	0.890	0.720	56.330	-0.700	1.200																			1579998213.0	0.45	0.83
26/01/2020 00:23:34	26012020	260120	002334	56.420	12.418705	-57.475688	56.350	-0.450	0.810	0.580	56.430	-0.500	1.000																			1579998214.0	0.67	1.24
26/01/2020 00:23:35	26012020	260120	002335	56.440	12.418705	-57.475690	56.340	-0.280	0.150	0.500	56.440	-0.900	0.900																			1579998215.0	0.41	0.76
26/01/2020 00:23:36	26012020	260120	002336	56.430	12.418705	-57.475690	56.330	-0.010	-0.650	0.400	56.430	-1.700	0.800																			1579998216.0	0.22	0.41
26/01/2020 00:23:37	26012020	260120	002337	56.430	12.418707	-57.475687	56.370	0.130	-0.990	0.300	56.440	-2.300	0.700																			1579998217.0	0.62	1.15
26/01/2020 00:23:38	26012020	260120	002338	56.510	12.418708	-57.475687	56.500	0.140	-0.780	0.270	56.530	-2.300	0.700																			1579998218.0	0.48	0.89
26/01/2020 00:23:39	26012020	260120	002339	56.660	12.418710	-57.475687	56.720	0.120	-0.350	0.290	56.710	-1.900	0.700																			1579998219.0	0.26	0.48
26/01/2020 00:23:40	26012020	260120	002340	56.840	12.418710	-57.475688	56.920	0.110	0.020	0.410	56.880	-1.500	0.700																			1579998220.0	0.37	0.69
26/01/2020 00:23:41	26012020	260120	002341	57.050	12.418708	-57.475690	57.000	0.040	0.280	0.720	57.070	-1.200	0.900																			1579998221.0	0.26	0.48
26/01/2020 00:23:42	26012020	260120	002342	57.070	12.418707	-57.475688	56.940	-0.060	0.390	1.090	57.060	-1.000	1.300																			1579998222.0	0.37	0.69
26/01/2020 00:23:43	26012020	260120	002343	56.980	12.418705	-57.475688	56.870	-0.120	0.240	1.320	56.960	-1.000	1.600																			1579998223.0	0.50	0.93
26/01/2020 00:23:44	26012020	260120	002344	56.910	12.418703	-57.475687	56.860	-0.090	-0.060	1.320	56.910	-1.300	1.700																			1579998224.0	0.40	0.74
26/01/2020 00:23:45	26012020	260120	002345	56.940	12.418703	-57.475685	56.950	-0.000	-0.300	1.090	56.960	-1.600	1.600																			1579998225.0	0.27	0.50
26/01/2020 00:23:46	26012020	260120	002346	57.080	12.418705	-57.475685	57.100	0.050	-0.330	0.710	57.110	-1.700	1.300																			1579998226.0	0.31	0.57
26/01/2020 00:23:47	26012020	260120	002347	57.210	12.418707	-57.475685	57.140	0.020	-0.170	0.430	57.220	-1.700	0.900																			1579998227.0	0.44	0.81
26/01/2020 00:23:48	26012020	260120	002348	57.210	12.418708	-57.475687	57.080	-0.070	0.020	0.340	57.200	-1.400	0.800																			1579998228.0	0.47	0.87
26/01/2020 00:23:49	26012020	260120	002349	57.150	12.418708	-57.475688	57.020	-0.120	0.010	0.320	57.130	-1.300	0.700																			1579998229.0	0.30	0.56
26/01/2020 00:23:50	26012020	260120	002350	57.080	12.418708	-57.475688	56.940	-0.100	-0.210	0.310	57.070	-1.500	0.700																			1579998230.0	0.08	0.15
26/01/2020 00:23:51	26012020	260120	002351	57.000	12.418708	-57.475688	56.870	-0.010	-0.340	0.350	56.990	-1.700	0.700																			1579998231.0	0.19	0.35
26/01/2020 00:23:52	26012020	260120	002352	56.950	12.418710	-57.475687	56.870	0.070	-0.260	0.440	56.940	-1.700	0.800																			1579998232.0	0.29	0.54
26/01/2020 00:23:53	26012020	260120	002353	56.960	12.418710	-57.475685	56.920	0.100	-0.080	0.520	56.970	-1.500	0.900																			1579998233.0	0.15	0.28
26/01/2020 00:23:54	26012020	260120	002354	57.010	12.418708	-57.475685	56.960	0.080	0.010	0.560	57.020	-1.400	0.900																			1579998234.0	0.15	0.28
26/01/2020 00:23:55	26012020	260120	002355	57.040	12.418708	-57.475685	56.960	0.090	0.010	0.590	57.040	-1.400	1.000																			1579998235.0	0.06	0.11
26/01/2020 00:23:56	26012020	260120	002356	57.020	12.418710	-57.475685	56.930	0.100	0.010	0.690	57.020	-1.400	1.000																			1579998236.0	0.10	0.19
26/01/2020 00:23:57	26012020	260120	002357	56.980	12.418710	-57.475685	56.850	0.050	0.020	0.890	56.960	-1.400	1.200																			1579998237.0	0.12	0.22
26/01/2020 00:23:58	26012020	260120	002358	56.890	12.418710	-57.475685	56.760	-0.060	-0.020	1.130	56.870	-1.400	1.400																			1579998238.0	0.14	0.26
26/01/2020 00:23:59	26012020	260120	002359	56.800	12.418708	-57.475683	56.690	-0.160	-0.130	1.230	56.780	-1.400	1.600	1014.90	25.80	25.80	21.10	21.10	-1.00	75.00	75.00	401.00	25.10	333.00	5.50	29.00	5.40	15	3561.00	27.40	27.40	1579998239.0	0.26	0.48
26/01/2020 00:24:00	26012020	260120	002400	56.740	12.418707	-57.475683	56.680	-0.170	-0.280	1.090	56.740	-1.600	1.600																			1579998240.0	0.26	0.48
26/01/2020 00:24:01	26012020	260120	002401	56.780	12.418708	-57.475683	56.750	-0.110	-0.330	0.840	56.800	-1.700	1.400																			1579998241.0	0.14	0.26
26/01/2020 00:24:02	26012020	260120	002402	56.850	12.418708	-57.475682	56.740	-0.040	-0.170	0.720	56.850	-1.700	1.100																			1579998242.0	0.24	0.44
26/01/2020 00:24:03	26012020	260120	002403	56.780	12.418710	-57.475683	56.570	-0.020	0.090	0.770	56.740	-1.400	1.100																			1579998243.0	0.14	0.26
26/01/2020 00:24:04	26012020	260120	002404	56.610	12.418708	-57.475683	56.460	-0.000	0.110	0.690	56.590	-1.200	1.200																			1579998244.0	0.21	0.39
26/01/2020 00:24:05	26012020	260120	002405	56.570	12.418708	-57.475683	56.540	0.100	-0.170	0.340	56.600	-1.400	0.900																			1579998245.0	0.14	0.26
26/01/2020 00:24:06	26012020	260120	002406	56.680	12.418710	-57.475683	56.660	0.240	-0.400	-0.000	56.720	-1.700	0.500																			1579998246.0	0.28	0.52
26/01/2020 00:24:07	26012020	260120	002407	56.790	12.418712	-57.475683	56.590	0.270	-0.280	0.020	56.780	-1.800	0.400																			1579998247.0	0.54	1.00
26/01/2020 00:24:08	26012020	260120	002408	56.660	12.418713	-57.475683	56.420	0.100	0.060	0.300	56.620	-1.500	0.500																			1579998248.0	0.29	0.54
26/01/2020 00:24:09	26012020	260120	002409	56.500	12.418712	-57.475683	56.360	-0.140	0.250	0.560	56.490	-1.200	0.900																			1579998249.0	0.19	0.35
26/01/2020 00:24:10	26012020	260120	002410	56.510	12.418712	-57.475683	56.470	-0.260	0.070	0.730	56.530	-1.200	1.000																			1579998250.0	0.32	0.59
26/01/2020 00:24:11	26012020	260120	002411	56.630	12.418710	-57.475683	56.590	-0.210	-0.200	0.920	56.650	-1.500	1.200																			1579998251.0	0.18	0.33
26/01/2020 00:24:12	26012020	260120	002412	56.720	12.418710	-57.475682	56.640	-0.100	-0.220	1.150	56.730	-1.600	1.400																			1579998252.0	0.39	0.72
26/01/2020 00:24:13	26012020	260120	002413	56.730	12.418708	-57.475680	56.610	-0.040	-0.070	1.370	56.730	-1.500	1.700																			1579998253.0	0.40	0.74
26/01/2020 00:24:14	26012020	260120	002414	56.700	12.418707	-57.475680	56.570	-0.030	-0.050	1.440	56.680	-1.400	1.800																			1579998254.0	0.47	0.87
26/01/2020 00:24:15	26012020	260120	002415	56.660	12.418705	-57.475680	56.560	0.000	-0.230	1.380	56.660	-1.500	1.800																			1579998255.0	0.39	0.72
26/01/2020 00:24:16	26012020	260120	002416	56.660	12.418705	-57.475678	56.560	0.100	-0.390	1.150	56.660	-1.700	1.700																			1579998256.0	0.13	0.24
26/01/2020 00:24:17	26012020	260120	002417	56.670	12.418707	-57.475678	56.560	0.210	-0.320	0.770	56.670	-1.800	1.400																			1579998257.0	0.28	0.52
26/01/2020 00:24:18	26012020	260120	002418	56.680	12.418708	-57.475678	56.560	0.270	-0.100	0.320	56.680	-1.600	0.900																			1579998258.0	0.43	0.80
26/01/2020 00:24:19	26012020	260120	002419	56.690	12.418710	-57.475680	56.620	0.240	0.060	-0.060	56.700	-1.400	0.500																			1579998259.0	0.62	1.15
26/01/2020 00:24:20	26012020	260120	002420	56.780	12.418712	-57.475683	56.760	0.130	0.030	-0.240	56.810	-1.300	0.200																			1579998260.0	0.67	1.24
26/01/2020 00:24:21	26012020	260120	002421	56.950	12.418715	-57.475683	56.930	-0.070	-0.020	-0.150	56.980	-1.400	0.200																			1579998261.0	0.42	0.78
26/01/2020 00:24:22	26012020	260120	002422	57.090	12.418715	-57.475683	57.000	-0.330	0.100	0.230	57.100	-1.400	0.400																			1579998262.0	0.15	0.28
26/01/2020 00:24:23	26012020	260120	002423	57.090	12.418713	-57.475682	56.900	-0.530	0.300	0.770	57.070	-1.200	0.900																			1579998263.0	0.45	0.83
26/01/2020 00:24:24	26012020	260120	002424	56.930	12.418708	-57.475682	56.730	-0.550	0.290	1.280	56.890	-1.100	1.400																			1579998264.0	0.82	1.52
26/01/2020 00:24:25	26012020	260120	002425	56.780	12.418705	-57.475682	56.700	-0.320	-0.100	1.530	56.770	-1.300	1.800																			1579998265.0	0.88	1.63
26/01/2020 00:24:26	26012020	260120	002426	56.810	12.418703	-57.475680	56.830	0.070	-0.690	1.520	56.830	-1.800	1.900																			1579998266.0	0.56	1.04
26/01/2020 00:24:27	26012020	260120	002427	56.960	12.418703	-57.475678	57.000	0.410	-0.970	1.320	57.000	-2.300	1.800																			1579998267.0	0.43	0.80
26/01/2020 00:24:28	26012020	260120	002428	57.110	12.418705	-57.475677	57.080	0.560	-0.720	1.050	57.120	-2.300	1.600																			1579998268.0	0.46	0.85
26/01/2020 00:24:29	26012020	260120	002429	57.150	12.418705	-57.475677	57.020	0.460	-0.130	0.790	57.130	-1.800	1.300																			1579998269.0	0.27	0.50
26/01/2020 00:24:30	26012020	260120	002430	57.070	12.418707	-57.475678	56.870	0.210	0.410	0.580	57.050	-1.200	1.100																			1579998270.0	0.46	0.85
26/01/2020 00:24:31	26012020	260120	002431	56.900	12.418707	-57.475682	56.770	-0.030	0.610	0.360	56.880	-0.800	0.900																			1579998271.0	0.59	1.09
26/01/2020 00:24:32	26012020	260120	002432	56.850	12.418708	-57.475683	56.820	-0.160	0.390	0.090	56.860	-0.900	0.600																			1579998272.0	0.51	0.94
26/01/2020 00:24:33	26012020	260120	002433	56.970	12.418710	-57.475685	56.990	-0.180	-0.040	-0.090	57.000	-1.200	0.400																			1579998273.0	0.46	0.85
26/01/2020 00:24:34	26012020	260120	002434	57.150	12.418712	-57.475683	57.140	-0.160	-0.370	0.010	57.170	-1.600	0.300																			1579998274.0	0.49	0.91
26/01/2020 00:24:35	26012020	260120	002435	57.250	12.418713	-57.475683	57.170	-0.160	-0.380	0.420	57.260	-1.800	0.600																			1579998275.0	0.35	0.65
26/01/2020 00:24:36	26012020	260120	002436	57.220	12.418712	-57.475682	57.090	-0.220	-0.110	0.990	57.200	-1.700	1.100																			1579998276.0	0.50	0.93
26/01/2020 00:24:37	26012020	260120	002437	57.100	12.418707	-57.475680	56.960	-0.300	0.150	1.470	57.060	-1.400	1.700																			1579998277.0	0.94	1.74
26/01/2020 00:24:38	26012020	260120	002438	56.960	12.418702	-57.475680	56.880	-0.270	0.120	1.690	56.950	-1.200	2.000																			1579998278.0	0.99	1.83
26/01/2020 00:24:39	26012020	260120	002439	56.920	12.418700	-57.475680	56.890	-0.080	-0.210	1.630	56.920	-1.400	2.100																			1579998279.0	0.59	1.09
26/01/2020 00:24:40	26012020	260120	002440	56.960	12.418700	-57.475678	56.940	0.200	-0.580	1.350	56.970	-1.800	1.900																			1579998280.0	0.14	0.26
26/01/2020 00:24:41	26012020	260120	002441	57.010	12.418702	-57.475678	56.930	0.410	-0.670	1.020	57.020	-2.100	1.600																			1579998281.0	0.41	0.76
26/01/2020 00:24:42	26012020	260120	002442	56.990	12.418703	-57.475678	56.780	0.420	-0.370	0.760	56.960	-2.000	1.300																			1579998282.0	0.46	0.85
26/01/2020 00:24:43	26012020	260120	002443	56.780	12.418705	-57.475678	56.600	0.260	0.110	0.470	56.740	-1.500	1.000																			1579998283.0	0.40	0.74
26/01/2020 00:24:44	26012020	260120	002444	56.670	12.418705	-57.475682	56.580	0.030	0.430	0.060	56.660	-1.100	0.700																			1579998284.0	0.58	1.07
26/01/2020 00:24:45	26012020	260120	002445	56.720	12.418707	-57.475685	56.720	-0.150	0.450	-0.300	56.740	-0.900	0.300																			1579998285.0	0.72	1.33
26/01/2020 00:24:46	26012020	260120	002446	56.900	12.418708	-57.475687	56.930	-0.230	0.240	-0.410	56.940	-1.000	0.000																			1579998286.0	0.59	1.09
26/01/2020 00:24:47	26012020	260120	002447	57.090	12.418710	-57.475687	57.010	-0.210	-0.050	-0.070	57.100	-1.300	0.100																			1579998287.0	0.24	0.44
26/01/2020 00:24:48	26012020	260120	002448	57.060	12.418710	-57.475687	56.840	-0.130	-0.340	0.580	57.020	-1.600	0.600																			1579998288.0	0.29	0.54
26/01/2020 00:24:49	26012020	260120	002449	56.820	12.418707	-57.475683	56.620	-0.010	-0.580	1.120	56.770	-1.900	1.300																			1579998289.0	0.71	1.31
26/01/2020 00:24:50	26012020	260120	002450	56.640	12.418703	-57.475682	56.570	0.130	-0.690	1.390	56.630	-2.100	1.700																			1579998290.0	0.76	1.41
26/01/2020 00:24:51	26012020	260120	002451	56.650	12.418702	-57.475680	56.620	0.240	-0.480	1.610	56.660	-2.000	1.900																			1579998291.0	0.52	0.96
26/01/2020 00:24:52	26012020	260120	002452	56.670	12.418702	-57.475678	56.590	0.210	0.020	1.790	56.670	-1.600	2.100																			1579998292.0	0.34	0.63
26/01/2020 00:24:53	26012020	260120	002453	56.610	12.418700	-57.475678	56.480	0.060	0.450	1.630	56.590	-1.100	2.200																			1579998293.0	0.40	0.74
26/01/2020 00:24:54	26012020	260120	002454	56.510	12.418698	-57.475680	56.380	-0.100	0.530	1.120	56.490	-0.900	1.800																			1579998294.0	0.42	0.78
26/01/2020 00:24:55	26012020	260120	002455	56.430	12.418700	-57.475683	56.330	-0.200	0.300	0.560	56.430	-1.000	1.200																			1579998295.0	0.50	0.93
26/01/2020 00:24:56	26012020	260120	002456	56.430	12.418702	-57.475685	56.410	-0.220	-0.030	0.050	56.440	-1.300	0.700																			1579998296.0	0.69	1.28
26/01/2020 00:24:57	26012020	260120	002457	56.570	12.418705	-57.475687	56.540	-0.180	-0.340	-0.360	56.600	-1.600	0.200																			1579998297.0	0.76	1.41
26/01/2020 00:24:58	26012020	260120	002458	56.680	12.418708	-57.475688	56.570	-0.060	-0.520	-0.510	56.680	-1.800	-0.100																			1579998298.0	0.73	1.35
26/01/2020 00:24:59	26012020	260120	002459	56.660	12.418710	-57.475688	56.490	0.090	-0.590	-0.290	56.650	-2.000	-0.000	1015.00	25.80	25.80	20.90	21.00	-1.00	74.00	74.00	401.00	25.10	330.00	5.40	26.00	5.30	15	3613.00	27.40	27.40	1579998299.0	0.42	0.78
26/01/2020 00:25:00	26012020	260120	002500	56.550	12.418708	-57.475688	56.370	0.210	-0.560	0.280	56.530	-2.000	0.400																			1579998300.0	0.13	0.24
26/01/2020 00:25:01	26012020	260120	002501	56.420	12.418707	-57.475687	56.270	0.250	-0.360	0.990	56.400	-1.900	1.000																			1579998301.0	0.66	1.22
26/01/2020 00:25:02	26012020	260120	002502	56.320	12.418703	-57.475685	56.210	0.200	-0.020	1.470	56.310	-1.600	1.700																			1579998302.0	0.96	1.78
26/01/2020 00:25:03	26012020	260120	002503	56.270	12.418700	-57.475682	56.200	0.080	0.330	1.600	56.270	-1.200	2.000																			1579998303.0	0.85	1.57
26/01/2020 00:25:04	26012020	260120	002504	56.270	12.418697	-57.475683	56.230	-0.020	0.540	1.450	56.280	-0.900	2.000																			1579998304.0	0.39	0.72
26/01/2020 00:25:05	26012020	260120	002505	56.310	12.418698	-57.475685	56.250	-0.040	0.530	1.180	56.320	-0.800	1.700																			1579998305.0	0.40	0.74
26/01/2020 00:25:06	26012020	260120	002506	56.330	12.418700	-57.475687	56.240	-0.000	0.190	0.870	56.330	-1.000	1.400																			1579998306.0	0.56	1.04
26/01/2020 00:25:07	26012020	260120	002507	56.320	12.418702	-57.475688	56.240	0.040	-0.380	0.600	56.320	-1.500	1.100																			1579998307.0	0.45	0.83
26/01/2020 00:25:08	26012020	260120	002508	56.340	12.418703	-57.475688	56.290	0.050	-0.850	0.410	56.350	-2.000	0.900																			1579998308.0	0.39	0.72
26/01/2020 00:25:09	26012020	260120	002509	56.400	12.418705	-57.475687	56.320	0.010	-0.890	0.360	56.400	-2.300	0.800																			1579998309.0	0.45	0.83
26/01/2020 00:25:10	26012020	260120	002510	56.420	12.418705	-57.475687	56.280	-0.060	-0.380	0.450	56.400	-2.100	0.800																			1579998310.0	0.26	0.48
26/01/2020 00:25:11	26012020	260120	002511	56.340	12.418705	-57.475688	56.180	-0.160	0.310	0.660	56.320	-1.400	1.000																			1579998311.0	0.24	0.44
26/01/2020 00:25:12	26012020	260120	002512	56.240	12.418703	-57.475690	56.140	-0.200	0.620	0.830	56.230	-0.900	1.200																			1579998312.0	0.65	1.20
26/01/2020 00:25:13	26012020	260120	002513	56.240	12.418700	-57.475692	56.200	-0.140	0.360	0.890	56.260	-0.800	1.300																			1579998313.0	0.64	1.19
26/01/2020 00:25:14	26012020	260120	002514	56.320	12.418700	-57.475692	56.270	-0.040	-0.150	0.910	56.340	-1.300	1.300																			1579998314.0	0.29	0.54
26/01/2020 00:25:15	26012020	260120	002515	56.380	12.418700	-57.475688	56.310	-0.020	-0.460	0.910	56.390	-1.800	1.300																			1579998315.0	0.42	0.78
26/01/2020 00:25:16	26012020	260120	002516	56.390	12.418700	-57.475688	56.270	-0.050	-0.430	0.910	56.390	-1.900	1.300																			1579998316.0	0.33	0.61
26/01/2020 00:25:17	26012020	260120	002517	56.340	12.418700	-57.475688	56.200	0.010	-0.270	0.880	56.330	-1.700	1.300																			1579998317.0	0.09	0.17
26/01/2020 00:25:18	26012020	260120	002518	56.270	12.418700	-57.475690	56.160	0.250	-0.250	0.760	56.270	-1.600	1.200																			1579998318.0	0.29	0.54
26/01/2020 00:25:19	26012020	260120	002519	56.270	12.418700	-57.475690	56.180	0.490	-0.300	0.600	56.270	-1.700	1.100																			1579998319.0	0.23	0.43
26/01/2020 00:25:20	26012020	260120	002520	56.310	12.418702	-57.475690	56.280	0.490	-0.180	0.430	56.320	-1.700	0.900																			1579998320.0	0.27	0.50
26/01/2020 00:25:21	26012020	260120	002521	56.430	12.418703	-57.475690	56.360	0.180	0.170	0.310	56.450	-1.400	0.800																			1579998321.0	0.31	0.57
26/01/2020 00:25:22	26012020	260120	002522	56.480	12.418703	-57.475692	56.320	-0.250	0.520	0.380	56.480	-1.000	0.700																			1579998322.0	0.39	0.72
26/01/2020 00:25:23	26012020	260120	002523	56.390	12.418705	-57.475695	56.230	-0.510	0.560	0.600	56.380	-0.800	0.900																			1579998323.0	0.50	0.93
26/01/2020 00:25:24	26012020	260120	002524	56.320	12.418703	-57.475697	56.230	-0.470	0.150	0.810	56.320	-1.000	1.100																			1579998324.0	0.36	0.67
26/01/2020 00:25:25	26012020	260120	002525	56.360	12.418702	-57.475695	56.320	-0.280	-0.430	0.970	56.380	-1.500	1.300																			1579998325.0	0.31	0.57
26/01/2020 00:25:26	26012020	260120	002526	56.450	12.418702	-57.475693	56.400	-0.110	-0.760	1.080	56.460	-2.000	1.400																			1579998326.0	0.54	1.00
26/01/2020 00:25:27	26012020	260120	002527	56.500	12.418700	-57.475690	56.390	-0.030	-0.600	1.130	56.500	-2.100	1.500																			1579998327.0	0.50	0.93
26/01/2020 00:25:28	26012020	260120	002528	56.450	12.418698	-57.475690	56.290	0.030	-0.200	1.120	56.430	-1.800	1.500																			1579998328.0	0.26	0.48
26/01/2020 00:25:29	26012020	260120	002529	56.340	12.418698	-57.475692	56.210	0.150	0.010	0.950	56.320	-1.400	1.500																			1579998329.0	0.42	0.78
26/01/2020 00:25:30	26012020	260120	002530	56.310	12.418697	-57.475693	56.250	0.320	-0.130	0.600	56.320	-1.400	1.200																			1579998330.0	0.37	0.69
26/01/2020 00:25:31	26012020	260120	002531	56.390	12.418700	-57.475695	56.350	0.410	-0.280	0.230	56.420	-1.600	0.800																			1579998331.0	0.47	0.87
26/01/2020 00:25:32	26012020	260120	002532	56.480	12.418702	-57.475695	56.370	0.290	-0.110	0.050	56.490	-1.600	0.500																			1579998332.0	0.66	1.22
26/01/2020 00:25:33	26012020	260120	002533	56.460	12.418705	-57.475695	56.280	-0.010	0.280	0.080	56.450	-1.300	0.500																			1579998333.0	0.40	0.74
26/01/2020 00:25:34	26012020	260120	002534	56.380	12.418705	-57.475697	56.230	-0.320	0.530	0.190	56.370	-1.000	0.500																			1579998334.0	0.29	0.54
26/01/2020 00:25:35	26012020	260120	002535	56.350	12.418703	-57.475698	56.280	-0.400	0.360	0.330	56.350	-0.900	0.700																			1579998335.0	0.42	0.78
26/01/2020 00:25:36	26012020	260120	002536	56.410	12.418703	-57.475698	56.340	-0.160	-0.160	0.550	56.420	-1.300	0.800																			1579998336.0	0.18	0.33
26/01/2020 00:25:37	26012020	260120	002537	56.440	12.418703	-57.475697	56.360	0.180	-0.680	0.800	56.450	-1.800	1.100																			1579998337.0	0.29	0.54
26/01/2020 00:25:38	26012020	260120	002538	56.460	12.418702	-57.475695	56.390	0.330	-0.780	1.010	56.460	-2.200	1.300																			1579998338.0	0.63	1.17
26/01/2020 00:25:39	26012020	260120	002539	56.500	12.418702	-57.475692	56.430	0.140	-0.350	1.160	56.500	-2.000	1.500																			1579998339.0	0.54	1.00
26/01/2020 00:25:40	26012020	260120	002540	56.530	12.418700	-57.475692	56.430	-0.180	0.260	1.240	56.530	-1.400	1.600																			1579998340.0	0.29	0.54
26/01/2020 00:25:41	26012020	260120	002541	56.510	12.418698	-57.475693	56.400	-0.340	0.530	1.190	56.500	-0.900	1.600																			1579998341.0	0.56	1.04
26/01/2020 00:25:42	26012020	260120	002542	56.480	12.418698	-57.475697	56.370	-0.230	0.280	1.060	56.470	-0.900	1.500																			1579998342.0	0.50	0.93
26/01/2020 00:25:43	26012020	260120	002543	56.460	12.418698	-57.475697	56.360	0.000	-0.200	0.860	56.460	-1.400	1.400																			1579998343.0	0.09	0.17
26/01/2020 00:25:44	26012020	260120	002544	56.450	12.418700	-57.475695	56.340	0.140	-0.520	0.570	56.450	-1.800	1.100																			1579998344.0	0.39	0.72
26/01/2020 00:25:45	26012020	260120	002545	56.430	12.418702	-57.475693	56.310	0.110	-0.520	0.290	56.430	-2.000	0.800																			1579998345.0	0.44	0.81
26/01/2020 00:25:46	26012020	260120	002546	56.410	12.418703	-57.475695	56.320	0.020	-0.290	0.170	56.420	-1.800	0.600																			1579998346.0	0.35	0.65
26/01/2020 00:25:47	26012020	260120	002547	56.440	12.418703	-57.475695	56.380	-0.010	-0.070	0.160	56.450	-1.600	0.600																			1579998347.0	0.28	0.52
26/01/2020 00:25:48	26012020	260120	002548	56.500	12.418703	-57.475697	56.400	0.040	0.010	0.190	56.500	-1.400	0.600																			1579998348.0	0.19	0.35
26/01/2020 00:25:49	26012020	260120	002549	56.500	12.418703	-57.475697	56.380	0.150	0.010	0.300	56.490	-1.400	0.600																			1579998349.0	0.03	0.06
26/01/2020 00:25:50	26012020	260120	002550	56.460	12.418703	-57.475695	56.330	0.220	0.030	0.490	56.450	-1.400	0.800																			1579998350.0	0.17	0.31
26/01/2020 00:25:51	26012020	260120	002551	56.410	12.418702	-57.475695	56.290	0.200	0.060	0.730	56.400	-1.400	1.000																			1579998351.0	0.22	0.41
26/01/2020 00:25:52	26012020	260120	002552	56.370	12.418702	-57.475693	56.260	0.080	0.060	0.930	56.350	-1.300	1.300																			1579998352.0	0.22	0.41
26/01/2020 00:25:53	26012020	260120	002553	56.340	12.418702	-57.475693	56.260	-0.090	0.010	1.000	56.340	-1.400	1.400																			1579998353.0	0.16	0.30
26/01/2020 00:25:54	26012020	260120	002554	56.370	12.418702	-57.475693	56.350	-0.190	-0.050	0.970	56.380	-1.400	1.400																			1579998354.0	0.04	0.07
26/01/2020 00:25:55	26012020	260120	002555	56.470	12.418702	-57.475693	56.450	-0.160	-0.140	0.980	56.490	-1.500	1.400																			1579998355.0	0.18	0.33
26/01/2020 00:25:56	26012020	260120	002556	56.550	12.418702	-57.475693	56.470	-0.050	-0.260	1.090	56.550	-1.600	1.400																			1579998356.0	0.04	0.07
26/01/2020 00:25:57	26012020	260120	002557	56.530	12.418702	-57.475693	56.400	0.010	-0.340	1.190	56.510	-1.700	1.600																			1579998357.0	0.30	0.56
26/01/2020 00:25:58	26012020	260120	002558	56.460	12.418700	-57.475692	56.290	-0.080	-0.270	1.220	56.440	-1.700	1.600																			1579998358.0	0.48	0.89
26/01/2020 00:25:59	26012020	260120	002559	56.320	12.418698	-57.475690	56.190	-0.210	-0.070	1.110	56.290	-1.600	1.600	1014.90	25.80	25.80	21.00	21.00	-1.00	74.00	74.00	401.00	25.10	332.00	5.50	28.00	5.50	15	3548.00	27.40	27.40	1579998359.0	0.33	0.61
26/01/2020 00:26:00	26012020	260120	002600	56.230	12.418698	-57.475690	56.150	-0.210	0.030	0.800	56.230	-1.400	1.400																			1579998360.0	0.12	0.22
26/01/2020 00:26:01	26012020	260120	002601	56.230	12.418698	-57.475692	56.160	-0.020	-0.090	0.410	56.230	-1.400	1.000																			1579998361.0	0.29	0.54
26/01/2020 00:26:02	26012020	260120	002602	56.240	12.418700	-57.475692	56.180	0.200	-0.240	0.120	56.250	-1.600	0.700																			1579998362.0	0.39	0.72
26/01/2020 00:26:03	26012020	260120	002603	56.280	12.418703	-57.475692	56.230	0.260	-0.200	-0.050	56.290	-1.600	0.400																			1579998363.0	0.47	0.87
26/01/2020 00:26:04	26012020	260120	002604	56.340	12.418705	-57.475692	56.290	0.190	-0.020	-0.090	56.350	-1.500	0.300																			1579998364.0	0.32	0.59
26/01/2020 00:26:05	26012020	260120	002605	56.380	12.418705	-57.475692	56.280	0.110	0.060	0.060	56.380	-1.400	0.400																			1579998365.0	0.13	0.24
26/01/2020 00:26:06	26012020	260120	002606	56.340	12.418703	-57.475692	56.200	0.100	0.010	0.400	56.320	-1.300	0.600																			1579998366.0	0.11	0.20
26/01/2020 00:26:07	26012020	260120	002607	56.230	12.418703	-57.475692	56.090	0.110	-0.030	0.800	56.210	-1.400	1.000																			1579998367.0	0.27	0.50
26/01/2020 00:26:08	26012020	260120	002608	56.120	12.418702	-57.475690	56.010	0.070	0.010	1.100	56.110	-1.400	1.400																			1579998368.0	0.35	0.65
26/01/2020 00:26:09	26012020	260120	002609	56.050	12.418702	-57.475690	56.000	-0.000	-0.010	1.300	56.050	-1.400	1.600																			1579998369.0	0.19	0.35
26/01/2020 00:26:10	26012020	260120	002610	56.060	12.418702	-57.475690	56.130	-0.030	-0.240	1.390	56.080	-1.500	1.800																			1579998370.0	0.08	0.15
26/01/2020 00:26:11	26012020	260120	002611	56.260	12.418702	-57.475690	56.340	-0.030	-0.480	1.390	56.290	-1.800	1.800																			1579998371.0	0.11	0.20
26/01/2020 00:26:12	26012020	260120	002612	56.410	12.418702	-57.475687	56.430	-0.130	-0.390	1.360	56.440	-1.900	1.800																			1579998372.0	0.41	0.76
26/01/2020 00:26:13	26012020	260120	002613	56.460	12.418700	-57.475685	56.330	-0.310	0.050	1.390	56.450	-1.600	1.800																			1579998373.0	0.40	0.74
26/01/2020 00:26:14	26012020	260120	002614	56.310	12.418698	-57.475685	56.140	-0.430	0.360	1.380	56.270	-1.100	1.800																			1579998374.0	0.47	0.87
26/01/2020 00:26:15	26012020	260120	002615	56.110	12.418695	-57.475687	55.980	-0.340	0.220	1.110	56.090	-1.000	1.700																			1579998375.0	0.57	1.06
26/01/2020 00:26:16	26012020	260120	002616	56.010	12.418695	-57.475687	55.940	-0.050	-0.200	0.570	56.000	-1.400	1.300																			1579998376.0	0.13	0.24
26/01/2020 00:26:17	26012020	260120	002617	56.030	12.418697	-57.475685	56.000	0.260	-0.500	-0.040	56.050	-1.800	0.700																			1579998377.0	0.48	0.89
26/01/2020 00:26:18	26012020	260120	002618	56.100	12.418702	-57.475687	56.030	0.380	-0.450	-0.530	56.110	-1.900	0.100																			1579998378.0	0.82	1.52
26/01/2020 00:26:19	26012020	260120	002619	56.120	12.418705	-57.475687	56.010	0.300	-0.140	-0.780	56.120	-1.700	-0.300																			1579998379.0	0.81	1.50
26/01/2020 00:26:20	26012020	260120	002620	56.100	12.418707	-57.475690	55.980	0.180	0.120	-0.660	56.090	-1.400	-0.300																			1579998380.0	0.71	1.31
26/01/2020 00:26:21	26012020	260120	002621	56.080	12.418708	-57.475692	56.020	0.150	0.110	-0.210	56.090	-1.200	-0.000																			1579998381.0	0.46	0.85
26/01/2020 00:26:22	26012020	260120	002622	56.130	12.418707	-57.475692	56.120	0.160	-0.080	0.450	56.150	-1.400	0.500																			1579998382.0	0.13	0.24
26/01/2020 00:26:23	26012020	260120	002623	56.210	12.418705	-57.475690	56.110	0.050	-0.190	1.250	56.200	-1.500	1.300																			1579998383.0	0.66	1.22
26/01/2020 00:26:24	26012020	260120	002624	56.150	12.418702	-57.475685	55.960	-0.150	-0.120	2.050	56.110	-1.500	2.100																			1579998384.0	0.98	1.81
26/01/2020 00:26:25	26012020	260120	002625	55.930	12.418698	-57.475683	55.830	-0.280	-0.040	2.610	55.900	-1.400	2.800																			1579998385.0	1.05	1.94
26/01/2020 00:26:26	26012020	260120	002626	55.830	12.418695	-57.475682	55.850	-0.230	-0.170	2.700	55.840	-1.500	3.100																			1579998386.0	0.94	1.74
26/01/2020 00:26:27	26012020	260120	002627	55.920	12.418692	-57.475678	55.980	-0.110	-0.300	2.310	55.950	-1.600	3.000																			1579998387.0	0.63	1.17
26/01/2020 00:26:28	26012020	260120	002628	56.060	12.418692	-57.475678	56.040	-0.090	-0.120	1.620	56.070	-1.600	2.400																			1579998388.0	0.29	0.54
26/01/2020 00:26:29	26012020	260120	002629	56.070	12.418693	-57.475678	55.940	-0.180	0.290	0.840	56.060	-1.300	1.600																			1579998389.0	0.33	0.61
26/01/2020 00:26:30	26012020	260120	002630	55.950	12.418695	-57.475682	55.760	-0.190	0.430	0.040	55.910	-1.000	0.800																			1579998390.0	0.78	1.44
26/01/2020 00:26:31	26012020	260120	002631	55.790	12.418698	-57.475685	55.670	0.000	-0.000	-0.740	55.770	-1.100	0.000																			1579998391.0	1.01	1.87
26/01/2020 00:26:32	26012020	260120	002632	55.780	12.418702	-57.475688	55.740	0.320	-0.640	-1.280	55.790	-1.700	-0.600																			1579998392.0	1.03	1.91
26/01/2020 00:26:33	26012020	260120	002633	55.880	12.418707	-57.475688	55.830	0.480	-0.800	-1.320	55.900	-2.200	-0.900																			1579998393.0	1.11	2.06
26/01/2020 00:26:34	26012020	260120	002634	55.930	12.418710	-57.475688	55.790	0.320	-0.350	-0.860	55.930	-2.000	-0.700																			1579998394.0	0.71	1.31
26/01/2020 00:26:35	26012020	260120	002635	55.820	12.418710	-57.475688	55.580	-0.040	0.220	-0.000	55.770	-1.400	-0.100																			1579998395.0	0.19	0.35
26/01/2020 00:26:36	26012020	260120	002636	55.600	12.418705	-57.475688	55.340	-0.300	0.380	1.040	55.550	-1.000	0.900																			1579998396.0	0.84	1.56
26/01/2020 00:26:37	26012020	260120	002637	55.350	12.418702	-57.475687	55.350	-0.260	-0.020	1.930	55.350	-1.200	1.900																			1579998397.0	1.01	1.87
26/01/2020 00:26:38	26012020	260120	002638	55.460	12.418697	-57.475683	55.600	-0.010	-0.490	2.510	55.500	-1.700	2.700																			1579998398.0	1.07	1.98
26/01/2020 00:26:39	26012020	260120	002639	55.710	12.418695	-57.475678	55.760	0.120	-0.400	2.840	55.740	-1.900	3.100																			1579998399.0	1.18	2.19
26/01/2020 00:26:40	26012020	260120	002640	55.770	12.418693	-57.475675	55.640	-0.030	0.250	2.840	55.740	-1.500	3.300																			1579998400.0	0.95	1.76
26/01/2020 00:26:41	26012020	260120	002641	55.570	12.418690	-57.475675	55.370	-0.260	0.690	2.410	55.510	-0.800	3.100																			1579998401.0	0.71	1.31
26/01/2020 00:26:42	26012020	260120	002642	55.320	12.418688	-57.475678	55.180	-0.240	0.350	1.550	55.280	-0.800	2.400																			1579998402.0	0.77	1.43
26/01/2020 00:26:43	26012020	260120	002643	55.220	12.418690	-57.475682	55.180	0.060	-0.490	0.370	55.220	-1.500	1.400																			1579998403.0	0.77	1.43
26/01/2020 00:26:44	26012020	260120	002644	55.310	12.418697	-57.475682	55.330	0.330	-0.950	-0.870	55.350	-2.200	0.100																			1579998404.0	1.41	2.61
26/01/2020 00:26:45	26012020	260120	002645	55.500	12.418705	-57.475683	55.440	0.290	-0.610	-1.760	55.530	-2.300	-1.000																			1579998405.0	1.74	3.22
26/01/2020 00:26:46	26012020	260120	002646	55.560	12.418710	-57.475688	55.380	0.020	0.130	-1.890	55.550	-1.600	-1.500																			1579998406.0	1.53	2.83
26/01/2020 00:26:47	26012020	260120	002647	55.450	12.418712	-57.475693	55.240	-0.150	0.470	-1.270	55.420	-1.000	-1.200																			1579998407.0	1.12	2.07
26/01/2020 00:26:48	26012020	260120	002648	55.340	12.418710	-57.475695	55.220	-0.060	0.070	-0.310	55.330	-1.100	-0.400																			1579998408.0	0.71	1.31
26/01/2020 00:26:49	26012020	260120	002649	55.330	12.418705	-57.475693	55.290	0.150	-0.540	0.740	55.340	-1.700	0.600																			1579998409.0	0.98	1.81
26/01/2020 00:26:50	26012020	260120	002650	55.370	12.418702	-57.475687	55.310	0.200	-0.620	1.780	55.370	-2.100	1.700																			1579998410.0	1.47	2.72
26/01/2020 00:26:51	26012020	260120	002651	55.350	12.418698	-57.475682	55.290	-0.000	-0.130	2.650	55.340	-1.800	2.700																			1579998411.0	1.39	2.57
26/01/2020 00:26:52	26012020	260120	002652	55.330	12.418693	-57.475678	55.310	-0.270	0.440	3.140	55.330	-1.200	3.400																			1579998412.0	1.11	2.06
26/01/2020 00:26:53	26012020	260120	002653	55.350	12.418690	-57.475680	55.370	-0.340	0.600	3.150	55.370	-0.800	3.600																			1579998413.0	0.94	1.74
26/01/2020 00:26:54	26012020	260120	002654	55.420	12.418687	-57.475682	55.410	-0.200	0.280	2.710	55.430	-0.900	3.400																			1579998414.0	0.56	1.04
26/01/2020 00:26:55	26012020	260120	002655	55.450	12.418688	-57.475682	55.370	0.020	-0.270	1.960	55.440	-1.400	2.800																			1579998415.0	0.14	0.26
26/01/2020 00:26:56	26012020	260120	002656	55.410	12.418690	-57.475682	55.300	0.180	-0.710	1.020	55.400	-1.900	1.900																			1579998416.0	0.59	1.09
26/01/2020 00:26:57	26012020	260120	002657	55.370	12.418695	-57.475683	55.220	0.260	-0.790	0.110	55.360	-2.200	1.000																			1579998417.0	0.96	1.78
26/01/2020 00:26:58	26012020	260120	002658	55.320	12.418700	-57.475685	55.110	0.260	-0.440	-0.540	55.300	-2.100	0.200																			1579998418.0	1.19	2.20
26/01/2020 00:26:59	26012020	260120	002659	55.210	12.418703	-57.475688	55.040	0.210	0.070	-0.860	55.200	-1.600	-0.300	1014.90	25.80	25.80	21.50	21.50	-1.00	77.00	77.00	400.00	25.10	324.00	6.50	18.00	6.20	15	3483.00	27.50	27.40	1579998419.0	1.14	2.11
26/01/2020 00:27:00	26012020	260120	002700	55.170	12.418705	-57.475693	55.020	0.070	0.390	-0.890	55.170	-1.100	-0.500																			1579998420.0	0.88	1.63
26/01/2020 00:27:01	26012020	260120	002701	55.170	12.418707	-57.475695	55.060	-0.160	0.450	-0.670	55.170	-1.000	-0.400																			1579998421.0	0.52	0.96
26/01/2020 00:27:02	26012020	260120	002702	55.200	12.418707	-57.475697	55.130	-0.330	0.300	-0.190	55.220	-1.000	-0.000																			1579998422.0	0.20	0.37
26/01/2020 00:27:03	26012020	260120	002703	55.270	12.418705	-57.475695	55.160	-0.310	0.000	0.580	55.270	-1.200	0.600																			1579998423.0	0.28	0.52
26/01/2020 00:27:04	26012020	260120	002704	55.260	12.418702	-57.475693	55.150	-0.080	-0.390	1.500	55.260	-1.600	1.400																			1579998424.0	0.67	1.24
26/01/2020 00:27:05	26012020	260120	002705	55.220	12.418698	-57.475690	55.120	0.190	-0.710	2.290	55.210	-2.000	2.300																			1579998425.0	1.00	1.85
26/01/2020 00:27:06	26012020	260120	002706	55.150	12.418697	-57.475687	55.040	0.330	-0.790	2.680	55.140	-2.200	2.900																			1579998426.0	1.08	2.00
26/01/2020 00:27:07	26012020	260120	002707	55.070	12.418693	-57.475683	54.990	0.270	-0.520	2.580	55.070	-2.100	3.100																			1579998427.0	0.77	1.43
26/01/2020 00:27:08	26012020	260120	002708	55.030	12.418693	-57.475682	54.920	0.080	0.050	2.110	55.020	-1.700	2.800																			1579998428.0	0.16	0.30
26/01/2020 00:27:09	26012020	260120	002709	54.970	12.418695	-57.475685	54.870	-0.140	0.610	1.350	54.960	-1.000	2.200																			1579998429.0	0.49	0.91
26/01/2020 00:27:10	26012020	260120	002710	54.980	12.418697	-57.475688	55.010	-0.260	0.730	0.290	55.010	-0.700	1.300																			1579998430.0	0.94	1.74
26/01/2020 00:27:11	26012020	260120	002711	55.240	12.418700	-57.475693	55.360	-0.270	0.370	-0.810	55.320	-0.800	0.100																			1579998431.0	1.20	2.22
26/01/2020 00:27:12	26012020	260120	002712	55.550	12.418705	-57.475697	55.640	-0.210	-0.060	-1.450	55.620	-1.300	-0.800																			1579998432.0	1.30	2.41
26/01/2020 00:27:13	26012020	260120	002713	55.800	12.418710	-57.475697	55.580	-0.160	-0.300	-1.370	55.790	-1.600	-1.100																			1579998433.0	0.97	1.80
26/01/2020 00:27:14	26012020	260120	002714	55.680	12.418710	-57.475697	55.310	-0.090	-0.470	-0.790	55.620	-1.800	-0.700																			1579998434.0	0.15	0.28
26/01/2020 00:27:15	26012020	260120	002715	55.340	12.418708	-57.475697	55.130	0.060	-0.710	-0.100	55.300	-2.000	-0.000																			1579998435.0	0.49	0.91
26/01/2020 00:27:16	26012020	260120	002716	55.210	12.418707	-57.475695	55.160	0.260	-0.820	0.570	55.220	-2.200	0.600																			1579998436.0	0.65	1.20
26/01/2020 00:27:17	26012020	260120	002717	55.300	12.418705	-57.475692	55.320	0.400	-0.560	1.240	55.330	-2.100	1.300																			1579998437.0	0.67	1.24
26/01/2020 00:27:18	26012020	260120	002718	55.440	12.418702	-57.475690	55.410	0.350	0.020	1.830	55.450	-1.700	2.000																			1579998438.0	0.67	1.24
26/01/2020 00:27:19	26012020	260120	002719	55.450	12.418698	-57.475688	55.310	0.150	0.570	2.200	55.430	-1.100	2.500																			1579998439.0	0.76	1.41
26/01/2020 00:27:20	26012020	260120	002720	55.300	12.418695	-57.475688	55.130	-0.050	0.730	2.190	55.260	-0.700	2.600																			1579998440.0	0.72	1.33
26/01/2020 00:27:21	26012020	260120	002721	55.160	12.418695	-57.475690	55.110	-0.090	0.350	1.800	55.150	-0.800	2.400																			1579998441.0	0.32	0.59
26/01/2020 00:27:22	26012020	260120	002722	55.220	12.418697	-57.475690	55.280	-0.010	-0.280	1.230	55.260	-1.400	1.900																			1579998442.0	0.48	0.89
26/01/2020 00:27:23	26012020	260120	002723	55.440	12.418700	-57.475690	55.480	-0.020	-0.580	0.730	55.490	-1.900	1.400																			1579998443.0	0.87	1.61
26/01/2020 00:27:24	26012020	260120	002724	55.610	12.418703	-57.475690	55.490	-0.210	-0.290	0.370	55.610	-1.900	0.900																			1579998444.0	0.71	1.31
26/01/2020 00:27:25	26012020	260120	002725	55.530	12.418705	-57.475692	55.250	-0.390	0.160	0.220	55.480	-1.400	0.700																			1579998445.0	0.41	0.76
26/01/2020 00:27:26	26012020	260120	002726	55.230	12.418703	-57.475695	54.920	-0.320	0.190	0.230	55.170	-1.200	0.600																			1579998446.0	0.68	1.26
26/01/2020 00:27:27	26012020	260120	002727	54.920	12.418703	-57.475697	54.680	-0.010	-0.250	0.320	54.870	-1.400	0.700																			1579998447.0	0.45	0.83
26/01/2020 00:27:28	26012020	260120	002728	54.740	12.418703	-57.475695	54.610	0.260	-0.650	0.380	54.720	-1.900	0.800																			1579998448.0	0.20	0.37
26/01/2020 00:27:29	26012020	260120	002729	54.720	12.418703	-57.475693	54.650	0.310	-0.600	0.390	54.730	-2.100	0.800																			1579998449.0	0.51	0.94
26/01/2020 00:27:30	26012020	260120	002730	54.780	12.418705	-57.475693	54.690	0.190	-0.160	0.470	54.790	-1.800	0.800																			1579998450.0	0.28	0.52
26/01/2020 00:27:31	26012020	260120	002731	54.790	12.418705	-57.475693	54.630	0.060	0.270	0.670	54.770	-1.300	1.000																			1579998451.0	0.23	0.43
26/01/2020 00:27:32	26012020	260120	002732	54.680	12.418703	-57.475695	54.470	0.010	0.400	0.920	54.650	-1.000	1.200																			1579998452.0	0.40	0.74
26/01/2020 00:27:33	26012020	260120	002733	54.510	12.418703	-57.475695	54.300	0.010	0.210	1.100	54.480	-1.100	1.400																			1579998453.0	0.24	0.44
26/01/2020 00:27:34	26012020	260120	002734	54.360	12.418703	-57.475695	54.220	0.030	-0.130	1.210	54.340	-1.400	1.600																			1579998454.0	0.16	0.30
26/01/2020 00:27:35	26012020	260120	002735	54.320	12.418703	-57.475693	54.210	0.040	-0.320	1.300	54.320	-1.600	1.700																			1579998455.0	0.34	0.63
26/01/2020 00:27:36	26012020	260120	002736	54.300	12.418705	-57.475693	54.160	0.010	-0.280	1.320	54.290	-1.700	1.700																			1579998456.0	0.29	0.54
26/01/2020 00:27:37	26012020	260120	002737	54.230	12.418705	-57.475692	54.090	-0.070	-0.130	1.130	54.220	-1.600	1.700																			1579998457.0	0.08	0.15
26/01/2020 00:27:38	26012020	260120	002738	54.180	12.418705	-57.475693	54.070	-0.140	0.000	0.790	54.180	-1.400	1.400																			1579998458.0	0.18	0.33
26/01/2020 00:27:39	26012020	260120	002739	54.200	12.418707	-57.475695	54.130	-0.150	-0.030	0.490	54.210	-1.400	1.000																			1579998459.0	0.42	0.78
26/01/2020 00:27:40	26012020	260120	002740	54.300	12.418707	-57.475697	54.290	-0.080	-0.240	0.200	54.330	-1.500	0.800																			1579998460.0	0.40	0.74
26/01/2020 00:27:41	26012020	260120	002741	54.480	12.418708	-57.475697	54.460	-0.020	-0.370	-0.030	54.520	-1.700	0.500																			1579998461.0	0.32	0.59
26/01/2020 00:27:42	26012020	260120	002742	54.610	12.418710	-57.475695	54.480	-0.010	-0.160	0.010	54.620	-1.700	0.400																			1579998462.0	0.36	0.67
26/01/2020 00:27:43	26012020	260120	002743	54.570	12.418710	-57.475695	54.420	-0.040	0.210	0.270	54.560	-1.400	0.500																			1579998463.0	0.05	0.09
26/01/2020 00:27:44	26012020	260120	002744	54.540	12.418708	-57.475697	54.510	-0.010	0.230	0.410	54.560	-1.100	0.800																			1579998464.0	0.41	0.76
26/01/2020 00:27:45	26012020	260120	002745	54.690	12.418707	-57.475697	54.710	0.080	-0.090	0.450	54.730	-1.300	0.800																			1579998465.0	0.36	0.67
26/01/2020 00:27:46	26012020	260120	002746	54.890	12.418707	-57.475695	54.830	0.150	-0.330	0.640	54.920	-1.600	0.900																			1579998466.0	0.19	0.35
26/01/2020 00:27:47	26012020	260120	002747	54.950	12.418708	-57.475695	54.820	0.120	-0.280	1.000	54.940	-1.700	1.200																			1579998467.0	0.34	0.63
26/01/2020 00:27:48	26012020	260120	002748	54.900	12.418708	-57.475693	54.820	0.020	-0.120	1.290	54.900	-1.600	1.600																			1579998468.0	0.18	0.33
26/01/2020 00:27:49	26012020	260120	002749	54.940	12.418707	-57.475693	54.940	-0.020	-0.110	1.360	54.960	-1.500	1.800																			1579998469.0	0.29	0.54
26/01/2020 00:27:50	26012020	260120	002750	55.060	12.418707	-57.475693	55.100	0.030	-0.220	1.340	55.090	-1.500	1.800																			1579998470.0	0.13	0.24
26/01/2020 00:27:51	26012020	260120	002751	55.230	12.418707	-57.475693	55.210	0.050	-0.200	1.310	55.260	-1.600	1.700																			1579998471.0	0.15	0.28
26/01/2020 00:27:52	26012020	260120	002752	55.320	12.418707	-57.475693	55.280	-0.030	-0.000	1.240	55.330	-1.500	1.700																			1579998472.0	0.19	0.35
26/01/2020 00:27:53	26012020	260120	002753	55.390	12.418707	-57.475693	55.330	-0.150	0.200	1.070	55.390	-1.300	1.600																			1579998473.0	0.03	0.06
26/01/2020 00:27:54	26012020	260120	002754	55.470	12.418707	-57.475693	55.460	-0.170	0.140	0.740	55.500	-1.200	1.300																			1579998474.0	0.24	0.44
26/01/2020 00:27:55	26012020	260120	002755	55.610	12.418707	-57.475695	55.560	-0.050	-0.150	0.420	55.640	-1.400	1.000																			1579998475.0	0.18	0.33
26/01/2020 00:27:56	26012020	260120	002756	55.660	12.418708	-57.475695	55.510	0.060	-0.300	0.260	55.660	-1.600	0.700																			1579998476.0	0.31	0.57
26/01/2020 00:27:57	26012020	260120	002757	55.570	12.418710	-57.475695	55.380	0.090	-0.190	0.260	55.540	-1.700	0.700																			1579998477.0	0.35	0.65
26/01/2020 00:27:58	26012020	260120	002758	55.440	12.418710	-57.475695	55.300	0.070	-0.080	0.310	55.420	-1.500	0.700																			1579998478.0	0.18	0.33
26/01/2020 00:27:59	26012020	260120	002759	55.380	12.418710	-57.475695	55.250	0.080	-0.150	0.350	55.370	-1.500	0.700	1014.90	25.60	25.60	22.10	22.00	-1.00	81.00	80.00	400.00	25.10	322.00	6.60	17.00	6.40	15	3560.00	27.50	27.40	1579998479.0	0.18	0.33
26/01/2020 00:28:00	26012020	260120	002800	55.330	12.418710	-57.475695	55.190	0.100	-0.260	0.480	55.320	-1.600	0.800																			1579998480.0	0.06	0.11
26/01/2020 00:28:01	26012020	260120	002801	55.250	12.418712	-57.475695	55.110	0.090	-0.230	0.700	55.230	-1.600	1.000																			1579998481.0	0.24	0.44
26/01/2020 00:28:02	26012020	260120	002802	55.200	12.418712	-57.475693	55.150	-0.020	-0.060	0.860	55.200	-1.500	1.200																			1579998482.0	0.21	0.39
26/01/2020 00:28:03	26012020	260120	002803	55.270	12.418712	-57.475693	55.300	-0.170	0.110	0.920	55.310	-1.300	1.300																			1579998483.0	0.06	0.11
26/01/2020 00:28:04	26012020	260120	002804	55.410	12.418712	-57.475695	55.410	-0.270	0.200	1.080	55.440	-1.200	1.400																			1579998484.0	0.12	0.22
26/01/2020 00:28:05	26012020	260120	002805	55.490	12.418710	-57.475693	55.350	-0.240	0.150	1.340	55.470	-1.200	1.600																			1579998485.0	0.22	0.41
26/01/2020 00:28:06	26012020	260120	002806	55.340	12.418708	-57.475693	55.150	-0.110	-0.080	1.490	55.310	-1.300	1.800																			1579998486.0	0.48	0.89
26/01/2020 00:28:07	26012020	260120	002807	55.170	12.418707	-57.475692	55.070	0.040	-0.370	1.370	55.150	-1.600	1.900																			1579998487.0	0.54	1.00
26/01/2020 00:28:08	26012020	260120	002808	55.160	12.418707	-57.475690	55.150	0.140	-0.460	1.000	55.180	-1.800	1.600																			1579998488.0	0.34	0.63
26/01/2020 00:28:09	26012020	260120	002809	55.260	12.418708	-57.475688	55.210	0.180	-0.230	0.550	55.280	-1.800	1.200																			1579998489.0	0.37	0.69
26/01/2020 00:28:10	26012020	260120	002810	55.300	12.418710	-57.475692	55.180	0.200	0.030	0.120	55.290	-1.500	0.700																			1579998490.0	0.60	1.11
26/01/2020 00:28:11	26012020	260120	002811	55.250	12.418712	-57.475693	55.100	0.240	-0.030	-0.230	55.230	-1.300	0.300																			1579998491.0	0.73	1.35
26/01/2020 00:28:12	26012020	260120	002812	55.190	12.418715	-57.475695	55.080	0.230	-0.310	-0.350	55.180	-1.600	0.100																			1579998492.0	0.64	1.19
26/01/2020 00:28:13	26012020	260120	002813	55.200	12.418717	-57.475695	55.140	0.090	-0.380	-0.170	55.200	-1.800	0.100																			1579998493.0	0.64	1.19
26/01/2020 00:28:14	26012020	260120	002814	55.270	12.418720	-57.475695	55.240	-0.170	-0.100	0.300	55.290	-1.600	0.400																			1579998494.0	0.43	0.80
26/01/2020 00:28:15	26012020	260120	002815	55.350	12.418718	-57.475693	55.310	-0.410	0.270	0.900	55.370	-1.300	1.000																			1579998495.0	0.38	0.70
26/01/2020 00:28:16	26012020	260120	002816	55.400	12.418713	-57.475692	55.370	-0.540	0.450	1.400	55.400	-1.000	1.600																			1579998496.0	0.94	1.74
26/01/2020 00:28:17	26012020	260120	002817	55.450	12.418708	-57.475690	55.410	-0.490	0.330	1.730	55.460	-1.000	2.000																			1579998497.0	1.19	2.20
26/01/2020 00:28:18	26012020	260120	002818	55.480	12.418705	-57.475688	55.410	-0.240	-0.020	1.860	55.480	-1.200	2.200																			1579998498.0	1.00	1.85
26/01/2020 00:28:19	26012020	260120	002819	55.470	12.418702	-57.475687	55.390	0.160	-0.490	1.670	55.460	-1.600	2.200																			1579998499.0	0.60	1.11
26/01/2020 00:28:20	26012020	260120	002820	55.460	12.418703	-57.475685	55.380	0.550	-0.800	1.210	55.460	-2.100	1.900																			1579998500.0	0.27	0.50
26/01/2020 00:28:21	26012020	260120	002821	55.450	12.418707	-57.475685	55.320	0.710	-0.670	0.730	55.440	-2.200	1.400																			1579998501.0	0.75	1.39
26/01/2020 00:28:22	26012020	260120	002822	55.390	12.418710	-57.475687	55.260	0.540	-0.170	0.370	55.380	-1.800	0.900																			1579998502.0	1.00	1.85
26/01/2020 00:28:23	26012020	260120	002823	55.360	12.418713	-57.475690	55.290	0.140	0.280	0.120	55.370	-1.300	0.600																			1579998503.0	0.89	1.65
26/01/2020 00:28:24	26012020	260120	002824	55.430	12.418713	-57.475693	55.400	-0.270	0.380	0.010	55.450	-1.000	0.400																			1579998504.0	0.69	1.28
26/01/2020 00:28:25	26012020	260120	002825	55.550	12.418713	-57.475695	55.490	-0.510	0.200	0.170	55.570	-1.100	0.500																			1579998505.0	0.28	0.52
26/01/2020 00:28:26	26012020	260120	002826	55.590	12.418713	-57.475695	55.430	-0.520	-0.020	0.650	55.570	-1.300	0.800																			1579998506.0	0.26	0.48
26/01/2020 00:28:27	26012020	260120	002827	55.470	12.418712	-57.475692	55.300	-0.340	-0.150	1.210	55.440	-1.500	1.300																			1579998507.0	0.65	1.20
26/01/2020 00:28:28	26012020	260120	002828	55.350	12.418708	-57.475690	55.230	-0.070	-0.280	1.530	55.330	-1.600	1.800																			1579998508.0	0.84	1.56
26/01/2020 00:28:29	26012020	260120	002829	55.310	12.418705	-57.475687	55.270	0.170	-0.430	1.570	55.320	-1.700	2.000																			1579998509.0	0.73	1.35
26/01/2020 00:28:30	26012020	260120	002830	55.360	12.418705	-57.475687	55.300	0.310	-0.470	1.500	55.370	-1.900	1.900																			1579998510.0	0.40	0.74
26/01/2020 00:28:31	26012020	260120	002831	55.340	12.418705	-57.475685	55.170	0.300	-0.240	1.420	55.320	-1.800	1.900																			1579998511.0	0.18	0.33
26/01/2020 00:28:32	26012020	260120	002832	55.160	12.418705	-57.475685	54.920	0.160	0.180	1.310	55.110	-1.400	1.800																			1579998512.0	0.10	0.19
26/01/2020 00:28:33	26012020	260120	002833	54.930	12.418705	-57.475687	54.770	-0.040	0.430	1.020	54.890	-1.000	1.600																			1579998513.0	0.30	0.56
26/01/2020 00:28:34	26012020	260120	002834	54.850	12.418705	-57.475688	54.810	-0.190	0.310	0.470	54.860	-1.000	1.200																			1579998514.0	0.45	0.83
26/01/2020 00:28:35	26012020	260120	002835	54.980	12.418708	-57.475692	55.000	-0.210	-0.040	-0.100	55.020	-1.200	0.600																			1579998515.0	0.67	1.24
26/01/2020 00:28:36	26012020	260120	002836	55.180	12.418712	-57.475693	55.150	-0.110	-0.310	-0.350	55.220	-1.600	0.100																			1579998516.0	0.89	1.65
26/01/2020 00:28:37	26012020	260120	002837	55.290	12.418715	-57.475693	55.150	0.020	-0.360	-0.210	55.290	-1.700	0.100																			1579998517.0	0.66	1.22
26/01/2020 00:28:38	26012020	260120	002838	55.230	12.418715	-57.475693	55.030	0.080	-0.310	0.270	55.210	-1.700	0.400																			1579998518.0	0.08	0.15
26/01/2020 00:28:39	26012020	260120	002839	55.090	12.418712	-57.475692	54.910	0.070	-0.310	0.890	55.060	-1.700	1.000																			1579998519.0	0.58	1.07
26/01/2020 00:28:40	26012020	260120	002840	54.980	12.418708	-57.475688	54.890	0.010	-0.320	1.400	54.980	-1.700	1.600																			1579998520.0	0.87	1.61
26/01/2020 00:28:41	26012020	260120	002841	55.000	12.418707	-57.475687	55.010	-0.010	-0.220	1.550	55.030	-1.700	1.900																			1579998521.0	0.76	1.41
26/01/2020 00:28:42	26012020	260120	002842	55.120	12.418705	-57.475685	55.180	0.040	0.010	1.480	55.160	-1.500	1.900																			1579998522.0	0.39	0.72
26/01/2020 00:28:43	26012020	260120	002843	55.320	12.418705	-57.475685	55.330	0.110	0.180	1.330	55.350	-1.300	1.800																			1579998523.0	0.05	0.09
26/01/2020 00:28:44	26012020	260120	002844	55.460	12.418705	-57.475685	55.440	0.100	0.180	1.130	55.490	-1.200	1.600																			1579998524.0	0.10	0.19
26/01/2020 00:28:45	26012020	260120	002845	55.570	12.418705	-57.475685	55.530	-0.010	0.050	0.850	55.590	-1.300	1.400																			1579998525.0	0.03	0.06
26/01/2020 00:28:46	26012020	260120	002846	55.660	12.418707	-57.475685	55.590	-0.110	-0.060	0.530	55.670	-1.400	1.100																			1579998526.0	0.18	0.33
26/01/2020 00:28:47	26012020	260120	002847	55.720	12.418707	-57.475687	55.640	-0.120	-0.070	0.260	55.730	-1.500	0.800																			1579998527.0	0.35	0.65
26/01/2020 00:28:48	26012020	260120	002848	55.760	12.418708	-57.475687	55.670	-0.070	-0.000	0.170	55.770	-1.400	0.600																			1579998528.0	0.42	0.78
26/01/2020 00:28:49	26012020	260120	002849	55.780	12.418710	-57.475688	55.700	-0.050	-0.020	0.280	55.790	-1.400	0.600																			1579998529.0	0.36	0.67
26/01/2020 00:28:50	26012020	260120	002850	55.820	12.418710	-57.475690	55.780	-0.050	-0.270	0.470	55.830	-1.500	0.800																			1579998530.0	0.22	0.41
26/01/2020 00:28:51	26012020	260120	002851	55.910	12.418710	-57.475690	55.890	-0.020	-0.600	0.690	55.930	-1.800	1.000																			1579998531.0	0.11	0.20
26/01/2020 00:28:52	26012020	260120	002852	56.000	12.418708	-57.475688	55.960	0.070	-0.670	1.010	56.010	-2.100	1.200																			1579998532.0	0.37	0.69
26/01/2020 00:28:53	26012020	260120	002853	56.020	12.418708	-57.475685	55.920	0.100	-0.330	1.440	56.010	-1.900	1.600																			1579998533.0	0.58	1.07
26/01/2020 00:28:54	26012020	260120	002854	55.940	12.418705	-57.475683	55.810	0.020	0.200	1.810	55.910	-1.400	2.100																			1579998534.0	0.72	1.33
26/01/2020 00:28:55	26012020	260120	002855	55.810	12.418702	-57.475683	55.710	-0.080	0.500	1.870	55.790	-1.000	2.300																			1579998535.0	0.74	1.37
26/01/2020 00:28:56	26012020	260120	002856	55.760	12.418700	-57.475683	55.730	-0.040	0.380	1.510	55.760	-0.900	2.100																			1579998536.0	0.44	0.81
26/01/2020 00:28:57	26012020	260120	002857	55.820	12.418700	-57.475685	55.820	0.130	-0.030	0.900	55.840	-1.200	1.600																			1579998537.0	0.25	0.46
26/01/2020 00:28:58	26012020	260120	002858	55.940	12.418703	-57.475685	55.910	0.250	-0.350	0.330	55.960	-1.600	1.000																			1579998538.0	0.71	1.31
26/01/2020 00:28:59	26012020	260120	002859	56.020	12.418708	-57.475685	55.890	0.180	-0.390	0.050	56.010	-1.800	0.600	1014.90	25.50	25.50	22.10	22.00	-1.00	81.00	81.00	400.00	25.10	320.00	6.70	14.00	6.50	15	3582.00	27.40	27.40	1579998539.0	0.82	1.52
26/01/2020 00:29:00	26012020	260120	002900	55.940	12.418710	-57.475685	55.720	-0.020	-0.250	0.090	55.900	-1.700	0.500																			1579998540.0	0.50	0.93
26/01/2020 00:29:01	26012020	260120	002901	55.730	12.418710	-57.475687	55.520	-0.140	-0.150	0.260	55.680	-1.600	0.600																			1579998541.0	0.15	0.28
26/01/2020 00:29:02	26012020	260120	002902	55.550	12.418710	-57.475687	55.420	-0.090	-0.100	0.490	55.530	-1.500	0.800																			1579998542.0	0.14	0.26
26/01/2020 00:29:03	26012020	260120	002903	55.490	12.418708	-57.475687	55.450	-0.000	-0.030	0.660	55.490	-1.400	1.000																			1579998543.0	0.21	0.39
26/01/2020 00:29:04	26012020	260120	002904	55.550	12.418708	-57.475685	55.530	-0.030	0.060	0.730	55.560	-1.400	1.100																			1579998544.0	0.29	0.54
26/01/2020 00:29:05	26012020	260120	002905	55.620	12.418707	-57.475685	55.550	-0.180	0.140	0.790	55.620	-1.300	1.200																			1579998545.0	0.20	0.37
26/01/2020 00:29:06	26012020	260120	002906	55.610	12.418707	-57.475685	55.500	-0.300	0.150	0.960	55.600	-1.200	1.300																			1579998546.0	0.07	0.13
26/01/2020 00:29:07	26012020	260120	002907	55.540	12.418707	-57.475685	55.490	-0.280	0.000	1.170	55.540	-1.300	1.500																			1579998547.0	0.10	0.19
26/01/2020 00:29:08	26012020	260120	002908	55.570	12.418705	-57.475683	55.590	-0.110	-0.340	1.220	55.590	-1.500	1.600																			1579998548.0	0.20	0.37
26/01/2020 00:29:09	26012020	260120	002909	55.690	12.418705	-57.475683	55.710	0.100	-0.660	1.120	55.720	-1.900	1.600																			1579998549.0	0.36	0.67
26/01/2020 00:29:10	26012020	260120	002910	55.810	12.418705	-57.475680	55.770	0.230	-0.650	0.980	55.820	-2.100	1.400																			1579998550.0	0.47	0.87
26/01/2020 00:29:11	26012020	260120	002911	55.840	12.418705	-57.475678	55.750	0.230	-0.260	0.910	55.830	-1.900	1.300																			1579998551.0	0.34	0.63
26/01/2020 00:29:12	26012020	260120	002912	55.780	12.418703	-57.475678	55.640	0.170	0.230	0.850	55.760	-1.400	1.300																			1579998552.0	0.16	0.30
26/01/2020 00:29:13	26012020	260120	002913	55.670	12.418703	-57.475680	55.540	0.140	0.410	0.680	55.650	-1.000	1.200																			1579998553.0	0.34	0.63
26/01/2020 00:29:14	26012020	260120	002914	55.600	12.418703	-57.475682	55.550	0.200	0.160	0.390	55.600	-1.100	1.000																			1579998554.0	0.34	0.63
26/01/2020 00:29:15	26012020	260120	002915	55.670	12.418705	-57.475682	55.690	0.250	-0.210	0.140	55.700	-1.400	0.700																			1579998555.0	0.48	0.89
26/01/2020 00:29:16	26012020	260120	002916	55.820	12.418708	-57.475682	55.790	0.160	-0.280	0.110	55.840	-1.700	0.500																			1579998556.0	0.60	1.11
26/01/2020 00:29:17	26012020	260120	002917	55.880	12.418710	-57.475682	55.780	-0.100	-0.010	0.390	55.870	-1.500	0.600																			1579998557.0	0.33	0.61
26/01/2020 00:29:18	26012020	260120	002918	55.830	12.418708	-57.475682	55.720	-0.330	0.200	0.890	55.820	-1.300	1.000																			1579998558.0	0.25	0.46
26/01/2020 00:29:19	26012020	260120	002919	55.760	12.418705	-57.475682	55.700	-0.380	0.060	1.430	55.750	-1.200	1.600																			1579998559.0	0.64	1.19
26/01/2020 00:29:20	26012020	260120	002920	55.740	12.418703	-57.475682	55.700	-0.230	-0.310	1.860	55.740	-1.500	2.100																			1579998560.0	0.72	1.33
26/01/2020 00:29:21	26012020	260120	002921	55.730	12.418700	-57.475678	55.680	-0.030	-0.540	2.100	55.720	-1.900	2.400																			1579998561.0	0.81	1.50
26/01/2020 00:29:22	26012020	260120	002922	55.680	12.418698	-57.475675	55.580	0.030	-0.410	2.130	55.660	-1.900	2.500																			1579998562.0	0.76	1.41
26/01/2020 00:29:23	26012020	260120	002923	55.560	12.418697	-57.475673	55.450	-0.060	-0.010	1.870	55.540	-1.600	2.400																			1579998563.0	0.43	0.80
26/01/2020 00:29:24	26012020	260120	002924	55.460	12.418697	-57.475675	55.400	-0.120	0.290	1.310	55.450	-1.200	2.000																			1579998564.0	0.33	0.61
26/01/2020 00:29:25	26012020	260120	002925	55.460	12.418697	-57.475678	55.420	0.020	0.220	0.580	55.460	-1.100	1.400																			1579998565.0	0.63	1.17
26/01/2020 00:29:26	26012020	260120	002926	55.490	12.418700	-57.475680	55.410	0.310	-0.140	-0.040	55.490	-1.300	0.600																			1579998566.0	0.81	1.50
26/01/2020 00:29:27	26012020	260120	002927	55.450	12.418703	-57.475682	55.290	0.570	-0.500	-0.360	55.430	-1.700	0.200																			1579998567.0	0.91	1.69
26/01/2020 00:29:28	26012020	260120	002928	55.320	12.418707	-57.475682	55.150	0.570	-0.620	-0.450	55.290	-2.000	-0.000																			1579998568.0	0.79	1.46
26/01/2020 00:29:29	26012020	260120	002929	55.190	12.418708	-57.475682	55.070	0.240	-0.400	-0.390	55.170	-1.900	-0.000																			1579998569.0	0.48	0.89
26/01/2020 00:29:30	26012020	260120	002930	55.140	12.418710	-57.475682	55.070	-0.270	0.170	-0.090	55.140	-1.500	0.100																			1579998570.0	0.16	0.30
26/01/2020 00:29:31	26012020	260120	002931	55.150	12.418708	-57.475682	55.140	-0.620	0.740	0.520	55.160	-0.900	0.600																			1579998571.0	0.29	0.54
26/01/2020 00:29:32	26012020	260120	002932	55.210	12.418705	-57.475683	55.280	-0.590	0.790	1.210	55.230	-0.500	1.300																			1579998572.0	0.79	1.46
26/01/2020 00:29:33	26012020	260120	002933	55.370	12.418700	-57.475682	55.440	-0.230	0.170	1.650	55.400	-0.800	1.900																			1579998573.0	1.02	1.89
26/01/2020 00:29:34	26012020	260120	002934	55.510	12.418697	-57.475678	55.530	0.160	-0.610	1.820	55.530	-1.600	2.100																			1579998574.0	0.97	1.80
26/01/2020 00:29:35	26012020	260120	002935	55.540	12.418697	-57.475673	55.460	0.300	-0.900	1.900	55.530	-2.200	2.300																			1579998575.0	0.95	1.76
26/01/2020 00:29:36	26012020	260120	002936	55.440	12.418697	-57.475672	55.370	0.170	-0.580	1.910	55.420	-2.200	2.300																			1579998576.0	0.60	1.11
26/01/2020 00:29:37	26012020	260120	002937	55.370	12.418695	-57.475672	55.370	-0.000	-0.100	1.740	55.370	-1.700	2.300																			1579998577.0	0.15	0.28
26/01/2020 00:29:38	26012020	260120	002938	55.430	12.418695	-57.475675	55.510	0.040	0.040	1.270	55.450	-1.400	1.900																			1579998578.0	0.58	1.07
26/01/2020 00:29:39	26012020	260120	002939	55.630	12.418697	-57.475677	55.750	0.240	-0.190	0.610	55.680	-1.400	1.300																			1579998579.0	0.60	1.11
26/01/2020 00:29:40	26012020	260120	002940	55.880	12.418700	-57.475678	55.930	0.310	-0.310	0.080	55.920	-1.700	0.700																			1579998580.0	0.64	1.19
26/01/2020 00:29:41	26012020	260120	002941	56.010	12.418703	-57.475677	55.960	0.080	-0.010	-0.080	56.020	-1.600	0.400																			1579998581.0	0.63	1.17
26/01/2020 00:29:42	26012020	260120	002942	56.010	12.418703	-57.475677	55.870	-0.270	0.470	0.110	56.000	-1.100	0.400																			1579998582.0	0.13	0.24
26/01/2020 00:29:43	26012020	260120	002943	55.890	12.418702	-57.475678	55.790	-0.420	0.590	0.360	55.870	-0.800	0.600																			1579998583.0	0.52	0.96
26/01/2020 00:29:44	26012020	260120	002944	55.840	12.418698	-57.475680	55.860	-0.260	0.130	0.500	55.850	-1.000	0.800																			1579998584.0	0.60	1.11
26/01/2020 00:29:45	26012020	260120	002945	55.960	12.418698	-57.475678	56.080	0.070	-0.480	0.610	56.000	-1.600	0.900																			1579998585.0	0.23	0.43
26/01/2020 00:29:46	26012020	260120	002946	56.210	12.418698	-57.475677	56.320	0.290	-0.770	0.810	56.260	-2.100	1.100																			1579998586.0	0.44	0.81
26/01/2020 00:29:47	26012020	260120	002947	56.400	12.418698	-57.475675	56.370	0.300	-0.520	1.230	56.410	-2.100	1.400																			1579998587.0	0.37	0.69
26/01/2020 00:29:48	26012020	260120	002948	56.350	12.418698	-57.475675	56.230	0.170	-0.030	1.820	56.320	-1.700	1.900																			1579998588.0	0.28	0.52
26/01/2020 00:29:49	26012020	260120	002949	56.170	12.418695	-57.475675	56.100	0.020	0.240	2.280	56.140	-1.200	2.500																			1579998589.0	0.71	1.31
26/01/2020 00:29:50	26012020	260120	002950	56.080	12.418692	-57.475675	56.120	-0.100	0.130	2.380	56.090	-1.200	2.800																			1579998590.0	0.75	1.39
26/01/2020 00:29:51	26012020	260120	002951	56.150	12.418690	-57.475675	56.220	-0.190	-0.100	2.130	56.170	-1.400	2.700																			1579998591.0	0.40	0.74
26/01/2020 00:29:52	26012020	260120	002952	56.260	12.418690	-57.475673	56.270	-0.250	-0.140	1.660	56.270	-1.500	2.300																			1579998592.0	0.22	0.41
26/01/2020 00:29:53	26012020	260120	002953	56.280	12.418692	-57.475673	56.240	-0.220	-0.060	1.090	56.280	-1.500	1.800																			1579998593.0	0.30	0.56
26/01/2020 00:29:54	26012020	260120	002954	56.260	12.418693	-57.475675	56.240	-0.040	-0.100	0.530	56.260	-1.400	1.200																			1579998594.0	0.55	1.02
26/01/2020 00:29:55	26012020	260120	002955	56.310	12.418695	-57.475678	56.320	0.220	-0.300	0.070	56.320	-1.600	0.700																			1579998595.0	0.63	1.17
26/01/2020 00:29:56	26012020	260120	002956	56.380	12.418697	-57.475678	56.390	0.370	-0.440	-0.310	56.400	-1.800	0.300																			1579998596.0	0.54	1.00
26/01/2020 00:29:57	26012020	260120	002957	56.470	12.418700	-57.475678	56.390	0.320	-0.260	-0.480	56.470	-1.800	-0.000																			1579998597.0	0.50	0.93
26/01/2020 00:29:58	26012020	260120	002958	56.440	12.418702	-57.475678	56.310	0.090	0.160	-0.290	56.420	-1.500	-0.000																			1579998598.0	0.36	0.67
26/01/2020 00:29:59	26012020	260120	002959	56.340	12.418700	-57.475680	56.260	-0.160	0.440	0.220	56.330	-1.100	0.400	1015.00	25.30	25.40	21.90	21.80	-1.00	81.00	80.00	400.00	25.10	316.00	7.00	11.00	6.80	15	3615.00	27.50	27.40	1579998599.0	0.29	0.54
26/01/2020 00:30:00	26012020	260120	003000	56.330	12.418698	-57.475682	56.360	-0.260	0.300	0.780	56.350	-1.000	0.900																			1579998600.0	0.50	0.93
26/01/2020 00:30:01	26012020	260120	003001	56.460	12.418697	-57.475680	56.500	-0.190	-0.150	1.230	56.490	-1.300	1.400																			1579998601.0	0.52	0.96
26/01/2020 00:30:02	26012020	260120	003002	56.560	12.418695	-57.475678	56.540	-0.030	-0.500	1.640	56.560	-1.800	1.800																			1579998602.0	0.57	1.06
26/01/2020 00:30:03	26012020	260120	003003	56.550	12.418695	-57.475675	56.530	0.060	-0.480	2.000	56.550	-1.900	2.200																			1579998603.0	0.64	1.19
26/01/2020 00:30:04	26012020	260120	003004	56.530	12.418692	-57.475673	56.540	0.020	-0.170	2.200	56.530	-1.700	2.500																			1579998604.0	0.56	1.04
26/01/2020 00:30:05	26012020	260120	003005	56.550	12.418690	-57.475673	56.560	-0.100	0.130	2.130	56.550	-1.400	2.600																			1579998605.0	0.56	1.04
26/01/2020 00:30:06	26012020	260120	003006	56.560	12.418688	-57.475673	56.570	-0.160	0.190	1.700	56.560	-1.200	2.400																			1579998606.0	0.45	0.83
26/01/2020 00:30:07	26012020	260120	003007	56.600	12.418688	-57.475675	56.620	-0.100	-0.040	1.000	56.610	-1.300	1.800																			1579998607.0	0.32	0.59
26/01/2020 00:30:08	26012020	260120	003008	56.670	12.418692	-57.475677	56.770	0.030	-0.340	0.210	56.700	-1.600	1.000																			1579998608.0	0.65	1.20
26/01/2020 00:30:09	26012020	260120	003009	56.870	12.418695	-57.475678	56.900	0.110	-0.430	-0.380	56.900	-1.800	0.300																			1579998609.0	0.89	1.65
26/01/2020 00:30:10	26012020	260120	003010	56.980	12.418698	-57.475678	56.910	0.090	-0.220	-0.630	56.990	-1.700	-0.100																			1579998610.0	0.74	1.37
26/01/2020 00:30:11	26012020	260120	003011	56.960	12.418700	-57.475680	56.820	0.040	0.030	-0.530	56.940	-1.500	-0.200																			1579998611.0	0.35	0.65
26/01/2020 00:30:12	26012020	260120	003012	56.840	12.418698	-57.475682	56.710	0.070	0.080	-0.200	56.820	-1.300	0.000																			1579998612.0	0.30	0.56
26/01/2020 00:30:13	26012020	260120	003013	56.760	12.418697	-57.475682	56.700	0.180	-0.030	0.170	56.750	-1.400	0.400																			1579998613.0	0.27	0.50
26/01/2020 00:30:14	26012020	260120	003014	56.780	12.418697	-57.475680	56.840	0.230	-0.150	0.540	56.810	-1.500	0.800																			1579998614.0	0.27	0.50
26/01/2020 00:30:15	26012020	260120	003015	56.960	12.418695	-57.475680	57.040	0.140	-0.180	0.980	57.000	-1.600	1.100																			1579998615.0	0.32	0.59
26/01/2020 00:30:16	26012020	260120	003016	57.110	12.418695	-57.475678	57.090	-0.080	-0.070	1.580	57.120	-1.500	1.700																			1579998616.0	0.41	0.76
26/01/2020 00:30:17	26012020	260120	003017	57.080	12.418692	-57.475677	56.960	-0.270	0.080	2.200	57.050	-1.400	2.300																			1579998617.0	0.60	1.11
26/01/2020 00:30:18	26012020	260120	003018	56.940	12.418688	-57.475677	56.810	-0.280	0.090	2.580	56.900	-1.300	2.800																			1579998618.0	0.80	1.48
26/01/2020 00:30:19	26012020	260120	003019	56.780	12.418685	-57.475675	56.770	-0.170	-0.070	2.550	56.770	-1.400	3.000																			1579998619.0	0.80	1.48
26/01/2020 00:30:20	26012020	260120	003020	56.770	12.418683	-57.475673	56.800	-0.050	-0.270	2.170	56.780	-1.600	2.800																			1579998620.0	0.49	0.91
26/01/2020 00:30:21	26012020	260120	003021	56.810	12.418683	-57.475673	56.790	0.020	-0.360	1.560	56.820	-1.700	2.300																			1579998621.0	0.09	0.17
26/01/2020 00:30:22	26012020	260120	003022	56.810	12.418685	-57.475673	56.740	0.050	-0.300	0.750	56.810	-1.700	1.600																			1579998622.0	0.38	0.70
26/01/2020 00:30:23	26012020	260120	003023	56.740	12.418687	-57.475677	56.620	0.090	-0.130	-0.050	56.730	-1.600	0.700																			1579998623.0	0.74	1.37
26/01/2020 00:30:24	26012020	260120	003024	56.620	12.418690	-57.475680	56.430	0.130	0.040	-0.580	56.590	-1.400	0.100																			1579998624.0	0.98	1.81
26/01/2020 00:30:25	26012020	260120	003025	56.420	12.418693	-57.475682	56.210	0.150	0.060	-0.780	56.380	-1.300	-0.300																			1579998625.0	0.91	1.69
26/01/2020 00:30:26	26012020	260120	003026	56.230	12.418695	-57.475683	56.080	0.120	-0.070	-0.780	56.200	-1.400	-0.400																			1579998626.0	0.60	1.11
26/01/2020 00:30:27	26012020	260120	003027	56.150	12.418697	-57.475685	56.090	0.060	-0.180	-0.590	56.150	-1.500	-0.300																			1579998627.0	0.35	0.65
26/01/2020 00:30:28	26012020	260120	003028	56.180	12.418698	-57.475683	56.180	-0.020	-0.140	-0.140	56.200	-1.600	0.000																			1579998628.0	0.19	0.35
26/01/2020 00:30:29	26012020	260120	003029	56.260	12.418697	-57.475683	56.240	-0.130	0.010	0.600	56.270	-1.500	0.600																			1579998629.0	0.27	0.50
26/01/2020 00:30:30	26012020	260120	003030	56.280	12.418693	-57.475682	56.210	-0.270	0.130	1.450	56.280	-1.300	1.400																			1579998630.0	0.78	1.44
26/01/2020 00:30:31	26012020	260120	003031	56.220	12.418688	-57.475680	56.110	-0.360	0.090	2.160	56.190	-1.200	2.200																			1579998631.0	1.19	2.20
26/01/2020 00:30:32	26012020	260120	003032	56.120	12.418683	-57.475677	55.990	-0.290	-0.150	2.540	56.100	-1.400	2.800																			1579998632.0	1.22	2.26
26/01/2020 00:30:33	26012020	260120	003033	55.970	12.418680	-57.475673	55.850	-0.040	-0.390	2.590	55.940	-1.700	3.000																			1579998633.0	0.89	1.65
26/01/2020 00:30:34	26012020	260120	003034	55.830	12.418680	-57.475672	55.710	0.270	-0.410	2.260	55.800	-1.800	2.900																			1579998634.0	0.49	0.91
26/01/2020 00:30:35	26012020	260120	003035	55.730	12.418680	-57.475672	55.670	0.440	-0.260	1.520	55.720	-1.700	2.300																			1579998635.0	0.15	0.28
26/01/2020 00:30:36	26012020	260120	003036	55.770	12.418682	-57.475673	55.770	0.400	-0.130	0.480	55.790	-1.600	1.400																			1579998636.0	0.55	1.02
26/01/2020 00:30:37	26012020	260120	003037	55.910	12.418685	-57.475677	55.890	0.220	-0.040	-0.470	55.940	-1.500	0.400																			1579998637.0	1.11	2.06
26/01/2020 00:30:38	26012020	260120	003038	56.020	12.418690	-57.475680	55.910	0.020	0.060	-1.030	56.030	-1.400	-0.400																			1579998638.0	1.32	2.44
26/01/2020 00:30:39	26012020	260120	003039	56.010	12.418695	-57.475683	55.860	-0.140	0.180	-1.090	56.000	-1.300	-0.700																			1579998639.0	1.04	1.93
26/01/2020 00:30:40	26012020	260120	003040	55.950	12.418697	-57.475685	55.820	-0.240	0.180	-0.710	55.940	-1.200	-0.500																			1579998640.0	0.46	0.85
26/01/2020 00:30:41	26012020	260120	003041	55.900	12.418695	-57.475685	55.810	-0.270	-0.000	-0.010	55.900	-1.300	0.000																			1579998641.0	0.21	0.39
26/01/2020 00:30:42	26012020	260120	003042	55.910	12.418693	-57.475683	55.880	-0.200	-0.340	0.830	55.920	-1.600	0.800																			1579998642.0	0.69	1.28
26/01/2020 00:30:43	26012020	260120	003043	55.990	12.418688	-57.475678	56.010	-0.080	-0.580	1.650	56.010	-1.900	1.600																			1579998643.0	1.08	2.00
26/01/2020 00:30:44	26012020	260120	003044	56.100	12.418685	-57.475675	56.130	0.050	-0.490	2.300	56.120	-2.000	2.400																			1579998644.0	1.23	2.28
26/01/2020 00:30:45	26012020	260120	003045	56.210	12.418682	-57.475672	56.200	0.130	-0.100	2.680	56.220	-1.700	2.900																			1579998645.0	1.11	2.06
26/01/2020 00:30:46	26012020	260120	003046	56.230	12.418677	-57.475670	56.150	0.100	0.320	2.770	56.220	-1.300	3.200																			1579998646.0	0.88	1.63
26/01/2020 00:30:47	26012020	260120	003047	56.140	12.418675	-57.475672	56.030	-0.010	0.490	2.490	56.110	-0.900	3.100																			1579998647.0	0.59	1.09
26/01/2020 00:30:48	26012020	260120	003048	56.040	12.418673	-57.475673	55.990	-0.080	0.290	1.830	56.040	-1.000	2.600																			1579998648.0	0.40	0.74
26/01/2020 00:30:49	26012020	260120	003049	56.070	12.418677	-57.475675	56.060	-0.010	-0.200	0.950	56.100	-1.300	1.800																			1579998649.0	0.80	1.48
26/01/2020 00:30:50	26012020	260120	003050	56.180	12.418682	-57.475678	56.130	0.160	-0.660	0.130	56.200	-1.800	0.900																			1579998650.0	1.18	2.19
26/01/2020 00:30:51	26012020	260120	003051	56.230	12.418687	-57.475680	56.130	0.270	-0.780	-0.390	56.230	-2.200	0.200																			1579998651.0	1.20	2.22
26/01/2020 00:30:52	26012020	260120	003052	56.220	12.418692	-57.475680	56.090	0.200	-0.460	-0.480	56.210	-2.000	-0.100																			1579998652.0	0.85	1.57
26/01/2020 00:30:53	26012020	260120	003053	56.190	12.418692	-57.475682	56.080	-0.000	0.060	-0.210	56.180	-1.600	0.000																			1579998653.0	0.32	0.59
26/01/2020 00:30:54	26012020	260120	003054	56.180	12.418690	-57.475682	56.110	-0.200	0.350	0.210	56.190	-1.100	0.400																			1579998654.0	0.42	0.78
26/01/2020 00:30:55	26012020	260120	003055	56.220	12.418688	-57.475683	56.180	-0.220	0.250	0.590	56.230	-1.000	0.800																			1579998655.0	0.56	1.04
26/01/2020 00:30:56	26012020	260120	003056	56.270	12.418687	-57.475682	56.250	-0.050	-0.010	0.980	56.280	-1.300	1.200																			1579998656.0	0.41	0.76
26/01/2020 00:30:57	26012020	260120	003057	56.350	12.418685	-57.475680	56.330	0.160	-0.200	1.420	56.370	-1.500	1.600																			1579998657.0	0.47	0.87
26/01/2020 00:30:58	26012020	260120	003058	56.420	12.418685	-57.475677	56.390	0.170	-0.140	1.800	56.430	-1.600	2.000																			1579998658.0	0.56	1.04
26/01/2020 00:30:59	26012020	260120	003059	56.450	12.418682	-57.475675	56.380	-0.080	0.060	1.970	56.450	-1.400	2.300	1015.00	25.30	25.40	21.70	21.70	-1.00	80.00	80.00	399.00	25.10	319.00	6.40	14.00	6.20	15	3606.00	27.40	27.40	1579998659.0	0.56	1.04
26/01/2020 00:31:00	26012020	260120	003100	56.430	12.418680	-57.475675	56.350	-0.350	0.170	1.910	56.420	-1.200	2.400																			1579998660.0	0.42	0.78
26/01/2020 00:31:01	26012020	260120	003101	56.410	12.418680	-57.475677	56.380	-0.350	-0.010	1.630	56.420	-1.300	2.200																			1579998661.0	0.34	0.63
26/01/2020 00:31:02	26012020	260120	003102	56.480	12.418680	-57.475678	56.490	-0.070	-0.380	1.200	56.500	-1.600	1.800																			1579998662.0	0.31	0.57
26/01/2020 00:31:03	26012020	260120	003103	56.590	12.418683	-57.475678	56.540	0.210	-0.580	0.730	56.600	-1.900	1.400																			1579998663.0	0.51	0.94
26/01/2020 00:31:04	26012020	260120	003104	56.600	12.418685	-57.475678	56.470	0.240	-0.390	0.330	56.590	-1.900	0.900																			1579998664.0	0.64	1.19
26/01/2020 00:31:05	26012020	260120	003105	56.520	12.418688	-57.475680	56.390	0.040	0.030	0.050	56.500	-1.600	0.600																			1579998665.0	0.54	1.00
26/01/2020 00:31:06	26012020	260120	003106	56.480	12.418688	-57.475682	56.430	-0.150	0.300	-0.100	56.490	-1.200	0.400																			1579998666.0	0.56	1.04
26/01/2020 00:31:07	26012020	260120	003107	56.560	12.418688	-57.475685	56.560	-0.140	0.150	-0.130	56.590	-1.100	0.300																			1579998667.0	0.53	0.98
26/01/2020 00:31:08	26012020	260120	003108	56.700	12.418690	-57.475685	56.680	0.090	-0.260	0.040	56.720	-1.400	0.300																			1579998668.0	0.22	0.41
26/01/2020 00:31:09	26012020	260120	003109	56.780	12.418690	-57.475683	56.690	0.310	-0.540	0.380	56.780	-1.800	0.600																			1579998669.0	0.34	0.63
26/01/2020 00:31:10	26012020	260120	003110	56.760	12.418690	-57.475682	56.600	0.290	-0.360	0.820	56.740	-1.900	1.000																			1579998670.0	0.53	0.98
26/01/2020 00:31:11	26012020	260120	003111	56.630	12.418690	-57.475680	56.520	0.030	0.080	1.260	56.610	-1.500	1.400																			1579998671.0	0.46	0.85
26/01/2020 00:31:12	26012020	260120	003112	56.570	12.418687	-57.475680	56.560	-0.230	0.340	1.580	56.570	-1.100	1.800																			1579998672.0	0.63	1.17
26/01/2020 00:31:13	26012020	260120	003113	56.640	12.418683	-57.475680	56.680	-0.290	0.210	1.670	56.660	-1.100	2.000																			1579998673.0	0.64	1.19
26/01/2020 00:31:14	26012020	260120	003114	56.770	12.418682	-57.475680	56.780	-0.140	-0.060	1.550	56.790	-1.300	2.000																			1579998674.0	0.31	0.57
26/01/2020 00:31:15	26012020	260120	003115	56.850	12.418682	-57.475678	56.770	0.050	-0.200	1.330	56.840	-1.500	1.800																			1579998675.0	0.21	0.39
26/01/2020 00:31:16	26012020	260120	003116	56.790	12.418683	-57.475678	56.640	0.100	-0.180	1.060	56.760	-1.600	1.600																			1579998676.0	0.18	0.33
26/01/2020 00:31:17	26012020	260120	003117	56.650	12.418683	-57.475678	56.500	-0.020	-0.100	0.690	56.620	-1.500	1.300																			1579998677.0	0.17	0.31
26/01/2020 00:31:18	26012020	260120	003118	56.560	12.418685	-57.475680	56.490	-0.150	-0.090	0.190	56.560	-1.500	0.900																			1579998678.0	0.44	0.81
26/01/2020 00:31:19	26012020	260120	003119	56.610	12.418687	-57.475683	56.610	-0.150	-0.170	-0.300	56.630	-1.500	0.300																			1579998679.0	0.71	1.31
26/01/2020 00:31:20	26012020	260120	003120	56.750	12.418690	-57.475685	56.740	-0.000	-0.310	-0.540	56.780	-1.600	-0.100																			1579998680.0	0.76	1.41
26/01/2020 00:31:21	26012020	260120	003121	56.870	12.418692	-57.475685	56.810	0.140	-0.360	-0.400	56.890	-1.700	-0.100																			1579998681.0	0.48	0.89
26/01/2020 00:31:22	26012020	260120	003122	56.890	12.418692	-57.475685	56.770	0.150	-0.250	0.010	56.890	-1.700	0.200																			1579998682.0	0.16	0.30
26/01/2020 00:31:23	26012020	260120	003123	56.820	12.418690	-57.475683	56.700	0.040	-0.000	0.510	56.810	-1.500	0.700																			1579998683.0	0.52	0.96
26/01/2020 00:31:24	26012020	260120	003124	56.750	12.418687	-57.475682	56.670	-0.030	0.240	0.980	56.740	-1.300	1.100																			1579998684.0	0.62	1.15
26/01/2020 00:31:25	26012020	260120	003125	56.730	12.418685	-57.475682	56.680	-0.010	0.250	1.400	56.730	-1.100	1.600																			1579998685.0	0.57	1.06
26/01/2020 00:31:26	26012020	260120	003126	56.740	12.418682	-57.475682	56.690	0.060	0.010	1.680	56.740	-1.200	2.000																			1579998686.0	0.50	0.93
26/01/2020 00:31:27	26012020	260120	003127	56.740	12.418682	-57.475680	56.670	0.070	-0.250	1.790	56.730	-1.500	2.100																			1579998687.0	0.45	0.83
26/01/2020 00:31:28	26012020	260120	003128	56.700	12.418682	-57.475677	56.630	0.000	-0.310	1.760	56.700	-1.700	2.200																			1579998688.0	0.39	0.72
26/01/2020 00:31:29	26012020	260120	003129	56.660	12.418682	-57.475677	56.600	-0.040	-0.180	1.620	56.650	-1.600	2.100																			1579998689.0	0.16	0.30
26/01/2020 00:31:30	26012020	260120	003130	56.640	12.418682	-57.475677	56.580	-0.020	-0.050	1.380	56.630	-1.500	1.900																			1579998690.0	0.16	0.30
26/01/2020 00:31:31	26012020	260120	003131	56.630	12.418682	-57.475678	56.540	-0.010	-0.050	1.050	56.620	-1.400	1.600																			1579998691.0	0.19	0.35
26/01/2020 00:31:32	26012020	260120	003132	56.570	12.418682	-57.475678	56.430	-0.090	-0.070	0.700	56.550	-1.500	1.300																			1579998692.0	0.08	0.15
26/01/2020 00:31:33	26012020	260120	003133	56.450	12.418683	-57.475678	56.310	-0.220	0.030	0.450	56.430	-1.400	1.000																			1579998693.0	0.18	0.33
26/01/2020 00:31:34	26012020	260120	003134	56.340	12.418683	-57.475680	56.200	-0.230	0.110	0.330	56.320	-1.300	0.800																			1579998694.0	0.28	0.52
26/01/2020 00:31:35	26012020	260120	003135	56.230	12.418683	-57.475682	56.080	-0.040	-0.110	0.250	56.210	-1.300	0.700																			1579998695.0	0.36	0.67
26/01/2020 00:31:36	26012020	260120	003136	56.150	12.418685	-57.475682	55.980	0.280	-0.580	0.200	56.130	-1.700	0.600																			1579998696.0	0.26	0.48
26/01/2020 00:31:37	26012020	260120	003137	56.020	12.418687	-57.475682	55.830	0.460	-0.780	0.330	55.990	-2.100	0.600																			1579998697.0	0.39	0.72
26/01/2020 00:31:38	26012020	260120	003138	55.890	12.418688	-57.475680	55.660	0.330	-0.380	0.710	55.850	-2.000	0.900																			1579998698.0	0.52	0.96
26/01/2020 00:31:39	26012020	260120	003139	55.710	12.418688	-57.475678	55.640	-0.010	0.260	1.080	55.700	-1.400	1.300																			1579998699.0	0.16	0.30
26/01/2020 00:31:40	26012020	260120	003140	55.750	12.418685	-57.475680	55.780	-0.260	0.580	1.200	55.780	-0.900	1.600																			1579998700.0	0.60	1.11
26/01/2020 00:31:41	26012020	260120	003141	55.890	12.418682	-57.475680	55.830	-0.300	0.460	1.230	55.900	-0.800	1.600																			1579998701.0	0.60	1.11
26/01/2020 00:31:42	26012020	260120	003142	55.870	12.418682	-57.475680	55.670	-0.190	0.180	1.390	55.840	-1.100	1.700																			1579998702.0	0.26	0.48
26/01/2020 00:31:43	26012020	260120	003143	55.650	12.418680	-57.475678	55.400	-0.020	-0.100	1.540	55.590	-1.400	1.900																			1579998703.0	0.24	0.44
26/01/2020 00:31:44	26012020	260120	003144	55.400	12.418680	-57.475678	55.270	0.090	-0.430	1.390	55.370	-1.700	1.900																			1579998704.0	0.19	0.35
26/01/2020 00:31:45	26012020	260120	003145	55.350	12.418682	-57.475678	55.350	0.120	-0.720	0.870	55.370	-2.000	1.500																			1579998705.0	0.16	0.30
26/01/2020 00:31:46	26012020	260120	003146	55.460	12.418683	-57.475678	55.500	0.070	-0.680	0.450	55.500	-2.100	1.000																			1579998706.0	0.53	0.98
26/01/2020 00:31:47	26012020	260120	003147	55.620	12.418687	-57.475680	55.490	-0.050	-0.160	0.390	55.620	-1.900	0.800																			1579998707.0	0.54	1.00
26/01/2020 00:31:48	26012020	260120	003148	55.560	12.418687	-57.475680	55.280	-0.230	0.460	0.540	55.530	-1.200	0.900																			1579998708.0	0.24	0.44
26/01/2020 00:31:49	26012020	260120	003149	55.290	12.418683	-57.475682	55.080	-0.330	0.630	0.570	55.250	-0.800	1.000																			1579998709.0	0.62	1.15
26/01/2020 00:31:50	26012020	260120	003150	55.160	12.418682	-57.475683	55.100	-0.190	0.130	0.350	55.160	-0.900	0.900																			1579998710.0	0.49	0.91
26/01/2020 00:31:51	26012020	260120	003151	55.290	12.418682	-57.475683	55.370	0.170	-0.630	0.030	55.340	-1.600	0.600																			1579998711.0	0.19	0.35
26/01/2020 00:31:52	26012020	260120	003152	55.590	12.418685	-57.475682	55.650	0.480	-0.920	-0.090	55.650	-2.300	0.300																			1579998712.0	0.81	1.50
26/01/2020 00:31:53	26012020	260120	003153	55.810	12.418688	-57.475680	55.740	0.470	-0.410	0.160	55.830	-2.100	0.400																			1579998713.0	0.77	1.43
26/01/2020 00:31:54	26012020	260120	003154	55.830	12.418688	-57.475680	55.680	0.160	0.380	0.640	55.820	-1.400	0.800																			1579998714.0	0.04	0.07
26/01/2020 00:31:55	26012020	260120	003155	55.740	12.418687	-57.475682	55.620	-0.190	0.710	1.130	55.720	-0.700	1.300																			1579998715.0	0.75	1.39
26/01/2020 00:31:56	26012020	260120	003156	55.690	12.418683	-57.475683	55.640	-0.330	0.330	1.550	55.690	-0.800	1.800																			1579998716.0	0.77	1.43
26/01/2020 00:31:57	26012020	260120	003157	55.740	12.418680	-57.475682	55.780	-0.220	-0.340	1.780	55.770	-1.400	2.100																			1579998717.0	0.50	0.93
26/01/2020 00:31:58	26012020	260120	003158	55.920	12.418680	-57.475678	55.980	-0.050	-0.660	1.810	55.960	-2.000	2.200																			1579998718.0	0.72	1.33
26/01/2020 00:31:59	26012020	260120	003159	56.100	12.418682	-57.475675	56.080	0.030	-0.410	1.770	56.120	-2.000	2.200	1015.00	25.30	25.40	21.80	21.70	-1.00	80.00	80.00	397.00	25.00	319.00	6.70	14.00	6.50	14	3541.00	27.50	27.40	1579998719.0	0.60	1.11
26/01/2020 00:32:00	26012020	260120	003200	56.150	12.418680	-57.475675	56.050	0.010	-0.040	1.670	56.150	-1.600	2.100																			1579998720.0	0.14	0.26
26/01/2020 00:32:01	26012020	260120	003201	56.090	12.418680	-57.475677	55.970	0.010	0.020	1.480	56.070	-1.300	2.000																			1579998721.0	0.38	0.70
26/01/2020 00:32:02	26012020	260120	003202	56.040	12.418680	-57.475677	55.960	0.100	-0.180	1.090	56.030	-1.500	1.700																			1579998722.0	0.19	0.35
26/01/2020 00:32:03	26012020	260120	003203	56.060	12.418682	-57.475677	56.030	0.210	-0.280	0.550	56.080	-1.600	1.200																			1579998723.0	0.40	0.74
26/01/2020 00:32:04	26012020	260120	003204	56.160	12.418683	-57.475677	56.080	0.180	-0.070	0.110	56.170	-1.600	0.700																			1579998724.0	0.63	1.17
26/01/2020 00:32:05	26012020	260120	003205	56.200	12.418687	-57.475678	56.040	0.010	0.270	-0.060	56.180	-1.300	0.400																			1579998725.0	0.58	1.07
26/01/2020 00:32:06	26012020	260120	003206	56.120	12.418687	-57.475680	55.940	-0.170	0.380	0.010	56.100	-1.000	0.400																			1579998726.0	0.52	0.96
26/01/2020 00:32:07	26012020	260120	003207	56.030	12.418688	-57.475682	55.910	-0.190	0.050	0.170	56.020	-1.100	0.500																			1579998727.0	0.43	0.80
26/01/2020 00:32:08	26012020	260120	003208	56.040	12.418688	-57.475683	55.980	-0.060	-0.450	0.440	56.050	-1.600	0.700																			1579998728.0	0.18	0.33
26/01/2020 00:32:09	26012020	260120	003209	56.110	12.418690	-57.475682	56.050	0.090	-0.710	0.930	56.130	-2.000	1.100																			1579998729.0	0.41	0.76
26/01/2020 00:32:10	26012020	260120	003210	56.130	12.418688	-57.475678	56.000	0.130	-0.540	1.580	56.120	-2.100	1.700																			1579998730.0	0.61	1.13
26/01/2020 00:32:11	26012020	260120	003211	56.040	12.418685	-57.475675	55.890	0.040	-0.120	2.170	56.010	-1.700	2.300																			1579998731.0	0.85	1.57
26/01/2020 00:32:12	26012020	260120	003212	55.920	12.418682	-57.475673	55.780	-0.080	0.230	2.400	55.890	-1.300	2.700																			1579998732.0	0.96	1.78
26/01/2020 00:32:13	26012020	260120	003213	55.790	12.418678	-57.475673	55.680	-0.150	0.370	2.190	55.780	-1.100	2.700																			1579998733.0	0.68	1.26
26/01/2020 00:32:14	26012020	260120	003214	55.730	12.418678	-57.475675	55.680	-0.070	0.270	1.560	55.730	-1.000	2.300																			1579998734.0	0.20	0.37
26/01/2020 00:32:15	26012020	260120	003215	55.820	12.418680	-57.475677	55.820	0.110	-0.050	0.690	55.840	-1.300	1.500																			1579998735.0	0.61	1.13
26/01/2020 00:32:16	26012020	260120	003216	55.970	12.418685	-57.475678	55.900	0.270	-0.360	-0.030	55.990	-1.600	0.700																			1579998736.0	1.03	1.91
26/01/2020 00:32:17	26012020	260120	003217	56.010	12.418690	-57.475680	55.850	0.300	-0.480	-0.390	56.000	-1.800	0.200																			1579998737.0	1.10	2.04
26/01/2020 00:32:18	26012020	260120	003218	55.950	12.418693	-57.475682	55.770	0.170	-0.360	-0.420	55.940	-1.800	-0.000																			1579998738.0	0.78	1.44
26/01/2020 00:32:19	26012020	260120	003219	55.870	12.418693	-57.475682	55.700	-0.020	-0.120	-0.230	55.850	-1.600	0.100																			1579998739.0	0.34	0.63
26/01/2020 00:32:20	26012020	260120	003220	55.800	12.418693	-57.475683	55.680	-0.170	0.060	0.120	55.790	-1.400	0.300																			1579998740.0	0.19	0.35
26/01/2020 00:32:21	26012020	260120	003221	55.790	12.418692	-57.475683	55.710	-0.230	0.100	0.630	55.800	-1.300	0.800																			1579998741.0	0.33	0.61
26/01/2020 00:32:22	26012020	260120	003222	55.820	12.418690	-57.475682	55.750	-0.240	0.080	1.240	55.830	-1.300	1.300																			1579998742.0	0.45	0.83
26/01/2020 00:32:23	26012020	260120	003223	55.840	12.418688	-57.475680	55.800	-0.260	0.020	1.740	55.840	-1.300	1.900																			1579998743.0	0.61	1.13
26/01/2020 00:32:24	26012020	260120	003224	55.900	12.418685	-57.475678	55.910	-0.240	-0.110	1.920	55.930	-1.400	2.300																			1579998744.0	0.63	1.17
26/01/2020 00:32:25	26012020	260120	003225	56.020	12.418683	-57.475677	56.010	-0.150	-0.170	1.900	56.040	-1.500	2.300																			1579998745.0	0.45	0.83
26/01/2020 00:32:26	26012020	260120	003226	56.090	12.418683	-57.475677	56.040	0.000	-0.130	1.770	56.100	-1.500	2.300																			1579998746.0	0.26	0.48
26/01/2020 00:32:27	26012020	260120	003227	56.110	12.418682	-57.475677	56.000	0.190	-0.130	1.460	56.100	-1.500	2.000																			1579998747.0	0.14	0.26
26/01/2020 00:32:28	26012020	260120	003228	56.070	12.418683	-57.475678	55.970	0.360	-0.250	0.900	56.060	-1.600	1.600																			1579998748.0	0.27	0.50
26/01/2020 00:32:29	26012020	260120	003229	56.080	12.418685	-57.475680	56.030	0.450	-0.360	0.170	56.090	-1.700	0.900																			1579998749.0	0.70	1.30
26/01/2020 00:32:30	26012020	260120	003230	56.200	12.418690	-57.475682	56.190	0.380	-0.300	-0.430	56.230	-1.700	0.200																			1579998750.0	1.09	2.02
26/01/2020 00:32:31	26012020	260120	003231	56.370	12.418695	-57.475683	56.310	0.150	-0.080	-0.640	56.390	-1.600	-0.200																			1579998751.0	1.03	1.91
26/01/2020 00:32:32	26012020	260120	003232	56.450	12.418697	-57.475685	56.390	-0.110	0.070	-0.460	56.460	-1.400	-0.200																			1579998752.0	0.60	1.11
26/01/2020 00:32:33	26012020	260120	003233	56.530	12.418697	-57.475687	56.540	-0.250	0.010	-0.110	56.560	-1.300	0.100																			1579998753.0	0.14	0.26
26/01/2020 00:32:34	26012020	260120	003234	56.710	12.418695	-57.475685	56.720	-0.280	-0.030	0.310	56.740	-1.400	0.500																			1579998754.0	0.41	0.76
26/01/2020 00:32:35	26012020	260120	003235	56.830	12.418693	-57.475683	56.720	-0.290	0.170	0.930	56.830	-1.300	1.000																			1579998755.0	0.72	1.33
26/01/2020 00:32:36	26012020	260120	003236	56.740	12.418688	-57.475682	56.550	-0.310	0.330	1.650	56.710	-1.100	1.700																			1579998756.0	0.89	1.65
26/01/2020 00:32:37	26012020	260120	003237	56.550	12.418685	-57.475680	56.440	-0.220	0.040	2.080	56.520	-1.100	2.300																			1579998757.0	1.02	1.89
26/01/2020 00:32:38	26012020	260120	003238	56.490	12.418682	-57.475678	56.520	0.040	-0.570	2.010	56.500	-1.600	2.500																			1579998758.0	0.72	1.33
26/01/2020 00:32:39	26012020	260120	003239	56.630	12.418682	-57.475677	56.690	0.340	-0.890	1.610	56.670	-2.200	2.200																			1579998759.0	0.44	0.81
26/01/2020 00:32:40	26012020	260120	003240	56.810	12.418685	-57.475675	56.790	0.440	-0.530	1.110	56.830	-2.200	1.800																			1579998760.0	0.66	1.22
26/01/2020 00:32:41	26012020	260120	003241	56.870	12.418687	-57.475677	56.750	0.270	0.200	0.660	56.860	-1.600	1.300																			1579998761.0	0.66	1.22
26/01/2020 00:32:42	26012020	260120	003242	56.780	12.418688	-57.475680	56.590	0.000	0.620	0.430	56.740	-0.900	0.900																			1579998762.0	0.91	1.69
26/01/2020 00:32:43	26012020	260120	003243	56.610	12.418688	-57.475685	56.460	-0.170	0.410	0.430	56.580	-0.800	0.800																			1579998763.0	0.82	1.52
26/01/2020 00:32:44	26012020	260120	003244	56.520	12.418688	-57.475685	56.440	-0.190	-0.150	0.490	56.510	-1.300	0.900																			1579998764.0	0.22	0.41
26/01/2020 00:32:45	26012020	260120	003245	56.520	12.418690	-57.475683	56.410	-0.160	-0.520	0.550	56.510	-1.800	0.900																			1579998765.0	0.39	0.72
26/01/2020 00:32:46	26012020	260120	003246	56.450	12.418692	-57.475682	56.260	-0.110	-0.480	0.700	56.420	-1.900	1.000																			1579998766.0	0.44	0.81
26/01/2020 00:32:47	26012020	260120	003247	56.240	12.418690	-57.475682	56.010	-0.020	-0.280	1.010	56.200	-1.800	1.200																			1579998767.0	0.13	0.24
26/01/2020 00:32:48	26012020	260120	003248	56.000	12.418688	-57.475682	55.810	0.140	-0.190	1.400	55.950	-1.600	1.600																			1579998768.0	0.41	0.76
26/01/2020 00:32:49	26012020	260120	003249	55.820	12.418687	-57.475680	55.680	0.250	-0.130	1.630	55.790	-1.600	2.000																			1579998769.0	0.57	1.06
26/01/2020 00:32:50	26012020	260120	003250	55.740	12.418685	-57.475678	55.650	0.180	0.060	1.470	55.730	-1.400	2.000																			1579998770.0	0.48	0.89
26/01/2020 00:32:51	26012020	260120	003251	55.720	12.418685	-57.475678	55.620	-0.020	0.290	1.000	55.710	-1.200	1.700																			1579998771.0	0.02	0.04
26/01/2020 00:32:52	26012020	260120	003252	55.700	12.418687	-57.475682	55.520	-0.130	0.290	0.520	55.680	-1.000	1.100																			1579998772.0	0.62	1.15
26/01/2020 00:32:53	26012020	260120	003253	55.570	12.418690	-57.475683	55.370	-0.000	-0.060	0.260	55.550	-1.200	0.800																			1579998773.0	0.89	1.65
26/01/2020 00:32:54	26012020	260120	003254	55.420	12.418692	-57.475685	55.220	0.210	-0.460	0.240	55.390	-1.700	0.600																			1579998774.0	0.67	1.24
26/01/2020 00:32:55	26012020	260120	003255	55.280	12.418695	-57.475685	55.130	0.200	-0.540	0.300	55.260	-1.900	0.700																			1579998775.0	0.49	0.91
26/01/2020 00:32:56	26012020	260120	003256	55.210	12.418695	-57.475683	55.080	-0.090	-0.210	0.380	55.200	-1.800	0.700																			1579998776.0	0.33	0.61
26/01/2020 00:32:57	26012020	260120	003257	55.160	12.418693	-57.475683	55.040	-0.400	0.220	0.520	55.150	-1.400	0.800																			1579998777.0	0.16	0.30
26/01/2020 00:32:58	26012020	260120	003258	55.120	12.418692	-57.475685	55.010	-0.450	0.350	0.750	55.120	-1.100	1.000																			1579998778.0	0.45	0.83
26/01/2020 00:32:59	26012020	260120	003259	55.090	12.418690	-57.475685	54.940	-0.240	0.150	1.000	55.070	-1.100	1.300	1015.00	25.40	25.40	21.90	21.90	-1.00	80.00	80.00	396.00	25.00	322.00	7.00	17.00	6.80	14	3602.00	27.50	27.40	1579998779.0	0.39	0.72
26/01/2020 00:33:00	26012020	260120	003300	54.980	12.418690	-57.475683	54.800	-0.010	-0.130	1.150	54.950	-1.400	1.500																			1579998780.0	0.32	0.59
26/01/2020 00:33:01	26012020	260120	003301	54.840	12.418690	-57.475682	54.700	0.100	-0.310	1.190	54.820	-1.600	1.600																			1579998781.0	0.33	0.61
26/01/2020 00:33:02	26012020	260120	003302	54.770	12.418690	-57.475682	54.720	0.160	-0.420	1.170	54.780	-1.800	1.600																			1579998782.0	0.14	0.26
26/01/2020 00:33:03	26012020	260120	003303	54.830	12.418690	-57.475682	54.810	0.240	-0.540	1.090	54.860	-1.900	1.500																			1579998783.0	0.07	0.13
26/01/2020 00:33:04	26012020	260120	003304	54.930	12.418690	-57.475682	54.870	0.320	-0.540	0.920	54.940	-2.000	1.400																			1579998784.0	0.16	0.30
26/01/2020 00:33:05	26012020	260120	003305	54.980	12.418692	-57.475682	54.900	0.310	-0.250	0.710	54.980	-1.800	1.200																			1579998785.0	0.30	0.56
26/01/2020 00:33:06	26012020	260120	003306	55.010	12.418693	-57.475682	54.950	0.190	0.270	0.560	55.020	-1.400	1.000																			1579998786.0	0.36	0.67
26/01/2020 00:33:07	26012020	260120	003307	55.070	12.418693	-57.475683	55.010	-0.010	0.660	0.520	55.090	-0.900	0.900																			1579998787.0	0.43	0.80
26/01/2020 00:33:08	26012020	260120	003308	55.140	12.418693	-57.475685	55.060	-0.170	0.600	0.590	55.150	-0.700	0.900																			1579998788.0	0.47	0.87
26/01/2020 00:33:09	26012020	260120	003309	55.170	12.418693	-57.475687	55.070	-0.240	0.160	0.780	55.170	-1.000	1.100																			1579998789.0	0.23	0.43
26/01/2020 00:33:10	26012020	260120	003310	55.150	12.418693	-57.475685	55.020	-0.260	-0.340	1.020	55.140	-1.500	1.300																			1579998790.0	0.20	0.37
26/01/2020 00:33:11	26012020	260120	003311	55.090	12.418692	-57.475683	55.010	-0.230	-0.680	1.260	55.090	-1.900	1.600																			1579998791.0	0.37	0.69
26/01/2020 00:33:12	26012020	260120	003312	55.100	12.418692	-57.475682	55.060	-0.170	-0.760	1.430	55.110	-2.100	1.800																			1579998792.0	0.37	0.69
26/01/2020 00:33:13	26012020	260120	003313	55.140	12.418692	-57.475682	55.070	-0.060	-0.500	1.550	55.150	-2.100	1.900																			1579998793.0	0.27	0.50
26/01/2020 00:33:14	26012020	260120	003314	55.120	12.418690	-57.475682	55.010	0.060	-0.000	1.630	55.110	-1.600	2.000																			1579998794.0	0.20	0.37
26/01/2020 00:33:15	26012020	260120	003315	55.060	12.418688	-57.475682	54.990	0.170	0.370	1.530	55.060	-1.200	2.000																			1579998795.0	0.37	0.69
26/01/2020 00:33:16	26012020	260120	003316	55.080	12.418688	-57.475683	55.050	0.240	0.340	1.200	55.090	-1.000	1.800																			1579998796.0	0.42	0.78
26/01/2020 00:33:17	26012020	260120	003317	55.150	12.418688	-57.475685	55.090	0.250	-0.040	0.740	55.160	-1.200	1.400																			1579998797.0	0.31	0.57
26/01/2020 00:33:18	26012020	260120	003318	55.190	12.418692	-57.475687	55.070	0.190	-0.360	0.350	55.190	-1.600	0.900																			1579998798.0	0.61	1.13
26/01/2020 00:33:19	26012020	260120	003319	55.140	12.418695	-57.475687	54.980	0.090	-0.300	0.170	55.120	-1.800	0.600																			1579998799.0	0.88	1.63
26/01/2020 00:33:20	26012020	260120	003320	55.050	12.418698	-57.475688	54.940	-0.020	-0.030	0.230	55.040	-1.600	0.600																			1579998800.0	0.77	1.43
26/01/2020 00:33:21	26012020	260120	003321	55.040	12.418698	-57.475690	55.000	-0.150	0.090	0.410	55.050	-1.300	0.700																			1579998801.0	0.45	0.83
26/01/2020 00:33:22	26012020	260120	003322	55.110	12.418698	-57.475690	55.060	-0.320	0.050	0.630	55.130	-1.300	0.900																			1579998802.0	0.25	0.46
26/01/2020 00:33:23	26012020	260120	003323	55.150	12.418697	-57.475690	55.040	-0.440	0.020	0.900	55.150	-1.400	1.200																			1579998803.0	0.33	0.61
26/01/2020 00:33:24	26012020	260120	003324	55.090	12.418695	-57.475688	54.960	-0.370	-0.030	1.200	55.070	-1.400	1.500																			1579998804.0	0.44	0.81
26/01/2020 00:33:25	26012020	260120	003325	55.000	12.418693	-57.475688	54.900	-0.040	-0.290	1.400	54.980	-1.500	1.700																			1579998805.0	0.46	0.85
26/01/2020 00:33:26	26012020	260120	003326	54.960	12.418692	-57.475687	54.870	0.350	-0.610	1.390	54.950	-1.900	1.800																			1579998806.0	0.37	0.69
26/01/2020 00:33:27	26012020	260120	003327	54.940	12.418693	-57.475685	54.870	0.500	-0.630	1.120	54.940	-2.100	1.700																			1579998807.0	0.44	0.81
26/01/2020 00:33:28	26012020	260120	003328	54.950	12.418695	-57.475683	54.880	0.350	-0.240	0.770	54.950	-1.900	1.400																			1579998808.0	0.47	0.87
26/01/2020 00:33:29	26012020	260120	003329	54.960	12.418697	-57.475685	54.850	0.060	0.300	0.500	54.960	-1.400	1.000																			1579998809.0	0.57	1.06
26/01/2020 00:33:30	26012020	260120	003330	54.930	12.418698	-57.475688	54.750	-0.210	0.680	0.350	54.900	-0.900	0.800																			1579998810.0	0.63	1.17
26/01/2020 00:33:31	26012020	260120	003331	54.810	12.418698	-57.475692	54.650	-0.320	0.660	0.230	54.790	-0.700	0.700																			1579998811.0	0.55	1.02
26/01/2020 00:33:32	26012020	260120	003332	54.740	12.418700	-57.475693	54.650	-0.230	0.190	0.130	54.750	-0.900	0.600																			1579998812.0	0.40	0.74
26/01/2020 00:33:33	26012020	260120	003333	54.790	12.418700	-57.475693	54.740	-0.030	-0.450	0.090	54.810	-1.500	0.500																			1579998813.0	0.32	0.59
26/01/2020 00:33:34	26012020	260120	003334	54.880	12.418702	-57.475692	54.810	0.130	-0.860	0.190	54.900	-2.100	0.500																			1579998814.0	0.46	0.85
26/01/2020 00:33:35	26012020	260120	003335	54.930	12.418703	-57.475690	54.820	0.140	-0.820	0.450	54.930	-2.300	0.700																			1579998815.0	0.44	0.81
26/01/2020 00:33:36	26012020	260120	003336	54.900	12.418703	-57.475688	54.750	0.020	-0.430	0.840	54.890	-2.000	1.000																			1579998816.0	0.34	0.63
26/01/2020 00:33:37	26012020	260120	003337	54.790	12.418700	-57.475688	54.600	-0.100	0.020	1.210	54.770	-1.600	1.400																			1579998817.0	0.46	0.85
26/01/2020 00:33:38	26012020	260120	003338	54.640	12.418698	-57.475688	54.480	-0.110	0.260	1.400	54.610	-1.200	1.700																			1579998818.0	0.48	0.89
26/01/2020 00:33:39	26012020	260120	003339	54.550	12.418697	-57.475688	54.460	-0.040	0.270	1.380	54.540	-1.100	1.800																			1579998819.0	0.28	0.52
26/01/2020 00:33:40	26012020	260120	003340	54.560	12.418697	-57.475688	54.540	0.000	0.250	1.190	54.570	-1.100	1.700																			1579998820.0	0.08	0.15
26/01/2020 00:33:41	26012020	260120	003341	54.670	12.418697	-57.475688	54.650	-0.060	0.240	0.850	54.690	-1.100	1.400																			1579998821.0	0.11	0.20
26/01/2020 00:33:42	26012020	260120	003342	54.760	12.418698	-57.475690	54.710	-0.120	0.090	0.490	54.780	-1.200	1.100																			1579998822.0	0.27	0.50
26/01/2020 00:33:43	26012020	260120	003343	54.830	12.418700	-57.475692	54.700	-0.050	-0.260	0.270	54.830	-1.400	0.800																			1579998823.0	0.49	0.91
26/01/2020 00:33:44	26012020	260120	003344	54.780	12.418702	-57.475692	54.590	0.140	-0.640	0.240	54.760	-1.800	0.600																			1579998824.0	0.48	0.89
26/01/2020 00:33:45	26012020	260120	003345	54.650	12.418703	-57.475692	54.440	0.280	-0.770	0.460	54.620	-2.100	0.700																			1579998825.0	0.36	0.67
26/01/2020 00:33:46	26012020	260120	003346	54.480	12.418703	-57.475692	54.250	0.210	-0.480	0.880	54.440	-2.100	1.100																			1579998826.0	0.28	0.52
26/01/2020 00:33:47	26012020	260120	003347	54.280	12.418702	-57.475690	54.080	0.010	-0.000	1.260	54.240	-1.600	1.500																			1579998827.0	0.38	0.70
26/01/2020 00:33:48	26012020	260120	003348	54.130	12.418698	-57.475690	53.980	-0.140	0.290	1.360	54.110	-1.200	1.800																			1579998828.0	0.63	1.17
26/01/2020 00:33:49	26012020	260120	003349	54.060	12.418697	-57.475690	53.920	-0.100	0.280	1.210	54.050	-1.100	1.700																			1579998829.0	0.46	0.85
26/01/2020 00:33:50	26012020	260120	003350	54.010	12.418697	-57.475690	53.860	0.090	0.190	1.020	54.000	-1.200	1.500																			1579998830.0	0.13	0.24
26/01/2020 00:33:51	26012020	260120	003351	53.950	12.418698	-57.475692	53.810	0.230	0.120	0.820	53.940	-1.200	1.300																			1579998831.0	0.40	0.74
26/01/2020 00:33:52	26012020	260120	003352	53.910	12.418702	-57.475692	53.780	0.170	0.030	0.560	53.900	-1.300	1.100																			1579998832.0	0.41	0.76
26/01/2020 00:33:53	26012020	260120	003353	53.890	12.418702	-57.475693	53.750	-0.060	-0.100	0.300	53.880	-1.400	0.800																			1579998833.0	0.43	0.80
26/01/2020 00:33:54	26012020	260120	003354	53.840	12.418703	-57.475695	53.640	-0.280	-0.270	0.230	53.820	-1.600	0.600																			1579998834.0	0.47	0.87
26/01/2020 00:33:55	26012020	260120	003355	53.690	12.418705	-57.475697	53.450	-0.330	-0.370	0.470	53.650	-1.700	0.700																			1579998835.0	0.42	0.78
26/01/2020 00:33:56	26012020	260120	003356	53.480	12.418707	-57.475697	53.300	-0.250	-0.410	0.840	53.450	-1.800	1.100																			1579998836.0	0.15	0.28
26/01/2020 00:33:57	26012020	260120	003357	53.380	12.418705	-57.475695	53.330	-0.150	-0.340	1.100	53.390	-1.800	1.400																			1579998837.0	0.33	0.61
26/01/2020 00:33:58	26012020	260120	003358	53.460	12.418703	-57.475693	53.470	-0.120	-0.120	1.140	53.490	-1.600	1.500																			1579998838.0	0.63	1.17
26/01/2020 00:33:59	26012020	260120	003359	53.580	12.418700	-57.475692	53.490	-0.120	0.180	1.080	53.590	-1.400	1.500	1015.00	25.30	25.40	21.70	21.80	-1.00	80.00	80.00	394.00	25.00	324.00	6.70	18.00	6.60	14	3547.00	27.40	27.40	1579998839.0	0.67	1.24
26/01/2020 00:34:00	26012020	260120	003400	53.540	12.418698	-57.475692	53.320	0.000	0.310	0.970	53.500	-1.100	1.400																			1579998840.0	0.41	0.76
26/01/2020 00:34:01	26012020	260120	003401	53.350	12.418698	-57.475692	53.190	0.290	0.040	0.700	53.320	-1.200	1.300																			1579998841.0	0.25	0.46
26/01/2020 00:34:02	26012020	260120	003402	53.300	12.418700	-57.475693	53.300	0.600	-0.480	0.230	53.330	-1.600	0.900																			1579998842.0	0.49	0.91
26/01/2020 00:34:03	26012020	260120	003403	53.510	12.418705	-57.475693	53.560	0.650	-0.720	-0.180	53.560	-2.000	0.400																			1579998843.0	0.93	1.72
26/01/2020 00:34:04	26012020	260120	003404	53.710	12.418710	-57.475693	53.650	0.340	-0.290	-0.190	53.730	-2.000	0.200																			1579998844.0	1.01	1.87
26/01/2020 00:34:05	26012020	260120	003405	53.730	12.418712	-57.475695	53.540	-0.170	0.460	0.180	53.710	-1.300	0.400																			1579998845.0	0.53	0.98
26/01/2020 00:34:06	26012020	260120	003406	53.610	12.418710	-57.475698	53.420	-0.510	0.810	0.690	53.580	-0.700	0.900																			1579998846.0	0.64	1.19
26/01/2020 00:34:07	26012020	260120	003407	53.480	12.418707	-57.475700	53.410	-0.510	0.440	1.170	53.480	-0.700	1.400																			1579998847.0	0.78	1.44
26/01/2020 00:34:08	26012020	260120	003408	53.510	12.418703	-57.475698	53.560	-0.260	-0.340	1.530	53.540	-1.300	1.800																			1579998848.0	0.54	1.00
26/01/2020 00:34:09	26012020	260120	003409	53.700	12.418703	-57.475695	53.800	-0.000	-0.920	1.770	53.750	-2.100	2.100																			1579998849.0	0.75	1.39
26/01/2020 00:34:10	26012020	260120	003410	53.930	12.418703	-57.475692	53.940	0.080	-0.910	1.940	53.950	-2.400	2.300																			1579998850.0	0.83	1.54
26/01/2020 00:34:11	26012020	260120	003411	53.990	12.418702	-57.475688	53.860	-0.010	-0.370	2.010	53.980	-2.100	2.400																			1579998851.0	0.58	1.07
26/01/2020 00:34:12	26012020	260120	003412	53.860	12.418700	-57.475688	53.680	-0.130	0.280	1.860	53.820	-1.400	2.400																			1579998852.0	0.46	0.85
26/01/2020 00:34:13	26012020	260120	003413	53.690	12.418698	-57.475692	53.560	-0.130	0.630	1.420	53.670	-0.900	2.100																			1579998853.0	0.61	1.13
26/01/2020 00:34:14	26012020	260120	003414	53.640	12.418698	-57.475695	53.580	0.030	0.500	0.700	53.650	-0.800	1.500																			1579998854.0	0.67	1.24
26/01/2020 00:34:15	26012020	260120	003415	53.720	12.418700	-57.475697	53.640	0.250	-0.030	-0.030	53.740	-1.100	0.700																			1579998855.0	0.88	1.63
26/01/2020 00:34:16	26012020	260120	003416	53.780	12.418705	-57.475700	53.650	0.400	-0.610	-0.520	53.790	-1.700	0.100																			1579998856.0	1.17	2.17
26/01/2020 00:34:17	26012020	260120	003417	53.770	12.418712	-57.475700	53.610	0.380	-0.820	-0.690	53.770	-2.200	-0.200																			1579998857.0	1.19	2.20
26/01/2020 00:34:18	26012020	260120	003418	53.740	12.418715	-57.475702	53.560	0.200	-0.490	-0.480	53.730	-2.100	-0.200																			1579998858.0	0.86	1.59
26/01/2020 00:34:19	26012020	260120	003419	53.660	12.418715	-57.475702	53.480	-0.050	0.100	0.100	53.640	-1.600	0.200																			1579998859.0	0.24	0.44
26/01/2020 00:34:20	26012020	260120	003420	53.540	12.418713	-57.475702	53.400	-0.240	0.470	0.860	53.520	-1.000	0.900																			1579998860.0	0.59	1.09
26/01/2020 00:34:21	26012020	260120	003421	53.470	12.418708	-57.475702	53.430	-0.300	0.330	1.470	53.470	-0.900	1.600																			1579998861.0	0.93	1.72
26/01/2020 00:34:22	26012020	260120	003422	53.550	12.418705	-57.475700	53.600	-0.220	-0.090	1.730	53.580	-1.200	2.000																			1579998862.0	0.82	1.52
26/01/2020 00:34:23	26012020	260120	003423	53.730	12.418705	-57.475697	53.740	-0.090	-0.350	1.720	53.760	-1.600	2.100																			1579998863.0	0.63	1.17
26/01/2020 00:34:24	26012020	260120	003424	53.820	12.418705	-57.475695	53.700	-0.010	-0.230	1.650	53.810	-1.700	2.100																			1579998864.0	0.44	0.81
26/01/2020 00:34:25	26012020	260120	003425	53.710	12.418705	-57.475695	53.510	-0.010	0.020	1.580	53.670	-1.500	2.000																			1579998865.0	0.09	0.17
26/01/2020 00:34:26	26012020	260120	003426	53.520	12.418705	-57.475695	53.370	0.010	0.040	1.340	53.490	-1.300	1.900																			1579998866.0	0.27	0.50
26/01/2020 00:34:27	26012020	260120	003427	53.440	12.418705	-57.475697	53.380	0.110	-0.180	0.760	53.440	-1.400	1.500																			1579998867.0	0.27	0.50
26/01/2020 00:34:28	26012020	260120	003428	53.510	12.418707	-57.475698	53.490	0.210	-0.380	-0.020	53.540	-1.700	0.800																			1579998868.0	0.68	1.26
26/01/2020 00:34:29	26012020	260120	003429	53.650	12.418712	-57.475700	53.580	0.240	-0.320	-0.660	53.660	-1.800	0.000																			1579998869.0	1.13	2.09
26/01/2020 00:34:30	26012020	260120	003430	53.710	12.418717	-57.475702	53.630	0.150	-0.090	-0.880	53.720	-1.600	-0.400																			1579998870.0	1.12	2.07
26/01/2020 00:34:31	26012020	260120	003431	53.770	12.418718	-57.475705	53.660	-0.020	0.070	-0.570	53.770	-1.400	-0.400																			1579998871.0	0.67	1.24
26/01/2020 00:34:32	26012020	260120	003432	53.780	12.418718	-57.475705	53.690	-0.210	0.060	0.100	53.780	-1.300	0.200																			1579998872.0	0.16	0.30
26/01/2020 00:34:33	26012020	260120	003433	53.800	12.418715	-57.475703	53.720	-0.360	-0.020	0.810	53.810	-1.400	0.900																			1579998873.0	0.70	1.30
26/01/2020 00:34:34	26012020	260120	003434	53.810	12.418712	-57.475700	53.720	-0.380	-0.070	1.390	53.810	-1.400	1.500																			1579998874.0	0.99	1.83
26/01/2020 00:34:35	26012020	260120	003435	53.790	12.418708	-57.475697	53.700	-0.170	-0.160	1.840	53.780	-1.500	2.000																			1579998875.0	0.93	1.72
26/01/2020 00:34:36	26012020	260120	003436	53.750	12.418707	-57.475695	53.650	0.150	-0.270	2.130	53.730	-1.600	2.400																			1579998876.0	0.80	1.48
26/01/2020 00:34:37	26012020	260120	003437	53.700	12.418705	-57.475692	53.610	0.370	-0.270	2.110	53.690	-1.700	2.600																			1579998877.0	0.65	1.20
26/01/2020 00:34:38	26012020	260120	003438	53.670	12.418703	-57.475692	53.590	0.390	-0.110	1.700	53.670	-1.600	2.400																			1579998878.0	0.23	0.43
26/01/2020 00:34:39	26012020	260120	003439	53.660	12.418705	-57.475693	53.550	0.290	0.100	1.020	53.660	-1.400	1.800																			1579998879.0	0.49	0.91
26/01/2020 00:34:40	26012020	260120	003440	53.620	12.418708	-57.475697	53.510	0.140	0.210	0.320	53.620	-1.200	1.100																			1579998880.0	1.07	1.98
26/01/2020 00:34:41	26012020	260120	003441	53.620	12.418713	-57.475700	53.540	-0.030	0.090	-0.190	53.630	-1.200	0.400																			1579998881.0	1.23	2.28
26/01/2020 00:34:42	26012020	260120	003442	53.690	12.418717	-57.475703	53.620	-0.200	-0.170	-0.370	53.710	-1.400	0.100																			1579998882.0	0.97	1.80
26/01/2020 00:34:43	26012020	260120	003443	53.760	12.418718	-57.475705	53.640	-0.310	-0.350	-0.210	53.760	-1.700	0.100																			1579998883.0	0.53	0.98
26/01/2020 00:34:44	26012020	260120	003444	53.730	12.418718	-57.475703	53.550	-0.320	-0.360	0.270	53.710	-1.800	0.400																			1579998884.0	0.20	0.37
26/01/2020 00:34:45	26012020	260120	003445	53.580	12.418717	-57.475702	53.350	-0.230	-0.300	0.900	53.540	-1.700	1.000																			1579998885.0	0.59	1.09
26/01/2020 00:34:46	26012020	260120	003446	53.360	12.418713	-57.475698	53.160	-0.110	-0.210	1.420	53.310	-1.600	1.600																			1579998886.0	0.98	1.81
26/01/2020 00:34:47	26012020	260120	003447	53.180	12.418710	-57.475697	53.050	0.030	-0.110	1.630	53.150	-1.500	2.000																			1579998887.0	0.99	1.83
26/01/2020 00:34:48	26012020	260120	003448	53.110	12.418708	-57.475693	53.040	0.150	0.020	1.550	53.110	-1.400	2.000																			1579998888.0	0.60	1.11
26/01/2020 00:34:49	26012020	260120	003449	53.130	12.418708	-57.475693	53.070	0.240	0.110	1.210	53.140	-1.300	1.800																			1579998889.0	0.10	0.19
26/01/2020 00:34:50	26012020	260120	003450	53.170	12.418708	-57.475695	53.070	0.250	0.150	0.680	53.170	-1.300	1.400																			1579998890.0	0.35	0.65
26/01/2020 00:34:51	26012020	260120	003451	53.170	12.418712	-57.475697	53.040	0.190	0.140	0.120	53.160	-1.200	0.800																			1579998891.0	0.71	1.31
26/01/2020 00:34:52	26012020	260120	003452	53.140	12.418715	-57.475698	52.990	0.110	0.080	-0.260	53.140	-1.300	0.300																			1579998892.0	0.95	1.76
26/01/2020 00:34:53	26012020	260120	003453	53.100	12.418718	-57.475702	52.940	0.060	-0.060	-0.350	53.090	-1.400	0.100																			1579998893.0	0.90	1.67
26/01/2020 00:34:54	26012020	260120	003454	53.060	12.418720	-57.475703	52.930	0.030	-0.340	-0.250	53.050	-1.600	0.100																			1579998894.0	0.55	1.02
26/01/2020 00:34:55	26012020	260120	003455	53.060	12.418722	-57.475703	52.970	-0.020	-0.620	0.050	53.060	-1.900	0.300																			1579998895.0	0.19	0.35
26/01/2020 00:34:56	26012020	260120	003456	53.080	12.418722	-57.475702	52.980	-0.160	-0.610	0.570	53.090	-2.000	0.700																			1579998896.0	0.41	0.76
26/01/2020 00:34:57	26012020	260120	003457	53.060	12.418720	-57.475698	52.960	-0.360	-0.190	1.200	53.060	-1.800	1.300																			1579998897.0	0.66	1.22
26/01/2020 00:34:58	26012020	260120	003458	53.040	12.418717	-57.475697	52.960	-0.490	0.320	1.700	53.040	-1.300	1.900																			1579998898.0	0.89	1.65
26/01/2020 00:34:59	26012020	260120	003459	53.050	12.418712	-57.475695	53.010	-0.390	0.470	1.920	53.060	-0.900	2.300	1015.00	25.30	25.40	21.70	21.70	-1.00	80.00	80.00	394.00	25.00	328.00	6.70	20.00	6.40	14	3588.00	27.40	27.40	1579998899.0	1.06	1.96
26/01/2020 00:35:00	26012020	260120	003500	53.100	12.418708	-57.475693	53.050	-0.090	0.220	1.790	53.110	-1.000	2.300																			1579998900.0	0.81	1.50
26/01/2020 00:35:01	26012020	260120	003501	53.140	12.418707	-57.475693	53.050	0.220	-0.110	1.380	53.140	-1.300	2.000																			1579998901.0	0.35	0.65
26/01/2020 00:35:02	26012020	260120	003502	53.150	12.418708	-57.475692	53.060	0.400	-0.330	0.830	53.150	-1.600	1.500																			1579998902.0	0.37	0.69
26/01/2020 00:35:03	26012020	260120	003503	53.190	12.418712	-57.475693	53.110	0.430	-0.450	0.320	53.190	-1.800	1.000																			1579998903.0	0.68	1.26
26/01/2020 00:35:04	26012020	260120	003504	53.250	12.418715	-57.475695	53.170	0.370	-0.490	-0.110	53.260	-1.900	0.500																			1579998904.0	0.89	1.65
26/01/2020 00:35:05	26012020	260120	003505	53.310	12.418720	-57.475698	53.190	0.260	-0.350	-0.330	53.320	-1.800	0.200																			1579998905.0	0.94	1.74
26/01/2020 00:35:06	26012020	260120	003506	53.290	12.418722	-57.475700	53.100	0.070	0.040	-0.130	53.270	-1.600	0.100																			1579998906.0	0.77	1.43
26/01/2020 00:35:07	26012020	260120	003507	53.170	12.418723	-57.475702	52.990	-0.160	0.400	0.480	53.150	-1.100	0.600																			1579998907.0	0.32	0.59
26/01/2020 00:35:08	26012020	260120	003508	53.080	12.418720	-57.475702	52.960	-0.310	0.390	1.280	53.060	-0.900	1.300																			1579998908.0	0.57	1.06
26/01/2020 00:35:09	26012020	260120	003509	53.050	12.418715	-57.475700	53.020	-0.310	-0.040	1.870	53.060	-1.200	2.000																			1579998909.0	0.99	1.83
26/01/2020 00:35:10	26012020	260120	003510	53.120	12.418712	-57.475695	53.080	-0.230	-0.440	2.110	53.130	-1.700	2.400																			1579998910.0	1.13	2.09
26/01/2020 00:35:11	26012020	260120	003511	53.150	12.418710	-57.475692	53.070	-0.160	-0.450	2.060	53.150	-1.900	2.500																			1579998911.0	0.90	1.67
26/01/2020 00:35:12	26012020	260120	003512	53.110	12.418710	-57.475690	52.980	-0.110	-0.110	1.860	53.090	-1.700	2.400																			1579998912.0	0.32	0.59
26/01/2020 00:35:13	26012020	260120	003513	53.010	12.418710	-57.475692	52.870	-0.010	0.200	1.590	52.990	-1.300	2.100																			1579998913.0	0.28	0.52
26/01/2020 00:35:14	26012020	260120	003514	52.920	12.418710	-57.475693	52.820	0.160	0.140	1.150	52.910	-1.200	1.800																			1579998914.0	0.55	1.02
26/01/2020 00:35:15	26012020	260120	003515	52.920	12.418712	-57.475697	52.850	0.330	-0.240	0.510	52.930	-1.400	1.300																			1579998915.0	0.55	1.02
26/01/2020 00:35:16	26012020	260120	003516	52.970	12.418715	-57.475697	52.860	0.380	-0.550	-0.190	52.970	-1.800	0.600																			1579998916.0	0.81	1.50
26/01/2020 00:35:17	26012020	260120	003517	52.980	12.418720	-57.475698	52.830	0.260	-0.440	-0.580	52.970	-1.900	-0.000																			1579998917.0	1.09	2.02
26/01/2020 00:35:18	26012020	260120	003518	52.930	12.418725	-57.475700	52.780	0.030	0.010	-0.450	52.920	-1.600	-0.100																			1579998918.0	0.94	1.74
26/01/2020 00:35:19	26012020	260120	003519	52.880	12.418725	-57.475702	52.790	-0.210	0.330	-0.010	52.880	-1.200	0.200																			1579998919.0	0.44	0.81
26/01/2020 00:35:20	26012020	260120	003520	52.890	12.418723	-57.475702	52.880	-0.340	0.270	0.420	52.910	-1.000	0.600																			1579998920.0	0.41	0.76
26/01/2020 00:35:21	26012020	260120	003521	52.990	12.418722	-57.475702	52.990	-0.350	0.000	0.810	53.010	-1.300	1.000																			1579998921.0	0.54	1.00
26/01/2020 00:35:22	26012020	260120	003522	53.070	12.418720	-57.475698	53.090	-0.270	-0.190	1.220	53.090	-1.500	1.400																			1579998922.0	0.64	1.19
26/01/2020 00:35:23	26012020	260120	003523	53.190	12.418718	-57.475695	53.230	-0.120	-0.230	1.550	53.210	-1.600	1.800																			1579998923.0	0.66	1.22
26/01/2020 00:35:24	26012020	260120	003524	53.340	12.418717	-57.475693	53.390	0.080	-0.250	1.680	53.380	-1.600	2.100																			1579998924.0	0.58	1.07
26/01/2020 00:35:25	26012020	260120	003525	53.490	12.418715	-57.475693	53.460	0.270	-0.320	1.600	53.510	-1.700	2.100																			1579998925.0	0.41	0.76
26/01/2020 00:35:26	26012020	260120	003526	53.510	12.418715	-57.475692	53.390	0.330	-0.280	1.340	53.500	-1.700	1.900																			1579998926.0	0.13	0.24
26/01/2020 00:35:27	26012020	260120	003527	53.430	12.418717	-57.475693	53.320	0.250	-0.100	0.980	53.420	-1.600	1.600																			1579998927.0	0.31	0.57
26/01/2020 00:35:28	26012020	260120	003528	53.410	12.418718	-57.475695	53.400	0.110	0.030	0.590	53.430	-1.400	1.200																			1579998928.0	0.59	1.09
26/01/2020 00:35:29	26012020	260120	003529	53.550	12.418722	-57.475697	53.600	-0.020	0.040	0.220	53.600	-1.300	0.800																			1579998929.0	0.73	1.35
26/01/2020 00:35:30	26012020	260120	003530	53.790	12.418723	-57.475698	53.840	-0.170	0.080	-0.100	53.840	-1.300	0.500																			1579998930.0	0.63	1.17
26/01/2020 00:35:31	26012020	260120	003531	54.030	12.418725	-57.475700	54.040	-0.290	0.210	-0.220	54.080	-1.300	0.200																			1579998931.0	0.49	0.91
26/01/2020 00:35:32	26012020	260120	003532	54.170	12.418725	-57.475702	54.140	-0.290	0.230	0.030	54.190	-1.100	0.300																			1579998932.0	0.31	0.57
26/01/2020 00:35:33	26012020	260120	003533	54.250	12.418725	-57.475702	54.140	-0.140	-0.100	0.620	54.240	-1.300	0.700																			1579998933.0	0.30	0.56
26/01/2020 00:35:34	26012020	260120	003534	54.210	12.418722	-57.475700	54.120	0.070	-0.610	1.270	54.200	-1.800	1.400																			1579998934.0	0.62	1.15
26/01/2020 00:35:35	26012020	260120	003535	54.200	12.418720	-57.475695	54.150	0.190	-0.850	1.680	54.200	-2.200	1.900																			1579998935.0	0.93	1.72
26/01/2020 00:35:36	26012020	260120	003536	54.220	12.418718	-57.475692	54.170	0.180	-0.550	1.840	54.230	-2.100	2.200																			1579998936.0	0.78	1.44
26/01/2020 00:35:37	26012020	260120	003537	54.220	12.418718	-57.475692	54.110	0.140	0.000	1.880	54.200	-1.700	2.300																			1579998937.0	0.29	0.54
26/01/2020 00:35:38	26012020	260120	003538	54.130	12.418717	-57.475692	54.010	0.150	0.330	1.770	54.110	-1.200	2.300																			1579998938.0	0.30	0.56
26/01/2020 00:35:39	26012020	260120	003539	54.060	12.418717	-57.475693	54.000	0.120	0.300	1.270	54.060	-1.000	2.000																			1579998939.0	0.26	0.48
26/01/2020 00:35:40	26012020	260120	003540	54.120	12.418718	-57.475693	54.130	-0.030	0.200	0.450	54.160	-1.200	1.300																			1579998940.0	0.37	0.69
26/01/2020 00:35:41	26012020	260120	003541	54.300	12.418722	-57.475695	54.290	-0.250	0.220	-0.330	54.330	-1.200	0.400																			1579998941.0	0.92	1.70
26/01/2020 00:35:42	26012020	260120	003542	54.430	12.418727	-57.475698	54.340	-0.330	0.200	-0.680	54.450	-1.200	-0.100																			1579998942.0	1.19	2.20
26/01/2020 00:35:43	26012020	260120	003543	54.450	12.418730	-57.475702	54.310	-0.190	-0.120	-0.570	54.440	-1.300	-0.200																			1579998943.0	0.88	1.63
26/01/2020 00:35:44	26012020	260120	003544	54.420	12.418730	-57.475702	54.240	0.040	-0.570	-0.230	54.400	-1.700	0.000																			1579998944.0	0.16	0.30
26/01/2020 00:35:45	26012020	260120	003545	54.320	12.418730	-57.475700	54.120	0.170	-0.780	0.260	54.290	-2.100	0.400																			1579998945.0	0.54	1.00
26/01/2020 00:35:46	26012020	260120	003546	54.140	12.418728	-57.475697	53.900	0.180	-0.580	0.880	54.090	-2.100	1.000																			1579998946.0	0.72	1.33
26/01/2020 00:35:47	26012020	260120	003547	53.900	12.418727	-57.475693	53.740	0.130	-0.140	1.390	53.860	-1.800	1.600																			1579998947.0	0.63	1.17
26/01/2020 00:35:48	26012020	260120	003548	53.810	12.418725	-57.475693	53.810	0.080	0.220	1.500	53.820	-1.300	1.900																			1579998948.0	0.50	0.93
26/01/2020 00:35:49	26012020	260120	003549	53.970	12.418723	-57.475693	54.040	0.040	0.300	1.310	54.010	-1.100	1.800																			1579998949.0	0.27	0.50
26/01/2020 00:35:50	26012020	260120	003550	54.170	12.418723	-57.475693	54.160	-0.010	0.220	1.120	54.200	-1.100	1.600																			1579998950.0	0.10	0.19
26/01/2020 00:35:51	26012020	260120	003551	54.230	12.418725	-57.475693	54.100	-0.120	0.130	0.980	54.220	-1.200	1.500																			1579998951.0	0.25	0.46
26/01/2020 00:35:52	26012020	260120	003552	54.130	12.418727	-57.475693	53.970	-0.230	0.030	0.780	54.110	-1.300	1.300																			1579998952.0	0.21	0.39
26/01/2020 00:35:53	26012020	260120	003553	54.030	12.418727	-57.475693	53.910	-0.260	-0.150	0.500	54.010	-1.400	1.100																			1579998953.0	0.14	0.26
26/01/2020 00:35:54	26012020	260120	003554	54.010	12.418728	-57.475693	53.950	-0.140	-0.370	0.210	54.020	-1.700	0.800																			1579998954.0	0.25	0.46
26/01/2020 00:35:55	26012020	260120	003555	54.070	12.418730	-57.475693	53.990	0.060	-0.500	0.040	54.080	-1.800	0.500																			1579998955.0	0.35	0.65
26/01/2020 00:35:56	26012020	260120	003556	54.100	12.418730	-57.475693	53.980	0.210	-0.470	0.060	54.100	-1.900	0.500																			1579998956.0	0.32	0.59
26/01/2020 00:35:57	26012020	260120	003557	54.050	12.418732	-57.475693	53.870	0.230	-0.250	0.200	54.030	-1.800	0.500																			1579998957.0	0.17	0.31
26/01/2020 00:35:58	26012020	260120	003558	53.950	12.418732	-57.475692	53.740	0.130	0.130	0.400	53.930	-1.500	0.700																			1579998958.0	0.09	0.17
26/01/2020 00:35:59	26012020	260120	003559	53.810	12.418730	-57.475693	53.660	0.000	0.410	0.610	53.790	-1.100	0.900	1015.00	25.30	25.40	21.80	21.80	-1.00	81.00	80.00	393.00	25.00	329.00	6.70	22.00	6.50	14	3518.00	27.50	27.40	1579998959.0	0.27	0.50
26/01/2020 00:36:00	26012020	260120	003600	53.740	12.418728	-57.475693	53.650	-0.050	0.340	0.820	53.730	-1.000	1.100																			1579998960.0	0.36	0.67
26/01/2020 00:36:01	26012020	260120	003601	53.760	12.418727	-57.475693	53.730	-0.000	-0.090	0.960	53.770	-1.200	1.300																			1579998961.0	0.19	0.35
26/01/2020 00:36:02	26012020	260120	003602	53.870	12.418728	-57.475692	53.880	0.090	-0.530	0.970	53.900	-1.700	1.400																			1579998962.0	0.24	0.44
26/01/2020 00:36:03	26012020	260120	003603	54.010	12.418730	-57.475690	53.980	0.140	-0.600	0.990	54.040	-2.000	1.400																			1579998963.0	0.45	0.83
26/01/2020 00:36:04	26012020	260120	003604	54.060	12.418730	-57.475690	53.950	0.130	-0.320	1.140	54.060	-1.900	1.500																			1579998964.0	0.26	0.48
26/01/2020 00:36:05	26012020	260120	003605	53.990	12.418728	-57.475690	53.820	0.050	0.040	1.360	53.970	-1.500	1.700																			1579998965.0	0.30	0.56
26/01/2020 00:36:06	26012020	260120	003606	53.830	12.418727	-57.475690	53.630	-0.100	0.280	1.500	53.790	-1.200	1.900																			1579998966.0	0.59	1.09
26/01/2020 00:36:07	26012020	260120	003607	53.640	12.418723	-57.475690	53.480	-0.260	0.290	1.330	53.610	-1.100	1.900																			1579998967.0	0.50	0.93
26/01/2020 00:36:08	26012020	260120	003608	53.550	12.418723	-57.475690	53.530	-0.280	0.030	0.830	53.560	-1.200	1.500																			1579998968.0	0.16	0.30
26/01/2020 00:36:09	26012020	260120	003609	53.680	12.418725	-57.475692	53.740	-0.110	-0.310	0.220	53.730	-1.500	0.900																			1579998969.0	0.55	1.02
26/01/2020 00:36:10	26012020	260120	003610	53.870	12.418728	-57.475692	53.880	0.120	-0.430	-0.140	53.910	-1.800	0.400																			1579998970.0	0.80	1.48
26/01/2020 00:36:11	26012020	260120	003611	53.980	12.418732	-57.475693	53.750	0.180	-0.160	-0.130	53.950	-1.700	0.200																			1579998971.0	0.54	1.00
26/01/2020 00:36:12	26012020	260120	003612	53.820	12.418732	-57.475693	53.460	0.010	0.150	0.090	53.760	-1.400	0.400																			1579998972.0	0.17	0.31
26/01/2020 00:36:13	26012020	260120	003613	53.470	12.418728	-57.475695	53.270	-0.140	0.090	0.340	53.430	-1.200	0.600																			1579998973.0	0.52	0.96
26/01/2020 00:36:14	26012020	260120	003614	53.350	12.418728	-57.475697	53.260	-0.070	-0.320	0.560	53.350	-1.500	0.900																			1579998974.0	0.31	0.57
26/01/2020 00:36:15	26012020	260120	003615	53.380	12.418728	-57.475695	53.320	0.170	-0.580	0.820	53.390	-1.900	1.100																			1579998975.0	0.24	0.44
26/01/2020 00:36:16	26012020	260120	003616	53.430	12.418730	-57.475693	53.360	0.320	-0.440	1.110	53.430	-1.900	1.400																			1579998976.0	0.46	0.85
26/01/2020 00:36:17	26012020	260120	003617	53.450	12.418728	-57.475692	53.360	0.200	-0.090	1.370	53.450	-1.700	1.700																			1579998977.0	0.41	0.76
26/01/2020 00:36:18	26012020	260120	003618	53.430	12.418727	-57.475690	53.310	-0.090	0.220	1.540	53.420	-1.300	1.900																			1579998978.0	0.60	1.11
26/01/2020 00:36:19	26012020	260120	003619	53.360	12.418723	-57.475690	53.210	-0.300	0.420	1.560	53.330	-1.000	2.000																			1579998979.0	0.58	1.07
26/01/2020 00:36:20	26012020	260120	003620	53.250	12.418722	-57.475692	53.090	-0.280	0.460	1.380	53.220	-0.900	1.900																			1579998980.0	0.33	0.61
26/01/2020 00:36:21	26012020	260120	003621	53.120	12.418722	-57.475692	52.950	-0.080	0.220	1.050	53.090	-1.000	1.600																			1579998981.0	0.29	0.54
26/01/2020 00:36:22	26012020	260120	003622	52.980	12.418723	-57.475693	52.810	0.160	-0.300	0.710	52.950	-1.400	1.300																			1579998982.0	0.47	0.87
26/01/2020 00:36:23	26012020	260120	003623	52.870	12.418727	-57.475695	52.750	0.310	-0.830	0.430	52.860	-2.000	1.000																			1579998983.0	0.59	1.09
26/01/2020 00:36:24	26012020	260120	003624	52.830	12.418728	-57.475695	52.710	0.260	-0.920	0.280	52.820	-2.300	0.800																			1579998984.0	0.66	1.22
26/01/2020 00:36:25	26012020	260120	003625	52.790	12.418732	-57.475695	52.660	0.020	-0.370	0.270	52.790	-2.100	0.700																			1579998985.0	0.50	0.93
26/01/2020 00:36:26	26012020	260120	003626	52.730	12.418732	-57.475697	52.630	-0.280	0.370	0.350	52.720	-1.400	0.700																			1579998986.0	0.32	0.59
26/01/2020 00:36:27	26012020	260120	003627	52.720	12.418730	-57.475698	52.660	-0.430	0.700	0.510	52.720	-0.800	0.800																			1579998987.0	0.73	1.35
26/01/2020 00:36:28	26012020	260120	003628	52.750	12.418728	-57.475702	52.690	-0.350	0.440	0.820	52.750	-0.800	1.100																			1579998988.0	0.63	1.17
26/01/2020 00:36:29	26012020	260120	003629	52.760	12.418727	-57.475700	52.690	-0.130	-0.110	1.190	52.760	-1.200	1.400																			1579998989.0	0.35	0.65
26/01/2020 00:36:30	26012020	260120	003630	52.730	12.418725	-57.475698	52.630	0.100	-0.540	1.470	52.720	-1.700	1.800																			1579998990.0	0.65	1.20
26/01/2020 00:36:31	26012020	260120	003631	52.650	12.418725	-57.475695	52.540	0.270	-0.660	1.490	52.640	-2.000	1.900																			1579998991.0	0.62	1.15
26/01/2020 00:36:32	26012020	260120	003632	52.570	12.418725	-57.475693	52.490	0.360	-0.490	1.280	52.560	-2.000	1.800																			1579998992.0	0.23	0.43
26/01/2020 00:36:33	26012020	260120	003633	52.550	12.418725	-57.475695	52.520	0.370	-0.170	0.930	52.560	-1.700	1.500																			1579998993.0	0.28	0.52
26/01/2020 00:36:34	26012020	260120	003634	52.610	12.418727	-57.475698	52.630	0.260	0.170	0.540	52.630	-1.400	1.200																			1579998994.0	0.64	1.19
26/01/2020 00:36:35	26012020	260120	003635	52.740	12.418728	-57.475702	52.700	0.060	0.310	0.230	52.750	-1.100	0.800																			1579998995.0	0.76	1.41
26/01/2020 00:36:36	26012020	260120	003636	52.780	12.418728	-57.475703	52.730	-0.130	0.150	0.040	52.790	-1.100	0.500																			1579998996.0	0.64	1.19
26/01/2020 00:36:37	26012020	260120	003637	52.840	12.418730	-57.475705	52.800	-0.210	-0.180	-0.040	52.850	-1.400	0.400																			1579998997.0	0.43	0.80
26/01/2020 00:36:38	26012020	260120	003638	52.920	12.418732	-57.475705	52.910	-0.190	-0.340	0.050	52.940	-1.700	0.400																			1579998998.0	0.35	0.65
26/01/2020 00:36:39	26012020	260120	003639	53.030	12.418733	-57.475703	53.050	-0.180	-0.190	0.300	53.060	-1.700	0.600																			1579998999.0	0.24	0.44
26/01/2020 00:36:40	26012020	260120	003640	53.190	12.418732	-57.475703	53.240	-0.210	0.080	0.600	53.220	-1.400	0.900																			1579999000.0	0.30	0.56
26/01/2020 00:36:41	26012020	260120	003641	53.380	12.418728	-57.475703	53.440	-0.250	0.220	0.860	53.420	-1.200	1.100																			1579999001.0	0.62	1.15
26/01/2020 00:36:42	26012020	260120	003642	53.550	12.418725	-57.475703	53.570	-0.160	0.110	1.080	53.580	-1.200	1.400																			1579999002.0	0.61	1.13
26/01/2020 00:36:43	26012020	260120	003643	53.650	12.418723	-57.475703	53.600	0.050	-0.180	1.280	53.650	-1.400	1.600																			1579999003.0	0.38	0.70
26/01/2020 00:36:44	26012020	260120	003644	53.650	12.418723	-57.475702	53.590	0.280	-0.460	1.420	53.650	-1.700	1.800																			1579999004.0	0.25	0.46
26/01/2020 00:36:45	26012020	260120	003645	53.660	12.418723	-57.475702	53.680	0.380	-0.610	1.350	53.660	-1.900	1.800																			1579999005.0	0.24	0.44
26/01/2020 00:36:46	26012020	260120	003646	53.800	12.418725	-57.475702	53.870	0.330	-0.510	1.090	53.840	-2.000	1.600																			1579999006.0	0.27	0.50
26/01/2020 00:36:47	26012020	260120	003647	53.990	12.418727	-57.475702	54.020	0.180	-0.180	0.790	53.990	-1.800	1.400																			1579999007.0	0.43	0.80
26/01/2020 00:36:48	26012020	260120	003648	54.100	12.418728	-57.475703	54.080	0.000	0.250	0.590	54.120	-1.300	1.100																			1579999008.0	0.47	0.87
26/01/2020 00:36:49	26012020	260120	003649	54.170	12.418728	-57.475705	54.150	-0.150	0.490	0.450	54.180	-1.000	0.900																			1579999009.0	0.40	0.74
26/01/2020 00:36:50	26012020	260120	003650	54.260	12.418728	-57.475707	54.270	-0.230	0.400	0.310	54.280	-0.900	0.800																			1579999010.0	0.29	0.54
26/01/2020 00:36:51	26012020	260120	003651	54.380	12.418728	-57.475707	54.390	-0.230	0.050	0.180	54.410	-1.100	0.700																			1579999011.0	0.07	0.13
26/01/2020 00:36:52	26012020	260120	003652	54.490	12.418730	-57.475707	54.470	-0.140	-0.360	0.090	54.510	-1.600	0.500																			1579999012.0	0.23	0.43
26/01/2020 00:36:53	26012020	260120	003653	54.570	12.418730	-57.475705	54.530	0.010	-0.600	0.090	54.590	-1.900	0.500																			1579999013.0	0.37	0.69
26/01/2020 00:36:54	26012020	260120	003654	54.620	12.418732	-57.475703	54.580	0.120	-0.530	0.230	54.640	-2.000	0.600																			1579999014.0	0.32	0.59
26/01/2020 00:36:55	26012020	260120	003655	54.650	12.418732	-57.475703	54.590	0.120	-0.170	0.460	54.650	-1.800	0.800																			1579999015.0	0.21	0.39
26/01/2020 00:36:56	26012020	260120	003656	54.650	12.418730	-57.475703	54.550	0.030	0.230	0.730	54.650	-1.300	1.000																			1579999016.0	0.31	0.57
26/01/2020 00:36:57	26012020	260120	003657	54.580	12.418728	-57.475703	54.470	-0.060	0.330	0.990	54.580	-1.100	1.300																			1579999017.0	0.42	0.78
26/01/2020 00:36:58	26012020	260120	003658	54.520	12.418727	-57.475703	54.490	-0.040	0.070	1.070	54.520	-1.200	1.500																			1579999018.0	0.30	0.56
26/01/2020 00:36:59	26012020	260120	003659	54.590	12.418727	-57.475703	54.630	0.070	-0.280	1.000	54.590	-1.500	1.500	1015.00	25.30	25.40	21.80	21.80	-1.00	81.00	80.00	393.00	25.00	332.00	6.30	25.00	6.20	14	3545.00	27.40	27.40	1579999019.0	0.11	0.20
26/01/2020 00:37:00	26012020	260120	003700	54.720	12.418728	-57.475702	54.710	0.120	-0.380	0.950	54.740	-1.800	1.400																			1579999020.0	0.36	0.67
26/01/2020 00:37:01	26012020	260120	003701	54.770	12.418728	-57.475702	54.660	0.050	-0.240	0.980	54.770	-1.700	1.400																			1579999021.0	0.25	0.46
26/01/2020 00:37:02	26012020	260120	003702	54.720	12.418728	-57.475702	54.600	-0.040	-0.070	0.990	54.710	-1.500	1.400																			1579999022.0	0.14	0.26
26/01/2020 00:37:03	26012020	260120	003703	54.660	12.418728	-57.475702	54.580	-0.030	-0.030	0.900	54.650	-1.400	1.400																			1579999023.0	0.22	0.41
26/01/2020 00:37:04	26012020	260120	003704	54.660	12.418727	-57.475702	54.580	0.050	-0.130	0.750	54.660	-1.500	1.200																			1579999024.0	0.12	0.22
26/01/2020 00:37:05	26012020	260120	003705	54.650	12.418728	-57.475702	54.510	0.070	-0.230	0.610	54.640	-1.600	1.100																			1579999025.0	0.09	0.17
26/01/2020 00:37:06	26012020	260120	003706	54.550	12.418728	-57.475702	54.380	-0.040	-0.170	0.520	54.520	-1.600	1.000																			1579999026.0	0.23	0.43
26/01/2020 00:37:07	26012020	260120	003707	54.450	12.418730	-57.475702	54.380	-0.160	-0.000	0.400	54.450	-1.500	0.900																			1579999027.0	0.19	0.35
26/01/2020 00:37:08	26012020	260120	003708	54.540	12.418730	-57.475702	54.600	-0.160	0.080	0.230	54.580	-1.300	0.700																			1579999028.0	0.17	0.31
26/01/2020 00:37:09	26012020	260120	003709	54.780	12.418728	-57.475703	54.800	-0.050	0.060	0.170	54.780	-1.300	0.600																			1579999029.0	0.16	0.30
26/01/2020 00:37:10	26012020	260120	003710	54.920	12.418728	-57.475703	54.780	0.030	0.070	0.270	54.920	-1.300	0.600																			1579999030.0	0.12	0.22
26/01/2020 00:37:11	26012020	260120	003711	54.820	12.418728	-57.475702	54.600	0.040	0.080	0.470	54.820	-1.300	0.800																			1579999031.0	0.18	0.33
26/01/2020 00:37:12	26012020	260120	003712	54.620	12.418727	-57.475703	54.430	0.090	-0.150	0.700	54.620	-1.400	1.000																			1579999032.0	0.20	0.37
26/01/2020 00:37:13	26012020	260120	003713	54.480	12.418727	-57.475703	54.370	0.230	-0.560	0.890	54.480	-1.700	1.200																			1579999033.0	0.05	0.09
26/01/2020 00:37:14	26012020	260120	003714	54.450	12.418728	-57.475702	54.390	0.300	-0.680	1.090	54.450	-2.100	1.400																			1579999034.0	0.34	0.63
26/01/2020 00:37:15	26012020	260120	003715	54.480	12.418728	-57.475700	54.430	0.140	-0.280	1.260	54.480	-1.900	1.600																			1579999035.0	0.42	0.78
26/01/2020 00:37:16	26012020	260120	003716	54.530	12.418728	-57.475700	54.500	-0.200	0.300	1.350	54.530	-1.400	1.700																			1579999036.0	0.13	0.24
26/01/2020 00:37:17	26012020	260120	003717	54.600	12.418725	-57.475702	54.570	-0.450	0.570	1.360	54.600	-0.900	1.800																			1579999037.0	0.59	1.09
26/01/2020 00:37:18	26012020	260120	003718	54.650	12.418723	-57.475702	54.570	-0.480	0.380	1.300	54.650	-0.900	1.700																			1579999038.0	0.62	1.15
26/01/2020 00:37:19	26012020	260120	003719	54.630	12.418722	-57.475702	54.500	-0.300	-0.040	1.170	54.630	-1.200	1.600																			1579999039.0	0.36	0.67
26/01/2020 00:37:20	26012020	260120	003720	54.550	12.418722	-57.475700	54.410	-0.010	-0.410	0.930	54.550	-1.600	1.500																			1579999040.0	0.28	0.52
26/01/2020 00:37:21	26012020	260120	003721	54.480	12.418723	-57.475700	54.370	0.300	-0.670	0.590	54.480	-1.900	1.200																			1579999041.0	0.29	0.54
26/01/2020 00:37:22	26012020	260120	003722	54.480	12.418725	-57.475700	54.420	0.500	-0.760	0.180	54.480	-2.100	0.800																			1579999042.0	0.38	0.70
26/01/2020 00:37:23	26012020	260120	003723	54.560	12.418727	-57.475700	54.530	0.500	-0.550	-0.140	54.560	-2.100	0.400																			1579999043.0	0.53	0.98
26/01/2020 00:37:24	26012020	260120	003724	54.680	12.418728	-57.475702	54.610	0.300	-0.040	-0.250	54.680	-1.700	0.200																			1579999044.0	0.57	1.06
26/01/2020 00:37:25	26012020	260120	003725	54.720	12.418730	-57.475703	54.570	-0.020	0.560	-0.050	54.720	-1.100	0.200																			1579999045.0	0.48	0.89
26/01/2020 00:37:26	26012020	260120	003726	54.650	12.418730	-57.475705	54.510	-0.300	0.860	0.400	54.650	-0.600	0.600																			1579999046.0	0.46	0.85
26/01/2020 00:37:27	26012020	260120	003727	54.600	12.418727	-57.475707	54.530	-0.410	0.600	0.920	54.600	-0.600	1.100																			1579999047.0	0.53	0.98
26/01/2020 00:37:28	26012020	260120	003728	54.660	12.418725	-57.475705	54.680	-0.350	-0.080	1.310	54.660	-1.100	1.600																			1579999048.0	0.60	1.11
26/01/2020 00:37:29	26012020	260120	003729	54.840	12.418723	-57.475702	54.920	-0.200	-0.750	1.440	54.840	-1.800	1.800																			1579999049.0	0.77	1.43
26/01/2020 00:37:30	26012020	260120	003730	55.090	12.418722	-57.475698	55.100	-0.050	-0.950	1.520	55.090	-2.300	1.900																			1579999050.0	0.72	1.33
26/01/2020 00:37:31	26012020	260120	003731	55.190	12.418722	-57.475697	55.040	0.070	-0.560	1.710	55.190	-2.200	2.000																			1579999051.0	0.44	0.81
26/01/2020 00:37:32	26012020	260120	003732	55.050	12.418720	-57.475697	54.820	0.150	0.040	1.830	55.050	-1.600	2.200																			1579999052.0	0.37	0.69
26/01/2020 00:37:33	26012020	260120	003733	54.820	12.418717	-57.475698	54.670	0.210	0.230	1.560	54.820	-1.200	2.200																			1579999053.0	0.63	1.17
26/01/2020 00:37:34	26012020	260120	003734	54.760	12.418717	-57.475700	54.760	0.240	-0.050	0.840	54.760	-1.300	1.700																			1579999054.0	0.42	0.78
26/01/2020 00:37:35	26012020	260120	003735	54.950	12.418720	-57.475702	55.050	0.220	-0.320	-0.020	54.950	-1.600	0.800																			1579999055.0	0.74	1.37
26/01/2020 00:37:36	26012020	260120	003736	55.290	12.418725	-57.475703	55.360	0.110	-0.180	-0.610	55.290	-1.700	0.000																			1579999056.0	1.22	2.26
26/01/2020 00:37:37	26012020	260120	003737	55.550	12.418730	-57.475705	55.490	-0.100	0.300	-0.650	55.550	-1.300	-0.300																			1579999057.0	1.00	1.85
26/01/2020 00:37:38	26012020	260120	003738	55.600	12.418730	-57.475707	55.410	-0.300	0.590	-0.250	55.590	-0.900	-0.100																			1579999058.0	0.54	1.00
26/01/2020 00:37:39	26012020	260120	003739	55.460	12.418727	-57.475708	55.310	-0.360	0.260	0.270	55.460	-0.900	0.400																			1579999059.0	0.66	1.22
26/01/2020 00:37:40	26012020	260120	003740	55.370	12.418725	-57.475708	55.290	-0.180	-0.480	0.780	55.370	-1.500	0.900																			1579999060.0	0.67	1.24
26/01/2020 00:37:41	26012020	260120	003741	55.350	12.418723	-57.475705	55.320	0.130	-1.010	1.290	55.350	-2.200	1.500																			1579999061.0	0.79	1.46
26/01/2020 00:37:42	26012020	260120	003742	55.390	12.418722	-57.475700	55.400	0.330	-0.850	1.670	55.390	-2.400	1.900																			1579999062.0	0.91	1.69
26/01/2020 00:37:43	26012020	260120	003743	55.480	12.418722	-57.475698	55.470	0.240	-0.160	1.820	55.480	-1.900	2.200																			1579999063.0	0.62	1.15
26/01/2020 00:37:44	26012020	260120	003744	55.550	12.418718	-57.475698	55.530	-0.040	0.510	1.650	55.550	-1.200	2.200																			1579999064.0	0.57	1.06
26/01/2020 00:37:45	26012020	260120	003745	55.610	12.418717	-57.475702	55.580	-0.250	0.700	1.250	55.610	-0.700	1.900																			1579999065.0	0.71	1.31
26/01/2020 00:37:46	26012020	260120	003746	55.660	12.418717	-57.475703	55.600	-0.200	0.380	0.760	55.660	-0.800	1.400																			1579999066.0	0.61	1.13
26/01/2020 00:37:47	26012020	260120	003747	55.700	12.418720	-57.475705	55.630	0.060	-0.190	0.300	55.700	-1.300	0.900																			1579999067.0	0.61	1.13
26/01/2020 00:37:48	26012020	260120	003748	55.720	12.418723	-57.475705	55.630	0.250	-0.590	-0.060	55.720	-1.800	0.500																			1579999068.0	0.73	1.35
26/01/2020 00:37:49	26012020	260120	003749	55.710	12.418725	-57.475705	55.610	0.200	-0.620	-0.310	55.710	-2.000	0.200																			1579999069.0	0.65	1.20
26/01/2020 00:37:50	26012020	260120	003750	55.690	12.418727	-57.475705	55.650	-0.020	-0.340	-0.370	55.700	-1.900	0.100																			1579999070.0	0.37	0.69
26/01/2020 00:37:51	26012020	260120	003751	55.760	12.418728	-57.475707	55.740	-0.240	0.040	-0.170	55.760	-1.500	0.100																			1579999071.0	0.30	0.56
26/01/2020 00:37:52	26012020	260120	003752	55.830	12.418727	-57.475708	55.810	-0.320	0.290	0.240	55.840	-1.200	0.400																			1579999072.0	0.39	0.72
26/01/2020 00:37:53	26012020	260120	003753	55.880	12.418723	-57.475708	55.840	-0.240	0.210	0.670	55.880	-1.100	0.900																			1579999073.0	0.51	0.94
26/01/2020 00:37:54	26012020	260120	003754	55.880	12.418722	-57.475708	55.850	-0.060	-0.130	1.040	55.880	-1.300	1.300																			1579999074.0	0.66	1.22
26/01/2020 00:37:55	26012020	260120	003755	55.890	12.418718	-57.475705	55.910	0.120	-0.450	1.340	55.890	-1.700	1.600																			1579999075.0	0.76	1.41
26/01/2020 00:37:56	26012020	260120	003756	55.960	12.418717	-57.475702	56.010	0.250	-0.490	1.460	55.960	-1.900	1.800																			1579999076.0	0.71	1.31
26/01/2020 00:37:57	26012020	260120	003757	56.080	12.418717	-57.475700	56.100	0.290	-0.200	1.330	56.080	-1.800	1.800																			1579999077.0	0.39	0.72
26/01/2020 00:37:58	26012020	260120	003758	56.170	12.418717	-57.475702	56.140	0.260	0.180	1.020	56.170	-1.400	1.600																			1579999078.0	0.19	0.35
26/01/2020 00:37:59	26012020	260120	003759	56.200	12.418717	-57.475705	56.160	0.170	0.320	0.660	56.200	-1.100	1.200	1015.10	25.30	25.40	21.80	21.80	-1.00	80.00	80.00	393.00	25.00	330.00	6.30	24.00	6.10	14	3663.00	27.40	27.40	1579999079.0	0.62	1.15
26/01/2020 00:38:00	26012020	260120	003800	56.230	12.418718	-57.475708	56.180	0.040	0.100	0.380	56.230	-1.200	0.900																			1579999080.0	0.74	1.37
26/01/2020 00:38:01	26012020	260120	003801	56.270	12.418720	-57.475708	56.240	-0.080	-0.210	0.240	56.270	-1.500	0.700																			1579999081.0	0.54	1.00
26/01/2020 00:38:02	26012020	260120	003802	56.320	12.418722	-57.475708	56.290	-0.180	-0.320	0.280	56.320	-1.700	0.600																			1579999082.0	0.35	0.65
26/01/2020 00:38:03	26012020	260120	003803	56.350	12.418722	-57.475708	56.310	-0.240	-0.220	0.490	56.350	-1.700	0.800																			1579999083.0	0.13	0.24
26/01/2020 00:38:04	26012020	260120	003804	56.360	12.418720	-57.475708	56.340	-0.260	-0.110	0.720	56.360	-1.500	1.000																			1579999084.0	0.40	0.74
26/01/2020 00:38:05	26012020	260120	003805	56.390	12.418718	-57.475707	56.370	-0.250	-0.100	0.840	56.390	-1.500	1.200																			1579999085.0	0.62	1.15
26/01/2020 00:38:06	26012020	260120	003806	56.410	12.418715	-57.475707	56.360	-0.200	-0.090	0.890	56.410	-1.500	1.300																			1579999086.0	0.54	1.00
26/01/2020 00:38:07	26012020	260120	003807	56.390	12.418713	-57.475705	56.340	-0.090	-0.040	0.910	56.390	-1.500	1.300																			1579999087.0	0.32	0.59
26/01/2020 00:38:08	26012020	260120	003808	56.380	12.418713	-57.475705	56.370	0.100	-0.040	0.840	56.380	-1.400	1.300																			1579999088.0	0.12	0.22
26/01/2020 00:38:09	26012020	260120	003809	56.430	12.418713	-57.475707	56.420	0.320	-0.120	0.710	56.430	-1.500	1.200																			1579999089.0	0.11	0.20
26/01/2020 00:38:10	26012020	260120	003810	56.460	12.418715	-57.475707	56.370	0.450	-0.220	0.600	56.460	-1.600	1.100																			1579999090.0	0.22	0.41
26/01/2020 00:38:11	26012020	260120	003811	56.400	12.418715	-57.475707	56.300	0.400	-0.220	0.540	56.400	-1.600	1.000																			1579999091.0	0.30	0.56
26/01/2020 00:38:12	26012020	260120	003812	56.330	12.418717	-57.475708	56.270	0.170	-0.070	0.490	56.330	-1.500	0.900																			1579999092.0	0.31	0.57
26/01/2020 00:38:13	26012020	260120	003813	56.330	12.418718	-57.475708	56.310	-0.110	0.100	0.550	56.330	-1.400	0.900																			1579999093.0	0.31	0.57
26/01/2020 00:38:14	26012020	260120	003814	56.370	12.418718	-57.475710	56.360	-0.270	0.080	0.760	56.370	-1.300	1.100																			1579999094.0	0.29	0.54
26/01/2020 00:38:15	26012020	260120	003815	56.400	12.418717	-57.475710	56.390	-0.260	-0.160	1.020	56.400	-1.400	1.300																			1579999095.0	0.21	0.39
26/01/2020 00:38:16	26012020	260120	003816	56.420	12.418715	-57.475708	56.390	-0.170	-0.380	1.210	56.420	-1.700	1.500																			1579999096.0	0.50	0.93
26/01/2020 00:38:17	26012020	260120	003817	56.420	12.418713	-57.475705	56.360	-0.140	-0.240	1.320	56.420	-1.700	1.700																			1579999097.0	0.69	1.28
26/01/2020 00:38:18	26012020	260120	003818	56.380	12.418712	-57.475703	56.280	-0.180	0.130	1.300	56.380	-1.400	1.700																			1579999098.0	0.57	1.06
26/01/2020 00:38:19	26012020	260120	003819	56.290	12.418710	-57.475705	56.180	-0.150	0.270	1.020	56.290	-1.100	1.600																			1579999099.0	0.49	0.91
26/01/2020 00:38:20	26012020	260120	003820	56.210	12.418708	-57.475707	56.140	0.070	-0.060	0.530	56.210	-1.200	1.200																			1579999100.0	0.46	0.85
26/01/2020 00:38:21	26012020	260120	003821	56.230	12.418712	-57.475708	56.230	0.370	-0.530	0.040	56.230	-1.700	0.700																			1579999101.0	0.53	0.98
26/01/2020 00:38:22	26012020	260120	003822	56.340	12.418715	-57.475708	56.350	0.460	-0.630	-0.320	56.340	-2.000	0.200																			1579999102.0	0.80	1.48
26/01/2020 00:38:23	26012020	260120	003823	56.450	12.418718	-57.475708	56.390	0.230	-0.200	-0.460	56.450	-1.900	-0.000																			1579999103.0	0.67	1.24
26/01/2020 00:38:24	26012020	260120	003824	56.460	12.418720	-57.475710	56.330	-0.140	0.410	-0.270	56.460	-1.300	0.000																			1579999104.0	0.48	0.89
26/01/2020 00:38:25	26012020	260120	003825	56.360	12.418718	-57.475713	56.250	-0.340	0.640	0.170	56.360	-0.800	0.300																			1579999105.0	0.69	1.28
26/01/2020 00:38:26	26012020	260120	003826	56.280	12.418717	-57.475715	56.260	-0.240	0.210	0.680	56.280	-0.900	0.800																			1579999106.0	0.62	1.15
26/01/2020 00:38:27	26012020	260120	003827	56.340	12.418715	-57.475713	56.400	0.010	-0.490	1.180	56.340	-1.500	1.300																			1579999107.0	0.42	0.78
26/01/2020 00:38:28	26012020	260120	003828	56.450	12.418713	-57.475710	56.520	0.130	-0.800	1.690	56.480	-2.100	1.800																			1579999108.0	0.84	1.56
26/01/2020 00:38:29	26012020	260120	003829	56.540	12.418712	-57.475707	56.480	0.030	-0.530	2.150	56.540	-2.100	2.300																			1579999109.0	0.99	1.83
26/01/2020 00:38:30	26012020	260120	003830	56.440	12.418708	-57.475703	56.300	-0.170	0.000	2.350	56.440	-1.600	2.700																			1579999110.0	0.92	1.70
26/01/2020 00:38:31	26012020	260120	003831	56.250	12.418703	-57.475705	56.140	-0.210	0.250	2.090	56.250	-1.200	2.700																			1579999111.0	0.80	1.48
26/01/2020 00:38:32	26012020	260120	003832	56.170	12.418703	-57.475707	56.190	-0.010	0.070	1.350	56.170	-1.200	2.200																			1579999112.0	0.46	0.85
26/01/2020 00:38:33	26012020	260120	003833	56.310	12.418705	-57.475708	56.360	0.250	-0.130	0.470	56.310	-1.400	1.300																			1579999113.0	0.62	1.15
26/01/2020 00:38:34	26012020	260120	003834	56.480	12.418710	-57.475710	56.440	0.330	-0.070	-0.320	56.480	-1.500	0.500																			1579999114.0	1.09	2.02
26/01/2020 00:38:35	26012020	260120	003835	56.530	12.418715	-57.475712	56.420	0.170	0.140	-0.890	56.530	-1.400	-0.200																			1579999115.0	1.16	2.15
26/01/2020 00:38:36	26012020	260120	003836	56.480	12.418718	-57.475717	56.330	-0.080	0.220	-1.070	56.480	-1.200	-0.600																			1579999116.0	1.07	1.98
26/01/2020 00:38:37	26012020	260120	003837	56.370	12.418720	-57.475718	56.230	-0.240	0.010	-0.810	56.370	-1.200	-0.600																			1579999117.0	0.70	1.30
26/01/2020 00:38:38	26012020	260120	003838	56.280	12.418718	-57.475720	56.210	-0.220	-0.390	-0.210	56.280	-1.600	-0.100																			1579999118.0	0.14	0.26
26/01/2020 00:38:39	26012020	260120	003839	56.260	12.418717	-57.475717	56.250	-0.070	-0.670	0.510	56.260	-1.900	0.600																			1579999119.0	0.56	1.04
26/01/2020 00:38:40	26012020	260120	003840	56.280	12.418715	-57.475713	56.310	0.090	-0.620	1.170	56.290	-2.100	1.300																			1579999120.0	0.85	1.57
26/01/2020 00:38:41	26012020	260120	003841	56.330	12.418712	-57.475712	56.330	0.170	-0.300	1.650	56.330	-1.900	1.800																			1579999121.0	0.86	1.59
26/01/2020 00:38:42	26012020	260120	003842	56.330	12.418708	-57.475710	56.330	0.150	0.100	1.870	56.330	-1.500	2.200																			1579999122.0	0.71	1.31
26/01/2020 00:38:43	26012020	260120	003843	56.350	12.418707	-57.475710	56.390	0.040	0.380	1.850	56.350	-1.100	2.300																			1579999123.0	0.52	0.96
26/01/2020 00:38:44	26012020	260120	003844	56.410	12.418705	-57.475710	56.410	-0.130	0.480	1.660	56.410	-0.900	2.200																			1579999124.0	0.35	0.65
26/01/2020 00:38:45	26012020	260120	003845	56.420	12.418705	-57.475712	56.390	-0.230	0.360	1.290	56.420	-0.900	1.900																			1579999125.0	0.21	0.39
26/01/2020 00:38:46	26012020	260120	003846	56.430	12.418705	-57.475712	56.420	-0.170	-0.010	0.650	56.430	-1.200	1.400																			1579999126.0	0.28	0.52
26/01/2020 00:38:47	26012020	260120	003847	56.510	12.418707	-57.475713	56.510	0.050	-0.470	-0.100	56.510	-1.600	0.700																			1579999127.0	0.61	1.13
26/01/2020 00:38:48	26012020	260120	003848	56.610	12.418712	-57.475715	56.600	0.280	-0.750	-0.650	56.610	-2.000	0.000																			1579999128.0	0.94	1.74
26/01/2020 00:38:49	26012020	260120	003849	56.690	12.418715	-57.475717	56.660	0.300	-0.650	-0.800	56.690	-2.100	-0.400																			1579999129.0	0.95	1.76
26/01/2020 00:38:50	26012020	260120	003850	56.750	12.418718	-57.475718	56.710	0.090	-0.200	-0.500	56.750	-1.800	-0.300																			1579999130.0	0.53	0.98
26/01/2020 00:38:51	26012020	260120	003851	56.760	12.418717	-57.475718	56.700	-0.210	0.250	0.130	56.760	-1.300	0.200																			1579999131.0	0.30	0.56
26/01/2020 00:38:52	26012020	260120	003852	56.740	12.418713	-57.475718	56.730	-0.360	0.360	0.800	56.740	-1.000	0.900																			1579999132.0	0.83	1.54
26/01/2020 00:38:53	26012020	260120	003853	56.770	12.418708	-57.475717	56.810	-0.260	0.110	1.290	56.770	-1.100	1.500																			1579999133.0	1.00	1.85
26/01/2020 00:38:54	26012020	260120	003854	56.850	12.418705	-57.475715	56.880	-0.020	-0.170	1.640	56.850	-1.400	1.900																			1579999134.0	0.88	1.63
26/01/2020 00:38:55	26012020	260120	003855	56.900	12.418703	-57.475712	56.850	0.170	-0.230	1.920	56.900	-1.600	2.200																			1579999135.0	0.74	1.37
26/01/2020 00:38:56	26012020	260120	003856	56.820	12.418702	-57.475710	56.730	0.170	-0.120	2.010	56.820	-1.600	2.400																			1579999136.0	0.55	1.02
26/01/2020 00:38:57	26012020	260120	003857	56.710	12.418700	-57.475710	56.660	0.080	-0.090	1.700	56.710	-1.500	2.300																			1579999137.0	0.32	0.59
26/01/2020 00:38:58	26012020	260120	003858	56.700	12.418700	-57.475710	56.710	0.060	-0.230	1.030	56.700	-1.500	1.800																			1579999138.0	0.26	0.48
26/01/2020 00:38:59	26012020	260120	003859	56.820	12.418703	-57.475713	56.850	0.150	-0.320	0.280	56.820	-1.700	1.100	1015.00	25.40	25.40	21.90	21.90	-1.00	81.00	81.00	393.00	24.90	329.00	6.20	24.00	6.00	14	3539.00	27.50	27.40	1579999139.0	0.74	1.37
26/01/2020 00:39:00	26012020	260120	003900	56.980	12.418708	-57.475715	56.960	0.210	-0.160	-0.290	56.980	-1.700	0.400																			1579999140.0	1.03	1.91
26/01/2020 00:39:01	26012020	260120	003901	57.060	12.418712	-57.475717	56.930	0.130	0.180	-0.480	57.060	-1.400	-0.000																			1579999141.0	0.90	1.67
26/01/2020 00:39:02	26012020	260120	003902	56.980	12.418712	-57.475720	56.830	-0.050	0.300	-0.370	56.980	-1.100	-0.000																			1579999142.0	0.58	1.07
26/01/2020 00:39:03	26012020	260120	003903	56.900	12.418712	-57.475720	56.820	-0.200	-0.010	-0.070	56.900	-1.200	0.200																			1579999143.0	0.32	0.59
26/01/2020 00:39:04	26012020	260120	003904	56.890	12.418710	-57.475720	56.830	-0.290	-0.400	0.420	56.890	-1.600	0.600																			1579999144.0	0.39	0.72
26/01/2020 00:39:05	26012020	260120	003905	56.880	12.418708	-57.475717	56.830	-0.340	-0.480	0.940	56.880	-1.900	1.100																			1579999145.0	0.79	1.46
26/01/2020 00:39:06	26012020	260120	003906	56.880	12.418707	-57.475713	56.870	-0.280	-0.270	1.310	56.880	-1.800	1.600																			1579999146.0	0.79	1.46
26/01/2020 00:39:07	26012020	260120	003907	56.920	12.418703	-57.475712	56.910	-0.080	-0.090	1.480	56.920	-1.500	1.800																			1579999147.0	0.68	1.26
26/01/2020 00:39:08	26012020	260120	003908	56.940	12.418702	-57.475712	56.870	0.180	0.010	1.570	56.940	-1.400	1.900																			1579999148.0	0.55	1.02
26/01/2020 00:39:09	26012020	260120	003909	56.880	12.418700	-57.475710	56.760	0.310	0.080	1.550	56.880	-1.300	2.000																			1579999149.0	0.42	0.78
26/01/2020 00:39:10	26012020	260120	003910	56.780	12.418698	-57.475710	56.710	0.250	0.130	1.240	56.780	-1.300	1.900																			1579999150.0	0.24	0.44
26/01/2020 00:39:11	26012020	260120	003911	56.780	12.418698	-57.475710	56.760	0.100	0.070	0.590	56.780	-1.300	1.400																			1579999151.0	0.15	0.28
26/01/2020 00:39:12	26012020	260120	003912	56.850	12.418702	-57.475712	56.810	0.040	-0.110	-0.110	56.850	-1.400	0.600																			1579999152.0	0.69	1.28
26/01/2020 00:39:13	26012020	260120	003913	56.900	12.418705	-57.475715	56.820	0.130	-0.280	-0.510	56.900	-1.600	0.100																			1579999153.0	1.07	1.98
26/01/2020 00:39:14	26012020	260120	003914	56.890	12.418710	-57.475717	56.820	0.240	-0.360	-0.510	56.890	-1.700	-0.100																			1579999154.0	1.02	1.89
26/01/2020 00:39:15	26012020	260120	003915	56.900	12.418712	-57.475718	56.870	0.190	-0.310	-0.210	56.900	-1.700	0.000																			1579999155.0	0.57	1.06
26/01/2020 00:39:16	26012020	260120	003916	56.960	12.418712	-57.475717	56.970	-0.030	-0.170	0.310	56.960	-1.600	0.400																			1579999156.0	0.10	0.19
26/01/2020 00:39:17	26012020	260120	003917	57.040	12.418710	-57.475715	57.030	-0.310	0.000	0.980	57.040	-1.500	1.100																			1579999157.0	0.64	1.19
26/01/2020 00:39:18	26012020	260120	003918	57.050	12.418705	-57.475713	57.020	-0.500	0.130	1.650	57.050	-1.300	1.700																			1579999158.0	1.09	2.02
26/01/2020 00:39:19	26012020	260120	003919	57.030	12.418700	-57.475710	57.030	-0.490	0.160	2.060	57.030	-1.200	2.300																			1579999159.0	1.24	2.30
26/01/2020 00:39:20	26012020	260120	003920	57.070	12.418697	-57.475708	57.110	-0.270	0.050	2.070	57.070	-1.300	2.500																			1579999160.0	1.06	1.96
26/01/2020 00:39:21	26012020	260120	003921	57.170	12.418693	-57.475705	57.180	0.030	-0.140	1.720	57.170	-1.400	2.300																			1579999161.0	0.61	1.13
26/01/2020 00:39:22	26012020	260120	003922	57.220	12.418695	-57.475705	57.150	0.250	-0.270	1.170	57.220	-1.600	1.900																			1579999162.0	0.18	0.33
26/01/2020 00:39:23	26012020	260120	003923	57.160	12.418697	-57.475705	57.000	0.350	-0.300	0.570	57.160	-1.700	1.300																			1579999163.0	0.40	0.74
26/01/2020 00:39:24	26012020	260120	003924	57.010	12.418700	-57.475707	56.840	0.370	-0.290	0.000	57.010	-1.700	0.700																			1579999164.0	0.74	1.37
26/01/2020 00:39:25	26012020	260120	003925	56.890	12.418703	-57.475708	56.820	0.390	-0.270	-0.500	56.890	-1.700	0.200																			1579999165.0	1.04	1.93
26/01/2020 00:39:26	26012020	260120	003926	56.940	12.418708	-57.475712	56.960	0.330	-0.170	-0.790	56.940	-1.600	-0.300																			1579999166.0	1.10	2.04
26/01/2020 00:39:27	26012020	260120	003927	57.110	12.418712	-57.475713	57.120	0.100	0.090	-0.700	57.110	-1.400	-0.400																			1579999167.0	0.80	1.48
26/01/2020 00:39:28	26012020	260120	003928	57.250	12.418712	-57.475713	57.220	-0.260	0.330	-0.150	57.250	-1.200	-0.100																			1579999168.0	0.19	0.35
26/01/2020 00:39:29	26012020	260120	003929	57.310	12.418710	-57.475713	57.240	-0.510	0.310	0.740	57.310	-1.000	0.700																			1579999169.0	0.53	0.98
26/01/2020 00:39:30	26012020	260120	003930	57.290	12.418705	-57.475710	57.190	-0.530	-0.010	1.670	57.280	-1.200	1.600																			1579999170.0	1.18	2.19
26/01/2020 00:39:31	26012020	260120	003931	57.200	12.418698	-57.475705	57.090	-0.330	-0.410	2.340	57.200	-1.600	2.500																			1579999171.0	1.55	2.87
26/01/2020 00:39:32	26012020	260120	003932	57.090	12.418695	-57.475700	56.940	-0.050	-0.610	2.620	57.060	-1.900	2.900																			1579999172.0	1.43	2.65
26/01/2020 00:39:33	26012020	260120	003933	56.910	12.418693	-57.475697	56.810	0.220	-0.480	2.480	56.910	-1.900	3.000																			1579999173.0	0.84	1.56
26/01/2020 00:39:34	26012020	260120	003934	56.830	12.418693	-57.475697	56.790	0.360	-0.150	1.870	56.830	-1.700	2.600																			1579999174.0	0.16	0.30
26/01/2020 00:39:35	26012020	260120	003935	56.880	12.418693	-57.475698	56.880	0.310	0.140	0.900	56.880	-1.400	1.800																			1579999175.0	0.45	0.83
26/01/2020 00:39:36	26012020	260120	003936	57.000	12.418697	-57.475702	56.940	0.110	0.270	-0.120	57.000	-1.200	0.800																			1579999176.0	0.91	1.69
26/01/2020 00:39:37	26012020	260120	003937	57.050	12.418702	-57.475705	56.920	-0.100	0.190	-0.870	57.050	-1.100	-0.100																			1579999177.0	1.21	2.24
26/01/2020 00:39:38	26012020	260120	003938	57.030	12.418707	-57.475708	56.900	-0.180	-0.050	-1.220	57.030	-1.300	-0.700																			1579999178.0	1.16	2.15
26/01/2020 00:39:39	26012020	260120	003939	57.020	12.418710	-57.475708	56.910	-0.080	-0.340	-1.130	57.020	-1.600	-0.800																			1579999179.0	0.80	1.48
26/01/2020 00:39:40	26012020	260120	003940	57.020	12.418712	-57.475708	56.920	0.070	-0.520	-0.640	57.020	-1.800	-0.500																			1579999180.0	0.38	0.70
26/01/2020 00:39:41	26012020	260120	003941	57.000	12.418710	-57.475707	56.890	0.120	-0.430	0.170	57.000	-1.900	0.200																			1579999181.0	0.46	0.85
26/01/2020 00:39:42	26012020	260120	003942	56.940	12.418707	-57.475703	56.850	0.030	-0.130	1.090	56.940	-1.700	1.000																			1579999182.0	0.92	1.70
26/01/2020 00:39:43	26012020	260120	003943	56.890	12.418702	-57.475700	56.810	-0.160	0.210	1.940	56.890	-1.300	2.000																			1579999183.0	1.25	2.31
26/01/2020 00:39:44	26012020	260120	003944	56.820	12.418697	-57.475698	56.720	-0.310	0.420	2.530	56.820	-1.000	2.700																			1579999184.0	1.26	2.33
26/01/2020 00:39:45	26012020	260120	003945	56.720	12.418693	-57.475697	56.650	-0.300	0.360	2.700	56.720	-0.900	3.100																			1579999185.0	0.96	1.78
26/01/2020 00:39:46	26012020	260120	003946	56.670	12.418690	-57.475697	56.650	-0.100	-0.060	2.380	56.670	-1.200	3.000																			1579999186.0	0.50	0.93
26/01/2020 00:39:47	26012020	260120	003947	56.710	12.418690	-57.475695	56.690	0.170	-0.620	1.690	56.710	-1.700	2.500																			1579999187.0	0.17	0.31
26/01/2020 00:39:48	26012020	260120	003948	56.770	12.418695	-57.475695	56.690	0.360	-0.810	0.920	56.770	-2.200	1.700																			1579999188.0	0.73	1.35
26/01/2020 00:39:49	26012020	260120	003949	56.760	12.418698	-57.475695	56.630	0.380	-0.440	0.300	56.760	-2.100	1.000																			1579999189.0	1.03	1.91
26/01/2020 00:39:50	26012020	260120	003950	56.700	12.418703	-57.475698	56.560	0.270	0.100	-0.140	56.700	-1.500	0.500																			1579999190.0	0.92	1.70
26/01/2020 00:39:51	26012020	260120	003951	56.640	12.418703	-57.475702	56.510	0.060	0.380	-0.400	56.640	-1.100	0.100																			1579999191.0	0.79	1.46
26/01/2020 00:39:52	26012020	260120	003952	56.570	12.418705	-57.475703	56.410	-0.210	0.410	-0.410	56.570	-1.000	-0.000																			1579999192.0	0.52	0.96
26/01/2020 00:39:53	26012020	260120	003953	56.450	12.418705	-57.475703	56.280	-0.460	0.310	-0.140	56.450	-1.000	0.100																			1579999193.0	0.19	0.35
26/01/2020 00:39:54	26012020	260120	003954	56.340	12.418705	-57.475703	56.240	-0.530	-0.010	0.310	56.330	-1.200	0.500																			1579999194.0	0.10	0.19
26/01/2020 00:39:55	26012020	260120	003955	56.310	12.418703	-57.475702	56.300	-0.300	-0.580	0.800	56.310	-1.700	1.000																			1579999195.0	0.39	0.72
26/01/2020 00:39:56	26012020	260120	003956	56.370	12.418703	-57.475700	56.400	0.120	-1.020	1.240	56.380	-2.200	1.400																			1579999196.0	0.71	1.31
26/01/2020 00:39:57	26012020	260120	003957	56.460	12.418702	-57.475695	56.450	0.440	-0.860	1.600	56.460	-2.400	1.800																			1579999197.0	0.95	1.76
26/01/2020 00:39:58	26012020	260120	003958	56.480	12.418700	-57.475692	56.430	0.460	-0.130	1.830	56.480	-1.900	2.100																			1579999198.0	0.83	1.54
26/01/2020 00:39:59	26012020	260120	003959	56.440	12.418697	-57.475690	56.400	0.250	0.610	1.860	56.440	-1.100	2.300	1015.10	25.30	25.40	21.90	21.90	-1.00	81.00	81.00	392.00	24.90	326.00	6.20	21.00	5.90	14	3605.00	27.50	27.40	1579999199.0	0.64	1.19
26/01/2020 00:40:00	26012020	260120	004000	56.430	12.418695	-57.475692	56.400	0.030	0.880	1.540	56.430	-0.600	2.200																			1579999200.0	0.59	1.09
26/01/2020 00:40:01	26012020	260120	004001	56.460	12.418695	-57.475693	56.460	-0.060	0.610	0.820	56.460	-0.600	1.600																			1579999201.0	0.47	0.87
26/01/2020 00:40:02	26012020	260120	004002	56.550	12.418700	-57.475697	56.540	-0.030	0.030	-0.090	56.550	-1.100	0.800																			1579999202.0	0.97	1.80
26/01/2020 00:40:03	26012020	260120	004003	56.660	12.418705	-57.475698	56.640	-0.020	-0.470	-0.830	56.660	-1.600	-0.100																			1579999203.0	1.40	2.59
26/01/2020 00:40:04	26012020	260120	004004	56.780	12.418712	-57.475700	56.800	-0.100	-0.750	-1.090	56.780	-2.000	-0.600																			1579999204.0	1.30	2.41
26/01/2020 00:40:05	26012020	260120	004005	56.950	12.418715	-57.475700	57.020	-0.220	-0.800	-0.810	56.950	-2.200	-0.600																			1579999205.0	0.66	1.22
26/01/2020 00:40:06	26012020	260120	004006	57.170	12.418713	-57.475700	57.190	-0.280	-0.600	-0.110	57.170	-2.100	-0.100																			1579999206.0	0.22	0.41
26/01/2020 00:40:07	26012020	260120	004007	57.260	12.418710	-57.475697	57.170	-0.240	-0.130	0.770	57.260	-1.800	0.700																			1579999207.0	0.87	1.61
26/01/2020 00:40:08	26012020	260120	004008	57.200	12.418705	-57.475695	57.080	-0.140	0.340	1.540	57.170	-1.200	1.600																			1579999208.0	1.30	2.41
26/01/2020 00:40:09	26012020	260120	004009	57.070	12.418698	-57.475692	57.060	-0.040	0.460	1.990	57.070	-0.900	2.200																			1579999209.0	1.40	2.59
26/01/2020 00:40:10	26012020	260120	004010	57.130	12.418695	-57.475690	57.250	0.080	0.220	2.040	57.130	-1.000	2.500																			1579999210.0	0.98	1.81
26/01/2020 00:40:11	26012020	260120	004011	57.390	12.418695	-57.475688	57.550	0.230	-0.140	1.750	57.390	-1.400	2.300																			1579999211.0	0.33	0.61
26/01/2020 00:40:12	26012020	260120	004012	57.700	12.418697	-57.475688	57.780	0.390	-0.340	1.300	57.700	-1.700	1.900																			1579999212.0	0.54	1.00
26/01/2020 00:40:13	26012020	260120	004013	57.870	12.418700	-57.475688	57.810	0.480	-0.310	0.900	57.870	-1.700	1.500																			1579999213.0	0.84	1.56
26/01/2020 00:40:14	26012020	260120	004014	57.840	12.418703	-57.475690	57.670	0.400	-0.160	0.660	57.840	-1.600	1.200																			1579999214.0	0.77	1.43
26/01/2020 00:40:15	26012020	260120	004015	57.680	12.418707	-57.475692	57.520	0.170	-0.060	0.580	57.680	-1.500	1.000																			1579999215.0	0.60	1.11
26/01/2020 00:40:16	26012020	260120	004016	57.580	12.418707	-57.475693	57.530	-0.110	-0.060	0.520	57.580	-1.400	1.000																			1579999216.0	0.40	0.74
26/01/2020 00:40:17	26012020	260120	004017	57.650	12.418708	-57.475693	57.640	-0.370	-0.060	0.470	57.650	-1.400	0.900																			1579999217.0	0.19	0.35
26/01/2020 00:40:18	26012020	260120	004018	57.750	12.418708	-57.475693	57.680	-0.540	-0.010	0.500	57.750	-1.400	0.900																			1579999218.0	0.13	0.24
26/01/2020 00:40:19	26012020	260120	004019	57.760	12.418708	-57.475692	57.660	-0.570	0.080	0.640	57.760	-1.300	1.000																			1579999219.0	0.21	0.39
26/01/2020 00:40:20	26012020	260120	004020	57.740	12.418707	-57.475692	57.670	-0.430	0.040	0.740	57.740	-1.300	1.100																			1579999220.0	0.38	0.70
26/01/2020 00:40:21	26012020	260120	004021	57.770	12.418705	-57.475690	57.680	-0.140	-0.130	0.760	57.770	-1.400	1.200																			1579999221.0	0.47	0.87
26/01/2020 00:40:22	26012020	260120	004022	57.770	12.418703	-57.475688	57.580	0.200	-0.330	0.730	57.760	-1.600	1.200																			1579999222.0	0.40	0.74
26/01/2020 00:40:23	26012020	260120	004023	57.630	12.418703	-57.475688	57.430	0.460	-0.430	0.630	57.630	-1.800	1.100																			1579999223.0	0.30	0.56
26/01/2020 00:40:24	26012020	260120	004024	57.500	12.418705	-57.475687	57.380	0.580	-0.370	0.460	57.500	-1.800	1.000																			1579999224.0	0.42	0.78
26/01/2020 00:40:25	26012020	260120	004025	57.520	12.418708	-57.475688	57.490	0.500	-0.150	0.320	57.520	-1.700	0.800																			1579999225.0	0.60	1.11
26/01/2020 00:40:26	26012020	260120	004026	57.650	12.418710	-57.475688	57.580	0.190	0.150	0.260	57.650	-1.400	0.700																			1579999226.0	0.52	0.96
26/01/2020 00:40:27	26012020	260120	004027	57.690	12.418712	-57.475690	57.490	-0.240	0.430	0.360	57.690	-1.100	0.700																			1579999227.0	0.28	0.52
26/01/2020 00:40:28	26012020	260120	004028	57.550	12.418712	-57.475690	57.320	-0.510	0.410	0.660	57.550	-0.900	0.900																			1579999228.0	0.20	0.37
26/01/2020 00:40:29	26012020	260120	004029	57.380	12.418710	-57.475690	57.260	-0.390	-0.100	0.990	57.380	-1.200	1.200																			1579999229.0	0.25	0.46
26/01/2020 00:40:30	26012020	260120	004030	57.380	12.418708	-57.475688	57.370	0.010	-0.770	1.160	57.380	-1.800	1.500																			1579999230.0	0.50	0.93
26/01/2020 00:40:31	26012020	260120	004031	57.530	12.418708	-57.475683	57.510	0.310	-0.950	1.140	57.530	-2.300	1.600																			1579999231.0	0.92	1.70
26/01/2020 00:40:32	26012020	260120	004032	57.630	12.418710	-57.475680	57.500	0.220	-0.360	1.040	57.630	-2.100	1.500																			1579999232.0	0.83	1.54
26/01/2020 00:40:33	26012020	260120	004033	57.570	12.418708	-57.475680	57.350	-0.150	0.580	0.910	57.570	-1.300	1.400																			1579999233.0	0.28	0.52
26/01/2020 00:40:34	26012020	260120	004034	57.390	12.418707	-57.475682	57.180	-0.440	1.070	0.740	57.390	-0.400	1.200																			1579999234.0	0.76	1.41
26/01/2020 00:40:35	26012020	260120	004035	57.260	12.418705	-57.475687	57.140	-0.350	0.620	0.380	57.260	-0.400	1.000																			1579999235.0	0.88	1.63
26/01/2020 00:40:36	26012020	260120	004036	57.300	12.418707	-57.475688	57.240	0.060	-0.490	-0.100	57.300	-1.300	0.500																			1579999236.0	0.57	1.06
26/01/2020 00:40:37	26012020	260120	004037	57.400	12.418712	-57.475687	57.270	0.460	-1.330	-0.280	57.400	-2.400	0.200																			1579999237.0	1.08	2.00
26/01/2020 00:40:38	26012020	260120	004038	57.350	12.418717	-57.475685	57.130	0.540	-1.180	0.040	57.350	-2.700	0.200																			1579999238.0	1.19	2.20
26/01/2020 00:40:39	26012020	260120	004039	57.170	12.418717	-57.475683	56.940	0.320	-0.340	0.610	57.170	-2.200	0.700																			1579999239.0	0.40	0.74
26/01/2020 00:40:40	26012020	260120	004040	57.000	12.418713	-57.475683	56.860	0.030	0.390	1.110	57.000	-1.300	1.300																			1579999240.0	0.79	1.46
26/01/2020 00:40:41	26012020	260120	004041	56.940	12.418708	-57.475685	56.840	-0.120	0.580	1.460	56.940	-0.800	1.700																			1579999241.0	1.01	1.87
26/01/2020 00:40:42	26012020	260120	004042	56.910	12.418705	-57.475683	56.810	-0.130	0.400	1.650	56.910	-0.900	2.000																			1579999242.0	0.60	1.11
26/01/2020 00:40:43	26012020	260120	004043	56.850	12.418705	-57.475682	56.740	-0.140	0.160	1.630	56.850	-1.100	2.100																			1579999243.0	0.40	0.74
26/01/2020 00:40:44	26012020	260120	004044	56.810	12.418705	-57.475682	56.670	-0.210	0.070	1.410	56.790	-1.300	1.900																			1579999244.0	0.31	0.57
26/01/2020 00:40:45	26012020	260120	004045	56.730	12.418705	-57.475682	56.620	-0.260	0.010	1.070	56.730	-1.300	1.600																			1579999245.0	0.06	0.11
26/01/2020 00:40:46	26012020	260120	004046	56.710	12.418705	-57.475683	56.610	-0.140	-0.230	0.690	56.710	-1.500	1.300																			1579999246.0	0.40	0.74
26/01/2020 00:40:47	26012020	260120	004047	56.700	12.418707	-57.475685	56.560	0.130	-0.560	0.380	56.700	-1.800	0.900																			1579999247.0	0.46	0.85
26/01/2020 00:40:48	26012020	260120	004048	56.620	12.418708	-57.475685	56.410	0.330	-0.680	0.200	56.620	-2.000	0.700																			1579999248.0	0.41	0.76
26/01/2020 00:40:49	26012020	260120	004049	56.450	12.418710	-57.475685	56.270	0.290	-0.490	0.080	56.450	-2.000	0.500																			1579999249.0	0.29	0.54
26/01/2020 00:40:50	26012020	260120	004050	56.350	12.418710	-57.475685	56.250	0.080	-0.180	0.000	56.350	-1.700	0.400																			1579999250.0	0.14	0.26
26/01/2020 00:40:51	26012020	260120	004051	56.350	12.418710	-57.475687	56.260	-0.130	0.160	0.070	56.350	-1.400	0.400																			1579999251.0	0.25	0.46
26/01/2020 00:40:52	26012020	260120	004052	56.350	12.418710	-57.475688	56.230	-0.230	0.490	0.320	56.350	-1.000	0.600																			1579999252.0	0.25	0.46
26/01/2020 00:40:53	26012020	260120	004053	56.300	12.418708	-57.475688	56.190	-0.170	0.530	0.600	56.300	-0.800	0.900																			1579999253.0	0.34	0.63
26/01/2020 00:40:54	26012020	260120	004054	56.260	12.418707	-57.475688	56.190	0.020	0.100	0.780	56.260	-1.000	1.100																			1579999254.0	0.46	0.85
26/01/2020 00:40:55	26012020	260120	004055	56.260	12.418705	-57.475687	56.200	0.240	-0.540	0.930	56.260	-1.600	1.200																			1579999255.0	0.41	0.76
26/01/2020 00:40:56	26012020	260120	004056	56.260	12.418705	-57.475685	56.180	0.350	-0.850	1.150	56.260	-2.100	1.400																			1579999256.0	0.57	1.06
26/01/2020 00:40:57	26012020	260120	004057	56.230	12.418705	-57.475682	56.110	0.280	-0.590	1.430	56.230	-2.200	1.700																			1579999257.0	0.56	1.04
26/01/2020 00:40:58	26012020	260120	004058	56.160	12.418705	-57.475682	56.000	0.090	0.000	1.650	56.140	-1.700	2.000																			1579999258.0	0.24	0.44
26/01/2020 00:40:59	26012020	260120	004059	56.020	12.418703	-57.475682	55.890	-0.110	0.460	1.590	56.020	-1.100	2.100	1015.10	25.30	25.40	21.90	21.90	-1.00	81.00	81.00	392.00	24.90	325.00	6.40	20.00	6.20	14	3536.00	27.40	27.50	1579999259.0	0.44	0.81
26/01/2020 00:41:00	26012020	260120	004100	55.930	12.418702	-57.475683	55.830	-0.270	0.530	1.230	55.930	-0.800	1.800																			1579999260.0	0.50	0.93
26/01/2020 00:41:01	26012020	260120	004101	55.920	12.418702	-57.475685	55.870	-0.310	0.330	0.820	55.920	-0.900	1.400																			1579999261.0	0.34	0.63
26/01/2020 00:41:02	26012020	260120	004102	55.990	12.418703	-57.475687	55.970	-0.230	-0.050	0.530	55.990	-1.200	1.100																			1579999262.0	0.46	0.85
26/01/2020 00:41:03	26012020	260120	004103	56.100	12.418705	-57.475687	56.070	-0.100	-0.450	0.320	56.100	-1.600	0.800																			1579999263.0	0.37	0.69
26/01/2020 00:41:04	26012020	260120	004104	56.180	12.418707	-57.475687	56.080	-0.000	-0.630	0.210	56.180	-1.900	0.600																			1579999264.0	0.30	0.56
26/01/2020 00:41:05	26012020	260120	004105	56.150	12.418707	-57.475685	55.950	0.050	-0.480	0.360	56.150	-2.000	0.700																			1579999265.0	0.22	0.41
26/01/2020 00:41:06	26012020	260120	004106	55.960	12.418707	-57.475685	55.740	0.110	-0.230	0.710	55.960	-1.700	0.900																			1579999266.0	0.10	0.19
26/01/2020 00:41:07	26012020	260120	004107	55.760	12.418705	-57.475687	55.670	0.240	-0.200	0.960	55.760	-1.600	1.300																			1579999267.0	0.40	0.74
26/01/2020 00:41:08	26012020	260120	004108	55.760	12.418703	-57.475685	55.810	0.330	-0.280	0.920	55.760	-1.600	1.400																			1579999268.0	0.29	0.54
26/01/2020 00:41:09	26012020	260120	004109	55.980	12.418705	-57.475685	56.040	0.240	-0.100	0.790	55.980	-1.600	1.300																			1579999269.0	0.25	0.46
26/01/2020 00:41:10	26012020	260120	004110	56.160	12.418707	-57.475685	56.110	-0.020	0.420	0.890	56.160	-1.200	1.200																			1579999270.0	0.40	0.74
26/01/2020 00:41:11	26012020	260120	004111	56.160	12.418707	-57.475687	56.010	-0.310	0.810	1.150	56.160	-0.700	1.400																			1579999271.0	0.33	0.61
26/01/2020 00:41:12	26012020	260120	004112	56.060	12.418703	-57.475688	55.980	-0.440	0.550	1.200	56.050	-0.600	1.600																			1579999272.0	0.67	1.24
26/01/2020 00:41:13	26012020	260120	004113	56.100	12.418702	-57.475688	56.150	-0.350	-0.270	0.940	56.100	-1.200	1.500																			1579999273.0	0.44	0.81
26/01/2020 00:41:14	26012020	260120	004114	56.310	12.418703	-57.475688	56.370	-0.060	-0.980	0.630	56.310	-2.100	1.200																			1579999274.0	0.30	0.56
26/01/2020 00:41:15	26012020	260120	004115	56.520	12.418705	-57.475687	56.520	0.240	-1.110	0.460	56.520	-2.500	0.900																			1579999275.0	0.68	1.26
26/01/2020 00:41:16	26012020	260120	004116	56.630	12.418707	-57.475687	56.580	0.400	-0.640	0.470	56.630	-2.300	0.900																			1579999276.0	0.41	0.76
26/01/2020 00:41:17	26012020	260120	004117	56.670	12.418707	-57.475687	56.580	0.320	0.080	0.600	56.670	-1.700	0.900																			1579999277.0	0.19	0.35
26/01/2020 00:41:18	26012020	260120	004118	56.650	12.418705	-57.475688	56.550	0.070	0.610	0.710	56.650	-1.000	1.100																			1579999278.0	0.60	1.11
26/01/2020 00:41:19	26012020	260120	004119	56.640	12.418703	-57.475690	56.620	-0.200	0.700	0.610	56.640	-0.700	1.100																			1579999279.0	0.62	1.15
26/01/2020 00:41:20	26012020	260120	004120	56.780	12.418702	-57.475692	56.860	-0.300	0.330	0.340	56.780	-0.800	0.900																			1579999280.0	0.37	0.69
26/01/2020 00:41:21	26012020	260120	004121	57.070	12.418703	-57.475693	57.190	-0.230	-0.240	0.220	57.070	-1.300	0.700																			1579999281.0	0.41	0.76
26/01/2020 00:41:22	26012020	260120	004122	57.380	12.418707	-57.475693	57.410	-0.120	-0.570	0.420	57.380	-1.800	0.700																			1579999282.0	0.51	0.94
26/01/2020 00:41:23	26012020	260120	004123	57.550	12.418707	-57.475692	57.510	-0.060	-0.500	0.830	57.550	-2.000	1.000																			1579999283.0	0.35	0.65
26/01/2020 00:41:24	26012020	260120	004124	57.610	12.418705	-57.475690	57.560	-0.040	-0.240	1.190	57.610	-1.700	1.400																			1579999284.0	0.46	0.85
26/01/2020 00:41:25	26012020	260120	004125	57.650	12.418702	-57.475690	57.590	0.000	-0.080	1.420	57.650	-1.500	1.700																			1579999285.0	0.70	1.30
26/01/2020 00:41:26	26012020	260120	004126	57.680	12.418700	-57.475688	57.630	0.090	-0.070	1.550	57.680	-1.400	1.900																			1579999286.0	0.58	1.07
26/01/2020 00:41:27	26012020	260120	004127	57.720	12.418698	-57.475688	57.710	0.200	-0.130	1.480	57.720	-1.500	1.900																			1579999287.0	0.26	0.48
26/01/2020 00:41:28	26012020	260120	004128	57.810	12.418700	-57.475688	57.800	0.280	-0.110	1.220	57.810	-1.500	1.800																			1579999288.0	0.23	0.43
26/01/2020 00:41:29	26012020	260120	004129	57.900	12.418702	-57.475688	57.870	0.270	-0.020	0.840	57.900	-1.400	1.400																			1579999289.0	0.50	0.93
26/01/2020 00:41:30	26012020	260120	004130	57.990	12.418703	-57.475690	57.960	0.180	0.040	0.430	57.990	-1.400	1.000																			1579999290.0	0.58	1.07
26/01/2020 00:41:31	26012020	260120	004131	58.110	12.418707	-57.475690	58.090	0.020	0.020	0.120	58.110	-1.400	0.700																			1579999291.0	0.50	0.93
26/01/2020 00:41:32	26012020	260120	004132	58.230	12.418708	-57.475692	58.130	-0.170	0.010	0.070	58.230	-1.400	0.500																			1579999292.0	0.38	0.70
26/01/2020 00:41:33	26012020	260120	004133	58.220	12.418708	-57.475692	58.020	-0.330	0.080	0.300	58.220	-1.300	0.600																			1579999293.0	0.20	0.37
26/01/2020 00:41:34	26012020	260120	004134	58.100	12.418708	-57.475692	57.810	-0.350	0.030	0.650	58.050	-1.300	0.900																			1579999294.0	0.13	0.24
26/01/2020 00:41:35	26012020	260120	004135	57.830	12.418707	-57.475690	57.600	-0.220	-0.270	0.910	57.830	-1.500	1.200																			1579999295.0	0.41	0.76
26/01/2020 00:41:36	26012020	260120	004136	57.630	12.418705	-57.475688	57.490	0.010	-0.590	1.010	57.630	-1.800	1.400																			1579999296.0	0.48	0.89
26/01/2020 00:41:37	26012020	260120	004137	57.570	12.418705	-57.475687	57.530	0.190	-0.600	0.990	57.570	-2.000	1.400																			1579999297.0	0.52	0.96
26/01/2020 00:41:38	26012020	260120	004138	57.670	12.418705	-57.475683	57.660	0.160	-0.180	0.850	57.670	-1.800	1.300																			1579999298.0	0.39	0.72
26/01/2020 00:41:39	26012020	260120	004139	57.800	12.418705	-57.475685	57.740	-0.040	0.420	0.630	57.800	-1.300	1.100																			1579999299.0	0.05	0.09
26/01/2020 00:41:40	26012020	260120	004140	57.840	12.418705	-57.475687	57.710	-0.190	0.690	0.380	57.840	-0.800	0.900																			1579999300.0	0.50	0.93
26/01/2020 00:41:41	26012020	260120	004141	57.820	12.418705	-57.475690	57.670	-0.090	0.330	0.150	57.820	-0.800	0.700																			1579999301.0	0.60	1.11
26/01/2020 00:41:42	26012020	260120	004142	57.790	12.418707	-57.475690	57.630	0.220	-0.400	0.040	57.790	-1.400	0.500																			1579999302.0	0.38	0.70
26/01/2020 00:41:43	26012020	260120	004143	57.720	12.418708	-57.475690	57.500	0.480	-0.880	0.100	57.720	-2.100	0.500																			1579999303.0	0.60	1.11
26/01/2020 00:41:44	26012020	260120	004144	57.560	12.418710	-57.475687	57.340	0.460	-0.830	0.310	57.560	-2.300	0.600																			1579999304.0	0.63	1.17
26/01/2020 00:41:45	26012020	260120	004145	57.400	12.418712	-57.475687	57.270	0.180	-0.430	0.550	57.400	-2.000	0.800																			1579999305.0	0.26	0.48
26/01/2020 00:41:46	26012020	260120	004146	57.380	12.418710	-57.475687	57.350	-0.190	0.060	0.720	57.390	-1.600	1.000																			1579999306.0	0.22	0.41
26/01/2020 00:41:47	26012020	260120	004147	57.500	12.418708	-57.475687	57.470	-0.480	0.500	0.840	57.500	-1.100	1.200																			1579999307.0	0.37	0.69
26/01/2020 00:41:48	26012020	260120	004148	57.580	12.418707	-57.475687	57.530	-0.570	0.700	0.980	57.600	-0.700	1.300																			1579999308.0	0.42	0.78
26/01/2020 00:41:49	26012020	260120	004149	57.650	12.418705	-57.475687	57.600	-0.430	0.470	1.080	57.650	-0.700	1.400																			1579999309.0	0.49	0.91
26/01/2020 00:41:50	26012020	260120	004150	57.720	12.418702	-57.475687	57.680	-0.190	-0.050	1.070	57.720	-1.200	1.500																			1579999310.0	0.58	1.07
26/01/2020 00:41:51	26012020	260120	004151	57.780	12.418700	-57.475683	57.680	0.040	-0.510	1.000	57.780	-1.700	1.400																			1579999311.0	0.63	1.17
26/01/2020 00:41:52	26012020	260120	004152	57.740	12.418700	-57.475682	57.540	0.200	-0.610	0.820	57.740	-2.000	1.300																			1579999312.0	0.47	0.87
26/01/2020 00:41:53	26012020	260120	004153	57.580	12.418700	-57.475682	57.360	0.340	-0.480	0.550	57.580	-1.900	1.100																			1579999313.0	0.13	0.24
26/01/2020 00:41:54	26012020	260120	004154	57.400	12.418702	-57.475683	57.220	0.480	-0.390	0.310	57.400	-1.800	0.800																			1579999314.0	0.56	1.04
26/01/2020 00:41:55	26012020	260120	004155	57.310	12.418705	-57.475685	57.210	0.520	-0.360	0.140	57.310	-1.800	0.600																			1579999315.0	0.73	1.35
26/01/2020 00:41:56	26012020	260120	004156	57.340	12.418707	-57.475687	57.270	0.340	-0.160	0.140	57.340	-1.700	0.500																			1579999316.0	0.60	1.11
26/01/2020 00:41:57	26012020	260120	004157	57.400	12.418708	-57.475687	57.300	-0.040	0.230	0.320	57.400	-1.400	0.600																			1579999317.0	0.27	0.50
26/01/2020 00:41:58	26012020	260120	004158	57.390	12.418708	-57.475687	57.260	-0.400	0.490	0.660	57.390	-1.000	0.900																			1579999318.0	0.21	0.39
26/01/2020 00:41:59	26012020	260120	004159	57.330	12.418705	-57.475687	57.240	-0.510	0.390	1.070	57.330	-0.900	1.300	1015.10	25.20	25.30	21.90	21.90	-1.00	81.00	81.00	391.00	24.90	324.00	6.40	20.00	6.30	14	3690.00	27.40	27.40	1579999319.0	0.52	0.96
26/01/2020 00:42:00	26012020	260120	004200	57.330	12.418702	-57.475685	57.310	-0.350	0.030	1.470	57.340	-1.200	1.700																			1579999320.0	0.64	1.19
26/01/2020 00:42:01	26012020	260120	004201	57.400	12.418700	-57.475682	57.340	-0.130	-0.290	1.770	57.400	-1.500	2.000																			1579999321.0	0.84	1.56
26/01/2020 00:42:02	26012020	260120	004202	57.400	12.418697	-57.475678	57.260	-0.010	-0.410	1.770	57.390	-1.800	2.200																			1579999322.0	0.90	1.67
26/01/2020 00:42:03	26012020	260120	004203	57.270	12.418697	-57.475677	57.090	0.020	-0.330	1.490	57.270	-1.800	2.000																			1579999323.0	0.49	0.91
26/01/2020 00:42:04	26012020	260120	004204	57.100	12.418697	-57.475678	56.910	0.090	-0.150	1.130	57.100	-1.600	1.700																			1579999324.0	0.17	0.31
26/01/2020 00:42:05	26012020	260120	004205	56.930	12.418697	-57.475680	56.740	0.210	-0.120	0.780	56.930	-1.500	1.400																			1579999325.0	0.51	0.94
26/01/2020 00:42:06	26012020	260120	004206	56.790	12.418698	-57.475682	56.640	0.290	-0.300	0.370	56.790	-1.600	1.000																			1579999326.0	0.51	0.94
26/01/2020 00:42:07	26012020	260120	004207	56.740	12.418702	-57.475683	56.640	0.230	-0.440	-0.060	56.740	-1.800	0.500																			1579999327.0	0.59	1.09
26/01/2020 00:42:08	26012020	260120	004208	56.780	12.418705	-57.475683	56.690	0.030	-0.170	-0.300	56.780	-1.700	0.200																			1579999328.0	0.77	1.43
26/01/2020 00:42:09	26012020	260120	004209	56.800	12.418708	-57.475683	56.610	-0.210	0.410	-0.140	56.800	-1.300	0.100																			1579999329.0	0.56	1.04
26/01/2020 00:42:10	26012020	260120	004210	56.660	12.418707	-57.475687	56.410	-0.340	0.750	0.310	56.660	-0.700	0.500																			1579999330.0	0.44	0.81
26/01/2020 00:42:11	26012020	260120	004211	56.460	12.418703	-57.475687	56.300	-0.240	0.390	0.700	56.460	-0.700	0.900																			1579999331.0	0.78	1.44
26/01/2020 00:42:12	26012020	260120	004212	56.390	12.418700	-57.475687	56.330	0.030	-0.450	0.910	56.390	-1.400	1.200																			1579999332.0	0.63	1.17
26/01/2020 00:42:13	26012020	260120	004213	56.450	12.418700	-57.475683	56.420	0.270	-1.010	1.060	56.450	-2.200	1.400																			1579999333.0	0.64	1.19
26/01/2020 00:42:14	26012020	260120	004214	56.530	12.418702	-57.475680	56.430	0.340	-0.870	1.250	56.530	-2.400	1.500																			1579999334.0	0.70	1.30
26/01/2020 00:42:15	26012020	260120	004215	56.500	12.418702	-57.475680	56.350	0.250	-0.320	1.430	56.500	-2.000	1.700																			1579999335.0	0.24	0.44
26/01/2020 00:42:16	26012020	260120	004216	56.390	12.418700	-57.475680	56.250	0.110	0.170	1.500	56.390	-1.400	1.900																			1579999336.0	0.43	0.80
26/01/2020 00:42:17	26012020	260120	004217	56.290	12.418697	-57.475682	56.170	-0.050	0.410	1.390	56.290	-1.100	1.900																			1579999337.0	0.48	0.89
26/01/2020 00:42:18	26012020	260120	004218	56.240	12.418697	-57.475682	56.190	-0.220	0.440	1.050	56.240	-0.900	1.600																			1579999338.0	0.21	0.39
26/01/2020 00:42:19	26012020	260120	004219	56.330	12.418697	-57.475683	56.340	-0.330	0.310	0.550	56.330	-1.000	1.200																			1579999339.0	0.21	0.39
26/01/2020 00:42:20	26012020	260120	004220	56.510	12.418698	-57.475683	56.510	-0.290	0.050	0.130	56.510	-1.200	0.700																			1579999340.0	0.44	0.81
26/01/2020 00:42:21	26012020	260120	004221	56.660	12.418700	-57.475685	56.600	-0.100	-0.270	-0.090	56.660	-1.500	0.400																			1579999341.0	0.46	0.85
26/01/2020 00:42:22	26012020	260120	004222	56.710	12.418702	-57.475685	56.570	0.080	-0.490	-0.090	56.710	-1.800	0.300																			1579999342.0	0.26	0.48
26/01/2020 00:42:23	26012020	260120	004223	56.650	12.418702	-57.475685	56.460	0.100	-0.470	0.100	56.650	-1.900	0.400																			1579999343.0	0.16	0.30
26/01/2020 00:42:24	26012020	260120	004224	56.540	12.418702	-57.475683	56.390	-0.020	-0.270	0.380	56.520	-1.800	0.600																			1579999344.0	0.18	0.33
26/01/2020 00:42:25	26012020	260120	004225	56.500	12.418700	-57.475685	56.500	-0.070	-0.150	0.600	56.500	-1.600	0.900																			1579999345.0	0.29	0.54
26/01/2020 00:42:26	26012020	260120	004226	56.650	12.418700	-57.475685	56.690	0.100	-0.200	0.820	56.650	-1.600	1.100																			1579999346.0	0.24	0.44
26/01/2020 00:42:27	26012020	260120	004227	56.830	12.418698	-57.475685	56.780	0.350	-0.240	1.160	56.830	-1.600	1.400																			1579999347.0	0.13	0.24
26/01/2020 00:42:28	26012020	260120	004228	56.830	12.418698	-57.475682	56.680	0.400	-0.070	1.550	56.830	-1.600	1.800																			1579999348.0	0.43	0.80
26/01/2020 00:42:29	26012020	260120	004229	56.700	12.418697	-57.475680	56.590	0.160	0.190	1.760	56.700	-1.300	2.100																			1579999349.0	0.56	1.04
26/01/2020 00:42:30	26012020	260120	004230	56.660	12.418695	-57.475680	56.660	-0.140	0.320	1.700	56.660	-1.100	2.200																			1579999350.0	0.46	0.85
26/01/2020 00:42:31	26012020	260120	004231	56.780	12.418693	-57.475680	56.760	-0.280	0.250	1.510	56.780	-1.100	2.000																			1579999351.0	0.23	0.43
26/01/2020 00:42:32	26012020	260120	004232	56.830	12.418693	-57.475680	56.710	-0.240	0.110	1.330	56.830	-1.200	1.800																			1579999352.0	0.09	0.17
26/01/2020 00:42:33	26012020	260120	004233	56.720	12.418695	-57.475680	56.520	-0.140	-0.110	1.120	56.720	-1.400	1.600																			1579999353.0	0.13	0.24
26/01/2020 00:42:34	26012020	260120	004234	56.540	12.418695	-57.475680	56.350	-0.060	-0.380	0.770	56.540	-1.600	1.400																			1579999354.0	0.20	0.37
26/01/2020 00:42:35	26012020	260120	004235	56.400	12.418697	-57.475682	56.280	0.020	-0.600	0.300	56.400	-1.900	0.900																			1579999355.0	0.37	0.69
26/01/2020 00:42:36	26012020	260120	004236	56.390	12.418700	-57.475682	56.310	0.100	-0.600	-0.080	56.390	-2.000	0.500																			1579999356.0	0.55	1.02
26/01/2020 00:42:37	26012020	260120	004237	56.430	12.418702	-57.475683	56.300	0.110	-0.320	-0.150	56.430	-1.900	0.300																			1579999357.0	0.51	0.94
26/01/2020 00:42:38	26012020	260120	004238	56.400	12.418702	-57.475683	56.240	0.000	0.130	-0.010	56.390	-1.500	0.300																			1579999358.0	0.25	0.46
26/01/2020 00:42:39	26012020	260120	004239	56.320	12.418702	-57.475685	56.180	-0.140	0.440	0.170	56.320	-1.100	0.500																			1579999359.0	0.28	0.52
26/01/2020 00:42:40	26012020	260120	004240	56.270	12.418700	-57.475687	56.150	-0.180	0.340	0.390	56.270	-0.900	0.700																			1579999360.0	0.38	0.70
26/01/2020 00:42:41	26012020	260120	004241	56.230	12.418700	-57.475687	56.150	-0.060	-0.100	0.650	56.230	-1.200	0.900																			1579999361.0	0.26	0.48
26/01/2020 00:42:42	26012020	260120	004242	56.260	12.418698	-57.475685	56.230	0.120	-0.530	0.920	56.260	-1.700	1.200																			1579999362.0	0.43	0.80
26/01/2020 00:42:43	26012020	260120	004243	56.340	12.418698	-57.475682	56.300	0.230	-0.560	1.190	56.340	-2.000	1.400																			1579999363.0	0.60	1.11
26/01/2020 00:42:44	26012020	260120	004244	56.370	12.418697	-57.475680	56.270	0.170	-0.180	1.420	56.370	-1.800	1.700																			1579999364.0	0.47	0.87
26/01/2020 00:42:45	26012020	260120	004245	56.310	12.418695	-57.475680	56.190	0.020	0.220	1.480	56.310	-1.300	1.900																			1579999365.0	0.37	0.69
26/01/2020 00:42:46	26012020	260120	004246	56.230	12.418693	-57.475682	56.170	-0.090	0.300	1.320	56.230	-1.100	1.800																			1579999366.0	0.43	0.80
26/01/2020 00:42:47	26012020	260120	004247	56.260	12.418693	-57.475682	56.250	-0.140	0.100	0.960	56.260	-1.200	1.600																			1579999367.0	0.29	0.54
26/01/2020 00:42:48	26012020	260120	004248	56.390	12.418695	-57.475683	56.400	-0.150	-0.130	0.530	56.390	-1.400	1.100																			1579999368.0	0.33	0.61
26/01/2020 00:42:49	26012020	260120	004249	56.540	12.418697	-57.475683	56.500	-0.120	-0.230	0.230	56.540	-1.600	0.800																			1579999369.0	0.47	0.87
26/01/2020 00:42:50	26012020	260120	004250	56.610	12.418698	-57.475685	56.560	-0.030	-0.280	0.130	56.630	-1.700	0.600																			1579999370.0	0.39	0.72
26/01/2020 00:42:51	26012020	260120	004251	56.680	12.418700	-57.475685	56.610	0.100	-0.310	0.150	56.680	-1.700	0.500																			1579999371.0	0.13	0.24
26/01/2020 00:42:52	26012020	260120	004252	56.720	12.418698	-57.475685	56.680	0.170	-0.340	0.200	56.730	-1.700	0.600																			1579999372.0	0.12	0.22
26/01/2020 00:42:53	26012020	260120	004253	56.810	12.418698	-57.475683	56.760	0.130	-0.320	0.320	56.810	-1.700	0.600																			1579999373.0	0.26	0.48
26/01/2020 00:42:54	26012020	260120	004254	56.860	12.418698	-57.475682	56.750	0.010	-0.060	0.560	56.860	-1.600	0.800																			1579999374.0	0.22	0.41
26/01/2020 00:42:55	26012020	260120	004255	56.800	12.418697	-57.475682	56.630	-0.090	0.340	0.930	56.800	-1.200	1.100																			1579999375.0	0.13	0.24
26/01/2020 00:42:56	26012020	260120	004256	56.670	12.418697	-57.475683	56.540	-0.060	0.440	1.280	56.670	-0.900	1.500																			1579999376.0	0.32	0.59
26/01/2020 00:42:57	26012020	260120	004257	56.600	12.418693	-57.475683	56.570	0.080	0.030	1.440	56.600	-1.100	1.800																			1579999377.0	0.41	0.76
26/01/2020 00:42:58	26012020	260120	004258	56.670	12.418693	-57.475682	56.670	0.150	-0.500	1.410	56.670	-1.700	1.800																			1579999378.0	0.39	0.72
26/01/2020 00:42:59	26012020	260120	004259	56.780	12.418693	-57.475678	56.720	0.060	-0.660	1.320	56.780	-2.000	1.800	1015.10	25.20	25.30	21.90	21.90	-1.00	82.00	81.00	391.00	24.90	322.00	6.20	18.00	6.10	14	3526.00	27.40	27.50	1579999379.0	0.61	1.13
26/01/2020 00:43:00	26012020	260120	004300	56.790	12.418695	-57.475677	56.650	-0.100	-0.360	1.230	56.790	-1.900	1.700																			1579999380.0	0.41	0.76
26/01/2020 00:43:01	26012020	260120	004301	56.690	12.418695	-57.475677	56.470	-0.180	0.110	1.170	56.690	-1.500	1.600																			1579999381.0	0.09	0.17
26/01/2020 00:43:02	26012020	260120	004302	56.480	12.418695	-57.475678	56.250	-0.140	0.380	1.080	56.480	-1.100	1.500																			1579999382.0	0.37	0.69
26/01/2020 00:43:03	26012020	260120	004303	56.290	12.418693	-57.475680	56.180	-0.040	0.270	0.840	56.290	-1.000	1.400																			1579999383.0	0.35	0.65
26/01/2020 00:43:04	26012020	260120	004304	56.310	12.418695	-57.475682	56.310	0.030	-0.110	0.440	56.310	-1.300	1.100																			1579999384.0	0.24	0.44
26/01/2020 00:43:05	26012020	260120	004305	56.480	12.418697	-57.475682	56.440	0.000	-0.380	0.080	56.480	-1.700	0.600																			1579999385.0	0.41	0.76
26/01/2020 00:43:06	26012020	260120	004306	56.550	12.418698	-57.475682	56.370	-0.060	-0.320	0.030	56.550	-1.800	0.400																			1579999386.0	0.46	0.85
26/01/2020 00:43:07	26012020	260120	004307	56.400	12.418700	-57.475682	56.150	-0.060	-0.090	0.280	56.400	-1.600	0.500																			1579999387.0	0.19	0.35
26/01/2020 00:43:08	26012020	260120	004308	56.160	12.418698	-57.475682	55.900	0.010	-0.050	0.590	56.160	-1.400	0.800																			1579999388.0	0.32	0.59
26/01/2020 00:43:09	26012020	260120	004309	55.930	12.418697	-57.475682	55.740	0.130	-0.240	0.800	55.930	-1.500	1.100																			1579999389.0	0.36	0.67
26/01/2020 00:43:10	26012020	260120	004310	55.810	12.418697	-57.475682	55.740	0.230	-0.450	0.820	55.810	-1.800	1.200																			1579999390.0	0.19	0.35
26/01/2020 00:43:11	26012020	260120	004311	55.860	12.418697	-57.475680	55.900	0.290	-0.430	0.720	55.860	-1.900	1.200																			1579999391.0	0.30	0.56
26/01/2020 00:43:12	26012020	260120	004312	56.040	12.418698	-57.475680	56.090	0.220	-0.110	0.660	56.040	-1.700	1.100																			1579999392.0	0.28	0.52
26/01/2020 00:43:13	26012020	260120	004313	56.200	12.418698	-57.475680	56.160	-0.000	0.340	0.760	56.200	-1.300	1.100																			1579999393.0	0.07	0.13
26/01/2020 00:43:14	26012020	260120	004314	56.230	12.418697	-57.475682	56.100	-0.290	0.610	0.940	56.220	-0.900	1.300																			1579999394.0	0.36	0.67
26/01/2020 00:43:15	26012020	260120	004315	56.130	12.418695	-57.475682	56.000	-0.470	0.430	1.030	56.130	-0.800	1.400																			1579999395.0	0.53	0.98
26/01/2020 00:43:16	26012020	260120	004316	56.040	12.418693	-57.475682	55.950	-0.410	-0.080	0.990	56.040	-1.200	1.400																			1579999396.0	0.38	0.70
26/01/2020 00:43:17	26012020	260120	004317	56.010	12.418693	-57.475680	55.950	-0.150	-0.590	0.910	56.010	-1.800	1.400																			1579999397.0	0.28	0.52
26/01/2020 00:43:18	26012020	260120	004318	56.020	12.418693	-57.475678	55.960	0.130	-0.750	0.820	56.020	-2.100	1.300																			1579999398.0	0.40	0.74
26/01/2020 00:43:19	26012020	260120	004319	56.030	12.418695	-57.475678	55.950	0.280	-0.520	0.680	56.030	-2.100	1.200																			1579999399.0	0.29	0.54
26/01/2020 00:43:20	26012020	260120	004320	56.030	12.418695	-57.475678	55.970	0.270	-0.150	0.470	56.030	-1.700	1.000																			1579999400.0	0.19	0.35
26/01/2020 00:43:21	26012020	260120	004321	56.070	12.418695	-57.475680	56.060	0.140	0.110	0.290	56.070	-1.400	0.800																			1579999401.0	0.37	0.69
26/01/2020 00:43:22	26012020	260120	004322	56.170	12.418697	-57.475682	56.120	0.000	0.220	0.300	56.170	-1.200	0.700																			1579999402.0	0.34	0.63
26/01/2020 00:43:23	26012020	260120	004323	56.200	12.418697	-57.475682	56.100	-0.080	0.210	0.510	56.200	-1.200	0.800																			1579999403.0	0.12	0.22
26/01/2020 00:43:24	26012020	260120	004324	56.150	12.418697	-57.475682	56.080	-0.130	0.100	0.810	56.150	-1.200	1.100																			1579999404.0	0.12	0.22
26/01/2020 00:43:25	26012020	260120	004325	56.150	12.418695	-57.475680	56.120	-0.150	-0.060	1.040	56.150	-1.400	1.300																			1579999405.0	0.26	0.48
26/01/2020 00:43:26	26012020	260120	004326	56.190	12.418695	-57.475680	56.170	-0.130	-0.210	1.210	56.190	-1.500	1.500																			1579999406.0	0.31	0.57
26/01/2020 00:43:27	26012020	260120	004327	56.210	12.418693	-57.475678	56.150	-0.040	-0.280	1.380	56.210	-1.600	1.700																			1579999407.0	0.33	0.61
26/01/2020 00:43:28	26012020	260120	004328	56.180	12.418692	-57.475677	56.050	0.120	-0.330	1.590	56.170	-1.700	1.900																			1579999408.0	0.37	0.69
26/01/2020 00:43:29	26012020	260120	004329	56.020	12.418690	-57.475677	55.870	0.270	-0.390	1.690	56.020	-1.800	2.100																			1579999409.0	0.40	0.74
26/01/2020 00:43:30	26012020	260120	004330	55.840	12.418690	-57.475675	55.750	0.330	-0.420	1.490	55.840	-1.800	2.000																			1579999410.0	0.24	0.44
26/01/2020 00:43:31	26012020	260120	004331	55.790	12.418692	-57.475675	55.820	0.260	-0.330	0.990	55.790	-1.800	1.700																			1579999411.0	0.32	0.59
26/01/2020 00:43:32	26012020	260120	004332	55.940	12.418695	-57.475677	56.040	0.040	0.030	0.420	55.940	-1.600	1.100																			1579999412.0	0.68	1.26
26/01/2020 00:43:33	26012020	260120	004333	56.200	12.418697	-57.475678	56.260	-0.240	0.500	0.040	56.200	-1.100	0.600																			1579999413.0	0.75	1.39
26/01/2020 00:43:34	26012020	260120	004334	56.400	12.418698	-57.475682	56.360	-0.450	0.710	-0.030	56.400	-0.700	0.400																			1579999414.0	0.65	1.20
26/01/2020 00:43:35	26012020	260120	004335	56.440	12.418697	-57.475683	56.310	-0.470	0.450	0.120	56.440	-0.800	0.400																			1579999415.0	0.45	0.83
26/01/2020 00:43:36	26012020	260120	004336	56.350	12.418697	-57.475683	56.200	-0.290	-0.160	0.400	56.350	-1.200	0.700																			1579999416.0	0.26	0.48
26/01/2020 00:43:37	26012020	260120	004337	56.230	12.418695	-57.475682	56.080	0.000	-0.730	0.710	56.230	-1.900	0.900																			1579999417.0	0.49	0.91
26/01/2020 00:43:38	26012020	260120	004338	56.130	12.418695	-57.475678	56.070	0.210	-0.850	0.970	56.130	-2.300	1.300																			1579999418.0	0.64	1.19
26/01/2020 00:43:39	26012020	260120	004339	56.170	12.418693	-57.475677	56.250	0.220	-0.520	1.000	56.170	-2.100	1.400																			1579999419.0	0.45	0.83
26/01/2020 00:43:40	26012020	260120	004340	56.360	12.418692	-57.475677	56.520	0.140	-0.110	0.840	56.420	-1.700	1.300																			1579999420.0	0.28	0.52
26/01/2020 00:43:41	26012020	260120	004341	56.660	12.418692	-57.475680	56.650	0.160	0.050	0.810	56.660	-1.400	1.200																			1579999421.0	0.54	1.00
26/01/2020 00:43:42	26012020	260120	004342	56.710	12.418693	-57.475682	56.620	0.290	-0.000	0.970	56.710	-1.400	1.300																			1579999422.0	0.41	0.76
26/01/2020 00:43:43	26012020	260120	004343	56.670	12.418693	-57.475680	56.620	0.320	-0.030	1.100	56.670	-1.400	1.500																			1579999423.0	0.13	0.24
26/01/2020 00:43:44	26012020	260120	004344	56.740	12.418693	-57.475680	56.830	0.110	0.050	1.030	56.740	-1.400	1.500																			1579999424.0	0.31	0.57
26/01/2020 00:43:45	26012020	260120	004345	57.010	12.418693	-57.475678	57.160	-0.250	0.180	0.850	57.010	-1.300	1.300																			1579999425.0	0.15	0.28
26/01/2020 00:43:46	26012020	260120	004346	57.330	12.418693	-57.475680	57.390	-0.480	0.250	0.830	57.330	-1.200	1.200																			1579999426.0	0.15	0.28
26/01/2020 00:43:47	26012020	260120	004347	57.500	12.418692	-57.475680	57.480	-0.390	0.110	1.010	57.500	-1.200	1.300																			1579999427.0	0.22	0.41
26/01/2020 00:43:48	26012020	260120	004348	57.550	12.418692	-57.475680	57.520	-0.070	-0.290	1.060	57.550	-1.500	1.500																			1579999428.0	0.30	0.56
26/01/2020 00:43:49	26012020	260120	004349	57.620	12.418690	-57.475678	57.640	0.220	-0.640	0.870	57.620	-1.900	1.400																			1579999429.0	0.46	0.85
26/01/2020 00:43:50	26012020	260120	004350	57.760	12.418690	-57.475677	57.740	0.280	-0.560	0.730	57.760	-2.100	1.200																			1579999430.0	0.45	0.83
26/01/2020 00:43:51	26012020	260120	004351	57.820	12.418692	-57.475675	57.700	0.090	-0.070	0.770	57.820	-1.700	1.100																			1579999431.0	0.26	0.48
26/01/2020 00:43:52	26012020	260120	004352	57.740	12.418692	-57.475677	57.650	-0.110	0.380	0.730	57.740	-1.200	1.200																			1579999432.0	0.30	0.56
26/01/2020 00:43:53	26012020	260120	004353	57.730	12.418692	-57.475680	57.750	-0.110	0.330	0.490	57.730	-1.000	1.000																			1579999433.0	0.56	1.04
26/01/2020 00:43:54	26012020	260120	004354	57.890	12.418693	-57.475682	57.940	0.040	-0.050	0.280	57.890	-1.300	0.800																			1579999434.0	0.44	0.81
26/01/2020 00:43:55	26012020	260120	004355	58.060	12.418695	-57.475680	58.030	0.110	-0.340	0.360	58.060	-1.600	0.700																			1579999435.0	0.44	0.81
26/01/2020 00:43:56	26012020	260120	004356	58.080	12.418695	-57.475678	57.940	0.030	-0.350	0.660	58.080	-1.800	0.900																			1579999436.0	0.45	0.83
26/01/2020 00:43:57	26012020	260120	004357	57.940	12.418695	-57.475677	57.750	-0.080	-0.200	1.050	57.940	-1.700	1.300																			1579999437.0	0.38	0.70
26/01/2020 00:43:58	26012020	260120	004358	57.760	12.418693	-57.475677	57.630	-0.030	-0.140	1.300	57.760	-1.500	1.600																			1579999438.0	0.40	0.74
26/01/2020 00:43:59	26012020	260120	004359	57.670	12.418692	-57.475675	57.600	0.150	-0.230	1.350	57.670	-1.600	1.700	1015.10	25.20	25.30	22.00	22.00	-1.00	82.00	81.00	391.00	24.90	323.00	6.50	19.00	6.40	14	3588.00	27.40	27.40	1579999439.0	0.39	0.72
26/01/2020 00:44:00	26012020	260120	004400	57.650	12.418690	-57.475675	57.560	0.270	-0.250	1.260	57.650	-1.700	1.700																			1579999440.0	0.29	0.54
26/01/2020 00:44:01	26012020	260120	004401	57.610	12.418692	-57.475673	57.510	0.180	-0.050	1.060	57.610	-1.600	1.600																			1579999441.0	0.28	0.52
26/01/2020 00:44:02	26012020	260120	004402	57.560	12.418692	-57.475673	57.450	-0.060	0.240	0.800	57.560	-1.300	1.300																			1579999442.0	0.17	0.31
26/01/2020 00:44:03	26012020	260120	004403	57.510	12.418693	-57.475675	57.390	-0.210	0.280	0.530	57.510	-1.100	1.100																			1579999443.0	0.42	0.78
26/01/2020 00:44:04	26012020	260120	004404	57.460	12.418693	-57.475677	57.360	-0.130	-0.010	0.290	57.460	-1.200	0.800																			1579999444.0	0.50	0.93
26/01/2020 00:44:05	26012020	260120	004405	57.450	12.418695	-57.475678	57.350	0.040	-0.320	0.210	57.450	-1.600	0.600																			1579999445.0	0.42	0.78
26/01/2020 00:44:06	26012020	260120	004406	57.430	12.418697	-57.475677	57.310	0.060	-0.340	0.310	57.430	-1.800	0.600																			1579999446.0	0.40	0.74
26/01/2020 00:44:07	26012020	260120	004407	57.380	12.418697	-57.475675	57.260	-0.090	-0.150	0.490	57.380	-1.600	0.800																			1579999447.0	0.18	0.33
26/01/2020 00:44:08	26012020	260120	004408	57.330	12.418695	-57.475675	57.230	-0.240	-0.040	0.640	57.330	-1.500	1.000																			1579999448.0	0.37	0.69
26/01/2020 00:44:09	26012020	260120	004409	57.300	12.418693	-57.475677	57.190	-0.200	-0.060	0.800	57.300	-1.400	1.100																			1579999449.0	0.41	0.76
26/01/2020 00:44:10	26012020	260120	004410	57.230	12.418693	-57.475677	57.110	-0.000	-0.090	0.990	57.230	-1.500	1.300																			1579999450.0	0.26	0.48
26/01/2020 00:44:11	26012020	260120	004411	57.150	12.418692	-57.475675	57.020	0.180	-0.100	1.100	57.150	-1.500	1.500																			1579999451.0	0.24	0.44
26/01/2020 00:44:12	26012020	260120	004412	57.070	12.418692	-57.475675	56.970	0.220	-0.140	1.040	57.070	-1.500	1.500																			1579999452.0	0.18	0.33
26/01/2020 00:44:13	26012020	260120	004413	57.050	12.418692	-57.475675	56.980	0.130	-0.180	0.830	57.050	-1.600	1.400																			1579999453.0	0.01	0.02
26/01/2020 00:44:14	26012020	260120	004414	57.090	12.418692	-57.475675	57.060	0.030	-0.190	0.550	57.090	-1.600	1.100																			1579999454.0	0.19	0.35
26/01/2020 00:44:15	26012020	260120	004415	57.180	12.418693	-57.475677	57.130	0.000	-0.180	0.320	57.180	-1.600	0.800																			1579999455.0	0.29	0.54
26/01/2020 00:44:16	26012020	260120	004416	57.230	12.418693	-57.475677	57.110	0.040	-0.120	0.240	57.230	-1.500	0.700																			1579999456.0	0.32	0.59
26/01/2020 00:44:17	26012020	260120	004417	57.170	12.418695	-57.475677	57.000	0.040	-0.020	0.330	57.170	-1.500	0.700																			1579999457.0	0.18	0.33
26/01/2020 00:44:18	26012020	260120	004418	57.070	12.418695	-57.475677	56.890	-0.030	0.010	0.460	57.040	-1.400	0.800																			1579999458.0	0.09	0.17
26/01/2020 00:44:19	26012020	260120	004419	56.950	12.418693	-57.475677	56.850	-0.100	-0.040	0.490	56.950	-1.400	0.900																			1579999459.0	0.22	0.41
26/01/2020 00:44:20	26012020	260120	004420	56.920	12.418693	-57.475677	56.830	-0.100	-0.030	0.490	56.920	-1.400	0.900																			1579999460.0	0.09	0.17
26/01/2020 00:44:21	26012020	260120	004421	56.890	12.418693	-57.475677	56.760	-0.060	0.060	0.600	56.890	-1.400	0.900																			1579999461.0	0.01	0.02
26/01/2020 00:44:22	26012020	260120	004422	56.800	12.418692	-57.475677	56.660	-0.060	0.070	0.750	56.800	-1.300	1.100																			1579999462.0	0.16	0.30
26/01/2020 00:44:23	26012020	260120	004423	56.710	12.418692	-57.475677	56.620	-0.100	-0.110	0.700	56.710	-1.400	1.100																			1579999463.0	0.27	0.50
26/01/2020 00:44:24	26012020	260120	004424	56.710	12.418692	-57.475677	56.670	-0.100	-0.340	0.490	56.710	-1.600	1.000																			1579999464.0	0.06	0.11
26/01/2020 00:44:25	26012020	260120	004425	56.780	12.418692	-57.475677	56.730	-0.050	-0.360	0.300	56.780	-1.800	0.800																			1579999465.0	0.24	0.44
26/01/2020 00:44:26	26012020	260120	004426	56.820	12.418693	-57.475677	56.730	0.010	-0.130	0.300	56.820	-1.700	0.700																			1579999466.0	0.23	0.43
26/01/2020 00:44:27	26012020	260120	004427	56.790	12.418693	-57.475678	56.640	0.040	0.090	0.420	56.790	-1.400	0.800																			1579999467.0	0.18	0.33
26/01/2020 00:44:28	26012020	260120	004428	56.670	12.418692	-57.475678	56.520	0.060	0.040	0.500	56.670	-1.300	0.900																			1579999468.0	0.36	0.67
26/01/2020 00:44:29	26012020	260120	004429	56.560	12.418690	-57.475678	56.440	0.120	-0.240	0.440	56.560	-1.500	0.900																			1579999469.0	0.19	0.35
26/01/2020 00:44:30	26012020	260120	004430	56.510	12.418692	-57.475678	56.450	0.170	-0.420	0.370	56.510	-1.800	0.800																			1579999470.0	0.22	0.41
26/01/2020 00:44:31	26012020	260120	004431	56.540	12.418693	-57.475677	56.510	0.140	-0.330	0.390	56.540	-1.800	0.800																			1579999471.0	0.37	0.69
26/01/2020 00:44:32	26012020	260120	004432	56.590	12.418693	-57.475677	56.520	0.020	-0.010	0.570	56.590	-1.600	0.900																			1579999472.0	0.17	0.31
26/01/2020 00:44:33	26012020	260120	004433	56.560	12.418693	-57.475677	56.420	-0.080	0.230	0.860	56.560	-1.300	1.100																			1579999473.0	0.20	0.37
26/01/2020 00:44:34	26012020	260120	004434	56.430	12.418690	-57.475677	56.260	-0.140	0.170	1.100	56.430	-1.200	1.400																			1579999474.0	0.51	0.94
26/01/2020 00:44:35	26012020	260120	004435	56.260	12.418688	-57.475677	56.140	-0.160	-0.030	1.130	56.260	-1.300	1.500																			1579999475.0	0.53	0.98
26/01/2020 00:44:36	26012020	260120	004436	56.180	12.418688	-57.475675	56.140	-0.170	-0.090	0.960	56.180	-1.500	1.500																			1579999476.0	0.29	0.54
26/01/2020 00:44:37	26012020	260120	004437	56.230	12.418688	-57.475675	56.230	-0.130	-0.060	0.680	56.230	-1.500	1.200																			1579999477.0	0.19	0.35
26/01/2020 00:44:38	26012020	260120	004438	56.330	12.418690	-57.475677	56.270	0.010	-0.100	0.460	56.330	-1.500	0.900																			1579999478.0	0.43	0.80
26/01/2020 00:44:39	26012020	260120	004439	56.320	12.418690	-57.475678	56.170	0.160	-0.190	0.430	56.320	-1.500	0.800																			1579999479.0	0.35	0.65
26/01/2020 00:44:40	26012020	260120	004440	56.160	12.418692	-57.475678	55.950	0.180	-0.200	0.510	56.160	-1.600	0.900																			1579999480.0	0.06	0.11
26/01/2020 00:44:41	26012020	260120	004441	55.940	12.418690	-57.475678	55.760	0.130	-0.210	0.570	55.940	-1.600	1.000																			1579999481.0	0.12	0.22
26/01/2020 00:44:42	26012020	260120	004442	55.780	12.418690	-57.475678	55.700	0.110	-0.360	0.480	55.780	-1.700	1.000																			1579999482.0	0.15	0.28
26/01/2020 00:44:43	26012020	260120	004443	55.770	12.418690	-57.475680	55.720	0.140	-0.490	0.310	55.770	-1.800	0.800																			1579999483.0	0.20	0.37
26/01/2020 00:44:44	26012020	260120	004444	55.770	12.418692	-57.475680	55.680	0.070	-0.260	0.270	55.770	-1.800	0.700																			1579999484.0	0.40	0.74
26/01/2020 00:44:45	26012020	260120	004445	55.700	12.418693	-57.475680	55.580	-0.100	0.240	0.400	55.700	-1.400	0.700																			1579999485.0	0.23	0.43
26/01/2020 00:44:46	26012020	260120	004446	55.590	12.418692	-57.475680	55.520	-0.210	0.470	0.550	55.590	-1.000	0.900																			1579999486.0	0.35	0.65
26/01/2020 00:44:47	26012020	260120	004447	55.550	12.418690	-57.475682	55.530	-0.140	0.170	0.570	55.550	-1.000	1.000																			1579999487.0	0.51	0.94
26/01/2020 00:44:48	26012020	260120	004448	55.580	12.418690	-57.475682	55.580	0.010	-0.260	0.510	55.580	-1.500	0.900																			1579999488.0	0.26	0.48
26/01/2020 00:44:49	26012020	260120	004449	55.640	12.418690	-57.475678	55.600	0.040	-0.300	0.400	55.640	-1.700	0.900																			1579999489.0	0.42	0.78
26/01/2020 00:44:50	26012020	260120	004450	55.630	12.418690	-57.475678	55.520	-0.050	-0.010	0.310	55.630	-1.600	0.700																			1579999490.0	0.17	0.31
26/01/2020 00:44:51	26012020	260120	004451	55.510	12.418690	-57.475680	55.370	-0.120	0.140	0.290	55.510	-1.300	0.700																			1579999491.0	0.40	0.74
26/01/2020 00:44:52	26012020	260120	004452	55.390	12.418690	-57.475683	55.330	-0.050	-0.100	0.260	55.390	-1.300	0.700																			1579999492.0	0.54	1.00
26/01/2020 00:44:53	26012020	260120	004453	55.390	12.418690	-57.475683	55.400	0.070	-0.470	0.190	55.390	-1.700	0.600																			1579999493.0	0.18	0.33
26/01/2020 00:44:54	26012020	260120	004454	55.460	12.418692	-57.475683	55.470	0.090	-0.530	0.190	55.480	-1.900	0.600																			1579999494.0	0.34	0.63
26/01/2020 00:44:55	26012020	260120	004455	55.500	12.418693	-57.475682	55.410	0.000	-0.150	0.410	55.500	-1.800	0.700																			1579999495.0	0.30	0.56
26/01/2020 00:44:56	26012020	260120	004456	55.400	12.418692	-57.475682	55.330	-0.090	0.290	0.720	55.400	-1.300	1.000																			1579999496.0	0.18	0.33
26/01/2020 00:44:57	26012020	260120	004457	55.370	12.418688	-57.475683	55.440	-0.100	0.280	0.760	55.370	-1.000	1.200																			1579999497.0	0.66	1.22
26/01/2020 00:44:58	26012020	260120	004458	55.550	12.418687	-57.475683	55.670	-0.040	-0.130	0.570	55.550	-1.300	1.100																			1579999498.0	0.50	0.93
26/01/2020 00:44:59	26012020	260120	004459	55.760	12.418687	-57.475682	55.710	0.040	-0.380	0.540	55.760	-1.700	0.900	1015.10	25.20	25.30	21.90	21.90	-1.00	81.00	81.00	390.00	24.80	328.00	6.50	25.00	6.50	14	3680.00	27.40	27.50	1579999499.0	0.24	0.44
26/01/2020 00:45:00	26012020	260120	004500	55.680	12.418688	-57.475682	55.480	0.090	-0.220	0.800	55.680	-1.700	1.000																			1579999500.0	0.45	0.83
26/01/2020 00:45:01	26012020	260120	004501	55.410	12.418688	-57.475680	55.250	0.070	0.040	1.050	55.410	-1.500	1.400																			1579999501.0	0.08	0.15
26/01/2020 00:45:02	26012020	260120	004502	55.250	12.418687	-57.475682	55.240	0.010	-0.010	1.000	55.250	-1.300	1.500																			1579999502.0	0.40	0.74
26/01/2020 00:45:03	26012020	260120	004503	55.290	12.418687	-57.475682	55.320	-0.050	-0.230	0.770	55.290	-1.500	1.300																			1579999503.0	0.18	0.33
26/01/2020 00:45:04	26012020	260120	004504	55.370	12.418687	-57.475680	55.330	-0.060	-0.290	0.570	55.370	-1.700	1.100																			1579999504.0	0.27	0.50
26/01/2020 00:45:05	26012020	260120	004505	55.360	12.418688	-57.475680	55.280	0.030	-0.170	0.460	55.360	-1.600	0.900																			1579999505.0	0.34	0.63
26/01/2020 00:45:06	26012020	260120	004506	55.290	12.418690	-57.475682	55.190	0.140	-0.040	0.400	55.290	-1.500	0.800																			1579999506.0	0.20	0.37
26/01/2020 00:45:07	26012020	260120	004507	55.210	12.418690	-57.475682	55.110	0.210	0.020	0.400	55.210	-1.400	0.800																			1579999507.0	0.22	0.41
26/01/2020 00:45:08	26012020	260120	004508	55.150	12.418690	-57.475683	55.070	0.180	0.020	0.400	55.140	-1.400	0.800																			1579999508.0	0.24	0.44
26/01/2020 00:45:09	26012020	260120	004509	55.110	12.418692	-57.475683	55.070	0.020	-0.030	0.400	55.110	-1.400	0.800																			1579999509.0	0.22	0.41
26/01/2020 00:45:10	26012020	260120	004510	55.110	12.418692	-57.475683	55.070	-0.210	-0.060	0.490	55.110	-1.400	0.800																			1579999510.0	0.14	0.26
26/01/2020 00:45:11	26012020	260120	004511	55.090	12.418692	-57.475683	55.040	-0.440	0.020	0.690	55.090	-1.400	1.000																			1579999511.0	0.04	0.07
26/01/2020 00:45:12	26012020	260120	004512	55.060	12.418690	-57.475683	55.020	-0.490	0.070	0.910	55.060	-1.300	1.200																			1579999512.0	0.29	0.54
26/01/2020 00:45:13	26012020	260120	004513	55.040	12.418688	-57.475683	55.040	-0.300	-0.080	1.000	55.040	-1.400	1.400																			1579999513.0	0.46	0.85
26/01/2020 00:45:14	26012020	260120	004514	55.070	12.418687	-57.475683	55.050	0.040	-0.380	0.940	55.070	-1.600	1.400																			1579999514.0	0.36	0.67
26/01/2020 00:45:15	26012020	260120	004515	55.050	12.418687	-57.475682	54.950	0.370	-0.570	0.820	55.050	-1.900	1.300																			1579999515.0	0.20	0.37
26/01/2020 00:45:16	26012020	260120	004516	54.940	12.418688	-57.475682	54.830	0.530	-0.520	0.660	54.940	-2.000	1.100																			1579999516.0	0.26	0.48
26/01/2020 00:45:17	26012020	260120	004517	54.840	12.418688	-57.475682	54.780	0.450	-0.230	0.400	54.840	-1.800	0.900																			1579999517.0	0.23	0.43
26/01/2020 00:45:18	26012020	260120	004518	54.830	12.418690	-57.475682	54.820	0.150	0.190	0.070	54.830	-1.400	0.600																			1579999518.0	0.40	0.74
26/01/2020 00:45:19	26012020	260120	004519	54.910	12.418692	-57.475685	54.930	-0.170	0.510	-0.220	54.910	-1.000	0.300																			1579999519.0	0.70	1.30
26/01/2020 00:45:20	26012020	260120	004520	55.030	12.418693	-57.475688	55.110	-0.310	0.480	-0.340	55.060	-0.800	0.100																			1579999520.0	0.83	1.54
26/01/2020 00:45:21	26012020	260120	004521	55.230	12.418695	-57.475692	55.260	-0.230	0.080	-0.240	55.230	-1.100	0.100																			1579999521.0	0.52	0.96
26/01/2020 00:45:22	26012020	260120	004522	55.360	12.418695	-57.475690	55.310	-0.050	-0.380	0.080	55.360	-1.600	0.300																			1579999522.0	0.10	0.19
26/01/2020 00:45:23	26012020	260120	004523	55.350	12.418695	-57.475688	55.260	0.050	-0.620	0.560	55.350	-1.900	0.700																			1579999523.0	0.51	0.94
26/01/2020 00:45:24	26012020	260120	004524	55.280	12.418693	-57.475685	55.260	0.000	-0.560	0.990	55.280	-2.000	1.200																			1579999524.0	0.72	1.33
26/01/2020 00:45:25	26012020	260120	004525	55.340	12.418690	-57.475683	55.420	-0.090	-0.280	1.170	55.340	-1.800	1.500																			1579999525.0	0.65	1.20
26/01/2020 00:45:26	26012020	260120	004526	55.510	12.418688	-57.475683	55.570	-0.110	0.070	1.130	55.510	-1.500	1.600																			1579999526.0	0.40	0.74
26/01/2020 00:45:27	26012020	260120	004527	55.640	12.418688	-57.475685	55.630	0.010	0.300	0.980	55.640	-1.200	1.500																			1579999527.0	0.30	0.56
26/01/2020 00:45:28	26012020	260120	004528	55.670	12.418687	-57.475685	55.640	0.130	0.240	0.770	55.670	-1.100	1.300																			1579999528.0	0.27	0.50
26/01/2020 00:45:29	26012020	260120	004529	55.690	12.418688	-57.475687	55.690	0.130	-0.010	0.470	55.690	-1.300	1.000																			1579999529.0	0.19	0.35
26/01/2020 00:45:30	26012020	260120	004530	55.770	12.418690	-57.475687	55.800	-0.020	-0.220	0.160	55.770	-1.500	0.700																			1579999530.0	0.41	0.76
26/01/2020 00:45:31	26012020	260120	004531	55.880	12.418692	-57.475687	55.890	-0.170	-0.240	-0.020	55.880	-1.600	0.400																			1579999531.0	0.53	0.98
26/01/2020 00:45:32	26012020	260120	004532	55.960	12.418693	-57.475687	55.920	-0.200	-0.130	-0.000	55.960	-1.600	0.400																			1579999532.0	0.33	0.61
26/01/2020 00:45:33	26012020	260120	004533	55.960	12.418693	-57.475688	55.880	-0.120	-0.060	0.130	55.960	-1.500	0.500																			1579999533.0	0.15	0.28
26/01/2020 00:45:34	26012020	260120	004534	55.890	12.418693	-57.475688	55.790	0.020	-0.130	0.330	55.890	-1.500	0.600																			1579999534.0	0.20	0.37
26/01/2020 00:45:35	26012020	260120	004535	55.780	12.418692	-57.475687	55.680	0.160	-0.270	0.580	55.780	-1.600	0.900																			1579999535.0	0.22	0.41
26/01/2020 00:45:36	26012020	260120	004536	55.670	12.418692	-57.475687	55.590	0.240	-0.330	0.840	55.670	-1.700	1.100																			1579999536.0	0.29	0.54
26/01/2020 00:45:37	26012020	260120	004537	55.590	12.418692	-57.475685	55.530	0.250	-0.220	0.980	55.590	-1.700	1.300																			1579999537.0	0.27	0.50
26/01/2020 00:45:38	26012020	260120	004538	55.560	12.418692	-57.475685	55.540	0.180	-0.030	0.960	55.560	-1.500	1.400																			1579999538.0	0.11	0.20
26/01/2020 00:45:39	26012020	260120	004539	55.590	12.418692	-57.475685	55.590	0.070	0.070	0.800	55.590	-1.300	1.300																			1579999539.0	0.14	0.26
26/01/2020 00:45:40	26012020	260120	004540	55.650	12.418692	-57.475685	55.640	-0.020	0.040	0.660	55.650	-1.300	1.100																			1579999540.0	0.27	0.50
26/01/2020 00:45:41	26012020	260120	004541	55.690	12.418693	-57.475687	55.640	-0.090	0.010	0.670	55.690	-1.400	1.000																			1579999541.0	0.24	0.44
26/01/2020 00:45:42	26012020	260120	004542	55.660	12.418693	-57.475687	55.560	-0.120	0.010	0.780	55.660	-1.400	1.100																			1579999542.0	0.09	0.17
26/01/2020 00:45:43	26012020	260120	004543	55.560	12.418693	-57.475685	55.450	-0.150	-0.060	0.740	55.560	-1.400	1.200																			1579999543.0	0.23	0.43
26/01/2020 00:45:44	26012020	260120	004544	55.480	12.418692	-57.475685	55.320	-0.150	-0.170	0.530	55.450	-1.500	1.000																			1579999544.0	0.17	0.31
26/01/2020 00:45:45	26012020	260120	004545	55.330	12.418692	-57.475685	55.180	-0.150	-0.160	0.360	55.330	-1.600	0.800																			1579999545.0	0.14	0.26
26/01/2020 00:45:46	26012020	260120	004546	55.220	12.418693	-57.475687	55.110	-0.140	-0.110	0.260	55.200	-1.500	0.700																			1579999546.0	0.29	0.54
26/01/2020 00:45:47	26012020	260120	004547	55.200	12.418693	-57.475687	55.210	-0.090	-0.200	0.050	55.200	-1.500	0.600																			1579999547.0	0.24	0.44
26/01/2020 00:45:48	26012020	260120	004548	55.340	12.418695	-57.475688	55.350	0.020	-0.320	-0.210	55.340	-1.700	0.300																			1579999548.0	0.18	0.33
26/01/2020 00:45:49	26012020	260120	004549	55.440	12.418695	-57.475688	55.340	0.160	-0.270	-0.270	55.440	-1.700	0.100																			1579999549.0	0.29	0.54
26/01/2020 00:45:50	26012020	260120	004550	55.380	12.418697	-57.475688	55.230	0.260	-0.070	-0.120	55.380	-1.600	0.200																			1579999550.0	0.20	0.37
26/01/2020 00:45:51	26012020	260120	004551	55.270	12.418697	-57.475688	55.190	0.270	0.070	0.060	55.270	-1.400	0.400																			1579999551.0	0.07	0.13
26/01/2020 00:45:52	26012020	260120	004552	55.290	12.418697	-57.475688	55.320	0.180	0.060	0.200	55.290	-1.300	0.500																			1579999552.0	0.15	0.28
26/01/2020 00:45:53	26012020	260120	004553	55.450	12.418697	-57.475690	55.510	0.040	-0.050	0.430	55.450	-1.400	0.700																			1579999553.0	0.06	0.11
26/01/2020 00:45:54	26012020	260120	004554	55.600	12.418697	-57.475688	55.570	-0.070	-0.090	0.850	55.600	-1.500	1.000																			1579999554.0	0.11	0.20
26/01/2020 00:45:55	26012020	260120	004555	55.580	12.418695	-57.475687	55.440	-0.170	-0.020	1.330	55.580	-1.400	1.500																			1579999555.0	0.42	0.78
26/01/2020 00:45:56	26012020	260120	004556	55.400	12.418692	-57.475685	55.250	-0.240	0.000	1.580	55.400	-1.400	1.900																			1579999556.0	0.72	1.33
26/01/2020 00:45:57	26012020	260120	004557	55.250	12.418690	-57.475683	55.210	-0.220	-0.130	1.520	55.250	-1.400	2.000																			1579999557.0	0.59	1.09
26/01/2020 00:45:58	26012020	260120	004558	55.260	12.418688	-57.475683	55.360	-0.060	-0.330	1.180	55.280	-1.600	1.800																			1579999558.0	0.16	0.30
26/01/2020 00:45:59	26012020	260120	004559	55.480	12.418690	-57.475683	55.570	0.140	-0.380	0.670	55.480	-1.800	1.300	1015.00	25.10	25.20	21.70	21.70	-1.00	81.00	81.00	390.00	24.80	329.00	6.70	24.00	6.60	14	3547.00	27.50	27.40	1579999559.0	0.29	0.54
26/01/2020 00:46:00	26012020	260120	004600	55.680	12.418692	-57.475683	55.670	0.180	-0.160	0.140	55.680	-1.700	0.800																			1579999560.0	0.46	0.85
26/01/2020 00:46:01	26012020	260120	004601	55.720	12.418695	-57.475685	55.590	0.030	0.150	-0.210	55.720	-1.400	0.300																			1579999561.0	0.54	1.00
26/01/2020 00:46:02	26012020	260120	004602	55.590	12.418697	-57.475688	55.370	-0.150	0.270	-0.260	55.590	-1.100	0.100																			1579999562.0	0.65	1.20
26/01/2020 00:46:03	26012020	260120	004603	55.340	12.418697	-57.475690	55.170	-0.170	0.070	-0.100	55.340	-1.200	0.200																			1579999563.0	0.47	0.87
26/01/2020 00:46:04	26012020	260120	004604	55.190	12.418697	-57.475690	55.120	-0.030	-0.290	0.040	55.190	-1.500	0.400																			1579999564.0	0.05	0.09
26/01/2020 00:46:05	26012020	260120	004605	55.200	12.418697	-57.475688	55.200	0.150	-0.540	0.200	55.200	-1.800	0.500																			1579999565.0	0.37	0.69
26/01/2020 00:46:06	26012020	260120	004606	55.280	12.418697	-57.475685	55.250	0.230	-0.460	0.490	55.280	-1.900	0.700																			1579999566.0	0.44	0.81
26/01/2020 00:46:07	26012020	260120	004607	55.280	12.418697	-57.475685	55.180	0.170	-0.140	0.840	55.280	-1.700	1.100																			1579999567.0	0.31	0.57
26/01/2020 00:46:08	26012020	260120	004608	55.160	12.418695	-57.475683	55.030	0.050	0.190	1.100	55.160	-1.300	1.400																			1579999568.0	0.32	0.59
26/01/2020 00:46:09	26012020	260120	004609	55.010	12.418693	-57.475685	54.940	-0.040	0.270	1.160	55.010	-1.100	1.600																			1579999569.0	0.35	0.65
26/01/2020 00:46:10	26012020	260120	004610	54.960	12.418693	-57.475685	54.930	-0.050	0.140	1.060	54.950	-1.200	1.500																			1579999570.0	0.20	0.37
26/01/2020 00:46:11	26012020	260120	004611	54.960	12.418693	-57.475685	54.910	-0.040	-0.030	0.890	54.960	-1.300	1.400																			1579999571.0	0.06	0.11
26/01/2020 00:46:12	26012020	260120	004612	54.940	12.418693	-57.475685	54.820	-0.070	-0.190	0.710	54.920	-1.500	1.200																			1579999572.0	0.15	0.28
26/01/2020 00:46:13	26012020	260120	004613	54.830	12.418695	-57.475685	54.740	-0.080	-0.330	0.410	54.830	-1.700	1.000																			1579999573.0	0.18	0.33
26/01/2020 00:46:14	26012020	260120	004614	54.780	12.418697	-57.475685	54.720	-0.020	-0.370	0.030	54.780	-1.800	0.600																			1579999574.0	0.42	0.78
26/01/2020 00:46:15	26012020	260120	004615	54.780	12.418700	-57.475687	54.740	0.050	-0.240	-0.260	54.780	-1.700	0.300																			1579999575.0	0.61	1.13
26/01/2020 00:46:16	26012020	260120	004616	54.810	12.418702	-57.475688	54.790	0.050	-0.030	-0.370	54.810	-1.500	0.100																			1579999576.0	0.54	1.00
26/01/2020 00:46:17	26012020	260120	004617	54.880	12.418702	-57.475690	54.880	-0.020	0.110	-0.280	54.880	-1.300	0.100																			1579999577.0	0.31	0.57
26/01/2020 00:46:18	26012020	260120	004618	54.950	12.418702	-57.475690	54.930	-0.090	0.130	-0.020	54.950	-1.300	0.200																			1579999578.0	0.17	0.31
26/01/2020 00:46:19	26012020	260120	004619	54.960	12.418700	-57.475690	54.900	-0.160	0.050	0.320	54.960	-1.300	0.500																			1579999579.0	0.38	0.70
26/01/2020 00:46:20	26012020	260120	004620	54.920	12.418697	-57.475688	54.860	-0.180	-0.100	0.630	54.920	-1.400	0.900																			1579999580.0	0.52	0.96
26/01/2020 00:46:21	26012020	260120	004621	54.880	12.418697	-57.475687	54.850	-0.110	-0.250	0.850	54.880	-1.600	1.100																			1579999581.0	0.47	0.87
26/01/2020 00:46:22	26012020	260120	004622	54.860	12.418695	-57.475685	54.840	0.070	-0.350	1.030	54.860	-1.700	1.300																			1579999582.0	0.32	0.59
26/01/2020 00:46:23	26012020	260120	004623	54.850	12.418695	-57.475685	54.820	0.260	-0.380	1.110	54.850	-1.800	1.500																			1579999583.0	0.26	0.48
26/01/2020 00:46:24	26012020	260120	004624	54.830	12.418695	-57.475683	54.800	0.290	-0.270	0.970	54.830	-1.700	1.500																			1579999584.0	0.23	0.43
26/01/2020 00:46:25	26012020	260120	004625	54.830	12.418695	-57.475683	54.810	0.160	-0.040	0.610	54.830	-1.600	1.200																			1579999585.0	0.11	0.20
26/01/2020 00:46:26	26012020	260120	004626	54.860	12.418697	-57.475683	54.830	-0.020	0.210	0.260	54.860	-1.300	0.800																			1579999586.0	0.40	0.74
26/01/2020 00:46:27	26012020	260120	004627	54.880	12.418698	-57.475687	54.850	-0.110	0.280	0.100	54.880	-1.100	0.600																			1579999587.0	0.62	1.15
26/01/2020 00:46:28	26012020	260120	004628	54.890	12.418700	-57.475688	54.880	-0.080	0.110	0.050	54.890	-1.200	0.500																			1579999588.0	0.49	0.91
26/01/2020 00:46:29	26012020	260120	004629	54.930	12.418702	-57.475688	54.920	-0.040	-0.130	0.040	54.930	-1.400	0.400																			1579999589.0	0.29	0.54
26/01/2020 00:46:30	26012020	260120	004630	54.960	12.418702	-57.475687	54.910	-0.070	-0.240	0.170	54.960	-1.600	0.500																			1579999590.0	0.28	0.52
26/01/2020 00:46:31	26012020	260120	004631	54.900	12.418702	-57.475687	54.790	-0.170	-0.190	0.520	54.900	-1.600	0.700																			1579999591.0	0.20	0.37
26/01/2020 00:46:32	26012020	260120	004632	54.760	12.418700	-57.475685	54.640	-0.200	-0.120	0.980	54.760	-1.500	1.200																			1579999592.0	0.33	0.61
26/01/2020 00:46:33	26012020	260120	004633	54.600	12.418698	-57.475685	54.520	-0.090	-0.160	1.360	54.600	-1.500	1.600																			1579999593.0	0.50	0.93
26/01/2020 00:46:34	26012020	260120	004634	54.500	12.418697	-57.475683	54.470	0.100	-0.330	1.480	54.500	-1.600	1.900																			1579999594.0	0.51	0.94
26/01/2020 00:46:35	26012020	260120	004635	54.470	12.418695	-57.475682	54.440	0.190	-0.420	1.330	54.470	-1.800	1.800																			1579999595.0	0.43	0.80
26/01/2020 00:46:36	26012020	260120	004636	54.450	12.418697	-57.475680	54.410	0.100	-0.280	1.030	54.450	-1.800	1.600																			1579999596.0	0.32	0.59
26/01/2020 00:46:37	26012020	260120	004637	54.400	12.418697	-57.475680	54.310	-0.020	0.040	0.690	54.400	-1.500	1.300																			1579999597.0	0.20	0.37
26/01/2020 00:46:38	26012020	260120	004638	54.280	12.418698	-57.475682	54.120	-0.040	0.330	0.340	54.280	-1.200	0.900																			1579999598.0	0.44	0.81
26/01/2020 00:46:39	26012020	260120	004639	54.080	12.418700	-57.475683	53.930	0.080	0.310	-0.070	54.080	-1.000	0.500																			1579999599.0	0.62	1.15
26/01/2020 00:46:40	26012020	260120	004640	53.950	12.418702	-57.475687	53.880	0.190	-0.060	-0.500	53.950	-1.200	0.100																			1579999600.0	0.68	1.26
26/01/2020 00:46:41	26012020	260120	004641	53.970	12.418705	-57.475687	53.970	0.180	-0.420	-0.760	53.970	-1.700	-0.200																			1579999601.0	0.79	1.46
26/01/2020 00:46:42	26012020	260120	004642	54.080	12.418708	-57.475688	54.070	0.010	-0.370	-0.740	54.080	-1.800	-0.400																			1579999602.0	0.80	1.48
26/01/2020 00:46:43	26012020	260120	004643	54.140	12.418712	-57.475688	54.060	-0.220	0.040	-0.400	54.140	-1.600	-0.200																			1579999603.0	0.40	0.74
26/01/2020 00:46:44	26012020	260120	004644	54.080	12.418710	-57.475688	53.950	-0.350	0.310	0.230	54.080	-1.200	0.300																			1579999604.0	0.34	0.63
26/01/2020 00:46:45	26012020	260120	004645	53.950	12.418707	-57.475688	53.890	-0.290	0.110	0.960	53.950	-1.100	1.000																			1579999605.0	0.81	1.50
26/01/2020 00:46:46	26012020	260120	004646	53.920	12.418702	-57.475687	53.950	-0.090	-0.420	1.500	53.920	-1.500	1.700																			1579999606.0	0.97	1.80
26/01/2020 00:46:47	26012020	260120	004647	54.000	12.418700	-57.475682	54.040	0.120	-0.730	1.660	54.000	-2.000	2.000																			1579999607.0	1.01	1.87
26/01/2020 00:46:48	26012020	260120	004648	54.060	12.418698	-57.475678	53.990	0.240	-0.470	1.620	54.060	-2.000	2.000																			1579999608.0	0.73	1.35
26/01/2020 00:46:49	26012020	260120	004649	53.960	12.418700	-57.475678	53.850	0.240	0.050	1.480	53.960	-1.600	2.000																			1579999609.0	0.15	0.28
26/01/2020 00:46:50	26012020	260120	004650	53.840	12.418700	-57.475680	53.810	0.180	0.280	1.100	53.840	-1.200	1.700																			1579999610.0	0.39	0.72
26/01/2020 00:46:51	26012020	260120	004651	53.880	12.418700	-57.475682	53.950	0.110	0.130	0.480	53.880	-1.200	1.200																			1579999611.0	0.54	1.00
26/01/2020 00:46:52	26012020	260120	004652	54.070	12.418703	-57.475683	54.130	0.030	-0.020	-0.170	54.070	-1.400	0.500																			1579999612.0	0.79	1.46
26/01/2020 00:46:53	26012020	260120	004653	54.250	12.418708	-57.475685	54.270	-0.080	0.020	-0.580	54.250	-1.400	0.000																			1579999613.0	0.97	1.80
26/01/2020 00:46:54	26012020	260120	004654	54.380	12.418710	-57.475687	54.390	-0.200	0.050	-0.690	54.380	-1.300	-0.300																			1579999614.0	0.69	1.28
26/01/2020 00:46:55	26012020	260120	004655	54.480	12.418712	-57.475688	54.420	-0.250	-0.070	-0.460	54.480	-1.400	-0.200																			1579999615.0	0.29	0.54
26/01/2020 00:46:56	26012020	260120	004656	54.460	12.418712	-57.475688	54.330	-0.220	-0.250	0.080	54.460	-1.600	0.200																			1579999616.0	0.14	0.26
26/01/2020 00:46:57	26012020	260120	004657	54.330	12.418710	-57.475685	54.240	-0.110	-0.390	0.700	54.330	-1.700	0.800																			1579999617.0	0.49	0.91
26/01/2020 00:46:58	26012020	260120	004658	54.260	12.418708	-57.475683	54.240	0.030	-0.420	1.230	54.260	-1.800	1.400																			1579999618.0	0.68	1.26
26/01/2020 00:46:59	26012020	260120	004659	54.260	12.418705	-57.475680	54.220	0.110	-0.250	1.580	54.260	-1.700	1.800	1015.00	25.20	25.20	21.90	21.80	-1.00	82.00	81.00	390.00	24.80	327.00	6.10	21.00	6.00	14	3603.00	27.50	27.40	1579999619.0	0.70	1.30
26/01/2020 00:47:00	26012020	260120	004700	54.220	12.418703	-57.475678	54.180	0.110	0.080	1.670	54.220	-1.500	2.100																			1579999620.0	0.53	0.98
26/01/2020 00:47:01	26012020	260120	004701	54.190	12.418703	-57.475678	54.200	0.070	0.310	1.450	54.190	-1.200	2.000																			1579999621.0	0.22	0.41
26/01/2020 00:47:02	26012020	260120	004702	54.240	12.418703	-57.475680	54.300	0.080	0.210	1.040	54.260	-1.100	1.700																			1579999622.0	0.34	0.63
26/01/2020 00:47:03	26012020	260120	004703	54.360	12.418705	-57.475682	54.350	0.120	-0.110	0.570	54.360	-1.300	1.200																			1579999623.0	0.57	1.06
26/01/2020 00:47:04	26012020	260120	004704	54.390	12.418708	-57.475683	54.340	0.150	-0.390	0.150	54.390	-1.700	0.800																			1579999624.0	0.77	1.43
26/01/2020 00:47:05	26012020	260120	004705	54.380	12.418712	-57.475683	54.330	0.150	-0.560	-0.120	54.380	-1.900	0.400																			1579999625.0	0.79	1.46
26/01/2020 00:47:06	26012020	260120	004706	54.380	12.418715	-57.475685	54.330	0.100	-0.510	-0.190	54.380	-2.000	0.200																			1579999626.0	0.61	1.13
26/01/2020 00:47:07	26012020	260120	004707	54.360	12.418717	-57.475685	54.290	-0.010	-0.160	-0.030	54.360	-1.800	0.300																			1579999627.0	0.32	0.59
26/01/2020 00:47:08	26012020	260120	004708	54.310	12.418715	-57.475685	54.240	-0.150	0.300	0.280	54.310	-1.300	0.500																			1579999628.0	0.15	0.28
26/01/2020 00:47:09	26012020	260120	004709	54.250	12.418713	-57.475683	54.170	-0.300	0.550	0.550	54.250	-0.900	0.800																			1579999629.0	0.60	1.11
26/01/2020 00:47:10	26012020	260120	004710	54.140	12.418710	-57.475683	54.030	-0.340	0.390	0.660	54.140	-0.900	1.000																			1579999630.0	0.68	1.26
26/01/2020 00:47:11	26012020	260120	004711	53.990	12.418708	-57.475683	53.880	-0.220	-0.060	0.550	53.990	-1.200	1.000																			1579999631.0	0.26	0.48
26/01/2020 00:47:12	26012020	260120	004712	53.870	12.418710	-57.475683	53.830	0.050	-0.450	0.350	53.870	-1.700	0.900																			1579999632.0	0.40	0.74
26/01/2020 00:47:13	26012020	260120	004713	53.870	12.418713	-57.475683	53.890	0.310	-0.540	0.210	53.870	-1.900	0.700																			1579999633.0	0.73	1.35
26/01/2020 00:47:14	26012020	260120	004714	53.940	12.418717	-57.475683	53.950	0.350	-0.380	0.230	53.940	-1.900	0.600																			1579999634.0	0.58	1.07
26/01/2020 00:47:15	26012020	260120	004715	53.970	12.418717	-57.475685	53.890	0.150	-0.160	0.400	53.970	-1.700	0.700																			1579999635.0	0.21	0.39
26/01/2020 00:47:16	26012020	260120	004716	53.830	12.418715	-57.475685	53.640	-0.150	0.010	0.680	53.830	-1.500	0.900																			1579999636.0	0.24	0.44
26/01/2020 00:47:17	26012020	260120	004717	53.520	12.418715	-57.475685	53.280	-0.290	0.130	0.990	53.520	-1.300	1.200																			1579999637.0	0.34	0.63
26/01/2020 00:47:18	26012020	260120	004718	53.170	12.418713	-57.475683	53.020	-0.180	0.080	1.170	53.170	-1.300	1.500																			1579999638.0	0.39	0.72
26/01/2020 00:47:19	26012020	260120	004719	52.970	12.418712	-57.475683	52.890	0.060	-0.190	1.090	52.970	-1.400	1.600																			1579999639.0	0.36	0.67
26/01/2020 00:47:20	26012020	260120	004720	52.870	12.418712	-57.475682	52.790	0.220	-0.380	0.730	52.870	-1.700	1.300																			1579999640.0	0.29	0.54
26/01/2020 00:47:21	26012020	260120	004721	52.760	12.418713	-57.475680	52.590	0.210	-0.260	0.300	52.760	-1.700	0.900																			1579999641.0	0.49	0.91
26/01/2020 00:47:22	26012020	260120	004722	52.530	12.418717	-57.475682	52.330	0.110	0.010	-0.000	52.530	-1.500	0.500																			1579999642.0	0.63	1.17
26/01/2020 00:47:23	26012020	260120	004723	52.280	12.418718	-57.475685	52.140	0.050	0.060	-0.200	52.280	-1.300	0.300																			1579999643.0	0.61	1.13
26/01/2020 00:47:24	26012020	260120	004724	52.160	12.418720	-57.475687	52.050	0.070	-0.140	-0.340	52.140	-1.400	0.100																			1579999644.0	0.46	0.85
26/01/2020 00:47:25	26012020	260120	004725	52.030	12.418722	-57.475687	51.890	0.040	-0.160	-0.250	52.030	-1.600	0.100																			1579999645.0	0.46	0.85
26/01/2020 00:47:26	26012020	260120	004726	51.830	12.418723	-57.475685	51.630	-0.130	0.170	0.100	51.830	-1.400	0.300																			1579999646.0	0.38	0.70
26/01/2020 00:47:27	26012020	260120	004727	51.520	12.418722	-57.475685	51.300	-0.340	0.470	0.570	51.520	-1.000	0.700																			1579999647.0	0.19	0.35
26/01/2020 00:47:28	26012020	260120	004728	51.160	12.418720	-57.475685	50.940	-0.420	0.310	1.000	51.160	-0.900	1.200																			1579999648.0	0.62	1.15
26/01/2020 00:47:29	26012020	260120	004729	50.810	12.418717	-57.475685	50.620	-0.280	-0.290	1.280	50.810	-1.300	1.600																			1579999649.0	0.59	1.09
26/01/2020 00:47:30	26012020	260120	004730	50.500	12.418717	-57.475683	50.360	-0.010	-0.850	1.420	50.500	-2.000	1.800																			1579999650.0	0.50	0.93
26/01/2020 00:47:31	26012020	260120	004731	50.270	12.418717	-57.475680	50.190	0.250	-0.940	1.340	50.270	-2.300	1.800																			1579999651.0	0.62	1.15
26/01/2020 00:47:32	26012020	260120	004732	50.090	12.418718	-57.475678	49.960	0.400	-0.550	1.070	50.090	-2.200	1.600																			1579999652.0	0.44	0.81
26/01/2020 00:47:33	26012020	260120	004733	49.840	12.418720	-57.475680	49.620	0.350	0.060	0.770	49.840	-1.600	1.300																			1579999653.0	0.24	0.44
26/01/2020 00:47:34	26012020	260120	004734	49.460	12.418720	-57.475682	49.190	0.140	0.490	0.500	49.460	-1.100	1.000																			1579999654.0	0.41	0.76
26/01/2020 00:47:35	26012020	260120	004735	49.050	12.418720	-57.475683	48.830	-0.070	0.550	0.230	49.050	-0.800	0.800																			1579999655.0	0.50	0.93
26/01/2020 00:47:36	26012020	260120	004736	48.750	12.418722	-57.475685	48.600	-0.140	0.260	-0.100	48.750	-1.000	0.500																			1579999656.0	0.49	0.91
26/01/2020 00:47:37	26012020	260120	004737	48.540	12.418725	-57.475687	48.330	-0.090	-0.090	-0.400	48.540	-1.300	0.100																			1579999657.0	0.63	1.17
26/01/2020 00:47:38	26012020	260120	004738	48.300	12.418728	-57.475688	47.930	-0.040	-0.260	-0.430	48.230	-1.600	-0.000																			1579999658.0	0.72	1.33
26/01/2020 00:47:39	26012020	260120	004739	47.800	12.418730	-57.475688	47.460	-0.020	-0.270	-0.100	47.800	-1.700	0.100																			1579999659.0	0.51	0.94
26/01/2020 00:47:40	26012020	260120	004740	47.320	12.418730	-57.475688	47.070	0.010	-0.330	0.380	47.320	-1.700	0.500																			1579999660.0	0.10	0.19
26/01/2020 00:47:41	26012020	260120	004741	46.970	12.418728	-57.475688	46.800	0.100	-0.460	0.750	46.970	-1.800	1.000																			1579999661.0	0.30	0.56
26/01/2020 00:47:42	26012020	260120	004742	46.710	12.418728	-57.475687	46.520	0.130	-0.410	1.070	46.710	-1.900	1.300																			1579999662.0	0.49	0.91
26/01/2020 00:47:43	26012020	260120	004743	46.380	12.418727	-57.475683	46.090	-0.020	-0.040	1.340	46.380	-1.600	1.600																			1579999663.0	0.51	0.94
26/01/2020 00:47:44	26012020	260120	004744	45.910	12.418727	-57.475683	45.610	-0.260	0.400	1.400	45.910	-1.200	1.800																			1579999664.0	0.33	0.61
26/01/2020 00:47:45	26012020	260120	004745	45.450	12.418725	-57.475683	45.200	-0.370	0.480	1.160	45.450	-0.900	1.700																			1579999665.0	0.38	0.70
26/01/2020 00:47:46	26012020	260120	004746	45.070	12.418725	-57.475687	44.840	-0.200	0.090	0.780	45.070	-1.100	1.400																			1579999666.0	0.46	0.85
26/01/2020 00:47:47	26012020	260120	004747	44.720	12.418727	-57.475688	44.460	0.160	-0.430	0.470	44.720	-1.600	1.000																			1579999667.0	0.59	1.09
26/01/2020 00:47:48	26012020	260120	004748	44.330	12.418730	-57.475688	44.010	0.420	-0.640	0.200	44.330	-2.000	0.700																			1579999668.0	0.71	1.31
26/01/2020 00:47:49	26012020	260120	004749	43.870	12.418733	-57.475688	43.520	0.400	-0.470	-0.070	43.870	-2.000	0.500																			1579999669.0	0.56	1.04
26/01/2020 00:47:50	26012020	260120	004750	43.470	12.418735	-57.475688	43.010	0.160	-0.120	-0.230	43.370	-1.700	0.200																			1579999670.0	0.47	0.87
26/01/2020 00:47:51	26012020	260120	004751	42.870	12.418735	-57.475692	42.520	-0.110	0.200	-0.270	42.870	-1.300	0.100																			1579999671.0	0.60	1.11
26/01/2020 00:47:52	26012020	260120	004752	42.490	12.418737	-57.475695	42.090	-0.270	0.360	-0.150	42.400	-1.100	0.200																			1579999672.0	0.61	1.13
26/01/2020 00:47:53	26012020	260120	004753	41.970	12.418737	-57.475697	41.700	-0.280	0.290	0.120	41.970	-1.000	0.400																			1579999673.0	0.43	0.80
26/01/2020 00:47:54	26012020	260120	004754	41.580	12.418737	-57.475697	41.360	-0.150	-0.030	0.440	41.580	-1.200	0.700																			1579999674.0	0.13	0.24
26/01/2020 00:47:55	26012020	260120	004755	41.230	12.418737	-57.475695	40.990	0.000	-0.390	0.750	41.230	-1.600	1.000																			1579999675.0	0.22	0.41
26/01/2020 00:47:56	26012020	260120	004756	40.810	12.418738	-57.475693	40.470	0.080	-0.510	1.110	40.810	-1.900	1.300																			1579999676.0	0.46	0.85
26/01/2020 00:47:57	26012020	260120	004757	40.220	12.418737	-57.475692	39.810	0.060	-0.340	1.390	40.220	-1.800	1.700																			1579999677.0	0.45	0.83
26/01/2020 00:47:58	26012020	260120	004758	39.540	12.418737	-57.475690	39.170	0.050	-0.110	1.450	39.540	-1.600	1.900																			1579999678.0	0.23	0.43
26/01/2020 00:47:59	26012020	260120	004759	38.940	12.418737	-57.475692	38.650	0.100	-0.020	1.190	38.940	-1.400	1.800	1015.10	25.20	25.20	21.90	21.90	-1.00	82.00	81.00	390.00	24.80	332.00	6.60	21.00	6.50	14	3615.00	27.50	27.40	1579999679.0	0.21	0.39
26/01/2020 00:48:00	26012020	260120	004800	38.460	12.418738	-57.475693	38.200	0.140	-0.030	0.690	38.460	-1.400	1.400																			1579999680.0	0.51	0.94
26/01/2020 00:48:01	26012020	260120	004801	38.010	12.418740	-57.475697	37.720	0.070	-0.010	0.120	38.010	-1.400	0.800																			1579999681.0	0.72	1.33
26/01/2020 00:48:02	26012020	260120	004802	37.530	12.418743	-57.475698	37.200	-0.100	0.080	-0.330	37.530	-1.300	0.300																			1579999682.0	0.86	1.59
26/01/2020 00:48:03	26012020	260120	004803	37.010	12.418745	-57.475702	36.660	-0.200	0.130	-0.610	37.010	-1.300	-0.100																			1579999683.0	0.90	1.67
26/01/2020 00:48:04	26012020	260120	004804	36.470	12.418747	-57.475705	36.060	-0.100	0.070	-0.630	36.470	-1.300	-0.200																			1579999684.0	0.82	1.52
26/01/2020 00:48:05	26012020	260120	004805	35.830	12.418748	-57.475708	35.400	0.080	-0.150	-0.390	35.830	-1.400	-0.100																			1579999685.0	0.49	0.91
26/01/2020 00:48:06	26012020	260120	004806	35.160	12.418748	-57.475708	34.800	0.180	-0.490	-0.090	35.160	-1.700	0.200																			1579999686.0	0.13	0.24
26/01/2020 00:48:07	26012020	260120	004807	34.600	12.418750	-57.475707	34.310	0.140	-0.680	0.150	34.600	-2.000	0.400																			1579999687.0	0.29	0.54
26/01/2020 00:48:08	26012020	260120	004808	34.110	12.418752	-57.475707	33.760	0.000	-0.350	0.470	34.110	-1.900	0.700																			1579999688.0	0.40	0.74
26/01/2020 00:48:09	26012020	260120	004809	33.510	12.418752	-57.475707	33.070	-0.140	0.310	0.900	33.510	-1.400	1.100																			1579999689.0	0.12	0.22
26/01/2020 00:48:10	26012020	260120	004810	32.770	12.418750	-57.475707	32.330	-0.220	0.630	1.200	32.770	-0.800	1.500																			1579999690.0	0.48	0.89
26/01/2020 00:48:11	26012020	260120	004811	32.060	12.418748	-57.475708	31.740	-0.180	0.270	1.130	32.060	-0.900	1.600																			1579999691.0	0.53	0.98
26/01/2020 00:48:12	26012020	260120	004812	31.550	12.418750	-57.475710	31.340	-0.010	-0.320	0.750	31.550	-1.400	1.400																			1579999692.0	0.34	0.63
26/01/2020 00:48:13	26012020	260120	004813	31.180	12.418753	-57.475712	30.930	0.170	-0.540	0.400	31.180	-1.900	1.000																			1579999693.0	0.93	1.72
26/01/2020 00:48:14	26012020	260120	004814	30.730	12.418757	-57.475713	30.310	0.200	-0.290	0.250	30.730	-1.800	0.700																			1579999694.0	0.83	1.54
26/01/2020 00:48:15	26012020	260120	004815	30.030	12.418758	-57.475715	29.470	0.080	0.010	0.200	30.030	-1.500	0.600																			1579999695.0	0.42	0.78
26/01/2020 00:48:16	26012020	260120	004816	29.150	12.418757	-57.475717	28.640	-0.040	-0.030	0.040	29.150	-1.300	0.600																			1579999696.0	0.50	0.93
26/01/2020 00:48:17	26012020	260120	004817	28.390	12.418758	-57.475720	28.050	0.020	-0.340	-0.310	28.390	-1.500	0.300																			1579999697.0	0.65	1.20
26/01/2020 00:48:18	26012020	260120	004818	27.910	12.418762	-57.475723	27.650	0.180	-0.500	-0.670	27.910	-1.800	-0.100																			1579999698.0	0.99	1.83
26/01/2020 00:48:19	26012020	260120	004819	27.530	12.418765	-57.475725	27.190	0.190	-0.130	-0.710	27.530	-1.700	-0.300																			1579999699.0	1.09	2.02
26/01/2020 00:48:20	26012020	260120	004820	26.980	12.418767	-57.475728	26.490	-0.040	0.520	-0.380	26.980	-1.200	-0.200																			1579999700.0	0.66	1.22
26/01/2020 00:48:21	26012020	260120	004821	26.210	12.418765	-57.475730	25.690	-0.340	0.790	0.060	26.210	-0.600	0.300																			1579999701.0	0.49	0.91
26/01/2020 00:48:22	26012020	260120	004822	25.410	12.418763	-57.475730	24.990	-0.440	0.270	0.330	25.410	-0.700	0.600																			1579999702.0	0.61	1.13
26/01/2020 00:48:23	26012020	260120	004823	24.760	12.418763	-57.475730	24.450	-0.230	-0.620	0.470	24.760	-1.500	0.800																			1579999703.0	0.08	0.15
26/01/2020 00:48:24	26012020	260120	004824	24.250	12.418767	-57.475730	23.970	0.110	-1.110	0.550	24.250	-2.300	0.900																			1579999704.0	0.78	1.44
26/01/2020 00:48:25	26012020	260120	004825	23.760	12.418770	-57.475730	23.440	0.330	-0.870	0.570	23.760	-2.400	1.000																			1579999705.0	0.89	1.65
26/01/2020 00:48:26	26012020	260120	004826	23.190	12.418772	-57.475730	22.810	0.300	-0.110	0.580	23.190	-1.900	1.000																			1579999706.0	0.45	0.83
26/01/2020 00:48:27	26012020	260120	004827	22.530	12.418772	-57.475733	22.100	0.090	0.580	0.560	22.530	-1.100	1.000																			1579999707.0	0.47	0.87
26/01/2020 00:48:28	26012020	260120	004828	21.940	12.418768	-57.475735	21.340	-0.130	0.700	0.470	21.800	-0.600	0.900																			1579999708.0	0.66	1.22
26/01/2020 00:48:29	26012020	260120	004829	21.050	12.418768	-57.475737	20.620	-0.200	0.270	0.260	21.050	-0.800	0.800																			1579999709.0	0.45	0.83
26/01/2020 00:48:30	26012020	260120	004830	20.360	12.418770	-57.475738	20.000	-0.090	-0.320	-0.070	20.360	-1.400	0.500																			1579999710.0	0.69	1.28
26/01/2020 00:48:31	26012020	260120	004831	19.790	12.418775	-57.475742	19.490	0.140	-0.690	-0.500	19.790	-1.900	0.100																			1579999711.0	1.11	2.06
26/01/2020 00:48:32	26012020	260120	004832	19.310	12.418778	-57.475745	18.970	0.300	-0.640	-0.800	19.310	-2.100	-0.300																			1579999712.0	1.17	2.17
26/01/2020 00:48:33	26012020	260120	004833	18.760	12.418782	-57.475750	18.380	0.270	-0.260	-0.770	18.760	-1.800	-0.400																			1579999713.0	0.95	1.76
26/01/2020 00:48:34	26012020	260120	004834	18.150	12.418782	-57.475752	17.770	0.060	0.160	-0.480	18.150	-1.400	-0.200																			1579999714.0	0.52	0.96
26/01/2020 00:48:35	26012020	260120	004835	17.550	12.418782	-57.475752	17.200	-0.230	0.380	-0.110	17.550	-1.000	0.100																			1579999715.0	0.28	0.52
26/01/2020 00:48:36	26012020	260120	004836	16.980	12.418780	-57.475752	16.650	-0.440	0.420	0.220	16.980	-0.900	0.500																			1579999716.0	0.18	0.33
26/01/2020 00:48:37	26012020	260120	004837	16.410	12.418780	-57.475752	16.070	-0.440	0.310	0.490	16.410	-1.000	0.800																			1579999717.0	0.01	0.02
26/01/2020 00:48:38	26012020	260120	004838	15.820	12.418780	-57.475752	15.450	-0.230	0.050	0.690	15.820	-1.100	1.000																			1579999718.0	0.08	0.15
26/01/2020 00:48:39	26012020	260120	004839	15.210	12.418780	-57.475752	14.850	0.030	-0.410	0.770	15.210	-1.500	1.100																			1579999719.0	0.11	0.20
26/01/2020 00:48:40	26012020	260120	004840	14.720	12.418782	-57.475752	14.270	0.220	-0.900	0.690	14.610	-2.000	1.100																			1579999720.0	0.29	0.54
26/01/2020 00:48:41	26012020	260120	004841	14.050	12.418783	-57.475752	13.700	0.270	-1.050	0.430	14.050	-2.400	1.000																			1579999721.0	0.50	0.93
26/01/2020 00:48:42	26012020	260120	004842	13.570	12.418787	-57.475753	13.000	0.230	-0.560	0.120	13.450	-2.200	0.700																			1579999722.0	0.77	1.43
26/01/2020 00:48:43	26012020	260120	004843	12.720	12.418788	-57.475757	12.210	0.180	0.270	-0.150	12.720	-1.500	0.400																			1579999723.0	0.94	1.74
26/01/2020 00:48:44	26012020	260120	004844	11.940	12.418788	-57.475762	11.510	0.190	0.710	-0.430	11.940	-0.800	0.100																			1579999724.0	1.08	2.00
26/01/2020 00:48:45	26012020	260120	004845	11.300	12.418787	-57.475767	10.960	0.210	0.500	-0.720	11.300	-0.700	-0.200																			1579999725.0	0.98	1.81
26/01/2020 00:48:46	26012020	260120	004846	10.790	12.418788	-57.475770	10.500	0.100	0.050	-0.920	10.790	-1.100	-0.400																			1579999726.0	0.73	1.35
26/01/2020 00:48:47	26012020	260120	004847	10.350	12.418792	-57.475772	10.050	-0.160	-0.120	-0.940	10.350	-1.400	-0.600																			1579999727.0	0.83	1.54
26/01/2020 00:48:48	26012020	260120	004848	9.880	12.418795	-57.475773	9.540	-0.410	-0.030	-0.750	9.880	-1.400	-0.500																			1579999728.0	0.58	1.07
26/01/2020 00:48:49	26012020	260120	004849	9.340	12.418795	-57.475775	8.970	-0.470	0.030	-0.410	9.340	-1.300	-0.200																			1579999729.0	0.22	0.41
26/01/2020 00:48:50	26012020	260120	004850	8.730	12.418793	-57.475775	8.320	-0.320	-0.120	0.050	8.730	-1.400	0.200																			1579999730.0	0.19	0.35
26/01/2020 00:48:51	26012020	260120	004851	8.060	12.418793	-57.475773	7.640	-0.100	-0.380	0.440	8.060	-1.600	0.700																			1579999731.0	0.26	0.48
26/01/2020 00:48:52	26012020	260120	004852	7.380	12.418795	-57.475772	6.970	0.110	-0.550	0.630	7.380	-1.800	0.900																			1579999732.0	0.37	0.69
26/01/2020 00:48:53	26012020	260120	004853	6.750	12.418795	-57.475772	6.410	0.360	-0.510	0.630	6.750	-1.900	1.000																			1579999733.0	0.32	0.59
26/01/2020 00:48:54	26012020	260120	004854	6.220	12.418797	-57.475773	5.860	0.590	-0.320	0.490	6.220	-1.800	1.000																			1579999734.0	0.39	0.72
26/01/2020 00:48:55	26012020	260120	004855	5.640	12.418798	-57.475775	5.200	0.560	-0.030	0.190	5.640	-1.500	0.800																			1579999735.0	0.31	0.57
26/01/2020 00:48:56	26012020	260120	004856	4.940	12.418798	-57.475775	4.480	0.160	0.240	-0.380	4.940	-1.200	0.300																			1579999736.0	0.29	0.54
26/01/2020 00:48:57	26012020	260120	004857	4.310	12.418798	-57.475780	3.980	-0.330	0.320	-1.200	4.310	-1.000	-0.400																			1579999737.0	0.75	1.39
26/01/2020 00:48:58	26012020	260120	004858	3.920	12.418798	-57.475787	3.720	-0.520	0.160	-2.010	3.920	-1.100	-1.200																			1579999738.0	1.42	2.63
26/01/2020 00:48:59	26012020	260120	004859	3.730	12.418800	-57.475793	3.540	-0.270	-0.060	-2.330	3.730	-1.300	-1.900	1015.00	25.10	25.20	21.90	21.80	-1.00	82.00	81.00	390.00	24.80	358.00	5.50	19.00	5.40	14	3635.00	27.50	27.50	1579999739.0	1.74	3.22
26/01/2020 00:49:00	26012020	260120	004900	3.550	12.418802	-57.475800	3.300	0.050	-0.120	-2.040	3.550	-1.400	-1.900																			1579999740.0	1.22	2.26
26/01/2020 00:49:01	26012020	260120	004901	3.260	12.418803	-57.475800	2.920	0.070	-0.060	-1.320	3.260	-1.400	-1.300																			1579999741.0	0.23	0.43
26/01/2020 00:49:02	26012020	260120	004902	2.800	12.418803	-57.475797	2.390	-0.170	0.020	-0.310	2.800	-1.300	-0.400																			1579999742.0	0.74	1.37
26/01/2020 00:49:03	26012020	260120	004903	2.200	12.418802	-57.475792	1.760	-0.320	-0.040	0.810	2.200	-1.300	0.600																			1579999743.0	1.00	1.85
26/01/2020 00:49:04	26012020	260120	004904	1.690	12.418802	-57.475787	1.260	-0.070	-0.340	1.790	1.570	-1.500	1.700																			1579999744.0	0.92	1.70
26/01/2020 00:49:05	26012020	260120	004905	1.090	12.418802	-57.475783	0.940	0.450	-0.760	2.370	1.090	-1.900	2.500																			1579999745.0	0.76	1.41
26/01/2020 00:49:06	26012020	260120	004906	0.810	12.418805	-57.475782	0.690	0.800	-0.840	2.480	0.810	-2.200	2.900																			1579999746.0	0.73	1.35
26/01/2020 00:49:07	26012020	260120	004907	0.550	12.418807	-57.475780	0.370	0.660	-0.330	2.150	0.550	-2.000	2.700																			1579999747.0	0.61	1.13
26/01/2020 00:49:08	26012020	260120	004908	0.170	12.418808	-57.475782	359.890	0.140	0.450	1.540	0.170	-1.300	2.300																			1579999748.0	0.30	0.56
26/01/2020 00:49:09	26012020	260120	004909	359.660	12.418807	-57.475785	359.390	-0.360	0.920	0.730	359.660	-0.600	1.500																			1579999749.0	0.90	1.67
26/01/2020 00:49:10	26012020	260120	004910	359.210	12.418803	-57.475792	359.050	-0.530	0.720	-0.260	359.210	-0.400	0.700																			1579999750.0	1.42	2.63
26/01/2020 00:49:11	26012020	260120	004911	358.950	12.418803	-57.475800	358.850	-0.410	0.060	-1.310	358.950	-0.900	-0.400																			1579999751.0	1.61	2.98
26/01/2020 00:49:12	26012020	260120	004912	358.820	12.418807	-57.475807	358.710	-0.230	-0.440	-2.090	358.820	-1.600	-1.400																			1579999752.0	1.71	3.17
26/01/2020 00:49:13	26012020	260120	004913	358.660	12.418808	-57.475815	358.460	-0.100	-0.430	-2.230	358.660	-1.800	-1.900																			1579999753.0	1.57	2.91
26/01/2020 00:49:14	26012020	260120	004914	358.350	12.418808	-57.475818	358.080	-0.020	-0.180	-1.670	358.350	-1.600	-1.600																			1579999754.0	0.86	1.59
26/01/2020 00:49:15	26012020	260120	004915	357.930	12.418807	-57.475818	357.690	0.070	-0.240	-0.800	357.930	-1.500	-0.900																			1579999755.0	0.33	0.61
26/01/2020 00:49:16	26012020	260120	004916	357.550	12.418807	-57.475815	357.350	0.200	-0.600	0.070	357.550	-1.700	0.000																			1579999756.0	0.74	1.37
26/01/2020 00:49:17	26012020	260120	004917	357.200	12.418808	-57.475812	357.020	0.310	-0.780	0.840	357.200	-2.100	0.900																			1579999757.0	0.87	1.61
26/01/2020 00:49:18	26012020	260120	004918	356.920	12.418812	-57.475808	356.720	0.320	-0.470	1.460	356.850	-2.000	1.500																			1579999758.0	0.85	1.57
26/01/2020 00:49:19	26012020	260120	004919	356.540	12.418813	-57.475807	356.380	0.230	0.180	1.960	356.540	-1.500	2.100																			1579999759.0	0.50	0.93
26/01/2020 00:49:20	26012020	260120	004920	356.130	12.418812	-57.475805	355.880	0.100	0.670	2.230	356.130	-0.900	2.500																			1579999760.0	0.22	0.41
26/01/2020 00:49:21	26012020	260120	004921	355.600	12.418812	-57.475805	355.360	0.010	0.610	2.020	355.600	-0.600	2.600																			1579999761.0	0.25	0.46
26/01/2020 00:49:22	26012020	260120	004922	355.150	12.418812	-57.475808	355.040	-0.050	0.130	1.260	355.150	-0.900	2.100																			1579999762.0	0.51	0.94
26/01/2020 00:49:23	26012020	260120	004923	354.940	12.418813	-57.475813	354.940	-0.130	-0.290	0.170	354.940	-1.400	1.100																			1579999763.0	1.22	2.26
26/01/2020 00:49:24	26012020	260120	004924	354.890	12.418815	-57.475822	354.810	-0.260	-0.330	-0.750	354.890	-1.700	0.100																			1579999764.0	1.67	3.09
26/01/2020 00:49:25	26012020	260120	004925	354.730	12.418817	-57.475828	354.460	-0.370	-0.040	-1.180	354.730	-1.500	-0.600																			1579999765.0	1.61	2.98
26/01/2020 00:49:26	26012020	260120	004926	354.300	12.418815	-57.475833	353.910	-0.370	0.190	-1.100	354.300	-1.200	-0.800																			1579999766.0	1.15	2.13
26/01/2020 00:49:27	26012020	260120	004927	353.730	12.418813	-57.475837	353.370	-0.170	-0.030	-0.810	353.730	-1.200	-0.600																			1579999767.0	0.62	1.15
26/01/2020 00:49:28	26012020	260120	004928	353.230	12.418813	-57.475837	352.930	0.160	-0.570	-0.450	353.230	-1.600	-0.300																			1579999768.0	0.12	0.22
26/01/2020 00:49:29	26012020	260120	004929	352.810	12.418815	-57.475837	352.510	0.410	-0.850	0.000	352.810	-2.100	0.200																			1579999769.0	0.56	1.04
26/01/2020 00:49:30	26012020	260120	004930	352.450	12.418818	-57.475837	352.050	0.410	-0.580	0.510	352.370	-2.100	0.600																			1579999770.0	0.73	1.35
26/01/2020 00:49:31	26012020	260120	004931	351.880	12.418820	-57.475838	351.580	0.220	-0.020	0.950	351.880	-1.600	1.100																			1579999771.0	0.33	0.61
26/01/2020 00:49:32	26012020	260120	004932	351.500	12.418820	-57.475838	351.200	0.050	0.290	1.190	351.430	-1.100	1.500																			1579999772.0	0.17	0.31
26/01/2020 00:49:33	26012020	260120	004933	351.100	12.418820	-57.475840	350.910	-0.000	0.290	1.210	351.100	-1.000	1.600																			1579999773.0	0.31	0.57
26/01/2020 00:49:34	26012020	260120	004934	350.810	12.418820	-57.475842	350.550	-0.040	0.290	1.180	350.810	-1.100	1.600																			1579999774.0	0.48	0.89
26/01/2020 00:49:35	26012020	260120	004935	350.410	12.418822	-57.475843	350.100	-0.180	0.340	1.060	350.410	-1.000	1.500																			1579999775.0	0.53	0.98
26/01/2020 00:49:36	26012020	260120	004936	349.970	12.418823	-57.475845	349.630	-0.350	0.200	0.740	349.970	-1.000	1.300																			1579999776.0	0.41	0.76
26/01/2020 00:49:37	26012020	260120	004937	349.490	12.418822	-57.475848	349.110	-0.360	-0.180	0.390	349.490	-1.300	0.900																			1579999777.0	0.78	1.44
26/01/2020 00:49:38	26012020	260120	004938	348.970	12.418823	-57.475855	348.610	-0.120	-0.600	0.070	348.970	-1.700	0.600																			1579999778.0	1.12	2.07
26/01/2020 00:49:39	26012020	260120	004939	348.490	12.418825	-57.475860	348.190	0.180	-0.830	-0.200	348.490	-2.100	0.300																			1579999779.0	1.14	2.11
26/01/2020 00:49:40	26012020	260120	004940	348.080	12.418827	-57.475863	347.740	0.310	-0.640	-0.290	348.080	-2.100	0.100																			1579999780.0	1.02	1.89
26/01/2020 00:49:41	26012020	260120	004941	347.600	12.418827	-57.475867	347.170	0.190	-0.130	-0.190	347.600	-1.700	0.100																			1579999781.0	0.76	1.41
26/01/2020 00:49:42	26012020	260120	004942	346.980	12.418827	-57.475870	346.500	-0.000	0.320	-0.000	346.980	-1.200	0.300																			1579999782.0	0.50	0.93
26/01/2020 00:49:43	26012020	260120	004943	346.290	12.418827	-57.475872	345.800	-0.070	0.450	0.220	346.290	-0.900	0.500																			1579999783.0	0.52	0.96
26/01/2020 00:49:44	26012020	260120	004944	345.600	12.418827	-57.475875	345.200	-0.000	0.240	0.400	345.600	-0.900	0.700																			1579999784.0	0.57	1.06
26/01/2020 00:49:45	26012020	260120	004945	345.060	12.418827	-57.475877	344.790	0.040	-0.170	0.440	345.060	-1.300	0.800																			1579999785.0	0.67	1.24
26/01/2020 00:49:46	26012020	260120	004946	344.730	12.418830	-57.475880	344.560	-0.050	-0.440	0.310	344.730	-1.700	0.800																			1579999786.0	0.88	1.63
26/01/2020 00:49:47	26012020	260120	004947	344.540	12.418832	-57.475885	344.360	-0.220	-0.290	0.170	344.540	-1.700	0.600																			1579999787.0	0.98	1.81
26/01/2020 00:49:48	26012020	260120	004948	344.290	12.418832	-57.475890	343.910	-0.260	0.180	0.340	344.290	-1.400	0.600																			1579999788.0	0.96	1.78
26/01/2020 00:49:49	26012020	260120	004949	343.710	12.418832	-57.475893	343.160	-0.080	0.440	0.900	343.710	-0.900	1.000																			1579999789.0	0.73	1.35
26/01/2020 00:49:50	26012020	260120	004950	342.890	12.418830	-57.475893	342.360	0.190	0.020	1.390	342.890	-1.000	1.600																			1579999790.0	0.23	0.43
26/01/2020 00:49:51	26012020	260120	004951	342.140	12.418832	-57.475892	341.780	0.320	-0.660	1.380	342.140	-1.700	1.800																			1579999791.0	0.49	0.91
26/01/2020 00:49:52	26012020	260120	004952	341.640	12.418837	-57.475893	341.350	0.190	-0.850	1.000	341.640	-2.200	1.600																			1579999792.0	0.98	1.81
26/01/2020 00:49:53	26012020	260120	004953	341.200	12.418840	-57.475898	340.860	-0.070	-0.390	0.570	341.200	-2.000	1.200																			1579999793.0	1.14	2.11
26/01/2020 00:49:54	26012020	260120	004954	340.660	12.418838	-57.475903	340.260	-0.200	0.090	0.150	340.660	-1.400	0.700																			1579999794.0	1.32	2.44
26/01/2020 00:49:55	26012020	260120	004955	340.070	12.418835	-57.475910	339.710	-0.060	0.100	-0.280	340.070	-1.200	0.300																			1579999795.0	1.54	2.85
26/01/2020 00:49:56	26012020	260120	004956	339.650	12.418835	-57.475918	339.210	0.160	-0.140	-0.560	339.560	-1.400	-0.100																			1579999796.0	1.51	2.80
26/01/2020 00:49:57	26012020	260120	004957	339.060	12.418837	-57.475925	338.680	0.170	-0.110	-0.550	339.060	-1.500	-0.200																			1579999797.0	1.45	2.69
26/01/2020 00:49:58	26012020	260120	004958	338.490	12.418838	-57.475928	338.050	-0.070	0.210	-0.290	338.490	-1.300	-0.100																			1579999798.0	1.07	1.98
26/01/2020 00:49:59	26012020	260120	004959	337.840	12.418838	-57.475932	337.450	-0.330	0.320	-0.040	337.840	-1.000	0.200	1015.10	25.20	25.30	21.90	21.80	-1.00	82.00	81.00	390.00	24.80	31.00	5.50	25.00	5.20	14	3528.00	27.50	27.50	1579999799.0	0.54	1.00
26/01/2020 00:50:00	26012020	260120	005000	337.280	12.418838	-57.475933	337.020	-0.370	0.090	0.080	337.280	-1.100	0.400																			1579999800.0	0.46	0.85
26/01/2020 00:50:01	26012020	260120	005001	336.860	12.418838	-57.475937	336.570	-0.170	-0.100	0.330	336.860	-1.400	0.500																			1579999801.0	0.82	1.52
26/01/2020 00:50:02	26012020	260120	005002	336.350	12.418840	-57.475942	335.940	0.100	-0.060	0.800	336.350	-1.400	0.900																			1579999802.0	0.89	1.65
26/01/2020 00:50:03	26012020	260120	005003	335.670	12.418842	-57.475943	335.230	0.270	-0.170	1.200	335.670	-1.400	1.400																			1579999803.0	0.42	0.78
26/01/2020 00:50:04	26012020	260120	005004	334.960	12.418843	-57.475943	334.560	0.310	-0.510	1.320	334.960	-1.700	1.700																			1579999804.0	0.31	0.57
26/01/2020 00:50:05	26012020	260120	005005	334.320	12.418847	-57.475945	333.980	0.240	-0.720	1.110	334.320	-2.000	1.600																			1579999805.0	0.66	1.22
26/01/2020 00:50:06	26012020	260120	005006	333.760	12.418848	-57.475948	333.450	0.080	-0.570	0.650	333.760	-2.000	1.300																			1579999806.0	1.03	1.91
26/01/2020 00:50:07	26012020	260120	005007	333.240	12.418848	-57.475955	332.930	-0.110	-0.220	0.050	333.240	-1.700	0.700																			1579999807.0	1.33	2.46
26/01/2020 00:50:08	26012020	260120	005008	332.830	12.418847	-57.475963	332.410	-0.200	0.110	-0.490	332.730	-1.400	0.100																			1579999808.0	1.71	3.17
26/01/2020 00:50:09	26012020	260120	005009	332.240	12.418845	-57.475972	331.880	-0.120	0.330	-0.720	332.240	-1.100	-0.300																			1579999809.0	1.86	3.44
26/01/2020 00:50:10	26012020	260120	005010	331.670	12.418843	-57.475978	331.230	0.020	0.470	-0.530	331.670	-0.900	-0.300																			1579999810.0	1.54	2.85
26/01/2020 00:50:11	26012020	260120	005011	331.000	12.418843	-57.475983	330.520	0.030	0.430	-0.110	331.000	-0.800	0.000																			1579999811.0	0.86	1.59
26/01/2020 00:50:12	26012020	260120	005012	330.300	12.418845	-57.475985	329.870	-0.110	0.100	0.260	330.300	-1.000	0.500																			1579999812.0	0.48	0.89
26/01/2020 00:50:13	26012020	260120	005013	329.700	12.418848	-57.475987	329.320	-0.230	-0.380	0.490	329.700	-1.500	0.800																			1579999813.0	0.59	1.09
26/01/2020 00:50:14	26012020	260120	005014	329.170	12.418850	-57.475988	328.790	-0.180	-0.650	0.680	329.170	-1.900	1.000																			1579999814.0	0.88	1.63
26/01/2020 00:50:15	26012020	260120	005015	328.630	12.418852	-57.475993	328.220	0.010	-0.630	0.870	328.630	-2.000	1.200																			1579999815.0	1.03	1.91
26/01/2020 00:50:16	26012020	260120	005016	328.020	12.418853	-57.475998	327.590	0.210	-0.440	0.960	328.020	-1.900	1.300																			1579999816.0	0.95	1.76
26/01/2020 00:50:17	26012020	260120	005017	327.390	12.418855	-57.476002	327.010	0.310	-0.200	0.880	327.390	-1.600	1.300																			1579999817.0	0.93	1.72
26/01/2020 00:50:18	26012020	260120	005018	326.840	12.418855	-57.476007	326.490	0.290	0.010	0.750	326.840	-1.400	1.200																			1579999818.0	1.03	1.91
26/01/2020 00:50:19	26012020	260120	005019	326.320	12.418855	-57.476012	325.960	0.170	0.200	0.690	326.320	-1.200	1.100																			1579999819.0	1.10	2.04
26/01/2020 00:50:20	26012020	260120	005020	325.880	12.418855	-57.476017	325.380	-0.010	0.310	0.560	325.770	-1.000	1.000																			1579999820.0	1.01	1.87
26/01/2020 00:50:21	26012020	260120	005021	325.200	12.418857	-57.476022	324.810	-0.180	0.230	0.230	325.200	-1.000	0.800																			1579999821.0	1.00	1.85
26/01/2020 00:50:22	26012020	260120	005022	324.740	12.418857	-57.476027	324.250	-0.310	0.010	-0.200	324.630	-1.200	0.400																			1579999822.0	1.22	2.26
26/01/2020 00:50:23	26012020	260120	005023	324.070	12.418857	-57.476035	323.680	-0.360	-0.190	-0.490	324.070	-1.400	0.000																			1579999823.0	1.58	2.93
26/01/2020 00:50:24	26012020	260120	005024	323.510	12.418855	-57.476043	323.130	-0.320	-0.210	-0.540	323.510	-1.500	-0.200																			1579999824.0	1.72	3.19
26/01/2020 00:50:25	26012020	260120	005025	322.970	12.418855	-57.476050	322.660	-0.210	-0.190	-0.420	322.970	-1.500	-0.100																			1579999825.0	1.46	2.70
26/01/2020 00:50:26	26012020	260120	005026	322.500	12.418855	-57.476055	322.200	-0.030	-0.210	-0.200	322.500	-1.500	0.000																			1579999826.0	1.11	2.06
26/01/2020 00:50:27	26012020	260120	005027	322.040	12.418857	-57.476060	321.740	0.180	-0.280	0.140	322.040	-1.600	0.300																			1579999827.0	1.02	1.89
26/01/2020 00:50:28	26012020	260120	005028	321.540	12.418860	-57.476063	321.230	0.370	-0.350	0.580	321.540	-1.600	0.700																			1579999828.0	1.04	1.93
26/01/2020 00:50:29	26012020	260120	005029	321.020	12.418863	-57.476068	320.710	0.430	-0.380	0.970	321.020	-1.700	1.200																			1579999829.0	1.07	1.98
26/01/2020 00:50:30	26012020	260120	005030	320.520	12.418867	-57.476072	320.230	0.290	-0.260	1.200	320.520	-1.700	1.500																			1579999830.0	1.15	2.13
26/01/2020 00:50:31	26012020	260120	005031	320.010	12.418870	-57.476075	319.700	0.020	0.070	1.270	320.010	-1.400	1.600																			1579999831.0	1.16	2.15
26/01/2020 00:50:32	26012020	260120	005032	319.420	12.418872	-57.476080	319.050	-0.200	0.430	1.150	319.420	-1.000	1.600																			1579999832.0	1.14	2.11
26/01/2020 00:50:33	26012020	260120	005033	318.760	12.418872	-57.476087	318.390	-0.230	0.470	0.810	318.760	-0.800	1.400																			1579999833.0	1.25	2.31
26/01/2020 00:50:34	26012020	260120	005034	318.140	12.418872	-57.476093	317.800	-0.120	0.050	0.310	318.140	-1.000	0.900																			1579999834.0	1.51	2.80
26/01/2020 00:50:35	26012020	260120	005035	317.610	12.418872	-57.476102	317.320	-0.020	-0.480	-0.240	317.610	-1.500	0.400																			1579999835.0	1.90	3.52
26/01/2020 00:50:36	26012020	260120	005036	317.200	12.418873	-57.476113	316.930	-0.070	-0.650	-0.710	317.200	-1.900	-0.100																			1579999836.0	2.18	4.04
26/01/2020 00:50:37	26012020	260120	005037	316.840	12.418873	-57.476122	316.530	-0.240	-0.290	-1.010	316.840	-1.800	-0.500																			1579999837.0	2.06	3.82
26/01/2020 00:50:38	26012020	260120	005038	316.420	12.418873	-57.476130	316.020	-0.330	0.240	-0.990	316.420	-1.300	-0.700																			1579999838.0	1.74	3.22
26/01/2020 00:50:39	26012020	260120	005039	315.890	12.418872	-57.476137	315.460	-0.220	0.400	-0.670	315.890	-0.900	-0.500																			1579999839.0	1.36	2.52
26/01/2020 00:50:40	26012020	260120	005040	315.340	12.418872	-57.476142	314.920	0.020	0.060	-0.210	315.340	-1.000	-0.100																			1579999840.0	1.12	2.07
26/01/2020 00:50:41	26012020	260120	005041	314.830	12.418875	-57.476148	314.460	0.200	-0.370	0.220	314.830	-1.500	0.400																			1579999841.0	1.43	2.65
26/01/2020 00:50:42	26012020	260120	005042	314.420	12.418882	-57.476155	314.100	0.230	-0.510	0.540	314.420	-1.800	0.800																			1579999842.0	1.77	3.28
26/01/2020 00:50:43	26012020	260120	005043	314.050	12.418887	-57.476160	313.730	0.180	-0.400	0.780	314.050	-1.800	1.000																			1579999843.0	1.64	3.04
26/01/2020 00:50:44	26012020	260120	005044	313.740	12.418890	-57.476165	313.340	0.160	-0.270	0.910	313.670	-1.600	1.200																			1579999844.0	1.38	2.56
26/01/2020 00:50:45	26012020	260120	005045	313.280	12.418892	-57.476172	312.960	0.170	-0.150	0.900	313.280	-1.500	1.300																			1579999845.0	1.42	2.63
26/01/2020 00:50:46	26012020	260120	005046	312.950	12.418895	-57.476180	312.540	0.170	0.080	0.750	312.870	-1.400	1.200																			1579999846.0	1.63	3.02
26/01/2020 00:50:47	26012020	260120	005047	312.430	12.418897	-57.476187	312.110	0.110	0.250	0.470	312.430	-1.100	1.000																			1579999847.0	1.70	3.15
26/01/2020 00:50:48	26012020	260120	005048	312.010	12.418898	-57.476195	311.730	0.020	0.180	0.030	312.010	-1.100	0.600																			1579999848.0	1.67	3.09
26/01/2020 00:50:49	26012020	260120	005049	311.670	12.418898	-57.476203	311.430	-0.060	-0.100	-0.500	311.670	-1.300	0.100																			1579999849.0	1.88	3.48
26/01/2020 00:50:50	26012020	260120	005050	311.400	12.418900	-57.476213	311.200	-0.160	-0.290	-0.970	311.400	-1.500	-0.400																			1579999850.0	2.20	4.07
26/01/2020 00:50:51	26012020	260120	005051	311.180	12.418902	-57.476225	310.950	-0.260	-0.180	-1.170	311.180	-1.600	-0.700																			1579999851.0	2.33	4.32
26/01/2020 00:50:52	26012020	260120	005052	310.920	12.418902	-57.476235	310.640	-0.310	0.040	-1.020	310.920	-1.400	-0.800																			1579999852.0	2.01	3.72
26/01/2020 00:50:53	26012020	260120	005053	310.590	12.418903	-57.476242	310.310	-0.270	0.090	-0.620	310.590	-1.200	-0.500																			1579999853.0	1.58	2.93
26/01/2020 00:50:54	26012020	260120	005054	310.230	12.418907	-57.476248	309.960	-0.170	-0.000	-0.090	310.230	-1.300	0.000																			1579999854.0	1.50	2.78
26/01/2020 00:50:55	26012020	260120	005055	309.880	12.418912	-57.476255	309.630	-0.040	-0.130	0.370	309.880	-1.400	0.500																			1579999855.0	1.72	3.19
26/01/2020 00:50:56	26012020	260120	005056	309.560	12.418915	-57.476262	309.350	0.100	-0.210	0.710	309.560	-1.500	0.900																			1579999856.0	1.83	3.39
26/01/2020 00:50:57	26012020	260120	005057	309.280	12.418920	-57.476270	309.080	0.250	-0.290	0.960	309.280	-1.600	1.200																			1579999857.0	1.84	3.41
26/01/2020 00:50:58	26012020	260120	005058	309.070	12.418925	-57.476277	308.840	0.350	-0.360	1.120	309.030	-1.600	1.400																			1579999858.0	1.86	3.44
26/01/2020 00:50:59	26012020	260120	005059	308.810	12.418928	-57.476285	308.630	0.380	-0.370	1.100	308.810	-1.700	1.500	1015.10	25.20	25.30	22.00	21.90	-1.00	82.00	81.00	390.00	24.70	66.00	6.30	34.00	6.20	14	3609.00	27.40	27.50	1579999859.0	1.93	3.57
26/01/2020 00:51:00	26012020	260120	005100	308.620	12.418933	-57.476293	308.470	0.330	-0.300	0.770	308.620	-1.700	1.300																			1579999860.0	1.99	3.69
26/01/2020 00:51:01	26012020	260120	005101	308.480	12.418937	-57.476303	308.260	0.160	-0.110	0.200	308.480	-1.500	0.900																			1579999861.0	2.05	3.80
26/01/2020 00:51:02	26012020	260120	005102	308.250	12.418938	-57.476313	307.940	-0.100	0.170	-0.390	308.250	-1.300	0.300																			1579999862.0	2.15	3.98
26/01/2020 00:51:03	26012020	260120	005103	307.900	12.418938	-57.476323	307.570	-0.300	0.340	-0.900	307.900	-1.000	-0.300																			1579999863.0	2.23	4.13
26/01/2020 00:51:04	26012020	260120	005104	307.530	12.418938	-57.476333	307.230	-0.300	0.280	-1.200	307.530	-1.000	-0.700																			1579999864.0	2.30	4.26
26/01/2020 00:51:05	26012020	260120	005105	307.190	12.418940	-57.476345	306.900	-0.170	0.060	-1.220	307.190	-1.100	-0.900																			1579999865.0	2.31	4.28
26/01/2020 00:51:06	26012020	260120	005106	306.830	12.418943	-57.476355	306.540	-0.070	-0.150	-1.050	306.830	-1.400	-0.800																			1579999866.0	2.29	4.24
26/01/2020 00:51:07	26012020	260120	005107	306.430	12.418948	-57.476365	306.150	-0.080	-0.260	-0.810	306.430	-1.500	-0.600																			1579999867.0	2.20	4.07
26/01/2020 00:51:08	26012020	260120	005108	306.060	12.418952	-57.476373	305.800	-0.120	-0.290	-0.530	306.060	-1.600	-0.300																			1579999868.0	2.06	3.82
26/01/2020 00:51:09	26012020	260120	005109	305.720	12.418957	-57.476382	305.470	-0.110	-0.300	-0.180	305.720	-1.600	-0.000																			1579999869.0	1.99	3.69
26/01/2020 00:51:10	26012020	260120	005110	305.450	12.418962	-57.476390	305.120	-0.040	-0.250	0.180	305.390	-1.600	0.300																			1579999870.0	2.02	3.74
26/01/2020 00:51:11	26012020	260120	005111	305.030	12.418965	-57.476398	304.680	0.090	-0.070	0.600	305.030	-1.500	0.700																			1579999871.0	2.12	3.93
26/01/2020 00:51:12	26012020	260120	005112	304.630	12.418970	-57.476407	304.130	0.210	0.070	0.940	304.520	-1.300	1.100																			1579999872.0	2.05	3.80
26/01/2020 00:51:13	26012020	260120	005113	303.960	12.418975	-57.476415	303.620	0.270	-0.050	1.010	303.960	-1.300	1.400																			1579999873.0	1.97	3.65
26/01/2020 00:51:14	26012020	260120	005114	303.500	12.418980	-57.476423	303.250	0.260	-0.360	0.740	303.500	-1.500	1.200																			1579999874.0	2.14	3.96
26/01/2020 00:51:15	26012020	260120	005115	303.200	12.418985	-57.476435	303.000	0.190	-0.510	0.320	303.200	-1.800	0.900																			1579999875.0	2.47	4.57
26/01/2020 00:51:16	26012020	260120	005116	302.940	12.418988	-57.476447	302.700	0.060	-0.260	-0.090	302.940	-1.700	0.400																			1579999876.0	2.63	4.87
26/01/2020 00:51:17	26012020	260120	005117	302.590	12.418992	-57.476457	302.230	-0.070	0.260	-0.350	302.590	-1.300	0.100																			1579999877.0	2.42	4.48
26/01/2020 00:51:18	26012020	260120	005118	302.040	12.418993	-57.476467	301.560	-0.140	0.600	-0.460	302.040	-0.800	-0.100																			1579999878.0	2.10	3.89
26/01/2020 00:51:19	26012020	260120	005119	301.330	12.418995	-57.476477	300.840	-0.100	0.440	-0.490	301.330	-0.700	-0.100																			1579999879.0	1.95	3.61
26/01/2020 00:51:20	26012020	260120	005120	300.620	12.418998	-57.476487	300.200	-0.020	-0.170	-0.560	300.620	-1.100	-0.200																			1579999880.0	2.18	4.04
26/01/2020 00:51:21	26012020	260120	005121	300.060	12.419003	-57.476497	299.800	-0.000	-0.780	-0.660	300.060	-1.800	-0.300																			1579999881.0	2.63	4.87
26/01/2020 00:51:22	26012020	260120	005122	299.720	12.419008	-57.476510	299.520	-0.110	-0.830	-0.690	299.720	-2.200	-0.400																			1579999882.0	2.88	5.33
26/01/2020 00:51:23	26012020	260120	005123	299.430	12.419012	-57.476522	299.140	-0.260	-0.280	-0.520	299.430	-1.900	-0.300																			1579999883.0	2.65	4.91
26/01/2020 00:51:24	26012020	260120	005124	299.000	12.419015	-57.476532	298.610	-0.310	0.350	-0.190	299.000	-1.200	-0.000																			1579999884.0	2.08	3.85
26/01/2020 00:51:25	26012020	260120	005125	298.400	12.419018	-57.476538	297.990	-0.170	0.440	0.090	298.400	-0.800	0.300																			1579999885.0	1.73	3.20
26/01/2020 00:51:26	26012020	260120	005126	297.780	12.419022	-57.476548	297.360	0.110	0.030	0.370	297.780	-1.000	0.600																			1579999886.0	2.05	3.80
26/01/2020 00:51:27	26012020	260120	005127	297.140	12.419027	-57.476558	296.720	0.390	-0.370	0.750	297.140	-1.500	0.900																			1579999887.0	2.70	5.00
26/01/2020 00:51:28	26012020	260120	005128	296.470	12.419033	-57.476572	296.030	0.510	-0.350	1.160	296.470	-1.700	1.300																			1579999888.0	2.94	5.44
26/01/2020 00:51:29	26012020	260120	005129	295.790	12.419040	-57.476582	295.370	0.410	-0.050	1.330	295.790	-1.500	1.600																			1579999889.0	2.65	4.91
26/01/2020 00:51:30	26012020	260120	005130	295.180	12.419047	-57.476590	294.820	0.110	0.140	0.980	295.180	-1.200	1.500																			1579999890.0	2.24	4.15
26/01/2020 00:51:31	26012020	260120	005131	294.700	12.419052	-57.476600	294.380	-0.190	0.020	0.210	294.700	-1.200	0.900																			1579999891.0	2.10	3.89
26/01/2020 00:51:32	26012020	260120	005132	294.290	12.419052	-57.476612	293.940	-0.330	-0.270	-0.630	294.290	-1.400	0.100																			1579999892.0	2.50	4.63
26/01/2020 00:51:33	26012020	260120	005133	293.820	12.419052	-57.476625	293.360	-0.290	-0.430	-1.170	293.820	-1.700	-0.600																			1579999893.0	3.03	5.61
26/01/2020 00:51:34	26012020	260120	005134	293.340	12.419052	-57.476640	292.660	-0.160	-0.340	-1.310	293.210	-1.700	-0.900																			1579999894.0	3.08	5.70
26/01/2020 00:51:35	26012020	260120	005135	292.470	12.419052	-57.476653	291.900	-0.020	-0.080	-1.080	292.470	-1.500	-0.900																			1579999895.0	2.74	5.07
26/01/2020 00:51:36	26012020	260120	005136	291.720	12.419055	-57.476663	291.180	0.100	0.190	-0.580	291.720	-1.200	-0.500																			1579999896.0	2.43	4.50
26/01/2020 00:51:37	26012020	260120	005137	290.990	12.419062	-57.476673	290.500	0.180	0.280	0.100	290.990	-1.000	0.100																			1579999897.0	2.36	4.37
26/01/2020 00:51:38	26012020	260120	005138	290.280	12.419068	-57.476683	289.820	0.220	0.060	0.680	290.280	-1.100	0.800																			1579999898.0	2.53	4.69
26/01/2020 00:51:39	26012020	260120	005139	289.600	12.419077	-57.476693	289.160	0.150	-0.280	0.970	289.600	-1.400	1.200																			1579999899.0	2.80	5.19
26/01/2020 00:51:40	26012020	260120	005140	288.950	12.419085	-57.476705	288.560	-0.010	-0.440	0.940	288.950	-1.700	1.300																			1579999900.0	2.99	5.54
26/01/2020 00:51:41	26012020	260120	005141	288.370	12.419090	-57.476717	288.030	-0.190	-0.370	0.610	288.370	-1.700	1.100																			1579999901.0	2.87	5.32
26/01/2020 00:51:42	26012020	260120	005142	287.880	12.419092	-57.476730	287.510	-0.300	-0.180	0.180	287.880	-1.600	0.700																			1579999902.0	2.66	4.93
26/01/2020 00:51:43	26012020	260120	005143	287.350	12.419092	-57.476742	286.870	-0.280	0.080	-0.020	287.350	-1.400	0.400																			1579999903.0	2.65	4.91
26/01/2020 00:51:44	26012020	260120	005144	286.640	12.419092	-57.476755	286.030	-0.130	0.300	0.030	286.640	-1.100	0.300																			1579999904.0	2.66	4.93
26/01/2020 00:51:45	26012020	260120	005145	285.750	12.419093	-57.476767	285.100	0.090	0.350	0.200	285.750	-1.000	0.500																			1579999905.0	2.56	4.74
26/01/2020 00:51:46	26012020	260120	005146	284.860	12.419098	-57.476778	284.310	0.300	0.100	0.320	284.860	-1.100	0.600																			1579999906.0	2.60	4.82
26/01/2020 00:51:47	26012020	260120	005147	284.170	12.419103	-57.476790	283.790	0.410	-0.360	0.290	284.170	-1.400	0.600																			1579999907.0	2.83	5.24
26/01/2020 00:51:48	26012020	260120	005148	283.730	12.419108	-57.476805	283.450	0.390	-0.650	0.230	283.730	-1.900	0.600																			1579999908.0	3.08	5.70
26/01/2020 00:51:49	26012020	260120	005149	283.390	12.419112	-57.476818	283.080	0.240	-0.530	0.230	283.390	-1.900	0.600																			1579999909.0	3.14	5.82
26/01/2020 00:51:50	26012020	260120	005150	282.980	12.419115	-57.476832	282.650	0.030	-0.170	0.260	282.980	-1.700	0.600																			1579999910.0	2.85	5.28
26/01/2020 00:51:51	26012020	260120	005151	282.520	12.419120	-57.476843	282.170	-0.200	0.100	0.280	282.520	-1.300	0.600																			1579999911.0	2.57	4.76
26/01/2020 00:51:52	26012020	260120	005152	282.040	12.419123	-57.476855	281.700	-0.400	0.140	0.250	282.040	-1.200	0.600																			1579999912.0	2.59	4.80
26/01/2020 00:51:53	26012020	260120	005153	281.560	12.419125	-57.476868	281.220	-0.480	-0.020	0.190	281.560	-1.200	0.600																			1579999913.0	2.82	5.22
26/01/2020 00:51:54	26012020	260120	005154	281.090	12.419127	-57.476883	280.780	-0.360	-0.180	0.160	281.090	-1.400	0.500																			1579999914.0	3.12	5.78
26/01/2020 00:51:55	26012020	260120	005155	280.660	12.419128	-57.476898	280.360	-0.090	-0.180	0.220	280.660	-1.500	0.500																			1579999915.0	3.25	6.02
26/01/2020 00:51:56	26012020	260120	005156	280.260	12.419130	-57.476913	279.970	0.200	-0.030	0.430	280.260	-1.400	0.600																			1579999916.0	3.18	5.89
26/01/2020 00:51:57	26012020	260120	005157	279.870	12.419133	-57.476927	279.610	0.340	0.160	0.750	279.870	-1.200	0.900																			1579999917.0	3.01	5.57
26/01/2020 00:51:58	26012020	260120	005158	279.480	12.419138	-57.476940	279.220	0.320	0.250	1.050	279.480	-1.100	1.200																			1579999918.0	2.94	5.44
26/01/2020 00:51:59	26012020	260120	005159	279.060	12.419143	-57.476952	278.780	0.180	0.190	1.140	279.060	-1.100	1.500	1015.10	25.20	25.20	21.60	21.60	-1.00	80.00	80.00	390.00	24.70	89.00	5.90	36.00	6.10	14	3596.00	27.40	27.40	1579999919.0	2.96	5.48
26/01/2020 00:52:00	26012020	260120	005200	278.690	12.419148	-57.476967	278.330	0.010	-0.020	0.980	278.600	-1.200	1.400																			1579999920.0	3.01	5.57
26/01/2020 00:52:01	26012020	260120	005201	278.190	12.419152	-57.476980	278.030	-0.110	-0.380	0.530	278.190	-1.500	1.100																			1579999921.0	3.10	5.74
26/01/2020 00:52:02	26012020	260120	005202	277.990	12.419152	-57.476995	277.930	-0.160	-0.760	-0.100	277.960	-1.900	0.600																			1579999922.0	3.24	6.00
26/01/2020 00:52:03	26012020	260120	005203	277.920	12.419152	-57.477012	277.910	-0.120	-0.820	-0.660	277.920	-2.200	-0.100																			1579999923.0	3.50	6.48
26/01/2020 00:52:04	26012020	260120	005204	277.870	12.419150	-57.477028	277.790	-0.050	-0.470	-0.920	277.870	-2.000	-0.500																			1579999924.0	3.49	6.46
26/01/2020 00:52:05	26012020	260120	005205	277.710	12.419150	-57.477043	277.560	0.010	0.040	-0.810	277.710	-1.500	-0.600																			1579999925.0	3.22	5.96
26/01/2020 00:52:06	26012020	260120	005206	277.450	12.419150	-57.477058	277.230	0.040	0.440	-0.340	277.450	-1.100	-0.300																			1579999926.0	2.99	5.54
26/01/2020 00:52:07	26012020	260120	005207	277.060	12.419153	-57.477072	276.800	0.010	0.620	0.350	277.060	-0.700	0.300																			1579999927.0	3.07	5.69
26/01/2020 00:52:08	26012020	260120	005208	276.600	12.419160	-57.477087	276.360	-0.050	0.500	0.990	276.600	-0.700	1.000																			1579999928.0	3.32	6.15
26/01/2020 00:52:09	26012020	260120	005209	276.190	12.419167	-57.477102	276.040	-0.080	0.100	1.340	276.190	-1.000	1.500																			1579999929.0	3.52	6.52
26/01/2020 00:52:10	26012020	260120	005210	275.920	12.419172	-57.477118	275.880	-0.060	-0.420	1.290	275.920	-1.500	1.700																			1579999930.0	3.62	6.70
26/01/2020 00:52:11	26012020	260120	005211	275.790	12.419175	-57.477135	275.810	-0.030	-0.760	0.920	275.790	-1.900	1.400																			1579999931.0	3.70	6.85
26/01/2020 00:52:12	26012020	260120	005212	275.750	12.419175	-57.477153	275.790	-0.040	-0.770	0.490	275.750	-2.100	1.000																			1579999932.0	3.71	6.87
26/01/2020 00:52:13	26012020	260120	005213	275.750	12.419175	-57.477170	275.790	-0.060	-0.470	0.170	275.750	-2.000	0.600																			1579999933.0	3.56	6.59
26/01/2020 00:52:14	26012020	260120	005214	275.750	12.419173	-57.477185	275.730	-0.060	0.050	0.090	275.750	-1.500	0.400																			1579999934.0	3.38	6.26
26/01/2020 00:52:15	26012020	260120	005215	275.670	12.419173	-57.477200	275.600	0.000	0.490	0.250	275.670	-1.000	0.500																			1579999935.0	3.19	5.91
26/01/2020 00:52:16	26012020	260120	005216	275.530	12.419175	-57.477215	275.480	0.120	0.560	0.480	275.530	-0.700	0.700																			1579999936.0	3.13	5.80
26/01/2020 00:52:17	26012020	260120	005217	275.420	12.419178	-57.477232	275.450	0.240	0.220	0.580	275.420	-0.900	0.900																			1579999937.0	3.36	6.22
26/01/2020 00:52:18	26012020	260120	005218	275.430	12.419182	-57.477248	275.520	0.270	-0.250	0.570	275.430	-1.300	0.900																			1579999938.0	3.72	6.89
26/01/2020 00:52:19	26012020	260120	005219	275.520	12.419185	-57.477267	275.620	0.140	-0.540	0.530	275.520	-1.800	0.900																			1579999939.0	3.95	7.32
26/01/2020 00:52:20	26012020	260120	005220	275.600	12.419187	-57.477285	275.670	-0.080	-0.490	0.500	275.600	-1.900	0.900																			1579999940.0	3.86	7.15
26/01/2020 00:52:21	26012020	260120	005221	275.660	12.419188	-57.477302	275.740	-0.260	-0.210	0.390	275.660	-1.700	0.800																			1579999941.0	3.58	6.63
26/01/2020 00:52:22	26012020	260120	005222	275.750	12.419188	-57.477317	275.870	-0.290	-0.020	0.170	275.750	-1.400	0.600																			1579999942.0	3.33	6.17
26/01/2020 00:52:23	26012020	260120	005223	275.910	12.419188	-57.477333	276.010	-0.170	-0.060	-0.050	275.910	-1.300	0.400																			1579999943.0	3.38	6.26
26/01/2020 00:52:24	26012020	260120	005224	276.020	12.419188	-57.477352	276.130	-0.040	-0.210	-0.140	276.050	-1.400	0.200																			1579999944.0	3.70	6.85
26/01/2020 00:52:25	26012020	260120	005225	276.170	12.419188	-57.477370	276.250	0.010	-0.280	-0.110	276.170	-1.600	0.200																			1579999945.0	3.94	7.30
26/01/2020 00:52:26	26012020	260120	005226	276.270	12.419192	-57.477388	276.410	-0.020	-0.180	-0.070	276.300	-1.600	0.300																			1579999946.0	4.00	7.41
26/01/2020 00:52:27	26012020	260120	005227	276.460	12.419193	-57.477407	276.540	-0.020	0.050	0.010	276.460	-1.400	0.300																			1579999947.0	3.88	7.19
26/01/2020 00:52:28	26012020	260120	005228	276.540	12.419195	-57.477423	276.520	0.030	0.270	0.210	276.540	-1.100	0.400																			1579999948.0	3.70	6.85
26/01/2020 00:52:29	26012020	260120	005229	276.450	12.419197	-57.477442	276.350	0.090	0.320	0.490	276.450	-1.000	0.700																			1579999949.0	3.64	6.74
26/01/2020 00:52:30	26012020	260120	005230	276.240	12.419200	-57.477458	276.140	0.100	0.160	0.660	276.240	-1.100	0.900																			1579999950.0	3.74	6.93
26/01/2020 00:52:31	26012020	260120	005231	276.070	12.419203	-57.477477	276.050	0.080	-0.120	0.490	276.070	-1.300	1.000																			1579999951.0	3.91	7.24
26/01/2020 00:52:32	26012020	260120	005232	276.070	12.419207	-57.477495	276.140	0.060	-0.420	0.030	276.070	-1.600	0.600																			1579999952.0	4.02	7.45
26/01/2020 00:52:33	26012020	260120	005233	276.200	12.419207	-57.477515	276.280	0.030	-0.540	-0.420	276.200	-1.800	0.100																			1579999953.0	4.08	7.56
26/01/2020 00:52:34	26012020	260120	005234	276.340	12.419207	-57.477533	276.360	-0.060	-0.390	-0.660	276.340	-1.800	-0.200																			1579999954.0	4.08	7.56
26/01/2020 00:52:35	26012020	260120	005235	276.400	12.419205	-57.477553	276.390	-0.170	-0.130	-0.690	276.400	-1.600	-0.400																			1579999955.0	3.91	7.24
26/01/2020 00:52:36	26012020	260120	005236	276.390	12.419205	-57.477570	276.340	-0.210	0.040	-0.550	276.390	-1.300	-0.300																			1579999956.0	3.75	6.95
26/01/2020 00:52:37	26012020	260120	005237	276.320	12.419207	-57.477588	276.250	-0.130	-0.010	-0.300	276.320	-1.300	-0.100																			1579999957.0	3.82	7.07
26/01/2020 00:52:38	26012020	260120	005238	276.230	12.419210	-57.477607	276.110	-0.010	-0.160	-0.040	276.210	-1.400	0.200																			1579999958.0	4.07	7.54
26/01/2020 00:52:39	26012020	260120	005239	276.070	12.419213	-57.477627	275.990	0.070	-0.190	0.170	276.070	-1.500	0.400																			1579999959.0	4.31	7.98
26/01/2020 00:52:40	26012020	260120	005240	275.950	12.419217	-57.477648	275.900	0.070	-0.070	0.400	275.950	-1.500	0.600																			1579999960.0	4.32	8.00
26/01/2020 00:52:41	26012020	260120	005241	275.840	12.419220	-57.477667	275.790	0.020	0.060	0.680	275.840	-1.300	0.900																			1579999961.0	4.13	7.65
26/01/2020 00:52:42	26012020	260120	005242	275.720	12.419223	-57.477685	275.680	0.000	0.070	0.860	275.720	-1.200	1.100																			1579999962.0	4.02	7.45
26/01/2020 00:52:43	26012020	260120	005243	275.610	12.419225	-57.477705	275.580	0.040	-0.040	0.770	275.610	-1.300	1.200																			1579999963.0	4.10	7.59
26/01/2020 00:52:44	26012020	260120	005244	275.540	12.419228	-57.477725	275.520	0.110	-0.160	0.430	275.540	-1.400	1.000																			1579999964.0	4.24	7.85
26/01/2020 00:52:45	26012020	260120	005245	275.470	12.419228	-57.477745	275.390	0.110	-0.260	0.060	275.470	-1.500	0.600																			1579999965.0	4.30	7.96
26/01/2020 00:52:46	26012020	260120	005246	275.310	12.419228	-57.477765	275.140	0.040	-0.230	-0.110	275.310	-1.600	0.300																			1579999966.0	4.35	8.06
26/01/2020 00:52:47	26012020	260120	005247	275.030	12.419228	-57.477787	274.870	-0.080	-0.040	-0.070	275.030	-1.500	0.200																			1579999967.0	4.31	7.98
26/01/2020 00:52:48	26012020	260120	005248	274.790	12.419230	-57.477805	274.730	-0.160	0.170	-0.020	274.790	-1.200	0.300																			1579999968.0	4.18	7.74
26/01/2020 00:52:49	26012020	260120	005249	274.680	12.419232	-57.477825	274.690	-0.160	0.190	-0.080	274.680	-1.100	0.300																			1579999969.0	4.06	7.52
26/01/2020 00:52:50	26012020	260120	005250	274.660	12.419233	-57.477845	274.680	-0.050	-0.040	-0.220	274.660	-1.200	0.200																			1579999970.0	4.13	7.65
26/01/2020 00:52:51	26012020	260120	005251	274.650	12.419235	-57.477865	274.640	0.100	-0.410	-0.260	274.650	-1.500	0.100																			1579999971.0	4.35	8.06
26/01/2020 00:52:52	26012020	260120	005252	274.610	12.419237	-57.477887	274.570	0.160	-0.670	-0.100	274.590	-1.900	0.100																			1579999972.0	4.59	8.50
26/01/2020 00:52:53	26012020	260120	005253	274.510	12.419238	-57.477908	274.500	0.090	-0.630	0.210	274.510	-2.000	0.400																			1579999973.0	4.68	8.67
26/01/2020 00:52:54	26012020	260120	005254	274.460	12.419240	-57.477930	274.480	-0.020	-0.250	0.540	274.460	-1.800	0.700																			1579999974.0	4.59	8.50
26/01/2020 00:52:55	26012020	260120	005255	274.430	12.419243	-57.477950	274.430	-0.070	0.270	0.810	274.430	-1.300	1.000																			1579999975.0	4.35	8.06
26/01/2020 00:52:56	26012020	260120	005256	274.330	12.419247	-57.477970	274.220	-0.060	0.590	1.020	274.330	-0.900	1.300																			1579999976.0	4.18	7.74
26/01/2020 00:52:57	26012020	260120	005257	274.070	12.419250	-57.477990	273.920	0.000	0.490	1.020	274.070	-0.700	1.400																			1579999977.0	4.21	7.80
26/01/2020 00:52:58	26012020	260120	005258	273.790	12.419253	-57.478010	273.710	0.050	0.050	0.700	273.790	-1.000	1.200																			1579999978.0	4.47	8.28
26/01/2020 00:52:59	26012020	260120	005259	273.650	12.419253	-57.478033	273.650	0.030	-0.440	0.190	273.650	-1.500	0.800	1015.20	25.20	25.30	21.70	21.70	-1.00	81.00	80.00	390.00	24.70	100.00	5.60	34.00	6.30	14	3464.00	27.40	27.40	1579999979.0	4.79	8.87
26/01/2020 00:53:00	26012020	260120	005300	273.630	12.419253	-57.478057	273.660	-0.070	-0.680	-0.270	273.630	-1.900	0.300																			1579999980.0	4.96	9.19
26/01/2020 00:53:01	26012020	260120	005301	273.640	12.419252	-57.478080	273.640	-0.140	-0.600	-0.560	273.640	-2.000	-0.100																			1579999981.0	4.87	9.02
26/01/2020 00:53:02	26012020	260120	005302	273.600	12.419250	-57.478102	273.580	-0.080	-0.280	-0.710	273.600	-1.800	-0.300																			1579999982.0	4.61	8.54
26/01/2020 00:53:03	26012020	260120	005303	273.530	12.419250	-57.478123	273.490	0.070	0.080	-0.730	273.530	-1.400	-0.400																			1579999983.0	4.44	8.22
26/01/2020 00:53:04	26012020	260120	005304	273.450	12.419252	-57.478143	273.400	0.200	0.300	-0.550	273.450	-1.100	-0.300																			1579999984.0	4.40	8.15
26/01/2020 00:53:05	26012020	260120	005305	273.340	12.419253	-57.478165	273.260	0.210	0.270	-0.120	273.340	-1.000	-0.000																			1579999985.0	4.48	8.30
26/01/2020 00:53:06	26012020	260120	005306	273.170	12.419257	-57.478187	273.030	0.130	0.080	0.480	273.170	-1.100	0.500																			1579999986.0	4.69	8.69
26/01/2020 00:53:07	26012020	260120	005307	272.880	12.419260	-57.478210	272.710	0.040	-0.130	1.010	272.880	-1.400	1.100																			1579999987.0	4.91	9.09
26/01/2020 00:53:08	26012020	260120	005308	272.550	12.419265	-57.478232	272.430	-0.020	-0.260	1.170	272.550	-1.500	1.500																			1579999988.0	4.96	9.19
26/01/2020 00:53:09	26012020	260120	005309	272.320	12.419268	-57.478255	272.260	-0.050	-0.280	0.990	272.320	-1.600	1.400																			1579999989.0	4.85	8.98
26/01/2020 00:53:10	26012020	260120	005310	272.160	12.419270	-57.478277	272.110	-0.070	-0.260	0.710	272.160	-1.600	1.200																			1579999990.0	4.73	8.76
26/01/2020 00:53:11	26012020	260120	005311	272.020	12.419270	-57.478300	272.010	-0.050	-0.290	0.430	272.020	-1.600	0.900																			1579999991.0	4.67	8.65
26/01/2020 00:53:12	26012020	260120	005312	271.960	12.419268	-57.478322	272.020	0.020	-0.360	0.080	271.960	-1.600	0.600																			1579999992.0	4.75	8.80
26/01/2020 00:53:13	26012020	260120	005313	272.020	12.419268	-57.478345	272.100	0.070	-0.390	-0.280	272.020	-1.700	0.200																			1579999993.0	4.91	9.09
26/01/2020 00:53:14	26012020	260120	005314	272.090	12.419267	-57.478368	272.110	0.050	-0.270	-0.500	272.090	-1.700	-0.100																			1579999994.0	5.02	9.30
26/01/2020 00:53:15	26012020	260120	005315	272.070	12.419267	-57.478393	272.000	-0.020	0.010	-0.480	272.070	-1.500	-0.200																			1579999995.0	5.02	9.30
26/01/2020 00:53:16	26012020	260120	005316	271.960	12.419268	-57.478415	271.780	-0.100	0.360	-0.220	271.930	-1.100	-0.000																			1579999996.0	4.92	9.11
26/01/2020 00:53:17	26012020	260120	005317	271.630	12.419270	-57.478438	271.390	-0.140	0.570	0.180	271.630	-0.800	0.300																			1579999997.0	4.79	8.87
26/01/2020 00:53:18	26012020	260120	005318	271.210	12.419272	-57.478460	270.920	-0.080	0.400	0.590	271.210	-0.800	0.700																			1579999998.0	4.75	8.80
26/01/2020 00:53:19	26012020	260120	005319	270.760	12.419275	-57.478483	270.540	0.070	-0.080	0.840	270.760	-1.100	1.100																			1579999999.0	4.90	9.07
26/01/2020 00:53:20	26012020	260120	005320	270.450	12.419278	-57.478508	270.320	0.200	-0.520	0.860	270.450	-1.600	1.200																			1580000000.0	5.20	9.63
26/01/2020 00:53:21	26012020	260120	005321	270.290	12.419280	-57.478533	270.230	0.180	-0.590	0.680	270.290	-1.900	1.100																			1580000001.0	5.32	9.85
26/01/2020 00:53:22	26012020	260120	005322	270.250	12.419280	-57.478557	270.260	0.030	-0.360	0.360	270.250	-1.800	0.900																			1580000002.0	5.09	9.43
26/01/2020 00:53:23	26012020	260120	005323	270.310	12.419280	-57.478580	270.330	-0.150	-0.190	0.020	270.310	-1.600	0.500																			1580000003.0	4.77	8.83
26/01/2020 00:53:24	26012020	260120	005324	270.350	12.419278	-57.478602	270.310	-0.200	-0.230	-0.200	270.350	-1.500	0.200																			1580000004.0	4.75	8.80
26/01/2020 00:53:25	26012020	260120	005325	270.290	12.419277	-57.478627	270.140	-0.090	-0.400	-0.220	270.290	-1.600	0.100																			1580000005.0	5.04	9.33
26/01/2020 00:53:26	26012020	260120	005326	270.090	12.419277	-57.478652	269.880	0.080	-0.400	-0.040	270.090	-1.800	0.200																			1580000006.0	5.36	9.93
26/01/2020 00:53:27	26012020	260120	005327	269.790	12.419277	-57.478677	269.560	0.160	-0.100	0.260	269.790	-1.600	0.400																			1580000007.0	5.43	10.06
26/01/2020 00:53:28	26012020	260120	005328	269.450	12.419278	-57.478702	269.220	0.100	0.360	0.550	269.450	-1.200	0.800																			1580000008.0	5.21	9.65
26/01/2020 00:53:29	26012020	260120	005329	269.110	12.419282	-57.478725	268.890	-0.020	0.640	0.720	269.110	-0.800	1.000																			1580000009.0	4.95	9.17
26/01/2020 00:53:30	26012020	260120	005330	268.780	12.419283	-57.478748	268.580	-0.080	0.490	0.700	268.780	-0.700	1.100																			1580000010.0	4.88	9.04
26/01/2020 00:53:31	26012020	260120	005331	268.500	12.419285	-57.478772	268.300	-0.040	0.050	0.540	268.500	-1.000	1.000																			1580000011.0	5.10	9.45
26/01/2020 00:53:32	26012020	260120	005332	268.230	12.419285	-57.478798	268.050	0.020	-0.380	0.300	268.230	-1.500	0.800																			1580000012.0	5.42	10.04
26/01/2020 00:53:33	26012020	260120	005333	268.010	12.419283	-57.478823	267.870	0.020	-0.590	-0.010	268.010	-1.800	0.500																			1580000013.0	5.51	10.20
26/01/2020 00:53:34	26012020	260120	005334	267.870	12.419283	-57.478848	267.760	-0.060	-0.620	-0.330	267.870	-1.900	0.200																			1580000014.0	5.34	9.89
26/01/2020 00:53:35	26012020	260120	005335	267.760	12.419280	-57.478873	267.600	-0.120	-0.580	-0.500	267.760	-1.900	-0.100																			1580000015.0	5.15	9.54
26/01/2020 00:53:36	26012020	260120	005336	267.580	12.419278	-57.478898	267.370	-0.090	-0.450	-0.420	267.580	-1.900	-0.200																			1580000016.0	5.15	9.54
26/01/2020 00:53:37	26012020	260120	005337	267.310	12.419277	-57.478922	267.100	0.030	-0.190	-0.090	267.310	-1.700	0.100																			1580000017.0	5.25	9.72
26/01/2020 00:53:38	26012020	260120	005338	267.020	12.419277	-57.478948	266.810	0.140	0.120	0.380	267.020	-1.400	0.500																			1580000018.0	5.30	9.82
26/01/2020 00:53:39	26012020	260120	005339	266.710	12.419280	-57.478973	266.470	0.170	0.350	0.880	266.710	-1.100	1.000																			1580000019.0	5.31	9.83
26/01/2020 00:53:40	26012020	260120	005340	266.430	12.419283	-57.478998	266.090	0.080	0.370	1.230	266.360	-0.900	1.400																			1580000020.0	5.36	9.93
26/01/2020 00:53:41	26012020	260120	005341	265.960	12.419285	-57.479023	265.710	-0.070	0.280	1.310	265.960	-1.000	1.600																			1580000021.0	5.47	10.13
26/01/2020 00:53:42	26012020	260120	005342	265.660	12.419287	-57.479050	265.390	-0.160	0.150	1.090	265.590	-1.100	1.600																			1580000022.0	5.48	10.15
26/01/2020 00:53:43	26012020	260120	005343	265.260	12.419285	-57.479075	265.090	-0.110	-0.070	0.660	265.260	-1.300	1.200																			1580000023.0	5.39	9.98
26/01/2020 00:53:44	26012020	260120	005344	264.970	12.419283	-57.479100	264.800	0.050	-0.340	0.180	264.970	-1.500	0.800																			1580000024.0	5.36	9.93
26/01/2020 00:53:45	26012020	260120	005345	264.710	12.419278	-57.479125	264.570	0.180	-0.570	-0.200	264.710	-1.800	0.300																			1580000025.0	5.45	10.09
26/01/2020 00:53:46	26012020	260120	005346	264.490	12.419275	-57.479152	264.380	0.190	-0.690	-0.430	264.490	-2.000	0.000																			1580000026.0	5.49	10.17
26/01/2020 00:53:47	26012020	260120	005347	264.320	12.419273	-57.479177	264.200	0.090	-0.650	-0.500	264.320	-2.000	-0.200																			1580000027.0	5.46	10.11
26/01/2020 00:53:48	26012020	260120	005348	264.130	12.419272	-57.479203	263.990	-0.060	-0.340	-0.370	264.130	-1.800	-0.100																			1580000028.0	5.49	10.17
26/01/2020 00:53:49	26012020	260120	005349	263.900	12.419270	-57.479228	263.750	-0.220	0.080	-0.040	263.900	-1.400	0.100																			1580000029.0	5.44	10.07
26/01/2020 00:53:50	26012020	260120	005350	263.650	12.419270	-57.479253	263.480	-0.280	0.300	0.480	263.650	-1.100	0.500																			1580000030.0	5.31	9.83
26/01/2020 00:53:51	26012020	260120	005351	263.340	12.419270	-57.479280	263.190	-0.170	0.290	1.110	263.340	-1.000	1.100																			1580000031.0	5.39	9.98
26/01/2020 00:53:52	26012020	260120	005352	263.060	12.419272	-57.479307	263.000	0.050	0.270	1.650	263.060	-1.000	1.700																			1580000032.0	5.69	10.54
26/01/2020 00:53:53	26012020	260120	005353	262.930	12.419273	-57.479333	262.960	0.180	0.260	1.940	262.930	-1.100	2.200																			1580000033.0	5.78	10.70
26/01/2020 00:53:54	26012020	260120	005354	262.930	12.419273	-57.479360	262.990	0.150	0.140	1.960	262.930	-1.100	2.300																			1580000034.0	5.59	10.35
26/01/2020 00:53:55	26012020	260120	005355	262.930	12.419273	-57.479385	262.940	0.050	-0.170	1.680	262.930	-1.300	2.200																			1580000035.0	5.44	10.07
26/01/2020 00:53:56	26012020	260120	005356	262.860	12.419270	-57.479412	262.870	0.010	-0.550	1.130	262.860	-1.700	1.800																			1580000036.0	5.51	10.20
26/01/2020 00:53:57	26012020	260120	005357	262.810	12.419265	-57.479438	262.880	0.060	-0.780	0.360	262.810	-2.000	1.100																			1580000037.0	5.67	10.50
26/01/2020 00:53:58	26012020	260120	005358	262.910	12.419260	-57.479465	263.060	0.090	-0.740	-0.480	262.910	-2.100	0.300																			1580000038.0	5.74	10.63
26/01/2020 00:53:59	26012020	260120	005359	263.150	12.419253	-57.479490	263.290	0.060	-0.450	-1.140	263.150	-1.900	-0.500	1015.20	25.30	25.40	22.00	21.90	-1.00	81.00	81.00	390.00	24.70	99.00	5.20	32.00	6.10	14	3599.00	27.40	27.40	1580000039.0	5.66	10.48
26/01/2020 00:54:00	26012020	260120	005400	263.340	12.419247	-57.479517	263.380	-0.020	-0.020	-1.430	263.340	-1.600	-1.000																			1580000040.0	5.53	10.24
26/01/2020 00:54:01	26012020	260120	005401	263.370	12.419242	-57.479542	263.290	-0.100	0.380	-1.270	263.370	-1.100	-1.100																			1580000041.0	5.44	10.07
26/01/2020 00:54:02	26012020	260120	005402	263.220	12.419240	-57.479567	263.070	-0.140	0.540	-0.780	263.220	-0.800	-0.700																			1580000042.0	5.42	10.04
26/01/2020 00:54:03	26012020	260120	005403	262.970	12.419240	-57.479593	262.810	-0.130	0.400	-0.160	262.970	-0.800	-0.100																			1580000043.0	5.55	10.28
26/01/2020 00:54:04	26012020	260120	005404	262.730	12.419240	-57.479620	262.600	-0.070	0.070	0.330	262.730	-1.100	0.500																			1580000044.0	5.81	10.76
26/01/2020 00:54:05	26012020	260120	005405	262.550	12.419242	-57.479648	262.470	-0.020	-0.320	0.570	262.550	-1.400	0.800																			1580000045.0	5.96	11.04
26/01/2020 00:54:06	26012020	260120	005406	262.450	12.419242	-57.479677	262.380	-0.010	-0.640	0.650	262.430	-1.800	1.000																			1580000046.0	5.93	10.98
26/01/2020 00:54:07	26012020	260120	005407	262.350	12.419238	-57.479705	262.330	-0.060	-0.750	0.620	262.350	-2.100	1.000																			1580000047.0	5.89	10.91
26/01/2020 00:54:08	26012020	260120	005408	262.310	12.419235	-57.479732	262.300	-0.120	-0.480	0.600	262.310	-2.000	0.900																			1580000048.0	5.82	10.78
26/01/2020 00:54:09	26012020	260120	005409	262.260	12.419232	-57.479758	262.180	-0.100	0.000	0.660	262.260	-1.600	1.000																			1580000049.0	5.63	10.43
26/01/2020 00:54:10	26012020	260120	005410	262.100	12.419230	-57.479783	261.970	0.040	0.300	0.790	262.100	-1.100	1.100																			1580000050.0	5.40	10.00
26/01/2020 00:54:11	26012020	260120	005411	261.870	12.419228	-57.479810	261.750	0.210	0.210	0.830	261.870	-1.000	1.200																			1580000051.0	5.46	10.11
26/01/2020 00:54:12	26012020	260120	005412	261.660	12.419227	-57.479837	261.570	0.280	-0.080	0.770	261.660	-1.200	1.100																			1580000052.0	5.83	10.80
26/01/2020 00:54:13	26012020	260120	005413	261.500	12.419223	-57.479865	261.430	0.190	-0.280	0.670	261.500	-1.500	1.100																			1580000053.0	6.13	11.35
26/01/2020 00:54:14	26012020	260120	005414	261.370	12.419222	-57.479895	261.320	-0.020	-0.220	0.490	261.370	-1.600	0.900																			1580000054.0	6.12	11.33
26/01/2020 00:54:15	26012020	260120	005415	261.300	12.419218	-57.479922	261.330	-0.250	0.010	0.150	261.300	-1.400	0.700																			1580000055.0	5.88	10.89
26/01/2020 00:54:16	26012020	260120	005416	261.350	12.419215	-57.479948	261.410	-0.370	0.120	-0.190	261.350	-1.200	0.300																			1580000056.0	5.59	10.35
26/01/2020 00:54:17	26012020	260120	005417	261.420	12.419208	-57.479973	261.420	-0.290	-0.040	-0.300	261.420	-1.300	0.100																			1580000057.0	5.55	10.28
26/01/2020 00:54:18	26012020	260120	005418	261.400	12.419203	-57.480000	261.380	-0.090	-0.310	-0.160	261.390	-1.500	0.100																			1580000058.0	5.78	10.70
26/01/2020 00:54:19	26012020	260120	005419	261.340	12.419198	-57.480028	261.400	0.100	-0.430	0.090	261.340	-1.700	0.300																			1580000059.0	6.05	11.20
26/01/2020 00:54:20	26012020	260120	005420	261.420	12.419195	-57.480058	261.570	0.240	-0.330	0.360	261.420	-1.700	0.600																			1580000060.0	6.07	11.24
26/01/2020 00:54:21	26012020	260120	005421	261.610	12.419193	-57.480085	261.740	0.330	-0.200	0.680	261.610	-1.600	0.900																			1580000061.0	5.89	10.91
26/01/2020 00:54:22	26012020	260120	005422	261.730	12.419193	-57.480113	261.770	0.360	-0.130	1.040	261.730	-1.500	1.200																			1580000062.0	5.81	10.76
26/01/2020 00:54:23	26012020	260120	005423	261.700	12.419193	-57.480142	261.660	0.250	-0.040	1.260	261.700	-1.400	1.500																			1580000063.0	5.93	10.98
26/01/2020 00:54:24	26012020	260120	005424	261.580	12.419192	-57.480170	261.580	0.040	0.120	1.230	261.580	-1.300	1.600																			1580000064.0	6.00	11.11
26/01/2020 00:54:25	26012020	260120	005425	261.530	12.419190	-57.480197	261.600	-0.170	0.190	0.890	261.530	-1.100	1.400																			1580000065.0	5.90	10.93
26/01/2020 00:54:26	26012020	260120	005426	261.590	12.419187	-57.480225	261.680	-0.290	0.020	0.330	261.590	-1.200	1.000																			1580000066.0	5.84	10.82
26/01/2020 00:54:27	26012020	260120	005427	261.700	12.419180	-57.480252	261.780	-0.320	-0.300	-0.320	261.700	-1.500	0.300																			1580000067.0	5.98	11.07
26/01/2020 00:54:28	26012020	260120	005428	261.780	12.419173	-57.480280	261.830	-0.330	-0.480	-0.840	261.780	-1.800	-0.300																			1580000068.0	6.24	11.56
26/01/2020 00:54:29	26012020	260120	005429	261.810	12.419165	-57.480310	261.800	-0.330	-0.330	-1.100	261.810	-1.800	-0.700																			1580000069.0	6.30	11.67
26/01/2020 00:54:30	26012020	260120	005430	261.770	12.419158	-57.480337	261.720	-0.270	0.010	-1.020	261.770	-1.500	-0.700																			1580000070.0	6.04	11.19
26/01/2020 00:54:31	26012020	260120	005431	261.710	12.419153	-57.480363	261.710	-0.080	0.130	-0.710	261.710	-1.200	-0.500																			1580000071.0	5.73	10.61
26/01/2020 00:54:32	26012020	260120	005432	261.720	12.419150	-57.480392	261.820	0.210	-0.110	-0.230	261.740	-1.300	-0.100																			1580000072.0	5.76	10.67
26/01/2020 00:54:33	26012020	260120	005433	261.860	12.419148	-57.480420	262.000	0.450	-0.400	0.380	261.860	-1.600	0.400																			1580000073.0	6.19	11.46
26/01/2020 00:54:34	26012020	260120	005434	262.030	12.419148	-57.480452	262.140	0.510	-0.390	1.060	262.030	-1.800	1.100																			1580000074.0	6.53	12.09
26/01/2020 00:54:35	26012020	260120	005435	262.110	12.419150	-57.480482	262.120	0.400	-0.110	1.690	262.110	-1.600	1.700																			1580000075.0	6.42	11.89
26/01/2020 00:54:36	26012020	260120	005436	262.030	12.419152	-57.480510	261.970	0.210	0.170	2.020	262.030	-1.300	2.200																			1580000076.0	6.10	11.30
26/01/2020 00:54:37	26012020	260120	005437	261.870	12.419152	-57.480538	261.840	0.020	0.240	1.920	261.870	-1.100	2.400																			1580000077.0	5.92	10.96
26/01/2020 00:54:38	26012020	260120	005438	261.770	12.419150	-57.480567	261.820	-0.170	0.110	1.310	261.770	-1.100	2.000																			1580000078.0	6.00	11.11
26/01/2020 00:54:39	26012020	260120	005439	261.830	12.419143	-57.480595	261.950	-0.320	-0.100	0.290	261.830	-1.300	1.200																			1580000079.0	6.17	11.43
26/01/2020 00:54:40	26012020	260120	005440	262.000	12.419137	-57.480623	262.090	-0.390	-0.270	-0.870	262.000	-1.500	0.000																			1580000080.0	6.31	11.69
26/01/2020 00:54:41	26012020	260120	005441	262.120	12.419125	-57.480652	262.130	-0.340	-0.380	-1.780	262.120	-1.700	-1.000																			1580000081.0	6.38	11.82
26/01/2020 00:54:42	26012020	260120	005442	262.140	12.419115	-57.480680	262.050	-0.220	-0.400	-2.110	262.140	-1.700	-1.700																			1580000082.0	6.39	11.83
26/01/2020 00:54:43	26012020	260120	005443	262.040	12.419107	-57.480708	261.920	-0.070	-0.370	-1.770	262.040	-1.700	-1.700																			1580000083.0	6.28	11.63
26/01/2020 00:54:44	26012020	260120	005444	261.910	12.419102	-57.480738	261.840	0.130	-0.290	-0.950	261.910	-1.700	-1.000																			1580000084.0	6.19	11.46
26/01/2020 00:54:45	26012020	260120	005445	261.820	12.419100	-57.480768	261.810	0.310	-0.130	-0.000	261.820	-1.500	-0.100																			1580000085.0	6.28	11.63
26/01/2020 00:54:46	26012020	260120	005446	261.780	12.419103	-57.480798	261.820	0.380	0.040	0.860	261.780	-1.400	0.800																			1580000086.0	6.41	11.87
26/01/2020 00:54:47	26012020	260120	005447	261.790	12.419107	-57.480828	261.840	0.280	0.150	1.520	261.790	-1.200	1.600																			1580000087.0	6.44	11.93
26/01/2020 00:54:48	26012020	260120	005448	261.800	12.419108	-57.480858	261.850	0.070	0.140	1.880	261.800	-1.200	2.100																			1580000088.0	6.38	11.82
26/01/2020 00:54:49	26012020	260120	005449	261.780	12.419108	-57.480888	261.820	-0.110	-0.000	1.880	261.780	-1.200	2.300																			1580000089.0	6.34	11.74
26/01/2020 00:54:50	26012020	260120	005450	261.740	12.419105	-57.480918	261.750	-0.180	-0.210	1.510	261.740	-1.400	2.100																			1580000090.0	6.37	11.80
26/01/2020 00:54:51	26012020	260120	005451	261.660	12.419100	-57.480948	261.640	-0.150	-0.350	0.890	261.660	-1.600	1.600																			1580000091.0	6.45	11.95
26/01/2020 00:54:52	26012020	260120	005452	261.550	12.419093	-57.480978	261.490	-0.140	-0.270	0.240	261.550	-1.700	0.900																			1580000092.0	6.49	12.02
26/01/2020 00:54:53	26012020	260120	005453	261.420	12.419085	-57.481007	261.350	-0.210	-0.040	-0.320	261.420	-1.500	0.300																			1580000093.0	6.38	11.82
26/01/2020 00:54:54	26012020	260120	005454	261.320	12.419077	-57.481035	261.320	-0.290	0.160	-0.790	261.320	-1.300	-0.200																			1580000094.0	6.19	11.46
26/01/2020 00:54:55	26012020	260120	005455	261.330	12.419070	-57.481063	261.390	-0.230	0.110	-1.150	261.330	-1.200	-0.600																			1580000095.0	6.09	11.28
26/01/2020 00:54:56	26012020	260120	005456	261.430	12.419063	-57.481092	261.510	0.050	-0.260	-1.240	261.430	-1.400	-0.900																			1580000096.0	6.20	11.48
26/01/2020 00:54:57	26012020	260120	005457	261.550	12.419058	-57.481122	261.660	0.430	-0.650	-0.960	261.550	-1.800	-0.800																			1580000097.0	6.53	12.09
26/01/2020 00:54:58	26012020	260120	005458	261.710	12.419055	-57.481155	261.850	0.630	-0.660	-0.290	261.710	-2.000	-0.300																			1580000098.0	6.84	12.67
26/01/2020 00:54:59	26012020	260120	005459	261.890	12.419053	-57.481187	262.000	0.500	-0.200	0.620	261.890	-1.800	0.500	1015.20	25.20	25.30	21.80	21.70	-1.00	81.00	80.00	390.00	24.70	100.00	5.00	31.00	6.30	14	3456.00	27.40	27.40	1580000099.0	6.75	12.50
26/01/2020 00:55:00	26012020	260120	005500	261.970	12.419055	-57.481217	262.000	0.160	0.300	1.470	261.970	-1.200	1.400																			1580000100.0	6.37	11.80
26/01/2020 00:55:01	26012020	260120	005501	261.890	12.419058	-57.481245	261.850	-0.170	0.440	1.900	261.890	-0.900	2.100																			1580000101.0	6.12	11.33
26/01/2020 00:55:02	26012020	260120	005502	261.710	12.419060	-57.481275	261.670	-0.340	0.200	1.800	261.710	-1.000	2.300																			1580000102.0	6.21	11.50
26/01/2020 00:55:03	26012020	260120	005503	261.580	12.419055	-57.481305	261.600	-0.370	-0.160	1.270	261.580	-1.300	1.900																			1580000103.0	6.54	12.11
26/01/2020 00:55:04	26012020	260120	005504	261.550	12.419048	-57.481337	261.610	-0.340	-0.410	0.490	261.550	-1.600	1.200																			1580000104.0	6.77	12.54
26/01/2020 00:55:05	26012020	260120	005505	261.600	12.419040	-57.481367	261.700	-0.250	-0.450	-0.350	261.600	-1.800	0.400																			1580000105.0	6.77	12.54
26/01/2020 00:55:06	26012020	260120	005506	261.730	12.419030	-57.481397	261.830	-0.090	-0.390	-1.010	261.730	-1.800	-0.400																			1580000106.0	6.62	12.26
26/01/2020 00:55:07	26012020	260120	005507	261.860	12.419022	-57.481427	261.940	0.120	-0.310	-1.270	261.860	-1.700	-0.800																			1580000107.0	6.47	11.98
26/01/2020 00:55:08	26012020	260120	005508	261.940	12.419017	-57.481457	262.020	0.260	-0.190	-1.110	261.960	-1.600	-0.900																			1580000108.0	6.47	11.98
26/01/2020 00:55:09	26012020	260120	005509	262.030	12.419012	-57.481487	262.080	0.260	-0.030	-0.650	262.030	-1.400	-0.600																			1580000109.0	6.51	12.06
26/01/2020 00:55:10	26012020	260120	005510	262.060	12.419010	-57.481518	262.080	0.130	0.090	0.000	262.060	-1.300	0.000																			1580000110.0	6.51	12.06
26/01/2020 00:55:11	26012020	260120	005511	262.000	12.419010	-57.481548	261.950	-0.020	0.110	0.670	262.000	-1.200	0.700																			1580000111.0	6.53	12.09
26/01/2020 00:55:12	26012020	260120	005512	261.840	12.419010	-57.481580	261.810	-0.090	0.090	1.160	261.840	-1.200	1.300																			1580000112.0	6.59	12.20
26/01/2020 00:55:13	26012020	260120	005513	261.710	12.419010	-57.481612	261.750	-0.060	0.020	1.300	261.710	-1.300	1.600																			1580000113.0	6.62	12.26
26/01/2020 00:55:14	26012020	260120	005514	261.700	12.419007	-57.481642	261.800	0.010	-0.070	1.150	261.700	-1.400	1.600																			1580000114.0	6.62	12.26
26/01/2020 00:55:15	26012020	260120	005515	261.780	12.419003	-57.481673	261.910	0.050	-0.130	0.820	261.780	-1.400	1.300																			1580000115.0	6.61	12.24
26/01/2020 00:55:16	26012020	260120	005516	261.890	12.418998	-57.481703	261.980	0.030	-0.170	0.420	261.890	-1.500	1.000																			1580000116.0	6.58	12.19
26/01/2020 00:55:17	26012020	260120	005517	261.930	12.418992	-57.481735	261.940	-0.010	-0.250	0.120	261.930	-1.500	0.600																			1580000117.0	6.51	12.06
26/01/2020 00:55:18	26012020	260120	005518	261.870	12.418985	-57.481765	261.840	-0.020	-0.410	-0.030	261.870	-1.700	0.400																			1580000118.0	6.50	12.04
26/01/2020 00:55:19	26012020	260120	005519	261.780	12.418980	-57.481795	261.800	0.050	-0.580	-0.100	261.780	-1.800	0.300																			1580000119.0	6.59	12.20
26/01/2020 00:55:20	26012020	260120	005520	261.770	12.418975	-57.481827	261.890	0.150	-0.570	-0.180	261.780	-1.900	0.200																			1580000120.0	6.74	12.48
26/01/2020 00:55:21	26012020	260120	005521	261.910	12.418970	-57.481858	262.080	0.170	-0.250	-0.300	261.910	-1.800	0.100																			1580000121.0	6.80	12.59
26/01/2020 00:55:22	26012020	260120	005522	262.090	12.418967	-57.481890	262.310	0.060	0.160	-0.420	262.140	-1.400	-0.000																			1580000122.0	6.65	12.32
26/01/2020 00:55:23	26012020	260120	005523	262.340	12.418965	-57.481920	262.440	-0.090	0.340	-0.430	262.340	-1.000	-0.100																			1580000123.0	6.46	11.96
26/01/2020 00:55:24	26012020	260120	005524	262.420	12.418962	-57.481950	262.400	-0.200	0.220	-0.210	262.420	-1.000	0.000																			1580000124.0	6.54	12.11
26/01/2020 00:55:25	26012020	260120	005525	262.320	12.418958	-57.481983	262.230	-0.280	-0.010	0.160	262.320	-1.200	0.300																			1580000125.0	6.80	12.59
26/01/2020 00:55:26	26012020	260120	005526	262.150	12.418953	-57.482015	262.080	-0.350	-0.160	0.560	262.150	-1.400	0.700																			1580000126.0	6.96	12.89
26/01/2020 00:55:27	26012020	260120	005527	261.980	12.418950	-57.482048	261.990	-0.330	-0.180	0.820	261.980	-1.500	1.100																			1580000127.0	6.88	12.74
26/01/2020 00:55:28	26012020	260120	005528	261.930	12.418947	-57.482080	262.040	-0.160	-0.100	0.780	261.930	-1.500	1.200																			1580000128.0	6.71	12.43
26/01/2020 00:55:29	26012020	260120	005529	262.040	12.418942	-57.482110	262.220	0.120	-0.030	0.510	262.040	-1.400	1.000																			1580000129.0	6.58	12.19
26/01/2020 00:55:30	26012020	260120	005530	262.260	12.418937	-57.482140	262.440	0.350	-0.070	0.250	262.260	-1.400	0.700																			1580000130.0	6.53	12.09
26/01/2020 00:55:31	26012020	260120	005531	262.440	12.418932	-57.482172	262.550	0.450	-0.260	0.240	262.440	-1.500	0.600																			1580000131.0	6.58	12.19
26/01/2020 00:55:32	26012020	260120	005532	262.530	12.418928	-57.482203	262.560	0.430	-0.480	0.450	262.530	-1.700	0.700																			1580000132.0	6.75	12.50
26/01/2020 00:55:33	26012020	260120	005533	262.530	12.418925	-57.482235	262.560	0.360	-0.460	0.720	262.530	-1.800	0.900																			1580000133.0	6.91	12.80
26/01/2020 00:55:34	26012020	260120	005534	262.500	12.418923	-57.482268	262.580	0.250	-0.220	0.840	262.500	-1.700	1.200																			1580000134.0	6.88	12.74
26/01/2020 00:55:35	26012020	260120	005535	262.570	12.418922	-57.482300	262.730	0.080	0.020	0.630	262.570	-1.400	1.100																			1580000135.0	6.67	12.35
26/01/2020 00:55:36	26012020	260120	005536	262.770	12.418920	-57.482330	262.950	-0.130	0.040	0.130	262.770	-1.300	0.800																			1580000136.0	6.55	12.13
26/01/2020 00:55:37	26012020	260120	005537	262.990	12.418915	-57.482362	263.110	-0.350	-0.110	-0.450	262.990	-1.400	0.200																			1580000137.0	6.71	12.43
26/01/2020 00:55:38	26012020	260120	005538	263.120	12.418907	-57.482393	263.190	-0.510	-0.240	-0.920	263.120	-1.500	-0.400																			1580000138.0	6.97	12.91
26/01/2020 00:55:39	26012020	260120	005539	263.210	12.418898	-57.482427	263.320	-0.560	-0.270	-1.160	263.210	-1.600	-0.700																			1580000139.0	7.06	13.08
26/01/2020 00:55:40	26012020	260120	005540	263.370	12.418892	-57.482458	263.530	-0.460	-0.220	-1.090	263.370	-1.600	-0.800																			1580000140.0	6.97	12.91
26/01/2020 00:55:41	26012020	260120	005541	263.580	12.418885	-57.482490	263.710	-0.230	-0.140	-0.680	263.580	-1.500	-0.600																			1580000141.0	6.86	12.70
26/01/2020 00:55:42	26012020	260120	005542	263.730	12.418882	-57.482522	263.820	0.020	-0.060	-0.030	263.730	-1.400	-0.000																			1580000142.0	6.83	12.65
26/01/2020 00:55:43	26012020	260120	005543	263.810	12.418880	-57.482555	263.910	0.210	0.070	0.630	263.810	-1.300	0.700																			1580000143.0	6.89	12.76
26/01/2020 00:55:44	26012020	260120	005544	263.900	12.418880	-57.482587	264.030	0.340	0.200	1.110	263.900	-1.200	1.200																			1580000144.0	6.90	12.78
26/01/2020 00:55:45	26012020	260120	005545	264.010	12.418880	-57.482620	264.140	0.460	0.190	1.380	264.010	-1.100	1.600																			1580000145.0	6.81	12.61
26/01/2020 00:55:46	26012020	260120	005546	264.090	12.418880	-57.482652	264.190	0.570	-0.010	1.410	264.090	-1.200	1.800																			1580000146.0	6.78	12.56
26/01/2020 00:55:47	26012020	260120	005547	264.120	12.418878	-57.482685	264.180	0.540	-0.260	1.200	264.120	-1.500	1.700																			1580000147.0	6.89	12.76
26/01/2020 00:55:48	26012020	260120	005548	264.120	12.418875	-57.482717	264.200	0.280	-0.380	0.750	264.120	-1.700	1.400																			1580000148.0	6.98	12.93
26/01/2020 00:55:49	26012020	260120	005549	264.180	12.418872	-57.482750	264.320	-0.120	-0.350	0.060	264.180	-1.700	0.800																			1580000149.0	6.90	12.78
26/01/2020 00:55:50	26012020	260120	005550	264.390	12.418865	-57.482780	264.580	-0.430	-0.320	-0.700	264.390	-1.700	0.000																			1580000150.0	6.75	12.50
26/01/2020 00:55:51	26012020	260120	005551	264.690	12.418857	-57.482812	264.880	-0.490	-0.430	-1.310	264.690	-1.700	-0.700																			1580000151.0	6.75	12.50
26/01/2020 00:55:52	26012020	260120	005552	265.000	12.418850	-57.482843	265.180	-0.340	-0.550	-1.670	265.000	-1.800	-1.200																			1580000152.0	6.95	12.87
26/01/2020 00:55:53	26012020	260120	005553	265.310	12.418842	-57.482877	265.510	-0.150	-0.460	-1.730	265.310	-1.900	-1.400																			1580000153.0	7.20	13.33
26/01/2020 00:55:54	26012020	260120	005554	265.650	12.418837	-57.482910	265.820	-0.050	-0.180	-1.420	265.650	-1.700	-1.300																			1580000154.0	7.19	13.32
26/01/2020 00:55:55	26012020	260120	005555	265.900	12.418835	-57.482943	265.950	-0.100	0.120	-0.680	265.900	-1.400	-0.700																			1580000155.0	7.01	12.98
26/01/2020 00:55:56	26012020	260120	005556	265.950	12.418833	-57.482977	265.920	-0.180	0.290	0.320	265.950	-1.100	0.200																			1580000156.0	6.92	12.82
26/01/2020 00:55:57	26012020	260120	005557	265.850	12.418835	-57.483008	265.800	-0.170	0.330	1.320	265.850	-1.000	1.200																			1580000157.0	6.98	12.93
26/01/2020 00:55:58	26012020	260120	005558	265.710	12.418837	-57.483043	265.700	-0.030	0.270	2.100	265.710	-1.000	2.100																			1580000158.0	7.07	13.09
26/01/2020 00:55:59	26012020	260120	005559	265.660	12.418838	-57.483077	265.820	0.150	0.130	2.360	265.660	-1.100	2.700	1015.20	25.20	25.30	21.80	21.80	-1.00	81.00	80.00	390.00	24.70	93.00	5.10	29.00	6.40	14	3517.00	27.40	27.40	1580000159.0	7.10	13.15
26/01/2020 00:56:00	26012020	260120	005600	265.850	12.418838	-57.483110	266.120	0.320	-0.120	2.010	265.850	-1.300	2.600																			1580000160.0	7.03	13.02
26/01/2020 00:56:01	26012020	260120	005601	266.190	12.418837	-57.483142	266.470	0.410	-0.360	1.250	266.190	-1.600	2.000																			1580000161.0	7.01	12.98
26/01/2020 00:56:02	26012020	260120	005602	266.560	12.418832	-57.483175	266.800	0.360	-0.400	0.320	266.560	-1.700	1.100																			1580000162.0	7.07	13.09
26/01/2020 00:56:03	26012020	260120	005603	266.900	12.418825	-57.483208	267.110	0.190	-0.270	-0.610	266.900	-1.700	0.200																			1580000163.0	7.04	13.04
26/01/2020 00:56:04	26012020	260120	005604	267.220	12.418817	-57.483240	267.380	0.000	-0.220	-1.370	267.220	-1.600	-0.700																			1580000164.0	6.87	12.72
26/01/2020 00:56:05	26012020	260120	005605	267.470	12.418810	-57.483272	267.610	-0.080	-0.350	-1.840	267.470	-1.600	-1.300																			1580000165.0	6.84	12.67
26/01/2020 00:56:06	26012020	260120	005606	267.720	12.418805	-57.483303	267.880	-0.050	-0.510	-1.930	267.720	-1.800	-1.600																			1580000166.0	7.07	13.09
26/01/2020 00:56:07	26012020	260120	005607	268.000	12.418800	-57.483338	268.170	-0.000	-0.500	-1.580	268.000	-1.900	-1.400																			1580000167.0	7.23	13.39
26/01/2020 00:56:08	26012020	260120	005608	268.280	12.418798	-57.483372	268.420	-0.020	-0.290	-0.870	268.280	-1.700	-0.900																			1580000168.0	7.19	13.32
26/01/2020 00:56:09	26012020	260120	005609	268.490	12.418798	-57.483405	268.580	-0.110	0.040	0.040	268.490	-1.500	-0.100																			1580000169.0	7.08	13.11
26/01/2020 00:56:10	26012020	260120	005610	268.580	12.418802	-57.483438	268.650	-0.220	0.350	0.830	268.580	-1.100	0.800																			1580000170.0	7.01	12.98
26/01/2020 00:56:11	26012020	260120	005611	268.640	12.418803	-57.483472	268.760	-0.280	0.410	1.190	268.640	-0.900	1.400																			1580000171.0	6.97	12.91
26/01/2020 00:56:12	26012020	260120	005612	268.730	12.418807	-57.483505	268.930	-0.270	0.160	1.050	268.770	-1.000	1.500																			1580000172.0	7.01	12.98
26/01/2020 00:56:13	26012020	260120	005613	268.990	12.418805	-57.483538	269.190	-0.170	-0.180	0.530	268.990	-1.400	1.200																			1580000173.0	7.21	13.35
26/01/2020 00:56:14	26012020	260120	005614	269.280	12.418800	-57.483573	269.470	-0.050	-0.390	-0.060	269.280	-1.600	0.600																			1580000174.0	7.38	13.67
26/01/2020 00:56:15	26012020	260120	005615	269.550	12.418795	-57.483607	269.660	0.040	-0.440	-0.480	269.550	-1.800	0.100																			1580000175.0	7.33	13.58
26/01/2020 00:56:16	26012020	260120	005616	269.710	12.418790	-57.483642	269.730	0.070	-0.360	-0.680	269.710	-1.700	-0.300																			1580000176.0	7.17	13.28
26/01/2020 00:56:17	26012020	260120	005617	269.750	12.418787	-57.483673	269.760	0.110	-0.210	-0.740	269.750	-1.600	-0.400																			1580000177.0	7.03	13.02
26/01/2020 00:56:18	26012020	260120	005618	269.790	12.418785	-57.483707	269.790	0.180	-0.080	-0.710	269.790	-1.500	-0.400																			1580000178.0	6.97	12.91
26/01/2020 00:56:19	26012020	260120	005619	269.820	12.418785	-57.483740	269.790	0.250	-0.030	-0.530	269.820	-1.400	-0.300																			1580000179.0	6.98	12.93
26/01/2020 00:56:20	26012020	260120	005620	269.810	12.418785	-57.483773	269.780	0.260	0.020	-0.240	269.810	-1.300	-0.000																			1580000180.0	7.07	13.09
26/01/2020 00:56:21	26012020	260120	005621	269.780	12.418785	-57.483807	269.750	0.200	0.100	0.040	269.780	-1.300	0.200																			1580000181.0	7.13	13.20
26/01/2020 00:56:22	26012020	260120	005622	269.730	12.418787	-57.483840	269.720	0.110	0.080	0.250	269.730	-1.200	0.500																			1580000182.0	7.05	13.06
26/01/2020 00:56:23	26012020	260120	005623	269.720	12.418787	-57.483873	269.760	0.040	-0.100	0.340	269.720	-1.300	0.700																			1580000183.0	7.00	12.96
26/01/2020 00:56:24	26012020	260120	005624	269.800	12.418787	-57.483907	269.890	-0.010	-0.390	0.320	269.800	-1.600	0.700																			1580000184.0	7.12	13.19
26/01/2020 00:56:25	26012020	260120	005625	269.930	12.418787	-57.483942	270.000	-0.060	-0.590	0.230	269.930	-1.900	0.600																			1580000185.0	7.29	13.50
26/01/2020 00:56:26	26012020	260120	005626	270.030	12.418785	-57.483977	270.080	-0.110	-0.540	0.150	270.030	-1.900	0.500																			1580000186.0	7.35	13.61
26/01/2020 00:56:27	26012020	260120	005627	270.120	12.418785	-57.484010	270.190	-0.160	-0.300	0.020	270.120	-1.800	0.400																			1580000187.0	7.21	13.35
26/01/2020 00:56:28	26012020	260120	005628	270.240	12.418783	-57.484043	270.330	-0.190	-0.050	-0.180	270.240	-1.500	0.300																			1580000188.0	7.06	13.08
26/01/2020 00:56:29	26012020	260120	005629	270.370	12.418782	-57.484077	270.390	-0.180	0.110	-0.320	270.370	-1.300	0.100																			1580000189.0	7.04	13.04
26/01/2020 00:56:30	26012020	260120	005630	270.380	12.418778	-57.484110	270.300	-0.130	0.130	-0.240	270.380	-1.200	0.000																			1580000190.0	7.12	13.19
26/01/2020 00:56:31	26012020	260120	005631	270.250	12.418778	-57.484145	270.160	-0.080	0.030	0.000	270.250	-1.300	0.200																			1580000191.0	7.23	13.39
26/01/2020 00:56:32	26012020	260120	005632	270.120	12.418778	-57.484180	270.080	-0.070	-0.070	0.230	270.120	-1.400	0.500																			1580000192.0	7.33	13.58
26/01/2020 00:56:33	26012020	260120	005633	270.110	12.418778	-57.484215	270.160	-0.070	-0.080	0.320	270.110	-1.400	0.600																			1580000193.0	7.35	13.61
26/01/2020 00:56:34	26012020	260120	005634	270.220	12.418778	-57.484248	270.320	-0.000	-0.140	0.220	270.220	-1.400	0.600																			1580000194.0	7.21	13.35
26/01/2020 00:56:35	26012020	260120	005635	270.380	12.418778	-57.484282	270.440	0.170	-0.270	0.070	270.380	-1.500	0.500																			1580000195.0	7.13	13.20
26/01/2020 00:56:36	26012020	260120	005636	270.480	12.418777	-57.484317	270.500	0.340	-0.320	0.060	270.480	-1.700	0.400																			1580000196.0	7.25	13.43
26/01/2020 00:56:37	26012020	260120	005637	270.530	12.418777	-57.484352	270.520	0.370	-0.200	0.170	270.530	-1.600	0.500																			1580000197.0	7.30	13.52
26/01/2020 00:56:38	26012020	260120	005638	270.540	12.418777	-57.484385	270.510	0.280	-0.060	0.220	270.540	-1.500	0.500																			1580000198.0	7.16	13.26
26/01/2020 00:56:39	26012020	260120	005639	270.530	12.418778	-57.484418	270.520	0.190	-0.030	0.170	270.530	-1.400	0.500																			1580000199.0	7.05	13.06
26/01/2020 00:56:40	26012020	260120	005640	270.540	12.418778	-57.484452	270.540	0.130	-0.090	0.030	270.540	-1.400	0.500																			1580000200.0	7.13	13.20
26/01/2020 00:56:41	26012020	260120	005641	270.560	12.418778	-57.484487	270.570	-0.010	-0.140	-0.140	270.560	-1.500	0.300																			1580000201.0	7.29	13.50
26/01/2020 00:56:42	26012020	260120	005642	270.580	12.418777	-57.484522	270.570	-0.230	-0.110	-0.260	270.580	-1.500	0.100																			1580000202.0	7.35	13.61
26/01/2020 00:56:43	26012020	260120	005643	270.570	12.418775	-57.484555	270.570	-0.420	-0.110	-0.330	270.570	-1.400	0.100																			1580000203.0	7.23	13.39
26/01/2020 00:56:44	26012020	260120	005644	270.570	12.418775	-57.484588	270.590	-0.420	-0.220	-0.440	270.570	-1.500	-0.000																			1580000204.0	7.15	13.24
26/01/2020 00:56:45	26012020	260120	005645	270.630	12.418773	-57.484623	270.690	-0.240	-0.350	-0.550	270.630	-1.600	-0.200																			1580000205.0	7.26	13.45
26/01/2020 00:56:46	26012020	260120	005646	270.720	12.418772	-57.484658	270.820	-0.020	-0.400	-0.550	270.740	-1.700	-0.200																			1580000206.0	7.38	13.67
26/01/2020 00:56:47	26012020	260120	005647	270.870	12.418770	-57.484693	270.920	0.090	-0.350	-0.350	270.870	-1.700	-0.100																			1580000207.0	7.39	13.69
26/01/2020 00:56:48	26012020	260120	005648	270.940	12.418770	-57.484728	270.930	0.080	-0.150	0.090	270.950	-1.600	0.200																			1580000208.0	7.35	13.61
26/01/2020 00:56:49	26012020	260120	005649	270.900	12.418772	-57.484762	270.830	0.040	0.120	0.670	270.900	-1.400	0.700																			1580000209.0	7.28	13.48
26/01/2020 00:56:50	26012020	260120	005650	270.770	12.418775	-57.484797	270.730	0.070	0.210	1.100	270.770	-1.100	1.300																			1580000210.0	7.17	13.28
26/01/2020 00:56:51	26012020	260120	005651	270.700	12.418777	-57.484830	270.720	0.190	0.010	1.220	270.700	-1.200	1.500																			1580000211.0	7.19	13.32
26/01/2020 00:56:52	26012020	260120	005652	270.730	12.418780	-57.484865	270.790	0.310	-0.220	1.030	270.730	-1.500	1.500																			1580000212.0	7.45	13.80
26/01/2020 00:56:53	26012020	260120	005653	270.810	12.418780	-57.484902	270.900	0.280	-0.230	0.590	270.810	-1.600	1.200																			1580000213.0	7.62	14.11
26/01/2020 00:56:54	26012020	260120	005654	270.950	12.418780	-57.484937	271.060	0.080	-0.090	-0.010	270.950	-1.500	0.700																			1580000214.0	7.44	13.78
26/01/2020 00:56:55	26012020	260120	005655	271.120	12.418778	-57.484970	271.200	-0.170	-0.020	-0.580	271.120	-1.400	0.000																			1580000215.0	7.16	13.26
26/01/2020 00:56:56	26012020	260120	005656	271.260	12.418775	-57.485003	271.250	-0.300	-0.070	-0.930	271.260	-1.400	-0.400																			1580000216.0	7.11	13.17
26/01/2020 00:56:57	26012020	260120	005657	271.250	12.418772	-57.485038	271.170	-0.270	-0.110	-0.940	271.250	-1.400	-0.600																			1580000217.0	7.27	13.46
26/01/2020 00:56:58	26012020	260120	005658	271.140	12.418768	-57.485073	271.080	-0.140	-0.130	-0.700	271.140	-1.500	-0.500																			1580000218.0	7.33	13.58
26/01/2020 00:56:59	26012020	260120	005659	271.120	12.418768	-57.485107	271.190	0.010	-0.250	-0.500	271.120	-1.500	-0.200	1015.20	25.20	25.30	21.80	21.70	-1.00	81.00	80.00	390.00	24.70	82.00	5.40	29.00	6.10	14	3548.00	27.40	27.40	1580000219.0	7.28	13.48
26/01/2020 00:57:00	26012020	260120	005700	271.240	12.418770	-57.485142	271.460	0.100	-0.440	-0.450	271.290	-1.700	-0.100																			1580000220.0	7.32	13.56
26/01/2020 00:57:01	26012020	260120	005701	271.580	12.418772	-57.485177	271.720	0.120	-0.590	-0.380	271.580	-1.900	-0.100																			1580000221.0	7.45	13.80
26/01/2020 00:57:02	26012020	260120	005702	271.770	12.418773	-57.485212	271.850	0.100	-0.590	-0.160	271.800	-1.900	0.100																			1580000222.0	7.49	13.87
26/01/2020 00:57:03	26012020	260120	005703	271.880	12.418773	-57.485248	271.890	0.050	-0.380	0.170	271.880	-1.900	0.400																			1580000223.0	7.49	13.87
26/01/2020 00:57:04	26012020	260120	005704	271.910	12.418775	-57.485283	271.890	-0.040	0.030	0.470	271.910	-1.500	0.700																			1580000224.0	7.41	13.72
26/01/2020 00:57:05	26012020	260120	005705	271.900	12.418777	-57.485317	271.820	-0.160	0.430	0.690	271.900	-1.100	0.900																			1580000225.0	7.28	13.48
26/01/2020 00:57:06	26012020	260120	005706	271.770	12.418780	-57.485352	271.590	-0.200	0.610	0.790	271.770	-0.800	1.100																			1580000226.0	7.17	13.28
26/01/2020 00:57:07	26012020	260120	005707	271.490	12.418782	-57.485385	271.280	-0.090	0.510	0.680	271.490	-0.800	1.100																			1580000227.0	7.21	13.35
26/01/2020 00:57:08	26012020	260120	005708	271.180	12.418782	-57.485420	271.030	0.100	0.170	0.360	271.180	-1.000	0.900																			1580000228.0	7.35	13.61
26/01/2020 00:57:09	26012020	260120	005709	270.990	12.418780	-57.485455	270.910	0.230	-0.330	-0.080	270.990	-1.400	0.500																			1580000229.0	7.46	13.82
26/01/2020 00:57:10	26012020	260120	005710	270.920	12.418777	-57.485490	270.910	0.240	-0.800	-0.500	270.920	-1.900	0.000																			1580000230.0	7.56	14.00
26/01/2020 00:57:11	26012020	260120	005711	270.940	12.418777	-57.485527	270.960	0.170	-0.980	-0.800	270.940	-2.300	-0.300																			1580000231.0	7.61	14.09
26/01/2020 00:57:12	26012020	260120	005712	271.010	12.418775	-57.485562	271.060	0.060	-0.740	-0.910	271.010	-2.200	-0.500																			1580000232.0	7.52	13.93
26/01/2020 00:57:13	26012020	260120	005713	271.110	12.418777	-57.485597	271.160	-0.040	-0.270	-0.800	271.110	-1.900	-0.500																			1580000233.0	7.27	13.46
26/01/2020 00:57:14	26012020	260120	005714	271.200	12.418777	-57.485630	271.200	-0.120	0.130	-0.460	271.200	-1.400	-0.300																			1580000234.0	7.08	13.11
26/01/2020 00:57:15	26012020	260120	005715	271.190	12.418778	-57.485663	271.090	-0.150	0.240	0.060	271.190	-1.100	0.100																			1580000235.0	7.09	13.13
26/01/2020 00:57:16	26012020	260120	005716	271.030	12.418780	-57.485698	270.890	-0.110	0.140	0.610	271.030	-1.100	0.700																			1580000236.0	7.34	13.59
26/01/2020 00:57:17	26012020	260120	005717	270.810	12.418783	-57.485735	270.710	-0.060	0.040	1.040	270.810	-1.300	1.200																			1580000237.0	7.62	14.11
26/01/2020 00:57:18	26012020	260120	005718	270.640	12.418785	-57.485770	270.560	-0.020	0.090	1.240	270.640	-1.300	1.500																			1580000238.0	7.69	14.24
26/01/2020 00:57:19	26012020	260120	005719	270.520	12.418787	-57.485807	270.500	-0.010	0.150	1.140	270.520	-1.200	1.600																			1580000239.0	7.50	13.89
26/01/2020 00:57:20	26012020	260120	005720	270.500	12.418787	-57.485840	270.540	0.030	-0.020	0.800	270.500	-1.300	1.300																			1580000240.0	7.26	13.45
26/01/2020 00:57:21	26012020	260120	005721	270.570	12.418787	-57.485875	270.610	0.080	-0.410	0.360	270.570	-1.500	0.900																			1580000241.0	7.29	13.50
26/01/2020 00:57:22	26012020	260120	005722	270.620	12.418785	-57.485910	270.640	0.090	-0.760	-0.050	270.620	-2.000	0.500																			1580000242.0	7.55	13.98
26/01/2020 00:57:23	26012020	260120	005723	270.660	12.418783	-57.485947	270.680	0.010	-0.780	-0.380	270.660	-2.200	0.100																			1580000243.0	7.73	14.32
26/01/2020 00:57:24	26012020	260120	005724	270.720	12.418782	-57.485983	270.750	-0.100	-0.460	-0.590	270.720	-2.000	-0.200																			1580000244.0	7.61	14.09
26/01/2020 00:57:25	26012020	260120	005725	270.810	12.418780	-57.486018	270.810	-0.150	0.030	-0.670	270.810	-1.600	-0.300																			1580000245.0	7.33	13.58
26/01/2020 00:57:26	26012020	260120	005726	270.840	12.418778	-57.486052	270.830	-0.130	0.420	-0.630	270.850	-1.100	-0.300																			1580000246.0	7.15	13.24
26/01/2020 00:57:27	26012020	260120	005727	270.850	12.418778	-57.486085	270.790	-0.060	0.490	-0.510	270.850	-0.800	-0.200																			1580000247.0	7.15	13.24
26/01/2020 00:57:28	26012020	260120	005728	270.790	12.418780	-57.486120	270.740	0.050	0.200	-0.270	270.790	-1.000	-0.100																			1580000248.0	7.35	13.61
26/01/2020 00:57:29	26012020	260120	005729	270.710	12.418780	-57.486157	270.650	0.180	-0.200	0.110	270.710	-1.400	0.300																			1580000249.0	7.64	14.15
26/01/2020 00:57:30	26012020	260120	005730	270.620	12.418782	-57.486193	270.590	0.280	-0.420	0.520	270.620	-1.700	0.700																			1580000250.0	7.83	14.50
26/01/2020 00:57:31	26012020	260120	005731	270.570	12.418785	-57.486230	270.580	0.280	-0.390	0.830	270.570	-1.800	1.000																			1580000251.0	7.72	14.30
26/01/2020 00:57:32	26012020	260120	005732	270.550	12.418788	-57.486265	270.540	0.150	-0.250	0.950	270.550	-1.700	1.300																			1580000252.0	7.44	13.78
26/01/2020 00:57:33	26012020	260120	005733	270.510	12.418790	-57.486298	270.520	-0.040	-0.200	0.800	270.510	-1.600	1.300																			1580000253.0	7.22	13.37
26/01/2020 00:57:34	26012020	260120	005734	270.520	12.418790	-57.486333	270.530	-0.240	-0.280	0.380	270.520	-1.600	1.000																			1580000254.0	7.23	13.39
26/01/2020 00:57:35	26012020	260120	005735	270.530	12.418790	-57.486368	270.500	-0.390	-0.350	-0.130	270.530	-1.700	0.500																			1580000255.0	7.45	13.80
26/01/2020 00:57:36	26012020	260120	005736	270.490	12.418787	-57.486403	270.470	-0.450	-0.290	-0.630	270.490	-1.700	-0.000																			1580000256.0	7.60	14.08
26/01/2020 00:57:37	26012020	260120	005737	270.500	12.418782	-57.486440	270.500	-0.370	-0.100	-1.010	270.500	-1.500	-0.500																			1580000257.0	7.62	14.11
26/01/2020 00:57:38	26012020	260120	005738	270.520	12.418778	-57.486475	270.530	-0.160	0.080	-1.080	270.530	-1.300	-0.700																			1580000258.0	7.53	13.95
26/01/2020 00:57:39	26012020	260120	005739	270.560	12.418777	-57.486510	270.580	0.140	0.100	-0.790	270.560	-1.200	-0.600																			1580000259.0	7.46	13.82
26/01/2020 00:57:40	26012020	260120	005740	270.600	12.418777	-57.486547	270.580	0.440	-0.020	-0.190	270.600	-1.300	-0.200																			1580000260.0	7.50	13.89
26/01/2020 00:57:41	26012020	260120	005741	270.550	12.418780	-57.486582	270.470	0.580	-0.150	0.570	270.550	-1.400	0.500																			1580000261.0	7.67	14.20
26/01/2020 00:57:42	26012020	260120	005742	270.390	12.418785	-57.486618	270.290	0.470	-0.180	1.240	270.390	-1.500	1.300																			1580000262.0	7.75	14.35
26/01/2020 00:57:43	26012020	260120	005743	270.180	12.418790	-57.486653	270.070	0.180	-0.120	1.570	270.180	-1.500	1.800																			1580000263.0	7.65	14.17
26/01/2020 00:57:44	26012020	260120	005744	269.970	12.418793	-57.486690	269.890	-0.110	-0.090	1.450	269.970	-1.400	1.900																			1580000264.0	7.46	13.82
26/01/2020 00:57:45	26012020	260120	005745	269.830	12.418795	-57.486723	269.830	-0.290	-0.150	0.860	269.830	-1.500	1.500																			1580000265.0	7.35	13.61
26/01/2020 00:57:46	26012020	260120	005746	269.840	12.418793	-57.486758	269.890	-0.350	-0.270	0.010	269.840	-1.600	0.800																			1580000266.0	7.43	13.76
26/01/2020 00:57:47	26012020	260120	005747	269.960	12.418788	-57.486795	270.030	-0.320	-0.350	-0.760	269.960	-1.700	-0.100																			1580000267.0	7.59	14.06
26/01/2020 00:57:48	26012020	260120	005748	270.110	12.418783	-57.486830	270.140	-0.230	-0.330	-1.180	270.110	-1.700	-0.700																			1580000268.0	7.68	14.22
26/01/2020 00:57:49	26012020	260120	005749	270.220	12.418778	-57.486867	270.230	-0.100	-0.140	-1.170	270.220	-1.600	-0.900																			1580000269.0	7.64	14.15
26/01/2020 00:57:50	26012020	260120	005750	270.290	12.418777	-57.486902	270.300	0.040	0.090	-0.860	270.300	-1.400	-0.700																			1580000270.0	7.49	13.87
26/01/2020 00:57:51	26012020	260120	005751	270.350	12.418777	-57.486937	270.330	0.200	0.150	-0.420	270.350	-1.200	-0.300																			1580000271.0	7.36	13.63
26/01/2020 00:57:52	26012020	260120	005752	270.350	12.418780	-57.486972	270.300	0.370	-0.090	0.070	270.350	-1.300	0.200																			1580000272.0	7.42	13.74
26/01/2020 00:57:53	26012020	260120	005753	270.300	12.418783	-57.487008	270.230	0.440	-0.440	0.610	270.300	-1.600	0.700																			1580000273.0	7.66	14.19
26/01/2020 00:57:54	26012020	260120	005754	270.180	12.418787	-57.487045	270.120	0.290	-0.550	1.120	270.180	-1.900	1.200																			1580000274.0	7.90	14.63
26/01/2020 00:57:55	26012020	260120	005755	270.060	12.418790	-57.487082	270.060	-0.050	-0.360	1.340	270.060	-1.800	1.600																			1580000275.0	7.83	14.50
26/01/2020 00:57:56	26012020	260120	005756	270.020	12.418792	-57.487117	270.060	-0.400	-0.090	1.140	270.020	-1.600	1.600																			1580000276.0	7.50	13.89
26/01/2020 00:57:57	26012020	260120	005757	270.060	12.418792	-57.487152	270.080	-0.540	0.080	0.620	270.060	-1.300	1.200																			1580000277.0	7.27	13.46
26/01/2020 00:57:58	26012020	260120	005758	270.100	12.418788	-57.487187	270.100	-0.440	0.100	0.040	270.100	-1.200	0.700																			1580000278.0	7.38	13.67
26/01/2020 00:57:59	26012020	260120	005759	270.120	12.418785	-57.487222	270.100	-0.220	0.040	-0.440	270.120	-1.300	0.100	1015.10	25.20	25.30	21.80	21.70	-1.00	81.00	80.00	390.00	24.70	81.00	5.80	28.00	6.40	13	3481.00	27.40	27.40	1580000279.0	7.61	14.09
26/01/2020 00:58:00	26012020	260120	005800	270.110	12.418780	-57.487258	270.070	0.030	-0.030	-0.660	270.110	-1.400	-0.200																			1580000280.0	7.74	14.33
26/01/2020 00:58:01	26012020	260120	005801	270.070	12.418777	-57.487295	270.040	0.260	-0.030	-0.580	270.070	-1.400	-0.300																			1580000281.0	7.73	14.32
26/01/2020 00:58:02	26012020	260120	005802	270.050	12.418777	-57.487330	270.060	0.440	-0.050	-0.310	270.050	-1.400	-0.100																			1580000282.0	7.60	14.08
26/01/2020 00:58:03	26012020	260120	005803	270.080	12.418778	-57.487367	270.130	0.510	-0.220	0.020	270.080	-1.500	0.200																			1580000283.0	7.48	13.85
26/01/2020 00:58:04	26012020	260120	005804	270.160	12.418782	-57.487402	270.180	0.420	-0.450	0.260	270.160	-1.700	0.500																			1580000284.0	7.53	13.95
26/01/2020 00:58:05	26012020	260120	005805	270.190	12.418785	-57.487438	270.170	0.130	-0.480	0.330	270.190	-1.800	0.700																			1580000285.0	7.69	14.24
26/01/2020 00:58:06	26012020	260120	005806	270.160	12.418787	-57.487473	270.090	-0.230	-0.300	0.270	270.160	-1.700	0.700																			1580000286.0	7.62	14.11
26/01/2020 00:58:07	26012020	260120	005807	270.070	12.418787	-57.487508	270.000	-0.480	-0.100	0.170	270.070	-1.500	0.600																			1580000287.0	7.40	13.70
26/01/2020 00:58:08	26012020	260120	005808	269.970	12.418783	-57.487543	269.940	-0.510	-0.020	0.120	269.970	-1.400	0.500																			1580000288.0	7.36	13.63
26/01/2020 00:58:09	26012020	260120	005809	269.910	12.418782	-57.487578	269.890	-0.320	-0.010	0.200	269.910	-1.400	0.500																			1580000289.0	7.51	13.91
26/01/2020 00:58:10	26012020	260120	005810	269.880	12.418780	-57.487615	269.900	-0.040	-0.040	0.330	269.880	-1.400	0.600																			1580000290.0	7.65	14.17
26/01/2020 00:58:11	26012020	260120	005811	269.910	12.418780	-57.487652	270.000	0.210	-0.140	0.320	269.910	-1.400	0.700																			1580000291.0	7.66	14.19
26/01/2020 00:58:12	26012020	260120	005812	270.030	12.418782	-57.487688	270.140	0.340	-0.310	0.140	270.030	-1.600	0.600																			1580000292.0	7.69	14.24
26/01/2020 00:58:13	26012020	260120	005813	270.170	12.418782	-57.487725	270.220	0.290	-0.430	-0.080	270.170	-1.700	0.400																			1580000293.0	7.75	14.35
26/01/2020 00:58:14	26012020	260120	005814	270.230	12.418782	-57.487762	270.240	0.090	-0.390	-0.230	270.230	-1.800	0.200																			1580000294.0	7.78	14.41
26/01/2020 00:58:15	26012020	260120	005815	270.250	12.418782	-57.487797	270.260	-0.170	-0.170	-0.340	270.250	-1.700	0.000																			1580000295.0	7.68	14.22
26/01/2020 00:58:16	26012020	260120	005816	270.240	12.418780	-57.487833	270.190	-0.350	0.160	-0.300	270.240	-1.400	0.000																			1580000296.0	7.56	14.00
26/01/2020 00:58:17	26012020	260120	005817	270.140	12.418778	-57.487868	270.010	-0.340	0.420	-0.030	270.140	-1.000	0.200																			1580000297.0	7.42	13.74
26/01/2020 00:58:18	26012020	260120	005818	269.910	12.418777	-57.487903	269.740	-0.130	0.430	0.380	269.910	-0.900	0.500																			1580000298.0	7.34	13.59
26/01/2020 00:58:19	26012020	260120	005819	269.630	12.418778	-57.487938	269.490	0.140	0.220	0.750	269.630	-1.000	0.900																			1580000299.0	7.46	13.82
26/01/2020 00:58:20	26012020	260120	005820	269.420	12.418780	-57.487975	269.380	0.310	-0.110	0.860	269.420	-1.300	1.200																			1580000300.0	7.65	14.17
26/01/2020 00:58:21	26012020	260120	005821	269.400	12.418782	-57.488010	269.470	0.380	-0.470	0.620	269.400	-1.600	1.100																			1580000301.0	7.68	14.22
26/01/2020 00:58:22	26012020	260120	005822	269.550	12.418783	-57.488047	269.690	0.400	-0.810	0.130	269.550	-2.000	0.700																			1580000302.0	7.63	14.13
26/01/2020 00:58:23	26012020	260120	005823	269.800	12.418782	-57.488083	269.960	0.330	-0.940	-0.370	269.800	-2.300	0.200																			1580000303.0	7.67	14.20
26/01/2020 00:58:24	26012020	260120	005824	270.070	12.418778	-57.488120	270.200	0.120	-0.730	-0.680	270.070	-2.200	-0.200																			1580000304.0	7.74	14.33
26/01/2020 00:58:25	26012020	260120	005825	270.290	12.418777	-57.488155	270.310	-0.190	-0.300	-0.710	270.290	-1.900	-0.400																			1580000305.0	7.62	14.11
26/01/2020 00:58:26	26012020	260120	005826	270.350	12.418777	-57.488192	270.280	-0.410	0.090	-0.480	270.350	-1.400	-0.300																			1580000306.0	7.44	13.78
26/01/2020 00:58:27	26012020	260120	005827	270.250	12.418775	-57.488227	270.160	-0.410	0.270	-0.130	270.250	-1.200	0.000																			1580000307.0	7.43	13.76
26/01/2020 00:58:28	26012020	260120	005828	270.110	12.418777	-57.488262	270.020	-0.260	0.280	0.230	270.110	-1.100	0.400																			1580000308.0	7.62	14.11
26/01/2020 00:58:29	26012020	260120	005829	269.970	12.418777	-57.488298	269.890	-0.140	0.260	0.530	269.970	-1.100	0.700																			1580000309.0	7.81	14.46
26/01/2020 00:58:30	26012020	260120	005830	269.840	12.418778	-57.488337	269.780	-0.130	0.210	0.690	269.840	-1.100	1.000																			1580000310.0	7.82	14.48
26/01/2020 00:58:31	26012020	260120	005831	269.720	12.418778	-57.488372	269.690	-0.140	0.110	0.710	269.720	-1.200	1.100																			1580000311.0	7.70	14.26
26/01/2020 00:58:32	26012020	260120	005832	269.630	12.418778	-57.488408	269.630	-0.040	-0.070	0.590	269.630	-1.300	1.000																			1580000312.0	7.61	14.09
26/01/2020 00:58:33	26012020	260120	005833	269.630	12.418778	-57.488445	269.710	0.140	-0.300	0.340	269.630	-1.500	0.800																			1580000313.0	7.62	14.11
26/01/2020 00:58:34	26012020	260120	005834	269.780	12.418777	-57.488480	269.960	0.310	-0.500	0.050	269.780	-1.800	0.500																			1580000314.0	7.66	14.19
26/01/2020 00:58:35	26012020	260120	005835	270.060	12.418775	-57.488517	270.250	0.410	-0.610	-0.190	270.060	-1.900	0.300																			1580000315.0	7.68	14.22
26/01/2020 00:58:36	26012020	260120	005836	270.300	12.418775	-57.488553	270.370	0.430	-0.570	-0.270	270.300	-2.000	0.100																			1580000316.0	7.64	14.15
26/01/2020 00:58:37	26012020	260120	005837	270.340	12.418773	-57.488588	270.300	0.360	-0.350	-0.170	270.340	-1.800	0.100																			1580000317.0	7.60	14.08
26/01/2020 00:58:38	26012020	260120	005838	270.230	12.418773	-57.488625	270.170	0.180	-0.040	-0.010	270.230	-1.600	0.300																			1580000318.0	7.52	13.93
26/01/2020 00:58:39	26012020	260120	005839	270.120	12.418775	-57.488660	270.100	-0.060	0.200	0.110	270.120	-1.300	0.400																			1580000319.0	7.46	13.82
26/01/2020 00:58:40	26012020	260120	005840	270.070	12.418777	-57.488695	270.100	-0.250	0.290	0.130	270.070	-1.100	0.500																			1580000320.0	7.47	13.83
26/01/2020 00:58:41	26012020	260120	005841	270.100	12.418777	-57.488732	270.150	-0.320	0.210	-0.020	270.100	-1.100	0.400																			1580000321.0	7.58	14.04
26/01/2020 00:58:42	26012020	260120	005842	270.150	12.418777	-57.488767	270.190	-0.280	-0.050	-0.220	270.160	-1.300	0.200																			1580000322.0	7.68	14.22
26/01/2020 00:58:43	26012020	260120	005843	270.200	12.418773	-57.488805	270.200	-0.150	-0.350	-0.290	270.200	-1.600	0.100																			1580000323.0	7.81	14.46
26/01/2020 00:58:44	26012020	260120	005844	270.180	12.418772	-57.488842	270.160	-0.030	-0.500	-0.190	270.180	-1.800	0.100																			1580000324.0	7.89	14.61
26/01/2020 00:58:45	26012020	260120	005845	270.130	12.418772	-57.488878	270.120	0.040	-0.440	-0.000	270.130	-1.800	0.300																			1580000325.0	7.81	14.46
26/01/2020 00:58:46	26012020	260120	005846	270.130	12.418772	-57.488915	270.180	0.040	-0.360	0.150	270.130	-1.800	0.400																			1580000326.0	7.60	14.08
26/01/2020 00:58:47	26012020	260120	005847	270.200	12.418773	-57.488950	270.280	0.030	-0.360	0.300	270.200	-1.700	0.600																			1580000327.0	7.51	13.91
26/01/2020 00:58:48	26012020	260120	005848	270.280	12.418775	-57.488987	270.330	0.000	-0.360	0.410	270.280	-1.700	0.700																			1580000328.0	7.63	14.13
26/01/2020 00:58:49	26012020	260120	005849	270.300	12.418775	-57.489023	270.310	-0.060	-0.180	0.530	270.300	-1.700	0.800																			1580000329.0	7.81	14.46
26/01/2020 00:58:50	26012020	260120	005850	270.240	12.418775	-57.489060	270.210	-0.140	0.210	0.640	270.240	-1.400	0.900																			1580000330.0	7.78	14.41
26/01/2020 00:58:51	26012020	260120	005851	270.130	12.418775	-57.489095	270.110	-0.150	0.500	0.650	270.130	-1.000	1.000																			1580000331.0	7.56	14.00
26/01/2020 00:58:52	26012020	260120	005852	270.050	12.418775	-57.489130	270.060	-0.000	0.440	0.460	270.050	-0.900	0.900																			1580000332.0	7.41	13.72
26/01/2020 00:58:53	26012020	260120	005853	270.020	12.418775	-57.489167	270.060	0.210	0.090	0.110	270.020	-1.100	0.600																			1580000333.0	7.57	14.02
26/01/2020 00:58:54	26012020	260120	005854	270.060	12.418775	-57.489203	270.130	0.330	-0.290	-0.270	270.060	-1.500	0.300																			1580000334.0	7.84	14.52
26/01/2020 00:58:55	26012020	260120	005855	270.160	12.418773	-57.489242	270.230	0.260	-0.480	-0.490	270.160	-1.800	-0.100																			1580000335.0	7.92	14.67
26/01/2020 00:58:56	26012020	260120	005856	270.270	12.418772	-57.489278	270.330	0.100	-0.480	-0.520	270.270	-1.900	-0.200																			1580000336.0	7.76	14.37
26/01/2020 00:58:57	26012020	260120	005857	270.380	12.418770	-57.489313	270.400	0.020	-0.410	-0.390	270.380	-1.800	-0.100																			1580000337.0	7.52	13.93
26/01/2020 00:58:58	26012020	260120	005858	270.420	12.418772	-57.489348	270.400	0.050	-0.410	-0.170	270.420	-1.800	0.100																			1580000338.0	7.43	13.76
26/01/2020 00:58:59	26012020	260120	005859	270.400	12.418772	-57.489383	270.350	0.050	-0.450	0.060	270.400	-1.800	0.300	1015.10	25.20	25.30	21.70	21.60	-1.00	81.00	80.00	389.00	24.70	88.00	5.40	35.00	6.60	14	3545.00	27.40	27.40	1580000339.0	7.54	13.96
26/01/2020 00:59:00	26012020	260120	005900	270.350	12.418773	-57.489420	270.310	-0.070	-0.420	0.220	270.350	-1.800	0.500																			1580000340.0	7.73	14.32
26/01/2020 00:59:01	26012020	260120	005901	270.310	12.418773	-57.489458	270.280	-0.300	-0.210	0.300	270.310	-1.700	0.600																			1580000341.0	7.82	14.48
26/01/2020 00:59:02	26012020	260120	005902	270.290	12.418773	-57.489495	270.310	-0.480	0.140	0.250	270.290	-1.400	0.600																			1580000342.0	7.76	14.37
26/01/2020 00:59:03	26012020	260120	005903	270.350	12.418773	-57.489530	270.470	-0.410	0.360	0.110	270.350	-1.100	0.500																			1580000343.0	7.57	14.02
26/01/2020 00:59:04	26012020	260120	005904	270.550	12.418772	-57.489567	270.660	-0.070	0.300	0.030	270.550	-1.000	0.400																			1580000344.0	7.54	13.96
26/01/2020 00:59:05	26012020	260120	005905	270.710	12.418770	-57.489603	270.730	0.300	0.060	0.200	270.710	-1.200	0.400																			1580000345.0	7.76	14.37
26/01/2020 00:59:06	26012020	260120	005906	270.720	12.418772	-57.489640	270.680	0.480	-0.220	0.490	270.720	-1.500	0.700																			1580000346.0	7.94	14.70
26/01/2020 00:59:07	26012020	260120	005907	270.630	12.418773	-57.489678	270.580	0.390	-0.450	0.650	270.630	-1.700	0.900																			1580000347.0	7.95	14.72
26/01/2020 00:59:08	26012020	260120	005908	270.530	12.418777	-57.489715	270.470	0.120	-0.510	0.550	270.530	-1.900	1.000																			1580000348.0	7.85	14.54
26/01/2020 00:59:09	26012020	260120	005909	270.410	12.418777	-57.489752	270.380	-0.170	-0.360	0.240	270.410	-1.800	0.800																			1580000349.0	7.70	14.26
26/01/2020 00:59:10	26012020	260120	005910	270.330	12.418777	-57.489787	270.310	-0.350	-0.060	-0.140	270.330	-1.600	0.400																			1580000350.0	7.55	13.98
26/01/2020 00:59:11	26012020	260120	005911	270.300	12.418773	-57.489822	270.300	-0.380	0.170	-0.470	270.300	-1.300	0.000																			1580000351.0	7.44	13.78
26/01/2020 00:59:12	26012020	260120	005912	270.310	12.418770	-57.489857	270.370	-0.260	0.150	-0.680	270.310	-1.200	-0.200																			1580000352.0	7.44	13.78
26/01/2020 00:59:13	26012020	260120	005913	270.410	12.418768	-57.489893	270.520	-0.030	-0.060	-0.740	270.410	-1.300	-0.400																			1580000353.0	7.62	14.11
26/01/2020 00:59:14	26012020	260120	005914	270.580	12.418767	-57.489930	270.650	0.250	-0.300	-0.570	270.580	-1.500	-0.300																			1580000354.0	7.84	14.52
26/01/2020 00:59:15	26012020	260120	005915	270.690	12.418768	-57.489967	270.690	0.480	-0.460	-0.130	270.690	-1.800	-0.000																			1580000355.0	7.91	14.65
26/01/2020 00:59:16	26012020	260120	005916	270.690	12.418770	-57.490005	270.690	0.540	-0.500	0.400	270.690	-1.900	0.500																			1580000356.0	7.87	14.58
26/01/2020 00:59:17	26012020	260120	005917	270.680	12.418773	-57.490042	270.680	0.370	-0.400	0.830	270.680	-1.800	1.000																			1580000357.0	7.79	14.43
26/01/2020 00:59:18	26012020	260120	005918	270.670	12.418777	-57.490078	270.640	0.040	-0.200	1.070	270.670	-1.700	1.300																			1580000358.0	7.70	14.26
26/01/2020 00:59:19	26012020	260120	005919	270.600	12.418780	-57.490113	270.520	-0.290	0.040	1.070	270.600	-1.400	1.400																			1580000359.0	7.60	14.08
26/01/2020 00:59:20	26012020	260120	005920	270.450	12.418782	-57.490148	270.370	-0.490	0.190	0.810	270.450	-1.200	1.300																			1580000360.0	7.55	13.98
26/01/2020 00:59:21	26012020	260120	005921	270.320	12.418780	-57.490185	270.280	-0.490	0.110	0.320	270.320	-1.200	0.900																			1580000361.0	7.57	14.02
26/01/2020 00:59:22	26012020	260120	005922	270.290	12.418778	-57.490222	270.300	-0.320	-0.100	-0.290	270.290	-1.400	0.400																			1580000362.0	7.74	14.33
26/01/2020 00:59:23	26012020	260120	005923	270.340	12.418773	-57.490258	270.360	-0.120	-0.200	-0.770	270.340	-1.500	-0.200																			1580000363.0	7.97	14.76
26/01/2020 00:59:24	26012020	260120	005924	270.410	12.418768	-57.490297	270.400	0.030	-0.100	-0.860	270.410	-1.500	-0.500																			1580000364.0	7.98	14.78
26/01/2020 00:59:25	26012020	260120	005925	270.430	12.418767	-57.490333	270.390	0.150	-0.090	-0.570	270.430	-1.400	-0.400																			1580000365.0	7.69	14.24
26/01/2020 00:59:26	26012020	260120	005926	270.420	12.418767	-57.490368	270.410	0.300	-0.320	-0.150	270.420	-1.500	0.000																			1580000366.0	7.54	13.96
26/01/2020 00:59:27	26012020	260120	005927	270.440	12.418770	-57.490405	270.440	0.410	-0.520	0.250	270.440	-1.800	0.400																			1580000367.0	7.78	14.41
26/01/2020 00:59:28	26012020	260120	005928	270.450	12.418773	-57.490443	270.450	0.360	-0.440	0.570	270.450	-1.900	0.800																			1580000368.0	7.99	14.80
26/01/2020 00:59:29	26012020	260120	005929	270.450	12.418777	-57.490480	270.440	0.130	-0.180	0.720	270.450	-1.700	1.000																			1580000369.0	7.82	14.48
26/01/2020 00:59:30	26012020	260120	005930	270.430	12.418780	-57.490515	270.450	-0.180	0.040	0.670	270.430	-1.400	1.100																			1580000370.0	7.55	13.98
26/01/2020 00:59:31	26012020	260120	005931	270.440	12.418780	-57.490550	270.450	-0.390	0.120	0.410	270.440	-1.300	0.900																			1580000371.0	7.50	13.89
26/01/2020 00:59:32	26012020	260120	005932	270.430	12.418778	-57.490587	270.400	-0.410	0.070	0.090	270.430	-1.300	0.600																			1580000372.0	7.63	14.13
26/01/2020 00:59:33	26012020	260120	005933	270.370	12.418775	-57.490623	270.330	-0.250	-0.040	-0.150	270.370	-1.400	0.300																			1580000373.0	7.79	14.43
26/01/2020 00:59:34	26012020	260120	005934	270.330	12.418772	-57.490660	270.350	0.010	-0.140	-0.260	270.330	-1.500	0.100																			1580000374.0	7.89	14.61
26/01/2020 00:59:35	26012020	260120	005935	270.380	12.418770	-57.490698	270.430	0.250	-0.210	-0.130	270.380	-1.500	0.100																			1580000375.0	7.87	14.58
26/01/2020 00:59:36	26012020	260120	005936	270.460	12.418770	-57.490735	270.490	0.410	-0.280	0.170	270.460	-1.600	0.400																			1580000376.0	7.78	14.41
26/01/2020 00:59:37	26012020	260120	005937	270.490	12.418772	-57.490772	270.440	0.430	-0.350	0.460	270.490	-1.700	0.700																			1580000377.0	7.77	14.39
26/01/2020 00:59:38	26012020	260120	005938	270.390	12.418777	-57.490808	270.320	0.260	-0.290	0.550	270.390	-1.700	0.900																			1580000378.0	7.81	14.46
26/01/2020 00:59:39	26012020	260120	005939	270.270	12.418778	-57.490845	270.230	-0.060	-0.130	0.360	270.270	-1.600	0.800																			1580000379.0	7.74	14.33
26/01/2020 00:59:40	26012020	260120	005940	270.210	12.418778	-57.490880	270.200	-0.370	-0.000	0.030	270.210	-1.400	0.500																			1580000380.0	7.58	14.04
26/01/2020 00:59:41	26012020	260120	005941	270.200	12.418777	-57.490917	270.220	-0.500	-0.080	-0.290	270.200	-1.400	0.200																			1580000381.0	7.55	13.98
26/01/2020 00:59:42	26012020	260120	005942	270.250	12.418775	-57.490952	270.320	-0.410	-0.310	-0.510	270.250	-1.500	-0.100																			1580000382.0	7.71	14.28
26/01/2020 00:59:43	26012020	260120	005943	270.380	12.418772	-57.490990	270.510	-0.210	-0.450	-0.630	270.380	-1.800	-0.200																			1580000383.0	7.96	14.74
26/01/2020 00:59:44	26012020	260120	005944	270.620	12.418770	-57.491028	270.750	-0.060	-0.310	-0.600	270.620	-1.800	-0.300																			1580000384.0	8.07	14.95
26/01/2020 00:59:45	26012020	260120	005945	270.840	12.418768	-57.491065	270.870	0.010	0.010	-0.310	270.840	-1.500	-0.100																			1580000385.0	7.88	14.59
26/01/2020 00:59:46	26012020	260120	005946	270.880	12.418770	-57.491102	270.760	0.100	0.260	0.230	270.880	-1.200	0.300																			1580000386.0	7.60	14.08
26/01/2020 00:59:47	26012020	260120	005947	270.690	12.418772	-57.491137	270.500	0.260	0.270	0.810	270.690	-1.100	0.900																			1580000387.0	7.52	13.93
26/01/2020 00:59:48	26012020	260120	005948	270.410	12.418775	-57.491173	270.250	0.460	0.010	1.190	270.410	-1.200	1.400																			1580000388.0	7.67	14.20
26/01/2020 00:59:49	26012020	260120	005949	270.170	12.418778	-57.491210	270.090	0.550	-0.320	1.230	270.170	-1.500	1.600																			1580000389.0	7.91	14.65
26/01/2020 00:59:50	26012020	260120	005950	270.040	12.418782	-57.491248	270.040	0.410	-0.450	0.980	270.040	-1.800	1.500																			1580000390.0	8.02	14.85
26/01/2020 00:59:51	26012020	260120	005951	270.030	12.418783	-57.491285	270.080	0.040	-0.420	0.520	270.030	-1.800	1.100																			1580000391.0	7.86	14.56
26/01/2020 00:59:52	26012020	260120	005952	270.100	12.418782	-57.491322	270.180	-0.370	-0.320	-0.040	270.100	-1.700	0.600																			1580000392.0	7.63	14.13
26/01/2020 00:59:53	26012020	260120	005953	270.230	12.418778	-57.491357	270.330	-0.580	-0.260	-0.630	270.230	-1.700	0.000																			1580000393.0	7.59	14.06
26/01/2020 00:59:54	26012020	260120	005954	270.400	12.418773	-57.491393	270.500	-0.510	-0.190	-1.130	270.400	-1.600	-0.500																			1580000394.0	7.70	14.26
26/01/2020 00:59:55	26012020	260120	005955	270.570	12.418770	-57.491430	270.610	-0.240	-0.110	-1.410	270.570	-1.500	-1.000																			1580000395.0	7.81	14.46
26/01/2020 00:59:56	26012020	260120	005956	270.670	12.418767	-57.491467	270.650	0.020	-0.060	-1.320	270.680	-1.400	-1.100																			1580000396.0	7.83	14.50
26/01/2020 00:59:57	26012020	260120	005957	270.680	12.418765	-57.491503	270.560	0.130	-0.040	-0.820	270.680	-1.400	-0.800																			1580000397.0	7.83	14.50
26/01/2020 00:59:58	26012020	260120	005958	270.510	12.418767	-57.491542	270.340	0.100	-0.020	-0.050	270.510	-1.400	-0.100																			1580000398.0	7.84	14.52
26/01/2020 00:59:59	26012020	260120	005959	270.270	12.418770	-57.491578	270.140	0.040	-0.020	0.790	270.270	-1.400	0.700	1015.10	25.20	25.30	21.80	21.80	-1.00	81.00	80.00	389.00	24.60	89.00	5.30	37.00	6.60	14	3616.00	27.30	27.30	1580000399.0	7.83	14.50
26/01/2020 01:00:00	26012020	260120	010000	270.070	12.418775	-57.491615	270.050	0.060	-0.060	1.410	270.070	-1.400	1.500																			1580000400.0	7.81	14.46
26/01/2020 01:00:01	26012020	260120	010001	270.020	12.418780	-57.491652	270.050	0.150	-0.150	1.690	270.020	-1.500	1.900																			1580000401.0	7.78	14.41
26/01/2020 01:00:02	26012020	260120	010002	270.020	12.418782	-57.491688	270.060	0.230	-0.320	1.640	270.020	-1.600	2.000																			1580000402.0	7.76	14.37
26/01/2020 01:00:03	26012020	260120	010003	270.000	12.418782	-57.491725	270.020	0.220	-0.430	1.280	270.000	-1.800	1.800																			1580000403.0	7.82	14.48
26/01/2020 01:00:04	26012020	260120	010004	269.990	12.418782	-57.491762	270.060	0.120	-0.310	0.630	269.990	-1.800	1.300																			1580000404.0	7.88	14.59
26/01/2020 01:00:05	26012020	260120	010005	270.080	12.418780	-57.491798	270.230	-0.020	-0.050	-0.210	270.080	-1.600	0.600																			1580000405.0	7.77	14.39
26/01/2020 01:00:06	26012020	260120	010006	270.310	12.418777	-57.491835	270.410	-0.160	0.110	-0.940	270.310	-1.300	-0.300																			1580000406.0	7.59	14.06
26/01/2020 01:00:07	26012020	260120	010007	270.450	12.418773	-57.491870	270.400	-0.250	0.020	-1.250	270.450	-1.300	-0.800																			1580000407.0	7.59	14.06
26/01/2020 01:00:08	26012020	260120	010008	270.400	12.418770	-57.491907	270.240	-0.260	-0.210	-1.180	270.370	-1.500	-0.900																			1580000408.0	7.80	14.45
26/01/2020 01:00:09	26012020	260120	010009	270.190	12.418768	-57.491945	270.060	-0.180	-0.370	-0.890	270.190	-1.700	-0.700																			1580000409.0	7.97	14.76
26/01/2020 01:00:10	26012020	260120	010010	270.020	12.418768	-57.491982	269.920	-0.040	-0.360	-0.480	270.020	-1.800	-0.300																			1580000410.0	7.98	14.78
26/01/2020 01:00:11	26012020	260120	010011	269.900	12.418770	-57.492020	269.850	0.080	-0.200	-0.040	269.900	-1.700	0.100																			1580000411.0	7.86	14.56
26/01/2020 01:00:12	26012020	260120	010012	269.880	12.418772	-57.492057	269.910	0.120	-0.050	0.340	269.880	-1.500	0.500																			1580000412.0	7.70	14.26
26/01/2020 01:00:13	26012020	260120	010013	269.980	12.418773	-57.492092	270.040	0.070	-0.010	0.680	269.980	-1.400	0.900																			1580000413.0	7.63	14.13
26/01/2020 01:00:14	26012020	260120	010014	270.070	12.418777	-57.492128	270.080	-0.030	-0.060	0.980	270.070	-1.400	1.200																			1580000414.0	7.71	14.28
26/01/2020 01:00:15	26012020	260120	010015	270.060	12.418778	-57.492165	270.000	-0.110	-0.090	1.180	270.060	-1.400	1.500																			1580000415.0	7.82	14.48
26/01/2020 01:00:16	26012020	260120	010016	269.980	12.418778	-57.492202	269.960	-0.120	-0.090	1.090	269.980	-1.500	1.500																			1580000416.0	7.85	14.54
26/01/2020 01:00:17	26012020	260120	010017	270.000	12.418778	-57.492240	270.090	-0.050	-0.120	0.670	270.000	-1.500	1.300																			1580000417.0	7.79	14.43
26/01/2020 01:00:18	26012020	260120	010018	270.180	12.418778	-57.492277	270.290	0.100	-0.240	0.120	270.180	-1.500	0.800																			1580000418.0	7.75	14.35
26/01/2020 01:00:19	26012020	260120	010019	270.360	12.418775	-57.492313	270.400	0.250	-0.400	-0.310	270.360	-1.700	0.200																			1580000419.0	7.82	14.48
26/01/2020 01:00:20	26012020	260120	010020	270.400	12.418772	-57.492350	270.300	0.280	-0.410	-0.490	270.400	-1.800	-0.100																			1580000420.0	7.93	14.69
26/01/2020 01:00:21	26012020	260120	010021	270.260	12.418770	-57.492388	270.100	0.150	-0.220	-0.490	270.260	-1.700	-0.100																			1580000421.0	7.90	14.63
26/01/2020 01:00:22	26012020	260120	010022	270.080	12.418770	-57.492423	269.900	-0.070	0.110	-0.430	270.040	-1.400	-0.100																			1580000422.0	7.73	14.32
26/01/2020 01:00:23	26012020	260120	010023	269.860	12.418770	-57.492460	269.790	-0.240	0.320	-0.380	269.860	-1.100	-0.000																			1580000423.0	7.55	13.98
26/01/2020 01:00:24	26012020	260120	010024	269.810	12.418772	-57.492495	269.840	-0.270	0.230	-0.360	269.810	-1.000	-0.000																			1580000424.0	7.50	13.89
26/01/2020 01:00:25	26012020	260120	010025	269.930	12.418772	-57.492532	270.040	-0.170	-0.180	-0.320	269.930	-1.300	0.000																			1580000425.0	7.67	14.20
26/01/2020 01:00:26	26012020	260120	010026	270.140	12.418772	-57.492570	270.250	-0.040	-0.660	-0.160	270.140	-1.800	0.100																			1580000426.0	7.96	14.74
26/01/2020 01:00:27	26012020	260120	010027	270.330	12.418772	-57.492608	270.410	-0.000	-0.870	0.060	270.330	-2.200	0.300																			1580000427.0	8.18	15.15
26/01/2020 01:00:28	26012020	260120	010028	270.480	12.418773	-57.492647	270.560	-0.070	-0.640	0.200	270.480	-2.200	0.500																			1580000428.0	8.12	15.04
26/01/2020 01:00:29	26012020	260120	010029	270.620	12.418773	-57.492683	270.690	-0.150	-0.100	0.260	270.620	-1.800	0.600																			1580000429.0	7.82	14.48
26/01/2020 01:00:30	26012020	260120	010030	270.730	12.418773	-57.492718	270.730	-0.120	0.380	0.290	270.730	-1.200	0.600																			1580000430.0	7.47	13.83
26/01/2020 01:00:31	26012020	260120	010031	270.740	12.418773	-57.492753	270.630	0.010	0.500	0.390	270.740	-0.900	0.700																			1580000431.0	7.39	13.69
26/01/2020 01:00:32	26012020	260120	010032	270.570	12.418773	-57.492790	270.340	0.150	0.280	0.560	270.570	-1.000	0.800																			1580000432.0	7.64	14.15
26/01/2020 01:00:33	26012020	260120	010033	270.230	12.418773	-57.492828	270.000	0.190	-0.050	0.680	270.230	-1.300	1.000																			1580000433.0	7.98	14.78
26/01/2020 01:00:34	26012020	260120	010034	269.910	12.418775	-57.492865	269.810	0.100	-0.340	0.580	269.910	-1.600	1.000																			1580000434.0	8.08	14.96
26/01/2020 01:00:35	26012020	260120	010035	269.810	12.418775	-57.492903	269.850	0.010	-0.520	0.270	269.810	-1.800	0.800																			1580000435.0	7.96	14.74
26/01/2020 01:00:36	26012020	260120	010036	269.910	12.418775	-57.492940	270.050	-0.000	-0.550	-0.120	269.910	-1.900	0.400																			1580000436.0	7.84	14.52
26/01/2020 01:00:37	26012020	260120	010037	270.170	12.418773	-57.492977	270.340	0.050	-0.440	-0.550	270.170	-1.900	0.000																			1580000437.0	7.75	14.35
26/01/2020 01:00:38	26012020	260120	010038	270.470	12.418772	-57.493013	270.590	0.090	-0.280	-0.880	270.470	-1.700	-0.400																			1580000438.0	7.68	14.22
26/01/2020 01:00:39	26012020	260120	010039	270.660	12.418770	-57.493050	270.620	0.050	-0.110	-0.950	270.660	-1.600	-0.600																			1580000439.0	7.70	14.26
26/01/2020 01:00:40	26012020	260120	010040	270.620	12.418768	-57.493087	270.490	-0.080	0.030	-0.780	270.620	-1.400	-0.500																			1580000440.0	7.76	14.37
26/01/2020 01:00:41	26012020	260120	010041	270.460	12.418768	-57.493123	270.330	-0.220	0.160	-0.450	270.460	-1.300	-0.300																			1580000441.0	7.78	14.41
26/01/2020 01:00:42	26012020	260120	010042	270.280	12.418770	-57.493160	270.180	-0.280	0.280	0.030	270.280	-1.100	0.100																			1580000442.0	7.79	14.43
26/01/2020 01:00:43	26012020	260120	010043	270.150	12.418772	-57.493197	270.090	-0.200	0.240	0.570	270.150	-1.100	0.700																			1580000443.0	7.70	14.26
26/01/2020 01:00:44	26012020	260120	010044	270.070	12.418773	-57.493233	270.030	-0.010	-0.110	1.020	270.070	-1.300	1.200																			1580000444.0	7.68	14.22
26/01/2020 01:00:45	26012020	260120	010045	270.000	12.418777	-57.493270	270.000	0.180	-0.600	1.200	270.000	-1.700	1.500																			1580000445.0	7.87	14.58
26/01/2020 01:00:46	26012020	260120	010046	269.990	12.418778	-57.493308	270.060	0.280	-0.870	1.070	269.990	-2.200	1.500																			1580000446.0	8.13	15.06
26/01/2020 01:00:47	26012020	260120	010047	270.110	12.418778	-57.493347	270.240	0.280	-0.690	0.690	270.110	-2.200	1.300																			1580000447.0	8.12	15.04
26/01/2020 01:00:48	26012020	260120	010048	270.330	12.418777	-57.493383	270.440	0.190	-0.210	0.190	270.330	-1.800	0.800																			1580000448.0	7.84	14.52
26/01/2020 01:00:49	26012020	260120	010049	270.510	12.418777	-57.493420	270.530	0.020	0.200	-0.280	270.510	-1.300	0.300																			1580000449.0	7.52	13.93
26/01/2020 01:00:50	26012020	260120	010050	270.570	12.418775	-57.493455	270.490	-0.180	0.320	-0.600	270.570	-1.100	-0.100																			1580000450.0	7.47	13.83
26/01/2020 01:00:51	26012020	260120	010051	270.470	12.418772	-57.493492	270.280	-0.360	0.220	-0.660	270.470	-1.100	-0.300																			1580000451.0	7.72	14.30
26/01/2020 01:00:52	26012020	260120	010052	270.250	12.418770	-57.493528	270.100	-0.390	0.030	-0.530	270.250	-1.200	-0.200																			1580000452.0	7.93	14.69
26/01/2020 01:00:53	26012020	260120	010053	270.100	12.418768	-57.493567	270.050	-0.230	-0.200	-0.350	270.100	-1.500	-0.100																			1580000453.0	7.96	14.74
26/01/2020 01:00:54	26012020	260120	010054	270.080	12.418768	-57.493603	270.060	0.060	-0.320	-0.130	270.080	-1.700	0.100																			1580000454.0	7.99	14.80
26/01/2020 01:00:55	26012020	260120	010055	270.080	12.418768	-57.493642	270.030	0.300	-0.300	0.180	270.080	-1.700	0.400																			1580000455.0	7.95	14.72
26/01/2020 01:00:56	26012020	260120	010056	270.040	12.418770	-57.493678	270.010	0.400	-0.260	0.490	270.040	-1.600	0.700																			1580000456.0	7.81	14.46
26/01/2020 01:00:57	26012020	260120	010057	270.020	12.418773	-57.493715	270.030	0.400	-0.250	0.680	270.020	-1.600	1.000																			1580000457.0	7.74	14.33
26/01/2020 01:00:58	26012020	260120	010058	270.050	12.418777	-57.493752	270.110	0.310	-0.160	0.700	270.060	-1.600	1.100																			1580000458.0	7.80	14.45
26/01/2020 01:00:59	26012020	260120	010059	270.160	12.418778	-57.493788	270.230	0.100	-0.050	0.570	270.160	-1.500	1.000	1015.10	25.20	25.30	21.70	21.60	-1.00	80.00	80.00	389.00	24.60	89.00	5.50	36.00	6.80	13	3592.00	27.30	27.30	1580000459.0	7.78	14.41
26/01/2020 01:01:00	26012020	260120	010100	270.280	12.418778	-57.493825	270.330	-0.160	-0.060	0.370	270.280	-1.400	0.800																			1580000460.0	7.67	14.20
26/01/2020 01:01:01	26012020	260120	010101	270.340	12.418777	-57.493862	270.310	-0.350	-0.230	0.170	270.340	-1.500	0.600																			1580000461.0	7.71	14.28
26/01/2020 01:01:02	26012020	260120	010102	270.300	12.418775	-57.493898	270.240	-0.370	-0.360	-0.080	270.300	-1.700	0.400																			1580000462.0	7.91	14.65
26/01/2020 01:01:03	26012020	260120	010103	270.250	12.418773	-57.493937	270.190	-0.240	-0.270	-0.340	270.250	-1.700	0.200																			1580000463.0	8.05	14.91
26/01/2020 01:01:04	26012020	260120	010104	270.220	12.418770	-57.493975	270.160	-0.010	-0.020	-0.480	270.220	-1.500	-0.100																			1580000464.0	7.93	14.69
26/01/2020 01:01:05	26012020	260120	010105	270.170	12.418768	-57.494010	270.080	0.190	0.170	-0.390	270.170	-1.300	-0.100																			1580000465.0	7.72	14.30
26/01/2020 01:01:06	26012020	260120	010106	270.100	12.418768	-57.494047	270.030	0.250	0.120	-0.180	270.100	-1.200	0.100																			1580000466.0	7.65	14.17
26/01/2020 01:01:07	26012020	260120	010107	270.070	12.418770	-57.494083	270.060	0.160	-0.150	0.020	270.070	-1.400	0.300																			1580000467.0	7.77	14.39
26/01/2020 01:01:08	26012020	260120	010108	270.120	12.418772	-57.494122	270.150	0.050	-0.500	0.180	270.120	-1.700	0.500																			1580000468.0	7.96	14.74
26/01/2020 01:01:09	26012020	260120	010109	270.210	12.418773	-57.494160	270.240	-0.010	-0.700	0.300	270.210	-2.000	0.600																			1580000469.0	8.07	14.95
26/01/2020 01:01:10	26012020	260120	010110	270.280	12.418775	-57.494198	270.320	-0.100	-0.540	0.400	270.290	-2.000	0.700																			1580000470.0	8.09	14.98
26/01/2020 01:01:11	26012020	260120	010111	270.350	12.418775	-57.494235	270.370	-0.230	-0.080	0.470	270.350	-1.700	0.800																			1580000471.0	7.90	14.63
26/01/2020 01:01:12	26012020	260120	010112	270.370	12.418775	-57.494272	270.320	-0.320	0.370	0.480	270.360	-1.200	0.800																			1580000472.0	7.61	14.09
26/01/2020 01:01:13	26012020	260120	010113	270.280	12.418773	-57.494307	270.170	-0.230	0.520	0.440	270.280	-0.900	0.800																			1580000473.0	7.46	13.82
26/01/2020 01:01:14	26012020	260120	010114	270.120	12.418773	-57.494342	270.040	0.030	0.230	0.320	270.120	-1.000	0.800																			1580000474.0	7.59	14.06
26/01/2020 01:01:15	26012020	260120	010115	270.010	12.418773	-57.494380	269.960	0.330	-0.210	0.180	270.010	-1.400	0.600																			1580000475.0	7.94	14.70
26/01/2020 01:01:16	26012020	260120	010116	269.940	12.418772	-57.494418	269.880	0.450	-0.460	0.100	269.940	-1.700	0.500																			1580000476.0	8.21	15.20
26/01/2020 01:01:17	26012020	260120	010117	269.860	12.418772	-57.494457	269.820	0.360	-0.460	0.060	269.860	-1.800	0.400																			1580000477.0	8.10	15.00
26/01/2020 01:01:18	26012020	260120	010118	269.840	12.418773	-57.494493	269.880	0.170	-0.380	-0.060	269.840	-1.800	0.400																			1580000478.0	7.78	14.41
26/01/2020 01:01:19	26012020	260120	010119	269.930	12.418773	-57.494530	270.000	-0.010	-0.350	-0.250	269.930	-1.700	0.200																			1580000479.0	7.63	14.13
26/01/2020 01:01:20	26012020	260120	010120	270.090	12.418773	-57.494567	270.190	-0.130	-0.310	-0.480	270.090	-1.700	-0.000																			1580000480.0	7.72	14.30
26/01/2020 01:01:21	26012020	260120	010121	270.280	12.418772	-57.494603	270.350	-0.230	-0.190	-0.620	270.280	-1.600	-0.200																			1580000481.0	7.85	14.54
26/01/2020 01:01:22	26012020	260120	010122	270.390	12.418770	-57.494642	270.370	-0.300	-0.060	-0.570	270.390	-1.500	-0.300																			1580000482.0	7.86	14.56
26/01/2020 01:01:23	26012020	260120	010123	270.350	12.418770	-57.494678	270.240	-0.310	-0.010	-0.310	270.350	-1.400	-0.100																			1580000483.0	7.82	14.48
26/01/2020 01:01:24	26012020	260120	010124	270.170	12.418768	-57.494715	270.000	-0.220	-0.050	0.110	270.170	-1.400	0.300																			1580000484.0	7.85	14.54
26/01/2020 01:01:25	26012020	260120	010125	269.900	12.418770	-57.494753	269.770	-0.070	-0.110	0.570	269.900	-1.500	0.700																			1580000485.0	7.94	14.70
26/01/2020 01:01:26	26012020	260120	010126	269.710	12.418772	-57.494790	269.670	0.070	-0.070	0.950	269.710	-1.500	1.100																			1580000486.0	7.99	14.80
26/01/2020 01:01:27	26012020	260120	010127	269.650	12.418773	-57.494828	269.670	0.150	0.050	1.150	269.650	-1.400	1.400																			1580000487.0	7.94	14.70
26/01/2020 01:01:28	26012020	260120	010128	269.670	12.418775	-57.494865	269.710	0.170	0.120	1.190	269.670	-1.300	1.500																			1580000488.0	7.78	14.41
26/01/2020 01:01:29	26012020	260120	010129	269.720	12.418777	-57.494902	269.780	0.180	-0.030	0.940	269.720	-1.300	1.500																			1580000489.0	7.69	14.24
26/01/2020 01:01:30	26012020	260120	010130	269.810	12.418777	-57.494938	269.880	0.210	-0.370	0.400	269.810	-1.600	1.000																			1580000490.0	7.77	14.39
26/01/2020 01:01:31	26012020	260120	010131	269.920	12.418775	-57.494975	269.970	0.250	-0.630	-0.210	269.920	-1.900	0.400																			1580000491.0	8.01	14.83
26/01/2020 01:01:32	26012020	260120	010132	270.010	12.418772	-57.495013	270.020	0.190	-0.570	-0.670	270.010	-2.000	-0.100																			1580000492.0	8.14	15.08
26/01/2020 01:01:33	26012020	260120	010133	270.070	12.418768	-57.495052	270.090	-0.030	-0.270	-0.910	270.070	-1.800	-0.500																			1580000493.0	7.98	14.78
26/01/2020 01:01:34	26012020	260120	010134	270.130	12.418767	-57.495088	270.130	-0.300	-0.000	-0.910	270.150	-1.500	-0.600																			1580000494.0	7.69	14.24
26/01/2020 01:01:35	26012020	260120	010135	270.150	12.418765	-57.495123	270.080	-0.410	0.140	-0.670	270.150	-1.300	-0.400																			1580000495.0	7.61	14.09
26/01/2020 01:01:36	26012020	260120	010136	270.040	12.418767	-57.495160	269.930	-0.310	0.200	-0.290	270.040	-1.200	-0.100																			1580000496.0	7.76	14.37
26/01/2020 01:01:37	26012020	260120	010137	269.860	12.418767	-57.495198	269.750	-0.100	0.140	0.140	269.860	-1.200	0.300																			1580000497.0	7.84	14.52
26/01/2020 01:01:38	26012020	260120	010138	269.710	12.418768	-57.495235	269.660	0.100	-0.110	0.510	269.710	-1.300	0.700																			1580000498.0	7.86	14.56
26/01/2020 01:01:39	26012020	260120	010139	269.640	12.418768	-57.495273	269.670	0.230	-0.450	0.760	269.640	-1.700	1.000																			1580000499.0	7.98	14.78
26/01/2020 01:01:40	26012020	260120	010140	269.710	12.418770	-57.495312	269.800	0.270	-0.610	0.830	269.710	-1.900	1.200																			1580000500.0	8.13	15.06
26/01/2020 01:01:41	26012020	260120	010141	269.880	12.418773	-57.495350	270.010	0.200	-0.510	0.710	269.880	-1.900	1.100																			1580000501.0	8.10	15.00
26/01/2020 01:01:42	26012020	260120	010142	270.110	12.418773	-57.495387	270.210	0.040	-0.260	0.490	270.110	-1.800	1.000																			1580000502.0	7.90	14.63
26/01/2020 01:01:43	26012020	260120	010143	270.290	12.418773	-57.495423	270.300	-0.170	0.050	0.260	270.290	-1.500	0.700																			1580000503.0	7.77	14.39
26/01/2020 01:01:44	26012020	260120	010144	270.310	12.418772	-57.495460	270.210	-0.350	0.330	0.030	270.310	-1.200	0.500																			1580000504.0	7.72	14.30
26/01/2020 01:01:45	26012020	260120	010145	270.180	12.418770	-57.495497	270.020	-0.380	0.360	-0.190	270.180	-1.000	0.300																			1580000505.0	7.68	14.22
26/01/2020 01:01:46	26012020	260120	010146	269.950	12.418767	-57.495533	269.760	-0.210	0.070	-0.350	269.950	-1.100	0.100																			1580000506.0	7.73	14.32
26/01/2020 01:01:47	26012020	260120	010147	269.710	12.418763	-57.495570	269.590	0.070	-0.330	-0.380	269.710	-1.500	-0.000																			1580000507.0	7.99	14.80
26/01/2020 01:01:48	26012020	260120	010148	269.600	12.418762	-57.495608	269.580	0.310	-0.550	-0.280	269.580	-1.800	0.000																			1580000508.0	8.19	15.17
26/01/2020 01:01:49	26012020	260120	010149	269.630	12.418762	-57.495648	269.680	0.420	-0.470	-0.050	269.630	-1.900	0.200																			1580000509.0	8.14	15.08
26/01/2020 01:01:50	26012020	260120	010150	269.770	12.418765	-57.495685	269.820	0.380	-0.240	0.260	269.770	-1.700	0.500																			1580000510.0	7.88	14.59
26/01/2020 01:01:51	26012020	260120	010151	269.890	12.418768	-57.495722	269.920	0.210	-0.060	0.500	269.890	-1.500	0.800																			1580000511.0	7.69	14.24
26/01/2020 01:01:52	26012020	260120	010152	269.970	12.418770	-57.495757	269.980	-0.050	0.000	0.520	269.970	-1.400	0.900																			1580000512.0	7.68	14.22
26/01/2020 01:01:53	26012020	260120	010153	270.020	12.418772	-57.495793	269.980	-0.280	-0.070	0.370	270.020	-1.400	0.800																			1580000513.0	7.77	14.39
26/01/2020 01:01:54	26012020	260120	010154	269.990	12.418770	-57.495832	269.890	-0.340	-0.280	0.200	269.990	-1.500	0.600																			1580000514.0	7.89	14.61
26/01/2020 01:01:55	26012020	260120	010155	269.870	12.418768	-57.495870	269.780	-0.230	-0.460	0.030	269.870	-1.800	0.500																			1580000515.0	8.05	14.91
26/01/2020 01:01:56	26012020	260120	010156	269.800	12.418767	-57.495908	269.810	-0.080	-0.430	-0.160	269.800	-1.800	0.300																			1580000516.0	8.18	15.15
26/01/2020 01:01:57	26012020	260120	010157	269.880	12.418763	-57.495947	269.930	-0.020	-0.180	-0.290	269.880	-1.700	0.100																			1580000517.0	8.07	14.95
26/01/2020 01:01:58	26012020	260120	010158	270.010	12.418763	-57.495983	270.030	-0.030	0.140	-0.220	270.010	-1.400	0.100																			1580000518.0	7.84	14.52
26/01/2020 01:01:59	26012020	260120	010159	270.080	12.418763	-57.496020	270.070	-0.020	0.300	-0.010	270.080	-1.100	0.200	1015.10	25.30	25.30	21.70	21.70	-1.00	80.00	80.00	389.00	24.60	91.00	5.20	39.00	6.70	14	3496.00	27.30	27.30	1580000519.0	7.69	14.24
26/01/2020 01:02:00	26012020	260120	010200	270.080	12.418765	-57.496057	270.050	0.050	0.230	0.190	270.080	-1.100	0.500																			1580000520.0	7.73	14.32
26/01/2020 01:02:01	26012020	260120	010201	270.030	12.418765	-57.496093	269.970	0.130	0.010	0.370	270.030	-1.200	0.600																			1580000521.0	7.92	14.67
26/01/2020 01:02:02	26012020	260120	010202	269.950	12.418765	-57.496132	269.880	0.160	-0.290	0.440	269.930	-1.500	0.800																			1580000522.0	8.04	14.89
26/01/2020 01:02:03	26012020	260120	010203	269.880	12.418767	-57.496170	269.870	0.140	-0.530	0.320	269.880	-1.800	0.800																			1580000523.0	8.07	14.95
26/01/2020 01:02:04	26012020	260120	010204	269.910	12.418767	-57.496208	269.940	0.100	-0.570	0.120	269.910	-1.900	0.600																			1580000524.0	8.04	14.89
26/01/2020 01:02:05	26012020	260120	010205	270.010	12.418765	-57.496245	270.020	0.030	-0.390	0.030	270.010	-1.900	0.400																			1580000525.0	7.92	14.67
26/01/2020 01:02:06	26012020	260120	010206	270.060	12.418765	-57.496282	270.020	-0.080	-0.140	0.080	270.060	-1.600	0.400																			1580000526.0	7.75	14.35
26/01/2020 01:02:07	26012020	260120	010207	270.020	12.418765	-57.496318	269.950	-0.200	0.070	0.190	270.020	-1.400	0.500																			1580000527.0	7.66	14.19
26/01/2020 01:02:08	26012020	260120	010208	269.940	12.418765	-57.496355	269.910	-0.240	0.140	0.210	269.940	-1.200	0.600																			1580000528.0	7.71	14.28
26/01/2020 01:02:09	26012020	260120	010209	269.920	12.418763	-57.496392	269.940	-0.130	0.020	0.120	269.920	-1.300	0.500																			1580000529.0	7.82	14.48
26/01/2020 01:02:10	26012020	260120	010210	269.980	12.418762	-57.496430	270.010	0.100	-0.230	0.040	269.980	-1.500	0.400																			1580000530.0	7.97	14.76
26/01/2020 01:02:11	26012020	260120	010211	270.050	12.418762	-57.496468	270.100	0.330	-0.380	-0.020	270.050	-1.700	0.400																			1580000531.0	8.14	15.08
26/01/2020 01:02:12	26012020	260120	010212	270.160	12.418763	-57.496507	270.250	0.410	-0.360	-0.080	270.160	-1.800	0.300																			1580000532.0	8.15	15.09
26/01/2020 01:02:13	26012020	260120	010213	270.330	12.418763	-57.496543	270.400	0.260	-0.280	-0.100	270.330	-1.700	0.300																			1580000533.0	7.96	14.74
26/01/2020 01:02:14	26012020	260120	010214	270.440	12.418765	-57.496582	270.440	-0.040	-0.230	0.020	270.440	-1.600	0.300																			1580000534.0	7.82	14.48
26/01/2020 01:02:15	26012020	260120	010215	270.400	12.418765	-57.496618	270.300	-0.330	-0.110	0.230	270.400	-1.600	0.500																			1580000535.0	7.86	14.56
26/01/2020 01:02:16	26012020	260120	010216	270.200	12.418765	-57.496655	270.080	-0.510	0.120	0.400	270.200	-1.400	0.700																			1580000536.0	7.92	14.67
26/01/2020 01:02:17	26012020	260120	010217	270.000	12.418765	-57.496693	269.950	-0.470	0.250	0.380	270.000	-1.200	0.800																			1580000537.0	7.80	14.45
26/01/2020 01:02:18	26012020	260120	010218	269.950	12.418763	-57.496730	269.970	-0.210	0.090	0.200	269.950	-1.200	0.700																			1580000538.0	7.73	14.32
26/01/2020 01:02:19	26012020	260120	010219	270.030	12.418762	-57.496767	270.110	0.160	-0.260	-0.010	270.030	-1.500	0.500																			1580000539.0	7.90	14.63
26/01/2020 01:02:20	26012020	260120	010220	270.190	12.418760	-57.496805	270.300	0.440	-0.500	-0.160	270.190	-1.800	0.300																			1580000540.0	8.14	15.08
26/01/2020 01:02:21	26012020	260120	010221	270.390	12.418760	-57.496843	270.450	0.450	-0.410	-0.140	270.390	-1.900	0.200																			1580000541.0	8.16	15.11
26/01/2020 01:02:22	26012020	260120	010222	270.490	12.418760	-57.496882	270.440	0.250	-0.090	0.110	270.490	-1.600	0.300																			1580000542.0	7.93	14.69
26/01/2020 01:02:23	26012020	260120	010223	270.400	12.418762	-57.496917	270.270	0.010	0.140	0.420	270.400	-1.300	0.600																			1580000543.0	7.63	14.13
26/01/2020 01:02:24	26012020	260120	010224	270.210	12.418765	-57.496953	270.110	-0.090	0.060	0.500	270.210	-1.200	0.900																			1580000544.0	7.54	13.96
26/01/2020 01:02:25	26012020	260120	010225	270.110	12.418765	-57.496990	270.110	-0.050	-0.220	0.310	270.110	-1.400	0.800																			1580000545.0	7.78	14.41
26/01/2020 01:02:26	26012020	260120	010226	270.140	12.418765	-57.497028	270.220	0.030	-0.450	-0.010	270.160	-1.700	0.500																			1580000546.0	8.10	15.00
26/01/2020 01:02:27	26012020	260120	010227	270.300	12.418763	-57.497067	270.370	0.070	-0.520	-0.300	270.300	-1.900	0.200																			1580000547.0	8.18	15.15
26/01/2020 01:02:28	26012020	260120	010228	270.450	12.418762	-57.497105	270.470	0.080	-0.390	-0.390	270.450	-1.900	-0.000																			1580000548.0	8.05	14.91
26/01/2020 01:02:29	26012020	260120	010229	270.500	12.418760	-57.497142	270.460	0.040	-0.110	-0.260	270.500	-1.600	0.000																			1580000549.0	7.90	14.63
26/01/2020 01:02:30	26012020	260120	010230	270.460	12.418760	-57.497178	270.420	-0.090	0.140	-0.020	270.460	-1.300	0.200																			1580000550.0	7.77	14.39
26/01/2020 01:02:31	26012020	260120	010231	270.410	12.418762	-57.497215	270.350	-0.230	0.140	0.200	270.410	-1.200	0.400																			1580000551.0	7.69	14.24
26/01/2020 01:02:32	26012020	260120	010232	270.320	12.418763	-57.497252	270.230	-0.270	-0.090	0.340	270.320	-1.300	0.600																			1580000552.0	7.81	14.46
26/01/2020 01:02:33	26012020	260120	010233	270.210	12.418765	-57.497290	270.160	-0.240	-0.320	0.290	270.210	-1.600	0.700																			1580000553.0	8.07	14.95
26/01/2020 01:02:34	26012020	260120	010234	270.170	12.418763	-57.497328	270.180	-0.200	-0.360	0.160	270.170	-1.700	0.600																			1580000554.0	8.21	15.20
26/01/2020 01:02:35	26012020	260120	010235	270.210	12.418762	-57.497367	270.230	-0.170	-0.250	0.110	270.210	-1.700	0.500																			1580000555.0	8.09	14.98
26/01/2020 01:02:36	26012020	260120	010236	270.250	12.418760	-57.497405	270.280	-0.080	-0.060	0.150	270.260	-1.500	0.500																			1580000556.0	7.89	14.61
26/01/2020 01:02:37	26012020	260120	010237	270.320	12.418760	-57.497442	270.340	0.070	0.150	0.230	270.320	-1.300	0.500																			1580000557.0	7.82	14.48
26/01/2020 01:02:38	26012020	260120	010238	270.350	12.418762	-57.497478	270.360	0.250	0.220	0.290	270.360	-1.200	0.600																			1580000558.0	7.76	14.37
26/01/2020 01:02:39	26012020	260120	010239	270.360	12.418762	-57.497515	270.330	0.410	0.020	0.370	270.360	-1.200	0.700																			1580000559.0	7.74	14.33
26/01/2020 01:02:40	26012020	260120	010240	270.300	12.418763	-57.497552	270.220	0.470	-0.290	0.460	270.300	-1.500	0.800																			1580000560.0	7.89	14.61
26/01/2020 01:02:41	26012020	260120	010241	270.170	12.418763	-57.497590	270.060	0.360	-0.460	0.470	270.170	-1.800	0.800																			1580000561.0	8.09	14.98
26/01/2020 01:02:42	26012020	260120	010242	270.020	12.418765	-57.497628	269.960	0.150	-0.420	0.290	270.020	-1.800	0.800																			1580000562.0	8.04	14.89
26/01/2020 01:02:43	26012020	260120	010243	269.990	12.418765	-57.497665	270.010	-0.040	-0.340	-0.040	269.990	-1.800	0.500																			1580000563.0	7.84	14.52
26/01/2020 01:02:44	26012020	260120	010244	270.070	12.418763	-57.497702	270.140	-0.120	-0.310	-0.310	270.070	-1.700	0.200																			1580000564.0	7.75	14.35
26/01/2020 01:02:45	26012020	260120	010245	270.210	12.418763	-57.497740	270.270	-0.130	-0.310	-0.420	270.210	-1.700	-0.000																			1580000565.0	7.85	14.54
26/01/2020 01:02:46	26012020	260120	010246	270.340	12.418762	-57.497777	270.350	-0.190	-0.170	-0.380	270.340	-1.600	-0.100																			1580000566.0	8.02	14.85
26/01/2020 01:02:47	26012020	260120	010247	270.390	12.418762	-57.497815	270.380	-0.320	0.090	-0.270	270.390	-1.400	0.000																			1580000567.0	8.01	14.83
26/01/2020 01:02:48	26012020	260120	010248	270.390	12.418762	-57.497852	270.360	-0.420	0.240	-0.180	270.390	-1.200	0.100																			1580000568.0	7.81	14.46
26/01/2020 01:02:49	26012020	260120	010249	270.340	12.418760	-57.497888	270.260	-0.410	0.170	-0.030	270.340	-1.200	0.200																			1580000569.0	7.74	14.33
26/01/2020 01:02:50	26012020	260120	010250	270.250	12.418760	-57.497927	270.120	-0.270	-0.070	0.230	270.230	-1.300	0.500																			1580000570.0	7.90	14.63
26/01/2020 01:02:51	26012020	260120	010251	270.070	12.418760	-57.497963	270.000	-0.010	-0.350	0.470	270.070	-1.600	0.700																			1580000571.0	8.04	14.89
26/01/2020 01:02:52	26012020	260120	010252	269.980	12.418760	-57.498002	269.980	0.320	-0.590	0.580	269.970	-1.900	0.900																			1580000572.0	8.10	15.00
26/01/2020 01:02:53	26012020	260120	010253	270.020	12.418762	-57.498042	270.100	0.520	-0.590	0.630	270.020	-2.000	1.000																			1580000573.0	8.14	15.08
26/01/2020 01:02:54	26012020	260120	010254	270.170	12.418763	-57.498080	270.270	0.450	-0.300	0.690	270.170	-1.900	1.000																			1580000574.0	8.09	14.98
26/01/2020 01:02:55	26012020	260120	010255	270.340	12.418765	-57.498117	270.370	0.210	0.110	0.770	270.340	-1.500	1.100																			1580000575.0	7.83	14.50
26/01/2020 01:02:56	26012020	260120	010256	270.380	12.418767	-57.498152	270.320	-0.040	0.340	0.720	270.380	-1.100	1.100																			1580000576.0	7.62	14.11
26/01/2020 01:02:57	26012020	260120	010257	270.280	12.418767	-57.498188	270.140	-0.160	0.230	0.390	270.280	-1.100	0.900																			1580000577.0	7.63	14.13
26/01/2020 01:02:58	26012020	260120	010258	270.110	12.418767	-57.498225	269.990	-0.190	-0.080	-0.220	270.110	-1.300	0.500																			1580000578.0	7.88	14.59
26/01/2020 01:02:59	26012020	260120	010259	269.990	12.418763	-57.498263	269.890	-0.200	-0.340	-0.820	269.990	-1.600	-0.200	1015.10	25.30	25.40	21.60	21.60	-1.00	80.00	79.00	389.00	24.60	85.00	4.90	37.00	6.10	13	3470.00	27.30	27.30	1580000579.0	8.16	15.11
26/01/2020 01:03:00	26012020	260120	010300	269.940	12.418758	-57.498303	269.880	-0.200	-0.410	-1.160	269.940	-1.800	-0.700																			1580000580.0	8.20	15.19
26/01/2020 01:03:01	26012020	260120	010301	269.970	12.418755	-57.498340	269.990	-0.130	-0.360	-1.180	269.970	-1.800	-0.800																			1580000581.0	8.01	14.83
26/01/2020 01:03:02	26012020	260120	010302	270.120	12.418752	-57.498377	270.160	0.020	-0.230	-0.900	270.120	-1.700	-0.700																			1580000582.0	7.83	14.50
26/01/2020 01:03:03	26012020	260120	010303	270.270	12.418753	-57.498415	270.290	0.190	-0.080	-0.350	270.270	-1.500	-0.300																			1580000583.0	7.80	14.45
26/01/2020 01:03:04	26012020	260120	010304	270.350	12.418757	-57.498452	270.340	0.260	0.010	0.310	270.350	-1.400	0.300																			1580000584.0	7.82	14.48
26/01/2020 01:03:05	26012020	260120	010305	270.340	12.418760	-57.498488	270.290	0.220	-0.110	0.920	270.340	-1.400	1.000																			1580000585.0	7.84	14.52
26/01/2020 01:03:06	26012020	260120	010306	270.220	12.418763	-57.498525	270.130	0.120	-0.370	1.320	270.220	-1.600	1.500																			1580000586.0	7.96	14.74
26/01/2020 01:03:07	26012020	260120	010307	270.050	12.418767	-57.498563	269.980	0.010	-0.470	1.380	270.050	-1.800	1.800																			1580000587.0	8.16	15.11
26/01/2020 01:03:08	26012020	260120	010308	269.940	12.418768	-57.498602	269.930	-0.100	-0.310	1.090	269.940	-1.800	1.600																			1580000588.0	8.15	15.09
26/01/2020 01:03:09	26012020	260120	010309	269.950	12.418768	-57.498640	270.030	-0.220	-0.120	0.500	269.950	-1.600	1.200																			1580000589.0	7.91	14.65
26/01/2020 01:03:10	26012020	260120	010310	270.110	12.418765	-57.498677	270.250	-0.320	0.000	-0.200	270.110	-1.400	0.500																			1580000590.0	7.80	14.45
26/01/2020 01:03:11	26012020	260120	010311	270.340	12.418760	-57.498713	270.440	-0.340	0.070	-0.720	270.340	-1.300	-0.100																			1580000591.0	7.91	14.65
26/01/2020 01:03:12	26012020	260120	010312	270.500	12.418757	-57.498752	270.470	-0.220	0.090	-0.820	270.500	-1.300	-0.500																			1580000592.0	7.98	14.78
26/01/2020 01:03:13	26012020	260120	010313	270.470	12.418753	-57.498788	270.360	-0.000	0.050	-0.550	270.470	-1.300	-0.300																			1580000593.0	7.96	14.74
26/01/2020 01:03:14	26012020	260120	010314	270.320	12.418753	-57.498827	270.220	0.170	-0.060	-0.200	270.320	-1.400	0.000																			1580000594.0	7.94	14.70
26/01/2020 01:03:15	26012020	260120	010315	270.190	12.418755	-57.498863	270.130	0.230	-0.190	0.060	270.190	-1.500	0.300																			1580000595.0	7.95	14.72
26/01/2020 01:03:16	26012020	260120	010316	270.120	12.418757	-57.498902	270.110	0.210	-0.310	0.170	270.110	-1.600	0.500																			1580000596.0	7.95	14.72
26/01/2020 01:03:17	26012020	260120	010317	270.110	12.418758	-57.498938	270.130	0.190	-0.400	0.240	270.110	-1.700	0.600																			1580000597.0	7.90	14.63
26/01/2020 01:03:18	26012020	260120	010318	270.140	12.418758	-57.498977	270.190	0.210	-0.420	0.310	270.140	-1.800	0.600																			1580000598.0	7.92	14.67
26/01/2020 01:03:19	26012020	260120	010319	270.240	12.418760	-57.499013	270.340	0.220	-0.350	0.310	270.240	-1.800	0.700																			1580000599.0	7.93	14.69
26/01/2020 01:03:20	26012020	260120	010320	270.410	12.418762	-57.499052	270.510	0.160	-0.210	0.310	270.410	-1.700	0.700																			1580000600.0	7.92	14.67
26/01/2020 01:03:21	26012020	260120	010321	270.570	12.418762	-57.499088	270.610	0.000	-0.050	0.400	270.570	-1.500	0.700																			1580000601.0	7.88	14.59
26/01/2020 01:03:22	26012020	260120	010322	270.610	12.418763	-57.499125	270.600	-0.190	0.070	0.460	270.610	-1.400	0.800																			1580000602.0	7.84	14.52
26/01/2020 01:03:23	26012020	260120	010323	270.580	12.418763	-57.499163	270.530	-0.360	0.110	0.330	270.580	-1.300	0.800																			1580000603.0	7.86	14.56
26/01/2020 01:03:24	26012020	260120	010324	270.500	12.418762	-57.499200	270.420	-0.420	0.060	0.010	270.500	-1.300	0.500																			1580000604.0	7.89	14.61
26/01/2020 01:03:25	26012020	260120	010325	270.390	12.418760	-57.499238	270.290	-0.330	-0.110	-0.330	270.390	-1.400	0.200																			1580000605.0	7.94	14.70
26/01/2020 01:03:26	26012020	260120	010326	270.280	12.418757	-57.499275	270.180	-0.150	-0.330	-0.520	270.280	-1.600	-0.100																			1580000606.0	8.01	14.83
26/01/2020 01:03:27	26012020	260120	010327	270.180	12.418753	-57.499313	270.140	0.010	-0.470	-0.470	270.180	-1.800	-0.200																			1580000607.0	8.07	14.95
26/01/2020 01:03:28	26012020	260120	010328	270.170	12.418753	-57.499352	270.250	0.100	-0.430	-0.290	270.190	-1.900	-0.000																			1580000608.0	8.07	14.95
26/01/2020 01:03:29	26012020	260120	010329	270.350	12.418755	-57.499390	270.480	0.210	-0.260	-0.010	270.350	-1.700	0.200																			1580000609.0	7.96	14.74
26/01/2020 01:03:30	26012020	260120	010330	270.580	12.418757	-57.499427	270.640	0.370	-0.040	0.400	270.580	-1.500	0.500																			1580000610.0	7.84	14.52
26/01/2020 01:03:31	26012020	260120	010331	270.670	12.418760	-57.499463	270.630	0.440	0.070	0.900	270.670	-1.400	1.000																			1580000611.0	7.80	14.45
26/01/2020 01:03:32	26012020	260120	010332	270.600	12.418763	-57.499500	270.500	0.300	0.050	1.220	270.600	-1.300	1.500																			1580000612.0	7.88	14.59
26/01/2020 01:03:33	26012020	260120	010333	270.470	12.418767	-57.499538	270.380	-0.010	-0.030	1.150	270.470	-1.400	1.600																			1580000613.0	7.98	14.78
26/01/2020 01:03:34	26012020	260120	010334	270.370	12.418768	-57.499575	270.310	-0.280	-0.150	0.640	270.370	-1.500	1.300																			1580000614.0	7.99	14.80
26/01/2020 01:03:35	26012020	260120	010335	270.330	12.418767	-57.499613	270.280	-0.360	-0.280	-0.060	270.330	-1.600	0.600																			1580000615.0	7.94	14.70
26/01/2020 01:03:36	26012020	260120	010336	270.320	12.418763	-57.499650	270.270	-0.280	-0.330	-0.720	270.320	-1.700	-0.100																			1580000616.0	8.01	14.83
26/01/2020 01:03:37	26012020	260120	010337	270.340	12.418758	-57.499688	270.310	-0.170	-0.290	-1.120	270.340	-1.700	-0.600																			1580000617.0	8.02	14.85
26/01/2020 01:03:38	26012020	260120	010338	270.400	12.418753	-57.499725	270.380	-0.140	-0.190	-1.100	270.400	-1.600	-0.800																			1580000618.0	7.96	14.74
26/01/2020 01:03:39	26012020	260120	010339	270.470	12.418752	-57.499763	270.420	-0.150	-0.090	-0.660	270.470	-1.500	-0.600																			1580000619.0	7.87	14.58
26/01/2020 01:03:40	26012020	260120	010340	270.470	12.418753	-57.499800	270.440	-0.090	-0.040	-0.010	270.470	-1.400	0.000																			1580000620.0	7.83	14.50
26/01/2020 01:03:41	26012020	260120	010341	270.480	12.418757	-57.499837	270.490	0.090	-0.040	0.550	270.480	-1.400	0.700																			1580000621.0	7.88	14.59
26/01/2020 01:03:42	26012020	260120	010342	270.520	12.418760	-57.499875	270.550	0.320	-0.060	0.890	270.540	-1.400	1.100																			1580000622.0	7.98	14.78
26/01/2020 01:03:43	26012020	260120	010343	270.580	12.418763	-57.499912	270.530	0.460	-0.130	1.090	270.580	-1.500	1.400																			1580000623.0	7.96	14.74
26/01/2020 01:03:44	26012020	260120	010344	270.500	12.418765	-57.499950	270.410	0.440	-0.270	1.160	270.500	-1.600	1.500																			1580000624.0	7.94	14.70
26/01/2020 01:03:45	26012020	260120	010345	270.380	12.418767	-57.499987	270.320	0.270	-0.380	1.000	270.380	-1.700	1.500																			1580000625.0	7.97	14.76
26/01/2020 01:03:46	26012020	260120	010346	270.310	12.418768	-57.500025	270.280	0.020	-0.310	0.640	270.310	-1.800	1.200																			1580000626.0	8.00	14.82
26/01/2020 01:03:47	26012020	260120	010347	270.300	12.418768	-57.500063	270.280	-0.250	-0.110	0.140	270.300	-1.600	0.800																			1580000627.0	7.94	14.70
26/01/2020 01:03:48	26012020	260120	010348	270.310	12.418765	-57.500100	270.280	-0.420	-0.020	-0.420	270.310	-1.400	0.200																			1580000628.0	7.76	14.37
26/01/2020 01:03:49	26012020	260120	010349	270.330	12.418762	-57.500137	270.310	-0.450	-0.080	-0.890	270.330	-1.400	-0.300																			1580000629.0	7.79	14.43
26/01/2020 01:03:50	26012020	260120	010350	270.400	12.418758	-57.500173	270.420	-0.340	-0.110	-1.180	270.400	-1.500	-0.700																			1580000630.0	8.00	14.82
26/01/2020 01:03:51	26012020	260120	010351	270.540	12.418755	-57.500212	270.560	-0.170	-0.080	-1.170	270.540	-1.500	-0.900																			1580000631.0	8.06	14.93
26/01/2020 01:03:52	26012020	260120	010352	270.650	12.418753	-57.500250	270.580	0.020	-0.120	-0.800	270.650	-1.500	-0.700																			1580000632.0	7.91	14.65
26/01/2020 01:03:53	26012020	260120	010353	270.600	12.418755	-57.500287	270.450	0.180	-0.280	-0.160	270.600	-1.600	-0.100																			1580000633.0	7.87	14.58
26/01/2020 01:03:54	26012020	260120	010354	270.430	12.418758	-57.500325	270.320	0.260	-0.420	0.520	270.430	-1.700	0.600																			1580000634.0	8.00	14.82
26/01/2020 01:03:55	26012020	260120	010355	270.300	12.418762	-57.500362	270.220	0.260	-0.370	1.070	270.300	-1.800	1.200																			1580000635.0	8.10	15.00
26/01/2020 01:03:56	26012020	260120	010356	270.230	12.418765	-57.500400	270.210	0.190	-0.140	1.350	270.230	-1.700	1.600																			1580000636.0	8.04	14.89
26/01/2020 01:03:57	26012020	260120	010357	270.220	12.418768	-57.500437	270.210	0.110	0.090	1.380	270.220	-1.400	1.700																			1580000637.0	7.85	14.54
26/01/2020 01:03:58	26012020	260120	010358	270.210	12.418770	-57.500473	270.180	0.020	0.160	1.150	270.210	-1.200	1.700																			1580000638.0	7.74	14.33
26/01/2020 01:03:59	26012020	260120	010359	270.170	12.418770	-57.500510	270.140	-0.060	0.090	0.660	270.170	-1.200	1.300	1015.10	25.20	25.30	21.50	21.50	-1.00	79.00	79.00	389.00	24.60	79.00	5.40	30.00	6.10	13	3607.00	27.40	27.40	1580000639.0	7.81	14.46
26/01/2020 01:04:00	26012020	260120	010400	270.160	12.418770	-57.500548	270.130	-0.140	-0.060	0.080	270.160	-1.400	0.700																			1580000640.0	7.94	14.70
26/01/2020 01:04:01	26012020	260120	010401	270.150	12.418767	-57.500585	270.140	-0.160	-0.270	-0.460	270.150	-1.500	0.200																			1580000641.0	7.98	14.78
26/01/2020 01:04:02	26012020	260120	010402	270.190	12.418762	-57.500623	270.210	-0.080	-0.440	-0.930	270.190	-1.800	-0.400																			1580000642.0	7.99	14.80
26/01/2020 01:04:03	26012020	260120	010403	270.280	12.418758	-57.500662	270.310	0.020	-0.400	-1.220	270.280	-1.800	-0.800																			1580000643.0	8.05	14.91
26/01/2020 01:04:04	26012020	260120	010404	270.360	12.418757	-57.500698	270.350	0.040	-0.200	-1.190	270.370	-1.700	-0.900																			1580000644.0	7.93	14.69
26/01/2020 01:04:05	26012020	260120	010405	270.390	12.418757	-57.500735	270.300	0.020	-0.100	-0.820	270.390	-1.500	-0.700																			1580000645.0	7.73	14.32
26/01/2020 01:04:06	26012020	260120	010406	270.310	12.418757	-57.500772	270.150	-0.000	-0.130	-0.230	270.290	-1.500	-0.200																			1580000646.0	7.74	14.33
26/01/2020 01:04:07	26012020	260120	010407	270.110	12.418760	-57.500810	270.000	-0.010	-0.200	0.360	270.110	-1.600	0.400																			1580000647.0	7.92	14.67
26/01/2020 01:04:08	26012020	260120	010408	269.990	12.418763	-57.500847	269.980	-0.020	-0.210	0.810	269.990	-1.600	1.000																			1580000648.0	8.05	14.91
26/01/2020 01:04:09	26012020	260120	010409	270.010	12.418765	-57.500885	270.100	-0.030	-0.200	1.070	270.010	-1.600	1.300																			1580000649.0	8.02	14.85
26/01/2020 01:04:10	26012020	260120	010410	270.160	12.418768	-57.500923	270.270	0.010	-0.170	1.210	270.160	-1.600	1.500																			1580000650.0	7.94	14.70
26/01/2020 01:04:11	26012020	260120	010411	270.310	12.418768	-57.500960	270.340	0.050	-0.090	1.290	270.310	-1.500	1.600																			1580000651.0	7.95	14.72
26/01/2020 01:04:12	26012020	260120	010412	270.330	12.418770	-57.500998	270.270	0.040	0.040	1.190	270.330	-1.400	1.600																			1580000652.0	7.91	14.65
26/01/2020 01:04:13	26012020	260120	010413	270.220	12.418770	-57.501035	270.130	-0.010	0.100	0.810	270.220	-1.300	1.400																			1580000653.0	7.84	14.52
26/01/2020 01:04:14	26012020	260120	010414	270.120	12.418770	-57.501072	270.090	-0.060	0.010	0.130	270.120	-1.300	0.800																			1580000654.0	7.81	14.46
26/01/2020 01:04:15	26012020	260120	010415	270.130	12.418767	-57.501108	270.120	-0.070	-0.210	-0.620	270.130	-1.500	0.100																			1580000655.0	7.89	14.61
26/01/2020 01:04:16	26012020	260120	010416	270.170	12.418762	-57.501147	270.130	-0.060	-0.410	-1.160	270.170	-1.700	-0.600																			1580000656.0	8.03	14.87
26/01/2020 01:04:17	26012020	260120	010417	270.190	12.418758	-57.501185	270.110	-0.010	-0.430	-1.360	270.190	-1.800	-0.900																			1580000657.0	8.08	14.96
26/01/2020 01:04:18	26012020	260120	010418	270.190	12.418757	-57.501222	270.110	0.040	-0.270	-1.190	270.180	-1.700	-1.000																			1580000658.0	7.97	14.76
26/01/2020 01:04:19	26012020	260120	010419	270.190	12.418757	-57.501260	270.160	0.060	-0.080	-0.730	270.190	-1.500	-0.600																			1580000659.0	7.79	14.43
26/01/2020 01:04:20	26012020	260120	010420	270.250	12.418758	-57.501295	270.250	0.070	-0.030	-0.140	270.250	-1.400	-0.100																			1580000660.0	7.71	14.28
26/01/2020 01:04:21	26012020	260120	010421	270.320	12.418762	-57.501332	270.330	0.080	-0.110	0.410	270.320	-1.400	0.500																			1580000661.0	7.81	14.46
26/01/2020 01:04:22	26012020	260120	010422	270.360	12.418765	-57.501370	270.340	0.070	-0.200	0.770	270.360	-1.500	1.000																			1580000662.0	8.00	14.82
26/01/2020 01:04:23	26012020	260120	010423	270.340	12.418768	-57.501408	270.300	0.010	-0.210	0.910	270.340	-1.600	1.200																			1580000663.0	8.07	14.95
26/01/2020 01:04:24	26012020	260120	010424	270.270	12.418770	-57.501447	270.210	-0.090	-0.120	0.930	270.270	-1.600	1.300																			1580000664.0	7.99	14.80
26/01/2020 01:04:25	26012020	260120	010425	270.160	12.418768	-57.501483	270.070	-0.160	-0.050	0.890	270.160	-1.500	1.300																			1580000665.0	7.86	14.56
26/01/2020 01:04:26	26012020	260120	010426	270.050	12.418768	-57.501520	270.000	-0.140	-0.090	0.710	270.050	-1.400	1.200																			1580000666.0	7.79	14.43
26/01/2020 01:04:27	26012020	260120	010427	270.000	12.418768	-57.501557	270.000	-0.040	-0.210	0.350	270.000	-1.500	0.900																			1580000667.0	7.85	14.54
26/01/2020 01:04:28	26012020	260120	010428	270.040	12.418767	-57.501595	270.090	0.060	-0.360	-0.100	270.040	-1.700	0.500																			1580000668.0	7.97	14.76
26/01/2020 01:04:29	26012020	260120	010429	270.150	12.418765	-57.501633	270.210	0.090	-0.410	-0.510	270.150	-1.800	0.000																			1580000669.0	8.05	14.91
26/01/2020 01:04:30	26012020	260120	010430	270.250	12.418763	-57.501672	270.300	0.070	-0.240	-0.740	270.280	-1.700	-0.300																			1580000670.0	8.05	14.91
26/01/2020 01:04:31	26012020	260120	010431	270.340	12.418762	-57.501708	270.300	0.050	0.080	-0.740	270.340	-1.500	-0.400																			1580000671.0	7.92	14.67
26/01/2020 01:04:32	26012020	260120	010432	270.340	12.418762	-57.501745	270.270	0.050	0.260	-0.540	270.330	-1.200	-0.300																			1580000672.0	7.69	14.24
26/01/2020 01:04:33	26012020	260120	010433	270.280	12.418762	-57.501782	270.200	0.030	0.150	-0.230	270.280	-1.200	-0.000																			1580000673.0	7.66	14.19
26/01/2020 01:04:34	26012020	260120	010434	270.170	12.418763	-57.501818	270.090	-0.080	-0.130	0.080	270.170	-1.400	0.300																			1580000674.0	7.88	14.59
26/01/2020 01:04:35	26012020	260120	010435	270.080	12.418765	-57.501857	270.030	-0.220	-0.360	0.300	270.080	-1.600	0.600																			1580000675.0	8.09	14.98
26/01/2020 01:04:36	26012020	260120	010436	270.030	12.418767	-57.501895	270.030	-0.310	-0.390	0.370	270.030	-1.800	0.700																			1580000676.0	8.11	15.02
26/01/2020 01:04:37	26012020	260120	010437	270.050	12.418767	-57.501932	270.060	-0.250	-0.360	0.310	270.050	-1.800	0.700																			1580000677.0	7.92	14.67
26/01/2020 01:04:38	26012020	260120	010438	270.100	12.418765	-57.501968	270.140	-0.080	-0.360	0.210	270.100	-1.700	0.600																			1580000678.0	7.78	14.41
26/01/2020 01:04:39	26012020	260120	010439	270.170	12.418763	-57.502007	270.220	0.130	-0.330	0.190	270.170	-1.700	0.500																			1580000679.0	7.85	14.54
26/01/2020 01:04:40	26012020	260120	010440	270.260	12.418763	-57.502043	270.300	0.320	-0.210	0.290	270.260	-1.700	0.600																			1580000680.0	7.95	14.72
26/01/2020 01:04:41	26012020	260120	010441	270.340	12.418763	-57.502082	270.380	0.460	-0.020	0.480	270.340	-1.500	0.700																			1580000681.0	7.93	14.69
26/01/2020 01:04:42	26012020	260120	010442	270.380	12.418765	-57.502118	270.380	0.470	0.110	0.630	270.380	-1.300	0.900																			1580000682.0	7.88	14.59
26/01/2020 01:04:43	26012020	260120	010443	270.340	12.418768	-57.502155	270.280	0.260	0.130	0.620	270.340	-1.300	1.000																			1580000683.0	7.87	14.58
26/01/2020 01:04:44	26012020	260120	010444	270.220	12.418770	-57.502193	270.120	-0.120	0.070	0.340	270.220	-1.300	0.900																			1580000684.0	7.93	14.69
26/01/2020 01:04:45	26012020	260120	010445	270.080	12.418772	-57.502230	269.990	-0.490	-0.010	-0.210	270.080	-1.400	0.400																			1580000685.0	7.95	14.72
26/01/2020 01:04:46	26012020	260120	010446	270.000	12.418768	-57.502268	269.960	-0.660	-0.140	-0.840	270.000	-1.500	-0.200																			1580000686.0	7.92	14.67
26/01/2020 01:04:47	26012020	260120	010447	269.990	12.418763	-57.502305	269.990	-0.550	-0.350	-1.260	269.990	-1.600	-0.700																			1580000687.0	7.93	14.69
26/01/2020 01:04:48	26012020	260120	010448	270.030	12.418758	-57.502343	270.040	-0.280	-0.540	-1.290	270.030	-1.800	-1.000																			1580000688.0	8.01	14.83
26/01/2020 01:04:49	26012020	260120	010449	270.110	12.418755	-57.502380	270.130	0.040	-0.560	-0.940	270.110	-2.000	-0.800																			1580000689.0	8.04	14.89
26/01/2020 01:04:50	26012020	260120	010450	270.200	12.418755	-57.502418	270.240	0.300	-0.380	-0.320	270.200	-1.900	-0.300																			1580000690.0	7.98	14.78
26/01/2020 01:04:51	26012020	260120	010451	270.290	12.418758	-57.502455	270.320	0.480	-0.170	0.420	270.290	-1.600	0.400																			1580000691.0	7.87	14.58
26/01/2020 01:04:52	26012020	260120	010452	270.340	12.418763	-57.502492	270.320	0.560	-0.060	1.140	270.340	-1.500	1.200																			1580000692.0	7.85	14.54
26/01/2020 01:04:53	26012020	260120	010453	270.300	12.418768	-57.502530	270.210	0.450	0.070	1.680	270.300	-1.400	1.800																			1580000693.0	7.99	14.80
26/01/2020 01:04:54	26012020	260120	010454	270.160	12.418773	-57.502567	270.050	0.150	0.250	1.900	270.160	-1.200	2.200																			1580000694.0	8.05	14.91
26/01/2020 01:04:55	26012020	260120	010455	270.000	12.418777	-57.502605	269.920	-0.200	0.340	1.620	270.000	-1.100	2.200																			1580000695.0	7.90	14.63
26/01/2020 01:04:56	26012020	260120	010456	269.920	12.418778	-57.502642	269.840	-0.420	0.180	0.820	269.910	-1.100	1.600																			1580000696.0	7.76	14.37
26/01/2020 01:04:57	26012020	260120	010457	269.860	12.418775	-57.502678	269.820	-0.400	-0.210	-0.250	269.860	-1.400	0.600																			1580000697.0	7.85	14.54
26/01/2020 01:04:58	26012020	260120	010458	269.870	12.418768	-57.502717	269.850	-0.240	-0.610	-1.180	269.870	-1.800	-0.400																			1580000698.0	8.15	15.09
26/01/2020 01:04:59	26012020	260120	010459	269.920	12.418760	-57.502755	269.930	-0.040	-0.790	-1.690	269.920	-2.100	-1.100	1015.10	25.30	25.40	21.50	21.60	-1.00	79.00	79.00	390.00	24.60	81.00	5.40	31.00	6.30	13	3555.00	27.40	27.40	1580000699.0	8.30	15.37
26/01/2020 01:05:00	26012020	260120	010500	270.060	12.418755	-57.502793	270.070	0.120	-0.690	-1.650	270.060	-2.200	-1.400																			1580000700.0	8.16	15.11
26/01/2020 01:05:01	26012020	260120	010501	270.190	12.418755	-57.502830	270.160	0.230	-0.380	-1.150	270.190	-1.900	-1.100																			1580000701.0	7.89	14.61
26/01/2020 01:05:02	26012020	260120	010502	270.240	12.418757	-57.502867	270.170	0.250	-0.030	-0.390	270.240	-1.600	-0.400																			1580000702.0	7.74	14.33
26/01/2020 01:05:03	26012020	260120	010503	270.190	12.418760	-57.502903	270.130	0.150	0.220	0.390	270.190	-1.300	0.400																			1580000703.0	7.75	14.35
26/01/2020 01:05:04	26012020	260120	010504	270.130	12.418765	-57.502940	270.070	-0.030	0.250	0.990	270.130	-1.100	1.100																			1580000704.0	7.82	14.48
26/01/2020 01:05:05	26012020	260120	010505	270.050	12.418770	-57.502978	270.010	-0.200	0.200	1.290	270.050	-1.200	1.500																			1580000705.0	7.98	14.78
26/01/2020 01:05:06	26012020	260120	010506	270.000	12.418772	-57.503015	269.990	-0.230	0.170	1.300	270.000	-1.200	1.700																			1580000706.0	8.06	14.93
26/01/2020 01:05:07	26012020	260120	010507	269.970	12.418773	-57.503053	269.920	-0.110	0.060	1.140	269.970	-1.300	1.600																			1580000707.0	7.93	14.69
26/01/2020 01:05:08	26012020	260120	010508	269.910	12.418772	-57.503090	269.820	0.100	-0.230	0.890	269.890	-1.400	1.400																			1580000708.0	7.83	14.50
26/01/2020 01:05:09	26012020	260120	010509	269.830	12.418770	-57.503128	269.840	0.260	-0.620	0.440	269.830	-1.800	1.000																			1580000709.0	7.92	14.67
26/01/2020 01:05:10	26012020	260120	010510	269.890	12.418768	-57.503167	270.010	0.290	-0.810	-0.180	269.920	-2.100	0.500																			1580000710.0	8.11	15.02
26/01/2020 01:05:11	26012020	260120	010511	270.140	12.418767	-57.503205	270.200	0.220	-0.640	-0.740	270.140	-2.200	-0.100																			1580000711.0	8.11	15.02
26/01/2020 01:05:12	26012020	260120	010512	270.300	12.418763	-57.503242	270.230	0.130	-0.210	-1.000	270.300	-1.800	-0.600																			1580000712.0	7.89	14.61
26/01/2020 01:05:13	26012020	260120	010513	270.290	12.418762	-57.503278	270.140	0.020	0.250	-0.920	270.290	-1.400	-0.600																			1580000713.0	7.65	14.17
26/01/2020 01:05:14	26012020	260120	010514	270.160	12.418762	-57.503313	269.970	-0.110	0.430	-0.680	270.160	-1.000	-0.400																			1580000714.0	7.53	13.95
26/01/2020 01:05:15	26012020	260120	010515	269.990	12.418762	-57.503350	269.830	-0.210	0.220	-0.440	269.990	-1.000	-0.200																			1580000715.0	7.66	14.19
26/01/2020 01:05:16	26012020	260120	010516	269.860	12.418763	-57.503387	269.760	-0.230	-0.210	-0.210	269.860	-1.400	0.000																			1580000716.0	7.97	14.76
26/01/2020 01:05:17	26012020	260120	010517	269.830	12.418765	-57.503427	269.830	-0.170	-0.500	0.010	269.830	-1.800	0.300																			1580000717.0	8.25	15.28
26/01/2020 01:05:18	26012020	260120	010518	269.940	12.418767	-57.503465	270.040	-0.090	-0.520	0.240	269.940	-1.900	0.500																			1580000718.0	8.25	15.28
26/01/2020 01:05:19	26012020	260120	010519	270.150	12.418767	-57.503503	270.260	-0.020	-0.360	0.470	270.150	-1.800	0.700																			1580000719.0	7.99	14.80
26/01/2020 01:05:20	26012020	260120	010520	270.300	12.418768	-57.503540	270.340	0.010	-0.180	0.740	270.330	-1.700	1.000																			1580000720.0	7.79	14.43
26/01/2020 01:05:21	26012020	260120	010521	270.340	12.418768	-57.503577	270.250	0.050	0.010	0.960	270.340	-1.500	1.200																			1580000721.0	7.74	14.33
26/01/2020 01:05:22	26012020	260120	010522	270.240	12.418770	-57.503613	270.060	0.090	0.180	1.030	270.200	-1.300	1.400																			1580000722.0	7.79	14.43
26/01/2020 01:05:23	26012020	260120	010523	270.010	12.418770	-57.503650	269.890	0.140	0.220	0.880	270.010	-1.200	1.300																			1580000723.0	7.77	14.39
26/01/2020 01:05:24	26012020	260120	010524	269.860	12.418772	-57.503687	269.760	0.200	0.060	0.500	269.860	-1.200	1.100																			1580000724.0	7.77	14.39
26/01/2020 01:05:25	26012020	260120	010525	269.770	12.418770	-57.503723	269.690	0.220	-0.200	0.050	269.770	-1.500	0.600																			1580000725.0	7.89	14.61
26/01/2020 01:05:26	26012020	260120	010526	269.720	12.418768	-57.503762	269.670	0.180	-0.420	-0.360	269.720	-1.700	0.200																			1580000726.0	8.00	14.82
26/01/2020 01:05:27	26012020	260120	010527	269.720	12.418767	-57.503800	269.680	0.060	-0.520	-0.580	269.720	-1.900	-0.100																			1580000727.0	8.00	14.82
26/01/2020 01:05:28	26012020	260120	010528	269.770	12.418765	-57.503837	269.790	-0.070	-0.500	-0.690	269.770	-1.900	-0.300																			1580000728.0	7.93	14.69
26/01/2020 01:05:29	26012020	260120	010529	269.900	12.418765	-57.503875	269.960	-0.130	-0.430	-0.710	269.900	-1.900	-0.400																			1580000729.0	7.83	14.50
26/01/2020 01:05:30	26012020	260120	010530	270.080	12.418765	-57.503912	270.150	-0.110	-0.320	-0.650	270.080	-1.800	-0.300																			1580000730.0	7.82	14.48
26/01/2020 01:05:31	26012020	260120	010531	270.270	12.418765	-57.503948	270.280	-0.110	-0.120	-0.440	270.270	-1.600	-0.200																			1580000731.0	7.90	14.63
26/01/2020 01:05:32	26012020	260120	010532	270.340	12.418765	-57.503987	270.260	-0.140	0.120	-0.090	270.340	-1.400	0.100																			1580000732.0	7.91	14.65
26/01/2020 01:05:33	26012020	260120	010533	270.270	12.418767	-57.504023	270.120	-0.150	0.290	0.300	270.270	-1.200	0.500																			1580000733.0	7.85	14.54
26/01/2020 01:05:34	26012020	260120	010534	270.070	12.418767	-57.504060	269.860	-0.080	0.260	0.670	270.070	-1.100	0.900																			1580000734.0	7.82	14.48
26/01/2020 01:05:35	26012020	260120	010535	269.790	12.418768	-57.504098	269.620	-0.010	0.100	0.940	269.790	-1.200	1.200																			1580000735.0	7.91	14.65
26/01/2020 01:05:36	26012020	260120	010536	269.580	12.418770	-57.504135	269.530	0.050	-0.110	0.950	269.580	-1.400	1.300																			1580000736.0	8.01	14.83
26/01/2020 01:05:37	26012020	260120	010537	269.580	12.418772	-57.504173	269.640	0.140	-0.300	0.720	269.580	-1.600	1.200																			1580000737.0	7.96	14.74
26/01/2020 01:05:38	26012020	260120	010538	269.720	12.418772	-57.504210	269.790	0.210	-0.430	0.460	269.720	-1.800	0.900																			1580000738.0	7.89	14.61
26/01/2020 01:05:39	26012020	260120	010539	269.840	12.418770	-57.504248	269.860	0.180	-0.470	0.230	269.840	-1.800	0.700																			1580000739.0	7.85	14.54
26/01/2020 01:05:40	26012020	260120	010540	269.900	12.418768	-57.504285	269.870	-0.000	-0.470	-0.050	269.900	-1.900	0.500																			1580000740.0	7.81	14.46
26/01/2020 01:05:41	26012020	260120	010541	269.910	12.418768	-57.504322	269.890	-0.200	-0.410	-0.440	269.910	-1.800	0.100																			1580000741.0	7.81	14.46
26/01/2020 01:05:42	26012020	260120	010542	269.960	12.418767	-57.504358	269.950	-0.260	-0.200	-0.870	269.960	-1.700	-0.300																			1580000742.0	7.88	14.59
26/01/2020 01:05:43	26012020	260120	010543	270.020	12.418763	-57.504397	269.960	-0.130	0.000	-1.130	270.020	-1.500	-0.700																			1580000743.0	7.87	14.58
26/01/2020 01:05:44	26012020	260120	010544	270.010	12.418760	-57.504433	269.840	0.100	0.030	-0.980	269.990	-1.300	-0.700																			1580000744.0	7.80	14.45
26/01/2020 01:05:45	26012020	260120	010545	269.860	12.418758	-57.504470	269.690	0.270	-0.030	-0.390	269.860	-1.400	-0.400																			1580000745.0	7.92	14.67
26/01/2020 01:05:46	26012020	260120	010546	269.670	12.418760	-57.504508	269.520	0.290	0.010	0.470	269.670	-1.400	0.400																			1580000746.0	8.10	15.00
26/01/2020 01:05:47	26012020	260120	010547	269.490	12.418765	-57.504547	269.400	0.180	0.060	1.220	269.490	-1.300	1.200																			1580000747.0	8.05	14.91
26/01/2020 01:05:48	26012020	260120	010548	269.380	12.418772	-57.504583	269.370	0.040	-0.030	1.510	269.380	-1.300	1.800																			1580000748.0	7.92	14.67
26/01/2020 01:05:49	26012020	260120	010549	269.400	12.418775	-57.504620	269.470	-0.050	-0.200	1.260	269.400	-1.500	1.800																			1580000749.0	7.87	14.58
26/01/2020 01:05:50	26012020	260120	010550	269.560	12.418777	-57.504658	269.680	-0.100	-0.300	0.620	269.560	-1.600	1.300																			1580000750.0	7.92	14.67
26/01/2020 01:05:51	26012020	260120	010551	269.790	12.418773	-57.504695	269.890	-0.160	-0.300	-0.140	269.790	-1.700	0.600																			1580000751.0	7.93	14.69
26/01/2020 01:05:52	26012020	260120	010552	269.970	12.418768	-57.504732	269.980	-0.240	-0.300	-0.770	269.970	-1.700	-0.100																			1580000752.0	7.87	14.58
26/01/2020 01:05:53	26012020	260120	010553	270.030	12.418763	-57.504768	269.940	-0.250	-0.400	-1.140	270.030	-1.700	-0.600																			1580000753.0	7.85	14.54
26/01/2020 01:05:54	26012020	260120	010554	269.970	12.418760	-57.504807	269.830	-0.120	-0.410	-1.170	269.970	-1.800	-0.800																			1580000754.0	7.96	14.74
26/01/2020 01:05:55	26012020	260120	010555	269.830	12.418757	-57.504845	269.660	0.080	-0.190	-0.780	269.830	-1.700	-0.700																			1580000755.0	8.06	14.93
26/01/2020 01:05:56	26012020	260120	010556	269.640	12.418758	-57.504882	269.510	0.210	0.100	-0.120	269.640	-1.400	-0.100																			1580000756.0	7.91	14.65
26/01/2020 01:05:57	26012020	260120	010557	269.480	12.418760	-57.504918	269.390	0.220	0.220	0.540	269.480	-1.200	0.600																			1580000757.0	7.74	14.33
26/01/2020 01:05:58	26012020	260120	010558	269.410	12.418765	-57.504955	269.390	0.150	0.040	0.940	269.400	-1.200	1.100																			1580000758.0	7.78	14.41
26/01/2020 01:05:59	26012020	260120	010559	269.440	12.418768	-57.504992	269.520	0.070	-0.260	0.970	269.440	-1.500	1.400	1015.20	25.30	25.40	21.60	21.60	-1.00	80.00	79.00	390.00	24.60	81.00	5.50	31.00	6.30	13	3557.00	27.40	27.40	1580000759.0	7.98	14.78
26/01/2020 01:06:00	26012020	260120	010600	269.600	12.418770	-57.505030	269.710	0.010	-0.450	0.710	269.600	-1.800	1.200																			1580000760.0	8.13	15.06
26/01/2020 01:06:01	26012020	260120	010601	269.800	12.418770	-57.505068	269.880	-0.080	-0.410	0.360	269.800	-1.800	0.900																			1580000761.0	8.10	15.00
26/01/2020 01:06:02	26012020	260120	010602	269.950	12.418768	-57.505107	269.960	-0.180	-0.200	0.050	269.950	-1.700	0.600																			1580000762.0	7.94	14.70
26/01/2020 01:06:03	26012020	260120	010603	269.980	12.418767	-57.505143	269.910	-0.200	0.040	-0.140	269.980	-1.500	0.300																			1580000763.0	7.76	14.37
26/01/2020 01:06:04	26012020	260120	010604	269.880	12.418763	-57.505180	269.750	-0.110	0.170	-0.170	269.880	-1.300	0.200																			1580000764.0	7.67	14.20
26/01/2020 01:06:05	26012020	260120	010605	269.710	12.418763	-57.505217	269.570	0.060	0.130	-0.130	269.710	-1.200	0.200																			1580000765.0	7.74	14.33
26/01/2020 01:06:06	26012020	260120	010606	269.530	12.418762	-57.505253	269.440	0.190	-0.060	-0.090	269.530	-1.300	0.300																			1580000766.0	7.85	14.54
26/01/2020 01:06:07	26012020	260120	010607	269.420	12.418762	-57.505290	269.390	0.230	-0.310	-0.070	269.420	-1.600	0.300																			1580000767.0	7.96	14.74
26/01/2020 01:06:08	26012020	260120	010608	269.440	12.418762	-57.505328	269.480	0.200	-0.490	-0.020	269.440	-1.800	0.300																			1580000768.0	8.04	14.89
26/01/2020 01:06:09	26012020	260120	010609	269.550	12.418763	-57.505367	269.620	0.110	-0.500	0.080	269.550	-1.900	0.400																			1580000769.0	8.02	14.85
26/01/2020 01:06:10	26012020	260120	010610	269.670	12.418765	-57.505403	269.790	-0.040	-0.400	0.180	269.700	-1.800	0.500																			1580000770.0	7.91	14.65
26/01/2020 01:06:11	26012020	260120	010611	269.860	12.418765	-57.505442	269.930	-0.190	-0.290	0.230	269.860	-1.700	0.600																			1580000771.0	7.80	14.45
26/01/2020 01:06:12	26012020	260120	010612	269.960	12.418765	-57.505478	269.980	-0.250	-0.190	0.210	269.970	-1.600	0.600																			1580000772.0	7.78	14.41
26/01/2020 01:06:13	26012020	260120	010613	269.970	12.418765	-57.505515	269.930	-0.240	-0.010	0.170	269.970	-1.500	0.600																			1580000773.0	7.89	14.61
26/01/2020 01:06:14	26012020	260120	010614	269.910	12.418763	-57.505552	269.840	-0.200	0.200	0.160	269.910	-1.300	0.500																			1580000774.0	7.92	14.67
26/01/2020 01:06:15	26012020	260120	010615	269.810	12.418762	-57.505590	269.740	-0.150	0.260	0.180	269.810	-1.100	0.500																			1580000775.0	7.83	14.50
26/01/2020 01:06:16	26012020	260120	010616	269.710	12.418762	-57.505627	269.650	-0.050	0.150	0.230	269.710	-1.200	0.600																			1580000776.0	7.85	14.54
26/01/2020 01:06:17	26012020	260120	010617	269.640	12.418762	-57.505665	269.610	0.110	-0.020	0.240	269.640	-1.300	0.600																			1580000777.0	7.95	14.72
26/01/2020 01:06:18	26012020	260120	010618	269.610	12.418762	-57.505702	269.590	0.250	-0.240	0.200	269.610	-1.500	0.600																			1580000778.0	7.98	14.78
26/01/2020 01:06:19	26012020	260120	010619	269.610	12.418763	-57.505740	269.620	0.280	-0.440	0.170	269.610	-1.700	0.500																			1580000779.0	7.94	14.70
26/01/2020 01:06:20	26012020	260120	010620	269.660	12.418763	-57.505777	269.670	0.210	-0.540	0.190	269.660	-1.900	0.500																			1580000780.0	7.92	14.67
26/01/2020 01:06:21	26012020	260120	010621	269.710	12.418763	-57.505815	269.710	0.090	-0.500	0.230	269.710	-1.900	0.600																			1580000781.0	7.87	14.58
26/01/2020 01:06:22	26012020	260120	010622	269.740	12.418763	-57.505852	269.730	-0.050	-0.340	0.190	269.740	-1.800	0.600																			1580000782.0	7.79	14.43
26/01/2020 01:06:23	26012020	260120	010623	269.770	12.418763	-57.505888	269.790	-0.160	-0.120	-0.020	269.770	-1.600	0.500																			1580000783.0	7.76	14.37
26/01/2020 01:06:24	26012020	260120	010624	269.860	12.418763	-57.505925	269.890	-0.210	0.030	-0.320	269.860	-1.400	0.200																			1580000784.0	7.75	14.35
26/01/2020 01:06:25	26012020	260120	010625	269.950	12.418760	-57.505962	269.910	-0.170	0.050	-0.500	269.950	-1.300	-0.100																			1580000785.0	7.80	14.45
26/01/2020 01:06:26	26012020	260120	010626	269.950	12.418758	-57.505998	269.880	-0.060	-0.040	-0.500	269.950	-1.400	-0.100																			1580000786.0	7.94	14.70
26/01/2020 01:06:27	26012020	260120	010627	269.910	12.418758	-57.506037	269.860	0.060	-0.120	-0.370	269.910	-1.500	-0.100																			1580000787.0	8.05	14.91
26/01/2020 01:06:28	26012020	260120	010628	269.920	12.418758	-57.506075	269.880	0.110	-0.140	-0.030	269.920	-1.500	0.100																			1580000788.0	8.05	14.91
26/01/2020 01:06:29	26012020	260120	010629	269.920	12.418758	-57.506113	269.870	0.070	-0.110	0.490	269.920	-1.500	0.600																			1580000789.0	7.97	14.76
26/01/2020 01:06:30	26012020	260120	010630	269.880	12.418762	-57.506150	269.790	-0.020	-0.130	0.980	269.880	-1.500	1.100																			1580000790.0	7.85	14.54
26/01/2020 01:06:31	26012020	260120	010631	269.760	12.418765	-57.506187	269.660	-0.090	-0.170	1.240	269.760	-1.500	1.500																			1580000791.0	7.83	14.50
26/01/2020 01:06:32	26012020	260120	010632	269.610	12.418767	-57.506223	269.520	-0.090	-0.150	1.100	269.610	-1.500	1.600																			1580000792.0	7.87	14.58
26/01/2020 01:06:33	26012020	260120	010633	269.520	12.418767	-57.506262	269.490	-0.050	-0.140	0.580	269.520	-1.500	1.200																			1580000793.0	7.83	14.50
26/01/2020 01:06:34	26012020	260120	010634	269.550	12.418763	-57.506298	269.580	0.010	-0.220	-0.090	269.550	-1.600	0.600																			1580000794.0	7.80	14.45
26/01/2020 01:06:35	26012020	260120	010635	269.680	12.418760	-57.506335	269.710	0.050	-0.320	-0.610	269.680	-1.700	-0.000																			1580000795.0	7.89	14.61
26/01/2020 01:06:36	26012020	260120	010636	269.790	12.418757	-57.506372	269.820	0.110	-0.340	-0.870	269.810	-1.700	-0.400																			1580000796.0	7.96	14.74
26/01/2020 01:06:37	26012020	260120	010637	269.940	12.418755	-57.506410	269.960	0.170	-0.300	-0.830	269.940	-1.700	-0.500																			1580000797.0	7.95	14.72
26/01/2020 01:06:38	26012020	260120	010638	270.090	12.418755	-57.506447	270.110	0.140	-0.190	-0.530	270.090	-1.600	-0.300																			1580000798.0	7.92	14.67
26/01/2020 01:06:39	26012020	260120	010639	270.210	12.418757	-57.506485	270.150	-0.010	-0.060	-0.100	270.210	-1.500	0.000																			1580000799.0	7.89	14.61
26/01/2020 01:06:40	26012020	260120	010640	270.180	12.418758	-57.506522	270.030	-0.170	0.070	0.370	270.180	-1.400	0.500																			1580000800.0	7.85	14.54
26/01/2020 01:06:41	26012020	260120	010641	270.000	12.418762	-57.506558	269.780	-0.250	0.180	0.730	270.000	-1.300	0.900																			1580000801.0	7.82	14.48
26/01/2020 01:06:42	26012020	260120	010642	269.710	12.418762	-57.506595	269.490	-0.210	0.180	0.910	269.710	-1.200	1.200																			1580000802.0	7.78	14.41
26/01/2020 01:06:43	26012020	260120	010643	269.450	12.418762	-57.506632	269.340	-0.080	-0.020	0.820	269.450	-1.300	1.300																			1580000803.0	7.77	14.39
26/01/2020 01:06:44	26012020	260120	010644	269.370	12.418762	-57.506670	269.390	0.130	-0.360	0.490	269.370	-1.600	1.000																			1580000804.0	7.86	14.56
26/01/2020 01:06:45	26012020	260120	010645	269.520	12.418760	-57.506708	269.660	0.330	-0.640	0.040	269.520	-1.900	0.600																			1580000805.0	8.02	14.85
26/01/2020 01:06:46	26012020	260120	010646	269.840	12.418760	-57.506745	270.010	0.400	-0.720	-0.360	269.840	-2.100	0.200																			1580000806.0	8.06	14.93
26/01/2020 01:06:47	26012020	260120	010647	270.190	12.418758	-57.506783	270.280	0.260	-0.550	-0.510	270.190	-2.000	-0.100																			1580000807.0	7.99	14.80
26/01/2020 01:06:48	26012020	260120	010648	270.380	12.418758	-57.506820	270.320	-0.040	-0.200	-0.410	270.380	-1.800	-0.100																			1580000808.0	7.86	14.56
26/01/2020 01:06:49	26012020	260120	010649	270.340	12.418758	-57.506857	270.160	-0.350	0.190	-0.190	270.340	-1.400	0.100																			1580000809.0	7.74	14.33
26/01/2020 01:06:50	26012020	260120	010650	270.120	12.418758	-57.506893	269.900	-0.520	0.440	0.030	270.120	-1.000	0.300																			1580000810.0	7.66	14.19
26/01/2020 01:06:51	26012020	260120	010651	269.850	12.418758	-57.506930	269.660	-0.470	0.420	0.130	269.850	-0.900	0.500																			1580000811.0	7.70	14.26
26/01/2020 01:06:52	26012020	260120	010652	269.630	12.418758	-57.506967	269.530	-0.250	0.160	0.060	269.630	-1.100	0.500																			1580000812.0	7.84	14.52
26/01/2020 01:06:53	26012020	260120	010653	269.550	12.418757	-57.507005	269.510	0.030	-0.130	-0.050	269.550	-1.400	0.400																			1580000813.0	8.03	14.87
26/01/2020 01:06:54	26012020	260120	010654	269.550	12.418755	-57.507043	269.560	0.260	-0.320	-0.030	269.550	-1.600	0.300																			1580000814.0	8.07	14.95
26/01/2020 01:06:55	26012020	260120	010655	269.610	12.418755	-57.507080	269.630	0.410	-0.440	0.170	269.610	-1.800	0.400																			1580000815.0	7.91	14.65
26/01/2020 01:06:56	26012020	260120	010656	269.680	12.418755	-57.507117	269.690	0.450	-0.600	0.460	269.680	-1.900	0.700																			1580000816.0	7.78	14.41
26/01/2020 01:06:57	26012020	260120	010657	269.770	12.418758	-57.507155	269.840	0.360	-0.700	0.600	269.770	-2.100	0.900																			1580000817.0	7.83	14.50
26/01/2020 01:06:58	26012020	260120	010658	269.950	12.418760	-57.507192	270.060	0.120	-0.570	0.510	269.950	-2.100	0.900																			1580000818.0	7.95	14.72
26/01/2020 01:06:59	26012020	260120	010659	270.160	12.418762	-57.507230	270.180	-0.190	-0.260	0.330	270.160	-1.800	0.800	1015.10	25.30	25.40	21.60	21.60	-1.00	80.00	79.00	390.00	24.60	83.00	5.40	32.00	6.30	14	3469.00	27.40	27.40	1580000819.0	7.90	14.63
26/01/2020 01:07:00	26012020	260120	010700	270.220	12.418760	-57.507267	270.110	-0.360	0.090	0.170	270.220	-1.500	0.600																			1580000820.0	7.78	14.41
26/01/2020 01:07:01	26012020	260120	010701	270.110	12.418758	-57.507303	269.920	-0.320	0.330	0.070	270.110	-1.200	0.500																			1580000821.0	7.75	14.35
26/01/2020 01:07:02	26012020	260120	010702	269.940	12.418757	-57.507340	269.710	-0.190	0.440	-0.010	269.890	-1.000	0.400																			1580000822.0	7.84	14.52
26/01/2020 01:07:03	26012020	260120	010703	269.690	12.418755	-57.507377	269.540	-0.100	0.380	-0.150	269.690	-1.000	0.300																			1580000823.0	7.88	14.59
26/01/2020 01:07:04	26012020	260120	010704	269.560	12.418755	-57.507415	269.460	-0.040	0.090	-0.280	269.560	-1.100	0.100																			1580000824.0	7.87	14.58
26/01/2020 01:07:05	26012020	260120	010705	269.510	12.418753	-57.507452	269.480	0.060	-0.300	-0.350	269.510	-1.500	0.000																			1580000825.0	7.91	14.65
26/01/2020 01:07:06	26012020	260120	010706	269.560	12.418753	-57.507490	269.610	0.200	-0.570	-0.310	269.560	-1.900	0.000																			1580000826.0	8.01	14.83
26/01/2020 01:07:07	26012020	260120	010707	269.730	12.418752	-57.507527	269.790	0.270	-0.620	-0.080	269.730	-2.000	0.100																			1580000827.0	7.97	14.76
26/01/2020 01:07:08	26012020	260120	010708	269.900	12.418752	-57.507565	269.950	0.220	-0.560	0.250	269.900	-2.000	0.400																			1580000828.0	7.82	14.48
26/01/2020 01:07:09	26012020	260120	010709	270.020	12.418755	-57.507600	270.020	0.080	-0.450	0.510	270.020	-1.900	0.800																			1580000829.0	7.72	14.30
26/01/2020 01:07:10	26012020	260120	010710	270.070	12.418757	-57.507637	270.060	-0.090	-0.270	0.560	270.070	-1.800	0.900																			1580000830.0	7.77	14.39
26/01/2020 01:07:11	26012020	260120	010711	270.120	12.418758	-57.507675	270.110	-0.220	-0.060	0.370	270.120	-1.500	0.800																			1580000831.0	7.81	14.46
26/01/2020 01:07:12	26012020	260120	010712	270.150	12.418757	-57.507712	270.100	-0.270	0.000	0.050	270.150	-1.400	0.600																			1580000832.0	7.79	14.43
26/01/2020 01:07:13	26012020	260120	010713	270.140	12.418755	-57.507748	270.070	-0.200	-0.060	-0.180	270.140	-1.400	0.300																			1580000833.0	7.89	14.61
26/01/2020 01:07:14	26012020	260120	010714	270.080	12.418752	-57.507787	269.980	-0.040	-0.050	-0.170	270.080	-1.500	0.200																			1580000834.0	8.09	14.98
26/01/2020 01:07:15	26012020	260120	010715	270.000	12.418750	-57.507825	269.900	0.100	0.160	0.090	270.000	-1.400	0.300																			1580000835.0	8.11	15.02
26/01/2020 01:07:16	26012020	260120	010716	269.920	12.418750	-57.507862	269.850	0.150	0.400	0.450	269.920	-1.100	0.600																			1580000836.0	7.88	14.59
26/01/2020 01:07:17	26012020	260120	010717	269.900	12.418753	-57.507898	269.870	0.130	0.360	0.620	269.900	-1.000	0.900																			1580000837.0	7.64	14.15
26/01/2020 01:07:18	26012020	260120	010718	269.950	12.418755	-57.507935	269.990	0.120	-0.020	0.410	269.950	-1.200	0.900																			1580000838.0	7.63	14.13
26/01/2020 01:07:19	26012020	260120	010719	270.090	12.418757	-57.507972	270.100	0.140	-0.570	-0.050	270.090	-1.700	0.500																			1580000839.0	7.85	14.54
26/01/2020 01:07:20	26012020	260120	010720	270.170	12.418753	-57.508010	270.090	0.120	-0.950	-0.460	270.170	-2.200	0.100																			1580000840.0	8.09	14.98
26/01/2020 01:07:21	26012020	260120	010721	270.150	12.418752	-57.508048	270.060	0.020	-0.960	-0.720	270.150	-2.400	-0.300																			1580000841.0	8.14	15.08
26/01/2020 01:07:22	26012020	260120	010722	270.150	12.418748	-57.508085	270.140	-0.140	-0.590	-0.890	270.150	-2.200	-0.500																			1580000842.0	7.94	14.70
26/01/2020 01:07:23	26012020	260120	010723	270.300	12.418747	-57.508122	270.370	-0.250	-0.110	-1.000	270.300	-1.700	-0.600																			1580000843.0	7.66	14.19
26/01/2020 01:07:24	26012020	260120	010724	270.530	12.418747	-57.508157	270.680	-0.250	0.160	-0.910	270.600	-1.300	-0.600																			1580000844.0	7.53	13.95
26/01/2020 01:07:25	26012020	260120	010725	270.860	12.418745	-57.508193	270.830	-0.140	0.190	-0.480	270.860	-1.200	-0.400																			1580000845.0	7.70	14.26
26/01/2020 01:07:26	26012020	260120	010726	270.910	12.418747	-57.508232	270.740	0.010	0.190	0.260	270.910	-1.200	0.200																			1580000846.0	8.01	14.83
26/01/2020 01:07:27	26012020	260120	010727	270.720	12.418748	-57.508270	270.460	0.120	0.290	1.080	270.720	-1.200	1.000																			1580000847.0	8.15	15.09
26/01/2020 01:07:28	26012020	260120	010728	270.390	12.418753	-57.508308	270.130	0.180	0.340	1.680	270.390	-1.000	1.800																			1580000848.0	7.98	14.78
26/01/2020 01:07:29	26012020	260120	010729	270.060	12.418757	-57.508343	269.900	0.200	0.100	1.690	270.060	-1.100	2.100																			1580000849.0	7.77	14.39
26/01/2020 01:07:30	26012020	260120	010730	269.900	12.418760	-57.508380	269.870	0.170	-0.340	1.090	269.900	-1.500	1.800																			1580000850.0	7.79	14.43
26/01/2020 01:07:31	26012020	260120	010731	269.970	12.418758	-57.508418	270.040	0.080	-0.720	0.120	269.970	-1.900	1.000																			1580000851.0	7.96	14.74
26/01/2020 01:07:32	26012020	260120	010732	270.210	12.418755	-57.508457	270.330	-0.020	-0.820	-0.880	270.210	-2.200	-0.100																			1580000852.0	8.05	14.91
26/01/2020 01:07:33	26012020	260120	010733	270.530	12.418750	-57.508493	270.610	-0.090	-0.660	-1.550	270.530	-2.100	-0.900																			1580000853.0	7.98	14.78
26/01/2020 01:07:34	26012020	260120	010734	270.790	12.418745	-57.508530	270.790	-0.100	-0.370	-1.730	270.790	-1.900	-1.400																			1580000854.0	7.79	14.43
26/01/2020 01:07:35	26012020	260120	010735	270.940	12.418742	-57.508567	270.870	-0.130	-0.060	-1.470	270.940	-1.600	-1.300																			1580000855.0	7.70	14.26
26/01/2020 01:07:36	26012020	260120	010736	270.970	12.418742	-57.508603	270.860	-0.170	0.180	-0.900	270.970	-1.300	-0.900																			1580000856.0	7.73	14.32
26/01/2020 01:07:37	26012020	260120	010737	270.910	12.418743	-57.508640	270.750	-0.170	0.300	-0.220	270.910	-1.100	-0.200																			1580000857.0	7.79	14.43
26/01/2020 01:07:38	26012020	260120	010738	270.780	12.418748	-57.508677	270.550	-0.080	0.300	0.420	270.750	-1.100	0.500																			1580000858.0	7.88	14.59
26/01/2020 01:07:39	26012020	260120	010739	270.530	12.418752	-57.508715	270.350	0.060	0.160	0.890	270.530	-1.100	1.000																			1580000859.0	7.92	14.67
26/01/2020 01:07:40	26012020	260120	010740	270.360	12.418753	-57.508752	270.210	0.160	-0.130	1.150	270.330	-1.400	1.400																			1580000860.0	7.91	14.65
26/01/2020 01:07:41	26012020	260120	010741	270.220	12.418753	-57.508790	270.170	0.240	-0.430	1.250	270.220	-1.700	1.600																			1580000861.0	7.95	14.72
26/01/2020 01:07:42	26012020	260120	010742	270.210	12.418755	-57.508827	270.240	0.260	-0.540	1.140	270.210	-1.900	1.600																			1580000862.0	7.98	14.78
26/01/2020 01:07:43	26012020	260120	010743	270.330	12.418757	-57.508865	270.400	0.180	-0.440	0.780	270.330	-1.900	1.300																			1580000863.0	7.90	14.63
26/01/2020 01:07:44	26012020	260120	010744	270.530	12.418757	-57.508900	270.590	0.020	-0.270	0.280	270.530	-1.700	0.900																			1580000864.0	7.70	14.26
26/01/2020 01:07:45	26012020	260120	010745	270.700	12.418755	-57.508937	270.700	-0.150	-0.190	-0.210	270.700	-1.600	0.400																			1580000865.0	7.61	14.09
26/01/2020 01:07:46	26012020	260120	010746	270.760	12.418753	-57.508973	270.650	-0.240	-0.240	-0.630	270.760	-1.600	-0.100																			1580000866.0	7.71	14.28
26/01/2020 01:07:47	26012020	260120	010747	270.700	12.418750	-57.509010	270.580	-0.220	-0.260	-0.940	270.700	-1.700	-0.400																			1580000867.0	7.94	14.70
26/01/2020 01:07:48	26012020	260120	010748	270.650	12.418747	-57.509048	270.580	-0.120	-0.130	-1.130	270.650	-1.600	-0.700																			1580000868.0	8.04	14.89
26/01/2020 01:07:49	26012020	260120	010749	270.700	12.418745	-57.509087	270.680	-0.010	0.040	-1.140	270.700	-1.400	-0.800																			1580000869.0	7.93	14.69
26/01/2020 01:07:50	26012020	260120	010750	270.790	12.418745	-57.509123	270.740	0.060	0.170	-0.880	270.800	-1.300	-0.700																			1580000870.0	7.81	14.46
26/01/2020 01:07:51	26012020	260120	010751	270.800	12.418745	-57.509160	270.620	0.100	0.240	-0.360	270.800	-1.200	-0.300																			1580000871.0	7.80	14.45
26/01/2020 01:07:52	26012020	260120	010752	270.630	12.418748	-57.509197	270.430	0.100	0.190	0.290	270.630	-1.200	0.300																			1580000872.0	7.79	14.43
26/01/2020 01:07:53	26012020	260120	010753	270.440	12.418752	-57.509233	270.300	0.070	0.010	0.900	270.440	-1.300	1.000																			1580000873.0	7.77	14.39
26/01/2020 01:07:54	26012020	260120	010754	270.350	12.418755	-57.509270	270.320	0.020	-0.320	1.260	270.350	-1.500	1.500																			1580000874.0	7.80	14.45
26/01/2020 01:07:55	26012020	260120	010755	270.410	12.418758	-57.509307	270.460	-0.010	-0.680	1.250	270.410	-1.900	1.600																			1580000875.0	7.85	14.54
26/01/2020 01:07:56	26012020	260120	010756	270.570	12.418760	-57.509345	270.640	-0.020	-0.850	0.900	270.570	-2.200	1.500																			1580000876.0	7.95	14.72
26/01/2020 01:07:57	26012020	260120	010757	270.750	12.418758	-57.509382	270.780	-0.020	-0.720	0.400	270.750	-2.200	1.000																			1580000877.0	7.96	14.74
26/01/2020 01:07:58	26012020	260120	010758	270.860	12.418757	-57.509420	270.820	-0.010	-0.360	-0.150	270.860	-1.900	0.500																			1580000878.0	7.87	14.58
26/01/2020 01:07:59	26012020	260120	010759	270.890	12.418753	-57.509457	270.800	-0.030	0.050	-0.670	270.890	-1.500	-0.100	1015.10	25.30	25.30	21.70	21.60	-1.00	80.00	79.00	390.00	24.60	79.00	5.60	29.00	6.30	14	3363.00	27.40	27.40	1580000879.0	7.75	14.35
26/01/2020 01:08:00	26012020	260120	010800	270.880	12.418750	-57.509492	270.770	-0.100	0.340	-1.020	270.880	-1.200	-0.500																			1580000880.0	7.70	14.26
26/01/2020 01:08:01	26012020	260120	010801	270.850	12.418748	-57.509528	270.730	-0.180	0.430	-1.020	270.850	-1.000	-0.700																			1580000881.0	7.75	14.35
26/01/2020 01:08:02	26012020	260120	010802	270.790	12.418747	-57.509565	270.660	-0.190	0.280	-0.650	270.790	-1.000	-0.500																			1580000882.0	7.83	14.50
26/01/2020 01:08:03	26012020	260120	010803	270.710	12.418748	-57.509603	270.610	-0.060	0.040	-0.090	270.710	-1.200	-0.000																			1580000883.0	7.94	14.70
26/01/2020 01:08:04	26012020	260120	010804	270.670	12.418752	-57.509642	270.610	0.150	-0.210	0.450	270.670	-1.500	0.600																			1580000884.0	8.01	14.83
26/01/2020 01:08:05	26012020	260120	010805	270.670	12.418755	-57.509678	270.620	0.300	-0.400	0.770	270.670	-1.700	1.000																			1580000885.0	7.98	14.78
26/01/2020 01:08:06	26012020	260120	010806	270.670	12.418757	-57.509717	270.640	0.300	-0.490	0.810	270.670	-1.900	1.200																			1580000886.0	7.88	14.59
26/01/2020 01:08:07	26012020	260120	010807	270.680	12.418760	-57.509753	270.670	0.160	-0.460	0.610	270.680	-1.900	1.100																			1580000887.0	7.79	14.43
26/01/2020 01:08:08	26012020	260120	010808	270.730	12.418760	-57.509788	270.720	-0.030	-0.360	0.250	270.730	-1.800	0.800																			1580000888.0	7.71	14.28
26/01/2020 01:08:09	26012020	260120	010809	270.810	12.418758	-57.509825	270.830	-0.170	-0.240	-0.180	270.810	-1.700	0.400																			1580000889.0	7.68	14.22
26/01/2020 01:08:10	26012020	260120	010810	270.960	12.418757	-57.509862	271.000	-0.240	-0.090	-0.540	270.960	-1.600	-0.000																			1580000890.0	7.77	14.39
26/01/2020 01:08:11	26012020	260120	010811	271.110	12.418753	-57.509898	271.090	-0.240	-0.010	-0.670	271.110	-1.400	-0.300																			1580000891.0	7.80	14.45
26/01/2020 01:08:12	26012020	260120	010812	271.170	12.418753	-57.509937	271.080	-0.150	-0.010	-0.530	271.170	-1.400	-0.300																			1580000892.0	7.84	14.52
26/01/2020 01:08:13	26012020	260120	010813	271.120	12.418753	-57.509973	270.980	-0.010	-0.020	-0.240	271.120	-1.400	-0.000																			1580000893.0	7.91	14.65
26/01/2020 01:08:14	26012020	260120	010814	271.020	12.418753	-57.510012	270.860	0.120	-0.010	0.110	271.020	-1.400	0.300																			1580000894.0	7.93	14.69
26/01/2020 01:08:15	26012020	260120	010815	270.860	12.418755	-57.510048	270.690	0.180	-0.070	0.430	270.860	-1.400	0.600																			1580000895.0	7.85	14.54
26/01/2020 01:08:16	26012020	260120	010816	270.690	12.418757	-57.510085	270.590	0.170	-0.240	0.570	270.690	-1.500	0.900																			1580000896.0	7.79	14.43
26/01/2020 01:08:17	26012020	260120	010817	270.640	12.418760	-57.510122	270.630	0.100	-0.360	0.450	270.640	-1.700	0.900																			1580000897.0	7.88	14.59
26/01/2020 01:08:18	26012020	260120	010818	270.730	12.418762	-57.510160	270.760	-0.010	-0.330	0.170	270.730	-1.800	0.700																			1580000898.0	7.91	14.65
26/01/2020 01:08:19	26012020	260120	010819	270.890	12.418762	-57.510197	270.890	-0.130	-0.250	-0.160	270.890	-1.700	0.400																			1580000899.0	7.80	14.45
26/01/2020 01:08:20	26012020	260120	010820	271.000	12.418760	-57.510233	270.950	-0.260	-0.200	-0.370	271.000	-1.600	0.100																			1580000900.0	7.75	14.35
26/01/2020 01:08:21	26012020	260120	010821	271.040	12.418758	-57.510270	270.950	-0.300	-0.130	-0.390	271.040	-1.600	-0.100																			1580000901.0	7.81	14.46
26/01/2020 01:08:22	26012020	260120	010822	271.010	12.418757	-57.510307	270.870	-0.170	0.030	-0.240	271.010	-1.500	0.000																			1580000902.0	7.86	14.56
26/01/2020 01:08:23	26012020	260120	010823	270.900	12.418757	-57.510343	270.730	0.110	0.230	0.000	270.900	-1.300	0.200																			1580000903.0	7.81	14.46
26/01/2020 01:08:24	26012020	260120	010824	270.760	12.418757	-57.510380	270.620	0.380	0.240	0.230	270.760	-1.100	0.500																			1580000904.0	7.69	14.24
26/01/2020 01:08:25	26012020	260120	010825	270.640	12.418758	-57.510417	270.540	0.500	-0.090	0.310	270.640	-1.300	0.600																			1580000905.0	7.66	14.19
26/01/2020 01:08:26	26012020	260120	010826	270.580	12.418762	-57.510453	270.530	0.390	-0.570	0.180	270.580	-1.700	0.600																			1580000906.0	7.90	14.63
26/01/2020 01:08:27	26012020	260120	010827	270.620	12.418763	-57.510492	270.600	0.150	-0.800	-0.080	270.620	-2.100	0.400																			1580000907.0	8.11	15.02
26/01/2020 01:08:28	26012020	260120	010828	270.690	12.418763	-57.510530	270.700	-0.120	-0.620	-0.300	270.700	-2.100	0.100																			1580000908.0	8.08	14.96
26/01/2020 01:08:29	26012020	260120	010829	270.790	12.418763	-57.510567	270.760	-0.360	-0.230	-0.370	270.790	-1.800	-0.000																			1580000909.0	7.78	14.41
26/01/2020 01:08:30	26012020	260120	010830	270.830	12.418762	-57.510603	270.750	-0.500	0.060	-0.280	270.830	-1.500	0.000																			1580000910.0	7.54	13.96
26/01/2020 01:08:31	26012020	260120	010831	270.780	12.418760	-57.510638	270.660	-0.490	0.150	-0.120	270.780	-1.300	0.200																			1580000911.0	7.58	14.04
26/01/2020 01:08:32	26012020	260120	010832	270.670	12.418760	-57.510677	270.520	-0.310	0.110	0.010	270.670	-1.300	0.300																			1580000912.0	7.81	14.46
26/01/2020 01:08:33	26012020	260120	010833	270.520	12.418760	-57.510713	270.360	-0.030	0.090	0.130	270.520	-1.300	0.400																			1580000913.0	8.00	14.82
26/01/2020 01:08:34	26012020	260120	010834	270.350	12.418760	-57.510752	270.210	0.250	0.080	0.290	270.350	-1.300	0.600																			1580000914.0	7.97	14.76
26/01/2020 01:08:35	26012020	260120	010835	270.230	12.418762	-57.510788	270.160	0.460	-0.040	0.440	270.230	-1.400	0.700																			1580000915.0	7.83	14.50
26/01/2020 01:08:36	26012020	260120	010836	270.230	12.418763	-57.510825	270.250	0.530	-0.240	0.560	270.230	-1.500	0.900																			1580000916.0	7.80	14.45
26/01/2020 01:08:37	26012020	260120	010837	270.310	12.418765	-57.510863	270.300	0.430	-0.390	0.660	270.310	-1.700	1.000																			1580000917.0	7.87	14.58
26/01/2020 01:08:38	26012020	260120	010838	270.350	12.418767	-57.510900	270.290	0.200	-0.390	0.630	270.350	-1.800	1.000																			1580000918.0	7.88	14.59
26/01/2020 01:08:39	26012020	260120	010839	270.330	12.418768	-57.510937	270.290	-0.060	-0.280	0.350	270.330	-1.700	0.900																			1580000919.0	7.79	14.43
26/01/2020 01:08:40	26012020	260120	010840	270.350	12.418768	-57.510973	270.370	-0.260	-0.170	-0.150	270.360	-1.600	0.500																			1580000920.0	7.70	14.26
26/01/2020 01:08:41	26012020	260120	010841	270.470	12.418765	-57.511010	270.470	-0.350	-0.190	-0.640	270.470	-1.600	-0.100																			1580000921.0	7.68	14.22
26/01/2020 01:08:42	26012020	260120	010842	270.570	12.418762	-57.511047	270.500	-0.320	-0.310	-0.920	270.570	-1.600	-0.500																			1580000922.0	7.79	14.43
26/01/2020 01:08:43	26012020	260120	010843	270.560	12.418758	-57.511083	270.450	-0.220	-0.350	-0.910	270.560	-1.700	-0.600																			1580000923.0	7.96	14.74
26/01/2020 01:08:44	26012020	260120	010844	270.490	12.418757	-57.511122	270.350	-0.090	-0.220	-0.610	270.490	-1.700	-0.400																			1580000924.0	8.01	14.83
26/01/2020 01:08:45	26012020	260120	010845	270.380	12.418757	-57.511158	270.240	0.030	-0.020	-0.100	270.380	-1.500	-0.000																			1580000925.0	7.89	14.61
26/01/2020 01:08:46	26012020	260120	010846	270.280	12.418758	-57.511195	270.190	0.150	0.100	0.480	270.280	-1.300	0.500																			1580000926.0	7.76	14.37
26/01/2020 01:08:47	26012020	260120	010847	270.230	12.418762	-57.511232	270.180	0.230	0.090	0.960	270.230	-1.300	1.100																			1580000927.0	7.80	14.45
26/01/2020 01:08:48	26012020	260120	010848	270.220	12.418767	-57.511270	270.200	0.240	0.080	1.160	270.220	-1.300	1.400																			1580000928.0	7.93	14.69
26/01/2020 01:08:49	26012020	260120	010849	270.260	12.418770	-57.511307	270.270	0.120	0.110	1.010	270.260	-1.300	1.500																			1580000929.0	7.94	14.70
26/01/2020 01:08:50	26012020	260120	010850	270.340	12.418770	-57.511343	270.350	-0.080	0.050	0.570	270.340	-1.300	1.200																			1580000930.0	7.79	14.43
26/01/2020 01:08:51	26012020	260120	010851	270.440	12.418770	-57.511380	270.420	-0.200	-0.190	-0.040	270.440	-1.400	0.600																			1580000931.0	7.68	14.22
26/01/2020 01:08:52	26012020	260120	010852	270.520	12.418767	-57.511417	270.460	-0.140	-0.510	-0.610	270.520	-1.800	0.000																			1580000932.0	7.78	14.41
26/01/2020 01:08:53	26012020	260120	010853	270.550	12.418762	-57.511455	270.430	0.050	-0.750	-0.960	270.550	-2.000	-0.500																			1580000933.0	7.97	14.76
26/01/2020 01:08:54	26012020	260120	010854	270.500	12.418758	-57.511492	270.330	0.190	-0.740	-0.950	270.500	-2.200	-0.700																			1580000934.0	8.02	14.85
26/01/2020 01:08:55	26012020	260120	010855	270.360	12.418757	-57.511530	270.200	0.170	-0.440	-0.620	270.360	-2.000	-0.500																			1580000935.0	7.93	14.69
26/01/2020 01:08:56	26012020	260120	010856	270.260	12.418758	-57.511567	270.190	0.050	-0.040	-0.130	270.260	-1.600	-0.000																			1580000936.0	7.76	14.37
26/01/2020 01:08:57	26012020	260120	010857	270.290	12.418762	-57.511602	270.310	-0.070	0.300	0.230	270.290	-1.200	0.400																			1580000937.0	7.67	14.20
26/01/2020 01:08:58	26012020	260120	010858	270.440	12.418765	-57.511638	270.470	-0.110	0.430	0.340	270.440	-1.000	0.700																			1580000938.0	7.72	14.30
26/01/2020 01:08:59	26012020	260120	010859	270.580	12.418767	-57.511675	270.550	-0.090	0.270	0.300	270.580	-1.000	0.700	1015.10	25.30	25.40	21.60	21.60	-1.00	80.00	79.00	390.00	24.60	77.00	5.70	27.00	6.20	14	3436.00	27.40	27.40	1580000939.0	7.79	14.43
26/01/2020 01:09:00	26012020	260120	010900	270.590	12.418767	-57.511713	270.450	-0.050	-0.060	0.280	270.590	-1.300	0.600																			1580000940.0	7.94	14.70
26/01/2020 01:09:01	26012020	260120	010901	270.450	12.418767	-57.511752	270.260	-0.010	-0.260	0.340	270.450	-1.600	0.700																			1580000941.0	8.11	15.02
26/01/2020 01:09:02	26012020	260120	010902	270.270	12.418765	-57.511790	270.140	0.030	-0.250	0.420	270.270	-1.700	0.700																			1580000942.0	8.03	14.87
26/01/2020 01:09:03	26012020	260120	010903	270.190	12.418767	-57.511827	270.110	0.080	-0.240	0.410	270.190	-1.600	0.800																			1580000943.0	7.75	14.35
26/01/2020 01:09:04	26012020	260120	010904	270.190	12.418767	-57.511862	270.140	0.120	-0.360	0.310	270.190	-1.700	0.700																			1580000944.0	7.59	14.06
26/01/2020 01:09:05	26012020	260120	010905	270.250	12.418767	-57.511898	270.230	0.100	-0.510	0.130	270.250	-1.800	0.600																			1580000945.0	7.73	14.32
26/01/2020 01:09:06	26012020	260120	010906	270.350	12.418767	-57.511937	270.330	0.030	-0.500	-0.100	270.350	-1.900	0.400																			1580000946.0	7.93	14.69
26/01/2020 01:09:07	26012020	260120	010907	270.430	12.418767	-57.511973	270.360	-0.050	-0.330	-0.300	270.430	-1.800	0.100																			1580000947.0	7.92	14.67
26/01/2020 01:09:08	26012020	260120	010908	270.400	12.418765	-57.512010	270.260	-0.100	-0.090	-0.440	270.400	-1.600	-0.000																			1580000948.0	7.82	14.48
26/01/2020 01:09:09	26012020	260120	010909	270.300	12.418763	-57.512047	270.160	-0.130	0.100	-0.480	270.300	-1.400	-0.100																			1580000949.0	7.76	14.37
26/01/2020 01:09:10	26012020	260120	010910	270.220	12.418763	-57.512083	270.150	-0.150	0.260	-0.430	270.220	-1.200	-0.100																			1580000950.0	7.79	14.43
26/01/2020 01:09:11	26012020	260120	010911	270.240	12.418762	-57.512120	270.220	-0.160	0.280	-0.250	270.240	-1.100	0.000																			1580000951.0	7.79	14.43
26/01/2020 01:09:12	26012020	260120	010912	270.300	12.418763	-57.512158	270.290	-0.070	0.120	0.020	270.300	-1.200	0.200																			1580000952.0	7.78	14.41
26/01/2020 01:09:13	26012020	260120	010913	270.350	12.418765	-57.512195	270.280	0.150	-0.160	0.350	270.350	-1.400	0.500																			1580000953.0	7.85	14.54
26/01/2020 01:09:14	26012020	260120	010914	270.310	12.418767	-57.512232	270.180	0.350	-0.440	0.690	270.310	-1.700	0.900																			1580000954.0	7.96	14.74
26/01/2020 01:09:15	26012020	260120	010915	270.180	12.418770	-57.512270	270.050	0.360	-0.640	0.880	270.180	-1.900	1.200																			1580000955.0	8.00	14.82
26/01/2020 01:09:16	26012020	260120	010916	270.070	12.418772	-57.512308	270.020	0.130	-0.670	0.750	270.070	-2.100	1.200																			1580000956.0	7.96	14.74
26/01/2020 01:09:17	26012020	260120	010917	270.090	12.418772	-57.512345	270.080	-0.200	-0.490	0.350	270.090	-2.000	0.900																			1580000957.0	7.88	14.59
26/01/2020 01:09:18	26012020	260120	010918	270.160	12.418772	-57.512382	270.140	-0.480	-0.120	-0.130	270.170	-1.700	0.500																			1580000958.0	7.78	14.41
26/01/2020 01:09:19	26012020	260120	010919	270.240	12.418768	-57.512418	270.200	-0.540	0.270	-0.560	270.240	-1.300	0.000																			1580000959.0	7.67	14.20
26/01/2020 01:09:20	26012020	260120	010920	270.290	12.418765	-57.512453	270.230	-0.350	0.440	-0.780	270.290	-1.000	-0.300																			1580000960.0	7.61	14.09
26/01/2020 01:09:21	26012020	260120	010921	270.290	12.418762	-57.512490	270.210	0.020	0.230	-0.730	270.290	-1.000	-0.400																			1580000961.0	7.68	14.22
26/01/2020 01:09:22	26012020	260120	010922	270.250	12.418760	-57.512527	270.150	0.390	-0.160	-0.440	270.250	-1.400	-0.300																			1580000962.0	7.92	14.67
26/01/2020 01:09:23	26012020	260120	010923	270.180	12.418762	-57.512567	270.060	0.530	-0.370	0.070	270.180	-1.700	0.100																			1580000963.0	8.20	15.19
26/01/2020 01:09:24	26012020	260120	010924	270.070	12.418765	-57.512605	269.910	0.350	-0.260	0.680	270.070	-1.700	0.700																			1580000964.0	8.15	15.09
26/01/2020 01:09:25	26012020	260120	010925	269.900	12.418768	-57.512642	269.770	0.020	-0.100	1.060	269.900	-1.600	1.300																			1580000965.0	7.80	14.45
26/01/2020 01:09:26	26012020	260120	010926	269.800	12.418773	-57.512677	269.770	-0.230	-0.180	0.970	269.800	-1.500	1.400																			1580000966.0	7.52	13.93
26/01/2020 01:09:27	26012020	260120	010927	269.840	12.418775	-57.512712	269.880	-0.280	-0.490	0.420	269.840	-1.700	1.100																			1580000967.0	7.60	14.08
26/01/2020 01:09:28	26012020	260120	010928	269.990	12.418773	-57.512750	270.030	-0.200	-0.750	-0.260	269.990	-2.000	0.400																			1580000968.0	7.96	14.74
26/01/2020 01:09:29	26012020	260120	010929	270.160	12.418768	-57.512788	270.190	-0.120	-0.660	-0.780	270.160	-2.100	-0.200																			1580000969.0	8.22	15.22
26/01/2020 01:09:30	26012020	260120	010930	270.310	12.418763	-57.512827	270.280	-0.070	-0.220	-0.920	270.310	-1.900	-0.600																			1580000970.0	8.12	15.04
26/01/2020 01:09:31	26012020	260120	010931	270.350	12.418762	-57.512863	270.220	0.010	0.270	-0.640	270.350	-1.300	-0.500																			1580000971.0	7.77	14.39
26/01/2020 01:09:32	26012020	260120	010932	270.230	12.418762	-57.512898	270.070	0.130	0.520	-0.110	270.230	-1.000	-0.000																			1580000972.0	7.55	13.98
26/01/2020 01:09:33	26012020	260120	010933	270.070	12.418763	-57.512935	269.940	0.210	0.470	0.400	270.070	-0.900	0.500																			1580000973.0	7.66	14.19
26/01/2020 01:09:34	26012020	260120	010934	269.940	12.418767	-57.512973	269.800	0.160	0.290	0.740	269.940	-1.000	0.900																			1580000974.0	7.93	14.69
26/01/2020 01:09:35	26012020	260120	010935	269.790	12.418772	-57.513010	269.680	0.020	0.010	0.780	269.790	-1.200	1.200																			1580000975.0	8.00	14.82
26/01/2020 01:09:36	26012020	260120	010936	269.720	12.418773	-57.513048	269.680	-0.100	-0.350	0.510	269.720	-1.600	1.000																			1580000976.0	7.89	14.61
26/01/2020 01:09:37	26012020	260120	010937	269.750	12.418772	-57.513085	269.740	-0.140	-0.670	0.100	269.750	-1.900	0.700																			1580000977.0	7.87	14.58
26/01/2020 01:09:38	26012020	260120	010938	269.830	12.418770	-57.513122	269.800	-0.130	-0.830	-0.270	269.830	-2.200	0.300																			1580000978.0	7.91	14.65
26/01/2020 01:09:39	26012020	260120	010939	269.890	12.418767	-57.513158	269.850	-0.080	-0.750	-0.500	269.890	-2.200	-0.100																			1580000979.0	7.87	14.58
26/01/2020 01:09:40	26012020	260120	010940	269.940	12.418763	-57.513195	269.880	0.030	-0.500	-0.500	269.940	-2.000	-0.200																			1580000980.0	7.77	14.39
26/01/2020 01:09:41	26012020	260120	010941	269.940	12.418762	-57.513232	269.860	0.170	-0.160	-0.280	269.940	-1.700	-0.100																			1580000981.0	7.71	14.28
26/01/2020 01:09:42	26012020	260120	010942	269.910	12.418763	-57.513268	269.820	0.270	0.140	0.050	269.910	-1.400	0.200																			1580000982.0	7.72	14.30
26/01/2020 01:09:43	26012020	260120	010943	269.870	12.418765	-57.513305	269.800	0.270	0.340	0.380	269.870	-1.100	0.600																			1580000983.0	7.80	14.45
26/01/2020 01:09:44	26012020	260120	010944	269.860	12.418768	-57.513343	269.800	0.150	0.390	0.600	269.860	-1.000	0.900																			1580000984.0	7.89	14.61
26/01/2020 01:09:45	26012020	260120	010945	269.860	12.418772	-57.513380	269.790	-0.040	0.260	0.650	269.860	-1.000	1.000																			1580000985.0	7.92	14.67
26/01/2020 01:09:46	26012020	260120	010946	269.840	12.418773	-57.513417	269.750	-0.220	-0.070	0.450	269.840	-1.300	0.900																			1580000986.0	7.90	14.63
26/01/2020 01:09:47	26012020	260120	010947	269.800	12.418772	-57.513455	269.720	-0.320	-0.460	0.080	269.800	-1.700	0.600																			1580000987.0	7.98	14.78
26/01/2020 01:09:48	26012020	260120	010948	269.800	12.418770	-57.513493	269.720	-0.330	-0.630	-0.330	269.800	-2.000	0.200																			1580000988.0	8.10	15.00
26/01/2020 01:09:49	26012020	260120	010949	269.800	12.418765	-57.513532	269.680	-0.250	-0.500	-0.580	269.800	-2.000	-0.100																			1580000989.0	8.04	14.89
26/01/2020 01:09:50	26012020	260120	010950	269.730	12.418762	-57.513568	269.590	-0.100	-0.190	-0.580	269.730	-1.700	-0.300																			1580000990.0	7.77	14.39
26/01/2020 01:09:51	26012020	260120	010951	269.640	12.418760	-57.513603	269.550	0.110	0.020	-0.380	269.640	-1.400	-0.100																			1580000991.0	7.54	13.96
26/01/2020 01:09:52	26012020	260120	010952	269.640	12.418760	-57.513638	269.630	0.330	-0.010	-0.070	269.640	-1.400	0.100																			1580000992.0	7.54	13.96
26/01/2020 01:09:53	26012020	260120	010953	269.750	12.418762	-57.513677	269.770	0.460	-0.160	0.240	269.750	-1.500	0.400																			1580000993.0	7.80	14.45
26/01/2020 01:09:54	26012020	260120	010954	269.890	12.418765	-57.513713	269.870	0.420	-0.210	0.520	269.890	-1.600	0.700																			1580000994.0	8.06	14.93
26/01/2020 01:09:55	26012020	260120	010955	269.960	12.418768	-57.513752	269.910	0.250	-0.110	0.650	269.960	-1.600	1.000																			1580000995.0	8.09	14.98
26/01/2020 01:09:56	26012020	260120	010956	269.970	12.418772	-57.513790	269.870	-0.000	0.020	0.570	269.970	-1.400	1.000																			1580000996.0	7.89	14.61
26/01/2020 01:09:57	26012020	260120	010957	269.900	12.418772	-57.513825	269.750	-0.240	-0.040	0.340	269.900	-1.400	0.800																			1580000997.0	7.69	14.24
26/01/2020 01:09:58	26012020	260120	010958	269.750	12.418770	-57.513862	269.550	-0.400	-0.280	0.060	269.750	-1.500	0.600																			1580000998.0	7.75	14.35
26/01/2020 01:09:59	26012020	260120	010959	269.570	12.418767	-57.513900	269.440	-0.410	-0.450	-0.230	269.570	-1.800	0.300	1015.10	25.30	25.40	21.70	21.70	-1.00	80.00	80.00	390.00	24.60	77.00	5.70	27.00	6.20	14	3537.00	27.40	27.40	1580000999.0	7.98	14.78
26/01/2020 01:10:00	26012020	260120	011000	269.550	12.418765	-57.513938	269.540	-0.310	-0.370	-0.540	269.550	-1.800	-0.000																			1580001000.0	8.07	14.95
26/01/2020 01:10:01	26012020	260120	011001	269.710	12.418762	-57.513975	269.740	-0.130	-0.150	-0.700	269.710	-1.600	-0.300																			1580001001.0	7.89	14.61
26/01/2020 01:10:02	26012020	260120	011002	269.880	12.418760	-57.514012	269.850	0.060	-0.030	-0.620	269.880	-1.500	-0.300																			1580001002.0	7.68	14.22
26/01/2020 01:10:03	26012020	260120	011003	269.920	12.418760	-57.514048	269.820	0.220	-0.040	-0.290	269.920	-1.400	-0.100																			1580001003.0	7.72	14.30
26/01/2020 01:10:04	26012020	260120	011004	269.850	12.418760	-57.514085	269.740	0.280	-0.050	0.150	269.850	-1.400	0.300																			1580001004.0	7.89	14.61
26/01/2020 01:10:05	26012020	260120	011005	269.760	12.418762	-57.514123	269.670	0.240	0.010	0.600	269.760	-1.400	0.700																			1580001005.0	7.99	14.80
26/01/2020 01:10:06	26012020	260120	011006	269.710	12.418765	-57.514160	269.660	0.160	0.040	0.890	269.710	-1.400	1.100																			1580001006.0	7.89	14.61
26/01/2020 01:10:07	26012020	260120	011007	269.710	12.418768	-57.514197	269.680	0.060	-0.110	0.950	269.710	-1.400	1.300																			1580001007.0	7.76	14.37
26/01/2020 01:10:08	26012020	260120	011008	269.720	12.418770	-57.514233	269.680	-0.050	-0.360	0.770	269.730	-1.600	1.200																			1580001008.0	7.78	14.41
26/01/2020 01:10:09	26012020	260120	011009	269.730	12.418770	-57.514272	269.680	-0.170	-0.470	0.380	269.730	-1.800	0.900																			1580001009.0	7.93	14.69
26/01/2020 01:10:10	26012020	260120	011010	269.730	12.418767	-57.514308	269.690	-0.260	-0.340	-0.090	269.730	-1.800	0.500																			1580001010.0	7.98	14.78
26/01/2020 01:10:11	26012020	260120	011011	269.760	12.418763	-57.514345	269.720	-0.200	-0.160	-0.520	269.760	-1.600	0.000																			1580001011.0	7.83	14.50
26/01/2020 01:10:12	26012020	260120	011012	269.810	12.418760	-57.514382	269.760	0.000	-0.150	-0.760	269.810	-1.500	-0.300																			1580001012.0	7.70	14.26
26/01/2020 01:10:13	26012020	260120	011013	269.870	12.418758	-57.514418	269.800	0.210	-0.220	-0.710	269.870	-1.600	-0.400																			1580001013.0	7.83	14.50
26/01/2020 01:10:14	26012020	260120	011014	269.900	12.418757	-57.514457	269.790	0.240	-0.150	-0.390	269.900	-1.600	-0.200																			1580001014.0	8.02	14.85
26/01/2020 01:10:15	26012020	260120	011015	269.880	12.418758	-57.514495	269.800	0.080	0.010	-0.020	269.880	-1.500	0.200																			1580001015.0	7.97	14.76
26/01/2020 01:10:16	26012020	260120	011016	269.880	12.418760	-57.514532	269.820	-0.120	0.070	0.260	269.880	-1.300	0.500																			1580001016.0	7.76	14.37
26/01/2020 01:10:17	26012020	260120	011017	269.900	12.418763	-57.514568	269.830	-0.210	0.000	0.430	269.900	-1.300	0.700																			1580001017.0	7.73	14.32
26/01/2020 01:10:18	26012020	260120	011018	269.900	12.418763	-57.514605	269.810	-0.190	-0.100	0.520	269.900	-1.400	0.800																			1580001018.0	7.86	14.56
26/01/2020 01:10:19	26012020	260120	011019	269.880	12.418765	-57.514642	269.780	-0.110	-0.180	0.500	269.880	-1.500	0.900																			1580001019.0	7.93	14.69
26/01/2020 01:10:20	26012020	260120	011020	269.840	12.418763	-57.514680	269.710	-0.040	-0.260	0.440	269.830	-1.600	0.800																			1580001020.0	7.88	14.59
26/01/2020 01:10:21	26012020	260120	011021	269.740	12.418762	-57.514717	269.630	0.030	-0.310	0.340	269.740	-1.700	0.700																			1580001021.0	7.86	14.56
26/01/2020 01:10:22	26012020	260120	011022	269.710	12.418762	-57.514753	269.670	0.100	-0.260	0.170	269.710	-1.700	0.600																			1580001022.0	7.85	14.54
26/01/2020 01:10:23	26012020	260120	011023	269.790	12.418760	-57.514792	269.780	0.140	-0.170	-0.030	269.790	-1.600	0.400																			1580001023.0	7.81	14.46
26/01/2020 01:10:24	26012020	260120	011024	269.910	12.418760	-57.514828	269.870	0.150	-0.150	-0.180	269.910	-1.500	0.200																			1580001024.0	7.75	14.35
26/01/2020 01:10:25	26012020	260120	011025	269.980	12.418758	-57.514865	269.920	0.150	-0.160	-0.300	269.980	-1.500	0.100																			1580001025.0	7.78	14.41
26/01/2020 01:10:26	26012020	260120	011026	270.030	12.418758	-57.514902	269.990	0.130	-0.150	-0.400	270.030	-1.500	0.000																			1580001026.0	7.88	14.59
26/01/2020 01:10:27	26012020	260120	011027	270.110	12.418758	-57.514938	270.070	0.060	-0.180	-0.450	270.110	-1.600	-0.100																			1580001027.0	7.88	14.59
26/01/2020 01:10:28	26012020	260120	011028	270.180	12.418758	-57.514977	270.120	-0.060	-0.190	-0.400	270.180	-1.600	-0.100																			1580001028.0	7.88	14.59
26/01/2020 01:10:29	26012020	260120	011029	270.190	12.418758	-57.515013	270.070	-0.200	-0.090	-0.240	270.190	-1.500	0.000																			1580001029.0	7.92	14.67
26/01/2020 01:10:30	26012020	260120	011030	270.130	12.418758	-57.515050	269.990	-0.290	0.060	-0.000	270.130	-1.400	0.200																			1580001030.0	7.84	14.52
26/01/2020 01:10:31	26012020	260120	011031	270.020	12.418758	-57.515087	269.860	-0.300	0.110	0.280	270.020	-1.300	0.500																			1580001031.0	7.73	14.32
26/01/2020 01:10:32	26012020	260120	011032	269.890	12.418758	-57.515123	269.750	-0.220	-0.030	0.460	269.890	-1.300	0.700																			1580001032.0	7.71	14.28
26/01/2020 01:10:33	26012020	260120	011033	269.800	12.418758	-57.515160	269.730	-0.060	-0.340	0.450	269.800	-1.600	0.800																			1580001033.0	7.81	14.46
26/01/2020 01:10:34	26012020	260120	011034	269.830	12.418758	-57.515198	269.820	0.120	-0.670	0.280	269.830	-1.900	0.700																			1580001034.0	7.98	14.78
26/01/2020 01:10:35	26012020	260120	011035	269.950	12.418758	-57.515237	269.970	0.250	-0.690	0.090	269.950	-2.100	0.500																			1580001035.0	8.15	15.09
26/01/2020 01:10:36	26012020	260120	011036	270.110	12.418758	-57.515275	270.130	0.220	-0.300	-0.040	270.110	-1.900	0.400																			1580001036.0	8.10	15.00
26/01/2020 01:10:37	26012020	260120	011037	270.280	12.418758	-57.515312	270.300	0.070	0.190	-0.170	270.280	-1.400	0.200																			1580001037.0	7.76	14.37
26/01/2020 01:10:38	26012020	260120	011038	270.420	12.418758	-57.515348	270.360	-0.060	0.480	-0.200	270.420	-1.000	0.100																			1580001038.0	7.51	13.91
26/01/2020 01:10:39	26012020	260120	011039	270.420	12.418758	-57.515383	270.240	-0.060	0.430	-0.030	270.420	-0.900	0.200																			1580001039.0	7.55	13.98
26/01/2020 01:10:40	26012020	260120	011040	270.220	12.418758	-57.515420	269.960	0.030	0.130	0.250	270.220	-1.100	0.500																			1580001040.0	7.80	14.45
26/01/2020 01:10:41	26012020	260120	011041	269.940	12.418758	-57.515458	269.720	0.100	-0.240	0.360	269.940	-1.500	0.700																			1580001041.0	8.00	14.82
26/01/2020 01:10:42	26012020	260120	011042	269.740	12.418758	-57.515497	269.640	0.100	-0.550	0.200	269.740	-1.800	0.700																			1580001042.0	8.05	14.91
26/01/2020 01:10:43	26012020	260120	011043	269.730	12.418758	-57.515533	269.760	0.070	-0.690	-0.180	269.730	-2.000	0.400																			1580001043.0	7.97	14.76
26/01/2020 01:10:44	26012020	260120	011044	269.920	12.418757	-57.515572	270.010	0.050	-0.620	-0.550	269.920	-2.100	-0.000																			1580001044.0	7.87	14.58
26/01/2020 01:10:45	26012020	260120	011045	270.200	12.418755	-57.515608	270.260	0.040	-0.420	-0.700	270.200	-1.900	-0.300																			1580001045.0	7.78	14.41
26/01/2020 01:10:46	26012020	260120	011046	270.410	12.418755	-57.515645	270.390	0.010	-0.180	-0.540	270.410	-1.700	-0.300																			1580001046.0	7.74	14.33
26/01/2020 01:10:47	26012020	260120	011047	270.480	12.418755	-57.515682	270.360	-0.100	0.070	-0.140	270.480	-1.400	-0.000																			1580001047.0	7.79	14.43
26/01/2020 01:10:48	26012020	260120	011048	270.380	12.418757	-57.515718	270.190	-0.240	0.230	0.300	270.380	-1.200	0.400																			1580001048.0	7.84	14.52
26/01/2020 01:10:49	26012020	260120	011049	270.170	12.418758	-57.515755	269.990	-0.330	0.250	0.540	270.170	-1.100	0.800																			1580001049.0	7.84	14.52
26/01/2020 01:10:50	26012020	260120	011050	269.990	12.418760	-57.515792	269.910	-0.280	0.080	0.500	269.990	-1.200	0.900																			1580001050.0	7.85	14.54
26/01/2020 01:10:51	26012020	260120	011051	269.990	12.418758	-57.515830	270.030	-0.080	-0.210	0.290	269.990	-1.500	0.800																			1580001051.0	7.92	14.67
26/01/2020 01:10:52	26012020	260120	011052	270.160	12.418757	-57.515868	270.200	0.170	-0.420	0.090	270.160	-1.700	0.500																			1580001052.0	8.05	14.91
26/01/2020 01:10:53	26012020	260120	011053	270.330	12.418755	-57.515907	270.270	0.330	-0.390	0.080	270.330	-1.800	0.400																			1580001053.0	8.06	14.93
26/01/2020 01:10:54	26012020	260120	011054	270.330	12.418755	-57.515943	270.170	0.320	-0.160	0.230	270.330	-1.700	0.500																			1580001054.0	7.91	14.65
26/01/2020 01:10:55	26012020	260120	011055	270.170	12.418757	-57.515980	269.980	0.180	0.100	0.390	270.170	-1.400	0.700																			1580001055.0	7.70	14.26
26/01/2020 01:10:56	26012020	260120	011056	269.980	12.418758	-57.516015	269.810	0.000	0.170	0.360	269.980	-1.200	0.800																			1580001056.0	7.56	14.00
26/01/2020 01:10:57	26012020	260120	011057	269.860	12.418760	-57.516052	269.770	-0.100	-0.050	0.120	269.860	-1.300	0.600																			1580001057.0	7.60	14.08
26/01/2020 01:10:58	26012020	260120	011058	269.870	12.418758	-57.516088	269.900	-0.090	-0.420	-0.250	269.890	-1.600	0.300																			1580001058.0	7.81	14.46
26/01/2020 01:10:59	26012020	260120	011059	270.080	12.418757	-57.516127	270.180	-0.050	-0.660	-0.600	270.080	-2.000	-0.100	1015.10	25.30	25.40	21.70	21.70	-1.00	80.00	80.00	390.00	24.60	77.00	5.80	26.00	6.20	14	3449.00	27.40	27.40	1580001059.0	8.08	14.96
26/01/2020 01:11:00	26012020	260120	011100	270.390	12.418755	-57.516165	270.460	-0.060	-0.580	-0.760	270.390	-2.100	-0.400																			1580001060.0	8.13	15.06
26/01/2020 01:11:01	26012020	260120	011101	270.620	12.418753	-57.516203	270.550	-0.130	-0.220	-0.610	270.620	-1.800	-0.400																			1580001061.0	7.96	14.74
26/01/2020 01:11:02	26012020	260120	011102	270.600	12.418752	-57.516238	270.420	-0.170	0.140	-0.280	270.600	-1.400	-0.100																			1580001062.0	7.69	14.24
26/01/2020 01:11:03	26012020	260120	011103	270.420	12.418753	-57.516275	270.220	-0.100	0.200	0.080	270.420	-1.200	0.300																			1580001063.0	7.57	14.02
26/01/2020 01:11:04	26012020	260120	011104	270.230	12.418755	-57.516312	270.080	0.030	-0.030	0.400	270.230	-1.300	0.600																			1580001064.0	7.74	14.33
26/01/2020 01:11:05	26012020	260120	011105	270.130	12.418757	-57.516350	270.070	0.130	-0.260	0.620	270.130	-1.600	0.900																			1580001065.0	8.06	14.93
26/01/2020 01:11:06	26012020	260120	011106	270.160	12.418758	-57.516388	270.180	0.170	-0.270	0.750	270.160	-1.700	1.000																			1580001066.0	8.19	15.17
26/01/2020 01:11:07	26012020	260120	011107	270.300	12.418760	-57.516427	270.310	0.170	-0.100	0.780	270.300	-1.600	1.100																			1580001067.0	8.01	14.83
26/01/2020 01:11:08	26012020	260120	011108	270.410	12.418760	-57.516463	270.360	0.130	0.080	0.690	270.410	-1.400	1.100																			1580001068.0	7.75	14.35
26/01/2020 01:11:09	26012020	260120	011109	270.420	12.418762	-57.516498	270.300	0.020	0.120	0.450	270.420	-1.300	0.900																			1580001069.0	7.64	14.15
26/01/2020 01:11:10	26012020	260120	011110	270.350	12.418760	-57.516535	270.180	-0.130	-0.010	0.100	270.350	-1.300	0.600																			1580001070.0	7.72	14.30
26/01/2020 01:11:11	26012020	260120	011111	270.230	12.418758	-57.516572	270.060	-0.250	-0.220	-0.280	270.230	-1.500	0.300																			1580001071.0	7.82	14.48
26/01/2020 01:11:12	26012020	260120	011112	270.130	12.418755	-57.516610	270.020	-0.260	-0.430	-0.590	270.130	-1.700	-0.100																			1580001072.0	7.91	14.65
26/01/2020 01:11:13	26012020	260120	011113	270.130	12.418753	-57.516647	270.110	-0.120	-0.560	-0.780	270.130	-1.900	-0.400																			1580001073.0	7.94	14.70
26/01/2020 01:11:14	26012020	260120	011114	270.250	12.418750	-57.516685	270.240	0.090	-0.550	-0.810	270.250	-2.000	-0.500																			1580001074.0	7.92	14.67
26/01/2020 01:11:15	26012020	260120	011115	270.380	12.418750	-57.516722	270.310	0.230	-0.380	-0.620	270.380	-1.900	-0.400																			1580001075.0	7.92	14.67
26/01/2020 01:11:16	26012020	260120	011116	270.410	12.418752	-57.516758	270.300	0.240	-0.120	-0.240	270.410	-1.600	-0.100																			1580001076.0	7.85	14.54
26/01/2020 01:11:17	26012020	260120	011117	270.380	12.418753	-57.516797	270.290	0.140	0.150	0.170	270.380	-1.400	0.300																			1580001077.0	7.82	14.48
26/01/2020 01:11:18	26012020	260120	011118	270.390	12.418757	-57.516833	270.360	-0.010	0.320	0.460	270.390	-1.100	0.700																			1580001078.0	7.80	14.45
26/01/2020 01:11:19	26012020	260120	011119	270.440	12.418760	-57.516870	270.380	-0.130	0.290	0.690	270.440	-1.100	0.900																			1580001079.0	7.77	14.39
26/01/2020 01:11:20	26012020	260120	011120	270.430	12.418760	-57.516907	270.330	-0.160	0.070	0.820	270.430	-1.200	1.100																			1580001080.0	7.81	14.46
26/01/2020 01:11:21	26012020	260120	011121	270.360	12.418760	-57.516943	270.290	-0.090	-0.220	0.750	270.360	-1.500	1.200																			1580001081.0	7.92	14.67
26/01/2020 01:11:22	26012020	260120	011122	270.350	12.418760	-57.516982	270.300	0.050	-0.490	0.510	270.350	-1.800	1.000																			1580001082.0	8.00	14.82
26/01/2020 01:11:23	26012020	260120	011123	270.380	12.418758	-57.517020	270.310	0.160	-0.650	0.180	270.380	-2.000	0.700																			1580001083.0	7.99	14.80
26/01/2020 01:11:24	26012020	260120	011124	270.380	12.418757	-57.517057	270.290	0.170	-0.590	-0.120	270.380	-2.000	0.400																			1580001084.0	7.97	14.76
26/01/2020 01:11:25	26012020	260120	011125	270.360	12.418757	-57.517095	270.280	0.090	-0.290	-0.370	270.360	-1.900	0.100																			1580001085.0	7.89	14.61
26/01/2020 01:11:26	26012020	260120	011126	270.380	12.418755	-57.517132	270.340	-0.030	0.060	-0.600	270.380	-1.500	-0.100																			1580001086.0	7.72	14.30
26/01/2020 01:11:27	26012020	260120	011127	270.480	12.418755	-57.517167	270.460	-0.150	0.240	-0.760	270.480	-1.200	-0.300																			1580001087.0	7.63	14.13
26/01/2020 01:11:28	26012020	260120	011128	270.590	12.418755	-57.517203	270.540	-0.260	0.200	-0.760	270.590	-1.200	-0.400																			1580001088.0	7.72	14.30
26/01/2020 01:11:29	26012020	260120	011129	270.630	12.418753	-57.517242	270.530	-0.290	0.030	-0.510	270.630	-1.300	-0.300																			1580001089.0	7.91	14.65
26/01/2020 01:11:30	26012020	260120	011130	270.600	12.418753	-57.517278	270.490	-0.210	-0.130	-0.070	270.600	-1.500	0.100																			1580001090.0	8.02	14.85
26/01/2020 01:11:31	26012020	260120	011131	270.570	12.418753	-57.517317	270.530	-0.000	-0.240	0.350	270.570	-1.600	0.500																			1580001091.0	8.00	14.82
26/01/2020 01:11:32	26012020	260120	011132	270.630	12.418755	-57.517355	270.600	0.230	-0.290	0.610	270.630	-1.700	0.900																			1580001092.0	7.90	14.63
26/01/2020 01:11:33	26012020	260120	011133	270.680	12.418758	-57.517392	270.590	0.380	-0.300	0.780	270.680	-1.700	1.000																			1580001093.0	7.82	14.48
26/01/2020 01:11:34	26012020	260120	011134	270.620	12.418760	-57.517428	270.460	0.390	-0.340	0.880	270.620	-1.700	1.200																			1580001094.0	7.76	14.37
26/01/2020 01:11:35	26012020	260120	011135	270.480	12.418762	-57.517465	270.320	0.260	-0.360	0.870	270.480	-1.800	1.200																			1580001095.0	7.81	14.46
26/01/2020 01:11:36	26012020	260120	011136	270.360	12.418763	-57.517502	270.250	0.030	-0.260	0.720	270.360	-1.700	1.200																			1580001096.0	7.90	14.63
26/01/2020 01:11:37	26012020	260120	011137	270.320	12.418763	-57.517540	270.280	-0.150	-0.080	0.430	270.320	-1.600	0.900																			1580001097.0	7.86	14.56
26/01/2020 01:11:38	26012020	260120	011138	270.400	12.418763	-57.517577	270.450	-0.190	0.000	-0.010	270.400	-1.400	0.600																			1580001098.0	7.77	14.39
26/01/2020 01:11:39	26012020	260120	011139	270.630	12.418762	-57.517613	270.700	-0.130	-0.040	-0.490	270.630	-1.400	0.100																			1580001099.0	7.81	14.46
26/01/2020 01:11:40	26012020	260120	011140	270.860	12.418760	-57.517650	270.860	-0.060	-0.120	-0.880	270.860	-1.500	-0.400																			1580001100.0	7.97	14.76
26/01/2020 01:11:41	26012020	260120	011141	270.970	12.418757	-57.517688	270.860	-0.070	-0.160	-1.070	270.970	-1.500	-0.700																			1580001101.0	8.05	14.91
26/01/2020 01:11:42	26012020	260120	011142	270.920	12.418755	-57.517727	270.740	-0.160	-0.130	-0.960	270.920	-1.500	-0.700																			1580001102.0	7.99	14.80
26/01/2020 01:11:43	26012020	260120	011143	270.770	12.418755	-57.517763	270.550	-0.220	-0.020	-0.550	270.770	-1.500	-0.400																			1580001103.0	7.86	14.56
26/01/2020 01:11:44	26012020	260120	011144	270.530	12.418757	-57.517800	270.310	-0.170	0.060	0.020	270.530	-1.400	0.100																			1580001104.0	7.74	14.33
26/01/2020 01:11:45	26012020	260120	011145	270.310	12.418758	-57.517837	270.170	-0.030	-0.010	0.540	270.310	-1.400	0.700																			1580001105.0	7.68	14.22
26/01/2020 01:11:46	26012020	260120	011146	270.210	12.418762	-57.517873	270.170	0.130	-0.210	0.830	270.210	-1.500	1.100																			1580001106.0	7.76	14.37
26/01/2020 01:11:47	26012020	260120	011147	270.250	12.418763	-57.517910	270.260	0.240	-0.460	0.930	270.250	-1.700	1.300																			1580001107.0	7.90	14.63
26/01/2020 01:11:48	26012020	260120	011148	270.340	12.418765	-57.517948	270.400	0.280	-0.650	0.900	270.370	-2.000	1.300																			1580001108.0	7.99	14.80
26/01/2020 01:11:49	26012020	260120	011149	270.520	12.418765	-57.517987	270.560	0.280	-0.630	0.780	270.520	-2.100	1.200																			1580001109.0	8.04	14.89
26/01/2020 01:11:50	26012020	260120	011150	270.680	12.418767	-57.518025	270.680	0.210	-0.310	0.550	270.680	-1.900	1.000																			1580001110.0	8.02	14.85
26/01/2020 01:11:51	26012020	260120	011151	270.770	12.418767	-57.518062	270.660	0.060	0.160	0.240	270.770	-1.500	0.800																			1580001111.0	7.83	14.50
26/01/2020 01:11:52	26012020	260120	011152	270.700	12.418767	-57.518097	270.470	-0.140	0.480	-0.070	270.700	-1.000	0.400																			1580001112.0	7.61	14.09
26/01/2020 01:11:53	26012020	260120	011153	270.470	12.418765	-57.518133	270.200	-0.290	0.500	-0.320	270.470	-0.900	0.200																			1580001113.0	7.59	14.06
26/01/2020 01:11:54	26012020	260120	011154	270.190	12.418763	-57.518170	269.930	-0.280	0.310	-0.480	270.190	-1.000	-0.100																			1580001114.0	7.77	14.39
26/01/2020 01:11:55	26012020	260120	011155	269.960	12.418762	-57.518207	269.770	-0.110	-0.050	-0.540	269.960	-1.200	-0.200																			1580001115.0	7.89	14.61
26/01/2020 01:11:56	26012020	260120	011156	269.840	12.418760	-57.518245	269.740	0.110	-0.510	-0.480	269.840	-1.700	-0.200																			1580001116.0	7.93	14.69
26/01/2020 01:11:57	26012020	260120	011157	269.850	12.418760	-57.518283	269.830	0.280	-0.860	-0.340	269.850	-2.100	-0.100																			1580001117.0	8.02	14.85
26/01/2020 01:11:58	26012020	260120	011158	269.980	12.418762	-57.518320	270.000	0.350	-0.900	-0.110	269.980	-2.300	0.100																			1580001118.0	8.06	14.93
26/01/2020 01:11:59	26012020	260120	011159	270.160	12.418763	-57.518358	270.190	0.290	-0.690	0.180	270.160	-2.200	0.400	1015.10	25.30	25.40	21.70	21.70	-1.00	80.00	80.00	390.00	24.60	73.00	5.60	24.00	5.90	14	3481.00	27.40	27.40	1580001119.0	7.93	14.69
26/01/2020 01:12:00	26012020	260120	011200	270.340	12.418767	-57.518395	270.390	0.120	-0.350	0.400	270.340	-1.900	0.700																			1580001120.0	7.80	14.45
26/01/2020 01:12:01	26012020	260120	011201	270.520	12.418768	-57.518432	270.510	-0.150	0.060	0.470	270.520	-1.500	0.800																			1580001121.0	7.78	14.41
26/01/2020 01:12:02	26012020	260120	011202	270.580	12.418770	-57.518468	270.430	-0.450	0.440	0.470	270.580	-1.100	0.800																			1580001122.0	7.77	14.39
26/01/2020 01:12:03	26012020	260120	011203	270.430	12.418770	-57.518505	270.180	-0.660	0.600	0.400	270.430	-0.800	0.800																			1580001123.0	7.71	14.28
26/01/2020 01:12:04	26012020	260120	011204	270.160	12.418768	-57.518542	269.890	-0.610	0.470	0.320	270.160	-0.800	0.700																			1580001124.0	7.76	14.37
26/01/2020 01:12:05	26012020	260120	011205	269.870	12.418765	-57.518578	269.630	-0.270	0.120	0.300	269.870	-1.100	0.700																			1580001125.0	7.92	14.67
26/01/2020 01:12:06	26012020	260120	011206	269.640	12.418763	-57.518617	269.470	0.190	-0.260	0.300	269.640	-1.500	0.700																			1580001126.0	8.05	14.91
26/01/2020 01:12:07	26012020	260120	011207	269.540	12.418763	-57.518655	269.470	0.550	-0.550	0.240	269.540	-1.800	0.600																			1580001127.0	8.07	14.95
26/01/2020 01:12:08	26012020	260120	011208	269.610	12.418763	-57.518693	269.610	0.680	-0.660	0.130	269.610	-2.000	0.500																			1580001128.0	7.97	14.76
26/01/2020 01:12:09	26012020	260120	011209	269.790	12.418765	-57.518730	269.840	0.640	-0.650	-0.020	269.790	-2.100	0.400																			1580001129.0	7.82	14.48
26/01/2020 01:12:10	26012020	260120	011210	270.040	12.418765	-57.518767	270.080	0.500	-0.480	-0.160	270.040	-2.000	0.300																			1580001130.0	7.77	14.39
26/01/2020 01:12:11	26012020	260120	011211	270.270	12.418767	-57.518803	270.230	0.220	-0.170	-0.200	270.270	-1.700	0.200																			1580001131.0	7.78	14.41
26/01/2020 01:12:12	26012020	260120	011212	270.330	12.418768	-57.518840	270.170	-0.170	0.190	-0.110	270.330	-1.400	0.200																			1580001132.0	7.75	14.35
26/01/2020 01:12:13	26012020	260120	011213	270.200	12.418770	-57.518877	269.980	-0.560	0.370	-0.050	270.200	-1.100	0.300																			1580001133.0	7.67	14.20
26/01/2020 01:12:14	26012020	260120	011214	269.980	12.418768	-57.518913	269.750	-0.770	0.260	-0.130	269.980	-1.100	0.300																			1580001134.0	7.67	14.20
26/01/2020 01:12:15	26012020	260120	011215	269.770	12.418767	-57.518950	269.570	-0.730	-0.050	-0.260	269.770	-1.300	0.200																			1580001135.0	7.84	14.52
26/01/2020 01:12:16	26012020	260120	011216	269.620	12.418763	-57.518987	269.490	-0.460	-0.350	-0.350	269.620	-1.600	0.000																			1580001136.0	8.04	14.89
26/01/2020 01:12:17	26012020	260120	011217	269.590	12.418760	-57.519025	269.550	-0.070	-0.480	-0.300	269.590	-1.800	0.000																			1580001137.0	8.10	15.00
26/01/2020 01:12:18	26012020	260120	011218	269.690	12.418758	-57.519063	269.730	0.310	-0.430	-0.140	269.690	-1.900	0.100																			1580001138.0	7.98	14.78
26/01/2020 01:12:19	26012020	260120	011219	269.900	12.418760	-57.519100	269.960	0.570	-0.260	0.150	269.900	-1.800	0.300																			1580001139.0	7.85	14.54
26/01/2020 01:12:20	26012020	260120	011220	270.100	12.418763	-57.519137	270.100	0.630	-0.080	0.530	270.100	-1.600	0.700																			1580001140.0	7.79	14.43
26/01/2020 01:12:21	26012020	260120	011221	270.180	12.418767	-57.519173	270.090	0.480	-0.040	0.890	270.180	-1.400	1.100																			1580001141.0	7.78	14.41
26/01/2020 01:12:22	26012020	260120	011222	270.110	12.418770	-57.519212	269.970	0.210	-0.120	1.090	270.110	-1.500	1.400																			1580001142.0	7.85	14.54
26/01/2020 01:12:23	26012020	260120	011223	269.960	12.418773	-57.519248	269.800	-0.060	-0.170	0.970	269.960	-1.600	1.400																			1580001143.0	7.97	14.76
26/01/2020 01:12:24	26012020	260120	011224	269.800	12.418773	-57.519287	269.670	-0.260	-0.110	0.500	269.800	-1.500	1.100																			1580001144.0	8.00	14.82
26/01/2020 01:12:25	26012020	260120	011225	269.730	12.418772	-57.519323	269.650	-0.350	-0.010	-0.230	269.730	-1.400	0.500																			1580001145.0	7.87	14.58
26/01/2020 01:12:26	26012020	260120	011226	269.770	12.418768	-57.519360	269.710	-0.380	-0.000	-1.000	269.770	-1.400	-0.300																			1580001146.0	7.77	14.39
26/01/2020 01:12:27	26012020	260120	011227	269.840	12.418763	-57.519397	269.740	-0.360	-0.140	-1.440	269.840	-1.500	-0.900																			1580001147.0	7.81	14.46
26/01/2020 01:12:28	26012020	260120	011228	269.840	12.418758	-57.519433	269.710	-0.290	-0.240	-1.360	269.840	-1.600	-1.100																			1580001148.0	7.95	14.72
26/01/2020 01:12:29	26012020	260120	011229	269.780	12.418755	-57.519472	269.620	-0.180	-0.150	-0.810	269.780	-1.600	-0.800																			1580001149.0	8.00	14.82
26/01/2020 01:12:30	26012020	260120	011230	269.660	12.418757	-57.519508	269.500	0.010	0.030	-0.020	269.660	-1.400	-0.100																			1580001150.0	7.85	14.54
26/01/2020 01:12:31	26012020	260120	011231	269.530	12.418760	-57.519545	269.450	0.280	0.020	0.660	269.530	-1.300	0.700																			1580001151.0	7.67	14.20
26/01/2020 01:12:32	26012020	260120	011232	269.530	12.418765	-57.519582	269.530	0.510	-0.270	1.030	269.530	-1.500	1.200																			1580001152.0	7.72	14.30
26/01/2020 01:12:33	26012020	260120	011233	269.640	12.418768	-57.519618	269.670	0.580	-0.600	1.110	269.640	-1.900	1.400																			1580001153.0	7.97	14.76
26/01/2020 01:12:34	26012020	260120	011234	269.780	12.418770	-57.519657	269.760	0.470	-0.700	1.000	269.780	-2.100	1.400																			1580001154.0	8.15	15.09
26/01/2020 01:12:35	26012020	260120	011235	269.840	12.418772	-57.519695	269.770	0.230	-0.470	0.800	269.840	-2.000	1.300																			1580001155.0	8.07	14.95
26/01/2020 01:12:36	26012020	260120	011236	269.830	12.418772	-57.519732	269.750	-0.090	-0.050	0.510	269.830	-1.700	1.000																			1580001156.0	7.85	14.54
26/01/2020 01:12:37	26012020	260120	011237	269.820	12.418772	-57.519768	269.720	-0.400	0.300	0.130	269.820	-1.200	0.700																			1580001157.0	7.64	14.15
26/01/2020 01:12:38	26012020	260120	011238	269.800	12.418768	-57.519805	269.640	-0.580	0.390	-0.280	269.790	-1.000	0.300																			1580001158.0	7.59	14.06
26/01/2020 01:12:39	26012020	260120	011239	269.690	12.418765	-57.519842	269.520	-0.570	0.180	-0.660	269.690	-1.100	-0.100																			1580001159.0	7.76	14.37
26/01/2020 01:12:40	26012020	260120	011240	269.590	12.418762	-57.519878	269.400	-0.410	-0.120	-0.930	269.560	-1.400	-0.500																			1580001160.0	8.04	14.89
26/01/2020 01:12:41	26012020	260120	011241	269.470	12.418758	-57.519917	269.330	-0.160	-0.270	-0.970	269.470	-1.600	-0.600																			1580001161.0	8.18	15.15
26/01/2020 01:12:42	26012020	260120	011242	269.410	12.418755	-57.519955	269.280	0.120	-0.260	-0.680	269.410	-1.700	-0.500																			1580001162.0	8.05	14.91
26/01/2020 01:12:43	26012020	260120	011243	269.350	12.418755	-57.519992	269.260	0.340	-0.230	-0.170	269.350	-1.600	-0.100																			1580001163.0	7.79	14.43
26/01/2020 01:12:44	26012020	260120	011244	269.350	12.418758	-57.520028	269.360	0.450	-0.300	0.350	269.350	-1.600	0.500																			1580001164.0	7.71	14.28
26/01/2020 01:12:45	26012020	260120	011245	269.490	12.418762	-57.520065	269.550	0.410	-0.410	0.730	269.490	-1.800	0.900																			1580001165.0	7.82	14.48
26/01/2020 01:12:46	26012020	260120	011246	269.690	12.418767	-57.520103	269.730	0.250	-0.410	0.950	269.690	-1.800	1.200																			1580001166.0	7.94	14.70
26/01/2020 01:12:47	26012020	260120	011247	269.820	12.418768	-57.520140	269.770	0.050	-0.240	1.020	269.820	-1.700	1.400																			1580001167.0	7.94	14.70
26/01/2020 01:12:48	26012020	260120	011248	269.800	12.418770	-57.520177	269.710	-0.100	-0.000	0.910	269.800	-1.500	1.400																			1580001168.0	7.81	14.46
26/01/2020 01:12:49	26012020	260120	011249	269.740	12.418768	-57.520213	269.680	-0.190	0.160	0.570	269.740	-1.300	1.100																			1580001169.0	7.73	14.32
26/01/2020 01:12:50	26012020	260120	011250	269.740	12.418767	-57.520250	269.680	-0.220	0.150	0.110	269.740	-1.200	0.700																			1580001170.0	7.75	14.35
26/01/2020 01:12:51	26012020	260120	011251	269.730	12.418765	-57.520287	269.640	-0.200	-0.030	-0.320	269.730	-1.300	0.300																			1580001171.0	7.86	14.56
26/01/2020 01:12:52	26012020	260120	011252	269.700	12.418762	-57.520325	269.570	-0.100	-0.280	-0.670	269.690	-1.600	-0.100																			1580001172.0	7.97	14.76
26/01/2020 01:12:53	26012020	260120	011253	269.630	12.418758	-57.520363	269.490	0.010	-0.390	-0.840	269.630	-1.800	-0.400																			1580001173.0	8.07	14.95
26/01/2020 01:12:54	26012020	260120	011254	269.560	12.418755	-57.520400	269.440	0.070	-0.270	-0.780	269.560	-1.700	-0.500																			1580001174.0	8.02	14.85
26/01/2020 01:12:55	26012020	260120	011255	269.550	12.418755	-57.520437	269.480	0.080	-0.130	-0.540	269.550	-1.600	-0.300																			1580001175.0	7.79	14.43
26/01/2020 01:12:56	26012020	260120	011256	269.610	12.418757	-57.520473	269.560	0.080	-0.120	-0.220	269.610	-1.500	-0.000																			1580001176.0	7.65	14.17
26/01/2020 01:12:57	26012020	260120	011257	269.690	12.418758	-57.520510	269.640	0.090	-0.240	0.120	269.690	-1.600	0.300																			1580001177.0	7.76	14.37
26/01/2020 01:12:58	26012020	260120	011258	269.760	12.418760	-57.520548	269.740	0.060	-0.320	0.380	269.760	-1.700	0.600																			1580001178.0	7.96	14.74
26/01/2020 01:12:59	26012020	260120	011259	269.860	12.418762	-57.520587	269.850	0.010	-0.210	0.550	269.860	-1.700	0.800	1015.10	25.30	25.40	21.70	21.70	-1.00	80.00	80.00	390.00	24.60	75.00	5.60	25.00	6.00	14	3540.00	27.40	27.40	1580001179.0	8.05	14.91
26/01/2020 01:13:00	26012020	260120	011300	269.950	12.418762	-57.520623	269.880	-0.030	0.050	0.710	269.950	-1.500	1.000																			1580001180.0	7.93	14.69
26/01/2020 01:13:01	26012020	260120	011301	269.950	12.418763	-57.520660	269.810	-0.020	0.170	0.860	269.940	-1.300	1.200																			1580001181.0	7.69	14.24
26/01/2020 01:13:02	26012020	260120	011302	269.840	12.418763	-57.520697	269.670	0.010	0.020	0.890	269.840	-1.300	1.300																			1580001182.0	7.64	14.15
26/01/2020 01:13:03	26012020	260120	011303	269.680	12.418765	-57.520733	269.530	0.020	-0.210	0.720	269.680	-1.500	1.200																			1580001183.0	7.87	14.58
26/01/2020 01:13:04	26012020	260120	011304	269.570	12.418765	-57.520772	269.510	-0.040	-0.360	0.280	269.570	-1.700	0.900																			1580001184.0	8.04	14.89
26/01/2020 01:13:05	26012020	260120	011305	269.610	12.418763	-57.520808	269.600	-0.140	-0.400	-0.330	269.610	-1.800	0.300																			1580001185.0	7.98	14.78
26/01/2020 01:13:06	26012020	260120	011306	269.750	12.418760	-57.520847	269.760	-0.190	-0.370	-0.900	269.750	-1.800	-0.300																			1580001186.0	7.87	14.58
26/01/2020 01:13:07	26012020	260120	011307	269.920	12.418757	-57.520883	269.910	-0.170	-0.260	-1.220	269.920	-1.700	-0.700																			1580001187.0	7.86	14.56
26/01/2020 01:13:08	26012020	260120	011308	270.060	12.418753	-57.520920	270.020	-0.070	-0.090	-1.210	270.060	-1.600	-0.900																			1580001188.0	7.87	14.58
26/01/2020 01:13:09	26012020	260120	011309	270.140	12.418750	-57.520957	270.070	0.100	0.050	-0.860	270.140	-1.400	-0.700																			1580001189.0	7.82	14.48
26/01/2020 01:13:10	26012020	260120	011310	270.170	12.418752	-57.520993	270.060	0.290	0.110	-0.190	270.170	-1.300	-0.200																			1580001190.0	7.82	14.48
26/01/2020 01:13:11	26012020	260120	011311	270.110	12.418755	-57.521032	269.950	0.380	0.020	0.620	270.110	-1.300	0.600																			1580001191.0	7.89	14.61
26/01/2020 01:13:12	26012020	260120	011312	269.950	12.418760	-57.521068	269.730	0.310	-0.170	1.310	269.950	-1.500	1.400																			1580001192.0	8.00	14.82
26/01/2020 01:13:13	26012020	260120	011313	269.710	12.418765	-57.521107	269.540	0.070	-0.320	1.590	269.710	-1.700	1.900																			1580001193.0	8.06	14.93
26/01/2020 01:13:14	26012020	260120	011314	269.560	12.418768	-57.521143	269.480	-0.250	-0.330	1.390	269.560	-1.700	1.900																			1580001194.0	8.00	14.82
26/01/2020 01:13:15	26012020	260120	011315	269.550	12.418770	-57.521182	269.580	-0.520	-0.230	0.760	269.560	-1.700	1.500																			1580001195.0	7.83	14.50
26/01/2020 01:13:16	26012020	260120	011316	269.720	12.418767	-57.521218	269.780	-0.600	-0.120	-0.080	269.720	-1.600	0.700																			1580001196.0	7.72	14.30
26/01/2020 01:13:17	26012020	260120	011317	269.970	12.418762	-57.521253	270.010	-0.450	-0.120	-0.810	269.970	-1.500	-0.100																			1580001197.0	7.77	14.39
26/01/2020 01:13:18	26012020	260120	011318	270.180	12.418755	-57.521292	270.160	-0.170	-0.260	-1.190	270.180	-1.600	-0.700																			1580001198.0	7.89	14.61
26/01/2020 01:13:19	26012020	260120	011319	270.310	12.418750	-57.521328	270.250	0.130	-0.380	-1.170	270.310	-1.700	-0.900																			1580001199.0	8.07	14.95
26/01/2020 01:13:20	26012020	260120	011320	270.360	12.418748	-57.521367	270.220	0.350	-0.280	-0.750	270.360	-1.800	-0.600																			1580001200.0	8.15	15.09
26/01/2020 01:13:21	26012020	260120	011321	270.280	12.418750	-57.521405	270.060	0.480	-0.030	-0.040	270.280	-1.500	-0.100																			1580001201.0	8.02	14.85
26/01/2020 01:13:22	26012020	260120	011322	270.060	12.418753	-57.521442	269.800	0.520	0.130	0.790	270.060	-1.300	0.800																			1580001202.0	7.80	14.45
26/01/2020 01:13:23	26012020	260120	011323	269.780	12.418760	-57.521478	269.570	0.410	0.110	1.410	269.780	-1.300	1.500																			1580001203.0	7.78	14.41
26/01/2020 01:13:24	26012020	260120	011324	269.590	12.418765	-57.521515	269.520	0.130	0.040	1.530	269.590	-1.300	1.900																			1580001204.0	7.91	14.65
26/01/2020 01:13:25	26012020	260120	011325	269.620	12.418770	-57.521552	269.650	-0.230	-0.020	1.110	269.620	-1.400	1.700																			1580001205.0	7.92	14.67
26/01/2020 01:13:26	26012020	260120	011326	269.790	12.418770	-57.521588	269.830	-0.460	-0.120	0.320	269.790	-1.500	1.100																			1580001206.0	7.76	14.37
26/01/2020 01:13:27	26012020	260120	011327	269.990	12.418767	-57.521625	270.010	-0.500	-0.380	-0.580	269.990	-1.600	0.200																			1580001207.0	7.74	14.33
26/01/2020 01:13:28	26012020	260120	011328	270.170	12.418760	-57.521663	270.130	-0.370	-0.670	-1.250	270.170	-1.900	-0.600																			1580001208.0	7.97	14.76
26/01/2020 01:13:29	26012020	260120	011329	270.270	12.418752	-57.521700	270.180	-0.160	-0.720	-1.400	270.270	-2.100	-1.000																			1580001209.0	8.20	15.19
26/01/2020 01:13:30	26012020	260120	011330	270.290	12.418748	-57.521738	270.190	0.040	-0.440	-1.060	270.290	-2.000	-0.900																			1580001210.0	8.14	15.08
26/01/2020 01:13:31	26012020	260120	011331	270.280	12.418748	-57.521777	270.160	0.180	-0.050	-0.430	270.280	-1.600	-0.400																			1580001211.0	7.85	14.54
26/01/2020 01:13:32	26012020	260120	011332	270.190	12.418752	-57.521813	270.050	0.220	0.230	0.260	270.190	-1.300	0.300																			1580001212.0	7.71	14.28
26/01/2020 01:13:33	26012020	260120	011333	270.060	12.418757	-57.521848	269.960	0.170	0.300	0.760	270.060	-1.100	0.900																			1580001213.0	7.76	14.37
26/01/2020 01:13:34	26012020	260120	011334	269.990	12.418762	-57.521885	269.940	0.090	0.170	1.050	269.990	-1.100	1.300																			1580001214.0	7.87	14.58
26/01/2020 01:13:35	26012020	260120	011335	270.000	12.418763	-57.521923	269.970	0.030	-0.030	1.170	270.000	-1.300	1.500																			1580001215.0	7.94	14.70
26/01/2020 01:13:36	26012020	260120	011336	270.010	12.418765	-57.521962	269.970	-0.010	-0.210	1.130	270.010	-1.500	1.500																			1580001216.0	7.99	14.80
26/01/2020 01:13:37	26012020	260120	011337	270.010	12.418765	-57.521998	269.970	-0.040	-0.310	0.870	270.010	-1.700	1.400																			1580001217.0	7.93	14.69
26/01/2020 01:13:38	26012020	260120	011338	270.020	12.418763	-57.522037	270.000	-0.080	-0.290	0.350	270.020	-1.700	1.000																			1580001218.0	7.88	14.59
26/01/2020 01:13:39	26012020	260120	011339	270.080	12.418762	-57.522073	270.070	-0.100	-0.170	-0.290	270.080	-1.600	0.400																			1580001219.0	7.82	14.48
26/01/2020 01:13:40	26012020	260120	011340	270.160	12.418758	-57.522108	270.120	-0.090	-0.080	-0.860	270.160	-1.500	-0.200																			1580001220.0	7.72	14.30
26/01/2020 01:13:41	26012020	260120	011341	270.220	12.418753	-57.522145	270.160	0.010	-0.180	-1.190	270.220	-1.500	-0.700																			1580001221.0	7.70	14.26
26/01/2020 01:13:42	26012020	260120	011342	270.260	12.418752	-57.522182	270.160	0.180	-0.420	-1.100	270.260	-1.700	-0.800																			1580001222.0	7.82	14.48
26/01/2020 01:13:43	26012020	260120	011343	270.200	12.418750	-57.522220	270.030	0.310	-0.550	-0.570	270.200	-1.900	-0.500																			1580001223.0	8.03	14.87
26/01/2020 01:13:44	26012020	260120	011344	270.050	12.418753	-57.522258	269.910	0.290	-0.390	0.110	270.050	-1.900	0.100																			1580001224.0	8.11	15.02
26/01/2020 01:13:45	26012020	260120	011345	269.960	12.418757	-57.522297	269.930	0.090	-0.060	0.640	269.960	-1.600	0.800																			1580001225.0	7.94	14.70
26/01/2020 01:13:46	26012020	260120	011346	270.000	12.418760	-57.522332	270.010	-0.170	0.200	0.920	270.000	-1.300	1.200																			1580001226.0	7.70	14.26
26/01/2020 01:13:47	26012020	260120	011347	270.080	12.418763	-57.522368	270.060	-0.320	0.220	0.990	270.080	-1.200	1.300																			1580001227.0	7.62	14.11
26/01/2020 01:13:48	26012020	260120	011348	270.110	12.418765	-57.522405	270.080	-0.300	0.080	0.840	270.110	-1.200	1.300																			1580001228.0	7.80	14.45
26/01/2020 01:13:49	26012020	260120	011349	270.130	12.418765	-57.522443	270.090	-0.190	-0.120	0.490	270.130	-1.400	1.000																			1580001229.0	7.99	14.80
26/01/2020 01:13:50	26012020	260120	011350	270.140	12.418763	-57.522482	270.050	-0.100	-0.320	0.030	270.140	-1.600	0.600																			1580001230.0	8.05	14.91
26/01/2020 01:13:51	26012020	260120	011351	270.090	12.418760	-57.522518	269.970	-0.080	-0.440	-0.420	270.090	-1.800	0.200																			1580001231.0	8.05	14.91
26/01/2020 01:13:52	26012020	260120	011352	270.030	12.418757	-57.522557	269.930	-0.090	-0.380	-0.780	270.030	-1.800	-0.300																			1580001232.0	8.02	14.85
26/01/2020 01:13:53	26012020	260120	011353	270.020	12.418753	-57.522593	269.960	-0.050	-0.140	-0.890	270.020	-1.700	-0.500																			1580001233.0	7.87	14.58
26/01/2020 01:13:54	26012020	260120	011354	270.080	12.418752	-57.522630	270.040	0.090	0.090	-0.720	270.080	-1.400	-0.500																			1580001234.0	7.67	14.20
26/01/2020 01:13:55	26012020	260120	011355	270.140	12.418752	-57.522667	270.040	0.290	0.120	-0.230	270.140	-1.300	-0.100																			1580001235.0	7.58	14.04
26/01/2020 01:13:56	26012020	260120	011356	270.080	12.418753	-57.522702	269.940	0.440	-0.060	0.420	270.080	-1.300	0.500																			1580001236.0	7.71	14.28
26/01/2020 01:13:57	26012020	260120	011357	269.950	12.418758	-57.522740	269.820	0.410	-0.300	0.910	269.950	-1.600	1.100																			1580001237.0	7.98	14.78
26/01/2020 01:13:58	26012020	260120	011358	269.850	12.418763	-57.522778	269.800	0.180	-0.410	0.990	269.850	-1.800	1.400																			1580001238.0	8.11	15.02
26/01/2020 01:13:59	26012020	260120	011359	269.870	12.418765	-57.522815	269.910	-0.150	-0.320	0.620	269.870	-1.800	1.200	1015.10	25.40	25.40	21.70	21.70	-1.00	80.00	79.00	390.00	24.60	74.00	5.40	27.00	5.80	14	3544.00	27.40	27.40	1580001239.0	8.02	14.85
26/01/2020 01:14:00	26012020	260120	011400	270.020	12.418765	-57.522853	270.080	-0.420	-0.130	-0.010	270.020	-1.600	0.700																			1580001240.0	7.82	14.48
26/01/2020 01:14:01	26012020	260120	011401	270.190	12.418762	-57.522888	270.180	-0.490	-0.070	-0.540	270.190	-1.500	0.100																			1580001241.0	7.67	14.20
26/01/2020 01:14:02	26012020	260120	011402	270.250	12.418758	-57.522925	270.170	-0.320	-0.180	-0.750	270.250	-1.500	-0.300																			1580001242.0	7.76	14.37
26/01/2020 01:14:03	26012020	260120	011403	270.240	12.418755	-57.522963	270.140	-0.070	-0.270	-0.620	270.240	-1.600	-0.400																			1580001243.0	7.98	14.78
26/01/2020 01:14:04	26012020	260120	011404	270.210	12.418753	-57.523002	270.090	0.110	-0.170	-0.200	270.210	-1.600	-0.100																			1580001244.0	8.08	14.96
26/01/2020 01:14:05	26012020	260120	011405	270.130	12.418753	-57.523038	270.020	0.150	-0.050	0.310	270.130	-1.500	0.400																			1580001245.0	7.92	14.67
26/01/2020 01:14:06	26012020	260120	011406	270.050	12.418757	-57.523075	270.010	0.140	-0.070	0.590	270.050	-1.400	0.900																			1580001246.0	7.77	14.39
26/01/2020 01:14:07	26012020	260120	011407	270.090	12.418760	-57.523112	270.120	0.140	-0.130	0.600	270.090	-1.500	1.000																			1580001247.0	7.82	14.48
26/01/2020 01:14:08	26012020	260120	011408	270.200	12.418762	-57.523150	270.190	0.100	-0.110	0.480	270.200	-1.500	0.900																			1580001248.0	7.92	14.67
26/01/2020 01:14:09	26012020	260120	011409	270.230	12.418762	-57.523187	270.160	0.020	-0.060	0.340	270.230	-1.500	0.800																			1580001249.0	7.88	14.59
26/01/2020 01:14:10	26012020	260120	011410	270.190	12.418762	-57.523223	270.120	-0.040	-0.100	0.160	270.190	-1.500	0.600																			1580001250.0	7.79	14.43
26/01/2020 01:14:11	26012020	260120	011411	270.150	12.418760	-57.523260	270.070	0.000	-0.190	-0.020	270.150	-1.500	0.400																			1580001251.0	7.81	14.46
26/01/2020 01:14:12	26012020	260120	011412	270.090	12.418760	-57.523298	269.990	0.100	-0.220	-0.110	270.090	-1.600	0.300																			1580001252.0	7.90	14.63
26/01/2020 01:14:13	26012020	260120	011413	270.000	12.418758	-57.523335	269.910	0.100	-0.120	-0.090	270.000	-1.600	0.300																			1580001253.0	7.92	14.67
26/01/2020 01:14:14	26012020	260120	011414	269.940	12.418758	-57.523372	269.910	-0.020	-0.020	-0.050	269.940	-1.400	0.300																			1580001254.0	7.78	14.41
26/01/2020 01:14:15	26012020	260120	011415	269.980	12.418760	-57.523408	269.990	-0.130	-0.060	-0.030	269.980	-1.400	0.300																			1580001255.0	7.66	14.19
26/01/2020 01:14:16	26012020	260120	011416	270.060	12.418760	-57.523445	270.090	-0.090	-0.240	-0.100	270.080	-1.500	0.300																			1580001256.0	7.71	14.28
26/01/2020 01:14:17	26012020	260120	011417	270.170	12.418760	-57.523482	270.170	0.090	-0.480	-0.200	270.170	-1.800	0.200																			1580001257.0	7.85	14.54
26/01/2020 01:14:18	26012020	260120	011418	270.230	12.418758	-57.523520	270.210	0.240	-0.640	-0.250	270.240	-2.000	0.100																			1580001258.0	7.99	14.80
26/01/2020 01:14:19	26012020	260120	011419	270.270	12.418758	-57.523558	270.220	0.220	-0.560	-0.170	270.270	-2.000	0.100																			1580001259.0	8.07	14.95
26/01/2020 01:14:20	26012020	260120	011420	270.280	12.418758	-57.523595	270.220	0.060	-0.220	0.030	270.280	-1.800	0.300																			1580001260.0	8.00	14.82
26/01/2020 01:14:21	26012020	260120	011421	270.270	12.418760	-57.523633	270.220	-0.140	0.270	0.280	270.270	-1.400	0.500																			1580001261.0	7.84	14.52
26/01/2020 01:14:22	26012020	260120	011422	270.230	12.418763	-57.523668	270.130	-0.270	0.580	0.510	270.230	-0.900	0.800																			1580001262.0	7.64	14.15
26/01/2020 01:14:23	26012020	260120	011423	270.110	12.418765	-57.523705	269.980	-0.260	0.450	0.600	270.110	-0.800	0.900																			1580001263.0	7.58	14.04
26/01/2020 01:14:24	26012020	260120	011424	269.970	12.418765	-57.523742	269.890	-0.150	0.010	0.490	269.970	-1.200	0.900																			1580001264.0	7.82	14.48
26/01/2020 01:14:25	26012020	260120	011425	269.910	12.418765	-57.523780	269.860	-0.050	-0.420	0.250	269.910	-1.600	0.800																			1580001265.0	8.13	15.06
26/01/2020 01:14:26	26012020	260120	011426	269.890	12.418763	-57.523818	269.870	0.000	-0.630	-0.080	269.890	-1.900	0.500																			1580001266.0	8.18	15.15
26/01/2020 01:14:27	26012020	260120	011427	269.950	12.418762	-57.523857	269.980	0.030	-0.590	-0.460	269.950	-2.000	0.100																			1580001267.0	7.99	14.80
26/01/2020 01:14:28	26012020	260120	011428	270.080	12.418758	-57.523893	270.120	0.070	-0.320	-0.690	270.080	-1.900	-0.200																			1580001268.0	7.80	14.45
26/01/2020 01:14:29	26012020	260120	011429	270.190	12.418757	-57.523930	270.190	0.160	-0.060	-0.610	270.210	-1.600	-0.300																			1580001269.0	7.62	14.11
26/01/2020 01:14:30	26012020	260120	011430	270.250	12.418757	-57.523965	270.180	0.260	0.010	-0.280	270.250	-1.400	-0.100																			1580001270.0	7.57	14.02
26/01/2020 01:14:31	26012020	260120	011431	270.200	12.418760	-57.524002	270.100	0.270	-0.070	0.080	270.200	-1.400	0.300																			1580001271.0	7.78	14.41
26/01/2020 01:14:32	26012020	260120	011432	270.100	12.418762	-57.524040	269.970	0.120	-0.160	0.340	270.100	-1.500	0.600																			1580001272.0	8.02	14.85
26/01/2020 01:14:33	26012020	260120	011433	269.950	12.418765	-57.524078	269.850	-0.110	-0.140	0.470	269.950	-1.600	0.800																			1580001273.0	8.07	14.95
26/01/2020 01:14:34	26012020	260120	011434	269.860	12.418765	-57.524115	269.830	-0.250	-0.100	0.450	269.860	-1.500	0.800																			1580001274.0	7.92	14.67
26/01/2020 01:14:35	26012020	260120	011435	269.890	12.418765	-57.524152	269.910	-0.190	-0.110	0.350	269.890	-1.500	0.800																			1580001275.0	7.80	14.45
26/01/2020 01:14:36	26012020	260120	011436	269.990	12.418765	-57.524188	269.990	-0.020	-0.120	0.210	269.990	-1.500	0.600																			1580001276.0	7.81	14.46
26/01/2020 01:14:37	26012020	260120	011437	270.060	12.418765	-57.524227	270.010	0.090	-0.100	0.060	270.060	-1.500	0.500																			1580001277.0	7.85	14.54
26/01/2020 01:14:38	26012020	260120	011438	270.050	12.418763	-57.524263	269.970	0.050	-0.120	-0.080	270.050	-1.500	0.400																			1580001278.0	7.84	14.52
26/01/2020 01:14:39	26012020	260120	011439	270.000	12.418763	-57.524300	269.890	-0.090	-0.290	-0.230	270.000	-1.600	0.200																			1580001279.0	7.78	14.41
26/01/2020 01:14:40	26012020	260120	011440	269.900	12.418762	-57.524337	269.760	-0.160	-0.480	-0.240	269.900	-1.800	0.100																			1580001280.0	7.89	14.61
26/01/2020 01:14:41	26012020	260120	011441	269.780	12.418762	-57.524375	269.630	-0.100	-0.400	-0.180	269.750	-1.900	0.200																			1580001281.0	8.07	14.95
26/01/2020 01:14:42	26012020	260120	011442	269.670	12.418760	-57.524413	269.630	0.020	-0.050	-0.130	269.660	-1.600	0.200																			1580001282.0	8.02	14.85
26/01/2020 01:14:43	26012020	260120	011443	269.710	12.418762	-57.524450	269.760	0.090	0.270	-0.020	269.730	-1.200	0.300																			1580001283.0	7.72	14.30
26/01/2020 01:14:44	26012020	260120	011444	269.850	12.418762	-57.524485	269.820	0.090	0.220	0.270	269.850	-1.100	0.500																			1580001284.0	7.54	13.96
26/01/2020 01:14:45	26012020	260120	011445	269.860	12.418763	-57.524522	269.760	0.100	-0.090	0.630	269.860	-1.300	0.800																			1580001285.0	7.73	14.32
26/01/2020 01:14:46	26012020	260120	011446	269.770	12.418765	-57.524560	269.660	0.110	-0.290	0.830	269.770	-1.600	1.100																			1580001286.0	8.07	14.95
26/01/2020 01:14:47	26012020	260120	011447	269.670	12.418767	-57.524598	269.590	0.100	-0.320	0.710	269.670	-1.700	1.200																			1580001287.0	8.10	15.00
26/01/2020 01:14:48	26012020	260120	011448	269.630	12.418767	-57.524637	269.570	0.070	-0.330	0.350	269.630	-1.700	0.900																			1580001288.0	7.86	14.56
26/01/2020 01:14:49	26012020	260120	011449	269.630	12.418767	-57.524673	269.610	0.020	-0.340	-0.130	269.630	-1.700	0.500																			1580001289.0	7.77	14.39
26/01/2020 01:14:50	26012020	260120	011450	269.710	12.418763	-57.524710	269.700	-0.040	-0.260	-0.500	269.710	-1.700	0.000																			1580001290.0	7.85	14.54
26/01/2020 01:14:51	26012020	260120	011451	269.800	12.418760	-57.524747	269.750	-0.080	-0.080	-0.580	269.800	-1.600	-0.200																			1580001291.0	7.87	14.58
26/01/2020 01:14:52	26012020	260120	011452	269.810	12.418760	-57.524783	269.690	-0.050	0.010	-0.350	269.810	-1.400	-0.100																			1580001292.0	7.75	14.35
26/01/2020 01:14:53	26012020	260120	011453	269.740	12.418760	-57.524820	269.610	0.000	-0.090	-0.030	269.720	-1.400	0.200																			1580001293.0	7.73	14.32
26/01/2020 01:14:54	26012020	260120	011454	269.670	12.418762	-57.524857	269.590	0.010	-0.250	0.240	269.660	-1.600	0.500																			1580001294.0	7.93	14.69
26/01/2020 01:14:55	26012020	260120	011455	269.640	12.418763	-57.524895	269.560	-0.030	-0.240	0.380	269.640	-1.700	0.700																			1580001295.0	8.10	15.00
26/01/2020 01:14:56	26012020	260120	011456	269.600	12.418765	-57.524933	269.550	-0.060	-0.080	0.330	269.600	-1.600	0.800																			1580001296.0	8.03	14.87
26/01/2020 01:14:57	26012020	260120	011457	269.610	12.418765	-57.524970	269.640	-0.060	0.050	0.120	269.610	-1.400	0.600																			1580001297.0	7.78	14.41
26/01/2020 01:14:58	26012020	260120	011458	269.740	12.418763	-57.525007	269.780	-0.050	-0.020	-0.110	269.740	-1.400	0.400																			1580001298.0	7.68	14.22
26/01/2020 01:14:59	26012020	260120	011459	269.850	12.418762	-57.525043	269.810	-0.050	-0.210	-0.150	269.850	-1.500	0.200	1015.20	25.40	25.40	21.60	21.60	-1.00	79.00	79.00	390.00	24.60	72.00	5.50	24.00	5.70	14	3443.00	27.40	27.40	1580001299.0	7.80	14.45
26/01/2020 01:15:00	26012020	260120	011500	269.840	12.418760	-57.525082	269.740	-0.020	-0.340	-0.020	269.840	-1.700	0.300																			1580001300.0	7.99	14.80
26/01/2020 01:15:01	26012020	260120	011501	269.760	12.418760	-57.525120	269.670	0.050	-0.290	0.170	269.760	-1.700	0.400																			1580001301.0	8.02	14.85
26/01/2020 01:15:02	26012020	260120	011502	269.710	12.418762	-57.525157	269.650	0.160	-0.190	0.380	269.710	-1.600	0.600																			1580001302.0	7.89	14.61
26/01/2020 01:15:03	26012020	260120	011503	269.690	12.418762	-57.525193	269.660	0.220	-0.140	0.540	269.690	-1.600	0.800																			1580001303.0	7.77	14.39
26/01/2020 01:15:04	26012020	260120	011504	269.690	12.418763	-57.525230	269.640	0.140	-0.100	0.580	269.690	-1.500	0.900																			1580001304.0	7.82	14.48
26/01/2020 01:15:05	26012020	260120	011505	269.670	12.418765	-57.525268	269.610	-0.060	-0.030	0.420	269.670	-1.500	0.900																			1580001305.0	7.87	14.58
26/01/2020 01:15:06	26012020	260120	011506	269.660	12.418765	-57.525305	269.610	-0.240	-0.000	0.120	269.660	-1.400	0.600																			1580001306.0	7.83	14.50
26/01/2020 01:15:07	26012020	260120	011507	269.670	12.418763	-57.525342	269.630	-0.260	-0.070	-0.210	269.670	-1.400	0.300																			1580001307.0	7.80	14.45
26/01/2020 01:15:08	26012020	260120	011508	269.680	12.418762	-57.525378	269.640	-0.130	-0.190	-0.500	269.680	-1.500	0.000																			1580001308.0	7.88	14.59
26/01/2020 01:15:09	26012020	260120	011509	269.720	12.418758	-57.525417	269.700	0.050	-0.320	-0.660	269.720	-1.600	-0.200																			1580001309.0	7.97	14.76
26/01/2020 01:15:10	26012020	260120	011510	269.790	12.418757	-57.525453	269.810	0.180	-0.450	-0.640	269.810	-1.800	-0.300																			1580001310.0	7.98	14.78
26/01/2020 01:15:11	26012020	260120	011511	269.900	12.418757	-57.525492	269.830	0.220	-0.450	-0.310	269.900	-1.900	-0.200																			1580001311.0	7.98	14.78
26/01/2020 01:15:12	26012020	260120	011512	269.900	12.418758	-57.525530	269.800	0.170	-0.250	0.250	269.900	-1.800	0.300																			1580001312.0	7.98	14.78
26/01/2020 01:15:13	26012020	260120	011513	269.850	12.418760	-57.525567	269.770	0.000	0.060	0.730	269.850	-1.500	0.900																			1580001313.0	7.85	14.54
26/01/2020 01:15:14	26012020	260120	011514	269.800	12.418763	-57.525603	269.740	-0.210	0.280	0.900	269.800	-1.200	1.200																			1580001314.0	7.71	14.28
26/01/2020 01:15:15	26012020	260120	011515	269.770	12.418765	-57.525640	269.710	-0.350	0.310	0.780	269.770	-1.100	1.200																			1580001315.0	7.67	14.20
26/01/2020 01:15:16	26012020	260120	011516	269.740	12.418765	-57.525677	269.680	-0.310	0.150	0.410	269.740	-1.200	1.000																			1580001316.0	7.78	14.41
26/01/2020 01:15:17	26012020	260120	011517	269.720	12.418763	-57.525713	269.670	-0.070	-0.160	-0.050	269.720	-1.400	0.500																			1580001317.0	7.93	14.69
26/01/2020 01:15:18	26012020	260120	011518	269.730	12.418762	-57.525752	269.720	0.230	-0.570	-0.480	269.740	-1.800	0.100																			1580001318.0	8.02	14.85
26/01/2020 01:15:19	26012020	260120	011519	269.800	12.418758	-57.525790	269.810	0.440	-0.870	-0.670	269.830	-2.200	-0.300																			1580001319.0	8.13	15.06
26/01/2020 01:15:20	26012020	260120	011520	269.900	12.418757	-57.525828	269.870	0.420	-0.760	-0.490	269.910	-2.300	-0.300																			1580001320.0	8.19	15.17
26/01/2020 01:15:21	26012020	260120	011521	269.940	12.418757	-57.525867	269.900	0.180	-0.270	-0.110	269.940	-1.900	0.100																			1580001321.0	7.99	14.80
26/01/2020 01:15:22	26012020	260120	011522	269.960	12.418758	-57.525902	269.910	-0.120	0.290	0.270	269.960	-1.400	0.500																			1580001322.0	7.66	14.19
26/01/2020 01:15:23	26012020	260120	011523	269.940	12.418762	-57.525938	269.840	-0.370	0.580	0.480	269.940	-0.900	0.800																			1580001323.0	7.47	13.83
26/01/2020 01:15:24	26012020	260120	011524	269.840	12.418763	-57.525973	269.730	-0.500	0.470	0.410	269.840	-0.800	0.800																			1580001324.0	7.55	13.98
26/01/2020 01:15:25	26012020	260120	011525	269.730	12.418763	-57.526010	269.640	-0.450	0.100	0.090	269.730	-1.100	0.600																			1580001325.0	7.84	14.52
26/01/2020 01:15:26	26012020	260120	011526	269.680	12.418762	-57.526048	269.630	-0.220	-0.280	-0.240	269.680	-1.500	0.300																			1580001326.0	8.12	15.04
26/01/2020 01:15:27	26012020	260120	011527	269.680	12.418758	-57.526087	269.710	0.100	-0.560	-0.430	269.700	-1.800	0.000																			1580001327.0	8.16	15.11
26/01/2020 01:15:28	26012020	260120	011528	269.790	12.418755	-57.526125	269.880	0.390	-0.710	-0.430	269.810	-2.000	-0.100																			1580001328.0	8.04	14.89
26/01/2020 01:15:29	26012020	260120	011529	269.950	12.418755	-57.526163	270.050	0.520	-0.670	-0.170	269.990	-2.100	0.000																			1580001329.0	7.94	14.70
26/01/2020 01:15:30	26012020	260120	011530	270.120	12.418757	-57.526200	270.150	0.430	-0.400	0.260	270.140	-1.900	0.400																			1580001330.0	7.89	14.61
26/01/2020 01:15:31	26012020	260120	011531	270.190	12.418760	-57.526237	270.110	0.210	-0.040	0.700	270.180	-1.600	0.900																			1580001331.0	7.79	14.43
26/01/2020 01:15:32	26012020	260120	011532	270.120	12.418763	-57.526273	270.000	-0.040	0.200	0.920	270.100	-1.300	1.200																			1580001332.0	7.69	14.24
26/01/2020 01:15:33	26012020	260120	011533	270.000	12.418765	-57.526310	269.890	-0.210	0.230	0.800	269.980	-1.200	1.300																			1580001333.0	7.73	14.32
26/01/2020 01:15:34	26012020	260120	011534	269.900	12.418767	-57.526347	269.790	-0.310	0.090	0.370	269.890	-1.200	1.000																			1580001334.0	7.88	14.59
26/01/2020 01:15:35	26012020	260120	011535	269.810	12.418765	-57.526385	269.710	-0.380	-0.090	-0.170	269.800	-1.400	0.500																			1580001335.0	8.03	14.87
26/01/2020 01:15:36	26012020	260120	011536	269.770	12.418762	-57.526423	269.760	-0.370	-0.170	-0.630	269.770	-1.500	-0.100																			1580001336.0	8.09	14.98
26/01/2020 01:15:37	26012020	260120	011537	269.870	12.418757	-57.526460	269.920	-0.260	-0.100	-0.880	269.870	-1.500	-0.400																			1580001337.0	8.01	14.83
26/01/2020 01:15:38	26012020	260120	011538	270.060	12.418753	-57.526497	270.090	-0.050	-0.030	-0.830	270.060	-1.400	-0.500																			1580001338.0	7.81	14.46
26/01/2020 01:15:39	26012020	260120	011539	270.180	12.418753	-57.526533	270.160	0.190	-0.110	-0.530	270.180	-1.400	-0.300																			1580001339.0	7.65	14.17
26/01/2020 01:15:40	26012020	260120	011540	270.210	12.418753	-57.526570	270.140	0.380	-0.380	-0.130	270.210	-1.600	0.000																			1580001340.0	7.74	14.33
26/01/2020 01:15:41	26012020	260120	011541	270.160	12.418757	-57.526608	270.090	0.460	-0.580	0.270	270.160	-1.900	0.400																			1580001341.0	7.98	14.78
26/01/2020 01:15:42	26012020	260120	011542	270.110	12.418760	-57.526647	270.040	0.380	-0.530	0.630	270.100	-2.000	0.800																			1580001342.0	8.12	15.04
26/01/2020 01:15:43	26012020	260120	011543	270.060	12.418762	-57.526683	270.060	0.190	-0.280	0.810	270.060	-1.800	1.100																			1580001343.0	7.99	14.80
26/01/2020 01:15:44	26012020	260120	011544	270.110	12.418765	-57.526720	270.160	-0.040	-0.010	0.730	270.120	-1.500	1.200																			1580001344.0	7.76	14.37
26/01/2020 01:15:45	26012020	260120	011545	270.220	12.418765	-57.526757	270.250	-0.220	0.160	0.440	270.230	-1.300	1.000																			1580001345.0	7.66	14.19
26/01/2020 01:15:46	26012020	260120	011546	270.300	12.418765	-57.526793	270.250	-0.310	0.180	0.050	270.300	-1.200	0.600																			1580001346.0	7.73	14.32
26/01/2020 01:15:47	26012020	260120	011547	270.280	12.418762	-57.526830	270.170	-0.290	0.010	-0.310	270.280	-1.300	0.200																			1580001347.0	7.84	14.52
26/01/2020 01:15:48	26012020	260120	011548	270.200	12.418760	-57.526868	270.050	-0.210	-0.290	-0.530	270.170	-1.500	-0.100																			1580001348.0	7.99	14.80
26/01/2020 01:15:49	26012020	260120	011549	270.060	12.418757	-57.526907	269.990	-0.120	-0.420	-0.550	270.060	-1.800	-0.200																			1580001349.0	8.15	15.09
26/01/2020 01:15:50	26012020	260120	011550	270.030	12.418757	-57.526945	270.040	-0.050	-0.310	-0.440	270.030	-1.800	-0.100																			1580001350.0	8.12	15.04
26/01/2020 01:15:51	26012020	260120	011551	270.120	12.418757	-57.526982	270.170	0.020	-0.110	-0.310	270.120	-1.600	-0.000																			1580001351.0	7.88	14.59
26/01/2020 01:15:52	26012020	260120	011552	270.220	12.418758	-57.527018	270.260	0.070	0.030	-0.190	270.240	-1.400	0.100																			1580001352.0	7.71	14.28
26/01/2020 01:15:53	26012020	260120	011553	270.300	12.418758	-57.527055	270.260	0.110	0.060	-0.080	270.300	-1.300	0.200																			1580001353.0	7.74	14.33
26/01/2020 01:15:54	26012020	260120	011554	270.270	12.418760	-57.527092	270.180	0.170	-0.010	0.060	270.270	-1.400	0.300																			1580001354.0	7.81	14.46
26/01/2020 01:15:55	26012020	260120	011555	270.170	12.418760	-57.527130	270.010	0.260	-0.140	0.320	270.140	-1.500	0.500																			1580001355.0	7.88	14.59
26/01/2020 01:15:56	26012020	260120	011556	270.000	12.418762	-57.527167	269.850	0.260	-0.290	0.590	269.960	-1.600	0.800																			1580001356.0	7.94	14.70
26/01/2020 01:15:57	26012020	260120	011557	269.840	12.418763	-57.527205	269.770	0.120	-0.370	0.720	269.820	-1.700	1.000																			1580001357.0	7.96	14.74
26/01/2020 01:15:58	26012020	260120	011558	269.790	12.418765	-57.527242	269.840	-0.090	-0.330	0.600	269.800	-1.800	1.000																			1580001358.0	7.93	14.69
26/01/2020 01:15:59	26012020	260120	011559	269.890	12.418765	-57.527278	270.010	-0.190	-0.230	0.350	269.920	-1.700	0.800	1015.20	25.40	25.40	21.60	21.60	-1.00	79.00	79.00	390.00	24.60	76.00	5.80	25.00	6.20	14	3557.00	27.40	27.40	1580001359.0	7.80	14.45
26/01/2020 01:16:00	26012020	260120	011600	270.100	12.418765	-57.527315	270.160	-0.150	-0.140	0.040	270.100	-1.600	0.600																			1580001360.0	7.72	14.30
26/01/2020 01:16:01	26012020	260120	011601	270.230	12.418763	-57.527352	270.210	-0.070	-0.110	-0.270	270.230	-1.500	0.200																			1580001361.0	7.77	14.39
26/01/2020 01:16:02	26012020	260120	011602	270.230	12.418760	-57.527390	270.130	-0.030	-0.110	-0.530	270.220	-1.500	-0.000																			1580001362.0	7.90	14.63
26/01/2020 01:16:03	26012020	260120	011603	270.120	12.418758	-57.527427	270.020	0.010	-0.080	-0.660	270.120	-1.500	-0.300																			1580001363.0	7.98	14.78
26/01/2020 01:16:04	26012020	260120	011604	270.030	12.418757	-57.527465	269.910	0.120	-0.080	-0.620	270.020	-1.500	-0.300																			1580001364.0	7.96	14.74
26/01/2020 01:16:05	26012020	260120	011605	269.920	12.418757	-57.527502	269.840	0.250	-0.130	-0.380	269.920	-1.500	-0.200																			1580001365.0	7.93	14.69
26/01/2020 01:16:06	26012020	260120	011606	269.890	12.418758	-57.527540	269.840	0.220	-0.140	-0.030	269.880	-1.500	0.200																			1580001366.0	7.96	14.74
26/01/2020 01:16:07	26012020	260120	011607	269.890	12.418762	-57.527577	269.880	0.010	-0.090	0.360	269.900	-1.500	0.500																			1580001367.0	7.93	14.69
26/01/2020 01:16:08	26012020	260120	011608	269.910	12.418763	-57.527613	269.900	-0.240	-0.090	0.680	269.920	-1.500	0.900																			1580001368.0	7.78	14.41
26/01/2020 01:16:09	26012020	260120	011609	269.920	12.418765	-57.527650	269.920	-0.340	-0.170	0.790	269.920	-1.500	1.100																			1580001369.0	7.70	14.26
26/01/2020 01:16:10	26012020	260120	011610	269.960	12.418765	-57.527687	269.960	-0.230	-0.280	0.670	269.960	-1.600	1.100																			1580001370.0	7.77	14.39
26/01/2020 01:16:11	26012020	260120	011611	270.000	12.418765	-57.527725	269.990	-0.010	-0.380	0.430	270.000	-1.700	0.900																			1580001371.0	7.87	14.58
26/01/2020 01:16:12	26012020	260120	011612	270.020	12.418763	-57.527762	269.990	0.190	-0.420	0.170	270.020	-1.800	0.700																			1580001372.0	7.97	14.76
26/01/2020 01:16:13	26012020	260120	011613	270.000	12.418762	-57.527800	269.940	0.240	-0.330	0.020	270.000	-1.800	0.400																			1580001373.0	8.04	14.89
26/01/2020 01:16:14	26012020	260120	011614	269.960	12.418760	-57.527838	269.880	0.150	-0.060	-0.010	269.950	-1.600	0.400																			1580001374.0	8.00	14.82
26/01/2020 01:16:15	26012020	260120	011615	269.910	12.418762	-57.527875	269.860	-0.010	0.270	-0.010	269.900	-1.300	0.400																			1580001375.0	7.85	14.54
26/01/2020 01:16:16	26012020	260120	011616	269.900	12.418763	-57.527912	269.880	-0.120	0.410	-0.080	269.900	-1.000	0.300																			1580001376.0	7.65	14.17
26/01/2020 01:16:17	26012020	260120	011617	269.920	12.418763	-57.527947	269.890	-0.160	0.210	-0.190	269.920	-1.100	0.200																			1580001377.0	7.60	14.08
26/01/2020 01:16:18	26012020	260120	011618	269.920	12.418762	-57.527983	269.880	-0.100	-0.240	-0.270	269.920	-1.400	0.100																			1580001378.0	7.79	14.43
26/01/2020 01:16:19	26012020	260120	011619	269.930	12.418762	-57.528022	269.920	-0.010	-0.640	-0.340	269.930	-1.900	0.100																			1580001379.0	8.07	14.95
26/01/2020 01:16:20	26012020	260120	011620	269.970	12.418760	-57.528060	269.980	0.070	-0.750	-0.290	269.980	-2.100	0.000																			1580001380.0	8.16	15.11
26/01/2020 01:16:21	26012020	260120	011621	270.020	12.418760	-57.528098	270.030	0.130	-0.560	-0.130	270.030	-2.100	0.100																			1580001381.0	8.03	14.87
26/01/2020 01:16:22	26012020	260120	011622	270.070	12.418760	-57.528135	270.050	0.140	-0.220	0.110	270.070	-1.800	0.400																			1580001382.0	7.79	14.43
26/01/2020 01:16:23	26012020	260120	011623	270.080	12.418762	-57.528172	270.030	0.090	0.070	0.390	270.070	-1.400	0.600																			1580001383.0	7.66	14.19
26/01/2020 01:16:24	26012020	260120	011624	270.050	12.418763	-57.528208	270.010	-0.010	0.180	0.570	270.050	-1.200	0.900																			1580001384.0	7.68	14.22
26/01/2020 01:16:25	26012020	260120	011625	270.050	12.418767	-57.528245	270.040	-0.110	0.130	0.570	270.050	-1.200	1.000																			1580001385.0	7.83	14.50
26/01/2020 01:16:26	26012020	260120	011626	270.060	12.418767	-57.528283	270.060	-0.160	0.040	0.380	270.070	-1.300	0.900																			1580001386.0	7.98	14.78
26/01/2020 01:16:27	26012020	260120	011627	270.100	12.418767	-57.528320	270.100	-0.180	-0.060	0.100	270.100	-1.400	0.600																			1580001387.0	8.01	14.83
26/01/2020 01:16:28	26012020	260120	011628	270.130	12.418765	-57.528358	270.160	-0.140	-0.170	-0.130	270.140	-1.500	0.300																			1580001388.0	7.97	14.76
26/01/2020 01:16:29	26012020	260120	011629	270.190	12.418763	-57.528395	270.180	-0.050	-0.280	-0.190	270.190	-1.600	0.200																			1580001389.0	7.91	14.65
26/01/2020 01:16:30	26012020	260120	011630	270.190	12.418762	-57.528433	270.110	0.060	-0.360	-0.090	270.180	-1.700	0.200																			1580001390.0	7.88	14.59
26/01/2020 01:16:31	26012020	260120	011631	270.070	12.418762	-57.528470	269.970	0.120	-0.350	0.060	270.070	-1.800	0.400																			1580001391.0	7.88	14.59
26/01/2020 01:16:32	26012020	260120	011632	269.940	12.418762	-57.528507	269.790	0.080	-0.230	0.200	269.910	-1.700	0.500																			1580001392.0	7.86	14.56
26/01/2020 01:16:33	26012020	260120	011633	269.770	12.418763	-57.528545	269.690	-0.010	-0.100	0.240	269.750	-1.600	0.600																			1580001393.0	7.79	14.43
26/01/2020 01:16:34	26012020	260120	011634	269.710	12.418763	-57.528582	269.760	-0.040	-0.060	0.160	269.710	-1.500	0.600																			1580001394.0	7.75	14.35
26/01/2020 01:16:35	26012020	260120	011635	269.810	12.418765	-57.528618	269.960	0.010	-0.150	-0.020	269.840	-1.500	0.400																			1580001395.0	7.79	14.43
26/01/2020 01:16:36	26012020	260120	011636	270.020	12.418765	-57.528655	270.180	0.080	-0.300	-0.210	270.070	-1.600	0.200																			1580001396.0	7.93	14.69
26/01/2020 01:16:37	26012020	260120	011637	270.280	12.418765	-57.528693	270.350	0.090	-0.360	-0.270	270.280	-1.700	0.100																			1580001397.0	8.06	14.93
26/01/2020 01:16:38	26012020	260120	011638	270.390	12.418763	-57.528732	270.370	0.030	-0.240	-0.120	270.390	-1.700	0.100																			1580001398.0	8.09	14.98
26/01/2020 01:16:39	26012020	260120	011639	270.340	12.418763	-57.528770	270.220	-0.060	0.060	0.170	270.340	-1.500	0.400																			1580001399.0	7.98	14.78
26/01/2020 01:16:40	26012020	260120	011640	270.140	12.418765	-57.528807	269.970	-0.090	0.350	0.470	270.140	-1.200	0.700																			1580001400.0	7.77	14.39
26/01/2020 01:16:41	26012020	260120	011641	269.880	12.418767	-57.528842	269.740	-0.060	0.330	0.590	269.880	-1.000	0.900																			1580001401.0	7.60	14.08
26/01/2020 01:16:42	26012020	260120	011642	269.720	12.418768	-57.528878	269.620	0.010	0.020	0.500	269.690	-1.200	0.900																			1580001402.0	7.70	14.26
26/01/2020 01:16:43	26012020	260120	011643	269.610	12.418767	-57.528917	269.550	0.100	-0.320	0.350	269.610	-1.600	0.800																			1580001403.0	7.94	14.70
26/01/2020 01:16:44	26012020	260120	011644	269.560	12.418767	-57.528955	269.550	0.170	-0.520	0.140	269.560	-1.800	0.600																			1580001404.0	8.05	14.91
26/01/2020 01:16:45	26012020	260120	011645	269.590	12.418765	-57.528992	269.680	0.170	-0.580	-0.150	269.610	-2.000	0.400																			1580001405.0	7.94	14.70
26/01/2020 01:16:46	26012020	260120	011646	269.790	12.418765	-57.529028	269.920	0.100	-0.540	-0.430	269.790	-2.000	0.100																			1580001406.0	7.83	14.50
26/01/2020 01:16:47	26012020	260120	011647	269.990	12.418763	-57.529065	270.130	-0.010	-0.420	-0.530	270.030	-1.900	-0.100																			1580001407.0	7.83	14.50
26/01/2020 01:16:48	26012020	260120	011648	270.170	12.418763	-57.529103	270.210	-0.120	-0.270	-0.400	270.190	-1.700	-0.100																			1580001408.0	7.83	14.50
26/01/2020 01:16:49	26012020	260120	011649	270.220	12.418763	-57.529140	270.160	-0.180	-0.110	-0.080	270.210	-1.600	0.100																			1580001409.0	7.87	14.58
26/01/2020 01:16:50	26012020	260120	011650	270.150	12.418765	-57.529178	270.020	-0.180	0.060	0.290	270.120	-1.400	0.500																			1580001410.0	7.94	14.70
26/01/2020 01:16:51	26012020	260120	011651	270.000	12.418767	-57.529215	269.860	-0.150	0.200	0.530	269.960	-1.300	0.800																			1580001411.0	7.94	14.70
26/01/2020 01:16:52	26012020	260120	011652	269.800	12.418767	-57.529253	269.710	-0.120	0.190	0.580	269.800	-1.200	0.900																			1580001412.0	7.89	14.61
26/01/2020 01:16:53	26012020	260120	011653	269.680	12.418768	-57.529290	269.590	-0.100	0.070	0.520	269.660	-1.300	0.900																			1580001413.0	7.91	14.65
26/01/2020 01:16:54	26012020	260120	011654	269.590	12.418768	-57.529328	269.570	-0.060	0.010	0.370	269.580	-1.400	0.800																			1580001414.0	7.98	14.78
26/01/2020 01:16:55	26012020	260120	011655	269.580	12.418767	-57.529365	269.600	0.030	0.010	0.220	269.590	-1.400	0.700																			1580001415.0	7.93	14.69
26/01/2020 01:16:56	26012020	260120	011656	269.620	12.418767	-57.529402	269.630	0.140	-0.080	0.080	269.620	-1.400	0.500																			1580001416.0	7.77	14.39
26/01/2020 01:16:57	26012020	260120	011657	269.660	12.418767	-57.529438	269.690	0.210	-0.370	-0.060	269.680	-1.600	0.400																			1580001417.0	7.72	14.30
26/01/2020 01:16:58	26012020	260120	011658	269.740	12.418765	-57.529477	269.750	0.230	-0.670	-0.140	269.740	-1.900	0.300																			1580001418.0	7.90	14.63
26/01/2020 01:16:59	26012020	260120	011659	269.780	12.418765	-57.529513	269.800	0.200	-0.720	-0.160	269.790	-2.100	0.200	1015.20	25.40	25.40	21.70	21.70	-1.00	80.00	79.00	390.00	24.60	75.00	5.70	25.00	6.10	14	3570.00	27.40	27.40	1580001419.0	8.05	14.91
26/01/2020 01:17:00	26012020	260120	011700	269.850	12.418765	-57.529552	269.860	0.170	-0.540	-0.140	269.850	-2.000	0.200																			1580001420.0	7.99	14.80
26/01/2020 01:17:01	26012020	260120	011701	269.900	12.418765	-57.529588	269.920	0.140	-0.240	-0.070	269.910	-1.800	0.200																			1580001421.0	7.82	14.48
26/01/2020 01:17:02	26012020	260120	011702	269.950	12.418767	-57.529625	269.920	0.040	0.060	0.050	269.950	-1.500	0.400																			1580001422.0	7.76	14.37
26/01/2020 01:17:03	26012020	260120	011703	269.920	12.418768	-57.529662	269.820	-0.150	0.240	0.140	269.910	-1.200	0.500																			1580001423.0	7.77	14.39
26/01/2020 01:17:04	26012020	260120	011704	269.770	12.418768	-57.529700	269.630	-0.380	0.310	0.220	269.770	-1.100	0.600																			1580001424.0	7.83	14.50
26/01/2020 01:17:05	26012020	260120	011705	269.630	12.418768	-57.529737	269.450	-0.520	0.290	0.250	269.590	-1.100	0.600																			1580001425.0	7.89	14.61
26/01/2020 01:17:06	26012020	260120	011706	269.440	12.418768	-57.529773	269.350	-0.460	0.160	0.230	269.440	-1.200	0.600																			1580001426.0	7.91	14.65
26/01/2020 01:17:07	26012020	260120	011707	269.380	12.418767	-57.529812	269.350	-0.180	-0.200	0.170	269.370	-1.400	0.600																			1580001427.0	7.87	14.58
26/01/2020 01:17:08	26012020	260120	011708	269.400	12.418765	-57.529850	269.470	0.200	-0.630	0.110	269.420	-1.800	0.500																			1580001428.0	7.99	14.80
26/01/2020 01:17:09	26012020	260120	011709	269.550	12.418765	-57.529888	269.690	0.460	-0.830	0.050	269.580	-2.200	0.400																			1580001429.0	8.17	15.13
26/01/2020 01:17:10	26012020	260120	011710	269.810	12.418765	-57.529927	269.890	0.460	-0.700	0.050	269.810	-2.200	0.400																			1580001430.0	8.13	15.06
26/01/2020 01:17:11	26012020	260120	011711	269.950	12.418765	-57.529963	269.940	0.250	-0.310	0.120	269.960	-1.900	0.400																			1580001431.0	7.90	14.63
26/01/2020 01:17:12	26012020	260120	011712	269.940	12.418767	-57.530000	269.810	-0.020	0.130	0.210	269.940	-1.500	0.500																			1580001432.0	7.67	14.20
26/01/2020 01:17:13	26012020	260120	011713	269.790	12.418768	-57.530037	269.570	-0.280	0.420	0.250	269.750	-1.100	0.600																			1580001433.0	7.59	14.06
26/01/2020 01:17:14	26012020	260120	011714	269.500	12.418768	-57.530072	269.320	-0.410	0.450	0.210	269.500	-0.900	0.600																			1580001434.0	7.65	14.17
26/01/2020 01:17:15	26012020	260120	011715	269.320	12.418767	-57.530108	269.210	-0.320	0.200	0.110	269.290	-1.000	0.500																			1580001435.0	7.80	14.45
26/01/2020 01:17:16	26012020	260120	011716	269.240	12.418767	-57.530147	269.300	-0.030	-0.210	-0.040	269.250	-1.400	0.400																			1580001436.0	8.00	14.82
26/01/2020 01:17:17	26012020	260120	011717	269.370	12.418765	-57.530185	269.540	0.280	-0.570	-0.130	269.420	-1.800	0.300																			1580001437.0	8.14	15.08
26/01/2020 01:17:18	26012020	260120	011718	269.610	12.418763	-57.530223	269.730	0.400	-0.640	-0.070	269.660	-2.100	0.200																			1580001438.0	8.20	15.19
26/01/2020 01:17:19	26012020	260120	011719	269.780	12.418765	-57.530262	269.750	0.300	-0.340	0.120	269.800	-1.900	0.400																			1580001439.0	8.06	14.93
26/01/2020 01:17:20	26012020	260120	011720	269.770	12.418765	-57.530298	269.670	0.070	0.040	0.250	269.770	-1.500	0.600																			1580001440.0	7.72	14.30
26/01/2020 01:17:21	26012020	260120	011721	269.690	12.418767	-57.530333	269.570	-0.140	0.160	0.200	269.670	-1.300	0.600																			1580001441.0	7.47	13.83
26/01/2020 01:17:22	26012020	260120	011722	269.560	12.418767	-57.530370	269.410	-0.220	-0.060	0.070	269.560	-1.300	0.500																			1580001442.0	7.56	14.00
26/01/2020 01:17:23	26012020	260120	011723	269.440	12.418767	-57.530407	269.260	-0.190	-0.400	-0.010	269.400	-1.600	0.400																			1580001443.0	7.90	14.63
26/01/2020 01:17:24	26012020	260120	011724	269.300	12.418765	-57.530445	269.200	-0.120	-0.530	0.030	269.280	-1.900	0.400																			1580001444.0	8.19	15.17
26/01/2020 01:17:25	26012020	260120	011725	269.240	12.418763	-57.530485	269.210	-0.070	-0.400	0.190	269.240	-1.900	0.500																			1580001445.0	8.15	15.09
26/01/2020 01:17:26	26012020	260120	011726	269.280	12.418763	-57.530522	269.370	-0.080	-0.170	0.260	269.300	-1.700	0.600																			1580001446.0	7.90	14.63
26/01/2020 01:17:27	26012020	260120	011727	269.450	12.418765	-57.530558	269.600	-0.120	0.020	0.150	269.500	-1.500	0.600																			1580001447.0	7.76	14.37
26/01/2020 01:17:28	26012020	260120	011728	269.740	12.418765	-57.530595	269.810	-0.120	0.120	-0.100	269.740	-1.300	0.400																			1580001448.0	7.78	14.41
26/01/2020 01:17:29	26012020	260120	011729	269.890	12.418763	-57.530632	269.890	-0.060	0.140	-0.280	269.910	-1.300	0.200																			1580001449.0	7.87	14.58
26/01/2020 01:17:30	26012020	260120	011730	269.940	12.418762	-57.530670	269.780	0.070	0.080	-0.270	269.920	-1.300	0.100																			1580001450.0	7.93	14.69
26/01/2020 01:17:31	26012020	260120	011731	269.790	12.418762	-57.530708	269.490	0.200	-0.030	-0.010	269.730	-1.400	0.200																			1580001451.0	7.97	14.76
26/01/2020 01:17:32	26012020	260120	011732	269.470	12.418762	-57.530745	269.180	0.320	-0.150	0.360	269.400	-1.500	0.500																			1580001452.0	7.94	14.70
26/01/2020 01:17:33	26012020	260120	011733	269.160	12.418762	-57.530783	268.980	0.340	-0.280	0.620	269.110	-1.600	0.900																			1580001453.0	7.89	14.61
26/01/2020 01:17:34	26012020	260120	011734	269.000	12.418765	-57.530820	268.970	0.250	-0.440	0.640	268.990	-1.800	1.000																			1580001454.0	7.84	14.52
26/01/2020 01:17:35	26012020	260120	011735	269.020	12.418767	-57.530857	269.100	0.080	-0.530	0.470	269.040	-1.900	0.900																			1580001455.0	7.86	14.56
26/01/2020 01:17:36	26012020	260120	011736	269.170	12.418767	-57.530893	269.270	-0.080	-0.350	0.200	269.200	-1.900	0.700																			1580001456.0	7.92	14.67
26/01/2020 01:17:37	26012020	260120	011737	269.330	12.418765	-57.530932	269.410	-0.220	0.030	-0.120	269.360	-1.600	0.400																			1580001457.0	7.83	14.50
26/01/2020 01:17:38	26012020	260120	011738	269.470	12.418763	-57.530967	269.510	-0.350	0.230	-0.430	269.490	-1.200	0.100																			1580001458.0	7.62	14.11
26/01/2020 01:17:39	26012020	260120	011739	269.570	12.418760	-57.531003	269.580	-0.410	0.030	-0.650	269.580	-1.200	-0.200																			1580001459.0	7.60	14.08
26/01/2020 01:17:40	26012020	260120	011740	269.650	12.418758	-57.531040	269.690	-0.280	-0.350	-0.750	269.670	-1.600	-0.300																			1580001460.0	7.91	14.65
26/01/2020 01:17:41	26012020	260120	011741	269.750	12.418755	-57.531080	269.760	0.020	-0.480	-0.660	269.770	-1.900	-0.400																			1580001461.0	8.26	15.30
26/01/2020 01:17:42	26012020	260120	011742	269.800	12.418753	-57.531118	269.730	0.310	-0.340	-0.260	269.800	-1.800	-0.100																			1580001462.0	8.21	15.20
26/01/2020 01:17:43	26012020	260120	011743	269.750	12.418755	-57.531155	269.630	0.420	-0.160	0.360	269.730	-1.600	0.400																			1580001463.0	7.89	14.61
26/01/2020 01:17:44	26012020	260120	011744	269.630	12.418757	-57.531192	269.510	0.320	-0.050	1.000	269.600	-1.500	1.100																			1580001464.0	7.75	14.35
26/01/2020 01:17:45	26012020	260120	011745	269.490	12.418762	-57.531228	269.350	0.100	0.060	1.420	269.460	-1.400	1.600																			1580001465.0	7.86	14.56
26/01/2020 01:17:46	26012020	260120	011746	269.330	12.418767	-57.531267	269.240	-0.100	0.100	1.450	269.300	-1.300	1.900																			1580001466.0	7.86	14.56
26/01/2020 01:17:47	26012020	260120	011747	269.240	12.418768	-57.531303	269.230	-0.220	-0.010	1.050	269.230	-1.300	1.700																			1580001467.0	7.79	14.43
26/01/2020 01:17:48	26012020	260120	011748	269.250	12.418767	-57.531340	269.330	-0.300	-0.200	0.320	269.280	-1.500	1.100																			1580001468.0	7.85	14.54
26/01/2020 01:17:49	26012020	260120	011749	269.380	12.418762	-57.531378	269.520	-0.320	-0.270	-0.530	269.420	-1.700	0.300																			1580001469.0	8.03	14.87
26/01/2020 01:17:50	26012020	260120	011750	269.600	12.418757	-57.531415	269.820	-0.250	-0.240	-1.310	269.660	-1.700	-0.600																			1580001470.0	8.03	14.87
26/01/2020 01:17:51	26012020	260120	011751	269.920	12.418752	-57.531452	270.130	-0.030	-0.240	-1.750	269.980	-1.600	-1.200																			1580001471.0	7.90	14.63
26/01/2020 01:17:52	26012020	260120	011752	270.240	12.418747	-57.531488	270.230	0.250	-0.300	-1.560	270.240	-1.700	-1.400																			1580001472.0	7.86	14.56
26/01/2020 01:17:53	26012020	260120	011753	270.270	12.418747	-57.531527	270.100	0.440	-0.340	-0.740	270.240	-1.700	-0.800																			1580001473.0	7.94	14.70
26/01/2020 01:17:54	26012020	260120	011754	270.080	12.418748	-57.531565	269.860	0.430	-0.210	0.340	270.020	-1.700	0.200																			1580001474.0	8.03	14.87
26/01/2020 01:17:55	26012020	260120	011755	269.810	12.418755	-57.531602	269.650	0.260	0.020	1.260	269.770	-1.500	1.200																			1580001475.0	8.00	14.82
26/01/2020 01:17:56	26012020	260120	011756	269.580	12.418762	-57.531638	269.530	0.030	0.080	1.750	269.580	-1.300	1.900																			1580001476.0	7.80	14.45
26/01/2020 01:17:57	26012020	260120	011757	269.500	12.418765	-57.531675	269.490	-0.140	-0.070	1.790	269.490	-1.400	2.200																			1580001477.0	7.71	14.28
26/01/2020 01:17:58	26012020	260120	011758	269.470	12.418767	-57.531712	269.550	-0.260	-0.170	1.420	269.480	-1.500	2.000																			1580001478.0	7.89	14.61
26/01/2020 01:17:59	26012020	260120	011759	269.550	12.418765	-57.531750	269.660	-0.350	-0.120	0.770	269.570	-1.600	1.500	1015.20	25.30	25.40	21.60	21.60	-1.00	80.00	79.00	390.00	24.60	70.00	6.20	18.00	6.10	14	3451.00	27.40	27.40	1580001479.0	8.00	14.82
26/01/2020 01:18:00	26012020	260120	011800	269.680	12.418762	-57.531787	269.830	-0.360	-0.060	-0.070	269.720	-1.500	0.700																			1580001480.0	7.87	14.58
26/01/2020 01:18:01	26012020	260120	011801	269.860	12.418757	-57.531823	270.030	-0.230	-0.150	-0.940	269.910	-1.500	-0.200																			1580001481.0	7.78	14.41
26/01/2020 01:18:02	26012020	260120	011802	270.070	12.418752	-57.531860	270.160	0.020	-0.340	-1.500	270.100	-1.600	-0.900																			1580001482.0	7.93	14.69
26/01/2020 01:18:03	26012020	260120	011803	270.180	12.418747	-57.531898	270.130	0.270	-0.490	-1.450	270.180	-1.800	-1.200																			1580001483.0	8.07	14.95
26/01/2020 01:18:04	26012020	260120	011804	270.100	12.418745	-57.531937	270.000	0.370	-0.470	-0.890	270.100	-1.900	-0.800																			1580001484.0	8.09	14.98
26/01/2020 01:18:05	26012020	260120	011805	269.990	12.418747	-57.531975	269.930	0.280	-0.190	-0.140	269.960	-1.800	-0.100																			1580001485.0	8.03	14.87
26/01/2020 01:18:06	26012020	260120	011806	269.910	12.418752	-57.532012	269.870	0.070	0.130	0.550	269.900	-1.400	0.600																			1580001486.0	7.83	14.50
26/01/2020 01:18:07	26012020	260120	011807	269.850	12.418757	-57.532047	269.790	-0.100	0.210	1.030	269.830	-1.200	1.200																			1580001487.0	7.64	14.15
26/01/2020 01:18:08	26012020	260120	011808	269.760	12.418760	-57.532083	269.780	-0.150	0.070	1.140	269.750	-1.200	1.500																			1580001488.0	7.70	14.26
26/01/2020 01:18:09	26012020	260120	011809	269.770	12.418762	-57.532120	269.900	-0.130	-0.140	0.910	269.790	-1.400	1.400																			1580001489.0	7.92	14.67
26/01/2020 01:18:10	26012020	260120	011810	269.940	12.418762	-57.532158	270.030	-0.090	-0.320	0.510	269.940	-1.600	1.100																			1580001490.0	8.05	14.91
26/01/2020 01:18:11	26012020	260120	011811	270.030	12.418758	-57.532197	270.050	-0.040	-0.350	0.110	270.050	-1.800	0.700																			1580001491.0	8.06	14.93
26/01/2020 01:18:12	26012020	260120	011812	270.040	12.418755	-57.532235	269.990	-0.000	-0.230	-0.140	270.040	-1.700	0.300																			1580001492.0	8.01	14.83
26/01/2020 01:18:13	26012020	260120	011813	270.000	12.418753	-57.532272	269.950	0.020	-0.060	-0.270	269.990	-1.500	0.200																			1580001493.0	7.85	14.54
26/01/2020 01:18:14	26012020	260120	011814	269.960	12.418752	-57.532308	269.950	0.030	0.040	-0.310	269.960	-1.400	0.100																			1580001494.0	7.73	14.32
26/01/2020 01:18:15	26012020	260120	011815	269.970	12.418752	-57.532345	269.990	0.040	0.020	-0.340	269.980	-1.400	0.000																			1580001495.0	7.71	14.28
26/01/2020 01:18:16	26012020	260120	011816	270.010	12.418752	-57.532382	270.020	0.040	-0.100	-0.320	270.020	-1.400	0.000																			1580001496.0	7.76	14.37
26/01/2020 01:18:17	26012020	260120	011817	270.040	12.418752	-57.532418	270.010	0.050	-0.230	-0.160	270.040	-1.600	0.100																			1580001497.0	7.84	14.52
26/01/2020 01:18:18	26012020	260120	011818	270.010	12.418752	-57.532455	269.950	0.110	-0.360	0.080	270.000	-1.700	0.300																			1580001498.0	7.87	14.58
26/01/2020 01:18:19	26012020	260120	011819	269.950	12.418753	-57.532493	269.920	0.160	-0.450	0.260	269.940	-1.800	0.600																			1580001499.0	7.89	14.61
26/01/2020 01:18:20	26012020	260120	011820	269.940	12.418755	-57.532530	269.960	0.140	-0.410	0.270	269.940	-1.900	0.600																			1580001500.0	7.95	14.72
26/01/2020 01:18:21	26012020	260120	011821	269.980	12.418757	-57.532568	270.050	-0.010	-0.210	0.160	270.000	-1.700	0.600																			1580001501.0	7.94	14.70
26/01/2020 01:18:22	26012020	260120	011822	270.070	12.418757	-57.532605	270.180	-0.190	0.060	0.020	270.100	-1.500	0.500																			1580001502.0	7.82	14.48
26/01/2020 01:18:23	26012020	260120	011823	270.210	12.418755	-57.532642	270.330	-0.270	0.120	-0.090	270.240	-1.300	0.300																			1580001503.0	7.70	14.26
26/01/2020 01:18:24	26012020	260120	011824	270.360	12.418755	-57.532678	270.440	-0.170	-0.070	-0.110	270.390	-1.400	0.300																			1580001504.0	7.72	14.30
26/01/2020 01:18:25	26012020	260120	011825	270.470	12.418755	-57.532717	270.470	-0.010	-0.270	-0.010	270.470	-1.600	0.300																			1580001505.0	7.99	14.80
26/01/2020 01:18:26	26012020	260120	011826	270.470	12.418753	-57.532755	270.410	0.030	-0.270	0.080	270.460	-1.700	0.400																			1580001506.0	8.16	15.11
26/01/2020 01:18:27	26012020	260120	011827	270.410	12.418753	-57.532792	270.330	-0.020	-0.140	0.080	270.400	-1.600	0.500																			1580001507.0	8.01	14.83
26/01/2020 01:18:28	26012020	260120	011828	270.310	12.418753	-57.532830	270.180	-0.050	-0.050	0.050	270.290	-1.500	0.400																			1580001508.0	7.78	14.41
26/01/2020 01:18:29	26012020	260120	011829	270.170	12.418755	-57.532865	270.040	0.010	-0.010	-0.000	270.140	-1.400	0.400																			1580001509.0	7.73	14.32
26/01/2020 01:18:30	26012020	260120	011830	270.020	12.418755	-57.532903	270.010	0.090	0.020	-0.110	270.020	-1.400	0.300																			1580001510.0	7.82	14.48
26/01/2020 01:18:31	26012020	260120	011831	270.040	12.418755	-57.532940	270.200	0.110	-0.010	-0.220	270.070	-1.400	0.200																			1580001511.0	7.85	14.54
26/01/2020 01:18:32	26012020	260120	011832	270.330	12.418753	-57.532977	270.490	0.080	-0.130	-0.210	270.330	-1.500	0.100																			1580001512.0	7.80	14.45
26/01/2020 01:18:33	26012020	260120	011833	270.560	12.418753	-57.533013	270.680	0.070	-0.270	-0.040	270.610	-1.600	0.200																			1580001513.0	7.83	14.50
26/01/2020 01:18:34	26012020	260120	011834	270.700	12.418755	-57.533052	270.620	0.060	-0.380	0.260	270.700	-1.700	0.500																			1580001514.0	7.88	14.59
26/01/2020 01:18:35	26012020	260120	011835	270.590	12.418757	-57.533088	270.420	0.010	-0.390	0.460	270.550	-1.800	0.800																			1580001515.0	7.91	14.65
26/01/2020 01:18:36	26012020	260120	011836	270.340	12.418758	-57.533125	270.270	-0.070	-0.320	0.400	270.340	-1.800	0.800																			1580001516.0	7.88	14.59
26/01/2020 01:18:37	26012020	260120	011837	270.250	12.418758	-57.533163	270.230	-0.120	-0.260	0.090	270.230	-1.700	0.600																			1580001517.0	7.82	14.48
26/01/2020 01:18:38	26012020	260120	011838	270.240	12.418757	-57.533200	270.310	-0.080	-0.250	-0.270	270.250	-1.600	0.300																			1580001518.0	7.81	14.46
26/01/2020 01:18:39	26012020	260120	011839	270.330	12.418757	-57.533237	270.440	0.020	-0.230	-0.490	270.360	-1.600	-0.000																			1580001519.0	7.90	14.63
26/01/2020 01:18:40	26012020	260120	011840	270.470	12.418755	-57.533275	270.530	0.070	-0.100	-0.430	270.500	-1.600	-0.100																			1580001520.0	7.98	14.78
26/01/2020 01:18:41	26012020	260120	011841	270.550	12.418755	-57.533312	270.540	-0.020	0.100	-0.170	270.560	-1.400	0.100																			1580001521.0	7.95	14.72
26/01/2020 01:18:42	26012020	260120	011842	270.540	12.418757	-57.533350	270.500	-0.150	0.270	0.090	270.540	-1.200	0.300																			1580001522.0	7.84	14.52
26/01/2020 01:18:43	26012020	260120	011843	270.500	12.418758	-57.533387	270.470	-0.170	0.270	0.200	270.490	-1.100	0.500																			1580001523.0	7.76	14.37
26/01/2020 01:18:44	26012020	260120	011844	270.460	12.418760	-57.533423	270.460	-0.060	0.070	0.130	270.460	-1.200	0.500																			1580001524.0	7.79	14.43
26/01/2020 01:18:45	26012020	260120	011845	270.450	12.418760	-57.533460	270.410	0.070	-0.280	0.030	270.450	-1.500	0.400																			1580001525.0	7.89	14.61
26/01/2020 01:18:46	26012020	260120	011846	270.390	12.418760	-57.533498	270.310	0.070	-0.550	0.030	270.390	-1.800	0.400																			1580001526.0	8.03	14.87
26/01/2020 01:18:47	26012020	260120	011847	270.290	12.418758	-57.533537	270.140	-0.060	-0.610	0.130	270.250	-2.000	0.400																			1580001527.0	8.05	14.91
26/01/2020 01:18:48	26012020	260120	011848	270.090	12.418758	-57.533573	270.010	-0.140	-0.560	0.210	270.090	-2.000	0.500																			1580001528.0	7.87	14.58
26/01/2020 01:18:49	26012020	260120	011849	270.010	12.418758	-57.533610	270.000	-0.050	-0.410	0.230	270.000	-1.900	0.600																			1580001529.0	7.76	14.37
26/01/2020 01:18:50	26012020	260120	011850	270.040	12.418760	-57.533647	270.130	0.120	-0.170	0.220	270.040	-1.700	0.600																			1580001530.0	7.79	14.43
26/01/2020 01:18:51	26012020	260120	011851	270.160	12.418760	-57.533683	270.330	0.200	0.060	0.170	270.200	-1.400	0.600																			1580001531.0	7.80	14.45
26/01/2020 01:18:52	26012020	260120	011852	270.380	12.418760	-57.533722	270.540	0.120	0.210	0.130	270.420	-1.300	0.500																			1580001532.0	7.81	14.46
26/01/2020 01:18:53	26012020	260120	011853	270.570	12.418762	-57.533758	270.620	-0.050	0.270	0.130	270.600	-1.100	0.500																			1580001533.0	7.88	14.59
26/01/2020 01:18:54	26012020	260120	011854	270.620	12.418762	-57.533795	270.510	-0.170	0.250	0.190	270.620	-1.100	0.500																			1580001534.0	7.91	14.65
26/01/2020 01:18:55	26012020	260120	011855	270.500	12.418762	-57.533833	270.290	-0.150	0.090	0.190	270.460	-1.200	0.600																			1580001535.0	7.89	14.61
26/01/2020 01:18:56	26012020	260120	011856	270.210	12.418763	-57.533870	270.020	-0.010	-0.210	0.080	270.210	-1.400	0.500																			1580001536.0	7.88	14.59
26/01/2020 01:18:57	26012020	260120	011857	269.990	12.418762	-57.533908	269.780	0.170	-0.530	-0.070	269.940	-1.800	0.400																			1580001537.0	7.94	14.70
26/01/2020 01:18:58	26012020	260120	011858	269.780	12.418760	-57.533945	269.720	0.260	-0.710	-0.220	269.760	-2.000	0.200																			1580001538.0	8.00	14.82
26/01/2020 01:18:59	26012020	260120	011859	269.750	12.418760	-57.533983	269.820	0.190	-0.620	-0.320	269.770	-2.100	0.100	1015.20	25.30	25.30	21.50	21.50	-1.00	79.00	79.00	390.00	24.60	72.00	5.90	22.00	6.00	14	3582.00	27.40	27.40	1580001539.0	7.96	14.74
26/01/2020 01:19:00	26012020	260120	011900	269.880	12.418760	-57.534020	270.040	-0.020	-0.350	-0.340	269.920	-1.900	0.000																			1580001540.0	7.79	14.43
26/01/2020 01:19:01	26012020	260120	011901	270.100	12.418760	-57.534057	270.240	-0.220	-0.120	-0.290	270.140	-1.600	0.000																			1580001541.0	7.64	14.15
26/01/2020 01:19:02	26012020	260120	011902	270.290	12.418760	-57.534093	270.410	-0.290	-0.030	-0.250	270.320	-1.500	0.100																			1580001542.0	7.70	14.26
26/01/2020 01:19:03	26012020	260120	011903	270.450	12.418762	-57.534130	270.530	-0.210	0.040	-0.180	270.480	-1.400	0.100																			1580001543.0	7.90	14.63
26/01/2020 01:19:04	26012020	260120	011904	270.560	12.418760	-57.534168	270.540	-0.110	0.200	-0.010	270.570	-1.300	0.300																			1580001544.0	8.06	14.93
26/01/2020 01:19:05	26012020	260120	011905	270.530	12.418762	-57.534207	270.370	-0.060	0.360	0.220	270.500	-1.100	0.500																			1580001545.0	7.98	14.78
26/01/2020 01:19:06	26012020	260120	011906	270.330	12.418762	-57.534243	270.100	-0.030	0.310	0.430	270.280	-1.000	0.700																			1580001546.0	7.79	14.43
26/01/2020 01:19:07	26012020	260120	011907	270.060	12.418763	-57.534280	269.830	0.080	-0.050	0.520	270.000	-1.200	0.900																			1580001547.0	7.73	14.32
26/01/2020 01:19:08	26012020	260120	011908	269.750	12.418763	-57.534317	269.640	0.260	-0.600	0.550	269.750	-1.700	0.900																			1580001548.0	7.88	14.59
26/01/2020 01:19:09	26012020	260120	011909	269.620	12.418763	-57.534355	269.620	0.380	-0.970	0.470	269.610	-2.200	0.900																			1580001549.0	8.11	15.02
26/01/2020 01:19:10	26012020	260120	011910	269.690	12.418763	-57.534393	269.820	0.300	-0.830	0.290	269.690	-2.400	0.800																			1580001550.0	8.19	15.17
26/01/2020 01:19:11	26012020	260120	011911	269.880	12.418763	-57.534432	270.080	0.050	-0.250	0.040	269.940	-2.000	0.500																			1580001551.0	7.93	14.69
26/01/2020 01:19:12	26012020	260120	011912	270.190	12.418765	-57.534467	270.240	-0.200	0.360	-0.210	270.190	-1.300	0.300																			1580001552.0	7.52	13.93
26/01/2020 01:19:13	26012020	260120	011913	270.290	12.418763	-57.534502	270.250	-0.280	0.590	-0.370	270.300	-0.900	0.100																			1580001553.0	7.34	13.59
26/01/2020 01:19:14	26012020	260120	011914	270.270	12.418762	-57.534537	270.120	-0.180	0.330	-0.410	270.250	-0.900	-0.000																			1580001554.0	7.53	13.95
26/01/2020 01:19:15	26012020	260120	011915	270.130	12.418760	-57.534575	269.960	-0.030	-0.100	-0.310	270.100	-1.300	-0.000																			1580001555.0	8.00	14.82
26/01/2020 01:19:16	26012020	260120	011916	269.960	12.418760	-57.534613	269.830	0.080	-0.420	-0.080	269.930	-1.700	0.200																			1580001556.0	8.24	15.26
26/01/2020 01:19:17	26012020	260120	011917	269.850	12.418760	-57.534652	269.780	0.130	-0.550	0.180	269.830	-1.900	0.400																			1580001557.0	8.14	15.08
26/01/2020 01:19:18	26012020	260120	011918	269.800	12.418762	-57.534690	269.810	0.170	-0.510	0.340	269.800	-1.900	0.600																			1580001558.0	7.93	14.69
26/01/2020 01:19:19	26012020	260120	011919	269.850	12.418765	-57.534727	269.920	0.170	-0.400	0.400	269.870	-1.900	0.700																			1580001559.0	7.78	14.41
26/01/2020 01:19:20	26012020	260120	011920	269.960	12.418765	-57.534763	270.040	0.100	-0.270	0.430	269.980	-1.700	0.800																			1580001560.0	7.72	14.30
26/01/2020 01:19:21	26012020	260120	011921	270.070	12.418765	-57.534800	270.150	-0.040	-0.160	0.380	270.090	-1.600	0.800																			1580001561.0	7.77	14.39
26/01/2020 01:19:22	26012020	260120	011922	270.180	12.418765	-57.534837	270.250	-0.200	-0.020	0.200	270.210	-1.500	0.700																			1580001562.0	7.86	14.56
26/01/2020 01:19:23	26012020	260120	011923	270.290	12.418765	-57.534875	270.330	-0.260	0.140	-0.090	270.310	-1.300	0.400																			1580001563.0	7.89	14.61
26/01/2020 01:19:24	26012020	260120	011924	270.360	12.418765	-57.534912	270.300	-0.200	0.270	-0.330	270.360	-1.200	0.100																			1580001564.0	7.86	14.56
26/01/2020 01:19:25	26012020	260120	011925	270.330	12.418763	-57.534948	270.170	-0.090	0.220	-0.370	270.300	-1.100	-0.000																			1580001565.0	7.83	14.50
26/01/2020 01:19:26	26012020	260120	011926	270.190	12.418762	-57.534985	269.980	-0.010	0.010	-0.160	270.150	-1.300	0.100																			1580001566.0	7.85	14.54
26/01/2020 01:19:27	26012020	260120	011927	269.990	12.418760	-57.535023	269.760	0.060	-0.280	0.210	269.940	-1.500	0.400																			1580001567.0	7.93	14.69
26/01/2020 01:19:28	26012020	260120	011928	269.760	12.418762	-57.535060	269.590	0.150	-0.460	0.510	269.720	-1.800	0.800																			1580001568.0	7.97	14.76
26/01/2020 01:19:29	26012020	260120	011929	269.610	12.418763	-57.535098	269.570	0.210	-0.470	0.610	269.600	-1.900	0.900																			1580001569.0	7.93	14.69
26/01/2020 01:19:30	26012020	260120	011930	269.600	12.418767	-57.535135	269.690	0.190	-0.360	0.510	269.620	-1.800	0.900																			1580001570.0	7.81	14.46
26/01/2020 01:19:31	26012020	260120	011931	269.730	12.418767	-57.535172	269.870	0.150	-0.250	0.270	269.770	-1.700	0.800																			1580001571.0	7.70	14.26
26/01/2020 01:19:32	26012020	260120	011932	269.940	12.418767	-57.535208	270.100	0.150	-0.190	-0.020	269.970	-1.600	0.500																			1580001572.0	7.69	14.24
26/01/2020 01:19:33	26012020	260120	011933	270.170	12.418767	-57.535245	270.310	0.170	-0.150	-0.230	270.210	-1.600	0.200																			1580001573.0	7.82	14.48
26/01/2020 01:19:34	26012020	260120	011934	270.360	12.418765	-57.535282	270.370	0.090	-0.090	-0.240	270.380	-1.500	0.100																			1580001574.0	7.92	14.67
26/01/2020 01:19:35	26012020	260120	011935	270.400	12.418765	-57.535320	270.250	-0.080	-0.050	-0.060	270.380	-1.500	0.200																			1580001575.0	7.92	14.67
26/01/2020 01:19:36	26012020	260120	011936	270.240	12.418765	-57.535357	269.980	-0.280	-0.010	0.150	270.180	-1.400	0.400																			1580001576.0	7.93	14.69
26/01/2020 01:19:37	26012020	260120	011937	269.960	12.418767	-57.535395	269.740	-0.370	0.050	0.210	269.910	-1.400	0.600																			1580001577.0	7.91	14.65
26/01/2020 01:19:38	26012020	260120	011938	269.740	12.418767	-57.535432	269.620	-0.280	0.030	0.090	269.710	-1.300	0.500																			1580001578.0	7.85	14.54
26/01/2020 01:19:39	26012020	260120	011939	269.640	12.418767	-57.535468	269.620	-0.090	-0.130	-0.060	269.640	-1.400	0.400																			1580001579.0	7.81	14.46
26/01/2020 01:19:40	26012020	260120	011940	269.670	12.418765	-57.535507	269.700	0.090	-0.350	-0.100	269.680	-1.600	0.300																			1580001580.0	7.86	14.56
26/01/2020 01:19:41	26012020	260120	011941	269.740	12.418763	-57.535543	269.760	0.160	-0.450	0.010	269.760	-1.800	0.300																			1580001581.0	7.98	14.78
26/01/2020 01:19:42	26012020	260120	011942	269.800	12.418763	-57.535582	269.750	0.150	-0.330	0.250	269.800	-1.800	0.500																			1580001582.0	7.96	14.74
26/01/2020 01:19:43	26012020	260120	011943	269.770	12.418765	-57.535618	269.740	0.110	-0.140	0.420	269.760	-1.600	0.700																			1580001583.0	7.81	14.46
26/01/2020 01:19:44	26012020	260120	011944	269.780	12.418767	-57.535655	269.830	0.120	-0.050	0.370	269.780	-1.500	0.800																			1580001584.0	7.70	14.26
26/01/2020 01:19:45	26012020	260120	011945	269.880	12.418768	-57.535692	269.940	0.130	-0.040	0.260	269.900	-1.400	0.700																			1580001585.0	7.80	14.45
26/01/2020 01:19:46	26012020	260120	011946	270.000	12.418768	-57.535728	269.970	0.060	-0.050	0.230	270.000	-1.400	0.600																			1580001586.0	7.92	14.67
26/01/2020 01:19:47	26012020	260120	011947	270.000	12.418768	-57.535767	269.910	-0.060	-0.040	0.190	269.990	-1.400	0.600																			1580001587.0	7.95	14.72
26/01/2020 01:19:48	26012020	260120	011948	269.900	12.418768	-57.535803	269.680	-0.130	-0.010	0.180	269.860	-1.400	0.500																			1580001588.0	7.90	14.63
26/01/2020 01:19:49	26012020	260120	011949	269.650	12.418768	-57.535840	269.360	-0.070	-0.030	0.200	269.590	-1.400	0.600																			1580001589.0	7.79	14.43
26/01/2020 01:19:50	26012020	260120	011950	269.350	12.418768	-57.535877	269.210	0.050	-0.160	0.150	269.310	-1.500	0.600																			1580001590.0	7.75	14.35
26/01/2020 01:19:51	26012020	260120	011951	269.240	12.418767	-57.535915	269.270	0.120	-0.360	0.030	269.240	-1.700	0.500																			1580001591.0	7.79	14.43
26/01/2020 01:19:52	26012020	260120	011952	269.350	12.418767	-57.535952	269.450	0.090	-0.490	-0.090	269.350	-1.800	0.300																			1580001592.0	7.91	14.65
26/01/2020 01:19:53	26012020	260120	011953	269.510	12.418767	-57.535990	269.680	-0.050	-0.400	-0.190	269.560	-1.900	0.200																			1580001593.0	7.98	14.78
26/01/2020 01:19:54	26012020	260120	011954	269.770	12.418767	-57.536027	269.800	-0.190	-0.190	-0.170	269.770	-1.700	0.200																			1580001594.0	7.87	14.58
26/01/2020 01:19:55	26012020	260120	011955	269.810	12.418767	-57.536063	269.730	-0.220	-0.080	-0.030	269.800	-1.500	0.300																			1580001595.0	7.73	14.32
26/01/2020 01:19:56	26012020	260120	011956	269.730	12.418767	-57.536100	269.620	-0.140	-0.080	0.110	269.700	-1.500	0.400																			1580001596.0	7.79	14.43
26/01/2020 01:19:57	26012020	260120	011957	269.610	12.418767	-57.536138	269.560	-0.030	-0.100	0.220	269.600	-1.500	0.500																			1580001597.0	7.95	14.72
26/01/2020 01:19:58	26012020	260120	011958	269.560	12.418767	-57.536175	269.570	0.040	-0.110	0.320	269.560	-1.500	0.600																			1580001598.0	7.99	14.80
26/01/2020 01:19:59	26012020	260120	011959	269.570	12.418767	-57.536213	269.560	0.070	-0.040	0.490	269.580	-1.500	0.800	1015.20	25.30	25.40	21.40	21.40	-1.00	79.00	79.00	390.00	24.60	74.00	5.40	26.00	5.80	14	3445.00	27.40	27.40	1580001599.0	7.96	14.74
26/01/2020 01:20:00	26012020	260120	012000	269.570	12.418767	-57.536250	269.510	0.100	0.080	0.690	269.570	-1.400	1.000																			1580001600.0	7.88	14.59
26/01/2020 01:20:01	26012020	260120	012001	269.520	12.418768	-57.536287	269.410	0.140	0.170	0.790	269.510	-1.300	1.100																			1580001601.0	7.78	14.41
26/01/2020 01:20:02	26012020	260120	012002	269.410	12.418770	-57.536323	269.270	0.170	0.120	0.720	269.390	-1.200	1.100																			1580001602.0	7.71	14.28
26/01/2020 01:20:03	26012020	260120	012003	269.280	12.418770	-57.536360	269.170	0.150	-0.180	0.450	269.250	-1.400	1.000																			1580001603.0	7.73	14.32
26/01/2020 01:20:04	26012020	260120	012004	269.190	12.418770	-57.536398	269.190	0.060	-0.590	0.020	269.190	-1.800	0.600																			1580001604.0	7.89	14.61
26/01/2020 01:20:05	26012020	260120	012005	269.230	12.418768	-57.536435	269.300	-0.070	-0.800	-0.490	269.250	-2.100	0.100																			1580001605.0	8.08	14.96
26/01/2020 01:20:06	26012020	260120	012006	269.370	12.418767	-57.536473	269.490	-0.190	-0.640	-0.870	269.410	-2.200	-0.300																			1580001606.0	8.12	15.04
26/01/2020 01:20:07	26012020	260120	012007	269.570	12.418763	-57.536512	269.660	-0.260	-0.230	-0.980	269.620	-1.800	-0.600																			1580001607.0	7.89	14.61
26/01/2020 01:20:08	26012020	260120	012008	269.730	12.418760	-57.536547	269.680	-0.240	0.140	-0.720	269.740	-1.400	-0.500																			1580001608.0	7.63	14.13
26/01/2020 01:20:09	26012020	260120	012009	269.730	12.418760	-57.536583	269.580	-0.130	0.260	-0.190	269.710	-1.200	-0.100																			1580001609.0	7.60	14.08
26/01/2020 01:20:10	26012020	260120	012010	269.590	12.418762	-57.536620	269.490	0.000	0.180	0.310	269.590	-1.200	0.400																			1580001610.0	7.80	14.45
26/01/2020 01:20:11	26012020	260120	012011	269.500	12.418765	-57.536658	269.410	0.110	0.020	0.640	269.490	-1.300	0.900																			1580001611.0	8.04	14.89
26/01/2020 01:20:12	26012020	260120	012012	269.420	12.418767	-57.536697	269.340	0.170	-0.150	0.860	269.400	-1.500	1.100																			1580001612.0	8.09	14.98
26/01/2020 01:20:13	26012020	260120	012013	269.350	12.418768	-57.536735	269.310	0.180	-0.250	0.980	269.340	-1.600	1.300																			1580001613.0	8.03	14.87
26/01/2020 01:20:14	26012020	260120	012014	269.330	12.418770	-57.536772	269.360	0.140	-0.230	0.960	269.340	-1.600	1.300																			1580001614.0	7.93	14.69
26/01/2020 01:20:15	26012020	260120	012015	269.380	12.418770	-57.536808	269.400	0.060	-0.190	0.800	269.390	-1.600	1.300																			1580001615.0	7.80	14.45
26/01/2020 01:20:16	26012020	260120	012016	269.410	12.418770	-57.536845	269.380	-0.050	-0.260	0.520	269.410	-1.600	1.000																			1580001616.0	7.70	14.26
26/01/2020 01:20:17	26012020	260120	012017	269.380	12.418768	-57.536882	269.290	-0.160	-0.360	0.150	269.360	-1.700	0.700																			1580001617.0	7.79	14.43
26/01/2020 01:20:18	26012020	260120	012018	269.290	12.418767	-57.536920	269.220	-0.210	-0.310	-0.320	269.280	-1.800	0.300																			1580001618.0	7.96	14.74
26/01/2020 01:20:19	26012020	260120	012019	269.240	12.418765	-57.536957	269.280	-0.190	-0.130	-0.840	269.250	-1.600	-0.200																			1580001619.0	7.96	14.74
26/01/2020 01:20:20	26012020	260120	012020	269.330	12.418760	-57.536993	269.410	-0.080	0.030	-1.130	269.350	-1.400	-0.700																			1580001620.0	7.82	14.48
26/01/2020 01:20:21	26012020	260120	012021	269.450	12.418758	-57.537030	269.420	0.070	0.020	-0.950	269.460	-1.300	-0.700																			1580001621.0	7.75	14.35
26/01/2020 01:20:22	26012020	260120	012022	269.460	12.418757	-57.537068	269.400	0.200	-0.120	-0.440	269.450	-1.400	-0.300																			1580001622.0	7.83	14.50
26/01/2020 01:20:23	26012020	260120	012023	269.420	12.418758	-57.537105	269.450	0.230	-0.240	0.140	269.430	-1.600	0.200																			1580001623.0	8.02	14.85
26/01/2020 01:20:24	26012020	260120	012024	269.460	12.418762	-57.537143	269.490	0.150	-0.260	0.660	269.470	-1.700	0.800																			1580001624.0	8.07	14.95
26/01/2020 01:20:25	26012020	260120	012025	269.490	12.418767	-57.537182	269.440	0.050	-0.230	1.070	269.470	-1.600	1.200																			1580001625.0	7.96	14.74
26/01/2020 01:20:26	26012020	260120	012026	269.410	12.418768	-57.537218	269.320	-0.030	-0.170	1.290	269.380	-1.600	1.600																			1580001626.0	7.86	14.56
26/01/2020 01:20:27	26012020	260120	012027	269.280	12.418770	-57.537255	269.220	-0.110	-0.060	1.270	269.250	-1.500	1.700																			1580001627.0	7.86	14.56
26/01/2020 01:20:28	26012020	260120	012028	269.190	12.418770	-57.537292	269.210	-0.180	0.020	0.920	269.190	-1.400	1.500																			1580001628.0	7.83	14.50
26/01/2020 01:20:29	26012020	260120	012029	269.210	12.418770	-57.537328	269.270	-0.230	0.000	0.280	269.230	-1.400	1.000																			1580001629.0	7.79	14.43
26/01/2020 01:20:30	26012020	260120	012030	269.290	12.418767	-57.537367	269.320	-0.190	-0.090	-0.390	269.310	-1.400	0.300																			1580001630.0	7.85	14.54
26/01/2020 01:20:31	26012020	260120	012031	269.340	12.418762	-57.537403	269.300	-0.080	-0.190	-0.860	269.340	-1.500	-0.300																			1580001631.0	7.95	14.72
26/01/2020 01:20:32	26012020	260120	012032	269.330	12.418758	-57.537442	269.250	0.070	-0.310	-0.970	269.320	-1.600	-0.600																			1580001632.0	7.95	14.72
26/01/2020 01:20:33	26012020	260120	012033	269.280	12.418755	-57.537478	269.200	0.210	-0.460	-0.710	269.280	-1.800	-0.500																			1580001633.0	7.93	14.69
26/01/2020 01:20:34	26012020	260120	012034	269.240	12.418755	-57.537517	269.220	0.290	-0.520	-0.240	269.240	-1.900	-0.100																			1580001634.0	7.99	14.80
26/01/2020 01:20:35	26012020	260120	012035	269.250	12.418758	-57.537553	269.300	0.230	-0.340	0.240	269.260	-1.800	0.400																			1580001635.0	8.07	14.95
26/01/2020 01:20:36	26012020	260120	012036	269.340	12.418762	-57.537592	269.420	0.040	0.010	0.510	269.340	-1.600	0.800																			1580001636.0	7.96	14.74
26/01/2020 01:20:37	26012020	260120	012037	269.430	12.418765	-57.537628	269.490	-0.170	0.290	0.570	269.450	-1.200	0.900																			1580001637.0	7.72	14.30
26/01/2020 01:20:38	26012020	260120	012038	269.490	12.418765	-57.537663	269.430	-0.280	0.370	0.560	269.490	-1.000	0.900																			1580001638.0	7.63	14.13
26/01/2020 01:20:39	26012020	260120	012039	269.420	12.418765	-57.537700	269.340	-0.240	0.250	0.510	269.400	-1.100	0.900																			1580001639.0	7.75	14.35
26/01/2020 01:20:40	26012020	260120	012040	269.300	12.418763	-57.537738	269.280	-0.080	-0.020	0.400	269.300	-1.300	0.800																			1580001640.0	7.92	14.67
26/01/2020 01:20:41	26012020	260120	012041	269.270	12.418762	-57.537777	269.220	0.090	-0.360	0.300	269.260	-1.600	0.700																			1580001641.0	8.02	14.85
26/01/2020 01:20:42	26012020	260120	012042	269.210	12.418760	-57.537813	269.170	0.210	-0.570	0.210	269.190	-1.900	0.600																			1580001642.0	8.06	14.93
26/01/2020 01:20:43	26012020	260120	012043	269.150	12.418760	-57.537852	269.190	0.220	-0.590	0.050	269.140	-2.000	0.500																			1580001643.0	8.01	14.83
26/01/2020 01:20:44	26012020	260120	012044	269.180	12.418760	-57.537888	269.300	0.130	-0.550	-0.180	269.210	-2.000	0.300																			1580001644.0	7.83	14.50
26/01/2020 01:20:45	26012020	260120	012045	269.310	12.418758	-57.537925	269.420	0.030	-0.530	-0.350	269.340	-1.900	0.100																			1580001645.0	7.73	14.32
26/01/2020 01:20:46	26012020	260120	012046	269.440	12.418758	-57.537963	269.480	-0.040	-0.360	-0.360	269.450	-1.900	0.000																			1580001646.0	7.86	14.56
26/01/2020 01:20:47	26012020	260120	012047	269.500	12.418758	-57.538000	269.520	-0.120	-0.010	-0.300	269.500	-1.600	0.000																			1580001647.0	7.96	14.74
26/01/2020 01:20:48	26012020	260120	012048	269.530	12.418758	-57.538038	269.550	-0.210	0.350	-0.230	269.530	-1.200	0.100																			1580001648.0	7.87	14.58
26/01/2020 01:20:49	26012020	260120	012049	269.560	12.418758	-57.538075	269.560	-0.270	0.530	-0.140	269.560	-0.900	0.200																			1580001649.0	7.77	14.39
26/01/2020 01:20:50	26012020	260120	012050	269.560	12.418758	-57.538112	269.540	-0.280	0.480	-0.010	269.560	-0.900	0.300																			1580001650.0	7.80	14.45
26/01/2020 01:20:51	26012020	260120	012051	269.520	12.418758	-57.538148	269.460	-0.200	0.220	0.140	269.510	-1.000	0.400																			1580001651.0	7.88	14.59
26/01/2020 01:20:52	26012020	260120	012052	269.430	12.418758	-57.538187	269.330	-0.020	-0.200	0.270	269.400	-1.400	0.600																			1580001652.0	7.94	14.70
26/01/2020 01:20:53	26012020	260120	012053	269.310	12.418758	-57.538223	269.240	0.210	-0.600	0.380	269.290	-1.800	0.700																			1580001653.0	8.01	14.83
26/01/2020 01:20:54	26012020	260120	012054	269.230	12.418757	-57.538262	269.220	0.420	-0.780	0.450	269.220	-2.100	0.800																			1580001654.0	8.06	14.93
26/01/2020 01:20:55	26012020	260120	012055	269.230	12.418757	-57.538300	269.290	0.510	-0.650	0.510	269.240	-2.100	0.800																			1580001655.0	7.95	14.72
26/01/2020 01:20:56	26012020	260120	012056	269.320	12.418758	-57.538337	269.420	0.410	-0.390	0.560	269.340	-1.900	0.900																			1580001656.0	7.75	14.35
26/01/2020 01:20:57	26012020	260120	012057	269.430	12.418760	-57.538372	269.480	0.180	-0.160	0.580	269.450	-1.700	0.900																			1580001657.0	7.62	14.11
26/01/2020 01:20:58	26012020	260120	012058	269.490	12.418762	-57.538408	269.490	-0.100	-0.060	0.430	269.490	-1.500	0.900																			1580001658.0	7.65	14.17
26/01/2020 01:20:59	26012020	260120	012059	269.520	12.418762	-57.538445	269.560	-0.350	0.020	0.010	269.530	-1.400	0.600	1015.20	25.40	25.40	21.60	21.60	-1.00	79.00	79.00	390.00	24.60	72.00	5.30	26.00	5.60	14	3435.00	27.40	27.40	1580001659.0	7.84	14.52
26/01/2020 01:21:00	26012020	260120	012100	269.620	12.418760	-57.538483	269.620	-0.510	0.110	-0.460	269.620	-1.300	0.100																			1580001660.0	7.98	14.78
26/01/2020 01:21:01	26012020	260120	012101	269.670	12.418757	-57.538522	269.610	-0.510	0.130	-0.750	269.670	-1.300	-0.300																			1580001661.0	7.98	14.78
26/01/2020 01:21:02	26012020	260120	012102	269.640	12.418752	-57.538558	269.540	-0.310	-0.010	-0.740	269.630	-1.300	-0.400																			1580001662.0	7.94	14.70
26/01/2020 01:21:03	26012020	260120	012103	269.570	12.418750	-57.538597	269.460	-0.030	-0.170	-0.420	269.560	-1.500	-0.200																			1580001663.0	8.00	14.82
26/01/2020 01:21:04	26012020	260120	012104	269.480	12.418750	-57.538635	269.440	0.210	-0.270	0.060	269.480	-1.600	0.200																			1580001664.0	8.07	14.95
26/01/2020 01:21:05	26012020	260120	012105	269.470	12.418753	-57.538672	269.460	0.310	-0.270	0.520	269.470	-1.700	0.700																			1580001665.0	8.00	14.82
26/01/2020 01:21:06	26012020	260120	012106	269.490	12.418757	-57.538710	269.460	0.320	-0.220	0.900	269.490	-1.600	1.100																			1580001666.0	7.91	14.65
26/01/2020 01:21:07	26012020	260120	012107	269.470	12.418758	-57.538747	269.440	0.280	-0.150	1.080	269.460	-1.600	1.400																			1580001667.0	7.81	14.46
26/01/2020 01:21:08	26012020	260120	012108	269.450	12.418760	-57.538783	269.480	0.160	-0.110	0.940	269.450	-1.500	1.400																			1580001668.0	7.78	14.41
26/01/2020 01:21:09	26012020	260120	012109	269.490	12.418760	-57.538820	269.560	0.000	-0.080	0.600	269.510	-1.500	1.200																			1580001669.0	7.80	14.45
26/01/2020 01:21:10	26012020	260120	012110	269.570	12.418760	-57.538857	269.640	-0.100	-0.050	0.170	269.590	-1.500	0.800																			1580001670.0	7.82	14.48
26/01/2020 01:21:11	26012020	260120	012111	269.640	12.418758	-57.538893	269.660	-0.080	-0.080	-0.250	269.640	-1.500	0.300																			1580001671.0	7.82	14.48
26/01/2020 01:21:12	26012020	260120	012112	269.680	12.418757	-57.538930	269.690	-0.030	-0.190	-0.610	269.690	-1.500	-0.100																			1580001672.0	7.85	14.54
26/01/2020 01:21:13	26012020	260120	012113	269.730	12.418753	-57.538968	269.680	-0.060	-0.330	-0.760	269.730	-1.700	-0.300																			1580001673.0	7.93	14.69
26/01/2020 01:21:14	26012020	260120	012114	269.720	12.418752	-57.539007	269.620	-0.170	-0.340	-0.650	269.710	-1.700	-0.400																			1580001674.0	8.00	14.82
26/01/2020 01:21:15	26012020	260120	012115	269.640	12.418750	-57.539043	269.580	-0.230	-0.220	-0.410	269.630	-1.700	-0.200																			1580001675.0	7.95	14.72
26/01/2020 01:21:16	26012020	260120	012116	269.610	12.418752	-57.539080	269.650	-0.150	-0.120	-0.190	269.610	-1.600	0.100																			1580001676.0	7.81	14.46
26/01/2020 01:21:17	26012020	260120	012117	269.690	12.418752	-57.539117	269.760	0.020	-0.150	0.010	269.720	-1.500	0.300																			1580001677.0	7.78	14.41
26/01/2020 01:21:18	26012020	260120	012118	269.780	12.418753	-57.539155	269.730	0.130	-0.220	0.330	269.780	-1.600	0.500																			1580001678.0	7.89	14.61
26/01/2020 01:21:19	26012020	260120	012119	269.720	12.418753	-57.539193	269.530	0.110	-0.180	0.710	269.680	-1.600	0.900																			1580001679.0	8.04	14.89
26/01/2020 01:21:20	26012020	260120	012120	269.500	12.418755	-57.539230	269.350	0.030	0.030	0.960	269.450	-1.500	1.200																			1580001680.0	8.02	14.85
26/01/2020 01:21:21	26012020	260120	012121	269.330	12.418757	-57.539267	269.400	-0.020	0.180	0.890	269.330	-1.300	1.300																			1580001681.0	7.81	14.46
26/01/2020 01:21:22	26012020	260120	012122	269.420	12.418758	-57.539303	269.640	0.040	0.070	0.550	269.470	-1.200	1.100																			1580001682.0	7.67	14.20
26/01/2020 01:21:23	26012020	260120	012123	269.690	12.418758	-57.539340	269.860	0.150	-0.290	0.200	269.740	-1.500	0.700																			1580001683.0	7.79	14.43
26/01/2020 01:21:24	26012020	260120	012124	269.900	12.418757	-57.539378	269.910	0.200	-0.600	-0.030	269.920	-1.900	0.400																			1580001684.0	8.08	14.96
26/01/2020 01:21:25	26012020	260120	012125	269.920	12.418757	-57.539418	269.820	0.090	-0.520	-0.190	269.900	-2.000	0.300																			1580001685.0	8.26	15.30
26/01/2020 01:21:26	26012020	260120	012126	269.810	12.418755	-57.539457	269.670	-0.120	-0.090	-0.390	269.790	-1.700	0.100																			1580001686.0	8.06	14.93
26/01/2020 01:21:27	26012020	260120	012127	269.670	12.418753	-57.539492	269.520	-0.270	0.300	-0.600	269.640	-1.300	-0.100																			1580001687.0	7.64	14.15
26/01/2020 01:21:28	26012020	260120	012128	269.530	12.418752	-57.539527	269.430	-0.280	0.350	-0.680	269.520	-1.000	-0.300																			1580001688.0	7.42	13.74
26/01/2020 01:21:29	26012020	260120	012129	269.460	12.418750	-57.539563	269.400	-0.160	0.090	-0.530	269.450	-1.200	-0.300																			1580001689.0	7.63	14.13
26/01/2020 01:21:30	26012020	260120	012130	269.440	12.418748	-57.539600	269.450	0.040	-0.280	-0.220	269.440	-1.500	-0.000																			1580001690.0	7.94	14.70
26/01/2020 01:21:31	26012020	260120	012131	269.490	12.418750	-57.539638	269.570	0.260	-0.540	0.240	269.510	-1.800	0.400																			1580001691.0	8.12	15.04
26/01/2020 01:21:32	26012020	260120	012132	269.620	12.418752	-57.539677	269.730	0.410	-0.650	0.720	269.650	-2.000	0.900																			1580001692.0	8.09	14.98
26/01/2020 01:21:33	26012020	260120	012133	269.760	12.418755	-57.539715	269.850	0.400	-0.620	1.090	269.790	-2.000	1.300																			1580001693.0	7.99	14.80
26/01/2020 01:21:34	26012020	260120	012134	269.860	12.418758	-57.539752	269.900	0.170	-0.420	1.200	269.870	-1.900	1.500																			1580001694.0	7.94	14.70
26/01/2020 01:21:35	26012020	260120	012135	269.900	12.418762	-57.539790	269.920	-0.190	-0.060	1.000	269.900	-1.600	1.500																			1580001695.0	7.89	14.61
26/01/2020 01:21:36	26012020	260120	012136	269.910	12.418762	-57.539827	269.870	-0.480	0.350	0.610	269.900	-1.200	1.200																			1580001696.0	7.76	14.37
26/01/2020 01:21:37	26012020	260120	012137	269.840	12.418758	-57.539863	269.720	-0.520	0.580	0.180	269.810	-0.900	0.800																			1580001697.0	7.67	14.20
26/01/2020 01:21:38	26012020	260120	012138	269.710	12.418755	-57.539898	269.620	-0.320	0.440	-0.270	269.680	-0.800	0.300																			1580001698.0	7.69	14.24
26/01/2020 01:21:39	26012020	260120	012139	269.630	12.418752	-57.539937	269.580	0.010	0.010	-0.620	269.620	-1.200	-0.100																			1580001699.0	7.88	14.59
26/01/2020 01:21:40	26012020	260120	012140	269.610	12.418748	-57.539975	269.540	0.300	-0.490	-0.700	269.610	-1.600	-0.300																			1580001700.0	8.14	15.08
26/01/2020 01:21:41	26012020	260120	012141	269.580	12.418748	-57.540013	269.570	0.430	-0.860	-0.590	269.580	-2.100	-0.300																			1580001701.0	8.20	15.19
26/01/2020 01:21:42	26012020	260120	012142	269.630	12.418748	-57.540052	269.740	0.390	-0.900	-0.370	269.660	-2.300	-0.100																			1580001702.0	8.16	15.11
26/01/2020 01:21:43	26012020	260120	012143	269.810	12.418750	-57.540090	269.960	0.230	-0.530	-0.050	269.860	-2.100	0.100																			1580001703.0	8.02	14.85
26/01/2020 01:21:44	26012020	260120	012144	270.010	12.418753	-57.540127	270.090	0.010	0.030	0.300	270.040	-1.600	0.500																			1580001704.0	7.76	14.37
26/01/2020 01:21:45	26012020	260120	012145	270.100	12.418757	-57.540162	270.070	-0.210	0.440	0.570	270.100	-1.100	0.800																			1580001705.0	7.52	13.93
26/01/2020 01:21:46	26012020	260120	012146	270.040	12.418758	-57.540197	269.900	-0.390	0.470	0.720	270.010	-0.900	1.000																			1580001706.0	7.49	13.87
26/01/2020 01:21:47	26012020	260120	012147	269.860	12.418758	-57.540233	269.700	-0.430	0.170	0.730	269.820	-1.100	1.100																			1580001707.0	7.75	14.35
26/01/2020 01:21:48	26012020	260120	012148	269.640	12.418757	-57.540272	269.580	-0.260	-0.180	0.570	269.610	-1.400	1.000																			1580001708.0	8.07	14.95
26/01/2020 01:21:49	26012020	260120	012149	269.540	12.418755	-57.540310	269.650	0.000	-0.390	0.200	269.540	-1.700	0.800																			1580001709.0	8.22	15.22
26/01/2020 01:21:50	26012020	260120	012150	269.640	12.418753	-57.540348	269.810	0.230	-0.450	-0.110	269.680	-1.800	0.400																			1580001710.0	8.10	15.00
26/01/2020 01:21:51	26012020	260120	012151	269.810	12.418752	-57.540387	269.890	0.320	-0.410	-0.150	269.840	-1.800	0.200																			1580001711.0	7.91	14.65
26/01/2020 01:21:52	26012020	260120	012152	269.900	12.418752	-57.540423	269.890	0.290	-0.320	0.050	269.910	-1.800	0.300																			1580001712.0	7.82	14.48
26/01/2020 01:21:53	26012020	260120	012153	269.890	12.418752	-57.540460	269.850	0.200	-0.190	0.260	269.890	-1.600	0.500																			1580001713.0	7.80	14.45
26/01/2020 01:21:54	26012020	260120	012154	269.850	12.418753	-57.540497	269.820	0.120	-0.120	0.320	269.840	-1.500	0.700																			1580001714.0	7.77	14.39
26/01/2020 01:21:55	26012020	260120	012155	269.820	12.418755	-57.540533	269.810	0.030	-0.100	0.260	269.810	-1.500	0.700																			1580001715.0	7.82	14.48
26/01/2020 01:21:56	26012020	260120	012156	269.790	12.418757	-57.540572	269.770	-0.080	-0.040	0.140	269.790	-1.500	0.600																			1580001716.0	7.91	14.65
26/01/2020 01:21:57	26012020	260120	012157	269.750	12.418755	-57.540608	269.690	-0.200	0.070	0.040	269.740	-1.400	0.400																			1580001717.0	7.91	14.65
26/01/2020 01:21:58	26012020	260120	012158	269.680	12.418755	-57.540645	269.600	-0.270	0.090	0.010	269.670	-1.300	0.400																			1580001718.0	7.83	14.50
26/01/2020 01:21:59	26012020	260120	012159	269.590	12.418753	-57.540683	269.530	-0.280	-0.060	-0.010	269.570	-1.400	0.400	1015.20	25.40	25.40	21.60	21.60	-1.00	79.00	79.00	390.00	24.60	71.00	5.10	26.00	5.40	14	3398.00	27.40	27.40	1580001719.0	7.80	14.45
26/01/2020 01:22:00	26012020	260120	012200	269.560	12.418753	-57.540720	269.600	-0.220	-0.290	-0.060	269.570	-1.600	0.300																			1580001720.0	7.91	14.65
26/01/2020 01:22:01	26012020	260120	012201	269.650	12.418752	-57.540758	269.700	-0.100	-0.440	-0.020	269.670	-1.800	0.300																			1580001721.0	8.02	14.85
26/01/2020 01:22:02	26012020	260120	012202	269.730	12.418752	-57.540797	269.750	0.090	-0.470	0.050	269.740	-1.900	0.400																			1580001722.0	8.02	14.85
26/01/2020 01:22:03	26012020	260120	012203	269.790	12.418752	-57.540833	269.810	0.260	-0.370	0.080	269.800	-1.800	0.400																			1580001723.0	7.96	14.74
26/01/2020 01:22:04	26012020	260120	012204	269.860	12.418752	-57.540872	269.850	0.330	-0.170	0.190	269.860	-1.700	0.500																			1580001724.0	7.91	14.65
26/01/2020 01:22:05	26012020	260120	012205	269.870	12.418752	-57.540908	269.790	0.260	0.030	0.380	269.860	-1.500	0.600																			1580001725.0	7.83	14.50
26/01/2020 01:22:06	26012020	260120	012206	269.800	12.418753	-57.540945	269.690	0.160	0.150	0.570	269.780	-1.300	0.900																			1580001726.0	7.78	14.41
26/01/2020 01:22:07	26012020	260120	012207	269.710	12.418755	-57.540982	269.640	0.090	0.140	0.580	269.690	-1.200	1.000																			1580001727.0	7.81	14.46
26/01/2020 01:22:08	26012020	260120	012208	269.680	12.418757	-57.541018	269.690	0.030	0.020	0.420	269.690	-1.300	0.900																			1580001728.0	7.86	14.56
26/01/2020 01:22:09	26012020	260120	012209	269.720	12.418757	-57.541057	269.710	-0.070	-0.140	0.200	269.720	-1.500	0.700																			1580001729.0	7.93	14.69
26/01/2020 01:22:10	26012020	260120	012210	269.740	12.418755	-57.541093	269.700	-0.170	-0.200	-0.020	269.730	-1.600	0.500																			1580001730.0	7.98	14.78
26/01/2020 01:22:11	26012020	260120	012211	269.710	12.418753	-57.541132	269.630	-0.210	-0.160	-0.190	269.700	-1.600	0.300																			1580001731.0	7.92	14.67
26/01/2020 01:22:12	26012020	260120	012212	269.640	12.418752	-57.541168	269.550	-0.160	-0.150	-0.320	269.620	-1.500	0.100																			1580001732.0	7.77	14.39
26/01/2020 01:22:13	26012020	260120	012213	269.550	12.418750	-57.541205	269.490	-0.060	-0.290	-0.370	269.540	-1.600	0.000																			1580001733.0	7.71	14.28
26/01/2020 01:22:14	26012020	260120	012214	269.510	12.418748	-57.541242	269.520	0.060	-0.530	-0.360	269.510	-1.800	0.000																			1580001734.0	7.82	14.48
26/01/2020 01:22:15	26012020	260120	012215	269.560	12.418748	-57.541280	269.660	0.160	-0.690	-0.340	269.590	-2.000	0.000																			1580001735.0	8.03	14.87
26/01/2020 01:22:16	26012020	260120	012216	269.720	12.418748	-57.541318	269.870	0.170	-0.570	-0.250	269.770	-2.100	0.100																			1580001736.0	8.14	15.08
26/01/2020 01:22:17	26012020	260120	012217	269.920	12.418750	-57.541357	270.020	0.070	-0.190	-0.020	269.960	-1.800	0.200																			1580001737.0	8.06	14.93
26/01/2020 01:22:18	26012020	260120	012218	270.050	12.418750	-57.541393	270.030	-0.060	0.250	0.350	270.060	-1.400	0.500																			1580001738.0	7.84	14.52
26/01/2020 01:22:19	26012020	260120	012219	270.050	12.418752	-57.541430	269.920	-0.140	0.470	0.770	270.030	-1.000	0.900																			1580001739.0	7.68	14.22
26/01/2020 01:22:20	26012020	260120	012220	269.900	12.418755	-57.541467	269.690	-0.120	0.390	1.090	269.860	-0.900	1.300																			1580001740.0	7.73	14.32
26/01/2020 01:22:21	26012020	260120	012221	269.670	12.418757	-57.541503	269.480	-0.080	0.150	1.110	269.620	-1.100	1.500																			1580001741.0	7.96	14.74
26/01/2020 01:22:22	26012020	260120	012222	269.470	12.418757	-57.541542	269.340	-0.060	-0.110	0.810	269.440	-1.400	1.400																			1580001742.0	8.09	14.98
26/01/2020 01:22:23	26012020	260120	012223	269.340	12.418755	-57.541580	269.290	-0.020	-0.320	0.290	269.320	-1.600	0.900																			1580001743.0	8.07	14.95
26/01/2020 01:22:24	26012020	260120	012224	269.300	12.418753	-57.541618	269.330	0.070	-0.450	-0.330	269.300	-1.800	0.400																			1580001744.0	7.98	14.78
26/01/2020 01:22:25	26012020	260120	012225	269.360	12.418750	-57.541655	269.440	0.160	-0.480	-0.850	269.380	-1.900	-0.200																			1580001745.0	7.90	14.63
26/01/2020 01:22:26	26012020	260120	012226	269.490	12.418747	-57.541692	269.600	0.190	-0.420	-1.120	269.520	-1.900	-0.700																			1580001746.0	7.84	14.52
26/01/2020 01:22:27	26012020	260120	012227	269.680	12.418745	-57.541728	269.810	0.130	-0.280	-1.060	269.720	-1.700	-0.800																			1580001747.0	7.79	14.43
26/01/2020 01:22:28	26012020	260120	012228	269.870	12.418745	-57.541765	269.930	0.010	-0.150	-0.640	269.900	-1.600	-0.500																			1580001748.0	7.75	14.35
26/01/2020 01:22:29	26012020	260120	012229	269.970	12.418745	-57.541802	269.930	-0.050	-0.050	-0.020	269.980	-1.500	0.000																			1580001749.0	7.77	14.39
26/01/2020 01:22:30	26012020	260120	012230	269.940	12.418748	-57.541840	269.780	-0.030	0.030	0.600	269.910	-1.400	0.700																			1580001750.0	7.87	14.58
26/01/2020 01:22:31	26012020	260120	012231	269.770	12.418752	-57.541877	269.610	-0.010	0.060	1.020	269.730	-1.300	1.200																			1580001751.0	7.95	14.72
26/01/2020 01:22:32	26012020	260120	012232	269.600	12.418753	-57.541913	269.490	-0.040	-0.060	1.080	269.560	-1.400	1.500																			1580001752.0	7.91	14.65
26/01/2020 01:22:33	26012020	260120	012233	269.480	12.418755	-57.541952	269.460	-0.090	-0.310	0.830	269.470	-1.600	1.300																			1580001753.0	7.94	14.70
26/01/2020 01:22:34	26012020	260120	012234	269.470	12.418755	-57.541990	269.570	-0.100	-0.450	0.380	269.480	-1.800	1.000																			1580001754.0	8.04	14.89
26/01/2020 01:22:35	26012020	260120	012235	269.600	12.418752	-57.542028	269.810	-0.100	-0.280	-0.060	269.640	-1.800	0.500																			1580001755.0	8.13	15.06
26/01/2020 01:22:36	26012020	260120	012236	269.840	12.418748	-57.542065	270.030	-0.080	-0.010	-0.290	269.900	-1.500	0.200																			1580001756.0	7.92	14.67
26/01/2020 01:22:37	26012020	260120	012237	270.070	12.418747	-57.542102	270.110	-0.020	0.020	-0.210	270.100	-1.300	0.100																			1580001757.0	7.64	14.15
26/01/2020 01:22:38	26012020	260120	012238	270.120	12.418747	-57.542138	270.090	0.050	-0.160	-0.050	270.120	-1.500	0.200																			1580001758.0	7.73	14.32
26/01/2020 01:22:39	26012020	260120	012239	270.100	12.418747	-57.542177	270.100	0.050	-0.260	-0.020	270.100	-1.600	0.300																			1580001759.0	8.05	14.91
26/01/2020 01:22:40	26012020	260120	012240	270.110	12.418748	-57.542215	270.100	-0.050	-0.150	-0.110	270.110	-1.600	0.300																			1580001760.0	8.10	15.00
26/01/2020 01:22:41	26012020	260120	012241	270.110	12.418748	-57.542252	270.080	-0.150	0.040	-0.190	270.110	-1.400	0.200																			1580001761.0	7.89	14.61
26/01/2020 01:22:42	26012020	260120	012242	270.090	12.418747	-57.542288	270.080	-0.140	0.120	-0.190	270.090	-1.300	0.200																			1580001762.0	7.68	14.22
26/01/2020 01:22:43	26012020	260120	012243	270.080	12.418747	-57.542325	270.080	-0.030	0.010	-0.130	270.080	-1.300	0.200																			1580001763.0	7.69	14.24
26/01/2020 01:22:44	26012020	260120	012244	270.100	12.418747	-57.542362	270.080	0.090	-0.250	-0.050	270.100	-1.500	0.300																			1580001764.0	7.83	14.50
26/01/2020 01:22:45	26012020	260120	012245	270.110	12.418747	-57.542398	270.100	0.150	-0.440	0.100	270.110	-1.800	0.400																			1580001765.0	7.99	14.80
26/01/2020 01:22:46	26012020	260120	012246	270.130	12.418747	-57.542437	270.190	0.130	-0.360	0.310	270.150	-1.800	0.600																			1580001766.0	8.08	14.96
26/01/2020 01:22:47	26012020	260120	012247	270.230	12.418748	-57.542475	270.330	0.090	-0.090	0.470	270.250	-1.600	0.800																			1580001767.0	7.90	14.63
26/01/2020 01:22:48	26012020	260120	012248	270.360	12.418750	-57.542510	270.440	0.090	-0.000	0.480	270.390	-1.400	0.900																			1580001768.0	7.62	14.11
26/01/2020 01:22:49	26012020	260120	012249	270.460	12.418750	-57.542547	270.480	0.120	-0.220	0.320	270.460	-1.500	0.800																			1580001769.0	7.60	14.08
26/01/2020 01:22:50	26012020	260120	012250	270.490	12.418752	-57.542585	270.490	0.130	-0.480	0.060	270.490	-1.800	0.600																			1580001770.0	7.93	14.69
26/01/2020 01:22:51	26012020	260120	012251	270.510	12.418750	-57.542623	270.480	0.050	-0.460	-0.160	270.510	-1.900	0.300																			1580001771.0	8.19	15.17
26/01/2020 01:22:52	26012020	260120	012252	270.510	12.418750	-57.542662	270.450	-0.140	-0.220	-0.240	270.500	-1.800	0.200																			1580001772.0	8.08	14.96
26/01/2020 01:22:53	26012020	260120	012253	270.480	12.418748	-57.542698	270.450	-0.350	0.000	-0.300	270.470	-1.500	0.100																			1580001773.0	7.82	14.48
26/01/2020 01:22:54	26012020	260120	012254	270.490	12.418748	-57.542735	270.480	-0.450	0.090	-0.350	270.490	-1.300	0.000																			1580001774.0	7.74	14.33
26/01/2020 01:22:55	26012020	260120	012255	270.530	12.418748	-57.542772	270.550	-0.380	0.100	-0.390	270.540	-1.300	0.000																			1580001775.0	7.87	14.58
26/01/2020 01:22:56	26012020	260120	012256	270.600	12.418747	-57.542810	270.580	-0.200	0.100	-0.360	270.610	-1.300	-0.000																			1580001776.0	7.97	14.76
26/01/2020 01:22:57	26012020	260120	012257	270.630	12.418747	-57.542847	270.580	-0.010	0.070	-0.190	270.630	-1.300	0.100																			1580001777.0	7.96	14.74
26/01/2020 01:22:58	26012020	260120	012258	270.610	12.418747	-57.542885	270.520	0.150	-0.000	0.150	270.600	-1.400	0.300																			1580001778.0	7.88	14.59
26/01/2020 01:22:59	26012020	260120	012259	270.530	12.418747	-57.542922	270.450	0.260	-0.120	0.550	270.510	-1.400	0.700	1015.20	25.40	25.40	21.70	21.70	-1.00	80.00	79.00	390.00	24.60	70.00	5.60	22.00	5.70	14	3440.00	27.40	27.40	1580001779.0	7.84	14.52
26/01/2020 01:23:00	26012020	260120	012300	270.450	12.418750	-57.542958	270.420	0.300	-0.270	0.870	270.440	-1.600	1.100																			1580001780.0	7.83	14.50
26/01/2020 01:23:01	26012020	260120	012301	270.420	12.418753	-57.542995	270.420	0.310	-0.420	0.960	270.420	-1.700	1.300																			1580001781.0	7.86	14.56
26/01/2020 01:23:02	26012020	260120	012302	270.430	12.418757	-57.543033	270.440	0.290	-0.570	0.760	270.430	-1.900	1.300																			1580001782.0	7.88	14.59
26/01/2020 01:23:03	26012020	260120	012303	270.460	12.418757	-57.543070	270.510	0.240	-0.690	0.310	270.470	-2.000	0.900																			1580001783.0	7.89	14.61
26/01/2020 01:23:04	26012020	260120	012304	270.550	12.418757	-57.543108	270.650	0.100	-0.640	-0.200	270.570	-2.100	0.400																			1580001784.0	8.01	14.83
26/01/2020 01:23:05	26012020	260120	012305	270.720	12.418753	-57.543147	270.860	-0.140	-0.340	-0.620	270.760	-1.900	-0.100																			1580001785.0	8.07	14.95
26/01/2020 01:23:06	26012020	260120	012306	270.930	12.418752	-57.543183	271.000	-0.390	0.160	-0.870	270.970	-1.500	-0.400																			1580001786.0	7.94	14.70
26/01/2020 01:23:07	26012020	260120	012307	271.050	12.418750	-57.543220	270.970	-0.520	0.670	-0.900	271.050	-1.000	-0.500																			1580001787.0	7.76	14.37
26/01/2020 01:23:08	26012020	260120	012308	270.990	12.418748	-57.543257	270.800	-0.480	0.870	-0.760	270.960	-0.600	-0.500																			1580001788.0	7.62	14.11
26/01/2020 01:23:09	26012020	260120	012309	270.790	12.418748	-57.543292	270.520	-0.240	0.520	-0.440	270.730	-0.600	-0.300																			1580001789.0	7.60	14.08
26/01/2020 01:23:10	26012020	260120	012310	270.500	12.418748	-57.543330	270.250	0.100	-0.260	-0.010	270.440	-1.300	0.100																			1580001790.0	7.90	14.63
26/01/2020 01:23:11	26012020	260120	012311	270.230	12.418750	-57.543368	270.120	0.380	-0.930	0.480	270.190	-2.000	0.600																			1580001791.0	8.31	15.39
26/01/2020 01:23:12	26012020	260120	012312	270.130	12.418753	-57.543408	270.250	0.440	-1.120	0.820	270.140	-2.500	1.000																			1580001792.0	8.43	15.61
26/01/2020 01:23:13	26012020	260120	012313	270.300	12.418757	-57.543447	270.570	0.300	-0.870	0.900	270.360	-2.400	1.300																			1580001793.0	8.13	15.06
26/01/2020 01:23:14	26012020	260120	012314	270.620	12.418760	-57.543483	270.790	0.060	-0.430	0.800	270.680	-2.000	1.200																			1580001794.0	7.72	14.30
26/01/2020 01:23:15	26012020	260120	012315	270.800	12.418762	-57.543518	270.760	-0.160	0.010	0.670	270.800	-1.600	1.100																			1580001795.0	7.56	14.00
26/01/2020 01:23:16	26012020	260120	012316	270.730	12.418762	-57.543555	270.600	-0.290	0.380	0.460	270.700	-1.200	0.900																			1580001796.0	7.65	14.17
26/01/2020 01:23:17	26012020	260120	012317	270.570	12.418760	-57.543592	270.460	-0.330	0.630	0.120	270.550	-0.900	0.700																			1580001797.0	7.79	14.43
26/01/2020 01:23:18	26012020	260120	012318	270.430	12.418757	-57.543628	270.310	-0.280	0.600	-0.180	270.400	-0.700	0.300																			1580001798.0	7.83	14.50
26/01/2020 01:23:19	26012020	260120	012319	270.270	12.418755	-57.543667	270.110	-0.080	0.170	-0.300	270.230	-1.000	0.100																			1580001799.0	7.84	14.52
26/01/2020 01:23:20	26012020	260120	012320	270.090	12.418753	-57.543703	269.950	0.230	-0.480	-0.260	270.060	-1.600	0.100																			1580001800.0	8.01	14.83
26/01/2020 01:23:21	26012020	260120	012321	269.940	12.418753	-57.543743	269.840	0.490	-0.890	-0.130	269.910	-2.100	0.200																			1580001801.0	8.28	15.33
26/01/2020 01:23:22	26012020	260120	012322	269.870	12.418755	-57.543782	269.900	0.550	-0.830	-0.010	269.870	-2.300	0.300																			1580001802.0	8.29	15.35
26/01/2020 01:23:23	26012020	260120	012323	269.960	12.418757	-57.543820	270.140	0.420	-0.460	0.040	270.000	-2.100	0.400																			1580001803.0	7.95	14.72
26/01/2020 01:23:24	26012020	260120	012324	270.220	12.418760	-57.543855	270.410	0.140	-0.110	0.080	270.280	-1.700	0.400																			1580001804.0	7.60	14.08
26/01/2020 01:23:25	26012020	260120	012325	270.460	12.418762	-57.543892	270.510	-0.230	0.110	0.180	270.490	-1.400	0.500																			1580001805.0	7.57	14.02
26/01/2020 01:23:26	26012020	260120	012326	270.500	12.418763	-57.543928	270.370	-0.570	0.310	0.280	270.500	-1.200	0.600																			1580001806.0	7.74	14.33
26/01/2020 01:23:27	26012020	260120	012327	270.330	12.418763	-57.543965	270.020	-0.700	0.480	0.360	270.250	-1.000	0.700																			1580001807.0	7.81	14.46
26/01/2020 01:23:28	26012020	260120	012328	269.950	12.418760	-57.544002	269.710	-0.520	0.330	0.340	269.890	-0.900	0.700																			1580001808.0	7.72	14.30
26/01/2020 01:23:29	26012020	260120	012329	269.690	12.418758	-57.544038	269.640	-0.110	-0.280	0.190	269.670	-1.300	0.600																			1580001809.0	7.76	14.37
26/01/2020 01:23:30	26012020	260120	012330	269.660	12.418757	-57.544077	269.770	0.340	-0.950	0.080	269.680	-2.000	0.500																			1580001810.0	8.14	15.08
26/01/2020 01:23:31	26012020	260120	012331	269.810	12.418755	-57.544117	269.960	0.610	-1.130	0.150	269.850	-2.500	0.500																			1580001811.0	8.47	15.69
26/01/2020 01:23:32	26012020	260120	012332	270.010	12.418757	-57.544157	270.140	0.600	-0.630	0.350	270.050	-2.300	0.600																			1580001812.0	8.35	15.46
26/01/2020 01:23:33	26012020	260120	012333	270.170	12.418760	-57.544193	270.220	0.340	0.180	0.490	270.190	-1.600	0.800																			1580001813.0	7.82	14.48
26/01/2020 01:23:34	26012020	260120	012334	270.230	12.418762	-57.544228	270.190	-0.030	0.670	0.440	270.230	-0.900	0.900																			1580001814.0	7.35	13.61
26/01/2020 01:23:35	26012020	260120	012335	270.180	12.418763	-57.544262	270.010	-0.270	0.580	0.260	270.140	-0.700	0.700																			1580001815.0	7.34	13.59
26/01/2020 01:23:36	26012020	260120	012336	269.990	12.418763	-57.544298	269.780	-0.330	0.100	0.030	269.950	-1.100	0.500																			1580001816.0	7.77	14.39
26/01/2020 01:23:37	26012020	260120	012337	269.770	12.418762	-57.544338	269.630	-0.280	-0.370	-0.230	269.730	-1.600	0.300																			1580001817.0	8.22	15.22
26/01/2020 01:23:38	26012020	260120	012338	269.660	12.418760	-57.544377	269.650	-0.200	-0.570	-0.510	269.650	-1.900	0.000																			1580001818.0	8.32	15.41
26/01/2020 01:23:39	26012020	260120	012339	269.710	12.418757	-57.544415	269.830	-0.110	-0.520	-0.770	269.740	-2.000	-0.300																			1580001819.0	8.10	15.00
26/01/2020 01:23:40	26012020	260120	012340	269.930	12.418753	-57.544452	270.090	0.020	-0.300	-0.780	269.990	-1.800	-0.400																			1580001820.0	7.83	14.50
26/01/2020 01:23:41	26012020	260120	012341	270.170	12.418753	-57.544488	270.160	0.170	-0.010	-0.420	270.190	-1.600	-0.300																			1580001821.0	7.69	14.24
26/01/2020 01:23:42	26012020	260120	012342	270.190	12.418753	-57.544525	269.980	0.300	0.200	0.250	270.170	-1.300	0.300																			1580001822.0	7.64	14.15
26/01/2020 01:23:43	26012020	260120	012343	269.960	12.418758	-57.544562	269.670	0.320	0.130	0.920	269.900	-1.200	1.000																			1580001823.0	7.68	14.22
26/01/2020 01:23:44	26012020	260120	012344	269.640	12.418762	-57.544598	269.480	0.240	-0.180	1.250	269.600	-1.400	1.500																			1580001824.0	7.87	14.58
26/01/2020 01:23:45	26012020	260120	012345	269.460	12.418765	-57.544637	269.470	0.090	-0.460	1.090	269.450	-1.700	1.600																			1580001825.0	8.10	15.00
26/01/2020 01:23:46	26012020	260120	012346	269.500	12.418767	-57.544675	269.680	-0.030	-0.590	0.520	269.540	-1.900	1.200																			1580001826.0	8.11	15.02
26/01/2020 01:23:47	26012020	260120	012347	269.740	12.418765	-57.544712	269.960	-0.070	-0.570	-0.160	269.800	-2.000	0.500																			1580001827.0	7.97	14.76
26/01/2020 01:23:48	26012020	260120	012348	270.020	12.418762	-57.544750	270.180	-0.080	-0.410	-0.670	270.070	-1.900	-0.100																			1580001828.0	7.91	14.65
26/01/2020 01:23:49	26012020	260120	012349	270.230	12.418758	-57.544787	270.310	-0.170	-0.150	-0.860	270.270	-1.700	-0.400																			1580001829.0	7.91	14.65
26/01/2020 01:23:50	26012020	260120	012350	270.340	12.418755	-57.544823	270.280	-0.340	0.160	-0.720	270.340	-1.400	-0.500																			1580001830.0	7.86	14.56
26/01/2020 01:23:51	26012020	260120	012351	270.280	12.418755	-57.544860	270.120	-0.430	0.410	-0.430	270.250	-1.100	-0.200																			1580001831.0	7.80	14.45
26/01/2020 01:23:52	26012020	260120	012352	270.050	12.418757	-57.544897	269.870	-0.330	0.470	-0.110	270.050	-0.900	0.100																			1580001832.0	7.77	14.39
26/01/2020 01:23:53	26012020	260120	012353	269.830	12.418757	-57.544935	269.560	-0.060	0.270	0.260	269.770	-1.000	0.400																			1580001833.0	7.79	14.43
26/01/2020 01:23:54	26012020	260120	012354	269.470	12.418758	-57.544972	269.290	0.220	-0.080	0.610	269.470	-1.300	0.800																			1580001834.0	7.91	14.65
26/01/2020 01:23:55	26012020	260120	012355	269.270	12.418758	-57.545010	269.190	0.410	-0.430	0.820	269.240	-1.700	1.100																			1580001835.0	8.03	14.87
26/01/2020 01:23:56	26012020	260120	012356	269.190	12.418762	-57.545048	269.290	0.500	-0.680	0.850	269.210	-2.000	1.200																			1580001836.0	8.02	14.85
26/01/2020 01:23:57	26012020	260120	012357	269.320	12.418763	-57.545085	269.540	0.490	-0.750	0.600	269.370	-2.100	1.100																			1580001837.0	7.95	14.72
26/01/2020 01:23:58	26012020	260120	012358	269.680	12.418765	-57.545122	269.890	0.350	-0.600	0.170	269.680	-2.100	0.800																			1580001838.0	7.87	14.58
26/01/2020 01:23:59	26012020	260120	012359	269.980	12.418763	-57.545158	270.220	0.080	-0.300	-0.210	270.050	-1.900	0.300	1015.20	25.40	25.40	21.70	21.70	-1.00	80.00	79.00	390.00	24.60	77.00	5.10	31.00	5.70	14	3408.00	27.40	27.40	1580001839.0	7.76	14.37
26/01/2020 01:24:00	26012020	260120	012400	270.280	12.418762	-57.545195	270.330	-0.240	-0.010	-0.380	270.320	-1.500	0.000																			1580001840.0	7.67	14.20
26/01/2020 01:24:01	26012020	260120	012401	270.350	12.418760	-57.545232	270.140	-0.450	0.190	-0.270	270.330	-1.300	0.000																			1580001841.0	7.70	14.26
26/01/2020 01:24:02	26012020	260120	012402	270.120	12.418758	-57.545268	269.760	-0.470	0.300	-0.040	270.050	-1.100	0.200																			1580001842.0	7.82	14.48
26/01/2020 01:24:03	26012020	260120	012403	269.720	12.418758	-57.545307	269.350	-0.330	0.290	0.170	269.640	-1.100	0.400																			1580001843.0	7.89	14.61
26/01/2020 01:24:04	26012020	260120	012404	269.320	12.418758	-57.545343	269.030	-0.110	0.060	0.240	269.250	-1.200	0.600																			1580001844.0	7.90	14.63
26/01/2020 01:24:05	26012020	260120	012405	269.020	12.418758	-57.545382	268.910	0.090	-0.330	0.210	268.990	-1.500	0.600																			1580001845.0	7.96	14.74
26/01/2020 01:24:06	26012020	260120	012406	268.950	12.418758	-57.545418	269.070	0.200	-0.610	0.080	268.960	-1.900	0.500																			1580001846.0	8.08	14.96
26/01/2020 01:24:07	26012020	260120	012407	269.140	12.418758	-57.545457	269.450	0.190	-0.610	-0.080	269.210	-2.000	0.300																			1580001847.0	8.09	14.98
26/01/2020 01:24:08	26012020	260120	012408	269.550	12.418758	-57.545495	269.870	0.080	-0.370	-0.130	269.640	-1.900	0.200																			1580001848.0	7.90	14.63
26/01/2020 01:24:09	26012020	260120	012409	269.960	12.418758	-57.545532	270.160	-0.020	-0.100	-0.020	270.030	-1.600	0.300																			1580001849.0	7.68	14.22
26/01/2020 01:24:10	26012020	260120	012410	270.200	12.418758	-57.545567	270.210	-0.010	0.020	0.210	270.220	-1.400	0.400																			1580001850.0	7.61	14.09
26/01/2020 01:24:11	26012020	260120	012411	270.190	12.418758	-57.545603	270.010	0.060	0.040	0.490	270.160	-1.400	0.700																			1580001851.0	7.76	14.37
26/01/2020 01:24:12	26012020	260120	012412	269.960	12.418760	-57.545642	269.660	0.080	0.100	0.700	269.900	-1.300	1.000																			1580001852.0	7.94	14.70
26/01/2020 01:24:13	26012020	260120	012413	269.610	12.418760	-57.545678	269.280	-0.000	0.170	0.720	269.530	-1.300	1.100																			1580001853.0	7.94	14.70
26/01/2020 01:24:14	26012020	260120	012414	269.240	12.418760	-57.545715	269.000	-0.090	0.100	0.490	269.170	-1.200	1.000																			1580001854.0	7.77	14.39
26/01/2020 01:24:15	26012020	260120	012415	269.000	12.418760	-57.545752	268.930	-0.070	-0.160	0.100	268.970	-1.400	0.700																			1580001855.0	7.72	14.30
26/01/2020 01:24:16	26012020	260120	012416	268.970	12.418758	-57.545790	269.120	0.040	-0.450	-0.300	269.000	-1.700	0.200																			1580001856.0	7.84	14.52
26/01/2020 01:24:17	26012020	260120	012417	269.190	12.418757	-57.545827	269.450	0.140	-0.600	-0.550	269.260	-2.000	-0.100																			1580001857.0	7.95	14.72
26/01/2020 01:24:18	26012020	260120	012418	269.550	12.418755	-57.545865	269.790	0.150	-0.550	-0.670	269.620	-2.000	-0.300																			1580001858.0	7.94	14.70
26/01/2020 01:24:19	26012020	260120	012419	269.870	12.418755	-57.545902	270.010	0.070	-0.330	-0.670	269.920	-1.900	-0.300																			1580001859.0	7.84	14.52
26/01/2020 01:24:20	26012020	260120	012420	270.060	12.418755	-57.545938	270.060	-0.060	-0.080	-0.520	270.070	-1.600	-0.300																			1580001860.0	7.73	14.32
26/01/2020 01:24:21	26012020	260120	012421	270.080	12.418755	-57.545975	269.970	-0.150	0.070	-0.170	270.060	-1.400	-0.000																			1580001861.0	7.70	14.26
26/01/2020 01:24:22	26012020	260120	012422	269.950	12.418755	-57.546012	269.730	-0.160	0.100	0.310	269.910	-1.300	0.400																			1580001862.0	7.76	14.37
26/01/2020 01:24:23	26012020	260120	012423	269.700	12.418757	-57.546048	269.460	-0.120	0.060	0.810	269.640	-1.300	0.900																			1580001863.0	7.87	14.58
26/01/2020 01:24:24	26012020	260120	012424	269.430	12.418758	-57.546085	269.280	-0.100	-0.070	1.130	269.380	-1.400	1.400																			1580001864.0	7.91	14.65
26/01/2020 01:24:25	26012020	260120	012425	269.250	12.418760	-57.546123	269.200	-0.090	-0.270	1.150	269.230	-1.600	1.500																			1580001865.0	7.91	14.65
26/01/2020 01:24:26	26012020	260120	012426	269.190	12.418760	-57.546160	269.220	-0.060	-0.380	0.900	269.190	-1.700	1.400																			1580001866.0	7.96	14.74
26/01/2020 01:24:27	26012020	260120	012427	269.240	12.418760	-57.546198	269.390	-0.020	-0.320	0.500	269.270	-1.800	1.100																			1580001867.0	7.96	14.74
26/01/2020 01:24:28	26012020	260120	012428	269.420	12.418758	-57.546235	269.620	0.050	-0.160	0.080	269.470	-1.600	0.600																			1580001868.0	7.84	14.52
26/01/2020 01:24:29	26012020	260120	012429	269.680	12.418757	-57.546272	269.850	0.130	-0.010	-0.310	269.730	-1.500	0.200																			1580001869.0	7.73	14.32
26/01/2020 01:24:30	26012020	260120	012430	269.920	12.418755	-57.546308	270.030	0.180	0.060	-0.610	269.960	-1.400	-0.100																			1580001870.0	7.72	14.30
26/01/2020 01:24:31	26012020	260120	012431	270.070	12.418753	-57.546345	270.030	0.160	0.010	-0.700	270.080	-1.400	-0.300																			1580001871.0	7.79	14.43
26/01/2020 01:24:32	26012020	260120	012432	270.030	12.418752	-57.546382	269.820	0.070	-0.090	-0.460	270.000	-1.400	-0.300																			1580001872.0	7.86	14.56
26/01/2020 01:24:33	26012020	260120	012433	269.780	12.418752	-57.546420	269.480	-0.020	-0.240	-0.030	269.720	-1.600	0.100																			1580001873.0	7.87	14.58
26/01/2020 01:24:34	26012020	260120	012434	269.450	12.418753	-57.546457	269.230	-0.080	-0.390	0.280	269.390	-1.700	0.500																			1580001874.0	7.86	14.56
26/01/2020 01:24:35	26012020	260120	012435	269.230	12.418755	-57.546495	269.220	-0.080	-0.440	0.390	269.210	-1.800	0.700																			1580001875.0	7.90	14.63
26/01/2020 01:24:36	26012020	260120	012436	269.240	12.418757	-57.546532	269.380	-0.010	-0.320	0.360	269.270	-1.800	0.700																			1580001876.0	7.88	14.59
26/01/2020 01:24:37	26012020	260120	012437	269.430	12.418757	-57.546568	269.620	0.090	-0.110	0.360	269.480	-1.600	0.700																			1580001877.0	7.80	14.45
26/01/2020 01:24:38	26012020	260120	012438	269.670	12.418757	-57.546605	269.810	0.120	0.030	0.420	269.710	-1.400	0.700																			1580001878.0	7.70	14.26
26/01/2020 01:24:39	26012020	260120	012439	269.850	12.418757	-57.546642	269.880	0.030	0.050	0.460	269.860	-1.400	0.800																			1580001879.0	7.73	14.32
26/01/2020 01:24:40	26012020	260120	012440	269.880	12.418758	-57.546678	269.840	-0.170	0.010	0.420	269.880	-1.400	0.800																			1580001880.0	7.85	14.54
26/01/2020 01:24:41	26012020	260120	012441	269.810	12.418758	-57.546715	269.730	-0.320	-0.090	0.240	269.790	-1.400	0.700																			1580001881.0	7.89	14.61
26/01/2020 01:24:42	26012020	260120	012442	269.720	12.418757	-57.546753	269.680	-0.320	-0.240	-0.030	269.710	-1.600	0.500																			1580001882.0	7.91	14.65
26/01/2020 01:24:43	26012020	260120	012443	269.670	12.418753	-57.546790	269.630	-0.140	-0.390	-0.260	269.660	-1.700	0.200																			1580001883.0	7.93	14.69
26/01/2020 01:24:44	26012020	260120	012444	269.630	12.418752	-57.546828	269.630	0.100	-0.470	-0.350	269.630	-1.900	0.000																			1580001884.0	7.96	14.74
26/01/2020 01:24:45	26012020	260120	012445	269.620	12.418750	-57.546867	269.650	0.230	-0.360	-0.290	269.630	-1.800	0.000																			1580001885.0	7.98	14.78
26/01/2020 01:24:46	26012020	260120	012446	269.660	12.418750	-57.546903	269.690	0.220	-0.100	-0.120	269.670	-1.600	0.100																			1580001886.0	7.88	14.59
26/01/2020 01:24:47	26012020	260120	012447	269.720	12.418752	-57.546940	269.720	0.140	0.190	0.140	269.730	-1.300	0.400																			1580001887.0	7.74	14.33
26/01/2020 01:24:48	26012020	260120	012448	269.740	12.418753	-57.546977	269.700	0.050	0.320	0.460	269.730	-1.100	0.700																			1580001888.0	7.66	14.19
26/01/2020 01:24:49	26012020	260120	012449	269.700	12.418757	-57.547012	269.620	-0.020	0.200	0.690	269.680	-1.100	1.000																			1580001889.0	7.70	14.26
26/01/2020 01:24:50	26012020	260120	012450	269.620	12.418758	-57.547050	269.560	-0.070	-0.030	0.710	269.610	-1.300	1.100																			1580001890.0	7.86	14.56
26/01/2020 01:24:51	26012020	260120	012451	269.570	12.418758	-57.547087	269.540	-0.110	-0.230	0.530	269.560	-1.600	1.000																			1580001891.0	7.98	14.78
26/01/2020 01:24:52	26012020	260120	012452	269.560	12.418757	-57.547125	269.560	-0.100	-0.370	0.200	269.560	-1.700	0.700																			1580001892.0	7.95	14.72
26/01/2020 01:24:53	26012020	260120	012453	269.600	12.418755	-57.547162	269.680	-0.020	-0.550	-0.210	269.610	-1.900	0.400																			1580001893.0	7.83	14.50
26/01/2020 01:24:54	26012020	260120	012454	269.720	12.418753	-57.547198	269.850	0.120	-0.740	-0.540	269.750	-2.100	-0.000																			1580001894.0	7.83	14.50
26/01/2020 01:24:55	26012020	260120	012455	269.890	12.418752	-57.547237	269.990	0.210	-0.740	-0.630	269.920	-2.200	-0.300																			1580001895.0	7.97	14.76
26/01/2020 01:24:56	26012020	260120	012456	270.010	12.418750	-57.547275	270.040	0.130	-0.430	-0.480	270.020	-2.000	-0.200																			1580001896.0	8.01	14.83
26/01/2020 01:24:57	26012020	260120	012457	270.040	12.418750	-57.547312	270.030	-0.100	0.130	-0.140	270.040	-1.600	0.000																			1580001897.0	7.88	14.59
26/01/2020 01:24:58	26012020	260120	012458	270.010	12.418752	-57.547348	269.930	-0.340	0.690	0.250	270.000	-1.000	0.400																			1580001898.0	7.69	14.24
26/01/2020 01:24:59	26012020	260120	012459	269.900	12.418755	-57.547383	269.740	-0.400	0.910	0.590	269.860	-0.500	0.800	1015.20	25.30	25.40	21.60	21.60	-1.00	79.00	79.00	390.00	24.60	68.00	4.90	26.00	5.00	14	3515.00	27.40	27.40	1580001899.0	7.54	13.96
26/01/2020 01:25:00	26012020	260120	012500	269.710	12.418757	-57.547420	269.550	-0.220	0.580	0.750	269.660	-0.600	1.100																			1580001900.0	7.60	14.08
26/01/2020 01:25:01	26012020	260120	012501	269.520	12.418757	-57.547457	269.460	0.080	-0.190	0.640	269.490	-1.200	1.100																			1580001901.0	7.88	14.59
26/01/2020 01:25:02	26012020	260120	012502	269.450	12.418757	-57.547495	269.510	0.290	-0.970	0.290	269.450	-2.000	0.800																			1580001902.0	8.24	15.26
26/01/2020 01:25:03	26012020	260120	012503	269.530	12.418755	-57.547535	269.680	0.300	-1.260	-0.040	269.570	-2.600	0.500																			1580001903.0	8.43	15.61
26/01/2020 01:25:04	26012020	260120	012504	269.710	12.418753	-57.547575	269.820	0.170	-0.870	-0.170	269.740	-2.500	0.200																			1580001904.0	8.21	15.20
26/01/2020 01:25:05	26012020	260120	012505	269.850	12.418752	-57.547610	269.910	0.050	-0.150	-0.120	269.880	-1.900	0.200																			1580001905.0	7.69	14.24
26/01/2020 01:25:06	26012020	260120	012506	269.940	12.418752	-57.547645	269.950	-0.000	0.360	-0.010	269.950	-1.200	0.300																			1580001906.0	7.31	13.54
26/01/2020 01:25:07	26012020	260120	012507	269.960	12.418753	-57.547680	269.940	0.020	0.370	0.080	269.960	-1.000	0.400																			1580001907.0	7.35	13.61
26/01/2020 01:25:08	26012020	260120	012508	269.950	12.418755	-57.547717	269.900	0.030	0.090	0.150	269.950	-1.200	0.500																			1580001908.0	7.78	14.41
26/01/2020 01:25:09	26012020	260120	012509	269.900	12.418755	-57.547755	269.810	-0.050	-0.140	0.210	269.890	-1.500	0.500																			1580001909.0	8.19	15.17
26/01/2020 01:25:10	26012020	260120	012510	269.810	12.418755	-57.547795	269.730	-0.230	-0.180	0.220	269.790	-1.600	0.600																			1580001910.0	8.23	15.24
26/01/2020 01:25:11	26012020	260120	012511	269.730	12.418755	-57.547832	269.710	-0.360	-0.100	0.140	269.720	-1.600	0.600																			1580001911.0	8.00	14.82
26/01/2020 01:25:12	26012020	260120	012512	269.720	12.418755	-57.547868	269.800	-0.300	-0.020	-0.080	269.730	-1.500	0.400																			1580001912.0	7.77	14.39
26/01/2020 01:25:13	26012020	260120	012513	269.810	12.418753	-57.547905	269.860	-0.060	-0.030	-0.250	269.830	-1.400	0.200																			1580001913.0	7.70	14.26
26/01/2020 01:25:14	26012020	260120	012514	269.860	12.418752	-57.547942	269.790	0.220	-0.150	-0.210	269.850	-1.500	0.100																			1580001914.0	7.73	14.32
26/01/2020 01:25:15	26012020	260120	012515	269.770	12.418752	-57.547978	269.650	0.380	-0.400	0.050	269.740	-1.700	0.300																			1580001915.0	7.82	14.48
26/01/2020 01:25:16	26012020	260120	012516	269.590	12.418752	-57.548017	269.580	0.380	-0.600	0.310	269.590	-1.900	0.600																			1580001916.0	7.95	14.72
26/01/2020 01:25:17	26012020	260120	012517	269.560	12.418753	-57.548055	269.680	0.230	-0.550	0.430	269.570	-2.000	0.800																			1580001917.0	8.05	14.91
26/01/2020 01:25:18	26012020	260120	012518	269.690	12.418757	-57.548092	269.890	0.030	-0.200	0.400	269.730	-1.800	0.800																			1580001918.0	7.98	14.78
26/01/2020 01:25:19	26012020	260120	012519	269.900	12.418758	-57.548128	269.990	-0.120	0.190	0.360	269.930	-1.400	0.700																			1580001919.0	7.73	14.32
26/01/2020 01:25:20	26012020	260120	012520	269.960	12.418758	-57.548165	269.850	-0.150	0.310	0.360	269.950	-1.100	0.700																			1580001920.0	7.54	13.96
26/01/2020 01:25:21	26012020	260120	012521	269.810	12.418758	-57.548200	269.630	-0.120	0.120	0.310	269.780	-1.200	0.700																			1580001921.0	7.69	14.24
26/01/2020 01:25:22	26012020	260120	012522	269.620	12.418757	-57.548238	269.500	-0.100	-0.180	0.160	269.580	-1.400	0.600																			1580001922.0	7.98	14.78
26/01/2020 01:25:23	26012020	260120	012523	269.520	12.418755	-57.548277	269.490	-0.060	-0.380	-0.060	269.510	-1.700	0.400																			1580001923.0	8.13	15.06
26/01/2020 01:25:24	26012020	260120	012524	269.520	12.418755	-57.548315	269.550	0.020	-0.430	-0.260	269.530	-1.800	0.200																			1580001924.0	8.08	14.96
26/01/2020 01:25:25	26012020	260120	012525	269.600	12.418753	-57.548353	269.650	0.070	-0.320	-0.320	269.610	-1.800	0.100																			1580001925.0	7.95	14.72
26/01/2020 01:25:26	26012020	260120	012526	269.690	12.418753	-57.548390	269.720	0.030	-0.100	-0.200	269.710	-1.600	0.100																			1580001926.0	7.83	14.50
26/01/2020 01:25:27	26012020	260120	012527	269.740	12.418753	-57.548427	269.700	-0.070	0.110	0.040	269.740	-1.400	0.300																			1580001927.0	7.73	14.32
26/01/2020 01:25:28	26012020	260120	012528	269.680	12.418755	-57.548462	269.580	-0.150	0.160	0.270	269.680	-1.200	0.500																			1580001928.0	7.65	14.17
26/01/2020 01:25:29	26012020	260120	012529	269.570	12.418757	-57.548498	269.460	-0.140	-0.020	0.420	269.540	-1.300	0.700																			1580001929.0	7.69	14.24
26/01/2020 01:25:30	26012020	260120	012530	269.450	12.418757	-57.548537	269.400	0.010	-0.320	0.450	269.440	-1.600	0.800																			1580001930.0	7.87	14.58
26/01/2020 01:25:31	26012020	260120	012531	269.410	12.418755	-57.548573	269.440	0.220	-0.510	0.450	269.410	-1.900	0.800																			1580001931.0	8.06	14.93
26/01/2020 01:25:32	26012020	260120	012532	269.440	12.418755	-57.548612	269.510	0.370	-0.450	0.450	269.450	-1.900	0.800																			1580001932.0	8.10	15.00
26/01/2020 01:25:33	26012020	260120	012533	269.520	12.418757	-57.548650	269.600	0.360	-0.230	0.390	269.540	-1.800	0.800																			1580001933.0	7.95	14.72
26/01/2020 01:25:34	26012020	260120	012534	269.620	12.418757	-57.548687	269.700	0.170	-0.040	0.230	269.640	-1.500	0.700																			1580001934.0	7.75	14.35
26/01/2020 01:25:35	26012020	260120	012535	269.720	12.418758	-57.548723	269.750	-0.060	-0.030	-0.010	269.730	-1.400	0.500																			1580001935.0	7.69	14.24
26/01/2020 01:25:36	26012020	260120	012536	269.780	12.418758	-57.548760	269.770	-0.250	-0.070	-0.260	269.790	-1.500	0.200																			1580001936.0	7.85	14.54
26/01/2020 01:25:37	26012020	260120	012537	269.790	12.418757	-57.548798	269.720	-0.330	-0.040	-0.410	269.780	-1.500	0.000																			1580001937.0	8.00	14.82
26/01/2020 01:25:38	26012020	260120	012538	269.730	12.418753	-57.548835	269.610	-0.290	0.050	-0.340	269.710	-1.400	-0.000																			1580001938.0	7.96	14.74
26/01/2020 01:25:39	26012020	260120	012539	269.600	12.418752	-57.548872	269.480	-0.130	0.050	-0.110	269.570	-1.300	0.100																			1580001939.0	7.80	14.45
26/01/2020 01:25:40	26012020	260120	012540	269.470	12.418752	-57.548908	269.420	0.090	-0.140	0.080	269.460	-1.400	0.400																			1580001940.0	7.74	14.33
26/01/2020 01:25:41	26012020	260120	012541	269.430	12.418753	-57.548947	269.420	0.270	-0.360	0.220	269.430	-1.700	0.500																			1580001941.0	7.89	14.61
26/01/2020 01:25:42	26012020	260120	012542	269.450	12.418753	-57.548985	269.480	0.300	-0.380	0.340	269.460	-1.800	0.600																			1580001942.0	8.05	14.91
26/01/2020 01:25:43	26012020	260120	012543	269.500	12.418755	-57.549022	269.530	0.190	-0.210	0.480	269.510	-1.700	0.800																			1580001943.0	7.98	14.78
26/01/2020 01:25:44	26012020	260120	012544	269.530	12.418757	-57.549058	269.570	0.050	-0.100	0.560	269.550	-1.500	0.900																			1580001944.0	7.75	14.35
26/01/2020 01:25:45	26012020	260120	012545	269.580	12.418758	-57.549095	269.630	-0.040	-0.200	0.500	269.600	-1.500	0.900																			1580001945.0	7.67	14.20
26/01/2020 01:25:46	26012020	260120	012546	269.640	12.418758	-57.549132	269.670	-0.100	-0.360	0.260	269.660	-1.700	0.800																			1580001946.0	7.86	14.56
26/01/2020 01:25:47	26012020	260120	012547	269.700	12.418758	-57.549170	269.700	-0.170	-0.410	-0.060	269.710	-1.800	0.500																			1580001947.0	8.05	14.91
26/01/2020 01:25:48	26012020	260120	012548	269.740	12.418757	-57.549208	269.730	-0.240	-0.330	-0.370	269.740	-1.800	0.100																			1580001948.0	8.06	14.93
26/01/2020 01:25:49	26012020	260120	012549	269.780	12.418753	-57.549247	269.830	-0.220	-0.140	-0.620	269.790	-1.700	-0.100																			1580001949.0	7.97	14.76
26/01/2020 01:25:50	26012020	260120	012550	269.890	12.418750	-57.549283	269.930	-0.100	0.120	-0.620	269.910	-1.400	-0.300																			1580001950.0	7.91	14.65
26/01/2020 01:25:51	26012020	260120	012551	269.980	12.418748	-57.549320	269.910	0.100	0.320	-0.250	269.980	-1.200	-0.100																			1580001951.0	7.83	14.50
26/01/2020 01:25:52	26012020	260120	012552	269.920	12.418750	-57.549357	269.730	0.270	0.320	0.330	269.880	-1.100	0.400																			1580001952.0	7.79	14.43
26/01/2020 01:25:53	26012020	260120	012553	269.700	12.418755	-57.549393	269.510	0.310	0.100	0.790	269.650	-1.200	1.000																			1580001953.0	7.87	14.58
26/01/2020 01:25:54	26012020	260120	012554	269.470	12.418758	-57.549432	269.370	0.180	-0.220	0.920	269.440	-1.500	1.300																			1580001954.0	8.01	14.83
26/01/2020 01:25:55	26012020	260120	012555	269.350	12.418762	-57.549470	269.350	-0.030	-0.460	0.730	269.340	-1.800	1.200																			1580001955.0	8.05	14.91
26/01/2020 01:25:56	26012020	260120	012556	269.350	12.418762	-57.549507	269.450	-0.210	-0.510	0.290	269.360	-1.900	0.900																			1580001956.0	7.98	14.78
26/01/2020 01:25:57	26012020	260120	012557	269.470	12.418758	-57.549545	269.620	-0.290	-0.430	-0.210	269.500	-1.900	0.400																			1580001957.0	7.82	14.48
26/01/2020 01:25:58	26012020	260120	012558	269.660	12.418755	-57.549580	269.780	-0.240	-0.390	-0.620	269.690	-1.800	-0.100																			1580001958.0	7.71	14.28
26/01/2020 01:25:59	26012020	260120	012559	269.820	12.418752	-57.549617	269.880	-0.070	-0.360	-0.780	269.840	-1.800	-0.400	1015.20	25.30	25.40	21.50	21.50	-1.00	79.00	79.00	390.00	24.60	72.00	4.90	28.00	5.30	14	3479.00	27.40	27.40	1580001959.0	7.77	14.39
26/01/2020 01:26:00	26012020	260120	012600	269.910	12.418748	-57.549655	269.910	0.150	-0.190	-0.600	269.920	-1.700	-0.400																			1580001960.0	7.94	14.70
26/01/2020 01:26:01	26012020	260120	012601	269.940	12.418748	-57.549692	269.890	0.310	0.040	-0.170	269.940	-1.500	-0.000																			1580001961.0	7.96	14.74
26/01/2020 01:26:02	26012020	260120	012602	269.870	12.418752	-57.549730	269.790	0.300	0.100	0.380	269.870	-1.300	0.500																			1580001962.0	7.86	14.56
26/01/2020 01:26:03	26012020	260120	012603	269.780	12.418755	-57.549767	269.710	0.160	-0.040	0.780	269.750	-1.400	1.000																			1580001963.0	7.91	14.65
26/01/2020 01:26:04	26012020	260120	012604	269.690	12.418760	-57.549805	269.710	-0.050	-0.180	0.900	269.690	-1.500	1.200																			1580001964.0	8.10	15.00
26/01/2020 01:26:05	26012020	260120	012605	269.690	12.418762	-57.549843	269.690	-0.220	-0.160	0.780	269.690	-1.600	1.200																			1580001965.0	8.12	15.04
26/01/2020 01:26:06	26012020	260120	012606	269.670	12.418762	-57.549880	269.640	-0.320	-0.070	0.480	269.660	-1.500	1.000																			1580001966.0	7.94	14.70
26/01/2020 01:26:07	26012020	260120	012607	269.620	12.418760	-57.549917	269.580	-0.350	-0.040	0.070	269.610	-1.400	0.700																			1580001967.0	7.79	14.43
26/01/2020 01:26:08	26012020	260120	012608	269.560	12.418757	-57.549953	269.560	-0.330	-0.130	-0.320	269.560	-1.500	0.200																			1580001968.0	7.80	14.45
26/01/2020 01:26:09	26012020	260120	012609	269.560	12.418753	-57.549992	269.560	-0.200	-0.220	-0.520	269.560	-1.600	-0.100																			1580001969.0	7.93	14.69
26/01/2020 01:26:10	26012020	260120	012610	269.590	12.418750	-57.550028	269.610	0.040	-0.200	-0.490	269.600	-1.600	-0.200																			1580001970.0	7.97	14.76
26/01/2020 01:26:11	26012020	260120	012611	269.640	12.418750	-57.550067	269.640	0.300	-0.170	-0.230	269.640	-1.600	-0.000																			1580001971.0	7.90	14.63
26/01/2020 01:26:12	26012020	260120	012612	269.670	12.418752	-57.550103	269.690	0.410	-0.190	0.100	269.670	-1.600	0.300																			1580001972.0	7.85	14.54
26/01/2020 01:26:13	26012020	260120	012613	269.700	12.418755	-57.550140	269.750	0.300	-0.220	0.400	269.710	-1.600	0.600																			1580001973.0	7.89	14.61
26/01/2020 01:26:14	26012020	260120	012614	269.750	12.418757	-57.550178	269.820	0.090	-0.210	0.540	269.770	-1.600	0.900																			1580001974.0	7.94	14.70
26/01/2020 01:26:15	26012020	260120	012615	269.830	12.418760	-57.550215	269.840	-0.090	-0.160	0.570	269.840	-1.600	0.900																			1580001975.0	7.88	14.59
26/01/2020 01:26:16	26012020	260120	012616	269.790	12.418760	-57.550252	269.720	-0.150	-0.130	0.540	269.790	-1.500	0.900																			1580001976.0	7.82	14.48
26/01/2020 01:26:17	26012020	260120	012617	269.680	12.418760	-57.550290	269.590	-0.140	-0.120	0.420	269.650	-1.500	0.900																			1580001977.0	7.85	14.54
26/01/2020 01:26:18	26012020	260120	012618	269.540	12.418758	-57.550327	269.530	-0.110	-0.090	0.250	269.540	-1.500	0.700																			1580001978.0	7.91	14.65
26/01/2020 01:26:19	26012020	260120	012619	269.530	12.418757	-57.550365	269.570	-0.060	-0.020	0.060	269.540	-1.500	0.500																			1580001979.0	7.91	14.65
26/01/2020 01:26:20	26012020	260120	012620	269.590	12.418757	-57.550402	269.650	0.000	-0.050	-0.100	269.610	-1.400	0.300																			1580001980.0	7.84	14.52
26/01/2020 01:26:21	26012020	260120	012621	269.660	12.418757	-57.550438	269.710	0.030	-0.220	-0.210	269.670	-1.500	0.200																			1580001981.0	7.82	14.48
26/01/2020 01:26:22	26012020	260120	012622	269.720	12.418755	-57.550477	269.770	-0.020	-0.420	-0.270	269.730	-1.700	0.100																			1580001982.0	7.95	14.72
26/01/2020 01:26:23	26012020	260120	012623	269.780	12.418755	-57.550513	269.780	-0.090	-0.440	-0.230	269.790	-1.900	0.100																			1580001983.0	8.07	14.95
26/01/2020 01:26:24	26012020	260120	012624	269.780	12.418755	-57.550552	269.750	-0.090	-0.260	-0.140	269.780	-1.800	0.200																			1580001984.0	8.01	14.83
26/01/2020 01:26:25	26012020	260120	012625	269.770	12.418755	-57.550588	269.780	0.010	-0.060	-0.080	269.780	-1.500	0.300																			1580001985.0	7.83	14.50
26/01/2020 01:26:26	26012020	260120	012626	269.810	12.418757	-57.550625	269.810	0.110	0.000	0.070	269.810	-1.400	0.300																			1580001986.0	7.74	14.33
26/01/2020 01:26:27	26012020	260120	012627	269.800	12.418757	-57.550663	269.680	0.100	-0.000	0.400	269.780	-1.400	0.600																			1580001987.0	7.84	14.52
26/01/2020 01:26:28	26012020	260120	012628	269.650	12.418758	-57.550700	269.490	-0.080	0.060	0.750	269.610	-1.400	1.000																			1580001988.0	8.00	14.82
26/01/2020 01:26:29	26012020	260120	012629	269.450	12.418760	-57.550738	269.380	-0.280	0.130	0.870	269.420	-1.300	1.200																			1580001989.0	7.93	14.69
26/01/2020 01:26:30	26012020	260120	012630	269.350	12.418762	-57.550775	269.370	-0.310	0.030	0.690	269.340	-1.300	1.200																			1580001990.0	7.78	14.41
26/01/2020 01:26:31	26012020	260120	012631	269.360	12.418762	-57.550812	269.430	-0.110	-0.310	0.300	269.380	-1.500	0.900																			1580001991.0	7.76	14.37
26/01/2020 01:26:32	26012020	260120	012632	269.450	12.418760	-57.550850	269.570	0.170	-0.680	-0.140	269.480	-1.900	0.400																			1580001992.0	8.00	14.82
26/01/2020 01:26:33	26012020	260120	012633	269.610	12.418758	-57.550888	269.700	0.330	-0.800	-0.440	269.630	-2.200	0.100																			1580001993.0	8.21	15.20
26/01/2020 01:26:34	26012020	260120	012634	269.730	12.418755	-57.550927	269.760	0.280	-0.530	-0.540	269.750	-2.100	-0.200																			1580001994.0	8.17	15.13
26/01/2020 01:26:35	26012020	260120	012635	269.780	12.418755	-57.550963	269.730	0.090	0.060	-0.420	269.780	-1.700	-0.100																			1580001995.0	7.91	14.65
26/01/2020 01:26:36	26012020	260120	012636	269.740	12.418755	-57.551000	269.660	-0.080	0.650	-0.170	269.730	-1.000	0.100																			1580001996.0	7.59	14.06
26/01/2020 01:26:37	26012020	260120	012637	269.660	12.418757	-57.551035	269.550	-0.120	0.760	0.080	269.630	-0.600	0.300																			1580001997.0	7.39	13.69
26/01/2020 01:26:38	26012020	260120	012638	269.540	12.418758	-57.551070	269.460	-0.060	0.270	0.250	269.520	-0.800	0.500																			1580001998.0	7.56	14.00
26/01/2020 01:26:39	26012020	260120	012639	269.460	12.418760	-57.551108	269.450	-0.010	-0.510	0.310	269.450	-1.500	0.700																			1580001999.0	8.03	14.87
26/01/2020 01:26:40	26012020	260120	012640	269.460	12.418760	-57.551148	269.450	-0.040	-1.040	0.330	269.460	-2.200	0.700																			1580002000.0	8.41	15.58
26/01/2020 01:26:41	26012020	260120	012641	269.450	12.418760	-57.551188	269.430	-0.130	-1.010	0.380	269.450	-2.500	0.700																			1580002001.0	8.40	15.56
26/01/2020 01:26:42	26012020	260120	012642	269.440	12.418760	-57.551227	269.440	-0.200	-0.540	0.400	269.440	-2.200	0.800																			1580002002.0	8.01	14.83
26/01/2020 01:26:43	26012020	260120	012643	269.450	12.418760	-57.551262	269.520	-0.160	0.020	0.330	269.470	-1.600	0.700																			1580002003.0	7.59	14.06
26/01/2020 01:26:44	26012020	260120	012644	269.540	12.418760	-57.551297	269.630	0.000	0.280	0.230	269.570	-1.200	0.600																			1580002004.0	7.43	13.76
26/01/2020 01:26:45	26012020	260120	012645	269.660	12.418760	-57.551333	269.700	0.200	0.220	0.150	269.670	-1.100	0.500																			1580002005.0	7.65	14.17
26/01/2020 01:26:46	26012020	260120	012646	269.710	12.418760	-57.551372	269.650	0.280	0.020	0.150	269.710	-1.300	0.500																			1580002006.0	8.03	14.87
26/01/2020 01:26:47	26012020	260120	012647	269.640	12.418760	-57.551410	269.510	0.170	-0.050	0.200	269.610	-1.400	0.500																			1580002007.0	8.25	15.28
26/01/2020 01:26:48	26012020	260120	012648	269.490	12.418760	-57.551448	269.410	-0.050	0.010	0.210	269.460	-1.400	0.600																			1580002008.0	8.14	15.08
26/01/2020 01:26:49	26012020	260120	012649	269.390	12.418762	-57.551487	269.380	-0.220	0.070	0.080	269.390	-1.300	0.500																			1580002009.0	7.87	14.58
26/01/2020 01:26:50	26012020	260120	012650	269.380	12.418762	-57.551522	269.420	-0.220	-0.050	-0.110	269.390	-1.400	0.400																			1580002010.0	7.67	14.20
26/01/2020 01:26:51	26012020	260120	012651	269.430	12.418760	-57.551558	269.510	-0.100	-0.290	-0.300	269.450	-1.600	0.200																			1580002011.0	7.73	14.32
26/01/2020 01:26:52	26012020	260120	012652	269.530	12.418758	-57.551597	269.620	0.050	-0.500	-0.380	269.560	-1.800	0.000																			1580002012.0	7.90	14.63
26/01/2020 01:26:53	26012020	260120	012653	269.640	12.418757	-57.551633	269.630	0.150	-0.530	-0.270	269.650	-1.900	0.000																			1580002013.0	8.00	14.82
26/01/2020 01:26:54	26012020	260120	012654	269.580	12.418757	-57.551672	269.440	0.200	-0.400	0.060	269.580	-1.900	0.200																			1580002014.0	7.92	14.67
26/01/2020 01:26:55	26012020	260120	012655	269.410	12.418757	-57.551708	269.220	0.160	-0.240	0.430	269.360	-1.700	0.600																			1580002015.0	7.80	14.45
26/01/2020 01:26:56	26012020	260120	012656	269.190	12.418760	-57.551745	269.140	0.010	-0.130	0.570	269.170	-1.600	0.900																			1580002016.0	7.80	14.45
26/01/2020 01:26:57	26012020	260120	012657	269.150	12.418762	-57.551782	269.260	-0.200	-0.080	0.490	269.170	-1.500	0.900																			1580002017.0	7.86	14.56
26/01/2020 01:26:58	26012020	260120	012658	269.300	12.418763	-57.551820	269.480	-0.330	-0.030	0.320	269.340	-1.500	0.800																			1580002018.0	7.91	14.65
26/01/2020 01:26:59	26012020	260120	012659	269.520	12.418762	-57.551857	269.680	-0.260	0.050	0.190	269.560	-1.400	0.600	1015.20	25.40	25.40	21.50	21.50	-1.00	79.00	79.00	390.00	24.60	68.00	4.90	25.00	5.00	14	3393.00	27.40	27.40	1580002019.0	7.92	14.67
26/01/2020 01:27:00	26012020	260120	012700	269.720	12.418760	-57.551895	269.800	-0.060	0.080	0.150	269.750	-1.300	0.500																			1580002020.0	7.91	14.65
26/01/2020 01:27:01	26012020	260120	012701	269.810	12.418758	-57.551932	269.770	0.140	-0.020	0.180	269.810	-1.400	0.500																			1580002021.0	7.89	14.61
26/01/2020 01:27:02	26012020	260120	012702	269.740	12.418758	-57.551970	269.590	0.270	-0.190	0.250	269.720	-1.500	0.600																			1580002022.0	7.95	14.72
26/01/2020 01:27:03	26012020	260120	012703	269.550	12.418758	-57.552007	269.360	0.320	-0.340	0.300	269.500	-1.700	0.700																			1580002023.0	8.01	14.83
26/01/2020 01:27:04	26012020	260120	012704	269.320	12.418760	-57.552045	269.170	0.280	-0.390	0.260	269.280	-1.800	0.700																			1580002024.0	7.98	14.78
26/01/2020 01:27:05	26012020	260120	012705	269.140	12.418760	-57.552083	269.090	0.130	-0.320	0.100	269.120	-1.800	0.600																			1580002025.0	7.92	14.67
26/01/2020 01:27:06	26012020	260120	012706	269.080	12.418760	-57.552120	269.150	-0.070	-0.110	-0.130	269.080	-1.600	0.300																			1580002026.0	7.82	14.48
26/01/2020 01:27:07	26012020	260120	012707	269.180	12.418760	-57.552157	269.340	-0.240	0.130	-0.300	269.210	-1.400	0.100																			1580002027.0	7.71	14.28
26/01/2020 01:27:08	26012020	260120	012708	269.360	12.418758	-57.552192	269.560	-0.310	0.220	-0.370	269.410	-1.200	0.000																			1580002028.0	7.62	14.11
26/01/2020 01:27:09	26012020	260120	012709	269.580	12.418758	-57.552228	269.720	-0.270	0.000	-0.320	269.620	-1.300	0.000																			1580002029.0	7.65	14.17
26/01/2020 01:27:10	26012020	260120	012710	269.730	12.418757	-57.552265	269.780	-0.170	-0.390	-0.190	269.750	-1.600	0.100																			1580002030.0	7.88	14.59
26/01/2020 01:27:11	26012020	260120	012711	269.770	12.418757	-57.552303	269.720	-0.060	-0.640	-0.060	269.760	-2.000	0.200																			1580002031.0	8.16	15.11
26/01/2020 01:27:12	26012020	260120	012712	269.710	12.418757	-57.552343	269.630	0.040	-0.580	0.030	269.690	-2.000	0.400																			1580002032.0	8.19	15.17
26/01/2020 01:27:13	26012020	260120	012713	269.630	12.418757	-57.552380	269.570	0.150	-0.290	0.180	269.620	-1.800	0.500																			1580002033.0	7.95	14.72
26/01/2020 01:27:14	26012020	260120	012714	269.560	12.418757	-57.552417	269.500	0.240	-0.010	0.450	269.550	-1.500	0.700																			1580002034.0	7.68	14.22
26/01/2020 01:27:15	26012020	260120	012715	269.490	12.418757	-57.552453	269.480	0.260	0.080	0.770	269.470	-1.300	1.000																			1580002035.0	7.64	14.15
26/01/2020 01:27:16	26012020	260120	012716	269.460	12.418760	-57.552490	269.510	0.170	0.060	1.020	269.460	-1.300	1.300																			1580002036.0	7.82	14.48
26/01/2020 01:27:17	26012020	260120	012717	269.490	12.418762	-57.552528	269.550	0.010	0.050	1.070	269.500	-1.400	1.400																			1580002037.0	8.00	14.82
26/01/2020 01:27:18	26012020	260120	012718	269.560	12.418765	-57.552565	269.610	-0.110	0.040	0.820	269.560	-1.400	1.300																			1580002038.0	7.98	14.78
26/01/2020 01:27:19	26012020	260120	012719	269.600	12.418765	-57.552602	269.630	-0.130	0.000	0.340	269.610	-1.400	1.000																			1580002039.0	7.86	14.56
26/01/2020 01:27:20	26012020	260120	012720	269.620	12.418763	-57.552640	269.610	-0.090	-0.110	-0.240	269.620	-1.500	0.400																			1580002040.0	7.82	14.48
26/01/2020 01:27:21	26012020	260120	012721	269.610	12.418758	-57.552677	269.610	-0.060	-0.280	-0.810	269.610	-1.600	-0.200																			1580002041.0	7.86	14.56
26/01/2020 01:27:22	26012020	260120	012722	269.640	12.418755	-57.552713	269.630	-0.020	-0.410	-1.150	269.640	-1.800	-0.700																			1580002042.0	7.93	14.69
26/01/2020 01:27:23	26012020	260120	012723	269.680	12.418752	-57.552752	269.680	0.040	-0.440	-1.140	269.690	-1.800	-0.800																			1580002043.0	7.94	14.70
26/01/2020 01:27:24	26012020	260120	012724	269.730	12.418752	-57.552788	269.710	0.110	-0.370	-0.780	269.740	-1.800	-0.600																			1580002044.0	7.85	14.54
26/01/2020 01:27:25	26012020	260120	012725	269.770	12.418752	-57.552825	269.750	0.150	-0.270	-0.190	269.770	-1.700	-0.100																			1580002045.0	7.81	14.46
26/01/2020 01:27:26	26012020	260120	012726	269.790	12.418755	-57.552862	269.750	0.060	-0.090	0.480	269.790	-1.600	0.500																			1580002046.0	7.85	14.54
26/01/2020 01:27:27	26012020	260120	012727	269.770	12.418760	-57.552898	269.740	-0.130	0.090	1.000	269.770	-1.400	1.100																			1580002047.0	7.86	14.56
26/01/2020 01:27:28	26012020	260120	012728	269.730	12.418763	-57.552935	269.720	-0.270	0.100	1.220	269.730	-1.300	1.500																			1580002048.0	7.79	14.43
26/01/2020 01:27:29	26012020	260120	012729	269.710	12.418765	-57.552973	269.700	-0.250	-0.110	1.080	269.700	-1.400	1.500																			1580002049.0	7.80	14.45
26/01/2020 01:27:30	26012020	260120	012730	269.690	12.418765	-57.553010	269.730	-0.060	-0.370	0.640	269.690	-1.600	1.200																			1580002050.0	8.00	14.82
26/01/2020 01:27:31	26012020	260120	012731	269.740	12.418762	-57.553048	269.860	0.130	-0.460	0.100	269.770	-1.800	0.700																			1580002051.0	8.15	15.09
26/01/2020 01:27:32	26012020	260120	012732	269.910	12.418758	-57.553087	269.950	0.200	-0.250	-0.250	269.910	-1.800	0.200																			1580002052.0	8.13	15.06
26/01/2020 01:27:33	26012020	260120	012733	269.970	12.418757	-57.553125	269.900	0.150	0.110	-0.260	269.970	-1.500	0.100																			1580002053.0	7.88	14.59
26/01/2020 01:27:34	26012020	260120	012734	269.880	12.418755	-57.553160	269.750	0.070	0.380	-0.030	269.880	-1.100	0.200																			1580002054.0	7.63	14.13
26/01/2020 01:27:35	26012020	260120	012735	269.740	12.418757	-57.553197	269.590	0.020	0.350	0.200	269.710	-1.000	0.500																			1580002055.0	7.56	14.00
26/01/2020 01:27:36	26012020	260120	012736	269.580	12.418758	-57.553233	269.510	-0.010	-0.020	0.230	269.560	-1.200	0.600																			1580002056.0	7.69	14.24
26/01/2020 01:27:37	26012020	260120	012737	269.510	12.418760	-57.553270	269.480	-0.020	-0.550	0.050	269.500	-1.700	0.500																			1580002057.0	7.90	14.63
26/01/2020 01:27:38	26012020	260120	012738	269.500	12.418760	-57.553308	269.550	-0.010	-0.900	-0.270	269.500	-2.200	0.300																			1580002058.0	8.13	15.06
26/01/2020 01:27:39	26012020	260120	012739	269.600	12.418758	-57.553347	269.740	0.040	-0.820	-0.560	269.630	-2.300	-0.100																			1580002059.0	8.17	15.13
26/01/2020 01:27:40	26012020	260120	012740	269.800	12.418757	-57.553385	269.940	0.070	-0.380	-0.610	269.850	-2.000	-0.300																			1580002060.0	7.95	14.72
26/01/2020 01:27:41	26012020	260120	012741	269.980	12.418755	-57.553420	269.990	0.070	0.090	-0.260	270.000	-1.500	-0.100																			1580002061.0	7.63	14.13
26/01/2020 01:27:42	26012020	260120	012742	270.000	12.418757	-57.553457	269.930	0.020	0.290	0.320	269.990	-1.200	0.400																			1580002062.0	7.54	13.96
26/01/2020 01:27:43	26012020	260120	012743	269.920	12.418760	-57.553493	269.820	-0.070	0.220	0.810	269.890	-1.100	1.000																			1580002063.0	7.75	14.35
26/01/2020 01:27:44	26012020	260120	012744	269.800	12.418763	-57.553530	269.720	-0.140	0.030	1.040	269.780	-1.300	1.300																			1580002064.0	8.02	14.85
26/01/2020 01:27:45	26012020	260120	012745	269.700	12.418765	-57.553568	269.660	-0.170	-0.120	0.950	269.680	-1.500	1.400																			1580002065.0	8.10	15.00
26/01/2020 01:27:46	26012020	260120	012746	269.660	12.418767	-57.553607	269.670	-0.150	-0.150	0.600	269.660	-1.500	1.200																			1580002066.0	8.03	14.87
26/01/2020 01:27:47	26012020	260120	012747	269.680	12.418763	-57.553645	269.700	-0.110	-0.140	0.100	269.690	-1.500	0.700																			1580002067.0	7.89	14.61
26/01/2020 01:27:48	26012020	260120	012748	269.730	12.418762	-57.553682	269.760	-0.020	-0.240	-0.380	269.740	-1.600	0.200																			1580002068.0	7.78	14.41
26/01/2020 01:27:49	26012020	260120	012749	269.800	12.418757	-57.553718	269.830	0.120	-0.410	-0.630	269.810	-1.700	-0.200																			1580002069.0	7.83	14.50
26/01/2020 01:27:50	26012020	260120	012750	269.880	12.418755	-57.553755	269.840	0.270	-0.520	-0.480	269.890	-1.900	-0.300																			1580002070.0	7.95	14.72
26/01/2020 01:27:51	26012020	260120	012751	269.880	12.418755	-57.553793	269.750	0.330	-0.430	0.060	269.860	-1.900	0.100																			1580002071.0	8.02	14.85
26/01/2020 01:27:52	26012020	260120	012752	269.700	12.418757	-57.553832	269.520	0.250	-0.070	0.730	269.700	-1.700	0.800																			1580002072.0	7.96	14.74
26/01/2020 01:27:53	26012020	260120	012753	269.490	12.418762	-57.553868	269.290	0.030	0.370	1.150	269.430	-1.200	1.400																			1580002073.0	7.81	14.46
26/01/2020 01:27:54	26012020	260120	012754	269.250	12.418767	-57.553903	269.190	-0.220	0.520	1.090	269.220	-0.900	1.500																			1580002074.0	7.57	14.02
26/01/2020 01:27:55	26012020	260120	012755	269.160	12.418768	-57.553938	269.200	-0.320	0.150	0.580	269.160	-1.000	1.200																			1580002075.0	7.52	13.93
26/01/2020 01:27:56	26012020	260120	012756	269.210	12.418767	-57.553975	269.300	-0.200	-0.490	-0.070	269.230	-1.600	0.600																			1580002076.0	7.86	14.56
26/01/2020 01:27:57	26012020	260120	012757	269.330	12.418763	-57.554015	269.480	0.000	-0.880	-0.630	269.370	-2.100	-0.000																			1580002077.0	8.33	15.43
26/01/2020 01:27:58	26012020	260120	012758	269.560	12.418758	-57.554055	269.790	0.120	-0.760	-0.940	269.620	-2.300	-0.500																			1580002078.0	8.38	15.52
26/01/2020 01:27:59	26012020	260120	012759	269.900	12.418755	-57.554092	270.080	0.100	-0.340	-0.870	269.970	-2.000	-0.600	1015.30	25.40	25.40	21.40	21.50	-1.00	78.00	78.00	390.00	24.60	70.00	4.90	27.00	5.10	14	3350.00	27.40	27.40	1580002079.0	7.99	14.80
26/01/2020 01:28:00	26012020	260120	012800	270.170	12.418755	-57.554128	270.130	0.020	0.030	-0.380	270.190	-1.500	-0.300																			1580002080.0	7.60	14.08
26/01/2020 01:28:01	26012020	260120	012801	270.150	12.418757	-57.554163	269.870	-0.050	0.180	0.410	270.110	-1.300	0.400																			1580002081.0	7.55	13.98
26/01/2020 01:28:02	26012020	260120	012802	269.850	12.418760	-57.554200	269.540	-0.110	0.160	1.080	269.780	-1.200	1.100																			1580002082.0	7.78	14.41
26/01/2020 01:28:03	26012020	260120	012803	269.500	12.418763	-57.554238	269.330	-0.160	0.060	1.410	269.450	-1.300	1.700																			1580002083.0	7.97	14.76
26/01/2020 01:28:04	26012020	260120	012804	269.290	12.418767	-57.554275	269.280	-0.140	-0.050	1.310	269.280	-1.400	1.800																			1580002084.0	8.02	14.85
26/01/2020 01:28:05	26012020	260120	012805	269.280	12.418767	-57.554313	269.380	-0.010	-0.140	0.870	269.290	-1.500	1.500																			1580002085.0	7.98	14.78
26/01/2020 01:28:06	26012020	260120	012806	269.420	12.418767	-57.554352	269.500	0.190	-0.260	0.290	269.420	-1.600	0.900																			1580002086.0	7.91	14.65
26/01/2020 01:28:07	26012020	260120	012807	269.540	12.418763	-57.554388	269.600	0.270	-0.380	-0.190	269.570	-1.700	0.400																			1580002087.0	7.91	14.65
26/01/2020 01:28:08	26012020	260120	012808	269.640	12.418762	-57.554427	269.630	0.140	-0.340	-0.400	269.650	-1.800	0.000																			1580002088.0	7.99	14.80
26/01/2020 01:28:09	26012020	260120	012809	269.660	12.418758	-57.554463	269.610	-0.100	-0.100	-0.380	269.660	-1.600	-0.000																			1580002089.0	7.91	14.65
26/01/2020 01:28:10	26012020	260120	012810	269.640	12.418758	-57.554500	269.600	-0.290	0.190	-0.330	269.630	-1.300	0.000																			1580002090.0	7.69	14.24
26/01/2020 01:28:11	26012020	260120	012811	269.620	12.418760	-57.554535	269.600	-0.290	0.250	-0.370	269.620	-1.100	0.000																			1580002091.0	7.51	13.91
26/01/2020 01:28:12	26012020	260120	012812	269.610	12.418758	-57.554572	269.570	-0.100	-0.050	-0.420	269.610	-1.300	-0.000																			1580002092.0	7.56	14.00
26/01/2020 01:28:13	26012020	260120	012813	269.570	12.418758	-57.554608	269.510	0.190	-0.550	-0.330	269.560	-1.700	-0.000																			1580002093.0	7.88	14.59
26/01/2020 01:28:14	26012020	260120	012814	269.520	12.418757	-57.554647	269.450	0.390	-0.860	0.010	269.510	-2.200	0.200																			1580002094.0	8.20	15.19
26/01/2020 01:28:15	26012020	260120	012815	269.450	12.418758	-57.554687	269.390	0.430	-0.750	0.560	269.440	-2.300	0.600																			1580002095.0	8.29	15.35
26/01/2020 01:28:16	26012020	260120	012816	269.390	12.418762	-57.554725	269.350	0.290	-0.300	1.130	269.380	-1.900	1.200																			1580002096.0	8.07	14.95
26/01/2020 01:28:17	26012020	260120	012817	269.350	12.418767	-57.554760	269.400	0.030	0.180	1.360	269.350	-1.400	1.700																			1580002097.0	7.77	14.39
26/01/2020 01:28:18	26012020	260120	012818	269.430	12.418770	-57.554797	269.510	-0.270	0.460	1.140	269.430	-1.000	1.700																			1580002098.0	7.60	14.08
26/01/2020 01:28:19	26012020	260120	012819	269.520	12.418772	-57.554832	269.570	-0.570	0.470	0.580	269.550	-0.900	1.200																			1580002099.0	7.65	14.17
26/01/2020 01:28:20	26012020	260120	012820	269.560	12.418768	-57.554870	269.470	-0.750	0.270	-0.080	269.560	-1.000	0.600																			1580002100.0	7.84	14.52
26/01/2020 01:28:21	26012020	260120	012821	269.460	12.418763	-57.554907	269.270	-0.680	-0.030	-0.620	269.420	-1.300	-0.000																			1580002101.0	8.03	14.87
26/01/2020 01:28:22	26012020	260120	012822	269.260	12.418757	-57.554945	269.140	-0.290	-0.370	-0.890	269.230	-1.600	-0.400																			1580002102.0	8.07	14.95
26/01/2020 01:28:23	26012020	260120	012823	269.150	12.418752	-57.554982	269.170	0.290	-0.690	-0.870	269.150	-1.900	-0.500																			1580002103.0	8.04	14.89
26/01/2020 01:28:24	26012020	260120	012824	269.230	12.418750	-57.555020	269.320	0.760	-0.860	-0.590	269.260	-2.200	-0.400																			1580002104.0	8.02	14.85
26/01/2020 01:28:25	26012020	260120	012825	269.380	12.418752	-57.555058	269.390	0.890	-0.670	-0.040	269.400	-2.200	0.000																			1580002105.0	8.05	14.91
26/01/2020 01:28:26	26012020	260120	012826	269.440	12.418757	-57.555097	269.390	0.650	-0.110	0.580	269.440	-1.800	0.600																			1580002106.0	7.98	14.78
26/01/2020 01:28:27	26012020	260120	012827	269.410	12.418762	-57.555132	269.340	0.200	0.470	1.070	269.400	-1.200	1.200																			1580002107.0	7.69	14.24
26/01/2020 01:28:28	26012020	260120	012828	269.320	12.418767	-57.555167	269.220	-0.220	0.650	1.240	269.300	-0.800	1.600																			1580002108.0	7.43	13.76
26/01/2020 01:28:29	26012020	260120	012829	269.180	12.418768	-57.555202	269.100	-0.470	0.320	1.040	269.150	-0.900	1.500																			1580002109.0	7.53	13.95
26/01/2020 01:28:30	26012020	260120	012830	269.060	12.418767	-57.555240	269.020	-0.540	-0.200	0.530	269.040	-1.400	1.200																			1580002110.0	7.93	14.69
26/01/2020 01:28:31	26012020	260120	012831	269.010	12.418763	-57.555278	269.030	-0.450	-0.500	-0.080	269.010	-1.800	0.600																			1580002111.0	8.26	15.30
26/01/2020 01:28:32	26012020	260120	012832	269.060	12.418760	-57.555317	269.110	-0.230	-0.510	-0.630	269.060	-1.900	0.000																			1580002112.0	8.19	15.17
26/01/2020 01:28:33	26012020	260120	012833	269.160	12.418755	-57.555353	269.240	0.030	-0.440	-0.930	269.190	-1.900	-0.400																			1580002113.0	7.86	14.56
26/01/2020 01:28:34	26012020	260120	012834	269.350	12.418750	-57.555390	269.360	0.260	-0.400	-0.870	269.350	-1.800	-0.600																			1580002114.0	7.71	14.28
26/01/2020 01:28:35	26012020	260120	012835	269.440	12.418750	-57.555427	269.390	0.400	-0.340	-0.450	269.450	-1.800	-0.300																			1580002115.0	7.76	14.37
26/01/2020 01:28:36	26012020	260120	012836	269.450	12.418752	-57.555463	269.360	0.470	-0.240	0.150	269.440	-1.700	0.200																			1580002116.0	7.89	14.61
26/01/2020 01:28:37	26012020	260120	012837	269.400	12.418757	-57.555502	269.350	0.410	-0.110	0.680	269.390	-1.600	0.800																			1580002117.0	7.96	14.74
26/01/2020 01:28:38	26012020	260120	012838	269.370	12.418760	-57.555538	269.310	0.170	0.040	1.090	269.360	-1.400	1.300																			1580002118.0	7.96	14.74
26/01/2020 01:28:39	26012020	260120	012839	269.300	12.418763	-57.555577	269.200	-0.190	0.180	1.310	269.280	-1.300	1.600																			1580002119.0	7.90	14.63
26/01/2020 01:28:40	26012020	260120	012840	269.180	12.418765	-57.555613	269.160	-0.510	0.260	1.190	269.170	-1.200	1.700																			1580002120.0	7.83	14.50
26/01/2020 01:28:41	26012020	260120	012841	269.140	12.418765	-57.555650	269.240	-0.610	0.190	0.650	269.160	-1.200	1.300																			1580002121.0	7.77	14.39
26/01/2020 01:28:42	26012020	260120	012842	269.260	12.418762	-57.555687	269.400	-0.470	-0.080	-0.150	269.290	-1.300	0.600																			1580002122.0	7.79	14.43
26/01/2020 01:28:43	26012020	260120	012843	269.440	12.418757	-57.555723	269.480	-0.190	-0.460	-0.840	269.460	-1.700	-0.200																			1580002123.0	7.94	14.70
26/01/2020 01:28:44	26012020	260120	012844	269.520	12.418752	-57.555762	269.470	0.100	-0.680	-1.150	269.530	-2.000	-0.700																			1580002124.0	8.14	15.08
26/01/2020 01:28:45	26012020	260120	012845	269.520	12.418747	-57.555800	269.420	0.320	-0.580	-0.980	269.510	-2.100	-0.800																			1580002125.0	8.14	15.08
26/01/2020 01:28:46	26012020	260120	012846	269.460	12.418745	-57.555837	269.350	0.450	-0.250	-0.430	269.460	-1.800	-0.400																			1580002126.0	7.88	14.59
26/01/2020 01:28:47	26012020	260120	012847	269.400	12.418748	-57.555873	269.310	0.510	0.080	0.240	269.380	-1.500	0.300																			1580002127.0	7.67	14.20
26/01/2020 01:28:48	26012020	260120	012848	269.350	12.418753	-57.555910	269.380	0.450	0.290	0.770	269.360	-1.200	0.900																			1580002128.0	7.67	14.20
26/01/2020 01:28:49	26012020	260120	012849	269.420	12.418758	-57.555947	269.490	0.270	0.290	1.030	269.440	-1.100	1.300																			1580002129.0	7.76	14.37
26/01/2020 01:28:50	26012020	260120	012850	269.530	12.418762	-57.555982	269.550	0.030	0.040	0.990	269.530	-1.200	1.400																			1580002130.0	7.79	14.43
26/01/2020 01:28:51	26012020	260120	012851	269.550	12.418765	-57.556020	269.540	-0.180	-0.320	0.680	269.550	-1.500	1.200																			1580002131.0	7.90	14.63
26/01/2020 01:28:52	26012020	260120	012852	269.560	12.418763	-57.556058	269.560	-0.340	-0.610	0.180	269.560	-1.900	0.800																			1580002132.0	8.05	14.91
26/01/2020 01:28:53	26012020	260120	012853	269.600	12.418760	-57.556097	269.600	-0.410	-0.680	-0.320	269.610	-2.100	0.300																			1580002133.0	8.10	15.00
26/01/2020 01:28:54	26012020	260120	012854	269.660	12.418755	-57.556133	269.650	-0.400	-0.580	-0.700	269.670	-2.000	-0.200																			1580002134.0	8.02	14.85
26/01/2020 01:28:55	26012020	260120	012855	269.720	12.418752	-57.556172	269.700	-0.320	-0.310	-0.840	269.730	-1.900	-0.400																			1580002135.0	7.91	14.65
26/01/2020 01:28:56	26012020	260120	012856	269.800	12.418748	-57.556208	269.780	-0.200	0.040	-0.720	269.800	-1.500	-0.400																			1580002136.0	7.83	14.50
26/01/2020 01:28:57	26012020	260120	012857	269.850	12.418747	-57.556245	269.820	-0.040	0.300	-0.350	269.860	-1.200	-0.200																			1580002137.0	7.75	14.35
26/01/2020 01:28:58	26012020	260120	012858	269.890	12.418748	-57.556282	269.830	0.170	0.320	0.180	269.890	-1.100	0.300																			1580002138.0	7.73	14.32
26/01/2020 01:28:59	26012020	260120	012859	269.850	12.418752	-57.556318	269.770	0.350	0.140	0.730	269.840	-1.200	0.800	1015.30	25.40	25.50	21.60	21.60	-1.00	79.00	79.00	391.00	24.60	74.00	4.70	31.00	5.30	14	3421.00	27.40	27.40	1580002139.0	7.87	14.58
26/01/2020 01:29:00	26012020	260120	012900	269.790	12.418755	-57.556357	269.730	0.410	-0.050	1.120	269.780	-1.400	1.300																			1580002140.0	8.07	14.95
26/01/2020 01:29:01	26012020	260120	012901	269.730	12.418758	-57.556395	269.670	0.310	-0.100	1.330	269.710	-1.500	1.600																			1580002141.0	8.10	15.00
26/01/2020 01:29:02	26012020	260120	012902	269.660	12.418762	-57.556432	269.650	0.140	-0.180	1.240	269.660	-1.500	1.700																			1580002142.0	7.87	14.58
26/01/2020 01:29:03	26012020	260120	012903	269.670	12.418763	-57.556468	269.740	-0.010	-0.430	0.830	269.680	-1.700	1.400																			1580002143.0	7.70	14.26
26/01/2020 01:29:04	26012020	260120	012904	269.780	12.418762	-57.556505	269.880	-0.100	-0.630	0.180	269.810	-2.000	0.900																			1580002144.0	7.86	14.56
26/01/2020 01:29:05	26012020	260120	012905	269.920	12.418758	-57.556543	269.990	-0.140	-0.500	-0.540	269.950	-2.000	0.200																			1580002145.0	8.05	14.91
26/01/2020 01:29:06	26012020	260120	012906	270.050	12.418755	-57.556580	270.060	-0.170	-0.170	-1.160	270.060	-1.700	-0.500																			1580002146.0	7.94	14.70
26/01/2020 01:29:07	26012020	260120	012907	270.120	12.418750	-57.556617	270.030	-0.150	0.110	-1.420	270.120	-1.400	-1.000																			1580002147.0	7.68	14.22
26/01/2020 01:29:08	26012020	260120	012908	270.070	12.418748	-57.556652	269.960	-0.050	0.170	-1.290	270.070	-1.200	-1.000																			1580002148.0	7.60	14.08
26/01/2020 01:29:09	26012020	260120	012909	270.010	12.418747	-57.556688	269.940	0.090	0.010	-0.860	270.000	-1.300	-0.700																			1580002149.0	7.73	14.32
26/01/2020 01:29:10	26012020	260120	012910	270.000	12.418748	-57.556727	270.010	0.220	-0.260	-0.230	270.010	-1.500	-0.200																			1580002150.0	7.96	14.74
26/01/2020 01:29:11	26012020	260120	012911	270.080	12.418752	-57.556765	270.130	0.260	-0.480	0.490	270.100	-1.800	0.500																			1580002151.0	8.14	15.08
26/01/2020 01:29:12	26012020	260120	012912	270.200	12.418757	-57.556803	270.190	0.170	-0.510	1.130	270.200	-1.900	1.200																			1580002152.0	8.20	15.19
26/01/2020 01:29:13	26012020	260120	012913	270.220	12.418762	-57.556842	270.150	-0.060	-0.270	1.510	270.210	-1.800	1.700																			1580002153.0	8.11	15.02
26/01/2020 01:29:14	26012020	260120	012914	270.110	12.418765	-57.556878	270.020	-0.320	0.090	1.500	270.110	-1.500	1.900																			1580002154.0	7.86	14.56
26/01/2020 01:29:15	26012020	260120	012915	270.010	12.418767	-57.556915	269.920	-0.470	0.310	1.050	269.990	-1.200	1.700																			1580002155.0	7.63	14.13
26/01/2020 01:29:16	26012020	260120	012916	269.920	12.418763	-57.556950	269.880	-0.400	0.220	0.400	269.920	-1.100	1.100																			1580002156.0	7.61	14.09
26/01/2020 01:29:17	26012020	260120	012917	269.900	12.418760	-57.556987	269.810	-0.100	-0.100	-0.130	269.890	-1.300	0.500																			1580002157.0	7.85	14.54
26/01/2020 01:29:18	26012020	260120	012918	269.830	12.418757	-57.557025	269.720	0.260	-0.380	-0.460	269.820	-1.700	0.000																			1580002158.0	8.12	15.04
26/01/2020 01:29:19	26012020	260120	012919	269.780	12.418753	-57.557063	269.730	0.460	-0.460	-0.580	269.780	-1.800	-0.200																			1580002159.0	8.18	15.15
26/01/2020 01:29:20	26012020	260120	012920	269.820	12.418753	-57.557102	269.820	0.420	-0.360	-0.490	269.820	-1.800	-0.200																			1580002160.0	7.99	14.80
26/01/2020 01:29:21	26012020	260120	012921	269.910	12.418755	-57.557138	269.980	0.220	-0.230	-0.330	269.950	-1.700	-0.000																			1580002161.0	7.79	14.43
26/01/2020 01:29:22	26012020	260120	012922	270.100	12.418758	-57.557175	270.110	0.030	-0.160	-0.190	270.100	-1.600	0.100																			1580002162.0	7.71	14.28
26/01/2020 01:29:23	26012020	260120	012923	270.180	12.418760	-57.557212	270.100	-0.130	-0.090	-0.090	270.180	-1.500	0.200																			1580002163.0	7.80	14.45
26/01/2020 01:29:24	26012020	260120	012924	270.110	12.418760	-57.557250	269.970	-0.290	0.080	-0.000	270.110	-1.400	0.300																			1580002164.0	7.87	14.58
26/01/2020 01:29:25	26012020	260120	012925	269.990	12.418760	-57.557287	269.830	-0.390	0.270	0.100	269.960	-1.200	0.400																			1580002165.0	7.83	14.50
26/01/2020 01:29:26	26012020	260120	012926	269.850	12.418760	-57.557323	269.730	-0.310	0.260	0.240	269.830	-1.100	0.500																			1580002166.0	7.67	14.20
26/01/2020 01:29:27	26012020	260120	012927	269.760	12.418760	-57.557358	269.680	0.010	-0.120	0.400	269.740	-1.300	0.700																			1580002167.0	7.66	14.19
26/01/2020 01:29:28	26012020	260120	012928	269.720	12.418760	-57.557397	269.710	0.400	-0.710	0.520	269.720	-1.800	0.800																			1580002168.0	7.89	14.61
26/01/2020 01:29:29	26012020	260120	012929	269.750	12.418762	-57.557435	269.840	0.570	-1.090	0.550	269.780	-2.400	0.900																			1580002169.0	8.26	15.30
26/01/2020 01:29:30	26012020	260120	012930	269.960	12.418762	-57.557475	270.050	0.380	-0.860	0.550	269.960	-2.400	0.900																			1580002170.0	8.38	15.52
26/01/2020 01:29:31	26012020	260120	012931	270.130	12.418763	-57.557513	270.170	-0.020	-0.130	0.510	270.160	-1.900	0.900																			1580002171.0	8.04	14.89
26/01/2020 01:29:32	26012020	260120	012932	270.220	12.418765	-57.557548	270.130	-0.350	0.570	0.410	270.220	-1.100	0.800																			1580002172.0	7.51	13.91
26/01/2020 01:29:33	26012020	260120	012933	270.140	12.418767	-57.557583	269.960	-0.470	0.790	0.200	270.110	-0.600	0.700																			1580002173.0	7.28	13.48
26/01/2020 01:29:34	26012020	260120	012934	269.920	12.418765	-57.557618	269.800	-0.430	0.450	-0.150	269.920	-0.700	0.400																			1580002174.0	7.55	13.98
26/01/2020 01:29:35	26012020	260120	012935	269.800	12.418762	-57.557657	269.740	-0.290	-0.090	-0.550	269.780	-1.200	0.000																			1580002175.0	8.06	14.93
26/01/2020 01:29:36	26012020	260120	012936	269.750	12.418760	-57.557697	269.750	-0.080	-0.510	-0.770	269.750	-1.700	-0.300																			1580002176.0	8.34	15.45
26/01/2020 01:29:37	26012020	260120	012937	269.790	12.418757	-57.557735	269.800	0.180	-0.690	-0.640	269.810	-2.000	-0.400																			1580002177.0	8.23	15.24
26/01/2020 01:29:38	26012020	260120	012938	269.870	12.418757	-57.557773	269.850	0.360	-0.630	-0.210	269.880	-2.100	-0.100																			1580002178.0	7.99	14.80
26/01/2020 01:29:39	26012020	260120	012939	269.920	12.418760	-57.557810	269.850	0.380	-0.410	0.410	269.920	-1.900	0.500																			1580002179.0	7.80	14.45
26/01/2020 01:29:40	26012020	260120	012940	269.900	12.418763	-57.557845	269.770	0.280	-0.130	0.990	269.880	-1.700	1.100																			1580002180.0	7.71	14.28
26/01/2020 01:29:41	26012020	260120	012941	269.800	12.418768	-57.557882	269.660	0.160	0.120	1.350	269.780	-1.400	1.600																			1580002181.0	7.70	14.26
26/01/2020 01:29:42	26012020	260120	012942	269.670	12.418772	-57.557918	269.640	0.040	0.240	1.320	269.670	-1.200	1.800																			1580002182.0	7.75	14.35
26/01/2020 01:29:43	26012020	260120	012943	269.680	12.418775	-57.557955	269.770	-0.070	0.090	0.830	269.710	-1.200	1.500																			1580002183.0	7.77	14.39
26/01/2020 01:29:44	26012020	260120	012944	269.850	12.418773	-57.557992	269.910	-0.170	-0.210	0.200	269.880	-1.500	0.900																			1580002184.0	7.91	14.65
26/01/2020 01:29:45	26012020	260120	012945	269.970	12.418772	-57.558030	269.900	-0.220	-0.330	-0.300	269.970	-1.700	0.300																			1580002185.0	8.15	15.09
26/01/2020 01:29:46	26012020	260120	012946	269.940	12.418768	-57.558068	269.770	-0.190	-0.190	-0.560	269.920	-1.700	-0.100																			1580002186.0	8.12	15.04
26/01/2020 01:29:47	26012020	260120	012947	269.810	12.418765	-57.558107	269.620	-0.110	-0.080	-0.610	269.780	-1.500	-0.200																			1580002187.0	7.83	14.50
26/01/2020 01:29:48	26012020	260120	012948	269.630	12.418763	-57.558142	269.500	-0.020	-0.210	-0.450	269.630	-1.500	-0.200																			1580002188.0	7.61	14.09
26/01/2020 01:29:49	26012020	260120	012949	269.530	12.418763	-57.558178	269.380	0.040	-0.430	-0.140	269.500	-1.700	0.100																			1580002189.0	7.77	14.39
26/01/2020 01:29:50	26012020	260120	012950	269.410	12.418765	-57.558217	269.330	0.030	-0.470	0.180	269.400	-1.900	0.400																			1580002190.0	8.02	14.85
26/01/2020 01:29:51	26012020	260120	012951	269.380	12.418768	-57.558255	269.420	-0.020	-0.270	0.390	269.390	-1.800	0.700																			1580002191.0	8.02	14.85
26/01/2020 01:29:52	26012020	260120	012952	269.500	12.418770	-57.558292	269.570	-0.060	0.010	0.450	269.500	-1.500	0.800																			1580002192.0	7.83	14.50
26/01/2020 01:29:53	26012020	260120	012953	269.620	12.418772	-57.558328	269.650	-0.050	0.240	0.460	269.640	-1.300	0.800																			1580002193.0	7.71	14.28
26/01/2020 01:29:54	26012020	260120	012954	269.680	12.418772	-57.558365	269.630	0.020	0.280	0.410	269.680	-1.100	0.800																			1580002194.0	7.72	14.30
26/01/2020 01:29:55	26012020	260120	012955	269.640	12.418773	-57.558402	269.540	0.120	0.130	0.360	269.630	-1.200	0.700																			1580002195.0	7.82	14.48
26/01/2020 01:29:56	26012020	260120	012956	269.550	12.418773	-57.558438	269.430	0.200	-0.150	0.340	269.530	-1.400	0.700																			1580002196.0	7.92	14.67
26/01/2020 01:29:57	26012020	260120	012957	269.450	12.418773	-57.558477	269.310	0.210	-0.450	0.380	269.420	-1.700	0.700																			1580002197.0	8.00	14.82
26/01/2020 01:29:58	26012020	260120	012958	269.330	12.418773	-57.558515	269.190	0.130	-0.640	0.410	269.310	-1.900	0.800																			1580002198.0	7.98	14.78
26/01/2020 01:29:59	26012020	260120	012959	269.210	12.418773	-57.558552	269.060	-0.010	-0.660	0.360	269.180	-2.100	0.800	1015.30	25.40	25.50	21.60	21.60	-1.00	79.00	79.00	391.00	24.60	75.00	4.50	33.00	5.20	14	3503.00	27.40	27.40	1580002199.0	7.90	14.63
26/01/2020 01:30:00	26012020	260120	013000	269.090	12.418773	-57.558588	268.990	-0.160	-0.420	0.200	269.070	-2.000	0.700																			1580002200.0	7.83	14.50
26/01/2020 01:30:01	26012020	260120	013001	269.020	12.418773	-57.558625	268.980	-0.250	-0.010	-0.050	269.010	-1.600	0.400																			1580002201.0	7.73	14.32
26/01/2020 01:30:02	26012020	260120	013002	269.030	12.418773	-57.558662	269.070	-0.240	0.330	-0.380	269.050	-1.200	0.100																			1580002202.0	7.61	14.09
26/01/2020 01:30:03	26012020	260120	013003	269.140	12.418772	-57.558697	269.200	-0.140	0.410	-0.640	269.180	-1.000	-0.200																			1580002203.0	7.60	14.08
26/01/2020 01:30:04	26012020	260120	013004	269.300	12.418770	-57.558733	269.280	0.020	0.170	-0.590	269.300	-1.100	-0.300																			1580002204.0	7.74	14.33
26/01/2020 01:30:05	26012020	260120	013005	269.340	12.418770	-57.558772	269.260	0.120	-0.210	-0.210	269.330	-1.400	-0.100																			1580002205.0	7.98	14.78
26/01/2020 01:30:06	26012020	260120	013006	269.290	12.418770	-57.558810	269.180	0.120	-0.480	0.370	269.290	-1.800	0.400																			1580002206.0	8.12	15.04
26/01/2020 01:30:07	26012020	260120	013007	269.220	12.418773	-57.558848	269.100	0.050	-0.470	0.900	269.210	-1.900	1.000																			1580002207.0	8.10	15.00
26/01/2020 01:30:08	26012020	260120	013008	269.140	12.418777	-57.558885	269.010	-0.040	-0.280	1.200	269.120	-1.800	1.400																			1580002208.0	7.86	14.56
26/01/2020 01:30:09	26012020	260120	013009	269.020	12.418780	-57.558922	268.870	-0.090	-0.090	1.220	268.990	-1.600	1.600																			1580002209.0	7.61	14.09
26/01/2020 01:30:10	26012020	260120	013010	268.860	12.418780	-57.558957	268.720	-0.090	-0.110	0.980	268.830	-1.500	1.500																			1580002210.0	7.51	13.91
26/01/2020 01:30:11	26012020	260120	013011	268.730	12.418778	-57.558993	268.700	-0.040	-0.270	0.530	268.720	-1.600	1.100																			1580002211.0	7.70	14.26
26/01/2020 01:30:12	26012020	260120	013012	268.760	12.418777	-57.559030	268.820	0.060	-0.360	0.010	268.760	-1.700	0.600																			1580002212.0	7.94	14.70
26/01/2020 01:30:13	26012020	260120	013013	268.890	12.418773	-57.559068	268.970	0.180	-0.300	-0.370	268.930	-1.700	0.200																			1580002213.0	8.02	14.85
26/01/2020 01:30:14	26012020	260120	013014	269.050	12.418772	-57.559107	269.030	0.250	-0.100	-0.490	269.050	-1.600	-0.100																			1580002214.0	7.94	14.70
26/01/2020 01:30:15	26012020	260120	013015	269.080	12.418772	-57.559143	268.990	0.200	0.130	-0.400	269.080	-1.400	-0.100																			1580002215.0	7.81	14.46
26/01/2020 01:30:16	26012020	260120	013016	269.020	12.418773	-57.559180	268.880	0.030	0.250	-0.170	269.020	-1.200	0.100																			1580002216.0	7.73	14.32
26/01/2020 01:30:17	26012020	260120	013017	268.910	12.418775	-57.559217	268.730	-0.150	0.250	0.100	268.880	-1.100	0.300																			1580002217.0	7.70	14.26
26/01/2020 01:30:18	26012020	260120	013018	268.710	12.418777	-57.559252	268.570	-0.240	0.110	0.290	268.710	-1.200	0.600																			1580002218.0	7.73	14.32
26/01/2020 01:30:19	26012020	260120	013019	268.600	12.418777	-57.559288	268.490	-0.200	-0.240	0.350	268.570	-1.400	0.700																			1580002219.0	7.73	14.32
26/01/2020 01:30:20	26012020	260120	013020	268.500	12.418777	-57.559327	268.480	-0.070	-0.690	0.280	268.500	-1.900	0.700																			1580002220.0	7.82	14.48
26/01/2020 01:30:21	26012020	260120	013021	268.520	12.418777	-57.559363	268.580	0.020	-0.930	0.110	268.540	-2.300	0.600																			1580002221.0	8.02	14.85
26/01/2020 01:30:22	26012020	260120	013022	268.670	12.418775	-57.559402	268.750	0.000	-0.700	-0.070	268.670	-2.300	0.400																			1580002222.0	8.09	14.98
26/01/2020 01:30:23	26012020	260120	013023	268.820	12.418773	-57.559440	268.880	-0.080	-0.130	-0.120	268.860	-1.800	0.200																			1580002223.0	7.86	14.56
26/01/2020 01:30:24	26012020	260120	013024	268.950	12.418772	-57.559475	268.900	-0.120	0.360	-0.010	268.950	-1.200	0.300																			1580002224.0	7.51	13.91
26/01/2020 01:30:25	26012020	260120	013025	268.940	12.418773	-57.559510	268.850	-0.070	0.450	0.230	268.930	-0.900	0.500																			1580002225.0	7.41	13.72
26/01/2020 01:30:26	26012020	260120	013026	268.860	12.418773	-57.559547	268.720	0.010	0.180	0.550	268.840	-1.000	0.700																			1580002226.0	7.68	14.22
26/01/2020 01:30:27	26012020	260120	013027	268.710	12.418775	-57.559585	268.520	0.090	-0.170	0.880	268.670	-1.400	1.100																			1580002227.0	8.06	14.93
26/01/2020 01:30:28	26012020	260120	013028	268.460	12.418777	-57.559623	268.350	0.160	-0.320	1.040	268.460	-1.700	1.400																			1580002228.0	8.18	15.15
26/01/2020 01:30:29	26012020	260120	013029	268.340	12.418778	-57.559662	268.290	0.200	-0.270	0.870	268.320	-1.700	1.400																			1580002229.0	8.01	14.83
26/01/2020 01:30:30	26012020	260120	013030	268.300	12.418778	-57.559697	268.330	0.180	-0.220	0.400	268.300	-1.600	1.000																			1580002230.0	7.72	14.30
26/01/2020 01:30:31	26012020	260120	013031	268.350	12.418777	-57.559733	268.390	0.100	-0.270	-0.080	268.370	-1.600	0.500																			1580002231.0	7.61	14.09
26/01/2020 01:30:32	26012020	260120	013032	268.420	12.418775	-57.559770	268.410	-0.030	-0.330	-0.380	268.430	-1.700	0.100																			1580002232.0	7.73	14.32
26/01/2020 01:30:33	26012020	260120	013033	268.460	12.418772	-57.559807	268.440	-0.160	-0.290	-0.450	268.470	-1.700	-0.100																			1580002233.0	7.87	14.58
26/01/2020 01:30:34	26012020	260120	013034	268.520	12.418772	-57.559845	268.520	-0.240	-0.160	-0.390	268.520	-1.600	-0.100																			1580002234.0	7.87	14.58
26/01/2020 01:30:35	26012020	260120	013035	268.610	12.418772	-57.559882	268.640	-0.230	-0.050	-0.330	268.630	-1.500	0.000																			1580002235.0	7.78	14.41
26/01/2020 01:30:36	26012020	260120	013036	268.740	12.418772	-57.559918	268.700	-0.110	-0.000	-0.190	268.740	-1.400	0.100																			1580002236.0	7.74	14.33
26/01/2020 01:30:37	26012020	260120	013037	268.770	12.418772	-57.559955	268.640	0.050	0.030	0.080	268.760	-1.400	0.300																			1580002237.0	7.81	14.46
26/01/2020 01:30:38	26012020	260120	013038	268.660	12.418772	-57.559992	268.500	0.150	0.040	0.410	268.660	-1.400	0.600																			1580002238.0	7.84	14.52
26/01/2020 01:30:39	26012020	260120	013039	268.550	12.418772	-57.560028	268.380	0.160	-0.070	0.690	268.520	-1.400	0.900																			1580002239.0	7.79	14.43
26/01/2020 01:30:40	26012020	260120	013040	268.420	12.418773	-57.560065	268.370	0.110	-0.260	0.760	268.420	-1.600	1.100																			1580002240.0	7.81	14.46
26/01/2020 01:30:41	26012020	260120	013041	268.420	12.418775	-57.560103	268.460	0.010	-0.380	0.610	268.430	-1.700	1.100																			1580002241.0	7.90	14.63
26/01/2020 01:30:42	26012020	260120	013042	268.560	12.418775	-57.560140	268.600	-0.110	-0.340	0.310	268.560	-1.800	0.800																			1580002242.0	7.91	14.65
26/01/2020 01:30:43	26012020	260120	013043	268.680	12.418773	-57.560177	268.710	-0.170	-0.250	0.050	268.710	-1.700	0.500																			1580002243.0	7.77	14.39
26/01/2020 01:30:44	26012020	260120	013044	268.780	12.418772	-57.560213	268.720	-0.130	-0.200	-0.070	268.780	-1.600	0.300																			1580002244.0	7.69	14.24
26/01/2020 01:30:45	26012020	260120	013045	268.780	12.418770	-57.560250	268.670	-0.020	-0.130	-0.080	268.770	-1.600	0.300																			1580002245.0	7.76	14.37
26/01/2020 01:30:46	26012020	260120	013046	268.720	12.418768	-57.560287	268.570	0.100	-0.070	-0.040	268.710	-1.500	0.300																			1580002246.0	7.82	14.48
26/01/2020 01:30:47	26012020	260120	013047	268.620	12.418768	-57.560323	268.500	0.180	-0.110	-0.010	268.610	-1.500	0.300																			1580002247.0	7.82	14.48
26/01/2020 01:30:48	26012020	260120	013048	268.550	12.418768	-57.560362	268.510	0.230	-0.200	-0.030	268.550	-1.600	0.400																			1580002248.0	7.86	14.56
26/01/2020 01:30:49	26012020	260120	013049	268.580	12.418768	-57.560398	268.620	0.200	-0.140	-0.070	268.600	-1.600	0.300																			1580002249.0	7.99	14.80
26/01/2020 01:30:50	26012020	260120	013050	268.700	12.418770	-57.560437	268.680	0.080	0.050	0.020	268.700	-1.400	0.300																			1580002250.0	7.94	14.70
26/01/2020 01:30:51	26012020	260120	013051	268.720	12.418772	-57.560473	268.590	-0.090	0.130	0.190	268.710	-1.300	0.400																			1580002251.0	7.73	14.32
26/01/2020 01:30:52	26012020	260120	013052	268.570	12.418772	-57.560510	268.400	-0.250	-0.020	0.380	268.570	-1.300	0.700																			1580002252.0	7.64	14.15
26/01/2020 01:30:53	26012020	260120	013053	268.410	12.418773	-57.560547	268.270	-0.350	-0.250	0.410	268.380	-1.500	0.800																			1580002253.0	7.78	14.41
26/01/2020 01:30:54	26012020	260120	013054	268.300	12.418772	-57.560583	268.260	-0.320	-0.390	0.250	268.300	-1.700	0.700																			1580002254.0	7.91	14.65
26/01/2020 01:30:55	26012020	260120	013055	268.330	12.418770	-57.560620	268.350	-0.170	-0.440	0.060	268.350	-1.800	0.500																			1580002255.0	7.90	14.63
26/01/2020 01:30:56	26012020	260120	013056	268.440	12.418767	-57.560658	268.460	0.070	-0.460	-0.080	268.460	-1.900	0.300																			1580002256.0	7.82	14.48
26/01/2020 01:30:57	26012020	260120	013057	268.560	12.418767	-57.560695	268.590	0.280	-0.400	-0.130	268.580	-1.800	0.200																			1580002257.0	7.84	14.52
26/01/2020 01:30:58	26012020	260120	013058	268.690	12.418765	-57.560732	268.700	0.310	-0.160	-0.070	268.710	-1.700	0.200																			1580002258.0	7.92	14.67
26/01/2020 01:30:59	26012020	260120	013059	268.790	12.418767	-57.560770	268.720	0.180	0.190	0.170	268.800	-1.400	0.400	1015.30	25.40	25.50	21.60	21.60	-1.00	79.00	78.00	391.00	24.60	73.00	4.70	30.00	5.20	14	3390.00	27.40	27.40	1580002259.0	7.86	14.56
26/01/2020 01:31:00	26012020	260120	013100	268.790	12.418768	-57.560805	268.610	0.040	0.460	0.500	268.770	-1.000	0.700																			1580002260.0	7.71	14.28
26/01/2020 01:31:01	26012020	260120	013101	268.650	12.418770	-57.560842	268.450	0.010	0.470	0.730	268.620	-0.900	1.000																			1580002261.0	7.63	14.13
26/01/2020 01:31:02	26012020	260120	013102	268.450	12.418770	-57.560878	268.310	0.060	0.130	0.740	268.450	-1.100	1.100																			1580002262.0	7.69	14.24
26/01/2020 01:31:03	26012020	260120	013103	268.330	12.418770	-57.560915	268.190	0.090	-0.440	0.530	268.300	-1.500	1.000																			1580002263.0	7.86	14.56
26/01/2020 01:31:04	26012020	260120	013104	268.210	12.418770	-57.560953	268.130	0.040	-0.920	0.160	268.210	-2.100	0.700																			1580002264.0	8.08	14.96
26/01/2020 01:31:05	26012020	260120	013105	268.210	12.418768	-57.560992	268.220	-0.110	-0.980	-0.320	268.220	-2.400	0.300																			1580002265.0	8.17	15.13
26/01/2020 01:31:06	26012020	260120	013106	268.380	12.418765	-57.561030	268.430	-0.260	-0.630	-0.730	268.380	-2.200	-0.200																			1580002266.0	7.95	14.72
26/01/2020 01:31:07	26012020	260120	013107	268.570	12.418763	-57.561067	268.620	-0.320	-0.070	-0.820	268.620	-1.700	-0.500																			1580002267.0	7.67	14.20
26/01/2020 01:31:08	26012020	260120	013108	268.750	12.418760	-57.561102	268.720	-0.260	0.360	-0.540	268.780	-1.200	-0.300																			1580002268.0	7.49	13.87
26/01/2020 01:31:09	26012020	260120	013109	268.830	12.418760	-57.561137	268.760	-0.070	0.430	-0.110	268.840	-1.000	0.000																			1580002269.0	7.56	14.00
26/01/2020 01:31:10	26012020	260120	013110	268.830	12.418762	-57.561173	268.690	0.160	0.190	0.330	268.830	-1.100	0.500																			1580002270.0	7.83	14.50
26/01/2020 01:31:11	26012020	260120	013111	268.750	12.418763	-57.561212	268.570	0.300	-0.160	0.650	268.730	-1.400	0.900																			1580002271.0	8.13	15.06
26/01/2020 01:31:12	26012020	260120	013112	268.610	12.418765	-57.561252	268.490	0.270	-0.290	0.830	268.610	-1.700	1.100																			1580002272.0	8.25	15.28
26/01/2020 01:31:13	26012020	260120	013113	268.540	12.418767	-57.561290	268.430	0.140	-0.130	0.880	268.520	-1.600	1.200																			1580002273.0	8.07	14.95
26/01/2020 01:31:14	26012020	260120	013114	268.490	12.418767	-57.561327	268.420	0.050	0.070	0.800	268.490	-1.400	1.200																			1580002274.0	7.67	14.20
26/01/2020 01:31:15	26012020	260120	013115	268.490	12.418768	-57.561362	268.450	0.040	-0.020	0.620	268.500	-1.300	1.100																			1580002275.0	7.42	13.74
26/01/2020 01:31:16	26012020	260120	013116	268.520	12.418767	-57.561397	268.460	-0.010	-0.360	0.370	268.520	-1.600	0.900																			1580002276.0	7.55	13.98
26/01/2020 01:31:17	26012020	260120	013117	268.520	12.418767	-57.561433	268.470	-0.130	-0.660	-0.030	268.530	-1.900	0.500																			1580002277.0	7.91	14.65
26/01/2020 01:31:18	26012020	260120	013118	268.600	12.418763	-57.561472	268.600	-0.230	-0.640	-0.550	268.600	-2.100	0.100																			1580002278.0	8.09	14.98
26/01/2020 01:31:19	26012020	260120	013119	268.730	12.418760	-57.561510	268.790	-0.220	-0.280	-0.990	268.780	-1.900	-0.400																			1580002279.0	8.00	14.82
26/01/2020 01:31:20	26012020	260120	013120	268.990	12.418757	-57.561547	268.940	-0.080	0.080	-1.110	268.990	-1.500	-0.700																			1580002280.0	7.70	14.26
26/01/2020 01:31:21	26012020	260120	013121	269.080	12.418755	-57.561582	268.940	0.090	0.180	-0.840	269.100	-1.200	-0.700																			1580002281.0	7.54	13.96
26/01/2020 01:31:22	26012020	260120	013122	269.050	12.418753	-57.561618	268.830	0.150	0.030	-0.270	269.030	-1.300	-0.200																			1580002282.0	7.69	14.24
26/01/2020 01:31:23	26012020	260120	013123	268.900	12.418757	-57.561657	268.650	0.080	-0.120	0.420	268.860	-1.500	0.400																			1580002283.0	7.99	14.80
26/01/2020 01:31:24	26012020	260120	013124	268.660	12.418760	-57.561693	268.500	-0.020	-0.170	1.030	268.660	-1.600	1.100																			1580002284.0	8.09	14.98
26/01/2020 01:31:25	26012020	260120	013125	268.540	12.418763	-57.561732	268.440	0.010	-0.220	1.390	268.510	-1.600	1.600																			1580002285.0	7.95	14.72
26/01/2020 01:31:26	26012020	260120	013126	268.490	12.418767	-57.561768	268.530	0.120	-0.290	1.400	268.490	-1.700	1.800																			1580002286.0	7.85	14.54
26/01/2020 01:31:27	26012020	260120	013127	268.580	12.418768	-57.561807	268.670	0.180	-0.290	1.030	268.610	-1.700	1.600																			1580002287.0	7.90	14.63
26/01/2020 01:31:28	26012020	260120	013128	268.790	12.418767	-57.561843	268.790	0.110	-0.140	0.430	268.790	-1.600	1.100																			1580002288.0	7.90	14.63
26/01/2020 01:31:29	26012020	260120	013129	268.870	12.418765	-57.561880	268.820	-0.010	0.100	-0.200	268.880	-1.400	0.500																			1580002289.0	7.81	14.46
26/01/2020 01:31:30	26012020	260120	013130	268.890	12.418760	-57.561917	268.750	-0.080	0.230	-0.710	268.890	-1.200	-0.100																			1580002290.0	7.67	14.20
26/01/2020 01:31:31	26012020	260120	013131	268.830	12.418757	-57.561952	268.620	-0.120	0.110	-0.970	268.810	-1.200	-0.500																			1580002291.0	7.61	14.09
26/01/2020 01:31:32	26012020	260120	013132	268.690	12.418753	-57.561988	268.520	-0.180	-0.210	-0.970	268.690	-1.400	-0.600																			1580002292.0	7.72	14.30
26/01/2020 01:31:33	26012020	260120	013133	268.630	12.418753	-57.562027	268.540	-0.210	-0.520	-0.810	268.630	-1.800	-0.500																			1580002293.0	7.91	14.65
26/01/2020 01:31:34	26012020	260120	013134	268.680	12.418752	-57.562063	268.650	-0.140	-0.620	-0.570	268.680	-2.000	-0.300																			1580002294.0	8.01	14.83
26/01/2020 01:31:35	26012020	260120	013135	268.800	12.418752	-57.562102	268.830	0.060	-0.550	-0.270	268.830	-2.000	-0.100																			1580002295.0	7.92	14.67
26/01/2020 01:31:36	26012020	260120	013136	268.980	12.418753	-57.562138	269.010	0.260	-0.400	0.140	269.020	-1.900	0.300																			1580002296.0	7.79	14.43
26/01/2020 01:31:37	26012020	260120	013137	269.130	12.418755	-57.562175	269.080	0.320	-0.190	0.670	269.150	-1.700	0.800																			1580002297.0	7.82	14.48
26/01/2020 01:31:38	26012020	260120	013138	269.170	12.418757	-57.562212	269.030	0.200	0.070	1.190	269.170	-1.400	1.300																			1580002298.0	7.88	14.59
26/01/2020 01:31:39	26012020	260120	013139	269.070	12.418762	-57.562248	268.820	-0.000	0.300	1.510	269.030	-1.200	1.700																			1580002299.0	7.86	14.56
26/01/2020 01:31:40	26012020	260120	013140	268.750	12.418765	-57.562287	268.570	-0.180	0.370	1.450	268.750	-1.000	1.900																			1580002300.0	7.79	14.43
26/01/2020 01:31:41	26012020	260120	013141	268.590	12.418765	-57.562323	268.520	-0.280	0.240	0.930	268.570	-1.100	1.600																			1580002301.0	7.77	14.39
26/01/2020 01:31:42	26012020	260120	013142	268.600	12.418763	-57.562360	268.650	-0.260	-0.060	0.120	268.600	-1.300	0.900																			1580002302.0	7.83	14.50
26/01/2020 01:31:43	26012020	260120	013143	268.740	12.418758	-57.562397	268.850	-0.130	-0.390	-0.720	268.780	-1.600	0.000																			1580002303.0	7.94	14.70
26/01/2020 01:31:44	26012020	260120	013144	268.950	12.418753	-57.562435	268.980	0.050	-0.570	-1.300	268.990	-1.900	-0.700																			1580002304.0	8.05	14.91
26/01/2020 01:31:45	26012020	260120	013145	269.110	12.418748	-57.562472	269.060	0.170	-0.550	-1.410	269.140	-2.000	-1.100																			1580002305.0	8.01	14.83
26/01/2020 01:31:46	26012020	260120	013146	269.240	12.418745	-57.562508	269.130	0.180	-0.420	-1.070	269.240	-1.900	-0.900																			1580002306.0	7.81	14.46
26/01/2020 01:31:47	26012020	260120	013147	269.280	12.418745	-57.562545	269.120	0.120	-0.190	-0.430	269.280	-1.700	-0.400																			1580002307.0	7.72	14.30
26/01/2020 01:31:48	26012020	260120	013148	269.240	12.418750	-57.562582	269.080	0.070	0.010	0.180	269.230	-1.500	0.300																			1580002308.0	7.72	14.30
26/01/2020 01:31:49	26012020	260120	013149	269.180	12.418753	-57.562618	269.030	0.060	0.020	0.600	269.170	-1.400	0.800																			1580002309.0	7.72	14.30
26/01/2020 01:31:50	26012020	260120	013150	269.120	12.418757	-57.562655	268.990	0.010	-0.070	0.850	269.110	-1.400	1.100																			1580002310.0	7.83	14.50
26/01/2020 01:31:51	26012020	260120	013151	269.060	12.418757	-57.562693	268.980	-0.130	-0.000	0.960	269.050	-1.400	1.300																			1580002311.0	8.01	14.83
26/01/2020 01:31:52	26012020	260120	013152	269.030	12.418758	-57.562730	268.980	-0.260	0.140	0.900	269.030	-1.300	1.300																			1580002312.0	7.93	14.69
26/01/2020 01:31:53	26012020	260120	013153	269.050	12.418758	-57.562767	269.000	-0.220	0.070	0.660	269.050	-1.300	1.200																			1580002313.0	7.67	14.20
26/01/2020 01:31:54	26012020	260120	013154	269.110	12.418757	-57.562803	269.100	0.000	-0.220	0.290	269.110	-1.500	0.800																			1580002314.0	7.66	14.19
26/01/2020 01:31:55	26012020	260120	013155	269.190	12.418755	-57.562840	269.230	0.210	-0.530	-0.070	269.220	-1.800	0.500																			1580002315.0	7.92	14.67
26/01/2020 01:31:56	26012020	260120	013156	269.350	12.418752	-57.562878	269.310	0.230	-0.570	-0.320	269.350	-2.000	0.200																			1580002316.0	8.09	14.98
26/01/2020 01:31:57	26012020	260120	013157	269.400	12.418750	-57.562917	269.320	0.110	-0.380	-0.470	269.410	-1.900	-0.000																			1580002317.0	7.97	14.76
26/01/2020 01:31:58	26012020	260120	013158	269.390	12.418750	-57.562953	269.290	-0.030	-0.170	-0.570	269.390	-1.700	-0.200																			1580002318.0	7.70	14.26
26/01/2020 01:31:59	26012020	260120	013159	269.360	12.418750	-57.562988	269.260	-0.100	-0.050	-0.600	269.350	-1.500	-0.200	1015.30	25.40	25.50	21.70	21.70	-1.00	80.00	79.00	391.00	24.60	68.00	5.30	22.00	5.30	14	3332.00	27.40	27.40	1580002319.0	7.63	14.13
26/01/2020 01:32:00	26012020	260120	013200	269.320	12.418750	-57.563025	269.240	-0.090	0.070	-0.530	269.320	-1.400	-0.200																			1580002320.0	7.77	14.39
26/01/2020 01:32:01	26012020	260120	013201	269.320	12.418750	-57.563063	269.270	-0.070	0.200	-0.290	269.330	-1.300	-0.100																			1580002321.0	7.87	14.58
26/01/2020 01:32:02	26012020	260120	013202	269.360	12.418750	-57.563100	269.320	-0.060	0.210	0.080	269.380	-1.200	0.300																			1580002322.0	7.80	14.45
26/01/2020 01:32:03	26012020	260120	013203	269.400	12.418752	-57.563137	269.330	-0.000	-0.010	0.530	269.400	-1.300	0.700																			1580002323.0	7.74	14.33
26/01/2020 01:32:04	26012020	260120	013204	269.360	12.418753	-57.563173	269.320	0.070	-0.320	0.890	269.360	-1.600	1.100																			1580002324.0	7.87	14.58
26/01/2020 01:32:05	26012020	260120	013205	269.360	12.418757	-57.563212	269.350	0.070	-0.530	0.970	269.360	-1.800	1.300																			1580002325.0	8.02	14.85
26/01/2020 01:32:06	26012020	260120	013206	269.390	12.418758	-57.563248	269.380	-0.010	-0.520	0.820	269.390	-1.900	1.300																			1580002326.0	7.99	14.80
26/01/2020 01:32:07	26012020	260120	013207	269.420	12.418757	-57.563287	269.390	-0.070	-0.350	0.530	269.420	-1.800	1.000																			1580002327.0	7.82	14.48
26/01/2020 01:32:08	26012020	260120	013208	269.440	12.418755	-57.563322	269.430	-0.040	-0.150	0.130	269.450	-1.600	0.700																			1580002328.0	7.69	14.24
26/01/2020 01:32:09	26012020	260120	013209	269.500	12.418753	-57.563358	269.570	0.060	-0.030	-0.330	269.520	-1.500	0.300																			1580002329.0	7.68	14.22
26/01/2020 01:32:10	26012020	260120	013210	269.660	12.418752	-57.563395	269.680	0.100	0.020	-0.690	269.660	-1.400	-0.200																			1580002330.0	7.78	14.41
26/01/2020 01:32:11	26012020	260120	013211	269.740	12.418750	-57.563433	269.650	0.050	-0.000	-0.750	269.740	-1.400	-0.400																			1580002331.0	7.88	14.59
26/01/2020 01:32:12	26012020	260120	013212	269.660	12.418750	-57.563470	269.520	-0.030	-0.040	-0.480	269.660	-1.400	-0.300																			1580002332.0	7.91	14.65
26/01/2020 01:32:13	26012020	260120	013213	269.530	12.418750	-57.563507	269.420	-0.090	-0.060	-0.110	269.500	-1.400	0.100																			1580002333.0	7.88	14.59
26/01/2020 01:32:14	26012020	260120	013214	269.450	12.418752	-57.563545	269.430	-0.110	-0.060	0.190	269.450	-1.400	0.400																			1580002334.0	7.84	14.52
26/01/2020 01:32:15	26012020	260120	013215	269.470	12.418753	-57.563582	269.460	-0.080	-0.150	0.370	269.480	-1.500	0.700																			1580002335.0	7.77	14.39
26/01/2020 01:32:16	26012020	260120	013216	269.530	12.418755	-57.563618	269.500	-0.020	-0.300	0.400	269.530	-1.600	0.800																			1580002336.0	7.76	14.37
26/01/2020 01:32:17	26012020	260120	013217	269.550	12.418755	-57.563655	269.500	0.040	-0.370	0.360	269.560	-1.700	0.700																			1580002337.0	7.87	14.58
26/01/2020 01:32:18	26012020	260120	013218	269.550	12.418755	-57.563692	269.520	0.050	-0.370	0.250	269.550	-1.800	0.700																			1580002338.0	7.91	14.65
26/01/2020 01:32:19	26012020	260120	013219	269.570	12.418755	-57.563730	269.610	0.050	-0.420	0.050	269.580	-1.800	0.500																			1580002339.0	7.83	14.50
26/01/2020 01:32:20	26012020	260120	013220	269.710	12.418753	-57.563767	269.720	0.070	-0.430	-0.100	269.710	-1.800	0.300																			1580002340.0	7.87	14.58
26/01/2020 01:32:21	26012020	260120	013221	269.780	12.418753	-57.563805	269.750	0.070	-0.180	-0.080	269.790	-1.700	0.200																			1580002341.0	8.01	14.83
26/01/2020 01:32:22	26012020	260120	013222	269.770	12.418753	-57.563842	269.690	-0.010	0.310	0.080	269.770	-1.300	0.400																			1580002342.0	7.93	14.69
26/01/2020 01:32:23	26012020	260120	013223	269.710	12.418755	-57.563878	269.580	-0.120	0.640	0.280	269.680	-0.900	0.500																			1580002343.0	7.63	14.13
26/01/2020 01:32:24	26012020	260120	013224	269.540	12.418755	-57.563913	269.420	-0.140	0.470	0.340	269.540	-0.800	0.700																			1580002344.0	7.46	13.82
26/01/2020 01:32:25	26012020	260120	013225	269.410	12.418757	-57.563950	269.330	-0.060	-0.100	0.190	269.400	-1.200	0.700																			1580002345.0	7.70	14.26
26/01/2020 01:32:26	26012020	260120	013226	269.350	12.418755	-57.563988	269.340	0.050	-0.670	-0.080	269.350	-1.800	0.400																			1580002346.0	8.10	15.00
26/01/2020 01:32:27	26012020	260120	013227	269.390	12.418753	-57.564027	269.410	0.080	-0.930	-0.360	269.400	-2.200	0.100																			1580002347.0	8.24	15.26
26/01/2020 01:32:28	26012020	260120	013228	269.510	12.418753	-57.564065	269.540	0.050	-0.780	-0.590	269.510	-2.300	-0.100																			1580002348.0	8.06	14.93
26/01/2020 01:32:29	26012020	260120	013229	269.650	12.418752	-57.564102	269.760	0.010	-0.390	-0.740	269.690	-2.000	-0.300																			1580002349.0	7.77	14.39
26/01/2020 01:32:30	26012020	260120	013230	269.920	12.418750	-57.564138	269.960	-0.020	-0.010	-0.700	269.920	-1.600	-0.400																			1580002350.0	7.57	14.02
26/01/2020 01:32:31	26012020	260120	013231	270.050	12.418750	-57.564173	270.020	-0.050	0.180	-0.400	270.070	-1.300	-0.200																			1580002351.0	7.58	14.04
26/01/2020 01:32:32	26012020	260120	013232	270.050	12.418752	-57.564210	269.880	-0.060	0.270	0.130	270.050	-1.200	0.200																			1580002352.0	7.79	14.43
26/01/2020 01:32:33	26012020	260120	013233	269.890	12.418753	-57.564248	269.620	-0.030	0.350	0.730	269.830	-1.100	0.800																			1580002353.0	7.96	14.74
26/01/2020 01:32:34	26012020	260120	013234	269.510	12.418755	-57.564285	269.310	-0.000	0.310	1.190	269.510	-1.000	1.400																			1580002354.0	7.92	14.67
26/01/2020 01:32:35	26012020	260120	013235	269.270	12.418758	-57.564322	269.140	0.030	-0.020	1.250	269.220	-1.200	1.600																			1580002355.0	7.80	14.45
26/01/2020 01:32:36	26012020	260120	013236	269.160	12.418760	-57.564360	269.250	0.110	-0.550	0.840	269.160	-1.700	1.400																			1580002356.0	7.86	14.56
26/01/2020 01:32:37	26012020	260120	013237	269.310	12.418760	-57.564398	269.500	0.270	-0.930	0.190	269.360	-2.200	0.900																			1580002357.0	8.06	14.93
26/01/2020 01:32:38	26012020	260120	013238	269.600	12.418758	-57.564437	269.710	0.380	-0.920	-0.400	269.640	-2.400	0.200																			1580002358.0	8.14	15.08
26/01/2020 01:32:39	26012020	260120	013239	269.810	12.418755	-57.564473	269.810	0.230	-0.510	-0.760	269.830	-2.100	-0.300																			1580002359.0	7.99	14.80
26/01/2020 01:32:40	26012020	260120	013240	269.890	12.418753	-57.564510	269.790	-0.190	0.130	-0.870	269.890	-1.600	-0.500																			1580002360.0	7.74	14.33
26/01/2020 01:32:41	26012020	260120	013241	269.840	12.418752	-57.564547	269.670	-0.610	0.680	-0.740	269.810	-1.000	-0.500																			1580002361.0	7.52	13.93
26/01/2020 01:32:42	26012020	260120	013242	269.660	12.418752	-57.564582	269.490	-0.680	0.800	-0.500	269.660	-0.600	-0.300																			1580002362.0	7.41	13.72
26/01/2020 01:32:43	26012020	260120	013243	269.510	12.418752	-57.564617	269.350	-0.350	0.330	-0.290	269.470	-0.800	-0.000																			1580002363.0	7.56	14.00
26/01/2020 01:32:44	26012020	260120	013244	269.360	12.418752	-57.564655	269.330	0.130	-0.440	-0.100	269.360	-1.400	0.200																			1580002364.0	8.00	14.82
26/01/2020 01:32:45	26012020	260120	013245	269.380	12.418752	-57.564695	269.430	0.410	-0.960	0.170	269.390	-2.200	0.400																			1580002365.0	8.42	15.59
26/01/2020 01:32:46	26012020	260120	013246	269.490	12.418752	-57.564735	269.550	0.380	-0.880	0.530	269.520	-2.400	0.700																			1580002366.0	8.41	15.58
26/01/2020 01:32:47	26012020	260120	013247	269.610	12.418755	-57.564772	269.630	0.200	-0.400	0.910	269.630	-2.000	1.100																			1580002367.0	7.95	14.72
26/01/2020 01:32:48	26012020	260120	013248	269.680	12.418757	-57.564807	269.640	0.050	0.060	1.170	269.680	-1.500	1.400																			1580002368.0	7.47	13.83
26/01/2020 01:32:49	26012020	260120	013249	269.660	12.418760	-57.564842	269.560	-0.000	0.250	1.200	269.640	-1.200	1.600																			1580002369.0	7.38	13.67
26/01/2020 01:32:50	26012020	260120	013250	269.530	12.418762	-57.564878	269.410	0.010	0.150	0.990	269.530	-1.200	1.500																			1580002370.0	7.63	14.13
26/01/2020 01:32:51	26012020	260120	013251	269.410	12.418762	-57.564915	269.310	0.020	-0.090	0.550	269.390	-1.400	1.100																			1580002371.0	7.93	14.69
26/01/2020 01:32:52	26012020	260120	013252	269.330	12.418760	-57.564953	269.320	0.020	-0.270	-0.040	269.330	-1.600	0.600																			1580002372.0	8.14	15.08
26/01/2020 01:32:53	26012020	260120	013253	269.380	12.418757	-57.564992	269.450	0.010	-0.280	-0.640	269.400	-1.700	0.000																			1580002373.0	8.13	15.06
26/01/2020 01:32:54	26012020	260120	013254	269.560	12.418753	-57.565030	269.570	-0.040	-0.180	-1.040	269.560	-1.600	-0.500																			1580002374.0	7.99	14.80
26/01/2020 01:32:55	26012020	260120	013255	269.660	12.418750	-57.565067	269.600	-0.120	-0.060	-1.080	269.670	-1.500	-0.700																			1580002375.0	7.81	14.46
26/01/2020 01:32:56	26012020	260120	013256	269.680	12.418750	-57.565103	269.570	-0.170	0.050	-0.770	269.680	-1.400	-0.600																			1580002376.0	7.73	14.32
26/01/2020 01:32:57	26012020	260120	013257	269.640	12.418750	-57.565140	269.520	-0.140	0.050	-0.310	269.630	-1.300	-0.200																			1580002377.0	7.68	14.22
26/01/2020 01:32:58	26012020	260120	013258	269.550	12.418752	-57.565177	269.450	0.020	-0.180	0.140	269.550	-1.400	0.300																			1580002378.0	7.66	14.19
26/01/2020 01:32:59	26012020	260120	013259	269.490	12.418755	-57.565213	269.380	0.200	-0.440	0.520	269.470	-1.700	0.700	1015.30	25.30	25.40	21.60	21.60	-1.00	79.00	79.00	391.00	24.60	70.00	5.30	24.00	5.50	14	3505.00	27.40	27.40	1580002379.0	7.84	14.52
26/01/2020 01:33:00	26012020	260120	013300	269.420	12.418757	-57.565252	269.370	0.250	-0.480	0.820	269.410	-1.900	1.000																			1580002380.0	8.06	14.93
26/01/2020 01:33:01	26012020	260120	013301	269.410	12.418757	-57.565288	269.380	0.170	-0.300	1.000	269.410	-1.800	1.300																			1580002381.0	8.00	14.82
26/01/2020 01:33:02	26012020	260120	013302	269.410	12.418760	-57.565325	269.400	0.030	-0.090	1.000	269.420	-1.600	1.400																			1580002382.0	7.79	14.43
26/01/2020 01:33:03	26012020	260120	013303	269.450	12.418762	-57.565362	269.490	-0.090	0.010	0.780	269.460	-1.400	1.300																			1580002383.0	7.68	14.22
26/01/2020 01:33:04	26012020	260120	013304	269.590	12.418762	-57.565398	269.670	-0.170	-0.110	0.370	269.590	-1.400	0.900																			1580002384.0	7.74	14.33
26/01/2020 01:33:05	26012020	260120	013305	269.750	12.418760	-57.565435	269.840	-0.210	-0.310	-0.170	269.790	-1.600	0.500																			1580002385.0	7.89	14.61
26/01/2020 01:33:06	26012020	260120	013306	269.910	12.418757	-57.565473	269.860	-0.210	-0.340	-0.620	269.930	-1.800	-0.100																			1580002386.0	8.09	14.98
26/01/2020 01:33:07	26012020	260120	013307	269.910	12.418753	-57.565512	269.740	-0.130	-0.130	-0.900	269.890	-1.600	-0.400																			1580002387.0	8.08	14.96
26/01/2020 01:33:08	26012020	260120	013308	269.750	12.418750	-57.565548	269.580	0.020	0.080	-0.920	269.750	-1.400	-0.600																			1580002388.0	7.82	14.48
26/01/2020 01:33:09	26012020	260120	013309	269.630	12.418748	-57.565585	269.460	0.170	0.140	-0.620	269.600	-1.300	-0.400																			1580002389.0	7.66	14.19
26/01/2020 01:33:10	26012020	260120	013310	269.490	12.418750	-57.565622	269.360	0.230	0.100	-0.040	269.490	-1.300	0.000																			1580002390.0	7.76	14.37
26/01/2020 01:33:11	26012020	260120	013311	269.390	12.418753	-57.565658	269.270	0.180	-0.030	0.540	269.360	-1.400	0.600																			1580002391.0	7.90	14.63
26/01/2020 01:33:12	26012020	260120	013312	269.280	12.418758	-57.565697	269.260	0.060	-0.210	0.890	269.280	-1.500	1.100																			1580002392.0	7.94	14.70
26/01/2020 01:33:13	26012020	260120	013313	269.280	12.418762	-57.565733	269.330	-0.040	-0.300	0.830	269.290	-1.700	1.300																			1580002393.0	7.94	14.70
26/01/2020 01:33:14	26012020	260120	013314	269.380	12.418763	-57.565770	269.480	-0.120	-0.300	0.520	269.410	-1.700	1.100																			1580002394.0	7.85	14.54
26/01/2020 01:33:15	26012020	260120	013315	269.540	12.418762	-57.565807	269.610	-0.150	-0.320	0.090	269.570	-1.700	0.700																			1580002395.0	7.74	14.33
26/01/2020 01:33:16	26012020	260120	013316	269.670	12.418758	-57.565843	269.680	-0.140	-0.400	-0.290	269.690	-1.800	0.200																			1580002396.0	7.74	14.33
26/01/2020 01:33:17	26012020	260120	013317	269.730	12.418757	-57.565882	269.650	-0.070	-0.440	-0.460	269.730	-1.800	-0.000																			1580002397.0	7.87	14.58
26/01/2020 01:33:18	26012020	260120	013318	269.710	12.418753	-57.565918	269.600	0.050	-0.390	-0.370	269.710	-1.800	-0.100																			1580002398.0	7.95	14.72
26/01/2020 01:33:19	26012020	260120	013319	269.660	12.418753	-57.565957	269.540	0.140	-0.210	-0.080	269.640	-1.700	0.100																			1580002399.0	7.93	14.69
26/01/2020 01:33:20	26012020	260120	013320	269.590	12.418753	-57.565993	269.490	0.120	0.030	0.240	269.580	-1.500	0.400																			1580002400.0	7.88	14.59
26/01/2020 01:33:21	26012020	260120	013321	269.540	12.418757	-57.566030	269.420	0.000	0.240	0.500	269.520	-1.300	0.800																			1580002401.0	7.83	14.50
26/01/2020 01:33:22	26012020	260120	013322	269.440	12.418760	-57.566067	269.320	-0.160	0.280	0.580	269.440	-1.100	0.900																			1580002402.0	7.78	14.41
26/01/2020 01:33:23	26012020	260120	013323	269.360	12.418762	-57.566103	269.240	-0.240	0.110	0.480	269.340	-1.200	0.900																			1580002403.0	7.79	14.43
26/01/2020 01:33:24	26012020	260120	013324	269.260	12.418760	-57.566142	269.220	-0.190	-0.150	0.290	269.260	-1.400	0.800																			1580002404.0	7.90	14.63
26/01/2020 01:33:25	26012020	260120	013325	269.270	12.418758	-57.566178	269.260	-0.080	-0.320	0.080	269.280	-1.700	0.500																			1580002405.0	8.02	14.85
26/01/2020 01:33:26	26012020	260120	013326	269.350	12.418757	-57.566217	269.350	-0.010	-0.310	-0.110	269.350	-1.700	0.300																			1580002406.0	8.00	14.82
26/01/2020 01:33:27	26012020	260120	013327	269.440	12.418757	-57.566253	269.450	-0.020	-0.220	-0.250	269.460	-1.700	0.200																			1580002407.0	7.83	14.50
26/01/2020 01:33:28	26012020	260120	013328	269.530	12.418755	-57.566290	269.490	0.020	-0.220	-0.300	269.540	-1.600	0.100																			1580002408.0	7.66	14.19
26/01/2020 01:33:29	26012020	260120	013329	269.560	12.418755	-57.566327	269.430	0.160	-0.310	-0.150	269.550	-1.700	0.100																			1580002409.0	7.68	14.22
26/01/2020 01:33:30	26012020	260120	013330	269.480	12.418755	-57.566363	269.320	0.320	-0.420	0.140	269.460	-1.800	0.400																			1580002410.0	7.85	14.54
26/01/2020 01:33:31	26012020	260120	013331	269.370	12.418757	-57.566402	269.250	0.360	-0.390	0.410	269.350	-1.800	0.700																			1580002411.0	7.98	14.78
26/01/2020 01:33:32	26012020	260120	013332	269.320	12.418758	-57.566438	269.300	0.220	-0.180	0.550	269.320	-1.700	0.900																			1580002412.0	7.98	14.78
26/01/2020 01:33:33	26012020	260120	013333	269.370	12.418760	-57.566477	269.400	-0.030	0.140	0.530	269.390	-1.400	0.900																			1580002413.0	7.86	14.56
26/01/2020 01:33:34	26012020	260120	013334	269.470	12.418762	-57.566512	269.450	-0.230	0.320	0.410	269.470	-1.100	0.800																			1580002414.0	7.66	14.19
26/01/2020 01:33:35	26012020	260120	013335	269.470	12.418762	-57.566548	269.380	-0.260	0.190	0.310	269.460	-1.100	0.700																			1580002415.0	7.62	14.11
26/01/2020 01:33:36	26012020	260120	013336	269.390	12.418760	-57.566585	269.290	-0.180	-0.140	0.150	269.390	-1.400	0.600																			1580002416.0	7.82	14.48
26/01/2020 01:33:37	26012020	260120	013337	269.320	12.418758	-57.566623	269.250	-0.100	-0.440	-0.130	269.310	-1.700	0.400																			1580002417.0	8.06	14.93
26/01/2020 01:33:38	26012020	260120	013338	269.310	12.418757	-57.566662	269.290	-0.080	-0.520	-0.410	269.310	-1.900	0.100																			1580002418.0	8.12	15.04
26/01/2020 01:33:39	26012020	260120	013339	269.360	12.418755	-57.566700	269.350	-0.070	-0.420	-0.550	269.390	-1.900	-0.100																			1580002419.0	7.97	14.76
26/01/2020 01:33:40	26012020	260120	013340	269.470	12.418753	-57.566737	269.400	-0.030	-0.240	-0.470	269.470	-1.700	-0.200																			1580002420.0	7.79	14.43
26/01/2020 01:33:41	26012020	260120	013341	269.500	12.418753	-57.566773	269.370	0.040	-0.110	-0.140	269.500	-1.600	0.000																			1580002421.0	7.71	14.28
26/01/2020 01:33:42	26012020	260120	013342	269.420	12.418753	-57.566810	269.270	0.060	-0.010	0.310	269.420	-1.500	0.400																			1580002422.0	7.78	14.41
26/01/2020 01:33:43	26012020	260120	013343	269.330	12.418757	-57.566847	269.170	0.040	0.080	0.690	269.310	-1.400	0.900																			1580002423.0	7.87	14.58
26/01/2020 01:33:44	26012020	260120	013344	269.220	12.418760	-57.566883	269.100	0.010	0.110	0.850	269.220	-1.300	1.200																			1580002424.0	7.86	14.56
26/01/2020 01:33:45	26012020	260120	013345	269.180	12.418760	-57.566920	269.100	0.040	-0.040	0.730	269.170	-1.300	1.200																			1580002425.0	7.80	14.45
26/01/2020 01:33:46	26012020	260120	013346	269.180	12.418760	-57.566958	269.140	0.130	-0.290	0.450	269.180	-1.600	1.000																			1580002426.0	7.86	14.56
26/01/2020 01:33:47	26012020	260120	013347	269.240	12.418758	-57.566997	269.230	0.210	-0.470	0.120	269.260	-1.800	0.600																			1580002427.0	8.02	14.85
26/01/2020 01:33:48	26012020	260120	013348	269.370	12.418757	-57.567033	269.300	0.180	-0.370	-0.070	269.370	-1.900	0.400																			1580002428.0	8.08	14.96
26/01/2020 01:33:49	26012020	260120	013349	269.420	12.418757	-57.567072	269.260	0.040	-0.080	-0.070	269.410	-1.600	0.300																			1580002429.0	7.91	14.65
26/01/2020 01:33:50	26012020	260120	013350	269.350	12.418757	-57.567108	269.150	-0.110	0.130	-0.030	269.330	-1.300	0.300																			1580002430.0	7.66	14.19
26/01/2020 01:33:51	26012020	260120	013351	269.230	12.418757	-57.567143	269.060	-0.180	0.050	-0.040	269.210	-1.300	0.300																			1580002431.0	7.53	13.95
26/01/2020 01:33:52	26012020	260120	013352	269.130	12.418757	-57.567180	269.010	-0.150	-0.250	-0.110	269.130	-1.500	0.300																			1580002432.0	7.74	14.33
26/01/2020 01:33:53	26012020	260120	013353	269.120	12.418757	-57.567218	269.050	-0.050	-0.500	-0.210	269.120	-1.800	0.200																			1580002433.0	8.04	14.89
26/01/2020 01:33:54	26012020	260120	013354	269.170	12.418755	-57.567257	269.120	-0.010	-0.440	-0.290	269.180	-1.900	0.100																			1580002434.0	8.18	15.15
26/01/2020 01:33:55	26012020	260120	013355	269.220	12.418753	-57.567295	269.150	-0.080	-0.120	-0.280	269.230	-1.700	0.100																			1580002435.0	8.02	14.85
26/01/2020 01:33:56	26012020	260120	013356	269.270	12.418753	-57.567332	269.170	-0.170	0.200	-0.130	269.270	-1.300	0.100																			1580002436.0	7.71	14.28
26/01/2020 01:33:57	26012020	260120	013357	269.260	12.418753	-57.567367	269.130	-0.140	0.270	0.170	269.250	-1.100	0.400																			1580002437.0	7.57	14.02
26/01/2020 01:33:58	26012020	260120	013358	269.180	12.418753	-57.567403	269.060	0.020	-0.010	0.540	269.180	-1.200	0.700																			1580002438.0	7.65	14.17
26/01/2020 01:33:59	26012020	260120	013359	269.120	12.418755	-57.567440	269.020	0.200	-0.470	0.850	269.110	-1.600	1.100	1015.30	25.30	25.40	21.50	21.50	-1.00	79.00	79.00	391.00	24.60	69.00	4.90	26.00	5.10	14	3458.00	27.40	27.40	1580002439.0	7.93	14.69
26/01/2020 01:34:00	26012020	260120	013400	269.100	12.418757	-57.567480	269.080	0.270	-0.760	0.940	269.110	-2.000	1.300																			1580002440.0	8.21	15.20
26/01/2020 01:34:01	26012020	260120	013401	269.220	12.418758	-57.567518	269.280	0.190	-0.660	0.760	269.250	-2.200	1.200																			1580002441.0	8.23	15.24
26/01/2020 01:34:02	26012020	260120	013402	269.460	12.418758	-57.567557	269.430	0.050	-0.190	0.540	269.460	-1.800	1.000																			1580002442.0	8.00	14.82
26/01/2020 01:34:03	26012020	260120	013403	269.520	12.418758	-57.567592	269.330	-0.040	0.390	0.360	269.510	-1.300	0.800																			1580002443.0	7.69	14.24
26/01/2020 01:34:04	26012020	260120	013404	269.320	12.418757	-57.567628	269.040	-0.060	0.690	0.200	269.320	-0.800	0.600																			1580002444.0	7.46	13.82
26/01/2020 01:34:05	26012020	260120	013405	269.070	12.418757	-57.567663	268.760	-0.060	0.470	-0.010	269.010	-0.800	0.500																			1580002445.0	7.50	13.89
26/01/2020 01:34:06	26012020	260120	013406	268.830	12.418755	-57.567700	268.660	-0.080	-0.090	-0.280	268.800	-1.200	0.200																			1580002446.0	7.82	14.48
26/01/2020 01:34:07	26012020	260120	013407	268.780	12.418753	-57.567738	268.810	-0.080	-0.610	-0.580	268.790	-1.800	-0.100																			1580002447.0	8.14	15.08
26/01/2020 01:34:08	26012020	260120	013408	269.020	12.418752	-57.567777	269.100	-0.030	-0.900	-0.800	269.020	-2.200	-0.300																			1580002448.0	8.18	15.15
26/01/2020 01:34:09	26012020	260120	013409	269.280	12.418748	-57.567815	269.400	0.050	-0.910	-0.820	269.340	-2.300	-0.500																			1580002449.0	8.00	14.82
26/01/2020 01:34:10	26012020	260120	013410	269.570	12.418748	-57.567852	269.490	0.060	-0.560	-0.530	269.570	-2.200	-0.400																			1580002450.0	7.89	14.61
26/01/2020 01:34:11	26012020	260120	013411	269.590	12.418748	-57.567890	269.400	-0.030	0.000	-0.020	269.580	-1.700	0.100																			1580002451.0	7.76	14.37
26/01/2020 01:34:12	26012020	260120	013412	269.420	12.418750	-57.567925	269.230	-0.090	0.430	0.500	269.420	-1.100	0.600																			1580002452.0	7.58	14.04
26/01/2020 01:34:13	26012020	260120	013413	269.270	12.418753	-57.567960	269.090	0.020	0.390	0.820	269.230	-0.900	1.100																			1580002453.0	7.53	13.95
26/01/2020 01:34:14	26012020	260120	013414	269.120	12.418755	-57.567997	268.990	0.200	-0.020	0.940	269.100	-1.200	1.300																			1580002454.0	7.83	14.50
26/01/2020 01:34:15	26012020	260120	013415	269.030	12.418757	-57.568037	268.980	0.200	-0.380	0.920	269.030	-1.600	1.300																			1580002455.0	8.23	15.24
26/01/2020 01:34:16	26012020	260120	013416	269.070	12.418757	-57.568075	269.050	-0.040	-0.400	0.760	269.070	-1.800	1.200																			1580002456.0	8.31	15.39
26/01/2020 01:34:17	26012020	260120	013417	269.160	12.418757	-57.568113	269.130	-0.330	-0.080	0.500	269.180	-1.700	1.000																			1580002457.0	8.04	14.89
26/01/2020 01:34:18	26012020	260120	013418	269.230	12.418755	-57.568150	269.130	-0.420	0.280	0.260	269.230	-1.300	0.700																			1580002458.0	7.63	14.13
26/01/2020 01:34:19	26012020	260120	013419	269.190	12.418753	-57.568185	269.040	-0.230	0.280	0.040	269.180	-1.100	0.500																			1580002459.0	7.40	13.70
26/01/2020 01:34:20	26012020	260120	013420	269.110	12.418750	-57.568220	268.970	0.090	-0.180	-0.250	269.100	-1.300	0.300																			1580002460.0	7.54	13.96
26/01/2020 01:34:21	26012020	260120	013421	269.040	12.418748	-57.568258	268.920	0.310	-0.690	-0.540	269.030	-1.900	-0.000																			1580002461.0	7.98	14.78
26/01/2020 01:34:22	26012020	260120	013422	269.040	12.418747	-57.568297	269.000	0.310	-0.810	-0.710	269.040	-2.200	-0.300																			1580002462.0	8.29	15.35
26/01/2020 01:34:23	26012020	260120	013423	269.120	12.418745	-57.568335	269.120	0.190	-0.520	-0.620	269.140	-2.100	-0.300																			1580002463.0	8.11	15.02
26/01/2020 01:34:24	26012020	260120	013424	269.280	12.418745	-57.568372	269.280	0.140	-0.160	-0.360	269.280	-1.700	-0.100																			1580002464.0	7.68	14.22
26/01/2020 01:34:25	26012020	260120	013425	269.410	12.418747	-57.568407	269.440	0.150	0.030	-0.020	269.450	-1.400	0.200																			1580002465.0	7.51	13.91
26/01/2020 01:34:26	26012020	260120	013426	269.560	12.418748	-57.568443	269.480	0.110	0.090	0.420	269.560	-1.300	0.600																			1580002466.0	7.72	14.30
26/01/2020 01:34:27	26012020	260120	013427	269.530	12.418750	-57.568482	269.350	-0.050	0.090	0.850	269.510	-1.300	1.000																			1580002467.0	7.94	14.70
26/01/2020 01:34:28	26012020	260120	013428	269.340	12.418753	-57.568518	269.160	-0.230	0.150	1.100	269.340	-1.300	1.400																			1580002468.0	8.02	14.85
26/01/2020 01:34:29	26012020	260120	013429	269.170	12.418755	-57.568557	268.980	-0.310	0.240	1.050	269.130	-1.200	1.500																			1580002469.0	7.91	14.65
26/01/2020 01:34:30	26012020	260120	013430	268.970	12.418755	-57.568593	268.890	-0.260	0.230	0.690	268.970	-1.100	1.300																			1580002470.0	7.72	14.30
26/01/2020 01:34:31	26012020	260120	013431	268.940	12.418753	-57.568628	268.920	-0.130	-0.050	0.130	268.940	-1.300	0.800																			1580002471.0	7.63	14.13
26/01/2020 01:34:32	26012020	260120	013432	269.020	12.418750	-57.568665	269.050	0.010	-0.530	-0.470	269.020	-1.700	0.200																			1580002472.0	7.73	14.32
26/01/2020 01:34:33	26012020	260120	013433	269.170	12.418745	-57.568703	269.240	0.100	-0.930	-0.890	269.210	-2.200	-0.300																			1580002473.0	8.00	14.82
26/01/2020 01:34:34	26012020	260120	013434	269.380	12.418742	-57.568742	269.410	0.130	-0.950	-1.000	269.410	-2.400	-0.600																			1580002474.0	8.13	15.06
26/01/2020 01:34:35	26012020	260120	013435	269.530	12.418740	-57.568780	269.520	0.120	-0.590	-0.760	269.550	-2.200	-0.600																			1580002475.0	8.00	14.82
26/01/2020 01:34:36	26012020	260120	013436	269.640	12.418740	-57.568815	269.620	0.110	-0.090	-0.300	269.640	-1.700	-0.200																			1580002476.0	7.71	14.28
26/01/2020 01:34:37	26012020	260120	013437	269.720	12.418742	-57.568852	269.710	0.100	0.310	0.250	269.730	-1.300	0.300																			1580002477.0	7.58	14.04
26/01/2020 01:34:38	26012020	260120	013438	269.780	12.418747	-57.568888	269.720	0.070	0.460	0.740	269.780	-1.000	0.900																			1580002478.0	7.68	14.22
26/01/2020 01:34:39	26012020	260120	013439	269.750	12.418750	-57.568925	269.610	0.020	0.340	1.060	269.730	-1.000	1.300																			1580002479.0	7.84	14.52
26/01/2020 01:34:40	26012020	260120	013440	269.580	12.418752	-57.568962	269.460	-0.080	0.020	1.050	269.580	-1.200	1.500																			1580002480.0	7.96	14.74
26/01/2020 01:34:41	26012020	260120	013441	269.470	12.418753	-57.569000	269.350	-0.190	-0.260	0.700	269.450	-1.500	1.300																			1580002481.0	8.06	14.93
26/01/2020 01:34:42	26012020	260120	013442	269.390	12.418752	-57.569038	269.330	-0.240	-0.280	0.160	269.390	-1.700	0.800																			1580002482.0	8.07	14.95
26/01/2020 01:34:43	26012020	260120	013443	269.390	12.418748	-57.569075	269.350	-0.170	-0.120	-0.330	269.400	-1.600	0.300																			1580002483.0	7.89	14.61
26/01/2020 01:34:44	26012020	260120	013444	269.440	12.418745	-57.569112	269.420	-0.030	-0.020	-0.590	269.450	-1.400	-0.100																			1580002484.0	7.63	14.13
26/01/2020 01:34:45	26012020	260120	013445	269.520	12.418742	-57.569147	269.540	0.110	-0.120	-0.590	269.550	-1.400	-0.300																			1580002485.0	7.54	13.96
26/01/2020 01:34:46	26012020	260120	013446	269.680	12.418740	-57.569183	269.680	0.190	-0.370	-0.430	269.680	-1.600	-0.200																			1580002486.0	7.66	14.19
26/01/2020 01:34:47	26012020	260120	013447	269.790	12.418742	-57.569220	269.830	0.230	-0.590	-0.240	269.820	-1.900	0.000																			1580002487.0	7.87	14.58
26/01/2020 01:34:48	26012020	260120	013448	269.960	12.418743	-57.569258	269.960	0.250	-0.650	-0.080	269.960	-2.000	0.200																			1580002488.0	7.96	14.74
26/01/2020 01:34:49	26012020	260120	013449	270.050	12.418745	-57.569295	270.020	0.220	-0.470	0.100	270.070	-2.000	0.400																			1580002489.0	7.94	14.70
26/01/2020 01:34:50	26012020	260120	013450	270.100	12.418747	-57.569333	270.010	0.090	-0.090	0.350	270.090	-1.700	0.600																			1580002490.0	7.85	14.54
26/01/2020 01:34:51	26012020	260120	013451	270.030	12.418747	-57.569368	269.890	-0.110	0.240	0.650	270.010	-1.300	0.900																			1580002491.0	7.67	14.20
26/01/2020 01:34:52	26012020	260120	013452	269.860	12.418748	-57.569405	269.730	-0.270	0.330	0.860	269.860	-1.100	1.100																			1580002492.0	7.61	14.09
26/01/2020 01:34:53	26012020	260120	013453	269.730	12.418750	-57.569442	269.590	-0.310	0.180	0.920	269.700	-1.100	1.300																			1580002493.0	7.72	14.30
26/01/2020 01:34:54	26012020	260120	013454	269.600	12.418752	-57.569478	269.530	-0.220	-0.080	0.760	269.570	-1.400	1.200																			1580002494.0	7.91	14.65
26/01/2020 01:34:55	26012020	260120	013455	269.560	12.418750	-57.569517	269.620	-0.080	-0.260	0.360	269.580	-1.600	0.900																			1580002495.0	8.06	14.93
26/01/2020 01:34:56	26012020	260120	013456	269.680	12.418748	-57.569555	269.810	0.020	-0.320	-0.200	269.720	-1.700	0.400																			1580002496.0	8.01	14.83
26/01/2020 01:34:57	26012020	260120	013457	269.890	12.418747	-57.569592	270.000	0.070	-0.340	-0.710	269.940	-1.700	-0.100																			1580002497.0	7.87	14.58
26/01/2020 01:34:58	26012020	260120	013458	270.100	12.418743	-57.569628	270.090	0.070	-0.360	-0.930	270.100	-1.800	-0.500																			1580002498.0	7.81	14.46
26/01/2020 01:34:59	26012020	260120	013459	270.140	12.418742	-57.569667	270.080	0.060	-0.260	-0.780	270.140	-1.700	-0.500	1015.30	25.40	25.40	21.60	21.60	-1.00	79.00	79.00	391.00	24.60	67.00	4.70	27.00	4.90	14	3598.00	27.40	27.40	1580002499.0	7.83	14.50
26/01/2020 01:35:00	26012020	260120	013500	270.110	12.418742	-57.569703	270.040	0.030	-0.080	-0.380	270.110	-1.600	-0.200																			1580002500.0	7.81	14.46
26/01/2020 01:35:01	26012020	260120	013501	270.080	12.418743	-57.569740	270.010	-0.000	0.040	0.100	270.070	-1.400	0.200																			1580002501.0	7.70	14.26
26/01/2020 01:35:02	26012020	260120	013502	270.030	12.418747	-57.569775	269.950	-0.020	0.020	0.470	270.020	-1.400	0.700																			1580002502.0	7.67	14.20
26/01/2020 01:35:03	26012020	260120	013503	269.950	12.418748	-57.569812	269.860	0.020	-0.130	0.700	269.940	-1.500	1.000																			1580002503.0	7.75	14.35
26/01/2020 01:35:04	26012020	260120	013504	269.840	12.418750	-57.569850	269.810	0.090	-0.240	0.750	269.840	-1.600	1.100																			1580002504.0	7.90	14.63
26/01/2020 01:35:05	26012020	260120	013505	269.820	12.418750	-57.569887	269.870	0.130	-0.230	0.700	269.830	-1.700	1.100																			1580002505.0	7.96	14.74
26/01/2020 01:35:06	26012020	260120	013506	269.900	12.418750	-57.569925	269.970	0.110	-0.080	0.620	269.920	-1.600	1.000																			1580002506.0	7.89	14.61
26/01/2020 01:35:07	26012020	260120	013507	270.010	12.418750	-57.569962	270.040	0.070	0.070	0.480	270.020	-1.400	0.900																			1580002507.0	7.73	14.32
26/01/2020 01:35:08	26012020	260120	013508	270.080	12.418752	-57.569997	270.090	0.010	0.060	0.180	270.090	-1.300	0.700																			1580002508.0	7.62	14.11
26/01/2020 01:35:09	26012020	260120	013509	270.130	12.418752	-57.570033	270.120	-0.050	-0.210	-0.200	270.130	-1.500	0.400																			1580002509.0	7.65	14.17
26/01/2020 01:35:10	26012020	260120	013510	270.160	12.418748	-57.570070	270.140	-0.070	-0.550	-0.510	270.160	-1.800	-0.000																			1580002510.0	7.86	14.56
26/01/2020 01:35:11	26012020	260120	013511	270.180	12.418745	-57.570108	270.140	-0.060	-0.730	-0.640	270.180	-2.100	-0.200																			1580002511.0	8.06	14.93
26/01/2020 01:35:12	26012020	260120	013512	270.180	12.418745	-57.570147	270.140	-0.040	-0.630	-0.630	270.180	-2.100	-0.300																			1580002512.0	8.05	14.91
26/01/2020 01:35:13	26012020	260120	013513	270.190	12.418745	-57.570183	270.180	-0.030	-0.310	-0.500	270.200	-1.900	-0.200																			1580002513.0	7.90	14.63
26/01/2020 01:35:14	26012020	260120	013514	270.240	12.418747	-57.570220	270.240	-0.060	0.050	-0.250	270.250	-1.500	-0.000																			1580002514.0	7.74	14.33
26/01/2020 01:35:15	26012020	260120	013515	270.280	12.418748	-57.570257	270.290	-0.150	0.300	0.060	270.290	-1.200	0.300																			1580002515.0	7.71	14.28
26/01/2020 01:35:16	26012020	260120	013516	270.330	12.418750	-57.570293	270.320	-0.230	0.370	0.330	270.330	-1.100	0.600																			1580002516.0	7.76	14.37
26/01/2020 01:35:17	26012020	260120	013517	270.340	12.418752	-57.570330	270.300	-0.210	0.360	0.550	270.330	-1.000	0.800																			1580002517.0	7.90	14.63
26/01/2020 01:35:18	26012020	260120	013518	270.280	12.418753	-57.570368	270.200	-0.090	0.320	0.670	270.280	-1.000	1.000																			1580002518.0	7.91	14.65
26/01/2020 01:35:19	26012020	260120	013519	270.180	12.418753	-57.570405	270.070	0.040	0.100	0.660	270.160	-1.200	1.000																			1580002519.0	7.79	14.43
26/01/2020 01:35:20	26012020	260120	013520	270.010	12.418753	-57.570442	269.940	0.150	-0.320	0.500	270.010	-1.500	1.000																			1580002520.0	7.72	14.30
26/01/2020 01:35:21	26012020	260120	013521	269.920	12.418752	-57.570478	269.900	0.270	-0.680	0.230	269.910	-1.900	0.700																			1580002521.0	7.86	14.56
26/01/2020 01:35:22	26012020	260120	013522	269.920	12.418752	-57.570517	270.000	0.350	-0.810	-0.010	269.930	-2.200	0.500																			1580002522.0	7.94	14.70
26/01/2020 01:35:23	26012020	260120	013523	270.060	12.418752	-57.570553	270.210	0.330	-0.780	-0.210	270.100	-2.200	0.200																			1580002523.0	7.81	14.46
26/01/2020 01:35:24	26012020	260120	013524	270.340	12.418752	-57.570590	270.410	0.200	-0.620	-0.350	270.340	-2.100	0.100																			1580002524.0	7.71	14.28
26/01/2020 01:35:25	26012020	260120	013525	270.470	12.418753	-57.570627	270.480	0.000	-0.300	-0.400	270.490	-1.900	-0.000																			1580002525.0	7.74	14.33
26/01/2020 01:35:26	26012020	260120	013526	270.500	12.418753	-57.570663	270.410	-0.230	0.100	-0.360	270.500	-1.500	-0.000																			1580002526.0	7.77	14.39
26/01/2020 01:35:27	26012020	260120	013527	270.410	12.418753	-57.570700	270.230	-0.400	0.400	-0.270	270.380	-1.100	0.000																			1580002527.0	7.71	14.28
26/01/2020 01:35:28	26012020	260120	013528	270.180	12.418752	-57.570737	270.080	-0.400	0.470	-0.130	270.180	-0.900	0.200																			1580002528.0	7.73	14.32
26/01/2020 01:35:29	26012020	260120	013529	270.080	12.418753	-57.570773	270.070	-0.250	0.320	-0.050	270.070	-1.000	0.300																			1580002529.0	7.84	14.52
26/01/2020 01:35:30	26012020	260120	013530	270.100	12.418753	-57.570812	270.160	-0.070	0.030	0.060	270.100	-1.200	0.400																			1580002530.0	7.97	14.76
26/01/2020 01:35:31	26012020	260120	013531	270.170	12.418755	-57.570848	270.220	0.050	-0.270	0.280	270.180	-1.500	0.500																			1580002531.0	8.04	14.89
26/01/2020 01:35:32	26012020	260120	013532	270.200	12.418755	-57.570887	270.150	0.130	-0.420	0.590	270.200	-1.800	0.800																			1580002532.0	8.03	14.87
26/01/2020 01:35:33	26012020	260120	013533	270.120	12.418758	-57.570923	270.010	0.200	-0.500	0.780	270.100	-1.900	1.100																			1580002533.0	7.87	14.58
26/01/2020 01:35:34	26012020	260120	013534	269.990	12.418760	-57.570960	269.900	0.180	-0.540	0.750	269.960	-1.900	1.200																			1580002534.0	7.71	14.28
26/01/2020 01:35:35	26012020	260120	013535	269.900	12.418760	-57.570997	269.890	0.040	-0.510	0.500	269.900	-1.900	1.000																			1580002535.0	7.70	14.26
26/01/2020 01:35:36	26012020	260120	013536	269.910	12.418760	-57.571033	269.950	-0.150	-0.270	0.140	269.920	-1.800	0.700																			1580002536.0	7.76	14.37
26/01/2020 01:35:37	26012020	260120	013537	269.990	12.418758	-57.571070	270.030	-0.250	0.130	-0.170	270.000	-1.500	0.300																			1580002537.0	7.74	14.33
26/01/2020 01:35:38	26012020	260120	013538	270.080	12.418757	-57.571107	270.110	-0.150	0.390	-0.380	270.080	-1.100	0.100																			1580002538.0	7.60	14.08
26/01/2020 01:35:39	26012020	260120	013539	270.140	12.418755	-57.571142	270.190	0.130	0.270	-0.430	270.170	-1.000	-0.100																			1580002539.0	7.57	14.02
26/01/2020 01:35:40	26012020	260120	013540	270.220	12.418757	-57.571178	270.160	0.420	-0.110	-0.260	270.220	-1.300	-0.000																			1580002540.0	7.81	14.46
26/01/2020 01:35:41	26012020	260120	013541	270.170	12.418758	-57.571218	269.980	0.480	-0.390	0.050	270.140	-1.700	0.300																			1580002541.0	8.14	15.08
26/01/2020 01:35:42	26012020	260120	013542	269.940	12.418760	-57.571257	269.750	0.250	-0.330	0.350	269.940	-1.800	0.600																			1580002542.0	8.17	15.13
26/01/2020 01:35:43	26012020	260120	013543	269.750	12.418762	-57.571293	269.580	-0.130	-0.170	0.460	269.710	-1.600	0.800																			1580002543.0	7.80	14.45
26/01/2020 01:35:44	26012020	260120	013544	269.590	12.418763	-57.571328	269.560	-0.390	-0.180	0.250	269.570	-1.500	0.800																			1580002544.0	7.48	13.85
26/01/2020 01:35:45	26012020	260120	013545	269.620	12.418763	-57.571363	269.760	-0.410	-0.330	-0.190	269.660	-1.600	0.400																			1580002545.0	7.53	13.95
26/01/2020 01:35:46	26012020	260120	013546	269.860	12.418762	-57.571400	270.030	-0.230	-0.410	-0.590	269.920	-1.800	-0.100																			1580002546.0	7.81	14.46
26/01/2020 01:35:47	26012020	260120	013547	270.150	12.418758	-57.571438	270.190	-0.020	-0.330	-0.650	270.190	-1.800	-0.300																			1580002547.0	7.94	14.70
26/01/2020 01:35:48	26012020	260120	013548	270.270	12.418757	-57.571475	270.080	0.110	-0.120	-0.230	270.250	-1.600	-0.100																			1580002548.0	7.88	14.59
26/01/2020 01:35:49	26012020	260120	013549	270.080	12.418757	-57.571512	269.720	0.120	0.130	0.520	270.010	-1.400	0.500																			1580002549.0	7.77	14.39
26/01/2020 01:35:50	26012020	260120	013550	269.680	12.418760	-57.571548	269.350	0.090	0.250	1.180	269.600	-1.200	1.300																			1580002550.0	7.70	14.26
26/01/2020 01:35:51	26012020	260120	013551	269.330	12.418765	-57.571585	269.170	0.060	0.170	1.450	269.290	-1.200	1.700																			1580002551.0	7.75	14.35
26/01/2020 01:35:52	26012020	260120	013552	269.160	12.418768	-57.571622	269.130	0.060	-0.090	1.190	269.160	-1.300	1.700																			1580002552.0	7.82	14.48
26/01/2020 01:35:53	26012020	260120	013553	269.160	12.418770	-57.571658	269.240	0.070	-0.430	0.460	269.180	-1.700	1.200																			1580002553.0	7.87	14.58
26/01/2020 01:35:54	26012020	260120	013554	269.380	12.418768	-57.571697	269.520	0.020	-0.620	-0.460	269.380	-1.900	0.300																			1580002554.0	7.96	14.74
26/01/2020 01:35:55	26012020	260120	013555	269.640	12.418765	-57.571733	269.790	-0.110	-0.470	-1.170	269.710	-2.000	-0.500																			1580002555.0	8.00	14.82
26/01/2020 01:35:56	26012020	260120	013556	269.920	12.418760	-57.571770	269.830	-0.210	-0.100	-1.330	269.920	-1.700	-1.000																			1580002556.0	7.80	14.45
26/01/2020 01:35:57	26012020	260120	013557	269.910	12.418757	-57.571807	269.670	-0.140	0.160	-0.960	269.880	-1.300	-0.800																			1580002557.0	7.50	13.89
26/01/2020 01:35:58	26012020	260120	013558	269.720	12.418755	-57.571842	269.410	0.090	0.140	-0.270	269.670	-1.200	-0.300																			1580002558.0	7.45	13.80
26/01/2020 01:35:59	26012020	260120	013559	269.440	12.418758	-57.571878	269.130	0.310	-0.060	0.470	269.390	-1.300	0.500	1015.40	25.40	25.40	21.40	21.50	-1.00	78.00	78.00	391.00	24.60	72.00	4.70	30.00	5.20	14	3423.00	27.40	27.40	1580002559.0	7.71	14.28
26/01/2020 01:36:00	26012020	260120	013600	269.160	12.418762	-57.571915	268.890	0.350	-0.280	1.060	269.110	-1.600	1.200																			1580002560.0	7.99	14.80
26/01/2020 01:36:01	26012020	260120	013601	268.940	12.418767	-57.571953	268.800	0.210	-0.370	1.340	268.910	-1.700	1.600																			1580002561.0	8.06	14.93
26/01/2020 01:36:02	26012020	260120	013602	268.880	12.418770	-57.571990	268.870	0.020	-0.290	1.240	268.880	-1.700	1.700																			1580002562.0	7.92	14.67
26/01/2020 01:36:03	26012020	260120	013603	268.990	12.418772	-57.572027	269.090	-0.100	-0.090	0.850	269.020	-1.600	1.400																			1580002563.0	7.70	14.26
26/01/2020 01:36:04	26012020	260120	013604	269.280	12.418772	-57.572062	269.340	-0.140	-0.020	0.330	269.280	-1.400	1.000																			1580002564.0	7.55	13.98
26/01/2020 01:36:05	26012020	260120	013605	269.480	12.418770	-57.572098	269.520	-0.150	-0.190	-0.180	269.520	-1.500	0.400																			1580002565.0	7.57	14.02
26/01/2020 01:36:06	26012020	260120	013606	269.670	12.418767	-57.572135	269.580	-0.170	-0.410	-0.560	269.670	-1.700	-0.000																			1580002566.0	7.83	14.50
26/01/2020 01:36:07	26012020	260120	013607	269.680	12.418762	-57.572173	269.500	-0.220	-0.350	-0.700	269.670	-1.800	-0.300																			1580002567.0	8.08	14.96
26/01/2020 01:36:08	26012020	260120	013608	269.570	12.418758	-57.572210	269.340	-0.260	-0.010	-0.590	269.530	-1.600	-0.300																			1580002568.0	7.97	14.76
26/01/2020 01:36:09	26012020	260120	013609	269.390	12.418757	-57.572247	269.200	-0.220	0.290	-0.370	269.360	-1.200	-0.100																			1580002569.0	7.61	14.09
26/01/2020 01:36:10	26012020	260120	013610	269.260	12.418758	-57.572282	269.110	-0.040	0.260	-0.050	269.240	-1.100	0.100																			1580002570.0	7.41	13.72
26/01/2020 01:36:11	26012020	260120	013611	269.180	12.418758	-57.572318	269.040	0.230	-0.070	0.410	269.170	-1.300	0.500																			1580002571.0	7.57	14.02
26/01/2020 01:36:12	26012020	260120	013612	269.070	12.418762	-57.572355	268.980	0.430	-0.460	0.880	269.070	-1.700	1.000																			1580002572.0	7.88	14.59
26/01/2020 01:36:13	26012020	260120	013613	269.030	12.418765	-57.572393	268.990	0.460	-0.610	1.170	269.030	-2.000	1.400																			1580002573.0	8.09	14.98
26/01/2020 01:36:14	26012020	260120	013614	269.080	12.418768	-57.572430	269.090	0.320	-0.390	1.170	269.080	-1.900	1.600																			1580002574.0	8.00	14.82
26/01/2020 01:36:15	26012020	260120	013615	269.180	12.418770	-57.572467	269.230	0.120	-0.040	0.850	269.210	-1.600	1.400																			1580002575.0	7.68	14.22
26/01/2020 01:36:16	26012020	260120	013616	269.360	12.418770	-57.572502	269.350	-0.020	0.130	0.390	269.360	-1.300	1.000																			1580002576.0	7.43	13.76
26/01/2020 01:36:17	26012020	260120	013617	269.440	12.418768	-57.572537	269.360	-0.070	-0.010	-0.050	269.450	-1.300	0.500																			1580002577.0	7.49	13.87
26/01/2020 01:36:18	26012020	260120	013618	269.440	12.418765	-57.572573	269.310	-0.080	-0.270	-0.450	269.440	-1.500	0.100																			1580002578.0	7.79	14.43
26/01/2020 01:36:19	26012020	260120	013619	269.390	12.418763	-57.572612	269.220	-0.150	-0.380	-0.730	269.370	-1.700	-0.300																			1580002579.0	8.04	14.89
26/01/2020 01:36:20	26012020	260120	013620	269.250	12.418760	-57.572650	269.050	-0.310	-0.200	-0.800	269.250	-1.700	-0.400																			1580002580.0	8.01	14.83
26/01/2020 01:36:21	26012020	260120	013621	269.100	12.418758	-57.572687	268.820	-0.430	0.090	-0.640	269.050	-1.400	-0.400																			1580002581.0	7.72	14.30
26/01/2020 01:36:22	26012020	260120	013622	268.860	12.418758	-57.572722	268.660	-0.350	0.120	-0.360	268.820	-1.200	-0.100																			1580002582.0	7.43	13.76
26/01/2020 01:36:23	26012020	260120	013623	268.730	12.418758	-57.572757	268.750	-0.060	-0.210	-0.140	268.730	-1.400	0.100																			1580002583.0	7.48	13.85
26/01/2020 01:36:24	26012020	260120	013624	268.900	12.418758	-57.572795	269.010	0.230	-0.530	0.020	268.900	-1.800	0.300																			1580002584.0	7.89	14.61
26/01/2020 01:36:25	26012020	260120	013625	269.130	12.418760	-57.572833	269.240	0.340	-0.530	0.260	269.180	-2.000	0.500																			1580002585.0	8.15	15.09
26/01/2020 01:36:26	26012020	260120	013626	269.320	12.418762	-57.572870	269.250	0.230	-0.180	0.670	269.330	-1.800	0.800																			1580002586.0	7.98	14.78
26/01/2020 01:36:27	26012020	260120	013627	269.280	12.418763	-57.572907	269.110	0.020	0.190	1.100	269.250	-1.400	1.300																			1580002587.0	7.63	14.13
26/01/2020 01:36:28	26012020	260120	013628	269.070	12.418765	-57.572942	268.900	-0.100	0.290	1.290	269.070	-1.100	1.600																			1580002588.0	7.41	13.72
26/01/2020 01:36:29	26012020	260120	013629	268.910	12.418767	-57.572977	268.760	-0.060	0.160	1.170	268.880	-1.200	1.600																			1580002589.0	7.53	13.95
26/01/2020 01:36:30	26012020	260120	013630	268.790	12.418768	-57.573013	268.740	0.050	-0.050	0.770	268.790	-1.300	1.400																			1580002590.0	7.80	14.45
26/01/2020 01:36:31	26012020	260120	013631	268.820	12.418767	-57.573052	268.830	0.120	-0.290	0.160	268.830	-1.600	0.800																			1580002591.0	7.86	14.56
26/01/2020 01:36:32	26012020	260120	013632	268.910	12.418763	-57.573088	268.860	0.130	-0.510	-0.410	268.910	-1.800	0.200																			1580002592.0	7.86	14.56
26/01/2020 01:36:33	26012020	260120	013633	268.940	12.418758	-57.573125	268.820	0.090	-0.620	-0.700	268.930	-2.000	-0.200																			1580002593.0	7.88	14.59
26/01/2020 01:36:34	26012020	260120	013634	268.870	12.418755	-57.573162	268.770	0.020	-0.530	-0.690	268.870	-2.000	-0.400																			1580002594.0	7.83	14.50
26/01/2020 01:36:35	26012020	260120	013635	268.840	12.418755	-57.573198	268.800	-0.020	-0.290	-0.550	268.840	-1.800	-0.300																			1580002595.0	7.71	14.28
26/01/2020 01:36:36	26012020	260120	013636	268.900	12.418755	-57.573235	268.910	-0.040	-0.040	-0.390	268.930	-1.500	-0.100																			1580002596.0	7.61	14.09
26/01/2020 01:36:37	26012020	260120	013637	269.040	12.418757	-57.573270	269.020	-0.100	0.150	-0.170	269.060	-1.300	0.100																			1580002597.0	7.62	14.11
26/01/2020 01:36:38	26012020	260120	013638	269.130	12.418758	-57.573307	269.050	-0.200	0.280	0.120	269.130	-1.200	0.300																			1580002598.0	7.70	14.26
26/01/2020 01:36:39	26012020	260120	013639	269.130	12.418760	-57.573343	269.010	-0.240	0.300	0.400	269.120	-1.100	0.600																			1580002599.0	7.75	14.35
26/01/2020 01:36:40	26012020	260120	013640	269.060	12.418760	-57.573380	268.920	-0.140	0.140	0.590	269.060	-1.200	0.900																			1580002600.0	7.72	14.30
26/01/2020 01:36:41	26012020	260120	013641	268.960	12.418760	-57.573417	268.770	0.050	-0.170	0.670	268.930	-1.400	1.000																			1580002601.0	7.75	14.35
26/01/2020 01:36:42	26012020	260120	013642	268.760	12.418760	-57.573453	268.640	0.150	-0.520	0.600	268.760	-1.700	1.000																			1580002602.0	7.85	14.54
26/01/2020 01:36:43	26012020	260120	013643	268.680	12.418760	-57.573492	268.660	0.100	-0.760	0.430	268.680	-2.100	0.900																			1580002603.0	7.91	14.65
26/01/2020 01:36:44	26012020	260120	013644	268.730	12.418758	-57.573528	268.840	-0.050	-0.720	0.200	268.770	-2.200	0.700																			1580002604.0	7.90	14.63
26/01/2020 01:36:45	26012020	260120	013645	268.930	12.418757	-57.573565	269.060	-0.140	-0.440	-0.020	268.970	-2.000	0.400																			1580002605.0	7.75	14.35
26/01/2020 01:36:46	26012020	260120	013646	269.180	12.418757	-57.573602	269.220	-0.110	-0.090	-0.170	269.180	-1.600	0.300																			1580002606.0	7.58	14.04
26/01/2020 01:36:47	26012020	260120	013647	269.290	12.418755	-57.573637	269.260	-0.040	0.210	-0.190	269.310	-1.300	0.200																			1580002607.0	7.55	13.98
26/01/2020 01:36:48	26012020	260120	013648	269.310	12.418753	-57.573673	269.220	-0.010	0.380	-0.150	269.300	-1.100	0.200																			1580002608.0	7.63	14.13
26/01/2020 01:36:49	26012020	260120	013649	269.270	12.418752	-57.573710	269.180	0.020	0.340	-0.120	269.260	-1.000	0.200																			1580002609.0	7.69	14.24
26/01/2020 01:36:50	26012020	260120	013650	269.210	12.418752	-57.573747	269.070	0.130	0.130	0.020	269.180	-1.200	0.300																			1580002610.0	7.78	14.41
26/01/2020 01:36:51	26012020	260120	013651	269.060	12.418753	-57.573783	268.910	0.320	-0.140	0.280	269.020	-1.400	0.500																			1580002611.0	7.88	14.59
26/01/2020 01:36:52	26012020	260120	013652	268.890	12.418753	-57.573822	268.830	0.390	-0.380	0.500	268.890	-1.700	0.800																			1580002612.0	7.93	14.69
26/01/2020 01:36:53	26012020	260120	013653	268.840	12.418757	-57.573858	268.840	0.220	-0.510	0.570	268.840	-1.900	0.900																			1580002613.0	7.89	14.61
26/01/2020 01:36:54	26012020	260120	013654	268.880	12.418757	-57.573895	268.920	-0.140	-0.490	0.400	268.880	-1.900	0.900																			1580002614.0	7.77	14.39
26/01/2020 01:36:55	26012020	260120	013655	268.960	12.418757	-57.573932	269.100	-0.420	-0.340	0.010	269.000	-1.800	0.600																			1580002615.0	7.63	14.13
26/01/2020 01:36:56	26012020	260120	013656	269.160	12.418755	-57.573967	269.300	-0.450	-0.250	-0.400	269.210	-1.700	0.100																			1580002616.0	7.52	13.93
26/01/2020 01:36:57	26012020	260120	013657	269.390	12.418752	-57.574002	269.440	-0.240	-0.310	-0.630	269.420	-1.700	-0.200																			1580002617.0	7.56	14.00
26/01/2020 01:36:58	26012020	260120	013658	269.520	12.418748	-57.574038	269.420	0.000	-0.320	-0.550	269.520	-1.700	-0.300																			1580002618.0	7.80	14.45
26/01/2020 01:36:59	26012020	260120	013659	269.460	12.418747	-57.574077	269.280	0.090	-0.090	-0.210	269.440	-1.600	-0.000	1015.40	25.40	25.40	21.30	21.40	-1.00	78.00	78.00	391.00	24.60	69.00	4.40	30.00	4.70	14	3423.00	27.40	27.40	1580002619.0	8.00	14.82
26/01/2020 01:37:00	26012020	260120	013700	269.310	12.418747	-57.574113	269.140	0.030	0.270	0.180	269.280	-1.300	0.400																			1580002620.0	7.87	14.58
26/01/2020 01:37:01	26012020	260120	013701	269.180	12.418748	-57.574150	269.100	-0.040	0.450	0.480	269.170	-1.000	0.700																			1580002621.0	7.62	14.11
26/01/2020 01:37:02	26012020	260120	013702	269.140	12.418752	-57.574185	269.110	-0.020	0.260	0.620	269.140	-1.000	0.900																			1580002622.0	7.56	14.00
26/01/2020 01:37:03	26012020	260120	013703	269.140	12.418753	-57.574222	269.100	0.090	-0.170	0.620	269.140	-1.400	1.000																			1580002623.0	7.76	14.37
26/01/2020 01:37:04	26012020	260120	013704	269.110	12.418753	-57.574260	269.030	0.200	-0.500	0.630	269.110	-1.800	1.000																			1580002624.0	8.00	14.82
26/01/2020 01:37:05	26012020	260120	013705	269.060	12.418753	-57.574298	268.970	0.240	-0.590	0.650	269.050	-2.000	1.000																			1580002625.0	8.02	14.85
26/01/2020 01:37:06	26012020	260120	013706	269.040	12.418752	-57.574335	269.030	0.190	-0.530	0.510	269.040	-2.000	1.000																			1580002626.0	7.80	14.45
26/01/2020 01:37:07	26012020	260120	013707	269.110	12.418752	-57.574372	269.180	0.100	-0.410	0.180	269.140	-1.900	0.700																			1580002627.0	7.63	14.13
26/01/2020 01:37:08	26012020	260120	013708	269.290	12.418752	-57.574407	269.290	-0.020	-0.240	-0.220	269.290	-1.700	0.300																			1580002628.0	7.63	14.13
26/01/2020 01:37:09	26012020	260120	013709	269.370	12.418748	-57.574443	269.310	-0.160	-0.040	-0.540	269.380	-1.500	-0.000																			1580002629.0	7.68	14.22
26/01/2020 01:37:10	26012020	260120	013710	269.380	12.418747	-57.574480	269.240	-0.290	0.160	-0.690	269.380	-1.300	-0.300																			1580002630.0	7.71	14.28
26/01/2020 01:37:11	26012020	260120	013711	269.310	12.418745	-57.574517	269.130	-0.320	0.340	-0.640	269.290	-1.100	-0.300																			1580002631.0	7.73	14.32
26/01/2020 01:37:12	26012020	260120	013712	269.220	12.418743	-57.574553	269.110	-0.190	0.350	-0.390	269.210	-1.000	-0.200																			1580002632.0	7.68	14.22
26/01/2020 01:37:13	26012020	260120	013713	269.200	12.418743	-57.574588	269.150	0.070	0.070	0.060	269.210	-1.200	0.200																			1580002633.0	7.67	14.20
26/01/2020 01:37:14	26012020	260120	013714	269.220	12.418745	-57.574627	269.150	0.340	-0.360	0.640	269.230	-1.500	0.700																			1580002634.0	7.84	14.52
26/01/2020 01:37:15	26012020	260120	013715	269.200	12.418748	-57.574663	269.100	0.470	-0.690	1.130	269.190	-2.000	1.300																			1580002635.0	8.03	14.87
26/01/2020 01:37:16	26012020	260120	013716	269.130	12.418750	-57.574702	269.060	0.360	-0.730	1.250	269.120	-2.100	1.600																			1580002636.0	8.05	14.91
26/01/2020 01:37:17	26012020	260120	013717	269.090	12.418753	-57.574738	269.050	0.030	-0.470	0.900	269.080	-2.000	1.500																			1580002637.0	7.85	14.54
26/01/2020 01:37:18	26012020	260120	013718	269.100	12.418753	-57.574775	269.120	-0.320	-0.120	0.220	269.110	-1.700	0.900																			1580002638.0	7.57	14.02
26/01/2020 01:37:19	26012020	260120	013719	269.210	12.418750	-57.574810	269.250	-0.480	0.060	-0.450	269.240	-1.400	0.200																			1580002639.0	7.43	13.76
26/01/2020 01:37:20	26012020	260120	013720	269.360	12.418745	-57.574845	269.350	-0.400	0.020	-0.800	269.380	-1.300	-0.300																			1580002640.0	7.57	14.02
26/01/2020 01:37:21	26012020	260120	013721	269.460	12.418740	-57.574882	269.390	-0.140	-0.070	-0.670	269.470	-1.400	-0.400																			1580002641.0	7.88	14.59
26/01/2020 01:37:22	26012020	260120	013722	269.500	12.418738	-57.574920	269.420	0.130	-0.060	-0.200	269.500	-1.500	-0.100																			1580002642.0	8.02	14.85
26/01/2020 01:37:23	26012020	260120	013723	269.490	12.418740	-57.574957	269.380	0.300	0.010	0.370	269.490	-1.400	0.500																			1580002643.0	7.94	14.70
26/01/2020 01:37:24	26012020	260120	013724	269.420	12.418742	-57.574995	269.280	0.310	0.060	0.780	269.400	-1.400	1.000																			1580002644.0	7.80	14.45
26/01/2020 01:37:25	26012020	260120	013725	269.290	12.418745	-57.575030	269.170	0.180	0.060	0.900	269.270	-1.300	1.200																			1580002645.0	7.72	14.30
26/01/2020 01:37:26	26012020	260120	013726	269.190	12.418747	-57.575067	269.090	-0.010	-0.010	0.740	269.170	-1.400	1.200																			1580002646.0	7.66	14.19
26/01/2020 01:37:27	26012020	260120	013727	269.100	12.418748	-57.575103	268.990	-0.130	-0.180	0.440	269.080	-1.500	1.000																			1580002647.0	7.62	14.11
26/01/2020 01:37:28	26012020	260120	013728	269.010	12.418747	-57.575138	268.940	-0.080	-0.460	0.070	269.000	-1.700	0.600																			1580002648.0	7.64	14.15
26/01/2020 01:37:29	26012020	260120	013729	269.000	12.418743	-57.575177	269.040	0.090	-0.680	-0.300	269.010	-2.000	0.200																			1580002649.0	7.80	14.45
26/01/2020 01:37:30	26012020	260120	013730	269.140	12.418742	-57.575213	269.330	0.160	-0.650	-0.580	269.190	-2.100	-0.100																			1580002650.0	7.92	14.67
26/01/2020 01:37:31	26012020	260120	013731	269.450	12.418738	-57.575250	269.680	0.030	-0.400	-0.640	269.530	-1.900	-0.300																			1580002651.0	7.85	14.54
26/01/2020 01:37:32	26012020	260120	013732	269.790	12.418738	-57.575287	269.870	-0.210	-0.050	-0.410	269.840	-1.600	-0.200																			1580002652.0	7.67	14.20
26/01/2020 01:37:33	26012020	260120	013733	269.930	12.418738	-57.575322	269.820	-0.340	0.220	-0.000	269.920	-1.300	0.200																			1580002653.0	7.55	13.98
26/01/2020 01:37:34	26012020	260120	013734	269.810	12.418738	-57.575358	269.680	-0.290	0.350	0.320	269.810	-1.100	0.500																			1580002654.0	7.58	14.04
26/01/2020 01:37:35	26012020	260120	013735	269.670	12.418738	-57.575395	269.430	-0.080	0.300	0.550	269.630	-1.000	0.800																			1580002655.0	7.69	14.24
26/01/2020 01:37:36	26012020	260120	013736	269.350	12.418740	-57.575432	269.160	0.170	0.040	0.690	269.350	-1.200	1.000																			1580002656.0	7.76	14.37
26/01/2020 01:37:37	26012020	260120	013737	269.140	12.418740	-57.575468	269.000	0.340	-0.330	0.680	269.110	-1.500	1.100																			1580002657.0	7.87	14.58
26/01/2020 01:37:38	26012020	260120	013738	269.020	12.418740	-57.575507	269.020	0.300	-0.590	0.530	269.020	-1.900	1.000																			1580002658.0	7.99	14.80
26/01/2020 01:37:39	26012020	260120	013739	269.090	12.418742	-57.575543	269.200	0.100	-0.600	0.340	269.120	-2.000	0.800																			1580002659.0	7.95	14.72
26/01/2020 01:37:40	26012020	260120	013740	269.290	12.418740	-57.575580	269.430	-0.120	-0.340	0.190	269.330	-1.900	0.600																			1580002660.0	7.78	14.41
26/01/2020 01:37:41	26012020	260120	013741	269.510	12.418740	-57.575617	269.600	-0.240	-0.010	-0.020	269.550	-1.600	0.500																			1580002661.0	7.55	13.98
26/01/2020 01:37:42	26012020	260120	013742	269.700	12.418738	-57.575652	269.710	-0.240	0.160	-0.270	269.700	-1.300	0.200																			1580002662.0	7.44	13.78
26/01/2020 01:37:43	26012020	260120	013743	269.780	12.418735	-57.575687	269.750	-0.130	0.090	-0.530	269.790	-1.200	-0.000																			1580002663.0	7.51	13.91
26/01/2020 01:37:44	26012020	260120	013744	269.840	12.418733	-57.575723	269.770	0.050	-0.110	-0.660	269.840	-1.400	-0.300																			1580002664.0	7.72	14.30
26/01/2020 01:37:45	26012020	260120	013745	269.840	12.418732	-57.575760	269.700	0.240	-0.280	-0.540	269.830	-1.600	-0.300																			1580002665.0	7.89	14.61
26/01/2020 01:37:46	26012020	260120	013746	269.750	12.418730	-57.575798	269.570	0.330	-0.330	-0.150	269.720	-1.700	-0.000																			1580002666.0	7.91	14.65
26/01/2020 01:37:47	26012020	260120	013747	269.600	12.418732	-57.575835	269.470	0.260	-0.270	0.350	269.570	-1.700	0.500																			1580002667.0	7.84	14.52
26/01/2020 01:37:48	26012020	260120	013748	269.500	12.418735	-57.575872	269.480	0.060	-0.190	0.750	269.490	-1.600	0.900																			1580002668.0	7.75	14.35
26/01/2020 01:37:49	26012020	260120	013749	269.510	12.418738	-57.575908	269.570	-0.140	-0.150	0.870	269.530	-1.600	1.200																			1580002669.0	7.69	14.24
26/01/2020 01:37:50	26012020	260120	013750	269.640	12.418740	-57.575945	269.700	-0.270	-0.110	0.730	269.640	-1.500	1.200																			1580002670.0	7.70	14.26
26/01/2020 01:37:51	26012020	260120	013751	269.730	12.418740	-57.575980	269.710	-0.300	-0.060	0.500	269.730	-1.500	1.000																			1580002671.0	7.72	14.30
26/01/2020 01:37:52	26012020	260120	013752	269.720	12.418737	-57.576017	269.640	-0.210	-0.100	0.230	269.710	-1.500	0.700																			1580002672.0	7.71	14.28
26/01/2020 01:37:53	26012020	260120	013753	269.640	12.418733	-57.576053	269.600	-0.010	-0.250	-0.070	269.630	-1.600	0.400																			1580002673.0	7.71	14.28
26/01/2020 01:37:54	26012020	260120	013754	269.660	12.418732	-57.576090	269.700	0.160	-0.370	-0.360	269.660	-1.700	0.100																			1580002674.0	7.83	14.50
26/01/2020 01:37:55	26012020	260120	013755	269.750	12.418730	-57.576128	269.800	0.190	-0.300	-0.460	269.780	-1.800	-0.100																			1580002675.0	7.90	14.63
26/01/2020 01:37:56	26012020	260120	013756	269.850	12.418728	-57.576165	269.770	0.070	-0.100	-0.310	269.850	-1.600	-0.100																			1580002676.0	7.83	14.50
26/01/2020 01:37:57	26012020	260120	013757	269.800	12.418728	-57.576202	269.600	-0.080	0.120	0.020	269.770	-1.400	0.200																			1580002677.0	7.66	14.19
26/01/2020 01:37:58	26012020	260120	013758	269.560	12.418730	-57.576237	269.370	-0.130	0.250	0.360	269.560	-1.200	0.600																			1580002678.0	7.61	14.09
26/01/2020 01:37:59	26012020	260120	013759	269.360	12.418732	-57.576273	269.160	-0.060	0.140	0.500	269.310	-1.200	0.800	1015.40	25.40	25.50	21.40	21.40	-1.00	78.00	78.00	391.00	24.60	64.00	4.40	27.00	4.50	14	3417.00	27.40	27.40	1580002679.0	7.60	14.08
26/01/2020 01:38:00	26012020	260120	013800	269.130	12.418732	-57.576310	269.050	0.050	-0.200	0.490	269.130	-1.400	0.900																			1580002680.0	7.66	14.19
26/01/2020 01:38:01	26012020	260120	013801	269.070	12.418730	-57.576347	269.080	0.110	-0.510	0.440	269.060	-1.800	0.800																			1580002681.0	7.85	14.54
26/01/2020 01:38:02	26012020	260120	013802	269.120	12.418728	-57.576383	269.240	0.110	-0.590	0.360	269.150	-2.000	0.800																			1580002682.0	7.95	14.72
26/01/2020 01:38:03	26012020	260120	013803	269.300	12.418728	-57.576422	269.410	0.110	-0.430	0.300	269.340	-1.900	0.700																			1580002683.0	7.81	14.46
26/01/2020 01:38:04	26012020	260120	013804	269.490	12.418727	-57.576457	269.550	0.150	-0.200	0.230	269.510	-1.700	0.600																			1580002684.0	7.61	14.09
26/01/2020 01:38:05	26012020	260120	013805	269.610	12.418727	-57.576493	269.600	0.180	-0.060	0.160	269.620	-1.500	0.600																			1580002685.0	7.54	13.96
26/01/2020 01:38:06	26012020	260120	013806	269.640	12.418727	-57.576528	269.520	0.090	0.020	0.150	269.630	-1.400	0.500																			1580002686.0	7.64	14.15
26/01/2020 01:38:07	26012020	260120	013807	269.550	12.418725	-57.576565	269.330	-0.140	0.100	0.200	269.510	-1.300	0.500																			1580002687.0	7.77	14.39
26/01/2020 01:38:08	26012020	260120	013808	269.350	12.418725	-57.576602	269.100	-0.380	0.150	0.260	269.300	-1.300	0.600																			1580002688.0	7.74	14.33
26/01/2020 01:38:09	26012020	260120	013809	269.130	12.418723	-57.576638	268.980	-0.420	0.050	0.170	269.100	-1.300	0.600																			1580002689.0	7.66	14.19
26/01/2020 01:38:10	26012020	260120	013810	269.040	12.418722	-57.576675	269.050	-0.220	-0.250	-0.060	269.050	-1.500	0.400																			1580002690.0	7.66	14.19
26/01/2020 01:38:11	26012020	260120	013811	269.130	12.418718	-57.576712	269.240	0.050	-0.600	-0.250	269.170	-1.800	0.200																			1580002691.0	7.83	14.50
26/01/2020 01:38:12	26012020	260120	013812	269.360	12.418717	-57.576750	269.420	0.190	-0.750	-0.270	269.360	-2.100	0.100																			1580002692.0	8.01	14.83
26/01/2020 01:38:13	26012020	260120	013813	269.520	12.418715	-57.576787	269.590	0.170	-0.510	-0.100	269.550	-2.100	0.200																			1580002693.0	8.00	14.82
26/01/2020 01:38:14	26012020	260120	013814	269.680	12.418713	-57.576823	269.700	0.060	0.020	0.220	269.710	-1.700	0.400																			1580002694.0	7.76	14.37
26/01/2020 01:38:15	26012020	260120	013815	269.780	12.418715	-57.576858	269.690	-0.030	0.510	0.620	269.780	-1.100	0.800																			1580002695.0	7.46	13.82
26/01/2020 01:38:16	26012020	260120	013816	269.730	12.418715	-57.576893	269.510	-0.050	0.640	0.960	269.700	-0.800	1.200																			1580002696.0	7.32	13.56
26/01/2020 01:38:17	26012020	260120	013817	269.520	12.418717	-57.576928	269.290	-0.000	0.280	1.030	269.470	-0.900	1.400																			1580002697.0	7.44	13.78
26/01/2020 01:38:18	26012020	260120	013818	269.280	12.418717	-57.576965	269.190	0.070	-0.350	0.720	269.280	-1.400	1.300																			1580002698.0	7.77	14.39
26/01/2020 01:38:19	26012020	260120	013819	269.240	12.418715	-57.577003	269.270	0.120	-0.800	0.190	269.250	-2.000	0.800																			1580002699.0	8.09	14.98
26/01/2020 01:38:20	26012020	260120	013820	269.360	12.418712	-57.577042	269.530	0.140	-0.840	-0.310	269.410	-2.300	0.300																			1580002700.0	8.11	15.02
26/01/2020 01:38:21	26012020	260120	013821	269.660	12.418708	-57.577078	269.890	0.140	-0.530	-0.620	269.730	-2.100	-0.100																			1580002701.0	7.86	14.56
26/01/2020 01:38:22	26012020	260120	013822	270.010	12.418705	-57.577115	270.160	0.090	-0.110	-0.670	270.070	-1.700	-0.300																			1580002702.0	7.54	13.96
26/01/2020 01:38:23	26012020	260120	013823	270.240	12.418703	-57.577150	270.240	-0.010	0.140	-0.450	270.270	-1.400	-0.200																			1580002703.0	7.40	13.70
26/01/2020 01:38:24	26012020	260120	013824	270.280	12.418703	-57.577185	270.140	-0.120	0.150	-0.080	270.270	-1.200	0.100																			1580002704.0	7.49	13.87
26/01/2020 01:38:25	26012020	260120	013825	270.160	12.418703	-57.577222	269.970	-0.200	0.030	0.260	270.120	-1.300	0.500																			1580002705.0	7.72	14.30
26/01/2020 01:38:26	26012020	260120	013826	269.990	12.418705	-57.577258	269.880	-0.270	-0.040	0.420	269.960	-1.400	0.700																			1580002706.0	7.90	14.63
26/01/2020 01:38:27	26012020	260120	013827	269.900	12.418703	-57.577297	269.960	-0.280	-0.070	0.390	269.910	-1.500	0.800																			1580002707.0	7.86	14.56
26/01/2020 01:38:28	26012020	260120	013828	269.990	12.418703	-57.577332	270.140	-0.190	-0.140	0.290	270.020	-1.500	0.700																			1580002708.0	7.71	14.28
26/01/2020 01:38:29	26012020	260120	013829	270.180	12.418702	-57.577368	270.340	-0.040	-0.210	0.260	270.220	-1.600	0.600																			1580002709.0	7.68	14.22
26/01/2020 01:38:30	26012020	260120	013830	270.360	12.418700	-57.577405	270.470	0.090	-0.260	0.330	270.390	-1.600	0.700																			1580002710.0	7.70	14.26
26/01/2020 01:38:31	26012020	260120	013831	270.470	12.418698	-57.577442	270.530	0.140	-0.320	0.440	270.490	-1.700	0.800																			1580002711.0	7.68	14.22
26/01/2020 01:38:32	26012020	260120	013832	270.520	12.418698	-57.577478	270.580	0.160	-0.390	0.460	270.530	-1.800	0.800																			1580002712.0	7.70	14.26
26/01/2020 01:38:33	26012020	260120	013833	270.570	12.418697	-57.577515	270.680	0.190	-0.360	0.310	270.590	-1.800	0.800																			1580002713.0	7.77	14.39
26/01/2020 01:38:34	26012020	260120	013834	270.720	12.418697	-57.577552	270.820	0.180	-0.160	0.030	270.720	-1.700	0.500																			1580002714.0	7.83	14.50
26/01/2020 01:38:35	26012020	260120	013835	270.820	12.418697	-57.577588	270.900	0.130	0.070	-0.270	270.840	-1.400	0.200																			1580002715.0	7.70	14.26
26/01/2020 01:38:36	26012020	260120	013836	270.940	12.418695	-57.577623	270.970	0.030	0.170	-0.480	270.940	-1.300	-0.000																			1580002716.0	7.59	14.06
26/01/2020 01:38:37	26012020	260120	013837	270.990	12.418693	-57.577660	271.000	-0.060	0.150	-0.520	271.000	-1.200	-0.200																			1580002717.0	7.61	14.09
26/01/2020 01:38:38	26012020	260120	013838	271.020	12.418692	-57.577697	271.010	-0.150	0.010	-0.410	271.020	-1.300	-0.100																			1580002718.0	7.68	14.22
26/01/2020 01:38:39	26012020	260120	013839	271.020	12.418690	-57.577733	271.020	-0.210	-0.170	-0.200	271.020	-1.500	0.100																			1580002719.0	7.73	14.32
26/01/2020 01:38:40	26012020	260120	013840	271.040	12.418690	-57.577770	271.090	-0.190	-0.340	-0.020	271.050	-1.700	0.300																			1580002720.0	7.75	14.35
26/01/2020 01:38:41	26012020	260120	013841	271.110	12.418690	-57.577807	271.200	-0.060	-0.440	0.100	271.130	-1.800	0.400																			1580002721.0	7.75	14.35
26/01/2020 01:38:42	26012020	260120	013842	271.240	12.418690	-57.577843	271.320	0.090	-0.410	0.120	271.240	-1.800	0.500																			1580002722.0	7.74	14.33
26/01/2020 01:38:43	26012020	260120	013843	271.350	12.418690	-57.577878	271.440	0.140	-0.260	0.120	271.380	-1.700	0.500																			1580002723.0	7.71	14.28
26/01/2020 01:38:44	26012020	260120	013844	271.500	12.418690	-57.577915	271.510	0.070	-0.120	0.130	271.500	-1.600	0.500																			1580002724.0	7.61	14.09
26/01/2020 01:38:45	26012020	260120	013845	271.550	12.418690	-57.577950	271.560	-0.010	-0.100	0.140	271.560	-1.500	0.500																			1580002725.0	7.55	13.98
26/01/2020 01:38:46	26012020	260120	013846	271.620	12.418690	-57.577987	271.670	-0.030	-0.180	0.140	271.620	-1.500	0.500																			1580002726.0	7.65	14.17
26/01/2020 01:38:47	26012020	260120	013847	271.720	12.418688	-57.578023	271.850	-0.010	-0.260	0.140	271.750	-1.600	0.500																			1580002727.0	7.81	14.46
26/01/2020 01:38:48	26012020	260120	013848	271.950	12.418688	-57.578062	272.030	0.000	-0.230	0.180	271.950	-1.700	0.500																			1580002728.0	7.89	14.61
26/01/2020 01:38:49	26012020	260120	013849	272.070	12.418688	-57.578098	272.100	-0.030	-0.030	0.240	272.080	-1.500	0.600																			1580002729.0	7.86	14.56
26/01/2020 01:38:50	26012020	260120	013850	272.090	12.418688	-57.578135	272.040	-0.120	0.260	0.170	272.090	-1.300	0.600																			1580002730.0	7.69	14.24
26/01/2020 01:38:51	26012020	260120	013851	272.030	12.418688	-57.578170	271.950	-0.170	0.390	-0.050	272.010	-1.000	0.400																			1580002731.0	7.50	13.89
26/01/2020 01:38:52	26012020	260120	013852	271.950	12.418687	-57.578205	271.920	-0.110	0.200	-0.350	271.950	-1.100	0.200																			1580002732.0	7.44	13.78
26/01/2020 01:38:53	26012020	260120	013853	271.950	12.418685	-57.578242	271.960	0.040	-0.250	-0.540	271.950	-1.400	-0.100																			1580002733.0	7.62	14.11
26/01/2020 01:38:54	26012020	260120	013854	272.000	12.418683	-57.578278	272.050	0.190	-0.630	-0.490	272.010	-1.900	-0.200																			1580002734.0	7.89	14.61
26/01/2020 01:38:55	26012020	260120	013855	272.090	12.418682	-57.578317	272.170	0.260	-0.730	-0.290	272.110	-2.100	-0.000																			1580002735.0	7.97	14.76
26/01/2020 01:38:56	26012020	260120	013856	272.220	12.418683	-57.578353	272.380	0.210	-0.590	-0.110	272.260	-2.100	0.200																			1580002736.0	7.80	14.45
26/01/2020 01:38:57	26012020	260120	013857	272.430	12.418685	-57.578390	272.630	0.090	-0.360	0.020	272.480	-1.900	0.300																			1580002737.0	7.58	14.04
26/01/2020 01:38:58	26012020	260120	013858	272.730	12.418687	-57.578425	272.850	-0.020	-0.200	0.080	272.730	-1.700	0.400																			1580002738.0	7.50	13.89
26/01/2020 01:38:59	26012020	260120	013859	272.890	12.418688	-57.578460	272.950	-0.070	-0.110	0.120	272.910	-1.500	0.500	1015.40	25.40	25.50	21.50	21.60	-1.00	79.00	78.00	392.00	24.60	60.00	4.90	21.00	4.50	14	3355.00	27.40	27.40	1580002739.0	7.60	14.08
26/01/2020 01:39:00	26012020	260120	013900	272.950	12.418690	-57.578497	272.910	-0.110	0.030	0.130	272.950	-1.400	0.500																			1580002740.0	7.78	14.41
26/01/2020 01:39:01	26012020	260120	013901	272.890	12.418688	-57.578535	272.780	-0.220	0.240	0.110	272.860	-1.300	0.500																			1580002741.0	7.85	14.54
26/01/2020 01:39:02	26012020	260120	013902	272.760	12.418688	-57.578572	272.670	-0.370	0.450	0.080	272.740	-1.000	0.500																			1580002742.0	7.73	14.32
26/01/2020 01:39:03	26012020	260120	013903	272.650	12.418688	-57.578607	272.590	-0.430	0.460	0.020	272.630	-0.900	0.400																			1580002743.0	7.58	14.04
26/01/2020 01:39:04	26012020	260120	013904	272.590	12.418688	-57.578642	272.620	-0.280	0.140	-0.110	272.590	-1.100	0.300																			1580002744.0	7.50	13.89
26/01/2020 01:39:05	26012020	260120	013905	272.660	12.418687	-57.578678	272.780	0.090	-0.400	-0.240	272.690	-1.500	0.200																			1580002745.0	7.66	14.19
26/01/2020 01:39:06	26012020	260120	013906	272.820	12.418685	-57.578717	272.940	0.470	-0.850	-0.280	272.850	-2.100	0.100																			1580002746.0	7.91	14.65
26/01/2020 01:39:07	26012020	260120	013907	272.970	12.418685	-57.578753	273.060	0.630	-0.970	-0.220	273.000	-2.400	0.100																			1580002747.0	7.98	14.78
26/01/2020 01:39:08	26012020	260120	013908	273.080	12.418687	-57.578792	273.170	0.530	-0.720	-0.140	273.110	-2.300	0.200																			1580002748.0	7.83	14.50
26/01/2020 01:39:09	26012020	260120	013909	273.210	12.418688	-57.578827	273.330	0.270	-0.270	-0.060	273.240	-1.900	0.300																			1580002749.0	7.57	14.02
26/01/2020 01:39:10	26012020	260120	013910	273.390	12.418692	-57.578862	273.510	0.010	0.140	-0.000	273.420	-1.400	0.300																			1580002750.0	7.41	13.72
26/01/2020 01:39:11	26012020	260120	013911	273.530	12.418693	-57.578897	273.500	-0.210	0.390	0.140	273.540	-1.100	0.400																			1580002751.0	7.43	13.76
26/01/2020 01:39:12	26012020	260120	013912	273.480	12.418695	-57.578933	273.270	-0.380	0.470	0.350	273.440	-0.900	0.600																			1580002752.0	7.60	14.08
26/01/2020 01:39:13	26012020	260120	013913	273.210	12.418695	-57.578968	272.940	-0.490	0.380	0.500	273.140	-1.000	0.800																			1580002753.0	7.70	14.26
26/01/2020 01:39:14	26012020	260120	013914	272.890	12.418697	-57.579005	272.770	-0.430	0.040	0.300	272.840	-1.200	0.800																			1580002754.0	7.72	14.30
26/01/2020 01:39:15	26012020	260120	013915	272.760	12.418695	-57.579042	272.870	-0.200	-0.440	-0.240	272.780	-1.600	0.400																			1580002755.0	7.78	14.41
26/01/2020 01:39:16	26012020	260120	013916	272.940	12.418693	-57.579080	273.200	0.090	-0.830	-0.820	273.000	-2.100	-0.200																			1580002756.0	7.95	14.72
26/01/2020 01:39:17	26012020	260120	013917	273.290	12.418690	-57.579118	273.570	0.300	-0.900	-1.130	273.370	-2.300	-0.700																			1580002757.0	8.03	14.87
26/01/2020 01:39:18	26012020	260120	013918	273.670	12.418688	-57.579155	273.820	0.360	-0.590	-0.970	273.720	-2.200	-0.700																			1580002758.0	7.88	14.59
26/01/2020 01:39:19	26012020	260120	013919	273.860	12.418690	-57.579192	273.850	0.280	-0.130	-0.450	273.870	-1.800	-0.400																			1580002759.0	7.60	14.08
26/01/2020 01:39:20	26012020	260120	013920	273.840	12.418693	-57.579227	273.660	0.130	0.290	0.270	273.810	-1.300	0.300																			1580002760.0	7.44	13.78
26/01/2020 01:39:21	26012020	260120	013921	273.610	12.418698	-57.579262	273.340	-0.070	0.550	0.900	273.530	-0.900	1.000																			1580002761.0	7.48	13.85
26/01/2020 01:39:22	26012020	260120	013922	273.200	12.418703	-57.579297	273.090	-0.230	0.530	1.110	273.200	-0.800	1.400																			1580002762.0	7.53	13.95
26/01/2020 01:39:23	26012020	260120	013923	273.040	12.418707	-57.579332	273.040	-0.260	0.220	0.820	273.020	-1.000	1.400																			1580002763.0	7.60	14.08
26/01/2020 01:39:24	26012020	260120	013924	273.030	12.418707	-57.579368	273.160	-0.130	-0.200	0.220	273.060	-1.400	0.900																			1580002764.0	7.77	14.39
26/01/2020 01:39:25	26012020	260120	013925	273.180	12.418705	-57.579407	273.320	0.080	-0.610	-0.360	273.220	-1.800	0.300																			1580002765.0	7.91	14.65
26/01/2020 01:39:26	26012020	260120	013926	273.360	12.418702	-57.579443	273.430	0.260	-0.800	-0.670	273.390	-2.100	-0.200																			1580002766.0	7.94	14.70
26/01/2020 01:39:27	26012020	260120	013927	273.470	12.418698	-57.579480	273.480	0.320	-0.610	-0.620	273.480	-2.100	-0.300																			1580002767.0	7.85	14.54
26/01/2020 01:39:28	26012020	260120	013928	273.500	12.418700	-57.579517	273.490	0.270	-0.250	-0.380	273.510	-1.800	-0.100																			1580002768.0	7.58	14.04
26/01/2020 01:39:29	26012020	260120	013929	273.510	12.418702	-57.579552	273.440	0.120	-0.060	-0.090	273.500	-1.500	0.100																			1580002769.0	7.32	13.56
26/01/2020 01:39:30	26012020	260120	013930	273.440	12.418705	-57.579587	273.310	-0.050	-0.110	0.160	273.410	-1.500	0.400																			1580002770.0	7.42	13.74
26/01/2020 01:39:31	26012020	260120	013931	273.310	12.418708	-57.579622	273.210	-0.210	-0.210	0.220	273.290	-1.600	0.600																			1580002771.0	7.74	14.33
26/01/2020 01:39:32	26012020	260120	013932	273.210	12.418712	-57.579660	273.190	-0.300	-0.160	0.130	273.210	-1.600	0.600																			1580002772.0	7.93	14.69
26/01/2020 01:39:33	26012020	260120	013933	273.190	12.418712	-57.579697	273.200	-0.290	0.020	-0.050	273.190	-1.500	0.400																			1580002773.0	7.86	14.56
26/01/2020 01:39:34	26012020	260120	013934	273.190	12.418710	-57.579733	273.190	-0.210	0.160	-0.160	273.190	-1.300	0.200																			1580002774.0	7.69	14.24
26/01/2020 01:39:35	26012020	260120	013935	273.190	12.418710	-57.579770	273.190	-0.100	0.120	-0.120	273.190	-1.200	0.200																			1580002775.0	7.60	14.08
26/01/2020 01:39:36	26012020	260120	013936	273.190	12.418708	-57.579805	273.180	0.020	-0.020	0.080	273.190	-1.400	0.300																			1580002776.0	7.67	14.20
26/01/2020 01:39:37	26012020	260120	013937	273.170	12.418710	-57.579842	273.120	0.170	-0.120	0.350	273.150	-1.500	0.600																			1580002777.0	7.77	14.39
26/01/2020 01:39:38	26012020	260120	013938	273.100	12.418713	-57.579878	273.060	0.290	-0.150	0.520	273.090	-1.500	0.800																			1580002778.0	7.75	14.35
26/01/2020 01:39:39	26012020	260120	013939	273.040	12.418717	-57.579915	273.040	0.330	-0.190	0.470	273.040	-1.600	0.900																			1580002779.0	7.64	14.15
26/01/2020 01:39:40	26012020	260120	013940	273.040	12.418718	-57.579950	273.020	0.300	-0.270	0.290	273.040	-1.600	0.700																			1580002780.0	7.55	13.98
26/01/2020 01:39:41	26012020	260120	013941	273.030	12.418718	-57.579987	272.940	0.200	-0.360	0.150	273.010	-1.700	0.600																			1580002781.0	7.60	14.08
26/01/2020 01:39:42	26012020	260120	013942	272.940	12.418720	-57.580023	272.790	0.050	-0.390	0.060	272.910	-1.800	0.500																			1580002782.0	7.65	14.17
26/01/2020 01:39:43	26012020	260120	013943	272.790	12.418718	-57.580058	272.640	-0.100	-0.370	-0.040	272.760	-1.800	0.400																			1580002783.0	7.67	14.20
26/01/2020 01:39:44	26012020	260120	013944	272.670	12.418718	-57.580095	272.620	-0.190	-0.340	-0.210	272.670	-1.800	0.300																			1580002784.0	7.65	14.17
26/01/2020 01:39:45	26012020	260120	013945	272.690	12.418718	-57.580132	272.740	-0.190	-0.250	-0.430	272.710	-1.700	0.000																			1580002785.0	7.68	14.22
26/01/2020 01:39:46	26012020	260120	013946	272.860	12.418718	-57.580168	272.910	-0.150	-0.040	-0.550	272.860	-1.600	-0.200																			1580002786.0	7.75	14.35
26/01/2020 01:39:47	26012020	260120	013947	273.000	12.418718	-57.580205	273.000	-0.110	0.180	-0.410	273.020	-1.300	-0.100																			1580002787.0	7.69	14.24
26/01/2020 01:39:48	26012020	260120	013948	273.040	12.418718	-57.580240	272.920	-0.060	0.220	-0.020	273.040	-1.200	0.100																			1580002788.0	7.59	14.06
26/01/2020 01:39:49	26012020	260120	013949	272.930	12.418720	-57.580277	272.700	-0.000	0.070	0.480	272.890	-1.200	0.600																			1580002789.0	7.63	14.13
26/01/2020 01:39:50	26012020	260120	013950	272.620	12.418723	-57.580313	272.450	0.050	-0.110	0.870	272.620	-1.400	1.100																			1580002790.0	7.77	14.39
26/01/2020 01:39:51	26012020	260120	013951	272.420	12.418727	-57.580350	272.300	0.040	-0.250	0.940	272.370	-1.600	1.300																			1580002791.0	7.82	14.48
26/01/2020 01:39:52	26012020	260120	013952	272.280	12.418730	-57.580387	272.280	-0.010	-0.350	0.650	272.280	-1.700	1.200																			1580002792.0	7.73	14.32
26/01/2020 01:39:53	26012020	260120	013953	272.300	12.418730	-57.580423	272.340	-0.030	-0.400	0.240	272.310	-1.800	0.800																			1580002793.0	7.64	14.15
26/01/2020 01:39:54	26012020	260120	013954	272.400	12.418728	-57.580458	272.440	0.010	-0.400	-0.100	272.400	-1.800	0.400																			1580002794.0	7.66	14.19
26/01/2020 01:39:55	26012020	260120	013955	272.490	12.418727	-57.580495	272.520	0.110	-0.350	-0.280	272.510	-1.800	0.200																			1580002795.0	7.69	14.24
26/01/2020 01:39:56	26012020	260120	013956	272.570	12.418725	-57.580532	272.550	0.200	-0.260	-0.240	272.580	-1.700	0.100																			1580002796.0	7.69	14.24
26/01/2020 01:39:57	26012020	260120	013957	272.560	12.418725	-57.580568	272.440	0.180	-0.070	-0.020	272.550	-1.600	0.200																			1580002797.0	7.72	14.30
26/01/2020 01:39:58	26012020	260120	013958	272.450	12.418727	-57.580605	272.250	0.020	0.200	0.250	272.410	-1.300	0.500																			1580002798.0	7.69	14.24
26/01/2020 01:39:59	26012020	260120	013959	272.240	12.418730	-57.580640	272.060	-0.180	0.390	0.400	272.190	-1.100	0.700	1015.40	25.40	25.50	21.60	21.60	-1.00	79.00	79.00	392.00	24.60	62.00	5.40	20.00	5.00	14	3458.00	27.40	27.40	1580002799.0	7.56	14.00
26/01/2020 01:40:00	26012020	260120	014000	272.040	12.418732	-57.580675	271.990	-0.260	0.270	0.320	272.040	-1.000	0.700																			1580002800.0	7.45	13.80
26/01/2020 01:40:01	26012020	260120	014001	272.010	12.418733	-57.580712	271.990	-0.170	-0.120	0.110	272.010	-1.300	0.600																			1580002801.0	7.56	14.00
26/01/2020 01:40:02	26012020	260120	014002	272.020	12.418733	-57.580748	272.000	0.010	-0.520	-0.070	272.020	-1.700	0.400																			1580002802.0	7.80	14.45
26/01/2020 01:40:03	26012020	260120	014003	272.020	12.418732	-57.580785	271.980	0.150	-0.670	-0.070	272.020	-2.000	0.300																			1580002803.0	7.95	14.72
26/01/2020 01:40:04	26012020	260120	014004	271.990	12.418732	-57.580822	271.960	0.150	-0.500	0.080	271.990	-2.000	0.400																			1580002804.0	7.83	14.50
26/01/2020 01:40:05	26012020	260120	014005	271.970	12.418732	-57.580858	271.950	0.050	-0.220	0.340	271.970	-1.800	0.600																			1580002805.0	7.58	14.04
26/01/2020 01:40:06	26012020	260120	014006	271.950	12.418733	-57.580893	271.940	-0.020	-0.100	0.530	271.950	-1.500	0.800																			1580002806.0	7.39	13.69
26/01/2020 01:40:07	26012020	260120	014007	271.950	12.418735	-57.580928	271.970	-0.020	-0.190	0.500	271.960	-1.500	0.900																			1580002807.0	7.47	13.83
26/01/2020 01:40:08	26012020	260120	014008	271.980	12.418737	-57.580965	272.010	0.000	-0.300	0.280	272.000	-1.700	0.800																			1580002808.0	7.76	14.37
26/01/2020 01:40:09	26012020	260120	014009	272.030	12.418737	-57.581003	272.050	-0.070	-0.240	-0.030	272.040	-1.700	0.500																			1580002809.0	7.96	14.74
26/01/2020 01:40:10	26012020	260120	014010	272.080	12.418737	-57.581040	272.070	-0.210	0.030	-0.270	272.090	-1.500	0.200																			1580002810.0	7.91	14.65
26/01/2020 01:40:11	26012020	260120	014011	272.090	12.418735	-57.581077	272.000	-0.280	0.260	-0.280	272.080	-1.200	0.100																			1580002811.0	7.67	14.20
26/01/2020 01:40:12	26012020	260120	014012	272.010	12.418733	-57.581112	271.850	-0.220	0.280	-0.050	271.980	-1.100	0.200																			1580002812.0	7.50	13.89
26/01/2020 01:40:13	26012020	260120	014013	271.840	12.418733	-57.581148	271.650	-0.060	0.130	0.330	271.790	-1.200	0.500																			1580002813.0	7.57	14.02
26/01/2020 01:40:14	26012020	260120	014014	271.630	12.418735	-57.581185	271.510	0.060	-0.050	0.620	271.590	-1.400	0.900																			1580002814.0	7.72	14.30
26/01/2020 01:40:15	26012020	260120	014015	271.500	12.418737	-57.581220	271.450	0.150	-0.230	0.660	271.480	-1.500	1.000																			1580002815.0	7.75	14.35
26/01/2020 01:40:16	26012020	260120	014016	271.460	12.418738	-57.581257	271.440	0.250	-0.410	0.480	271.460	-1.700	0.900																			1580002816.0	7.66	14.19
26/01/2020 01:40:17	26012020	260120	014017	271.460	12.418738	-57.581293	271.450	0.340	-0.580	0.190	271.460	-1.900	0.700																			1580002817.0	7.64	14.15
26/01/2020 01:40:18	26012020	260120	014018	271.480	12.418738	-57.581330	271.510	0.290	-0.570	-0.050	271.500	-2.000	0.400																			1580002818.0	7.71	14.28
26/01/2020 01:40:19	26012020	260120	014019	271.550	12.418738	-57.581367	271.590	0.060	-0.340	-0.140	271.560	-1.900	0.300																			1580002819.0	7.71	14.28
26/01/2020 01:40:20	26012020	260120	014020	271.630	12.418737	-57.581402	271.670	-0.200	-0.050	-0.110	271.640	-1.600	0.200																			1580002820.0	7.53	13.95
26/01/2020 01:40:21	26012020	260120	014021	271.690	12.418738	-57.581437	271.680	-0.310	0.110	0.020	271.700	-1.300	0.300																			1580002821.0	7.42	13.74
26/01/2020 01:40:22	26012020	260120	014022	271.690	12.418738	-57.581472	271.610	-0.210	0.010	0.120	271.680	-1.300	0.400																			1580002822.0	7.49	13.87
26/01/2020 01:40:23	26012020	260120	014023	271.620	12.418740	-57.581508	271.510	-0.060	-0.230	0.110	271.590	-1.500	0.500																			1580002823.0	7.73	14.32
26/01/2020 01:40:24	26012020	260120	014024	271.510	12.418738	-57.581547	271.420	-0.010	-0.330	0.050	271.490	-1.700	0.400																			1580002824.0	7.98	14.78
26/01/2020 01:40:25	26012020	260120	014025	271.410	12.418738	-57.581585	271.330	-0.080	-0.200	0.010	271.390	-1.700	0.400																			1580002825.0	7.99	14.80
26/01/2020 01:40:26	26012020	260120	014026	271.330	12.418737	-57.581620	271.290	-0.140	0.010	0.070	271.320	-1.500	0.400																			1580002826.0	7.71	14.28
26/01/2020 01:40:27	26012020	260120	014027	271.290	12.418738	-57.581657	271.290	-0.060	0.100	0.220	271.290	-1.300	0.500																			1580002827.0	7.48	13.85
26/01/2020 01:40:28	26012020	260120	014028	271.300	12.418738	-57.581692	271.310	0.100	0.030	0.410	271.300	-1.300	0.700																			1580002828.0	7.49	13.87
26/01/2020 01:40:29	26012020	260120	014029	271.330	12.418740	-57.581728	271.340	0.200	-0.100	0.560	271.330	-1.400	0.900																			1580002829.0	7.67	14.20
26/01/2020 01:40:30	26012020	260120	014030	271.340	12.418740	-57.581765	271.330	0.150	-0.250	0.570	271.340	-1.600	1.000																			1580002830.0	7.76	14.37
26/01/2020 01:40:31	26012020	260120	014031	271.310	12.418742	-57.581802	271.270	0.020	-0.370	0.390	271.300	-1.700	0.900																			1580002831.0	7.73	14.32
26/01/2020 01:40:32	26012020	260120	014032	271.250	12.418742	-57.581838	271.190	-0.080	-0.360	0.070	271.240	-1.800	0.600																			1580002832.0	7.72	14.30
26/01/2020 01:40:33	26012020	260120	014033	271.190	12.418742	-57.581873	271.180	-0.130	-0.160	-0.300	271.190	-1.700	0.200																			1580002833.0	7.70	14.26
26/01/2020 01:40:34	26012020	260120	014034	271.200	12.418738	-57.581910	271.190	-0.150	0.060	-0.500	271.200	-1.400	-0.100																			1580002834.0	7.56	14.00
26/01/2020 01:40:35	26012020	260120	014035	271.180	12.418737	-57.581945	271.080	-0.120	0.070	-0.410	271.170	-1.300	-0.100																			1580002835.0	7.42	13.74
26/01/2020 01:40:36	26012020	260120	014036	271.030	12.418735	-57.581980	270.930	0.020	-0.140	-0.100	271.030	-1.400	0.100																			1580002836.0	7.50	13.89
26/01/2020 01:40:37	26012020	260120	014037	270.920	12.418735	-57.582017	270.870	0.220	-0.350	0.220	270.900	-1.700	0.400																			1580002837.0	7.75	14.35
26/01/2020 01:40:38	26012020	260120	014038	270.890	12.418738	-57.582055	270.920	0.350	-0.400	0.480	270.890	-1.800	0.700																			1580002838.0	7.89	14.61
26/01/2020 01:40:39	26012020	260120	014039	270.940	12.418740	-57.582092	271.030	0.320	-0.320	0.610	270.960	-1.800	0.900																			1580002839.0	7.81	14.46
26/01/2020 01:40:40	26012020	260120	014040	271.060	12.418742	-57.582127	271.090	0.160	-0.150	0.650	271.060	-1.600	1.000																			1580002840.0	7.64	14.15
26/01/2020 01:40:41	26012020	260120	014041	271.090	12.418743	-57.582163	271.090	-0.050	0.070	0.610	271.090	-1.400	1.000																			1580002841.0	7.56	14.00
26/01/2020 01:40:42	26012020	260120	014042	271.080	12.418743	-57.582198	271.040	-0.270	0.180	0.450	271.080	-1.300	0.900																			1580002842.0	7.49	13.87
26/01/2020 01:40:43	26012020	260120	014043	271.030	12.418743	-57.582233	270.970	-0.410	0.010	0.170	271.020	-1.300	0.700																			1580002843.0	7.46	13.82
26/01/2020 01:40:44	26012020	260120	014044	270.970	12.418740	-57.582270	270.900	-0.360	-0.330	-0.130	270.950	-1.600	0.400																			1580002844.0	7.67	14.20
26/01/2020 01:40:45	26012020	260120	014045	270.910	12.418738	-57.582307	270.860	-0.180	-0.570	-0.360	270.900	-1.900	0.100																			1580002845.0	7.94	14.70
26/01/2020 01:40:46	26012020	260120	014046	270.900	12.418735	-57.582345	270.890	0.010	-0.530	-0.400	270.900	-2.000	-0.000																			1580002846.0	8.02	14.85
26/01/2020 01:40:47	26012020	260120	014047	270.920	12.418733	-57.582382	270.870	0.100	-0.250	-0.190	270.920	-1.800	0.000																			1580002847.0	7.81	14.46
26/01/2020 01:40:48	26012020	260120	014048	270.890	12.418733	-57.582418	270.810	0.110	0.080	0.170	270.880	-1.500	0.400																			1580002848.0	7.54	13.96
26/01/2020 01:40:49	26012020	260120	014049	270.820	12.418735	-57.582453	270.790	0.080	0.310	0.430	270.810	-1.200	0.700																			1580002849.0	7.41	13.72
26/01/2020 01:40:50	26012020	260120	014050	270.800	12.418737	-57.582488	270.810	0.060	0.320	0.450	270.800	-1.100	0.800																			1580002850.0	7.46	13.82
26/01/2020 01:40:51	26012020	260120	014051	270.830	12.418738	-57.582523	270.850	0.050	0.100	0.330	270.840	-1.200	0.800																			1580002851.0	7.56	14.00
26/01/2020 01:40:52	26012020	260120	014052	270.880	12.418738	-57.582560	270.860	0.080	-0.230	0.250	270.880	-1.500	0.600																			1580002852.0	7.70	14.26
26/01/2020 01:40:53	26012020	260120	014053	270.890	12.418738	-57.582597	270.890	0.100	-0.570	0.260	270.890	-1.800	0.600																			1580002853.0	7.80	14.45
26/01/2020 01:40:54	26012020	260120	014054	270.940	12.418737	-57.582633	270.980	0.070	-0.700	0.250	270.940	-2.100	0.600																			1580002854.0	7.85	14.54
26/01/2020 01:40:55	26012020	260120	014055	271.010	12.418737	-57.582672	271.040	-0.030	-0.530	0.210	271.020	-2.000	0.600																			1580002855.0	7.81	14.46
26/01/2020 01:40:56	26012020	260120	014056	271.050	12.418737	-57.582707	271.010	-0.090	-0.200	0.130	271.040	-1.800	0.500																			1580002856.0	7.61	14.09
26/01/2020 01:40:57	26012020	260120	014057	271.010	12.418737	-57.582742	270.940	-0.070	0.030	-0.000	271.000	-1.500	0.400																			1580002857.0	7.42	13.74
26/01/2020 01:40:58	26012020	260120	014058	270.940	12.418735	-57.582778	270.870	-0.010	0.090	-0.140	270.920	-1.300	0.300																			1580002858.0	7.48	13.85
26/01/2020 01:40:59	26012020	260120	014059	270.880	12.418733	-57.582813	270.830	-0.030	0.080	-0.160	270.860	-1.300	0.200	1015.40	25.40	25.50	21.60	21.60	-1.00	79.00	79.00	391.00	24.60	63.00	5.20	21.00	4.90	14	3417.00	27.40	27.40	1580002859.0	7.66	14.19
26/01/2020 01:41:00	26012020	260120	014100	270.840	12.418732	-57.582850	270.780	-0.130	0.100	-0.010	270.830	-1.300	0.300																			1580002860.0	7.77	14.39
26/01/2020 01:41:01	26012020	260120	014101	270.800	12.418732	-57.582887	270.770	-0.190	0.120	0.240	270.790	-1.300	0.500																			1580002861.0	7.69	14.24
26/01/2020 01:41:02	26012020	260120	014102	270.800	12.418733	-57.582923	270.860	-0.120	-0.060	0.360	270.810	-1.300	0.700																			1580002862.0	7.56	14.00
26/01/2020 01:41:03	26012020	260120	014103	270.910	12.418733	-57.582958	271.060	0.050	-0.430	0.290	270.950	-1.600	0.700																			1580002863.0	7.58	14.04
26/01/2020 01:41:04	26012020	260120	014104	271.140	12.418733	-57.582995	271.210	0.220	-0.710	0.170	271.140	-2.000	0.600																			1580002864.0	7.81	14.46
26/01/2020 01:41:05	26012020	260120	014105	271.240	12.418733	-57.583033	271.230	0.300	-0.630	0.160	271.250	-2.100	0.500																			1580002865.0	7.96	14.74
26/01/2020 01:41:06	26012020	260120	014106	271.220	12.418733	-57.583070	271.120	0.240	-0.240	0.260	271.220	-1.800	0.600																			1580002866.0	7.78	14.41
26/01/2020 01:41:07	26012020	260120	014107	271.130	12.418733	-57.583105	270.990	0.090	0.150	0.350	271.100	-1.400	0.700																			1580002867.0	7.47	13.83
26/01/2020 01:41:08	26012020	260120	014108	271.000	12.418733	-57.583140	270.900	-0.090	0.290	0.330	270.970	-1.100	0.700																			1580002868.0	7.34	13.59
26/01/2020 01:41:09	26012020	260120	014109	270.910	12.418733	-57.583175	270.900	-0.190	0.150	0.130	270.910	-1.200	0.600																			1580002869.0	7.48	13.85
26/01/2020 01:41:10	26012020	260120	014110	270.940	12.418733	-57.583212	270.980	-0.200	-0.070	-0.180	270.950	-1.400	0.300																			1580002870.0	7.72	14.30
26/01/2020 01:41:11	26012020	260120	014111	271.020	12.418732	-57.583248	271.050	-0.170	-0.220	-0.370	271.030	-1.600	0.100																			1580002871.0	7.85	14.54
26/01/2020 01:41:12	26012020	260120	014112	271.070	12.418728	-57.583285	271.050	-0.120	-0.210	-0.290	271.070	-1.600	0.000																			1580002872.0	7.81	14.46
26/01/2020 01:41:13	26012020	260120	014113	271.060	12.418728	-57.583322	271.050	-0.050	-0.200	-0.110	271.060	-1.600	0.200																			1580002873.0	7.62	14.11
26/01/2020 01:41:14	26012020	260120	014114	271.070	12.418728	-57.583357	271.120	0.090	-0.330	0.020	271.080	-1.700	0.300																			1580002874.0	7.52	13.93
26/01/2020 01:41:15	26012020	260120	014115	271.160	12.418728	-57.583393	271.240	0.260	-0.490	0.090	271.180	-1.800	0.400																			1580002875.0	7.65	14.17
26/01/2020 01:41:16	26012020	260120	014116	271.280	12.418730	-57.583430	271.390	0.340	-0.520	0.120	271.310	-1.900	0.500																			1580002876.0	7.84	14.52
26/01/2020 01:41:17	26012020	260120	014117	271.420	12.418732	-57.583468	271.460	0.250	-0.310	0.180	271.440	-1.800	0.500																			1580002877.0	7.87	14.58
26/01/2020 01:41:18	26012020	260120	014118	271.470	12.418732	-57.583505	271.380	0.030	0.050	0.390	271.470	-1.500	0.600																			1580002878.0	7.69	14.24
26/01/2020 01:41:19	26012020	260120	014119	271.360	12.418732	-57.583540	271.160	-0.220	0.360	0.660	271.320	-1.200	0.900																			1580002879.0	7.48	13.85
26/01/2020 01:41:20	26012020	260120	014120	271.090	12.418733	-57.583575	270.960	-0.360	0.460	0.680	271.090	-1.000	1.100																			1580002880.0	7.40	13.70
26/01/2020 01:41:21	26012020	260120	014121	270.960	12.418733	-57.583610	270.920	-0.330	0.310	0.400	270.950	-1.000	0.900																			1580002881.0	7.48	13.85
26/01/2020 01:41:22	26012020	260120	014122	270.960	12.418732	-57.583647	271.010	-0.170	-0.070	0.030	270.960	-1.300	0.600																			1580002882.0	7.63	14.13
26/01/2020 01:41:23	26012020	260120	014123	271.050	12.418728	-57.583683	271.140	0.050	-0.560	-0.270	271.080	-1.700	0.200																			1580002883.0	7.77	14.39
26/01/2020 01:41:24	26012020	260120	014124	271.200	12.418727	-57.583720	271.310	0.250	-0.880	-0.410	271.230	-2.200	0.000																			1580002884.0	7.94	14.70
26/01/2020 01:41:25	26012020	260120	014125	271.360	12.418725	-57.583758	271.450	0.370	-0.820	-0.380	271.400	-2.300	-0.100																			1580002885.0	7.96	14.74
26/01/2020 01:41:26	26012020	260120	014126	271.530	12.418725	-57.583795	271.530	0.370	-0.490	-0.240	271.530	-2.100	0.000																			1580002886.0	7.74	14.33
26/01/2020 01:41:27	26012020	260120	014127	271.580	12.418727	-57.583830	271.590	0.240	-0.080	-0.050	271.600	-1.700	0.200																			1580002887.0	7.51	13.91
26/01/2020 01:41:28	26012020	260120	014128	271.640	12.418728	-57.583865	271.610	0.040	0.260	0.150	271.640	-1.300	0.400																			1580002888.0	7.44	13.78
26/01/2020 01:41:29	26012020	260120	014129	271.640	12.418728	-57.583900	271.560	-0.130	0.400	0.350	271.640	-1.000	0.600																			1580002889.0	7.48	13.85
26/01/2020 01:41:30	26012020	260120	014130	271.550	12.418730	-57.583937	271.430	-0.250	0.310	0.520	271.550	-1.000	0.800																			1580002890.0	7.58	14.04
26/01/2020 01:41:31	26012020	260120	014131	271.410	12.418732	-57.583973	271.260	-0.300	0.090	0.600	271.380	-1.200	0.900																			1580002891.0	7.71	14.28
26/01/2020 01:41:32	26012020	260120	014132	271.220	12.418732	-57.584010	271.180	-0.320	-0.120	0.540	271.220	-1.400	0.900																			1580002892.0	7.80	14.45
26/01/2020 01:41:33	26012020	260120	014133	271.180	12.418730	-57.584047	271.220	-0.250	-0.260	0.340	271.180	-1.600	0.800																			1580002893.0	7.77	14.39
26/01/2020 01:41:34	26012020	260120	014134	271.280	12.418728	-57.584083	271.360	-0.070	-0.390	0.040	271.280	-1.700	0.600																			1580002894.0	7.64	14.15
26/01/2020 01:41:35	26012020	260120	014135	271.400	12.418727	-57.584118	271.480	0.170	-0.520	-0.220	271.420	-1.900	0.300																			1580002895.0	7.62	14.11
26/01/2020 01:41:36	26012020	260120	014136	271.530	12.418725	-57.584155	271.600	0.360	-0.620	-0.390	271.550	-2.000	0.000																			1580002896.0	7.69	14.24
26/01/2020 01:41:37	26012020	260120	014137	271.640	12.418725	-57.584192	271.680	0.400	-0.530	-0.380	271.660	-2.000	-0.100																			1580002897.0	7.79	14.43
26/01/2020 01:41:38	26012020	260120	014138	271.730	12.418723	-57.584228	271.720	0.270	-0.180	-0.130	271.730	-1.800	0.100																			1580002898.0	7.78	14.41
26/01/2020 01:41:39	26012020	260120	014139	271.740	12.418725	-57.584265	271.750	0.110	0.200	0.230	271.740	-1.400	0.400																			1580002899.0	7.59	14.06
26/01/2020 01:41:40	26012020	260120	014140	271.760	12.418728	-57.584300	271.750	0.040	0.320	0.510	271.760	-1.100	0.800																			1580002900.0	7.40	13.70
26/01/2020 01:41:41	26012020	260120	014141	271.760	12.418732	-57.584335	271.710	0.020	0.140	0.630	271.750	-1.200	0.900																			1580002901.0	7.48	13.85
26/01/2020 01:41:42	26012020	260120	014142	271.660	12.418733	-57.584372	271.570	-0.120	-0.070	0.620	271.660	-1.400	1.000																			1580002902.0	7.76	14.37
26/01/2020 01:41:43	26012020	260120	014143	271.550	12.418733	-57.584408	271.400	-0.380	-0.110	0.500	271.510	-1.500	0.900																			1580002903.0	7.90	14.63
26/01/2020 01:41:44	26012020	260120	014144	271.350	12.418732	-57.584445	271.270	-0.570	-0.020	0.290	271.350	-1.500	0.800																			1580002904.0	7.74	14.33
26/01/2020 01:41:45	26012020	260120	014145	271.260	12.418730	-57.584480	271.250	-0.450	-0.050	-0.060	271.250	-1.400	0.500																			1580002905.0	7.51	13.91
26/01/2020 01:41:46	26012020	260120	014146	271.290	12.418727	-57.584515	271.410	-0.040	-0.350	-0.420	271.320	-1.600	0.100																			1580002906.0	7.45	13.80
26/01/2020 01:41:47	26012020	260120	014147	271.470	12.418723	-57.584552	271.630	0.420	-0.720	-0.620	271.510	-2.000	-0.200																			1580002907.0	7.73	14.32
26/01/2020 01:41:48	26012020	260120	014148	271.700	12.418722	-57.584590	271.900	0.640	-0.820	-0.610	271.740	-2.200	-0.300																			1580002908.0	8.01	14.83
26/01/2020 01:41:49	26012020	260120	014149	271.960	12.418723	-57.584628	272.140	0.510	-0.460	-0.360	272.010	-2.100	-0.200																			1580002909.0	7.99	14.80
26/01/2020 01:41:50	26012020	260120	014150	272.190	12.418725	-57.584663	272.220	0.180	0.160	0.160	272.220	-1.600	0.200																			1580002910.0	7.64	14.15
26/01/2020 01:41:51	26012020	260120	014151	272.220	12.418728	-57.584698	272.050	-0.100	0.580	0.820	272.190	-1.000	0.900																			1580002911.0	7.26	13.45
26/01/2020 01:41:52	26012020	260120	014152	271.920	12.418732	-57.584732	271.730	-0.230	0.480	1.320	271.920	-0.800	1.500																			1580002912.0	7.19	13.32
26/01/2020 01:41:53	26012020	260120	014153	271.640	12.418735	-57.584768	271.450	-0.260	-0.030	1.330	271.580	-1.200	1.800																			1580002913.0	7.55	13.98
26/01/2020 01:41:54	26012020	260120	014154	271.400	12.418737	-57.584805	271.390	-0.270	-0.480	0.860	271.380	-1.700	1.500																			1580002914.0	8.01	14.83
26/01/2020 01:41:55	26012020	260120	014155	271.380	12.418735	-57.584843	271.510	-0.240	-0.560	0.140	271.400	-2.000	0.900																			1580002915.0	8.16	15.11
26/01/2020 01:41:56	26012020	260120	014156	271.590	12.418732	-57.584882	271.760	-0.130	-0.390	-0.580	271.590	-1.900	0.100																			1580002916.0	7.90	14.63
26/01/2020 01:41:57	26012020	260120	014157	271.800	12.418727	-57.584917	271.970	0.070	-0.200	-1.040	271.860	-1.700	-0.500																			1580002917.0	7.57	14.02
26/01/2020 01:41:58	26012020	260120	014158	272.050	12.418723	-57.584952	272.090	0.250	-0.060	-1.090	272.050	-1.500	-0.700																			1580002918.0	7.49	13.87
26/01/2020 01:41:59	26012020	260120	014159	272.150	12.418723	-57.584988	272.180	0.290	0.070	-0.800	272.170	-1.400	-0.600	1015.40	25.40	25.40	21.50	21.50	-1.00	79.00	78.00	391.00	24.60	61.00	4.70	23.00	4.40	14	3536.00	27.40	27.40	1580002919.0	7.56	14.00
26/01/2020 01:42:00	26012020	260120	014200	272.220	12.418725	-57.585023	272.170	0.150	0.090	-0.270	272.220	-1.300	-0.200																			1580002920.0	7.58	14.04
26/01/2020 01:42:01	26012020	260120	014201	272.180	12.418728	-57.585060	272.070	-0.050	-0.130	0.280	272.170	-1.400	0.400																			1580002921.0	7.59	14.06
26/01/2020 01:42:02	26012020	260120	014202	272.050	12.418732	-57.585095	271.900	-0.130	-0.390	0.650	272.020	-1.700	0.900																			1580002922.0	7.72	14.30
26/01/2020 01:42:03	26012020	260120	014203	271.870	12.418733	-57.585133	271.730	-0.110	-0.430	0.830	271.830	-1.800	1.100																			1580002923.0	7.86	14.56
26/01/2020 01:42:04	26012020	260120	014204	271.660	12.418735	-57.585170	271.600	-0.100	-0.250	0.880	271.660	-1.800	1.200																			1580002924.0	7.78	14.41
26/01/2020 01:42:05	26012020	260120	014205	271.580	12.418735	-57.585205	271.620	-0.140	-0.070	0.780	271.580	-1.500	1.200																			1580002925.0	7.55	13.98
26/01/2020 01:42:06	26012020	260120	014206	271.630	12.418733	-57.585240	271.740	-0.120	-0.070	0.580	271.630	-1.400	1.100																			1580002926.0	7.42	13.74
26/01/2020 01:42:07	26012020	260120	014207	271.750	12.418733	-57.585277	271.880	-0.000	-0.150	0.300	271.780	-1.500	0.800																			1580002927.0	7.58	14.04
26/01/2020 01:42:08	26012020	260120	014208	271.890	12.418733	-57.585313	271.950	0.130	-0.200	0.020	271.910	-1.600	0.500																			1580002928.0	7.79	14.43
26/01/2020 01:42:09	26012020	260120	014209	271.950	12.418733	-57.585350	271.980	0.190	-0.190	-0.220	271.960	-1.600	0.300																			1580002929.0	7.83	14.50
26/01/2020 01:42:10	26012020	260120	014210	272.000	12.418732	-57.585387	272.050	0.190	-0.150	-0.340	272.010	-1.600	0.100																			1580002930.0	7.76	14.37
26/01/2020 01:42:11	26012020	260120	014211	272.070	12.418732	-57.585423	272.050	0.150	-0.050	-0.300	272.070	-1.500	0.000																			1580002931.0	7.68	14.22
26/01/2020 01:42:12	26012020	260120	014212	272.060	12.418732	-57.585460	271.940	0.090	0.060	-0.100	272.030	-1.400	0.200																			1580002932.0	7.63	14.13
26/01/2020 01:42:13	26012020	260120	014213	271.910	12.418733	-57.585495	271.760	-0.020	0.020	0.130	271.880	-1.300	0.400																			1580002933.0	7.53	13.95
26/01/2020 01:42:14	26012020	260120	014214	271.730	12.418735	-57.585530	271.620	-0.170	-0.150	0.260	271.690	-1.500	0.600																			1580002934.0	7.56	14.00
26/01/2020 01:42:15	26012020	260120	014215	271.580	12.418737	-57.585567	271.560	-0.300	-0.310	0.230	271.570	-1.600	0.600																			1580002935.0	7.68	14.22
26/01/2020 01:42:16	26012020	260120	014216	271.560	12.418737	-57.585603	271.620	-0.320	-0.360	0.100	271.560	-1.700	0.500																			1580002936.0	7.72	14.30
26/01/2020 01:42:17	26012020	260120	014217	271.630	12.418735	-57.585640	271.730	-0.190	-0.340	0.000	271.650	-1.800	0.400																			1580002937.0	7.67	14.20
26/01/2020 01:42:18	26012020	260120	014218	271.740	12.418733	-57.585675	271.830	0.010	-0.300	0.030	271.770	-1.700	0.400																			1580002938.0	7.62	14.11
26/01/2020 01:42:19	26012020	260120	014219	271.840	12.418733	-57.585712	271.900	0.140	-0.210	0.150	271.850	-1.700	0.400																			1580002939.0	7.65	14.17
26/01/2020 01:42:20	26012020	260120	014220	271.900	12.418733	-57.585748	271.930	0.120	-0.110	0.280	271.910	-1.600	0.600																			1580002940.0	7.67	14.20
26/01/2020 01:42:21	26012020	260120	014221	271.940	12.418735	-57.585785	271.970	0.030	-0.020	0.300	271.950	-1.500	0.700																			1580002941.0	7.68	14.22
26/01/2020 01:42:22	26012020	260120	014222	271.960	12.418737	-57.585820	271.950	0.030	-0.020	0.260	271.960	-1.400	0.600																			1580002942.0	7.65	14.17
26/01/2020 01:42:23	26012020	260120	014223	271.950	12.418738	-57.585857	271.900	0.110	-0.040	0.260	271.940	-1.400	0.600																			1580002943.0	7.68	14.22
26/01/2020 01:42:24	26012020	260120	014224	271.880	12.418738	-57.585893	271.810	0.160	-0.060	0.350	271.860	-1.500	0.700																			1580002944.0	7.73	14.32
26/01/2020 01:42:25	26012020	260120	014225	271.780	12.418738	-57.585930	271.680	0.090	-0.110	0.460	271.760	-1.500	0.800																			1580002945.0	7.70	14.26
26/01/2020 01:42:26	26012020	260120	014226	271.630	12.418738	-57.585967	271.490	-0.010	-0.230	0.480	271.600	-1.600	0.900																			1580002946.0	7.64	14.15
26/01/2020 01:42:27	26012020	260120	014227	271.450	12.418740	-57.586002	271.340	-0.040	-0.310	0.300	271.410	-1.700	0.800																			1580002947.0	7.67	14.20
26/01/2020 01:42:28	26012020	260120	014228	271.340	12.418740	-57.586038	271.360	-0.020	-0.260	-0.060	271.340	-1.700	0.500																			1580002948.0	7.71	14.28
26/01/2020 01:42:29	26012020	260120	014229	271.400	12.418740	-57.586075	271.520	-0.040	-0.170	-0.400	271.430	-1.600	0.100																			1580002949.0	7.67	14.20
26/01/2020 01:42:30	26012020	260120	014230	271.580	12.418738	-57.586112	271.720	-0.120	-0.080	-0.590	271.620	-1.500	-0.200																			1580002950.0	7.60	14.08
26/01/2020 01:42:31	26012020	260120	014231	271.780	12.418737	-57.586147	271.870	-0.170	0.020	-0.600	271.810	-1.400	-0.200																			1580002951.0	7.60	14.08
26/01/2020 01:42:32	26012020	260120	014232	271.920	12.418737	-57.586183	271.900	-0.140	-0.010	-0.430	271.920	-1.400	-0.200																			1580002952.0	7.57	14.02
26/01/2020 01:42:33	26012020	260120	014233	271.910	12.418738	-57.586218	271.810	-0.050	-0.230	-0.120	271.900	-1.500	0.100																			1580002953.0	7.58	14.04
26/01/2020 01:42:34	26012020	260120	014234	271.770	12.418738	-57.586255	271.650	-0.020	-0.510	0.260	271.770	-1.800	0.400																			1580002954.0	7.75	14.35
26/01/2020 01:42:35	26012020	260120	014235	271.620	12.418738	-57.586293	271.480	-0.040	-0.590	0.660	271.590	-2.000	0.800																			1580002955.0	7.91	14.65
26/01/2020 01:42:36	26012020	260120	014236	271.430	12.418740	-57.586330	271.400	-0.050	-0.350	0.910	271.430	-1.900	1.200																			1580002956.0	7.89	14.61
26/01/2020 01:42:37	26012020	260120	014237	271.390	12.418743	-57.586367	271.440	0.010	0.080	0.850	271.400	-1.500	1.300																			1580002957.0	7.67	14.20
26/01/2020 01:42:38	26012020	260120	014238	271.450	12.418743	-57.586402	271.470	0.140	0.370	0.660	271.470	-1.100	1.100																			1580002958.0	7.41	13.72
26/01/2020 01:42:39	26012020	260120	014239	271.480	12.418743	-57.586437	271.410	0.250	0.250	0.520	271.470	-1.100	0.900																			1580002959.0	7.36	13.63
26/01/2020 01:42:40	26012020	260120	014240	271.400	12.418743	-57.586472	271.320	0.240	-0.100	0.440	271.380	-1.300	0.800																			1580002960.0	7.63	14.13
26/01/2020 01:42:41	26012020	260120	014241	271.310	12.418743	-57.586510	271.300	0.080	-0.350	0.300	271.310	-1.700	0.800																			1580002961.0	7.94	14.70
26/01/2020 01:42:42	26012020	260120	014242	271.310	12.418745	-57.586547	271.330	-0.120	-0.330	0.010	271.310	-1.800	0.500																			1580002962.0	7.95	14.72
26/01/2020 01:42:43	26012020	260120	014243	271.350	12.418743	-57.586583	271.350	-0.250	-0.190	-0.400	271.360	-1.700	0.200																			1580002963.0	7.68	14.22
26/01/2020 01:42:44	26012020	260120	014244	271.360	12.418743	-57.586618	271.320	-0.280	-0.160	-0.780	271.360	-1.600	-0.200																			1580002964.0	7.46	13.82
26/01/2020 01:42:45	26012020	260120	014245	271.340	12.418740	-57.586655	271.280	-0.220	-0.280	-0.980	271.330	-1.600	-0.500																			1580002965.0	7.51	13.91
26/01/2020 01:42:46	26012020	260120	014246	271.280	12.418737	-57.586692	271.230	-0.070	-0.380	-0.880	271.280	-1.700	-0.600																			1580002966.0	7.74	14.33
26/01/2020 01:42:47	26012020	260120	014247	271.250	12.418735	-57.586728	271.200	0.120	-0.330	-0.450	271.250	-1.800	-0.300																			1580002967.0	7.84	14.52
26/01/2020 01:42:48	26012020	260120	014248	271.210	12.418737	-57.586765	271.200	0.300	-0.190	0.160	271.210	-1.700	0.200																			1580002968.0	7.75	14.35
26/01/2020 01:42:49	26012020	260120	014249	271.210	12.418740	-57.586800	271.210	0.340	-0.040	0.800	271.210	-1.500	0.900																			1580002969.0	7.66	14.19
26/01/2020 01:42:50	26012020	260120	014250	271.200	12.418743	-57.586837	271.150	0.190	0.060	1.360	271.200	-1.400	1.500																			1580002970.0	7.63	14.13
26/01/2020 01:42:51	26012020	260120	014251	271.110	12.418748	-57.586872	270.990	-0.080	0.070	1.610	271.080	-1.300	1.900																			1580002971.0	7.63	14.13
26/01/2020 01:42:52	26012020	260120	014252	270.950	12.418752	-57.586908	270.940	-0.320	0.050	1.350	270.950	-1.400	1.900																			1580002972.0	7.66	14.19
26/01/2020 01:42:53	26012020	260120	014253	270.940	12.418752	-57.586945	270.980	-0.400	0.020	0.700	270.950	-1.400	1.400																			1580002973.0	7.67	14.20
26/01/2020 01:42:54	26012020	260120	014254	271.010	12.418748	-57.586982	271.010	-0.270	-0.060	-0.040	271.010	-1.400	0.700																			1580002974.0	7.67	14.20
26/01/2020 01:42:55	26012020	260120	014255	271.030	12.418745	-57.587017	271.010	-0.030	-0.320	-0.680	271.030	-1.600	-0.000																			1580002975.0	7.68	14.22
26/01/2020 01:42:56	26012020	260120	014256	271.020	12.418738	-57.587053	270.970	0.150	-0.560	-1.050	271.020	-1.900	-0.500																			1580002976.0	7.83	14.50
26/01/2020 01:42:57	26012020	260120	014257	271.000	12.418735	-57.587092	270.940	0.210	-0.640	-1.050	270.990	-2.000	-0.700																			1580002977.0	7.92	14.67
26/01/2020 01:42:58	26012020	260120	014258	270.950	12.418733	-57.587128	270.890	0.210	-0.450	-0.710	270.950	-2.000	-0.500																			1580002978.0	7.80	14.45
26/01/2020 01:42:59	26012020	260120	014259	270.900	12.418735	-57.587163	270.850	0.230	-0.150	-0.150	270.890	-1.700	-0.100	1015.40	25.40	25.40	21.50	21.50	-1.00	79.00	78.00	392.00	24.60	63.00	4.70	25.00	4.50	14	3449.00	27.40	27.40	1580002979.0	7.61	14.09
26/01/2020 01:43:00	26012020	260120	014300	270.840	12.418738	-57.587198	270.840	0.260	0.060	0.420	270.830	-1.400	0.500																			1580002980.0	7.49	13.87
26/01/2020 01:43:01	26012020	260120	014301	270.830	12.418742	-57.587235	270.920	0.210	0.170	0.820	270.840	-1.300	1.000																			1580002981.0	7.56	14.00
26/01/2020 01:43:02	26012020	260120	014302	270.910	12.418745	-57.587270	271.010	0.050	0.240	0.950	270.940	-1.200	1.300																			1580002982.0	7.71	14.28
26/01/2020 01:43:03	26012020	260120	014303	271.000	12.418748	-57.587307	271.020	-0.190	0.270	0.860	271.010	-1.100	1.300																			1580002983.0	7.72	14.30
26/01/2020 01:43:04	26012020	260120	014304	270.970	12.418750	-57.587343	270.930	-0.440	0.110	0.530	270.970	-1.200	1.100																			1580002984.0	7.61	14.09
26/01/2020 01:43:05	26012020	260120	014305	270.880	12.418748	-57.587380	270.810	-0.570	-0.210	0.000	270.860	-1.400	0.600																			1580002985.0	7.65	14.17
26/01/2020 01:43:06	26012020	260120	014306	270.770	12.418743	-57.587417	270.730	-0.470	-0.540	-0.550	270.770	-1.800	0.100																			1580002986.0	7.79	14.43
26/01/2020 01:43:07	26012020	260120	014307	270.720	12.418738	-57.587453	270.730	-0.170	-0.710	-0.880	270.720	-2.100	-0.400																			1580002987.0	7.90	14.63
26/01/2020 01:43:08	26012020	260120	014308	270.760	12.418733	-57.587490	270.840	0.200	-0.690	-0.910	270.760	-2.100	-0.600																			1580002988.0	7.81	14.46
26/01/2020 01:43:09	26012020	260120	014309	270.880	12.418730	-57.587525	270.990	0.460	-0.530	-0.620	270.900	-2.000	-0.400																			1580002989.0	7.64	14.15
26/01/2020 01:43:10	26012020	260120	014310	271.030	12.418732	-57.587562	271.050	0.530	-0.220	-0.080	271.030	-1.800	0.000																			1580002990.0	7.60	14.08
26/01/2020 01:43:11	26012020	260120	014311	271.060	12.418735	-57.587597	271.030	0.450	0.160	0.520	271.060	-1.400	0.600																			1580002991.0	7.61	14.09
26/01/2020 01:43:12	26012020	260120	014312	271.020	12.418740	-57.587633	270.960	0.270	0.430	0.930	271.000	-1.100	1.100																			1580002992.0	7.59	14.06
26/01/2020 01:43:13	26012020	260120	014313	270.930	12.418745	-57.587668	270.880	0.020	0.440	1.040	270.910	-0.900	1.400																			1580002993.0	7.57	14.02
26/01/2020 01:43:14	26012020	260120	014314	270.840	12.418747	-57.587705	270.830	-0.260	0.190	0.790	270.840	-1.100	1.300																			1580002994.0	7.65	14.17
26/01/2020 01:43:15	26012020	260120	014315	270.820	12.418747	-57.587742	270.810	-0.470	-0.110	0.300	270.820	-1.400	0.900																			1580002995.0	7.80	14.45
26/01/2020 01:43:16	26012020	260120	014316	270.800	12.418743	-57.587778	270.780	-0.500	-0.240	-0.230	270.800	-1.600	0.400																			1580002996.0	7.86	14.56
26/01/2020 01:43:17	26012020	260120	014317	270.790	12.418740	-57.587815	270.760	-0.320	-0.330	-0.650	270.790	-1.700	-0.100																			1580002997.0	7.73	14.32
26/01/2020 01:43:18	26012020	260120	014318	270.790	12.418735	-57.587850	270.780	-0.020	-0.530	-0.820	270.790	-1.800	-0.400																			1580002998.0	7.55	13.98
26/01/2020 01:43:19	26012020	260120	014319	270.800	12.418730	-57.587887	270.800	0.220	-0.740	-0.710	270.810	-2.000	-0.400																			1580002999.0	7.61	14.09
26/01/2020 01:43:20	26012020	260120	014320	270.830	12.418730	-57.587923	270.850	0.300	-0.700	-0.420	270.830	-2.200	-0.200																			1580003000.0	7.77	14.39
26/01/2020 01:43:21	26012020	260120	014321	270.860	12.418732	-57.587960	270.920	0.250	-0.330	-0.050	270.880	-1.900	0.100																			1580003001.0	7.79	14.43
26/01/2020 01:43:22	26012020	260120	014322	270.960	12.418735	-57.587995	271.030	0.150	0.130	0.290	270.980	-1.500	0.500																			1580003002.0	7.60	14.08
26/01/2020 01:43:23	26012020	260120	014323	271.060	12.418737	-57.588030	271.110	0.070	0.380	0.550	271.080	-1.100	0.800																			1580003003.0	7.41	13.72
26/01/2020 01:43:24	26012020	260120	014324	271.120	12.418740	-57.588065	271.070	0.000	0.350	0.730	271.120	-1.000	1.000																			1580003004.0	7.51	13.91
26/01/2020 01:43:25	26012020	260120	014325	271.060	12.418740	-57.588102	270.930	-0.100	0.200	0.790	271.030	-1.100	1.100																			1580003005.0	7.73	14.32
26/01/2020 01:43:26	26012020	260120	014326	270.880	12.418740	-57.588138	270.800	-0.230	0.060	0.690	270.880	-1.300	1.100																			1580003006.0	7.83	14.50
26/01/2020 01:43:27	26012020	260120	014327	270.790	12.418740	-57.588175	270.760	-0.290	-0.120	0.400	270.780	-1.400	0.900																			1580003007.0	7.72	14.30
26/01/2020 01:43:28	26012020	260120	014328	270.780	12.418737	-57.588212	270.800	-0.190	-0.370	0.040	270.790	-1.600	0.600																			1580003008.0	7.62	14.11
26/01/2020 01:43:29	26012020	260120	014329	270.830	12.418735	-57.588248	270.840	0.050	-0.630	-0.280	270.840	-1.900	0.200																			1580003009.0	7.64	14.15
26/01/2020 01:43:30	26012020	260120	014330	270.860	12.418732	-57.588285	270.900	0.250	-0.720	-0.510	270.880	-2.100	-0.000																			1580003010.0	7.72	14.30
26/01/2020 01:43:31	26012020	260120	014331	270.930	12.418730	-57.588322	271.010	0.250	-0.520	-0.620	270.950	-2.100	-0.200																			1580003011.0	7.77	14.39
26/01/2020 01:43:32	26012020	260120	014332	271.060	12.418730	-57.588357	271.090	0.040	-0.110	-0.600	271.060	-1.700	-0.300																			1580003012.0	7.64	14.15
26/01/2020 01:43:33	26012020	260120	014333	271.110	12.418730	-57.588392	271.100	-0.160	0.190	-0.410	271.110	-1.300	-0.200																			1580003013.0	7.41	13.72
26/01/2020 01:43:34	26012020	260120	014334	271.090	12.418730	-57.588427	271.080	-0.170	0.150	-0.130	271.090	-1.200	0.100																			1580003014.0	7.37	13.65
26/01/2020 01:43:35	26012020	260120	014335	271.070	12.418732	-57.588463	271.100	-0.010	-0.060	0.130	271.070	-1.400	0.400																			1580003015.0	7.64	14.15
26/01/2020 01:43:36	26012020	260120	014336	271.110	12.418733	-57.588500	271.190	0.130	-0.150	0.370	271.130	-1.500	0.600																			1580003016.0	7.95	14.72
26/01/2020 01:43:37	26012020	260120	014337	271.200	12.418733	-57.588538	271.290	0.100	0.030	0.650	271.230	-1.500	0.900																			1580003017.0	7.94	14.70
26/01/2020 01:43:38	26012020	260120	014338	271.280	12.418735	-57.588575	271.290	-0.010	0.240	0.860	271.280	-1.200	1.100																			1580003018.0	7.62	14.11
26/01/2020 01:43:39	26012020	260120	014339	271.250	12.418737	-57.588608	271.170	-0.030	0.190	0.850	271.240	-1.200	1.200																			1580003019.0	7.31	13.54
26/01/2020 01:43:40	26012020	260120	014340	271.120	12.418737	-57.588643	271.020	0.070	-0.150	0.630	271.090	-1.400	1.100																			1580003020.0	7.36	13.63
26/01/2020 01:43:41	26012020	260120	014341	271.000	12.418737	-57.588680	270.980	0.120	-0.550	0.210	270.990	-1.800	0.800																			1580003021.0	7.67	14.20
26/01/2020 01:43:42	26012020	260120	014342	270.990	12.418735	-57.588717	271.050	0.050	-0.800	-0.350	271.000	-2.100	0.300																			1580003022.0	7.85	14.54
26/01/2020 01:43:43	26012020	260120	014343	271.090	12.418732	-57.588753	271.240	-0.060	-0.780	-0.900	271.130	-2.200	-0.300																			1580003023.0	7.84	14.52
26/01/2020 01:43:44	26012020	260120	014344	271.310	12.418728	-57.588790	271.470	-0.080	-0.530	-1.230	271.360	-2.100	-0.700																			1580003024.0	7.71	14.28
26/01/2020 01:43:45	26012020	260120	014345	271.540	12.418725	-57.588827	271.660	-0.020	-0.160	-1.140	271.580	-1.800	-0.900																			1580003025.0	7.61	14.09
26/01/2020 01:43:46	26012020	260120	014346	271.730	12.418723	-57.588862	271.730	0.010	0.210	-0.580	271.730	-1.400	-0.500																			1580003026.0	7.55	13.98
26/01/2020 01:43:47	26012020	260120	014347	271.750	12.418725	-57.588897	271.660	0.000	0.430	0.230	271.740	-1.100	0.200																			1580003027.0	7.54	13.96
26/01/2020 01:43:48	26012020	260120	014348	271.610	12.418730	-57.588933	271.500	-0.020	0.420	0.940	271.610	-1.000	1.000																			1580003028.0	7.60	14.08
26/01/2020 01:43:49	26012020	260120	014349	271.470	12.418735	-57.588970	271.380	-0.000	0.200	1.290	271.440	-1.100	1.500																			1580003029.0	7.73	14.32
26/01/2020 01:43:50	26012020	260120	014350	271.330	12.418738	-57.589007	271.310	0.070	-0.070	1.200	271.330	-1.400	1.700																			1580003030.0	7.78	14.41
26/01/2020 01:43:51	26012020	260120	014351	271.290	12.418738	-57.589043	271.290	0.120	-0.290	0.810	271.280	-1.600	1.400																			1580003031.0	7.79	14.43
26/01/2020 01:43:52	26012020	260120	014352	271.290	12.418738	-57.589078	271.310	0.090	-0.500	0.220	271.290	-1.800	0.900																			1580003032.0	7.68	14.22
26/01/2020 01:43:53	26012020	260120	014353	271.330	12.418735	-57.589115	271.330	-0.070	-0.660	-0.380	271.330	-2.000	0.300																			1580003033.0	7.62	14.11
26/01/2020 01:43:54	26012020	260120	014354	271.360	12.418732	-57.589152	271.400	-0.260	-0.610	-0.870	271.370	-2.100	-0.300																			1580003034.0	7.70	14.26
26/01/2020 01:43:55	26012020	260120	014355	271.450	12.418728	-57.589187	271.580	-0.360	-0.310	-1.200	271.480	-1.900	-0.700																			1580003035.0	7.69	14.24
26/01/2020 01:43:56	26012020	260120	014356	271.680	12.418725	-57.589223	271.800	-0.290	0.030	-1.210	271.680	-1.500	-0.900																			1580003036.0	7.55	13.98
26/01/2020 01:43:57	26012020	260120	014357	271.840	12.418723	-57.589258	271.920	-0.030	0.150	-0.850	271.860	-1.300	-0.700																			1580003037.0	7.42	13.74
26/01/2020 01:43:58	26012020	260120	014358	271.940	12.418723	-57.589293	271.910	0.330	0.080	-0.200	271.940	-1.300	-0.200																			1580003038.0	7.53	13.95
26/01/2020 01:43:59	26012020	260120	014359	271.890	12.418727	-57.589330	271.790	0.600	-0.010	0.540	271.860	-1.400	0.600	1015.40	25.40	25.40	21.50	21.50	-1.00	79.00	78.00	392.00	24.60	60.00	5.10	19.00	4.60	14	3426.00	27.40	27.40	1580003039.0	7.78	14.41
26/01/2020 01:44:00	26012020	260120	014400	271.750	12.418730	-57.589367	271.650	0.600	-0.040	1.110	271.720	-1.400	1.200																			1580003040.0	7.86	14.56
26/01/2020 01:44:01	26012020	260120	014401	271.610	12.418735	-57.589403	271.490	0.330	-0.010	1.370	271.580	-1.400	1.700																			1580003041.0	7.75	14.35
26/01/2020 01:44:02	26012020	260120	014402	271.440	12.418740	-57.589438	271.330	-0.060	-0.050	1.290	271.440	-1.400	1.700																			1580003042.0	7.54	13.96
26/01/2020 01:44:03	26012020	260120	014403	271.310	12.418742	-57.589475	271.170	-0.330	-0.220	0.960	271.280	-1.500	1.500																			1580003043.0	7.45	13.80
26/01/2020 01:44:04	26012020	260120	014404	271.160	12.418740	-57.589510	271.110	-0.410	-0.440	0.450	271.160	-1.700	1.100																			1580003044.0	7.54	13.96
26/01/2020 01:44:05	26012020	260120	014405	271.150	12.418738	-57.589547	271.200	-0.370	-0.590	-0.140	271.160	-1.900	0.500																			1580003045.0	7.74	14.33
26/01/2020 01:44:06	26012020	260120	014406	271.280	12.418733	-57.589583	271.450	-0.310	-0.560	-0.780	271.320	-2.000	-0.100																			1580003046.0	7.81	14.46
26/01/2020 01:44:07	26012020	260120	014407	271.550	12.418730	-57.589620	271.740	-0.260	-0.380	-1.330	271.610	-1.900	-0.700																			1580003047.0	7.77	14.39
26/01/2020 01:44:08	26012020	260120	014408	271.890	12.418727	-57.589655	271.980	-0.180	-0.130	-1.600	271.890	-1.700	-1.100																			1580003048.0	7.69	14.24
26/01/2020 01:44:09	26012020	260120	014409	272.070	12.418723	-57.589692	272.100	-0.030	0.070	-1.450	272.090	-1.400	-1.200																			1580003049.0	7.59	14.06
26/01/2020 01:44:10	26012020	260120	014410	272.120	12.418722	-57.589727	272.000	0.180	0.200	-0.730	272.120	-1.300	-0.800																			1580003050.0	7.59	14.06
26/01/2020 01:44:11	26012020	260120	014411	271.970	12.418723	-57.589763	271.710	0.360	0.220	0.380	271.910	-1.200	0.200																			1580003051.0	7.63	14.13
26/01/2020 01:44:12	26012020	260120	014412	271.590	12.418730	-57.589800	271.410	0.450	0.140	1.460	271.590	-1.200	1.300																			1580003052.0	7.73	14.32
26/01/2020 01:44:13	26012020	260120	014413	271.340	12.418737	-57.589835	271.210	0.400	-0.020	2.130	271.290	-1.300	2.300																			1580003053.0	7.82	14.48
26/01/2020 01:44:14	26012020	260120	014414	271.120	12.418743	-57.589872	271.140	0.180	-0.200	2.160	271.120	-1.500	2.600																			1580003054.0	7.77	14.39
26/01/2020 01:44:15	26012020	260120	014415	271.120	12.418747	-57.589908	271.270	-0.120	-0.320	1.560	271.140	-1.700	2.300																			1580003055.0	7.65	14.17
26/01/2020 01:44:16	26012020	260120	014416	271.340	12.418747	-57.589943	271.520	-0.370	-0.400	0.470	271.340	-1.800	1.400																			1580003056.0	7.57	14.02
26/01/2020 01:44:17	26012020	260120	014417	271.570	12.418742	-57.589980	271.780	-0.440	-0.450	-0.770	271.630	-1.800	0.200																			1580003057.0	7.61	14.09
26/01/2020 01:44:18	26012020	260120	014418	271.840	12.418733	-57.590015	271.920	-0.290	-0.430	-1.690	271.870	-1.900	-0.900																			1580003058.0	7.76	14.37
26/01/2020 01:44:19	26012020	260120	014419	271.960	12.418725	-57.590052	271.890	-0.020	-0.310	-1.970	271.960	-1.800	-1.500																			1580003059.0	7.84	14.52
26/01/2020 01:44:20	26012020	260120	014420	271.900	12.418720	-57.590087	271.740	0.250	-0.170	-1.560	271.870	-1.600	-1.500																			1580003060.0	7.71	14.28
26/01/2020 01:44:21	26012020	260120	014421	271.740	12.418720	-57.590123	271.560	0.420	-0.060	-0.650	271.700	-1.500	-0.800																			1580003061.0	7.57	14.02
26/01/2020 01:44:22	26012020	260120	014422	271.560	12.418725	-57.590158	271.460	0.440	-0.020	0.340	271.530	-1.400	0.300																			1580003062.0	7.63	14.13
26/01/2020 01:44:23	26012020	260120	014423	271.460	12.418733	-57.590195	271.410	0.280	-0.020	1.100	271.450	-1.400	1.100																			1580003063.0	7.77	14.39
26/01/2020 01:44:24	26012020	260120	014424	271.400	12.418740	-57.590232	271.370	-0.030	-0.010	1.500	271.400	-1.400	1.700																			1580003064.0	7.77	14.39
26/01/2020 01:44:25	26012020	260120	014425	271.380	12.418743	-57.590267	271.330	-0.370	-0.050	1.540	271.360	-1.400	1.900																			1580003065.0	7.66	14.19
26/01/2020 01:44:26	26012020	260120	014426	271.350	12.418745	-57.590303	271.370	-0.560	-0.230	1.130	271.350	-1.500	1.800																			1580003066.0	7.57	14.02
26/01/2020 01:44:27	26012020	260120	014427	271.400	12.418743	-57.590338	271.480	-0.520	-0.400	0.390	271.420	-1.700	1.200																			1580003067.0	7.67	14.20
26/01/2020 01:44:28	26012020	260120	014428	271.570	12.418740	-57.590377	271.620	-0.300	-0.380	-0.400	271.570	-1.800	0.300																			1580003068.0	7.89	14.61
26/01/2020 01:44:29	26012020	260120	014429	271.680	12.418733	-57.590413	271.690	-0.040	-0.220	-0.900	271.700	-1.700	-0.300																			1580003069.0	7.87	14.58
26/01/2020 01:44:30	26012020	260120	014430	271.730	12.418728	-57.590448	271.650	0.190	-0.120	-0.980	271.730	-1.600	-0.600																			1580003070.0	7.66	14.19
26/01/2020 01:44:31	26012020	260120	014431	271.670	12.418727	-57.590485	271.580	0.350	-0.130	-0.700	271.660	-1.500	-0.500																			1580003071.0	7.55	13.98
26/01/2020 01:44:32	26012020	260120	014432	271.600	12.418728	-57.590520	271.490	0.420	-0.080	-0.130	271.580	-1.500	-0.100																			1580003072.0	7.64	14.15
26/01/2020 01:44:33	26012020	260120	014433	271.500	12.418732	-57.590557	271.390	0.380	0.080	0.490	271.480	-1.400	0.600																			1580003073.0	7.70	14.26
26/01/2020 01:44:34	26012020	260120	014434	271.370	12.418735	-57.590592	271.280	0.210	0.230	0.980	271.370	-1.200	1.100																			1580003074.0	7.57	14.02
26/01/2020 01:44:35	26012020	260120	014435	271.260	12.418740	-57.590627	271.160	-0.010	0.180	1.160	271.230	-1.200	1.500																			1580003075.0	7.44	13.78
26/01/2020 01:44:36	26012020	260120	014436	271.140	12.418742	-57.590662	271.080	-0.200	-0.070	0.940	271.130	-1.300	1.500																			1580003076.0	7.44	13.78
26/01/2020 01:44:37	26012020	260120	014437	271.090	12.418743	-57.590698	271.100	-0.260	-0.340	0.400	271.090	-1.600	1.100																			1580003077.0	7.61	14.09
26/01/2020 01:44:38	26012020	260120	014438	271.140	12.418740	-57.590735	271.190	-0.180	-0.510	-0.210	271.140	-1.800	0.500																			1580003078.0	7.72	14.30
26/01/2020 01:44:39	26012020	260120	014439	271.220	12.418737	-57.590772	271.320	-0.030	-0.640	-0.670	271.250	-2.000	-0.100																			1580003079.0	7.72	14.30
26/01/2020 01:44:40	26012020	260120	014440	271.410	12.418732	-57.590807	271.480	0.130	-0.750	-0.840	271.410	-2.100	-0.400																			1580003080.0	7.67	14.20
26/01/2020 01:44:41	26012020	260120	014441	271.550	12.418730	-57.590843	271.660	0.180	-0.670	-0.710	271.580	-2.200	-0.400																			1580003081.0	7.73	14.32
26/01/2020 01:44:42	26012020	260120	014442	271.750	12.418730	-57.590880	271.800	0.090	-0.230	-0.370	271.750	-1.900	-0.200																			1580003082.0	7.77	14.39
26/01/2020 01:44:43	26012020	260120	014443	271.840	12.418732	-57.590917	271.800	-0.070	0.320	0.060	271.840	-1.300	0.200																			1580003083.0	7.58	14.04
26/01/2020 01:44:44	26012020	260120	014444	271.750	12.418735	-57.590950	271.600	-0.130	0.580	0.510	271.750	-0.900	0.700																			1580003084.0	7.32	13.56
26/01/2020 01:44:45	26012020	260120	014445	271.560	12.418737	-57.590985	271.350	-0.070	0.360	0.840	271.510	-0.900	1.100																			1580003085.0	7.37	13.65
26/01/2020 01:44:46	26012020	260120	014446	271.290	12.418738	-57.591022	271.210	-0.030	-0.100	0.920	271.290	-1.300	1.300																			1580003086.0	7.75	14.35
26/01/2020 01:44:47	26012020	260120	014447	271.220	12.418740	-57.591060	271.180	-0.080	-0.350	0.770	271.200	-1.700	1.200																			1580003087.0	8.09	14.98
26/01/2020 01:44:48	26012020	260120	014448	271.180	12.418742	-57.591098	271.130	-0.190	-0.220	0.480	271.180	-1.700	1.000																			1580003088.0	8.00	14.82
26/01/2020 01:44:49	26012020	260120	014449	271.160	12.418740	-57.591133	271.130	-0.290	0.040	0.070	271.150	-1.500	0.700																			1580003089.0	7.57	14.02
26/01/2020 01:44:50	26012020	260120	014450	271.190	12.418738	-57.591168	271.270	-0.300	0.060	-0.470	271.190	-1.300	0.200																			1580003090.0	7.24	13.41
26/01/2020 01:44:51	26012020	260120	014451	271.330	12.418733	-57.591203	271.430	-0.150	-0.180	-0.840	271.360	-1.400	-0.300																			1580003091.0	7.32	13.56
26/01/2020 01:44:52	26012020	260120	014452	271.510	12.418730	-57.591238	271.520	0.150	-0.490	-0.890	271.510	-1.800	-0.500																			1580003092.0	7.62	14.11
26/01/2020 01:44:53	26012020	260120	014453	271.560	12.418728	-57.591275	271.560	0.480	-0.670	-0.610	271.570	-2.000	-0.400																			1580003093.0	7.80	14.45
26/01/2020 01:44:54	26012020	260120	014454	271.580	12.418728	-57.591312	271.550	0.650	-0.570	-0.070	271.580	-2.100	0.000																			1580003094.0	7.81	14.46
26/01/2020 01:44:55	26012020	260120	014455	271.570	12.418732	-57.591348	271.480	0.570	-0.250	0.550	271.550	-1.800	0.600																			1580003095.0	7.69	14.24
26/01/2020 01:44:56	26012020	260120	014456	271.460	12.418737	-57.591383	271.350	0.320	0.080	1.020	271.440	-1.500	1.200																			1580003096.0	7.52	13.93
26/01/2020 01:44:57	26012020	260120	014457	271.320	12.418742	-57.591418	271.250	0.000	0.250	1.100	271.300	-1.200	1.500																			1580003097.0	7.45	13.80
26/01/2020 01:44:58	26012020	260120	014458	271.250	12.418745	-57.591453	271.260	-0.330	0.160	0.750	271.250	-1.200	1.300																			1580003098.0	7.48	13.85
26/01/2020 01:44:59	26012020	260120	014459	271.290	12.418745	-57.591490	271.290	-0.640	-0.070	0.190	271.290	-1.400	0.900	1015.40	25.40	25.50	21.60	21.60	-1.00	79.00	79.00	392.00	24.60	63.00	4.60	25.00	4.50	14	3323.00	27.40	27.40	1580003099.0	7.62	14.11
26/01/2020 01:45:00	26012020	260120	014500	271.350	12.418742	-57.591527	271.340	-0.790	-0.250	-0.360	271.350	-1.600	0.300																			1580003100.0	7.83	14.50
26/01/2020 01:45:01	26012020	260120	014501	271.390	12.418737	-57.591563	271.390	-0.670	-0.290	-0.780	271.400	-1.700	-0.200																			1580003101.0	7.89	14.61
26/01/2020 01:45:02	26012020	260120	014502	271.440	12.418730	-57.591600	271.430	-0.280	-0.330	-0.940	271.440	-1.700	-0.500																			1580003102.0	7.76	14.37
26/01/2020 01:45:03	26012020	260120	014503	271.490	12.418727	-57.591637	271.540	0.250	-0.430	-0.850	271.510	-1.800	-0.500																			1580003103.0	7.65	14.17
26/01/2020 01:45:04	26012020	260120	014504	271.650	12.418727	-57.591672	271.700	0.630	-0.400	-0.540	271.650	-1.800	-0.300																			1580003104.0	7.74	14.33
26/01/2020 01:45:05	26012020	260120	014505	271.760	12.418728	-57.591710	271.740	0.650	-0.120	0.040	271.780	-1.700	0.100																			1580003105.0	7.81	14.46
26/01/2020 01:45:06	26012020	260120	014506	271.730	12.418733	-57.591745	271.560	0.370	0.280	0.780	271.730	-1.300	0.800																			1580003106.0	7.63	14.13
26/01/2020 01:45:07	26012020	260120	014507	271.550	12.418738	-57.591780	271.270	0.000	0.550	1.350	271.490	-0.900	1.500																			1580003107.0	7.37	13.65
26/01/2020 01:45:08	26012020	260120	014508	271.250	12.418743	-57.591813	271.070	-0.230	0.370	1.460	271.200	-0.900	1.900																			1580003108.0	7.25	13.43
26/01/2020 01:45:09	26012020	260120	014509	271.060	12.418745	-57.591848	271.030	-0.280	-0.280	1.010	271.040	-1.300	1.700																			1580003109.0	7.38	13.67
26/01/2020 01:45:10	26012020	260120	014510	271.030	12.418743	-57.591885	271.130	-0.260	-0.880	0.240	271.050	-2.000	1.000																			1580003110.0	7.85	14.54
26/01/2020 01:45:11	26012020	260120	014511	271.160	12.418738	-57.591923	271.320	-0.220	-0.940	-0.490	271.200	-2.400	0.200																			1580003111.0	8.20	15.19
26/01/2020 01:45:12	26012020	260120	014512	271.410	12.418733	-57.591962	271.530	-0.110	-0.510	-0.940	271.410	-2.100	-0.400																			1580003112.0	7.96	14.74
26/01/2020 01:45:13	26012020	260120	014513	271.570	12.418730	-57.591997	271.680	0.110	-0.040	-1.060	271.610	-1.700	-0.700																			1580003113.0	7.41	13.72
26/01/2020 01:45:14	26012020	260120	014514	271.720	12.418728	-57.592030	271.780	0.340	0.170	-0.860	271.740	-1.300	-0.600																			1580003114.0	7.21	13.35
26/01/2020 01:45:15	26012020	260120	014515	271.780	12.418728	-57.592065	271.690	0.450	0.120	-0.390	271.770	-1.200	-0.300																			1580003115.0	7.41	13.72
26/01/2020 01:45:16	26012020	260120	014516	271.620	12.418732	-57.592102	271.500	0.360	-0.040	0.190	271.620	-1.400	0.300																			1580003116.0	7.70	14.26
26/01/2020 01:45:17	26012020	260120	014517	271.450	12.418737	-57.592138	271.370	0.140	-0.120	0.650	271.420	-1.500	0.800																			1580003117.0	7.86	14.56
26/01/2020 01:45:18	26012020	260120	014518	271.330	12.418740	-57.592175	271.330	-0.110	-0.110	0.840	271.330	-1.500	1.200																			1580003118.0	7.80	14.45
26/01/2020 01:45:19	26012020	260120	014519	271.300	12.418742	-57.592212	271.300	-0.320	-0.130	0.790	271.300	-1.500	1.200																			1580003119.0	7.63	14.13
26/01/2020 01:45:20	26012020	260120	014520	271.270	12.418743	-57.592247	271.290	-0.470	-0.180	0.500	271.270	-1.600	1.000																			1580003120.0	7.57	14.02
26/01/2020 01:45:21	26012020	260120	014521	271.290	12.418742	-57.592283	271.370	-0.520	-0.250	0.040	271.300	-1.600	0.700																			1580003121.0	7.61	14.09
26/01/2020 01:45:22	26012020	260120	014522	271.400	12.418738	-57.592320	271.500	-0.460	-0.230	-0.400	271.430	-1.700	0.200																			1580003122.0	7.68	14.22
26/01/2020 01:45:23	26012020	260120	014523	271.540	12.418733	-57.592355	271.600	-0.270	-0.130	-0.670	271.560	-1.600	-0.200																			1580003123.0	7.66	14.19
26/01/2020 01:45:24	26012020	260120	014524	271.620	12.418730	-57.592390	271.600	-0.010	-0.100	-0.730	271.620	-1.500	-0.400																			1580003124.0	7.55	13.98
26/01/2020 01:45:25	26012020	260120	014525	271.600	12.418728	-57.592427	271.520	0.270	-0.260	-0.570	271.590	-1.600	-0.300																			1580003125.0	7.50	13.89
26/01/2020 01:45:26	26012020	260120	014526	271.510	12.418728	-57.592462	271.420	0.480	-0.410	-0.190	271.490	-1.800	-0.000																			1580003126.0	7.65	14.17
26/01/2020 01:45:27	26012020	260120	014527	271.410	12.418730	-57.592500	271.370	0.540	-0.270	0.310	271.400	-1.800	0.400																			1580003127.0	7.85	14.54
26/01/2020 01:45:28	26012020	260120	014528	271.370	12.418733	-57.592537	271.370	0.450	0.070	0.770	271.370	-1.500	0.900																			1580003128.0	7.78	14.41
26/01/2020 01:45:29	26012020	260120	014529	271.370	12.418738	-57.592572	271.380	0.330	0.260	1.040	271.370	-1.200	1.300																			1580003129.0	7.47	13.83
26/01/2020 01:45:30	26012020	260120	014530	271.350	12.418743	-57.592605	271.330	0.220	0.120	1.010	271.350	-1.200	1.400																			1580003130.0	7.36	13.63
26/01/2020 01:45:31	26012020	260120	014531	271.330	12.418745	-57.592642	271.290	0.040	-0.150	0.700	271.330	-1.400	1.300																			1580003131.0	7.59	14.06
26/01/2020 01:45:32	26012020	260120	014532	271.310	12.418745	-57.592678	271.250	-0.230	-0.270	0.220	271.300	-1.600	0.800																			1580003132.0	7.81	14.46
26/01/2020 01:45:33	26012020	260120	014533	271.270	12.418742	-57.592715	271.180	-0.470	-0.290	-0.330	271.260	-1.700	0.300																			1580003133.0	7.75	14.35
26/01/2020 01:45:34	26012020	260120	014534	271.200	12.418738	-57.592750	271.170	-0.520	-0.360	-0.900	271.190	-1.700	-0.200																			1580003134.0	7.53	13.95
26/01/2020 01:45:35	26012020	260120	014535	271.210	12.418733	-57.592785	271.330	-0.380	-0.510	-1.380	271.230	-1.800	-0.800																			1580003135.0	7.55	13.98
26/01/2020 01:45:36	26012020	260120	014536	271.390	12.418728	-57.592822	271.590	-0.130	-0.580	-1.570	271.440	-2.000	-1.100																			1580003136.0	7.71	14.28
26/01/2020 01:45:37	26012020	260120	014537	271.650	12.418727	-57.592858	271.770	0.120	-0.460	-1.240	271.690	-1.900	-1.100																			1580003137.0	7.81	14.46
26/01/2020 01:45:38	26012020	260120	014538	271.790	12.418727	-57.592895	271.750	0.280	-0.140	-0.420	271.790	-1.700	-0.500																			1580003138.0	7.75	14.35
26/01/2020 01:45:39	26012020	260120	014539	271.710	12.418730	-57.592932	271.560	0.290	0.220	0.620	271.670	-1.400	0.500																			1580003139.0	7.66	14.19
26/01/2020 01:45:40	26012020	260120	014540	271.460	12.418737	-57.592967	271.350	0.130	0.470	1.420	271.460	-1.000	1.500																			1580003140.0	7.62	14.11
26/01/2020 01:45:41	26012020	260120	014541	271.300	12.418742	-57.593002	271.200	-0.060	0.480	1.710	271.270	-0.900	2.000																			1580003141.0	7.59	14.06
26/01/2020 01:45:42	26012020	260120	014542	271.170	12.418745	-57.593038	271.130	-0.170	0.200	1.450	271.150	-1.000	2.000																			1580003142.0	7.57	14.02
26/01/2020 01:45:43	26012020	260120	014543	271.110	12.418745	-57.593075	271.130	-0.150	-0.220	0.790	271.110	-1.400	1.500																			1580003143.0	7.67	14.20
26/01/2020 01:45:44	26012020	260120	014544	271.140	12.418743	-57.593112	271.260	-0.070	-0.580	-0.080	271.170	-1.800	0.700																			1580003144.0	7.79	14.43
26/01/2020 01:45:45	26012020	260120	014545	271.300	12.418738	-57.593148	271.440	0.020	-0.730	-0.850	271.340	-2.100	-0.100																			1580003145.0	7.84	14.52
26/01/2020 01:45:46	26012020	260120	014546	271.480	12.418733	-57.593183	271.560	0.130	-0.570	-1.270	271.510	-2.100	-0.700																			1580003146.0	7.75	14.35
26/01/2020 01:45:47	26012020	260120	014547	271.590	12.418728	-57.593220	271.610	0.250	-0.200	-1.320	271.600	-1.800	-1.000																			1580003147.0	7.55	13.98
26/01/2020 01:45:48	26012020	260120	014548	271.620	12.418727	-57.593255	271.580	0.370	0.100	-0.990	271.620	-1.400	-0.800																			1580003148.0	7.34	13.59
26/01/2020 01:45:49	26012020	260120	014549	271.580	12.418728	-57.593288	271.460	0.430	0.090	-0.390	271.560	-1.300	-0.300																			1580003149.0	7.30	13.52
26/01/2020 01:45:50	26012020	260120	014550	271.400	12.418732	-57.593325	271.300	0.380	-0.150	0.220	271.400	-1.400	0.300																			1580003150.0	7.58	14.04
26/01/2020 01:45:51	26012020	260120	014551	271.260	12.418737	-57.593362	271.210	0.170	-0.330	0.590	271.230	-1.700	0.800																			1580003151.0	7.94	14.70
26/01/2020 01:45:52	26012020	260120	014552	271.190	12.418742	-57.593398	271.270	-0.190	-0.330	0.630	271.190	-1.700	1.000																			1580003152.0	7.95	14.72
26/01/2020 01:45:53	26012020	260120	014553	271.280	12.418743	-57.593435	271.440	-0.570	-0.220	0.450	271.310	-1.700	0.900																			1580003153.0	7.70	14.26
26/01/2020 01:45:54	26012020	260120	014554	271.500	12.418742	-57.593470	271.610	-0.770	-0.110	0.160	271.500	-1.600	0.700																			1580003154.0	7.50	13.89
26/01/2020 01:45:55	26012020	260120	014555	271.630	12.418740	-57.593507	271.710	-0.720	-0.010	-0.140	271.660	-1.400	0.400																			1580003155.0	7.51	13.91
26/01/2020 01:45:56	26012020	260120	014556	271.720	12.418737	-57.593542	271.730	-0.470	0.020	-0.370	271.720	-1.400	0.100																			1580003156.0	7.58	14.04
26/01/2020 01:45:57	26012020	260120	014557	271.710	12.418732	-57.593578	271.650	-0.100	-0.050	-0.350	271.700	-1.400	-0.000																			1580003157.0	7.66	14.19
26/01/2020 01:45:58	26012020	260120	014558	271.620	12.418728	-57.593615	271.480	0.280	-0.140	0.010	271.580	-1.500	0.200																			1580003158.0	7.74	14.33
26/01/2020 01:45:59	26012020	260120	014559	271.420	12.418728	-57.593652	271.320	0.590	-0.170	0.520	271.390	-1.600	0.700	1015.40	25.40	25.50	21.60	21.60	-1.00	79.00	79.00	392.00	24.60	63.00	5.30	20.00	5.00	14	3433.00	27.40	27.40	1580003159.0	7.75	14.35
26/01/2020 01:46:00	26012020	260120	014600	271.270	12.418732	-57.593687	271.300	0.750	-0.140	0.830	271.250	-1.600	1.100																			1580003160.0	7.71	14.28
26/01/2020 01:46:01	26012020	260120	014601	271.250	12.418737	-57.593723	271.400	0.720	-0.110	0.830	271.270	-1.500	1.200																			1580003161.0	7.62	14.11
26/01/2020 01:46:02	26012020	260120	014602	271.400	12.418740	-57.593758	271.510	0.500	-0.080	0.610	271.400	-1.500	1.100																			1580003162.0	7.54	13.96
26/01/2020 01:46:03	26012020	260120	014603	271.480	12.418742	-57.593793	271.510	0.150	-0.050	0.360	271.500	-1.500	0.900																			1580003163.0	7.49	13.87
26/01/2020 01:46:04	26012020	260120	014604	271.450	12.418742	-57.593830	271.390	-0.190	-0.060	0.050	271.450	-1.400	0.600																			1580003164.0	7.46	13.82
26/01/2020 01:46:05	26012020	260120	014605	271.370	12.418740	-57.593865	271.320	-0.440	-0.180	-0.400	271.360	-1.500	0.200																			1580003165.0	7.45	13.80
26/01/2020 01:46:06	26012020	260120	014606	271.350	12.418737	-57.593900	271.380	-0.550	-0.390	-0.870	271.350	-1.700	-0.300																			1580003166.0	7.54	13.96
26/01/2020 01:46:07	26012020	260120	014607	271.420	12.418733	-57.593937	271.500	-0.500	-0.600	-1.210	271.450	-1.900	-0.700																			1580003167.0	7.70	14.26
26/01/2020 01:46:08	26012020	260120	014608	271.560	12.418728	-57.593973	271.640	-0.320	-0.660	-1.290	271.590	-2.100	-0.900																			1580003168.0	7.83	14.50
26/01/2020 01:46:09	26012020	260120	014609	271.690	12.418727	-57.594010	271.730	-0.050	-0.430	-1.020	271.710	-2.000	-0.800																			1580003169.0	7.85	14.54
26/01/2020 01:46:10	26012020	260120	014610	271.770	12.418727	-57.594047	271.760	0.170	0.010	-0.520	271.780	-1.600	-0.400																			1580003170.0	7.72	14.30
26/01/2020 01:46:11	26012020	260120	014611	271.780	12.418728	-57.594082	271.720	0.260	0.440	0.180	271.780	-1.100	0.200																			1580003171.0	7.51	13.91
26/01/2020 01:46:12	26012020	260120	014612	271.710	12.418732	-57.594117	271.640	0.260	0.570	0.960	271.710	-0.800	1.000																			1580003172.0	7.39	13.69
26/01/2020 01:46:13	26012020	260120	014613	271.640	12.418737	-57.594152	271.560	0.240	0.310	1.590	271.620	-0.900	1.700																			1580003173.0	7.48	13.85
26/01/2020 01:46:14	26012020	260120	014614	271.530	12.418742	-57.594188	271.490	0.210	-0.140	1.810	271.520	-1.300	2.100																			1580003174.0	7.71	14.28
26/01/2020 01:46:15	26012020	260120	014615	271.460	12.418745	-57.594225	271.440	0.110	-0.500	1.550	271.450	-1.700	2.100																			1580003175.0	7.85	14.54
26/01/2020 01:46:16	26012020	260120	014616	271.400	12.418745	-57.594262	271.420	-0.080	-0.660	0.870	271.400	-2.000	1.600																			1580003176.0	7.83	14.50
26/01/2020 01:46:17	26012020	260120	014617	271.410	12.418742	-57.594298	271.450	-0.260	-0.630	-0.080	271.410	-2.100	0.800																			1580003177.0	7.67	14.20
26/01/2020 01:46:18	26012020	260120	014618	271.490	12.418738	-57.594333	271.550	-0.290	-0.440	-1.050	271.490	-1.900	-0.200																			1580003178.0	7.62	14.11
26/01/2020 01:46:19	26012020	260120	014619	271.590	12.418732	-57.594370	271.680	-0.150	-0.140	-1.760	271.620	-1.700	-1.100																			1580003179.0	7.60	14.08
26/01/2020 01:46:20	26012020	260120	014620	271.770	12.418727	-57.594405	271.810	0.050	0.110	-1.960	271.770	-1.400	-1.500																			1580003180.0	7.57	14.02
26/01/2020 01:46:21	26012020	260120	014621	271.860	12.418723	-57.594440	271.880	0.230	0.200	-1.550	271.870	-1.200	-1.400																			1580003181.0	7.51	13.91
26/01/2020 01:46:22	26012020	260120	014622	271.890	12.418725	-57.594477	271.810	0.320	0.100	-0.700	271.870	-1.200	-0.800																			1580003182.0	7.58	14.04
26/01/2020 01:46:23	26012020	260120	014623	271.780	12.418728	-57.594512	271.670	0.290	-0.020	0.290	271.750	-1.400	0.200																			1580003183.0	7.75	14.35
26/01/2020 01:46:24	26012020	260120	014624	271.620	12.418735	-57.594548	271.590	0.130	-0.120	1.070	271.590	-1.500	1.100																			1580003184.0	7.82	14.48
26/01/2020 01:46:25	26012020	260120	014625	271.540	12.418740	-57.594585	271.580	-0.090	-0.250	1.430	271.530	-1.600	1.700																			1580003185.0	7.71	14.28
26/01/2020 01:46:26	26012020	260120	014626	271.540	12.418743	-57.594620	271.610	-0.240	-0.370	1.340	271.550	-1.700	1.800																			1580003186.0	7.60	14.08
26/01/2020 01:46:27	26012020	260120	014627	271.570	12.418745	-57.594657	271.630	-0.280	-0.420	0.920	271.580	-1.800	1.500																			1580003187.0	7.59	14.06
26/01/2020 01:46:28	26012020	260120	014628	271.620	12.418742	-57.594693	271.700	-0.230	-0.390	0.300	271.640	-1.800	1.000																			1580003188.0	7.64	14.15
26/01/2020 01:46:29	26012020	260120	014629	271.720	12.418738	-57.594728	271.780	-0.110	-0.300	-0.220	271.740	-1.700	0.400																			1580003189.0	7.68	14.22
26/01/2020 01:46:30	26012020	260120	014630	271.810	12.418733	-57.594765	271.810	0.040	-0.160	-0.460	271.830	-1.600	0.000																			1580003190.0	7.69	14.24
26/01/2020 01:46:31	26012020	260120	014631	271.830	12.418732	-57.594802	271.760	0.170	0.000	-0.430	271.830	-1.500	-0.100																			1580003191.0	7.64	14.15
26/01/2020 01:46:32	26012020	260120	014632	271.770	12.418732	-57.594837	271.690	0.200	0.130	-0.280	271.750	-1.300	0.000																			1580003192.0	7.60	14.08
26/01/2020 01:46:33	26012020	260120	014633	271.700	12.418733	-57.594873	271.640	0.100	0.120	-0.110	271.690	-1.300	0.200																			1580003193.0	7.57	14.02
26/01/2020 01:46:34	26012020	260120	014634	271.660	12.418735	-57.594908	271.620	-0.050	0.010	0.020	271.660	-1.300	0.300																			1580003194.0	7.61	14.09
26/01/2020 01:46:35	26012020	260120	014635	271.630	12.418737	-57.594945	271.610	-0.120	-0.120	0.040	271.630	-1.500	0.400																			1580003195.0	7.66	14.19
26/01/2020 01:46:36	26012020	260120	014636	271.620	12.418737	-57.594982	271.600	-0.060	-0.200	-0.010	271.610	-1.600	0.400																			1580003196.0	7.68	14.22
26/01/2020 01:46:37	26012020	260120	014637	271.620	12.418737	-57.595017	271.640	0.060	-0.240	-0.110	271.620	-1.600	0.300																			1580003197.0	7.63	14.13
26/01/2020 01:46:38	26012020	260120	014638	271.660	12.418737	-57.595053	271.730	0.120	-0.300	-0.170	271.680	-1.700	0.200																			1580003198.0	7.58	14.04
26/01/2020 01:46:39	26012020	260120	014639	271.750	12.418737	-57.595088	271.840	0.100	-0.390	-0.110	271.780	-1.700	0.200																			1580003199.0	7.55	13.98
26/01/2020 01:46:40	26012020	260120	014640	271.860	12.418737	-57.595125	271.940	0.040	-0.360	0.040	271.890	-1.800	0.300																			1580003200.0	7.63	14.13
26/01/2020 01:46:41	26012020	260120	014641	271.940	12.418737	-57.595162	271.920	-0.020	-0.170	0.320	271.950	-1.700	0.600																			1580003201.0	7.65	14.17
26/01/2020 01:46:42	26012020	260120	014642	271.890	12.418738	-57.595197	271.750	-0.070	0.010	0.650	271.860	-1.500	0.900																			1580003202.0	7.53	13.95
26/01/2020 01:46:43	26012020	260120	014643	271.690	12.418740	-57.595232	271.550	-0.100	0.060	0.800	271.640	-1.300	1.200																			1580003203.0	7.46	13.82
26/01/2020 01:46:44	26012020	260120	014644	271.510	12.418742	-57.595268	271.540	-0.100	-0.050	0.510	271.490	-1.400	1.100																			1580003204.0	7.57	14.02
26/01/2020 01:46:45	26012020	260120	014645	271.540	12.418742	-57.595303	271.750	-0.080	-0.250	-0.050	271.570	-1.500	0.600																			1580003205.0	7.67	14.20
26/01/2020 01:46:46	26012020	260120	014646	271.750	12.418738	-57.595340	271.940	-0.040	-0.410	-0.500	271.800	-1.700	0.100																			1580003206.0	7.80	14.45
26/01/2020 01:46:47	26012020	260120	014647	271.950	12.418737	-57.595378	271.980	-0.030	-0.300	-0.580	271.970	-1.800	-0.200																			1580003207.0	7.87	14.58
26/01/2020 01:46:48	26012020	260120	014648	271.960	12.418735	-57.595415	271.860	-0.040	0.050	-0.350	271.950	-1.500	-0.100																			1580003208.0	7.73	14.32
26/01/2020 01:46:49	26012020	260120	014649	271.820	12.418735	-57.595450	271.670	-0.030	0.310	-0.030	271.790	-1.200	0.200																			1580003209.0	7.41	13.72
26/01/2020 01:46:50	26012020	260120	014650	271.640	12.418737	-57.595483	271.560	0.040	0.140	0.140	271.610	-1.100	0.500																			1580003210.0	7.26	13.45
26/01/2020 01:46:51	26012020	260120	014651	271.540	12.418738	-57.595520	271.550	0.130	-0.360	0.160	271.530	-1.500	0.500																			1580003211.0	7.49	13.87
26/01/2020 01:46:52	26012020	260120	014652	271.570	12.418740	-57.595557	271.670	0.140	-0.710	0.090	271.570	-2.000	0.500																			1580003212.0	7.94	14.70
26/01/2020 01:46:53	26012020	260120	014653	271.680	12.418740	-57.595595	271.830	0.020	-0.560	0.080	271.720	-2.100	0.400																			1580003213.0	8.05	14.91
26/01/2020 01:46:54	26012020	260120	014654	271.860	12.418740	-57.595632	271.920	-0.160	-0.100	0.130	271.860	-1.700	0.500																			1580003214.0	7.70	14.26
26/01/2020 01:46:55	26012020	260120	014655	271.910	12.418740	-57.595665	271.970	-0.220	0.190	0.100	271.920	-1.300	0.500																			1580003215.0	7.22	13.37
26/01/2020 01:46:56	26012020	260120	014656	271.970	12.418740	-57.595700	272.020	-0.140	0.100	-0.040	271.970	-1.200	0.400																			1580003216.0	7.21	13.35
26/01/2020 01:46:57	26012020	260120	014657	272.010	12.418738	-57.595735	272.040	0.000	-0.150	-0.150	272.020	-1.400	0.300																			1580003217.0	7.59	14.06
26/01/2020 01:46:58	26012020	260120	014658	272.000	12.418737	-57.595773	271.950	0.120	-0.280	-0.040	272.000	-1.600	0.300																			1580003218.0	7.92	14.67
26/01/2020 01:46:59	26012020	260120	014659	271.900	12.418738	-57.595810	271.780	0.140	-0.180	0.220	271.870	-1.600	0.500	1015.40	25.30	25.40	21.50	21.50	-1.00	79.00	79.00	392.00	24.60	62.00	5.30	19.00	4.90	14	3417.00	27.40	27.40	1580003219.0	7.89	14.61
26/01/2020 01:47:00	26012020	260120	014700	271.730	12.418738	-57.595847	271.700	0.080	-0.010	0.410	271.730	-1.500	0.700																			1580003220.0	7.62	14.11
26/01/2020 01:47:01	26012020	260120	014701	271.690	12.418742	-57.595882	271.740	0.020	0.030	0.410	271.690	-1.400	0.800																			1580003221.0	7.43	13.76
26/01/2020 01:47:02	26012020	260120	014702	271.730	12.418742	-57.595917	271.790	-0.030	-0.060	0.290	271.730	-1.400	0.700																			1580003222.0	7.44	13.78
26/01/2020 01:47:03	26012020	260120	014703	271.760	12.418742	-57.595952	271.770	-0.070	-0.200	0.150	271.770	-1.500	0.600																			1580003223.0	7.58	14.04
26/01/2020 01:47:04	26012020	260120	014704	271.730	12.418742	-57.595988	271.710	-0.050	-0.350	0.040	271.730	-1.700	0.500																			1580003224.0	7.64	14.15
26/01/2020 01:47:05	26012020	260120	014705	271.690	12.418742	-57.596025	271.690	0.010	-0.510	-0.110	271.680	-1.800	0.400																			1580003225.0	7.65	14.17
26/01/2020 01:47:06	26012020	260120	014706	271.680	12.418742	-57.596062	271.740	0.050	-0.560	-0.350	271.690	-1.900	0.200																			1580003226.0	7.71	14.28
26/01/2020 01:47:07	26012020	260120	014707	271.740	12.418740	-57.596098	271.850	-0.020	-0.410	-0.590	271.770	-1.900	-0.100																			1580003227.0	7.75	14.35
26/01/2020 01:47:08	26012020	260120	014708	271.890	12.418740	-57.596135	271.970	-0.170	-0.080	-0.600	271.890	-1.600	-0.300																			1580003228.0	7.70	14.26
26/01/2020 01:47:09	26012020	260120	014709	271.970	12.418738	-57.596170	272.000	-0.320	0.320	-0.290	271.980	-1.200	-0.100																			1580003229.0	7.56	14.00
26/01/2020 01:47:10	26012020	260120	014710	271.980	12.418738	-57.596205	271.960	-0.340	0.500	0.170	271.980	-0.900	0.300																			1580003230.0	7.40	13.70
26/01/2020 01:47:11	26012020	260120	014711	271.920	12.418740	-57.596240	271.860	-0.150	0.270	0.510	271.900	-0.900	0.800																			1580003231.0	7.40	13.70
26/01/2020 01:47:12	26012020	260120	014712	271.810	12.418743	-57.596277	271.750	0.190	-0.230	0.650	271.790	-1.400	1.000																			1580003232.0	7.63	14.13
26/01/2020 01:47:13	26012020	260120	014713	271.720	12.418745	-57.596313	271.690	0.460	-0.550	0.660	271.700	-1.800	1.000																			1580003233.0	7.97	14.76
26/01/2020 01:47:14	26012020	260120	014714	271.660	12.418745	-57.596352	271.650	0.470	-0.470	0.630	271.650	-1.900	1.000																			1580003234.0	8.00	14.82
26/01/2020 01:47:15	26012020	260120	014715	271.630	12.418745	-57.596388	271.620	0.240	-0.200	0.520	271.620	-1.700	1.000																			1580003235.0	7.61	14.09
26/01/2020 01:47:16	26012020	260120	014716	271.580	12.418745	-57.596422	271.540	-0.060	-0.020	0.340	271.580	-1.500	0.800																			1580003236.0	7.28	13.48
26/01/2020 01:47:17	26012020	260120	014717	271.520	12.418745	-57.596457	271.460	-0.220	-0.000	0.060	271.500	-1.400	0.600																			1580003237.0	7.25	13.43
26/01/2020 01:47:18	26012020	260120	014718	271.470	12.418745	-57.596492	271.520	-0.240	-0.140	-0.340	271.470	-1.400	0.300																			1580003238.0	7.46	13.82
26/01/2020 01:47:19	26012020	260120	014719	271.550	12.418743	-57.596528	271.710	-0.170	-0.380	-0.770	271.590	-1.600	-0.200																			1580003239.0	7.64	14.15
26/01/2020 01:47:20	26012020	260120	014720	271.800	12.418740	-57.596565	271.880	-0.080	-0.580	-0.980	271.800	-1.900	-0.500																			1580003240.0	7.80	14.45
26/01/2020 01:47:21	26012020	260120	014721	271.930	12.418738	-57.596602	271.950	-0.030	-0.540	-0.840	271.950	-2.000	-0.600																			1580003241.0	7.89	14.61
26/01/2020 01:47:22	26012020	260120	014722	271.970	12.418737	-57.596638	271.930	-0.050	-0.240	-0.430	271.970	-1.800	-0.300																			1580003242.0	7.82	14.48
26/01/2020 01:47:23	26012020	260120	014723	271.920	12.418738	-57.596675	271.860	-0.090	0.160	0.100	271.910	-1.400	0.200																			1580003243.0	7.60	14.08
26/01/2020 01:47:24	26012020	260120	014724	271.800	12.418742	-57.596710	271.720	-0.070	0.420	0.610	271.800	-1.100	0.800																			1580003244.0	7.43	13.76
26/01/2020 01:47:25	26012020	260120	014725	271.670	12.418745	-57.596745	271.530	0.040	0.400	0.960	271.630	-0.900	1.200																			1580003245.0	7.43	13.76
26/01/2020 01:47:26	26012020	260120	014726	271.460	12.418747	-57.596780	271.350	0.140	0.070	1.060	271.420	-1.100	1.400																			1580003246.0	7.56	14.00
26/01/2020 01:47:27	26012020	260120	014727	271.300	12.418750	-57.596817	271.300	0.160	-0.370	0.920	271.290	-1.500	1.400																			1580003247.0	7.76	14.37
26/01/2020 01:47:28	26012020	260120	014728	271.280	12.418750	-57.596855	271.390	0.110	-0.560	0.600	271.300	-1.900	1.200																			1580003248.0	7.90	14.63
26/01/2020 01:47:29	26012020	260120	014729	271.390	12.418748	-57.596892	271.560	0.030	-0.420	0.170	271.430	-1.900	0.800																			1580003249.0	7.82	14.48
26/01/2020 01:47:30	26012020	260120	014730	271.580	12.418745	-57.596927	271.720	-0.040	-0.170	-0.230	271.620	-1.700	0.300																			1580003250.0	7.50	13.89
26/01/2020 01:47:31	26012020	260120	014731	271.730	12.418743	-57.596962	271.770	-0.060	-0.070	-0.500	271.750	-1.500	0.000																			1580003251.0	7.28	13.48
26/01/2020 01:47:32	26012020	260120	014732	271.750	12.418742	-57.596997	271.730	-0.030	-0.140	-0.620	271.750	-1.500	-0.200																			1580003252.0	7.39	13.69
26/01/2020 01:47:33	26012020	260120	014733	271.730	12.418740	-57.597032	271.660	0.000	-0.210	-0.610	271.710	-1.600	-0.300																			1580003253.0	7.64	14.15
26/01/2020 01:47:34	26012020	260120	014734	271.640	12.418740	-57.597068	271.530	0.020	-0.210	-0.450	271.620	-1.600	-0.200																			1580003254.0	7.73	14.32
26/01/2020 01:47:35	26012020	260120	014735	271.520	12.418740	-57.597105	271.420	0.010	-0.230	-0.160	271.490	-1.600	0.100																			1580003255.0	7.65	14.17
26/01/2020 01:47:36	26012020	260120	014736	271.440	12.418742	-57.597142	271.440	-0.010	-0.270	0.150	271.430	-1.600	0.400																			1580003256.0	7.63	14.13
26/01/2020 01:47:37	26012020	260120	014737	271.460	12.418743	-57.597177	271.490	-0.010	-0.270	0.440	271.470	-1.700	0.700																			1580003257.0	7.67	14.20
26/01/2020 01:47:38	26012020	260120	014738	271.500	12.418745	-57.597213	271.500	-0.020	-0.210	0.630	271.510	-1.600	0.900																			1580003258.0	7.71	14.28
26/01/2020 01:47:39	26012020	260120	014739	271.500	12.418747	-57.597250	271.520	-0.040	-0.060	0.710	271.500	-1.500	1.100																			1580003259.0	7.67	14.20
26/01/2020 01:47:40	26012020	260120	014740	271.510	12.418748	-57.597287	271.560	-0.090	0.150	0.710	271.520	-1.300	1.100																			1580003260.0	7.62	14.11
26/01/2020 01:47:41	26012020	260120	014741	271.550	12.418748	-57.597322	271.620	-0.120	0.290	0.610	271.560	-1.100	1.000																			1580003261.0	7.51	13.91
26/01/2020 01:47:42	26012020	260120	014742	271.590	12.418748	-57.597357	271.610	-0.110	0.180	0.430	271.590	-1.100	0.900																			1580003262.0	7.44	13.78
26/01/2020 01:47:43	26012020	260120	014743	271.570	12.418747	-57.597392	271.560	-0.040	-0.180	0.080	271.560	-1.400	0.700																			1580003263.0	7.53	13.95
26/01/2020 01:47:44	26012020	260120	014744	271.530	12.418745	-57.597430	271.500	0.030	-0.540	-0.350	271.520	-1.800	0.200																			1580003264.0	7.78	14.41
26/01/2020 01:47:45	26012020	260120	014745	271.490	12.418743	-57.597467	271.430	0.080	-0.630	-0.620	271.480	-2.000	-0.100																			1580003265.0	7.93	14.69
26/01/2020 01:47:46	26012020	260120	014746	271.430	12.418740	-57.597503	271.370	0.110	-0.470	-0.610	271.420	-2.000	-0.300																			1580003266.0	7.80	14.45
26/01/2020 01:47:47	26012020	260120	014747	271.360	12.418740	-57.597538	271.310	0.140	-0.210	-0.360	271.350	-1.700	-0.100																			1580003267.0	7.53	13.95
26/01/2020 01:47:48	26012020	260120	014748	271.300	12.418740	-57.597573	271.290	0.170	0.030	0.030	271.290	-1.500	0.200																			1580003268.0	7.40	13.70
26/01/2020 01:47:49	26012020	260120	014749	271.280	12.418743	-57.597608	271.330	0.160	0.160	0.380	271.290	-1.300	0.600																			1580003269.0	7.43	13.76
26/01/2020 01:47:50	26012020	260120	014750	271.350	12.418745	-57.597645	271.450	0.080	0.080	0.550	271.350	-1.200	0.900																			1580003270.0	7.50	13.89
26/01/2020 01:47:51	26012020	260120	014751	271.450	12.418748	-57.597680	271.570	-0.050	-0.150	0.500	271.470	-1.400	0.900																			1580003271.0	7.63	14.13
26/01/2020 01:47:52	26012020	260120	014752	271.570	12.418748	-57.597717	271.650	-0.190	-0.290	0.290	271.580	-1.600	0.800																			1580003272.0	7.82	14.48
26/01/2020 01:47:53	26012020	260120	014753	271.630	12.418748	-57.597755	271.610	-0.300	-0.200	0.060	271.630	-1.700	0.500																			1580003273.0	7.85	14.54
26/01/2020 01:47:54	26012020	260120	014754	271.580	12.418747	-57.597790	271.520	-0.310	-0.100	-0.130	271.560	-1.500	0.300																			1580003274.0	7.66	14.19
26/01/2020 01:47:55	26012020	260120	014755	271.490	12.418743	-57.597827	271.440	-0.210	-0.140	-0.220	271.470	-1.500	0.200																			1580003275.0	7.50	13.89
26/01/2020 01:47:56	26012020	260120	014756	271.410	12.418742	-57.597862	271.320	-0.050	-0.240	-0.110	271.390	-1.600	0.200																			1580003276.0	7.58	14.04
26/01/2020 01:47:57	26012020	260120	014757	271.300	12.418740	-57.597898	271.190	0.110	-0.310	0.170	271.280	-1.700	0.400																			1580003277.0	7.68	14.22
26/01/2020 01:47:58	26012020	260120	014758	271.170	12.418742	-57.597935	271.110	0.200	-0.310	0.450	271.140	-1.700	0.700																			1580003278.0	7.69	14.24
26/01/2020 01:47:59	26012020	260120	014759	271.110	12.418743	-57.597972	271.180	0.210	-0.220	0.560	271.110	-1.700	0.900	1015.50	25.30	25.40	21.40	21.50	-1.00	79.00	78.00	392.00	24.60	62.00	4.70	24.00	4.50	14	3439.00	27.40	27.40	1580003279.0	7.67	14.20
26/01/2020 01:48:00	26012020	260120	014800	271.220	12.418745	-57.598007	271.360	0.170	-0.050	0.460	271.220	-1.500	0.900																			1580003280.0	7.60	14.08
26/01/2020 01:48:01	26012020	260120	014801	271.360	12.418747	-57.598042	271.530	0.100	0.060	0.210	271.400	-1.400	0.700																			1580003281.0	7.52	13.93
26/01/2020 01:48:02	26012020	260120	014802	271.560	12.418748	-57.598078	271.610	0.030	-0.010	-0.110	271.560	-1.300	0.400																			1580003282.0	7.52	13.93
26/01/2020 01:48:03	26012020	260120	014803	271.590	12.418747	-57.598113	271.600	-0.060	-0.190	-0.350	271.590	-1.500	0.100																			1580003283.0	7.66	14.19
26/01/2020 01:48:04	26012020	260120	014804	271.560	12.418743	-57.598152	271.520	-0.170	-0.250	-0.380	271.560	-1.600	-0.000																			1580003284.0	7.86	14.56
26/01/2020 01:48:05	26012020	260120	014805	271.480	12.418742	-57.598188	271.380	-0.230	-0.130	-0.190	271.460	-1.600	0.100																			1580003285.0	7.84	14.52
26/01/2020 01:48:06	26012020	260120	014806	271.340	12.418742	-57.598225	271.210	-0.150	0.040	0.060	271.310	-1.400	0.300																			1580003286.0	7.59	14.06
26/01/2020 01:48:07	26012020	260120	014807	271.190	12.418743	-57.598258	271.120	0.010	0.020	0.200	271.170	-1.300	0.500																			1580003287.0	7.40	13.70
26/01/2020 01:48:08	26012020	260120	014808	271.120	12.418745	-57.598295	271.100	0.130	-0.220	0.230	271.120	-1.500	0.600																			1580003288.0	7.43	13.76
26/01/2020 01:48:09	26012020	260120	014809	271.130	12.418745	-57.598330	271.150	0.130	-0.480	0.230	271.140	-1.800	0.600																			1580003289.0	7.66	14.19
26/01/2020 01:48:10	26012020	260120	014810	271.200	12.418745	-57.598368	271.220	0.020	-0.520	0.230	271.200	-1.900	0.600																			1580003290.0	7.82	14.48
26/01/2020 01:48:11	26012020	260120	014811	271.270	12.418745	-57.598405	271.280	-0.090	-0.320	0.260	271.280	-1.800	0.600																			1580003291.0	7.74	14.33
26/01/2020 01:48:12	26012020	260120	014812	271.350	12.418745	-57.598440	271.380	-0.130	-0.080	0.270	271.350	-1.600	0.600																			1580003292.0	7.54	13.96
26/01/2020 01:48:13	26012020	260120	014813	271.430	12.418745	-57.598475	271.490	-0.100	0.000	0.230	271.450	-1.400	0.600																			1580003293.0	7.44	13.78
26/01/2020 01:48:14	26012020	260120	014814	271.550	12.418745	-57.598512	271.560	-0.030	-0.020	0.170	271.550	-1.400	0.600																			1580003294.0	7.58	14.04
26/01/2020 01:48:15	26012020	260120	014815	271.560	12.418745	-57.598548	271.480	0.030	0.000	0.150	271.550	-1.400	0.500																			1580003295.0	7.77	14.39
26/01/2020 01:48:16	26012020	260120	014816	271.460	12.418743	-57.598585	271.350	0.090	0.120	0.190	271.440	-1.300	0.500																			1580003296.0	7.77	14.39
26/01/2020 01:48:17	26012020	260120	014817	271.330	12.418743	-57.598620	271.290	0.140	0.130	0.260	271.310	-1.200	0.600																			1580003297.0	7.58	14.04
26/01/2020 01:48:18	26012020	260120	014818	271.250	12.418743	-57.598655	271.200	0.190	-0.090	0.350	271.250	-1.400	0.700																			1580003298.0	7.46	13.82
26/01/2020 01:48:19	26012020	260120	014819	271.160	12.418745	-57.598692	271.050	0.180	-0.340	0.430	271.130	-1.600	0.800																			1580003299.0	7.59	14.06
26/01/2020 01:48:20	26012020	260120	014820	271.010	12.418747	-57.598728	270.980	0.100	-0.500	0.340	270.990	-1.800	0.800																			1580003300.0	7.72	14.30
26/01/2020 01:48:21	26012020	260120	014821	270.970	12.418747	-57.598765	271.100	-0.020	-0.540	-0.000	271.000	-1.900	0.600																			1580003301.0	7.67	14.20
26/01/2020 01:48:22	26012020	260120	014822	271.200	12.418747	-57.598800	271.380	-0.130	-0.520	-0.420	271.200	-1.900	0.200																			1580003302.0	7.63	14.13
26/01/2020 01:48:23	26012020	260120	014823	271.430	12.418743	-57.598837	271.630	-0.210	-0.390	-0.710	271.490	-1.900	-0.200																			1580003303.0	7.67	14.20
26/01/2020 01:48:24	26012020	260120	014824	271.730	12.418742	-57.598873	271.800	-0.270	-0.150	-0.760	271.730	-1.700	-0.400																			1580003304.0	7.70	14.26
26/01/2020 01:48:25	26012020	260120	014825	271.840	12.418740	-57.598910	271.810	-0.330	0.170	-0.510	271.840	-1.400	-0.300																			1580003305.0	7.67	14.20
26/01/2020 01:48:26	26012020	260120	014826	271.790	12.418740	-57.598945	271.640	-0.350	0.380	-0.060	271.760	-1.100	0.100																			1580003306.0	7.54	13.96
26/01/2020 01:48:27	26012020	260120	014827	271.580	12.418742	-57.598980	271.400	-0.270	0.390	0.430	271.530	-1.000	0.600																			1580003307.0	7.49	13.87
26/01/2020 01:48:28	26012020	260120	014828	271.330	12.418742	-57.599017	271.160	-0.020	0.220	0.880	271.280	-1.100	1.000																			1580003308.0	7.57	14.02
26/01/2020 01:48:29	26012020	260120	014829	271.070	12.418743	-57.599052	270.940	0.340	-0.130	1.190	271.030	-1.300	1.400																			1580003309.0	7.65	14.17
26/01/2020 01:48:30	26012020	260120	014830	270.880	12.418745	-57.599088	270.860	0.650	-0.490	1.310	270.860	-1.700	1.600																			1580003310.0	7.74	14.33
26/01/2020 01:48:31	26012020	260120	014831	270.830	12.418747	-57.599127	270.930	0.730	-0.650	1.250	270.840	-2.000	1.700																			1580003311.0	7.83	14.50
26/01/2020 01:48:32	26012020	260120	014832	270.930	12.418750	-57.599162	271.110	0.520	-0.510	0.970	270.970	-2.000	1.500																			1580003312.0	7.76	14.37
26/01/2020 01:48:33	26012020	260120	014833	271.140	12.418752	-57.599198	271.360	0.140	-0.280	0.410	271.190	-1.800	1.100																			1580003313.0	7.51	13.91
26/01/2020 01:48:34	26012020	260120	014834	271.400	12.418750	-57.599233	271.560	-0.220	-0.200	-0.330	271.450	-1.600	0.400																			1580003314.0	7.33	13.58
26/01/2020 01:48:35	26012020	260120	014835	271.600	12.418747	-57.599268	271.640	-0.430	-0.270	-0.970	271.620	-1.600	-0.300																			1580003315.0	7.49	13.87
26/01/2020 01:48:36	26012020	260120	014836	271.650	12.418742	-57.599305	271.580	-0.510	-0.250	-1.360	271.640	-1.700	-0.800																			1580003316.0	7.82	14.48
26/01/2020 01:48:37	26012020	260120	014837	271.590	12.418738	-57.599342	271.510	-0.530	-0.030	-1.430	271.580	-1.500	-1.100																			1580003317.0	7.95	14.72
26/01/2020 01:48:38	26012020	260120	014838	271.520	12.418735	-57.599378	271.440	-0.470	0.230	-1.120	271.510	-1.300	-0.900																			1580003318.0	7.74	14.33
26/01/2020 01:48:39	26012020	260120	014839	271.440	12.418733	-57.599413	271.330	-0.260	0.280	-0.500	271.410	-1.100	-0.400																			1580003319.0	7.49	13.87
26/01/2020 01:48:40	26012020	260120	014840	271.290	12.418735	-57.599450	271.220	0.110	0.140	0.240	271.290	-1.200	0.200																			1580003320.0	7.50	13.89
26/01/2020 01:48:41	26012020	260120	014841	271.180	12.418738	-57.599485	271.120	0.440	-0.120	0.940	271.160	-1.400	1.000																			1580003321.0	7.70	14.26
26/01/2020 01:48:42	26012020	260120	014842	271.090	12.418743	-57.599522	271.080	0.550	-0.370	1.510	271.080	-1.600	1.600																			1580003322.0	7.82	14.48
26/01/2020 01:48:43	26012020	260120	014843	271.060	12.418748	-57.599558	271.150	0.440	-0.480	1.770	271.070	-1.800	2.100																			1580003323.0	7.82	14.48
26/01/2020 01:48:44	26012020	260120	014844	271.140	12.418752	-57.599595	271.330	0.240	-0.490	1.560	271.180	-1.900	2.100																			1580003324.0	7.71	14.28
26/01/2020 01:48:45	26012020	260120	014845	271.330	12.418753	-57.599632	271.510	0.040	-0.460	0.930	271.370	-1.900	1.600																			1580003325.0	7.55	13.98
26/01/2020 01:48:46	26012020	260120	014846	271.520	12.418752	-57.599667	271.570	-0.150	-0.360	0.150	271.520	-1.800	0.900																			1580003326.0	7.58	14.04
26/01/2020 01:48:47	26012020	260120	014847	271.550	12.418748	-57.599703	271.510	-0.300	-0.180	-0.600	271.540	-1.700	0.100																			1580003327.0	7.69	14.24
26/01/2020 01:48:48	26012020	260120	014848	271.480	12.418743	-57.599738	271.400	-0.360	0.090	-1.170	271.470	-1.400	-0.500																			1580003328.0	7.71	14.28
26/01/2020 01:48:49	26012020	260120	014849	271.400	12.418738	-57.599775	271.330	-0.300	0.340	-1.430	271.390	-1.200	-1.000																			1580003329.0	7.67	14.20
26/01/2020 01:48:50	26012020	260120	014850	271.340	12.418735	-57.599810	271.270	-0.180	0.420	-1.320	271.330	-1.000	-1.100																			1580003330.0	7.56	14.00
26/01/2020 01:48:51	26012020	260120	014851	271.280	12.418733	-57.599847	271.150	-0.010	0.240	-0.760	271.260	-1.000	-0.700																			1580003331.0	7.51	13.91
26/01/2020 01:48:52	26012020	260120	014852	271.140	12.418735	-57.599882	271.000	0.160	-0.170	0.070	271.110	-1.300	0.000																			1580003332.0	7.59	14.06
26/01/2020 01:48:53	26012020	260120	014853	270.980	12.418738	-57.599918	270.970	0.290	-0.610	0.790	270.960	-1.800	0.800																			1580003333.0	7.77	14.39
26/01/2020 01:48:54	26012020	260120	014854	270.950	12.418743	-57.599955	271.040	0.360	-0.830	1.250	270.960	-2.100	1.400																			1580003334.0	7.90	14.63
26/01/2020 01:48:55	26012020	260120	014855	271.030	12.418747	-57.599993	271.190	0.340	-0.740	1.400	271.070	-2.200	1.700																			1580003335.0	7.84	14.52
26/01/2020 01:48:56	26012020	260120	014856	271.270	12.418750	-57.600028	271.440	0.240	-0.390	1.200	271.270	-2.000	1.700																			1580003336.0	7.67	14.20
26/01/2020 01:48:57	26012020	260120	014857	271.460	12.418752	-57.600063	271.640	0.050	0.040	0.790	271.510	-1.500	1.400																			1580003337.0	7.47	13.83
26/01/2020 01:48:58	26012020	260120	014858	271.670	12.418750	-57.600098	271.690	-0.170	0.270	0.330	271.670	-1.200	0.900																			1580003338.0	7.35	13.61
26/01/2020 01:48:59	26012020	260120	014859	271.660	12.418748	-57.600133	271.550	-0.330	0.210	-0.030	271.640	-1.100	0.500	1015.50	25.30	25.40	21.40	21.40	-1.00	78.00	78.00	392.00	24.60	62.00	4.50	26.00	4.30	14	3329.00	27.40	27.40	1580003339.0	7.45	13.80
26/01/2020 01:49:00	26012020	260120	014900	271.470	12.418745	-57.600170	271.320	-0.380	0.010	-0.270	271.470	-1.300	0.200																			1580003340.0	7.73	14.32
26/01/2020 01:49:01	26012020	260120	014901	271.290	12.418742	-57.600208	271.150	-0.340	-0.160	-0.430	271.250	-1.500	0.000																			1580003341.0	7.91	14.65
26/01/2020 01:49:02	26012020	260120	014902	271.130	12.418740	-57.600245	271.110	-0.210	-0.250	-0.520	271.130	-1.600	-0.100																			1580003342.0	7.88	14.59
26/01/2020 01:49:03	26012020	260120	014903	271.140	12.418738	-57.600282	271.210	-0.030	-0.230	-0.520	271.160	-1.600	-0.200																			1580003343.0	7.75	14.35
26/01/2020 01:49:04	26012020	260120	014904	271.290	12.418737	-57.600318	271.350	0.130	-0.100	-0.390	271.290	-1.600	-0.100																			1580003344.0	7.62	14.11
26/01/2020 01:49:05	26012020	260120	014905	271.390	12.418738	-57.600353	271.420	0.230	0.020	-0.090	271.410	-1.400	0.100																			1580003345.0	7.51	13.91
26/01/2020 01:49:06	26012020	260120	014906	271.440	12.418740	-57.600388	271.410	0.320	0.030	0.320	271.430	-1.300	0.500																			1580003346.0	7.43	13.76
26/01/2020 01:49:07	26012020	260120	014907	271.410	12.418742	-57.600423	271.400	0.420	-0.110	0.670	271.400	-1.400	0.900																			1580003347.0	7.51	13.91
26/01/2020 01:49:08	26012020	260120	014908	271.400	12.418745	-57.600460	271.440	0.430	-0.380	0.750	271.410	-1.600	1.100																			1580003348.0	7.63	14.13
26/01/2020 01:49:09	26012020	260120	014909	271.450	12.418748	-57.600497	271.520	0.270	-0.630	0.610	271.470	-1.900	1.100																			1580003349.0	7.75	14.35
26/01/2020 01:49:10	26012020	260120	014910	271.560	12.418748	-57.600533	271.620	-0.070	-0.630	0.330	271.560	-2.000	0.800																			1580003350.0	7.83	14.50
26/01/2020 01:49:11	26012020	260120	014911	271.660	12.418748	-57.600570	271.690	-0.410	-0.340	0.100	271.680	-1.900	0.600																			1580003351.0	7.76	14.37
26/01/2020 01:49:12	26012020	260120	014912	271.720	12.418745	-57.600605	271.660	-0.580	0.050	-0.060	271.720	-1.500	0.400																			1580003352.0	7.55	13.98
26/01/2020 01:49:13	26012020	260120	014913	271.680	12.418743	-57.600640	271.580	-0.470	0.300	-0.160	271.660	-1.200	0.200																			1580003353.0	7.39	13.69
26/01/2020 01:49:14	26012020	260120	014914	271.550	12.418742	-57.600675	271.460	-0.160	0.350	-0.170	271.550	-1.000	0.200																			1580003354.0	7.47	13.83
26/01/2020 01:49:15	26012020	260120	014915	271.460	12.418740	-57.600712	271.350	0.180	0.190	-0.080	271.440	-1.100	0.200																			1580003355.0	7.61	14.09
26/01/2020 01:49:16	26012020	260120	014916	271.350	12.418740	-57.600748	271.310	0.370	-0.130	-0.010	271.350	-1.300	0.300																			1580003356.0	7.74	14.33
26/01/2020 01:49:17	26012020	260120	014917	271.330	12.418742	-57.600785	271.340	0.370	-0.510	-0.000	271.330	-1.700	0.400																			1580003357.0	7.83	14.50
26/01/2020 01:49:18	26012020	260120	014918	271.360	12.418743	-57.600823	271.420	0.240	-0.720	-0.070	271.380	-2.000	0.300																			1580003358.0	7.90	14.63
26/01/2020 01:49:19	26012020	260120	014919	271.460	12.418745	-57.600860	271.540	0.040	-0.640	-0.140	271.480	-2.100	0.300																			1580003359.0	7.85	14.54
26/01/2020 01:49:20	26012020	260120	014920	271.580	12.418745	-57.600897	271.640	-0.140	-0.350	-0.120	271.610	-1.900	0.200																			1580003360.0	7.64	14.15
26/01/2020 01:49:21	26012020	260120	014921	271.690	12.418745	-57.600932	271.740	-0.250	0.040	0.020	271.700	-1.500	0.300																			1580003361.0	7.49	13.87
26/01/2020 01:49:22	26012020	260120	014922	271.780	12.418743	-57.600967	271.770	-0.270	0.360	0.270	271.790	-1.200	0.500																			1580003362.0	7.42	13.74
26/01/2020 01:49:23	26012020	260120	014923	271.760	12.418743	-57.601002	271.540	-0.220	0.430	0.580	271.730	-1.000	0.800																			1580003363.0	7.39	13.69
26/01/2020 01:49:24	26012020	260120	014924	271.410	12.418745	-57.601037	271.130	-0.120	0.260	0.830	271.410	-1.000	1.100																			1580003364.0	7.51	13.91
26/01/2020 01:49:25	26012020	260120	014925	271.070	12.418745	-57.601073	270.830	0.020	-0.010	0.820	271.000	-1.300	1.200																			1580003365.0	7.68	14.22
26/01/2020 01:49:26	26012020	260120	014926	270.810	12.418747	-57.601110	270.810	0.220	-0.320	0.470	270.800	-1.600	1.000																			1580003366.0	7.74	14.33
26/01/2020 01:49:27	26012020	260120	014927	270.850	12.418747	-57.601147	271.040	0.430	-0.630	-0.100	270.900	-1.900	0.500																			1580003367.0	7.73	14.32
26/01/2020 01:49:28	26012020	260120	014928	271.200	12.418745	-57.601183	271.350	0.520	-0.790	-0.500	271.200	-2.100	0.000																			1580003368.0	7.76	14.37
26/01/2020 01:49:29	26012020	260120	014929	271.450	12.418743	-57.601220	271.540	0.400	-0.690	-0.420	271.490	-2.200	-0.200																			1580003369.0	7.78	14.41
26/01/2020 01:49:30	26012020	260120	014930	271.590	12.418743	-57.601257	271.550	0.120	-0.330	0.020	271.610	-1.900	0.100																			1580003370.0	7.66	14.19
26/01/2020 01:49:31	26012020	260120	014931	271.580	12.418745	-57.601292	271.480	-0.240	0.110	0.450	271.570	-1.500	0.600																			1580003371.0	7.49	13.87
26/01/2020 01:49:32	26012020	260120	014932	271.490	12.418748	-57.601327	271.380	-0.510	0.390	0.570	271.470	-1.100	0.900																			1580003372.0	7.34	13.59
26/01/2020 01:49:33	26012020	260120	014933	271.380	12.418750	-57.601362	271.260	-0.580	0.370	0.370	271.360	-1.000	0.900																			1580003373.0	7.38	13.67
26/01/2020 01:49:34	26012020	260120	014934	271.270	12.418748	-57.601397	271.140	-0.410	0.110	0.030	271.250	-1.100	0.600																			1580003374.0	7.61	14.09
26/01/2020 01:49:35	26012020	260120	014935	271.160	12.418745	-57.601433	271.020	-0.110	-0.250	-0.230	271.140	-1.500	0.200																			1580003375.0	7.87	14.58
26/01/2020 01:49:36	26012020	260120	014936	271.040	12.418742	-57.601472	270.940	0.160	-0.510	-0.280	271.040	-1.800	0.100																			1580003376.0	7.98	14.78
26/01/2020 01:49:37	26012020	260120	014937	271.000	12.418740	-57.601508	270.970	0.270	-0.550	-0.110	271.000	-1.900	0.200																			1580003377.0	7.91	14.65
26/01/2020 01:49:38	26012020	260120	014938	271.050	12.418740	-57.601545	271.110	0.230	-0.350	0.200	271.070	-1.900	0.400																			1580003378.0	7.73	14.32
26/01/2020 01:49:39	26012020	260120	014939	271.180	12.418743	-57.601582	271.250	0.120	-0.030	0.540	271.210	-1.600	0.700																			1580003379.0	7.53	13.95
26/01/2020 01:49:40	26012020	260120	014940	271.300	12.418745	-57.601617	271.310	0.050	0.170	0.800	271.310	-1.300	1.100																			1580003380.0	7.35	13.61
26/01/2020 01:49:41	26012020	260120	014941	271.340	12.418747	-57.601650	271.270	0.060	0.170	0.890	271.330	-1.200	1.200																			1580003381.0	7.35	13.61
26/01/2020 01:49:42	26012020	260120	014942	271.280	12.418748	-57.601687	271.170	0.090	0.050	0.780	271.260	-1.300	1.200																			1580003382.0	7.52	13.93
26/01/2020 01:49:43	26012020	260120	014943	271.170	12.418748	-57.601722	271.050	0.120	-0.100	0.500	271.140	-1.400	1.000																			1580003383.0	7.67	14.20
26/01/2020 01:49:44	26012020	260120	014944	271.050	12.418747	-57.601758	270.960	0.170	-0.250	0.120	271.020	-1.600	0.700																			1580003384.0	7.69	14.24
26/01/2020 01:49:45	26012020	260120	014945	270.980	12.418745	-57.601795	270.950	0.210	-0.440	-0.280	270.970	-1.700	0.300																			1580003385.0	7.65	14.17
26/01/2020 01:49:46	26012020	260120	014946	270.980	12.418743	-57.601832	270.990	0.180	-0.570	-0.570	270.990	-1.900	-0.100																			1580003386.0	7.67	14.20
26/01/2020 01:49:47	26012020	260120	014947	271.050	12.418742	-57.601868	271.060	-0.020	-0.490	-0.630	271.060	-1.900	-0.300																			1580003387.0	7.74	14.33
26/01/2020 01:49:48	26012020	260120	014948	271.120	12.418742	-57.601903	271.130	-0.330	-0.180	-0.480	271.130	-1.700	-0.200																			1580003388.0	7.67	14.20
26/01/2020 01:49:49	26012020	260120	014949	271.190	12.418742	-57.601940	271.210	-0.540	0.070	-0.270	271.200	-1.400	-0.000																			1580003389.0	7.46	13.82
26/01/2020 01:49:50	26012020	260120	014950	271.250	12.418742	-57.601973	271.270	-0.470	0.090	-0.030	271.260	-1.300	0.200																			1580003390.0	7.34	13.59
26/01/2020 01:49:51	26012020	260120	014951	271.300	12.418742	-57.602010	271.340	-0.220	-0.060	0.180	271.310	-1.400	0.500																			1580003391.0	7.54	13.96
26/01/2020 01:49:52	26012020	260120	014952	271.360	12.418742	-57.602047	271.420	0.040	-0.220	0.350	271.380	-1.500	0.600																			1580003392.0	7.81	14.46
26/01/2020 01:49:53	26012020	260120	014953	271.440	12.418742	-57.602083	271.420	0.180	-0.270	0.520	271.440	-1.600	0.800																			1580003393.0	7.88	14.59
26/01/2020 01:49:54	26012020	260120	014954	271.390	12.418743	-57.602122	271.290	0.210	-0.190	0.710	271.390	-1.600	1.000																			1580003394.0	7.80	14.45
26/01/2020 01:49:55	26012020	260120	014955	271.280	12.418745	-57.602157	271.160	0.180	-0.030	0.860	271.250	-1.500	1.200																			1580003395.0	7.67	14.20
26/01/2020 01:49:56	26012020	260120	014956	271.140	12.418745	-57.602193	271.090	0.130	0.110	0.900	271.120	-1.300	1.300																			1580003396.0	7.55	13.98
26/01/2020 01:49:57	26012020	260120	014957	271.090	12.418747	-57.602228	271.130	0.090	0.160	0.770	271.090	-1.200	1.200																			1580003397.0	7.48	13.85
26/01/2020 01:49:58	26012020	260120	014958	271.140	12.418747	-57.602263	271.170	0.080	0.080	0.510	271.140	-1.300	1.000																			1580003398.0	7.46	13.82
26/01/2020 01:49:59	26012020	260120	014959	271.170	12.418745	-57.602300	271.190	0.050	-0.130	0.120	271.170	-1.400	0.700	1015.50	25.30	25.40	21.30	21.30	-1.00	78.00	78.00	392.00	24.60	65.00	4.20	31.00	4.30	14	3449.00	27.40	27.40	1580003399.0	7.51	13.91
26/01/2020 01:50:00	26012020	260120	015000	271.180	12.418743	-57.602335	271.230	0.010	-0.330	-0.310	271.190	-1.600	0.300																			1580003400.0	7.62	14.11
26/01/2020 01:50:01	26012020	260120	015001	271.240	12.418742	-57.602372	271.270	0.010	-0.480	-0.640	271.250	-1.800	-0.100																			1580003401.0	7.66	14.19
26/01/2020 01:50:02	26012020	260120	015002	271.280	12.418740	-57.602407	271.240	0.060	-0.590	-0.760	271.280	-1.900	-0.400																			1580003402.0	7.62	14.11
26/01/2020 01:50:03	26012020	260120	015003	271.270	12.418738	-57.602443	271.210	0.110	-0.580	-0.710	271.260	-2.000	-0.400																			1580003403.0	7.64	14.15
26/01/2020 01:50:04	26012020	260120	015004	271.270	12.418738	-57.602480	271.300	0.050	-0.400	-0.560	271.270	-1.900	-0.300																			1580003404.0	7.68	14.22
26/01/2020 01:50:05	26012020	260120	015005	271.350	12.418738	-57.602517	271.480	-0.120	-0.140	-0.320	271.350	-1.700	-0.100																			1580003405.0	7.65	14.17
26/01/2020 01:50:06	26012020	260120	015006	271.570	12.418740	-57.602552	271.620	-0.270	0.120	0.060	271.570	-1.400	0.200																			1580003406.0	7.57	14.02
26/01/2020 01:50:07	26012020	260120	015007	271.640	12.418743	-57.602587	271.630	-0.330	0.270	0.520	271.640	-1.200	0.700																			1580003407.0	7.56	14.00
26/01/2020 01:50:08	26012020	260120	015008	271.600	12.418745	-57.602623	271.510	-0.310	0.220	0.890	271.580	-1.100	1.100																			1580003408.0	7.58	14.04
26/01/2020 01:50:09	26012020	260120	015009	271.470	12.418745	-57.602660	271.350	-0.220	0.000	1.100	271.440	-1.300	1.400																			1580003409.0	7.65	14.17
26/01/2020 01:50:10	26012020	260120	015010	271.320	12.418745	-57.602697	271.230	-0.060	-0.180	1.120	271.300	-1.500	1.500																			1580003410.0	7.80	14.45
26/01/2020 01:50:11	26012020	260120	015011	271.230	12.418745	-57.602733	271.230	0.160	-0.230	0.940	271.230	-1.600	1.400																			1580003411.0	7.82	14.48
26/01/2020 01:50:12	26012020	260120	015012	271.260	12.418745	-57.602770	271.290	0.330	-0.260	0.600	271.260	-1.600	1.100																			1580003412.0	7.65	14.17
26/01/2020 01:50:13	26012020	260120	015013	271.330	12.418745	-57.602805	271.360	0.340	-0.300	0.220	271.350	-1.700	0.800																			1580003413.0	7.55	13.98
26/01/2020 01:50:14	26012020	260120	015014	271.410	12.418743	-57.602842	271.370	0.170	-0.220	-0.050	271.410	-1.700	0.400																			1580003414.0	7.61	14.09
26/01/2020 01:50:15	26012020	260120	015015	271.410	12.418742	-57.602877	271.330	-0.020	-0.030	-0.230	271.400	-1.500	0.200																			1580003415.0	7.58	14.04
26/01/2020 01:50:16	26012020	260120	015016	271.360	12.418742	-57.602912	271.280	-0.090	0.030	-0.390	271.340	-1.400	0.100																			1580003416.0	7.42	13.74
26/01/2020 01:50:17	26012020	260120	015017	271.310	12.418742	-57.602947	271.290	0.000	-0.160	-0.580	271.310	-1.400	-0.100																			1580003417.0	7.41	13.72
26/01/2020 01:50:18	26012020	260120	015018	271.390	12.418740	-57.602983	271.430	0.110	-0.390	-0.720	271.390	-1.700	-0.300																			1580003418.0	7.65	14.17
26/01/2020 01:50:19	26012020	260120	015019	271.530	12.418738	-57.603020	271.640	0.080	-0.430	-0.690	271.530	-1.800	-0.400																			1580003419.0	7.88	14.59
26/01/2020 01:50:20	26012020	260120	015020	271.770	12.418738	-57.603057	271.760	-0.100	-0.270	-0.350	271.770	-1.700	-0.200																			1580003420.0	7.79	14.43
26/01/2020 01:50:21	26012020	260120	015021	271.820	12.418740	-57.603093	271.690	-0.230	-0.120	0.200	271.810	-1.600	0.300																			1580003421.0	7.55	13.98
26/01/2020 01:50:22	26012020	260120	015022	271.670	12.418742	-57.603128	271.470	-0.200	-0.070	0.780	271.670	-1.500	0.900																			1580003422.0	7.45	13.80
26/01/2020 01:50:23	26012020	260120	015023	271.450	12.418743	-57.603165	271.220	-0.080	-0.060	1.230	271.390	-1.500	1.400																			1580003423.0	7.59	14.06
26/01/2020 01:50:24	26012020	260120	015024	271.160	12.418747	-57.603200	271.110	0.010	-0.060	1.330	271.160	-1.400	1.700																			1580003424.0	7.70	14.26
26/01/2020 01:50:25	26012020	260120	015025	271.120	12.418748	-57.603237	271.230	0.030	-0.110	1.050	271.130	-1.500	1.600																			1580003425.0	7.68	14.22
26/01/2020 01:50:26	26012020	260120	015026	271.280	12.418748	-57.603273	271.510	0.020	-0.200	0.520	271.340	-1.500	1.200																			1580003426.0	7.63	14.13
26/01/2020 01:50:27	26012020	260120	015027	271.570	12.418747	-57.603310	271.730	0.010	-0.290	0.020	271.620	-1.600	0.600																			1580003427.0	7.68	14.22
26/01/2020 01:50:28	26012020	260120	015028	271.780	12.418743	-57.603347	271.790	0.010	-0.270	-0.260	271.800	-1.700	0.200																			1580003428.0	7.77	14.39
26/01/2020 01:50:29	26012020	260120	015029	271.830	12.418742	-57.603382	271.690	0.010	-0.110	-0.300	271.810	-1.600	0.100																			1580003429.0	7.76	14.37
26/01/2020 01:50:30	26012020	260120	015030	271.680	12.418740	-57.603418	271.520	0.010	0.100	-0.260	271.680	-1.400	0.100																			1580003430.0	7.62	14.11
26/01/2020 01:50:31	26012020	260120	015031	271.550	12.418740	-57.603453	271.380	0.060	0.170	-0.230	271.550	-1.200	0.100																			1580003431.0	7.46	13.82
26/01/2020 01:50:32	26012020	260120	015032	271.410	12.418742	-57.603488	271.280	0.120	0.060	-0.170	271.390	-1.300	0.200																			1580003432.0	7.44	13.78
26/01/2020 01:50:33	26012020	260120	015033	271.340	12.418742	-57.603525	271.250	0.160	-0.220	-0.030	271.340	-1.500	0.300																			1580003433.0	7.53	13.95
26/01/2020 01:50:34	26012020	260120	015034	271.300	12.418743	-57.603562	271.270	0.140	-0.500	0.120	271.300	-1.800	0.400																			1580003434.0	7.67	14.20
26/01/2020 01:50:35	26012020	260120	015035	271.320	12.418743	-57.603598	271.360	0.070	-0.600	0.210	271.340	-2.000	0.500																			1580003435.0	7.77	14.39
26/01/2020 01:50:36	26012020	260120	015036	271.410	12.418745	-57.603635	271.510	-0.030	-0.430	0.250	271.440	-1.900	0.600																			1580003436.0	7.74	14.33
26/01/2020 01:50:37	26012020	260120	015037	271.580	12.418745	-57.603670	271.710	-0.150	-0.130	0.280	271.620	-1.700	0.600																			1580003437.0	7.57	14.02
26/01/2020 01:50:38	26012020	260120	015038	271.770	12.418747	-57.603705	271.890	-0.250	0.100	0.270	271.810	-1.400	0.600																			1580003438.0	7.43	13.76
26/01/2020 01:50:39	26012020	260120	015039	271.920	12.418747	-57.603740	271.930	-0.250	0.140	0.250	271.930	-1.200	0.600																			1580003439.0	7.44	13.78
26/01/2020 01:50:40	26012020	260120	015040	271.920	12.418747	-57.603777	271.840	-0.180	0.010	0.210	271.900	-1.300	0.600																			1580003440.0	7.57	14.02
26/01/2020 01:50:41	26012020	260120	015041	271.800	12.418745	-57.603813	271.660	-0.080	-0.170	0.140	271.770	-1.500	0.500																			1580003441.0	7.74	14.33
26/01/2020 01:50:42	26012020	260120	015042	271.630	12.418743	-57.603850	271.490	-0.010	-0.260	0.100	271.590	-1.600	0.500																			1580003442.0	7.83	14.50
26/01/2020 01:50:43	26012020	260120	015043	271.470	12.418742	-57.603887	271.390	0.060	-0.230	0.140	271.450	-1.600	0.500																			1580003443.0	7.76	14.37
26/01/2020 01:50:44	26012020	260120	015044	271.390	12.418742	-57.603923	271.330	0.230	-0.160	0.290	271.380	-1.600	0.600																			1580003444.0	7.61	14.09
26/01/2020 01:50:45	26012020	260120	015045	271.360	12.418743	-57.603958	271.370	0.430	-0.150	0.450	271.360	-1.500	0.700																			1580003445.0	7.52	13.93
26/01/2020 01:50:46	26012020	260120	015046	271.410	12.418747	-57.603993	271.480	0.480	-0.210	0.520	271.420	-1.600	0.900																			1580003446.0	7.55	13.98
26/01/2020 01:50:47	26012020	260120	015047	271.530	12.418748	-57.604030	271.620	0.200	-0.270	0.450	271.560	-1.600	0.900																			1580003447.0	7.67	14.20
26/01/2020 01:50:48	26012020	260120	015048	271.670	12.418750	-57.604067	271.730	-0.280	-0.240	0.210	271.690	-1.700	0.700																			1580003448.0	7.69	14.24
26/01/2020 01:50:49	26012020	260120	015049	271.760	12.418750	-57.604102	271.740	-0.670	-0.100	-0.150	271.770	-1.600	0.400																			1580003449.0	7.64	14.15
26/01/2020 01:50:50	26012020	260120	015050	271.750	12.418748	-57.604138	271.650	-0.750	0.020	-0.470	271.750	-1.400	0.000																			1580003450.0	7.56	14.00
26/01/2020 01:50:51	26012020	260120	015051	271.670	12.418745	-57.604173	271.540	-0.490	0.040	-0.660	271.650	-1.400	-0.200																			1580003451.0	7.54	13.96
26/01/2020 01:50:52	26012020	260120	015052	271.560	12.418742	-57.604210	271.510	-0.070	-0.010	-0.680	271.560	-1.400	-0.300																			1580003452.0	7.64	14.15
26/01/2020 01:50:53	26012020	260120	015053	271.550	12.418740	-57.604247	271.520	0.290	-0.100	-0.430	271.560	-1.400	-0.200																			1580003453.0	7.70	14.26
26/01/2020 01:50:54	26012020	260120	015054	271.560	12.418740	-57.604282	271.490	0.470	-0.270	0.130	271.560	-1.600	0.200																			1580003454.0	7.67	14.20
26/01/2020 01:50:55	26012020	260120	015055	271.510	12.418742	-57.604318	271.400	0.490	-0.450	0.800	271.510	-1.800	0.900																			1580003455.0	7.68	14.22
26/01/2020 01:50:56	26012020	260120	015056	271.420	12.418747	-57.604355	271.400	0.410	-0.410	1.280	271.420	-1.900	1.400																			1580003456.0	7.79	14.43
26/01/2020 01:50:57	26012020	260120	015057	271.430	12.418752	-57.604392	271.460	0.260	-0.170	1.470	271.430	-1.700	1.800																			1580003457.0	7.72	14.30
26/01/2020 01:50:58	26012020	260120	015058	271.490	12.418757	-57.604427	271.500	0.060	0.010	1.310	271.490	-1.400	1.800																			1580003458.0	7.47	13.83
26/01/2020 01:50:59	26012020	260120	015059	271.510	12.418757	-57.604462	271.480	-0.120	-0.040	0.820	271.510	-1.400	1.400	1015.50	25.40	25.40	21.30	21.30	-1.00	78.00	78.00	392.00	24.60	66.00	4.10	33.00	4.40	14	3442.00	27.40	27.40	1580003459.0	7.35	13.61
26/01/2020 01:51:00	26012020	260120	015100	271.480	12.418757	-57.604497	271.380	-0.270	-0.190	0.160	271.460	-1.500	0.900																			1580003460.0	7.56	14.00
26/01/2020 01:51:01	26012020	260120	015101	271.400	12.418753	-57.604533	271.260	-0.400	-0.200	-0.500	271.370	-1.600	0.200																			1580003461.0	7.84	14.52
26/01/2020 01:51:02	26012020	260120	015102	271.290	12.418748	-57.604570	271.190	-0.450	-0.100	-0.970	271.280	-1.500	-0.400																			1580003462.0	7.86	14.56
26/01/2020 01:51:03	26012020	260120	015103	271.240	12.418743	-57.604607	271.180	-0.360	-0.060	-1.130	271.240	-1.500	-0.700																			1580003463.0	7.68	14.22
26/01/2020 01:51:04	26012020	260120	015104	271.250	12.418740	-57.604642	271.210	-0.120	-0.080	-0.940	271.260	-1.500	-0.700																			1580003464.0	7.58	14.04
26/01/2020 01:51:05	26012020	260120	015105	271.280	12.418740	-57.604678	271.250	0.180	-0.140	-0.470	271.290	-1.500	-0.400																			1580003465.0	7.64	14.15
26/01/2020 01:51:06	26012020	260120	015106	271.320	12.418742	-57.604715	271.280	0.400	-0.170	0.180	271.330	-1.500	0.200																			1580003466.0	7.69	14.24
26/01/2020 01:51:07	26012020	260120	015107	271.360	12.418745	-57.604752	271.320	0.460	-0.200	0.850	271.360	-1.600	0.900																			1580003467.0	7.69	14.24
26/01/2020 01:51:08	26012020	260120	015108	271.360	12.418750	-57.604787	271.280	0.360	-0.230	1.370	271.350	-1.600	1.500																			1580003468.0	7.63	14.13
26/01/2020 01:51:09	26012020	260120	015109	271.280	12.418753	-57.604823	271.170	0.170	-0.260	1.600	271.280	-1.600	1.900																			1580003469.0	7.62	14.11
26/01/2020 01:51:10	26012020	260120	015110	271.140	12.418757	-57.604858	271.110	-0.040	-0.250	1.420	271.140	-1.700	1.900																			1580003470.0	7.62	14.11
26/01/2020 01:51:11	26012020	260120	015111	271.130	12.418758	-57.604895	271.130	-0.240	-0.170	0.910	271.130	-1.600	1.500																			1580003471.0	7.61	14.09
26/01/2020 01:51:12	26012020	260120	015112	271.170	12.418757	-57.604930	271.160	-0.390	-0.080	0.270	271.180	-1.500	0.900																			1580003472.0	7.59	14.06
26/01/2020 01:51:13	26012020	260120	015113	271.210	12.418753	-57.604967	271.130	-0.430	-0.040	-0.290	271.210	-1.400	0.300																			1580003473.0	7.60	14.08
26/01/2020 01:51:14	26012020	260120	015114	271.180	12.418748	-57.605002	271.100	-0.290	-0.060	-0.710	271.180	-1.400	-0.200																			1580003474.0	7.65	14.17
26/01/2020 01:51:15	26012020	260120	015115	271.170	12.418743	-57.605038	271.110	-0.010	-0.100	-1.000	271.170	-1.500	-0.500																			1580003475.0	7.70	14.26
26/01/2020 01:51:16	26012020	260120	015116	271.200	12.418742	-57.605075	271.120	0.240	-0.170	-1.010	271.200	-1.500	-0.700																			1580003476.0	7.72	14.30
26/01/2020 01:51:17	26012020	260120	015117	271.220	12.418740	-57.605112	271.100	0.310	-0.210	-0.670	271.210	-1.600	-0.500																			1580003477.0	7.71	14.28
26/01/2020 01:51:18	26012020	260120	015118	271.190	12.418742	-57.605147	271.090	0.230	-0.220	-0.070	271.180	-1.600	-0.000																			1580003478.0	7.67	14.20
26/01/2020 01:51:19	26012020	260120	015119	271.180	12.418745	-57.605183	271.140	0.110	-0.220	0.530	271.180	-1.600	0.600																			1580003479.0	7.63	14.13
26/01/2020 01:51:20	26012020	260120	015120	271.220	12.418750	-57.605218	271.180	0.050	-0.240	0.960	271.220	-1.600	1.100																			1580003480.0	7.58	14.04
26/01/2020 01:51:21	26012020	260120	015121	271.230	12.418753	-57.605255	271.160	0.000	-0.210	1.150	271.230	-1.600	1.400																			1580003481.0	7.60	14.08
26/01/2020 01:51:22	26012020	260120	015122	271.190	12.418753	-57.605290	271.060	-0.080	-0.080	1.150	271.170	-1.500	1.500																			1580003482.0	7.63	14.13
26/01/2020 01:51:23	26012020	260120	015123	271.070	12.418753	-57.605327	270.930	-0.180	0.000	1.000	271.070	-1.400	1.400																			1580003483.0	7.56	14.00
26/01/2020 01:51:24	26012020	260120	015124	270.940	12.418753	-57.605362	270.830	-0.180	-0.060	0.770	270.920	-1.400	1.300																			1580003484.0	7.48	13.85
26/01/2020 01:51:25	26012020	260120	015125	270.850	12.418752	-57.605398	270.820	-0.070	-0.160	0.420	270.850	-1.500	1.000																			1580003485.0	7.62	14.11
26/01/2020 01:51:26	26012020	260120	015126	270.870	12.418750	-57.605435	270.940	0.070	-0.180	0.000	270.890	-1.600	0.600																			1580003486.0	7.75	14.35
26/01/2020 01:51:27	26012020	260120	015127	271.020	12.418748	-57.605470	271.140	0.130	-0.180	-0.400	271.060	-1.600	0.200																			1580003487.0	7.70	14.26
26/01/2020 01:51:28	26012020	260120	015128	271.230	12.418747	-57.605507	271.290	0.090	-0.240	-0.670	271.270	-1.600	-0.200																			1580003488.0	7.61	14.09
26/01/2020 01:51:29	26012020	260120	015129	271.360	12.418745	-57.605543	271.280	-0.000	-0.280	-0.690	271.370	-1.700	-0.300																			1580003489.0	7.63	14.13
26/01/2020 01:51:30	26012020	260120	015130	271.330	12.418743	-57.605578	271.150	-0.100	-0.230	-0.510	271.300	-1.700	-0.300																			1580003490.0	7.67	14.20
26/01/2020 01:51:31	26012020	260120	015131	271.180	12.418743	-57.605615	270.990	-0.160	-0.140	-0.230	271.150	-1.600	0.000																			1580003491.0	7.61	14.09
26/01/2020 01:51:32	26012020	260120	015132	271.030	12.418745	-57.605650	270.920	-0.150	-0.080	0.050	271.010	-1.500	0.300																			1580003492.0	7.54	13.96
26/01/2020 01:51:33	26012020	260120	015133	270.970	12.418747	-57.605687	270.930	-0.050	-0.100	0.320	270.970	-1.500	0.600																			1580003493.0	7.55	13.98
26/01/2020 01:51:34	26012020	260120	015134	270.990	12.418747	-57.605722	270.980	0.080	-0.140	0.580	271.000	-1.500	0.800																			1580003494.0	7.62	14.11
26/01/2020 01:51:35	26012020	260120	015135	271.030	12.418748	-57.605758	271.050	0.170	-0.130	0.800	271.050	-1.500	1.100																			1580003495.0	7.68	14.22
26/01/2020 01:51:36	26012020	260120	015136	271.110	12.418750	-57.605795	271.160	0.150	-0.100	0.860	271.120	-1.500	1.200																			1580003496.0	7.67	14.20
26/01/2020 01:51:37	26012020	260120	015137	271.220	12.418750	-57.605832	271.230	0.040	-0.120	0.810	271.240	-1.500	1.200																			1580003497.0	7.59	14.06
26/01/2020 01:51:38	26012020	260120	015138	271.280	12.418752	-57.605867	271.170	-0.070	-0.170	0.640	271.270	-1.500	1.100																			1580003498.0	7.58	14.04
26/01/2020 01:51:39	26012020	260120	015139	271.200	12.418752	-57.605903	271.070	-0.110	-0.180	0.320	271.180	-1.600	0.900																			1580003499.0	7.65	14.17
26/01/2020 01:51:40	26012020	260120	015140	271.100	12.418750	-57.605940	271.030	-0.070	-0.150	-0.120	271.100	-1.600	0.500																			1580003500.0	7.67	14.20
26/01/2020 01:51:41	26012020	260120	015141	271.110	12.418747	-57.605975	271.070	0.010	-0.200	-0.490	271.110	-1.600	0.000																			1580003501.0	7.61	14.09
26/01/2020 01:51:42	26012020	260120	015142	271.180	12.418743	-57.606012	271.110	0.100	-0.290	-0.590	271.180	-1.600	-0.200																			1580003502.0	7.62	14.11
26/01/2020 01:51:43	26012020	260120	015143	271.200	12.418742	-57.606047	271.060	0.130	-0.250	-0.370	271.200	-1.700	-0.100																			1580003503.0	7.69	14.24
26/01/2020 01:51:44	26012020	260120	015144	271.120	12.418742	-57.606083	270.950	0.040	-0.080	0.050	271.120	-1.600	0.200																			1580003504.0	7.67	14.20
26/01/2020 01:51:45	26012020	260120	015145	271.000	12.418743	-57.606120	270.860	-0.070	0.030	0.390	271.000	-1.400	0.600																			1580003505.0	7.51	13.91
26/01/2020 01:51:46	26012020	260120	015146	270.910	12.418747	-57.606155	270.910	-0.130	-0.030	0.450	270.910	-1.400	0.800																			1580003506.0	7.46	13.82
26/01/2020 01:51:47	26012020	260120	015147	271.000	12.418748	-57.606190	271.100	-0.110	-0.170	0.270	271.030	-1.500	0.700																			1580003507.0	7.60	14.08
26/01/2020 01:51:48	26012020	260120	015148	271.210	12.418748	-57.606227	271.310	-0.050	-0.320	-0.010	271.250	-1.600	0.500																			1580003508.0	7.72	14.30
26/01/2020 01:51:49	26012020	260120	015149	271.420	12.418747	-57.606263	271.450	0.040	-0.400	-0.140	271.450	-1.800	0.300																			1580003509.0	7.77	14.39
26/01/2020 01:51:50	26012020	260120	015150	271.520	12.418745	-57.606300	271.440	0.090	-0.320	0.040	271.530	-1.800	0.300																			1580003510.0	7.77	14.39
26/01/2020 01:51:51	26012020	260120	015151	271.480	12.418743	-57.606337	271.310	0.080	-0.050	0.410	271.470	-1.600	0.600																			1580003511.0	7.69	14.24
26/01/2020 01:51:52	26012020	260120	015152	271.300	12.418745	-57.606372	271.110	0.050	0.190	0.730	271.300	-1.300	1.000																			1580003512.0	7.47	13.83
26/01/2020 01:51:53	26012020	260120	015153	271.140	12.418747	-57.606407	270.910	0.100	0.180	0.830	271.090	-1.200	1.200																			1580003513.0	7.36	13.63
26/01/2020 01:51:54	26012020	260120	015154	270.900	12.418748	-57.606442	270.770	0.200	-0.060	0.640	270.900	-1.300	1.100																			1580003514.0	7.48	13.85
26/01/2020 01:51:55	26012020	260120	015155	270.830	12.418750	-57.606478	270.810	0.190	-0.400	0.220	270.830	-1.600	0.800																			1580003515.0	7.72	14.30
26/01/2020 01:51:56	26012020	260120	015156	270.920	12.418748	-57.606515	270.920	-0.030	-0.610	-0.200	270.920	-1.900	0.400																			1580003516.0	7.90	14.63
26/01/2020 01:51:57	26012020	260120	015157	271.030	12.418745	-57.606553	271.010	-0.360	-0.510	-0.500	271.030	-2.000	-0.000																			1580003517.0	7.91	14.65
26/01/2020 01:51:58	26012020	260120	015158	271.110	12.418743	-57.606590	271.020	-0.540	-0.190	-0.690	271.110	-1.800	-0.200																			1580003518.0	7.68	14.22
26/01/2020 01:51:59	26012020	260120	015159	271.120	12.418740	-57.606625	271.010	-0.400	0.040	-0.820	271.120	-1.400	-0.400	1015.50	25.40	25.50	21.50	21.50	-1.00	78.00	78.00	392.00	24.60	70.00	4.70	29.00	5.00	14	3490.00	27.40	27.40	1580003519.0	7.40	13.70
26/01/2020 01:52:00	26012020	260120	015200	271.120	12.418738	-57.606658	270.980	-0.030	0.020	-0.810	271.120	-1.300	-0.500																			1580003520.0	7.36	13.63
26/01/2020 01:52:01	26012020	260120	015201	271.070	12.418737	-57.606695	270.800	0.310	-0.090	-0.420	271.040	-1.400	-0.300																			1580003521.0	7.64	14.15
26/01/2020 01:52:02	26012020	260120	015202	270.800	12.418737	-57.606732	270.520	0.420	-0.030	0.290	270.800	-1.500	0.300																			1580003522.0	7.86	14.56
26/01/2020 01:52:03	26012020	260120	015203	270.530	12.418740	-57.606768	270.200	0.280	0.170	1.040	270.460	-1.300	1.100																			1580003523.0	7.79	14.43
26/01/2020 01:52:04	26012020	260120	015204	270.180	12.418745	-57.606805	269.890	0.050	0.200	1.490	270.110	-1.200	1.700																			1580003524.0	7.52	13.93
26/01/2020 01:52:05	26012020	260120	015205	269.870	12.418750	-57.606838	269.690	-0.020	-0.130	1.450	269.820	-1.300	1.900																			1580003525.0	7.38	13.67
26/01/2020 01:52:06	26012020	260120	015206	269.690	12.418752	-57.606875	269.660	0.060	-0.570	0.950	269.690	-1.800	1.600																			1580003526.0	7.59	14.06
26/01/2020 01:52:07	26012020	260120	015207	269.710	12.418750	-57.606912	269.760	0.150	-0.750	0.240	269.730	-2.100	1.000																			1580003527.0	7.91	14.65
26/01/2020 01:52:08	26012020	260120	015208	269.840	12.418747	-57.606950	269.810	0.110	-0.580	-0.420	269.840	-2.100	0.200																			1580003528.0	7.91	14.65
26/01/2020 01:52:09	26012020	260120	015209	269.850	12.418742	-57.606985	269.690	-0.020	-0.250	-0.800	269.850	-1.800	-0.300																			1580003529.0	7.66	14.19
26/01/2020 01:52:10	26012020	260120	015210	269.660	12.418738	-57.607020	269.470	-0.180	0.040	-0.830	269.660	-1.500	-0.500																			1580003530.0	7.43	13.76
26/01/2020 01:52:11	26012020	260120	015211	269.480	12.418737	-57.607055	269.210	-0.290	0.170	-0.610	269.480	-1.300	-0.400																			1580003531.0	7.40	13.70
26/01/2020 01:52:12	26012020	260120	015212	269.150	12.418737	-57.607090	268.900	-0.310	0.140	-0.190	269.150	-1.200	-0.000																			1580003532.0	7.50	13.89
26/01/2020 01:52:13	26012020	260120	015213	268.860	12.418737	-57.607127	268.560	-0.250	0.010	0.290	268.860	-1.300	0.400																			1580003533.0	7.66	14.19
26/01/2020 01:52:14	26012020	260120	015214	268.500	12.418737	-57.607163	268.220	-0.170	-0.120	0.750	268.430	-1.500	0.900																			1580003534.0	7.76	14.37
26/01/2020 01:52:15	26012020	260120	015215	268.150	12.418738	-57.607200	267.930	-0.050	-0.160	1.080	268.080	-1.500	1.300																			1580003535.0	7.77	14.39
26/01/2020 01:52:16	26012020	260120	015216	267.830	12.418738	-57.607237	267.710	0.100	-0.070	1.230	267.830	-1.500	1.500																			1580003536.0	7.69	14.24
26/01/2020 01:52:17	26012020	260120	015217	267.660	12.418738	-57.607272	267.540	0.310	0.040	1.210	267.630	-1.400	1.600																			1580003537.0	7.54	13.96
26/01/2020 01:52:18	26012020	260120	015218	267.500	12.418738	-57.607307	267.460	0.510	-0.140	0.970	267.500	-1.400	1.500																			1580003538.0	7.37	13.65
26/01/2020 01:52:19	26012020	260120	015219	267.460	12.418738	-57.607343	267.380	0.630	-0.580	0.670	267.450	-1.700	1.200																			1580003539.0	7.46	13.82
26/01/2020 01:52:20	26012020	260120	015220	267.360	12.418737	-57.607380	267.200	0.530	-0.950	0.430	267.360	-2.200	0.900																			1580003540.0	7.80	14.45
26/01/2020 01:52:21	26012020	260120	015221	267.210	12.418735	-57.607418	266.960	0.180	-0.830	0.220	267.170	-2.400	0.700																			1580003541.0	8.05	14.91
26/01/2020 01:52:22	26012020	260120	015222	266.980	12.418733	-57.607455	266.690	-0.340	-0.150	-0.020	266.930	-1.900	0.500																			1580003542.0	7.90	14.63
26/01/2020 01:52:23	26012020	260120	015223	266.690	12.418730	-57.607490	266.320	-0.770	0.610	-0.240	266.630	-1.100	0.200																			1580003543.0	7.40	13.70
26/01/2020 01:52:24	26012020	260120	015224	266.240	12.418727	-57.607523	265.880	-0.840	0.880	-0.390	266.240	-0.600	0.000																			1580003544.0	7.00	12.96
26/01/2020 01:52:25	26012020	260120	015225	265.900	12.418723	-57.607557	265.480	-0.550	0.540	-0.440	265.810	-0.600	-0.100																			1580003545.0	7.16	13.26
26/01/2020 01:52:26	26012020	260120	015226	265.510	12.418718	-57.607593	265.190	-0.120	-0.050	-0.350	265.450	-1.200	-0.000																			1580003546.0	7.70	14.26
26/01/2020 01:52:27	26012020	260120	015227	265.240	12.418715	-57.607630	264.980	0.230	-0.530	-0.040	265.200	-1.700	0.200																			1580003547.0	8.03	14.87
26/01/2020 01:52:28	26012020	260120	015228	265.000	12.418712	-57.607668	264.760	0.420	-0.750	0.540	265.000	-2.100	0.600																			1580003548.0	7.96	14.74
26/01/2020 01:52:29	26012020	260120	015229	264.810	12.418712	-57.607705	264.490	0.430	-0.690	1.250	264.750	-2.100	1.300																			1580003549.0	7.74	14.33
26/01/2020 01:52:30	26012020	260120	015230	264.460	12.418713	-57.607740	264.230	0.350	-0.430	1.810	264.460	-2.000	1.900																			1580003550.0	7.59	14.06
26/01/2020 01:52:31	26012020	260120	015231	264.240	12.418717	-57.607775	263.990	0.250	-0.190	1.970	264.200	-1.700	2.300																			1580003551.0	7.46	13.82
26/01/2020 01:52:32	26012020	260120	015232	263.940	12.418717	-57.607810	263.730	0.200	-0.100	1.720	263.940	-1.500	2.300																			1580003552.0	7.40	13.70
26/01/2020 01:52:33	26012020	260120	015233	263.740	12.418715	-57.607847	263.470	0.160	-0.110	1.190	263.690	-1.500	1.800																			1580003553.0	7.53	13.95
26/01/2020 01:52:34	26012020	260120	015234	263.450	12.418710	-57.607882	263.230	0.080	-0.110	0.530	263.450	-1.500	1.200																			1580003554.0	7.71	14.28
26/01/2020 01:52:35	26012020	260120	015235	263.260	12.418705	-57.607918	262.920	-0.060	-0.010	-0.030	263.260	-1.500	0.600																			1580003555.0	7.77	14.39
26/01/2020 01:52:36	26012020	260120	015236	262.940	12.418697	-57.607955	262.520	-0.240	0.130	-0.380	262.870	-1.300	0.100																			1580003556.0	7.69	14.24
26/01/2020 01:52:37	26012020	260120	015237	262.540	12.418692	-57.607990	262.060	-0.390	0.220	-0.530	262.540	-1.200	-0.100																			1580003557.0	7.55	13.98
26/01/2020 01:52:38	26012020	260120	015238	261.980	12.418685	-57.608025	261.610	-0.430	0.120	-0.580	261.980	-1.200	-0.200																			1580003558.0	7.44	13.78
26/01/2020 01:52:39	26012020	260120	015239	261.630	12.418682	-57.608060	261.250	-0.330	-0.180	-0.500	261.550	-1.400	-0.200																			1580003559.0	7.47	13.83
26/01/2020 01:52:40	26012020	260120	015240	261.270	12.418677	-57.608095	260.930	-0.120	-0.440	-0.170	261.200	-1.700	0.000																			1580003560.0	7.65	14.17
26/01/2020 01:52:41	26012020	260120	015241	260.920	12.418673	-57.608132	260.560	0.120	-0.450	0.380	260.840	-1.900	0.500																			1580003561.0	7.75	14.35
26/01/2020 01:52:42	26012020	260120	015242	260.540	12.418670	-57.608168	260.190	0.300	-0.260	0.970	260.460	-1.800	1.100																			1580003562.0	7.65	14.17
26/01/2020 01:52:43	26012020	260120	015243	260.180	12.418668	-57.608203	259.880	0.390	-0.140	1.430	260.110	-1.600	1.600																			1580003563.0	7.44	13.78
26/01/2020 01:52:44	26012020	260120	015244	259.870	12.418668	-57.608238	259.560	0.430	-0.210	1.690	259.810	-1.500	2.000																			1580003564.0	7.41	13.72
26/01/2020 01:52:45	26012020	260120	015245	259.550	12.418667	-57.608273	259.250	0.380	-0.290	1.690	259.490	-1.600	2.100																			1580003565.0	7.60	14.08
26/01/2020 01:52:46	26012020	260120	015246	259.250	12.418663	-57.608310	258.960	0.200	-0.280	1.440	259.190	-1.700	2.000																			1580003566.0	7.71	14.28
26/01/2020 01:52:47	26012020	260120	015247	258.940	12.418658	-57.608347	258.610	-0.070	-0.190	1.110	258.870	-1.600	1.600																			1580003567.0	7.64	14.15
26/01/2020 01:52:48	26012020	260120	015248	258.600	12.418652	-57.608380	258.220	-0.330	-0.110	0.840	258.520	-1.500	1.300																			1580003568.0	7.51	13.91
26/01/2020 01:52:49	26012020	260120	015249	258.210	12.418645	-57.608415	257.790	-0.460	-0.050	0.630	258.210	-1.500	1.100																			1580003569.0	7.48	13.85
26/01/2020 01:52:50	26012020	260120	015250	257.800	12.418637	-57.608450	257.380	-0.400	-0.040	0.470	257.710	-1.400	0.900																			1580003570.0	7.54	13.96
26/01/2020 01:52:51	26012020	260120	015251	257.370	12.418628	-57.608485	257.020	-0.220	-0.020	0.340	257.300	-1.400	0.800																			1580003571.0	7.59	14.06
26/01/2020 01:52:52	26012020	260120	015252	257.020	12.418622	-57.608520	256.750	-0.010	-0.010	0.220	256.970	-1.400	0.700																			1580003572.0	7.59	14.06
26/01/2020 01:52:53	26012020	260120	015253	256.770	12.418613	-57.608555	256.570	0.160	0.010	0.180	256.740	-1.400	0.600																			1580003573.0	7.57	14.02
26/01/2020 01:52:54	26012020	260120	015254	256.580	12.418607	-57.608590	256.430	0.280	-0.000	0.280	256.580	-1.400	0.600																			1580003574.0	7.51	13.91
26/01/2020 01:52:55	26012020	260120	015255	256.450	12.418602	-57.608625	256.260	0.370	0.010	0.580	256.420	-1.400	0.800																			1580003575.0	7.48	13.85
26/01/2020 01:52:56	26012020	260120	015256	256.280	12.418597	-57.608660	256.100	0.400	-0.020	0.980	256.240	-1.400	1.200																			1580003576.0	7.44	13.78
26/01/2020 01:52:57	26012020	260120	015257	256.100	12.418593	-57.608695	255.900	0.320	-0.210	1.370	256.050	-1.500	1.600																			1580003577.0	7.37	13.65
26/01/2020 01:52:58	26012020	260120	015258	255.860	12.418588	-57.608730	255.630	0.170	-0.610	1.610	255.800	-1.800	1.900																			1580003578.0	7.40	13.70
26/01/2020 01:52:59	26012020	260120	015259	255.580	12.418583	-57.608765	255.400	-0.020	-0.940	1.540	255.520	-2.200	2.000	1015.50	25.40	25.40	21.40	21.40	-1.00	78.00	78.00	392.00	24.60	77.00	3.70	35.00	4.70	14	3403.00	27.40	27.40	1580003579.0	7.61	14.09
26/01/2020 01:53:00	26012020	260120	015300	255.330	12.418577	-57.608802	255.300	-0.250	-0.850	1.100	255.330	-2.300	1.700																			1580003580.0	7.79	14.43
26/01/2020 01:53:01	26012020	260120	015301	255.300	12.418567	-57.608837	255.310	-0.480	-0.350	0.510	255.300	-2.000	1.200																			1580003581.0	7.67	14.20
26/01/2020 01:53:02	26012020	260120	015302	255.330	12.418557	-57.608868	255.290	-0.580	0.220	-0.010	255.340	-1.400	0.600																			1580003582.0	7.34	13.59
26/01/2020 01:53:03	26012020	260120	015303	255.310	12.418547	-57.608902	255.160	-0.470	0.520	-0.280	255.310	-1.000	0.200																			1580003583.0	7.16	13.26
26/01/2020 01:53:04	26012020	260120	015304	255.170	12.418535	-57.608935	254.930	-0.220	0.460	-0.230	255.130	-0.900	0.100																			1580003584.0	7.33	13.58
26/01/2020 01:53:05	26012020	260120	015305	254.920	12.418527	-57.608968	254.630	0.050	0.180	0.110	254.860	-1.000	0.300																			1580003585.0	7.62	14.11
26/01/2020 01:53:06	26012020	260120	015306	254.550	12.418518	-57.609005	254.310	0.250	-0.170	0.620	254.550	-1.400	0.800																			1580003586.0	7.81	14.46
26/01/2020 01:53:07	26012020	260120	015307	254.300	12.418512	-57.609042	254.060	0.360	-0.380	1.080	254.240	-1.700	1.300																			1580003587.0	7.84	14.52
26/01/2020 01:53:08	26012020	260120	015308	254.030	12.418507	-57.609078	253.950	0.370	-0.380	1.340	254.030	-1.800	1.600																			1580003588.0	7.72	14.30
26/01/2020 01:53:09	26012020	260120	015309	253.980	12.418500	-57.609113	253.950	0.310	-0.230	1.410	253.980	-1.700	1.800																			1580003589.0	7.48	13.85
26/01/2020 01:53:10	26012020	260120	015310	253.980	12.418495	-57.609147	253.930	0.210	-0.090	1.310	253.980	-1.500	1.800																			1580003590.0	7.25	13.43
26/01/2020 01:53:11	26012020	260120	015311	253.930	12.418488	-57.609180	253.770	0.130	-0.060	1.120	253.910	-1.400	1.600																			1580003591.0	7.20	13.33
26/01/2020 01:53:12	26012020	260120	015312	253.760	12.418480	-57.609213	253.570	0.030	-0.120	0.800	253.730	-1.500	1.400																			1580003592.0	7.30	13.52
26/01/2020 01:53:13	26012020	260120	015313	253.570	12.418470	-57.609247	253.430	-0.130	-0.210	0.370	253.540	-1.500	1.000																			1580003593.0	7.44	13.78
26/01/2020 01:53:14	26012020	260120	015314	253.460	12.418458	-57.609280	253.350	-0.270	-0.300	-0.070	253.450	-1.600	0.500																			1580003594.0	7.50	13.89
26/01/2020 01:53:15	26012020	260120	015315	253.380	12.418447	-57.609313	253.210	-0.290	-0.410	-0.350	253.360	-1.700	0.200																			1580003595.0	7.49	13.87
26/01/2020 01:53:16	26012020	260120	015316	253.230	12.418437	-57.609348	253.080	-0.190	-0.410	-0.400	253.200	-1.800	-0.000																			1580003596.0	7.53	13.95
26/01/2020 01:53:17	26012020	260120	015317	253.130	12.418425	-57.609382	253.080	-0.120	-0.230	-0.200	253.120	-1.700	0.100																			1580003597.0	7.58	14.04
26/01/2020 01:53:18	26012020	260120	015318	253.140	12.418415	-57.609415	253.070	-0.110	-0.040	0.220	253.140	-1.500	0.400																			1580003598.0	7.45	13.80
26/01/2020 01:53:19	26012020	260120	015319	253.110	12.418407	-57.609450	252.980	-0.080	-0.030	0.760	253.090	-1.400	0.900																			1580003599.0	7.33	13.58
26/01/2020 01:53:20	26012020	260120	015320	252.980	12.418400	-57.609483	252.880	0.040	-0.110	1.190	252.960	-1.400	1.400																			1580003600.0	7.49	13.87
26/01/2020 01:53:21	26012020	260120	015321	252.880	12.418395	-57.609520	252.890	0.180	-0.050	1.290	252.880	-1.500	1.700																			1580003601.0	7.72	14.30
26/01/2020 01:53:22	26012020	260120	015322	252.910	12.418387	-57.609555	252.860	0.200	0.050	1.230	252.910	-1.400	1.700																			1580003602.0	7.63	14.13
26/01/2020 01:53:23	26012020	260120	015323	252.850	12.418378	-57.609588	252.610	0.110	-0.010	1.230	252.810	-1.300	1.600																			1580003603.0	7.38	13.67
26/01/2020 01:53:24	26012020	260120	015324	252.490	12.418368	-57.609622	252.240	-0.010	-0.240	1.280	252.490	-1.500	1.700																			1580003604.0	7.37	13.65
26/01/2020 01:53:25	26012020	260120	015325	252.210	12.418358	-57.609657	252.030	-0.100	-0.330	1.140	252.210	-1.700	1.600																			1580003605.0	7.61	14.09
26/01/2020 01:53:26	26012020	260120	015326	252.050	12.418348	-57.609692	252.090	-0.170	-0.130	0.680	252.050	-1.600	1.300																			1580003606.0	7.67	14.20
26/01/2020 01:53:27	26012020	260120	015327	252.150	12.418338	-57.609725	252.260	-0.220	0.110	0.100	252.190	-1.400	0.800																			1580003607.0	7.40	13.70
26/01/2020 01:53:28	26012020	260120	015328	252.340	12.418327	-57.609757	252.300	-0.150	0.060	-0.350	252.340	-1.300	0.200																			1580003608.0	7.10	13.15
26/01/2020 01:53:29	26012020	260120	015329	252.350	12.418313	-57.609788	252.260	0.040	-0.220	-0.570	252.340	-1.500	-0.100																			1580003609.0	7.23	13.39
26/01/2020 01:53:30	26012020	260120	015330	252.300	12.418302	-57.609822	252.240	0.230	-0.450	-0.510	252.300	-1.700	-0.200																			1580003610.0	7.57	14.02
26/01/2020 01:53:31	26012020	260120	015331	252.300	12.418290	-57.609857	252.270	0.330	-0.450	-0.160	252.310	-1.900	0.000																			1580003611.0	7.68	14.22
26/01/2020 01:53:32	26012020	260120	015332	252.310	12.418280	-57.609890	252.250	0.330	-0.300	0.440	252.310	-1.800	0.500																			1580003612.0	7.51	13.91
26/01/2020 01:53:33	26012020	260120	015333	252.290	12.418275	-57.609925	252.220	0.250	-0.170	1.030	252.290	-1.600	1.200																			1580003613.0	7.38	13.67
26/01/2020 01:53:34	26012020	260120	015334	252.240	12.418268	-57.609960	252.180	0.100	-0.150	1.390	252.240	-1.500	1.600																			1580003614.0	7.39	13.69
26/01/2020 01:53:35	26012020	260120	015335	252.200	12.418263	-57.609995	252.140	-0.140	-0.170	1.410	252.190	-1.500	1.800																			1580003615.0	7.49	13.87
26/01/2020 01:53:36	26012020	260120	015336	252.140	12.418253	-57.610028	252.070	-0.410	-0.100	1.120	252.140	-1.500	1.700																			1580003616.0	7.60	14.08
26/01/2020 01:53:37	26012020	260120	015337	252.070	12.418243	-57.610063	251.880	-0.600	0.030	0.690	252.040	-1.400	1.300																			1580003617.0	7.55	13.98
26/01/2020 01:53:38	26012020	260120	015338	251.880	12.418230	-57.610095	251.700	-0.580	0.040	0.230	251.840	-1.300	0.900																			1580003618.0	7.42	13.74
26/01/2020 01:53:39	26012020	260120	015339	251.730	12.418215	-57.610127	251.700	-0.350	-0.070	-0.160	251.730	-1.400	0.400																			1580003619.0	7.46	13.82
26/01/2020 01:53:40	26012020	260120	015340	251.790	12.418202	-57.610160	251.810	-0.040	-0.230	-0.350	251.790	-1.500	0.100																			1580003620.0	7.59	14.06
26/01/2020 01:53:41	26012020	260120	015341	251.880	12.418188	-57.610193	251.810	0.250	-0.400	-0.260	251.890	-1.700	0.100																			1580003621.0	7.60	14.08
26/01/2020 01:53:42	26012020	260120	015342	251.820	12.418178	-57.610228	251.650	0.440	-0.450	0.070	251.820	-1.800	0.300																			1580003622.0	7.60	14.08
26/01/2020 01:53:43	26012020	260120	015343	251.670	12.418170	-57.610263	251.460	0.440	-0.250	0.500	251.620	-1.800	0.700																			1580003623.0	7.61	14.09
26/01/2020 01:53:44	26012020	260120	015344	251.430	12.418162	-57.610298	251.350	0.270	0.100	0.840	251.430	-1.400	1.100																			1580003624.0	7.48	13.85
26/01/2020 01:53:45	26012020	260120	015345	251.360	12.418155	-57.610332	251.300	0.040	0.290	1.030	251.350	-1.100	1.300																			1580003625.0	7.25	13.43
26/01/2020 01:53:46	26012020	260120	015346	251.300	12.418147	-57.610365	251.260	-0.080	0.180	1.130	251.300	-1.100	1.500																			1580003626.0	7.22	13.37
26/01/2020 01:53:47	26012020	260120	015347	251.260	12.418138	-57.610398	251.210	-0.050	-0.040	1.070	251.250	-1.300	1.500																			1580003627.0	7.45	13.80
26/01/2020 01:53:48	26012020	260120	015348	251.220	12.418128	-57.610433	251.130	0.040	-0.130	0.830	251.200	-1.500	1.400																			1580003628.0	7.65	14.17
26/01/2020 01:53:49	26012020	260120	015349	251.130	12.418117	-57.610467	250.960	0.070	-0.170	0.500	251.100	-1.500	1.100																			1580003629.0	7.53	13.95
26/01/2020 01:53:50	26012020	260120	015350	250.960	12.418103	-57.610500	250.780	0.000	-0.310	0.110	250.920	-1.600	0.700																			1580003630.0	7.34	13.59
26/01/2020 01:53:51	26012020	260120	015351	250.790	12.418090	-57.610532	250.660	-0.100	-0.520	-0.250	250.790	-1.800	0.300																			1580003631.0	7.34	13.59
26/01/2020 01:53:52	26012020	260120	015352	250.720	12.418077	-57.610563	250.620	-0.150	-0.710	-0.430	250.720	-2.000	0.000																			1580003632.0	7.45	13.80
26/01/2020 01:53:53	26012020	260120	015353	250.680	12.418063	-57.610597	250.540	-0.110	-0.760	-0.300	250.680	-2.100	-0.000																			1580003633.0	7.53	13.95
26/01/2020 01:53:54	26012020	260120	015354	250.610	12.418052	-57.610630	250.520	-0.050	-0.490	0.040	250.610	-2.000	0.300																			1580003634.0	7.61	14.09
26/01/2020 01:53:55	26012020	260120	015355	250.610	12.418042	-57.610665	250.620	-0.060	0.060	0.420	250.630	-1.600	0.600																			1580003635.0	7.57	14.02
26/01/2020 01:53:56	26012020	260120	015356	250.750	12.418033	-57.610698	250.740	-0.110	0.500	0.810	250.750	-1.100	1.000																			1580003636.0	7.35	13.61
26/01/2020 01:53:57	26012020	260120	015357	250.800	12.418025	-57.610732	250.700	-0.090	0.540	1.200	250.800	-0.800	1.400																			1580003637.0	7.22	13.37
26/01/2020 01:53:58	26012020	260120	015358	250.690	12.418017	-57.610767	250.540	0.040	0.260	1.490	250.690	-1.000	1.800																			1580003638.0	7.44	13.78
26/01/2020 01:53:59	26012020	260120	015359	250.530	12.418008	-57.610802	250.320	0.180	-0.030	1.520	250.480	-1.300	1.900	1015.50	25.40	25.40	21.40	21.40	-1.00	78.00	78.00	392.00	24.50	83.00	3.00	32.00	4.60	14	3469.00	27.40	27.40	1580003639.0	7.76	14.37
26/01/2020 01:54:00	26012020	260120	015400	250.310	12.417997	-57.610837	250.160	0.190	-0.190	1.190	250.280	-1.500	1.800																			1580003640.0	7.78	14.41
26/01/2020 01:54:01	26012020	260120	015401	250.180	12.417985	-57.610870	250.080	0.060	-0.290	0.660	250.170	-1.600	1.300																			1580003641.0	7.55	13.98
26/01/2020 01:54:02	26012020	260120	015402	250.130	12.417972	-57.610902	249.980	-0.100	-0.410	0.170	250.110	-1.700	0.800																			1580003642.0	7.36	13.63
26/01/2020 01:54:03	26012020	260120	015403	250.030	12.417958	-57.610933	249.910	-0.150	-0.520	-0.180	250.020	-1.900	0.400																			1580003643.0	7.33	13.58
26/01/2020 01:54:04	26012020	260120	015404	249.980	12.417945	-57.610967	249.970	-0.110	-0.480	-0.410	249.980	-1.900	0.100																			1580003644.0	7.42	13.74
26/01/2020 01:54:05	26012020	260120	015405	250.060	12.417932	-57.610998	250.170	-0.030	-0.250	-0.490	250.100	-1.800	-0.100																			1580003645.0	7.45	13.80
26/01/2020 01:54:06	26012020	260120	015406	250.280	12.417918	-57.611032	250.430	0.060	0.010	-0.420	250.330	-1.500	-0.100																			1580003646.0	7.32	13.56
26/01/2020 01:54:07	26012020	260120	015407	250.530	12.417908	-57.611063	250.630	0.150	0.110	-0.200	250.570	-1.300	0.100																			1580003647.0	7.22	13.37
26/01/2020 01:54:08	26012020	260120	015408	250.710	12.417897	-57.611097	250.680	0.260	0.020	0.190	250.730	-1.300	0.400																			1580003648.0	7.34	13.59
26/01/2020 01:54:09	26012020	260120	015409	250.730	12.417888	-57.611130	250.560	0.310	-0.140	0.670	250.700	-1.400	0.800																			1580003649.0	7.55	13.98
26/01/2020 01:54:10	26012020	260120	015410	250.540	12.417878	-57.611167	250.370	0.220	-0.240	1.090	250.540	-1.600	1.300																			1580003650.0	7.68	14.22
26/01/2020 01:54:11	26012020	260120	015411	250.400	12.417870	-57.611202	250.270	-0.010	-0.280	1.320	250.380	-1.600	1.600																			1580003651.0	7.62	14.11
26/01/2020 01:54:12	26012020	260120	015412	250.300	12.417860	-57.611235	250.210	-0.240	-0.330	1.370	250.300	-1.700	1.800																			1580003652.0	7.49	13.87
26/01/2020 01:54:13	26012020	260120	015413	250.240	12.417850	-57.611268	250.160	-0.340	-0.330	1.160	250.230	-1.700	1.700																			1580003653.0	7.45	13.80
26/01/2020 01:54:14	26012020	260120	015414	250.210	12.417838	-57.611302	250.240	-0.330	-0.180	0.710	250.210	-1.700	1.300																			1580003654.0	7.51	13.91
26/01/2020 01:54:15	26012020	260120	015415	250.310	12.417823	-57.611333	250.460	-0.290	0.050	0.150	250.310	-1.400	0.800																			1580003655.0	7.50	13.89
26/01/2020 01:54:16	26012020	260120	015416	250.560	12.417808	-57.611365	250.630	-0.220	0.120	-0.260	250.610	-1.300	0.300																			1580003656.0	7.38	13.67
26/01/2020 01:54:17	26012020	260120	015417	250.720	12.417793	-57.611397	250.600	-0.060	-0.090	-0.360	250.720	-1.400	0.000																			1580003657.0	7.34	13.59
26/01/2020 01:54:18	26012020	260120	015418	250.660	12.417780	-57.611430	250.480	0.190	-0.330	-0.210	250.640	-1.600	0.100																			1580003658.0	7.56	14.00
26/01/2020 01:54:19	26012020	260120	015419	250.540	12.417768	-57.611465	250.420	0.370	-0.270	0.060	250.520	-1.700	0.300																			1580003659.0	7.78	14.41
26/01/2020 01:54:20	26012020	260120	015420	250.500	12.417758	-57.611500	250.490	0.380	0.010	0.330	250.510	-1.500	0.600																			1580003660.0	7.63	14.13
26/01/2020 01:54:21	26012020	260120	015421	250.560	12.417750	-57.611533	250.580	0.250	0.150	0.550	250.580	-1.300	0.800																			1580003661.0	7.27	13.46
26/01/2020 01:54:22	26012020	260120	015422	250.640	12.417742	-57.611565	250.640	0.070	-0.000	0.730	250.650	-1.300	1.000																			1580003662.0	7.17	13.28
26/01/2020 01:54:23	26012020	260120	015423	250.680	12.417732	-57.611598	250.640	-0.070	-0.200	0.860	250.680	-1.500	1.200																			1580003663.0	7.42	13.74
26/01/2020 01:54:24	26012020	260120	015424	250.670	12.417722	-57.611633	250.630	-0.110	-0.310	0.840	250.670	-1.600	1.300																			1580003664.0	7.59	14.06
26/01/2020 01:54:25	26012020	260120	015425	250.660	12.417710	-57.611667	250.640	-0.050	-0.380	0.640	250.660	-1.700	1.100																			1580003665.0	7.52	13.93
26/01/2020 01:54:26	26012020	260120	015426	250.680	12.417697	-57.611700	250.700	0.040	-0.460	0.310	250.690	-1.800	0.900																			1580003666.0	7.46	13.82
26/01/2020 01:54:27	26012020	260120	015427	250.740	12.417683	-57.611732	250.800	0.070	-0.460	-0.020	250.760	-1.900	0.500																			1580003667.0	7.51	13.91
26/01/2020 01:54:28	26012020	260120	015428	250.890	12.417668	-57.611765	250.930	-0.010	-0.300	-0.220	250.890	-1.800	0.200																			1580003668.0	7.57	14.02
26/01/2020 01:54:29	26012020	260120	015429	251.000	12.417657	-57.611798	251.070	-0.130	-0.020	-0.240	251.030	-1.500	0.100																			1580003669.0	7.49	13.87
26/01/2020 01:54:30	26012020	260120	015430	251.180	12.417645	-57.611832	251.210	-0.190	0.200	-0.140	251.180	-1.300	0.200																			1580003670.0	7.35	13.61
26/01/2020 01:54:31	26012020	260120	015431	251.290	12.417635	-57.611863	251.350	-0.170	0.210	-0.050	251.320	-1.200	0.300																			1580003671.0	7.32	13.56
26/01/2020 01:54:32	26012020	260120	015432	251.450	12.417623	-57.611897	251.450	-0.100	0.020	0.050	251.450	-1.300	0.400																			1580003672.0	7.45	13.80
26/01/2020 01:54:33	26012020	260120	015433	251.510	12.417612	-57.611932	251.420	-0.030	-0.230	0.290	251.510	-1.500	0.500																			1580003673.0	7.61	14.09
26/01/2020 01:54:34	26012020	260120	015434	251.460	12.417600	-57.611965	251.300	0.050	-0.360	0.670	251.430	-1.700	0.900																			1580003674.0	7.71	14.28
26/01/2020 01:54:35	26012020	260120	015435	251.320	12.417588	-57.612000	251.240	0.100	-0.260	1.000	251.300	-1.700	1.200																			1580003675.0	7.67	14.20
26/01/2020 01:54:36	26012020	260120	015436	251.260	12.417580	-57.612033	251.280	0.140	-0.070	1.110	251.260	-1.500	1.500																			1580003676.0	7.46	13.82
26/01/2020 01:54:37	26012020	260120	015437	251.320	12.417570	-57.612067	251.430	0.170	-0.010	0.990	251.350	-1.400	1.500																			1580003677.0	7.27	13.46
26/01/2020 01:54:38	26012020	260120	015438	251.530	12.417560	-57.612100	251.630	0.220	-0.130	0.680	251.530	-1.400	1.200																			1580003678.0	7.29	13.50
26/01/2020 01:54:39	26012020	260120	015439	251.690	12.417548	-57.612133	251.820	0.190	-0.310	0.300	251.740	-1.600	0.900																			1580003679.0	7.48	13.85
26/01/2020 01:54:40	26012020	260120	015440	251.930	12.417537	-57.612168	252.000	0.020	-0.420	-0.120	251.930	-1.800	0.500																			1580003680.0	7.63	14.13
26/01/2020 01:54:41	26012020	260120	015441	252.070	12.417523	-57.612202	252.160	-0.220	-0.330	-0.580	252.110	-1.800	0.000																			1580003681.0	7.66	14.19
26/01/2020 01:54:42	26012020	260120	015442	252.250	12.417510	-57.612233	252.270	-0.380	-0.140	-0.910	252.280	-1.600	-0.400																			1580003682.0	7.52	13.93
26/01/2020 01:54:43	26012020	260120	015443	252.340	12.417497	-57.612267	252.290	-0.340	-0.030	-0.950	252.350	-1.400	-0.600																			1580003683.0	7.37	13.65
26/01/2020 01:54:44	26012020	260120	015444	252.350	12.417483	-57.612298	252.310	-0.160	-0.060	-0.700	252.350	-1.400	-0.500																			1580003684.0	7.37	13.65
26/01/2020 01:54:45	26012020	260120	015445	252.380	12.417472	-57.612332	252.390	0.050	-0.090	-0.240	252.390	-1.500	-0.100																			1580003685.0	7.54	13.96
26/01/2020 01:54:46	26012020	260120	015446	252.470	12.417460	-57.612367	252.480	0.180	-0.060	0.360	252.470	-1.500	0.500																			1580003686.0	7.63	14.13
26/01/2020 01:54:47	26012020	260120	015447	252.530	12.417452	-57.612402	252.590	0.240	0.010	0.900	252.560	-1.400	1.000																			1580003687.0	7.59	14.06
26/01/2020 01:54:48	26012020	260120	015448	252.650	12.417445	-57.612435	252.740	0.210	-0.000	1.220	252.680	-1.400	1.500																			1580003688.0	7.51	13.91
26/01/2020 01:54:49	26012020	260120	015449	252.800	12.417438	-57.612470	252.860	0.140	-0.140	1.280	252.830	-1.400	1.700																			1580003689.0	7.46	13.82
26/01/2020 01:54:50	26012020	260120	015450	252.880	12.417428	-57.612505	252.810	0.050	-0.310	1.140	252.880	-1.600	1.600																			1580003690.0	7.50	13.89
26/01/2020 01:54:51	26012020	260120	015451	252.820	12.417418	-57.612538	252.700	-0.060	-0.350	0.830	252.800	-1.700	1.400																			1580003691.0	7.58	14.04
26/01/2020 01:54:52	26012020	260120	015452	252.730	12.417405	-57.612572	252.710	-0.130	-0.260	0.380	252.720	-1.700	1.000																			1580003692.0	7.54	13.96
26/01/2020 01:54:53	26012020	260120	015453	252.760	12.417393	-57.612605	252.890	-0.080	-0.180	-0.180	252.800	-1.600	0.500																			1580003693.0	7.41	13.72
26/01/2020 01:54:54	26012020	260120	015454	252.990	12.417380	-57.612637	253.210	0.060	-0.210	-0.760	253.060	-1.600	-0.100																			1580003694.0	7.39	13.69
26/01/2020 01:54:55	26012020	260120	015455	253.320	12.417367	-57.612670	253.510	0.150	-0.310	-1.100	253.390	-1.600	-0.600																			1580003695.0	7.50	13.89
26/01/2020 01:54:56	26012020	260120	015456	253.620	12.417353	-57.612703	253.690	0.100	-0.330	-0.990	253.660	-1.700	-0.700																			1580003696.0	7.67	14.20
26/01/2020 01:54:57	26012020	260120	015457	253.790	12.417342	-57.612738	253.780	-0.050	-0.140	-0.530	253.810	-1.600	-0.400																			1580003697.0	7.70	14.26
26/01/2020 01:54:58	26012020	260120	015458	253.890	12.417333	-57.612773	253.830	-0.150	0.130	0.050	253.890	-1.400	0.200																			1580003698.0	7.55	13.98
26/01/2020 01:54:59	26012020	260120	015459	253.910	12.417325	-57.612807	253.820	-0.130	0.230	0.530	253.910	-1.200	0.700	1015.50	25.40	25.40	21.40	21.40	-1.00	78.00	78.00	392.00	24.50	85.00	3.20	30.00	4.80	14	3377.00	27.40	27.40	1580003699.0	7.37	13.65
26/01/2020 01:55:00	26012020	260120	015500	253.860	12.417318	-57.612840	253.750	-0.050	0.070	0.830	253.860	-1.200	1.100																			1580003700.0	7.36	13.63
26/01/2020 01:55:01	26012020	260120	015501	253.790	12.417310	-57.612875	253.650	0.010	-0.250	0.950	253.770	-1.500	1.300																			1580003701.0	7.54	13.96
26/01/2020 01:55:02	26012020	260120	015502	253.700	12.417300	-57.612910	253.630	0.010	-0.450	0.880	253.690	-1.800	1.300																			1580003702.0	7.75	14.35
26/01/2020 01:55:03	26012020	260120	015503	253.700	12.417288	-57.612945	253.790	-0.050	-0.320	0.620	253.730	-1.800	1.200																			1580003703.0	7.75	14.35
26/01/2020 01:55:04	26012020	260120	015504	253.970	12.417278	-57.612978	254.140	-0.090	-0.080	0.260	253.970	-1.600	0.800																			1580003704.0	7.49	13.87
26/01/2020 01:55:05	26012020	260120	015505	254.290	12.417265	-57.613010	254.550	-0.030	-0.000	-0.090	254.370	-1.400	0.500																			1580003705.0	7.20	13.33
26/01/2020 01:55:06	26012020	260120	015506	254.750	12.417253	-57.613043	254.820	0.130	-0.170	-0.250	254.750	-1.500	0.200																			1580003706.0	7.25	13.43
26/01/2020 01:55:07	26012020	260120	015507	254.920	12.417243	-57.613077	254.910	0.250	-0.330	-0.240	254.920	-1.700	0.100																			1580003707.0	7.54	13.96
26/01/2020 01:55:08	26012020	260120	015508	254.980	12.417232	-57.613112	254.950	0.250	-0.310	-0.250	254.980	-1.700	0.200																			1580003708.0	7.74	14.33
26/01/2020 01:55:09	26012020	260120	015509	255.010	12.417223	-57.613147	254.960	0.130	-0.140	-0.280	255.010	-1.600	0.100																			1580003709.0	7.65	14.17
26/01/2020 01:55:10	26012020	260120	015510	255.010	12.417213	-57.613180	254.960	0.010	-0.080	-0.310	255.010	-1.500	0.100																			1580003710.0	7.42	13.74
26/01/2020 01:55:11	26012020	260120	015511	255.020	12.417203	-57.613213	255.000	-0.080	-0.150	-0.250	255.020	-1.500	0.100																			1580003711.0	7.39	13.69
26/01/2020 01:55:12	26012020	260120	015512	255.080	12.417195	-57.613248	255.080	-0.120	-0.240	-0.090	255.080	-1.600	0.200																			1580003712.0	7.55	13.98
26/01/2020 01:55:13	26012020	260120	015513	255.140	12.417185	-57.613283	255.220	-0.130	-0.250	0.110	255.160	-1.600	0.400																			1580003713.0	7.61	14.09
26/01/2020 01:55:14	26012020	260120	015514	255.310	12.417175	-57.613318	255.490	-0.140	-0.140	0.310	255.360	-1.600	0.600																			1580003714.0	7.59	14.06
26/01/2020 01:55:15	26012020	260120	015515	255.570	12.417167	-57.613352	255.740	-0.150	0.000	0.540	255.630	-1.400	0.800																			1580003715.0	7.49	13.87
26/01/2020 01:55:16	26012020	260120	015516	255.830	12.417158	-57.613387	255.880	-0.140	0.010	0.670	255.830	-1.400	1.000																			1580003716.0	7.40	13.70
26/01/2020 01:55:17	26012020	260120	015517	255.920	12.417150	-57.613420	255.950	-0.080	-0.050	0.610	255.930	-1.400	1.100																			1580003717.0	7.45	13.80
26/01/2020 01:55:18	26012020	260120	015518	255.980	12.417140	-57.613455	256.060	0.020	-0.070	0.350	256.000	-1.500	0.900																			1580003718.0	7.57	14.02
26/01/2020 01:55:19	26012020	260120	015519	256.090	12.417130	-57.613488	256.230	0.120	-0.090	-0.030	256.090	-1.500	0.600																			1580003719.0	7.58	14.04
26/01/2020 01:55:20	26012020	260120	015520	256.330	12.417118	-57.613522	256.420	0.220	-0.270	-0.350	256.330	-1.500	0.200																			1580003720.0	7.50	13.89
26/01/2020 01:55:21	26012020	260120	015521	256.500	12.417107	-57.613557	256.610	0.300	-0.540	-0.440	256.540	-1.800	-0.000																			1580003721.0	7.53	13.95
26/01/2020 01:55:22	26012020	260120	015522	256.720	12.417097	-57.613592	256.800	0.290	-0.570	-0.320	256.720	-2.000	-0.000																			1580003722.0	7.70	14.26
26/01/2020 01:55:23	26012020	260120	015523	256.880	12.417088	-57.613627	256.980	0.100	-0.210	-0.070	256.920	-1.800	0.200																			1580003723.0	7.72	14.30
26/01/2020 01:55:24	26012020	260120	015524	257.090	12.417080	-57.613660	257.140	-0.200	0.260	0.170	257.090	-1.300	0.500																			1580003724.0	7.37	13.65
26/01/2020 01:55:25	26012020	260120	015525	257.200	12.417073	-57.613693	257.210	-0.410	0.400	0.280	257.210	-1.000	0.600																			1580003725.0	7.07	13.09
26/01/2020 01:55:26	26012020	260120	015526	257.260	12.417065	-57.613727	257.220	-0.380	0.120	0.210	257.260	-1.100	0.700																			1580003726.0	7.16	13.26
26/01/2020 01:55:27	26012020	260120	015527	257.260	12.417055	-57.613760	257.250	-0.160	-0.310	0.020	257.260	-1.500	0.500																			1580003727.0	7.57	14.02
26/01/2020 01:55:28	26012020	260120	015528	257.310	12.417045	-57.613797	257.410	0.100	-0.580	-0.250	257.340	-1.900	0.300																			1580003728.0	7.90	14.63
26/01/2020 01:55:29	26012020	260120	015529	257.490	12.417035	-57.613832	257.680	0.240	-0.610	-0.440	257.540	-2.000	0.000																			1580003729.0	7.87	14.58
26/01/2020 01:55:30	26012020	260120	015530	257.770	12.417025	-57.613867	257.980	0.250	-0.440	-0.490	257.830	-1.900	-0.100																			1580003730.0	7.64	14.15
26/01/2020 01:55:31	26012020	260120	015531	258.070	12.417017	-57.613902	258.200	0.160	-0.200	-0.400	258.070	-1.700	-0.100																			1580003731.0	7.44	13.78
26/01/2020 01:55:32	26012020	260120	015532	258.270	12.417010	-57.613935	258.260	0.030	0.030	-0.130	258.280	-1.500	0.100																			1580003732.0	7.37	13.65
26/01/2020 01:55:33	26012020	260120	015533	258.290	12.417002	-57.613970	258.230	-0.130	0.210	0.210	258.280	-1.300	0.400																			1580003733.0	7.41	13.72
26/01/2020 01:55:34	26012020	260120	015534	258.260	12.416995	-57.614003	258.280	-0.270	0.310	0.440	258.260	-1.100	0.700																			1580003734.0	7.47	13.83
26/01/2020 01:55:35	26012020	260120	015535	258.300	12.416988	-57.614038	258.320	-0.310	0.220	0.450	258.310	-1.100	0.900																			1580003735.0	7.46	13.82
26/01/2020 01:55:36	26012020	260120	015536	258.350	12.416982	-57.614073	258.310	-0.200	-0.100	0.350	258.350	-1.300	0.800																			1580003736.0	7.46	13.82
26/01/2020 01:55:37	26012020	260120	015537	258.320	12.416972	-57.614108	258.260	-0.010	-0.400	0.210	258.310	-1.700	0.700																			1580003737.0	7.64	14.15
26/01/2020 01:55:38	26012020	260120	015538	258.290	12.416963	-57.614143	258.340	0.130	-0.420	-0.010	258.290	-1.800	0.500																			1580003738.0	7.76	14.37
26/01/2020 01:55:39	26012020	260120	015539	258.390	12.416952	-57.614178	258.540	0.170	-0.280	-0.260	258.430	-1.700	0.300																			1580003739.0	7.58	14.04
26/01/2020 01:55:40	26012020	260120	015540	258.670	12.416943	-57.614210	258.790	0.190	-0.260	-0.410	258.670	-1.600	0.000																			1580003740.0	7.30	13.52
26/01/2020 01:55:41	26012020	260120	015541	258.870	12.416935	-57.614245	258.970	0.240	-0.350	-0.330	258.910	-1.700	0.000																			1580003741.0	7.31	13.54
26/01/2020 01:55:42	26012020	260120	015542	259.060	12.416927	-57.614280	259.060	0.290	-0.320	-0.120	259.060	-1.700	0.200																			1580003742.0	7.55	13.98
26/01/2020 01:55:43	26012020	260120	015543	259.130	12.416922	-57.614315	259.050	0.230	-0.120	0.150	259.130	-1.600	0.400																			1580003743.0	7.64	14.15
26/01/2020 01:55:44	26012020	260120	015544	259.110	12.416917	-57.614350	258.980	0.010	0.060	0.360	259.090	-1.400	0.700																			1580003744.0	7.51	13.91
26/01/2020 01:55:45	26012020	260120	015545	259.030	12.416910	-57.614385	258.910	-0.270	0.070	0.390	259.020	-1.300	0.800																			1580003745.0	7.38	13.67
26/01/2020 01:55:46	26012020	260120	015546	258.970	12.416902	-57.614418	258.860	-0.460	-0.060	0.290	258.950	-1.400	0.700																			1580003746.0	7.45	13.80
26/01/2020 01:55:47	26012020	260120	015547	258.930	12.416893	-57.614453	258.870	-0.440	-0.230	0.130	258.930	-1.500	0.600																			1580003747.0	7.59	14.06
26/01/2020 01:55:48	26012020	260120	015548	258.950	12.416883	-57.614488	258.950	-0.260	-0.310	-0.100	258.960	-1.700	0.400																			1580003748.0	7.67	14.20
26/01/2020 01:55:49	26012020	260120	015549	259.050	12.416875	-57.614523	259.120	-0.040	-0.230	-0.320	259.080	-1.700	0.200																			1580003749.0	7.67	14.20
26/01/2020 01:55:50	26012020	260120	015550	259.220	12.416865	-57.614558	259.320	0.130	-0.100	-0.430	259.260	-1.500	-0.000																			1580003750.0	7.55	13.98
26/01/2020 01:55:51	26012020	260120	015551	259.420	12.416857	-57.614592	259.520	0.240	-0.070	-0.350	259.470	-1.500	-0.000																			1580003751.0	7.43	13.76
26/01/2020 01:55:52	26012020	260120	015552	259.610	12.416850	-57.614627	259.630	0.300	-0.160	-0.050	259.640	-1.500	0.200																			1580003752.0	7.46	13.82
26/01/2020 01:55:53	26012020	260120	015553	259.700	12.416845	-57.614662	259.590	0.310	-0.250	0.340	259.700	-1.600	0.500																			1580003753.0	7.59	14.06
26/01/2020 01:55:54	26012020	260120	015554	259.630	12.416840	-57.614698	259.470	0.220	-0.240	0.680	259.630	-1.700	0.900																			1580003754.0	7.67	14.20
26/01/2020 01:55:55	26012020	260120	015555	259.520	12.416835	-57.614733	259.310	0.030	-0.100	0.860	259.520	-1.600	1.200																			1580003755.0	7.61	14.09
26/01/2020 01:55:56	26012020	260120	015556	259.370	12.416828	-57.614768	259.230	-0.130	0.080	0.800	259.350	-1.400	1.300																			1580003756.0	7.46	13.82
26/01/2020 01:55:57	26012020	260120	015557	259.310	12.416823	-57.614803	259.270	-0.170	0.160	0.480	259.320	-1.300	1.100																			1580003757.0	7.34	13.59
26/01/2020 01:55:58	26012020	260120	015558	259.390	12.416815	-57.614837	259.390	-0.080	-0.010	0.000	259.390	-1.300	0.600																			1580003758.0	7.31	13.54
26/01/2020 01:55:59	26012020	260120	015559	259.500	12.416805	-57.614870	259.540	-0.010	-0.330	-0.410	259.530	-1.600	0.200	1015.50	25.40	25.40	21.40	21.40	-1.00	78.00	78.00	392.00	24.50	85.00	3.60	32.00	5.00	14	3336.00	27.40	27.40	1580003759.0	7.49	13.87
26/01/2020 01:56:00	26012020	260120	015600	259.660	12.416795	-57.614905	259.680	-0.060	-0.560	-0.560	259.700	-1.900	-0.100																			1580003760.0	7.75	14.35
26/01/2020 01:56:01	26012020	260120	015601	259.810	12.416785	-57.614942	259.820	-0.140	-0.490	-0.490	259.830	-2.000	-0.100																			1580003761.0	7.79	14.43
26/01/2020 01:56:02	26012020	260120	015602	259.930	12.416778	-57.614977	259.950	-0.100	-0.190	-0.370	259.950	-1.700	-0.000																			1580003762.0	7.59	14.06
26/01/2020 01:56:03	26012020	260120	015603	260.050	12.416772	-57.615010	260.030	0.040	0.030	-0.230	260.070	-1.400	0.100																			1580003763.0	7.33	13.58
26/01/2020 01:56:04	26012020	260120	015604	260.090	12.416765	-57.615043	259.960	0.210	-0.070	0.070	260.090	-1.400	0.300																			1580003764.0	7.26	13.45
26/01/2020 01:56:05	26012020	260120	015605	260.000	12.416760	-57.615078	259.800	0.270	-0.310	0.520	259.970	-1.600	0.700																			1580003765.0	7.51	13.91
26/01/2020 01:56:06	26012020	260120	015606	259.830	12.416753	-57.615115	259.680	0.180	-0.370	0.930	259.800	-1.800	1.100																			1580003766.0	7.83	14.50
26/01/2020 01:56:07	26012020	260120	015607	259.720	12.416750	-57.615152	259.620	0.010	-0.240	1.150	259.700	-1.700	1.500																			1580003767.0	7.80	14.45
26/01/2020 01:56:08	26012020	260120	015608	259.670	12.416745	-57.615188	259.640	-0.100	-0.050	1.110	259.670	-1.500	1.500																			1580003768.0	7.57	14.02
26/01/2020 01:56:09	26012020	260120	015609	259.720	12.416742	-57.615223	259.780	-0.140	0.160	0.810	259.750	-1.300	1.400																			1580003769.0	7.46	13.82
26/01/2020 01:56:10	26012020	260120	015610	259.910	12.416735	-57.615257	259.920	-0.150	0.270	0.350	259.910	-1.200	1.000																			1580003770.0	7.43	13.76
26/01/2020 01:56:11	26012020	260120	015611	259.990	12.416725	-57.615292	259.910	-0.150	0.140	-0.090	260.000	-1.200	0.500																			1580003771.0	7.43	13.76
26/01/2020 01:56:12	26012020	260120	015612	259.970	12.416715	-57.615325	259.840	-0.150	-0.160	-0.490	259.950	-1.400	0.100																			1580003772.0	7.57	14.02
26/01/2020 01:56:13	26012020	260120	015613	259.910	12.416705	-57.615360	259.860	-0.150	-0.350	-0.830	259.910	-1.700	-0.300																			1580003773.0	7.76	14.37
26/01/2020 01:56:14	26012020	260120	015614	259.970	12.416695	-57.615397	259.920	-0.090	-0.360	-0.950	259.970	-1.800	-0.500																			1580003774.0	7.74	14.33
26/01/2020 01:56:15	26012020	260120	015615	260.010	12.416687	-57.615430	259.920	0.110	-0.420	-0.750	260.010	-1.800	-0.500																			1580003775.0	7.48	13.85
26/01/2020 01:56:16	26012020	260120	015616	259.970	12.416680	-57.615465	259.850	0.380	-0.510	-0.280	259.970	-1.900	-0.200																			1580003776.0	7.40	13.70
26/01/2020 01:56:17	26012020	260120	015617	259.900	12.416675	-57.615500	259.790	0.500	-0.440	0.330	259.880	-1.900	0.400																			1580003777.0	7.59	14.06
26/01/2020 01:56:18	26012020	260120	015618	259.830	12.416672	-57.615537	259.800	0.330	-0.140	0.920	259.830	-1.700	1.000																			1580003778.0	7.65	14.17
26/01/2020 01:56:19	26012020	260120	015619	259.860	12.416668	-57.615572	259.830	-0.040	0.200	1.420	259.870	-1.300	1.600																			1580003779.0	7.47	13.83
26/01/2020 01:56:20	26012020	260120	015620	259.860	12.416667	-57.615607	259.770	-0.330	0.290	1.600	259.860	-1.100	1.900																			1580003780.0	7.32	13.56
26/01/2020 01:56:21	26012020	260120	015621	259.780	12.416663	-57.615640	259.690	-0.380	0.120	1.280	259.770	-1.200	1.900																			1580003781.0	7.36	13.63
26/01/2020 01:56:22	26012020	260120	015622	259.720	12.416657	-57.615677	259.680	-0.250	-0.130	0.540	259.720	-1.400	1.300																			1580003782.0	7.64	14.15
26/01/2020 01:56:23	26012020	260120	015623	259.750	12.416645	-57.615712	259.730	-0.080	-0.300	-0.250	259.750	-1.600	0.500																			1580003783.0	7.85	14.54
26/01/2020 01:56:24	26012020	260120	015624	259.820	12.416633	-57.615747	259.760	0.010	-0.400	-0.760	259.830	-1.800	-0.200																			1580003784.0	7.85	14.54
26/01/2020 01:56:25	26012020	260120	015625	259.850	12.416622	-57.615782	259.700	0.070	-0.420	-0.830	259.840	-1.800	-0.500																			1580003785.0	7.70	14.26
26/01/2020 01:56:26	26012020	260120	015626	259.760	12.416613	-57.615815	259.620	0.130	-0.400	-0.570	259.760	-1.800	-0.300																			1580003786.0	7.57	14.02
26/01/2020 01:56:27	26012020	260120	015627	259.710	12.416607	-57.615852	259.610	0.160	-0.360	-0.160	259.700	-1.800	0.000																			1580003787.0	7.53	13.95
26/01/2020 01:56:28	26012020	260120	015628	259.690	12.416603	-57.615887	259.600	0.150	-0.250	0.270	259.690	-1.700	0.400																			1580003788.0	7.57	14.02
26/01/2020 01:56:29	26012020	260120	015629	259.660	12.416600	-57.615922	259.520	0.060	-0.090	0.640	259.650	-1.600	0.900																			1580003789.0	7.58	14.04
26/01/2020 01:56:30	26012020	260120	015630	259.530	12.416597	-57.615958	259.390	-0.120	0.160	0.860	259.530	-1.400	1.200																			1580003790.0	7.57	14.02
26/01/2020 01:56:31	26012020	260120	015631	259.420	12.416590	-57.615993	259.260	-0.360	0.390	0.870	259.390	-1.100	1.300																			1580003791.0	7.52	13.93
26/01/2020 01:56:32	26012020	260120	015632	259.270	12.416583	-57.616027	259.150	-0.470	0.440	0.710	259.270	-0.900	1.200																			1580003792.0	7.40	13.70
26/01/2020 01:56:33	26012020	260120	015633	259.190	12.416577	-57.616062	259.050	-0.270	0.210	0.480	259.160	-1.000	1.000																			1580003793.0	7.40	13.70
26/01/2020 01:56:34	26012020	260120	015634	259.070	12.416568	-57.616097	258.960	0.170	-0.200	0.250	259.070	-1.400	0.700																			1580003794.0	7.54	13.96
26/01/2020 01:56:35	26012020	260120	015635	259.020	12.416560	-57.616132	258.980	0.530	-0.610	0.060	259.020	-1.800	0.500																			1580003795.0	7.73	14.32
26/01/2020 01:56:36	26012020	260120	015636	259.050	12.416552	-57.616168	259.080	0.540	-0.820	-0.010	259.080	-2.100	0.400																			1580003796.0	7.81	14.46
26/01/2020 01:56:37	26012020	260120	015637	259.160	12.416543	-57.616203	259.120	0.290	-0.760	0.060	259.170	-2.200	0.400																			1580003797.0	7.67	14.20
26/01/2020 01:56:38	26012020	260120	015638	259.160	12.416538	-57.616238	259.020	0.030	-0.460	0.210	259.160	-2.000	0.500																			1580003798.0	7.46	13.82
26/01/2020 01:56:39	26012020	260120	015639	259.070	12.416533	-57.616272	258.890	-0.110	-0.100	0.260	259.040	-1.700	0.600																			1580003799.0	7.31	13.54
26/01/2020 01:56:40	26012020	260120	015640	258.930	12.416527	-57.616307	258.820	-0.190	0.180	0.210	258.930	-1.300	0.600																			1580003800.0	7.30	13.52
26/01/2020 01:56:41	26012020	260120	015641	258.880	12.416520	-57.616340	258.760	-0.260	0.230	0.170	258.870	-1.200	0.600																			1580003801.0	7.39	13.69
26/01/2020 01:56:42	26012020	260120	015642	258.800	12.416513	-57.616375	258.640	-0.290	0.080	0.290	258.800	-1.200	0.600																			1580003802.0	7.56	14.00
26/01/2020 01:56:43	26012020	260120	015643	258.680	12.416507	-57.616412	258.490	-0.210	-0.130	0.480	258.650	-1.400	0.800																			1580003803.0	7.75	14.35
26/01/2020 01:56:44	26012020	260120	015644	258.490	12.416498	-57.616448	258.390	-0.100	-0.220	0.590	258.490	-1.600	0.900																			1580003804.0	7.85	14.54
26/01/2020 01:56:45	26012020	260120	015645	258.420	12.416492	-57.616483	258.300	-0.010	-0.140	0.570	258.400	-1.600	1.000																			1580003805.0	7.76	14.37
26/01/2020 01:56:46	26012020	260120	015646	258.330	12.416485	-57.616518	258.220	0.050	-0.060	0.460	258.320	-1.500	0.900																			1580003806.0	7.51	13.91
26/01/2020 01:56:47	26012020	260120	015647	258.250	12.416478	-57.616553	258.140	0.090	-0.030	0.340	258.250	-1.400	0.800																			1580003807.0	7.39	13.69
26/01/2020 01:56:48	26012020	260120	015648	258.170	12.416472	-57.616587	258.090	0.110	-0.060	0.230	258.160	-1.400	0.700																			1580003808.0	7.41	13.72
26/01/2020 01:56:49	26012020	260120	015649	258.130	12.416463	-57.616622	258.050	0.080	-0.170	0.180	258.120	-1.500	0.600																			1580003809.0	7.45	13.80
26/01/2020 01:56:50	26012020	260120	015650	258.080	12.416457	-57.616657	257.960	0.020	-0.330	0.200	258.070	-1.600	0.600																			1580003810.0	7.49	13.87
26/01/2020 01:56:51	26012020	260120	015651	257.990	12.416448	-57.616692	257.870	-0.020	-0.420	0.250	257.970	-1.800	0.600																			1580003811.0	7.57	14.02
26/01/2020 01:56:52	26012020	260120	015652	257.910	12.416442	-57.616727	257.820	-0.000	-0.330	0.300	257.890	-1.800	0.700																			1580003812.0	7.60	14.08
26/01/2020 01:56:53	26012020	260120	015653	257.850	12.416435	-57.616762	257.770	0.060	-0.220	0.360	257.840	-1.700	0.700																			1580003813.0	7.50	13.89
26/01/2020 01:56:54	26012020	260120	015654	257.780	12.416428	-57.616795	257.710	0.120	-0.180	0.410	257.780	-1.600	0.800																			1580003814.0	7.40	13.70
26/01/2020 01:56:55	26012020	260120	015655	257.720	12.416422	-57.616830	257.640	0.150	-0.130	0.450	257.710	-1.600	0.800																			1580003815.0	7.52	13.93
26/01/2020 01:56:56	26012020	260120	015656	257.650	12.416415	-57.616867	257.530	0.090	0.050	0.510	257.630	-1.400	0.900																			1580003816.0	7.61	14.09
26/01/2020 01:56:57	26012020	260120	015657	257.520	12.416408	-57.616902	257.350	-0.040	0.210	0.600	257.480	-1.200	0.900																			1580003817.0	7.53	13.95
26/01/2020 01:56:58	26012020	260120	015658	257.320	12.416402	-57.616935	257.140	-0.150	0.180	0.670	257.280	-1.200	1.000																			1580003818.0	7.39	13.69
26/01/2020 01:56:59	26012020	260120	015659	257.120	12.416393	-57.616970	257.000	-0.140	-0.040	0.640	257.120	-1.300	1.100	1015.50	25.40	25.40	21.40	21.40	-1.00	79.00	78.00	392.00	24.50	79.00	3.80	29.00	4.90	14	3403.00	27.40	27.40	1580003819.0	7.42	13.74
26/01/2020 01:57:00	26012020	260120	015700	256.970	12.416387	-57.617005	256.950	-0.060	-0.310	0.420	256.970	-1.600	0.900																			1580003820.0	7.58	14.04
26/01/2020 01:57:01	26012020	260120	015701	256.970	12.416378	-57.617040	257.000	-0.020	-0.580	0.080	256.980	-1.900	0.600																			1580003821.0	7.65	14.17
26/01/2020 01:57:02	26012020	260120	015702	257.020	12.416368	-57.617075	257.030	-0.030	-0.750	-0.200	257.030	-2.100	0.300																			1580003822.0	7.66	14.19
26/01/2020 01:57:03	26012020	260120	015703	257.040	12.416358	-57.617110	257.010	-0.050	-0.680	-0.330	257.040	-2.100	0.100																			1580003823.0	7.67	14.20
26/01/2020 01:57:04	26012020	260120	015704	257.030	12.416350	-57.617145	256.960	-0.060	-0.340	-0.260	257.020	-1.900	0.100																			1580003824.0	7.63	14.13
26/01/2020 01:57:05	26012020	260120	015705	256.970	12.416342	-57.617178	256.840	-0.110	0.120	-0.010	256.950	-1.500	0.200																			1580003825.0	7.47	13.83
26/01/2020 01:57:06	26012020	260120	015706	256.830	12.416335	-57.617213	256.640	-0.170	0.430	0.340	256.790	-1.100	0.600																			1580003826.0	7.34	13.59
26/01/2020 01:57:07	26012020	260120	015707	256.610	12.416328	-57.617247	256.390	-0.160	0.500	0.690	256.560	-0.900	0.900																			1580003827.0	7.38	13.67
26/01/2020 01:57:08	26012020	260120	015708	256.380	12.416323	-57.617282	256.190	-0.060	0.360	0.990	256.330	-0.900	1.200																			1580003828.0	7.54	13.96
26/01/2020 01:57:09	26012020	260120	015709	256.180	12.416317	-57.617318	256.010	0.090	0.130	1.170	256.140	-1.100	1.500																			1580003829.0	7.66	14.19
26/01/2020 01:57:10	26012020	260120	015710	255.960	12.416310	-57.617353	255.860	0.230	-0.130	1.140	255.960	-1.400	1.600																			1580003830.0	7.66	14.19
26/01/2020 01:57:11	26012020	260120	015711	255.860	12.416302	-57.617388	255.790	0.280	-0.420	0.900	255.860	-1.700	1.400																			1580003831.0	7.56	14.00
26/01/2020 01:57:12	26012020	260120	015712	255.810	12.416293	-57.617423	255.790	0.240	-0.700	0.540	255.810	-2.000	1.100																			1580003832.0	7.49	13.87
26/01/2020 01:57:13	26012020	260120	015713	255.840	12.416285	-57.617457	255.850	0.160	-0.840	0.120	255.840	-2.200	0.700																			1580003833.0	7.51	13.91
26/01/2020 01:57:14	26012020	260120	015714	255.910	12.416275	-57.617492	255.850	0.080	-0.790	-0.220	255.910	-2.200	0.300																			1580003834.0	7.53	13.95
26/01/2020 01:57:15	26012020	260120	015715	255.910	12.416265	-57.617525	255.830	-0.040	-0.550	-0.400	255.910	-2.100	0.100																			1580003835.0	7.53	13.95
26/01/2020 01:57:16	26012020	260120	015716	255.880	12.416255	-57.617560	255.820	-0.210	-0.160	-0.390	255.880	-1.800	-0.000																			1580003836.0	7.51	13.91
26/01/2020 01:57:17	26012020	260120	015717	255.890	12.416245	-57.617593	255.890	-0.370	0.290	-0.240	255.900	-1.300	0.100																			1580003837.0	7.49	13.87
26/01/2020 01:57:18	26012020	260120	015718	255.980	12.416237	-57.617628	255.950	-0.430	0.580	0.030	255.980	-0.900	0.300																			1580003838.0	7.44	13.78
26/01/2020 01:57:19	26012020	260120	015719	255.980	12.416230	-57.617662	255.800	-0.320	0.540	0.440	255.970	-0.800	0.600																			1580003839.0	7.44	13.78
26/01/2020 01:57:20	26012020	260120	015720	255.790	12.416223	-57.617698	255.450	-0.110	0.230	0.970	255.720	-1.000	1.100																			1580003840.0	7.59	14.06
26/01/2020 01:57:21	26012020	260120	015721	255.400	12.416217	-57.617733	255.050	0.050	-0.070	1.410	255.310	-1.300	1.600																			1580003841.0	7.80	14.45
26/01/2020 01:57:22	26012020	260120	015722	254.940	12.416210	-57.617770	254.780	0.100	-0.280	1.510	254.940	-1.600	1.900																			1580003842.0	7.80	14.45
26/01/2020 01:57:23	26012020	260120	015723	254.790	12.416202	-57.617805	254.740	0.100	-0.460	1.240	254.770	-1.800	1.800																			1580003843.0	7.57	14.02
26/01/2020 01:57:24	26012020	260120	015724	254.790	12.416193	-57.617838	254.860	0.160	-0.610	0.740	254.810	-1.900	1.400																			1580003844.0	7.41	13.72
26/01/2020 01:57:25	26012020	260120	015725	254.930	12.416183	-57.617873	255.070	0.300	-0.640	0.150	254.980	-2.000	0.800																			1580003845.0	7.44	13.78
26/01/2020 01:57:26	26012020	260120	015726	255.170	12.416172	-57.617907	255.290	0.370	-0.490	-0.350	255.220	-2.000	0.300																			1580003846.0	7.51	13.91
26/01/2020 01:57:27	26012020	260120	015727	255.400	12.416162	-57.617940	255.390	0.280	-0.240	-0.600	255.420	-1.800	-0.100																			1580003847.0	7.48	13.85
26/01/2020 01:57:28	26012020	260120	015728	255.460	12.416152	-57.617973	255.310	0.040	0.030	-0.510	255.460	-1.500	-0.200																			1580003848.0	7.45	13.80
26/01/2020 01:57:29	26012020	260120	015729	255.350	12.416142	-57.618008	255.110	-0.210	0.270	-0.130	255.310	-1.200	0.100																			1580003849.0	7.46	13.82
26/01/2020 01:57:30	26012020	260120	015730	255.140	12.416135	-57.618042	254.950	-0.370	0.380	0.280	255.100	-1.100	0.500																			1580003850.0	7.47	13.83
26/01/2020 01:57:31	26012020	260120	015731	254.980	12.416128	-57.618077	254.850	-0.360	0.250	0.520	254.960	-1.100	0.800																			1580003851.0	7.47	13.83
26/01/2020 01:57:32	26012020	260120	015732	254.850	12.416120	-57.618112	254.740	-0.200	-0.110	0.600	254.850	-1.300	1.000																			1580003852.0	7.53	13.95
26/01/2020 01:57:33	26012020	260120	015733	254.740	12.416112	-57.618147	254.570	0.000	-0.500	0.620	254.710	-1.700	1.000																			1580003853.0	7.68	14.22
26/01/2020 01:57:34	26012020	260120	015734	254.530	12.416102	-57.618182	254.410	0.140	-0.660	0.620	254.530	-2.000	1.000																			1580003854.0	7.80	14.45
26/01/2020 01:57:35	26012020	260120	015735	254.440	12.416092	-57.618217	254.380	0.140	-0.540	0.660	254.440	-2.000	1.000																			1580003855.0	7.71	14.28
26/01/2020 01:57:36	26012020	260120	015736	254.420	12.416082	-57.618252	254.450	0.060	-0.280	0.790	254.430	-1.800	1.100																			1580003856.0	7.49	13.87
26/01/2020 01:57:37	26012020	260120	015737	254.510	12.416073	-57.618285	254.580	-0.020	-0.040	0.910	254.510	-1.500	1.200																			1580003857.0	7.34	13.59
26/01/2020 01:57:38	26012020	260120	015738	254.680	12.416067	-57.618320	254.720	-0.000	0.090	0.860	254.680	-1.400	1.300																			1580003858.0	7.36	13.63
26/01/2020 01:57:39	26012020	260120	015739	254.790	12.416060	-57.618353	254.840	0.050	0.070	0.590	254.820	-1.300	1.100																			1580003859.0	7.47	13.83
26/01/2020 01:57:40	26012020	260120	015740	254.900	12.416050	-57.618388	254.860	0.020	-0.020	0.210	254.910	-1.400	0.800																			1580003860.0	7.60	14.08
26/01/2020 01:57:41	26012020	260120	015741	254.900	12.416038	-57.618423	254.740	-0.090	-0.130	-0.110	254.880	-1.500	0.400																			1580003861.0	7.69	14.24
26/01/2020 01:57:42	26012020	260120	015742	254.750	12.416027	-57.618457	254.470	-0.160	-0.140	-0.250	254.700	-1.500	0.200																			1580003862.0	7.69	14.24
26/01/2020 01:57:43	26012020	260120	015743	254.490	12.416015	-57.618492	254.220	-0.070	-0.050	-0.270	254.430	-1.500	0.100																			1580003863.0	7.59	14.06
26/01/2020 01:57:44	26012020	260120	015744	254.260	12.416005	-57.618525	254.120	0.130	0.080	-0.220	254.230	-1.400	0.100																			1580003864.0	7.46	13.82
26/01/2020 01:57:45	26012020	260120	015745	254.190	12.415995	-57.618558	254.160	0.320	0.030	-0.010	254.190	-1.300	0.300																			1580003865.0	7.34	13.59
26/01/2020 01:57:46	26012020	260120	015746	254.240	12.415987	-57.618592	254.210	0.410	-0.310	0.420	254.240	-1.500	0.600																			1580003866.0	7.33	13.58
26/01/2020 01:57:47	26012020	260120	015747	254.260	12.415980	-57.618627	254.260	0.390	-0.700	0.960	254.260	-1.900	1.100																			1580003867.0	7.60	14.08
26/01/2020 01:57:48	26012020	260120	015748	254.300	12.415973	-57.618665	254.350	0.210	-0.710	1.310	254.310	-2.200	1.600																			1580003868.0	7.91	14.65
26/01/2020 01:57:49	26012020	260120	015749	254.380	12.415968	-57.618700	254.490	-0.060	-0.330	1.260	254.380	-1.900	1.700																			1580003869.0	7.79	14.43
26/01/2020 01:57:50	26012020	260120	015750	254.520	12.415960	-57.618735	254.600	-0.280	0.060	0.870	254.550	-1.500	1.500																			1580003870.0	7.36	13.63
26/01/2020 01:57:51	26012020	260120	015751	254.640	12.415950	-57.618767	254.670	-0.370	0.160	0.290	254.660	-1.200	1.000																			1580003871.0	7.17	13.28
26/01/2020 01:57:52	26012020	260120	015752	254.710	12.415938	-57.618800	254.640	-0.370	0.010	-0.180	254.710	-1.300	0.400																			1580003872.0	7.42	13.74
26/01/2020 01:57:53	26012020	260120	015753	254.650	12.415925	-57.618833	254.430	-0.310	-0.130	-0.290	254.620	-1.500	0.100																			1580003873.0	7.78	14.41
26/01/2020 01:57:54	26012020	260120	015754	254.420	12.415912	-57.618868	254.120	-0.240	-0.150	-0.140	254.360	-1.500	0.200																			1580003874.0	7.85	14.54
26/01/2020 01:57:55	26012020	260120	015755	254.100	12.415902	-57.618903	253.880	-0.140	-0.060	0.110	254.050	-1.500	0.400																			1580003875.0	7.72	14.30
26/01/2020 01:57:56	26012020	260120	015756	253.890	12.415892	-57.618938	253.800	0.020	-0.040	0.370	253.870	-1.400	0.600																			1580003876.0	7.54	13.96
26/01/2020 01:57:57	26012020	260120	015757	253.840	12.415883	-57.618972	253.860	0.270	-0.130	0.570	253.850	-1.500	0.900																			1580003877.0	7.46	13.82
26/01/2020 01:57:58	26012020	260120	015758	253.950	12.415877	-57.619007	254.040	0.500	-0.210	0.660	253.950	-1.600	1.000																			1580003878.0	7.56	14.00
26/01/2020 01:57:59	26012020	260120	015759	254.100	12.415868	-57.619042	254.260	0.570	-0.170	0.630	254.150	-1.600	1.000	1015.50	25.40	25.40	21.40	21.40	-1.00	78.00	78.00	391.00	24.50	85.00	3.10	35.00	4.70	14	3332.00	27.40	27.40	1580003879.0	7.63	14.13
26/01/2020 01:58:00	26012020	260120	015800	254.320	12.415860	-57.619077	254.350	0.440	-0.110	0.580	254.350	-1.500	1.000																			1580003880.0	7.53	13.95
26/01/2020 01:58:01	26012020	260120	015801	254.380	12.415853	-57.619112	254.280	0.150	-0.120	0.520	254.380	-1.500	0.900																			1580003881.0	7.41	13.72
26/01/2020 01:58:02	26012020	260120	015802	254.290	12.415843	-57.619145	254.110	-0.180	-0.130	0.440	254.260	-1.500	0.900																			1580003882.0	7.46	13.82
26/01/2020 01:58:03	26012020	260120	015803	254.120	12.415833	-57.619180	253.900	-0.410	-0.130	0.350	254.120	-1.500	0.800																			1580003883.0	7.51	13.91
26/01/2020 01:58:04	26012020	260120	015804	253.900	12.415823	-57.619213	253.720	-0.420	-0.180	0.190	253.860	-1.500	0.700																			1580003884.0	7.48	13.85
26/01/2020 01:58:05	26012020	260120	015805	253.750	12.415812	-57.619247	253.710	-0.240	-0.310	-0.000	253.730	-1.600	0.500																			1580003885.0	7.52	13.93
26/01/2020 01:58:06	26012020	260120	015806	253.760	12.415800	-57.619280	253.780	-0.020	-0.430	-0.100	253.760	-1.800	0.300																			1580003886.0	7.62	14.11
26/01/2020 01:58:07	26012020	260120	015807	253.820	12.415788	-57.619315	253.810	0.110	-0.470	0.020	253.840	-1.900	0.300																			1580003887.0	7.69	14.24
26/01/2020 01:58:08	26012020	260120	015808	253.850	12.415778	-57.619350	253.800	0.130	-0.350	0.320	253.850	-1.800	0.600																			1580003888.0	7.66	14.19
26/01/2020 01:58:09	26012020	260120	015809	253.850	12.415770	-57.619385	253.830	0.080	-0.110	0.620	253.850	-1.600	0.900																			1580003889.0	7.61	14.09
26/01/2020 01:58:10	26012020	260120	015810	253.900	12.415762	-57.619420	253.890	-0.000	0.130	0.780	253.900	-1.400	1.100																			1580003890.0	7.54	13.96
26/01/2020 01:58:11	26012020	260120	015811	253.950	12.415755	-57.619455	253.960	-0.110	0.250	0.760	253.960	-1.200	1.200																			1580003891.0	7.48	13.85
26/01/2020 01:58:12	26012020	260120	015812	254.010	12.415747	-57.619488	254.010	-0.190	0.200	0.580	254.020	-1.100	1.100																			1580003892.0	7.51	13.91
26/01/2020 01:58:13	26012020	260120	015813	254.060	12.415737	-57.619523	254.010	-0.180	-0.020	0.360	254.070	-1.300	0.800																			1580003893.0	7.58	14.04
26/01/2020 01:58:14	26012020	260120	015814	254.060	12.415725	-57.619557	253.930	-0.020	-0.280	0.210	254.050	-1.600	0.700																			1580003894.0	7.67	14.20
26/01/2020 01:58:15	26012020	260120	015815	253.960	12.415713	-57.619592	253.820	0.160	-0.330	0.130	253.930	-1.700	0.600																			1580003895.0	7.77	14.39
26/01/2020 01:58:16	26012020	260120	015816	253.860	12.415702	-57.619627	253.790	0.210	-0.140	0.090	253.850	-1.600	0.500																			1580003896.0	7.71	14.28
26/01/2020 01:58:17	26012020	260120	015817	253.850	12.415690	-57.619660	253.780	0.170	0.010	0.170	253.850	-1.400	0.500																			1580003897.0	7.39	13.69
26/01/2020 01:58:18	26012020	260120	015818	253.830	12.415682	-57.619693	253.750	0.200	-0.120	0.360	253.830	-1.400	0.600																			1580003898.0	7.20	13.33
26/01/2020 01:58:19	26012020	260120	015819	253.780	12.415673	-57.619727	253.710	0.300	-0.420	0.500	253.770	-1.700	0.800																			1580003899.0	7.39	13.69
26/01/2020 01:58:20	26012020	260120	015820	253.750	12.415667	-57.619762	253.770	0.300	-0.570	0.520	253.750	-1.900	0.900																			1580003900.0	7.73	14.32
26/01/2020 01:58:21	26012020	260120	015821	253.820	12.415657	-57.619798	253.920	0.060	-0.410	0.440	253.850	-1.900	0.900																			1580003901.0	7.82	14.48
26/01/2020 01:58:22	26012020	260120	015822	254.010	12.415648	-57.619833	254.070	-0.290	-0.150	0.310	254.010	-1.700	0.800																			1580003902.0	7.56	14.00
26/01/2020 01:58:23	26012020	260120	015823	254.120	12.415638	-57.619867	254.130	-0.470	-0.040	0.180	254.140	-1.500	0.600																			1580003903.0	7.33	13.58
26/01/2020 01:58:24	26012020	260120	015824	254.150	12.415627	-57.619900	254.080	-0.390	-0.110	0.060	254.150	-1.500	0.500																			1580003904.0	7.42	13.74
26/01/2020 01:58:25	26012020	260120	015825	254.110	12.415615	-57.619933	254.020	-0.200	-0.120	-0.040	254.110	-1.500	0.400																			1580003905.0	7.71	14.28
26/01/2020 01:58:26	26012020	260120	015826	254.040	12.415603	-57.619968	254.030	-0.080	0.070	-0.120	254.040	-1.400	0.300																			1580003906.0	7.84	14.52
26/01/2020 01:58:27	26012020	260120	015827	254.070	12.415592	-57.620003	254.100	-0.020	0.230	-0.030	254.080	-1.200	0.300																			1580003907.0	7.63	14.13
26/01/2020 01:58:28	26012020	260120	015828	254.140	12.415582	-57.620037	254.100	0.110	0.110	0.360	254.150	-1.200	0.500																			1580003908.0	7.37	13.65
26/01/2020 01:58:29	26012020	260120	015829	254.130	12.415573	-57.620070	254.010	0.310	-0.190	0.880	254.100	-1.400	1.000																			1580003909.0	7.46	13.82
26/01/2020 01:58:30	26012020	260120	015830	254.010	12.415567	-57.620107	253.940	0.420	-0.340	1.210	253.990	-1.700	1.500																			1580003910.0	7.76	14.37
26/01/2020 01:58:31	26012020	260120	015831	253.960	12.415560	-57.620143	253.990	0.290	-0.290	1.180	253.960	-1.700	1.600																			1580003911.0	7.77	14.39
26/01/2020 01:58:32	26012020	260120	015832	254.030	12.415553	-57.620177	254.030	0.070	-0.280	0.900	254.030	-1.700	1.400																			1580003912.0	7.47	13.83
26/01/2020 01:58:33	26012020	260120	015833	254.060	12.415543	-57.620210	253.960	-0.070	-0.370	0.530	254.060	-1.700	1.100																			1580003913.0	7.34	13.59
26/01/2020 01:58:34	26012020	260120	015834	253.970	12.415532	-57.620245	253.870	-0.110	-0.400	0.130	253.970	-1.800	0.700																			1580003914.0	7.52	13.93
26/01/2020 01:58:35	26012020	260120	015835	253.920	12.415520	-57.620278	253.920	-0.160	-0.280	-0.280	253.920	-1.700	0.300																			1580003915.0	7.68	14.22
26/01/2020 01:58:36	26012020	260120	015836	254.020	12.415507	-57.620312	254.070	-0.240	-0.100	-0.540	254.020	-1.600	-0.000																			1580003916.0	7.60	14.08
26/01/2020 01:58:37	26012020	260120	015837	254.150	12.415495	-57.620345	254.210	-0.230	-0.020	-0.590	254.150	-1.400	-0.200																			1580003917.0	7.49	13.87
26/01/2020 01:58:38	26012020	260120	015838	254.320	12.415485	-57.620380	254.330	-0.090	0.020	-0.450	254.320	-1.400	-0.200																			1580003918.0	7.53	13.95
26/01/2020 01:58:39	26012020	260120	015839	254.400	12.415475	-57.620413	254.410	0.070	0.060	-0.170	254.400	-1.400	0.100																			1580003919.0	7.63	14.13
26/01/2020 01:58:40	26012020	260120	015840	254.510	12.415467	-57.620448	254.510	0.110	0.110	0.220	254.510	-1.300	0.400																			1580003920.0	7.65	14.17
26/01/2020 01:58:41	26012020	260120	015841	254.570	12.415458	-57.620483	254.520	0.100	0.050	0.680	254.570	-1.300	0.800																			1580003921.0	7.56	14.00
26/01/2020 01:58:42	26012020	260120	015842	254.520	12.415452	-57.620518	254.360	0.120	-0.180	1.120	254.520	-1.400	1.300																			1580003922.0	7.49	13.87
26/01/2020 01:58:43	26012020	260120	015843	254.350	12.415445	-57.620553	254.110	0.160	-0.440	1.400	254.300	-1.700	1.700																			1580003923.0	7.61	14.09
26/01/2020 01:58:44	26012020	260120	015844	254.060	12.415437	-57.620590	253.940	0.100	-0.530	1.340	254.060	-1.900	1.800																			1580003924.0	7.74	14.33
26/01/2020 01:58:45	26012020	260120	015845	253.970	12.415428	-57.620625	253.960	-0.060	-0.470	0.890	253.960	-1.900	1.500																			1580003925.0	7.67	14.20
26/01/2020 01:58:46	26012020	260120	015846	254.050	12.415417	-57.620658	254.140	-0.240	-0.360	0.190	254.050	-1.800	0.900																			1580003926.0	7.52	13.93
26/01/2020 01:58:47	26012020	260120	015847	254.250	12.415405	-57.620692	254.490	-0.320	-0.240	-0.540	254.320	-1.700	0.200																			1580003927.0	7.50	13.89
26/01/2020 01:58:48	26012020	260120	015848	254.620	12.415392	-57.620725	254.780	-0.280	-0.100	-1.020	254.690	-1.600	-0.400																			1580003928.0	7.61	14.09
26/01/2020 01:58:49	26012020	260120	015849	254.900	12.415377	-57.620758	254.890	-0.150	0.070	-1.080	254.930	-1.400	-0.700																			1580003929.0	7.67	14.20
26/01/2020 01:58:50	26012020	260120	015850	254.960	12.415365	-57.620793	254.810	0.010	0.260	-0.710	254.960	-1.200	-0.500																			1580003930.0	7.63	14.13
26/01/2020 01:58:51	26012020	260120	015851	254.860	12.415355	-57.620827	254.620	0.180	0.400	-0.060	254.860	-1.000	-0.000																			1580003931.0	7.55	13.98
26/01/2020 01:58:52	26012020	260120	015852	254.650	12.415350	-57.620862	254.410	0.330	0.320	0.620	254.600	-1.000	0.700																			1580003932.0	7.47	13.83
26/01/2020 01:58:53	26012020	260120	015853	254.410	12.415345	-57.620897	254.250	0.410	-0.030	1.050	254.410	-1.200	1.300																			1580003933.0	7.52	13.93
26/01/2020 01:58:54	26012020	260120	015854	254.250	12.415338	-57.620933	254.200	0.370	-0.510	1.160	254.250	-1.700	1.500																			1580003934.0	7.66	14.19
26/01/2020 01:58:55	26012020	260120	015855	254.240	12.415332	-57.620968	254.280	0.230	-0.860	1.030	254.240	-2.100	1.500																			1580003935.0	7.77	14.39
26/01/2020 01:58:56	26012020	260120	015856	254.310	12.415323	-57.621005	254.410	0.030	-0.880	0.710	254.340	-2.300	1.300																			1580003936.0	7.77	14.39
26/01/2020 01:58:57	26012020	260120	015857	254.470	12.415312	-57.621038	254.610	-0.190	-0.630	0.250	254.520	-2.200	0.900																			1580003937.0	7.61	14.09
26/01/2020 01:58:58	26012020	260120	015858	254.690	12.415300	-57.621072	254.810	-0.380	-0.320	-0.200	254.740	-1.900	0.400																			1580003938.0	7.40	13.70
26/01/2020 01:58:59	26012020	260120	015859	254.900	12.415288	-57.621105	254.930	-0.510	-0.040	-0.490	254.930	-1.600	0.000	1015.50	25.40	25.50	21.40	21.40	-1.00	78.00	78.00	391.00	24.50	85.00	2.60	39.00	4.50	14	3395.00	27.40	27.40	1580003939.0	7.42	13.74
26/01/2020 01:59:00	26012020	260120	015900	255.010	12.415275	-57.621138	254.920	-0.520	0.230	-0.580	255.010	-1.300	-0.200																			1580003940.0	7.57	14.02
26/01/2020 01:59:01	26012020	260120	015901	254.990	12.415263	-57.621172	254.810	-0.350	0.460	-0.490	254.970	-1.000	-0.200																			1580003941.0	7.64	14.15
26/01/2020 01:59:02	26012020	260120	015902	254.870	12.415253	-57.621207	254.690	-0.060	0.490	-0.240	254.850	-0.900	0.000																			1580003942.0	7.58	14.04
26/01/2020 01:59:03	26012020	260120	015903	254.750	12.415243	-57.621240	254.610	0.220	0.230	0.140	254.740	-1.000	0.300																			1580003943.0	7.58	14.04
26/01/2020 01:59:04	26012020	260120	015904	254.640	12.415237	-57.621277	254.460	0.420	-0.220	0.640	254.620	-1.400	0.800																			1580003944.0	7.69	14.24
26/01/2020 01:59:05	26012020	260120	015905	254.470	12.415228	-57.621313	254.310	0.490	-0.560	1.080	254.430	-1.800	1.300																			1580003945.0	7.85	14.54
26/01/2020 01:59:06	26012020	260120	015906	254.320	12.415222	-57.621350	254.330	0.420	-0.580	1.280	254.310	-2.000	1.600																			1580003946.0	7.86	14.56
26/01/2020 01:59:07	26012020	260120	015907	254.370	12.415215	-57.621385	254.540	0.250	-0.410	1.120	254.410	-1.900	1.600																			1580003947.0	7.59	14.06
26/01/2020 01:59:08	26012020	260120	015908	254.600	12.415208	-57.621418	254.750	0.080	-0.280	0.680	254.660	-1.700	1.300																			1580003948.0	7.29	13.50
26/01/2020 01:59:09	26012020	260120	015909	254.820	12.415198	-57.621452	254.850	-0.050	-0.240	0.170	254.850	-1.700	0.800																			1580003949.0	7.28	13.48
26/01/2020 01:59:10	26012020	260120	015910	254.910	12.415187	-57.621485	254.830	-0.190	-0.170	-0.270	254.900	-1.600	0.300																			1580003950.0	7.54	13.96
26/01/2020 01:59:11	26012020	260120	015911	254.860	12.415173	-57.621518	254.730	-0.360	0.010	-0.610	254.850	-1.500	-0.100																			1580003951.0	7.67	14.20
26/01/2020 01:59:12	26012020	260120	015912	254.780	12.415162	-57.621552	254.660	-0.470	0.150	-0.800	254.760	-1.300	-0.300																			1580003952.0	7.59	14.06
26/01/2020 01:59:13	26012020	260120	015913	254.730	12.415150	-57.621585	254.630	-0.380	0.150	-0.750	254.720	-1.200	-0.400																			1580003953.0	7.49	13.87
26/01/2020 01:59:14	26012020	260120	015914	254.720	12.415140	-57.621620	254.670	-0.110	-0.060	-0.460	254.720	-1.300	-0.200																			1580003954.0	7.51	13.91
26/01/2020 01:59:15	26012020	260120	015915	254.740	12.415130	-57.621655	254.690	0.200	-0.390	0.050	254.740	-1.600	0.200																			1580003955.0	7.65	14.17
26/01/2020 01:59:16	26012020	260120	015916	254.740	12.415122	-57.621690	254.680	0.360	-0.610	0.690	254.740	-1.900	0.800																			1580003956.0	7.82	14.48
26/01/2020 01:59:17	26012020	260120	015917	254.710	12.415115	-57.621727	254.650	0.330	-0.540	1.220	254.710	-2.000	1.400																			1580003957.0	7.88	14.59
26/01/2020 01:59:18	26012020	260120	015918	254.680	12.415108	-57.621763	254.690	0.180	-0.220	1.420	254.670	-1.800	1.700																			1580003958.0	7.72	14.30
26/01/2020 01:59:19	26012020	260120	015919	254.710	12.415103	-57.621798	254.810	0.040	0.120	1.240	254.740	-1.400	1.700																			1580003959.0	7.47	13.83
26/01/2020 01:59:20	26012020	260120	015920	254.850	12.415095	-57.621832	254.920	-0.040	0.270	0.830	254.880	-1.200	1.400																			1580003960.0	7.31	13.54
26/01/2020 01:59:21	26012020	260120	015921	254.960	12.415085	-57.621865	254.950	-0.070	0.190	0.380	254.970	-1.100	1.000																			1580003961.0	7.39	13.69
26/01/2020 01:59:22	26012020	260120	015922	254.990	12.415073	-57.621898	254.930	-0.110	0.040	0.040	254.990	-1.300	0.600																			1580003962.0	7.62	14.11
26/01/2020 01:59:23	26012020	260120	015923	254.970	12.415060	-57.621933	254.840	-0.170	-0.090	-0.140	254.960	-1.400	0.300																			1580003963.0	7.74	14.33
26/01/2020 01:59:24	26012020	260120	015924	254.840	12.415048	-57.621968	254.700	-0.150	-0.250	-0.240	254.840	-1.600	0.200																			1580003964.0	7.64	14.15
26/01/2020 01:59:25	26012020	260120	015925	254.740	12.415038	-57.622002	254.610	-0.010	-0.480	-0.340	254.710	-1.800	0.100																			1580003965.0	7.55	13.98
26/01/2020 01:59:26	26012020	260120	015926	254.680	12.415028	-57.622037	254.670	0.140	-0.630	-0.450	254.680	-2.000	-0.000																			1580003966.0	7.64	14.15
26/01/2020 01:59:27	26012020	260120	015927	254.760	12.415017	-57.622072	254.860	0.210	-0.540	-0.480	254.760	-2.000	-0.100																			1580003967.0	7.71	14.28
26/01/2020 01:59:28	26012020	260120	015928	254.960	12.415008	-57.622105	255.030	0.150	-0.280	-0.350	255.010	-1.800	-0.100																			1580003968.0	7.61	14.09
26/01/2020 01:59:29	26012020	260120	015929	255.120	12.415000	-57.622140	255.100	0.030	0.050	-0.000	255.120	-1.500	0.200																			1580003969.0	7.47	13.83
26/01/2020 01:59:30	26012020	260120	015930	255.150	12.414992	-57.622175	255.070	-0.080	0.280	0.450	255.150	-1.200	0.600																			1580003970.0	7.40	13.70
26/01/2020 01:59:31	26012020	260120	015931	255.120	12.414987	-57.622208	255.060	-0.140	0.250	0.850	255.110	-1.100	1.100																			1580003971.0	7.42	13.74
26/01/2020 01:59:32	26012020	260120	015932	255.090	12.414978	-57.622243	255.110	-0.140	0.030	1.020	255.090	-1.300	1.400																			1580003972.0	7.57	14.02
26/01/2020 01:59:33	26012020	260120	015933	255.150	12.414970	-57.622280	255.230	-0.110	-0.160	0.940	255.180	-1.500	1.400																			1580003973.0	7.77	14.39
26/01/2020 01:59:34	26012020	260120	015934	255.270	12.414960	-57.622315	255.270	-0.050	-0.240	0.710	255.270	-1.600	1.200																			1580003974.0	7.77	14.39
26/01/2020 01:59:35	26012020	260120	015935	255.290	12.414950	-57.622348	255.220	0.080	-0.280	0.440	255.280	-1.700	1.000																			1580003975.0	7.60	14.08
26/01/2020 01:59:36	26012020	260120	015936	255.240	12.414940	-57.622383	255.200	0.210	-0.310	0.120	255.230	-1.700	0.700																			1580003976.0	7.52	13.93
26/01/2020 01:59:37	26012020	260120	015937	255.250	12.414928	-57.622417	255.260	0.270	-0.300	-0.200	255.260	-1.700	0.300																			1580003977.0	7.54	13.96
26/01/2020 01:59:38	26012020	260120	015938	255.320	12.414918	-57.622452	255.320	0.190	-0.300	-0.400	255.330	-1.700	0.100																			1580003978.0	7.55	13.98
26/01/2020 01:59:39	26012020	260120	015939	255.370	12.414908	-57.622485	255.320	-0.000	-0.300	-0.360	255.370	-1.700	-0.000																			1580003979.0	7.54	13.96
26/01/2020 01:59:40	26012020	260120	015940	255.360	12.414898	-57.622520	255.300	-0.190	-0.270	-0.120	255.360	-1.700	0.100																			1580003980.0	7.57	14.02
26/01/2020 01:59:41	26012020	260120	015941	255.360	12.414890	-57.622555	255.310	-0.260	-0.220	0.150	255.360	-1.600	0.400																			1580003981.0	7.61	14.09
26/01/2020 01:59:42	26012020	260120	015942	255.370	12.414883	-57.622590	255.320	-0.230	-0.120	0.350	255.370	-1.600	0.700																			1580003982.0	7.65	14.17
26/01/2020 01:59:43	26012020	260120	015943	255.390	12.414875	-57.622625	255.390	-0.170	0.060	0.330	255.390	-1.400	0.800																			1580003983.0	7.67	14.20
26/01/2020 01:59:44	26012020	260120	015944	255.470	12.414867	-57.622660	255.510	-0.150	0.240	0.180	255.490	-1.200	0.600																			1580003984.0	7.61	14.09
26/01/2020 01:59:45	26012020	260120	015945	255.580	12.414857	-57.622695	255.600	-0.110	0.280	0.070	255.600	-1.100	0.500																			1580003985.0	7.49	13.87
26/01/2020 01:59:46	26012020	260120	015946	255.660	12.414845	-57.622728	255.610	0.000	0.050	0.150	255.660	-1.200	0.500																			1580003986.0	7.47	13.83
26/01/2020 01:59:47	26012020	260120	015947	255.640	12.414837	-57.622763	255.510	0.180	-0.300	0.420	255.630	-1.500	0.600																			1580003987.0	7.60	14.08
26/01/2020 01:59:48	26012020	260120	015948	255.490	12.414827	-57.622798	255.360	0.320	-0.560	0.730	255.490	-1.900	1.000																			1580003988.0	7.77	14.39
26/01/2020 01:59:49	26012020	260120	015949	255.380	12.414820	-57.622835	255.290	0.350	-0.510	0.860	255.370	-2.000	1.200																			1580003989.0	7.81	14.46
26/01/2020 01:59:50	26012020	260120	015950	255.350	12.414813	-57.622870	255.330	0.240	-0.310	0.790	255.350	-1.800	1.200																			1580003990.0	7.61	14.09
26/01/2020 01:59:51	26012020	260120	015951	255.390	12.414807	-57.622903	255.360	0.080	-0.220	0.610	255.400	-1.600	1.100																			1580003991.0	7.34	13.59
26/01/2020 01:59:52	26012020	260120	015952	255.420	12.414797	-57.622937	255.380	-0.060	-0.260	0.320	255.430	-1.600	0.900																			1580003992.0	7.37	13.65
26/01/2020 01:59:53	26012020	260120	015953	255.430	12.414787	-57.622972	255.380	-0.160	-0.230	-0.070	255.430	-1.700	0.500																			1580003993.0	7.62	14.11
26/01/2020 01:59:54	26012020	260120	015954	255.460	12.414775	-57.623007	255.420	-0.240	-0.050	-0.460	255.460	-1.500	0.100																			1580003994.0	7.75	14.35
26/01/2020 01:59:55	26012020	260120	015955	255.510	12.414763	-57.623042	255.530	-0.330	0.230	-0.710	255.530	-1.300	-0.200																			1580003995.0	7.66	14.19
26/01/2020 01:59:56	26012020	260120	015956	255.630	12.414753	-57.623075	255.660	-0.320	0.330	-0.760	255.650	-1.100	-0.400																			1580003996.0	7.48	13.85
26/01/2020 01:59:57	26012020	260120	015957	255.740	12.414743	-57.623108	255.710	-0.130	0.090	-0.570	255.750	-1.100	-0.300																			1580003997.0	7.41	13.72
26/01/2020 01:59:58	26012020	260120	015958	255.750	12.414735	-57.623143	255.680	0.130	-0.340	-0.190	255.750	-1.500	-0.000																			1580003998.0	7.60	14.08
26/01/2020 01:59:59	26012020	260120	015959	255.720	12.414725	-57.623180	255.620	0.240	-0.650	0.350	255.710	-1.900	0.500	1015.50	25.40	25.50	21.50	21.50	-1.00	79.00	78.00	391.00	24.50	83.00	3.20	33.00	4.70	14	3403.00	27.40	27.40	1580003999.0	7.89	14.61
26/01/2020 02:00:00	26012020	260120	020000	255.660	12.414718	-57.623217	255.500	0.140	-0.640	0.960	255.640	-2.100	1.000																			1580004000.0	7.92	14.67
26/01/2020 02:00:01	26012020	260120	020001	255.530	12.414707	-57.623287	255.350	0.000	-0.390	1.440	255.490	-1.900	1.600																			1580004001.0	7.71	14.28
26/01/2020 02:00:02	26012020	260120	020002	255.360	12.414707	-57.623287	255.250	-0.010	-0.040	1.570	255.330	-1.600	1.900																			1580004002.0	7.48	13.85
26/01/2020 02:00:03	26012020	260120	020003	255.270	12.414700	-57.623322	255.290	0.060	0.190	1.250	255.280	-1.300	1.800																			1580004003.0	7.34	13.59
26/01/2020 02:00:04	26012020	260120	020004	255.390	12.414692	-57.623355	255.430	0.100	0.140	0.650	255.390	-1.200	1.300																			1580004004.0	7.36	13.63
26/01/2020 02:00:05	26012020	260120	020005	255.520	12.414682	-57.623388	255.520	0.060	-0.060	0.050	255.520	-1.400	0.700																			1580004005.0	7.58	14.04
26/01/2020 02:00:06	26012020	260120	020006	255.600	12.414670	-57.623425	255.540	-0.040	-0.130	-0.390	255.610	-1.500	0.200																			1580004006.0	7.83	14.50
26/01/2020 02:00:07	26012020	260120	020007	255.620	12.414658	-57.623460	255.560	-0.150	0.010	-0.680	255.630	-1.500	-0.200																			1580004007.0	7.82	14.48
26/01/2020 02:00:08	26012020	260120	020008	255.650	12.414647	-57.623493	255.590	-0.210	0.080	-0.780	255.660	-1.300	-0.400																			1580004008.0	7.54	13.96
26/01/2020 02:00:09	26012020	260120	020009	255.660	12.414637	-57.623527	255.480	-0.170	-0.160	-0.690	255.650	-1.400	-0.400																			1580004009.0	7.34	13.59
26/01/2020 02:00:10	26012020	260120	020010	255.530	12.414627	-57.623560	255.250	-0.020	-0.560	-0.450	255.480	-1.800	-0.200																			1580004010.0	7.50	13.89
26/01/2020 02:00:11	26012020	260120	020011	255.290	12.414618	-57.623597	255.030	0.130	-0.720	-0.040	255.240	-2.100	0.100																			1580004011.0	7.81	14.46
26/01/2020 02:00:12	26012020	260120	020012	255.090	12.414610	-57.623632	254.960	0.180	-0.470	0.510	255.070	-2.000	0.600																			1580004012.0	7.85	14.54
26/01/2020 02:00:13	26012020	260120	020013	255.040	12.414602	-57.623667	255.090	0.120	-0.060	1.070	255.050	-1.600	1.200																			1580004013.0	7.56	14.00
26/01/2020 02:00:14	26012020	260120	020014	255.180	12.414597	-57.623702	255.360	0.050	0.170	1.510	255.230	-1.300	1.700																			1580004014.0	7.30	13.52
26/01/2020 02:00:15	26012020	260120	020015	255.460	12.414592	-57.623735	255.700	0.050	0.090	1.700	255.520	-1.200	2.000																			1580004015.0	7.33	13.58
26/01/2020 02:00:16	26012020	260120	020016	255.780	12.414587	-57.623772	256.010	0.060	-0.130	1.630	255.850	-1.400	2.100																			1580004016.0	7.60	14.08
26/01/2020 02:00:17	26012020	260120	020017	256.080	12.414578	-57.623807	256.250	-0.020	-0.220	1.390	256.130	-1.600	1.900																			1580004017.0	7.81	14.46
26/01/2020 02:00:18	26012020	260120	020018	256.380	12.414568	-57.623843	256.530	-0.180	-0.140	1.000	256.380	-1.600	1.600																			1580004018.0	7.77	14.39
26/01/2020 02:00:19	26012020	260120	020019	256.600	12.414557	-57.623877	256.870	-0.300	0.010	0.530	256.600	-1.400	1.100																			1580004019.0	7.55	13.98
26/01/2020 02:00:20	26012020	260120	020020	256.970	12.414545	-57.623908	257.320	-0.290	0.040	0.050	257.060	-1.300	0.700																			1580004020.0	7.38	13.67
26/01/2020 02:00:21	26012020	260120	020021	257.470	12.414532	-57.623942	257.870	-0.100	-0.110	-0.270	257.570	-1.400	0.200																			1580004021.0	7.34	13.59
26/01/2020 02:00:22	26012020	260120	020022	258.030	12.414520	-57.623975	258.480	0.150	-0.300	-0.390	258.140	-1.600	0.000																			1580004022.0	7.44	13.78
26/01/2020 02:00:23	26012020	260120	020023	258.640	12.414510	-57.624008	259.150	0.320	-0.410	-0.330	258.770	-1.800	0.000																			1580004023.0	7.51	13.91
26/01/2020 02:00:24	26012020	260120	020024	259.450	12.414502	-57.624043	259.890	0.340	-0.410	-0.140	259.450	-1.800	0.100																			1580004024.0	7.44	13.78
26/01/2020 02:00:25	26012020	260120	020025	260.060	12.414495	-57.624077	260.710	0.240	-0.260	0.110	260.220	-1.700	0.400																			1580004025.0	7.31	13.54
26/01/2020 02:00:26	26012020	260120	020026	261.090	12.414490	-57.624110	261.570	0.090	-0.000	0.370	261.090	-1.500	0.600																			1580004026.0	7.20	13.33
26/01/2020 02:00:27	26012020	260120	020027	261.780	12.414485	-57.624143	262.450	-0.070	0.120	0.570	261.960	-1.300	0.900																			1580004027.0	7.03	13.02
26/01/2020 02:00:28	26012020	260120	020028	262.830	12.414478	-57.624175	263.340	-0.180	0.010	0.630	262.830	-1.300	1.000																			1580004028.0	7.00	12.96
26/01/2020 02:00:29	26012020	260120	020029	263.540	12.414473	-57.624208	264.300	-0.250	-0.140	0.430	263.730	-1.500	0.900																			1580004029.0	7.20	13.33
26/01/2020 02:00:30	26012020	260120	020030	264.720	12.414465	-57.624243	265.360	-0.290	-0.100	-0.070	264.720	-1.500	0.600																			1580004030.0	7.33	13.58
26/01/2020 02:00:31	26012020	260120	020031	265.560	12.414457	-57.624275	266.420	-0.270	-0.010	-0.680	265.560	-1.400	-0.000																			1580004031.0	7.20	13.33
26/01/2020 02:00:32	26012020	260120	020032	266.600	12.414447	-57.624307	267.390	-0.150	-0.090	-1.090	266.800	-1.400	-0.600																			1580004032.0	7.00	12.96
26/01/2020 02:00:33	26012020	260120	020033	267.610	12.414437	-57.624338	268.410	0.020	-0.280	-1.230	267.800	-1.600	-0.800																			1580004033.0	7.03	13.02
26/01/2020 02:00:34	26012020	260120	020034	268.660	12.414428	-57.624372	269.520	0.170	-0.420	-1.050	268.860	-1.800	-0.800																			1580004034.0	7.14	13.22
26/01/2020 02:00:35	26012020	260120	020035	269.780	12.414423	-57.624405	270.740	0.280	-0.370	-0.640	270.020	-1.800	-0.500																			1580004035.0	7.07	13.09
26/01/2020 02:00:36	26012020	260120	020036	270.990	12.414422	-57.624437	271.940	0.340	-0.160	-0.190	271.230	-1.700	-0.000																			1580004036.0	6.87	12.72
26/01/2020 02:00:37	26012020	260120	020037	272.150	12.414422	-57.624468	273.020	0.250	0.070	0.160	272.370	-1.400	0.400																			1580004037.0	6.65	12.32
26/01/2020 02:00:38	26012020	260120	020038	273.400	12.414422	-57.624500	273.990	-0.030	0.190	0.280	273.400	-1.300	0.600																			1580004038.0	6.51	12.06
26/01/2020 02:00:39	26012020	260120	020039	274.170	12.414420	-57.624530	274.970	-0.360	0.190	0.060	274.370	-1.200	0.600																			1580004039.0	6.50	12.04
26/01/2020 02:00:40	26012020	260120	020040	275.430	12.414417	-57.624562	276.120	-0.540	0.150	-0.450	275.430	-1.200	0.200																			1580004040.0	6.58	12.19
26/01/2020 02:00:41	26012020	260120	020041	276.400	12.414412	-57.624592	277.370	-0.430	0.030	-1.020	276.650	-1.300	-0.400																			1580004041.0	6.67	12.35
26/01/2020 02:00:42	26012020	260120	020042	277.920	12.414407	-57.624623	278.600	-0.120	-0.240	-1.310	277.920	-1.500	-0.900																			1580004042.0	6.72	12.45
26/01/2020 02:00:43	26012020	260120	020043	278.870	12.414402	-57.624655	279.730	0.210	-0.550	-1.240	279.100	-1.800	-0.900																			1580004043.0	6.76	12.52
26/01/2020 02:00:44	26012020	260120	020044	280.220	12.414400	-57.624687	280.900	0.390	-0.670	-1.020	280.220	-2.000	-0.800																			1580004044.0	6.73	12.46
26/01/2020 02:00:45	26012020	260120	020045	281.160	12.414400	-57.624718	282.190	0.390	-0.510	-0.840	281.410	-2.000	-0.600																			1580004045.0	6.57	12.17
26/01/2020 02:00:46	26012020	260120	020046	282.450	12.414403	-57.624748	283.480	0.210	-0.140	-0.690	282.700	-1.700	-0.400																			1580004046.0	6.28	11.63
26/01/2020 02:00:47	26012020	260120	020047	283.740	12.414405	-57.624777	284.660	-0.040	0.250	-0.500	283.970	-1.300	-0.300																			1580004047.0	6.04	11.19
26/01/2020 02:00:48	26012020	260120	020048	285.080	12.414407	-57.624803	285.640	-0.270	0.520	-0.220	285.080	-1.000	-0.000																			1580004048.0	5.92	10.96
26/01/2020 02:00:49	26012020	260120	020049	285.820	12.414408	-57.624832	286.560	-0.390	0.530	0.040	285.990	-0.900	0.300																			1580004049.0	5.91	10.95
26/01/2020 02:00:50	26012020	260120	020050	286.710	12.414412	-57.624860	287.540	-0.360	0.310	0.010	286.900	-1.000	0.400																			1580004050.0	5.98	11.07
26/01/2020 02:00:51	26012020	260120	020051	287.710	12.414415	-57.624888	288.680	-0.180	-0.060	-0.390	287.940	-1.300	0.200																			1580004051.0	6.11	11.32
26/01/2020 02:00:52	26012020	260120	020052	288.890	12.414415	-57.624918	289.930	0.110	-0.420	-0.950	289.140	-1.700	-0.300																			1580004052.0	6.27	11.61
26/01/2020 02:00:53	26012020	260120	020053	290.160	12.414417	-57.624948	291.200	0.380	-0.650	-1.370	290.420	-2.000	-0.900																			1580004053.0	6.36	11.78
26/01/2020 02:00:54	26012020	260120	020054	291.430	12.414417	-57.624978	292.370	0.500	-0.710	-1.470	291.670	-2.100	-1.100																			1580004054.0	6.25	11.58
26/01/2020 02:00:55	26012020	260120	020055	292.560	12.414420	-57.625007	293.370	0.410	-0.530	-1.300	292.560	-2.100	-1.100																			1580004055.0	6.03	11.17
26/01/2020 02:00:56	26012020	260120	020056	293.560	12.414425	-57.625033	294.350	0.140	-0.120	-1.000	293.760	-1.800	-0.800																			1580004056.0	5.81	10.76
26/01/2020 02:00:57	26012020	260120	020057	294.530	12.414432	-57.625058	295.360	-0.200	0.330	-0.670	294.730	-1.300	-0.500																			1580004057.0	5.57	10.32
26/01/2020 02:00:58	26012020	260120	020058	295.520	12.414438	-57.625083	296.310	-0.440	0.580	-0.390	295.700	-0.900	-0.200																			1580004058.0	5.40	10.00
26/01/2020 02:00:59	26012020	260120	020059	296.460	12.414445	-57.625108	297.230	-0.490	0.510	-0.260	296.630	-0.800	0.000	1015.50	25.40	25.40	21.40	21.40	-1.00	78.00	78.00	391.00	24.50	75.00	3.70	35.00	4.50	14	3457.00	27.40	27.40	1580004059.0	5.42	10.04
26/01/2020 02:01:00	26012020	260120	020100	297.390	12.414450	-57.625135	298.210	-0.340	0.150	-0.370	297.590	-1.100	0.000																			1580004060.0	5.61	10.39
26/01/2020 02:01:01	26012020	260120	020101	298.390	12.414457	-57.625162	299.250	-0.070	-0.340	-0.660	298.590	-1.500	-0.200																			1580004061.0	5.86	10.85
26/01/2020 02:01:02	26012020	260120	020102	299.470	12.414463	-57.625190	300.360	0.190	-0.720	-0.950	299.700	-2.000	-0.500																			1580004062.0	6.02	11.15
26/01/2020 02:01:03	26012020	260120	020103	300.600	12.414468	-57.625217	301.340	0.340	-0.710	-0.980	300.820	-2.200	-0.700																			1580004063.0	6.07	11.24
26/01/2020 02:01:04	26012020	260120	020104	301.550	12.414475	-57.625243	302.110	0.370	-0.300	-0.690	301.710	-1.900	-0.500																			1580004064.0	5.83	10.80
26/01/2020 02:01:05	26012020	260120	020105	302.300	12.414483	-57.625268	302.870	0.290	0.120	-0.420	302.450	-1.500	-0.200																			1580004065.0	5.30	9.82
26/01/2020 02:01:06	26012020	260120	020106	303.090	12.414492	-57.625290	303.750	0.140	0.280	-0.420	303.260	-1.200	-0.100																			1580004066.0	5.00	9.26
26/01/2020 02:01:07	26012020	260120	020107	303.990	12.414502	-57.625312	304.670	-0.050	0.240	-0.640	304.190	-1.100	-0.200																			1580004067.0	5.19	9.61
26/01/2020 02:01:08	26012020	260120	020108	304.920	12.414510	-57.625337	305.530	-0.220	0.170	-0.920	305.100	-1.200	-0.500																			1580004068.0	5.49	10.17
26/01/2020 02:01:09	26012020	260120	020109	305.760	12.414517	-57.625362	306.330	-0.260	0.100	-1.130	305.760	-1.300	-0.700																			1580004069.0	5.60	10.37
26/01/2020 02:01:10	26012020	260120	020110	306.720	12.414525	-57.625387	307.120	-0.170	-0.110	-1.200	306.720	-1.400	-0.900																			1580004070.0	5.51	10.20
26/01/2020 02:01:11	26012020	260120	020111	307.350	12.414533	-57.625412	307.880	-0.010	-0.380	-1.120	307.490	-1.700	-0.800																			1580004071.0	5.43	10.06
26/01/2020 02:01:12	26012020	260120	020112	308.110	12.414543	-57.625435	308.600	0.110	-0.480	-0.920	308.250	-1.900	-0.700																			1580004072.0	5.46	10.11
26/01/2020 02:01:13	26012020	260120	020113	308.810	12.414553	-57.625458	309.270	0.170	-0.360	-0.690	308.940	-1.800	-0.500																			1580004073.0	5.37	9.95
26/01/2020 02:01:14	26012020	260120	020114	309.460	12.414565	-57.625480	309.980	0.220	-0.210	-0.500	309.600	-1.700	-0.300																			1580004074.0	5.13	9.50
26/01/2020 02:01:15	26012020	260120	020115	310.170	12.414575	-57.625500	310.780	0.260	-0.120	-0.350	310.330	-1.600	-0.100																			1580004075.0	5.02	9.30
26/01/2020 02:01:16	26012020	260120	020116	310.950	12.414587	-57.625522	311.560	0.210	0.010	-0.190	311.110	-1.500	0.100																			1580004076.0	5.09	9.43
26/01/2020 02:01:17	26012020	260120	020117	311.680	12.414598	-57.625543	312.200	0.010	0.190	-0.050	311.820	-1.300	0.200																			1580004077.0	5.12	9.48
26/01/2020 02:01:18	26012020	260120	020118	312.390	12.414610	-57.625563	312.700	-0.240	0.290	-0.010	312.390	-1.100	0.300																			1580004078.0	4.99	9.24
26/01/2020 02:01:19	26012020	260120	020119	312.770	12.414622	-57.625583	313.190	-0.390	0.140	-0.220	312.870	-1.200	0.300																			1580004079.0	4.93	9.13
26/01/2020 02:01:20	26012020	260120	020120	313.280	12.414632	-57.625607	313.860	-0.290	-0.220	-0.730	313.400	-1.400	-0.100																			1580004080.0	5.11	9.46
26/01/2020 02:01:21	26012020	260120	020121	313.980	12.414640	-57.625630	314.690	0.000	-0.540	-1.200	313.980	-1.800	-0.700																			1580004081.0	5.44	10.07
26/01/2020 02:01:22	26012020	260120	020122	314.810	12.414650	-57.625655	315.450	0.290	-0.510	-1.270	314.970	-2.000	-1.000																			1580004082.0	5.57	10.32
26/01/2020 02:01:23	26012020	260120	020123	315.560	12.414662	-57.625677	316.050	0.420	-0.200	-0.930	315.560	-1.800	-0.800																			1580004083.0	5.23	9.69
26/01/2020 02:01:24	26012020	260120	020124	316.120	12.414673	-57.625695	316.540	0.380	0.080	-0.430	316.210	-1.400	-0.400																			1580004084.0	4.74	8.78
26/01/2020 02:01:25	26012020	260120	020125	316.600	12.414688	-57.625712	317.050	0.260	0.090	-0.070	316.700	-1.300	0.100																			1580004085.0	4.54	8.41
26/01/2020 02:01:26	26012020	260120	020126	317.240	12.414702	-57.625728	317.600	0.110	-0.050	0.010	317.240	-1.400	0.300																			1580004086.0	4.73	8.76
26/01/2020 02:01:27	26012020	260120	020127	317.700	12.414717	-57.625747	318.180	-0.040	-0.080	-0.130	317.830	-1.500	0.300																			1580004087.0	5.02	9.30
26/01/2020 02:01:28	26012020	260120	020128	318.390	12.414728	-57.625767	318.700	-0.190	0.080	-0.350	318.390	-1.400	0.100																			1580004088.0	5.08	9.41
26/01/2020 02:01:29	26012020	260120	020129	318.820	12.414740	-57.625787	319.270	-0.320	0.200	-0.630	318.940	-1.200	-0.200																			1580004089.0	4.87	9.02
26/01/2020 02:01:30	26012020	260120	020130	319.530	12.414750	-57.625807	319.880	-0.370	0.050	-0.880	319.530	-1.200	-0.400																			1580004090.0	4.70	8.70
26/01/2020 02:01:31	26012020	260120	020131	320.050	12.414762	-57.625827	320.520	-0.270	-0.280	-0.970	320.180	-1.500	-0.600																			1580004091.0	4.84	8.96
26/01/2020 02:01:32	26012020	260120	020132	320.680	12.414773	-57.625847	321.100	-0.010	-0.490	-0.810	320.800	-1.800	-0.600																			1580004092.0	5.05	9.35
26/01/2020 02:01:33	26012020	260120	020133	321.250	12.414787	-57.625867	321.690	0.310	-0.510	-0.550	321.360	-1.900	-0.400																			1580004093.0	5.00	9.26
26/01/2020 02:01:34	26012020	260120	020134	321.980	12.414800	-57.625883	322.310	0.520	-0.480	-0.390	321.980	-1.900	-0.100																			1580004094.0	4.77	8.83
26/01/2020 02:01:35	26012020	260120	020135	322.480	12.414815	-57.625900	322.900	0.460	-0.330	-0.360	322.600	-1.800	-0.100																			1580004095.0	4.71	8.72
26/01/2020 02:01:36	26012020	260120	020136	323.060	12.414832	-57.625917	323.380	0.150	0.060	-0.340	323.150	-1.600	-0.000																			1580004096.0	4.76	8.82
26/01/2020 02:01:37	26012020	260120	020137	323.500	12.414845	-57.625933	323.760	-0.200	0.470	-0.290	323.500	-1.100	0.000																			1580004097.0	4.61	8.54
26/01/2020 02:01:38	26012020	260120	020138	323.840	12.414857	-57.625950	324.090	-0.370	0.590	-0.320	323.910	-0.800	0.000																			1580004098.0	4.41	8.17
26/01/2020 02:01:39	26012020	260120	020139	324.180	12.414870	-57.625967	324.480	-0.310	0.320	-0.490	324.250	-0.900	-0.100																			1580004099.0	4.45	8.24
26/01/2020 02:01:40	26012020	260120	020140	324.670	12.414883	-57.625985	324.960	-0.190	-0.100	-0.720	324.670	-1.300	-0.300																			1580004100.0	4.75	8.80
26/01/2020 02:01:41	26012020	260120	020141	325.060	12.414897	-57.626003	325.470	-0.070	-0.460	-0.900	325.160	-1.700	-0.500																			1580004101.0	4.95	9.17
26/01/2020 02:01:42	26012020	260120	020142	325.580	12.414910	-57.626022	325.990	0.060	-0.650	-0.990	325.690	-2.000	-0.600																			1580004102.0	4.95	9.17
26/01/2020 02:01:43	26012020	260120	020143	326.110	12.414925	-57.626040	326.500	0.190	-0.610	-0.980	326.220	-2.100	-0.700																			1580004103.0	4.83	8.95
26/01/2020 02:01:44	26012020	260120	020144	326.680	12.414940	-57.626057	326.850	0.210	-0.300	-0.820	326.680	-1.900	-0.600																			1580004104.0	4.67	8.65
26/01/2020 02:01:45	26012020	260120	020145	326.920	12.414955	-57.626070	327.020	0.070	0.130	-0.480	326.920	-1.500	-0.400																			1580004105.0	4.45	8.24
26/01/2020 02:01:46	26012020	260120	020146	327.110	12.414968	-57.626085	327.190	-0.110	0.380	-0.110	327.110	-1.100	0.000																			1580004106.0	4.21	7.80
26/01/2020 02:01:47	26012020	260120	020147	327.250	12.414983	-57.626098	327.480	-0.130	0.260	0.070	327.250	-1.000	0.300																			1580004107.0	4.18	7.74
26/01/2020 02:01:48	26012020	260120	020148	327.570	12.414998	-57.626113	327.840	-0.030	-0.060	0.040	327.630	-1.300	0.400																			1580004108.0	4.46	8.26
26/01/2020 02:01:49	26012020	260120	020149	327.940	12.415013	-57.626128	328.250	0.060	-0.320	-0.150	328.020	-1.600	0.300																			1580004109.0	4.76	8.82
26/01/2020 02:01:50	26012020	260120	020150	328.330	12.415028	-57.626145	328.590	0.050	-0.400	-0.380	328.410	-1.800	0.000																			1580004110.0	4.82	8.93
26/01/2020 02:01:51	26012020	260120	020151	328.670	12.415043	-57.626162	328.830	-0.020	-0.330	-0.570	328.720	-1.800	-0.200																			1580004111.0	4.70	8.70
26/01/2020 02:01:52	26012020	260120	020152	328.890	12.415058	-57.626177	328.970	-0.020	-0.190	-0.620	328.930	-1.700	-0.300																			1580004112.0	4.55	8.43
26/01/2020 02:01:53	26012020	260120	020153	329.030	12.415073	-57.626193	329.080	0.080	-0.050	-0.480	329.050	-1.500	-0.200																			1580004113.0	4.50	8.33
26/01/2020 02:01:54	26012020	260120	020154	329.170	12.415087	-57.626207	329.280	0.190	0.000	-0.350	329.170	-1.400	-0.100																			1580004114.0	4.45	8.24
26/01/2020 02:01:55	26012020	260120	020155	329.340	12.415103	-57.626222	329.510	0.210	-0.050	-0.360	329.390	-1.400	-0.000																			1580004115.0	4.45	8.24
26/01/2020 02:01:56	26012020	260120	020156	329.640	12.415118	-57.626235	329.740	0.100	-0.120	-0.520	329.640	-1.500	-0.100																			1580004116.0	4.55	8.43
26/01/2020 02:01:57	26012020	260120	020157	329.830	12.415135	-57.626250	329.930	-0.110	-0.050	-0.660	329.830	-1.500	-0.300																			1580004117.0	4.64	8.59
26/01/2020 02:01:58	26012020	260120	020158	330.040	12.415150	-57.626265	330.060	-0.300	0.170	-0.590	330.040	-1.300	-0.300																			1580004118.0	4.60	8.52
26/01/2020 02:01:59	26012020	260120	020159	330.130	12.415163	-57.626280	330.190	-0.360	0.300	-0.430	330.130	-1.100	-0.200	1015.40	25.40	25.40	21.40	21.40	-1.00	78.00	78.00	392.00	24.50	52.00	5.80	36.00	4.80	14	3386.00	27.40	27.40	1580004119.0	4.35	8.06
26/01/2020 02:02:00	26012020	260120	020200	330.270	12.415178	-57.626293	330.370	-0.240	0.080	-0.300	330.300	-1.200	-0.000																			1580004120.0	4.17	7.72
26/01/2020 02:02:01	26012020	260120	020201	330.460	12.415193	-57.626307	330.570	-0.000	-0.300	-0.230	330.500	-1.500	0.000																			1580004121.0	4.33	8.02
26/01/2020 02:02:02	26012020	260120	020202	330.650	12.415210	-57.626322	330.690	0.170	-0.550	-0.120	330.670	-1.900	0.100																			1580004122.0	4.60	8.52
26/01/2020 02:02:03	26012020	260120	020203	330.760	12.415227	-57.626333	330.800	0.210	-0.610	-0.030	330.770	-2.000	0.200																			1580004123.0	4.63	8.57
26/01/2020 02:02:04	26012020	260120	020204	330.860	12.415243	-57.626347	330.950	0.180	-0.590	-0.080	330.890	-2.000	0.300																			1580004124.0	4.49	8.32
26/01/2020 02:02:05	26012020	260120	020205	331.030	12.415260	-57.626362	331.140	0.190	-0.410	-0.210	331.060	-1.900	0.200																			1580004125.0	4.55	8.43
26/01/2020 02:02:06	26012020	260120	020206	331.230	12.415275	-57.626377	331.300	0.210	-0.030	-0.300	331.230	-1.600	0.000																			1580004126.0	4.64	8.59
26/01/2020 02:02:07	26012020	260120	020207	331.350	12.415290	-57.626392	331.450	0.140	0.380	-0.300	331.380	-1.200	0.000																			1580004127.0	4.50	8.33
26/01/2020 02:02:08	26012020	260120	020208	331.550	12.415305	-57.626405	331.600	-0.060	0.570	-0.250	331.550	-0.900	0.000																			1580004128.0	4.26	7.89
26/01/2020 02:02:09	26012020	260120	020209	331.660	12.415320	-57.626417	331.710	-0.300	0.490	-0.190	331.660	-0.800	0.100																			1580004129.0	4.19	7.76
26/01/2020 02:02:10	26012020	260120	020210	331.780	12.415335	-57.626430	331.800	-0.380	0.250	-0.160	331.780	-1.000	0.100																			1580004130.0	4.32	8.00
26/01/2020 02:02:11	26012020	260120	020211	331.850	12.415352	-57.626443	331.860	-0.220	-0.100	-0.110	331.850	-1.300	0.200																			1580004131.0	4.44	8.22
26/01/2020 02:02:12	26012020	260120	020212	331.910	12.415368	-57.626457	331.890	0.110	-0.540	-0.060	331.920	-1.700	0.200																			1580004132.0	4.48	8.30
26/01/2020 02:02:13	26012020	260120	020213	331.940	12.415385	-57.626470	331.920	0.370	-0.900	-0.080	331.940	-2.100	0.300																			1580004133.0	4.56	8.45
26/01/2020 02:02:14	26012020	260120	020214	331.980	12.415402	-57.626482	332.070	0.370	-0.910	-0.270	332.000	-2.400	0.200																			1580004134.0	4.68	8.67
26/01/2020 02:02:15	26012020	260120	020215	332.140	12.415420	-57.626495	332.290	0.110	-0.480	-0.520	332.180	-2.100	-0.100																			1580004135.0	4.62	8.56
26/01/2020 02:02:16	26012020	260120	020216	332.400	12.415435	-57.626510	332.480	-0.190	0.140	-0.640	332.400	-1.600	-0.300																			1580004136.0	4.39	8.13
26/01/2020 02:02:17	26012020	260120	020217	332.530	12.415448	-57.626523	332.540	-0.340	0.580	-0.630	332.550	-1.000	-0.300																			1580004137.0	4.16	7.70
26/01/2020 02:02:18	26012020	260120	020218	332.570	12.415462	-57.626538	332.530	-0.280	0.600	-0.540	332.570	-0.800	-0.300																			1580004138.0	4.13	7.65
26/01/2020 02:02:19	26012020	260120	020219	332.560	12.415477	-57.626552	332.580	-0.100	0.220	-0.430	332.560	-1.000	-0.200																			1580004139.0	4.31	7.98
26/01/2020 02:02:20	26012020	260120	020220	332.660	12.415493	-57.626563	332.750	0.080	-0.270	-0.280	332.660	-1.500	-0.100																			1580004140.0	4.59	8.50
26/01/2020 02:02:21	26012020	260120	020221	332.810	12.415512	-57.626577	332.880	0.160	-0.470	-0.010	332.840	-1.800	0.100																			1580004141.0	4.76	8.82
26/01/2020 02:02:22	26012020	260120	020222	332.890	12.415530	-57.626588	332.840	0.150	-0.320	0.400	332.890	-1.800	0.500																			1580004142.0	4.63	8.57
26/01/2020 02:02:23	26012020	260120	020223	332.810	12.415548	-57.626598	332.740	0.120	-0.210	0.680	332.810	-1.600	0.900																			1580004143.0	4.21	7.80
26/01/2020 02:02:24	26012020	260120	020224	332.710	12.415563	-57.626607	332.760	0.130	-0.310	0.540	332.710	-1.700	1.000																			1580004144.0	4.06	7.52
26/01/2020 02:02:25	26012020	260120	020225	332.750	12.415582	-57.626618	332.770	0.130	-0.290	0.090	332.750	-1.700	0.600																			1580004145.0	4.41	8.17
26/01/2020 02:02:26	26012020	260120	020226	332.760	12.415597	-57.626633	332.700	-0.020	-0.070	-0.470	332.750	-1.600	0.100																			1580004146.0	4.64	8.59
26/01/2020 02:02:27	26012020	260120	020227	332.700	12.415612	-57.626648	332.610	-0.240	0.130	-0.960	332.680	-1.300	-0.400																			1580004147.0	4.51	8.35
26/01/2020 02:02:28	26012020	260120	020228	332.630	12.415627	-57.626663	332.590	-0.330	0.120	-1.220	332.630	-1.300	-0.800																			1580004148.0	4.43	8.20
26/01/2020 02:02:29	26012020	260120	020229	332.630	12.415640	-57.626680	332.590	-0.170	-0.010	-1.130	332.630	-1.400	-0.900																			1580004149.0	4.51	8.35
26/01/2020 02:02:30	26012020	260120	020230	332.630	12.415657	-57.626693	332.550	0.090	-0.100	-0.730	332.630	-1.500	-0.600																			1580004150.0	4.55	8.43
26/01/2020 02:02:31	26012020	260120	020231	332.590	12.415673	-57.626705	332.450	0.230	-0.130	-0.250	332.570	-1.500	-0.200																			1580004151.0	4.45	8.24
26/01/2020 02:02:32	26012020	260120	020232	332.440	12.415692	-57.626713	332.300	0.140	-0.190	0.090	332.440	-1.600	0.300																			1580004152.0	4.36	8.07
26/01/2020 02:02:33	26012020	260120	020233	332.320	12.415710	-57.626722	332.140	-0.090	-0.270	0.230	332.280	-1.600	0.500																			1580004153.0	4.32	8.00
26/01/2020 02:02:34	26012020	260120	020234	332.110	12.415728	-57.626733	331.970	-0.230	-0.220	0.280	332.110	-1.700	0.600																			1580004154.0	4.40	8.15
26/01/2020 02:02:35	26012020	260120	020235	331.970	12.415745	-57.626747	331.810	-0.170	-0.060	0.330	331.970	-1.500	0.600																			1580004155.0	4.44	8.22
26/01/2020 02:02:36	26012020	260120	020236	331.810	12.415760	-57.626758	331.690	-0.010	0.060	0.340	331.780	-1.400	0.700																			1580004156.0	4.32	8.00
26/01/2020 02:02:37	26012020	260120	020237	331.710	12.415775	-57.626772	331.630	0.090	0.000	0.210	331.710	-1.400	0.600																			1580004157.0	4.22	7.82
26/01/2020 02:02:38	26012020	260120	020238	331.640	12.415792	-57.626783	331.560	0.090	-0.190	-0.050	331.640	-1.500	0.400																			1580004158.0	4.31	7.98
26/01/2020 02:02:39	26012020	260120	020239	331.580	12.415808	-57.626797	331.400	0.070	-0.300	-0.270	331.560	-1.700	0.100																			1580004159.0	4.50	8.33
26/01/2020 02:02:40	26012020	260120	020240	331.400	12.415825	-57.626810	331.090	0.090	-0.250	-0.340	331.350	-1.700	-0.000																			1580004160.0	4.58	8.48
26/01/2020 02:02:41	26012020	260120	020241	331.050	12.415842	-57.626822	330.710	0.160	-0.200	-0.370	330.970	-1.600	-0.000																			1580004161.0	4.45	8.24
26/01/2020 02:02:42	26012020	260120	020242	330.650	12.415857	-57.626835	330.500	0.210	-0.270	-0.470	330.650	-1.600	-0.100																			1580004162.0	4.36	8.07
26/01/2020 02:02:43	26012020	260120	020243	330.520	12.415875	-57.626848	330.380	0.140	-0.230	-0.520	330.500	-1.700	-0.200																			1580004163.0	4.48	8.30
26/01/2020 02:02:44	26012020	260120	020244	330.380	12.415892	-57.626860	330.200	-0.090	0.050	-0.440	330.380	-1.500	-0.200																			1580004164.0	4.57	8.46
26/01/2020 02:02:45	26012020	260120	020245	330.200	12.415908	-57.626872	329.870	-0.370	0.380	-0.290	330.140	-1.200	-0.100																			1580004165.0	4.32	8.00
26/01/2020 02:02:46	26012020	260120	020246	329.860	12.415923	-57.626883	329.470	-0.480	0.470	-0.120	329.770	-0.900	0.100																			1580004166.0	4.07	7.54
26/01/2020 02:02:47	26012020	260120	020247	329.450	12.415938	-57.626895	329.120	-0.320	0.170	0.040	329.380	-1.000	0.300																			1580004167.0	4.07	7.54
26/01/2020 02:02:48	26012020	260120	020248	329.060	12.415955	-57.626907	328.870	-0.000	-0.390	0.080	329.060	-1.500	0.400																			1580004168.0	4.35	8.06
26/01/2020 02:02:49	26012020	260120	020249	328.890	12.415973	-57.626920	328.640	0.210	-0.740	0.080	328.890	-2.000	0.400																			1580004169.0	4.69	8.69
26/01/2020 02:02:50	26012020	260120	020250	328.590	12.415992	-57.626933	328.340	0.210	-0.640	0.160	328.590	-2.100	0.400																			1580004170.0	4.79	8.87
26/01/2020 02:02:51	26012020	260120	020251	328.320	12.416008	-57.626945	327.990	0.110	-0.300	0.240	328.260	-1.900	0.500																			1580004171.0	4.48	8.30
26/01/2020 02:02:52	26012020	260120	020252	327.900	12.416023	-57.626957	327.640	0.130	-0.090	0.260	327.900	-1.600	0.600																			1580004172.0	4.14	7.67
26/01/2020 02:02:53	26012020	260120	020253	327.610	12.416038	-57.626970	327.280	0.230	-0.010	0.240	327.540	-1.400	0.600																			1580004173.0	4.18	7.74
26/01/2020 02:02:54	26012020	260120	020254	327.190	12.416055	-57.626982	326.920	0.190	0.090	0.140	327.190	-1.400	0.500																			1580004174.0	4.43	8.20
26/01/2020 02:02:55	26012020	260120	020255	326.910	12.416072	-57.626995	326.570	-0.030	0.250	0.030	326.840	-1.200	0.400																			1580004175.0	4.48	8.30
26/01/2020 02:02:56	26012020	260120	020256	326.490	12.416088	-57.627007	326.220	-0.270	0.290	-0.050	326.490	-1.100	0.300																			1580004176.0	4.31	7.98
26/01/2020 02:02:57	26012020	260120	020257	326.200	12.416103	-57.627020	325.790	-0.360	0.080	-0.150	326.110	-1.200	0.200																			1580004177.0	4.23	7.83
26/01/2020 02:02:58	26012020	260120	020258	325.680	12.416118	-57.627033	325.350	-0.230	-0.320	-0.320	325.680	-1.500	0.100																			1580004178.0	4.40	8.15
26/01/2020 02:02:59	26012020	260120	020259	325.310	12.416135	-57.627048	324.870	0.020	-0.590	-0.410	325.220	-1.900	-0.100	1015.40	25.40	25.50	21.40	21.40	-1.00	78.00	78.00	392.00	24.50	46.00	6.00	37.00	4.70	14	3319.00	27.40	27.40	1580004179.0	4.68	8.67
26/01/2020 02:03:00	26012020	260120	020300	324.710	12.416152	-57.627063	324.390	0.210	-0.530	-0.330	324.710	-2.000	-0.100																			1580004180.0	4.78	8.85
26/01/2020 02:03:01	26012020	260120	020301	324.350	12.416167	-57.627077	324.050	0.230	-0.260	-0.180	324.350	-1.800	0.100																			1580004181.0	4.52	8.37
26/01/2020 02:03:02	26012020	260120	020302	324.040	12.416183	-57.627088	323.780	0.080	0.070	0.020	323.990	-1.500	0.200																			1580004182.0	4.23	7.83
26/01/2020 02:03:03	26012020	260120	020303	323.750	12.416198	-57.627100	323.370	-0.120	0.230	0.320	323.750	-1.200	0.500																			1580004183.0	4.13	7.65
26/01/2020 02:03:04	26012020	260120	020304	323.310	12.416215	-57.627112	322.820	-0.210	0.160	0.590	323.210	-1.200	0.800																			1580004184.0	4.17	7.72
26/01/2020 02:03:05	26012020	260120	020305	322.760	12.416230	-57.627123	322.330	-0.120	-0.010	0.720	322.650	-1.300	1.000																			1580004185.0	4.40	8.15
26/01/2020 02:03:06	26012020	260120	020306	322.250	12.416247	-57.627137	321.890	0.030	-0.200	0.710	322.160	-1.500	1.100																			1580004186.0	4.54	8.41
26/01/2020 02:03:07	26012020	260120	020307	321.850	12.416263	-57.627152	321.630	0.060	-0.320	0.470	321.790	-1.700	0.900																			1580004187.0	4.58	8.48
26/01/2020 02:03:08	26012020	260120	020308	321.620	12.416280	-57.627165	321.480	-0.010	-0.300	0.140	321.590	-1.700	0.600																			1580004188.0	4.52	8.37
26/01/2020 02:03:09	26012020	260120	020309	321.470	12.416293	-57.627180	321.180	-0.030	-0.070	0.090	321.420	-1.600	0.400																			1580004189.0	4.49	8.32
26/01/2020 02:03:10	26012020	260120	020310	321.060	12.416308	-57.627195	320.730	0.100	0.080	0.290	321.060	-1.400	0.500																			1580004190.0	4.31	7.98
26/01/2020 02:03:11	26012020	260120	020311	320.680	12.416322	-57.627208	320.260	0.230	-0.110	0.380	320.590	-1.400	0.700																			1580004191.0	4.18	7.74
26/01/2020 02:03:12	26012020	260120	020312	320.220	12.416338	-57.627222	319.890	0.210	-0.420	0.270	320.140	-1.700	0.700																			1580004192.0	4.48	8.30
26/01/2020 02:03:13	26012020	260120	020313	319.880	12.416355	-57.627237	319.670	0.030	-0.450	0.070	319.830	-1.900	0.500																			1580004193.0	4.78	8.85
26/01/2020 02:03:14	26012020	260120	020314	319.680	12.416370	-57.627252	319.550	-0.160	-0.150	-0.100	319.650	-1.700	0.300																			1580004194.0	4.71	8.72
26/01/2020 02:03:15	26012020	260120	020315	319.560	12.416383	-57.627268	319.440	-0.160	0.200	-0.160	319.540	-1.400	0.200																			1580004195.0	4.38	8.11
26/01/2020 02:03:16	26012020	260120	020316	319.450	12.416397	-57.627283	319.300	-0.010	0.310	-0.020	319.420	-1.100	0.200																			1580004196.0	4.17	7.72
26/01/2020 02:03:17	26012020	260120	020317	319.300	12.416412	-57.627297	319.130	0.090	0.120	0.220	319.260	-1.200	0.400																			1580004197.0	4.23	7.83
26/01/2020 02:03:18	26012020	260120	020318	319.080	12.416428	-57.627310	318.950	0.020	-0.130	0.410	319.080	-1.400	0.600																			1580004198.0	4.51	8.35
26/01/2020 02:03:19	26012020	260120	020319	318.940	12.416445	-57.627323	318.770	-0.140	-0.210	0.570	318.910	-1.600	0.800																			1580004199.0	4.68	8.67
26/01/2020 02:03:20	26012020	260120	020320	318.750	12.416460	-57.627338	318.510	-0.230	-0.170	0.700	318.700	-1.600	1.000																			1580004200.0	4.54	8.41
26/01/2020 02:03:21	26012020	260120	020321	318.480	12.416475	-57.627352	318.260	-0.150	-0.210	0.740	318.420	-1.600	1.100																			1580004201.0	4.35	8.06
26/01/2020 02:03:22	26012020	260120	020322	318.230	12.416488	-57.627367	318.170	0.060	-0.400	0.550	318.230	-1.700	1.000																			1580004202.0	4.35	8.06
26/01/2020 02:03:23	26012020	260120	020323	318.200	12.416503	-57.627383	318.200	0.220	-0.480	0.310	318.200	-1.900	0.800																			1580004203.0	4.57	8.46
26/01/2020 02:03:24	26012020	260120	020324	318.240	12.416518	-57.627400	318.260	0.160	-0.280	0.100	318.260	-1.800	0.500																			1580004204.0	4.68	8.67
26/01/2020 02:03:25	26012020	260120	020325	318.310	12.416532	-57.627415	318.340	-0.060	0.080	-0.060	318.310	-1.500	0.300																			1580004205.0	4.48	8.30
26/01/2020 02:03:26	26012020	260120	020326	318.390	12.416545	-57.627430	318.410	-0.180	0.280	-0.150	318.400	-1.200	0.200																			1580004206.0	4.21	7.80
26/01/2020 02:03:27	26012020	260120	020327	318.440	12.416557	-57.627445	318.320	-0.040	0.240	-0.060	318.440	-1.100	0.200																			1580004207.0	4.21	7.80
26/01/2020 02:03:28	26012020	260120	020328	318.330	12.416572	-57.627462	318.100	0.290	-0.010	0.220	318.290	-1.300	0.400																			1580004208.0	4.43	8.20
26/01/2020 02:03:29	26012020	260120	020329	318.100	12.416587	-57.627475	317.940	0.480	-0.390	0.410	318.070	-1.600	0.700																			1580004209.0	4.60	8.52
26/01/2020 02:03:30	26012020	260120	020330	317.970	12.416605	-57.627490	317.930	0.330	-0.600	0.430	317.960	-1.900	0.800																			1580004210.0	4.77	8.83
26/01/2020 02:03:31	26012020	260120	020331	317.980	12.416620	-57.627505	318.000	-0.100	-0.410	0.290	318.000	-2.000	0.700																			1580004211.0	4.74	8.78
26/01/2020 02:03:32	26012020	260120	020332	318.060	12.416635	-57.627520	318.070	-0.500	0.050	0.060	318.070	-1.600	0.500																			1580004212.0	4.42	8.19
26/01/2020 02:03:33	26012020	260120	020333	318.120	12.416647	-57.627535	318.120	-0.590	0.420	-0.150	318.120	-1.100	0.300																			1580004213.0	4.11	7.61
26/01/2020 02:03:34	26012020	260120	020334	318.190	12.416657	-57.627552	318.200	-0.390	0.430	-0.250	318.190	-0.900	0.100																			1580004214.0	4.02	7.45
26/01/2020 02:03:35	26012020	260120	020335	318.250	12.416668	-57.627567	318.280	-0.130	0.150	-0.190	318.270	-1.100	0.100																			1580004215.0	4.20	7.78
26/01/2020 02:03:36	26012020	260120	020336	318.310	12.416682	-57.627583	318.290	0.030	-0.250	-0.030	318.320	-1.500	0.200																			1580004216.0	4.44	8.22
26/01/2020 02:03:37	26012020	260120	020337	318.330	12.416697	-57.627598	318.290	0.110	-0.600	0.140	318.320	-1.800	0.400																			1580004217.0	4.57	8.46
26/01/2020 02:03:38	26012020	260120	020338	318.320	12.416712	-57.627613	318.340	0.250	-0.760	0.320	318.330	-2.100	0.600																			1580004218.0	4.59	8.50
26/01/2020 02:03:39	26012020	260120	020339	318.360	12.416727	-57.627628	318.450	0.420	-0.700	0.500	318.360	-2.100	0.800																			1580004219.0	4.50	8.33
26/01/2020 02:03:40	26012020	260120	020340	318.500	12.416742	-57.627643	318.660	0.460	-0.480	0.580	318.550	-2.000	0.900																			1580004220.0	4.40	8.15
26/01/2020 02:03:41	26012020	260120	020341	318.720	12.416757	-57.627657	318.860	0.250	-0.040	0.570	318.760	-1.700	0.900																			1580004221.0	4.35	8.06
26/01/2020 02:03:42	26012020	260120	020342	318.890	12.416770	-57.627672	318.920	-0.140	0.550	0.460	318.910	-1.100	0.900																			1580004222.0	4.26	7.89
26/01/2020 02:03:43	26012020	260120	020343	318.930	12.416783	-57.627685	318.960	-0.490	0.880	0.220	318.930	-0.600	0.700																			1580004223.0	4.01	7.43
26/01/2020 02:03:44	26012020	260120	020344	318.990	12.416795	-57.627700	319.110	-0.560	0.660	-0.110	319.020	-0.600	0.400																			1580004224.0	3.91	7.24
26/01/2020 02:03:45	26012020	260120	020345	319.190	12.416805	-57.627717	319.340	-0.340	0.100	-0.290	319.240	-1.000	0.100																			1580004225.0	4.23	7.83
26/01/2020 02:03:46	26012020	260120	020346	319.400	12.416818	-57.627733	319.470	-0.010	-0.450	-0.270	319.440	-1.600	0.000																			1580004226.0	4.59	8.50
26/01/2020 02:03:47	26012020	260120	020347	319.510	12.416832	-57.627750	319.510	0.240	-0.790	-0.190	319.520	-2.100	0.100																			1580004227.0	4.63	8.57
26/01/2020 02:03:48	26012020	260120	020348	319.540	12.416847	-57.627765	319.620	0.370	-0.930	-0.230	319.560	-2.300	0.100																			1580004228.0	4.47	8.28
26/01/2020 02:03:49	26012020	260120	020349	319.690	12.416860	-57.627780	319.960	0.370	-0.880	-0.400	319.750	-2.300	0.000																			1580004229.0	4.32	8.00
26/01/2020 02:03:50	26012020	260120	020350	320.070	12.416875	-57.627795	320.450	0.230	-0.520	-0.490	320.170	-2.100	-0.100																			1580004230.0	4.29	7.95
26/01/2020 02:03:51	26012020	260120	020351	320.570	12.416888	-57.627810	320.910	-0.040	0.190	-0.340	320.570	-1.600	-0.100																			1580004231.0	4.24	7.85
26/01/2020 02:03:52	26012020	260120	020352	321.020	12.416900	-57.627823	321.180	-0.360	0.850	-0.010	321.080	-0.800	0.100																			1580004232.0	3.93	7.28
26/01/2020 02:03:53	26012020	260120	020353	321.230	12.416912	-57.627835	321.260	-0.540	1.000	0.350	321.250	-0.400	0.500																			1580004233.0	3.66	6.78
26/01/2020 02:03:54	26012020	260120	020354	321.290	12.416923	-57.627848	321.250	-0.440	0.510	0.550	321.290	-0.600	0.800																			1580004234.0	3.80	7.04
26/01/2020 02:03:55	26012020	260120	020355	321.280	12.416938	-57.627863	321.320	-0.110	-0.310	0.510	321.290	-1.300	0.900																			1580004235.0	4.27	7.91
26/01/2020 02:03:56	26012020	260120	020356	321.380	12.416952	-57.627880	321.570	0.290	-0.950	0.310	321.420	-2.100	0.800																			1580004236.0	4.71	8.72
26/01/2020 02:03:57	26012020	260120	020357	321.670	12.416967	-57.627898	321.960	0.530	-1.020	0.150	321.740	-2.500	0.500																			1580004237.0	4.77	8.83
26/01/2020 02:03:58	26012020	260120	020358	322.090	12.416980	-57.627913	322.440	0.500	-0.580	0.130	322.190	-2.200	0.400																			1580004238.0	4.35	8.06
26/01/2020 02:03:59	26012020	260120	020359	322.560	12.416993	-57.627925	322.850	0.190	0.010	0.160	322.650	-1.700	0.500	1015.40	25.40	25.50	21.40	21.40	-1.00	78.00	78.00	392.00	24.60	55.00	6.20	35.00	5.20	14	3464.00	27.40	27.40	1580004239.0	3.80	7.04
26/01/2020 02:04:00	26012020	260120	020400	322.940	12.417005	-57.627935	323.130	-0.210	0.390	-0.020	323.000	-1.100	0.400																			1580004240.0	3.52	6.52
26/01/2020 02:04:01	26012020	260120	020401	323.200	12.417017	-57.627948	323.330	-0.410	0.410	-0.380	323.250	-1.000	0.100																			1580004241.0	3.68	6.82
26/01/2020 02:04:02	26012020	260120	020402	323.400	12.417028	-57.627965	323.450	-0.290	0.110	-0.680	323.420	-1.100	-0.200																			1580004242.0	4.12	7.63
26/01/2020 02:04:03	26012020	260120	020403	323.510	12.417040	-57.627982	323.500	-0.000	-0.260	-0.700	323.520	-1.500	-0.400																			1580004243.0	4.46	8.26
26/01/2020 02:04:04	26012020	260120	020404	323.570	12.417053	-57.627998	323.630	0.180	-0.430	-0.490	323.580	-1.800	-0.300																			1580004244.0	4.53	8.39
26/01/2020 02:04:05	26012020	260120	020405	323.730	12.417067	-57.628013	323.980	0.130	-0.290	-0.240	323.790	-1.800	-0.000																			1580004245.0	4.30	7.96
26/01/2020 02:04:06	26012020	260120	020406	324.110	12.417082	-57.628025	324.440	-0.060	0.020	-0.100	324.200	-1.500	0.200																			1580004246.0	3.94	7.30
26/01/2020 02:04:07	26012020	260120	020407	324.560	12.417093	-57.628037	324.800	-0.200	0.230	0.000	324.640	-1.200	0.300																			1580004247.0	3.63	6.72
26/01/2020 02:04:08	26012020	260120	020408	324.880	12.417105	-57.628048	324.990	-0.210	0.150	0.150	324.930	-1.200	0.400																			1580004248.0	3.60	6.67
26/01/2020 02:04:09	26012020	260120	020409	325.030	12.417118	-57.628062	325.110	-0.100	-0.160	0.290	325.050	-1.400	0.600																			1580004249.0	3.83	7.09
26/01/2020 02:04:10	26012020	260120	020410	325.160	12.417132	-57.628075	325.340	0.070	-0.490	0.290	325.200	-1.700	0.600																			1580004250.0	4.09	7.57
26/01/2020 02:04:11	26012020	260120	020411	325.420	12.417145	-57.628090	325.680	0.220	-0.600	0.220	325.480	-2.000	0.600																			1580004251.0	4.23	7.83
26/01/2020 02:04:12	26012020	260120	020412	325.760	12.417158	-57.628103	326.040	0.280	-0.440	0.170	325.830	-1.900	0.500																			1580004252.0	4.17	7.72
26/01/2020 02:04:13	26012020	260120	020413	326.100	12.417172	-57.628117	326.310	0.190	-0.040	0.140	326.160	-1.600	0.500																			1580004253.0	3.93	7.28
26/01/2020 02:04:14	26012020	260120	020414	326.350	12.417183	-57.628128	326.470	-0.020	0.380	0.130	326.390	-1.200	0.500																			1580004254.0	3.68	6.82
26/01/2020 02:04:15	26012020	260120	020415	326.490	12.417195	-57.628140	326.580	-0.200	0.570	0.050	326.510	-0.900	0.400																			1580004255.0	3.50	6.48
26/01/2020 02:04:16	26012020	260120	020416	326.610	12.417207	-57.628153	326.770	-0.190	0.300	-0.140	326.650	-0.900	0.300																			1580004256.0	3.51	6.50
26/01/2020 02:04:17	26012020	260120	020417	326.790	12.417218	-57.628167	327.080	-0.000	-0.310	-0.390	326.840	-1.400	0.100																			1580004257.0	3.79	7.02
26/01/2020 02:04:18	26012020	260120	020418	327.180	12.417232	-57.628180	327.430	0.160	-0.720	-0.580	327.250	-2.000	-0.200																			1580004258.0	4.21	7.80
26/01/2020 02:04:19	26012020	260120	020419	327.450	12.417247	-57.628195	327.640	0.160	-0.630	-0.610	327.500	-2.100	-0.300																			1580004259.0	4.33	8.02
26/01/2020 02:04:20	26012020	260120	020420	327.700	12.417260	-57.628208	327.780	0.060	-0.250	-0.460	327.730	-1.800	-0.200																			1580004260.0	3.95	7.32
26/01/2020 02:04:21	26012020	260120	020421	327.840	12.417270	-57.628220	327.960	-0.010	-0.000	-0.270	327.870	-1.500	-0.000																			1580004261.0	3.47	6.43
26/01/2020 02:04:22	26012020	260120	020422	328.030	12.417282	-57.628230	328.180	-0.070	0.090	-0.100	328.080	-1.300	0.100																			1580004262.0	3.42	6.33
26/01/2020 02:04:23	26012020	260120	020423	328.250	12.417295	-57.628242	328.360	-0.160	0.200	0.100	328.290	-1.300	0.300																			1580004263.0	3.64	6.74
26/01/2020 02:04:24	26012020	260120	020424	328.420	12.417308	-57.628253	328.560	-0.210	0.210	0.250	328.460	-1.200	0.500																			1580004264.0	3.68	6.82
26/01/2020 02:04:25	26012020	260120	020425	328.650	12.417320	-57.628267	328.850	-0.090	-0.070	0.300	328.700	-1.300	0.600																			1580004265.0	3.60	6.67
26/01/2020 02:04:26	26012020	260120	020426	328.940	12.417332	-57.628278	329.160	0.160	-0.450	0.290	329.000	-1.700	0.600																			1580004266.0	3.78	7.00
26/01/2020 02:04:27	26012020	260120	020427	329.250	12.417347	-57.628292	329.470	0.310	-0.560	0.220	329.320	-2.000	0.600																			1580004267.0	3.98	7.37
26/01/2020 02:04:28	26012020	260120	020428	329.550	12.417360	-57.628303	329.650	0.200	-0.240	0.250	329.600	-1.800	0.500																			1580004268.0	3.89	7.20
26/01/2020 02:04:29	26012020	260120	020429	329.680	12.417372	-57.628313	329.700	-0.070	0.290	0.390	329.700	-1.400	0.600																			1580004269.0	3.52	6.52
26/01/2020 02:04:30	26012020	260120	020430	329.730	12.417383	-57.628323	329.720	-0.230	0.500	0.450	329.730	-0.900	0.800																			1580004270.0	3.11	5.76
26/01/2020 02:04:31	26012020	260120	020431	329.760	12.417393	-57.628333	329.860	-0.120	0.130	0.220	329.780	-1.000	0.700																			1580004271.0	3.11	5.76
26/01/2020 02:04:32	26012020	260120	020432	329.920	12.417405	-57.628345	330.120	0.140	-0.510	-0.280	329.960	-1.600	0.300																			1580004272.0	3.64	6.74
26/01/2020 02:04:33	26012020	260120	020433	330.210	12.417418	-57.628360	330.490	0.250	-0.880	-0.840	330.290	-2.200	-0.200																			1580004273.0	4.18	7.74
26/01/2020 02:04:34	26012020	260120	020434	330.600	12.417432	-57.628375	330.850	0.130	-0.650	-1.180	330.670	-2.200	-0.700																			1580004274.0	4.26	7.89
26/01/2020 02:04:35	26012020	260120	020435	330.970	12.417443	-57.628390	331.120	-0.080	-0.030	-1.090	331.030	-1.800	-0.900																			1580004275.0	3.81	7.06
26/01/2020 02:04:36	26012020	260120	020436	331.210	12.417453	-57.628400	331.230	-0.150	0.540	-0.610	331.240	-1.100	-0.500																			1580004276.0	3.20	5.93
26/01/2020 02:04:37	26012020	260120	020437	331.290	12.417463	-57.628410	331.270	-0.050	0.630	0.000	331.300	-0.700	0.000																			1580004277.0	2.88	5.33
26/01/2020 02:04:38	26012020	260120	020438	331.320	12.417475	-57.628417	331.370	0.090	0.200	0.460	331.330	-0.900	0.600																			1580004278.0	3.09	5.72
26/01/2020 02:04:39	26012020	260120	020439	331.430	12.417490	-57.628425	331.570	0.140	-0.380	0.630	331.460	-1.500	0.900																			1580004279.0	3.57	6.61
26/01/2020 02:04:40	26012020	260120	020440	331.640	12.417505	-57.628435	331.830	0.030	-0.620	0.600	331.690	-2.000	1.000																			1580004280.0	3.89	7.20
26/01/2020 02:04:41	26012020	260120	020441	331.850	12.417518	-57.628447	332.090	-0.170	-0.410	0.490	331.900	-2.000	0.900																			1580004281.0	3.77	6.98
26/01/2020 02:04:42	26012020	260120	020442	332.160	12.417530	-57.628457	332.310	-0.330	-0.070	0.310	332.210	-1.600	0.700																			1580004282.0	3.33	6.17
26/01/2020 02:04:43	26012020	260120	020443	332.330	12.417540	-57.628468	332.460	-0.310	0.080	0.090	332.360	-1.400	0.500																			1580004283.0	3.09	5.72
26/01/2020 02:04:44	26012020	260120	020444	332.510	12.417548	-57.628480	332.680	-0.060	-0.020	-0.150	332.550	-1.300	0.300																			1580004284.0	3.25	6.02
26/01/2020 02:04:45	26012020	260120	020445	332.760	12.417560	-57.628493	332.990	0.260	-0.180	-0.310	332.830	-1.500	0.100																			1580004285.0	3.53	6.54
26/01/2020 02:04:46	26012020	260120	020446	333.070	12.417572	-57.628505	333.200	0.400	-0.160	-0.250	333.130	-1.600	0.000																			1580004286.0	3.64	6.74
26/01/2020 02:04:47	26012020	260120	020447	333.260	12.417585	-57.628515	333.260	0.220	0.000	-0.090	333.270	-1.500	0.200																			1580004287.0	3.44	6.37
26/01/2020 02:04:48	26012020	260120	020448	333.290	12.417597	-57.628523	333.350	-0.040	0.050	-0.020	333.310	-1.300	0.300																			1580004288.0	3.11	5.76
26/01/2020 02:04:49	26012020	260120	020449	333.410	12.417608	-57.628532	333.570	-0.110	-0.140	-0.060	333.450	-1.400	0.300																			1580004289.0	3.03	5.61
26/01/2020 02:04:50	26012020	260120	020450	333.630	12.417618	-57.628542	333.790	0.070	-0.360	-0.080	333.670	-1.700	0.300																			1580004290.0	3.32	6.15
26/01/2020 02:04:51	26012020	260120	020451	333.840	12.417632	-57.628553	333.990	0.260	-0.410	-0.090	333.890	-1.800	0.200																			1580004291.0	3.53	6.54
26/01/2020 02:04:52	26012020	260120	020452	334.050	12.417643	-57.628563	334.180	0.230	-0.250	-0.090	334.090	-1.700	0.200																			1580004292.0	3.44	6.37
26/01/2020 02:04:53	26012020	260120	020453	334.220	12.417655	-57.628573	334.330	-0.050	0.080	-0.030	334.250	-1.500	0.300																			1580004293.0	3.23	5.98
26/01/2020 02:04:54	26012020	260120	020454	334.360	12.417667	-57.628582	334.470	-0.370	0.400	0.060	334.390	-1.100	0.400																			1580004294.0	3.00	5.56
26/01/2020 02:04:55	26012020	260120	020455	334.490	12.417677	-57.628592	334.620	-0.470	0.450	0.110	334.520	-0.900	0.400																			1580004295.0	2.84	5.26
26/01/2020 02:04:56	26012020	260120	020456	334.660	12.417685	-57.628602	334.800	-0.280	0.130	0.120	334.700	-1.100	0.400																			1580004296.0	2.91	5.39
26/01/2020 02:04:57	26012020	260120	020457	334.840	12.417697	-57.628610	334.950	-0.010	-0.310	0.120	334.870	-1.500	0.500																			1580004297.0	3.16	5.85
26/01/2020 02:04:58	26012020	260120	020458	334.980	12.417708	-57.628620	335.070	0.110	-0.600	0.120	335.010	-1.900	0.400																			1580004298.0	3.35	6.20
26/01/2020 02:04:59	26012020	260120	020459	335.100	12.417722	-57.628630	335.220	0.090	-0.630	0.060	335.130	-2.000	0.400	1015.40	25.40	25.50	21.40	21.30	-1.00	78.00	77.00	392.00	24.60	42.00	5.90	27.00	4.70	14	3397.00	27.40	27.40	1580004299.0	3.30	6.11
26/01/2020 02:05:00	26012020	260120	020500	335.270	12.417733	-57.628638	335.490	0.060	-0.490	-0.090	335.310	-2.000	0.300																			1580004300.0	3.11	5.76
26/01/2020 02:05:01	26012020	260120	020501	335.520	12.417743	-57.628648	335.730	0.120	-0.230	-0.220	335.570	-1.800	0.200																			1580004301.0	3.04	5.63
26/01/2020 02:05:02	26012020	260120	020502	335.760	12.417752	-57.628660	335.910	0.210	0.090	-0.160	335.790	-1.500	0.100																			1580004302.0	3.05	5.65
26/01/2020 02:05:03	26012020	260120	020503	335.920	12.417762	-57.628670	336.010	0.250	0.290	0.060	335.940	-1.200	0.300																			1580004303.0	2.92	5.41
26/01/2020 02:05:04	26012020	260120	020504	336.020	12.417773	-57.628677	336.150	0.170	0.210	0.200	336.040	-1.100	0.500																			1580004304.0	2.82	5.22
26/01/2020 02:05:05	26012020	260120	020505	336.120	12.417785	-57.628685	336.420	0.030	-0.040	0.090	336.170	-1.300	0.500																			1580004305.0	2.91	5.39
26/01/2020 02:05:06	26012020	260120	020506	336.460	12.417797	-57.628693	336.750	-0.090	-0.170	-0.130	336.540	-1.500	0.300																			1580004306.0	3.14	5.82
26/01/2020 02:05:07	26012020	260120	020507	336.800	12.417807	-57.628703	336.960	-0.210	-0.010	-0.140	336.850	-1.500	0.200																			1580004307.0	3.16	5.85
26/01/2020 02:05:08	26012020	260120	020508	336.990	12.417817	-57.628712	337.020	-0.290	0.220	0.080	337.000	-1.300	0.300																			1580004308.0	2.81	5.20
26/01/2020 02:05:09	26012020	260120	020509	337.030	12.417827	-57.628720	337.040	-0.270	0.150	0.280	337.040	-1.200	0.500																			1580004309.0	2.47	4.57
26/01/2020 02:05:10	26012020	260120	020510	337.070	12.417835	-57.628727	337.160	-0.090	-0.230	0.290	337.080	-1.400	0.700																			1580004310.0	2.51	4.65
26/01/2020 02:05:11	26012020	260120	020511	337.200	12.417845	-57.628735	337.410	0.150	-0.660	0.070	337.240	-1.900	0.500																			1580004311.0	2.89	5.35
26/01/2020 02:05:12	26012020	260120	020512	337.490	12.417857	-57.628745	337.790	0.260	-0.810	-0.260	337.560	-2.200	0.200																			1580004312.0	3.15	5.83
26/01/2020 02:05:13	26012020	260120	020513	337.890	12.417867	-57.628755	338.220	0.150	-0.530	-0.510	337.980	-2.100	-0.100																			1580004313.0	3.14	5.82
26/01/2020 02:05:14	26012020	260120	020514	338.310	12.417877	-57.628765	338.530	-0.070	0.060	-0.500	338.380	-1.600	-0.200																			1580004314.0	2.89	5.35
26/01/2020 02:05:15	26012020	260120	020515	338.610	12.417885	-57.628773	338.720	-0.210	0.580	-0.170	338.640	-1.000	-0.000																			1580004315.0	2.52	4.67
26/01/2020 02:05:16	26012020	260120	020516	338.780	12.417892	-57.628782	338.940	-0.220	0.600	0.140	338.820	-0.700	0.300																			1580004316.0	2.17	4.02
26/01/2020 02:05:17	26012020	260120	020517	339.000	12.417900	-57.628787	339.240	-0.100	0.140	0.220	339.060	-1.000	0.500																			1580004317.0	2.25	4.17
26/01/2020 02:05:18	26012020	260120	020518	339.320	12.417912	-57.628793	339.580	0.050	-0.320	0.210	339.390	-1.500	0.500																			1580004318.0	2.74	5.07
26/01/2020 02:05:19	26012020	260120	020519	339.640	12.417922	-57.628802	339.780	0.200	-0.420	0.380	339.690	-1.800	0.600																			1580004319.0	3.00	5.56
26/01/2020 02:05:20	26012020	260120	020520	339.810	12.417933	-57.628810	339.900	0.320	-0.350	0.600	339.840	-1.800	0.800																			1580004320.0	2.71	5.02
26/01/2020 02:05:21	26012020	260120	020521	339.950	12.417942	-57.628815	340.120	0.360	-0.350	0.590	339.980	-1.700	1.000																			1580004321.0	2.33	4.32
26/01/2020 02:05:22	26012020	260120	020522	340.200	12.417950	-57.628822	340.500	0.270	-0.350	0.270	340.270	-1.800	0.800																			1580004322.0	2.33	4.32
26/01/2020 02:05:23	26012020	260120	020523	340.610	12.417960	-57.628830	340.890	0.020	-0.130	-0.170	340.690	-1.700	0.400																			1580004323.0	2.53	4.69
26/01/2020 02:05:24	26012020	260120	020524	340.990	12.417968	-57.628838	341.160	-0.270	0.240	-0.510	341.050	-1.300	-0.000																			1580004324.0	2.58	4.78
26/01/2020 02:05:25	26012020	260120	020525	341.240	12.417975	-57.628848	341.340	-0.410	0.450	-0.660	341.280	-1.000	-0.300																			1580004325.0	2.49	4.61
26/01/2020 02:05:26	26012020	260120	020526	341.420	12.417982	-57.628857	341.550	-0.370	0.310	-0.700	341.460	-1.000	-0.400																			1580004326.0	2.37	4.39
26/01/2020 02:05:27	26012020	260120	020527	341.660	12.417988	-57.628865	341.860	-0.280	-0.080	-0.700	341.720	-1.300	-0.400																			1580004327.0	2.40	4.44
26/01/2020 02:05:28	26012020	260120	020528	341.970	12.417998	-57.628873	342.190	-0.240	-0.380	-0.530	342.040	-1.700	-0.300																			1580004328.0	2.57	4.76
26/01/2020 02:05:29	26012020	260120	020529	342.280	12.418007	-57.628882	342.490	-0.210	-0.390	-0.250	342.340	-1.800	-0.100																			1580004329.0	2.58	4.78
26/01/2020 02:05:30	26012020	260120	020530	342.570	12.418015	-57.628888	342.820	-0.060	-0.280	0.090	342.630	-1.700	0.300																			1580004330.0	2.25	4.17
26/01/2020 02:05:31	26012020	260120	020531	342.830	12.418023	-57.628893	343.240	0.220	-0.320	0.370	342.890	-1.700	0.600																			1580004331.0	1.93	3.57
26/01/2020 02:05:32	26012020	260120	020532	343.330	12.418030	-57.628898	343.710	0.480	-0.490	0.610	343.420	-1.800	0.800																			1580004332.0	1.97	3.65
26/01/2020 02:05:33	26012020	260120	020533	343.700	12.418040	-57.628902	343.980	0.550	-0.400	0.870	343.780	-1.900	1.100																			1580004333.0	2.25	4.17
26/01/2020 02:05:34	26012020	260120	020534	344.010	12.418050	-57.628907	344.010	0.400	0.040	1.100	344.020	-1.600	1.300																			1580004334.0	2.30	4.26
26/01/2020 02:05:35	26012020	260120	020535	344.000	12.418058	-57.628912	343.950	0.150	0.530	1.140	343.980	-1.100	1.500																			1580004335.0	1.95	3.61
26/01/2020 02:05:36	26012020	260120	020536	343.930	12.418063	-57.628917	344.010	-0.060	0.580	0.780	343.940	-0.800	1.400																			1580004336.0	1.68	3.11
26/01/2020 02:05:37	26012020	260120	020537	344.050	12.418070	-57.628923	344.360	-0.180	0.110	-0.060	344.110	-1.000	0.700																			1580004337.0	1.93	3.57
26/01/2020 02:05:38	26012020	260120	020538	344.450	12.418077	-57.628933	344.890	-0.260	-0.370	-1.040	344.560	-1.600	-0.200																			1580004338.0	2.64	4.89
26/01/2020 02:05:39	26012020	260120	020539	345.010	12.418083	-57.628947	345.380	-0.360	-0.370	-1.700	345.130	-1.800	-1.100																			1580004339.0	3.10	5.74
26/01/2020 02:05:40	26012020	260120	020540	345.500	12.418090	-57.628957	345.710	-0.470	-0.040	-1.810	345.580	-1.600	-1.500																			1580004340.0	2.76	5.11
26/01/2020 02:05:41	26012020	260120	020541	345.800	12.418095	-57.628965	345.890	-0.440	0.130	-1.460	345.840	-1.300	-1.300																			1580004341.0	1.99	3.69
26/01/2020 02:05:42	26012020	260120	020542	345.950	12.418100	-57.628972	345.970	-0.170	-0.090	-0.760	345.970	-1.300	-0.800																			1580004342.0	1.52	2.82
26/01/2020 02:05:43	26012020	260120	020543	346.010	12.418107	-57.628975	346.050	0.280	-0.510	0.180	346.020	-1.700	0.000																			1580004343.0	1.64	3.04
26/01/2020 02:05:44	26012020	260120	020544	346.080	12.418115	-57.628977	346.220	0.620	-0.810	1.070	346.100	-2.100	1.000																			1580004344.0	1.99	3.69
26/01/2020 02:05:45	26012020	260120	020545	346.260	12.418125	-57.628977	346.490	0.600	-0.680	1.560	346.310	-2.200	1.700																			1580004345.0	2.15	3.98
26/01/2020 02:05:46	26012020	260120	020546	346.530	12.418133	-57.628978	346.780	0.250	-0.140	1.570	346.590	-1.800	1.900																			1580004346.0	1.88	3.48
26/01/2020 02:05:47	26012020	260120	020547	346.810	12.418140	-57.628983	347.010	-0.130	0.500	1.270	346.850	-1.200	1.800																			1580004347.0	1.53	2.83
26/01/2020 02:05:48	26012020	260120	020548	347.040	12.418143	-57.628990	347.240	-0.300	0.820	0.850	347.080	-0.700	1.400																			1580004348.0	1.64	3.04
26/01/2020 02:05:49	26012020	260120	020549	347.270	12.418147	-57.628998	347.520	-0.220	0.590	0.290	347.340	-0.600	0.900																			1580004349.0	1.88	3.48
26/01/2020 02:05:50	26012020	260120	020550	347.570	12.418152	-57.629007	347.800	-0.060	0.030	-0.350	347.640	-1.100	0.300																			1580004350.0	2.13	3.94
26/01/2020 02:05:51	26012020	260120	020551	347.870	12.418158	-57.629015	348.000	0.030	-0.390	-0.730	347.920	-1.600	-0.300																			1580004351.0	2.37	4.39
26/01/2020 02:05:52	26012020	260120	020552	348.050	12.418165	-57.629023	348.090	0.020	-0.470	-0.750	348.080	-1.900	-0.500																			1580004352.0	2.23	4.13
26/01/2020 02:05:53	26012020	260120	020553	348.140	12.418170	-57.629030	348.150	-0.000	-0.410	-0.580	348.150	-1.800	-0.400																			1580004353.0	1.64	3.04
26/01/2020 02:05:54	26012020	260120	020554	348.210	12.418175	-57.629033	348.240	-0.020	-0.400	-0.400	348.220	-1.800	-0.200																			1580004354.0	1.22	2.26
26/01/2020 02:05:55	26012020	260120	020555	348.280	12.418180	-57.629037	348.400	-0.020	-0.430	-0.330	348.300	-1.800	-0.000																			1580004355.0	1.27	2.35
26/01/2020 02:05:56	26012020	260120	020556	348.480	12.418185	-57.629042	348.680	0.040	-0.350	-0.340	348.530	-1.800	-0.000																			1580004356.0	1.60	2.96
26/01/2020 02:05:57	26012020	260120	020557	348.760	12.418190	-57.629048	348.970	0.210	-0.140	-0.250	348.820	-1.700	0.000																			1580004357.0	1.88	3.48
26/01/2020 02:05:58	26012020	260120	020558	349.040	12.418195	-57.629055	349.220	0.340	0.110	0.060	349.090	-1.400	0.200																			1580004358.0	1.79	3.32
26/01/2020 02:05:59	26012020	260120	020559	349.270	12.418200	-57.629060	349.420	0.240	0.300	0.490	349.310	-1.200	0.600	1015.40	25.40	25.50	21.30	21.30	-1.00	78.00	77.00	392.00	24.60	40.00	5.20	33.00	4.40	14	3423.00	27.40	27.40	1580004359.0	1.39	2.57
26/01/2020 02:06:00	26012020	260120	020600	349.460	12.418203	-57.629063	349.650	-0.120	0.380	0.850	349.500	-1.000	1.000																			1580004360.0	1.11	2.06
26/01/2020 02:06:01	26012020	260120	020601	349.680	12.418208	-57.629065	349.850	-0.460	0.350	1.060	349.720	-1.000	1.300																			1580004361.0	1.05	1.94
26/01/2020 02:06:02	26012020	260120	020602	349.860	12.418212	-57.629068	349.910	-0.510	0.190	1.140	349.880	-1.100	1.400																			1580004362.0	1.12	2.07
26/01/2020 02:06:03	26012020	260120	020603	349.920	12.418217	-57.629073	349.920	-0.240	-0.170	1.070	349.920	-1.400	1.500																			1580004363.0	1.25	2.31
26/01/2020 02:06:04	26012020	260120	020604	349.930	12.418220	-57.629077	350.020	0.120	-0.570	0.770	349.940	-1.800	1.300																			1580004364.0	1.37	2.54
26/01/2020 02:06:05	26012020	260120	020605	350.050	12.418225	-57.629083	350.170	0.330	-0.720	0.350	350.080	-2.100	0.900																			1580004365.0	1.60	2.96
26/01/2020 02:06:06	26012020	260120	020606	350.230	12.418230	-57.629088	350.320	0.310	-0.510	-0.000	350.270	-2.000	0.500																			1580004366.0	1.66	3.07
26/01/2020 02:06:07	26012020	260120	020607	350.370	12.418233	-57.629095	350.390	0.140	-0.180	-0.330	350.390	-1.700	0.200																			1580004367.0	1.49	2.76
26/01/2020 02:06:08	26012020	260120	020608	350.460	12.418237	-57.629102	350.480	-0.050	0.020	-0.710	350.480	-1.500	-0.200																			1580004368.0	1.41	2.61
26/01/2020 02:06:09	26012020	260120	020609	350.550	12.418238	-57.629108	350.620	-0.170	0.100	-1.040	350.570	-1.300	-0.600																			1580004369.0	1.58	2.93
26/01/2020 02:06:10	26012020	260120	020610	350.730	12.418242	-57.629117	350.730	-0.200	0.190	-1.060	350.750	-1.300	-0.800																			1580004370.0	1.75	3.24
26/01/2020 02:06:11	26012020	260120	020611	350.820	12.418245	-57.629123	350.770	-0.120	0.280	-0.710	350.820	-1.100	-0.600																			1580004371.0	1.67	3.09
26/01/2020 02:06:12	26012020	260120	020612	350.850	12.418248	-57.629128	350.840	0.040	0.140	-0.180	350.860	-1.200	-0.100																			1580004372.0	1.27	2.35
26/01/2020 02:06:13	26012020	260120	020613	350.930	12.418253	-57.629130	350.970	0.150	-0.240	0.290	350.950	-1.400	0.400																			1580004373.0	0.98	1.81
26/01/2020 02:06:14	26012020	260120	020614	351.070	12.418258	-57.629132	351.120	0.100	-0.510	0.610	351.100	-1.800	0.800																			1580004374.0	1.14	2.11
26/01/2020 02:06:15	26012020	260120	020615	351.220	12.418263	-57.629135	351.290	-0.050	-0.360	0.870	351.260	-1.900	1.100																			1580004375.0	1.25	2.31
26/01/2020 02:06:16	26012020	260120	020616	351.380	12.418267	-57.629137	351.440	-0.140	0.000	1.060	351.410	-1.600	1.300																			1580004376.0	1.01	1.87
26/01/2020 02:06:17	26012020	260120	020617	351.510	12.418268	-57.629140	351.500	-0.110	0.190	1.140	351.530	-1.300	1.400																			1580004377.0	0.73	1.35
26/01/2020 02:06:18	26012020	260120	020618	351.540	12.418272	-57.629143	351.420	-0.060	0.130	1.040	351.530	-1.200	1.400																			1580004378.0	0.77	1.43
26/01/2020 02:06:19	26012020	260120	020619	351.450	12.418273	-57.629147	351.280	-0.060	0.020	0.730	351.420	-1.300	1.200																			1580004379.0	1.07	1.98
26/01/2020 02:06:20	26012020	260120	020620	351.330	12.418277	-57.629152	351.210	-0.060	-0.090	0.290	351.310	-1.400	0.900																			1580004380.0	1.34	2.48
26/01/2020 02:06:21	26012020	260120	020621	351.280	12.418280	-57.629158	351.230	-0.010	-0.320	-0.270	351.270	-1.600	0.400																			1580004381.0	1.43	2.65
26/01/2020 02:06:22	26012020	260120	020622	351.320	12.418283	-57.629165	351.320	0.050	-0.580	-0.850	351.330	-1.900	-0.200																			1580004382.0	1.59	2.94
26/01/2020 02:06:23	26012020	260120	020623	351.410	12.418287	-57.629173	351.460	0.100	-0.620	-1.280	351.440	-2.000	-0.800																			1580004383.0	1.87	3.46
26/01/2020 02:06:24	26012020	260120	020624	351.580	12.418290	-57.629182	351.550	0.140	-0.320	-1.280	351.590	-1.900	-1.000																			1580004384.0	1.99	3.69
26/01/2020 02:06:25	26012020	260120	020625	351.630	12.418293	-57.629190	351.540	0.110	0.170	-0.810	351.630	-1.500	-0.800																			1580004385.0	1.61	2.98
26/01/2020 02:06:26	26012020	260120	020626	351.600	12.418295	-57.629193	351.530	-0.030	0.510	-0.090	351.590	-1.000	-0.100																			1580004386.0	0.85	1.57
26/01/2020 02:06:27	26012020	260120	020627	351.570	12.418297	-57.629193	351.540	-0.170	0.470	0.620	351.560	-0.900	0.600																			1580004387.0	0.38	0.70
26/01/2020 02:06:28	26012020	260120	020628	351.590	12.418298	-57.629195	351.550	-0.170	0.150	1.210	351.590	-1.100	1.300																			1580004388.0	0.51	0.94
26/01/2020 02:06:29	26012020	260120	020629	351.590	12.418302	-57.629195	351.470	-0.010	-0.210	1.760	351.570	-1.400	1.800																			1580004389.0	0.77	1.43
26/01/2020 02:06:30	26012020	260120	020630	351.470	12.418305	-57.629195	351.310	0.140	-0.440	2.090	351.430	-1.800	2.300																			1580004390.0	0.86	1.59
26/01/2020 02:06:31	26012020	260120	020631	351.320	12.418310	-57.629197	351.230	0.120	-0.510	1.920	351.300	-1.900	2.400																			1580004391.0	0.78	1.44
26/01/2020 02:06:32	26012020	260120	020632	351.250	12.418312	-57.629200	351.190	-0.020	-0.380	1.270	351.250	-1.900	1.900																			1580004392.0	0.89	1.65
26/01/2020 02:06:33	26012020	260120	020633	351.210	12.418313	-57.629207	351.060	-0.070	-0.120	0.510	351.200	-1.600	1.200																			1580004393.0	1.59	2.94
26/01/2020 02:06:34	26012020	260120	020634	351.080	12.418313	-57.629217	350.870	0.080	-0.060	-0.160	351.050	-1.400	0.500																			1580004394.0	2.06	3.82
26/01/2020 02:06:35	26012020	260120	020635	350.920	12.418313	-57.629227	350.810	0.260	-0.270	-0.840	350.890	-1.600	-0.200																			1580004395.0	1.92	3.56
26/01/2020 02:06:36	26012020	260120	020636	350.920	12.418315	-57.629233	350.980	0.170	-0.370	-1.480	350.950	-1.800	-0.900																			1580004396.0	1.68	3.11
26/01/2020 02:06:37	26012020	260120	020637	351.140	12.418318	-57.629242	351.180	-0.210	0.040	-1.800	351.180	-1.600	-1.400																			1580004397.0	1.66	3.07
26/01/2020 02:06:38	26012020	260120	020638	351.310	12.418318	-57.629248	351.160	-0.570	0.660	-1.570	351.320	-1.000	-1.400																			1580004398.0	1.45	2.69
26/01/2020 02:06:39	26012020	260120	020639	351.240	12.418317	-57.629253	350.910	-0.580	0.780	-0.890	351.190	-0.600	-0.900																			1580004399.0	1.12	2.07
26/01/2020 02:06:40	26012020	260120	020640	350.930	12.418315	-57.629257	350.630	-0.210	0.130	-0.070	350.860	-0.900	-0.100																			1580004400.0	0.64	1.19
26/01/2020 02:06:41	26012020	260120	020641	350.650	12.418318	-57.629257	350.550	0.260	-0.780	0.610	350.620	-1.800	0.600																			1580004401.0	0.51	0.94
26/01/2020 02:06:42	26012020	260120	020642	350.600	12.418323	-57.629258	350.670	0.500	-1.210	1.140	350.620	-2.500	1.200																			1580004402.0	1.11	2.06
26/01/2020 02:06:43	26012020	260120	020643	350.720	12.418328	-57.629258	350.780	0.430	-0.880	1.570	350.750	-2.500	1.700																			1580004403.0	1.06	1.96
26/01/2020 02:06:44	26012020	260120	020644	350.800	12.418330	-57.629260	350.680	0.200	-0.120	1.810	350.780	-1.900	2.100																			1580004404.0	0.52	0.96
26/01/2020 02:06:45	26012020	260120	020645	350.690	12.418328	-57.629262	350.400	0.070	0.450	1.670	350.650	-1.200	2.100																			1580004405.0	0.51	0.94
26/01/2020 02:06:46	26012020	260120	020646	350.370	12.418328	-57.629265	350.210	0.050	0.430	1.060	350.320	-0.900	1.700																			1580004406.0	0.85	1.57
26/01/2020 02:06:47	26012020	260120	020647	350.240	12.418328	-57.629272	350.280	-0.010	0.110	0.160	350.250	-1.100	0.900																			1580004407.0	1.27	2.35
26/01/2020 02:06:48	26012020	260120	020648	350.350	12.418330	-57.629280	350.430	-0.250	0.030	-0.710	350.380	-1.400	0.000																			1580004408.0	1.86	3.44
26/01/2020 02:06:49	26012020	260120	020649	350.500	12.418333	-57.629290	350.440	-0.530	0.290	-1.340	350.520	-1.300	-0.700																			1580004409.0	2.08	3.85
26/01/2020 02:06:50	26012020	260120	020650	350.490	12.418332	-57.629298	350.270	-0.610	0.430	-1.570	350.470	-1.000	-1.200																			1580004410.0	1.89	3.50
26/01/2020 02:06:51	26012020	260120	020651	350.300	12.418330	-57.629305	350.020	-0.410	0.070	-1.410	350.250	-1.100	-1.200																			1580004411.0	1.42	2.63
26/01/2020 02:06:52	26012020	260120	020652	350.060	12.418330	-57.629310	349.860	-0.050	-0.610	-0.970	350.020	-1.700	-0.900																			1580004412.0	0.86	1.59
26/01/2020 02:06:53	26012020	260120	020653	349.920	12.418333	-57.629312	349.840	0.290	-1.140	-0.410	349.900	-2.300	-0.400																			1580004413.0	0.86	1.59
26/01/2020 02:06:54	26012020	260120	020654	349.910	12.418338	-57.629313	349.960	0.480	-1.130	0.120	349.920	-2.600	0.200																			1580004414.0	0.98	1.81
26/01/2020 02:06:55	26012020	260120	020655	350.020	12.418340	-57.629315	350.080	0.490	-0.560	0.620	350.050	-2.300	0.700																			1580004415.0	0.75	1.39
26/01/2020 02:06:56	26012020	260120	020656	350.100	12.418342	-57.629317	349.950	0.330	0.290	1.260	350.090	-1.500	1.300																			1580004416.0	0.35	0.65
26/01/2020 02:06:57	26012020	260120	020657	349.970	12.418342	-57.629317	349.550	0.100	0.920	1.840	349.890	-0.700	1.900																			1580004417.0	0.13	0.24
26/01/2020 02:06:58	26012020	260120	020658	349.480	12.418342	-57.629317	349.230	-0.090	0.890	1.910	349.390	-0.400	2.300																			1580004418.0	0.16	0.30
26/01/2020 02:06:59	26012020	260120	020659	349.220	12.418342	-57.629320	349.190	-0.180	0.250	1.330	349.190	-0.800	2.000	1015.40	25.40	25.50	21.40	21.30	-1.00	78.00	77.00	392.00	24.60	40.00	4.80	36.00	4.30	14	3366.00	27.40	27.40	1580004419.0	0.52	0.96
26/01/2020 02:07:00	26012020	260120	020700	349.200	12.418343	-57.629325	349.370	-0.200	-0.440	0.320	349.240	-1.500	1.200																			1580004420.0	1.40	2.59
26/01/2020 02:07:01	26012020	260120	020701	349.440	12.418347	-57.629335	349.590	-0.210	-0.630	-0.670	349.490	-2.000	0.100																			1580004421.0	2.06	3.82
26/01/2020 02:07:02	26012020	260120	020702	349.660	12.418348	-57.629345	349.610	-0.210	-0.350	-1.270	349.680	-1.900	-0.700																			1580004422.0	2.08	3.85
26/01/2020 02:07:03	26012020	260120	020703	349.660	12.418348	-57.629352	349.420	-0.160	-0.010	-1.370	349.630	-1.600	-1.000																			1580004423.0	1.64	3.04
26/01/2020 02:07:04	26012020	260120	020704	349.440	12.418347	-57.629358	349.130	-0.080	0.060	-1.080	349.380	-1.300	-0.900																			1580004424.0	1.10	2.04
26/01/2020 02:07:05	26012020	260120	020705	349.140	12.418347	-57.629360	348.880	-0.010	-0.120	-0.650	349.080	-1.400	-0.500																			1580004425.0	0.60	1.11
26/01/2020 02:07:06	26012020	260120	020706	348.900	12.418348	-57.629362	348.750	0.040	-0.350	-0.280	348.860	-1.700	-0.100																			1580004426.0	0.55	1.02
26/01/2020 02:07:07	26012020	260120	020707	348.770	12.418352	-57.629365	348.700	0.110	-0.390	0.100	348.760	-1.800	0.200																			1580004427.0	0.73	1.35
26/01/2020 02:07:08	26012020	260120	020708	348.710	12.418353	-57.629367	348.670	0.220	-0.210	0.550	348.700	-1.700	0.700																			1580004428.0	0.76	1.41
26/01/2020 02:07:09	26012020	260120	020709	348.660	12.418355	-57.629370	348.580	0.270	0.040	0.940	348.650	-1.500	1.100																			1580004429.0	0.54	1.00
26/01/2020 02:07:10	26012020	260120	020710	348.580	12.418355	-57.629372	348.490	0.220	0.100	1.170	348.550	-1.300	1.400																			1580004430.0	0.34	0.63
26/01/2020 02:07:11	26012020	260120	020711	348.480	12.418357	-57.629373	348.460	0.100	-0.100	1.110	348.470	-1.400	1.500																			1580004431.0	0.44	0.81
26/01/2020 02:07:12	26012020	260120	020712	348.470	12.418358	-57.629377	348.550	-0.000	-0.310	0.800	348.490	-1.600	1.300																			1580004432.0	0.83	1.54
26/01/2020 02:07:13	26012020	260120	020713	348.550	12.418360	-57.629382	348.500	-0.070	-0.100	0.530	348.560	-1.700	1.000																			1580004433.0	1.30	2.41
26/01/2020 02:07:14	26012020	260120	020714	348.480	12.418362	-57.629387	348.270	-0.120	0.340	0.360	348.430	-1.300	0.800																			1580004434.0	1.25	2.31
26/01/2020 02:07:15	26012020	260120	020715	348.230	12.418362	-57.629392	348.050	-0.190	0.400	0.130	348.180	-1.000	0.600																			1580004435.0	0.91	1.69
26/01/2020 02:07:16	26012020	260120	020716	348.040	12.418360	-57.629395	347.950	-0.260	0.010	-0.230	348.020	-1.200	0.300																			1580004436.0	0.81	1.50
26/01/2020 02:07:17	26012020	260120	020717	347.980	12.418362	-57.629402	347.910	-0.240	-0.400	-0.580	347.970	-1.600	-0.100																			1580004437.0	1.15	2.13
26/01/2020 02:07:18	26012020	260120	020718	347.940	12.418363	-57.629408	347.830	-0.060	-0.440	-0.720	347.930	-1.900	-0.400																			1580004438.0	1.51	2.80
26/01/2020 02:07:19	26012020	260120	020719	347.860	12.418365	-57.629413	347.760	0.190	-0.300	-0.620	347.850	-1.800	-0.400																			1580004439.0	1.30	2.41
26/01/2020 02:07:20	26012020	260120	020720	347.770	12.418365	-57.629417	347.680	0.320	-0.300	-0.420	347.760	-1.700	-0.200																			1580004440.0	0.72	1.33
26/01/2020 02:07:21	26012020	260120	020721	347.690	12.418367	-57.629418	347.560	0.240	-0.360	-0.190	347.660	-1.700	0.000																			1580004441.0	0.46	0.85
26/01/2020 02:07:22	26012020	260120	020722	347.550	12.418368	-57.629422	347.400	0.070	-0.250	0.100	347.520	-1.700	0.300																			1580004442.0	0.70	1.30
26/01/2020 02:07:23	26012020	260120	020723	347.410	12.418370	-57.629425	347.320	-0.070	0.040	0.360	347.380	-1.500	0.600																			1580004443.0	0.75	1.39
26/01/2020 02:07:24	26012020	260120	020724	347.340	12.418372	-57.629427	347.280	-0.120	0.330	0.540	347.330	-1.200	0.800																			1580004444.0	0.60	1.11
26/01/2020 02:07:25	26012020	260120	020725	347.300	12.418372	-57.629430	347.200	-0.070	0.400	0.690	347.280	-1.000	1.000																			1580004445.0	0.62	1.15
26/01/2020 02:07:26	26012020	260120	020726	347.190	12.418372	-57.629433	347.050	0.030	0.170	0.810	347.160	-1.100	1.100																			1580004446.0	0.68	1.26
26/01/2020 02:07:27	26012020	260120	020727	347.040	12.418373	-57.629437	346.930	0.080	-0.230	0.770	347.020	-1.400	1.200																			1580004447.0	0.73	1.35
26/01/2020 02:07:28	26012020	260120	020728	346.930	12.418375	-57.629440	346.850	0.030	-0.500	0.500	346.910	-1.800	1.000																			1580004448.0	0.86	1.59
26/01/2020 02:07:29	26012020	260120	020729	346.850	12.418378	-57.629445	346.750	-0.060	-0.380	0.190	346.830	-1.900	0.700																			1580004449.0	1.08	2.00
26/01/2020 02:07:30	26012020	260120	020730	346.740	12.418378	-57.629450	346.620	-0.090	-0.100	-0.050	346.710	-1.600	0.400																			1580004450.0	1.18	2.19
26/01/2020 02:07:31	26012020	260120	020731	346.610	12.418377	-57.629455	346.540	-0.010	-0.040	-0.250	346.590	-1.400	0.200																			1580004451.0	1.12	2.07
26/01/2020 02:07:32	26012020	260120	020732	346.580	12.418377	-57.629460	346.570	0.090	-0.190	-0.460	346.580	-1.500	-0.000																			1580004452.0	1.01	1.87
26/01/2020 02:07:33	26012020	260120	020733	346.600	12.418378	-57.629465	346.500	0.120	-0.230	-0.510	346.600	-1.600	-0.200																			1580004453.0	1.10	2.04
26/01/2020 02:07:34	26012020	260120	020734	346.510	12.418380	-57.629470	346.280	0.110	-0.010	-0.300	346.460	-1.500	-0.100																			1580004454.0	1.09	2.02
26/01/2020 02:07:35	26012020	260120	020735	346.260	12.418382	-57.629473	346.050	0.110	0.110	0.040	346.210	-1.300	0.200																			1580004455.0	0.74	1.37
26/01/2020 02:07:36	26012020	260120	020736	346.030	12.418382	-57.629475	345.910	0.100	-0.010	0.360	345.990	-1.300	0.500																			1580004456.0	0.38	0.70
26/01/2020 02:07:37	26012020	260120	020737	345.910	12.418383	-57.629477	345.830	0.010	-0.150	0.570	345.890	-1.500	0.800																			1580004457.0	0.48	0.89
26/01/2020 02:07:38	26012020	260120	020738	345.820	12.418387	-57.629478	345.770	-0.150	-0.090	0.610	345.810	-1.500	0.900																			1580004458.0	0.67	1.24
26/01/2020 02:07:39	26012020	260120	020739	345.750	12.418387	-57.629482	345.680	-0.250	-0.010	0.480	345.740	-1.400	0.900																			1580004459.0	0.72	1.33
26/01/2020 02:07:40	26012020	260120	020740	345.670	12.418387	-57.629487	345.570	-0.180	-0.080	0.300	345.640	-1.400	0.700																			1580004460.0	0.94	1.74
26/01/2020 02:07:41	26012020	260120	020741	345.570	12.418388	-57.629492	345.440	0.000	-0.160	0.220	345.540	-1.500	0.600																			1580004461.0	1.15	2.13
26/01/2020 02:07:42	26012020	260120	020742	345.420	12.418388	-57.629497	345.240	0.130	-0.090	0.280	345.380	-1.500	0.600																			1580004462.0	1.10	2.04
26/01/2020 02:07:43	26012020	260120	020743	345.210	12.418390	-57.629500	345.100	0.140	-0.020	0.330	345.180	-1.400	0.700																			1580004463.0	0.86	1.59
26/01/2020 02:07:44	26012020	260120	020744	345.090	12.418390	-57.629503	345.090	0.080	-0.120	0.140	345.090	-1.400	0.600																			1580004464.0	0.64	1.19
26/01/2020 02:07:45	26012020	260120	020745	345.120	12.418392	-57.629507	345.090	0.020	-0.260	-0.120	345.130	-1.600	0.300																			1580004465.0	0.75	1.39
26/01/2020 02:07:46	26012020	260120	020746	345.090	12.418393	-57.629512	344.910	-0.060	-0.250	-0.230	345.060	-1.700	0.200																			1580004466.0	0.98	1.81
26/01/2020 02:07:47	26012020	260120	020747	344.910	12.418393	-57.629515	344.730	-0.120	-0.220	-0.320	344.860	-1.600	0.100																			1580004467.0	0.97	1.80
26/01/2020 02:07:48	26012020	260120	020748	344.750	12.418395	-57.629520	344.650	-0.090	-0.190	-0.480	344.730	-1.600	-0.100																			1580004468.0	1.00	1.85
26/01/2020 02:07:49	26012020	260120	020749	344.690	12.418395	-57.629525	344.600	0.060	-0.050	-0.520	344.690	-1.500	-0.200																			1580004469.0	1.17	2.17
26/01/2020 02:07:50	26012020	260120	020750	344.630	12.418397	-57.629530	344.450	0.260	0.150	-0.310	344.600	-1.300	-0.100																			1580004470.0	1.06	1.96
26/01/2020 02:07:51	26012020	260120	020751	344.450	12.418398	-57.629533	344.220	0.360	0.130	-0.010	344.410	-1.200	0.200																			1580004471.0	0.63	1.17
26/01/2020 02:07:52	26012020	260120	020752	344.240	12.418400	-57.629535	344.120	0.280	-0.180	0.030	344.210	-1.400	0.400																			1580004472.0	0.41	0.76
26/01/2020 02:07:53	26012020	260120	020753	344.170	12.418402	-57.629535	344.180	-0.010	-0.410	-0.220	344.180	-1.700	0.300																			1580004473.0	0.68	1.26
26/01/2020 02:07:54	26012020	260120	020754	344.230	12.418405	-57.629538	344.170	-0.360	-0.190	-0.400	344.230	-1.800	0.000																			1580004474.0	0.98	1.81
26/01/2020 02:07:55	26012020	260120	020755	344.180	12.418407	-57.629545	343.960	-0.520	0.290	-0.340	344.150	-1.300	-0.100																			1580004475.0	1.12	2.07
26/01/2020 02:07:56	26012020	260120	020756	343.960	12.418405	-57.629548	343.710	-0.370	0.380	-0.250	343.900	-1.000	0.100																			1580004476.0	1.04	1.93
26/01/2020 02:07:57	26012020	260120	020757	343.720	12.418403	-57.629553	343.570	-0.060	-0.070	-0.310	343.690	-1.200	0.100																			1580004477.0	0.82	1.52
26/01/2020 02:07:58	26012020	260120	020758	343.620	12.418407	-57.629557	343.570	0.160	-0.530	-0.450	343.620	-1.800	-0.000																			1580004478.0	0.97	1.80
26/01/2020 02:07:59	26012020	260120	020759	343.630	12.418410	-57.629562	343.590	0.140	-0.490	-0.480	343.630	-2.000	-0.100	1015.40	25.40	25.50	21.40	21.40	-1.00	78.00	78.00	392.00	24.60	51.00	4.10	44.00	3.90	14	3463.00	27.50	27.50	1580004479.0	1.23	2.28
26/01/2020 02:08:00	26012020	260120	020800	343.650	12.418412	-57.629565	343.600	0.010	-0.110	-0.370	343.650	-1.700	-0.100																			1580004480.0	0.91	1.69
26/01/2020 02:08:01	26012020	260120	020801	343.640	12.418412	-57.629567	343.550	-0.050	0.130	-0.170	343.640	-1.400	0.100																			1580004481.0	0.47	0.87
26/01/2020 02:08:02	26012020	260120	020802	343.580	12.418412	-57.629568	343.460	0.040	-0.010	0.000	343.570	-1.300	0.300																			1580004482.0	0.35	0.65
26/01/2020 02:08:03	26012020	260120	020803	343.520	12.418413	-57.629572	343.370	0.260	-0.320	0.120	343.500	-1.600	0.400																			1580004483.0	0.56	1.04
26/01/2020 02:08:04	26012020	260120	020804	343.410	12.418417	-57.629573	343.290	0.420	-0.470	0.190	343.390	-1.800	0.500																			1580004484.0	0.90	1.67
26/01/2020 02:08:05	26012020	260120	020805	343.340	12.418420	-57.629577	343.210	0.330	-0.270	0.170	343.330	-1.800	0.500																			1580004485.0	0.91	1.69
26/01/2020 02:08:06	26012020	260120	020806	343.260	12.418422	-57.629578	343.110	-0.010	0.140	0.060	343.240	-1.500	0.500																			1580004486.0	0.64	1.19
26/01/2020 02:08:07	26012020	260120	020807	343.140	12.418423	-57.629580	342.970	-0.330	0.400	-0.150	343.120	-1.100	0.300																			1580004487.0	0.53	0.98
26/01/2020 02:08:08	26012020	260120	020808	343.010	12.418422	-57.629585	342.860	-0.360	0.310	-0.380	342.980	-1.000	0.100																			1580004488.0	0.94	1.74
26/01/2020 02:08:09	26012020	260120	020809	342.900	12.418422	-57.629590	342.820	-0.090	-0.070	-0.560	342.890	-1.300	-0.100																			1580004489.0	1.21	2.24
26/01/2020 02:08:10	26012020	260120	020810	342.870	12.418425	-57.629595	342.860	0.140	-0.370	-0.730	342.890	-1.700	-0.300																			1580004490.0	1.19	2.20
26/01/2020 02:08:11	26012020	260120	020811	342.940	12.418427	-57.629600	342.970	0.090	-0.320	-0.890	342.960	-1.800	-0.500																			1580004491.0	1.06	1.96
26/01/2020 02:08:12	26012020	260120	020812	343.060	12.418428	-57.629603	343.080	-0.150	-0.020	-0.880	343.080	-1.600	-0.600																			1580004492.0	0.75	1.39
26/01/2020 02:08:13	26012020	260120	020813	343.170	12.418428	-57.629605	343.110	-0.320	0.150	-0.610	343.180	-1.300	-0.400																			1580004493.0	0.47	0.87
26/01/2020 02:08:14	26012020	260120	020814	343.160	12.418428	-57.629607	342.950	-0.220	-0.010	-0.130	343.130	-1.300	-0.000																			1580004494.0	0.35	0.65
26/01/2020 02:08:15	26012020	260120	020815	342.960	12.418430	-57.629608	342.730	0.050	-0.420	0.250	342.910	-1.600	0.400																			1580004495.0	0.43	0.80
26/01/2020 02:08:16	26012020	260120	020816	342.750	12.418433	-57.629608	342.690	0.250	-0.640	0.350	342.730	-2.000	0.700																			1580004496.0	0.80	1.48
26/01/2020 02:08:17	26012020	260120	020817	342.740	12.418438	-57.629612	342.830	0.240	-0.380	0.290	342.760	-2.000	0.700																			1580004497.0	0.91	1.69
26/01/2020 02:08:18	26012020	260120	020818	342.890	12.418440	-57.629613	342.980	0.090	0.120	0.250	342.920	-1.500	0.600																			1580004498.0	0.65	1.20
26/01/2020 02:08:19	26012020	260120	020819	343.020	12.418440	-57.629617	343.030	-0.010	0.380	0.200	343.030	-1.100	0.600																			1580004499.0	0.45	0.83
26/01/2020 02:08:20	26012020	260120	020820	343.070	12.418438	-57.629618	343.040	0.070	0.210	0.050	343.070	-1.100	0.500																			1580004500.0	0.51	0.94
26/01/2020 02:08:21	26012020	260120	020821	343.090	12.418440	-57.629622	343.060	0.230	-0.170	-0.200	343.090	-1.400	0.300																			1580004501.0	0.69	1.28
26/01/2020 02:08:22	26012020	260120	020822	343.130	12.418443	-57.629625	343.100	0.230	-0.380	-0.450	343.140	-1.700	-0.000																			1580004502.0	0.94	1.74
26/01/2020 02:08:23	26012020	260120	020823	343.160	12.418447	-57.629627	343.080	0.010	-0.250	-0.570	343.150	-1.800	-0.200																			1580004503.0	0.96	1.78
26/01/2020 02:08:24	26012020	260120	020824	343.120	12.418448	-57.629630	343.000	-0.230	0.050	-0.610	343.100	-1.500	-0.300																			1580004504.0	0.79	1.46
26/01/2020 02:08:25	26012020	260120	020825	343.060	12.418448	-57.629633	342.950	-0.270	0.220	-0.680	343.040	-1.200	-0.300																			1580004505.0	0.71	1.31
26/01/2020 02:08:26	26012020	260120	020826	343.020	12.418448	-57.629637	343.010	-0.140	0.090	-0.800	343.020	-1.200	-0.400																			1580004506.0	0.70	1.30
26/01/2020 02:08:27	26012020	260120	020827	343.070	12.418448	-57.629640	343.160	0.010	-0.230	-0.860	343.090	-1.500	-0.500																			1580004507.0	0.74	1.37
26/01/2020 02:08:28	26012020	260120	020828	343.270	12.418452	-57.629645	343.420	0.030	-0.470	-0.780	343.310	-1.800	-0.500																			1580004508.0	0.89	1.65
26/01/2020 02:08:29	26012020	260120	020829	343.470	12.418453	-57.629647	343.670	-0.030	-0.350	-0.510	343.530	-1.900	-0.300																			1580004509.0	0.89	1.65
26/01/2020 02:08:30	26012020	260120	020830	343.760	12.418457	-57.629648	343.830	-0.060	0.030	-0.100	343.800	-1.600	0.000																			1580004510.0	0.56	1.04
26/01/2020 02:08:31	26012020	260120	020831	343.890	12.418457	-57.629648	343.870	0.030	0.230	0.380	343.900	-1.200	0.500																			1580004511.0	0.17	0.31
26/01/2020 02:08:32	26012020	260120	020832	343.900	12.418457	-57.629647	343.810	0.180	0.050	0.770	343.890	-1.200	0.900																			1580004512.0	0.34	0.63
26/01/2020 02:08:33	26012020	260120	020833	343.830	12.418460	-57.629647	343.780	0.260	-0.320	0.940	343.820	-1.500	1.200																			1580004513.0	0.62	1.15
26/01/2020 02:08:34	26012020	260120	020834	343.790	12.418463	-57.629647	343.780	0.230	-0.470	0.880	343.790	-1.800	1.300																			1580004514.0	0.82	1.52
26/01/2020 02:08:35	26012020	260120	020835	343.800	12.418467	-57.629648	343.860	0.130	-0.290	0.530	343.810	-1.800	1.100																			1580004515.0	0.84	1.56
26/01/2020 02:08:36	26012020	260120	020836	343.920	12.418468	-57.629652	344.100	0.030	-0.030	-0.190	343.970	-1.500	0.500																			1580004516.0	0.78	1.44
26/01/2020 02:08:37	26012020	260120	020837	344.200	12.418468	-57.629657	344.350	-0.120	0.130	-0.960	344.260	-1.300	-0.300																			1580004517.0	0.97	1.80
26/01/2020 02:08:38	26012020	260120	020838	344.440	12.418468	-57.629662	344.450	-0.290	0.260	-1.420	344.470	-1.200	-0.900																			1580004518.0	1.24	2.30
26/01/2020 02:08:39	26012020	260120	020839	344.530	12.418467	-57.629668	344.490	-0.330	0.250	-1.490	344.530	-1.100	-1.200																			1580004519.0	1.24	2.30
26/01/2020 02:08:40	26012020	260120	020840	344.600	12.418467	-57.629672	344.720	-0.170	-0.060	-1.370	344.630	-1.300	-1.100																			1580004520.0	0.82	1.52
26/01/2020 02:08:41	26012020	260120	020841	344.860	12.418468	-57.629673	345.010	0.060	-0.380	-1.070	344.910	-1.700	-0.900																			1580004521.0	0.50	0.93
26/01/2020 02:08:42	26012020	260120	020842	345.100	12.418472	-57.629675	345.100	0.160	-0.370	-0.500	345.130	-1.800	-0.500																			1580004522.0	0.69	1.28
26/01/2020 02:08:43	26012020	260120	020843	345.130	12.418475	-57.629673	345.060	0.080	-0.240	0.090	345.120	-1.700	0.100																			1580004523.0	0.68	1.26
26/01/2020 02:08:44	26012020	260120	020844	345.080	12.418477	-57.629670	345.120	-0.030	-0.280	0.430	345.090	-1.600	0.600																			1580004524.0	0.62	1.15
26/01/2020 02:08:45	26012020	260120	020845	345.170	12.418478	-57.629668	345.330	-0.030	-0.420	0.490	345.200	-1.800	0.800																			1580004525.0	0.37	0.69
26/01/2020 02:08:46	26012020	260120	020846	345.370	12.418480	-57.629670	345.570	0.140	-0.370	0.440	345.420	-1.800	0.800																			1580004526.0	0.55	1.02
26/01/2020 02:08:47	26012020	260120	020847	345.620	12.418482	-57.629673	345.790	0.320	-0.050	0.370	345.670	-1.600	0.700																			1580004527.0	0.77	1.43
26/01/2020 02:08:48	26012020	260120	020848	345.810	12.418482	-57.629677	345.880	0.350	0.340	0.320	345.840	-1.200	0.700																			1580004528.0	0.58	1.07
26/01/2020 02:08:49	26012020	260120	020849	345.910	12.418482	-57.629678	345.960	0.140	0.530	0.170	345.920	-0.900	0.600																			1580004529.0	0.26	0.48
26/01/2020 02:08:50	26012020	260120	020850	346.010	12.418482	-57.629678	346.130	-0.190	0.400	-0.140	346.040	-0.900	0.300																			1580004530.0	0.13	0.24
26/01/2020 02:08:51	26012020	260120	020851	346.160	12.418483	-57.629680	346.390	-0.420	0.040	-0.530	346.200	-1.200	-0.000																			1580004531.0	0.28	0.52
26/01/2020 02:08:52	26012020	260120	020852	346.470	12.418483	-57.629682	346.660	-0.450	-0.350	-0.890	346.530	-1.600	-0.400																			1580004532.0	0.57	1.06
26/01/2020 02:08:53	26012020	260120	020853	346.700	12.418485	-57.629685	346.940	-0.300	-0.650	-1.190	346.760	-1.900	-0.700																			1580004533.0	0.76	1.41
26/01/2020 02:08:54	26012020	260120	020854	347.060	12.418487	-57.629688	347.200	-0.080	-0.730	-1.290	347.110	-2.100	-0.900																			1580004534.0	0.77	1.43
26/01/2020 02:08:55	26012020	260120	020855	347.290	12.418487	-57.629692	347.300	0.060	-0.450	-1.010	347.310	-2.000	-0.900																			1580004535.0	0.64	1.19
26/01/2020 02:08:56	26012020	260120	020856	347.370	12.418487	-57.629693	347.350	0.140	0.000	-0.430	347.370	-1.600	-0.400																			1580004536.0	0.26	0.48
26/01/2020 02:08:57	26012020	260120	020857	347.400	12.418487	-57.629692	347.420	0.220	0.250	0.190	347.400	-1.200	0.200																			1580004537.0	0.26	0.48
26/01/2020 02:08:58	26012020	260120	020858	347.450	12.418487	-57.629688	347.600	0.320	0.100	0.550	347.480	-1.200	0.700																			1580004538.0	0.55	1.02
26/01/2020 02:08:59	26012020	260120	020859	347.650	12.418488	-57.629687	347.960	0.370	-0.240	0.550	347.720	-1.500	0.900	1015.40	25.40	25.50	21.50	21.40	-1.00	78.00	78.00	392.00	24.60	50.00	5.10	38.00	4.90	14	3380.00	27.50	27.50	1580004539.0	0.59	1.09
26/01/2020 02:09:00	26012020	260120	020900	348.040	12.418492	-57.629687	348.390	0.200	-0.280	0.380	348.130	-1.700	0.800																			1580004540.0	0.61	1.13
26/01/2020 02:09:01	26012020	260120	020901	348.440	12.418493	-57.629688	348.660	-0.140	0.170	0.220	348.520	-1.500	0.600																			1580004541.0	0.53	0.98
26/01/2020 02:09:02	26012020	260120	020902	348.680	12.418493	-57.629690	348.710	-0.470	0.620	0.080	348.700	-1.000	0.500																			1580004542.0	0.37	0.69
26/01/2020 02:09:03	26012020	260120	020903	348.720	12.418490	-57.629692	348.750	-0.490	0.410	-0.130	348.740	-0.800	0.300																			1580004543.0	0.69	1.28
26/01/2020 02:09:04	26012020	260120	020904	348.820	12.418488	-57.629693	349.010	-0.170	-0.450	-0.410	348.860	-1.400	0.100																			1580004544.0	0.58	1.07
26/01/2020 02:09:05	26012020	260120	020905	349.140	12.418492	-57.629697	349.470	0.250	-1.150	-0.740	349.230	-2.300	-0.300																			1580004545.0	0.73	1.35
26/01/2020 02:09:06	26012020	260120	020906	349.610	12.418495	-57.629698	349.870	0.440	-0.970	-0.920	349.700	-2.600	-0.500																			1580004546.0	1.01	1.87
26/01/2020 02:09:07	26012020	260120	020907	349.960	12.418497	-57.629700	350.020	0.280	-0.140	-0.800	350.000	-2.000	-0.600																			1580004547.0	0.49	0.91
26/01/2020 02:09:08	26012020	260120	020908	350.080	12.418495	-57.629700	350.050	-0.060	0.550	-0.460	350.080	-1.100	-0.300																			1580004548.0	0.36	0.67
26/01/2020 02:09:09	26012020	260120	020909	350.090	12.418493	-57.629698	350.080	-0.320	0.660	-0.160	350.090	-0.700	0.000																			1580004549.0	0.67	1.24
26/01/2020 02:09:10	26012020	260120	020910	350.130	12.418492	-57.629697	350.220	-0.340	0.330	-0.040	350.140	-0.900	0.300																			1580004550.0	0.25	0.46
26/01/2020 02:09:11	26012020	260120	020911	350.280	12.418493	-57.629698	350.510	-0.160	-0.080	-0.060	350.330	-1.300	0.300																			1580004551.0	0.28	0.52
26/01/2020 02:09:12	26012020	260120	020912	350.590	12.418495	-57.629698	350.890	-0.000	-0.390	-0.160	350.670	-1.700	0.200																			1580004552.0	0.45	0.83
26/01/2020 02:09:13	26012020	260120	020913	350.990	12.418497	-57.629700	351.280	0.010	-0.500	-0.310	351.080	-1.900	0.100																			1580004553.0	0.37	0.69
26/01/2020 02:09:14	26012020	260120	020914	351.380	12.418497	-57.629702	351.630	-0.060	-0.400	-0.390	351.450	-1.900	-0.000																			1580004554.0	0.30	0.56
26/01/2020 02:09:15	26012020	260120	020915	351.710	12.418497	-57.629703	351.910	-0.070	-0.220	-0.370	351.770	-1.700	-0.100																			1580004555.0	0.34	0.63
26/01/2020 02:09:16	26012020	260120	020916	351.990	12.418495	-57.629703	352.200	0.020	-0.090	-0.270	352.050	-1.600	0.000																			1580004556.0	0.24	0.44
26/01/2020 02:09:17	26012020	260120	020917	352.220	12.418495	-57.629703	352.430	0.140	-0.010	-0.090	352.270	-1.500	0.100																			1580004557.0	0.05	0.09
26/01/2020 02:09:18	26012020	260120	020918	352.490	12.418497	-57.629703	352.560	0.240	0.130	0.180	352.520	-1.400	0.400																			1580004558.0	0.16	0.30
26/01/2020 02:09:19	26012020	260120	020919	352.600	12.418497	-57.629702	352.650	0.260	0.210	0.380	352.610	-1.200	0.600																			1580004559.0	0.36	0.67
26/01/2020 02:09:20	26012020	260120	020920	352.710	12.418497	-57.629698	352.880	0.170	-0.060	0.230	352.750	-1.300	0.700																			1580004560.0	0.51	0.94
26/01/2020 02:09:21	26012020	260120	020921	352.910	12.418497	-57.629698	353.270	-0.010	-0.510	-0.260	352.970	-1.700	0.300																			1580004561.0	0.25	0.46
26/01/2020 02:09:22	26012020	260120	020922	353.410	12.418498	-57.629700	353.820	-0.170	-0.600	-0.880	353.520	-2.000	-0.300																			1580004562.0	0.57	1.06
26/01/2020 02:09:23	26012020	260120	020923	353.960	12.418500	-57.629705	354.270	-0.220	-0.160	-1.210	354.060	-1.800	-0.800																			1580004563.0	0.99	1.83
26/01/2020 02:09:24	26012020	260120	020924	354.360	12.418498	-57.629708	354.490	-0.140	0.320	-1.100	354.410	-1.300	-0.900																			1580004564.0	0.90	1.67
26/01/2020 02:09:25	26012020	260120	020925	354.560	12.418497	-57.629710	354.700	0.000	0.290	-0.790	354.590	-1.000	-0.600																			1580004565.0	0.60	1.11
26/01/2020 02:09:26	26012020	260120	020926	354.770	12.418495	-57.629708	355.040	0.110	-0.090	-0.470	354.830	-1.300	-0.300																			1580004566.0	0.32	0.59
26/01/2020 02:09:27	26012020	260120	020927	355.120	12.418497	-57.629707	355.410	0.040	-0.210	-0.070	355.200	-1.600	0.000																			1580004567.0	0.58	1.07
26/01/2020 02:09:28	26012020	260120	020928	355.480	12.418498	-57.629703	355.710	-0.180	-0.010	0.310	355.540	-1.500	0.500																			1580004568.0	0.69	1.28
26/01/2020 02:09:29	26012020	260120	020929	355.710	12.418498	-57.629700	356.010	-0.380	0.050	0.410	355.760	-1.400	0.700																			1580004569.0	0.66	1.22
26/01/2020 02:09:30	26012020	260120	020930	356.060	12.418497	-57.629700	356.360	-0.370	-0.170	0.230	356.140	-1.400	0.600																			1580004570.0	0.45	0.83
26/01/2020 02:09:31	26012020	260120	020931	356.430	12.418495	-57.629700	356.730	-0.120	-0.460	-0.000	356.490	-1.700	0.400																			1580004571.0	0.26	0.48
26/01/2020 02:09:32	26012020	260120	020932	356.770	12.418497	-57.629703	357.000	0.210	-0.520	-0.060	356.830	-1.900	0.300																			1580004572.0	0.52	0.96
26/01/2020 02:09:33	26012020	260120	020933	357.030	12.418497	-57.629705	357.190	0.470	-0.340	0.050	357.070	-1.900	0.300																			1580004573.0	0.40	0.74
26/01/2020 02:09:34	26012020	260120	020934	357.220	12.418497	-57.629705	357.470	0.590	-0.180	0.050	357.270	-1.600	0.400																			1580004574.0	0.02	0.04
26/01/2020 02:09:35	26012020	260120	020935	357.520	12.418497	-57.629703	357.880	0.530	-0.150	-0.270	357.600	-1.600	0.200																			1580004575.0	0.30	0.56
26/01/2020 02:09:36	26012020	260120	020936	357.960	12.418497	-57.629702	358.280	0.320	-0.040	-0.590	358.050	-1.500	-0.100																			1580004576.0	0.15	0.28
26/01/2020 02:09:37	26012020	260120	020937	358.330	12.418498	-57.629703	358.550	0.010	0.180	-0.720	358.390	-1.300	-0.400																			1580004577.0	0.19	0.35
26/01/2020 02:09:38	26012020	260120	020938	358.600	12.418498	-57.629703	358.790	-0.300	0.360	-0.710	358.650	-1.100	-0.400																			1580004578.0	0.15	0.28
26/01/2020 02:09:39	26012020	260120	020939	358.840	12.418497	-57.629705	359.050	-0.480	0.440	-0.530	358.890	-1.000	-0.300																			1580004579.0	0.19	0.35
26/01/2020 02:09:40	26012020	260120	020940	359.100	12.418497	-57.629703	359.320	-0.520	0.330	-0.410	359.160	-1.000	-0.100																			1580004580.0	0.20	0.37
26/01/2020 02:09:41	26012020	260120	020941	359.330	12.418495	-57.629703	359.550	-0.470	0.020	-0.430	359.380	-1.200	-0.100																			1580004581.0	0.28	0.52
26/01/2020 02:09:42	26012020	260120	020942	359.580	12.418495	-57.629703	359.660	-0.310	-0.360	-0.320	359.610	-1.600	-0.100																			1580004582.0	0.07	0.13
26/01/2020 02:09:43	26012020	260120	020943	359.670	12.418495	-57.629703	359.840	0.010	-0.730	-0.100	359.680	-2.000	0.100																			1580004583.0	0.13	0.24
26/01/2020 02:09:44	26012020	260120	020944	359.910	12.418495	-57.629703	0.270	0.400	-1.040	-0.070	359.980	-2.300	0.200																			1580004584.0	0.11	0.20
26/01/2020 02:09:45	26012020	260120	020945	0.370	12.418497	-57.629702	0.730	0.570	-0.870	-0.140	0.470	-2.400	0.200																			1580004585.0	0.35	0.65
26/01/2020 02:09:46	26012020	260120	020946	0.800	12.418498	-57.629702	0.960	0.380	-0.210	-0.160	0.860	-2.000	0.100																			1580004586.0	0.34	0.63
26/01/2020 02:09:47	26012020	260120	020947	0.990	12.418497	-57.629700	1.050	0.020	0.490	-0.130	1.010	-1.200	0.200																			1580004587.0	0.21	0.39
26/01/2020 02:09:48	26012020	260120	020948	1.090	12.418495	-57.629702	1.210	-0.170	0.770	-0.130	1.120	-0.700	0.200																			1580004588.0	0.54	1.00
26/01/2020 02:09:49	26012020	260120	020949	1.260	12.418493	-57.629702	1.470	-0.070	0.560	-0.170	1.310	-0.700	0.200																			1580004589.0	0.39	0.72
26/01/2020 02:09:50	26012020	260120	020950	1.540	12.418493	-57.629702	1.780	0.130	0.080	-0.270	1.600	-1.100	0.100																			1580004590.0	0.09	0.17
26/01/2020 02:09:51	26012020	260120	020951	1.850	12.418495	-57.629700	2.020	0.190	-0.330	-0.300	1.900	-1.600	0.000																			1580004591.0	0.39	0.72
26/01/2020 02:09:52	26012020	260120	020952	2.050	12.418497	-57.629698	2.110	0.050	-0.430	-0.260	2.080	-1.800	0.000																			1580004592.0	0.43	0.80
26/01/2020 02:09:53	26012020	260120	020953	2.120	12.418497	-57.629698	2.180	-0.150	-0.340	-0.300	2.130	-1.800	0.000																			1580004593.0	0.22	0.41
26/01/2020 02:09:54	26012020	260120	020954	2.190	12.418497	-57.629698	2.360	-0.210	-0.260	-0.490	2.220	-1.700	-0.100																			1580004594.0	0.20	0.37
26/01/2020 02:09:55	26012020	260120	020955	2.400	12.418495	-57.629698	2.630	-0.080	-0.230	-0.670	2.450	-1.700	-0.300																			1580004595.0	0.34	0.63
26/01/2020 02:09:56	26012020	260120	020956	2.680	12.418495	-57.629700	2.870	0.100	-0.120	-0.630	2.720	-1.600	-0.400																			1580004596.0	0.37	0.69
26/01/2020 02:09:57	26012020	260120	020957	2.890	12.418495	-57.629702	3.070	0.170	-0.010	-0.400	2.930	-1.500	-0.200																			1580004597.0	0.14	0.26
26/01/2020 02:09:58	26012020	260120	020958	3.090	12.418493	-57.629700	3.380	0.080	-0.030	-0.270	3.140	-1.400	0.000																			1580004598.0	0.29	0.54
26/01/2020 02:09:59	26012020	260120	020959	3.400	12.418493	-57.629698	3.700	-0.100	-0.080	-0.250	3.470	-1.500	0.000	1015.40	25.40	25.50	21.20	21.20	-1.00	77.00	77.00	392.00	24.60	38.00	5.10	35.00	5.00	14	3334.00	27.50	27.50	1580004599.0	0.44	0.81
26/01/2020 02:10:00	26012020	260120	021000	3.700	12.418493	-57.629697	3.850	-0.260	0.010	-0.090	3.740	-1.500	0.100																			1580004600.0	0.30	0.56
26/01/2020 02:10:01	26012020	260120	021001	3.810	12.418493	-57.629695	3.870	-0.260	0.080	0.190	3.820	-1.300	0.400																			1580004601.0	0.19	0.35
26/01/2020 02:10:02	26012020	260120	021002	3.820	12.418492	-57.629695	3.970	-0.050	-0.110	0.350	3.830	-1.400	0.600																			1580004602.0	0.32	0.59
26/01/2020 02:10:03	26012020	260120	021003	3.930	12.418492	-57.629693	4.150	0.240	-0.430	0.310	3.970	-1.700	0.700																			1580004603.0	0.24	0.44
26/01/2020 02:10:04	26012020	260120	021004	4.130	12.418492	-57.629693	4.390	0.380	-0.510	0.140	4.180	-1.900	0.500																			1580004604.0	0.27	0.50
26/01/2020 02:10:05	26012020	260120	021005	4.330	12.418493	-57.629693	4.670	0.290	-0.220	-0.120	4.380	-1.800	0.300																			1580004605.0	0.24	0.44
26/01/2020 02:10:06	26012020	260120	021006	4.680	12.418493	-57.629693	4.950	0.030	0.180	-0.350	4.740	-1.400	0.100																			1580004606.0	0.09	0.17
26/01/2020 02:10:07	26012020	260120	021007	4.960	12.418492	-57.629693	5.170	-0.190	0.310	-0.530	5.010	-1.100	-0.100																			1580004607.0	0.40	0.74
26/01/2020 02:10:08	26012020	260120	021008	5.190	12.418490	-57.629693	5.360	-0.240	0.120	-0.630	5.230	-1.200	-0.300																			1580004608.0	0.36	0.67
26/01/2020 02:10:09	26012020	260120	021009	5.370	12.418490	-57.629695	5.480	-0.160	-0.040	-0.600	5.400	-1.400	-0.300																			1580004609.0	0.13	0.24
26/01/2020 02:10:10	26012020	260120	021010	5.480	12.418490	-57.629695	5.520	-0.030	0.010	-0.360	5.490	-1.400	-0.200																			1580004610.0	0.10	0.19
26/01/2020 02:10:11	26012020	260120	021011	5.520	12.418490	-57.629693	5.590	0.130	-0.100	-0.080	5.520	-1.400	0.100																			1580004611.0	0.31	0.57
26/01/2020 02:10:12	26012020	260120	021012	5.590	12.418488	-57.629692	5.760	0.280	-0.590	0.010	5.630	-1.700	0.300																			1580004612.0	0.58	1.07
26/01/2020 02:10:13	26012020	260120	021013	5.800	12.418488	-57.629688	6.010	0.340	-0.960	-0.070	5.840	-2.200	0.300																			1580004613.0	0.45	0.83
26/01/2020 02:10:14	26012020	260120	021014	6.050	12.418490	-57.629688	6.230	0.260	-0.630	-0.100	6.100	-2.300	0.200																			1580004614.0	0.54	1.00
26/01/2020 02:10:15	26012020	260120	021015	6.260	12.418492	-57.629688	6.350	0.060	0.130	0.020	6.290	-1.600	0.300																			1580004615.0	0.19	0.35
26/01/2020 02:10:16	26012020	260120	021016	6.370	12.418490	-57.629688	6.410	-0.150	0.640	0.150	6.380	-0.900	0.400																			1580004616.0	0.49	0.91
26/01/2020 02:10:17	26012020	260120	021017	6.420	12.418487	-57.629687	6.450	-0.320	0.680	0.170	6.420	-0.700	0.500																			1580004617.0	0.64	1.19
26/01/2020 02:10:18	26012020	260120	021018	6.450	12.418485	-57.629687	6.500	-0.420	0.480	0.040	6.460	-0.800	0.400																			1580004618.0	0.25	0.46
26/01/2020 02:10:19	26012020	260120	021019	6.500	12.418485	-57.629687	6.640	-0.370	0.170	-0.160	6.520	-1.100	0.300																			1580004619.0	0.10	0.19
26/01/2020 02:10:20	26012020	260120	021020	6.680	12.418485	-57.629688	6.860	-0.190	-0.310	-0.320	6.720	-1.500	0.000																			1580004620.0	0.16	0.30
26/01/2020 02:10:21	26012020	260120	021021	6.900	12.418485	-57.629688	7.070	0.020	-0.780	-0.360	6.940	-2.000	-0.000																			1580004621.0	0.04	0.07
26/01/2020 02:10:22	26012020	260120	021022	7.100	12.418487	-57.629688	7.210	0.190	-0.950	-0.420	7.140	-2.300	-0.100																			1580004622.0	0.24	0.44
26/01/2020 02:10:23	26012020	260120	021023	7.240	12.418487	-57.629687	7.250	0.320	-0.730	-0.440	7.260	-2.300	-0.100																			1580004623.0	0.24	0.44
26/01/2020 02:10:24	26012020	260120	021024	7.250	12.418487	-57.629687	7.130	0.400	-0.310	-0.210	7.220	-1.900	-0.000																			1580004624.0	0.14	0.26
26/01/2020 02:10:25	26012020	260120	021025	7.100	12.418485	-57.629685	7.010	0.380	0.110	0.190	7.070	-1.500	0.300																			1580004625.0	0.29	0.54
26/01/2020 02:10:26	26012020	260120	021026	6.990	12.418485	-57.629683	7.040	0.230	0.330	0.390	6.990	-1.200	0.600																			1580004626.0	0.45	0.83
26/01/2020 02:10:27	26012020	260120	021027	7.050	12.418483	-57.629682	7.160	-0.020	0.420	0.340	7.080	-1.000	0.700																			1580004627.0	0.40	0.74
26/01/2020 02:10:28	26012020	260120	021028	7.180	12.418483	-57.629682	7.260	-0.250	0.440	0.240	7.200	-1.000	0.600																			1580004628.0	0.10	0.19
26/01/2020 02:10:29	26012020	260120	021029	7.260	12.418483	-57.629682	7.360	-0.340	0.300	0.190	7.270	-1.000	0.500																			1580004629.0	0.18	0.33
26/01/2020 02:10:30	26012020	260120	021030	7.380	12.418483	-57.629683	7.520	-0.290	-0.060	0.120	7.410	-1.300	0.500																			1580004630.0	0.19	0.35
26/01/2020 02:10:31	26012020	260120	021031	7.510	12.418483	-57.629683	7.670	-0.210	-0.430	0.030	7.550	-1.700	0.400																			1580004631.0	0.03	0.06
26/01/2020 02:10:32	26012020	260120	021032	7.680	12.418483	-57.629683	7.690	-0.130	-0.560	0.000	7.700	-1.900	0.300																			1580004632.0	0.18	0.33
26/01/2020 02:10:33	26012020	260120	021033	7.700	12.418483	-57.629683	7.550	-0.030	-0.430	0.100	7.680	-1.900	0.400																			1580004633.0	0.08	0.15
26/01/2020 02:10:34	26012020	260120	021034	7.520	12.418483	-57.629682	7.360	0.130	-0.280	0.250	7.480	-1.700	0.500																			1580004634.0	0.18	0.33
26/01/2020 02:10:35	26012020	260120	021035	7.330	12.418482	-57.629682	7.220	0.300	-0.200	0.320	7.310	-1.600	0.600																			1580004635.0	0.28	0.52
26/01/2020 02:10:36	26012020	260120	021036	7.220	12.418482	-57.629680	7.160	0.340	-0.140	0.180	7.200	-1.600	0.600																			1580004636.0	0.24	0.44
26/01/2020 02:10:37	26012020	260120	021037	7.190	12.418482	-57.629680	7.210	0.190	-0.120	-0.240	7.200	-1.500	0.300																			1580004637.0	0.18	0.33
26/01/2020 02:10:38	26012020	260120	021038	7.260	12.418483	-57.629680	7.310	-0.040	-0.050	-0.720	7.280	-1.500	-0.200																			1580004638.0	0.26	0.48
26/01/2020 02:10:39	26012020	260120	021039	7.360	12.418483	-57.629683	7.420	-0.180	0.170	-1.010	7.380	-1.400	-0.600																			1580004639.0	0.63	1.17
26/01/2020 02:10:40	26012020	260120	021040	7.470	12.418485	-57.629685	7.480	-0.200	0.370	-1.010	7.490	-1.100	-0.700																			1580004640.0	0.54	1.00
26/01/2020 02:10:41	26012020	260120	021041	7.520	12.418483	-57.629687	7.430	-0.210	0.320	-0.750	7.510	-1.000	-0.600																			1580004641.0	0.19	0.35
26/01/2020 02:10:42	26012020	260120	021042	7.440	12.418483	-57.629685	7.250	-0.250	0.040	-0.350	7.410	-1.200	-0.200																			1580004642.0	0.24	0.44
26/01/2020 02:10:43	26012020	260120	021043	7.240	12.418483	-57.629683	7.060	-0.250	-0.210	0.070	7.200	-1.500	0.200																			1580004643.0	0.41	0.76
26/01/2020 02:10:44	26012020	260120	021044	7.060	12.418485	-57.629682	7.060	-0.140	-0.390	0.370	7.050	-1.700	0.600																			1580004644.0	0.49	0.91
26/01/2020 02:10:45	26012020	260120	021045	7.090	12.418485	-57.629678	7.200	0.040	-0.540	0.530	7.110	-1.900	0.800																			1580004645.0	0.54	1.00
26/01/2020 02:10:46	26012020	260120	021046	7.220	12.418485	-57.629677	7.280	0.230	-0.560	0.620	7.250	-2.000	0.900																			1580004646.0	0.46	0.85
26/01/2020 02:10:47	26012020	260120	021047	7.260	12.418485	-57.629675	7.120	0.330	-0.420	0.710	7.250	-1.900	1.000																			1580004647.0	0.32	0.59
26/01/2020 02:10:48	26012020	260120	021048	7.060	12.418487	-57.629675	6.860	0.300	-0.280	0.560	7.010	-1.700	1.000																			1580004648.0	0.23	0.43
26/01/2020 02:10:49	26012020	260120	021049	6.820	12.418487	-57.629675	6.760	0.190	-0.170	0.080	6.800	-1.600	0.700																			1580004649.0	0.16	0.30
26/01/2020 02:10:50	26012020	260120	021050	6.770	12.418488	-57.629677	6.800	0.090	0.160	-0.390	6.780	-1.400	0.100																			1580004650.0	0.57	1.06
26/01/2020 02:10:51	26012020	260120	021051	6.840	12.418490	-57.629680	6.820	0.020	0.590	-0.640	6.850	-1.000	-0.200																			1580004651.0	0.74	1.37
26/01/2020 02:10:52	26012020	260120	021052	6.850	12.418488	-57.629682	6.800	-0.100	0.670	-0.770	6.850	-0.700	-0.400																			1580004652.0	0.44	0.81
26/01/2020 02:10:53	26012020	260120	021053	6.850	12.418488	-57.629682	6.860	-0.300	0.250	-0.920	6.860	-0.900	-0.500																			1580004653.0	0.20	0.37
26/01/2020 02:10:54	26012020	260120	021054	6.900	12.418488	-57.629682	6.920	-0.510	-0.260	-0.960	6.920	-1.400	-0.600																			1580004654.0	0.17	0.31
26/01/2020 02:10:55	26012020	260120	021055	6.980	12.418490	-57.629682	7.000	-0.560	-0.460	-0.810	7.000	-1.800	-0.600																			1580004655.0	0.44	0.81
26/01/2020 02:10:56	26012020	260120	021056	7.040	12.418492	-57.629682	6.960	-0.340	-0.350	-0.380	7.040	-1.800	-0.300																			1580004656.0	0.25	0.46
26/01/2020 02:10:57	26012020	260120	021057	6.990	12.418492	-57.629680	6.750	0.060	-0.300	0.200	6.960	-1.700	0.200																			1580004657.0	0.40	0.74
26/01/2020 02:10:58	26012020	260120	021058	6.720	12.418490	-57.629677	6.560	0.400	-0.500	0.630	6.680	-1.800	0.800																			1580004658.0	0.84	1.56
26/01/2020 02:10:59	26012020	260120	021059	6.540	12.418490	-57.629672	6.530	0.540	-0.710	0.760	6.530	-2.000	1.000	1015.40	25.40	25.50	21.20	21.20	-1.00	77.00	76.00	392.00	24.60	32.00	5.20	39.00	5.20	14	3455.00	27.50	27.50	1580004659.0	0.82	1.52
26/01/2020 02:11:00	26012020	260120	021100	6.540	12.418492	-57.629670	6.610	0.450	-0.540	0.600	6.550	-2.100	1.000																			1580004660.0	0.61	1.13
26/01/2020 02:11:01	26012020	260120	021101	6.620	12.418493	-57.629670	6.650	0.210	-0.010	0.290	6.640	-1.700	0.800																			1580004661.0	0.36	0.67
26/01/2020 02:11:02	26012020	260120	021102	6.650	12.418493	-57.629672	6.630	-0.050	0.510	-0.100	6.640	-1.100	0.400																			1580004662.0	0.34	0.63
26/01/2020 02:11:03	26012020	260120	021103	6.630	12.418493	-57.629675	6.640	-0.220	0.700	-0.440	6.630	-0.700	0.000																			1580004663.0	0.59	1.09
26/01/2020 02:11:04	26012020	260120	021104	6.650	12.418492	-57.629677	6.660	-0.260	0.500	-0.680	6.660	-0.800	-0.300																			1580004664.0	0.56	1.04
26/01/2020 02:11:05	26012020	260120	021105	6.690	12.418493	-57.629678	6.650	-0.190	0.080	-0.750	6.700	-1.100	-0.400																			1580004665.0	0.41	0.76
26/01/2020 02:11:06	26012020	260120	021106	6.680	12.418493	-57.629680	6.630	-0.080	-0.400	-0.670	6.670	-1.600	-0.400																			1580004666.0	0.32	0.59
26/01/2020 02:11:07	26012020	260120	021107	6.660	12.418495	-57.629678	6.690	0.000	-0.750	-0.540	6.660	-2.000	-0.300																			1580004667.0	0.38	0.70
26/01/2020 02:11:08	26012020	260120	021108	6.730	12.418497	-57.629677	6.840	0.050	-0.720	-0.340	6.770	-2.200	-0.100																			1580004668.0	0.46	0.85
26/01/2020 02:11:09	26012020	260120	021109	6.870	12.418497	-57.629673	6.880	0.030	-0.260	0.020	6.890	-1.900	0.100																			1580004669.0	0.50	0.93
26/01/2020 02:11:10	26012020	260120	021110	6.890	12.418495	-57.629672	6.720	-0.080	0.220	0.400	6.860	-1.400	0.500																			1580004670.0	0.70	1.30
26/01/2020 02:11:11	26012020	260120	021111	6.700	12.418493	-57.629668	6.570	-0.190	0.320	0.510	6.660	-1.100	0.800																			1580004671.0	0.82	1.52
26/01/2020 02:11:12	26012020	260120	021112	6.560	12.418492	-57.629667	6.540	-0.160	0.110	0.340	6.550	-1.200	0.800																			1580004672.0	0.38	0.70
26/01/2020 02:11:13	26012020	260120	021113	6.550	12.418492	-57.629668	6.540	0.000	-0.040	0.220	6.550	-1.400	0.600																			1580004673.0	0.24	0.44
26/01/2020 02:11:14	26012020	260120	021114	6.530	12.418493	-57.629668	6.500	0.170	-0.090	0.170	6.510	-1.400	0.500																			1580004674.0	0.36	0.67
26/01/2020 02:11:15	26012020	260120	021115	6.480	12.418493	-57.629668	6.510	0.180	-0.300	-0.070	6.480	-1.600	0.400																			1580004675.0	0.01	0.02
26/01/2020 02:11:16	26012020	260120	021116	6.530	12.418493	-57.629668	6.630	0.040	-0.610	-0.550	6.550	-1.900	0.000																			1580004676.0	0.08	0.15
26/01/2020 02:11:17	26012020	260120	021117	6.680	12.418495	-57.629670	6.760	-0.120	-0.600	-0.890	6.710	-2.000	-0.400																			1580004677.0	0.34	0.63
26/01/2020 02:11:18	26012020	260120	021118	6.810	12.418497	-57.629672	6.810	-0.110	-0.140	-0.870	6.820	-1.800	-0.600																			1580004678.0	0.60	1.11
26/01/2020 02:11:19	26012020	260120	021119	6.830	12.418495	-57.629675	6.780	0.110	0.240	-0.580	6.830	-1.300	-0.400																			1580004679.0	0.40	0.74
26/01/2020 02:11:20	26012020	260120	021120	6.800	12.418493	-57.629673	6.700	0.350	0.220	-0.120	6.790	-1.100	-0.000																			1580004680.0	0.40	0.74
26/01/2020 02:11:21	26012020	260120	021121	6.720	12.418493	-57.629670	6.550	0.320	0.070	0.340	6.700	-1.300	0.400																			1580004681.0	0.65	1.20
26/01/2020 02:11:22	26012020	260120	021122	6.520	12.418493	-57.629667	6.420	-0.070	0.110	0.590	6.490	-1.300	0.800																			1580004682.0	0.92	1.70
26/01/2020 02:11:23	26012020	260120	021123	6.430	12.418493	-57.629663	6.470	-0.530	0.280	0.570	6.420	-1.200	0.900																			1580004683.0	0.71	1.31
26/01/2020 02:11:24	26012020	260120	021124	6.450	12.418492	-57.629662	6.490	-0.690	0.240	0.410	6.460	-1.100	0.800																			1580004684.0	0.42	0.78
26/01/2020 02:11:25	26012020	260120	021125	6.450	12.418490	-57.629663	6.400	-0.360	-0.220	0.290	6.440	-1.300	0.700																			1580004685.0	0.53	0.98
26/01/2020 02:11:26	26012020	260120	021126	6.370	12.418490	-57.629667	6.340	0.200	-0.860	0.150	6.350	-1.900	0.500																			1580004686.0	0.42	0.78
26/01/2020 02:11:27	26012020	260120	021127	6.330	12.418492	-57.629667	6.410	0.580	-1.130	-0.110	6.340	-2.500	0.400																			1580004687.0	0.50	0.93
26/01/2020 02:11:28	26012020	260120	021128	6.420	12.418495	-57.629667	6.460	0.520	-0.650	-0.320	6.430	-2.400	0.100																			1580004688.0	0.52	0.96
26/01/2020 02:11:29	26012020	260120	021129	6.450	12.418495	-57.629667	6.310	0.170	0.290	-0.200	6.440	-1.600	0.000																			1580004689.0	0.08	0.15
26/01/2020 02:11:30	26012020	260120	021130	6.260	12.418492	-57.629667	6.000	-0.140	0.890	0.080	6.200	-0.700	0.300																			1580004690.0	0.68	1.26
26/01/2020 02:11:31	26012020	260120	021131	5.930	12.418487	-57.629665	5.720	-0.210	0.610	0.150	5.860	-0.500	0.500																			1580004691.0	0.90	1.67
26/01/2020 02:11:32	26012020	260120	021132	5.670	12.418487	-57.629665	5.650	-0.090	-0.170	-0.100	5.650	-1.200	0.400																			1580004692.0	0.30	0.56
26/01/2020 02:11:33	26012020	260120	021133	5.650	12.418488	-57.629665	5.750	0.050	-0.660	-0.420	5.660	-1.900	0.000																			1580004693.0	0.62	1.15
26/01/2020 02:11:34	26012020	260120	021134	5.760	12.418492	-57.629668	5.830	0.090	-0.480	-0.570	5.780	-2.000	-0.200																			1580004694.0	0.87	1.61
26/01/2020 02:11:35	26012020	260120	021135	5.820	12.418493	-57.629670	5.790	0.040	-0.020	-0.460	5.820	-1.600	-0.200																			1580004695.0	0.41	0.76
26/01/2020 02:11:36	26012020	260120	021136	5.750	12.418490	-57.629670	5.640	-0.030	0.210	-0.110	5.720	-1.300	0.000																			1580004696.0	0.48	0.89
26/01/2020 02:11:37	26012020	260120	021137	5.580	12.418488	-57.629668	5.440	-0.080	0.100	0.290	5.540	-1.200	0.400																			1580004697.0	0.62	1.15
26/01/2020 02:11:38	26012020	260120	021138	5.360	12.418488	-57.629665	5.220	-0.090	-0.070	0.550	5.310	-1.400	0.800																			1580004698.0	0.57	1.06
26/01/2020 02:11:39	26012020	260120	021139	5.140	12.418488	-57.629663	5.050	-0.050	-0.140	0.610	5.090	-1.500	0.900																			1580004699.0	0.47	0.87
26/01/2020 02:11:40	26012020	260120	021140	4.980	12.418488	-57.629662	5.010	0.020	-0.230	0.390	4.960	-1.600	0.900																			1580004700.0	0.24	0.44
26/01/2020 02:11:41	26012020	260120	021141	4.960	12.418488	-57.629662	5.050	0.050	-0.330	0.030	4.970	-1.700	0.500																			1580004701.0	0.06	0.11
26/01/2020 02:11:42	26012020	260120	021142	4.990	12.418488	-57.629663	4.970	0.010	-0.200	-0.230	4.980	-1.700	0.200																			1580004702.0	0.27	0.50
26/01/2020 02:11:43	26012020	260120	021143	4.880	12.418488	-57.629665	4.730	-0.010	0.030	-0.260	4.840	-1.500	0.100																			1580004703.0	0.43	0.80
26/01/2020 02:11:44	26012020	260120	021144	4.620	12.418488	-57.629667	4.430	0.080	0.060	-0.230	4.560	-1.300	0.100																			1580004704.0	0.40	0.74
26/01/2020 02:11:45	26012020	260120	021145	4.380	12.418488	-57.629667	4.240	0.190	-0.190	-0.350	4.330	-1.400	0.100																			1580004705.0	0.17	0.31
26/01/2020 02:11:46	26012020	260120	021146	4.200	12.418488	-57.629667	4.260	0.190	-0.400	-0.550	4.200	-1.700	-0.100																			1580004706.0	0.18	0.33
26/01/2020 02:11:47	26012020	260120	021147	4.240	12.418490	-57.629667	4.290	0.060	-0.250	-0.530	4.250	-1.800	-0.300																			1580004707.0	0.37	0.69
26/01/2020 02:11:48	26012020	260120	021148	4.260	12.418490	-57.629668	4.170	-0.100	0.140	-0.230	4.240	-1.400	-0.100																			1580004708.0	0.18	0.33
26/01/2020 02:11:49	26012020	260120	021149	4.100	12.418490	-57.629667	3.910	-0.170	0.350	0.080	4.050	-1.100	0.300																			1580004709.0	0.30	0.56
26/01/2020 02:11:50	26012020	260120	021150	3.820	12.418488	-57.629665	3.690	-0.170	0.150	0.190	3.770	-1.100	0.500																			1580004710.0	0.55	1.02
26/01/2020 02:11:51	26012020	260120	021151	3.630	12.418488	-57.629663	3.680	-0.090	-0.280	0.120	3.610	-1.500	0.500																			1580004711.0	0.33	0.61
26/01/2020 02:11:52	26012020	260120	021152	3.650	12.418488	-57.629663	3.780	0.010	-0.490	0.050	3.670	-1.800	0.400																			1580004712.0	0.34	0.63
26/01/2020 02:11:53	26012020	260120	021153	3.750	12.418492	-57.629663	3.730	0.060	-0.240	0.090	3.750	-1.800	0.400																			1580004713.0	0.42	0.78
26/01/2020 02:11:54	26012020	260120	021154	3.630	12.418492	-57.629663	3.380	-0.010	0.210	0.210	3.570	-1.400	0.500																			1580004714.0	0.06	0.11
26/01/2020 02:11:55	26012020	260120	021155	3.250	12.418490	-57.629663	2.980	-0.130	0.360	0.230	3.160	-1.000	0.600																			1580004715.0	0.42	0.78
26/01/2020 02:11:56	26012020	260120	021156	2.870	12.418487	-57.629663	2.800	-0.150	-0.020	0.010	2.820	-1.200	0.500																			1580004716.0	0.43	0.80
26/01/2020 02:11:57	26012020	260120	021157	2.720	12.418488	-57.629663	2.840	-0.020	-0.580	-0.320	2.730	-1.700	0.200																			1580004717.0	0.27	0.50
26/01/2020 02:11:58	26012020	260120	021158	2.820	12.418490	-57.629667	2.990	0.180	-0.740	-0.610	2.850	-2.100	-0.200																			1580004718.0	0.70	1.30
26/01/2020 02:11:59	26012020	260120	021159	2.940	12.418492	-57.629668	3.050	0.300	-0.410	-0.680	2.970	-2.000	-0.400	1015.40	25.50	25.50	21.20	21.20	-1.00	77.00	76.00	392.00	24.60	34.00	4.80	40.00	4.70	14	3266.00	27.40	27.40	1580004719.0	0.61	1.13
26/01/2020 02:12:00	26012020	260120	021200	3.000	12.418492	-57.629668	2.940	0.230	0.070	-0.490	2.980	-1.500	-0.300																			1580004720.0	0.12	0.22
26/01/2020 02:12:01	26012020	260120	021201	2.870	12.418492	-57.629668	2.770	0.030	0.310	-0.190	2.840	-1.200	-0.000																			1580004721.0	0.38	0.70
26/01/2020 02:12:02	26012020	260120	021202	2.710	12.418490	-57.629665	2.630	-0.150	0.250	0.070	2.690	-1.100	0.300																			1580004722.0	0.51	0.94
26/01/2020 02:12:03	26012020	260120	021203	2.580	12.418490	-57.629663	2.540	-0.220	0.100	0.290	2.560	-1.200	0.500																			1580004723.0	0.39	0.72
26/01/2020 02:12:04	26012020	260120	021204	2.500	12.418490	-57.629663	2.530	-0.170	-0.030	0.420	2.500	-1.400	0.700																			1580004724.0	0.33	0.61
26/01/2020 02:12:05	26012020	260120	021205	2.500	12.418492	-57.629662	2.510	-0.090	-0.100	0.520	2.500	-1.500	0.800																			1580004725.0	0.25	0.46
26/01/2020 02:12:06	26012020	260120	021206	2.460	12.418492	-57.629660	2.370	-0.020	-0.170	0.550	2.430	-1.500	0.900																			1580004726.0	0.17	0.31
26/01/2020 02:12:07	26012020	260120	021207	2.320	12.418492	-57.629660	2.260	0.060	-0.300	0.410	2.290	-1.600	0.800																			1580004727.0	0.10	0.19
26/01/2020 02:12:08	26012020	260120	021208	2.230	12.418492	-57.629660	2.250	0.160	-0.460	0.160	2.220	-1.800	0.600																			1580004728.0	0.02	0.04
26/01/2020 02:12:09	26012020	260120	021209	2.230	12.418492	-57.629660	2.260	0.190	-0.400	-0.030	2.230	-1.900	0.400																			1580004729.0	0.22	0.41
26/01/2020 02:12:10	26012020	260120	021210	2.220	12.418493	-57.629662	2.200	0.120	-0.070	-0.170	2.220	-1.600	0.200																			1580004730.0	0.27	0.50
26/01/2020 02:12:11	26012020	260120	021211	2.180	12.418493	-57.629663	2.110	0.010	0.230	-0.320	2.160	-1.300	0.100																			1580004731.0	0.24	0.44
26/01/2020 02:12:12	26012020	260120	021212	2.090	12.418492	-57.629663	2.120	-0.050	0.200	-0.480	2.090	-1.100	-0.100																			1580004732.0	0.35	0.65
26/01/2020 02:12:13	26012020	260120	021213	2.120	12.418492	-57.629665	2.230	-0.080	-0.040	-0.470	2.140	-1.300	-0.200																			1580004733.0	0.24	0.44
26/01/2020 02:12:14	26012020	260120	021214	2.240	12.418493	-57.629665	2.280	-0.110	-0.120	-0.230	2.250	-1.500	-0.000																			1580004734.0	0.25	0.46
26/01/2020 02:12:15	26012020	260120	021215	2.260	12.418493	-57.629665	2.220	-0.140	0.050	0.130	2.250	-1.400	0.300																			1580004735.0	0.29	0.54
26/01/2020 02:12:16	26012020	260120	021216	2.180	12.418493	-57.629662	2.130	-0.090	0.100	0.480	2.160	-1.300	0.600																			1580004736.0	0.50	0.93
26/01/2020 02:12:17	26012020	260120	021217	2.090	12.418492	-57.629658	2.110	0.030	-0.240	0.700	2.080	-1.400	0.900																			1580004737.0	0.71	1.31
26/01/2020 02:12:18	26012020	260120	021218	2.090	12.418492	-57.629657	2.230	0.140	-0.650	0.670	2.110	-1.900	1.000																			1580004738.0	0.56	1.04
26/01/2020 02:12:19	26012020	260120	021219	2.210	12.418493	-57.629655	2.260	0.140	-0.640	0.500	2.220	-2.100	0.900																			1580004739.0	0.51	0.94
26/01/2020 02:12:20	26012020	260120	021220	2.200	12.418495	-57.629657	2.040	0.070	-0.110	0.450	2.160	-1.800	0.800																			1580004740.0	0.40	0.74
26/01/2020 02:12:21	26012020	260120	021221	1.970	12.418495	-57.629658	1.860	0.070	0.310	0.430	1.920	-1.200	0.800																			1580004741.0	0.38	0.70
26/01/2020 02:12:22	26012020	260120	021222	1.820	12.418493	-57.629658	1.920	0.220	0.210	0.290	1.820	-1.100	0.700																			1580004742.0	0.51	0.94
26/01/2020 02:12:23	26012020	260120	021223	1.920	12.418493	-57.629658	2.070	0.290	-0.060	0.090	1.960	-1.300	0.500																			1580004743.0	0.05	0.09
26/01/2020 02:12:24	26012020	260120	021224	2.070	12.418495	-57.629658	2.090	0.080	-0.060	-0.160	2.090	-1.500	0.300																			1580004744.0	0.42	0.78
26/01/2020 02:12:25	26012020	260120	021225	2.090	12.418495	-57.629658	1.940	-0.350	0.160	-0.370	2.080	-1.300	0.000																			1580004745.0	0.27	0.50
26/01/2020 02:12:26	26012020	260120	021226	1.910	12.418495	-57.629658	1.800	-0.610	0.220	-0.440	1.870	-1.200	-0.100																			1580004746.0	0.29	0.54
26/01/2020 02:12:27	26012020	260120	021227	1.790	12.418493	-57.629662	1.830	-0.440	-0.160	-0.450	1.790	-1.300	-0.100																			1580004747.0	0.57	1.06
26/01/2020 02:12:28	26012020	260120	021228	1.850	12.418493	-57.629663	1.920	0.020	-0.580	-0.290	1.870	-1.800	-0.100																			1580004748.0	0.38	0.70
26/01/2020 02:12:29	26012020	260120	021229	1.940	12.418495	-57.629663	1.930	0.360	-0.580	0.070	1.940	-2.000	0.200																			1580004749.0	0.41	0.76
26/01/2020 02:12:30	26012020	260120	021230	1.910	12.418497	-57.629660	1.800	0.310	-0.170	0.540	1.890	-1.800	0.600																			1580004750.0	0.60	1.11
26/01/2020 02:12:31	26012020	260120	021231	1.760	12.418495	-57.629657	1.610	0.020	0.230	0.910	1.710	-1.300	1.100																			1580004751.0	0.83	1.54
26/01/2020 02:12:32	26012020	260120	021232	1.550	12.418493	-57.629653	1.450	-0.200	0.210	0.910	1.520	-1.100	1.300																			1580004752.0	0.80	1.48
26/01/2020 02:12:33	26012020	260120	021233	1.420	12.418492	-57.629653	1.430	-0.130	-0.210	0.550	1.410	-1.400	1.100																			1580004753.0	0.27	0.50
26/01/2020 02:12:34	26012020	260120	021234	1.430	12.418493	-57.629655	1.580	0.190	-0.600	0.110	1.460	-1.800	0.600																			1580004754.0	0.59	1.09
26/01/2020 02:12:35	26012020	260120	021235	1.550	12.418497	-57.629658	1.730	0.460	-0.530	-0.170	1.590	-2.000	0.300																			1580004755.0	0.95	1.76
26/01/2020 02:12:36	26012020	260120	021236	1.740	12.418498	-57.629660	1.700	0.380	-0.020	-0.180	1.740	-1.700	0.100																			1580004756.0	0.56	1.04
26/01/2020 02:12:37	26012020	260120	021237	1.700	12.418498	-57.629660	1.470	-0.040	0.490	-0.120	1.660	-1.100	0.200																			1580004757.0	0.15	0.28
26/01/2020 02:12:38	26012020	260120	021238	1.410	12.418495	-57.629658	1.210	-0.490	0.650	-0.110	1.360	-0.800	0.200																			1580004758.0	0.52	0.96
26/01/2020 02:12:39	26012020	260120	021239	1.160	12.418493	-57.629658	1.090	-0.610	0.380	-0.150	1.140	-0.800	0.200																			1580004759.0	0.38	0.70
26/01/2020 02:12:40	26012020	260120	021240	1.110	12.418493	-57.629660	1.260	-0.370	-0.210	-0.330	1.130	-1.300	0.100																			1580004760.0	0.13	0.24
26/01/2020 02:12:41	26012020	260120	021241	1.310	12.418495	-57.629660	1.490	-0.000	-0.680	-0.470	1.360	-1.900	-0.100																			1580004761.0	0.31	0.57
26/01/2020 02:12:42	26012020	260120	021242	1.520	12.418497	-57.629662	1.530	0.250	-0.730	-0.360	1.540	-2.100	-0.100																			1580004762.0	0.47	0.87
26/01/2020 02:12:43	26012020	260120	021243	1.530	12.418497	-57.629660	1.410	0.290	-0.450	0.020	1.520	-2.000	0.100																			1580004763.0	0.19	0.35
26/01/2020 02:12:44	26012020	260120	021244	1.380	12.418497	-57.629658	1.200	0.160	-0.100	0.480	1.340	-1.700	0.600																			1580004764.0	0.42	0.78
26/01/2020 02:12:45	26012020	260120	021245	1.150	12.418495	-57.629657	0.980	-0.030	0.180	0.790	1.100	-1.300	1.000																			1580004765.0	0.63	1.17
26/01/2020 02:12:46	26012020	260120	021246	0.940	12.418493	-57.629655	0.870	-0.130	0.220	0.830	0.910	-1.200	1.200																			1580004766.0	0.45	0.83
26/01/2020 02:12:47	26012020	260120	021247	0.860	12.418493	-57.629655	0.910	-0.020	0.020	0.670	0.860	-1.200	1.100																			1580004767.0	0.10	0.19
26/01/2020 02:12:48	26012020	260120	021248	0.930	12.418495	-57.629655	1.100	0.210	-0.310	0.380	0.970	-1.500	0.900																			1580004768.0	0.32	0.59
26/01/2020 02:12:49	26012020	260120	021249	1.100	12.418497	-57.629657	1.290	0.290	-0.400	0.060	1.140	-1.800	0.500																			1580004769.0	0.43	0.80
26/01/2020 02:12:50	26012020	260120	021250	1.310	12.418497	-57.629658	1.270	0.070	-0.070	-0.110	1.320	-1.700	0.300																			1580004770.0	0.36	0.67
26/01/2020 02:12:51	26012020	260120	021251	1.250	12.418497	-57.629658	1.060	-0.290	0.360	-0.080	1.220	-1.200	0.200																			1580004771.0	0.12	0.22
26/01/2020 02:12:52	26012020	260120	021252	1.030	12.418495	-57.629658	0.860	-0.420	0.460	0.050	0.980	-0.900	0.300																			1580004772.0	0.48	0.89
26/01/2020 02:12:53	26012020	260120	021253	0.830	12.418493	-57.629660	0.820	-0.110	0.050	0.110	0.820	-1.100	0.400																			1580004773.0	0.43	0.80
26/01/2020 02:12:54	26012020	260120	021254	0.820	12.418493	-57.629660	0.920	0.380	-0.580	0.060	0.830	-1.700	0.400																			1580004774.0	0.04	0.07
26/01/2020 02:12:55	26012020	260120	021255	0.940	12.418495	-57.629658	1.030	0.530	-0.830	0.010	0.970	-2.200	0.400																			1580004775.0	0.58	1.07
26/01/2020 02:12:56	26012020	260120	021256	1.040	12.418498	-57.629657	1.020	0.140	-0.440	0.050	1.040	-2.100	0.300																			1580004776.0	0.64	1.19
26/01/2020 02:12:57	26012020	260120	021257	1.020	12.418498	-57.629655	0.910	-0.430	0.260	0.100	1.000	-1.500	0.400																			1580004777.0	0.19	0.35
26/01/2020 02:12:58	26012020	260120	021258	0.890	12.418495	-57.629657	0.740	-0.650	0.620	0.180	0.860	-0.900	0.500																			1580004778.0	0.62	1.15
26/01/2020 02:12:59	26012020	260120	021259	0.720	12.418492	-57.629658	0.650	-0.330	0.320	0.230	0.700	-0.900	0.600	1015.40	25.50	25.60	21.30	21.30	-1.00	77.00	77.00	392.00	24.60	41.00	4.50	43.00	4.40	14	3392.00	27.40	27.40	1580004779.0	0.72	1.33
26/01/2020 02:13:00	26012020	260120	021300	0.650	12.418492	-57.629660	0.720	0.180	-0.320	0.210	0.660	-1.400	0.600																			1580004780.0	0.24	0.44
26/01/2020 02:13:01	26012020	260120	021301	0.720	12.418495	-57.629660	0.820	0.420	-0.620	0.200	0.750	-1.900	0.500																			1580004781.0	0.53	0.98
26/01/2020 02:13:02	26012020	260120	021302	0.830	12.418497	-57.629658	0.800	0.270	-0.380	0.240	0.830	-1.900	0.500																			1580004782.0	0.55	1.02
26/01/2020 02:13:03	26012020	260120	021303	0.810	12.418497	-57.629658	0.730	0.020	0.020	0.340	0.800	-1.500	0.600																			1580004783.0	0.11	0.20
26/01/2020 02:13:04	26012020	260120	021304	0.740	12.418495	-57.629658	0.720	-0.050	0.080	0.360	0.730	-1.300	0.700																			1580004784.0	0.47	0.87
26/01/2020 02:13:05	26012020	260120	021305	0.740	12.418493	-57.629657	0.730	0.020	-0.130	0.270	0.740	-1.400	0.700																			1580004785.0	0.30	0.56
26/01/2020 02:13:06	26012020	260120	021306	0.740	12.418495	-57.629657	0.680	0.040	-0.240	0.140	0.740	-1.600	0.500																			1580004786.0	0.19	0.35
26/01/2020 02:13:07	26012020	260120	021307	0.690	12.418495	-57.629658	0.590	-0.040	-0.110	0.060	0.670	-1.600	0.400																			1580004787.0	0.38	0.70
26/01/2020 02:13:08	26012020	260120	021308	0.600	12.418497	-57.629660	0.560	-0.090	0.030	0.020	0.590	-1.400	0.400																			1580004788.0	0.36	0.67
26/01/2020 02:13:09	26012020	260120	021309	0.590	12.418495	-57.629662	0.660	-0.010	-0.030	-0.000	0.600	-1.400	0.300																			1580004789.0	0.33	0.61
26/01/2020 02:13:10	26012020	260120	021310	0.710	12.418495	-57.629662	0.870	0.090	-0.150	-0.050	0.750	-1.500	0.300																			1580004790.0	0.06	0.11
26/01/2020 02:13:11	26012020	260120	021311	0.920	12.418497	-57.629660	0.980	0.050	-0.010	0.010	0.950	-1.500	0.300																			1580004791.0	0.22	0.41
26/01/2020 02:13:12	26012020	260120	021312	0.990	12.418497	-57.629658	0.840	-0.180	0.300	0.250	0.970	-1.200	0.400																			1580004792.0	0.28	0.52
26/01/2020 02:13:13	26012020	260120	021313	0.800	12.418495	-57.629658	0.590	-0.380	0.380	0.460	0.740	-1.000	0.700																			1580004793.0	0.47	0.87
26/01/2020 02:13:14	26012020	260120	021314	0.550	12.418493	-57.629657	0.500	-0.270	-0.090	0.440	0.520	-1.200	0.800																			1580004794.0	0.45	0.83
26/01/2020 02:13:15	26012020	260120	021315	0.510	12.418492	-57.629658	0.660	0.130	-0.810	0.190	0.540	-1.900	0.700																			1580004795.0	0.13	0.24
26/01/2020 02:13:16	26012020	260120	021316	0.710	12.418495	-57.629658	0.820	0.450	-1.040	-0.020	0.750	-2.400	0.400																			1580004796.0	0.64	1.19
26/01/2020 02:13:17	26012020	260120	021317	0.850	12.418498	-57.629660	0.790	0.420	-0.530	-0.060	0.850	-2.200	0.300																			1580004797.0	0.66	1.22
26/01/2020 02:13:18	26012020	260120	021318	0.790	12.418498	-57.629660	0.680	0.140	0.250	-0.010	0.770	-1.500	0.300																			1580004798.0	0.09	0.17
26/01/2020 02:13:19	26012020	260120	021319	0.680	12.418495	-57.629660	0.620	-0.100	0.680	0.080	0.670	-0.900	0.400																			1580004799.0	0.63	1.17
26/01/2020 02:13:20	26012020	260120	021320	0.630	12.418492	-57.629660	0.620	-0.160	0.560	0.130	0.630	-0.700	0.400																			1580004800.0	0.60	1.11
26/01/2020 02:13:21	26012020	260120	021321	0.640	12.418492	-57.629660	0.700	-0.070	0.040	0.070	0.650	-1.100	0.400																			1580004801.0	0.14	0.26
26/01/2020 02:13:22	26012020	260120	021322	0.740	12.418493	-57.629660	0.860	0.010	-0.530	-0.070	0.770	-1.700	0.300																			1580004802.0	0.32	0.59
26/01/2020 02:13:23	26012020	260120	021323	0.890	12.418495	-57.629660	0.930	0.000	-0.660	-0.070	0.910	-2.100	0.200																			1580004803.0	0.56	1.04
26/01/2020 02:13:24	26012020	260120	021324	0.930	12.418497	-57.629662	0.800	-0.100	-0.250	0.180	0.910	-1.900	0.400																			1580004804.0	0.37	0.69
26/01/2020 02:13:25	26012020	260120	021325	0.770	12.418497	-57.629660	0.610	-0.190	0.240	0.440	0.730	-1.400	0.700																			1580004805.0	0.25	0.46
26/01/2020 02:13:26	26012020	260120	021326	0.590	12.418493	-57.629658	0.580	-0.200	0.310	0.460	0.580	-1.100	0.800																			1580004806.0	0.70	1.30
26/01/2020 02:13:27	26012020	260120	021327	0.590	12.418492	-57.629658	0.730	-0.070	-0.030	0.330	0.610	-1.200	0.700																			1580004807.0	0.44	0.81
26/01/2020 02:13:28	26012020	260120	021328	0.760	12.418492	-57.629658	0.830	0.140	-0.350	0.290	0.780	-1.600	0.600																			1580004808.0	0.19	0.35
26/01/2020 02:13:29	26012020	260120	021329	0.850	12.418493	-57.629660	0.850	0.300	-0.400	0.260	0.850	-1.800	0.600																			1580004809.0	0.38	0.70
26/01/2020 02:13:30	26012020	260120	021330	0.850	12.418493	-57.629660	0.850	0.330	-0.340	0.140	0.850	-1.800	0.500																			1580004810.0	0.15	0.28
26/01/2020 02:13:31	26012020	260120	021331	0.860	12.418493	-57.629660	0.880	0.240	-0.310	0.070	0.860	-1.700	0.400																			1580004811.0	0.08	0.15
26/01/2020 02:13:32	26012020	260120	021332	0.880	12.418493	-57.629660	0.910	0.080	-0.180	0.130	0.890	-1.700	0.400																			1580004812.0	0.02	0.04
26/01/2020 02:13:33	26012020	260120	021333	0.920	12.418493	-57.629658	0.940	-0.080	0.110	0.170	0.920	-1.400	0.500																			1580004813.0	0.07	0.13
26/01/2020 02:13:34	26012020	260120	021334	0.960	12.418493	-57.629658	0.940	-0.240	0.400	0.140	0.970	-1.100	0.500																			1580004814.0	0.15	0.28
26/01/2020 02:13:35	26012020	260120	021335	0.930	12.418492	-57.629658	0.800	-0.340	0.470	0.140	0.910	-0.900	0.500																			1580004815.0	0.26	0.48
26/01/2020 02:13:36	26012020	260120	021336	0.770	12.418492	-57.629658	0.680	-0.300	0.190	0.120	0.740	-1.000	0.500																			1580004816.0	0.29	0.54
26/01/2020 02:13:37	26012020	260120	021337	0.680	12.418490	-57.629660	0.740	-0.100	-0.270	0.030	0.690	-1.400	0.400																			1580004817.0	0.26	0.48
26/01/2020 02:13:38	26012020	260120	021338	0.770	12.418492	-57.629662	0.900	0.120	-0.600	-0.040	0.810	-1.900	0.300																			1580004818.0	0.28	0.52
26/01/2020 02:13:39	26012020	260120	021339	0.910	12.418493	-57.629662	1.020	0.210	-0.630	-0.030	0.940	-2.000	0.300																			1580004819.0	0.26	0.48
26/01/2020 02:13:40	26012020	260120	021340	1.060	12.418493	-57.629660	1.130	0.130	-0.400	0.010	1.080	-1.900	0.300																			1580004820.0	0.14	0.26
26/01/2020 02:13:41	26012020	260120	021341	1.150	12.418493	-57.629660	1.180	0.000	-0.060	0.140	1.170	-1.600	0.400																			1580004821.0	0.16	0.30
26/01/2020 02:13:42	26012020	260120	021342	1.180	12.418492	-57.629660	1.130	-0.050	0.190	0.380	1.180	-1.300	0.600																			1580004822.0	0.25	0.46
26/01/2020 02:13:43	26012020	260120	021343	1.120	12.418490	-57.629658	1.090	-0.020	0.160	0.560	1.100	-1.200	0.800																			1580004823.0	0.33	0.61
26/01/2020 02:13:44	26012020	260120	021344	1.080	12.418490	-57.629658	1.150	0.070	-0.030	0.590	1.090	-1.300	0.900																			1580004824.0	0.27	0.50
26/01/2020 02:13:45	26012020	260120	021345	1.160	12.418492	-57.629657	1.210	0.140	-0.180	0.590	1.180	-1.500	0.900																			1580004825.0	0.23	0.43
26/01/2020 02:13:46	26012020	260120	021346	1.200	12.418492	-57.629657	1.210	0.160	-0.230	0.590	1.200	-1.600	0.900																			1580004826.0	0.24	0.44
26/01/2020 02:13:47	26012020	260120	021347	1.200	12.418492	-57.629655	1.210	0.090	-0.230	0.430	1.200	-1.600	0.900																			1580004827.0	0.19	0.35
26/01/2020 02:13:48	26012020	260120	021348	1.210	12.418493	-57.629655	1.240	-0.070	-0.100	0.150	1.210	-1.600	0.600																			1580004828.0	0.06	0.11
26/01/2020 02:13:49	26012020	260120	021349	1.250	12.418493	-57.629657	1.240	-0.230	0.200	-0.020	1.260	-1.400	0.400																			1580004829.0	0.28	0.52
26/01/2020 02:13:50	26012020	260120	021350	1.240	12.418492	-57.629658	1.170	-0.260	0.440	-0.010	1.220	-1.000	0.300																			1580004830.0	0.48	0.89
26/01/2020 02:13:51	26012020	260120	021351	1.180	12.418490	-57.629660	1.200	-0.160	0.220	-0.090	1.180	-1.000	0.300																			1580004831.0	0.44	0.81
26/01/2020 02:13:52	26012020	260120	021352	1.220	12.418490	-57.629660	1.350	-0.050	-0.340	-0.240	1.250	-1.500	0.200																			1580004832.0	0.19	0.35
26/01/2020 02:13:53	26012020	260120	021353	1.360	12.418490	-57.629660	1.540	-0.020	-0.740	-0.300	1.400	-2.000	0.100																			1580004833.0	0.29	0.54
26/01/2020 02:13:54	26012020	260120	021354	1.580	12.418493	-57.629662	1.670	-0.010	-0.680	-0.190	1.600	-2.200	0.100																			1580004834.0	0.46	0.85
26/01/2020 02:13:55	26012020	260120	021355	1.690	12.418493	-57.629662	1.690	0.030	-0.250	0.140	1.700	-1.900	0.300																			1580004835.0	0.20	0.37
26/01/2020 02:13:56	26012020	260120	021356	1.680	12.418492	-57.629660	1.630	0.060	0.190	0.560	1.660	-1.400	0.700																			1580004836.0	0.33	0.61
26/01/2020 02:13:57	26012020	260120	021357	1.600	12.418490	-57.629658	1.660	0.050	0.280	0.840	1.600	-1.100	1.100																			1580004837.0	0.68	1.26
26/01/2020 02:13:58	26012020	260120	021358	1.650	12.418488	-57.629655	1.820	0.040	0.060	0.870	1.680	-1.200	1.200																			1580004838.0	0.53	0.98
26/01/2020 02:13:59	26012020	260120	021359	1.810	12.418490	-57.629655	2.020	0.050	-0.140	0.760	1.860	-1.500	1.200	1015.50	25.50	25.60	21.50	21.40	-1.00	78.00	77.00	392.00	24.60	41.00	4.70	42.00	4.60	14	3359.00	27.40	27.40	1580004839.0	0.26	0.48
26/01/2020 02:14:00	26012020	260120	021400	2.010	12.418492	-57.629655	2.150	0.070	-0.190	0.600	2.040	-1.600	1.000																			1580004840.0	0.27	0.50
26/01/2020 02:14:01	26012020	260120	021401	2.110	12.418492	-57.629655	2.170	0.050	-0.160	0.490	2.130	-1.600	0.900																			1580004841.0	0.13	0.24
26/01/2020 02:14:02	26012020	260120	021402	2.120	12.418492	-57.629655	2.080	0.010	-0.140	0.350	2.110	-1.500	0.800																			1580004842.0	0.02	0.04
26/01/2020 02:14:03	26012020	260120	021403	2.020	12.418492	-57.629655	1.970	0.010	-0.130	0.180	2.000	-1.500	0.600																			1580004843.0	0.12	0.22
26/01/2020 02:14:04	26012020	260120	021404	1.930	12.418492	-57.629657	2.010	0.070	-0.120	-0.030	1.930	-1.500	0.400																			1580004844.0	0.24	0.44
26/01/2020 02:14:05	26012020	260120	021405	2.010	12.418492	-57.629657	2.170	0.060	-0.110	-0.320	2.040	-1.500	0.200																			1580004845.0	0.19	0.35
26/01/2020 02:14:06	26012020	260120	021406	2.170	12.418492	-57.629658	2.270	-0.110	-0.050	-0.580	2.190	-1.500	-0.100																			1580004846.0	0.20	0.37
26/01/2020 02:14:07	26012020	260120	021407	2.260	12.418492	-57.629660	2.310	-0.360	0.070	-0.690	2.270	-1.400	-0.300																			1580004847.0	0.35	0.65
26/01/2020 02:14:08	26012020	260120	021408	2.310	12.418492	-57.629662	2.370	-0.460	0.170	-0.590	2.320	-1.300	-0.300																			1580004848.0	0.47	0.87
26/01/2020 02:14:09	26012020	260120	021409	2.380	12.418490	-57.629663	2.510	-0.290	0.140	-0.270	2.410	-1.200	-0.100																			1580004849.0	0.43	0.80
26/01/2020 02:14:10	26012020	260120	021410	2.520	12.418490	-57.629663	2.680	0.050	-0.080	0.190	2.550	-1.300	0.300																			1580004850.0	0.17	0.31
26/01/2020 02:14:11	26012020	260120	021411	2.690	12.418490	-57.629662	2.820	0.290	-0.380	0.650	2.720	-1.600	0.800																			1580004851.0	0.57	1.06
26/01/2020 02:14:12	26012020	260120	021412	2.790	12.418490	-57.629657	2.830	0.280	-0.510	1.100	2.800	-1.900	1.200																			1580004852.0	0.95	1.76
26/01/2020 02:14:13	26012020	260120	021413	2.780	12.418492	-57.629652	2.760	0.090	-0.350	1.420	2.770	-1.800	1.600																			1580004853.0	0.97	1.80
26/01/2020 02:14:14	26012020	260120	021414	2.690	12.418490	-57.629648	2.640	-0.040	-0.110	1.480	2.670	-1.600	1.800																			1580004854.0	0.65	1.20
26/01/2020 02:14:15	26012020	260120	021415	2.550	12.418490	-57.629648	2.510	0.070	-0.060	1.210	2.520	-1.400	1.700																			1580004855.0	0.25	0.46
26/01/2020 02:14:16	26012020	260120	021416	2.450	12.418488	-57.629650	2.590	0.300	-0.270	0.540	2.460	-1.500	1.200																			1580004856.0	0.34	0.63
26/01/2020 02:14:17	26012020	260120	021417	2.580	12.418490	-57.629653	2.870	0.360	-0.400	-0.290	2.640	-1.800	0.500																			1580004857.0	0.67	1.24
26/01/2020 02:14:18	26012020	260120	021418	2.890	12.418492	-57.629657	3.120	0.170	-0.130	-0.940	2.960	-1.700	-0.300																			1580004858.0	1.00	1.85
26/01/2020 02:14:19	26012020	260120	021419	3.140	12.418493	-57.629662	3.180	-0.140	0.430	-1.090	3.160	-1.200	-0.700																			1580004859.0	0.97	1.80
26/01/2020 02:14:20	26012020	260120	021420	3.170	12.418492	-57.629665	3.080	-0.370	0.740	-0.760	3.160	-0.700	-0.600																			1580004860.0	0.63	1.17
26/01/2020 02:14:21	26012020	260120	021421	3.050	12.418490	-57.629663	2.990	-0.460	0.490	-0.310	3.030	-0.700	-0.200																			1580004861.0	0.54	1.00
26/01/2020 02:14:22	26012020	260120	021422	2.980	12.418488	-57.629662	3.060	-0.440	-0.080	0.030	2.980	-1.200	0.200																			1580004862.0	0.60	1.11
26/01/2020 02:14:23	26012020	260120	021423	3.070	12.418490	-57.629658	3.210	-0.330	-0.470	0.300	3.090	-1.700	0.500																			1580004863.0	0.57	1.06
26/01/2020 02:14:24	26012020	260120	021424	3.210	12.418490	-57.629657	3.330	-0.130	-0.540	0.640	3.240	-1.900	0.800																			1580004864.0	0.41	0.76
26/01/2020 02:14:25	26012020	260120	021425	3.310	12.418490	-57.629655	3.380	0.120	-0.510	1.030	3.320	-1.900	1.200																			1580004865.0	0.27	0.50
26/01/2020 02:14:26	26012020	260120	021426	3.320	12.418490	-57.629653	3.310	0.320	-0.510	1.250	3.300	-1.900	1.500																			1580004866.0	0.41	0.76
26/01/2020 02:14:27	26012020	260120	021427	3.240	12.418490	-57.629652	3.280	0.380	-0.450	1.180	3.230	-1.900	1.600																			1580004867.0	0.35	0.65
26/01/2020 02:14:28	26012020	260120	021428	3.220	12.418490	-57.629652	3.370	0.340	-0.240	0.870	3.240	-1.800	1.400																			1580004868.0	0.09	0.17
26/01/2020 02:14:29	26012020	260120	021429	3.310	12.418490	-57.629653	3.540	0.290	0.000	0.480	3.340	-1.500	1.000																			1580004869.0	0.25	0.46
26/01/2020 02:14:30	26012020	260120	021430	3.520	12.418490	-57.629655	3.660	0.250	0.180	0.170	3.550	-1.300	0.700																			1580004870.0	0.40	0.74
26/01/2020 02:14:31	26012020	260120	021431	3.630	12.418490	-57.629657	3.690	0.100	0.300	-0.070	3.640	-1.200	0.400																			1580004871.0	0.28	0.52
26/01/2020 02:14:32	26012020	260120	021432	3.660	12.418490	-57.629657	3.670	-0.170	0.350	-0.370	3.660	-1.100	0.100																			1580004872.0	0.13	0.24
26/01/2020 02:14:33	26012020	260120	021433	3.650	12.418490	-57.629658	3.640	-0.430	0.290	-0.630	3.650	-1.100	-0.200																			1580004873.0	0.22	0.41
26/01/2020 02:14:34	26012020	260120	021434	3.640	12.418490	-57.629660	3.590	-0.500	0.130	-0.650	3.630	-1.200	-0.300																			1580004874.0	0.37	0.69
26/01/2020 02:14:35	26012020	260120	021435	3.590	12.418488	-57.629662	3.580	-0.340	-0.140	-0.470	3.590	-1.400	-0.200																			1580004875.0	0.30	0.56
26/01/2020 02:14:36	26012020	260120	021436	3.580	12.418488	-57.629662	3.640	-0.020	-0.500	-0.200	3.590	-1.700	0.000																			1580004876.0	0.05	0.09
26/01/2020 02:14:37	26012020	260120	021437	3.650	12.418490	-57.629660	3.760	0.240	-0.780	0.030	3.670	-2.100	0.300																			1580004877.0	0.21	0.39
26/01/2020 02:14:38	26012020	260120	021438	3.760	12.418490	-57.629658	3.800	0.270	-0.640	0.330	3.770	-2.200	0.500																			1580004878.0	0.39	0.72
26/01/2020 02:14:39	26012020	260120	021439	3.750	12.418492	-57.629658	3.700	0.090	-0.050	0.710	3.730	-1.800	0.900																			1580004879.0	0.34	0.63
26/01/2020 02:14:40	26012020	260120	021440	3.640	12.418490	-57.629657	3.670	-0.110	0.460	1.010	3.620	-1.100	1.200																			1580004880.0	0.51	0.94
26/01/2020 02:14:41	26012020	260120	021441	3.620	12.418487	-57.629655	3.810	-0.130	0.400	1.020	3.640	-0.900	1.400																			1580004881.0	0.70	1.30
26/01/2020 02:14:42	26012020	260120	021442	3.780	12.418485	-57.629653	4.010	0.010	-0.050	0.780	3.820	-1.200	1.300																			1580004882.0	0.30	0.56
26/01/2020 02:14:43	26012020	260120	021443	3.940	12.418487	-57.629655	4.080	0.150	-0.390	0.530	3.980	-1.700	1.000																			1580004883.0	0.31	0.57
26/01/2020 02:14:44	26012020	260120	021444	4.020	12.418488	-57.629655	3.990	0.200	-0.330	0.370	4.000	-1.800	0.800																			1580004884.0	0.50	0.93
26/01/2020 02:14:45	26012020	260120	021445	3.910	12.418490	-57.629657	3.850	0.190	-0.120	0.280	3.880	-1.600	0.700																			1580004885.0	0.24	0.44
26/01/2020 02:14:46	26012020	260120	021446	3.770	12.418488	-57.629657	3.780	0.160	-0.190	0.100	3.760	-1.500	0.600																			1580004886.0	0.24	0.44
26/01/2020 02:14:47	26012020	260120	021447	3.730	12.418488	-57.629657	3.820	0.100	-0.370	-0.240	3.740	-1.700	0.300																			1580004887.0	0.12	0.22
26/01/2020 02:14:48	26012020	260120	021448	3.800	12.418490	-57.629658	3.920	-0.000	-0.210	-0.580	3.810	-1.700	-0.100																			1580004888.0	0.44	0.81
26/01/2020 02:14:49	26012020	260120	021449	3.910	12.418490	-57.629662	4.000	-0.120	0.270	-0.680	3.930	-1.400	-0.300																			1580004889.0	0.55	1.02
26/01/2020 02:14:50	26012020	260120	021450	3.980	12.418490	-57.629663	4.010	-0.210	0.590	-0.430	3.990	-0.900	-0.200																			1580004890.0	0.48	0.89
26/01/2020 02:14:51	26012020	260120	021451	3.980	12.418487	-57.629663	4.000	-0.250	0.380	-0.060	3.970	-0.800	0.100																			1580004891.0	0.48	0.89
26/01/2020 02:14:52	26012020	260120	021452	3.940	12.418487	-57.629662	4.000	-0.230	-0.270	0.170	3.940	-1.300	0.400																			1580004892.0	0.42	0.78
26/01/2020 02:14:53	26012020	260120	021453	3.960	12.418487	-57.629660	4.090	-0.120	-0.810	0.290	3.970	-2.000	0.600																			1580004893.0	0.48	0.89
26/01/2020 02:14:54	26012020	260120	021454	4.060	12.418490	-57.629658	4.190	0.030	-0.700	0.480	4.090	-2.200	0.700																			1580004894.0	0.56	1.04
26/01/2020 02:14:55	26012020	260120	021455	4.140	12.418490	-57.629658	4.140	0.150	-0.080	0.870	4.150	-1.800	1.000																			1580004895.0	0.21	0.39
26/01/2020 02:14:56	26012020	260120	021456	4.050	12.418488	-57.629657	3.960	0.170	0.370	1.190	4.020	-1.200	1.400																			1580004896.0	0.56	1.04
26/01/2020 02:14:57	26012020	260120	021457	3.860	12.418485	-57.629655	3.860	0.140	0.190	1.090	3.830	-1.000	1.600																			1580004897.0	0.78	1.44
26/01/2020 02:14:58	26012020	260120	021458	3.810	12.418485	-57.629655	4.030	0.100	-0.350	0.500	3.830	-1.500	1.200																			1580004898.0	0.20	0.37
26/01/2020 02:14:59	26012020	260120	021459	4.030	12.418487	-57.629657	4.320	0.100	-0.610	-0.210	4.090	-1.900	0.500	1015.50	25.50	25.60	21.40	21.40	-1.00	78.00	77.00	392.00	24.60	42.00	4.70	47.00	4.60	14	3364.00	27.50	27.40	1580004899.0	0.66	1.22
26/01/2020 02:15:00	26012020	260120	021500	4.310	12.418490	-57.629660	4.460	0.120	-0.310	-0.610	4.350	-1.900	-0.100																			1580004900.0	1.02	1.89
26/01/2020 02:15:01	26012020	260120	021501	4.430	12.418490	-57.629663	4.460	0.130	0.150	-0.640	4.430	-1.500	-0.300																			1580004901.0	0.69	1.28
26/01/2020 02:15:02	26012020	260120	021502	4.430	12.418488	-57.629665	4.440	0.110	0.260	-0.470	4.430	-1.100	-0.200																			1580004902.0	0.45	0.83
26/01/2020 02:15:03	26012020	260120	021503	4.410	12.418487	-57.629663	4.380	0.030	0.030	-0.190	4.390	-1.200	0.000																			1580004903.0	0.35	0.65
26/01/2020 02:15:04	26012020	260120	021504	4.320	12.418488	-57.629662	4.270	-0.150	-0.140	0.080	4.300	-1.500	0.300																			1580004904.0	0.45	0.83
26/01/2020 02:15:05	26012020	260120	021505	4.210	12.418488	-57.629660	4.160	-0.340	-0.060	0.260	4.190	-1.500	0.500																			1580004905.0	0.49	0.91
26/01/2020 02:15:06	26012020	260120	021506	4.090	12.418488	-57.629660	4.080	-0.370	0.140	0.450	4.070	-1.400	0.700																			1580004906.0	0.07	0.13
26/01/2020 02:15:07	26012020	260120	021507	4.010	12.418488	-57.629660	4.050	-0.190	0.130	0.590	4.000	-1.200	0.900																			1580004907.0	0.33	0.61
26/01/2020 02:15:08	26012020	260120	021508	3.980	12.418487	-57.629662	4.170	0.030	-0.250	0.510	4.000	-1.400	0.900																			1580004908.0	0.28	0.52
26/01/2020 02:15:09	26012020	260120	021509	4.140	12.418487	-57.629662	4.430	0.120	-0.620	0.300	4.190	-1.900	0.800																			1580004909.0	0.14	0.26
26/01/2020 02:15:10	26012020	260120	021510	4.420	12.418490	-57.629662	4.670	0.100	-0.550	0.190	4.470	-2.100	0.600																			1580004910.0	0.47	0.87
26/01/2020 02:15:11	26012020	260120	021511	4.630	12.418490	-57.629663	4.710	0.050	-0.030	0.320	4.650	-1.700	0.600																			1580004911.0	0.29	0.54
26/01/2020 02:15:12	26012020	260120	021512	4.630	12.418488	-57.629663	4.580	0.050	0.390	0.610	4.600	-1.200	0.800																			1580004912.0	0.33	0.61
26/01/2020 02:15:13	26012020	260120	021513	4.480	12.418487	-57.629660	4.470	0.120	0.270	0.740	4.440	-1.000	1.100																			1580004913.0	0.69	1.28
26/01/2020 02:15:14	26012020	260120	021514	4.390	12.418485	-57.629658	4.490	0.180	-0.240	0.560	4.390	-1.400	1.000																			1580004914.0	0.50	0.93
26/01/2020 02:15:15	26012020	260120	021515	4.420	12.418487	-57.629658	4.490	0.160	-0.550	0.310	4.420	-1.900	0.800																			1580004915.0	0.41	0.76
26/01/2020 02:15:16	26012020	260120	021516	4.390	12.418490	-57.629658	4.350	0.080	-0.370	0.140	4.370	-1.900	0.600																			1580004916.0	0.56	1.04
26/01/2020 02:15:17	26012020	260120	021517	4.240	12.418490	-57.629660	4.130	0.060	-0.060	0.020	4.200	-1.600	0.400																			1580004917.0	0.42	0.78
26/01/2020 02:15:18	26012020	260120	021518	4.030	12.418488	-57.629663	4.010	0.130	-0.020	-0.180	4.000	-1.400	0.300																			1580004918.0	0.50	0.93
26/01/2020 02:15:19	26012020	260120	021519	3.960	12.418488	-57.629665	4.180	0.200	-0.260	-0.490	3.970	-1.500	0.000																			1580004919.0	0.46	0.85
26/01/2020 02:15:20	26012020	260120	021520	4.190	12.418490	-57.629667	4.490	0.160	-0.320	-0.690	4.250	-1.700	-0.300																			1580004920.0	0.61	1.13
26/01/2020 02:15:21	26012020	260120	021521	4.520	12.418492	-57.629670	4.670	-0.050	0.120	-0.520	4.560	-1.500	-0.300																			1580004921.0	0.62	1.15
26/01/2020 02:15:22	26012020	260120	021522	4.640	12.418492	-57.629670	4.560	-0.380	0.740	0.070	4.620	-0.900	0.100																			1580004922.0	0.01	0.02
26/01/2020 02:15:23	26012020	260120	021523	4.470	12.418488	-57.629667	4.370	-0.630	0.840	0.640	4.420	-0.500	0.700																			1580004923.0	0.84	1.56
26/01/2020 02:15:24	26012020	260120	021524	4.260	12.418487	-57.629663	4.280	-0.600	0.250	0.900	4.240	-0.800	1.100																			1580004924.0	1.02	1.89
26/01/2020 02:15:25	26012020	260120	021525	4.200	12.418485	-57.629662	4.280	-0.300	-0.490	1.010	4.200	-1.500	1.300																			1580004925.0	0.41	0.76
26/01/2020 02:15:26	26012020	260120	021526	4.210	12.418488	-57.629662	4.300	0.070	-0.910	1.030	4.210	-2.100	1.400																			1580004926.0	0.43	0.80
26/01/2020 02:15:27	26012020	260120	021527	4.210	12.418490	-57.629662	4.320	0.350	-0.980	0.860	4.210	-2.400	1.300																			1580004927.0	0.35	0.65
26/01/2020 02:15:28	26012020	260120	021528	4.240	12.418490	-57.629662	4.370	0.520	-0.830	0.560	4.250	-2.300	1.100																			1580004928.0	0.25	0.46
26/01/2020 02:15:29	26012020	260120	021529	4.300	12.418490	-57.629663	4.370	0.580	-0.510	0.330	4.310	-2.100	0.800																			1580004929.0	0.34	0.63
26/01/2020 02:15:30	26012020	260120	021530	4.290	12.418490	-57.629665	4.290	0.480	-0.010	0.200	4.270	-1.600	0.600																			1580004930.0	0.22	0.41
26/01/2020 02:15:31	26012020	260120	021531	4.220	12.418490	-57.629665	4.270	0.220	0.400	-0.030	4.210	-1.200	0.400																			1580004931.0	0.09	0.17
26/01/2020 02:15:32	26012020	260120	021532	4.240	12.418488	-57.629665	4.350	-0.110	0.540	-0.350	4.250	-0.900	0.200																			1580004932.0	0.18	0.33
26/01/2020 02:15:33	26012020	260120	021533	4.310	12.418488	-57.629667	4.290	-0.370	0.570	-0.520	4.310	-0.800	-0.100																			1580004933.0	0.35	0.65
26/01/2020 02:15:34	26012020	260120	021534	4.230	12.418490	-57.629670	4.080	-0.460	0.550	-0.460	4.200	-0.800	-0.200																			1580004934.0	0.56	1.04
26/01/2020 02:15:35	26012020	260120	021535	4.020	12.418490	-57.629672	3.940	-0.340	0.240	-0.310	3.980	-1.000	-0.000																			1580004935.0	0.42	0.78
26/01/2020 02:15:36	26012020	260120	021536	3.920	12.418488	-57.629672	4.050	-0.100	-0.420	-0.220	3.930	-1.500	0.100																			1580004936.0	0.16	0.30
26/01/2020 02:15:37	26012020	260120	021537	4.070	12.418490	-57.629672	4.270	0.080	-0.930	-0.080	4.120	-2.100	0.200																			1580004937.0	0.26	0.48
26/01/2020 02:15:38	26012020	260120	021538	4.270	12.418492	-57.629670	4.310	0.080	-0.780	0.280	4.290	-2.300	0.400																			1580004938.0	0.55	1.02
26/01/2020 02:15:39	26012020	260120	021539	4.260	12.418492	-57.629668	4.150	-0.040	-0.170	0.710	4.230	-1.900	0.800																			1580004939.0	0.38	0.70
26/01/2020 02:15:40	26012020	260120	021540	4.070	12.418490	-57.629667	3.940	-0.120	0.240	0.950	4.030	-1.300	1.200																			1580004940.0	0.65	1.20
26/01/2020 02:15:41	26012020	260120	021541	3.860	12.418487	-57.629665	3.820	-0.070	0.120	0.850	3.830	-1.200	1.300																			1580004941.0	0.66	1.22
26/01/2020 02:15:42	26012020	260120	021542	3.760	12.418487	-57.629667	3.810	0.110	-0.220	0.590	3.760	-1.500	1.100																			1580004942.0	0.17	0.31
26/01/2020 02:15:43	26012020	260120	021543	3.780	12.418488	-57.629668	3.870	0.290	-0.340	0.350	3.790	-1.700	0.800																			1580004943.0	0.62	1.15
26/01/2020 02:15:44	26012020	260120	021544	3.860	12.418490	-57.629670	3.990	0.340	-0.240	0.100	3.880	-1.700	0.600																			1580004944.0	0.56	1.04
26/01/2020 02:15:45	26012020	260120	021545	3.970	12.418490	-57.629672	4.060	0.190	-0.070	-0.200	3.990	-1.500	0.300																			1580004945.0	0.27	0.50
26/01/2020 02:15:46	26012020	260120	021546	4.050	12.418490	-57.629672	4.100	-0.070	0.160	-0.460	4.060	-1.300	0.000																			1580004946.0	0.23	0.43
26/01/2020 02:15:47	26012020	260120	021547	4.080	12.418490	-57.629673	4.050	-0.290	0.390	-0.550	4.080	-1.100	-0.200																			1580004947.0	0.32	0.59
26/01/2020 02:15:48	26012020	260120	021548	4.030	12.418488	-57.629675	3.930	-0.320	0.400	-0.350	4.000	-1.000	-0.100																			1580004948.0	0.38	0.70
26/01/2020 02:15:49	26012020	260120	021549	3.900	12.418488	-57.629675	3.870	-0.120	-0.010	-0.010	3.880	-1.100	0.200																			1580004949.0	0.27	0.50
26/01/2020 02:15:50	26012020	260120	021550	3.860	12.418488	-57.629675	3.960	0.160	-0.680	0.140	3.870	-1.800	0.400																			1580004950.0	0.20	0.37
26/01/2020 02:15:51	26012020	260120	021551	3.980	12.418490	-57.629673	4.100	0.310	-0.970	0.240	4.010	-2.300	0.500																			1580004951.0	0.58	1.07
26/01/2020 02:15:52	26012020	260120	021552	4.090	12.418492	-57.629672	4.070	0.210	-0.510	0.490	4.100	-2.200	0.700																			1580004952.0	0.61	1.13
26/01/2020 02:15:53	26012020	260120	021553	4.000	12.418492	-57.629670	3.850	-0.050	0.230	0.770	3.960	-1.500	1.000																			1580004953.0	0.33	0.61
26/01/2020 02:15:54	26012020	260120	021554	3.770	12.418488	-57.629668	3.750	-0.220	0.500	0.740	3.740	-0.900	1.200																			1580004954.0	0.73	1.35
26/01/2020 02:15:55	26012020	260120	021555	3.700	12.418487	-57.629670	3.860	-0.150	0.200	0.360	3.700	-1.000	0.900																			1580004955.0	0.57	1.06
26/01/2020 02:15:56	26012020	260120	021556	3.840	12.418487	-57.629672	3.990	0.100	-0.150	-0.000	3.870	-1.400	0.500																			1580004956.0	0.62	1.15
26/01/2020 02:15:57	26012020	260120	021557	3.940	12.418490	-57.629677	3.950	0.280	-0.190	-0.110	3.940	-1.600	0.300																			1580004957.0	0.96	1.78
26/01/2020 02:15:58	26012020	260120	021558	3.900	12.418490	-57.629678	3.950	0.230	-0.120	-0.110	3.890	-1.500	0.200																			1580004958.0	0.51	0.94
26/01/2020 02:15:59	26012020	260120	021559	3.940	12.418490	-57.629678	4.160	-0.000	-0.190	-0.180	3.980	-1.500	0.200	1015.40	25.50	25.60	21.30	21.30	-1.00	77.00	77.00	392.00	24.60	42.00	4.50	48.00	4.40	14	3289.00	27.50	27.40	1580004959.0	0.14	0.26
26/01/2020 02:16:00	26012020	260120	021600	4.180	12.418488	-57.629678	4.390	-0.240	-0.200	-0.230	4.230	-1.600	0.100																			1580004960.0	0.18	0.33
26/01/2020 02:16:01	26012020	260120	021601	4.390	12.418488	-57.629677	4.430	-0.330	-0.020	-0.070	4.410	-1.500	0.200																			1580004961.0	0.09	0.17
26/01/2020 02:16:02	26012020	260120	021602	4.410	12.418488	-57.629677	4.330	-0.230	0.140	0.340	4.380	-1.300	0.500																			1580004962.0	0.22	0.41
26/01/2020 02:16:03	26012020	260120	021603	4.270	12.418487	-57.629675	4.210	0.000	0.050	0.780	4.240	-1.300	0.900																			1580004963.0	0.47	0.87
26/01/2020 02:16:04	26012020	260120	021604	4.160	12.418487	-57.629672	4.160	0.220	-0.270	0.950	4.140	-1.500	1.300																			1580004964.0	0.53	0.98
26/01/2020 02:16:05	26012020	260120	021605	4.110	12.418487	-57.629670	4.100	0.300	-0.490	0.830	4.100	-1.800	1.300																			1580004965.0	0.41	0.76
26/01/2020 02:16:06	26012020	260120	021606	4.020	12.418488	-57.629670	3.920	0.220	-0.400	0.610	3.990	-1.900	1.100																			1580004966.0	0.29	0.54
26/01/2020 02:16:07	26012020	260120	021607	3.840	12.418488	-57.629672	3.850	0.130	-0.230	0.250	3.820	-1.700	0.800																			1580004967.0	0.32	0.59
26/01/2020 02:16:08	26012020	260120	021608	3.840	12.418488	-57.629675	4.080	0.130	-0.230	-0.290	3.880	-1.600	0.300																			1580004968.0	0.62	1.15
26/01/2020 02:16:09	26012020	260120	021609	4.050	12.418488	-57.629678	4.380	0.120	-0.160	-0.710	4.110	-1.600	-0.200																			1580004969.0	0.83	1.54
26/01/2020 02:16:10	26012020	260120	021610	4.420	12.418490	-57.629683	4.560	0.020	0.220	-0.760	4.470	-1.400	-0.400																			1580004970.0	0.89	1.65
26/01/2020 02:16:11	26012020	260120	021611	4.580	12.418490	-57.629685	4.580	-0.160	0.690	-0.420	4.580	-0.900	-0.300																			1580004971.0	0.49	0.91
26/01/2020 02:16:12	26012020	260120	021612	4.560	12.418487	-57.629683	4.520	-0.350	0.780	0.130	4.540	-0.600	0.200																			1580004972.0	0.50	0.93
26/01/2020 02:16:13	26012020	260120	021613	4.460	12.418485	-57.629680	4.440	-0.440	0.320	0.670	4.440	-0.800	0.800																			1580004973.0	0.98	1.81
26/01/2020 02:16:14	26012020	260120	021614	4.380	12.418483	-57.629677	4.440	-0.370	-0.470	1.050	4.370	-1.500	1.200																			1580004974.0	0.95	1.76
26/01/2020 02:16:15	26012020	260120	021615	4.380	12.418485	-57.629673	4.460	-0.130	-1.100	1.190	4.390	-2.200	1.500																			1580004975.0	0.72	1.33
26/01/2020 02:16:16	26012020	260120	021616	4.400	12.418487	-57.629672	4.480	0.220	-1.200	1.100	4.410	-2.600	1.500																			1580004976.0	0.48	0.89
26/01/2020 02:16:17	26012020	260120	021617	4.410	12.418488	-57.629673	4.490	0.540	-0.830	0.880	4.420	-2.400	1.300																			1580004977.0	0.35	0.65
26/01/2020 02:16:18	26012020	260120	021618	4.430	12.418488	-57.629675	4.510	0.680	-0.260	0.690	4.430	-1.900	1.100																			1580004978.0	0.39	0.72
26/01/2020 02:16:19	26012020	260120	021619	4.440	12.418487	-57.629677	4.500	0.520	0.250	0.400	4.440	-1.400	0.900																			1580004979.0	0.38	0.70
26/01/2020 02:16:20	26012020	260120	021620	4.450	12.418487	-57.629678	4.490	0.140	0.650	-0.050	4.450	-0.900	0.500																			1580004980.0	0.33	0.61
26/01/2020 02:16:21	26012020	260120	021621	4.470	12.418485	-57.629680	4.450	-0.280	0.960	-0.380	4.470	-0.600	0.100																			1580004981.0	0.46	0.85
26/01/2020 02:16:22	26012020	260120	021622	4.420	12.418485	-57.629682	4.370	-0.590	0.890	-0.500	4.390	-0.400	-0.100																			1580004982.0	0.56	1.04
26/01/2020 02:16:23	26012020	260120	021623	4.350	12.418483	-57.629683	4.400	-0.670	0.230	-0.600	4.340	-0.800	-0.200																			1580004983.0	0.46	0.85
26/01/2020 02:16:24	26012020	260120	021624	4.410	12.418483	-57.629685	4.640	-0.460	-0.700	-0.780	4.450	-1.600	-0.300																			1580004984.0	0.31	0.57
26/01/2020 02:16:25	26012020	260120	021625	4.690	12.418485	-57.629687	4.940	-0.060	-1.270	-0.750	4.740	-2.500	-0.500																			1580004985.0	0.61	1.13
26/01/2020 02:16:26	26012020	260120	021626	4.950	12.418488	-57.629687	5.050	0.280	-1.100	-0.290	4.990	-2.700	-0.200																			1580004986.0	0.59	1.09
26/01/2020 02:16:27	26012020	260120	021627	5.030	12.418488	-57.629685	4.930	0.380	-0.410	0.510	5.010	-2.200	0.400																			1580004987.0	0.40	0.74
26/01/2020 02:16:28	26012020	260120	021628	4.840	12.418485	-57.629682	4.590	0.250	0.260	1.380	4.770	-1.400	1.300																			1580004988.0	1.08	2.00
26/01/2020 02:16:29	26012020	260120	021629	4.450	12.418482	-57.629677	4.280	0.080	0.400	1.850	4.380	-1.000	2.000																			1580004989.0	1.33	2.46
26/01/2020 02:16:30	26012020	260120	021630	4.170	12.418480	-57.629673	4.220	0.060	0.080	1.700	4.150	-1.100	2.200																			1580004990.0	0.74	1.37
26/01/2020 02:16:31	26012020	260120	021631	4.160	12.418482	-57.629673	4.380	0.160	-0.170	1.100	4.190	-1.500	1.800																			1580004991.0	0.34	0.63
26/01/2020 02:16:32	26012020	260120	021632	4.360	12.418485	-57.629677	4.590	0.190	-0.070	0.330	4.410	-1.500	1.100																			1580004992.0	0.86	1.59
26/01/2020 02:16:33	26012020	260120	021633	4.590	12.418485	-57.629682	4.710	0.020	0.180	-0.330	4.630	-1.300	0.300																			1580004993.0	0.88	1.63
26/01/2020 02:16:34	26012020	260120	021634	4.690	12.418485	-57.629685	4.660	-0.250	0.270	-0.700	4.680	-1.100	-0.200																			1580004994.0	0.82	1.52
26/01/2020 02:16:35	26012020	260120	021635	4.630	12.418483	-57.629687	4.590	-0.420	0.100	-0.870	4.610	-1.200	-0.500																			1580004995.0	0.66	1.22
26/01/2020 02:16:36	26012020	260120	021636	4.580	12.418483	-57.629688	4.570	-0.370	-0.210	-0.840	4.580	-1.400	-0.500																			1580004996.0	0.39	0.72
26/01/2020 02:16:37	26012020	260120	021637	4.560	12.418483	-57.629690	4.540	-0.150	-0.500	-0.670	4.550	-1.800	-0.400																			1580004997.0	0.17	0.31
26/01/2020 02:16:38	26012020	260120	021638	4.530	12.418483	-57.629690	4.510	0.100	-0.600	-0.350	4.520	-2.000	-0.200																			1580004998.0	0.19	0.35
26/01/2020 02:16:39	26012020	260120	021639	4.480	12.418485	-57.629688	4.480	0.270	-0.490	0.120	4.470	-1.900	0.200																			1580004999.0	0.24	0.44
26/01/2020 02:16:40	26012020	260120	021640	4.440	12.418485	-57.629687	4.480	0.310	-0.230	0.640	4.430	-1.800	0.700																			1580005000.0	0.44	0.81
26/01/2020 02:16:41	26012020	260120	021641	4.420	12.418483	-57.629683	4.470	0.210	0.090	1.040	4.420	-1.500	1.200																			1580005001.0	0.67	1.24
26/01/2020 02:16:42	26012020	260120	021642	4.400	12.418483	-57.629680	4.340	0.000	0.370	1.280	4.380	-1.100	1.500																			1580005002.0	0.69	1.28
26/01/2020 02:16:43	26012020	260120	021643	4.240	12.418482	-57.629678	4.080	-0.210	0.450	1.270	4.180	-0.900	1.700																			1580005003.0	0.44	0.81
26/01/2020 02:16:44	26012020	260120	021644	3.990	12.418482	-57.629678	3.970	-0.270	0.140	0.840	3.950	-1.000	1.500																			1580005004.0	0.19	0.35
26/01/2020 02:16:45	26012020	260120	021645	3.940	12.418482	-57.629682	4.160	-0.110	-0.420	0.030	3.970	-1.500	0.800																			1580005005.0	0.57	1.06
26/01/2020 02:16:46	26012020	260120	021646	4.190	12.418483	-57.629687	4.440	0.140	-0.720	-0.670	4.250	-2.000	-0.000																			1580005006.0	1.10	2.04
26/01/2020 02:16:47	26012020	260120	021647	4.420	12.418487	-57.629692	4.520	0.270	-0.380	-0.840	4.460	-2.000	-0.500																			1580005007.0	1.16	2.15
26/01/2020 02:16:48	26012020	260120	021648	4.520	12.418487	-57.629693	4.460	0.170	0.160	-0.640	4.510	-1.500	-0.400																			1580005008.0	0.49	0.91
26/01/2020 02:16:49	26012020	260120	021649	4.440	12.418483	-57.629692	4.400	-0.050	0.340	-0.400	4.430	-1.100	-0.200																			1580005009.0	0.55	1.02
26/01/2020 02:16:50	26012020	260120	021650	4.380	12.418482	-57.629690	4.350	-0.260	0.130	-0.150	4.370	-1.100	0.100																			1580005010.0	0.73	1.35
26/01/2020 02:16:51	26012020	260120	021651	4.310	12.418482	-57.629687	4.290	-0.360	-0.110	0.140	4.300	-1.400	0.300																			1580005011.0	0.53	0.98
26/01/2020 02:16:52	26012020	260120	021652	4.230	12.418483	-57.629685	4.200	-0.340	-0.200	0.430	4.210	-1.600	0.600																			1580005012.0	0.43	0.80
26/01/2020 02:16:53	26012020	260120	021653	4.140	12.418483	-57.629685	4.130	-0.150	-0.230	0.610	4.130	-1.600	0.900																			1580005013.0	0.17	0.31
26/01/2020 02:16:54	26012020	260120	021654	4.080	12.418483	-57.629685	4.130	0.140	-0.330	0.610	4.070	-1.700	1.000																			1580005014.0	0.08	0.15
26/01/2020 02:16:55	26012020	260120	021655	4.100	12.418483	-57.629685	4.230	0.380	-0.440	0.500	4.110	-1.800	0.900																			1580005015.0	0.08	0.15
26/01/2020 02:16:56	26012020	260120	021656	4.190	12.418483	-57.629685	4.300	0.390	-0.380	0.400	4.210	-1.800	0.800																			1580005016.0	0.22	0.41
26/01/2020 02:16:57	26012020	260120	021657	4.240	12.418485	-57.629687	4.270	0.220	-0.130	0.290	4.250	-1.600	0.700																			1580005017.0	0.24	0.44
26/01/2020 02:16:58	26012020	260120	021658	4.220	12.418485	-57.629687	4.270	0.040	0.080	0.130	4.210	-1.400	0.600																			1580005018.0	0.18	0.33
26/01/2020 02:16:59	26012020	260120	021659	4.230	12.418483	-57.629688	4.420	-0.030	0.140	-0.080	4.250	-1.300	0.400	1015.40	25.50	25.60	21.30	21.20	-1.00	77.00	77.00	392.00	24.60	32.00	4.90	38.00	4.70	14	3378.00	27.50	27.40	1580005019.0	0.29	0.54
26/01/2020 02:17:00	26012020	260120	021700	4.420	12.418483	-57.629690	4.620	-0.040	0.150	-0.220	4.470	-1.300	0.200																			1580005020.0	0.24	0.44
26/01/2020 02:17:01	26012020	260120	021701	4.600	12.418485	-57.629690	4.640	-0.130	0.270	-0.100	4.620	-1.200	0.200																			1580005021.0	0.12	0.22
26/01/2020 02:17:02	26012020	260120	021702	4.590	12.418485	-57.629688	4.460	-0.330	0.370	0.200	4.560	-1.000	0.400																			1580005022.0	0.26	0.48
26/01/2020 02:17:03	26012020	260120	021703	4.380	12.418483	-57.629687	4.210	-0.520	0.240	0.400	4.320	-1.000	0.700																			1580005023.0	0.51	0.94
26/01/2020 02:17:04	26012020	260120	021704	4.130	12.418482	-57.629685	4.090	-0.490	-0.160	0.320	4.100	-1.300	0.700																			1580005024.0	0.37	0.69
26/01/2020 02:17:05	26012020	260120	021705	4.040	12.418482	-57.629685	4.160	-0.150	-0.630	0.060	4.050	-1.800	0.500																			1580005025.0	0.11	0.20
26/01/2020 02:17:06	26012020	260120	021706	4.150	12.418483	-57.629687	4.320	0.310	-0.900	-0.150	4.180	-2.200	0.300																			1580005026.0	0.45	0.83
26/01/2020 02:17:07	26012020	260120	021707	4.300	12.418485	-57.629688	4.390	0.590	-0.870	-0.180	4.320	-2.300	0.200																			1580005027.0	0.42	0.78
26/01/2020 02:17:08	26012020	260120	021708	4.370	12.418485	-57.629688	4.400	0.540	-0.550	-0.160	4.380	-2.100	0.200																			1580005028.0	0.21	0.39
26/01/2020 02:17:09	26012020	260120	021709	4.390	12.418487	-57.629688	4.360	0.260	0.030	-0.090	4.380	-1.600	0.200																			1580005029.0	0.07	0.13
26/01/2020 02:17:10	26012020	260120	021710	4.340	12.418485	-57.629688	4.270	-0.050	0.630	0.070	4.320	-1.000	0.300																			1580005030.0	0.15	0.28
26/01/2020 02:17:11	26012020	260120	021711	4.250	12.418483	-57.629688	4.210	-0.210	0.780	0.230	4.230	-0.600	0.500																			1580005031.0	0.37	0.69
26/01/2020 02:17:12	26012020	260120	021712	4.180	12.418482	-57.629688	4.300	-0.170	0.350	0.280	4.190	-0.800	0.600																			1580005032.0	0.28	0.52
26/01/2020 02:17:13	26012020	260120	021713	4.270	12.418483	-57.629688	4.500	-0.070	-0.230	0.280	4.300	-1.400	0.600																			1580005033.0	0.20	0.37
26/01/2020 02:17:14	26012020	260120	021714	4.490	12.418485	-57.629688	4.620	-0.050	-0.410	0.370	4.520	-1.800	0.700																			1580005034.0	0.55	1.02
26/01/2020 02:17:15	26012020	260120	021715	4.580	12.418487	-57.629687	4.530	-0.150	-0.180	0.560	4.570	-1.700	0.800																			1580005035.0	0.39	0.72
26/01/2020 02:17:16	26012020	260120	021716	4.450	12.418487	-57.629685	4.320	-0.230	0.050	0.700	4.410	-1.400	1.000																			1580005036.0	0.42	0.78
26/01/2020 02:17:17	26012020	260120	021717	4.240	12.418483	-57.629683	4.210	-0.130	-0.120	0.650	4.210	-1.400	1.100																			1580005037.0	0.54	1.00
26/01/2020 02:17:18	26012020	260120	021718	4.150	12.418483	-57.629683	4.240	0.110	-0.490	0.440	4.160	-1.700	0.900																			1580005038.0	0.19	0.35
26/01/2020 02:17:19	26012020	260120	021719	4.210	12.418485	-57.629685	4.330	0.270	-0.600	0.110	4.230	-2.000	0.600																			1580005039.0	0.34	0.63
26/01/2020 02:17:20	26012020	260120	021720	4.320	12.418487	-57.629685	4.390	0.230	-0.330	-0.240	4.330	-1.900	0.300																			1580005040.0	0.49	0.91
26/01/2020 02:17:21	26012020	260120	021721	4.380	12.418487	-57.629688	4.370	0.070	0.090	-0.470	4.380	-1.500	-0.000																			1580005041.0	0.46	0.85
26/01/2020 02:17:22	26012020	260120	021722	4.350	12.418485	-57.629690	4.300	-0.030	0.300	-0.380	4.330	-1.100	-0.100																			1580005042.0	0.52	0.96
26/01/2020 02:17:23	26012020	260120	021723	4.280	12.418483	-57.629690	4.280	-0.060	0.200	-0.120	4.270	-1.100	0.100																			1580005043.0	0.29	0.54
26/01/2020 02:17:24	26012020	260120	021724	4.260	12.418483	-57.629690	4.350	-0.110	-0.010	-0.000	4.270	-1.300	0.300																			1580005044.0	0.26	0.48
26/01/2020 02:17:25	26012020	260120	021725	4.330	12.418485	-57.629688	4.430	-0.190	-0.020	0.060	4.360	-1.400	0.400																			1580005045.0	0.35	0.65
26/01/2020 02:17:26	26012020	260120	021726	4.410	12.418485	-57.629688	4.450	-0.200	0.050	0.240	4.410	-1.400	0.500																			1580005046.0	0.12	0.22
26/01/2020 02:17:27	26012020	260120	021727	4.420	12.418485	-57.629687	4.470	-0.030	-0.170	0.470	4.420	-1.400	0.700																			1580005047.0	0.24	0.44
26/01/2020 02:17:28	26012020	260120	021728	4.420	12.418483	-57.629687	4.480	0.220	-0.620	0.620	4.430	-1.800	0.900																			1580005048.0	0.29	0.54
26/01/2020 02:17:29	26012020	260120	021729	4.440	12.418485	-57.629685	4.470	0.350	-0.790	0.640	4.440	-2.200	1.000																			1580005049.0	0.46	0.85
26/01/2020 02:17:30	26012020	260120	021730	4.430	12.418488	-57.629683	4.460	0.330	-0.430	0.650	4.420	-2.000	1.000																			1580005050.0	0.48	0.89
26/01/2020 02:17:31	26012020	260120	021731	4.420	12.418488	-57.629683	4.500	0.240	0.120	0.620	4.420	-1.500	1.000																			1580005051.0	0.10	0.19
26/01/2020 02:17:32	26012020	260120	021732	4.450	12.418487	-57.629683	4.470	0.100	0.450	0.540	4.450	-1.100	0.900																			1580005052.0	0.33	0.61
26/01/2020 02:17:33	26012020	260120	021733	4.420	12.418485	-57.629683	4.360	-0.130	0.520	0.390	4.390	-0.900	0.800																			1580005053.0	0.29	0.54
26/01/2020 02:17:34	26012020	260120	021734	4.310	12.418485	-57.629683	4.260	-0.400	0.420	0.080	4.280	-0.900	0.600																			1580005054.0	0.05	0.09
26/01/2020 02:17:35	26012020	260120	021735	4.250	12.418485	-57.629685	4.270	-0.540	0.210	-0.280	4.240	-1.100	0.300																			1580005055.0	0.29	0.54
26/01/2020 02:17:36	26012020	260120	021736	4.270	12.418485	-57.629688	4.380	-0.440	-0.110	-0.550	4.280	-1.300	-0.100																			1580005056.0	0.57	1.06
26/01/2020 02:17:37	26012020	260120	021737	4.360	12.418485	-57.629690	4.560	-0.130	-0.490	-0.710	4.390	-1.700	-0.300																			1580005057.0	0.53	0.98
26/01/2020 02:17:38	26012020	260120	021738	4.580	12.418485	-57.629692	4.720	0.190	-0.760	-0.680	4.610	-2.000	-0.400																			1580005058.0	0.30	0.56
26/01/2020 02:17:39	26012020	260120	021739	4.710	12.418487	-57.629692	4.720	0.350	-0.750	-0.340	4.720	-2.200	-0.200																			1580005059.0	0.18	0.33
26/01/2020 02:17:40	26012020	260120	021740	4.690	12.418487	-57.629688	4.600	0.310	-0.520	0.220	4.660	-2.000	0.300																			1580005060.0	0.44	0.81
26/01/2020 02:17:41	26012020	260120	021741	4.540	12.418487	-57.629685	4.490	0.150	-0.210	0.740	4.500	-1.700	0.900																			1580005061.0	0.73	1.35
26/01/2020 02:17:42	26012020	260120	021742	4.420	12.418485	-57.629683	4.400	0.040	0.150	1.040	4.400	-1.400	1.300																			1580005062.0	0.66	1.22
26/01/2020 02:17:43	26012020	260120	021743	4.320	12.418485	-57.629682	4.270	0.060	0.480	1.180	4.290	-1.000	1.500																			1580005063.0	0.34	0.63
26/01/2020 02:17:44	26012020	260120	021744	4.170	12.418485	-57.629680	4.170	0.120	0.490	1.060	4.150	-0.900	1.500																			1580005064.0	0.17	0.31
26/01/2020 02:17:45	26012020	260120	021745	4.100	12.418485	-57.629680	4.250	0.070	0.170	0.640	4.110	-1.000	1.200																			1580005065.0	0.06	0.11
26/01/2020 02:17:46	26012020	260120	021746	4.230	12.418485	-57.629682	4.520	-0.110	-0.190	0.050	4.280	-1.400	0.700																			1580005066.0	0.32	0.59
26/01/2020 02:17:47	26012020	260120	021747	4.540	12.418487	-57.629685	4.850	-0.280	-0.300	-0.520	4.610	-1.700	0.100																			1580005067.0	0.69	1.28
26/01/2020 02:17:48	26012020	260120	021748	4.860	12.418488	-57.629688	4.990	-0.300	-0.130	-0.750	4.900	-1.600	-0.300																			1580005068.0	0.76	1.41
26/01/2020 02:17:49	26012020	260120	021749	4.980	12.418487	-57.629690	4.920	-0.140	0.010	-0.550	4.980	-1.400	-0.300																			1580005069.0	0.50	0.93
26/01/2020 02:17:50	26012020	260120	021750	4.870	12.418485	-57.629690	4.710	0.090	-0.120	0.020	4.830	-1.400	0.100																			1580005070.0	0.38	0.70
26/01/2020 02:17:51	26012020	260120	021751	4.630	12.418485	-57.629687	4.500	0.230	-0.450	0.530	4.590	-1.700	0.700																			1580005071.0	0.70	1.30
26/01/2020 02:17:52	26012020	260120	021752	4.420	12.418485	-57.629682	4.390	0.230	-0.650	0.730	4.400	-2.000	1.000																			1580005072.0	0.91	1.69
26/01/2020 02:17:53	26012020	260120	021753	4.350	12.418487	-57.629680	4.440	0.140	-0.540	0.680	4.360	-2.000	1.100																			1580005073.0	0.66	1.22
26/01/2020 02:17:54	26012020	260120	021754	4.410	12.418487	-57.629680	4.540	0.060	-0.160	0.540	4.430	-1.700	1.000																			1580005074.0	0.18	0.33
26/01/2020 02:17:55	26012020	260120	021755	4.520	12.418487	-57.629682	4.620	0.020	0.250	0.390	4.530	-1.300	0.800																			1580005075.0	0.41	0.76
26/01/2020 02:17:56	26012020	260120	021756	4.590	12.418487	-57.629683	4.660	-0.030	0.520	0.230	4.600	-1.000	0.700																			1580005076.0	0.50	0.93
26/01/2020 02:17:57	26012020	260120	021757	4.630	12.418485	-57.629685	4.740	-0.140	0.530	0.130	4.640	-0.800	0.500																			1580005077.0	0.32	0.59
26/01/2020 02:17:58	26012020	260120	021758	4.720	12.418485	-57.629685	4.890	-0.270	0.250	0.050	4.750	-1.000	0.400																			1580005078.0	0.14	0.26
26/01/2020 02:17:59	26012020	260120	021759	4.880	12.418485	-57.629685	4.960	-0.360	-0.110	0.030	4.900	-1.300	0.400	1015.40	25.50	25.50	21.10	21.10	-1.00	76.00	76.00	391.00	24.60	31.00	4.90	36.00	4.80	14	3459.00	27.50	27.40	1580005079.0	0.14	0.26
26/01/2020 02:18:00	26012020	260120	021800	4.910	12.418485	-57.629683	4.810	-0.300	-0.320	0.160	4.880	-1.600	0.400																			1580005080.0	0.18	0.33
26/01/2020 02:18:01	26012020	260120	021801	4.770	12.418485	-57.629683	4.620	-0.060	-0.500	0.340	4.730	-1.800	0.600																			1580005081.0	0.07	0.13
26/01/2020 02:18:02	26012020	260120	021802	4.560	12.418485	-57.629683	4.600	0.270	-0.770	0.390	4.540	-2.000	0.800																			1580005082.0	0.12	0.22
26/01/2020 02:18:03	26012020	260120	021803	4.560	12.418487	-57.629683	4.730	0.520	-0.850	0.300	4.580	-2.200	0.700																			1580005083.0	0.18	0.33
26/01/2020 02:18:04	26012020	260120	021804	4.700	12.418487	-57.629682	4.740	0.490	-0.400	0.300	4.720	-2.100	0.600																			1580005084.0	0.32	0.59
26/01/2020 02:18:05	26012020	260120	021805	4.670	12.418488	-57.629682	4.520	0.190	0.320	0.410	4.640	-1.400	0.700																			1580005085.0	0.14	0.26
26/01/2020 02:18:06	26012020	260120	021806	4.430	12.418485	-57.629682	4.300	-0.120	0.680	0.390	4.380	-0.800	0.800																			1580005086.0	0.42	0.78
26/01/2020 02:18:07	26012020	260120	021807	4.250	12.418483	-57.629682	4.330	-0.210	0.380	0.080	4.240	-0.800	0.600																			1580005087.0	0.47	0.87
26/01/2020 02:18:08	26012020	260120	021808	4.330	12.418483	-57.629683	4.540	-0.110	-0.090	-0.290	4.370	-1.300	0.200																			1580005088.0	0.40	0.74
26/01/2020 02:18:09	26012020	260120	021809	4.550	12.418487	-57.629685	4.680	-0.060	-0.190	-0.400	4.580	-1.600	-0.000																			1580005089.0	0.72	1.33
26/01/2020 02:18:10	26012020	260120	021810	4.660	12.418488	-57.629687	4.640	-0.150	0.050	-0.240	4.650	-1.500	0.000																			1580005090.0	0.38	0.70
26/01/2020 02:18:11	26012020	260120	021811	4.590	12.418487	-57.629687	4.530	-0.270	0.130	0.040	4.560	-1.300	0.300																			1580005091.0	0.28	0.52
26/01/2020 02:18:12	26012020	260120	021812	4.470	12.418485	-57.629685	4.480	-0.270	-0.160	0.260	4.450	-1.400	0.500																			1580005092.0	0.58	1.07
26/01/2020 02:18:13	26012020	260120	021813	4.420	12.418485	-57.629683	4.480	-0.120	-0.480	0.410	4.430	-1.700	0.700																			1580005093.0	0.37	0.69
26/01/2020 02:18:14	26012020	260120	021814	4.430	12.418485	-57.629682	4.420	0.100	-0.560	0.570	4.420	-1.900	0.800																			1580005094.0	0.33	0.61
26/01/2020 02:18:15	26012020	260120	021815	4.340	12.418487	-57.629680	4.290	0.240	-0.430	0.690	4.310	-1.900	1.000																			1580005095.0	0.27	0.50
26/01/2020 02:18:16	26012020	260120	021816	4.210	12.418487	-57.629680	4.180	0.210	-0.230	0.670	4.190	-1.700	1.100																			1580005096.0	0.18	0.33
26/01/2020 02:18:17	26012020	260120	021817	4.110	12.418487	-57.629680	4.070	0.060	0.050	0.540	4.090	-1.500	1.000																			1580005097.0	0.08	0.15
26/01/2020 02:18:18	26012020	260120	021818	4.010	12.418485	-57.629680	4.000	-0.020	0.310	0.360	3.990	-1.200	0.800																			1580005098.0	0.28	0.52
26/01/2020 02:18:19	26012020	260120	021819	3.960	12.418485	-57.629682	4.020	0.070	0.290	0.160	3.950	-1.000	0.600																			1580005099.0	0.45	0.83
26/01/2020 02:18:20	26012020	260120	021820	4.000	12.418483	-57.629683	4.130	0.190	-0.040	-0.080	4.020	-1.300	0.400																			1580005100.0	0.29	0.54
26/01/2020 02:18:21	26012020	260120	021821	4.110	12.418485	-57.629683	4.220	0.150	-0.320	-0.260	4.130	-1.600	0.200																			1580005101.0	0.21	0.39
26/01/2020 02:18:22	26012020	260120	021822	4.190	12.418487	-57.629683	4.260	-0.090	-0.320	-0.360	4.200	-1.800	0.000																			1580005102.0	0.34	0.63
26/01/2020 02:18:23	26012020	260120	021823	4.210	12.418487	-57.629685	4.220	-0.300	-0.090	-0.310	4.210	-1.600	0.000																			1580005103.0	0.14	0.26
26/01/2020 02:18:24	26012020	260120	021824	4.160	12.418487	-57.629685	4.070	-0.290	0.100	0.020	4.140	-1.400	0.200																			1580005104.0	0.24	0.44
26/01/2020 02:18:25	26012020	260120	021825	4.030	12.418485	-57.629685	3.900	-0.070	0.050	0.450	3.990	-1.300	0.600																			1580005105.0	0.29	0.54
26/01/2020 02:18:26	26012020	260120	021826	3.810	12.418483	-57.629683	3.820	0.150	-0.200	0.690	3.780	-1.500	1.000																			1580005106.0	0.39	0.72
26/01/2020 02:18:27	26012020	260120	021827	3.750	12.418485	-57.629682	3.840	0.210	-0.370	0.730	3.750	-1.700	1.100																			1580005107.0	0.46	0.85
26/01/2020 02:18:28	26012020	260120	021828	3.790	12.418485	-57.629680	3.910	0.100	-0.320	0.660	3.810	-1.800	1.100																			1580005108.0	0.37	0.69
26/01/2020 02:18:29	26012020	260120	021829	3.860	12.418485	-57.629678	3.900	-0.060	-0.090	0.580	3.860	-1.600	1.000																			1580005109.0	0.12	0.22
26/01/2020 02:18:30	26012020	260120	021830	3.830	12.418485	-57.629680	3.790	-0.120	0.160	0.530	3.810	-1.300	0.900																			1580005110.0	0.16	0.30
26/01/2020 02:18:31	26012020	260120	021831	3.710	12.418483	-57.629680	3.690	-0.020	0.160	0.400	3.690	-1.200	0.800																			1580005111.0	0.31	0.57
26/01/2020 02:18:32	26012020	260120	021832	3.620	12.418483	-57.629682	3.650	0.090	-0.080	0.170	3.610	-1.300	0.700																			1580005112.0	0.21	0.39
26/01/2020 02:18:33	26012020	260120	021833	3.600	12.418483	-57.629682	3.730	0.120	-0.370	-0.130	3.610	-1.600	0.400																			1580005113.0	0.27	0.50
26/01/2020 02:18:34	26012020	260120	021834	3.720	12.418485	-57.629683	3.920	0.050	-0.460	-0.410	3.760	-1.800	0.100																			1580005114.0	0.45	0.83
26/01/2020 02:18:35	26012020	260120	021835	3.930	12.418487	-57.629685	4.080	-0.010	-0.200	-0.450	3.970	-1.800	-0.100																			1580005115.0	0.44	0.81
26/01/2020 02:18:36	26012020	260120	021836	4.050	12.418487	-57.629687	4.000	-0.040	0.240	-0.120	4.050	-1.400	0.000																			1580005116.0	0.15	0.28
26/01/2020 02:18:37	26012020	260120	021837	3.930	12.418485	-57.629685	3.760	-0.070	0.380	0.400	3.880	-1.000	0.500																			1580005117.0	0.52	0.96
26/01/2020 02:18:38	26012020	260120	021838	3.650	12.418483	-57.629682	3.510	-0.090	0.070	0.800	3.600	-1.100	1.000																			1580005118.0	0.80	1.48
26/01/2020 02:18:39	26012020	260120	021839	3.460	12.418483	-57.629678	3.460	-0.060	-0.410	0.830	3.430	-1.600	1.200																			1580005119.0	0.55	1.02
26/01/2020 02:18:40	26012020	260120	021840	3.440	12.418485	-57.629678	3.620	0.010	-0.600	0.560	3.470	-2.000	1.100																			1580005120.0	0.41	0.76
26/01/2020 02:18:41	26012020	260120	021841	3.620	12.418487	-57.629680	3.810	0.020	-0.340	0.260	3.660	-1.900	0.800																			1580005121.0	0.45	0.83
26/01/2020 02:18:42	26012020	260120	021842	3.810	12.418487	-57.629682	3.970	-0.080	0.120	0.080	3.850	-1.500	0.500																			1580005122.0	0.38	0.70
26/01/2020 02:18:43	26012020	260120	021843	3.960	12.418485	-57.629683	4.050	-0.160	0.380	0.070	3.970	-1.100	0.400																			1580005123.0	0.53	0.98
26/01/2020 02:18:44	26012020	260120	021844	4.030	12.418483	-57.629683	4.090	-0.060	0.240	0.180	4.040	-1.000	0.500																			1580005124.0	0.46	0.85
26/01/2020 02:18:45	26012020	260120	021845	4.050	12.418482	-57.629683	4.070	0.170	-0.190	0.310	4.050	-1.400	0.600																			1580005125.0	0.18	0.33
26/01/2020 02:18:46	26012020	260120	021846	4.000	12.418483	-57.629682	3.940	0.340	-0.580	0.480	3.980	-1.800	0.800																			1580005126.0	0.48	0.89
26/01/2020 02:18:47	26012020	260120	021847	3.860	12.418485	-57.629678	3.790	0.270	-0.640	0.650	3.830	-2.100	0.900																			1580005127.0	0.67	1.24
26/01/2020 02:18:48	26012020	260120	021848	3.710	12.418487	-57.629677	3.690	0.040	-0.330	0.630	3.690	-1.900	1.000																			1580005128.0	0.52	0.96
26/01/2020 02:18:49	26012020	260120	021849	3.630	12.418487	-57.629677	3.620	-0.160	0.140	0.450	3.620	-1.500	0.900																			1580005129.0	0.06	0.11
26/01/2020 02:18:50	26012020	260120	021850	3.560	12.418485	-57.629678	3.560	-0.140	0.380	0.220	3.550	-1.100	0.700																			1580005130.0	0.50	0.93
26/01/2020 02:18:51	26012020	260120	021851	3.510	12.418483	-57.629682	3.610	0.030	0.210	-0.080	3.510	-1.100	0.400																			1580005131.0	0.64	1.19
26/01/2020 02:18:52	26012020	260120	021852	3.600	12.418483	-57.629683	3.840	0.110	-0.100	-0.370	3.640	-1.400	0.100																			1580005132.0	0.54	1.00
26/01/2020 02:18:53	26012020	260120	021853	3.790	12.418485	-57.629685	4.120	-0.020	-0.170	-0.510	3.850	-1.600	-0.100																			1580005133.0	0.49	0.91
26/01/2020 02:18:54	26012020	260120	021854	4.130	12.418487	-57.629687	4.240	-0.270	0.040	-0.320	4.160	-1.500	-0.100																			1580005134.0	0.20	0.37
26/01/2020 02:18:55	26012020	260120	021855	4.190	12.418485	-57.629685	4.070	-0.380	0.220	0.220	4.170	-1.200	0.300																			1580005135.0	0.28	0.52
26/01/2020 02:18:56	26012020	260120	021856	3.990	12.418483	-57.629682	3.840	-0.230	0.040	0.800	3.930	-1.200	0.900																			1580005136.0	0.69	1.28
26/01/2020 02:18:57	26012020	260120	021857	3.750	12.418482	-57.629678	3.710	0.030	-0.450	1.140	3.720	-1.600	1.400																			1580005137.0	0.91	1.69
26/01/2020 02:18:58	26012020	260120	021858	3.640	12.418483	-57.629675	3.660	0.170	-0.770	1.150	3.620	-2.000	1.500																			1580005138.0	0.84	1.56
26/01/2020 02:18:59	26012020	260120	021859	3.600	12.418485	-57.629673	3.650	0.140	-0.640	0.830	3.600	-2.100	1.400	1015.40	25.50	25.60	21.20	21.20	-1.00	77.00	76.00	392.00	24.60	27.00	5.20	32.00	5.10	14	3358.00	27.40	27.40	1580005139.0	0.55	1.02
26/01/2020 02:19:00	26012020	260120	021900	3.590	12.418487	-57.629675	3.610	0.100	-0.180	0.390	3.590	-1.800	1.000																			1580005140.0	0.40	0.74
26/01/2020 02:19:01	26012020	260120	021901	3.570	12.418485	-57.629678	3.580	0.190	0.170	-0.020	3.560	-1.400	0.500																			1580005141.0	0.84	1.56
26/01/2020 02:19:02	26012020	260120	021902	3.550	12.418485	-57.629682	3.600	0.320	0.180	-0.310	3.550	-1.200	0.200																			1580005142.0	0.82	1.52
26/01/2020 02:19:03	26012020	260120	021903	3.590	12.418485	-57.629683	3.660	0.290	0.010	-0.440	3.600	-1.300	-0.000																			1580005143.0	0.44	0.81
26/01/2020 02:19:04	26012020	260120	021904	3.650	12.418485	-57.629685	3.770	0.030	-0.050	-0.520	3.670	-1.400	-0.100																			1580005144.0	0.35	0.65
26/01/2020 02:19:05	26012020	260120	021905	3.780	12.418487	-57.629685	3.950	-0.260	0.050	-0.500	3.810	-1.400	-0.200																			1580005145.0	0.28	0.52
26/01/2020 02:19:06	26012020	260120	021906	3.950	12.418487	-57.629685	4.060	-0.390	0.180	-0.230	3.980	-1.300	-0.000																			1580005146.0	0.06	0.11
26/01/2020 02:19:07	26012020	260120	021907	4.030	12.418487	-57.629683	3.990	-0.390	0.260	0.310	4.020	-1.200	0.400																			1580005147.0	0.33	0.61
26/01/2020 02:19:08	26012020	260120	021908	3.910	12.418485	-57.629682	3.790	-0.320	0.230	0.880	3.870	-1.100	1.000																			1580005148.0	0.70	1.30
26/01/2020 02:19:09	26012020	260120	021909	3.700	12.418483	-57.629677	3.640	-0.170	-0.090	1.230	3.660	-1.300	1.400																			1580005149.0	0.80	1.48
26/01/2020 02:19:10	26012020	260120	021910	3.570	12.418483	-57.629675	3.600	0.060	-0.670	1.210	3.550	-1.800	1.600																			1580005150.0	0.62	1.15
26/01/2020 02:19:11	26012020	260120	021911	3.550	12.418485	-57.629673	3.610	0.290	-1.030	0.900	3.550	-2.300	1.400																			1580005151.0	0.36	0.67
26/01/2020 02:19:12	26012020	260120	021912	3.560	12.418487	-57.629675	3.620	0.370	-0.780	0.440	3.570	-2.400	1.000																			1580005152.0	0.55	1.02
26/01/2020 02:19:13	26012020	260120	021913	3.600	12.418488	-57.629677	3.680	0.310	-0.180	0.000	3.610	-1.900	0.600																			1580005153.0	0.59	1.09
26/01/2020 02:19:14	26012020	260120	021914	3.670	12.418487	-57.629680	3.760	0.150	0.290	-0.310	3.690	-1.300	0.200																			1580005154.0	0.75	1.39
26/01/2020 02:19:15	26012020	260120	021915	3.750	12.418485	-57.629683	3.810	-0.030	0.470	-0.490	3.760	-1.000	-0.100																			1580005155.0	0.69	1.28
26/01/2020 02:19:16	26012020	260120	021916	3.800	12.418485	-57.629685	3.830	-0.200	0.470	-0.490	3.810	-0.900	-0.200																			1580005156.0	0.37	0.69
26/01/2020 02:19:17	26012020	260120	021917	3.800	12.418485	-57.629685	3.820	-0.310	0.370	-0.330	3.800	-0.900	-0.100																			1580005157.0	0.08	0.15
26/01/2020 02:19:18	26012020	260120	021918	3.800	12.418485	-57.629685	3.860	-0.300	0.120	-0.040	3.800	-1.100	0.200																			1580005158.0	0.19	0.35
26/01/2020 02:19:19	26012020	260120	021919	3.830	12.418485	-57.629683	3.890	-0.190	-0.210	0.300	3.830	-1.400	0.500																			1580005159.0	0.40	0.74
26/01/2020 02:19:20	26012020	260120	021920	3.830	12.418485	-57.629680	3.840	-0.070	-0.500	0.630	3.830	-1.800	0.800																			1580005160.0	0.54	1.00
26/01/2020 02:19:21	26012020	260120	021921	3.770	12.418485	-57.629678	3.760	0.070	-0.660	0.810	3.750	-2.000	1.100																			1580005161.0	0.50	0.93
26/01/2020 02:19:22	26012020	260120	021922	3.690	12.418487	-57.629677	3.690	0.250	-0.630	0.830	3.670	-2.000	1.200																			1580005162.0	0.24	0.44
26/01/2020 02:19:23	26012020	260120	021923	3.630	12.418487	-57.629677	3.640	0.460	-0.470	0.750	3.610	-1.900	1.200																			1580005163.0	0.11	0.20
26/01/2020 02:19:24	26012020	260120	021924	3.590	12.418487	-57.629678	3.690	0.530	-0.260	0.580	3.590	-1.700	1.000																			1580005164.0	0.17	0.31
26/01/2020 02:19:25	26012020	260120	021925	3.660	12.418487	-57.629678	3.780	0.290	0.050	0.320	3.680	-1.500	0.800																			1580005165.0	0.10	0.19
26/01/2020 02:19:26	26012020	260120	021926	3.750	12.418487	-57.629678	3.810	-0.180	0.540	0.080	3.760	-1.100	0.600																			1580005166.0	0.19	0.35
26/01/2020 02:19:27	26012020	260120	021927	3.770	12.418487	-57.629680	3.810	-0.600	0.920	-0.170	3.770	-0.600	0.300																			1580005167.0	0.38	0.70
26/01/2020 02:19:28	26012020	260120	021928	3.770	12.418483	-57.629682	3.820	-0.710	0.730	-0.330	3.780	-0.500	0.100																			1580005168.0	0.62	1.15
26/01/2020 02:19:29	26012020	260120	021929	3.780	12.418483	-57.629683	3.860	-0.470	-0.030	-0.360	3.790	-1.000	0.000																			1580005169.0	0.43	0.80
26/01/2020 02:19:30	26012020	260120	021930	3.830	12.418483	-57.629685	3.910	-0.050	-0.850	-0.270	3.850	-1.900	0.000																			1580005170.0	0.25	0.46
26/01/2020 02:19:31	26012020	260120	021931	3.880	12.418487	-57.629683	3.930	0.330	-1.190	-0.050	3.890	-2.500	0.200																			1580005171.0	0.60	1.11
26/01/2020 02:19:32	26012020	260120	021932	3.910	12.418488	-57.629682	3.940	0.500	-0.980	0.230	3.910	-2.500	0.400																			1580005172.0	0.58	1.07
26/01/2020 02:19:33	26012020	260120	021933	3.910	12.418488	-57.629680	3.910	0.430	-0.390	0.510	3.900	-2.100	0.700																			1580005173.0	0.49	0.91
26/01/2020 02:19:34	26012020	260120	021934	3.860	12.418487	-57.629678	3.830	0.200	0.320	0.790	3.850	-1.400	1.000																			1580005174.0	0.49	0.91
26/01/2020 02:19:35	26012020	260120	021935	3.750	12.418485	-57.629677	3.660	-0.060	0.810	0.970	3.720	-0.800	1.300																			1580005175.0	0.52	0.96
26/01/2020 02:19:36	26012020	260120	021936	3.570	12.418483	-57.629677	3.490	-0.200	0.750	0.870	3.530	-0.500	1.300																			1580005176.0	0.48	0.89
26/01/2020 02:19:37	26012020	260120	021937	3.430	12.418482	-57.629677	3.530	-0.130	0.090	0.390	3.430	-0.900	1.000																			1580005177.0	0.24	0.44
26/01/2020 02:19:38	26012020	260120	021938	3.530	12.418483	-57.629678	3.800	0.030	-0.660	-0.250	3.580	-1.700	0.400																			1580005178.0	0.57	1.06
26/01/2020 02:19:39	26012020	260120	021939	3.830	12.418487	-57.629682	4.100	0.100	-0.840	-0.690	3.910	-2.200	-0.200																			1580005179.0	1.00	1.85
26/01/2020 02:19:40	26012020	260120	021940	4.120	12.418490	-57.629685	4.220	-0.020	-0.410	-0.740	4.150	-2.000	-0.400																			1580005180.0	0.75	1.39
26/01/2020 02:19:41	26012020	260120	021941	4.200	12.418488	-57.629685	4.130	-0.200	0.170	-0.490	4.190	-1.500	-0.300																			1580005181.0	0.27	0.50
26/01/2020 02:19:42	26012020	260120	021942	4.080	12.418487	-57.629685	3.980	-0.230	0.470	-0.010	4.040	-1.000	0.100																			1580005182.0	0.54	1.00
26/01/2020 02:19:43	26012020	260120	021943	3.940	12.418483	-57.629683	3.890	-0.070	0.300	0.480	3.920	-0.900	0.600																			1580005183.0	0.60	1.11
26/01/2020 02:19:44	26012020	260120	021944	3.820	12.418483	-57.629680	3.870	0.090	-0.140	0.800	3.810	-1.300	1.000																			1580005184.0	0.75	1.39
26/01/2020 02:19:45	26012020	260120	021945	3.810	12.418485	-57.629677	3.930	0.110	-0.460	0.910	3.810	-1.700	1.200																			1580005185.0	0.87	1.61
26/01/2020 02:19:46	26012020	260120	021946	3.880	12.418485	-57.629673	3.990	0.030	-0.480	0.930	3.900	-1.900	1.300																			1580005186.0	0.59	1.09
26/01/2020 02:19:47	26012020	260120	021947	3.940	12.418487	-57.629673	3.970	0.000	-0.350	0.830	3.940	-1.800	1.300																			1580005187.0	0.13	0.24
26/01/2020 02:19:48	26012020	260120	021948	3.890	12.418487	-57.629675	3.860	0.130	-0.270	0.570	3.880	-1.700	1.100																			1580005188.0	0.26	0.48
26/01/2020 02:19:49	26012020	260120	021949	3.790	12.418485	-57.629677	3.790	0.300	-0.260	0.220	3.770	-1.600	0.800																			1580005189.0	0.46	0.85
26/01/2020 02:19:50	26012020	260120	021950	3.740	12.418487	-57.629680	3.830	0.350	-0.110	-0.050	3.750	-1.600	0.400																			1580005190.0	0.57	1.06
26/01/2020 02:19:51	26012020	260120	021951	3.810	12.418488	-57.629682	3.960	0.170	0.250	-0.180	3.830	-1.300	0.200																			1580005191.0	0.50	0.93
26/01/2020 02:19:52	26012020	260120	021952	3.940	12.418487	-57.629683	4.070	-0.200	0.570	-0.270	3.970	-0.900	0.100																			1580005192.0	0.23	0.43
26/01/2020 02:19:53	26012020	260120	021953	4.040	12.418485	-57.629683	4.080	-0.530	0.580	-0.290	4.040	-0.800	0.100																			1580005193.0	0.34	0.63
26/01/2020 02:19:54	26012020	260120	021954	4.030	12.418485	-57.629683	4.080	-0.600	0.150	-0.280	4.030	-1.000	0.100																			1580005194.0	0.31	0.57
26/01/2020 02:19:55	26012020	260120	021955	4.040	12.418485	-57.629683	4.160	-0.310	-0.460	-0.120	4.050	-1.600	0.100																			1580005195.0	0.05	0.09
26/01/2020 02:19:56	26012020	260120	021956	4.130	12.418485	-57.629683	4.220	0.130	-0.850	0.250	4.140	-2.100	0.400																			1580005196.0	0.33	0.61
26/01/2020 02:19:57	26012020	260120	021957	4.160	12.418487	-57.629680	4.160	0.440	-0.860	0.620	4.150	-2.300	0.800																			1580005197.0	0.56	1.04
26/01/2020 02:19:58	26012020	260120	021958	4.080	12.418488	-57.629678	4.030	0.480	-0.590	0.780	4.050	-2.100	1.100																			1580005198.0	0.64	1.19
26/01/2020 02:19:59	26012020	260120	021959	3.960	12.418488	-57.629677	3.930	0.300	-0.130	0.790	3.930	-1.800	1.100	1015.40	25.50	25.60	21.30	21.30	-1.00	77.00	77.00	392.00	24.70	31.00	5.30	36.00	5.10	14	3422.00	27.40	27.40	1580005199.0	0.42	0.78
26/01/2020 02:20:00	26012020	260120	022000	3.870	12.418487	-57.629675	3.930	0.050	0.300	0.680	3.870	-1.300	1.100																			1580005200.0	0.18	0.33
26/01/2020 02:20:01	26012020	260120	022001	3.880	12.418485	-57.629677	4.000	-0.150	0.510	0.410	3.890	-0.900	0.900																			1580005201.0	0.32	0.59
26/01/2020 02:20:02	26012020	260120	022002	3.960	12.418485	-57.629678	4.080	-0.240	0.490	0.090	3.980	-0.900	0.600																			1580005202.0	0.45	0.83
26/01/2020 02:20:03	26012020	260120	022003	4.040	12.418485	-57.629682	4.090	-0.240	0.290	-0.170	4.040	-1.000	0.300																			1580005203.0	0.48	0.89
26/01/2020 02:20:04	26012020	260120	022004	4.040	12.418485	-57.629683	4.110	-0.140	-0.140	-0.320	4.040	-1.300	0.100																			1580005204.0	0.37	0.69
26/01/2020 02:20:05	26012020	260120	022005	4.060	12.418487	-57.629683	4.250	0.020	-0.710	-0.390	4.080	-1.800	-0.000																			1580005205.0	0.27	0.50
26/01/2020 02:20:06	26012020	260120	022006	4.220	12.418488	-57.629683	4.360	0.110	-0.900	-0.280	4.260	-2.300	0.000																			1580005206.0	0.41	0.76
26/01/2020 02:20:07	26012020	260120	022007	4.310	12.418490	-57.629683	4.270	0.030	-0.370	0.070	4.310	-2.100	0.200																			1580005207.0	0.47	0.87
26/01/2020 02:20:08	26012020	260120	022008	4.170	12.418490	-57.629682	4.030	-0.090	0.410	0.500	4.130	-1.300	0.700																			1580005208.0	0.29	0.54
26/01/2020 02:20:09	26012020	260120	022009	3.920	12.418487	-57.629680	3.850	-0.090	0.570	0.730	3.870	-0.800	1.000																			1580005209.0	0.83	1.54
26/01/2020 02:20:10	26012020	260120	022010	3.760	12.418483	-57.629678	3.870	0.050	0.020	0.700	3.760	-1.000	1.100																			1580005210.0	0.68	1.26
26/01/2020 02:20:11	26012020	260120	022011	3.820	12.418483	-57.629678	4.020	0.120	-0.540	0.460	3.860	-1.700	0.900																			1580005211.0	0.25	0.46
26/01/2020 02:20:12	26012020	260120	022012	4.000	12.418487	-57.629678	4.180	0.040	-0.470	0.230	4.040	-2.000	0.700																			1580005212.0	0.71	1.31
26/01/2020 02:20:13	26012020	260120	022013	4.140	12.418488	-57.629682	4.200	-0.050	-0.020	0.180	4.150	-1.600	0.500																			1580005213.0	0.52	0.96
26/01/2020 02:20:14	26012020	260120	022014	4.140	12.418487	-57.629683	4.160	0.010	0.100	0.220	4.130	-1.300	0.600																			1580005214.0	0.49	0.91
26/01/2020 02:20:15	26012020	260120	022015	4.100	12.418485	-57.629683	4.170	0.160	-0.190	0.170	4.100	-1.400	0.600																			1580005215.0	0.40	0.74
26/01/2020 02:20:16	26012020	260120	022016	4.130	12.418487	-57.629682	4.150	0.260	-0.370	0.160	4.140	-1.700	0.500																			1580005216.0	0.20	0.37
26/01/2020 02:20:17	26012020	260120	022017	4.090	12.418488	-57.629682	4.020	0.190	-0.190	0.300	4.060	-1.700	0.600																			1580005217.0	0.42	0.78
26/01/2020 02:20:18	26012020	260120	022018	3.940	12.418488	-57.629680	3.930	-0.000	0.010	0.370	3.920	-1.400	0.700																			1580005218.0	0.20	0.37
26/01/2020 02:20:19	26012020	260120	022019	3.880	12.418487	-57.629680	4.010	-0.210	0.030	0.200	3.880	-1.300	0.700																			1580005219.0	0.22	0.41
26/01/2020 02:20:20	26012020	260120	022020	3.990	12.418487	-57.629680	4.130	-0.330	0.070	-0.050	4.030	-1.400	0.400																			1580005220.0	0.17	0.31
26/01/2020 02:20:21	26012020	260120	022021	4.100	12.418488	-57.629683	4.100	-0.320	0.270	-0.080	4.100	-1.200	0.300																			1580005221.0	0.46	0.85
26/01/2020 02:20:22	26012020	260120	022022	4.040	12.418487	-57.629685	3.960	-0.230	0.330	0.120	4.020	-1.000	0.400																			1580005222.0	0.37	0.69
26/01/2020 02:20:23	26012020	260120	022023	3.890	12.418485	-57.629685	3.890	-0.100	-0.020	0.270	3.870	-1.200	0.600																			1580005223.0	0.34	0.63
26/01/2020 02:20:24	26012020	260120	022024	3.860	12.418485	-57.629683	4.000	0.020	-0.530	0.240	3.880	-1.700	0.600																			1580005224.0	0.23	0.43
26/01/2020 02:20:25	26012020	260120	022025	3.990	12.418487	-57.629683	4.100	0.120	-0.720	0.210	4.030	-2.100	0.600																			1580005225.0	0.32	0.59
26/01/2020 02:20:26	26012020	260120	022026	4.080	12.418488	-57.629683	4.060	0.240	-0.560	0.320	4.070	-2.000	0.600																			1580005226.0	0.32	0.59
26/01/2020 02:20:27	26012020	260120	022027	4.020	12.418488	-57.629683	4.000	0.430	-0.430	0.440	4.000	-1.800	0.800																			1580005227.0	0.14	0.26
26/01/2020 02:20:28	26012020	260120	022028	3.970	12.418488	-57.629683	4.070	0.600	-0.390	0.500	3.970	-1.800	0.800																			1580005228.0	0.09	0.17
26/01/2020 02:20:29	26012020	260120	022029	4.060	12.418488	-57.629683	4.210	0.540	-0.140	0.540	4.090	-1.700	0.900																			1580005229.0	0.21	0.39
26/01/2020 02:20:30	26012020	260120	022030	4.200	12.418490	-57.629682	4.270	0.120	0.410	0.540	4.220	-1.200	0.900																			1580005230.0	0.37	0.69
26/01/2020 02:20:31	26012020	260120	022031	4.240	12.418488	-57.629680	4.160	-0.500	0.910	0.430	4.230	-0.700	0.800																			1580005231.0	0.35	0.65
26/01/2020 02:20:32	26012020	260120	022032	4.110	12.418487	-57.629680	4.000	-0.920	1.040	0.290	4.080	-0.300	0.700																			1580005232.0	0.49	0.91
26/01/2020 02:20:33	26012020	260120	022033	3.980	12.418485	-57.629683	3.910	-0.830	0.560	0.120	3.960	-0.500	0.600																			1580005233.0	0.62	1.15
26/01/2020 02:20:34	26012020	260120	022034	3.880	12.418483	-57.629685	3.950	-0.280	-0.490	-0.080	3.890	-1.300	0.400																			1580005234.0	0.56	1.04
26/01/2020 02:20:35	26012020	260120	022035	3.950	12.418485	-57.629687	4.080	0.340	-1.530	-0.350	3.970	-2.500	0.100																			1580005235.0	0.60	1.11
26/01/2020 02:20:36	26012020	260120	022036	4.100	12.418490	-57.629688	4.240	0.620	-1.670	-0.520	4.140	-3.100	-0.100																			1580005236.0	0.92	1.70
26/01/2020 02:20:37	26012020	260120	022037	4.250	12.418493	-57.629688	4.280	0.450	-0.700	-0.320	4.270	-2.600	-0.100																			1580005237.0	0.65	1.20
26/01/2020 02:20:38	26012020	260120	022038	4.270	12.418492	-57.629688	4.180	0.060	0.590	0.190	4.250	-1.400	0.300																			1580005238.0	0.33	0.61
26/01/2020 02:20:39	26012020	260120	022039	4.140	12.418487	-57.629687	4.070	-0.240	1.160	0.610	4.110	-0.400	0.800																			1580005239.0	1.16	2.15
26/01/2020 02:20:40	26012020	260120	022040	4.020	12.418482	-57.629685	4.000	-0.300	0.780	0.730	4.000	-0.300	1.100																			1580005240.0	0.98	1.81
26/01/2020 02:20:41	26012020	260120	022041	3.960	12.418482	-57.629683	3.930	-0.160	0.020	0.670	3.940	-1.000	1.100																			1580005241.0	0.10	0.19
26/01/2020 02:20:42	26012020	260120	022042	3.890	12.418485	-57.629685	3.950	0.060	-0.580	0.570	3.890	-1.700	1.000																			1580005242.0	0.67	1.24
26/01/2020 02:20:43	26012020	260120	022043	3.940	12.418488	-57.629687	4.140	0.230	-0.810	0.400	3.970	-2.100	0.800																			1580005243.0	0.61	1.13
26/01/2020 02:20:44	26012020	260120	022044	4.150	12.418488	-57.629687	4.380	0.310	-0.650	0.250	4.200	-2.100	0.700																			1580005244.0	0.32	0.59
26/01/2020 02:20:45	26012020	260120	022045	4.380	12.418488	-57.629687	4.520	0.310	-0.310	0.180	4.420	-1.800	0.600																			1580005245.0	0.10	0.19
26/01/2020 02:20:46	26012020	260120	022046	4.500	12.418488	-57.629687	4.490	0.230	0.020	0.230	4.500	-1.500	0.500																			1580005246.0	0.18	0.33
26/01/2020 02:20:47	26012020	260120	022047	4.430	12.418487	-57.629687	4.360	0.020	0.280	0.320	4.410	-1.200	0.600																			1580005247.0	0.19	0.35
26/01/2020 02:20:48	26012020	260120	022048	4.310	12.418487	-57.629685	4.240	-0.290	0.440	0.330	4.280	-1.000	0.700																			1580005248.0	0.25	0.46
26/01/2020 02:20:49	26012020	260120	022049	4.200	12.418487	-57.629685	4.150	-0.510	0.460	0.300	4.190	-0.900	0.700																			1580005249.0	0.15	0.28
26/01/2020 02:20:50	26012020	260120	022050	4.110	12.418485	-57.629687	4.060	-0.500	0.300	0.300	4.090	-1.000	0.700																			1580005250.0	0.20	0.37
26/01/2020 02:20:51	26012020	260120	022051	4.020	12.418485	-57.629687	4.030	-0.210	-0.110	0.230	4.000	-1.200	0.600																			1580005251.0	0.21	0.39
26/01/2020 02:20:52	26012020	260120	022052	4.020	12.418485	-57.629688	4.160	0.200	-0.750	-0.040	4.040	-1.800	0.500																			1580005252.0	0.17	0.31
26/01/2020 02:20:53	26012020	260120	022053	4.180	12.418487	-57.629688	4.360	0.500	-1.170	-0.310	4.220	-2.400	0.100																			1580005253.0	0.42	0.78
26/01/2020 02:20:54	26012020	260120	022054	4.380	12.418490	-57.629690	4.440	0.490	-0.890	-0.290	4.410	-2.500	0.000																			1580005254.0	0.67	1.24
26/01/2020 02:20:55	26012020	260120	022055	4.430	12.418490	-57.629690	4.340	0.180	-0.070	0.020	4.420	-1.900	0.200																			1580005255.0	0.28	0.52
26/01/2020 02:20:56	26012020	260120	022056	4.290	12.418488	-57.629690	4.160	-0.230	0.690	0.360	4.250	-1.000	0.600																			1580005256.0	0.45	0.83
26/01/2020 02:20:57	26012020	260120	022057	4.100	12.418485	-57.629688	4.050	-0.450	0.920	0.600	4.080	-0.500	0.900																			1580005257.0	0.73	1.35
26/01/2020 02:20:58	26012020	260120	022058	4.010	12.418483	-57.629688	4.120	-0.370	0.490	0.570	4.020	-0.600	1.000																			1580005258.0	0.46	0.85
26/01/2020 02:20:59	26012020	260120	022059	4.130	12.418483	-57.629688	4.360	-0.050	-0.210	0.380	4.170	-1.200	0.800	1015.40	25.40	25.50	21.00	21.00	-1.00	76.00	76.00	391.00	24.70	29.00	4.70	34.00	4.60	14	3396.00	27.40	27.40	1580005259.0	0.07	0.13
26/01/2020 02:21:00	26012020	260120	022100	4.380	12.418485	-57.629690	4.520	0.240	-0.610	0.390	4.420	-1.800	0.700																			1580005260.0	0.52	0.96
26/01/2020 02:21:01	26012020	260120	022101	4.500	12.418488	-57.629688	4.500	0.330	-0.550	0.600	4.500	-2.000	0.800																			1580005261.0	0.47	0.87
26/01/2020 02:21:02	26012020	260120	022102	4.450	12.418488	-57.629687	4.400	0.220	-0.330	0.690	4.430	-1.800	1.000																			1580005262.0	0.39	0.72
26/01/2020 02:21:03	26012020	260120	022103	4.360	12.418487	-57.629685	4.280	0.070	-0.250	0.560	4.330	-1.600	1.000																			1580005263.0	0.51	0.94
26/01/2020 02:21:04	26012020	260120	022104	4.230	12.418485	-57.629685	4.120	0.040	-0.290	0.350	4.200	-1.600	0.800																			1580005264.0	0.19	0.35
26/01/2020 02:21:05	26012020	260120	022105	4.080	12.418487	-57.629687	4.030	0.110	-0.240	0.180	4.050	-1.700	0.600																			1580005265.0	0.32	0.59
26/01/2020 02:21:06	26012020	260120	022106	4.000	12.418487	-57.629688	4.030	0.130	0.060	0.030	3.990	-1.500	0.500																			1580005266.0	0.49	0.91
26/01/2020 02:21:07	26012020	260120	022107	4.010	12.418488	-57.629690	4.070	0.010	0.400	-0.210	4.020	-1.100	0.300																			1580005267.0	0.36	0.67
26/01/2020 02:21:08	26012020	260120	022108	4.080	12.418487	-57.629692	4.190	-0.200	0.480	-0.520	4.090	-0.900	-0.000																			1580005268.0	0.39	0.72
26/01/2020 02:21:09	26012020	260120	022109	4.170	12.418485	-57.629693	4.340	-0.310	0.200	-0.640	4.200	-1.000	-0.300																			1580005269.0	0.48	0.89
26/01/2020 02:21:10	26012020	260120	022110	4.350	12.418485	-57.629695	4.410	-0.290	-0.200	-0.410	4.370	-1.400	-0.200																			1580005270.0	0.30	0.56
26/01/2020 02:21:11	26012020	260120	022111	4.410	12.418487	-57.629695	4.410	-0.180	-0.460	0.020	4.410	-1.700	0.200																			1580005271.0	0.23	0.43
26/01/2020 02:21:12	26012020	260120	022112	4.390	12.418487	-57.629692	4.390	-0.050	-0.510	0.420	4.390	-1.900	0.600																			1580005272.0	0.45	0.83
26/01/2020 02:21:13	26012020	260120	022113	4.370	12.418487	-57.629690	4.360	0.060	-0.400	0.800	4.360	-1.800	1.000																			1580005273.0	0.53	0.98
26/01/2020 02:21:14	26012020	260120	022114	4.320	12.418487	-57.629688	4.330	0.180	-0.230	1.130	4.320	-1.700	1.300																			1580005274.0	0.48	0.89
26/01/2020 02:21:15	26012020	260120	022115	4.280	12.418487	-57.629685	4.240	0.280	-0.040	1.380	4.270	-1.500	1.600																			1580005275.0	0.42	0.78
26/01/2020 02:21:16	26012020	260120	022116	4.190	12.418487	-57.629683	4.140	0.290	0.120	1.320	4.170	-1.300	1.800																			1580005276.0	0.38	0.70
26/01/2020 02:21:17	26012020	260120	022117	4.100	12.418485	-57.629683	4.140	0.170	0.110	0.830	4.100	-1.200	1.500																			1580005277.0	0.28	0.52
26/01/2020 02:21:18	26012020	260120	022118	4.150	12.418485	-57.629683	4.250	-0.010	-0.030	0.130	4.170	-1.300	0.800																			1580005278.0	0.21	0.39
26/01/2020 02:21:19	26012020	260120	022119	4.280	12.418485	-57.629687	4.390	-0.110	-0.200	-0.480	4.320	-1.500	0.100																			1580005279.0	0.72	1.33
26/01/2020 02:21:20	26012020	260120	022120	4.430	12.418487	-57.629692	4.530	-0.040	-0.320	-0.860	4.460	-1.600	-0.300																			1580005280.0	0.91	1.69
26/01/2020 02:21:21	26012020	260120	022121	4.550	12.418488	-57.629695	4.650	0.120	-0.350	-0.950	4.580	-1.700	-0.600																			1580005281.0	0.72	1.33
26/01/2020 02:21:22	26012020	260120	022122	4.680	12.418488	-57.629695	4.580	0.170	-0.190	-0.670	4.680	-1.700	-0.500																			1580005282.0	0.28	0.52
26/01/2020 02:21:23	26012020	260120	022123	4.600	12.418488	-57.629695	4.350	0.020	0.120	-0.180	4.550	-1.400	-0.100																			1580005283.0	0.29	0.54
26/01/2020 02:21:24	26012020	260120	022124	4.320	12.418488	-57.629692	4.210	-0.170	0.310	0.320	4.280	-1.100	0.400																			1580005284.0	0.55	1.02
26/01/2020 02:21:25	26012020	260120	022125	4.190	12.418487	-57.629690	4.200	-0.260	0.280	0.710	4.180	-1.100	0.900																			1580005285.0	0.60	1.11
26/01/2020 02:21:26	26012020	260120	022126	4.190	12.418487	-57.629687	4.270	-0.280	0.140	0.930	4.190	-1.100	1.200																			1580005286.0	0.48	0.89
26/01/2020 02:21:27	26012020	260120	022127	4.270	12.418485	-57.629685	4.400	-0.270	-0.080	0.870	4.300	-1.300	1.300																			1580005287.0	0.31	0.57
26/01/2020 02:21:28	26012020	260120	022128	4.410	12.418485	-57.629685	4.490	-0.240	-0.320	0.640	4.430	-1.600	1.100																			1580005288.0	0.01	0.02
26/01/2020 02:21:29	26012020	260120	022129	4.490	12.418487	-57.629687	4.550	-0.110	-0.510	0.430	4.500	-1.800	0.900																			1580005289.0	0.30	0.56
26/01/2020 02:21:30	26012020	260120	022130	4.550	12.418487	-57.629688	4.570	0.160	-0.530	0.400	4.560	-1.900	0.700																			1580005290.0	0.38	0.70
26/01/2020 02:21:31	26012020	260120	022131	4.550	12.418487	-57.629690	4.500	0.420	-0.350	0.550	4.540	-1.800	0.800																			1580005291.0	0.16	0.30
26/01/2020 02:21:32	26012020	260120	022132	4.470	12.418487	-57.629688	4.440	0.530	-0.230	0.570	4.450	-1.600	1.000																			1580005292.0	0.21	0.39
26/01/2020 02:21:33	26012020	260120	022133	4.430	12.418485	-57.629687	4.500	0.420	-0.260	0.220	4.430	-1.600	0.800																			1580005293.0	0.41	0.76
26/01/2020 02:21:34	26012020	260120	022134	4.530	12.418487	-57.629687	4.620	0.120	-0.190	-0.230	4.550	-1.600	0.300																			1580005294.0	0.20	0.37
26/01/2020 02:21:35	26012020	260120	022135	4.640	12.418488	-57.629687	4.570	-0.200	0.210	-0.380	4.640	-1.400	0.000																			1580005295.0	0.44	0.81
26/01/2020 02:21:36	26012020	260120	022136	4.560	12.418488	-57.629690	4.400	-0.320	0.610	-0.240	4.530	-0.900	0.000																			1580005296.0	0.59	1.09
26/01/2020 02:21:37	26012020	260120	022137	4.370	12.418487	-57.629692	4.250	-0.200	0.550	-0.050	4.340	-0.700	0.200																			1580005297.0	0.49	0.91
26/01/2020 02:21:38	26012020	260120	022138	4.260	12.418485	-57.629692	4.300	-0.050	0.040	-0.010	4.260	-1.000	0.400																			1580005298.0	0.24	0.44
26/01/2020 02:21:39	26012020	260120	022139	4.340	12.418487	-57.629690	4.490	-0.060	-0.450	-0.050	4.380	-1.600	0.300																			1580005299.0	0.34	0.63
26/01/2020 02:21:40	26012020	260120	022140	4.540	12.418488	-57.629690	4.670	-0.210	-0.520	0.010	4.590	-1.900	0.300																			1580005300.0	0.44	0.81
26/01/2020 02:21:41	26012020	260120	022141	4.710	12.418488	-57.629690	4.790	-0.280	-0.280	0.220	4.740	-1.800	0.500																			1580005301.0	0.12	0.22
26/01/2020 02:21:42	26012020	260120	022142	4.810	12.418487	-57.629690	4.780	-0.160	-0.100	0.550	4.810	-1.500	0.700																			1580005302.0	0.29	0.54
26/01/2020 02:21:43	26012020	260120	022143	4.760	12.418485	-57.629688	4.630	0.080	-0.160	0.880	4.730	-1.500	1.100																			1580005303.0	0.44	0.81
26/01/2020 02:21:44	26012020	260120	022144	4.610	12.418485	-57.629687	4.520	0.270	-0.360	1.060	4.580	-1.600	1.400																			1580005304.0	0.44	0.81
26/01/2020 02:21:45	26012020	260120	022145	4.520	12.418487	-57.629685	4.460	0.270	-0.370	1.070	4.500	-1.800	1.400																			1580005305.0	0.44	0.81
26/01/2020 02:21:46	26012020	260120	022146	4.450	12.418487	-57.629683	4.480	0.100	-0.100	0.810	4.450	-1.600	1.300																			1580005306.0	0.30	0.56
26/01/2020 02:21:47	26012020	260120	022147	4.490	12.418487	-57.629685	4.590	-0.040	0.170	0.360	4.500	-1.300	0.900																			1580005307.0	0.19	0.35
26/01/2020 02:21:48	26012020	260120	022148	4.610	12.418487	-57.629687	4.610	-0.030	0.270	0.070	4.620	-1.100	0.500																			1580005308.0	0.53	0.98
26/01/2020 02:21:49	26012020	260120	022149	4.630	12.418487	-57.629688	4.630	0.060	0.130	-0.140	4.630	-1.100	0.300																			1580005309.0	0.47	0.87
26/01/2020 02:21:50	26012020	260120	022150	4.670	12.418487	-57.629690	4.730	0.060	-0.130	-0.410	4.700	-1.400	0.100																			1580005310.0	0.17	0.31
26/01/2020 02:21:51	26012020	260120	022151	4.780	12.418487	-57.629690	4.740	-0.080	-0.160	-0.530	4.790	-1.600	-0.100																			1580005311.0	0.26	0.48
26/01/2020 02:21:52	26012020	260120	022152	4.760	12.418488	-57.629692	4.610	-0.230	-0.010	-0.380	4.730	-1.500	-0.100																			1580005312.0	0.22	0.41
26/01/2020 02:21:53	26012020	260120	022153	4.610	12.418487	-57.629692	4.520	-0.190	-0.050	-0.090	4.590	-1.400	0.100																			1580005313.0	0.21	0.39
26/01/2020 02:21:54	26012020	260120	022154	4.540	12.418487	-57.629692	4.570	0.050	-0.360	0.210	4.540	-1.600	0.400																			1580005314.0	0.23	0.43
26/01/2020 02:21:55	26012020	260120	022155	4.600	12.418487	-57.629690	4.710	0.200	-0.550	0.430	4.630	-1.900	0.700																			1580005315.0	0.39	0.72
26/01/2020 02:21:56	26012020	260120	022156	4.740	12.418488	-57.629687	4.730	0.080	-0.370	0.550	4.750	-1.900	0.900																			1580005316.0	0.63	1.17
26/01/2020 02:21:57	26012020	260120	022157	4.710	12.418488	-57.629685	4.490	-0.190	0.160	0.720	4.670	-1.500	1.000																			1580005317.0	0.34	0.63
26/01/2020 02:21:58	26012020	260120	022158	4.440	12.418487	-57.629685	4.210	-0.280	0.520	0.900	4.370	-1.000	1.200																			1580005318.0	0.32	0.59
26/01/2020 02:21:59	26012020	260120	022159	4.210	12.418485	-57.629687	4.160	-0.040	0.260	0.830	4.180	-0.900	1.300	1015.40	25.50	25.50	21.10	21.00	-1.00	76.00	76.00	391.00	24.70	34.00	5.00	39.00	4.90	14	3395.00	27.50	27.40	1580005319.0	0.53	0.98
26/01/2020 02:22:00	26012020	260120	022200	4.180	12.418485	-57.629687	4.340	0.300	-0.350	0.480	4.210	-1.400	1.000																			1580005320.0	0.16	0.30
26/01/2020 02:22:01	26012020	260120	022201	4.350	12.418487	-57.629688	4.590	0.400	-0.710	0.010	4.410	-2.000	0.600																			1580005321.0	0.54	1.00
26/01/2020 02:22:02	26012020	260120	022202	4.650	12.418490	-57.629688	4.730	0.130	-0.460	-0.330	4.690	-2.000	0.200																			1580005322.0	0.65	1.20
26/01/2020 02:22:03	26012020	260120	022203	4.760	12.418490	-57.629690	4.700	-0.250	0.150	-0.380	4.760	-1.500	-0.000																			1580005323.0	0.34	0.63
26/01/2020 02:22:04	26012020	260120	022204	4.690	12.418488	-57.629692	4.500	-0.410	0.530	-0.110	4.650	-1.000	0.100																			1580005324.0	0.52	0.96
26/01/2020 02:22:05	26012020	260120	022205	4.470	12.418485	-57.629692	4.240	-0.250	0.350	0.290	4.410	-0.900	0.500																			1580005325.0	0.58	1.07
26/01/2020 02:22:06	26012020	260120	022206	4.200	12.418485	-57.629690	4.070	0.000	-0.220	0.480	4.160	-1.300	0.800																			1580005326.0	0.43	0.80
26/01/2020 02:22:07	26012020	260120	022207	4.070	12.418487	-57.629687	4.100	0.120	-0.620	0.400	4.060	-1.800	0.800																			1580005327.0	0.59	1.09
26/01/2020 02:22:08	26012020	260120	022208	4.130	12.418488	-57.629687	4.230	0.080	-0.600	0.230	4.150	-2.000	0.700																			1580005328.0	0.50	0.93
26/01/2020 02:22:09	26012020	260120	022209	4.260	12.418490	-57.629688	4.300	0.080	-0.300	0.170	4.280	-1.800	0.500																			1580005329.0	0.34	0.63
26/01/2020 02:22:10	26012020	260120	022210	4.310	12.418488	-57.629690	4.230	0.190	-0.020	0.290	4.300	-1.500	0.600																			1580005330.0	0.41	0.76
26/01/2020 02:22:11	26012020	260120	022211	4.240	12.418488	-57.629690	4.060	0.260	0.130	0.480	4.210	-1.300	0.800																			1580005331.0	0.22	0.41
26/01/2020 02:22:12	26012020	260120	022212	4.050	12.418487	-57.629690	4.030	0.140	0.130	0.550	4.040	-1.200	0.900																			1580005332.0	0.23	0.43
26/01/2020 02:22:13	26012020	260120	022213	4.040	12.418488	-57.629688	4.180	-0.130	0.110	0.440	4.050	-1.300	0.900																			1580005333.0	0.19	0.35
26/01/2020 02:22:14	26012020	260120	022214	4.220	12.418488	-57.629688	4.310	-0.350	0.150	0.270	4.250	-1.200	0.700																			1580005334.0	0.13	0.24
26/01/2020 02:22:15	26012020	260120	022215	4.340	12.418488	-57.629690	4.350	-0.380	0.110	0.190	4.350	-1.200	0.600																			1580005335.0	0.27	0.50
26/01/2020 02:22:16	26012020	260120	022216	4.370	12.418487	-57.629692	4.390	-0.260	-0.160	0.130	4.380	-1.400	0.500																			1580005336.0	0.22	0.41
26/01/2020 02:22:17	26012020	260120	022217	4.430	12.418487	-57.629690	4.510	-0.080	-0.420	0.070	4.450	-1.700	0.500																			1580005337.0	0.07	0.13
26/01/2020 02:22:18	26012020	260120	022218	4.540	12.418488	-57.629690	4.530	0.070	-0.410	0.110	4.560	-1.800	0.400																			1580005338.0	0.17	0.31
26/01/2020 02:22:19	26012020	260120	022219	4.530	12.418488	-57.629690	4.300	0.220	-0.200	0.360	4.490	-1.700	0.600																			1580005339.0	0.09	0.17
26/01/2020 02:22:20	26012020	260120	022220	4.250	12.418487	-57.629690	4.030	0.380	-0.220	0.540	4.190	-1.500	0.900																			1580005340.0	0.20	0.37
26/01/2020 02:22:21	26012020	260120	022221	4.020	12.418487	-57.629688	4.020	0.430	-0.490	0.380	4.000	-1.700	0.900																			1580005341.0	0.26	0.48
26/01/2020 02:22:22	26012020	260120	022222	4.060	12.418488	-57.629688	4.200	0.260	-0.510	-0.010	4.100	-1.900	0.500																			1580005342.0	0.33	0.61
26/01/2020 02:22:23	26012020	260120	022223	4.260	12.418490	-57.629690	4.370	-0.070	0.020	-0.340	4.310	-1.700	0.200																			1580005343.0	0.64	1.19
26/01/2020 02:22:24	26012020	260120	022224	4.420	12.418490	-57.629693	4.470	-0.310	0.660	-0.400	4.440	-1.000	-0.000																			1580005344.0	0.68	1.26
26/01/2020 02:22:25	26012020	260120	022225	4.510	12.418488	-57.629697	4.530	-0.290	0.790	-0.200	4.520	-0.600	0.000																			1580005345.0	0.77	1.43
26/01/2020 02:22:26	26012020	260120	022226	4.560	12.418487	-57.629697	4.590	-0.130	0.390	0.090	4.580	-0.700	0.300																			1580005346.0	0.44	0.81
26/01/2020 02:22:27	26012020	260120	022227	4.620	12.418487	-57.629693	4.630	-0.090	-0.140	0.380	4.630	-1.300	0.600																			1580005347.0	0.49	0.91
26/01/2020 02:22:28	26012020	260120	022228	4.640	12.418487	-57.629692	4.620	-0.240	-0.480	0.620	4.640	-1.700	0.900																			1580005348.0	0.73	1.35
26/01/2020 02:22:29	26012020	260120	022229	4.630	12.418488	-57.629688	4.610	-0.380	-0.610	0.720	4.630	-1.900	1.000																			1580005349.0	0.48	0.89
26/01/2020 02:22:30	26012020	260120	022230	4.630	12.418488	-57.629688	4.620	-0.210	-0.580	0.750	4.630	-2.000	1.100																			1580005350.0	0.04	0.07
26/01/2020 02:22:31	26012020	260120	022231	4.640	12.418487	-57.629690	4.630	0.230	-0.500	0.770	4.640	-1.900	1.100																			1580005351.0	0.28	0.52
26/01/2020 02:22:32	26012020	260120	022232	4.630	12.418487	-57.629690	4.550	0.590	-0.360	0.750	4.620	-1.800	1.100																			1580005352.0	0.08	0.15
26/01/2020 02:22:33	26012020	260120	022233	4.540	12.418487	-57.629688	4.410	0.560	-0.180	0.610	4.520	-1.600	1.100																			1580005353.0	0.21	0.39
26/01/2020 02:22:34	26012020	260120	022234	4.410	12.418487	-57.629688	4.350	0.220	0.020	0.270	4.380	-1.400	0.800																			1580005354.0	0.10	0.19
26/01/2020 02:22:35	26012020	260120	022235	4.370	12.418488	-57.629690	4.430	-0.100	0.210	-0.240	4.380	-1.200	0.400																			1580005355.0	0.38	0.70
26/01/2020 02:22:36	26012020	260120	022236	4.490	12.418488	-57.629693	4.560	-0.200	0.380	-0.680	4.520	-1.100	-0.100																			1580005356.0	0.77	1.43
26/01/2020 02:22:37	26012020	260120	022237	4.600	12.418488	-57.629698	4.670	-0.180	0.420	-0.830	4.620	-0.900	-0.400																			1580005357.0	0.82	1.52
26/01/2020 02:22:38	26012020	260120	022238	4.720	12.418488	-57.629700	4.770	-0.210	0.230	-0.750	4.750	-1.000	-0.500																			1580005358.0	0.42	0.78
26/01/2020 02:22:39	26012020	260120	022239	4.820	12.418488	-57.629700	4.810	-0.320	-0.110	-0.460	4.830	-1.300	-0.300																			1580005359.0	0.03	0.06
26/01/2020 02:22:40	26012020	260120	022240	4.830	12.418488	-57.629698	4.730	-0.330	-0.360	0.060	4.820	-1.600	0.100																			1580005360.0	0.23	0.43
26/01/2020 02:22:41	26012020	260120	022241	4.740	12.418488	-57.629697	4.610	-0.130	-0.470	0.640	4.710	-1.800	0.700																			1580005361.0	0.39	0.72
26/01/2020 02:22:42	26012020	260120	022242	4.600	12.418488	-57.629695	4.520	0.200	-0.470	1.050	4.580	-1.900	1.200																			1580005362.0	0.60	1.11
26/01/2020 02:22:43	26012020	260120	022243	4.500	12.418488	-57.629692	4.430	0.420	-0.370	1.330	4.480	-1.800	1.600																			1580005363.0	0.60	1.11
26/01/2020 02:22:44	26012020	260120	022244	4.410	12.418487	-57.629690	4.420	0.410	-0.290	1.370	4.400	-1.700	1.700																			1580005364.0	0.44	0.81
26/01/2020 02:22:45	26012020	260120	022245	4.430	12.418487	-57.629688	4.560	0.230	-0.260	0.960	4.450	-1.600	1.600																			1580005365.0	0.26	0.48
26/01/2020 02:22:46	26012020	260120	022246	4.590	12.418488	-57.629688	4.720	0.040	-0.110	0.280	4.630	-1.600	1.000																			1580005366.0	0.23	0.43
26/01/2020 02:22:47	26012020	260120	022247	4.760	12.418488	-57.629692	4.810	-0.060	0.200	-0.300	4.780	-1.300	0.300																			1580005367.0	0.73	1.35
26/01/2020 02:22:48	26012020	260120	022248	4.830	12.418488	-57.629697	4.800	-0.110	0.410	-0.550	4.840	-1.000	-0.100																			1580005368.0	0.81	1.50
26/01/2020 02:22:49	26012020	260120	022249	4.830	12.418488	-57.629698	4.720	-0.210	0.370	-0.580	4.820	-1.000	-0.200																			1580005369.0	0.54	1.00
26/01/2020 02:22:50	26012020	260120	022250	4.740	12.418488	-57.629700	4.610	-0.320	0.150	-0.530	4.710	-1.100	-0.200																			1580005370.0	0.18	0.33
26/01/2020 02:22:51	26012020	260120	022251	4.610	12.418488	-57.629700	4.500	-0.380	-0.090	-0.420	4.590	-1.300	-0.100																			1580005371.0	0.05	0.09
26/01/2020 02:22:52	26012020	260120	022252	4.500	12.418488	-57.629700	4.480	-0.280	-0.330	-0.290	4.490	-1.600	0.000																			1580005372.0	0.06	0.11
26/01/2020 02:22:53	26012020	260120	022253	4.520	12.418488	-57.629700	4.620	-0.010	-0.570	-0.070	4.540	-1.800	0.200																			1580005373.0	0.03	0.06
26/01/2020 02:22:54	26012020	260120	022254	4.670	12.418488	-57.629700	4.830	0.330	-0.720	0.230	4.710	-2.000	0.400																			1580005374.0	0.08	0.15
26/01/2020 02:22:55	26012020	260120	022255	4.880	12.418488	-57.629698	4.990	0.500	-0.590	0.520	4.920	-2.100	0.700																			1580005375.0	0.34	0.63
26/01/2020 02:22:56	26012020	260120	022256	5.010	12.418490	-57.629695	4.960	0.380	-0.120	0.840	5.010	-1.800	1.000																			1580005376.0	0.54	1.00
26/01/2020 02:22:57	26012020	260120	022257	4.920	12.418488	-57.629693	4.720	0.110	0.420	1.170	4.880	-1.200	1.400																			1580005377.0	0.55	1.02
26/01/2020 02:22:58	26012020	260120	022258	4.660	12.418487	-57.629692	4.470	-0.090	0.540	1.240	4.600	-0.800	1.600																			1580005378.0	0.57	1.06
26/01/2020 02:22:59	26012020	260120	022259	4.430	12.418485	-57.629690	4.390	-0.120	0.230	0.900	4.410	-1.000	1.500	1015.40	25.40	25.50	21.10	21.00	-1.00	76.00	76.00	391.00	24.70	37.00	4.50	43.00	4.40	14	3345.00	27.40	27.40	1580005379.0	0.32	0.59
26/01/2020 02:23:00	26012020	260120	022300	4.400	12.418487	-57.629692	4.490	-0.060	-0.150	0.280	4.420	-1.400	1.000																			1580005380.0	0.34	0.63
26/01/2020 02:23:01	26012020	260120	022301	4.510	12.418488	-57.629695	4.700	0.040	-0.340	-0.390	4.540	-1.700	0.300																			1580005381.0	0.83	1.54
26/01/2020 02:23:02	26012020	260120	022302	4.780	12.418490	-57.629700	4.930	0.110	-0.340	-0.810	4.830	-1.700	-0.300																			1580005382.0	0.92	1.70
26/01/2020 02:23:03	26012020	260120	022303	4.970	12.418490	-57.629702	5.050	0.050	-0.190	-0.890	5.010	-1.700	-0.500																			1580005383.0	0.58	1.07
26/01/2020 02:23:04	26012020	260120	022304	5.090	12.418490	-57.629702	4.970	-0.170	0.040	-0.690	5.080	-1.400	-0.500																			1580005384.0	0.10	0.19
26/01/2020 02:23:05	26012020	260120	022305	5.020	12.418488	-57.629700	4.790	-0.410	0.170	-0.250	4.980	-1.200	-0.100																			1580005385.0	0.37	0.69
26/01/2020 02:23:06	26012020	260120	022306	4.770	12.418487	-57.629698	4.620	-0.430	0.090	0.250	4.730	-1.200	0.400																			1580005386.0	0.49	0.91
26/01/2020 02:23:07	26012020	260120	022307	4.610	12.418487	-57.629697	4.530	-0.200	-0.200	0.600	4.580	-1.400	0.800																			1580005387.0	0.50	0.93
26/01/2020 02:23:08	26012020	260120	022308	4.520	12.418487	-57.629695	4.450	0.120	-0.510	0.720	4.500	-1.700	1.000																			1580005388.0	0.47	0.87
26/01/2020 02:23:09	26012020	260120	022309	4.440	12.418488	-57.629693	4.380	0.340	-0.590	0.750	4.420	-2.000	1.100																			1580005389.0	0.35	0.65
26/01/2020 02:23:10	26012020	260120	022310	4.370	12.418490	-57.629695	4.370	0.420	-0.340	0.710	4.370	-1.900	1.100																			1580005390.0	0.31	0.57
26/01/2020 02:23:11	26012020	260120	022311	4.370	12.418490	-57.629695	4.490	0.380	0.000	0.540	4.390	-1.500	1.000																			1580005391.0	0.24	0.44
26/01/2020 02:23:12	26012020	260120	022312	4.530	12.418488	-57.629697	4.730	0.240	0.200	0.240	4.580	-1.200	0.700																			1580005392.0	0.28	0.52
26/01/2020 02:23:13	26012020	260120	022313	4.780	12.418488	-57.629697	4.910	0.010	0.290	0.050	4.820	-1.100	0.500																			1580005393.0	0.22	0.41
26/01/2020 02:23:14	26012020	260120	022314	4.920	12.418488	-57.629698	4.930	-0.200	0.280	0.050	4.930	-1.100	0.400																			1580005394.0	0.09	0.17
26/01/2020 02:23:15	26012020	260120	022315	4.930	12.418488	-57.629697	4.870	-0.280	0.040	0.080	4.920	-1.200	0.400																			1580005395.0	0.11	0.20
26/01/2020 02:23:16	26012020	260120	022316	4.860	12.418488	-57.629697	4.720	-0.200	-0.250	0.150	4.830	-1.500	0.500																			1580005396.0	0.24	0.44
26/01/2020 02:23:17	26012020	260120	022317	4.690	12.418488	-57.629695	4.540	-0.020	-0.370	0.280	4.650	-1.700	0.600																			1580005397.0	0.30	0.56
26/01/2020 02:23:18	26012020	260120	022318	4.510	12.418490	-57.629693	4.380	0.140	-0.350	0.410	4.480	-1.700	0.700																			1580005398.0	0.24	0.44
26/01/2020 02:23:19	26012020	260120	022319	4.350	12.418490	-57.629693	4.210	0.190	-0.280	0.380	4.310	-1.700	0.800																			1580005399.0	0.12	0.22
26/01/2020 02:23:20	26012020	260120	022320	4.200	12.418488	-57.629693	4.190	0.110	-0.220	0.070	4.180	-1.600	0.600																			1580005400.0	0.04	0.07
26/01/2020 02:23:21	26012020	260120	022321	4.210	12.418488	-57.629695	4.380	-0.050	-0.120	-0.380	4.250	-1.500	0.200																			1580005401.0	0.27	0.50
26/01/2020 02:23:22	26012020	260120	022322	4.450	12.418490	-57.629697	4.650	-0.180	0.080	-0.640	4.510	-1.400	-0.200																			1580005402.0	0.55	1.02
26/01/2020 02:23:23	26012020	260120	022323	4.700	12.418488	-57.629700	4.710	-0.230	0.260	-0.470	4.720	-1.200	-0.200																			1580005403.0	0.56	1.04
26/01/2020 02:23:24	26012020	260120	022324	4.720	12.418488	-57.629702	4.590	-0.150	0.200	-0.070	4.700	-1.100	0.100																			1580005404.0	0.26	0.48
26/01/2020 02:23:25	26012020	260120	022325	4.600	12.418488	-57.629700	4.460	0.010	-0.100	0.320	4.570	-1.300	0.500																			1580005405.0	0.31	0.57
26/01/2020 02:23:26	26012020	260120	022326	4.450	12.418488	-57.629697	4.460	0.110	-0.370	0.670	4.440	-1.600	0.900																			1580005406.0	0.58	1.07
26/01/2020 02:23:27	26012020	260120	022327	4.450	12.418488	-57.629693	4.610	0.140	-0.440	0.920	4.470	-1.800	1.200																			1580005407.0	0.64	1.19
26/01/2020 02:23:28	26012020	260120	022328	4.640	12.418490	-57.629692	4.770	0.130	-0.310	1.010	4.670	-1.800	1.300																			1580005408.0	0.48	0.89
26/01/2020 02:23:29	26012020	260120	022329	4.770	12.418488	-57.629690	4.760	0.110	-0.060	1.000	4.770	-1.600	1.400																			1580005409.0	0.29	0.54
26/01/2020 02:23:30	26012020	260120	022330	4.710	12.418488	-57.629690	4.550	0.040	0.150	0.910	4.680	-1.300	1.300																			1580005410.0	0.23	0.43
26/01/2020 02:23:31	26012020	260120	022331	4.500	12.418487	-57.629690	4.360	-0.010	0.110	0.710	4.460	-1.200	1.200																			1580005411.0	0.22	0.41
26/01/2020 02:23:32	26012020	260120	022332	4.330	12.418487	-57.629690	4.330	0.050	-0.150	0.370	4.320	-1.400	0.900																			1580005412.0	0.20	0.37
26/01/2020 02:23:33	26012020	260120	022333	4.350	12.418488	-57.629692	4.440	0.130	-0.400	-0.140	4.370	-1.700	0.500																			1580005413.0	0.32	0.59
26/01/2020 02:23:34	26012020	260120	022334	4.480	12.418490	-57.629693	4.530	0.090	-0.460	-0.710	4.500	-1.800	-0.100																			1580005414.0	0.45	0.83
26/01/2020 02:23:35	26012020	260120	022335	4.560	12.418492	-57.629697	4.500	-0.030	-0.250	-1.060	4.560	-1.800	-0.600																			1580005415.0	0.65	1.20
26/01/2020 02:23:36	26012020	260120	022336	4.520	12.418492	-57.629700	4.420	-0.060	0.100	-1.000	4.500	-1.400	-0.700																			1580005416.0	0.84	1.56
26/01/2020 02:23:37	26012020	260120	022337	4.430	12.418490	-57.629703	4.330	0.050	0.360	-0.510	4.410	-1.100	-0.400																			1580005417.0	0.60	1.11
26/01/2020 02:23:38	26012020	260120	022338	4.330	12.418490	-57.629702	4.280	0.100	0.370	0.130	4.320	-1.000	0.200																			1580005418.0	0.29	0.54
26/01/2020 02:23:39	26012020	260120	022339	4.290	12.418488	-57.629698	4.350	-0.100	0.160	0.550	4.290	-1.100	0.800																			1580005419.0	0.88	1.63
26/01/2020 02:23:40	26012020	260120	022340	4.370	12.418488	-57.629693	4.490	-0.430	-0.070	0.690	4.400	-1.300	1.000																			1580005420.0	0.91	1.69
26/01/2020 02:23:41	26012020	260120	022341	4.490	12.418488	-57.629692	4.570	-0.570	-0.220	0.780	4.510	-1.500	1.100																			1580005421.0	0.38	0.70
26/01/2020 02:23:42	26012020	260120	022342	4.570	12.418488	-57.629692	4.590	-0.350	-0.390	0.900	4.570	-1.700	1.200																			1580005422.0	0.05	0.09
26/01/2020 02:23:43	26012020	260120	022343	4.580	12.418488	-57.629692	4.590	0.110	-0.590	1.000	4.580	-1.900	1.300																			1580005423.0	0.07	0.13
26/01/2020 02:23:44	26012020	260120	022344	4.580	12.418488	-57.629692	4.560	0.520	-0.640	1.020	4.570	-2.000	1.400																			1580005424.0	0.15	0.28
26/01/2020 02:23:45	26012020	260120	022345	4.540	12.418490	-57.629690	4.480	0.640	-0.450	0.890	4.530	-1.900	1.300																			1580005425.0	0.30	0.56
26/01/2020 02:23:46	26012020	260120	022346	4.460	12.418490	-57.629688	4.350	0.440	-0.140	0.580	4.440	-1.700	1.100																			1580005426.0	0.24	0.44
26/01/2020 02:23:47	26012020	260120	022347	4.330	12.418490	-57.629690	4.200	0.070	0.200	0.170	4.300	-1.300	0.800																			1580005427.0	0.06	0.11
26/01/2020 02:23:48	26012020	260120	022348	4.190	12.418488	-57.629692	4.080	-0.240	0.440	-0.310	4.170	-1.000	0.300																			1580005428.0	0.47	0.87
26/01/2020 02:23:49	26012020	260120	022349	4.100	12.418488	-57.629695	4.060	-0.320	0.450	-0.730	4.090	-0.900	-0.200																			1580005429.0	0.82	1.52
26/01/2020 02:23:50	26012020	260120	022350	4.100	12.418488	-57.629700	4.210	-0.190	0.160	-1.000	4.130	-1.000	-0.500																			1580005430.0	0.86	1.59
26/01/2020 02:23:51	26012020	260120	022351	4.240	12.418490	-57.629702	4.450	-0.010	-0.240	-1.030	4.280	-1.400	-0.700																			1580005431.0	0.56	1.04
26/01/2020 02:23:52	26012020	260120	022352	4.520	12.418490	-57.629703	4.620	0.080	-0.420	-0.760	4.550	-1.800	-0.600																			1580005432.0	0.35	0.65
26/01/2020 02:23:53	26012020	260120	022353	4.650	12.418492	-57.629702	4.630	0.040	-0.290	-0.140	4.660	-1.800	-0.100																			1580005433.0	0.37	0.69
26/01/2020 02:23:54	26012020	260120	022354	4.610	12.418492	-57.629698	4.460	-0.060	-0.050	0.690	4.590	-1.500	0.600																			1580005434.0	0.73	1.35
26/01/2020 02:23:55	26012020	260120	022355	4.410	12.418490	-57.629693	4.240	-0.160	-0.010	1.340	4.360	-1.400	1.400																			1580005435.0	1.09	2.02
26/01/2020 02:23:56	26012020	260120	022356	4.200	12.418488	-57.629688	4.170	-0.180	-0.200	1.470	4.170	-1.500	1.800																			1580005436.0	0.99	1.83
26/01/2020 02:23:57	26012020	260120	022357	4.170	12.418488	-57.629687	4.300	-0.080	-0.340	1.220	4.190	-1.700	1.700																			1580005437.0	0.38	0.70
26/01/2020 02:23:58	26012020	260120	022358	4.320	12.418490	-57.629688	4.450	0.070	-0.220	0.920	4.360	-1.700	1.400																			1580005438.0	0.31	0.57
26/01/2020 02:23:59	26012020	260120	022359	4.470	12.418490	-57.629690	4.490	0.160	0.030	0.670	4.480	-1.500	1.200	1015.40	25.40	25.50	21.20	21.10	-1.00	77.00	76.00	391.00	24.70	34.00	4.00	40.00	3.90	14	3327.00	27.50	27.50	1580005439.0	0.38	0.70
26/01/2020 02:24:00	26012020	260120	022400	4.480	12.418488	-57.629690	4.380	0.150	0.090	0.370	4.470	-1.300	0.900																			1580005440.0	0.28	0.52
26/01/2020 02:24:01	26012020	260120	022401	4.370	12.418488	-57.629692	4.280	0.070	-0.130	-0.010	4.350	-1.400	0.600																			1580005441.0	0.23	0.43
26/01/2020 02:24:02	26012020	260120	022402	4.290	12.418488	-57.629693	4.290	0.030	-0.380	-0.440	4.290	-1.700	0.100																			1580005442.0	0.35	0.65
26/01/2020 02:24:03	26012020	260120	022403	4.330	12.418490	-57.629695	4.390	0.020	-0.320	-0.780	4.360	-1.800	-0.300																			1580005443.0	0.60	1.11
26/01/2020 02:24:04	26012020	260120	022404	4.430	12.418492	-57.629697	4.430	-0.060	0.090	-0.870	4.440	-1.500	-0.500																			1580005444.0	0.49	0.91
26/01/2020 02:24:05	26012020	260120	022405	4.450	12.418490	-57.629698	4.390	-0.150	0.460	-0.610	4.440	-1.100	-0.400																			1580005445.0	0.32	0.59
26/01/2020 02:24:06	26012020	260120	022406	4.400	12.418488	-57.629698	4.410	-0.150	0.250	-0.240	4.390	-0.900	-0.000																			1580005446.0	0.47	0.87
26/01/2020 02:24:07	26012020	260120	022407	4.430	12.418487	-57.629697	4.560	0.010	-0.440	0.050	4.450	-1.500	0.300																			1580005447.0	0.37	0.69
26/01/2020 02:24:08	26012020	260120	022408	4.590	12.418490	-57.629695	4.690	0.180	-0.820	0.370	4.610	-2.100	0.600																			1580005448.0	0.61	1.13
26/01/2020 02:24:09	26012020	260120	022409	4.710	12.418492	-57.629692	4.710	0.210	-0.440	0.890	4.710	-2.100	1.000																			1580005449.0	0.81	1.50
26/01/2020 02:24:10	26012020	260120	022410	4.680	12.418492	-57.629688	4.580	0.070	0.270	1.450	4.660	-1.400	1.600																			1580005450.0	0.72	1.33
26/01/2020 02:24:11	26012020	260120	022411	4.530	12.418488	-57.629685	4.410	-0.090	0.550	1.660	4.490	-0.900	2.000																			1580005451.0	1.03	1.91
26/01/2020 02:24:12	26012020	260120	022412	4.350	12.418487	-57.629683	4.260	-0.130	0.140	1.320	4.320	-1.000	1.900																			1580005452.0	0.80	1.48
26/01/2020 02:24:13	26012020	260120	022413	4.230	12.418487	-57.629683	4.230	-0.030	-0.490	0.630	4.220	-1.600	1.400																			1580005453.0	0.15	0.28
26/01/2020 02:24:14	26012020	260120	022414	4.250	12.418490	-57.629687	4.410	0.130	-0.780	-0.190	4.280	-2.100	0.600																			1580005454.0	1.02	1.89
26/01/2020 02:24:15	26012020	260120	022415	4.420	12.418492	-57.629692	4.690	0.200	-0.540	-0.900	4.470	-2.100	-0.200																			1580005455.0	1.24	2.30
26/01/2020 02:24:16	26012020	260120	022416	4.770	12.418493	-57.629697	4.900	0.120	0.000	-1.180	4.820	-1.700	-0.700																			1580005456.0	0.99	1.83
26/01/2020 02:24:17	26012020	260120	022417	4.940	12.418492	-57.629700	4.940	-0.040	0.480	-0.920	4.970	-1.100	-0.700																			1580005457.0	0.59	1.09
26/01/2020 02:24:18	26012020	260120	022418	4.970	12.418490	-57.629698	4.820	-0.230	0.610	-0.330	4.940	-0.800	-0.300																			1580005458.0	0.46	0.85
26/01/2020 02:24:19	26012020	260120	022419	4.810	12.418488	-57.629695	4.630	-0.410	0.380	0.200	4.780	-0.900	0.300																			1580005459.0	0.90	1.67
26/01/2020 02:24:20	26012020	260120	022420	4.610	12.418488	-57.629690	4.450	-0.530	-0.020	0.540	4.570	-1.200	0.800																			1580005460.0	1.00	1.85
26/01/2020 02:24:21	26012020	260120	022421	4.430	12.418488	-57.629687	4.390	-0.440	-0.400	0.730	4.410	-1.600	1.000																			1580005461.0	0.57	1.06
26/01/2020 02:24:22	26012020	260120	022422	4.400	12.418488	-57.629687	4.530	-0.080	-0.750	0.820	4.420	-2.000	1.200																			1580005462.0	0.11	0.20
26/01/2020 02:24:23	26012020	260120	022423	4.560	12.418490	-57.629688	4.750	0.430	-0.940	0.800	4.610	-2.300	1.200																			1580005463.0	0.35	0.65
26/01/2020 02:24:24	26012020	260120	022424	4.780	12.418492	-57.629690	4.850	0.810	-0.790	0.770	4.810	-2.300	1.200																			1580005464.0	0.38	0.70
26/01/2020 02:24:25	26012020	260120	022425	4.850	12.418492	-57.629690	4.790	0.770	-0.330	0.700	4.850	-2.000	1.100																			1580005465.0	0.23	0.43
26/01/2020 02:24:26	26012020	260120	022426	4.770	12.418492	-57.629688	4.690	0.360	0.280	0.570	4.750	-1.400	1.000																			1580005466.0	0.25	0.46
26/01/2020 02:24:27	26012020	260120	022427	4.670	12.418490	-57.629688	4.620	-0.090	0.740	0.450	4.660	-0.800	0.900																			1580005467.0	0.28	0.52
26/01/2020 02:24:28	26012020	260120	022428	4.610	12.418488	-57.629688	4.550	-0.350	0.860	0.360	4.600	-0.500	0.800																			1580005468.0	0.36	0.67
26/01/2020 02:24:29	26012020	260120	022429	4.550	12.418488	-57.629690	4.530	-0.410	0.540	0.080	4.540	-0.600	0.600																			1580005469.0	0.23	0.43
26/01/2020 02:24:30	26012020	260120	022430	4.540	12.418488	-57.629690	4.580	-0.390	-0.080	-0.430	4.550	-1.100	0.200																			1580005470.0	0.17	0.31
26/01/2020 02:24:31	26012020	260120	022431	4.600	12.418490	-57.629692	4.650	-0.330	-0.640	-0.870	4.620	-1.800	-0.300																			1580005471.0	0.57	1.06
26/01/2020 02:24:32	26012020	260120	022432	4.700	12.418492	-57.629695	4.710	-0.180	-0.830	-0.920	4.710	-2.200	-0.600																			1580005472.0	0.77	1.43
26/01/2020 02:24:33	26012020	260120	022433	4.740	12.418493	-57.629697	4.670	0.000	-0.560	-0.530	4.740	-2.100	-0.400																			1580005473.0	0.41	0.76
26/01/2020 02:24:34	26012020	260120	022434	4.660	12.418492	-57.629695	4.480	0.100	-0.090	0.080	4.630	-1.700	0.200																			1580005474.0	0.33	0.61
26/01/2020 02:24:35	26012020	260120	022435	4.440	12.418490	-57.629692	4.290	0.100	0.110	0.500	4.400	-1.300	0.700																			1580005475.0	0.90	1.67
26/01/2020 02:24:36	26012020	260120	022436	4.270	12.418488	-57.629688	4.230	0.060	-0.050	0.620	4.250	-1.300	1.000																			1580005476.0	0.78	1.44
26/01/2020 02:24:37	26012020	260120	022437	4.230	12.418488	-57.629688	4.270	0.070	-0.230	0.600	4.240	-1.500	1.000																			1580005477.0	0.22	0.41
26/01/2020 02:24:38	26012020	260120	022438	4.280	12.418490	-57.629688	4.320	0.080	-0.160	0.530	4.300	-1.600	0.900																			1580005478.0	0.34	0.63
26/01/2020 02:24:39	26012020	260120	022439	4.330	12.418490	-57.629690	4.310	0.070	0.080	0.500	4.330	-1.400	0.900																			1580005479.0	0.29	0.54
26/01/2020 02:24:40	26012020	260120	022440	4.300	12.418490	-57.629690	4.270	0.060	0.130	0.440	4.290	-1.200	0.900																			1580005480.0	0.24	0.44
26/01/2020 02:24:41	26012020	260120	022441	4.270	12.418488	-57.629692	4.360	0.100	-0.160	0.250	4.270	-1.400	0.700																			1580005481.0	0.23	0.43
26/01/2020 02:24:42	26012020	260120	022442	4.390	12.418490	-57.629692	4.500	0.190	-0.400	0.110	4.430	-1.700	0.500																			1580005482.0	0.16	0.30
26/01/2020 02:24:43	26012020	260120	022443	4.530	12.418492	-57.629692	4.460	0.180	-0.210	0.160	4.530	-1.700	0.500																			1580005483.0	0.38	0.70
26/01/2020 02:24:44	26012020	260120	022444	4.440	12.418492	-57.629690	4.180	-0.000	0.180	0.340	4.390	-1.400	0.600																			1580005484.0	0.28	0.52
26/01/2020 02:24:45	26012020	260120	022445	4.140	12.418490	-57.629688	3.870	-0.200	0.290	0.450	4.070	-1.100	0.800																			1580005485.0	0.53	0.98
26/01/2020 02:24:46	26012020	260120	022446	3.850	12.418488	-57.629687	3.780	-0.210	-0.080	0.210	3.820	-1.200	0.700																			1580005486.0	0.44	0.81
26/01/2020 02:24:47	26012020	260120	022447	3.820	12.418488	-57.629688	3.890	-0.030	-0.510	-0.200	3.830	-1.700	0.400																			1580005487.0	0.21	0.39
26/01/2020 02:24:48	26012020	260120	022448	3.930	12.418490	-57.629690	3.980	0.100	-0.520	-0.500	3.960	-2.000	-0.000																			1580005488.0	0.72	1.33
26/01/2020 02:24:49	26012020	260120	022449	4.030	12.418492	-57.629693	3.990	0.020	-0.130	-0.550	4.040	-1.700	-0.200																			1580005489.0	0.61	1.13
26/01/2020 02:24:50	26012020	260120	022450	4.030	12.418492	-57.629695	3.930	-0.160	0.280	-0.360	4.010	-1.300	-0.100																			1580005490.0	0.40	0.74
26/01/2020 02:24:51	26012020	260120	022451	3.960	12.418490	-57.629695	3.890	-0.260	0.370	-0.060	3.940	-1.000	0.200																			1580005491.0	0.46	0.85
26/01/2020 02:24:52	26012020	260120	022452	3.920	12.418488	-57.629693	3.840	-0.210	0.200	0.310	3.910	-1.100	0.500																			1580005492.0	0.42	0.78
26/01/2020 02:24:53	26012020	260120	022453	3.850	12.418488	-57.629692	3.700	-0.090	-0.010	0.750	3.820	-1.300	0.900																			1580005493.0	0.47	0.87
26/01/2020 02:24:54	26012020	260120	022454	3.690	12.418488	-57.629688	3.610	0.010	-0.270	0.980	3.660	-1.500	1.300																			1580005494.0	0.63	1.17
26/01/2020 02:24:55	26012020	260120	022455	3.630	12.418488	-57.629687	3.680	0.130	-0.590	0.900	3.630	-1.800	1.300																			1580005495.0	0.52	0.96
26/01/2020 02:24:56	26012020	260120	022456	3.730	12.418488	-57.629687	3.850	0.290	-0.810	0.650	3.760	-2.100	1.100																			1580005496.0	0.17	0.31
26/01/2020 02:24:57	26012020	260120	022457	3.890	12.418490	-57.629687	3.880	0.420	-0.630	0.490	3.910	-2.200	0.900																			1580005497.0	0.34	0.63
26/01/2020 02:24:58	26012020	260120	022458	3.890	12.418490	-57.629688	3.690	0.410	-0.120	0.430	3.860	-1.800	0.800																			1580005498.0	0.28	0.52
26/01/2020 02:24:59	26012020	260120	022459	3.680	12.418490	-57.629688	3.480	0.240	0.360	0.330	3.630	-1.200	0.800	1015.40	25.50	25.60	21.40	21.30	-1.00	78.00	77.00	391.00	24.70	35.00	4.40	41.00	4.30	14	3380.00	27.50	27.40	1580005499.0	0.16	0.30
26/01/2020 02:25:00	26012020	260120	022500	3.490	12.418488	-57.629688	3.420	0.010	0.520	0.060	3.470	-0.900	0.600																			1580005500.0	0.35	0.65
26/01/2020 02:25:01	26012020	260120	022501	3.460	12.418488	-57.629688	3.430	-0.220	0.430	-0.220	3.470	-0.900	0.300																			1580005501.0	0.24	0.44
26/01/2020 02:25:02	26012020	260120	022502	3.490	12.418488	-57.629690	3.440	-0.420	0.230	-0.440	3.490	-1.000	0.000																			1580005502.0	0.30	0.56
26/01/2020 02:25:03	26012020	260120	022503	3.510	12.418488	-57.629692	3.490	-0.490	-0.020	-0.560	3.520	-1.300	-0.100																			1580005503.0	0.38	0.70
26/01/2020 02:25:04	26012020	260120	022504	3.570	12.418488	-57.629693	3.590	-0.370	-0.250	-0.570	3.580	-1.500	-0.200																			1580005504.0	0.39	0.72
26/01/2020 02:25:05	26012020	260120	022505	3.650	12.418488	-57.629695	3.650	-0.100	-0.440	-0.370	3.660	-1.700	-0.100																			1580005505.0	0.18	0.33
26/01/2020 02:25:06	26012020	260120	022506	3.690	12.418488	-57.629693	3.560	0.160	-0.550	0.100	3.670	-1.900	0.200																			1580005506.0	0.17	0.31
26/01/2020 02:25:07	26012020	260120	022507	3.600	12.418488	-57.629692	3.430	0.280	-0.560	0.660	3.580	-2.000	0.800																			1580005507.0	0.52	0.96
26/01/2020 02:25:08	26012020	260120	022508	3.460	12.418488	-57.629688	3.370	0.280	-0.380	1.040	3.440	-1.900	1.300																			1580005508.0	0.66	1.22
26/01/2020 02:25:09	26012020	260120	022509	3.400	12.418488	-57.629687	3.360	0.240	-0.040	1.180	3.390	-1.600	1.500																			1580005509.0	0.54	1.00
26/01/2020 02:25:10	26012020	260120	022510	3.390	12.418488	-57.629685	3.370	0.160	0.270	1.140	3.390	-1.300	1.500																			1580005510.0	0.34	0.63
26/01/2020 02:25:11	26012020	260120	022511	3.390	12.418487	-57.629683	3.380	0.010	0.330	0.880	3.400	-1.100	1.400																			1580005511.0	0.25	0.46
26/01/2020 02:25:12	26012020	260120	022512	3.430	12.418487	-57.629683	3.420	-0.180	0.180	0.420	3.440	-1.100	1.000																			1580005512.0	0.12	0.22
26/01/2020 02:25:13	26012020	260120	022513	3.480	12.418487	-57.629687	3.440	-0.320	0.020	-0.130	3.490	-1.300	0.500																			1580005513.0	0.39	0.72
26/01/2020 02:25:14	26012020	260120	022514	3.520	12.418487	-57.629688	3.440	-0.290	-0.110	-0.540	3.520	-1.400	0.000																			1580005514.0	0.63	1.17
26/01/2020 02:25:15	26012020	260120	022515	3.510	12.418488	-57.629692	3.430	-0.070	-0.280	-0.670	3.510	-1.600	-0.300																			1580005515.0	0.63	1.17
26/01/2020 02:25:16	26012020	260120	022516	3.510	12.418488	-57.629693	3.450	0.230	-0.490	-0.620	3.510	-1.800	-0.300																			1580005516.0	0.37	0.69
26/01/2020 02:25:17	26012020	260120	022517	3.530	12.418488	-57.629693	3.450	0.410	-0.520	-0.420	3.530	-1.900	-0.200																			1580005517.0	0.18	0.33
26/01/2020 02:25:18	26012020	260120	022518	3.520	12.418490	-57.629692	3.440	0.270	-0.290	-0.150	3.520	-1.800	0.100																			1580005518.0	0.39	0.72
26/01/2020 02:25:19	26012020	260120	022519	3.500	12.418490	-57.629690	3.420	-0.110	0.110	0.110	3.490	-1.500	0.400																			1580005519.0	0.54	1.00
26/01/2020 02:25:20	26012020	260120	022520	3.460	12.418488	-57.629688	3.420	-0.420	0.420	0.360	3.460	-1.100	0.600																			1580005520.0	0.42	0.78
26/01/2020 02:25:21	26012020	260120	022521	3.470	12.418487	-57.629688	3.440	-0.370	0.430	0.620	3.470	-0.900	0.900																			1580005521.0	0.36	0.67
26/01/2020 02:25:22	26012020	260120	022522	3.480	12.418485	-57.629688	3.440	-0.050	0.130	0.870	3.480	-1.100	1.100																			1580005522.0	0.19	0.35
26/01/2020 02:25:23	26012020	260120	022523	3.480	12.418485	-57.629687	3.450	0.260	-0.330	0.960	3.480	-1.500	1.300																			1580005523.0	0.21	0.39
26/01/2020 02:25:24	26012020	260120	022524	3.490	12.418487	-57.629685	3.480	0.300	-0.650	0.810	3.490	-1.900	1.300																			1580005524.0	0.46	0.85
26/01/2020 02:25:25	26012020	260120	022525	3.540	12.418488	-57.629683	3.580	0.120	-0.600	0.530	3.570	-2.100	1.000																			1580005525.0	0.40	0.74
26/01/2020 02:25:26	26012020	260120	022526	3.650	12.418488	-57.629685	3.640	-0.080	-0.230	0.350	3.660	-1.800	0.800																			1580005526.0	0.13	0.24
26/01/2020 02:25:27	26012020	260120	022527	3.690	12.418488	-57.629685	3.610	-0.140	0.100	0.230	3.690	-1.400	0.700																			1580005527.0	0.33	0.61
26/01/2020 02:25:28	26012020	260120	022528	3.660	12.418487	-57.629687	3.550	-0.050	0.180	0.050	3.650	-1.200	0.500																			1580005528.0	0.40	0.74
26/01/2020 02:25:29	26012020	260120	022529	3.590	12.418487	-57.629688	3.450	0.040	0.150	-0.140	3.570	-1.200	0.300																			1580005529.0	0.28	0.52
26/01/2020 02:25:30	26012020	260120	022530	3.500	12.418487	-57.629688	3.430	0.010	0.100	-0.240	3.490	-1.300	0.200																			1580005530.0	0.23	0.43
26/01/2020 02:25:31	26012020	260120	022531	3.490	12.418487	-57.629690	3.560	-0.090	-0.040	-0.310	3.500	-1.400	0.100																			1580005531.0	0.09	0.17
26/01/2020 02:25:32	26012020	260120	022532	3.640	12.418487	-57.629690	3.710	-0.150	-0.200	-0.300	3.670	-1.500	0.000																			1580005532.0	0.03	0.06
26/01/2020 02:25:33	26012020	260120	022533	3.780	12.418488	-57.629690	3.780	-0.090	-0.310	-0.140	3.800	-1.600	0.100																			1580005533.0	0.07	0.13
26/01/2020 02:25:34	26012020	260120	022534	3.820	12.418488	-57.629690	3.740	0.070	-0.320	0.180	3.810	-1.700	0.400																			1580005534.0	0.11	0.20
26/01/2020 02:25:35	26012020	260120	022535	3.760	12.418488	-57.629688	3.640	0.210	-0.210	0.590	3.740	-1.700	0.800																			1580005535.0	0.24	0.44
26/01/2020 02:25:36	26012020	260120	022536	3.650	12.418488	-57.629687	3.560	0.240	-0.070	0.910	3.630	-1.500	1.200																			1580005536.0	0.41	0.76
26/01/2020 02:25:37	26012020	260120	022537	3.590	12.418487	-57.629683	3.580	0.130	-0.050	0.910	3.590	-1.400	1.300																			1580005537.0	0.57	1.06
26/01/2020 02:25:38	26012020	260120	022538	3.610	12.418487	-57.629682	3.600	-0.070	-0.080	0.770	3.620	-1.500	1.200																			1580005538.0	0.35	0.65
26/01/2020 02:25:39	26012020	260120	022539	3.640	12.418487	-57.629682	3.640	-0.250	-0.020	0.560	3.640	-1.400	1.000																			1580005539.0	0.14	0.26
26/01/2020 02:25:40	26012020	260120	022540	3.700	12.418488	-57.629685	3.800	-0.270	0.030	0.170	3.730	-1.400	0.700																			1580005540.0	0.40	0.74
26/01/2020 02:25:41	26012020	260120	022541	3.890	12.418487	-57.629687	3.960	-0.100	0.040	-0.150	3.930	-1.400	0.300																			1580005541.0	0.57	1.06
26/01/2020 02:25:42	26012020	260120	022542	4.030	12.418487	-57.629688	3.920	0.100	-0.010	-0.130	4.030	-1.400	0.200																			1580005542.0	0.46	0.85
26/01/2020 02:25:43	26012020	260120	022543	3.940	12.418487	-57.629688	3.740	0.150	-0.160	0.080	3.900	-1.500	0.400																			1580005543.0	0.07	0.13
26/01/2020 02:25:44	26012020	260120	022544	3.750	12.418487	-57.629687	3.650	0.090	-0.370	0.150	3.720	-1.700	0.500																			1580005544.0	0.40	0.74
26/01/2020 02:25:45	26012020	260120	022545	3.700	12.418488	-57.629687	3.770	0.080	-0.510	0.060	3.710	-1.900	0.500																			1580005545.0	0.26	0.48
26/01/2020 02:25:46	26012020	260120	022546	3.850	12.418488	-57.629687	3.920	0.140	-0.400	0.030	3.880	-1.900	0.400																			1580005546.0	0.24	0.44
26/01/2020 02:25:47	26012020	260120	022547	3.980	12.418490	-57.629687	3.910	0.140	-0.020	0.180	3.990	-1.600	0.500																			1580005547.0	0.23	0.43
26/01/2020 02:25:48	26012020	260120	022548	3.930	12.418488	-57.629687	3.750	-0.010	0.410	0.370	3.900	-1.200	0.700																			1580005548.0	0.11	0.20
26/01/2020 02:25:49	26012020	260120	022549	3.760	12.418487	-57.629687	3.660	-0.180	0.520	0.480	3.730	-0.900	0.800																			1580005549.0	0.40	0.74
26/01/2020 02:25:50	26012020	260120	022550	3.700	12.418485	-57.629685	3.780	-0.210	0.210	0.440	3.720	-1.000	0.800																			1580005550.0	0.38	0.70
26/01/2020 02:25:51	26012020	260120	022551	3.830	12.418485	-57.629685	3.930	-0.140	-0.210	0.360	3.870	-1.400	0.800																			1580005551.0	0.12	0.22
26/01/2020 02:25:52	26012020	260120	022552	3.970	12.418487	-57.629685	3.960	-0.060	-0.480	0.230	3.980	-1.800	0.700																			1580005552.0	0.27	0.50
26/01/2020 02:25:53	26012020	260120	022553	3.990	12.418488	-57.629685	3.940	0.030	-0.530	0.080	3.990	-1.900	0.500																			1580005553.0	0.23	0.43
26/01/2020 02:25:54	26012020	260120	022554	3.960	12.418488	-57.629687	3.830	0.120	-0.420	0.090	3.940	-1.900	0.400																			1580005554.0	0.23	0.43
26/01/2020 02:25:55	26012020	260120	022555	3.830	12.418488	-57.629687	3.640	0.170	-0.220	0.300	3.800	-1.700	0.600																			1580005555.0	0.19	0.35
26/01/2020 02:25:56	26012020	260120	022556	3.640	12.418487	-57.629687	3.550	0.130	-0.050	0.410	3.600	-1.500	0.800																			1580005556.0	0.11	0.20
26/01/2020 02:25:57	26012020	260120	022557	3.580	12.418487	-57.629685	3.700	0.020	-0.010	0.170	3.610	-1.400	0.700																			1580005557.0	0.20	0.37
26/01/2020 02:25:58	26012020	260120	022558	3.800	12.418487	-57.629687	3.980	-0.080	0.010	-0.180	3.860	-1.400	0.300																			1580005558.0	0.08	0.15
26/01/2020 02:25:59	26012020	260120	022559	4.070	12.418487	-57.629688	4.100	-0.120	0.120	-0.230	4.100	-1.300	0.100	1015.40	25.50	25.60	21.30	21.20	-1.00	77.00	77.00	391.00	24.70	36.00	5.00	40.00	4.90	14	3451.00	27.40	27.40	1580005559.0	0.38	0.70
26/01/2020 02:26:00	26012020	260120	022600	4.140	12.418488	-57.629688	3.960	-0.140	0.270	0.050	4.120	-1.200	0.300																			1580005560.0	0.22	0.41
26/01/2020 02:26:01	26012020	260120	022601	3.970	12.418487	-57.629688	3.740	-0.150	0.240	0.390	3.920	-1.100	0.600																			1580005561.0	0.27	0.50
26/01/2020 02:26:02	26012020	260120	022602	3.740	12.418485	-57.629687	3.630	-0.050	-0.110	0.540	3.710	-1.300	0.900																			1580005562.0	0.46	0.85
26/01/2020 02:26:03	26012020	260120	022603	3.670	12.418485	-57.629685	3.670	0.210	-0.560	0.570	3.690	-1.700	0.900																			1580005563.0	0.25	0.46
26/01/2020 02:26:04	26012020	260120	022604	3.730	12.418487	-57.629685	3.690	0.390	-0.690	0.570	3.740	-2.100	0.900																			1580005564.0	0.38	0.70
26/01/2020 02:26:05	26012020	260120	022605	3.720	12.418488	-57.629683	3.590	0.240	-0.340	0.470	3.710	-1.900	0.900																			1580005565.0	0.41	0.76
26/01/2020 02:26:06	26012020	260120	022606	3.610	12.418488	-57.629683	3.470	-0.160	0.200	0.200	3.580	-1.400	0.700																			1580005566.0	0.07	0.13
26/01/2020 02:26:07	26012020	260120	022607	3.500	12.418487	-57.629685	3.460	-0.460	0.440	-0.140	3.490	-1.000	0.400																			1580005567.0	0.64	1.19
26/01/2020 02:26:08	26012020	260120	022608	3.520	12.418485	-57.629688	3.550	-0.370	0.220	-0.350	3.530	-1.000	0.100																			1580005568.0	0.90	1.67
26/01/2020 02:26:09	26012020	260120	022609	3.600	12.418483	-57.629692	3.690	0.000	-0.220	-0.380	3.630	-1.400	-0.000																			1580005569.0	0.69	1.28
26/01/2020 02:26:10	26012020	260120	022610	3.770	12.418485	-57.629693	3.810	0.290	-0.550	-0.250	3.800	-1.800	0.000																			1580005570.0	0.34	0.63
26/01/2020 02:26:11	26012020	260120	022611	3.880	12.418487	-57.629690	3.830	0.260	-0.510	0.050	3.890	-2.000	0.300																			1580005571.0	0.56	1.04
26/01/2020 02:26:12	26012020	260120	022612	3.860	12.418488	-57.629688	3.700	-0.010	-0.140	0.390	3.830	-1.700	0.600																			1580005572.0	0.65	1.20
26/01/2020 02:26:13	26012020	260120	022613	3.690	12.418487	-57.629685	3.500	-0.230	0.260	0.660	3.650	-1.300	0.900																			1580005573.0	0.58	1.07
26/01/2020 02:26:14	26012020	260120	022614	3.490	12.418485	-57.629683	3.310	-0.190	0.390	0.830	3.440	-1.000	1.100																			1580005574.0	0.50	0.93
26/01/2020 02:26:15	26012020	260120	022615	3.300	12.418483	-57.629683	3.200	0.020	0.110	0.820	3.270	-1.100	1.200																			1580005575.0	0.31	0.57
26/01/2020 02:26:16	26012020	260120	022616	3.220	12.418483	-57.629683	3.230	0.210	-0.400	0.530	3.220	-1.500	1.100																			1580005576.0	0.05	0.09
26/01/2020 02:26:17	26012020	260120	022617	3.280	12.418485	-57.629685	3.350	0.210	-0.660	0.060	3.310	-2.000	0.700																			1580005577.0	0.48	0.89
26/01/2020 02:26:18	26012020	260120	022618	3.420	12.418488	-57.629687	3.410	0.040	-0.400	-0.290	3.440	-2.000	0.200																			1580005578.0	0.65	1.20
26/01/2020 02:26:19	26012020	260120	022619	3.460	12.418488	-57.629690	3.340	-0.120	0.120	-0.380	3.450	-1.500	0.000																			1580005579.0	0.54	1.00
26/01/2020 02:26:20	26012020	260120	022620	3.370	12.418485	-57.629692	3.220	-0.120	0.370	-0.320	3.340	-1.100	0.000																			1580005580.0	0.59	1.09
26/01/2020 02:26:21	26012020	260120	022621	3.270	12.418483	-57.629693	3.220	-0.010	0.190	-0.200	3.260	-1.100	0.100																			1580005581.0	0.45	0.83
26/01/2020 02:26:22	26012020	260120	022622	3.280	12.418483	-57.629692	3.340	0.010	-0.090	-0.040	3.300	-1.400	0.300																			1580005582.0	0.10	0.19
26/01/2020 02:26:23	26012020	260120	022623	3.400	12.418485	-57.629692	3.460	-0.090	-0.160	0.110	3.430	-1.500	0.400																			1580005583.0	0.33	0.61
26/01/2020 02:26:24	26012020	260120	022624	3.530	12.418485	-57.629690	3.560	-0.180	-0.110	0.230	3.550	-1.500	0.500																			1580005584.0	0.24	0.44
26/01/2020 02:26:25	26012020	260120	022625	3.610	12.418485	-57.629688	3.570	-0.140	-0.140	0.510	3.620	-1.500	0.700																			1580005585.0	0.31	0.57
26/01/2020 02:26:26	26012020	260120	022626	3.590	12.418483	-57.629687	3.440	-0.030	-0.210	0.890	3.570	-1.500	1.100																			1580005586.0	0.43	0.80
26/01/2020 02:26:27	26012020	260120	022627	3.440	12.418483	-57.629685	3.290	0.080	-0.350	1.060	3.410	-1.700	1.400																			1580005587.0	0.54	1.00
26/01/2020 02:26:28	26012020	260120	022628	3.300	12.418483	-57.629683	3.180	0.180	-0.440	0.890	3.270	-1.800	1.400																			1580005588.0	0.38	0.70
26/01/2020 02:26:29	26012020	260120	022629	3.210	12.418485	-57.629683	3.120	0.270	-0.330	0.590	3.190	-1.800	1.100																			1580005589.0	0.21	0.39
26/01/2020 02:26:30	26012020	260120	022630	3.160	12.418485	-57.629685	3.140	0.330	-0.090	0.240	3.160	-1.600	0.800																			1580005590.0	0.48	0.89
26/01/2020 02:26:31	26012020	260120	022631	3.210	12.418485	-57.629688	3.290	0.280	0.080	-0.150	3.240	-1.400	0.400																			1580005591.0	0.55	1.02
26/01/2020 02:26:32	26012020	260120	022632	3.380	12.418485	-57.629690	3.460	0.090	0.180	-0.510	3.420	-1.200	0.000																			1580005592.0	0.53	0.98
26/01/2020 02:26:33	26012020	260120	022633	3.540	12.418485	-57.629693	3.510	-0.220	0.320	-0.660	3.550	-1.100	-0.300																			1580005593.0	0.42	0.78
26/01/2020 02:26:34	26012020	260120	022634	3.580	12.418485	-57.629693	3.490	-0.470	0.380	-0.520	3.580	-1.000	-0.200																			1580005594.0	0.26	0.48
26/01/2020 02:26:35	26012020	260120	022635	3.550	12.418483	-57.629693	3.530	-0.500	0.180	-0.200	3.550	-1.100	0.000																			1580005595.0	0.23	0.43
26/01/2020 02:26:36	26012020	260120	022636	3.590	12.418483	-57.629693	3.600	-0.320	-0.220	0.160	3.600	-1.400	0.400																			1580005596.0	0.25	0.46
26/01/2020 02:26:37	26012020	260120	022637	3.660	12.418483	-57.629692	3.600	-0.080	-0.510	0.530	3.660	-1.800	0.700																			1580005597.0	0.42	0.78
26/01/2020 02:26:38	26012020	260120	022638	3.630	12.418483	-57.629688	3.460	0.080	-0.520	0.910	3.600	-1.900	1.100																			1580005598.0	0.55	1.02
26/01/2020 02:26:39	26012020	260120	022639	3.480	12.418483	-57.629687	3.370	0.210	-0.420	1.140	3.450	-1.800	1.400																			1580005599.0	0.51	0.94
26/01/2020 02:26:40	26012020	260120	022640	3.410	12.418483	-57.629685	3.460	0.370	-0.420	1.030	3.430	-1.800	1.500																			1580005600.0	0.42	0.78
26/01/2020 02:26:41	26012020	260120	022641	3.540	12.418483	-57.629683	3.580	0.480	-0.430	0.740	3.580	-1.800	1.300																			1580005601.0	0.14	0.26
26/01/2020 02:26:42	26012020	260120	022642	3.650	12.418483	-57.629685	3.530	0.420	-0.230	0.460	3.650	-1.700	1.000																			1580005602.0	0.28	0.52
26/01/2020 02:26:43	26012020	260120	022643	3.580	12.418485	-57.629687	3.380	0.210	0.220	0.210	3.550	-1.400	0.700																			1580005603.0	0.45	0.83
26/01/2020 02:26:44	26012020	260120	022644	3.430	12.418485	-57.629688	3.340	-0.060	0.580	-0.130	3.410	-0.900	0.400																			1580005604.0	0.48	0.89
26/01/2020 02:26:45	26012020	260120	022645	3.420	12.418483	-57.629690	3.490	-0.310	0.590	-0.550	3.440	-0.800	0.000																			1580005605.0	0.50	0.93
26/01/2020 02:26:46	26012020	260120	022646	3.590	12.418483	-57.629692	3.680	-0.520	0.320	-0.830	3.630	-0.900	-0.400																			1580005606.0	0.42	0.78
26/01/2020 02:26:47	26012020	260120	022647	3.740	12.418483	-57.629693	3.770	-0.610	0.020	-0.820	3.760	-1.200	-0.500																			1580005607.0	0.38	0.70
26/01/2020 02:26:48	26012020	260120	022648	3.820	12.418483	-57.629695	3.770	-0.470	-0.250	-0.490	3.820	-1.500	-0.300																			1580005608.0	0.28	0.52
26/01/2020 02:26:49	26012020	260120	022649	3.810	12.418483	-57.629695	3.760	-0.080	-0.610	0.010	3.810	-1.800	0.100																			1580005609.0	0.03	0.06
26/01/2020 02:26:50	26012020	260120	022650	3.780	12.418483	-57.629693	3.720	0.320	-0.920	0.530	3.780	-2.200	0.600																			1580005610.0	0.48	0.89
26/01/2020 02:26:51	26012020	260120	022651	3.720	12.418485	-57.629688	3.610	0.480	-0.840	0.970	3.700	-2.300	1.100																			1580005611.0	0.84	1.56
26/01/2020 02:26:52	26012020	260120	022652	3.600	12.418485	-57.629685	3.520	0.350	-0.330	1.300	3.580	-2.000	1.500																			1580005612.0	0.84	1.56
26/01/2020 02:26:53	26012020	260120	022653	3.510	12.418485	-57.629683	3.470	0.160	0.220	1.350	3.500	-1.400	1.700																			1580005613.0	0.55	1.02
26/01/2020 02:26:54	26012020	260120	022654	3.470	12.418483	-57.629682	3.410	0.110	0.530	1.180	3.470	-1.000	1.700																			1580005614.0	0.36	0.67
26/01/2020 02:26:55	26012020	260120	022655	3.420	12.418482	-57.629683	3.370	0.150	0.510	0.750	3.410	-0.800	1.400																			1580005615.0	0.32	0.59
26/01/2020 02:26:56	26012020	260120	022656	3.420	12.418482	-57.629685	3.440	0.050	0.230	0.020	3.430	-1.000	0.800																			1580005616.0	0.38	0.70
26/01/2020 02:26:57	26012020	260120	022657	3.530	12.418483	-57.629688	3.580	-0.250	-0.020	-0.770	3.560	-1.300	-0.000																			1580005617.0	0.63	1.17
26/01/2020 02:26:58	26012020	260120	022658	3.660	12.418485	-57.629692	3.680	-0.520	-0.090	-1.230	3.690	-1.400	-0.700																			1580005618.0	0.94	1.74
26/01/2020 02:26:59	26012020	260120	022659	3.740	12.418485	-57.629697	3.770	-0.460	-0.220	-1.240	3.760	-1.500	-0.900	1015.40	25.50	25.60	21.30	21.30	-1.00	77.00	77.00	391.00	24.70	37.00	4.90	41.00	4.80	14	3410.00	27.40	27.40	1580005619.0	0.92	1.70
26/01/2020 02:27:00	26012020	260120	022700	3.860	12.418483	-57.629698	3.890	-0.050	-0.540	-0.910	3.880	-1.800	-0.700																			1580005620.0	0.48	0.89
26/01/2020 02:27:01	26012020	260120	022701	3.940	12.418485	-57.629697	3.830	0.310	-0.720	-0.390	3.940	-2.000	-0.300																			1580005621.0	0.28	0.52
26/01/2020 02:27:02	26012020	260120	022702	3.840	12.418485	-57.629693	3.600	0.340	-0.520	0.200	3.800	-2.000	0.300																			1580005622.0	0.84	1.56
26/01/2020 02:27:03	26012020	260120	022703	3.640	12.418485	-57.629690	3.320	0.110	-0.060	0.840	3.580	-1.700	0.900																			1580005623.0	0.88	1.63
26/01/2020 02:27:04	26012020	260120	022704	3.300	12.418485	-57.629687	3.200	-0.080	0.240	1.290	3.260	-1.200	1.500																			1580005624.0	0.74	1.37
26/01/2020 02:27:05	26012020	260120	022705	3.210	12.418483	-57.629685	3.290	-0.040	0.200	1.300	3.220	-1.100	1.700																			1580005625.0	0.49	0.91
26/01/2020 02:27:06	26012020	260120	022706	3.340	12.418483	-57.629685	3.470	0.120	0.060	0.960	3.380	-1.300	1.500																			1580005626.0	0.07	0.13
26/01/2020 02:27:07	26012020	260120	022707	3.520	12.418485	-57.629687	3.630	0.180	0.030	0.480	3.550	-1.300	1.100																			1580005627.0	0.49	0.91
26/01/2020 02:27:08	26012020	260120	022708	3.690	12.418485	-57.629688	3.780	0.040	0.120	0.050	3.730	-1.300	0.600																			1580005628.0	0.51	0.94
26/01/2020 02:27:09	26012020	260120	022709	3.830	12.418485	-57.629690	3.770	-0.210	0.230	-0.140	3.850	-1.200	0.300																			1580005629.0	0.35	0.65
26/01/2020 02:27:10	26012020	260120	022710	3.780	12.418483	-57.629690	3.540	-0.420	0.180	-0.120	3.740	-1.100	0.200																			1580005630.0	0.27	0.50
26/01/2020 02:27:11	26012020	260120	022711	3.530	12.418483	-57.629690	3.300	-0.410	-0.180	-0.130	3.470	-1.400	0.300																			1580005631.0	0.26	0.48
26/01/2020 02:27:12	26012020	260120	022712	3.300	12.418483	-57.629692	3.230	-0.100	-0.720	-0.280	3.280	-1.800	0.200																			1580005632.0	0.18	0.33
26/01/2020 02:27:13	26012020	260120	022713	3.280	12.418485	-57.629693	3.330	0.370	-1.020	-0.420	3.300	-2.300	0.000																			1580005633.0	0.55	1.02
26/01/2020 02:27:14	26012020	260120	022714	3.390	12.418487	-57.629695	3.430	0.650	-0.790	-0.380	3.420	-2.300	-0.000																			1580005634.0	0.63	1.17
26/01/2020 02:27:15	26012020	260120	022715	3.500	12.418488	-57.629695	3.510	0.480	-0.170	-0.220	3.520	-1.900	0.100																			1580005635.0	0.22	0.41
26/01/2020 02:27:16	26012020	260120	022716	3.570	12.418487	-57.629693	3.580	0.020	0.510	0.040	3.580	-1.200	0.300																			1580005636.0	0.33	0.61
26/01/2020 02:27:17	26012020	260120	022717	3.620	12.418485	-57.629693	3.580	-0.360	0.920	0.420	3.620	-0.600	0.600																			1580005637.0	0.50	0.93
26/01/2020 02:27:18	26012020	260120	022718	3.590	12.418482	-57.629692	3.520	-0.450	0.820	0.730	3.580	-0.400	1.000																			1580005638.0	0.50	0.93
26/01/2020 02:27:19	26012020	260120	022719	3.530	12.418482	-57.629690	3.520	-0.270	0.210	0.790	3.520	-0.800	1.200																			1580005639.0	0.40	0.74
26/01/2020 02:27:20	26012020	260120	022720	3.550	12.418482	-57.629688	3.630	-0.000	-0.560	0.640	3.570	-1.600	1.100																			1580005640.0	0.34	0.63
26/01/2020 02:27:21	26012020	260120	022721	3.680	12.418485	-57.629688	3.730	0.160	-0.920	0.460	3.710	-2.200	0.900																			1580005641.0	0.52	0.96
26/01/2020 02:27:22	26012020	260120	022722	3.760	12.418487	-57.629688	3.640	0.170	-0.660	0.490	3.760	-2.200	0.800																			1580005642.0	0.47	0.87
26/01/2020 02:27:23	26012020	260120	022723	3.640	12.418487	-57.629690	3.440	0.150	-0.250	0.550	3.590	-1.800	0.900																			1580005643.0	0.14	0.26
26/01/2020 02:27:24	26012020	260120	022724	3.440	12.418485	-57.629690	3.400	0.180	-0.150	0.260	3.430	-1.500	0.800																			1580005644.0	0.42	0.78
26/01/2020 02:27:25	26012020	260120	022725	3.460	12.418483	-57.629690	3.520	0.160	-0.150	-0.240	3.480	-1.500	0.400																			1580005645.0	0.21	0.39
26/01/2020 02:27:26	26012020	260120	022726	3.590	12.418485	-57.629693	3.600	-0.020	0.140	-0.600	3.610	-1.400	-0.100																			1580005646.0	0.53	0.98
26/01/2020 02:27:27	26012020	260120	022727	3.660	12.418485	-57.629695	3.610	-0.310	0.560	-0.720	3.660	-1.000	-0.300																			1580005647.0	0.56	1.04
26/01/2020 02:27:28	26012020	260120	022728	3.670	12.418483	-57.629698	3.660	-0.480	0.640	-0.670	3.680	-0.700	-0.300																			1580005648.0	0.57	1.06
26/01/2020 02:27:29	26012020	260120	022729	3.720	12.418482	-57.629698	3.770	-0.320	0.130	-0.500	3.740	-0.900	-0.200																			1580005649.0	0.53	0.98
26/01/2020 02:27:30	26012020	260120	022730	3.830	12.418482	-57.629698	3.930	0.070	-0.620	-0.220	3.870	-1.600	0.000																			1580005650.0	0.04	0.07
26/01/2020 02:27:31	26012020	260120	022731	3.980	12.418485	-57.629698	4.060	0.390	-1.000	0.220	4.010	-2.300	0.400																			1580005651.0	0.62	1.15
26/01/2020 02:27:32	26012020	260120	022732	4.080	12.418487	-57.629695	4.050	0.410	-0.670	0.780	4.090	-2.300	0.900																			1580005652.0	0.88	1.63
26/01/2020 02:27:33	26012020	260120	022733	4.050	12.418487	-57.629690	3.890	0.140	-0.010	1.280	4.030	-1.700	1.400																			1580005653.0	0.91	1.69
26/01/2020 02:27:34	26012020	260120	022734	3.860	12.418485	-57.629687	3.620	-0.190	0.400	1.460	3.810	-1.100	1.800																			1580005654.0	1.03	1.91
26/01/2020 02:27:35	26012020	260120	022735	3.640	12.418482	-57.629685	3.400	-0.290	0.310	1.180	3.590	-1.000	1.700																			1580005655.0	0.67	1.24
26/01/2020 02:27:36	26012020	260120	022736	3.410	12.418482	-57.629687	3.370	-0.070	-0.020	0.600	3.400	-1.200	1.300																			1580005656.0	0.40	0.74
26/01/2020 02:27:37	26012020	260120	022737	3.410	12.418483	-57.629690	3.540	0.320	-0.310	-0.080	3.430	-1.600	0.600																			1580005657.0	1.00	1.85
26/01/2020 02:27:38	26012020	260120	022738	3.640	12.418485	-57.629695	3.800	0.570	-0.440	-0.680	3.690	-1.800	-0.000																			1580005658.0	1.11	2.06
26/01/2020 02:27:39	26012020	260120	022739	3.910	12.418487	-57.629698	4.010	0.450	-0.340	-1.050	3.960	-1.800	-0.500																			1580005659.0	0.75	1.39
26/01/2020 02:27:40	26012020	260120	022740	4.090	12.418487	-57.629700	4.070	-0.010	0.010	-1.070	4.110	-1.600	-0.700																			1580005660.0	0.32	0.59
26/01/2020 02:27:41	26012020	260120	022741	4.130	12.418487	-57.629700	4.020	-0.490	0.460	-0.730	4.120	-1.100	-0.500																			1580005661.0	0.14	0.26
26/01/2020 02:27:42	26012020	260120	022742	4.070	12.418485	-57.629698	4.000	-0.690	0.580	-0.250	4.060	-0.800	-0.100																			1580005662.0	0.52	0.96
26/01/2020 02:27:43	26012020	260120	022743	4.040	12.418482	-57.629697	3.960	-0.540	0.270	0.240	4.030	-0.900	0.400																			1580005663.0	0.65	1.20
26/01/2020 02:27:44	26012020	260120	022744	3.980	12.418482	-57.629693	3.820	-0.200	-0.160	0.740	3.950	-1.300	0.900																			1580005664.0	0.57	1.06
26/01/2020 02:27:45	26012020	260120	022745	3.800	12.418483	-57.629692	3.610	0.080	-0.530	1.130	3.750	-1.700	1.300																			1580005665.0	0.60	1.11
26/01/2020 02:27:46	26012020	260120	022746	3.610	12.418483	-57.629688	3.540	0.260	-0.830	1.190	3.590	-2.100	1.600																			1580005666.0	0.51	0.94
26/01/2020 02:27:47	26012020	260120	022747	3.590	12.418485	-57.629688	3.660	0.400	-0.920	0.920	3.610	-2.300	1.400																			1580005667.0	0.21	0.39
26/01/2020 02:27:48	26012020	260120	022748	3.740	12.418485	-57.629690	3.870	0.550	-0.690	0.570	3.780	-2.200	1.100																			1580005668.0	0.37	0.69
26/01/2020 02:27:49	26012020	260120	022749	3.910	12.418487	-57.629692	4.030	0.560	-0.160	0.290	3.950	-1.800	0.800																			1580005669.0	0.46	0.85
26/01/2020 02:27:50	26012020	260120	022750	4.100	12.418487	-57.629692	4.060	0.270	0.480	0.090	4.120	-1.200	0.600																			1580005670.0	0.20	0.37
26/01/2020 02:27:51	26012020	260120	022751	4.130	12.418485	-57.629692	3.960	-0.240	0.960	-0.090	4.110	-0.600	0.400																			1580005671.0	0.25	0.46
26/01/2020 02:27:52	26012020	260120	022752	4.000	12.418483	-57.629693	3.820	-0.630	0.970	-0.230	3.970	-0.300	0.200																			1580005672.0	0.41	0.76
26/01/2020 02:27:53	26012020	260120	022753	3.870	12.418482	-57.629695	3.770	-0.640	0.410	-0.330	3.850	-0.600	0.100																			1580005673.0	0.41	0.76
26/01/2020 02:27:54	26012020	260120	022754	3.830	12.418482	-57.629695	3.840	-0.330	-0.330	-0.410	3.830	-1.400	0.000																			1580005674.0	0.32	0.59
26/01/2020 02:27:55	26012020	260120	022755	3.910	12.418485	-57.629697	3.940	0.070	-0.850	-0.420	3.930	-2.000	-0.100																			1580005675.0	0.48	0.89
26/01/2020 02:27:56	26012020	260120	022756	4.020	12.418487	-57.629697	4.020	0.340	-0.990	-0.250	4.040	-2.300	0.000																			1580005676.0	0.38	0.70
26/01/2020 02:27:57	26012020	260120	022757	4.090	12.418487	-57.629697	4.020	0.430	-0.810	0.170	4.090	-2.300	0.300																			1580005677.0	0.26	0.48
26/01/2020 02:27:58	26012020	260120	022758	4.060	12.418487	-57.629693	3.900	0.380	-0.420	0.690	4.040	-2.000	0.800																			1580005678.0	0.49	0.91
26/01/2020 02:27:59	26012020	260120	022759	3.910	12.418485	-57.629690	3.720	0.250	0.020	1.030	3.870	-1.600	1.300	1015.40	25.50	25.60	21.20	21.20	-1.00	77.00	76.00	391.00	24.70	35.00	4.90	40.00	4.70	14	3314.00	27.40	27.40	1580005679.0	0.71	1.31
26/01/2020 02:28:00	26012020	260120	022800	3.720	12.418485	-57.629687	3.600	0.040	0.350	0.950	3.690	-1.200	1.400																			1580005680.0	0.69	1.28
26/01/2020 02:28:01	26012020	260120	022801	3.620	12.418483	-57.629687	3.640	-0.180	0.520	0.600	3.620	-0.900	1.200																			1580005681.0	0.19	0.35
26/01/2020 02:28:02	26012020	260120	022802	3.700	12.418483	-57.629688	3.800	-0.310	0.520	0.210	3.730	-0.800	0.800																			1580005682.0	0.48	0.89
26/01/2020 02:28:03	26012020	260120	022803	3.840	12.418483	-57.629692	3.970	-0.300	0.350	-0.030	3.880	-0.900	0.400																			1580005683.0	0.75	1.39
26/01/2020 02:28:04	26012020	260120	022804	4.040	12.418485	-57.629695	4.060	-0.170	0.030	-0.170	4.060	-1.200	0.300																			1580005684.0	0.54	1.00
26/01/2020 02:28:05	26012020	260120	022805	4.110	12.418485	-57.629695	4.040	-0.030	-0.350	-0.170	4.110	-1.600	0.200																			1580005685.0	0.09	0.17
26/01/2020 02:28:06	26012020	260120	022806	4.080	12.418485	-57.629693	3.980	0.050	-0.620	-0.020	4.060	-1.900	0.300																			1580005686.0	0.31	0.57
26/01/2020 02:28:07	26012020	260120	022807	4.000	12.418485	-57.629692	3.900	0.090	-0.670	0.240	3.990	-2.000	0.500																			1580005687.0	0.48	0.89
26/01/2020 02:28:08	26012020	260120	022808	3.920	12.418485	-57.629690	3.810	0.110	-0.520	0.470	3.900	-2.000	0.800																			1580005688.0	0.46	0.85
26/01/2020 02:28:09	26012020	260120	022809	3.820	12.418485	-57.629688	3.710	0.140	-0.290	0.480	3.800	-1.800	0.900																			1580005689.0	0.28	0.52
26/01/2020 02:28:10	26012020	260120	022810	3.710	12.418485	-57.629688	3.600	0.250	-0.100	0.390	3.690	-1.600	0.800																			1580005690.0	0.13	0.24
26/01/2020 02:28:11	26012020	260120	022811	3.610	12.418485	-57.629690	3.600	0.360	-0.020	0.250	3.600	-1.400	0.700																			1580005691.0	0.34	0.63
26/01/2020 02:28:12	26012020	260120	022812	3.640	12.418485	-57.629692	3.800	0.320	0.010	-0.010	3.670	-1.400	0.500																			1580005692.0	0.23	0.43
26/01/2020 02:28:13	26012020	260120	022813	3.850	12.418487	-57.629692	4.050	0.060	0.180	-0.240	3.910	-1.300	0.200																			1580005693.0	0.24	0.44
26/01/2020 02:28:14	26012020	260120	022814	4.100	12.418487	-57.629693	4.160	-0.250	0.480	-0.150	4.140	-1.000	0.100																			1580005694.0	0.23	0.43
26/01/2020 02:28:15	26012020	260120	022815	4.150	12.418487	-57.629693	4.000	-0.440	0.610	0.230	4.130	-0.800	0.400																			1580005695.0	0.18	0.33
26/01/2020 02:28:16	26012020	260120	022816	3.960	12.418485	-57.629692	3.800	-0.450	0.310	0.520	3.920	-0.900	0.800																			1580005696.0	0.49	0.91
26/01/2020 02:28:17	26012020	260120	022817	3.780	12.418483	-57.629690	3.770	-0.330	-0.270	0.530	3.770	-1.400	0.900																			1580005697.0	0.54	1.00
26/01/2020 02:28:18	26012020	260120	022818	3.790	12.418485	-57.629688	3.830	-0.180	-0.710	0.440	3.810	-1.900	0.900																			1580005698.0	0.36	0.67
26/01/2020 02:28:19	26012020	260120	022819	3.850	12.418485	-57.629687	3.810	-0.020	-0.800	0.410	3.850	-2.200	0.800																			1580005699.0	0.30	0.56
26/01/2020 02:28:20	26012020	260120	022820	3.820	12.418487	-57.629688	3.790	0.210	-0.660	0.370	3.820	-2.100	0.800																			1580005700.0	0.16	0.30
26/01/2020 02:28:21	26012020	260120	022821	3.820	12.418485	-57.629688	3.840	0.510	-0.480	0.340	3.830	-1.900	0.700																			1580005701.0	0.23	0.43
26/01/2020 02:28:22	26012020	260120	022822	3.880	12.418485	-57.629690	3.910	0.640	-0.270	0.260	3.900	-1.800	0.700																			1580005702.0	0.07	0.13
26/01/2020 02:28:23	26012020	260120	022823	3.940	12.418487	-57.629688	3.860	0.380	0.120	0.160	3.940	-1.500	0.600																			1580005703.0	0.22	0.41
26/01/2020 02:28:24	26012020	260120	022824	3.880	12.418487	-57.629687	3.680	-0.190	0.650	0.090	3.850	-1.000	0.500																			1580005704.0	0.22	0.41
26/01/2020 02:28:25	26012020	260120	022825	3.730	12.418485	-57.629688	3.510	-0.640	0.890	0.050	3.690	-0.500	0.400																			1580005705.0	0.33	0.61
26/01/2020 02:28:26	26012020	260120	022826	3.540	12.418482	-57.629690	3.540	-0.590	0.500	-0.110	3.530	-0.600	0.400																			1580005706.0	0.56	1.04
26/01/2020 02:28:27	26012020	260120	022827	3.570	12.418482	-57.629692	3.750	-0.140	-0.330	-0.290	3.600	-1.300	0.200																			1580005707.0	0.49	0.91
26/01/2020 02:28:28	26012020	260120	022828	3.790	12.418485	-57.629693	3.850	0.220	-0.930	-0.360	3.820	-2.100	0.000																			1580005708.0	0.62	1.15
26/01/2020 02:28:29	26012020	260120	022829	3.870	12.418488	-57.629693	3.770	0.200	-0.780	-0.210	3.870	-2.300	0.100																			1580005709.0	0.69	1.28
26/01/2020 02:28:30	26012020	260120	022830	3.770	12.418488	-57.629693	3.590	-0.050	-0.150	0.170	3.740	-1.800	0.300																			1580005710.0	0.21	0.39
26/01/2020 02:28:31	26012020	260120	022831	3.590	12.418485	-57.629692	3.490	-0.170	0.200	0.540	3.570	-1.300	0.800																			1580005711.0	0.69	1.28
26/01/2020 02:28:32	26012020	260120	022832	3.500	12.418482	-57.629688	3.500	-0.020	-0.010	0.730	3.500	-1.200	1.000																			1580005712.0	0.80	1.48
26/01/2020 02:28:33	26012020	260120	022833	3.520	12.418482	-57.629688	3.530	0.250	-0.360	0.730	3.530	-1.600	1.100																			1580005713.0	0.29	0.54
26/01/2020 02:28:34	26012020	260120	022834	3.540	12.418485	-57.629687	3.450	0.370	-0.350	0.660	3.530	-1.800	1.100																			1580005714.0	0.51	0.94
26/01/2020 02:28:35	26012020	260120	022835	3.440	12.418487	-57.629687	3.260	0.250	0.060	0.640	3.410	-1.500	1.000																			1580005715.0	0.39	0.72
26/01/2020 02:28:36	26012020	260120	022836	3.260	12.418485	-57.629687	3.140	-0.010	0.450	0.510	3.220	-1.100	1.000																			1580005716.0	0.14	0.26
26/01/2020 02:28:37	26012020	260120	022837	3.180	12.418483	-57.629687	3.190	-0.270	0.460	0.230	3.180	-0.900	0.800																			1580005717.0	0.49	0.91
26/01/2020 02:28:38	26012020	260120	022838	3.240	12.418482	-57.629687	3.270	-0.410	0.140	-0.180	3.250	-1.100	0.400																			1580005718.0	0.35	0.65
26/01/2020 02:28:39	26012020	260120	022839	3.300	12.418482	-57.629690	3.270	-0.390	-0.240	-0.560	3.310	-1.400	-0.000																			1580005719.0	0.45	0.83
26/01/2020 02:28:40	26012020	260120	022840	3.310	12.418483	-57.629692	3.200	-0.220	-0.480	-0.730	3.310	-1.800	-0.300																			1580005720.0	0.69	1.28
26/01/2020 02:28:41	26012020	260120	022841	3.250	12.418483	-57.629695	3.080	-0.020	-0.520	-0.590	3.230	-1.900	-0.300																			1580005721.0	0.55	1.02
26/01/2020 02:28:42	26012020	260120	022842	3.130	12.418483	-57.629695	3.000	0.160	-0.480	-0.230	3.100	-1.900	-0.000																			1580005722.0	0.18	0.33
26/01/2020 02:28:43	26012020	260120	022843	3.050	12.418483	-57.629695	3.050	0.330	-0.440	0.150	3.050	-1.800	0.300																			1580005723.0	0.15	0.28
26/01/2020 02:28:44	26012020	260120	022844	3.100	12.418483	-57.629693	3.130	0.420	-0.280	0.550	3.130	-1.800	0.700																			1580005724.0	0.38	0.70
26/01/2020 02:28:45	26012020	260120	022845	3.180	12.418483	-57.629690	3.100	0.270	0.140	0.930	3.180	-1.500	1.100																			1580005725.0	0.65	1.20
26/01/2020 02:28:46	26012020	260120	022846	3.110	12.418483	-57.629687	2.950	-0.120	0.570	1.090	3.080	-1.000	1.400																			1580005726.0	0.83	1.54
26/01/2020 02:28:47	26012020	260120	022847	2.940	12.418482	-57.629683	2.820	-0.440	0.640	0.940	2.920	-0.700	1.400																			1580005727.0	0.66	1.22
26/01/2020 02:28:48	26012020	260120	022848	2.840	12.418480	-57.629685	2.810	-0.350	0.200	0.570	2.830	-0.900	1.100																			1580005728.0	0.41	0.76
26/01/2020 02:28:49	26012020	260120	022849	2.840	12.418480	-57.629688	2.870	0.120	-0.500	0.170	2.850	-1.500	0.700																			1580005729.0	0.62	1.15
26/01/2020 02:28:50	26012020	260120	022850	2.930	12.418482	-57.629690	2.970	0.510	-0.950	-0.230	2.960	-2.200	0.300																			1580005730.0	0.75	1.39
26/01/2020 02:28:51	26012020	260120	022851	3.030	12.418485	-57.629692	2.990	0.440	-0.720	-0.490	3.050	-2.300	-0.000																			1580005731.0	0.69	1.28
26/01/2020 02:28:52	26012020	260120	022852	3.040	12.418485	-57.629693	2.830	-0.020	0.090	-0.480	3.010	-1.700	-0.200																			1580005732.0	0.30	0.56
26/01/2020 02:28:53	26012020	260120	022853	2.840	12.418483	-57.629693	2.590	-0.470	0.790	-0.230	2.790	-0.900	0.000																			1580005733.0	0.55	1.02
26/01/2020 02:28:54	26012020	260120	022854	2.590	12.418480	-57.629693	2.480	-0.590	0.750	-0.020	2.560	-0.500	0.300																			1580005734.0	0.89	1.65
26/01/2020 02:28:55	26012020	260120	022855	2.520	12.418477	-57.629693	2.570	-0.390	0.050	-0.010	2.530	-0.900	0.400																			1580005735.0	0.54	1.00
26/01/2020 02:28:56	26012020	260120	022856	2.650	12.418478	-57.629693	2.780	-0.090	-0.700	-0.110	2.690	-1.800	0.300																			1580005736.0	0.28	0.52
26/01/2020 02:28:57	26012020	260120	022857	2.860	12.418482	-57.629693	2.940	0.120	-0.940	-0.080	2.910	-2.300	0.200																			1580005737.0	0.65	1.20
26/01/2020 02:28:58	26012020	260120	022858	3.020	12.418483	-57.629693	2.960	0.200	-0.600	0.200	3.030	-2.200	0.400																			1580005738.0	0.43	0.80
26/01/2020 02:28:59	26012020	260120	022859	3.000	12.418483	-57.629692	2.830	0.250	-0.070	0.680	2.980	-1.700	0.800	1015.40	25.50	25.60	21.30	21.30	-1.00	77.00	77.00	391.00	24.70	43.00	4.70	48.00	4.60	14	3410.00	27.40	27.40	1580005739.0	0.16	0.30
26/01/2020 02:29:00	26012020	260120	022900	2.850	12.418480	-57.629690	2.660	0.310	0.200	1.100	2.810	-1.300	1.300																			1580005740.0	0.60	1.11
26/01/2020 02:29:01	26012020	260120	022901	2.670	12.418478	-57.629687	2.540	0.310	0.130	1.150	2.640	-1.200	1.500																			1580005741.0	0.72	1.33
26/01/2020 02:29:02	26012020	260120	022902	2.580	12.418480	-57.629685	2.570	0.180	-0.070	0.740	2.570	-1.400	1.300																			1580005742.0	0.48	0.89
26/01/2020 02:29:03	26012020	260120	022903	2.640	12.418480	-57.629685	2.700	-0.040	-0.090	0.170	2.660	-1.500	0.800																			1580005743.0	0.33	0.61
26/01/2020 02:29:04	26012020	260120	022904	2.790	12.418482	-57.629688	2.820	-0.250	0.110	-0.310	2.810	-1.400	0.300																			1580005744.0	0.68	1.26
26/01/2020 02:29:05	26012020	260120	022905	2.880	12.418482	-57.629693	2.810	-0.310	0.270	-0.590	2.890	-1.200	-0.100																			1580005745.0	0.80	1.48
26/01/2020 02:29:06	26012020	260120	022906	2.880	12.418480	-57.629695	2.760	-0.170	0.150	-0.640	2.870	-1.100	-0.300																			1580005746.0	0.73	1.35
26/01/2020 02:29:07	26012020	260120	022907	2.810	12.418480	-57.629697	2.810	0.070	-0.240	-0.540	2.810	-1.400	-0.200																			1580005747.0	0.36	0.67
26/01/2020 02:29:08	26012020	260120	022908	2.890	12.418480	-57.629697	2.970	0.190	-0.550	-0.360	2.930	-1.800	-0.100																			1580005748.0	0.22	0.41
26/01/2020 02:29:09	26012020	260120	022909	3.050	12.418482	-57.629695	3.030	0.050	-0.460	-0.030	3.070	-1.900	0.200																			1580005749.0	0.58	1.07
26/01/2020 02:29:10	26012020	260120	022910	3.080	12.418483	-57.629692	2.980	-0.220	-0.130	0.370	3.070	-1.700	0.500																			1580005750.0	0.61	1.13
26/01/2020 02:29:11	26012020	260120	022911	3.000	12.418482	-57.629690	2.890	-0.330	0.090	0.640	2.980	-1.400	0.900																			1580005751.0	0.56	1.04
26/01/2020 02:29:12	26012020	260120	022912	2.920	12.418480	-57.629688	2.870	-0.140	0.030	0.710	2.910	-1.300	1.100																			1580005752.0	0.38	0.70
26/01/2020 02:29:13	26012020	260120	022913	2.900	12.418480	-57.629688	2.900	0.180	-0.130	0.710	2.910	-1.400	1.100																			1580005753.0	0.05	0.09
26/01/2020 02:29:14	26012020	260120	022914	2.940	12.418480	-57.629688	2.930	0.340	-0.170	0.690	2.950	-1.500	1.100																			1580005754.0	0.21	0.39
26/01/2020 02:29:15	26012020	260120	022915	2.970	12.418482	-57.629688	2.940	0.200	-0.040	0.570	2.970	-1.500	1.000																			1580005755.0	0.22	0.41
26/01/2020 02:29:16	26012020	260120	022916	2.970	12.418482	-57.629688	2.950	-0.040	0.060	0.350	2.970	-1.300	0.800																			1580005756.0	0.02	0.04
26/01/2020 02:29:17	26012020	260120	022917	2.980	12.418480	-57.629690	3.030	-0.080	-0.090	0.030	3.000	-1.400	0.600																			1580005757.0	0.35	0.65
26/01/2020 02:29:18	26012020	260120	022918	3.100	12.418482	-57.629692	3.200	0.140	-0.420	-0.260	3.130	-1.600	0.200																			1580005758.0	0.48	0.89
26/01/2020 02:29:19	26012020	260120	022919	3.270	12.418482	-57.629693	3.330	0.320	-0.530	-0.370	3.300	-1.900	0.000																			1580005759.0	0.45	0.83
26/01/2020 02:29:20	26012020	260120	022920	3.380	12.418485	-57.629693	3.380	0.210	-0.240	-0.290	3.390	-1.800	0.000																			1580005760.0	0.42	0.78
26/01/2020 02:29:21	26012020	260120	022921	3.420	12.418485	-57.629692	3.330	-0.100	0.270	-0.050	3.410	-1.400	0.200																			1580005761.0	0.17	0.31
26/01/2020 02:29:22	26012020	260120	022922	3.350	12.418483	-57.629692	3.210	-0.350	0.610	0.270	3.330	-0.900	0.500																			1580005762.0	0.37	0.69
26/01/2020 02:29:23	26012020	260120	022923	3.260	12.418482	-57.629690	3.060	-0.420	0.530	0.570	3.220	-0.800	0.800																			1580005763.0	0.55	1.02
26/01/2020 02:29:24	26012020	260120	022924	3.050	12.418480	-57.629688	2.960	-0.330	0.090	0.670	3.030	-1.000	1.000																			1580005764.0	0.40	0.74
26/01/2020 02:29:25	26012020	260120	022925	2.990	12.418482	-57.629687	3.040	-0.130	-0.450	0.520	3.000	-1.600	1.000																			1580005765.0	0.21	0.39
26/01/2020 02:29:26	26012020	260120	022926	3.100	12.418482	-57.629688	3.250	0.140	-0.830	0.280	3.140	-2.100	0.800																			1580005766.0	0.38	0.70
26/01/2020 02:29:27	26012020	260120	022927	3.330	12.418483	-57.629690	3.510	0.370	-0.920	0.030	3.380	-2.300	0.500																			1580005767.0	0.46	0.85
26/01/2020 02:29:28	26012020	260120	022928	3.570	12.418485	-57.629690	3.600	0.390	-0.590	-0.060	3.590	-2.200	0.300																			1580005768.0	0.34	0.63
26/01/2020 02:29:29	26012020	260120	022929	3.630	12.418485	-57.629692	3.480	0.170	0.030	0.030	3.610	-1.700	0.300																			1580005769.0	0.09	0.17
26/01/2020 02:29:30	26012020	260120	022930	3.470	12.418485	-57.629692	3.290	-0.110	0.560	0.230	3.430	-1.000	0.500																			1580005770.0	0.25	0.46
26/01/2020 02:29:31	26012020	260120	022931	3.310	12.418483	-57.629692	3.240	-0.200	0.640	0.300	3.280	-0.700	0.700																			1580005771.0	0.42	0.78
26/01/2020 02:29:32	26012020	260120	022932	3.280	12.418482	-57.629690	3.410	-0.130	0.250	0.120	3.310	-0.900	0.600																			1580005772.0	0.21	0.39
26/01/2020 02:29:33	26012020	260120	022933	3.480	12.418483	-57.629690	3.570	-0.060	-0.140	-0.070	3.530	-1.400	0.400																			1580005773.0	0.24	0.44
26/01/2020 02:29:34	26012020	260120	022934	3.600	12.418485	-57.629692	3.520	-0.080	-0.160	0.030	3.590	-1.600	0.300																			1580005774.0	0.48	0.89
26/01/2020 02:29:35	26012020	260120	022935	3.520	12.418485	-57.629692	3.460	-0.050	-0.180	0.170	3.490	-1.500	0.500																			1580005775.0	0.11	0.20
26/01/2020 02:29:36	26012020	260120	022936	3.470	12.418483	-57.629690	3.530	0.120	-0.520	0.190	3.480	-1.700	0.600																			1580005776.0	0.31	0.57
26/01/2020 02:29:37	26012020	260120	022937	3.550	12.418485	-57.629690	3.620	0.270	-0.780	0.160	3.580	-2.100	0.500																			1580005777.0	0.23	0.43
26/01/2020 02:29:38	26012020	260120	022938	3.640	12.418487	-57.629688	3.610	0.240	-0.500	0.210	3.640	-2.100	0.500																			1580005778.0	0.48	0.89
26/01/2020 02:29:39	26012020	260120	022939	3.610	12.418488	-57.629688	3.490	0.050	0.150	0.300	3.590	-1.500	0.600																			1580005779.0	0.21	0.39
26/01/2020 02:29:40	26012020	260120	022940	3.470	12.418487	-57.629690	3.390	-0.150	0.600	0.310	3.450	-0.900	0.700																			1580005780.0	0.33	0.61
26/01/2020 02:29:41	26012020	260120	022941	3.400	12.418483	-57.629690	3.460	-0.220	0.500	0.160	3.400	-0.800	0.600																			1580005781.0	0.52	0.96
26/01/2020 02:29:42	26012020	260120	022942	3.500	12.418483	-57.629692	3.630	-0.150	0.020	0.010	3.540	-1.100	0.400																			1580005782.0	0.25	0.46
26/01/2020 02:29:43	26012020	260120	022943	3.690	12.418485	-57.629692	3.820	-0.060	-0.380	-0.000	3.730	-1.600	0.400																			1580005783.0	0.38	0.70
26/01/2020 02:29:44	26012020	260120	022944	3.870	12.418487	-57.629692	3.880	-0.040	-0.430	0.080	3.890	-1.800	0.400																			1580005784.0	0.45	0.83
26/01/2020 02:29:45	26012020	260120	022945	3.890	12.418488	-57.629690	3.730	-0.080	-0.230	0.220	3.870	-1.700	0.500																			1580005785.0	0.28	0.52
26/01/2020 02:29:46	26012020	260120	022946	3.710	12.418487	-57.629690	3.510	-0.090	-0.070	0.390	3.660	-1.500	0.700																			1580005786.0	0.22	0.41
26/01/2020 02:29:47	26012020	260120	022947	3.520	12.418485	-57.629690	3.440	0.010	-0.130	0.480	3.490	-1.400	0.800																			1580005787.0	0.27	0.50
26/01/2020 02:29:48	26012020	260120	022948	3.490	12.418485	-57.629688	3.580	0.140	-0.280	0.390	3.510	-1.600	0.800																			1580005788.0	0.12	0.22
26/01/2020 02:29:49	26012020	260120	022949	3.640	12.418487	-57.629688	3.770	0.170	-0.240	0.170	3.670	-1.700	0.700																			1580005789.0	0.21	0.39
26/01/2020 02:29:50	26012020	260120	022950	3.820	12.418487	-57.629690	3.870	0.100	-0.020	-0.040	3.850	-1.500	0.400																			1580005790.0	0.24	0.44
26/01/2020 02:29:51	26012020	260120	022951	3.890	12.418487	-57.629692	3.870	0.050	0.140	-0.070	3.890	-1.300	0.300																			1580005791.0	0.29	0.54
26/01/2020 02:29:52	26012020	260120	022952	3.880	12.418487	-57.629692	3.880	0.100	0.060	-0.000	3.880	-1.200	0.300																			1580005792.0	0.29	0.54
26/01/2020 02:29:53	26012020	260120	022953	3.900	12.418487	-57.629692	3.900	0.160	-0.120	0.160	3.910	-1.400	0.400																			1580005793.0	0.08	0.15
26/01/2020 02:29:54	26012020	260120	022954	3.900	12.418487	-57.629690	3.770	0.100	-0.200	0.380	3.880	-1.500	0.600																			1580005794.0	0.38	0.70
26/01/2020 02:29:55	26012020	260120	022955	3.760	12.418488	-57.629688	3.570	-0.100	-0.170	0.470	3.710	-1.600	0.800																			1580005795.0	0.46	0.85
26/01/2020 02:29:56	26012020	260120	022956	3.570	12.418488	-57.629687	3.530	-0.280	-0.090	0.310	3.550	-1.500	0.800																			1580005796.0	0.24	0.44
26/01/2020 02:29:57	26012020	260120	022957	3.570	12.418488	-57.629688	3.690	-0.320	-0.040	-0.010	3.600	-1.400	0.500																			1580005797.0	0.18	0.33
26/01/2020 02:29:58	26012020	260120	022958	3.760	12.418487	-57.629690	3.870	-0.220	-0.000	-0.240	3.800	-1.400	0.200																			1580005798.0	0.48	0.89
26/01/2020 02:29:59	26012020	260120	022959	3.920	12.418487	-57.629692	3.920	-0.090	0.020	-0.260	3.930	-1.400	0.100	1015.40	25.50	25.60	21.30	21.30	-1.00	77.00	77.00	391.00	24.70	43.00	4.90	48.00	4.80	14	3340.00	27.40	27.40	1580005799.0	0.52	0.96
26/01/2020 02:30:00	26012020	260120	023000	3.960	12.418487	-57.629693	3.940	0.030	-0.030	-0.110	3.960	-1.400	0.200																			1580005800.0	0.26	0.48
26/01/2020 02:30:01	26012020	260120	023001	3.970	12.418487	-57.629693	3.990	0.160	-0.240	0.110	3.970	-1.500	0.400																			1580005801.0	0.11	0.20
26/01/2020 02:30:02	26012020	260120	023002	4.000	12.418487	-57.629692	4.020	0.280	-0.470	0.390	4.010	-1.700	0.600																			1580005802.0	0.37	0.69
26/01/2020 02:30:03	26012020	260120	023003	4.010	12.418488	-57.629688	3.940	0.290	-0.460	0.700	4.000	-1.900	0.900																			1580005803.0	0.59	1.09
26/01/2020 02:30:04	26012020	260120	023004	3.920	12.418488	-57.629687	3.820	0.130	-0.130	0.900	3.890	-1.700	1.200																			1580005804.0	0.62	1.15
26/01/2020 02:30:05	26012020	260120	023005	3.820	12.418488	-57.629685	3.700	-0.110	0.290	0.870	3.800	-1.300	1.300																			1580005805.0	0.41	0.76
26/01/2020 02:30:06	26012020	260120	023006	3.690	12.418487	-57.629685	3.650	-0.230	0.430	0.610	3.670	-1.000	1.100																			1580005806.0	0.36	0.67
26/01/2020 02:30:07	26012020	260120	023007	3.660	12.418485	-57.629687	3.740	-0.140	0.090	0.210	3.670	-1.100	0.800																			1580005807.0	0.47	0.87
26/01/2020 02:30:08	26012020	260120	023008	3.780	12.418485	-57.629688	3.900	0.060	-0.380	-0.170	3.820	-1.600	0.400																			1580005808.0	0.57	1.06
26/01/2020 02:30:09	26012020	260120	023009	3.960	12.418488	-57.629692	4.040	0.170	-0.560	-0.410	3.990	-1.900	0.100																			1580005809.0	0.71	1.31
26/01/2020 02:30:10	26012020	260120	023010	4.100	12.418490	-57.629692	4.130	0.090	-0.330	-0.440	4.110	-1.900	-0.100																			1580005810.0	0.46	0.85
26/01/2020 02:30:11	26012020	260120	023011	4.150	12.418490	-57.629692	4.100	-0.110	0.080	-0.210	4.150	-1.500	0.000																			1580005811.0	0.12	0.22
26/01/2020 02:30:12	26012020	260120	023012	4.100	12.418488	-57.629690	4.010	-0.240	0.250	0.110	4.080	-1.200	0.300																			1580005812.0	0.49	0.91
26/01/2020 02:30:13	26012020	260120	023013	4.000	12.418487	-57.629688	3.950	-0.150	0.110	0.330	3.980	-1.200	0.600																			1580005813.0	0.50	0.93
26/01/2020 02:30:14	26012020	260120	023014	3.940	12.418487	-57.629688	3.910	0.030	-0.080	0.480	3.930	-1.400	0.800																			1580005814.0	0.25	0.46
26/01/2020 02:30:15	26012020	260120	023015	3.910	12.418487	-57.629687	3.880	0.110	-0.100	0.630	3.890	-1.500	0.900																			1580005815.0	0.28	0.52
26/01/2020 02:30:16	26012020	260120	023016	3.870	12.418487	-57.629687	3.900	0.080	-0.130	0.670	3.870	-1.500	1.000																			1580005816.0	0.12	0.22
26/01/2020 02:30:17	26012020	260120	023017	3.910	12.418487	-57.629687	4.030	0.070	-0.340	0.470	3.940	-1.600	1.000																			1580005817.0	0.13	0.24
26/01/2020 02:30:18	26012020	260120	023018	4.090	12.418487	-57.629687	4.290	0.120	-0.530	0.180	4.140	-1.800	0.700																			1580005818.0	0.11	0.20
26/01/2020 02:30:19	26012020	260120	023019	4.300	12.418487	-57.629687	4.470	0.140	-0.420	0.040	4.340	-1.900	0.400																			1580005819.0	0.27	0.50
26/01/2020 02:30:20	26012020	260120	023020	4.500	12.418488	-57.629688	4.460	0.040	-0.030	0.200	4.520	-1.600	0.500																			1580005820.0	0.15	0.28
26/01/2020 02:30:21	26012020	260120	023021	4.440	12.418487	-57.629687	4.240	-0.120	0.320	0.440	4.400	-1.200	0.700																			1580005821.0	0.25	0.46
26/01/2020 02:30:22	26012020	260120	023022	4.200	12.418485	-57.629685	4.010	-0.170	0.350	0.540	4.160	-1.000	0.900																			1580005822.0	0.46	0.85
26/01/2020 02:30:23	26012020	260120	023023	4.000	12.418485	-57.629685	3.940	-0.070	0.050	0.460	3.980	-1.200	0.900																			1580005823.0	0.27	0.50
26/01/2020 02:30:24	26012020	260120	023024	3.970	12.418485	-57.629685	4.050	0.060	-0.310	0.160	3.990	-1.500	0.700																			1580005824.0	0.15	0.28
26/01/2020 02:30:25	26012020	260120	023025	4.110	12.418487	-57.629685	4.240	0.030	-0.340	-0.170	4.150	-1.800	0.400																			1580005825.0	0.43	0.80
26/01/2020 02:30:26	26012020	260120	023026	4.310	12.418488	-57.629687	4.370	-0.120	-0.010	-0.310	4.330	-1.600	0.100																			1580005826.0	0.50	0.93
26/01/2020 02:30:27	26012020	260120	023027	4.420	12.418487	-57.629690	4.430	-0.200	0.210	-0.250	4.430	-1.200	0.100																			1580005827.0	0.51	0.94
26/01/2020 02:30:28	26012020	260120	023028	4.480	12.418485	-57.629690	4.540	-0.100	-0.030	-0.150	4.500	-1.200	0.200																			1580005828.0	0.52	0.96
26/01/2020 02:30:29	26012020	260120	023029	4.550	12.418483	-57.629688	4.630	0.070	-0.490	0.050	4.580	-1.700	0.300																			1580005829.0	0.30	0.56
26/01/2020 02:30:30	26012020	260120	023030	4.650	12.418485	-57.629687	4.640	0.180	-0.600	0.440	4.650	-2.000	0.600																			1580005830.0	0.49	0.91
26/01/2020 02:30:31	26012020	260120	023031	4.620	12.418487	-57.629685	4.560	0.210	-0.290	0.900	4.600	-1.800	1.100																			1580005831.0	0.52	0.96
26/01/2020 02:30:32	26012020	260120	023032	4.520	12.418487	-57.629683	4.490	0.180	0.030	1.120	4.500	-1.500	1.400																			1580005832.0	0.50	0.93
26/01/2020 02:30:33	26012020	260120	023033	4.460	12.418485	-57.629680	4.450	0.090	0.110	1.050	4.450	-1.300	1.500																			1580005833.0	0.56	1.04
26/01/2020 02:30:34	26012020	260120	023034	4.430	12.418485	-57.629680	4.440	-0.070	0.110	0.820	4.430	-1.300	1.300																			1580005834.0	0.25	0.46
26/01/2020 02:30:35	26012020	260120	023035	4.440	12.418485	-57.629680	4.490	-0.260	0.180	0.510	4.450	-1.200	1.000																			1580005835.0	0.08	0.15
26/01/2020 02:30:36	26012020	260120	023036	4.510	12.418485	-57.629682	4.600	-0.350	0.210	0.030	4.530	-1.200	0.700																			1580005836.0	0.28	0.52
26/01/2020 02:30:37	26012020	260120	023037	4.620	12.418485	-57.629683	4.670	-0.230	0.030	-0.420	4.640	-1.200	0.200																			1580005837.0	0.56	1.04
26/01/2020 02:30:38	26012020	260120	023038	4.690	12.418485	-57.629687	4.720	0.040	-0.340	-0.650	4.700	-1.500	-0.200																			1580005838.0	0.65	1.20
26/01/2020 02:30:39	26012020	260120	023039	4.740	12.418485	-57.629688	4.770	0.260	-0.680	-0.660	4.750	-1.900	-0.300																			1580005839.0	0.40	0.74
26/01/2020 02:30:40	26012020	260120	023040	4.810	12.418487	-57.629688	4.870	0.330	-0.730	-0.540	4.830	-2.100	-0.300																			1580005840.0	0.36	0.67
26/01/2020 02:30:41	26012020	260120	023041	4.910	12.418488	-57.629688	4.870	0.290	-0.330	-0.110	4.910	-2.000	0.000																			1580005841.0	0.27	0.50
26/01/2020 02:30:42	26012020	260120	023042	4.860	12.418488	-57.629687	4.670	0.180	0.280	0.560	4.820	-1.400	0.600																			1580005842.0	0.28	0.52
26/01/2020 02:30:43	26012020	260120	023043	4.680	12.418485	-57.629683	4.490	-0.010	0.560	1.100	4.630	-0.900	1.200																			1580005843.0	0.82	1.52
26/01/2020 02:30:44	26012020	260120	023044	4.460	12.418483	-57.629680	4.530	-0.230	0.320	1.200	4.460	-0.900	1.600																			1580005844.0	0.94	1.74
26/01/2020 02:30:45	26012020	260120	023045	4.560	12.418483	-57.629678	4.800	-0.400	-0.070	0.870	4.610	-1.300	1.400																			1580005845.0	0.43	0.80
26/01/2020 02:30:46	26012020	260120	023046	4.840	12.418485	-57.629678	5.060	-0.460	-0.160	0.430	4.890	-1.600	1.000																			1580005846.0	0.40	0.74
26/01/2020 02:30:47	26012020	260120	023047	5.100	12.418487	-57.629682	5.230	-0.350	-0.040	0.150	5.140	-1.500	0.600																			1580005847.0	0.61	1.13
26/01/2020 02:30:48	26012020	260120	023048	5.240	12.418485	-57.629683	5.220	-0.030	-0.110	0.180	5.250	-1.400	0.500																			1580005848.0	0.58	1.07
26/01/2020 02:30:49	26012020	260120	023049	5.200	12.418483	-57.629685	5.080	0.370	-0.480	0.410	5.180	-1.700	0.700																			1580005849.0	0.28	0.52
26/01/2020 02:30:50	26012020	260120	023050	5.050	12.418485	-57.629683	4.920	0.590	-0.790	0.590	5.020	-2.100	0.900																			1580005850.0	0.44	0.81
26/01/2020 02:30:51	26012020	260120	023051	4.890	12.418487	-57.629680	4.820	0.450	-0.660	0.490	4.870	-2.200	0.900																			1580005851.0	0.82	1.52
26/01/2020 02:30:52	26012020	260120	023052	4.810	12.418487	-57.629677	4.780	0.040	-0.050	0.240	4.810	-1.800	0.700																			1580005852.0	0.52	0.96
26/01/2020 02:30:53	26012020	260120	023053	4.780	12.418487	-57.629678	4.710	-0.340	0.600	0.010	4.770	-1.100	0.500																			1580005853.0	0.30	0.56
26/01/2020 02:30:54	26012020	260120	023054	4.700	12.418483	-57.629682	4.650	-0.380	0.740	-0.120	4.690	-0.600	0.300																			1580005854.0	0.93	1.72
26/01/2020 02:30:55	26012020	260120	023055	4.650	12.418483	-57.629687	4.690	-0.100	0.290	-0.220	4.650	-0.800	0.200																			1580005855.0	0.94	1.74
26/01/2020 02:30:56	26012020	260120	023056	4.720	12.418483	-57.629688	4.890	0.180	-0.390	-0.330	4.760	-1.500	0.100																			1580005856.0	0.53	0.98
26/01/2020 02:30:57	26012020	260120	023057	4.890	12.418487	-57.629688	5.180	0.180	-0.740	-0.330	4.940	-2.000	0.000																			1580005857.0	0.58	1.07
26/01/2020 02:30:58	26012020	260120	023058	5.240	12.418488	-57.629687	5.380	-0.060	-0.480	-0.000	5.280	-2.100	0.200																			1580005858.0	0.56	1.04
26/01/2020 02:30:59	26012020	260120	023059	5.390	12.418488	-57.629685	5.320	-0.260	0.100	0.690	5.390	-1.600	0.700	1015.40	25.50	25.60	21.30	21.30	-1.00	77.00	77.00	391.00	24.70	41.00	4.20	46.00	4.10	14	3367.00	27.40	27.40	1580005859.0	0.51	0.94
26/01/2020 02:31:00	26012020	260120	023100	5.260	12.418485	-57.629682	5.040	-0.250	0.370	1.320	5.210	-1.100	1.400																			1580005860.0	0.99	1.83
26/01/2020 02:31:01	26012020	260120	023101	4.970	12.418483	-57.629677	4.780	-0.030	0.080	1.440	4.910	-1.100	1.800																			1580005861.0	1.08	2.00
26/01/2020 02:31:02	26012020	260120	023102	4.730	12.418482	-57.629675	4.660	0.230	-0.430	1.110	4.700	-1.600	1.700																			1580005862.0	0.48	0.89
26/01/2020 02:31:03	26012020	260120	023103	4.650	12.418485	-57.629675	4.650	0.400	-0.630	0.710	4.640	-2.000	1.300																			1580005863.0	0.57	1.06
26/01/2020 02:31:04	26012020	260120	023104	4.670	12.418487	-57.629678	4.740	0.360	-0.430	0.300	4.690	-1.900	0.900																			1580005864.0	0.75	1.39
26/01/2020 02:31:05	26012020	260120	023105	4.770	12.418488	-57.629680	4.830	0.080	-0.070	-0.200	4.790	-1.600	0.400																			1580005865.0	0.46	0.85
26/01/2020 02:31:06	26012020	260120	023106	4.860	12.418487	-57.629682	4.830	-0.290	0.330	-0.680	4.860	-1.200	-0.100																			1580005866.0	0.52	0.96
26/01/2020 02:31:07	26012020	260120	023107	4.870	12.418487	-57.629685	4.830	-0.490	0.570	-0.900	4.870	-0.900	-0.500																			1580005867.0	0.74	1.37
26/01/2020 02:31:08	26012020	260120	023108	4.870	12.418485	-57.629688	4.880	-0.380	0.430	-0.790	4.880	-0.800	-0.500																			1580005868.0	0.69	1.28
26/01/2020 02:31:09	26012020	260120	023109	4.910	12.418483	-57.629690	5.000	-0.050	-0.080	-0.490	4.920	-1.200	-0.300																			1580005869.0	0.23	0.43
26/01/2020 02:31:10	26012020	260120	023110	5.030	12.418485	-57.629688	5.070	0.220	-0.590	-0.060	5.050	-1.800	0.100																			1580005870.0	0.39	0.72
26/01/2020 02:31:11	26012020	260120	023111	5.080	12.418487	-57.629685	5.000	0.230	-0.680	0.460	5.070	-2.100	0.600																			1580005871.0	0.82	1.52
26/01/2020 02:31:12	26012020	260120	023112	4.960	12.418487	-57.629680	4.880	0.050	-0.440	0.910	4.930	-2.000	1.100																			1580005872.0	0.83	1.54
26/01/2020 02:31:13	26012020	260120	023113	4.840	12.418487	-57.629678	4.840	-0.090	-0.160	1.140	4.830	-1.700	1.400																			1580005873.0	0.60	1.11
26/01/2020 02:31:14	26012020	260120	023114	4.820	12.418485	-57.629677	4.850	-0.010	0.020	1.190	4.820	-1.400	1.500																			1580005874.0	0.35	0.65
26/01/2020 02:31:15	26012020	260120	023115	4.820	12.418485	-57.629678	4.780	0.210	0.070	1.140	4.810	-1.300	1.500																			1580005875.0	0.15	0.28
26/01/2020 02:31:16	26012020	260120	023116	4.760	12.418485	-57.629678	4.760	0.360	0.020	0.930	4.750	-1.300	1.400																			1580005876.0	0.09	0.17
26/01/2020 02:31:17	26012020	260120	023117	4.750	12.418485	-57.629678	4.850	0.310	-0.080	0.530	4.760	-1.400	1.100																			1580005877.0	0.16	0.30
26/01/2020 02:31:18	26012020	260120	023118	4.860	12.418487	-57.629678	4.970	0.070	-0.120	0.030	4.890	-1.500	0.600																			1580005878.0	0.23	0.43
26/01/2020 02:31:19	26012020	260120	023119	4.980	12.418487	-57.629680	4.960	-0.230	0.020	-0.360	4.980	-1.500	0.200																			1580005879.0	0.32	0.59
26/01/2020 02:31:20	26012020	260120	023120	4.930	12.418487	-57.629682	4.790	-0.430	0.230	-0.520	4.910	-1.300	-0.100																			1580005880.0	0.43	0.80
26/01/2020 02:31:21	26012020	260120	023121	4.760	12.418487	-57.629683	4.670	-0.430	0.180	-0.550	4.730	-1.100	-0.200																			1580005881.0	0.45	0.83
26/01/2020 02:31:22	26012020	260120	023122	4.680	12.418485	-57.629685	4.740	-0.260	-0.190	-0.590	4.690	-1.400	-0.200																			1580005882.0	0.35	0.65
26/01/2020 02:31:23	26012020	260120	023123	4.780	12.418485	-57.629687	4.890	-0.020	-0.480	-0.540	4.810	-1.800	-0.200																			1580005883.0	0.29	0.54
26/01/2020 02:31:24	26012020	260120	023124	4.930	12.418487	-57.629687	4.960	0.160	-0.390	-0.200	4.940	-1.900	-0.000																			1580005884.0	0.36	0.67
26/01/2020 02:31:25	26012020	260120	023125	4.960	12.418487	-57.629685	4.880	0.190	-0.060	0.370	4.950	-1.600	0.400																			1580005885.0	0.33	0.61
26/01/2020 02:31:26	26012020	260120	023126	4.840	12.418485	-57.629682	4.750	0.100	0.090	0.980	4.810	-1.300	1.100																			1580005886.0	0.79	1.46
26/01/2020 02:31:27	26012020	260120	023127	4.710	12.418483	-57.629678	4.770	0.040	-0.160	1.250	4.710	-1.400	1.500																			1580005887.0	0.86	1.59
26/01/2020 02:31:28	26012020	260120	023128	4.780	12.418483	-57.629677	4.990	0.070	-0.510	1.070	4.820	-1.800	1.600																			1580005888.0	0.49	0.91
26/01/2020 02:31:29	26012020	260120	023129	5.000	12.418487	-57.629677	5.120	0.150	-0.460	0.790	5.040	-1.900	1.300																			1580005889.0	0.42	0.78
26/01/2020 02:31:30	26012020	260120	023130	5.100	12.418488	-57.629678	5.040	0.190	0.060	0.730	5.090	-1.600	1.100																			1580005890.0	0.52	0.96
26/01/2020 02:31:31	26012020	260120	023131	5.000	12.418487	-57.629678	4.860	0.110	0.520	0.750	4.970	-1.000	1.100																			1580005891.0	0.26	0.48
26/01/2020 02:31:32	26012020	260120	023132	4.830	12.418485	-57.629678	4.750	-0.070	0.470	0.550	4.800	-0.800	1.100																			1580005892.0	0.54	1.00
26/01/2020 02:31:33	26012020	260120	023133	4.760	12.418483	-57.629678	4.860	-0.220	-0.030	-0.020	4.770	-1.200	0.700																			1580005893.0	0.31	0.57
26/01/2020 02:31:34	26012020	260120	023134	4.920	12.418483	-57.629680	5.090	-0.260	-0.510	-0.630	4.970	-1.700	0.000																			1580005894.0	0.42	0.78
26/01/2020 02:31:35	26012020	260120	023135	5.160	12.418487	-57.629683	5.240	-0.160	-0.610	-0.910	5.200	-2.000	-0.500																			1580005895.0	0.93	1.72
26/01/2020 02:31:36	26012020	260120	023136	5.290	12.418488	-57.629687	5.230	0.010	-0.370	-0.740	5.300	-1.900	-0.500																			1580005896.0	0.77	1.43
26/01/2020 02:31:37	26012020	260120	023137	5.260	12.418488	-57.629688	5.170	0.190	-0.090	-0.260	5.250	-1.600	-0.100																			1580005897.0	0.26	0.48
26/01/2020 02:31:38	26012020	260120	023138	5.180	12.418487	-57.629687	5.090	0.280	0.010	0.330	5.160	-1.400	0.400																			1580005898.0	0.49	0.91
26/01/2020 02:31:39	26012020	260120	023139	5.070	12.418485	-57.629682	5.010	0.180	0.010	0.810	5.050	-1.400	1.000																			1580005899.0	0.89	1.65
26/01/2020 02:31:40	26012020	260120	023140	4.990	12.418485	-57.629678	5.050	-0.050	0.060	1.060	4.990	-1.400	1.300																			1580005900.0	0.87	1.61
26/01/2020 02:31:41	26012020	260120	023141	5.050	12.418485	-57.629675	5.200	-0.220	0.130	1.070	5.080	-1.300	1.500																			1580005901.0	0.45	0.83
26/01/2020 02:31:42	26012020	260120	023142	5.210	12.418485	-57.629675	5.300	-0.260	0.140	0.940	5.240	-1.200	1.400																			1580005902.0	0.09	0.17
26/01/2020 02:31:43	26012020	260120	023143	5.280	12.418485	-57.629677	5.270	-0.170	0.030	0.730	5.280	-1.300	1.200																			1580005903.0	0.25	0.46
26/01/2020 02:31:44	26012020	260120	023144	5.250	12.418485	-57.629678	5.200	-0.030	-0.180	0.520	5.230	-1.500	1.000																			1580005904.0	0.31	0.57
26/01/2020 02:31:45	26012020	260120	023145	5.170	12.418485	-57.629678	5.190	0.090	-0.410	0.340	5.170	-1.700	0.800																			1580005905.0	0.21	0.39
26/01/2020 02:31:46	26012020	260120	023146	5.170	12.418485	-57.629678	5.240	0.140	-0.570	0.140	5.190	-1.900	0.600																			1580005906.0	0.12	0.22
26/01/2020 02:31:47	26012020	260120	023147	5.230	12.418485	-57.629680	5.300	0.160	-0.510	-0.080	5.250	-2.000	0.400																			1580005907.0	0.17	0.31
26/01/2020 02:31:48	26012020	260120	023148	5.290	12.418487	-57.629680	5.200	0.150	-0.180	-0.210	5.280	-1.800	0.200																			1580005908.0	0.23	0.43
26/01/2020 02:31:49	26012020	260120	023149	5.170	12.418487	-57.629682	4.960	0.110	0.240	-0.130	5.130	-1.300	0.200																			1580005909.0	0.29	0.54
26/01/2020 02:31:50	26012020	260120	023150	4.930	12.418485	-57.629682	4.900	0.040	0.330	-0.050	4.910	-1.000	0.300																			1580005910.0	0.32	0.59
26/01/2020 02:31:51	26012020	260120	023151	4.930	12.418483	-57.629683	5.170	-0.010	0.010	-0.170	4.980	-1.200	0.300																			1580005911.0	0.23	0.43
26/01/2020 02:31:52	26012020	260120	023152	5.250	12.418485	-57.629683	5.490	-0.060	-0.210	-0.210	5.330	-1.600	0.100																			1580005912.0	0.20	0.37
26/01/2020 02:31:53	26012020	260120	023153	5.540	12.418487	-57.629683	5.520	-0.140	0.030	0.130	5.550	-1.500	0.300																			1580005913.0	0.39	0.72
26/01/2020 02:31:54	26012020	260120	023154	5.500	12.418487	-57.629682	5.310	-0.240	0.360	0.700	5.460	-1.200	0.800																			1580005914.0	0.33	0.61
26/01/2020 02:31:55	26012020	260120	023155	5.250	12.418483	-57.629678	5.090	-0.250	0.170	1.110	5.200	-1.000	1.300																			1580005915.0	0.87	1.61
26/01/2020 02:31:56	26012020	260120	023156	5.050	12.418482	-57.629675	5.050	-0.100	-0.530	1.070	5.030	-1.600	1.500																			1580005916.0	0.77	1.43
26/01/2020 02:31:57	26012020	260120	023157	5.040	12.418483	-57.629673	5.070	0.190	-1.040	0.810	5.050	-2.300	1.300																			1580005917.0	0.42	0.78
26/01/2020 02:31:58	26012020	260120	023158	5.050	12.418487	-57.629675	4.990	0.440	-0.800	0.620	5.040	-2.400	1.100																			1580005918.0	0.79	1.46
26/01/2020 02:31:59	26012020	260120	023159	4.980	12.418488	-57.629677	4.890	0.450	-0.120	0.420	4.960	-1.900	0.900	1015.40	25.50	25.60	21.30	21.30	-1.00	77.00	77.00	391.00	24.70	38.00	4.70	45.00	4.50	14	3329.00	27.40	27.40	1580005919.0	0.48	0.89
26/01/2020 02:32:00	26012020	260120	023200	4.890	12.418487	-57.629678	4.900	0.170	0.470	0.140	4.880	-1.200	0.700																			1580005920.0	0.43	0.80
26/01/2020 02:32:01	26012020	260120	023201	4.920	12.418485	-57.629680	5.000	-0.230	0.680	-0.240	4.930	-0.800	0.300																			1580005921.0	0.60	1.11
26/01/2020 02:32:02	26012020	260120	023202	5.020	12.418483	-57.629682	5.090	-0.510	0.590	-0.530	5.040	-0.700	-0.000																			1580005922.0	0.56	1.04
26/01/2020 02:32:03	26012020	260120	023203	5.110	12.418483	-57.629685	5.140	-0.550	0.300	-0.590	5.120	-0.900	-0.200																			1580005923.0	0.51	0.94
26/01/2020 02:32:04	26012020	260120	023204	5.170	12.418483	-57.629685	5.220	-0.360	-0.150	-0.440	5.190	-1.300	-0.200																			1580005924.0	0.25	0.46
26/01/2020 02:32:05	26012020	260120	023205	5.230	12.418483	-57.629685	5.200	-0.080	-0.630	-0.060	5.240	-1.800	0.100																			1580005925.0	0.17	0.31
26/01/2020 02:32:06	26012020	260120	023206	5.170	12.418485	-57.629682	5.060	0.170	-0.900	0.470	5.150	-2.200	0.600																			1580005926.0	0.54	1.00
26/01/2020 02:32:07	26012020	260120	023207	5.000	12.418485	-57.629678	4.840	0.330	-0.800	1.000	4.960	-2.300	1.100																			1580005927.0	0.74	1.37
26/01/2020 02:32:08	26012020	260120	023208	4.770	12.418485	-57.629675	4.620	0.400	-0.430	1.270	4.720	-2.000	1.600																			1580005928.0	0.74	1.37
26/01/2020 02:32:09	26012020	260120	023209	4.550	12.418485	-57.629673	4.450	0.400	-0.100	1.130	4.510	-1.600	1.600																			1580005929.0	0.52	0.96
26/01/2020 02:32:10	26012020	260120	023210	4.410	12.418483	-57.629673	4.420	0.340	0.050	0.650	4.390	-1.400	1.300																			1580005930.0	0.17	0.31
26/01/2020 02:32:11	26012020	260120	023211	4.440	12.418485	-57.629675	4.600	0.190	0.190	0.040	4.480	-1.300	0.700																			1580005931.0	0.55	1.02
26/01/2020 02:32:12	26012020	260120	023212	4.660	12.418485	-57.629680	4.820	-0.070	0.440	-0.430	4.720	-1.100	0.100																			1580005932.0	0.88	1.63
26/01/2020 02:32:13	26012020	260120	023213	4.880	12.418485	-57.629683	4.880	-0.340	0.660	-0.630	4.900	-0.800	-0.200																			1580005933.0	0.77	1.43
26/01/2020 02:32:14	26012020	260120	023214	4.910	12.418485	-57.629685	4.770	-0.500	0.630	-0.500	4.890	-0.700	-0.200																			1580005934.0	0.46	0.85
26/01/2020 02:32:15	26012020	260120	023215	4.760	12.418483	-57.629685	4.580	-0.490	0.240	-0.130	4.720	-0.900	0.000																			1580005935.0	0.32	0.59
26/01/2020 02:32:16	26012020	260120	023216	4.560	12.418482	-57.629683	4.470	-0.330	-0.430	0.230	4.530	-1.500	0.400																			1580005936.0	0.53	0.98
26/01/2020 02:32:17	26012020	260120	023217	4.480	12.418483	-57.629680	4.480	-0.160	-0.950	0.440	4.480	-2.100	0.700																			1580005937.0	0.70	1.30
26/01/2020 02:32:18	26012020	260120	023218	4.470	12.418485	-57.629677	4.440	-0.050	-0.980	0.560	4.470	-2.400	0.900																			1580005938.0	0.60	1.11
26/01/2020 02:32:19	26012020	260120	023219	4.410	12.418485	-57.629677	4.320	0.060	-0.650	0.610	4.390	-2.200	1.000																			1580005939.0	0.15	0.28
26/01/2020 02:32:20	26012020	260120	023220	4.290	12.418483	-57.629678	4.160	0.280	-0.240	0.640	4.260	-1.800	1.000																			1580005940.0	0.34	0.63
26/01/2020 02:32:21	26012020	260120	023221	4.130	12.418483	-57.629680	4.010	0.540	0.010	0.700	4.090	-1.500	1.000																			1580005941.0	0.45	0.83
26/01/2020 02:32:22	26012020	260120	023222	3.990	12.418482	-57.629680	3.980	0.700	0.050	0.640	3.980	-1.300	1.100																			1580005942.0	0.16	0.30
26/01/2020 02:32:23	26012020	260120	023223	3.990	12.418483	-57.629680	4.160	0.580	-0.000	0.330	4.010	-1.400	0.900																			1580005943.0	0.18	0.33
26/01/2020 02:32:24	26012020	260120	023224	4.220	12.418485	-57.629680	4.410	0.200	0.110	-0.040	4.280	-1.400	0.500																			1580005944.0	0.29	0.54
26/01/2020 02:32:25	26012020	260120	023225	4.440	12.418485	-57.629680	4.520	-0.290	0.440	-0.200	4.480	-1.100	0.200																			1580005945.0	0.29	0.54
26/01/2020 02:32:26	26012020	260120	023226	4.530	12.418485	-57.629682	4.350	-0.670	0.720	-0.090	4.500	-0.800	0.200																			1580005946.0	0.28	0.52
26/01/2020 02:32:27	26012020	260120	023227	4.310	12.418483	-57.629682	4.070	-0.750	0.550	0.070	4.260	-0.700	0.400																			1580005947.0	0.43	0.80
26/01/2020 02:32:28	26012020	260120	023228	4.050	12.418482	-57.629682	3.900	-0.510	-0.010	0.190	4.020	-1.100	0.500																			1580005948.0	0.32	0.59
26/01/2020 02:32:29	26012020	260120	023229	3.920	12.418482	-57.629682	3.920	-0.110	-0.690	0.270	3.920	-1.800	0.600																			1580005949.0	0.11	0.20
26/01/2020 02:32:30	26012020	260120	023230	3.950	12.418483	-57.629680	3.980	0.230	-1.130	0.310	3.970	-2.400	0.700																			1580005950.0	0.35	0.65
26/01/2020 02:32:31	26012020	260120	023231	4.010	12.418485	-57.629680	3.940	0.370	-1.040	0.320	4.000	-2.500	0.700																			1580005951.0	0.41	0.76
26/01/2020 02:32:32	26012020	260120	023232	3.960	12.418485	-57.629680	3.820	0.340	-0.530	0.300	3.930	-2.200	0.700																			1580005952.0	0.15	0.28
26/01/2020 02:32:33	26012020	260120	023233	3.820	12.418485	-57.629680	3.640	0.250	0.050	0.360	3.780	-1.600	0.700																			1580005953.0	0.23	0.43
26/01/2020 02:32:34	26012020	260120	023234	3.650	12.418483	-57.629680	3.500	0.170	0.410	0.420	3.620	-1.100	0.800																			1580005954.0	0.37	0.69
26/01/2020 02:32:35	26012020	260120	023235	3.540	12.418482	-57.629682	3.490	0.110	0.410	0.280	3.520	-0.900	0.800																			1580005955.0	0.25	0.46
26/01/2020 02:32:36	26012020	260120	023236	3.540	12.418482	-57.629682	3.670	0.070	0.200	-0.020	3.570	-1.100	0.500																			1580005956.0	0.22	0.41
26/01/2020 02:32:37	26012020	260120	023237	3.700	12.418483	-57.629683	3.920	-0.020	0.080	-0.250	3.750	-1.300	0.200																			1580005957.0	0.45	0.83
26/01/2020 02:32:38	26012020	260120	023238	3.970	12.418485	-57.629685	3.990	-0.160	0.200	-0.140	3.990	-1.300	0.100																			1580005958.0	0.42	0.78
26/01/2020 02:32:39	26012020	260120	023239	3.990	12.418485	-57.629685	3.860	-0.260	0.250	0.250	3.970	-1.100	0.400																			1580005959.0	0.11	0.20
26/01/2020 02:32:40	26012020	260120	023240	3.830	12.418483	-57.629683	3.750	-0.220	-0.120	0.500	3.810	-1.300	0.800																			1580005960.0	0.58	1.07
26/01/2020 02:32:41	26012020	260120	023241	3.760	12.418482	-57.629680	3.790	-0.060	-0.710	0.530	3.760	-1.800	0.900																			1580005961.0	0.72	1.33
26/01/2020 02:32:42	26012020	260120	023242	3.800	12.418483	-57.629678	3.790	0.100	-0.870	0.590	3.810	-2.300	0.900																			1580005962.0	0.57	1.06
26/01/2020 02:32:43	26012020	260120	023243	3.770	12.418485	-57.629678	3.630	0.180	-0.480	0.740	3.750	-2.100	1.000																			1580005963.0	0.44	0.81
26/01/2020 02:32:44	26012020	260120	023244	3.580	12.418485	-57.629678	3.320	0.150	0.090	0.790	3.520	-1.500	1.200																			1580005964.0	0.04	0.07
26/01/2020 02:32:45	26012020	260120	023245	3.270	12.418483	-57.629678	3.110	0.040	0.310	0.500	3.220	-1.100	1.100																			1580005965.0	0.45	0.83
26/01/2020 02:32:46	26012020	260120	023246	3.110	12.418482	-57.629680	3.200	-0.040	0.070	-0.130	3.120	-1.200	0.600																			1580005966.0	0.47	0.87
26/01/2020 02:32:47	26012020	260120	023247	3.280	12.418482	-57.629683	3.540	-0.030	-0.210	-0.770	3.350	-1.500	-0.100																			1580005967.0	0.75	1.39
26/01/2020 02:32:48	26012020	260120	023248	3.640	12.418485	-57.629688	3.770	0.020	-0.170	-0.990	3.700	-1.600	-0.600																			1580005968.0	1.02	1.89
26/01/2020 02:32:49	26012020	260120	023249	3.810	12.418485	-57.629690	3.800	-0.000	0.040	-0.770	3.830	-1.400	-0.500																			1580005969.0	0.62	1.15
26/01/2020 02:32:50	26012020	260120	023250	3.810	12.418485	-57.629690	3.710	-0.070	0.120	-0.350	3.790	-1.300	-0.200																			1580005970.0	0.13	0.24
26/01/2020 02:32:51	26012020	260120	023251	3.720	12.418483	-57.629688	3.580	-0.080	0.020	0.180	3.700	-1.300	0.300																			1580005971.0	0.45	0.83
26/01/2020 02:32:52	26012020	260120	023252	3.570	12.418483	-57.629685	3.470	-0.050	-0.060	0.740	3.540	-1.400	0.800																			1580005972.0	0.64	1.19
26/01/2020 02:32:53	26012020	260120	023253	3.460	12.418483	-57.629682	3.390	-0.050	-0.100	1.140	3.430	-1.500	1.300																			1580005973.0	0.83	1.54
26/01/2020 02:32:54	26012020	260120	023254	3.370	12.418483	-57.629678	3.350	-0.050	-0.200	1.280	3.360	-1.500	1.600																			1580005974.0	0.67	1.24
26/01/2020 02:32:55	26012020	260120	023255	3.330	12.418483	-57.629678	3.390	0.060	-0.410	1.110	3.340	-1.700	1.600																			1580005975.0	0.18	0.33
26/01/2020 02:32:56	26012020	260120	023256	3.410	12.418483	-57.629678	3.570	0.250	-0.610	0.680	3.430	-1.900	1.300																			1580005976.0	0.31	0.57
26/01/2020 02:32:57	26012020	260120	023257	3.600	12.418485	-57.629682	3.770	0.330	-0.540	0.160	3.650	-2.000	0.800																			1580005977.0	0.55	1.02
26/01/2020 02:32:58	26012020	260120	023258	3.810	12.418487	-57.629683	3.830	0.190	-0.010	-0.180	3.830	-1.700	0.300																			1580005978.0	0.61	1.13
26/01/2020 02:32:59	26012020	260120	023259	3.850	12.418487	-57.629685	3.640	-0.070	0.710	-0.110	3.830	-1.000	0.200	1015.40	25.50	25.50	21.20	21.20	-1.00	77.00	76.00	391.00	24.70	44.00	4.80	49.00	4.70	14	3330.00	27.40	27.40	1580005979.0	0.48	0.89
26/01/2020 02:33:00	26012020	260120	023300	3.620	12.418483	-57.629687	3.420	-0.260	0.950	0.100	3.570	-0.400	0.400																			1580005980.0	0.57	1.06
26/01/2020 02:33:01	26012020	260120	023301	3.440	12.418480	-57.629685	3.440	-0.260	0.280	-0.010	3.420	-0.700	0.500																			1580005981.0	0.72	1.33
26/01/2020 02:33:02	26012020	260120	023302	3.480	12.418480	-57.629683	3.620	-0.140	-0.720	-0.320	3.520	-1.700	0.200																			1580005982.0	0.25	0.46
26/01/2020 02:33:03	26012020	260120	023303	3.670	12.418483	-57.629685	3.730	-0.040	-1.160	-0.520	3.700	-2.400	-0.100																			1580005983.0	0.82	1.52
26/01/2020 02:33:04	26012020	260120	023304	3.760	12.418488	-57.629687	3.630	-0.020	-0.730	-0.420	3.750	-2.400	-0.100																			1580005984.0	0.84	1.56
26/01/2020 02:33:05	26012020	260120	023305	3.630	12.418488	-57.629688	3.420	-0.010	0.060	-0.020	3.590	-1.700	0.100																			1580005985.0	0.35	0.65
26/01/2020 02:33:06	26012020	260120	023306	3.410	12.418485	-57.629688	3.310	0.120	0.370	0.430	3.370	-1.100	0.600																			1580005986.0	0.68	1.26
26/01/2020 02:33:07	26012020	260120	023307	3.320	12.418482	-57.629688	3.420	0.310	0.050	0.660	3.330	-1.100	1.000																			1580005987.0	0.61	1.13
26/01/2020 02:33:08	26012020	260120	023308	3.470	12.418483	-57.629685	3.640	0.330	-0.280	0.630	3.510	-1.600	1.000																			1580005988.0	0.45	0.83
26/01/2020 02:33:09	26012020	260120	023309	3.680	12.418485	-57.629683	3.800	0.010	-0.100	0.470	3.720	-1.600	0.900																			1580005989.0	0.68	1.26
26/01/2020 02:33:10	26012020	260120	023310	3.830	12.418487	-57.629683	3.880	-0.440	0.370	0.370	3.850	-1.300	0.800																			1580005990.0	0.21	0.39
26/01/2020 02:33:11	26012020	260120	023311	3.890	12.418485	-57.629685	3.840	-0.620	0.580	0.470	3.890	-0.900	0.800																			1580005991.0	0.47	0.87
26/01/2020 02:33:12	26012020	260120	023312	3.820	12.418482	-57.629685	3.730	-0.320	0.170	0.610	3.800	-1.000	0.900																			1580005992.0	0.60	1.11
26/01/2020 02:33:13	26012020	260120	023313	3.720	12.418482	-57.629685	3.600	0.240	-0.580	0.570	3.700	-1.600	1.000																			1580005993.0	0.16	0.30
26/01/2020 02:33:14	26012020	260120	023314	3.580	12.418483	-57.629683	3.410	0.620	-1.000	0.470	3.540	-2.300	0.900																			1580005994.0	0.56	1.04
26/01/2020 02:33:15	26012020	260120	023315	3.420	12.418487	-57.629683	3.210	0.590	-0.800	0.360	3.380	-2.400	0.800																			1580005995.0	0.65	1.20
26/01/2020 02:33:16	26012020	260120	023316	3.160	12.418487	-57.629683	3.110	0.300	-0.300	0.150	3.140	-1.900	0.700																			1580005996.0	0.18	0.33
26/01/2020 02:33:17	26012020	260120	023317	3.110	12.418487	-57.629685	3.170	0.030	0.060	-0.250	3.120	-1.500	0.300																			1580005997.0	0.45	0.83
26/01/2020 02:33:18	26012020	260120	023318	3.240	12.418485	-57.629688	3.320	-0.160	0.280	-0.610	3.270	-1.200	-0.100																			1580005998.0	0.66	1.22
26/01/2020 02:33:19	26012020	260120	023319	3.380	12.418485	-57.629692	3.380	-0.320	0.550	-0.710	3.390	-1.000	-0.300																			1580005999.0	0.76	1.41
26/01/2020 02:33:20	26012020	260120	023320	3.420	12.418485	-57.629693	3.370	-0.500	0.770	-0.510	3.420	-0.700	-0.300																			1580006000.0	0.54	1.00
26/01/2020 02:33:21	26012020	260120	023321	3.390	12.418483	-57.629695	3.320	-0.630	0.650	-0.100	3.380	-0.600	0.100																			1580006001.0	0.30	0.56
26/01/2020 02:33:22	26012020	260120	023322	3.320	12.418482	-57.629693	3.320	-0.570	0.030	0.370	3.320	-1.000	0.500																			1580006002.0	0.52	0.96
26/01/2020 02:33:23	26012020	260120	023323	3.330	12.418482	-57.629690	3.420	-0.240	-0.770	0.780	3.350	-1.800	1.000																			1580006003.0	0.57	1.06
26/01/2020 02:33:24	26012020	260120	023324	3.430	12.418483	-57.629687	3.510	0.240	-1.240	1.060	3.450	-2.500	1.300																			1580006004.0	0.71	1.31
26/01/2020 02:33:25	26012020	260120	023325	3.490	12.418485	-57.629685	3.470	0.660	-1.150	1.260	3.490	-2.600	1.500																			1580006005.0	0.71	1.31
26/01/2020 02:33:26	26012020	260120	023326	3.410	12.418487	-57.629682	3.210	0.840	-0.660	1.430	3.370	-2.300	1.700																			1580006006.0	0.50	0.93
26/01/2020 02:33:27	26012020	260120	023327	3.140	12.418485	-57.629680	2.900	0.720	-0.110	1.360	3.080	-1.800	1.800																			1580006007.0	0.39	0.72
26/01/2020 02:33:28	26012020	260120	023328	2.870	12.418485	-57.629680	2.740	0.420	0.270	0.850	2.830	-1.300	1.500																			1580006008.0	0.19	0.35
26/01/2020 02:33:29	26012020	260120	023329	2.750	12.418485	-57.629682	2.760	0.030	0.490	-0.020	2.750	-1.000	0.800																			1580006009.0	0.46	0.85
26/01/2020 02:33:30	26012020	260120	023330	2.830	12.418485	-57.629687	2.920	-0.380	0.670	-0.960	2.860	-0.800	-0.100																			1580006010.0	1.03	1.91
26/01/2020 02:33:31	26012020	260120	023331	3.030	12.418485	-57.629693	3.120	-0.720	0.830	-1.610	3.070	-0.600	-1.000																			1580006011.0	1.35	2.50
26/01/2020 02:33:32	26012020	260120	023332	3.220	12.418485	-57.629700	3.230	-0.830	0.770	-1.720	3.250	-0.600	-1.400																			1580006012.0	1.28	2.37
26/01/2020 02:33:33	26012020	260120	023333	3.310	12.418483	-57.629703	3.260	-0.630	0.240	-1.300	3.310	-0.800	-1.200																			1580006013.0	0.75	1.39
26/01/2020 02:33:34	26012020	260120	023334	3.320	12.418482	-57.629702	3.290	-0.200	-0.710	-0.550	3.320	-1.600	-0.600																			1580006014.0	0.33	0.61
26/01/2020 02:33:35	26012020	260120	023335	3.340	12.418483	-57.629697	3.340	0.240	-1.560	0.220	3.350	-2.600	0.200																			1580006015.0	1.03	1.91
26/01/2020 02:33:36	26012020	260120	023336	3.370	12.418487	-57.629690	3.310	0.500	-1.590	1.000	3.360	-3.100	1.000																			1580006016.0	1.43	2.65
26/01/2020 02:33:37	26012020	260120	023337	3.300	12.418488	-57.629685	3.160	0.540	-0.770	1.710	3.270	-2.600	1.800																			1580006017.0	1.23	2.28
26/01/2020 02:33:38	26012020	260120	023338	3.110	12.418487	-57.629680	2.930	0.460	0.150	2.080	3.060	-1.600	2.300																			1580006018.0	0.98	1.81
26/01/2020 02:33:39	26012020	260120	023339	2.910	12.418483	-57.629678	2.750	0.350	0.500	1.810	2.860	-1.000	2.400																			1580006019.0	0.84	1.56
26/01/2020 02:33:40	26012020	260120	023340	2.700	12.418482	-57.629680	2.770	0.210	0.410	0.980	2.700	-0.900	1.800																			1580006020.0	0.35	0.65
26/01/2020 02:33:41	26012020	260120	023341	2.790	12.418483	-57.629685	2.990	0.030	0.400	-0.020	2.830	-1.000	0.800																			1580006021.0	1.12	2.07
26/01/2020 02:33:42	26012020	260120	023342	3.050	12.418485	-57.629690	3.280	-0.190	0.590	-0.860	3.110	-0.900	-0.100																			1580006022.0	1.44	2.67
26/01/2020 02:33:43	26012020	260120	023343	3.380	12.418485	-57.629697	3.550	-0.410	0.570	-1.370	3.440	-0.800	-0.800																			1580006023.0	1.09	2.02
26/01/2020 02:33:44	26012020	260120	023344	3.650	12.418483	-57.629698	3.680	-0.550	0.140	-1.440	3.690	-1.000	-1.100																			1580006024.0	0.59	1.09
26/01/2020 02:33:45	26012020	260120	023345	3.740	12.418483	-57.629698	3.600	-0.550	-0.420	-1.120	3.730	-1.600	-0.900																			1580006025.0	0.10	0.19
26/01/2020 02:33:46	26012020	260120	023346	3.630	12.418485	-57.629697	3.450	-0.330	-0.760	-0.500	3.590	-2.000	-0.500																			1580006026.0	0.45	0.83
26/01/2020 02:33:47	26012020	260120	023347	3.460	12.418485	-57.629693	3.360	0.070	-0.840	0.260	3.430	-2.200	0.300																			1580006027.0	0.63	1.17
26/01/2020 02:33:48	26012020	260120	023348	3.350	12.418485	-57.629688	3.280	0.410	-0.760	0.900	3.330	-2.200	1.000																			1580006028.0	0.87	1.61
26/01/2020 02:33:49	26012020	260120	023349	3.240	12.418485	-57.629685	3.130	0.500	-0.490	1.230	3.210	-2.000	1.500																			1580006029.0	0.93	1.72
26/01/2020 02:33:50	26012020	260120	023350	3.090	12.418485	-57.629682	3.040	0.360	-0.160	1.140	3.060	-1.700	1.600																			1580006030.0	0.55	1.02
26/01/2020 02:33:51	26012020	260120	023351	3.030	12.418485	-57.629682	3.080	0.210	0.130	0.730	3.030	-1.400	1.300																			1580006031.0	0.11	0.20
26/01/2020 02:33:52	26012020	260120	023352	3.100	12.418485	-57.629685	3.230	0.200	0.320	0.290	3.130	-1.100	0.900																			1580006032.0	0.72	1.33
26/01/2020 02:33:53	26012020	260120	023353	3.280	12.418485	-57.629690	3.480	0.250	0.350	-0.020	3.340	-1.000	0.500																			1580006033.0	0.90	1.67
26/01/2020 02:33:54	26012020	260120	023354	3.550	12.418485	-57.629693	3.660	0.130	0.310	-0.160	3.590	-1.100	0.300																			1580006034.0	0.55	1.02
26/01/2020 02:33:55	26012020	260120	023355	3.710	12.418487	-57.629693	3.740	-0.220	0.260	-0.250	3.730	-1.100	0.200																			1580006035.0	0.17	0.31
26/01/2020 02:33:56	26012020	260120	023356	3.790	12.418487	-57.629692	3.860	-0.550	0.130	-0.360	3.810	-1.200	0.100																			1580006036.0	0.13	0.24
26/01/2020 02:33:57	26012020	260120	023357	3.900	12.418485	-57.629692	3.960	-0.610	-0.050	-0.300	3.930	-1.400	0.000																			1580006037.0	0.20	0.37
26/01/2020 02:33:58	26012020	260120	023358	3.970	12.418485	-57.629690	3.850	-0.390	-0.150	0.160	3.960	-1.500	0.300																			1580006038.0	0.21	0.39
26/01/2020 02:33:59	26012020	260120	023359	3.810	12.418485	-57.629688	3.590	-0.040	-0.340	0.740	3.750	-1.600	0.800	1015.40	25.40	25.50	21.20	21.10	-1.00	77.00	76.00	391.00	24.70	45.00	4.40	51.00	4.20	14	3465.00	27.50	27.40	1580006039.0	0.52	0.96
26/01/2020 02:34:00	26012020	260120	023400	3.550	12.418483	-57.629685	3.410	0.270	-0.760	0.910	3.500	-1.900	1.300																			1580006040.0	0.80	1.48
26/01/2020 02:34:01	26012020	260120	023401	3.380	12.418483	-57.629682	3.340	0.440	-1.060	0.620	3.360	-2.400	1.200																			1580006041.0	0.55	1.02
26/01/2020 02:34:02	26012020	260120	023402	3.330	12.418487	-57.629683	3.360	0.420	-0.810	0.210	3.330	-2.400	0.800																			1580006042.0	0.50	0.93
26/01/2020 02:34:03	26012020	260120	023403	3.350	12.418488	-57.629685	3.420	0.280	-0.070	-0.090	3.370	-1.800	0.400																			1580006043.0	0.70	1.30
26/01/2020 02:34:04	26012020	260120	023404	3.440	12.418487	-57.629690	3.490	0.110	0.650	-0.250	3.460	-1.000	0.200																			1580006044.0	0.79	1.46
26/01/2020 02:34:05	26012020	260120	023405	3.530	12.418485	-57.629692	3.670	-0.060	0.870	-0.410	3.570	-0.600	0.000																			1580006045.0	0.73	1.35
26/01/2020 02:34:06	26012020	260120	023406	3.750	12.418483	-57.629693	3.990	-0.220	0.560	-0.570	3.810	-0.600	-0.100																			1580006046.0	0.43	0.80
26/01/2020 02:34:07	26012020	260120	023407	4.080	12.418485	-57.629695	4.280	-0.330	0.100	-0.440	4.140	-1.100	-0.200																			1580006047.0	0.23	0.43
26/01/2020 02:34:08	26012020	260120	023408	4.330	12.418487	-57.629693	4.380	-0.320	-0.190	0.040	4.360	-1.500	0.100																			1580006048.0	0.35	0.65
26/01/2020 02:34:09	26012020	260120	023409	4.370	12.418487	-57.629692	4.250	-0.160	-0.240	0.760	4.350	-1.600	0.800																			1580006049.0	0.53	0.98
26/01/2020 02:34:10	26012020	260120	023410	4.190	12.418485	-57.629687	4.000	0.090	-0.350	1.440	4.130	-1.700	1.500																			1580006050.0	0.97	1.80
26/01/2020 02:34:11	26012020	260120	023411	3.910	12.418485	-57.629682	3.820	0.290	-0.730	1.680	3.870	-1.900	2.000																			1580006051.0	1.24	2.30
26/01/2020 02:34:12	26012020	260120	023412	3.750	12.418485	-57.629678	3.780	0.340	-1.060	1.390	3.740	-2.300	1.900																			1580006052.0	0.81	1.50
26/01/2020 02:34:13	26012020	260120	023413	3.750	12.418487	-57.629678	3.880	0.280	-0.810	0.750	3.770	-2.400	1.400																			1580006053.0	0.55	1.02
26/01/2020 02:34:14	26012020	260120	023414	3.890	12.418490	-57.629682	4.050	0.210	0.020	0.060	3.930	-1.800	0.700																			1580006054.0	1.03	1.91
26/01/2020 02:34:15	26012020	260120	023415	4.040	12.418488	-57.629688	4.160	0.090	0.900	-0.360	4.070	-0.900	0.200																			1580006055.0	1.20	2.22
26/01/2020 02:34:16	26012020	260120	023416	4.190	12.418485	-57.629692	4.270	-0.120	1.130	-0.540	4.200	-0.300	-0.100																			1580006056.0	1.00	1.85
26/01/2020 02:34:17	26012020	260120	023417	4.280	12.418483	-57.629693	4.440	-0.380	0.620	-0.660	4.310	-0.500	-0.200																			1580006057.0	0.56	1.04
26/01/2020 02:34:18	26012020	260120	023418	4.480	12.418483	-57.629692	4.580	-0.510	-0.110	-0.670	4.520	-1.200	-0.300																			1580006058.0	0.10	0.19
26/01/2020 02:34:19	26012020	260120	023419	4.610	12.418485	-57.629692	4.610	-0.420	-0.570	-0.460	4.630	-1.800	-0.200																			1580006059.0	0.48	0.89
26/01/2020 02:34:20	26012020	260120	023420	4.600	12.418487	-57.629690	4.500	-0.130	-0.770	0.010	4.580	-2.100	0.100																			1580006060.0	0.40	0.74
26/01/2020 02:34:21	26012020	260120	023421	4.480	12.418487	-57.629688	4.440	0.250	-0.890	0.510	4.450	-2.200	0.600																			1580006061.0	0.37	0.69
26/01/2020 02:34:22	26012020	260120	023422	4.400	12.418487	-57.629687	4.450	0.520	-0.860	0.820	4.390	-2.300	1.100																			1580006062.0	0.43	0.80
26/01/2020 02:34:23	26012020	260120	023423	4.420	12.418488	-57.629685	4.450	0.550	-0.410	0.960	4.420	-2.100	1.300																			1580006063.0	0.36	0.67
26/01/2020 02:34:24	26012020	260120	023424	4.420	12.418488	-57.629685	4.440	0.370	0.320	1.000	4.410	-1.400	1.400																			1580006064.0	0.13	0.24
26/01/2020 02:34:25	26012020	260120	023425	4.390	12.418487	-57.629685	4.460	0.100	0.810	0.890	4.390	-0.800	1.300																			1580006065.0	0.35	0.65
26/01/2020 02:34:26	26012020	260120	023426	4.440	12.418485	-57.629685	4.610	-0.170	0.690	0.570	4.470	-0.600	1.100																			1580006066.0	0.49	0.91
26/01/2020 02:34:27	26012020	260120	023427	4.600	12.418483	-57.629685	4.780	-0.370	0.240	0.170	4.640	-0.900	0.700																			1580006067.0	0.20	0.37
26/01/2020 02:34:28	26012020	260120	023428	4.780	12.418485	-57.629687	4.940	-0.450	-0.190	-0.200	4.810	-1.400	0.300																			1580006068.0	0.47	0.87
26/01/2020 02:34:29	26012020	260120	023429	4.920	12.418487	-57.629688	5.050	-0.390	-0.400	-0.440	4.940	-1.700	0.000																			1580006069.0	0.52	0.96
26/01/2020 02:34:30	26012020	260120	023430	5.050	12.418487	-57.629690	5.030	-0.190	-0.420	-0.390	5.050	-1.800	-0.100																			1580006070.0	0.33	0.61
26/01/2020 02:34:31	26012020	260120	023431	5.020	12.418487	-57.629690	4.870	0.090	-0.400	-0.050	4.990	-1.800	0.100																			1580006071.0	0.09	0.17
26/01/2020 02:34:32	26012020	260120	023432	4.800	12.418487	-57.629688	4.680	0.290	-0.400	0.370	4.760	-1.800	0.500																			1580006072.0	0.38	0.70
26/01/2020 02:34:33	26012020	260120	023433	4.640	12.418487	-57.629687	4.650	0.330	-0.370	0.560	4.630	-1.800	0.900																			1580006073.0	0.56	1.04
26/01/2020 02:34:34	26012020	260120	023434	4.630	12.418487	-57.629683	4.720	0.230	-0.230	0.500	4.640	-1.700	0.900																			1580006074.0	0.43	0.80
26/01/2020 02:34:35	26012020	260120	023435	4.690	12.418487	-57.629683	4.810	0.060	0.030	0.380	4.710	-1.500	0.800																			1580006075.0	0.08	0.15
26/01/2020 02:34:36	26012020	260120	023436	4.800	12.418487	-57.629685	4.890	-0.070	0.250	0.350	4.810	-1.200	0.700																			1580006076.0	0.29	0.54
26/01/2020 02:34:37	26012020	260120	023437	4.860	12.418485	-57.629687	4.960	-0.100	0.250	0.360	4.870	-1.100	0.700																			1580006077.0	0.36	0.67
26/01/2020 02:34:38	26012020	260120	023438	4.930	12.418485	-57.629687	5.020	-0.080	0.110	0.360	4.940	-1.200	0.700																			1580006078.0	0.15	0.28
26/01/2020 02:34:39	26012020	260120	023439	4.980	12.418487	-57.629687	5.020	-0.060	-0.020	0.390	4.980	-1.400	0.700																			1580006079.0	0.12	0.22
26/01/2020 02:34:40	26012020	260120	023440	4.970	12.418487	-57.629687	5.020	-0.060	-0.150	0.440	4.970	-1.500	0.800																			1580006080.0	0.23	0.43
26/01/2020 02:34:41	26012020	260120	023441	4.960	12.418487	-57.629685	5.020	-0.030	-0.240	0.520	4.960	-1.600	0.800																			1580006081.0	0.22	0.41
26/01/2020 02:34:42	26012020	260120	023442	4.970	12.418487	-57.629683	5.020	-0.010	-0.250	0.520	4.970	-1.700	0.900																			1580006082.0	0.20	0.37
26/01/2020 02:34:43	26012020	260120	023443	4.980	12.418487	-57.629683	4.970	-0.080	-0.200	0.380	4.970	-1.600	0.800																			1580006083.0	0.19	0.35
26/01/2020 02:34:44	26012020	260120	023444	4.930	12.418485	-57.629683	4.890	-0.160	-0.130	0.210	4.920	-1.500	0.700																			1580006084.0	0.10	0.19
26/01/2020 02:34:45	26012020	260120	023445	4.870	12.418485	-57.629685	4.880	-0.090	-0.150	0.110	4.870	-1.500	0.500																			1580006085.0	0.36	0.67
26/01/2020 02:34:46	26012020	260120	023446	4.880	12.418485	-57.629687	4.940	0.120	-0.230	0.110	4.890	-1.600	0.500																			1580006086.0	0.27	0.50
26/01/2020 02:34:47	26012020	260120	023447	4.940	12.418485	-57.629687	4.950	0.250	-0.250	0.160	4.940	-1.700	0.500																			1580006087.0	0.10	0.19
26/01/2020 02:34:48	26012020	260120	023448	4.940	12.418487	-57.629685	4.900	0.170	-0.130	0.150	4.930	-1.600	0.500																			1580006088.0	0.32	0.59
26/01/2020 02:34:49	26012020	260120	023449	4.880	12.418487	-57.629683	4.880	-0.030	0.030	0.060	4.870	-1.400	0.500																			1580006089.0	0.19	0.35
26/01/2020 02:34:50	26012020	260120	023450	4.870	12.418485	-57.629685	4.910	-0.140	0.150	0.040	4.880	-1.300	0.400																			1580006090.0	0.17	0.31
26/01/2020 02:34:51	26012020	260120	023451	4.910	12.418485	-57.629687	4.960	-0.090	0.190	0.140	4.920	-1.200	0.400																			1580006091.0	0.29	0.54
26/01/2020 02:34:52	26012020	260120	023452	4.940	12.418485	-57.629687	4.960	0.000	0.100	0.300	4.940	-1.200	0.600																			1580006092.0	0.12	0.22
26/01/2020 02:34:53	26012020	260120	023453	4.940	12.418485	-57.629685	4.960	0.010	-0.120	0.430	4.940	-1.400	0.700																			1580006093.0	0.23	0.43
26/01/2020 02:34:54	26012020	260120	023454	4.920	12.418485	-57.629683	4.930	-0.060	-0.370	0.550	4.920	-1.700	0.900																			1580006094.0	0.32	0.59
26/01/2020 02:34:55	26012020	260120	023455	4.920	12.418485	-57.629682	4.930	-0.100	-0.490	0.630	4.910	-1.900	1.000																			1580006095.0	0.29	0.54
26/01/2020 02:34:56	26012020	260120	023456	4.890	12.418487	-57.629682	4.880	-0.040	-0.400	0.630	4.880	-1.900	1.000																			1580006096.0	0.21	0.39
26/01/2020 02:34:57	26012020	260120	023457	4.840	12.418487	-57.629682	4.820	0.100	-0.160	0.550	4.820	-1.700	1.000																			1580006097.0	0.03	0.06
26/01/2020 02:34:58	26012020	260120	023458	4.800	12.418485	-57.629682	4.810	0.210	0.010	0.460	4.800	-1.400	0.900																			1580006098.0	0.14	0.26
26/01/2020 02:34:59	26012020	260120	023459	4.810	12.418485	-57.629682	4.830	0.190	0.050	0.380	4.810	-1.400	0.800	1015.40	25.40	25.50	21.20	21.20	-1.00	77.00	77.00	391.00	24.70	45.00	4.70	51.00	4.60	14	3351.00	27.40	27.40	1580006099.0	0.13	0.24
26/01/2020 02:35:00	26012020	260120	023500	4.830	12.418485	-57.629682	4.820	0.010	0.120	0.230	4.830	-1.300	0.700																			1580006100.0	0.03	0.06
26/01/2020 02:35:01	26012020	260120	023501	4.820	12.418485	-57.629683	4.790	-0.200	0.250	0.010	4.810	-1.200	0.500																			1580006101.0	0.13	0.24
26/01/2020 02:35:02	26012020	260120	023502	4.810	12.418485	-57.629683	4.810	-0.300	0.280	-0.160	4.810	-1.100	0.300																			1580006102.0	0.28	0.52
26/01/2020 02:35:03	26012020	260120	023503	4.840	12.418483	-57.629685	4.840	-0.250	0.070	-0.160	4.850	-1.200	0.200																			1580006103.0	0.30	0.56
26/01/2020 02:35:04	26012020	260120	023504	4.850	12.418483	-57.629685	4.890	-0.160	-0.380	-0.050	4.860	-1.600	0.300																			1580006104.0	0.10	0.19
26/01/2020 02:35:05	26012020	260120	023505	4.910	12.418483	-57.629685	4.990	-0.040	-0.730	0.020	4.930	-2.000	0.400																			1580006105.0	0.21	0.39
26/01/2020 02:35:06	26012020	260120	023506	5.000	12.418485	-57.629683	4.980	0.100	-0.670	0.190	5.010	-2.200	0.400																			1580006106.0	0.35	0.65
26/01/2020 02:35:07	26012020	260120	023507	4.980	12.418487	-57.629683	4.770	0.240	-0.250	0.560	4.950	-1.900	0.700																			1580006107.0	0.20	0.37
26/01/2020 02:35:08	26012020	260120	023508	4.710	12.418485	-57.629682	4.500	0.330	0.060	0.940	4.650	-1.400	1.100																			1580006108.0	0.41	0.76
26/01/2020 02:35:09	26012020	260120	023509	4.460	12.418483	-57.629678	4.430	0.300	-0.020	1.000	4.440	-1.300	1.400																			1580006109.0	0.61	1.13
26/01/2020 02:35:10	26012020	260120	023510	4.440	12.418483	-57.629678	4.570	0.150	-0.140	0.680	4.470	-1.500	1.200																			1580006110.0	0.27	0.50
26/01/2020 02:35:11	26012020	260120	023511	4.630	12.418485	-57.629678	4.800	-0.060	0.050	0.210	4.690	-1.500	0.800																			1580006111.0	0.45	0.83
26/01/2020 02:35:12	26012020	260120	023512	4.870	12.418487	-57.629682	4.950	-0.210	0.450	-0.080	4.910	-1.100	0.400																			1580006112.0	0.69	1.28
26/01/2020 02:35:13	26012020	260120	023513	5.020	12.418485	-57.629685	5.030	-0.260	0.510	-0.180	5.030	-0.800	0.200																			1580006113.0	0.61	1.13
26/01/2020 02:35:14	26012020	260120	023514	5.080	12.418483	-57.629685	5.050	-0.270	0.060	-0.120	5.080	-1.100	0.200																			1580006114.0	0.41	0.76
26/01/2020 02:35:15	26012020	260120	023515	5.070	12.418483	-57.629683	4.980	-0.290	-0.390	0.070	5.060	-1.600	0.300																			1580006115.0	0.23	0.43
26/01/2020 02:35:16	26012020	260120	023516	4.960	12.418485	-57.629683	4.820	-0.260	-0.460	0.290	4.930	-1.900	0.600																			1580006116.0	0.44	0.81
26/01/2020 02:35:17	26012020	260120	023517	4.780	12.418485	-57.629682	4.670	-0.090	-0.350	0.470	4.750	-1.800	0.800																			1580006117.0	0.25	0.46
26/01/2020 02:35:18	26012020	260120	023518	4.630	12.418483	-57.629680	4.610	0.180	-0.390	0.530	4.610	-1.700	0.900																			1580006118.0	0.33	0.61
26/01/2020 02:35:19	26012020	260120	023519	4.590	12.418483	-57.629680	4.690	0.370	-0.570	0.400	4.600	-1.900	0.800																			1580006119.0	0.19	0.35
26/01/2020 02:35:20	26012020	260120	023520	4.690	12.418485	-57.629680	4.780	0.360	-0.510	0.170	4.710	-2.000	0.600																			1580006120.0	0.24	0.44
26/01/2020 02:35:21	26012020	260120	023521	4.760	12.418485	-57.629682	4.800	0.180	-0.070	-0.010	4.770	-1.700	0.400																			1580006121.0	0.45	0.83
26/01/2020 02:35:22	26012020	260120	023522	4.800	12.418485	-57.629683	4.820	-0.090	0.520	-0.120	4.800	-1.200	0.300																			1580006122.0	0.31	0.57
26/01/2020 02:35:23	26012020	260120	023523	4.820	12.418483	-57.629683	4.840	-0.310	0.770	-0.120	4.820	-0.700	0.200																			1580006123.0	0.45	0.83
26/01/2020 02:35:24	26012020	260120	023524	4.840	12.418482	-57.629683	4.850	-0.350	0.490	0.030	4.840	-0.700	0.300																			1580006124.0	0.47	0.87
26/01/2020 02:35:25	26012020	260120	023525	4.830	12.418482	-57.629683	4.770	-0.220	-0.140	0.240	4.820	-1.200	0.500																			1580006125.0	0.09	0.17
26/01/2020 02:35:26	26012020	260120	023526	4.730	12.418483	-57.629683	4.650	0.020	-0.720	0.400	4.700	-1.900	0.700																			1580006126.0	0.36	0.67
26/01/2020 02:35:27	26012020	260120	023527	4.610	12.418485	-57.629683	4.630	0.240	-0.950	0.430	4.600	-2.300	0.800																			1580006127.0	0.51	0.94
26/01/2020 02:35:28	26012020	260120	023528	4.620	12.418487	-57.629682	4.680	0.320	-0.670	0.510	4.630	-2.300	0.800																			1580006128.0	0.37	0.69
26/01/2020 02:35:29	26012020	260120	023529	4.660	12.418487	-57.629682	4.650	0.240	-0.060	0.710	4.660	-1.800	1.000																			1580006129.0	0.16	0.30
26/01/2020 02:35:30	26012020	260120	023530	4.600	12.418485	-57.629680	4.520	0.070	0.480	0.860	4.580	-1.100	1.200																			1580006130.0	0.45	0.83
26/01/2020 02:35:31	26012020	260120	023531	4.450	12.418482	-57.629678	4.340	-0.080	0.600	0.770	4.420	-0.800	1.200																			1580006131.0	0.55	1.02
26/01/2020 02:35:32	26012020	260120	023532	4.280	12.418482	-57.629678	4.280	-0.160	0.220	0.330	4.260	-1.000	0.900																			1580006132.0	0.29	0.54
26/01/2020 02:35:33	26012020	260120	023533	4.270	12.418482	-57.629680	4.380	-0.210	-0.290	-0.240	4.290	-1.500	0.400																			1580006133.0	0.38	0.70
26/01/2020 02:35:34	26012020	260120	023534	4.400	12.418483	-57.629683	4.500	-0.250	-0.470	-0.610	4.430	-1.800	-0.100																			1580006134.0	0.87	1.61
26/01/2020 02:35:35	26012020	260120	023535	4.500	12.418485	-57.629687	4.550	-0.240	-0.260	-0.690	4.520	-1.800	-0.300																			1580006135.0	0.80	1.48
26/01/2020 02:35:36	26012020	260120	023536	4.550	12.418485	-57.629690	4.540	-0.130	-0.020	-0.500	4.550	-1.500	-0.300																			1580006136.0	0.46	0.85
26/01/2020 02:35:37	26012020	260120	023537	4.510	12.418483	-57.629690	4.440	0.040	-0.020	-0.110	4.490	-1.400	0.100																			1580006137.0	0.38	0.70
26/01/2020 02:35:38	26012020	260120	023538	4.420	12.418482	-57.629687	4.360	0.150	-0.240	0.320	4.390	-1.500	0.500																			1580006138.0	0.57	1.06
26/01/2020 02:35:39	26012020	260120	023539	4.320	12.418483	-57.629683	4.310	0.160	-0.400	0.680	4.310	-1.700	0.900																			1580006139.0	0.71	1.31
26/01/2020 02:35:40	26012020	260120	023540	4.270	12.418483	-57.629682	4.240	0.120	-0.280	0.910	4.260	-1.800	1.200																			1580006140.0	0.55	1.02
26/01/2020 02:35:41	26012020	260120	023541	4.180	12.418483	-57.629680	4.100	0.080	-0.030	1.020	4.150	-1.500	1.400																			1580006141.0	0.21	0.39
26/01/2020 02:35:42	26012020	260120	023542	4.020	12.418483	-57.629680	3.970	0.120	0.060	0.940	3.990	-1.300	1.400																			1580006142.0	0.15	0.28
26/01/2020 02:35:43	26012020	260120	023543	3.940	12.418483	-57.629682	4.010	0.220	-0.110	0.630	3.930	-1.400	1.200																			1580006143.0	0.22	0.41
26/01/2020 02:35:44	26012020	260120	023544	4.020	12.418483	-57.629683	4.170	0.260	-0.220	0.240	4.050	-1.600	0.800																			1580006144.0	0.38	0.70
26/01/2020 02:35:45	26012020	260120	023545	4.150	12.418485	-57.629685	4.300	0.130	-0.090	-0.070	4.180	-1.600	0.400																			1580006145.0	0.51	0.94
26/01/2020 02:35:46	26012020	260120	023546	4.300	12.418485	-57.629687	4.300	-0.130	0.200	-0.250	4.310	-1.300	0.200																			1580006146.0	0.33	0.61
26/01/2020 02:35:47	26012020	260120	023547	4.280	12.418485	-57.629687	4.220	-0.360	0.370	-0.250	4.270	-1.100	0.100																			1580006147.0	0.27	0.50
26/01/2020 02:35:48	26012020	260120	023548	4.200	12.418483	-57.629687	4.140	-0.420	0.260	-0.150	4.190	-1.100	0.200																			1580006148.0	0.34	0.63
26/01/2020 02:35:49	26012020	260120	023549	4.130	12.418482	-57.629687	4.050	-0.330	-0.030	-0.020	4.110	-1.300	0.300																			1580006149.0	0.25	0.46
26/01/2020 02:35:50	26012020	260120	023550	4.020	12.418483	-57.629685	3.920	-0.160	-0.370	0.080	3.990	-1.600	0.400																			1580006150.0	0.22	0.41
26/01/2020 02:35:51	26012020	260120	023551	3.890	12.418483	-57.629685	3.820	0.040	-0.640	0.150	3.870	-1.900	0.500																			1580006151.0	0.17	0.31
26/01/2020 02:35:52	26012020	260120	023552	3.820	12.418485	-57.629685	3.810	0.220	-0.710	0.200	3.810	-2.100	0.600																			1580006152.0	0.20	0.37
26/01/2020 02:35:53	26012020	260120	023553	3.820	12.418485	-57.629685	3.860	0.330	-0.520	0.250	3.830	-2.000	0.600																			1580006153.0	0.19	0.35
26/01/2020 02:35:54	26012020	260120	023554	3.870	12.418485	-57.629687	3.920	0.360	-0.170	0.340	3.880	-1.700	0.700																			1580006154.0	0.12	0.22
26/01/2020 02:35:55	26012020	260120	023555	3.910	12.418485	-57.629687	3.940	0.300	0.120	0.450	3.920	-1.400	0.800																			1580006155.0	0.10	0.19
26/01/2020 02:35:56	26012020	260120	023556	3.930	12.418485	-57.629685	3.950	0.150	0.240	0.500	3.940	-1.200	0.900																			1580006156.0	0.15	0.28
26/01/2020 02:35:57	26012020	260120	023557	3.940	12.418485	-57.629685	3.930	-0.070	0.310	0.500	3.940	-1.100	0.900																			1580006157.0	0.19	0.35
26/01/2020 02:35:58	26012020	260120	023558	3.910	12.418485	-57.629685	3.900	-0.310	0.390	0.480	3.910	-1.000	0.900																			1580006158.0	0.13	0.24
26/01/2020 02:35:59	26012020	260120	023559	3.890	12.418485	-57.629685	3.930	-0.450	0.360	0.420	3.890	-1.000	0.800	1015.40	25.50	25.50	21.20	21.10	-1.00	77.00	76.00	391.00	24.70	46.00	5.00	51.00	5.00	14	3398.00	27.40	27.40	1580006159.0	0.06	0.11
26/01/2020 02:36:00	26012020	260120	023600	3.950	12.418483	-57.629685	4.000	-0.340	0.070	0.310	3.970	-1.200	0.700																			1580006160.0	0.21	0.39
26/01/2020 02:36:01	26012020	260120	023601	4.030	12.418483	-57.629685	4.040	-0.030	-0.380	0.220	4.040	-1.600	0.600																			1580006161.0	0.10	0.19
26/01/2020 02:36:02	26012020	260120	023602	4.060	12.418483	-57.629685	4.000	0.280	-0.770	0.230	4.050	-2.000	0.600																			1580006162.0	0.16	0.30
26/01/2020 02:36:03	26012020	260120	023603	3.990	12.418485	-57.629683	3.900	0.390	-0.920	0.210	3.970	-2.300	0.600																			1580006163.0	0.38	0.70
26/01/2020 02:36:04	26012020	260120	023604	3.890	12.418487	-57.629682	3.840	0.250	-0.720	0.060	3.880	-2.300	0.500																			1580006164.0	0.38	0.70
26/01/2020 02:36:05	26012020	260120	023605	3.830	12.418487	-57.629683	3.740	0.040	-0.190	-0.050	3.810	-1.900	0.400																			1580006165.0	0.18	0.33
26/01/2020 02:36:06	26012020	260120	023606	3.720	12.418487	-57.629685	3.570	-0.040	0.470	0.030	3.690	-1.200	0.300																			1580006166.0	0.50	0.93
26/01/2020 02:36:07	26012020	260120	023607	3.570	12.418485	-57.629687	3.520	-0.010	0.800	0.120	3.540	-0.700	0.500																			1580006167.0	0.58	1.07
26/01/2020 02:36:08	26012020	260120	023608	3.530	12.418483	-57.629688	3.640	-0.020	0.600	-0.010	3.550	-0.600	0.400																			1580006168.0	0.37	0.69
26/01/2020 02:36:09	26012020	260120	023609	3.650	12.418483	-57.629688	3.920	-0.150	0.090	-0.200	3.700	-1.000	0.300																			1580006169.0	0.03	0.06
26/01/2020 02:36:10	26012020	260120	023610	4.000	12.418485	-57.629688	4.200	-0.330	-0.320	-0.160	4.060	-1.500	0.200																			1580006170.0	0.30	0.56
26/01/2020 02:36:11	26012020	260120	023611	4.220	12.418487	-57.629688	4.280	-0.370	-0.430	0.150	4.260	-1.800	0.300																			1580006171.0	0.31	0.57
26/01/2020 02:36:12	26012020	260120	023612	4.300	12.418487	-57.629687	4.180	-0.180	-0.400	0.600	4.280	-1.800	0.700																			1580006172.0	0.37	0.69
26/01/2020 02:36:13	26012020	260120	023613	4.150	12.418485	-57.629683	4.000	0.130	-0.470	0.980	4.110	-1.800	1.200																			1580006173.0	0.67	1.24
26/01/2020 02:36:14	26012020	260120	023614	3.970	12.418485	-57.629680	3.840	0.370	-0.540	1.110	3.930	-1.900	1.400																			1580006174.0	0.70	1.30
26/01/2020 02:36:15	26012020	260120	023615	3.810	12.418485	-57.629678	3.680	0.410	-0.370	1.020	3.780	-1.900	1.500																			1580006175.0	0.44	0.81
26/01/2020 02:36:16	26012020	260120	023616	3.660	12.418487	-57.629678	3.610	0.280	-0.010	0.700	3.640	-1.600	1.300																			1580006176.0	0.16	0.30
26/01/2020 02:36:17	26012020	260120	023617	3.620	12.418487	-57.629680	3.640	0.090	0.290	0.210	3.630	-1.200	0.800																			1580006177.0	0.40	0.74
26/01/2020 02:36:18	26012020	260120	023618	3.670	12.418485	-57.629683	3.740	-0.030	0.400	-0.240	3.700	-1.000	0.300																			1580006178.0	0.67	1.24
26/01/2020 02:36:19	26012020	260120	023619	3.800	12.418485	-57.629687	3.950	-0.060	0.220	-0.610	3.830	-1.100	-0.100																			1580006179.0	0.67	1.24
26/01/2020 02:36:20	26012020	260120	023620	4.030	12.418485	-57.629688	4.190	-0.040	-0.150	-0.880	4.080	-1.400	-0.400																			1580006180.0	0.43	0.80
26/01/2020 02:36:21	26012020	260120	023621	4.260	12.418487	-57.629690	4.290	-0.080	-0.360	-0.830	4.290	-1.700	-0.500																			1580006181.0	0.36	0.67
26/01/2020 02:36:22	26012020	260120	023622	4.310	12.418488	-57.629690	4.170	-0.180	-0.220	-0.290	4.300	-1.700	-0.200																			1580006182.0	0.31	0.57
26/01/2020 02:36:23	26012020	260120	023623	4.150	12.418488	-57.629687	3.980	-0.270	0.030	0.400	4.100	-1.500	0.400																			1580006183.0	0.43	0.80
26/01/2020 02:36:24	26012020	260120	023624	3.940	12.418487	-57.629683	3.810	-0.230	0.080	0.940	3.910	-1.300	1.100																			1580006184.0	0.80	1.48
26/01/2020 02:36:25	26012020	260120	023625	3.770	12.418485	-57.629682	3.680	-0.030	-0.120	1.220	3.740	-1.400	1.500																			1580006185.0	0.68	1.26
26/01/2020 02:36:26	26012020	260120	023626	3.660	12.418485	-57.629678	3.700	0.160	-0.420	1.170	3.660	-1.700	1.600																			1580006186.0	0.46	0.85
26/01/2020 02:36:27	26012020	260120	023627	3.710	12.418487	-57.629678	3.840	0.220	-0.520	0.920	3.730	-1.900	1.400																			1580006187.0	0.31	0.57
26/01/2020 02:36:28	26012020	260120	023628	3.850	12.418488	-57.629678	3.960	0.170	-0.320	0.610	3.870	-1.800	1.100																			1580006188.0	0.33	0.61
26/01/2020 02:36:29	26012020	260120	023629	3.980	12.418488	-57.629680	4.060	0.150	-0.060	0.280	4.000	-1.600	0.800																			1580006189.0	0.41	0.76
26/01/2020 02:36:30	26012020	260120	023630	4.070	12.418487	-57.629683	4.070	0.170	0.110	0.050	4.080	-1.400	0.500																			1580006190.0	0.44	0.81
26/01/2020 02:36:31	26012020	260120	023631	4.050	12.418487	-57.629685	3.890	0.130	0.260	0.050	4.020	-1.200	0.400																			1580006191.0	0.32	0.59
26/01/2020 02:36:32	26012020	260120	023632	3.850	12.418487	-57.629685	3.670	-0.020	0.310	0.170	3.800	-1.100	0.500																			1580006192.0	0.05	0.09
26/01/2020 02:36:33	26012020	260120	023633	3.680	12.418487	-57.629683	3.660	-0.220	0.100	0.090	3.650	-1.200	0.500																			1580006193.0	0.25	0.46
26/01/2020 02:36:34	26012020	260120	023634	3.690	12.418487	-57.629683	3.850	-0.360	-0.210	-0.180	3.720	-1.500	0.300																			1580006194.0	0.18	0.33
26/01/2020 02:36:35	26012020	260120	023635	3.880	12.418488	-57.629683	3.970	-0.330	-0.340	-0.310	3.920	-1.700	0.100																			1580006195.0	0.24	0.44
26/01/2020 02:36:36	26012020	260120	023636	3.980	12.418488	-57.629685	3.950	-0.100	-0.330	-0.130	3.980	-1.700	0.100																			1580006196.0	0.41	0.76
26/01/2020 02:36:37	26012020	260120	023637	3.950	12.418488	-57.629687	3.900	0.200	-0.430	0.180	3.940	-1.800	0.400																			1580006197.0	0.12	0.22
26/01/2020 02:36:38	26012020	260120	023638	3.890	12.418488	-57.629685	3.850	0.390	-0.520	0.470	3.870	-1.900	0.700																			1580006198.0	0.26	0.48
26/01/2020 02:36:39	26012020	260120	023639	3.820	12.418490	-57.629682	3.790	0.330	-0.330	0.680	3.810	-1.900	0.900																			1580006199.0	0.51	0.94
26/01/2020 02:36:40	26012020	260120	023640	3.770	12.418490	-57.629680	3.740	0.110	0.130	0.860	3.760	-1.500	1.100																			1580006200.0	0.43	0.80
26/01/2020 02:36:41	26012020	260120	023641	3.700	12.418488	-57.629680	3.630	-0.070	0.500	0.970	3.690	-1.000	1.300																			1580006201.0	0.30	0.56
26/01/2020 02:36:42	26012020	260120	023642	3.610	12.418487	-57.629680	3.580	-0.100	0.440	0.850	3.590	-0.900	1.300																			1580006202.0	0.37	0.69
26/01/2020 02:36:43	26012020	260120	023643	3.580	12.418487	-57.629680	3.640	-0.050	0.010	0.480	3.590	-1.200	1.000																			1580006203.0	0.17	0.31
26/01/2020 02:36:44	26012020	260120	023644	3.670	12.418488	-57.629682	3.760	-0.080	-0.310	0.070	3.700	-1.600	0.600																			1580006204.0	0.43	0.80
26/01/2020 02:36:45	26012020	260120	023645	3.760	12.418490	-57.629683	3.800	-0.210	-0.290	-0.220	3.780	-1.700	0.300																			1580006205.0	0.58	1.07
26/01/2020 02:36:46	26012020	260120	023646	3.820	12.418490	-57.629685	3.760	-0.340	-0.110	-0.380	3.820	-1.600	0.000																			1580006206.0	0.31	0.57
26/01/2020 02:36:47	26012020	260120	023647	3.780	12.418488	-57.629685	3.680	-0.280	-0.080	-0.330	3.770	-1.500	-0.000																			1580006207.0	0.35	0.65
26/01/2020 02:36:48	26012020	260120	023648	3.710	12.418488	-57.629687	3.660	0.020	-0.240	-0.100	3.700	-1.500	0.100																			1580006208.0	0.31	0.57
26/01/2020 02:36:49	26012020	260120	023649	3.680	12.418488	-57.629687	3.640	0.360	-0.430	0.190	3.680	-1.700	0.400																			1580006209.0	0.07	0.13
26/01/2020 02:36:50	26012020	260120	023650	3.660	12.418488	-57.629685	3.630	0.480	-0.490	0.330	3.650	-1.900	0.700																			1580006210.0	0.47	0.87
26/01/2020 02:36:51	26012020	260120	023651	3.650	12.418490	-57.629682	3.680	0.330	-0.340	0.360	3.660	-1.800	0.700																			1580006211.0	0.55	1.02
26/01/2020 02:36:52	26012020	260120	023652	3.720	12.418490	-57.629680	3.750	0.070	-0.000	0.440	3.740	-1.600	0.700																			1580006212.0	0.31	0.57
26/01/2020 02:36:53	26012020	260120	023653	3.760	12.418490	-57.629680	3.610	-0.150	0.410	0.690	3.740	-1.200	0.900																			1580006213.0	0.12	0.22
26/01/2020 02:36:54	26012020	260120	023654	3.570	12.418488	-57.629680	3.330	-0.230	0.560	0.850	3.520	-0.800	1.200																			1580006214.0	0.24	0.44
26/01/2020 02:36:55	26012020	260120	023655	3.300	12.418487	-57.629680	3.240	-0.160	0.210	0.620	3.270	-1.000	1.200																			1580006215.0	0.26	0.48
26/01/2020 02:36:56	26012020	260120	023656	3.280	12.418488	-57.629682	3.460	-0.010	-0.360	0.110	3.310	-1.500	0.700																			1580006216.0	0.28	0.52
26/01/2020 02:36:57	26012020	260120	023657	3.540	12.418490	-57.629683	3.760	0.090	-0.640	-0.300	3.600	-1.900	0.200																			1580006217.0	0.68	1.26
26/01/2020 02:36:58	26012020	260120	023658	3.830	12.418492	-57.629685	3.890	0.020	-0.420	-0.380	3.870	-2.000	-0.000																			1580006218.0	0.57	1.06
26/01/2020 02:36:59	26012020	260120	023659	3.930	12.418492	-57.629687	3.780	-0.200	0.050	-0.120	3.920	-1.600	0.100	1015.40	25.50	25.60	21.20	21.10	-1.00	77.00	76.00	391.00	24.70	46.00	4.50	50.00	4.40	14	3406.00	27.40	27.40	1580006219.0	0.08	0.15
26/01/2020 02:37:00	26012020	260120	023700	3.770	12.418490	-57.629685	3.560	-0.370	0.370	0.240	3.720	-1.100	0.400																			1580006220.0	0.46	0.85
26/01/2020 02:37:01	26012020	260120	023701	3.580	12.418487	-57.629683	3.460	-0.270	0.200	0.420	3.540	-1.000	0.700																			1580006221.0	0.59	1.09
26/01/2020 02:37:02	26012020	260120	023702	3.470	12.418487	-57.629683	3.510	0.040	-0.330	0.370	3.480	-1.400	0.800																			1580006222.0	0.29	0.54
26/01/2020 02:37:03	26012020	260120	023703	3.540	12.418488	-57.629682	3.570	0.250	-0.590	0.300	3.560	-1.900	0.700																			1580006223.0	0.37	0.69
26/01/2020 02:37:04	26012020	260120	023704	3.590	12.418490	-57.629682	3.530	0.210	-0.320	0.380	3.580	-1.900	0.700																			1580006224.0	0.46	0.85
26/01/2020 02:37:05	26012020	260120	023705	3.530	12.418490	-57.629682	3.470	0.070	0.040	0.500	3.510	-1.500	0.800																			1580006225.0	0.08	0.15
26/01/2020 02:37:06	26012020	260120	023706	3.480	12.418488	-57.629683	3.540	0.090	-0.010	0.390	3.490	-1.300	0.900																			1580006226.0	0.46	0.85
26/01/2020 02:37:07	26012020	260120	023707	3.590	12.418487	-57.629683	3.680	0.280	-0.340	0.160	3.630	-1.600	0.600																			1580006227.0	0.25	0.46
26/01/2020 02:37:08	26012020	260120	023708	3.750	12.418488	-57.629685	3.800	0.360	-0.430	0.110	3.770	-1.800	0.500																			1580006228.0	0.39	0.72
26/01/2020 02:37:09	26012020	260120	023709	3.810	12.418490	-57.629685	3.770	0.170	-0.070	0.250	3.810	-1.700	0.500																			1580006229.0	0.46	0.85
26/01/2020 02:37:10	26012020	260120	023710	3.770	12.418490	-57.629683	3.690	-0.190	0.450	0.450	3.750	-1.200	0.700																			1580006230.0	0.14	0.26
26/01/2020 02:37:11	26012020	260120	023711	3.690	12.418488	-57.629683	3.610	-0.460	0.600	0.480	3.670	-0.800	0.900																			1580006231.0	0.49	0.91
26/01/2020 02:37:12	26012020	260120	023712	3.590	12.418487	-57.629682	3.560	-0.440	0.180	0.340	3.580	-1.000	0.800																			1580006232.0	0.49	0.91
26/01/2020 02:37:13	26012020	260120	023713	3.570	12.418487	-57.629683	3.600	-0.170	-0.410	0.150	3.570	-1.500	0.600																			1580006233.0	0.15	0.28
26/01/2020 02:37:14	26012020	260120	023714	3.620	12.418488	-57.629685	3.670	0.130	-0.640	0.060	3.640	-2.000	0.500																			1580006234.0	0.57	1.06
26/01/2020 02:37:15	26012020	260120	023715	3.700	12.418490	-57.629685	3.680	0.220	-0.360	0.150	3.700	-1.900	0.500																			1580006235.0	0.45	0.83
26/01/2020 02:37:16	26012020	260120	023716	3.670	12.418490	-57.629685	3.580	0.050	0.070	0.290	3.650	-1.500	0.600																			1580006236.0	0.11	0.20
26/01/2020 02:37:17	26012020	260120	023717	3.570	12.418488	-57.629685	3.540	-0.130	0.120	0.220	3.550	-1.200	0.700																			1580006237.0	0.55	1.02
26/01/2020 02:37:18	26012020	260120	023718	3.550	12.418485	-57.629685	3.630	-0.110	-0.180	0.020	3.570	-1.400	0.500																			1580006238.0	0.39	0.72
26/01/2020 02:37:19	26012020	260120	023719	3.670	12.418487	-57.629687	3.750	0.060	-0.420	-0.070	3.700	-1.700	0.300																			1580006239.0	0.29	0.54
26/01/2020 02:37:20	26012020	260120	023720	3.780	12.418488	-57.629687	3.840	0.200	-0.410	-0.000	3.800	-1.800	0.300																			1580006240.0	0.44	0.81
26/01/2020 02:37:21	26012020	260120	023721	3.850	12.418488	-57.629688	3.890	0.200	-0.230	0.110	3.860	-1.700	0.400																			1580006241.0	0.22	0.41
26/01/2020 02:37:22	26012020	260120	023722	3.900	12.418488	-57.629688	3.910	0.140	0.000	0.280	3.910	-1.500	0.600																			1580006242.0	0.04	0.07
26/01/2020 02:37:23	26012020	260120	023723	3.910	12.418488	-57.629687	3.840	0.050	0.230	0.590	3.910	-1.300	0.800																			1580006243.0	0.23	0.43
26/01/2020 02:37:24	26012020	260120	023724	3.800	12.418488	-57.629685	3.710	-0.020	0.330	0.860	3.770	-1.100	1.100																			1580006244.0	0.43	0.80
26/01/2020 02:37:25	26012020	260120	023725	3.680	12.418487	-57.629683	3.670	-0.060	0.150	0.830	3.660	-1.100	1.300																			1580006245.0	0.48	0.89
26/01/2020 02:37:26	26012020	260120	023726	3.660	12.418487	-57.629682	3.760	-0.070	-0.170	0.560	3.670	-1.400	1.100																			1580006246.0	0.16	0.30
26/01/2020 02:37:27	26012020	260120	023727	3.770	12.418488	-57.629683	3.870	-0.080	-0.370	0.270	3.800	-1.700	0.800																			1580006247.0	0.28	0.52
26/01/2020 02:37:28	26012020	260120	023728	3.880	12.418488	-57.629685	3.870	-0.110	-0.340	0.030	3.890	-1.800	0.500																			1580006248.0	0.39	0.72
26/01/2020 02:37:29	26012020	260120	023729	3.870	12.418488	-57.629685	3.780	-0.140	-0.170	-0.100	3.850	-1.700	0.300																			1580006249.0	0.29	0.54
26/01/2020 02:37:30	26012020	260120	023730	3.750	12.418488	-57.629687	3.670	-0.070	-0.020	-0.070	3.720	-1.500	0.300																			1580006250.0	0.38	0.70
26/01/2020 02:37:31	26012020	260120	023731	3.640	12.418487	-57.629688	3.630	0.060	-0.040	-0.020	3.630	-1.400	0.300																			1580006251.0	0.32	0.59
26/01/2020 02:37:32	26012020	260120	023732	3.640	12.418487	-57.629688	3.730	0.150	-0.200	-0.150	3.650	-1.500	0.300																			1580006252.0	0.10	0.19
26/01/2020 02:37:33	26012020	260120	023733	3.770	12.418487	-57.629690	3.910	0.110	-0.290	-0.270	3.810	-1.700	0.100																			1580006253.0	0.12	0.22
26/01/2020 02:37:34	26012020	260120	023734	3.960	12.418488	-57.629690	4.010	-0.020	-0.170	-0.130	3.980	-1.600	0.100																			1580006254.0	0.27	0.50
26/01/2020 02:37:35	26012020	260120	023735	4.040	12.418488	-57.629690	4.020	-0.110	0.040	0.250	4.040	-1.400	0.400																			1580006255.0	0.09	0.17
26/01/2020 02:37:36	26012020	260120	023736	4.020	12.418488	-57.629690	3.970	-0.100	0.150	0.690	4.000	-1.300	0.900																			1580006256.0	0.24	0.44
26/01/2020 02:37:37	26012020	260120	023737	3.960	12.418487	-57.629687	3.920	0.000	0.030	0.970	3.950	-1.300	1.200																			1580006257.0	0.52	0.96
26/01/2020 02:37:38	26012020	260120	023738	3.930	12.418487	-57.629685	3.980	0.090	-0.190	1.050	3.930	-1.500	1.400																			1580006258.0	0.59	1.09
26/01/2020 02:37:39	26012020	260120	023739	3.980	12.418488	-57.629682	4.010	0.050	-0.210	0.970	3.990	-1.600	1.400																			1580006259.0	0.50	0.93
26/01/2020 02:37:40	26012020	260120	023740	4.000	12.418488	-57.629682	3.940	-0.090	0.040	0.820	3.990	-1.500	1.300																			1580006260.0	0.26	0.48
26/01/2020 02:37:41	26012020	260120	023741	3.910	12.418488	-57.629682	3.780	-0.190	0.250	0.620	3.870	-1.200	1.100																			1580006261.0	0.20	0.37
26/01/2020 02:37:42	26012020	260120	023742	3.740	12.418485	-57.629683	3.670	-0.110	-0.060	0.200	3.710	-1.200	0.800																			1580006262.0	0.51	0.94
26/01/2020 02:37:43	26012020	260120	023743	3.680	12.418485	-57.629685	3.780	0.140	-0.750	-0.460	3.700	-1.800	0.200																			1580006263.0	0.53	0.98
26/01/2020 02:37:44	26012020	260120	023744	3.860	12.418488	-57.629688	4.070	0.350	-1.050	-0.990	3.920	-2.400	-0.400																			1580006264.0	0.95	1.76
26/01/2020 02:37:45	26012020	260120	023745	4.160	12.418492	-57.629693	4.280	0.340	-0.510	-1.100	4.210	-2.300	-0.700																			1580006265.0	1.09	2.02
26/01/2020 02:37:46	26012020	260120	023746	4.340	12.418493	-57.629695	4.190	0.070	0.520	-0.670	4.330	-1.400	-0.600																			1580006266.0	0.46	0.85
26/01/2020 02:37:47	26012020	260120	023747	4.170	12.418490	-57.629695	3.870	-0.260	1.100	0.070	4.100	-0.500	0.100																			1580006267.0	0.68	1.26
26/01/2020 02:37:48	26012020	260120	023748	3.830	12.418485	-57.629692	3.730	-0.420	0.720	0.630	3.780	-0.400	0.800																			1580006268.0	1.10	2.04
26/01/2020 02:37:49	26012020	260120	023749	3.740	12.418485	-57.629688	3.930	-0.310	-0.180	0.820	3.760	-1.100	1.100																			1580006269.0	0.74	1.37
26/01/2020 02:37:50	26012020	260120	023750	3.980	12.418487	-57.629685	4.190	-0.100	-0.760	0.880	4.030	-1.900	1.200																			1580006270.0	0.74	1.37
26/01/2020 02:37:51	26012020	260120	023751	4.190	12.418490	-57.629685	4.450	0.030	-0.760	0.910	4.250	-2.200	1.300																			1580006271.0	0.70	1.30
26/01/2020 02:37:52	26012020	260120	023752	4.470	12.418490	-57.629683	4.550	0.040	-0.400	0.970	4.490	-2.000	1.300																			1580006272.0	0.20	0.37
26/01/2020 02:37:53	26012020	260120	023753	4.530	12.418488	-57.629683	4.420	0.040	0.000	1.090	4.510	-1.600	1.400																			1580006273.0	0.30	0.56
26/01/2020 02:37:54	26012020	260120	023754	4.360	12.418487	-57.629683	4.100	0.110	0.200	1.200	4.300	-1.300	1.500																			1580006274.0	0.45	0.83
26/01/2020 02:37:55	26012020	260120	023755	4.030	12.418485	-57.629682	3.810	0.190	0.060	1.090	3.960	-1.200	1.600																			1580006275.0	0.39	0.72
26/01/2020 02:37:56	26012020	260120	023756	3.770	12.418487	-57.629680	3.800	0.180	-0.320	0.490	3.760	-1.500	1.200																			1580006276.0	0.17	0.31
26/01/2020 02:37:57	26012020	260120	023757	3.820	12.418488	-57.629683	4.010	0.100	-0.580	-0.400	3.860	-1.900	0.400																			1580006277.0	0.51	0.94
26/01/2020 02:37:58	26012020	260120	023758	4.060	12.418490	-57.629687	4.220	-0.010	-0.400	-1.070	4.110	-1.900	-0.400																			1580006278.0	1.16	2.15
26/01/2020 02:37:59	26012020	260120	023759	4.250	12.418492	-57.629693	4.250	-0.090	0.070	-1.230	4.260	-1.600	-0.800	1015.40	25.50	25.60	21.30	21.30	-1.00	77.00	77.00	391.00	24.70	39.00	4.50	44.00	4.30	14	3396.00	27.40	27.40	1580006279.0	1.23	2.28
26/01/2020 02:38:00	26012020	260120	023800	4.260	12.418490	-57.629697	4.190	-0.120	0.460	-0.970	4.250	-1.100	-0.800																			1580006280.0	0.80	1.48
26/01/2020 02:38:01	26012020	260120	023801	4.210	12.418488	-57.629697	4.160	-0.160	0.530	-0.500	4.210	-0.900	-0.400																			1580006281.0	0.39	0.72
26/01/2020 02:38:02	26012020	260120	023802	4.190	12.418488	-57.629695	4.140	-0.210	0.300	0.160	4.170	-1.000	0.200																			1580006282.0	0.55	1.02
26/01/2020 02:38:03	26012020	260120	023803	4.160	12.418487	-57.629692	4.170	-0.210	-0.100	0.850	4.150	-1.300	0.900																			1580006283.0	0.82	1.52
26/01/2020 02:38:04	26012020	260120	023804	4.180	12.418488	-57.629687	4.290	-0.090	-0.530	1.360	4.200	-1.700	1.500																			1580006284.0	0.89	1.65
26/01/2020 02:38:05	26012020	260120	023805	4.280	12.418488	-57.629683	4.380	0.100	-0.810	1.620	4.300	-2.100	1.900																			1580006285.0	0.77	1.43
26/01/2020 02:38:06	26012020	260120	023806	4.340	12.418490	-57.629680	4.350	0.260	-0.750	1.660	4.340	-2.200	2.000																			1580006286.0	0.57	1.06
26/01/2020 02:38:07	26012020	260120	023807	4.270	12.418490	-57.629680	4.140	0.290	-0.290	1.600	4.240	-1.900	2.000																			1580006287.0	0.28	0.52
26/01/2020 02:38:08	26012020	260120	023808	4.060	12.418490	-57.629680	3.910	0.200	0.230	1.410	4.020	-1.400	1.900																			1580006288.0	0.15	0.28
26/01/2020 02:38:09	26012020	260120	023809	3.850	12.418488	-57.629680	3.760	0.060	0.380	0.910	3.810	-1.000	1.600																			1580006289.0	0.40	0.74
26/01/2020 02:38:10	26012020	260120	023810	3.720	12.418487	-57.629682	3.770	-0.050	0.190	0.060	3.720	-1.100	0.900																			1580006290.0	0.50	0.93
26/01/2020 02:38:11	26012020	260120	023811	3.780	12.418488	-57.629687	3.900	-0.120	-0.000	-0.930	3.810	-1.300	-0.100																			1580006291.0	0.89	1.65
26/01/2020 02:38:12	26012020	260120	023812	3.930	12.418490	-57.629692	4.030	-0.200	-0.030	-1.630	3.960	-1.400	-1.000																			1580006292.0	1.23	2.28
26/01/2020 02:38:13	26012020	260120	023813	4.050	12.418490	-57.629697	4.150	-0.290	-0.020	-1.830	4.090	-1.400	-1.400																			1580006293.0	1.10	2.04
26/01/2020 02:38:14	26012020	260120	023814	4.210	12.418490	-57.629700	4.220	-0.350	-0.110	-1.490	4.240	-1.500	-1.300																			1580006294.0	0.64	1.19
26/01/2020 02:38:15	26012020	260120	023815	4.270	12.418490	-57.629700	4.240	-0.260	-0.300	-0.760	4.270	-1.600	-0.800																			1580006295.0	0.10	0.19
26/01/2020 02:38:16	26012020	260120	023816	4.270	12.418490	-57.629697	4.200	-0.010	-0.400	0.180	4.260	-1.800	0.100																			1580006296.0	0.55	1.02
26/01/2020 02:38:17	26012020	260120	023817	4.200	12.418490	-57.629692	4.100	0.250	-0.330	1.200	4.180	-1.800	1.100																			1580006297.0	1.10	2.04
26/01/2020 02:38:18	26012020	260120	023818	4.060	12.418488	-57.629685	3.950	0.370	-0.180	2.120	4.020	-1.600	2.100																			1580006298.0	1.37	2.54
26/01/2020 02:38:19	26012020	260120	023819	3.870	12.418488	-57.629680	3.830	0.320	-0.110	2.570	3.850	-1.500	2.800																			1580006299.0	1.32	2.44
26/01/2020 02:38:20	26012020	260120	023820	3.780	12.418487	-57.629675	3.850	0.210	-0.130	2.290	3.780	-1.500	2.900																			1580006300.0	0.90	1.67
26/01/2020 02:38:21	26012020	260120	023821	3.830	12.418488	-57.629675	3.890	0.090	-0.110	1.500	3.840	-1.500	2.300																			1580006301.0	0.13	0.24
26/01/2020 02:38:22	26012020	260120	023822	3.860	12.418488	-57.629678	3.870	-0.020	-0.010	0.560	3.860	-1.500	1.400																			1580006302.0	0.73	1.35
26/01/2020 02:38:23	26012020	260120	023823	3.870	12.418488	-57.629683	3.910	-0.100	0.090	-0.340	3.880	-1.400	0.400																			1580006303.0	1.24	2.30
26/01/2020 02:38:24	26012020	260120	023824	3.960	12.418490	-57.629690	4.000	-0.130	0.190	-1.010	3.980	-1.300	-0.300																			1580006304.0	1.39	2.57
26/01/2020 02:38:25	26012020	260120	023825	4.050	12.418490	-57.629695	4.100	-0.160	0.200	-1.370	4.070	-1.200	-0.900																			1580006305.0	1.08	2.00
26/01/2020 02:38:26	26012020	260120	023826	4.160	12.418488	-57.629698	4.090	-0.270	0.060	-1.400	4.160	-1.300	-1.100																			1580006306.0	0.46	0.85
26/01/2020 02:38:27	26012020	260120	023827	4.150	12.418488	-57.629697	4.000	-0.430	-0.070	-1.040	4.140	-1.400	-0.900																			1580006307.0	0.14	0.26
26/01/2020 02:38:28	26012020	260120	023828	4.040	12.418488	-57.629695	3.940	-0.470	-0.230	-0.490	4.020	-1.500	-0.400																			1580006308.0	0.37	0.69
26/01/2020 02:38:29	26012020	260120	023829	3.980	12.418487	-57.629693	3.960	-0.220	-0.460	0.110	3.970	-1.700	0.200																			1580006309.0	0.45	0.83
26/01/2020 02:38:30	26012020	260120	023830	3.960	12.418487	-57.629692	3.970	0.280	-0.700	0.710	3.960	-2.000	0.800																			1580006310.0	0.40	0.74
26/01/2020 02:38:31	26012020	260120	023831	3.960	12.418488	-57.629690	4.010	0.700	-0.750	1.190	3.960	-2.200	1.300																			1580006311.0	0.54	1.00
26/01/2020 02:38:32	26012020	260120	023832	3.980	12.418490	-57.629687	4.040	0.750	-0.450	1.440	3.990	-2.000	1.700																			1580006312.0	0.70	1.30
26/01/2020 02:38:33	26012020	260120	023833	4.020	12.418490	-57.629683	4.010	0.390	0.160	1.500	4.020	-1.600	1.900																			1580006313.0	0.60	1.11
26/01/2020 02:38:34	26012020	260120	023834	3.990	12.418488	-57.629682	3.930	-0.110	0.750	1.360	3.970	-0.900	1.800																			1580006314.0	0.40	0.74
26/01/2020 02:38:35	26012020	260120	023835	3.930	12.418487	-57.629682	3.930	-0.400	0.840	0.940	3.930	-0.500	1.500																			1580006315.0	0.51	0.94
26/01/2020 02:38:36	26012020	260120	023836	3.930	12.418485	-57.629685	3.920	-0.400	0.400	0.330	3.940	-0.800	1.000																			1580006316.0	0.57	1.06
26/01/2020 02:38:37	26012020	260120	023837	3.940	12.418485	-57.629688	3.890	-0.200	-0.260	-0.290	3.930	-1.400	0.400																			1580006317.0	0.76	1.41
26/01/2020 02:38:38	26012020	260120	023838	3.920	12.418487	-57.629692	3.910	0.010	-0.750	-0.780	3.920	-2.000	-0.200																			1580006318.0	0.93	1.72
26/01/2020 02:38:39	26012020	260120	023839	3.940	12.418490	-57.629695	4.040	0.070	-0.870	-1.090	3.950	-2.300	-0.600																			1580006319.0	0.74	1.37
26/01/2020 02:38:40	26012020	260120	023840	4.090	12.418490	-57.629695	4.180	0.010	-0.560	-1.110	4.130	-2.200	-0.800																			1580006320.0	0.39	0.72
26/01/2020 02:38:41	26012020	260120	023841	4.210	12.418490	-57.629697	4.220	-0.030	-0.010	-0.770	4.230	-1.700	-0.600																			1580006321.0	0.21	0.39
26/01/2020 02:38:42	26012020	260120	023842	4.240	12.418488	-57.629697	4.110	-0.020	0.430	-0.120	4.220	-1.100	-0.100																			1580006322.0	0.43	0.80
26/01/2020 02:38:43	26012020	260120	023843	4.090	12.418485	-57.629693	3.920	-0.080	0.500	0.510	4.040	-0.900	0.600																			1580006323.0	0.81	1.50
26/01/2020 02:38:44	26012020	260120	023844	3.890	12.418485	-57.629688	3.820	-0.170	0.220	0.960	3.860	-1.000	1.100																			1580006324.0	0.88	1.63
26/01/2020 02:38:45	26012020	260120	023845	3.800	12.418485	-57.629687	3.910	-0.160	-0.200	1.110	3.800	-1.400	1.400																			1580006325.0	0.49	0.91
26/01/2020 02:38:46	26012020	260120	023846	3.890	12.418485	-57.629687	4.110	0.060	-0.520	1.050	3.930	-1.800	1.400																			1580006326.0	0.23	0.43
26/01/2020 02:38:47	26012020	260120	023847	4.100	12.418487	-57.629687	4.250	0.330	-0.610	0.990	4.140	-2.000	1.400																			1580006327.0	0.30	0.56
26/01/2020 02:38:48	26012020	260120	023848	4.220	12.418487	-57.629687	4.260	0.390	-0.510	0.880	4.240	-2.000	1.300																			1580006328.0	0.15	0.28
26/01/2020 02:38:49	26012020	260120	023849	4.240	12.418487	-57.629687	4.240	0.200	-0.250	0.680	4.230	-1.800	1.200																			1580006329.0	0.13	0.24
26/01/2020 02:38:50	26012020	260120	023850	4.210	12.418487	-57.629687	4.230	-0.030	0.070	0.380	4.210	-1.500	0.900																			1580006330.0	0.13	0.24
26/01/2020 02:38:51	26012020	260120	023851	4.210	12.418487	-57.629688	4.250	-0.110	0.240	-0.020	4.210	-1.200	0.500																			1580006331.0	0.34	0.63
26/01/2020 02:38:52	26012020	260120	023852	4.250	12.418485	-57.629690	4.240	-0.060	0.240	-0.300	4.250	-1.200	0.200																			1580006332.0	0.41	0.76
26/01/2020 02:38:53	26012020	260120	023853	4.240	12.418485	-57.629692	4.160	-0.020	0.220	-0.300	4.220	-1.200	0.000																			1580006333.0	0.36	0.67
26/01/2020 02:38:54	26012020	260120	023854	4.130	12.418487	-57.629692	4.040	-0.070	0.210	-0.200	4.100	-1.200	0.100																			1580006334.0	0.19	0.35
26/01/2020 02:38:55	26012020	260120	023855	4.030	12.418485	-57.629692	4.080	-0.160	0.020	-0.260	4.030	-1.300	0.200																			1580006335.0	0.12	0.22
26/01/2020 02:38:56	26012020	260120	023856	4.080	12.418485	-57.629692	4.190	-0.190	-0.350	-0.370	4.100	-1.600	0.000																			1580006336.0	0.15	0.28
26/01/2020 02:38:57	26012020	260120	023857	4.210	12.418485	-57.629692	4.300	-0.160	-0.670	-0.300	4.230	-1.900	0.000																			1580006337.0	0.11	0.20
26/01/2020 02:38:58	26012020	260120	023858	4.300	12.418487	-57.629693	4.360	-0.030	-0.670	-0.010	4.320	-2.100	0.200																			1580006338.0	0.25	0.46
26/01/2020 02:38:59	26012020	260120	023859	4.350	12.418487	-57.629693	4.340	0.180	-0.290	0.480	4.350	-1.900	0.600	1015.40	25.50	25.60	21.40	21.30	-1.00	78.00	77.00	391.00	24.70	39.00	4.30	45.00	4.10	14	3414.00	27.50	27.40	1580006339.0	0.17	0.31
26/01/2020 02:39:00	26012020	260120	023900	4.300	12.418487	-57.629692	4.250	0.330	0.130	1.010	4.280	-1.400	1.100																			1580006340.0	0.31	0.57
26/01/2020 02:39:01	26012020	260120	023901	4.200	12.418485	-57.629688	4.170	0.280	0.230	1.300	4.180	-1.200	1.600																			1580006341.0	0.84	1.56
26/01/2020 02:39:02	26012020	260120	023902	4.110	12.418483	-57.629685	4.130	0.040	0.050	1.200	4.110	-1.200	1.700																			1580006342.0	0.79	1.46
26/01/2020 02:39:03	26012020	260120	023903	4.120	12.418483	-57.629683	4.310	-0.160	-0.190	0.720	4.140	-1.500	1.400																			1580006343.0	0.26	0.48
26/01/2020 02:39:04	26012020	260120	023904	4.360	12.418485	-57.629685	4.590	-0.150	-0.270	0.150	4.420	-1.700	0.800																			1580006344.0	0.52	0.96
26/01/2020 02:39:05	26012020	260120	023905	4.650	12.418487	-57.629690	4.740	0.030	-0.020	-0.110	4.690	-1.600	0.300																			1580006345.0	0.87	1.61
26/01/2020 02:39:06	26012020	260120	023906	4.760	12.418487	-57.629692	4.640	0.140	0.310	-0.040	4.750	-1.200	0.300																			1580006346.0	0.53	0.98
26/01/2020 02:39:07	26012020	260120	023907	4.630	12.418485	-57.629692	4.440	0.040	0.270	0.020	4.590	-1.100	0.400																			1580006347.0	0.41	0.76
26/01/2020 02:39:08	26012020	260120	023908	4.420	12.418483	-57.629690	4.290	-0.160	-0.180	-0.050	4.380	-1.300	0.400																			1580006348.0	0.52	0.96
26/01/2020 02:39:09	26012020	260120	023909	4.290	12.418483	-57.629688	4.270	-0.260	-0.580	-0.140	4.280	-1.800	0.300																			1580006349.0	0.17	0.31
26/01/2020 02:39:10	26012020	260120	023910	4.280	12.418485	-57.629690	4.350	-0.170	-0.650	-0.250	4.300	-2.100	0.200																			1580006350.0	0.46	0.85
26/01/2020 02:39:11	26012020	260120	023911	4.380	12.418487	-57.629692	4.480	0.080	-0.410	-0.310	4.410	-1.900	0.100																			1580006351.0	0.53	0.98
26/01/2020 02:39:12	26012020	260120	023912	4.530	12.418487	-57.629695	4.630	0.350	-0.170	-0.130	4.550	-1.700	0.100																			1580006352.0	0.45	0.83
26/01/2020 02:39:13	26012020	260120	023913	4.650	12.418485	-57.629695	4.690	0.460	-0.100	0.270	4.660	-1.500	0.400																			1580006353.0	0.16	0.30
26/01/2020 02:39:14	26012020	260120	023914	4.690	12.418485	-57.629692	4.700	0.330	-0.020	0.710	4.690	-1.500	0.900																			1580006354.0	0.47	0.87
26/01/2020 02:39:15	26012020	260120	023915	4.700	12.418487	-57.629688	4.740	0.010	0.270	0.930	4.710	-1.300	1.200																			1580006355.0	0.78	1.44
26/01/2020 02:39:16	26012020	260120	023916	4.740	12.418485	-57.629685	4.690	-0.330	0.640	1.020	4.740	-0.900	1.400																			1580006356.0	0.70	1.30
26/01/2020 02:39:17	26012020	260120	023917	4.700	12.418483	-57.629683	4.510	-0.500	0.680	1.080	4.670	-0.700	1.400																			1580006357.0	0.53	0.98
26/01/2020 02:39:18	26012020	260120	023918	4.480	12.418482	-57.629683	4.300	-0.390	0.130	0.970	4.430	-0.900	1.400																			1580006358.0	0.44	0.81
26/01/2020 02:39:19	26012020	260120	023919	4.310	12.418482	-57.629685	4.320	-0.040	-0.800	0.480	4.300	-1.800	1.100																			1580006359.0	0.26	0.48
26/01/2020 02:39:20	26012020	260120	023920	4.370	12.418485	-57.629688	4.570	0.310	-1.400	-0.200	4.410	-2.600	0.500																			1580006360.0	0.80	1.48
26/01/2020 02:39:21	26012020	260120	023921	4.630	12.418488	-57.629692	4.820	0.370	-1.050	-0.690	4.690	-2.700	-0.100																			1580006361.0	1.06	1.96
26/01/2020 02:39:22	26012020	260120	023922	4.870	12.418490	-57.629693	4.840	0.120	0.030	-0.670	4.880	-1.900	-0.400																			1580006362.0	0.62	1.15
26/01/2020 02:39:23	26012020	260120	023923	4.840	12.418487	-57.629695	4.590	-0.190	0.920	-0.200	4.800	-0.800	-0.100																			1580006363.0	0.67	1.24
26/01/2020 02:39:24	26012020	260120	023924	4.570	12.418482	-57.629693	4.360	-0.220	0.840	0.250	4.520	-0.400	0.400																			1580006364.0	1.05	1.94
26/01/2020 02:39:25	26012020	260120	023925	4.380	12.418480	-57.629692	4.290	0.000	0.000	0.420	4.360	-1.000	0.700																			1580006365.0	0.70	1.30
26/01/2020 02:39:26	26012020	260120	023926	4.320	12.418482	-57.629690	4.330	0.210	-0.670	0.460	4.320	-1.800	0.800																			1580006366.0	0.71	1.31
26/01/2020 02:39:27	26012020	260120	023927	4.350	12.418487	-57.629688	4.380	0.210	-0.720	0.480	4.360	-2.200	0.800																			1580006367.0	0.89	1.65
26/01/2020 02:39:28	26012020	260120	023928	4.400	12.418488	-57.629688	4.470	0.080	-0.380	0.450	4.420	-2.000	0.800																			1580006368.0	0.35	0.65
26/01/2020 02:39:29	26012020	260120	023929	4.470	12.418487	-57.629688	4.530	0.010	-0.050	0.410	4.490	-1.600	0.800																			1580006369.0	0.25	0.46
26/01/2020 02:39:30	26012020	260120	023930	4.540	12.418485	-57.629690	4.500	0.050	0.100	0.410	4.540	-1.400	0.800																			1580006370.0	0.35	0.65
26/01/2020 02:39:31	26012020	260120	023931	4.510	12.418485	-57.629690	4.350	0.090	0.230	0.480	4.490	-1.200	0.800																			1580006371.0	0.11	0.20
26/01/2020 02:39:32	26012020	260120	023932	4.340	12.418485	-57.629690	4.190	0.020	0.380	0.560	4.310	-1.100	0.900																			1580006372.0	0.05	0.09
26/01/2020 02:39:33	26012020	260120	023933	4.180	12.418485	-57.629690	4.090	-0.140	0.360	0.510	4.160	-1.000	0.900																			1580006373.0	0.17	0.31
26/01/2020 02:39:34	26012020	260120	023934	4.110	12.418483	-57.629688	4.120	-0.290	0.030	0.240	4.110	-1.200	0.800																			1580006374.0	0.26	0.48
26/01/2020 02:39:35	26012020	260120	023935	4.170	12.418483	-57.629688	4.270	-0.320	-0.420	-0.170	4.200	-1.600	0.400																			1580006375.0	0.11	0.20
26/01/2020 02:39:36	26012020	260120	023936	4.330	12.418483	-57.629690	4.460	-0.150	-0.810	-0.510	4.370	-2.000	0.000																			1580006376.0	0.37	0.69
26/01/2020 02:39:37	26012020	260120	023937	4.520	12.418485	-57.629693	4.590	0.140	-0.940	-0.570	4.550	-2.300	-0.200																			1580006377.0	0.55	1.02
26/01/2020 02:39:38	26012020	260120	023938	4.620	12.418487	-57.629693	4.540	0.360	-0.590	-0.310	4.620	-2.200	-0.100																			1580006378.0	0.43	0.80
26/01/2020 02:39:39	26012020	260120	023939	4.540	12.418487	-57.629693	4.300	0.380	0.050	0.220	4.490	-1.700	0.300																			1580006379.0	0.16	0.30
26/01/2020 02:39:40	26012020	260120	023940	4.250	12.418485	-57.629692	3.990	0.200	0.480	0.720	4.180	-1.100	0.900																			1580006380.0	0.63	1.17
26/01/2020 02:39:41	26012020	260120	023941	3.940	12.418483	-57.629688	3.840	-0.020	0.480	0.920	3.900	-0.900	1.200																			1580006381.0	0.81	1.50
26/01/2020 02:39:42	26012020	260120	023942	3.820	12.418483	-57.629687	3.890	-0.160	0.230	0.750	3.830	-1.000	1.200																			1580006382.0	0.40	0.74
26/01/2020 02:39:43	26012020	260120	023943	3.900	12.418483	-57.629687	4.020	-0.200	0.050	0.490	3.930	-1.300	1.000																			1580006383.0	0.26	0.48
26/01/2020 02:39:44	26012020	260120	023944	4.040	12.418485	-57.629688	4.130	-0.190	-0.020	0.260	4.070	-1.400	0.700																			1580006384.0	0.51	0.94
26/01/2020 02:39:45	26012020	260120	023945	4.140	12.418485	-57.629692	4.170	-0.150	-0.120	0.060	4.150	-1.500	0.500																			1580006385.0	0.47	0.87
26/01/2020 02:39:46	26012020	260120	023946	4.160	12.418485	-57.629693	4.200	-0.040	-0.360	-0.140	4.160	-1.600	0.300																			1580006386.0	0.37	0.69
26/01/2020 02:39:47	26012020	260120	023947	4.210	12.418485	-57.629693	4.350	0.130	-0.640	-0.250	4.230	-1.900	0.200																			1580006387.0	0.23	0.43
26/01/2020 02:39:48	26012020	260120	023948	4.380	12.418485	-57.629693	4.560	0.250	-0.640	-0.130	4.430	-2.100	0.100																			1580006388.0	0.20	0.37
26/01/2020 02:39:49	26012020	260120	023949	4.570	12.418487	-57.629693	4.540	0.220	-0.150	0.290	4.580	-1.800	0.400																			1580006389.0	0.34	0.63
26/01/2020 02:39:50	26012020	260120	023950	4.490	12.418487	-57.629690	4.210	0.050	0.430	0.770	4.430	-1.200	0.900																			1580006390.0	0.60	1.11
26/01/2020 02:39:51	26012020	260120	023951	4.150	12.418483	-57.629687	3.860	-0.130	0.500	0.870	4.070	-0.900	1.200																			1580006391.0	1.00	1.85
26/01/2020 02:39:52	26012020	260120	023952	3.820	12.418482	-57.629683	3.700	-0.200	0.030	0.600	3.770	-1.100	1.100																			1580006392.0	0.65	1.20
26/01/2020 02:39:53	26012020	260120	023953	3.700	12.418482	-57.629685	3.760	-0.120	-0.520	0.110	3.690	-1.700	0.700																			1580006393.0	0.27	0.50
26/01/2020 02:39:54	26012020	260120	023954	3.800	12.418485	-57.629688	3.930	0.030	-0.610	-0.350	3.830	-2.000	0.200																			1580006394.0	0.98	1.81
26/01/2020 02:39:55	26012020	260120	023955	3.940	12.418487	-57.629693	4.080	0.160	-0.290	-0.650	3.970	-1.900	-0.200																			1580006395.0	1.07	1.98
26/01/2020 02:39:56	26012020	260120	023956	4.120	12.418487	-57.629697	4.210	0.190	0.050	-0.680	4.140	-1.500	-0.300																			1580006396.0	0.79	1.46
26/01/2020 02:39:57	26012020	260120	023957	4.220	12.418485	-57.629698	4.280	0.070	0.210	-0.420	4.240	-1.200	-0.200																			1580006397.0	0.43	0.80
26/01/2020 02:39:58	26012020	260120	023958	4.280	12.418485	-57.629697	4.280	-0.160	0.240	0.050	4.280	-1.200	0.200																			1580006398.0	0.33	0.61
26/01/2020 02:39:59	26012020	260120	023959	4.270	12.418485	-57.629693	4.290	-0.380	0.140	0.550	4.270	-1.200	0.700	1015.40	25.50	25.60	21.40	21.40	-1.00	78.00	77.00	392.00	24.70	42.00	4.80	48.00	4.60	14	3293.00	27.40	27.40	1580006399.0	0.73	1.35
26/01/2020 02:40:00	26012020	260120	024000	4.280	12.418483	-57.629690	4.350	-0.420	-0.080	0.960	4.280	-1.400	1.100																			1580006400.0	0.78	1.44
26/01/2020 02:40:01	26012020	260120	024001	4.320	12.418483	-57.629687	4.280	-0.240	-0.200	1.250	4.310	-1.600	1.500																			1580006401.0	0.56	1.04
26/01/2020 02:40:02	26012020	260120	024002	4.230	12.418485	-57.629685	4.060	0.070	-0.210	1.400	4.190	-1.600	1.700																			1580006402.0	0.35	0.65
26/01/2020 02:40:03	26012020	260120	024003	4.000	12.418483	-57.629685	3.850	0.380	-0.250	1.300	3.960	-1.600	1.800																			1580006403.0	0.24	0.44
26/01/2020 02:40:04	26012020	260120	024004	3.820	12.418483	-57.629683	3.790	0.560	-0.460	0.920	3.810	-1.700	1.500																			1580006404.0	0.15	0.28
26/01/2020 02:40:05	26012020	260120	024005	3.820	12.418483	-57.629683	3.890	0.480	-0.630	0.290	3.840	-2.000	1.000																			1580006405.0	0.14	0.26
26/01/2020 02:40:06	26012020	260120	024006	3.950	12.418485	-57.629687	4.010	0.170	-0.430	-0.440	3.970	-2.000	0.300																			1580006406.0	0.60	1.11
26/01/2020 02:40:07	26012020	260120	024007	4.040	12.418487	-57.629690	4.060	-0.160	0.100	-0.950	4.050	-1.600	-0.400																			1580006407.0	1.00	1.85
26/01/2020 02:40:08	26012020	260120	024008	4.110	12.418487	-57.629697	4.100	-0.280	0.510	-1.060	4.120	-1.000	-0.700																			1580006408.0	1.10	2.04
26/01/2020 02:40:09	26012020	260120	024009	4.130	12.418485	-57.629698	4.110	-0.230	0.530	-0.840	4.130	-0.800	-0.600																			1580006409.0	0.68	1.26
26/01/2020 02:40:10	26012020	260120	024010	4.140	12.418485	-57.629698	4.140	-0.170	0.260	-0.390	4.140	-1.000	-0.300																			1580006410.0	0.17	0.31
26/01/2020 02:40:11	26012020	260120	024011	4.160	12.418485	-57.629695	4.180	-0.170	-0.060	0.160	4.170	-1.300	0.300																			1580006411.0	0.62	1.15
26/01/2020 02:40:12	26012020	260120	024012	4.200	12.418485	-57.629692	4.190	-0.230	-0.250	0.670	4.200	-1.600	0.800																			1580006412.0	0.91	1.69
26/01/2020 02:40:13	26012020	260120	024013	4.170	12.418485	-57.629687	4.020	-0.280	-0.340	1.120	4.140	-1.700	1.300																			1580006413.0	0.86	1.59
26/01/2020 02:40:14	26012020	260120	024014	3.960	12.418485	-57.629685	3.760	-0.220	-0.380	1.450	3.910	-1.800	1.700																			1580006414.0	0.59	1.09
26/01/2020 02:40:15	26012020	260120	024015	3.700	12.418485	-57.629683	3.590	-0.040	-0.420	1.470	3.660	-1.800	1.900																			1580006415.0	0.27	0.50
26/01/2020 02:40:16	26012020	260120	024016	3.560	12.418485	-57.629683	3.610	0.200	-0.390	1.070	3.560	-1.800	1.700																			1580006416.0	0.10	0.19
26/01/2020 02:40:17	26012020	260120	024017	3.640	12.418485	-57.629687	3.790	0.410	-0.270	0.480	3.670	-1.700	1.100																			1580006417.0	0.47	0.87
26/01/2020 02:40:18	26012020	260120	024018	3.820	12.418485	-57.629688	3.920	0.480	-0.060	0.000	3.850	-1.600	0.600																			1580006418.0	0.67	1.24
26/01/2020 02:40:19	26012020	260120	024019	3.930	12.418485	-57.629692	4.000	0.370	0.090	-0.350	3.940	-1.400	0.200																			1580006419.0	0.53	0.98
26/01/2020 02:40:20	26012020	260120	024020	4.030	12.418485	-57.629693	4.100	0.130	0.100	-0.640	4.050	-1.300	-0.100																			1580006420.0	0.24	0.44
26/01/2020 02:40:21	26012020	260120	024021	4.130	12.418485	-57.629693	4.190	-0.160	0.040	-0.760	4.150	-1.300	-0.400																			1580006421.0	0.08	0.15
26/01/2020 02:40:22	26012020	260120	024022	4.210	12.418487	-57.629693	4.080	-0.340	0.090	-0.560	4.200	-1.400	-0.300																			1580006422.0	0.15	0.28
26/01/2020 02:40:23	26012020	260120	024023	4.060	12.418487	-57.629693	3.800	-0.320	0.220	-0.080	4.000	-1.200	0.100																			1580006423.0	0.06	0.11
26/01/2020 02:40:24	26012020	260120	024024	3.750	12.418485	-57.629692	3.590	-0.130	0.160	0.370	3.700	-1.200	0.500																			1580006424.0	0.28	0.52
26/01/2020 02:40:25	26012020	260120	024025	3.570	12.418485	-57.629690	3.610	0.060	-0.230	0.560	3.550	-1.400	0.900																			1580006425.0	0.51	0.94
26/01/2020 02:40:26	26012020	260120	024026	3.610	12.418485	-57.629688	3.760	0.050	-0.570	0.510	3.640	-1.800	0.900																			1580006426.0	0.48	0.89
26/01/2020 02:40:27	26012020	260120	024027	3.790	12.418487	-57.629687	3.960	-0.120	-0.530	0.390	3.830	-2.000	0.800																			1580006427.0	0.37	0.69
26/01/2020 02:40:28	26012020	260120	024028	3.980	12.418487	-57.629688	4.110	-0.240	-0.190	0.330	4.020	-1.800	0.700																			1580006428.0	0.20	0.37
26/01/2020 02:40:29	26012020	260120	024029	4.120	12.418487	-57.629688	4.150	-0.170	0.150	0.360	4.140	-1.400	0.700																			1580006429.0	0.32	0.59
26/01/2020 02:40:30	26012020	260120	024030	4.150	12.418485	-57.629690	4.080	0.030	0.250	0.490	4.140	-1.200	0.800																			1580006430.0	0.37	0.69
26/01/2020 02:40:31	26012020	260120	024031	4.050	12.418483	-57.629688	3.960	0.230	0.030	0.600	4.020	-1.200	0.900																			1580006431.0	0.25	0.46
26/01/2020 02:40:32	26012020	260120	024032	3.940	12.418483	-57.629687	3.970	0.280	-0.370	0.520	3.930	-1.600	1.000																			1580006432.0	0.31	0.57
26/01/2020 02:40:33	26012020	260120	024033	3.970	12.418485	-57.629687	4.040	0.160	-0.530	0.290	3.990	-1.900	0.800																			1580006433.0	0.41	0.76
26/01/2020 02:40:34	26012020	260120	024034	4.050	12.418487	-57.629687	4.070	-0.010	-0.290	0.110	4.060	-1.800	0.600																			1580006434.0	0.35	0.65
26/01/2020 02:40:35	26012020	260120	024035	4.070	12.418487	-57.629688	4.090	-0.010	0.010	-0.010	4.080	-1.500	0.400																			1580006435.0	0.33	0.61
26/01/2020 02:40:36	26012020	260120	024036	4.110	12.418485	-57.629690	4.150	0.140	0.080	-0.070	4.130	-1.300	0.300																			1580006436.0	0.40	0.74
26/01/2020 02:40:37	26012020	260120	024037	4.190	12.418485	-57.629690	4.180	0.250	0.000	-0.050	4.200	-1.400	0.300																			1580006437.0	0.15	0.28
26/01/2020 02:40:38	26012020	260120	024038	4.200	12.418487	-57.629690	4.140	0.150	0.010	0.030	4.190	-1.400	0.400																			1580006438.0	0.22	0.41
26/01/2020 02:40:39	26012020	260120	024039	4.140	12.418487	-57.629688	4.080	-0.140	0.070	0.170	4.130	-1.400	0.500																			1580006439.0	0.32	0.59
26/01/2020 02:40:40	26012020	260120	024040	4.080	12.418487	-57.629687	4.100	-0.380	0.060	0.280	4.080	-1.300	0.600																			1580006440.0	0.24	0.44
26/01/2020 02:40:41	26012020	260120	024041	4.130	12.418485	-57.629687	4.230	-0.430	-0.040	0.240	4.160	-1.400	0.700																			1580006441.0	0.14	0.26
26/01/2020 02:40:42	26012020	260120	024042	4.270	12.418485	-57.629687	4.300	-0.320	-0.070	0.210	4.280	-1.500	0.600																			1580006442.0	0.08	0.15
26/01/2020 02:40:43	26012020	260120	024043	4.310	12.418485	-57.629687	4.230	-0.160	-0.030	0.330	4.310	-1.400	0.600																			1580006443.0	0.11	0.20
26/01/2020 02:40:44	26012020	260120	024044	4.220	12.418485	-57.629687	4.090	-0.030	-0.110	0.570	4.190	-1.400	0.800																			1580006444.0	0.15	0.28
26/01/2020 02:40:45	26012020	260120	024045	4.100	12.418483	-57.629687	4.040	0.130	-0.430	0.650	4.070	-1.700	1.000																			1580006445.0	0.27	0.50
26/01/2020 02:40:46	26012020	260120	024046	4.060	12.418485	-57.629685	4.180	0.360	-0.800	0.480	4.080	-2.000	1.000																			1580006446.0	0.22	0.41
26/01/2020 02:40:47	26012020	260120	024047	4.220	12.418487	-57.629685	4.330	0.500	-0.780	0.270	4.260	-2.300	0.700																			1580006447.0	0.40	0.74
26/01/2020 02:40:48	26012020	260120	024048	4.360	12.418488	-57.629685	4.330	0.400	-0.240	0.160	4.370	-1.900	0.600																			1580006448.0	0.39	0.72
26/01/2020 02:40:49	26012020	260120	024049	4.350	12.418488	-57.629685	4.260	0.130	0.440	0.140	4.340	-1.300	0.500																			1580006449.0	0.06	0.11
26/01/2020 02:40:50	26012020	260120	024050	4.270	12.418485	-57.629685	4.160	-0.120	0.740	0.130	4.250	-0.700	0.500																			1580006450.0	0.46	0.85
26/01/2020 02:40:51	26012020	260120	024051	4.180	12.418483	-57.629685	4.060	-0.250	0.600	0.150	4.160	-0.700	0.500																			1580006451.0	0.38	0.70
26/01/2020 02:40:52	26012020	260120	024052	4.070	12.418483	-57.629687	3.960	-0.240	0.240	0.160	4.050	-1.000	0.500																			1580006452.0	0.08	0.15
26/01/2020 02:40:53	26012020	260120	024053	4.000	12.418485	-57.629687	3.990	-0.160	-0.200	0.100	4.000	-1.400	0.500																			1580006453.0	0.21	0.39
26/01/2020 02:40:54	26012020	260120	024054	4.040	12.418487	-57.629687	4.120	-0.080	-0.600	-0.050	4.070	-1.800	0.400																			1580006454.0	0.21	0.39
26/01/2020 02:40:55	26012020	260120	024055	4.190	12.418487	-57.629687	4.270	-0.060	-0.720	-0.100	4.220	-2.100	0.300																			1580006455.0	0.22	0.41
26/01/2020 02:40:56	26012020	260120	024056	4.340	12.418488	-57.629687	4.340	-0.100	-0.480	0.010	4.360	-2.000	0.300																			1580006456.0	0.13	0.24
26/01/2020 02:40:57	26012020	260120	024057	4.390	12.418487	-57.629687	4.260	-0.120	-0.090	0.260	4.380	-1.700	0.500																			1580006457.0	0.12	0.22
26/01/2020 02:40:58	26012020	260120	024058	4.260	12.418485	-57.629685	4.090	-0.000	0.150	0.600	4.220	-1.300	0.800																			1580006458.0	0.35	0.65
26/01/2020 02:40:59	26012020	260120	024059	4.110	12.418483	-57.629683	4.060	0.210	0.030	0.800	4.090	-1.300	1.100	1015.40	25.50	25.60	21.20	21.20	-1.00	77.00	76.00	391.00	24.70	47.00	4.80	52.00	4.70	14	3269.00	27.50	27.40	1580006459.0	0.43	0.80
26/01/2020 02:41:00	26012020	260120	024100	4.090	12.418483	-57.629682	4.110	0.300	-0.200	0.750	4.100	-1.500	1.200																			1580006460.0	0.47	0.87
26/01/2020 02:41:01	26012020	260120	024101	4.160	12.418485	-57.629680	4.120	0.140	-0.130	0.530	4.160	-1.600	1.000																			1580006461.0	0.49	0.91
26/01/2020 02:41:02	26012020	260120	024102	4.150	12.418487	-57.629680	4.020	-0.140	0.220	0.370	4.130	-1.400	0.800																			1580006462.0	0.20	0.37
26/01/2020 02:41:03	26012020	260120	024103	4.040	12.418485	-57.629682	3.950	-0.270	0.330	0.190	4.030	-1.100	0.700																			1580006463.0	0.42	0.78
26/01/2020 02:41:04	26012020	260120	024104	3.980	12.418483	-57.629683	3.980	-0.140	-0.070	-0.080	3.990	-1.200	0.400																			1580006464.0	0.55	1.02
26/01/2020 02:41:05	26012020	260120	024105	4.050	12.418483	-57.629685	4.140	0.140	-0.630	-0.380	4.090	-1.800	0.100																			1580006465.0	0.42	0.78
26/01/2020 02:41:06	26012020	260120	024106	4.230	12.418487	-57.629687	4.280	0.350	-0.720	-0.450	4.260	-2.200	-0.100																			1580006466.0	0.67	1.24
26/01/2020 02:41:07	26012020	260120	024107	4.330	12.418488	-57.629688	4.260	0.300	-0.270	-0.200	4.340	-1.900	0.000																			1580006467.0	0.47	0.87
26/01/2020 02:41:08	26012020	260120	024108	4.270	12.418488	-57.629687	4.080	-0.000	0.260	0.230	4.240	-1.400	0.400																			1580006468.0	0.39	0.72
26/01/2020 02:41:09	26012020	260120	024109	4.110	12.418485	-57.629683	3.890	-0.320	0.450	0.560	4.070	-1.000	0.800																			1580006469.0	0.77	1.43
26/01/2020 02:41:10	26012020	260120	024110	3.880	12.418483	-57.629682	3.850	-0.350	0.230	0.650	3.860	-1.000	1.000																			1580006470.0	0.50	0.93
26/01/2020 02:41:11	26012020	260120	024111	3.880	12.418483	-57.629682	4.030	-0.080	-0.190	0.560	3.910	-1.400	1.000																			1580006471.0	0.02	0.04
26/01/2020 02:41:12	26012020	260120	024112	4.090	12.418485	-57.629682	4.220	0.160	-0.390	0.460	4.130	-1.800	0.900																			1580006472.0	0.33	0.61
26/01/2020 02:41:13	26012020	260120	024113	4.250	12.418487	-57.629682	4.200	0.080	-0.250	0.400	4.250	-1.800	0.800																			1580006473.0	0.34	0.63
26/01/2020 02:41:14	26012020	260120	024114	4.200	12.418487	-57.629682	4.060	-0.160	0.020	0.300	4.170	-1.500	0.700																			1580006474.0	0.13	0.24
26/01/2020 02:41:15	26012020	260120	024115	4.070	12.418485	-57.629682	3.980	-0.240	0.060	0.150	4.050	-1.300	0.600																			1580006475.0	0.40	0.74
26/01/2020 02:41:16	26012020	260120	024116	4.010	12.418483	-57.629683	3.970	-0.040	-0.180	-0.020	4.000	-1.400	0.400																			1580006476.0	0.40	0.74
26/01/2020 02:41:17	26012020	260120	024117	4.000	12.418483	-57.629685	3.940	0.250	-0.450	-0.100	4.000	-1.800	0.300																			1580006477.0	0.29	0.54
26/01/2020 02:41:18	26012020	260120	024118	3.970	12.418485	-57.629685	3.830	0.360	-0.430	-0.020	3.950	-1.900	0.300																			1580006478.0	0.43	0.80
26/01/2020 02:41:19	26012020	260120	024119	3.850	12.418487	-57.629685	3.750	0.230	-0.170	0.090	3.820	-1.700	0.400																			1580006479.0	0.25	0.46
26/01/2020 02:41:20	26012020	260120	024120	3.780	12.418487	-57.629685	3.850	0.020	0.030	0.050	3.790	-1.400	0.500																			1580006480.0	0.14	0.26
26/01/2020 02:41:21	26012020	260120	024121	3.870	12.418485	-57.629685	4.050	-0.120	0.100	-0.050	3.910	-1.300	0.400																			1580006481.0	0.22	0.41
26/01/2020 02:41:22	26012020	260120	024122	4.090	12.418485	-57.629685	4.110	-0.170	0.190	0.040	4.110	-1.300	0.300																			1580006482.0	0.07	0.13
26/01/2020 02:41:23	26012020	260120	024123	4.130	12.418485	-57.629685	4.000	-0.120	0.290	0.340	4.110	-1.200	0.600																			1580006483.0	0.04	0.07
26/01/2020 02:41:24	26012020	260120	024124	3.990	12.418483	-57.629685	3.840	-0.040	0.190	0.660	3.960	-1.100	0.900																			1580006484.0	0.23	0.43
26/01/2020 02:41:25	26012020	260120	024125	3.820	12.418483	-57.629682	3.730	0.010	-0.180	0.770	3.800	-1.400	1.100																			1580006485.0	0.43	0.80
26/01/2020 02:41:26	26012020	260120	024126	3.730	12.418483	-57.629682	3.740	0.030	-0.550	0.680	3.730	-1.800	1.100																			1580006486.0	0.29	0.54
26/01/2020 02:41:27	26012020	260120	024127	3.770	12.418485	-57.629682	3.830	0.050	-0.600	0.500	3.780	-2.000	1.000																			1580006487.0	0.31	0.57
26/01/2020 02:41:28	26012020	260120	024128	3.860	12.418487	-57.629682	3.930	0.050	-0.330	0.290	3.880	-1.900	0.800																			1580006488.0	0.31	0.57
26/01/2020 02:41:29	26012020	260120	024129	3.970	12.418485	-57.629683	3.990	0.020	0.060	0.110	3.990	-1.500	0.600																			1580006489.0	0.28	0.52
26/01/2020 02:41:30	26012020	260120	024130	4.030	12.418483	-57.629685	3.970	-0.070	0.270	0.070	4.030	-1.200	0.400																			1580006490.0	0.36	0.67
26/01/2020 02:41:31	26012020	260120	024131	3.980	12.418482	-57.629683	3.880	-0.180	0.170	0.110	3.970	-1.100	0.500																			1580006491.0	0.32	0.59
26/01/2020 02:41:32	26012020	260120	024132	3.890	12.418482	-57.629683	3.800	-0.170	-0.100	0.100	3.880	-1.400	0.500																			1580006492.0	0.09	0.17
26/01/2020 02:41:33	26012020	260120	024133	3.830	12.418483	-57.629685	3.750	0.010	-0.280	0.110	3.820	-1.600	0.500																			1580006493.0	0.22	0.41
26/01/2020 02:41:34	26012020	260120	024134	3.780	12.418485	-57.629685	3.760	0.220	-0.320	0.100	3.780	-1.700	0.500																			1580006494.0	0.24	0.44
26/01/2020 02:41:35	26012020	260120	024135	3.780	12.418485	-57.629685	3.810	0.280	-0.290	0.050	3.790	-1.700	0.500																			1580006495.0	0.08	0.15
26/01/2020 02:41:36	26012020	260120	024136	3.840	12.418485	-57.629685	3.870	0.200	-0.220	0.010	3.850	-1.700	0.400																			1580006496.0	0.05	0.09
26/01/2020 02:41:37	26012020	260120	024137	3.890	12.418485	-57.629685	3.950	0.100	-0.110	0.090	3.910	-1.600	0.400																			1580006497.0	0.20	0.37
26/01/2020 02:41:38	26012020	260120	024138	3.990	12.418485	-57.629687	4.000	0.020	0.080	0.280	4.000	-1.400	0.600																			1580006498.0	0.12	0.22
26/01/2020 02:41:39	26012020	260120	024139	4.030	12.418485	-57.629685	3.990	-0.100	0.270	0.460	4.030	-1.200	0.800																			1580006499.0	0.16	0.30
26/01/2020 02:41:40	26012020	260120	024140	4.000	12.418483	-57.629683	3.910	-0.300	0.300	0.580	3.990	-1.100	0.900																			1580006500.0	0.39	0.72
26/01/2020 02:41:41	26012020	260120	024141	3.920	12.418483	-57.629683	3.820	-0.430	0.160	0.620	3.900	-1.200	1.000																			1580006501.0	0.34	0.63
26/01/2020 02:41:42	26012020	260120	024142	3.830	12.418482	-57.629683	3.800	-0.330	-0.100	0.540	3.820	-1.400	1.000																			1580006502.0	0.11	0.20
26/01/2020 02:41:43	26012020	260120	024143	3.830	12.418482	-57.629683	3.900	0.000	-0.460	0.370	3.850	-1.700	0.800																			1580006503.0	0.17	0.31
26/01/2020 02:41:44	26012020	260120	024144	3.940	12.418483	-57.629683	3.930	0.320	-0.690	0.240	3.960	-2.000	0.700																			1580006504.0	0.24	0.44
26/01/2020 02:41:45	26012020	260120	024145	3.960	12.418485	-57.629685	3.830	0.380	-0.570	0.090	3.940	-2.100	0.500																			1580006505.0	0.29	0.54
26/01/2020 02:41:46	26012020	260120	024146	3.850	12.418485	-57.629685	3.750	0.200	-0.200	-0.080	3.830	-1.800	0.400																			1580006506.0	0.13	0.24
26/01/2020 02:41:47	26012020	260120	024147	3.800	12.418483	-57.629685	3.830	0.010	0.050	-0.260	3.800	-1.400	0.200																			1580006507.0	0.32	0.59
26/01/2020 02:41:48	26012020	260120	024148	3.910	12.418483	-57.629687	4.020	-0.060	0.070	-0.380	3.940	-1.300	0.000																			1580006508.0	0.42	0.78
26/01/2020 02:41:49	26012020	260120	024149	4.090	12.418483	-57.629688	4.130	-0.050	0.150	-0.280	4.120	-1.300	0.000																			1580006509.0	0.31	0.57
26/01/2020 02:41:50	26012020	260120	024150	4.150	12.418483	-57.629690	3.980	-0.120	0.390	0.120	4.140	-1.100	0.300																			1580006510.0	0.16	0.30
26/01/2020 02:41:51	26012020	260120	024151	3.960	12.418483	-57.629688	3.710	-0.270	0.490	0.560	3.890	-0.900	0.700																			1580006511.0	0.36	0.67
26/01/2020 02:41:52	26012020	260120	024152	3.690	12.418482	-57.629685	3.610	-0.340	0.090	0.680	3.650	-1.000	1.000																			1580006512.0	0.64	1.19
26/01/2020 02:41:53	26012020	260120	024153	3.630	12.418482	-57.629683	3.770	-0.160	-0.630	0.500	3.660	-1.700	1.000																			1580006513.0	0.29	0.54
26/01/2020 02:41:54	26012020	260120	024154	3.820	12.418483	-57.629685	3.990	0.220	-1.000	0.350	3.870	-2.300	0.800																			1580006514.0	0.48	0.89
26/01/2020 02:41:55	26012020	260120	024155	4.020	12.418485	-57.629687	4.030	0.500	-0.690	0.360	4.040	-2.300	0.700																			1580006515.0	0.65	1.20
26/01/2020 02:41:56	26012020	260120	024156	4.030	12.418487	-57.629687	3.930	0.480	-0.100	0.390	4.010	-1.800	0.800																			1580006516.0	0.10	0.19
26/01/2020 02:41:57	26012020	260120	024157	3.940	12.418483	-57.629687	3.930	0.220	0.250	0.230	3.930	-1.300	0.700																			1580006517.0	0.43	0.80
26/01/2020 02:41:58	26012020	260120	024158	3.970	12.418482	-57.629687	3.970	-0.080	0.320	0.100	3.980	-1.100	0.500																			1580006518.0	0.40	0.74
26/01/2020 02:41:59	26012020	260120	024159	3.990	12.418482	-57.629687	3.900	-0.330	0.360	0.110	3.990	-1.100	0.500	1015.40	25.50	25.60	21.30	21.20	-1.00	77.00	76.00	392.00	24.70	51.00	4.40	55.00	4.40	14	3324.00	27.40	27.40	1580006519.0	0.12	0.22
26/01/2020 02:42:00	26012020	260120	024200	3.910	12.418482	-57.629687	3.840	-0.450	0.270	0.050	3.890	-1.100	0.500																			1580006520.0	0.05	0.09
26/01/2020 02:42:01	26012020	260120	024201	3.870	12.418482	-57.629688	3.920	-0.350	-0.060	-0.180	3.870	-1.300	0.300																			1580006521.0	0.17	0.31
26/01/2020 02:42:02	26012020	260120	024202	3.970	12.418482	-57.629690	4.060	-0.060	-0.500	-0.360	4.000	-1.700	0.100																			1580006522.0	0.33	0.61
26/01/2020 02:42:03	26012020	260120	024203	4.100	12.418483	-57.629692	4.120	0.240	-0.710	-0.280	4.130	-2.000	0.000																			1580006523.0	0.39	0.72
26/01/2020 02:42:04	26012020	260120	024204	4.140	12.418485	-57.629692	4.040	0.380	-0.510	0.060	4.130	-2.000	0.300																			1580006524.0	0.33	0.61
26/01/2020 02:42:05	26012020	260120	024205	4.040	12.418485	-57.629690	3.920	0.310	-0.050	0.430	4.010	-1.700	0.600																			1580006525.0	0.26	0.48
26/01/2020 02:42:06	26012020	260120	024206	3.920	12.418483	-57.629688	3.850	0.130	0.260	0.630	3.910	-1.200	0.900																			1580006526.0	0.50	0.93
26/01/2020 02:42:07	26012020	260120	024207	3.850	12.418482	-57.629687	3.830	-0.080	0.220	0.580	3.850	-1.100	1.000																			1580006527.0	0.49	0.91
26/01/2020 02:42:08	26012020	260120	024208	3.860	12.418482	-57.629687	3.930	-0.230	0.010	0.340	3.880	-1.300	0.800																			1580006528.0	0.12	0.22
26/01/2020 02:42:09	26012020	260120	024209	3.980	12.418483	-57.629688	4.050	-0.260	-0.050	0.110	4.000	-1.400	0.600																			1580006529.0	0.39	0.72
26/01/2020 02:42:10	26012020	260120	024210	4.090	12.418483	-57.629690	4.130	-0.170	-0.050	-0.010	4.110	-1.400	0.400																			1580006530.0	0.53	0.98
26/01/2020 02:42:11	26012020	260120	024211	4.150	12.418483	-57.629692	4.200	-0.010	-0.160	-0.020	4.170	-1.500	0.400																			1580006531.0	0.37	0.69
26/01/2020 02:42:12	26012020	260120	024212	4.250	12.418483	-57.629692	4.270	0.140	-0.330	0.050	4.260	-1.600	0.400																			1580006532.0	0.10	0.19
26/01/2020 02:42:13	26012020	260120	024213	4.330	12.418483	-57.629692	4.330	0.230	-0.350	0.190	4.340	-1.800	0.500																			1580006533.0	0.16	0.30
26/01/2020 02:42:14	26012020	260120	024214	4.380	12.418483	-57.629690	4.290	0.190	-0.110	0.430	4.380	-1.600	0.700																			1580006534.0	0.38	0.70
26/01/2020 02:42:15	26012020	260120	024215	4.320	12.418483	-57.629687	4.090	0.040	0.140	0.680	4.280	-1.300	0.900																			1580006535.0	0.53	0.98
26/01/2020 02:42:16	26012020	260120	024216	4.090	12.418482	-57.629685	3.900	-0.100	0.030	0.670	4.050	-1.300	1.100																			1580006536.0	0.52	0.96
26/01/2020 02:42:17	26012020	260120	024217	3.940	12.418482	-57.629685	3.950	-0.070	-0.350	0.340	3.940	-1.500	0.900																			1580006537.0	0.11	0.20
26/01/2020 02:42:18	26012020	260120	024218	4.030	12.418483	-57.629688	4.200	0.090	-0.560	-0.160	4.080	-1.900	0.500																			1580006538.0	0.63	1.17
26/01/2020 02:42:19	26012020	260120	024219	4.310	12.418485	-57.629692	4.460	0.210	-0.300	-0.470	4.370	-1.900	0.000																			1580006539.0	0.89	1.65
26/01/2020 02:42:20	26012020	260120	024220	4.540	12.418487	-57.629695	4.490	0.130	0.290	-0.370	4.550	-1.400	-0.100																			1580006540.0	0.61	1.13
26/01/2020 02:42:21	26012020	260120	024221	4.530	12.418485	-57.629695	4.350	-0.100	0.670	-0.000	4.500	-0.800	0.200																			1580006541.0	0.35	0.65
26/01/2020 02:42:22	26012020	260120	024222	4.390	12.418482	-57.629693	4.280	-0.280	0.420	0.300	4.370	-0.800	0.600																			1580006542.0	0.71	1.31
26/01/2020 02:42:23	26012020	260120	024223	4.340	12.418480	-57.629690	4.280	-0.280	-0.250	0.440	4.330	-1.300	0.800																			1580006543.0	0.50	0.93
26/01/2020 02:42:24	26012020	260120	024224	4.350	12.418483	-57.629690	4.300	-0.150	-0.700	0.410	4.350	-1.900	0.800																			1580006544.0	0.43	0.80
26/01/2020 02:42:25	26012020	260120	024225	4.380	12.418485	-57.629690	4.370	-0.040	-0.600	0.320	4.390	-2.100	0.700																			1580006545.0	0.52	0.96
26/01/2020 02:42:26	26012020	260120	024226	4.460	12.418485	-57.629690	4.460	0.050	-0.210	0.330	4.480	-1.800	0.700																			1580006546.0	0.19	0.35
26/01/2020 02:42:27	26012020	260120	024227	4.560	12.418483	-57.629692	4.540	0.150	-0.030	0.440	4.580	-1.500	0.800																			1580006547.0	0.38	0.70
26/01/2020 02:42:28	26012020	260120	024228	4.630	12.418482	-57.629692	4.580	0.260	-0.120	0.500	4.640	-1.400	0.900																			1580006548.0	0.29	0.54
26/01/2020 02:42:29	26012020	260120	024229	4.670	12.418483	-57.629690	4.590	0.320	-0.220	0.450	4.670	-1.600	0.900																			1580006549.0	0.13	0.24
26/01/2020 02:42:30	26012020	260120	024230	4.670	12.418485	-57.629690	4.520	0.220	-0.080	0.370	4.670	-1.600	0.800																			1580006550.0	0.33	0.61
26/01/2020 02:42:31	26012020	260120	024231	4.610	12.418485	-57.629690	4.420	-0.010	0.210	0.320	4.590	-1.300	0.700																			1580006551.0	0.18	0.33
26/01/2020 02:42:32	26012020	260120	024232	4.520	12.418483	-57.629690	4.390	-0.190	0.290	0.280	4.500	-1.100	0.700																			1580006552.0	0.19	0.35
26/01/2020 02:42:33	26012020	260120	024233	4.500	12.418483	-57.629690	4.450	-0.200	0.030	0.140	4.510	-1.200	0.600																			1580006553.0	0.26	0.48
26/01/2020 02:42:34	26012020	260120	024234	4.570	12.418483	-57.629690	4.540	-0.110	-0.300	-0.150	4.590	-1.500	0.400																			1580006554.0	0.19	0.35
26/01/2020 02:42:35	26012020	260120	024235	4.670	12.418485	-57.629692	4.580	-0.030	-0.380	-0.360	4.690	-1.800	0.100																			1580006555.0	0.46	0.85
26/01/2020 02:42:36	26012020	260120	024236	4.690	12.418487	-57.629693	4.520	0.010	-0.210	-0.290	4.690	-1.700	0.000																			1580006556.0	0.45	0.83
26/01/2020 02:42:37	26012020	260120	024237	4.640	12.418485	-57.629695	4.490	0.050	-0.100	-0.080	4.630	-1.500	0.200																			1580006557.0	0.20	0.37
26/01/2020 02:42:38	26012020	260120	024238	4.600	12.418485	-57.629695	4.500	0.110	-0.130	0.140	4.600	-1.500	0.400																			1580006558.0	0.21	0.39
26/01/2020 02:42:39	26012020	260120	024239	4.620	12.418485	-57.629693	4.540	0.100	-0.150	0.330	4.630	-1.500	0.600																			1580006559.0	0.24	0.44
26/01/2020 02:42:40	26012020	260120	024240	4.650	12.418485	-57.629692	4.590	-0.000	-0.060	0.490	4.660	-1.500	0.800																			1580006560.0	0.28	0.52
26/01/2020 02:42:41	26012020	260120	024241	4.690	12.418485	-57.629692	4.590	-0.140	0.080	0.630	4.700	-1.400	0.900																			1580006561.0	0.19	0.35
26/01/2020 02:42:42	26012020	260120	024242	4.680	12.418485	-57.629690	4.540	-0.230	0.190	0.760	4.670	-1.200	1.100																			1580006562.0	0.18	0.33
26/01/2020 02:42:43	26012020	260120	024243	4.630	12.418485	-57.629690	4.500	-0.230	0.180	0.830	4.630	-1.200	1.200																			1580006563.0	0.22	0.41
26/01/2020 02:42:44	26012020	260120	024244	4.590	12.418483	-57.629688	4.520	-0.130	-0.020	0.680	4.590	-1.300	1.200																			1580006564.0	0.23	0.43
26/01/2020 02:42:45	26012020	260120	024245	4.620	12.418483	-57.629688	4.580	0.030	-0.360	0.320	4.640	-1.600	0.900																			1580006565.0	0.03	0.06
26/01/2020 02:42:46	26012020	260120	024246	4.700	12.418483	-57.629690	4.630	0.200	-0.710	-0.020	4.720	-2.000	0.500																			1580006566.0	0.27	0.50
26/01/2020 02:42:47	26012020	260120	024247	4.750	12.418485	-57.629692	4.610	0.310	-0.760	-0.170	4.750	-2.200	0.300																			1580006567.0	0.51	0.94
26/01/2020 02:42:48	26012020	260120	024248	4.710	12.418487	-57.629693	4.520	0.340	-0.400	-0.130	4.690	-2.000	0.200																			1580006568.0	0.45	0.83
26/01/2020 02:42:49	26012020	260120	024249	4.630	12.418487	-57.629693	4.460	0.330	0.060	-0.060	4.610	-1.500	0.300																			1580006569.0	0.20	0.37
26/01/2020 02:42:50	26012020	260120	024250	4.540	12.418487	-57.629693	4.480	0.250	0.300	-0.090	4.540	-1.200	0.300																			1580006570.0	0.21	0.39
26/01/2020 02:42:51	26012020	260120	024251	4.560	12.418485	-57.629693	4.590	0.010	0.350	-0.110	4.580	-1.000	0.300																			1580006571.0	0.19	0.35
26/01/2020 02:42:52	26012020	260120	024252	4.690	12.418487	-57.629693	4.730	-0.340	0.380	-0.030	4.710	-1.000	0.300																			1580006572.0	0.11	0.20
26/01/2020 02:42:53	26012020	260120	024253	4.820	12.418487	-57.629693	4.810	-0.610	0.420	0.120	4.830	-1.000	0.400																			1580006573.0	0.05	0.09
26/01/2020 02:42:54	26012020	260120	024254	4.880	12.418485	-57.629693	4.820	-0.590	0.280	0.270	4.880	-1.000	0.600																			1580006574.0	0.16	0.30
26/01/2020 02:42:55	26012020	260120	024255	4.880	12.418485	-57.629693	4.800	-0.290	-0.160	0.480	4.870	-1.300	0.700																			1580006575.0	0.25	0.46
26/01/2020 02:42:56	26012020	260120	024256	4.850	12.418485	-57.629692	4.770	0.050	-0.690	0.740	4.850	-1.800	1.000																			1580006576.0	0.26	0.48
26/01/2020 02:42:57	26012020	260120	024257	4.810	12.418485	-57.629690	4.690	0.210	-0.920	0.920	4.800	-2.200	1.200																			1580006577.0	0.52	0.96
26/01/2020 02:42:58	26012020	260120	024258	4.740	12.418487	-57.629688	4.610	0.210	-0.750	0.890	4.720	-2.300	1.300																			1580006578.0	0.46	0.85
26/01/2020 02:42:59	26012020	260120	024259	4.660	12.418487	-57.629687	4.580	0.210	-0.400	0.610	4.660	-1.900	1.100	1015.40	25.50	25.60	21.20	21.20	-1.00	77.00	76.00	392.00	24.70	47.00	4.50	53.00	4.50	14	3319.00	27.50	27.40	1580006579.0	0.03	0.06
26/01/2020 02:43:00	26012020	260120	024300	4.670	12.418485	-57.629690	4.640	0.320	-0.110	0.250	4.690	-1.600	0.800																			1580006580.0	0.41	0.76
26/01/2020 02:43:01	26012020	260120	024301	4.740	12.418485	-57.629692	4.670	0.410	0.100	-0.010	4.750	-1.400	0.500																			1580006581.0	0.51	0.94
26/01/2020 02:43:02	26012020	260120	024302	4.770	12.418487	-57.629693	4.670	0.280	0.300	-0.170	4.770	-1.200	0.300																			1580006582.0	0.40	0.74
26/01/2020 02:43:03	26012020	260120	024303	4.770	12.418487	-57.629695	4.680	-0.070	0.460	-0.240	4.770	-1.000	0.200																			1580006583.0	0.23	0.43
26/01/2020 02:43:04	26012020	260120	024304	4.770	12.418487	-57.629695	4.750	-0.430	0.500	-0.290	4.780	-0.900	0.100																			1580006584.0	0.11	0.20
26/01/2020 02:43:05	26012020	260120	024305	4.850	12.418487	-57.629695	4.860	-0.600	0.320	-0.350	4.870	-1.000	0.000																			1580006585.0	0.16	0.30
26/01/2020 02:43:06	26012020	260120	024306	4.950	12.418485	-57.629695	4.930	-0.490	-0.020	-0.270	4.970	-1.200	0.000																			1580006586.0	0.14	0.26
26/01/2020 02:43:07	26012020	260120	024307	5.000	12.418485	-57.629695	4.880	-0.180	-0.340	0.080	5.000	-1.600	0.200																			1580006587.0	0.01	0.02
26/01/2020 02:43:08	26012020	260120	024308	4.910	12.418485	-57.629695	4.670	0.180	-0.630	0.640	4.870	-1.900	0.700																			1580006588.0	0.22	0.41
26/01/2020 02:43:09	26012020	260120	024309	4.700	12.418485	-57.629692	4.580	0.430	-0.910	0.910	4.670	-2.200	1.200																			1580006589.0	0.62	1.15
26/01/2020 02:43:10	26012020	260120	024310	4.670	12.418487	-57.629688	4.730	0.420	-0.900	0.790	4.700	-2.400	1.200																			1580006590.0	0.74	1.37
26/01/2020 02:43:11	26012020	260120	024311	4.830	12.418487	-57.629687	4.840	0.190	-0.330	0.610	4.870	-2.000	1.100																			1580006591.0	0.39	0.72
26/01/2020 02:43:12	26012020	260120	024312	4.910	12.418487	-57.629688	4.740	-0.040	0.460	0.540	4.900	-1.300	0.900																			1580006592.0	0.20	0.37
26/01/2020 02:43:13	26012020	260120	024313	4.820	12.418485	-57.629690	4.540	-0.110	0.830	0.490	4.780	-0.600	0.900																			1580006593.0	0.63	1.17
26/01/2020 02:43:14	26012020	260120	024314	4.580	12.418483	-57.629690	4.380	-0.050	0.520	0.300	4.550	-0.600	0.800																			1580006594.0	0.54	1.00
26/01/2020 02:43:15	26012020	260120	024315	4.460	12.418483	-57.629692	4.440	-0.020	-0.150	-0.070	4.460	-1.200	0.500																			1580006595.0	0.19	0.35
26/01/2020 02:43:16	26012020	260120	024316	4.580	12.418485	-57.629693	4.710	-0.070	-0.650	-0.520	4.630	-1.900	0.100																			1580006596.0	0.65	1.20
26/01/2020 02:43:17	26012020	260120	024317	4.860	12.418488	-57.629695	4.880	-0.150	-0.520	-0.650	4.910	-2.000	-0.300																			1580006597.0	0.85	1.57
26/01/2020 02:43:18	26012020	260120	024318	4.990	12.418490	-57.629698	4.840	-0.180	0.010	-0.330	4.990	-1.600	-0.100																			1580006598.0	0.51	0.94
26/01/2020 02:43:19	26012020	260120	024319	4.920	12.418487	-57.629697	4.770	-0.110	0.280	0.110	4.890	-1.200	0.300																			1580006599.0	0.50	0.93
26/01/2020 02:43:20	26012020	260120	024320	4.840	12.418485	-57.629695	4.760	0.000	0.030	0.490	4.830	-1.200	0.700																			1580006600.0	0.81	1.50
26/01/2020 02:43:21	26012020	260120	024321	4.840	12.418483	-57.629692	4.770	0.050	-0.270	0.820	4.850	-1.500	1.000																			1580006601.0	0.71	1.31
26/01/2020 02:43:22	26012020	260120	024322	4.840	12.418485	-57.629688	4.720	0.030	-0.220	1.150	4.830	-1.700	1.400																			1580006602.0	0.67	1.24
26/01/2020 02:43:23	26012020	260120	024323	4.770	12.418485	-57.629687	4.640	0.040	-0.080	1.230	4.750	-1.500	1.600																			1580006603.0	0.44	0.81
26/01/2020 02:43:24	26012020	260120	024324	4.710	12.418485	-57.629685	4.630	0.110	-0.210	0.940	4.700	-1.500	1.500																			1580006604.0	0.34	0.63
26/01/2020 02:43:25	26012020	260120	024325	4.710	12.418483	-57.629687	4.680	0.160	-0.440	0.430	4.720	-1.700	1.100																			1580006605.0	0.13	0.24
26/01/2020 02:43:26	26012020	260120	024326	4.790	12.418485	-57.629688	4.690	0.070	-0.350	0.020	4.800	-1.800	0.600																			1580006606.0	0.51	0.94
26/01/2020 02:43:27	26012020	260120	024327	4.800	12.418487	-57.629690	4.630	-0.110	0.020	-0.230	4.780	-1.500	0.300																			1580006607.0	0.58	1.07
26/01/2020 02:43:28	26012020	260120	024328	4.710	12.418485	-57.629693	4.560	-0.200	0.260	-0.430	4.690	-1.200	0.000																			1580006608.0	0.56	1.04
26/01/2020 02:43:29	26012020	260120	024329	4.640	12.418485	-57.629695	4.510	-0.050	0.140	-0.540	4.630	-1.100	-0.100																			1580006609.0	0.59	1.09
26/01/2020 02:43:30	26012020	260120	024330	4.590	12.418483	-57.629697	4.530	0.200	-0.150	-0.530	4.590	-1.400	-0.200																			1580006610.0	0.31	0.57
26/01/2020 02:43:31	26012020	260120	024331	4.630	12.418485	-57.629697	4.680	0.320	-0.400	-0.450	4.660	-1.700	-0.100																			1580006611.0	0.28	0.52
26/01/2020 02:43:32	26012020	260120	024332	4.790	12.418487	-57.629697	4.830	0.170	-0.340	-0.190	4.820	-1.800	0.000																			1580006612.0	0.41	0.76
26/01/2020 02:43:33	26012020	260120	024333	4.880	12.418488	-57.629695	4.750	-0.150	0.090	0.300	4.870	-1.500	0.400																			1580006613.0	0.35	0.65
26/01/2020 02:43:34	26012020	260120	024334	4.760	12.418487	-57.629693	4.590	-0.400	0.480	0.800	4.730	-1.000	1.000																			1580006614.0	0.47	0.87
26/01/2020 02:43:35	26012020	260120	024335	4.620	12.418483	-57.629690	4.570	-0.440	0.420	0.980	4.600	-0.900	1.300																			1580006615.0	0.83	1.54
26/01/2020 02:43:36	26012020	260120	024336	4.620	12.418482	-57.629688	4.590	-0.330	0.050	0.960	4.630	-1.100	1.400																			1580006616.0	0.63	1.17
26/01/2020 02:43:37	26012020	260120	024337	4.660	12.418482	-57.629687	4.550	-0.130	-0.320	0.910	4.660	-1.500	1.300																			1580006617.0	0.21	0.39
26/01/2020 02:43:38	26012020	260120	024338	4.600	12.418483	-57.629687	4.430	0.110	-0.640	0.750	4.580	-1.900	1.200																			1580006618.0	0.17	0.31
26/01/2020 02:43:39	26012020	260120	024339	4.500	12.418483	-57.629688	4.360	0.400	-0.880	0.440	4.490	-2.200	1.000																			1580006619.0	0.27	0.50
26/01/2020 02:43:40	26012020	260120	024340	4.430	12.418485	-57.629690	4.380	0.580	-0.840	0.060	4.440	-2.300	0.600																			1580006620.0	0.41	0.76
26/01/2020 02:43:41	26012020	260120	024341	4.470	12.418487	-57.629692	4.470	0.510	-0.430	-0.290	4.480	-2.000	0.200																			1580006621.0	0.44	0.81
26/01/2020 02:43:42	26012020	260120	024342	4.580	12.418487	-57.629693	4.490	0.220	0.230	-0.420	4.590	-1.500	-0.000																			1580006622.0	0.36	0.67
26/01/2020 02:43:43	26012020	260120	024343	4.580	12.418485	-57.629695	4.390	-0.160	0.770	-0.340	4.560	-0.800	-0.000																			1580006623.0	0.38	0.70
26/01/2020 02:43:44	26012020	260120	024344	4.450	12.418483	-57.629695	4.270	-0.470	0.920	-0.240	4.420	-0.500	0.100																			1580006624.0	0.42	0.78
26/01/2020 02:43:45	26012020	260120	024345	4.330	12.418482	-57.629695	4.270	-0.580	0.630	-0.180	4.330	-0.600	0.200																			1580006625.0	0.32	0.59
26/01/2020 02:43:46	26012020	260120	024346	4.350	12.418482	-57.629695	4.310	-0.430	0.090	-0.040	4.360	-1.000	0.200																			1580006626.0	0.12	0.22
26/01/2020 02:43:47	26012020	260120	024347	4.360	12.418482	-57.629695	4.280	-0.120	-0.490	0.280	4.360	-1.600	0.500																			1580006627.0	0.15	0.28
26/01/2020 02:43:48	26012020	260120	024348	4.350	12.418483	-57.629693	4.300	0.160	-0.930	0.640	4.340	-2.100	0.800																			1580006628.0	0.42	0.78
26/01/2020 02:43:49	26012020	260120	024349	4.340	12.418483	-57.629690	4.330	0.290	-1.080	0.870	4.350	-2.400	1.200																			1580006629.0	0.66	1.22
26/01/2020 02:43:50	26012020	260120	024350	4.380	12.418485	-57.629688	4.380	0.290	-0.840	0.890	4.390	-2.400	1.300																			1580006630.0	0.59	1.09
26/01/2020 02:43:51	26012020	260120	024351	4.430	12.418485	-57.629687	4.300	0.230	-0.230	0.850	4.420	-1.900	1.200																			1580006631.0	0.25	0.46
26/01/2020 02:43:52	26012020	260120	024352	4.310	12.418483	-57.629687	4.050	0.160	0.490	0.850	4.270	-1.200	1.200																			1580006632.0	0.19	0.35
26/01/2020 02:43:53	26012020	260120	024353	4.050	12.418482	-57.629687	3.820	0.060	0.850	0.740	4.000	-0.600	1.200																			1580006633.0	0.44	0.81
26/01/2020 02:43:54	26012020	260120	024354	3.850	12.418480	-57.629688	3.760	-0.100	0.640	0.330	3.830	-0.600	1.000																			1580006634.0	0.42	0.78
26/01/2020 02:43:55	26012020	260120	024355	3.850	12.418480	-57.629690	3.850	-0.270	0.170	-0.280	3.870	-1.000	0.400																			1580006635.0	0.32	0.59
26/01/2020 02:43:56	26012020	260120	024356	3.940	12.418482	-57.629693	3.890	-0.400	-0.170	-0.730	3.960	-1.400	-0.200																			1580006636.0	0.71	1.31
26/01/2020 02:43:57	26012020	260120	024357	3.980	12.418483	-57.629697	3.960	-0.380	-0.350	-0.900	3.980	-1.600	-0.500																			1580006637.0	0.77	1.43
26/01/2020 02:43:58	26012020	260120	024358	4.050	12.418482	-57.629698	4.150	-0.160	-0.600	-0.880	4.080	-1.800	-0.500																			1580006638.0	0.49	0.91
26/01/2020 02:43:59	26012020	260120	024359	4.220	12.418482	-57.629700	4.270	0.170	-0.780	-0.570	4.260	-2.100	-0.400	1015.40	25.50	25.60	21.30	21.30	-1.00	77.00	77.00	392.00	24.70	41.00	4.90	46.00	4.80	14	3324.00	27.50	27.40	1580006639.0	0.18	0.33
26/01/2020 02:44:00	26012020	260120	024400	4.310	12.418483	-57.629698	4.180	0.410	-0.620	0.060	4.300	-2.100	0.100																			1580006640.0	0.29	0.54
26/01/2020 02:44:01	26012020	260120	024401	4.160	12.418483	-57.629695	3.950	0.400	-0.180	0.790	4.110	-1.800	0.800																			1580006641.0	0.77	1.43
26/01/2020 02:44:02	26012020	260120	024402	3.920	12.418482	-57.629690	3.750	0.220	0.210	1.390	3.870	-1.300	1.500																			1580006642.0	1.06	1.96
26/01/2020 02:44:03	26012020	260120	024403	3.760	12.418480	-57.629685	3.710	0.040	0.330	1.590	3.740	-1.100	1.900																			1580006643.0	0.93	1.72
26/01/2020 02:44:04	26012020	260120	024404	3.740	12.418480	-57.629683	3.760	-0.030	0.260	1.360	3.750	-1.100	1.900																			1580006644.0	0.45	0.83
26/01/2020 02:44:05	26012020	260120	024405	3.780	12.418480	-57.629683	3.740	-0.070	0.230	0.960	3.790	-1.100	1.500																			1580006645.0	0.17	0.31
26/01/2020 02:44:06	26012020	260120	024406	3.770	12.418482	-57.629687	3.710	-0.120	0.160	0.420	3.770	-1.200	1.100																			1580006646.0	0.43	0.80
26/01/2020 02:44:07	26012020	260120	024407	3.770	12.418482	-57.629688	3.810	-0.200	-0.080	-0.290	3.790	-1.300	0.500																			1580006647.0	0.54	1.00
26/01/2020 02:44:08	26012020	260120	024408	3.910	12.418482	-57.629692	3.920	-0.290	-0.340	-0.970	3.940	-1.600	-0.300																			1580006648.0	0.61	1.13
26/01/2020 02:44:09	26012020	260120	024409	4.000	12.418482	-57.629695	3.800	-0.330	-0.330	-1.220	3.980	-1.800	-0.800																			1580006649.0	0.79	1.46
26/01/2020 02:44:10	26012020	260120	024410	3.820	12.418482	-57.629698	3.530	-0.200	-0.180	-0.990	3.760	-1.600	-0.700																			1580006650.0	0.76	1.41
26/01/2020 02:44:11	26012020	260120	024411	3.560	12.418482	-57.629700	3.440	0.120	-0.290	-0.720	3.530	-1.600	-0.400																			1580006651.0	0.42	0.78
26/01/2020 02:44:12	26012020	260120	024412	3.500	12.418480	-57.629700	3.550	0.440	-0.600	-0.560	3.520	-1.800	-0.300																			1580006652.0	0.27	0.50
26/01/2020 02:44:13	26012020	260120	024413	3.620	12.418482	-57.629698	3.610	0.500	-0.570	-0.250	3.640	-2.000	-0.000																			1580006653.0	0.49	0.91
26/01/2020 02:44:14	26012020	260120	024414	3.640	12.418483	-57.629695	3.530	0.310	-0.090	0.230	3.630	-1.700	0.400																			1580006654.0	0.57	1.06
26/01/2020 02:44:15	26012020	260120	024415	3.550	12.418483	-57.629693	3.520	0.070	0.330	0.580	3.530	-1.200	0.800																			1580006655.0	0.49	0.91
26/01/2020 02:44:16	26012020	260120	024416	3.570	12.418482	-57.629692	3.670	-0.060	0.390	0.670	3.590	-1.000	1.000																			1580006656.0	0.63	1.17
26/01/2020 02:44:17	26012020	260120	024417	3.700	12.418480	-57.629688	3.770	-0.160	0.330	0.680	3.730	-1.000	1.000																			1580006657.0	0.42	0.78
26/01/2020 02:44:18	26012020	260120	024418	3.790	12.418480	-57.629688	3.580	-0.280	0.390	0.750	3.770	-1.000	1.100																			1580006658.0	0.23	0.43
26/01/2020 02:44:19	26012020	260120	024419	3.540	12.418480	-57.629688	3.170	-0.350	0.390	0.770	3.470	-1.000	1.200																			1580006659.0	0.08	0.15
26/01/2020 02:44:20	26012020	260120	024420	3.140	12.418480	-57.629688	2.840	-0.280	-0.040	0.540	3.070	-1.200	1.100																			1580006660.0	0.28	0.52
26/01/2020 02:44:21	26012020	260120	024421	2.860	12.418478	-57.629688	2.820	-0.100	-0.840	-0.070	2.850	-1.800	0.600																			1580006661.0	0.20	0.37
26/01/2020 02:44:22	26012020	260120	024422	2.920	12.418480	-57.629692	3.050	0.110	-1.360	-0.830	2.960	-2.600	-0.100																			1580006662.0	0.68	1.26
26/01/2020 02:44:23	26012020	260120	024423	3.180	12.418483	-57.629697	3.300	0.270	-1.070	-1.380	3.230	-2.700	-0.800																			1580006663.0	1.25	2.31
26/01/2020 02:44:24	26012020	260120	024424	3.400	12.418485	-57.629700	3.390	0.330	-0.150	-1.420	3.420	-2.000	-1.100																			1580006664.0	1.06	1.96
26/01/2020 02:44:25	26012020	260120	024425	3.440	12.418483	-57.629703	3.290	0.280	0.690	-0.940	3.430	-1.000	-0.800																			1580006665.0	0.63	1.17
26/01/2020 02:44:26	26012020	260120	024426	3.310	12.418480	-57.629702	3.150	0.110	0.860	-0.240	3.270	-0.500	-0.200																			1580006666.0	0.78	1.44
26/01/2020 02:44:27	26012020	260120	024427	3.150	12.418478	-57.629698	3.110	-0.080	0.390	0.330	3.140	-0.700	0.500																			1580006667.0	0.96	1.78
26/01/2020 02:44:28	26012020	260120	024428	3.140	12.418478	-57.629693	3.140	-0.180	-0.080	0.740	3.140	-1.300	0.900																			1580006668.0	0.87	1.61
26/01/2020 02:44:29	26012020	260120	024429	3.150	12.418482	-57.629692	3.040	-0.130	-0.170	1.090	3.140	-1.600	1.300																			1580006669.0	0.74	1.37
26/01/2020 02:44:30	26012020	260120	024430	3.020	12.418482	-57.629690	2.890	0.000	-0.200	1.250	2.990	-1.600	1.600																			1580006670.0	0.41	0.76
26/01/2020 02:44:31	26012020	260120	024431	2.910	12.418480	-57.629688	2.950	0.100	-0.510	0.980	2.890	-1.700	1.600																			1580006671.0	0.41	0.76
26/01/2020 02:44:32	26012020	260120	024432	3.000	12.418480	-57.629688	3.210	0.080	-0.770	0.340	3.050	-2.100	1.000																			1580006672.0	0.03	0.06
26/01/2020 02:44:33	26012020	260120	024433	3.280	12.418483	-57.629690	3.370	-0.060	-0.450	-0.210	3.330	-2.100	0.400																			1580006673.0	0.63	1.17
26/01/2020 02:44:34	26012020	260120	024434	3.400	12.418483	-57.629693	3.250	-0.160	0.250	-0.430	3.390	-1.500	0.000																			1580006674.0	0.83	1.54
26/01/2020 02:44:35	26012020	260120	024435	3.260	12.418482	-57.629697	3.080	-0.120	0.590	-0.530	3.220	-0.900	-0.100																			1580006675.0	0.75	1.39
26/01/2020 02:44:36	26012020	260120	024436	3.110	12.418478	-57.629698	3.030	0.010	0.350	-0.650	3.090	-0.900	-0.200																			1580006676.0	0.59	1.09
26/01/2020 02:44:37	26012020	260120	024437	3.080	12.418478	-57.629698	3.090	0.100	-0.100	-0.690	3.080	-1.300	-0.300																			1580006677.0	0.06	0.11
26/01/2020 02:44:38	26012020	260120	024438	3.140	12.418480	-57.629698	3.180	0.060	-0.380	-0.640	3.150	-1.700	-0.300																			1580006678.0	0.37	0.69
26/01/2020 02:44:39	26012020	260120	024439	3.210	12.418482	-57.629698	3.180	-0.040	-0.440	-0.510	3.210	-1.800	-0.200																			1580006679.0	0.31	0.57
26/01/2020 02:44:40	26012020	260120	024440	3.210	12.418482	-57.629698	3.190	-0.040	-0.390	-0.310	3.200	-1.800	-0.000																			1580006680.0	0.07	0.13
26/01/2020 02:44:41	26012020	260120	024441	3.210	12.418482	-57.629698	3.240	0.110	-0.290	-0.050	3.220	-1.700	0.200																			1580006681.0	0.06	0.11
26/01/2020 02:44:42	26012020	260120	024442	3.270	12.418482	-57.629697	3.290	0.290	-0.140	0.340	3.280	-1.600	0.500																			1580006682.0	0.09	0.17
26/01/2020 02:44:43	26012020	260120	024443	3.300	12.418482	-57.629695	3.340	0.370	-0.050	0.670	3.310	-1.500	0.900																			1580006683.0	0.35	0.65
26/01/2020 02:44:44	26012020	260120	024444	3.370	12.418482	-57.629693	3.440	0.260	-0.060	0.720	3.390	-1.400	1.100																			1580006684.0	0.52	0.96
26/01/2020 02:44:45	26012020	260120	024445	3.490	12.418483	-57.629692	3.550	-0.010	0.020	0.560	3.520	-1.400	1.000																			1580006685.0	0.43	0.80
26/01/2020 02:44:46	26012020	260120	024446	3.590	12.418483	-57.629690	3.550	-0.340	0.300	0.410	3.600	-1.300	0.900																			1580006686.0	0.18	0.33
26/01/2020 02:44:47	26012020	260120	024447	3.560	12.418483	-57.629692	3.410	-0.550	0.570	0.310	3.540	-0.900	0.700																			1580006687.0	0.15	0.28
26/01/2020 02:44:48	26012020	260120	024448	3.410	12.418480	-57.629692	3.240	-0.490	0.410	0.130	3.380	-0.800	0.600																			1580006688.0	0.44	0.81
26/01/2020 02:44:49	26012020	260120	024449	3.270	12.418480	-57.629693	3.190	-0.190	-0.200	-0.200	3.250	-1.300	0.400																			1580006689.0	0.39	0.72
26/01/2020 02:44:50	26012020	260120	024450	3.250	12.418480	-57.629695	3.280	0.160	-0.860	-0.620	3.260	-2.000	-0.000																			1580006690.0	0.41	0.76
26/01/2020 02:44:51	26012020	260120	024451	3.370	12.418483	-57.629697	3.490	0.330	-1.090	-1.050	3.410	-2.400	-0.500																			1580006691.0	0.67	1.24
26/01/2020 02:44:52	26012020	260120	024452	3.600	12.418485	-57.629698	3.700	0.290	-0.770	-1.280	3.650	-2.400	-0.800																			1580006692.0	0.62	1.15
26/01/2020 02:44:53	26012020	260120	024453	3.760	12.418485	-57.629702	3.710	0.140	-0.060	-1.010	3.780	-1.800	-0.800																			1580006693.0	0.43	0.80
26/01/2020 02:44:54	26012020	260120	024454	3.720	12.418483	-57.629702	3.490	0.040	0.570	-0.280	3.680	-1.100	-0.300																			1580006694.0	0.38	0.70
26/01/2020 02:44:55	26012020	260120	024455	3.530	12.418482	-57.629700	3.360	0.060	0.610	0.380	3.480	-0.700	0.500																			1580006695.0	0.60	1.11
26/01/2020 02:44:56	26012020	260120	024456	3.390	12.418480	-57.629697	3.490	0.080	0.150	0.710	3.410	-1.000	1.000																			1580006696.0	0.79	1.46
26/01/2020 02:44:57	26012020	260120	024457	3.530	12.418482	-57.629693	3.680	-0.020	-0.200	0.850	3.570	-1.500	1.200																			1580006697.0	0.84	1.56
26/01/2020 02:44:58	26012020	260120	024458	3.720	12.418483	-57.629692	3.780	-0.190	-0.140	0.950	3.750	-1.600	1.300																			1580006698.0	0.70	1.30
26/01/2020 02:44:59	26012020	260120	024459	3.810	12.418485	-57.629690	3.750	-0.260	0.040	0.980	3.810	-1.400	1.400	1015.30	25.50	25.60	21.30	21.20	-1.00	77.00	76.00	392.00	24.70	41.00	4.90	46.00	4.70	14	3344.00	27.50	27.40	1580006699.0	0.29	0.54
26/01/2020 02:45:00	26012020	260120	024500	3.750	12.418483	-57.629688	3.630	-0.130	-0.100	0.800	3.720	-1.400	1.300																			1580006700.0	0.33	0.61
26/01/2020 02:45:01	26012020	260120	024501	3.650	12.418482	-57.629690	3.590	0.080	-0.460	0.320	3.640	-1.700	1.000																			1580006701.0	0.18	0.33
26/01/2020 02:45:02	26012020	260120	024502	3.650	12.418483	-57.629690	3.620	0.220	-0.560	-0.250	3.660	-2.000	0.400																			1580006702.0	0.39	0.72
26/01/2020 02:45:03	26012020	260120	024503	3.670	12.418485	-57.629693	3.610	0.250	-0.310	-0.640	3.670	-1.800	-0.100																			1580006703.0	0.71	1.31
26/01/2020 02:45:04	26012020	260120	024504	3.660	12.418485	-57.629697	3.620	0.180	-0.080	-0.940	3.670	-1.600	-0.400																			1580006704.0	0.63	1.17
26/01/2020 02:45:05	26012020	260120	024505	3.690	12.418485	-57.629698	3.640	0.040	0.010	-1.150	3.700	-1.400	-0.700																			1580006705.0	0.51	0.94
26/01/2020 02:45:06	26012020	260120	024506	3.700	12.418485	-57.629700	3.560	-0.150	0.140	-1.090	3.690	-1.300	-0.800																			1580006706.0	0.40	0.74
26/01/2020 02:45:07	26012020	260120	024507	3.630	12.418485	-57.629702	3.500	-0.310	0.340	-0.760	3.600	-1.100	-0.600																			1580006707.0	0.29	0.54
26/01/2020 02:45:08	26012020	260120	024508	3.560	12.418485	-57.629702	3.610	-0.340	0.360	-0.370	3.570	-1.000	-0.200																			1580006708.0	0.15	0.28
26/01/2020 02:45:09	26012020	260120	024509	3.700	12.418483	-57.629700	3.830	-0.220	0.100	-0.010	3.750	-1.100	0.200																			1580006709.0	0.45	0.83
26/01/2020 02:45:10	26012020	260120	024510	3.910	12.418483	-57.629698	3.950	-0.030	-0.300	0.380	3.940	-1.500	0.600																			1580006710.0	0.51	0.94
26/01/2020 02:45:11	26012020	260120	024511	3.990	12.418483	-57.629695	3.910	0.160	-0.610	0.790	3.990	-1.900	1.000																			1580006711.0	0.63	1.17
26/01/2020 02:45:12	26012020	260120	024512	3.930	12.418485	-57.629692	3.800	0.260	-0.650	1.080	3.910	-2.100	1.300																			1580006712.0	0.69	1.28
26/01/2020 02:45:13	26012020	260120	024513	3.830	12.418485	-57.629688	3.710	0.290	-0.480	1.150	3.810	-2.000	1.500																			1580006713.0	0.60	1.11
26/01/2020 02:45:14	26012020	260120	024514	3.750	12.418485	-57.629687	3.650	0.260	-0.270	0.960	3.740	-1.800	1.500																			1580006714.0	0.38	0.70
26/01/2020 02:45:15	26012020	260120	024515	3.690	12.418485	-57.629687	3.580	0.170	-0.020	0.540	3.680	-1.500	1.200																			1580006715.0	0.03	0.06
26/01/2020 02:45:16	26012020	260120	024516	3.630	12.418485	-57.629690	3.530	0.030	0.280	-0.100	3.610	-1.200	0.600																			1580006716.0	0.48	0.89
26/01/2020 02:45:17	26012020	260120	024517	3.590	12.418485	-57.629693	3.530	-0.090	0.450	-0.780	3.590	-1.000	-0.100																			1580006717.0	0.80	1.48
26/01/2020 02:45:18	26012020	260120	024518	3.610	12.418485	-57.629698	3.630	-0.170	0.380	-1.270	3.630	-0.900	-0.700																			1580006718.0	0.93	1.72
26/01/2020 02:45:19	26012020	260120	024519	3.690	12.418485	-57.629702	3.810	-0.210	0.110	-1.520	3.720	-1.100	-1.000																			1580006719.0	0.74	1.37
26/01/2020 02:45:20	26012020	260120	024520	3.900	12.418485	-57.629703	3.950	-0.260	-0.150	-1.480	3.940	-1.400	-1.200																			1580006720.0	0.37	0.69
26/01/2020 02:45:21	26012020	260120	024521	4.000	12.418485	-57.629703	3.870	-0.300	-0.270	-1.060	4.010	-1.600	-0.900																			1580006721.0	0.14	0.26
26/01/2020 02:45:22	26012020	260120	024522	3.890	12.418485	-57.629702	3.710	-0.270	-0.300	-0.400	3.850	-1.700	-0.400																			1580006722.0	0.27	0.50
26/01/2020 02:45:23	26012020	260120	024523	3.740	12.418485	-57.629700	3.690	-0.070	-0.460	0.210	3.710	-1.800	0.300																			1580006723.0	0.57	1.06
26/01/2020 02:45:24	26012020	260120	024524	3.740	12.418483	-57.629695	3.820	0.250	-0.620	0.690	3.760	-2.000	0.800																			1580006724.0	0.73	1.35
26/01/2020 02:45:25	26012020	260120	024525	3.850	12.418485	-57.629692	3.870	0.520	-0.530	1.110	3.870	-2.000	1.300																			1580006725.0	0.71	1.31
26/01/2020 02:45:26	26012020	260120	024526	3.900	12.418485	-57.629688	3.810	0.570	-0.240	1.370	3.890	-1.800	1.600																			1580006726.0	0.72	1.33
26/01/2020 02:45:27	26012020	260120	024527	3.820	12.418485	-57.629687	3.640	0.320	0.080	1.280	3.800	-1.500	1.800																			1580006727.0	0.68	1.26
26/01/2020 02:45:28	26012020	260120	024528	3.650	12.418485	-57.629685	3.440	-0.130	0.420	0.730	3.610	-1.100	1.400																			1580006728.0	0.33	0.61
26/01/2020 02:45:29	26012020	260120	024529	3.480	12.418483	-57.629687	3.280	-0.530	0.760	0.000	3.440	-0.800	0.700																			1580006729.0	0.53	0.98
26/01/2020 02:45:30	26012020	260120	024530	3.350	12.418483	-57.629693	3.300	-0.610	0.760	-0.750	3.340	-0.600	0.000																			1580006730.0	1.22	2.26
26/01/2020 02:45:31	26012020	260120	024531	3.430	12.418482	-57.629698	3.640	-0.340	0.050	-1.530	3.490	-0.900	-0.800																			1580006731.0	1.34	2.48
26/01/2020 02:45:32	26012020	260120	024532	3.820	12.418482	-57.629703	4.060	0.020	-0.860	-1.990	3.910	-1.900	-1.500																			1580006732.0	0.99	1.83
26/01/2020 02:45:33	26012020	260120	024533	4.150	12.418485	-57.629705	4.250	0.160	-1.140	-1.850	4.210	-2.500	-1.600																			1580006733.0	0.86	1.59
26/01/2020 02:45:34	26012020	260120	024534	4.300	12.418488	-57.629705	4.070	0.040	-0.540	-1.150	4.270	-2.300	-1.200																			1580006734.0	0.57	1.06
26/01/2020 02:45:35	26012020	260120	024535	4.030	12.418487	-57.629702	3.670	-0.090	0.200	-0.180	3.960	-1.500	-0.300																			1580006735.0	0.84	1.56
26/01/2020 02:45:36	26012020	260120	024536	3.630	12.418482	-57.629695	3.400	0.030	0.210	0.590	3.570	-1.100	0.600																			1580006736.0	1.47	2.72
26/01/2020 02:45:37	26012020	260120	024537	3.390	12.418478	-57.629692	3.320	0.370	-0.320	1.060	3.370	-1.400	1.200																			1580006737.0	1.11	2.06
26/01/2020 02:45:38	26012020	260120	024538	3.350	12.418482	-57.629688	3.360	0.650	-0.580	1.210	3.360	-1.900	1.600																			1580006738.0	0.69	1.28
26/01/2020 02:45:39	26012020	260120	024539	3.410	12.418485	-57.629688	3.440	0.630	-0.300	1.020	3.420	-1.900	1.500																			1580006739.0	0.74	1.37
26/01/2020 02:45:40	26012020	260120	024540	3.500	12.418485	-57.629688	3.540	0.260	0.190	0.600	3.530	-1.400	1.200																			1580006740.0	0.24	0.44
26/01/2020 02:45:41	26012020	260120	024541	3.630	12.418485	-57.629690	3.660	-0.280	0.540	0.130	3.650	-1.000	0.700																			1580006741.0	0.43	0.80
26/01/2020 02:45:42	26012020	260120	024542	3.750	12.418483	-57.629692	3.760	-0.710	0.720	-0.250	3.780	-0.700	0.300																			1580006742.0	0.59	1.09
26/01/2020 02:45:43	26012020	260120	024543	3.850	12.418482	-57.629695	3.750	-0.830	0.670	-0.480	3.850	-0.700	-0.000																			1580006743.0	0.56	1.04
26/01/2020 02:45:44	26012020	260120	024544	3.830	12.418480	-57.629697	3.700	-0.660	0.260	-0.640	3.810	-0.900	-0.200																			1580006744.0	0.43	0.80
26/01/2020 02:45:45	26012020	260120	024545	3.770	12.418478	-57.629697	3.630	-0.320	-0.460	-0.800	3.760	-1.500	-0.400																			1580006745.0	0.20	0.37
26/01/2020 02:45:46	26012020	260120	024546	3.720	12.418480	-57.629697	3.630	0.050	-1.080	-0.870	3.710	-2.200	-0.500																			1580006746.0	0.17	0.31
26/01/2020 02:45:47	26012020	260120	024547	3.710	12.418482	-57.629697	3.620	0.330	-1.240	-0.720	3.710	-2.600	-0.400																			1580006747.0	0.36	0.67
26/01/2020 02:45:48	26012020	260120	024548	3.670	12.418483	-57.629697	3.550	0.510	-0.900	-0.400	3.660	-2.500	-0.200																			1580006748.0	0.25	0.46
26/01/2020 02:45:49	26012020	260120	024549	3.600	12.418482	-57.629695	3.510	0.590	-0.360	-0.050	3.580	-2.000	0.200																			1580006749.0	0.24	0.44
26/01/2020 02:45:50	26012020	260120	024550	3.550	12.418482	-57.629695	3.550	0.610	0.070	0.190	3.550	-1.500	0.500																			1580006750.0	0.35	0.65
26/01/2020 02:45:51	26012020	260120	024551	3.610	12.418480	-57.629693	3.670	0.510	0.350	0.340	3.630	-1.200	0.600																			1580006751.0	0.27	0.50
26/01/2020 02:45:52	26012020	260120	024552	3.740	12.418480	-57.629692	3.750	0.180	0.630	0.480	3.760	-0.900	0.800																			1580006752.0	0.28	0.52
26/01/2020 02:45:53	26012020	260120	024553	3.810	12.418480	-57.629690	3.690	-0.310	0.860	0.530	3.810	-0.600	0.900																			1580006753.0	0.33	0.61
26/01/2020 02:45:54	26012020	260120	024554	3.740	12.418480	-57.629690	3.550	-0.720	0.770	0.460	3.700	-0.500	0.900																			1580006754.0	0.33	0.61
26/01/2020 02:45:55	26012020	260120	024555	3.600	12.418478	-57.629690	3.540	-0.790	0.260	0.250	3.580	-0.900	0.700																			1580006755.0	0.29	0.54
26/01/2020 02:45:56	26012020	260120	024556	3.630	12.418478	-57.629692	3.700	-0.500	-0.460	-0.080	3.660	-1.500	0.500																			1580006756.0	0.26	0.48
26/01/2020 02:45:57	26012020	260120	024557	3.770	12.418478	-57.629692	3.820	-0.090	-0.930	-0.360	3.810	-2.200	0.100																			1580006757.0	0.36	0.67
26/01/2020 02:45:58	26012020	260120	024558	3.900	12.418480	-57.629693	3.730	0.220	-0.960	-0.490	3.890	-2.400	-0.100																			1580006758.0	0.35	0.65
26/01/2020 02:45:59	26012020	260120	024559	3.750	12.418480	-57.629693	3.480	0.390	-0.750	-0.470	3.700	-2.300	-0.100	1015.30	25.50	25.60	21.30	21.30	-1.00	77.00	77.00	391.00	24.70	41.00	4.90	46.00	4.80	14	3315.00	27.40	27.40	1580006759.0	0.11	0.20
26/01/2020 02:46:00	26012020	260120	024600	3.510	12.418480	-57.629693	3.340	0.480	-0.540	-0.360	3.470	-2.000	-0.000																			1580006760.0	0.19	0.35
26/01/2020 02:46:01	26012020	260120	024601	3.380	12.418480	-57.629693	3.320	0.440	-0.260	-0.310	3.370	-1.800	0.100																			1580006761.0	0.12	0.22
26/01/2020 02:46:02	26012020	260120	024602	3.390	12.418480	-57.629693	3.390	0.180	0.220	-0.360	3.410	-1.400	0.000																			1580006762.0	0.15	0.28
26/01/2020 02:46:03	26012020	260120	024603	3.470	12.418480	-57.629693	3.460	-0.160	0.740	-0.340	3.480	-0.900	0.000																			1580006763.0	0.09	0.17
26/01/2020 02:46:04	26012020	260120	024604	3.510	12.418478	-57.629695	3.510	-0.310	0.870	-0.190	3.520	-0.500	0.100																			1580006764.0	0.43	0.80
26/01/2020 02:46:05	26012020	260120	024605	3.570	12.418477	-57.629695	3.580	-0.170	0.420	0.080	3.590	-0.700	0.300																			1580006765.0	0.38	0.70
26/01/2020 02:46:06	26012020	260120	024606	3.650	12.418477	-57.629693	3.630	0.010	-0.240	0.370	3.660	-1.300	0.600																			1580006766.0	0.30	0.56
26/01/2020 02:46:07	26012020	260120	024607	3.680	12.418478	-57.629690	3.580	-0.050	-0.560	0.590	3.670	-1.900	0.900																			1580006767.0	0.88	1.63
26/01/2020 02:46:08	26012020	260120	024608	3.600	12.418480	-57.629687	3.450	-0.260	-0.500	0.670	3.570	-1.900	1.000																			1580006768.0	0.80	1.48
26/01/2020 02:46:09	26012020	260120	024609	3.490	12.418480	-57.629687	3.350	-0.270	-0.360	0.610	3.470	-1.800	1.000																			1580006769.0	0.27	0.50
26/01/2020 02:46:10	26012020	260120	024610	3.360	12.418478	-57.629687	3.250	0.060	-0.350	0.430	3.350	-1.700	0.900																			1580006770.0	0.39	0.72
26/01/2020 02:46:11	26012020	260120	024611	3.300	12.418477	-57.629688	3.150	0.420	-0.380	0.130	3.290	-1.800	0.700																			1580006771.0	0.32	0.59
26/01/2020 02:46:12	26012020	260120	024612	3.190	12.418478	-57.629690	3.020	0.470	-0.220	-0.270	3.160	-1.700	0.300																			1580006772.0	0.28	0.52
26/01/2020 02:46:13	26012020	260120	024613	3.070	12.418478	-57.629692	3.020	0.210	0.040	-0.760	3.050	-1.500	-0.100																			1580006773.0	0.42	0.78
26/01/2020 02:46:14	26012020	260120	024614	3.120	12.418478	-57.629695	3.190	-0.030	0.190	-1.110	3.160	-1.200	-0.600																			1580006774.0	0.65	1.20
26/01/2020 02:46:15	26012020	260120	024615	3.300	12.418478	-57.629698	3.290	-0.080	0.200	-1.080	3.330	-1.200	-0.800																			1580006775.0	0.65	1.20
26/01/2020 02:46:16	26012020	260120	024616	3.370	12.418478	-57.629698	3.260	0.000	0.130	-0.790	3.370	-1.200	-0.600																			1580006776.0	0.27	0.50
26/01/2020 02:46:17	26012020	260120	024617	3.340	12.418478	-57.629698	3.270	0.040	-0.060	-0.460	3.330	-1.400	-0.200																			1580006777.0	0.27	0.50
26/01/2020 02:46:18	26012020	260120	024618	3.350	12.418478	-57.629695	3.350	-0.060	-0.190	-0.120	3.360	-1.500	0.100																			1580006778.0	0.55	1.02
26/01/2020 02:46:19	26012020	260120	024619	3.420	12.418480	-57.629692	3.340	-0.280	-0.090	0.330	3.430	-1.600	0.500																			1580006779.0	0.56	1.04
26/01/2020 02:46:20	26012020	260120	024620	3.380	12.418478	-57.629690	3.120	-0.410	0.130	0.840	3.340	-1.400	1.000																			1580006780.0	0.50	0.93
26/01/2020 02:46:21	26012020	260120	024621	3.180	12.418477	-57.629688	2.860	-0.290	0.080	1.150	3.130	-1.200	1.400																			1580006781.0	0.53	0.98
26/01/2020 02:46:22	26012020	260120	024622	2.870	12.418477	-57.629687	2.780	0.080	-0.380	1.040	2.850	-1.500	1.500																			1580006782.0	0.40	0.74
26/01/2020 02:46:23	26012020	260120	024623	2.860	12.418477	-57.629687	2.910	0.450	-0.810	0.570	2.890	-2.000	1.200																			1580006783.0	0.18	0.33
26/01/2020 02:46:24	26012020	260120	024624	3.030	12.418480	-57.629688	3.030	0.520	-0.720	0.040	3.050	-2.200	0.700																			1580006784.0	0.64	1.19
26/01/2020 02:46:25	26012020	260120	024625	3.120	12.418482	-57.629690	3.050	0.260	-0.130	-0.410	3.130	-1.800	0.200																			1580006785.0	0.58	1.07
26/01/2020 02:46:26	26012020	260120	024626	3.140	12.418480	-57.629693	3.080	-0.110	0.440	-0.840	3.140	-1.200	-0.300																			1580006786.0	0.53	0.98
26/01/2020 02:46:27	26012020	260120	024627	3.180	12.418478	-57.629695	3.150	-0.310	0.620	-1.110	3.200	-0.800	-0.600																			1580006787.0	0.75	1.39
26/01/2020 02:46:28	26012020	260120	024628	3.250	12.418477	-57.629698	3.190	-0.290	0.430	-1.160	3.260	-0.800	-0.800																			1580006788.0	0.60	1.11
26/01/2020 02:46:29	26012020	260120	024629	3.290	12.418477	-57.629698	3.210	-0.150	0.080	-0.950	3.300	-1.100	-0.700																			1580006789.0	0.28	0.52
26/01/2020 02:46:30	26012020	260120	024630	3.280	12.418478	-57.629698	3.140	-0.010	-0.300	-0.520	3.270	-1.500	-0.400																			1580006790.0	0.22	0.41
26/01/2020 02:46:31	26012020	260120	024631	3.200	12.418478	-57.629697	3.060	0.060	-0.530	0.010	3.190	-1.800	0.100																			1580006791.0	0.51	0.94
26/01/2020 02:46:32	26012020	260120	024632	3.110	12.418480	-57.629693	3.010	0.090	-0.580	0.510	3.090	-2.000	0.700																			1580006792.0	0.68	1.26
26/01/2020 02:46:33	26012020	260120	024633	3.070	12.418480	-57.629690	3.060	0.140	-0.520	0.820	3.070	-1.900	1.100																			1580006793.0	0.67	1.24
26/01/2020 02:46:34	26012020	260120	024634	3.130	12.418480	-57.629688	3.210	0.240	-0.420	0.760	3.160	-1.900	1.200																			1580006794.0	0.50	0.93
26/01/2020 02:46:35	26012020	260120	024635	3.300	12.418480	-57.629687	3.350	0.320	-0.200	0.550	3.340	-1.700	1.000																			1580006795.0	0.13	0.24
26/01/2020 02:46:36	26012020	260120	024636	3.420	12.418480	-57.629688	3.320	0.260	0.200	0.400	3.430	-1.400	0.800																			1580006796.0	0.27	0.50
26/01/2020 02:46:37	26012020	260120	024637	3.370	12.418480	-57.629690	3.180	0.000	0.610	0.310	3.340	-1.000	0.700																			1580006797.0	0.26	0.48
26/01/2020 02:46:38	26012020	260120	024638	3.220	12.418480	-57.629690	3.120	-0.350	0.710	0.090	3.210	-0.700	0.600																			1580006798.0	0.29	0.54
26/01/2020 02:46:39	26012020	260120	024639	3.210	12.418478	-57.629690	3.210	-0.580	0.410	-0.280	3.220	-0.800	0.300																			1580006799.0	0.33	0.61
26/01/2020 02:46:40	26012020	260120	024640	3.330	12.418478	-57.629692	3.390	-0.530	-0.130	-0.670	3.360	-1.300	-0.100																			1580006800.0	0.33	0.61
26/01/2020 02:46:41	26012020	260120	024641	3.500	12.418478	-57.629693	3.520	-0.230	-0.630	-0.910	3.530	-1.800	-0.400																			1580006801.0	0.45	0.83
26/01/2020 02:46:42	26012020	260120	024642	3.610	12.418480	-57.629695	3.550	0.100	-0.840	-0.860	3.620	-2.200	-0.500																			1580006802.0	0.43	0.80
26/01/2020 02:46:43	26012020	260120	024643	3.610	12.418482	-57.629695	3.530	0.310	-0.790	-0.650	3.600	-2.200	-0.400																			1580006803.0	0.20	0.37
26/01/2020 02:46:44	26012020	260120	024644	3.590	12.418482	-57.629695	3.470	0.380	-0.520	-0.300	3.580	-2.100	-0.100																			1580006804.0	0.22	0.41
26/01/2020 02:46:45	26012020	260120	024645	3.510	12.418480	-57.629693	3.380	0.380	-0.150	0.080	3.490	-1.700	0.300																			1580006805.0	0.30	0.56
26/01/2020 02:46:46	26012020	260120	024646	3.440	12.418480	-57.629692	3.350	0.300	0.140	0.330	3.430	-1.400	0.600																			1580006806.0	0.40	0.74
26/01/2020 02:46:47	26012020	260120	024647	3.430	12.418480	-57.629690	3.380	0.150	0.340	0.490	3.430	-1.100	0.800																			1580006807.0	0.34	0.63
26/01/2020 02:46:48	26012020	260120	024648	3.450	12.418480	-57.629688	3.480	-0.050	0.450	0.490	3.470	-1.000	0.900																			1580006808.0	0.18	0.33
26/01/2020 02:46:49	26012020	260120	024649	3.570	12.418480	-57.629688	3.650	-0.190	0.410	0.320	3.600	-0.900	0.800																			1580006809.0	0.03	0.06
26/01/2020 02:46:50	26012020	260120	024650	3.750	12.418480	-57.629688	3.800	-0.280	0.260	0.100	3.780	-1.100	0.600																			1580006810.0	0.05	0.09
26/01/2020 02:46:51	26012020	260120	024651	3.890	12.418480	-57.629688	3.900	-0.340	-0.060	-0.090	3.920	-1.300	0.400																			1580006811.0	0.03	0.06
26/01/2020 02:46:52	26012020	260120	024652	3.970	12.418480	-57.629688	3.900	-0.310	-0.460	-0.170	3.980	-1.700	0.200																			1580006812.0	0.03	0.06
26/01/2020 02:46:53	26012020	260120	024653	3.920	12.418480	-57.629690	3.750	-0.090	-0.680	-0.080	3.890	-2.000	0.200																			1580006813.0	0.29	0.54
26/01/2020 02:46:54	26012020	260120	024654	3.760	12.418482	-57.629690	3.610	0.260	-0.670	0.000	3.730	-2.100	0.400																			1580006814.0	0.25	0.46
26/01/2020 02:46:55	26012020	260120	024655	3.640	12.418482	-57.629688	3.560	0.440	-0.500	-0.060	3.630	-2.000	0.400																			1580006815.0	0.24	0.44
26/01/2020 02:46:56	26012020	260120	024656	3.630	12.418482	-57.629687	3.640	0.290	-0.190	-0.200	3.640	-1.700	0.200																			1580006816.0	0.32	0.59
26/01/2020 02:46:57	26012020	260120	024657	3.710	12.418482	-57.629688	3.740	-0.060	0.160	-0.320	3.740	-1.400	0.100																			1580006817.0	0.07	0.13
26/01/2020 02:46:58	26012020	260120	024658	3.840	12.418482	-57.629690	3.770	-0.310	0.420	-0.360	3.850	-1.100	0.000																			1580006818.0	0.43	0.80
26/01/2020 02:46:59	26012020	260120	024659	3.840	12.418480	-57.629692	3.760	-0.300	0.440	-0.330	3.830	-0.900	0.000	1015.40	25.50	25.60	21.30	21.20	-1.00	77.00	76.00	392.00	24.70	47.00	5.10	51.00	5.00	14	3389.00	27.50	27.40	1580006819.0	0.56	1.04
26/01/2020 02:47:00	26012020	260120	024700	3.830	12.418480	-57.629693	3.830	-0.170	0.260	-0.230	3.850	-1.000	0.100																			1580006820.0	0.30	0.56
26/01/2020 02:47:01	26012020	260120	024701	3.890	12.418480	-57.629693	3.980	-0.040	-0.020	-0.020	3.910	-1.300	0.200																			1580006821.0	0.07	0.13
26/01/2020 02:47:02	26012020	260120	024702	4.060	12.418482	-57.629692	4.120	0.040	-0.250	0.270	4.090	-1.600	0.500																			1580006822.0	0.33	0.61
26/01/2020 02:47:03	26012020	260120	024703	4.190	12.418482	-57.629690	4.140	0.080	-0.400	0.570	4.190	-1.700	0.800																			1580006823.0	0.56	1.04
26/01/2020 02:47:04	26012020	260120	024704	4.170	12.418482	-57.629687	4.040	0.130	-0.520	0.730	4.150	-1.900	1.100																			1580006824.0	0.62	1.15
26/01/2020 02:47:05	26012020	260120	024705	4.050	12.418482	-57.629683	3.970	0.190	-0.650	0.560	4.030	-2.000	1.100																			1580006825.0	0.47	0.87
26/01/2020 02:47:06	26012020	260120	024706	4.020	12.418482	-57.629683	4.080	0.240	-0.670	0.100	4.030	-2.100	0.700																			1580006826.0	0.16	0.30
26/01/2020 02:47:07	26012020	260120	024707	4.150	12.418483	-57.629685	4.170	0.200	-0.270	-0.300	4.180	-1.900	0.200																			1580006827.0	0.51	0.94
26/01/2020 02:47:08	26012020	260120	024708	4.210	12.418483	-57.629688	4.020	0.080	0.470	-0.340	4.190	-1.300	0.000																			1580006828.0	0.71	1.31
26/01/2020 02:47:09	26012020	260120	024709	4.010	12.418483	-57.629692	3.720	-0.050	0.890	-0.220	3.950	-0.600	0.100																			1580006829.0	0.56	1.04
26/01/2020 02:47:10	26012020	260120	024710	3.730	12.418480	-57.629692	3.660	-0.130	0.500	-0.390	3.700	-0.600	0.100																			1580006830.0	0.52	0.96
26/01/2020 02:47:11	26012020	260120	024711	3.770	12.418480	-57.629692	4.020	-0.220	-0.260	-0.910	3.830	-1.300	-0.300																			1580006831.0	0.06	0.11
26/01/2020 02:47:12	26012020	260120	024712	4.190	12.418483	-57.629693	4.460	-0.360	-0.550	-1.290	4.280	-1.900	-0.800																			1580006832.0	0.74	1.37
26/01/2020 02:47:13	26012020	260120	024713	4.600	12.418485	-57.629697	4.670	-0.460	-0.160	-1.140	4.650	-1.800	-0.900																			1580006833.0	0.80	1.48
26/01/2020 02:47:14	26012020	260120	024714	4.740	12.418485	-57.629698	4.650	-0.360	0.210	-0.510	4.740	-1.300	-0.500																			1580006834.0	0.34	0.63
26/01/2020 02:47:15	26012020	260120	024715	4.680	12.418482	-57.629697	4.580	-0.040	-0.070	0.180	4.660	-1.300	0.200																			1580006835.0	0.83	1.54
26/01/2020 02:47:16	26012020	260120	024716	4.600	12.418480	-57.629692	4.500	0.280	-0.660	0.720	4.590	-1.800	0.800																			1580006836.0	0.97	1.80
26/01/2020 02:47:17	26012020	260120	024717	4.500	12.418482	-57.629687	4.390	0.400	-0.850	1.080	4.480	-2.200	1.300																			1580006837.0	1.08	2.00
26/01/2020 02:47:18	26012020	260120	024718	4.390	12.418483	-57.629683	4.360	0.310	-0.500	1.150	4.380	-2.100	1.500																			1580006838.0	0.85	1.57
26/01/2020 02:47:19	26012020	260120	024719	4.380	12.418485	-57.629682	4.380	0.190	0.000	0.930	4.390	-1.600	1.400																			1580006839.0	0.25	0.46
26/01/2020 02:47:20	26012020	260120	024720	4.420	12.418483	-57.629683	4.420	0.150	0.260	0.470	4.430	-1.200	1.100																			1580006840.0	0.35	0.65
26/01/2020 02:47:21	26012020	260120	024721	4.480	12.418482	-57.629687	4.490	0.190	0.210	-0.100	4.490	-1.200	0.600																			1580006841.0	0.56	1.04
26/01/2020 02:47:22	26012020	260120	024722	4.590	12.418483	-57.629690	4.620	0.160	0.090	-0.690	4.610	-1.300	-0.000																			1580006842.0	0.74	1.37
26/01/2020 02:47:23	26012020	260120	024723	4.700	12.418485	-57.629693	4.670	-0.060	0.150	-1.110	4.720	-1.300	-0.600																			1580006843.0	0.80	1.48
26/01/2020 02:47:24	26012020	260120	024724	4.760	12.418485	-57.629695	4.660	-0.380	0.280	-1.230	4.750	-1.200	-0.800																			1580006844.0	0.63	1.17
26/01/2020 02:47:25	26012020	260120	024725	4.750	12.418485	-57.629697	4.680	-0.580	0.220	-1.090	4.740	-1.100	-0.800																			1580006845.0	0.39	0.72
26/01/2020 02:47:26	26012020	260120	024726	4.760	12.418483	-57.629697	4.730	-0.520	0.010	-0.710	4.760	-1.300	-0.500																			1580006846.0	0.25	0.46
26/01/2020 02:47:27	26012020	260120	024727	4.790	12.418483	-57.629697	4.810	-0.250	-0.290	-0.280	4.800	-1.500	-0.100																			1580006847.0	0.30	0.56
26/01/2020 02:47:28	26012020	260120	024728	4.870	12.418483	-57.629693	4.930	0.070	-0.650	0.040	4.890	-1.900	0.300																			1580006848.0	0.57	1.06
26/01/2020 02:47:29	26012020	260120	024729	4.970	12.418483	-57.629690	4.960	0.330	-0.860	0.400	4.980	-2.200	0.600																			1580006849.0	0.60	1.11
26/01/2020 02:47:30	26012020	260120	024730	4.970	12.418485	-57.629688	4.900	0.430	-0.680	0.780	4.950	-2.200	1.000																			1580006850.0	0.57	1.06
26/01/2020 02:47:31	26012020	260120	024731	4.890	12.418485	-57.629685	4.820	0.380	-0.230	0.980	4.880	-1.900	1.300																			1580006851.0	0.53	0.98
26/01/2020 02:47:32	26012020	260120	024732	4.810	12.418485	-57.629683	4.730	0.240	0.240	0.920	4.800	-1.400	1.300																			1580006852.0	0.39	0.72
26/01/2020 02:47:33	26012020	260120	024733	4.750	12.418483	-57.629683	4.710	0.120	0.480	0.610	4.740	-1.000	1.200																			1580006853.0	0.24	0.44
26/01/2020 02:47:34	26012020	260120	024734	4.760	12.418483	-57.629685	4.770	0.070	0.430	0.140	4.770	-0.900	0.700																			1580006854.0	0.39	0.72
26/01/2020 02:47:35	26012020	260120	024735	4.810	12.418483	-57.629688	4.870	0.020	0.150	-0.370	4.830	-1.100	0.200																			1580006855.0	0.50	0.93
26/01/2020 02:47:36	26012020	260120	024736	4.950	12.418485	-57.629690	5.010	-0.140	-0.160	-0.850	4.980	-1.400	-0.300																			1580006856.0	0.51	0.94
26/01/2020 02:47:37	26012020	260120	024737	5.080	12.418485	-57.629692	5.170	-0.370	-0.270	-1.210	5.100	-1.700	-0.700																			1580006857.0	0.52	0.96
26/01/2020 02:47:38	26012020	260120	024738	5.260	12.418487	-57.629695	5.280	-0.480	-0.120	-1.240	5.280	-1.600	-0.900																			1580006858.0	0.51	0.94
26/01/2020 02:47:39	26012020	260120	024739	5.330	12.418485	-57.629695	5.200	-0.370	0.080	-0.860	5.320	-1.400	-0.700																			1580006859.0	0.32	0.59
26/01/2020 02:47:40	26012020	260120	024740	5.220	12.418483	-57.629695	5.000	-0.130	0.030	-0.210	5.180	-1.300	-0.200																			1580006860.0	0.42	0.78
26/01/2020 02:47:41	26012020	260120	024741	4.990	12.418483	-57.629692	4.860	0.090	-0.330	0.360	4.950	-1.500	0.500																			1580006861.0	0.74	1.37
26/01/2020 02:47:42	26012020	260120	024742	4.870	12.418483	-57.629688	4.920	0.230	-0.720	0.600	4.870	-2.000	0.900																			1580006862.0	0.83	1.54
26/01/2020 02:47:43	26012020	260120	024743	4.960	12.418485	-57.629685	5.110	0.290	-0.760	0.570	5.000	-2.200	1.000																			1580006863.0	0.62	1.15
26/01/2020 02:47:44	26012020	260120	024744	5.170	12.418485	-57.629685	5.270	0.300	-0.340	0.490	5.210	-2.000	0.900																			1580006864.0	0.32	0.59
26/01/2020 02:47:45	26012020	260120	024745	5.320	12.418485	-57.629685	5.290	0.250	0.270	0.500	5.330	-1.400	0.900																			1580006865.0	0.15	0.28
26/01/2020 02:47:46	26012020	260120	024746	5.320	12.418483	-57.629687	5.220	0.150	0.570	0.540	5.310	-0.900	0.900																			1580006866.0	0.38	0.70
26/01/2020 02:47:47	26012020	260120	024747	5.250	12.418482	-57.629687	5.210	0.040	0.330	0.430	5.240	-0.900	0.900																			1580006867.0	0.37	0.69
26/01/2020 02:47:48	26012020	260120	024748	5.250	12.418482	-57.629685	5.330	-0.060	-0.170	0.060	5.270	-1.400	0.600																			1580006868.0	0.11	0.20
26/01/2020 02:47:49	26012020	260120	024749	5.370	12.418485	-57.629685	5.460	-0.130	-0.420	-0.360	5.400	-1.800	0.200																			1580006869.0	0.44	0.81
26/01/2020 02:47:50	26012020	260120	024750	5.530	12.418487	-57.629687	5.450	-0.170	-0.180	-0.590	5.530	-1.800	-0.100																			1580006870.0	0.49	0.91
26/01/2020 02:47:51	26012020	260120	024751	5.510	12.418487	-57.629688	5.280	-0.180	0.200	-0.520	5.490	-1.400	-0.200																			1580006871.0	0.27	0.50
26/01/2020 02:47:52	26012020	260120	024752	5.290	12.418485	-57.629688	5.080	-0.140	0.190	-0.360	5.250	-1.100	-0.100																			1580006872.0	0.45	0.83
26/01/2020 02:47:53	26012020	260120	024753	5.110	12.418483	-57.629688	5.070	-0.050	-0.270	-0.360	5.100	-1.400	0.000																			1580006873.0	0.39	0.72
26/01/2020 02:47:54	26012020	260120	024754	5.150	12.418483	-57.629687	5.220	0.010	-0.630	-0.450	5.170	-1.900	-0.000																			1580006874.0	0.19	0.35
26/01/2020 02:47:55	26012020	260120	024755	5.300	12.418485	-57.629688	5.310	-0.020	-0.450	-0.410	5.320	-2.000	-0.100																			1580006875.0	0.50	0.93
26/01/2020 02:47:56	26012020	260120	024756	5.360	12.418487	-57.629688	5.310	-0.090	0.030	-0.200	5.360	-1.600	0.000																			1580006876.0	0.15	0.28
26/01/2020 02:47:57	26012020	260120	024757	5.340	12.418485	-57.629688	5.330	-0.060	0.280	0.120	5.340	-1.200	0.300																			1580006877.0	0.39	0.72
26/01/2020 02:47:58	26012020	260120	024758	5.370	12.418482	-57.629687	5.430	0.120	0.040	0.380	5.380	-1.200	0.600																			1580006878.0	0.52	0.96
26/01/2020 02:47:59	26012020	260120	024759	5.490	12.418482	-57.629685	5.550	0.300	-0.330	0.570	5.520	-1.600	0.800	1015.30	25.50	25.60	21.30	21.30	-1.00	77.00	77.00	392.00	24.70	47.00	4.80	53.00	4.70	14	3316.00	27.40	27.50	1580006879.0	0.41	0.76
26/01/2020 02:48:00	26012020	260120	024800	5.580	12.418483	-57.629682	5.520	0.280	-0.410	0.700	5.590	-1.800	1.000																			1580006880.0	0.70	1.30
26/01/2020 02:48:01	26012020	260120	024801	5.540	12.418485	-57.629680	5.380	0.070	-0.130	0.720	5.520	-1.700	1.100																			1580006881.0	0.65	1.20
26/01/2020 02:48:02	26012020	260120	024802	5.390	12.418485	-57.629678	5.210	-0.140	0.210	0.620	5.360	-1.300	1.100																			1580006882.0	0.32	0.59
26/01/2020 02:48:03	26012020	260120	024803	5.260	12.418483	-57.629678	5.080	-0.180	0.250	0.330	5.230	-1.100	0.900																			1580006883.0	0.37	0.69
26/01/2020 02:48:04	26012020	260120	024804	5.120	12.418482	-57.629680	5.030	-0.020	-0.050	-0.130	5.110	-1.300	0.500																			1580006884.0	0.36	0.67
26/01/2020 02:48:05	26012020	260120	024805	5.090	12.418483	-57.629682	5.030	0.190	-0.430	-0.600	5.090	-1.700	-0.000																			1580006885.0	0.55	1.02
26/01/2020 02:48:06	26012020	260120	024806	5.110	12.418485	-57.629685	5.100	0.250	-0.540	-0.960	5.130	-1.900	-0.400																			1580006886.0	0.78	1.44
26/01/2020 02:48:07	26012020	260120	024807	5.180	12.418487	-57.629687	5.190	0.110	-0.280	-1.100	5.200	-1.900	-0.700																			1580006887.0	0.63	1.17
26/01/2020 02:48:08	26012020	260120	024808	5.260	12.418487	-57.629688	5.250	-0.150	0.140	-0.980	5.270	-1.500	-0.700																			1580006888.0	0.23	0.43
26/01/2020 02:48:09	26012020	260120	024809	5.310	12.418485	-57.629688	5.250	-0.370	0.420	-0.560	5.310	-1.100	-0.400																			1580006889.0	0.38	0.70
26/01/2020 02:48:10	26012020	260120	024810	5.270	12.418483	-57.629687	5.130	-0.410	0.500	0.070	5.250	-0.900	0.100																			1580006890.0	0.57	1.06
26/01/2020 02:48:11	26012020	260120	024811	5.130	12.418482	-57.629683	5.010	-0.270	0.240	0.620	5.090	-1.000	0.800																			1580006891.0	0.69	1.28
26/01/2020 02:48:12	26012020	260120	024812	5.040	12.418480	-57.629680	5.060	-0.000	-0.350	0.780	5.040	-1.500	1.100																			1580006892.0	0.76	1.41
26/01/2020 02:48:13	26012020	260120	024813	5.090	12.418482	-57.629677	5.120	0.240	-0.840	0.740	5.110	-2.100	1.100																			1580006893.0	0.59	1.09
26/01/2020 02:48:14	26012020	260120	024814	5.170	12.418483	-57.629675	5.080	0.350	-0.850	0.740	5.160	-2.300	1.100																			1580006894.0	0.51	0.94
26/01/2020 02:48:15	26012020	260120	024815	5.130	12.418485	-57.629675	4.980	0.310	-0.470	0.680	5.110	-2.100	1.100																			1580006895.0	0.26	0.48
26/01/2020 02:48:16	26012020	260120	024816	5.020	12.418483	-57.629675	4.910	0.240	-0.080	0.430	5.000	-1.700	0.900																			1580006896.0	0.18	0.33
26/01/2020 02:48:17	26012020	260120	024817	4.950	12.418482	-57.629677	4.850	0.200	0.110	0.060	4.940	-1.400	0.600																			1580006897.0	0.38	0.70
26/01/2020 02:48:18	26012020	260120	024818	4.910	12.418482	-57.629678	4.830	0.100	0.230	-0.320	4.910	-1.200	0.200																			1580006898.0	0.38	0.70
26/01/2020 02:48:19	26012020	260120	024819	4.900	12.418483	-57.629680	4.820	-0.120	0.450	-0.660	4.900	-1.100	-0.100																			1580006899.0	0.38	0.70
26/01/2020 02:48:20	26012020	260120	024820	4.890	12.418483	-57.629682	4.810	-0.400	0.570	-0.860	4.890	-0.900	-0.400																			1580006900.0	0.32	0.59
26/01/2020 02:48:21	26012020	260120	024821	4.880	12.418482	-57.629683	4.820	-0.510	0.300	-0.910	4.880	-0.900	-0.500																			1580006901.0	0.42	0.78
26/01/2020 02:48:22	26012020	260120	024822	4.910	12.418480	-57.629683	4.910	-0.320	-0.280	-0.790	4.930	-1.400	-0.500																			1580006902.0	0.29	0.54
26/01/2020 02:48:23	26012020	260120	024823	5.010	12.418482	-57.629683	4.990	0.030	-0.770	-0.500	5.030	-2.000	-0.300																			1580006903.0	0.20	0.37
26/01/2020 02:48:24	26012020	260120	024824	5.060	12.418483	-57.629682	4.950	0.250	-0.790	-0.040	5.050	-2.300	0.100																			1580006904.0	0.56	1.04
26/01/2020 02:48:25	26012020	260120	024825	4.990	12.418483	-57.629678	4.800	0.220	-0.400	0.490	4.960	-2.000	0.600																			1580006905.0	0.72	1.33
26/01/2020 02:48:26	26012020	260120	024826	4.800	12.418482	-57.629675	4.660	0.070	0.000	0.910	4.770	-1.600	1.100																			1580006906.0	0.86	1.59
26/01/2020 02:48:27	26012020	260120	024827	4.690	12.418480	-57.629672	4.540	-0.020	0.150	1.060	4.660	-1.300	1.400																			1580006907.0	0.79	1.46
26/01/2020 02:48:28	26012020	260120	024828	4.560	12.418478	-57.629670	4.470	0.030	0.060	0.890	4.550	-1.300	1.400																			1580006908.0	0.37	0.69
26/01/2020 02:48:29	26012020	260120	024829	4.500	12.418480	-57.629672	4.450	0.150	-0.070	0.470	4.500	-1.400	1.100																			1580006909.0	0.21	0.39
26/01/2020 02:48:30	26012020	260120	024830	4.510	12.418480	-57.629673	4.460	0.220	-0.100	0.050	4.510	-1.500	0.600																			1580006910.0	0.57	1.06
26/01/2020 02:48:31	26012020	260120	024831	4.530	12.418482	-57.629677	4.500	0.160	-0.140	-0.310	4.530	-1.500	0.200																			1580006911.0	0.59	1.09
26/01/2020 02:48:32	26012020	260120	024832	4.590	12.418482	-57.629678	4.610	-0.010	-0.180	-0.630	4.610	-1.600	-0.100																			1580006912.0	0.38	0.70
26/01/2020 02:48:33	26012020	260120	024833	4.700	12.418482	-57.629680	4.650	-0.190	-0.050	-0.790	4.710	-1.500	-0.400																			1580006913.0	0.25	0.46
26/01/2020 02:48:34	26012020	260120	024834	4.710	12.418482	-57.629680	4.540	-0.290	0.240	-0.640	4.690	-1.300	-0.400																			1580006914.0	0.16	0.30
26/01/2020 02:48:35	26012020	260120	024835	4.590	12.418482	-57.629680	4.440	-0.260	0.320	-0.360	4.560	-1.100	-0.100																			1580006915.0	0.28	0.52
26/01/2020 02:48:36	26012020	260120	024836	4.480	12.418478	-57.629678	4.340	-0.180	0.030	-0.110	4.460	-1.200	0.100																			1580006916.0	0.52	0.96
26/01/2020 02:48:37	26012020	260120	024837	4.410	12.418478	-57.629677	4.240	-0.120	-0.350	0.080	4.380	-1.600	0.400																			1580006917.0	0.48	0.89
26/01/2020 02:48:38	26012020	260120	024838	4.270	12.418480	-57.629675	4.160	-0.040	-0.550	0.190	4.260	-1.900	0.500																			1580006918.0	0.37	0.69
26/01/2020 02:48:39	26012020	260120	024839	4.210	12.418480	-57.629675	4.120	0.160	-0.570	0.300	4.200	-2.000	0.600																			1580006919.0	0.19	0.35
26/01/2020 02:48:40	26012020	260120	024840	4.160	12.418482	-57.629675	4.120	0.400	-0.520	0.370	4.160	-1.900	0.700																			1580006920.0	0.08	0.15
26/01/2020 02:48:41	26012020	260120	024841	4.160	12.418482	-57.629675	4.150	0.470	-0.380	0.350	4.160	-1.900	0.700																			1580006921.0	0.09	0.17
26/01/2020 02:48:42	26012020	260120	024842	4.220	12.418482	-57.629673	4.230	0.210	-0.020	0.190	4.240	-1.600	0.600																			1580006922.0	0.18	0.33
26/01/2020 02:48:43	26012020	260120	024843	4.300	12.418482	-57.629673	4.240	-0.190	0.510	0.030	4.310	-1.100	0.500																			1580006923.0	0.02	0.04
26/01/2020 02:48:44	26012020	260120	024844	4.300	12.418480	-57.629675	4.210	-0.410	0.840	0.060	4.300	-0.700	0.400																			1580006924.0	0.37	0.69
26/01/2020 02:48:45	26012020	260120	024845	4.270	12.418478	-57.629675	4.190	-0.330	0.550	0.070	4.260	-0.600	0.400																			1580006925.0	0.50	0.93
26/01/2020 02:48:46	26012020	260120	024846	4.260	12.418477	-57.629675	4.150	-0.130	-0.110	0.010	4.250	-1.200	0.400																			1580006926.0	0.21	0.39
26/01/2020 02:48:47	26012020	260120	024847	4.200	12.418478	-57.629673	4.050	-0.010	-0.610	0.020	4.180	-1.800	0.400																			1580006927.0	0.39	0.72
26/01/2020 02:48:48	26012020	260120	024848	4.080	12.418482	-57.629673	3.900	0.020	-0.740	0.120	4.050	-2.100	0.400																			1580006928.0	0.43	0.80
26/01/2020 02:48:49	26012020	260120	024849	3.940	12.418482	-57.629673	3.780	0.090	-0.690	0.160	3.920	-2.100	0.500																			1580006929.0	0.10	0.19
26/01/2020 02:48:50	26012020	260120	024850	3.830	12.418482	-57.629673	3.700	0.240	-0.560	0.150	3.820	-2.000	0.500																			1580006930.0	0.11	0.20
26/01/2020 02:48:51	26012020	260120	024851	3.780	12.418482	-57.629675	3.620	0.330	-0.230	0.210	3.770	-1.800	0.600																			1580006931.0	0.18	0.33
26/01/2020 02:48:52	26012020	260120	024852	3.690	12.418482	-57.629675	3.600	0.230	0.180	0.220	3.670	-1.400	0.600																			1580006932.0	0.13	0.24
26/01/2020 02:48:53	26012020	260120	024853	3.690	12.418480	-57.629675	3.700	-0.010	0.430	0.070	3.700	-1.100	0.500																			1580006933.0	0.18	0.33
26/01/2020 02:48:54	26012020	260120	024854	3.820	12.418480	-57.629677	3.830	-0.240	0.510	-0.040	3.850	-0.900	0.400																			1580006934.0	0.28	0.52
26/01/2020 02:48:55	26012020	260120	024855	3.930	12.418480	-57.629677	3.820	-0.380	0.420	0.110	3.930	-0.900	0.400																			1580006935.0	0.25	0.46
26/01/2020 02:48:56	26012020	260120	024856	3.910	12.418478	-57.629677	3.810	-0.410	0.100	0.280	3.900	-1.100	0.600																			1580006936.0	0.10	0.19
26/01/2020 02:48:57	26012020	260120	024857	3.890	12.418478	-57.629677	3.780	-0.330	-0.300	0.360	3.890	-1.500	0.700																			1580006937.0	0.29	0.54
26/01/2020 02:48:58	26012020	260120	024858	3.860	12.418480	-57.629675	3.620	-0.170	-0.460	0.490	3.830	-1.800	0.800																			1580006938.0	0.27	0.50
26/01/2020 02:48:59	26012020	260120	024859	3.660	12.418480	-57.629673	3.360	0.060	-0.430	0.690	3.600	-1.800	1.000	1015.30	25.60	25.60	21.30	21.30	-1.00	77.00	77.00	392.00	24.70	53.00	5.00	58.00	5.00	14	3304.00	27.40	27.40	1580006939.0	0.15	0.28
26/01/2020 02:49:00	26012020	260120	024900	3.380	12.418478	-57.629673	3.190	0.350	-0.550	0.760	3.340	-1.900	1.100																			1580006940.0	0.21	0.39
26/01/2020 02:49:01	26012020	260120	024901	3.250	12.418478	-57.629673	3.260	0.560	-0.820	0.420	3.260	-2.100	1.000																			1580006941.0	0.11	0.20
26/01/2020 02:49:02	26012020	260120	024902	3.360	12.418480	-57.629675	3.370	0.550	-0.690	-0.080	3.390	-2.200	0.500																			1580006942.0	0.42	0.78
26/01/2020 02:49:03	26012020	260120	024903	3.460	12.418482	-57.629677	3.340	0.290	0.070	-0.370	3.470	-1.700	0.100																			1580006943.0	0.79	1.46
26/01/2020 02:49:04	26012020	260120	024904	3.410	12.418482	-57.629680	3.220	-0.050	0.840	-0.410	3.380	-0.900	-0.000																			1580006944.0	0.70	1.30
26/01/2020 02:49:05	26012020	260120	024905	3.300	12.418478	-57.629683	3.130	-0.270	0.990	-0.290	3.280	-0.400	0.000																			1580006945.0	0.79	1.46
26/01/2020 02:49:06	26012020	260120	024906	3.190	12.418477	-57.629683	3.090	-0.270	0.460	-0.130	3.180	-0.600	0.200																			1580006946.0	0.48	0.89
26/01/2020 02:49:07	26012020	260120	024907	3.150	12.418477	-57.629683	3.080	-0.180	-0.300	-0.000	3.140	-1.300	0.300																			1580006947.0	0.17	0.31
26/01/2020 02:49:08	26012020	260120	024908	3.160	12.418480	-57.629683	3.140	-0.180	-0.720	0.030	3.160	-2.000	0.400																			1580006948.0	0.58	1.07
26/01/2020 02:49:09	26012020	260120	024909	3.210	12.418482	-57.629683	3.170	-0.250	-0.610	0.130	3.220	-2.100	0.400																			1580006949.0	0.46	0.85
26/01/2020 02:49:10	26012020	260120	024910	3.220	12.418482	-57.629683	3.120	-0.230	-0.210	0.450	3.220	-1.800	0.600																			1580006950.0	0.12	0.22
26/01/2020 02:49:11	26012020	260120	024911	3.150	12.418480	-57.629683	2.990	-0.010	0.050	0.890	3.130	-1.400	1.000																			1580006951.0	0.45	0.83
26/01/2020 02:49:12	26012020	260120	024912	3.010	12.418478	-57.629682	2.840	0.250	0.020	1.170	2.980	-1.300	1.400																			1580006952.0	0.52	0.96
26/01/2020 02:49:13	26012020	260120	024913	2.870	12.418477	-57.629680	2.720	0.290	-0.200	1.030	2.850	-1.500	1.500																			1580006953.0	0.56	1.04
26/01/2020 02:49:14	26012020	260120	024914	2.780	12.418478	-57.629678	2.650	0.120	-0.300	0.640	2.770	-1.700	1.200																			1580006954.0	0.30	0.56
26/01/2020 02:49:15	26012020	260120	024915	2.740	12.418478	-57.629680	2.600	-0.060	-0.200	0.180	2.720	-1.700	0.800																			1580006955.0	0.50	0.93
26/01/2020 02:49:16	26012020	260120	024916	2.670	12.418480	-57.629685	2.520	-0.060	-0.030	-0.210	2.660	-1.500	0.300																			1580006956.0	0.84	1.56
26/01/2020 02:49:17	26012020	260120	024917	2.610	12.418478	-57.629688	2.460	0.050	0.010	-0.480	2.600	-1.400	0.000																			1580006957.0	0.88	1.63
26/01/2020 02:49:18	26012020	260120	024918	2.550	12.418478	-57.629692	2.420	0.100	-0.060	-0.640	2.540	-1.400	-0.200																			1580006958.0	0.65	1.20
26/01/2020 02:49:19	26012020	260120	024919	2.500	12.418480	-57.629695	2.330	0.040	-0.100	-0.640	2.490	-1.500	-0.300																			1580006959.0	0.52	0.96
26/01/2020 02:49:20	26012020	260120	024920	2.400	12.418480	-57.629697	2.170	-0.030	0.000	-0.430	2.360	-1.400	-0.200																			1580006960.0	0.52	0.96
26/01/2020 02:49:21	26012020	260120	024921	2.240	12.418482	-57.629698	2.130	-0.000	-0.000	-0.100	2.210	-1.400	0.100																			1580006961.0	0.33	0.61
26/01/2020 02:49:22	26012020	260120	024922	2.210	12.418482	-57.629698	2.280	0.070	-0.220	0.230	2.240	-1.500	0.400																			1580006962.0	0.02	0.04
26/01/2020 02:49:23	26012020	260120	024923	2.380	12.418482	-57.629697	2.480	0.070	-0.310	0.590	2.430	-1.700	0.800																			1580006963.0	0.35	0.65
26/01/2020 02:49:24	26012020	260120	024924	2.560	12.418483	-57.629695	2.500	-0.070	0.020	1.000	2.580	-1.600	1.200																			1580006964.0	0.55	1.02
26/01/2020 02:49:25	26012020	260120	024925	2.520	12.418485	-57.629693	2.270	-0.280	0.460	1.310	2.480	-1.100	1.500																			1580006965.0	0.48	0.89
26/01/2020 02:49:26	26012020	260120	024926	2.260	12.418483	-57.629690	1.970	-0.350	0.420	1.360	2.190	-0.900	1.700																			1580006966.0	0.54	1.00
26/01/2020 02:49:27	26012020	260120	024927	1.980	12.418482	-57.629690	1.790	-0.200	-0.200	1.010	1.930	-1.300	1.600																			1580006967.0	0.23	0.43
26/01/2020 02:49:28	26012020	260120	024928	1.850	12.418483	-57.629693	1.770	0.040	-0.840	0.380	1.850	-2.000	1.100																			1580006968.0	0.67	1.24
26/01/2020 02:49:29	26012020	260120	024929	1.850	12.418488	-57.629698	1.780	0.170	-0.840	-0.240	1.860	-2.300	0.400																			1580006969.0	1.36	2.52
26/01/2020 02:49:30	26012020	260120	024930	1.860	12.418492	-57.629703	1.740	0.200	-0.230	-0.610	1.860	-1.900	-0.100																			1580006970.0	1.42	2.63
26/01/2020 02:49:31	26012020	260120	024931	1.840	12.418492	-57.629708	1.760	0.220	0.270	-0.730	1.830	-1.300	-0.300																			1580006971.0	1.08	2.00
26/01/2020 02:49:32	26012020	260120	024932	1.880	12.418490	-57.629712	1.880	0.240	0.160	-0.810	1.900	-1.100	-0.400																			1580006972.0	0.62	1.15
26/01/2020 02:49:33	26012020	260120	024933	1.990	12.418490	-57.629712	1.980	0.160	-0.220	-0.760	2.010	-1.400	-0.400																			1580006973.0	0.20	0.37
26/01/2020 02:49:34	26012020	260120	024934	2.050	12.418493	-57.629712	1.930	-0.060	-0.160	-0.460	2.050	-1.600	-0.300																			1580006974.0	0.81	1.50
26/01/2020 02:49:35	26012020	260120	024935	1.970	12.418497	-57.629712	1.730	-0.280	0.320	0.080	1.930	-1.300	0.200																			1580006975.0	0.71	1.31
26/01/2020 02:49:36	26012020	260120	024936	1.730	12.418498	-57.629713	1.520	-0.300	0.480	0.610	1.680	-0.900	0.800																			1580006976.0	0.10	0.19
26/01/2020 02:49:37	26012020	260120	024937	1.540	12.418497	-57.629712	1.530	-0.100	-0.050	0.770	1.530	-1.100	1.100																			1580006977.0	0.16	0.30
26/01/2020 02:49:38	26012020	260120	024938	1.590	12.418498	-57.629712	1.720	0.080	-0.670	0.620	1.640	-1.800	1.100																			1580006978.0	0.49	0.91
26/01/2020 02:49:39	26012020	260120	024939	1.820	12.418503	-57.629713	1.880	0.080	-0.650	0.470	1.860	-2.100	0.900																			1580006979.0	1.06	1.96
26/01/2020 02:49:40	26012020	260120	024940	1.960	12.418508	-57.629715	1.870	-0.060	-0.090	0.510	1.970	-1.800	0.800																			1580006980.0	0.84	1.56
26/01/2020 02:49:41	26012020	260120	024941	1.930	12.418508	-57.629717	1.760	-0.120	0.270	0.610	1.900	-1.200	0.900																			1580006981.0	0.31	0.57
26/01/2020 02:49:42	26012020	260120	024942	1.790	12.418507	-57.629717	1.620	0.040	0.080	0.600	1.760	-1.200	1.000																			1580006982.0	0.30	0.56
26/01/2020 02:49:43	26012020	260120	024943	1.630	12.418510	-57.629718	1.490	0.310	-0.330	0.390	1.600	-1.500	0.900																			1580006983.0	0.57	1.06
26/01/2020 02:49:44	26012020	260120	024944	1.540	12.418513	-57.629722	1.500	0.420	-0.440	0.010	1.540	-1.800	0.600																			1580006984.0	1.10	2.04
26/01/2020 02:49:45	26012020	260120	024945	1.590	12.418518	-57.629723	1.610	0.230	-0.170	-0.330	1.600	-1.700	0.200																			1580006985.0	1.11	2.06
26/01/2020 02:49:46	26012020	260120	024946	1.710	12.418522	-57.629727	1.720	-0.130	0.190	-0.520	1.740	-1.400	-0.100																			1580006986.0	0.86	1.59
26/01/2020 02:49:47	26012020	260120	024947	1.820	12.418522	-57.629730	1.780	-0.390	0.350	-0.490	1.830	-1.100	-0.200																			1580006987.0	0.77	1.43
26/01/2020 02:49:48	26012020	260120	024948	1.870	12.418523	-57.629733	1.780	-0.350	0.200	-0.300	1.870	-1.100	-0.000																			1580006988.0	0.73	1.35
26/01/2020 02:49:49	26012020	260120	024949	1.870	12.418527	-57.629735	1.720	-0.110	-0.100	0.010	1.860	-1.300	0.200																			1580006989.0	0.68	1.26
26/01/2020 02:49:50	26012020	260120	024950	1.800	12.418530	-57.629735	1.680	0.060	-0.320	0.380	1.780	-1.600	0.600																			1580006990.0	0.80	1.48
26/01/2020 02:49:51	26012020	260120	024951	1.760	12.418533	-57.629735	1.780	0.050	-0.390	0.680	1.770	-1.800	0.900																			1580006991.0	0.83	1.54
26/01/2020 02:49:52	26012020	260120	024952	1.880	12.418537	-57.629735	2.000	-0.020	-0.330	0.800	1.920	-1.800	1.100																			1580006992.0	0.70	1.30
26/01/2020 02:49:53	26012020	260120	024953	2.050	12.418540	-57.629735	2.160	0.030	-0.210	0.840	2.100	-1.700	1.200																			1580006993.0	0.64	1.19
26/01/2020 02:49:54	26012020	260120	024954	2.240	12.418542	-57.629737	2.180	0.170	-0.110	0.870	2.250	-1.500	1.200																			1580006994.0	0.73	1.35
26/01/2020 02:49:55	26012020	260120	024955	2.240	12.418545	-57.629738	2.070	0.230	-0.090	0.850	2.220	-1.500	1.200																			1580006995.0	0.72	1.33
26/01/2020 02:49:56	26012020	260120	024956	2.110	12.418548	-57.629740	2.000	0.160	-0.080	0.670	2.090	-1.500	1.200																			1580006996.0	0.82	1.52
26/01/2020 02:49:57	26012020	260120	024957	2.080	12.418553	-57.629742	2.110	0.050	-0.060	0.260	2.090	-1.500	0.900																			1580006997.0	0.94	1.74
26/01/2020 02:49:58	26012020	260120	024958	2.210	12.418557	-57.629747	2.300	-0.020	0.060	-0.170	2.250	-1.400	0.400																			1580006998.0	1.15	2.13
26/01/2020 02:49:59	26012020	260120	024959	2.380	12.418560	-57.629750	2.380	-0.040	0.210	-0.360	2.410	-1.200	0.100	1015.30	25.60	25.70	21.20	21.20	-1.00	76.00	76.00	392.00	24.70	52.00	4.50	57.00	4.40	14	3401.00	27.40	27.40	1580006999.0	1.23	2.28
26/01/2020 02:50:00	26012020	260120	025000	2.450	12.418563	-57.629755	2.390	-0.040	0.170	-0.420	2.460	-1.200	-0.000																			1580007000.0	1.04	1.93
26/01/2020 02:50:01	26012020	260120	025001	2.460	12.418567	-57.629757	2.390	-0.080	-0.100	-0.490	2.460	-1.300	-0.100																			1580007001.0	0.86	1.59
26/01/2020 02:50:02	26012020	260120	025002	2.480	12.418572	-57.629758	2.500	-0.140	-0.350	-0.560	2.490	-1.600	-0.200																			1580007002.0	1.02	1.89
26/01/2020 02:50:03	26012020	260120	025003	2.600	12.418577	-57.629762	2.680	-0.140	-0.400	-0.450	2.640	-1.800	-0.200																			1580007003.0	1.18	2.19
26/01/2020 02:50:04	26012020	260120	025004	2.790	12.418580	-57.629763	2.800	-0.040	-0.200	-0.040	2.820	-1.700	0.100																			1580007004.0	1.10	2.04
26/01/2020 02:50:05	26012020	260120	025005	2.880	12.418583	-57.629765	2.810	0.020	0.060	0.500	2.880	-1.400	0.600																			1580007005.0	0.81	1.50
26/01/2020 02:50:06	26012020	260120	025006	2.870	12.418587	-57.629763	2.800	-0.000	0.170	0.800	2.870	-1.200	1.100																			1580007006.0	0.63	1.17
26/01/2020 02:50:07	26012020	260120	025007	2.870	12.418590	-57.629763	2.800	-0.050	0.030	0.850	2.870	-1.300	1.200																			1580007007.0	0.68	1.26
26/01/2020 02:50:08	26012020	260120	025008	2.880	12.418595	-57.629763	2.900	-0.020	-0.270	0.780	2.900	-1.500	1.200																			1580007008.0	0.91	1.69
26/01/2020 02:50:09	26012020	260120	025009	2.960	12.418600	-57.629765	3.070	0.100	-0.530	0.690	2.990	-1.800	1.100																			1580007009.0	1.21	2.24
26/01/2020 02:50:10	26012020	260120	025010	3.180	12.418605	-57.629768	3.230	0.200	-0.500	0.500	3.210	-1.900	1.000																			1580007010.0	1.41	2.61
26/01/2020 02:50:11	26012020	260120	025011	3.350	12.418612	-57.629772	3.300	0.200	-0.150	0.250	3.370	-1.700	0.700																			1580007011.0	1.39	2.57
26/01/2020 02:50:12	26012020	260120	025012	3.400	12.418617	-57.629775	3.300	0.100	0.260	-0.000	3.390	-1.300	0.500																			1580007012.0	1.20	2.22
26/01/2020 02:50:13	26012020	260120	025013	3.380	12.418620	-57.629778	3.270	-0.060	0.450	-0.140	3.380	-1.000	0.300																			1580007013.0	1.01	1.87
26/01/2020 02:50:14	26012020	260120	025014	3.360	12.418623	-57.629780	3.240	-0.180	0.370	-0.120	3.350	-0.900	0.200																			1580007014.0	1.01	1.87
26/01/2020 02:50:15	26012020	260120	025015	3.330	12.418628	-57.629783	3.280	-0.210	0.020	-0.150	3.340	-1.200	0.300																			1580007015.0	1.14	2.11
26/01/2020 02:50:16	26012020	260120	025016	3.410	12.418633	-57.629785	3.500	-0.130	-0.440	-0.410	3.450	-1.600	0.100																			1580007016.0	1.38	2.56
26/01/2020 02:50:17	26012020	260120	025017	3.660	12.418640	-57.629790	3.840	0.010	-0.690	-0.680	3.740	-2.000	-0.200																			1580007017.0	1.66	3.07
26/01/2020 02:50:18	26012020	260120	025018	4.000	12.418647	-57.629793	4.100	0.110	-0.530	-0.570	4.060	-2.000	-0.300																			1580007018.0	1.71	3.17
26/01/2020 02:50:19	26012020	260120	025019	4.200	12.418653	-57.629795	4.180	0.120	-0.060	-0.010	4.220	-1.700	0.100																			1580007019.0	1.33	2.46
26/01/2020 02:50:20	26012020	260120	025020	4.280	12.418657	-57.629795	4.200	0.090	0.280	0.680	4.280	-1.200	0.700																			1580007020.0	0.88	1.63
26/01/2020 02:50:21	26012020	260120	025021	4.270	12.418662	-57.629793	4.200	0.040	0.250	1.100	4.270	-1.100	1.300																			1580007021.0	0.85	1.57
26/01/2020 02:50:22	26012020	260120	025022	4.270	12.418667	-57.629792	4.230	-0.050	0.040	1.080	4.270	-1.200	1.500																			1580007022.0	1.15	2.13
26/01/2020 02:50:23	26012020	260120	025023	4.320	12.418673	-57.629793	4.330	-0.180	-0.060	0.720	4.350	-1.400	1.300																			1580007023.0	1.44	2.67
26/01/2020 02:50:24	26012020	260120	025024	4.470	12.418680	-57.629797	4.540	-0.270	-0.030	0.270	4.500	-1.400	0.900																			1580007024.0	1.59	2.94
26/01/2020 02:50:25	26012020	260120	025025	4.690	12.418685	-57.629802	4.810	-0.180	-0.110	-0.140	4.750	-1.400	0.400																			1580007025.0	1.63	3.02
26/01/2020 02:50:26	26012020	260120	025026	4.970	12.418692	-57.629807	5.020	0.060	-0.390	-0.460	5.020	-1.600	0.100																			1580007026.0	1.60	2.96
26/01/2020 02:50:27	26012020	260120	025027	5.190	12.418698	-57.629810	5.120	0.310	-0.590	-0.570	5.210	-1.900	-0.200																			1580007027.0	1.73	3.20
26/01/2020 02:50:28	26012020	260120	025028	5.230	12.418707	-57.629813	5.050	0.390	-0.460	-0.420	5.220	-1.900	-0.100																			1580007028.0	1.83	3.39
26/01/2020 02:50:29	26012020	260120	025029	5.140	12.418713	-57.629815	5.040	0.280	-0.120	-0.230	5.130	-1.700	0.100																			1580007029.0	1.62	3.00
26/01/2020 02:50:30	26012020	260120	025030	5.160	12.418720	-57.629815	5.190	0.090	0.150	-0.150	5.190	-1.400	0.200																			1580007030.0	1.32	2.44
26/01/2020 02:50:31	26012020	260120	025031	5.330	12.418725	-57.629817	5.400	-0.120	0.350	-0.090	5.370	-1.100	0.300																			1580007031.0	1.33	2.46
26/01/2020 02:50:32	26012020	260120	025032	5.530	12.418732	-57.629820	5.620	-0.280	0.440	-0.000	5.580	-1.000	0.300																			1580007032.0	1.45	2.69
26/01/2020 02:50:33	26012020	260120	025033	5.710	12.418738	-57.629822	5.870	-0.340	0.290	0.150	5.750	-1.000	0.400																			1580007033.0	1.43	2.65
26/01/2020 02:50:34	26012020	260120	025034	5.980	12.418745	-57.629823	6.070	-0.280	-0.100	0.360	6.020	-1.300	0.600																			1580007034.0	1.47	2.72
26/01/2020 02:50:35	26012020	260120	025035	6.160	12.418753	-57.629823	6.140	-0.140	-0.390	0.620	6.180	-1.700	0.900																			1580007035.0	1.69	3.13
26/01/2020 02:50:36	26012020	260120	025036	6.210	12.418762	-57.629823	6.110	0.040	-0.440	0.850	6.210	-1.800	1.100																			1580007036.0	1.79	3.32
26/01/2020 02:50:37	26012020	260120	025037	6.190	12.418768	-57.629823	6.160	0.220	-0.450	0.870	6.190	-1.800	1.300																			1580007037.0	1.60	2.96
26/01/2020 02:50:38	26012020	260120	025038	6.250	12.418775	-57.629825	6.320	0.320	-0.500	0.670	6.280	-1.900	1.200																			1580007038.0	1.50	2.78
26/01/2020 02:50:39	26012020	260120	025039	6.430	12.418783	-57.629827	6.500	0.240	-0.380	0.300	6.470	-1.900	0.900																			1580007039.0	1.75	3.24
26/01/2020 02:50:40	26012020	260120	025040	6.600	12.418792	-57.629830	6.570	0.040	0.000	-0.110	6.620	-1.600	0.400																			1580007040.0	2.01	3.72
26/01/2020 02:50:41	26012020	260120	025041	6.660	12.418800	-57.629835	6.580	-0.110	0.420	-0.330	6.670	-1.100	0.100																			1580007041.0	2.05	3.80
26/01/2020 02:50:42	26012020	260120	025042	6.670	12.418807	-57.629840	6.650	-0.140	0.470	-0.410	6.670	-0.900	0.000																			1580007042.0	1.82	3.37
26/01/2020 02:50:43	26012020	260120	025043	6.730	12.418815	-57.629843	6.900	-0.100	0.180	-0.550	6.770	-1.000	-0.100																			1580007043.0	1.73	3.20
26/01/2020 02:50:44	26012020	260120	025044	7.050	12.418823	-57.629845	7.260	-0.100	-0.140	-0.690	7.120	-1.400	-0.300																			1580007044.0	1.98	3.67
26/01/2020 02:50:45	26012020	260120	025045	7.340	12.418833	-57.629847	7.540	-0.120	-0.280	-0.570	7.400	-1.600	-0.300																			1580007045.0	2.12	3.93
26/01/2020 02:50:46	26012020	260120	025046	7.660	12.418842	-57.629848	7.710	-0.110	-0.320	-0.170	7.700	-1.700	-0.000																			1580007046.0	1.98	3.67
26/01/2020 02:50:47	26012020	260120	025047	7.820	12.418850	-57.629848	7.810	-0.030	-0.310	0.360	7.830	-1.700	0.500																			1580007047.0	1.79	3.32
26/01/2020 02:50:48	26012020	260120	025048	7.890	12.418858	-57.629848	7.880	0.080	-0.280	0.770	7.900	-1.700	1.000																			1580007048.0	1.79	3.32
26/01/2020 02:50:49	26012020	260120	025049	7.950	12.418867	-57.629847	7.970	0.120	-0.190	0.930	7.960	-1.600	1.200																			1580007049.0	1.85	3.43
26/01/2020 02:50:50	26012020	260120	025050	8.020	12.418877	-57.629847	8.060	0.090	0.020	0.900	8.040	-1.500	1.300																			1580007050.0	1.91	3.54
26/01/2020 02:50:51	26012020	260120	025051	8.110	12.418885	-57.629848	8.190	0.060	0.160	0.770	8.140	-1.300	1.200																			1580007051.0	1.90	3.52
26/01/2020 02:50:52	26012020	260120	025052	8.260	12.418893	-57.629850	8.410	0.020	0.060	0.480	8.290	-1.200	1.000																			1580007052.0	1.86	3.44
26/01/2020 02:50:53	26012020	260120	025053	8.490	12.418903	-57.629853	8.710	-0.000	-0.220	0.010	8.550	-1.500	0.600																			1580007053.0	2.07	3.83
26/01/2020 02:50:54	26012020	260120	025054	8.800	12.418913	-57.629857	9.010	0.000	-0.370	-0.480	8.870	-1.700	0.100																			1580007054.0	2.43	4.50
26/01/2020 02:50:55	26012020	260120	025055	9.090	12.418925	-57.629860	9.180	0.050	-0.250	-0.750	9.140	-1.700	-0.300																			1580007055.0	2.59	4.80
26/01/2020 02:50:56	26012020	260120	025056	9.250	12.418935	-57.629865	9.230	0.100	-0.030	-0.630	9.260	-1.500	-0.400																			1580007056.0	2.39	4.43
26/01/2020 02:50:57	26012020	260120	025057	9.270	12.418945	-57.629865	9.270	0.070	0.110	-0.290	9.270	-1.300	-0.100																			1580007057.0	2.04	3.78
26/01/2020 02:50:58	26012020	260120	025058	9.330	12.418953	-57.629865	9.430	-0.100	0.120	-0.030	9.350	-1.300	0.200																			1580007058.0	1.95	3.61
26/01/2020 02:50:59	26012020	260120	025059	9.520	12.418963	-57.629865	9.680	-0.320	0.130	0.040	9.560	-1.300	0.400	1015.30	25.70	25.70	21.50	21.40	-1.00	77.00	77.00	392.00	24.70	41.00	5.40	52.00	4.90	14	3383.00	27.40	27.40	1580007059.0	2.08	3.85
26/01/2020 02:51:00	26012020	260120	025100	9.750	12.418973	-57.629865	9.890	-0.420	0.160	0.060	9.790	-1.200	0.400																			1580007060.0	2.15	3.98
26/01/2020 02:51:01	26012020	260120	025101	9.900	12.418983	-57.629867	10.090	-0.260	-0.040	0.130	9.950	-1.300	0.500																			1580007061.0	2.13	3.94
26/01/2020 02:51:02	26012020	260120	025102	10.160	12.418993	-57.629868	10.300	0.090	-0.470	0.300	10.210	-1.600	0.600																			1580007062.0	2.17	4.02
26/01/2020 02:51:03	26012020	260120	025103	10.370	12.419005	-57.629870	10.470	0.360	-0.760	0.530	10.400	-2.000	0.800																			1580007063.0	2.49	4.61
26/01/2020 02:51:04	26012020	260120	025104	10.520	12.419017	-57.629868	10.620	0.390	-0.640	0.690	10.550	-2.100	1.000																			1580007064.0	2.68	4.96
26/01/2020 02:51:05	26012020	260120	025105	10.690	12.419028	-57.629868	10.870	0.240	-0.200	0.750	10.730	-1.800	1.100																			1580007065.0	2.48	4.59
26/01/2020 02:51:06	26012020	260120	025106	10.930	12.419038	-57.629868	11.120	0.030	0.300	0.680	10.980	-1.300	1.100																			1580007066.0	2.17	4.02
26/01/2020 02:51:07	26012020	260120	025107	11.180	12.419048	-57.629870	11.340	-0.160	0.560	0.440	11.220	-0.900	0.900																			1580007067.0	2.04	3.78
26/01/2020 02:51:08	26012020	260120	025108	11.400	12.419058	-57.629872	11.610	-0.240	0.450	0.060	11.460	-0.800	0.600																			1580007068.0	2.17	4.02
26/01/2020 02:51:09	26012020	260120	025109	11.640	12.419070	-57.629875	11.970	-0.160	0.040	-0.280	11.700	-1.100	0.200																			1580007069.0	2.49	4.61
26/01/2020 02:51:10	26012020	260120	025110	12.070	12.419082	-57.629877	12.410	0.020	-0.480	-0.550	12.160	-1.600	-0.100																			1580007070.0	2.78	5.15
26/01/2020 02:51:11	26012020	260120	025111	12.420	12.419095	-57.629878	12.800	0.160	-0.730	-0.630	12.510	-2.000	-0.300																			1580007071.0	2.96	5.48
26/01/2020 02:51:12	26012020	260120	025112	12.880	12.419110	-57.629880	12.990	0.140	-0.460	-0.410	12.930	-2.000	-0.200																			1580007072.0	2.96	5.48
26/01/2020 02:51:13	26012020	260120	025113	13.030	12.419122	-57.629880	13.090	0.000	0.050	-0.080	13.050	-1.600	0.100																			1580007073.0	2.58	4.78
26/01/2020 02:51:14	26012020	260120	025114	13.120	12.419132	-57.629880	13.300	-0.140	0.360	0.160	13.160	-1.100	0.400																			1580007074.0	2.09	3.87
26/01/2020 02:51:15	26012020	260120	025115	13.360	12.419140	-57.629878	13.670	-0.200	0.340	0.340	13.430	-1.000	0.600																			1580007075.0	2.05	3.80
26/01/2020 02:51:16	26012020	260120	025116	13.730	12.419152	-57.629878	14.080	-0.200	0.110	0.440	13.810	-1.100	0.800																			1580007076.0	2.36	4.37
26/01/2020 02:51:17	26012020	260120	025117	14.140	12.419163	-57.629878	14.490	-0.130	-0.240	0.360	14.220	-1.400	0.800																			1580007077.0	2.64	4.89
26/01/2020 02:51:18	26012020	260120	025118	14.560	12.419177	-57.629878	14.950	0.010	-0.530	0.190	14.640	-1.800	0.600																			1580007078.0	2.85	5.28
26/01/2020 02:51:19	26012020	260120	025119	15.030	12.419190	-57.629880	15.480	0.190	-0.600	0.100	15.140	-2.000	0.500																			1580007079.0	2.99	5.54
26/01/2020 02:51:20	26012020	260120	025120	15.570	12.419203	-57.629880	15.950	0.250	-0.340	0.200	15.680	-1.900	0.500																			1580007080.0	2.89	5.35
26/01/2020 02:51:21	26012020	260120	025121	16.020	12.419217	-57.629880	16.240	0.160	0.040	0.420	16.100	-1.500	0.700																			1580007081.0	2.62	4.85
26/01/2020 02:51:22	26012020	260120	025122	16.280	12.419227	-57.629878	16.450	0.050	0.220	0.580	16.320	-1.200	0.900																			1580007082.0	2.37	4.39
26/01/2020 02:51:23	26012020	260120	025123	16.490	12.419238	-57.629877	16.770	0.040	0.110	0.450	16.550	-1.200	0.900																			1580007083.0	2.43	4.50
26/01/2020 02:51:24	26012020	260120	025124	16.860	12.419252	-57.629877	17.260	0.120	-0.110	0.080	16.950	-1.400	0.600																			1580007084.0	2.80	5.19
26/01/2020 02:51:25	26012020	260120	025125	17.390	12.419267	-57.629878	17.830	0.180	-0.240	-0.270	17.500	-1.600	0.300																			1580007085.0	3.17	5.87
26/01/2020 02:51:26	26012020	260120	025126	17.960	12.419282	-57.629880	18.370	0.090	-0.130	-0.460	18.080	-1.600	-0.000																			1580007086.0	3.22	5.96
26/01/2020 02:51:27	26012020	260120	025127	18.490	12.419295	-57.629880	18.850	-0.210	0.210	-0.450	18.590	-1.400	-0.100																			1580007087.0	2.97	5.50
26/01/2020 02:51:28	26012020	260120	025128	18.950	12.419307	-57.629880	19.310	-0.560	0.510	-0.310	19.040	-1.000	-0.000																			1580007088.0	2.60	4.82
26/01/2020 02:51:29	26012020	260120	025129	19.410	12.419318	-57.629880	19.870	-0.680	0.370	-0.210	19.520	-0.900	0.100																			1580007089.0	2.33	4.32
26/01/2020 02:51:30	26012020	260120	025130	19.980	12.419330	-57.629880	20.470	-0.360	-0.230	-0.080	20.110	-1.300	0.200																			1580007090.0	2.50	4.63
26/01/2020 02:51:31	26012020	260120	025131	20.570	12.419343	-57.629878	20.990	0.200	-0.840	0.180	20.680	-2.000	0.400																			1580007091.0	3.00	5.56
26/01/2020 02:51:32	26012020	260120	025132	21.060	12.419358	-57.629873	21.390	0.610	-1.020	0.430	21.150	-2.400	0.700																			1580007092.0	3.32	6.15
26/01/2020 02:51:33	26012020	260120	025133	21.430	12.419372	-57.629868	21.670	0.610	-0.690	0.530	21.500	-2.300	0.900																			1580007093.0	3.23	5.98
26/01/2020 02:51:34	26012020	260120	025134	21.710	12.419385	-57.629865	21.940	0.310	-0.120	0.300	21.770	-1.800	0.800																			1580007094.0	2.87	5.32
26/01/2020 02:51:35	26012020	260120	025135	21.930	12.419398	-57.629865	22.230	0.050	0.370	-0.210	21.990	-1.200	0.400																			1580007095.0	2.71	5.02
26/01/2020 02:51:36	26012020	260120	025136	22.310	12.419412	-57.629867	22.550	0.020	0.560	-0.760	22.370	-0.900	-0.100																			1580007096.0	3.01	5.57
26/01/2020 02:51:37	26012020	260120	025137	22.660	12.419427	-57.629870	22.910	0.060	0.380	-1.210	22.730	-0.900	-0.600																			1580007097.0	3.31	6.13
26/01/2020 02:51:38	26012020	260120	025138	23.040	12.419443	-57.629872	23.400	-0.030	0.020	-1.500	23.130	-1.200	-1.000																			1580007098.0	3.41	6.32
26/01/2020 02:51:39	26012020	260120	025139	23.510	12.419458	-57.629870	23.790	-0.280	-0.140	-1.460	23.600	-1.500	-1.200																			1580007099.0	3.47	6.43
26/01/2020 02:51:40	26012020	260120	025140	23.870	12.419473	-57.629865	23.930	-0.550	0.060	-0.910	23.900	-1.500	-0.900																			1580007100.0	3.32	6.15
26/01/2020 02:51:41	26012020	260120	025141	23.940	12.419487	-57.629860	23.890	-0.630	0.250	-0.090	23.940	-1.200	-0.100																			1580007101.0	2.83	5.24
26/01/2020 02:51:42	26012020	260120	025142	23.900	12.419497	-57.629853	23.890	-0.390	-0.040	0.590	23.890	-1.200	0.700																			1580007102.0	2.53	4.69
26/01/2020 02:51:43	26012020	260120	025143	23.920	12.419507	-57.629847	24.010	0.050	-0.650	0.950	23.940	-1.700	1.200																			1580007103.0	2.81	5.20
26/01/2020 02:51:44	26012020	260120	025144	24.050	12.419522	-57.629840	24.190	0.460	-1.010	1.010	24.090	-2.300	1.400																			1580007104.0	3.42	6.33
26/01/2020 02:51:45	26012020	260120	025145	24.240	12.419538	-57.629837	24.390	0.620	-0.780	0.780	24.290	-2.300	1.300																			1580007105.0	3.72	6.89
26/01/2020 02:51:46	26012020	260120	025146	24.470	12.419555	-57.629833	24.660	0.520	-0.180	0.390	24.530	-1.900	0.900																			1580007106.0	3.52	6.52
26/01/2020 02:51:47	26012020	260120	025147	24.710	12.419570	-57.629833	25.000	0.300	0.370	0.080	24.770	-1.200	0.600																			1580007107.0	3.20	5.93
26/01/2020 02:51:48	26012020	260120	025148	25.130	12.419583	-57.629833	25.380	0.080	0.580	-0.090	25.210	-0.900	0.300																			1580007108.0	3.04	5.63
26/01/2020 02:51:49	26012020	260120	025149	25.520	12.419598	-57.629832	25.700	-0.110	0.480	-0.130	25.580	-0.800	0.200																			1580007109.0	3.13	5.80
26/01/2020 02:51:50	26012020	260120	025150	25.820	12.419613	-57.629827	25.960	-0.230	0.180	-0.040	25.870	-1.000	0.300																			1580007110.0	3.35	6.20
26/01/2020 02:51:51	26012020	260120	025151	26.070	12.419628	-57.629822	26.250	-0.260	-0.180	0.070	26.120	-1.400	0.400																			1580007111.0	3.49	6.46
26/01/2020 02:51:52	26012020	260120	025152	26.360	12.419643	-57.629817	26.620	-0.160	-0.500	0.140	26.420	-1.700	0.500																			1580007112.0	3.53	6.54
26/01/2020 02:51:53	26012020	260120	025153	26.730	12.419660	-57.629812	27.060	0.040	-0.670	0.220	26.810	-2.000	0.500																			1580007113.0	3.55	6.57
26/01/2020 02:51:54	26012020	260120	025154	27.190	12.419675	-57.629807	27.590	0.220	-0.560	0.280	27.290	-2.000	0.600																			1580007114.0	3.58	6.63
26/01/2020 02:51:55	26012020	260120	025155	27.740	12.419692	-57.629802	28.160	0.210	-0.110	0.300	27.860	-1.700	0.600																			1580007115.0	3.52	6.52
26/01/2020 02:51:56	26012020	260120	025156	28.310	12.419705	-57.629797	28.680	-0.010	0.490	0.390	28.420	-1.200	0.700																			1580007116.0	3.26	6.04
26/01/2020 02:51:57	26012020	260120	025157	28.800	12.419718	-57.629793	29.110	-0.260	0.760	0.480	28.890	-0.700	0.800																			1580007117.0	2.93	5.43
26/01/2020 02:51:58	26012020	260120	025158	29.230	12.419732	-57.629790	29.580	-0.350	0.410	0.380	29.320	-0.700	0.800																			1580007118.0	2.88	5.33
26/01/2020 02:51:59	26012020	260120	025159	29.620	12.419747	-57.629785	30.160	-0.180	-0.370	0.040	29.720	-1.400	0.600	1015.30	25.60	25.70	21.30	21.30	-1.00	77.00	76.00	392.00	24.70	19.00	6.00	45.00	4.60	14	3283.00	27.40	27.40	1580007119.0	3.33	6.17
26/01/2020 02:52:00	26012020	260120	025200	30.330	12.419765	-57.629780	30.770	0.120	-0.960	-0.370	30.460	-2.100	0.200																			1580007120.0	3.98	7.37
26/01/2020 02:52:01	26012020	260120	025201	30.840	12.419783	-57.629777	31.320	0.330	-0.960	-0.590	30.960	-2.400	-0.200																			1580007121.0	4.26	7.89
26/01/2020 02:52:02	26012020	260120	025202	31.520	12.419802	-57.629772	31.840	0.340	-0.500	-0.590	31.620	-2.100	-0.200																			1580007122.0	3.95	7.32
26/01/2020 02:52:03	26012020	260120	025203	32.030	12.419817	-57.629767	32.320	0.180	0.060	-0.500	32.120	-1.600	-0.200																			1580007123.0	3.42	6.33
26/01/2020 02:52:04	26012020	260120	025204	32.490	12.419830	-57.629762	32.790	-0.040	0.430	-0.520	32.580	-1.100	-0.100																			1580007124.0	3.19	5.91
26/01/2020 02:52:05	26012020	260120	025205	32.950	12.419845	-57.629757	33.290	-0.140	0.480	-0.560	33.050	-0.900	-0.200																			1580007125.0	3.30	6.11
26/01/2020 02:52:06	26012020	260120	025206	33.450	12.419860	-57.629750	33.790	-0.070	0.250	-0.470	33.550	-1.000	-0.200																			1580007126.0	3.53	6.54
26/01/2020 02:52:07	26012020	260120	025207	33.920	12.419877	-57.629743	34.220	0.030	-0.020	-0.290	34.010	-1.300	-0.000																			1580007127.0	3.77	6.98
26/01/2020 02:52:08	26012020	260120	025208	34.340	12.419892	-57.629735	34.580	0.000	-0.130	-0.050	34.420	-1.500	0.200																			1580007128.0	3.87	7.17
26/01/2020 02:52:09	26012020	260120	025209	34.650	12.419907	-57.629725	34.810	-0.130	-0.150	0.180	34.700	-1.500	0.400																			1580007129.0	3.71	6.87
26/01/2020 02:52:10	26012020	260120	025210	34.850	12.419922	-57.629718	35.080	-0.210	-0.250	0.230	34.890	-1.600	0.600																			1580007130.0	3.56	6.59
26/01/2020 02:52:11	26012020	260120	025211	35.140	12.419938	-57.629712	35.540	-0.130	-0.420	0.060	35.230	-1.700	0.500																			1580007131.0	3.65	6.76
26/01/2020 02:52:12	26012020	260120	025212	35.620	12.419955	-57.629705	36.080	0.070	-0.490	-0.040	35.740	-1.900	0.300																			1580007132.0	3.87	7.17
26/01/2020 02:52:13	26012020	260120	025213	36.170	12.419972	-57.629698	36.600	0.220	-0.370	0.040	36.280	-1.800	0.300																			1580007133.0	3.93	7.28
26/01/2020 02:52:14	26012020	260120	025214	36.680	12.419987	-57.629688	37.050	0.190	-0.110	0.230	36.770	-1.600	0.500																			1580007134.0	3.80	7.04
26/01/2020 02:52:15	26012020	260120	025215	37.110	12.420002	-57.629680	37.460	-0.020	0.220	0.320	37.190	-1.300	0.600																			1580007135.0	3.69	6.83
26/01/2020 02:52:16	26012020	260120	025216	37.520	12.420015	-57.629672	37.860	-0.220	0.430	0.270	37.600	-1.000	0.700																			1580007136.0	3.59	6.65
26/01/2020 02:52:17	26012020	260120	025217	37.940	12.420030	-57.629663	38.300	-0.220	0.320	0.120	38.030	-1.000	0.600																			1580007137.0	3.57	6.61
26/01/2020 02:52:18	26012020	260120	025218	38.410	12.420047	-57.629657	38.800	0.040	-0.100	-0.070	38.510	-1.300	0.400																			1580007138.0	3.79	7.02
26/01/2020 02:52:19	26012020	260120	025219	38.940	12.420065	-57.629648	39.400	0.340	-0.520	-0.230	39.060	-1.700	0.200																			1580007139.0	4.13	7.65
26/01/2020 02:52:20	26012020	260120	025220	39.550	12.420083	-57.629640	39.990	0.430	-0.650	-0.250	39.670	-2.000	0.100																			1580007140.0	4.33	8.02
26/01/2020 02:52:21	26012020	260120	025221	40.120	12.420100	-57.629630	40.550	0.230	-0.420	-0.200	40.240	-1.900	0.100																			1580007141.0	4.21	7.80
26/01/2020 02:52:22	26012020	260120	025222	40.680	12.420115	-57.629622	41.120	-0.090	-0.060	-0.210	40.790	-1.600	0.100																			1580007142.0	3.88	7.19
26/01/2020 02:52:23	26012020	260120	025223	41.140	12.420130	-57.629613	41.720	-0.290	0.210	-0.160	41.260	-1.300	0.200																			1580007143.0	3.65	6.76
26/01/2020 02:52:24	26012020	260120	025224	41.870	12.420145	-57.629605	42.400	-0.330	0.290	-0.080	42.010	-1.100	0.200																			1580007144.0	3.69	6.83
26/01/2020 02:52:25	26012020	260120	025225	42.420	12.420160	-57.629595	43.080	-0.260	0.250	-0.020	42.550	-1.100	0.300																			1580007145.0	3.83	7.09
26/01/2020 02:52:26	26012020	260120	025226	43.220	12.420175	-57.629583	43.590	-0.180	0.140	0.070	43.320	-1.200	0.400																			1580007146.0	3.93	7.28
26/01/2020 02:52:27	26012020	260120	025227	43.670	12.420190	-57.629572	43.900	-0.110	-0.060	0.150	43.740	-1.300	0.500																			1580007147.0	3.94	7.30
26/01/2020 02:52:28	26012020	260120	025228	43.970	12.420205	-57.629560	44.260	0.040	-0.390	0.040	44.020	-1.600	0.500																			1580007148.0	3.96	7.33
26/01/2020 02:52:29	26012020	260120	025229	44.350	12.420220	-57.629550	44.840	0.250	-0.690	-0.300	44.450	-2.000	0.200																			1580007149.0	4.15	7.69
26/01/2020 02:52:30	26012020	260120	025230	44.950	12.420238	-57.629540	45.520	0.360	-0.670	-0.730	45.080	-2.100	-0.200																			1580007150.0	4.42	8.19
26/01/2020 02:52:31	26012020	260120	025231	45.650	12.420257	-57.629530	46.200	0.260	-0.250	-0.950	45.790	-1.900	-0.500																			1580007151.0	4.41	8.17
26/01/2020 02:52:32	26012020	260120	025232	46.310	12.420273	-57.629520	46.760	0.050	0.230	-0.780	46.430	-1.400	-0.600																			1580007152.0	4.04	7.48
26/01/2020 02:52:33	26012020	260120	025233	46.840	12.420287	-57.629510	47.190	-0.150	0.440	-0.360	46.920	-1.000	-0.200																			1580007153.0	3.71	6.87
26/01/2020 02:52:34	26012020	260120	025234	47.230	12.420300	-57.629498	47.540	-0.260	0.310	0.060	47.300	-1.000	0.200																			1580007154.0	3.78	7.00
26/01/2020 02:52:35	26012020	260120	025235	47.490	12.420313	-57.629485	47.920	-0.240	0.030	0.290	47.570	-1.200	0.600																			1580007155.0	4.11	7.61
26/01/2020 02:52:36	26012020	260120	025236	47.980	12.420328	-57.629472	48.470	-0.110	-0.220	0.370	48.080	-1.500	0.700																			1580007156.0	4.33	8.02
26/01/2020 02:52:37	26012020	260120	025237	48.430	12.420343	-57.629458	49.140	0.030	-0.320	0.380	48.540	-1.700	0.700																			1580007157.0	4.34	8.04
26/01/2020 02:52:38	26012020	260120	025238	49.240	12.420358	-57.629445	49.880	0.100	-0.330	0.340	49.380	-1.700	0.700																			1580007158.0	4.19	7.76
26/01/2020 02:52:39	26012020	260120	025239	49.970	12.420372	-57.629432	50.520	0.070	-0.290	0.290	50.100	-1.700	0.700																			1580007159.0	4.07	7.54
26/01/2020 02:52:40	26012020	260120	025240	50.590	12.420385	-57.629418	50.980	-0.010	-0.130	0.240	50.680	-1.600	0.600																			1580007160.0	4.11	7.61
26/01/2020 02:52:41	26012020	260120	025241	51.020	12.420400	-57.629405	51.340	-0.020	0.080	0.080	51.090	-1.400	0.500																			1580007161.0	4.13	7.65
26/01/2020 02:52:42	26012020	260120	025242	51.380	12.420415	-57.629393	51.780	0.080	0.090	-0.200	51.470	-1.300	0.300																			1580007162.0	4.09	7.57
26/01/2020 02:52:43	26012020	260120	025243	51.860	12.420432	-57.629382	52.380	0.220	-0.140	-0.520	51.980	-1.400	-0.000																			1580007163.0	4.21	7.80
26/01/2020 02:52:44	26012020	260120	025244	52.480	12.420448	-57.629370	53.010	0.250	-0.330	-0.790	52.600	-1.600	-0.300																			1580007164.0	4.47	8.28
26/01/2020 02:52:45	26012020	260120	025245	53.090	12.420465	-57.629355	53.570	0.050	-0.220	-0.960	53.210	-1.700	-0.500																			1580007165.0	4.64	8.59
26/01/2020 02:52:46	26012020	260120	025246	53.660	12.420480	-57.629342	54.090	-0.230	0.050	-1.030	53.760	-1.400	-0.700																			1580007166.0	4.44	8.22
26/01/2020 02:52:47	26012020	260120	025247	54.180	12.420495	-57.629328	54.570	-0.360	0.140	-0.960	54.280	-1.200	-0.700																			1580007167.0	4.06	7.52
26/01/2020 02:52:48	26012020	260120	025248	54.670	12.420508	-57.629315	54.980	-0.280	-0.010	-0.820	54.760	-1.300	-0.500																			1580007168.0	4.03	7.46
26/01/2020 02:52:49	26012020	260120	025249	55.000	12.420520	-57.629300	55.180	-0.100	-0.220	-0.580	55.060	-1.500	-0.400																			1580007169.0	4.28	7.93
26/01/2020 02:52:50	26012020	260120	025250	55.250	12.420532	-57.629282	55.170	0.040	-0.320	-0.320	55.250	-1.700	-0.100																			1580007170.0	4.48	8.30
26/01/2020 02:52:51	26012020	260120	025251	55.230	12.420545	-57.629265	55.150	0.110	-0.280	-0.280	55.220	-1.700	0.100																			1580007171.0	4.49	8.32
26/01/2020 02:52:52	26012020	260120	025252	55.250	12.420557	-57.629250	55.300	0.160	-0.160	-0.530	55.270	-1.600	-0.100																			1580007172.0	4.35	8.06
26/01/2020 02:52:53	26012020	260120	025253	55.420	12.420572	-57.629235	55.440	0.200	0.030	-0.820	55.460	-1.400	-0.400																			1580007173.0	4.30	7.96
26/01/2020 02:52:54	26012020	260120	025254	55.570	12.420587	-57.629222	55.440	0.130	0.170	-0.950	55.570	-1.300	-0.600																			1580007174.0	4.24	7.85
26/01/2020 02:52:55	26012020	260120	025255	55.530	12.420600	-57.629207	55.230	0.000	0.060	-0.880	55.500	-1.200	-0.600																			1580007175.0	4.16	7.70
26/01/2020 02:52:56	26012020	260120	025256	55.300	12.420612	-57.629192	54.920	-0.090	-0.260	-0.710	55.230	-1.500	-0.500																			1580007176.0	4.23	7.83
26/01/2020 02:52:57	26012020	260120	025257	54.960	12.420625	-57.629175	54.590	-0.120	-0.480	-0.570	54.900	-1.800	-0.300																			1580007177.0	4.52	8.37
26/01/2020 02:52:58	26012020	260120	025258	54.660	12.420638	-57.629158	54.350	-0.110	-0.290	-0.430	54.600	-1.800	-0.200																			1580007178.0	4.65	8.61
26/01/2020 02:52:59	26012020	260120	025259	54.380	12.420652	-57.629142	54.120	-0.130	0.130	-0.290	54.330	-1.500	-0.000	1015.30	25.60	25.70	21.10	21.10	-1.00	76.00	76.00	391.00	24.70	1.00	7.30	46.00	5.30	14	3330.00	27.40	27.40	1580007179.0	4.37	8.09
26/01/2020 02:53:00	26012020	260120	025300	54.150	12.420662	-57.629127	53.930	-0.140	0.280	-0.220	54.110	-1.100	0.100																			1580007180.0	3.94	7.30
26/01/2020 02:53:01	26012020	260120	025301	53.930	12.420673	-57.629112	53.670	-0.050	-0.050	-0.170	53.880	-1.200	0.100																			1580007181.0	3.88	7.19
26/01/2020 02:53:02	26012020	260120	025302	53.620	12.420685	-57.629095	53.220	0.140	-0.490	0.040	53.530	-1.700	0.200																			1580007182.0	4.34	8.04
26/01/2020 02:53:03	26012020	260120	025303	53.110	12.420697	-57.629077	52.560	0.280	-0.600	0.380	52.980	-2.000	0.500																			1580007183.0	4.80	8.89
26/01/2020 02:53:04	26012020	260120	025304	52.390	12.420708	-57.629057	51.830	0.260	-0.290	0.550	52.240	-1.900	0.800																			1580007184.0	4.74	8.78
26/01/2020 02:53:05	26012020	260120	025305	51.670	12.420722	-57.629040	51.330	0.140	0.070	0.380	51.560	-1.500	0.800																			1580007185.0	4.35	8.06
26/01/2020 02:53:06	26012020	260120	025306	51.240	12.420733	-57.629027	51.120	0.010	0.230	0.030	51.190	-1.200	0.500																			1580007186.0	4.09	7.57
26/01/2020 02:53:07	26012020	260120	025307	51.060	12.420748	-57.629013	50.930	-0.110	0.250	-0.160	51.030	-1.100	0.200																			1580007187.0	4.25	7.87
26/01/2020 02:53:08	26012020	260120	025308	50.830	12.420763	-57.628997	50.570	-0.240	0.250	-0.040	50.770	-1.100	0.200																			1580007188.0	4.47	8.28
26/01/2020 02:53:09	26012020	260120	025309	50.460	12.420775	-57.628982	50.180	-0.280	0.080	0.190	50.370	-1.200	0.400																			1580007189.0	4.41	8.17
26/01/2020 02:53:10	26012020	260120	025310	50.090	12.420788	-57.628965	49.920	-0.120	-0.370	0.420	50.030	-1.500	0.600																			1580007190.0	4.36	8.07
26/01/2020 02:53:11	26012020	260120	025311	49.840	12.420800	-57.628947	49.750	0.180	-0.820	0.730	49.800	-2.000	0.900																			1580007191.0	4.62	8.56
26/01/2020 02:53:12	26012020	260120	025312	49.670	12.420815	-57.628928	49.550	0.340	-0.730	1.060	49.630	-2.200	1.200																			1580007192.0	4.97	9.20
26/01/2020 02:53:13	26012020	260120	025313	49.460	12.420828	-57.628910	49.250	0.190	-0.100	1.330	49.390	-1.800	1.500																			1580007193.0	4.86	9.00
26/01/2020 02:53:14	26012020	260120	025314	49.140	12.420840	-57.628893	48.970	-0.070	0.460	1.410	49.070	-1.100	1.700																			1580007194.0	4.27	7.91
26/01/2020 02:53:15	26012020	260120	025315	48.920	12.420852	-57.628880	48.930	-0.140	0.400	1.190	48.890	-0.900	1.700																			1580007195.0	3.90	7.22
26/01/2020 02:53:16	26012020	260120	025316	48.900	12.420865	-57.628865	49.090	0.040	-0.110	0.730	48.920	-1.200	1.300																			1580007196.0	4.30	7.96
26/01/2020 02:53:17	26012020	260120	025317	49.090	12.420882	-57.628848	49.300	0.230	-0.520	0.220	49.130	-1.800	0.800																			1580007197.0	4.96	9.19
26/01/2020 02:53:18	26012020	260120	025318	49.320	12.420900	-57.628832	49.500	0.270	-0.530	-0.070	49.360	-2.000	0.400																			1580007198.0	5.18	9.59
26/01/2020 02:53:19	26012020	260120	025319	49.520	12.420917	-57.628817	49.660	0.180	-0.280	-0.030	49.550	-1.800	0.300																			1580007199.0	4.91	9.09
26/01/2020 02:53:20	26012020	260120	025320	49.680	12.420932	-57.628802	49.890	0.010	0.070	0.200	49.720	-1.500	0.400																			1580007200.0	4.56	8.45
26/01/2020 02:53:21	26012020	260120	025321	49.910	12.420945	-57.628787	50.190	-0.240	0.390	0.460	49.960	-1.100	0.700																			1580007201.0	4.40	8.15
26/01/2020 02:53:22	26012020	260120	025322	50.200	12.420958	-57.628770	50.570	-0.420	0.450	0.660	50.270	-0.900	0.900																			1580007202.0	4.28	7.93
26/01/2020 02:53:23	26012020	260120	025323	50.610	12.420970	-57.628755	51.100	-0.330	0.070	0.730	50.710	-1.100	1.000																			1580007203.0	4.27	7.91
26/01/2020 02:53:24	26012020	260120	025324	51.160	12.420983	-57.628737	51.680	-0.000	-0.500	0.730	51.280	-1.600	1.100																			1580007204.0	4.60	8.52
26/01/2020 02:53:25	26012020	260120	025325	51.730	12.420998	-57.628718	52.110	0.300	-0.810	0.690	51.830	-2.100	1.000																			1580007205.0	5.02	9.30
26/01/2020 02:53:26	26012020	260120	025326	52.150	12.421013	-57.628700	52.380	0.350	-0.570	0.600	52.210	-2.100	1.000																			1580007206.0	5.12	9.48
26/01/2020 02:53:27	26012020	260120	025327	52.350	12.421028	-57.628683	52.580	0.170	-0.040	0.350	52.390	-1.700	0.800																			1580007207.0	4.76	8.82
26/01/2020 02:53:28	26012020	260120	025328	52.610	12.421043	-57.628670	52.910	-0.050	0.320	-0.180	52.670	-1.200	0.400																			1580007208.0	4.35	8.06
26/01/2020 02:53:29	26012020	260120	025329	52.990	12.421060	-57.628657	53.460	-0.170	0.300	-0.900	53.090	-1.000	-0.200																			1580007209.0	4.37	8.09
26/01/2020 02:53:30	26012020	260120	025330	53.560	12.421077	-57.628643	53.990	-0.200	0.060	-1.370	53.680	-1.200	-0.900																			1580007210.0	4.74	8.78
26/01/2020 02:53:31	26012020	260120	025331	54.100	12.421093	-57.628628	54.290	-0.190	-0.190	-1.390	54.170	-1.400	-1.100																			1580007211.0	4.99	9.24
26/01/2020 02:53:32	26012020	260120	025332	54.360	12.421108	-57.628610	54.350	-0.130	-0.410	-1.190	54.380	-1.700	-1.000																			1580007212.0	4.97	9.20
26/01/2020 02:53:33	26012020	260120	025333	54.380	12.421122	-57.628590	54.260	-0.010	-0.520	-0.890	54.370	-1.900	-0.700																			1580007213.0	4.95	9.17
26/01/2020 02:53:34	26012020	260120	025334	54.290	12.421135	-57.628570	54.200	0.110	-0.370	-0.620	54.270	-1.900	-0.400																			1580007214.0	4.99	9.24
26/01/2020 02:53:35	26012020	260120	025335	54.230	12.421147	-57.628552	54.170	0.120	-0.030	-0.400	54.220	-1.600	-0.200																			1580007215.0	4.86	9.00
26/01/2020 02:53:36	26012020	260120	025336	54.210	12.421160	-57.628533	54.130	0.050	0.220	-0.290	54.200	-1.300	0.000																			1580007216.0	4.59	8.50
26/01/2020 02:53:37	26012020	260120	025337	54.170	12.421172	-57.628517	53.990	-0.040	0.240	-0.240	54.150	-1.100	0.100																			1580007217.0	4.49	8.32
26/01/2020 02:53:38	26012020	260120	025338	53.970	12.421185	-57.628500	53.720	-0.040	0.040	-0.160	53.910	-1.200	0.100																			1580007218.0	4.66	8.63
26/01/2020 02:53:39	26012020	260120	025339	53.730	12.421200	-57.628482	53.480	0.070	-0.300	-0.050	53.680	-1.500	0.200																			1580007219.0	4.86	9.00
26/01/2020 02:53:40	26012020	260120	025340	53.420	12.421213	-57.628463	53.190	0.080	-0.430	0.120	53.370	-1.800	0.400																			1580007220.0	5.07	9.39
26/01/2020 02:53:41	26012020	260120	025341	53.170	12.421227	-57.628442	52.770	-0.160	-0.110	0.200	53.090	-1.700	0.500																			1580007221.0	5.15	9.54
26/01/2020 02:53:42	26012020	260120	025342	52.650	12.421240	-57.628423	52.330	-0.490	0.330	0.120	52.570	-1.200	0.500																			1580007222.0	4.73	8.76
26/01/2020 02:53:43	26012020	260120	025343	52.310	12.421252	-57.628408	51.980	-0.520	0.260	0.030	52.220	-1.000	0.400																			1580007223.0	4.22	7.82
26/01/2020 02:53:44	26012020	260120	025344	51.890	12.421265	-57.628392	51.700	-0.080	-0.400	-0.010	51.830	-1.400	0.300																			1580007224.0	4.37	8.09
26/01/2020 02:53:45	26012020	260120	025345	51.600	12.421280	-57.628373	51.340	0.430	-0.870	0.110	51.540	-2.100	0.400																			1580007225.0	5.16	9.56
26/01/2020 02:53:46	26012020	260120	025346	51.200	12.421295	-57.628352	50.840	0.580	-0.640	0.360	51.100	-2.200	0.600																			1580007226.0	5.62	10.41
26/01/2020 02:53:47	26012020	260120	025347	50.670	12.421308	-57.628332	50.380	0.360	-0.050	0.620	50.570	-1.700	0.800																			1580007227.0	5.16	9.56
26/01/2020 02:53:48	26012020	260120	025348	50.250	12.421322	-57.628315	50.160	0.100	0.280	0.790	50.190	-1.200	1.100																			1580007228.0	4.50	8.33
26/01/2020 02:53:49	26012020	260120	025349	50.070	12.421335	-57.628298	50.110	0.000	0.200	0.890	50.050	-1.100	1.200																			1580007229.0	4.46	8.26
26/01/2020 02:53:50	26012020	260120	025350	50.040	12.421348	-57.628280	50.100	-0.020	0.010	0.950	50.030	-1.300	1.300																			1580007230.0	4.94	9.15
26/01/2020 02:53:51	26012020	260120	025351	50.040	12.421365	-57.628262	50.190	-0.040	-0.120	0.960	50.050	-1.500	1.300																			1580007231.0	5.21	9.65
26/01/2020 02:53:52	26012020	260120	025352	50.130	12.421380	-57.628243	50.360	-0.100	-0.080	1.040	50.160	-1.500	1.300																			1580007232.0	5.14	9.52
26/01/2020 02:53:53	26012020	260120	025353	50.290	12.421395	-57.628225	50.480	-0.230	0.170	1.240	50.320	-1.300	1.500																			1580007233.0	4.96	9.19
26/01/2020 02:53:54	26012020	260120	025354	50.420	12.421407	-57.628207	50.570	-0.340	0.270	1.380	50.430	-1.100	1.700																			1580007234.0	4.67	8.65
26/01/2020 02:53:55	26012020	260120	025355	50.490	12.421420	-57.628188	50.650	-0.260	-0.090	1.330	50.500	-1.300	1.700																			1580007235.0	4.49	8.32
26/01/2020 02:53:56	26012020	260120	025356	50.570	12.421433	-57.628172	50.810	0.050	-0.670	1.020	50.600	-1.800	1.500																			1580007236.0	4.83	8.95
26/01/2020 02:53:57	26012020	260120	025357	50.780	12.421452	-57.628153	51.160	0.390	-0.940	0.540	50.840	-2.300	1.100																			1580007237.0	5.38	9.96
26/01/2020 02:53:58	26012020	260120	025358	51.160	12.421470	-57.628137	51.590	0.520	-0.680	0.050	51.250	-2.300	0.600																			1580007238.0	5.46	10.11
26/01/2020 02:53:59	26012020	260120	025359	51.590	12.421487	-57.628120	51.940	0.320	-0.020	-0.300	51.670	-1.800	0.200	1015.30	25.60	25.70	21.00	21.10	-1.00	75.00	75.00	391.00	24.70	0.00	7.20	52.00	4.80	14	3323.00	27.40	27.40	1580007239.0	5.13	9.50
26/01/2020 02:54:00	26012020	260120	025400	51.950	12.421503	-57.628103	52.270	-0.050	0.590	-0.630	52.020	-1.000	-0.100																			1580007240.0	4.69	8.69
26/01/2020 02:54:01	26012020	260120	025401	52.280	12.421518	-57.628090	52.570	-0.270	0.600	-0.890	52.340	-0.700	-0.400																			1580007241.0	4.41	8.17
26/01/2020 02:54:02	26012020	260120	025402	52.580	12.421533	-57.628073	52.810	-0.180	-0.000	-0.940	52.640	-1.100	-0.600																			1580007242.0	4.70	8.70
26/01/2020 02:54:03	26012020	260120	025403	52.770	12.421550	-57.628055	52.960	-0.040	-0.480	-0.800	52.810	-1.700	-0.500																			1580007243.0	5.43	10.06
26/01/2020 02:54:04	26012020	260120	025404	52.940	12.421567	-57.628033	53.030	-0.130	-0.360	-0.580	52.960	-1.900	-0.400																			1580007244.0	5.76	10.67
26/01/2020 02:54:05	26012020	260120	025405	52.990	12.421580	-57.628013	53.040	-0.300	-0.010	-0.290	53.000	-1.500	-0.100																			1580007245.0	5.23	9.69
26/01/2020 02:54:06	26012020	260120	025406	52.980	12.421593	-57.627995	53.000	-0.250	0.050	-0.010	52.970	-1.300	0.200																			1580007246.0	4.62	8.56
26/01/2020 02:54:07	26012020	260120	025407	52.940	12.421605	-57.627977	52.980	0.000	-0.190	0.110	52.940	-1.400	0.400																			1580007247.0	4.71	8.72
26/01/2020 02:54:08	26012020	260120	025408	52.930	12.421618	-57.627957	52.930	0.210	-0.360	0.130	52.920	-1.700	0.500																			1580007248.0	5.19	9.61
26/01/2020 02:54:09	26012020	260120	025409	52.870	12.421635	-57.627937	52.810	0.190	-0.260	0.160	52.850	-1.700	0.500																			1580007249.0	5.39	9.98
26/01/2020 02:54:10	26012020	260120	025410	52.730	12.421650	-57.627917	52.660	-0.000	-0.010	0.270	52.700	-1.500	0.600																			1580007250.0	5.20	9.63
26/01/2020 02:54:11	26012020	260120	025411	52.580	12.421663	-57.627898	52.550	-0.110	0.090	0.300	52.550	-1.300	0.600																			1580007251.0	4.93	9.13
26/01/2020 02:54:12	26012020	260120	025412	52.490	12.421678	-57.627882	52.540	0.040	-0.070	0.240	52.490	-1.300	0.600																			1580007252.0	4.90	9.07
26/01/2020 02:54:13	26012020	260120	025413	52.490	12.421695	-57.627862	52.540	0.280	-0.340	0.260	52.490	-1.600	0.600																			1580007253.0	5.21	9.65
26/01/2020 02:54:14	26012020	260120	025414	52.470	12.421710	-57.627842	52.460	0.330	-0.440	0.390	52.450	-1.800	0.700																			1580007254.0	5.50	10.19
26/01/2020 02:54:15	26012020	260120	025415	52.390	12.421725	-57.627820	52.310	0.130	-0.290	0.530	52.360	-1.800	0.800																			1580007255.0	5.53	10.24
26/01/2020 02:54:16	26012020	260120	025416	52.230	12.421738	-57.627800	52.230	-0.170	0.060	0.620	52.220	-1.500	0.900																			1580007256.0	5.33	9.87
26/01/2020 02:54:17	26012020	260120	025417	52.190	12.421753	-57.627780	52.200	-0.360	0.370	0.650	52.180	-1.100	1.000																			1580007257.0	5.07	9.39
26/01/2020 02:54:18	26012020	260120	025418	52.160	12.421767	-57.627762	52.250	-0.310	0.280	0.540	52.170	-1.000	1.000																			1580007258.0	4.90	9.07
26/01/2020 02:54:19	26012020	260120	025419	52.220	12.421782	-57.627743	52.250	-0.040	-0.190	0.380	52.220	-1.300	0.800																			1580007259.0	5.07	9.39
26/01/2020 02:54:20	26012020	260120	025420	52.200	12.421798	-57.627723	52.130	0.230	-0.600	0.280	52.180	-1.800	0.700																			1580007260.0	5.59	10.35
26/01/2020 02:54:21	26012020	260120	025421	52.070	12.421817	-57.627702	52.040	0.290	-0.560	0.210	52.040	-2.000	0.600																			1580007261.0	5.88	10.89
26/01/2020 02:54:22	26012020	260120	025422	52.020	12.421833	-57.627682	52.180	0.110	-0.200	0.110	52.040	-1.800	0.500																			1580007262.0	5.62	10.41
26/01/2020 02:54:23	26012020	260120	025423	52.200	12.421850	-57.627663	52.460	-0.170	0.240	0.030	52.250	-1.300	0.400																			1580007263.0	5.18	9.59
26/01/2020 02:54:24	26012020	260120	025424	52.460	12.421863	-57.627645	52.670	-0.340	0.430	0.010	52.500	-1.000	0.400																			1580007264.0	4.94	9.15
26/01/2020 02:54:25	26012020	260120	025425	52.660	12.421878	-57.627627	52.830	-0.240	0.170	0.040	52.690	-1.000	0.400																			1580007265.0	4.98	9.22
26/01/2020 02:54:26	26012020	260120	025426	52.810	12.421895	-57.627608	52.920	0.100	-0.400	0.170	52.830	-1.500	0.400																			1580007266.0	5.33	9.87
26/01/2020 02:54:27	26012020	260120	025427	52.890	12.421910	-57.627585	52.930	0.420	-0.810	0.440	52.900	-2.000	0.700																			1580007267.0	5.82	10.78
26/01/2020 02:54:28	26012020	260120	025428	52.880	12.421927	-57.627562	52.910	0.470	-0.700	0.610	52.880	-2.200	0.900																			1580007268.0	6.05	11.20
26/01/2020 02:54:29	26012020	260120	025429	52.850	12.421942	-57.627540	52.880	0.250	-0.170	0.570	52.840	-1.800	1.000																			1580007269.0	5.77	10.69
26/01/2020 02:54:30	26012020	260120	025430	52.820	12.421957	-57.627520	52.890	-0.080	0.380	0.400	52.820	-1.200	0.900																			1580007270.0	5.27	9.76
26/01/2020 02:54:31	26012020	260120	025431	52.840	12.421972	-57.627502	53.000	-0.280	0.510	0.070	52.860	-0.900	0.600																			1580007271.0	4.98	9.22
26/01/2020 02:54:32	26012020	260120	025432	52.990	12.421988	-57.627483	53.140	-0.280	0.190	-0.280	53.020	-1.000	0.200																			1580007272.0	5.16	9.56
26/01/2020 02:54:33	26012020	260120	025433	53.140	12.422005	-57.627465	53.180	-0.110	-0.330	-0.410	53.150	-1.500	-0.000																			1580007273.0	5.62	10.41
26/01/2020 02:54:34	26012020	260120	025434	53.150	12.422023	-57.627442	53.060	0.040	-0.670	-0.220	53.140	-1.900	0.000																			1580007274.0	6.00	11.11
26/01/2020 02:54:35	26012020	260120	025435	53.000	12.422040	-57.627418	52.900	0.000	-0.470	-0.030	52.960	-2.000	0.200																			1580007275.0	6.10	11.30
26/01/2020 02:54:36	26012020	260120	025436	52.840	12.422055	-57.627397	52.890	-0.180	0.080	0.010	52.820	-1.600	0.400																			1580007276.0	5.76	10.67
26/01/2020 02:54:37	26012020	260120	025437	52.860	12.422070	-57.627377	53.040	-0.250	0.370	-0.050	52.890	-1.100	0.300																			1580007277.0	5.15	9.54
26/01/2020 02:54:38	26012020	260120	025438	53.020	12.422083	-57.627358	53.180	-0.050	0.080	-0.020	53.050	-1.100	0.300																			1580007278.0	5.03	9.32
26/01/2020 02:54:39	26012020	260120	025439	53.150	12.422100	-57.627338	53.220	0.250	-0.380	0.090	53.170	-1.600	0.400																			1580007279.0	5.60	10.37
26/01/2020 02:54:40	26012020	260120	025440	53.170	12.422118	-57.627315	53.120	0.380	-0.450	0.390	53.160	-1.900	0.600																			1580007280.0	6.13	11.35
26/01/2020 02:54:41	26012020	260120	025441	53.020	12.422133	-57.627292	52.880	0.250	-0.110	0.850	52.980	-1.700	1.000																			1580007281.0	6.03	11.17
26/01/2020 02:54:42	26012020	260120	025442	52.770	12.422148	-57.627270	52.740	0.000	0.160	1.110	52.730	-1.300	1.400																			1580007282.0	5.49	10.17
26/01/2020 02:54:43	26012020	260120	025443	52.670	12.422162	-57.627250	52.880	-0.070	-0.120	0.890	52.690	-1.300	1.400																			1580007283.0	5.20	9.63
26/01/2020 02:54:44	26012020	260120	025444	52.860	12.422178	-57.627228	53.140	0.110	-0.650	0.450	52.920	-1.800	1.000																			1580007284.0	5.59	10.35
26/01/2020 02:54:45	26012020	260120	025445	53.130	12.422197	-57.627207	53.220	0.290	-0.740	0.280	53.160	-2.200	0.700																			1580007285.0	6.27	11.61
26/01/2020 02:54:46	26012020	260120	025446	53.170	12.422217	-57.627183	53.080	0.160	-0.140	0.410	53.150	-1.900	0.700																			1580007286.0	6.35	11.76
26/01/2020 02:54:47	26012020	260120	025447	52.990	12.422232	-57.627162	52.880	-0.260	0.630	0.490	52.950	-1.100	0.800																			1580007287.0	5.74	10.63
26/01/2020 02:54:48	26012020	260120	025448	52.820	12.422245	-57.627142	52.850	-0.600	0.850	0.270	52.810	-0.500	0.800																			1580007288.0	5.07	9.39
26/01/2020 02:54:49	26012020	260120	025449	52.830	12.422260	-57.627123	52.980	-0.530	0.320	-0.190	52.860	-0.700	0.400																			1580007289.0	5.11	9.46
26/01/2020 02:54:50	26012020	260120	025450	53.010	12.422278	-57.627103	53.220	-0.080	-0.580	-0.670	53.060	-1.500	-0.100																			1580007290.0	5.76	10.67
26/01/2020 02:54:51	26012020	260120	025451	53.250	12.422298	-57.627080	53.350	0.410	-1.080	-0.810	53.280	-2.300	-0.500																			1580007291.0	6.45	11.95
26/01/2020 02:54:52	26012020	260120	025452	53.320	12.422318	-57.627057	53.260	0.510	-0.710	-0.480	53.310	-2.400	-0.300																			1580007292.0	6.63	12.28
26/01/2020 02:54:53	26012020	260120	025453	53.210	12.422335	-57.627035	53.220	0.150	0.070	-0.050	53.200	-1.700	0.100																			1580007293.0	5.97	11.06
26/01/2020 02:54:54	26012020	260120	025454	53.190	12.422348	-57.627013	53.330	-0.290	0.500	0.260	53.210	-1.000	0.500																			1580007294.0	5.17	9.57
26/01/2020 02:54:55	26012020	260120	025455	53.290	12.422362	-57.626993	53.440	-0.430	0.340	0.570	53.320	-0.900	0.800																			1580007295.0	5.11	9.46
26/01/2020 02:54:56	26012020	260120	025456	53.400	12.422377	-57.626972	53.460	-0.210	-0.140	0.830	53.400	-1.300	1.100																			1580007296.0	5.66	10.48
26/01/2020 02:54:57	26012020	260120	025457	53.400	12.422393	-57.626947	53.430	0.170	-0.620	0.980	53.390	-1.800	1.300																			1580007297.0	6.18	11.45
26/01/2020 02:54:58	26012020	260120	025458	53.360	12.422410	-57.626922	53.400	0.440	-0.790	1.020	53.360	-2.100	1.400																			1580007298.0	6.42	11.89
26/01/2020 02:54:59	26012020	260120	025459	53.330	12.422427	-57.626898	53.370	0.460	-0.460	0.890	53.330	-2.000	1.300	1015.20	25.60	25.70	21.00	21.10	-1.00	75.00	75.00	391.00	24.80	358.00	7.70	50.00	4.90	14	3218.00	27.40	27.40	1580007299.0	6.35	11.76
26/01/2020 02:55:00	26012020	260120	025500	53.320	12.422443	-57.626875	53.380	0.290	0.060	0.540	53.320	-1.600	1.100																			1580007300.0	5.97	11.06
26/01/2020 02:55:01	26012020	260120	025501	53.340	12.422460	-57.626855	53.420	0.060	0.310	0.070	53.350	-1.100	0.600																			1580007301.0	5.57	10.32
26/01/2020 02:55:02	26012020	260120	025502	53.390	12.422477	-57.626835	53.510	-0.150	0.250	-0.420	53.400	-1.100	0.200																			1580007302.0	5.66	10.48
26/01/2020 02:55:03	26012020	260120	025503	53.510	12.422497	-57.626813	53.640	-0.350	0.210	-0.810	53.540	-1.200	-0.300																			1580007303.0	6.05	11.20
26/01/2020 02:55:04	26012020	260120	025504	53.660	12.422517	-57.626793	53.680	-0.510	0.320	-0.880	53.670	-1.100	-0.500																			1580007304.0	6.16	11.41
26/01/2020 02:55:05	26012020	260120	025505	53.680	12.422535	-57.626773	53.580	-0.540	0.300	-0.540	53.660	-1.000	-0.400																			1580007305.0	5.83	10.80
26/01/2020 02:55:06	26012020	260120	025506	53.560	12.422550	-57.626752	53.500	-0.350	-0.200	-0.030	53.540	-1.300	0.100																			1580007306.0	5.61	10.39
26/01/2020 02:55:07	26012020	260120	025507	53.490	12.422565	-57.626727	53.470	0.040	-0.980	0.420	53.480	-2.000	0.600																			1580007307.0	5.94	11.00
26/01/2020 02:55:08	26012020	260120	025508	53.450	12.422580	-57.626700	53.520	0.480	-1.420	0.750	53.450	-2.700	1.000																			1580007308.0	6.54	12.11
26/01/2020 02:55:09	26012020	260120	025509	53.480	12.422597	-57.626673	53.570	0.730	-1.070	1.000	53.490	-2.700	1.200																			1580007309.0	6.76	12.52
26/01/2020 02:55:10	26012020	260120	025510	53.510	12.422613	-57.626648	53.600	0.580	-0.090	1.080	53.520	-2.000	1.400																			1580007310.0	6.38	11.82
26/01/2020 02:55:11	26012020	260120	025511	53.550	12.422628	-57.626627	53.610	0.180	0.790	0.960	53.560	-0.900	1.400																			1580007311.0	5.66	10.48
26/01/2020 02:55:12	26012020	260120	025512	53.590	12.422643	-57.626607	53.630	-0.190	1.040	0.640	53.590	-0.400	1.200																			1580007312.0	5.30	9.82
26/01/2020 02:55:13	26012020	260120	025513	53.640	12.422662	-57.626587	53.690	-0.360	0.700	0.250	53.650	-0.500	0.800																			1580007313.0	5.64	10.45
26/01/2020 02:55:14	26012020	260120	025514	53.720	12.422680	-57.626565	53.750	-0.310	0.020	-0.080	53.730	-1.000	0.400																			1580007314.0	6.20	11.48
26/01/2020 02:55:15	26012020	260120	025515	53.770	12.422700	-57.626542	53.730	-0.100	-0.740	-0.290	53.770	-1.800	0.100																			1580007315.0	6.50	12.04
26/01/2020 02:55:16	26012020	260120	025516	53.730	12.422720	-57.626517	53.650	0.050	-1.020	-0.310	53.720	-2.400	0.000																			1580007316.0	6.73	12.46
26/01/2020 02:55:17	26012020	260120	025517	53.640	12.422738	-57.626492	53.560	0.030	-0.620	-0.220	53.610	-2.200	0.100																			1580007317.0	6.66	12.33
26/01/2020 02:55:18	26012020	260120	025518	53.560	12.422755	-57.626468	53.590	-0.060	-0.110	-0.170	53.560	-1.700	0.200																			1580007318.0	6.02	11.15
26/01/2020 02:55:19	26012020	260120	025519	53.600	12.422770	-57.626447	53.690	-0.080	0.140	-0.110	53.620	-1.300	0.200																			1580007319.0	5.58	10.33
26/01/2020 02:55:20	26012020	260120	025520	53.710	12.422787	-57.626425	53.730	-0.050	0.200	0.070	53.720	-1.200	0.300																			1580007320.0	5.84	10.82
26/01/2020 02:55:21	26012020	260120	025521	53.730	12.422803	-57.626402	53.720	-0.070	0.180	0.320	53.730	-1.200	0.600																			1580007321.0	6.15	11.39
26/01/2020 02:55:22	26012020	260120	025522	53.710	12.422820	-57.626378	53.790	-0.100	-0.010	0.500	53.720	-1.300	0.800																			1580007322.0	6.22	11.52
26/01/2020 02:55:23	26012020	260120	025523	53.810	12.422837	-57.626353	53.980	-0.040	-0.300	0.600	53.840	-1.500	0.900																			1580007323.0	6.25	11.58
26/01/2020 02:55:24	26012020	260120	025524	53.990	12.422853	-57.626328	54.130	0.100	-0.490	0.670	54.030	-1.800	1.000																			1580007324.0	6.38	11.82
26/01/2020 02:55:25	26012020	260120	025525	54.100	12.422870	-57.626303	54.070	0.280	-0.470	0.780	54.100	-1.900	1.100																			1580007325.0	6.45	11.95
26/01/2020 02:55:26	26012020	260120	025526	53.990	12.422887	-57.626278	53.860	0.390	-0.370	0.850	53.940	-1.800	1.200																			1580007326.0	6.35	11.76
26/01/2020 02:55:27	26012020	260120	025527	53.790	12.422905	-57.626255	53.780	0.320	-0.250	0.700	53.770	-1.700	1.200																			1580007327.0	6.30	11.67
26/01/2020 02:55:28	26012020	260120	025528	53.770	12.422922	-57.626230	53.940	0.070	0.000	0.190	53.790	-1.500	0.800																			1580007328.0	6.34	11.74
26/01/2020 02:55:29	26012020	260120	025529	53.980	12.422942	-57.626208	54.170	-0.250	0.390	-0.360	54.030	-1.200	0.200																			1580007329.0	6.32	11.70
26/01/2020 02:55:30	26012020	260120	025530	54.220	12.422962	-57.626188	54.280	-0.440	0.590	-0.540	54.250	-0.800	-0.200																			1580007330.0	6.13	11.35
26/01/2020 02:55:31	26012020	260120	025531	54.300	12.422980	-57.626167	54.260	-0.400	0.240	-0.340	54.300	-0.900	-0.100																			1580007331.0	5.94	11.00
26/01/2020 02:55:32	26012020	260120	025532	54.260	12.422997	-57.626143	54.200	-0.190	-0.470	-0.080	54.250	-1.500	0.200																			1580007332.0	6.23	11.54
26/01/2020 02:55:33	26012020	260120	025533	54.200	12.423013	-57.626115	54.210	0.050	-0.990	0.130	54.200	-2.200	0.400																			1580007333.0	6.79	12.58
26/01/2020 02:55:34	26012020	260120	025534	54.220	12.423032	-57.626088	54.230	0.170	-0.880	0.350	54.230	-2.400	0.600																			1580007334.0	6.98	12.93
26/01/2020 02:55:35	26012020	260120	025535	54.220	12.423048	-57.626062	54.200	0.100	-0.290	0.510	54.220	-2.000	0.800																			1580007335.0	6.67	12.35
26/01/2020 02:55:36	26012020	260120	025536	54.200	12.423065	-57.626038	54.280	-0.020	0.240	0.470	54.210	-1.300	0.900																			1580007336.0	6.10	11.30
26/01/2020 02:55:37	26012020	260120	025537	54.300	12.423082	-57.626015	54.480	-0.030	0.400	0.330	54.340	-1.000	0.800																			1580007337.0	5.87	10.87
26/01/2020 02:55:38	26012020	260120	025538	54.500	12.423098	-57.625992	54.610	-0.000	0.350	0.210	54.540	-1.000	0.600																			1580007338.0	6.15	11.39
26/01/2020 02:55:39	26012020	260120	025539	54.610	12.423117	-57.625968	54.540	-0.000	0.180	0.200	54.600	-1.100	0.600																			1580007339.0	6.44	11.93
26/01/2020 02:55:40	26012020	260120	025540	54.490	12.423133	-57.625943	54.360	0.050	-0.230	0.210	54.450	-1.400	0.600																			1580007340.0	6.46	11.96
26/01/2020 02:55:41	26012020	260120	025541	54.300	12.423152	-57.625918	54.270	0.240	-0.820	0.070	54.270	-1.900	0.500																			1580007341.0	6.57	12.17
26/01/2020 02:55:42	26012020	260120	025542	54.260	12.423172	-57.625892	54.340	0.410	-1.010	-0.120	54.280	-2.400	0.300																			1580007342.0	6.93	12.83
26/01/2020 02:55:43	26012020	260120	025543	54.340	12.423193	-57.625867	54.400	0.320	-0.440	-0.140	54.360	-2.200	0.200																			1580007343.0	7.06	13.08
26/01/2020 02:55:44	26012020	260120	025544	54.410	12.423212	-57.625843	54.360	-0.030	0.400	0.110	54.400	-1.400	0.300																			1580007344.0	6.46	11.96
26/01/2020 02:55:45	26012020	260120	025545	54.350	12.423227	-57.625820	54.270	-0.460	0.750	0.470	54.330	-0.700	0.700																			1580007345.0	5.79	10.72
26/01/2020 02:55:46	26012020	260120	025546	54.270	12.423242	-57.625797	54.310	-0.700	0.380	0.640	54.270	-0.700	1.000																			1580007346.0	5.86	10.85
26/01/2020 02:55:47	26012020	260120	025547	54.320	12.423257	-57.625770	54.440	-0.610	-0.310	0.570	54.340	-1.400	1.000																			1580007347.0	6.51	12.06
26/01/2020 02:55:48	26012020	260120	025548	54.460	12.423275	-57.625742	54.580	-0.190	-0.750	0.450	54.490	-2.000	0.900																			1580007348.0	7.04	13.04
26/01/2020 02:55:49	26012020	260120	025549	54.600	12.423293	-57.625715	54.600	0.330	-0.680	0.450	54.610	-2.100	0.800																			1580007349.0	7.10	13.15
26/01/2020 02:55:50	26012020	260120	025550	54.570	12.423312	-57.625688	54.430	0.620	-0.260	0.500	54.550	-1.900	0.900																			1580007350.0	6.74	12.48
26/01/2020 02:55:51	26012020	260120	025551	54.380	12.423328	-57.625663	54.260	0.530	0.120	0.320	54.340	-1.400	0.800																			1580007351.0	6.34	11.74
26/01/2020 02:55:52	26012020	260120	025552	54.250	12.423345	-57.625642	54.280	0.250	0.200	-0.100	54.240	-1.200	0.500																			1580007352.0	6.17	11.43
26/01/2020 02:55:53	26012020	260120	025553	54.280	12.423365	-57.625618	54.400	0.020	0.050	-0.450	54.310	-1.200	0.100																			1580007353.0	6.37	11.80
26/01/2020 02:55:54	26012020	260120	025554	54.400	12.423387	-57.625595	54.490	-0.150	-0.100	-0.510	54.430	-1.400	-0.200																			1580007354.0	6.69	12.39
26/01/2020 02:55:55	26012020	260120	025555	54.490	12.423407	-57.625572	54.480	-0.300	-0.190	-0.280	54.500	-1.500	-0.100																			1580007355.0	6.78	12.56
26/01/2020 02:55:56	26012020	260120	025556	54.460	12.423425	-57.625545	54.360	-0.350	-0.280	0.170	54.430	-1.600	0.300																			1580007356.0	6.65	12.32
26/01/2020 02:55:57	26012020	260120	025557	54.340	12.423442	-57.625518	54.250	-0.200	-0.420	0.640	54.310	-1.700	0.800																			1580007357.0	6.61	12.24
26/01/2020 02:55:58	26012020	260120	025558	54.210	12.423457	-57.625492	54.290	0.090	-0.590	0.920	54.220	-1.900	1.200																			1580007358.0	6.74	12.48
26/01/2020 02:55:59	26012020	260120	025559	54.270	12.423473	-57.625463	54.380	0.280	-0.490	0.960	54.290	-2.000	1.300	1015.20	25.70	25.70	20.90	21.00	-1.00	75.00	75.00	391.00	24.80	359.00	8.40	52.00	5.10	14	3391.00	27.40	27.40	1580007359.0	6.92	12.82
26/01/2020 02:56:00	26012020	260120	025600	54.360	12.423490	-57.625435	54.360	0.190	0.070	0.830	54.360	-1.600	1.300																			1580007360.0	6.94	12.85
26/01/2020 02:56:01	26012020	260120	025601	54.330	12.423508	-57.625410	54.250	-0.110	0.720	0.610	54.310	-0.900	1.100																			1580007361.0	6.52	12.08
26/01/2020 02:56:02	26012020	260120	025602	54.210	12.423525	-57.625388	54.170	-0.320	0.710	0.320	54.180	-0.500	0.800																			1580007362.0	6.00	11.11
26/01/2020 02:56:03	26012020	260120	025603	54.170	12.423543	-57.625365	54.330	-0.160	-0.160	-0.160	54.200	-1.000	0.500																			1580007363.0	6.13	11.35
26/01/2020 02:56:04	26012020	260120	025604	54.370	12.423565	-57.625340	54.550	0.230	-1.030	-0.630	54.420	-2.100	-0.100																			1580007364.0	6.99	12.95
26/01/2020 02:56:05	26012020	260120	025605	54.550	12.423588	-57.625313	54.500	0.380	-0.940	-0.720	54.560	-2.500	-0.400																			1580007365.0	7.71	14.28
26/01/2020 02:56:06	26012020	260120	025606	54.480	12.423608	-57.625287	54.250	0.130	-0.140	-0.350	54.440	-1.900	-0.200																			1580007366.0	7.21	13.35
26/01/2020 02:56:07	26012020	260120	025607	54.220	12.423625	-57.625262	54.040	-0.220	0.390	0.130	54.170	-1.200	0.300																			1580007367.0	6.12	11.33
26/01/2020 02:56:08	26012020	260120	025608	54.020	12.423640	-57.625238	53.980	-0.330	0.260	0.400	54.000	-1.000	0.700																			1580007368.0	5.87	10.87
26/01/2020 02:56:09	26012020	260120	025609	53.980	12.423655	-57.625212	54.010	-0.170	-0.130	0.490	53.980	-1.300	0.800																			1580007369.0	6.51	12.06
26/01/2020 02:56:10	26012020	260120	025610	54.000	12.423675	-57.625185	54.000	0.040	-0.380	0.550	54.000	-1.700	0.900																			1580007370.0	7.05	13.06
26/01/2020 02:56:11	26012020	260120	025611	53.990	12.423693	-57.625158	53.910	0.190	-0.400	0.690	53.980	-1.800	1.000																			1580007371.0	7.07	13.09
26/01/2020 02:56:12	26012020	260120	025612	53.880	12.423712	-57.625132	53.820	0.240	-0.320	0.800	53.860	-1.700	1.100																			1580007372.0	6.86	12.70
26/01/2020 02:56:13	26012020	260120	025613	53.810	12.423730	-57.625105	53.870	0.220	-0.280	0.700	53.810	-1.700	1.100																			1580007373.0	6.72	12.45
26/01/2020 02:56:14	26012020	260120	025614	53.880	12.423750	-57.625080	54.010	0.110	-0.190	0.530	53.910	-1.600	1.000																			1580007374.0	6.76	12.52
26/01/2020 02:56:15	26012020	260120	025615	54.000	12.423770	-57.625055	54.070	-0.120	0.130	0.480	54.010	-1.400	0.900																			1580007375.0	6.87	12.72
26/01/2020 02:56:16	26012020	260120	025616	54.040	12.423788	-57.625030	54.050	-0.350	0.390	0.490	54.040	-1.100	0.900																			1580007376.0	6.67	12.35
26/01/2020 02:56:17	26012020	260120	025617	54.030	12.423805	-57.625005	54.040	-0.390	0.250	0.370	54.030	-1.000	0.800																			1580007377.0	6.39	11.83
26/01/2020 02:56:18	26012020	260120	025618	54.040	12.423822	-57.624978	54.040	-0.170	-0.210	0.120	54.040	-1.300	0.600																			1580007378.0	6.59	12.20
26/01/2020 02:56:19	26012020	260120	025619	54.040	12.423842	-57.624953	54.020	0.220	-0.670	-0.110	54.040	-1.900	0.400																			1580007379.0	7.00	12.96
26/01/2020 02:56:20	26012020	260120	025620	54.030	12.423863	-57.624927	53.960	0.510	-0.750	-0.220	54.010	-2.100	0.200																			1580007380.0	7.26	13.45
26/01/2020 02:56:21	26012020	260120	025621	53.970	12.423883	-57.624900	53.900	0.490	-0.390	-0.140	53.960	-2.000	0.200																			1580007381.0	7.14	13.22
26/01/2020 02:56:22	26012020	260120	025622	53.900	12.423903	-57.624875	53.820	0.130	0.140	0.000	53.890	-1.500	0.300																			1580007382.0	6.74	12.48
26/01/2020 02:56:23	26012020	260120	025623	53.840	12.423922	-57.624850	53.830	-0.290	0.410	0.080	53.830	-1.000	0.400																			1580007383.0	6.38	11.82
26/01/2020 02:56:24	26012020	260120	025624	53.860	12.423940	-57.624827	53.940	-0.480	0.210	0.210	53.870	-1.000	0.500																			1580007384.0	6.38	11.82
26/01/2020 02:56:25	26012020	260120	025625	53.980	12.423958	-57.624802	54.140	-0.330	-0.350	0.310	54.010	-1.400	0.600																			1580007385.0	6.75	12.50
26/01/2020 02:56:26	26012020	260120	025626	54.150	12.423978	-57.624773	54.220	-0.060	-0.690	0.480	54.180	-2.000	0.700																			1580007386.0	7.26	13.45
26/01/2020 02:56:27	26012020	260120	025627	54.200	12.423997	-57.624743	54.110	0.050	-0.440	0.740	54.180	-2.000	1.000																			1580007387.0	7.47	13.83
26/01/2020 02:56:28	26012020	260120	025628	54.060	12.424013	-57.624715	53.950	0.030	0.090	0.940	54.030	-1.500	1.200																			1580007388.0	7.02	13.00
26/01/2020 02:56:29	26012020	260120	025629	53.900	12.424028	-57.624688	53.860	0.100	0.230	0.820	53.880	-1.100	1.300																			1580007389.0	6.39	11.83
26/01/2020 02:56:30	26012020	260120	025630	53.850	12.424047	-57.624665	53.900	0.310	-0.050	0.370	53.860	-1.300	1.000																			1580007390.0	6.41	11.87
26/01/2020 02:56:31	26012020	260120	025631	53.920	12.424068	-57.624640	53.940	0.430	-0.330	-0.120	53.930	-1.600	0.500																			1580007391.0	7.03	13.02
26/01/2020 02:56:32	26012020	260120	025632	53.940	12.424092	-57.624613	53.870	0.290	-0.320	-0.400	53.930	-1.700	0.100																			1580007392.0	7.33	13.58
26/01/2020 02:56:33	26012020	260120	025633	53.880	12.424113	-57.624588	53.770	-0.040	-0.150	-0.500	53.860	-1.600	-0.100																			1580007393.0	7.10	13.15
26/01/2020 02:56:34	26012020	260120	025634	53.760	12.424133	-57.624565	53.670	-0.330	-0.020	-0.370	53.740	-1.400	-0.100																			1580007394.0	6.79	12.58
26/01/2020 02:56:35	26012020	260120	025635	53.680	12.424153	-57.624540	53.630	-0.400	-0.090	-0.030	53.660	-1.400	0.200																			1580007395.0	6.71	12.43
26/01/2020 02:56:36	26012020	260120	025636	53.640	12.424170	-57.624512	53.720	-0.260	-0.330	0.370	53.650	-1.600	0.600																			1580007396.0	6.87	12.72
26/01/2020 02:56:37	26012020	260120	025637	53.750	12.424188	-57.624483	53.890	-0.060	-0.450	0.640	53.780	-1.800	0.900																			1580007397.0	7.16	13.26
26/01/2020 02:56:38	26012020	260120	025638	53.900	12.424205	-57.624453	53.950	0.010	-0.090	0.870	53.920	-1.700	1.100																			1580007398.0	7.30	13.52
26/01/2020 02:56:39	26012020	260120	025639	53.920	12.424222	-57.624425	53.850	-0.080	0.440	1.080	53.910	-1.200	1.400																			1580007399.0	6.94	12.85
26/01/2020 02:56:40	26012020	260120	025640	53.790	12.424238	-57.624400	53.700	-0.080	0.420	0.980	53.760	-0.900	1.500																			1580007400.0	6.41	11.87
26/01/2020 02:56:41	26012020	260120	025641	53.670	12.424257	-57.624377	53.720	0.210	-0.370	0.440	53.670	-1.300	1.100																			1580007401.0	6.45	11.95
26/01/2020 02:56:42	26012020	260120	025642	53.730	12.424278	-57.624350	53.830	0.610	-1.160	-0.100	53.760	-2.200	0.500																			1580007402.0	7.29	13.50
26/01/2020 02:56:43	26012020	260120	025643	53.820	12.424305	-57.624323	53.790	0.660	-0.980	-0.300	53.820	-2.600	0.100																			1580007403.0	8.02	14.85
26/01/2020 02:56:44	26012020	260120	025644	53.780	12.424328	-57.624295	53.730	0.210	-0.040	-0.190	53.760	-1.900	0.100																			1580007404.0	7.59	14.06
26/01/2020 02:56:45	26012020	260120	025645	53.720	12.424347	-57.624272	53.750	-0.370	0.700	0.050	53.710	-1.000	0.300																			1580007405.0	6.48	12.00
26/01/2020 02:56:46	26012020	260120	025646	53.740	12.424363	-57.624248	53.840	-0.690	0.740	0.280	53.760	-0.600	0.600																			1580007406.0	6.08	11.26
26/01/2020 02:56:47	26012020	260120	025647	53.830	12.424380	-57.624222	53.960	-0.650	0.200	0.400	53.860	-0.900	0.700																			1580007407.0	6.60	12.22
26/01/2020 02:56:48	26012020	260120	025648	53.980	12.424397	-57.624193	54.030	-0.360	-0.450	0.490	53.990	-1.500	0.800																			1580007408.0	7.22	13.37
26/01/2020 02:56:49	26012020	260120	025649	54.010	12.424417	-57.624163	54.000	-0.000	-0.750	0.640	54.010	-2.000	0.900																			1580007409.0	7.56	14.00
26/01/2020 02:56:50	26012020	260120	025650	53.970	12.424435	-57.624133	53.940	0.270	-0.630	0.700	53.960	-2.100	1.100																			1580007410.0	7.47	13.83
26/01/2020 02:56:51	26012020	260120	025651	53.900	12.424455	-57.624107	53.860	0.400	-0.330	0.550	53.890	-1.900	1.000																			1580007411.0	7.06	13.08
26/01/2020 02:56:52	26012020	260120	025652	53.830	12.424473	-57.624082	53.800	0.440	-0.110	0.290	53.820	-1.600	0.800																			1580007412.0	6.80	12.59
26/01/2020 02:56:53	26012020	260120	025653	53.800	12.424495	-57.624057	53.840	0.390	-0.040	0.020	53.810	-1.400	0.500																			1580007413.0	6.84	12.67
26/01/2020 02:56:54	26012020	260120	025654	53.850	12.424517	-57.624032	53.910	0.180	0.010	-0.170	53.860	-1.400	0.300																			1580007414.0	7.07	13.09
26/01/2020 02:56:55	26012020	260120	025655	53.920	12.424538	-57.624005	53.990	-0.160	0.100	-0.230	53.930	-1.300	0.200																			1580007415.0	7.18	13.30
26/01/2020 02:56:56	26012020	260120	025656	53.980	12.424558	-57.623980	54.010	-0.470	0.130	-0.090	53.990	-1.300	0.200																			1580007416.0	7.03	13.02
26/01/2020 02:56:57	26012020	260120	025657	54.000	12.424577	-57.623953	53.970	-0.530	-0.010	0.220	53.990	-1.300	0.400																			1580007417.0	6.94	12.85
26/01/2020 02:56:58	26012020	260120	025658	53.950	12.424595	-57.623925	53.930	-0.330	-0.300	0.580	53.940	-1.500	0.800																			1580007418.0	7.05	13.06
26/01/2020 02:56:59	26012020	260120	025659	53.900	12.424612	-57.623895	53.950	0.050	-0.610	0.740	53.900	-1.900	1.100	1015.20	25.70	25.70	20.90	20.90	-1.00	74.00	74.00	391.00	24.80	358.00	8.70	50.00	5.10	14	3386.00	27.40	27.40	1580007419.0	7.24	13.41
26/01/2020 02:57:00	26012020	260120	025700	53.930	12.424630	-57.623865	54.000	0.350	-0.570	0.700	53.950	-2.000	1.100																			1580007420.0	7.44	13.78
26/01/2020 02:57:01	26012020	260120	025701	53.980	12.424650	-57.623837	53.940	0.350	-0.100	0.600	53.980	-1.700	1.000																			1580007421.0	7.37	13.65
26/01/2020 02:57:02	26012020	260120	025702	53.890	12.424670	-57.623812	53.810	0.110	0.330	0.440	53.870	-1.200	0.900																			1580007422.0	6.90	12.78
26/01/2020 02:57:03	26012020	260120	025703	53.780	12.424688	-57.623787	53.790	-0.130	0.280	0.150	53.770	-1.000	0.700																			1580007423.0	6.58	12.19
26/01/2020 02:57:04	26012020	260120	025704	53.810	12.424710	-57.623762	53.940	-0.170	-0.170	-0.230	53.840	-1.300	0.300																			1580007424.0	6.84	12.67
26/01/2020 02:57:05	26012020	260120	025705	53.990	12.424732	-57.623735	54.060	-0.050	-0.560	-0.390	54.030	-1.800	0.000																			1580007425.0	7.37	13.65
26/01/2020 02:57:06	26012020	260120	025706	54.080	12.424755	-57.623708	53.980	0.070	-0.530	-0.100	54.060	-2.000	0.100																			1580007426.0	7.61	14.09
26/01/2020 02:57:07	26012020	260120	025707	53.940	12.424773	-57.623678	53.770	0.090	-0.200	0.370	53.900	-1.800	0.500																			1580007427.0	7.38	13.67
26/01/2020 02:57:08	26012020	260120	025708	53.730	12.424790	-57.623650	53.630	0.060	-0.030	0.680	53.690	-1.400	0.900																			1580007428.0	6.98	12.93
26/01/2020 02:57:09	26012020	260120	025709	53.600	12.424807	-57.623623	53.660	0.080	-0.190	0.620	53.600	-1.500	1.100																			1580007429.0	6.91	12.80
26/01/2020 02:57:10	26012020	260120	025710	53.670	12.424827	-57.623595	53.790	0.150	-0.370	0.340	53.710	-1.700	0.800																			1580007430.0	7.25	13.43
26/01/2020 02:57:11	26012020	260120	025711	53.830	12.424850	-57.623568	53.920	0.140	-0.110	0.250	53.860	-1.700	0.600																			1580007431.0	7.55	13.98
26/01/2020 02:57:12	26012020	260120	025712	53.940	12.424872	-57.623542	53.970	-0.110	0.470	0.390	53.950	-1.200	0.700																			1580007432.0	7.34	13.59
26/01/2020 02:57:13	26012020	260120	025713	53.970	12.424890	-57.623515	53.950	-0.460	0.620	0.570	53.970	-0.700	0.900																			1580007433.0	6.71	12.43
26/01/2020 02:57:14	26012020	260120	025714	53.930	12.424907	-57.623488	53.900	-0.550	-0.030	0.610	53.920	-1.000	1.000																			1580007434.0	6.54	12.11
26/01/2020 02:57:15	26012020	260120	025715	53.900	12.424925	-57.623462	53.910	-0.220	-0.880	0.540	53.900	-1.900	1.000																			1580007435.0	7.19	13.32
26/01/2020 02:57:16	26012020	260120	025716	53.920	12.424947	-57.623430	53.900	0.250	-1.090	0.500	53.920	-2.500	0.900																			1580007436.0	7.92	14.67
26/01/2020 02:57:17	26012020	260120	025717	53.880	12.424968	-57.623400	53.780	0.480	-0.590	0.570	53.860	-2.300	0.900																			1580007437.0	7.79	14.43
26/01/2020 02:57:18	26012020	260120	025718	53.740	12.424987	-57.623373	53.720	0.330	0.080	0.470	53.720	-1.600	0.900																			1580007438.0	7.12	13.19
26/01/2020 02:57:19	26012020	260120	025719	53.710	12.425007	-57.623348	53.860	0.010	0.400	0.050	53.730	-1.100	0.600																			1580007439.0	6.66	12.33
26/01/2020 02:57:20	26012020	260120	025720	53.890	12.425027	-57.623325	54.090	-0.160	0.270	-0.310	53.940	-1.000	0.200																			1580007440.0	6.75	12.50
26/01/2020 02:57:21	26012020	260120	025721	54.100	12.425048	-57.623298	54.180	-0.080	-0.140	-0.300	54.120	-1.300	0.000																			1580007441.0	7.15	13.24
26/01/2020 02:57:22	26012020	260120	025722	54.160	12.425070	-57.623270	54.090	0.080	-0.470	-0.050	54.140	-1.700	0.200																			1580007442.0	7.51	13.91
26/01/2020 02:57:23	26012020	260120	025723	54.060	12.425090	-57.623240	53.930	0.090	-0.470	0.210	54.030	-1.900	0.500																			1580007443.0	7.71	14.28
26/01/2020 02:57:24	26012020	260120	025724	53.890	12.425110	-57.623212	53.950	-0.020	-0.170	0.370	53.890	-1.700	0.700																			1580007444.0	7.47	13.83
26/01/2020 02:57:25	26012020	260120	025725	53.940	12.425128	-57.623183	54.060	-0.160	0.140	0.440	53.970	-1.400	0.800																			1580007445.0	7.09	13.13
26/01/2020 02:57:26	26012020	260120	025726	54.050	12.425147	-57.623157	54.100	-0.190	0.130	0.500	54.060	-1.200	0.800																			1580007446.0	6.85	12.69
26/01/2020 02:57:27	26012020	260120	025727	54.060	12.425165	-57.623130	54.050	-0.040	-0.230	0.610	54.050	-1.400	0.900																			1580007447.0	6.98	12.93
26/01/2020 02:57:28	26012020	260120	025728	54.000	12.425185	-57.623102	54.050	0.130	-0.520	0.630	54.000	-1.800	1.000																			1580007448.0	7.44	13.78
26/01/2020 02:57:29	26012020	260120	025729	54.030	12.425205	-57.623072	54.140	0.110	-0.350	0.560	54.040	-1.900	1.000																			1580007449.0	7.71	14.28
26/01/2020 02:57:30	26012020	260120	025730	54.120	12.425227	-57.623043	54.180	-0.110	0.150	0.420	54.140	-1.500	0.900																			1580007450.0	7.42	13.74
26/01/2020 02:57:31	26012020	260120	025731	54.140	12.425245	-57.623017	54.110	-0.270	0.370	0.270	54.130	-1.000	0.700																			1580007451.0	6.84	12.67
26/01/2020 02:57:32	26012020	260120	025732	54.050	12.425263	-57.622992	54.040	-0.150	-0.080	0.200	54.030	-1.200	0.600																			1580007452.0	6.68	12.37
26/01/2020 02:57:33	26012020	260120	025733	54.000	12.425285	-57.622965	54.100	0.150	-0.760	0.120	54.010	-1.900	0.500																			1580007453.0	7.26	13.45
26/01/2020 02:57:34	26012020	260120	025734	54.100	12.425307	-57.622935	54.220	0.360	-0.930	0.020	54.130	-2.300	0.400																			1580007454.0	7.93	14.69
26/01/2020 02:57:35	26012020	260120	025735	54.220	12.425328	-57.622905	54.240	0.310	-0.340	0.100	54.230	-2.100	0.400																			1580007455.0	7.89	14.61
26/01/2020 02:57:36	26012020	260120	025736	54.210	12.425348	-57.622877	54.160	0.020	0.510	0.330	54.200	-1.300	0.600																			1580007456.0	7.20	13.33
26/01/2020 02:57:37	26012020	260120	025737	54.140	12.425365	-57.622852	54.120	-0.300	0.820	0.450	54.120	-0.600	0.800																			1580007457.0	6.52	12.08
26/01/2020 02:57:38	26012020	260120	025738	54.080	12.425383	-57.622827	54.160	-0.310	0.230	0.360	54.090	-0.800	0.800																			1580007458.0	6.53	12.09
26/01/2020 02:57:39	26012020	260120	025739	54.120	12.425403	-57.622798	54.170	-0.020	-0.740	0.250	54.130	-1.700	0.700																			1580007459.0	7.26	13.45
26/01/2020 02:57:40	26012020	260120	025740	54.120	12.425425	-57.622768	54.110	0.240	-1.140	0.320	54.110	-2.400	0.600																			1580007460.0	8.10	15.00
26/01/2020 02:57:41	26012020	260120	025741	54.080	12.425448	-57.622738	54.150	0.190	-0.710	0.490	54.080	-2.400	0.800																			1580007461.0	8.12	15.04
26/01/2020 02:57:42	26012020	260120	025742	54.130	12.425467	-57.622710	54.280	-0.040	0.030	0.610	54.150	-1.700	0.900																			1580007462.0	7.32	13.56
26/01/2020 02:57:43	26012020	260120	025743	54.270	12.425485	-57.622683	54.380	-0.250	0.570	0.680	54.290	-1.000	1.000																			1580007463.0	6.69	12.39
26/01/2020 02:57:44	26012020	260120	025744	54.320	12.425502	-57.622657	54.260	-0.320	0.630	0.660	54.300	-0.700	1.100																			1580007464.0	6.68	12.37
26/01/2020 02:57:45	26012020	260120	025745	54.180	12.425520	-57.622630	54.080	-0.170	0.070	0.510	54.150	-1.000	1.000																			1580007465.0	6.96	12.89
26/01/2020 02:57:46	26012020	260120	025746	54.010	12.425540	-57.622602	53.990	0.140	-0.670	0.290	53.990	-1.700	0.800																			1580007466.0	7.46	13.82
26/01/2020 02:57:47	26012020	260120	025747	53.960	12.425563	-57.622572	54.010	0.360	-0.910	0.010	53.970	-2.300	0.500																			1580007467.0	7.97	14.76
26/01/2020 02:57:48	26012020	260120	025748	54.020	12.425587	-57.622542	54.110	0.310	-0.510	-0.240	54.040	-2.100	0.200																			1580007468.0	7.90	14.63
26/01/2020 02:57:49	26012020	260120	025749	54.090	12.425608	-57.622515	54.150	0.100	0.050	-0.290	54.110	-1.600	0.100																			1580007469.0	7.24	13.41
26/01/2020 02:57:50	26012020	260120	025750	54.160	12.425628	-57.622492	54.130	-0.120	0.320	-0.100	54.160	-1.100	0.200																			1580007470.0	6.79	12.58
26/01/2020 02:57:51	26012020	260120	025751	54.140	12.425647	-57.622465	54.030	-0.270	0.240	0.280	54.120	-1.100	0.500																			1580007471.0	6.90	12.78
26/01/2020 02:57:52	26012020	260120	025752	53.990	12.425665	-57.622437	53.980	-0.290	-0.040	0.590	53.980	-1.300	0.800																			1580007472.0	7.26	13.45
26/01/2020 02:57:53	26012020	260120	025753	53.980	12.425683	-57.622405	54.090	-0.190	-0.330	0.730	53.990	-1.600	1.000																			1580007473.0	7.52	13.93
26/01/2020 02:57:54	26012020	260120	025754	54.080	12.425703	-57.622375	54.140	-0.060	-0.450	0.830	54.100	-1.800	1.200																			1580007474.0	7.60	14.08
26/01/2020 02:57:55	26012020	260120	025755	54.110	12.425722	-57.622345	54.110	0.040	-0.390	0.860	54.100	-1.800	1.200																			1580007475.0	7.51	13.91
26/01/2020 02:57:56	26012020	260120	025756	54.060	12.425740	-57.622317	54.040	0.180	-0.310	0.850	54.050	-1.700	1.200																			1580007476.0	7.30	13.52
26/01/2020 02:57:57	26012020	260120	025757	53.980	12.425760	-57.622288	53.890	0.330	-0.230	0.760	53.950	-1.700	1.200																			1580007477.0	7.24	13.41
26/01/2020 02:57:58	26012020	260120	025758	53.830	12.425782	-57.622262	53.730	0.380	-0.170	0.460	53.800	-1.600	1.000																			1580007478.0	7.34	13.59
26/01/2020 02:57:59	26012020	260120	025759	53.680	12.425803	-57.622235	53.600	0.240	-0.070	0.060	53.660	-1.500	0.600	1015.20	25.70	25.80	20.80	20.90	-1.00	74.00	74.00	391.00	24.80	355.00	8.90	45.00	5.20	14	3300.00	27.40	27.40	1580007479.0	7.42	13.74
26/01/2020 02:58:00	26012020	260120	025800	53.590	12.425827	-57.622208	53.610	-0.050	0.110	-0.170	53.590	-1.400	0.300																			1580007480.0	7.47	13.83
26/01/2020 02:58:01	26012020	260120	025801	53.610	12.425848	-57.622182	53.760	-0.290	0.120	-0.310	53.640	-1.200	0.100																			1580007481.0	7.31	13.54
26/01/2020 02:58:02	26012020	260120	025802	53.810	12.425870	-57.622155	54.030	-0.320	-0.110	-0.370	53.870	-1.400	0.000																			1580007482.0	7.21	13.35
26/01/2020 02:58:03	26012020	260120	025803	54.070	12.425890	-57.622127	54.110	-0.230	-0.300	-0.100	54.100	-1.600	0.100																			1580007483.0	7.47	13.83
26/01/2020 02:58:04	26012020	260120	025804	54.090	12.425908	-57.622097	53.940	-0.140	-0.320	0.430	54.060	-1.700	0.500																			1580007484.0	7.63	14.13
26/01/2020 02:58:05	26012020	260120	025805	53.880	12.425927	-57.622067	53.750	-0.060	-0.230	0.880	53.840	-1.700	1.100																			1580007485.0	7.50	13.89
26/01/2020 02:58:06	26012020	260120	025806	53.710	12.425945	-57.622037	53.740	-0.010	-0.060	0.960	53.700	-1.500	1.300																			1580007486.0	7.38	13.67
26/01/2020 02:58:07	26012020	260120	025807	53.750	12.425965	-57.622008	53.910	0.050	0.070	0.800	53.780	-1.400	1.300																			1580007487.0	7.27	13.46
26/01/2020 02:58:08	26012020	260120	025808	53.920	12.425985	-57.621980	54.000	0.190	-0.070	0.590	53.950	-1.300	1.100																			1580007488.0	7.14	13.22
26/01/2020 02:58:09	26012020	260120	025809	53.990	12.426005	-57.621953	53.920	0.360	-0.420	0.430	53.990	-1.600	0.900																			1580007489.0	7.27	13.46
26/01/2020 02:58:10	26012020	260120	025810	53.890	12.426027	-57.621925	53.800	0.430	-0.680	0.240	53.860	-2.000	0.700																			1580007490.0	7.63	14.13
26/01/2020 02:58:11	26012020	260120	025811	53.780	12.426048	-57.621895	53.770	0.300	-0.540	0.030	53.770	-2.000	0.500																			1580007491.0	7.83	14.50
26/01/2020 02:58:12	26012020	260120	025812	53.790	12.426072	-57.621868	53.850	-0.020	-0.070	-0.100	53.800	-1.700	0.300																			1580007492.0	7.67	14.20
26/01/2020 02:58:13	26012020	260120	025813	53.860	12.426093	-57.621842	53.890	-0.320	0.390	-0.090	53.870	-1.200	0.300																			1580007493.0	7.27	13.46
26/01/2020 02:58:14	26012020	260120	025814	53.920	12.426115	-57.621817	53.900	-0.430	0.430	0.150	53.920	-0.900	0.400																			1580007494.0	7.00	12.96
26/01/2020 02:58:15	26012020	260120	025815	53.920	12.426133	-57.621788	53.970	-0.310	-0.070	0.480	53.920	-1.200	0.700																			1580007495.0	7.13	13.20
26/01/2020 02:58:16	26012020	260120	025816	53.970	12.426150	-57.621757	54.020	-0.100	-0.620	0.710	53.980	-1.800	1.000																			1580007496.0	7.67	14.20
26/01/2020 02:58:17	26012020	260120	025817	54.000	12.426170	-57.621723	53.940	0.040	-0.640	0.860	54.000	-2.100	1.200																			1580007497.0	8.09	14.98
26/01/2020 02:58:18	26012020	260120	025818	53.920	12.426190	-57.621692	53.850	0.040	-0.100	0.840	53.900	-1.800	1.300																			1580007498.0	7.87	14.58
26/01/2020 02:58:19	26012020	260120	025819	53.840	12.426210	-57.621665	53.870	0.000	0.320	0.540	53.840	-1.200	1.100																			1580007499.0	7.17	13.28
26/01/2020 02:58:20	26012020	260120	025820	53.880	12.426230	-57.621640	53.930	0.090	0.190	0.130	53.890	-1.100	0.700																			1580007500.0	6.83	12.65
26/01/2020 02:58:21	26012020	260120	025821	53.940	12.426252	-57.621615	53.980	0.280	-0.310	-0.200	53.950	-1.400	0.300																			1580007501.0	7.24	13.41
26/01/2020 02:58:22	26012020	260120	025822	53.970	12.426275	-57.621587	53.940	0.360	-0.660	-0.300	53.970	-1.900	0.100																			1580007502.0	7.81	14.46
26/01/2020 02:58:23	26012020	260120	025823	53.920	12.426298	-57.621557	53.840	0.180	-0.550	-0.120	53.900	-2.000	0.200																			1580007503.0	7.99	14.80
26/01/2020 02:58:24	26012020	260120	025824	53.810	12.426320	-57.621528	53.800	-0.140	-0.120	0.050	53.790	-1.700	0.400																			1580007504.0	7.66	14.19
26/01/2020 02:58:25	26012020	260120	025825	53.780	12.426340	-57.621500	53.860	-0.330	0.180	0.190	53.780	-1.300	0.500																			1580007505.0	7.19	13.32
26/01/2020 02:58:26	26012020	260120	025826	53.830	12.426358	-57.621473	53.900	-0.270	0.150	0.490	53.840	-1.200	0.700																			1580007506.0	7.07	13.09
26/01/2020 02:58:27	26012020	260120	025827	53.860	12.426377	-57.621443	53.900	-0.100	-0.140	0.770	53.870	-1.400	1.000																			1580007507.0	7.38	13.67
26/01/2020 02:58:28	26012020	260120	025828	53.840	12.426397	-57.621412	53.790	0.000	-0.350	0.930	53.820	-1.700	1.200																			1580007508.0	7.74	14.33
26/01/2020 02:58:29	26012020	260120	025829	53.710	12.426415	-57.621382	53.670	-0.020	-0.260	0.920	53.690	-1.700	1.300																			1580007509.0	7.86	14.56
26/01/2020 02:58:30	26012020	260120	025830	53.610	12.426437	-57.621352	53.700	-0.040	-0.080	0.760	53.610	-1.500	1.200																			1580007510.0	7.58	14.04
26/01/2020 02:58:31	26012020	260120	025831	53.670	12.426457	-57.621325	53.790	0.120	-0.190	0.420	53.700	-1.500	1.000																			1580007511.0	7.25	13.43
26/01/2020 02:58:32	26012020	260120	025832	53.780	12.426478	-57.621297	53.780	0.340	-0.370	0.110	53.780	-1.700	0.600																			1580007512.0	7.41	13.72
26/01/2020 02:58:33	26012020	260120	025833	53.730	12.426502	-57.621268	53.650	0.360	-0.230	-0.040	53.710	-1.700	0.400																			1580007513.0	7.80	14.45
26/01/2020 02:58:34	26012020	260120	025834	53.600	12.426525	-57.621242	53.550	0.100	0.070	-0.030	53.580	-1.400	0.300																			1580007514.0	7.67	14.20
26/01/2020 02:58:35	26012020	260120	025835	53.530	12.426545	-57.621215	53.580	-0.190	0.120	-0.060	53.530	-1.200	0.400																			1580007515.0	7.25	13.43
26/01/2020 02:58:36	26012020	260120	025836	53.590	12.426565	-57.621187	53.720	-0.290	-0.150	-0.110	53.610	-1.400	0.300																			1580007516.0	7.23	13.39
26/01/2020 02:58:37	26012020	260120	025837	53.720	12.426587	-57.621158	53.800	-0.210	-0.350	0.110	53.750	-1.700	0.300																			1580007517.0	7.62	14.11
26/01/2020 02:58:38	26012020	260120	025838	53.780	12.426608	-57.621128	53.770	-0.090	-0.270	0.600	53.770	-1.700	0.700																			1580007518.0	7.84	14.52
26/01/2020 02:58:39	26012020	260120	025839	53.720	12.426628	-57.621098	53.740	-0.040	-0.110	0.970	53.710	-1.600	1.200																			1580007519.0	7.63	14.13
26/01/2020 02:58:40	26012020	260120	025840	53.700	12.426645	-57.621068	53.780	-0.050	-0.100	1.020	53.710	-1.500	1.400																			1580007520.0	7.36	13.63
26/01/2020 02:58:41	26012020	260120	025841	53.750	12.426663	-57.621038	53.740	-0.050	-0.200	0.910	53.750	-1.500	1.400																			1580007521.0	7.39	13.69
26/01/2020 02:58:42	26012020	260120	025842	53.690	12.426683	-57.621008	53.580	-0.030	-0.220	0.670	53.660	-1.600	1.200																			1580007522.0	7.57	14.02
26/01/2020 02:58:43	26012020	260120	025843	53.520	12.426705	-57.620982	53.450	0.120	-0.320	0.330	53.490	-1.600	0.900																			1580007523.0	7.59	14.06
26/01/2020 02:58:44	26012020	260120	025844	53.430	12.426728	-57.620953	53.470	0.390	-0.510	-0.070	53.430	-1.800	0.500																			1580007524.0	7.61	14.09
26/01/2020 02:58:45	26012020	260120	025845	53.490	12.426753	-57.620927	53.560	0.460	-0.350	-0.290	53.500	-1.900	0.200																			1580007525.0	7.88	14.59
26/01/2020 02:58:46	26012020	260120	025846	53.550	12.426778	-57.620898	53.580	0.130	0.220	-0.330	53.560	-1.500	0.000																			1580007526.0	7.86	14.56
26/01/2020 02:58:47	26012020	260120	025847	53.590	12.426798	-57.620872	53.680	-0.400	0.610	-0.230	53.600	-0.900	0.100																			1580007527.0	7.27	13.46
26/01/2020 02:58:48	26012020	260120	025848	53.710	12.426817	-57.620845	53.900	-0.680	0.390	-0.080	53.750	-0.800	0.200																			1580007528.0	6.90	12.78
26/01/2020 02:58:49	26012020	260120	025849	53.900	12.426837	-57.620817	53.960	-0.470	-0.250	0.200	53.930	-1.300	0.400																			1580007529.0	7.25	13.43
26/01/2020 02:58:50	26012020	260120	025850	53.930	12.426857	-57.620785	53.780	-0.000	-0.770	0.630	53.900	-1.900	0.800																			1580007530.0	7.88	14.59
26/01/2020 02:58:51	26012020	260120	025851	53.730	12.426877	-57.620753	53.590	0.370	-0.910	0.970	53.690	-2.300	1.200																			1580007531.0	8.12	15.04
26/01/2020 02:58:52	26012020	260120	025852	53.540	12.426895	-57.620722	53.540	0.460	-0.650	1.030	53.530	-2.200	1.400																			1580007532.0	7.92	14.67
26/01/2020 02:58:53	26012020	260120	025853	53.530	12.426917	-57.620692	53.600	0.290	-0.150	0.730	53.550	-1.800	1.300																			1580007533.0	7.55	13.98
26/01/2020 02:58:54	26012020	260120	025854	53.620	12.426937	-57.620665	53.670	0.050	0.350	0.300	53.640	-1.200	0.900																			1580007534.0	7.26	13.45
26/01/2020 02:58:55	26012020	260120	025855	53.670	12.426960	-57.620640	53.660	-0.120	0.440	0.050	53.670	-0.900	0.500																			1580007535.0	7.15	13.24
26/01/2020 02:58:56	26012020	260120	025856	53.660	12.426982	-57.620613	53.650	-0.240	0.130	-0.050	53.650	-1.100	0.400																			1580007536.0	7.32	13.56
26/01/2020 02:58:57	26012020	260120	025857	53.650	12.427003	-57.620585	53.680	-0.350	-0.210	-0.080	53.650	-1.500	0.300																			1580007537.0	7.73	14.32
26/01/2020 02:58:58	26012020	260120	025858	53.680	12.427025	-57.620555	53.690	-0.350	-0.280	0.020	53.680	-1.600	0.300																			1580007538.0	7.92	14.67
26/01/2020 02:58:59	26012020	260120	025859	53.680	12.427047	-57.620525	53.670	-0.140	-0.340	0.200	53.670	-1.700	0.500	1015.20	25.70	25.80	20.90	20.90	-1.00	74.00	74.00	391.00	24.90	360.00	8.90	54.00	5.00	14	3374.00	27.40	27.40	1580007539.0	7.66	14.19
26/01/2020 02:59:00	26012020	260120	025900	53.650	12.427065	-57.620495	53.630	0.220	-0.540	0.320	53.640	-1.800	0.600																			1580007540.0	7.47	13.83
26/01/2020 02:59:01	26012020	260120	025901	53.590	12.427087	-57.620465	53.560	0.460	-0.550	0.340	53.580	-2.000	0.700																			1580007541.0	7.72	14.30
26/01/2020 02:59:02	26012020	260120	025902	53.530	12.427107	-57.620435	53.520	0.340	-0.140	0.330	53.510	-1.800	0.700																			1580007542.0	7.86	14.56
26/01/2020 02:59:03	26012020	260120	025903	53.500	12.427128	-57.620407	53.620	0.000	0.300	0.260	53.510	-1.300	0.700																			1580007543.0	7.46	13.82
26/01/2020 02:59:04	26012020	260120	025904	53.610	12.427148	-57.620382	53.760	-0.160	0.290	0.150	53.650	-1.000	0.600																			1580007544.0	7.06	13.08
26/01/2020 02:59:05	26012020	260120	025905	53.750	12.427170	-57.620355	53.790	-0.050	-0.100	0.160	53.760	-1.300	0.500																			1580007545.0	7.25	13.43
26/01/2020 02:59:06	26012020	260120	025906	53.750	12.427193	-57.620325	53.640	0.080	-0.450	0.370	53.720	-1.700	0.600																			1580007546.0	7.82	14.48
26/01/2020 02:59:07	26012020	260120	025907	53.560	12.427215	-57.620295	53.430	0.060	-0.510	0.660	53.520	-1.900	0.900																			1580007547.0	8.01	14.83
26/01/2020 02:59:08	26012020	260120	025908	53.370	12.427235	-57.620263	53.350	-0.120	-0.260	0.820	53.340	-1.800	1.100																			1580007548.0	7.81	14.46
26/01/2020 02:59:09	26012020	260120	025909	53.310	12.427253	-57.620235	53.410	-0.340	0.070	0.700	53.310	-1.400	1.200																			1580007549.0	7.46	13.82
26/01/2020 02:59:10	26012020	260120	025910	53.370	12.427273	-57.620207	53.460	-0.350	0.060	0.460	53.380	-1.300	1.000																			1580007550.0	7.17	13.28
26/01/2020 02:59:11	26012020	260120	025911	53.420	12.427293	-57.620180	53.510	-0.030	-0.360	0.190	53.430	-1.500	0.700																			1580007551.0	7.27	13.46
26/01/2020 02:59:12	26012020	260120	025912	53.480	12.427317	-57.620150	53.570	0.360	-0.620	-0.050	53.500	-1.900	0.400																			1580007552.0	7.84	14.52
26/01/2020 02:59:13	26012020	260120	025913	53.530	12.427340	-57.620122	53.480	0.470	-0.320	-0.070	53.530	-1.900	0.300																			1580007553.0	8.17	15.13
26/01/2020 02:59:14	26012020	260120	025914	53.440	12.427363	-57.620092	53.340	0.200	0.250	0.060	53.420	-1.400	0.400																			1580007554.0	7.78	14.41
26/01/2020 02:59:15	26012020	260120	025915	53.310	12.427383	-57.620065	53.330	-0.180	0.510	0.080	53.300	-0.900	0.500																			1580007555.0	7.14	13.22
26/01/2020 02:59:16	26012020	260120	025916	53.320	12.427403	-57.620038	53.450	-0.320	0.190	0.030	53.340	-1.000	0.400																			1580007556.0	7.00	12.96
26/01/2020 02:59:17	26012020	260120	025917	53.430	12.427423	-57.620012	53.570	-0.090	-0.460	0.060	53.470	-1.500	0.400																			1580007557.0	7.41	13.72
26/01/2020 02:59:18	26012020	260120	025918	53.550	12.427447	-57.619982	53.530	0.190	-0.800	0.260	53.550	-2.100	0.500																			1580007558.0	7.99	14.80
26/01/2020 02:59:19	26012020	260120	025919	53.500	12.427468	-57.619948	53.380	0.170	-0.520	0.540	53.470	-2.100	0.800																			1580007559.0	8.18	15.15
26/01/2020 02:59:20	26012020	260120	025920	53.330	12.427488	-57.619920	53.270	-0.090	-0.040	0.780	53.310	-1.600	1.100																			1580007560.0	7.65	14.17
26/01/2020 02:59:21	26012020	260120	025921	53.220	12.427507	-57.619892	53.260	-0.260	0.150	0.730	53.210	-1.300	1.200																			1580007561.0	7.10	13.15
26/01/2020 02:59:22	26012020	260120	025922	53.250	12.427527	-57.619865	53.390	-0.110	-0.090	0.450	53.270	-1.300	1.000																			1580007562.0	7.13	13.20
26/01/2020 02:59:23	26012020	260120	025923	53.360	12.427548	-57.619837	53.390	0.180	-0.340	0.330	53.370	-1.600	0.700																			1580007563.0	7.63	14.13
26/01/2020 02:59:24	26012020	260120	025924	53.330	12.427572	-57.619807	53.280	0.280	-0.300	0.390	53.310	-1.700	0.700																			1580007564.0	7.98	14.78
26/01/2020 02:59:25	26012020	260120	025925	53.220	12.427593	-57.619777	53.250	0.110	-0.100	0.390	53.210	-1.600	0.800																			1580007565.0	7.81	14.46
26/01/2020 02:59:26	26012020	260120	025926	53.230	12.427615	-57.619748	53.380	-0.120	-0.010	0.150	53.260	-1.400	0.700																			1580007566.0	7.44	13.78
26/01/2020 02:59:27	26012020	260120	025927	53.400	12.427635	-57.619722	53.480	-0.170	-0.050	-0.050	53.430	-1.400	0.400																			1580007567.0	7.39	13.69
26/01/2020 02:59:28	26012020	260120	025928	53.470	12.427658	-57.619693	53.440	-0.040	-0.080	0.000	53.470	-1.500	0.300																			1580007568.0	7.57	14.02
26/01/2020 02:59:29	26012020	260120	025929	53.430	12.427680	-57.619665	53.440	0.080	-0.110	0.220	53.420	-1.500	0.500																			1580007569.0	7.68	14.22
26/01/2020 02:59:30	26012020	260120	025930	53.430	12.427700	-57.619637	53.500	0.120	-0.230	0.340	53.440	-1.500	0.700																			1580007570.0	7.62	14.11
26/01/2020 02:59:31	26012020	260120	025931	53.480	12.427722	-57.619607	53.520	0.100	-0.320	0.360	53.490	-1.700	0.700																			1580007571.0	7.61	14.09
26/01/2020 02:59:32	26012020	260120	025932	53.490	12.427742	-57.619577	53.520	0.020	-0.220	0.400	53.490	-1.700	0.800																			1580007572.0	7.69	14.24
26/01/2020 02:59:33	26012020	260120	025933	53.510	12.427763	-57.619548	53.600	-0.090	-0.090	0.450	53.530	-1.500	0.800																			1580007573.0	7.57	14.02
26/01/2020 02:59:34	26012020	260120	025934	53.600	12.427783	-57.619520	53.680	-0.100	-0.180	0.390	53.620	-1.500	0.800																			1580007574.0	7.38	13.67
26/01/2020 02:59:35	26012020	260120	025935	53.690	12.427805	-57.619492	53.760	0.070	-0.400	0.280	53.700	-1.700	0.700																			1580007575.0	7.50	13.89
26/01/2020 02:59:36	26012020	260120	025936	53.750	12.427828	-57.619463	53.770	0.240	-0.380	0.340	53.760	-1.800	0.700																			1580007576.0	7.86	14.56
26/01/2020 02:59:37	26012020	260120	025937	53.760	12.427850	-57.619433	53.740	0.170	-0.080	0.520	53.750	-1.600	0.800																			1580007577.0	7.89	14.61
26/01/2020 02:59:38	26012020	260120	025938	53.730	12.427870	-57.619403	53.760	-0.160	0.240	0.490	53.730	-1.300	0.900																			1580007578.0	7.58	14.04
26/01/2020 02:59:39	26012020	260120	025939	53.750	12.427888	-57.619375	53.830	-0.440	0.230	0.240	53.760	-1.100	0.800																			1580007579.0	7.27	13.46
26/01/2020 02:59:40	26012020	260120	025940	53.830	12.427910	-57.619348	53.960	-0.360	-0.130	-0.030	53.860	-1.300	0.500																			1580007580.0	7.29	13.50
26/01/2020 02:59:41	26012020	260120	025941	53.960	12.427932	-57.619320	54.050	-0.020	-0.440	-0.160	53.980	-1.700	0.300																			1580007581.0	7.73	14.32
26/01/2020 02:59:42	26012020	260120	025942	54.040	12.427955	-57.619290	54.070	0.260	-0.500	-0.170	54.050	-1.900	0.200																			1580007582.0	7.99	14.80
26/01/2020 02:59:43	26012020	260120	025943	54.040	12.427977	-57.619260	54.030	0.350	-0.440	-0.100	54.030	-1.900	0.200																			1580007583.0	7.79	14.43
26/01/2020 02:59:44	26012020	260120	025944	54.000	12.427998	-57.619232	53.990	0.300	-0.310	-0.000	53.990	-1.800	0.300																			1580007584.0	7.63	14.13
26/01/2020 02:59:45	26012020	260120	025945	53.960	12.428018	-57.619202	53.940	0.190	-0.090	0.130	53.950	-1.600	0.400																			1580007585.0	7.62	14.11
26/01/2020 02:59:46	26012020	260120	025946	53.900	12.428040	-57.619173	53.900	0.020	0.200	0.260	53.890	-1.300	0.600																			1580007586.0	7.58	14.04
26/01/2020 02:59:47	26012020	260120	025947	53.870	12.428060	-57.619145	53.930	-0.130	0.290	0.340	53.880	-1.100	0.700																			1580007587.0	7.44	13.78
26/01/2020 02:59:48	26012020	260120	025948	53.930	12.428082	-57.619117	54.060	-0.170	-0.000	0.380	53.950	-1.200	0.700																			1580007588.0	7.36	13.63
26/01/2020 02:59:49	26012020	260120	025949	54.060	12.428102	-57.619088	54.230	-0.120	-0.420	0.460	54.100	-1.600	0.800																			1580007589.0	7.66	14.19
26/01/2020 02:59:50	26012020	260120	025950	54.210	12.428123	-57.619057	54.300	-0.140	-0.520	0.600	54.230	-1.900	0.900																			1580007590.0	8.02	14.85
26/01/2020 02:59:51	26012020	260120	025951	54.250	12.428143	-57.619025	54.190	-0.220	-0.280	0.770	54.230	-1.800	1.100																			1580007591.0	7.93	14.69
26/01/2020 02:59:52	26012020	260120	025952	54.090	12.428162	-57.618995	53.950	-0.210	-0.060	0.800	54.040	-1.500	1.200																			1580007592.0	7.52	13.93
26/01/2020 02:59:53	26012020	260120	025953	53.900	12.428182	-57.618967	53.800	-0.030	-0.110	0.600	53.860	-1.400	1.100																			1580007593.0	7.32	13.56
26/01/2020 02:59:54	26012020	260120	025954	53.730	12.428203	-57.618938	53.740	0.240	-0.310	0.170	53.720	-1.600	0.800																			1580007594.0	7.56	14.00
26/01/2020 02:59:55	26012020	260120	025955	53.710	12.428227	-57.618910	53.820	0.420	-0.350	-0.290	53.720	-1.700	0.300																			1580007595.0	7.89	14.61
26/01/2020 02:59:56	26012020	260120	025956	53.830	12.428252	-57.618882	53.930	0.370	-0.140	-0.530	53.860	-1.600	-0.100																			1580007596.0	7.97	14.76
26/01/2020 02:59:57	26012020	260120	025957	53.940	12.428275	-57.618855	53.980	0.130	0.030	-0.480	53.950	-1.400	-0.200																			1580007597.0	7.67	14.20
26/01/2020 02:59:58	26012020	260120	025958	53.990	12.428297	-57.618827	54.020	-0.110	-0.030	-0.210	53.990	-1.400	0.000																			1580007598.0	7.47	13.83
26/01/2020 02:59:59	26012020	260120	025959	54.010	12.428317	-57.618797	54.100	-0.230	-0.210	0.020	54.030	-1.500	0.300	1015.20	25.70	25.80	21.00	21.00	-1.00	75.00	75.00	391.00	24.90	2.00	8.50	58.00	4.60	14	3275.00	27.40	27.40	1580007599.0	7.61	14.09
26/01/2020 03:00:00	26012020	260120	030000	54.110	12.428337	-57.618767	54.180	-0.200	-0.270	0.310	54.120	-1.600	0.500																			1580007600.0	7.84	14.52
26/01/2020 03:00:01	26012020	260120	030001	54.150	12.428377	-57.618705	54.100	-0.120	-0.070	0.690	54.130	-1.600	0.900																			1580007601.0	7.88	14.59
26/01/2020 03:00:02	26012020	260120	030002	54.040	12.428377	-57.618705	54.010	-0.060	0.100	0.980	54.010	-1.300	1.200																			1580007602.0	7.64	14.15
26/01/2020 03:00:03	26012020	260120	030003	53.930	12.428395	-57.618675	53.910	-0.040	0.010	1.100	53.910	-1.300	1.400																			1580007603.0	7.45	13.80
26/01/2020 03:00:04	26012020	260120	030004	53.840	12.428415	-57.618645	53.840	-0.010	-0.230	0.990	53.830	-1.500	1.500																			1580007604.0	7.56	14.00
26/01/2020 03:00:05	26012020	260120	030005	53.780	12.428437	-57.618617	53.810	0.070	-0.510	0.620	53.770	-1.800	1.200																			1580007605.0	7.77	14.39
26/01/2020 03:00:06	26012020	260120	030006	53.790	12.428460	-57.618587	53.920	0.170	-0.700	0.150	53.810	-2.000	0.800																			1580007606.0	7.90	14.63
26/01/2020 03:00:07	26012020	260120	030007	53.890	12.428483	-57.618558	54.100	0.210	-0.600	-0.260	53.930	-2.100	0.300																			1580007607.0	7.98	14.78
26/01/2020 03:00:08	26012020	260120	030008	54.110	12.428507	-57.618530	54.200	0.080	-0.090	-0.470	54.140	-1.800	-0.000																			1580007608.0	7.94	14.70
26/01/2020 03:00:09	26012020	260120	030009	54.180	12.428530	-57.618502	54.120	-0.210	0.540	-0.340	54.170	-1.100	-0.100																			1580007609.0	7.61	14.09
26/01/2020 03:00:10	26012020	260120	030010	54.060	12.428550	-57.618475	53.970	-0.440	0.720	-0.080	54.030	-0.700	0.200																			1580007610.0	7.17	13.28
26/01/2020 03:00:11	26012020	260120	030011	53.920	12.428568	-57.618447	53.960	-0.320	0.130	0.080	53.910	-0.900	0.400																			1580007611.0	7.15	13.24
26/01/2020 03:00:12	26012020	260120	030012	53.940	12.428588	-57.618417	54.070	0.140	-0.820	0.170	53.970	-1.800	0.500																			1580007612.0	7.71	14.28
26/01/2020 03:00:13	26012020	260120	030013	54.060	12.428610	-57.618383	54.100	0.550	-1.190	0.280	54.080	-2.500	0.600																			1580007613.0	8.49	15.72
26/01/2020 03:00:14	26012020	260120	030014	54.070	12.428633	-57.618350	53.960	0.530	-0.640	0.490	54.050	-2.400	0.800																			1580007614.0	8.56	15.85
26/01/2020 03:00:15	26012020	260120	030015	53.900	12.428655	-57.618320	53.790	0.110	0.280	0.680	53.860	-1.500	1.000																			1580007615.0	7.76	14.37
26/01/2020 03:00:16	26012020	260120	030016	53.750	12.428673	-57.618293	53.800	-0.370	0.750	0.650	53.750	-0.800	1.100																			1580007616.0	6.93	12.83
26/01/2020 03:00:17	26012020	260120	030017	53.780	12.428692	-57.618268	53.890	-0.470	0.400	0.430	53.800	-0.700	0.900																			1580007617.0	6.86	12.70
26/01/2020 03:00:18	26012020	260120	030018	53.880	12.428715	-57.618240	53.970	-0.200	-0.350	0.220	53.900	-1.400	0.700																			1580007618.0	7.53	13.95
26/01/2020 03:00:19	26012020	260120	030019	53.950	12.428738	-57.618210	54.000	0.070	-0.770	0.170	53.960	-2.000	0.500																			1580007619.0	8.27	15.32
26/01/2020 03:00:20	26012020	260120	030020	53.980	12.428762	-57.618178	53.940	0.070	-0.570	0.370	53.970	-2.100	0.600																			1580007620.0	8.34	15.45
26/01/2020 03:00:21	26012020	260120	030021	53.930	12.428782	-57.618147	53.860	-0.130	-0.140	0.630	53.900	-1.700	0.900																			1580007621.0	7.77	14.39
26/01/2020 03:00:22	26012020	260120	030022	53.830	12.428800	-57.618118	53.900	-0.210	-0.030	0.620	53.830	-1.400	1.000																			1580007622.0	7.25	13.43
26/01/2020 03:00:23	26012020	260120	030023	53.870	12.428820	-57.618090	53.950	-0.070	-0.210	0.330	53.890	-1.500	0.900																			1580007623.0	7.37	13.65
26/01/2020 03:00:24	26012020	260120	030024	53.920	12.428842	-57.618060	53.970	0.170	-0.260	0.010	53.930	-1.700	0.500																			1580007624.0	7.84	14.52
26/01/2020 03:00:25	26012020	260120	030025	53.950	12.428865	-57.618032	54.040	0.320	-0.070	-0.150	53.970	-1.600	0.300																			1580007625.0	7.99	14.80
26/01/2020 03:00:26	26012020	260120	030026	54.030	12.428888	-57.618003	54.150	0.300	0.100	-0.180	54.050	-1.300	0.200																			1580007626.0	7.72	14.30
26/01/2020 03:00:27	26012020	260120	030027	54.120	12.428910	-57.617975	54.130	0.150	0.050	-0.140	54.120	-1.300	0.200																			1580007627.0	7.48	13.85
26/01/2020 03:00:28	26012020	260120	030028	54.080	12.428932	-57.617947	54.010	-0.020	-0.150	0.040	54.050	-1.400	0.300																			1580007628.0	7.60	14.08
26/01/2020 03:00:29	26012020	260120	030029	53.940	12.428953	-57.617917	53.960	-0.080	-0.350	0.270	53.930	-1.600	0.500																			1580007629.0	7.79	14.43
26/01/2020 03:00:30	26012020	260120	030030	53.930	12.428975	-57.617887	54.120	-0.090	-0.450	0.390	53.950	-1.800	0.700																			1580007630.0	7.88	14.59
26/01/2020 03:00:31	26012020	260120	030031	54.100	12.428995	-57.617857	54.330	-0.160	-0.350	0.440	54.150	-1.800	0.800																			1580007631.0	7.86	14.56
26/01/2020 03:00:32	26012020	260120	030032	54.290	12.429015	-57.617827	54.410	-0.280	-0.080	0.530	54.320	-1.600	0.900																			1580007632.0	7.72	14.30
26/01/2020 03:00:33	26012020	260120	030033	54.340	12.429035	-57.617797	54.330	-0.340	0.130	0.730	54.330	-1.300	1.000																			1580007633.0	7.52	13.93
26/01/2020 03:00:34	26012020	260120	030034	54.230	12.429053	-57.617767	54.240	-0.220	0.030	0.790	54.210	-1.300	1.200																			1580007634.0	7.42	13.74
26/01/2020 03:00:35	26012020	260120	030035	54.180	12.429073	-57.617737	54.290	0.040	-0.320	0.510	54.190	-1.500	1.100																			1580007635.0	7.62	14.11
26/01/2020 03:00:36	26012020	260120	030036	54.260	12.429095	-57.617707	54.340	0.280	-0.460	0.140	54.270	-1.800	0.700																			1580007636.0	7.99	14.80
26/01/2020 03:00:37	26012020	260120	030037	54.290	12.429120	-57.617677	54.330	0.370	-0.210	-0.150	54.290	-1.700	0.400																			1580007637.0	8.11	15.02
26/01/2020 03:00:38	26012020	260120	030038	54.280	12.429143	-57.617650	54.350	0.310	0.020	-0.390	54.290	-1.400	0.100																			1580007638.0	7.69	14.24
26/01/2020 03:00:39	26012020	260120	030039	54.330	12.429165	-57.617623	54.420	0.220	-0.130	-0.580	54.340	-1.400	-0.100																			1580007639.0	7.37	13.65
26/01/2020 03:00:40	26012020	260120	030040	54.400	12.429187	-57.617595	54.410	0.140	-0.360	-0.560	54.400	-1.700	-0.200																			1580007640.0	7.66	14.19
26/01/2020 03:00:41	26012020	260120	030041	54.390	12.429210	-57.617565	54.390	-0.000	-0.250	-0.260	54.380	-1.700	-0.100																			1580007641.0	8.06	14.93
26/01/2020 03:00:42	26012020	260120	030042	54.350	12.429232	-57.617535	54.410	-0.180	-0.000	0.290	54.350	-1.500	0.400																			1580007642.0	7.88	14.59
26/01/2020 03:00:43	26012020	260120	030043	54.380	12.429252	-57.617505	54.530	-0.330	0.080	0.820	54.400	-1.300	1.000																			1580007643.0	7.51	13.91
26/01/2020 03:00:44	26012020	260120	030044	54.480	12.429268	-57.617473	54.620	-0.400	-0.020	1.090	54.500	-1.300	1.400																			1580007644.0	7.54	13.96
26/01/2020 03:00:45	26012020	260120	030045	54.560	12.429287	-57.617442	54.640	-0.330	-0.210	1.120	54.570	-1.500	1.500																			1580007645.0	7.72	14.30
26/01/2020 03:00:46	26012020	260120	030046	54.570	12.429305	-57.617412	54.560	-0.100	-0.390	1.040	54.560	-1.700	1.500																			1580007646.0	7.80	14.45
26/01/2020 03:00:47	26012020	260120	030047	54.490	12.429327	-57.617380	54.490	0.160	-0.480	0.840	54.480	-1.800	1.300																			1580007647.0	7.88	14.59
26/01/2020 03:00:48	26012020	260120	030048	54.440	12.429348	-57.617350	54.450	0.300	-0.350	0.440	54.430	-1.800	1.000																			1580007648.0	7.92	14.67
26/01/2020 03:00:49	26012020	260120	030049	54.420	12.429372	-57.617322	54.470	0.260	-0.040	-0.060	54.430	-1.600	0.500																			1580007649.0	7.82	14.48
26/01/2020 03:00:50	26012020	260120	030050	54.450	12.429395	-57.617295	54.570	0.160	0.190	-0.490	54.470	-1.300	0.100																			1580007650.0	7.58	14.04
26/01/2020 03:00:51	26012020	260120	030051	54.560	12.429418	-57.617268	54.650	0.100	0.120	-0.770	54.580	-1.200	-0.300																			1580007651.0	7.44	13.78
26/01/2020 03:00:52	26012020	260120	030052	54.620	12.429440	-57.617240	54.640	0.110	-0.270	-0.850	54.610	-1.400	-0.500																			1580007652.0	7.61	14.09
26/01/2020 03:00:53	26012020	260120	030053	54.590	12.429463	-57.617212	54.600	0.120	-0.560	-0.700	54.580	-1.800	-0.400																			1580007653.0	7.99	14.80
26/01/2020 03:00:54	26012020	260120	030054	54.550	12.429487	-57.617180	54.580	0.030	-0.420	-0.310	54.550	-1.900	-0.100																			1580007654.0	8.19	15.17
26/01/2020 03:00:55	26012020	260120	030055	54.540	12.429507	-57.617150	54.600	-0.120	-0.040	0.280	54.550	-1.600	0.400																			1580007655.0	7.86	14.56
26/01/2020 03:00:56	26012020	260120	030056	54.560	12.429525	-57.617120	54.640	-0.270	0.190	0.900	54.560	-1.300	1.000																			1580007656.0	7.44	13.78
26/01/2020 03:00:57	26012020	260120	030057	54.560	12.429542	-57.617088	54.600	-0.370	0.150	1.320	54.560	-1.200	1.500																			1580007657.0	7.43	13.76
26/01/2020 03:00:58	26012020	260120	030058	54.510	12.429558	-57.617057	54.530	-0.350	-0.090	1.450	54.490	-1.300	1.800																			1580007658.0	7.65	14.17
26/01/2020 03:00:59	26012020	260120	030059	54.440	12.429578	-57.617025	54.540	-0.110	-0.380	1.240	54.440	-1.600	1.800	1015.20	25.70	25.80	21.00	21.00	-1.00	75.00	74.00	391.00	24.90	3.00	9.30	60.00	5.30	14	3302.00	27.40	27.40	1580007659.0	7.82	14.48
26/01/2020 03:01:00	26012020	260120	030100	54.480	12.429600	-57.616995	54.630	0.310	-0.650	0.790	54.500	-1.900	1.400																			1580007660.0	7.92	14.67
26/01/2020 03:01:01	26012020	260120	030101	54.600	12.429623	-57.616965	54.630	0.590	-0.650	0.360	54.610	-2.100	0.900																			1580007661.0	8.02	14.85
26/01/2020 03:01:02	26012020	260120	030102	54.550	12.429647	-57.616937	54.420	0.450	-0.230	-0.030	54.520	-1.900	0.500																			1580007662.0	8.05	14.91
26/01/2020 03:01:03	26012020	260120	030103	54.340	12.429670	-57.616908	54.180	-0.020	0.350	-0.290	54.290	-1.300	0.200																			1580007663.0	7.72	14.30
26/01/2020 03:01:04	26012020	260120	030104	54.130	12.429692	-57.616882	54.150	-0.440	0.580	-0.460	54.110	-0.800	0.000																			1580007664.0	7.29	13.50
26/01/2020 03:01:05	26012020	260120	030105	54.160	12.429713	-57.616857	54.390	-0.470	0.140	-0.710	54.210	-1.000	-0.200																			1580007665.0	7.21	13.35
26/01/2020 03:01:06	26012020	260120	030106	54.420	12.429737	-57.616827	54.620	-0.140	-0.600	-0.760	54.470	-1.700	-0.400																			1580007666.0	7.70	14.26
26/01/2020 03:01:07	26012020	260120	030107	54.620	12.429758	-57.616795	54.680	0.180	-0.840	-0.420	54.640	-2.200	-0.300																			1580007667.0	8.37	15.50
26/01/2020 03:01:08	26012020	260120	030108	54.630	12.429780	-57.616762	54.560	0.260	-0.390	0.300	54.610	-2.000	0.300																			1580007668.0	8.36	15.48
26/01/2020 03:01:09	26012020	260120	030109	54.500	12.429798	-57.616732	54.340	0.180	0.090	0.950	54.460	-1.500	1.100																			1580007669.0	7.65	14.17
26/01/2020 03:01:10	26012020	260120	030110	54.230	12.429815	-57.616702	54.160	0.120	0.100	1.170	54.200	-1.200	1.500																			1580007670.0	7.20	13.33
26/01/2020 03:01:11	26012020	260120	030111	54.090	12.429833	-57.616672	54.110	0.080	-0.140	1.030	54.070	-1.400	1.500																			1580007671.0	7.50	13.89
26/01/2020 03:01:12	26012020	260120	030112	54.070	12.429857	-57.616642	54.260	-0.010	-0.220	0.740	54.090	-1.600	1.300																			1580007672.0	7.97	14.76
26/01/2020 03:01:13	26012020	260120	030113	54.250	12.429880	-57.616612	54.490	-0.130	-0.130	0.450	54.290	-1.600	1.000																			1580007673.0	7.95	14.72
26/01/2020 03:01:14	26012020	260120	030114	54.460	12.429902	-57.616585	54.590	-0.150	-0.100	0.260	54.490	-1.500	0.700																			1580007674.0	7.69	14.24
26/01/2020 03:01:15	26012020	260120	030115	54.530	12.429923	-57.616557	54.550	-0.090	-0.200	0.230	54.530	-1.500	0.600																			1580007675.0	7.62	14.11
26/01/2020 03:01:16	26012020	260120	030116	54.480	12.429945	-57.616527	54.420	-0.050	-0.250	0.300	54.460	-1.600	0.600																			1580007676.0	7.80	14.45
26/01/2020 03:01:17	26012020	260120	030117	54.350	12.429965	-57.616495	54.300	-0.060	-0.160	0.290	54.320	-1.600	0.700																			1580007677.0	7.86	14.56
26/01/2020 03:01:18	26012020	260120	030118	54.250	12.429987	-57.616465	54.290	-0.050	-0.110	0.090	54.250	-1.500	0.600																			1580007678.0	7.68	14.22
26/01/2020 03:01:19	26012020	260120	030119	54.280	12.430007	-57.616437	54.380	0.030	-0.250	-0.170	54.300	-1.500	0.300																			1580007679.0	7.59	14.06
26/01/2020 03:01:20	26012020	260120	030120	54.370	12.430030	-57.616408	54.410	0.110	-0.390	-0.240	54.380	-1.700	0.200																			1580007680.0	7.77	14.39
26/01/2020 03:01:21	26012020	260120	030121	54.380	12.430052	-57.616378	54.360	0.110	-0.320	-0.220	54.370	-1.800	0.100																			1580007681.0	7.97	14.76
26/01/2020 03:01:22	26012020	260120	030122	54.330	12.430073	-57.616348	54.360	0.030	-0.050	-0.180	54.330	-1.600	0.200																			1580007682.0	7.88	14.59
26/01/2020 03:01:23	26012020	260120	030123	54.350	12.430095	-57.616318	54.450	-0.040	0.150	-0.070	54.370	-1.300	0.200																			1580007683.0	7.62	14.11
26/01/2020 03:01:24	26012020	260120	030124	54.450	12.430117	-57.616290	54.520	0.000	0.080	0.200	54.470	-1.200	0.400																			1580007684.0	7.49	13.87
26/01/2020 03:01:25	26012020	260120	030125	54.480	12.430137	-57.616262	54.470	0.180	-0.260	0.600	54.470	-1.500	0.800																			1580007685.0	7.66	14.19
26/01/2020 03:01:26	26012020	260120	030126	54.390	12.430157	-57.616230	54.410	0.260	-0.520	0.860	54.380	-1.800	1.100																			1580007686.0	7.98	14.78
26/01/2020 03:01:27	26012020	260120	030127	54.360	12.430177	-57.616197	54.430	0.040	-0.340	0.900	54.360	-1.900	1.300																			1580007687.0	8.20	15.19
26/01/2020 03:01:28	26012020	260120	030128	54.380	12.430198	-57.616167	54.470	-0.360	0.080	0.850	54.390	-1.500	1.300																			1580007688.0	7.86	14.56
26/01/2020 03:01:29	26012020	260120	030129	54.420	12.430218	-57.616138	54.510	-0.580	0.230	0.730	54.430	-1.200	1.200																			1580007689.0	7.33	13.58
26/01/2020 03:01:30	26012020	260120	030130	54.450	12.430238	-57.616110	54.480	-0.380	-0.130	0.600	54.450	-1.300	1.000																			1580007690.0	7.27	13.46
26/01/2020 03:01:31	26012020	260120	030131	54.420	12.430258	-57.616080	54.430	0.040	-0.560	0.370	54.410	-1.800	0.900																			1580007691.0	7.81	14.46
26/01/2020 03:01:32	26012020	260120	030132	54.380	12.430282	-57.616048	54.400	0.360	-0.590	0.020	54.370	-2.000	0.600																			1580007692.0	8.27	15.32
26/01/2020 03:01:33	26012020	260120	030133	54.370	12.430305	-57.616018	54.430	0.400	-0.170	-0.290	54.370	-1.800	0.200																			1580007693.0	8.12	15.04
26/01/2020 03:01:34	26012020	260120	030134	54.410	12.430327	-57.615990	54.470	0.260	0.210	-0.540	54.420	-1.300	-0.000																			1580007694.0	7.58	14.04
26/01/2020 03:01:35	26012020	260120	030135	54.440	12.430348	-57.615963	54.480	0.140	0.120	-0.710	54.450	-1.200	-0.300																			1580007695.0	7.25	13.43
26/01/2020 03:01:36	26012020	260120	030136	54.460	12.430370	-57.615935	54.440	0.090	-0.270	-0.660	54.460	-1.500	-0.300																			1580007696.0	7.56	14.00
26/01/2020 03:01:37	26012020	260120	030137	54.420	12.430393	-57.615905	54.410	0.020	-0.480	-0.340	54.400	-1.800	-0.100																			1580007697.0	8.07	14.95
26/01/2020 03:01:38	26012020	260120	030138	54.370	12.430417	-57.615875	54.440	-0.130	-0.320	0.150	54.380	-1.800	0.300																			1580007698.0	8.15	15.09
26/01/2020 03:01:39	26012020	260120	030139	54.420	12.430437	-57.615843	54.480	-0.340	0.080	0.730	54.430	-1.500	0.800																			1580007699.0	7.84	14.52
26/01/2020 03:01:40	26012020	260120	030140	54.420	12.430453	-57.615813	54.450	-0.480	0.260	1.250	54.420	-1.100	1.400																			1580007700.0	7.46	13.82
26/01/2020 03:01:41	26012020	260120	030141	54.380	12.430470	-57.615783	54.490	-0.410	-0.030	1.450	54.380	-1.200	1.800																			1580007701.0	7.38	13.67
26/01/2020 03:01:42	26012020	260120	030142	54.430	12.430488	-57.615752	54.570	-0.160	-0.470	1.310	54.450	-1.700	1.800																			1580007702.0	7.76	14.37
26/01/2020 03:01:43	26012020	260120	030143	54.520	12.430510	-57.615718	54.550	0.100	-0.500	1.010	54.530	-1.900	1.500																			1580007703.0	8.19	15.17
26/01/2020 03:01:44	26012020	260120	030144	54.490	12.430532	-57.615688	54.410	0.290	-0.180	0.670	54.470	-1.700	1.200																			1580007704.0	8.05	14.91
26/01/2020 03:01:45	26012020	260120	030145	54.360	12.430553	-57.615660	54.340	0.460	-0.130	0.160	54.340	-1.500	0.800																			1580007705.0	7.52	13.93
26/01/2020 03:01:46	26012020	260120	030146	54.310	12.430577	-57.615633	54.350	0.620	-0.430	-0.500	54.310	-1.700	0.200																			1580007706.0	7.48	13.85
26/01/2020 03:01:47	26012020	260120	030147	54.320	12.430602	-57.615605	54.290	0.530	-0.480	-1.000	54.320	-1.900	-0.400																			1580007707.0	8.08	14.96
26/01/2020 03:01:48	26012020	260120	030148	54.270	12.430628	-57.615577	54.230	0.110	-0.020	-1.090	54.250	-1.700	-0.700																			1580007708.0	8.29	15.35
26/01/2020 03:01:49	26012020	260120	030149	54.210	12.430652	-57.615548	54.310	-0.410	0.440	-0.860	54.220	-1.100	-0.600																			1580007709.0	7.71	14.28
26/01/2020 03:01:50	26012020	260120	030150	54.320	12.430672	-57.615522	54.450	-0.670	0.350	-0.420	54.340	-0.900	-0.300																			1580007710.0	7.20	13.33
26/01/2020 03:01:51	26012020	260120	030151	54.440	12.430692	-57.615493	54.480	-0.530	-0.220	0.220	54.450	-1.300	0.300																			1580007711.0	7.43	13.76
26/01/2020 03:01:52	26012020	260120	030152	54.440	12.430710	-57.615458	54.420	-0.270	-0.580	1.050	54.430	-1.900	1.000																			1580007712.0	8.15	15.09
26/01/2020 03:01:53	26012020	260120	030153	54.340	12.430727	-57.615423	54.300	-0.230	-0.300	1.780	54.310	-1.900	1.900																			1580007713.0	8.48	15.70
26/01/2020 03:01:54	26012020	260120	030154	54.210	12.430743	-57.615390	54.200	-0.320	0.140	1.960	54.180	-1.400	2.300																			1580007714.0	7.91	14.65
26/01/2020 03:01:55	26012020	260120	030155	54.110	12.430758	-57.615360	54.140	-0.110	0.020	1.490	54.100	-1.200	2.200																			1580007715.0	7.15	13.24
26/01/2020 03:01:56	26012020	260120	030156	54.050	12.430780	-57.615333	54.070	0.490	-0.570	0.690	54.040	-1.700	1.500																			1580007716.0	7.32	13.56
26/01/2020 03:01:57	26012020	260120	030157	54.000	12.430807	-57.615305	54.030	1.000	-0.900	-0.120	53.990	-2.200	0.600																			1580007717.0	8.22	15.22
26/01/2020 03:01:58	26012020	260120	030158	53.980	12.430835	-57.615277	53.990	0.960	-0.550	-0.710	53.980	-2.200	-0.100																			1580007718.0	8.55	15.83
26/01/2020 03:01:59	26012020	260120	030159	53.980	12.430862	-57.615250	53.990	0.360	0.140	-0.980	53.980	-1.600	-0.500	1015.20	25.70	25.80	20.70	20.70	-1.00	73.00	73.00	391.00	24.90	6.00	9.00	65.00	5.00	14	3431.00	27.40	27.40	1580007719.0	8.02	14.85
26/01/2020 03:02:00	26012020	260120	030200	53.980	12.430883	-57.615223	54.000	-0.360	0.550	-0.920	53.990	-1.000	-0.600																			1580007720.0	7.30	13.52
26/01/2020 03:02:01	26012020	260120	030201	54.010	12.430905	-57.615197	54.120	-0.790	0.430	-0.630	54.020	-0.800	-0.400																			1580007721.0	7.15	13.24
26/01/2020 03:02:02	26012020	260120	030202	54.140	12.430925	-57.615168	54.230	-0.770	-0.020	-0.160	54.160	-1.200	-0.000																			1580007722.0	7.56	14.00
26/01/2020 03:02:03	26012020	260120	030203	54.240	12.430943	-57.615135	54.220	-0.440	-0.430	0.450	54.250	-1.600	0.500																			1580007723.0	8.00	14.82
26/01/2020 03:02:04	26012020	260120	030204	54.160	12.430963	-57.615102	54.060	-0.040	-0.600	1.040	54.160	-1.900	1.200																			1580007724.0	8.18	15.15
26/01/2020 03:02:05	26012020	260120	030205	53.990	12.430982	-57.615068	53.990	0.230	-0.570	1.340	53.970	-2.000	1.600																			1580007725.0	8.05	14.91
26/01/2020 03:02:06	26012020	260120	030206	53.930	12.431000	-57.615037	53.990	0.310	-0.320	1.330	53.930	-1.800	1.700																			1580007726.0	7.83	14.50
26/01/2020 03:02:07	26012020	260120	030207	53.950	12.431022	-57.615008	53.990	0.220	0.080	1.090	53.950	-1.500	1.600																			1580007727.0	7.66	14.19
26/01/2020 03:02:08	26012020	260120	030208	53.940	12.431042	-57.614980	53.990	0.040	0.330	0.650	53.940	-1.100	1.300																			1580007728.0	7.43	13.76
26/01/2020 03:02:09	26012020	260120	030209	53.970	12.431063	-57.614953	54.090	-0.090	0.180	0.030	53.970	-1.100	0.700																			1580007729.0	7.35	13.61
26/01/2020 03:02:10	26012020	260120	030210	54.100	12.431087	-57.614925	54.230	-0.080	-0.250	-0.590	54.100	-1.400	0.100																			1580007730.0	7.62	14.11
26/01/2020 03:02:11	26012020	260120	030211	54.250	12.431113	-57.614898	54.320	0.100	-0.620	-0.940	54.250	-1.900	-0.400																			1580007731.0	8.02	14.85
26/01/2020 03:02:12	26012020	260120	030212	54.320	12.431138	-57.614870	54.270	0.340	-0.730	-0.850	54.320	-2.100	-0.500																			1580007732.0	8.18	15.15
26/01/2020 03:02:13	26012020	260120	030213	54.230	12.431162	-57.614840	54.170	0.400	-0.510	-0.520	54.210	-2.000	-0.300																			1580007733.0	8.06	14.93
26/01/2020 03:02:14	26012020	260120	030214	54.120	12.431183	-57.614808	54.100	0.180	0.010	-0.070	54.110	-1.600	0.100																			1580007734.0	7.85	14.54
26/01/2020 03:02:15	26012020	260120	030215	54.040	12.431202	-57.614780	54.040	-0.180	0.480	0.480	54.030	-1.100	0.600																			1580007735.0	7.53	13.95
26/01/2020 03:02:16	26012020	260120	030216	53.980	12.431218	-57.614750	54.120	-0.430	0.430	0.840	53.980	-0.800	1.100																			1580007736.0	7.25	13.43
26/01/2020 03:02:17	26012020	260120	030217	54.110	12.431237	-57.614720	54.420	-0.390	-0.130	0.860	54.170	-1.200	1.300																			1580007737.0	7.42	13.74
26/01/2020 03:02:18	26012020	260120	030218	54.420	12.431257	-57.614688	54.610	-0.150	-0.570	0.870	54.480	-1.800	1.200																			1580007738.0	7.99	14.80
26/01/2020 03:02:19	26012020	260120	030219	54.570	12.431280	-57.614657	54.520	0.080	-0.550	0.990	54.560	-2.000	1.300																			1580007739.0	8.27	15.32
26/01/2020 03:02:20	26012020	260120	030220	54.430	12.431300	-57.614625	54.290	0.180	-0.270	0.960	54.430	-1.800	1.400																			1580007740.0	7.94	14.70
26/01/2020 03:02:21	26012020	260120	030221	54.220	12.431320	-57.614597	54.170	0.150	-0.040	0.630	54.220	-1.500	1.200																			1580007741.0	7.54	13.96
26/01/2020 03:02:22	26012020	260120	030222	54.130	12.431343	-57.614568	54.250	0.070	0.060	0.100	54.130	-1.300	0.800																			1580007742.0	7.46	13.82
26/01/2020 03:02:23	26012020	260120	030223	54.240	12.431365	-57.614542	54.450	-0.000	0.010	-0.520	54.240	-1.300	0.200																			1580007743.0	7.55	13.98
26/01/2020 03:02:24	26012020	260120	030224	54.450	12.431390	-57.614515	54.580	-0.020	-0.210	-0.980	54.450	-1.500	-0.400																			1580007744.0	7.68	14.22
26/01/2020 03:02:25	26012020	260120	030225	54.560	12.431413	-57.614487	54.580	0.050	-0.430	-1.010	54.570	-1.700	-0.700																			1580007745.0	7.81	14.46
26/01/2020 03:02:26	26012020	260120	030226	54.540	12.431437	-57.614458	54.500	0.130	-0.430	-0.640	54.540	-1.800	-0.500																			1580007746.0	7.96	14.74
26/01/2020 03:02:27	26012020	260120	030227	54.440	12.431458	-57.614427	54.400	0.140	-0.290	-0.070	54.420	-1.700	0.000																			1580007747.0	7.87	14.58
26/01/2020 03:02:28	26012020	260120	030228	54.330	12.431477	-57.614397	54.350	0.080	-0.140	0.480	54.330	-1.600	0.600																			1580007748.0	7.68	14.22
26/01/2020 03:02:29	26012020	260120	030229	54.280	12.431495	-57.614365	54.380	-0.060	0.010	0.870	54.280	-1.400	1.100																			1580007749.0	7.68	14.22
26/01/2020 03:02:30	26012020	260120	030230	54.340	12.431513	-57.614335	54.570	-0.210	0.040	0.990	54.340	-1.300	1.300																			1580007750.0	7.67	14.20
26/01/2020 03:02:31	26012020	260120	030231	54.540	12.431533	-57.614303	54.790	-0.250	-0.050	0.950	54.540	-1.400	1.400																			1580007751.0	7.65	14.17
26/01/2020 03:02:32	26012020	260120	030232	54.750	12.431553	-57.614273	54.820	-0.150	-0.130	0.870	54.750	-1.500	1.300																			1580007752.0	7.74	14.33
26/01/2020 03:02:33	26012020	260120	030233	54.750	12.431573	-57.614243	54.650	-0.020	-0.080	0.760	54.750	-1.500	1.200																			1580007753.0	7.82	14.48
26/01/2020 03:02:34	26012020	260120	030234	54.540	12.431595	-57.614213	54.410	0.090	-0.040	0.550	54.540	-1.400	1.000																			1580007754.0	7.71	14.28
26/01/2020 03:02:35	26012020	260120	030235	54.320	12.431617	-57.614185	54.260	0.210	-0.190	0.210	54.320	-1.500	0.800																			1580007755.0	7.56	14.00
26/01/2020 03:02:36	26012020	260120	030236	54.190	12.431640	-57.614158	54.230	0.360	-0.500	-0.270	54.190	-1.700	0.400																			1580007756.0	7.63	14.13
26/01/2020 03:02:37	26012020	260120	030237	54.190	12.431663	-57.614130	54.370	0.460	-0.720	-0.740	54.210	-2.000	-0.100																			1580007757.0	7.92	14.67
26/01/2020 03:02:38	26012020	260120	030238	54.370	12.431688	-57.614102	54.560	0.350	-0.540	-0.920	54.370	-2.100	-0.500																			1580007758.0	8.10	15.00
26/01/2020 03:02:39	26012020	260120	030239	54.560	12.431712	-57.614072	54.610	-0.100	0.090	-0.630	54.560	-1.600	-0.400																			1580007759.0	7.94	14.70
26/01/2020 03:02:40	26012020	260120	030240	54.560	12.431732	-57.614043	54.480	-0.670	0.670	-0.010	54.560	-0.900	0.100																			1580007760.0	7.44	13.78
26/01/2020 03:02:41	26012020	260120	030241	54.400	12.431750	-57.614015	54.320	-0.870	0.550	0.640	54.400	-0.700	0.700																			1580007761.0	7.01	12.98
26/01/2020 03:02:42	26012020	260120	030242	54.260	12.431767	-57.613985	54.270	-0.470	-0.230	1.150	54.260	-1.200	1.300																			1580007762.0	7.29	13.50
26/01/2020 03:02:43	26012020	260120	030243	54.200	12.431785	-57.613952	54.280	0.160	-0.900	1.400	54.200	-2.000	1.700																			1580007763.0	8.14	15.08
26/01/2020 03:02:44	26012020	260120	030244	54.200	12.431805	-57.613917	54.280	0.490	-0.880	1.330	54.200	-2.400	1.800																			1580007764.0	8.56	15.85
26/01/2020 03:02:45	26012020	260120	030245	54.220	12.431825	-57.613885	54.240	0.400	-0.270	1.100	54.220	-2.000	1.600																			1580007765.0	8.09	14.98
26/01/2020 03:02:46	26012020	260120	030246	54.170	12.431845	-57.613857	54.150	0.130	0.300	0.730	54.170	-1.300	1.300																			1580007766.0	7.33	13.58
26/01/2020 03:02:47	26012020	260120	030247	54.080	12.431867	-57.613832	54.070	0.000	0.330	0.070	54.080	-1.000	0.800																			1580007767.0	6.97	12.91
26/01/2020 03:02:48	26012020	260120	030248	54.040	12.431890	-57.613807	54.060	0.080	-0.010	-0.700	54.040	-1.200	0.000																			1580007768.0	7.36	13.63
26/01/2020 03:02:49	26012020	260120	030249	54.060	12.431917	-57.613780	54.050	0.220	-0.260	-1.040	54.060	-1.500	-0.600																			1580007769.0	7.99	14.80
26/01/2020 03:02:50	26012020	260120	030250	54.050	12.431942	-57.613752	54.030	0.210	-0.370	-0.980	54.050	-1.700	-0.600																			1580007770.0	8.06	14.93
26/01/2020 03:02:51	26012020	260120	030251	54.030	12.431965	-57.613723	54.070	0.040	-0.470	-0.750	54.030	-1.800	-0.500																			1580007771.0	7.78	14.41
26/01/2020 03:02:52	26012020	260120	030252	54.090	12.431987	-57.613695	54.170	-0.160	-0.450	-0.260	54.090	-1.900	-0.200																			1580007772.0	7.73	14.32
26/01/2020 03:02:53	26012020	260120	030253	54.140	12.432007	-57.613663	54.180	-0.310	-0.190	0.540	54.140	-1.700	0.500																			1580007773.0	7.77	14.39
26/01/2020 03:02:54	26012020	260120	030254	54.120	12.432023	-57.613632	54.210	-0.410	0.100	1.260	54.120	-1.400	1.300																			1580007774.0	7.65	14.17
26/01/2020 03:02:55	26012020	260120	030255	54.170	12.432038	-57.613600	54.350	-0.420	0.150	1.540	54.170	-1.200	1.800																			1580007775.0	7.50	13.89
26/01/2020 03:02:56	26012020	260120	030256	54.300	12.432055	-57.613568	54.470	-0.310	0.050	1.440	54.300	-1.300	1.900																			1580007776.0	7.53	13.95
26/01/2020 03:02:57	26012020	260120	030257	54.430	12.432075	-57.613538	54.530	-0.090	-0.070	1.120	54.430	-1.400	1.700																			1580007777.0	7.68	14.22
26/01/2020 03:02:58	26012020	260120	030258	54.490	12.432097	-57.613510	54.470	0.210	-0.230	0.720	54.490	-1.500	1.300																			1580007778.0	7.69	14.24
26/01/2020 03:02:59	26012020	260120	030259	54.420	12.432120	-57.613482	54.310	0.490	-0.410	0.300	54.420	-1.700	0.900	1015.20	25.70	25.80	20.90	20.90	-1.00	74.00	74.00	391.00	25.00	3.00	9.00	60.00	5.00	14	3296.00	27.40	27.40	1580007779.0	7.68	14.22
26/01/2020 03:03:00	26012020	260120	030300	54.260	12.432143	-57.613453	54.170	0.650	-0.540	-0.210	54.260	-1.900	0.400																			1580007780.0	7.79	14.43
26/01/2020 03:03:01	26012020	260120	030301	54.160	12.432168	-57.613425	54.220	0.580	-0.510	-0.800	54.160	-1.900	-0.100																			1580007781.0	7.86	14.56
26/01/2020 03:03:02	26012020	260120	030302	54.250	12.432193	-57.613398	54.350	0.230	-0.150	-1.190	54.250	-1.700	-0.600																			1580007782.0	7.85	14.54
26/01/2020 03:03:03	26012020	260120	030303	54.390	12.432217	-57.613373	54.470	-0.260	0.280	-1.200	54.390	-1.300	-0.900																			1580007783.0	7.60	14.08
26/01/2020 03:03:04	26012020	260120	030304	54.510	12.432238	-57.613347	54.580	-0.570	0.300	-0.800	54.510	-1.000	-0.700																			1580007784.0	7.24	13.41
26/01/2020 03:03:05	26012020	260120	030305	54.620	12.432258	-57.613318	54.690	-0.510	-0.130	-0.040	54.620	-1.300	-0.000																			1580007785.0	7.32	13.56
26/01/2020 03:03:06	26012020	260120	030306	54.670	12.432277	-57.613287	54.680	-0.250	-0.480	0.790	54.670	-1.700	0.800																			1580007786.0	7.90	14.63
26/01/2020 03:03:07	26012020	260120	030307	54.620	12.432293	-57.613250	54.590	-0.080	-0.430	1.430	54.620	-1.900	1.500																			1580007787.0	8.26	15.30
26/01/2020 03:03:08	26012020	260120	030308	54.490	12.432310	-57.613217	54.440	-0.040	-0.150	1.820	54.490	-1.700	2.100																			1580007788.0	7.94	14.70
26/01/2020 03:03:09	26012020	260120	030309	54.340	12.432327	-57.613187	54.370	0.010	0.030	1.690	54.340	-1.400	2.200																			1580007789.0	7.46	13.82
26/01/2020 03:03:10	26012020	260120	030310	54.320	12.432345	-57.613157	54.430	0.170	-0.080	0.940	54.320	-1.400	1.700																			1580007790.0	7.30	13.52
26/01/2020 03:03:11	26012020	260120	030311	54.410	12.432368	-57.613130	54.530	0.380	-0.310	0.080	54.410	-1.600	0.900																			1580007791.0	7.55	13.98
26/01/2020 03:03:12	26012020	260120	030312	54.520	12.432395	-57.613103	54.510	0.410	-0.310	-0.470	54.520	-1.700	0.100																			1580007792.0	7.96	14.74
26/01/2020 03:03:13	26012020	260120	030313	54.480	12.432420	-57.613077	54.370	0.110	-0.070	-0.780	54.480	-1.600	-0.300																			1580007793.0	7.92	14.67
26/01/2020 03:03:14	26012020	260120	030314	54.320	12.432443	-57.613050	54.270	-0.210	0.030	-0.840	54.320	-1.400	-0.400																			1580007794.0	7.52	13.93
26/01/2020 03:03:15	26012020	260120	030315	54.240	12.432465	-57.613023	54.260	-0.230	-0.190	-0.630	54.230	-1.400	-0.400																			1580007795.0	7.32	13.56
26/01/2020 03:03:16	26012020	260120	030316	54.240	12.432485	-57.612995	54.300	-0.060	-0.420	-0.280	54.240	-1.700	-0.100																			1580007796.0	7.63	14.13
26/01/2020 03:03:17	26012020	260120	030317	54.270	12.432505	-57.612963	54.350	-0.000	-0.350	0.120	54.270	-1.800	0.300																			1580007797.0	7.96	14.74
26/01/2020 03:03:18	26012020	260120	030318	54.320	12.432525	-57.612932	54.400	-0.090	-0.100	0.520	54.320	-1.600	0.700																			1580007798.0	7.78	14.41
26/01/2020 03:03:19	26012020	260120	030319	54.360	12.432543	-57.612902	54.430	-0.150	0.060	0.890	54.360	-1.400	1.100																			1580007799.0	7.43	13.76
26/01/2020 03:03:20	26012020	260120	030320	54.370	12.432562	-57.612872	54.420	-0.040	-0.010	1.070	54.370	-1.300	1.400																			1580007800.0	7.36	13.63
26/01/2020 03:03:21	26012020	260120	030321	54.350	12.432580	-57.612842	54.330	0.160	-0.170	1.170	54.350	-1.500	1.500																			1580007801.0	7.54	13.96
26/01/2020 03:03:22	26012020	260120	030322	54.240	12.432602	-57.612812	54.180	0.270	-0.260	1.210	54.240	-1.600	1.600																			1580007802.0	7.78	14.41
26/01/2020 03:03:23	26012020	260120	030323	54.090	12.432623	-57.612783	54.100	0.210	-0.260	0.990	54.090	-1.600	1.500																			1580007803.0	7.75	14.35
26/01/2020 03:03:24	26012020	260120	030324	54.040	12.432643	-57.612753	54.180	0.050	-0.250	0.450	54.040	-1.600	1.100																			1580007804.0	7.62	14.11
26/01/2020 03:03:25	26012020	260120	030325	54.130	12.432667	-57.612727	54.300	-0.080	-0.210	-0.150	54.130	-1.600	0.500																			1580007805.0	7.56	14.00
26/01/2020 03:03:26	26012020	260120	030326	54.280	12.432690	-57.612700	54.410	-0.130	-0.140	-0.530	54.280	-1.600	0.000																			1580007806.0	7.59	14.06
26/01/2020 03:03:27	26012020	260120	030327	54.380	12.432713	-57.612672	54.450	-0.160	-0.000	-0.650	54.390	-1.400	-0.200																			1580007807.0	7.60	14.08
26/01/2020 03:03:28	26012020	260120	030328	54.420	12.432735	-57.612645	54.450	-0.180	0.080	-0.540	54.420	-1.300	-0.200																			1580007808.0	7.53	13.95
26/01/2020 03:03:29	26012020	260120	030329	54.420	12.432757	-57.612617	54.380	-0.170	0.040	-0.140	54.420	-1.300	0.000																			1580007809.0	7.46	13.82
26/01/2020 03:03:30	26012020	260120	030330	54.330	12.432775	-57.612587	54.340	-0.130	-0.240	0.270	54.330	-1.500	0.500																			1580007810.0	7.49	13.87
26/01/2020 03:03:31	26012020	260120	030331	54.310	12.432793	-57.612557	54.400	-0.040	-0.620	0.520	54.310	-1.800	0.800																			1580007811.0	7.66	14.19
26/01/2020 03:03:32	26012020	260120	030332	54.380	12.432813	-57.612525	54.460	0.110	-0.780	0.700	54.380	-2.100	1.000																			1580007812.0	7.89	14.61
26/01/2020 03:03:33	26012020	260120	030333	54.430	12.432835	-57.612493	54.500	0.270	-0.410	0.870	54.430	-2.000	1.200																			1580007813.0	7.97	14.76
26/01/2020 03:03:34	26012020	260120	030334	54.450	12.432855	-57.612463	54.500	0.270	0.220	0.960	54.450	-1.400	1.300																			1580007814.0	7.65	14.17
26/01/2020 03:03:35	26012020	260120	030335	54.450	12.432873	-57.612435	54.500	0.130	0.520	0.750	54.450	-0.900	1.300																			1580007815.0	7.16	13.26
26/01/2020 03:03:36	26012020	260120	030336	54.470	12.432893	-57.612408	54.570	0.010	0.210	0.330	54.470	-1.000	0.900																			1580007816.0	7.08	13.11
26/01/2020 03:03:37	26012020	260120	030337	54.550	12.432915	-57.612382	54.650	0.020	-0.370	-0.050	54.550	-1.500	0.500																			1580007817.0	7.58	14.04
26/01/2020 03:03:38	26012020	260120	030338	54.640	12.432940	-57.612352	54.640	0.070	-0.660	-0.290	54.640	-2.000	0.200																			1580007818.0	8.12	15.04
26/01/2020 03:03:39	26012020	260120	030339	54.630	12.432965	-57.612323	54.580	-0.020	-0.400	-0.320	54.620	-2.000	0.100																			1580007819.0	8.17	15.13
26/01/2020 03:03:40	26012020	260120	030340	54.570	12.432987	-57.612295	54.650	-0.240	0.050	-0.190	54.570	-1.500	0.100																			1580007820.0	7.64	14.15
26/01/2020 03:03:41	26012020	260120	030341	54.630	12.433005	-57.612267	54.830	-0.390	0.230	0.000	54.660	-1.200	0.300																			1580007821.0	7.11	13.17
26/01/2020 03:03:42	26012020	260120	030342	54.830	12.433023	-57.612238	54.880	-0.390	0.100	0.270	54.830	-1.200	0.500																			1580007822.0	7.15	13.24
26/01/2020 03:03:43	26012020	260120	030343	54.840	12.433042	-57.612208	54.740	-0.230	-0.160	0.580	54.840	-1.400	0.800																			1580007823.0	7.51	13.91
26/01/2020 03:03:44	26012020	260120	030344	54.670	12.433060	-57.612177	54.650	0.050	-0.440	0.800	54.670	-1.700	1.100																			1580007824.0	7.71	14.28
26/01/2020 03:03:45	26012020	260120	030345	54.590	12.433080	-57.612147	54.710	0.360	-0.670	0.800	54.590	-1.900	1.200																			1580007825.0	7.77	14.39
26/01/2020 03:03:46	26012020	260120	030346	54.670	12.433102	-57.612117	54.760	0.510	-0.660	0.530	54.670	-2.100	1.100																			1580007826.0	7.84	14.52
26/01/2020 03:03:47	26012020	260120	030347	54.720	12.433123	-57.612087	54.680	0.350	-0.220	0.250	54.720	-1.900	0.800																			1580007827.0	7.85	14.54
26/01/2020 03:03:48	26012020	260120	030348	54.620	12.433147	-57.612058	54.530	-0.040	0.360	0.180	54.620	-1.300	0.600																			1580007828.0	7.54	13.96
26/01/2020 03:03:49	26012020	260120	030349	54.480	12.433167	-57.612033	54.500	-0.330	0.460	0.120	54.480	-0.900	0.600																			1580007829.0	7.08	13.11
26/01/2020 03:03:50	26012020	260120	030350	54.480	12.433187	-57.612007	54.620	-0.250	-0.040	-0.080	54.480	-1.100	0.400																			1580007830.0	7.13	13.20
26/01/2020 03:03:51	26012020	260120	030351	54.620	12.433208	-57.611977	54.760	0.120	-0.570	-0.170	54.620	-1.700	0.200																			1580007831.0	7.75	14.35
26/01/2020 03:03:52	26012020	260120	030352	54.760	12.433232	-57.611947	54.820	0.340	-0.600	0.020	54.760	-2.000	0.300																			1580007832.0	8.23	15.24
26/01/2020 03:03:53	26012020	260120	030353	54.780	12.433252	-57.611913	54.770	0.120	-0.140	0.250	54.780	-1.800	0.600																			1580007833.0	8.01	14.83
26/01/2020 03:03:54	26012020	260120	030354	54.700	12.433270	-57.611885	54.670	-0.330	0.350	0.270	54.700	-1.200	0.700																			1580007834.0	7.38	13.67
26/01/2020 03:03:55	26012020	260120	030355	54.620	12.433288	-57.611857	54.620	-0.510	0.420	0.160	54.620	-0.900	0.600																			1580007835.0	6.94	12.85
26/01/2020 03:03:56	26012020	260120	030356	54.590	12.433308	-57.611832	54.600	-0.260	-0.030	0.090	54.590	-1.100	0.500																			1580007836.0	7.05	13.06
26/01/2020 03:03:57	26012020	260120	030357	54.570	12.433330	-57.611803	54.610	0.140	-0.660	0.070	54.570	-1.700	0.500																			1580007837.0	7.58	14.04
26/01/2020 03:03:58	26012020	260120	030358	54.590	12.433353	-57.611773	54.650	0.320	-0.930	0.110	54.590	-2.200	0.500																			1580007838.0	8.09	14.98
26/01/2020 03:03:59	26012020	260120	030359	54.620	12.433377	-57.611742	54.680	0.200	-0.560	0.260	54.620	-2.200	0.600	1015.20	25.70	25.80	20.70	20.70	-1.00	73.00	73.00	391.00	25.00	360.00	8.90	54.00	5.00	14	3331.00	27.40	27.40	1580007839.0	8.08	14.96
26/01/2020 03:04:00	26012020	260120	030400	54.640	12.433397	-57.611713	54.660	-0.020	0.080	0.520	54.640	-1.600	0.800																			1580007840.0	7.52	13.93
26/01/2020 03:04:01	26012020	260120	030401	54.620	12.433413	-57.611685	54.720	-0.130	0.360	0.720	54.620	-1.100	1.000																			1580007841.0	6.98	12.93
26/01/2020 03:04:02	26012020	260120	030402	54.700	12.433430	-57.611657	54.790	-0.060	0.060	0.710	54.700	-1.100	1.100																			1580007842.0	7.02	13.00
26/01/2020 03:04:03	26012020	260120	030403	54.740	12.433450	-57.611627	54.770	0.070	-0.350	0.490	54.740	-1.500	1.000																			1580007843.0	7.59	14.06
26/01/2020 03:04:04	26012020	260120	030404	54.720	12.433472	-57.611597	54.770	0.130	-0.420	0.250	54.720	-1.800	0.800																			1580007844.0	8.05	14.91
26/01/2020 03:04:05	26012020	260120	030405	54.730	12.433495	-57.611567	54.820	0.130	-0.180	0.110	54.730	-1.700	0.600																			1580007845.0	7.89	14.61
26/01/2020 03:04:06	26012020	260120	030406	54.790	12.433517	-57.611540	54.910	0.070	0.070	0.050	54.790	-1.400	0.500																			1580007846.0	7.47	13.83
26/01/2020 03:04:07	26012020	260120	030407	54.870	12.433538	-57.611513	54.860	-0.070	0.180	0.070	54.870	-1.200	0.400																			1580007847.0	7.26	13.45
26/01/2020 03:04:08	26012020	260120	030408	54.780	12.433558	-57.611485	54.700	-0.190	0.030	0.160	54.780	-1.200	0.500																			1580007848.0	7.27	13.46
26/01/2020 03:04:09	26012020	260120	030409	54.640	12.433577	-57.611455	54.670	-0.190	-0.270	0.240	54.640	-1.500	0.600																			1580007849.0	7.43	13.76
26/01/2020 03:04:10	26012020	260120	030410	54.620	12.433597	-57.611425	54.710	-0.080	-0.500	0.250	54.620	-1.800	0.700																			1580007850.0	7.66	14.19
26/01/2020 03:04:11	26012020	260120	030411	54.680	12.433618	-57.611395	54.790	0.090	-0.610	0.130	54.680	-1.900	0.600																			1580007851.0	7.72	14.30
26/01/2020 03:04:12	26012020	260120	030412	54.770	12.433640	-57.611367	54.880	0.240	-0.490	0.110	54.770	-1.900	0.500																			1580007852.0	7.68	14.22
26/01/2020 03:04:13	26012020	260120	030413	54.860	12.433662	-57.611338	54.970	0.230	-0.140	0.280	54.860	-1.700	0.600																			1580007853.0	7.62	14.11
26/01/2020 03:04:14	26012020	260120	030414	54.920	12.433682	-57.611310	54.950	0.040	0.230	0.520	54.920	-1.300	0.800																			1580007854.0	7.41	13.72
26/01/2020 03:04:15	26012020	260120	030415	54.870	12.433700	-57.611282	54.810	-0.150	0.290	0.680	54.870	-1.100	1.000																			1580007855.0	7.21	13.35
26/01/2020 03:04:16	26012020	260120	030416	54.750	12.433718	-57.611252	54.810	-0.170	0.040	0.650	54.750	-1.200	1.100																			1580007856.0	7.29	13.50
26/01/2020 03:04:17	26012020	260120	030417	54.750	12.433738	-57.611222	54.860	-0.100	-0.240	0.460	54.760	-1.500	1.000																			1580007857.0	7.62	14.11
26/01/2020 03:04:18	26012020	260120	030418	54.830	12.433758	-57.611192	54.890	-0.040	-0.350	0.220	54.830	-1.700	0.700																			1580007858.0	7.79	14.43
26/01/2020 03:04:19	26012020	260120	030419	54.830	12.433780	-57.611163	54.860	0.050	-0.380	0.050	54.830	-1.700	0.500																			1580007859.0	7.65	14.17
26/01/2020 03:04:20	26012020	260120	030420	54.790	12.433802	-57.611135	54.800	0.200	-0.420	-0.050	54.790	-1.800	0.400																			1580007860.0	7.48	13.85
26/01/2020 03:04:21	26012020	260120	030421	54.760	12.433823	-57.611107	54.760	0.280	-0.330	-0.060	54.760	-1.800	0.300																			1580007861.0	7.57	14.02
26/01/2020 03:04:22	26012020	260120	030422	54.700	12.433845	-57.611078	54.640	0.170	-0.010	0.070	54.700	-1.500	0.400																			1580007862.0	7.62	14.11
26/01/2020 03:04:23	26012020	260120	030423	54.590	12.433865	-57.611050	54.560	-0.050	0.200	0.140	54.590	-1.200	0.500																			1580007863.0	7.37	13.65
26/01/2020 03:04:24	26012020	260120	030424	54.530	12.433885	-57.611022	54.610	-0.220	0.040	0.050	54.530	-1.200	0.500																			1580007864.0	7.19	13.32
26/01/2020 03:04:25	26012020	260120	030425	54.610	12.433905	-57.610995	54.760	-0.210	-0.320	0.010	54.610	-1.500	0.400																			1580007865.0	7.44	13.78
26/01/2020 03:04:26	26012020	260120	030426	54.760	12.433927	-57.610965	54.870	-0.090	-0.480	0.180	54.760	-1.800	0.500																			1580007866.0	7.81	14.46
26/01/2020 03:04:27	26012020	260120	030427	54.840	12.433947	-57.610933	54.840	0.020	-0.250	0.510	54.840	-1.800	0.700																			1580007867.0	7.87	14.58
26/01/2020 03:04:28	26012020	260120	030428	54.810	12.433967	-57.610903	54.770	0.050	0.040	0.850	54.810	-1.400	1.100																			1580007868.0	7.52	13.93
26/01/2020 03:04:29	26012020	260120	030429	54.730	12.433983	-57.610875	54.740	0.090	0.030	0.940	54.720	-1.300	1.300																			1580007869.0	7.20	13.33
26/01/2020 03:04:30	26012020	260120	030430	54.710	12.434002	-57.610845	54.760	0.140	-0.170	0.790	54.710	-1.400	1.300																			1580007870.0	7.34	13.59
26/01/2020 03:04:31	26012020	260120	030431	54.730	12.434022	-57.610817	54.780	0.140	-0.260	0.490	54.730	-1.600	1.000																			1580007871.0	7.65	14.17
26/01/2020 03:04:32	26012020	260120	030432	54.750	12.434043	-57.610787	54.770	0.070	-0.240	0.110	54.750	-1.600	0.700																			1580007872.0	7.68	14.22
26/01/2020 03:04:33	26012020	260120	030433	54.750	12.434067	-57.610760	54.800	-0.000	-0.250	-0.260	54.750	-1.600	0.300																			1580007873.0	7.53	13.95
26/01/2020 03:04:34	26012020	260120	030434	54.790	12.434090	-57.610733	54.830	-0.050	-0.230	-0.470	54.790	-1.600	-0.000																			1580007874.0	7.53	13.95
26/01/2020 03:04:35	26012020	260120	030435	54.810	12.434112	-57.610705	54.780	-0.080	-0.130	-0.420	54.810	-1.500	-0.100																			1580007875.0	7.56	14.00
26/01/2020 03:04:36	26012020	260120	030436	54.730	12.434133	-57.610677	54.660	-0.110	-0.090	-0.140	54.730	-1.400	0.100																			1580007876.0	7.48	13.85
26/01/2020 03:04:37	26012020	260120	030437	54.610	12.434152	-57.610648	54.620	-0.100	-0.210	0.210	54.610	-1.500	0.400																			1580007877.0	7.43	13.76
26/01/2020 03:04:38	26012020	260120	030438	54.590	12.434172	-57.610618	54.690	-0.070	-0.310	0.450	54.590	-1.600	0.700																			1580007878.0	7.60	14.08
26/01/2020 03:04:39	26012020	260120	030439	54.680	12.434190	-57.610587	54.830	-0.010	-0.220	0.570	54.680	-1.600	0.900																			1580007879.0	7.74	14.33
26/01/2020 03:04:40	26012020	260120	030440	54.800	12.434210	-57.610557	54.900	0.070	-0.060	0.720	54.800	-1.500	1.000																			1580007880.0	7.61	14.09
26/01/2020 03:04:41	26012020	260120	030441	54.860	12.434228	-57.610527	54.940	0.120	-0.010	0.760	54.860	-1.400	1.200																			1580007881.0	7.41	13.72
26/01/2020 03:04:42	26012020	260120	030442	54.910	12.434247	-57.610497	54.950	0.130	-0.100	0.580	54.910	-1.400	1.100																			1580007882.0	7.42	13.74
26/01/2020 03:04:43	26012020	260120	030443	54.920	12.434267	-57.610468	54.870	0.120	-0.130	0.350	54.920	-1.500	0.800																			1580007883.0	7.57	14.02
26/01/2020 03:04:44	26012020	260120	030444	54.830	12.434290	-57.610440	54.730	0.100	-0.100	0.160	54.830	-1.500	0.600																			1580007884.0	7.61	14.09
26/01/2020 03:04:45	26012020	260120	030445	54.670	12.434312	-57.610413	54.550	0.080	-0.240	-0.020	54.670	-1.500	0.500																			1580007885.0	7.48	13.85
26/01/2020 03:04:46	26012020	260120	030446	54.490	12.434335	-57.610385	54.410	-0.010	-0.420	-0.120	54.490	-1.700	0.300																			1580007886.0	7.54	13.96
26/01/2020 03:04:47	26012020	260120	030447	54.380	12.434357	-57.610357	54.480	-0.210	-0.380	-0.180	54.380	-1.800	0.200																			1580007887.0	7.75	14.35
26/01/2020 03:04:48	26012020	260120	030448	54.490	12.434378	-57.610328	54.720	-0.410	-0.120	-0.160	54.490	-1.600	0.200																			1580007888.0	7.66	14.19
26/01/2020 03:04:49	26012020	260120	030449	54.750	12.434398	-57.610300	54.950	-0.430	0.080	0.090	54.750	-1.400	0.300																			1580007889.0	7.37	13.65
26/01/2020 03:04:50	26012020	260120	030450	54.950	12.434417	-57.610270	55.000	-0.240	0.050	0.450	54.950	-1.300	0.700																			1580007890.0	7.28	13.48
26/01/2020 03:04:51	26012020	260120	030451	54.950	12.434433	-57.610240	54.860	0.030	-0.180	0.700	54.950	-1.400	1.000																			1580007891.0	7.48	13.85
26/01/2020 03:04:52	26012020	260120	030452	54.790	12.434452	-57.610208	54.710	0.290	-0.380	0.740	54.790	-1.700	1.100																			1580007892.0	7.74	14.33
26/01/2020 03:04:53	26012020	260120	030453	54.670	12.434472	-57.610177	54.660	0.470	-0.400	0.570	54.650	-1.800	1.100																			1580007893.0	7.80	14.45
26/01/2020 03:04:54	26012020	260120	030454	54.630	12.434493	-57.610148	54.630	0.500	-0.280	0.260	54.630	-1.700	0.800																			1580007894.0	7.68	14.22
26/01/2020 03:04:55	26012020	260120	030455	54.610	12.434515	-57.610122	54.550	0.390	-0.130	-0.020	54.600	-1.600	0.500																			1580007895.0	7.52	13.93
26/01/2020 03:04:56	26012020	260120	030456	54.530	12.434538	-57.610095	54.450	0.160	-0.040	-0.100	54.530	-1.400	0.300																			1580007896.0	7.48	13.85
26/01/2020 03:04:57	26012020	260120	030457	54.450	12.434562	-57.610067	54.480	-0.190	0.060	-0.040	54.450	-1.400	0.300																			1580007897.0	7.51	13.91
26/01/2020 03:04:58	26012020	260120	030458	54.490	12.434582	-57.610038	54.630	-0.520	0.110	0.010	54.490	-1.300	0.400																			1580007898.0	7.52	13.93
26/01/2020 03:04:59	26012020	260120	030459	54.610	12.434602	-57.610010	54.800	-0.640	0.030	0.130	54.650	-1.300	0.400	1015.20	25.80	25.80	20.80	20.90	-1.00	74.00	74.00	391.00	25.00	6.00	9.00	65.00	5.10	14	3332.00	27.40	27.40	1580007899.0	7.42	13.74
26/01/2020 03:05:00	26012020	260120	030500	54.790	12.434620	-57.609980	54.770	-0.490	-0.130	0.420	54.790	-1.400	0.600																			1580007900.0	7.46	13.82
26/01/2020 03:05:01	26012020	260120	030501	54.720	12.434638	-57.609950	54.590	-0.200	-0.370	0.760	54.720	-1.600	1.000																			1580007901.0	7.59	14.06
26/01/2020 03:05:02	26012020	260120	030502	54.520	12.434657	-57.609918	54.440	0.140	-0.660	0.830	54.520	-1.900	1.200																			1580007902.0	7.67	14.20
26/01/2020 03:05:03	26012020	260120	030503	54.380	12.434675	-57.609887	54.330	0.410	-0.680	0.620	54.380	-2.100	1.100																			1580007903.0	7.78	14.41
26/01/2020 03:05:04	26012020	260120	030504	54.280	12.434698	-57.609858	54.220	0.480	-0.260	0.360	54.280	-1.900	0.900																			1580007904.0	7.80	14.45
26/01/2020 03:05:05	26012020	260120	030505	54.200	12.434720	-57.609830	54.210	0.330	0.170	0.030	54.180	-1.400	0.600																			1580007905.0	7.45	13.80
26/01/2020 03:05:06	26012020	260120	030506	54.210	12.434742	-57.609805	54.320	0.140	0.190	-0.320	54.210	-1.100	0.200																			1580007906.0	7.16	13.26
26/01/2020 03:05:07	26012020	260120	030507	54.330	12.434765	-57.609780	54.380	-0.030	0.010	-0.450	54.360	-1.300	-0.000																			1580007907.0	7.40	13.70
26/01/2020 03:05:08	26012020	260120	030508	54.380	12.434788	-57.609750	54.300	-0.190	-0.050	-0.310	54.380	-1.400	-0.000																			1580007908.0	7.79	14.43
26/01/2020 03:05:09	26012020	260120	030509	54.310	12.434808	-57.609720	54.250	-0.320	-0.020	0.080	54.280	-1.400	0.300																			1580007909.0	7.75	14.35
26/01/2020 03:05:10	26012020	260120	030510	54.220	12.434828	-57.609692	54.270	-0.300	-0.070	0.520	54.220	-1.400	0.700																			1580007910.0	7.50	13.89
26/01/2020 03:05:11	26012020	260120	030511	54.230	12.434845	-57.609660	54.310	-0.100	-0.270	0.800	54.230	-1.500	1.100																			1580007911.0	7.41	13.72
26/01/2020 03:05:12	26012020	260120	030512	54.250	12.434863	-57.609630	54.240	0.110	-0.470	0.940	54.250	-1.800	1.300																			1580007912.0	7.54	13.96
26/01/2020 03:05:13	26012020	260120	030513	54.150	12.434883	-57.609600	54.040	0.150	-0.440	0.960	54.150	-1.900	1.400																			1580007913.0	7.71	14.28
26/01/2020 03:05:14	26012020	260120	030514	53.970	12.434903	-57.609570	53.890	0.040	-0.210	0.820	53.970	-1.700	1.300																			1580007914.0	7.65	14.17
26/01/2020 03:05:15	26012020	260120	030515	53.850	12.434925	-57.609543	53.880	0.030	-0.090	0.450	53.850	-1.500	1.000																			1580007915.0	7.37	13.65
26/01/2020 03:05:16	26012020	260120	030516	53.890	12.434947	-57.609517	53.940	0.220	-0.200	0.090	53.890	-1.500	0.600																			1580007916.0	7.33	13.58
26/01/2020 03:05:17	26012020	260120	030517	53.940	12.434970	-57.609490	53.930	0.360	-0.330	-0.150	53.940	-1.700	0.300																			1580007917.0	7.61	14.09
26/01/2020 03:05:18	26012020	260120	030518	53.910	12.434993	-57.609460	53.870	0.220	-0.250	-0.220	53.910	-1.700	0.200																			1580007918.0	7.85	14.54
26/01/2020 03:05:19	26012020	260120	030519	53.870	12.435015	-57.609432	53.900	-0.160	0.120	-0.140	53.860	-1.400	0.200																			1580007919.0	7.75	14.35
26/01/2020 03:05:20	26012020	260120	030520	53.890	12.435035	-57.609403	54.060	-0.470	0.390	-0.060	53.890	-1.100	0.300																			1580007920.0	7.35	13.61
26/01/2020 03:05:21	26012020	260120	030521	54.020	12.435055	-57.609377	54.170	-0.470	0.250	0.050	54.060	-1.000	0.400																			1580007921.0	7.08	13.11
26/01/2020 03:05:22	26012020	260120	030522	54.140	12.435073	-57.609348	54.090	-0.160	-0.230	0.280	54.140	-1.400	0.500																			1580007922.0	7.31	13.54
26/01/2020 03:05:23	26012020	260120	030523	54.030	12.435095	-57.609318	53.950	0.200	-0.660	0.510	54.030	-1.900	0.800																			1580007923.0	7.75	14.35
26/01/2020 03:05:24	26012020	260120	030524	53.880	12.435115	-57.609287	53.880	0.370	-0.700	0.720	53.880	-2.100	1.000																			1580007924.0	7.95	14.72
26/01/2020 03:05:25	26012020	260120	030525	53.830	12.435137	-57.609257	53.930	0.290	-0.380	0.790	53.830	-1.900	1.200																			1580007925.0	7.77	14.39
26/01/2020 03:05:26	26012020	260120	030526	53.900	12.435157	-57.609228	54.010	0.110	0.020	0.650	53.900	-1.500	1.100																			1580007926.0	7.35	13.61
26/01/2020 03:05:27	26012020	260120	030527	53.970	12.435177	-57.609202	53.950	-0.020	0.170	0.470	53.970	-1.200	0.900																			1580007927.0	7.11	13.17
26/01/2020 03:05:28	26012020	260120	030528	53.890	12.435197	-57.609175	53.850	-0.010	-0.030	0.310	53.890	-1.300	0.800																			1580007928.0	7.25	13.43
26/01/2020 03:05:29	26012020	260120	030529	53.820	12.435220	-57.609147	53.860	0.080	-0.390	0.110	53.820	-1.600	0.600																			1580007929.0	7.57	14.02
26/01/2020 03:05:30	26012020	260120	030530	53.830	12.435242	-57.609117	53.880	0.070	-0.430	-0.110	53.830	-1.900	0.400																			1580007930.0	7.93	14.69
26/01/2020 03:05:31	26012020	260120	030531	53.860	12.435265	-57.609088	53.900	-0.140	-0.010	-0.210	53.860	-1.600	0.200																			1580007931.0	7.89	14.61
26/01/2020 03:05:32	26012020	260120	030532	53.880	12.435287	-57.609062	53.900	-0.370	0.370	-0.030	53.880	-1.100	0.200																			1580007932.0	7.33	13.58
26/01/2020 03:05:33	26012020	260120	030533	53.880	12.435305	-57.609035	53.950	-0.350	0.180	0.170	53.880	-1.000	0.500																			1580007933.0	6.94	12.85
26/01/2020 03:05:34	26012020	260120	030534	53.950	12.435325	-57.609007	54.040	-0.020	-0.450	0.200	53.950	-1.500	0.600																			1580007934.0	7.21	13.35
26/01/2020 03:05:35	26012020	260120	030535	54.020	12.435345	-57.608975	54.000	0.290	-0.780	0.350	54.020	-2.100	0.600																			1580007935.0	7.92	14.67
26/01/2020 03:05:36	26012020	260120	030536	53.930	12.435367	-57.608943	53.880	0.260	-0.440	0.540	53.930	-2.000	0.800																			1580007936.0	8.13	15.06
26/01/2020 03:05:37	26012020	260120	030537	53.820	12.435387	-57.608915	53.840	-0.010	0.070	0.530	53.820	-1.500	0.900																			1580007937.0	7.54	13.96
26/01/2020 03:05:38	26012020	260120	030538	53.810	12.435405	-57.608888	53.860	-0.170	0.210	0.380	53.810	-1.200	0.800																			1580007938.0	6.92	12.82
26/01/2020 03:05:39	26012020	260120	030539	53.840	12.435427	-57.608862	53.860	-0.060	-0.020	0.250	53.840	-1.300	0.700																			1580007939.0	7.06	13.08
26/01/2020 03:05:40	26012020	260120	030540	53.830	12.435448	-57.608835	53.840	0.200	-0.350	0.130	53.830	-1.600	0.600																			1580007940.0	7.56	14.00
26/01/2020 03:05:41	26012020	260120	030541	53.830	12.435472	-57.608807	53.950	0.410	-0.600	0.060	53.830	-1.900	0.500																			1580007941.0	7.82	14.48
26/01/2020 03:05:42	26012020	260120	030542	53.950	12.435495	-57.608777	54.070	0.350	-0.430	0.080	53.950	-2.000	0.400																			1580007942.0	7.88	14.59
26/01/2020 03:05:43	26012020	260120	030543	54.040	12.435515	-57.608747	53.980	-0.050	0.230	0.150	54.040	-1.500	0.500																			1580007943.0	7.73	14.32
26/01/2020 03:05:44	26012020	260120	030544	53.900	12.435535	-57.608720	53.800	-0.540	0.740	0.230	53.900	-0.800	0.600																			1580007944.0	7.12	13.19
26/01/2020 03:05:45	26012020	260120	030545	53.760	12.435553	-57.608695	53.820	-0.690	0.420	0.200	53.750	-0.700	0.600																			1580007945.0	6.66	12.33
26/01/2020 03:05:46	26012020	260120	030546	53.810	12.435573	-57.608668	53.960	-0.350	-0.520	0.070	53.810	-1.400	0.500																			1580007946.0	7.05	13.06
26/01/2020 03:05:47	26012020	260120	030547	53.950	12.435595	-57.608638	54.020	0.180	-1.180	0.050	53.950	-2.300	0.400																			1580007947.0	7.96	14.74
26/01/2020 03:05:48	26012020	260120	030548	53.980	12.435618	-57.608607	53.960	0.490	-0.970	0.200	53.980	-2.500	0.500																			1580007948.0	8.34	15.45
26/01/2020 03:05:49	26012020	260120	030549	53.920	12.435640	-57.608577	53.920	0.410	-0.210	0.370	53.920	-2.000	0.700																			1580007949.0	7.76	14.37
26/01/2020 03:05:50	26012020	260120	030550	53.880	12.435658	-57.608550	53.880	0.120	0.420	0.440	53.880	-1.200	0.800																			1580007950.0	6.97	12.91
26/01/2020 03:05:51	26012020	260120	030551	53.860	12.435678	-57.608525	53.880	-0.080	0.500	0.360	53.860	-0.800	0.800																			1580007951.0	6.75	12.50
26/01/2020 03:05:52	26012020	260120	030552	53.870	12.435698	-57.608498	53.920	-0.060	0.100	0.190	53.870	-1.100	0.700																			1580007952.0	7.10	13.15
26/01/2020 03:05:53	26012020	260120	030553	53.910	12.435720	-57.608470	53.930	0.050	-0.340	0.170	53.910	-1.500	0.500																			1580007953.0	7.67	14.20
26/01/2020 03:05:54	26012020	260120	030554	53.890	12.435743	-57.608440	53.910	0.080	-0.560	0.270	53.890	-1.900	0.600																			1580007954.0	7.94	14.70
26/01/2020 03:05:55	26012020	260120	030555	53.870	12.435765	-57.608410	53.960	0.030	-0.530	0.260	53.870	-1.900	0.700																			1580007955.0	7.78	14.41
26/01/2020 03:05:56	26012020	260120	030556	53.930	12.435785	-57.608382	54.030	-0.070	-0.190	0.220	53.930	-1.800	0.600																			1580007956.0	7.56	14.00
26/01/2020 03:05:57	26012020	260120	030557	53.980	12.435807	-57.608353	54.040	-0.230	0.340	0.190	53.990	-1.300	0.600																			1580007957.0	7.34	13.59
26/01/2020 03:05:58	26012020	260120	030558	53.990	12.435825	-57.608327	54.050	-0.340	0.590	0.180	53.990	-0.800	0.600																			1580007958.0	6.97	12.91
26/01/2020 03:05:59	26012020	260120	030559	54.000	12.435845	-57.608302	54.080	-0.230	0.150	0.180	54.000	-0.900	0.600	1015.20	25.80	25.80	20.60	20.70	-1.00	73.00	73.00	391.00	25.00	7.00	9.30	66.00	5.50	14	3335.00	27.40	27.40	1580007959.0	6.82	12.63
26/01/2020 03:06:00	26012020	260120	030600	54.050	12.435865	-57.608273	54.150	0.070	-0.680	0.080	54.050	-1.700	0.500																			1580007960.0	7.29	13.50
26/01/2020 03:06:01	26012020	260120	030601	54.120	12.435887	-57.608243	54.240	0.410	-1.250	-0.110	54.120	-2.400	0.400																			1580007961.0	7.97	14.76
26/01/2020 03:06:02	26012020	260120	030602	54.210	12.435912	-57.608213	54.220	0.570	-0.980	0.000	54.210	-2.600	0.300																			1580007962.0	8.23	15.24
26/01/2020 03:06:03	26012020	260120	030603	54.170	12.435933	-57.608185	54.050	0.360	-0.010	0.400	54.170	-1.900	0.600																			1580007963.0	7.81	14.46
26/01/2020 03:06:04	26012020	260120	030604	53.990	12.435952	-57.608158	53.920	-0.070	0.720	0.640	53.990	-0.900	0.900																			1580007964.0	6.93	12.83
26/01/2020 03:06:05	26012020	260120	030605	53.890	12.435968	-57.608132	54.060	-0.370	0.600	0.550	53.890	-0.600	1.000																			1580007965.0	6.53	12.09
26/01/2020 03:06:06	26012020	260120	030606	54.080	12.435988	-57.608105	54.380	-0.350	-0.060	0.220	54.080	-1.100	0.800																			1580007966.0	7.07	13.09
26/01/2020 03:06:07	26012020	260120	030607	54.420	12.436012	-57.608075	54.580	-0.150	-0.480	0.010	54.420	-1.700	0.500																			1580007967.0	7.89	14.61
26/01/2020 03:06:08	26012020	260120	030608	54.580	12.436035	-57.608047	54.550	-0.020	-0.320	0.100	54.580	-1.800	0.400																			1580007968.0	8.07	14.95
26/01/2020 03:06:09	26012020	260120	030609	54.540	12.436055	-57.608018	54.460	-0.010	-0.050	0.330	54.510	-1.500	0.600																			1580007969.0	7.49	13.87
26/01/2020 03:06:10	26012020	260120	030610	54.420	12.436073	-57.607990	54.440	0.050	-0.170	0.370	54.420	-1.400	0.800																			1580007970.0	6.96	12.89
26/01/2020 03:06:11	26012020	260120	030611	54.400	12.436092	-57.607962	54.450	0.210	-0.490	0.170	54.400	-1.700	0.700																			1580007971.0	7.15	13.24
26/01/2020 03:06:12	26012020	260120	030612	54.400	12.436113	-57.607933	54.450	0.250	-0.460	-0.040	54.400	-1.900	0.400																			1580007972.0	7.68	14.22
26/01/2020 03:06:13	26012020	260120	030613	54.440	12.436137	-57.607905	54.540	0.070	-0.120	-0.130	54.440	-1.700	0.300																			1580007973.0	7.68	14.22
26/01/2020 03:06:14	26012020	260120	030614	54.550	12.436158	-57.607880	54.700	-0.140	0.110	-0.120	54.550	-1.300	0.200																			1580007974.0	7.21	13.35
26/01/2020 03:06:15	26012020	260120	030615	54.720	12.436178	-57.607853	54.830	-0.190	0.050	0.030	54.720	-1.300	0.300																			1580007975.0	7.05	13.06
26/01/2020 03:06:16	26012020	260120	030616	54.820	12.436198	-57.607825	54.820	-0.070	-0.170	0.260	54.820	-1.400	0.500																			1580007976.0	7.32	13.56
26/01/2020 03:06:17	26012020	260120	030617	54.770	12.436218	-57.607795	54.740	0.130	-0.420	0.520	54.770	-1.700	0.800																			1580007977.0	7.56	14.00
26/01/2020 03:06:18	26012020	260120	030618	54.690	12.436238	-57.607765	54.730	0.220	-0.440	0.720	54.690	-1.900	1.000																			1580007978.0	7.70	14.26
26/01/2020 03:06:19	26012020	260120	030619	54.680	12.436257	-57.607735	54.780	0.080	-0.130	0.620	54.680	-1.700	1.100																			1580007979.0	7.70	14.26
26/01/2020 03:06:20	26012020	260120	030620	54.740	12.436277	-57.607707	54.890	-0.180	0.220	0.240	54.740	-1.300	0.800																			1580007980.0	7.30	13.52
26/01/2020 03:06:21	26012020	260120	030621	54.880	12.436297	-57.607680	55.040	-0.290	0.260	-0.110	54.880	-1.100	0.400																			1580007981.0	7.01	12.98
26/01/2020 03:06:22	26012020	260120	030622	55.010	12.436318	-57.607655	55.090	-0.210	-0.010	-0.230	55.010	-1.200	0.200																			1580007982.0	7.11	13.17
26/01/2020 03:06:23	26012020	260120	030623	55.050	12.436340	-57.607628	55.020	-0.030	-0.430	-0.220	55.050	-1.600	0.200																			1580007983.0	7.43	13.76
26/01/2020 03:06:24	26012020	260120	030624	54.980	12.436362	-57.607598	54.930	0.130	-0.680	-0.150	54.980	-2.000	0.200																			1580007984.0	7.71	14.28
26/01/2020 03:06:25	26012020	260120	030625	54.880	12.436383	-57.607568	54.920	0.150	-0.490	-0.050	54.880	-2.000	0.300																			1580007985.0	7.78	14.41
26/01/2020 03:06:26	26012020	260120	030626	54.900	12.436403	-57.607540	55.010	0.020	0.020	0.000	54.900	-1.600	0.400																			1580007986.0	7.49	13.87
26/01/2020 03:06:27	26012020	260120	030627	55.010	12.436422	-57.607512	55.080	-0.140	0.360	0.110	55.010	-1.100	0.400																			1580007987.0	7.01	12.98
26/01/2020 03:06:28	26012020	260120	030628	55.030	12.436440	-57.607487	55.050	-0.060	0.100	0.240	55.030	-1.100	0.600																			1580007988.0	6.82	12.63
26/01/2020 03:06:29	26012020	260120	030629	55.010	12.436460	-57.607458	55.080	0.250	-0.580	0.240	55.010	-1.600	0.600																			1580007989.0	7.24	13.41
26/01/2020 03:06:30	26012020	260120	030630	55.070	12.436482	-57.607428	55.160	0.500	-0.880	0.210	55.070	-2.200	0.600																			1580007990.0	7.96	14.74
26/01/2020 03:06:31	26012020	260120	030631	55.130	12.436505	-57.607397	55.190	0.400	-0.410	0.380	55.130	-2.100	0.700																			1580007991.0	8.14	15.08
26/01/2020 03:06:32	26012020	260120	030632	55.170	12.436525	-57.607368	55.260	-0.020	0.290	0.610	55.170	-1.400	0.900																			1580007992.0	7.45	13.80
26/01/2020 03:06:33	26012020	260120	030633	55.230	12.436542	-57.607342	55.310	-0.480	0.550	0.650	55.250	-0.900	1.000																			1580007993.0	6.75	12.50
26/01/2020 03:06:34	26012020	260120	030634	55.270	12.436560	-57.607315	55.250	-0.700	0.380	0.600	55.270	-0.900	1.000																			1580007994.0	6.84	12.67
26/01/2020 03:06:35	26012020	260120	030635	55.220	12.436580	-57.607287	55.230	-0.620	0.040	0.480	55.210	-1.200	0.900																			1580007995.0	7.32	13.56
26/01/2020 03:06:36	26012020	260120	030636	55.210	12.436600	-57.607258	55.320	-0.280	-0.390	0.280	55.210	-1.600	0.800																			1580007996.0	7.51	13.91
26/01/2020 03:06:37	26012020	260120	030637	55.290	12.436620	-57.607228	55.380	0.160	-0.780	0.030	55.290	-2.000	0.500																			1580007997.0	7.56	14.00
26/01/2020 03:06:38	26012020	260120	030638	55.350	12.436642	-57.607200	55.320	0.480	-0.860	-0.160	55.350	-2.200	0.300																			1580007998.0	7.68	14.22
26/01/2020 03:06:39	26012020	260120	030639	55.270	12.436663	-57.607170	55.190	0.570	-0.550	-0.240	55.270	-2.100	0.200																			1580007999.0	7.65	14.17
26/01/2020 03:06:40	26012020	260120	030640	55.150	12.436683	-57.607143	55.180	0.440	-0.060	-0.310	55.150	-1.700	0.100																			1580008000.0	7.38	13.67
26/01/2020 03:06:41	26012020	260120	030641	55.170	12.436705	-57.607117	55.270	0.190	0.340	-0.400	55.170	-1.200	0.000																			1580008001.0	7.12	13.19
26/01/2020 03:06:42	26012020	260120	030642	55.280	12.436725	-57.607090	55.410	-0.070	0.400	-0.450	55.280	-0.900	-0.000																			1580008002.0	7.06	13.08
26/01/2020 03:06:43	26012020	260120	030643	55.440	12.436745	-57.607063	55.530	-0.190	0.060	-0.290	55.440	-1.100	-0.000																			1580008003.0	7.18	13.30
26/01/2020 03:06:44	26012020	260120	030644	55.530	12.436767	-57.607035	55.550	-0.130	-0.400	0.210	55.530	-1.600	0.300																			1580008004.0	7.52	13.93
26/01/2020 03:06:45	26012020	260120	030645	55.500	12.436785	-57.607003	55.500	-0.040	-0.570	0.840	55.500	-1.900	0.900																			1580008005.0	7.83	14.50
26/01/2020 03:06:46	26012020	260120	030646	55.430	12.436803	-57.606972	55.390	-0.120	-0.290	1.250	55.430	-1.800	1.500																			1580008006.0	7.83	14.50
26/01/2020 03:06:47	26012020	260120	030647	55.320	12.436820	-57.606940	55.220	-0.320	0.160	1.370	55.290	-1.400	1.700																			1580008007.0	7.42	13.74
26/01/2020 03:06:48	26012020	260120	030648	55.140	12.436837	-57.606913	55.180	-0.420	0.300	1.140	55.140	-1.100	1.700																			1580008008.0	6.94	12.85
26/01/2020 03:06:49	26012020	260120	030649	55.120	12.436855	-57.606887	55.340	-0.230	-0.080	0.580	55.140	-1.200	1.300																			1580008009.0	6.90	12.78
26/01/2020 03:06:50	26012020	260120	030650	55.330	12.436877	-57.606858	55.460	0.140	-0.640	-0.080	55.330	-1.800	0.600																			1580008010.0	7.39	13.69
26/01/2020 03:06:51	26012020	260120	030651	55.440	12.436900	-57.606830	55.460	0.420	-0.790	-0.610	55.440	-2.200	-0.000																			1580008011.0	7.92	14.67
26/01/2020 03:06:52	26012020	260120	030652	55.440	12.436925	-57.606802	55.410	0.420	-0.390	-0.760	55.440	-2.000	-0.400																			1580008012.0	7.94	14.70
26/01/2020 03:06:53	26012020	260120	030653	55.400	12.436947	-57.606775	55.420	0.210	0.160	-0.640	55.400	-1.500	-0.300																			1580008013.0	7.38	13.67
26/01/2020 03:06:54	26012020	260120	030654	55.420	12.436967	-57.606748	55.480	-0.010	0.380	-0.510	55.420	-1.100	-0.200																			1580008014.0	6.91	12.80
26/01/2020 03:06:55	26012020	260120	030655	55.480	12.436985	-57.606722	55.520	-0.090	0.110	-0.300	55.480	-1.100	-0.000																			1580008015.0	6.95	12.87
26/01/2020 03:06:56	26012020	260120	030656	55.510	12.437003	-57.606693	55.530	-0.060	-0.300	0.110	55.510	-1.500	0.300																			1580008016.0	7.39	13.69
26/01/2020 03:06:57	26012020	260120	030657	55.500	12.437023	-57.606662	55.520	-0.040	-0.500	0.590	55.500	-1.800	0.800																			1580008017.0	7.79	14.43
26/01/2020 03:06:58	26012020	260120	030658	55.460	12.437042	-57.606630	55.470	-0.050	-0.420	0.960	55.460	-1.900	1.200																			1580008018.0	7.73	14.32
26/01/2020 03:06:59	26012020	260120	030659	55.400	12.437060	-57.606600	55.450	-0.050	-0.240	1.170	55.390	-1.700	1.500	1015.20	25.80	25.80	20.40	20.50	-1.00	72.00	72.00	391.00	25.00	5.00	8.90	64.00	5.20	15	3298.00	27.40	27.40	1580008019.0	7.46	13.82
26/01/2020 03:07:00	26012020	260120	030700	55.390	12.437078	-57.606572	55.600	-0.060	-0.090	1.170	55.390	-1.500	1.600																			1580008020.0	7.30	13.52
26/01/2020 03:07:01	26012020	260120	030701	55.570	12.437097	-57.606543	55.800	-0.110	0.100	0.960	55.570	-1.400	1.500																			1580008021.0	7.30	13.52
26/01/2020 03:07:02	26012020	260120	030702	55.770	12.437117	-57.606513	55.860	-0.220	0.290	0.620	55.770	-1.200	1.200																			1580008022.0	7.28	13.48
26/01/2020 03:07:03	26012020	260120	030703	55.800	12.437135	-57.606487	55.710	-0.260	0.250	0.270	55.800	-1.100	0.800																			1580008023.0	7.15	13.24
26/01/2020 03:07:04	26012020	260120	030704	55.610	12.437155	-57.606460	55.520	-0.100	-0.200	-0.180	55.610	-1.300	0.400																			1580008024.0	7.15	13.24
26/01/2020 03:07:05	26012020	260120	030705	55.480	12.437178	-57.606432	55.520	0.260	-0.860	-0.710	55.480	-1.900	-0.100																			1580008025.0	7.47	13.83
26/01/2020 03:07:06	26012020	260120	030706	55.530	12.437202	-57.606405	55.660	0.580	-1.130	-1.060	55.530	-2.500	-0.600																			1580008026.0	7.95	14.72
26/01/2020 03:07:07	26012020	260120	030707	55.690	12.437227	-57.606375	55.770	0.460	-0.470	-0.970	55.690	-2.300	-0.700																			1580008027.0	8.12	15.04
26/01/2020 03:07:08	26012020	260120	030708	55.770	12.437248	-57.606347	55.740	-0.110	0.520	-0.430	55.770	-1.300	-0.400																			1580008028.0	7.43	13.76
26/01/2020 03:07:09	26012020	260120	030709	55.710	12.437263	-57.606320	55.660	-0.610	0.870	0.210	55.710	-0.600	0.300																			1580008029.0	6.54	12.11
26/01/2020 03:07:10	26012020	260120	030710	55.640	12.437277	-57.606293	55.680	-0.570	0.260	0.630	55.640	-0.800	0.800																			1580008030.0	6.59	12.20
26/01/2020 03:07:11	26012020	260120	030711	55.650	12.437293	-57.606262	55.680	-0.010	-0.660	0.920	55.650	-1.600	1.200																			1580008031.0	7.48	13.85
26/01/2020 03:07:12	26012020	260120	030712	55.620	12.437313	-57.606228	55.600	0.530	-1.020	1.130	55.620	-2.300	1.400																			1580008032.0	8.27	15.32
26/01/2020 03:07:13	26012020	260120	030713	55.530	12.437333	-57.606195	55.580	0.590	-0.600	1.100	55.530	-2.300	1.500																			1580008033.0	8.21	15.20
26/01/2020 03:07:14	26012020	260120	030714	55.520	12.437353	-57.606167	55.670	0.210	0.120	0.820	55.520	-1.600	1.400																			1580008034.0	7.42	13.74
26/01/2020 03:07:15	26012020	260120	030715	55.630	12.437373	-57.606142	55.690	-0.250	0.600	0.540	55.630	-1.000	1.000																			1580008035.0	6.77	12.54
26/01/2020 03:07:16	26012020	260120	030716	55.620	12.437393	-57.606117	55.500	-0.520	0.580	0.320	55.620	-0.700	0.800																			1580008036.0	6.72	12.45
26/01/2020 03:07:17	26012020	260120	030717	55.450	12.437413	-57.606090	55.350	-0.500	0.070	0.090	55.450	-1.000	0.600																			1580008037.0	7.05	13.06
26/01/2020 03:07:18	26012020	260120	030718	55.330	12.437435	-57.606063	55.360	-0.210	-0.680	-0.150	55.330	-1.700	0.300																			1580008038.0	7.48	13.85
26/01/2020 03:07:19	26012020	260120	030719	55.360	12.437457	-57.606032	55.450	0.180	-1.140	-0.300	55.360	-2.400	0.100																			1580008039.0	7.88	14.59
26/01/2020 03:07:20	26012020	260120	030720	55.440	12.437477	-57.606002	55.440	0.370	-0.920	-0.260	55.440	-2.500	0.100																			1580008040.0	8.01	14.83
26/01/2020 03:07:21	26012020	260120	030721	55.420	12.437497	-57.605972	55.400	0.290	-0.250	-0.040	55.420	-2.000	0.200																			1580008041.0	7.61	14.09
26/01/2020 03:07:22	26012020	260120	030722	55.350	12.437515	-57.605943	55.400	0.070	0.410	0.150	55.350	-1.300	0.500																			1580008042.0	7.04	13.04
26/01/2020 03:07:23	26012020	260120	030723	55.350	12.437532	-57.605917	55.380	-0.070	0.650	0.230	55.350	-0.800	0.600																			1580008043.0	6.80	12.59
26/01/2020 03:07:24	26012020	260120	030724	55.340	12.437550	-57.605890	55.280	-0.060	0.430	0.350	55.340	-0.800	0.700																			1580008044.0	6.99	12.95
26/01/2020 03:07:25	26012020	260120	030725	55.250	12.437570	-57.605862	55.220	0.040	-0.150	0.450	55.230	-1.200	0.800																			1580008045.0	7.37	13.65
26/01/2020 03:07:26	26012020	260120	030726	55.180	12.437590	-57.605830	55.280	0.140	-0.770	0.390	55.180	-1.900	0.800																			1580008046.0	7.72	14.30
26/01/2020 03:07:27	26012020	260120	030727	55.270	12.437612	-57.605800	55.350	0.120	-0.820	0.330	55.270	-2.300	0.700																			1580008047.0	7.96	14.74
26/01/2020 03:07:28	26012020	260120	030728	55.330	12.437632	-57.605770	55.320	-0.080	-0.160	0.440	55.330	-1.900	0.700																			1580008048.0	7.80	14.45
26/01/2020 03:07:29	26012020	260120	030729	55.250	12.437652	-57.605743	55.200	-0.260	0.420	0.570	55.250	-1.200	0.900																			1580008049.0	7.00	12.96
26/01/2020 03:07:30	26012020	260120	030730	55.120	12.437668	-57.605717	55.080	-0.190	0.230	0.500	55.120	-1.000	0.900																			1580008050.0	6.52	12.08
26/01/2020 03:07:31	26012020	260120	030731	55.010	12.437688	-57.605690	55.020	0.080	-0.380	0.270	55.010	-1.500	0.800																			1580008051.0	7.04	13.04
26/01/2020 03:07:32	26012020	260120	030732	54.960	12.437710	-57.605662	55.050	0.210	-0.640	0.120	54.960	-2.000	0.600																			1580008052.0	7.89	14.61
26/01/2020 03:07:33	26012020	260120	030733	55.000	12.437732	-57.605632	55.120	0.050	-0.380	0.110	55.000	-1.900	0.500																			1580008053.0	7.98	14.78
26/01/2020 03:07:34	26012020	260120	030734	55.080	12.437752	-57.605602	55.210	-0.220	-0.050	0.110	55.080	-1.600	0.500																			1580008054.0	7.35	13.61
26/01/2020 03:07:35	26012020	260120	030735	55.160	12.437770	-57.605575	55.230	-0.300	0.010	0.150	55.160	-1.400	0.500																			1580008055.0	6.97	12.91
26/01/2020 03:07:36	26012020	260120	030736	55.180	12.437788	-57.605547	55.190	-0.130	-0.120	0.260	55.180	-1.400	0.600																			1580008056.0	7.14	13.22
26/01/2020 03:07:37	26012020	260120	030737	55.150	12.437808	-57.605517	55.150	0.120	-0.170	0.370	55.140	-1.600	0.700																			1580008057.0	7.49	13.87
26/01/2020 03:07:38	26012020	260120	030738	55.100	12.437827	-57.605487	55.100	0.270	-0.140	0.360	55.100	-1.500	0.800																			1580008058.0	7.58	14.04
26/01/2020 03:07:39	26012020	260120	030739	55.040	12.437847	-57.605458	55.020	0.330	-0.160	0.190	55.040	-1.500	0.700																			1580008059.0	7.42	13.74
26/01/2020 03:07:40	26012020	260120	030740	54.960	12.437867	-57.605430	54.930	0.360	-0.220	-0.020	54.960	-1.600	0.400																			1580008060.0	7.36	13.63
26/01/2020 03:07:41	26012020	260120	030741	54.880	12.437888	-57.605403	54.870	0.280	-0.120	-0.090	54.880	-1.600	0.300																			1580008061.0	7.49	13.87
26/01/2020 03:07:42	26012020	260120	030742	54.850	12.437910	-57.605375	54.930	-0.010	0.050	-0.110	54.850	-1.400	0.300																			1580008062.0	7.43	13.76
26/01/2020 03:07:43	26012020	260120	030743	54.940	12.437932	-57.605348	55.090	-0.370	0.050	-0.080	54.940	-1.300	0.300																			1580008063.0	7.20	13.33
26/01/2020 03:07:44	26012020	260120	030744	55.080	12.437952	-57.605322	55.170	-0.560	-0.120	0.120	55.080	-1.400	0.400																			1580008064.0	7.17	13.28
26/01/2020 03:07:45	26012020	260120	030745	55.130	12.437970	-57.605293	55.120	-0.470	-0.290	0.500	55.130	-1.600	0.700																			1580008065.0	7.38	13.67
26/01/2020 03:07:46	26012020	260120	030746	55.060	12.437988	-57.605262	55.040	-0.190	-0.400	0.860	55.060	-1.700	1.100																			1580008066.0	7.51	13.91
26/01/2020 03:07:47	26012020	260120	030747	54.970	12.438005	-57.605232	54.980	0.120	-0.470	1.040	54.970	-1.800	1.400																			1580008067.0	7.51	13.91
26/01/2020 03:07:48	26012020	260120	030748	54.920	12.438022	-57.605200	54.930	0.370	-0.490	0.970	54.920	-1.900	1.400																			1580008068.0	7.48	13.85
26/01/2020 03:07:49	26012020	260120	030749	54.870	12.438042	-57.605170	54.830	0.450	-0.320	0.630	54.870	-1.800	1.200																			1580008069.0	7.51	13.91
26/01/2020 03:07:50	26012020	260120	030750	54.780	12.438063	-57.605143	54.750	0.330	-0.060	0.130	54.780	-1.600	0.800																			1580008070.0	7.50	13.89
26/01/2020 03:07:51	26012020	260120	030751	54.720	12.438085	-57.605117	54.780	0.080	0.180	-0.300	54.720	-1.300	0.300																			1580008071.0	7.36	13.63
26/01/2020 03:07:52	26012020	260120	030752	54.770	12.438108	-57.605090	54.860	-0.180	0.340	-0.540	54.770	-1.100	-0.100																			1580008072.0	7.31	13.54
26/01/2020 03:07:53	26012020	260120	030753	54.860	12.438130	-57.605065	54.920	-0.310	0.280	-0.660	54.860	-1.000	-0.200																			1580008073.0	7.23	13.39
26/01/2020 03:07:54	26012020	260120	030754	54.900	12.438150	-57.605037	54.900	-0.180	-0.150	-0.560	54.900	-1.300	-0.300																			1580008074.0	7.21	13.35
26/01/2020 03:07:55	26012020	260120	030755	54.860	12.438170	-57.605008	54.750	0.080	-0.630	-0.190	54.860	-1.800	-0.000																			1580008075.0	7.51	13.91
26/01/2020 03:07:56	26012020	260120	030756	54.680	12.438190	-57.604977	54.600	0.210	-0.770	0.180	54.680	-2.100	0.400																			1580008076.0	7.87	14.58
26/01/2020 03:07:57	26012020	260120	030757	54.550	12.438208	-57.604945	54.600	0.150	-0.470	0.480	54.550	-2.000	0.700																			1580008077.0	7.78	14.41
26/01/2020 03:07:58	26012020	260120	030758	54.560	12.438228	-57.604917	54.650	-0.040	0.070	0.720	54.560	-1.600	1.000																			1580008078.0	7.37	13.65
26/01/2020 03:07:59	26012020	260120	030759	54.620	12.438247	-57.604890	54.650	-0.180	0.370	0.860	54.620	-1.100	1.200	1015.20	25.80	25.80	20.60	20.70	-1.00	73.00	73.00	391.00	25.10	6.00	8.50	66.00	4.70	15	3217.00	27.40	27.40	1580008079.0	6.97	12.91
26/01/2020 03:08:00	26012020	260120	030800	54.610	12.438263	-57.604862	54.590	-0.170	0.190	0.960	54.610	-1.100	1.300																			1580008080.0	6.91	12.80
26/01/2020 03:08:01	26012020	260120	030801	54.540	12.438282	-57.604833	54.550	-0.070	-0.270	0.970	54.540	-1.400	1.400																			1580008081.0	7.31	13.54
26/01/2020 03:08:02	26012020	260120	030802	54.510	12.438303	-57.604803	54.600	0.070	-0.640	0.720	54.510	-1.900	1.200																			1580008082.0	7.73	14.32
26/01/2020 03:08:03	26012020	260120	030803	54.570	12.438323	-57.604773	54.590	0.180	-0.600	0.420	54.570	-2.100	0.900																			1580008083.0	7.86	14.56
26/01/2020 03:08:04	26012020	260120	030804	54.530	12.438347	-57.604745	54.430	0.170	-0.170	0.260	54.530	-1.800	0.700																			1580008084.0	7.67	14.20
26/01/2020 03:08:05	26012020	260120	030805	54.360	12.438367	-57.604718	54.310	0.020	0.180	0.100	54.360	-1.300	0.600																			1580008085.0	7.23	13.39
26/01/2020 03:08:06	26012020	260120	030806	54.270	12.438387	-57.604692	54.340	-0.130	0.140	-0.110	54.270	-1.200	0.400																			1580008086.0	6.98	12.93
26/01/2020 03:08:07	26012020	260120	030807	54.310	12.438407	-57.604663	54.370	-0.190	-0.050	-0.280	54.310	-1.400	0.200																			1580008087.0	7.27	13.46
26/01/2020 03:08:08	26012020	260120	030808	54.340	12.438428	-57.604635	54.340	-0.130	-0.190	-0.350	54.340	-1.500	0.100																			1580008088.0	7.57	14.02
26/01/2020 03:08:09	26012020	260120	030809	54.320	12.438450	-57.604607	54.340	0.020	-0.300	-0.240	54.320	-1.600	0.100																			1580008089.0	7.56	14.00
26/01/2020 03:08:10	26012020	260120	030810	54.330	12.438470	-57.604578	54.390	0.150	-0.300	0.010	54.330	-1.700	0.300																			1580008090.0	7.51	13.91
26/01/2020 03:08:11	26012020	260120	030811	54.360	12.438490	-57.604550	54.390	0.170	-0.190	0.310	54.360	-1.600	0.600																			1580008091.0	7.48	13.85
26/01/2020 03:08:12	26012020	260120	030812	54.310	12.438510	-57.604520	54.230	0.110	-0.120	0.530	54.310	-1.500	0.800																			1580008092.0	7.33	13.58
26/01/2020 03:08:13	26012020	260120	030813	54.160	12.438528	-57.604492	54.090	0.040	-0.170	0.680	54.160	-1.500	1.000																			1580008093.0	7.28	13.48
26/01/2020 03:08:14	26012020	260120	030814	54.030	12.438548	-57.604463	54.120	0.030	-0.320	0.790	54.030	-1.600	1.100																			1580008094.0	7.40	13.70
26/01/2020 03:08:15	26012020	260120	030815	54.100	12.438570	-57.604435	54.290	0.060	-0.420	0.840	54.100	-1.800	1.200																			1580008095.0	7.56	14.00
26/01/2020 03:08:16	26012020	260120	030816	54.260	12.438590	-57.604405	54.340	0.010	-0.210	0.870	54.260	-1.800	1.200																			1580008096.0	7.66	14.19
26/01/2020 03:08:17	26012020	260120	030817	54.280	12.438610	-57.604375	54.220	-0.200	0.290	0.880	54.280	-1.400	1.300																			1580008097.0	7.54	13.96
26/01/2020 03:08:18	26012020	260120	030818	54.150	12.438628	-57.604348	54.150	-0.430	0.500	0.690	54.150	-0.900	1.200																			1580008098.0	7.10	13.15
26/01/2020 03:08:19	26012020	260120	030819	54.120	12.438647	-57.604322	54.230	-0.390	0.080	0.290	54.120	-1.100	0.900																			1580008099.0	6.89	12.76
26/01/2020 03:08:20	26012020	260120	030820	54.220	12.438668	-57.604293	54.260	-0.050	-0.550	-0.160	54.220	-1.700	0.400																			1580008100.0	7.36	13.63
26/01/2020 03:08:21	26012020	260120	030821	54.240	12.438692	-57.604265	54.140	0.300	-0.850	-0.490	54.240	-2.200	0.000																			1580008101.0	7.92	14.67
26/01/2020 03:08:22	26012020	260120	030822	54.110	12.438715	-57.604235	53.990	0.450	-0.690	-0.500	54.110	-2.200	-0.200																			1580008102.0	7.92	14.67
26/01/2020 03:08:23	26012020	260120	030823	53.950	12.438737	-57.604208	53.900	0.360	-0.300	-0.230	53.950	-1.900	0.000																			1580008103.0	7.53	13.95
26/01/2020 03:08:24	26012020	260120	030824	53.880	12.438757	-57.604180	53.960	0.160	0.050	-0.110	53.880	-1.500	0.300																			1580008104.0	7.23	13.39
26/01/2020 03:08:25	26012020	260120	030825	53.970	12.438777	-57.604153	54.070	-0.010	0.220	-0.070	53.970	-1.200	0.300																			1580008105.0	7.17	13.28
26/01/2020 03:08:26	26012020	260120	030826	54.070	12.438797	-57.604125	54.070	-0.120	0.270	0.210	54.070	-1.100	0.400																			1580008106.0	7.30	13.52
26/01/2020 03:08:27	26012020	260120	030827	54.060	12.438817	-57.604097	54.070	-0.240	0.230	0.590	54.060	-1.100	0.800																			1580008107.0	7.43	13.76
26/01/2020 03:08:28	26012020	260120	030828	54.050	12.438835	-57.604068	54.090	-0.300	-0.010	0.890	54.050	-1.300	1.100																			1580008108.0	7.43	13.76
26/01/2020 03:08:29	26012020	260120	030829	54.060	12.438855	-57.604038	54.100	-0.220	-0.420	1.020	54.060	-1.600	1.400																			1580008109.0	7.42	13.74
26/01/2020 03:08:30	26012020	260120	030830	54.100	12.438873	-57.604008	54.130	0.010	-0.740	1.020	54.100	-2.000	1.400																			1580008110.0	7.61	14.09
26/01/2020 03:08:31	26012020	260120	030831	54.120	12.438895	-57.603978	54.160	0.230	-0.720	0.930	54.120	-2.200	1.400																			1580008111.0	7.77	14.39
26/01/2020 03:08:32	26012020	260120	030832	54.140	12.438917	-57.603948	54.130	0.210	-0.310	0.700	54.140	-1.900	1.200																			1580008112.0	7.67	14.20
26/01/2020 03:08:33	26012020	260120	030833	54.100	12.438937	-57.603922	53.990	-0.010	0.260	0.380	54.100	-1.400	0.900																			1580008113.0	7.35	13.61
26/01/2020 03:08:34	26012020	260120	030834	53.930	12.438957	-57.603895	53.820	-0.190	0.570	0.060	53.930	-0.900	0.600																			1580008114.0	6.99	12.95
26/01/2020 03:08:35	26012020	260120	030835	53.780	12.438978	-57.603870	53.830	-0.190	0.300	-0.420	53.780	-0.900	0.200																			1580008115.0	6.92	12.82
26/01/2020 03:08:36	26012020	260120	030836	53.850	12.439000	-57.603843	54.060	0.000	-0.420	-0.970	53.850	-1.500	-0.300																			1580008116.0	7.31	13.54
26/01/2020 03:08:37	26012020	260120	030837	54.110	12.439023	-57.603817	54.290	0.230	-0.970	-1.180	54.110	-2.200	-0.800																			1580008117.0	7.90	14.63
26/01/2020 03:08:38	26012020	260120	030838	54.290	12.439048	-57.603787	54.240	0.280	-0.760	-0.820	54.290	-2.300	-0.700																			1580008118.0	8.18	15.15
26/01/2020 03:08:39	26012020	260120	030839	54.200	12.439070	-57.603757	53.980	0.080	-0.080	-0.070	54.200	-1.800	-0.100																			1580008119.0	7.72	14.30
26/01/2020 03:08:40	26012020	260120	030840	53.920	12.439087	-57.603728	53.760	-0.150	0.360	0.610	53.920	-1.200	0.700																			1580008120.0	6.99	12.95
26/01/2020 03:08:41	26012020	260120	030841	53.710	12.439103	-57.603700	53.750	-0.170	0.230	0.890	53.710	-1.000	1.200																			1580008121.0	6.84	12.67
26/01/2020 03:08:42	26012020	260120	030842	53.740	12.439122	-57.603672	53.890	0.030	-0.210	0.960	53.740	-1.400	1.300																			1580008122.0	7.31	13.54
26/01/2020 03:08:43	26012020	260120	030843	53.870	12.439143	-57.603642	53.950	0.200	-0.440	1.030	53.870	-1.800	1.400																			1580008123.0	7.83	14.50
26/01/2020 03:08:44	26012020	260120	030844	53.920	12.439163	-57.603612	53.950	0.150	-0.290	1.060	53.920	-1.800	1.400																			1580008124.0	7.91	14.65
26/01/2020 03:08:45	26012020	260120	030845	53.910	12.439183	-57.603582	53.900	-0.090	0.040	0.960	53.910	-1.500	1.400																			1580008125.0	7.52	13.93
26/01/2020 03:08:46	26012020	260120	030846	53.860	12.439205	-57.603555	53.890	-0.310	0.180	0.740	53.860	-1.200	1.300																			1580008126.0	7.15	13.24
26/01/2020 03:08:47	26012020	260120	030847	53.860	12.439225	-57.603530	53.990	-0.340	-0.030	0.280	53.860	-1.300	0.900																			1580008127.0	7.07	13.09
26/01/2020 03:08:48	26012020	260120	030848	53.990	12.439247	-57.603502	54.100	-0.220	-0.310	-0.160	53.990	-1.600	0.400																			1580008128.0	7.39	13.69
26/01/2020 03:08:49	26012020	260120	030849	54.090	12.439270	-57.603475	54.050	-0.110	-0.340	-0.310	54.090	-1.800	0.100																			1580008129.0	7.68	14.22
26/01/2020 03:08:50	26012020	260120	030850	54.000	12.439292	-57.603447	53.860	-0.040	-0.230	-0.220	54.000	-1.700	0.100																			1580008130.0	7.56	14.00
26/01/2020 03:08:51	26012020	260120	030851	53.810	12.439312	-57.603418	53.740	0.060	-0.280	-0.200	53.810	-1.600	0.200																			1580008131.0	7.28	13.48
26/01/2020 03:08:52	26012020	260120	030852	53.730	12.439330	-57.603390	53.770	0.260	-0.490	-0.330	53.730	-1.800	0.100																			1580008132.0	7.31	13.54
26/01/2020 03:08:53	26012020	260120	030853	53.770	12.439353	-57.603362	53.780	0.480	-0.530	-0.330	53.770	-1.900	0.000																			1580008133.0	7.62	14.11
26/01/2020 03:08:54	26012020	260120	030854	53.790	12.439375	-57.603333	53.730	0.530	-0.260	-0.060	53.790	-1.800	0.200																			1580008134.0	7.76	14.37
26/01/2020 03:08:55	26012020	260120	030855	53.720	12.439397	-57.603305	53.730	0.330	0.120	0.250	53.720	-1.400	0.500																			1580008135.0	7.50	13.89
26/01/2020 03:08:56	26012020	260120	030856	53.730	12.439417	-57.603278	53.870	-0.060	0.310	0.490	53.730	-1.100	0.800																			1580008136.0	7.24	13.41
26/01/2020 03:08:57	26012020	260120	030857	53.880	12.439437	-57.603250	54.010	-0.420	0.260	0.710	53.880	-1.100	1.000																			1580008137.0	7.24	13.41
26/01/2020 03:08:58	26012020	260120	030858	54.000	12.439457	-57.603220	54.030	-0.590	0.120	0.980	54.000	-1.200	1.200																			1580008138.0	7.42	13.74
26/01/2020 03:08:59	26012020	260120	030859	53.970	12.439475	-57.603192	53.920	-0.540	-0.100	1.210	53.970	-1.400	1.500	1015.20	25.80	25.80	20.90	20.90	-1.00	74.00	74.00	391.00	25.10	5.00	8.80	63.00	5.00	15	3347.00	27.40	27.40	1580008139.0	7.52	13.93
26/01/2020 03:09:00	26012020	260120	030900	53.860	12.439493	-57.603162	53.870	-0.280	-0.420	1.210	53.860	-1.700	1.600																			1580008140.0	7.51	13.91
26/01/2020 03:09:01	26012020	260120	030901	53.840	12.439513	-57.603132	53.920	0.020	-0.570	0.910	53.840	-1.900	1.500																			1580008141.0	7.59	14.06
26/01/2020 03:09:02	26012020	260120	030902	53.910	12.439535	-57.603102	53.970	0.140	-0.400	0.410	53.910	-1.900	1.000																			1580008142.0	7.63	14.13
26/01/2020 03:09:03	26012020	260120	030903	53.960	12.439557	-57.603075	53.920	0.100	-0.150	-0.080	53.960	-1.600	0.500																			1580008143.0	7.36	13.63
26/01/2020 03:09:04	26012020	260120	030904	53.920	12.439578	-57.603050	53.820	0.160	-0.180	-0.460	53.920	-1.500	0.100																			1580008144.0	7.16	13.26
26/01/2020 03:09:05	26012020	260120	030905	53.830	12.439602	-57.603025	53.720	0.420	-0.450	-0.770	53.810	-1.700	-0.200																			1580008145.0	7.33	13.58
26/01/2020 03:09:06	26012020	260120	030906	53.710	12.439627	-57.602997	53.640	0.640	-0.540	-0.890	53.710	-1.900	-0.500																			1580008146.0	7.78	14.41
26/01/2020 03:09:07	26012020	260120	030907	53.650	12.439650	-57.602968	53.640	0.450	-0.160	-0.730	53.650	-1.800	-0.400																			1580008147.0	7.98	14.78
26/01/2020 03:09:08	26012020	260120	030908	53.660	12.439672	-57.602940	53.760	-0.100	0.410	-0.370	53.660	-1.300	-0.200																			1580008148.0	7.57	14.02
26/01/2020 03:09:09	26012020	260120	030909	53.800	12.439690	-57.602913	53.960	-0.620	0.670	0.120	53.800	-0.800	0.300																			1580008149.0	7.03	13.02
26/01/2020 03:09:10	26012020	260120	030910	53.990	12.439708	-57.602885	54.090	-0.720	0.340	0.720	53.990	-0.800	0.800																			1580008150.0	6.91	12.80
26/01/2020 03:09:11	26012020	260120	030911	54.080	12.439725	-57.602855	54.100	-0.350	-0.400	1.210	54.080	-1.400	1.400																			1580008151.0	7.32	13.56
26/01/2020 03:09:12	26012020	260120	030912	54.060	12.439743	-57.602823	54.060	0.130	-0.920	1.490	54.060	-2.100	1.800																			1580008152.0	7.91	14.65
26/01/2020 03:09:13	26012020	260120	030913	54.010	12.439765	-57.602792	54.000	0.300	-0.750	1.590	54.010	-2.300	1.900																			1580008153.0	8.14	15.08
26/01/2020 03:09:14	26012020	260120	030914	53.950	12.439785	-57.602762	53.940	0.120	-0.120	1.400	53.950	-1.800	1.900																			1580008154.0	7.68	14.22
26/01/2020 03:09:15	26012020	260120	030915	53.900	12.439803	-57.602735	53.910	-0.110	0.260	0.890	53.900	-1.300	1.500																			1580008155.0	6.96	12.89
26/01/2020 03:09:16	26012020	260120	030916	53.890	12.439823	-57.602710	53.850	-0.100	0.130	0.200	53.890	-1.200	0.900																			1580008156.0	6.81	12.61
26/01/2020 03:09:17	26012020	260120	030917	53.870	12.439847	-57.602685	53.850	0.110	-0.220	-0.500	53.860	-1.500	0.200																			1580008157.0	7.34	13.59
26/01/2020 03:09:18	26012020	260120	030918	53.870	12.439872	-57.602658	53.940	0.330	-0.460	-1.050	53.870	-1.800	-0.400																			1580008158.0	7.83	14.50
26/01/2020 03:09:19	26012020	260120	030919	53.980	12.439897	-57.602630	54.030	0.340	-0.480	-1.300	53.980	-1.900	-0.800																			1580008159.0	7.86	14.56
26/01/2020 03:09:20	26012020	260120	030920	54.070	12.439922	-57.602603	54.070	0.090	-0.220	-1.200	54.070	-1.800	-0.900																			1580008160.0	7.68	14.22
26/01/2020 03:09:21	26012020	260120	030921	54.090	12.439942	-57.602577	54.110	-0.200	0.150	-0.780	54.090	-1.400	-0.600																			1580008161.0	7.39	13.69
26/01/2020 03:09:22	26012020	260120	030922	54.130	12.439960	-57.602548	54.200	-0.300	0.230	-0.200	54.130	-1.200	-0.100																			1580008162.0	7.08	13.11
26/01/2020 03:09:23	26012020	260120	030923	54.210	12.439978	-57.602520	54.230	-0.160	-0.060	0.480	54.210	-1.300	0.500																			1580008163.0	7.17	13.28
26/01/2020 03:09:24	26012020	260120	030924	54.200	12.439997	-57.602488	54.150	0.030	-0.340	1.100	54.200	-1.600	1.200																			1580008164.0	7.61	14.09
26/01/2020 03:09:25	26012020	260120	030925	54.100	12.440015	-57.602457	54.070	0.130	-0.370	1.600	54.100	-1.800	1.800																			1580008165.0	7.83	14.50
26/01/2020 03:09:26	26012020	260120	030926	54.000	12.440035	-57.602427	54.060	0.090	-0.200	1.810	54.000	-1.700	2.100																			1580008166.0	7.62	14.11
26/01/2020 03:09:27	26012020	260120	030927	54.010	12.440053	-57.602397	54.110	-0.060	0.020	1.620	54.010	-1.500	2.100																			1580008167.0	7.32	13.56
26/01/2020 03:09:28	26012020	260120	030928	54.060	12.440072	-57.602370	54.150	-0.210	0.070	1.110	54.060	-1.300	1.800																			1580008168.0	7.15	13.24
26/01/2020 03:09:29	26012020	260120	030929	54.120	12.440093	-57.602343	54.210	-0.230	-0.140	0.490	54.120	-1.400	1.200																			1580008169.0	7.18	13.30
26/01/2020 03:09:30	26012020	260120	030930	54.210	12.440117	-57.602317	54.290	-0.050	-0.470	-0.160	54.210	-1.700	0.500																			1580008170.0	7.45	13.80
26/01/2020 03:09:31	26012020	260120	030931	54.290	12.440140	-57.602290	54.330	0.230	-0.620	-0.760	54.290	-2.000	-0.100																			1580008171.0	7.73	14.32
26/01/2020 03:09:32	26012020	260120	030932	54.330	12.440165	-57.602263	54.300	0.400	-0.440	-1.090	54.330	-2.000	-0.600																			1580008172.0	7.82	14.48
26/01/2020 03:09:33	26012020	260120	030933	54.290	12.440188	-57.602235	54.250	0.370	-0.110	-1.040	54.290	-1.700	-0.700																			1580008173.0	7.58	14.04
26/01/2020 03:09:34	26012020	260120	030934	54.260	12.440210	-57.602208	54.290	0.190	0.120	-0.740	54.260	-1.400	-0.500																			1580008174.0	7.27	13.46
26/01/2020 03:09:35	26012020	260120	030935	54.290	12.440228	-57.602182	54.300	-0.020	0.160	-0.310	54.290	-1.200	-0.100																			1580008175.0	7.22	13.37
26/01/2020 03:09:36	26012020	260120	030936	54.270	12.440248	-57.602152	54.260	-0.210	0.110	0.150	54.270	-1.300	0.300																			1580008176.0	7.37	13.65
26/01/2020 03:09:37	26012020	260120	030937	54.230	12.440267	-57.602122	54.290	-0.330	-0.040	0.640	54.230	-1.400	0.800																			1580008177.0	7.47	13.83
26/01/2020 03:09:38	26012020	260120	030938	54.270	12.440285	-57.602093	54.450	-0.290	-0.250	1.030	54.270	-1.500	1.200																			1580008178.0	7.49	13.87
26/01/2020 03:09:39	26012020	260120	030939	54.440	12.440305	-57.602062	54.580	-0.140	-0.420	1.240	54.440	-1.800	1.500																			1580008179.0	7.55	13.98
26/01/2020 03:09:40	26012020	260120	030940	54.540	12.440323	-57.602032	54.510	-0.010	-0.330	1.350	54.540	-1.800	1.700																			1580008180.0	7.62	14.11
26/01/2020 03:09:41	26012020	260120	030941	54.470	12.440343	-57.602003	54.340	0.030	-0.090	1.390	54.430	-1.600	1.800																			1580008181.0	7.50	13.89
26/01/2020 03:09:42	26012020	260120	030942	54.260	12.440362	-57.601975	54.280	0.080	-0.090	1.120	54.260	-1.400	1.700																			1580008182.0	7.20	13.33
26/01/2020 03:09:43	26012020	260120	030943	54.250	12.440382	-57.601947	54.370	0.220	-0.340	0.400	54.250	-1.600	1.200																			1580008183.0	7.23	13.39
26/01/2020 03:09:44	26012020	260120	030944	54.370	12.440407	-57.601920	54.470	0.330	-0.430	-0.380	54.370	-1.800	0.300																			1580008184.0	7.65	14.17
26/01/2020 03:09:45	26012020	260120	030945	54.480	12.440432	-57.601893	54.490	0.240	-0.110	-0.800	54.480	-1.700	-0.300																			1580008185.0	7.86	14.56
26/01/2020 03:09:46	26012020	260120	030946	54.500	12.440455	-57.601868	54.480	-0.040	0.250	-0.910	54.500	-1.300	-0.500																			1580008186.0	7.48	13.85
26/01/2020 03:09:47	26012020	260120	030947	54.490	12.440477	-57.601842	54.480	-0.240	0.160	-0.820	54.490	-1.100	-0.500																			1580008187.0	7.00	12.96
26/01/2020 03:09:48	26012020	260120	030948	54.480	12.440497	-57.601815	54.390	-0.210	-0.360	-0.500	54.480	-1.500	-0.300																			1580008188.0	7.15	13.24
26/01/2020 03:09:49	26012020	260120	030949	54.370	12.440517	-57.601785	54.350	-0.060	-0.790	-0.090	54.370	-2.000	0.100																			1580008189.0	7.76	14.37
26/01/2020 03:09:50	26012020	260120	030950	54.340	12.440537	-57.601753	54.530	0.030	-0.700	0.260	54.340	-2.200	0.500																			1580008190.0	8.09	14.98
26/01/2020 03:09:51	26012020	260120	030951	54.550	12.440557	-57.601722	54.780	-0.030	-0.010	0.630	54.550	-1.800	0.800																			1580008191.0	7.81	14.46
26/01/2020 03:09:52	26012020	260120	030952	54.770	12.440575	-57.601693	54.840	-0.180	0.740	1.050	54.770	-0.900	1.200																			1580008192.0	7.17	13.28
26/01/2020 03:09:53	26012020	260120	030953	54.770	12.440590	-57.601667	54.720	-0.230	0.680	1.290	54.770	-0.600	1.600																			1580008193.0	6.63	12.28
26/01/2020 03:09:54	26012020	260120	030954	54.650	12.440607	-57.601638	54.660	-0.070	-0.210	1.130	54.650	-1.100	1.600																			1580008194.0	6.88	12.74
26/01/2020 03:09:55	26012020	260120	030955	54.610	12.440628	-57.601608	54.720	0.180	-0.940	0.650	54.620	-2.100	1.300																			1580008195.0	7.84	14.52
26/01/2020 03:09:56	26012020	260120	030956	54.700	12.440653	-57.601578	54.750	0.270	-0.810	0.150	54.700	-2.400	0.800																			1580008196.0	8.36	15.48
26/01/2020 03:09:57	26012020	260120	030957	54.730	12.440677	-57.601550	54.720	0.160	-0.240	-0.220	54.730	-1.900	0.300																			1580008197.0	7.80	14.45
26/01/2020 03:09:58	26012020	260120	030958	54.710	12.440698	-57.601527	54.720	0.080	0.030	-0.450	54.710	-1.400	0.000																			1580008198.0	6.95	12.87
26/01/2020 03:09:59	26012020	260120	030959	54.740	12.440720	-57.601502	54.790	0.160	-0.160	-0.510	54.740	-1.400	-0.100	1015.20	25.70	25.80	20.60	20.70	-1.00	73.00	73.00	391.00	25.10	6.00	8.60	65.00	4.80	15	3431.00	27.40	27.40	1580008199.0	6.91	12.80
26/01/2020 03:10:00	26012020	260120	031000	54.810	12.440740	-57.601473	54.830	0.200	-0.250	-0.390	54.810	-1.600	-0.100																			1580008200.0	7.50	13.89
26/01/2020 03:10:01	26012020	260120	031001	54.810	12.440762	-57.601442	54.800	-0.020	0.010	-0.200	54.810	-1.500	0.100																			1580008201.0	7.84	14.52
26/01/2020 03:10:02	26012020	260120	031002	54.770	12.440782	-57.601413	54.790	-0.360	0.320	0.040	54.770	-1.200	0.300																			1580008202.0	7.47	13.83
26/01/2020 03:10:03	26012020	260120	031003	54.780	12.440800	-57.601385	54.850	-0.500	0.220	0.320	54.780	-1.100	0.600																			1580008203.0	7.03	13.02
26/01/2020 03:10:04	26012020	260120	031004	54.860	12.440818	-57.601357	54.930	-0.350	-0.250	0.500	54.860	-1.400	0.800																			1580008204.0	7.14	13.22
26/01/2020 03:10:05	26012020	260120	031005	54.920	12.440837	-57.601327	54.940	-0.070	-0.640	0.680	54.920	-1.900	1.000																			1580008205.0	7.63	14.13
26/01/2020 03:10:06	26012020	260120	031006	54.920	12.440857	-57.601297	54.950	0.120	-0.580	0.840	54.920	-2.100	1.100																			1580008206.0	7.86	14.56
26/01/2020 03:10:07	26012020	260120	031007	54.930	12.440877	-57.601267	54.970	0.180	-0.210	0.860	54.940	-1.800	1.200																			1580008207.0	7.60	14.08
26/01/2020 03:10:08	26012020	260120	031008	54.930	12.440897	-57.601238	54.830	0.170	0.110	0.760	54.930	-1.400	1.200																			1580008208.0	7.16	13.26
26/01/2020 03:10:09	26012020	260120	031009	54.780	12.440915	-57.601212	54.680	0.220	0.010	0.520	54.780	-1.300	1.000																			1580008209.0	7.01	12.98
26/01/2020 03:10:10	26012020	260120	031010	54.660	12.440937	-57.601185	54.720	0.370	-0.480	0.100	54.660	-1.600	0.700																			1580008210.0	7.29	13.50
26/01/2020 03:10:11	26012020	260120	031011	54.750	12.440960	-57.601157	54.910	0.390	-0.690	-0.410	54.750	-2.100	0.200																			1580008211.0	7.87	14.58
26/01/2020 03:10:12	26012020	260120	031012	54.940	12.440985	-57.601127	55.030	0.050	-0.120	-0.690	54.940	-1.900	-0.200																			1580008212.0	8.12	15.04
26/01/2020 03:10:13	26012020	260120	031013	55.040	12.441008	-57.601100	55.030	-0.490	0.720	-0.590	55.040	-1.100	-0.300																			1580008213.0	7.46	13.82
26/01/2020 03:10:14	26012020	260120	031014	55.030	12.441027	-57.601077	55.020	-0.790	0.860	-0.190	55.030	-0.500	-0.000																			1580008214.0	6.57	12.17
26/01/2020 03:10:15	26012020	260120	031015	55.000	12.441043	-57.601050	54.990	-0.580	-0.000	0.260	55.000	-0.900	0.400																			1580008215.0	6.58	12.19
26/01/2020 03:10:16	26012020	260120	031016	54.980	12.441062	-57.601020	54.950	-0.080	-1.070	0.580	54.980	-2.000	0.800																			1580008216.0	7.58	14.04
26/01/2020 03:10:17	26012020	260120	031017	54.930	12.441082	-57.600985	54.900	0.330	-1.310	0.860	54.930	-2.700	1.100																			1580008217.0	8.44	15.63
26/01/2020 03:10:18	26012020	260120	031018	54.870	12.441102	-57.600952	54.890	0.420	-0.620	1.020	54.870	-2.400	1.300																			1580008218.0	8.21	15.20
26/01/2020 03:10:19	26012020	260120	031019	54.860	12.441120	-57.600923	54.930	0.320	0.160	0.870	54.870	-1.600	1.400																			1580008219.0	7.19	13.32
26/01/2020 03:10:20	26012020	260120	031020	54.930	12.441137	-57.600898	54.940	0.240	0.430	0.500	54.930	-1.000	1.100																			1580008220.0	6.60	12.22
26/01/2020 03:10:21	26012020	260120	031021	54.920	12.441158	-57.600873	54.870	0.200	0.340	0.140	54.920	-1.000	0.700																			1580008221.0	6.95	12.87
26/01/2020 03:10:22	26012020	260120	031022	54.860	12.441182	-57.600847	54.870	0.100	0.090	-0.170	54.860	-1.200	0.400																			1580008222.0	7.50	13.89
26/01/2020 03:10:23	26012020	260120	031023	54.890	12.441205	-57.600818	54.970	-0.060	-0.260	-0.390	54.890	-1.500	0.100																			1580008223.0	7.64	14.15
26/01/2020 03:10:24	26012020	260120	031024	54.980	12.441227	-57.600792	55.020	-0.240	-0.510	-0.450	54.980	-1.800	-0.100																			1580008224.0	7.66	14.19
26/01/2020 03:10:25	26012020	260120	031025	55.030	12.441248	-57.600762	55.050	-0.330	-0.500	-0.290	55.030	-1.900	-0.000																			1580008225.0	7.65	14.17
26/01/2020 03:10:26	26012020	260120	031026	55.070	12.441268	-57.600733	55.110	-0.270	-0.280	0.030	55.070	-1.800	0.200																			1580008226.0	7.46	13.82
26/01/2020 03:10:27	26012020	260120	031027	55.110	12.441287	-57.600703	55.110	-0.120	-0.020	0.390	55.110	-1.500	0.600																			1580008227.0	7.28	13.48
26/01/2020 03:10:28	26012020	260120	031028	55.070	12.441303	-57.600675	54.970	0.020	0.100	0.680	55.070	-1.300	0.900																			1580008228.0	7.20	13.33
26/01/2020 03:10:29	26012020	260120	031029	54.930	12.441322	-57.600645	54.840	0.100	0.020	0.770	54.930	-1.300	1.100																			1580008229.0	7.24	13.41
26/01/2020 03:10:30	26012020	260120	031030	54.820	12.441340	-57.600617	54.900	0.110	-0.170	0.650	54.820	-1.500	1.100																			1580008230.0	7.41	13.72
26/01/2020 03:10:31	26012020	260120	031031	54.890	12.441362	-57.600588	55.120	0.070	-0.340	0.430	54.930	-1.700	0.900																			1580008231.0	7.54	13.96
26/01/2020 03:10:32	26012020	260120	031032	55.150	12.441383	-57.600560	55.250	0.050	-0.410	0.200	55.150	-1.800	0.700																			1580008232.0	7.54	13.96
26/01/2020 03:10:33	26012020	260120	031033	55.250	12.441405	-57.600532	55.170	0.080	-0.270	0.110	55.250	-1.800	0.500																			1580008233.0	7.52	13.93
26/01/2020 03:10:34	26012020	260120	031034	55.130	12.441425	-57.600503	55.000	0.160	-0.150	0.120	55.130	-1.600	0.500																			1580008234.0	7.38	13.67
26/01/2020 03:10:35	26012020	260120	031035	54.990	12.441445	-57.600477	55.020	0.210	-0.180	0.050	54.990	-1.600	0.500																			1580008235.0	7.28	13.48
26/01/2020 03:10:36	26012020	260120	031036	55.040	12.441465	-57.600447	55.180	0.100	-0.120	-0.110	55.040	-1.600	0.400																			1580008236.0	7.50	13.89
26/01/2020 03:10:37	26012020	260120	031037	55.190	12.441487	-57.600418	55.260	-0.120	0.150	-0.200	55.190	-1.400	0.200																			1580008237.0	7.57	14.02
26/01/2020 03:10:38	26012020	260120	031038	55.270	12.441508	-57.600392	55.290	-0.250	0.260	-0.120	55.270	-1.100	0.200																			1580008238.0	7.24	13.41
26/01/2020 03:10:39	26012020	260120	031039	55.300	12.441527	-57.600365	55.290	-0.140	-0.110	0.150	55.300	-1.300	0.400																			1580008239.0	7.03	13.02
26/01/2020 03:10:40	26012020	260120	031040	55.290	12.441547	-57.600335	55.250	-0.010	-0.500	0.460	55.290	-1.800	0.700																			1580008240.0	7.42	13.74
26/01/2020 03:10:41	26012020	260120	031041	55.220	12.441565	-57.600303	55.160	-0.030	-0.510	0.630	55.220	-2.000	0.900																			1580008241.0	7.85	14.54
26/01/2020 03:10:42	26012020	260120	031042	55.140	12.441585	-57.600273	55.160	-0.070	-0.320	0.610	55.140	-1.800	1.000																			1580008242.0	7.59	14.06
26/01/2020 03:10:43	26012020	260120	031043	55.180	12.441603	-57.600247	55.280	0.040	-0.250	0.460	55.180	-1.700	0.900																			1580008243.0	7.22	13.37
26/01/2020 03:10:44	26012020	260120	031044	55.310	12.441623	-57.600218	55.310	0.180	-0.240	0.320	55.310	-1.700	0.800																			1580008244.0	7.27	13.46
26/01/2020 03:10:45	26012020	260120	031045	55.320	12.441645	-57.600190	55.300	0.170	-0.040	0.250	55.320	-1.600	0.600																			1580008245.0	7.52	13.93
26/01/2020 03:10:46	26012020	260120	031046	55.310	12.441665	-57.600162	55.330	-0.050	0.260	0.210	55.310	-1.300	0.600																			1580008246.0	7.45	13.80
26/01/2020 03:10:47	26012020	260120	031047	55.330	12.441685	-57.600133	55.350	-0.250	0.320	0.080	55.330	-1.100	0.500																			1580008247.0	7.15	13.24
26/01/2020 03:10:48	26012020	260120	031048	55.340	12.441703	-57.600107	55.340	-0.140	-0.100	-0.080	55.340	-1.300	0.400																			1580008248.0	7.07	13.09
26/01/2020 03:10:49	26012020	260120	031049	55.320	12.441725	-57.600078	55.300	0.230	-0.700	-0.130	55.320	-1.800	0.300																			1580008249.0	7.44	13.78
26/01/2020 03:10:50	26012020	260120	031050	55.290	12.441748	-57.600048	55.260	0.440	-0.830	-0.090	55.290	-2.300	0.300																			1580008250.0	7.99	14.80
26/01/2020 03:10:51	26012020	260120	031051	55.230	12.441770	-57.600018	55.220	0.260	-0.390	0.090	55.230	-2.100	0.400																			1580008251.0	7.92	14.67
26/01/2020 03:10:52	26012020	260120	031052	55.200	12.441788	-57.599990	55.270	-0.160	0.200	0.310	55.200	-1.500	0.600																			1580008252.0	7.31	13.54
26/01/2020 03:10:53	26012020	260120	031053	55.260	12.441807	-57.599963	55.370	-0.480	0.490	0.470	55.260	-1.000	0.800																			1580008253.0	6.85	12.69
26/01/2020 03:10:54	26012020	260120	031054	55.340	12.441823	-57.599935	55.370	-0.500	0.390	0.560	55.340	-0.900	0.900																			1580008254.0	6.90	12.78
26/01/2020 03:10:55	26012020	260120	031055	55.330	12.441842	-57.599907	55.270	-0.230	-0.020	0.510	55.330	-1.200	0.900																			1580008255.0	7.23	13.39
26/01/2020 03:10:56	26012020	260120	031056	55.230	12.441862	-57.599878	55.230	0.190	-0.530	0.390	55.230	-1.700	0.800																			1580008256.0	7.54	13.96
26/01/2020 03:10:57	26012020	260120	031057	55.200	12.441883	-57.599848	55.280	0.510	-0.830	0.280	55.200	-2.100	0.700																			1580008257.0	7.78	14.41
26/01/2020 03:10:58	26012020	260120	031058	55.280	12.441905	-57.599818	55.340	0.520	-0.750	0.180	55.280	-2.300	0.600																			1580008258.0	7.80	14.45
26/01/2020 03:10:59	26012020	260120	031059	55.300	12.441927	-57.599790	55.270	0.220	-0.280	0.130	55.300	-1.900	0.500	1015.20	25.70	25.80	20.60	20.70	-1.00	73.00	73.00	391.00	25.10	3.00	8.50	60.00	4.70	15	3328.00	27.40	27.40	1580008259.0	7.57	14.02
26/01/2020 03:11:00	26012020	260120	031100	55.240	12.441947	-57.599763	55.250	-0.140	0.190	0.160	55.240	-1.400	0.500																			1580008260.0	7.21	13.35
26/01/2020 03:11:01	26012020	260120	031101	55.240	12.441967	-57.599737	55.280	-0.310	0.250	0.250	55.240	-1.100	0.600																			1580008261.0	6.93	12.83
26/01/2020 03:11:02	26012020	260120	031102	55.270	12.441985	-57.599708	55.270	-0.250	0.060	0.320	55.270	-1.300	0.700																			1580008262.0	7.18	13.30
26/01/2020 03:11:03	26012020	260120	031103	55.250	12.442005	-57.599678	55.140	-0.180	0.030	0.360	55.250	-1.400	0.700																			1580008263.0	7.64	14.15
26/01/2020 03:11:04	26012020	260120	031104	55.110	12.442023	-57.599648	55.030	-0.170	0.090	0.370	55.110	-1.300	0.800																			1580008264.0	7.60	14.08
26/01/2020 03:11:05	26012020	260120	031105	55.030	12.442043	-57.599620	55.130	-0.100	-0.080	0.200	55.030	-1.400	0.700																			1580008265.0	7.25	13.43
26/01/2020 03:11:06	26012020	260120	031106	55.170	12.442063	-57.599592	55.350	0.070	-0.450	-0.170	55.170	-1.700	0.400																			1580008266.0	7.24	13.41
26/01/2020 03:11:07	26012020	260120	031107	55.380	12.442085	-57.599563	55.410	0.210	-0.600	-0.400	55.380	-2.000	0.000																			1580008267.0	7.58	14.04
26/01/2020 03:11:08	26012020	260120	031108	55.420	12.442108	-57.599537	55.230	0.240	-0.450	-0.200	55.420	-2.000	0.000																			1580008268.0	7.67	14.20
26/01/2020 03:11:09	26012020	260120	031109	55.210	12.442128	-57.599508	55.000	0.160	-0.230	0.170	55.210	-1.700	0.400																			1580008269.0	7.39	13.69
26/01/2020 03:11:10	26012020	260120	031110	54.980	12.442147	-57.599480	54.900	0.060	-0.120	0.430	54.980	-1.600	0.700																			1580008270.0	7.21	13.35
26/01/2020 03:11:11	26012020	260120	031111	54.890	12.442167	-57.599452	54.920	0.010	-0.070	0.610	54.890	-1.500	0.900																			1580008271.0	7.32	13.56
26/01/2020 03:11:12	26012020	260120	031112	54.930	12.442185	-57.599422	55.000	-0.010	-0.010	0.710	54.930	-1.400	1.000																			1580008272.0	7.43	13.76
26/01/2020 03:11:13	26012020	260120	031113	55.010	12.442205	-57.599393	55.070	-0.090	0.020	0.680	55.010	-1.400	1.100																			1580008273.0	7.44	13.78
26/01/2020 03:11:14	26012020	260120	031114	55.070	12.442223	-57.599363	55.160	-0.180	-0.070	0.550	55.070	-1.400	1.000																			1580008274.0	7.38	13.67
26/01/2020 03:11:15	26012020	260120	031115	55.150	12.442243	-57.599335	55.240	-0.200	-0.210	0.330	55.150	-1.600	0.800																			1580008275.0	7.42	13.74
26/01/2020 03:11:16	26012020	260120	031116	55.240	12.442263	-57.599307	55.270	-0.090	-0.260	0.150	55.240	-1.700	0.600																			1580008276.0	7.50	13.89
26/01/2020 03:11:17	26012020	260120	031117	55.250	12.442285	-57.599278	55.130	0.070	-0.150	0.120	55.250	-1.600	0.500																			1580008277.0	7.51	13.91
26/01/2020 03:11:18	26012020	260120	031118	55.090	12.442305	-57.599250	54.910	0.160	-0.050	0.110	55.090	-1.500	0.500																			1580008278.0	7.38	13.67
26/01/2020 03:11:19	26012020	260120	031119	54.870	12.442325	-57.599222	54.780	0.140	-0.150	-0.000	54.870	-1.500	0.400																			1580008279.0	7.24	13.41
26/01/2020 03:11:20	26012020	260120	031120	54.760	12.442347	-57.599195	54.800	0.020	-0.330	-0.210	54.760	-1.700	0.300																			1580008280.0	7.37	13.65
26/01/2020 03:11:21	26012020	260120	031121	54.790	12.442368	-57.599167	54.960	-0.100	-0.330	-0.350	54.820	-1.800	0.100																			1580008281.0	7.57	14.02
26/01/2020 03:11:22	26012020	260120	031122	54.990	12.442390	-57.599140	55.130	-0.140	-0.180	-0.230	54.990	-1.700	0.100																			1580008282.0	7.51	13.91
26/01/2020 03:11:23	26012020	260120	031123	55.170	12.442410	-57.599112	55.260	-0.110	-0.120	0.130	55.170	-1.500	0.300																			1580008283.0	7.30	13.52
26/01/2020 03:11:24	26012020	260120	031124	55.270	12.442428	-57.599082	55.310	-0.080	-0.210	0.490	55.270	-1.600	0.700																			1580008284.0	7.31	13.54
26/01/2020 03:11:25	26012020	260120	031125	55.300	12.442447	-57.599052	55.240	-0.030	-0.220	0.790	55.300	-1.700	1.000																			1580008285.0	7.54	13.96
26/01/2020 03:11:26	26012020	260120	031126	55.210	12.442465	-57.599020	55.090	0.090	-0.120	0.960	55.210	-1.600	1.300																			1580008286.0	7.60	14.08
26/01/2020 03:11:27	26012020	260120	031127	55.050	12.442483	-57.598990	54.980	0.220	-0.060	0.860	55.050	-1.500	1.300																			1580008287.0	7.43	13.76
26/01/2020 03:11:28	26012020	260120	031128	54.950	12.442502	-57.598962	54.960	0.270	-0.090	0.510	54.950	-1.500	1.100																			1580008288.0	7.37	13.65
26/01/2020 03:11:29	26012020	260120	031129	54.940	12.442523	-57.598935	54.950	0.200	-0.120	0.090	54.940	-1.500	0.700																			1580008289.0	7.45	13.80
26/01/2020 03:11:30	26012020	260120	031130	54.950	12.442547	-57.598908	55.030	0.050	-0.160	-0.320	54.950	-1.600	0.300																			1580008290.0	7.48	13.85
26/01/2020 03:11:31	26012020	260120	031131	55.060	12.442570	-57.598880	55.140	-0.090	-0.160	-0.550	55.060	-1.600	-0.100																			1580008291.0	7.47	13.83
26/01/2020 03:11:32	26012020	260120	031132	55.170	12.442592	-57.598853	55.110	-0.210	-0.090	-0.480	55.170	-1.500	-0.200																			1580008292.0	7.46	13.82
26/01/2020 03:11:33	26012020	260120	031133	55.110	12.442612	-57.598827	54.940	-0.250	-0.100	-0.190	55.110	-1.500	0.000																			1580008293.0	7.37	13.65
26/01/2020 03:11:34	26012020	260120	031134	54.930	12.442632	-57.598797	54.840	-0.160	-0.280	0.130	54.930	-1.600	0.400																			1580008294.0	7.35	13.61
26/01/2020 03:11:35	26012020	260120	031135	54.850	12.442650	-57.598767	54.900	0.000	-0.500	0.370	54.850	-1.800	0.600																			1580008295.0	7.51	13.91
26/01/2020 03:11:36	26012020	260120	031136	54.940	12.442670	-57.598737	55.020	0.060	-0.450	0.600	54.940	-1.900	0.900																			1580008296.0	7.71	14.28
26/01/2020 03:11:37	26012020	260120	031137	55.040	12.442688	-57.598705	55.060	-0.060	-0.020	0.790	55.040	-1.700	1.100																			1580008297.0	7.66	14.19
26/01/2020 03:11:38	26012020	260120	031138	55.060	12.442707	-57.598677	55.060	-0.180	0.290	0.900	55.060	-1.200	1.200																			1580008298.0	7.23	13.39
26/01/2020 03:11:39	26012020	260120	031139	55.040	12.442723	-57.598648	55.010	-0.100	0.110	0.850	55.040	-1.200	1.300																			1580008299.0	6.95	12.87
26/01/2020 03:11:40	26012020	260120	031140	54.990	12.442743	-57.598620	54.910	0.160	-0.280	0.640	54.990	-1.500	1.100																			1580008300.0	7.33	13.58
26/01/2020 03:11:41	26012020	260120	031141	54.890	12.442765	-57.598592	54.830	0.410	-0.520	0.300	54.890	-1.800	0.900																			1580008301.0	7.80	14.45
26/01/2020 03:11:42	26012020	260120	031142	54.820	12.442788	-57.598563	54.790	0.460	-0.490	-0.050	54.820	-1.900	0.500																			1580008302.0	7.85	14.54
26/01/2020 03:11:43	26012020	260120	031143	54.790	12.442812	-57.598535	54.740	0.280	-0.270	-0.290	54.790	-1.800	0.200																			1580008303.0	7.64	14.15
26/01/2020 03:11:44	26012020	260120	031144	54.760	12.442833	-57.598508	54.720	-0.050	0.050	-0.400	54.760	-1.500	0.000																			1580008304.0	7.42	13.74
26/01/2020 03:11:45	26012020	260120	031145	54.760	12.442855	-57.598482	54.840	-0.290	0.200	-0.300	54.760	-1.200	0.000																			1580008305.0	7.20	13.33
26/01/2020 03:11:46	26012020	260120	031146	54.880	12.442873	-57.598453	55.000	-0.350	0.060	-0.020	54.880	-1.300	0.200																			1580008306.0	7.16	13.26
26/01/2020 03:11:47	26012020	260120	031147	55.000	12.442893	-57.598425	55.030	-0.320	-0.100	0.300	55.020	-1.400	0.500																			1580008307.0	7.46	13.82
26/01/2020 03:11:48	26012020	260120	031148	55.030	12.442912	-57.598393	54.940	-0.260	-0.200	0.610	55.030	-1.600	0.900																			1580008308.0	7.64	14.15
26/01/2020 03:11:49	26012020	260120	031149	54.930	12.442930	-57.598363	54.870	-0.130	-0.300	0.780	54.930	-1.700	1.100																			1580008309.0	7.53	13.95
26/01/2020 03:11:50	26012020	260120	031150	54.860	12.442948	-57.598333	54.860	0.080	-0.420	0.740	54.860	-1.800	1.200																			1580008310.0	7.46	13.82
26/01/2020 03:11:51	26012020	260120	031151	54.870	12.442968	-57.598303	54.920	0.300	-0.480	0.480	54.870	-1.900	1.000																			1580008311.0	7.51	13.91
26/01/2020 03:11:52	26012020	260120	031152	54.920	12.442990	-57.598275	54.850	0.350	-0.290	0.350	54.920	-1.800	0.800																			1580008312.0	7.60	14.08
26/01/2020 03:11:53	26012020	260120	031153	54.820	12.443012	-57.598248	54.640	0.120	0.190	0.340	54.820	-1.500	0.700																			1580008313.0	7.55	13.98
26/01/2020 03:11:54	26012020	260120	031154	54.580	12.443032	-57.598222	54.490	-0.230	0.460	0.190	54.580	-1.000	0.700																			1580008314.0	7.17	13.28
26/01/2020 03:11:55	26012020	260120	031155	54.480	12.443052	-57.598195	54.560	-0.340	0.080	-0.070	54.480	-1.100	0.400																			1580008315.0	6.92	12.82
26/01/2020 03:11:56	26012020	260120	031156	54.590	12.443073	-57.598168	54.710	-0.110	-0.640	-0.240	54.590	-1.700	0.200																			1580008316.0	7.34	13.59
26/01/2020 03:11:57	26012020	260120	031157	54.750	12.443097	-57.598138	54.780	0.210	-1.000	-0.250	54.750	-2.300	0.100																			1580008317.0	8.03	14.87
26/01/2020 03:11:58	26012020	260120	031158	54.790	12.443118	-57.598107	54.750	0.300	-0.660	0.000	54.790	-2.300	0.200																			1580008318.0	8.17	15.13
26/01/2020 03:11:59	26012020	260120	031159	54.760	12.443138	-57.598077	54.700	0.050	0.160	0.440	54.750	-1.600	0.600	1015.20	25.80	25.80	20.70	20.70	-1.00	73.00	73.00	390.00	25.10	6.00	8.60	65.00	4.80	15	3276.00	27.40	27.40	1580008319.0	7.69	14.24
26/01/2020 03:12:00	26012020	260120	031200	54.690	12.443155	-57.598048	54.670	-0.300	0.780	0.650	54.690	-0.800	1.000																			1580008320.0	6.95	12.87
26/01/2020 03:12:01	26012020	260120	031201	54.660	12.443170	-57.598022	54.610	-0.370	0.660	0.520	54.650	-0.600	1.000																			1580008321.0	6.60	12.22
26/01/2020 03:12:02	26012020	260120	031202	54.600	12.443190	-57.597995	54.530	-0.010	-0.110	0.360	54.600	-1.100	0.800																			1580008322.0	6.98	12.93
26/01/2020 03:12:03	26012020	260120	031203	54.500	12.443212	-57.597965	54.470	0.440	-0.910	0.250	54.500	-2.000	0.700																			1580008323.0	7.79	14.43
26/01/2020 03:12:04	26012020	260120	031204	54.470	12.443237	-57.597935	54.480	0.530	-1.050	0.050	54.470	-2.500	0.500																			1580008324.0	8.27	15.32
26/01/2020 03:12:05	26012020	260120	031205	54.500	12.443260	-57.597905	54.500	0.180	-0.410	-0.100	54.500	-2.200	0.300																			1580008325.0	8.01	14.83
26/01/2020 03:12:06	26012020	260120	031206	54.510	12.443282	-57.597880	54.520	-0.290	0.370	-0.000	54.510	-1.400	0.300																			1580008326.0	7.18	13.30
26/01/2020 03:12:07	26012020	260120	031207	54.530	12.443300	-57.597855	54.610	-0.540	0.540	0.220	54.530	-0.800	0.500																			1580008327.0	6.54	12.11
26/01/2020 03:12:08	26012020	260120	031208	54.630	12.443317	-57.597828	54.740	-0.500	0.080	0.360	54.630	-1.100	0.700																			1580008328.0	6.80	12.59
26/01/2020 03:12:09	26012020	260120	031209	54.750	12.443337	-57.597798	54.790	-0.290	-0.430	0.480	54.750	-1.600	0.800																			1580008329.0	7.56	14.00
26/01/2020 03:12:10	26012020	260120	031210	54.780	12.443355	-57.597767	54.720	-0.070	-0.530	0.630	54.780	-1.900	0.900																			1580008330.0	7.96	14.74
26/01/2020 03:12:11	26012020	260120	031211	54.730	12.443375	-57.597735	54.600	0.120	-0.390	0.670	54.710	-1.900	1.100																			1580008331.0	7.70	14.26
26/01/2020 03:12:12	26012020	260120	031212	54.590	12.443393	-57.597707	54.480	0.310	-0.320	0.460	54.590	-1.700	1.000																			1580008332.0	7.29	13.50
26/01/2020 03:12:13	26012020	260120	031213	54.470	12.443413	-57.597678	54.390	0.500	-0.290	0.020	54.470	-1.700	0.600																			1580008333.0	7.28	13.48
26/01/2020 03:12:14	26012020	260120	031214	54.400	12.443437	-57.597653	54.370	0.600	-0.120	-0.450	54.400	-1.600	0.100																			1580008334.0	7.49	13.87
26/01/2020 03:12:15	26012020	260120	031215	54.420	12.443460	-57.597627	54.480	0.490	0.150	-0.770	54.420	-1.400	-0.300																			1580008335.0	7.53	13.95
26/01/2020 03:12:16	26012020	260120	031216	54.540	12.443483	-57.597602	54.570	0.140	0.230	-0.810	54.540	-1.200	-0.400																			1580008336.0	7.28	13.48
26/01/2020 03:12:17	26012020	260120	031217	54.600	12.443505	-57.597575	54.560	-0.270	-0.010	-0.540	54.600	-1.300	-0.300																			1580008337.0	7.22	13.37
26/01/2020 03:12:18	26012020	260120	031218	54.570	12.443525	-57.597547	54.580	-0.540	-0.310	-0.030	54.570	-1.600	0.100																			1580008338.0	7.45	13.80
26/01/2020 03:12:19	26012020	260120	031219	54.600	12.443545	-57.597517	54.660	-0.600	-0.390	0.510	54.600	-1.800	0.600																			1580008339.0	7.67	14.20
26/01/2020 03:12:20	26012020	260120	031220	54.680	12.443562	-57.597485	54.700	-0.530	-0.200	0.940	54.680	-1.700	1.100																			1580008340.0	7.59	14.06
26/01/2020 03:12:21	26012020	260120	031221	54.680	12.443578	-57.597455	54.570	-0.360	0.020	1.290	54.680	-1.500	1.500																			1580008341.0	7.31	13.54
26/01/2020 03:12:22	26012020	260120	031222	54.530	12.443595	-57.597425	54.410	-0.050	-0.060	1.460	54.530	-1.400	1.800																			1580008342.0	7.08	13.11
26/01/2020 03:12:23	26012020	260120	031223	54.370	12.443612	-57.597397	54.360	0.340	-0.460	1.190	54.370	-1.600	1.700																			1580008343.0	7.23	13.39
26/01/2020 03:12:24	26012020	260120	031224	54.340	12.443633	-57.597367	54.360	0.590	-0.740	0.570	54.340	-2.100	1.300																			1580008344.0	7.64	14.15
26/01/2020 03:12:25	26012020	260120	031225	54.370	12.443657	-57.597338	54.320	0.520	-0.410	-0.100	54.370	-2.000	0.600																			1580008345.0	7.97	14.76
26/01/2020 03:12:26	26012020	260120	031226	54.350	12.443682	-57.597312	54.280	0.240	0.180	-0.700	54.350	-1.500	-0.000																			1580008346.0	7.62	14.11
26/01/2020 03:12:27	26012020	260120	031227	54.340	12.443705	-57.597288	54.360	0.060	0.350	-1.120	54.340	-1.100	-0.600																			1580008347.0	7.01	12.98
26/01/2020 03:12:28	26012020	260120	031228	54.440	12.443727	-57.597265	54.500	0.060	0.060	-1.220	54.440	-1.200	-0.800																			1580008348.0	7.01	12.98
26/01/2020 03:12:29	26012020	260120	031229	54.560	12.443750	-57.597237	54.480	0.020	-0.220	-0.820	54.560	-1.500	-0.700																			1580008349.0	7.54	13.96
26/01/2020 03:12:30	26012020	260120	031230	54.480	12.443770	-57.597207	54.260	-0.210	-0.220	-0.160	54.480	-1.600	-0.100																			1580008350.0	7.79	14.43
26/01/2020 03:12:31	26012020	260120	031231	54.230	12.443788	-57.597177	54.090	-0.440	-0.140	0.470	54.230	-1.600	0.600																			1580008351.0	7.51	13.91
26/01/2020 03:12:32	26012020	260120	031232	54.080	12.443805	-57.597147	54.150	-0.400	-0.310	0.900	54.080	-1.600	1.100																			1580008352.0	7.20	13.33
26/01/2020 03:12:33	26012020	260120	031233	54.160	12.443823	-57.597118	54.320	-0.110	-0.540	1.170	54.160	-1.900	1.400																			1580008353.0	7.35	13.61
26/01/2020 03:12:34	26012020	260120	031234	54.330	12.443843	-57.597087	54.350	0.080	-0.280	1.260	54.330	-1.900	1.600																			1580008354.0	7.71	14.28
26/01/2020 03:12:35	26012020	260120	031235	54.340	12.443862	-57.597057	54.240	0.040	0.300	1.210	54.340	-1.400	1.600																			1580008355.0	7.56	14.00
26/01/2020 03:12:36	26012020	260120	031236	54.200	12.443880	-57.597030	54.140	-0.020	0.410	0.980	54.200	-0.900	1.500																			1580008356.0	6.88	12.74
26/01/2020 03:12:37	26012020	260120	031237	54.140	12.443900	-57.597005	54.160	0.150	-0.230	0.410	54.140	-1.300	1.100																			1580008357.0	6.77	12.54
26/01/2020 03:12:38	26012020	260120	031238	54.180	12.443922	-57.596977	54.130	0.430	-0.880	-0.260	54.180	-2.000	0.400																			1580008358.0	7.57	14.02
26/01/2020 03:12:39	26012020	260120	031239	54.150	12.443948	-57.596948	54.010	0.500	-0.780	-0.730	54.150	-2.300	-0.200																			1580008359.0	8.24	15.26
26/01/2020 03:12:40	26012020	260120	031240	54.030	12.443973	-57.596922	53.910	0.260	-0.140	-0.850	54.030	-1.900	-0.400																			1580008360.0	7.89	14.61
26/01/2020 03:12:41	26012020	260120	031241	53.940	12.443997	-57.596898	53.910	-0.090	0.370	-0.790	53.940	-1.200	-0.400																			1580008361.0	7.05	13.06
26/01/2020 03:12:42	26012020	260120	031242	53.980	12.444017	-57.596873	54.070	-0.300	0.370	-0.620	53.980	-1.000	-0.300																			1580008362.0	6.77	12.54
26/01/2020 03:12:43	26012020	260120	031243	54.140	12.444037	-57.596847	54.210	-0.330	0.060	-0.170	54.140	-1.200	-0.100																			1580008363.0	7.12	13.19
26/01/2020 03:12:44	26012020	260120	031244	54.230	12.444055	-57.596817	54.210	-0.360	-0.190	0.500	54.230	-1.500	0.500																			1580008364.0	7.59	14.06
26/01/2020 03:12:45	26012020	260120	031245	54.200	12.444073	-57.596785	54.200	-0.410	-0.320	1.030	54.200	-1.700	1.200																			1580008365.0	7.69	14.24
26/01/2020 03:12:46	26012020	260120	031246	54.180	12.444090	-57.596753	54.260	-0.270	-0.460	1.180	54.180	-1.800	1.500																			1580008366.0	7.46	13.82
26/01/2020 03:12:47	26012020	260120	031247	54.260	12.444108	-57.596723	54.320	0.160	-0.620	1.080	54.260	-2.000	1.500																			1580008367.0	7.34	13.59
26/01/2020 03:12:48	26012020	260120	031248	54.320	12.444128	-57.596695	54.310	0.600	-0.510	0.880	54.320	-2.000	1.400																			1580008368.0	7.52	13.93
26/01/2020 03:12:49	26012020	260120	031249	54.310	12.444152	-57.596668	54.250	0.670	-0.070	0.620	54.290	-1.700	1.100																			1580008369.0	7.58	14.04
26/01/2020 03:12:50	26012020	260120	031250	54.250	12.444173	-57.596642	54.190	0.340	0.360	0.290	54.250	-1.200	0.800																			1580008370.0	7.26	13.45
26/01/2020 03:12:51	26012020	260120	031251	54.200	12.444195	-57.596617	54.180	-0.060	0.320	-0.160	54.200	-1.000	0.500																			1580008371.0	6.98	12.93
26/01/2020 03:12:52	26012020	260120	031252	54.210	12.444217	-57.596592	54.270	-0.230	-0.130	-0.670	54.210	-1.300	-0.100																			1580008372.0	7.18	13.30
26/01/2020 03:12:53	26012020	260120	031253	54.340	12.444242	-57.596565	54.460	-0.210	-0.410	-0.880	54.340	-1.700	-0.400																			1580008373.0	7.70	14.26
26/01/2020 03:12:54	26012020	260120	031254	54.530	12.444265	-57.596537	54.570	-0.240	-0.230	-0.700	54.530	-1.800	-0.400																			1580008374.0	7.85	14.54
26/01/2020 03:12:55	26012020	260120	031255	54.620	12.444285	-57.596508	54.560	-0.310	-0.020	-0.300	54.620	-1.500	-0.100																			1580008375.0	7.35	13.61
26/01/2020 03:12:56	26012020	260120	031256	54.570	12.444303	-57.596480	54.490	-0.210	-0.270	0.180	54.570	-1.500	0.300																			1580008376.0	6.94	12.85
26/01/2020 03:12:57	26012020	260120	031257	54.510	12.444320	-57.596452	54.540	0.040	-0.580	0.510	54.510	-1.900	0.800																			1580008377.0	7.29	13.50
26/01/2020 03:12:58	26012020	260120	031258	54.590	12.444340	-57.596420	54.690	0.180	-0.390	0.640	54.590	-1.900	1.000																			1580008378.0	7.82	14.48
26/01/2020 03:12:59	26012020	260120	031259	54.730	12.444360	-57.596390	54.760	0.130	0.130	0.700	54.730	-1.500	1.100	1015.20	25.70	25.80	20.80	20.80	-1.00	74.00	74.00	390.00	25.10	11.00	8.70	73.00	5.00	15	3171.00	27.40	27.40	1580008379.0	7.57	14.02
26/01/2020 03:13:00	26012020	260120	031300	54.770	12.444378	-57.596363	54.670	0.040	0.370	0.680	54.770	-1.100	1.100																			1580008380.0	6.96	12.89
26/01/2020 03:13:01	26012020	260120	031301	54.700	12.444397	-57.596338	54.570	0.060	-0.030	0.490	54.670	-1.200	1.000																			1580008381.0	6.83	12.65
26/01/2020 03:13:02	26012020	260120	031302	54.590	12.444418	-57.596310	54.600	0.220	-0.640	0.110	54.590	-1.800	0.700																			1580008382.0	7.38	13.67
26/01/2020 03:13:03	26012020	260120	031303	54.640	12.444443	-57.596282	54.710	0.320	-0.800	-0.150	54.640	-2.200	0.300																			1580008383.0	8.00	14.82
26/01/2020 03:13:04	26012020	260120	031304	54.770	12.444467	-57.596253	54.800	0.220	-0.310	-0.230	54.770	-2.000	0.200																			1580008384.0	7.97	14.76
26/01/2020 03:13:05	26012020	260120	031305	54.850	12.444488	-57.596227	54.840	-0.090	0.320	-0.240	54.850	-1.400	0.200																			1580008385.0	7.31	13.54
26/01/2020 03:13:06	26012020	260120	031306	54.900	12.444508	-57.596200	54.930	-0.430	0.520	-0.240	54.900	-0.900	0.100																			1580008386.0	6.79	12.58
26/01/2020 03:13:07	26012020	260120	031307	54.990	12.444527	-57.596175	55.030	-0.570	0.260	-0.160	54.990	-1.000	0.200																			1580008387.0	6.89	12.76
26/01/2020 03:13:08	26012020	260120	031308	55.080	12.444547	-57.596147	55.100	-0.410	-0.120	0.000	55.080	-1.300	0.300																			1580008388.0	7.34	13.59
26/01/2020 03:13:09	26012020	260120	031309	55.140	12.444567	-57.596117	55.140	-0.070	-0.520	0.150	55.140	-1.700	0.500																			1580008389.0	7.61	14.09
26/01/2020 03:13:10	26012020	260120	031310	55.170	12.444587	-57.596087	55.130	0.310	-0.880	0.400	55.170	-2.100	0.600																			1580008390.0	7.60	14.08
26/01/2020 03:13:11	26012020	260120	031311	55.140	12.444605	-57.596055	55.030	0.480	-0.770	0.640	55.140	-2.300	0.900																			1580008391.0	7.73	14.32
26/01/2020 03:13:12	26012020	260120	031312	55.030	12.444625	-57.596025	54.900	0.370	-0.200	0.660	55.030	-1.900	1.100																			1580008392.0	7.65	14.17
26/01/2020 03:13:13	26012020	260120	031313	54.930	12.444643	-57.595998	54.860	0.150	0.340	0.460	54.920	-1.300	1.000																			1580008393.0	7.11	13.17
26/01/2020 03:13:14	26012020	260120	031314	54.900	12.444663	-57.595972	54.920	0.010	0.430	0.050	54.900	-0.900	0.600																			1580008394.0	6.81	12.61
26/01/2020 03:13:15	26012020	260120	031315	54.940	12.444685	-57.595947	55.010	-0.000	0.070	-0.420	54.960	-1.100	0.200																			1580008395.0	7.08	13.11
26/01/2020 03:13:16	26012020	260120	031316	55.080	12.444708	-57.595920	55.130	0.020	-0.360	-0.670	55.080	-1.600	-0.200																			1580008396.0	7.61	14.09
26/01/2020 03:13:17	26012020	260120	031317	55.190	12.444733	-57.595893	55.150	-0.040	-0.460	-0.520	55.190	-1.900	-0.200																			1580008397.0	7.93	14.69
26/01/2020 03:13:18	26012020	260120	031318	55.180	12.444755	-57.595863	55.100	-0.230	-0.250	-0.080	55.180	-1.800	0.100																			1580008398.0	7.72	14.30
26/01/2020 03:13:19	26012020	260120	031319	55.130	12.444773	-57.595835	55.070	-0.410	-0.080	0.470	55.130	-1.500	0.600																			1580008399.0	7.27	13.46
26/01/2020 03:13:20	26012020	260120	031320	55.100	12.444788	-57.595805	55.100	-0.390	-0.080	0.880	55.100	-1.500	1.100																			1580008400.0	7.12	13.19
26/01/2020 03:13:21	26012020	260120	031321	55.130	12.444805	-57.595775	55.150	-0.120	-0.210	0.960	55.130	-1.500	1.300																			1580008401.0	7.29	13.50
26/01/2020 03:13:22	26012020	260120	031322	55.180	12.444823	-57.595745	55.150	0.220	-0.250	0.840	55.180	-1.700	1.300																			1580008402.0	7.45	13.80
26/01/2020 03:13:23	26012020	260120	031323	55.180	12.444843	-57.595715	55.140	0.390	-0.130	0.600	55.180	-1.600	1.100																			1580008403.0	7.52	13.93
26/01/2020 03:13:24	26012020	260120	031324	55.180	12.444865	-57.595688	55.180	0.330	-0.030	0.180	55.180	-1.500	0.800																			1580008404.0	7.38	13.67
26/01/2020 03:13:25	26012020	260120	031325	55.230	12.444887	-57.595662	55.260	0.230	-0.170	-0.290	55.230	-1.500	0.300																			1580008405.0	7.24	13.41
26/01/2020 03:13:26	26012020	260120	031326	55.320	12.444910	-57.595637	55.310	0.220	-0.430	-0.580	55.320	-1.700	-0.100																			1580008406.0	7.40	13.70
26/01/2020 03:13:27	26012020	260120	031327	55.360	12.444935	-57.595610	55.260	0.160	-0.450	-0.510	55.360	-1.900	-0.200																			1580008407.0	7.70	14.26
26/01/2020 03:13:28	26012020	260120	031328	55.290	12.444957	-57.595580	55.200	-0.100	-0.110	-0.180	55.290	-1.700	0.000																			1580008408.0	7.70	14.26
26/01/2020 03:13:29	26012020	260120	031329	55.230	12.444975	-57.595552	55.260	-0.430	0.250	0.180	55.230	-1.300	0.400																			1580008409.0	7.30	13.52
26/01/2020 03:13:30	26012020	260120	031330	55.310	12.444992	-57.595523	55.410	-0.520	0.190	0.400	55.310	-1.100	0.700																			1580008410.0	6.95	12.87
26/01/2020 03:13:31	26012020	260120	031331	55.460	12.445008	-57.595495	55.530	-0.260	-0.190	0.520	55.460	-1.400	0.900																			1580008411.0	7.12	13.19
26/01/2020 03:13:32	26012020	260120	031332	55.550	12.445027	-57.595463	55.480	0.100	-0.430	0.590	55.550	-1.800	0.900																			1580008412.0	7.61	14.09
26/01/2020 03:13:33	26012020	260120	031333	55.480	12.445047	-57.595433	55.310	0.270	-0.360	0.590	55.480	-1.800	1.000																			1580008413.0	7.78	14.41
26/01/2020 03:13:34	26012020	260120	031334	55.300	12.445067	-57.595405	55.230	0.220	-0.160	0.420	55.300	-1.700	0.900																			1580008414.0	7.50	13.89
26/01/2020 03:13:35	26012020	260120	031335	55.250	12.445088	-57.595378	55.360	0.160	-0.100	0.030	55.250	-1.500	0.600																			1580008415.0	7.20	13.33
26/01/2020 03:13:36	26012020	260120	031336	55.430	12.445110	-57.595352	55.580	0.160	-0.150	-0.380	55.430	-1.500	0.200																			1580008416.0	7.20	13.33
26/01/2020 03:13:37	26012020	260120	031337	55.660	12.445132	-57.595325	55.680	0.170	-0.190	-0.480	55.660	-1.600	-0.100																			1580008417.0	7.39	13.69
26/01/2020 03:13:38	26012020	260120	031338	55.710	12.445153	-57.595297	55.490	0.090	-0.200	-0.160	55.710	-1.600	0.000																			1580008418.0	7.46	13.82
26/01/2020 03:13:39	26012020	260120	031339	55.480	12.445173	-57.595268	55.180	-0.090	-0.200	0.230	55.480	-1.600	0.500																			1580008419.0	7.46	13.82
26/01/2020 03:13:40	26012020	260120	031340	55.180	12.445192	-57.595240	55.130	-0.210	-0.270	0.350	55.180	-1.600	0.700																			1580008420.0	7.42	13.74
26/01/2020 03:13:41	26012020	260120	031341	55.200	12.445212	-57.595210	55.320	-0.200	-0.240	0.320	55.200	-1.700	0.700																			1580008421.0	7.44	13.78
26/01/2020 03:13:42	26012020	260120	031342	55.410	12.445232	-57.595182	55.510	-0.210	0.050	0.340	55.410	-1.500	0.700																			1580008422.0	7.51	13.91
26/01/2020 03:13:43	26012020	260120	031343	55.580	12.445250	-57.595152	55.610	-0.310	0.300	0.340	55.580	-1.200	0.700																			1580008423.0	7.27	13.46
26/01/2020 03:13:44	26012020	260120	031344	55.630	12.445268	-57.595125	55.570	-0.280	0.120	0.340	55.630	-1.100	0.700																			1580008424.0	6.99	12.95
26/01/2020 03:13:45	26012020	260120	031345	55.590	12.445287	-57.595097	55.530	0.030	-0.400	0.240	55.590	-1.500	0.700																			1580008425.0	7.18	13.30
26/01/2020 03:13:46	26012020	260120	031346	55.540	12.445307	-57.595067	55.480	0.480	-0.790	0.040	55.540	-2.000	0.500																			1580008426.0	7.67	14.20
26/01/2020 03:13:47	26012020	260120	031347	55.510	12.445330	-57.595037	55.410	0.700	-0.630	-0.160	55.510	-2.200	0.300																			1580008427.0	7.93	14.69
26/01/2020 03:13:48	26012020	260120	031348	55.440	12.445352	-57.595008	55.350	0.510	-0.120	-0.290	55.440	-1.800	0.200																			1580008428.0	7.64	14.15
26/01/2020 03:13:49	26012020	260120	031349	55.390	12.445373	-57.594983	55.350	0.130	0.240	-0.310	55.380	-1.300	0.100																			1580008429.0	7.08	13.11
26/01/2020 03:13:50	26012020	260120	031350	55.380	12.445393	-57.594958	55.380	-0.190	0.230	-0.160	55.380	-1.100	0.100																			1580008430.0	6.91	12.80
26/01/2020 03:13:51	26012020	260120	031351	55.390	12.445413	-57.594930	55.460	-0.370	-0.020	-0.000	55.400	-1.300	0.300																			1580008431.0	7.23	13.39
26/01/2020 03:13:52	26012020	260120	031352	55.490	12.445433	-57.594900	55.550	-0.450	-0.250	0.220	55.490	-1.600	0.500																			1580008432.0	7.54	13.96
26/01/2020 03:13:53	26012020	260120	031353	55.570	12.445453	-57.594870	55.570	-0.420	-0.320	0.500	55.570	-1.700	0.700																			1580008433.0	7.63	14.13
26/01/2020 03:13:54	26012020	260120	031354	55.570	12.445472	-57.594840	55.530	-0.250	-0.280	0.780	55.570	-1.700	1.000																			1580008434.0	7.49	13.87
26/01/2020 03:13:55	26012020	260120	031355	55.530	12.445488	-57.594810	55.450	-0.010	-0.210	0.990	55.530	-1.600	1.300																			1580008435.0	7.37	13.65
26/01/2020 03:13:56	26012020	260120	031356	55.450	12.445507	-57.594780	55.400	0.180	-0.210	0.930	55.450	-1.600	1.400																			1580008436.0	7.32	13.56
26/01/2020 03:13:57	26012020	260120	031357	55.400	12.445525	-57.594752	55.410	0.310	-0.300	0.520	55.400	-1.700	1.100																			1580008437.0	7.34	13.59
26/01/2020 03:13:58	26012020	260120	031358	55.450	12.445547	-57.594723	55.500	0.380	-0.340	-0.010	55.450	-1.700	0.600																			1580008438.0	7.47	13.83
26/01/2020 03:13:59	26012020	260120	031359	55.560	12.445570	-57.594697	55.620	0.310	-0.180	-0.440	55.560	-1.700	0.100	1015.20	25.70	25.80	20.70	20.80	-1.00	73.00	73.00	390.00	25.10	9.00	9.00	70.00	5.30	15	3316.00	27.40	27.40	1580008439.0	7.63	14.13
26/01/2020 03:14:00	26012020	260120	031400	55.680	12.445593	-57.594670	55.670	0.090	0.110	-0.650	55.680	-1.400	-0.200																			1580008440.0	7.51	13.91
26/01/2020 03:14:01	26012020	260120	031401	55.720	12.445615	-57.594643	55.610	-0.190	0.360	-0.580	55.720	-1.100	-0.300																			1580008441.0	7.26	13.45
26/01/2020 03:14:02	26012020	260120	031402	55.650	12.445635	-57.594617	55.520	-0.310	0.200	-0.320	55.650	-1.100	-0.100																			1580008442.0	7.06	13.08
26/01/2020 03:14:03	26012020	260120	031403	55.540	12.445653	-57.594590	55.450	-0.140	-0.370	-0.010	55.540	-1.500	0.200																			1580008443.0	7.16	13.26
26/01/2020 03:14:04	26012020	260120	031404	55.480	12.445673	-57.594558	55.490	0.130	-0.830	0.290	55.480	-2.100	0.500																			1580008444.0	7.70	14.26
26/01/2020 03:14:05	26012020	260120	031405	55.510	12.445693	-57.594527	55.590	0.190	-0.720	0.510	55.520	-2.300	0.800																			1580008445.0	8.00	14.82
26/01/2020 03:14:06	26012020	260120	031406	55.630	12.445712	-57.594497	55.710	-0.030	-0.070	0.650	55.630	-1.800	1.000																			1580008446.0	7.69	14.24
26/01/2020 03:14:07	26012020	260120	031407	55.740	12.445730	-57.594468	55.730	-0.330	0.530	0.800	55.740	-1.100	1.100																			1580008447.0	7.01	12.98
26/01/2020 03:14:08	26012020	260120	031408	55.750	12.445747	-57.594442	55.670	-0.380	0.440	0.870	55.750	-0.800	1.200																			1580008448.0	6.62	12.26
26/01/2020 03:14:09	26012020	260120	031409	55.680	12.445765	-57.594415	55.590	-0.090	-0.300	0.720	55.680	-1.300	1.200																			1580008449.0	6.97	12.91
26/01/2020 03:14:10	26012020	260120	031410	55.610	12.445785	-57.594383	55.540	0.310	-0.950	0.420	55.610	-2.100	1.000																			1580008450.0	7.78	14.41
26/01/2020 03:14:11	26012020	260120	031411	55.570	12.445808	-57.594353	55.530	0.470	-0.850	0.080	55.570	-2.400	0.600																			1580008451.0	8.26	15.30
26/01/2020 03:14:12	26012020	260120	031412	55.590	12.445832	-57.594323	55.570	0.280	-0.070	-0.230	55.590	-1.900	0.300																			1580008452.0	7.89	14.61
26/01/2020 03:14:13	26012020	260120	031413	55.640	12.445852	-57.594298	55.580	-0.080	0.630	-0.320	55.640	-1.100	0.100																			1580008453.0	7.03	13.02
26/01/2020 03:14:14	26012020	260120	031414	55.620	12.445870	-57.594273	55.520	-0.300	0.600	-0.280	55.620	-0.700	0.100																			1580008454.0	6.57	12.17
26/01/2020 03:14:15	26012020	260120	031415	55.560	12.445890	-57.594247	55.540	-0.200	-0.130	-0.300	55.560	-1.200	0.100																			1580008455.0	6.92	12.82
26/01/2020 03:14:16	26012020	260120	031416	55.610	12.445910	-57.594218	55.680	0.090	-0.840	-0.230	55.610	-2.000	0.100																			1580008456.0	7.72	14.30
26/01/2020 03:14:17	26012020	260120	031417	55.710	12.445932	-57.594185	55.770	0.220	-0.880	0.030	55.730	-2.400	0.300																			1580008457.0	8.20	15.19
26/01/2020 03:14:18	26012020	260120	031418	55.780	12.445952	-57.594155	55.710	0.070	-0.300	0.380	55.780	-2.000	0.600																			1580008458.0	7.87	14.58
26/01/2020 03:14:19	26012020	260120	031419	55.690	12.445970	-57.594125	55.560	-0.170	0.380	0.760	55.690	-1.300	1.000																			1580008459.0	7.14	13.22
26/01/2020 03:14:20	26012020	260120	031420	55.530	12.445987	-57.594098	55.420	-0.310	0.650	0.960	55.530	-0.800	1.300																			1580008460.0	6.71	12.43
26/01/2020 03:14:21	26012020	260120	031421	55.420	12.446003	-57.594072	55.450	-0.260	0.220	0.780	55.420	-0.900	1.300																			1580008461.0	6.81	12.61
26/01/2020 03:14:22	26012020	260120	031422	55.490	12.446023	-57.594043	55.540	-0.020	-0.610	0.410	55.490	-1.600	1.000																			1580008462.0	7.31	13.54
26/01/2020 03:14:23	26012020	260120	031423	55.570	12.446045	-57.594013	55.530	0.230	-1.030	0.140	55.570	-2.300	0.600																			1580008463.0	7.99	14.80
26/01/2020 03:14:24	26012020	260120	031424	55.550	12.446068	-57.593983	55.470	0.320	-0.750	0.020	55.550	-2.400	0.400																			1580008464.0	8.12	15.04
26/01/2020 03:14:25	26012020	260120	031425	55.500	12.446090	-57.593955	55.420	0.280	-0.190	-0.010	55.490	-1.900	0.400																			1580008465.0	7.52	13.93
26/01/2020 03:14:26	26012020	260120	031426	55.450	12.446108	-57.593927	55.430	0.160	0.210	-0.080	55.450	-1.400	0.300																			1580008466.0	7.01	12.98
26/01/2020 03:14:27	26012020	260120	031427	55.480	12.446127	-57.593900	55.480	0.010	0.320	-0.170	55.480	-1.100	0.300																			1580008467.0	7.00	12.96
26/01/2020 03:14:28	26012020	260120	031428	55.510	12.446147	-57.593873	55.490	-0.160	0.260	-0.230	55.510	-1.100	0.200																			1580008468.0	7.26	13.45
26/01/2020 03:14:29	26012020	260120	031429	55.510	12.446168	-57.593845	55.490	-0.280	0.110	-0.260	55.510	-1.200	0.100																			1580008469.0	7.43	13.76
26/01/2020 03:14:30	26012020	260120	031430	55.500	12.446188	-57.593817	55.490	-0.250	-0.220	-0.160	55.500	-1.500	0.200																			1580008470.0	7.41	13.72
26/01/2020 03:14:31	26012020	260120	031431	55.500	12.446208	-57.593788	55.470	-0.090	-0.550	0.190	55.500	-1.800	0.400																			1580008471.0	7.49	13.87
26/01/2020 03:14:32	26012020	260120	031432	55.470	12.446228	-57.593758	55.410	0.060	-0.630	0.630	55.470	-2.000	0.800																			1580008472.0	7.69	14.24
26/01/2020 03:14:33	26012020	260120	031433	55.400	12.446247	-57.593727	55.340	0.100	-0.460	0.930	55.400	-2.000	1.200																			1580008473.0	7.62	14.11
26/01/2020 03:14:34	26012020	260120	031434	55.320	12.446265	-57.593697	55.240	0.020	-0.120	1.060	55.320	-1.700	1.400																			1580008474.0	7.41	13.72
26/01/2020 03:14:35	26012020	260120	031435	55.220	12.446283	-57.593668	55.220	-0.080	0.150	0.910	55.220	-1.400	1.400																			1580008475.0	7.23	13.39
26/01/2020 03:14:36	26012020	260120	031436	55.230	12.446302	-57.593640	55.400	-0.050	0.110	0.440	55.230	-1.200	1.100																			1580008476.0	7.10	13.15
26/01/2020 03:14:37	26012020	260120	031437	55.440	12.446322	-57.593613	55.560	0.070	-0.100	-0.070	55.440	-1.400	0.500																			1580008477.0	7.28	13.48
26/01/2020 03:14:38	26012020	260120	031438	55.590	12.446345	-57.593585	55.490	0.160	-0.210	-0.390	55.590	-1.600	0.100																			1580008478.0	7.61	14.09
26/01/2020 03:14:39	26012020	260120	031439	55.480	12.446367	-57.593557	55.280	0.160	-0.190	-0.450	55.480	-1.600	-0.100																			1580008479.0	7.64	14.15
26/01/2020 03:14:40	26012020	260120	031440	55.270	12.446388	-57.593530	55.140	0.150	-0.210	-0.300	55.270	-1.600	0.000																			1580008480.0	7.43	13.76
26/01/2020 03:14:41	26012020	260120	031441	55.160	12.446410	-57.593502	55.140	0.110	-0.290	-0.110	55.150	-1.700	0.200																			1580008481.0	7.35	13.61
26/01/2020 03:14:42	26012020	260120	031442	55.160	12.446428	-57.593472	55.140	-0.040	-0.290	-0.030	55.160	-1.700	0.300																			1580008482.0	7.49	13.87
26/01/2020 03:14:43	26012020	260120	031443	55.150	12.446448	-57.593443	55.110	-0.210	-0.180	0.100	55.150	-1.600	0.400																			1580008483.0	7.48	13.85
26/01/2020 03:14:44	26012020	260120	031444	55.140	12.446468	-57.593415	55.160	-0.290	-0.090	0.430	55.140	-1.500	0.600																			1580008484.0	7.35	13.61
26/01/2020 03:14:45	26012020	260120	031445	55.200	12.446487	-57.593385	55.250	-0.200	-0.130	0.730	55.200	-1.500	1.000																			1580008485.0	7.29	13.50
26/01/2020 03:14:46	26012020	260120	031446	55.260	12.446505	-57.593357	55.210	-0.040	-0.200	0.860	55.260	-1.600	1.200																			1580008486.0	7.42	13.74
26/01/2020 03:14:47	26012020	260120	031447	55.220	12.446523	-57.593325	55.130	0.050	-0.120	0.800	55.220	-1.600	1.200																			1580008487.0	7.59	14.06
26/01/2020 03:14:48	26012020	260120	031448	55.130	12.446543	-57.593297	55.040	0.050	0.030	0.680	55.130	-1.400	1.100																			1580008488.0	7.49	13.87
26/01/2020 03:14:49	26012020	260120	031449	55.050	12.446563	-57.593268	54.950	0.060	-0.060	0.440	55.050	-1.400	1.000																			1580008489.0	7.25	13.43
26/01/2020 03:14:50	26012020	260120	031450	54.980	12.446583	-57.593242	54.960	0.140	-0.370	-0.020	54.980	-1.600	0.600																			1580008490.0	7.30	13.52
26/01/2020 03:14:51	26012020	260120	031451	55.000	12.446607	-57.593213	55.060	0.250	-0.580	-0.470	55.000	-1.900	0.100																			1580008491.0	7.64	14.15
26/01/2020 03:14:52	26012020	260120	031452	55.130	12.446630	-57.593185	55.210	0.250	-0.360	-0.650	55.130	-1.900	-0.200																			1580008492.0	7.83	14.50
26/01/2020 03:14:53	26012020	260120	031453	55.280	12.446653	-57.593158	55.210	0.060	0.150	-0.470	55.280	-1.500	-0.200																			1580008493.0	7.57	14.02
26/01/2020 03:14:54	26012020	260120	031454	55.240	12.446673	-57.593132	55.010	-0.200	0.460	-0.060	55.240	-1.000	0.100																			1580008494.0	7.09	13.13
26/01/2020 03:14:55	26012020	260120	031455	55.040	12.446690	-57.593103	54.830	-0.280	0.150	0.310	54.990	-1.000	0.500																			1580008495.0	6.89	12.76
26/01/2020 03:14:56	26012020	260120	031456	54.830	12.446708	-57.593073	54.840	-0.140	-0.510	0.460	54.830	-1.600	0.800																			1580008496.0	7.32	13.56
26/01/2020 03:14:57	26012020	260120	031457	54.900	12.446728	-57.593043	55.030	0.000	-0.800	0.460	54.900	-2.100	0.800																			1580008497.0	7.95	14.72
26/01/2020 03:14:58	26012020	260120	031458	55.090	12.446750	-57.593012	55.160	-0.040	-0.380	0.600	55.090	-2.000	0.900																			1580008498.0	8.01	14.83
26/01/2020 03:14:59	26012020	260120	031459	55.200	12.446768	-57.592983	55.130	-0.210	0.220	0.860	55.200	-1.400	1.100	1015.20	25.70	25.80	20.60	20.60	-1.00	73.00	73.00	390.00	25.10	8.00	8.50	70.00	4.80	15	3274.00	27.40	27.40	1580008499.0	7.38	13.67
26/01/2020 03:15:00	26012020	260120	031500	55.120	12.446787	-57.592957	54.990	-0.260	0.280	1.020	55.120	-1.100	1.400																			1580008500.0	6.76	12.52
26/01/2020 03:15:01	26012020	260120	031501	54.980	12.446803	-57.592928	54.880	-0.030	-0.240	0.870	54.980	-1.400	1.400																			1580008501.0	6.94	12.85
26/01/2020 03:15:02	26012020	260120	031502	54.870	12.446823	-57.592898	54.760	0.290	-0.690	0.520	54.870	-1.900	1.100																			1580008502.0	7.70	14.26
26/01/2020 03:15:03	26012020	260120	031503	54.770	12.446847	-57.592868	54.680	0.430	-0.620	0.100	54.770	-2.100	0.700																			1580008503.0	8.13	15.06
26/01/2020 03:15:04	26012020	260120	031504	54.700	12.446870	-57.592840	54.700	0.340	-0.240	-0.330	54.700	-1.800	0.300																			1580008504.0	7.79	14.43
26/01/2020 03:15:05	26012020	260120	031505	54.740	12.446893	-57.592813	54.790	0.140	0.200	-0.600	54.740	-1.400	-0.100																			1580008505.0	7.33	13.58
26/01/2020 03:15:06	26012020	260120	031506	54.840	12.446915	-57.592788	54.840	-0.100	0.500	-0.650	54.840	-1.000	-0.300																			1580008506.0	7.14	13.22
26/01/2020 03:15:07	26012020	260120	031507	54.880	12.446935	-57.592762	54.830	-0.250	0.330	-0.500	54.880	-0.900	-0.200																			1580008507.0	7.06	13.08
26/01/2020 03:15:08	26012020	260120	031508	54.870	12.446955	-57.592733	54.830	-0.250	-0.190	-0.210	54.870	-1.300	0.000																			1580008508.0	7.26	13.45
26/01/2020 03:15:09	26012020	260120	031509	54.860	12.446975	-57.592703	54.810	-0.190	-0.570	0.220	54.860	-1.800	0.400																			1580008509.0	7.73	14.32
26/01/2020 03:15:10	26012020	260120	031510	54.820	12.446995	-57.592673	54.750	-0.190	-0.520	0.730	54.820	-2.000	0.900																			1580008510.0	7.91	14.65
26/01/2020 03:15:11	26012020	260120	031511	54.760	12.447013	-57.592642	54.710	-0.230	-0.270	1.160	54.760	-1.800	1.300																			1580008511.0	7.54	13.96
26/01/2020 03:15:12	26012020	260120	031512	54.700	12.447028	-57.592612	54.630	-0.200	-0.150	1.420	54.700	-1.600	1.700																			1580008512.0	7.17	13.28
26/01/2020 03:15:13	26012020	260120	031513	54.610	12.447047	-57.592583	54.590	-0.030	-0.200	1.400	54.610	-1.600	1.800																			1580008513.0	7.18	13.30
26/01/2020 03:15:14	26012020	260120	031514	54.570	12.447065	-57.592553	54.630	0.220	-0.280	0.960	54.570	-1.600	1.600																			1580008514.0	7.42	13.74
26/01/2020 03:15:15	26012020	260120	031515	54.640	12.447087	-57.592525	54.690	0.440	-0.330	0.290	54.640	-1.700	1.000																			1580008515.0	7.55	13.98
26/01/2020 03:15:16	26012020	260120	031516	54.710	12.447110	-57.592498	54.690	0.520	-0.280	-0.350	54.710	-1.700	0.300																			1580008516.0	7.64	14.15
26/01/2020 03:15:17	26012020	260120	031517	54.730	12.447135	-57.592472	54.700	0.350	-0.090	-0.850	54.730	-1.600	-0.300																			1580008517.0	7.66	14.19
26/01/2020 03:15:18	26012020	260120	031518	54.750	12.447158	-57.592447	54.700	0.010	0.170	-1.000	54.750	-1.400	-0.600																			1580008518.0	7.55	13.98
26/01/2020 03:15:19	26012020	260120	031519	54.750	12.447182	-57.592420	54.620	-0.330	0.390	-0.720	54.750	-1.100	-0.500																			1580008519.0	7.32	13.56
26/01/2020 03:15:20	26012020	260120	031520	54.670	12.447202	-57.592393	54.550	-0.530	0.320	-0.260	54.670	-1.000	-0.100																			1580008520.0	7.15	13.24
26/01/2020 03:15:21	26012020	260120	031521	54.590	12.447220	-57.592365	54.610	-0.470	-0.240	0.170	54.590	-1.300	0.400																			1580008521.0	7.17	13.28
26/01/2020 03:15:22	26012020	260120	031522	54.660	12.447238	-57.592333	54.720	-0.190	-0.890	0.540	54.660	-2.000	0.700																			1580008522.0	7.57	14.02
26/01/2020 03:15:23	26012020	260120	031523	54.750	12.447257	-57.592302	54.740	0.110	-0.990	0.860	54.750	-2.400	1.100																			1580008523.0	8.05	14.91
26/01/2020 03:15:24	26012020	260120	031524	54.750	12.447277	-57.592268	54.680	0.240	-0.510	1.090	54.750	-2.200	1.400																			1580008524.0	7.92	14.67
26/01/2020 03:15:25	26012020	260120	031525	54.670	12.447293	-57.592240	54.620	0.140	0.150	1.100	54.670	-1.500	1.500																			1580008525.0	7.36	13.63
26/01/2020 03:15:26	26012020	260120	031526	54.610	12.447313	-57.592213	54.620	-0.010	0.510	0.810	54.610	-1.000	1.400																			1580008526.0	6.93	12.83
26/01/2020 03:15:27	26012020	260120	031527	54.650	12.447333	-57.592187	54.680	-0.020	0.400	0.370	54.650	-0.900	1.000																			1580008527.0	6.96	12.89
26/01/2020 03:15:28	26012020	260120	031528	54.710	12.447355	-57.592160	54.640	0.100	-0.020	0.020	54.710	-1.200	0.500																			1580008528.0	7.35	13.61
26/01/2020 03:15:29	26012020	260120	031529	54.660	12.447378	-57.592133	54.530	0.180	-0.480	-0.170	54.660	-1.700	0.300																			1580008529.0	7.72	14.30
26/01/2020 03:15:30	26012020	260120	031530	54.550	12.447402	-57.592103	54.500	0.140	-0.710	-0.340	54.550	-2.000	0.100																			1580008530.0	7.87	14.58
26/01/2020 03:15:31	26012020	260120	031531	54.550	12.447423	-57.592075	54.560	0.020	-0.540	-0.520	54.550	-2.100	-0.100																			1580008531.0	7.77	14.39
26/01/2020 03:15:32	26012020	260120	031532	54.640	12.447445	-57.592047	54.600	-0.110	-0.100	-0.460	54.640	-1.700	-0.100																			1580008532.0	7.50	13.89
26/01/2020 03:15:33	26012020	260120	031533	54.660	12.447465	-57.592020	54.620	-0.160	0.120	-0.220	54.660	-1.300	0.000																			1580008533.0	7.11	13.17
26/01/2020 03:15:34	26012020	260120	031534	54.680	12.447483	-57.591992	54.680	-0.080	-0.030	0.100	54.680	-1.300	0.300																			1580008534.0	7.08	13.11
26/01/2020 03:15:35	26012020	260120	031535	54.720	12.447503	-57.591963	54.680	0.020	-0.140	0.500	54.720	-1.500	0.700																			1580008535.0	7.51	13.91
26/01/2020 03:15:36	26012020	260120	031536	54.710	12.447522	-57.591932	54.640	0.000	-0.040	0.860	54.710	-1.500	1.100																			1580008536.0	7.74	14.33
26/01/2020 03:15:37	26012020	260120	031537	54.670	12.447540	-57.591902	54.570	-0.080	-0.030	1.040	54.670	-1.400	1.400																			1580008537.0	7.47	13.83
26/01/2020 03:15:38	26012020	260120	031538	54.580	12.447558	-57.591873	54.510	-0.060	-0.310	1.000	54.580	-1.500	1.400																			1580008538.0	7.28	13.48
26/01/2020 03:15:39	26012020	260120	031539	54.510	12.447578	-57.591843	54.500	0.110	-0.620	0.740	54.510	-1.900	1.300																			1580008539.0	7.51	13.91
26/01/2020 03:15:40	26012020	260120	031540	54.530	12.447602	-57.591815	54.500	0.230	-0.490	0.400	54.530	-2.000	0.900																			1580008540.0	7.87	14.58
26/01/2020 03:15:41	26012020	260120	031541	54.510	12.447625	-57.591787	54.440	0.120	0.150	0.090	54.510	-1.600	0.600																			1580008541.0	7.77	14.39
26/01/2020 03:15:42	26012020	260120	031542	54.450	12.447647	-57.591760	54.420	-0.150	0.620	-0.200	54.450	-0.900	0.300																			1580008542.0	7.12	13.19
26/01/2020 03:15:43	26012020	260120	031543	54.440	12.447667	-57.591737	54.480	-0.250	0.250	-0.420	54.440	-0.900	0.100																			1580008543.0	6.68	12.37
26/01/2020 03:15:44	26012020	260120	031544	54.530	12.447687	-57.591710	54.570	-0.090	-0.630	-0.500	54.530	-1.600	-0.100																			1580008544.0	7.18	13.30
26/01/2020 03:15:45	26012020	260120	031545	54.600	12.447710	-57.591680	54.560	0.100	-1.010	-0.380	54.600	-2.300	-0.100																			1580008545.0	8.11	15.02
26/01/2020 03:15:46	26012020	260120	031546	54.570	12.447733	-57.591648	54.430	0.090	-0.540	0.040	54.570	-2.200	0.200																			1580008546.0	8.26	15.30
26/01/2020 03:15:47	26012020	260120	031547	54.420	12.447752	-57.591618	54.300	-0.060	0.140	0.580	54.420	-1.500	0.700																			1580008547.0	7.45	13.80
26/01/2020 03:15:48	26012020	260120	031548	54.300	12.447768	-57.591590	54.230	-0.090	0.260	0.880	54.300	-1.100	1.200																			1580008548.0	6.75	12.50
26/01/2020 03:15:49	26012020	260120	031549	54.250	12.447783	-57.591562	54.270	0.090	-0.090	0.810	54.250	-1.300	1.300																			1580008549.0	6.97	12.91
26/01/2020 03:15:50	26012020	260120	031550	54.310	12.447805	-57.591533	54.340	0.250	-0.260	0.630	54.310	-1.600	1.100																			1580008550.0	7.67	14.20
26/01/2020 03:15:51	26012020	260120	031551	54.370	12.447827	-57.591503	54.330	0.220	-0.050	0.460	54.370	-1.600	0.900																			1580008551.0	7.88	14.59
26/01/2020 03:15:52	26012020	260120	031552	54.350	12.447848	-57.591477	54.240	0.080	0.120	0.350	54.350	-1.300	0.800																			1580008552.0	7.39	13.69
26/01/2020 03:15:53	26012020	260120	031553	54.240	12.447870	-57.591450	54.170	-0.010	-0.080	0.270	54.240	-1.300	0.700																			1580008553.0	7.06	13.08
26/01/2020 03:15:54	26012020	260120	031554	54.190	12.447892	-57.591423	54.290	-0.070	-0.470	0.060	54.190	-1.700	0.600																			1580008554.0	7.32	13.56
26/01/2020 03:15:55	26012020	260120	031555	54.340	12.447913	-57.591395	54.480	-0.150	-0.630	-0.120	54.340	-2.000	0.300																			1580008555.0	7.70	14.26
26/01/2020 03:15:56	26012020	260120	031556	54.520	12.447937	-57.591367	54.540	-0.210	-0.360	-0.040	54.520	-1.900	0.300																			1580008556.0	7.75	14.35
26/01/2020 03:15:57	26012020	260120	031557	54.570	12.447957	-57.591338	54.500	-0.190	0.080	0.310	54.570	-1.500	0.500																			1580008557.0	7.39	13.69
26/01/2020 03:15:58	26012020	260120	031558	54.510	12.447973	-57.591310	54.360	-0.090	0.190	0.720	54.510	-1.200	0.900																			1580008558.0	7.01	12.98
26/01/2020 03:15:59	26012020	260120	031559	54.350	12.447990	-57.591282	54.260	0.030	-0.070	0.880	54.350	-1.300	1.200	1015.20	25.80	25.80	20.80	20.80	-1.00	73.00	73.00	390.00	25.10	6.00	8.70	66.00	4.90	15	3331.00	27.40	27.40	1580008559.0	7.11	13.17
26/01/2020 03:16:00	26012020	260120	031600	54.260	12.448010	-57.591252	54.320	0.110	-0.330	0.600	54.260	-1.600	1.200																			1580008560.0	7.56	14.00
26/01/2020 03:16:01	26012020	260120	031601	54.380	12.448032	-57.591222	54.570	0.120	-0.340	0.100	54.380	-1.800	0.700																			1580008561.0	7.73	14.32
26/01/2020 03:16:02	26012020	260120	031602	54.640	12.448055	-57.591195	54.770	0.110	-0.160	-0.250	54.640	-1.700	0.300																			1580008562.0	7.58	14.04
26/01/2020 03:16:03	26012020	260120	031603	54.820	12.448077	-57.591168	54.820	0.080	0.000	-0.320	54.820	-1.500	0.100																			1580008563.0	7.34	13.59
26/01/2020 03:16:04	26012020	260120	031604	54.860	12.448098	-57.591142	54.820	0.060	-0.060	-0.220	54.860	-1.400	0.100																			1580008564.0	7.20	13.33
26/01/2020 03:16:05	26012020	260120	031605	54.840	12.448118	-57.591115	54.770	0.050	-0.220	0.010	54.840	-1.500	0.300																			1580008565.0	7.34	13.59
26/01/2020 03:16:06	26012020	260120	031606	54.780	12.448140	-57.591085	54.670	-0.030	-0.220	0.330	54.780	-1.600	0.600																			1580008566.0	7.57	14.02
26/01/2020 03:16:07	26012020	260120	031607	54.660	12.448158	-57.591055	54.540	-0.130	-0.160	0.570	54.660	-1.600	0.900																			1580008567.0	7.52	13.93
26/01/2020 03:16:08	26012020	260120	031608	54.540	12.448177	-57.591027	54.580	-0.130	-0.330	0.530	54.540	-1.600	1.000																			1580008568.0	7.27	13.46
26/01/2020 03:16:09	26012020	260120	031609	54.620	12.448197	-57.590998	54.720	-0.020	-0.490	0.420	54.620	-1.800	0.800																			1580008569.0	7.42	13.74
26/01/2020 03:16:10	26012020	260120	031610	54.770	12.448217	-57.590968	54.770	0.030	-0.280	0.350	54.770	-1.800	0.800																			1580008570.0	7.70	14.26
26/01/2020 03:16:11	26012020	260120	031611	54.790	12.448238	-57.590940	54.710	0.000	0.110	0.290	54.790	-1.500	0.700																			1580008571.0	7.53	13.95
26/01/2020 03:16:12	26012020	260120	031612	54.720	12.448258	-57.590913	54.670	0.040	0.220	0.180	54.720	-1.200	0.600																			1580008572.0	7.14	13.22
26/01/2020 03:16:13	26012020	260120	031613	54.700	12.448278	-57.590887	54.720	0.150	-0.020	0.020	54.700	-1.300	0.500																			1580008573.0	7.16	13.26
26/01/2020 03:16:14	26012020	260120	031614	54.760	12.448300	-57.590858	54.790	0.130	-0.220	-0.070	54.760	-1.600	0.300																			1580008574.0	7.56	14.00
26/01/2020 03:16:15	26012020	260120	031615	54.810	12.448323	-57.590828	54.770	-0.130	-0.100	-0.060	54.810	-1.600	0.300																			1580008575.0	7.76	14.37
26/01/2020 03:16:16	26012020	260120	031616	54.770	12.448343	-57.590802	54.720	-0.410	0.060	-0.040	54.770	-1.400	0.300																			1580008576.0	7.37	13.65
26/01/2020 03:16:17	26012020	260120	031617	54.750	12.448362	-57.590773	54.670	-0.390	-0.150	0.050	54.750	-1.400	0.400																			1580008577.0	7.01	12.98
26/01/2020 03:16:18	26012020	260120	031618	54.680	12.448382	-57.590747	54.550	-0.000	-0.670	0.220	54.680	-1.800	0.500																			1580008578.0	7.18	13.30
26/01/2020 03:16:19	26012020	260120	031619	54.580	12.448403	-57.590717	54.500	0.450	-0.990	0.300	54.580	-2.300	0.600																			1580008579.0	7.76	14.37
26/01/2020 03:16:20	26012020	260120	031620	54.540	12.448425	-57.590685	54.550	0.550	-0.610	0.390	54.540	-2.300	0.700																			1580008580.0	8.06	14.93
26/01/2020 03:16:21	26012020	260120	031621	54.590	12.448445	-57.590657	54.650	0.180	0.290	0.550	54.590	-1.500	0.800																			1580008581.0	7.67	14.20
26/01/2020 03:16:22	26012020	260120	031622	54.700	12.448463	-57.590630	54.710	-0.390	0.920	0.660	54.700	-0.700	1.000																			1580008582.0	6.85	12.69
26/01/2020 03:16:23	26012020	260120	031623	54.730	12.448480	-57.590603	54.720	-0.670	0.700	0.590	54.730	-0.500	1.000																			1580008583.0	6.49	12.02
26/01/2020 03:16:24	26012020	260120	031624	54.740	12.448498	-57.590577	54.730	-0.420	-0.140	0.420	54.740	-1.100	0.900																			1580008584.0	7.01	12.98
26/01/2020 03:16:25	26012020	260120	031625	54.750	12.448520	-57.590547	54.760	0.200	-0.940	0.170	54.750	-2.000	0.700																			1580008585.0	7.83	14.50
26/01/2020 03:16:26	26012020	260120	031626	54.780	12.448545	-57.590517	54.800	0.730	-1.110	-0.040	54.780	-2.500	0.400																			1580008586.0	8.22	15.22
26/01/2020 03:16:27	26012020	260120	031627	54.830	12.448568	-57.590488	54.800	0.750	-0.590	-0.150	54.830	-2.300	0.300																			1580008587.0	7.96	14.74
26/01/2020 03:16:28	26012020	260120	031628	54.840	12.448588	-57.590460	54.830	0.250	0.140	-0.240	54.840	-1.600	0.200																			1580008588.0	7.28	13.48
26/01/2020 03:16:29	26012020	260120	031629	54.870	12.448608	-57.590435	54.850	-0.360	0.580	-0.240	54.870	-1.000	0.100																			1580008589.0	6.75	12.50
26/01/2020 03:16:30	26012020	260120	031630	54.890	12.448628	-57.590410	54.910	-0.650	0.530	-0.060	54.890	-0.800	0.200																			1580008590.0	6.74	12.48
26/01/2020 03:16:31	26012020	260120	031631	54.940	12.448648	-57.590383	54.920	-0.550	0.110	0.270	54.940	-1.100	0.500																			1580008591.0	7.09	13.13
26/01/2020 03:16:32	26012020	260120	031632	54.940	12.448667	-57.590353	54.860	-0.280	-0.450	0.580	54.940	-1.600	0.800																			1580008592.0	7.51	13.91
26/01/2020 03:16:33	26012020	260120	031633	54.870	12.448685	-57.590322	54.820	0.000	-0.880	0.740	54.870	-2.100	1.100																			1580008593.0	7.76	14.37
26/01/2020 03:16:34	26012020	260120	031634	54.820	12.448705	-57.590290	54.830	0.220	-0.950	0.680	54.820	-2.400	1.100																			1580008594.0	7.82	14.48
26/01/2020 03:16:35	26012020	260120	031635	54.830	12.448723	-57.590260	54.890	0.380	-0.530	0.470	54.840	-2.200	0.900																			1580008595.0	7.69	14.24
26/01/2020 03:16:36	26012020	260120	031636	54.890	12.448745	-57.590233	54.850	0.450	0.150	0.300	54.890	-1.600	0.800																			1580008596.0	7.35	13.61
26/01/2020 03:16:37	26012020	260120	031637	54.840	12.448765	-57.590207	54.740	0.360	0.600	0.050	54.840	-1.000	0.600																			1580008597.0	6.98	12.93
26/01/2020 03:16:38	26012020	260120	031638	54.770	12.448785	-57.590182	54.700	0.120	0.530	-0.290	54.770	-0.800	0.300																			1580008598.0	6.87	12.72
26/01/2020 03:16:39	26012020	260120	031639	54.720	12.448807	-57.590155	54.710	-0.170	0.120	-0.480	54.720	-1.100	-0.000																			1580008599.0	7.20	13.33
26/01/2020 03:16:40	26012020	260120	031640	54.750	12.448830	-57.590128	54.770	-0.340	-0.310	-0.540	54.750	-1.500	-0.100																			1580008600.0	7.55	13.98
26/01/2020 03:16:41	26012020	260120	031641	54.830	12.448852	-57.590100	54.800	-0.300	-0.570	-0.440	54.830	-1.900	-0.100																			1580008601.0	7.66	14.19
26/01/2020 03:16:42	26012020	260120	031642	54.850	12.448873	-57.590072	54.710	-0.100	-0.640	-0.000	54.850	-2.000	0.100																			1580008602.0	7.55	13.98
26/01/2020 03:16:43	26012020	260120	031643	54.730	12.448892	-57.590042	54.540	0.090	-0.590	0.600	54.730	-2.000	0.700																			1580008603.0	7.42	13.74
26/01/2020 03:16:44	26012020	260120	031644	54.560	12.448908	-57.590012	54.390	0.130	-0.380	1.070	54.560	-1.900	1.300																			1580008604.0	7.41	13.72
26/01/2020 03:16:45	26012020	260120	031645	54.420	12.448925	-57.589982	54.330	0.040	-0.030	1.280	54.420	-1.600	1.600																			1580008605.0	7.37	13.65
26/01/2020 03:16:46	26012020	260120	031646	54.360	12.448943	-57.589952	54.330	-0.030	0.280	1.260	54.360	-1.300	1.700																			1580008606.0	7.20	13.33
26/01/2020 03:16:47	26012020	260120	031647	54.370	12.448963	-57.589925	54.380	0.010	0.290	0.930	54.370	-1.100	1.500																			1580008607.0	7.10	13.15
26/01/2020 03:16:48	26012020	260120	031648	54.420	12.448983	-57.589898	54.400	0.100	-0.040	0.360	54.420	-1.300	1.000																			1580008608.0	7.21	13.35
26/01/2020 03:16:49	26012020	260120	031649	54.440	12.449005	-57.589870	54.360	0.150	-0.370	-0.180	54.440	-1.600	0.400																			1580008609.0	7.59	14.06
26/01/2020 03:16:50	26012020	260120	031650	54.400	12.449028	-57.589842	54.290	0.160	-0.430	-0.560	54.400	-1.900	-0.000																			1580008610.0	7.76	14.37
26/01/2020 03:16:51	26012020	260120	031651	54.350	12.449052	-57.589815	54.220	0.160	-0.260	-0.720	54.350	-1.800	-0.300																			1580008611.0	7.59	14.06
26/01/2020 03:16:52	26012020	260120	031652	54.270	12.449073	-57.589788	54.120	0.150	-0.110	-0.620	54.270	-1.600	-0.300																			1580008612.0	7.26	13.45
26/01/2020 03:16:53	26012020	260120	031653	54.190	12.449095	-57.589762	54.080	0.080	-0.050	-0.380	54.190	-1.500	-0.100																			1580008613.0	7.17	13.28
26/01/2020 03:16:54	26012020	260120	031654	54.140	12.449113	-57.589733	54.030	-0.070	-0.070	-0.070	54.140	-1.500	0.200																			1580008614.0	7.27	13.46
26/01/2020 03:16:55	26012020	260120	031655	54.090	12.449133	-57.589705	53.980	-0.200	-0.170	0.290	54.090	-1.500	0.500																			1580008615.0	7.34	13.59
26/01/2020 03:16:56	26012020	260120	031656	54.000	12.449152	-57.589677	53.860	-0.250	-0.250	0.670	54.000	-1.600	0.900																			1580008616.0	7.43	13.76
26/01/2020 03:16:57	26012020	260120	031657	53.880	12.449172	-57.589647	53.780	-0.260	-0.150	1.060	53.880	-1.600	1.300																			1580008617.0	7.52	13.93
26/01/2020 03:16:58	26012020	260120	031658	53.810	12.449190	-57.589617	53.810	-0.230	-0.030	1.290	53.810	-1.500	1.600																			1580008618.0	7.39	13.69
26/01/2020 03:16:59	26012020	260120	031659	53.830	12.449208	-57.589588	53.820	-0.120	-0.120	1.290	53.830	-1.400	1.700	1015.20	25.80	25.80	20.30	20.40	-1.00	72.00	72.00	390.00	25.10	5.00	9.10	63.00	5.40	15	3331.00	27.40	27.40	1580008619.0	7.18	13.30
26/01/2020 03:17:00	26012020	260120	031700	53.830	12.449227	-57.589558	53.740	0.070	-0.390	1.040	53.830	-1.700	1.600																			1580008620.0	7.26	13.45
26/01/2020 03:17:01	26012020	260120	031701	53.760	12.449247	-57.589530	53.680	0.300	-0.610	0.580	53.740	-1.900	1.200																			1580008621.0	7.54	13.96
26/01/2020 03:17:02	26012020	260120	031702	53.670	12.449268	-57.589502	53.570	0.440	-0.460	0.120	53.670	-2.000	0.700																			1580008622.0	7.74	14.33
26/01/2020 03:17:03	26012020	260120	031703	53.590	12.449293	-57.589475	53.430	0.420	0.000	-0.300	53.590	-1.600	0.300																			1580008623.0	7.65	14.17
26/01/2020 03:17:04	26012020	260120	031704	53.430	12.449317	-57.589450	53.240	0.280	0.340	-0.630	53.430	-1.200	-0.100																			1580008624.0	7.22	13.37
26/01/2020 03:17:05	26012020	260120	031705	53.260	12.449338	-57.589425	53.120	0.050	0.320	-0.720	53.260	-1.000	-0.300																			1580008625.0	7.05	13.06
26/01/2020 03:17:06	26012020	260120	031706	53.160	12.449360	-57.589400	53.070	-0.210	0.050	-0.580	53.160	-1.200	-0.300																			1580008626.0	7.26	13.45
26/01/2020 03:17:07	26012020	260120	031707	53.120	12.449382	-57.589372	53.090	-0.390	-0.250	-0.290	53.120	-1.500	-0.100																			1580008627.0	7.49	13.87
26/01/2020 03:17:08	26012020	260120	031708	53.140	12.449402	-57.589342	53.180	-0.390	-0.490	0.150	53.140	-1.800	0.300																			1580008628.0	7.56	14.00
26/01/2020 03:17:09	26012020	260120	031709	53.220	12.449422	-57.589313	53.230	-0.240	-0.600	0.690	53.220	-2.000	0.800																			1580008629.0	7.52	13.93
26/01/2020 03:17:10	26012020	260120	031710	53.250	12.449440	-57.589282	53.110	-0.110	-0.420	1.270	53.250	-1.900	1.400																			1580008630.0	7.55	13.98
26/01/2020 03:17:11	26012020	260120	031711	53.090	12.449457	-57.589252	52.900	-0.110	-0.070	1.560	53.090	-1.600	1.800																			1580008631.0	7.48	13.85
26/01/2020 03:17:12	26012020	260120	031712	52.870	12.449473	-57.589222	52.710	-0.090	0.110	1.460	52.870	-1.300	1.900																			1580008632.0	7.17	13.28
26/01/2020 03:17:13	26012020	260120	031713	52.700	12.449493	-57.589195	52.570	0.080	0.060	1.010	52.700	-1.300	1.600																			1580008633.0	7.10	13.15
26/01/2020 03:17:14	26012020	260120	031714	52.570	12.449515	-57.589168	52.460	0.350	-0.160	0.360	52.570	-1.400	1.100																			1580008634.0	7.32	13.56
26/01/2020 03:17:15	26012020	260120	031715	52.480	12.449540	-57.589142	52.340	0.520	-0.380	-0.300	52.480	-1.700	0.400																			1580008635.0	7.58	14.04
26/01/2020 03:17:16	26012020	260120	031716	52.390	12.449565	-57.589117	52.260	0.450	-0.400	-0.730	52.390	-1.800	-0.200																			1580008636.0	7.74	14.33
26/01/2020 03:17:17	26012020	260120	031717	52.320	12.449590	-57.589092	52.170	0.170	-0.230	-0.910	52.320	-1.700	-0.500																			1580008637.0	7.63	14.13
26/01/2020 03:17:18	26012020	260120	031718	52.250	12.449613	-57.589065	52.120	-0.140	-0.080	-0.730	52.250	-1.500	-0.500																			1580008638.0	7.37	13.65
26/01/2020 03:17:19	26012020	260120	031719	52.190	12.449635	-57.589038	52.130	-0.380	-0.050	-0.250	52.190	-1.500	-0.100																			1580008639.0	7.26	13.45
26/01/2020 03:17:20	26012020	260120	031720	52.210	12.449653	-57.589010	52.290	-0.490	-0.100	0.270	52.210	-1.500	0.400																			1580008640.0	7.38	13.67
26/01/2020 03:17:21	26012020	260120	031721	52.370	12.449672	-57.588980	52.450	-0.520	0.020	0.820	52.370	-1.500	0.900																			1580008641.0	7.53	13.95
26/01/2020 03:17:22	26012020	260120	031722	52.490	12.449690	-57.588948	52.360	-0.430	0.210	1.380	52.490	-1.300	1.500																			1580008642.0	7.45	13.80
26/01/2020 03:17:23	26012020	260120	031723	52.330	12.449707	-57.588920	52.010	-0.130	0.110	1.740	52.330	-1.200	2.000																			1580008643.0	7.16	13.26
26/01/2020 03:17:24	26012020	260120	031724	51.970	12.449725	-57.588892	51.720	0.330	-0.390	1.660	51.970	-1.500	2.100																			1580008644.0	7.18	13.30
26/01/2020 03:17:25	26012020	260120	031725	51.720	12.449747	-57.588863	51.670	0.720	-0.970	1.070	51.720	-2.100	1.800																			1580008645.0	7.58	14.04
26/01/2020 03:17:26	26012020	260120	031726	51.710	12.449772	-57.588835	51.810	0.780	-1.100	0.220	51.710	-2.500	1.000																			1580008646.0	8.00	14.82
26/01/2020 03:17:27	26012020	260120	031727	51.910	12.449798	-57.588808	51.980	0.420	-0.370	-0.380	51.910	-2.200	0.200																			1580008647.0	8.07	14.95
26/01/2020 03:17:28	26012020	260120	031728	52.080	12.449825	-57.588785	52.000	-0.210	0.730	-0.480	52.080	-1.200	-0.100																			1580008648.0	7.46	13.82
26/01/2020 03:17:29	26012020	260120	031729	52.080	12.449845	-57.588763	51.900	-0.700	1.160	-0.310	52.080	-0.300	-0.000																			1580008649.0	6.51	12.06
26/01/2020 03:17:30	26012020	260120	031730	51.980	12.449865	-57.588740	51.840	-0.770	0.550	-0.120	51.980	-0.500	0.200																			1580008650.0	6.46	11.96
26/01/2020 03:17:31	26012020	260120	031731	51.910	12.449885	-57.588712	51.780	-0.450	-0.570	0.100	51.910	-1.400	0.400																			1580008651.0	7.33	13.58
26/01/2020 03:17:32	26012020	260120	031732	51.840	12.449907	-57.588680	51.770	-0.040	-1.310	0.340	51.840	-2.500	0.600																			1580008652.0	8.23	15.24
26/01/2020 03:17:33	26012020	260120	031733	51.840	12.449928	-57.588647	51.850	0.230	-1.160	0.600	51.840	-2.800	0.800																			1580008653.0	8.35	15.46
26/01/2020 03:17:34	26012020	260120	031734	51.900	12.449948	-57.588617	51.830	0.250	-0.290	0.870	51.900	-2.100	1.100																			1580008654.0	7.71	14.28
26/01/2020 03:17:35	26012020	260120	031735	51.850	12.449967	-57.588590	51.610	0.090	0.560	0.980	51.850	-1.200	1.300																			1580008655.0	6.86	12.70
26/01/2020 03:17:36	26012020	260120	031736	51.620	12.449985	-57.588565	51.380	-0.010	0.680	0.810	51.620	-0.700	1.300																			1580008656.0	6.45	11.95
26/01/2020 03:17:37	26012020	260120	031737	51.430	12.450007	-57.588542	51.350	0.130	0.020	0.300	51.410	-1.000	1.000																			1580008657.0	6.84	12.67
26/01/2020 03:17:38	26012020	260120	031738	51.440	12.450032	-57.588517	51.550	0.370	-0.690	-0.370	51.440	-1.800	0.300																			1580008658.0	7.74	14.33
26/01/2020 03:17:39	26012020	260120	031739	51.660	12.450060	-57.588488	51.700	0.400	-0.730	-0.670	51.660	-2.200	-0.200																			1580008659.0	8.32	15.41
26/01/2020 03:17:40	26012020	260120	031740	51.780	12.450085	-57.588462	51.670	0.110	-0.120	-0.450	51.780	-1.900	-0.200																			1580008660.0	7.93	14.69
26/01/2020 03:17:41	26012020	260120	031741	51.710	12.450107	-57.588437	51.560	-0.360	0.480	0.060	51.710	-1.200	0.200																			1580008661.0	7.05	13.06
26/01/2020 03:17:42	26012020	260120	031742	51.580	12.450125	-57.588412	51.490	-0.660	0.470	0.580	51.580	-0.800	0.700																			1580008662.0	6.58	12.19
26/01/2020 03:17:43	26012020	260120	031743	51.530	12.450142	-57.588383	51.580	-0.540	-0.190	0.850	51.530	-1.200	1.100																			1580008663.0	6.83	12.65
26/01/2020 03:17:44	26012020	260120	031744	51.650	12.450162	-57.588355	51.790	-0.120	-0.850	0.840	51.650	-2.000	1.200																			1580008664.0	7.57	14.02
26/01/2020 03:17:45	26012020	260120	031745	51.830	12.450185	-57.588325	51.790	0.210	-0.840	0.840	51.830	-2.400	1.200																			1580008665.0	8.06	14.93
26/01/2020 03:17:46	26012020	260120	031746	51.800	12.450207	-57.588295	51.630	0.200	-0.230	0.900	51.800	-2.000	1.200																			1580008666.0	7.79	14.43
26/01/2020 03:17:47	26012020	260120	031747	51.620	12.450227	-57.588268	51.540	0.030	0.310	0.710	51.620	-1.300	1.200																			1580008667.0	7.02	13.00
26/01/2020 03:17:48	26012020	260120	031748	51.580	12.450245	-57.588245	51.630	0.090	0.180	0.070	51.580	-1.100	0.800																			1580008668.0	6.61	12.24
26/01/2020 03:17:49	26012020	260120	031749	51.700	12.450268	-57.588222	51.720	0.440	-0.350	-0.580	51.700	-1.500	0.100																			1580008669.0	7.06	13.08
26/01/2020 03:17:50	26012020	260120	031750	51.800	12.450297	-57.588197	51.650	0.670	-0.570	-0.870	51.800	-2.000	-0.400																			1580008670.0	7.92	14.67
26/01/2020 03:17:51	26012020	260120	031751	51.720	12.450323	-57.588170	51.580	0.450	-0.270	-0.830	51.720	-1.900	-0.500																			1580008671.0	8.04	14.89
26/01/2020 03:17:52	26012020	260120	031752	51.690	12.450347	-57.588143	51.790	-0.120	0.200	-0.560	51.690	-1.400	-0.300																			1580008672.0	7.45	13.80
26/01/2020 03:17:53	26012020	260120	031753	51.910	12.450368	-57.588118	52.140	-0.640	0.430	-0.170	51.910	-1.000	0.000																			1580008673.0	6.88	12.74
26/01/2020 03:17:54	26012020	260120	031754	52.250	12.450387	-57.588093	52.380	-0.800	0.190	0.340	52.250	-1.100	0.400																			1580008674.0	6.80	12.59
26/01/2020 03:17:55	26012020	260120	031755	52.440	12.450403	-57.588063	52.330	-0.580	-0.230	1.070	52.440	-1.500	1.100																			1580008675.0	7.20	13.33
26/01/2020 03:17:56	26012020	260120	031756	52.330	12.450422	-57.588033	52.170	-0.240	-0.470	1.680	52.330	-1.800	1.800																			1580008676.0	7.65	14.17
26/01/2020 03:17:57	26012020	260120	031757	52.140	12.450440	-57.588002	52.170	0.090	-0.530	1.720	52.140	-1.900	2.100																			1580008677.0	7.62	14.11
26/01/2020 03:17:58	26012020	260120	031758	52.170	12.450460	-57.587973	52.300	0.380	-0.550	1.200	52.170	-2.000	1.900																			1580008678.0	7.33	13.58
26/01/2020 03:17:59	26012020	260120	031759	52.330	12.450482	-57.587948	52.340	0.600	-0.440	0.450	52.330	-1.900	1.200	1015.20	25.80	25.80	20.40	20.40	-1.00	72.00	72.00	390.00	25.20	9.00	8.80	68.00	5.10	15	3312.00	27.40	27.40	1580008679.0	7.31	13.54
26/01/2020 03:18:00	26012020	260120	031800	52.390	12.450507	-57.587923	52.290	0.650	-0.210	-0.280	52.390	-1.700	0.400																			1580008680.0	7.41	13.72
26/01/2020 03:18:01	26012020	260120	031801	52.370	12.450533	-57.587900	52.350	0.470	0.010	-0.860	52.370	-1.500	-0.200																			1580008681.0	7.38	13.67
26/01/2020 03:18:02	26012020	260120	031802	52.470	12.450558	-57.587877	52.510	0.120	0.180	-1.220	52.470	-1.300	-0.700																			1580008682.0	7.32	13.56
26/01/2020 03:18:03	26012020	260120	031803	52.650	12.450582	-57.587852	52.660	-0.290	0.310	-1.340	52.650	-1.200	-0.900																			1580008683.0	7.29	13.50
26/01/2020 03:18:04	26012020	260120	031804	52.790	12.450605	-57.587827	52.730	-0.540	0.280	-1.060	52.790	-1.100	-0.900																			1580008684.0	7.20	13.33
26/01/2020 03:18:05	26012020	260120	031805	52.830	12.450627	-57.587802	52.800	-0.490	-0.130	-0.430	52.830	-1.300	-0.400																			1580008685.0	7.13	13.20
26/01/2020 03:18:06	26012020	260120	031806	52.910	12.450647	-57.587773	52.940	-0.220	-0.730	0.260	52.910	-1.900	0.300																			1580008686.0	7.35	13.61
26/01/2020 03:18:07	26012020	260120	031807	53.040	12.450665	-57.587742	53.070	-0.010	-0.950	0.840	53.040	-2.300	0.900																			1580008687.0	7.84	14.52
26/01/2020 03:18:08	26012020	260120	031808	53.110	12.450683	-57.587708	53.060	-0.000	-0.500	1.360	53.110	-2.200	1.500																			1580008688.0	7.89	14.61
26/01/2020 03:18:09	26012020	260120	031809	53.040	12.450700	-57.587680	52.960	-0.110	0.220	1.620	53.040	-1.500	1.900																			1580008689.0	7.34	13.59
26/01/2020 03:18:10	26012020	260120	031810	52.910	12.450717	-57.587653	52.910	-0.100	0.550	1.300	52.910	-0.900	1.900																			1580008690.0	6.71	12.43
26/01/2020 03:18:11	26012020	260120	031811	52.910	12.450737	-57.587628	53.000	0.140	0.290	0.510	52.910	-0.900	1.300																			1580008691.0	6.70	12.41
26/01/2020 03:18:12	26012020	260120	031812	53.040	12.450760	-57.587603	53.190	0.470	-0.330	-0.340	53.040	-1.400	0.400																			1580008692.0	7.26	13.45
26/01/2020 03:18:13	26012020	260120	031813	53.260	12.450787	-57.587578	53.310	0.590	-0.740	-1.000	53.260	-2.000	-0.400																			1580008693.0	7.86	14.56
26/01/2020 03:18:14	26012020	260120	031814	53.360	12.450813	-57.587552	53.210	0.360	-0.600	-1.370	53.360	-2.100	-0.900																			1580008694.0	8.02	14.85
26/01/2020 03:18:15	26012020	260120	031815	53.280	12.450840	-57.587527	53.050	-0.040	-0.190	-1.330	53.250	-1.800	-1.000																			1580008695.0	7.59	14.06
26/01/2020 03:18:16	26012020	260120	031816	53.100	12.450862	-57.587503	53.050	-0.260	0.010	-0.950	53.100	-1.500	-0.800																			1580008696.0	7.04	13.04
26/01/2020 03:18:17	26012020	260120	031817	53.120	12.450883	-57.587477	53.200	-0.270	0.040	-0.350	53.120	-1.400	-0.300																			1580008697.0	7.01	12.98
26/01/2020 03:18:18	26012020	260120	031818	53.270	12.450902	-57.587448	53.310	-0.310	0.170	0.330	53.270	-1.300	0.400																			1580008698.0	7.35	13.61
26/01/2020 03:18:19	26012020	260120	031819	53.340	12.450918	-57.587418	53.380	-0.410	0.230	1.000	53.340	-1.200	1.100																			1580008699.0	7.37	13.65
26/01/2020 03:18:20	26012020	260120	031820	53.390	12.450935	-57.587388	53.520	-0.380	-0.060	1.400	53.390	-1.300	1.600																			1580008700.0	7.14	13.22
26/01/2020 03:18:21	26012020	260120	031821	53.560	12.450952	-57.587358	53.690	-0.090	-0.560	1.420	53.560	-1.700	1.800																			1580008701.0	7.26	13.45
26/01/2020 03:18:22	26012020	260120	031822	53.700	12.450972	-57.587328	53.670	0.300	-0.780	1.270	53.700	-2.100	1.700																			1580008702.0	7.64	14.15
26/01/2020 03:18:23	26012020	260120	031823	53.640	12.450995	-57.587300	53.480	0.520	-0.510	0.970	53.640	-2.100	1.500																			1580008703.0	7.74	14.33
26/01/2020 03:18:24	26012020	260120	031824	53.460	12.451017	-57.587273	53.340	0.510	-0.130	0.390	53.460	-1.700	1.100																			1580008704.0	7.38	13.67
26/01/2020 03:18:25	26012020	260120	031825	53.360	12.451040	-57.587250	53.330	0.410	0.020	-0.370	53.360	-1.400	0.400																			1580008705.0	7.08	13.11
26/01/2020 03:18:26	26012020	260120	031826	53.400	12.451065	-57.587227	53.430	0.250	0.010	-1.010	53.400	-1.400	-0.400																			1580008706.0	7.25	13.43
26/01/2020 03:18:27	26012020	260120	031827	53.510	12.451090	-57.587202	53.550	-0.060	0.100	-1.300	53.530	-1.400	-0.800																			1580008707.0	7.54	13.96
26/01/2020 03:18:28	26012020	260120	031828	53.650	12.451115	-57.587177	53.670	-0.500	0.230	-1.170	53.650	-1.200	-0.900																			1580008708.0	7.44	13.78
26/01/2020 03:18:29	26012020	260120	031829	53.770	12.451135	-57.587150	53.830	-0.810	0.230	-0.750	53.770	-1.100	-0.600																			1580008709.0	7.18	13.30
26/01/2020 03:18:30	26012020	260120	031830	53.920	12.451153	-57.587123	54.010	-0.740	-0.000	-0.150	53.920	-1.300	-0.100																			1580008710.0	7.07	13.09
26/01/2020 03:18:31	26012020	260120	031831	54.070	12.451172	-57.587093	54.050	-0.220	-0.520	0.550	54.070	-1.600	0.600																			1580008711.0	7.20	13.33
26/01/2020 03:18:32	26012020	260120	031832	54.040	12.451188	-57.587063	53.920	0.450	-1.060	1.090	54.040	-2.200	1.200																			1580008712.0	7.53	13.95
26/01/2020 03:18:33	26012020	260120	031833	53.900	12.451207	-57.587030	53.830	0.790	-1.110	1.250	53.900	-2.600	1.600																			1580008713.0	7.92	14.67
26/01/2020 03:18:34	26012020	260120	031834	53.840	12.451228	-57.587000	53.840	0.620	-0.400	0.990	53.840	-2.200	1.500																			1580008714.0	7.84	14.52
26/01/2020 03:18:35	26012020	260120	031835	53.880	12.451250	-57.586973	53.920	0.140	0.640	0.510	53.880	-1.200	1.100																			1580008715.0	7.22	13.37
26/01/2020 03:18:36	26012020	260120	031836	53.970	12.451270	-57.586952	54.040	-0.200	1.020	-0.050	53.970	-0.400	0.600																			1580008716.0	6.52	12.08
26/01/2020 03:18:37	26012020	260120	031837	54.110	12.451293	-57.586930	54.220	-0.160	0.340	-0.600	54.110	-0.600	0.000																			1580008717.0	6.54	12.11
26/01/2020 03:18:38	26012020	260120	031838	54.280	12.451317	-57.586905	54.270	0.040	-0.600	-0.850	54.280	-1.600	-0.400																			1580008718.0	7.48	13.85
26/01/2020 03:18:39	26012020	260120	031839	54.310	12.451342	-57.586875	54.190	0.060	-0.840	-0.790	54.310	-2.200	-0.500																			1580008719.0	8.31	15.39
26/01/2020 03:18:40	26012020	260120	031840	54.210	12.451365	-57.586845	54.100	-0.180	-0.370	-0.540	54.210	-2.000	-0.300																			1580008720.0	8.00	14.82
26/01/2020 03:18:41	26012020	260120	031841	54.120	12.451383	-57.586817	54.060	-0.440	0.170	-0.240	54.120	-1.400	-0.000																			1580008721.0	7.03	13.02
26/01/2020 03:18:42	26012020	260120	031842	54.060	12.451400	-57.586792	54.030	-0.470	0.300	-0.010	54.060	-1.100	0.300																			1580008722.0	6.54	12.11
26/01/2020 03:18:43	26012020	260120	031843	54.050	12.451418	-57.586765	54.150	-0.200	-0.080	0.110	54.050	-1.300	0.400																			1580008723.0	6.74	12.48
26/01/2020 03:18:44	26012020	260120	031844	54.180	12.451438	-57.586738	54.320	0.200	-0.630	0.220	54.180	-1.800	0.500																			1580008724.0	7.29	13.50
26/01/2020 03:18:45	26012020	260120	031845	54.330	12.451460	-57.586708	54.340	0.410	-0.770	0.420	54.330	-2.200	0.700																			1580008725.0	7.78	14.41
26/01/2020 03:18:46	26012020	260120	031846	54.320	12.451482	-57.586678	54.210	0.300	-0.380	0.690	54.320	-2.000	0.900																			1580008726.0	7.76	14.37
26/01/2020 03:18:47	26012020	260120	031847	54.180	12.451500	-57.586650	54.080	0.080	0.140	0.830	54.180	-1.500	1.200																			1580008727.0	7.23	13.39
26/01/2020 03:18:48	26012020	260120	031848	54.050	12.451518	-57.586623	54.030	0.010	0.310	0.570	54.050	-1.100	1.100																			1580008728.0	6.80	12.59
26/01/2020 03:18:49	26012020	260120	031849	54.040	12.451538	-57.586598	54.080	0.120	0.100	0.050	54.040	-1.200	0.700																			1580008729.0	6.91	12.80
26/01/2020 03:18:50	26012020	260120	031850	54.120	12.451562	-57.586573	54.130	0.200	-0.180	-0.380	54.120	-1.500	0.200																			1580008730.0	7.39	13.69
26/01/2020 03:18:51	26012020	260120	031851	54.160	12.451587	-57.586547	54.110	0.100	-0.260	-0.570	54.160	-1.700	-0.100																			1580008731.0	7.66	14.19
26/01/2020 03:18:52	26012020	260120	031852	54.140	12.451608	-57.586520	54.140	-0.130	-0.200	-0.590	54.140	-1.600	-0.200																			1580008732.0	7.48	13.85
26/01/2020 03:18:53	26012020	260120	031853	54.170	12.451630	-57.586493	54.230	-0.270	-0.210	-0.460	54.180	-1.600	-0.200																			1580008733.0	7.18	13.30
26/01/2020 03:18:54	26012020	260120	031854	54.270	12.451650	-57.586467	54.280	-0.250	-0.290	-0.200	54.270	-1.600	0.000																			1580008734.0	7.15	13.24
26/01/2020 03:18:55	26012020	260120	031855	54.290	12.451670	-57.586438	54.270	-0.130	-0.290	0.120	54.290	-1.700	0.300																			1580008735.0	7.31	13.54
26/01/2020 03:18:56	26012020	260120	031856	54.260	12.451688	-57.586408	54.180	-0.060	-0.060	0.510	54.260	-1.600	0.700																			1580008736.0	7.40	13.70
26/01/2020 03:18:57	26012020	260120	031857	54.170	12.451707	-57.586380	54.110	-0.090	0.180	0.800	54.170	-1.300	1.000																			1580008737.0	7.20	13.33
26/01/2020 03:18:58	26012020	260120	031858	54.090	12.451725	-57.586353	54.110	-0.100	0.090	0.810	54.090	-1.200	1.200																			1580008738.0	6.93	12.83
26/01/2020 03:18:59	26012020	260120	031859	54.120	12.451743	-57.586325	54.180	0.020	-0.340	0.490	54.120	-1.500	1.000	1015.20	25.80	25.80	20.70	20.70	-1.00	73.00	73.00	391.00	25.20	9.00	8.90	70.00	5.20	15	3290.00	27.40	27.40	1580008739.0	7.03	13.02
26/01/2020 03:19:00	26012020	260120	031900	54.220	12.451765	-57.586298	54.270	0.270	-0.750	0.120	54.220	-2.000	0.600																			1580008740.0	7.46	13.82
26/01/2020 03:19:01	26012020	260120	031901	54.320	12.451790	-57.586270	54.340	0.480	-0.750	-0.060	54.320	-2.200	0.400																			1580008741.0	7.78	14.41
26/01/2020 03:19:02	26012020	260120	031902	54.390	12.451813	-57.586243	54.340	0.440	-0.250	-0.100	54.390	-1.900	0.300																			1580008742.0	7.71	14.28
26/01/2020 03:19:03	26012020	260120	031903	54.380	12.451835	-57.586217	54.320	0.120	0.330	-0.060	54.380	-1.300	0.300																			1580008743.0	7.21	13.35
26/01/2020 03:19:04	26012020	260120	031904	54.340	12.451853	-57.586192	54.330	-0.200	0.490	-0.010	54.340	-0.900	0.300																			1580008744.0	6.76	12.52
26/01/2020 03:19:05	26012020	260120	031905	54.380	12.451872	-57.586165	54.450	-0.320	0.270	-0.070	54.380	-1.000	0.300																			1580008745.0	6.87	12.72
26/01/2020 03:19:06	26012020	260120	031906	54.500	12.451892	-57.586137	54.530	-0.270	-0.090	-0.100	54.500	-1.300	0.300																			1580008746.0	7.28	13.48
26/01/2020 03:19:07	26012020	260120	031907	54.570	12.451913	-57.586110	54.490	-0.110	-0.420	0.020	54.570	-1.700	0.300																			1580008747.0	7.49	13.87
26/01/2020 03:19:08	26012020	260120	031908	54.500	12.451935	-57.586082	54.400	0.090	-0.680	0.230	54.500	-2.000	0.500																			1580008748.0	7.49	13.87
26/01/2020 03:19:09	26012020	260120	031909	54.430	12.451955	-57.586053	54.430	0.180	-0.600	0.400	54.430	-2.100	0.700																			1580008749.0	7.53	13.95
26/01/2020 03:19:10	26012020	260120	031910	54.460	12.451975	-57.586023	54.540	0.030	-0.170	0.420	54.460	-1.800	0.800																			1580008750.0	7.46	13.82
26/01/2020 03:19:11	26012020	260120	031911	54.550	12.451995	-57.585997	54.680	-0.220	0.190	0.310	54.580	-1.400	0.700																			1580008751.0	7.05	13.06
26/01/2020 03:19:12	26012020	260120	031912	54.720	12.452013	-57.585972	54.800	-0.280	0.160	0.240	54.720	-1.200	0.600																			1580008752.0	6.78	12.56
26/01/2020 03:19:13	26012020	260120	031913	54.790	12.452033	-57.585943	54.720	-0.110	-0.050	0.290	54.790	-1.400	0.600																			1580008753.0	7.05	13.06
26/01/2020 03:19:14	26012020	260120	031914	54.690	12.452052	-57.585915	54.580	0.120	-0.230	0.240	54.690	-1.600	0.600																			1580008754.0	7.43	13.76
26/01/2020 03:19:15	26012020	260120	031915	54.560	12.452073	-57.585887	54.500	0.280	-0.380	0.070	54.560	-1.700	0.500																			1580008755.0	7.48	13.85
26/01/2020 03:19:16	26012020	260120	031916	54.490	12.452093	-57.585858	54.490	0.330	-0.440	-0.120	54.490	-1.800	0.300																			1580008756.0	7.42	13.74
26/01/2020 03:19:17	26012020	260120	031917	54.500	12.452117	-57.585832	54.560	0.270	-0.360	-0.370	54.510	-1.800	0.100																			1580008757.0	7.42	13.74
26/01/2020 03:19:18	26012020	260120	031918	54.580	12.452138	-57.585805	54.580	0.100	-0.100	-0.430	54.580	-1.600	-0.100																			1580008758.0	7.37	13.65
26/01/2020 03:19:19	26012020	260120	031919	54.600	12.452160	-57.585778	54.530	-0.140	0.160	-0.190	54.600	-1.400	0.000																			1580008759.0	7.22	13.37
26/01/2020 03:19:20	26012020	260120	031920	54.540	12.452178	-57.585752	54.450	-0.310	0.150	0.150	54.540	-1.200	0.400																			1580008760.0	7.05	13.06
26/01/2020 03:19:21	26012020	260120	031921	54.450	12.452197	-57.585723	54.420	-0.270	-0.080	0.420	54.450	-1.400	0.700																			1580008761.0	7.14	13.22
26/01/2020 03:19:22	26012020	260120	031922	54.430	12.452217	-57.585695	54.430	-0.070	-0.240	0.620	54.430	-1.600	0.900																			1580008762.0	7.45	13.80
26/01/2020 03:19:23	26012020	260120	031923	54.430	12.452237	-57.585665	54.420	0.120	-0.280	0.700	54.430	-1.700	1.000																			1580008763.0	7.52	13.93
26/01/2020 03:19:24	26012020	260120	031924	54.430	12.452255	-57.585637	54.420	0.160	-0.260	0.610	54.430	-1.700	1.000																			1580008764.0	7.37	13.65
26/01/2020 03:19:25	26012020	260120	031925	54.430	12.452275	-57.585608	54.420	0.060	-0.240	0.480	54.430	-1.700	0.900																			1580008765.0	7.26	13.45
26/01/2020 03:19:26	26012020	260120	031926	54.430	12.452297	-57.585582	54.460	-0.070	-0.140	0.290	54.430	-1.600	0.700																			1580008766.0	7.26	13.45
26/01/2020 03:19:27	26012020	260120	031927	54.480	12.452317	-57.585553	54.450	-0.160	0.040	0.110	54.480	-1.500	0.500																			1580008767.0	7.24	13.41
26/01/2020 03:19:28	26012020	260120	031928	54.470	12.452337	-57.585528	54.320	-0.170	0.130	-0.020	54.470	-1.300	0.400																			1580008768.0	7.14	13.22
26/01/2020 03:19:29	26012020	260120	031929	54.370	12.452357	-57.585502	54.140	0.010	-0.230	-0.070	54.330	-1.400	0.300																			1580008769.0	7.03	13.02
26/01/2020 03:19:30	26012020	260120	031930	54.150	12.452378	-57.585473	53.990	0.320	-0.800	-0.080	54.150	-2.000	0.300																			1580008770.0	7.31	13.54
26/01/2020 03:19:31	26012020	260120	031931	54.030	12.452400	-57.585445	53.970	0.500	-0.910	-0.110	54.030	-2.400	0.300																			1580008771.0	7.90	14.63
26/01/2020 03:19:32	26012020	260120	031932	54.010	12.452423	-57.585415	54.010	0.370	-0.370	-0.040	54.010	-2.100	0.300																			1580008772.0	7.93	14.69
26/01/2020 03:19:33	26012020	260120	031933	54.040	12.452443	-57.585387	54.050	-0.010	0.380	0.170	54.040	-1.400	0.400																			1580008773.0	7.30	13.52
26/01/2020 03:19:34	26012020	260120	031934	54.080	12.452462	-57.585362	54.090	-0.420	0.770	0.440	54.080	-0.800	0.700																			1580008774.0	6.76	12.52
26/01/2020 03:19:35	26012020	260120	031935	54.110	12.452478	-57.585333	54.100	-0.600	0.550	0.580	54.110	-0.700	0.900																			1580008775.0	6.75	12.50
26/01/2020 03:19:36	26012020	260120	031936	54.120	12.452497	-57.585307	54.080	-0.450	-0.030	0.620	54.120	-1.100	1.000																			1580008776.0	7.16	13.26
26/01/2020 03:19:37	26012020	260120	031937	54.090	12.452518	-57.585277	53.970	-0.090	-0.550	0.710	54.090	-1.700	1.000																			1580008777.0	7.65	14.17
26/01/2020 03:19:38	26012020	260120	031938	53.960	12.452538	-57.585247	53.800	0.230	-0.780	0.780	53.960	-2.100	1.100																			1580008778.0	7.77	14.39
26/01/2020 03:19:39	26012020	260120	031939	53.800	12.452560	-57.585217	53.750	0.340	-0.640	0.610	53.800	-2.100	1.100																			1580008779.0	7.62	14.11
26/01/2020 03:19:40	26012020	260120	031940	53.770	12.452580	-57.585190	53.730	0.220	-0.250	0.320	53.770	-1.900	0.800																			1580008780.0	7.33	13.58
26/01/2020 03:19:41	26012020	260120	031941	53.760	12.452602	-57.585165	53.680	0.040	0.110	0.030	53.750	-1.400	0.500																			1580008781.0	7.03	13.02
26/01/2020 03:19:42	26012020	260120	031942	53.710	12.452622	-57.585140	53.640	-0.050	0.120	-0.150	53.710	-1.200	0.300																			1580008782.0	6.91	12.80
26/01/2020 03:19:43	26012020	260120	031943	53.690	12.452643	-57.585113	53.630	0.020	-0.170	-0.170	53.690	-1.400	0.200																			1580008783.0	7.10	13.15
26/01/2020 03:19:44	26012020	260120	031944	53.670	12.452665	-57.585085	53.540	0.080	-0.440	-0.000	53.670	-1.700	0.300																			1580008784.0	7.52	13.93
26/01/2020 03:19:45	26012020	260120	031945	53.560	12.452687	-57.585055	53.410	0.020	-0.440	0.200	53.560	-1.900	0.500																			1580008785.0	7.76	14.37
26/01/2020 03:19:46	26012020	260120	031946	53.450	12.452707	-57.585027	53.470	-0.130	-0.170	0.210	53.450	-1.700	0.600																			1580008786.0	7.60	14.08
26/01/2020 03:19:47	26012020	260120	031947	53.530	12.452727	-57.584998	53.570	-0.210	0.180	0.220	53.530	-1.400	0.600																			1580008787.0	7.28	13.48
26/01/2020 03:19:48	26012020	260120	031948	53.620	12.452745	-57.584972	53.490	-0.170	0.320	0.460	53.620	-1.100	0.700																			1580008788.0	7.05	13.06
26/01/2020 03:19:49	26012020	260120	031949	53.490	12.452763	-57.584943	53.240	-0.030	0.110	0.710	53.490	-1.100	1.000																			1580008789.0	7.04	13.04
26/01/2020 03:19:50	26012020	260120	031950	53.240	12.452783	-57.584915	53.050	0.150	-0.310	0.780	53.240	-1.500	1.100																			1580008790.0	7.31	13.54
26/01/2020 03:19:51	26012020	260120	031951	53.100	12.452803	-57.584887	53.020	0.260	-0.600	0.660	53.100	-1.900	1.100																			1580008791.0	7.61	14.09
26/01/2020 03:19:52	26012020	260120	031952	53.100	12.452825	-57.584858	53.050	0.150	-0.510	0.370	53.100	-2.000	0.900																			1580008792.0	7.70	14.26
26/01/2020 03:19:53	26012020	260120	031953	53.120	12.452848	-57.584830	52.980	-0.110	-0.170	0.100	53.120	-1.700	0.600																			1580008793.0	7.44	13.78
26/01/2020 03:19:54	26012020	260120	031954	53.050	12.452870	-57.584805	52.890	-0.260	0.080	0.050	53.050	-1.400	0.400																			1580008794.0	7.10	13.15
26/01/2020 03:19:55	26012020	260120	031955	52.980	12.452892	-57.584780	52.880	-0.160	-0.010	0.110	52.970	-1.300	0.500																			1580008795.0	7.00	12.96
26/01/2020 03:19:56	26012020	260120	031956	52.980	12.452912	-57.584753	52.890	0.090	-0.260	0.180	52.980	-1.500	0.500																			1580008796.0	7.27	13.46
26/01/2020 03:19:57	26012020	260120	031957	52.960	12.452933	-57.584725	52.770	0.270	-0.370	0.390	52.960	-1.700	0.600																			1580008797.0	7.61	14.09
26/01/2020 03:19:58	26012020	260120	031958	52.810	12.452953	-57.584695	52.650	0.260	-0.250	0.610	52.810	-1.700	0.900																			1580008798.0	7.64	14.15
26/01/2020 03:19:59	26012020	260120	031959	52.720	12.452972	-57.584665	52.710	0.040	-0.100	0.510	52.720	-1.600	1.000	1015.20	25.80	25.80	20.70	20.70	-1.00	73.00	73.00	391.00	25.20	3.00	8.70	59.00	5.00	15	3309.00	27.40	27.40	1580008799.0	7.40	13.70
26/01/2020 03:20:00	26012020	260120	032000	52.800	12.452992	-57.584638	52.750	-0.180	0.050	0.210	52.800	-1.400	0.700																			1580008800.0	7.22	13.37
26/01/2020 03:20:01	26012020	260120	032001	52.830	12.453015	-57.584612	52.650	-0.210	0.070	0.090	52.830	-1.300	0.500																			1580008801.0	7.21	13.35
26/01/2020 03:20:02	26012020	260120	032002	52.720	12.453037	-57.584587	52.550	-0.080	-0.130	0.100	52.720	-1.400	0.500																			1580008802.0	7.24	13.41
26/01/2020 03:20:03	26012020	260120	032003	52.620	12.453058	-57.584560	52.530	0.020	-0.340	0.160	52.620	-1.700	0.500																			1580008803.0	7.43	13.76
26/01/2020 03:20:04	26012020	260120	032004	52.610	12.453080	-57.584532	52.520	-0.060	-0.260	0.230	52.610	-1.700	0.600																			1580008804.0	7.63	14.13
26/01/2020 03:20:05	26012020	260120	032005	52.590	12.453102	-57.584503	52.460	-0.210	-0.000	0.260	52.590	-1.500	0.600																			1580008805.0	7.45	13.80
26/01/2020 03:20:06	26012020	260120	032006	52.530	12.453122	-57.584477	52.450	-0.140	-0.080	0.270	52.530	-1.400	0.600																			1580008806.0	7.03	13.02
26/01/2020 03:20:07	26012020	260120	032007	52.520	12.453142	-57.584450	52.470	0.210	-0.570	0.290	52.530	-1.700	0.600																			1580008807.0	7.03	13.02
26/01/2020 03:20:08	26012020	260120	032008	52.530	12.453162	-57.584420	52.420	0.410	-0.730	0.250	52.530	-2.100	0.600																			1580008808.0	7.70	14.26
26/01/2020 03:20:09	26012020	260120	032009	52.450	12.453185	-57.584390	52.300	0.220	-0.200	0.130	52.450	-1.900	0.500																			1580008809.0	7.98	14.78
26/01/2020 03:20:10	26012020	260120	032010	52.320	12.453207	-57.584365	52.140	-0.120	0.500	0.130	52.320	-1.200	0.500																			1580008810.0	7.33	13.58
26/01/2020 03:20:11	26012020	260120	032011	52.160	12.453228	-57.584340	52.000	-0.210	0.540	0.210	52.160	-0.800	0.500																			1580008811.0	6.64	12.30
26/01/2020 03:20:12	26012020	260120	032012	52.060	12.453248	-57.584317	52.010	-0.030	-0.110	0.170	52.060	-1.200	0.600																			1580008812.0	6.83	12.65
26/01/2020 03:20:13	26012020	260120	032013	52.110	12.453270	-57.584288	52.110	0.090	-0.680	0.100	52.110	-1.900	0.500																			1580008813.0	7.67	14.20
26/01/2020 03:20:14	26012020	260120	032014	52.220	12.453293	-57.584258	52.150	-0.030	-0.580	0.200	52.220	-2.100	0.500																			1580008814.0	8.09	14.98
26/01/2020 03:20:15	26012020	260120	032015	52.230	12.453315	-57.584230	52.080	-0.280	-0.060	0.420	52.230	-1.700	0.700																			1580008815.0	7.60	14.08
26/01/2020 03:20:16	26012020	260120	032016	52.120	12.453335	-57.584203	52.000	-0.420	0.280	0.610	52.120	-1.200	0.900																			1580008816.0	6.91	12.80
26/01/2020 03:20:17	26012020	260120	032017	52.050	12.453353	-57.584178	52.000	-0.310	0.160	0.670	52.050	-1.100	1.000																			1580008817.0	6.76	12.52
26/01/2020 03:20:18	26012020	260120	032018	52.060	12.453373	-57.584150	52.030	-0.030	-0.190	0.610	52.060	-1.400	1.000																			1580008818.0	7.13	13.20
26/01/2020 03:20:19	26012020	260120	032019	52.080	12.453395	-57.584123	52.020	0.270	-0.520	0.550	52.080	-1.800	0.900																			1580008819.0	7.53	13.95
26/01/2020 03:20:20	26012020	260120	032020	52.080	12.453418	-57.584095	51.970	0.440	-0.660	0.460	52.080	-2.000	0.900																			1580008820.0	7.63	14.13
26/01/2020 03:20:21	26012020	260120	032021	52.030	12.453440	-57.584067	51.940	0.420	-0.580	0.320	52.030	-2.100	0.800																			1580008821.0	7.59	14.06
26/01/2020 03:20:22	26012020	260120	032022	52.000	12.453463	-57.584040	51.960	0.260	-0.280	0.090	52.000	-1.900	0.600																			1580008822.0	7.47	13.83
26/01/2020 03:20:23	26012020	260120	032023	52.040	12.453485	-57.584015	52.010	0.060	0.110	-0.140	52.040	-1.500	0.300																			1580008823.0	7.31	13.54
26/01/2020 03:20:24	26012020	260120	032024	52.100	12.453508	-57.583990	52.010	-0.120	0.400	-0.160	52.100	-1.100	0.200																			1580008824.0	7.16	13.26
26/01/2020 03:20:25	26012020	260120	032025	52.090	12.453530	-57.583965	51.990	-0.230	0.350	-0.010	52.090	-1.000	0.300																			1580008825.0	7.10	13.15
26/01/2020 03:20:26	26012020	260120	032026	52.080	12.453552	-57.583938	52.120	-0.260	-0.000	0.100	52.080	-1.200	0.400																			1580008826.0	7.24	13.41
26/01/2020 03:20:27	26012020	260120	032027	52.260	12.453573	-57.583910	52.380	-0.250	-0.360	0.190	52.260	-1.600	0.500																			1580008827.0	7.54	13.96
26/01/2020 03:20:28	26012020	260120	032028	52.510	12.453595	-57.583882	52.520	-0.190	-0.450	0.330	52.510	-1.800	0.600																			1580008828.0	7.69	14.24
26/01/2020 03:20:29	26012020	260120	032029	52.620	12.453615	-57.583852	52.490	-0.070	-0.370	0.540	52.620	-1.800	0.800																			1580008829.0	7.48	13.85
26/01/2020 03:20:30	26012020	260120	032030	52.550	12.453635	-57.583825	52.400	0.070	-0.280	0.730	52.550	-1.700	1.000																			1580008830.0	7.25	13.43
26/01/2020 03:20:31	26012020	260120	032031	52.460	12.453655	-57.583797	52.370	0.130	-0.200	0.690	52.460	-1.600	1.100																			1580008831.0	7.24	13.41
26/01/2020 03:20:32	26012020	260120	032032	52.450	12.453675	-57.583770	52.360	0.080	-0.130	0.430	52.450	-1.600	0.900																			1580008832.0	7.31	13.54
26/01/2020 03:20:33	26012020	260120	032033	52.470	12.453698	-57.583743	52.410	0.020	-0.120	0.140	52.470	-1.500	0.600																			1580008833.0	7.30	13.52
26/01/2020 03:20:34	26012020	260120	032034	52.510	12.453722	-57.583718	52.480	0.020	-0.130	-0.090	52.510	-1.500	0.400																			1580008834.0	7.36	13.63
26/01/2020 03:20:35	26012020	260120	032035	52.580	12.453743	-57.583692	52.510	0.030	-0.100	-0.270	52.580	-1.500	0.200																			1580008835.0	7.43	13.76
26/01/2020 03:20:36	26012020	260120	032036	52.610	12.453767	-57.583665	52.580	0.010	-0.100	-0.410	52.610	-1.500	0.000																			1580008836.0	7.42	13.74
26/01/2020 03:20:37	26012020	260120	032037	52.690	12.453788	-57.583638	52.690	0.040	-0.240	-0.400	52.690	-1.600	-0.100																			1580008837.0	7.36	13.63
26/01/2020 03:20:38	26012020	260120	032038	52.770	12.453812	-57.583612	52.760	0.120	-0.390	-0.240	52.770	-1.800	0.000																			1580008838.0	7.45	13.80
26/01/2020 03:20:39	26012020	260120	032039	52.820	12.453833	-57.583583	52.740	0.140	-0.300	0.050	52.820	-1.800	0.300																			1580008839.0	7.63	14.13
26/01/2020 03:20:40	26012020	260120	032040	52.800	12.453853	-57.583553	52.720	-0.030	0.070	0.430	52.800	-1.500	0.600																			1580008840.0	7.54	13.96
26/01/2020 03:20:41	26012020	260120	032041	52.780	12.453872	-57.583527	52.700	-0.270	0.370	0.710	52.780	-1.200	1.000																			1580008841.0	7.19	13.32
26/01/2020 03:20:42	26012020	260120	032042	52.750	12.453892	-57.583498	52.720	-0.340	0.220	0.750	52.750	-1.100	1.100																			1580008842.0	6.93	12.83
26/01/2020 03:20:43	26012020	260120	032043	52.780	12.453912	-57.583473	52.800	-0.100	-0.420	0.640	52.780	-1.500	1.100																			1580008843.0	7.10	13.15
26/01/2020 03:20:44	26012020	260120	032044	52.860	12.453935	-57.583445	52.880	0.280	-0.970	0.520	52.860	-2.200	0.900																			1580008844.0	7.70	14.26
26/01/2020 03:20:45	26012020	260120	032045	52.930	12.453958	-57.583415	52.910	0.380	-0.750	0.440	52.930	-2.400	0.800																			1580008845.0	8.14	15.08
26/01/2020 03:20:46	26012020	260120	032046	52.960	12.453982	-57.583387	52.870	0.060	0.090	0.380	52.960	-1.700	0.800																			1580008846.0	7.78	14.41
26/01/2020 03:20:47	26012020	260120	032047	52.890	12.454000	-57.583360	52.740	-0.340	0.720	0.320	52.890	-0.900	0.700																			1580008847.0	6.85	12.69
26/01/2020 03:20:48	26012020	260120	032048	52.770	12.454018	-57.583337	52.740	-0.410	0.460	0.100	52.770	-0.700	0.600																			1580008848.0	6.45	11.95
26/01/2020 03:20:49	26012020	260120	032049	52.820	12.454040	-57.583312	52.890	-0.100	-0.410	-0.280	52.820	-1.400	0.300																			1580008849.0	7.00	12.96
26/01/2020 03:20:50	26012020	260120	032050	52.970	12.454063	-57.583282	53.010	0.240	-0.950	-0.570	52.970	-2.200	-0.100																			1580008850.0	7.99	14.80
26/01/2020 03:20:51	26012020	260120	032051	53.080	12.454090	-57.583253	52.980	0.260	-0.580	-0.470	53.080	-2.300	-0.200																			1580008851.0	8.30	15.37
26/01/2020 03:20:52	26012020	260120	032052	53.030	12.454112	-57.583225	52.850	0.020	0.190	-0.120	53.030	-1.600	0.100																			1580008852.0	7.53	13.95
26/01/2020 03:20:53	26012020	260120	032053	52.910	12.454130	-57.583200	52.760	-0.120	0.390	0.140	52.910	-1.000	0.400																			1580008853.0	6.60	12.22
26/01/2020 03:20:54	26012020	260120	032054	52.820	12.454148	-57.583175	52.750	0.050	-0.160	0.280	52.820	-1.300	0.600																			1580008854.0	6.64	12.30
26/01/2020 03:20:55	26012020	260120	032055	52.820	12.454170	-57.583147	52.850	0.300	-0.660	0.350	52.820	-1.900	0.700																			1580008855.0	7.56	14.00
26/01/2020 03:20:56	26012020	260120	032056	52.910	12.454193	-57.583117	53.010	0.290	-0.490	0.470	52.910	-2.100	0.800																			1580008856.0	8.15	15.09
26/01/2020 03:20:57	26012020	260120	032057	53.040	12.454217	-57.583088	53.160	0.000	0.110	0.680	53.080	-1.600	0.900																			1580008857.0	7.67	14.20
26/01/2020 03:20:58	26012020	260120	032058	53.190	12.454235	-57.583062	53.170	-0.310	0.450	0.870	53.190	-1.100	1.200																			1580008858.0	6.89	12.76
26/01/2020 03:20:59	26012020	260120	032059	53.200	12.454252	-57.583037	53.130	-0.380	0.220	0.890	53.200	-1.000	1.300	1015.20	25.70	25.80	20.60	20.60	-1.00	73.00	73.00	391.00	25.20	3.00	8.30	58.00	4.60	15	3267.00	27.40	27.40	1580008859.0	6.69	12.39
26/01/2020 03:21:00	26012020	260120	032100	53.140	12.454272	-57.583008	53.080	-0.180	-0.320	0.740	53.140	-1.500	1.200																			1580008860.0	7.15	13.24
26/01/2020 03:21:01	26012020	260120	032101	53.110	12.454293	-57.582980	53.080	0.110	-0.690	0.460	53.110	-2.000	1.000																			1580008861.0	7.69	14.24
26/01/2020 03:21:02	26012020	260120	032102	53.120	12.454317	-57.582952	53.060	0.260	-0.620	0.120	53.120	-2.100	0.600																			1580008862.0	7.83	14.50
26/01/2020 03:21:03	26012020	260120	032103	53.120	12.454340	-57.582925	53.030	0.200	-0.280	-0.120	53.120	-1.900	0.400																			1580008863.0	7.55	13.98
26/01/2020 03:21:04	26012020	260120	032104	53.090	12.454362	-57.582898	52.960	0.020	0.060	-0.250	53.090	-1.500	0.200																			1580008864.0	7.17	13.28
26/01/2020 03:21:05	26012020	260120	032105	53.020	12.454383	-57.582873	52.940	-0.120	0.230	-0.360	53.020	-1.200	0.100																			1580008865.0	7.05	13.06
26/01/2020 03:21:06	26012020	260120	032106	53.020	12.454405	-57.582848	53.100	-0.090	0.090	-0.490	53.020	-1.200	-0.100																			1580008866.0	7.10	13.15
26/01/2020 03:21:07	26012020	260120	032107	53.220	12.454427	-57.582822	53.390	0.020	-0.240	-0.520	53.220	-1.500	-0.200																			1580008867.0	7.32	13.56
26/01/2020 03:21:08	26012020	260120	032108	53.510	12.454450	-57.582793	53.530	0.020	-0.380	-0.300	53.510	-1.800	-0.100																			1580008868.0	7.63	14.13
26/01/2020 03:21:09	26012020	260120	032109	53.610	12.454470	-57.582763	53.360	-0.120	-0.170	0.220	53.610	-1.700	0.300																			1580008869.0	7.67	14.20
26/01/2020 03:21:10	26012020	260120	032110	53.380	12.454488	-57.582735	53.080	-0.150	0.030	0.740	53.380	-1.400	0.900																			1580008870.0	7.28	13.48
26/01/2020 03:21:11	26012020	260120	032111	53.100	12.454507	-57.582708	53.040	0.090	-0.190	0.890	53.100	-1.400	1.200																			1580008871.0	7.00	12.96
26/01/2020 03:21:12	26012020	260120	032112	53.110	12.454527	-57.582680	53.240	0.390	-0.530	0.700	53.110	-1.800	1.200																			1580008872.0	7.27	13.46
26/01/2020 03:21:13	26012020	260120	032113	53.330	12.454548	-57.582650	53.340	0.440	-0.480	0.430	53.330	-2.000	0.900																			1580008873.0	7.75	14.35
26/01/2020 03:21:14	26012020	260120	032114	53.400	12.454572	-57.582623	53.200	0.190	-0.090	0.330	53.400	-1.700	0.700																			1580008874.0	7.64	14.15
26/01/2020 03:21:15	26012020	260120	032115	53.210	12.454593	-57.582598	52.970	-0.140	0.170	0.250	53.210	-1.300	0.700																			1580008875.0	7.16	13.26
26/01/2020 03:21:16	26012020	260120	032116	53.000	12.454615	-57.582573	52.890	-0.340	0.110	0.060	53.000	-1.200	0.500																			1580008876.0	7.01	12.98
26/01/2020 03:21:17	26012020	260120	032117	52.970	12.454637	-57.582547	53.030	-0.340	-0.190	-0.200	52.970	-1.400	0.300																			1580008877.0	7.29	13.50
26/01/2020 03:21:18	26012020	260120	032118	53.170	12.454660	-57.582520	53.360	-0.230	-0.380	-0.360	53.170	-1.700	0.100																			1580008878.0	7.60	14.08
26/01/2020 03:21:19	26012020	260120	032119	53.490	12.454682	-57.582490	53.540	-0.150	-0.210	-0.210	53.490	-1.700	0.100																			1580008879.0	7.70	14.26
26/01/2020 03:21:20	26012020	260120	032120	53.620	12.454702	-57.582462	53.490	-0.110	0.080	0.110	53.620	-1.500	0.300																			1580008880.0	7.41	13.72
26/01/2020 03:21:21	26012020	260120	032121	53.540	12.454720	-57.582433	53.380	0.030	0.060	0.390	53.540	-1.300	0.700																			1580008881.0	7.04	13.04
26/01/2020 03:21:22	26012020	260120	032122	53.440	12.454738	-57.582407	53.370	0.270	-0.260	0.420	53.440	-1.500	0.800																			1580008882.0	7.08	13.11
26/01/2020 03:21:23	26012020	260120	032123	53.440	12.454758	-57.582378	53.400	0.450	-0.510	0.220	53.440	-1.800	0.700																			1580008883.0	7.52	13.93
26/01/2020 03:21:24	26012020	260120	032124	53.470	12.454783	-57.582350	53.400	0.420	-0.470	0.020	53.470	-1.900	0.500																			1580008884.0	7.72	14.30
26/01/2020 03:21:25	26012020	260120	032125	53.480	12.454807	-57.582323	53.370	0.180	-0.190	0.060	53.480	-1.700	0.400																			1580008885.0	7.57	14.02
26/01/2020 03:21:26	26012020	260120	032126	53.430	12.454828	-57.582298	53.300	-0.160	0.060	0.310	53.430	-1.400	0.600																			1580008886.0	7.26	13.45
26/01/2020 03:21:27	26012020	260120	032127	53.370	12.454848	-57.582272	53.370	-0.410	0.070	0.430	53.370	-1.300	0.800																			1580008887.0	7.11	13.17
26/01/2020 03:21:28	26012020	260120	032128	53.490	12.454868	-57.582243	53.610	-0.410	-0.110	0.340	53.490	-1.400	0.800																			1580008888.0	7.23	13.39
26/01/2020 03:21:29	26012020	260120	032129	53.720	12.454888	-57.582215	53.690	-0.230	-0.210	0.380	53.720	-1.600	0.700																			1580008889.0	7.49	13.87
26/01/2020 03:21:30	26012020	260120	032130	53.750	12.454908	-57.582185	53.530	-0.020	-0.120	0.510	53.750	-1.600	0.800																			1580008890.0	7.58	14.04
26/01/2020 03:21:31	26012020	260120	032131	53.550	12.454928	-57.582157	53.340	0.140	-0.110	0.470	53.550	-1.500	0.900																			1580008891.0	7.38	13.67
26/01/2020 03:21:32	26012020	260120	032132	53.390	12.454948	-57.582130	53.340	0.300	-0.290	0.170	53.390	-1.600	0.700																			1580008892.0	7.26	13.45
26/01/2020 03:21:33	26012020	260120	032133	53.450	12.454972	-57.582103	53.480	0.420	-0.480	-0.220	53.450	-1.800	0.300																			1580008893.0	7.46	13.82
26/01/2020 03:21:34	26012020	260120	032134	53.590	12.454997	-57.582077	53.620	0.400	-0.430	-0.540	53.590	-1.900	-0.000																			1580008894.0	7.69	14.24
26/01/2020 03:21:35	26012020	260120	032135	53.710	12.455020	-57.582050	53.730	0.170	-0.120	-0.570	53.730	-1.700	-0.200																			1580008895.0	7.64	14.15
26/01/2020 03:21:36	26012020	260120	032136	53.840	12.455043	-57.582023	53.790	-0.220	0.230	-0.280	53.840	-1.300	-0.100																			1580008896.0	7.33	13.58
26/01/2020 03:21:37	26012020	260120	032137	53.900	12.455062	-57.581997	53.790	-0.570	0.370	0.220	53.900	-1.100	0.300																			1580008897.0	7.08	13.11
26/01/2020 03:21:38	26012020	260120	032138	53.880	12.455080	-57.581968	53.700	-0.650	0.170	0.780	53.880	-1.100	0.900																			1580008898.0	7.08	13.11
26/01/2020 03:21:39	26012020	260120	032139	53.750	12.455097	-57.581938	53.570	-0.360	-0.310	1.140	53.750	-1.500	1.400																			1580008899.0	7.33	13.58
26/01/2020 03:21:40	26012020	260120	032140	53.600	12.455115	-57.581907	53.520	0.130	-0.760	1.120	53.600	-2.000	1.500																			1580008900.0	7.66	14.19
26/01/2020 03:21:41	26012020	260120	032141	53.580	12.455137	-57.581877	53.550	0.490	-0.780	0.810	53.580	-2.300	1.400																			1580008901.0	7.87	14.58
26/01/2020 03:21:42	26012020	260120	032142	53.610	12.455158	-57.581848	53.550	0.510	-0.300	0.370	53.610	-2.000	1.000																			1580008902.0	7.74	14.33
26/01/2020 03:21:43	26012020	260120	032143	53.610	12.455182	-57.581822	53.480	0.290	0.200	-0.100	53.610	-1.400	0.500																			1580008903.0	7.26	13.45
26/01/2020 03:21:44	26012020	260120	032144	53.550	12.455203	-57.581798	53.480	0.070	0.220	-0.610	53.550	-1.100	0.000																			1580008904.0	6.94	12.85
26/01/2020 03:21:45	26012020	260120	032145	53.590	12.455228	-57.581775	53.590	-0.040	-0.070	-0.900	53.590	-1.300	-0.400																			1580008905.0	7.24	13.41
26/01/2020 03:21:46	26012020	260120	032146	53.710	12.455252	-57.581748	53.690	-0.110	-0.210	-0.760	53.710	-1.600	-0.500																			1580008906.0	7.69	14.24
26/01/2020 03:21:47	26012020	260120	032147	53.780	12.455275	-57.581720	53.600	-0.200	-0.130	-0.270	53.780	-1.600	-0.200																			1580008907.0	7.70	14.26
26/01/2020 03:21:48	26012020	260120	032148	53.670	12.455293	-57.581690	53.460	-0.240	-0.130	0.250	53.670	-1.500	0.400																			1580008908.0	7.41	13.72
26/01/2020 03:21:49	26012020	260120	032149	53.540	12.455312	-57.581660	53.440	-0.080	-0.420	0.570	53.510	-1.700	0.800																			1580008909.0	7.28	13.48
26/01/2020 03:21:50	26012020	260120	032150	53.490	12.455330	-57.581630	53.460	0.140	-0.560	0.670	53.490	-2.000	1.000																			1580008910.0	7.57	14.02
26/01/2020 03:21:51	26012020	260120	032151	53.500	12.455352	-57.581600	53.450	0.170	-0.170	0.720	53.500	-1.800	1.100																			1580008911.0	7.83	14.50
26/01/2020 03:21:52	26012020	260120	032152	53.480	12.455372	-57.581572	53.440	-0.040	0.350	0.760	53.480	-1.300	1.100																			1580008912.0	7.39	13.69
26/01/2020 03:21:53	26012020	260120	032153	53.480	12.455392	-57.581547	53.470	-0.250	0.390	0.640	53.480	-1.000	1.100																			1580008913.0	6.82	12.63
26/01/2020 03:21:54	26012020	260120	032154	53.510	12.455412	-57.581522	53.470	-0.250	-0.050	0.370	53.510	-1.200	0.900																			1580008914.0	6.95	12.87
26/01/2020 03:21:55	26012020	260120	032155	53.520	12.455433	-57.581493	53.380	-0.060	-0.550	0.150	53.520	-1.700	0.600																			1580008915.0	7.53	13.95
26/01/2020 03:21:56	26012020	260120	032156	53.430	12.455458	-57.581465	53.250	0.180	-0.720	0.030	53.430	-2.100	0.500																			1580008916.0	7.90	14.63
26/01/2020 03:21:57	26012020	260120	032157	53.320	12.455482	-57.581437	53.200	0.340	-0.520	-0.060	53.320	-2.100	0.400																			1580008917.0	7.79	14.43
26/01/2020 03:21:58	26012020	260120	032158	53.270	12.455503	-57.581410	53.220	0.310	-0.150	-0.150	53.270	-1.700	0.300																			1580008918.0	7.43	13.76
26/01/2020 03:21:59	26012020	260120	032159	53.320	12.455523	-57.581383	53.370	0.110	0.140	-0.290	53.320	-1.400	0.200	1015.20	25.70	25.80	20.80	20.80	-1.00	74.00	74.00	391.00	25.20	5.00	8.70	62.00	4.90	15	3248.00	27.40	27.40	1580008919.0	7.16	13.26
26/01/2020 03:22:00	26012020	260120	032200	53.490	12.455545	-57.581358	53.580	-0.080	0.130	-0.330	53.490	-1.200	0.000																			1580008920.0	7.08	13.11
26/01/2020 03:22:01	26012020	260120	032201	53.660	12.455565	-57.581332	53.630	-0.130	-0.100	-0.050	53.700	-1.400	0.100																			1580008921.0	7.23	13.39
26/01/2020 03:22:02	26012020	260120	032202	53.710	12.455587	-57.581302	53.380	-0.090	-0.250	0.470	53.710	-1.600	0.600																			1580008922.0	7.57	14.02
26/01/2020 03:22:03	26012020	260120	032203	53.410	12.455607	-57.581272	53.140	-0.090	-0.240	0.800	53.410	-1.700	1.100																			1580008923.0	7.69	14.24
26/01/2020 03:22:04	26012020	260120	032204	53.190	12.455625	-57.581243	53.210	-0.090	-0.250	0.720	53.190	-1.600	1.200																			1580008924.0	7.48	13.85
26/01/2020 03:22:05	26012020	260120	032205	53.320	12.455647	-57.581215	53.480	-0.030	-0.260	0.380	53.320	-1.700	0.900																			1580008925.0	7.36	13.63
26/01/2020 03:22:06	26012020	260120	032206	53.590	12.455668	-57.581188	53.610	-0.030	0.010	0.110	53.590	-1.600	0.600																			1580008926.0	7.47	13.83
26/01/2020 03:22:07	26012020	260120	032207	53.680	12.455692	-57.581162	53.530	-0.120	0.320	0.090	53.680	-1.200	0.400																			1580008927.0	7.35	13.61
26/01/2020 03:22:08	26012020	260120	032208	53.600	12.455712	-57.581137	53.490	-0.100	0.080	0.160	53.600	-1.100	0.500																			1580008928.0	6.96	12.89
26/01/2020 03:22:09	26012020	260120	032209	53.560	12.455732	-57.581110	53.520	0.120	-0.630	0.020	53.560	-1.700	0.500																			1580008929.0	7.13	13.20
26/01/2020 03:22:10	26012020	260120	032210	53.590	12.455755	-57.581080	53.510	0.310	-0.910	-0.190	53.590	-2.300	0.300																			1580008930.0	7.86	14.56
26/01/2020 03:22:11	26012020	260120	032211	53.580	12.455778	-57.581052	53.440	0.230	-0.430	-0.140	53.570	-2.100	0.200																			1580008931.0	8.07	14.95
26/01/2020 03:22:12	26012020	260120	032212	53.490	12.455800	-57.581023	53.360	-0.040	0.180	0.100	53.490	-1.500	0.400																			1580008932.0	7.34	13.59
26/01/2020 03:22:13	26012020	260120	032213	53.430	12.455820	-57.580998	53.420	-0.210	0.250	0.200	53.430	-1.100	0.600																			1580008933.0	6.74	12.48
26/01/2020 03:22:14	26012020	260120	032214	53.530	12.455840	-57.580973	53.580	-0.140	-0.060	0.170	53.530	-1.300	0.600																			1580008934.0	7.03	13.02
26/01/2020 03:22:15	26012020	260120	032215	53.680	12.455862	-57.580943	53.640	-0.000	-0.270	0.300	53.680	-1.600	0.600																			1580008935.0	7.65	14.17
26/01/2020 03:22:16	26012020	260120	032216	53.710	12.455883	-57.580915	53.600	0.010	-0.150	0.560	53.710	-1.600	0.800																			1580008936.0	7.81	14.46
26/01/2020 03:22:17	26012020	260120	032217	53.650	12.455902	-57.580885	53.570	-0.110	0.030	0.680	53.650	-1.400	1.000																			1580008937.0	7.46	13.82
26/01/2020 03:22:18	26012020	260120	032218	53.620	12.455920	-57.580857	53.590	-0.130	-0.050	0.500	53.620	-1.400	1.000																			1580008938.0	7.11	13.17
26/01/2020 03:22:19	26012020	260120	032219	53.650	12.455942	-57.580830	53.550	0.070	-0.340	0.180	53.650	-1.600	0.700																			1580008939.0	7.19	13.32
26/01/2020 03:22:20	26012020	260120	032220	53.610	12.455965	-57.580803	53.490	0.350	-0.530	-0.150	53.610	-1.900	0.400																			1580008940.0	7.58	14.04
26/01/2020 03:22:21	26012020	260120	032221	53.580	12.455988	-57.580777	53.520	0.430	-0.440	-0.390	53.580	-1.900	0.100																			1580008941.0	7.74	14.33
26/01/2020 03:22:22	26012020	260120	032222	53.620	12.456013	-57.580750	53.590	0.160	-0.060	-0.440	53.620	-1.700	-0.100																			1580008942.0	7.60	14.08
26/01/2020 03:22:23	26012020	260120	032223	53.680	12.456035	-57.580725	53.610	-0.320	0.310	-0.300	53.680	-1.300	-0.000																			1580008943.0	7.26	13.45
26/01/2020 03:22:24	26012020	260120	032224	53.700	12.456055	-57.580698	53.660	-0.670	0.300	-0.030	53.700	-1.100	0.200																			1580008944.0	6.96	12.89
26/01/2020 03:22:25	26012020	260120	032225	53.730	12.456075	-57.580672	53.780	-0.620	-0.090	0.300	53.750	-1.300	0.500																			1580008945.0	7.06	13.08
26/01/2020 03:22:26	26012020	260120	032226	53.880	12.456093	-57.580642	53.860	-0.220	-0.580	0.620	53.880	-1.800	0.800																			1580008946.0	7.48	13.85
26/01/2020 03:22:27	26012020	260120	032227	53.920	12.456112	-57.580610	53.740	0.250	-0.790	0.920	53.920	-2.100	1.200																			1580008947.0	7.83	14.50
26/01/2020 03:22:28	26012020	260120	032228	53.750	12.456132	-57.580578	53.510	0.530	-0.570	1.040	53.750	-2.100	1.400																			1580008948.0	7.83	14.50
26/01/2020 03:22:29	26012020	260120	032229	53.540	12.456152	-57.580550	53.440	0.560	-0.120	0.740	53.540	-1.800	1.300																			1580008949.0	7.51	13.91
26/01/2020 03:22:30	26012020	260120	032230	53.500	12.456173	-57.580523	53.500	0.430	0.250	0.030	53.500	-1.300	0.800																			1580008950.0	7.16	13.26
26/01/2020 03:22:31	26012020	260120	032231	53.590	12.456197	-57.580500	53.520	0.180	0.410	-0.620	53.590	-1.100	0.000																			1580008951.0	7.16	13.26
26/01/2020 03:22:32	26012020	260120	032232	53.610	12.456222	-57.580477	53.560	-0.090	0.280	-0.950	53.610	-1.000	-0.500																			1580008952.0	7.34	13.59
26/01/2020 03:22:33	26012020	260120	032233	53.690	12.456247	-57.580453	53.720	-0.240	-0.220	-0.950	53.690	-1.400	-0.600																			1580008953.0	7.40	13.70
26/01/2020 03:22:34	26012020	260120	032234	53.860	12.456270	-57.580425	53.870	-0.270	-0.720	-0.560	53.860	-1.900	-0.400																			1580008954.0	7.62	14.11
26/01/2020 03:22:35	26012020	260120	032235	53.980	12.456292	-57.580395	53.880	-0.330	-0.680	0.240	53.980	-2.200	0.200																			1580008955.0	7.92	14.67
26/01/2020 03:22:36	26012020	260120	032236	53.920	12.456310	-57.580363	53.750	-0.510	-0.120	1.140	53.920	-1.800	1.100																			1580008956.0	7.75	14.35
26/01/2020 03:22:37	26012020	260120	032237	53.790	12.456323	-57.580333	53.680	-0.570	0.280	1.640	53.770	-1.300	1.900																			1580008957.0	7.13	13.20
26/01/2020 03:22:38	26012020	260120	032238	53.710	12.456338	-57.580303	53.720	-0.260	0.020	1.530	53.710	-1.200	2.000																			1580008958.0	6.80	12.59
26/01/2020 03:22:39	26012020	260120	032239	53.750	12.456357	-57.580275	53.720	0.340	-0.550	0.990	53.750	-1.700	1.700																			1580008959.0	7.22	13.37
26/01/2020 03:22:40	26012020	260120	032240	53.780	12.456380	-57.580247	53.720	0.810	-0.710	0.320	53.780	-2.100	1.000																			1580008960.0	7.97	14.76
26/01/2020 03:22:41	26012020	260120	032241	53.780	12.456407	-57.580218	53.710	0.860	-0.320	-0.260	53.780	-2.000	0.400																			1580008961.0	8.08	14.96
26/01/2020 03:22:42	26012020	260120	032242	53.800	12.456432	-57.580195	53.700	0.500	0.270	-0.680	53.800	-1.400	-0.100																			1580008962.0	7.51	13.91
26/01/2020 03:22:43	26012020	260120	032243	53.790	12.456455	-57.580172	53.690	-0.010	0.620	-0.900	53.790	-0.900	-0.400																			1580008963.0	7.00	12.96
26/01/2020 03:22:44	26012020	260120	032244	53.790	12.456477	-57.580148	53.750	-0.370	0.400	-0.890	53.790	-0.800	-0.500																			1580008964.0	6.88	12.74
26/01/2020 03:22:45	26012020	260120	032245	53.880	12.456498	-57.580123	53.920	-0.450	-0.320	-0.690	53.880	-1.400	-0.400																			1580008965.0	7.13	13.20
26/01/2020 03:22:46	26012020	260120	032246	54.050	12.456522	-57.580093	54.070	-0.320	-0.950	-0.270	54.050	-2.100	-0.100																			1580008966.0	7.71	14.28
26/01/2020 03:22:47	26012020	260120	032247	54.160	12.456542	-57.580062	54.030	-0.180	-0.950	0.410	54.160	-2.500	0.400																			1580008967.0	8.05	14.91
26/01/2020 03:22:48	26012020	260120	032248	54.070	12.456560	-57.580030	53.900	-0.190	-0.320	1.200	54.070	-2.100	1.200																			1580008968.0	7.84	14.52
26/01/2020 03:22:49	26012020	260120	032249	53.910	12.456575	-57.580000	53.810	-0.270	0.320	1.740	53.910	-1.400	1.900																			1580008969.0	7.21	13.35
26/01/2020 03:22:50	26012020	260120	032250	53.850	12.456590	-57.579972	53.840	-0.220	0.420	1.610	53.850	-1.000	2.100																			1580008970.0	6.75	12.50
26/01/2020 03:22:51	26012020	260120	032251	53.880	12.456607	-57.579943	53.880	0.050	0.060	0.950	53.880	-1.200	1.700																			1580008971.0	6.94	12.85
26/01/2020 03:22:52	26012020	260120	032252	53.920	12.456630	-57.579917	53.900	0.420	-0.360	0.160	53.920	-1.600	0.900																			1580008972.0	7.53	13.95
26/01/2020 03:22:53	26012020	260120	032253	53.950	12.456655	-57.579890	53.900	0.620	-0.540	-0.560	53.950	-1.900	0.100																			1580008973.0	7.88	14.59
26/01/2020 03:22:54	26012020	260120	032254	53.980	12.456682	-57.579863	53.890	0.510	-0.380	-1.120	53.980	-1.900	-0.500																			1580008974.0	7.84	14.52
26/01/2020 03:22:55	26012020	260120	032255	54.010	12.456707	-57.579840	53.930	0.180	-0.060	-1.420	54.010	-1.600	-0.900																			1580008975.0	7.52	13.93
26/01/2020 03:22:56	26012020	260120	032256	54.090	12.456730	-57.579815	53.960	-0.140	0.110	-1.240	54.090	-1.400	-1.000																			1580008976.0	7.18	13.30
26/01/2020 03:22:57	26012020	260120	032257	54.080	12.456752	-57.579790	53.900	-0.360	0.010	-0.600	54.080	-1.300	-0.600																			1580008977.0	7.07	13.09
26/01/2020 03:22:58	26012020	260120	032258	54.000	12.456772	-57.579762	53.910	-0.480	-0.200	0.170	54.000	-1.500	0.200																			1580008978.0	7.32	13.56
26/01/2020 03:22:59	26012020	260120	032259	53.990	12.456788	-57.579730	53.960	-0.500	-0.280	0.960	53.990	-1.700	1.000	1015.20	25.70	25.80	20.60	20.70	-1.00	73.00	73.00	391.00	25.20	6.00	8.90	64.00	5.10	15	3311.00	27.40	27.40	1580008979.0	7.59	14.06
26/01/2020 03:23:00	26012020	260120	032300	54.010	12.456805	-57.579698	53.940	-0.360	-0.130	1.670	54.010	-1.600	1.700																			1580008980.0	7.57	14.02
26/01/2020 03:23:01	26012020	260120	032301	53.970	12.456820	-57.579667	53.800	-0.070	-0.050	2.030	53.950	-1.500	2.300																			1580008981.0	7.36	13.63
26/01/2020 03:23:02	26012020	260120	032302	53.810	12.456837	-57.579637	53.720	0.320	-0.340	1.810	53.810	-1.600	2.400																			1580008982.0	7.17	13.28
26/01/2020 03:23:03	26012020	260120	032303	53.760	12.456855	-57.579608	53.780	0.660	-0.790	1.030	53.760	-2.000	1.800																			1580008983.0	7.40	13.70
26/01/2020 03:23:04	26012020	260120	032304	53.840	12.456880	-57.579582	53.850	0.780	-0.710	0.040	53.840	-2.300	0.900																			1580008984.0	7.95	14.72
26/01/2020 03:23:05	26012020	260120	032305	53.910	12.456908	-57.579555	53.750	0.510	0.050	-0.690	53.910	-1.800	-0.000																			1580008985.0	8.05	14.91
26/01/2020 03:23:06	26012020	260120	032306	53.830	12.456935	-57.579533	53.600	-0.100	0.820	-1.020	53.830	-0.900	-0.500																			1580008986.0	7.31	13.54
26/01/2020 03:23:07	26012020	260120	032307	53.700	12.456957	-57.579512	53.570	-0.670	0.790	-1.020	53.700	-0.500	-0.700																			1580008987.0	6.61	12.24
26/01/2020 03:23:08	26012020	260120	032308	53.710	12.456977	-57.579487	53.710	-0.850	0.000	-0.890	53.710	-1.000	-0.600																			1580008988.0	6.79	12.58
26/01/2020 03:23:09	26012020	260120	032309	53.860	12.456998	-57.579458	53.780	-0.580	-0.850	-0.520	53.860	-1.900	-0.400																			1580008989.0	7.61	14.09
26/01/2020 03:23:10	26012020	260120	032310	53.870	12.457018	-57.579425	53.650	-0.140	-1.000	0.140	53.870	-2.500	0.200																			1580008990.0	8.16	15.11
26/01/2020 03:23:11	26012020	260120	032311	53.710	12.457037	-57.579392	53.550	0.130	-0.450	0.780	53.710	-2.200	0.900																			1580008991.0	7.98	14.78
26/01/2020 03:23:12	26012020	260120	032312	53.570	12.457052	-57.579362	53.450	0.240	0.090	1.110	53.570	-1.500	1.400																			1580008992.0	7.16	13.26
26/01/2020 03:23:13	26012020	260120	032313	53.470	12.457068	-57.579335	53.370	0.340	0.130	0.980	53.470	-1.200	1.500																			1580008993.0	6.68	12.37
26/01/2020 03:23:14	26012020	260120	032314	53.390	12.457088	-57.579308	53.290	0.490	-0.160	0.590	53.390	-1.400	1.100																			1580008994.0	7.02	13.00
26/01/2020 03:23:15	26012020	260120	032315	53.300	12.457112	-57.579283	53.230	0.620	-0.390	0.240	53.300	-1.700	0.800																			1580008995.0	7.62	14.11
26/01/2020 03:23:16	26012020	260120	032316	53.280	12.457138	-57.579257	53.330	0.550	-0.380	0.030	53.280	-1.800	0.500																			1580008996.0	7.83	14.50
26/01/2020 03:23:17	26012020	260120	032317	53.410	12.457163	-57.579232	53.450	0.140	-0.130	0.040	53.410	-1.700	0.400																			1580008997.0	7.62	14.11
26/01/2020 03:23:18	26012020	260120	032318	53.520	12.457183	-57.579203	53.460	-0.530	0.240	0.240	53.520	-1.400	0.500																			1580008998.0	7.32	13.56
26/01/2020 03:23:19	26012020	260120	032319	53.530	12.457202	-57.579177	53.430	-1.050	0.400	0.490	53.530	-1.100	0.800																			1580008999.0	7.04	13.04
26/01/2020 03:23:20	26012020	260120	032320	53.490	12.457220	-57.579148	53.430	-1.020	0.160	0.590	53.490	-1.100	0.900																			1580009000.0	6.95	12.87
26/01/2020 03:23:21	26012020	260120	032321	53.500	12.457238	-57.579120	53.440	-0.450	-0.280	0.560	53.500	-1.500	0.900																			1580009001.0	7.22	13.37
26/01/2020 03:23:22	26012020	260120	032322	53.480	12.457258	-57.579090	53.340	0.280	-0.620	0.430	53.480	-1.900	0.900																			1580009002.0	7.61	14.09
26/01/2020 03:23:23	26012020	260120	032323	53.360	12.457280	-57.579062	53.240	0.750	-0.730	0.170	53.360	-2.100	0.700																			1580009003.0	7.69	14.24
26/01/2020 03:23:24	26012020	260120	032324	53.300	12.457302	-57.579033	53.250	0.820	-0.590	-0.210	53.300	-2.100	0.300																			1580009004.0	7.55	13.98
26/01/2020 03:23:25	26012020	260120	032325	53.320	12.457325	-57.579008	53.270	0.570	-0.200	-0.510	53.320	-1.800	-0.000																			1580009005.0	7.41	13.72
26/01/2020 03:23:26	26012020	260120	032326	53.360	12.457348	-57.578983	53.360	0.150	0.270	-0.630	53.360	-1.400	-0.200																			1580009006.0	7.25	13.43
26/01/2020 03:23:27	26012020	260120	032327	53.440	12.457372	-57.578958	53.430	-0.270	0.510	-0.470	53.470	-1.000	-0.200																			1580009007.0	7.03	13.02
26/01/2020 03:23:28	26012020	260120	032328	53.520	12.457392	-57.578933	53.450	-0.440	0.170	-0.110	53.520	-1.000	0.100																			1580009008.0	6.93	12.83
26/01/2020 03:23:29	26012020	260120	032329	53.530	12.457412	-57.578905	53.420	-0.270	-0.420	0.390	53.530	-1.600	0.500																			1580009009.0	7.28	13.48
26/01/2020 03:23:30	26012020	260120	032330	53.490	12.457432	-57.578875	53.360	-0.010	-0.700	0.900	53.490	-2.000	1.000																			1580009010.0	7.87	14.58
26/01/2020 03:23:31	26012020	260120	032331	53.400	12.457450	-57.578843	53.320	0.080	-0.500	1.230	53.400	-2.100	1.400																			1580009011.0	7.93	14.69
26/01/2020 03:23:32	26012020	260120	032332	53.360	12.457468	-57.578813	53.320	-0.050	-0.010	1.320	53.360	-1.700	1.700																			1580009012.0	7.45	13.80
26/01/2020 03:23:33	26012020	260120	032333	53.370	12.457487	-57.578785	53.370	-0.210	0.330	1.060	53.370	-1.200	1.600																			1580009013.0	6.96	12.89
26/01/2020 03:23:34	26012020	260120	032334	53.400	12.457505	-57.578758	53.370	-0.180	0.160	0.590	53.400	-1.100	1.200																			1580009014.0	6.78	12.56
26/01/2020 03:23:35	26012020	260120	032335	53.400	12.457527	-57.578733	53.280	0.050	-0.280	0.120	53.400	-1.500	0.700																			1580009015.0	7.16	13.26
26/01/2020 03:23:36	26012020	260120	032336	53.320	12.457552	-57.578707	53.190	0.270	-0.500	-0.370	53.320	-1.900	0.200																			1580009016.0	7.71	14.28
26/01/2020 03:23:37	26012020	260120	032337	53.260	12.457577	-57.578680	53.140	0.360	-0.460	-0.800	53.260	-1.900	-0.200																			1580009017.0	7.74	14.33
26/01/2020 03:23:38	26012020	260120	032338	53.230	12.457600	-57.578655	53.170	0.380	-0.430	-0.990	53.230	-1.900	-0.600																			1580009018.0	7.41	13.72
26/01/2020 03:23:39	26012020	260120	032339	53.300	12.457623	-57.578628	53.290	0.270	-0.290	-0.920	53.300	-1.800	-0.600																			1580009019.0	7.35	13.61
26/01/2020 03:23:40	26012020	260120	032340	53.400	12.457645	-57.578602	53.250	-0.050	0.150	-0.440	53.400	-1.500	-0.300																			1580009020.0	7.44	13.78
26/01/2020 03:23:41	26012020	260120	032341	53.340	12.457665	-57.578575	53.130	-0.490	0.680	0.300	53.340	-1.000	0.300																			1580009021.0	7.20	13.33
26/01/2020 03:23:42	26012020	260120	032342	53.210	12.457680	-57.578547	53.070	-0.720	0.590	0.990	53.210	-0.700	1.100																			1580009022.0	6.77	12.54
26/01/2020 03:23:43	26012020	260120	032343	53.150	12.457697	-57.578518	53.140	-0.440	-0.390	1.320	53.150	-1.300	1.600																			1580009023.0	6.82	12.63
26/01/2020 03:23:44	26012020	260120	032344	53.230	12.457715	-57.578488	53.280	0.200	-1.360	1.290	53.230	-2.400	1.700																			1580009024.0	7.65	14.17
26/01/2020 03:23:45	26012020	260120	032345	53.340	12.457737	-57.578455	53.210	0.650	-1.220	1.300	53.340	-2.900	1.600																			1580009025.0	8.41	15.58
26/01/2020 03:23:46	26012020	260120	032346	53.210	12.457760	-57.578425	52.930	0.520	-0.100	1.330	53.210	-2.100	1.700																			1580009026.0	7.98	14.78
26/01/2020 03:23:47	26012020	260120	032347	52.890	12.457778	-57.578400	52.670	0.100	0.740	0.940	52.890	-1.000	1.600																			1580009027.0	6.70	12.41
26/01/2020 03:23:48	26012020	260120	032348	52.700	12.457798	-57.578378	52.650	-0.090	0.550	0.050	52.700	-0.700	0.900																			1580009028.0	6.18	11.45
26/01/2020 03:23:49	26012020	260120	032349	52.750	12.457822	-57.578355	52.760	0.030	-0.160	-0.830	52.750	-1.300	-0.100																			1580009029.0	7.03	13.02
26/01/2020 03:23:50	26012020	260120	032350	52.870	12.457848	-57.578330	52.830	0.100	-0.540	-1.290	52.870	-1.900	-0.800																			1580009030.0	8.04	14.89
26/01/2020 03:23:51	26012020	260120	032351	52.940	12.457875	-57.578303	52.850	-0.080	-0.320	-1.220	52.940	-1.900	-0.900																			1580009031.0	8.06	14.93
26/01/2020 03:23:52	26012020	260120	032352	52.970	12.457897	-57.578277	52.900	-0.350	0.010	-0.870	52.970	-1.500	-0.700																			1580009032.0	7.32	13.56
26/01/2020 03:23:53	26012020	260120	032353	53.000	12.457915	-57.578250	52.890	-0.390	-0.010	-0.290	53.000	-1.400	-0.200																			1580009033.0	6.79	12.58
26/01/2020 03:23:54	26012020	260120	032354	52.950	12.457933	-57.578222	52.770	-0.190	-0.230	0.410	52.950	-1.500	0.400																			1580009034.0	7.00	12.96
26/01/2020 03:23:55	26012020	260120	032355	52.800	12.457952	-57.578192	52.670	0.050	-0.380	0.990	52.800	-1.700	1.100																			1580009035.0	7.46	13.82
26/01/2020 03:23:56	26012020	260120	032356	52.720	12.457970	-57.578162	52.700	0.200	-0.340	1.290	52.720	-1.800	1.500																			1580009036.0	7.52	13.93
26/01/2020 03:23:57	26012020	260120	032357	52.750	12.457988	-57.578133	52.720	0.210	-0.130	1.330	52.750	-1.700	1.700																			1580009037.0	7.36	13.63
26/01/2020 03:23:58	26012020	260120	032358	52.750	12.458008	-57.578105	52.670	0.140	0.040	1.180	52.750	-1.400	1.600																			1580009038.0	7.16	13.26
26/01/2020 03:23:59	26012020	260120	032359	52.710	12.458030	-57.578080	52.710	0.110	-0.110	0.810	52.710	-1.400	1.400	1015.20	25.70	25.80	20.60	20.70	-1.00	73.00	73.00	391.00	25.20	5.00	9.10	63.00	5.40	15	3289.00	27.40	27.40	1580009039.0	7.04	13.04
26/01/2020 03:24:00	26012020	260120	032400	52.760	12.458052	-57.578055	52.800	0.180	-0.400	0.270	52.760	-1.700	0.900																			1580009040.0	7.24	13.41
26/01/2020 03:24:01	26012020	260120	032401	52.850	12.458077	-57.578028	52.740	0.190	-0.430	-0.140	52.850	-1.900	0.400																			1580009041.0	7.64	14.15
26/01/2020 03:24:02	26012020	260120	032402	52.780	12.458100	-57.578002	52.570	0.090	-0.180	-0.340	52.780	-1.700	0.100																			1580009042.0	7.61	14.09
26/01/2020 03:24:03	26012020	260120	032403	52.620	12.458123	-57.577977	52.520	-0.070	0.080	-0.400	52.620	-1.500	0.000																			1580009043.0	7.27	13.46
26/01/2020 03:24:04	26012020	260120	032404	52.620	12.458145	-57.577950	52.670	-0.190	0.200	-0.440	52.620	-1.300	-0.100																			1580009044.0	7.07	13.09
26/01/2020 03:24:05	26012020	260120	032405	52.760	12.458165	-57.577925	52.840	-0.260	0.160	-0.390	52.790	-1.200	-0.100																			1580009045.0	7.11	13.17
26/01/2020 03:24:06	26012020	260120	032406	52.930	12.458185	-57.577897	52.900	-0.270	-0.070	-0.200	52.930	-1.400	0.100																			1580009046.0	7.21	13.35
26/01/2020 03:24:07	26012020	260120	032407	52.970	12.458207	-57.577870	52.880	-0.190	-0.340	0.140	52.970	-1.600	0.300																			1580009047.0	7.33	13.58
26/01/2020 03:24:08	26012020	260120	032408	52.930	12.458227	-57.577842	52.860	-0.060	-0.490	0.540	52.930	-1.900	0.700																			1580009048.0	7.45	13.80
26/01/2020 03:24:09	26012020	260120	032409	52.890	12.458245	-57.577812	52.850	0.120	-0.570	0.860	52.890	-2.000	1.100																			1580009049.0	7.43	13.76
26/01/2020 03:24:10	26012020	260120	032410	52.890	12.458265	-57.577783	52.870	0.280	-0.540	0.990	52.890	-2.000	1.300																			1580009050.0	7.38	13.67
26/01/2020 03:24:11	26012020	260120	032411	52.910	12.458285	-57.577755	52.770	0.310	-0.220	0.920	52.910	-1.800	1.300																			1580009051.0	7.44	13.78
26/01/2020 03:24:12	26012020	260120	032412	52.770	12.458307	-57.577727	52.600	0.170	0.230	0.760	52.770	-1.400	1.200																			1580009052.0	7.33	13.58
26/01/2020 03:24:13	26012020	260120	032413	52.610	12.458327	-57.577702	52.600	0.020	0.370	0.400	52.610	-1.100	1.000																			1580009053.0	7.01	12.98
26/01/2020 03:24:14	26012020	260120	032414	52.680	12.458348	-57.577677	52.830	-0.020	0.060	-0.250	52.680	-1.200	0.500																			1580009054.0	7.00	12.96
26/01/2020 03:24:15	26012020	260120	032415	52.960	12.458373	-57.577652	53.060	-0.030	-0.280	-0.770	52.960	-1.600	-0.200																			1580009055.0	7.44	13.78
26/01/2020 03:24:16	26012020	260120	032416	53.150	12.458398	-57.577627	53.000	-0.120	-0.260	-0.720	53.150	-1.700	-0.400																			1580009056.0	7.77	14.39
26/01/2020 03:24:17	26012020	260120	032417	53.090	12.458422	-57.577600	52.840	-0.220	-0.170	-0.300	53.060	-1.600	-0.100																			1580009057.0	7.46	13.82
26/01/2020 03:24:18	26012020	260120	032418	52.910	12.458442	-57.577572	52.800	-0.210	-0.290	0.150	52.910	-1.600	0.300																			1580009058.0	7.11	13.17
26/01/2020 03:24:19	26012020	260120	032419	52.880	12.458460	-57.577543	52.830	-0.100	-0.430	0.470	52.890	-1.800	0.700																			1580009059.0	7.27	13.46
26/01/2020 03:24:20	26012020	260120	032420	52.910	12.458478	-57.577513	52.860	-0.000	-0.340	0.600	52.910	-1.800	0.900																			1580009060.0	7.52	13.93
26/01/2020 03:24:21	26012020	260120	032421	52.950	12.458498	-57.577485	52.940	0.020	-0.120	0.640	52.950	-1.600	1.000																			1580009061.0	7.42	13.74
26/01/2020 03:24:22	26012020	260120	032422	53.000	12.458518	-57.577457	52.960	0.050	0.010	0.630	53.000	-1.400	1.000																			1580009062.0	7.19	13.32
26/01/2020 03:24:23	26012020	260120	032423	53.010	12.458538	-57.577430	52.950	0.130	-0.000	0.470	53.010	-1.400	0.900																			1580009063.0	7.16	13.26
26/01/2020 03:24:24	26012020	260120	032424	52.990	12.458560	-57.577403	52.970	0.250	-0.130	0.150	52.990	-1.500	0.700																			1580009064.0	7.30	13.52
26/01/2020 03:24:25	26012020	260120	032425	53.000	12.458583	-57.577378	52.960	0.300	-0.220	-0.100	53.000	-1.600	0.400																			1580009065.0	7.48	13.85
26/01/2020 03:24:26	26012020	260120	032426	52.990	12.458607	-57.577352	52.900	0.170	-0.210	-0.220	52.990	-1.600	0.200																			1580009066.0	7.56	14.00
26/01/2020 03:24:27	26012020	260120	032427	52.970	12.458630	-57.577325	52.940	-0.050	-0.170	-0.330	52.970	-1.600	0.100																			1580009067.0	7.40	13.70
26/01/2020 03:24:28	26012020	260120	032428	53.040	12.458653	-57.577298	53.040	-0.230	-0.080	-0.250	53.040	-1.600	0.100																			1580009068.0	7.32	13.56
26/01/2020 03:24:29	26012020	260120	032429	53.110	12.458673	-57.577272	53.030	-0.400	0.050	0.060	53.110	-1.400	0.300																			1580009069.0	7.31	13.54
26/01/2020 03:24:30	26012020	260120	032430	53.110	12.458693	-57.577245	53.060	-0.500	0.010	0.340	53.110	-1.400	0.600																			1580009070.0	7.20	13.33
26/01/2020 03:24:31	26012020	260120	032431	53.130	12.458712	-57.577217	53.150	-0.390	-0.190	0.490	53.150	-1.500	0.800																			1580009071.0	7.20	13.33
26/01/2020 03:24:32	26012020	260120	032432	53.250	12.458732	-57.577187	53.180	-0.060	-0.380	0.750	53.250	-1.700	1.000																			1580009072.0	7.37	13.65
26/01/2020 03:24:33	26012020	260120	032433	53.260	12.458752	-57.577158	53.160	0.290	-0.510	0.880	53.260	-1.900	1.200																			1580009073.0	7.48	13.85
26/01/2020 03:24:34	26012020	260120	032434	53.210	12.458770	-57.577128	53.140	0.480	-0.590	0.650	53.210	-2.000	1.200																			1580009074.0	7.49	13.87
26/01/2020 03:24:35	26012020	260120	032435	53.220	12.458792	-57.577102	53.150	0.460	-0.390	0.280	53.220	-1.900	0.800																			1580009075.0	7.54	13.96
26/01/2020 03:24:36	26012020	260120	032436	53.220	12.458817	-57.577075	53.090	0.280	0.100	-0.070	53.220	-1.600	0.500																			1580009076.0	7.53	13.95
26/01/2020 03:24:37	26012020	260120	032437	53.160	12.458840	-57.577050	53.070	0.080	0.410	-0.410	53.160	-1.100	0.100																			1580009077.0	7.17	13.28
26/01/2020 03:24:38	26012020	260120	032438	53.170	12.458862	-57.577027	53.150	-0.020	0.240	-0.590	53.170	-1.000	-0.200																			1580009078.0	7.00	12.96
26/01/2020 03:24:39	26012020	260120	032439	53.270	12.458885	-57.577002	53.300	-0.100	-0.130	-0.600	53.270	-1.400	-0.200																			1580009079.0	7.32	13.56
26/01/2020 03:24:40	26012020	260120	032440	53.390	12.458908	-57.576973	53.390	-0.240	-0.340	-0.500	53.390	-1.700	-0.200																			1580009080.0	7.70	14.26
26/01/2020 03:24:41	26012020	260120	032441	53.470	12.458930	-57.576945	53.500	-0.390	-0.320	-0.170	53.490	-1.800	0.000																			1580009081.0	7.65	14.17
26/01/2020 03:24:42	26012020	260120	032442	53.590	12.458950	-57.576917	53.570	-0.450	-0.150	0.370	53.590	-1.700	0.500																			1580009082.0	7.36	13.63
26/01/2020 03:24:43	26012020	260120	032443	53.640	12.458968	-57.576888	53.530	-0.390	-0.060	0.880	53.640	-1.500	1.000																			1580009083.0	7.16	13.26
26/01/2020 03:24:44	26012020	260120	032444	53.560	12.458985	-57.576858	53.400	-0.220	-0.170	1.270	53.560	-1.500	1.500																			1580009084.0	7.12	13.19
26/01/2020 03:24:45	26012020	260120	032445	53.430	12.459002	-57.576828	53.360	0.040	-0.420	1.250	53.430	-1.700	1.700																			1580009085.0	7.31	13.54
26/01/2020 03:24:46	26012020	260120	032446	53.390	12.459022	-57.576800	53.420	0.340	-0.600	0.720	53.390	-1.900	1.400																			1580009086.0	7.53	13.95
26/01/2020 03:24:47	26012020	260120	032447	53.490	12.459045	-57.576772	53.490	0.630	-0.540	0.060	53.490	-2.000	0.700																			1580009087.0	7.65	14.17
26/01/2020 03:24:48	26012020	260120	032448	53.550	12.459070	-57.576747	53.400	0.710	-0.180	-0.360	53.550	-1.800	0.200																			1580009088.0	7.66	14.19
26/01/2020 03:24:49	26012020	260120	032449	53.470	12.459095	-57.576722	53.260	0.450	0.280	-0.580	53.470	-1.400	-0.100																			1580009089.0	7.45	13.80
26/01/2020 03:24:50	26012020	260120	032450	53.340	12.459117	-57.576697	53.250	-0.000	0.490	-0.780	53.340	-1.000	-0.300																			1580009090.0	7.16	13.26
26/01/2020 03:24:51	26012020	260120	032451	53.370	12.459140	-57.576672	53.350	-0.370	0.310	-0.820	53.370	-1.000	-0.500																			1580009091.0	7.09	13.13
26/01/2020 03:24:52	26012020	260120	032452	53.470	12.459162	-57.576647	53.420	-0.480	-0.160	-0.490	53.470	-1.300	-0.300																			1580009092.0	7.29	13.50
26/01/2020 03:24:53	26012020	260120	032453	53.540	12.459183	-57.576618	53.560	-0.410	-0.590	0.060	53.540	-1.800	0.200																			1580009093.0	7.59	14.06
26/01/2020 03:24:54	26012020	260120	032454	53.670	12.459203	-57.576587	53.690	-0.340	-0.680	0.650	53.670	-2.100	0.700																			1580009094.0	7.77	14.39
26/01/2020 03:24:55	26012020	260120	032455	53.760	12.459222	-57.576555	53.640	-0.310	-0.420	1.180	53.760	-2.000	1.300																			1580009095.0	7.64	14.15
26/01/2020 03:24:56	26012020	260120	032456	53.650	12.459238	-57.576525	53.460	-0.200	-0.090	1.450	53.650	-1.600	1.700																			1580009096.0	7.29	13.50
26/01/2020 03:24:57	26012020	260120	032457	53.480	12.459255	-57.576497	53.410	0.080	0.040	1.270	53.480	-1.400	1.800																			1580009097.0	7.07	13.09
26/01/2020 03:24:58	26012020	260120	032458	53.430	12.459275	-57.576470	53.360	0.380	-0.030	0.750	53.430	-1.400	1.400																			1580009098.0	7.16	13.26
26/01/2020 03:24:59	26012020	260120	032459	53.390	12.459297	-57.576443	53.280	0.470	-0.090	0.000	53.390	-1.500	0.700	1015.20	25.70	25.80	20.60	20.70	-1.00	73.00	73.00	390.00	25.20	8.00	8.80	67.00	5.10	15	3229.00	27.40	27.40	1580009099.0	7.47	13.83
26/01/2020 03:25:00	26012020	260120	032500	53.320	12.459323	-57.576418	53.240	0.390	-0.130	-0.680	53.320	-1.500	0.000																			1580009100.0	7.59	14.06
26/01/2020 03:25:01	26012020	260120	032501	53.330	12.459348	-57.576393	53.360	0.290	-0.320	-1.200	53.330	-1.600	-0.600																			1580009101.0	7.49	13.87
26/01/2020 03:25:02	26012020	260120	032502	53.490	12.459373	-57.576370	53.530	0.190	-0.570	-1.440	53.490	-1.900	-1.000																			1580009102.0	7.52	13.93
26/01/2020 03:25:03	26012020	260120	032503	53.650	12.459398	-57.576343	53.520	-0.000	-0.440	-1.140	53.650	-2.000	-1.000																			1580009103.0	7.75	14.35
26/01/2020 03:25:04	26012020	260120	032504	53.610	12.459420	-57.576315	53.450	-0.290	0.110	-0.410	53.610	-1.600	-0.400																			1580009104.0	7.65	14.17
26/01/2020 03:25:05	26012020	260120	032505	53.540	12.459438	-57.576287	53.420	-0.500	0.500	0.470	53.540	-1.000	0.400																			1580009105.0	7.10	13.15
26/01/2020 03:25:06	26012020	260120	032506	53.480	12.459453	-57.576258	53.350	-0.520	0.380	1.190	53.480	-0.900	1.300																			1580009106.0	6.87	12.72
26/01/2020 03:25:07	26012020	260120	032507	53.410	12.459470	-57.576228	53.370	-0.320	-0.180	1.440	53.400	-1.300	1.700																			1580009107.0	7.21	13.35
26/01/2020 03:25:08	26012020	260120	032508	53.420	12.459490	-57.576197	53.450	-0.050	-0.660	1.370	53.420	-1.900	1.800																			1580009108.0	7.68	14.22
26/01/2020 03:25:09	26012020	260120	032509	53.470	12.459512	-57.576167	53.480	0.130	-0.710	1.070	53.480	-2.200	1.600																			1580009109.0	7.88	14.59
26/01/2020 03:25:10	26012020	260120	032510	53.500	12.459533	-57.576140	53.470	0.230	-0.460	0.640	53.500	-2.000	1.200																			1580009110.0	7.59	14.06
26/01/2020 03:25:11	26012020	260120	032511	53.500	12.459555	-57.576113	53.470	0.330	-0.210	0.170	53.500	-1.700	0.800																			1580009111.0	7.22	13.37
26/01/2020 03:25:12	26012020	260120	032512	53.530	12.459578	-57.576088	53.480	0.390	-0.120	-0.360	53.530	-1.600	0.300																			1580009112.0	7.17	13.28
26/01/2020 03:25:13	26012020	260120	032513	53.550	12.459602	-57.576063	53.420	0.340	-0.030	-0.830	53.550	-1.500	-0.200																			1580009113.0	7.40	13.70
26/01/2020 03:25:14	26012020	260120	032514	53.490	12.459627	-57.576038	53.310	0.110	0.220	-1.010	53.490	-1.300	-0.600																			1580009114.0	7.60	14.08
26/01/2020 03:25:15	26012020	260120	032515	53.380	12.459650	-57.576013	53.300	-0.180	0.350	-0.940	53.380	-1.100	-0.600																			1580009115.0	7.39	13.69
26/01/2020 03:25:16	26012020	260120	032516	53.410	12.459672	-57.575988	53.440	-0.340	0.080	-0.710	53.410	-1.200	-0.500																			1580009116.0	7.13	13.20
26/01/2020 03:25:17	26012020	260120	032517	53.590	12.459693	-57.575960	53.640	-0.330	-0.380	-0.290	53.590	-1.600	-0.100																			1580009117.0	7.28	13.48
26/01/2020 03:25:18	26012020	260120	032518	53.770	12.459713	-57.575930	53.720	-0.220	-0.690	0.350	53.770	-2.000	0.400																			1580009118.0	7.65	14.17
26/01/2020 03:25:19	26012020	260120	032519	53.810	12.459732	-57.575898	53.670	-0.120	-0.600	0.960	53.810	-2.100	1.100																			1580009119.0	7.77	14.39
26/01/2020 03:25:20	26012020	260120	032520	53.710	12.459748	-57.575868	53.600	0.000	-0.270	1.270	53.710	-1.800	1.500																			1580009120.0	7.54	13.96
26/01/2020 03:25:21	26012020	260120	032521	53.610	12.459767	-57.575840	53.560	0.210	-0.050	1.230	53.610	-1.500	1.700																			1580009121.0	7.16	13.26
26/01/2020 03:25:22	26012020	260120	032522	53.580	12.459787	-57.575812	53.550	0.360	0.030	0.870	53.580	-1.400	1.500																			1580009122.0	7.14	13.22
26/01/2020 03:25:23	26012020	260120	032523	53.610	12.459810	-57.575787	53.620	0.270	0.070	0.250	53.610	-1.400	0.900																			1580009123.0	7.39	13.69
26/01/2020 03:25:24	26012020	260120	032524	53.700	12.459833	-57.575760	53.730	0.000	0.110	-0.320	53.700	-1.300	0.300																			1580009124.0	7.51	13.91
26/01/2020 03:25:25	26012020	260120	032525	53.800	12.459858	-57.575737	53.780	-0.220	0.010	-0.650	53.800	-1.300	-0.100																			1580009125.0	7.42	13.74
26/01/2020 03:25:26	26012020	260120	032526	53.860	12.459882	-57.575712	53.760	-0.250	-0.280	-0.760	53.860	-1.500	-0.400																			1580009126.0	7.36	13.63
26/01/2020 03:25:27	26012020	260120	032527	53.840	12.459905	-57.575683	53.740	-0.110	-0.610	-0.650	53.840	-1.900	-0.400																			1580009127.0	7.48	13.85
26/01/2020 03:25:28	26012020	260120	032528	53.810	12.459925	-57.575655	53.730	0.060	-0.700	-0.360	53.810	-2.100	-0.100																			1580009128.0	7.69	14.24
26/01/2020 03:25:29	26012020	260120	032529	53.810	12.459947	-57.575625	53.740	0.120	-0.370	0.000	53.810	-2.000	0.200																			1580009129.0	7.69	14.24
26/01/2020 03:25:30	26012020	260120	032530	53.800	12.459965	-57.575595	53.700	0.050	0.180	0.330	53.800	-1.500	0.600																			1580009130.0	7.41	13.72
26/01/2020 03:25:31	26012020	260120	032531	53.740	12.459983	-57.575567	53.650	-0.100	0.510	0.540	53.740	-1.000	0.800																			1580009131.0	7.04	13.04
26/01/2020 03:25:32	26012020	260120	032532	53.690	12.460002	-57.575542	53.630	-0.130	0.320	0.570	53.690	-0.900	0.900																			1580009132.0	6.93	12.83
26/01/2020 03:25:33	26012020	260120	032533	53.700	12.460023	-57.575513	53.690	0.050	-0.210	0.450	53.700	-1.400	0.900																			1580009133.0	7.23	13.39
26/01/2020 03:25:34	26012020	260120	032534	53.770	12.460047	-57.575487	53.810	0.280	-0.660	0.290	53.770	-1.900	0.700																			1580009134.0	7.73	14.32
26/01/2020 03:25:35	26012020	260120	032535	53.890	12.460070	-57.575457	53.830	0.300	-0.740	0.250	53.890	-2.200	0.600																			1580009135.0	7.91	14.65
26/01/2020 03:25:36	26012020	260120	032536	53.870	12.460092	-57.575428	53.690	0.020	-0.320	0.270	53.870	-2.000	0.600																			1580009136.0	7.74	14.33
26/01/2020 03:25:37	26012020	260120	032537	53.710	12.460112	-57.575402	53.510	-0.320	0.250	0.320	53.710	-1.400	0.700																			1580009137.0	7.27	13.46
26/01/2020 03:25:38	26012020	260120	032538	53.550	12.460132	-57.575375	53.520	-0.400	0.340	0.300	53.550	-1.000	0.700																			1580009138.0	6.80	12.59
26/01/2020 03:25:39	26012020	260120	032539	53.610	12.460150	-57.575350	53.740	-0.130	-0.180	0.040	53.610	-1.300	0.600																			1580009139.0	6.92	12.82
26/01/2020 03:25:40	26012020	260120	032540	53.830	12.460173	-57.575322	53.870	0.260	-0.670	-0.180	53.830	-1.900	0.300																			1580009140.0	7.62	14.11
26/01/2020 03:25:41	26012020	260120	032541	53.920	12.460197	-57.575292	53.710	0.400	-0.560	-0.050	53.920	-2.100	0.200																			1580009141.0	8.10	15.00
26/01/2020 03:25:42	26012020	260120	032542	53.710	12.460218	-57.575263	53.470	0.150	0.020	0.200	53.710	-1.700	0.500																			1580009142.0	7.78	14.41
26/01/2020 03:25:43	26012020	260120	032543	53.500	12.460238	-57.575235	53.510	-0.220	0.400	0.220	53.500	-1.100	0.600																			1580009143.0	7.06	13.08
26/01/2020 03:25:44	26012020	260120	032544	53.580	12.460258	-57.575210	53.760	-0.350	0.220	-0.020	53.580	-1.100	0.500																			1580009144.0	6.78	12.56
26/01/2020 03:25:45	26012020	260120	032545	53.810	12.460280	-57.575185	53.990	-0.200	-0.210	-0.140	53.870	-1.400	0.300																			1580009145.0	7.20	13.33
26/01/2020 03:25:46	26012020	260120	032546	54.070	12.460303	-57.575157	53.990	0.010	-0.410	0.080	54.070	-1.800	0.300																			1580009146.0	7.72	14.30
26/01/2020 03:25:47	26012020	260120	032547	54.030	12.460325	-57.575127	53.860	0.110	-0.400	0.480	54.030	-1.800	0.700																			1580009147.0	7.72	14.30
26/01/2020 03:25:48	26012020	260120	032548	53.900	12.460343	-57.575098	53.780	0.130	-0.380	0.700	53.900	-1.800	1.000																			1580009148.0	7.42	13.74
26/01/2020 03:25:49	26012020	260120	032549	53.840	12.460362	-57.575070	53.850	0.170	-0.390	0.610	53.840	-1.800	1.100																			1580009149.0	7.31	13.54
26/01/2020 03:25:50	26012020	260120	032550	53.920	12.460383	-57.575042	54.010	0.190	-0.240	0.320	53.920	-1.800	0.800																			1580009150.0	7.45	13.80
26/01/2020 03:25:51	26012020	260120	032551	54.090	12.460407	-57.575015	54.150	0.080	0.050	0.100	54.090	-1.500	0.600																			1580009151.0	7.47	13.83
26/01/2020 03:25:52	26012020	260120	032552	54.220	12.460428	-57.574988	54.190	-0.140	0.270	0.090	54.220	-1.200	0.400																			1580009152.0	7.28	13.48
26/01/2020 03:25:53	26012020	260120	032553	54.220	12.460448	-57.574962	54.050	-0.270	0.180	0.140	54.220	-1.200	0.500																			1580009153.0	7.12	13.19
26/01/2020 03:25:54	26012020	260120	032554	54.080	12.460468	-57.574935	53.980	-0.220	-0.200	0.020	54.080	-1.400	0.500																			1580009154.0	7.26	13.45
26/01/2020 03:25:55	26012020	260120	032555	54.030	12.460490	-57.574905	54.070	-0.060	-0.510	-0.200	54.030	-1.800	0.300																			1580009155.0	7.62	14.11
26/01/2020 03:25:56	26012020	260120	032556	54.120	12.460513	-57.574877	54.150	0.040	-0.430	-0.330	54.120	-1.900	0.100																			1580009156.0	7.81	14.46
26/01/2020 03:25:57	26012020	260120	032557	54.200	12.460535	-57.574850	54.180	0.020	-0.110	-0.330	54.210	-1.700	0.000																			1580009157.0	7.56	14.00
26/01/2020 03:25:58	26012020	260120	032558	54.250	12.460557	-57.574823	54.220	-0.000	0.020	-0.230	54.250	-1.400	0.100																			1580009158.0	7.11	13.17
26/01/2020 03:25:59	26012020	260120	032559	54.300	12.460575	-57.574797	54.290	0.090	-0.110	-0.050	54.300	-1.400	0.200	1015.20	25.70	25.80	20.60	20.60	-1.00	73.00	73.00	391.00	25.20	7.00	8.90	65.00	5.10	15	3347.00	27.40	27.40	1580009159.0	7.06	13.08
26/01/2020 03:26:00	26012020	260120	032600	54.370	12.460595	-57.574768	54.320	0.190	-0.240	0.190	54.370	-1.600	0.400																			1580009160.0	7.39	13.69
26/01/2020 03:26:01	26012020	260120	032601	54.360	12.460617	-57.574738	54.240	0.180	-0.280	0.430	54.360	-1.700	0.700																			1580009161.0	7.60	14.08
26/01/2020 03:26:02	26012020	260120	032602	54.250	12.460637	-57.574710	54.150	0.110	-0.340	0.560	54.250	-1.700	0.900																			1580009162.0	7.51	13.91
26/01/2020 03:26:03	26012020	260120	032603	54.150	12.460657	-57.574682	54.110	0.090	-0.350	0.580	54.150	-1.800	1.000																			1580009163.0	7.46	13.82
26/01/2020 03:26:04	26012020	260120	032604	54.110	12.460678	-57.574653	54.100	0.090	-0.200	0.520	54.110	-1.700	0.900																			1580009164.0	7.55	13.98
26/01/2020 03:26:05	26012020	260120	032605	54.110	12.460700	-57.574625	54.120	-0.010	0.040	0.410	54.110	-1.500	0.800																			1580009165.0	7.48	13.85
26/01/2020 03:26:06	26012020	260120	032606	54.140	12.460720	-57.574597	54.170	-0.200	0.170	0.240	54.140	-1.300	0.700																			1580009166.0	7.29	13.50
26/01/2020 03:26:07	26012020	260120	032607	54.200	12.460740	-57.574570	54.230	-0.360	0.170	0.090	54.200	-1.200	0.500																			1580009167.0	7.26	13.45
26/01/2020 03:26:08	26012020	260120	032608	54.240	12.460762	-57.574543	54.200	-0.330	0.040	0.040	54.240	-1.300	0.400																			1580009168.0	7.31	13.54
26/01/2020 03:26:09	26012020	260120	032609	54.210	12.460782	-57.574515	54.150	-0.110	-0.210	-0.050	54.210	-1.500	0.400																			1580009169.0	7.36	13.63
26/01/2020 03:26:10	26012020	260120	032610	54.180	12.460803	-57.574487	54.130	0.180	-0.540	-0.220	54.180	-1.800	0.200																			1580009170.0	7.50	13.89
26/01/2020 03:26:11	26012020	260120	032611	54.170	12.460825	-57.574458	54.090	0.400	-0.760	-0.310	54.170	-2.100	0.100																			1580009171.0	7.64	14.15
26/01/2020 03:26:12	26012020	260120	032612	54.140	12.460848	-57.574430	54.030	0.410	-0.590	-0.200	54.140	-2.200	0.100																			1580009172.0	7.75	14.35
26/01/2020 03:26:13	26012020	260120	032613	54.090	12.460870	-57.574402	53.980	0.200	-0.030	0.050	54.090	-1.700	0.300																			1580009173.0	7.61	14.09
26/01/2020 03:26:14	26012020	260120	032614	54.040	12.460890	-57.574375	53.950	-0.090	0.410	0.360	54.040	-1.200	0.600																			1580009174.0	7.13	13.20
26/01/2020 03:26:15	26012020	260120	032615	53.990	12.460908	-57.574348	53.920	-0.270	0.340	0.570	53.990	-1.000	0.900																			1580009175.0	6.89	12.76
26/01/2020 03:26:16	26012020	260120	032616	53.980	12.460927	-57.574320	54.060	-0.220	-0.150	0.580	53.980	-1.300	1.000																			1580009176.0	7.20	13.33
26/01/2020 03:26:17	26012020	260120	032617	54.130	12.460948	-57.574290	54.230	-0.030	-0.560	0.550	54.130	-1.800	0.900																			1580009177.0	7.72	14.30
26/01/2020 03:26:18	26012020	260120	032618	54.250	12.460970	-57.574260	54.200	0.120	-0.530	0.560	54.250	-2.000	0.900																			1580009178.0	7.97	14.76
26/01/2020 03:26:19	26012020	260120	032619	54.190	12.460992	-57.574230	54.040	0.120	-0.220	0.620	54.190	-1.800	1.000																			1580009179.0	7.71	14.28
26/01/2020 03:26:20	26012020	260120	032620	53.990	12.461012	-57.574202	53.790	-0.000	0.060	0.600	53.990	-1.500	1.000																			1580009180.0	7.28	13.48
26/01/2020 03:26:21	26012020	260120	032621	53.750	12.461030	-57.574175	53.700	-0.160	0.140	0.310	53.750	-1.300	0.900																			1580009181.0	7.14	13.22
26/01/2020 03:26:22	26012020	260120	032622	53.730	12.461052	-57.574148	53.880	-0.220	0.060	-0.180	53.730	-1.300	0.400																			1580009182.0	7.26	13.45
26/01/2020 03:26:23	26012020	260120	032623	53.970	12.461075	-57.574122	54.090	-0.130	-0.060	-0.520	53.970	-1.400	-0.000																			1580009183.0	7.43	13.76
26/01/2020 03:26:24	26012020	260120	032624	54.150	12.461098	-57.574097	54.090	0.060	-0.240	-0.560	54.150	-1.600	-0.200																			1580009184.0	7.47	13.83
26/01/2020 03:26:25	26012020	260120	032625	54.110	12.461120	-57.574068	53.930	0.270	-0.500	-0.360	54.110	-1.800	-0.100																			1580009185.0	7.47	13.83
26/01/2020 03:26:26	26012020	260120	032626	53.920	12.461140	-57.574038	53.680	0.360	-0.610	0.000	53.920	-2.000	0.200																			1580009186.0	7.63	14.13
26/01/2020 03:26:27	26012020	260120	032627	53.670	12.461162	-57.574010	53.540	0.290	-0.440	0.270	53.670	-2.000	0.500																			1580009187.0	7.72	14.30
26/01/2020 03:26:28	26012020	260120	032628	53.580	12.461182	-57.573982	53.590	0.120	-0.140	0.450	53.580	-1.700	0.700																			1580009188.0	7.51	13.91
26/01/2020 03:26:29	26012020	260120	032629	53.650	12.461203	-57.573953	53.780	-0.050	0.100	0.600	53.650	-1.400	0.900																			1580009189.0	7.28	13.48
26/01/2020 03:26:30	26012020	260120	032630	53.860	12.461222	-57.573925	53.940	-0.240	0.250	0.730	53.860	-1.200	1.000																			1580009190.0	7.25	13.43
26/01/2020 03:26:31	26012020	260120	032631	53.980	12.461242	-57.573897	53.860	-0.430	0.290	0.870	53.980	-1.100	1.200																			1580009191.0	7.33	13.58
26/01/2020 03:26:32	26012020	260120	032632	53.860	12.461260	-57.573868	53.660	-0.440	0.110	0.930	53.860	-1.200	1.300																			1580009192.0	7.33	13.58
26/01/2020 03:26:33	26012020	260120	032633	53.660	12.461280	-57.573840	53.470	-0.160	-0.330	0.850	53.660	-1.500	1.300																			1580009193.0	7.38	13.67
26/01/2020 03:26:34	26012020	260120	032634	53.510	12.461302	-57.573810	53.380	0.250	-0.790	0.520	53.510	-2.000	1.100																			1580009194.0	7.63	14.13
26/01/2020 03:26:35	26012020	260120	032635	53.450	12.461325	-57.573782	53.410	0.490	-0.900	-0.070	53.450	-2.300	0.600																			1580009195.0	7.90	14.63
26/01/2020 03:26:36	26012020	260120	032636	53.510	12.461348	-57.573753	53.400	0.390	-0.430	-0.500	53.510	-2.100	0.000																			1580009196.0	7.90	14.63
26/01/2020 03:26:37	26012020	260120	032637	53.490	12.461373	-57.573728	53.300	0.040	0.410	-0.560	53.490	-1.400	-0.200																			1580009197.0	7.50	13.89
26/01/2020 03:26:38	26012020	260120	032638	53.360	12.461393	-57.573703	53.220	-0.250	0.790	-0.440	53.360	-0.700	-0.100																			1580009198.0	6.84	12.67
26/01/2020 03:26:39	26012020	260120	032639	53.300	12.461413	-57.573678	53.290	-0.200	0.230	-0.340	53.300	-0.800	-0.000																			1580009199.0	6.67	12.35
26/01/2020 03:26:40	26012020	260120	032640	53.380	12.461435	-57.573652	53.400	0.040	-0.610	-0.170	53.380	-1.700	0.100																			1580009200.0	7.43	13.76
26/01/2020 03:26:41	26012020	260120	032641	53.470	12.461457	-57.573620	53.360	0.120	-0.840	0.150	53.470	-2.200	0.400																			1580009201.0	8.26	15.30
26/01/2020 03:26:42	26012020	260120	032642	53.380	12.461478	-57.573588	53.190	-0.050	-0.390	0.540	53.380	-2.100	0.700																			1580009202.0	8.11	15.02
26/01/2020 03:26:43	26012020	260120	032643	53.200	12.461497	-57.573560	53.040	-0.210	0.060	0.850	53.200	-1.500	1.100																			1580009203.0	7.25	13.43
26/01/2020 03:26:44	26012020	260120	032644	53.060	12.461515	-57.573533	53.000	-0.090	0.010	0.900	53.060	-1.300	1.300																			1580009204.0	6.78	12.56
26/01/2020 03:26:45	26012020	260120	032645	53.040	12.461535	-57.573505	52.940	0.200	-0.260	0.800	53.040	-1.600	1.200																			1580009205.0	7.16	13.26
26/01/2020 03:26:46	26012020	260120	032646	52.980	12.461557	-57.573477	52.820	0.320	-0.240	0.690	52.980	-1.700	1.100																			1580009206.0	7.76	14.37
26/01/2020 03:26:47	26012020	260120	032647	52.850	12.461580	-57.573448	52.720	0.120	0.030	0.470	52.850	-1.500	1.000																			1580009207.0	7.74	14.33
26/01/2020 03:26:48	26012020	260120	032648	52.780	12.461602	-57.573422	52.740	-0.150	0.100	0.130	52.780	-1.300	0.700																			1580009208.0	7.28	13.48
26/01/2020 03:26:49	26012020	260120	032649	52.820	12.461623	-57.573397	52.800	-0.240	-0.190	-0.180	52.830	-1.400	0.300																			1580009209.0	7.13	13.20
26/01/2020 03:26:50	26012020	260120	032650	52.890	12.461647	-57.573370	52.810	-0.170	-0.450	-0.400	52.890	-1.800	0.100																			1580009210.0	7.52	13.93
26/01/2020 03:26:51	26012020	260120	032651	52.900	12.461670	-57.573342	52.800	-0.090	-0.300	-0.380	52.900	-1.800	-0.100																			1580009211.0	7.81	14.46
26/01/2020 03:26:52	26012020	260120	032652	52.910	12.461693	-57.573315	52.820	-0.070	0.020	-0.060	52.910	-1.500	0.100																			1580009212.0	7.52	13.93
26/01/2020 03:26:53	26012020	260120	032653	52.920	12.461712	-57.573287	52.880	-0.010	0.030	0.260	52.920	-1.300	0.500																			1580009213.0	7.06	13.08
26/01/2020 03:26:54	26012020	260120	032654	52.970	12.461730	-57.573258	52.920	0.090	-0.210	0.400	52.970	-1.500	0.700																			1580009214.0	7.15	13.24
26/01/2020 03:26:55	26012020	260120	032655	52.980	12.461752	-57.573230	52.860	0.130	-0.260	0.540	52.980	-1.700	0.800																			1580009215.0	7.57	14.02
26/01/2020 03:26:56	26012020	260120	032656	52.890	12.461773	-57.573202	52.720	0.070	-0.160	0.720	52.890	-1.600	1.000																			1580009216.0	7.60	14.08
26/01/2020 03:26:57	26012020	260120	032657	52.760	12.461793	-57.573175	52.650	0.040	-0.240	0.770	52.760	-1.600	1.200																			1580009217.0	7.30	13.52
26/01/2020 03:26:58	26012020	260120	032658	52.700	12.461815	-57.573147	52.730	0.100	-0.510	0.520	52.700	-1.800	1.000																			1580009218.0	7.34	13.59
26/01/2020 03:26:59	26012020	260120	032659	52.820	12.461838	-57.573120	52.880	0.160	-0.520	0.160	52.820	-2.000	0.700	1015.20	25.80	25.80	20.80	20.80	-1.00	73.00	73.00	391.00	25.20	5.00	8.50	63.00	4.70	15	3267.00	27.40	27.40	1580009219.0	7.70	14.26
26/01/2020 03:27:00	26012020	260120	032700	52.970	12.461862	-57.573092	52.960	0.070	-0.010	-0.060	52.970	-1.700	0.400																			1580009220.0	7.82	14.48
26/01/2020 03:27:01	26012020	260120	032701	53.050	12.461883	-57.573065	52.960	-0.160	0.620	-0.070	53.050	-1.100	0.300																			1580009221.0	7.34	13.59
26/01/2020 03:27:02	26012020	260120	032702	53.030	12.461903	-57.573040	52.880	-0.360	0.650	0.000	53.030	-0.700	0.400																			1580009222.0	6.77	12.54
26/01/2020 03:27:03	26012020	260120	032703	52.940	12.461922	-57.573013	52.870	-0.270	-0.170	-0.100	52.940	-1.100	0.400																			1580009223.0	6.81	12.61
26/01/2020 03:27:04	26012020	260120	032704	52.950	12.461945	-57.572987	52.960	0.070	-1.060	-0.270	52.950	-2.100	0.200																			1580009224.0	7.62	14.11
26/01/2020 03:27:05	26012020	260120	032705	53.040	12.461970	-57.572957	52.990	0.310	-1.080	-0.170	53.040	-2.600	0.100																			1580009225.0	8.36	15.48
26/01/2020 03:27:06	26012020	260120	032706	53.060	12.461995	-57.572927	52.950	0.190	-0.310	0.150	53.060	-2.100	0.400																			1580009226.0	8.04	14.89
26/01/2020 03:27:07	26012020	260120	032707	53.000	12.462013	-57.572900	52.890	-0.150	0.390	0.460	53.000	-1.300	0.700																			1580009227.0	7.02	13.00
26/01/2020 03:27:08	26012020	260120	032708	52.960	12.462030	-57.572873	52.940	-0.330	0.420	0.580	52.960	-0.900	0.900																			1580009228.0	6.56	12.15
26/01/2020 03:27:09	26012020	260120	032709	53.030	12.462048	-57.572847	53.020	-0.210	-0.030	0.480	53.030	-1.200	0.900																			1580009229.0	7.00	12.96
26/01/2020 03:27:10	26012020	260120	032710	53.110	12.462070	-57.572818	53.110	0.040	-0.380	0.330	53.110	-1.700	0.800																			1580009230.0	7.68	14.22
26/01/2020 03:27:11	26012020	260120	032711	53.190	12.462093	-57.572790	53.180	0.170	-0.280	0.170	53.190	-1.800	0.600																			1580009231.0	7.92	14.67
26/01/2020 03:27:12	26012020	260120	032712	53.260	12.462117	-57.572762	53.210	0.090	0.050	0.060	53.260	-1.500	0.500																			1580009232.0	7.56	14.00
26/01/2020 03:27:13	26012020	260120	032713	53.280	12.462137	-57.572737	53.170	0.010	0.030	-0.040	53.280	-1.300	0.400																			1580009233.0	7.01	12.98
26/01/2020 03:27:14	26012020	260120	032714	53.220	12.462158	-57.572712	53.130	0.150	-0.540	-0.150	53.220	-1.700	0.300																			1580009234.0	7.00	12.96
26/01/2020 03:27:15	26012020	260120	032715	53.190	12.462182	-57.572683	53.140	0.370	-0.920	-0.110	53.190	-2.200	0.200																			1580009235.0	7.70	14.26
26/01/2020 03:27:16	26012020	260120	032716	53.190	12.462207	-57.572655	53.130	0.250	-0.440	0.180	53.190	-2.200	0.400																			1580009236.0	8.17	15.13
26/01/2020 03:27:17	26012020	260120	032717	53.160	12.462228	-57.572625	53.150	-0.270	0.490	0.460	53.160	-1.400	0.700																			1580009237.0	7.60	14.08
26/01/2020 03:27:18	26012020	260120	032718	53.200	12.462245	-57.572600	53.270	-0.770	0.900	0.560	53.200	-0.600	0.900																			1580009238.0	6.64	12.30
26/01/2020 03:27:19	26012020	260120	032719	53.320	12.462262	-57.572573	53.380	-0.730	0.290	0.480	53.320	-0.700	0.900																			1580009239.0	6.42	11.89
26/01/2020 03:27:20	26012020	260120	032720	53.430	12.462282	-57.572547	53.420	-0.120	-0.800	0.330	53.430	-1.700	0.800																			1580009240.0	7.23	13.39
26/01/2020 03:27:21	26012020	260120	032721	53.450	12.462305	-57.572515	53.400	0.540	-1.300	0.260	53.450	-2.600	0.700																			1580009241.0	8.24	15.26
26/01/2020 03:27:22	26012020	260120	032722	53.420	12.462330	-57.572485	53.380	0.690	-0.660	0.250	53.420	-2.500	0.600																			1580009242.0	8.43	15.61
26/01/2020 03:27:23	26012020	260120	032723	53.390	12.462352	-57.572457	53.310	0.310	0.440	0.180	53.390	-1.500	0.600																			1580009243.0	7.46	13.82
26/01/2020 03:27:24	26012020	260120	032724	53.340	12.462370	-57.572433	53.310	-0.140	0.840	-0.020	53.340	-0.600	0.500																			1580009244.0	6.36	11.78
26/01/2020 03:27:25	26012020	260120	032725	53.350	12.462388	-57.572410	53.410	-0.240	0.220	-0.320	53.370	-0.800	0.200																			1580009245.0	6.37	11.80
26/01/2020 03:27:26	26012020	260120	032726	53.450	12.462412	-57.572385	53.410	-0.050	-0.620	-0.460	53.450	-1.700	-0.000																			1580009246.0	7.39	13.69
26/01/2020 03:27:27	26012020	260120	032727	53.470	12.462437	-57.572355	53.390	0.090	-0.840	-0.390	53.470	-2.300	-0.100																			1580009247.0	8.21	15.20
26/01/2020 03:27:28	26012020	260120	032728	53.460	12.462460	-57.572325	53.420	-0.010	-0.420	-0.200	53.460	-2.100	0.100																			1580009248.0	8.01	14.83
26/01/2020 03:27:29	26012020	260120	032729	53.480	12.462480	-57.572298	53.410	-0.190	0.110	0.130	53.480	-1.500	0.300																			1580009249.0	7.20	13.33
26/01/2020 03:27:30	26012020	260120	032730	53.470	12.462498	-57.572272	53.340	-0.300	0.320	0.540	53.470	-1.200	0.700																			1580009250.0	6.75	12.50
26/01/2020 03:27:31	26012020	260120	032731	53.390	12.462515	-57.572245	53.320	-0.270	0.140	0.800	53.390	-1.200	1.100																			1580009251.0	6.89	12.76
26/01/2020 03:27:32	26012020	260120	032732	53.370	12.462533	-57.572215	53.390	-0.100	-0.210	0.800	53.370	-1.500	1.200																			1580009252.0	7.29	13.50
26/01/2020 03:27:33	26012020	260120	032733	53.470	12.462555	-57.572187	53.520	0.150	-0.510	0.660	53.470	-1.800	1.100																			1580009253.0	7.56	14.00
26/01/2020 03:27:34	26012020	260120	032734	53.560	12.462577	-57.572158	53.460	0.410	-0.650	0.570	53.560	-2.000	1.000																			1580009254.0	7.60	14.08
26/01/2020 03:27:35	26012020	260120	032735	53.470	12.462598	-57.572130	53.280	0.570	-0.550	0.440	53.470	-2.100	0.900																			1580009255.0	7.59	14.06
26/01/2020 03:27:36	26012020	260120	032736	53.300	12.462620	-57.572103	53.190	0.520	-0.230	0.200	53.300	-1.800	0.700																			1580009256.0	7.50	13.89
26/01/2020 03:27:37	26012020	260120	032737	53.240	12.462643	-57.572077	53.240	0.240	0.240	-0.150	53.250	-1.400	0.400																			1580009257.0	7.35	13.61
26/01/2020 03:27:38	26012020	260120	032738	53.340	12.462665	-57.572052	53.350	-0.170	0.580	-0.380	53.340	-1.000	0.100																			1580009258.0	7.09	13.13
26/01/2020 03:27:39	26012020	260120	032739	53.440	12.462687	-57.572028	53.410	-0.490	0.440	-0.400	53.440	-0.900	-0.000																			1580009259.0	6.91	12.80
26/01/2020 03:27:40	26012020	260120	032740	53.520	12.462707	-57.572002	53.470	-0.550	-0.210	-0.200	53.520	-1.300	0.100																			1580009260.0	7.09	13.13
26/01/2020 03:27:41	26012020	260120	032741	53.550	12.462728	-57.571972	53.430	-0.380	-0.820	0.180	53.550	-2.000	0.400																			1580009261.0	7.62	14.11
26/01/2020 03:27:42	26012020	260120	032742	53.470	12.462748	-57.571940	53.340	-0.110	-0.890	0.510	53.470	-2.400	0.800																			1580009262.0	7.99	14.80
26/01/2020 03:27:43	26012020	260120	032743	53.370	12.462768	-57.571910	53.260	0.120	-0.450	0.700	53.370	-2.100	1.000																			1580009263.0	7.72	14.30
26/01/2020 03:27:44	26012020	260120	032744	53.280	12.462787	-57.571882	53.160	0.240	0.070	0.700	53.280	-1.600	1.100																			1580009264.0	7.15	13.24
26/01/2020 03:27:45	26012020	260120	032745	53.190	12.462805	-57.571855	53.150	0.240	0.320	0.360	53.190	-1.200	0.900																			1580009265.0	6.87	12.72
26/01/2020 03:27:46	26012020	260120	032746	53.190	12.462827	-57.571830	53.230	0.190	0.220	-0.070	53.190	-1.100	0.500																			1580009266.0	7.01	12.98
26/01/2020 03:27:47	26012020	260120	032747	53.300	12.462850	-57.571805	53.380	0.160	-0.110	-0.310	53.300	-1.400	0.200																			1580009267.0	7.33	13.58
26/01/2020 03:27:48	26012020	260120	032748	53.450	12.462873	-57.571778	53.390	0.150	-0.440	-0.310	53.450	-1.700	0.100																			1580009268.0	7.56	14.00
26/01/2020 03:27:49	26012020	260120	032749	53.430	12.462897	-57.571752	53.230	0.070	-0.460	-0.070	53.430	-1.900	0.200																			1580009269.0	7.72	14.30
26/01/2020 03:27:50	26012020	260120	032750	53.240	12.462918	-57.571722	53.090	-0.050	-0.320	0.280	53.240	-1.800	0.500																			1580009270.0	7.57	14.02
26/01/2020 03:27:51	26012020	260120	032751	53.120	12.462937	-57.571695	53.170	-0.090	-0.280	0.510	53.120	-1.700	0.800																			1580009271.0	7.24	13.41
26/01/2020 03:27:52	26012020	260120	032752	53.230	12.462957	-57.571665	53.330	-0.040	-0.190	0.530	53.230	-1.700	0.900																			1580009272.0	7.27	13.46
26/01/2020 03:27:53	26012020	260120	032753	53.380	12.462975	-57.571637	53.330	-0.030	0.090	0.570	53.380	-1.500	0.900																			1580009273.0	7.39	13.69
26/01/2020 03:27:54	26012020	260120	032754	53.340	12.462995	-57.571610	53.190	-0.080	0.280	0.660	53.340	-1.200	1.000																			1580009274.0	7.24	13.41
26/01/2020 03:27:55	26012020	260120	032755	53.200	12.463015	-57.571582	53.010	-0.100	0.150	0.620	53.200	-1.200	1.100																			1580009275.0	7.09	13.13
26/01/2020 03:27:56	26012020	260120	032756	53.060	12.463037	-57.571555	52.950	-0.000	-0.250	0.360	53.060	-1.500	0.900																			1580009276.0	7.26	13.45
26/01/2020 03:27:57	26012020	260120	032757	53.010	12.463060	-57.571528	52.980	0.200	-0.660	-0.010	53.010	-1.900	0.600																			1580009277.0	7.57	14.02
26/01/2020 03:27:58	26012020	260120	032758	53.070	12.463083	-57.571502	53.100	0.270	-0.720	-0.290	53.070	-2.200	0.200																			1580009278.0	7.79	14.43
26/01/2020 03:27:59	26012020	260120	032759	53.190	12.463108	-57.571473	53.180	0.030	-0.240	-0.320	53.190	-1.900	0.100	1015.20	25.70	25.80	20.70	20.70	-1.00	73.00	73.00	391.00	25.20	9.00	8.70	70.00	5.00	15	3328.00	27.40	27.40	1580009279.0	7.75	14.35
26/01/2020 03:28:00	26012020	260120	032800	53.260	12.463128	-57.571447	53.200	-0.370	0.400	-0.120	53.260	-1.300	0.200																			1580009280.0	7.25	13.43
26/01/2020 03:28:01	26012020	260120	032801	53.260	12.463148	-57.571422	53.180	-0.550	0.550	0.140	53.260	-0.900	0.400																			1580009281.0	6.71	12.43
26/01/2020 03:28:02	26012020	260120	032802	53.230	12.463165	-57.571395	53.110	-0.270	-0.010	0.390	53.230	-1.100	0.700																			1580009282.0	6.77	12.54
26/01/2020 03:28:03	26012020	260120	032803	53.160	12.463185	-57.571367	53.080	0.220	-0.760	0.540	53.160	-1.900	0.900																			1580009283.0	7.48	13.85
26/01/2020 03:28:04	26012020	260120	032804	53.140	12.463207	-57.571335	53.130	0.540	-0.970	0.620	53.140	-2.400	1.000																			1580009284.0	8.11	15.02
26/01/2020 03:28:05	26012020	260120	032805	53.170	12.463228	-57.571305	53.090	0.540	-0.490	0.620	53.170	-2.200	1.000																			1580009285.0	7.98	14.78
26/01/2020 03:28:06	26012020	260120	032806	53.140	12.463250	-57.571277	53.020	0.320	0.180	0.470	53.140	-1.500	0.900																			1580009286.0	7.30	13.52
26/01/2020 03:28:07	26012020	260120	032807	53.050	12.463270	-57.571253	52.930	-0.010	0.540	0.240	53.050	-1.000	0.700																			1580009287.0	6.81	12.61
26/01/2020 03:28:08	26012020	260120	032808	52.970	12.463292	-57.571228	52.890	-0.300	0.370	0.000	52.970	-0.900	0.500																			1580009288.0	6.87	12.72
26/01/2020 03:28:09	26012020	260120	032809	52.960	12.463313	-57.571203	53.000	-0.390	-0.180	-0.250	52.960	-1.300	0.300																			1580009289.0	7.22	13.37
26/01/2020 03:28:10	26012020	260120	032810	53.100	12.463337	-57.571175	53.200	-0.300	-0.600	-0.400	53.100	-1.900	0.000																			1580009290.0	7.70	14.26
26/01/2020 03:28:11	26012020	260120	032811	53.280	12.463360	-57.571147	53.250	-0.150	-0.550	-0.290	53.280	-2.100	0.000																			1580009291.0	7.87	14.58
26/01/2020 03:28:12	26012020	260120	032812	53.300	12.463382	-57.571118	53.100	-0.080	-0.140	0.110	53.300	-1.800	0.300																			1580009292.0	7.54	13.96
26/01/2020 03:28:13	26012020	260120	032813	53.120	12.463400	-57.571090	52.930	-0.070	0.100	0.500	53.120	-1.400	0.700																			1580009293.0	7.07	13.09
26/01/2020 03:28:14	26012020	260120	032814	52.970	12.463417	-57.571063	52.920	0.010	-0.170	0.550	52.970	-1.400	1.000																			1580009294.0	6.89	12.76
26/01/2020 03:28:15	26012020	260120	032815	52.990	12.463437	-57.571035	53.010	0.250	-0.660	0.320	52.990	-1.900	0.800																			1580009295.0	7.30	13.52
26/01/2020 03:28:16	26012020	260120	032816	53.060	12.463460	-57.571005	53.040	0.440	-0.600	0.190	53.060	-2.100	0.600																			1580009296.0	7.93	14.69
26/01/2020 03:28:17	26012020	260120	032817	53.080	12.463485	-57.570978	53.000	0.360	0.050	0.240	53.080	-1.700	0.600																			1580009297.0	7.91	14.65
26/01/2020 03:28:18	26012020	260120	032818	53.040	12.463505	-57.570952	52.960	0.060	0.600	0.210	53.040	-1.000	0.600																			1580009298.0	7.12	13.19
26/01/2020 03:28:19	26012020	260120	032819	53.010	12.463525	-57.570927	52.970	-0.240	0.550	0.020	53.010	-0.800	0.500																			1580009299.0	6.68	12.37
26/01/2020 03:28:20	26012020	260120	032820	53.040	12.463545	-57.570902	53.050	-0.290	-0.050	-0.170	53.040	-1.100	0.300																			1580009300.0	6.95	12.87
26/01/2020 03:28:21	26012020	260120	032821	53.120	12.463568	-57.570875	53.170	-0.100	-0.760	-0.270	53.120	-1.900	0.100																			1580009301.0	7.52	13.93
26/01/2020 03:28:22	26012020	260120	032822	53.230	12.463592	-57.570845	53.180	0.100	-0.940	-0.170	53.230	-2.400	0.100																			1580009302.0	7.95	14.72
26/01/2020 03:28:23	26012020	260120	032823	53.200	12.463615	-57.570817	53.060	0.070	-0.500	0.130	53.200	-2.200	0.400																			1580009303.0	7.87	14.58
26/01/2020 03:28:24	26012020	260120	032824	53.070	12.463635	-57.570788	52.940	-0.120	0.010	0.450	53.070	-1.600	0.700																			1580009304.0	7.22	13.37
26/01/2020 03:28:25	26012020	260120	032825	52.970	12.463652	-57.570762	52.950	-0.230	0.170	0.550	52.970	-1.300	0.900																			1580009305.0	6.86	12.70
26/01/2020 03:28:26	26012020	260120	032826	52.990	12.463672	-57.570735	53.010	-0.130	0.060	0.450	52.990	-1.300	0.900																			1580009306.0	7.06	13.08
26/01/2020 03:28:27	26012020	260120	032827	53.060	12.463692	-57.570707	53.000	0.060	-0.010	0.350	53.060	-1.400	0.800																			1580009307.0	7.45	13.80
26/01/2020 03:28:28	26012020	260120	032828	53.050	12.463713	-57.570678	52.970	0.170	-0.100	0.200	53.050	-1.500	0.700																			1580009308.0	7.52	13.93
26/01/2020 03:28:29	26012020	260120	032829	53.010	12.463735	-57.570652	53.000	0.240	-0.410	-0.050	53.010	-1.700	0.500																			1580009309.0	7.36	13.63
26/01/2020 03:28:30	26012020	260120	032830	53.070	12.463758	-57.570625	53.050	0.190	-0.540	-0.270	53.070	-2.000	0.200																			1580009310.0	7.53	13.95
26/01/2020 03:28:31	26012020	260120	032831	53.090	12.463783	-57.570597	53.020	-0.050	-0.200	-0.300	53.090	-1.800	0.100																			1580009311.0	7.76	14.37
26/01/2020 03:28:32	26012020	260120	032832	53.060	12.463805	-57.570570	53.020	-0.310	0.230	-0.150	53.060	-1.400	0.200																			1580009312.0	7.34	13.59
26/01/2020 03:28:33	26012020	260120	032833	53.070	12.463825	-57.570545	53.020	-0.320	0.230	0.090	53.070	-1.100	0.400																			1580009313.0	6.87	12.72
26/01/2020 03:28:34	26012020	260120	032834	53.070	12.463843	-57.570518	52.950	-0.090	-0.120	0.330	53.070	-1.400	0.600																			1580009314.0	7.02	13.00
26/01/2020 03:28:35	26012020	260120	032835	53.000	12.463863	-57.570488	52.910	0.170	-0.470	0.480	53.000	-1.800	0.800																			1580009315.0	7.55	13.98
26/01/2020 03:28:36	26012020	260120	032836	52.950	12.463885	-57.570458	52.940	0.290	-0.550	0.540	52.950	-2.000	0.900																			1580009316.0	7.77	14.39
26/01/2020 03:28:37	26012020	260120	032837	52.980	12.463907	-57.570430	53.040	0.220	-0.280	0.370	53.000	-1.900	0.900																			1580009317.0	7.63	14.13
26/01/2020 03:28:38	26012020	260120	032838	53.090	12.463927	-57.570403	53.060	0.020	0.160	0.090	53.090	-1.500	0.600																			1580009318.0	7.31	13.54
26/01/2020 03:28:39	26012020	260120	032839	53.100	12.463950	-57.570378	53.010	-0.120	0.260	-0.020	53.100	-1.100	0.400																			1580009319.0	6.96	12.89
26/01/2020 03:28:40	26012020	260120	032840	53.040	12.463972	-57.570355	52.930	-0.070	-0.160	0.080	53.040	-1.300	0.400																			1580009320.0	6.96	12.89
26/01/2020 03:28:41	26012020	260120	032841	52.950	12.463993	-57.570327	52.880	0.070	-0.670	0.130	52.950	-1.900	0.500																			1580009321.0	7.48	13.85
26/01/2020 03:28:42	26012020	260120	032842	52.940	12.464015	-57.570297	53.000	0.080	-0.660	0.140	52.940	-2.200	0.500																			1580009322.0	7.96	14.74
26/01/2020 03:28:43	26012020	260120	032843	53.070	12.464038	-57.570268	53.140	-0.090	-0.090	0.250	53.070	-1.800	0.600																			1580009323.0	7.79	14.43
26/01/2020 03:28:44	26012020	260120	032844	53.200	12.464057	-57.570242	53.160	-0.270	0.420	0.430	53.200	-1.200	0.700																			1580009324.0	7.10	13.15
26/01/2020 03:28:45	26012020	260120	032845	53.170	12.464075	-57.570215	53.090	-0.240	0.260	0.470	53.170	-1.000	0.900																			1580009325.0	6.72	12.45
26/01/2020 03:28:46	26012020	260120	032846	53.100	12.464095	-57.570188	53.050	0.050	-0.350	0.380	53.100	-1.500	0.800																			1580009326.0	7.10	13.15
26/01/2020 03:28:47	26012020	260120	032847	53.080	12.464118	-57.570158	53.070	0.300	-0.590	0.240	53.080	-2.000	0.700																			1580009327.0	7.87	14.58
26/01/2020 03:28:48	26012020	260120	032848	53.110	12.464142	-57.570130	53.170	0.250	-0.180	0.030	53.110	-1.900	0.500																			1580009328.0	7.99	14.80
26/01/2020 03:28:49	26012020	260120	032849	53.210	12.464163	-57.570103	53.250	-0.010	0.270	-0.150	53.210	-1.300	0.300																			1580009329.0	7.28	13.48
26/01/2020 03:28:50	26012020	260120	032850	53.290	12.464183	-57.570080	53.310	-0.190	0.210	-0.210	53.290	-1.100	0.200																			1580009330.0	6.73	12.46
26/01/2020 03:28:51	26012020	260120	032851	53.340	12.464205	-57.570053	53.330	-0.140	-0.290	-0.200	53.340	-1.500	0.200																			1580009331.0	6.98	12.93
26/01/2020 03:28:52	26012020	260120	032852	53.360	12.464227	-57.570027	53.300	0.080	-0.750	-0.100	53.360	-2.000	0.200																			1580009332.0	7.57	14.02
26/01/2020 03:28:53	26012020	260120	032853	53.310	12.464250	-57.569997	53.230	0.250	-0.730	0.090	53.310	-2.200	0.400																			1580009333.0	7.91	14.65
26/01/2020 03:28:54	26012020	260120	032854	53.260	12.464272	-57.569968	53.260	0.220	-0.300	0.330	53.260	-1.900	0.600																			1580009334.0	7.72	14.30
26/01/2020 03:28:55	26012020	260120	032855	53.310	12.464292	-57.569940	53.360	0.040	0.060	0.530	53.310	-1.500	0.800																			1580009335.0	7.20	13.33
26/01/2020 03:28:56	26012020	260120	032856	53.390	12.464310	-57.569913	53.400	-0.140	0.240	0.660	53.390	-1.300	1.000																			1580009336.0	7.02	13.00
26/01/2020 03:28:57	26012020	260120	032857	53.420	12.464330	-57.569885	53.390	-0.270	0.290	0.680	53.420	-1.200	1.100																			1580009337.0	7.23	13.39
26/01/2020 03:28:58	26012020	260120	032858	53.440	12.464348	-57.569857	53.440	-0.300	0.150	0.510	53.440	-1.200	1.000																			1580009338.0	7.30	13.52
26/01/2020 03:28:59	26012020	260120	032859	53.500	12.464370	-57.569830	53.500	-0.220	-0.110	0.220	53.500	-1.400	0.700	1015.20	25.80	25.80	20.50	20.60	-1.00	72.00	72.00	390.00	25.20	12.00	8.90	74.00	5.20	15	3323.00	27.40	27.40	1580009339.0	7.37	13.65
26/01/2020 03:29:00	26012020	260120	032900	53.550	12.464392	-57.569802	53.520	-0.040	-0.360	-0.040	53.550	-1.700	0.500																			1580009340.0	7.48	13.85
26/01/2020 03:29:01	26012020	260120	032901	53.560	12.464415	-57.569775	53.560	0.180	-0.540	-0.320	53.560	-1.900	0.200																			1580009341.0	7.52	13.93
26/01/2020 03:29:02	26012020	260120	032902	53.590	12.464437	-57.569748	53.590	0.350	-0.610	-0.470	53.590	-2.000	-0.000																			1580009342.0	7.50	13.89
26/01/2020 03:29:03	26012020	260120	032903	53.630	12.464460	-57.569722	53.600	0.360	-0.430	-0.410	53.630	-2.000	-0.100																			1580009343.0	7.53	13.95
26/01/2020 03:29:04	26012020	260120	032904	53.640	12.464482	-57.569693	53.590	0.230	-0.100	-0.210	53.640	-1.700	0.100																			1580009344.0	7.42	13.74
26/01/2020 03:29:05	26012020	260120	032905	53.600	12.464503	-57.569667	53.590	0.030	0.090	0.040	53.600	-1.400	0.300																			1580009345.0	7.20	13.33
26/01/2020 03:29:06	26012020	260120	032906	53.600	12.464523	-57.569640	53.670	-0.140	0.080	0.220	53.600	-1.300	0.500																			1580009346.0	7.21	13.35
26/01/2020 03:29:07	26012020	260120	032907	53.700	12.464543	-57.569612	53.790	-0.260	0.030	0.410	53.700	-1.400	0.700																			1580009347.0	7.39	13.69
26/01/2020 03:29:08	26012020	260120	032908	53.800	12.464563	-57.569583	53.910	-0.310	0.040	0.580	53.800	-1.400	0.900																			1580009348.0	7.49	13.87
26/01/2020 03:29:09	26012020	260120	032909	53.920	12.464582	-57.569553	53.960	-0.280	-0.040	0.750	53.920	-1.400	1.000																			1580009349.0	7.39	13.69
26/01/2020 03:29:10	26012020	260120	032910	53.960	12.464602	-57.569525	53.890	-0.130	-0.310	0.810	53.960	-1.600	1.200																			1580009350.0	7.32	13.56
26/01/2020 03:29:11	26012020	260120	032911	53.880	12.464622	-57.569495	53.760	0.160	-0.620	0.630	53.880	-1.900	1.100																			1580009351.0	7.46	13.82
26/01/2020 03:29:12	26012020	260120	032912	53.760	12.464643	-57.569467	53.660	0.400	-0.610	0.330	53.760	-2.100	0.900																			1580009352.0	7.73	14.32
26/01/2020 03:29:13	26012020	260120	032913	53.690	12.464667	-57.569440	53.670	0.390	-0.250	-0.030	53.680	-1.900	0.500																			1580009353.0	7.72	14.30
26/01/2020 03:29:14	26012020	260120	032914	53.710	12.464690	-57.569413	53.720	0.130	0.160	-0.330	53.710	-1.400	0.200																			1580009354.0	7.35	13.61
26/01/2020 03:29:15	26012020	260120	032915	53.770	12.464712	-57.569388	53.760	-0.140	0.300	-0.530	53.770	-1.200	-0.100																			1580009355.0	7.06	13.08
26/01/2020 03:29:16	26012020	260120	032916	53.810	12.464733	-57.569363	53.820	-0.210	0.090	-0.610	53.810	-1.200	-0.200																			1580009356.0	7.12	13.19
26/01/2020 03:29:17	26012020	260120	032917	53.870	12.464755	-57.569335	53.900	-0.140	-0.210	-0.510	53.870	-1.500	-0.200																			1580009357.0	7.43	13.76
26/01/2020 03:29:18	26012020	260120	032918	53.940	12.464777	-57.569307	53.910	-0.020	-0.410	-0.230	53.940	-1.800	0.000																			1580009358.0	7.70	14.26
26/01/2020 03:29:19	26012020	260120	032919	53.950	12.464797	-57.569277	53.870	0.070	-0.420	0.180	53.950	-1.900	0.400																			1580009359.0	7.65	14.17
26/01/2020 03:29:20	26012020	260120	032920	53.890	12.464817	-57.569248	53.790	0.050	-0.250	0.610	53.890	-1.800	0.800																			1580009360.0	7.51	13.91
26/01/2020 03:29:21	26012020	260120	032921	53.780	12.464835	-57.569218	53.660	-0.120	-0.060	0.920	53.780	-1.600	1.200																			1580009361.0	7.37	13.65
26/01/2020 03:29:22	26012020	260120	032922	53.650	12.464853	-57.569190	53.570	-0.290	0.010	0.980	53.650	-1.400	1.400																			1580009362.0	7.25	13.43
26/01/2020 03:29:23	26012020	260120	032923	53.570	12.464873	-57.569162	53.570	-0.230	-0.150	0.810	53.570	-1.500	1.300																			1580009363.0	7.24	13.41
26/01/2020 03:29:24	26012020	260120	032924	53.600	12.464895	-57.569135	53.690	0.050	-0.390	0.490	53.600	-1.700	1.000																			1580009364.0	7.42	13.74
26/01/2020 03:29:25	26012020	260120	032925	53.720	12.464917	-57.569107	53.770	0.310	-0.400	0.140	53.720	-1.900	0.700																			1580009365.0	7.70	14.26
26/01/2020 03:29:26	26012020	260120	032926	53.790	12.464940	-57.569078	53.720	0.320	-0.090	-0.130	53.790	-1.700	0.400																			1580009366.0	7.69	14.24
26/01/2020 03:29:27	26012020	260120	032927	53.730	12.464962	-57.569052	53.560	0.090	0.240	-0.280	53.730	-1.300	0.200																			1580009367.0	7.37	13.65
26/01/2020 03:29:28	26012020	260120	032928	53.570	12.464983	-57.569025	53.420	-0.060	0.120	-0.380	53.570	-1.200	0.100																			1580009368.0	7.06	13.08
26/01/2020 03:29:29	26012020	260120	032929	53.440	12.465005	-57.569000	53.370	0.070	-0.440	-0.510	53.440	-1.600	-0.100																			1580009369.0	7.22	13.37
26/01/2020 03:29:30	26012020	260120	032930	53.420	12.465028	-57.568972	53.370	0.230	-0.690	-0.460	53.420	-2.100	-0.100																			1580009370.0	7.84	14.52
26/01/2020 03:29:31	26012020	260120	032931	53.410	12.465053	-57.568942	53.350	0.070	-0.270	-0.040	53.410	-2.000	0.100																			1580009371.0	8.08	14.96
26/01/2020 03:29:32	26012020	260120	032932	53.380	12.465073	-57.568913	53.370	-0.360	0.320	0.530	53.380	-1.400	0.700																			1580009372.0	7.44	13.78
26/01/2020 03:29:33	26012020	260120	032933	53.400	12.465090	-57.568887	53.420	-0.640	0.380	0.950	53.400	-1.000	1.200																			1580009373.0	6.78	12.56
26/01/2020 03:29:34	26012020	260120	032934	53.460	12.465107	-57.568858	53.460	-0.460	-0.140	1.140	53.460	-1.300	1.500																			1580009374.0	6.90	12.78
26/01/2020 03:29:35	26012020	260120	032935	53.500	12.465125	-57.568828	53.500	0.020	-0.620	1.120	53.500	-1.900	1.500																			1580009375.0	7.61	14.09
26/01/2020 03:29:36	26012020	260120	032936	53.510	12.465147	-57.568797	53.440	0.390	-0.560	0.960	53.510	-2.100	1.400																			1580009376.0	8.05	14.91
26/01/2020 03:29:37	26012020	260120	032937	53.430	12.465168	-57.568768	53.320	0.450	-0.180	0.510	53.430	-1.800	1.100																			1580009377.0	7.72	14.30
26/01/2020 03:29:38	26012020	260120	032938	53.320	12.465190	-57.568742	53.240	0.390	-0.010	-0.120	53.320	-1.500	0.600																			1580009378.0	7.12	13.19
26/01/2020 03:29:39	26012020	260120	032939	53.270	12.465213	-57.568718	53.200	0.340	-0.140	-0.600	53.270	-1.500	-0.000																			1580009379.0	7.13	13.20
26/01/2020 03:29:40	26012020	260120	032940	53.230	12.465238	-57.568693	53.180	0.190	-0.240	-0.800	53.230	-1.700	-0.400																			1580009380.0	7.56	14.00
26/01/2020 03:29:41	26012020	260120	032941	53.210	12.465263	-57.568667	53.230	-0.110	-0.170	-0.760	53.210	-1.700	-0.400																			1580009381.0	7.71	14.28
26/01/2020 03:29:42	26012020	260120	032942	53.280	12.465287	-57.568640	53.400	-0.390	-0.060	-0.500	53.280	-1.500	-0.300																			1580009382.0	7.50	13.89
26/01/2020 03:29:43	26012020	260120	032943	53.470	12.465307	-57.568612	53.570	-0.480	-0.060	-0.080	53.470	-1.500	0.100																			1580009383.0	7.31	13.54
26/01/2020 03:29:44	26012020	260120	032944	53.620	12.465325	-57.568582	53.560	-0.390	-0.070	0.450	53.620	-1.500	0.600																			1580009384.0	7.40	13.70
26/01/2020 03:29:45	26012020	260120	032945	53.550	12.465342	-57.568552	53.380	-0.200	0.010	0.940	53.550	-1.500	1.100																			1580009385.0	7.51	13.91
26/01/2020 03:29:46	26012020	260120	032946	53.340	12.465360	-57.568522	53.230	0.030	-0.010	1.140	53.340	-1.400	1.500																			1580009386.0	7.41	13.72
26/01/2020 03:29:47	26012020	260120	032947	53.230	12.465378	-57.568493	53.280	0.270	-0.250	0.890	53.230	-1.600	1.400																			1580009387.0	7.28	13.48
26/01/2020 03:29:48	26012020	260120	032948	53.320	12.465400	-57.568467	53.380	0.420	-0.510	0.440	53.320	-1.900	1.000																			1580009388.0	7.45	13.80
26/01/2020 03:29:49	26012020	260120	032949	53.420	12.465425	-57.568438	53.380	0.370	-0.470	0.100	53.420	-2.000	0.600																			1580009389.0	7.70	14.26
26/01/2020 03:29:50	26012020	260120	032950	53.400	12.465448	-57.568413	53.320	0.120	-0.190	-0.090	53.400	-1.800	0.400																			1580009390.0	7.59	14.06
26/01/2020 03:29:51	26012020	260120	032951	53.320	12.465472	-57.568387	53.300	-0.170	0.000	-0.180	53.320	-1.500	0.200																			1580009391.0	7.28	13.48
26/01/2020 03:29:52	26012020	260120	032952	53.330	12.465493	-57.568362	53.360	-0.310	0.010	-0.190	53.330	-1.400	0.200																			1580009392.0	7.20	13.33
26/01/2020 03:29:53	26012020	260120	032953	53.390	12.465515	-57.568333	53.380	-0.250	-0.070	-0.060	53.390	-1.500	0.300																			1580009393.0	7.37	13.65
26/01/2020 03:29:54	26012020	260120	032954	53.390	12.465535	-57.568305	53.330	-0.080	-0.170	0.070	53.390	-1.600	0.400																			1580009394.0	7.51	13.91
26/01/2020 03:29:55	26012020	260120	032955	53.360	12.465555	-57.568275	53.330	0.100	-0.300	0.160	53.360	-1.700	0.500																			1580009395.0	7.54	13.96
26/01/2020 03:29:56	26012020	260120	032956	53.360	12.465575	-57.568247	53.360	0.200	-0.380	0.250	53.360	-1.800	0.600																			1580009396.0	7.55	13.98
26/01/2020 03:29:57	26012020	260120	032957	53.380	12.465597	-57.568217	53.380	0.180	-0.240	0.310	53.380	-1.800	0.700																			1580009397.0	7.58	14.04
26/01/2020 03:29:58	26012020	260120	032958	53.390	12.465617	-57.568190	53.370	0.070	-0.010	0.320	53.390	-1.500	0.700																			1580009398.0	7.47	13.83
26/01/2020 03:29:59	26012020	260120	032959	53.340	12.465638	-57.568163	53.250	-0.000	-0.040	0.360	53.340	-1.400	0.700	1015.20	25.80	25.80	20.80	20.80	-1.00	73.00	73.00	390.00	25.20	8.00	8.50	67.00	4.70	15	3317.00	27.40	27.40	1580009399.0	7.24	13.41
26/01/2020 03:30:00	26012020	260120	033000	53.230	12.465660	-57.568137	53.160	0.040	-0.240	0.340	53.230	-1.600	0.700																			1580009400.0	7.33	13.58
26/01/2020 03:30:01	26012020	260120	033001	53.170	12.465682	-57.568108	53.210	0.040	-0.260	0.230	53.170	-1.700	0.700																			1580009401.0	7.69	14.24
26/01/2020 03:30:02	26012020	260120	033002	53.230	12.465705	-57.568078	53.330	-0.120	0.010	0.130	53.230	-1.600	0.500																			1580009402.0	7.73	14.32
26/01/2020 03:30:03	26012020	260120	033003	53.380	12.465725	-57.568052	53.430	-0.370	0.250	0.090	53.380	-1.300	0.500																			1580009403.0	7.34	13.59
26/01/2020 03:30:04	26012020	260120	033004	53.440	12.465745	-57.568025	53.310	-0.470	0.180	0.160	53.440	-1.200	0.500																			1580009404.0	7.06	13.08
26/01/2020 03:30:05	26012020	260120	033005	53.290	12.465765	-57.567998	53.100	-0.260	-0.200	0.280	53.290	-1.400	0.600																			1580009405.0	7.17	13.28
26/01/2020 03:30:06	26012020	260120	033006	53.100	12.465787	-57.567970	53.090	0.170	-0.720	0.300	53.100	-1.900	0.700																			1580009406.0	7.50	13.89
26/01/2020 03:30:07	26012020	260120	033007	53.120	12.465808	-57.567940	53.240	0.540	-1.020	0.140	53.150	-2.400	0.600																			1580009407.0	7.81	14.46
26/01/2020 03:30:08	26012020	260120	033008	53.300	12.465832	-57.567910	53.280	0.600	-0.740	-0.020	53.300	-2.400	0.400																			1580009408.0	7.96	14.74
26/01/2020 03:30:09	26012020	260120	033009	53.300	12.465853	-57.567882	53.100	0.340	0.010	0.060	53.300	-1.800	0.400																			1580009409.0	7.70	14.26
26/01/2020 03:30:10	26012020	260120	033010	53.090	12.465875	-57.567857	52.880	-0.010	0.660	0.300	53.090	-1.000	0.600																			1580009410.0	7.13	13.20
26/01/2020 03:30:11	26012020	260120	033011	52.870	12.465895	-57.567830	52.850	-0.220	0.700	0.290	52.870	-0.700	0.700																			1580009411.0	6.82	12.63
26/01/2020 03:30:12	26012020	260120	033012	52.850	12.465915	-57.567805	53.000	-0.230	0.130	0.020	52.850	-1.000	0.500																			1580009412.0	7.08	13.11
26/01/2020 03:30:13	26012020	260120	033013	53.040	12.465938	-57.567777	53.200	-0.110	-0.520	-0.100	53.040	-1.700	0.300																			1580009413.0	7.70	14.26
26/01/2020 03:30:14	26012020	260120	033014	53.260	12.465962	-57.567747	53.370	-0.030	-0.770	0.010	53.260	-2.200	0.300																			1580009414.0	8.06	14.93
26/01/2020 03:30:15	26012020	260120	033015	53.400	12.465983	-57.567717	53.360	-0.070	-0.590	0.310	53.400	-2.200	0.500																			1580009415.0	7.89	14.61
26/01/2020 03:30:16	26012020	260120	033016	53.320	12.466003	-57.567687	53.040	-0.210	-0.100	0.670	53.320	-1.800	0.900																			1580009416.0	7.48	13.85
26/01/2020 03:30:17	26012020	260120	033017	52.990	12.466022	-57.567658	52.720	-0.300	0.310	0.810	52.990	-1.300	1.200																			1580009417.0	7.13	13.20
26/01/2020 03:30:18	26012020	260120	033018	52.710	12.466040	-57.567633	52.650	-0.150	0.230	0.560	52.710	-1.100	1.100																			1580009418.0	6.92	12.82
26/01/2020 03:30:19	26012020	260120	033019	52.680	12.466062	-57.567607	52.780	0.220	-0.340	0.040	52.680	-1.500	0.700																			1580009419.0	7.19	13.32
26/01/2020 03:30:20	26012020	260120	033020	52.850	12.466087	-57.567580	52.960	0.510	-0.800	-0.430	52.850	-2.100	0.100																			1580009420.0	7.82	14.48
26/01/2020 03:30:21	26012020	260120	033021	53.010	12.466113	-57.567552	53.060	0.430	-0.620	-0.570	53.010	-2.200	-0.200																			1580009421.0	8.19	15.17
26/01/2020 03:30:22	26012020	260120	033022	53.090	12.466137	-57.567523	53.040	0.040	0.110	-0.400	53.090	-1.700	-0.100																			1580009422.0	7.82	14.48
26/01/2020 03:30:23	26012020	260120	033023	53.090	12.466157	-57.567498	53.060	-0.340	0.610	-0.130	53.090	-1.000	0.100																			1580009423.0	7.01	12.98
26/01/2020 03:30:24	26012020	260120	033024	53.110	12.466175	-57.567473	53.130	-0.380	0.340	0.110	53.110	-0.900	0.400																			1580009424.0	6.64	12.30
26/01/2020 03:30:25	26012020	260120	033025	53.170	12.466195	-57.567445	53.150	-0.110	-0.390	0.390	53.170	-1.500	0.600																			1580009425.0	7.18	13.30
26/01/2020 03:30:26	26012020	260120	033026	53.170	12.466217	-57.567413	53.090	0.160	-0.820	0.670	53.170	-2.100	0.900																			1580009426.0	7.99	14.80
26/01/2020 03:30:27	26012020	260120	033027	53.090	12.466238	-57.567382	53.000	0.230	-0.610	0.900	53.090	-2.200	1.200																			1580009427.0	8.16	15.11
26/01/2020 03:30:28	26012020	260120	033028	52.980	12.466258	-57.567353	52.910	0.120	-0.100	0.960	52.980	-1.800	1.300																			1580009428.0	7.59	14.06
26/01/2020 03:30:29	26012020	260120	033029	52.910	12.466277	-57.567327	52.850	-0.010	0.180	0.740	52.910	-1.300	1.300																			1580009429.0	7.02	13.00
26/01/2020 03:30:30	26012020	260120	033030	52.900	12.466298	-57.567300	52.940	-0.060	0.060	0.240	52.900	-1.300	0.900																			1580009430.0	6.99	12.95
26/01/2020 03:30:31	26012020	260120	033031	53.030	12.466320	-57.567273	53.050	-0.030	-0.170	-0.220	53.030	-1.500	0.400																			1580009431.0	7.40	13.70
26/01/2020 03:30:32	26012020	260120	033032	53.120	12.466345	-57.567247	53.080	-0.070	-0.060	-0.470	53.120	-1.600	0.000																			1580009432.0	7.77	14.39
26/01/2020 03:30:33	26012020	260120	033033	53.140	12.466368	-57.567220	53.090	-0.210	0.210	-0.590	53.140	-1.300	-0.200																			1580009433.0	7.61	14.09
26/01/2020 03:30:34	26012020	260120	033034	53.130	12.466392	-57.567195	53.130	-0.260	0.050	-0.580	53.130	-1.200	-0.200																			1580009434.0	7.09	13.13
26/01/2020 03:30:35	26012020	260120	033035	53.170	12.466412	-57.567170	53.210	-0.070	-0.590	-0.440	53.170	-1.700	-0.100																			1580009435.0	7.10	13.15
26/01/2020 03:30:36	26012020	260120	033036	53.220	12.466433	-57.567140	53.240	0.220	-1.020	-0.140	53.220	-2.300	0.100																			1580009436.0	7.73	14.32
26/01/2020 03:30:37	26012020	260120	033037	53.250	12.466457	-57.567110	53.260	0.380	-0.760	0.370	53.250	-2.400	0.500																			1580009437.0	8.11	15.02
26/01/2020 03:30:38	26012020	260120	033038	53.250	12.466477	-57.567080	53.210	0.290	-0.050	0.980	53.250	-1.800	1.100																			1580009438.0	7.71	14.28
26/01/2020 03:30:39	26012020	260120	033039	53.190	12.466493	-57.567050	53.190	0.040	0.450	1.260	53.190	-1.200	1.600																			1580009439.0	7.07	13.09
26/01/2020 03:30:40	26012020	260120	033040	53.190	12.466510	-57.567023	53.310	-0.140	0.460	1.000	53.190	-0.900	1.500																			1580009440.0	6.88	12.74
26/01/2020 03:30:41	26012020	260120	033041	53.320	12.466530	-57.566995	53.350	-0.190	0.270	0.620	53.320	-1.100	1.200																			1580009441.0	7.23	13.39
26/01/2020 03:30:42	26012020	260120	033042	53.360	12.466553	-57.566968	53.300	-0.150	0.050	0.270	53.360	-1.300	0.800																			1580009442.0	7.59	14.06
26/01/2020 03:30:43	26012020	260120	033043	53.300	12.466577	-57.566942	53.220	-0.020	-0.340	-0.150	53.300	-1.600	0.400																			1580009443.0	7.54	13.96
26/01/2020 03:30:44	26012020	260120	033044	53.250	12.466602	-57.566915	53.180	0.180	-0.810	-0.510	53.250	-2.100	0.000																			1580009444.0	7.57	14.02
26/01/2020 03:30:45	26012020	260120	033045	53.200	12.466627	-57.566888	53.210	0.250	-0.930	-0.670	53.200	-2.400	-0.200																			1580009445.0	7.87	14.58
26/01/2020 03:30:46	26012020	260120	033046	53.260	12.466650	-57.566862	53.350	0.050	-0.450	-0.570	53.260	-2.200	-0.300																			1580009446.0	7.88	14.59
26/01/2020 03:30:47	26012020	260120	033047	53.400	12.466672	-57.566833	53.480	-0.340	0.330	-0.110	53.400	-1.500	0.000																			1580009447.0	7.36	13.63
26/01/2020 03:30:48	26012020	260120	033048	53.500	12.466688	-57.566807	53.480	-0.590	0.700	0.490	53.500	-0.800	0.600																			1580009448.0	6.77	12.54
26/01/2020 03:30:49	26012020	260120	033049	53.470	12.466703	-57.566778	53.410	-0.450	0.270	0.910	53.470	-0.900	1.100																			1580009449.0	6.73	12.46
26/01/2020 03:30:50	26012020	260120	033050	53.390	12.466722	-57.566748	53.310	0.000	-0.500	1.050	53.390	-1.600	1.400																			1580009450.0	7.41	13.72
26/01/2020 03:30:51	26012020	260120	033051	53.280	12.466743	-57.566717	53.220	0.480	-0.840	0.930	53.280	-2.200	1.400																			1580009451.0	8.12	15.04
26/01/2020 03:30:52	26012020	260120	033052	53.190	12.466767	-57.566687	53.190	0.720	-0.540	0.600	53.190	-2.200	1.200																			1580009452.0	8.12	15.04
26/01/2020 03:30:53	26012020	260120	033053	53.200	12.466790	-57.566660	53.230	0.680	-0.070	0.220	53.200	-1.700	0.800																			1580009453.0	7.48	13.85
26/01/2020 03:30:54	26012020	260120	033054	53.240	12.466812	-57.566637	53.250	0.420	0.130	-0.100	53.240	-1.400	0.400																			1580009454.0	7.01	12.98
26/01/2020 03:30:55	26012020	260120	033055	53.270	12.466835	-57.566612	53.260	0.030	0.110	-0.280	53.270	-1.300	0.200																			1580009455.0	7.15	13.24
26/01/2020 03:30:56	26012020	260120	033056	53.260	12.466858	-57.566587	53.260	-0.400	0.040	-0.220	53.260	-1.400	0.100																			1580009456.0	7.43	13.76
26/01/2020 03:30:57	26012020	260120	033057	53.270	12.466880	-57.566558	53.340	-0.710	-0.060	0.030	53.270	-1.500	0.300																			1580009457.0	7.45	13.80
26/01/2020 03:30:58	26012020	260120	033058	53.370	12.466900	-57.566530	53.450	-0.810	-0.190	0.380	53.370	-1.600	0.600																			1580009458.0	7.42	13.74
26/01/2020 03:30:59	26012020	260120	033059	53.460	12.466918	-57.566500	53.490	-0.680	-0.240	0.650	53.460	-1.700	0.900	1015.10	25.80	25.80	20.70	20.70	-1.00	73.00	73.00	390.00	25.20	6.00	8.90	64.00	5.10	15	3180.00	27.40	27.40	1580009459.0	7.46	13.82
26/01/2020 03:31:00	26012020	260120	033100	53.480	12.466937	-57.566470	53.360	-0.350	-0.280	0.830	53.480	-1.700	1.100																			1580009460.0	7.45	13.80
26/01/2020 03:31:01	26012020	260120	033101	53.320	12.466953	-57.566440	53.120	0.160	-0.410	0.870	53.320	-1.800	1.300																			1580009461.0	7.36	13.63
26/01/2020 03:31:02	26012020	260120	033102	53.080	12.466973	-57.566412	52.970	0.660	-0.540	0.600	53.080	-1.900	1.200																			1580009462.0	7.46	13.82
26/01/2020 03:31:03	26012020	260120	033103	52.990	12.466997	-57.566383	53.010	0.870	-0.410	0.040	52.990	-2.000	0.700																			1580009463.0	7.65	14.17
26/01/2020 03:31:04	26012020	260120	033104	53.050	12.467020	-57.566357	53.090	0.690	-0.010	-0.570	53.050	-1.700	0.100																			1580009464.0	7.66	14.19
26/01/2020 03:31:05	26012020	260120	033105	53.130	12.467047	-57.566333	53.160	0.280	0.370	-0.840	53.130	-1.200	-0.400																			1580009465.0	7.38	13.67
26/01/2020 03:31:06	26012020	260120	033106	53.180	12.467070	-57.566310	53.180	-0.120	0.330	-0.670	53.180	-1.000	-0.400																			1580009466.0	7.10	13.15
26/01/2020 03:31:07	26012020	260120	033107	53.200	12.467092	-57.566285	53.180	-0.400	-0.120	-0.280	53.200	-1.300	-0.100																			1580009467.0	7.15	13.24
26/01/2020 03:31:08	26012020	260120	033108	53.210	12.467113	-57.566255	53.190	-0.520	-0.560	0.230	53.210	-1.800	0.400																			1580009468.0	7.60	14.08
26/01/2020 03:31:09	26012020	260120	033109	53.200	12.467132	-57.566225	53.150	-0.470	-0.570	0.800	53.200	-2.100	0.900																			1580009469.0	7.90	14.63
26/01/2020 03:31:10	26012020	260120	033110	53.140	12.467152	-57.566193	53.060	-0.290	-0.270	1.250	53.140	-1.900	1.400																			1580009470.0	7.71	14.28
26/01/2020 03:31:11	26012020	260120	033111	53.050	12.467168	-57.566163	52.990	-0.090	0.010	1.430	53.050	-1.600	1.800																			1580009471.0	7.28	13.48
26/01/2020 03:31:12	26012020	260120	033112	52.990	12.467187	-57.566135	52.970	0.040	0.140	1.280	52.990	-1.400	1.800																			1580009472.0	7.14	13.22
26/01/2020 03:31:13	26012020	260120	033113	52.990	12.467207	-57.566107	52.990	0.150	0.100	0.770	52.990	-1.300	1.400																			1580009473.0	7.17	13.28
26/01/2020 03:31:14	26012020	260120	033114	53.030	12.467228	-57.566082	53.060	0.350	-0.300	0.110	53.030	-1.500	0.800																			1580009474.0	7.26	13.45
26/01/2020 03:31:15	26012020	260120	033115	53.120	12.467252	-57.566055	53.090	0.460	-0.730	-0.450	53.120	-2.000	0.200																			1580009475.0	7.57	14.02
26/01/2020 03:31:16	26012020	260120	033116	53.140	12.467278	-57.566028	52.990	0.270	-0.620	-0.830	53.140	-2.200	-0.300																			1580009476.0	8.01	14.83
26/01/2020 03:31:17	26012020	260120	033117	53.040	12.467303	-57.566002	52.910	-0.090	-0.040	-1.030	53.040	-1.800	-0.600																			1580009477.0	7.78	14.41
26/01/2020 03:31:18	26012020	260120	033118	52.980	12.467325	-57.565977	52.930	-0.290	0.380	-0.980	52.980	-1.200	-0.600																			1580009478.0	7.08	13.11
26/01/2020 03:31:19	26012020	260120	033119	53.010	12.467347	-57.565953	52.960	-0.200	0.310	-0.620	53.010	-1.000	-0.400																			1580009479.0	6.78	12.56
26/01/2020 03:31:20	26012020	260120	033120	53.010	12.467367	-57.565925	52.870	-0.060	-0.030	-0.020	53.010	-1.300	0.100																			1580009480.0	7.18	13.30
26/01/2020 03:31:21	26012020	260120	033121	52.890	12.467387	-57.565895	52.730	-0.110	-0.270	0.730	52.890	-1.600	0.800																			1580009481.0	7.67	14.20
26/01/2020 03:31:22	26012020	260120	033122	52.740	12.467405	-57.565865	52.710	-0.260	-0.310	1.240	52.740	-1.700	1.400																			1580009482.0	7.70	14.26
26/01/2020 03:31:23	26012020	260120	033123	52.750	12.467422	-57.565835	52.900	-0.200	-0.430	1.210	52.750	-1.800	1.700																			1580009483.0	7.37	13.65
26/01/2020 03:31:24	26012020	260120	033124	52.980	12.467442	-57.565807	53.020	0.130	-0.570	0.990	52.980	-2.000	1.500																			1580009484.0	7.23	13.39
26/01/2020 03:31:25	26012020	260120	033125	53.050	12.467463	-57.565778	52.900	0.420	-0.390	0.850	53.050	-2.000	1.300																			1580009485.0	7.51	13.91
26/01/2020 03:31:26	26012020	260120	033126	52.910	12.467487	-57.565752	52.760	0.450	-0.040	0.700	52.910	-1.600	1.200																			1580009486.0	7.49	13.87
26/01/2020 03:31:27	26012020	260120	033127	52.780	12.467508	-57.565727	52.760	0.250	0.130	0.360	52.780	-1.400	0.900																			1580009487.0	7.19	13.32
26/01/2020 03:31:28	26012020	260120	033128	52.810	12.467530	-57.565702	52.820	-0.010	0.130	-0.110	52.810	-1.300	0.500																			1580009488.0	7.18	13.30
26/01/2020 03:31:29	26012020	260120	033129	52.880	12.467553	-57.565675	52.830	-0.190	0.070	-0.420	52.880	-1.300	0.100																			1580009489.0	7.36	13.63
26/01/2020 03:31:30	26012020	260120	033130	52.870	12.467577	-57.565650	52.790	-0.220	-0.120	-0.450	52.870	-1.500	-0.100																			1580009490.0	7.37	13.65
26/01/2020 03:31:31	26012020	260120	033131	52.840	12.467598	-57.565622	52.830	-0.180	-0.370	-0.390	52.840	-1.700	-0.000																			1580009491.0	7.39	13.69
26/01/2020 03:31:32	26012020	260120	033132	52.880	12.467620	-57.565593	52.910	-0.170	-0.460	-0.360	52.880	-1.900	0.000																			1580009492.0	7.54	13.96
26/01/2020 03:31:33	26012020	260120	033133	52.940	12.467640	-57.565565	52.900	-0.220	-0.200	-0.150	52.940	-1.800	0.100																			1580009493.0	7.54	13.96
26/01/2020 03:31:34	26012020	260120	033134	52.890	12.467662	-57.565538	52.800	-0.230	0.110	0.250	52.890	-1.500	0.400																			1580009494.0	7.25	13.43
26/01/2020 03:31:35	26012020	260120	033135	52.780	12.467680	-57.565512	52.740	-0.080	0.060	0.610	52.780	-1.300	0.900																			1580009495.0	6.96	12.89
26/01/2020 03:31:36	26012020	260120	033136	52.730	12.467700	-57.565485	52.790	0.180	-0.330	0.750	52.730	-1.600	1.100																			1580009496.0	7.14	13.22
26/01/2020 03:31:37	26012020	260120	033137	52.800	12.467722	-57.565457	52.900	0.400	-0.690	0.700	52.800	-2.000	1.100																			1580009497.0	7.58	14.04
26/01/2020 03:31:38	26012020	260120	033138	52.920	12.467743	-57.565427	53.010	0.390	-0.620	0.580	52.920	-2.200	1.000																			1580009498.0	7.85	14.54
26/01/2020 03:31:39	26012020	260120	033139	53.010	12.467767	-57.565398	53.030	0.120	-0.050	0.460	53.010	-1.800	0.900																			1580009499.0	7.69	14.24
26/01/2020 03:31:40	26012020	260120	033140	53.040	12.467787	-57.565372	53.070	-0.170	0.440	0.330	53.040	-1.200	0.800																			1580009500.0	7.13	13.20
26/01/2020 03:31:41	26012020	260120	033141	53.090	12.467808	-57.565348	53.120	-0.210	0.350	0.140	53.090	-1.000	0.600																			1580009501.0	6.77	12.54
26/01/2020 03:31:42	26012020	260120	033142	53.140	12.467830	-57.565322	53.090	-0.050	-0.070	0.000	53.140	-1.300	0.400																			1580009502.0	7.10	13.15
26/01/2020 03:31:43	26012020	260120	033143	53.110	12.467852	-57.565295	52.970	0.050	-0.380	0.020	53.110	-1.700	0.400																			1580009503.0	7.69	14.24
26/01/2020 03:31:44	26012020	260120	033144	52.970	12.467875	-57.565265	52.820	0.040	-0.460	0.110	52.970	-1.900	0.500																			1580009504.0	7.76	14.37
26/01/2020 03:31:45	26012020	260120	033145	52.830	12.467897	-57.565238	52.820	0.020	-0.410	0.090	52.830	-1.900	0.500																			1580009505.0	7.51	13.91
26/01/2020 03:31:46	26012020	260120	033146	52.880	12.467918	-57.565210	52.990	0.030	-0.270	-0.070	52.880	-1.800	0.400																			1580009506.0	7.35	13.61
26/01/2020 03:31:47	26012020	260120	033147	53.040	12.467938	-57.565183	53.180	-0.020	-0.090	-0.180	53.080	-1.600	0.200																			1580009507.0	7.29	13.50
26/01/2020 03:31:48	26012020	260120	033148	53.230	12.467960	-57.565157	53.250	-0.190	0.170	-0.090	53.230	-1.400	0.200																			1580009508.0	7.29	13.50
26/01/2020 03:31:49	26012020	260120	033149	53.280	12.467982	-57.565130	53.190	-0.370	0.320	0.140	53.270	-1.100	0.400																			1580009509.0	7.18	13.30
26/01/2020 03:31:50	26012020	260120	033150	53.210	12.468002	-57.565103	53.130	-0.290	-0.020	0.320	53.210	-1.200	0.600																			1580009510.0	7.02	13.00
26/01/2020 03:31:51	26012020	260120	033151	53.160	12.468022	-57.565077	53.140	0.070	-0.650	0.440	53.160	-1.800	0.800																			1580009511.0	7.27	13.46
26/01/2020 03:31:52	26012020	260120	033152	53.160	12.468043	-57.565047	53.100	0.400	-0.900	0.570	53.160	-2.300	0.900																			1580009512.0	7.85	14.54
26/01/2020 03:31:53	26012020	260120	033153	53.100	12.468065	-57.565015	53.000	0.440	-0.560	0.620	53.100	-2.200	1.000																			1580009513.0	7.97	14.76
26/01/2020 03:31:54	26012020	260120	033154	53.030	12.468085	-57.564988	53.010	0.310	-0.060	0.410	53.030	-1.700	0.900																			1580009514.0	7.41	13.72
26/01/2020 03:31:55	26012020	260120	033155	53.040	12.468107	-57.564963	53.070	0.170	0.220	0.120	53.040	-1.300	0.600																			1580009515.0	6.99	12.95
26/01/2020 03:31:56	26012020	260120	033156	53.090	12.468128	-57.564938	53.110	0.000	0.300	-0.200	53.090	-1.200	0.300																			1580009516.0	7.14	13.22
26/01/2020 03:31:57	26012020	260120	033157	53.140	12.468152	-57.564912	53.190	-0.180	0.220	-0.460	53.140	-1.200	0.000																			1580009517.0	7.36	13.63
26/01/2020 03:31:58	26012020	260120	033158	53.250	12.468177	-57.564887	53.280	-0.290	-0.010	-0.320	53.250	-1.300	-0.100																			1580009518.0	7.43	13.76
26/01/2020 03:31:59	26012020	260120	033159	53.320	12.468198	-57.564860	53.260	-0.320	-0.270	0.120	53.320	-1.600	0.300	1015.10	25.80	25.80	20.50	20.60	-1.00	72.00	72.00	390.00	25.20	5.00	8.80	63.00	5.10	15	3222.00	27.40	27.40	1580009519.0	7.47	13.83
26/01/2020 03:32:00	26012020	260120	033200	53.270	12.468218	-57.564830	53.200	-0.300	-0.470	0.470	53.270	-1.800	0.700																			1580009520.0	7.54	13.96
26/01/2020 03:32:01	26012020	260120	033201	53.200	12.468237	-57.564800	53.200	-0.190	-0.490	0.660	53.200	-1.900	1.000																			1580009521.0	7.55	13.98
26/01/2020 03:32:02	26012020	260120	033202	53.210	12.468255	-57.564770	53.320	-0.000	-0.360	0.650	53.210	-1.900	1.100																			1580009522.0	7.47	13.83
26/01/2020 03:32:03	26012020	260120	033203	53.360	12.468275	-57.564742	53.470	0.220	-0.230	0.370	53.360	-1.700	0.900																			1580009523.0	7.29	13.50
26/01/2020 03:32:04	26012020	260120	033204	53.510	12.468297	-57.564715	53.470	0.360	-0.070	0.010	53.510	-1.600	0.600																			1580009524.0	7.27	13.46
26/01/2020 03:32:05	26012020	260120	033205	53.480	12.468320	-57.564690	53.320	0.340	0.120	-0.090	53.480	-1.400	0.300																			1580009525.0	7.35	13.61
26/01/2020 03:32:06	26012020	260120	033206	53.310	12.468343	-57.564665	53.220	0.190	0.110	-0.110	53.310	-1.300	0.300																			1580009526.0	7.29	13.50
26/01/2020 03:32:07	26012020	260120	033207	53.240	12.468365	-57.564638	53.320	0.080	-0.230	-0.320	53.240	-1.500	0.200																			1580009527.0	7.26	13.45
26/01/2020 03:32:08	26012020	260120	033208	53.400	12.468390	-57.564612	53.570	0.070	-0.640	-0.430	53.400	-1.900	-0.000																			1580009528.0	7.56	14.00
26/01/2020 03:32:09	26012020	260120	033209	53.660	12.468413	-57.564585	53.690	-0.010	-0.510	-0.140	53.660	-2.100	0.100																			1580009529.0	7.91	14.65
26/01/2020 03:32:10	26012020	260120	033210	53.710	12.468435	-57.564555	53.570	-0.270	0.060	0.420	53.710	-1.700	0.500																			1580009530.0	7.75	14.35
26/01/2020 03:32:11	26012020	260120	033211	53.570	12.468452	-57.564527	53.460	-0.510	0.370	0.830	53.570	-1.100	1.100																			1580009531.0	7.06	13.08
26/01/2020 03:32:12	26012020	260120	033212	53.500	12.468468	-57.564498	53.590	-0.430	0.060	0.770	53.500	-1.200	1.200																			1580009532.0	6.81	12.61
26/01/2020 03:32:13	26012020	260120	033213	53.620	12.468488	-57.564470	53.800	-0.130	-0.390	0.470	53.670	-1.600	1.000																			1580009533.0	7.32	13.56
26/01/2020 03:32:14	26012020	260120	033214	53.890	12.468510	-57.564442	53.860	0.080	-0.350	0.300	53.890	-1.900	0.700																			1580009534.0	7.88	14.59
26/01/2020 03:32:15	26012020	260120	033215	53.920	12.468533	-57.564413	53.770	0.030	0.060	0.270	53.920	-1.600	0.700																			1580009535.0	7.69	14.24
26/01/2020 03:32:16	26012020	260120	033216	53.790	12.468555	-57.564387	53.670	-0.060	0.180	0.100	53.790	-1.200	0.600																			1580009536.0	7.05	13.06
26/01/2020 03:32:17	26012020	260120	033217	53.710	12.468575	-57.564363	53.650	0.130	-0.310	-0.200	53.710	-1.500	0.300																			1580009537.0	6.85	12.69
26/01/2020 03:32:18	26012020	260120	033218	53.690	12.468598	-57.564337	53.650	0.530	-0.870	-0.440	53.690	-2.100	0.100																			1580009538.0	7.45	13.80
26/01/2020 03:32:19	26012020	260120	033219	53.710	12.468623	-57.564308	53.710	0.720	-0.840	-0.590	53.710	-2.400	-0.100																			1580009539.0	8.08	14.96
26/01/2020 03:32:20	26012020	260120	033220	53.770	12.468647	-57.564278	53.750	0.440	-0.250	-0.540	53.770	-2.000	-0.200																			1580009540.0	7.89	14.61
26/01/2020 03:32:21	26012020	260120	033221	53.790	12.468668	-57.564253	53.750	-0.140	0.430	-0.200	53.790	-1.300	0.000																			1580009541.0	7.23	13.39
26/01/2020 03:32:22	26012020	260120	033222	53.790	12.468688	-57.564228	53.810	-0.610	0.650	0.150	53.790	-0.800	0.400																			1580009542.0	6.79	12.58
26/01/2020 03:32:23	26012020	260120	033223	53.850	12.468707	-57.564202	53.980	-0.670	0.270	0.360	53.850	-0.900	0.700																			1580009543.0	6.86	12.70
26/01/2020 03:32:24	26012020	260120	033224	54.030	12.468727	-57.564172	54.100	-0.420	-0.250	0.720	54.030	-1.500	0.900																			1580009544.0	7.41	13.72
26/01/2020 03:32:25	26012020	260120	033225	54.100	12.468747	-57.564142	53.960	-0.150	-0.410	1.160	54.100	-1.800	1.400																			1580009545.0	7.87	14.58
26/01/2020 03:32:26	26012020	260120	033226	53.930	12.468765	-57.564110	53.740	0.010	-0.360	1.260	53.930	-1.800	1.700																			1580009546.0	7.70	14.26
26/01/2020 03:32:27	26012020	260120	033227	53.720	12.468783	-57.564082	53.660	0.160	-0.450	0.930	53.720	-1.800	1.500																			1580009547.0	7.26	13.45
26/01/2020 03:32:28	26012020	260120	033228	53.700	12.468805	-57.564055	53.750	0.330	-0.600	0.300	53.700	-2.000	1.000																			1580009548.0	7.27	13.46
26/01/2020 03:32:29	26012020	260120	033229	53.830	12.468828	-57.564028	53.900	0.390	-0.510	-0.450	53.830	-2.000	0.300																			1580009549.0	7.62	14.11
26/01/2020 03:32:30	26012020	260120	033230	53.980	12.468853	-57.564003	53.930	0.260	-0.080	-0.900	53.980	-1.800	-0.400																			1580009550.0	7.69	14.24
26/01/2020 03:32:31	26012020	260120	033231	53.990	12.468878	-57.563978	53.880	0.020	0.440	-0.860	53.990	-1.200	-0.500																			1580009551.0	7.41	13.72
26/01/2020 03:32:32	26012020	260120	033232	53.940	12.468902	-57.563955	53.850	-0.170	0.570	-0.470	53.940	-0.900	-0.300																			1580009552.0	6.98	12.93
26/01/2020 03:32:33	26012020	260120	033233	53.900	12.468920	-57.563928	53.900	-0.240	0.160	-0.110	53.900	-1.000	0.100																			1580009553.0	6.96	12.89
26/01/2020 03:32:34	26012020	260120	033234	53.950	12.468938	-57.563898	54.050	-0.110	-0.600	0.060	53.950	-1.700	0.400																			1580009554.0	7.39	13.69
26/01/2020 03:32:35	26012020	260120	033235	54.110	12.468960	-57.563868	54.180	0.100	-1.070	0.250	54.110	-2.400	0.500																			1580009555.0	7.90	14.63
26/01/2020 03:32:36	26012020	260120	033236	54.220	12.468982	-57.563837	54.190	0.170	-0.750	0.520	54.220	-2.400	0.800																			1580009556.0	8.13	15.06
26/01/2020 03:32:37	26012020	260120	033237	54.210	12.469002	-57.563807	54.140	0.070	0.020	0.710	54.210	-1.800	1.000																			1580009557.0	7.60	14.08
26/01/2020 03:32:38	26012020	260120	033238	54.170	12.469020	-57.563780	54.170	-0.040	0.470	0.820	54.170	-1.100	1.200																			1580009558.0	6.82	12.63
26/01/2020 03:32:39	26012020	260120	033239	54.160	12.469038	-57.563755	54.100	-0.060	0.340	0.830	54.160	-1.000	1.200																			1580009559.0	6.71	12.43
26/01/2020 03:32:40	26012020	260120	033240	54.090	12.469058	-57.563727	54.030	-0.030	-0.070	0.620	54.090	-1.300	1.100																			1580009560.0	7.25	13.43
26/01/2020 03:32:41	26012020	260120	033241	54.040	12.469082	-57.563698	54.080	-0.020	-0.400	0.180	54.040	-1.700	0.800																			1580009561.0	7.72	14.30
26/01/2020 03:32:42	26012020	260120	033242	54.130	12.469105	-57.563672	54.250	-0.040	-0.420	-0.310	54.130	-1.900	0.300																			1580009562.0	7.80	14.45
26/01/2020 03:32:43	26012020	260120	033243	54.310	12.469128	-57.563645	54.370	-0.100	-0.230	-0.690	54.310	-1.800	-0.100																			1580009563.0	7.56	14.00
26/01/2020 03:32:44	26012020	260120	033244	54.420	12.469152	-57.563618	54.380	-0.140	-0.130	-0.750	54.420	-1.600	-0.400																			1580009564.0	7.24	13.41
26/01/2020 03:32:45	26012020	260120	033245	54.400	12.469172	-57.563593	54.340	-0.060	-0.220	-0.550	54.400	-1.600	-0.300																			1580009565.0	7.16	13.26
26/01/2020 03:32:46	26012020	260120	033246	54.360	12.469193	-57.563565	54.260	0.080	-0.230	-0.170	54.360	-1.700	0.000																			1580009566.0	7.41	13.72
26/01/2020 03:32:47	26012020	260120	033247	54.280	12.469213	-57.563535	54.220	0.140	-0.070	0.250	54.280	-1.600	0.400																			1580009567.0	7.54	13.96
26/01/2020 03:32:48	26012020	260120	033248	54.250	12.469232	-57.563507	54.300	0.090	0.010	0.560	54.250	-1.400	0.800																			1580009568.0	7.35	13.61
26/01/2020 03:32:49	26012020	260120	033249	54.330	12.469250	-57.563478	54.390	0.040	-0.170	0.660	54.330	-1.500	1.000																			1580009569.0	7.21	13.35
26/01/2020 03:32:50	26012020	260120	033250	54.420	12.469270	-57.563448	54.430	0.060	-0.360	0.620	54.420	-1.700	1.000																			1580009570.0	7.42	13.74
26/01/2020 03:32:51	26012020	260120	033251	54.430	12.469292	-57.563420	54.330	0.130	-0.350	0.640	54.430	-1.800	1.000																			1580009571.0	7.64	14.15
26/01/2020 03:32:52	26012020	260120	033252	54.330	12.469313	-57.563392	54.240	0.190	-0.260	0.650	54.330	-1.700	1.100																			1580009572.0	7.54	13.96
26/01/2020 03:32:53	26012020	260120	033253	54.250	12.469333	-57.563365	54.240	0.170	-0.160	0.480	54.250	-1.700	1.000																			1580009573.0	7.37	13.65
26/01/2020 03:32:54	26012020	260120	033254	54.300	12.469355	-57.563337	54.280	0.010	0.040	0.270	54.300	-1.500	0.800																			1580009574.0	7.42	13.74
26/01/2020 03:32:55	26012020	260120	033255	54.320	12.469377	-57.563310	54.230	-0.240	0.220	0.100	54.320	-1.300	0.600																			1580009575.0	7.39	13.69
26/01/2020 03:32:56	26012020	260120	033256	54.260	12.469397	-57.563283	54.270	-0.380	0.090	-0.170	54.260	-1.200	0.400																			1580009576.0	7.18	13.30
26/01/2020 03:32:57	26012020	260120	033257	54.310	12.469418	-57.563257	54.350	-0.280	-0.260	-0.360	54.310	-1.500	0.100																			1580009577.0	7.30	13.52
26/01/2020 03:32:58	26012020	260120	033258	54.400	12.469442	-57.563228	54.420	-0.040	-0.490	-0.450	54.400	-1.900	-0.000																			1580009578.0	7.63	14.13
26/01/2020 03:32:59	26012020	260120	033259	54.470	12.469463	-57.563200	54.450	0.170	-0.440	-0.410	54.470	-1.900	-0.100	1015.10	25.80	25.80	20.70	20.70	-1.00	73.00	73.00	390.00	25.20	2.00	8.40	57.00	4.60	15	3233.00	27.40	27.40	1580009579.0	7.71	14.28
26/01/2020 03:33:00	26012020	260120	033300	54.470	12.469485	-57.563172	54.320	0.220	-0.190	-0.040	54.470	-1.800	0.100																			1580009580.0	7.51	13.91
26/01/2020 03:33:01	26012020	260120	033301	54.290	12.469503	-57.563142	54.100	0.050	0.090	0.400	54.290	-1.500	0.600																			1580009581.0	7.27	13.46
26/01/2020 03:33:02	26012020	260120	033302	54.070	12.469522	-57.563115	53.990	-0.140	0.050	0.580	54.070	-1.300	0.900																			1580009582.0	7.12	13.19
26/01/2020 03:33:03	26012020	260120	033303	53.990	12.469542	-57.563087	54.030	-0.110	-0.270	0.600	53.990	-1.500	1.000																			1580009583.0	7.21	13.35
26/01/2020 03:33:04	26012020	260120	033304	54.040	12.469562	-57.563058	54.050	0.090	-0.530	0.630	54.040	-1.900	1.000																			1580009584.0	7.60	14.08
26/01/2020 03:33:05	26012020	260120	033305	54.050	12.469585	-57.563028	54.000	0.240	-0.430	0.620	54.050	-2.000	1.000																			1580009585.0	7.82	14.48
26/01/2020 03:33:06	26012020	260120	033306	53.990	12.469605	-57.562998	53.920	0.200	-0.120	0.570	53.990	-1.700	1.000																			1580009586.0	7.64	14.15
26/01/2020 03:33:07	26012020	260120	033307	53.920	12.469625	-57.562972	53.860	0.070	0.090	0.440	53.920	-1.400	0.900																			1580009587.0	7.27	13.46
26/01/2020 03:33:08	26012020	260120	033308	53.880	12.469647	-57.562945	53.870	-0.010	0.120	0.210	53.880	-1.300	0.700																			1580009588.0	7.20	13.33
26/01/2020 03:33:09	26012020	260120	033309	53.900	12.469668	-57.562918	53.890	-0.020	-0.010	0.010	53.900	-1.400	0.500																			1580009589.0	7.38	13.67
26/01/2020 03:33:10	26012020	260120	033310	53.920	12.469690	-57.562890	53.910	-0.020	-0.210	-0.120	53.920	-1.600	0.300																			1580009590.0	7.52	13.93
26/01/2020 03:33:11	26012020	260120	033311	53.940	12.469713	-57.562862	53.940	-0.060	-0.320	-0.150	53.940	-1.700	0.200																			1580009591.0	7.63	14.13
26/01/2020 03:33:12	26012020	260120	033312	53.960	12.469735	-57.562833	53.850	-0.150	-0.190	0.080	53.960	-1.700	0.300																			1580009592.0	7.61	14.09
26/01/2020 03:33:13	26012020	260120	033313	53.840	12.469755	-57.562805	53.650	-0.240	0.000	0.430	53.840	-1.500	0.700																			1580009593.0	7.42	13.74
26/01/2020 03:33:14	26012020	260120	033314	53.650	12.469773	-57.562777	53.590	-0.230	-0.050	0.560	53.650	-1.400	0.900																			1580009594.0	7.19	13.32
26/01/2020 03:33:15	26012020	260120	033315	53.630	12.469793	-57.562748	53.670	-0.110	-0.340	0.470	53.630	-1.600	0.900																			1580009595.0	7.26	13.45
26/01/2020 03:33:16	26012020	260120	033316	53.720	12.469813	-57.562720	53.790	0.040	-0.540	0.340	53.720	-1.900	0.800																			1580009596.0	7.60	14.08
26/01/2020 03:33:17	26012020	260120	033317	53.850	12.469837	-57.562692	53.830	0.110	-0.400	0.270	53.850	-1.900	0.700																			1580009597.0	7.77	14.39
26/01/2020 03:33:18	26012020	260120	033318	53.860	12.469857	-57.562662	53.670	0.120	-0.050	0.310	53.860	-1.600	0.700																			1580009598.0	7.56	14.00
26/01/2020 03:33:19	26012020	260120	033319	53.690	12.469878	-57.562635	53.530	0.160	0.110	0.260	53.690	-1.400	0.700																			1580009599.0	7.23	13.39
26/01/2020 03:33:20	26012020	260120	033320	53.570	12.469898	-57.562608	53.530	0.270	-0.070	0.060	53.570	-1.400	0.600																			1580009600.0	7.21	13.35
26/01/2020 03:33:21	26012020	260120	033321	53.600	12.469922	-57.562582	53.630	0.330	-0.320	-0.190	53.600	-1.600	0.300																			1580009601.0	7.53	13.95
26/01/2020 03:33:22	26012020	260120	033322	53.710	12.469945	-57.562553	53.690	0.210	-0.310	-0.290	53.710	-1.800	0.100																			1580009602.0	7.83	14.50
26/01/2020 03:33:23	26012020	260120	033323	53.740	12.469968	-57.562525	53.620	-0.090	-0.020	-0.110	53.740	-1.600	0.200																			1580009603.0	7.73	14.32
26/01/2020 03:33:24	26012020	260120	033324	53.650	12.469988	-57.562498	53.540	-0.380	0.200	0.250	53.650	-1.300	0.500																			1580009604.0	7.34	13.59
26/01/2020 03:33:25	26012020	260120	033325	53.570	12.470008	-57.562470	53.550	-0.480	0.080	0.560	53.570	-1.200	0.800																			1580009605.0	7.11	13.17
26/01/2020 03:33:26	26012020	260120	033326	53.590	12.470027	-57.562442	53.580	-0.360	-0.280	0.730	53.590	-1.500	1.100																			1580009606.0	7.33	13.58
26/01/2020 03:33:27	26012020	260120	033327	53.610	12.470047	-57.562412	53.560	-0.140	-0.500	0.800	53.610	-1.900	1.200																			1580009607.0	7.69	14.24
26/01/2020 03:33:28	26012020	260120	033328	53.560	12.470067	-57.562380	53.500	0.070	-0.500	0.830	53.560	-1.900	1.200																			1580009608.0	7.79	14.43
26/01/2020 03:33:29	26012020	260120	033329	53.530	12.470087	-57.562352	53.520	0.210	-0.350	0.650	53.530	-1.900	1.200																			1580009609.0	7.60	14.08
26/01/2020 03:33:30	26012020	260120	033330	53.550	12.470108	-57.562323	53.540	0.210	-0.070	0.230	53.550	-1.600	0.800																			1580009610.0	7.43	13.76
26/01/2020 03:33:31	26012020	260120	033331	53.580	12.470130	-57.562297	53.500	0.130	0.170	-0.190	53.580	-1.300	0.400																			1580009611.0	7.33	13.58
26/01/2020 03:33:32	26012020	260120	033332	53.520	12.470153	-57.562272	53.450	0.120	0.100	-0.410	53.520	-1.300	0.100																			1580009612.0	7.22	13.37
26/01/2020 03:33:33	26012020	260120	033333	53.480	12.470177	-57.562247	53.420	0.150	-0.160	-0.470	53.480	-1.500	-0.100																			1580009613.0	7.38	13.67
26/01/2020 03:33:34	26012020	260120	033334	53.450	12.470200	-57.562218	53.350	0.090	-0.360	-0.460	53.450	-1.700	-0.100																			1580009614.0	7.69	14.24
26/01/2020 03:33:35	26012020	260120	033335	53.390	12.470222	-57.562190	53.270	-0.040	-0.400	-0.340	53.390	-1.800	-0.000																			1580009615.0	7.73	14.32
26/01/2020 03:33:36	26012020	260120	033336	53.310	12.470243	-57.562162	53.300	-0.110	-0.310	-0.060	53.310	-1.800	0.200																			1580009616.0	7.58	14.04
26/01/2020 03:33:37	26012020	260120	033337	53.360	12.470263	-57.562133	53.430	-0.090	-0.210	0.260	53.360	-1.700	0.500																			1580009617.0	7.44	13.78
26/01/2020 03:33:38	26012020	260120	033338	53.500	12.470283	-57.562103	53.510	-0.080	-0.080	0.610	53.500	-1.600	0.800																			1580009618.0	7.46	13.82
26/01/2020 03:33:39	26012020	260120	033339	53.530	12.470303	-57.562073	53.390	-0.100	0.070	1.010	53.530	-1.400	1.200																			1580009619.0	7.49	13.87
26/01/2020 03:33:40	26012020	260120	033340	53.390	12.470322	-57.562045	53.300	-0.090	0.130	1.200	53.390	-1.300	1.500																			1580009620.0	7.39	13.69
26/01/2020 03:33:41	26012020	260120	033341	53.290	12.470340	-57.562015	53.320	-0.070	-0.010	1.010	53.290	-1.300	1.500																			1580009621.0	7.35	13.61
26/01/2020 03:33:42	26012020	260120	033342	53.330	12.470360	-57.561987	53.360	-0.080	-0.260	0.530	53.330	-1.600	1.200																			1580009622.0	7.45	13.80
26/01/2020 03:33:43	26012020	260120	033343	53.390	12.470383	-57.561960	53.380	-0.080	-0.450	0.010	53.390	-1.800	0.600																			1580009623.0	7.59	14.06
26/01/2020 03:33:44	26012020	260120	033344	53.420	12.470408	-57.561933	53.310	0.040	-0.420	-0.310	53.420	-1.900	0.200																			1580009624.0	7.68	14.22
26/01/2020 03:33:45	26012020	260120	033345	53.330	12.470432	-57.561907	53.170	0.190	-0.240	-0.440	53.330	-1.800	0.000																			1580009625.0	7.59	14.06
26/01/2020 03:33:46	26012020	260120	033346	53.200	12.470455	-57.561880	53.090	0.230	-0.110	-0.440	53.200	-1.600	-0.100																			1580009626.0	7.43	13.76
26/01/2020 03:33:47	26012020	260120	033347	53.140	12.470477	-57.561853	53.110	0.170	-0.160	-0.370	53.140	-1.500	-0.000																			1580009627.0	7.35	13.61
26/01/2020 03:33:48	26012020	260120	033348	53.180	12.470497	-57.561825	53.180	0.110	-0.280	-0.210	53.180	-1.600	0.100																			1580009628.0	7.48	13.85
26/01/2020 03:33:49	26012020	260120	033349	53.260	12.470518	-57.561797	53.210	0.020	-0.200	0.010	53.260	-1.700	0.300																			1580009629.0	7.67	14.20
26/01/2020 03:33:50	26012020	260120	033350	53.270	12.470540	-57.561767	53.210	-0.120	0.060	0.290	53.270	-1.500	0.500																			1580009630.0	7.63	14.13
26/01/2020 03:33:51	26012020	260120	033351	53.260	12.470560	-57.561738	53.240	-0.240	0.220	0.540	53.260	-1.200	0.800																			1580009631.0	7.35	13.61
26/01/2020 03:33:52	26012020	260120	033352	53.280	12.470578	-57.561712	53.290	-0.220	0.040	0.730	53.280	-1.300	1.000																			1580009632.0	7.20	13.33
26/01/2020 03:33:53	26012020	260120	033353	53.330	12.470598	-57.561683	53.310	-0.090	-0.290	0.870	53.330	-1.600	1.200																			1580009633.0	7.40	13.70
26/01/2020 03:33:54	26012020	260120	033354	53.340	12.470620	-57.561653	53.190	-0.030	-0.360	0.930	53.340	-1.800	1.300																			1580009634.0	7.75	14.35
26/01/2020 03:33:55	26012020	260120	033355	53.200	12.470640	-57.561623	52.970	-0.050	-0.270	0.930	53.200	-1.700	1.300																			1580009635.0	7.68	14.22
26/01/2020 03:33:56	26012020	260120	033356	52.980	12.470660	-57.561595	52.830	0.020	-0.330	0.700	52.980	-1.700	1.200																			1580009636.0	7.33	13.58
26/01/2020 03:33:57	26012020	260120	033357	52.880	12.470682	-57.561568	52.820	0.190	-0.530	0.260	52.880	-1.900	0.900																			1580009637.0	7.37	13.65
26/01/2020 03:33:58	26012020	260120	033358	52.890	12.470707	-57.561540	52.790	0.300	-0.490	-0.210	52.890	-2.000	0.400																			1580009638.0	7.72	14.30
26/01/2020 03:33:59	26012020	260120	033359	52.860	12.470732	-57.561513	52.720	0.200	-0.010	-0.460	52.860	-1.700	0.000	1015.10	25.70	25.80	20.50	20.50	-1.00	72.00	72.00	390.00	25.20	4.00	9.00	61.00	5.10	15	3344.00	27.40	27.40	1580009639.0	7.85	14.54
26/01/2020 03:34:00	26012020	260120	033400	52.790	12.470755	-57.561488	52.740	-0.040	0.510	-0.530	52.790	-1.100	-0.100																			1580009640.0	7.43	13.76
26/01/2020 03:34:01	26012020	260120	033401	52.830	12.470775	-57.561463	52.870	-0.220	0.460	-0.500	52.830	-0.900	-0.200																			1580009641.0	6.93	12.83
26/01/2020 03:34:02	26012020	260120	033402	52.970	12.470795	-57.561437	52.910	-0.240	-0.060	-0.290	52.970	-1.200	-0.000																			1580009642.0	7.12	13.19
26/01/2020 03:34:03	26012020	260120	033403	52.970	12.470817	-57.561407	52.750	-0.150	-0.540	0.040	52.970	-1.800	0.200																			1580009643.0	7.73	14.32
26/01/2020 03:34:04	26012020	260120	033404	52.770	12.470838	-57.561377	52.560	0.010	-0.720	0.500	52.770	-2.100	0.700																			1580009644.0	7.97	14.76
26/01/2020 03:34:05	26012020	260120	033405	52.580	12.470860	-57.561347	52.530	0.140	-0.630	0.870	52.580	-2.100	1.100																			1580009645.0	7.76	14.37
26/01/2020 03:34:06	26012020	260120	033406	52.580	12.470880	-57.561317	52.590	0.110	-0.250	0.990	52.580	-1.900	1.300																			1580009646.0	7.56	14.00
26/01/2020 03:34:07	26012020	260120	033407	52.650	12.470898	-57.561288	52.560	-0.060	0.280	0.970	52.650	-1.400	1.400																			1580009647.0	7.34	13.59
26/01/2020 03:34:08	26012020	260120	033408	52.580	12.470918	-57.561262	52.380	-0.170	0.460	0.910	52.580	-1.000	1.300																			1580009648.0	7.01	12.98
26/01/2020 03:34:09	26012020	260120	033409	52.390	12.470938	-57.561235	52.200	-0.090	0.090	0.670	52.390	-1.100	1.200																			1580009649.0	7.02	13.00
26/01/2020 03:34:10	26012020	260120	033410	52.250	12.470962	-57.561208	52.210	0.110	-0.520	0.240	52.250	-1.700	0.800																			1580009650.0	7.52	13.93
26/01/2020 03:34:11	26012020	260120	033411	52.320	12.470987	-57.561180	52.420	0.260	-0.820	-0.240	52.320	-2.200	0.400																			1580009651.0	8.01	14.83
26/01/2020 03:34:12	26012020	260120	033412	52.540	12.471012	-57.561152	52.560	0.210	-0.450	-0.480	52.540	-2.100	-0.000																			1580009652.0	8.08	14.96
26/01/2020 03:34:13	26012020	260120	033413	52.620	12.471035	-57.561125	52.470	0.000	0.200	-0.330	52.620	-1.500	-0.100																			1580009653.0	7.56	14.00
26/01/2020 03:34:14	26012020	260120	033414	52.500	12.471055	-57.561100	52.320	-0.180	0.430	-0.060	52.500	-1.000	0.200																			1580009654.0	6.91	12.80
26/01/2020 03:34:15	26012020	260120	033415	52.380	12.471075	-57.561075	52.340	-0.140	0.030	0.060	52.380	-1.200	0.400																			1580009655.0	6.90	12.78
26/01/2020 03:34:16	26012020	260120	033416	52.410	12.471097	-57.561047	52.370	0.070	-0.470	0.200	52.410	-1.700	0.500																			1580009656.0	7.51	13.91
26/01/2020 03:34:17	26012020	260120	033417	52.420	12.471118	-57.561017	52.340	0.210	-0.570	0.500	52.420	-2.000	0.700																			1580009657.0	7.99	14.80
26/01/2020 03:34:18	26012020	260120	033418	52.370	12.471142	-57.560987	52.300	0.100	-0.330	0.820	52.370	-1.900	1.100																			1580009658.0	7.84	14.52
26/01/2020 03:34:19	26012020	260120	033419	52.340	12.471162	-57.560958	52.320	-0.150	-0.070	0.950	52.340	-1.600	1.300																			1580009659.0	7.39	13.69
26/01/2020 03:34:20	26012020	260120	033420	52.380	12.471182	-57.560932	52.410	-0.330	0.040	0.890	52.380	-1.400	1.300																			1580009660.0	7.19	13.32
26/01/2020 03:34:21	26012020	260120	033421	52.500	12.471202	-57.560903	52.590	-0.340	0.040	0.640	52.500	-1.400	1.200																			1580009661.0	7.31	13.54
26/01/2020 03:34:22	26012020	260120	033422	52.700	12.471223	-57.560877	52.750	-0.150	-0.100	0.350	52.700	-1.400	0.900																			1580009662.0	7.42	13.74
26/01/2020 03:34:23	26012020	260120	033423	52.840	12.471245	-57.560848	52.740	0.130	-0.230	0.170	52.840	-1.600	0.600																			1580009663.0	7.53	13.95
26/01/2020 03:34:24	26012020	260120	033424	52.800	12.471268	-57.560820	52.520	0.300	-0.200	0.060	52.800	-1.700	0.500																			1580009664.0	7.63	14.13
26/01/2020 03:34:25	26012020	260120	033425	52.550	12.471290	-57.560793	52.310	0.270	-0.170	-0.100	52.550	-1.600	0.400																			1580009665.0	7.53	13.95
26/01/2020 03:34:26	26012020	260120	033426	52.370	12.471313	-57.560767	52.330	0.190	-0.330	-0.400	52.370	-1.700	0.100																			1580009666.0	7.36	13.63
26/01/2020 03:34:27	26012020	260120	033427	52.420	12.471337	-57.560742	52.420	0.160	-0.430	-0.640	52.420	-1.800	-0.200																			1580009667.0	7.53	13.95
26/01/2020 03:34:28	26012020	260120	033428	52.520	12.471362	-57.560715	52.520	0.090	-0.260	-0.570	52.520	-1.800	-0.300																			1580009668.0	7.74	14.33
26/01/2020 03:34:29	26012020	260120	033429	52.600	12.471385	-57.560688	52.600	-0.060	-0.010	-0.140	52.600	-1.500	0.000																			1580009669.0	7.55	13.98
26/01/2020 03:34:30	26012020	260120	033430	52.660	12.471405	-57.560660	52.620	-0.240	0.130	0.470	52.660	-1.300	0.600																			1580009670.0	7.30	13.52
26/01/2020 03:34:31	26012020	260120	033431	52.660	12.471423	-57.560630	52.590	-0.290	0.090	0.970	52.660	-1.300	1.100																			1580009671.0	7.33	13.58
26/01/2020 03:34:32	26012020	260120	033432	52.610	12.471442	-57.560602	52.600	-0.120	-0.150	1.210	52.610	-1.400	1.500																			1580009672.0	7.43	13.76
26/01/2020 03:34:33	26012020	260120	033433	52.640	12.471463	-57.560572	52.710	0.110	-0.420	1.240	52.640	-1.700	1.600																			1580009673.0	7.60	14.08
26/01/2020 03:34:34	26012020	260120	033434	52.770	12.471483	-57.560542	52.870	0.180	-0.440	1.020	52.770	-1.900	1.500																			1580009674.0	7.77	14.39
26/01/2020 03:34:35	26012020	260120	033435	52.950	12.471507	-57.560513	53.010	0.010	-0.140	0.620	52.950	-1.700	1.200																			1580009675.0	7.67	14.20
26/01/2020 03:34:36	26012020	260120	033436	53.090	12.471528	-57.560487	53.040	-0.190	0.190	0.320	53.090	-1.400	0.800																			1580009676.0	7.33	13.58
26/01/2020 03:34:37	26012020	260120	033437	53.090	12.471550	-57.560462	52.920	-0.190	0.130	0.030	53.090	-1.200	0.600																			1580009677.0	7.05	13.06
26/01/2020 03:34:38	26012020	260120	033438	52.970	12.471573	-57.560437	52.790	0.040	-0.330	-0.310	52.970	-1.500	0.300																			1580009678.0	7.23	13.39
26/01/2020 03:34:39	26012020	260120	033439	52.870	12.471597	-57.560410	52.800	0.290	-0.750	-0.590	52.870	-2.000	-0.100																			1580009679.0	7.75	14.35
26/01/2020 03:34:40	26012020	260120	033440	52.900	12.471622	-57.560382	52.890	0.300	-0.660	-0.680	52.900	-2.200	-0.300																			1580009680.0	8.08	14.96
26/01/2020 03:34:41	26012020	260120	033441	52.990	12.471645	-57.560353	53.000	0.030	-0.030	-0.610	52.990	-1.800	-0.300																			1580009681.0	7.86	14.56
26/01/2020 03:34:42	26012020	260120	033442	53.100	12.471667	-57.560327	53.120	-0.250	0.520	-0.380	53.100	-1.100	-0.100																			1580009682.0	7.18	13.30
26/01/2020 03:34:43	26012020	260120	033443	53.210	12.471685	-57.560302	53.210	-0.280	0.450	0.020	53.210	-0.900	0.200																			1580009683.0	6.75	12.50
26/01/2020 03:34:44	26012020	260120	033444	53.270	12.471705	-57.560273	53.220	-0.110	-0.040	0.390	53.270	-1.200	0.600																			1580009684.0	7.15	13.24
26/01/2020 03:34:45	26012020	260120	033445	53.270	12.471725	-57.560243	53.220	0.080	-0.530	0.620	53.270	-1.700	0.900																			1580009685.0	7.77	14.39
26/01/2020 03:34:46	26012020	260120	033446	53.260	12.471747	-57.560213	53.250	0.260	-0.780	0.850	53.260	-2.100	1.100																			1580009686.0	7.91	14.65
26/01/2020 03:34:47	26012020	260120	033447	53.280	12.471768	-57.560183	53.230	0.380	-0.650	0.980	53.280	-2.200	1.300																			1580009687.0	7.82	14.48
26/01/2020 03:34:48	26012020	260120	033448	53.260	12.471790	-57.560155	53.230	0.310	-0.200	0.840	53.260	-1.900	1.300																			1580009688.0	7.60	14.08
26/01/2020 03:34:49	26012020	260120	033449	53.260	12.471812	-57.560128	53.220	0.060	0.300	0.680	53.260	-1.300	1.100																			1580009689.0	7.29	13.50
26/01/2020 03:34:50	26012020	260120	033450	53.250	12.471833	-57.560103	53.190	-0.240	0.470	0.580	53.250	-1.000	1.000																			1580009690.0	7.05	13.06
26/01/2020 03:34:51	26012020	260120	033451	53.250	12.471853	-57.560077	53.290	-0.440	0.250	0.310	53.250	-1.000	0.900																			1580009691.0	7.09	13.13
26/01/2020 03:34:52	26012020	260120	033452	53.370	12.471875	-57.560048	53.410	-0.480	-0.130	-0.060	53.370	-1.400	0.500																			1580009692.0	7.43	13.76
26/01/2020 03:34:53	26012020	260120	033453	53.460	12.471897	-57.560022	53.410	-0.330	-0.490	-0.280	53.460	-1.800	0.200																			1580009693.0	7.62	14.11
26/01/2020 03:34:54	26012020	260120	033454	53.440	12.471920	-57.559993	53.350	-0.050	-0.700	-0.360	53.440	-2.000	0.100																			1580009694.0	7.70	14.26
26/01/2020 03:34:55	26012020	260120	033455	53.390	12.471942	-57.559965	53.330	0.240	-0.680	-0.400	53.390	-2.100	0.000																			1580009695.0	7.65	14.17
26/01/2020 03:34:56	26012020	260120	033456	53.380	12.471963	-57.559937	53.370	0.410	-0.410	-0.390	53.380	-2.000	-0.000																			1580009696.0	7.57	14.02
26/01/2020 03:34:57	26012020	260120	033457	53.410	12.471987	-57.559910	53.420	0.400	-0.050	-0.270	53.410	-1.600	0.000																			1580009697.0	7.41	13.72
26/01/2020 03:34:58	26012020	260120	033458	53.440	12.472007	-57.559882	53.460	0.200	0.240	-0.070	53.440	-1.300	0.200																			1580009698.0	7.28	13.48
26/01/2020 03:34:59	26012020	260120	033459	53.500	12.472028	-57.559855	53.520	-0.030	0.330	0.190	53.500	-1.100	0.400	1015.10	25.80	25.80	20.20	20.30	-1.00	71.00	71.00	390.00	25.20	6.00	9.10	63.00	5.30	15	3357.00	27.40	27.40	1580009699.0	7.26	13.45
26/01/2020 03:35:00	26012020	260120	033500	53.530	12.472048	-57.559828	53.480	-0.110	0.120	0.570	53.530	-1.200	0.800																			1580009700.0	7.31	13.54
26/01/2020 03:35:01	26012020	260120	033501	53.470	12.472068	-57.559798	53.450	-0.010	-0.300	0.850	53.470	-1.500	1.100																			1580009701.0	7.48	13.85
26/01/2020 03:35:02	26012020	260120	033502	53.460	12.472090	-57.559768	53.480	0.110	-0.650	0.930	53.460	-1.900	1.300																			1580009702.0	7.77	14.39
26/01/2020 03:35:03	26012020	260120	033503	53.490	12.472112	-57.559738	53.520	0.100	-0.570	0.880	53.490	-2.100	1.300																			1580009703.0	7.91	14.65
26/01/2020 03:35:04	26012020	260120	033504	53.560	12.472132	-57.559710	53.620	-0.090	-0.080	0.770	53.560	-1.700	1.200																			1580009704.0	7.69	14.24
26/01/2020 03:35:05	26012020	260120	033505	53.660	12.472153	-57.559683	53.710	-0.320	0.370	0.510	53.660	-1.200	1.000																			1580009705.0	7.17	13.28
26/01/2020 03:35:06	26012020	260120	033506	53.760	12.472173	-57.559657	53.760	-0.450	0.430	0.170	53.760	-1.000	0.700																			1580009706.0	6.89	12.76
26/01/2020 03:35:07	26012020	260120	033507	53.790	12.472193	-57.559632	53.730	-0.350	0.010	-0.080	53.790	-1.200	0.400																			1580009707.0	7.06	13.08
26/01/2020 03:35:08	26012020	260120	033508	53.730	12.472217	-57.559603	53.590	-0.050	-0.610	-0.200	53.730	-1.700	0.200																			1580009708.0	7.52	13.93
26/01/2020 03:35:09	26012020	260120	033509	53.580	12.472240	-57.559575	53.410	0.310	-0.930	-0.250	53.580	-2.300	0.200																			1580009709.0	7.93	14.69
26/01/2020 03:35:10	26012020	260120	033510	53.400	12.472263	-57.559545	53.310	0.480	-0.700	-0.240	53.400	-2.300	0.100																			1580009710.0	8.00	14.82
26/01/2020 03:35:11	26012020	260120	033511	53.330	12.472285	-57.559517	53.380	0.410	-0.290	-0.210	53.330	-1.900	0.200																			1580009711.0	7.57	14.02
26/01/2020 03:35:12	26012020	260120	033512	53.440	12.472305	-57.559490	53.590	0.170	0.070	-0.220	53.440	-1.500	0.200																			1580009712.0	7.20	13.33
26/01/2020 03:35:13	26012020	260120	033513	53.650	12.472327	-57.559463	53.720	-0.100	0.390	-0.100	53.650	-1.200	0.200																			1580009713.0	7.23	13.39
26/01/2020 03:35:14	26012020	260120	033514	53.730	12.472347	-57.559437	53.680	-0.260	0.550	0.250	53.730	-0.900	0.500																			1580009714.0	7.27	13.46
26/01/2020 03:35:15	26012020	260120	033515	53.670	12.472367	-57.559410	53.630	-0.190	0.210	0.600	53.670	-1.000	0.800																			1580009715.0	7.18	13.30
26/01/2020 03:35:16	26012020	260120	033516	53.620	12.472387	-57.559382	53.660	0.070	-0.490	0.790	53.620	-1.600	1.100																			1580009716.0	7.40	13.70
26/01/2020 03:35:17	26012020	260120	033517	53.640	12.472408	-57.559350	53.670	0.240	-0.900	0.870	53.640	-2.200	1.200																			1580009717.0	7.96	14.74
26/01/2020 03:35:18	26012020	260120	033518	53.640	12.472430	-57.559318	53.600	0.110	-0.550	0.860	53.640	-2.200	1.300																			1580009718.0	8.13	15.06
26/01/2020 03:35:19	26012020	260120	033519	53.560	12.472452	-57.559290	53.500	-0.190	0.130	0.770	53.560	-1.600	1.200																			1580009719.0	7.53	13.95
26/01/2020 03:35:20	26012020	260120	033520	53.490	12.472470	-57.559265	53.490	-0.280	0.310	0.510	53.490	-1.100	1.000																			1580009720.0	6.74	12.48
26/01/2020 03:35:21	26012020	260120	033521	53.510	12.472490	-57.559240	53.480	-0.050	-0.120	0.150	53.510	-1.300	0.700																			1580009721.0	6.80	12.59
26/01/2020 03:35:22	26012020	260120	033522	53.490	12.472513	-57.559213	53.360	0.170	-0.460	-0.160	53.490	-1.800	0.400																			1580009722.0	7.62	14.11
26/01/2020 03:35:23	26012020	260120	033523	53.400	12.472538	-57.559183	53.320	0.150	-0.380	-0.360	53.400	-1.900	0.100																			1580009723.0	8.02	14.85
26/01/2020 03:35:24	26012020	260120	033524	53.400	12.472560	-57.559157	53.460	-0.040	-0.120	-0.500	53.400	-1.700	-0.000																			1580009724.0	7.63	14.13
26/01/2020 03:35:25	26012020	260120	033525	53.550	12.472582	-57.559130	53.620	-0.190	0.040	-0.580	53.550	-1.400	-0.200																			1580009725.0	7.23	13.39
26/01/2020 03:35:26	26012020	260120	033526	53.680	12.472603	-57.559103	53.560	-0.150	-0.020	-0.440	53.680	-1.400	-0.200																			1580009726.0	7.16	13.26
26/01/2020 03:35:27	26012020	260120	033527	53.580	12.472625	-57.559077	53.330	0.050	-0.190	0.030	53.580	-1.500	0.200																			1580009727.0	7.38	13.67
26/01/2020 03:35:28	26012020	260120	033528	53.320	12.472645	-57.559047	53.200	0.250	-0.280	0.590	53.320	-1.700	0.700																			1580009728.0	7.60	14.08
26/01/2020 03:35:29	26012020	260120	033529	53.220	12.472665	-57.559017	53.280	0.330	-0.330	0.900	53.220	-1.700	1.200																			1580009729.0	7.63	14.13
26/01/2020 03:35:30	26012020	260120	033530	53.330	12.472685	-57.558988	53.440	0.240	-0.270	0.920	53.330	-1.700	1.300																			1580009730.0	7.52	13.93
26/01/2020 03:35:31	26012020	260120	033531	53.490	12.472705	-57.558958	53.510	0.010	-0.010	0.810	53.490	-1.600	1.200																			1580009731.0	7.47	13.83
26/01/2020 03:35:32	26012020	260120	033532	53.540	12.472725	-57.558932	53.430	-0.230	0.230	0.740	53.540	-1.300	1.200																			1580009732.0	7.30	13.52
26/01/2020 03:35:33	26012020	260120	033533	53.430	12.472747	-57.558905	53.330	-0.270	0.080	0.580	53.430	-1.200	1.100																			1580009733.0	7.08	13.11
26/01/2020 03:35:34	26012020	260120	033534	53.370	12.472768	-57.558880	53.410	-0.050	-0.420	0.200	53.370	-1.600	0.800																			1580009734.0	7.26	13.45
26/01/2020 03:35:35	26012020	260120	033535	53.480	12.472792	-57.558852	53.460	0.170	-0.620	-0.100	53.480	-2.000	0.400																			1580009735.0	7.78	14.41
26/01/2020 03:35:36	26012020	260120	033536	53.500	12.472817	-57.558823	53.360	0.120	-0.240	-0.130	53.500	-1.900	0.200																			1580009736.0	7.96	14.74
26/01/2020 03:35:37	26012020	260120	033537	53.360	12.472838	-57.558797	53.200	-0.120	0.110	-0.010	53.360	-1.400	0.300																			1580009737.0	7.38	13.67
26/01/2020 03:35:38	26012020	260120	033538	53.220	12.472857	-57.558770	53.220	-0.230	-0.060	0.000	53.220	-1.300	0.400																			1580009738.0	6.90	12.78
26/01/2020 03:35:39	26012020	260120	033539	53.280	12.472877	-57.558743	53.410	-0.110	-0.410	-0.080	53.280	-1.700	0.300																			1580009739.0	7.26	13.45
26/01/2020 03:35:40	26012020	260120	033540	53.480	12.472900	-57.558713	53.490	0.050	-0.440	-0.110	53.480	-1.900	0.300																			1580009740.0	7.81	14.46
26/01/2020 03:35:41	26012020	260120	033541	53.540	12.472922	-57.558683	53.420	0.090	-0.150	-0.000	53.540	-1.700	0.300																			1580009741.0	7.77	14.39
26/01/2020 03:35:42	26012020	260120	033542	53.440	12.472942	-57.558657	53.330	0.080	0.090	0.180	53.440	-1.400	0.500																			1580009742.0	7.34	13.59
26/01/2020 03:35:43	26012020	260120	033543	53.360	12.472962	-57.558628	53.330	0.140	0.080	0.280	53.360	-1.300	0.600																			1580009743.0	7.16	13.26
26/01/2020 03:35:44	26012020	260120	033544	53.360	12.472983	-57.558602	53.360	0.200	-0.000	0.240	53.360	-1.400	0.700																			1580009744.0	7.34	13.59
26/01/2020 03:35:45	26012020	260120	033545	53.380	12.473005	-57.558575	53.300	0.120	0.030	0.310	53.380	-1.400	0.600																			1580009745.0	7.56	14.00
26/01/2020 03:35:46	26012020	260120	033546	53.310	12.473027	-57.558547	53.190	-0.040	-0.090	0.510	53.310	-1.400	0.800																			1580009746.0	7.41	13.72
26/01/2020 03:35:47	26012020	260120	033547	53.200	12.473048	-57.558520	53.190	-0.070	-0.480	0.590	53.200	-1.700	1.000																			1580009747.0	7.29	13.50
26/01/2020 03:35:48	26012020	260120	033548	53.230	12.473070	-57.558492	53.300	0.060	-0.870	0.520	53.230	-2.100	0.900																			1580009748.0	7.57	14.02
26/01/2020 03:35:49	26012020	260120	033549	53.360	12.473092	-57.558462	53.420	0.150	-0.740	0.490	53.360	-2.300	0.900																			1580009749.0	7.90	14.63
26/01/2020 03:35:50	26012020	260120	033550	53.440	12.473113	-57.558432	53.370	-0.000	0.000	0.520	53.440	-1.800	0.900																			1580009750.0	7.80	14.45
26/01/2020 03:35:51	26012020	260120	033551	53.370	12.473133	-57.558405	53.280	-0.270	0.660	0.460	53.370	-1.000	0.900																			1580009751.0	7.14	13.22
26/01/2020 03:35:52	26012020	260120	033552	53.290	12.473152	-57.558380	53.310	-0.330	0.550	0.190	53.290	-0.700	0.700																			1580009752.0	6.65	12.32
26/01/2020 03:35:53	26012020	260120	033553	53.340	12.473173	-57.558355	53.390	-0.080	-0.140	-0.130	53.340	-1.200	0.400																			1580009753.0	7.07	13.09
26/01/2020 03:35:54	26012020	260120	033554	53.420	12.473197	-57.558327	53.390	0.220	-0.660	-0.330	53.420	-1.900	0.100																			1580009754.0	7.89	14.61
26/01/2020 03:35:55	26012020	260120	033555	53.420	12.473222	-57.558297	53.360	0.270	-0.600	-0.370	53.420	-2.100	0.000																			1580009755.0	8.16	15.11
26/01/2020 03:35:56	26012020	260120	033556	53.390	12.473245	-57.558268	53.350	0.060	-0.190	-0.190	53.390	-1.800	0.100																			1580009756.0	7.71	14.28
26/01/2020 03:35:57	26012020	260120	033557	53.380	12.473265	-57.558242	53.390	-0.180	0.080	0.020	53.390	-1.400	0.300																			1580009757.0	7.11	13.17
26/01/2020 03:35:58	26012020	260120	033558	53.440	12.473285	-57.558217	53.450	-0.210	0.010	0.140	53.440	-1.300	0.500																			1580009758.0	6.98	12.93
26/01/2020 03:35:59	26012020	260120	033559	53.490	12.473305	-57.558188	53.420	-0.080	-0.150	0.290	53.490	-1.500	0.600	1015.10	25.80	25.90	20.30	20.40	-1.00	71.00	71.00	389.00	25.20	7.00	9.10	65.00	5.30	15	3350.00	27.40	27.40	1580009759.0	7.30	13.52
26/01/2020 03:36:00	26012020	260120	033600	53.450	12.473327	-57.558160	53.390	0.080	-0.220	0.500	53.450	-1.600	0.800																			1580009760.0	7.60	14.08
26/01/2020 03:36:01	26012020	260120	033601	53.420	12.473347	-57.558132	53.440	0.210	-0.340	0.650	53.420	-1.700	1.000																			1580009761.0	7.54	13.96
26/01/2020 03:36:02	26012020	260120	033602	53.480	12.473368	-57.558102	53.540	0.280	-0.470	0.630	53.480	-1.800	1.000																			1580009762.0	7.49	13.87
26/01/2020 03:36:03	26012020	260120	033603	53.580	12.473390	-57.558073	53.590	0.180	-0.300	0.490	53.580	-1.800	0.900																			1580009763.0	7.66	14.19
26/01/2020 03:36:04	26012020	260120	033604	53.620	12.473412	-57.558047	53.600	-0.060	0.130	0.350	53.620	-1.500	0.800																			1580009764.0	7.58	14.04
26/01/2020 03:36:05	26012020	260120	033605	53.640	12.473433	-57.558020	53.680	-0.280	0.370	0.250	53.640	-1.100	0.700																			1580009765.0	7.17	13.28
26/01/2020 03:36:06	26012020	260120	033606	53.720	12.473453	-57.557995	53.790	-0.320	0.120	0.140	53.720	-1.100	0.600																			1580009766.0	6.99	12.95
26/01/2020 03:36:07	26012020	260120	033607	53.830	12.473475	-57.557967	53.830	-0.220	-0.300	0.040	53.830	-1.500	0.500																			1580009767.0	7.36	13.63
26/01/2020 03:36:08	26012020	260120	033608	53.850	12.473497	-57.557938	53.720	-0.110	-0.550	0.050	53.850	-1.900	0.400																			1580009768.0	7.78	14.41
26/01/2020 03:36:09	26012020	260120	033609	53.690	12.473518	-57.557908	53.520	0.060	-0.640	0.090	53.690	-2.000	0.500																			1580009769.0	7.74	14.33
26/01/2020 03:36:10	26012020	260120	033610	53.510	12.473540	-57.557880	53.500	0.290	-0.590	0.050	53.510	-2.000	0.500																			1580009770.0	7.58	14.04
26/01/2020 03:36:11	26012020	260120	033611	53.510	12.473562	-57.557852	53.600	0.370	-0.190	-0.130	53.510	-1.800	0.400																			1580009771.0	7.59	14.06
26/01/2020 03:36:12	26012020	260120	033612	53.650	12.473583	-57.557825	53.770	0.120	0.430	-0.310	53.650	-1.300	0.200																			1580009772.0	7.46	13.82
26/01/2020 03:36:13	26012020	260120	033613	53.810	12.473605	-57.557800	53.880	-0.310	0.820	-0.360	53.810	-0.700	0.000																			1580009773.0	7.04	13.04
26/01/2020 03:36:14	26012020	260120	033614	53.920	12.473627	-57.557775	53.920	-0.580	0.560	-0.190	53.920	-0.600	0.100																			1580009774.0	6.82	12.63
26/01/2020 03:36:15	26012020	260120	033615	53.940	12.473647	-57.557748	53.880	-0.390	-0.360	0.110	53.940	-1.300	0.400																			1580009775.0	7.09	13.13
26/01/2020 03:36:16	26012020	260120	033616	53.890	12.473667	-57.557718	53.780	0.160	-1.300	0.430	53.890	-2.300	0.700																			1580009776.0	7.77	14.39
26/01/2020 03:36:17	26012020	260120	033617	53.770	12.473690	-57.557687	53.630	0.600	-1.420	0.810	53.770	-2.900	1.000																			1580009777.0	8.34	15.45
26/01/2020 03:36:18	26012020	260120	033618	53.610	12.473710	-57.557655	53.490	0.570	-0.630	1.050	53.610	-2.500	1.400																			1580009778.0	8.13	15.06
26/01/2020 03:36:19	26012020	260120	033619	53.490	12.473730	-57.557627	53.470	0.200	0.330	0.970	53.490	-1.500	1.400																			1580009779.0	7.22	13.37
26/01/2020 03:36:20	26012020	260120	033620	53.490	12.473748	-57.557602	53.560	-0.110	0.690	0.610	53.490	-0.800	1.200																			1580009780.0	6.57	12.17
26/01/2020 03:36:21	26012020	260120	033621	53.610	12.473768	-57.557577	53.700	-0.210	0.430	0.090	53.610	-0.800	0.700																			1580009781.0	6.81	12.61
26/01/2020 03:36:22	26012020	260120	033622	53.750	12.473793	-57.557550	53.760	-0.250	0.070	-0.400	53.750	-1.200	0.200																			1580009782.0	7.60	14.08
26/01/2020 03:36:23	26012020	260120	033623	53.790	12.473818	-57.557523	53.710	-0.310	-0.080	-0.520	53.790	-1.400	-0.100																			1580009783.0	7.93	14.69
26/01/2020 03:36:24	26012020	260120	033624	53.740	12.473842	-57.557497	53.700	-0.340	-0.110	-0.400	53.740	-1.500	-0.100																			1580009784.0	7.65	14.17
26/01/2020 03:36:25	26012020	260120	033625	53.760	12.473862	-57.557468	53.810	-0.240	-0.310	-0.290	53.760	-1.600	0.000																			1580009785.0	7.26	13.45
26/01/2020 03:36:26	26012020	260120	033626	53.860	12.473882	-57.557440	53.840	0.000	-0.700	-0.050	53.860	-1.900	0.200																			1580009786.0	7.22	13.37
26/01/2020 03:36:27	26012020	260120	033627	53.840	12.473902	-57.557412	53.670	0.220	-0.810	0.330	53.840	-2.200	0.500																			1580009787.0	7.59	14.06
26/01/2020 03:36:28	26012020	260120	033628	53.640	12.473922	-57.557380	53.470	0.270	-0.410	0.620	53.640	-2.100	0.900																			1580009788.0	7.75	14.35
26/01/2020 03:36:29	26012020	260120	033629	53.450	12.473942	-57.557352	53.430	0.200	0.100	0.690	53.450	-1.500	1.100																			1580009789.0	7.34	13.59
26/01/2020 03:36:30	26012020	260120	033630	53.440	12.473962	-57.557327	53.520	0.170	0.200	0.570	53.440	-1.200	1.000																			1580009790.0	6.95	12.87
26/01/2020 03:36:31	26012020	260120	033631	53.560	12.473983	-57.557300	53.630	0.200	-0.040	0.330	53.560	-1.300	0.800																			1580009791.0	7.14	13.22
26/01/2020 03:36:32	26012020	260120	033632	53.680	12.474005	-57.557273	53.680	0.190	-0.180	0.150	53.680	-1.600	0.600																			1580009792.0	7.65	14.17
26/01/2020 03:36:33	26012020	260120	033633	53.710	12.474028	-57.557245	53.680	0.060	-0.140	0.130	53.710	-1.600	0.500																			1580009793.0	7.79	14.43
26/01/2020 03:36:34	26012020	260120	033634	53.700	12.474050	-57.557217	53.700	-0.080	-0.120	0.130	53.700	-1.500	0.500																			1580009794.0	7.49	13.87
26/01/2020 03:36:35	26012020	260120	033635	53.740	12.474072	-57.557188	53.730	-0.180	-0.080	0.100	53.740	-1.500	0.500																			1580009795.0	7.35	13.61
26/01/2020 03:36:36	26012020	260120	033636	53.760	12.474092	-57.557162	53.630	-0.260	0.070	0.150	53.760	-1.400	0.500																			1580009796.0	7.40	13.70
26/01/2020 03:36:37	26012020	260120	033637	53.660	12.474112	-57.557133	53.560	-0.300	0.080	0.190	53.660	-1.300	0.600																			1580009797.0	7.25	13.43
26/01/2020 03:36:38	26012020	260120	033638	53.610	12.474133	-57.557107	53.620	-0.210	-0.220	0.160	53.610	-1.500	0.600																			1580009798.0	7.14	13.22
26/01/2020 03:36:39	26012020	260120	033639	53.700	12.474155	-57.557080	53.740	-0.050	-0.540	0.130	53.700	-1.800	0.500																			1580009799.0	7.41	13.72
26/01/2020 03:36:40	26012020	260120	033640	53.780	12.474177	-57.557052	53.720	0.060	-0.590	0.170	53.780	-2.000	0.500																			1580009800.0	7.70	14.26
26/01/2020 03:36:41	26012020	260120	033641	53.740	12.474198	-57.557022	53.620	0.080	-0.400	0.250	53.740	-1.900	0.600																			1580009801.0	7.61	14.09
26/01/2020 03:36:42	26012020	260120	033642	53.640	12.474218	-57.556995	53.620	0.120	-0.240	0.280	53.640	-1.700	0.700																			1580009802.0	7.35	13.61
26/01/2020 03:36:43	26012020	260120	033643	53.650	12.474238	-57.556967	53.690	0.220	-0.170	0.230	53.650	-1.600	0.600																			1580009803.0	7.28	13.48
26/01/2020 03:36:44	26012020	260120	033644	53.720	12.474260	-57.556940	53.680	0.240	0.010	0.120	53.720	-1.500	0.600																			1580009804.0	7.46	13.82
26/01/2020 03:36:45	26012020	260120	033645	53.700	12.474282	-57.556912	53.640	0.120	0.210	-0.010	53.700	-1.300	0.400																			1580009805.0	7.50	13.89
26/01/2020 03:36:46	26012020	260120	033646	53.670	12.474303	-57.556885	53.720	-0.000	0.170	-0.160	53.670	-1.200	0.300																			1580009806.0	7.30	13.52
26/01/2020 03:36:47	26012020	260120	033647	53.780	12.474325	-57.556858	53.870	-0.060	-0.100	-0.240	53.780	-1.400	0.200																			1580009807.0	7.32	13.56
26/01/2020 03:36:48	26012020	260120	033648	53.910	12.474348	-57.556832	53.880	-0.060	-0.300	-0.110	53.910	-1.600	0.200																			1580009808.0	7.58	14.04
26/01/2020 03:36:49	26012020	260120	033649	53.890	12.474370	-57.556802	53.770	-0.070	-0.250	0.170	53.890	-1.700	0.400																			1580009809.0	7.68	14.22
26/01/2020 03:36:50	26012020	260120	033650	53.770	12.474390	-57.556773	53.700	-0.180	-0.100	0.460	53.770	-1.600	0.700																			1580009810.0	7.47	13.83
26/01/2020 03:36:51	26012020	260120	033651	53.710	12.474410	-57.556747	53.690	-0.310	-0.130	0.670	53.710	-1.500	1.000																			1580009811.0	7.22	13.37
26/01/2020 03:36:52	26012020	260120	033652	53.700	12.474428	-57.556718	53.740	-0.290	-0.350	0.700	53.700	-1.600	1.100																			1580009812.0	7.23	13.39
26/01/2020 03:36:53	26012020	260120	033653	53.760	12.474450	-57.556688	53.790	-0.090	-0.540	0.560	53.760	-1.900	1.000																			1580009813.0	7.50	13.89
26/01/2020 03:36:54	26012020	260120	033654	53.810	12.474472	-57.556660	53.770	0.150	-0.440	0.460	53.810	-1.900	0.900																			1580009814.0	7.69	14.24
26/01/2020 03:36:55	26012020	260120	033655	53.780	12.474493	-57.556632	53.710	0.250	-0.100	0.360	53.780	-1.700	0.800																			1580009815.0	7.62	14.11
26/01/2020 03:36:56	26012020	260120	033656	53.730	12.474513	-57.556605	53.720	0.200	0.130	0.140	53.730	-1.400	0.700																			1580009816.0	7.30	13.52
26/01/2020 03:36:57	26012020	260120	033657	53.770	12.474535	-57.556578	53.810	0.160	0.060	-0.230	53.770	-1.300	0.300																			1580009817.0	7.17	13.28
26/01/2020 03:36:58	26012020	260120	033658	53.860	12.474557	-57.556552	53.870	0.150	-0.080	-0.530	53.860	-1.400	-0.000																			1580009818.0	7.43	13.76
26/01/2020 03:36:59	26012020	260120	033659	53.900	12.474582	-57.556525	53.840	0.070	-0.070	-0.550	53.900	-1.500	-0.200	1015.10	25.80	25.90	20.30	20.30	-1.00	71.00	71.00	389.00	25.20	8.00	9.10	67.00	5.30	15	3265.00	27.40	27.40	1580009819.0	7.69	14.24
26/01/2020 03:37:00	26012020	260120	033700	53.860	12.474603	-57.556497	53.840	-0.080	-0.090	-0.420	53.860	-1.500	-0.100																			1580009820.0	7.54	13.96
26/01/2020 03:37:01	26012020	260120	033701	53.870	12.474625	-57.556470	53.870	-0.170	-0.280	-0.230	53.870	-1.600	0.100																			1580009821.0	7.35	13.61
26/01/2020 03:37:02	26012020	260120	033702	53.880	12.474647	-57.556442	53.780	-0.170	-0.370	0.140	53.880	-1.800	0.300																			1580009822.0	7.48	13.85
26/01/2020 03:37:03	26012020	260120	033703	53.780	12.474667	-57.556413	53.710	-0.170	-0.290	0.570	53.780	-1.700	0.800																			1580009823.0	7.61	14.09
26/01/2020 03:37:04	26012020	260120	033704	53.720	12.474687	-57.556383	53.800	-0.120	-0.250	0.850	53.720	-1.700	1.100																			1580009824.0	7.45	13.80
26/01/2020 03:37:05	26012020	260120	033705	53.830	12.474705	-57.556355	53.980	-0.020	-0.260	0.930	53.830	-1.700	1.300																			1580009825.0	7.39	13.69
26/01/2020 03:37:06	26012020	260120	033706	54.000	12.474725	-57.556325	54.090	0.020	-0.070	0.840	54.000	-1.600	1.300																			1580009826.0	7.55	13.98
26/01/2020 03:37:07	26012020	260120	033707	54.090	12.474745	-57.556295	54.080	0.010	0.140	0.590	54.090	-1.400	1.100																			1580009827.0	7.45	13.80
26/01/2020 03:37:08	26012020	260120	033708	54.060	12.474765	-57.556268	53.980	0.040	0.050	0.240	54.060	-1.300	0.800																			1580009828.0	7.19	13.32
26/01/2020 03:37:09	26012020	260120	033709	53.990	12.474787	-57.556242	53.860	0.150	-0.250	-0.210	53.990	-1.500	0.400																			1580009829.0	7.34	13.59
26/01/2020 03:37:10	26012020	260120	033710	53.880	12.474812	-57.556215	53.770	0.210	-0.440	-0.610	53.880	-1.800	-0.100																			1580009830.0	7.73	14.32
26/01/2020 03:37:11	26012020	260120	033711	53.820	12.474837	-57.556188	53.790	0.120	-0.330	-0.710	53.820	-1.800	-0.300																			1580009831.0	7.84	14.52
26/01/2020 03:37:12	26012020	260120	033712	53.830	12.474860	-57.556162	53.880	-0.090	-0.100	-0.530	53.830	-1.600	-0.300																			1580009832.0	7.56	14.00
26/01/2020 03:37:13	26012020	260120	033713	53.900	12.474880	-57.556135	53.990	-0.260	-0.030	-0.290	53.920	-1.400	-0.000																			1580009833.0	7.23	13.39
26/01/2020 03:37:14	26012020	260120	033714	54.010	12.474900	-57.556107	53.980	-0.250	-0.160	-0.020	54.010	-1.500	0.200																			1580009834.0	7.24	13.41
26/01/2020 03:37:15	26012020	260120	033715	54.000	12.474918	-57.556077	53.860	-0.100	-0.200	0.380	53.980	-1.600	0.600																			1580009835.0	7.53	13.95
26/01/2020 03:37:16	26012020	260120	033716	53.860	12.474938	-57.556047	53.750	0.080	-0.110	0.760	53.860	-1.600	1.000																			1580009836.0	7.65	14.17
26/01/2020 03:37:17	26012020	260120	033717	53.760	12.474958	-57.556018	53.760	0.200	-0.110	0.810	53.760	-1.500	1.200																			1580009837.0	7.45	13.80
26/01/2020 03:37:18	26012020	260120	033718	53.780	12.474978	-57.555990	53.860	0.220	-0.180	0.620	53.780	-1.600	1.100																			1580009838.0	7.41	13.72
26/01/2020 03:37:19	26012020	260120	033719	53.900	12.475002	-57.555962	53.920	0.130	-0.210	0.470	53.900	-1.600	0.900																			1580009839.0	7.52	13.93
26/01/2020 03:37:20	26012020	260120	033720	53.950	12.475023	-57.555935	53.970	-0.020	-0.190	0.350	53.950	-1.600	0.800																			1580009840.0	7.51	13.91
26/01/2020 03:37:21	26012020	260120	033721	54.010	12.475045	-57.555907	54.070	-0.120	-0.190	0.210	54.010	-1.600	0.700																			1580009841.0	7.43	13.76
26/01/2020 03:37:22	26012020	260120	033722	54.100	12.475065	-57.555878	54.040	-0.150	-0.220	0.130	54.100	-1.600	0.500																			1580009842.0	7.44	13.78
26/01/2020 03:37:23	26012020	260120	033723	54.040	12.475087	-57.555850	53.850	-0.130	-0.200	0.100	54.040	-1.600	0.500																			1580009843.0	7.50	13.89
26/01/2020 03:37:24	26012020	260120	033724	53.830	12.475108	-57.555822	53.630	-0.090	-0.150	0.080	53.830	-1.600	0.500																			1580009844.0	7.53	13.95
26/01/2020 03:37:25	26012020	260120	033725	53.660	12.475128	-57.555793	53.520	0.020	-0.210	0.020	53.630	-1.600	0.400																			1580009845.0	7.46	13.82
26/01/2020 03:37:26	26012020	260120	033726	53.550	12.475150	-57.555767	53.620	0.160	-0.280	-0.140	53.550	-1.700	0.300																			1580009846.0	7.50	13.89
26/01/2020 03:37:27	26012020	260120	033727	53.680	12.475173	-57.555738	53.800	0.150	-0.120	-0.290	53.680	-1.600	0.100																			1580009847.0	7.66	14.19
26/01/2020 03:37:28	26012020	260120	033728	53.860	12.475195	-57.555710	53.870	-0.090	0.250	-0.230	53.860	-1.300	0.100																			1580009848.0	7.57	14.02
26/01/2020 03:37:29	26012020	260120	033729	53.890	12.475215	-57.555683	53.810	-0.360	0.380	-0.030	53.890	-1.000	0.300																			1580009849.0	7.17	13.28
26/01/2020 03:37:30	26012020	260120	033730	53.810	12.475233	-57.555657	53.740	-0.340	-0.040	0.080	53.810	-1.200	0.400																			1580009850.0	7.00	12.96
26/01/2020 03:37:31	26012020	260120	033731	53.750	12.475255	-57.555628	53.680	0.030	-0.750	0.190	53.750	-1.800	0.500																			1580009851.0	7.39	13.69
26/01/2020 03:37:32	26012020	260120	033732	53.690	12.475278	-57.555598	53.540	0.440	-1.020	0.480	53.690	-2.400	0.700																			1580009852.0	8.00	14.82
26/01/2020 03:37:33	26012020	260120	033733	53.510	12.475300	-57.555568	53.360	0.500	-0.610	0.760	53.510	-2.300	1.000																			1580009853.0	8.12	15.04
26/01/2020 03:37:34	26012020	260120	033734	53.370	12.475320	-57.555538	53.390	0.270	-0.020	0.870	53.370	-1.700	1.200																			1580009854.0	7.52	13.93
26/01/2020 03:37:35	26012020	260120	033735	53.450	12.475340	-57.555512	53.590	0.030	0.240	0.850	53.450	-1.200	1.300																			1580009855.0	6.99	12.95
26/01/2020 03:37:36	26012020	260120	033736	53.640	12.475358	-57.555485	53.670	-0.110	0.230	0.680	53.640	-1.200	1.200																			1580009856.0	7.13	13.20
26/01/2020 03:37:37	26012020	260120	033737	53.680	12.475380	-57.555455	53.530	-0.230	0.250	0.450	53.680	-1.200	0.900																			1580009857.0	7.52	13.93
26/01/2020 03:37:38	26012020	260120	033738	53.530	12.475402	-57.555428	53.310	-0.350	0.190	0.320	53.530	-1.200	0.800																			1580009858.0	7.53	13.95
26/01/2020 03:37:39	26012020	260120	033739	53.340	12.475423	-57.555400	53.220	-0.390	-0.130	0.090	53.310	-1.400	0.600																			1580009859.0	7.37	13.65
26/01/2020 03:37:40	26012020	260120	033740	53.260	12.475445	-57.555373	53.380	-0.260	-0.650	-0.380	53.260	-1.800	0.200																			1580009860.0	7.47	13.83
26/01/2020 03:37:41	26012020	260120	033741	53.440	12.475470	-57.555345	53.510	0.020	-0.880	-0.660	53.440	-2.300	-0.200																			1580009861.0	7.82	14.48
26/01/2020 03:37:42	26012020	260120	033742	53.540	12.475493	-57.555318	53.450	0.230	-0.450	-0.460	53.540	-2.100	-0.200																			1580009862.0	7.97	14.76
26/01/2020 03:37:43	26012020	260120	033743	53.440	12.475515	-57.555290	53.310	0.240	0.220	-0.060	53.440	-1.500	0.100																			1580009863.0	7.48	13.85
26/01/2020 03:37:44	26012020	260120	033744	53.290	12.475533	-57.555263	53.180	0.140	0.430	0.280	53.290	-1.000	0.500																			1580009864.0	6.86	12.70
26/01/2020 03:37:45	26012020	260120	033745	53.170	12.475552	-57.555235	53.180	0.110	0.040	0.360	53.170	-1.100	0.700																			1580009865.0	6.89	12.76
26/01/2020 03:37:46	26012020	260120	033746	53.190	12.475572	-57.555207	53.280	0.200	-0.540	0.280	53.190	-1.700	0.700																			1580009866.0	7.49	13.87
26/01/2020 03:37:47	26012020	260120	033747	53.310	12.475597	-57.555178	53.380	0.270	-0.710	0.250	53.310	-2.100	0.600																			1580009867.0	8.04	14.89
26/01/2020 03:37:48	26012020	260120	033748	53.400	12.475620	-57.555150	53.430	0.170	-0.390	0.380	53.400	-2.000	0.700																			1580009868.0	7.98	14.78
26/01/2020 03:37:49	26012020	260120	033749	53.440	12.475642	-57.555122	53.390	-0.080	0.010	0.670	53.440	-1.600	0.900																			1580009869.0	7.43	13.76
26/01/2020 03:37:50	26012020	260120	033750	53.370	12.475662	-57.555095	53.320	-0.330	0.200	0.880	53.370	-1.300	1.200																			1580009870.0	7.12	13.19
26/01/2020 03:37:51	26012020	260120	033751	53.320	12.475680	-57.555067	53.380	-0.430	0.140	0.820	53.320	-1.200	1.300																			1580009871.0	7.22	13.37
26/01/2020 03:37:52	26012020	260120	033752	53.400	12.475700	-57.555038	53.470	-0.310	-0.050	0.670	53.400	-1.400	1.100																			1580009872.0	7.42	13.74
26/01/2020 03:37:53	26012020	260120	033753	53.470	12.475722	-57.555010	53.390	-0.080	-0.160	0.490	53.470	-1.500	1.000																			1580009873.0	7.61	14.09
26/01/2020 03:37:54	26012020	260120	033754	53.370	12.475742	-57.554980	53.180	0.040	-0.120	0.230	53.370	-1.600	0.700																			1580009874.0	7.61	14.09
26/01/2020 03:37:55	26012020	260120	033755	53.160	12.475763	-57.554953	53.000	0.050	-0.120	-0.150	53.160	-1.500	0.400																			1580009875.0	7.42	13.74
26/01/2020 03:37:56	26012020	260120	033756	53.040	12.475785	-57.554927	53.060	0.120	-0.390	-0.650	53.040	-1.600	-0.000																			1580009876.0	7.26	13.45
26/01/2020 03:37:57	26012020	260120	033757	53.140	12.475810	-57.554902	53.280	0.360	-0.760	-1.100	53.140	-2.000	-0.500																			1580009877.0	7.49	13.87
26/01/2020 03:37:58	26012020	260120	033758	53.370	12.475837	-57.554875	53.440	0.530	-0.690	-1.110	53.370	-2.200	-0.800																			1580009878.0	7.91	14.65
26/01/2020 03:37:59	26012020	260120	033759	53.480	12.475862	-57.554848	53.350	0.310	-0.030	-0.530	53.480	-1.800	-0.500	1015.10	25.80	25.90	20.10	20.20	-1.00	70.00	70.00	389.00	25.20	8.00	9.10	68.00	5.40	15	3268.00	27.40	27.40	1580009879.0	7.91	14.65
26/01/2020 03:38:00	26012020	260120	033800	53.360	12.475882	-57.554820	53.220	-0.170	0.570	0.290	53.360	-1.100	0.300																			1580009880.0	7.27	13.46
26/01/2020 03:38:01	26012020	260120	033801	53.220	12.475897	-57.554792	53.220	-0.490	0.520	0.880	53.220	-0.800	1.000																			1580009881.0	6.80	12.59
26/01/2020 03:38:02	26012020	260120	033802	53.210	12.475913	-57.554763	53.230	-0.380	-0.080	1.240	53.210	-1.200	1.500																			1580009882.0	7.11	13.17
26/01/2020 03:38:03	26012020	260120	033803	53.200	12.475933	-57.554732	53.130	-0.010	-0.640	1.450	53.200	-1.800	1.800																			1580009883.0	7.77	14.39
26/01/2020 03:38:04	26012020	260120	033804	53.090	12.475955	-57.554700	53.080	0.270	-0.770	1.420	53.090	-2.200	1.900																			1580009884.0	8.08	14.96
26/01/2020 03:38:05	26012020	260120	033805	53.060	12.475977	-57.554670	53.130	0.290	-0.510	1.100	53.060	-2.100	1.700																			1580009885.0	7.83	14.50
26/01/2020 03:38:06	26012020	260120	033806	53.150	12.475998	-57.554643	53.180	0.100	-0.060	0.580	53.150	-1.700	1.200																			1580009886.0	7.43	13.76
26/01/2020 03:38:07	26012020	260120	033807	53.210	12.476020	-57.554618	53.160	-0.160	0.400	0.060	53.210	-1.200	0.700																			1580009887.0	7.19	13.32
26/01/2020 03:38:08	26012020	260120	033808	53.180	12.476043	-57.554593	53.070	-0.340	0.590	-0.280	53.180	-0.900	0.300																			1580009888.0	7.11	13.17
26/01/2020 03:38:09	26012020	260120	033809	53.090	12.476067	-57.554570	52.980	-0.350	0.310	-0.460	53.090	-0.900	0.000																			1580009889.0	7.10	13.15
26/01/2020 03:38:10	26012020	260120	033810	53.000	12.476088	-57.554543	52.990	-0.140	-0.500	-0.600	53.000	-1.500	-0.100																			1580009890.0	7.30	13.52
26/01/2020 03:38:11	26012020	260120	033811	53.040	12.476110	-57.554515	53.150	0.190	-1.250	-0.710	53.040	-2.400	-0.300																			1580009891.0	7.79	14.43
26/01/2020 03:38:12	26012020	260120	033812	53.190	12.476133	-57.554483	53.210	0.390	-1.190	-0.580	53.190	-2.800	-0.300																			1580009892.0	8.26	15.30
26/01/2020 03:38:13	26012020	260120	033813	53.220	12.476157	-57.554453	53.090	0.300	-0.220	-0.160	53.220	-2.100	0.000																			1580009893.0	8.02	14.85
26/01/2020 03:38:14	26012020	260120	033814	53.050	12.476177	-57.554427	52.910	0.060	0.740	0.320	53.050	-1.000	0.500																			1580009894.0	7.05	13.06
26/01/2020 03:38:15	26012020	260120	033815	52.870	12.476193	-57.554402	52.880	-0.010	0.720	0.540	52.870	-0.500	0.900																			1580009895.0	6.39	11.83
26/01/2020 03:38:16	26012020	260120	033816	52.860	12.476213	-57.554375	52.960	0.140	-0.130	0.500	52.860	-1.100	0.900																			1580009896.0	6.89	12.76
26/01/2020 03:38:17	26012020	260120	033817	52.940	12.476237	-57.554347	52.990	0.280	-0.780	0.450	52.940	-2.000	0.800																			1580009897.0	8.02	14.85
26/01/2020 03:38:18	26012020	260120	033818	52.970	12.476262	-57.554315	52.950	0.110	-0.560	0.610	52.970	-2.200	0.900																			1580009898.0	8.47	15.69
26/01/2020 03:38:19	26012020	260120	033819	52.930	12.476283	-57.554287	52.890	-0.350	0.160	0.850	52.930	-1.600	1.100																			1580009899.0	7.78	14.41
26/01/2020 03:38:20	26012020	260120	033820	52.860	12.476302	-57.554260	52.830	-0.740	0.590	0.950	52.860	-0.900	1.300																			1580009900.0	6.81	12.61
26/01/2020 03:38:21	26012020	260120	033821	52.820	12.476318	-57.554235	52.840	-0.720	0.350	0.860	52.820	-0.900	1.300																			1580009901.0	6.56	12.15
26/01/2020 03:38:22	26012020	260120	033822	52.830	12.476338	-57.554208	52.880	-0.270	-0.360	0.530	52.830	-1.400	1.100																			1580009902.0	7.08	13.11
26/01/2020 03:38:23	26012020	260120	033823	52.880	12.476362	-57.554180	52.920	0.310	-0.970	0.040	52.880	-2.100	0.700																			1580009903.0	7.75	14.35
26/01/2020 03:38:24	26012020	260120	033824	52.940	12.476387	-57.554150	52.920	0.630	-0.990	-0.360	52.940	-2.500	0.200																			1580009904.0	8.09	14.98
26/01/2020 03:38:25	26012020	260120	033825	52.940	12.476410	-57.554123	52.870	0.570	-0.460	-0.600	52.940	-2.200	-0.100																			1580009905.0	7.83	14.50
26/01/2020 03:38:26	26012020	260120	033826	52.890	12.476433	-57.554098	52.850	0.350	0.130	-0.670	52.890	-1.500	-0.300																			1580009906.0	7.23	13.39
26/01/2020 03:38:27	26012020	260120	033827	52.860	12.476455	-57.554073	52.890	0.210	0.300	-0.570	52.870	-1.100	-0.300																			1580009907.0	6.88	12.74
26/01/2020 03:38:28	26012020	260120	033828	52.910	12.476477	-57.554048	52.870	0.130	0.120	-0.230	52.910	-1.200	-0.000																			1580009908.0	7.13	13.20
26/01/2020 03:38:29	26012020	260120	033829	52.870	12.476498	-57.554020	52.770	-0.030	-0.090	0.240	52.850	-1.400	0.400																			1580009909.0	7.59	14.06
26/01/2020 03:38:30	26012020	260120	033830	52.750	12.476520	-57.553990	52.790	-0.290	-0.160	0.650	52.750	-1.600	0.900																			1580009910.0	7.76	14.37
26/01/2020 03:38:31	26012020	260120	033831	52.800	12.476540	-57.553960	53.010	-0.490	-0.100	0.900	52.800	-1.500	1.200																			1580009911.0	7.60	14.08
26/01/2020 03:38:32	26012020	260120	033832	53.030	12.476558	-57.553932	53.280	-0.490	-0.010	0.990	53.030	-1.500	1.300																			1580009912.0	7.36	13.63
26/01/2020 03:38:33	26012020	260120	033833	53.280	12.476578	-57.553903	53.400	-0.310	-0.030	0.970	53.280	-1.400	1.400																			1580009913.0	7.22	13.37
26/01/2020 03:38:34	26012020	260120	033834	53.370	12.476597	-57.553875	53.300	-0.050	-0.160	0.910	53.370	-1.500	1.300																			1580009914.0	7.24	13.41
26/01/2020 03:38:35	26012020	260120	033835	53.260	12.476617	-57.553847	53.110	0.170	-0.320	0.640	53.260	-1.600	1.200																			1580009915.0	7.37	13.65
26/01/2020 03:38:36	26012020	260120	033836	53.100	12.476640	-57.553820	53.010	0.320	-0.500	0.060	53.100	-1.800	0.700																			1580009916.0	7.46	13.82
26/01/2020 03:38:37	26012020	260120	033837	53.050	12.476665	-57.553795	53.060	0.390	-0.500	-0.490	53.050	-1.900	0.100																			1580009917.0	7.61	14.09
26/01/2020 03:38:38	26012020	260120	033838	53.110	12.476690	-57.553770	53.170	0.340	-0.310	-0.730	53.110	-1.800	-0.300																			1580009918.0	7.67	14.20
26/01/2020 03:38:39	26012020	260120	033839	53.240	12.476715	-57.553745	53.280	0.180	-0.160	-0.760	53.240	-1.600	-0.400																			1580009919.0	7.43	13.76
26/01/2020 03:38:40	26012020	260120	033840	53.330	12.476737	-57.553718	53.290	-0.060	-0.040	-0.520	53.330	-1.500	-0.300																			1580009920.0	7.34	13.59
26/01/2020 03:38:41	26012020	260120	033841	53.330	12.476757	-57.553690	53.290	-0.260	0.060	-0.070	53.330	-1.400	0.100																			1580009921.0	7.41	13.72
26/01/2020 03:38:42	26012020	260120	033842	53.330	12.476775	-57.553660	53.410	-0.260	0.050	0.330	53.330	-1.300	0.500																			1580009922.0	7.36	13.63
26/01/2020 03:38:43	26012020	260120	033843	53.450	12.476793	-57.553630	53.500	-0.130	-0.070	0.580	53.450	-1.400	0.900																			1580009923.0	7.42	13.74
26/01/2020 03:38:44	26012020	260120	033844	53.510	12.476813	-57.553602	53.490	-0.020	-0.130	0.760	53.510	-1.500	1.100																			1580009924.0	7.55	13.98
26/01/2020 03:38:45	26012020	260120	033845	53.500	12.476835	-57.553572	53.520	-0.000	-0.110	0.810	53.500	-1.500	1.200																			1580009925.0	7.56	14.00
26/01/2020 03:38:46	26012020	260120	033846	53.540	12.476855	-57.553545	53.580	-0.010	-0.140	0.660	53.540	-1.500	1.100																			1580009926.0	7.39	13.69
26/01/2020 03:38:47	26012020	260120	033847	53.600	12.476877	-57.553517	53.640	-0.010	-0.270	0.380	53.600	-1.600	0.900																			1580009927.0	7.31	13.54
26/01/2020 03:38:48	26012020	260120	033848	53.650	12.476898	-57.553490	53.660	-0.020	-0.300	0.140	53.650	-1.700	0.600																			1580009928.0	7.44	13.78
26/01/2020 03:38:49	26012020	260120	033849	53.680	12.476922	-57.553463	53.610	-0.100	-0.180	0.060	53.680	-1.700	0.500																			1580009929.0	7.51	13.91
26/01/2020 03:38:50	26012020	260120	033850	53.610	12.476943	-57.553437	53.500	-0.180	-0.140	-0.010	53.610	-1.500	0.400																			1580009930.0	7.33	13.58
26/01/2020 03:38:51	26012020	260120	033851	53.530	12.476963	-57.553408	53.480	-0.080	-0.320	-0.180	53.530	-1.600	0.300																			1580009931.0	7.25	13.43
26/01/2020 03:38:52	26012020	260120	033852	53.510	12.476985	-57.553382	53.490	0.220	-0.570	-0.300	53.510	-1.900	0.100																			1580009932.0	7.47	13.83
26/01/2020 03:38:53	26012020	260120	033853	53.530	12.477008	-57.553353	53.470	0.490	-0.480	-0.230	53.530	-2.000	0.100																			1580009933.0	7.79	14.43
26/01/2020 03:38:54	26012020	260120	033854	53.510	12.477030	-57.553323	53.440	0.460	-0.020	-0.090	53.510	-1.700	0.200																			1580009934.0	7.80	14.45
26/01/2020 03:38:55	26012020	260120	033855	53.480	12.477052	-57.553297	53.440	0.130	0.380	0.010	53.480	-1.200	0.400																			1580009935.0	7.35	13.61
26/01/2020 03:38:56	26012020	260120	033856	53.480	12.477072	-57.553270	53.450	-0.270	0.430	0.100	53.480	-1.000	0.400																			1580009936.0	7.07	13.09
26/01/2020 03:38:57	26012020	260120	033857	53.470	12.477092	-57.553243	53.490	-0.500	0.180	0.310	53.470	-1.100	0.600																			1580009937.0	7.18	13.30
26/01/2020 03:38:58	26012020	260120	033858	53.510	12.477113	-57.553215	53.610	-0.480	-0.200	0.500	53.510	-1.400	0.800																			1580009938.0	7.44	13.78
26/01/2020 03:38:59	26012020	260120	033859	53.650	12.477133	-57.553185	53.720	-0.320	-0.530	0.650	53.650	-1.800	1.000	1015.10	25.90	25.90	20.30	20.40	-1.00	71.00	71.00	389.00	25.20	6.00	9.00	63.00	5.20	15	3283.00	27.40	27.40	1580009939.0	7.61	14.09
26/01/2020 03:39:00	26012020	260120	033900	53.730	12.477153	-57.553155	53.660	-0.150	-0.610	0.770	53.730	-2.000	1.100																			1580009940.0	7.70	14.26
26/01/2020 03:39:01	26012020	260120	033901	53.650	12.477173	-57.553125	53.520	0.000	-0.390	0.820	53.650	-1.900	1.200																			1580009941.0	7.59	14.06
26/01/2020 03:39:02	26012020	260120	033902	53.490	12.477193	-57.553098	53.360	0.200	-0.120	0.690	53.490	-1.600	1.200																			1580009942.0	7.31	13.54
26/01/2020 03:39:03	26012020	260120	033903	53.370	12.477213	-57.553072	53.280	0.420	-0.090	0.290	53.350	-1.500	0.900																			1580009943.0	7.10	13.15
26/01/2020 03:39:04	26012020	260120	033904	53.310	12.477235	-57.553045	53.310	0.550	-0.300	-0.260	53.310	-1.600	0.400																			1580009944.0	7.29	13.50
26/01/2020 03:39:05	26012020	260120	033905	53.360	12.477260	-57.553018	53.390	0.480	-0.440	-0.730	53.360	-1.800	-0.100																			1580009945.0	7.69	14.24
26/01/2020 03:39:06	26012020	260120	033906	53.450	12.477287	-57.552993	53.480	0.220	-0.260	-0.850	53.450	-1.800	-0.500																			1580009946.0	7.90	14.63
26/01/2020 03:39:07	26012020	260120	033907	53.530	12.477310	-57.552967	53.550	-0.130	0.120	-0.520	53.530	-1.500	-0.300																			1580009947.0	7.66	14.19
26/01/2020 03:39:08	26012020	260120	033908	53.570	12.477332	-57.552938	53.540	-0.440	0.330	0.100	53.570	-1.100	0.200																			1580009948.0	7.24	13.41
26/01/2020 03:39:09	26012020	260120	033909	53.550	12.477348	-57.552910	53.540	-0.580	0.190	0.630	53.550	-1.100	0.800																			1580009949.0	7.15	13.24
26/01/2020 03:39:10	26012020	260120	033910	53.550	12.477365	-57.552880	53.550	-0.460	-0.170	0.930	53.550	-1.400	1.200																			1580009950.0	7.40	13.70
26/01/2020 03:39:11	26012020	260120	033911	53.550	12.477385	-57.552848	53.570	-0.160	-0.410	1.080	53.550	-1.700	1.400																			1580009951.0	7.69	14.24
26/01/2020 03:39:12	26012020	260120	033912	53.570	12.477405	-57.552818	53.610	0.120	-0.420	1.030	53.570	-1.900	1.500																			1580009952.0	7.75	14.35
26/01/2020 03:39:13	26012020	260120	033913	53.610	12.477425	-57.552790	53.640	0.210	-0.220	0.800	53.610	-1.700	1.300																			1580009953.0	7.54	13.96
26/01/2020 03:39:14	26012020	260120	033914	53.640	12.477447	-57.552763	53.580	0.110	0.030	0.480	53.640	-1.500	1.000																			1580009954.0	7.31	13.54
26/01/2020 03:39:15	26012020	260120	033915	53.600	12.477468	-57.552737	53.530	0.000	0.000	0.070	53.600	-1.300	0.700																			1580009955.0	7.12	13.19
26/01/2020 03:39:16	26012020	260120	033916	53.570	12.477492	-57.552712	53.560	0.080	-0.410	-0.360	53.570	-1.600	0.200																			1580009956.0	7.19	13.32
26/01/2020 03:39:17	26012020	260120	033917	53.610	12.477515	-57.552685	53.620	0.310	-0.770	-0.670	53.610	-2.100	-0.200																			1580009957.0	7.64	14.15
26/01/2020 03:39:18	26012020	260120	033918	53.660	12.477540	-57.552657	53.570	0.390	-0.550	-0.680	53.660	-2.100	-0.300																			1580009958.0	8.04	14.89
26/01/2020 03:39:19	26012020	260120	033919	53.570	12.477563	-57.552628	53.390	0.180	0.070	-0.370	53.570	-1.600	-0.200																			1580009959.0	7.77	14.39
26/01/2020 03:39:20	26012020	260120	033920	53.380	12.477583	-57.552602	53.350	-0.140	0.400	0.020	53.380	-1.100	0.200																			1580009960.0	7.10	13.15
26/01/2020 03:39:21	26012020	260120	033921	53.390	12.477602	-57.552575	53.520	-0.300	0.170	0.270	53.390	-1.100	0.600																			1580009961.0	6.92	12.82
26/01/2020 03:39:22	26012020	260120	033922	53.560	12.477620	-57.552547	53.630	-0.310	-0.110	0.440	53.560	-1.400	0.700																			1580009962.0	7.43	13.76
26/01/2020 03:39:23	26012020	260120	033923	53.640	12.477642	-57.552515	53.570	-0.310	-0.090	0.680	53.640	-1.500	0.900																			1580009963.0	7.84	14.52
26/01/2020 03:39:24	26012020	260120	033924	53.550	12.477662	-57.552487	53.480	-0.270	-0.120	0.890	53.550	-1.500	1.200																			1580009964.0	7.55	13.98
26/01/2020 03:39:25	26012020	260120	033925	53.480	12.477680	-57.552458	53.470	-0.070	-0.330	0.840	53.480	-1.600	1.300																			1580009965.0	7.26	13.45
26/01/2020 03:39:26	26012020	260120	033926	53.480	12.477700	-57.552430	53.400	0.230	-0.480	0.590	53.480	-1.900	1.100																			1580009966.0	7.43	13.76
26/01/2020 03:39:27	26012020	260120	033927	53.400	12.477723	-57.552402	53.260	0.410	-0.370	0.350	53.400	-1.900	0.900																			1580009967.0	7.63	14.13
26/01/2020 03:39:28	26012020	260120	033928	53.250	12.477745	-57.552375	53.070	0.380	-0.250	0.150	53.250	-1.700	0.600																			1580009968.0	7.46	13.82
26/01/2020 03:39:29	26012020	260120	033929	53.060	12.477768	-57.552348	52.900	0.180	-0.210	-0.060	53.060	-1.600	0.400																			1580009969.0	7.32	13.56
26/01/2020 03:39:30	26012020	260120	033930	52.900	12.477792	-57.552322	52.840	-0.120	-0.040	-0.230	52.900	-1.600	0.200																			1580009970.0	7.49	13.87
26/01/2020 03:39:31	26012020	260120	033931	52.870	12.477815	-57.552295	52.960	-0.360	0.170	-0.250	52.870	-1.300	0.100																			1580009971.0	7.50	13.89
26/01/2020 03:39:32	26012020	260120	033932	53.030	12.477837	-57.552270	53.150	-0.360	0.060	-0.060	53.030	-1.300	0.200																			1580009972.0	7.23	13.39
26/01/2020 03:39:33	26012020	260120	033933	53.200	12.477855	-57.552242	53.190	-0.130	-0.330	0.300	53.200	-1.600	0.500																			1580009973.0	7.30	13.52
26/01/2020 03:39:34	26012020	260120	033934	53.210	12.477875	-57.552210	53.040	0.120	-0.540	0.710	53.210	-1.900	0.900																			1580009974.0	7.76	14.37
26/01/2020 03:39:35	26012020	260120	033935	53.030	12.477893	-57.552178	52.880	0.190	-0.290	0.970	53.030	-1.900	1.300																			1580009975.0	7.93	14.69
26/01/2020 03:39:36	26012020	260120	033936	52.880	12.477913	-57.552148	52.860	0.140	0.070	0.900	52.880	-1.500	1.400																			1580009976.0	7.50	13.89
26/01/2020 03:39:37	26012020	260120	033937	52.870	12.477933	-57.552122	52.920	0.150	0.150	0.510	52.870	-1.300	1.100																			1580009977.0	7.06	13.08
26/01/2020 03:39:38	26012020	260120	033938	52.940	12.477957	-57.552097	52.980	0.230	-0.020	0.040	52.940	-1.300	0.700																			1580009978.0	7.17	13.28
26/01/2020 03:39:39	26012020	260120	033939	53.000	12.477982	-57.552072	52.980	0.180	-0.190	-0.220	53.000	-1.500	0.300																			1580009979.0	7.54	13.96
26/01/2020 03:39:40	26012020	260120	033940	53.000	12.478005	-57.552045	52.940	-0.050	-0.280	-0.260	53.000	-1.700	0.100																			1580009980.0	7.64	14.15
26/01/2020 03:39:41	26012020	260120	033941	52.940	12.478027	-57.552018	52.900	-0.270	-0.330	-0.110	52.940	-1.700	0.200																			1580009981.0	7.51	13.91
26/01/2020 03:39:42	26012020	260120	033942	52.890	12.478048	-57.551990	52.920	-0.270	-0.430	0.120	52.890	-1.800	0.400																			1580009982.0	7.42	13.74
26/01/2020 03:39:43	26012020	260120	033943	52.920	12.478070	-57.551962	52.990	-0.070	-0.490	0.370	52.920	-1.900	0.600																			1580009983.0	7.49	13.87
26/01/2020 03:39:44	26012020	260120	033944	53.010	12.478090	-57.551932	53.080	0.080	-0.300	0.630	53.010	-1.900	0.900																			1580009984.0	7.64	14.15
26/01/2020 03:39:45	26012020	260120	033945	53.090	12.478108	-57.551902	53.070	0.030	0.130	0.850	53.090	-1.500	1.100																			1580009985.0	7.58	14.04
26/01/2020 03:39:46	26012020	260120	033946	53.050	12.478128	-57.551873	53.030	-0.140	0.410	0.810	53.050	-1.100	1.300																			1580009986.0	7.23	13.39
26/01/2020 03:39:47	26012020	260120	033947	53.030	12.478147	-57.551847	53.060	-0.210	0.300	0.480	53.030	-1.000	1.100																			1580009987.0	7.04	13.04
26/01/2020 03:39:48	26012020	260120	033948	53.060	12.478168	-57.551820	53.080	-0.110	-0.070	0.060	53.060	-1.300	0.700																			1580009988.0	7.30	13.52
26/01/2020 03:39:49	26012020	260120	033949	53.100	12.478192	-57.551793	53.100	0.120	-0.460	-0.280	53.100	-1.700	0.300																			1580009989.0	7.63	14.13
26/01/2020 03:39:50	26012020	260120	033950	53.130	12.478217	-57.551767	53.110	0.380	-0.700	-0.460	53.130	-2.000	0.000																			1580009990.0	7.77	14.39
26/01/2020 03:39:51	26012020	260120	033951	53.150	12.478240	-57.551738	53.130	0.520	-0.700	-0.510	53.150	-2.100	-0.100																			1580009991.0	7.73	14.32
26/01/2020 03:39:52	26012020	260120	033952	53.160	12.478263	-57.551712	53.050	0.390	-0.370	-0.340	53.160	-2.000	-0.100																			1580009992.0	7.64	14.15
26/01/2020 03:39:53	26012020	260120	033953	53.060	12.478285	-57.551683	52.910	-0.000	0.150	-0.020	53.060	-1.500	0.200																			1580009993.0	7.42	13.74
26/01/2020 03:39:54	26012020	260120	033954	52.920	12.478305	-57.551657	52.920	-0.340	0.400	0.330	52.920	-1.100	0.600																			1580009994.0	7.07	13.09
26/01/2020 03:39:55	26012020	260120	033955	52.920	12.478323	-57.551630	53.030	-0.360	0.110	0.580	52.940	-1.100	0.900																			1580009995.0	6.99	12.95
26/01/2020 03:39:56	26012020	260120	033956	53.050	12.478343	-57.551602	53.030	-0.190	-0.310	0.780	53.050	-1.600	1.100																			1580009996.0	7.46	13.82
26/01/2020 03:39:57	26012020	260120	033957	53.000	12.478365	-57.551570	52.880	-0.130	-0.360	0.980	53.000	-1.800	1.300																			1580009997.0	7.96	14.74
26/01/2020 03:39:58	26012020	260120	033958	52.820	12.478385	-57.551540	52.760	-0.220	-0.100	1.120	52.820	-1.600	1.500																			1580009998.0	7.79	14.43
26/01/2020 03:39:59	26012020	260120	033959	52.750	12.478405	-57.551512	52.840	-0.280	0.090	0.940	52.750	-1.400	1.500																			1580009999.0	7.27	13.46
26/01/2020 03:40:00	26012020	260120	034000	52.880	12.478425	-57.551485	53.070	-0.120	-0.050	0.390	52.880	-1.400	1.100	1015.10	25.80	25.90	20.20	20.20	-1.00	71.00	71.00	389.00	25.20	4.00	8.80	61.00	5.00	15	3287.00	27.40	27.40	1580010000.0	7.05	13.06
26/01/2020 03:40:01	26012020	260120	034001	53.120	12.478447	-57.551458	53.170	0.220	-0.420	-0.130	53.120	-1.700	0.500																			1580010001.0	7.25	13.43
26/01/2020 03:40:02	26012020	260120	034002	53.170	12.478470	-57.551432	52.930	0.420	-0.550	-0.340	53.170	-2.000	0.100																			1580010002.0	7.71	14.28
26/01/2020 03:40:03	26012020	260120	034003	52.890	12.478493	-57.551403	52.540	0.360	-0.280	-0.410	52.890	-1.900	0.000																			1580010003.0	7.81	14.46
26/01/2020 03:40:04	26012020	260120	034004	52.510	12.478517	-57.551378	52.360	0.230	-0.050	-0.550	52.510	-1.500	-0.100																			1580010004.0	7.38	13.67
26/01/2020 03:40:05	26012020	260120	034005	52.400	12.478540	-57.551353	52.480	0.250	-0.190	-0.730	52.400	-1.500	-0.300																			1580010005.0	7.11	13.17
26/01/2020 03:40:06	26012020	260120	034006	52.550	12.478563	-57.551328	52.640	0.260	-0.330	-0.670	52.550	-1.700	-0.300																			1580010006.0	7.45	13.80
26/01/2020 03:40:07	26012020	260120	034007	52.680	12.478587	-57.551300	52.640	0.060	-0.100	-0.190	52.690	-1.700	-0.100																			1580010007.0	7.82	14.48
26/01/2020 03:40:08	26012020	260120	034008	52.690	12.478608	-57.551272	52.610	-0.300	0.230	0.610	52.690	-1.300	0.600																			1580010008.0	7.55	13.98
26/01/2020 03:40:09	26012020	260120	034009	52.620	12.478625	-57.551242	52.630	-0.580	0.210	1.280	52.620	-1.200	1.400																			1580010009.0	7.16	13.26
26/01/2020 03:40:10	26012020	260120	034010	52.640	12.478642	-57.551212	52.710	-0.570	-0.080	1.560	52.640	-1.400	1.900																			1580010010.0	7.24	13.41
26/01/2020 03:40:11	26012020	260120	034011	52.710	12.478660	-57.551182	52.790	-0.310	-0.300	1.500	52.710	-1.600	1.900																			1580010011.0	7.56	14.00
26/01/2020 03:40:12	26012020	260120	034012	52.790	12.478682	-57.551152	52.770	0.030	-0.370	1.280	52.790	-1.800	1.800																			1580010012.0	7.65	14.17
26/01/2020 03:40:13	26012020	260120	034013	52.750	12.478703	-57.551125	52.650	0.300	-0.430	0.940	52.750	-1.800	1.500																			1580010013.0	7.50	13.89
26/01/2020 03:40:14	26012020	260120	034014	52.650	12.478725	-57.551098	52.620	0.420	-0.400	0.280	52.650	-1.900	1.000																			1580010014.0	7.47	13.83
26/01/2020 03:40:15	26012020	260120	034015	52.670	12.478750	-57.551072	52.690	0.360	-0.130	-0.380	52.670	-1.700	0.300																			1580010015.0	7.58	14.04
26/01/2020 03:40:16	26012020	260120	034016	52.750	12.478775	-57.551048	52.720	0.170	0.230	-0.690	52.750	-1.300	-0.200																			1580010016.0	7.47	13.83
26/01/2020 03:40:17	26012020	260120	034017	52.770	12.478798	-57.551023	52.740	-0.000	0.150	-0.810	52.770	-1.200	-0.400																			1580010017.0	7.10	13.15
26/01/2020 03:40:18	26012020	260120	034018	52.800	12.478820	-57.550998	52.830	-0.040	-0.390	-0.810	52.800	-1.500	-0.400																			1580010018.0	7.16	13.26
26/01/2020 03:40:19	26012020	260120	034019	52.910	12.478843	-57.550970	53.020	-0.010	-0.820	-0.630	52.910	-2.100	-0.400																			1580010019.0	7.75	14.35
26/01/2020 03:40:20	26012020	260120	034020	53.110	12.478867	-57.550940	53.180	-0.050	-0.620	-0.250	53.110	-2.200	-0.100																			1580010020.0	8.11	15.02
26/01/2020 03:40:21	26012020	260120	034021	53.240	12.478887	-57.550910	53.200	-0.200	0.140	0.280	53.240	-1.700	0.400																			1580010021.0	7.78	14.41
26/01/2020 03:40:22	26012020	260120	034022	53.210	12.478905	-57.550882	53.110	-0.340	0.760	0.860	53.210	-0.900	1.000																			1580010022.0	7.08	13.11
26/01/2020 03:40:23	26012020	260120	034023	53.100	12.478922	-57.550855	53.040	-0.280	0.580	1.190	53.100	-0.600	1.500																			1580010023.0	6.68	12.37
26/01/2020 03:40:24	26012020	260120	034024	53.060	12.478940	-57.550827	53.130	0.040	-0.290	1.030	53.060	-1.300	1.600																			1580010024.0	7.06	13.08
26/01/2020 03:40:25	26012020	260120	034025	53.190	12.478962	-57.550797	53.330	0.450	-1.040	0.580	53.190	-2.200	1.200																			1580010025.0	7.88	14.59
26/01/2020 03:40:26	26012020	260120	034026	53.400	12.478987	-57.550767	53.420	0.540	-0.920	0.260	53.400	-2.500	0.800																			1580010026.0	8.34	15.45
26/01/2020 03:40:27	26012020	260120	034027	53.450	12.479012	-57.550738	53.310	0.180	-0.100	0.060	53.450	-1.900	0.500																			1580010027.0	7.91	14.65
26/01/2020 03:40:28	26012020	260120	034028	53.320	12.479033	-57.550715	53.180	-0.290	0.540	-0.160	53.320	-1.100	0.400																			1580010028.0	6.96	12.89
26/01/2020 03:40:29	26012020	260120	034029	53.200	12.479053	-57.550692	53.200	-0.400	0.320	-0.400	53.200	-0.900	0.100																			1580010029.0	6.54	12.11
26/01/2020 03:40:30	26012020	260120	034030	53.250	12.479077	-57.550667	53.260	-0.140	-0.380	-0.440	53.250	-1.500	-0.100																			1580010030.0	7.12	13.19
26/01/2020 03:40:31	26012020	260120	034031	53.280	12.479100	-57.550637	53.220	0.080	-0.720	-0.290	53.280	-2.100	0.000																			1580010031.0	8.04	14.89
26/01/2020 03:40:32	26012020	260120	034032	53.230	12.479122	-57.550607	53.150	-0.020	-0.390	-0.010	53.230	-2.000	0.200																			1580010032.0	8.18	15.15
26/01/2020 03:40:33	26012020	260120	034033	53.160	12.479142	-57.550577	53.140	-0.270	0.150	0.270	53.160	-1.500	0.500																			1580010033.0	7.51	13.91
26/01/2020 03:40:34	26012020	260120	034034	53.160	12.479160	-57.550550	53.140	-0.290	0.320	0.440	53.160	-1.100	0.800																			1580010034.0	6.86	12.70
26/01/2020 03:40:35	26012020	260120	034035	53.150	12.479178	-57.550523	53.040	0.050	0.000	0.550	53.150	-1.200	0.900																			1580010035.0	6.89	12.76
26/01/2020 03:40:36	26012020	260120	034036	53.040	12.479198	-57.550495	52.920	0.440	-0.460	0.650	53.040	-1.700	1.000																			1580010036.0	7.47	13.83
26/01/2020 03:40:37	26012020	260120	034037	52.930	12.479222	-57.550467	52.920	0.580	-0.670	0.610	52.930	-2.000	1.100																			1580010037.0	7.88	14.59
26/01/2020 03:40:38	26012020	260120	034038	52.970	12.479245	-57.550437	53.070	0.400	-0.500	0.320	52.970	-2.000	0.900																			1580010038.0	7.83	14.50
26/01/2020 03:40:39	26012020	260120	034039	53.120	12.479268	-57.550410	53.210	0.040	-0.010	0.060	53.120	-1.700	0.600																			1580010039.0	7.54	13.96
26/01/2020 03:40:40	26012020	260120	034040	53.230	12.479290	-57.550385	53.240	-0.300	0.400	0.060	53.230	-1.200	0.400																			1580010040.0	7.18	13.30
26/01/2020 03:40:41	26012020	260120	034041	53.240	12.479312	-57.550360	53.230	-0.460	0.340	0.230	53.240	-1.000	0.500																			1580010041.0	6.94	12.85
26/01/2020 03:40:42	26012020	260120	034042	53.240	12.479332	-57.550333	53.240	-0.380	-0.110	0.420	53.240	-1.300	0.700																			1580010042.0	7.15	13.24
26/01/2020 03:40:43	26012020	260120	034043	53.250	12.479352	-57.550303	53.220	-0.190	-0.460	0.600	53.250	-1.700	0.900																			1580010043.0	7.65	14.17
26/01/2020 03:40:44	26012020	260120	034044	53.210	12.479373	-57.550273	53.180	-0.010	-0.530	0.690	53.210	-1.900	1.100																			1580010044.0	7.82	14.48
26/01/2020 03:40:45	26012020	260120	034045	53.190	12.479393	-57.550243	53.110	0.070	-0.420	0.580	53.190	-1.900	1.000																			1580010045.0	7.58	14.04
26/01/2020 03:40:46	26012020	260120	034046	53.120	12.479413	-57.550217	53.050	0.070	-0.170	0.320	53.120	-1.700	0.900																			1580010046.0	7.40	13.70
26/01/2020 03:40:47	26012020	260120	034047	53.060	12.479435	-57.550190	53.100	0.050	0.020	-0.050	53.060	-1.500	0.500																			1580010047.0	7.28	13.48
26/01/2020 03:40:48	26012020	260120	034048	53.150	12.479458	-57.550165	53.260	0.100	-0.020	-0.420	53.150	-1.400	0.100																			1580010048.0	7.23	13.39
26/01/2020 03:40:49	26012020	260120	034049	53.330	12.479482	-57.550138	53.380	0.140	-0.120	-0.610	53.330	-1.500	-0.200																			1580010049.0	7.41	13.72
26/01/2020 03:40:50	26012020	260120	034050	53.440	12.479505	-57.550112	53.370	0.130	-0.170	-0.460	53.440	-1.600	-0.200																			1580010050.0	7.58	14.04
26/01/2020 03:40:51	26012020	260120	034051	53.400	12.479527	-57.550085	53.290	0.160	-0.250	-0.080	53.400	-1.600	0.100																			1580010051.0	7.50	13.89
26/01/2020 03:40:52	26012020	260120	034052	53.310	12.479547	-57.550055	53.260	0.180	-0.340	0.330	53.310	-1.700	0.500																			1580010052.0	7.48	13.85
26/01/2020 03:40:53	26012020	260120	034053	53.270	12.479567	-57.550027	53.270	0.100	-0.290	0.590	53.270	-1.700	0.900																			1580010053.0	7.60	14.08
26/01/2020 03:40:54	26012020	260120	034054	53.290	12.479587	-57.549997	53.280	-0.080	-0.110	0.750	53.290	-1.600	1.100																			1580010054.0	7.54	13.96
26/01/2020 03:40:55	26012020	260120	034055	53.300	12.479608	-57.549968	53.250	-0.280	0.110	0.900	53.300	-1.400	1.200																			1580010055.0	7.37	13.65
26/01/2020 03:40:56	26012020	260120	034056	53.260	12.479628	-57.549942	53.230	-0.370	0.170	0.910	53.260	-1.200	1.300																			1580010056.0	7.24	13.41
26/01/2020 03:40:57	26012020	260120	034057	53.270	12.479648	-57.549915	53.290	-0.270	-0.020	0.720	53.270	-1.300	1.200																			1580010057.0	7.22	13.37
26/01/2020 03:40:58	26012020	260120	034058	53.350	12.479670	-57.549887	53.380	-0.060	-0.280	0.420	53.350	-1.600	1.000																			1580010058.0	7.43	13.76
26/01/2020 03:40:59	26012020	260120	034059	53.440	12.479692	-57.549858	53.400	0.140	-0.380	0.160	53.440	-1.800	0.700																			1580010059.0	7.64	14.15
26/01/2020 03:41:00	26012020	260120	034100	53.450	12.479715	-57.549830	53.330	0.220	-0.340	-0.060	53.450	-1.800	0.400	1015.10	25.80	25.90	20.40	20.40	-1.00	71.00	71.00	390.00	25.30	4.00	8.70	60.00	4.90	15	3244.00	27.40	27.40	1580010060.0	7.61	14.09
26/01/2020 03:41:01	26012020	260120	034101	53.390	12.479737	-57.549803	53.320	0.210	-0.370	-0.350	53.390	-1.800	0.200																			1580010061.0	7.42	13.74
26/01/2020 03:41:02	26012020	260120	034102	53.390	12.479760	-57.549778	53.360	0.170	-0.340	-0.520	53.390	-1.800	-0.100																			1580010062.0	7.47	13.83
26/01/2020 03:41:03	26012020	260120	034103	53.420	12.479785	-57.549752	53.370	0.130	-0.160	-0.300	53.420	-1.700	-0.000																			1580010063.0	7.60	14.08
26/01/2020 03:41:04	26012020	260120	034104	53.420	12.479807	-57.549723	53.420	0.070	-0.020	0.070	53.420	-1.500	0.300																			1580010064.0	7.43	13.76
26/01/2020 03:41:05	26012020	260120	034105	53.480	12.479825	-57.549695	53.510	-0.070	0.010	0.330	53.480	-1.400	0.600																			1580010065.0	7.35	13.61
26/01/2020 03:41:06	26012020	260120	034106	53.550	12.479843	-57.549665	53.530	-0.260	-0.010	0.530	53.550	-1.400	0.800																			1580010066.0	7.46	13.82
26/01/2020 03:41:07	26012020	260120	034107	53.570	12.479863	-57.549637	53.530	-0.330	-0.030	0.680	53.570	-1.400	1.000																			1580010067.0	7.51	13.91
26/01/2020 03:41:08	26012020	260120	034108	53.560	12.479883	-57.549607	53.530	-0.160	-0.080	0.680	53.560	-1.500	1.100																			1580010068.0	7.46	13.82
26/01/2020 03:41:09	26012020	260120	034109	53.580	12.479905	-57.549580	53.570	0.150	-0.220	0.490	53.580	-1.600	1.000																			1580010069.0	7.44	13.78
26/01/2020 03:41:10	26012020	260120	034110	53.620	12.479927	-57.549552	53.580	0.360	-0.320	0.270	53.620	-1.700	0.800																			1580010070.0	7.53	13.95
26/01/2020 03:41:11	26012020	260120	034111	53.630	12.479950	-57.549525	53.530	0.320	-0.300	0.150	53.630	-1.700	0.600																			1580010071.0	7.60	14.08
26/01/2020 03:41:12	26012020	260120	034112	53.580	12.479973	-57.549497	53.490	0.080	-0.200	0.080	53.580	-1.700	0.500																			1580010072.0	7.55	13.98
26/01/2020 03:41:13	26012020	260120	034113	53.550	12.479995	-57.549470	53.540	-0.120	-0.110	-0.060	53.550	-1.600	0.400																			1580010073.0	7.41	13.72
26/01/2020 03:41:14	26012020	260120	034114	53.620	12.480017	-57.549445	53.700	-0.130	-0.100	-0.150	53.620	-1.500	0.300																			1580010074.0	7.36	13.63
26/01/2020 03:41:15	26012020	260120	034115	53.790	12.480040	-57.549417	53.830	-0.040	-0.180	-0.050	53.790	-1.500	0.300																			1580010075.0	7.40	13.70
26/01/2020 03:41:16	26012020	260120	034116	53.890	12.480060	-57.549388	53.810	-0.010	-0.310	0.180	53.890	-1.700	0.500																			1580010076.0	7.52	13.93
26/01/2020 03:41:17	26012020	260120	034117	53.840	12.480080	-57.549358	53.740	-0.060	-0.370	0.440	53.840	-1.800	0.700																			1580010077.0	7.64	14.15
26/01/2020 03:41:18	26012020	260120	034118	53.780	12.480100	-57.549328	53.700	-0.080	-0.270	0.620	53.780	-1.800	1.000																			1580010078.0	7.67	14.20
26/01/2020 03:41:19	26012020	260120	034119	53.740	12.480120	-57.549298	53.670	-0.040	-0.020	0.640	53.740	-1.600	1.000																			1580010079.0	7.56	14.00
26/01/2020 03:41:20	26012020	260120	034120	53.700	12.480140	-57.549272	53.590	-0.030	0.250	0.540	53.700	-1.300	1.000																			1580010080.0	7.40	13.70
26/01/2020 03:41:21	26012020	260120	034121	53.640	12.480162	-57.549243	53.550	-0.070	0.270	0.330	53.640	-1.100	0.900																			1580010081.0	7.24	13.41
26/01/2020 03:41:22	26012020	260120	034122	53.640	12.480182	-57.549217	53.680	-0.100	-0.040	0.020	53.640	-1.300	0.600																			1580010082.0	7.27	13.46
26/01/2020 03:41:23	26012020	260120	034123	53.780	12.480205	-57.549190	53.830	-0.050	-0.420	-0.290	53.780	-1.700	0.200																			1580010083.0	7.54	13.96
26/01/2020 03:41:24	26012020	260120	034124	53.920	12.480228	-57.549162	53.850	0.050	-0.570	-0.340	53.920	-1.900	0.000																			1580010084.0	7.76	14.37
26/01/2020 03:41:25	26012020	260120	034125	53.890	12.480252	-57.549133	53.670	0.120	-0.470	-0.130	53.890	-1.900	0.200																			1580010085.0	7.74	14.33
26/01/2020 03:41:26	26012020	260120	034126	53.700	12.480273	-57.549107	53.560	0.140	-0.320	0.090	53.700	-1.800	0.400																			1580010086.0	7.48	13.85
26/01/2020 03:41:27	26012020	260120	034127	53.610	12.480293	-57.549078	53.620	0.150	-0.230	0.220	53.610	-1.700	0.600																			1580010087.0	7.36	13.63
26/01/2020 03:41:28	26012020	260120	034128	53.680	12.480313	-57.549050	53.710	0.180	-0.200	0.370	53.680	-1.600	0.700																			1580010088.0	7.44	13.78
26/01/2020 03:41:29	26012020	260120	034129	53.750	12.480335	-57.549020	53.710	0.130	-0.120	0.530	53.750	-1.600	0.900																			1580010089.0	7.57	14.02
26/01/2020 03:41:30	26012020	260120	034130	53.740	12.480355	-57.548990	53.710	-0.050	0.090	0.600	53.740	-1.400	1.000																			1580010090.0	7.64	14.15
26/01/2020 03:41:31	26012020	260120	034131	53.760	12.480375	-57.548962	53.740	-0.230	0.280	0.600	53.760	-1.200	1.000																			1580010091.0	7.49	13.87
26/01/2020 03:41:32	26012020	260120	034132	53.790	12.480395	-57.548935	53.740	-0.260	0.220	0.480	53.790	-1.100	1.000																			1580010092.0	7.29	13.50
26/01/2020 03:41:33	26012020	260120	034133	53.790	12.480417	-57.548907	53.710	-0.160	-0.110	0.300	53.790	-1.400	0.800																			1580010093.0	7.33	13.58
26/01/2020 03:41:34	26012020	260120	034134	53.760	12.480438	-57.548878	53.710	-0.080	-0.480	0.170	53.760	-1.700	0.600																			1580010094.0	7.61	14.09
26/01/2020 03:41:35	26012020	260120	034135	53.760	12.480462	-57.548850	53.720	-0.090	-0.580	0.090	53.760	-2.000	0.500																			1580010095.0	7.80	14.45
26/01/2020 03:41:36	26012020	260120	034136	53.780	12.480483	-57.548822	53.710	-0.140	-0.370	0.090	53.780	-1.900	0.500																			1580010096.0	7.72	14.30
26/01/2020 03:41:37	26012020	260120	034137	53.770	12.480505	-57.548793	53.690	-0.090	-0.160	0.130	53.770	-1.600	0.500																			1580010097.0	7.39	13.69
26/01/2020 03:41:38	26012020	260120	034138	53.730	12.480525	-57.548767	53.670	0.080	-0.180	0.180	53.730	-1.600	0.600																			1580010098.0	7.21	13.35
26/01/2020 03:41:39	26012020	260120	034139	53.700	12.480545	-57.548738	53.640	0.260	-0.280	0.240	53.700	-1.700	0.600																			1580010099.0	7.44	13.78
26/01/2020 03:41:40	26012020	260120	034140	53.680	12.480567	-57.548708	53.580	0.280	-0.180	0.250	53.680	-1.700	0.700																			1580010100.0	7.71	14.28
26/01/2020 03:41:41	26012020	260120	034141	53.630	12.480587	-57.548680	53.560	0.120	-0.000	0.120	53.630	-1.500	0.600																			1580010101.0	7.67	14.20
26/01/2020 03:41:42	26012020	260120	034142	53.640	12.480608	-57.548652	53.620	-0.020	0.020	-0.070	53.640	-1.400	0.400																			1580010102.0	7.41	13.72
26/01/2020 03:41:43	26012020	260120	034143	53.730	12.480632	-57.548625	53.710	0.030	-0.140	-0.070	53.730	-1.500	0.300																			1580010103.0	7.42	13.74
26/01/2020 03:41:44	26012020	260120	034144	53.790	12.480655	-57.548598	53.680	0.140	-0.250	0.160	53.790	-1.600	0.400																			1580010104.0	7.65	14.17
26/01/2020 03:41:45	26012020	260120	034145	53.740	12.480677	-57.548568	53.600	0.090	-0.120	0.510	53.740	-1.600	0.700																			1580010105.0	7.78	14.41
26/01/2020 03:41:46	26012020	260120	034146	53.650	12.480697	-57.548538	53.570	-0.150	0.050	0.830	53.650	-1.400	1.100																			1580010106.0	7.57	14.02
26/01/2020 03:41:47	26012020	260120	034147	53.610	12.480715	-57.548510	53.580	-0.380	0.020	0.970	53.610	-1.300	1.300																			1580010107.0	7.29	13.50
26/01/2020 03:41:48	26012020	260120	034148	53.620	12.480733	-57.548482	53.530	-0.400	-0.250	0.920	53.620	-1.500	1.400																			1580010108.0	7.29	13.50
26/01/2020 03:41:49	26012020	260120	034149	53.580	12.480753	-57.548452	53.530	-0.180	-0.520	0.650	53.580	-1.800	1.200																			1580010109.0	7.55	13.98
26/01/2020 03:41:50	26012020	260120	034150	53.590	12.480777	-57.548423	53.560	0.040	-0.510	0.340	53.590	-2.000	0.900																			1580010110.0	7.79	14.43
26/01/2020 03:41:51	26012020	260120	034151	53.640	12.480800	-57.548395	53.520	0.090	-0.190	0.160	53.640	-1.800	0.600																			1580010111.0	7.75	14.35
26/01/2020 03:41:52	26012020	260120	034152	53.590	12.480822	-57.548368	53.370	0.050	0.120	0.090	53.590	-1.400	0.500																			1580010112.0	7.40	13.70
26/01/2020 03:41:53	26012020	260120	034153	53.430	12.480842	-57.548342	53.240	0.110	0.050	0.010	53.430	-1.300	0.500																			1580010113.0	7.16	13.26
26/01/2020 03:41:54	26012020	260120	034154	53.330	12.480863	-57.548315	53.220	0.300	-0.350	-0.090	53.330	-1.600	0.400																			1580010114.0	7.35	13.61
26/01/2020 03:41:55	26012020	260120	034155	53.310	12.480887	-57.548285	53.270	0.380	-0.540	-0.190	53.310	-1.900	0.300																			1580010115.0	7.86	14.56
26/01/2020 03:41:56	26012020	260120	034156	53.380	12.480908	-57.548255	53.400	0.200	-0.240	-0.250	53.380	-1.800	0.200																			1580010116.0	8.00	14.82
26/01/2020 03:41:57	26012020	260120	034157	53.500	12.480930	-57.548228	53.450	-0.070	0.170	-0.090	53.500	-1.400	0.200																			1580010117.0	7.50	13.89
26/01/2020 03:41:58	26012020	260120	034158	53.510	12.480950	-57.548202	53.360	-0.200	0.240	0.250	53.510	-1.200	0.500																			1580010118.0	7.07	13.09
26/01/2020 03:41:59	26012020	260120	034159	53.410	12.480970	-57.548173	53.260	-0.170	0.020	0.560	53.410	-1.300	0.800	1015.10	25.80	25.90	20.40	20.40	-1.00	71.00	71.00	389.00	25.30	1.00	8.60	56.00	4.80	15	3287.00	27.40	27.40	1580010119.0	7.23	13.39
26/01/2020 03:42:00	26012020	260120	034200	53.310	12.480992	-57.548145	53.160	-0.130	-0.200	0.900	53.310	-1.500	1.100																			1580010120.0	7.64	14.15
26/01/2020 03:42:01	26012020	260120	034201	53.190	12.481012	-57.548115	53.090	-0.200	-0.220	1.110	53.190	-1.600	1.400																			1580010121.0	7.79	14.43
26/01/2020 03:42:02	26012020	260120	034202	53.130	12.481032	-57.548085	53.130	-0.270	-0.220	1.030	53.130	-1.600	1.500																			1580010122.0	7.57	14.02
26/01/2020 03:42:03	26012020	260120	034203	53.190	12.481050	-57.548055	53.180	-0.120	-0.400	0.820	53.190	-1.700	1.300																			1580010123.0	7.30	13.52
26/01/2020 03:42:04	26012020	260120	034204	53.240	12.481070	-57.548028	53.150	0.210	-0.600	0.560	53.240	-1.900	1.100																			1580010124.0	7.41	13.72
26/01/2020 03:42:05	26012020	260120	034205	53.190	12.481093	-57.547998	53.000	0.450	-0.460	0.150	53.190	-2.000	0.800																			1580010125.0	7.72	14.30
26/01/2020 03:42:06	26012020	260120	034206	53.030	12.481117	-57.547972	52.790	0.370	0.040	-0.240	53.030	-1.600	0.300																			1580010126.0	7.72	14.30
26/01/2020 03:42:07	26012020	260120	034207	52.830	12.481140	-57.547947	52.660	0.090	0.350	-0.510	52.830	-1.100	0.000																			1580010127.0	7.30	13.52
26/01/2020 03:42:08	26012020	260120	034208	52.720	12.481163	-57.547923	52.700	-0.110	0.100	-0.640	52.720	-1.100	-0.200																			1580010128.0	7.10	13.15
26/01/2020 03:42:09	26012020	260120	034209	52.780	12.481187	-57.547897	52.810	-0.150	-0.340	-0.460	52.780	-1.600	-0.200																			1580010129.0	7.49	13.87
26/01/2020 03:42:10	26012020	260120	034210	52.880	12.481210	-57.547867	52.900	-0.160	-0.450	-0.000	52.880	-1.900	0.200																			1580010130.0	7.97	14.76
26/01/2020 03:42:11	26012020	260120	034211	52.930	12.481230	-57.547835	52.870	-0.230	-0.160	0.580	52.930	-1.700	0.700																			1580010131.0	7.89	14.61
26/01/2020 03:42:12	26012020	260120	034212	52.870	12.481247	-57.547805	52.740	-0.270	0.220	1.180	52.870	-1.300	1.300																			1580010132.0	7.45	13.80
26/01/2020 03:42:13	26012020	260120	034213	52.730	12.481263	-57.547775	52.660	-0.170	0.190	1.400	52.730	-1.100	1.800																			1580010133.0	7.09	13.13
26/01/2020 03:42:14	26012020	260120	034214	52.670	12.481280	-57.547747	52.650	0.110	-0.330	1.080	52.670	-1.500	1.700																			1580010134.0	7.14	13.22
26/01/2020 03:42:15	26012020	260120	034215	52.650	12.481303	-57.547718	52.550	0.390	-0.730	0.620	52.650	-2.000	1.200																			1580010135.0	7.66	14.19
26/01/2020 03:42:16	26012020	260120	034216	52.550	12.481330	-57.547692	52.430	0.440	-0.480	0.410	52.550	-2.100	0.900																			1580010136.0	8.14	15.08
26/01/2020 03:42:17	26012020	260120	034217	52.450	12.481355	-57.547665	52.470	0.250	-0.020	0.320	52.450	-1.600	0.800																			1580010137.0	7.69	14.24
26/01/2020 03:42:18	26012020	260120	034218	52.520	12.481377	-57.547642	52.590	0.020	0.020	0.230	52.520	-1.300	0.700																			1580010138.0	7.00	12.96
26/01/2020 03:42:19	26012020	260120	034219	52.620	12.481397	-57.547615	52.600	-0.140	-0.180	0.100	52.620	-1.500	0.600																			1580010139.0	7.17	13.28
26/01/2020 03:42:20	26012020	260120	034220	52.640	12.481418	-57.547585	52.520	-0.260	-0.190	0.020	52.640	-1.600	0.400																			1580010140.0	7.69	14.24
26/01/2020 03:42:21	26012020	260120	034221	52.560	12.481440	-57.547557	52.450	-0.260	-0.030	0.040	52.560	-1.500	0.400																			1580010141.0	7.67	14.20
26/01/2020 03:42:22	26012020	260120	034222	52.490	12.481462	-57.547528	52.460	-0.150	0.080	0.080	52.490	-1.400	0.500																			1580010142.0	7.38	13.67
26/01/2020 03:42:23	26012020	260120	034223	52.500	12.481483	-57.547502	52.480	0.010	-0.020	0.090	52.500	-1.300	0.500																			1580010143.0	7.30	13.52
26/01/2020 03:42:24	26012020	260120	034224	52.510	12.481505	-57.547475	52.470	0.110	-0.300	0.100	52.510	-1.600	0.500																			1580010144.0	7.40	13.70
26/01/2020 03:42:25	26012020	260120	034225	52.500	12.481527	-57.547447	52.500	0.110	-0.500	0.260	52.500	-1.800	0.600																			1580010145.0	7.62	14.11
26/01/2020 03:42:26	26012020	260120	034226	52.530	12.481548	-57.547418	52.600	0.000	-0.340	0.490	52.530	-1.900	0.800																			1580010146.0	7.73	14.32
26/01/2020 03:42:27	26012020	260120	034227	52.640	12.481568	-57.547388	52.650	-0.090	-0.030	0.680	52.640	-1.600	1.000																			1580010147.0	7.48	13.85
26/01/2020 03:42:28	26012020	260120	034228	52.640	12.481588	-57.547362	52.470	-0.080	0.110	0.810	52.640	-1.300	1.200																			1580010148.0	7.16	13.26
26/01/2020 03:42:29	26012020	260120	034229	52.430	12.481608	-57.547333	52.220	0.040	-0.060	0.760	52.430	-1.300	1.200																			1580010149.0	7.19	13.32
26/01/2020 03:42:30	26012020	260120	034230	52.190	12.481630	-57.547307	52.130	0.240	-0.410	0.450	52.190	-1.700	1.000																			1580010150.0	7.48	13.85
26/01/2020 03:42:31	26012020	260120	034231	52.160	12.481653	-57.547278	52.220	0.380	-0.510	-0.000	52.160	-1.900	0.600																			1580010151.0	7.82	14.48
26/01/2020 03:42:32	26012020	260120	034232	52.270	12.481680	-57.547252	52.310	0.340	-0.260	-0.230	52.270	-1.800	0.200																			1580010152.0	7.84	14.52
26/01/2020 03:42:33	26012020	260120	034233	52.370	12.481703	-57.547227	52.390	0.090	0.020	-0.170	52.370	-1.500	0.200																			1580010153.0	7.46	13.82
26/01/2020 03:42:34	26012020	260120	034234	52.430	12.481725	-57.547200	52.370	-0.290	0.150	0.140	52.430	-1.300	0.400																			1580010154.0	7.20	13.33
26/01/2020 03:42:35	26012020	260120	034235	52.380	12.481745	-57.547172	52.320	-0.590	0.150	0.420	52.380	-1.200	0.700																			1580010155.0	7.30	13.52
26/01/2020 03:42:36	26012020	260120	034236	52.350	12.481763	-57.547143	52.370	-0.570	-0.080	0.510	52.350	-1.400	0.900																			1580010156.0	7.37	13.65
26/01/2020 03:42:37	26012020	260120	034237	52.420	12.481783	-57.547115	52.430	-0.190	-0.450	0.530	52.420	-1.700	0.900																			1580010157.0	7.46	13.82
26/01/2020 03:42:38	26012020	260120	034238	52.470	12.481805	-57.547085	52.400	0.300	-0.620	0.560	52.470	-2.000	0.900																			1580010158.0	7.71	14.28
26/01/2020 03:42:39	26012020	260120	034239	52.440	12.481828	-57.547057	52.320	0.560	-0.420	0.520	52.420	-1.900	1.000																			1580010159.0	7.81	14.46
26/01/2020 03:42:40	26012020	260120	034240	52.330	12.481850	-57.547028	52.300	0.490	-0.060	0.310	52.330	-1.600	0.800																			1580010160.0	7.56	14.00
26/01/2020 03:42:41	26012020	260120	034241	52.320	12.481872	-57.547003	52.330	0.220	0.190	-0.010	52.320	-1.300	0.500																			1580010161.0	7.24	13.41
26/01/2020 03:42:42	26012020	260120	034242	52.370	12.481895	-57.546978	52.340	-0.080	0.230	-0.210	52.370	-1.200	0.300																			1580010162.0	7.20	13.33
26/01/2020 03:42:43	26012020	260120	034243	52.380	12.481918	-57.546953	52.310	-0.310	0.060	-0.150	52.380	-1.200	0.200																			1580010163.0	7.35	13.61
26/01/2020 03:42:44	26012020	260120	034244	52.340	12.481942	-57.546927	52.330	-0.350	-0.370	0.010	52.340	-1.500	0.300																			1580010164.0	7.45	13.80
26/01/2020 03:42:45	26012020	260120	034245	52.380	12.481963	-57.546898	52.480	-0.200	-0.820	0.130	52.380	-2.000	0.500																			1580010165.0	7.66	14.19
26/01/2020 03:42:46	26012020	260120	034246	52.550	12.481985	-57.546867	52.610	-0.030	-0.710	0.390	52.550	-2.300	0.600																			1580010166.0	7.97	14.76
26/01/2020 03:42:47	26012020	260120	034247	52.620	12.482007	-57.546837	52.550	-0.010	0.030	0.810	52.620	-1.700	1.000																			1580010167.0	7.83	14.50
26/01/2020 03:42:48	26012020	260120	034248	52.540	12.482025	-57.546808	52.460	-0.070	0.570	1.060	52.540	-1.000	1.400																			1580010168.0	7.11	13.17
26/01/2020 03:42:49	26012020	260120	034249	52.470	12.482042	-57.546783	52.440	0.050	0.240	0.900	52.470	-0.900	1.400																			1580010169.0	6.70	12.41
26/01/2020 03:42:50	26012020	260120	034250	52.460	12.482063	-57.546755	52.510	0.300	-0.470	0.390	52.460	-1.600	1.000																			1580010170.0	7.29	13.50
26/01/2020 03:42:51	26012020	260120	034251	52.550	12.482088	-57.546727	52.590	0.380	-0.610	-0.090	52.550	-2.100	0.500																			1580010171.0	8.20	15.19
26/01/2020 03:42:52	26012020	260120	034252	52.620	12.482115	-57.546700	52.580	0.120	-0.080	-0.330	52.620	-1.800	0.200																			1580010172.0	8.13	15.06
26/01/2020 03:42:53	26012020	260120	034253	52.610	12.482138	-57.546675	52.560	-0.230	0.330	-0.430	52.610	-1.200	0.000																			1580010173.0	7.20	13.33
26/01/2020 03:42:54	26012020	260120	034254	52.610	12.482158	-57.546652	52.620	-0.270	0.000	-0.500	52.610	-1.200	-0.100																			1580010174.0	6.68	12.37
26/01/2020 03:42:55	26012020	260120	034255	52.690	12.482182	-57.546625	52.670	0.020	-0.670	-0.410	52.690	-1.800	-0.100																			1580010175.0	7.22	13.37
26/01/2020 03:42:56	26012020	260120	034256	52.700	12.482205	-57.546597	52.620	0.270	-0.860	-0.030	52.700	-2.300	0.200																			1580010176.0	8.05	14.91
26/01/2020 03:42:57	26012020	260120	034257	52.630	12.482228	-57.546565	52.550	0.140	-0.270	0.460	52.630	-2.000	0.600																			1580010177.0	8.16	15.11
26/01/2020 03:42:58	26012020	260120	034258	52.580	12.482248	-57.546537	52.610	-0.230	0.390	0.800	52.580	-1.300	1.100																			1580010178.0	7.38	13.67
26/01/2020 03:42:59	26012020	260120	034259	52.660	12.482265	-57.546510	52.770	-0.450	0.430	0.860	52.660	-0.900	1.300																			1580010179.0	6.71	12.43
26/01/2020 03:43:00	26012020	260120	034300	52.840	12.482283	-57.546483	52.950	-0.320	-0.030	0.690	52.840	-1.200	1.200	1015.10	25.80	25.90	20.10	20.20	-1.00	70.00	71.00	389.00	25.30	4.00	9.30	59.00	5.50	15	3312.00	27.40	27.40	1580010180.0	6.94	12.85
26/01/2020 03:43:01	26012020	260120	034301	53.010	12.482305	-57.546455	53.100	-0.020	-0.380	0.480	53.010	-1.700	1.000																			1580010181.0	7.63	14.13
26/01/2020 03:43:02	26012020	260120	034302	53.170	12.482328	-57.546427	53.170	0.110	-0.240	0.440	53.170	-1.800	0.800																			1580010182.0	7.94	14.70
26/01/2020 03:43:03	26012020	260120	034303	53.210	12.482352	-57.546398	53.120	0.040	0.020	0.360	53.210	-1.500	0.800																			1580010183.0	7.50	13.89
26/01/2020 03:43:04	26012020	260120	034304	53.160	12.482372	-57.546373	53.020	0.040	-0.160	0.090	53.160	-1.400	0.600																			1580010184.0	6.96	12.89
26/01/2020 03:43:05	26012020	260120	034305	53.080	12.482393	-57.546347	53.020	0.270	-0.680	-0.320	53.080	-1.800	0.300																			1580010185.0	7.14	13.22
26/01/2020 03:43:06	26012020	260120	034306	53.120	12.482418	-57.546320	53.170	0.510	-0.900	-0.680	53.120	-2.300	-0.100																			1580010186.0	7.81	14.46
26/01/2020 03:43:07	26012020	260120	034307	53.280	12.482443	-57.546293	53.280	0.410	-0.410	-0.760	53.280	-2.100	-0.400																			1580010187.0	8.08	14.96
26/01/2020 03:43:08	26012020	260120	034308	53.350	12.482467	-57.546267	53.250	-0.020	0.340	-0.470	53.350	-1.400	-0.300																			1580010188.0	7.53	13.95
26/01/2020 03:43:09	26012020	260120	034309	53.310	12.482487	-57.546242	53.260	-0.410	0.640	-0.040	53.310	-0.800	0.200																			1580010189.0	6.85	12.69
26/01/2020 03:43:10	26012020	260120	034310	53.360	12.482507	-57.546215	53.480	-0.470	0.240	0.270	53.360	-0.900	0.500																			1580010190.0	6.84	12.67
26/01/2020 03:43:11	26012020	260120	034311	53.570	12.482525	-57.546185	53.660	-0.330	-0.260	0.590	53.570	-1.500	0.800																			1580010191.0	7.48	13.85
26/01/2020 03:43:12	26012020	260120	034312	53.710	12.482547	-57.546153	53.680	-0.280	-0.250	0.850	53.710	-1.700	1.100																			1580010192.0	8.03	14.87
26/01/2020 03:43:13	26012020	260120	034313	53.710	12.482565	-57.546123	53.650	-0.270	-0.050	0.930	53.710	-1.500	1.300																			1580010193.0	7.63	14.13
26/01/2020 03:43:14	26012020	260120	034314	53.670	12.482583	-57.546097	53.680	-0.030	-0.230	0.750	53.670	-1.500	1.300																			1580010194.0	6.96	12.89
26/01/2020 03:43:15	26012020	260120	034315	53.720	12.482603	-57.546070	53.730	0.420	-0.670	0.300	53.720	-1.900	0.900																			1580010195.0	7.10	13.15
26/01/2020 03:43:16	26012020	260120	034316	53.790	12.482627	-57.546042	53.700	0.720	-0.790	-0.180	53.790	-2.200	0.400																			1580010196.0	7.71	14.28
26/01/2020 03:43:17	26012020	260120	034317	53.760	12.482652	-57.546015	53.560	0.610	-0.380	-0.450	53.760	-2.000	0.000																			1580010197.0	7.90	14.63
26/01/2020 03:43:18	26012020	260120	034318	53.620	12.482677	-57.545990	53.420	0.210	0.170	-0.510	53.620	-1.500	-0.100																			1580010198.0	7.46	13.82
26/01/2020 03:43:19	26012020	260120	034319	53.480	12.482698	-57.545965	53.400	-0.160	0.370	-0.490	53.480	-1.100	-0.100																			1580010199.0	6.99	12.95
26/01/2020 03:43:20	26012020	260120	034320	53.490	12.482720	-57.545940	53.530	-0.330	0.200	-0.410	53.490	-1.100	-0.100																			1580010200.0	7.07	13.09
26/01/2020 03:43:21	26012020	260120	034321	53.640	12.482742	-57.545912	53.710	-0.390	-0.020	-0.280	53.640	-1.300	0.000																			1580010201.0	7.47	13.83
26/01/2020 03:43:22	26012020	260120	034322	53.820	12.482762	-57.545883	53.870	-0.420	-0.140	0.030	53.820	-1.500	0.300																			1580010202.0	7.64	14.15
26/01/2020 03:43:23	26012020	260120	034323	53.950	12.482782	-57.545853	53.940	-0.370	-0.220	0.400	53.950	-1.600	0.600																			1580010203.0	7.51	13.91
26/01/2020 03:43:24	26012020	260120	034324	53.990	12.482800	-57.545823	53.930	-0.120	-0.370	0.650	53.990	-1.700	0.900																			1580010204.0	7.35	13.61
26/01/2020 03:43:25	26012020	260120	034325	53.980	12.482820	-57.545795	53.910	0.240	-0.510	0.780	53.980	-1.900	1.100																			1580010205.0	7.40	13.70
26/01/2020 03:43:26	26012020	260120	034326	53.940	12.482840	-57.545765	53.840	0.510	-0.460	0.760	53.940	-1.900	1.200																			1580010206.0	7.53	13.95
26/01/2020 03:43:27	26012020	260120	034327	53.860	12.482862	-57.545738	53.730	0.540	-0.230	0.560	53.860	-1.800	1.100																			1580010207.0	7.50	13.89
26/01/2020 03:43:28	26012020	260120	034328	53.780	12.482883	-57.545712	53.720	0.360	-0.040	0.220	53.780	-1.500	0.800																			1580010208.0	7.34	13.59
26/01/2020 03:43:29	26012020	260120	034329	53.780	12.482907	-57.545685	53.740	0.050	0.060	-0.090	53.790	-1.400	0.400																			1580010209.0	7.31	13.54
26/01/2020 03:43:30	26012020	260120	034330	53.820	12.482928	-57.545660	53.740	-0.290	0.190	-0.200	53.820	-1.300	0.200																			1580010210.0	7.40	13.70
26/01/2020 03:43:31	26012020	260120	034331	53.830	12.482952	-57.545633	53.810	-0.470	0.230	-0.230	53.830	-1.200	0.200																			1580010211.0	7.37	13.65
26/01/2020 03:43:32	26012020	260120	034332	53.900	12.482972	-57.545607	53.860	-0.390	-0.080	-0.220	53.900	-1.300	0.200																			1580010212.0	7.22	13.37
26/01/2020 03:43:33	26012020	260120	034333	53.940	12.482993	-57.545578	53.830	-0.090	-0.570	-0.110	53.940	-1.700	0.200																			1580010213.0	7.39	13.69
26/01/2020 03:43:34	26012020	260120	034334	53.880	12.483015	-57.545548	53.790	0.160	-0.780	0.100	53.880	-2.100	0.400																			1580010214.0	7.78	14.41
26/01/2020 03:43:35	26012020	260120	034335	53.860	12.483035	-57.545518	53.890	0.190	-0.530	0.290	53.860	-2.100	0.600																			1580010215.0	7.83	14.50
26/01/2020 03:43:36	26012020	260120	034336	53.980	12.483055	-57.545490	54.100	0.120	-0.090	0.310	53.980	-1.700	0.700																			1580010216.0	7.43	13.76
26/01/2020 03:43:37	26012020	260120	034337	54.200	12.483075	-57.545463	54.210	0.090	0.240	0.360	54.200	-1.300	0.700																			1580010217.0	7.08	13.11
26/01/2020 03:43:38	26012020	260120	034338	54.240	12.483095	-57.545437	54.040	0.110	0.330	0.540	54.240	-1.100	0.900																			1580010218.0	7.12	13.19
26/01/2020 03:43:39	26012020	260120	034339	54.040	12.483115	-57.545408	53.860	0.120	0.070	0.550	54.040	-1.200	1.000																			1580010219.0	7.27	13.46
26/01/2020 03:43:40	26012020	260120	034340	53.890	12.483137	-57.545380	53.870	0.170	-0.400	0.220	53.890	-1.600	0.800																			1580010220.0	7.49	13.87
26/01/2020 03:43:41	26012020	260120	034341	53.950	12.483160	-57.545352	54.020	0.190	-0.580	-0.140	53.950	-2.000	0.400																			1580010221.0	7.81	14.46
26/01/2020 03:43:42	26012020	260120	034342	54.100	12.483183	-57.545325	54.130	0.090	-0.390	-0.300	54.100	-1.900	0.100																			1580010222.0	7.84	14.52
26/01/2020 03:43:43	26012020	260120	034343	54.190	12.483207	-57.545298	54.150	-0.170	-0.070	-0.200	54.190	-1.600	0.100																			1580010223.0	7.43	13.76
26/01/2020 03:43:44	26012020	260120	034344	54.220	12.483227	-57.545270	54.180	-0.450	0.130	0.040	54.220	-1.300	0.300																			1580010224.0	7.13	13.20
26/01/2020 03:43:45	26012020	260120	034345	54.220	12.483245	-57.545243	54.160	-0.520	0.050	0.320	54.220	-1.300	0.600																			1580010225.0	7.10	13.15
26/01/2020 03:43:46	26012020	260120	034346	54.220	12.483263	-57.545215	54.160	-0.330	-0.190	0.500	54.220	-1.500	0.800																			1580010226.0	7.34	13.59
26/01/2020 03:43:47	26012020	260120	034347	54.210	12.483283	-57.545185	54.060	-0.040	-0.350	0.580	54.210	-1.700	0.900																			1580010227.0	7.63	14.13
26/01/2020 03:43:48	26012020	260120	034348	54.100	12.483305	-57.545153	53.890	0.210	-0.340	0.590	54.100	-1.800	1.000																			1580010228.0	7.71	14.28
26/01/2020 03:43:49	26012020	260120	034349	53.930	12.483325	-57.545125	53.790	0.360	-0.240	0.380	53.930	-1.700	0.900																			1580010229.0	7.52	13.93
26/01/2020 03:43:50	26012020	260120	034350	53.870	12.483347	-57.545098	53.870	0.440	-0.180	-0.060	53.870	-1.600	0.600																			1580010230.0	7.36	13.63
26/01/2020 03:43:51	26012020	260120	034351	53.990	12.483368	-57.545072	54.040	0.420	-0.190	-0.490	53.990	-1.600	0.100																			1580010231.0	7.38	13.67
26/01/2020 03:43:52	26012020	260120	034352	54.160	12.483393	-57.545047	54.160	0.240	-0.140	-0.650	54.160	-1.600	-0.200																			1580010232.0	7.52	13.93
26/01/2020 03:43:53	26012020	260120	034353	54.260	12.483417	-57.545020	54.130	-0.120	0.060	-0.400	54.260	-1.400	-0.200																			1580010233.0	7.59	14.06
26/01/2020 03:43:54	26012020	260120	034354	54.190	12.483438	-57.544993	53.940	-0.460	0.170	0.120	54.190	-1.300	0.300																			1580010234.0	7.37	13.65
26/01/2020 03:43:55	26012020	260120	034355	53.980	12.483457	-57.544965	53.770	-0.540	-0.060	0.650	53.980	-1.300	0.800																			1580010235.0	7.17	13.28
26/01/2020 03:43:56	26012020	260120	034356	53.820	12.483475	-57.544935	53.770	-0.300	-0.460	1.010	53.820	-1.700	1.300																			1580010236.0	7.40	13.70
26/01/2020 03:43:57	26012020	260120	034357	53.830	12.483493	-57.544903	53.870	0.000	-0.610	1.080	53.830	-2.000	1.500																			1580010237.0	7.79	14.43
26/01/2020 03:43:58	26012020	260120	034358	53.940	12.483512	-57.544872	53.890	0.150	-0.400	0.910	53.940	-1.900	1.400																			1580010238.0	7.81	14.46
26/01/2020 03:43:59	26012020	260120	034359	53.950	12.483533	-57.544843	53.790	0.130	-0.070	0.630	53.950	-1.600	1.200	1015.10	25.80	25.90	20.30	20.30	-1.00	71.00	71.00	389.00	25.30	5.00	8.80	63.00	5.00	15	3326.00	27.40	27.40	1580010239.0	7.43	13.76
26/01/2020 03:44:00	26012020	260120	034400	53.840	12.483553	-57.544817	53.630	0.090	0.160	0.320	53.840	-1.300	0.900																			1580010240.0	7.19	13.32
26/01/2020 03:44:01	26012020	260120	034401	53.690	12.483577	-57.544792	53.490	0.100	0.130	-0.030	53.690	-1.200	0.500																			1580010241.0	7.20	13.33
26/01/2020 03:44:02	26012020	260120	034402	53.550	12.483600	-57.544765	53.400	0.190	-0.120	-0.420	53.550	-1.400	0.200																			1580010242.0	7.40	13.70
26/01/2020 03:44:03	26012020	260120	034403	53.490	12.483623	-57.544738	53.450	0.280	-0.430	-0.730	53.490	-1.700	-0.200																			1580010243.0	7.63	14.13
26/01/2020 03:44:04	26012020	260120	034404	53.570	12.483648	-57.544712	53.540	0.220	-0.520	-0.720	53.570	-1.900	-0.400																			1580010244.0	7.80	14.45
26/01/2020 03:44:05	26012020	260120	034405	53.640	12.483672	-57.544683	53.550	-0.060	-0.210	-0.400	53.640	-1.800	-0.200																			1580010245.0	7.76	14.37
26/01/2020 03:44:06	26012020	260120	034406	53.640	12.483692	-57.544655	53.540	-0.410	0.230	0.080	53.640	-1.400	0.200																			1580010246.0	7.40	13.70
26/01/2020 03:44:07	26012020	260120	034407	53.610	12.483708	-57.544627	53.530	-0.550	0.340	0.650	53.610	-1.100	0.800																			1580010247.0	7.00	12.96
26/01/2020 03:44:08	26012020	260120	034408	53.570	12.483727	-57.544598	53.450	-0.390	0.020	1.210	53.570	-1.200	1.300																			1580010248.0	7.06	13.08
26/01/2020 03:44:09	26012020	260120	034409	53.480	12.483743	-57.544568	53.310	-0.070	-0.460	1.530	53.480	-1.700	1.800																			1580010249.0	7.50	13.89
26/01/2020 03:44:10	26012020	260120	034410	53.320	12.483763	-57.544537	53.180	0.220	-0.730	1.470	53.320	-2.000	1.900																			1580010250.0	7.86	14.56
26/01/2020 03:44:11	26012020	260120	034411	53.210	12.483785	-57.544507	53.250	0.420	-0.660	1.000	53.210	-2.100	1.700																			1580010251.0	7.82	14.48
26/01/2020 03:44:12	26012020	260120	034412	53.330	12.483807	-57.544480	53.430	0.510	-0.390	0.350	53.330	-1.900	1.100																			1580010252.0	7.59	14.06
26/01/2020 03:44:13	26012020	260120	034413	53.530	12.483832	-57.544453	53.440	0.420	-0.020	-0.180	53.530	-1.600	0.400																			1580010253.0	7.40	13.70
26/01/2020 03:44:14	26012020	260120	034414	53.500	12.483855	-57.544428	53.230	0.130	0.330	-0.470	53.500	-1.200	0.000																			1580010254.0	7.36	13.63
26/01/2020 03:44:15	26012020	260120	034415	53.270	12.483878	-57.544403	53.030	-0.180	0.350	-0.580	53.270	-1.000	-0.100																			1580010255.0	7.27	13.46
26/01/2020 03:44:16	26012020	260120	034416	53.110	12.483902	-57.544378	53.020	-0.330	0.030	-0.610	53.110	-1.200	-0.200																			1580010256.0	7.31	13.54
26/01/2020 03:44:17	26012020	260120	034417	53.140	12.483923	-57.544352	53.210	-0.300	-0.320	-0.570	53.140	-1.600	-0.200																			1580010257.0	7.63	14.13
26/01/2020 03:44:18	26012020	260120	034418	53.330	12.483947	-57.544322	53.400	-0.260	-0.340	-0.240	53.330	-1.800	-0.000																			1580010258.0	7.85	14.54
26/01/2020 03:44:19	26012020	260120	034419	53.480	12.483967	-57.544293	53.480	-0.260	-0.230	0.350	53.510	-1.700	0.400																			1580010259.0	7.60	14.08
26/01/2020 03:44:20	26012020	260120	034420	53.570	12.483985	-57.544263	53.480	-0.260	-0.200	0.930	53.570	-1.600	1.100																			1580010260.0	7.30	13.52
26/01/2020 03:44:21	26012020	260120	034421	53.540	12.484002	-57.544233	53.430	-0.180	-0.250	1.250	53.540	-1.600	1.500																			1580010261.0	7.34	13.59
26/01/2020 03:44:22	26012020	260120	034422	53.490	12.484020	-57.544203	53.370	0.080	-0.340	1.230	53.490	-1.700	1.700																			1580010262.0	7.44	13.78
26/01/2020 03:44:23	26012020	260120	034423	53.420	12.484040	-57.544173	53.270	0.420	-0.330	0.950	53.420	-1.800	1.500																			1580010263.0	7.54	13.96
26/01/2020 03:44:24	26012020	260120	034424	53.290	12.484063	-57.544147	53.110	0.580	-0.120	0.560	53.290	-1.600	1.100																			1580010264.0	7.63	14.13
26/01/2020 03:44:25	26012020	260120	034425	53.150	12.484087	-57.544120	53.070	0.420	0.080	0.080	53.150	-1.400	0.700																			1580010265.0	7.50	13.89
26/01/2020 03:44:26	26012020	260120	034426	53.160	12.484110	-57.544095	53.260	0.110	-0.070	-0.500	53.160	-1.400	0.200																			1580010266.0	7.29	13.50
26/01/2020 03:44:27	26012020	260120	034427	53.380	12.484135	-57.544070	53.480	-0.130	-0.370	-0.820	53.380	-1.700	-0.300																			1580010267.0	7.45	13.80
26/01/2020 03:44:28	26012020	260120	034428	53.590	12.484160	-57.544043	53.560	-0.250	-0.380	-0.710	53.590	-1.800	-0.400																			1580010268.0	7.83	14.50
26/01/2020 03:44:29	26012020	260120	034429	53.630	12.484183	-57.544015	53.510	-0.270	-0.190	-0.260	53.630	-1.700	-0.100																			1580010269.0	7.74	14.33
26/01/2020 03:44:30	26012020	260120	034430	53.570	12.484202	-57.543987	53.460	-0.230	-0.070	0.330	53.570	-1.500	0.500																			1580010270.0	7.41	13.72
26/01/2020 03:44:31	26012020	260120	034431	53.530	12.484220	-57.543957	53.460	-0.210	0.020	0.780	53.530	-1.400	1.000																			1580010271.0	7.39	13.69
26/01/2020 03:44:32	26012020	260120	034432	53.510	12.484237	-57.543925	53.400	-0.260	0.150	1.020	53.510	-1.300	1.300																			1580010272.0	7.49	13.87
26/01/2020 03:44:33	26012020	260120	034433	53.440	12.484255	-57.543897	53.380	-0.250	0.170	0.930	53.440	-1.200	1.400																			1580010273.0	7.37	13.65
26/01/2020 03:44:34	26012020	260120	034434	53.450	12.484275	-57.543868	53.480	-0.050	-0.120	0.530	53.450	-1.400	1.100																			1580010274.0	7.25	13.43
26/01/2020 03:44:35	26012020	260120	034435	53.570	12.484298	-57.543842	53.550	0.330	-0.600	0.090	53.570	-1.800	0.700																			1580010275.0	7.41	13.72
26/01/2020 03:44:36	26012020	260120	034436	53.630	12.484323	-57.543815	53.480	0.630	-0.830	-0.160	53.630	-2.200	0.300																			1580010276.0	7.83	14.50
26/01/2020 03:44:37	26012020	260120	034437	53.530	12.484348	-57.543787	53.360	0.560	-0.600	-0.220	53.530	-2.200	0.200																			1580010277.0	7.97	14.76
26/01/2020 03:44:38	26012020	260120	034438	53.440	12.484372	-57.543760	53.330	0.180	-0.140	-0.100	53.440	-1.800	0.200																			1580010278.0	7.60	14.08
26/01/2020 03:44:39	26012020	260120	034439	53.420	12.484392	-57.543733	53.370	-0.250	0.300	0.090	53.420	-1.300	0.400																			1580010279.0	7.21	13.35
26/01/2020 03:44:40	26012020	260120	034440	53.440	12.484412	-57.543707	53.430	-0.510	0.470	0.270	53.440	-1.000	0.600																			1580010280.0	7.10	13.15
26/01/2020 03:44:41	26012020	260120	034441	53.500	12.484432	-57.543678	53.500	-0.500	0.230	0.470	53.500	-1.000	0.800																			1580010281.0	7.16	13.26
26/01/2020 03:44:42	26012020	260120	034442	53.550	12.484450	-57.543650	53.520	-0.270	-0.250	0.690	53.550	-1.400	1.000																			1580010282.0	7.45	13.80
26/01/2020 03:44:43	26012020	260120	034443	53.550	12.484470	-57.543618	53.430	0.010	-0.590	0.890	53.550	-1.900	1.200																			1580010283.0	7.81	14.46
26/01/2020 03:44:44	26012020	260120	034444	53.450	12.484490	-57.543588	53.330	0.190	-0.530	0.940	53.450	-2.000	1.300																			1580010284.0	7.91	14.65
26/01/2020 03:44:45	26012020	260120	034445	53.370	12.484512	-57.543558	53.290	0.250	-0.290	0.700	53.370	-1.800	1.200																			1580010285.0	7.58	14.04
26/01/2020 03:44:46	26012020	260120	034446	53.330	12.484533	-57.543532	53.310	0.270	-0.140	0.210	53.330	-1.600	0.900																			1580010286.0	7.24	13.41
26/01/2020 03:44:47	26012020	260120	034447	53.370	12.484555	-57.543507	53.360	0.260	-0.110	-0.330	53.370	-1.500	0.300																			1580010287.0	7.29	13.50
26/01/2020 03:44:48	26012020	260120	034448	53.440	12.484580	-57.543482	53.380	0.160	-0.100	-0.560	53.440	-1.500	-0.100																			1580010288.0	7.54	13.96
26/01/2020 03:44:49	26012020	260120	034449	53.440	12.484605	-57.543455	53.270	-0.050	-0.050	-0.420	53.440	-1.500	-0.100																			1580010289.0	7.61	14.09
26/01/2020 03:44:50	26012020	260120	034450	53.320	12.484627	-57.543427	53.140	-0.290	0.010	-0.100	53.320	-1.400	0.100																			1580010290.0	7.52	13.93
26/01/2020 03:44:51	26012020	260120	034451	53.190	12.484647	-57.543398	53.140	-0.360	-0.060	0.190	53.190	-1.400	0.500																			1580010291.0	7.39	13.69
26/01/2020 03:44:52	26012020	260120	034452	53.190	12.484665	-57.543370	53.190	-0.180	-0.250	0.480	53.190	-1.600	0.700																			1580010292.0	7.38	13.67
26/01/2020 03:44:53	26012020	260120	034453	53.230	12.484685	-57.543340	53.170	0.020	-0.330	0.710	53.230	-1.700	1.000																			1580010293.0	7.60	14.08
26/01/2020 03:44:54	26012020	260120	034454	53.210	12.484705	-57.543310	53.120	0.100	-0.300	0.820	53.210	-1.700	1.200																			1580010294.0	7.64	14.15
26/01/2020 03:44:55	26012020	260120	034455	53.150	12.484725	-57.543280	53.060	0.100	-0.270	0.810	53.140	-1.700	1.200																			1580010295.0	7.48	13.85
26/01/2020 03:44:56	26012020	260120	034456	53.110	12.484745	-57.543252	53.030	0.110	-0.190	0.670	53.110	-1.600	1.100																			1580010296.0	7.43	13.76
26/01/2020 03:44:57	26012020	260120	034457	53.090	12.484768	-57.543225	53.040	0.130	-0.070	0.400	53.090	-1.500	0.900																			1580010297.0	7.47	13.83
26/01/2020 03:44:58	26012020	260120	034458	53.090	12.484790	-57.543198	53.020	0.140	-0.060	0.130	53.090	-1.500	0.600																			1580010298.0	7.43	13.76
26/01/2020 03:44:59	26012020	260120	034459	53.080	12.484813	-57.543172	53.010	0.120	-0.170	-0.000	53.080	-1.500	0.400	1015.10	25.80	25.90	20.50	20.50	-1.00	72.00	72.00	389.00	25.30	3.00	8.90	59.00	5.00	15	3259.00	27.40	27.40	1580010299.0	7.44	13.78
26/01/2020 03:45:00	26012020	260120	034500	53.070	12.484835	-57.543145	53.010	0.020	-0.190	-0.010	53.070	-1.600	0.400																			1580010300.0	7.57	14.02
26/01/2020 03:45:01	26012020	260120	034501	53.060	12.484858	-57.543117	52.960	-0.180	-0.040	0.050	53.060	-1.500	0.400																			1580010301.0	7.61	14.09
26/01/2020 03:45:02	26012020	260120	034502	53.010	12.484878	-57.543088	52.940	-0.340	0.050	0.160	53.010	-1.400	0.500																			1580010302.0	7.39	13.69
26/01/2020 03:45:03	26012020	260120	034503	53.000	12.484898	-57.543062	52.960	-0.250	-0.170	0.290	53.000	-1.400	0.600																			1580010303.0	7.23	13.39
26/01/2020 03:45:04	26012020	260120	034504	53.030	12.484920	-57.543033	53.030	0.110	-0.570	0.350	53.030	-1.800	0.700																			1580010304.0	7.43	13.76
26/01/2020 03:45:05	26012020	260120	034505	53.110	12.484942	-57.543003	53.110	0.470	-0.710	0.350	53.110	-2.100	0.700																			1580010305.0	7.83	14.50
26/01/2020 03:45:06	26012020	260120	034506	53.180	12.484963	-57.542973	53.080	0.510	-0.320	0.380	53.180	-2.000	0.700																			1580010306.0	7.95	14.72
26/01/2020 03:45:07	26012020	260120	034507	53.150	12.484985	-57.542945	53.040	0.160	0.380	0.440	53.140	-1.300	0.800																			1580010307.0	7.56	14.00
26/01/2020 03:45:08	26012020	260120	034508	53.110	12.485005	-57.542920	53.110	-0.310	0.710	0.360	53.110	-0.800	0.800																			1580010308.0	6.93	12.83
26/01/2020 03:45:09	26012020	260120	034509	53.190	12.485025	-57.542895	53.280	-0.490	0.200	0.100	53.210	-0.900	0.600																			1580010309.0	6.74	12.48
26/01/2020 03:45:10	26012020	260120	034510	53.390	12.485047	-57.542868	53.380	-0.260	-0.640	-0.050	53.390	-1.700	0.400																			1580010310.0	7.35	13.61
26/01/2020 03:45:11	26012020	260120	034511	53.450	12.485072	-57.542838	53.220	0.060	-0.960	0.220	53.450	-2.300	0.400																			1580010311.0	8.14	15.08
26/01/2020 03:45:12	26012020	260120	034512	53.230	12.485093	-57.542808	52.950	0.120	-0.540	0.660	53.230	-2.200	0.800																			1580010312.0	8.17	15.13
26/01/2020 03:45:13	26012020	260120	034513	52.950	12.485113	-57.542778	52.880	-0.070	0.040	0.810	52.950	-1.600	1.200																			1580010313.0	7.48	13.85
26/01/2020 03:45:14	26012020	260120	034514	52.960	12.485130	-57.542752	53.100	-0.210	0.280	0.490	52.960	-1.200	1.100																			1580010314.0	6.90	12.78
26/01/2020 03:45:15	26012020	260120	034515	53.210	12.485150	-57.542725	53.280	-0.110	0.170	-0.020	53.210	-1.100	0.600																			1580010315.0	6.97	12.91
26/01/2020 03:45:16	26012020	260120	034516	53.380	12.485173	-57.542698	53.260	0.200	-0.170	-0.330	53.380	-1.400	0.200																			1580010316.0	7.35	13.61
26/01/2020 03:45:17	26012020	260120	034517	53.320	12.485197	-57.542672	53.150	0.470	-0.510	-0.330	53.320	-1.800	0.000																			1580010317.0	7.70	14.26
26/01/2020 03:45:18	26012020	260120	034518	53.190	12.485220	-57.542643	53.000	0.480	-0.540	-0.200	53.190	-2.000	0.100																			1580010318.0	7.89	14.61
26/01/2020 03:45:19	26012020	260120	034519	53.030	12.485243	-57.542615	52.910	0.230	-0.240	-0.070	53.030	-1.800	0.300																			1580010319.0	7.76	14.37
26/01/2020 03:45:20	26012020	260120	034520	52.980	12.485265	-57.542588	53.030	-0.090	0.100	0.070	52.980	-1.400	0.400																			1580010320.0	7.38	13.67
26/01/2020 03:45:21	26012020	260120	034521	53.120	12.485285	-57.542562	53.240	-0.310	0.140	0.280	53.120	-1.200	0.600																			1580010321.0	7.07	13.09
26/01/2020 03:45:22	26012020	260120	034522	53.320	12.485305	-57.542533	53.310	-0.400	-0.050	0.550	53.320	-1.400	0.800																			1580010322.0	7.23	13.39
26/01/2020 03:45:23	26012020	260120	034523	53.360	12.485325	-57.542503	53.200	-0.400	-0.090	0.880	53.360	-1.500	1.100																			1580010323.0	7.58	14.04
26/01/2020 03:45:24	26012020	260120	034524	53.220	12.485345	-57.542473	53.050	-0.360	0.040	1.160	53.220	-1.400	1.400																			1580010324.0	7.62	14.11
26/01/2020 03:45:25	26012020	260120	034525	53.080	12.485363	-57.542445	52.980	-0.160	-0.090	1.160	53.080	-1.400	1.600																			1580010325.0	7.27	13.46
26/01/2020 03:45:26	26012020	260120	034526	53.020	12.485383	-57.542417	52.970	0.250	-0.580	0.900	53.020	-1.700	1.400																			1580010326.0	7.20	13.33
26/01/2020 03:45:27	26012020	260120	034527	53.020	12.485405	-57.542388	52.950	0.560	-0.840	0.480	53.020	-2.200	1.100																			1580010327.0	7.70	14.26
26/01/2020 03:45:28	26012020	260120	034528	53.000	12.485428	-57.542360	52.870	0.450	-0.470	-0.050	53.000	-2.100	0.600																			1580010328.0	8.01	14.83
26/01/2020 03:45:29	26012020	260120	034529	52.920	12.485453	-57.542333	52.770	0.020	0.230	-0.470	52.920	-1.500	0.100																			1580010329.0	7.59	14.06
26/01/2020 03:45:30	26012020	260120	034530	52.830	12.485477	-57.542310	52.780	-0.290	0.600	-0.710	52.830	-0.900	-0.200																			1580010330.0	6.95	12.87
26/01/2020 03:45:31	26012020	260120	034531	52.870	12.485498	-57.542288	52.850	-0.180	0.170	-0.780	52.870	-1.000	-0.400																			1580010331.0	6.76	12.52
26/01/2020 03:45:32	26012020	260120	034532	52.940	12.485520	-57.542262	52.870	0.160	-0.570	-0.560	52.940	-1.700	-0.300																			1580010332.0	7.38	13.67
26/01/2020 03:45:33	26012020	260120	034533	52.910	12.485543	-57.542230	52.760	0.290	-0.810	-0.060	52.910	-2.200	0.100																			1580010333.0	8.15	15.09
26/01/2020 03:45:34	26012020	260120	034534	52.780	12.485565	-57.542198	52.690	0.030	-0.350	0.480	52.780	-2.000	0.600																			1580010334.0	8.14	15.08
26/01/2020 03:45:35	26012020	260120	034535	52.720	12.485583	-57.542170	52.770	-0.370	0.280	0.800	52.720	-1.400	1.100																			1580010335.0	7.37	13.65
26/01/2020 03:45:36	26012020	260120	034536	52.840	12.485602	-57.542143	52.900	-0.500	0.470	0.990	52.840	-1.000	1.300																			1580010336.0	6.73	12.46
26/01/2020 03:45:37	26012020	260120	034537	52.950	12.485620	-57.542117	52.910	-0.270	0.150	1.140	52.950	-1.100	1.500																			1580010337.0	6.83	12.65
26/01/2020 03:45:38	26012020	260120	034538	52.940	12.485640	-57.542088	52.850	0.090	-0.410	1.170	52.940	-1.600	1.600																			1580010338.0	7.37	13.65
26/01/2020 03:45:39	26012020	260120	034539	52.850	12.485662	-57.542058	52.750	0.300	-0.760	0.990	52.850	-2.100	1.500																			1580010339.0	7.83	14.50
26/01/2020 03:45:40	26012020	260120	034540	52.760	12.485685	-57.542030	52.650	0.240	-0.530	0.720	52.760	-2.100	1.200																			1580010340.0	7.93	14.69
26/01/2020 03:45:41	26012020	260120	034541	52.670	12.485707	-57.542003	52.620	0.060	-0.000	0.320	52.670	-1.700	0.900																			1580010341.0	7.53	13.95
26/01/2020 03:45:42	26012020	260120	034542	52.690	12.485730	-57.541978	52.730	-0.050	0.210	-0.210	52.690	-1.200	0.400																			1580010342.0	6.97	12.91
26/01/2020 03:45:43	26012020	260120	034543	52.840	12.485752	-57.541955	52.890	0.010	-0.110	-0.660	52.840	-1.300	-0.100																			1580010343.0	6.96	12.89
26/01/2020 03:45:44	26012020	260120	034544	53.000	12.485777	-57.541930	52.960	0.150	-0.530	-0.800	53.000	-1.800	-0.400																			1580010344.0	7.46	13.82
26/01/2020 03:45:45	26012020	260120	034545	53.060	12.485800	-57.541900	52.920	0.160	-0.510	-0.570	53.060	-2.000	-0.300																			1580010345.0	7.92	14.67
26/01/2020 03:45:46	26012020	260120	034546	53.000	12.485822	-57.541872	52.850	0.010	-0.090	-0.130	53.000	-1.700	0.000																			1580010346.0	7.78	14.41
26/01/2020 03:45:47	26012020	260120	034547	52.920	12.485840	-57.541843	52.860	-0.150	0.240	0.250	52.920	-1.300	0.500																			1580010347.0	7.26	13.45
26/01/2020 03:45:48	26012020	260120	034548	52.940	12.485860	-57.541817	52.950	-0.170	0.250	0.400	52.940	-1.100	0.700																			1580010348.0	7.02	13.00
26/01/2020 03:45:49	26012020	260120	034549	53.030	12.485880	-57.541788	53.010	-0.070	0.070	0.480	53.030	-1.200	0.800																			1580010349.0	7.23	13.39
26/01/2020 03:45:50	26012020	260120	034550	53.070	12.485902	-57.541760	53.020	0.060	-0.120	0.650	53.070	-1.400	0.900																			1580010350.0	7.47	13.83
26/01/2020 03:45:51	26012020	260120	034551	53.070	12.485922	-57.541733	53.060	0.140	-0.420	0.740	53.070	-1.700	1.100																			1580010351.0	7.47	13.83
26/01/2020 03:45:52	26012020	260120	034552	53.110	12.485943	-57.541705	53.120	0.140	-0.810	0.690	53.110	-2.000	1.100																			1580010352.0	7.49	13.87
26/01/2020 03:45:53	26012020	260120	034553	53.160	12.485965	-57.541675	53.190	0.040	-0.740	0.610	53.180	-2.300	1.000																			1580010353.0	7.74	14.33
26/01/2020 03:45:54	26012020	260120	034554	53.230	12.485988	-57.541647	53.190	-0.230	-0.010	0.580	53.230	-1.800	1.000																			1580010354.0	7.77	14.39
26/01/2020 03:45:55	26012020	260120	034555	53.230	12.486008	-57.541620	53.170	-0.510	0.650	0.510	53.230	-1.000	1.000																			1580010355.0	7.11	13.17
26/01/2020 03:45:56	26012020	260120	034556	53.210	12.486027	-57.541595	53.160	-0.480	0.510	0.230	53.210	-0.700	0.800																			1580010356.0	6.56	12.15
26/01/2020 03:45:57	26012020	260120	034557	53.220	12.486047	-57.541570	53.230	-0.010	-0.320	-0.220	53.230	-1.300	0.400																			1580010357.0	6.95	12.87
26/01/2020 03:45:58	26012020	260120	034558	53.310	12.486072	-57.541542	53.250	0.610	-1.040	-0.570	53.310	-2.200	-0.000																			1580010358.0	7.87	14.58
26/01/2020 03:45:59	26012020	260120	034559	53.330	12.486097	-57.541512	53.210	0.920	-1.020	-0.690	53.330	-2.500	-0.300																			1580010359.0	8.38	15.52
26/01/2020 03:46:00	26012020	260120	034600	53.270	12.486122	-57.541483	53.140	0.680	-0.300	-0.610	53.270	-2.100	-0.300	1015.00	25.80	25.80	20.40	20.40	-1.00	72.00	71.00	389.00	25.30	4.00	8.60	60.00	4.70	15	3157.00	27.40	27.40	1580010360.0	8.03	14.87
26/01/2020 03:46:01	26012020	260120	034601	53.200	12.486143	-57.541457	53.140	0.100	0.500	-0.370	53.200	-1.200	-0.100																			1580010361.0	7.22	13.37
26/01/2020 03:46:02	26012020	260120	034602	53.220	12.486163	-57.541433	53.280	-0.440	0.780	-0.070	53.220	-0.700	0.200																			1580010362.0	6.66	12.33
26/01/2020 03:46:03	26012020	260120	034603	53.390	12.486182	-57.541407	53.460	-0.720	0.480	0.290	53.390	-0.700	0.500																			1580010363.0	6.80	12.59
26/01/2020 03:46:04	26012020	260120	034604	53.550	12.486202	-57.541378	53.540	-0.700	-0.030	0.690	53.550	-1.200	0.900																			1580010364.0	7.34	13.59
26/01/2020 03:46:05	26012020	260120	034605	53.610	12.486220	-57.541348	53.530	-0.500	-0.420	1.050	53.610	-1.700	1.300																			1580010365.0	7.71	14.28
26/01/2020 03:46:06	26012020	260120	034606	53.580	12.486240	-57.541317	53.470	-0.180	-0.620	1.260	53.580	-1.900	1.600																			1580010366.0	7.69	14.24
26/01/2020 03:46:07	26012020	260120	034607	53.510	12.486260	-57.541288	53.440	0.180	-0.700	1.140	53.510	-2.100	1.600																			1580010367.0	7.48	13.85
26/01/2020 03:46:08	26012020	260120	034608	53.480	12.486280	-57.541260	53.370	0.500	-0.710	0.710	53.480	-2.100	1.300																			1580010368.0	7.36	13.63
26/01/2020 03:46:09	26012020	260120	034609	53.410	12.486302	-57.541233	53.240	0.630	-0.540	0.270	53.410	-2.100	0.900																			1580010369.0	7.44	13.78
26/01/2020 03:46:10	26012020	260120	034610	53.280	12.486325	-57.541207	53.160	0.490	-0.160	-0.100	53.280	-1.800	0.500																			1580010370.0	7.52	13.93
26/01/2020 03:46:11	26012020	260120	034611	53.220	12.486348	-57.541182	53.170	0.170	0.170	-0.490	53.220	-1.400	0.100																			1580010371.0	7.37	13.65
26/01/2020 03:46:12	26012020	260120	034612	53.250	12.486372	-57.541157	53.270	-0.120	0.340	-0.780	53.260	-1.100	-0.300																			1580010372.0	7.27	13.46
26/01/2020 03:46:13	26012020	260120	034613	53.380	12.486395	-57.541132	53.430	-0.280	0.300	-0.820	53.380	-1.100	-0.400																			1580010373.0	7.35	13.61
26/01/2020 03:46:14	26012020	260120	034614	53.540	12.486418	-57.541103	53.600	-0.250	0.020	-0.630	53.540	-1.200	-0.400																			1580010374.0	7.41	13.72
26/01/2020 03:46:15	26012020	260120	034615	53.710	12.486438	-57.541075	53.700	-0.120	-0.270	-0.180	53.710	-1.600	-0.000																			1580010375.0	7.55	13.98
26/01/2020 03:46:16	26012020	260120	034616	53.770	12.486458	-57.541045	53.620	-0.060	-0.240	0.470	53.770	-1.700	0.500																			1580010376.0	7.74	14.33
26/01/2020 03:46:17	26012020	260120	034617	53.650	12.486477	-57.541015	53.470	-0.140	-0.070	1.020	53.650	-1.600	1.200																			1580010377.0	7.55	13.98
26/01/2020 03:46:18	26012020	260120	034618	53.510	12.486495	-57.540985	53.380	-0.130	-0.130	1.210	53.480	-1.500	1.600																			1580010378.0	7.15	13.24
26/01/2020 03:46:19	26012020	260120	034619	53.420	12.486513	-57.540958	53.400	0.090	-0.460	1.080	53.420	-1.700	1.600																			1580010379.0	7.12	13.19
26/01/2020 03:46:20	26012020	260120	034620	53.450	12.486533	-57.540930	53.480	0.340	-0.650	0.690	53.470	-2.000	1.300																			1580010380.0	7.52	13.93
26/01/2020 03:46:21	26012020	260120	034621	53.540	12.486558	-57.540902	53.540	0.370	-0.520	0.210	53.550	-2.000	0.800																			1580010381.0	7.76	14.37
26/01/2020 03:46:22	26012020	260120	034622	53.610	12.486582	-57.540877	53.580	0.200	-0.190	-0.050	53.620	-1.800	0.400																			1580010382.0	7.58	14.04
26/01/2020 03:46:23	26012020	260120	034623	53.650	12.486605	-57.540850	53.600	-0.060	0.160	-0.090	53.660	-1.400	0.300																			1580010383.0	7.34	13.59
26/01/2020 03:46:24	26012020	260120	034624	53.660	12.486627	-57.540825	53.590	-0.260	0.320	-0.050	53.660	-1.100	0.300																			1580010384.0	7.18	13.30
26/01/2020 03:46:25	26012020	260120	034625	53.650	12.486647	-57.540797	53.620	-0.300	0.110	-0.050	53.650	-1.200	0.300																			1580010385.0	7.18	13.30
26/01/2020 03:46:26	26012020	260120	034626	53.690	12.486667	-57.540768	53.670	-0.200	-0.250	-0.010	53.700	-1.500	0.400																			1580010386.0	7.45	13.80
26/01/2020 03:46:27	26012020	260120	034627	53.750	12.486688	-57.540738	53.720	-0.030	-0.400	0.000	53.760	-1.800	0.400																			1580010387.0	7.75	14.35
26/01/2020 03:46:28	26012020	260120	034628	53.790	12.486708	-57.540710	53.710	0.150	-0.320	-0.010	53.800	-1.800	0.400																			1580010388.0	7.70	14.26
26/01/2020 03:46:29	26012020	260120	034629	53.790	12.486730	-57.540682	53.620	0.250	-0.170	0.120	53.780	-1.700	0.400																			1580010389.0	7.40	13.70
26/01/2020 03:46:30	26012020	260120	034630	53.700	12.486752	-57.540655	53.520	0.230	-0.100	0.270	53.670	-1.500	0.600																			1580010390.0	7.26	13.45
26/01/2020 03:46:31	26012020	260120	034631	53.590	12.486772	-57.540627	53.460	0.100	-0.170	0.340	53.580	-1.600	0.700																			1580010391.0	7.29	13.50
26/01/2020 03:46:32	26012020	260120	034632	53.540	12.486793	-57.540600	53.480	-0.090	-0.170	0.380	53.530	-1.600	0.800																			1580010392.0	7.48	13.85
26/01/2020 03:46:33	26012020	260120	034633	53.550	12.486815	-57.540572	53.640	-0.180	-0.150	0.410	53.580	-1.600	0.800																			1580010393.0	7.51	13.91
26/01/2020 03:46:34	26012020	260120	034634	53.710	12.486837	-57.540545	53.800	-0.100	-0.190	0.500	53.750	-1.600	0.800																			1580010394.0	7.39	13.69
26/01/2020 03:46:35	26012020	260120	034635	53.880	12.486857	-57.540515	53.820	0.040	-0.220	0.640	53.890	-1.600	1.000																			1580010395.0	7.45	13.80
26/01/2020 03:46:36	26012020	260120	034636	53.880	12.486875	-57.540487	53.660	0.110	-0.170	0.710	53.860	-1.600	1.100																			1580010396.0	7.52	13.93
26/01/2020 03:46:37	26012020	260120	034637	53.720	12.486895	-57.540457	53.500	0.080	-0.140	0.650	53.690	-1.600	1.100																			1580010397.0	7.47	13.83
26/01/2020 03:46:38	26012020	260120	034638	53.560	12.486917	-57.540428	53.480	0.030	-0.130	0.340	53.540	-1.600	0.900																			1580010398.0	7.39	13.69
26/01/2020 03:46:39	26012020	260120	034639	53.540	12.486938	-57.540402	53.640	-0.000	-0.080	-0.140	53.550	-1.500	0.500																			1580010399.0	7.45	13.80
26/01/2020 03:46:40	26012020	260120	034640	53.700	12.486962	-57.540377	53.850	-0.030	-0.070	-0.490	53.750	-1.500	0.000																			1580010400.0	7.44	13.78
26/01/2020 03:46:41	26012020	260120	034641	53.920	12.486985	-57.540350	53.870	-0.100	-0.130	-0.430	53.950	-1.500	-0.100																			1580010401.0	7.41	13.72
26/01/2020 03:46:42	26012020	260120	034642	53.950	12.487007	-57.540323	53.640	-0.160	-0.270	-0.070	53.920	-1.600	0.100																			1580010402.0	7.42	13.74
26/01/2020 03:46:43	26012020	260120	034643	53.720	12.487027	-57.540293	53.450	-0.120	-0.390	0.290	53.670	-1.800	0.500																			1580010403.0	7.50	13.89
26/01/2020 03:46:44	26012020	260120	034644	53.500	12.487045	-57.540263	53.440	-0.000	-0.420	0.440	53.490	-1.800	0.800																			1580010404.0	7.59	14.06
26/01/2020 03:46:45	26012020	260120	034645	53.500	12.487065	-57.540233	53.540	0.120	-0.280	0.400	53.510	-1.800	0.800																			1580010405.0	7.60	14.08
26/01/2020 03:46:46	26012020	260120	034646	53.610	12.487087	-57.540205	53.570	0.180	-0.020	0.300	53.620	-1.600	0.700																			1580010406.0	7.51	13.91
26/01/2020 03:46:47	26012020	260120	034647	53.650	12.487108	-57.540178	53.540	0.190	0.160	0.240	53.640	-1.300	0.700																			1580010407.0	7.32	13.56
26/01/2020 03:46:48	26012020	260120	034648	53.620	12.487130	-57.540152	53.550	0.130	0.130	0.250	53.620	-1.300	0.600																			1580010408.0	7.25	13.43
26/01/2020 03:46:49	26012020	260120	034649	53.620	12.487150	-57.540125	53.560	-0.010	-0.040	0.290	53.630	-1.400	0.700																			1580010409.0	7.37	13.65
26/01/2020 03:46:50	26012020	260120	034650	53.630	12.487172	-57.540095	53.510	-0.140	-0.270	0.250	53.620	-1.600	0.700																			1580010410.0	7.50	13.89
26/01/2020 03:46:51	26012020	260120	034651	53.590	12.487192	-57.540067	53.370	-0.170	-0.440	0.260	53.570	-1.800	0.600																			1580010411.0	7.57	14.02
26/01/2020 03:46:52	26012020	260120	034652	53.460	12.487215	-57.540038	53.150	-0.110	-0.390	0.450	53.420	-1.900	0.700																			1580010412.0	7.62	14.11
26/01/2020 03:46:53	26012020	260120	034653	53.230	12.487235	-57.540010	53.020	-0.030	-0.230	0.600	53.190	-1.700	0.900																			1580010413.0	7.52	13.93
26/01/2020 03:46:54	26012020	260120	034654	53.070	12.487255	-57.539982	53.040	0.050	-0.190	0.480	53.060	-1.600	1.000																			1580010414.0	7.32	13.56
26/01/2020 03:46:55	26012020	260120	034655	53.100	12.487277	-57.539955	53.160	0.090	-0.220	0.230	53.120	-1.600	0.700																			1580010415.0	7.37	13.65
26/01/2020 03:46:56	26012020	260120	034656	53.220	12.487298	-57.539927	53.160	0.010	-0.060	0.220	53.230	-1.600	0.600																			1580010416.0	7.56	14.00
26/01/2020 03:46:57	26012020	260120	034657	53.230	12.487318	-57.539898	53.090	-0.150	0.170	0.320	53.220	-1.300	0.700																			1580010417.0	7.50	13.89
26/01/2020 03:46:58	26012020	260120	034658	53.170	12.487338	-57.539870	53.020	-0.230	0.090	0.300	53.160	-1.200	0.700																			1580010418.0	7.20	13.33
26/01/2020 03:46:59	26012020	260120	034659	53.100	12.487358	-57.539843	52.910	-0.100	-0.310	0.180	53.080	-1.500	0.600																			1580010419.0	7.26	13.45
26/01/2020 03:47:00	26012020	260120	034700	52.990	12.487382	-57.539815	52.840	0.190	-0.620	0.060	52.970	-1.900	0.500	1015.10	25.80	25.90	20.50	20.50	-1.00	72.00	72.00	389.00	25.30	3.00	8.90	58.00	5.10	15	3319.00	27.40	27.40	1580010420.0	7.69	14.24
26/01/2020 03:47:01	26012020	260120	034701	52.910	12.487405	-57.539787	52.800	0.410	-0.530	0.090	52.890	-2.000	0.400																			1580010421.0	7.91	14.65
26/01/2020 03:47:02	26012020	260120	034702	52.860	12.487428	-57.539758	52.780	0.380	-0.110	0.190	52.860	-1.700	0.500																			1580010422.0	7.70	14.26
26/01/2020 03:47:03	26012020	260120	034703	52.840	12.487448	-57.539732	52.810	0.110	0.220	0.230	52.850	-1.300	0.600																			1580010423.0	7.27	13.46
26/01/2020 03:47:04	26012020	260120	034704	52.880	12.487468	-57.539705	52.860	-0.170	0.200	0.310	52.890	-1.200	0.700																			1580010424.0	7.06	13.08
26/01/2020 03:47:05	26012020	260120	034705	52.930	12.487490	-57.539678	52.940	-0.300	-0.020	0.470	52.940	-1.300	0.800																			1580010425.0	7.26	13.45
26/01/2020 03:47:06	26012020	260120	034706	53.000	12.487510	-57.539648	53.020	-0.300	-0.230	0.660	53.010	-1.500	1.000																			1580010426.0	7.58	14.04
26/01/2020 03:47:07	26012020	260120	034707	53.060	12.487532	-57.539620	53.060	-0.190	-0.440	0.760	53.070	-1.800	1.100																			1580010427.0	7.62	14.11
26/01/2020 03:47:08	26012020	260120	034708	53.110	12.487552	-57.539590	53.050	-0.060	-0.500	0.780	53.110	-1.900	1.200																			1580010428.0	7.62	14.11
26/01/2020 03:47:09	26012020	260120	034709	53.100	12.487572	-57.539560	52.910	0.010	-0.290	0.710	53.080	-1.800	1.100																			1580010429.0	7.65	14.17
26/01/2020 03:47:10	26012020	260120	034710	52.970	12.487593	-57.539532	52.750	0.040	-0.010	0.550	52.940	-1.500	1.000																			1580010430.0	7.45	13.80
26/01/2020 03:47:11	26012020	260120	034711	52.810	12.487615	-57.539505	52.670	0.110	0.010	0.260	52.790	-1.400	0.800																			1580010431.0	7.20	13.33
26/01/2020 03:47:12	26012020	260120	034712	52.740	12.487637	-57.539480	52.720	0.200	-0.210	-0.160	52.750	-1.500	0.400																			1580010432.0	7.31	13.54
26/01/2020 03:47:13	26012020	260120	034713	52.790	12.487660	-57.539453	52.790	0.170	-0.320	-0.490	52.800	-1.700	0.000																			1580010433.0	7.66	14.19
26/01/2020 03:47:14	26012020	260120	034714	52.850	12.487685	-57.539425	52.780	-0.060	-0.070	-0.490	52.860	-1.600	-0.100																			1580010434.0	7.80	14.45
26/01/2020 03:47:15	26012020	260120	034715	52.840	12.487707	-57.539398	52.720	-0.360	0.240	-0.260	52.840	-1.300	0.000																			1580010435.0	7.50	13.89
26/01/2020 03:47:16	26012020	260120	034716	52.780	12.487727	-57.539372	52.680	-0.430	0.160	-0.040	52.770	-1.200	0.300																			1580010436.0	7.08	13.11
26/01/2020 03:47:17	26012020	260120	034717	52.750	12.487747	-57.539345	52.720	-0.150	-0.300	0.180	52.750	-1.500	0.500																			1580010437.0	7.17	13.28
26/01/2020 03:47:18	26012020	260120	034718	52.780	12.487768	-57.539315	52.710	0.270	-0.680	0.550	52.790	-1.900	0.800																			1580010438.0	7.67	14.20
26/01/2020 03:47:19	26012020	260120	034719	52.760	12.487788	-57.539283	52.620	0.510	-0.650	0.880	52.750	-2.100	1.100																			1580010439.0	7.96	14.74
26/01/2020 03:47:20	26012020	260120	034720	52.670	12.487808	-57.539253	52.530	0.440	-0.320	0.960	52.650	-1.900	1.300																			1580010440.0	7.74	14.33
26/01/2020 03:47:21	26012020	260120	034721	52.580	12.487828	-57.539225	52.450	0.160	0.020	0.900	52.560	-1.500	1.300																			1580010441.0	7.34	13.59
26/01/2020 03:47:22	26012020	260120	034722	52.500	12.487850	-57.539198	52.330	-0.140	0.180	0.710	52.480	-1.300	1.200																			1580010442.0	7.21	13.35
26/01/2020 03:47:23	26012020	260120	034723	52.390	12.487872	-57.539172	52.270	-0.300	0.110	0.380	52.370	-1.200	0.900																			1580010443.0	7.33	13.58
26/01/2020 03:47:24	26012020	260120	034724	52.330	12.487897	-57.539147	52.360	-0.270	-0.060	0.080	52.340	-1.400	0.600																			1580010444.0	7.52	13.93
26/01/2020 03:47:25	26012020	260120	034725	52.420	12.487920	-57.539120	52.490	-0.150	-0.190	-0.040	52.440	-1.600	0.400																			1580010445.0	7.65	14.17
26/01/2020 03:47:26	26012020	260120	034726	52.550	12.487942	-57.539092	52.480	-0.090	-0.150	0.020	52.560	-1.600	0.400																			1580010446.0	7.64	14.15
26/01/2020 03:47:27	26012020	260120	034727	52.530	12.487963	-57.539063	52.270	-0.140	-0.080	0.240	52.500	-1.500	0.500																			1580010447.0	7.50	13.89
26/01/2020 03:47:28	26012020	260120	034728	52.330	12.487982	-57.539033	52.070	-0.170	-0.170	0.320	52.280	-1.500	0.700																			1580010448.0	7.34	13.59
26/01/2020 03:47:29	26012020	260120	034729	52.130	12.488003	-57.539007	52.040	-0.030	-0.400	0.130	52.110	-1.700	0.600																			1580010449.0	7.36	13.63
26/01/2020 03:47:30	26012020	260120	034730	52.100	12.488027	-57.538980	52.220	0.300	-0.570	-0.120	52.120	-1.900	0.400																			1580010450.0	7.60	14.08
26/01/2020 03:47:31	26012020	260120	034731	52.280	12.488050	-57.538953	52.500	0.570	-0.570	-0.240	52.330	-2.000	0.200																			1580010451.0	7.75	14.35
26/01/2020 03:47:32	26012020	260120	034732	52.560	12.488075	-57.538925	52.700	0.510	-0.280	-0.070	52.620	-1.900	0.200																			1580010452.0	7.71	14.28
26/01/2020 03:47:33	26012020	260120	034733	52.780	12.488097	-57.538898	52.720	0.070	0.220	0.390	52.800	-1.400	0.500																			1580010453.0	7.53	13.95
26/01/2020 03:47:34	26012020	260120	034734	52.780	12.488115	-57.538870	52.550	-0.430	0.610	0.890	52.750	-0.900	1.100																			1580010454.0	7.23	13.39
26/01/2020 03:47:35	26012020	260120	034735	52.590	12.488133	-57.538842	52.310	-0.590	0.420	1.170	52.550	-0.800	1.500																			1580010455.0	6.99	12.95
26/01/2020 03:47:36	26012020	260120	034736	52.360	12.488152	-57.538813	52.210	-0.280	-0.320	1.080	52.320	-1.400	1.600																			1580010456.0	7.23	13.39
26/01/2020 03:47:37	26012020	260120	034737	52.260	12.488175	-57.538783	52.340	0.240	-1.020	0.650	52.270	-2.200	1.300																			1580010457.0	7.87	14.58
26/01/2020 03:47:38	26012020	260120	034738	52.390	12.488200	-57.538755	52.520	0.490	-1.010	0.240	52.430	-2.500	0.800																			1580010458.0	8.31	15.39
26/01/2020 03:47:39	26012020	260120	034739	52.590	12.488225	-57.538727	52.580	0.250	-0.180	0.050	52.610	-2.000	0.500																			1580010459.0	8.04	14.89
26/01/2020 03:47:40	26012020	260120	034740	52.650	12.488247	-57.538700	52.520	-0.220	0.680	-0.010	52.650	-1.100	0.400																			1580010460.0	7.16	13.26
26/01/2020 03:47:41	26012020	260120	034741	52.600	12.488267	-57.538677	52.530	-0.450	0.660	-0.100	52.600	-0.600	0.400																			1580010461.0	6.50	12.04
26/01/2020 03:47:42	26012020	260120	034742	52.610	12.488287	-57.538652	52.610	-0.310	-0.110	-0.250	52.630	-1.100	0.200																			1580010462.0	6.88	12.74
26/01/2020 03:47:43	26012020	260120	034743	52.700	12.488310	-57.538623	52.580	0.030	-0.800	-0.290	52.710	-2.000	0.100																			1580010463.0	7.89	14.61
26/01/2020 03:47:44	26012020	260120	034744	52.670	12.488335	-57.538593	52.460	0.300	-0.760	-0.090	52.660	-2.300	0.200																			1580010464.0	8.33	15.43
26/01/2020 03:47:45	26012020	260120	034745	52.550	12.488357	-57.538563	52.350	0.340	-0.290	0.240	52.530	-1.900	0.500																			1580010465.0	7.85	14.54
26/01/2020 03:47:46	26012020	260120	034746	52.430	12.488377	-57.538535	52.410	0.200	0.040	0.350	52.430	-1.500	0.700																			1580010466.0	7.16	13.26
26/01/2020 03:47:47	26012020	260120	034747	52.490	12.488397	-57.538510	52.580	0.020	0.080	0.280	52.520	-1.300	0.700																			1580010467.0	7.05	13.06
26/01/2020 03:47:48	26012020	260120	034748	52.660	12.488418	-57.538483	52.640	-0.110	0.070	0.320	52.690	-1.300	0.700																			1580010468.0	7.34	13.59
26/01/2020 03:47:49	26012020	260120	034749	52.730	12.488440	-57.538455	52.630	-0.140	-0.020	0.400	52.730	-1.400	0.800																			1580010469.0	7.52	13.93
26/01/2020 03:47:50	26012020	260120	034750	52.710	12.488462	-57.538428	52.540	-0.070	-0.290	0.530	52.700	-1.600	0.900																			1580010470.0	7.48	13.85
26/01/2020 03:47:51	26012020	260120	034751	52.620	12.488483	-57.538398	52.450	-0.030	-0.450	0.660	52.600	-1.800	1.000																			1580010471.0	7.65	14.17
26/01/2020 03:47:52	26012020	260120	034752	52.530	12.488505	-57.538368	52.470	-0.090	-0.280	0.640	52.520	-1.800	1.100																			1580010472.0	7.78	14.41
26/01/2020 03:47:53	26012020	260120	034753	52.540	12.488527	-57.538340	52.500	-0.180	0.020	0.500	52.550	-1.500	1.000																			1580010473.0	7.49	13.87
26/01/2020 03:47:54	26012020	260120	034754	52.580	12.488547	-57.538315	52.510	-0.100	0.030	0.260	52.580	-1.300	0.800																			1580010474.0	7.15	13.24
26/01/2020 03:47:55	26012020	260120	034755	52.590	12.488568	-57.538288	52.580	0.180	-0.290	-0.090	52.590	-1.500	0.500																			1580010475.0	7.22	13.37
26/01/2020 03:47:56	26012020	260120	034756	52.660	12.488592	-57.538262	52.710	0.400	-0.540	-0.390	52.680	-1.900	0.100																			1580010476.0	7.67	14.20
26/01/2020 03:47:57	26012020	260120	034757	52.780	12.488617	-57.538233	52.750	0.310	-0.310	-0.400	52.810	-1.900	-0.100																			1580010477.0	7.97	14.76
26/01/2020 03:47:58	26012020	260120	034758	52.830	12.488640	-57.538205	52.660	-0.050	0.250	-0.130	52.820	-1.400	0.100																			1580010478.0	7.67	14.20
26/01/2020 03:47:59	26012020	260120	034759	52.740	12.488660	-57.538180	52.590	-0.380	0.470	0.170	52.720	-1.000	0.400	1015.00	25.80	25.80	20.70	20.70	-1.00	73.00	73.00	389.00	25.30	3.00	8.40	58.00	4.60	15	3281.00	27.40	27.40	1580010479.0	7.03	13.02
26/01/2020 03:48:00	26012020	260120	034800	52.660	12.488678	-57.538153	52.600	-0.380	0.010	0.370	52.660	-1.100	0.700																			1580010480.0	6.87	12.72
26/01/2020 03:48:01	26012020	260120	034801	52.670	12.488700	-57.538125	52.760	-0.100	-0.690	0.380	52.690	-1.800	0.800																			1580010481.0	7.43	13.76
26/01/2020 03:48:02	26012020	260120	034802	52.830	12.488722	-57.538095	53.030	0.190	-0.900	0.370	52.880	-2.300	0.700																			1580010482.0	8.08	14.96
26/01/2020 03:48:03	26012020	260120	034803	53.100	12.488745	-57.538065	53.180	0.230	-0.420	0.470	53.150	-2.100	0.800																			1580010483.0	8.07	14.95
26/01/2020 03:48:04	26012020	260120	034804	53.250	12.488767	-57.538037	53.030	0.070	0.250	0.680	53.250	-1.500	1.000																			1580010484.0	7.42	13.74
26/01/2020 03:48:05	26012020	260120	034805	53.110	12.488785	-57.538010	52.750	-0.070	0.490	0.780	53.060	-1.000	1.200																			1580010485.0	6.84	12.67
26/01/2020 03:48:06	26012020	260120	034806	52.840	12.488805	-57.537985	52.690	-0.000	0.030	0.550	52.810	-1.100	1.100																			1580010486.0	6.89	12.76
26/01/2020 03:48:07	26012020	260120	034807	52.780	12.488827	-57.537957	52.890	0.220	-0.730	0.050	52.810	-1.800	0.700																			1580010487.0	7.51	13.91
26/01/2020 03:48:08	26012020	260120	034808	52.990	12.488853	-57.537928	53.160	0.260	-0.890	-0.400	53.050	-2.400	0.200																			1580010488.0	8.22	15.22
26/01/2020 03:48:09	26012020	260120	034809	53.270	12.488878	-57.537900	53.320	-0.060	-0.160	-0.480	53.320	-2.000	-0.100																			1580010489.0	8.25	15.28
26/01/2020 03:48:10	26012020	260120	034810	53.430	12.488902	-57.537873	53.330	-0.500	0.640	-0.210	53.440	-1.100	0.000																			1580010490.0	7.31	13.54
26/01/2020 03:48:11	26012020	260120	034811	53.430	12.488918	-57.537848	53.300	-0.590	0.670	0.060	53.420	-0.600	0.300																			1580010491.0	6.51	12.06
26/01/2020 03:48:12	26012020	260120	034812	53.390	12.488937	-57.537822	53.330	-0.200	-0.030	0.130	53.390	-1.100	0.500																			1580010492.0	6.81	12.61
26/01/2020 03:48:13	26012020	260120	034813	53.420	12.488958	-57.537793	53.360	0.400	-0.790	0.210	53.420	-1.900	0.500																			1580010493.0	7.70	14.26
26/01/2020 03:48:14	26012020	260120	034814	53.440	12.488982	-57.537762	53.330	0.700	-1.020	0.350	53.440	-2.400	0.700																			1580010494.0	8.23	15.24
26/01/2020 03:48:15	26012020	260120	034815	53.410	12.489003	-57.537732	53.280	0.480	-0.580	0.420	53.400	-2.300	0.800																			1580010495.0	8.07	14.95
26/01/2020 03:48:16	26012020	260120	034816	53.360	12.489025	-57.537703	53.240	-0.070	0.160	0.430	53.350	-1.600	0.800																			1580010496.0	7.43	13.76
26/01/2020 03:48:17	26012020	260120	034817	53.310	12.489045	-57.537678	53.240	-0.490	0.550	0.410	53.300	-1.000	0.800																			1580010497.0	6.84	12.67
26/01/2020 03:48:18	26012020	260120	034818	53.310	12.489065	-57.537653	53.380	-0.500	0.330	0.270	53.320	-0.900	0.700																			1580010498.0	6.79	12.58
26/01/2020 03:48:19	26012020	260120	034819	53.450	12.489087	-57.537627	53.570	-0.200	-0.200	0.070	53.500	-1.400	0.500																			1580010499.0	7.30	13.52
26/01/2020 03:48:20	26012020	260120	034820	53.640	12.489110	-57.537598	53.590	0.120	-0.500	0.030	53.670	-1.800	0.400																			1580010500.0	7.86	14.56
26/01/2020 03:48:21	26012020	260120	034821	53.670	12.489132	-57.537568	53.420	0.250	-0.480	0.180	53.660	-1.900	0.500																			1580010501.0	7.89	14.61
26/01/2020 03:48:22	26012020	260120	034822	53.510	12.489152	-57.537538	53.220	0.220	-0.350	0.300	53.460	-1.800	0.700																			1580010502.0	7.54	13.96
26/01/2020 03:48:23	26012020	260120	034823	53.300	12.489172	-57.537512	53.130	0.140	-0.270	0.210	53.260	-1.700	0.700																			1580010503.0	7.32	13.56
26/01/2020 03:48:24	26012020	260120	034824	53.210	12.489193	-57.537483	53.160	0.130	-0.210	0.040	53.220	-1.600	0.500																			1580010504.0	7.36	13.63
26/01/2020 03:48:25	26012020	260120	034825	53.250	12.489217	-57.537458	53.240	0.130	-0.120	-0.090	53.260	-1.600	0.400																			1580010505.0	7.48	13.85
26/01/2020 03:48:26	26012020	260120	034826	53.330	12.489240	-57.537430	53.370	0.060	-0.020	-0.140	53.360	-1.500	0.300																			1580010506.0	7.52	13.93
26/01/2020 03:48:27	26012020	260120	034827	53.460	12.489262	-57.537403	53.500	-0.160	0.160	0.000	53.490	-1.300	0.300																			1580010507.0	7.49	13.87
26/01/2020 03:48:28	26012020	260120	034828	53.590	12.489283	-57.537375	53.540	-0.430	0.320	0.370	53.600	-1.100	0.600																			1580010508.0	7.38	13.67
26/01/2020 03:48:29	26012020	260120	034829	53.620	12.489302	-57.537348	53.480	-0.480	0.160	0.750	53.610	-1.100	1.000																			1580010509.0	7.17	13.28
26/01/2020 03:48:30	26012020	260120	034830	53.550	12.489320	-57.537318	53.440	-0.180	-0.420	0.900	53.540	-1.500	1.200																			1580010510.0	7.21	13.35
26/01/2020 03:48:31	26012020	260120	034831	53.510	12.489340	-57.537288	53.460	0.280	-0.990	0.800	53.510	-2.200	1.300																			1580010511.0	7.66	14.19
26/01/2020 03:48:32	26012020	260120	034832	53.550	12.489362	-57.537258	53.490	0.530	-0.980	0.570	53.560	-2.500	1.100																			1580010512.0	8.05	14.91
26/01/2020 03:48:33	26012020	260120	034833	53.590	12.489385	-57.537230	53.460	0.420	-0.270	0.390	53.580	-2.100	0.900																			1580010513.0	7.91	14.65
26/01/2020 03:48:34	26012020	260120	034834	53.550	12.489407	-57.537203	53.410	0.070	0.580	0.180	53.540	-1.200	0.700																			1580010514.0	7.24	13.41
26/01/2020 03:48:35	26012020	260120	034835	53.500	12.489428	-57.537180	53.410	-0.210	0.760	-0.090	53.500	-0.600	0.400																			1580010515.0	6.62	12.26
26/01/2020 03:48:36	26012020	260120	034836	53.510	12.489448	-57.537157	53.440	-0.170	0.040	-0.320	53.510	-0.900	0.200																			1580010516.0	6.77	12.54
26/01/2020 03:48:37	26012020	260120	034837	53.540	12.489472	-57.537128	53.530	0.090	-0.870	-0.450	53.550	-1.900	-0.000																			1580010517.0	7.64	14.15
26/01/2020 03:48:38	26012020	260120	034838	53.620	12.489497	-57.537098	53.630	0.190	-0.990	-0.340	53.640	-2.500	-0.000																			1580010518.0	8.43	15.61
26/01/2020 03:48:39	26012020	260120	034839	53.720	12.489520	-57.537067	53.710	-0.030	-0.270	-0.040	53.730	-2.100	0.200																			1580010519.0	8.20	15.19
26/01/2020 03:48:40	26012020	260120	034840	53.780	12.489538	-57.537038	53.740	-0.370	0.580	0.270	53.790	-1.200	0.500																			1580010520.0	7.19	13.32
26/01/2020 03:48:41	26012020	260120	034841	53.810	12.489555	-57.537013	53.780	-0.450	0.780	0.460	53.810	-0.600	0.800																			1580010521.0	6.46	11.96
26/01/2020 03:48:42	26012020	260120	034842	53.830	12.489573	-57.536988	53.810	-0.100	0.050	0.540	53.840	-0.900	0.900																			1580010522.0	6.61	12.24
26/01/2020 03:48:43	26012020	260120	034843	53.870	12.489593	-57.536960	53.720	0.410	-0.920	0.640	53.870	-1.900	1.000																			1580010523.0	7.48	13.85
26/01/2020 03:48:44	26012020	260120	034844	53.780	12.489617	-57.536928	53.550	0.590	-1.140	0.680	53.750	-2.600	1.100																			1580010524.0	8.34	15.45
26/01/2020 03:48:45	26012020	260120	034845	53.620	12.489640	-57.536897	53.550	0.290	-0.460	0.630	53.600	-2.300	1.100																			1580010525.0	8.20	15.19
26/01/2020 03:48:46	26012020	260120	034846	53.610	12.489662	-57.536870	53.720	-0.180	0.370	0.470	53.630	-1.400	0.900																			1580010526.0	7.20	13.33
26/01/2020 03:48:47	26012020	260120	034847	53.790	12.489680	-57.536847	53.860	-0.450	0.690	0.340	53.830	-0.800	0.800																			1580010527.0	6.51	12.06
26/01/2020 03:48:48	26012020	260120	034848	53.930	12.489700	-57.536822	53.790	-0.430	0.380	0.370	53.930	-0.800	0.700																			1580010528.0	6.69	12.39
26/01/2020 03:48:49	26012020	260120	034849	53.860	12.489720	-57.536795	53.640	-0.210	-0.320	0.400	53.830	-1.400	0.800																			1580010529.0	7.29	13.50
26/01/2020 03:48:50	26012020	260120	034850	53.710	12.489742	-57.536765	53.630	0.130	-0.960	0.260	53.690	-2.100	0.700																			1580010530.0	7.81	14.46
26/01/2020 03:48:51	26012020	260120	034851	53.700	12.489763	-57.536733	53.780	0.440	-1.040	0.010	53.720	-2.500	0.500																			1580010531.0	8.05	14.91
26/01/2020 03:48:52	26012020	260120	034852	53.840	12.489787	-57.536705	53.840	0.470	-0.390	-0.080	53.870	-2.200	0.300																			1580010532.0	7.87	14.58
26/01/2020 03:48:53	26012020	260120	034853	53.920	12.489808	-57.536678	53.780	0.150	0.490	0.010	53.910	-1.300	0.300																			1580010533.0	7.25	13.43
26/01/2020 03:48:54	26012020	260120	034854	53.850	12.489827	-57.536653	53.710	-0.270	0.860	0.130	53.830	-0.600	0.500																			1580010534.0	6.60	12.22
26/01/2020 03:48:55	26012020	260120	034855	53.770	12.489845	-57.536628	53.730	-0.430	0.400	0.150	53.760	-0.700	0.600																			1580010535.0	6.59	12.20
26/01/2020 03:48:56	26012020	260120	034856	53.770	12.489867	-57.536602	53.790	-0.210	-0.490	0.100	53.790	-1.500	0.500																			1580010536.0	7.24	13.41
26/01/2020 03:48:57	26012020	260120	034857	53.840	12.489890	-57.536572	53.780	0.140	-1.030	0.210	53.850	-2.300	0.500																			1580010537.0	7.98	14.78
26/01/2020 03:48:58	26012020	260120	034858	53.830	12.489912	-57.536542	53.660	0.250	-0.790	0.510	53.820	-2.400	0.700																			1580010538.0	8.16	15.11
26/01/2020 03:48:59	26012020	260120	034859	53.720	12.489932	-57.536512	53.560	0.020	-0.080	0.750	53.690	-1.800	1.100																			1580010539.0	7.60	14.08
26/01/2020 03:49:00	26012020	260120	034900	53.610	12.489950	-57.536485	53.620	-0.270	0.430	0.680	53.610	-1.200	1.100	1015.00	25.70	25.80	20.60	20.60	-1.00	73.00	73.00	389.00	25.30	0.00	8.60	54.00	4.70	15	3288.00	27.40	27.40	1580010540.0	6.83	12.65
26/01/2020 03:49:01	26012020	260120	034901	53.670	12.489968	-57.536460	53.690	-0.250	0.340	0.520	53.700	-1.000	1.000																			1580010541.0	6.60	12.22
26/01/2020 03:49:02	26012020	260120	034902	53.750	12.489988	-57.536433	53.650	0.080	-0.190	0.350	53.750	-1.300	0.800																			1580010542.0	7.01	12.98
26/01/2020 03:49:03	26012020	260120	034903	53.720	12.490010	-57.536405	53.540	0.450	-0.740	0.200	53.710	-1.900	0.600																			1580010543.0	7.65	14.17
26/01/2020 03:49:04	26012020	260120	034904	53.620	12.490033	-57.536375	53.450	0.530	-0.830	0.050	53.590	-2.300	0.500																			1580010544.0	8.00	14.82
26/01/2020 03:49:05	26012020	260120	034905	53.530	12.490057	-57.536347	53.530	0.240	-0.300	-0.150	53.530	-2.000	0.300																			1580010545.0	7.89	14.61
26/01/2020 03:49:06	26012020	260120	034906	53.610	12.490078	-57.536320	53.660	-0.240	0.520	-0.250	53.640	-1.300	0.200																			1580010546.0	7.28	13.48
26/01/2020 03:49:07	26012020	260120	034907	53.750	12.490098	-57.536297	53.650	-0.580	0.920	-0.000	53.760	-0.600	0.200																			1580010547.0	6.63	12.28
26/01/2020 03:49:08	26012020	260120	034908	53.730	12.490117	-57.536272	53.610	-0.560	0.440	0.290	53.720	-0.600	0.600																			1580010548.0	6.49	12.02
26/01/2020 03:49:09	26012020	260120	034909	53.660	12.490135	-57.536245	53.580	-0.210	-0.570	0.480	53.660	-1.500	0.800																			1580010549.0	7.12	13.19
26/01/2020 03:49:10	26012020	260120	034910	53.640	12.490157	-57.536213	53.540	0.200	-1.160	0.690	53.630	-2.400	1.000																			1580010550.0	7.99	14.80
26/01/2020 03:49:11	26012020	260120	034911	53.590	12.490178	-57.536182	53.520	0.340	-0.900	0.830	53.580	-2.500	1.200																			1580010551.0	8.18	15.15
26/01/2020 03:49:12	26012020	260120	034912	53.560	12.490198	-57.536153	53.550	0.200	-0.240	0.800	53.570	-2.000	1.200																			1580010552.0	7.47	13.83
26/01/2020 03:49:13	26012020	260120	034913	53.600	12.490217	-57.536127	53.550	-0.020	0.220	0.640	53.600	-1.400	1.100																			1580010553.0	6.76	12.52
26/01/2020 03:49:14	26012020	260120	034914	53.610	12.490237	-57.536102	53.590	-0.080	0.210	0.350	53.610	-1.100	0.900																			1580010554.0	6.70	12.41
26/01/2020 03:49:15	26012020	260120	034915	53.650	12.490257	-57.536075	53.650	0.090	-0.110	0.010	53.670	-1.400	0.600																			1580010555.0	7.12	13.19
26/01/2020 03:49:16	26012020	260120	034916	53.720	12.490280	-57.536048	53.600	0.300	-0.320	-0.130	53.730	-1.700	0.300																			1580010556.0	7.64	14.15
26/01/2020 03:49:17	26012020	260120	034917	53.670	12.490305	-57.536020	53.450	0.320	-0.240	-0.050	53.650	-1.700	0.300																			1580010557.0	7.79	14.43
26/01/2020 03:49:18	26012020	260120	034918	53.530	12.490325	-57.535993	53.380	0.110	-0.020	0.020	53.500	-1.500	0.400																			1580010558.0	7.50	13.89
26/01/2020 03:49:19	26012020	260120	034919	53.450	12.490347	-57.535965	53.460	-0.170	0.120	-0.050	53.450	-1.300	0.400																			1580010559.0	7.16	13.26
26/01/2020 03:49:20	26012020	260120	034920	53.530	12.490367	-57.535940	53.570	-0.310	0.040	-0.060	53.550	-1.300	0.300																			1580010560.0	7.05	13.06
26/01/2020 03:49:21	26012020	260120	034921	53.640	12.490387	-57.535913	53.710	-0.330	-0.110	0.050	53.670	-1.400	0.400																			1580010561.0	7.19	13.32
26/01/2020 03:49:22	26012020	260120	034922	53.780	12.490408	-57.535885	53.830	-0.290	-0.210	0.300	53.810	-1.600	0.500																			1580010562.0	7.35	13.61
26/01/2020 03:49:23	26012020	260120	034923	53.870	12.490427	-57.535857	53.770	-0.210	-0.250	0.730	53.870	-1.600	0.900																			1580010563.0	7.34	13.59
26/01/2020 03:49:24	26012020	260120	034924	53.810	12.490447	-57.535828	53.610	-0.120	-0.270	1.090	53.770	-1.700	1.300																			1580010564.0	7.30	13.52
26/01/2020 03:49:25	26012020	260120	034925	53.650	12.490463	-57.535798	53.540	0.020	-0.370	1.070	53.620	-1.700	1.500																			1580010565.0	7.27	13.46
26/01/2020 03:49:26	26012020	260120	034926	53.570	12.490483	-57.535770	53.490	0.210	-0.520	0.780	53.560	-1.900	1.300																			1580010566.0	7.30	13.52
26/01/2020 03:49:27	26012020	260120	034927	53.540	12.490505	-57.535742	53.400	0.390	-0.540	0.400	53.530	-2.000	1.000																			1580010567.0	7.46	13.82
26/01/2020 03:49:28	26012020	260120	034928	53.470	12.490527	-57.535715	53.400	0.470	-0.380	0.010	53.470	-1.900	0.600																			1580010568.0	7.52	13.93
26/01/2020 03:49:29	26012020	260120	034929	53.480	12.490550	-57.535688	53.420	0.360	-0.080	-0.260	53.480	-1.600	0.200																			1580010569.0	7.46	13.82
26/01/2020 03:49:30	26012020	260120	034930	53.500	12.490573	-57.535663	53.380	0.070	0.290	-0.390	53.500	-1.300	0.000																			1580010570.0	7.38	13.67
26/01/2020 03:49:31	26012020	260120	034931	53.470	12.490595	-57.535637	53.220	-0.260	0.540	-0.280	53.440	-1.000	0.000																			1580010571.0	7.21	13.35
26/01/2020 03:49:32	26012020	260120	034932	53.300	12.490615	-57.535610	53.140	-0.440	0.440	-0.020	53.270	-0.900	0.300																			1580010572.0	7.07	13.09
26/01/2020 03:49:33	26012020	260120	034933	53.210	12.490635	-57.535583	53.320	-0.360	-0.080	0.040	53.220	-1.200	0.400																			1580010573.0	7.13	13.20
26/01/2020 03:49:34	26012020	260120	034934	53.380	12.490655	-57.535555	53.510	-0.140	-0.640	0.030	53.430	-1.800	0.400																			1580010574.0	7.47	13.83
26/01/2020 03:49:35	26012020	260120	034935	53.580	12.490677	-57.535525	53.460	0.000	-0.720	0.320	53.590	-2.200	0.500																			1580010575.0	7.82	14.48
26/01/2020 03:49:36	26012020	260120	034936	53.520	12.490698	-57.535497	53.260	0.000	-0.400	0.800	53.480	-2.000	0.900																			1580010576.0	7.63	14.13
26/01/2020 03:49:37	26012020	260120	034937	53.310	12.490717	-57.535468	53.140	-0.020	-0.140	1.210	53.270	-1.700	1.400																			1580010577.0	7.11	13.17
26/01/2020 03:49:38	26012020	260120	034938	53.170	12.490733	-57.535440	53.110	0.000	-0.120	1.310	53.160	-1.500	1.700																			1580010578.0	6.97	12.91
26/01/2020 03:49:39	26012020	260120	034939	53.150	12.490752	-57.535412	53.100	0.110	-0.310	0.980	53.150	-1.600	1.600																			1580010579.0	7.19	13.32
26/01/2020 03:49:40	26012020	260120	034940	53.160	12.490773	-57.535383	53.020	0.260	-0.400	0.520	53.150	-1.800	1.100																			1580010580.0	7.50	13.89
26/01/2020 03:49:41	26012020	260120	034941	53.090	12.490797	-57.535355	52.840	0.320	-0.190	0.180	53.060	-1.700	0.700																			1580010581.0	7.73	14.32
26/01/2020 03:49:42	26012020	260120	034942	52.930	12.490820	-57.535330	52.760	0.210	0.130	-0.190	52.910	-1.400	0.400																			1580010582.0	7.53	13.95
26/01/2020 03:49:43	26012020	260120	034943	52.860	12.490843	-57.535305	52.820	-0.040	0.260	-0.550	52.860	-1.200	0.000																			1580010583.0	7.24	13.41
26/01/2020 03:49:44	26012020	260120	034944	52.920	12.490867	-57.535280	53.010	-0.290	0.150	-0.720	52.950	-1.200	-0.300																			1580010584.0	7.19	13.32
26/01/2020 03:49:45	26012020	260120	034945	53.110	12.490888	-57.535253	53.170	-0.380	-0.160	-0.620	53.150	-1.400	-0.300																			1580010585.0	7.30	13.52
26/01/2020 03:49:46	26012020	260120	034946	53.270	12.490910	-57.535225	53.210	-0.300	-0.390	-0.190	53.300	-1.700	-0.100																			1580010586.0	7.50	13.89
26/01/2020 03:49:47	26012020	260120	034947	53.300	12.490930	-57.535195	53.120	-0.180	-0.390	0.470	53.280	-1.800	0.500																			1580010587.0	7.65	14.17
26/01/2020 03:49:48	26012020	260120	034948	53.200	12.490948	-57.535165	53.000	-0.030	-0.250	1.030	53.170	-1.700	1.200																			1580010588.0	7.49	13.87
26/01/2020 03:49:49	26012020	260120	034949	53.060	12.490965	-57.535135	52.880	0.150	-0.160	1.270	53.030	-1.600	1.600																			1580010589.0	7.27	13.46
26/01/2020 03:49:50	26012020	260120	034950	52.930	12.490983	-57.535107	52.800	0.260	-0.120	1.200	52.910	-1.600	1.700																			1580010590.0	7.24	13.41
26/01/2020 03:49:51	26012020	260120	034951	52.860	12.491003	-57.535080	52.830	0.250	-0.140	0.880	52.860	-1.500	1.500																			1580010591.0	7.31	13.54
26/01/2020 03:49:52	26012020	260120	034952	52.890	12.491027	-57.535053	52.920	0.200	-0.260	0.380	52.910	-1.600	1.000																			1580010592.0	7.34	13.59
26/01/2020 03:49:53	26012020	260120	034953	53.000	12.491050	-57.535027	52.950	0.150	-0.370	-0.040	53.010	-1.700	0.500																			1580010593.0	7.47	13.83
26/01/2020 03:49:54	26012020	260120	034954	53.040	12.491075	-57.535002	52.920	0.090	-0.420	-0.230	53.040	-1.800	0.200																			1580010594.0	7.61	14.09
26/01/2020 03:49:55	26012020	260120	034955	53.020	12.491098	-57.534975	52.940	-0.030	-0.300	-0.220	53.030	-1.800	0.100																			1580010595.0	7.63	14.13
26/01/2020 03:49:56	26012020	260120	034956	53.040	12.491120	-57.534947	52.950	-0.260	0.100	0.010	53.040	-1.500	0.300																			1580010596.0	7.56	14.00
26/01/2020 03:49:57	26012020	260120	034957	53.040	12.491138	-57.534918	52.850	-0.490	0.550	0.350	53.030	-1.000	0.600																			1580010597.0	7.29	13.50
26/01/2020 03:49:58	26012020	260120	034958	52.940	12.491157	-57.534890	52.740	-0.470	0.470	0.570	52.910	-0.800	0.900																			1580010598.0	6.92	12.82
26/01/2020 03:49:59	26012020	260120	034959	52.820	12.491173	-57.534862	52.790	-0.110	-0.280	0.500	52.820	-1.300	1.000																			1580010599.0	7.01	12.98
26/01/2020 03:50:00	26012020	260120	035000	52.880	12.491195	-57.534833	52.820	0.310	-0.930	0.330	52.900	-2.100	0.800	1015.10	25.70	25.80	20.50	20.50	-1.00	72.00	72.00	389.00	25.30	3.00	8.70	59.00	4.90	15	3274.00	27.40	27.40	1580010600.0	7.69	14.24
26/01/2020 03:50:01	26012020	260120	035001	52.920	12.491220	-57.534803	52.680	0.380	-0.680	0.280	52.910	-2.300	0.700																			1580010601.0	8.23	15.24
26/01/2020 03:50:02	26012020	260120	035002	52.790	12.491242	-57.534775	52.530	0.120	0.130	0.260	52.760	-1.700	0.700																			1580010602.0	7.68	14.22
26/01/2020 03:50:03	26012020	260120	035003	52.640	12.491262	-57.534752	52.470	-0.090	0.410	0.130	52.620	-1.000	0.600																			1580010603.0	6.64	12.30
26/01/2020 03:50:04	26012020	260120	035004	52.590	12.491283	-57.534728	52.420	-0.020	-0.120	0.080	52.580	-1.200	0.500																			1580010604.0	6.54	12.11
26/01/2020 03:50:05	26012020	260120	035005	52.540	12.491307	-57.534702	52.400	0.160	-0.740	0.190	52.540	-1.900	0.500																			1580010605.0	7.49	13.87
26/01/2020 03:50:06	26012020	260120	035006	52.510	12.491330	-57.534672	52.390	0.170	-0.760	0.520	52.510	-2.200	0.700																			1580010606.0	8.13	15.06
26/01/2020 03:50:07	26012020	260120	035007	52.490	12.491352	-57.534642	52.330	-0.080	-0.270	0.910	52.480	-1.900	1.100																			1580010607.0	7.90	14.63
26/01/2020 03:50:08	26012020	260120	035008	52.420	12.491368	-57.534612	52.270	-0.370	0.240	1.160	52.410	-1.400	1.500																			1580010608.0	7.24	13.41
26/01/2020 03:50:09	26012020	260120	035009	52.360	12.491387	-57.534585	52.280	-0.430	0.410	1.130	52.360	-1.000	1.600																			1580010609.0	6.92	12.82
26/01/2020 03:50:10	26012020	260120	035010	52.360	12.491405	-57.534557	52.260	-0.200	0.260	0.830	52.370	-1.100	1.400																			1580010610.0	7.05	13.06
26/01/2020 03:50:11	26012020	260120	035011	52.360	12.491427	-57.534530	52.190	0.120	0.030	0.340	52.340	-1.300	1.000																			1580010611.0	7.40	13.70
26/01/2020 03:50:12	26012020	260120	035012	52.300	12.491450	-57.534503	52.100	0.370	-0.290	-0.210	52.280	-1.500	0.400																			1580010612.0	7.53	13.95
26/01/2020 03:50:13	26012020	260120	035013	52.220	12.491473	-57.534478	52.050	0.490	-0.640	-0.570	52.210	-1.900	-0.000																			1580010613.0	7.55	13.98
26/01/2020 03:50:14	26012020	260120	035014	52.170	12.491500	-57.534452	52.090	0.390	-0.710	-0.750	52.160	-2.100	-0.300																			1580010614.0	7.71	14.28
26/01/2020 03:50:15	26012020	260120	035015	52.200	12.491525	-57.534427	52.220	0.050	-0.290	-0.720	52.220	-1.900	-0.400																			1580010615.0	7.69	14.24
26/01/2020 03:50:16	26012020	260120	035016	52.330	12.491548	-57.534402	52.310	-0.400	0.270	-0.280	52.360	-1.400	-0.100																			1580010616.0	7.25	13.43
26/01/2020 03:50:17	26012020	260120	035017	52.420	12.491567	-57.534375	52.360	-0.670	0.420	0.470	52.430	-1.000	0.500																			1580010617.0	6.80	12.59
26/01/2020 03:50:18	26012020	260120	035018	52.440	12.491583	-57.534348	52.410	-0.560	0.010	1.120	52.450	-1.100	1.200																			1580010618.0	6.91	12.80
26/01/2020 03:50:19	26012020	260120	035019	52.470	12.491602	-57.534317	52.400	-0.090	-0.680	1.600	52.480	-1.800	1.800																			1580010619.0	7.48	13.85
26/01/2020 03:50:20	26012020	260120	035020	52.470	12.491620	-57.534283	52.300	0.430	-0.990	1.920	52.450	-2.300	2.200																			1580010620.0	8.04	14.89
26/01/2020 03:50:21	26012020	260120	035021	52.370	12.491640	-57.534252	52.200	0.580	-0.560	1.740	52.340	-2.200	2.300																			1580010621.0	8.14	15.08
26/01/2020 03:50:22	26012020	260120	035022	52.250	12.491660	-57.534222	52.180	0.310	0.220	0.980	52.230	-1.600	1.800																			1580010622.0	7.54	13.96
26/01/2020 03:50:23	26012020	260120	035023	52.250	12.491682	-57.534198	52.320	-0.030	0.670	-0.010	52.270	-0.900	0.900																			1580010623.0	6.84	12.67
26/01/2020 03:50:24	26012020	260120	035024	52.410	12.491707	-57.534178	52.430	-0.110	0.420	-0.880	52.440	-0.800	-0.100																			1580010624.0	6.83	12.65
26/01/2020 03:50:25	26012020	260120	035025	52.550	12.491733	-57.534157	52.470	0.020	-0.170	-1.460	52.570	-1.300	-0.800																			1580010625.0	7.39	13.69
26/01/2020 03:50:26	26012020	260120	035026	52.600	12.491760	-57.534130	52.450	0.080	-0.560	-1.550	52.600	-1.800	-1.200																			1580010626.0	7.95	14.72
26/01/2020 03:50:27	26012020	260120	035027	52.590	12.491785	-57.534103	52.500	-0.030	-0.530	-1.130	52.590	-2.000	-1.000																			1580010627.0	7.92	14.67
26/01/2020 03:50:28	26012020	260120	035028	52.620	12.491807	-57.534075	52.610	-0.190	-0.290	-0.400	52.640	-1.800	-0.400																			1580010628.0	7.48	13.85
26/01/2020 03:50:29	26012020	260120	035029	52.720	12.491825	-57.534047	52.650	-0.270	-0.090	0.450	52.730	-1.600	0.400																			1580010629.0	7.15	13.24
26/01/2020 03:50:30	26012020	260120	035030	52.730	12.491842	-57.534017	52.590	-0.240	-0.020	1.220	52.720	-1.400	1.300																			1580010630.0	7.16	13.26
26/01/2020 03:50:31	26012020	260120	035031	52.650	12.491857	-57.533987	52.550	-0.120	-0.100	1.770	52.640	-1.500	1.900																			1580010631.0	7.29	13.50
26/01/2020 03:50:32	26012020	260120	035032	52.610	12.491875	-57.533957	52.640	0.050	-0.280	1.860	52.610	-1.600	2.300																			1580010632.0	7.40	13.70
26/01/2020 03:50:33	26012020	260120	035033	52.690	12.491895	-57.533928	52.780	0.260	-0.440	1.450	52.720	-1.800	2.100																			1580010633.0	7.50	13.89
26/01/2020 03:50:34	26012020	260120	035034	52.840	12.491918	-57.533900	52.810	0.470	-0.450	0.850	52.860	-1.900	1.500																			1580010634.0	7.58	14.04
26/01/2020 03:50:35	26012020	260120	035035	52.900	12.491942	-57.533873	52.750	0.480	-0.210	0.310	52.890	-1.800	0.900																			1580010635.0	7.62	14.11
26/01/2020 03:50:36	26012020	260120	035036	52.840	12.491967	-57.533848	52.610	0.150	0.210	-0.170	52.820	-1.400	0.500																			1580010636.0	7.51	13.91
26/01/2020 03:50:37	26012020	260120	035037	52.720	12.491990	-57.533823	52.510	-0.310	0.510	-0.590	52.690	-1.000	0.000																			1580010637.0	7.23	13.39
26/01/2020 03:50:38	26012020	260120	035038	52.630	12.492012	-57.533800	52.510	-0.490	0.350	-0.830	52.620	-0.900	-0.300																			1580010638.0	6.99	12.95
26/01/2020 03:50:39	26012020	260120	035039	52.640	12.492035	-57.533775	52.630	-0.270	-0.250	-0.920	52.660	-1.400	-0.500																			1580010639.0	7.12	13.19
26/01/2020 03:50:40	26012020	260120	035040	52.770	12.492058	-57.533748	52.830	0.030	-0.810	-0.880	52.800	-2.000	-0.500																			1580010640.0	7.63	14.13
26/01/2020 03:50:41	26012020	260120	035041	52.950	12.492080	-57.533718	52.960	0.140	-0.900	-0.570	52.990	-2.300	-0.400																			1580010641.0	7.95	14.72
26/01/2020 03:50:42	26012020	260120	035042	53.070	12.492102	-57.533688	52.860	0.020	-0.370	0.130	53.070	-2.100	0.100																			1580010642.0	7.75	14.35
26/01/2020 03:50:43	26012020	260120	035043	52.950	12.492120	-57.533660	52.570	-0.170	0.340	0.950	52.910	-1.400	1.000																			1580010643.0	7.24	13.41
26/01/2020 03:50:44	26012020	260120	035044	52.660	12.492137	-57.533633	52.430	-0.210	0.420	1.330	52.610	-0.900	1.600																			1580010644.0	6.75	12.50
26/01/2020 03:50:45	26012020	260120	035045	52.500	12.492153	-57.533605	52.570	0.070	-0.290	1.160	52.500	-1.300	1.700																			1580010645.0	6.86	12.70
26/01/2020 03:50:46	26012020	260120	035046	52.640	12.492175	-57.533577	52.800	0.440	-0.880	0.790	52.690	-2.100	1.300																			1580010646.0	7.71	14.28
26/01/2020 03:50:47	26012020	260120	035047	52.890	12.492200	-57.533547	52.870	0.530	-0.530	0.550	52.930	-2.200	1.000																			1580010647.0	8.33	15.43
26/01/2020 03:50:48	26012020	260120	035048	52.970	12.492225	-57.533518	52.720	0.240	0.310	0.370	52.950	-1.500	0.800																			1580010648.0	7.79	14.43
26/01/2020 03:50:49	26012020	260120	035049	52.840	12.492245	-57.533495	52.610	-0.140	0.640	0.110	52.810	-0.800	0.600																			1580010649.0	6.76	12.52
26/01/2020 03:50:50	26012020	260120	035050	52.720	12.492267	-57.533472	52.580	-0.330	0.240	-0.220	52.710	-0.900	0.300																			1580010650.0	6.64	12.30
26/01/2020 03:50:51	26012020	260120	035051	52.700	12.492290	-57.533445	52.580	-0.330	-0.310	-0.470	52.700	-1.500	0.000																			1580010651.0	7.39	13.69
26/01/2020 03:50:52	26012020	260120	035052	52.700	12.492313	-57.533418	52.660	-0.280	-0.520	-0.560	52.710	-1.900	-0.100																			1580010652.0	7.90	14.63
26/01/2020 03:50:53	26012020	260120	035053	52.780	12.492337	-57.533390	52.810	-0.190	-0.550	-0.390	52.810	-2.000	-0.100																			1580010653.0	7.67	14.20
26/01/2020 03:50:54	26012020	260120	035054	52.930	12.492358	-57.533363	52.920	-0.030	-0.480	-0.010	52.950	-1.900	0.200																			1580010654.0	7.34	13.59
26/01/2020 03:50:55	26012020	260120	035055	53.010	12.492377	-57.533333	52.830	0.090	-0.260	0.430	53.010	-1.800	0.600																			1580010655.0	7.36	13.63
26/01/2020 03:50:56	26012020	260120	035056	52.920	12.492395	-57.533305	52.610	0.090	0.040	0.790	52.880	-1.500	1.000																			1580010656.0	7.35	13.61
26/01/2020 03:50:57	26012020	260120	035057	52.680	12.492413	-57.533277	52.470	0.090	0.130	0.870	52.640	-1.300	1.300																			1580010657.0	7.18	13.30
26/01/2020 03:50:58	26012020	260120	035058	52.550	12.492435	-57.533250	52.530	0.210	-0.120	0.690	52.550	-1.400	1.200																			1580010658.0	7.17	13.28
26/01/2020 03:50:59	26012020	260120	035059	52.600	12.492458	-57.533223	52.740	0.390	-0.460	0.310	52.640	-1.700	0.900																			1580010659.0	7.49	13.87
26/01/2020 03:51:00	26012020	260120	035100	52.820	12.492482	-57.533195	52.940	0.400	-0.500	0.000	52.880	-1.900	0.500	1015.10	25.80	25.80	20.60	20.60	-1.00	73.00	73.00	389.00	25.30	5.00	8.50	61.00	4.70	15	3320.00	27.40	27.40	1580010660.0	7.83	14.50
26/01/2020 03:51:01	26012020	260120	035101	53.030	12.492507	-57.533168	52.920	0.150	-0.170	0.010	53.040	-1.800	0.400																			1580010661.0	7.78	14.41
26/01/2020 03:51:02	26012020	260120	035102	53.010	12.492528	-57.533142	52.810	-0.240	0.290	0.200	52.990	-1.300	0.500																			1580010662.0	7.40	13.70
26/01/2020 03:51:03	26012020	260120	035103	52.910	12.492548	-57.533115	52.760	-0.570	0.510	0.410	52.880	-1.000	0.700																			1580010663.0	7.02	13.00
26/01/2020 03:51:04	26012020	260120	035104	52.840	12.492568	-57.533088	52.820	-0.610	0.270	0.530	52.840	-1.000	0.900																			1580010664.0	6.95	12.87
26/01/2020 03:51:05	26012020	260120	035105	52.890	12.492588	-57.533062	52.970	-0.330	-0.310	0.490	52.920	-1.400	0.900																			1580010665.0	7.22	13.37
26/01/2020 03:51:06	26012020	260120	035106	53.040	12.492610	-57.533033	53.010	0.080	-0.820	0.410	53.060	-2.000	0.800																			1580010666.0	7.66	14.19
26/01/2020 03:51:07	26012020	260120	035107	53.090	12.492632	-57.533003	52.970	0.350	-0.850	0.450	53.090	-2.300	0.800																			1580010667.0	7.91	14.65
26/01/2020 03:51:08	26012020	260120	035108	53.040	12.492653	-57.532975	52.990	0.340	-0.430	0.450	53.040	-2.100	0.900																			1580010668.0	7.72	14.30
26/01/2020 03:51:09	26012020	260120	035109	53.060	12.492675	-57.532948	53.170	0.190	0.020	0.270	53.090	-1.600	0.800																			1580010669.0	7.23	13.39
26/01/2020 03:51:10	26012020	260120	035110	53.250	12.492695	-57.532922	53.370	0.090	0.240	0.050	53.290	-1.200	0.500																			1580010670.0	6.97	12.91
26/01/2020 03:51:11	26012020	260120	035111	53.440	12.492717	-57.532897	53.410	0.050	0.180	-0.060	53.470	-1.200	0.400																			1580010671.0	7.13	13.20
26/01/2020 03:51:12	26012020	260120	035112	53.490	12.492740	-57.532870	53.320	0.020	-0.030	0.020	53.480	-1.300	0.400																			1580010672.0	7.41	13.72
26/01/2020 03:51:13	26012020	260120	035113	53.400	12.492762	-57.532842	53.340	-0.000	-0.280	0.090	53.390	-1.600	0.500																			1580010673.0	7.60	14.08
26/01/2020 03:51:14	26012020	260120	035114	53.430	12.492785	-57.532815	53.550	0.030	-0.500	0.100	53.470	-1.800	0.500																			1580010674.0	7.61	14.09
26/01/2020 03:51:15	26012020	260120	035115	53.630	12.492807	-57.532787	53.720	0.080	-0.520	0.200	53.670	-2.000	0.500																			1580010675.0	7.62	14.11
26/01/2020 03:51:16	26012020	260120	035116	53.790	12.492827	-57.532757	53.660	-0.020	-0.180	0.470	53.800	-1.800	0.700																			1580010676.0	7.63	14.13
26/01/2020 03:51:17	26012020	260120	035117	53.730	12.492847	-57.532728	53.510	-0.300	0.310	0.690	53.700	-1.300	1.000																			1580010677.0	7.39	13.69
26/01/2020 03:51:18	26012020	260120	035118	53.580	12.492865	-57.532702	53.460	-0.520	0.460	0.650	53.560	-0.900	1.100																			1580010678.0	7.00	12.96
26/01/2020 03:51:19	26012020	260120	035119	53.540	12.492885	-57.532675	53.580	-0.380	-0.010	0.360	53.550	-1.100	0.900																			1580010679.0	6.92	12.82
26/01/2020 03:51:20	26012020	260120	035120	53.660	12.492907	-57.532648	53.790	0.080	-0.710	-0.060	53.700	-1.800	0.500																			1580010680.0	7.43	13.76
26/01/2020 03:51:21	26012020	260120	035121	53.870	12.492932	-57.532620	53.980	0.460	-0.860	-0.320	53.920	-2.300	0.200																			1580010681.0	8.08	14.96
26/01/2020 03:51:22	26012020	260120	035122	54.070	12.492957	-57.532590	54.030	0.380	-0.230	-0.200	54.090	-2.000	0.100																			1580010682.0	8.07	14.95
26/01/2020 03:51:23	26012020	260120	035123	54.110	12.492977	-57.532563	53.930	-0.020	0.480	0.070	54.100	-1.200	0.300																			1580010683.0	7.23	13.39
26/01/2020 03:51:24	26012020	260120	035124	54.000	12.492995	-57.532538	53.810	-0.230	0.410	0.220	53.980	-0.900	0.600																			1580010684.0	6.50	12.04
26/01/2020 03:51:25	26012020	260120	035125	53.890	12.493013	-57.532512	53.690	-0.010	-0.350	0.280	53.870	-1.400	0.700																			1580010685.0	6.81	12.61
26/01/2020 03:51:26	26012020	260120	035126	53.780	12.493035	-57.532482	53.700	0.380	-0.980	0.260	53.770	-2.200	0.700																			1580010686.0	7.79	14.43
26/01/2020 03:51:27	26012020	260120	035127	53.780	12.493058	-57.532452	53.780	0.520	-0.850	0.300	53.790	-2.400	0.700																			1580010687.0	8.28	15.33
26/01/2020 03:51:28	26012020	260120	035128	53.850	12.493082	-57.532423	53.750	0.320	-0.120	0.410	53.850	-1.900	0.700																			1580010688.0	7.86	14.56
26/01/2020 03:51:29	26012020	260120	035129	53.820	12.493102	-57.532397	53.680	-0.050	0.530	0.480	53.790	-1.100	0.900																			1580010689.0	7.07	13.09
26/01/2020 03:51:30	26012020	260120	035130	53.740	12.493122	-57.532372	53.720	-0.390	0.600	0.490	53.740	-0.800	0.900																			1580010690.0	6.71	12.43
26/01/2020 03:51:31	26012020	260120	035131	53.780	12.493142	-57.532345	53.870	-0.620	0.220	0.340	53.810	-1.000	0.800																			1580010691.0	7.05	13.06
26/01/2020 03:51:32	26012020	260120	035132	53.940	12.493162	-57.532317	54.010	-0.630	-0.240	0.230	53.970	-1.400	0.600																			1580010692.0	7.52	13.93
26/01/2020 03:51:33	26012020	260120	035133	54.080	12.493183	-57.532288	54.050	-0.360	-0.510	0.340	54.090	-1.800	0.700																			1580010693.0	7.72	14.30
26/01/2020 03:51:34	26012020	260120	035134	54.100	12.493205	-57.532258	53.920	0.060	-0.570	0.540	54.100	-2.000	0.800																			1580010694.0	7.62	14.11
26/01/2020 03:51:35	26012020	260120	035135	53.980	12.493223	-57.532228	53.640	0.390	-0.470	0.580	53.940	-1.900	1.000																			1580010695.0	7.46	13.82
26/01/2020 03:51:36	26012020	260120	035136	53.710	12.493243	-57.532200	53.390	0.490	-0.290	0.360	53.660	-1.800	0.900																			1580010696.0	7.35	13.61
26/01/2020 03:51:37	26012020	260120	035137	53.470	12.493265	-57.532173	53.290	0.430	-0.140	-0.060	53.430	-1.600	0.600																			1580010697.0	7.28	13.48
26/01/2020 03:51:38	26012020	260120	035138	53.380	12.493288	-57.532148	53.430	0.310	-0.120	-0.560	53.390	-1.500	0.100																			1580010698.0	7.33	13.58
26/01/2020 03:51:39	26012020	260120	035139	53.540	12.493313	-57.532123	53.690	0.190	-0.180	-0.890	53.590	-1.600	-0.400																			1580010699.0	7.48	13.85
26/01/2020 03:51:40	26012020	260120	035140	53.800	12.493338	-57.532098	53.860	0.050	-0.130	-0.760	53.840	-1.600	-0.500																			1580010700.0	7.61	14.09
26/01/2020 03:51:41	26012020	260120	035141	53.970	12.493360	-57.532070	53.800	-0.130	0.080	-0.030	53.970	-1.400	-0.000																			1580010701.0	7.58	14.04
26/01/2020 03:51:42	26012020	260120	035142	53.900	12.493378	-57.532042	53.660	-0.320	0.200	0.830	53.870	-1.200	0.800																			1580010702.0	7.37	13.65
26/01/2020 03:51:43	26012020	260120	035143	53.740	12.493395	-57.532010	53.540	-0.340	-0.000	1.340	53.710	-1.300	1.500																			1580010703.0	7.25	13.43
26/01/2020 03:51:44	26012020	260120	035144	53.610	12.493412	-57.531980	53.470	-0.080	-0.460	1.460	53.590	-1.700	1.800																			1580010704.0	7.37	13.65
26/01/2020 03:51:45	26012020	260120	035145	53.530	12.493433	-57.531950	53.490	0.200	-0.640	1.300	53.530	-2.000	1.800																			1580010705.0	7.77	14.39
26/01/2020 03:51:46	26012020	260120	035146	53.550	12.493455	-57.531922	53.610	0.200	-0.300	0.890	53.570	-1.900	1.500																			1580010706.0	7.86	14.56
26/01/2020 03:51:47	26012020	260120	035147	53.690	12.493478	-57.531895	53.640	-0.130	0.280	0.480	53.710	-1.400	1.100																			1580010707.0	7.45	13.80
26/01/2020 03:51:48	26012020	260120	035148	53.730	12.493498	-57.531870	53.500	-0.500	0.600	0.190	53.720	-0.900	0.700																			1580010708.0	6.91	12.80
26/01/2020 03:51:49	26012020	260120	035149	53.600	12.493520	-57.531847	53.320	-0.540	0.230	-0.100	53.560	-0.900	0.400																			1580010709.0	6.75	12.50
26/01/2020 03:51:50	26012020	260120	035150	53.430	12.493542	-57.531820	53.330	-0.050	-0.770	-0.430	53.420	-1.700	0.100																			1580010710.0	7.13	13.20
26/01/2020 03:51:51	26012020	260120	035151	53.440	12.493567	-57.531792	53.400	0.580	-1.430	-0.620	53.470	-2.600	-0.200																			1580010711.0	8.01	14.83
26/01/2020 03:51:52	26012020	260120	035152	53.510	12.493592	-57.531762	53.340	0.790	-1.020	-0.570	53.510	-2.700	-0.200																			1580010712.0	8.50	15.74
26/01/2020 03:51:53	26012020	260120	035153	53.450	12.493615	-57.531733	53.260	0.490	-0.040	-0.270	53.420	-1.900	-0.000																			1580010713.0	7.80	14.45
26/01/2020 03:51:54	26012020	260120	035154	53.340	12.493633	-57.531707	53.270	0.050	0.680	0.060	53.340	-1.000	0.300																			1580010714.0	6.77	12.54
26/01/2020 03:51:55	26012020	260120	035155	53.350	12.493650	-57.531682	53.340	-0.240	0.820	0.270	53.360	-0.600	0.600																			1580010715.0	6.59	12.20
26/01/2020 03:51:56	26012020	260120	035156	53.420	12.493670	-57.531655	53.380	-0.350	0.560	0.510	53.430	-0.700	0.800																			1580010716.0	7.06	13.08
26/01/2020 03:51:57	26012020	260120	035157	53.450	12.493692	-57.531627	53.360	-0.330	0.010	0.850	53.450	-1.100	1.100																			1580010717.0	7.44	13.78
26/01/2020 03:51:58	26012020	260120	035158	53.430	12.493713	-57.531598	53.330	-0.190	-0.630	1.150	53.420	-1.800	1.400																			1580010718.0	7.61	14.09
26/01/2020 03:51:59	26012020	260120	035159	53.400	12.493733	-57.531568	53.290	-0.040	-0.900	1.220	53.390	-2.200	1.600																			1580010719.0	7.80	14.45
26/01/2020 03:52:00	26012020	260120	035200	53.370	12.493755	-57.531538	53.170	-0.040	-0.580	1.220	53.360	-2.200	1.600	1015.10	25.80	25.90	20.90	20.90	-1.00	74.00	74.00	389.00	25.30	1.00	8.70	55.00	4.90	15	3368.00	27.40	27.40	1580010720.0	7.77	14.39
26/01/2020 03:52:01	26012020	260120	035201	53.250	12.493775	-57.531510	53.030	-0.160	-0.050	1.150	53.220	-1.700	1.600																			1580010721.0	7.29	13.50
26/01/2020 03:52:02	26012020	260120	035202	53.100	12.493795	-57.531485	53.050	-0.180	0.090	0.740	53.090	-1.300	1.400																			1580010722.0	6.81	12.61
26/01/2020 03:52:03	26012020	260120	035203	53.130	12.493815	-57.531460	53.220	0.030	-0.200	0.050	53.160	-1.400	0.800																			1580010723.0	6.90	12.78
26/01/2020 03:52:04	26012020	260120	035204	53.320	12.493840	-57.531433	53.330	0.330	-0.470	-0.490	53.350	-1.800	0.100																			1580010724.0	7.50	13.89
26/01/2020 03:52:05	26012020	260120	035205	53.430	12.493865	-57.531407	53.280	0.460	-0.430	-0.690	53.430	-1.900	-0.200																			1580010725.0	7.86	14.56
26/01/2020 03:52:06	26012020	260120	035206	53.390	12.493888	-57.531380	53.200	0.340	-0.180	-0.670	53.380	-1.700	-0.300																			1580010726.0	7.67	14.20
26/01/2020 03:52:07	26012020	260120	035207	53.320	12.493910	-57.531353	53.150	0.130	0.050	-0.480	53.300	-1.500	-0.200																			1580010727.0	7.36	13.63
26/01/2020 03:52:08	26012020	260120	035208	53.260	12.493932	-57.531327	53.180	-0.000	0.170	-0.260	53.250	-1.300	0.000																			1580010728.0	7.25	13.43
26/01/2020 03:52:09	26012020	260120	035209	53.270	12.493953	-57.531300	53.260	-0.050	0.110	0.030	53.290	-1.300	0.300																			1580010729.0	7.29	13.50
26/01/2020 03:52:10	26012020	260120	035210	53.340	12.493973	-57.531272	53.310	-0.120	0.010	0.440	53.360	-1.400	0.600																			1580010730.0	7.41	13.72
26/01/2020 03:52:11	26012020	260120	035211	53.380	12.493993	-57.531242	53.330	-0.270	-0.020	0.830	53.380	-1.400	1.100																			1580010731.0	7.50	13.89
26/01/2020 03:52:12	26012020	260120	035212	53.390	12.494013	-57.531213	53.410	-0.390	-0.080	1.050	53.390	-1.400	1.400																			1580010732.0	7.35	13.61
26/01/2020 03:52:13	26012020	260120	035213	53.460	12.494032	-57.531187	53.530	-0.280	-0.300	1.100	53.480	-1.600	1.500																			1580010733.0	7.20	13.33
26/01/2020 03:52:14	26012020	260120	035214	53.570	12.494053	-57.531158	53.540	0.010	-0.560	1.030	53.590	-1.900	1.500																			1580010734.0	7.30	13.52
26/01/2020 03:52:15	26012020	260120	035215	53.590	12.494075	-57.531130	53.450	0.240	-0.620	0.880	53.580	-2.000	1.400																			1580010735.0	7.58	14.04
26/01/2020 03:52:16	26012020	260120	035216	53.500	12.494097	-57.531102	53.350	0.290	-0.420	0.640	53.480	-1.900	1.200																			1580010736.0	7.60	14.08
26/01/2020 03:52:17	26012020	260120	035217	53.400	12.494118	-57.531075	53.380	0.180	-0.060	0.270	53.400	-1.600	0.900																			1580010737.0	7.43	13.76
26/01/2020 03:52:18	26012020	260120	035218	53.450	12.494142	-57.531050	53.480	0.000	0.210	-0.170	53.480	-1.300	0.400																			1580010738.0	7.20	13.33
26/01/2020 03:52:19	26012020	260120	035219	53.590	12.494163	-57.531025	53.570	-0.080	0.150	-0.540	53.610	-1.200	0.000																			1580010739.0	7.10	13.15
26/01/2020 03:52:20	26012020	260120	035220	53.690	12.494187	-57.531000	53.580	0.010	-0.200	-0.620	53.690	-1.400	-0.200																			1580010740.0	7.29	13.50
26/01/2020 03:52:21	26012020	260120	035221	53.690	12.494210	-57.530972	53.530	0.140	-0.480	-0.460	53.670	-1.800	-0.200																			1580010741.0	7.66	14.19
26/01/2020 03:52:22	26012020	260120	035222	53.640	12.494232	-57.530943	53.590	0.170	-0.430	-0.260	53.640	-1.900	0.000																			1580010742.0	7.83	14.50
26/01/2020 03:52:23	26012020	260120	035223	53.670	12.494253	-57.530913	53.640	0.010	-0.080	-0.010	53.690	-1.700	0.300																			1580010743.0	7.62	14.11
26/01/2020 03:52:24	26012020	260120	035224	53.710	12.494273	-57.530887	53.630	-0.200	0.200	0.260	53.710	-1.300	0.500																			1580010744.0	7.23	13.39
26/01/2020 03:52:25	26012020	260120	035225	53.700	12.494292	-57.530860	53.640	-0.270	0.200	0.480	53.700	-1.200	0.800																			1580010745.0	7.04	13.04
26/01/2020 03:52:26	26012020	260120	035226	53.700	12.494312	-57.530832	53.690	-0.160	-0.060	0.660	53.710	-1.300	1.000																			1580010746.0	7.21	13.35
26/01/2020 03:52:27	26012020	260120	035227	53.750	12.494333	-57.530803	53.820	0.040	-0.390	0.750	53.760	-1.700	1.100																			1580010747.0	7.49	13.87
26/01/2020 03:52:28	26012020	260120	035228	53.870	12.494355	-57.530775	53.980	0.190	-0.550	0.760	53.900	-1.900	1.100																			1580010748.0	7.66	14.19
26/01/2020 03:52:29	26012020	260120	035229	54.050	12.494377	-57.530747	53.990	0.140	-0.270	0.860	54.070	-1.900	1.200																			1580010749.0	7.67	14.20
26/01/2020 03:52:30	26012020	260120	035230	54.060	12.494398	-57.530718	53.820	-0.090	0.180	1.020	54.030	-1.400	1.300																			1580010750.0	7.39	13.69
26/01/2020 03:52:31	26012020	260120	035231	53.880	12.494417	-57.530692	53.670	-0.240	0.170	0.910	53.840	-1.100	1.400																			1580010751.0	6.91	12.80
26/01/2020 03:52:32	26012020	260120	035232	53.750	12.494437	-57.530667	53.750	-0.090	-0.420	0.380	53.750	-1.500	1.100																			1580010752.0	6.95	12.87
26/01/2020 03:52:33	26012020	260120	035233	53.840	12.494460	-57.530638	53.960	0.170	-0.840	-0.310	53.880	-2.100	0.400																			1580010753.0	7.72	14.30
26/01/2020 03:52:34	26012020	260120	035234	54.040	12.494487	-57.530610	54.080	0.260	-0.560	-0.630	54.080	-2.200	-0.200																			1580010754.0	8.21	15.20
26/01/2020 03:52:35	26012020	260120	035235	54.170	12.494512	-57.530583	54.050	0.080	0.170	-0.470	54.180	-1.600	-0.200																			1580010755.0	7.75	14.35
26/01/2020 03:52:36	26012020	260120	035236	54.140	12.494532	-57.530558	53.990	-0.180	0.550	-0.200	54.120	-1.000	0.100																			1580010756.0	6.92	12.82
26/01/2020 03:52:37	26012020	260120	035237	54.080	12.494548	-57.530532	53.950	-0.230	0.270	-0.030	54.070	-0.900	0.300																			1580010757.0	6.71	12.43
26/01/2020 03:52:38	26012020	260120	035238	54.040	12.494568	-57.530503	53.900	-0.070	-0.270	0.130	54.030	-1.400	0.500																			1580010758.0	7.28	13.48
26/01/2020 03:52:39	26012020	260120	035239	53.990	12.494590	-57.530473	53.910	0.130	-0.580	0.270	53.980	-1.900	0.600																			1580010759.0	7.85	14.54
26/01/2020 03:52:40	26012020	260120	035240	53.990	12.494613	-57.530445	54.020	0.200	-0.510	0.340	54.000	-2.000	0.700																			1580010760.0	7.88	14.59
26/01/2020 03:52:41	26012020	260120	035241	54.090	12.494635	-57.530417	54.100	0.100	-0.200	0.440	54.110	-1.800	0.800																			1580010761.0	7.56	14.00
26/01/2020 03:52:42	26012020	260120	035242	54.160	12.494657	-57.530390	54.080	-0.090	0.130	0.680	54.170	-1.400	0.900																			1580010762.0	7.22	13.37
26/01/2020 03:52:43	26012020	260120	035243	54.150	12.494675	-57.530363	54.030	-0.250	0.140	0.830	54.140	-1.200	1.200																			1580010763.0	7.05	13.06
26/01/2020 03:52:44	26012020	260120	035244	54.110	12.494695	-57.530335	54.140	-0.240	-0.190	0.730	54.110	-1.400	1.200																			1580010764.0	7.14	13.22
26/01/2020 03:52:45	26012020	260120	035245	54.200	12.494715	-57.530307	54.300	0.000	-0.540	0.530	54.240	-1.800	1.000																			1580010765.0	7.50	13.89
26/01/2020 03:52:46	26012020	260120	035246	54.370	12.494738	-57.530278	54.340	0.260	-0.550	0.400	54.390	-2.000	0.800																			1580010766.0	7.82	14.48
26/01/2020 03:52:47	26012020	260120	035247	54.410	12.494762	-57.530250	54.190	0.280	-0.170	0.370	54.390	-1.800	0.800																			1580010767.0	7.75	14.35
26/01/2020 03:52:48	26012020	260120	035248	54.270	12.494782	-57.530222	54.010	0.030	0.290	0.250	54.220	-1.300	0.700																			1580010768.0	7.34	13.59
26/01/2020 03:52:49	26012020	260120	035249	54.090	12.494802	-57.530197	54.020	-0.270	0.400	-0.100	54.070	-1.000	0.500																			1580010769.0	6.98	12.93
26/01/2020 03:52:50	26012020	260120	035250	54.110	12.494823	-57.530172	54.180	-0.350	0.030	-0.500	54.130	-1.200	0.100																			1580010770.0	7.00	12.96
26/01/2020 03:52:51	26012020	260120	035251	54.270	12.494847	-57.530145	54.370	-0.110	-0.620	-0.760	54.310	-1.700	-0.300																			1580010771.0	7.40	13.70
26/01/2020 03:52:52	26012020	260120	035252	54.470	12.494870	-57.530117	54.490	0.240	-0.960	-0.670	54.500	-2.300	-0.400																			1580010772.0	7.90	14.63
26/01/2020 03:52:53	26012020	260120	035253	54.570	12.494893	-57.530087	54.420	0.360	-0.580	-0.200	54.570	-2.300	-0.100																			1580010773.0	8.08	14.96
26/01/2020 03:52:54	26012020	260120	035254	54.490	12.494913	-57.530058	54.240	0.170	0.190	0.380	54.450	-1.600	0.500																			1580010774.0	7.59	14.06
26/01/2020 03:52:55	26012020	260120	035255	54.310	12.494930	-57.530030	54.140	-0.070	0.570	0.730	54.270	-0.900	1.000																			1580010775.0	6.84	12.67
26/01/2020 03:52:56	26012020	260120	035256	54.200	12.494948	-57.530003	54.220	-0.110	0.240	0.770	54.200	-0.900	1.200																			1580010776.0	6.73	12.46
26/01/2020 03:52:57	26012020	260120	035257	54.280	12.494968	-57.529975	54.390	0.000	-0.330	0.650	54.320	-1.500	1.100																			1580010777.0	7.33	13.58
26/01/2020 03:52:58	26012020	260120	035258	54.460	12.494992	-57.529947	54.520	0.070	-0.590	0.570	54.500	-1.900	1.000																			1580010778.0	7.94	14.70
26/01/2020 03:52:59	26012020	260120	035259	54.590	12.495015	-57.529918	54.540	-0.010	-0.400	0.590	54.600	-1.900	1.000																			1580010779.0	7.88	14.59
26/01/2020 03:53:00	26012020	260120	035300	54.610	12.495037	-57.529890	54.500	-0.180	-0.040	0.620	54.610	-1.600	1.000	1015.10	25.70	25.80	20.90	20.90	-1.00	74.00	74.00	389.00	25.30	359.00	8.70	53.00	4.90	15	3339.00	27.40	27.40	1580010780.0	7.43	13.76
26/01/2020 03:53:01	26012020	260120	035301	54.570	12.495055	-57.529863	54.450	-0.270	0.110	0.610	54.560	-1.300	1.000																			1580010781.0	7.05	13.06
26/01/2020 03:53:02	26012020	260120	035302	54.520	12.495075	-57.529837	54.460	-0.160	-0.080	0.520	54.520	-1.400	1.000																			1580010782.0	7.03	13.02
26/01/2020 03:53:03	26012020	260120	035303	54.530	12.495095	-57.529808	54.390	0.040	-0.310	0.340	54.530	-1.600	0.800																			1580010783.0	7.39	13.69
26/01/2020 03:53:04	26012020	260120	035304	54.480	12.495117	-57.529780	54.360	0.150	-0.350	0.020	54.470	-1.800	0.600																			1580010784.0	7.68	14.22
26/01/2020 03:53:05	26012020	260120	035305	54.450	12.495140	-57.529752	54.420	0.180	-0.290	-0.310	54.460	-1.700	0.200																			1580010785.0	7.58	14.04
26/01/2020 03:53:06	26012020	260120	035306	54.510	12.495162	-57.529725	54.480	0.180	-0.230	-0.470	54.530	-1.700	-0.000																			1580010786.0	7.41	13.72
26/01/2020 03:53:07	26012020	260120	035307	54.570	12.495185	-57.529698	54.460	0.130	-0.100	-0.430	54.570	-1.600	-0.100																			1580010787.0	7.45	13.80
26/01/2020 03:53:08	26012020	260120	035308	54.550	12.495207	-57.529672	54.440	0.030	0.020	-0.230	54.540	-1.400	0.100																			1580010788.0	7.44	13.78
26/01/2020 03:53:09	26012020	260120	035309	54.520	12.495228	-57.529645	54.470	-0.050	-0.020	0.080	54.520	-1.400	0.300																			1580010789.0	7.32	13.56
26/01/2020 03:53:10	26012020	260120	035310	54.540	12.495247	-57.529615	54.530	-0.120	-0.090	0.440	54.550	-1.500	0.700																			1580010790.0	7.38	13.67
26/01/2020 03:53:11	26012020	260120	035311	54.570	12.495267	-57.529587	54.520	-0.200	-0.070	0.740	54.570	-1.500	1.000																			1580010791.0	7.51	13.91
26/01/2020 03:53:12	26012020	260120	035312	54.560	12.495285	-57.529557	54.460	-0.230	-0.080	0.960	54.550	-1.500	1.300																			1580010792.0	7.42	13.74
26/01/2020 03:53:13	26012020	260120	035313	54.500	12.495305	-57.529528	54.410	-0.090	-0.260	1.000	54.490	-1.600	1.400																			1580010793.0	7.29	13.50
26/01/2020 03:53:14	26012020	260120	035314	54.450	12.495325	-57.529500	54.410	0.170	-0.520	0.870	54.450	-1.800	1.300																			1580010794.0	7.40	13.70
26/01/2020 03:53:15	26012020	260120	035315	54.460	12.495347	-57.529472	54.370	0.310	-0.570	0.730	54.460	-2.000	1.200																			1580010795.0	7.68	14.22
26/01/2020 03:53:16	26012020	260120	035316	54.420	12.495368	-57.529443	54.260	0.240	-0.370	0.570	54.400	-1.900	1.000																			1580010796.0	7.71	14.28
26/01/2020 03:53:17	26012020	260120	035317	54.320	12.495390	-57.529415	54.220	0.060	0.030	0.270	54.290	-1.600	0.800																			1580010797.0	7.48	13.85
26/01/2020 03:53:18	26012020	260120	035318	54.280	12.495412	-57.529388	54.270	-0.170	0.420	-0.090	54.290	-1.200	0.500																			1580010798.0	7.26	13.45
26/01/2020 03:53:19	26012020	260120	035319	54.340	12.495433	-57.529363	54.330	-0.340	0.430	-0.400	54.360	-0.900	0.100																			1580010799.0	7.07	13.09
26/01/2020 03:53:20	26012020	260120	035320	54.410	12.495455	-57.529338	54.390	-0.290	-0.050	-0.500	54.430	-1.200	-0.100																			1580010800.0	7.15	13.24
26/01/2020 03:53:21	26012020	260120	035321	54.480	12.495478	-57.529310	54.390	-0.060	-0.560	-0.360	54.480	-1.800	-0.100																			1580010801.0	7.60	14.08
26/01/2020 03:53:22	26012020	260120	035322	54.470	12.495500	-57.529280	54.300	0.130	-0.620	-0.040	54.460	-2.100	0.200																			1580010802.0	7.96	14.74
26/01/2020 03:53:23	26012020	260120	035323	54.370	12.495522	-57.529250	54.110	0.140	-0.270	0.420	54.340	-1.900	0.600																			1580010803.0	7.77	14.39
26/01/2020 03:53:24	26012020	260120	035324	54.180	12.495540	-57.529222	54.020	0.060	-0.040	0.770	54.150	-1.500	1.000																			1580010804.0	7.19	13.32
26/01/2020 03:53:25	26012020	260120	035325	54.090	12.495558	-57.529193	54.150	0.060	-0.220	0.800	54.100	-1.500	1.200																			1580010805.0	6.98	12.93
26/01/2020 03:53:26	26012020	260120	035326	54.220	12.495578	-57.529165	54.320	0.140	-0.450	0.710	54.260	-1.800	1.100																			1580010806.0	7.38	13.67
26/01/2020 03:53:27	26012020	260120	035327	54.390	12.495600	-57.529137	54.300	0.150	-0.290	0.780	54.400	-1.800	1.100																			1580010807.0	7.82	14.48
26/01/2020 03:53:28	26012020	260120	035328	54.370	12.495622	-57.529108	54.140	0.020	0.140	0.880	54.340	-1.500	1.200																			1580010808.0	7.66	14.19
26/01/2020 03:53:29	26012020	260120	035329	54.200	12.495642	-57.529080	53.980	-0.160	0.400	0.700	54.170	-1.100	1.200																			1580010809.0	7.19	13.32
26/01/2020 03:53:30	26012020	260120	035330	54.050	12.495662	-57.529055	53.910	-0.160	0.150	0.310	54.030	-1.100	0.900																			1580010810.0	7.00	12.96
26/01/2020 03:53:31	26012020	260120	035331	53.990	12.495685	-57.529028	54.020	0.020	-0.410	-0.150	54.000	-1.600	0.500																			1580010811.0	7.33	13.58
26/01/2020 03:53:32	26012020	260120	035332	54.110	12.495708	-57.529000	54.130	0.130	-0.700	-0.390	54.140	-2.100	0.100																			1580010812.0	7.88	14.59
26/01/2020 03:53:33	26012020	260120	035333	54.210	12.495733	-57.528972	54.080	-0.020	-0.380	-0.380	54.220	-2.000	-0.000																			1580010813.0	7.99	14.80
26/01/2020 03:53:34	26012020	260120	035334	54.160	12.495755	-57.528945	53.940	-0.330	0.140	-0.150	54.140	-1.500	0.100																			1580010814.0	7.46	13.82
26/01/2020 03:53:35	26012020	260120	035335	54.020	12.495775	-57.528918	53.860	-0.460	0.210	0.170	53.990	-1.200	0.400																			1580010815.0	6.87	12.72
26/01/2020 03:53:36	26012020	260120	035336	53.930	12.495793	-57.528892	53.880	-0.210	-0.270	0.480	53.920	-1.400	0.700																			1580010816.0	6.94	12.85
26/01/2020 03:53:37	26012020	260120	035337	53.940	12.495813	-57.528862	53.960	0.210	-0.700	0.660	53.950	-2.000	1.000																			1580010817.0	7.63	14.13
26/01/2020 03:53:38	26012020	260120	035338	54.000	12.495833	-57.528830	53.960	0.410	-0.540	0.760	54.010	-2.100	1.100																			1580010818.0	8.10	15.00
26/01/2020 03:53:39	26012020	260120	035339	54.010	12.495855	-57.528800	53.910	0.270	0.050	0.840	54.000	-1.700	1.200																			1580010819.0	7.76	14.37
26/01/2020 03:53:40	26012020	260120	035340	53.960	12.495875	-57.528773	53.820	0.030	0.510	0.810	53.950	-1.100	1.200																			1580010820.0	7.09	13.13
26/01/2020 03:53:41	26012020	260120	035341	53.870	12.495893	-57.528748	53.710	-0.050	0.400	0.610	53.860	-0.900	1.100																			1580010821.0	6.81	12.61
26/01/2020 03:53:42	26012020	260120	035342	53.770	12.495915	-57.528722	53.670	0.080	-0.200	0.240	53.760	-1.300	0.800																			1580010822.0	7.15	13.24
26/01/2020 03:53:43	26012020	260120	035343	53.750	12.495940	-57.528695	53.740	0.220	-0.670	-0.070	53.760	-1.900	0.400																			1580010823.0	7.79	14.43
26/01/2020 03:53:44	26012020	260120	035344	53.830	12.495965	-57.528667	53.770	0.180	-0.580	-0.100	53.840	-2.100	0.300																			1580010824.0	8.05	14.91
26/01/2020 03:53:45	26012020	260120	035345	53.860	12.495988	-57.528638	53.730	-0.040	-0.200	0.090	53.850	-1.800	0.400																			1580010825.0	7.63	14.13
26/01/2020 03:53:46	26012020	260120	035346	53.810	12.496008	-57.528612	53.750	-0.250	-0.050	0.260	53.800	-1.500	0.600																			1580010826.0	7.08	13.11
26/01/2020 03:53:47	26012020	260120	035347	53.820	12.496027	-57.528585	53.780	-0.300	-0.220	0.440	53.830	-1.500	0.700																			1580010827.0	7.08	13.11
26/01/2020 03:53:48	26012020	260120	035348	53.840	12.496048	-57.528557	53.740	-0.230	-0.290	0.640	53.830	-1.700	0.900																			1580010828.0	7.52	13.93
26/01/2020 03:53:49	26012020	260120	035349	53.810	12.496068	-57.528527	53.720	-0.170	-0.020	0.800	53.790	-1.600	1.100																			1580010829.0	7.75	14.35
26/01/2020 03:53:50	26012020	260120	035350	53.780	12.496088	-57.528497	53.710	-0.170	0.240	0.850	53.780	-1.300	1.200																			1580010830.0	7.43	13.76
26/01/2020 03:53:51	26012020	260120	035351	53.770	12.496107	-57.528470	53.710	-0.090	0.060	0.690	53.770	-1.200	1.200																			1580010831.0	7.08	13.11
26/01/2020 03:53:52	26012020	260120	035352	53.770	12.496127	-57.528442	53.730	0.150	-0.420	0.340	53.780	-1.600	0.900																			1580010832.0	7.26	13.45
26/01/2020 03:53:53	26012020	260120	035353	53.790	12.496150	-57.528415	53.760	0.430	-0.670	0.010	53.800	-2.000	0.600																			1580010833.0	7.79	14.43
26/01/2020 03:53:54	26012020	260120	035354	53.830	12.496175	-57.528387	53.840	0.440	-0.330	-0.210	53.850	-2.000	0.300																			1580010834.0	8.01	14.83
26/01/2020 03:53:55	26012020	260120	035355	53.920	12.496200	-57.528360	53.880	0.160	0.250	-0.230	53.930	-1.400	0.100																			1580010835.0	7.57	14.02
26/01/2020 03:53:56	26012020	260120	035356	53.950	12.496222	-57.528335	53.820	-0.200	0.510	-0.010	53.940	-1.000	0.300																			1580010836.0	6.94	12.85
26/01/2020 03:53:57	26012020	260120	035357	53.900	12.496240	-57.528310	53.710	-0.320	0.100	0.330	53.880	-1.100	0.600																			1580010837.0	6.80	12.59
26/01/2020 03:53:58	26012020	260120	035358	53.770	12.496260	-57.528282	53.660	-0.130	-0.680	0.600	53.750	-1.700	0.900																			1580010838.0	7.31	13.54
26/01/2020 03:53:59	26012020	260120	035359	53.710	12.496282	-57.528252	53.730	0.130	-1.090	0.860	53.710	-2.400	1.100																			1580010839.0	8.01	14.83
26/01/2020 03:54:00	26012020	260120	035400	53.770	12.496303	-57.528220	53.870	0.180	-0.670	1.040	53.790	-2.400	1.400	1015.10	25.70	25.80	20.70	20.70	-1.00	73.00	73.00	388.00	25.20	357.00	8.90	50.00	5.10	15	3254.00	27.40	27.40	1580010840.0	8.20	15.19
26/01/2020 03:54:01	26012020	260120	035401	53.920	12.496323	-57.528190	53.960	-0.010	0.170	1.050	53.940	-1.600	1.400																			1580010841.0	7.58	14.04
26/01/2020 03:54:02	26012020	260120	035402	54.010	12.496342	-57.528163	53.960	-0.160	0.530	0.870	54.020	-1.000	1.400																			1580010842.0	6.75	12.50
26/01/2020 03:54:03	26012020	260120	035403	54.020	12.496360	-57.528138	53.920	-0.120	0.250	0.490	54.020	-1.000	1.100																			1580010843.0	6.74	12.48
26/01/2020 03:54:04	26012020	260120	035404	54.000	12.496383	-57.528112	53.850	0.010	-0.170	0.080	53.990	-1.400	0.700																			1580010844.0	7.46	13.82
26/01/2020 03:54:05	26012020	260120	035405	53.930	12.496408	-57.528083	53.790	0.100	-0.360	-0.180	53.910	-1.700	0.300																			1580010845.0	7.92	14.67
26/01/2020 03:54:06	26012020	260120	035406	53.870	12.496433	-57.528057	53.790	0.050	-0.290	-0.300	53.860	-1.800	0.100																			1580010846.0	7.81	14.46
26/01/2020 03:54:07	26012020	260120	035407	53.870	12.496455	-57.528030	53.870	-0.120	-0.160	-0.330	53.880	-1.600	0.100																			1580010847.0	7.44	13.78
26/01/2020 03:54:08	26012020	260120	035408	53.940	12.496475	-57.528003	53.980	-0.230	-0.180	-0.270	53.970	-1.600	0.100																			1580010848.0	7.19	13.32
26/01/2020 03:54:09	26012020	260120	035409	54.050	12.496495	-57.527975	54.010	-0.150	-0.220	-0.040	54.060	-1.600	0.200																			1580010849.0	7.27	13.46
26/01/2020 03:54:10	26012020	260120	035410	54.080	12.496517	-57.527947	54.000	0.060	-0.250	0.230	54.080	-1.700	0.500																			1580010850.0	7.45	13.80
26/01/2020 03:54:11	26012020	260120	035411	54.050	12.496537	-57.527918	54.030	0.230	-0.290	0.440	54.050	-1.700	0.700																			1580010851.0	7.47	13.83
26/01/2020 03:54:12	26012020	260120	035412	54.080	12.496557	-57.527888	53.990	0.240	-0.250	0.750	54.080	-1.700	1.000																			1580010852.0	7.51	13.91
26/01/2020 03:54:13	26012020	260120	035413	54.030	12.496577	-57.527860	53.820	0.070	-0.010	1.040	54.000	-1.600	1.300																			1580010853.0	7.52	13.93
26/01/2020 03:54:14	26012020	260120	035414	53.860	12.496597	-57.527832	53.730	-0.090	0.140	1.030	53.830	-1.300	1.500																			1580010854.0	7.33	13.58
26/01/2020 03:54:15	26012020	260120	035415	53.770	12.496617	-57.527805	53.850	-0.000	-0.140	0.650	53.780	-1.400	1.200																			1580010855.0	7.13	13.20
26/01/2020 03:54:16	26012020	260120	035416	53.900	12.496638	-57.527778	54.000	0.300	-0.600	0.300	53.940	-1.800	0.800																			1580010856.0	7.41	13.72
26/01/2020 03:54:17	26012020	260120	035417	54.060	12.496663	-57.527750	53.910	0.400	-0.550	0.220	54.060	-2.100	0.600																			1580010857.0	7.98	14.78
26/01/2020 03:54:18	26012020	260120	035418	53.970	12.496687	-57.527722	53.740	0.070	0.010	0.260	53.940	-1.700	0.600																			1580010858.0	7.92	14.67
26/01/2020 03:54:19	26012020	260120	035419	53.790	12.496708	-57.527693	53.690	-0.470	0.460	0.250	53.770	-1.100	0.700																			1580010859.0	7.21	13.35
26/01/2020 03:54:20	26012020	260120	035420	53.750	12.496727	-57.527668	53.750	-0.770	0.430	0.140	53.760	-0.900	0.600																			1580010860.0	6.79	12.58
26/01/2020 03:54:21	26012020	260120	035421	53.810	12.496747	-57.527642	53.820	-0.610	0.010	0.040	53.830	-1.200	0.500																			1580010861.0	7.05	13.06
26/01/2020 03:54:22	26012020	260120	035422	53.890	12.496768	-57.527613	53.910	-0.070	-0.570	-0.000	53.910	-1.700	0.400																			1580010862.0	7.49	13.87
26/01/2020 03:54:23	26012020	260120	035423	53.990	12.496790	-57.527585	53.910	0.460	-0.880	0.120	54.000	-2.200	0.400																			1580010863.0	7.83	14.50
26/01/2020 03:54:24	26012020	260120	035424	53.970	12.496812	-57.527555	53.660	0.640	-0.610	0.330	53.940	-2.200	0.600																			1580010864.0	7.91	14.65
26/01/2020 03:54:25	26012020	260120	035425	53.720	12.496833	-57.527525	53.340	0.450	-0.040	0.390	53.650	-1.700	0.800																			1580010865.0	7.52	13.93
26/01/2020 03:54:26	26012020	260120	035426	53.420	12.496853	-57.527500	53.350	0.170	0.210	0.260	53.380	-1.300	0.700																			1580010866.0	6.99	12.95
26/01/2020 03:54:27	26012020	260120	035427	53.420	12.496875	-57.527475	53.590	0.020	-0.030	0.070	53.460	-1.300	0.500																			1580010867.0	6.95	12.87
26/01/2020 03:54:28	26012020	260120	035428	53.660	12.496898	-57.527450	53.760	-0.050	-0.290	-0.020	53.710	-1.600	0.400																			1580010868.0	7.48	13.85
26/01/2020 03:54:29	26012020	260120	035429	53.830	12.496922	-57.527420	53.740	-0.160	-0.240	0.270	53.840	-1.700	0.500																			1580010869.0	7.86	14.56
26/01/2020 03:54:30	26012020	260120	035430	53.820	12.496943	-57.527392	53.660	-0.300	-0.010	0.810	53.800	-1.500	0.900																			1580010870.0	7.65	14.17
26/01/2020 03:54:31	26012020	260120	035431	53.710	12.496962	-57.527363	53.620	-0.320	0.050	1.130	53.700	-1.400	1.400																			1580010871.0	7.30	13.52
26/01/2020 03:54:32	26012020	260120	035432	53.660	12.496978	-57.527333	53.600	-0.140	-0.050	1.020	53.660	-1.400	1.500																			1580010872.0	7.24	13.41
26/01/2020 03:54:33	26012020	260120	035433	53.660	12.496998	-57.527305	53.580	0.080	-0.100	0.710	53.650	-1.500	1.200																			1580010873.0	7.43	13.76
26/01/2020 03:54:34	26012020	260120	035434	53.630	12.497022	-57.527277	53.580	0.190	-0.130	0.300	53.630	-1.500	0.900																			1580010874.0	7.49	13.87
26/01/2020 03:54:35	26012020	260120	035435	53.640	12.497043	-57.527252	53.600	0.210	-0.340	-0.140	53.640	-1.600	0.400																			1580010875.0	7.35	13.61
26/01/2020 03:54:36	26012020	260120	035436	53.660	12.497068	-57.527227	53.630	0.180	-0.530	-0.460	53.670	-1.900	0.100																			1580010876.0	7.48	13.85
26/01/2020 03:54:37	26012020	260120	035437	53.710	12.497093	-57.527200	53.700	0.120	-0.500	-0.530	53.730	-2.000	-0.200																			1580010877.0	7.73	14.32
26/01/2020 03:54:38	26012020	260120	035438	53.780	12.497117	-57.527173	53.730	0.010	-0.300	-0.240	53.780	-1.800	-0.000																			1580010878.0	7.63	14.13
26/01/2020 03:54:39	26012020	260120	035439	53.780	12.497138	-57.527145	53.680	-0.170	0.010	0.170	53.770	-1.600	0.400																			1580010879.0	7.44	13.78
26/01/2020 03:54:40	26012020	260120	035440	53.730	12.497157	-57.527117	53.700	-0.330	0.330	0.470	53.720	-1.200	0.700																			1580010880.0	7.34	13.59
26/01/2020 03:54:41	26012020	260120	035441	53.750	12.497175	-57.527088	53.820	-0.260	0.310	0.670	53.770	-1.000	1.000																			1580010881.0	7.13	13.20
26/01/2020 03:54:42	26012020	260120	035442	53.880	12.497193	-57.527060	53.910	0.080	-0.140	0.780	53.900	-1.300	1.100																			1580010882.0	7.15	13.24
26/01/2020 03:54:43	26012020	260120	035443	53.970	12.497213	-57.527030	53.860	0.410	-0.560	0.750	53.980	-1.800	1.200																			1580010883.0	7.61	14.09
26/01/2020 03:54:44	26012020	260120	035444	53.930	12.497237	-57.527002	53.740	0.520	-0.660	0.600	53.910	-2.100	1.100																			1580010884.0	7.92	14.67
26/01/2020 03:54:45	26012020	260120	035445	53.820	12.497260	-57.526973	53.690	0.380	-0.450	0.410	53.800	-2.000	0.900																			1580010885.0	7.76	14.37
26/01/2020 03:54:46	26012020	260120	035446	53.770	12.497283	-57.526947	53.720	0.080	-0.070	0.210	53.770	-1.700	0.700																			1580010886.0	7.49	13.87
26/01/2020 03:54:47	26012020	260120	035447	53.800	12.497307	-57.526922	53.770	-0.270	0.280	-0.010	53.810	-1.300	0.500																			1580010887.0	7.26	13.45
26/01/2020 03:54:48	26012020	260120	035448	53.870	12.497328	-57.526895	53.860	-0.560	0.420	-0.100	53.880	-1.000	0.300																			1580010888.0	7.13	13.20
26/01/2020 03:54:49	26012020	260120	035449	53.950	12.497348	-57.526870	53.910	-0.680	0.300	0.020	53.970	-1.000	0.300																			1580010889.0	7.17	13.28
26/01/2020 03:54:50	26012020	260120	035450	54.000	12.497370	-57.526842	53.920	-0.500	-0.150	0.190	54.000	-1.300	0.500																			1580010890.0	7.28	13.48
26/01/2020 03:54:51	26012020	260120	035451	54.000	12.497390	-57.526813	53.850	-0.030	-0.800	0.360	53.990	-1.900	0.700																			1580010891.0	7.50	13.89
26/01/2020 03:54:52	26012020	260120	035452	53.930	12.497410	-57.526783	53.790	0.510	-1.240	0.470	53.920	-2.500	0.800																			1580010892.0	7.86	14.56
26/01/2020 03:54:53	26012020	260120	035453	53.860	12.497433	-57.526752	53.780	0.740	-1.020	0.500	53.860	-2.600	0.900																			1580010893.0	8.10	15.00
26/01/2020 03:54:54	26012020	260120	035454	53.860	12.497455	-57.526722	53.830	0.490	-0.090	0.430	53.860	-2.000	0.800																			1580010894.0	7.87	14.58
26/01/2020 03:54:55	26012020	260120	035455	53.900	12.497475	-57.526695	53.880	-0.020	0.910	0.350	53.910	-0.900	0.800																			1580010895.0	7.12	13.19
26/01/2020 03:54:56	26012020	260120	035456	53.960	12.497495	-57.526672	53.860	-0.390	1.170	0.330	53.970	-0.200	0.700																			1580010896.0	6.53	12.09
26/01/2020 03:54:57	26012020	260120	035457	53.940	12.497515	-57.526647	53.790	-0.390	0.520	0.250	53.920	-0.500	0.700																			1580010897.0	6.70	12.41
26/01/2020 03:54:58	26012020	260120	035458	53.870	12.497537	-57.526620	53.790	-0.090	-0.570	0.020	53.860	-1.500	0.500																			1580010898.0	7.51	13.91
26/01/2020 03:54:59	26012020	260120	035459	53.870	12.497562	-57.526590	53.940	0.220	-1.300	-0.190	53.890	-2.500	0.300																			1580010899.0	8.23	15.24
26/01/2020 03:55:00	26012020	260120	035500	54.010	12.497587	-57.526560	54.110	0.270	-1.110	-0.170	54.050	-2.700	0.200	1015.10	25.70	25.80	20.60	20.70	-1.00	73.00	73.00	388.00	25.20	0.00	8.50	54.00	4.70	15	3354.00	27.40	27.40	1580010900.0	8.39	15.54
26/01/2020 03:55:01	26012020	260120	035501	54.180	12.497610	-57.526532	54.190	0.000	-0.230	0.110	54.200	-2.100	0.300																			1580010901.0	7.76	14.37
26/01/2020 03:55:02	26012020	260120	035502	54.260	12.497628	-57.526505	54.130	-0.350	0.550	0.450	54.260	-1.200	0.700																			1580010902.0	6.86	12.70
26/01/2020 03:55:03	26012020	260120	035503	54.200	12.497645	-57.526480	54.010	-0.460	0.670	0.780	54.170	-0.700	1.000																			1580010903.0	6.48	12.00
26/01/2020 03:55:04	26012020	260120	035504	54.070	12.497663	-57.526452	53.970	-0.200	0.040	0.930	54.050	-1.000	1.300																			1580010904.0	6.87	12.72
26/01/2020 03:55:05	26012020	260120	035505	54.030	12.497683	-57.526422	54.070	0.190	-0.730	0.710	54.040	-1.800	1.200																			1580010905.0	7.64	14.15
26/01/2020 03:55:06	26012020	260120	035506	54.120	12.497705	-57.526392	54.120	0.400	-0.890	0.300	54.150	-2.300	0.900																			1580010906.0	8.23	15.24
26/01/2020 03:55:07	26012020	260120	035507	54.200	12.497730	-57.526362	54.030	0.330	-0.380	0.050	54.190	-2.100	0.500																			1580010907.0	8.04	14.89
26/01/2020 03:55:08	26012020	260120	035508	54.100	12.497753	-57.526337	53.900	0.100	0.270	-0.090	54.080	-1.400	0.400																			1580010908.0	7.33	13.58
26/01/2020 03:55:09	26012020	260120	035509	53.980	12.497773	-57.526313	53.910	-0.120	0.450	-0.290	53.970	-1.000	0.200																			1580010909.0	6.83	12.65
26/01/2020 03:55:10	26012020	260120	035510	53.990	12.497797	-57.526288	54.050	-0.150	0.070	-0.480	54.010	-1.100	-0.000																			1580010910.0	6.97	12.91
26/01/2020 03:55:11	26012020	260120	035511	54.140	12.497818	-57.526262	54.140	-0.010	-0.440	-0.340	54.160	-1.600	-0.100																			1580010911.0	7.51	13.91
26/01/2020 03:55:12	26012020	260120	035512	54.230	12.497842	-57.526232	54.130	0.070	-0.620	0.060	54.230	-2.000	0.200																			1580010912.0	7.92	14.67
26/01/2020 03:55:13	26012020	260120	035513	54.210	12.497862	-57.526202	54.100	-0.080	-0.340	0.480	54.200	-1.900	0.700																			1580010913.0	7.86	14.56
26/01/2020 03:55:14	26012020	260120	035514	54.170	12.497880	-57.526172	54.070	-0.340	0.110	0.800	54.170	-1.500	1.000																			1580010914.0	7.41	13.72
26/01/2020 03:55:15	26012020	260120	035515	54.140	12.497898	-57.526143	53.970	-0.420	0.360	0.920	54.120	-1.100	1.300																			1580010915.0	6.98	12.93
26/01/2020 03:55:16	26012020	260120	035516	54.040	12.497917	-57.526117	53.840	-0.180	0.060	0.850	54.010	-1.100	1.300																			1580010916.0	6.91	12.80
26/01/2020 03:55:17	26012020	260120	035517	53.910	12.497938	-57.526090	53.850	0.350	-0.710	0.600	53.890	-1.700	1.100																			1580010917.0	7.28	13.48
26/01/2020 03:55:18	26012020	260120	035518	53.920	12.497962	-57.526062	53.970	0.770	-1.150	0.270	53.950	-2.500	0.800																			1580010918.0	7.97	14.76
26/01/2020 03:55:19	26012020	260120	035519	54.040	12.497987	-57.526032	53.930	0.610	-0.510	0.070	54.040	-2.400	0.500																			1580010919.0	8.37	15.50
26/01/2020 03:55:20	26012020	260120	035520	54.010	12.498010	-57.526003	53.810	-0.070	0.660	0.010	53.990	-1.300	0.400																			1580010920.0	7.67	14.20
26/01/2020 03:55:21	26012020	260120	035521	53.890	12.498030	-57.525980	53.770	-0.670	1.140	-0.060	53.880	-0.400	0.400																			1580010921.0	6.47	11.98
26/01/2020 03:55:22	26012020	260120	035522	53.860	12.498048	-57.525957	53.820	-0.690	0.490	-0.180	53.870	-0.500	0.300																			1580010922.0	6.27	11.61
26/01/2020 03:55:23	26012020	260120	035523	53.920	12.498070	-57.525932	53.890	-0.240	-0.620	-0.230	53.940	-1.500	0.200																			1580010923.0	7.27	13.46
26/01/2020 03:55:24	26012020	260120	035524	53.980	12.498093	-57.525900	53.870	0.230	-1.190	-0.080	53.980	-2.400	0.200																			1580010924.0	8.24	15.26
26/01/2020 03:55:25	26012020	260120	035525	53.960	12.498117	-57.525870	53.840	0.390	-0.930	0.300	53.940	-2.500	0.500																			1580010925.0	8.27	15.32
26/01/2020 03:55:26	26012020	260120	035526	53.900	12.498137	-57.525840	53.850	0.310	-0.270	0.630	53.900	-2.000	0.900																			1580010926.0	7.52	13.93
26/01/2020 03:55:27	26012020	260120	035527	53.920	12.498155	-57.525813	53.830	0.200	0.170	0.820	53.920	-1.400	1.100																			1580010927.0	6.86	12.70
26/01/2020 03:55:28	26012020	260120	035528	53.890	12.498173	-57.525787	53.680	0.100	0.270	0.900	53.860	-1.200	1.300																			1580010928.0	6.84	12.67
26/01/2020 03:55:29	26012020	260120	035529	53.740	12.498193	-57.525760	53.630	-0.080	0.180	0.850	53.720	-1.200	1.300																			1580010929.0	7.26	13.45
26/01/2020 03:55:30	26012020	260120	035530	53.700	12.498217	-57.525732	53.800	-0.290	0.020	0.660	53.720	-1.300	1.200																			1580010930.0	7.49	13.87
26/01/2020 03:55:31	26012020	260120	035531	53.860	12.498238	-57.525705	54.000	-0.320	-0.210	0.340	53.900	-1.500	0.900																			1580010931.0	7.47	13.83
26/01/2020 03:55:32	26012020	260120	035532	54.060	12.498260	-57.525678	54.050	-0.120	-0.420	0.110	54.090	-1.800	0.600																			1580010932.0	7.46	13.82
26/01/2020 03:55:33	26012020	260120	035533	54.120	12.498282	-57.525650	53.920	0.090	-0.410	0.070	54.110	-1.900	0.500																			1580010933.0	7.57	14.02
26/01/2020 03:55:34	26012020	260120	035534	54.010	12.498303	-57.525622	53.820	0.140	-0.180	0.080	53.990	-1.700	0.500																			1580010934.0	7.51	13.91
26/01/2020 03:55:35	26012020	260120	035535	53.910	12.498325	-57.525595	53.850	0.080	-0.020	0.000	53.900	-1.500	0.400																			1580010935.0	7.26	13.45
26/01/2020 03:55:36	26012020	260120	035536	53.940	12.498345	-57.525568	54.000	0.080	-0.080	-0.130	53.960	-1.400	0.300																			1580010936.0	7.12	13.19
26/01/2020 03:55:37	26012020	260120	035537	54.090	12.498368	-57.525543	54.110	0.180	-0.260	-0.170	54.110	-1.600	0.200																			1580010937.0	7.30	13.52
26/01/2020 03:55:38	26012020	260120	035538	54.210	12.498390	-57.525515	54.130	0.210	-0.320	0.010	54.220	-1.700	0.300																			1580010938.0	7.54	13.96
26/01/2020 03:55:39	26012020	260120	035539	54.220	12.498412	-57.525487	54.070	0.030	-0.170	0.320	54.210	-1.700	0.600																			1580010939.0	7.58	14.04
26/01/2020 03:55:40	26012020	260120	035540	54.160	12.498432	-57.525458	54.030	-0.240	-0.040	0.520	54.150	-1.500	0.800																			1580010940.0	7.36	13.63
26/01/2020 03:55:41	26012020	260120	035541	54.120	12.498452	-57.525432	54.070	-0.330	-0.100	0.600	54.120	-1.500	1.000																			1580010941.0	7.19	13.32
26/01/2020 03:55:42	26012020	260120	035542	54.150	12.498472	-57.525403	54.150	-0.150	-0.220	0.660	54.160	-1.600	1.000																			1580010942.0	7.33	13.58
26/01/2020 03:55:43	26012020	260120	035543	54.230	12.498493	-57.525375	54.260	0.170	-0.280	0.740	54.250	-1.700	1.100																			1580010943.0	7.54	13.96
26/01/2020 03:55:44	26012020	260120	035544	54.330	12.498513	-57.525347	54.320	0.330	-0.180	0.760	54.340	-1.700	1.100																			1580010944.0	7.56	14.00
26/01/2020 03:55:45	26012020	260120	035545	54.390	12.498533	-57.525317	54.290	0.170	0.050	0.530	54.390	-1.500	1.000																			1580010945.0	7.47	13.83
26/01/2020 03:55:46	26012020	260120	035546	54.370	12.498553	-57.525290	54.250	-0.150	0.200	0.100	54.360	-1.300	0.700																			1580010946.0	7.24	13.41
26/01/2020 03:55:47	26012020	260120	035547	54.330	12.498575	-57.525265	54.290	-0.260	-0.040	-0.440	54.330	-1.300	0.200																			1580010947.0	7.08	13.11
26/01/2020 03:55:48	26012020	260120	035548	54.380	12.498600	-57.525240	54.300	-0.010	-0.530	-0.760	54.400	-1.700	-0.300																			1580010948.0	7.32	13.56
26/01/2020 03:55:49	26012020	260120	035549	54.400	12.498625	-57.525213	54.200	0.320	-0.760	-0.730	54.390	-2.100	-0.400																			1580010949.0	7.80	14.45
26/01/2020 03:55:50	26012020	260120	035550	54.300	12.498650	-57.525185	54.140	0.370	-0.550	-0.390	54.280	-2.100	-0.200																			1580010950.0	7.93	14.69
26/01/2020 03:55:51	26012020	260120	035551	54.240	12.498670	-57.525157	54.240	0.070	-0.110	0.150	54.250	-1.700	0.300																			1580010951.0	7.55	13.98
26/01/2020 03:55:52	26012020	260120	035552	54.310	12.498688	-57.525128	54.290	-0.380	0.380	0.610	54.330	-1.300	0.800																			1580010952.0	7.22	13.37
26/01/2020 03:55:53	26012020	260120	035553	54.360	12.498707	-57.525100	54.260	-0.660	0.660	0.910	54.360	-0.800	1.200																			1580010953.0	7.04	13.04
26/01/2020 03:55:54	26012020	260120	035554	54.330	12.498723	-57.525072	54.310	-0.580	0.410	1.000	54.320	-0.800	1.400																			1580010954.0	6.95	12.87
26/01/2020 03:55:55	26012020	260120	035555	54.380	12.498742	-57.525045	54.480	-0.140	-0.370	0.850	54.400	-1.400	1.300																			1580010955.0	7.16	13.26
26/01/2020 03:55:56	26012020	260120	035556	54.540	12.498763	-57.525015	54.570	0.410	-1.130	0.510	54.580	-2.200	1.000																			1580010956.0	7.73	14.32
26/01/2020 03:55:57	26012020	260120	035557	54.660	12.498787	-57.524985	54.430	0.740	-1.160	0.260	54.650	-2.700	0.700																			1580010957.0	8.19	15.17
26/01/2020 03:55:58	26012020	260120	035558	54.540	12.498812	-57.524955	54.210	0.620	-0.350	0.180	54.490	-2.200	0.600																			1580010958.0	8.00	14.82
26/01/2020 03:55:59	26012020	260120	035559	54.320	12.498833	-57.524930	54.060	0.200	0.570	0.090	54.280	-1.200	0.500																			1580010959.0	7.16	13.26
26/01/2020 03:56:00	26012020	260120	035600	54.160	12.498853	-57.524907	53.940	-0.170	0.830	-0.100	54.140	-0.600	0.400	1015.10	25.80	25.80	20.60	20.70	-1.00	73.00	73.00	388.00	25.20	6.00	8.90	64.00	5.10	15	3232.00	27.40	27.40	1580010960.0	6.50	12.04
26/01/2020 03:56:01	26012020	260120	035601	54.050	12.498873	-57.524883	53.990	-0.290	0.280	-0.440	54.040	-0.800	0.100																			1580010961.0	6.76	12.52
26/01/2020 03:56:02	26012020	260120	035602	54.090	12.498898	-57.524857	54.170	-0.210	-0.550	-0.650	54.120	-1.600	-0.200																			1580010962.0	7.54	13.96
26/01/2020 03:56:03	26012020	260120	035603	54.280	12.498923	-57.524828	54.340	-0.170	-0.870	-0.420	54.330	-2.200	-0.200																			1580010963.0	8.17	15.13
26/01/2020 03:56:04	26012020	260120	035604	54.450	12.498945	-57.524797	54.330	-0.290	-0.400	0.110	54.470	-2.100	0.200																			1580010964.0	8.08	14.96
26/01/2020 03:56:05	26012020	260120	035605	54.430	12.498962	-57.524767	54.170	-0.410	0.220	0.680	54.400	-1.400	0.800																			1580010965.0	7.30	13.52
26/01/2020 03:56:06	26012020	260120	035606	54.250	12.498978	-57.524740	54.060	-0.270	0.240	1.010	54.210	-1.100	1.300																			1580010966.0	6.65	12.32
26/01/2020 03:56:07	26012020	260120	035607	54.140	12.498995	-57.524712	54.120	0.160	-0.290	0.940	54.140	-1.400	1.400																			1580010967.0	6.89	12.76
26/01/2020 03:56:08	26012020	260120	035608	54.210	12.499015	-57.524683	54.140	0.570	-0.660	0.700	54.220	-2.000	1.200																			1580010968.0	7.64	14.15
26/01/2020 03:56:09	26012020	260120	035609	54.230	12.499038	-57.524653	53.980	0.630	-0.440	0.420	54.210	-2.000	0.900																			1580010969.0	8.02	14.85
26/01/2020 03:56:10	26012020	260120	035610	54.090	12.499062	-57.524627	53.850	0.320	0.010	0.100	54.050	-1.600	0.600																			1580010970.0	7.61	14.09
26/01/2020 03:56:11	26012020	260120	035611	53.960	12.499085	-57.524603	53.910	-0.030	0.150	-0.220	53.950	-1.300	0.300																			1580010971.0	7.07	13.09
26/01/2020 03:56:12	26012020	260120	035612	54.010	12.499108	-57.524578	54.060	-0.160	-0.030	-0.390	54.050	-1.300	0.100																			1580010972.0	7.11	13.17
26/01/2020 03:56:13	26012020	260120	035613	54.170	12.499132	-57.524553	54.130	-0.160	-0.130	-0.250	54.200	-1.500	0.000																			1580010973.0	7.52	13.93
26/01/2020 03:56:14	26012020	260120	035614	54.250	12.499155	-57.524525	54.130	-0.190	-0.120	0.170	54.250	-1.500	0.300																			1580010974.0	7.62	14.11
26/01/2020 03:56:15	26012020	260120	035615	54.220	12.499173	-57.524495	54.090	-0.290	-0.170	0.640	54.210	-1.500	0.800																			1580010975.0	7.43	13.76
26/01/2020 03:56:16	26012020	260120	035616	54.180	12.499190	-57.524465	54.140	-0.370	-0.230	0.820	54.170	-1.600	1.200																			1580010976.0	7.38	13.67
26/01/2020 03:56:17	26012020	260120	035617	54.220	12.499210	-57.524435	54.280	-0.310	-0.180	0.730	54.250	-1.600	1.200																			1580010977.0	7.42	13.74
26/01/2020 03:56:18	26012020	260120	035618	54.370	12.499230	-57.524407	54.360	-0.050	-0.090	0.630	54.400	-1.500	1.100																			1580010978.0	7.31	13.54
26/01/2020 03:56:19	26012020	260120	035619	54.450	12.499250	-57.524380	54.240	0.280	-0.170	0.570	54.450	-1.500	1.000																			1580010979.0	7.23	13.39
26/01/2020 03:56:20	26012020	260120	035620	54.340	12.499272	-57.524353	54.070	0.520	-0.410	0.360	54.290	-1.700	0.900																			1580010980.0	7.31	13.54
26/01/2020 03:56:21	26012020	260120	035621	54.170	12.499295	-57.524327	54.080	0.560	-0.590	-0.070	54.150	-1.900	0.500																			1580010981.0	7.60	14.08
26/01/2020 03:56:22	26012020	260120	035622	54.180	12.499318	-57.524298	54.180	0.380	-0.380	-0.430	54.200	-1.900	0.100																			1580010982.0	7.81	14.46
26/01/2020 03:56:23	26012020	260120	035623	54.290	12.499343	-57.524273	54.320	0.000	0.190	-0.540	54.320	-1.500	-0.100																			1580010983.0	7.65	14.17
26/01/2020 03:56:24	26012020	260120	035624	54.440	12.499367	-57.524248	54.460	-0.370	0.560	-0.410	54.470	-1.000	-0.100																			1580010984.0	7.11	13.17
26/01/2020 03:56:25	26012020	260120	035625	54.570	12.499387	-57.524223	54.530	-0.520	0.290	0.010	54.590	-0.900	0.200																			1580010985.0	6.81	12.61
26/01/2020 03:56:26	26012020	260120	035626	54.620	12.499405	-57.524195	54.460	-0.390	-0.370	0.510	54.620	-1.400	0.700																			1580010986.0	7.20	13.33
26/01/2020 03:56:27	26012020	260120	035627	54.550	12.499423	-57.524163	54.360	-0.090	-0.830	0.870	54.530	-2.100	1.100																			1580010987.0	7.85	14.54
26/01/2020 03:56:28	26012020	260120	035628	54.440	12.499443	-57.524130	54.310	0.110	-0.690	1.090	54.420	-2.200	1.400																			1580010988.0	8.07	14.95
26/01/2020 03:56:29	26012020	260120	035629	54.390	12.499463	-57.524100	54.330	0.080	-0.130	1.050	54.380	-1.800	1.500																			1580010989.0	7.66	14.19
26/01/2020 03:56:30	26012020	260120	035630	54.420	12.499483	-57.524073	54.480	-0.040	0.310	0.700	54.430	-1.300	1.300																			1580010990.0	7.04	13.04
26/01/2020 03:56:31	26012020	260120	035631	54.560	12.499503	-57.524048	54.610	-0.060	0.290	0.210	54.600	-1.100	0.800																			1580010991.0	6.83	12.65
26/01/2020 03:56:32	26012020	260120	035632	54.700	12.499525	-57.524023	54.530	0.080	-0.070	-0.080	54.710	-1.300	0.400																			1580010992.0	7.16	13.26
26/01/2020 03:56:33	26012020	260120	035633	54.640	12.499548	-57.523997	54.370	0.270	-0.440	-0.210	54.600	-1.700	0.200																			1580010993.0	7.62	14.11
26/01/2020 03:56:34	26012020	260120	035634	54.480	12.499572	-57.523968	54.340	0.370	-0.690	-0.370	54.470	-2.000	0.100																			1580010994.0	7.82	14.48
26/01/2020 03:56:35	26012020	260120	035635	54.460	12.499595	-57.523940	54.430	0.310	-0.660	-0.470	54.470	-2.100	-0.000																			1580010995.0	7.77	14.39
26/01/2020 03:56:36	26012020	260120	035636	54.550	12.499618	-57.523912	54.500	0.020	-0.130	-0.340	54.570	-1.800	-0.000																			1580010996.0	7.70	14.26
26/01/2020 03:56:37	26012020	260120	035637	54.620	12.499638	-57.523885	54.510	-0.420	0.610	-0.000	54.620	-1.100	0.200																			1580010997.0	7.32	13.56
26/01/2020 03:56:38	26012020	260120	035638	54.630	12.499657	-57.523858	54.570	-0.700	0.800	0.410	54.640	-0.600	0.600																			1580010998.0	6.74	12.48
26/01/2020 03:56:39	26012020	260120	035639	54.670	12.499675	-57.523832	54.660	-0.520	0.110	0.680	54.680	-0.900	1.000																			1580010999.0	6.70	12.41
26/01/2020 03:56:40	26012020	260120	035640	54.760	12.499693	-57.523802	54.690	0.020	-0.860	0.840	54.770	-1.800	1.200																			1580011000.0	7.46	13.82
26/01/2020 03:56:41	26012020	260120	035641	54.780	12.499715	-57.523770	54.640	0.490	-1.210	0.980	54.780	-2.600	1.300																			1580011001.0	8.25	15.28
26/01/2020 03:56:42	26012020	260120	035642	54.720	12.499737	-57.523738	54.560	0.550	-0.690	0.920	54.710	-2.400	1.400																			1580011002.0	8.21	15.20
26/01/2020 03:56:43	26012020	260120	035643	54.640	12.499757	-57.523710	54.510	0.270	0.130	0.550	54.630	-1.600	1.100																			1580011003.0	7.39	13.69
26/01/2020 03:56:44	26012020	260120	035644	54.600	12.499777	-57.523685	54.460	-0.040	0.570	0.160	54.600	-1.000	0.700																			1580011004.0	6.73	12.46
26/01/2020 03:56:45	26012020	260120	035645	54.550	12.499798	-57.523662	54.380	-0.160	0.350	-0.170	54.540	-0.900	0.400																			1580011005.0	6.79	12.58
26/01/2020 03:56:46	26012020	260120	035646	54.470	12.499822	-57.523637	54.350	-0.060	-0.280	-0.430	54.450	-1.400	0.100																			1580011006.0	7.30	13.52
26/01/2020 03:56:47	26012020	260120	035647	54.430	12.499845	-57.523608	54.370	0.050	-0.670	-0.550	54.430	-2.000	-0.100																			1580011007.0	7.94	14.70
26/01/2020 03:56:48	26012020	260120	035648	54.450	12.499868	-57.523578	54.360	-0.080	-0.420	-0.400	54.460	-2.000	-0.100																			1580011008.0	8.09	14.98
26/01/2020 03:56:49	26012020	260120	035649	54.440	12.499890	-57.523548	54.280	-0.420	0.170	-0.030	54.430	-1.500	0.200																			1580011009.0	7.57	14.02
26/01/2020 03:56:50	26012020	260120	035650	54.370	12.499907	-57.523522	54.240	-0.600	0.460	0.330	54.350	-1.000	0.600																			1580011010.0	6.89	12.76
26/01/2020 03:56:51	26012020	260120	035651	54.310	12.499923	-57.523495	54.260	-0.340	0.110	0.490	54.310	-1.000	0.800																			1580011011.0	6.74	12.48
26/01/2020 03:56:52	26012020	260120	035652	54.330	12.499943	-57.523467	54.310	0.280	-0.650	0.480	54.340	-1.700	0.900																			1580011012.0	7.21	13.35
26/01/2020 03:56:53	26012020	260120	035653	54.390	12.499965	-57.523437	54.240	0.730	-0.960	0.480	54.390	-2.300	0.900																			1580011013.0	7.95	14.72
26/01/2020 03:56:54	26012020	260120	035654	54.330	12.499988	-57.523407	54.040	0.660	-0.420	0.480	54.300	-2.200	0.900																			1580011014.0	8.12	15.04
26/01/2020 03:56:55	26012020	260120	035655	54.140	12.500008	-57.523378	53.810	0.220	0.310	0.540	54.090	-1.400	0.900																			1580011015.0	7.36	13.63
26/01/2020 03:56:56	26012020	260120	035656	53.900	12.500028	-57.523355	53.700	-0.120	0.330	0.440	53.860	-1.000	0.900																			1580011016.0	6.62	12.26
26/01/2020 03:56:57	26012020	260120	035657	53.810	12.500050	-57.523330	53.770	-0.130	-0.290	0.130	53.810	-1.400	0.700																			1580011017.0	6.89	12.76
26/01/2020 03:56:58	26012020	260120	035658	53.870	12.500075	-57.523302	53.840	-0.000	-0.690	0.030	53.890	-2.000	0.400																			1580011018.0	7.83	14.50
26/01/2020 03:56:59	26012020	260120	035659	53.950	12.500098	-57.523273	53.840	-0.010	-0.380	0.290	53.950	-2.000	0.500																			1580011019.0	8.20	15.19
26/01/2020 03:57:00	26012020	260120	035700	53.950	12.500120	-57.523243	53.880	-0.190	0.140	0.520	53.950	-1.500	0.800	1015.00	25.80	25.80	20.70	20.70	-1.00	73.00	73.00	388.00	25.20	3.00	8.80	60.00	5.00	15	3299.00	27.50	27.40	1580011020.0	7.56	14.00
26/01/2020 03:57:01	26012020	260120	035701	53.970	12.500137	-57.523217	53.900	-0.420	0.370	0.600	53.980	-1.100	1.000																			1580011021.0	6.95	12.87
26/01/2020 03:57:02	26012020	260120	035702	53.990	12.500155	-57.523188	53.870	-0.520	0.320	0.590	53.980	-1.000	1.000																			1580011022.0	7.00	12.96
26/01/2020 03:57:03	26012020	260120	035703	53.960	12.500175	-57.523162	53.890	-0.350	0.020	0.400	53.950	-1.200	0.900																			1580011023.0	7.24	13.41
26/01/2020 03:57:04	26012020	260120	035704	53.990	12.500197	-57.523133	53.990	0.080	-0.470	0.070	54.010	-1.600	0.600																			1580011024.0	7.40	13.70
26/01/2020 03:57:05	26012020	260120	035705	54.100	12.500218	-57.523105	54.000	0.510	-0.800	-0.210	54.120	-2.100	0.300																			1580011025.0	7.65	14.17
26/01/2020 03:57:06	26012020	260120	035706	54.110	12.500242	-57.523077	53.790	0.650	-0.610	-0.320	54.090	-2.200	0.100																			1580011026.0	7.81	14.46
26/01/2020 03:57:07	26012020	260120	035707	53.910	12.500265	-57.523050	53.550	0.440	-0.150	-0.320	53.860	-1.800	0.100																			1580011027.0	7.53	13.95
26/01/2020 03:57:08	26012020	260120	035708	53.660	12.500287	-57.523025	53.450	0.130	0.120	-0.320	53.620	-1.400	0.100																			1580011028.0	7.07	13.09
26/01/2020 03:57:09	26012020	260120	035709	53.560	12.500308	-57.523000	53.620	-0.040	0.010	-0.350	53.580	-1.300	0.100																			1580011029.0	7.02	13.00
26/01/2020 03:57:10	26012020	260120	035710	53.710	12.500332	-57.522975	53.860	-0.100	-0.180	-0.170	53.760	-1.500	0.100																			1580011030.0	7.41	13.72
26/01/2020 03:57:11	26012020	260120	035711	53.950	12.500355	-57.522947	53.950	-0.220	-0.200	0.340	53.990	-1.600	0.500																			1580011031.0	7.72	14.30
26/01/2020 03:57:12	26012020	260120	035712	54.030	12.500373	-57.522917	53.850	-0.430	-0.090	0.970	54.010	-1.600	1.100																			1580011032.0	7.62	14.11
26/01/2020 03:57:13	26012020	260120	035713	53.900	12.500390	-57.522885	53.760	-0.500	-0.050	1.380	53.880	-1.500	1.600																			1580011033.0	7.40	13.70
26/01/2020 03:57:14	26012020	260120	035714	53.820	12.500407	-57.522855	53.800	-0.270	-0.160	1.400	53.820	-1.500	1.800																			1580011034.0	7.31	13.54
26/01/2020 03:57:15	26012020	260120	035715	53.870	12.500427	-57.522827	53.810	0.100	-0.250	1.140	53.880	-1.600	1.700																			1580011035.0	7.42	13.74
26/01/2020 03:57:16	26012020	260120	035716	53.890	12.500447	-57.522798	53.710	0.350	-0.170	0.630	53.880	-1.600	1.300																			1580011036.0	7.55	13.98
26/01/2020 03:57:17	26012020	260120	035717	53.810	12.500470	-57.522772	53.600	0.390	-0.070	0.000	53.780	-1.500	0.700																			1580011037.0	7.46	13.82
26/01/2020 03:57:18	26012020	260120	035718	53.700	12.500495	-57.522747	53.530	0.300	-0.130	-0.560	53.690	-1.500	0.100																			1580011038.0	7.34	13.59
26/01/2020 03:57:19	26012020	260120	035719	53.650	12.500520	-57.522723	53.540	0.150	-0.240	-1.050	53.640	-1.600	-0.400																			1580011039.0	7.44	13.78
26/01/2020 03:57:20	26012020	260120	035720	53.650	12.500545	-57.522697	53.640	-0.010	-0.300	-1.300	53.660	-1.700	-0.800																			1580011040.0	7.60	14.08
26/01/2020 03:57:21	26012020	260120	035721	53.730	12.500570	-57.522672	53.770	-0.120	-0.270	-1.060	53.760	-1.700	-0.800																			1580011041.0	7.56	14.00
26/01/2020 03:57:22	26012020	260120	035722	53.860	12.500592	-57.522645	53.830	-0.160	-0.130	-0.380	53.880	-1.600	-0.300																			1580011042.0	7.45	13.80
26/01/2020 03:57:23	26012020	260120	035723	53.900	12.500610	-57.522615	53.810	-0.170	0.030	0.430	53.900	-1.400	0.500																			1580011043.0	7.38	13.67
26/01/2020 03:57:24	26012020	260120	035724	53.860	12.500627	-57.522585	53.780	-0.160	-0.020	1.120	53.850	-1.400	1.200																			1580011044.0	7.32	13.56
26/01/2020 03:57:25	26012020	260120	035725	53.810	12.500643	-57.522555	53.790	-0.070	-0.300	1.450	53.810	-1.600	1.800																			1580011045.0	7.34	13.59
26/01/2020 03:57:26	26012020	260120	035726	53.820	12.500662	-57.522523	53.860	0.040	-0.440	1.370	53.830	-1.800	1.900																			1580011046.0	7.60	14.08
26/01/2020 03:57:27	26012020	260120	035727	53.890	12.500683	-57.522495	53.890	0.080	-0.240	1.060	53.910	-1.800	1.600																			1580011047.0	7.73	14.32
26/01/2020 03:57:28	26012020	260120	035728	53.930	12.500707	-57.522468	53.780	0.070	0.020	0.750	53.920	-1.500	1.300																			1580011048.0	7.45	13.80
26/01/2020 03:57:29	26012020	260120	035729	53.840	12.500728	-57.522442	53.650	0.100	0.010	0.400	53.820	-1.400	1.000																			1580011049.0	7.20	13.33
26/01/2020 03:57:30	26012020	260120	035730	53.720	12.500752	-57.522417	53.630	0.210	-0.240	-0.070	53.700	-1.500	0.600																			1580011050.0	7.31	13.54
26/01/2020 03:57:31	26012020	260120	035731	53.710	12.500775	-57.522390	53.700	0.290	-0.400	-0.450	53.720	-1.800	0.100																			1580011051.0	7.66	14.19
26/01/2020 03:57:32	26012020	260120	035732	53.790	12.500800	-57.522363	53.680	0.140	-0.190	-0.580	53.790	-1.700	-0.100																			1580011052.0	7.84	14.52
26/01/2020 03:57:33	26012020	260120	035733	53.760	12.500823	-57.522335	53.620	-0.230	0.130	-0.570	53.750	-1.400	-0.200																			1580011053.0	7.54	13.96
26/01/2020 03:57:34	26012020	260120	035734	53.700	12.500843	-57.522310	53.730	-0.460	0.100	-0.500	53.700	-1.200	-0.100																			1580011054.0	7.09	13.13
26/01/2020 03:57:35	26012020	260120	035735	53.780	12.500863	-57.522283	53.910	-0.340	-0.240	-0.290	53.820	-1.500	-0.000																			1580011055.0	7.14	13.22
26/01/2020 03:57:36	26012020	260120	035736	53.950	12.500885	-57.522253	53.870	-0.070	-0.400	0.130	53.970	-1.800	0.300																			1580011056.0	7.63	14.13
26/01/2020 03:57:37	26012020	260120	035737	53.920	12.500905	-57.522223	53.690	0.060	-0.270	0.560	53.890	-1.800	0.800																			1580011057.0	7.80	14.45
26/01/2020 03:57:38	26012020	260120	035738	53.740	12.500923	-57.522193	53.620	0.060	-0.180	0.830	53.710	-1.600	1.100																			1580011058.0	7.45	13.80
26/01/2020 03:57:39	26012020	260120	035739	53.660	12.500943	-57.522165	53.680	0.060	-0.160	0.840	53.660	-1.600	1.300																			1580011059.0	7.28	13.48
26/01/2020 03:57:40	26012020	260120	035740	53.730	12.500965	-57.522138	53.750	0.150	-0.140	0.680	53.750	-1.600	1.200																			1580011060.0	7.40	13.70
26/01/2020 03:57:41	26012020	260120	035741	53.820	12.500987	-57.522110	53.750	0.290	-0.170	0.530	53.820	-1.600	1.000																			1580011061.0	7.44	13.78
26/01/2020 03:57:42	26012020	260120	035742	53.820	12.501008	-57.522083	53.700	0.330	-0.210	0.400	53.820	-1.600	0.900																			1580011062.0	7.48	13.85
26/01/2020 03:57:43	26012020	260120	035743	53.770	12.501032	-57.522057	53.630	0.180	-0.210	0.220	53.750	-1.600	0.700																			1580011063.0	7.56	14.00
26/01/2020 03:57:44	26012020	260120	035744	53.700	12.501055	-57.522028	53.580	-0.060	-0.170	0.050	53.690	-1.600	0.500																			1580011064.0	7.56	14.00
26/01/2020 03:57:45	26012020	260120	035745	53.650	12.501078	-57.522002	53.650	-0.240	-0.120	-0.130	53.650	-1.600	0.400																			1580011065.0	7.51	13.91
26/01/2020 03:57:46	26012020	260120	035746	53.710	12.501100	-57.521975	53.810	-0.280	-0.070	-0.270	53.740	-1.500	0.200																			1580011066.0	7.45	13.80
26/01/2020 03:57:47	26012020	260120	035747	53.870	12.501123	-57.521948	53.910	-0.250	-0.020	-0.140	53.900	-1.500	0.200																			1580011067.0	7.45	13.80
26/01/2020 03:57:48	26012020	260120	035748	53.980	12.501143	-57.521922	53.890	-0.200	-0.060	0.220	53.980	-1.400	0.500																			1580011068.0	7.40	13.70
26/01/2020 03:57:49	26012020	260120	035749	53.940	12.501163	-57.521892	53.890	-0.150	-0.240	0.430	53.930	-1.600	0.800																			1580011069.0	7.41	13.72
26/01/2020 03:57:50	26012020	260120	035750	53.930	12.501182	-57.521862	53.920	-0.100	-0.390	0.430	53.940	-1.800	0.800																			1580011070.0	7.55	13.98
26/01/2020 03:57:51	26012020	260120	035751	53.980	12.501203	-57.521833	53.960	-0.070	-0.270	0.390	53.990	-1.800	0.800																			1580011071.0	7.66	14.19
26/01/2020 03:57:52	26012020	260120	035752	54.040	12.501225	-57.521805	54.000	0.000	-0.050	0.290	54.050	-1.600	0.800																			1580011072.0	7.49	13.87
26/01/2020 03:57:53	26012020	260120	035753	54.080	12.501245	-57.521778	53.920	0.150	-0.020	0.170	54.080	-1.400	0.600																			1580011073.0	7.23	13.39
26/01/2020 03:57:54	26012020	260120	035754	54.010	12.501267	-57.521752	53.810	0.340	-0.280	0.060	53.990	-1.500	0.500																			1580011074.0	7.30	13.52
26/01/2020 03:57:55	26012020	260120	035755	53.910	12.501290	-57.521725	53.820	0.490	-0.620	-0.070	53.900	-1.900	0.400																			1580011075.0	7.64	14.15
26/01/2020 03:57:56	26012020	260120	035756	53.920	12.501315	-57.521695	53.920	0.420	-0.530	-0.160	53.940	-2.100	0.300																			1580011076.0	7.94	14.70
26/01/2020 03:57:57	26012020	260120	035757	54.030	12.501338	-57.521667	54.010	0.070	0.140	-0.110	54.050	-1.600	0.300																			1580011077.0	7.88	14.59
26/01/2020 03:57:58	26012020	260120	035758	54.110	12.501360	-57.521642	54.020	-0.410	0.710	0.070	54.110	-0.900	0.400																			1580011078.0	7.22	13.37
26/01/2020 03:57:59	26012020	260120	035759	54.100	12.501378	-57.521617	54.010	-0.620	0.420	0.310	54.100	-0.700	0.600																			1580011079.0	6.69	12.39
26/01/2020 03:58:00	26012020	260120	035800	54.100	12.501398	-57.521588	54.130	-0.400	-0.510	0.460	54.110	-1.500	0.800	1015.00	25.80	25.80	20.40	20.50	-1.00	72.00	72.00	388.00	25.20	6.00	9.00	64.00	5.20	15	3287.00	27.50	27.40	1580011080.0	7.08	13.11
26/01/2020 03:58:01	26012020	260120	035801	54.200	12.501420	-57.521558	54.180	-0.040	-1.040	0.640	54.220	-2.300	0.900																			1580011081.0	8.07	14.95
26/01/2020 03:58:02	26012020	260120	035802	54.240	12.501442	-57.521525	54.050	0.080	-0.650	0.940	54.220	-2.300	1.200																			1580011082.0	8.39	15.54
26/01/2020 03:58:03	26012020	260120	035803	54.120	12.501462	-57.521495	53.940	-0.080	0.130	1.070	54.090	-1.600	1.400																			1580011083.0	7.64	14.15
26/01/2020 03:58:04	26012020	260120	035804	54.000	12.501478	-57.521468	53.890	-0.220	0.420	0.740	53.990	-1.000	1.400																			1580011084.0	6.77	12.54
26/01/2020 03:58:05	26012020	260120	035805	53.960	12.501498	-57.521443	53.950	-0.030	0.030	0.040	53.960	-1.100	0.800																			1580011085.0	6.75	12.50
26/01/2020 03:58:06	26012020	260120	035806	54.040	12.501523	-57.521418	54.160	0.380	-0.510	-0.640	54.080	-1.700	0.100																			1580011086.0	7.56	14.00
26/01/2020 03:58:07	26012020	260120	035807	54.250	12.501550	-57.521390	54.230	0.620	-0.650	-0.960	54.280	-2.100	-0.500																			1580011087.0	8.16	15.11
26/01/2020 03:58:08	26012020	260120	035808	54.330	12.501575	-57.521363	54.110	0.400	-0.280	-0.870	54.320	-1.900	-0.500																			1580011088.0	8.05	14.91
26/01/2020 03:58:09	26012020	260120	035809	54.200	12.501598	-57.521337	53.940	-0.070	0.220	-0.500	54.150	-1.400	-0.300																			1580011089.0	7.46	13.82
26/01/2020 03:58:10	26012020	260120	035810	54.020	12.501618	-57.521310	53.940	-0.360	0.240	-0.020	54.000	-1.100	0.200																			1580011090.0	6.95	12.87
26/01/2020 03:58:11	26012020	260120	035811	54.000	12.501637	-57.521283	54.090	-0.330	-0.110	0.350	54.020	-1.300	0.600																			1580011091.0	7.09	13.13
26/01/2020 03:58:12	26012020	260120	035812	54.150	12.501657	-57.521253	54.250	-0.200	-0.370	0.640	54.190	-1.700	0.900																			1580011092.0	7.68	14.22
26/01/2020 03:58:13	26012020	260120	035813	54.310	12.501677	-57.521222	54.270	-0.150	-0.280	0.940	54.320	-1.800	1.200																			1580011093.0	7.86	14.56
26/01/2020 03:58:14	26012020	260120	035814	54.320	12.501695	-57.521192	54.130	-0.140	-0.040	1.120	54.300	-1.600	1.500																			1580011094.0	7.55	13.98
26/01/2020 03:58:15	26012020	260120	035815	54.200	12.501715	-57.521163	54.030	-0.030	-0.050	1.000	54.170	-1.400	1.500																			1580011095.0	7.19	13.32
26/01/2020 03:58:16	26012020	260120	035816	54.110	12.501737	-57.521137	54.000	0.200	-0.370	0.650	54.100	-1.600	1.200																			1580011096.0	7.25	13.43
26/01/2020 03:58:17	26012020	260120	035817	54.100	12.501760	-57.521110	54.030	0.410	-0.650	0.230	54.110	-2.000	0.800																			1580011097.0	7.65	14.17
26/01/2020 03:58:18	26012020	260120	035818	54.150	12.501785	-57.521082	54.100	0.360	-0.440	-0.060	54.160	-2.000	0.400																			1580011098.0	7.96	14.74
26/01/2020 03:58:19	26012020	260120	035819	54.200	12.501808	-57.521053	54.100	0.010	0.150	-0.160	54.200	-1.600	0.300																			1580011099.0	7.72	14.30
26/01/2020 03:58:20	26012020	260120	035820	54.200	12.501828	-57.521028	54.080	-0.380	0.520	-0.240	54.190	-1.000	0.200																			1580011100.0	7.14	13.22
26/01/2020 03:58:21	26012020	260120	035821	54.160	12.501848	-57.521003	54.100	-0.450	0.250	-0.340	54.150	-1.000	0.100																			1580011101.0	6.87	12.72
26/01/2020 03:58:22	26012020	260120	035822	54.170	12.501870	-57.520977	54.200	-0.160	-0.320	-0.370	54.180	-1.500	0.000																			1580011102.0	7.31	13.54
26/01/2020 03:58:23	26012020	260120	035823	54.280	12.501893	-57.520947	54.270	0.170	-0.640	-0.230	54.310	-2.000	0.100																			1580011103.0	7.91	14.65
26/01/2020 03:58:24	26012020	260120	035824	54.330	12.501917	-57.520917	54.180	0.270	-0.490	0.060	54.330	-2.000	0.300																			1580011104.0	7.98	14.78
26/01/2020 03:58:25	26012020	260120	035825	54.250	12.501937	-57.520888	54.070	0.160	-0.180	0.420	54.220	-1.700	0.700																			1580011105.0	7.55	13.98
26/01/2020 03:58:26	26012020	260120	035826	54.140	12.501957	-57.520860	54.100	0.060	-0.140	0.640	54.130	-1.500	1.000																			1580011106.0	7.16	13.26
26/01/2020 03:58:27	26012020	260120	035827	54.160	12.501977	-57.520833	54.180	0.090	-0.280	0.650	54.170	-1.600	1.100																			1580011107.0	7.28	13.48
26/01/2020 03:58:28	26012020	260120	035828	54.250	12.501998	-57.520803	54.240	0.100	-0.170	0.590	54.260	-1.700	1.000																			1580011108.0	7.67	14.20
26/01/2020 03:58:29	26012020	260120	035829	54.310	12.502020	-57.520775	54.300	-0.040	0.130	0.590	54.320	-1.400	1.000																			1580011109.0	7.67	14.20
26/01/2020 03:58:30	26012020	260120	035830	54.370	12.502040	-57.520748	54.360	-0.230	0.200	0.570	54.380	-1.200	1.000																			1580011110.0	7.28	13.48
26/01/2020 03:58:31	26012020	260120	035831	54.430	12.502060	-57.520720	54.350	-0.260	-0.060	0.430	54.430	-1.300	0.900																			1580011111.0	7.18	13.30
26/01/2020 03:58:32	26012020	260120	035832	54.400	12.502082	-57.520692	54.260	-0.020	-0.460	0.260	54.390	-1.700	0.700																			1580011112.0	7.50	13.89
26/01/2020 03:58:33	26012020	260120	035833	54.320	12.502105	-57.520663	54.190	0.280	-0.670	0.160	54.300	-2.000	0.600																			1580011113.0	7.81	14.46
26/01/2020 03:58:34	26012020	260120	035834	54.230	12.502128	-57.520635	54.130	0.300	-0.420	0.010	54.210	-2.000	0.500																			1580011114.0	7.92	14.67
26/01/2020 03:58:35	26012020	260120	035835	54.180	12.502150	-57.520607	54.170	0.010	0.140	-0.240	54.180	-1.500	0.300																			1580011115.0	7.63	14.13
26/01/2020 03:58:36	26012020	260120	035836	54.230	12.502172	-57.520580	54.250	-0.270	0.410	-0.450	54.260	-1.100	0.000																			1580011116.0	7.09	13.13
26/01/2020 03:58:37	26012020	260120	035837	54.340	12.502192	-57.520557	54.330	-0.250	0.170	-0.490	54.360	-1.100	-0.100																			1580011117.0	6.94	12.85
26/01/2020 03:58:38	26012020	260120	035838	54.420	12.502215	-57.520530	54.340	-0.000	-0.240	-0.290	54.420	-1.500	0.000																			1580011118.0	7.41	13.72
26/01/2020 03:58:39	26012020	260120	035839	54.400	12.502238	-57.520500	54.350	0.180	-0.510	0.070	54.390	-1.800	0.300																			1580011119.0	7.83	14.50
26/01/2020 03:58:40	26012020	260120	035840	54.400	12.502258	-57.520470	54.390	0.170	-0.590	0.460	54.410	-2.000	0.700																			1580011120.0	7.80	14.45
26/01/2020 03:58:41	26012020	260120	035841	54.440	12.502278	-57.520440	54.480	0.020	-0.460	0.660	54.450	-2.000	1.000																			1580011121.0	7.63	14.13
26/01/2020 03:58:42	26012020	260120	035842	54.520	12.502298	-57.520412	54.550	-0.100	-0.160	0.770	54.540	-1.700	1.100																			1580011122.0	7.47	13.83
26/01/2020 03:58:43	26012020	260120	035843	54.590	12.502317	-57.520383	54.450	-0.120	0.150	0.960	54.590	-1.400	1.300																			1580011123.0	7.31	13.54
26/01/2020 03:58:44	26012020	260120	035844	54.490	12.502337	-57.520355	54.250	-0.050	0.200	1.030	54.450	-1.200	1.400																			1580011124.0	7.21	13.35
26/01/2020 03:58:45	26012020	260120	035845	54.280	12.502355	-57.520327	54.140	0.080	-0.080	0.760	54.250	-1.300	1.300																			1580011125.0	7.31	13.54
26/01/2020 03:58:46	26012020	260120	035846	54.180	12.502378	-57.520298	54.190	0.210	-0.410	0.170	54.180	-1.700	0.900																			1580011126.0	7.63	14.13
26/01/2020 03:58:47	26012020	260120	035847	54.250	12.502403	-57.520270	54.280	0.250	-0.470	-0.450	54.270	-1.900	0.200																			1580011127.0	7.92	14.67
26/01/2020 03:58:48	26012020	260120	035848	54.360	12.502428	-57.520243	54.370	0.140	-0.190	-0.840	54.380	-1.800	-0.300																			1580011128.0	7.87	14.58
26/01/2020 03:58:49	26012020	260120	035849	54.460	12.502452	-57.520218	54.430	-0.090	0.130	-0.880	54.480	-1.400	-0.500																			1580011129.0	7.49	13.87
26/01/2020 03:58:50	26012020	260120	035850	54.520	12.502473	-57.520192	54.420	-0.250	0.190	-0.600	54.530	-1.200	-0.400																			1580011130.0	7.16	13.26
26/01/2020 03:58:51	26012020	260120	035851	54.510	12.502493	-57.520165	54.310	-0.240	0.020	-0.120	54.500	-1.300	0.000																			1580011131.0	7.20	13.33
26/01/2020 03:58:52	26012020	260120	035852	54.400	12.502513	-57.520137	54.210	-0.110	-0.290	0.400	54.380	-1.500	0.600																			1580011132.0	7.47	13.83
26/01/2020 03:58:53	26012020	260120	035853	54.310	12.502533	-57.520105	54.340	0.070	-0.660	0.800	54.310	-1.900	1.000																			1580011133.0	7.66	14.19
26/01/2020 03:58:54	26012020	260120	035854	54.400	12.502552	-57.520075	54.430	0.180	-0.730	1.050	54.440	-2.200	1.300																			1580011134.0	7.82	14.48
26/01/2020 03:58:55	26012020	260120	035855	54.510	12.502573	-57.520043	54.410	0.120	-0.270	1.150	54.520	-1.900	1.500																			1580011135.0	7.86	14.56
26/01/2020 03:58:56	26012020	260120	035856	54.500	12.502593	-57.520015	54.330	-0.030	0.330	1.150	54.480	-1.300	1.600																			1580011136.0	7.43	13.76
26/01/2020 03:58:57	26012020	260120	035857	54.420	12.502612	-57.519988	54.270	-0.140	0.470	1.020	54.400	-0.900	1.500																			1580011137.0	6.93	12.83
26/01/2020 03:58:58	26012020	260120	035858	54.340	12.502632	-57.519962	54.160	-0.100	0.000	0.630	54.330	-1.100	1.200																			1580011138.0	7.02	13.00
26/01/2020 03:58:59	26012020	260120	035859	54.250	12.502653	-57.519933	54.160	0.100	-0.630	-0.020	54.240	-1.800	0.700																			1580011139.0	7.60	14.08
26/01/2020 03:59:00	26012020	260120	035900	54.230	12.502680	-57.519905	54.220	0.340	-0.790	-0.580	54.250	-2.200	0.000	1015.10	25.80	25.80	20.60	20.60	-1.00	73.00	72.00	387.00	25.20	3.00	8.90	60.00	5.00	15	3226.00	27.50	27.40	1580011140.0	8.17	15.13
26/01/2020 03:59:01	26012020	260120	035901	54.310	12.502707	-57.519878	54.310	0.420	-0.360	-0.880	54.330	-2.000	-0.400																			1580011141.0	8.13	15.06
26/01/2020 03:59:02	26012020	260120	035902	54.400	12.502730	-57.519852	54.390	0.240	0.110	-0.900	54.420	-1.500	-0.500																			1580011142.0	7.49	13.87
26/01/2020 03:59:03	26012020	260120	035903	54.470	12.502752	-57.519827	54.420	-0.080	0.290	-0.630	54.480	-1.200	-0.400																			1580011143.0	7.08	13.11
26/01/2020 03:59:04	26012020	260120	035904	54.500	12.502772	-57.519800	54.430	-0.380	0.200	-0.170	54.500	-1.200	-0.000																			1580011144.0	7.21	13.35
26/01/2020 03:59:05	26012020	260120	035905	54.510	12.502792	-57.519770	54.470	-0.500	0.000	0.410	54.520	-1.300	0.500																			1580011145.0	7.47	13.83
26/01/2020 03:59:06	26012020	260120	035906	54.530	12.502810	-57.519740	54.430	-0.390	-0.250	1.030	54.530	-1.500	1.100																			1580011146.0	7.56	14.00
26/01/2020 03:59:07	26012020	260120	035907	54.480	12.502828	-57.519708	54.350	-0.120	-0.490	1.480	54.470	-1.800	1.700																			1580011147.0	7.62	14.11
26/01/2020 03:59:08	26012020	260120	035908	54.390	12.502845	-57.519678	54.250	0.160	-0.610	1.610	54.380	-2.000	2.000																			1580011148.0	7.68	14.22
26/01/2020 03:59:09	26012020	260120	035909	54.310	12.502865	-57.519647	54.160	0.320	-0.520	1.330	54.290	-2.000	1.900																			1580011149.0	7.69	14.24
26/01/2020 03:59:10	26012020	260120	035910	54.230	12.502887	-57.519618	54.160	0.330	-0.190	0.690	54.220	-1.800	1.400																			1580011150.0	7.61	14.09
26/01/2020 03:59:11	26012020	260120	035911	54.240	12.502910	-57.519593	54.180	0.230	0.230	-0.020	54.250	-1.400	0.700																			1580011151.0	7.49	13.87
26/01/2020 03:59:12	26012020	260120	035912	54.280	12.502935	-57.519568	54.130	0.080	0.380	-0.630	54.270	-1.000	0.000																			1580011152.0	7.30	13.52
26/01/2020 03:59:13	26012020	260120	035913	54.240	12.502958	-57.519545	54.060	0.030	-0.000	-1.030	54.230	-1.200	-0.500																			1580011153.0	7.26	13.45
26/01/2020 03:59:14	26012020	260120	035914	54.170	12.502983	-57.519518	54.060	0.120	-0.580	-1.100	54.150	-1.700	-0.700																			1580011154.0	7.63	14.13
26/01/2020 03:59:15	26012020	260120	035915	54.150	12.503008	-57.519490	54.170	0.140	-0.740	-0.840	54.160	-2.200	-0.600																			1580011155.0	8.09	14.98
26/01/2020 03:59:16	26012020	260120	035916	54.230	12.503032	-57.519460	54.170	-0.110	-0.290	-0.290	54.240	-2.000	-0.200																			1580011156.0	8.08	14.96
26/01/2020 03:59:17	26012020	260120	035917	54.210	12.503050	-57.519430	54.110	-0.450	0.300	0.350	54.200	-1.400	0.400																			1580011157.0	7.47	13.83
26/01/2020 03:59:18	26012020	260120	035918	54.140	12.503067	-57.519402	54.130	-0.520	0.390	0.840	54.130	-1.000	1.000																			1580011158.0	6.89	12.76
26/01/2020 03:59:19	26012020	260120	035919	54.150	12.503083	-57.519373	54.150	-0.210	-0.100	1.130	54.160	-1.300	1.400																			1580011159.0	7.00	12.96
26/01/2020 03:59:20	26012020	260120	035920	54.160	12.503102	-57.519342	54.090	0.180	-0.550	1.210	54.160	-1.800	1.600																			1580011160.0	7.71	14.28
26/01/2020 03:59:21	26012020	260120	035921	54.120	12.503123	-57.519312	54.020	0.280	-0.460	1.080	54.110	-2.000	1.500																			1580011161.0	8.11	15.02
26/01/2020 03:59:22	26012020	260120	035922	54.070	12.503147	-57.519282	53.870	0.060	0.030	0.850	54.050	-1.600	1.400																			1580011162.0	7.79	14.43
26/01/2020 03:59:23	26012020	260120	035923	53.930	12.503167	-57.519257	53.650	-0.190	0.290	0.490	53.880	-1.200	1.100																			1580011163.0	7.12	13.19
26/01/2020 03:59:24	26012020	260120	035924	53.710	12.503188	-57.519232	53.580	-0.080	-0.150	-0.030	53.680	-1.300	0.600																			1580011164.0	6.89	12.76
26/01/2020 03:59:25	26012020	260120	035925	53.660	12.503212	-57.519207	53.770	0.350	-0.840	-0.670	53.690	-2.000	0.000																			1580011165.0	7.43	13.76
26/01/2020 03:59:26	26012020	260120	035926	53.850	12.503238	-57.519178	53.890	0.590	-0.840	-1.020	53.890	-2.400	-0.500																			1580011166.0	8.25	15.28
26/01/2020 03:59:27	26012020	260120	035927	53.980	12.503265	-57.519150	53.790	0.360	-0.130	-0.830	53.980	-1.900	-0.600																			1580011167.0	8.17	15.13
26/01/2020 03:59:28	26012020	260120	035928	53.870	12.503285	-57.519123	53.670	-0.130	0.510	-0.380	53.830	-1.100	-0.200																			1580011168.0	7.23	13.39
26/01/2020 03:59:29	26012020	260120	035929	53.720	12.503303	-57.519097	53.620	-0.480	0.590	0.060	53.710	-0.800	0.200																			1580011169.0	6.72	12.45
26/01/2020 03:59:30	26012020	260120	035930	53.670	12.503323	-57.519070	53.580	-0.500	0.230	0.520	53.660	-1.000	0.700																			1580011170.0	7.05	13.06
26/01/2020 03:59:31	26012020	260120	035931	53.620	12.503343	-57.519040	53.580	-0.240	-0.360	0.920	53.610	-1.500	1.100																			1580011171.0	7.56	14.00
26/01/2020 03:59:32	26012020	260120	035932	53.600	12.503363	-57.519010	53.660	0.090	-0.850	1.180	53.610	-2.100	1.400																			1580011172.0	7.84	14.52
26/01/2020 03:59:33	26012020	260120	035933	53.690	12.503385	-57.518978	53.700	0.240	-0.860	1.360	53.710	-2.300	1.700																			1580011173.0	8.01	14.83
26/01/2020 03:59:34	26012020	260120	035934	53.740	12.503405	-57.518948	53.590	0.100	-0.310	1.350	53.730	-2.000	1.800																			1580011174.0	7.81	14.46
26/01/2020 03:59:35	26012020	260120	035935	53.660	12.503423	-57.518920	53.490	-0.110	0.260	1.000	53.640	-1.400	1.600																			1580011175.0	7.24	13.41
26/01/2020 03:59:36	26012020	260120	035936	53.560	12.503443	-57.518895	53.490	-0.120	0.370	0.400	53.560	-1.000	1.100																			1580011176.0	6.85	12.69
26/01/2020 03:59:37	26012020	260120	035937	53.580	12.503467	-57.518870	53.490	0.060	0.040	-0.270	53.580	-1.200	0.400																			1580011177.0	7.13	13.20
26/01/2020 03:59:38	26012020	260120	035938	53.580	12.503492	-57.518845	53.380	0.230	-0.280	-0.790	53.580	-1.600	-0.200																			1580011178.0	7.72	14.30
26/01/2020 03:59:39	26012020	260120	035939	53.490	12.503518	-57.518818	53.250	0.250	-0.370	-1.000	53.470	-1.800	-0.500																			1580011179.0	7.95	14.72
26/01/2020 03:59:40	26012020	260120	035940	53.360	12.503543	-57.518792	53.290	0.190	-0.300	-1.040	53.350	-1.800	-0.600																			1580011180.0	7.72	14.30
26/01/2020 03:59:41	26012020	260120	035941	53.380	12.503567	-57.518765	53.420	0.100	-0.190	-0.860	53.400	-1.700	-0.600																			1580011181.0	7.46	13.82
26/01/2020 03:59:42	26012020	260120	035942	53.510	12.503588	-57.518738	53.570	-0.020	-0.140	-0.370	53.530	-1.600	-0.200																			1580011182.0	7.36	13.63
26/01/2020 03:59:43	26012020	260120	035943	53.620	12.503608	-57.518710	53.630	-0.170	-0.140	0.310	53.640	-1.500	0.400																			1580011183.0	7.39	13.69
26/01/2020 03:59:44	26012020	260120	035944	53.670	12.503628	-57.518682	53.620	-0.300	-0.120	1.070	53.670	-1.500	1.100																			1580011184.0	7.49	13.87
26/01/2020 03:59:45	26012020	260120	035945	53.650	12.503645	-57.518650	53.630	-0.340	-0.120	1.640	53.640	-1.500	1.800																			1580011185.0	7.51	13.91
26/01/2020 03:59:46	26012020	260120	035946	53.660	12.503663	-57.518620	53.710	-0.240	-0.170	1.810	53.670	-1.600	2.200																			1580011186.0	7.48	13.85
26/01/2020 03:59:47	26012020	260120	035947	53.760	12.503682	-57.518590	53.700	-0.080	-0.170	1.590	53.770	-1.600	2.100																			1580011187.0	7.49	13.87
26/01/2020 03:59:48	26012020	260120	035948	53.780	12.503702	-57.518562	53.600	0.080	-0.140	1.150	53.770	-1.600	1.800																			1580011188.0	7.50	13.89
26/01/2020 03:59:49	26012020	260120	035949	53.690	12.503725	-57.518533	53.510	0.240	-0.210	0.550	53.670	-1.600	1.200																			1580011189.0	7.45	13.80
26/01/2020 03:59:50	26012020	260120	035950	53.610	12.503748	-57.518508	53.460	0.390	-0.420	-0.230	53.600	-1.700	0.500																			1580011190.0	7.48	13.85
26/01/2020 03:59:51	26012020	260120	035951	53.580	12.503775	-57.518482	53.430	0.410	-0.410	-0.970	53.570	-1.900	-0.300																			1580011191.0	7.77	14.39
26/01/2020 03:59:52	26012020	260120	035952	53.550	12.503802	-57.518457	53.430	0.200	-0.130	-1.310	53.540	-1.700	-0.800																			1580011192.0	7.90	14.63
26/01/2020 03:59:53	26012020	260120	035953	53.550	12.503827	-57.518432	53.530	-0.120	0.120	-1.220	53.560	-1.400	-0.900																			1580011193.0	7.55	13.98
26/01/2020 03:59:54	26012020	260120	035954	53.620	12.503850	-57.518407	53.680	-0.360	0.200	-0.860	53.650	-1.200	-0.700																			1580011194.0	7.26	13.45
26/01/2020 03:59:55	26012020	260120	035955	53.770	12.503870	-57.518380	53.880	-0.390	0.110	-0.300	53.800	-1.300	-0.200																			1580011195.0	7.30	13.52
26/01/2020 03:59:56	26012020	260120	035956	53.940	12.503890	-57.518350	54.010	-0.270	-0.130	0.490	53.980	-1.400	0.500																			1580011196.0	7.43	13.76
26/01/2020 03:59:57	26012020	260120	035957	54.050	12.503907	-57.518320	53.960	-0.150	-0.380	1.270	54.060	-1.700	1.300																			1580011197.0	7.62	14.11
26/01/2020 03:59:58	26012020	260120	035958	54.010	12.503923	-57.518287	53.880	-0.050	-0.530	1.750	53.990	-1.900	2.000																			1580011198.0	7.75	14.35
26/01/2020 03:59:59	26012020	260120	035959	53.930	12.503942	-57.518255	53.890	0.110	-0.530	1.780	53.920	-2.000	2.200																			1580011199.0	7.66	14.19
26/01/2020 04:00:00	26012020	260120	040000	53.930	12.503962	-57.518227	53.880	0.320	-0.380	1.440	53.940	-1.900	2.000	1015.00	25.70	25.80	20.70	20.70	-1.00	73.00	73.00	387.00	25.20	7.00	8.90	66.00	5.10	15	3261.00	27.50	27.40	1580011200.0	7.55	13.98
26/01/2020 04:00:01	26012020	260120	040001	53.950	12.504008	-57.518173	53.800	0.390	-0.060	0.910	53.950	-1.600	1.600																			1580011201.0	7.51	13.91
26/01/2020 04:00:02	26012020	260120	040001	53.900	12.504008	-57.518173	53.750	0.260	0.180	0.300	53.880	-1.300	1.000																			1580011201.0	7.42	13.74
26/01/2020 04:00:03	26012020	260120	040003	53.840	12.504032	-57.518148	53.790	0.020	0.120	-0.390	53.840	-1.200	0.300																			1580011203.0	7.35	13.61
26/01/2020 04:00:04	26012020	260120	040004	53.880	12.504057	-57.518123	53.860	-0.190	-0.100	-0.920	53.890	-1.400	-0.300																			1580011204.0	7.51	13.91
26/01/2020 04:00:05	26012020	260120	040005	53.940	12.504082	-57.518098	53.890	-0.340	-0.150	-1.110	53.950	-1.600	-0.700																			1580011205.0	7.77	14.39
26/01/2020 04:00:06	26012020	260120	040006	53.990	12.504107	-57.518070	53.910	-0.390	-0.140	-0.990	53.990	-1.500	-0.700																			1580011206.0	7.69	14.24
26/01/2020 04:00:07	26012020	260120	040007	54.000	12.504127	-57.518043	53.940	-0.250	-0.330	-0.680	54.010	-1.600	-0.400																			1580011207.0	7.40	13.70
26/01/2020 04:00:08	26012020	260120	040008	54.030	12.504148	-57.518015	54.030	0.020	-0.570	-0.220	54.040	-1.900	-0.100																			1580011208.0	7.49	13.87
26/01/2020 04:00:09	26012020	260120	040009	54.090	12.504168	-57.517983	54.070	0.170	-0.440	0.330	54.100	-2.000	0.400																			1580011209.0	7.80	14.45
26/01/2020 04:00:10	26012020	260120	040010	54.120	12.504187	-57.517953	54.070	0.050	0.130	0.850	54.120	-1.600	1.000																			1580011210.0	7.74	14.33
26/01/2020 04:00:11	26012020	260120	040011	54.110	12.504205	-57.517923	54.020	-0.150	0.540	1.280	54.100	-1.000	1.500																			1580011211.0	7.19	13.32
26/01/2020 04:00:12	26012020	260120	040012	54.050	12.504222	-57.517897	53.940	-0.160	0.240	1.430	54.040	-0.900	1.800																			1580011212.0	6.83	12.65
26/01/2020 04:00:13	26012020	260120	040013	53.990	12.504242	-57.517868	53.920	0.150	-0.600	1.190	53.980	-1.600	1.700																			1580011213.0	7.23	13.39
26/01/2020 04:00:14	26012020	260120	040014	53.960	12.504267	-57.517840	54.030	0.590	-1.200	0.780	53.970	-2.400	1.400																			1580011214.0	8.05	14.91
26/01/2020 04:00:15	26012020	260120	040015	54.080	12.504292	-57.517810	54.140	0.700	-0.810	0.470	54.110	-2.500	1.000																			1580011215.0	8.48	15.70
26/01/2020 04:00:16	26012020	260120	040016	54.190	12.504317	-57.517782	54.060	0.260	0.260	0.250	54.200	-1.700	0.700																			1580011216.0	7.92	14.67
26/01/2020 04:00:17	26012020	260120	040017	54.120	12.504337	-57.517757	53.880	-0.430	0.930	0.010	54.080	-0.700	0.500																			1580011217.0	6.82	12.63
26/01/2020 04:00:18	26012020	260120	040018	53.950	12.504355	-57.517733	53.800	-0.810	0.580	-0.300	53.920	-0.600	0.200																			1580011218.0	6.43	11.91
26/01/2020 04:00:19	26012020	260120	040019	53.890	12.504377	-57.517707	53.900	-0.660	-0.270	-0.610	53.890	-1.300	-0.100																			1580011219.0	7.17	13.28
26/01/2020 04:00:20	26012020	260120	040020	53.990	12.504402	-57.517678	54.030	-0.300	-0.670	-0.710	54.010	-2.000	-0.300																			1580011220.0	8.16	15.11
26/01/2020 04:00:21	26012020	260120	040021	54.110	12.504427	-57.517648	54.020	-0.050	-0.480	-0.480	54.120	-2.000	-0.200																			1580011221.0	8.16	15.11
26/01/2020 04:00:22	26012020	260120	040022	54.110	12.504447	-57.517620	53.970	0.070	-0.270	-0.090	54.100	-1.800	0.100																			1580011222.0	7.43	13.76
26/01/2020 04:00:23	26012020	260120	040023	54.050	12.504465	-57.517592	54.050	0.250	-0.400	0.220	54.050	-1.700	0.500																			1580011223.0	7.04	13.04
26/01/2020 04:00:24	26012020	260120	040024	54.100	12.504485	-57.517563	54.100	0.480	-0.570	0.450	54.120	-1.900	0.700																			1580011224.0	7.37	13.65
26/01/2020 04:00:25	26012020	260120	040025	54.150	12.504507	-57.517535	54.000	0.530	-0.290	0.700	54.150	-1.900	1.000																			1580011225.0	7.82	14.48
26/01/2020 04:00:26	26012020	260120	040026	54.060	12.504528	-57.517505	53.880	0.280	0.330	0.970	54.030	-1.400	1.200																			1580011226.0	7.70	14.26
26/01/2020 04:00:27	26012020	260120	040027	53.930	12.504548	-57.517478	53.920	-0.080	0.550	1.050	53.920	-0.900	1.400																			1580011227.0	7.07	13.09
26/01/2020 04:00:28	26012020	260120	040028	53.970	12.504568	-57.517453	54.150	-0.250	0.070	0.810	54.010	-1.100	1.300																			1580011228.0	6.90	12.78
26/01/2020 04:00:29	26012020	260120	040029	54.200	12.504590	-57.517425	54.280	-0.220	-0.460	0.480	54.240	-1.700	1.000																			1580011229.0	7.51	13.91
26/01/2020 04:00:30	26012020	260120	040030	54.340	12.504613	-57.517395	54.180	-0.230	-0.410	0.370	54.340	-1.900	0.800																			1580011230.0	8.09	14.98
26/01/2020 04:00:31	26012020	260120	040031	54.260	12.504635	-57.517367	54.030	-0.350	-0.030	0.450	54.230	-1.600	0.800																			1580011231.0	7.75	14.35
26/01/2020 04:00:32	26012020	260120	040032	54.090	12.504655	-57.517340	53.930	-0.380	0.070	0.390	54.060	-1.300	0.800																			1580011232.0	7.04	13.04
26/01/2020 04:00:33	26012020	260120	040033	54.010	12.504675	-57.517313	53.980	-0.150	-0.270	0.050	54.010	-1.500	0.600																			1580011233.0	6.94	12.85
26/01/2020 04:00:34	26012020	260120	040034	54.060	12.504697	-57.517287	54.040	0.200	-0.560	-0.300	54.080	-1.900	0.200																			1580011234.0	7.47	13.83
26/01/2020 04:00:35	26012020	260120	040035	54.120	12.504720	-57.517258	54.060	0.430	-0.570	-0.550	54.130	-2.000	-0.100																			1580011235.0	7.83	14.50
26/01/2020 04:00:36	26012020	260120	040036	54.160	12.504743	-57.517230	54.100	0.490	-0.420	-0.640	54.160	-1.900	-0.200																			1580011236.0	7.67	14.20
26/01/2020 04:00:37	26012020	260120	040037	54.190	12.504767	-57.517203	54.060	0.390	-0.100	-0.470	54.190	-1.700	-0.200																			1580011237.0	7.51	13.91
26/01/2020 04:00:38	26012020	260120	040038	54.150	12.504788	-57.517177	54.010	0.140	0.270	-0.150	54.140	-1.300	0.100																			1580011238.0	7.41	13.72
26/01/2020 04:00:39	26012020	260120	040039	54.060	12.504808	-57.517150	53.970	-0.120	0.390	0.240	54.050	-1.000	0.400																			1580011239.0	7.21	13.35
26/01/2020 04:00:40	26012020	260120	040040	54.030	12.504828	-57.517123	54.090	-0.230	0.060	0.590	54.040	-1.100	0.800																			1580011240.0	7.15	13.24
26/01/2020 04:00:41	26012020	260120	040041	54.140	12.504848	-57.517093	54.240	-0.210	-0.440	0.910	54.180	-1.600	1.100																			1580011241.0	7.46	13.82
26/01/2020 04:00:42	26012020	260120	040042	54.280	12.504870	-57.517063	54.210	-0.250	-0.570	1.240	54.290	-2.000	1.500																			1580011242.0	7.90	14.63
26/01/2020 04:00:43	26012020	260120	040043	54.260	12.504890	-57.517032	54.140	-0.400	-0.130	1.380	54.250	-1.800	1.700																			1580011243.0	7.87	14.58
26/01/2020 04:00:44	26012020	260120	040044	54.200	12.504908	-57.517003	54.160	-0.450	0.300	1.200	54.190	-1.300	1.700																			1580011244.0	7.26	13.45
26/01/2020 04:00:45	26012020	260120	040045	54.220	12.504927	-57.516977	54.220	-0.170	0.150	0.730	54.230	-1.100	1.400																			1580011245.0	6.76	12.52
26/01/2020 04:00:46	26012020	260120	040046	54.290	12.504947	-57.516952	54.190	0.330	-0.430	0.130	54.290	-1.500	0.800																			1580011246.0	7.09	13.13
26/01/2020 04:00:47	26012020	260120	040047	54.270	12.504972	-57.516923	54.080	0.750	-0.940	-0.420	54.250	-2.200	0.200																			1580011247.0	7.80	14.45
26/01/2020 04:00:48	26012020	260120	040048	54.150	12.504997	-57.516895	54.000	0.860	-0.970	-0.840	54.130	-2.400	-0.300																			1580011248.0	8.14	15.08
26/01/2020 04:00:49	26012020	260120	040049	54.080	12.505023	-57.516868	54.010	0.570	-0.360	-1.090	54.080	-2.100	-0.600																			1580011249.0	8.00	14.82
26/01/2020 04:00:50	26012020	260120	040050	54.090	12.505047	-57.516843	54.020	-0.020	0.600	-1.030	54.100	-1.300	-0.700																			1580011250.0	7.50	13.89
26/01/2020 04:00:51	26012020	260120	040051	54.110	12.505068	-57.516820	54.080	-0.620	1.140	-0.650	54.120	-0.400	-0.500																			1580011251.0	6.82	12.63
26/01/2020 04:00:52	26012020	260120	040052	54.170	12.505088	-57.516795	54.240	-0.810	0.660	-0.040	54.200	-0.400	0.100																			1580011252.0	6.53	12.09
26/01/2020 04:00:53	26012020	260120	040053	54.310	12.505105	-57.516767	54.370	-0.530	-0.480	0.630	54.340	-1.300	0.700																			1580011253.0	7.15	13.24
26/01/2020 04:00:54	26012020	260120	040054	54.430	12.505125	-57.516733	54.370	-0.090	-1.270	1.200	54.440	-2.400	1.300																			1580011254.0	8.19	15.17
26/01/2020 04:00:55	26012020	260120	040055	54.440	12.505145	-57.516698	54.310	0.210	-1.110	1.660	54.430	-2.700	1.800																			1580011255.0	8.47	15.69
26/01/2020 04:00:56	26012020	260120	040056	54.370	12.505163	-57.516667	54.210	0.250	-0.280	1.940	54.350	-2.100	2.200																			1580011256.0	7.82	14.48
26/01/2020 04:00:57	26012020	260120	040057	54.280	12.505182	-57.516640	54.150	0.150	0.360	1.780	54.260	-1.300	2.300																			1580011257.0	6.90	12.78
26/01/2020 04:00:58	26012020	260120	040058	54.200	12.505198	-57.516613	53.980	0.100	0.330	1.140	54.180	-1.000	1.900																			1580011258.0	6.60	12.22
26/01/2020 04:00:59	26012020	260120	040059	54.070	12.505222	-57.516588	53.870	0.180	-0.050	0.200	54.040	-1.300	1.100																			1580011259.0	7.15	13.24
26/01/2020 04:01:00	26012020	260120	040100	53.980	12.505247	-57.516563	54.020	0.270	-0.330	-0.760	53.990	-1.600	0.100	1015.00	25.70	25.80	20.70	20.80	-1.00	74.00	73.00	387.00	25.20	2.00	8.70	57.00	4.80	15	3362.00	27.50	27.50	1580011260.0	7.86	14.56
26/01/2020 04:01:01	26012020	260120	040101	54.140	12.505275	-57.516537	54.270	0.230	-0.340	-1.470	54.200	-1.800	-0.800																			1580011261.0	8.00	14.82
26/01/2020 04:01:02	26012020	260120	040102	54.400	12.505300	-57.516512	54.320	0.050	-0.180	-1.670	54.440	-1.700	-1.300																			1580011262.0	7.72	14.30
26/01/2020 04:01:03	26012020	260120	040103	54.450	12.505323	-57.516487	54.190	-0.140	-0.030	-1.330	54.430	-1.500	-1.100																			1580011263.0	7.39	13.69
26/01/2020 04:01:04	26012020	260120	040104	54.310	12.505345	-57.516460	54.170	-0.230	-0.010	-0.660	54.290	-1.400	-0.600																			1580011264.0	7.23	13.39
26/01/2020 04:01:05	26012020	260120	040105	54.270	12.505365	-57.516432	54.200	-0.240	-0.060	0.150	54.270	-1.400	0.200																			1580011265.0	7.32	13.56
26/01/2020 04:01:06	26012020	260120	040106	54.290	12.505382	-57.516400	54.210	-0.250	-0.130	0.870	54.290	-1.500	0.900																			1580011266.0	7.43	13.76
26/01/2020 04:01:07	26012020	260120	040107	54.290	12.505398	-57.516370	54.220	-0.230	-0.250	1.400	54.290	-1.600	1.600																			1580011267.0	7.46	13.82
26/01/2020 04:01:08	26012020	260120	040108	54.280	12.505417	-57.516340	54.290	-0.100	-0.400	1.700	54.280	-1.700	2.000																			1580011268.0	7.43	13.76
26/01/2020 04:01:09	26012020	260120	040109	54.340	12.505437	-57.516310	54.400	0.110	-0.430	1.730	54.370	-1.800	2.100																			1580011269.0	7.51	13.91
26/01/2020 04:01:10	26012020	260120	040110	54.470	12.505455	-57.516280	54.430	0.310	-0.320	1.440	54.490	-1.800	2.000																			1580011270.0	7.52	13.93
26/01/2020 04:01:11	26012020	260120	040111	54.490	12.505477	-57.516253	54.250	0.410	-0.230	0.910	54.480	-1.700	1.600																			1580011271.0	7.41	13.72
26/01/2020 04:01:12	26012020	260120	040112	54.340	12.505500	-57.516227	54.060	0.340	-0.140	0.250	54.300	-1.600	1.000																			1580011272.0	7.47	13.83
26/01/2020 04:01:13	26012020	260120	040113	54.160	12.505525	-57.516200	53.990	0.130	0.030	-0.390	54.140	-1.500	0.300																			1580011273.0	7.60	14.08
26/01/2020 04:01:14	26012020	260120	040114	54.110	12.505550	-57.516175	54.120	-0.080	0.210	-0.920	54.120	-1.300	-0.300																			1580011274.0	7.54	13.96
26/01/2020 04:01:15	26012020	260120	040115	54.240	12.505573	-57.516152	54.270	-0.220	0.190	-1.220	54.280	-1.200	-0.700																			1580011275.0	7.33	13.58
26/01/2020 04:01:16	26012020	260120	040116	54.400	12.505595	-57.516125	54.320	-0.230	-0.150	-1.140	54.420	-1.400	-0.800																			1580011276.0	7.25	13.43
26/01/2020 04:01:17	26012020	260120	040117	54.450	12.505617	-57.516097	54.290	-0.170	-0.570	-0.720	54.440	-1.800	-0.500																			1580011277.0	7.53	13.95
26/01/2020 04:01:18	26012020	260120	040118	54.390	12.505637	-57.516067	54.210	-0.110	-0.640	-0.130	54.380	-2.100	-0.000																			1580011278.0	7.83	14.50
26/01/2020 04:01:19	26012020	260120	040119	54.310	12.505657	-57.516035	54.150	-0.100	-0.190	0.520	54.280	-1.900	0.600																			1580011279.0	7.77	14.39
26/01/2020 04:01:20	26012020	260120	040120	54.210	12.505675	-57.516007	54.140	-0.120	0.330	1.050	54.200	-1.300	1.200																			1580011280.0	7.28	13.48
26/01/2020 04:01:21	26012020	260120	040121	54.180	12.505693	-57.515980	54.240	-0.080	0.280	1.260	54.200	-1.000	1.600																			1580011281.0	6.80	12.59
26/01/2020 04:01:22	26012020	260120	040122	54.290	12.505712	-57.515953	54.390	0.090	-0.340	1.210	54.320	-1.400	1.600																			1580011282.0	6.99	12.95
26/01/2020 04:01:23	26012020	260120	040123	54.440	12.505733	-57.515923	54.390	0.290	-0.830	1.110	54.450	-2.100	1.500																			1580011283.0	7.71	14.28
26/01/2020 04:01:24	26012020	260120	040124	54.440	12.505755	-57.515893	54.230	0.340	-0.710	1.090	54.420	-2.200	1.500																			1580011284.0	8.10	15.00
26/01/2020 04:01:25	26012020	260120	040125	54.280	12.505777	-57.515863	54.070	0.170	-0.190	0.910	54.250	-1.900	1.400																			1580011285.0	7.77	14.39
26/01/2020 04:01:26	26012020	260120	040126	54.120	12.505798	-57.515837	54.040	-0.060	0.240	0.360	54.110	-1.300	1.100																			1580011286.0	7.21	13.35
26/01/2020 04:01:27	26012020	260120	040127	54.110	12.505820	-57.515812	54.150	-0.110	0.330	-0.290	54.130	-1.100	0.400																			1580011287.0	7.02	13.00
26/01/2020 04:01:28	26012020	260120	040128	54.250	12.505843	-57.515787	54.270	0.010	0.100	-0.740	54.270	-1.200	-0.200																			1580011288.0	7.27	13.46
26/01/2020 04:01:29	26012020	260120	040129	54.360	12.505867	-57.515760	54.280	0.120	-0.230	-0.940	54.370	-1.500	-0.500																			1580011289.0	7.56	14.00
26/01/2020 04:01:30	26012020	260120	040130	54.380	12.505890	-57.515732	54.250	0.040	-0.360	-0.880	54.370	-1.800	-0.500																			1580011290.0	7.77	14.39
26/01/2020 04:01:31	26012020	260120	040131	54.340	12.505913	-57.515703	54.200	-0.210	-0.170	-0.580	54.330	-1.700	-0.400																			1580011291.0	7.71	14.28
26/01/2020 04:01:32	26012020	260120	040132	54.280	12.505933	-57.515677	54.150	-0.410	0.020	-0.190	54.270	-1.500	0.000																			1580011292.0	7.33	13.58
26/01/2020 04:01:33	26012020	260120	040133	54.230	12.505952	-57.515650	54.110	-0.340	-0.090	0.270	54.230	-1.400	0.400																			1580011293.0	7.05	13.06
26/01/2020 04:01:34	26012020	260120	040134	54.190	12.505972	-57.515622	54.110	-0.040	-0.430	0.740	54.180	-1.700	0.900																			1580011294.0	7.23	13.39
26/01/2020 04:01:35	26012020	260120	040135	54.180	12.505992	-57.515592	54.200	0.220	-0.640	1.130	54.200	-2.000	1.300																			1580011295.0	7.64	14.15
26/01/2020 04:01:36	26012020	260120	040136	54.270	12.506010	-57.515560	54.250	0.200	-0.400	1.380	54.280	-2.000	1.700																			1580011296.0	7.85	14.54
26/01/2020 04:01:37	26012020	260120	040137	54.320	12.506030	-57.515530	54.150	-0.010	0.080	1.360	54.320	-1.500	1.800																			1580011297.0	7.56	14.00
26/01/2020 04:01:38	26012020	260120	040138	54.230	12.506048	-57.515502	54.030	-0.040	0.200	1.070	54.200	-1.200	1.600																			1580011298.0	7.04	13.04
26/01/2020 04:01:39	26012020	260120	040139	54.110	12.506068	-57.515477	54.050	0.210	-0.170	0.500	54.100	-1.400	1.200																			1580011299.0	7.04	13.04
26/01/2020 04:01:40	26012020	260120	040140	54.150	12.506093	-57.515448	54.090	0.420	-0.420	-0.100	54.170	-1.800	0.600																			1580011300.0	7.69	14.24
26/01/2020 04:01:41	26012020	260120	040141	54.190	12.506118	-57.515422	53.980	0.300	-0.180	-0.570	54.180	-1.800	0.000																			1580011301.0	8.03	14.87
26/01/2020 04:01:42	26012020	260120	040142	54.090	12.506142	-57.515395	53.790	-0.060	0.200	-0.810	54.050	-1.400	-0.300																			1580011302.0	7.61	14.09
26/01/2020 04:01:43	26012020	260120	040143	53.910	12.506165	-57.515370	53.790	-0.300	0.160	-0.860	53.890	-1.200	-0.500																			1580011303.0	7.04	13.04
26/01/2020 04:01:44	26012020	260120	040144	53.880	12.506187	-57.515345	53.920	-0.270	-0.260	-0.720	53.900	-1.500	-0.400																			1580011304.0	7.10	13.15
26/01/2020 04:01:45	26012020	260120	040145	54.020	12.506208	-57.515317	54.010	-0.150	-0.530	-0.370	54.050	-1.900	-0.200																			1580011305.0	7.64	14.15
26/01/2020 04:01:46	26012020	260120	040146	54.090	12.506228	-57.515287	53.890	-0.100	-0.390	0.150	54.070	-1.900	0.300																			1580011306.0	7.85	14.54
26/01/2020 04:01:47	26012020	260120	040147	53.970	12.506248	-57.515257	53.780	-0.110	-0.040	0.730	53.940	-1.600	0.800																			1580011307.0	7.53	13.95
26/01/2020 04:01:48	26012020	260120	040148	53.840	12.506265	-57.515228	53.750	-0.040	0.010	1.130	53.830	-1.400	1.400																			1580011308.0	7.09	13.13
26/01/2020 04:01:49	26012020	260120	040149	53.820	12.506283	-57.515200	53.760	0.160	-0.290	1.160	53.820	-1.500	1.600																			1580011309.0	7.13	13.20
26/01/2020 04:01:50	26012020	260120	040150	53.840	12.506305	-57.515170	53.760	0.340	-0.500	1.060	53.840	-1.900	1.500																			1580011310.0	7.60	14.08
26/01/2020 04:01:51	26012020	260120	040151	53.830	12.506328	-57.515142	53.790	0.320	-0.330	0.930	53.830	-1.900	1.400																			1580011311.0	7.90	14.63
26/01/2020 04:01:52	26012020	260120	040152	53.860	12.506350	-57.515113	53.880	0.060	0.110	0.690	53.880	-1.500	1.200																			1580011312.0	7.62	14.11
26/01/2020 04:01:53	26012020	260120	040153	53.950	12.506372	-57.515088	53.910	-0.260	0.390	0.420	53.970	-1.100	0.900																			1580011313.0	7.17	13.28
26/01/2020 04:01:54	26012020	260120	040154	53.980	12.506392	-57.515062	53.830	-0.380	0.230	0.200	53.980	-1.000	0.700																			1580011314.0	6.97	12.91
26/01/2020 04:01:55	26012020	260120	040155	53.900	12.506413	-57.515035	53.670	-0.200	-0.320	-0.000	53.880	-1.400	0.500																			1580011315.0	7.21	13.35
26/01/2020 04:01:56	26012020	260120	040156	53.780	12.506437	-57.515007	53.660	0.130	-0.780	-0.300	53.760	-2.000	0.200																			1580011316.0	7.71	14.28
26/01/2020 04:01:57	26012020	260120	040157	53.760	12.506460	-57.514978	53.780	0.300	-0.690	-0.540	53.780	-2.200	-0.100																			1580011317.0	8.01	14.83
26/01/2020 04:01:58	26012020	260120	040158	53.890	12.506483	-57.514950	53.860	0.180	-0.160	-0.550	53.920	-1.800	-0.200																			1580011318.0	7.77	14.39
26/01/2020 04:01:59	26012020	260120	040159	53.980	12.506505	-57.514925	53.840	-0.050	0.240	-0.380	53.990	-1.300	-0.100																			1580011319.0	7.15	13.24
26/01/2020 04:02:00	26012020	260120	040200	53.960	12.506525	-57.514898	53.770	-0.140	0.280	-0.070	53.950	-1.100	0.200	1015.10	25.70	25.80	20.70	20.70	-1.00	73.00	73.00	387.00	25.20	3.00	8.60	59.00	4.70	15	3276.00	27.50	27.40	1580011320.0	6.95	12.87
26/01/2020 04:02:01	26012020	260120	040201	53.870	12.506545	-57.514872	53.750	-0.060	0.040	0.330	53.860	-1.200	0.500																			1580011321.0	7.23	13.39
26/01/2020 04:02:02	26012020	260120	040202	53.820	12.506565	-57.514842	53.830	0.070	-0.360	0.610	53.830	-1.600	0.900																			1580011322.0	7.52	13.93
26/01/2020 04:02:03	26012020	260120	040203	53.900	12.506585	-57.514812	53.950	0.130	-0.600	0.760	53.930	-1.900	1.100																			1580011323.0	7.74	14.33
26/01/2020 04:02:04	26012020	260120	040204	54.010	12.506607	-57.514782	54.010	0.070	-0.450	0.910	54.040	-2.000	1.200																			1580011324.0	7.80	14.45
26/01/2020 04:02:05	26012020	260120	040205	54.070	12.506628	-57.514753	53.980	-0.000	-0.140	1.070	54.070	-1.700	1.400																			1580011325.0	7.50	13.89
26/01/2020 04:02:06	26012020	260120	040206	54.030	12.506648	-57.514727	53.840	-0.020	0.040	1.170	54.010	-1.400	1.500																			1580011326.0	7.20	13.33
26/01/2020 04:02:07	26012020	260120	040207	53.900	12.506667	-57.514698	53.710	-0.030	-0.010	0.950	53.880	-1.400	1.500																			1580011327.0	7.24	13.41
26/01/2020 04:02:08	26012020	260120	040208	53.790	12.506688	-57.514670	53.740	-0.030	-0.130	0.390	53.780	-1.500	1.100																			1580011328.0	7.48	13.85
26/01/2020 04:02:09	26012020	260120	040209	53.830	12.506712	-57.514643	53.910	0.010	-0.210	-0.260	53.860	-1.600	0.400																			1580011329.0	7.65	14.17
26/01/2020 04:02:10	26012020	260120	040210	54.000	12.506737	-57.514617	54.060	0.090	-0.180	-0.650	54.040	-1.600	-0.100																			1580011330.0	7.66	14.19
26/01/2020 04:02:11	26012020	260120	040211	54.170	12.506760	-57.514590	54.050	0.030	-0.020	-0.660	54.180	-1.500	-0.300																			1580011331.0	7.57	14.02
26/01/2020 04:02:12	26012020	260120	040212	54.160	12.506782	-57.514563	53.900	-0.190	0.130	-0.410	54.140	-1.300	-0.200																			1580011332.0	7.38	13.67
26/01/2020 04:02:13	26012020	260120	040213	54.000	12.506802	-57.514537	53.780	-0.340	0.010	-0.060	53.970	-1.300	0.200																			1580011333.0	7.17	13.28
26/01/2020 04:02:14	26012020	260120	040214	53.860	12.506822	-57.514508	53.750	-0.210	-0.430	0.220	53.840	-1.600	0.500																			1580011334.0	7.23	13.39
26/01/2020 04:02:15	26012020	260120	040215	53.820	12.506842	-57.514480	53.880	0.170	-0.830	0.270	53.840	-2.100	0.600																			1580011335.0	7.61	14.09
26/01/2020 04:02:16	26012020	260120	040216	53.940	12.506865	-57.514450	53.980	0.540	-0.800	0.410	53.980	-2.300	0.700																			1580011336.0	7.93	14.69
26/01/2020 04:02:17	26012020	260120	040217	54.050	12.506887	-57.514420	53.910	0.590	-0.290	0.770	54.050	-2.000	1.000																			1580011337.0	7.85	14.54
26/01/2020 04:02:18	26012020	260120	040218	53.990	12.506907	-57.514392	53.750	0.250	0.290	1.030	53.960	-1.400	1.300																			1580011338.0	7.42	13.74
26/01/2020 04:02:19	26012020	260120	040219	53.830	12.506925	-57.514363	53.630	-0.220	0.500	1.010	53.790	-0.900	1.400																			1580011339.0	7.02	13.00
26/01/2020 04:02:20	26012020	260120	040220	53.700	12.506945	-57.514338	53.750	-0.470	0.250	0.770	53.700	-1.000	1.300																			1580011340.0	7.10	13.15
26/01/2020 04:02:21	26012020	260120	040221	53.810	12.506968	-57.514310	54.020	-0.430	-0.210	0.400	53.860	-1.400	1.000																			1580011341.0	7.48	13.85
26/01/2020 04:02:22	26012020	260120	040222	54.080	12.506992	-57.514282	54.140	-0.280	-0.430	0.050	54.130	-1.800	0.600																			1580011342.0	7.82	14.48
26/01/2020 04:02:23	26012020	260120	040223	54.230	12.507013	-57.514253	54.030	-0.150	-0.250	-0.030	54.230	-1.800	0.300																			1580011343.0	7.83	14.50
26/01/2020 04:02:24	26012020	260120	040224	54.120	12.507035	-57.514225	53.750	-0.030	-0.070	0.090	54.060	-1.500	0.400																			1580011344.0	7.41	13.72
26/01/2020 04:02:25	26012020	260120	040225	53.840	12.507055	-57.514198	53.590	0.150	-0.210	0.040	53.790	-1.500	0.500																			1580011345.0	7.10	13.15
26/01/2020 04:02:26	26012020	260120	040226	53.680	12.507077	-57.514172	53.640	0.360	-0.480	-0.300	53.670	-1.800	0.300																			1580011346.0	7.36	13.63
26/01/2020 04:02:27	26012020	260120	040227	53.750	12.507100	-57.514143	53.790	0.490	-0.530	-0.560	53.770	-1.900	-0.100																			1580011347.0	7.77	14.39
26/01/2020 04:02:28	26012020	260120	040228	53.890	12.507125	-57.514117	53.900	0.390	-0.280	-0.430	53.920	-1.800	-0.200																			1580011348.0	7.80	14.45
26/01/2020 04:02:29	26012020	260120	040229	54.000	12.507148	-57.514090	53.970	0.020	-0.000	-0.030	54.010	-1.500	0.100																			1580011349.0	7.49	13.87
26/01/2020 04:02:30	26012020	260120	040230	54.060	12.507168	-57.514063	54.060	-0.410	0.090	0.440	54.080	-1.300	0.600																			1580011350.0	7.26	13.45
26/01/2020 04:02:31	26012020	260120	040231	54.120	12.507187	-57.514033	54.130	-0.600	0.040	0.920	54.140	-1.300	1.100																			1580011351.0	7.32	13.56
26/01/2020 04:02:32	26012020	260120	040232	54.180	12.507207	-57.514003	54.210	-0.440	-0.080	1.330	54.200	-1.400	1.500																			1580011352.0	7.52	13.93
26/01/2020 04:02:33	26012020	260120	040233	54.260	12.507225	-57.513973	54.210	-0.160	-0.150	1.480	54.270	-1.500	1.800																			1580011353.0	7.63	14.13
26/01/2020 04:02:34	26012020	260120	040234	54.260	12.507243	-57.513942	54.070	0.030	-0.160	1.330	54.240	-1.600	1.800																			1580011354.0	7.65	14.17
26/01/2020 04:02:35	26012020	260120	040235	54.110	12.507262	-57.513912	53.900	0.140	-0.200	0.840	54.080	-1.600	1.500																			1580011355.0	7.52	13.93
26/01/2020 04:02:36	26012020	260120	040236	53.950	12.507283	-57.513885	53.850	0.300	-0.320	-0.000	53.940	-1.700	0.800																			1580011356.0	7.45	13.80
26/01/2020 04:02:37	26012020	260120	040237	53.940	12.507310	-57.513860	53.950	0.510	-0.370	-0.940	53.950	-1.800	-0.100																			1580011357.0	7.64	14.15
26/01/2020 04:02:38	26012020	260120	040238	54.050	12.507338	-57.513837	54.060	0.540	-0.190	-1.500	54.080	-1.700	-0.900																			1580011358.0	7.84	14.52
26/01/2020 04:02:39	26012020	260120	040239	54.170	12.507365	-57.513812	54.040	0.170	0.120	-1.410	54.170	-1.400	-1.100																			1580011359.0	7.67	14.20
26/01/2020 04:02:40	26012020	260120	040240	54.140	12.507387	-57.513787	53.940	-0.410	0.200	-0.910	54.110	-1.200	-0.800																			1580011360.0	7.28	13.48
26/01/2020 04:02:41	26012020	260120	040241	54.040	12.507407	-57.513760	54.000	-0.700	-0.200	-0.280	54.030	-1.400	-0.200																			1580011361.0	7.14	13.22
26/01/2020 04:02:42	26012020	260120	040242	54.070	12.507427	-57.513730	54.100	-0.440	-0.700	0.510	54.100	-1.900	0.500																			1580011362.0	7.52	13.93
26/01/2020 04:02:43	26012020	260120	040243	54.170	12.507445	-57.513697	54.040	0.050	-0.790	1.360	54.170	-2.200	1.300																			1580011363.0	8.04	14.89
26/01/2020 04:02:44	26012020	260120	040244	54.080	12.507462	-57.513663	53.840	0.310	-0.380	1.890	54.040	-2.000	2.100																			1580011364.0	8.09	14.98
26/01/2020 04:02:45	26012020	260120	040245	53.880	12.507478	-57.513632	53.700	0.220	0.150	1.950	53.840	-1.500	2.400																			1580011365.0	7.58	14.04
26/01/2020 04:02:46	26012020	260120	040246	53.740	12.507497	-57.513603	53.680	-0.010	0.460	1.410	53.720	-1.000	2.100																			1580011366.0	7.11	13.17
26/01/2020 04:02:47	26012020	260120	040247	53.720	12.507517	-57.513577	53.710	-0.160	0.460	0.510	53.730	-0.900	1.300																			1580011367.0	7.08	13.11
26/01/2020 04:02:48	26012020	260120	040248	53.770	12.507542	-57.513553	53.710	-0.140	0.160	-0.410	53.770	-1.100	0.400																			1580011368.0	7.36	13.63
26/01/2020 04:02:49	26012020	260120	040249	53.790	12.507568	-57.513528	53.720	0.020	-0.420	-1.110	53.800	-1.500	-0.400																			1580011369.0	7.64	14.15
26/01/2020 04:02:50	26012020	260120	040250	53.830	12.507595	-57.513503	53.720	0.200	-0.830	-1.400	53.830	-2.100	-1.000																			1580011370.0	7.92	14.67
26/01/2020 04:02:51	26012020	260120	040251	53.830	12.507622	-57.513477	53.630	0.220	-0.690	-1.150	53.820	-2.200	-0.900																			1580011371.0	8.05	14.91
26/01/2020 04:02:52	26012020	260120	040252	53.740	12.507645	-57.513448	53.560	0.070	-0.280	-0.600	53.720	-1.900	-0.500																			1580011372.0	7.66	14.19
26/01/2020 04:02:53	26012020	260120	040253	53.670	12.507663	-57.513420	53.640	-0.110	-0.040	0.060	53.660	-1.500	0.100																			1580011373.0	7.15	13.24
26/01/2020 04:02:54	26012020	260120	040254	53.710	12.507680	-57.513392	53.750	-0.190	0.040	0.770	53.720	-1.400	0.800																			1580011374.0	7.16	13.26
26/01/2020 04:02:55	26012020	260120	040255	53.800	12.507698	-57.513362	53.830	-0.250	0.140	1.320	53.820	-1.300	1.500																			1580011375.0	7.46	13.82
26/01/2020 04:02:56	26012020	260120	040256	53.880	12.507717	-57.513332	53.890	-0.290	0.170	1.610	53.900	-1.200	1.900																			1580011376.0	7.50	13.89
26/01/2020 04:02:57	26012020	260120	040257	53.940	12.507735	-57.513302	53.950	-0.160	-0.100	1.640	53.950	-1.300	2.000																			1580011377.0	7.34	13.59
26/01/2020 04:02:58	26012020	260120	040258	54.000	12.507755	-57.513273	53.990	0.210	-0.650	1.370	54.010	-1.800	1.900																			1580011378.0	7.43	13.76
26/01/2020 04:02:59	26012020	260120	040259	54.050	12.507777	-57.513243	53.950	0.540	-0.870	0.820	54.050	-2.300	1.500																			1580011379.0	7.86	14.56
26/01/2020 04:03:00	26012020	260120	040300	54.030	12.507802	-57.513213	53.820	0.500	-0.350	0.100	54.010	-2.100	0.800	1015.00	25.70	25.80	20.80	20.80	-1.00	74.00	73.00	387.00	25.20	359.00	8.80	53.00	4.90	15	3226.00	27.50	27.40	1580011380.0	8.11	15.02
26/01/2020 04:03:01	26012020	260120	040301	53.920	12.507827	-57.513188	53.760	0.150	0.480	-0.540	53.900	-1.300	0.100																			1580011381.0	7.61	14.09
26/01/2020 04:03:02	26012020	260120	040302	53.860	12.507850	-57.513167	53.780	-0.170	0.790	-1.000	53.860	-0.700	-0.400																			1580011382.0	6.89	12.76
26/01/2020 04:03:03	26012020	260120	040303	53.890	12.507873	-57.513145	53.800	-0.260	0.280	-1.190	53.900	-0.800	-0.800																			1580011383.0	6.80	12.59
26/01/2020 04:03:04	26012020	260120	040304	53.910	12.507897	-57.513120	53.800	-0.230	-0.560	-1.060	53.910	-1.600	-0.800																			1580011384.0	7.45	13.80
26/01/2020 04:03:05	26012020	260120	040305	53.900	12.507922	-57.513090	53.850	-0.320	-0.940	-0.640	53.900	-2.300	-0.500																			1580011385.0	8.11	15.02
26/01/2020 04:03:06	26012020	260120	040306	53.920	12.507942	-57.513058	53.980	-0.530	-0.600	-0.010	53.930	-2.200	0.000																			1580011386.0	8.12	15.04
26/01/2020 04:03:07	26012020	260120	040307	54.040	12.507960	-57.513028	54.180	-0.580	-0.020	0.690	54.080	-1.700	0.700																			1580011387.0	7.42	13.74
26/01/2020 04:03:08	26012020	260120	040308	54.220	12.507975	-57.512998	54.230	-0.200	0.160	1.290	54.250	-1.200	1.400																			1580011388.0	6.82	12.63
26/01/2020 04:03:09	26012020	260120	040309	54.280	12.507990	-57.512970	54.090	0.480	-0.190	1.580	54.260	-1.400	1.900																			1580011389.0	6.95	12.87
26/01/2020 04:03:10	26012020	260120	040310	54.130	12.508008	-57.512940	53.850	1.050	-0.640	1.480	54.090	-1.900	1.900																			1580011390.0	7.56	14.00
26/01/2020 04:03:11	26012020	260120	040311	53.890	12.508030	-57.512908	53.680	1.110	-0.600	0.980	53.860	-2.100	1.600																			1580011391.0	8.07	14.95
26/01/2020 04:03:12	26012020	260120	040312	53.730	12.508057	-57.512882	53.670	0.560	0.020	0.200	53.720	-1.700	0.900																			1580011392.0	8.05	14.91
26/01/2020 04:03:13	26012020	260120	040313	53.750	12.508083	-57.512858	53.800	-0.260	0.680	-0.450	53.770	-1.000	0.200																			1580011393.0	7.45	13.80
26/01/2020 04:03:14	26012020	260120	040314	53.890	12.508107	-57.512838	54.010	-0.870	0.780	-0.720	53.930	-0.600	-0.300																			1580011394.0	6.87	12.72
26/01/2020 04:03:15	26012020	260120	040315	54.110	12.508130	-57.512815	54.210	-0.980	0.230	-0.650	54.150	-0.900	-0.400																			1580011395.0	6.85	12.69
26/01/2020 04:03:16	26012020	260120	040316	54.290	12.508150	-57.512787	54.210	-0.680	-0.560	-0.250	54.310	-1.600	-0.100																			1580011396.0	7.40	13.70
26/01/2020 04:03:17	26012020	260120	040317	54.290	12.508170	-57.512753	54.070	-0.270	-0.990	0.290	54.260	-2.300	0.400																			1580011397.0	7.96	14.74
26/01/2020 04:03:18	26012020	260120	040318	54.140	12.508188	-57.512722	53.970	0.030	-0.830	0.700	54.100	-2.400	0.900																			1580011398.0	8.00	14.82
26/01/2020 04:03:19	26012020	260120	040319	54.030	12.508205	-57.512690	53.960	0.270	-0.370	0.800	54.030	-2.000	1.200																			1580011399.0	7.48	13.85
26/01/2020 04:03:20	26012020	260120	040320	54.030	12.508223	-57.512663	53.960	0.490	-0.050	0.610	54.030	-1.600	1.100																			1580011400.0	6.99	12.95
26/01/2020 04:03:21	26012020	260120	040321	54.040	12.508243	-57.512637	53.940	0.650	-0.030	0.270	54.040	-1.400	0.800																			1580011401.0	6.98	12.93
26/01/2020 04:03:22	26012020	260120	040322	54.020	12.508267	-57.512612	53.880	0.630	-0.070	-0.050	54.010	-1.400	0.500																			1580011402.0	7.39	13.69
26/01/2020 04:03:23	26012020	260120	040323	53.970	12.508292	-57.512585	53.820	0.400	-0.010	-0.330	53.950	-1.400	0.200																			1580011403.0	7.67	14.20
26/01/2020 04:03:24	26012020	260120	040324	53.900	12.508315	-57.512560	53.880	0.050	0.030	-0.430	53.910	-1.400	-0.000																			1580011404.0	7.59	14.06
26/01/2020 04:03:25	26012020	260120	040325	53.960	12.508338	-57.512533	53.990	-0.290	0.010	-0.220	53.980	-1.400	0.000																			1580011405.0	7.44	13.78
26/01/2020 04:03:26	26012020	260120	040326	54.060	12.508360	-57.512505	54.080	-0.530	0.030	0.170	54.090	-1.400	0.300																			1580011406.0	7.41	13.72
26/01/2020 04:03:27	26012020	260120	040327	54.140	12.508380	-57.512477	54.110	-0.620	0.020	0.680	54.150	-1.400	0.800																			1580011407.0	7.35	13.61
26/01/2020 04:03:28	26012020	260120	040328	54.150	12.508397	-57.512447	54.020	-0.530	-0.130	1.160	54.150	-1.400	1.300																			1580011408.0	7.27	13.46
26/01/2020 04:03:29	26012020	260120	040329	54.070	12.508413	-57.512417	53.860	-0.280	-0.430	1.320	54.040	-1.700	1.700																			1580011409.0	7.33	13.58
26/01/2020 04:03:30	26012020	260120	040330	53.930	12.508432	-57.512387	53.700	0.080	-0.640	1.200	53.890	-2.000	1.700																			1580011410.0	7.52	13.93
26/01/2020 04:03:31	26012020	260120	040331	53.760	12.508453	-57.512358	53.580	0.440	-0.560	0.790	53.730	-2.000	1.400																			1580011411.0	7.63	14.13
26/01/2020 04:03:32	26012020	260120	040332	53.650	12.508477	-57.512332	53.600	0.690	-0.400	0.170	53.640	-1.900	0.900																			1580011412.0	7.52	13.93
26/01/2020 04:03:33	26012020	260120	040333	53.690	12.508500	-57.512307	53.730	0.690	-0.240	-0.470	53.710	-1.700	0.200																			1580011413.0	7.42	13.74
26/01/2020 04:03:34	26012020	260120	040334	53.830	12.508525	-57.512282	53.810	0.380	0.010	-0.810	53.850	-1.500	-0.300																			1580011414.0	7.52	13.93
26/01/2020 04:03:35	26012020	260120	040335	53.900	12.508550	-57.512255	53.740	-0.090	0.350	-0.710	53.890	-1.200	-0.400																			1580011415.0	7.49	13.87
26/01/2020 04:03:36	26012020	260120	040336	53.830	12.508572	-57.512230	53.560	-0.450	0.510	-0.260	53.790	-0.900	-0.100																			1580011416.0	7.26	13.45
26/01/2020 04:03:37	26012020	260120	040337	53.640	12.508590	-57.512202	53.460	-0.510	0.190	0.220	53.610	-1.000	0.400																			1580011417.0	7.10	13.15
26/01/2020 04:03:38	26012020	260120	040338	53.540	12.508610	-57.512173	53.600	-0.280	-0.460	0.570	53.540	-1.500	0.800																			1580011418.0	7.35	13.61
26/01/2020 04:03:39	26012020	260120	040339	53.660	12.508630	-57.512142	53.740	-0.010	-0.800	0.860	53.700	-2.100	1.100																			1580011419.0	7.84	14.52
26/01/2020 04:03:40	26012020	260120	040340	53.820	12.508650	-57.512110	53.680	0.030	-0.470	1.120	53.820	-2.100	1.400																			1580011420.0	7.99	14.80
26/01/2020 04:03:41	26012020	260120	040341	53.750	12.508668	-57.512080	53.440	-0.080	0.090	1.240	53.710	-1.500	1.600																			1580011421.0	7.44	13.78
26/01/2020 04:03:42	26012020	260120	040342	53.520	12.508687	-57.512055	53.290	-0.130	0.260	1.040	53.470	-1.100	1.600																			1580011422.0	6.82	12.63
26/01/2020 04:03:43	26012020	260120	040343	53.370	12.508707	-57.512030	53.350	0.040	-0.100	0.410	53.360	-1.300	1.100																			1580011423.0	6.88	12.74
26/01/2020 04:03:44	26012020	260120	040344	53.440	12.508732	-57.512003	53.500	0.390	-0.750	-0.290	53.480	-1.800	0.400																			1580011424.0	7.44	13.78
26/01/2020 04:03:45	26012020	260120	040345	53.620	12.508758	-57.511977	53.620	0.680	-1.060	-0.640	53.660	-2.400	-0.200																			1580011425.0	8.03	14.87
26/01/2020 04:03:46	26012020	260120	040346	53.740	12.508783	-57.511948	53.520	0.530	-0.500	-0.550	53.740	-2.300	-0.300																			1580011426.0	8.25	15.28
26/01/2020 04:03:47	26012020	260120	040347	53.640	12.508807	-57.511922	53.330	-0.050	0.550	-0.230	53.600	-1.300	-0.000																			1580011427.0	7.67	14.20
26/01/2020 04:03:48	26012020	260120	040348	53.430	12.508827	-57.511895	53.240	-0.630	1.080	0.100	53.390	-0.400	0.300																			1580011428.0	6.71	12.43
26/01/2020 04:03:49	26012020	260120	040349	53.310	12.508843	-57.511872	53.330	-0.750	0.590	0.270	53.310	-0.400	0.600																			1580011429.0	6.46	11.96
26/01/2020 04:03:50	26012020	260120	040350	53.400	12.508863	-57.511843	53.580	-0.360	-0.460	0.280	53.450	-1.400	0.600																			1580011430.0	7.20	13.33
26/01/2020 04:03:51	26012020	260120	040351	53.650	12.508885	-57.511812	53.750	0.100	-1.030	0.430	53.700	-2.300	0.700																			1580011431.0	8.16	15.11
26/01/2020 04:03:52	26012020	260120	040352	53.820	12.508908	-57.511780	53.770	0.260	-0.710	0.720	53.840	-2.300	0.900																			1580011432.0	8.32	15.41
26/01/2020 04:03:53	26012020	260120	040353	53.830	12.508928	-57.511752	53.690	0.130	-0.030	0.930	53.820	-1.700	1.200																			1580011433.0	7.49	13.87
26/01/2020 04:03:54	26012020	260120	040354	53.760	12.508945	-57.511725	53.560	-0.020	0.260	0.950	53.730	-1.200	1.300																			1580011434.0	6.68	12.37
26/01/2020 04:03:55	26012020	260120	040355	53.610	12.508963	-57.511700	53.370	-0.000	-0.040	0.740	53.580	-1.200	1.200																			1580011435.0	6.72	12.45
26/01/2020 04:03:56	26012020	260120	040356	53.430	12.508987	-57.511673	53.280	0.130	-0.480	0.330	53.400	-1.700	0.900																			1580011436.0	7.38	13.67
26/01/2020 04:03:57	26012020	260120	040357	53.360	12.509012	-57.511645	53.340	0.230	-0.550	-0.060	53.360	-2.000	0.500																			1580011437.0	7.93	14.69
26/01/2020 04:03:58	26012020	260120	040358	53.410	12.509037	-57.511618	53.430	0.160	-0.230	-0.350	53.430	-1.800	0.100																			1580011438.0	7.87	14.58
26/01/2020 04:03:59	26012020	260120	040359	53.510	12.509060	-57.511593	53.570	-0.020	0.100	-0.450	53.530	-1.400	-0.100																			1580011439.0	7.39	13.69
26/01/2020 04:04:00	26012020	260120	040400	53.640	12.509082	-57.511568	53.680	-0.130	0.140	-0.300	53.670	-1.200	-0.000	1015.00	25.70	25.70	20.70	20.70	-1.00	74.00	73.00	386.00	25.20	2.00	8.60	57.00	4.70	15	3206.00	27.50	27.40	1580011440.0	7.08	13.11
26/01/2020 04:04:01	26012020	260120	040401	53.750	12.509102	-57.511542	53.690	-0.110	-0.110	-0.020	53.760	-1.400	0.200																			1580011441.0	7.21	13.35
26/01/2020 04:04:02	26012020	260120	040402	53.750	12.509122	-57.511512	53.630	-0.060	-0.290	0.330	53.750	-1.600	0.500																			1580011442.0	7.56	14.00
26/01/2020 04:04:03	26012020	260120	040403	53.700	12.509142	-57.511482	53.630	-0.090	-0.220	0.650	53.690	-1.700	0.900																			1580011443.0	7.72	14.30
26/01/2020 04:04:04	26012020	260120	040404	53.690	12.509162	-57.511452	53.670	-0.160	0.000	0.840	53.690	-1.500	1.100																			1580011444.0	7.50	13.89
26/01/2020 04:04:05	26012020	260120	040405	53.720	12.509182	-57.511423	53.680	-0.130	0.070	0.800	53.720	-1.300	1.200																			1580011445.0	7.20	13.33
26/01/2020 04:04:06	26012020	260120	040406	53.740	12.509202	-57.511398	53.700	0.050	-0.150	0.580	53.750	-1.400	1.100																			1580011446.0	7.14	13.22
26/01/2020 04:04:07	26012020	260120	040407	53.750	12.509223	-57.511370	53.640	0.210	-0.400	0.410	53.750	-1.700	0.800																			1580011447.0	7.43	13.76
26/01/2020 04:04:08	26012020	260120	040408	53.700	12.509247	-57.511342	53.540	0.200	-0.390	0.240	53.690	-1.800	0.700																			1580011448.0	7.71	14.28
26/01/2020 04:04:09	26012020	260120	040409	53.620	12.509270	-57.511315	53.540	0.070	-0.220	-0.000	53.610	-1.700	0.500																			1580011449.0	7.58	14.04
26/01/2020 04:04:10	26012020	260120	040410	53.640	12.509292	-57.511288	53.610	0.000	-0.120	-0.200	53.650	-1.500	0.200																			1580011450.0	7.29	13.50
26/01/2020 04:04:11	26012020	260120	040411	53.700	12.509313	-57.511263	53.610	0.020	-0.170	-0.200	53.710	-1.500	0.100																			1580011451.0	7.25	13.43
26/01/2020 04:04:12	26012020	260120	040412	53.710	12.509335	-57.511235	53.590	0.030	-0.290	-0.050	53.700	-1.600	0.200																			1580011452.0	7.43	13.76
26/01/2020 04:04:13	26012020	260120	040413	53.660	12.509357	-57.511207	53.580	0.010	-0.350	0.130	53.650	-1.700	0.400																			1580011453.0	7.60	14.08
26/01/2020 04:04:14	26012020	260120	040414	53.640	12.509378	-57.511178	53.720	-0.030	-0.200	0.240	53.660	-1.700	0.600																			1580011454.0	7.64	14.15
26/01/2020 04:04:15	26012020	260120	040415	53.770	12.509400	-57.511150	53.870	-0.090	0.140	0.370	53.810	-1.400	0.700																			1580011455.0	7.53	13.95
26/01/2020 04:04:16	26012020	260120	040416	53.930	12.509420	-57.511122	53.870	-0.180	0.410	0.580	53.940	-1.100	0.800																			1580011456.0	7.29	13.50
26/01/2020 04:04:17	26012020	260120	040417	53.900	12.509440	-57.511095	53.760	-0.200	0.260	0.740	53.880	-1.000	1.000																			1580011457.0	7.08	13.11
26/01/2020 04:04:18	26012020	260120	040418	53.790	12.509458	-57.511067	53.720	-0.070	-0.300	0.700	53.780	-1.400	1.100																			1580011458.0	7.23	13.39
26/01/2020 04:04:19	26012020	260120	040419	53.750	12.509480	-57.511038	53.740	0.120	-0.740	0.490	53.750	-2.000	1.000																			1580011459.0	7.71	14.28
26/01/2020 04:04:20	26012020	260120	040420	53.780	12.509503	-57.511008	53.810	0.250	-0.740	0.200	53.790	-2.200	0.700																			1580011460.0	7.95	14.72
26/01/2020 04:04:21	26012020	260120	040421	53.860	12.509527	-57.510982	53.830	0.240	-0.380	0.020	53.870	-2.000	0.500																			1580011461.0	7.68	14.22
26/01/2020 04:04:22	26012020	260120	040422	53.890	12.509548	-57.510955	53.710	0.060	0.130	0.050	53.880	-1.500	0.400																			1580011462.0	7.31	13.54
26/01/2020 04:04:23	26012020	260120	040423	53.780	12.509570	-57.510928	53.570	-0.150	0.410	0.110	53.750	-1.100	0.500																			1580011463.0	7.05	13.06
26/01/2020 04:04:24	26012020	260120	040424	53.650	12.509590	-57.510903	53.560	-0.190	0.110	0.050	53.640	-1.100	0.500																			1580011464.0	6.98	12.93
26/01/2020 04:04:25	26012020	260120	040425	53.660	12.509612	-57.510877	53.720	-0.010	-0.540	-0.100	53.690	-1.600	0.300																			1580011465.0	7.39	13.69
26/01/2020 04:04:26	26012020	260120	040426	53.810	12.509635	-57.510847	53.890	0.180	-0.880	-0.080	53.840	-2.200	0.300																			1580011466.0	8.03	14.87
26/01/2020 04:04:27	26012020	260120	040427	53.970	12.509658	-57.510817	53.910	0.130	-0.410	0.270	53.990	-2.100	0.400																			1580011467.0	8.19	15.17
26/01/2020 04:04:28	26012020	260120	040428	54.000	12.509680	-57.510787	53.780	-0.180	0.480	0.770	53.990	-1.300	0.900																			1580011468.0	7.62	14.11
26/01/2020 04:04:29	26012020	260120	040429	53.870	12.509695	-57.510760	53.680	-0.440	0.840	0.990	53.830	-0.600	1.300																			1580011469.0	6.73	12.46
26/01/2020 04:04:30	26012020	260120	040430	53.750	12.509712	-57.510733	53.710	-0.310	0.200	0.770	53.740	-0.800	1.300																			1580011470.0	6.54	12.11
26/01/2020 04:04:31	26012020	260120	040431	53.780	12.509733	-57.510707	53.810	0.160	-0.780	0.350	53.810	-1.800	0.900																			1580011471.0	7.34	13.59
26/01/2020 04:04:32	26012020	260120	040432	53.890	12.509758	-57.510677	53.850	0.550	-1.050	-0.010	53.910	-2.400	0.500																			1580011472.0	8.32	15.41
26/01/2020 04:04:33	26012020	260120	040433	53.930	12.509785	-57.510648	53.830	0.500	-0.520	-0.170	53.930	-2.200	0.300																			1580011473.0	8.27	15.32
26/01/2020 04:04:34	26012020	260120	040434	53.900	12.509808	-57.510623	53.800	0.070	0.110	-0.180	53.890	-1.500	0.200																			1580011474.0	7.36	13.63
26/01/2020 04:04:35	26012020	260120	040435	53.870	12.509828	-57.510598	53.860	-0.340	0.260	-0.150	53.870	-1.100	0.200																			1580011475.0	6.74	12.48
26/01/2020 04:04:36	26012020	260120	040436	53.930	12.509850	-57.510573	53.990	-0.450	0.040	-0.020	53.970	-1.200	0.300																			1580011476.0	6.98	12.93
26/01/2020 04:04:37	26012020	260120	040437	54.080	12.509870	-57.510545	54.020	-0.290	-0.180	0.350	54.090	-1.500	0.500																			1580011477.0	7.52	13.93
26/01/2020 04:04:38	26012020	260120	040438	54.100	12.509890	-57.510515	53.980	-0.060	-0.340	0.730	54.090	-1.700	0.900																			1580011478.0	7.72	14.30
26/01/2020 04:04:39	26012020	260120	040439	54.040	12.509910	-57.510483	53.890	0.100	-0.380	0.980	54.020	-1.800	1.300																			1580011479.0	7.67	14.20
26/01/2020 04:04:40	26012020	260120	040440	53.940	12.509928	-57.510453	53.770	0.170	-0.250	0.900	53.920	-1.700	1.400																			1580011480.0	7.60	14.08
26/01/2020 04:04:41	26012020	260120	040441	53.840	12.509948	-57.510425	53.790	0.220	-0.080	0.500	53.830	-1.500	1.100																			1580011481.0	7.43	13.76
26/01/2020 04:04:42	26012020	260120	040442	53.850	12.509972	-57.510400	53.920	0.240	-0.010	-0.030	53.870	-1.400	0.600																			1580011482.0	7.31	13.54
26/01/2020 04:04:43	26012020	260120	040443	54.000	12.509995	-57.510373	54.020	0.160	0.030	-0.550	54.030	-1.400	0.000																			1580011483.0	7.42	13.74
26/01/2020 04:04:44	26012020	260120	040444	54.110	12.510020	-57.510348	53.920	-0.020	0.080	-0.670	54.110	-1.300	-0.300																			1580011484.0	7.49	13.87
26/01/2020 04:04:45	26012020	260120	040445	54.010	12.510043	-57.510323	53.740	-0.180	0.010	-0.370	53.980	-1.300	-0.200																			1580011485.0	7.38	13.67
26/01/2020 04:04:46	26012020	260120	040446	53.830	12.510065	-57.510297	53.710	-0.250	-0.310	-0.030	53.810	-1.500	0.200																			1580011486.0	7.30	13.52
26/01/2020 04:04:47	26012020	260120	040447	53.800	12.510085	-57.510268	53.890	-0.180	-0.700	0.160	53.820	-1.900	0.400																			1580011487.0	7.47	13.83
26/01/2020 04:04:48	26012020	260120	040448	53.960	12.510107	-57.510238	53.970	-0.010	-0.730	0.450	53.990	-2.200	0.700																			1580011488.0	7.77	14.39
26/01/2020 04:04:49	26012020	260120	040449	54.040	12.510127	-57.510208	53.910	0.090	-0.320	0.880	54.030	-1.900	1.000																			1580011489.0	7.78	14.41
26/01/2020 04:04:50	26012020	260120	040450	53.950	12.510145	-57.510178	53.830	0.020	0.190	1.210	53.940	-1.400	1.400																			1580011490.0	7.40	13.70
26/01/2020 04:04:51	26012020	260120	040451	53.880	12.510163	-57.510150	53.810	-0.100	0.360	1.210	53.870	-1.100	1.600																			1580011491.0	7.06	13.08
26/01/2020 04:04:52	26012020	260120	040452	53.870	12.510182	-57.510122	53.850	-0.070	0.110	0.780	53.870	-1.100	1.400																			1580011492.0	7.08	13.11
26/01/2020 04:04:53	26012020	260120	040453	53.920	12.510203	-57.510095	53.930	0.110	-0.240	0.210	53.940	-1.500	0.800																			1580011493.0	7.47	13.83
26/01/2020 04:04:54	26012020	260120	040454	54.030	12.510230	-57.510068	54.040	0.250	-0.410	-0.230	54.050	-1.800	0.300																			1580011494.0	7.84	14.52
26/01/2020 04:04:55	26012020	260120	040455	54.130	12.510255	-57.510042	54.130	0.210	-0.390	-0.540	54.150	-1.800	-0.100																			1580011495.0	7.77	14.39
26/01/2020 04:04:56	26012020	260120	040456	54.210	12.510278	-57.510017	54.130	0.020	-0.200	-0.600	54.220	-1.700	-0.200																			1580011496.0	7.57	14.02
26/01/2020 04:04:57	26012020	260120	040457	54.220	12.510300	-57.509990	54.070	-0.170	-0.020	-0.400	54.210	-1.500	-0.200																			1580011497.0	7.35	13.61
26/01/2020 04:04:58	26012020	260120	040458	54.160	12.510322	-57.509963	54.050	-0.230	0.020	-0.090	54.140	-1.400	0.100																			1580011498.0	7.23	13.39
26/01/2020 04:04:59	26012020	260120	040459	54.120	12.510340	-57.509935	54.110	-0.140	-0.090	0.190	54.120	-1.400	0.400																			1580011499.0	7.29	13.50
26/01/2020 04:05:00	26012020	260120	040500	54.170	12.510360	-57.509905	54.230	0.040	-0.320	0.380	54.180	-1.600	0.700	1015.00	25.70	25.70	20.80	20.80	-1.00	74.00	74.00	387.00	25.20	2.00	8.70	58.00	4.80	15	3188.00	27.40	27.40	1580011500.0	7.43	13.76
26/01/2020 04:05:01	26012020	260120	040501	54.280	12.510380	-57.509877	54.360	0.160	-0.440	0.520	54.320	-1.800	0.800																			1580011501.0	7.59	14.06
26/01/2020 04:05:02	26012020	260120	040502	54.420	12.510402	-57.509847	54.320	0.110	-0.320	0.740	54.430	-1.800	1.000																			1580011502.0	7.67	14.20
26/01/2020 04:05:03	26012020	260120	040503	54.370	12.510422	-57.509818	54.180	-0.010	-0.150	0.910	54.340	-1.600	1.200																			1580011503.0	7.50	13.89
26/01/2020 04:05:04	26012020	260120	040504	54.250	12.510442	-57.509790	54.180	-0.030	-0.120	0.810	54.230	-1.500	1.200																			1580011504.0	7.30	13.52
26/01/2020 04:05:05	26012020	260120	040505	54.240	12.510463	-57.509762	54.220	-0.040	-0.040	0.550	54.250	-1.500	1.000																			1580011505.0	7.44	13.78
26/01/2020 04:05:06	26012020	260120	040506	54.290	12.510485	-57.509735	54.200	-0.160	0.230	0.220	54.290	-1.300	0.700																			1580011506.0	7.58	14.04
26/01/2020 04:05:07	26012020	260120	040507	54.280	12.510507	-57.509708	54.160	-0.260	0.270	-0.090	54.270	-1.100	0.400																			1580011507.0	7.29	13.50
26/01/2020 04:05:08	26012020	260120	040508	54.240	12.510528	-57.509682	54.120	-0.080	-0.250	-0.350	54.230	-1.300	0.100																			1580011508.0	7.06	13.08
26/01/2020 04:05:09	26012020	260120	040509	54.230	12.510550	-57.509655	54.070	0.300	-0.850	-0.500	54.220	-2.000	-0.100																			1580011509.0	7.49	13.87
26/01/2020 04:05:10	26012020	260120	040510	54.170	12.510575	-57.509625	53.980	0.480	-0.850	-0.450	54.160	-2.300	-0.100																			1580011510.0	8.14	15.08
26/01/2020 04:05:11	26012020	260120	040511	54.090	12.510598	-57.509597	53.980	0.320	-0.270	-0.180	54.070	-2.000	0.000																			1580011511.0	7.98	14.78
26/01/2020 04:05:12	26012020	260120	040512	54.080	12.510620	-57.509570	54.130	-0.030	0.330	0.170	54.090	-1.300	0.400																			1580011512.0	7.23	13.39
26/01/2020 04:05:13	26012020	260120	040513	54.200	12.510638	-57.509543	54.200	-0.370	0.570	0.520	54.230	-0.900	0.700																			1580011513.0	6.82	12.63
26/01/2020 04:05:14	26012020	260120	040514	54.280	12.510655	-57.509517	54.150	-0.540	0.340	0.840	54.280	-0.900	1.100																			1580011514.0	6.96	12.89
26/01/2020 04:05:15	26012020	260120	040515	54.210	12.510675	-57.509487	54.090	-0.430	-0.250	1.080	54.200	-1.300	1.400																			1580011515.0	7.31	13.54
26/01/2020 04:05:16	26012020	260120	040516	54.150	12.510693	-57.509457	54.130	-0.050	-0.840	1.120	54.150	-2.000	1.500																			1580011516.0	7.70	14.26
26/01/2020 04:05:17	26012020	260120	040517	54.190	12.510715	-57.509427	54.100	0.370	-0.950	1.040	54.200	-2.400	1.400																			1580011517.0	7.97	14.76
26/01/2020 04:05:18	26012020	260120	040518	54.170	12.510738	-57.509397	53.980	0.520	-0.430	0.940	54.140	-2.100	1.400																			1580011518.0	7.89	14.61
26/01/2020 04:05:19	26012020	260120	040519	54.050	12.510758	-57.509368	53.960	0.320	0.260	0.610	54.030	-1.400	1.200																			1580011519.0	7.37	13.65
26/01/2020 04:05:20	26012020	260120	040520	54.030	12.510780	-57.509343	54.050	0.010	0.540	0.050	54.040	-0.900	0.700																			1580011520.0	6.86	12.70
26/01/2020 04:05:21	26012020	260120	040521	54.140	12.510802	-57.509320	54.160	-0.120	0.230	-0.540	54.170	-1.000	0.100																			1580011521.0	6.93	12.83
26/01/2020 04:05:22	26012020	260120	040522	54.270	12.510827	-57.509295	54.190	-0.010	-0.340	-0.870	54.280	-1.500	-0.400																			1580011522.0	7.46	13.82
26/01/2020 04:05:23	26012020	260120	040523	54.290	12.510852	-57.509268	54.110	0.090	-0.650	-0.770	54.280	-2.000	-0.500																			1580011523.0	7.93	14.69
26/01/2020 04:05:24	26012020	260120	040524	54.200	12.510875	-57.509238	53.990	-0.040	-0.440	-0.310	54.170	-2.000	-0.200																			1580011524.0	7.95	14.72
26/01/2020 04:05:25	26012020	260120	040525	54.060	12.510895	-57.509210	53.980	-0.280	-0.050	0.210	54.040	-1.600	0.300																			1580011525.0	7.49	13.87
26/01/2020 04:05:26	26012020	260120	040526	54.030	12.510913	-57.509182	54.150	-0.330	-0.010	0.570	54.050	-1.400	0.800																			1580011526.0	7.00	12.96
26/01/2020 04:05:27	26012020	260120	040527	54.190	12.510930	-57.509153	54.310	-0.140	-0.220	0.800	54.230	-1.500	1.100																			1580011527.0	7.10	13.15
26/01/2020 04:05:28	26012020	260120	040528	54.360	12.510950	-57.509123	54.300	0.090	-0.260	1.020	54.370	-1.700	1.300																			1580011528.0	7.61	14.09
26/01/2020 04:05:29	26012020	260120	040529	54.350	12.510970	-57.509093	54.180	0.160	-0.090	1.120	54.330	-1.600	1.500																			1580011529.0	7.69	14.24
26/01/2020 04:05:30	26012020	260120	040530	54.230	12.510990	-57.509065	54.110	0.090	-0.000	0.910	54.210	-1.400	1.400																			1580011530.0	7.37	13.65
26/01/2020 04:05:31	26012020	260120	040531	54.160	12.511010	-57.509038	54.090	0.060	-0.110	0.450	54.150	-1.400	1.100																			1580011531.0	7.23	13.39
26/01/2020 04:05:32	26012020	260120	040532	54.160	12.511033	-57.509012	54.130	0.120	-0.250	-0.050	54.160	-1.600	0.500																			1580011532.0	7.42	13.74
26/01/2020 04:05:33	26012020	260120	040533	54.210	12.511057	-57.508985	54.150	0.210	-0.320	-0.340	54.220	-1.700	0.100																			1580011533.0	7.59	14.06
26/01/2020 04:05:34	26012020	260120	040534	54.240	12.511082	-57.508958	54.090	0.230	-0.350	-0.390	54.230	-1.700	-0.000																			1580011534.0	7.57	14.02
26/01/2020 04:05:35	26012020	260120	040535	54.180	12.511103	-57.508932	54.070	0.160	-0.320	-0.350	54.170	-1.700	-0.000																			1580011535.0	7.53	13.95
26/01/2020 04:05:36	26012020	260120	040536	54.150	12.511125	-57.508903	54.080	-0.030	-0.150	-0.170	54.150	-1.700	0.100																			1580011536.0	7.52	13.93
26/01/2020 04:05:37	26012020	260120	040537	54.150	12.511147	-57.508875	54.020	-0.290	0.160	0.100	54.140	-1.400	0.300																			1580011537.0	7.45	13.80
26/01/2020 04:05:38	26012020	260120	040538	54.080	12.511165	-57.508848	54.000	-0.500	0.340	0.330	54.070	-1.100	0.600																			1580011538.0	7.23	13.39
26/01/2020 04:05:39	26012020	260120	040539	54.060	12.511183	-57.508820	54.080	-0.450	0.090	0.490	54.070	-1.100	0.800																			1580011539.0	7.08	13.11
26/01/2020 04:05:40	26012020	260120	040540	54.140	12.511203	-57.508792	54.160	-0.120	-0.450	0.570	54.160	-1.600	0.900																			1580011540.0	7.30	13.52
26/01/2020 04:05:41	26012020	260120	040541	54.230	12.511223	-57.508762	54.170	0.310	-0.800	0.570	54.240	-2.100	0.900																			1580011541.0	7.75	14.35
26/01/2020 04:05:42	26012020	260120	040542	54.250	12.511247	-57.508732	54.090	0.530	-0.610	0.660	54.230	-2.200	1.000																			1580011542.0	7.94	14.70
26/01/2020 04:05:43	26012020	260120	040543	54.150	12.511268	-57.508703	53.970	0.380	-0.040	0.760	54.120	-1.700	1.100																			1580011543.0	7.64	14.15
26/01/2020 04:05:44	26012020	260120	040544	54.030	12.511288	-57.508677	53.920	0.020	0.370	0.580	54.010	-1.200	1.100																			1580011544.0	7.09	13.13
26/01/2020 04:05:45	26012020	260120	040545	53.980	12.511310	-57.508652	53.980	-0.210	0.210	0.230	53.990	-1.100	0.800																			1580011545.0	6.85	12.69
26/01/2020 04:05:46	26012020	260120	040546	54.040	12.511332	-57.508627	54.060	-0.210	-0.280	-0.020	54.060	-1.500	0.400																			1580011546.0	7.25	13.43
26/01/2020 04:05:47	26012020	260120	040547	54.120	12.511355	-57.508598	54.080	-0.130	-0.570	-0.110	54.140	-1.900	0.300																			1580011547.0	7.82	14.48
26/01/2020 04:05:48	26012020	260120	040548	54.160	12.511378	-57.508568	53.980	-0.090	-0.460	0.030	54.150	-2.000	0.300																			1580011548.0	7.91	14.65
26/01/2020 04:05:49	26012020	260120	040549	54.060	12.511398	-57.508540	53.830	-0.050	-0.210	0.280	54.030	-1.700	0.500																			1580011549.0	7.56	14.00
26/01/2020 04:05:50	26012020	260120	040550	53.920	12.511417	-57.508512	53.810	0.010	-0.040	0.330	53.890	-1.500	0.700																			1580011550.0	7.26	13.45
26/01/2020 04:05:51	26012020	260120	040551	53.870	12.511437	-57.508483	53.850	0.070	0.060	0.160	53.880	-1.400	0.600																			1580011551.0	7.29	13.50
26/01/2020 04:05:52	26012020	260120	040552	53.920	12.511458	-57.508455	53.890	0.080	0.140	-0.030	53.930	-1.300	0.400																			1580011552.0	7.39	13.69
26/01/2020 04:05:53	26012020	260120	040553	53.980	12.511482	-57.508430	53.960	0.060	0.080	-0.200	53.990	-1.300	0.300																			1580011553.0	7.38	13.67
26/01/2020 04:05:54	26012020	260120	040554	54.050	12.511503	-57.508403	54.040	0.060	-0.190	-0.270	54.080	-1.400	0.100																			1580011554.0	7.36	13.63
26/01/2020 04:05:55	26012020	260120	040555	54.120	12.511527	-57.508377	54.020	0.110	-0.560	-0.050	54.120	-1.800	0.200																			1580011555.0	7.50	13.89
26/01/2020 04:05:56	26012020	260120	040556	54.090	12.511548	-57.508348	53.810	0.070	-0.680	0.390	54.050	-2.100	0.500																			1580011556.0	7.72	14.30
26/01/2020 04:05:57	26012020	260120	040557	53.860	12.511568	-57.508317	53.650	-0.130	-0.400	0.780	53.820	-2.000	1.000																			1580011557.0	7.76	14.37
26/01/2020 04:05:58	26012020	260120	040558	53.700	12.511588	-57.508288	53.730	-0.340	0.000	0.900	53.700	-1.600	1.200																			1580011558.0	7.43	13.76
26/01/2020 04:05:59	26012020	260120	040559	53.790	12.511607	-57.508260	53.890	-0.340	0.250	0.870	53.830	-1.200	1.300																			1580011559.0	7.11	13.17
26/01/2020 04:06:00	26012020	260120	040600	53.960	12.511627	-57.508233	53.920	-0.160	0.270	0.770	53.980	-1.100	1.200	1015.00	25.70	25.70	20.60	20.70	-1.00	73.00	73.00	386.00	25.20	3.00	9.00	59.00	5.20	15	3211.00	27.50	27.40	1580011560.0	7.13	13.20
26/01/2020 04:06:01	26012020	260120	040601	53.980	12.511647	-57.508205	53.790	0.030	0.120	0.620	53.960	-1.200	1.100																			1580011561.0	7.34	13.59
26/01/2020 04:06:02	26012020	260120	040602	53.870	12.511668	-57.508178	53.670	0.150	-0.220	0.360	53.840	-1.400	0.900																			1580011562.0	7.47	13.83
26/01/2020 04:06:03	26012020	260120	040603	53.750	12.511692	-57.508150	53.560	0.240	-0.640	-0.020	53.730	-1.900	0.500																			1580011563.0	7.55	13.98
26/01/2020 04:06:04	26012020	260120	040604	53.660	12.511715	-57.508123	53.490	0.350	-0.860	-0.400	53.640	-2.200	0.200																			1580011564.0	7.76	14.37
26/01/2020 04:06:05	26012020	260120	040605	53.590	12.511740	-57.508095	53.520	0.380	-0.700	-0.620	53.590	-2.200	-0.200																			1580011565.0	7.88	14.59
26/01/2020 04:06:06	26012020	260120	040606	53.610	12.511765	-57.508070	53.600	0.190	-0.090	-0.470	53.630	-1.800	-0.200																			1580011566.0	7.70	14.26
26/01/2020 04:06:07	26012020	260120	040607	53.710	12.511787	-57.508043	53.650	-0.240	0.650	0.020	53.720	-1.100	0.200																			1580011567.0	7.29	13.50
26/01/2020 04:06:08	26012020	260120	040608	53.740	12.511805	-57.508017	53.650	-0.610	0.860	0.470	53.730	-0.500	0.700																			1580011568.0	6.82	12.63
26/01/2020 04:06:09	26012020	260120	040609	53.730	12.511822	-57.507990	53.760	-0.540	0.090	0.710	53.740	-0.900	1.000																			1580011569.0	6.78	12.56
26/01/2020 04:06:10	26012020	260120	040610	53.830	12.511842	-57.507960	53.860	-0.080	-1.010	0.890	53.870	-1.900	1.200																			1580011570.0	7.53	13.95
26/01/2020 04:06:11	26012020	260120	040611	53.940	12.511863	-57.507927	53.740	0.310	-1.230	1.040	53.930	-2.700	1.400																			1580011571.0	8.47	15.69
26/01/2020 04:06:12	26012020	260120	040612	53.810	12.511887	-57.507893	53.460	0.240	-0.230	1.000	53.750	-2.200	1.400																			1580011572.0	8.39	15.54
26/01/2020 04:06:13	26012020	260120	040613	53.520	12.511905	-57.507867	53.270	-0.170	0.880	0.730	53.470	-1.000	1.300																			1580011573.0	7.10	13.15
26/01/2020 04:06:14	26012020	260120	040614	53.330	12.511925	-57.507845	53.290	-0.360	0.790	0.160	53.330	-0.400	0.900																			1580011574.0	6.02	11.15
26/01/2020 04:06:15	26012020	260120	040615	53.380	12.511947	-57.507823	53.450	-0.030	-0.390	-0.560	53.420	-1.200	0.200																			1580011575.0	6.54	12.11
26/01/2020 04:06:16	26012020	260120	040616	53.560	12.511973	-57.507798	53.500	0.430	-1.220	-0.890	53.590	-2.400	-0.400																			1580011576.0	8.06	14.93
26/01/2020 04:06:17	26012020	260120	040617	53.610	12.512002	-57.507768	53.370	0.440	-0.870	-0.620	53.590	-2.600	-0.400																			1580011577.0	8.72	16.15
26/01/2020 04:06:18	26012020	260120	040618	53.470	12.512025	-57.507740	53.310	0.010	-0.020	-0.150	53.430	-1.800	0.000																			1580011578.0	7.74	14.33
26/01/2020 04:06:19	26012020	260120	040619	53.390	12.512042	-57.507715	53.480	-0.350	0.320	0.160	53.400	-1.200	0.400																			1580011579.0	6.59	12.20
26/01/2020 04:06:20	26012020	260120	040620	53.540	12.512060	-57.507688	53.560	-0.290	0.110	0.580	53.570	-1.200	0.700																			1580011580.0	6.59	12.20
26/01/2020 04:06:21	26012020	260120	040621	53.620	12.512078	-57.507660	53.560	-0.040	-0.090	0.980	53.610	-1.400	1.200																			1580011581.0	7.37	13.65
26/01/2020 04:06:22	26012020	260120	040622	53.610	12.512098	-57.507630	53.700	0.110	-0.090	1.120	53.620	-1.500	1.500																			1580011582.0	7.71	14.28
26/01/2020 04:06:23	26012020	260120	040623	53.750	12.512118	-57.507602	53.910	0.100	-0.080	1.020	53.790	-1.500	1.500																			1580011583.0	7.45	13.80
26/01/2020 04:06:24	26012020	260120	040624	53.950	12.512140	-57.507575	54.000	0.080	-0.170	0.730	53.980	-1.500	1.300																			1580011584.0	7.20	13.33
26/01/2020 04:06:25	26012020	260120	040625	54.050	12.512162	-57.507548	53.960	0.120	-0.300	0.360	54.060	-1.700	0.900																			1580011585.0	7.25	13.43
26/01/2020 04:06:26	26012020	260120	040626	54.030	12.512185	-57.507522	53.890	0.140	-0.310	0.010	54.010	-1.700	0.500																			1580011586.0	7.43	13.76
26/01/2020 04:06:27	26012020	260120	040627	53.970	12.512208	-57.507497	53.900	0.050	-0.210	-0.240	53.970	-1.700	0.300																			1580011587.0	7.44	13.78
26/01/2020 04:06:28	26012020	260120	040628	53.980	12.512232	-57.507472	53.970	-0.120	-0.140	-0.430	53.990	-1.600	0.000																			1580011588.0	7.28	13.48
26/01/2020 04:06:29	26012020	260120	040629	54.060	12.512253	-57.507445	54.150	-0.260	-0.180	-0.540	54.080	-1.600	-0.100																			1580011589.0	7.22	13.37
26/01/2020 04:06:30	26012020	260120	040630	54.230	12.512275	-57.507418	54.360	-0.270	-0.230	-0.490	54.280	-1.600	-0.200																			1580011590.0	7.31	13.54
26/01/2020 04:06:31	26012020	260120	040631	54.450	12.512297	-57.507390	54.470	-0.180	-0.150	-0.210	54.490	-1.600	0.000																			1580011591.0	7.42	13.74
26/01/2020 04:06:32	26012020	260120	040632	54.550	12.512315	-57.507362	54.380	-0.010	-0.030	0.150	54.540	-1.500	0.400																			1580011592.0	7.36	13.63
26/01/2020 04:06:33	26012020	260120	040633	54.470	12.512333	-57.507333	54.320	0.230	-0.140	0.360	54.440	-1.500	0.700																			1580011593.0	7.18	13.30
26/01/2020 04:06:34	26012020	260120	040634	54.400	12.512353	-57.507307	54.430	0.460	-0.420	0.300	54.400	-1.700	0.700																			1580011594.0	7.26	13.45
26/01/2020 04:06:35	26012020	260120	040635	54.520	12.512377	-57.507278	54.580	0.450	-0.410	0.190	54.550	-1.900	0.600																			1580011595.0	7.63	14.13
26/01/2020 04:06:36	26012020	260120	040636	54.670	12.512400	-57.507250	54.610	0.090	0.100	0.240	54.680	-1.600	0.600																			1580011596.0	7.70	14.26
26/01/2020 04:06:37	26012020	260120	040637	54.700	12.512420	-57.507223	54.590	-0.390	0.540	0.430	54.700	-1.000	0.700																			1580011597.0	7.14	13.22
26/01/2020 04:06:38	26012020	260120	040638	54.670	12.512440	-57.507198	54.580	-0.590	0.260	0.540	54.660	-0.900	0.900																			1580011598.0	6.63	12.28
26/01/2020 04:06:39	26012020	260120	040639	54.650	12.512458	-57.507173	54.660	-0.280	-0.630	0.420	54.660	-1.600	0.900																			1580011599.0	6.93	12.83
26/01/2020 04:06:40	26012020	260120	040640	54.710	12.512480	-57.507143	54.710	0.230	-1.140	0.290	54.720	-2.400	0.700																			1580011600.0	7.84	14.52
26/01/2020 04:06:41	26012020	260120	040641	54.750	12.512503	-57.507112	54.650	0.390	-0.610	0.180	54.740	-2.400	0.600																			1580011601.0	8.28	15.33
26/01/2020 04:06:42	26012020	260120	040642	54.690	12.512525	-57.507083	54.550	0.100	0.310	0.070	54.670	-1.500	0.500																			1580011602.0	7.50	13.89
26/01/2020 04:06:43	26012020	260120	040643	54.610	12.512543	-57.507060	54.500	-0.210	0.620	-0.060	54.600	-0.800	0.400																			1580011603.0	6.47	11.98
26/01/2020 04:06:44	26012020	260120	040644	54.570	12.512562	-57.507035	54.490	-0.190	0.180	-0.280	54.570	-1.000	0.200																			1580011604.0	6.50	12.04
26/01/2020 04:06:45	26012020	260120	040645	54.570	12.512585	-57.507008	54.470	0.030	-0.380	-0.460	54.570	-1.600	-0.000																			1580011605.0	7.35	13.61
26/01/2020 04:06:46	26012020	260120	040646	54.560	12.512608	-57.506980	54.520	0.210	-0.630	-0.420	54.560	-2.000	-0.100																			1580011606.0	7.89	14.61
26/01/2020 04:06:47	26012020	260120	040647	54.590	12.512632	-57.506952	54.630	0.280	-0.590	-0.180	54.610	-2.000	0.100																			1580011607.0	7.72	14.30
26/01/2020 04:06:48	26012020	260120	040648	54.680	12.512652	-57.506925	54.590	0.240	-0.330	0.170	54.680	-1.900	0.400																			1580011608.0	7.37	13.65
26/01/2020 04:06:49	26012020	260120	040649	54.640	12.512670	-57.506897	54.460	0.070	0.070	0.440	54.620	-1.500	0.700																			1580011609.0	7.20	13.33
26/01/2020 04:06:50	26012020	260120	040650	54.500	12.512688	-57.506868	54.360	-0.180	0.430	0.620	54.480	-1.100	0.900																			1580011610.0	7.06	13.08
26/01/2020 04:06:51	26012020	260120	040651	54.400	12.512708	-57.506843	54.400	-0.360	0.430	0.670	54.400	-0.900	1.000																			1580011611.0	6.90	12.78
26/01/2020 04:06:52	26012020	260120	040652	54.430	12.512728	-57.506817	54.480	-0.320	-0.040	0.630	54.450	-1.200	1.000																			1580011612.0	6.99	12.95
26/01/2020 04:06:53	26012020	260120	040653	54.510	12.512748	-57.506788	54.550	-0.050	-0.700	0.560	54.530	-1.800	1.000																			1580011613.0	7.34	13.59
26/01/2020 04:06:54	26012020	260120	040654	54.590	12.512772	-57.506760	54.550	0.210	-1.000	0.560	54.590	-2.300	0.900																			1580011614.0	7.80	14.45
26/01/2020 04:06:55	26012020	260120	040655	54.580	12.512793	-57.506730	54.480	0.260	-0.630	0.620	54.570	-2.300	0.900																			1580011615.0	7.86	14.56
26/01/2020 04:06:56	26012020	260120	040656	54.510	12.512813	-57.506702	54.420	0.120	0.060	0.640	54.500	-1.700	1.000																			1580011616.0	7.37	13.65
26/01/2020 04:06:57	26012020	260120	040657	54.450	12.512832	-57.506675	54.410	-0.030	0.430	0.370	54.440	-1.100	0.900																			1580011617.0	6.76	12.52
26/01/2020 04:06:58	26012020	260120	040658	54.430	12.512852	-57.506650	54.420	-0.090	0.320	-0.090	54.440	-1.000	0.500																			1580011618.0	6.75	12.50
26/01/2020 04:06:59	26012020	260120	040659	54.470	12.512873	-57.506625	54.410	-0.030	-0.080	-0.540	54.480	-1.300	0.000																			1580011619.0	7.23	13.39
26/01/2020 04:07:00	26012020	260120	040700	54.490	12.512898	-57.506598	54.430	0.120	-0.440	-0.780	54.500	-1.700	-0.300	1015.00	25.70	25.80	20.70	20.70	-1.00	74.00	73.00	386.00	25.20	6.00	9.30	64.00	5.50	15	3271.00	27.50	27.40	1580011620.0	7.62	14.11
26/01/2020 04:07:01	26012020	260120	040701	54.530	12.512922	-57.506572	54.430	0.220	-0.510	-0.680	54.530	-1.900	-0.400																			1580011621.0	7.73	14.32
26/01/2020 04:07:02	26012020	260120	040702	54.530	12.512943	-57.506543	54.410	0.140	-0.300	-0.310	54.530	-1.800	-0.100																			1580011622.0	7.58	14.04
26/01/2020 04:07:03	26012020	260120	040703	54.520	12.512963	-57.506517	54.470	-0.060	-0.060	0.140	54.530	-1.600	0.300																			1580011623.0	7.22	13.37
26/01/2020 04:07:04	26012020	260120	040704	54.560	12.512982	-57.506488	54.550	-0.210	0.040	0.530	54.570	-1.400	0.700																			1580011624.0	7.03	13.02
26/01/2020 04:07:05	26012020	260120	040705	54.610	12.512998	-57.506460	54.590	-0.200	-0.030	0.820	54.610	-1.400	1.100																			1580011625.0	7.09	13.13
26/01/2020 04:07:06	26012020	260120	040706	54.640	12.513018	-57.506432	54.580	-0.090	-0.180	1.040	54.640	-1.500	1.300																			1580011626.0	7.27	13.46
26/01/2020 04:07:07	26012020	260120	040707	54.620	12.513037	-57.506402	54.450	0.030	-0.290	1.100	54.600	-1.600	1.500																			1580011627.0	7.42	13.74
26/01/2020 04:07:08	26012020	260120	040708	54.480	12.513058	-57.506373	54.320	0.130	-0.310	0.930	54.450	-1.700	1.400																			1580011628.0	7.46	13.82
26/01/2020 04:07:09	26012020	260120	040709	54.370	12.513080	-57.506347	54.360	0.160	-0.210	0.610	54.360	-1.700	1.100																			1580011629.0	7.41	13.72
26/01/2020 04:07:10	26012020	260120	040710	54.410	12.513102	-57.506320	54.440	0.050	-0.030	0.290	54.430	-1.500	0.800																			1580011630.0	7.33	13.58
26/01/2020 04:07:11	26012020	260120	040711	54.500	12.513123	-57.506295	54.460	-0.120	0.030	-0.070	54.510	-1.400	0.500																			1580011631.0	7.18	13.30
26/01/2020 04:07:12	26012020	260120	040712	54.540	12.513145	-57.506268	54.440	-0.120	-0.260	-0.330	54.540	-1.500	0.200																			1580011632.0	7.11	13.17
26/01/2020 04:07:13	26012020	260120	040713	54.540	12.513167	-57.506242	54.480	0.110	-0.660	-0.500	54.540	-1.900	-0.100																			1580011633.0	7.39	13.69
26/01/2020 04:07:14	26012020	260120	040714	54.570	12.513190	-57.506213	54.490	0.320	-0.560	-0.500	54.570	-2.100	-0.200																			1580011634.0	7.79	14.43
26/01/2020 04:07:15	26012020	260120	040715	54.580	12.513212	-57.506183	54.390	0.190	0.110	-0.230	54.570	-1.600	-0.000																			1580011635.0	7.77	14.39
26/01/2020 04:07:16	26012020	260120	040716	54.470	12.513230	-57.506157	54.270	-0.160	0.600	0.060	54.440	-1.000	0.300																			1580011636.0	7.04	13.04
26/01/2020 04:07:17	26012020	260120	040717	54.350	12.513248	-57.506132	54.230	-0.310	0.300	0.180	54.340	-0.900	0.500																			1580011637.0	6.57	12.17
26/01/2020 04:07:18	26012020	260120	040718	54.310	12.513268	-57.506105	54.220	-0.120	-0.370	0.250	54.310	-1.500	0.600																			1580011638.0	7.05	13.06
26/01/2020 04:07:19	26012020	260120	040719	54.290	12.513290	-57.506075	54.260	0.130	-0.680	0.370	54.290	-2.000	0.700																			1580011639.0	7.86	14.56
26/01/2020 04:07:20	26012020	260120	040720	54.320	12.513313	-57.506047	54.390	0.170	-0.500	0.540	54.330	-2.000	0.800																			1580011640.0	7.91	14.65
26/01/2020 04:07:21	26012020	260120	040721	54.440	12.513333	-57.506018	54.620	-0.020	-0.090	0.680	54.480	-1.700	1.000																			1580011641.0	7.37	13.65
26/01/2020 04:07:22	26012020	260120	040722	54.650	12.513352	-57.505992	54.620	-0.270	0.270	0.860	54.680	-1.300	1.100																			1580011642.0	6.95	12.87
26/01/2020 04:07:23	26012020	260120	040723	54.670	12.513370	-57.505965	54.340	-0.360	0.280	1.060	54.640	-1.100	1.400																			1580011643.0	6.81	12.61
26/01/2020 04:07:24	26012020	260120	040724	54.400	12.513388	-57.505937	54.090	-0.140	-0.250	1.010	54.330	-1.400	1.500																			1580011644.0	6.94	12.85
26/01/2020 04:07:25	26012020	260120	040725	54.120	12.513408	-57.505908	54.060	0.310	-0.920	0.560	54.100	-2.000	1.200																			1580011645.0	7.44	13.78
26/01/2020 04:07:26	26012020	260120	040726	54.110	12.513432	-57.505880	54.210	0.670	-1.080	-0.030	54.130	-2.500	0.600																			1580011646.0	8.01	14.83
26/01/2020 04:07:27	26012020	260120	040727	54.270	12.513457	-57.505852	54.310	0.660	-0.500	-0.470	54.310	-2.300	0.100																			1580011647.0	8.03	14.87
26/01/2020 04:07:28	26012020	260120	040728	54.390	12.513482	-57.505827	54.240	0.260	0.440	-0.590	54.390	-1.400	-0.200																			1580011648.0	7.44	13.78
26/01/2020 04:07:29	26012020	260120	040729	54.310	12.513502	-57.505802	54.110	-0.260	0.970	-0.460	54.280	-0.600	-0.200																			1580011649.0	6.72	12.45
26/01/2020 04:07:30	26012020	260120	040730	54.180	12.513522	-57.505778	54.090	-0.600	0.700	-0.310	54.170	-0.500	0.000																			1580011650.0	6.54	12.11
26/01/2020 04:07:31	26012020	260120	040731	54.180	12.513542	-57.505752	54.190	-0.630	0.020	-0.150	54.200	-1.000	0.100																			1580011651.0	7.08	13.11
26/01/2020 04:07:32	26012020	260120	040732	54.270	12.513563	-57.505723	54.230	-0.420	-0.580	0.190	54.290	-1.700	0.400																			1580011652.0	7.68	14.22
26/01/2020 04:07:33	26012020	260120	040733	54.310	12.513583	-57.505692	54.200	-0.120	-0.910	0.690	54.300	-2.200	0.800																			1580011653.0	7.77	14.39
26/01/2020 04:07:34	26012020	260120	040734	54.270	12.513602	-57.505662	54.180	0.120	-0.940	1.040	54.260	-2.400	1.300																			1580011654.0	7.60	14.08
26/01/2020 04:07:35	26012020	260120	040735	54.250	12.513620	-57.505632	54.110	0.210	-0.580	1.260	54.240	-2.200	1.500																			1580011655.0	7.46	13.82
26/01/2020 04:07:36	26012020	260120	040736	54.150	12.513638	-57.505603	53.910	0.180	-0.010	1.290	54.110	-1.700	1.700																			1580011656.0	7.24	13.41
26/01/2020 04:07:37	26012020	260120	040737	53.940	12.513658	-57.505577	53.770	0.180	0.230	0.960	53.910	-1.200	1.500																			1580011657.0	6.91	12.80
26/01/2020 04:07:38	26012020	260120	040738	53.810	12.513678	-57.505552	53.760	0.280	0.070	0.320	53.810	-1.200	1.000																			1580011658.0	6.97	12.91
26/01/2020 04:07:39	26012020	260120	040739	53.830	12.513702	-57.505525	53.800	0.280	0.010	-0.310	53.840	-1.400	0.300																			1580011659.0	7.54	13.96
26/01/2020 04:07:40	26012020	260120	040740	53.880	12.513728	-57.505500	53.800	0.110	0.130	-0.800	53.890	-1.300	-0.200																			1580011660.0	7.73	14.32
26/01/2020 04:07:41	26012020	260120	040741	53.880	12.513752	-57.505475	53.820	-0.070	0.060	-1.090	53.880	-1.300	-0.600																			1580011661.0	7.35	13.61
26/01/2020 04:07:42	26012020	260120	040742	53.920	12.513775	-57.505450	53.960	-0.100	-0.280	-1.040	53.940	-1.500	-0.700																			1580011662.0	7.17	13.28
26/01/2020 04:07:43	26012020	260120	040743	54.050	12.513797	-57.505423	54.010	-0.060	-0.540	-0.510	54.070	-1.900	-0.400																			1580011663.0	7.44	13.78
26/01/2020 04:07:44	26012020	260120	040744	54.090	12.513818	-57.505393	53.790	-0.100	-0.450	0.360	54.070	-1.900	0.300																			1580011664.0	7.63	14.13
26/01/2020 04:07:45	26012020	260120	040745	53.860	12.513835	-57.505363	53.470	-0.250	-0.190	1.200	53.790	-1.700	1.200																			1580011665.0	7.45	13.80
26/01/2020 04:07:46	26012020	260120	040746	53.530	12.513852	-57.505333	53.360	-0.320	-0.080	1.670	53.480	-1.500	1.900																			1580011666.0	7.14	13.22
26/01/2020 04:07:47	26012020	260120	040747	53.380	12.513868	-57.505305	53.500	-0.170	-0.200	1.600	53.390	-1.500	2.100																			1580011667.0	7.11	13.17
26/01/2020 04:07:48	26012020	260120	040748	53.510	12.513888	-57.505277	53.770	0.060	-0.270	1.190	53.570	-1.700	1.800																			1580011668.0	7.38	13.67
26/01/2020 04:07:49	26012020	260120	040749	53.790	12.513912	-57.505248	53.850	0.170	-0.080	0.780	53.830	-1.600	1.300																			1580011669.0	7.56	14.00
26/01/2020 04:07:50	26012020	260120	040750	53.890	12.513933	-57.505222	53.700	0.120	0.130	0.370	53.880	-1.300	0.900																			1580011670.0	7.37	13.65
26/01/2020 04:07:51	26012020	260120	040751	53.760	12.513955	-57.505197	53.450	0.130	0.010	-0.070	53.720	-1.300	0.500																			1580011671.0	7.07	13.09
26/01/2020 04:07:52	26012020	260120	040752	53.540	12.513978	-57.505172	53.290	0.260	-0.370	-0.500	53.500	-1.600	0.100																			1580011672.0	7.25	13.43
26/01/2020 04:07:53	26012020	260120	040753	53.380	12.514003	-57.505147	53.270	0.340	-0.570	-0.850	53.370	-1.900	-0.300																			1580011673.0	7.70	14.26
26/01/2020 04:07:54	26012020	260120	040754	53.370	12.514028	-57.505120	53.320	0.190	-0.320	-0.850	53.380	-1.900	-0.500																			1580011674.0	7.86	14.56
26/01/2020 04:07:55	26012020	260120	040755	53.420	12.514052	-57.505093	53.400	-0.140	0.140	-0.570	53.430	-1.500	-0.300																			1580011675.0	7.43	13.76
26/01/2020 04:07:56	26012020	260120	040756	53.490	12.514072	-57.505068	53.550	-0.430	0.330	-0.160	53.510	-1.100	0.000																			1580011676.0	6.92	12.82
26/01/2020 04:07:57	26012020	260120	040757	53.640	12.514090	-57.505042	53.690	-0.410	-0.020	0.380	53.670	-1.200	0.500																			1580011677.0	6.84	12.67
26/01/2020 04:07:58	26012020	260120	040758	53.770	12.514108	-57.505012	53.690	-0.090	-0.510	1.000	53.780	-1.700	1.100																			1580011678.0	7.31	13.54
26/01/2020 04:07:59	26012020	260120	040759	53.760	12.514128	-57.504982	53.490	0.210	-0.610	1.590	53.720	-2.000	1.700																			1580011679.0	7.85	14.54
26/01/2020 04:08:00	26012020	260120	040800	53.540	12.514147	-57.504950	53.270	0.270	-0.340	1.900	53.490	-1.900	2.200	1015.00	25.70	25.80	20.50	20.60	-1.00	73.00	73.00	386.00	25.20	7.00	8.90	66.00	5.20	14	3269.00	27.50	27.50	1580011680.0	7.77	14.39
26/01/2020 04:08:01	26012020	260120	040801	53.320	12.514167	-57.504922	53.300	0.100	-0.050	1.650	53.310	-1.600	2.200																			1580011681.0	7.29	13.50
26/01/2020 04:08:02	26012020	260120	040802	53.350	12.514185	-57.504895	53.520	-0.080	0.100	0.850	53.380	-1.400	1.600																			1580011682.0	7.04	13.04
26/01/2020 04:08:03	26012020	260120	040803	53.580	12.514208	-57.504870	53.700	-0.130	0.060	-0.080	53.620	-1.300	0.700																			1580011683.0	7.11	13.17
26/01/2020 04:08:04	26012020	260120	040804	53.780	12.514233	-57.504847	53.760	-0.040	-0.080	-0.790	53.810	-1.400	-0.100																			1580011684.0	7.37	13.65
26/01/2020 04:08:05	26012020	260120	040805	53.860	12.514258	-57.504822	53.650	0.080	-0.200	-1.030	53.860	-1.600	-0.600																			1580011685.0	7.53	13.95
26/01/2020 04:08:06	26012020	260120	040806	53.770	12.514283	-57.504795	53.550	0.150	-0.330	-0.920	53.740	-1.700	-0.600																			1580011686.0	7.50	13.89
26/01/2020 04:08:07	26012020	260120	040807	53.650	12.514305	-57.504768	53.550	0.180	-0.420	-0.730	53.640	-1.800	-0.500																			1580011687.0	7.45	13.80
26/01/2020 04:08:08	26012020	260120	040808	53.640	12.514327	-57.504742	53.590	0.120	-0.330	-0.400	53.650	-1.800	-0.200																			1580011688.0	7.49	13.87
26/01/2020 04:08:09	26012020	260120	040809	53.670	12.514348	-57.504713	53.720	-0.040	-0.080	0.080	53.690	-1.600	0.200																			1580011689.0	7.43	13.76
26/01/2020 04:08:10	26012020	260120	040810	53.790	12.514367	-57.504685	53.920	-0.240	0.070	0.600	53.830	-1.400	0.700																			1580011690.0	7.19	13.32
26/01/2020 04:08:11	26012020	260120	040811	53.970	12.514385	-57.504657	54.030	-0.360	0.030	1.060	54.000	-1.300	1.200																			1580011691.0	7.12	13.19
26/01/2020 04:08:12	26012020	260120	040812	54.080	12.514403	-57.504628	54.090	-0.290	-0.150	1.320	54.090	-1.500	1.600																			1580011692.0	7.29	13.50
26/01/2020 04:08:13	26012020	260120	040813	54.130	12.514422	-57.504598	54.120	-0.010	-0.360	1.340	54.140	-1.700	1.700																			1580011693.0	7.43	13.76
26/01/2020 04:08:14	26012020	260120	040814	54.150	12.514442	-57.504568	54.010	0.250	-0.370	1.180	54.140	-1.800	1.600																			1580011694.0	7.55	13.98
26/01/2020 04:08:15	26012020	260120	040815	54.050	12.514463	-57.504542	53.830	0.330	-0.160	0.820	54.020	-1.700	1.400																			1580011695.0	7.56	14.00
26/01/2020 04:08:16	26012020	260120	040816	53.870	12.514487	-57.504515	53.750	0.300	-0.030	0.250	53.840	-1.500	0.900																			1580011696.0	7.32	13.56
26/01/2020 04:08:17	26012020	260120	040817	53.810	12.514510	-57.504492	53.860	0.260	-0.160	-0.460	53.820	-1.500	0.300																			1580011697.0	7.22	13.37
26/01/2020 04:08:18	26012020	260120	040818	53.950	12.514535	-57.504467	54.060	0.160	-0.280	-1.020	54.000	-1.700	-0.400																			1580011698.0	7.49	13.87
26/01/2020 04:08:19	26012020	260120	040819	54.150	12.514560	-57.504440	54.130	-0.090	-0.150	-1.180	54.170	-1.600	-0.800																			1580011699.0	7.71	14.28
26/01/2020 04:08:20	26012020	260120	040820	54.220	12.514583	-57.504415	54.180	-0.410	0.080	-0.930	54.230	-1.400	-0.700																			1580011700.0	7.46	13.82
26/01/2020 04:08:21	26012020	260120	040821	54.270	12.514603	-57.504388	54.270	-0.550	0.080	-0.460	54.290	-1.300	-0.300																			1580011701.0	7.11	13.17
26/01/2020 04:08:22	26012020	260120	040822	54.350	12.514622	-57.504360	54.270	-0.410	-0.140	0.170	54.360	-1.400	0.200																			1580011702.0	7.10	13.15
26/01/2020 04:08:23	26012020	260120	040823	54.340	12.514640	-57.504330	54.180	-0.060	-0.370	0.860	54.320	-1.700	0.900																			1580011703.0	7.43	13.76
26/01/2020 04:08:24	26012020	260120	040824	54.220	12.514658	-57.504298	54.020	0.310	-0.580	1.400	54.200	-1.900	1.500																			1580011704.0	7.58	14.04
26/01/2020 04:08:25	26012020	260120	040825	54.060	12.514677	-57.504268	53.890	0.470	-0.590	1.510	54.020	-2.000	1.900																			1580011705.0	7.62	14.11
26/01/2020 04:08:26	26012020	260120	040826	53.920	12.514697	-57.504238	53.930	0.300	-0.230	1.190	53.920	-1.800	1.700																			1580011706.0	7.67	14.20
26/01/2020 04:08:27	26012020	260120	040827	53.970	12.514720	-57.504212	54.200	-0.010	0.220	0.700	54.010	-1.400	1.300																			1580011707.0	7.36	13.63
26/01/2020 04:08:28	26012020	260120	040828	54.250	12.514742	-57.504188	54.420	-0.200	0.360	0.250	54.310	-1.100	0.800																			1580011708.0	7.01	12.98
26/01/2020 04:08:29	26012020	260120	040829	54.490	12.514763	-57.504163	54.430	-0.130	0.050	-0.040	54.510	-1.200	0.400																			1580011709.0	7.03	13.02
26/01/2020 04:08:30	26012020	260120	040830	54.500	12.514787	-57.504137	54.270	0.070	-0.350	-0.200	54.480	-1.600	0.200																			1580011710.0	7.46	13.82
26/01/2020 04:08:31	26012020	260120	040831	54.360	12.514810	-57.504108	54.130	0.170	-0.470	-0.270	54.320	-1.900	0.100																			1580011711.0	7.83	14.50
26/01/2020 04:08:32	26012020	260120	040832	54.210	12.514832	-57.504080	54.100	0.090	-0.340	-0.350	54.180	-1.800	0.100																			1580011712.0	7.71	14.28
26/01/2020 04:08:33	26012020	260120	040833	54.170	12.514853	-57.504053	54.200	-0.090	-0.100	-0.430	54.180	-1.600	-0.000																			1580011713.0	7.38	13.67
26/01/2020 04:08:34	26012020	260120	040834	54.280	12.514875	-57.504027	54.360	-0.240	0.110	-0.370	54.310	-1.400	-0.100																			1580011714.0	7.17	13.28
26/01/2020 04:08:35	26012020	260120	040835	54.440	12.514897	-57.504000	54.450	-0.210	0.100	-0.030	54.470	-1.300	0.200																			1580011715.0	7.09	13.13
26/01/2020 04:08:36	26012020	260120	040836	54.520	12.514915	-57.503973	54.410	-0.010	-0.250	0.430	54.520	-1.500	0.600																			1580011716.0	7.16	13.26
26/01/2020 04:08:37	26012020	260120	040837	54.480	12.514935	-57.503943	54.360	0.190	-0.660	0.780	54.460	-1.900	1.000																			1580011717.0	7.49	13.87
26/01/2020 04:08:38	26012020	260120	040838	54.420	12.514953	-57.503912	54.400	0.210	-0.690	0.960	54.410	-2.100	1.300																			1580011718.0	7.85	14.54
26/01/2020 04:08:39	26012020	260120	040839	54.440	12.514975	-57.503882	54.430	0.010	-0.180	1.000	54.450	-1.900	1.400																			1580011719.0	7.77	14.39
26/01/2020 04:08:40	26012020	260120	040840	54.480	12.514995	-57.503855	54.390	-0.260	0.440	0.950	54.480	-1.200	1.400																			1580011720.0	7.25	13.43
26/01/2020 04:08:41	26012020	260120	040841	54.440	12.515015	-57.503830	54.330	-0.360	0.530	0.770	54.430	-0.800	1.300																			1580011721.0	6.79	12.58
26/01/2020 04:08:42	26012020	260120	040842	54.390	12.515035	-57.503803	54.360	-0.150	-0.080	0.390	54.390	-1.100	1.000																			1580011722.0	6.90	12.78
26/01/2020 04:08:43	26012020	260120	040843	54.440	12.515058	-57.503777	54.520	0.200	-0.670	-0.050	54.470	-1.900	0.500																			1580011723.0	7.61	14.09
26/01/2020 04:08:44	26012020	260120	040844	54.590	12.515082	-57.503747	54.630	0.370	-0.620	-0.330	54.610	-2.100	0.200																			1580011724.0	8.12	15.04
26/01/2020 04:08:45	26012020	260120	040845	54.680	12.515105	-57.503718	54.590	0.290	-0.240	-0.420	54.690	-1.800	-0.000																			1580011725.0	7.73	14.32
26/01/2020 04:08:46	26012020	260120	040846	54.660	12.515125	-57.503692	54.470	0.140	-0.080	-0.390	54.640	-1.500	-0.000																			1580011726.0	7.06	13.08
26/01/2020 04:08:47	26012020	260120	040847	54.540	12.515147	-57.503667	54.350	0.080	-0.160	-0.260	54.520	-1.500	0.000																			1580011727.0	7.07	13.09
26/01/2020 04:08:48	26012020	260120	040848	54.430	12.515168	-57.503638	54.340	0.030	-0.160	-0.030	54.420	-1.600	0.200																			1580011728.0	7.49	13.87
26/01/2020 04:08:49	26012020	260120	040849	54.410	12.515190	-57.503610	54.390	-0.110	0.010	0.210	54.420	-1.500	0.500																			1580011729.0	7.62	14.11
26/01/2020 04:08:50	26012020	260120	040850	54.470	12.515210	-57.503582	54.440	-0.290	0.150	0.450	54.470	-1.300	0.700																			1580011730.0	7.38	13.67
26/01/2020 04:08:51	26012020	260120	040851	54.510	12.515228	-57.503553	54.480	-0.340	0.010	0.700	54.510	-1.300	1.000																			1580011731.0	7.16	13.26
26/01/2020 04:08:52	26012020	260120	040852	54.530	12.515248	-57.503525	54.490	-0.190	-0.330	0.870	54.540	-1.600	1.200																			1580011732.0	7.28	13.48
26/01/2020 04:08:53	26012020	260120	040853	54.540	12.515267	-57.503495	54.410	0.020	-0.500	1.020	54.530	-1.900	1.300																			1580011733.0	7.61	14.09
26/01/2020 04:08:54	26012020	260120	040854	54.460	12.515288	-57.503465	54.290	0.110	-0.390	1.050	54.440	-1.900	1.400																			1580011734.0	7.70	14.26
26/01/2020 04:08:55	26012020	260120	040855	54.340	12.515308	-57.503437	54.220	0.030	-0.170	0.770	54.320	-1.700	1.300																			1580011735.0	7.45	13.80
26/01/2020 04:08:56	26012020	260120	040856	54.270	12.515328	-57.503410	54.170	-0.080	0.020	0.290	54.270	-1.500	0.900																			1580011736.0	7.25	13.43
26/01/2020 04:08:57	26012020	260120	040857	54.250	12.515352	-57.503385	54.180	-0.060	0.050	-0.140	54.250	-1.300	0.400																			1580011737.0	7.24	13.41
26/01/2020 04:08:58	26012020	260120	040858	54.260	12.515375	-57.503360	54.180	0.110	-0.140	-0.420	54.260	-1.400	0.100																			1580011738.0	7.30	13.52
26/01/2020 04:08:59	26012020	260120	040859	54.270	12.515397	-57.503332	54.150	0.300	-0.430	-0.510	54.270	-1.700	-0.100																			1580011739.0	7.49	13.87
26/01/2020 04:09:00	26012020	260120	040900	54.240	12.515420	-57.503303	54.070	0.370	-0.550	-0.390	54.220	-1.900	-0.100	1015.00	25.70	25.80	20.90	20.90	-1.00	74.00	74.00	386.00	25.20	2.00	8.40	58.00	4.60	14	3254.00	27.50	27.50	1580011740.0	7.73	14.32
26/01/2020 04:09:01	26012020	260120	040901	54.140	12.515442	-57.503275	53.940	0.240	-0.350	-0.140	54.120	-1.900	0.100																			1580011741.0	7.77	14.39
26/01/2020 04:09:02	26012020	260120	040902	54.010	12.515463	-57.503247	53.820	-0.020	0.080	0.190	53.990	-1.500	0.400																			1580011742.0	7.52	13.93
26/01/2020 04:09:03	26012020	260120	040903	53.890	12.515483	-57.503218	53.760	-0.240	0.370	0.560	53.870	-1.100	0.800																			1580011743.0	7.18	13.30
26/01/2020 04:09:04	26012020	260120	040904	53.810	12.515502	-57.503192	53.800	-0.310	0.260	0.780	53.810	-1.000	1.100																			1580011744.0	7.03	13.02
26/01/2020 04:09:05	26012020	260120	040905	53.840	12.515522	-57.503165	53.930	-0.210	-0.220	0.840	53.870	-1.400	1.200																			1580011745.0	7.24	13.41
26/01/2020 04:09:06	26012020	260120	040906	53.980	12.515543	-57.503135	54.020	-0.090	-0.570	0.930	54.000	-1.900	1.200																			1580011746.0	7.68	14.22
26/01/2020 04:09:07	26012020	260120	040907	54.070	12.515565	-57.503105	53.970	-0.160	-0.380	1.090	54.070	-1.900	1.400																			1580011747.0	7.91	14.65
26/01/2020 04:09:08	26012020	260120	040908	54.010	12.515585	-57.503075	53.850	-0.330	0.010	1.140	53.990	-1.600	1.500																			1580011748.0	7.52	13.93
26/01/2020 04:09:09	26012020	260120	040909	53.900	12.515603	-57.503048	53.790	-0.280	-0.020	0.910	53.880	-1.300	1.400																			1580011749.0	6.96	12.89
26/01/2020 04:09:10	26012020	260120	040910	53.840	12.515623	-57.503022	53.750	0.140	-0.500	0.560	53.840	-1.700	1.100																			1580011750.0	7.02	13.00
26/01/2020 04:09:11	26012020	260120	040911	53.820	12.515645	-57.502993	53.620	0.530	-0.730	0.180	53.790	-2.100	0.700																			1580011751.0	7.71	14.28
26/01/2020 04:09:12	26012020	260120	040912	53.700	12.515670	-57.502965	53.520	0.570	-0.360	-0.300	53.670	-2.000	0.300																			1580011752.0	8.06	14.93
26/01/2020 04:09:13	26012020	260120	040913	53.600	12.515693	-57.502938	53.470	0.330	0.230	-0.730	53.590	-1.400	-0.200																			1580011753.0	7.57	14.02
26/01/2020 04:09:14	26012020	260120	040914	53.570	12.515717	-57.502915	53.450	0.090	0.450	-0.950	53.570	-1.000	-0.500																			1580011754.0	7.06	13.08
26/01/2020 04:09:15	26012020	260120	040915	53.570	12.515740	-57.502892	53.480	-0.010	0.070	-0.910	53.570	-1.100	-0.600																			1580011755.0	7.05	13.06
26/01/2020 04:09:16	26012020	260120	040916	53.590	12.515763	-57.502865	53.530	-0.060	-0.440	-0.520	53.600	-1.600	-0.400																			1580011756.0	7.55	13.98
26/01/2020 04:09:17	26012020	260120	040917	53.640	12.515787	-57.502835	53.500	-0.250	-0.450	0.260	53.640	-1.900	0.200																			1580011757.0	8.03	14.87
26/01/2020 04:09:18	26012020	260120	040918	53.600	12.515807	-57.502803	53.510	-0.570	-0.010	1.120	53.590	-1.600	1.100																			1580011758.0	7.81	14.46
26/01/2020 04:09:19	26012020	260120	040919	53.560	12.515822	-57.502775	53.630	-0.700	0.250	1.710	53.580	-1.200	1.800																			1580011759.0	7.14	13.22
26/01/2020 04:09:20	26012020	260120	040920	53.650	12.515837	-57.502745	53.740	-0.430	-0.020	1.960	53.670	-1.300	2.200																			1580011760.0	6.85	12.69
26/01/2020 04:09:21	26012020	260120	040921	53.750	12.515855	-57.502717	53.690	0.080	-0.440	1.880	53.760	-1.700	2.300																			1580011761.0	7.28	13.48
26/01/2020 04:09:22	26012020	260120	040922	53.700	12.515875	-57.502687	53.510	0.470	-0.610	1.420	53.670	-2.000	2.000																			1580011762.0	7.76	14.37
26/01/2020 04:09:23	26012020	260120	040923	53.520	12.515898	-57.502658	53.350	0.590	-0.500	0.670	53.480	-2.000	1.400																			1580011763.0	7.76	14.37
26/01/2020 04:09:24	26012020	260120	040924	53.380	12.515923	-57.502633	53.290	0.520	-0.310	-0.170	53.360	-1.800	0.600																			1580011764.0	7.54	13.96
26/01/2020 04:09:25	26012020	260120	040925	53.340	12.515950	-57.502610	53.300	0.380	-0.140	-0.910	53.340	-1.600	-0.200																			1580011765.0	7.45	13.80
26/01/2020 04:09:26	26012020	260120	040926	53.390	12.515975	-57.502587	53.360	0.210	0.010	-1.320	53.400	-1.500	-0.800																			1580011766.0	7.51	13.91
26/01/2020 04:09:27	26012020	260120	040927	53.470	12.516002	-57.502562	53.360	-0.050	0.150	-1.170	53.480	-1.300	-0.900																			1580011767.0	7.51	13.91
26/01/2020 04:09:28	26012020	260120	040928	53.480	12.516023	-57.502535	53.400	-0.360	0.160	-0.730	53.480	-1.200	-0.600																			1580011768.0	7.39	13.69
26/01/2020 04:09:29	26012020	260120	040929	53.510	12.516043	-57.502507	53.570	-0.560	-0.020	-0.200	53.530	-1.300	-0.100																			1580011769.0	7.32	13.56
26/01/2020 04:09:30	26012020	260120	040930	53.660	12.516062	-57.502477	53.770	-0.540	-0.270	0.400	53.690	-1.600	0.500																			1580011770.0	7.45	13.80
26/01/2020 04:09:31	26012020	260120	040931	53.830	12.516080	-57.502447	53.860	-0.350	-0.290	1.090	53.860	-1.700	1.100																			1580011771.0	7.63	14.13
26/01/2020 04:09:32	26012020	260120	040932	53.900	12.516098	-57.502415	53.730	-0.140	-0.070	1.660	53.880	-1.600	1.800																			1580011772.0	7.59	14.06
26/01/2020 04:09:33	26012020	260120	040933	53.760	12.516115	-57.502387	53.590	0.080	-0.030	1.850	53.720	-1.400	2.200																			1580011773.0	7.24	13.41
26/01/2020 04:09:34	26012020	260120	040934	53.610	12.516133	-57.502358	53.580	0.370	-0.400	1.480	53.600	-1.600	2.100																			1580011774.0	7.06	13.08
26/01/2020 04:09:35	26012020	260120	040935	53.610	12.516157	-57.502332	53.540	0.580	-0.780	0.750	53.610	-2.000	1.500																			1580011775.0	7.47	13.83
26/01/2020 04:09:36	26012020	260120	040936	53.600	12.516182	-57.502305	53.480	0.530	-0.690	-0.030	53.590	-2.200	0.700																			1580011776.0	7.97	14.76
26/01/2020 04:09:37	26012020	260120	040937	53.550	12.516208	-57.502280	53.510	0.260	-0.240	-0.610	53.550	-1.900	0.000																			1580011777.0	7.87	14.58
26/01/2020 04:09:38	26012020	260120	040938	53.600	12.516235	-57.502255	53.710	-0.050	0.220	-0.990	53.630	-1.400	-0.500																			1580011778.0	7.38	13.67
26/01/2020 04:09:39	26012020	260120	040939	53.810	12.516258	-57.502232	53.920	-0.300	0.480	-1.020	53.860	-1.000	-0.700																			1580011779.0	7.15	13.24
26/01/2020 04:09:40	26012020	260120	040940	54.030	12.516280	-57.502205	53.920	-0.410	0.410	-0.600	54.040	-0.900	-0.500																			1580011780.0	7.19	13.32
26/01/2020 04:09:41	26012020	260120	040941	54.030	12.516298	-57.502177	53.770	-0.410	0.090	-0.000	54.000	-1.200	0.100																			1580011781.0	7.37	13.65
26/01/2020 04:09:42	26012020	260120	040942	53.880	12.516317	-57.502147	53.690	-0.260	-0.310	0.530	53.850	-1.500	0.700																			1580011782.0	7.58	14.04
26/01/2020 04:09:43	26012020	260120	040943	53.760	12.516337	-57.502115	53.690	0.030	-0.680	0.890	53.750	-1.900	1.100																			1580011783.0	7.63	14.13
26/01/2020 04:09:44	26012020	260120	040944	53.760	12.516355	-57.502085	53.780	0.270	-0.820	1.070	53.770	-2.200	1.400																			1580011784.0	7.65	14.17
26/01/2020 04:09:45	26012020	260120	040945	53.830	12.516377	-57.502057	53.830	0.300	-0.560	1.040	53.850	-2.100	1.400																			1580011785.0	7.65	14.17
26/01/2020 04:09:46	26012020	260120	040946	53.890	12.516398	-57.502028	53.860	0.140	-0.010	0.910	53.900	-1.700	1.400																			1580011786.0	7.42	13.74
26/01/2020 04:09:47	26012020	260120	040947	53.920	12.516420	-57.502003	53.890	-0.070	0.440	0.700	53.920	-1.100	1.200																			1580011787.0	7.09	13.13
26/01/2020 04:09:48	26012020	260120	040948	53.970	12.516440	-57.501978	53.920	-0.210	0.450	0.450	53.980	-0.900	0.900																			1580011788.0	6.94	12.85
26/01/2020 04:09:49	26012020	260120	040949	54.000	12.516462	-57.501952	53.850	-0.190	0.010	0.180	54.000	-1.200	0.700																			1580011789.0	7.15	13.24
26/01/2020 04:09:50	26012020	260120	040950	53.940	12.516485	-57.501925	53.790	0.020	-0.570	-0.120	53.920	-1.700	0.400																			1580011790.0	7.60	14.08
26/01/2020 04:09:51	26012020	260120	040951	53.880	12.516508	-57.501897	53.790	0.300	-0.910	-0.330	53.880	-2.200	0.100																			1580011791.0	7.92	14.67
26/01/2020 04:09:52	26012020	260120	040952	53.890	12.516533	-57.501868	53.780	0.420	-0.740	-0.330	53.890	-2.300	0.000																			1580011792.0	7.97	14.76
26/01/2020 04:09:53	26012020	260120	040953	53.880	12.516555	-57.501840	53.770	0.240	-0.180	-0.140	53.870	-1.900	0.100																			1580011793.0	7.66	14.19
26/01/2020 04:09:54	26012020	260120	040954	53.870	12.516575	-57.501813	53.810	-0.120	0.400	0.120	53.870	-1.300	0.400																			1580011794.0	7.20	13.33
26/01/2020 04:09:55	26012020	260120	040955	53.900	12.516595	-57.501787	53.940	-0.380	0.570	0.290	53.920	-0.900	0.600																			1580011795.0	6.90	12.78
26/01/2020 04:09:56	26012020	260120	040956	54.020	12.516613	-57.501760	54.070	-0.400	0.280	0.440	54.050	-1.000	0.700																			1580011796.0	7.01	12.98
26/01/2020 04:09:57	26012020	260120	040957	54.170	12.516633	-57.501730	54.120	-0.290	-0.110	0.620	54.180	-1.300	0.900																			1580011797.0	7.47	13.83
26/01/2020 04:09:58	26012020	260120	040958	54.220	12.516655	-57.501702	54.050	-0.120	-0.410	0.760	54.210	-1.700	1.100																			1580011798.0	7.71	14.28
26/01/2020 04:09:59	26012020	260120	040959	54.140	12.516675	-57.501672	53.910	0.080	-0.590	0.870	54.110	-1.900	1.200																			1580011799.0	7.61	14.09
26/01/2020 04:10:00	26012020	260120	041000	53.990	12.516697	-57.501643	53.780	0.290	-0.700	0.820	53.960	-2.100	1.200	1015.00	25.70	25.80	21.00	21.00	-1.00	75.00	75.00	387.00	25.20	358.00	8.40	49.00	4.60	14	3236.00	27.50	27.40	1580011800.0	7.52	13.93
26/01/2020 04:10:01	26012020	260120	041001	53.870	12.516718	-57.501615	53.730	0.410	-0.630	0.580	53.850	-2.100	1.100																			1580011801.0	7.54	13.96
26/01/2020 04:10:02	26012020	260120	041002	53.810	12.516742	-57.501588	53.740	0.330	-0.220	0.300	53.810	-1.900	0.800																			1580011802.0	7.58	14.04
26/01/2020 04:10:03	26012020	260120	041003	53.830	12.516765	-57.501562	53.820	0.010	0.350	0.140	53.850	-1.300	0.600																			1580011803.0	7.41	13.72
26/01/2020 04:10:04	26012020	260120	041004	53.920	12.516785	-57.501537	53.970	-0.300	0.500	0.060	53.940	-0.900	0.500																			1580011804.0	6.99	12.95
26/01/2020 04:10:05	26012020	260120	041005	54.070	12.516805	-57.501512	54.120	-0.300	0.020	-0.050	54.110	-1.100	0.400																			1580011805.0	6.94	12.85
26/01/2020 04:10:06	26012020	260120	041006	54.230	12.516827	-57.501483	54.120	0.000	-0.550	-0.030	54.250	-1.700	0.300																			1580011806.0	7.53	13.95
26/01/2020 04:10:07	26012020	260120	041007	54.230	12.516850	-57.501453	53.980	0.280	-0.700	0.160	54.210	-2.100	0.400																			1580011807.0	8.07	14.95
26/01/2020 04:10:08	26012020	260120	041008	54.080	12.516872	-57.501423	53.850	0.290	-0.380	0.280	54.040	-2.000	0.600																			1580011808.0	7.95	14.72
26/01/2020 04:10:09	26012020	260120	041009	53.930	12.516893	-57.501395	53.870	0.050	0.130	0.190	53.920	-1.500	0.600																			1580011809.0	7.42	13.74
26/01/2020 04:10:10	26012020	260120	041010	53.960	12.516913	-57.501370	54.050	-0.200	0.470	0.090	53.990	-1.100	0.500																			1580011810.0	7.00	12.96
26/01/2020 04:10:11	26012020	260120	041011	54.150	12.516935	-57.501345	54.240	-0.310	0.350	0.160	54.180	-0.900	0.500																			1580011811.0	6.89	12.76
26/01/2020 04:10:12	26012020	260120	041012	54.310	12.516957	-57.501318	54.270	-0.250	-0.200	0.400	54.330	-1.300	0.700																			1580011812.0	7.11	13.17
26/01/2020 04:10:13	26012020	260120	041013	54.340	12.516977	-57.501290	54.230	-0.120	-0.770	0.620	54.340	-1.900	0.900																			1580011813.0	7.59	14.06
26/01/2020 04:10:14	26012020	260120	041014	54.310	12.516997	-57.501258	54.210	0.030	-0.980	0.670	54.290	-2.300	1.000																			1580011814.0	7.92	14.67
26/01/2020 04:10:15	26012020	260120	041015	54.290	12.517018	-57.501228	54.220	0.130	-0.630	0.640	54.290	-2.300	1.000																			1580011815.0	7.84	14.52
26/01/2020 04:10:16	26012020	260120	041016	54.290	12.517040	-57.501200	54.220	0.130	0.050	0.540	54.290	-1.700	1.000																			1580011816.0	7.48	13.85
26/01/2020 04:10:17	26012020	260120	041017	54.280	12.517060	-57.501173	54.220	0.060	0.500	0.300	54.280	-1.000	0.800																			1580011817.0	7.01	12.98
26/01/2020 04:10:18	26012020	260120	041018	54.280	12.517080	-57.501148	54.200	0.050	0.380	0.050	54.280	-0.900	0.500																			1580011818.0	6.85	12.69
26/01/2020 04:10:19	26012020	260120	041019	54.270	12.517102	-57.501122	54.120	0.140	-0.050	-0.110	54.260	-1.300	0.300																			1580011819.0	7.26	13.45
26/01/2020 04:10:20	26012020	260120	041020	54.200	12.517125	-57.501095	54.130	0.200	-0.330	-0.300	54.190	-1.600	0.200																			1580011820.0	7.77	14.39
26/01/2020 04:10:21	26012020	260120	041021	54.210	12.517148	-57.501067	54.180	0.140	-0.380	-0.400	54.220	-1.800	0.000																			1580011821.0	7.81	14.46
26/01/2020 04:10:22	26012020	260120	041022	54.260	12.517172	-57.501040	54.200	0.010	-0.400	-0.300	54.270	-1.800	0.000																			1580011822.0	7.52	13.93
26/01/2020 04:10:23	26012020	260120	041023	54.280	12.517193	-57.501013	54.220	-0.080	-0.450	-0.010	54.280	-1.800	0.200																			1580011823.0	7.35	13.61
26/01/2020 04:10:24	26012020	260120	041024	54.290	12.517213	-57.500985	54.200	-0.130	-0.350	0.430	54.290	-1.800	0.600																			1580011824.0	7.45	13.80
26/01/2020 04:10:25	26012020	260120	041025	54.260	12.517233	-57.500955	54.170	-0.230	-0.020	0.920	54.260	-1.600	1.100																			1580011825.0	7.52	13.93
26/01/2020 04:10:26	26012020	260120	041026	54.230	12.517252	-57.500925	54.170	-0.350	0.310	1.280	54.220	-1.200	1.500																			1580011826.0	7.33	13.58
26/01/2020 04:10:27	26012020	260120	041027	54.220	12.517268	-57.500897	54.160	-0.350	0.280	1.330	54.220	-1.000	1.700																			1580011827.0	7.10	13.15
26/01/2020 04:10:28	26012020	260120	041028	54.220	12.517287	-57.500868	54.110	-0.110	-0.170	1.110	54.220	-1.300	1.600																			1580011828.0	7.16	13.26
26/01/2020 04:10:29	26012020	260120	041029	54.180	12.517308	-57.500840	54.020	0.280	-0.640	0.690	54.170	-1.900	1.300																			1580011829.0	7.58	14.04
26/01/2020 04:10:30	26012020	260120	041030	54.110	12.517333	-57.500812	53.980	0.590	-0.780	0.220	54.100	-2.200	0.800																			1580011830.0	7.94	14.70
26/01/2020 04:10:31	26012020	260120	041031	54.090	12.517358	-57.500785	54.060	0.600	-0.510	-0.230	54.100	-2.100	0.400																			1580011831.0	7.87	14.58
26/01/2020 04:10:32	26012020	260120	041032	54.170	12.517382	-57.500758	54.150	0.250	-0.000	-0.570	54.180	-1.700	-0.000																			1580011832.0	7.54	13.96
26/01/2020 04:10:33	26012020	260120	041033	54.250	12.517405	-57.500733	54.170	-0.260	0.460	-0.700	54.260	-1.100	-0.300																			1580011833.0	7.22	13.37
26/01/2020 04:10:34	26012020	260120	041034	54.270	12.517427	-57.500708	54.140	-0.600	0.550	-0.490	54.270	-0.800	-0.300																			1580011834.0	7.02	13.00
26/01/2020 04:10:35	26012020	260120	041035	54.230	12.517447	-57.500683	54.070	-0.530	0.130	0.000	54.210	-1.000	0.100																			1580011835.0	7.06	13.08
26/01/2020 04:10:36	26012020	260120	041036	54.160	12.517467	-57.500655	54.120	-0.120	-0.610	0.450	54.150	-1.700	0.600																			1580011836.0	7.44	13.78
26/01/2020 04:10:37	26012020	260120	041037	54.180	12.517487	-57.500622	54.160	0.290	-1.080	0.830	54.200	-2.300	1.000																			1580011837.0	7.96	14.74
26/01/2020 04:10:38	26012020	260120	041038	54.210	12.517507	-57.500590	54.090	0.390	-0.840	1.090	54.210	-2.400	1.400																			1580011838.0	8.15	15.09
26/01/2020 04:10:39	26012020	260120	041039	54.140	12.517527	-57.500558	54.070	0.210	-0.120	1.070	54.130	-1.900	1.500																			1580011839.0	7.69	14.24
26/01/2020 04:10:40	26012020	260120	041040	54.110	12.517547	-57.500533	54.080	-0.050	0.540	0.860	54.120	-1.100	1.400																			1580011840.0	7.04	13.04
26/01/2020 04:10:41	26012020	260120	041041	54.130	12.517567	-57.500508	54.070	-0.250	0.680	0.490	54.130	-0.700	1.100																			1580011841.0	6.79	12.58
26/01/2020 04:10:42	26012020	260120	041042	54.120	12.517588	-57.500483	54.090	-0.280	0.170	0.010	54.130	-0.900	0.600																			1580011842.0	7.01	12.98
26/01/2020 04:10:43	26012020	260120	041043	54.160	12.517612	-57.500457	54.140	-0.120	-0.590	-0.380	54.170	-1.700	0.200																			1580011843.0	7.56	14.00
26/01/2020 04:10:44	26012020	260120	041044	54.210	12.517637	-57.500428	54.170	0.090	-0.870	-0.520	54.220	-2.200	-0.100																			1580011844.0	8.10	15.00
26/01/2020 04:10:45	26012020	260120	041045	54.250	12.517662	-57.500398	54.120	0.210	-0.500	-0.380	54.250	-2.100	-0.100																			1580011845.0	8.05	14.91
26/01/2020 04:10:46	26012020	260120	041046	54.200	12.517682	-57.500372	53.990	0.210	-0.040	-0.070	54.180	-1.600	0.200																			1580011846.0	7.39	13.69
26/01/2020 04:10:47	26012020	260120	041047	54.060	12.517702	-57.500345	53.860	0.160	0.000	0.230	54.030	-1.400	0.500																			1580011847.0	6.92	12.82
26/01/2020 04:10:48	26012020	260120	041048	53.930	12.517720	-57.500317	53.920	0.090	-0.220	0.370	53.930	-1.500	0.700																			1580011848.0	7.18	13.30
26/01/2020 04:10:49	26012020	260120	041049	53.990	12.517742	-57.500288	54.110	-0.020	-0.280	0.390	54.030	-1.700	0.800																			1580011849.0	7.67	14.20
26/01/2020 04:10:50	26012020	260120	041050	54.190	12.517765	-57.500260	54.250	-0.180	-0.040	0.440	54.230	-1.600	0.800																			1580011850.0	7.75	14.35
26/01/2020 04:10:51	26012020	260120	041051	54.320	12.517785	-57.500232	54.200	-0.310	0.280	0.630	54.330	-1.200	0.900																			1580011851.0	7.42	13.74
26/01/2020 04:10:52	26012020	260120	041052	54.270	12.517805	-57.500205	54.100	-0.300	0.240	0.850	54.250	-1.100	1.100																			1580011852.0	7.09	13.13
26/01/2020 04:10:53	26012020	260120	041053	54.160	12.517823	-57.500177	54.170	-0.080	-0.260	0.810	54.160	-1.400	1.200																			1580011853.0	7.13	13.20
26/01/2020 04:10:54	26012020	260120	041054	54.230	12.517845	-57.500148	54.290	0.230	-0.810	0.520	54.270	-2.000	1.000																			1580011854.0	7.60	14.08
26/01/2020 04:10:55	26012020	260120	041055	54.370	12.517868	-57.500118	54.270	0.440	-0.880	0.290	54.380	-2.300	0.800																			1580011855.0	8.02	14.85
26/01/2020 04:10:56	26012020	260120	041056	54.360	12.517892	-57.500090	54.160	0.410	-0.360	0.170	54.330	-2.000	0.600																			1580011856.0	7.94	14.70
26/01/2020 04:10:57	26012020	260120	041057	54.240	12.517915	-57.500063	54.090	0.130	0.300	0.020	54.220	-1.400	0.500																			1580011857.0	7.39	13.69
26/01/2020 04:10:58	26012020	260120	041058	54.180	12.517935	-57.500038	54.070	-0.230	0.600	-0.130	54.170	-0.900	0.300																			1580011858.0	6.90	12.78
26/01/2020 04:10:59	26012020	260120	041059	54.150	12.517957	-57.500013	54.130	-0.470	0.380	-0.300	54.160	-0.900	0.200																			1580011859.0	6.94	12.85
26/01/2020 04:11:00	26012020	260120	041100	54.220	12.517978	-57.499987	54.260	-0.490	-0.180	-0.340	54.250	-1.300	0.000	1015.00	25.70	25.70	21.00	21.00	-1.00	75.00	75.00	386.00	25.20	2.00	8.60	58.00	4.70	14	3364.00	27.50	27.50	1580011860.0	7.35	13.61
26/01/2020 04:11:01	26012020	260120	041101	54.360	12.518002	-57.499958	54.390	-0.280	-0.680	-0.140	54.390	-1.900	0.100																			1580011861.0	7.74	14.33
26/01/2020 04:11:02	26012020	260120	041102	54.480	12.518023	-57.499928	54.450	0.020	-0.830	0.260	54.500	-2.200	0.400																			1580011862.0	7.90	14.63
26/01/2020 04:11:03	26012020	260120	041103	54.530	12.518043	-57.499898	54.450	0.260	-0.630	0.710	54.540	-2.100	0.900																			1580011863.0	7.76	14.37
26/01/2020 04:11:04	26012020	260120	041104	54.520	12.518062	-57.499868	54.360	0.390	-0.280	0.970	54.510	-1.800	1.300																			1580011864.0	7.47	13.83
26/01/2020 04:11:05	26012020	260120	041105	54.420	12.518080	-57.499838	54.170	0.390	0.080	0.880	54.390	-1.500	1.300																			1580011865.0	7.30	13.52
26/01/2020 04:11:06	26012020	260120	041106	54.250	12.518100	-57.499812	54.070	0.250	0.320	0.510	54.220	-1.200	1.100																			1580011866.0	7.28	13.48
26/01/2020 04:11:07	26012020	260120	041107	54.150	12.518123	-57.499787	54.190	0.100	0.220	0.040	54.160	-1.100	0.600																			1580011867.0	7.32	13.56
26/01/2020 04:11:08	26012020	260120	041108	54.280	12.518148	-57.499762	54.450	0.040	-0.170	-0.360	54.340	-1.400	0.200																			1580011868.0	7.44	13.78
26/01/2020 04:11:09	26012020	260120	041109	54.550	12.518173	-57.499735	54.550	-0.070	-0.350	-0.450	54.590	-1.700	-0.100																			1580011869.0	7.79	14.43
26/01/2020 04:11:10	26012020	260120	041110	54.650	12.518197	-57.499707	54.470	-0.360	-0.140	-0.130	54.640	-1.700	0.100																			1580011870.0	7.87	14.58
26/01/2020 04:11:11	26012020	260120	041111	54.540	12.518217	-57.499678	54.320	-0.680	0.120	0.370	54.510	-1.400	0.500																			1580011871.0	7.41	13.72
26/01/2020 04:11:12	26012020	260120	041112	54.390	12.518233	-57.499650	54.260	-0.740	0.040	0.680	54.370	-1.300	1.000																			1580011872.0	7.03	13.02
26/01/2020 04:11:13	26012020	260120	041113	54.330	12.518252	-57.499620	54.350	-0.360	-0.420	0.610	54.330	-1.600	1.100																			1580011873.0	7.13	13.20
26/01/2020 04:11:14	26012020	260120	041114	54.410	12.518272	-57.499592	54.470	0.300	-0.840	0.400	54.440	-2.100	0.900																			1580011874.0	7.59	14.06
26/01/2020 04:11:15	26012020	260120	041115	54.540	12.518295	-57.499562	54.440	0.820	-0.800	0.340	54.550	-2.300	0.700																			1580011875.0	7.95	14.72
26/01/2020 04:11:16	26012020	260120	041116	54.510	12.518318	-57.499533	54.260	0.880	-0.360	0.320	54.490	-2.000	0.700																			1580011876.0	7.81	14.46
26/01/2020 04:11:17	26012020	260120	041117	54.360	12.518338	-57.499505	54.110	0.500	0.120	0.220	54.320	-1.500	0.700																			1580011877.0	7.38	13.67
26/01/2020 04:11:18	26012020	260120	041118	54.200	12.518360	-57.499480	54.070	0.010	0.330	0.020	54.180	-1.100	0.500																			1580011878.0	7.15	13.24
26/01/2020 04:11:19	26012020	260120	041119	54.170	12.518383	-57.499455	54.150	-0.270	0.250	-0.160	54.180	-1.100	0.300																			1580011879.0	7.28	13.48
26/01/2020 04:11:20	26012020	260120	041120	54.270	12.518408	-57.499428	54.240	-0.320	0.100	-0.130	54.290	-1.200	0.200																			1580011880.0	7.56	14.00
26/01/2020 04:11:21	26012020	260120	041121	54.350	12.518430	-57.499402	54.240	-0.300	-0.050	0.130	54.360	-1.400	0.400																			1580011881.0	7.67	14.20
26/01/2020 04:11:22	26012020	260120	041122	54.350	12.518450	-57.499372	54.260	-0.320	-0.230	0.430	54.340	-1.500	0.700																			1580011882.0	7.60	14.08
26/01/2020 04:11:23	26012020	260120	041123	54.360	12.518470	-57.499342	54.330	-0.350	-0.390	0.560	54.370	-1.700	0.900																			1580011883.0	7.55	13.98
26/01/2020 04:11:24	26012020	260120	041124	54.430	12.518488	-57.499312	54.360	-0.280	-0.390	0.560	54.440	-1.800	0.900																			1580011884.0	7.51	13.91
26/01/2020 04:11:25	26012020	260120	041125	54.450	12.518508	-57.499283	54.300	-0.100	-0.220	0.510	54.440	-1.700	0.900																			1580011885.0	7.44	13.78
26/01/2020 04:11:26	26012020	260120	041126	54.390	12.518530	-57.499255	54.230	0.140	-0.130	0.400	54.380	-1.500	0.800																			1580011886.0	7.27	13.46
26/01/2020 04:11:27	26012020	260120	041127	54.320	12.518550	-57.499228	54.140	0.370	-0.290	0.230	54.310	-1.600	0.700																			1580011887.0	7.22	13.37
26/01/2020 04:11:28	26012020	260120	041128	54.230	12.518573	-57.499202	54.010	0.510	-0.530	0.030	54.210	-1.800	0.500																			1580011888.0	7.52	13.93
26/01/2020 04:11:29	26012020	260120	041129	54.110	12.518597	-57.499175	53.940	0.520	-0.580	-0.160	54.090	-2.000	0.300																			1580011889.0	7.83	14.50
26/01/2020 04:11:30	26012020	260120	041130	54.040	12.518622	-57.499147	54.030	0.350	-0.260	-0.220	54.050	-1.900	0.200																			1580011890.0	7.87	14.58
26/01/2020 04:11:31	26012020	260120	041131	54.130	12.518645	-57.499120	54.120	-0.050	0.330	-0.070	54.150	-1.400	0.200																			1580011891.0	7.61	14.09
26/01/2020 04:11:32	26012020	260120	041132	54.230	12.518665	-57.499093	54.180	-0.480	0.700	0.230	54.250	-0.800	0.500																			1580011892.0	7.14	13.22
26/01/2020 04:11:33	26012020	260120	041133	54.280	12.518683	-57.499067	54.240	-0.560	0.390	0.510	54.290	-0.800	0.800																			1580011893.0	6.86	12.70
26/01/2020 04:11:34	26012020	260120	041134	54.330	12.518702	-57.499038	54.250	-0.210	-0.410	0.680	54.340	-1.400	1.000																			1580011894.0	7.22	13.37
26/01/2020 04:11:35	26012020	260120	041135	54.330	12.518723	-57.499007	54.160	0.200	-1.000	0.770	54.320	-2.200	1.100																			1580011895.0	7.95	14.72
26/01/2020 04:11:36	26012020	260120	041136	54.250	12.518747	-57.498975	54.100	0.290	-0.830	0.730	54.230	-2.400	1.200																			1580011896.0	8.25	15.28
26/01/2020 04:11:37	26012020	260120	041137	54.190	12.518768	-57.498947	54.140	0.040	-0.060	0.520	54.180	-1.900	1.000																			1580011897.0	7.79	14.43
26/01/2020 04:11:38	26012020	260120	041138	54.230	12.518790	-57.498922	54.300	-0.250	0.610	0.260	54.260	-1.000	0.800																			1580011898.0	6.98	12.93
26/01/2020 04:11:39	26012020	260120	041139	54.390	12.518810	-57.498898	54.410	-0.330	0.560	0.090	54.430	-0.700	0.500																			1580011899.0	6.57	12.17
26/01/2020 04:11:40	26012020	260120	041140	54.510	12.518830	-57.498873	54.360	-0.150	-0.140	-0.050	54.520	-1.200	0.400																			1580011900.0	6.95	12.87
26/01/2020 04:11:41	26012020	260120	041141	54.470	12.518853	-57.498845	54.220	0.180	-0.910	-0.170	54.440	-2.000	0.300																			1580011901.0	7.71	14.28
26/01/2020 04:11:42	26012020	260120	041142	54.340	12.518877	-57.498813	54.160	0.490	-1.180	-0.210	54.320	-2.500	0.200																			1580011902.0	8.20	15.19
26/01/2020 04:11:43	26012020	260120	041143	54.280	12.518900	-57.498785	54.230	0.550	-0.770	-0.140	54.280	-2.400	0.200																			1580011903.0	8.08	14.96
26/01/2020 04:11:44	26012020	260120	041144	54.330	12.518923	-57.498757	54.360	0.260	0.100	-0.010	54.360	-1.700	0.300																			1580011904.0	7.61	14.09
26/01/2020 04:11:45	26012020	260120	041145	54.450	12.518943	-57.498730	54.430	-0.230	0.870	0.130	54.480	-0.800	0.400																			1580011905.0	7.01	12.98
26/01/2020 04:11:46	26012020	260120	041146	54.530	12.518962	-57.498705	54.430	-0.600	1.000	0.310	54.530	-0.400	0.600																			1580011906.0	6.65	12.32
26/01/2020 04:11:47	26012020	260120	041147	54.520	12.518980	-57.498678	54.380	-0.600	0.320	0.510	54.510	-0.700	0.800																			1580011907.0	6.82	12.63
26/01/2020 04:11:48	26012020	260120	041148	54.470	12.519000	-57.498650	54.360	-0.250	-0.710	0.570	54.460	-1.600	1.000																			1580011908.0	7.50	13.89
26/01/2020 04:11:49	26012020	260120	041149	54.450	12.519022	-57.498618	54.440	0.210	-1.340	0.450	54.470	-2.500	0.900																			1580011909.0	8.15	15.09
26/01/2020 04:11:50	26012020	260120	041150	54.540	12.519047	-57.498588	54.490	0.470	-1.030	0.360	54.560	-2.700	0.800																			1580011910.0	8.29	15.35
26/01/2020 04:11:51	26012020	260120	041151	54.600	12.519068	-57.498560	54.460	0.390	-0.040	0.410	54.600	-1.900	0.800																			1580011911.0	7.72	14.30
26/01/2020 04:11:52	26012020	260120	041152	54.570	12.519088	-57.498535	54.420	0.090	0.680	0.480	54.560	-1.000	0.900																			1580011912.0	6.80	12.59
26/01/2020 04:11:53	26012020	260120	041153	54.530	12.519108	-57.498510	54.440	-0.130	0.570	0.340	54.530	-0.700	0.800																			1580011913.0	6.45	11.95
26/01/2020 04:11:54	26012020	260120	041154	54.540	12.519128	-57.498485	54.520	-0.100	-0.120	0.060	54.560	-1.200	0.600																			1580011914.0	7.01	12.98
26/01/2020 04:11:55	26012020	260120	041155	54.620	12.519152	-57.498457	54.570	0.080	-0.760	-0.110	54.650	-1.900	0.300																			1580011915.0	7.80	14.45
26/01/2020 04:11:56	26012020	260120	041156	54.690	12.519175	-57.498427	54.560	0.190	-0.930	-0.080	54.700	-2.300	0.300																			1580011916.0	8.13	15.06
26/01/2020 04:11:57	26012020	260120	041157	54.680	12.519197	-57.498397	54.520	0.110	-0.540	0.070	54.670	-2.200	0.400																			1580011917.0	7.93	14.69
26/01/2020 04:11:58	26012020	260120	041158	54.640	12.519218	-57.498368	54.510	-0.130	0.160	0.250	54.620	-1.600	0.600																			1580011918.0	7.46	13.82
26/01/2020 04:11:59	26012020	260120	041159	54.610	12.519238	-57.498342	54.560	-0.400	0.670	0.360	54.620	-0.900	0.700																			1580011919.0	6.98	12.93
26/01/2020 04:12:00	26012020	260120	041200	54.650	12.519257	-57.498317	54.600	-0.510	0.640	0.410	54.660	-0.700	0.800	1015.00	25.70	25.70	21.00	21.00	-1.00	75.00	75.00	387.00	25.20	5.00	8.60	64.00	4.80	14	3258.00	27.50	27.50	1580011920.0	6.78	12.56
26/01/2020 04:12:01	26012020	260120	041201	54.700	12.519275	-57.498288	54.610	-0.340	0.130	0.430	54.710	-1.000	0.800																			1580011921.0	7.03	13.02
26/01/2020 04:12:02	26012020	260120	041202	54.710	12.519295	-57.498260	54.660	0.070	-0.580	0.280	54.720	-1.700	0.800																			1580011922.0	7.49	13.87
26/01/2020 04:12:03	26012020	260120	041203	54.760	12.519317	-57.498230	54.650	0.550	-1.150	0.080	54.770	-2.300	0.600																			1580011923.0	7.83	14.50
26/01/2020 04:12:04	26012020	260120	041204	54.760	12.519342	-57.498202	54.570	0.840	-1.170	-0.140	54.750	-2.700	0.300																			1580011924.0	8.03	14.87
26/01/2020 04:12:05	26012020	260120	041205	54.690	12.519367	-57.498173	54.610	0.730	-0.500	-0.190	54.680	-2.300	0.200																			1580011925.0	7.93	14.69
26/01/2020 04:12:06	26012020	260120	041206	54.720	12.519390	-57.498148	54.760	0.220	0.480	0.100	54.750	-1.400	0.300																			1580011926.0	7.41	13.72
26/01/2020 04:12:07	26012020	260120	041207	54.870	12.519410	-57.498123	54.840	-0.470	1.090	0.550	54.890	-0.500	0.700																			1580011927.0	6.74	12.48
26/01/2020 04:12:08	26012020	260120	041208	54.930	12.519427	-57.498097	54.770	-0.960	0.800	0.970	54.920	-0.400	1.200																			1580011928.0	6.54	12.11
26/01/2020 04:12:09	26012020	260120	041209	54.840	12.519442	-57.498068	54.750	-0.910	-0.230	1.200	54.830	-1.100	1.500																			1580011929.0	7.04	13.04
26/01/2020 04:12:10	26012020	260120	041210	54.810	12.519462	-57.498037	54.810	-0.370	-1.100	1.150	54.820	-2.200	1.600																			1580011930.0	7.91	14.65
26/01/2020 04:12:11	26012020	260120	041211	54.880	12.519483	-57.498003	54.750	0.210	-1.070	0.880	54.880	-2.600	1.400																			1580011931.0	8.37	15.50
26/01/2020 04:12:12	26012020	260120	041212	54.830	12.519503	-57.497973	54.510	0.500	-0.400	0.490	54.800	-2.100	1.100																			1580011932.0	7.83	14.50
26/01/2020 04:12:13	26012020	260120	041213	54.610	12.519525	-57.497948	54.200	0.560	0.110	-0.010	54.550	-1.500	0.600																			1580011933.0	6.96	12.89
26/01/2020 04:12:14	26012020	260120	041214	54.330	12.519547	-57.497925	54.100	0.580	0.050	-0.670	54.290	-1.300	0.000																			1580011934.0	6.76	12.52
26/01/2020 04:12:15	26012020	260120	041215	54.240	12.519572	-57.497902	54.310	0.520	-0.240	-1.290	54.270	-1.500	-0.600																			1580011935.0	7.38	13.67
26/01/2020 04:12:16	26012020	260120	041216	54.450	12.519600	-57.497877	54.490	0.240	-0.160	-1.410	54.510	-1.700	-1.000																			1580011936.0	7.98	14.78
26/01/2020 04:12:17	26012020	260120	041217	54.640	12.519625	-57.497850	54.440	-0.290	0.230	-0.780	54.650	-1.400	-0.800																			1580011937.0	7.81	14.46
26/01/2020 04:12:18	26012020	260120	041218	54.570	12.519645	-57.497823	54.370	-0.770	0.360	0.270	54.550	-1.000	0.200																			1580011938.0	7.13	13.20
26/01/2020 04:12:19	26012020	260120	041219	54.470	12.519660	-57.497793	54.500	-0.850	-0.050	1.130	54.470	-1.200	1.200																			1580011939.0	6.95	12.87
26/01/2020 04:12:20	26012020	260120	041220	54.560	12.519675	-57.497762	54.600	-0.480	-0.540	1.680	54.600	-1.800	1.800																			1580011940.0	7.45	13.80
26/01/2020 04:12:21	26012020	260120	041221	54.650	12.519692	-57.497728	54.390	-0.020	-0.540	2.040	54.640	-2.000	2.300																			1580011941.0	7.91	14.65
26/01/2020 04:12:22	26012020	260120	041222	54.440	12.519708	-57.497697	54.120	0.270	-0.300	1.950	54.380	-1.800	2.400																			1580011942.0	7.66	14.19
26/01/2020 04:12:23	26012020	260120	041223	54.160	12.519727	-57.497668	54.050	0.440	-0.290	1.220	54.130	-1.700	2.000																			1580011943.0	7.12	13.19
26/01/2020 04:12:24	26012020	260120	041224	54.110	12.519750	-57.497645	54.030	0.550	-0.350	0.240	54.120	-1.800	1.100																			1580011944.0	7.21	13.35
26/01/2020 04:12:25	26012020	260120	041225	54.130	12.519778	-57.497620	53.960	0.500	-0.160	-0.630	54.120	-1.700	0.100																			1580011945.0	7.72	14.30
26/01/2020 04:12:26	26012020	260120	041226	54.100	12.519805	-57.497597	54.010	0.270	0.020	-1.300	54.100	-1.400	-0.600																			1580011946.0	7.65	14.17
26/01/2020 04:12:27	26012020	260120	041227	54.160	12.519830	-57.497573	54.210	-0.010	-0.010	-1.570	54.190	-1.400	-1.100																			1580011947.0	7.37	13.65
26/01/2020 04:12:28	26012020	260120	041228	54.350	12.519855	-57.497548	54.360	-0.240	-0.090	-1.290	54.390	-1.500	-1.100																			1580011948.0	7.43	13.76
26/01/2020 04:12:29	26012020	260120	041229	54.500	12.519877	-57.497520	54.380	-0.360	-0.070	-0.610	54.520	-1.500	-0.600																			1580011949.0	7.51	13.91
26/01/2020 04:12:30	26012020	260120	041230	54.500	12.519895	-57.497490	54.330	-0.400	-0.040	0.270	54.490	-1.400	0.200																			1580011950.0	7.42	13.74
26/01/2020 04:12:31	26012020	260120	041231	54.430	12.519912	-57.497460	54.340	-0.370	-0.130	1.040	54.410	-1.500	1.100																			1580011951.0	7.34	13.59
26/01/2020 04:12:32	26012020	260120	041232	54.410	12.519927	-57.497430	54.400	-0.240	-0.310	1.510	54.420	-1.600	1.700																			1580011952.0	7.38	13.67
26/01/2020 04:12:33	26012020	260120	041233	54.470	12.519945	-57.497400	54.390	-0.030	-0.370	1.650	54.480	-1.800	2.000																			1580011953.0	7.50	13.89
26/01/2020 04:12:34	26012020	260120	041234	54.470	12.519965	-57.497370	54.350	0.190	-0.250	1.530	54.450	-1.700	2.000																			1580011954.0	7.51	13.91
26/01/2020 04:12:35	26012020	260120	041235	54.420	12.519985	-57.497342	54.270	0.290	-0.110	1.170	54.400	-1.600	1.800																			1580011955.0	7.34	13.59
26/01/2020 04:12:36	26012020	260120	041236	54.360	12.520007	-57.497317	54.280	0.290	-0.160	0.480	54.360	-1.500	1.200																			1580011956.0	7.22	13.37
26/01/2020 04:12:37	26012020	260120	041237	54.380	12.520032	-57.497292	54.370	0.270	-0.350	-0.400	54.390	-1.700	0.400																			1580011957.0	7.37	13.65
26/01/2020 04:12:38	26012020	260120	041238	54.500	12.520057	-57.497267	54.410	0.250	-0.360	-0.940	54.530	-1.800	-0.400																			1580011958.0	7.71	14.28
26/01/2020 04:12:39	26012020	260120	041239	54.550	12.520083	-57.497240	54.330	0.100	-0.100	-1.060	54.540	-1.600	-0.600																			1580011959.0	7.74	14.33
26/01/2020 04:12:40	26012020	260120	041240	54.470	12.520105	-57.497213	54.360	-0.190	0.190	-0.950	54.450	-1.300	-0.600																			1580011960.0	7.41	13.72
26/01/2020 04:12:41	26012020	260120	041241	54.490	12.520127	-57.497188	54.560	-0.410	0.210	-0.720	54.510	-1.200	-0.500																			1580011961.0	7.12	13.19
26/01/2020 04:12:42	26012020	260120	041242	54.660	12.520147	-57.497160	54.640	-0.370	-0.080	-0.270	54.700	-1.300	-0.100																			1580011962.0	7.12	13.19
26/01/2020 04:12:43	26012020	260120	041243	54.740	12.520165	-57.497132	54.500	-0.150	-0.380	0.400	54.720	-1.700	0.500																			1580011963.0	7.45	13.80
26/01/2020 04:12:44	26012020	260120	041244	54.590	12.520185	-57.497100	54.350	0.030	-0.530	1.070	54.540	-1.900	1.200																			1580011964.0	7.70	14.26
26/01/2020 04:12:45	26012020	260120	041245	54.420	12.520203	-57.497070	54.400	0.120	-0.530	1.400	54.400	-1.900	1.700																			1580011965.0	7.64	14.15
26/01/2020 04:12:46	26012020	260120	041246	54.450	12.520222	-57.497040	54.580	0.120	-0.300	1.320	54.490	-1.800	1.800																			1580011966.0	7.50	13.89
26/01/2020 04:12:47	26012020	260120	041247	54.650	12.520242	-57.497012	54.630	0.030	0.120	1.120	54.670	-1.500	1.600																			1580011967.0	7.37	13.65
26/01/2020 04:12:48	26012020	260120	041248	54.690	12.520262	-57.496985	54.520	-0.070	0.360	0.850	54.670	-1.100	1.400																			1580011968.0	7.13	13.20
26/01/2020 04:12:49	26012020	260120	041249	54.590	12.520283	-57.496960	54.450	-0.020	0.070	0.280	54.560	-1.100	1.000																			1580011969.0	7.02	13.00
26/01/2020 04:12:50	26012020	260120	041250	54.540	12.520307	-57.496933	54.510	0.220	-0.470	-0.430	54.550	-1.600	0.300																			1580011970.0	7.38	13.67
26/01/2020 04:12:51	26012020	260120	041251	54.620	12.520332	-57.496907	54.570	0.420	-0.700	-0.880	54.640	-2.100	-0.300																			1580011971.0	7.94	14.70
26/01/2020 04:12:52	26012020	260120	041252	54.700	12.520358	-57.496880	54.480	0.280	-0.400	-0.970	54.690	-2.000	-0.600																			1580011972.0	7.99	14.80
26/01/2020 04:12:53	26012020	260120	041253	54.600	12.520380	-57.496853	54.320	-0.180	0.170	-0.750	54.560	-1.500	-0.500																			1580011973.0	7.51	13.91
26/01/2020 04:12:54	26012020	260120	041254	54.440	12.520400	-57.496827	54.340	-0.570	0.360	-0.350	54.420	-1.000	-0.200																			1580011974.0	6.95	12.87
26/01/2020 04:12:55	26012020	260120	041255	54.440	12.520420	-57.496800	54.510	-0.550	-0.060	0.050	54.460	-1.200	0.300																			1580011975.0	6.85	12.69
26/01/2020 04:12:56	26012020	260120	041256	54.600	12.520438	-57.496772	54.710	-0.270	-0.430	0.420	54.640	-1.700	0.600																			1580011976.0	7.49	13.87
26/01/2020 04:12:57	26012020	260120	041257	54.780	12.520458	-57.496738	54.700	-0.080	-0.280	0.830	54.800	-1.800	1.000																			1580011977.0	7.97	14.76
26/01/2020 04:12:58	26012020	260120	041258	54.770	12.520477	-57.496708	54.480	-0.000	0.030	1.150	54.730	-1.500	1.400																			1580011978.0	7.56	14.00
26/01/2020 04:12:59	26012020	260120	041259	54.550	12.520493	-57.496680	54.300	0.190	-0.090	1.140	54.500	-1.400	1.600																			1580011979.0	6.97	12.91
26/01/2020 04:13:00	26012020	260120	041300	54.360	12.520513	-57.496653	54.310	0.580	-0.650	0.690	54.340	-1.800	1.300	1015.00	25.70	25.80	21.00	21.00	-1.00	75.00	74.00	386.00	25.20	3.00	8.90	59.00	5.10	14	3259.00	27.50	27.50	1580011980.0	7.07	13.09
26/01/2020 04:13:01	26012020	260120	041301	54.380	12.520537	-57.496627	54.350	0.810	-0.880	0.120	54.400	-2.300	0.800																			1580011981.0	7.82	14.48
26/01/2020 04:13:02	26012020	260120	041302	54.450	12.520565	-57.496598	54.290	0.540	-0.290	-0.220	54.450	-2.100	0.300																			1580011982.0	8.20	15.19
26/01/2020 04:13:03	26012020	260120	041303	54.400	12.520588	-57.496573	54.210	-0.160	0.630	-0.270	54.390	-1.200	0.100																			1580011983.0	7.58	14.04
26/01/2020 04:13:04	26012020	260120	041304	54.330	12.520610	-57.496550	54.200	-0.800	0.940	-0.170	54.320	-0.500	0.200																			1580011984.0	6.65	12.32
26/01/2020 04:13:05	26012020	260120	041305	54.300	12.520628	-57.496525	54.200	-0.880	0.260	-0.000	54.290	-0.700	0.300																			1580011985.0	6.51	12.06
26/01/2020 04:13:06	26012020	260120	041306	54.290	12.520648	-57.496497	54.240	-0.430	-0.780	0.190	54.300	-1.700	0.500																			1580011986.0	7.33	13.58
26/01/2020 04:13:07	26012020	260120	041307	54.320	12.520670	-57.496465	54.220	0.070	-1.140	0.460	54.330	-2.500	0.700																			1580011987.0	8.25	15.28
26/01/2020 04:13:08	26012020	260120	041308	54.300	12.520690	-57.496432	54.110	0.240	-0.630	0.630	54.280	-2.300	0.900																			1580011988.0	8.23	15.24
26/01/2020 04:13:09	26012020	260120	041309	54.200	12.520708	-57.496403	54.050	0.150	0.090	0.620	54.180	-1.600	1.000																			1580011989.0	7.28	13.48
26/01/2020 04:13:10	26012020	260120	041310	54.130	12.520728	-57.496378	54.030	0.070	0.350	0.460	54.120	-1.100	0.900																			1580011990.0	6.64	12.30
26/01/2020 04:13:11	26012020	260120	041311	54.120	12.520748	-57.496353	54.040	0.180	0.060	0.160	54.120	-1.200	0.700																			1580011991.0	6.83	12.65
26/01/2020 04:13:12	26012020	260120	041312	54.130	12.520772	-57.496328	54.000	0.340	-0.350	-0.070	54.130	-1.600	0.400																			1580011992.0	7.45	13.80
26/01/2020 04:13:13	26012020	260120	041313	54.100	12.520797	-57.496300	53.890	0.310	-0.430	-0.080	54.080	-1.800	0.300																			1580011993.0	7.91	14.65
26/01/2020 04:13:14	26012020	260120	041314	54.000	12.520820	-57.496273	53.890	0.050	-0.190	0.040	53.990	-1.700	0.400																			1580011994.0	7.77	14.39
26/01/2020 04:13:15	26012020	260120	041315	54.000	12.520842	-57.496245	54.050	-0.240	0.020	0.100	54.010	-1.500	0.500																			1580011995.0	7.28	13.48
26/01/2020 04:13:16	26012020	260120	041316	54.140	12.520862	-57.496218	54.210	-0.320	0.040	0.190	54.180	-1.400	0.500																			1580011996.0	7.05	13.06
26/01/2020 04:13:17	26012020	260120	041317	54.290	12.520882	-57.496192	54.230	-0.180	-0.050	0.370	54.310	-1.400	0.700																			1580011997.0	7.21	13.35
26/01/2020 04:13:18	26012020	260120	041318	54.310	12.520902	-57.496163	54.200	0.010	-0.160	0.540	54.310	-1.500	0.800																			1580011998.0	7.39	13.69
26/01/2020 04:13:19	26012020	260120	041319	54.270	12.520922	-57.496135	54.200	0.070	-0.280	0.640	54.270	-1.600	1.000																			1580011999.0	7.45	13.80
26/01/2020 04:13:20	26012020	260120	041320	54.270	12.520943	-57.496107	54.200	0.010	-0.360	0.620	54.280	-1.700	1.000																			1580012000.0	7.45	13.80
26/01/2020 04:13:21	26012020	260120	041321	54.280	12.520963	-57.496078	54.130	-0.040	-0.330	0.540	54.280	-1.800	1.000																			1580012001.0	7.43	13.76
26/01/2020 04:13:22	26012020	260120	041322	54.220	12.520985	-57.496052	54.060	-0.000	-0.240	0.390	54.200	-1.700	0.900																			1580012002.0	7.39	13.69
26/01/2020 04:13:23	26012020	260120	041323	54.150	12.521007	-57.496025	54.190	0.080	-0.170	0.080	54.160	-1.600	0.600																			1580012003.0	7.33	13.58
26/01/2020 04:13:24	26012020	260120	041324	54.280	12.521028	-57.495998	54.390	0.120	-0.130	-0.250	54.320	-1.600	0.300																			1580012004.0	7.34	13.59
26/01/2020 04:13:25	26012020	260120	041325	54.490	12.521052	-57.495972	54.380	0.040	0.030	-0.290	54.510	-1.400	0.100																			1580012005.0	7.43	13.76
26/01/2020 04:13:26	26012020	260120	041326	54.490	12.521073	-57.495945	54.260	-0.100	0.150	-0.140	54.490	-1.300	0.200																			1580012006.0	7.38	13.67
26/01/2020 04:13:27	26012020	260120	041327	54.360	12.521093	-57.495918	54.250	-0.110	-0.080	-0.070	54.340	-1.300	0.300																			1580012007.0	7.18	13.30
26/01/2020 04:13:28	26012020	260120	041328	54.340	12.521115	-57.495890	54.380	0.090	-0.460	-0.120	54.360	-1.700	0.300																			1580012008.0	7.33	13.58
26/01/2020 04:13:29	26012020	260120	041329	54.470	12.521137	-57.495862	54.460	0.240	-0.520	-0.000	54.500	-1.900	0.300																			1580012009.0	7.71	14.28
26/01/2020 04:13:30	26012020	260120	041330	54.550	12.521158	-57.495833	54.340	0.110	-0.180	0.380	54.540	-1.800	0.600																			1580012010.0	7.72	14.30
26/01/2020 04:13:31	26012020	260120	041331	54.430	12.521178	-57.495805	54.190	-0.190	0.110	0.740	54.390	-1.400	1.000																			1580012011.0	7.25	13.43
26/01/2020 04:13:32	26012020	260120	041332	54.270	12.521197	-57.495777	54.180	-0.320	-0.000	0.840	54.250	-1.300	1.200																			1580012012.0	6.94	12.85
26/01/2020 04:13:33	26012020	260120	041333	54.250	12.521217	-57.495750	54.240	-0.180	-0.260	0.690	54.260	-1.500	1.200																			1580012013.0	7.22	13.37
26/01/2020 04:13:34	26012020	260120	041334	54.320	12.521238	-57.495722	54.290	0.080	-0.400	0.480	54.330	-1.700	1.000																			1580012014.0	7.63	14.13
26/01/2020 04:13:35	26012020	260120	041335	54.370	12.521262	-57.495693	54.270	0.220	-0.340	0.340	54.370	-1.800	0.800																			1580012015.0	7.66	14.19
26/01/2020 04:13:36	26012020	260120	041336	54.360	12.521283	-57.495667	54.240	0.130	-0.070	0.200	54.360	-1.600	0.700																			1580012016.0	7.53	13.95
26/01/2020 04:13:37	26012020	260120	041337	54.330	12.521305	-57.495640	54.240	-0.070	0.200	0.030	54.330	-1.300	0.500																			1580012017.0	7.29	13.50
26/01/2020 04:13:38	26012020	260120	041338	54.330	12.521327	-57.495613	54.260	-0.130	0.110	-0.140	54.330	-1.200	0.300																			1580012018.0	7.05	13.06
26/01/2020 04:13:39	26012020	260120	041339	54.360	12.521347	-57.495588	54.270	0.040	-0.300	-0.160	54.360	-1.500	0.200																			1580012019.0	7.19	13.32
26/01/2020 04:13:40	26012020	260120	041340	54.380	12.521370	-57.495560	54.300	0.220	-0.600	-0.040	54.380	-1.900	0.300																			1580012020.0	7.61	14.09
26/01/2020 04:13:41	26012020	260120	041341	54.400	12.521392	-57.495530	54.280	0.190	-0.480	0.120	54.400	-2.000	0.400																			1580012021.0	7.85	14.54
26/01/2020 04:13:42	26012020	260120	041342	54.390	12.521413	-57.495502	54.300	0.000	-0.100	0.300	54.380	-1.700	0.600																			1580012022.0	7.55	13.98
26/01/2020 04:13:43	26012020	260120	041343	54.400	12.521433	-57.495475	54.360	-0.160	0.180	0.450	54.410	-1.300	0.800																			1580012023.0	7.12	13.19
26/01/2020 04:13:44	26012020	260120	041344	54.450	12.521452	-57.495448	54.320	-0.140	0.100	0.590	54.450	-1.200	0.900																			1580012024.0	6.99	12.95
26/01/2020 04:13:45	26012020	260120	041345	54.400	12.521472	-57.495420	54.220	-0.040	-0.190	0.650	54.390	-1.400	1.000																			1580012025.0	7.26	13.45
26/01/2020 04:13:46	26012020	260120	041346	54.310	12.521492	-57.495390	54.140	-0.010	-0.350	0.570	54.280	-1.700	1.000																			1580012026.0	7.65	14.17
26/01/2020 04:13:47	26012020	260120	041347	54.250	12.521515	-57.495362	54.180	-0.060	-0.310	0.430	54.240	-1.700	0.900																			1580012027.0	7.68	14.22
26/01/2020 04:13:48	26012020	260120	041348	54.270	12.521537	-57.495335	54.260	-0.040	-0.220	0.290	54.290	-1.600	0.700																			1580012028.0	7.42	13.74
26/01/2020 04:13:49	26012020	260120	041349	54.360	12.521560	-57.495310	54.310	0.050	-0.170	0.170	54.380	-1.600	0.600																			1580012029.0	7.28	13.48
26/01/2020 04:13:50	26012020	260120	041350	54.410	12.521580	-57.495282	54.240	0.040	-0.060	0.120	54.410	-1.600	0.600																			1580012030.0	7.37	13.65
26/01/2020 04:13:51	26012020	260120	041351	54.360	12.521602	-57.495255	54.220	-0.090	-0.010	0.020	54.340	-1.400	0.500																			1580012031.0	7.37	13.65
26/01/2020 04:13:52	26012020	260120	041352	54.320	12.521623	-57.495228	54.350	-0.150	-0.150	-0.140	54.330	-1.500	0.300																			1580012032.0	7.30	13.52
26/01/2020 04:13:53	26012020	260120	041353	54.440	12.521645	-57.495202	54.490	0.010	-0.290	-0.200	54.480	-1.600	0.200																			1580012033.0	7.39	13.69
26/01/2020 04:13:54	26012020	260120	041354	54.590	12.521667	-57.495173	54.440	0.260	-0.320	0.010	54.600	-1.700	0.300																			1580012034.0	7.55	13.98
26/01/2020 04:13:55	26012020	260120	041355	54.530	12.521687	-57.495145	54.250	0.420	-0.350	0.320	54.500	-1.700	0.600																			1580012035.0	7.51	13.91
26/01/2020 04:13:56	26012020	260120	041356	54.340	12.521708	-57.495115	54.120	0.400	-0.370	0.440	54.310	-1.800	0.800																			1580012036.0	7.46	13.82
26/01/2020 04:13:57	26012020	260120	041357	54.210	12.521728	-57.495087	54.090	0.170	-0.180	0.450	54.200	-1.700	0.800																			1580012037.0	7.55	13.98
26/01/2020 04:13:58	26012020	260120	041358	54.180	12.521752	-57.495060	54.210	-0.240	0.260	0.420	54.190	-1.400	0.800																			1580012038.0	7.51	13.91
26/01/2020 04:13:59	26012020	260120	041359	54.290	12.521772	-57.495033	54.400	-0.660	0.570	0.380	54.330	-0.900	0.800																			1580012039.0	7.16	13.26
26/01/2020 04:14:00	26012020	260120	041400	54.480	12.521792	-57.495008	54.490	-0.820	0.360	0.340	54.500	-0.900	0.700	1014.90	25.70	25.80	20.90	20.90	-1.00	74.00	74.00	386.00	25.20	4.00	8.90	61.00	5.10	14	3157.00	27.50	27.50	1580012040.0	6.87	12.72
26/01/2020 04:14:01	26012020	260120	041401	54.580	12.521812	-57.494982	54.520	-0.530	-0.380	0.330	54.590	-1.400	0.700																			1580012041.0	7.09	13.13
26/01/2020 04:14:02	26012020	260120	041402	54.600	12.521833	-57.494952	54.470	0.080	-1.100	0.380	54.600	-2.200	0.700																			1580012042.0	7.69	14.24
26/01/2020 04:14:03	26012020	260120	041403	54.560	12.521855	-57.494920	54.330	0.610	-1.170	0.400	54.540	-2.600	0.800																			1580012043.0	8.13	15.06
26/01/2020 04:14:04	26012020	260120	041404	54.430	12.521877	-57.494890	54.190	0.730	-0.480	0.270	54.400	-2.200	0.700																			1580012044.0	7.98	14.78
26/01/2020 04:14:05	26012020	260120	041405	54.290	12.521898	-57.494863	54.190	0.410	0.410	-0.040	54.280	-1.400	0.500																			1580012045.0	7.28	13.48
26/01/2020 04:14:06	26012020	260120	041406	54.290	12.521918	-57.494840	54.290	-0.010	0.750	-0.400	54.310	-0.700	0.200																			1580012046.0	6.67	12.35
26/01/2020 04:14:07	26012020	260120	041407	54.410	12.521940	-57.494817	54.400	-0.190	0.360	-0.630	54.440	-0.800	-0.200																			1580012047.0	6.76	12.52
26/01/2020 04:14:08	26012020	260120	041408	54.520	12.521965	-57.494792	54.370	-0.120	-0.270	-0.530	54.530	-1.400	-0.200																			1580012048.0	7.44	13.78
26/01/2020 04:14:09	26012020	260120	041409	54.490	12.521988	-57.494762	54.350	0.000	-0.730	-0.120	54.480	-1.900	0.100																			1580012049.0	7.97	14.76
26/01/2020 04:14:10	26012020	260120	041410	54.470	12.522010	-57.494732	54.450	-0.010	-0.750	0.320	54.480	-2.200	0.500																			1580012050.0	7.99	14.80
26/01/2020 04:14:11	26012020	260120	041411	54.550	12.522030	-57.494700	54.510	-0.160	-0.210	0.750	54.560	-1.900	0.900																			1580012051.0	7.73	14.32
26/01/2020 04:14:12	26012020	260120	041412	54.590	12.522047	-57.494672	54.510	-0.360	0.420	1.140	54.590	-1.200	1.400																			1580012052.0	7.19	13.32
26/01/2020 04:14:13	26012020	260120	041413	54.570	12.522062	-57.494645	54.470	-0.420	0.540	1.210	54.570	-0.800	1.600																			1580012053.0	6.69	12.39
26/01/2020 04:14:14	26012020	260120	041414	54.540	12.522080	-57.494617	54.440	-0.190	-0.040	0.870	54.530	-1.100	1.400																			1580012054.0	6.77	12.54
26/01/2020 04:14:15	26012020	260120	041415	54.530	12.522102	-57.494590	54.510	0.260	-0.790	0.280	54.530	-1.900	0.900																			1580012055.0	7.43	13.76
26/01/2020 04:14:16	26012020	260120	041416	54.600	12.522127	-57.494562	54.570	0.620	-1.000	-0.240	54.620	-2.400	0.400																			1580012056.0	8.11	15.02
26/01/2020 04:14:17	26012020	260120	041417	54.680	12.522153	-57.494535	54.580	0.620	-0.520	-0.410	54.690	-2.200	0.000																			1580012057.0	8.10	15.00
26/01/2020 04:14:18	26012020	260120	041418	54.710	12.522177	-57.494510	54.580	0.240	0.150	-0.250	54.710	-1.500	0.000																			1580012058.0	7.43	13.76
26/01/2020 04:14:19	26012020	260120	041419	54.710	12.522197	-57.494483	54.560	-0.290	0.480	-0.040	54.700	-1.000	0.300																			1580012059.0	6.84	12.67
26/01/2020 04:14:20	26012020	260120	041420	54.660	12.522215	-57.494458	54.490	-0.580	0.350	0.160	54.650	-0.900	0.400																			1580012060.0	6.86	12.70
26/01/2020 04:14:21	26012020	260120	041421	54.590	12.522235	-57.494430	54.470	-0.450	-0.100	0.350	54.570	-1.200	0.600																			1580012061.0	7.22	13.37
26/01/2020 04:14:22	26012020	260120	041422	54.560	12.522255	-57.494400	54.590	-0.090	-0.540	0.420	54.570	-1.700	0.800																			1580012062.0	7.59	14.06
26/01/2020 04:14:23	26012020	260120	041423	54.660	12.522277	-57.494370	54.770	0.170	-0.640	0.310	54.700	-2.000	0.700																			1580012063.0	7.84	14.52
26/01/2020 04:14:24	26012020	260120	041424	54.860	12.522298	-57.494340	54.860	0.240	-0.410	0.230	54.890	-1.900	0.600																			1580012064.0	7.66	14.19
26/01/2020 04:14:25	26012020	260120	041425	54.950	12.522318	-57.494313	54.760	0.260	-0.070	0.290	54.940	-1.600	0.600																			1580012065.0	7.31	13.54
26/01/2020 04:14:26	26012020	260120	041426	54.860	12.522338	-57.494287	54.610	0.230	0.180	0.360	54.820	-1.300	0.700																			1580012066.0	7.11	13.17
26/01/2020 04:14:27	26012020	260120	041427	54.700	12.522358	-57.494260	54.480	0.080	0.200	0.380	54.660	-1.200	0.800																			1580012067.0	7.12	13.19
26/01/2020 04:14:28	26012020	260120	041428	54.570	12.522380	-57.494233	54.480	-0.130	0.020	0.230	54.560	-1.300	0.700																			1580012068.0	7.26	13.45
26/01/2020 04:14:29	26012020	260120	041429	54.590	12.522403	-57.494207	54.620	-0.240	-0.330	0.030	54.610	-1.500	0.500																			1580012069.0	7.40	13.70
26/01/2020 04:14:30	26012020	260120	041430	54.720	12.522425	-57.494180	54.660	-0.220	-0.580	0.010	54.740	-1.900	0.400																			1580012070.0	7.55	13.98
26/01/2020 04:14:31	26012020	260120	041431	54.770	12.522447	-57.494150	54.580	-0.170	-0.470	0.130	54.770	-1.900	0.400																			1580012071.0	7.68	14.22
26/01/2020 04:14:32	26012020	260120	041432	54.680	12.522467	-57.494122	54.460	-0.080	-0.160	0.280	54.650	-1.700	0.600																			1580012072.0	7.47	13.83
26/01/2020 04:14:33	26012020	260120	041433	54.550	12.522485	-57.494093	54.410	0.090	-0.000	0.350	54.540	-1.400	0.700																			1580012073.0	7.13	13.20
26/01/2020 04:14:34	26012020	260120	041434	54.500	12.522505	-57.494067	54.420	0.290	-0.140	0.250	54.500	-1.400	0.700																			1580012074.0	7.10	13.15
26/01/2020 04:14:35	26012020	260120	041435	54.520	12.522527	-57.494038	54.400	0.390	-0.290	0.080	54.520	-1.600	0.500																			1580012075.0	7.46	13.82
26/01/2020 04:14:36	26012020	260120	041436	54.490	12.522550	-57.494012	54.310	0.290	-0.160	0.040	54.480	-1.600	0.400																			1580012076.0	7.73	14.32
26/01/2020 04:14:37	26012020	260120	041437	54.390	12.522573	-57.493983	54.230	0.040	0.130	0.100	54.380	-1.400	0.400																			1580012077.0	7.54	13.96
26/01/2020 04:14:38	26012020	260120	041438	54.330	12.522593	-57.493958	54.250	-0.180	0.170	0.220	54.330	-1.200	0.500																			1580012078.0	7.14	13.22
26/01/2020 04:14:39	26012020	260120	041439	54.340	12.522613	-57.493932	54.340	-0.230	-0.160	0.310	54.350	-1.400	0.600																			1580012079.0	7.07	13.09
26/01/2020 04:14:40	26012020	260120	041440	54.400	12.522635	-57.493903	54.360	-0.170	-0.540	0.470	54.420	-1.800	0.800																			1580012080.0	7.44	13.78
26/01/2020 04:14:41	26012020	260120	041441	54.430	12.522655	-57.493873	54.350	-0.150	-0.560	0.720	54.430	-2.000	1.000																			1580012081.0	7.77	14.39
26/01/2020 04:14:42	26012020	260120	041442	54.420	12.522675	-57.493843	54.370	-0.200	-0.140	0.900	54.420	-1.800	1.200																			1580012082.0	7.67	14.20
26/01/2020 04:14:43	26012020	260120	041443	54.430	12.522693	-57.493815	54.330	-0.240	0.240	0.870	54.430	-1.300	1.300																			1580012083.0	7.20	13.33
26/01/2020 04:14:44	26012020	260120	041444	54.390	12.522712	-57.493788	54.200	-0.050	0.070	0.630	54.380	-1.200	1.100																			1580012084.0	6.83	12.65
26/01/2020 04:14:45	26012020	260120	041445	54.270	12.522732	-57.493762	54.090	0.390	-0.500	0.230	54.250	-1.600	0.800																			1580012085.0	7.12	13.19
26/01/2020 04:14:46	26012020	260120	041446	54.180	12.522757	-57.493733	54.060	0.780	-0.800	-0.170	54.170	-2.100	0.400																			1580012086.0	7.86	14.56
26/01/2020 04:14:47	26012020	260120	041447	54.160	12.522782	-57.493705	54.090	0.730	-0.440	-0.460	54.160	-2.100	0.000																			1580012087.0	8.15	15.09
26/01/2020 04:14:48	26012020	260120	041448	54.180	12.522807	-57.493680	54.170	0.180	0.240	-0.570	54.200	-1.500	-0.200																			1580012088.0	7.68	14.22
26/01/2020 04:14:49	26012020	260120	041449	54.280	12.522828	-57.493655	54.290	-0.500	0.610	-0.390	54.300	-0.900	-0.100																			1580012089.0	6.95	12.87
26/01/2020 04:14:50	26012020	260120	041450	54.390	12.522848	-57.493630	54.320	-0.900	0.490	0.120	54.410	-0.800	0.200																			1580012090.0	6.78	12.56
26/01/2020 04:14:51	26012020	260120	041451	54.420	12.522867	-57.493602	54.300	-0.830	0.020	0.660	54.420	-1.100	0.800																			1580012091.0	7.13	13.20
26/01/2020 04:14:52	26012020	260120	041452	54.380	12.522885	-57.493572	54.300	-0.380	-0.590	0.990	54.380	-1.700	1.200																			1580012092.0	7.53	13.95
26/01/2020 04:14:53	26012020	260120	041453	54.380	12.522903	-57.493540	54.340	0.210	-1.010	1.110	54.390	-2.300	1.400																			1580012093.0	7.77	14.39
26/01/2020 04:14:54	26012020	260120	041454	54.430	12.522923	-57.493508	54.330	0.620	-0.950	1.100	54.440	-2.400	1.500																			1580012094.0	7.85	14.54
26/01/2020 04:14:55	26012020	260120	041455	54.400	12.522945	-57.493480	54.120	0.660	-0.390	0.930	54.380	-2.100	1.400																			1580012095.0	7.68	14.22
26/01/2020 04:14:56	26012020	260120	041456	54.210	12.522967	-57.493453	53.910	0.400	0.260	0.610	54.170	-1.400	1.200																			1580012096.0	7.26	13.45
26/01/2020 04:14:57	26012020	260120	041457	54.000	12.522987	-57.493428	53.840	0.070	0.510	0.160	53.980	-0.900	0.800																			1580012097.0	6.94	12.85
26/01/2020 04:14:58	26012020	260120	041458	53.930	12.523010	-57.493403	53.850	-0.170	0.270	-0.390	53.930	-1.000	0.200																			1580012098.0	7.05	13.06
26/01/2020 04:14:59	26012020	260120	041459	53.950	12.523033	-57.493378	53.920	-0.230	-0.160	-0.840	53.970	-1.400	-0.300																			1580012099.0	7.49	13.87
26/01/2020 04:15:00	26012020	260120	041500	54.040	12.523058	-57.493352	54.030	-0.180	-0.400	-0.920	54.060	-1.700	-0.500	1015.00	25.70	25.70	20.80	20.80	-1.00	74.00	74.00	386.00	25.20	5.00	8.40	64.00	4.70	14	3183.00	27.50	27.50	1580012100.0	7.82	14.48
26/01/2020 04:15:01	26012020	260120	041501	54.150	12.523082	-57.493323	54.090	-0.130	-0.360	-0.700	54.170	-1.800	-0.500																			1580012101.0	7.77	14.39
26/01/2020 04:15:02	26012020	260120	041502	54.210	12.523102	-57.493295	54.030	-0.110	-0.220	-0.260	54.200	-1.700	-0.100																			1580012102.0	7.45	13.80
26/01/2020 04:15:03	26012020	260120	041503	54.140	12.523122	-57.493267	53.870	-0.130	-0.080	0.340	54.100	-1.500	0.400																			1580012103.0	7.27	13.46
26/01/2020 04:15:04	26012020	260120	041504	53.970	12.523140	-57.493238	53.710	-0.170	-0.000	0.880	53.970	-1.500	0.600																			1580012104.0	7.26	13.45
26/01/2020 04:15:05	26012020	260120	041505	53.790	12.523158	-57.493210	53.680	-0.100	-0.100	1.210	53.770	-1.400	1.500																			1580012105.0	7.25	13.43
26/01/2020 04:15:06	26012020	260120	041506	53.750	12.523178	-57.493180	53.810	0.070	-0.310	1.250	53.760	-1.600	1.600																			1580012106.0	7.32	13.56
26/01/2020 04:15:07	26012020	260120	041507	53.870	12.523198	-57.493152	53.940	0.220	-0.470	1.070	53.900	-1.800	1.500																			1580012107.0	7.52	13.93
26/01/2020 04:15:08	26012020	260120	041508	54.000	12.523220	-57.493123	53.910	0.320	-0.500	0.830	54.010	-1.900	1.300																			1580012108.0	7.59	14.06
26/01/2020 04:15:09	26012020	260120	041509	54.000	12.523242	-57.493095	53.780	0.350	-0.370	0.590	53.980	-1.800	1.100																			1580012109.0	7.56	14.00
26/01/2020 04:15:10	26012020	260120	041510	53.870	12.523265	-57.493068	53.630	0.290	-0.140	0.280	53.840	-1.600	0.800																			1580012110.0	7.51	13.91
26/01/2020 04:15:11	26012020	260120	041511	53.720	12.523288	-57.493042	53.560	0.080	0.090	-0.110	53.700	-1.400	0.500																			1580012111.0	7.44	13.78
26/01/2020 04:15:12	26012020	260120	041512	53.660	12.523312	-57.493017	53.570	-0.210	0.240	-0.440	53.650	-1.200	0.100																			1580012112.0	7.41	13.72
26/01/2020 04:15:13	26012020	260120	041513	53.690	12.523335	-57.492990	53.680	-0.440	0.280	-0.610	53.700	-1.100	-0.200																			1580012113.0	7.37	13.65
26/01/2020 04:15:14	26012020	260120	041514	53.790	12.523357	-57.492965	53.840	-0.500	0.170	-0.540	53.820	-1.200	-0.200																			1580012114.0	7.33	13.58
26/01/2020 04:15:15	26012020	260120	041515	53.940	12.523378	-57.492938	53.970	-0.390	-0.080	-0.190	53.970	-1.300	-0.000																			1580012115.0	7.32	13.56
26/01/2020 04:15:16	26012020	260120	041516	54.060	12.523398	-57.492908	53.920	-0.170	-0.410	0.390	54.080	-1.600	0.500																			1580012116.0	7.41	13.72
26/01/2020 04:15:17	26012020	260120	041517	54.010	12.523417	-57.492878	53.690	0.100	-0.750	0.880	53.970	-2.000	1.100																			1580012117.0	7.53	13.95
26/01/2020 04:15:18	26012020	260120	041518	53.770	12.523435	-57.492847	53.500	0.350	-0.890	1.030	53.770	-2.100	1.200																			1580012118.0	7.68	14.22
26/01/2020 04:15:19	26012020	260120	041519	53.560	12.523457	-57.492818	53.520	0.530	-0.650	0.870	53.550	-2.200	1.400																			1580012119.0	7.71	14.28
26/01/2020 04:15:20	26012020	260120	041520	53.590	12.523478	-57.492790	53.650	0.490	-0.020	0.550	53.620	-1.700	1.100																			1580012120.0	7.56	14.00
26/01/2020 04:15:21	26012020	260120	041521	53.730	12.523502	-57.492765	53.690	0.180	0.550	0.250	53.750	-1.100	0.800																			1580012121.0	7.22	13.37
26/01/2020 04:15:22	26012020	260120	041522	53.770	12.523523	-57.492742	53.640	-0.150	0.520	0.050	53.770	-0.800	0.500																			1580012122.0	6.94	12.85
26/01/2020 04:15:23	26012020	260120	041523	53.740	12.523547	-57.492717	53.650	-0.210	-0.140	-0.050	53.740	-1.200	0.400																			1580012123.0	7.14	13.22
26/01/2020 04:15:24	26012020	260120	041524	53.750	12.523570	-57.492688	53.590	-0.130	-0.660	0.070	53.750	-1.900	0.400																			1580012124.0	7.82	14.48
26/01/2020 04:15:25	26012020	260120	041525	53.680	12.523593	-57.492657	53.380	-0.200	-0.470	0.320	53.650	-2.000	0.600																			1580012125.0	8.22	15.22
26/01/2020 04:15:26	26012020	260120	041526	53.480	12.523613	-57.492627	53.240	-0.390	0.120	0.440	53.430	-1.500	0.800																			1580012126.0	7.69	14.24
26/01/2020 04:15:27	26012020	260120	041527	53.340	12.523632	-57.492600	53.360	-0.380	0.330	0.350	53.340	-1.100	0.800																			1580012127.0	6.86	12.70
26/01/2020 04:15:28	26012020	260120	041528	53.450	12.523650	-57.492575	53.560	-0.040	-0.100	0.170	53.490	-1.200	0.600																			1580012128.0	6.73	12.46
26/01/2020 04:15:29	26012020	260120	041529	53.640	12.523672	-57.492548	53.650	0.390	-0.680	0.040	53.670	-1.800	0.500																			1580012129.0	7.39	13.69
26/01/2020 04:15:30	26012020	260120	041530	53.740	12.523697	-57.492520	53.610	0.540	-0.730	0.070	53.750	-2.200	0.400																			1580012130.0	8.02	14.85
26/01/2020 04:15:31	26012020	260120	041531	53.710	12.523720	-57.492490	53.480	0.270	-0.130	0.240	53.690	-1.800	0.500																			1580012131.0	7.92	14.67
26/01/2020 04:15:32	26012020	260120	041532	53.590	12.523740	-57.492465	53.410	-0.170	0.400	0.350	53.560	-1.200	0.700																			1580012132.0	7.14	13.22
26/01/2020 04:15:33	26012020	260120	041533	53.510	12.523760	-57.492440	53.490	-0.300	0.270	0.250	53.510	-1.000	0.700																			1580012133.0	6.67	12.35
26/01/2020 04:15:34	26012020	260120	041534	53.580	12.523782	-57.492415	53.570	-0.040	-0.300	0.160	53.600	-1.400	0.600																			1580012134.0	7.05	13.06
26/01/2020 04:15:35	26012020	260120	041535	53.660	12.523805	-57.492387	53.520	0.240	-0.600	0.340	53.660	-1.900	0.600																			1580012135.0	7.80	14.45
26/01/2020 04:15:36	26012020	260120	041536	53.610	12.523828	-57.492358	53.470	0.200	-0.460	0.600	53.590	-1.900	0.900																			1580012136.0	7.98	14.78
26/01/2020 04:15:37	26012020	260120	041537	53.540	12.523850	-57.492328	53.600	-0.070	-0.250	0.680	53.550	-1.700	1.000																			1580012137.0	7.50	13.89
26/01/2020 04:15:38	26012020	260120	041538	53.660	12.523870	-57.492302	53.840	-0.260	-0.140	0.560	53.700	-1.600	1.000																			1580012138.0	7.16	13.26
26/01/2020 04:15:39	26012020	260120	041539	53.900	12.523890	-57.492275	53.950	-0.250	0.030	0.430	53.940	-1.500	0.900																			1580012139.0	7.27	13.46
26/01/2020 04:15:40	26012020	260120	041540	54.020	12.523912	-57.492248	53.840	-0.140	0.220	0.380	54.010	-1.300	0.800																			1580012140.0	7.38	13.67
26/01/2020 04:15:41	26012020	260120	041541	53.920	12.523933	-57.492220	53.820	-0.050	0.200	0.230	53.900	-1.100	0.700																			1580012141.0	7.25	13.43
26/01/2020 04:15:42	26012020	260120	041542	53.900	12.523953	-57.492193	53.980	0.020	-0.110	-0.130	53.920	-1.300	0.400																			1580012142.0	7.22	13.37
26/01/2020 04:15:43	26012020	260120	041543	54.080	12.523977	-57.492167	54.040	0.110	-0.390	-0.460	54.110	-1.700	0.100																			1580012143.0	7.46	13.82
26/01/2020 04:15:44	26012020	260120	041544	54.160	12.524000	-57.492140	53.950	0.170	-0.410	-0.590	54.160	-1.800	-0.200																			1580012144.0	7.69	14.24
26/01/2020 04:15:45	26012020	260120	041545	54.080	12.524025	-57.492115	53.850	0.210	-0.370	-0.410	54.050	-1.800	-0.100																			1580012145.0	7.51	13.91
26/01/2020 04:15:46	26012020	260120	041546	53.970	12.524047	-57.492088	53.850	0.190	-0.390	-0.100	53.960	-1.800	0.200																			1580012146.0	7.30	13.52
26/01/2020 04:15:47	26012020	260120	041547	53.950	12.524068	-57.492062	53.920	0.090	-0.370	0.080	53.970	-1.800	0.400																			1580012147.0	7.37	13.65
26/01/2020 04:15:48	26012020	260120	041548	54.030	12.524088	-57.492033	54.040	-0.050	-0.250	0.300	54.040	-1.700	0.600																			1580012148.0	7.46	13.82
26/01/2020 04:15:49	26012020	260120	041549	54.120	12.524108	-57.492005	54.240	-0.180	-0.100	0.530	54.150	-1.600	0.800																			1580012149.0	7.43	13.76
26/01/2020 04:15:50	26012020	260120	041550	54.310	12.524128	-57.491977	54.470	-0.250	0.100	0.670	54.360	-1.400	1.000																			1580012150.0	7.38	13.67
26/01/2020 04:15:51	26012020	260120	041551	54.530	12.524148	-57.491948	54.500	-0.220	0.330	0.890	54.560	-1.200	1.200																			1580012151.0	7.35	13.61
26/01/2020 04:15:52	26012020	260120	041552	54.560	12.524168	-57.491920	54.380	-0.090	0.300	1.040	54.540	-1.000	1.400																			1580012152.0	7.19	13.32
26/01/2020 04:15:53	26012020	260120	041553	54.430	12.524187	-57.491892	54.280	0.130	-0.150	0.810	54.400	-1.300	1.300																			1580012153.0	7.16	13.26
26/01/2020 04:15:54	26012020	260120	041554	54.340	12.524208	-57.491863	54.300	0.340	-0.720	0.260	54.340	-1.500	1.200																			1580012154.0	7.51	13.91
26/01/2020 04:15:55	26012020	260120	041555	54.380	12.524233	-57.491837	54.460	0.380	-0.900	-0.410	54.400	-2.300	0.300																			1580012155.0	7.93	14.69
26/01/2020 04:15:56	26012020	260120	041556	54.560	12.524260	-57.491810	54.590	0.190	-0.460	-0.850	54.600	-2.100	-0.300																			1580012156.0	7.96	14.74
26/01/2020 04:15:57	26012020	260120	041557	54.720	12.524285	-57.491785	54.580	-0.170	0.250	-0.760	54.730	-1.500	-0.500																			1580012157.0	7.46	13.82
26/01/2020 04:15:58	26012020	260120	041558	54.700	12.524307	-57.491762	54.530	-0.430	0.550	-0.380	54.680	-0.900	-0.200																			1580012158.0	6.82	12.63
26/01/2020 04:15:59	26012020	260120	041559	54.640	12.524325	-57.491735	54.630	-0.390	0.110	-0.090	54.650	-1.000	0.200																			1580012159.0	6.74	12.48
26/01/2020 04:16:00	26012020	260120	041600	54.730	12.524343	-57.491707	54.650	-0.130	-0.540	0.230	54.750	-1.700	0.500	1014.90	25.70	25.80	20.90	20.90	-1.00	74.00	74.00	386.00	25.20	5.00	9.20	63.00	5.40	14	3268.00	27.50	27.50	1580012160.0	7.38	13.67
26/01/2020 04:16:01	26012020	260120	041601	54.750	12.524365	-57.491675	54.630	0.120	-0.710	0.520	54.750	-2.100	0.800																			1580012161.0	8.07	14.95
26/01/2020 04:16:02	26012020	260120	041602	54.720	12.524385	-57.491643	54.730	0.280	-0.490	0.650	54.720	-2.000	1.000																			1580012162.0	7.92	14.67
26/01/2020 04:16:03	26012020	260120	041603	54.810	12.524405	-57.491615	54.880	0.380	-0.190	0.600	54.840	-1.700	1.000																			1580012163.0	7.35	13.61
26/01/2020 04:16:04	26012020	260120	041604	54.950	12.524425	-57.491588	54.830	0.290	0.180	0.500	54.960	-1.400	0.900																			1580012164.0	7.17	13.28
26/01/2020 04:16:05	26012020	260120	041605	54.890	12.524447	-57.491562	54.660	-0.020	0.460	0.360	54.860	-1.000	0.800																			1580012165.0	7.17	13.28
26/01/2020 04:16:06	26012020	260120	041606	54.730	12.524467	-57.491537	54.660	-0.320	0.270	0.110	54.720	-1.000	0.600																			1580012166.0	7.04	13.04
26/01/2020 04:16:07	26012020	260120	041607	54.740	12.524490	-57.491512	54.820	-0.310	-0.350	-0.180	54.770	-1.400	0.300																			1580012167.0	7.20	13.33
26/01/2020 04:16:08	26012020	260120	041608	54.900	12.524513	-57.491483	54.900	-0.050	-0.810	-0.260	54.940	-2.000	0.100																			1580012168.0	7.74	14.33
26/01/2020 04:16:09	26012020	260120	041609	54.990	12.524538	-57.491455	54.800	0.150	-0.730	-0.040	54.980	-2.200	0.200																			1580012169.0	8.01	14.83
26/01/2020 04:16:10	26012020	260120	041610	54.890	12.524560	-57.491427	54.730	0.150	-0.310	0.210	54.870	-1.900	0.500																			1580012170.0	7.66	14.19
26/01/2020 04:16:11	26012020	260120	041611	54.810	12.524578	-57.491398	54.850	0.030	0.020	0.290	54.820	-1.500	0.700																			1580012171.0	7.16	13.26
26/01/2020 04:16:12	26012020	260120	041612	54.920	12.524597	-57.491372	55.050	-0.050	0.150	0.210	54.960	-1.300	0.600																			1580012172.0	7.03	13.02
26/01/2020 04:16:13	26012020	260120	041613	55.120	12.524618	-57.491343	55.190	-0.090	0.190	0.170	55.150	-1.200	0.600																			1580012173.0	7.24	13.41
26/01/2020 04:16:14	26012020	260120	041614	55.260	12.524638	-57.491317	55.260	-0.120	0.150	0.220	55.280	-1.200	0.600																			1580012174.0	7.39	13.69
26/01/2020 04:16:15	26012020	260120	041615	55.320	12.524660	-57.491288	55.260	-0.120	-0.040	0.250	55.320	-1.300	0.600																			1580012175.0	7.36	13.63
26/01/2020 04:16:16	26012020	260120	041616	55.320	12.524680	-57.491260	55.340	-0.050	-0.280	0.130	55.330	-1.600	0.600																			1580012176.0	7.40	13.70
26/01/2020 04:16:17	26012020	260120	041617	55.400	12.524702	-57.491233	55.480	0.070	-0.450	-0.020	55.430	-1.800	0.400																			1580012177.0	7.49	13.87
26/01/2020 04:16:18	26012020	260120	041618	55.550	12.524723	-57.491205	55.520	0.240	-0.580	-0.050	55.570	-1.900	0.300																			1580012178.0	7.49	13.87
26/01/2020 04:16:19	26012020	260120	041619	55.600	12.524745	-57.491178	55.400	0.390	-0.660	0.080	55.580	-2.000	0.400																			1580012179.0	7.46	13.82
26/01/2020 04:16:20	26012020	260120	041620	55.460	12.524767	-57.491148	55.280	0.320	-0.440	0.100	55.460	-2.100	0.500																			1580012180.0	7.61	14.09
26/01/2020 04:16:21	26012020	260120	041621	55.350	12.524788	-57.491120	55.360	0.010	0.060	0.040	55.340	-1.600	0.500																			1580012181.0	7.59	14.06
26/01/2020 04:16:22	26012020	260120	041622	55.420	12.524810	-57.491095	55.540	-0.320	0.490	0.080	55.450	-1.100	0.400																			1580012182.0	7.21	13.35
26/01/2020 04:16:23	26012020	260120	041623	55.600	12.524830	-57.491068	55.730	-0.490	0.490	0.200	55.640	-0.800	0.500																			1580012183.0	6.95	12.87
26/01/2020 04:16:24	26012020	260120	041624	55.790	12.524848	-57.491040	55.870	-0.430	0.060	0.260	55.820	-1.100	0.600																			1580012184.0	7.12	13.19
26/01/2020 04:16:25	26012020	260120	041625	55.940	12.524868	-57.491010	55.960	-0.200	-0.460	0.230	55.960	-1.600	0.600																			1580012185.0	7.53	13.95
26/01/2020 04:16:26	26012020	260120	041626	56.030	12.524888	-57.490980	55.940	0.080	-0.630	0.180	56.040	-2.000	0.600																			1580012186.0	7.83	14.50
26/01/2020 04:16:27	26012020	260120	041627	56.010	12.524910	-57.490950	55.790	0.280	-0.360	0.170	56.000	-1.900	0.600																			1580012187.0	7.74	14.33
26/01/2020 04:16:28	26012020	260120	041628	55.870	12.524930	-57.490923	55.600	0.360	-0.120	0.150	55.830	-1.600	0.600																			1580012188.0	7.30	13.52
26/01/2020 04:16:29	26012020	260120	041629	55.670	12.524952	-57.490898	55.510	0.400	-0.270	0.010	55.640	-1.600	0.500																			1580012189.0	7.04	13.04
26/01/2020 04:16:30	26012020	260120	041630	55.590	12.524973	-57.490872	55.630	0.340	-0.440	-0.230	55.600	-1.800	0.300																			1580012190.0	7.39	13.69
26/01/2020 04:16:31	26012020	260120	041631	55.710	12.524997	-57.490843	55.800	0.060	-0.210	-0.300	55.740	-1.800	0.100																			1580012191.0	7.79	14.43
26/01/2020 04:16:32	26012020	260120	041632	55.870	12.525018	-57.490815	55.850	-0.390	0.270	-0.110	55.890	-1.400	0.200																			1580012192.0	7.57	14.02
26/01/2020 04:16:33	26012020	260120	041633	55.930	12.525037	-57.490787	55.820	-0.730	0.520	0.220	55.930	-0.900	0.400																			1580012193.0	7.06	13.08
26/01/2020 04:16:34	26012020	260120	041634	55.890	12.525055	-57.490760	55.720	-0.650	0.160	0.590	55.880	-1.000	0.800																			1580012194.0	6.87	12.72
26/01/2020 04:16:35	26012020	260120	041635	55.780	12.525072	-57.490730	55.610	-0.170	-0.580	0.800	55.760	-1.600	1.100																			1580012195.0	7.27	13.46
26/01/2020 04:16:36	26012020	260120	041636	55.660	12.525092	-57.490698	55.550	0.400	-1.040	0.720	55.640	-2.300	1.200																			1580012196.0	7.94	14.70
26/01/2020 04:16:37	26012020	260120	041637	55.610	12.525113	-57.490667	55.550	0.690	-0.820	0.510	55.610	-2.400	1.000																			1580012197.0	8.14	15.08
26/01/2020 04:16:38	26012020	260120	041638	55.600	12.525135	-57.490638	55.480	0.570	-0.150	0.240	55.590	-1.900	0.800																			1580012198.0	7.71	14.28
26/01/2020 04:16:39	26012020	260120	041639	55.540	12.525157	-57.490612	55.380	0.180	0.490	-0.100	55.520	-1.200	0.400																			1580012199.0	7.13	13.20
26/01/2020 04:16:40	26012020	260120	041640	55.450	12.525178	-57.490588	55.320	-0.200	0.700	-0.320	55.440	-0.700	0.200																			1580012200.0	6.85	12.69
26/01/2020 04:16:41	26012020	260120	041641	55.390	12.525198	-57.490563	55.340	-0.340	0.330	-0.470	55.390	-0.800	-0.000																			1580012201.0	6.97	12.91
26/01/2020 04:16:42	26012020	260120	041642	55.430	12.525222	-57.490537	55.400	-0.210	-0.440	-0.470	55.440	-1.500	-0.100																			1580012202.0	7.36	13.63
26/01/2020 04:16:43	26012020	260120	041643	55.480	12.525243	-57.490507	55.310	0.020	-0.960	-0.120	55.480	-2.200	0.100																			1580012203.0	7.89	14.61
26/01/2020 04:16:44	26012020	260120	041644	55.390	12.525265	-57.490475	55.120	0.120	-0.810	0.390	55.350	-2.400	0.500																			1580012204.0	8.13	15.06
26/01/2020 04:16:45	26012020	260120	041645	55.200	12.525285	-57.490445	55.060	0.010	-0.200	0.790	55.160	-1.900	1.000																			1580012205.0	7.69	14.24
26/01/2020 04:16:46	26012020	260120	041646	55.110	12.525302	-57.490417	55.160	-0.200	0.350	0.970	55.110	-1.700	1.100																			1580012206.0	7.05	13.06
26/01/2020 04:16:47	26012020	260120	041647	55.200	12.525318	-57.490390	55.320	-0.350	0.440	0.870	55.230	-0.900	1.300																			1580012207.0	6.77	12.54
26/01/2020 04:16:48	26012020	260120	041648	55.370	12.525337	-57.490362	55.240	-0.250	0.060	0.740	55.380	-1.100	1.200																			1580012208.0	6.96	12.89
26/01/2020 04:16:49	26012020	260120	041649	55.310	12.525357	-57.490333	54.960	0.040	-0.400	0.690	55.260	-1.600	1.100																			1580012209.0	7.47	13.83
26/01/2020 04:16:50	26012020	260120	041650	55.020	12.525378	-57.490303	54.820	0.370	-0.740	0.430	54.970	-2.000	1.000																			1580012210.0	7.82	14.48
26/01/2020 04:16:51	26012020	260120	041651	54.890	12.525402	-57.490275	54.840	0.610	-0.840	0.000	54.890	-2.200	0.600																			1580012211.0	7.81	14.46
26/01/2020 04:16:52	26012020	260120	041652	54.920	12.525425	-57.490248	54.810	0.630	-0.480	-0.290	54.930	-2.100	0.200																			1580012212.0	7.76	14.37
26/01/2020 04:16:53	26012020	260120	041653	54.890	12.525448	-57.490222	54.710	0.330	0.160	-0.360	54.870	-1.500	0.000																			1580012213.0	7.55	13.98
26/01/2020 04:16:54	26012020	260120	041654	54.790	12.525470	-57.490195	54.710	-0.160	0.630	-0.260	54.780	-0.900	0.100																			1580012214.0	7.10	13.15
26/01/2020 04:16:55	26012020	260120	041655	54.780	12.525490	-57.490170	54.810	-0.560	0.610	-0.100	54.800	-0.700	0.200																			1580012215.0	6.90	12.78
26/01/2020 04:16:56	26012020	260120	041656	54.880	12.525510	-57.490143	54.880	-0.640	0.190	0.100	54.900	-1.000	0.400																			1580012216.0	7.10	13.15
26/01/2020 04:16:57	26012020	260120	041657	54.950	12.525530	-57.490115	54.850	-0.410	-0.410	0.360	54.950	-1.500	0.600																			1580012217.0	7.48	13.85
26/01/2020 04:16:58	26012020	260120	041658	54.940	12.525550	-57.490083	54.760	-0.100	-0.850	0.780	54.940	-1.700	0.700																			1580012218.0	7.77	14.39
26/01/2020 04:16:59	26012020	260120	041659	54.830	12.525570	-57.490052	54.640	0.090	-0.820	1.140	54.810	-2.300	1.400																			1580012219.0	7.87	14.58
26/01/2020 04:17:00	26012020	260120	041700	54.690	12.525588	-57.490022	54.570	0.120	-0.410	1.160	54.670	-2.000	1.600	1014.90	25.70	25.80	20.60	20.70	-1.00	73.00	73.00	386.00	25.20	4.00	8.40	63.00	4.60	14	3304.00	27.50	27.50	1580012220.0	7.60	14.08
26/01/2020 04:17:01	26012020	260120	041701	54.610	12.525607	-57.489993	54.540	0.110	0.030	0.920	54.600	-1.500	1.400																			1580012221.0	7.16	13.26
26/01/2020 04:17:02	26012020	260120	041702	54.590	12.525627	-57.489968	54.500	0.140	0.210	0.590	54.590	-1.200	1.100																			1580012222.0	6.97	12.91
26/01/2020 04:17:03	26012020	260120	041703	54.550	12.525648	-57.489942	54.310	0.230	0.060	0.260	54.520	-1.200	0.800																			1580012223.0	7.14	13.22
26/01/2020 04:17:04	26012020	260120	041704	54.380	12.525672	-57.489915	54.120	0.340	-0.270	-0.170	54.330	-1.500	0.400																			1580012224.0	7.48	13.85
26/01/2020 04:17:05	26012020	260120	041705	54.210	12.525695	-57.489888	54.030	0.360	-0.510	-0.580	54.180	-1.800	-0.000																			1580012225.0	7.77	14.39
26/01/2020 04:17:06	26012020	260120	041706	54.120	12.525720	-57.489860	53.980	0.210	-0.450	-0.730	54.110	-1.900	-0.300																			1580012226.0	7.88	14.59
26/01/2020 04:17:07	26012020	260120	041707	54.100	12.525743	-57.489832	54.040	-0.090	-0.040	-0.590	54.100	-1.700	-0.300																			1580012227.0	7.70	14.26
26/01/2020 04:17:08	26012020	260120	041708	54.150	12.525765	-57.489805	54.060	-0.410	0.440	-0.140	54.150	-1.200	0.000																			1580012228.0	7.28	13.48
26/01/2020 04:17:09	26012020	260120	041709	54.160	12.525783	-57.489778	54.030	-0.580	0.520	0.490	54.150	-0.800	0.600																			1580012229.0	6.90	12.78
26/01/2020 04:17:10	26012020	260120	041710	54.110	12.525800	-57.489752	53.990	-0.500	0.030	0.990	54.110	-1.100	1.200																			1580012230.0	6.94	12.85
26/01/2020 04:17:11	26012020	260120	041711	54.080	12.525818	-57.489720	53.910	-0.190	-0.620	1.310	54.060	-1.700	1.600																			1580012231.0	7.46	13.82
26/01/2020 04:17:12	26012020	260120	041712	53.970	12.525838	-57.489690	53.740	0.170	-0.910	1.460	53.970	-1.900	1.700																			1580012232.0	7.92	14.67
26/01/2020 04:17:13	26012020	260120	041713	53.810	12.525860	-57.489658	53.620	0.400	-0.710	1.420	53.780	-2.200	1.900																			1580012233.0	7.90	14.63
26/01/2020 04:17:14	26012020	260120	041714	53.690	12.525880	-57.489630	53.600	0.410	-0.310	1.070	53.670	-1.900	1.700																			1580012234.0	7.47	13.83
26/01/2020 04:17:15	26012020	260120	041715	53.680	12.525902	-57.489605	53.620	0.230	0.100	0.480	53.690	-1.500	1.200																			1580012235.0	7.18	13.30
26/01/2020 04:17:16	26012020	260120	041716	53.720	12.525925	-57.489580	53.590	-0.050	0.430	-0.020	53.720	-1.100	0.600																			1580012236.0	7.16	13.26
26/01/2020 04:17:17	26012020	260120	041717	53.690	12.525948	-57.489555	53.550	-0.200	0.390	-0.330	53.670	-0.900	0.200																			1580012237.0	7.15	13.24
26/01/2020 04:17:18	26012020	260120	041718	53.650	12.525970	-57.489530	53.520	-0.090	-0.160	-0.530	53.650	-1.300	-0.000																			1580012238.0	7.20	13.33
26/01/2020 04:17:19	26012020	260120	041719	53.640	12.525993	-57.489503	53.490	0.150	-0.790	-0.620	53.620	-1.900	-0.200																			1580012239.0	7.63	14.13
26/01/2020 04:17:20	26012020	260120	041720	53.580	12.526017	-57.489473	53.430	0.250	-0.890	-0.530	53.570	-2.300	-0.200																			1580012240.0	8.10	15.00
26/01/2020 04:17:21	26012020	260120	041721	53.520	12.526040	-57.489443	53.380	0.080	-0.240	-0.230	53.510	-2.000	0.000																			1580012241.0	7.99	14.80
26/01/2020 04:17:22	26012020	260120	041722	53.470	12.526060	-57.489415	53.370	-0.220	0.570	0.220	53.460	-1.200	0.400																			1580012242.0	7.25	13.43
26/01/2020 04:17:23	26012020	260120	041723	53.430	12.526078	-57.489390	53.360	-0.390	0.770	0.650	53.430	-0.600	0.900																			1580012243.0	6.57	12.17
26/01/2020 04:17:24	26012020	260120	041724	53.420	12.526095	-57.489365	53.370	-0.300	0.160	0.950	53.410	-0.900	1.200																			1580012244.0	6.65	12.32
26/01/2020 04:17:25	26012020	260120	041725	53.410	12.526115	-57.489335	53.320	-0.030	-0.700	1.170	53.410	-1.700	1.500																			1580012245.0	7.42	13.74
26/01/2020 04:17:26	26012020	260120	041726	53.360	12.526137	-57.489305	53.170	0.210	-1.150	1.320	53.330	-2.400	1.700																			1580012246.0	8.10	15.00
26/01/2020 04:17:27	26012020	260120	041727	53.200	12.526160	-57.489273	53.080	0.280	-0.870	1.250	53.170	-2.500	1.700																			1580012247.0	8.10	15.00
26/01/2020 04:17:28	26012020	260120	041728	53.120	12.526182	-57.489245	53.140	0.170	-0.150	0.980	53.120	-1.900	1.500																			1580012248.0	7.60	14.08
26/01/2020 04:17:29	26012020	260120	041729	53.180	12.526203	-57.489222	53.230	-0.020	0.420	0.600	53.200	-1.200	1.200																			1580012249.0	6.97	12.91
26/01/2020 04:17:30	26012020	260120	041730	53.290	12.526223	-57.489197	53.280	-0.140	0.480	0.190	53.310	-0.900	0.800																			1580012250.0	6.79	12.58
26/01/2020 04:17:31	26012020	260120	041731	53.360	12.526245	-57.489172	53.260	-0.100	0.120	-0.190	53.360	-1.100	0.400																			1580012251.0	7.11	13.17
26/01/2020 04:17:32	26012020	260120	041732	53.330	12.526268	-57.489145	53.150	0.030	-0.280	-0.390	53.320	-1.500	0.100																			1580012252.0	7.61	14.09
26/01/2020 04:17:33	26012020	260120	041733	53.230	12.526292	-57.489117	52.990	0.130	-0.490	-0.430	53.200	-1.800	-0.000																			1580012253.0	7.82	14.48
26/01/2020 04:17:34	26012020	260120	041734	53.080	12.526315	-57.489088	52.910	0.160	-0.440	-0.390	53.040	-1.900	-0.000																			1580012254.0	7.68	14.22
26/01/2020 04:17:35	26012020	260120	041735	52.970	12.526338	-57.489062	52.920	0.090	-0.190	-0.250	52.970	-1.700	0.100																			1580012255.0	7.45	13.80
26/01/2020 04:17:36	26012020	260120	041736	52.970	12.526360	-57.489035	53.010	-0.060	0.030	-0.030	52.990	-1.400	0.300																			1580012256.0	7.25	13.43
26/01/2020 04:17:37	26012020	260120	041737	53.080	12.526380	-57.489008	53.160	-0.210	0.040	0.200	53.100	-1.300	0.500																			1580012257.0	7.12	13.19
26/01/2020 04:17:38	26012020	260120	041738	53.220	12.526402	-57.488982	53.210	-0.250	-0.150	0.590	53.230	-1.500	0.800																			1580012258.0	7.24	13.41
26/01/2020 04:17:39	26012020	260120	041739	53.250	12.526422	-57.488953	53.090	-0.190	-0.240	1.080	53.230	-1.600	1.200																			1580012259.0	7.49	13.87
26/01/2020 04:17:40	26012020	260120	041740	53.100	12.526442	-57.488923	52.980	-0.090	-0.210	1.400	53.070	-1.600	1.700																			1580012260.0	7.59	14.06
26/01/2020 04:17:41	26012020	260120	041741	52.990	12.526460	-57.488895	53.050	0.050	-0.300	1.350	52.980	-1.600	1.800																			1580012261.0	7.40	13.70
26/01/2020 04:17:42	26012020	260120	041742	53.050	12.526480	-57.488867	53.210	0.230	-0.490	0.990	53.090	-1.800	1.600																			1580012262.0	7.33	13.58
26/01/2020 04:17:43	26012020	260120	041743	53.230	12.526503	-57.488838	53.190	0.310	-0.390	0.620	53.260	-1.900	1.200																			1580012263.0	7.59	14.06
26/01/2020 04:17:44	26012020	260120	041744	53.220	12.526527	-57.488812	52.960	0.160	0.010	0.270	53.190	-1.600	0.800																			1580012264.0	7.67	14.20
26/01/2020 04:17:45	26012020	260120	041745	53.010	12.526550	-57.488787	52.860	-0.080	0.310	-0.150	52.980	-1.200	0.500																			1580012265.0	7.30	13.52
26/01/2020 04:17:46	26012020	260120	041746	52.910	12.526573	-57.488762	52.940	-0.130	0.180	-0.600	52.920	-1.100	0.000																			1580012266.0	7.06	13.08
26/01/2020 04:17:47	26012020	260120	041747	53.010	12.526597	-57.488738	53.060	0.020	-0.230	-0.920	53.040	-1.400	-0.400																			1580012267.0	7.30	13.52
26/01/2020 04:17:48	26012020	260120	041748	53.140	12.526622	-57.488712	53.140	0.170	-0.550	-0.940	53.140	-1.600	-0.500																			1580012268.0	7.70	14.26
26/01/2020 04:17:49	26012020	260120	041749	53.210	12.526645	-57.488683	53.100	0.100	-0.470	-0.550	53.210	-2.000	-0.400																			1580012269.0	7.87	14.58
26/01/2020 04:17:50	26012020	260120	041750	53.150	12.526667	-57.488655	52.990	-0.200	-0.080	0.140	53.120	-1.700	0.200																			1580012270.0	7.63	14.13
26/01/2020 04:17:51	26012020	260120	041751	53.030	12.526687	-57.488627	53.040	-0.440	0.140	0.770	53.010	-1.300	0.900																			1580012271.0	7.16	13.26
26/01/2020 04:17:52	26012020	260120	041752	53.050	12.526705	-57.488600	53.220	-0.390	-0.070	1.100	53.090	-1.300	1.400																			1580012272.0	6.98	12.93
26/01/2020 04:17:53	26012020	260120	041753	53.230	12.526723	-57.488570	53.320	-0.120	-0.360	1.320	53.260	-1.600	1.600																			1580012273.0	7.35	13.61
26/01/2020 04:17:54	26012020	260120	041754	53.330	12.526743	-57.488540	53.330	0.120	-0.310	1.420	53.330	-1.800	1.800																			1580012274.0	7.75	14.35
26/01/2020 04:17:55	26012020	260120	041755	53.330	12.526763	-57.488510	53.310	0.170	-0.050	1.280	53.330	-1.600	1.800																			1580012275.0	7.62	14.11
26/01/2020 04:17:56	26012020	260120	041756	53.320	12.526785	-57.488483	53.260	0.140	0.070	0.860	53.320	-1.300	1.500																			1580012276.0	7.20	13.33
26/01/2020 04:17:57	26012020	260120	041757	53.280	12.526807	-57.488458	53.240	0.180	-0.090	0.280	53.270	-1.400	1.000																			1580012277.0	7.14	13.22
26/01/2020 04:17:58	26012020	260120	041758	53.280	12.526832	-57.488435	53.330	0.290	-0.380	-0.400	53.290	-1.600	0.300																			1580012278.0	7.45	13.80
26/01/2020 04:17:59	26012020	260120	041759	53.370	12.526858	-57.488410	53.410	0.330	-0.590	-0.960	53.390	-1.900	-0.400																			1580012279.0	7.76	14.37
26/01/2020 04:18:00	26012020	260120	041800	53.480	12.526885	-57.488383	53.450	0.220	-0.440	-1.030	53.480	-2.000	-0.500	1014.90	25.70	25.80	21.20	21.10	-1.00	75.00	75.00	386.00	25.20	4.00	8.60	60.00	4.80	14	3307.00	27.50	27.40	1580012280.0	7.85	14.54
26/01/2020 04:18:01	26012020	260120	041801	53.520	12.526908	-57.488357	53.370	-0.030	0.010	-0.620	53.510	-1.600	-0.500																			1580012281.0	7.62	14.11
26/01/2020 04:18:02	26012020	260120	041802	53.430	12.526930	-57.488330	53.280	-0.250	0.260	-0.100	53.400	-1.200	0.100																			1580012282.0	7.17	13.28
26/01/2020 04:18:03	26012020	260120	041803	53.330	12.526948	-57.488303	53.360	-0.230	-0.040	0.290	53.330	-1.300	0.500																			1580012283.0	6.99	12.95
26/01/2020 04:18:04	26012020	260120	041804	53.400	12.526968	-57.488275	53.570	-0.170	-0.350	0.580	53.430	-1.700	0.800																			1580012284.0	7.48	13.85
26/01/2020 04:18:05	26012020	260120	041805	53.600	12.526990	-57.488243	53.790	-0.330	-0.150	0.800	53.650	-1.700	1.100																			1580012285.0	7.95	14.72
26/01/2020 04:18:06	26012020	260120	041806	53.820	12.527008	-57.488215	53.840	-0.590	0.290	0.940	53.850	-1.300	1.300																			1580012286.0	7.55	13.98
26/01/2020 04:18:07	26012020	260120	041807	53.870	12.527027	-57.488188	53.720	-0.540	0.240	0.930	53.860	-1.000	1.300																			1580012287.0	6.85	12.69
26/01/2020 04:18:08	26012020	260120	041808	53.770	12.527047	-57.488162	53.650	0.060	-0.550	0.680	53.750	-1.500	1.200																			1580012288.0	6.85	12.69
26/01/2020 04:18:09	26012020	260120	041809	53.690	12.527070	-57.488133	53.630	0.840	-1.250	0.290	53.690	-2.400	0.900																			1580012289.0	7.71	14.28
26/01/2020 04:18:10	26012020	260120	041810	53.680	12.527097	-57.488105	53.620	1.130	-0.870	-0.050	53.690	-2.600	0.500																			1580012290.0	8.46	15.67
26/01/2020 04:18:11	26012020	260120	041811	53.690	12.527122	-57.488077	53.620	0.600	0.390	-0.280	53.690	-1.600	0.200																			1580012291.0	8.05	14.91
26/01/2020 04:18:12	26012020	260120	041812	53.700	12.527145	-57.488055	53.720	-0.320	1.230	-0.460	53.720	-0.400	0.000																			1580012292.0	6.71	12.43
26/01/2020 04:18:13	26012020	260120	041813	53.790	12.527163	-57.488033	53.900	-0.810	0.780	-0.560	53.830	-0.300	-0.100																			1580012293.0	6.02	11.15
26/01/2020 04:18:14	26012020	260120	041814	53.980	12.527185	-57.488010	54.060	-0.590	-0.470	-0.450	54.020	-1.300	-0.100																			1580012294.0	6.80	12.59
26/01/2020 04:18:15	26012020	260120	041815	54.120	12.527208	-57.487980	54.020	-0.050	-1.350	-0.080	54.120	-2.400	0.100																			1580012295.0	8.11	15.02
26/01/2020 04:18:16	26012020	260120	041816	54.090	12.527232	-57.487947	53.960	0.300	-1.300	0.390	54.070	-2.800	0.500																			1580012296.0	8.49	15.72
26/01/2020 04:18:17	26012020	260120	041817	54.010	12.527252	-57.487917	53.970	0.280	-0.500	0.870	54.000	-2.300	1.000																			1580012297.0	7.85	14.54
26/01/2020 04:18:18	26012020	260120	041818	54.000	12.527270	-57.487888	54.030	-0.020	0.450	1.070	54.010	-1.400	1.400																			1580012298.0	7.03	13.02
26/01/2020 04:18:19	26012020	260120	041819	54.060	12.527287	-57.487863	54.170	-0.350	0.950	0.820	54.090	-0.600	1.400																			1580012299.0	6.51	12.06
26/01/2020 04:18:20	26012020	260120	041820	54.210	12.527305	-57.487838	54.340	-0.430	0.670	0.330	54.240	-0.500	0.900																			1580012300.0	6.54	12.11
26/01/2020 04:18:21	26012020	260120	041821	54.380	12.527328	-57.487815	54.460	-0.140	-0.160	-0.110	54.410	-1.100	0.400																			1580012301.0	7.09	13.13
26/01/2020 04:18:22	26012020	260120	041822	54.500	12.527353	-57.487787	54.470	0.300	-0.950	-0.360	54.510	-2.000	0.100																			1580012302.0	7.78	14.41
26/01/2020 04:18:23	26012020	260120	041823	54.520	12.527378	-57.487758	54.460	0.580	-1.150	-0.500	54.520	-2.500	-0.100																			1580012303.0	8.15	15.09
26/01/2020 04:18:24	26012020	260120	041824	54.510	12.527402	-57.487730	54.490	0.530	-0.640	-0.450	54.510	-2.600	-0.100																			1580012304.0	7.92	14.67
26/01/2020 04:18:25	26012020	260120	041825	54.540	12.527423	-57.487703	54.560	0.170	0.210	-0.180	54.550	-1.600	0.100																			1580012305.0	7.29	13.50
26/01/2020 04:18:26	26012020	260120	041826	54.600	12.527443	-57.487678	54.670	-0.300	0.790	0.080	54.600	-1.300	0.200																			1580012306.0	6.66	12.33
26/01/2020 04:18:27	26012020	260120	041827	54.710	12.527460	-57.487653	54.840	-0.590	0.660	0.200	54.740	-0.600	0.500																			1580012307.0	6.51	12.06
26/01/2020 04:18:28	26012020	260120	041828	54.880	12.527480	-57.487628	54.980	-0.490	-0.070	0.340	54.900	-1.100	0.600																			1580012308.0	6.88	12.74
26/01/2020 04:18:29	26012020	260120	041829	55.020	12.527500	-57.487600	55.070	-0.050	-0.840	0.500	55.040	-1.900	0.800																			1580012309.0	7.54	13.96
26/01/2020 04:18:30	26012020	260120	041830	55.100	12.527523	-57.487568	55.050	0.340	-1.030	0.690	55.110	-2.400	1.000																			1580012310.0	8.00	14.82
26/01/2020 04:18:31	26012020	260120	041831	55.070	12.527543	-57.487538	55.000	0.400	-0.610	0.690	55.050	-2.200	1.100																			1580012311.0	7.84	14.52
26/01/2020 04:18:32	26012020	260120	041832	55.020	12.527563	-57.487512	55.060	0.210	-0.030	0.510	55.020	-1.700	1.000																			1580012312.0	7.21	13.35
26/01/2020 04:18:33	26012020	260120	041833	55.080	12.527583	-57.487487	55.200	0.010	0.270	0.230	55.100	-1.200	0.700																			1580012313.0	6.78	12.56
26/01/2020 04:18:34	26012020	260120	041834	55.230	12.527603	-57.487462	55.300	-0.060	0.200	-0.100	55.270	-1.100	0.400																			1580012314.0	6.86	12.70
26/01/2020 04:18:35	26012020	260120	041835	55.350	12.527625	-57.487435	55.320	-0.040	-0.070	-0.450	55.370	-1.300	0.100																			1580012315.0	7.24	13.41
26/01/2020 04:18:36	26012020	260120	041836	55.400	12.527648	-57.487407	55.340	-0.010	-0.250	-0.650	55.400	-1.600	-0.200																			1580012316.0	7.58	14.04
26/01/2020 04:18:37	26012020	260120	041837	55.420	12.527672	-57.487380	55.340	-0.010	-0.210	-0.600	55.420	-1.600	-0.300																			1580012317.0	7.64	14.15
26/01/2020 04:18:38	26012020	260120	041838	55.420	12.527695	-57.487353	55.310	-0.020	-0.030	-0.310	55.420	-1.500	-0.100																			1580012318.0	7.40	13.70
26/01/2020 04:18:39	26012020	260120	041839	55.380	12.527715	-57.487327	55.290	-0.060	0.060	0.030	55.380	-1.300	0.300																			1580012319.0	7.15	13.24
26/01/2020 04:18:40	26012020	260120	041840	55.350	12.527733	-57.487298	55.350	-0.110	-0.170	0.320	55.350	-1.400	0.600																			1580012320.0	7.04	13.04
26/01/2020 04:18:41	26012020	260120	041841	55.400	12.527752	-57.487270	55.530	-0.070	-0.570	0.480	55.430	-1.800	0.800																			1580012321.0	7.21	13.35
26/01/2020 04:18:42	26012020	260120	041842	55.590	12.527772	-57.487242	55.730	0.050	-0.630	0.600	55.630	-2.100	0.900																			1580012322.0	7.59	14.06
26/01/2020 04:18:43	26012020	260120	041843	55.790	12.527792	-57.487212	55.780	0.120	-0.170	0.850	55.820	-1.800	1.100																			1580012323.0	7.64	14.15
26/01/2020 04:18:44	26012020	260120	041844	55.840	12.527812	-57.487183	55.620	0.060	0.250	1.080	55.820	-1.300	1.400																			1580012324.0	7.14	13.22
26/01/2020 04:18:45	26012020	260120	041845	55.680	12.527828	-57.487157	55.410	-0.030	0.160	0.960	55.640	-1.100	1.400																			1580012325.0	6.77	12.54
26/01/2020 04:18:46	26012020	260120	041846	55.490	12.527848	-57.487130	55.340	0.020	-0.280	0.460	55.460	-1.500	1.100																			1580012326.0	7.06	13.08
26/01/2020 04:18:47	26012020	260120	041847	55.430	12.527870	-57.487103	55.450	0.180	-0.540	-0.160	55.440	-1.900	0.500																			1580012327.0	7.63	14.13
26/01/2020 04:18:48	26012020	260120	041848	55.550	12.527895	-57.487075	55.600	0.230	-0.390	-0.640	55.580	-1.900	-0.100																			1580012328.0	7.83	14.50
26/01/2020 04:18:49	26012020	260120	041849	55.700	12.527918	-57.487050	55.690	0.110	-0.040	-0.840	55.730	-1.600	-0.400																			1580012329.0	7.52	13.93
26/01/2020 04:18:50	26012020	260120	041850	55.790	12.527940	-57.487023	55.720	-0.060	0.130	-0.780	55.800	-1.300	-0.500																			1580012330.0	7.10	13.15
26/01/2020 04:18:51	26012020	260120	041851	55.820	12.527962	-57.486998	55.680	-0.140	0.040	-0.410	55.820	-1.300	-0.200																			1580012331.0	7.05	13.06
26/01/2020 04:18:52	26012020	260120	041852	55.770	12.527982	-57.486970	55.630	-0.100	-0.180	0.100	55.750	-1.500	0.200																			1580012332.0	7.27	13.46
26/01/2020 04:18:53	26012020	260120	041853	55.700	12.528000	-57.486940	55.680	-0.050	-0.310	0.440	55.700	-1.700	0.700																			1580012333.0	7.48	13.85
26/01/2020 04:18:54	26012020	260120	041854	55.740	12.528018	-57.486910	55.800	-0.060	-0.290	0.590	55.770	-1.700	0.900																			1580012334.0	7.49	13.87
26/01/2020 04:18:55	26012020	260120	041855	55.870	12.528037	-57.486882	55.810	-0.110	-0.180	0.750	55.890	-1.600	1.000																			1580012335.0	7.33	13.58
26/01/2020 04:18:56	26012020	260120	041856	55.870	12.528055	-57.486853	55.600	-0.140	-0.070	0.960	55.840	-1.500	1.200																			1580012336.0	7.22	13.37
26/01/2020 04:18:57	26012020	260120	041857	55.670	12.528075	-57.486825	55.410	-0.100	-0.060	0.970	55.620	-1.400	1.400																			1580012337.0	7.19	13.32
26/01/2020 04:18:58	26012020	260120	041858	55.490	12.528093	-57.486797	55.390	0.060	-0.230	0.640	55.460	-1.500	1.200																			1580012338.0	7.22	13.37
26/01/2020 04:18:59	26012020	260120	041859	55.460	12.528117	-57.486770	55.440	0.230	-0.410	0.190	55.480	-1.700	0.800																			1580012339.0	7.41	13.72
26/01/2020 04:19:00	26012020	260120	041900	55.540	12.528140	-57.486743	55.470	0.270	-0.370	-0.140	55.550	-1.800	0.400	1014.90	25.70	25.80	21.00	21.00	-1.00	75.00	75.00	386.00	25.20	4.00	9.00	61.00	5.30	14	3297.00	27.50	27.40	1580012340.0	7.62	14.11
26/01/2020 04:19:01	26012020	260120	041901	55.570	12.528162	-57.486717	55.430	0.160	-0.170	-0.260	55.570	-1.700	0.200																			1580012341.0	7.52	13.93
26/01/2020 04:19:02	26012020	260120	041902	55.540	12.528183	-57.486690	55.350	-0.040	-0.030	-0.280	55.520	-1.500	0.100																			1580012342.0	7.29	13.50
26/01/2020 04:19:03	26012020	260120	041903	55.460	12.528205	-57.486662	55.330	-0.220	0.030	-0.210	55.450	-1.400	0.100																			1580012343.0	7.21	13.35
26/01/2020 04:19:04	26012020	260120	041904	55.430	12.528223	-57.486635	55.370	-0.270	0.000	-0.060	55.430	-1.400	0.200																			1580012344.0	7.26	13.45
26/01/2020 04:19:05	26012020	260120	041905	55.450	12.528243	-57.486607	55.440	-0.170	-0.140	0.170	55.460	-1.500	0.400																			1580012345.0	7.30	13.52
26/01/2020 04:19:06	26012020	260120	041906	55.510	12.528262	-57.486577	55.430	-0.010	-0.240	0.360	55.520	-1.600	0.600																			1580012346.0	7.42	13.74
26/01/2020 04:19:07	26012020	260120	041907	55.500	12.528282	-57.486547	55.290	0.130	-0.230	0.560	55.490	-1.600	0.800																			1580012347.0	7.47	13.83
26/01/2020 04:19:08	26012020	260120	041908	55.340	12.528302	-57.486518	55.060	0.220	-0.270	0.750	55.300	-1.600	1.100																			1580012348.0	7.36	13.63
26/01/2020 04:19:09	26012020	260120	041909	55.110	12.528322	-57.486490	54.930	0.270	-0.370	0.690	55.070	-1.700	1.100																			1580012349.0	7.34	13.59
26/01/2020 04:19:10	26012020	260120	041910	54.990	12.528343	-57.486463	55.010	0.250	-0.360	0.400	54.990	-1.800	0.900																			1580012350.0	7.48	13.85
26/01/2020 04:19:11	26012020	260120	041911	55.060	12.528367	-57.486437	55.100	0.110	-0.120	0.270	55.090	-1.700	0.700																			1580012351.0	7.55	13.98
26/01/2020 04:19:12	26012020	260120	041912	55.160	12.528388	-57.486408	55.030	-0.230	0.230	0.410	55.160	-1.300	0.700																			1580012352.0	7.35	13.61
26/01/2020 04:19:13	26012020	260120	041913	55.100	12.528407	-57.486382	54.910	-0.580	0.270	0.410	55.060	-1.100	0.800																			1580012353.0	7.06	13.08
26/01/2020 04:19:14	26012020	260120	041914	54.970	12.528427	-57.486355	54.940	-0.550	-0.190	0.180	54.960	-1.300	0.700																			1580012354.0	7.02	13.00
26/01/2020 04:19:15	26012020	260120	041915	54.990	12.528447	-57.486327	55.040	-0.110	-0.670	0.020	55.020	-1.900	0.400																			1580012355.0	7.47	13.83
26/01/2020 04:19:16	26012020	260120	041916	55.110	12.528470	-57.486297	55.040	0.250	-0.580	0.010	55.120	-2.100	0.400																			1580012356.0	7.95	14.72
26/01/2020 04:19:17	26012020	260120	041917	55.100	12.528492	-57.486268	54.850	0.200	-0.010	0.080	55.090	-1.700	0.400																			1580012357.0	7.73	14.32
26/01/2020 04:19:18	26012020	260120	041918	54.920	12.528510	-57.486242	54.590	-0.050	0.380	0.280	54.870	-1.100	0.600																			1580012358.0	7.01	12.98
26/01/2020 04:19:19	26012020	260120	041919	54.650	12.528528	-57.486215	54.530	-0.090	0.110	0.240	54.620	-1.100	0.700																			1580012359.0	6.68	12.37
26/01/2020 04:19:20	26012020	260120	041920	54.570	12.528550	-57.486188	54.630	0.140	-0.500	-0.050	54.590	-1.600	0.500																			1580012360.0	7.14	13.22
26/01/2020 04:19:21	26012020	260120	041921	54.670	12.528573	-57.486160	54.620	0.360	-0.710	-0.110	54.680	-2.100	0.300																			1580012361.0	7.87	14.58
26/01/2020 04:19:22	26012020	260120	041922	54.670	12.528597	-57.486132	54.540	0.290	-0.360	0.100	54.660	-2.000	0.400																			1580012362.0	7.95	14.72
26/01/2020 04:19:23	26012020	260120	041923	54.590	12.528618	-57.486105	54.480	0.020	0.030	0.320	54.570	-1.500	0.600																			1580012363.0	7.31	13.54
26/01/2020 04:19:24	26012020	260120	041924	54.520	12.528638	-57.486078	54.480	-0.190	0.150	0.470	54.510	-1.300	0.800																			1580012364.0	6.93	12.83
26/01/2020 04:19:25	26012020	260120	041925	54.490	12.528657	-57.486052	54.520	-0.230	0.030	0.610	54.490	-1.300	0.900																			1580012365.0	7.11	13.17
26/01/2020 04:19:26	26012020	260120	041926	54.510	12.528678	-57.486023	54.610	-0.160	-0.190	0.680	54.530	-1.500	1.000																			1580012366.0	7.39	13.69
26/01/2020 04:19:27	26012020	260120	041927	54.600	12.528698	-57.485995	54.660	-0.100	-0.340	0.650	54.620	-1.700	1.000																			1580012367.0	7.55	13.98
26/01/2020 04:19:28	26012020	260120	041928	54.650	12.528718	-57.485965	54.660	-0.120	-0.240	0.610	54.660	-1.700	1.000																			1580012368.0	7.56	14.00
26/01/2020 04:19:29	26012020	260120	041929	54.650	12.528740	-57.485938	54.590	-0.190	-0.020	0.610	54.650	-1.500	1.000																			1580012369.0	7.39	13.69
26/01/2020 04:19:30	26012020	260120	041930	54.600	12.528760	-57.485912	54.480	-0.220	0.050	0.500	54.580	-1.400	0.900																			1580012370.0	7.10	13.15
26/01/2020 04:19:31	26012020	260120	041931	54.490	12.528780	-57.485885	54.320	-0.100	-0.160	0.270	54.460	-1.400	0.800																			1580012371.0	7.08	13.11
26/01/2020 04:19:32	26012020	260120	041932	54.340	12.528802	-57.485857	54.270	0.160	-0.540	-0.080	54.320	-1.800	0.500																			1580012372.0	7.35	13.61
26/01/2020 04:19:33	26012020	260120	041933	54.280	12.528825	-57.485830	54.420	0.410	-0.790	-0.530	54.300	-2.100	0.100																			1580012373.0	7.68	14.22
26/01/2020 04:19:34	26012020	260120	041934	54.440	12.528848	-57.485802	54.610	0.430	-0.470	-0.840	54.490	-2.100	-0.400																			1580012374.0	7.89	14.61
26/01/2020 04:19:35	26012020	260120	041935	54.650	12.528872	-57.485775	54.580	0.160	0.370	-0.730	54.670	-1.500	-0.500																			1580012375.0	7.64	14.15
26/01/2020 04:19:36	26012020	260120	041936	54.610	12.528893	-57.485750	54.370	-0.170	0.920	-0.270	54.570	-0.600	-0.100																			1580012376.0	6.87	12.72
26/01/2020 04:19:37	26012020	260120	041937	54.380	12.528912	-57.485727	54.320	-0.200	0.390	0.100	54.350	-0.600	0.300																			1580012377.0	6.41	11.87
26/01/2020 04:19:38	26012020	260120	041938	54.330	12.528932	-57.485700	54.410	0.020	-0.750	0.380	54.340	-1.600	0.600																			1580012378.0	7.05	13.06
26/01/2020 04:19:39	26012020	260120	041939	54.400	12.528953	-57.485668	54.400	0.140	-1.260	0.670	54.410	-2.600	0.900																			1580012379.0	8.21	15.20
26/01/2020 04:19:40	26012020	260120	041940	54.390	12.528977	-57.485635	54.270	-0.030	-0.720	1.060	54.390	-2.700	1.000																			1580012380.0	8.36	15.48
26/01/2020 04:19:41	26012020	260120	041941	54.260	12.528995	-57.485607	54.170	-0.310	0.170	1.370	54.230	-1.600	1.600																			1580012381.0	7.39	13.69
26/01/2020 04:19:42	26012020	260120	041942	54.160	12.529012	-57.485582	54.140	-0.440	0.540	1.280	54.150	-1.000	1.700																			1580012382.0	6.51	12.06
26/01/2020 04:19:43	26012020	260120	041943	54.110	12.529030	-57.485555	54.130	-0.290	0.260	0.840	54.110	-1.000	1.400																			1580012383.0	6.58	12.19
26/01/2020 04:19:44	26012020	260120	041944	54.110	12.529052	-57.485528	54.160	-0.000	-0.170	0.280	54.120	-1.400	0.900																			1580012384.0	7.30	13.52
26/01/2020 04:19:45	26012020	260120	041945	54.170	12.529075	-57.485500	54.200	0.180	-0.280	-0.250	54.190	-1.700	0.400																			1580012385.0	7.82	14.48
26/01/2020 04:19:46	26012020	260120	041946	54.210	12.529098	-57.485475	54.090	0.250	-0.260	-0.660	54.200	-1.700	-0.100																			1580012386.0	7.64	14.15
26/01/2020 04:19:47	26012020	260120	041947	54.120	12.529122	-57.485450	53.980	0.360	-0.430	-0.870	54.090	-1.700	-0.400																			1580012387.0	7.23	13.39
26/01/2020 04:19:48	26012020	260120	041948	54.000	12.529145	-57.485423	53.910	0.430	-0.650	-0.900	53.980	-2.000	-0.500																			1580012388.0	7.31	13.54
26/01/2020 04:19:49	26012020	260120	041949	53.930	12.529168	-57.485397	53.900	0.320	-0.520	-0.720	53.930	-2.000	-0.500																			1580012389.0	7.63	14.13
26/01/2020 04:19:50	26012020	260120	041950	53.920	12.529192	-57.485370	53.890	0.030	0.030	-0.310	53.920	-1.700	-0.200																			1580012390.0	7.58	14.04
26/01/2020 04:19:51	26012020	260120	041951	53.910	12.529213	-57.485343	53.920	-0.320	0.580	0.320	53.910	-1.100	0.400																			1580012391.0	7.12	13.19
26/01/2020 04:19:52	26012020	260120	041952	53.930	12.529230	-57.485317	54.000	-0.550	0.560	0.940	53.930	-0.800	1.100																			1580012392.0	6.75	12.50
26/01/2020 04:19:53	26012020	260120	041953	53.990	12.529248	-57.485290	54.160	-0.540	-0.090	1.290	54.020	-1.200	1.500																			1580012393.0	6.94	12.85
26/01/2020 04:19:54	26012020	260120	041954	54.140	12.529267	-57.485258	54.250	-0.280	-0.760	1.450	54.160	-1.900	1.800																			1580012394.0	7.55	13.98
26/01/2020 04:19:55	26012020	260120	041955	54.220	12.529287	-57.485227	54.180	0.020	-0.800	1.480	54.220	-2.300	1.900																			1580012395.0	8.00	14.82
26/01/2020 04:19:56	26012020	260120	041956	54.170	12.529307	-57.485197	54.050	0.210	-0.340	1.260	54.150	-2.000	1.800																			1580012396.0	7.71	14.28
26/01/2020 04:19:57	26012020	260120	041957	54.040	12.529327	-57.485172	53.930	0.300	0.040	0.700	54.010	-1.500	1.400																			1580012397.0	7.05	13.06
26/01/2020 04:19:58	26012020	260120	041958	53.930	12.529348	-57.485147	53.910	0.370	0.020	-0.070	53.930	-1.300	0.700																			1580012398.0	6.87	12.72
26/01/2020 04:19:59	26012020	260120	041959	53.930	12.529373	-57.485123	53.960	0.410	-0.180	-0.780	53.940	-1.500	-0.100																			1580012399.0	7.30	13.52
26/01/2020 04:20:00	26012020	260120	042000	54.000	12.529400	-57.485098	54.040	0.300	-0.230	-1.240	54.010	-1.700	-0.700	1014.80	25.70	25.70	20.50	20.60	-1.00	73.00	73.00	385.00	25.20	5.00	9.40	63.00	5.60	14	3339.00	27.50	27.50	1580012400.0	7.71	14.28
26/01/2020 04:20:01	26012020	260120	042001	54.080	12.529425	-57.485073	54.120	0.010	-0.070	-1.240	54.090	-1.600	-0.900																			1580012401.0	7.71	14.28
26/01/2020 04:20:02	26012020	260120	042002	54.150	12.529448	-57.485048	54.190	-0.290	0.020	-0.850	54.160	-1.400	-0.700																			1580012402.0	7.33	13.58
26/01/2020 04:20:03	26012020	260120	042003	54.210	12.529468	-57.485022	54.240	-0.420	-0.090	-0.240	54.210	-1.400	-0.200																			1580012403.0	7.12	13.19
26/01/2020 04:20:04	26012020	260120	042004	54.230	12.529487	-57.484992	54.270	-0.350	-0.240	0.470	54.230	-1.600	0.500																			1580012404.0	7.32	13.56
26/01/2020 04:20:05	26012020	260120	042005	54.250	12.529505	-57.484962	54.270	-0.200	-0.250	1.120	54.250	-1.700	1.200																			1580012405.0	7.52	13.93
26/01/2020 04:20:06	26012020	260120	042006	54.250	12.529523	-57.484932	54.340	-0.070	-0.220	1.430	54.250	-1.600	1.700																			1580012406.0	7.43	13.76
26/01/2020 04:20:07	26012020	260120	042007	54.320	12.529540	-57.484902	54.530	0.040	-0.250	1.280	54.350	-1.600	1.800																			1580012407.0	7.28	13.48
26/01/2020 04:20:08	26012020	260120	042008	54.520	12.529560	-57.484875	54.660	0.210	-0.260	1.000	54.560	-1.700	1.500																			1580012408.0	7.29	13.50
26/01/2020 04:20:09	26012020	260120	042009	54.660	12.529583	-57.484848	54.530	0.360	-0.190	0.690	54.660	-1.600	1.200																			1580012409.0	7.38	13.67
26/01/2020 04:20:10	26012020	260120	042010	54.550	12.529605	-57.484822	54.260	0.380	-0.090	0.280	54.510	-1.600	0.900																			1580012410.0	7.42	13.74
26/01/2020 04:20:11	26012020	260120	042011	54.290	12.529630	-57.484797	54.140	0.270	-0.020	-0.200	54.250	-1.400	0.400																			1580012411.0	7.41	13.72
26/01/2020 04:20:12	26012020	260120	042012	54.180	12.529655	-57.484772	54.340	0.070	-0.120	-0.690	54.200	-1.500	-0.100																			1580012412.0	7.38	13.67
26/01/2020 04:20:13	26012020	260120	042013	54.390	12.529678	-57.484747	54.670	-0.190	-0.230	-1.070	54.450	-1.600	-0.500																			1580012413.0	7.40	13.70
26/01/2020 04:20:14	26012020	260120	042014	54.730	12.529702	-57.484720	54.850	-0.500	-0.120	-0.960	54.790	-1.600	-0.700																			1580012414.0	7.51	13.91
26/01/2020 04:20:15	26012020	260120	042015	54.920	12.529722	-57.484693	54.800	-0.660	0.020	-0.330	54.920	-1.400	-0.300																			1580012415.0	7.34	13.59
26/01/2020 04:20:16	26012020	260120	042016	54.840	12.529740	-57.484665	54.670	-0.410	-0.190	0.330	54.810	-1.400	0.400																			1580012416.0	7.06	13.08
26/01/2020 04:20:17	26012020	260120	042017	54.700	12.529757	-57.484635	54.620	0.230	-0.650	0.700	54.680	-1.900	0.900																			1580012417.0	7.23	13.39
26/01/2020 04:20:18	26012020	260120	042018	54.640	12.529777	-57.484603	54.590	0.820	-0.790	0.810	54.640	-2.000	1.000																			1580012418.0	7.75	14.35
26/01/2020 04:20:19	26012020	260120	042019	54.600	12.529797	-57.484573	54.540	0.880	-0.310	0.720	54.590	-2.000	1.200																			1580012419.0	7.94	14.70
26/01/2020 04:20:20	26012020	260120	042020	54.550	12.529820	-57.484547	54.540	0.410	0.390	0.380	54.540	-1.300	0.900																			1580012420.0	7.44	13.78
26/01/2020 04:20:21	26012020	260120	042021	54.560	12.529842	-57.484522	54.650	-0.170	0.680	-0.010	54.580	-0.800	0.500																			1580012421.0	6.87	12.72
26/01/2020 04:20:22	26012020	260120	042022	54.690	12.529863	-57.484500	54.770	-0.550	0.450	-0.210	54.720	-0.800	0.200																			1580012422.0	6.85	12.69
26/01/2020 04:20:23	26012020	260120	042023	54.810	12.529887	-57.484473	54.770	-0.660	-0.000	-0.140	54.820	-1.200	0.200																			1580012423.0	7.31	13.54
26/01/2020 04:20:24	26012020	260120	042024	54.820	12.529908	-57.484447	54.750	-0.540	-0.500	0.090	54.820	-1.700	0.400																			1580012424.0	7.56	14.00
26/01/2020 04:20:25	26012020	260120	042025	54.790	12.529928	-57.484417	54.750	-0.240	-0.920	0.300	54.790	-2.200	0.600																			1580012425.0	7.56	14.00
26/01/2020 04:20:26	26012020	260120	042026	54.780	12.529948	-57.484387	54.720	0.140	-1.040	0.450	54.780	-2.500	0.800																			1580012426.0	7.63	14.13
26/01/2020 04:20:27	26012020	260120	042027	54.750	12.529968	-57.484357	54.590	0.420	-0.670	0.570	54.730	-2.300	0.900																			1580012427.0	7.62	14.11
26/01/2020 04:20:28	26012020	260120	042028	54.620	12.529987	-57.484328	54.380	0.430	0.020	0.550	54.580	-1.700	1.000																			1580012428.0	7.38	13.67
26/01/2020 04:20:29	26012020	260120	042029	54.400	12.530007	-57.484302	54.240	0.250	0.470	0.260	54.370	-1.100	0.800																			1580012429.0	7.02	13.00
26/01/2020 04:20:30	26012020	260120	042030	54.270	12.530028	-57.484277	54.330	0.130	0.370	-0.230	54.270	-0.900	0.400																			1580012430.0	6.93	12.83
26/01/2020 04:20:31	26012020	260120	042031	54.350	12.530053	-57.484252	54.570	0.160	0.000	-0.570	54.390	-1.300	-0.100																			1580012431.0	7.39	13.69
26/01/2020 04:20:32	26012020	260120	042032	54.600	12.530078	-57.484227	54.770	0.160	-0.170	-0.580	54.650	-1.500	-0.200																			1580012432.0	7.85	14.54
26/01/2020 04:20:33	26012020	260120	042033	54.800	12.530102	-57.484198	54.850	-0.010	-0.130	-0.260	54.820	-1.600	-0.100																			1580012433.0	7.71	14.28
26/01/2020 04:20:34	26012020	260120	042034	54.870	12.530122	-57.484170	54.780	-0.270	-0.070	0.310	54.870	-1.500	0.400																			1580012434.0	7.33	13.58
26/01/2020 04:20:35	26012020	260120	042035	54.790	12.530140	-57.484142	54.700	-0.450	-0.170	0.750	54.780	-1.500	1.000																			1580012435.0	7.16	13.26
26/01/2020 04:20:36	26012020	260120	042036	54.720	12.530157	-57.484112	54.630	-0.360	-0.390	0.880	54.720	-1.700	1.200																			1580012436.0	7.20	13.33
26/01/2020 04:20:37	26012020	260120	042037	54.660	12.530177	-57.484083	54.520	-0.020	-0.540	0.940	54.640	-1.900	1.300																			1580012437.0	7.41	13.72
26/01/2020 04:20:38	26012020	260120	042038	54.550	12.530198	-57.484055	54.510	0.340	-0.530	0.910	54.530	-2.000	1.300																			1580012438.0	7.54	13.96
26/01/2020 04:20:39	26012020	260120	042039	54.520	12.530220	-57.484028	54.630	0.460	-0.430	0.630	54.540	-1.900	1.200																			1580012439.0	7.49	13.87
26/01/2020 04:20:40	26012020	260120	042040	54.650	12.530242	-57.484000	54.730	0.250	-0.170	0.200	54.680	-1.700	0.800																			1580012440.0	7.46	13.82
26/01/2020 04:20:41	26012020	260120	042041	54.770	12.530265	-57.483973	54.760	-0.160	0.260	-0.180	54.780	-1.400	0.400																			1580012441.0	7.41	13.72
26/01/2020 04:20:42	26012020	260120	042042	54.800	12.530287	-57.483948	54.770	-0.490	0.540	-0.420	54.810	-1.000	0.100																			1580012442.0	7.16	13.26
26/01/2020 04:20:43	26012020	260120	042043	54.830	12.530308	-57.483923	54.850	-0.470	0.350	-0.610	54.840	-0.900	-0.100																			1580012443.0	6.98	12.93
26/01/2020 04:20:44	26012020	260120	042044	54.910	12.530330	-57.483898	54.950	-0.090	-0.240	-0.730	54.930	-1.400	-0.300																			1580012444.0	7.18	13.30
26/01/2020 04:20:45	26012020	260120	042045	55.010	12.530352	-57.483870	54.950	0.330	-0.720	-0.620	55.030	-2.000	-0.300																			1580012445.0	7.68	14.22
26/01/2020 04:20:46	26012020	260120	042046	55.010	12.530375	-57.483840	54.790	0.490	-0.800	-0.260	54.990	-2.200	-0.100																			1580012446.0	7.92	14.67
26/01/2020 04:20:47	26012020	260120	042047	54.840	12.530397	-57.483812	54.640	0.380	-0.560	0.200	54.800	-2.100	0.400																			1580012447.0	7.65	14.17
26/01/2020 04:20:48	26012020	260120	042048	54.670	12.530417	-57.483783	54.700	0.180	-0.210	0.530	54.660	-1.800	0.800																			1580012448.0	7.32	13.56
26/01/2020 04:20:49	26012020	260120	042049	54.710	12.530437	-57.483755	54.860	-0.020	0.100	0.700	54.740	-1.400	1.000																			1580012449.0	7.17	13.28
26/01/2020 04:20:50	26012020	260120	042050	54.870	12.530455	-57.483728	54.940	-0.190	0.280	0.890	54.890	-1.200	1.200																			1580012450.0	7.15	13.24
26/01/2020 04:20:51	26012020	260120	042051	54.950	12.530475	-57.483700	54.940	-0.310	0.320	1.010	54.950	-1.100	1.300																			1580012451.0	7.22	13.37
26/01/2020 04:20:52	26012020	260120	042052	54.950	12.530493	-57.483672	54.940	-0.290	0.130	0.930	54.960	-1.100	1.400																			1580012452.0	7.29	13.50
26/01/2020 04:20:53	26012020	260120	042053	54.990	12.530513	-57.483643	54.990	-0.060	-0.370	0.640	55.000	-1.500	1.200																			1580012453.0	7.32	13.56
26/01/2020 04:20:54	26012020	260120	042054	55.040	12.530535	-57.483615	54.910	0.190	-0.730	0.180	55.050	-2.000	0.800																			1580012454.0	7.62	14.11
26/01/2020 04:20:55	26012020	260120	042055	54.980	12.530560	-57.483587	54.740	0.180	-0.500	-0.270	54.950	-2.100	0.300																			1580012455.0	7.93	14.69
26/01/2020 04:20:56	26012020	260120	042056	54.820	12.530583	-57.483560	54.630	-0.040	0.030	-0.490	54.790	-1.600	-0.000																			1580012456.0	7.59	14.06
26/01/2020 04:20:57	26012020	260120	042057	54.700	12.530607	-57.483537	54.650	-0.180	0.210	-0.610	54.690	-1.200	-0.200																			1580012457.0	6.94	12.85
26/01/2020 04:20:58	26012020	260120	042058	54.720	12.530627	-57.483513	54.780	-0.080	-0.130	-0.700	54.730	-1.300	-0.300																			1580012458.0	6.87	12.72
26/01/2020 04:20:59	26012020	260120	042059	54.840	12.530650	-57.483485	54.860	0.100	-0.510	-0.550	54.860	-1.800	-0.300																			1580012459.0	7.43	13.76
26/01/2020 04:21:00	26012020	260120	042100	54.900	12.530672	-57.483455	54.830	0.170	-0.500	-0.200	54.900	-2.000	0.000	1014.90	25.70	25.70	20.50	20.50	-1.00	72.00	72.00	385.00	25.20	8.00	9.30	68.00	5.50	14	3238.00	27.50	27.40	1580012460.0	7.88	14.59
26/01/2020 04:21:01	26012020	260120	042101	54.870	12.530692	-57.483425	54.820	0.110	-0.200	0.160	54.860	-1.800	0.400																			1580012461.0	7.69	14.24
26/01/2020 04:21:02	26012020	260120	042102	54.850	12.530710	-57.483397	54.810	-0.020	0.130	0.500	54.850	-1.400	0.700																			1580012462.0	7.28	13.48
26/01/2020 04:21:03	26012020	260120	042103	54.830	12.530730	-57.483370	54.790	-0.130	0.280	0.730	54.820	-1.200	1.000																			1580012463.0	7.07	13.09
26/01/2020 04:21:04	26012020	260120	042104	54.800	12.530750	-57.483343	54.810	-0.120	0.080	0.810	54.800	-1.200	1.200																			1580012464.0	7.10	13.15
26/01/2020 04:21:05	26012020	260120	042105	54.820	12.530770	-57.483315	54.810	0.030	-0.350	0.860	54.820	-1.600	1.200																			1580012465.0	7.33	13.58
26/01/2020 04:21:06	26012020	260120	042106	54.820	12.530792	-57.483287	54.740	0.190	-0.650	0.880	54.820	-2.000	1.300																			1580012466.0	7.66	14.19
26/01/2020 04:21:07	26012020	260120	042107	54.760	12.530812	-57.483257	54.620	0.200	-0.530	0.780	54.740	-2.100	1.200																			1580012467.0	7.80	14.45
26/01/2020 04:21:08	26012020	260120	042108	54.650	12.530833	-57.483228	54.530	0.030	-0.060	0.490	54.650	-2.000	1.200																			1580012468.0	7.57	14.02
26/01/2020 04:21:09	26012020	260120	042109	54.570	12.530855	-57.483202	54.580	-0.150	0.320	-0.030	54.570	-1.200	0.600																			1580012469.0	7.14	13.22
26/01/2020 04:21:10	26012020	260120	042110	54.620	12.530877	-57.483178	54.750	-0.160	0.210	-0.610	54.620	-1.100	0.400																			1580012470.0	6.95	12.87
26/01/2020 04:21:11	26012020	260120	042111	54.820	12.530902	-57.483153	54.970	-0.030	-0.210	-0.950	54.860	-1.400	-0.500																			1580012471.0	7.25	13.43
26/01/2020 04:21:12	26012020	260120	042112	55.030	12.530925	-57.483127	54.930	0.030	-0.500	-0.740	55.050	-1.800	-0.500																			1580012472.0	7.72	14.30
26/01/2020 04:21:13	26012020	260120	042113	54.990	12.530948	-57.483098	54.680	-0.090	-0.400	-0.200	54.940	-1.900	-0.100																			1580012473.0	7.82	14.48
26/01/2020 04:21:14	26012020	260120	042114	54.710	12.530967	-57.483068	54.500	-0.210	-0.210	0.250	54.660	-1.700	0.400																			1580012474.0	7.48	13.85
26/01/2020 04:21:15	26012020	260120	042115	54.520	12.530985	-57.483040	54.570	-0.140	-0.200	0.510	54.510	-1.600	0.800																			1580012475.0	7.12	13.19
26/01/2020 04:21:16	26012020	260120	042116	54.590	12.531005	-57.483012	54.750	0.010	-0.230	0.610	54.620	-1.600	1.000																			1580012476.0	7.24	13.41
26/01/2020 04:21:17	26012020	260120	042117	54.760	12.531025	-57.482983	54.840	0.100	-0.120	0.630	54.790	-1.600	1.000																			1580012477.0	7.51	13.91
26/01/2020 04:21:18	26012020	260120	042118	54.860	12.531047	-57.482955	54.810	0.120	0.030	0.660	54.860	-1.400	1.000																			1580012478.0	7.45	13.80
26/01/2020 04:21:19	26012020	260120	042119	54.820	12.531067	-57.482928	54.730	0.150	-0.000	0.590	54.810	-1.400	1.000																			1580012479.0	7.26	13.45
26/01/2020 04:21:20	26012020	260120	042120	54.760	12.531087	-57.482900	54.730	0.170	-0.180	0.290	54.750	-1.500	0.800																			1580012480.0	7.31	13.54
26/01/2020 04:21:21	26012020	260120	042121	54.760	12.531110	-57.482873	54.720	0.110	-0.180	0.050	54.770	-1.600	0.500																			1580012481.0	7.57	14.02
26/01/2020 04:21:22	26012020	260120	042122	54.760	12.531135	-57.482847	54.740	-0.000	-0.080	-0.040	54.760	-1.500	0.400																			1580012482.0	7.59	14.06
26/01/2020 04:21:23	26012020	260120	042123	54.760	12.531157	-57.482822	54.870	0.000	-0.310	-0.180	54.780	-1.600	0.300																			1580012483.0	7.26	13.45
26/01/2020 04:21:24	26012020	260120	042124	54.900	12.531178	-57.482795	54.990	0.010	-0.600	-0.180	54.940	-1.900	0.200																			1580012484.0	7.34	13.59
26/01/2020 04:21:25	26012020	260120	042125	55.030	12.531202	-57.482765	54.880	-0.210	-0.300	0.050	55.030	-1.900	0.300																			1580012485.0	7.82	14.48
26/01/2020 04:21:26	26012020	260120	042126	54.900	12.531222	-57.482737	54.640	-0.590	0.390	0.340	54.860	-1.300	0.600																			1580012486.0	7.58	14.04
26/01/2020 04:21:27	26012020	260120	042127	54.670	12.531238	-57.482710	54.590	-0.680	0.600	0.360	54.640	-0.800	0.800																			1580012487.0	6.77	12.54
26/01/2020 04:21:28	26012020	260120	042128	54.610	12.531257	-57.482685	54.710	-0.210	-0.120	0.110	54.630	-1.100	0.600																			1580012488.0	6.58	12.19
26/01/2020 04:21:29	26012020	260120	042129	54.730	12.531278	-57.482657	54.800	0.490	-1.030	-0.140	54.760	-2.100	0.400																			1580012489.0	7.45	13.80
26/01/2020 04:21:30	26012020	260120	042130	54.820	12.531303	-57.482627	54.770	0.820	-1.170	-0.240	54.830	-2.600	0.200																			1580012490.0	8.36	15.48
26/01/2020 04:21:31	26012020	260120	042131	54.810	12.531328	-57.482597	54.710	0.550	-0.340	-0.150	54.800	-2.200	0.200																			1580012491.0	8.20	15.19
26/01/2020 04:21:32	26012020	260120	042132	54.760	12.531350	-57.482572	54.630	-0.030	0.690	0.100	54.740	-1.100	0.400																			1580012492.0	7.19	13.32
26/01/2020 04:21:33	26012020	260120	042133	54.680	12.531368	-57.482548	54.590	-0.440	0.960	0.300	54.670	-0.500	0.600																			1580012493.0	6.32	11.70
26/01/2020 04:21:34	26012020	260120	042134	54.640	12.531387	-57.482523	54.630	-0.420	0.230	0.310	54.640	-0.800	0.700																			1580012494.0	6.49	12.02
26/01/2020 04:21:35	26012020	260120	042135	54.680	12.531408	-57.482497	54.770	-0.120	-0.780	0.320	54.700	-1.800	0.700																			1580012495.0	7.43	13.76
26/01/2020 04:21:36	26012020	260120	042136	54.820	12.531432	-57.482465	54.830	0.090	-1.040	0.570	54.850	-2.500	0.800																			1580012496.0	8.26	15.30
26/01/2020 04:21:37	26012020	260120	042137	54.890	12.531455	-57.482433	54.750	-0.010	-0.420	0.950	54.880	-2.200	1.200																			1580012497.0	8.14	15.08
26/01/2020 04:21:38	26012020	260120	042138	54.800	12.531472	-57.482405	54.620	-0.220	0.200	1.080	54.770	-1.400	1.400																			1580012498.0	7.13	13.20
26/01/2020 04:21:39	26012020	260120	042139	54.670	12.531488	-57.482380	54.610	-0.160	0.100	0.740	54.660	-1.200	1.300																			1580012499.0	6.48	12.00
26/01/2020 04:21:40	26012020	260120	042140	54.670	12.531508	-57.482353	54.740	0.150	-0.270	0.060	54.690	-1.500	0.800																			1580012500.0	6.99	12.95
26/01/2020 04:21:41	26012020	260120	042141	54.820	12.531533	-57.482327	54.850	0.350	-0.220	-0.570	54.860	-1.700	0.100																			1580012501.0	7.81	14.46
26/01/2020 04:21:42	26012020	260120	042142	54.950	12.531558	-57.482302	54.870	0.260	0.130	-0.850	54.960	-1.400	-0.400																			1580012502.0	7.77	14.39
26/01/2020 04:21:43	26012020	260120	042143	54.960	12.531582	-57.482277	54.880	0.040	0.140	-0.810	54.960	-1.200	-0.500																			1580012503.0	7.14	13.22
26/01/2020 04:21:44	26012020	260120	042144	54.960	12.531605	-57.482253	54.920	-0.100	-0.300	-0.690	54.970	-1.500	-0.400																			1580012504.0	6.99	12.95
26/01/2020 04:21:45	26012020	260120	042145	55.000	12.531627	-57.482225	54.970	-0.110	-0.660	-0.350	55.010	-2.000	-0.200																			1580012505.0	7.49	13.87
26/01/2020 04:21:46	26012020	260120	042146	55.040	12.531648	-57.482195	54.990	-0.130	-0.500	0.250	55.040	-2.100	-0.000																			1580012506.0	7.84	14.52
26/01/2020 04:21:47	26012020	260120	042147	55.050	12.531667	-57.482165	55.070	-0.220	-0.060	0.790	55.050	-1.700	0.900																			1580012507.0	7.52	13.93
26/01/2020 04:21:48	26012020	260120	042148	55.110	12.531683	-57.482137	55.220	-0.210	0.170	1.060	55.140	-1.300	1.300																			1580012508.0	6.98	12.93
26/01/2020 04:21:49	26012020	260120	042149	55.250	12.531700	-57.482110	55.290	0.000	0.030	1.150	55.270	-1.300	1.500																			1580012509.0	6.87	12.72
26/01/2020 04:21:50	26012020	260120	042150	55.320	12.531718	-57.482080	55.230	0.270	-0.250	1.030	55.320	-1.500	1.500																			1580012510.0	7.26	13.45
26/01/2020 04:21:51	26012020	260120	042151	55.270	12.531740	-57.482052	55.110	0.400	-0.400	0.680	55.260	-1.800	1.200																			1580012511.0	7.62	14.11
26/01/2020 04:21:52	26012020	260120	042152	55.190	12.531763	-57.482025	55.040	0.320	-0.290	0.220	55.170	-1.800	0.800																			1580012512.0	7.71	14.28
26/01/2020 04:21:53	26012020	260120	042153	55.140	12.531788	-57.481998	55.140	0.110	-0.090	-0.340	55.140	-1.600	0.300																			1580012513.0	7.52	13.93
26/01/2020 04:21:54	26012020	260120	042154	55.250	12.531813	-57.481975	55.400	-0.160	0.080	-0.820	55.290	-1.400	-0.200																			1580012514.0	7.30	13.52
26/01/2020 04:21:55	26012020	260120	042155	55.490	12.531837	-57.481950	55.570	-0.420	0.230	-0.910	55.540	-1.300	-0.500																			1580012515.0	7.23	13.39
26/01/2020 04:21:56	26012020	260120	042156	55.660	12.531857	-57.481925	55.580	-0.610	0.230	-0.570	55.670	-1.100	-0.400																			1580012516.0	7.14	13.22
26/01/2020 04:21:57	26012020	260120	042157	55.650	12.531877	-57.481897	55.490	-0.540	-0.140	-0.080	55.630	-1.300	0.100																			1580012517.0	7.04	13.04
26/01/2020 04:21:58	26012020	260120	042158	55.550	12.531893	-57.481868	55.450	-0.140	-0.790	0.270	55.550	-1.500	0.200																			1580012518.0	7.25	13.43
26/01/2020 04:21:59	26012020	260120	042159	55.500	12.531913	-57.481837	55.440	0.410	-1.140	0.530	55.500	-2.400	0.800																			1580012519.0	7.73	14.32
26/01/2020 04:22:00	26012020	260120	042200	55.500	12.531933	-57.481805	55.450	0.730	-0.840	0.690	55.500	-2.500	1.000	1014.90	25.70	25.70	20.70	20.70	-1.00	73.00	73.00	385.00	25.20	8.00	8.90	68.00	5.10	14	3287.00	27.50	27.40	1580012520.0	7.94	14.70
26/01/2020 04:22:01	26012020	260120	042201	55.510	12.531953	-57.481777	55.450	0.580	0.030	0.660	55.520	-1.800	1.100																			1580012521.0	7.63	14.13
26/01/2020 04:22:02	26012020	260120	042202	55.530	12.531973	-57.481750	55.430	0.110	0.820	0.440	55.530	-0.900	0.900																			1580012522.0	6.99	12.95
26/01/2020 04:22:03	26012020	260120	042203	55.510	12.531993	-57.481727	55.430	-0.270	0.880	0.100	55.500	-0.400	0.700																			1580012523.0	6.56	12.15
26/01/2020 04:22:04	26012020	260120	042204	55.510	12.532015	-57.481703	55.480	-0.300	0.150	-0.220	55.530	-0.900	0.300																			1580012524.0	6.83	12.65
26/01/2020 04:22:05	26012020	260120	042205	55.560	12.532038	-57.481677	55.450	-0.150	-0.650	-0.340	55.570	-1.700	0.100																			1580012525.0	7.60	14.08
26/01/2020 04:22:06	26012020	260120	042206	55.540	12.532063	-57.481647	55.400	-0.120	-0.860	-0.270	55.530	-2.300	0.100																			1580012526.0	8.14	15.08
26/01/2020 04:22:07	26012020	260120	042207	55.490	12.532085	-57.481617	55.460	-0.180	-0.550	-0.050	55.490	-2.100	0.200																			1580012527.0	7.83	14.50
26/01/2020 04:22:08	26012020	260120	042208	55.540	12.532103	-57.481590	55.550	-0.160	-0.190	0.210	55.560	-1.800	0.500																			1580012528.0	7.13	13.20
26/01/2020 04:22:09	26012020	260120	042209	55.610	12.532122	-57.481562	55.500	-0.080	0.110	0.430	55.610	-1.400	0.700																			1580012529.0	6.90	12.78
26/01/2020 04:22:10	26012020	260120	042210	55.570	12.532140	-57.481535	55.380	-0.010	0.160	0.570	55.550	-1.200	0.900																			1580012530.0	7.01	12.98
26/01/2020 04:22:11	26012020	260120	042211	55.450	12.532158	-57.481507	55.300	0.070	-0.070	0.530	55.430	-1.400	1.000																			1580012531.0	7.12	13.19
26/01/2020 04:22:12	26012020	260120	042212	55.370	12.532178	-57.481478	55.330	0.160	-0.340	0.290	55.370	-1.600	0.800																			1580012532.0	7.40	13.70
26/01/2020 04:22:13	26012020	260120	042213	55.410	12.532202	-57.481452	55.390	0.230	-0.420	0.050	55.430	-1.800	0.500																			1580012533.0	7.63	14.13
26/01/2020 04:22:14	26012020	260120	042214	55.470	12.532225	-57.481423	55.350	0.250	-0.310	-0.000	55.470	-1.800	0.400																			1580012534.0	7.56	14.00
26/01/2020 04:22:15	26012020	260120	042215	55.430	12.532247	-57.481397	55.240	0.210	-0.110	0.060	55.400	-1.600	0.400																			1580012535.0	7.34	13.59
26/01/2020 04:22:16	26012020	260120	042216	55.310	12.532267	-57.481370	55.170	0.130	-0.030	0.130	55.280	-1.500	0.500																			1580012536.0	7.20	13.33
26/01/2020 04:22:17	26012020	260120	042217	55.230	12.532288	-57.481343	55.220	0.050	-0.150	0.130	55.230	-1.500	0.500																			1580012537.0	7.21	13.35
26/01/2020 04:22:18	26012020	260120	042218	55.280	12.532308	-57.481315	55.340	-0.040	-0.240	0.050	55.310	-1.600	0.500																			1580012538.0	7.42	13.74
26/01/2020 04:22:19	26012020	260120	042219	55.410	12.532330	-57.481287	55.380	-0.190	-0.050	0.110	55.430	-1.600	0.400																			1580012539.0	7.56	14.00
26/01/2020 04:22:20	26012020	260120	042220	55.460	12.532350	-57.481260	55.340	-0.330	0.210	0.420	55.450	-1.300	0.600																			1580012540.0	7.33	13.58
26/01/2020 04:22:21	26012020	260120	042221	55.400	12.532370	-57.481232	55.250	-0.310	0.130	0.720	55.390	-1.200	1.000																			1580012541.0	6.99	12.95
26/01/2020 04:22:22	26012020	260120	042222	55.320	12.532387	-57.481205	55.230	-0.090	-0.350	0.700	55.310	-1.500	1.100																			1580012542.0	7.08	13.11
26/01/2020 04:22:23	26012020	260120	042223	55.290	12.532408	-57.481175	55.250	0.170	-0.750	0.490	55.290	-2.000	1.000																			1580012543.0	7.56	14.00
26/01/2020 04:22:24	26012020	260120	042224	55.320	12.532430	-57.481147	55.200	0.260	-0.580	0.320	55.320	-2.100	0.800																			1580012544.0	7.87	14.58
26/01/2020 04:22:25	26012020	260120	042225	55.280	12.532452	-57.481118	55.150	0.130	-0.030	0.190	55.270	-1.700	0.600																			1580012545.0	7.56	14.00
26/01/2020 04:22:26	26012020	260120	042226	55.220	12.532473	-57.481093	55.160	-0.050	0.260	0.050	55.220	-1.200	0.500																			1580012546.0	6.93	12.83
26/01/2020 04:22:27	26012020	260120	042227	55.230	12.532493	-57.481068	55.190	-0.130	0.060	-0.060	55.250	-1.200	0.400																			1580012547.0	6.83	12.65
26/01/2020 04:22:28	26012020	260120	042228	55.270	12.532515	-57.481042	55.180	-0.050	-0.300	-0.090	55.280	-1.600	0.300																			1580012548.0	7.29	13.50
26/01/2020 04:22:29	26012020	260120	042229	55.260	12.532537	-57.481013	55.160	0.110	-0.410	0.000	55.260	-1.800	0.300																			1580012549.0	7.72	14.30
26/01/2020 04:22:30	26012020	260120	042230	55.240	12.532558	-57.480983	55.190	0.210	-0.270	0.140	55.240	-1.800	0.500																			1580012550.0	7.69	14.24
26/01/2020 04:22:31	26012020	260120	042231	55.270	12.532578	-57.480955	55.280	0.220	-0.170	0.130	55.280	-1.600	0.500																			1580012551.0	7.35	13.61
26/01/2020 04:22:32	26012020	260120	042232	55.350	12.532598	-57.480928	55.320	0.160	-0.190	0.100	55.370	-1.600	0.500																			1580012552.0	7.21	13.35
26/01/2020 04:22:33	26012020	260120	042233	55.380	12.532620	-57.480900	55.270	0.000	-0.060	0.210	55.370	-1.600	0.500																			1580012553.0	7.41	13.72
26/01/2020 04:22:34	26012020	260120	042234	55.320	12.532642	-57.480873	55.210	-0.270	0.220	0.420	55.310	-1.300	0.700																			1580012554.0	7.42	13.74
26/01/2020 04:22:35	26012020	260120	042235	55.260	12.532660	-57.480847	55.160	-0.470	0.290	0.600	55.250	-1.100	0.900																			1580012555.0	7.09	13.13
26/01/2020 04:22:36	26012020	260120	042236	55.210	12.532680	-57.480820	55.150	-0.370	-0.110	0.600	55.200	-1.300	1.000																			1580012556.0	6.96	12.89
26/01/2020 04:22:37	26012020	260120	042237	55.200	12.532700	-57.480792	55.270	-0.010	-0.740	0.400	55.210	-1.900	0.900																			1580012557.0	7.31	13.54
26/01/2020 04:22:38	26012020	260120	042238	55.330	12.532722	-57.480762	55.340	0.290	-0.860	0.220	55.350	-2.300	0.700																			1580012558.0	7.87	14.58
26/01/2020 04:22:39	26012020	260120	042239	55.400	12.532745	-57.480732	55.210	0.260	-0.240	0.140	55.400	-2.000	0.500																			1580012559.0	7.91	14.65
26/01/2020 04:22:40	26012020	260120	042240	55.280	12.532765	-57.480705	54.970	0.030	0.350	0.090	55.240	-1.300	0.500																			1580012560.0	7.13	13.20
26/01/2020 04:22:41	26012020	260120	042241	55.050	12.532783	-57.480680	54.780	-0.060	0.180	-0.040	55.000	-1.000	0.400																			1580012561.0	6.52	12.08
26/01/2020 04:22:42	26012020	260120	042242	54.870	12.532803	-57.480655	54.760	0.110	-0.500	-0.300	54.840	-1.600	0.200																			1580012562.0	6.99	12.95
26/01/2020 04:22:43	26012020	260120	042243	54.860	12.532828	-57.480627	54.840	0.310	-0.760	-0.400	54.870	-2.100	-0.000																			1580012563.0	7.94	14.70
26/01/2020 04:22:44	26012020	260120	042244	54.930	12.532853	-57.480598	54.860	0.270	-0.210	-0.170	54.940	-1.900	0.100																			1580012564.0	8.18	15.15
26/01/2020 04:22:45	26012020	260120	042245	54.940	12.532875	-57.480572	54.850	-0.030	0.470	0.160	54.940	-1.200	0.400																			1580012565.0	7.35	13.61
26/01/2020 04:22:46	26012020	260120	042246	54.930	12.532892	-57.480545	54.950	-0.330	0.530	0.410	54.940	-0.800	0.700																			1580012566.0	6.59	12.20
26/01/2020 04:22:47	26012020	260120	042247	55.030	12.532908	-57.480518	55.090	-0.390	-0.020	0.510	55.050	-1.100	0.900																			1580012567.0	6.76	12.52
26/01/2020 04:22:48	26012020	260120	042248	55.150	12.532928	-57.480490	55.080	-0.220	-0.510	0.620	55.150	-1.400	0.900																			1580012568.0	7.47	13.83
26/01/2020 04:22:49	26012020	260120	042249	55.150	12.532950	-57.480460	54.940	-0.010	-0.480	0.800	55.130	-1.900	1.100																			1580012569.0	7.86	14.56
26/01/2020 04:22:50	26012020	260120	042250	55.000	12.532972	-57.480432	54.770	0.090	-0.210	0.910	54.970	-1.700	1.300																			1580012570.0	7.50	13.89
26/01/2020 04:22:51	26012020	260120	042251	54.840	12.532992	-57.480405	54.740	0.130	-0.150	0.760	54.820	-1.500	1.200																			1580012571.0	7.00	12.96
26/01/2020 04:22:52	26012020	260120	042252	54.810	12.533012	-57.480378	54.810	0.190	-0.360	0.460	54.820	-1.700	1.000																			1580012572.0	6.99	12.95
26/01/2020 04:22:53	26012020	260120	042253	54.890	12.533033	-57.480352	54.840	0.230	-0.500	0.130	54.900	-1.900	0.700																			1580012573.0	7.39	13.69
26/01/2020 04:22:54	26012020	260120	042254	54.930	12.533057	-57.480325	54.820	0.210	-0.380	-0.140	54.930	-1.900	0.400																			1580012574.0	7.62	14.11
26/01/2020 04:22:55	26012020	260120	042255	54.920	12.533078	-57.480298	54.760	0.130	-0.140	-0.320	54.910	-1.700	0.100																			1580012575.0	7.48	13.85
26/01/2020 04:22:56	26012020	260120	042256	54.860	12.533100	-57.480272	54.720	-0.010	0.110	-0.430	54.850	-1.400	-0.000																			1580012576.0	7.30	13.52
26/01/2020 04:22:57	26012020	260120	042257	54.820	12.533123	-57.480245	54.790	-0.180	0.260	-0.420	54.820	-1.200	-0.000																			1580012577.0	7.24	13.41
26/01/2020 04:22:58	26012020	260120	042258	54.880	12.533143	-57.480218	54.990	-0.320	0.240	-0.310	54.920	-1.100	0.000																			1580012578.0	7.21	13.35
26/01/2020 04:22:59	26012020	260120	042259	55.070	12.533165	-57.480192	55.090	-0.370	0.050	-0.010	55.100	-1.300	0.200																			1580012579.0	7.22	13.37
26/01/2020 04:23:00	26012020	260120	042300	55.170	12.533183	-57.480163	54.980	-0.300	-0.200	0.440	55.160	-1.500	0.600	1014.90	25.70	25.80	20.80	20.90	-1.00	74.00	74.00	385.00	25.20	7.00	9.10	67.00	5.40	14	3221.00	27.40	27.40	1580012580.0	7.32	13.56
26/01/2020 04:23:01	26012020	260120	042301	55.040	12.533202	-57.480133	54.790	-0.120	-0.460	0.770	55.000	-1.800	1.000																			1580012581.0	7.41	13.72
26/01/2020 04:23:02	26012020	260120	042302	54.850	12.533222	-57.480105	54.750	0.210	-0.660	0.810	54.830	-2.000	1.200																			1580012582.0	7.42	13.74
26/01/2020 04:23:03	26012020	260120	042303	54.810	12.533242	-57.480077	54.820	0.530	-0.670	0.700	54.820	-2.100	1.100																			1580012583.0	7.49	13.87
26/01/2020 04:23:04	26012020	260120	042304	54.880	12.533263	-57.480048	54.790	0.570	-0.400	0.500	54.880	-2.000	1.000																			1580012584.0	7.54	13.96
26/01/2020 04:23:05	26012020	260120	042305	54.860	12.533287	-57.480022	54.640	0.230	0.100	0.310	54.830	-1.600	0.800																			1580012585.0	7.42	13.74
26/01/2020 04:23:06	26012020	260120	042306	54.710	12.533308	-57.479997	54.570	-0.270	0.510	0.140	54.670	-1.000	0.600																			1580012586.0	7.15	13.24
26/01/2020 04:23:07	26012020	260120	042307	54.620	12.533330	-57.479972	54.700	-0.520	0.370	-0.030	54.640	-0.900	0.400																			1580012587.0	6.88	12.74
26/01/2020 04:23:08	26012020	260120	042308	54.750	12.533350	-57.479945	54.900	-0.330	-0.230	-0.190	54.780	-1.300	0.300																			1580012588.0	7.08	13.11
26/01/2020 04:23:09	26012020	260120	042309	54.940	12.533372	-57.479917	54.960	0.040	-0.630	-0.190	54.980	-1.900	0.200																			1580012589.0	7.69	14.24
26/01/2020 04:23:10	26012020	260120	042310	55.010	12.533395	-57.479887	54.790	0.200	-0.470	0.010	54.990	-2.000	0.300																			1580012590.0	7.92	14.67
26/01/2020 04:23:11	26012020	260120	042311	54.830	12.533413	-57.479858	54.590	0.060	-0.060	0.180	54.780	-1.700	0.500																			1580012591.0	7.50	13.89
26/01/2020 04:23:12	26012020	260120	042312	54.620	12.533433	-57.479832	54.570	-0.060	0.060	0.150	54.600	-1.400	0.600																			1580012592.0	6.93	12.83
26/01/2020 04:23:13	26012020	260120	042313	54.600	12.533453	-57.479807	54.610	0.090	-0.230	0.040	54.610	-1.500	0.500																			1580012593.0	6.92	12.82
26/01/2020 04:23:14	26012020	260120	042314	54.650	12.533477	-57.479780	54.570	0.380	-0.570	0.070	54.650	-1.900	0.400																			1580012594.0	7.43	13.76
26/01/2020 04:23:15	26012020	260120	042315	54.610	12.533500	-57.479752	54.540	0.410	-0.540	0.330	54.600	-2.000	0.600																			1580012595.0	7.83	14.50
26/01/2020 04:23:16	26012020	260120	042316	54.570	12.533522	-57.479723	54.590	0.020	-0.080	0.580	54.580	-1.700	0.900																			1580012596.0	7.75	14.35
26/01/2020 04:23:17	26012020	260120	042317	54.630	12.533542	-57.479695	54.710	-0.470	0.390	0.660	54.650	-1.200	1.000																			1580012597.0	7.21	13.35
26/01/2020 04:23:18	26012020	260120	042318	54.760	12.533560	-57.479668	54.840	-0.690	0.600	0.730	54.780	-0.900	1.100																			1580012598.0	6.84	12.67
26/01/2020 04:23:19	26012020	260120	042319	54.880	12.533578	-57.479642	54.900	-0.580	0.410	0.730	54.900	-0.900	1.100																			1580012599.0	6.89	12.76
26/01/2020 04:23:20	26012020	260120	042320	54.950	12.533598	-57.479615	54.880	-0.200	-0.240	0.530	54.960	-1.300	1.000																			1580012600.0	7.12	13.19
26/01/2020 04:23:21	26012020	260120	042321	54.930	12.533618	-57.479587	54.710	0.360	-1.040	0.260	54.910	-2.100	0.800																			1580012601.0	7.47	13.83
26/01/2020 04:23:22	26012020	260120	042322	54.770	12.533643	-57.479557	54.600	0.810	-1.290	0.000	54.740	-2.700	0.500																			1580012602.0	7.98	14.78
26/01/2020 04:23:23	26012020	260120	042323	54.660	12.533668	-57.479528	54.670	0.830	-0.740	-0.250	54.650	-2.500	0.200																			1580012603.0	8.05	14.91
26/01/2020 04:23:24	26012020	260120	042324	54.720	12.533690	-57.479503	54.810	0.380	0.190	-0.470	54.750	-1.600	0.000																			1580012604.0	7.41	13.72
26/01/2020 04:23:25	26012020	260120	042325	54.870	12.533712	-57.479480	54.890	-0.180	0.780	-0.510	54.890	-0.800	-0.100																			1580012605.0	6.73	12.46
26/01/2020 04:23:26	26012020	260120	042326	54.940	12.533732	-57.479457	54.960	-0.440	0.600	-0.310	54.940	-0.700	-0.100																			1580012606.0	6.58	12.19
26/01/2020 04:23:27	26012020	260120	042327	55.000	12.533753	-57.479430	55.040	-0.360	-0.070	0.090	55.030	-1.200	0.300																			1580012607.0	7.08	13.11
26/01/2020 04:23:28	26012020	260120	042328	55.080	12.533773	-57.479400	54.960	-0.230	-0.530	0.610	55.080	-1.800	0.800																			1580012608.0	7.82	14.48
26/01/2020 04:23:29	26012020	260120	042329	55.000	12.533793	-57.479367	54.790	-0.210	-0.530	0.970	54.970	-2.000	1.200																			1580012609.0	7.99	14.80
26/01/2020 04:23:30	26012020	260120	042330	54.840	12.533812	-57.479337	54.740	-0.190	-0.380	1.060	54.820	-1.900	1.400																			1580012610.0	7.48	13.85
26/01/2020 04:23:31	26012020	260120	042331	54.790	12.533830	-57.479310	54.790	-0.050	-0.230	0.890	54.810	-1.700	1.400																			1580012611.0	7.10	13.15
26/01/2020 04:23:32	26012020	260120	042332	54.840	12.533850	-57.479282	54.780	0.070	0.040	0.580	54.860	-1.500	1.100																			1580012612.0	7.14	13.22
26/01/2020 04:23:33	26012020	260120	042333	54.860	12.533870	-57.479257	54.740	0.080	0.230	0.120	54.850	-1.200	0.700																			1580012613.0	7.16	13.26
26/01/2020 04:23:34	26012020	260120	042334	54.830	12.533893	-57.479232	54.700	0.090	0.050	-0.340	54.820	-1.200	0.300																			1580012614.0	7.07	13.09
26/01/2020 04:23:35	26012020	260120	042335	54.780	12.533917	-57.479207	54.690	0.260	-0.460	-0.560	54.780	-1.600	-0.100																			1580012615.0	7.26	13.45
26/01/2020 04:23:36	26012020	260120	042336	54.770	12.533942	-57.479182	54.670	0.440	-0.810	-0.490	54.760	-2.100	-0.200																			1580012616.0	7.70	14.26
26/01/2020 04:23:37	26012020	260120	042337	54.730	12.533965	-57.479152	54.600	0.410	-0.680	-0.280	54.720	-2.200	-0.000																			1580012617.0	7.87	14.58
26/01/2020 04:23:38	26012020	260120	042338	54.650	12.533985	-57.479123	54.590	0.120	-0.180	0.030	54.640	-1.800	0.300																			1580012618.0	7.60	14.08
26/01/2020 04:23:39	26012020	260120	042339	54.630	12.534005	-57.479095	54.660	-0.270	0.380	0.460	54.640	-1.300	0.600																			1580012619.0	7.14	13.22
26/01/2020 04:23:40	26012020	260120	042340	54.690	12.534023	-57.479068	54.740	-0.520	0.650	0.810	54.690	-1.100	0.800																			1580012620.0	6.87	12.72
26/01/2020 04:23:41	26012020	260120	042341	54.770	12.534040	-57.479042	54.740	-0.460	0.390	0.960	54.780	-0.800	1.300																			1580012621.0	6.84	12.67
26/01/2020 04:23:42	26012020	260120	042342	54.780	12.534060	-57.479013	54.680	-0.110	-0.270	1.020	54.770	-1.400	1.400																			1580012622.0	7.17	13.28
26/01/2020 04:23:43	26012020	260120	042343	54.710	12.534080	-57.478985	54.630	0.320	-0.930	1.040	54.700	-2.100	1.400																			1580012623.0	7.66	14.19
26/01/2020 04:23:44	26012020	260120	042344	54.660	12.534103	-57.478955	54.600	0.470	-1.020	0.850	54.650	-2.500	1.300																			1580012624.0	7.99	14.80
26/01/2020 04:23:45	26012020	260120	042345	54.650	12.534125	-57.478925	54.600	0.180	-0.330	0.500	54.650	-2.100	1.000																			1580012625.0	7.88	14.59
26/01/2020 04:23:46	26012020	260120	042346	54.660	12.534148	-57.478900	54.610	-0.300	0.520	0.230	54.660	-1.300	0.700																			1580012626.0	7.16	13.26
26/01/2020 04:23:47	26012020	260120	042347	54.670	12.534168	-57.478878	54.610	-0.570	0.740	0.010	54.670	-0.700	0.500																			1580012627.0	6.47	11.98
26/01/2020 04:23:48	26012020	260120	042348	54.670	12.534188	-57.478853	54.660	-0.410	0.170	-0.330	54.670	-0.900	0.200																			1580012628.0	6.61	12.24
26/01/2020 04:23:49	26012020	260120	042349	54.730	12.534210	-57.478827	54.770	0.090	-0.720	-0.590	54.750	-1.700	-0.100																			1580012629.0	7.36	13.63
26/01/2020 04:23:50	26012020	260120	042350	54.860	12.534233	-57.478798	54.810	0.600	-1.120	-0.480	54.870	-2.400	-0.200																			1580012630.0	8.06	14.93
26/01/2020 04:23:51	26012020	260120	042351	54.880	12.534257	-57.478767	54.650	0.700	-0.650	-0.140	54.870	-2.400	0.100																			1580012631.0	8.13	15.06
26/01/2020 04:23:52	26012020	260120	042352	54.720	12.534277	-57.478738	54.390	0.360	0.180	0.170	54.670	-1.600	0.400																			1580012632.0	7.43	13.76
26/01/2020 04:23:53	26012020	260120	042353	54.450	12.534295	-57.478713	54.270	-0.100	0.570	0.300	54.410	-0.900	0.600																			1580012633.0	6.66	12.33
26/01/2020 04:23:54	26012020	260120	042354	54.320	12.534315	-57.478690	54.370	-0.340	0.260	0.260	54.330	-0.900	0.700																			1580012634.0	6.61	12.24
26/01/2020 04:23:55	26012020	260120	042355	54.440	12.534337	-57.478663	54.620	-0.280	-0.290	0.250	54.480	-1.500	0.600																			1580012635.0	7.25	13.43
26/01/2020 04:23:56	26012020	260120	042356	54.680	12.534360	-57.478633	54.840	-0.160	-0.500	0.410	54.730	-1.900	0.700																			1580012636.0	7.84	14.52
26/01/2020 04:23:57	26012020	260120	042357	54.900	12.534382	-57.478605	54.860	-0.140	-0.270	0.750	54.920	-1.800	1.000																			1580012637.0	7.77	14.39
26/01/2020 04:23:58	26012020	260120	042358	54.940	12.534400	-57.478575	54.680	-0.210	0.050	1.100	54.920	-1.500	1.300																			1580012638.0	7.26	13.45
26/01/2020 04:23:59	26012020	260120	042359	54.760	12.534417	-57.478548	54.440	-0.200	0.130	1.170	54.710	-1.300	1.600																			1580012639.0	6.92	12.82
26/01/2020 04:24:00	26012020	260120	042400	54.520	12.534435	-57.478522	54.350	-0.020	-0.170	0.850	54.490	-1.400	1.400	1014.90	25.70	25.70	20.70	20.70	-1.00	73.00	73.00	385.00	25.20	2.00	9.00	58.00	5.20	14	3268.00	27.50	27.40	1580012640.0	6.96	12.89
26/01/2020 04:24:01	26012020	260120	042401	54.430	12.534457	-57.478495	54.390	0.250	-0.590	0.280	54.440	-1.800	0.900																			1580012641.0	7.35	13.61
26/01/2020 04:24:02	26012020	260120	042402	54.490	12.534482	-57.478468	54.480	0.430	-0.770	-0.270	54.510	-2.100	0.300																			1580012642.0	7.74	14.33
26/01/2020 04:24:03	26012020	260120	042403	54.570	12.534507	-57.478442	54.510	0.430	-0.550	-0.520	54.580	-2.100	-0.100																			1580012643.0	7.79	14.43
26/01/2020 04:24:04	26012020	260120	042404	54.590	12.534532	-57.478415	54.520	0.190	-0.030	-0.560	54.590	-1.700	-0.200																			1580012644.0	7.50	13.89
26/01/2020 04:24:05	26012020	260120	042405	54.610	12.534552	-57.478388	54.580	-0.240	0.550	-0.450	54.620	-1.100	-0.100																			1580012645.0	7.17	13.28
26/01/2020 04:24:06	26012020	260120	042406	54.670	12.534573	-57.478363	54.710	-0.580	0.720	-0.240	54.680	-0.700	0.000																			1580012646.0	6.87	12.72
26/01/2020 04:24:07	26012020	260120	042407	54.780	12.534592	-57.478338	54.900	-0.520	0.250	0.020	54.820	-0.900	0.300																			1580012647.0	6.83	12.65
26/01/2020 04:24:08	26012020	260120	042408	54.970	12.534612	-57.478310	54.990	-0.150	-0.490	0.360	55.000	-1.500	0.600																			1580012648.0	7.28	13.48
26/01/2020 04:24:09	26012020	260120	042409	55.060	12.534632	-57.478278	54.860	0.220	-0.940	0.790	55.040	-2.200	0.900																			1580012649.0	7.84	14.52
26/01/2020 04:24:10	26012020	260120	042410	54.920	12.534652	-57.478248	54.620	0.370	-0.810	1.130	54.880	-2.300	1.400																			1580012650.0	7.92	14.67
26/01/2020 04:24:11	26012020	260120	042411	54.680	12.534670	-57.478218	54.420	0.290	-0.300	1.120	54.630	-1.900	1.600																			1580012651.0	7.49	13.87
26/01/2020 04:24:12	26012020	260120	042412	54.490	12.534690	-57.478192	54.450	0.120	0.130	0.700	54.480	-1.400	1.300																			1580012652.0	6.99	12.95
26/01/2020 04:24:13	26012020	260120	042413	54.510	12.534712	-57.478168	54.630	0.020	0.160	0.090	54.540	-1.200	0.800																			1580012653.0	6.87	12.72
26/01/2020 04:24:14	26012020	260120	042414	54.700	12.534737	-57.478143	54.820	-0.040	-0.010	-0.390	54.750	-1.300	0.200																			1580012654.0	7.24	13.41
26/01/2020 04:24:15	26012020	260120	042415	54.890	12.534762	-57.478118	54.840	-0.180	-0.080	-0.460	54.920	-1.500	-0.100																			1580012655.0	7.61	14.09
26/01/2020 04:24:16	26012020	260120	042416	54.930	12.534783	-57.478090	54.760	-0.340	-0.080	-0.200	54.920	-1.500	0.000																			1580012656.0	7.56	14.00
26/01/2020 04:24:17	26012020	260120	042417	54.840	12.534803	-57.478063	54.670	-0.320	-0.200	0.090	54.820	-1.500	0.300																			1580012657.0	7.29	13.50
26/01/2020 04:24:18	26012020	260120	042418	54.740	12.534822	-57.478033	54.640	-0.080	-0.380	0.230	54.730	-1.700	0.600																			1580012658.0	7.30	13.52
26/01/2020 04:24:19	26012020	260120	042419	54.700	12.534842	-57.478005	54.670	0.220	-0.420	0.210	54.710	-1.800	0.600																			1580012659.0	7.48	13.85
26/01/2020 04:24:20	26012020	260120	042420	54.750	12.534863	-57.477977	54.750	0.380	-0.250	0.210	54.760	-1.800	0.600																			1580012660.0	7.49	13.87
26/01/2020 04:24:21	26012020	260120	042421	54.810	12.534883	-57.477950	54.750	0.290	0.040	0.240	54.820	-1.500	0.600																			1580012661.0	7.34	13.59
26/01/2020 04:24:22	26012020	260120	042422	54.820	12.534905	-57.477923	54.680	0.050	0.180	0.220	54.810	-1.300	0.600																			1580012662.0	7.15	13.24
26/01/2020 04:24:23	26012020	260120	042423	54.760	12.534927	-57.477897	54.650	-0.090	0.010	0.210	54.740	-1.300	0.600																			1580012663.0	7.06	13.08
26/01/2020 04:24:24	26012020	260120	042424	54.720	12.534948	-57.477872	54.700	-0.050	-0.310	0.270	54.720	-1.600	0.600																			1580012664.0	7.27	13.46
26/01/2020 04:24:25	26012020	260120	042425	54.760	12.534970	-57.477843	54.740	-0.040	-0.410	0.430	54.770	-1.800	0.700																			1580012665.0	7.59	14.06
26/01/2020 04:24:26	26012020	260120	042426	54.800	12.534992	-57.477815	54.720	-0.190	-0.310	0.580	54.800	-1.800	0.800																			1580012666.0	7.59	14.06
26/01/2020 04:24:27	26012020	260120	042427	54.780	12.535012	-57.477787	54.730	-0.320	-0.300	0.610	54.770	-1.700	1.000																			1580012667.0	7.28	13.48
26/01/2020 04:24:28	26012020	260120	042428	54.770	12.535032	-57.477758	54.700	-0.240	-0.280	0.640	54.770	-1.700	1.000																			1580012668.0	7.24	13.41
26/01/2020 04:24:29	26012020	260120	042429	54.750	12.535052	-57.477730	54.630	-0.020	-0.120	0.610	54.730	-1.600	1.000																			1580012669.0	7.42	13.74
26/01/2020 04:24:30	26012020	260120	042430	54.670	12.535072	-57.477702	54.600	0.210	0.000	0.350	54.660	-1.400	0.900																			1580012670.0	7.34	13.59
26/01/2020 04:24:31	26012020	260120	042431	54.660	12.535092	-57.477675	54.660	0.360	-0.050	-0.030	54.660	-1.400	0.500																			1580012671.0	7.23	13.39
26/01/2020 04:24:32	26012020	260120	042432	54.730	12.535115	-57.477650	54.760	0.380	-0.100	-0.390	54.750	-1.500	0.100																			1580012672.0	7.37	13.65
26/01/2020 04:24:33	26012020	260120	042433	54.840	12.535138	-57.477623	54.770	0.210	-0.020	-0.570	54.860	-1.500	-0.100																			1580012673.0	7.54	13.96
26/01/2020 04:24:34	26012020	260120	042434	54.860	12.535162	-57.477597	54.690	-0.070	0.120	-0.530	54.840	-1.300	-0.200																			1580012674.0	7.44	13.78
26/01/2020 04:24:35	26012020	260120	042435	54.780	12.535185	-57.477572	54.650	-0.250	-0.020	-0.300	54.760	-1.300	-0.000																			1580012675.0	7.17	13.28
26/01/2020 04:24:36	26012020	260120	042436	54.730	12.535205	-57.477547	54.730	-0.200	-0.470	0.060	54.740	-1.600	0.300																			1580012676.0	7.14	13.22
26/01/2020 04:24:37	26012020	260120	042437	54.810	12.535227	-57.477518	54.830	-0.080	-0.750	0.490	54.830	-2.100	0.700																			1580012677.0	7.52	13.93
26/01/2020 04:24:38	26012020	260120	042438	54.900	12.535247	-57.477487	54.820	-0.110	-0.570	0.950	54.910	-2.100	1.100																			1580012678.0	7.79	14.43
26/01/2020 04:24:39	26012020	260120	042439	54.900	12.535265	-57.477457	54.730	-0.270	-0.160	1.410	54.880	-1.700	1.600																			1580012679.0	7.49	13.87
26/01/2020 04:24:40	26012020	260120	042440	54.800	12.535282	-57.477428	54.680	-0.350	0.170	1.530	54.780	-1.400	1.900																			1580012680.0	7.12	13.19
26/01/2020 04:24:41	26012020	260120	042441	54.760	12.535298	-57.477400	54.670	-0.230	0.300	1.210	54.760	-1.100	1.800																			1580012681.0	7.03	13.02
26/01/2020 04:24:42	26012020	260120	042442	54.760	12.535318	-57.477373	54.670	0.110	0.060	0.600	54.750	-1.200	1.300																			1580012682.0	7.12	13.19
26/01/2020 04:24:43	26012020	260120	042443	54.760	12.535342	-57.477347	54.750	0.500	-0.390	-0.190	54.770	-1.600	0.600																			1580012683.0	7.41	13.72
26/01/2020 04:24:44	26012020	260120	042444	54.840	12.535368	-57.477320	54.800	0.740	-0.630	-0.840	54.860	-2.000	-0.200																			1580012684.0	7.87	14.58
26/01/2020 04:24:45	26012020	260120	042445	54.900	12.535395	-57.477295	54.800	0.630	-0.360	-1.170	54.900	-1.900	-0.700																			1580012685.0	8.05	14.91
26/01/2020 04:24:46	26012020	260120	042446	54.900	12.535420	-57.477270	54.860	0.190	0.090	-1.130	54.910	-1.500	-0.800																			1580012686.0	7.62	14.11
26/01/2020 04:24:47	26012020	260120	042447	54.950	12.535443	-57.477245	54.990	-0.360	0.370	-0.750	54.980	-1.100	-0.600																			1580012687.0	7.07	13.09
26/01/2020 04:24:48	26012020	260120	042448	55.070	12.535463	-57.477220	55.100	-0.780	0.320	-0.050	55.100	-1.000	-0.000																			1580012688.0	6.90	12.78
26/01/2020 04:24:49	26012020	260120	042449	55.160	12.535480	-57.477192	55.120	-0.860	-0.050	0.780	55.170	-1.200	0.800																			1580012689.0	7.09	13.13
26/01/2020 04:24:50	26012020	260120	042450	55.160	12.535497	-57.477160	55.100	-0.580	-0.600	1.520	55.160	-1.700	1.600																			1580012690.0	7.41	13.72
26/01/2020 04:24:51	26012020	260120	042451	55.140	12.535513	-57.477127	55.130	-0.070	-0.910	1.860	55.150	-2.200	2.100																			1580012691.0	7.75	14.35
26/01/2020 04:24:52	26012020	260120	042452	55.180	12.535532	-57.477095	55.090	0.430	-0.720	1.760	55.180	-2.300	2.200																			1580012692.0	7.83	14.50
26/01/2020 04:24:53	26012020	260120	042453	55.150	12.535550	-57.477065	54.880	0.710	-0.230	1.380	55.120	-1.900	2.000																			1580012693.0	7.51	13.91
26/01/2020 04:24:54	26012020	260120	042454	54.940	12.535572	-57.477040	54.660	0.660	0.110	0.670	54.890	-1.400	1.400																			1580012694.0	7.14	13.22
26/01/2020 04:24:55	26012020	260120	042455	54.730	12.535595	-57.477015	54.730	0.350	0.180	-0.350	54.720	-1.200	0.500																			1580012695.0	7.20	13.33
26/01/2020 04:24:56	26012020	260120	042456	54.810	12.535622	-57.476992	55.080	0.020	0.050	-1.290	54.860	-1.300	-0.500																			1580012696.0	7.53	13.95
26/01/2020 04:24:57	26012020	260120	042457	55.170	12.535650	-57.476968	55.390	-0.140	-0.040	-1.690	55.250	-1.400	-1.200																			1580012697.0	7.77	14.39
26/01/2020 04:24:58	26012020	260120	042458	55.480	12.535675	-57.476943	55.350	-0.250	0.020	-1.320	55.500	-1.400	-1.200																			1580012698.0	7.69	14.24
26/01/2020 04:24:59	26012020	260120	042459	55.440	12.535697	-57.476915	55.130	-0.420	0.070	-0.470	55.390	-1.300	-0.500																			1580012699.0	7.41	13.72
26/01/2020 04:25:00	26012020	260120	042500	55.190	12.535713	-57.476885	54.990	-0.530	-0.080	0.360	55.150	-1.400	0.400	1014.90	25.70	25.70	20.70	20.80	-1.00	74.00	74.00	385.00	25.20	2.00	9.00	58.00	5.20	14	3218.00	27.40	27.40	1580012700.0	7.23	13.39
26/01/2020 04:25:01	26012020	260120	042501	55.050	12.535728	-57.476855	55.060	-0.390	-0.390	0.810	55.050	-1.600	1.000																			1580012701.0	7.29	13.50
26/01/2020 04:25:02	26012020	260120	042502	55.120	12.535747	-57.476825	55.220	0.020	-0.670	0.930	55.150	-2.000	1.300																			1580012702.0	7.45	13.80
26/01/2020 04:25:03	26012020	260120	042503	55.290	12.535765	-57.476795	55.250	0.410	-0.670	1.070	55.310	-2.100	1.400																			1580012703.0	7.60	14.08
26/01/2020 04:25:04	26012020	260120	042504	55.340	12.535787	-57.476767	55.130	0.510	-0.290	1.210	55.340	-2.100	1.400																			1580012704.0	7.59	14.06
26/01/2020 04:25:05	26012020	260120	042505	55.220	12.535808	-57.476738	54.960	0.310	0.160	1.150	55.180	-1.400	1.600																			1580012705.0	7.32	13.56
26/01/2020 04:25:06	26012020	260120	042506	55.040	12.535828	-57.476713	54.930	0.070	0.260	0.790	55.020	-1.100	1.400																			1580012706.0	7.02	13.00
26/01/2020 04:25:07	26012020	260120	042507	55.010	12.535850	-57.476688	55.020	-0.010	-0.070	0.230	55.030	-1.300	0.900																			1580012707.0	7.12	13.19
26/01/2020 04:25:08	26012020	260120	042508	55.110	12.535873	-57.476662	55.040	0.010	-0.350	-0.220	55.130	-1.700	0.400																			1580012708.0	7.61	14.09
26/01/2020 04:25:09	26012020	260120	042509	55.150	12.535898	-57.476633	54.980	0.000	-0.300	-0.380	55.150	-1.800	0.000																			1580012709.0	7.87	14.58
26/01/2020 04:25:10	26012020	260120	042510	55.090	12.535922	-57.476605	54.920	-0.090	-0.070	-0.300	55.070	-1.600	0.000																			1580012710.0	7.60	14.08
26/01/2020 04:25:11	26012020	260120	042511	55.020	12.535942	-57.476578	54.880	-0.210	0.070	-0.160	55.010	-1.400	0.200																			1580012711.0	7.22	13.37
26/01/2020 04:25:12	26012020	260120	042512	54.970	12.535960	-57.476552	54.860	-0.320	0.030	-0.090	54.960	-1.300	0.300																			1580012712.0	7.15	13.24
26/01/2020 04:25:13	26012020	260120	042513	54.950	12.535980	-57.476523	54.850	-0.350	-0.110	-0.010	54.960	-1.400	0.300																			1580012713.0	7.28	13.48
26/01/2020 04:25:14	26012020	260120	042514	54.960	12.536002	-57.476495	54.830	-0.220	-0.270	0.180	54.950	-1.600	0.500																			1580012714.0	7.39	13.69
26/01/2020 04:25:15	26012020	260120	042515	54.930	12.536023	-57.476467	54.840	0.070	-0.480	0.370	54.920	-1.800	0.700																			1580012715.0	7.45	13.80
26/01/2020 04:25:16	26012020	260120	042516	54.940	12.536043	-57.476438	54.870	0.390	-0.600	0.580	54.940	-2.000	0.900																			1580012716.0	7.50	13.89
26/01/2020 04:25:17	26012020	260120	042517	54.960	12.536065	-57.476410	54.760	0.460	-0.360	0.870	54.950	-1.900	1.100																			1580012717.0	7.64	14.15
26/01/2020 04:25:18	26012020	260120	042518	54.850	12.536085	-57.476380	54.580	0.270	0.050	1.040	54.820	-1.500	1.400																			1580012718.0	7.49	13.87
26/01/2020 04:25:19	26012020	260120	042519	54.670	12.536103	-57.476353	54.480	0.040	0.190	0.850	54.640	-1.200	1.400																			1580012719.0	7.10	13.15
26/01/2020 04:25:20	26012020	260120	042520	54.560	12.536123	-57.476327	54.560	0.010	-0.070	0.350	54.560	-1.300	1.000																			1580012720.0	7.11	13.17
26/01/2020 04:25:21	26012020	260120	042521	54.650	12.536148	-57.476300	54.710	0.130	-0.330	-0.110	54.670	-1.600	0.500																			1580012721.0	7.55	13.98
26/01/2020 04:25:22	26012020	260120	042522	54.800	12.536173	-57.476273	54.750	0.140	-0.280	-0.300	54.820	-1.700	0.100																			1580012722.0	7.88	14.59
26/01/2020 04:25:23	26012020	260120	042523	54.860	12.536197	-57.476247	54.760	-0.100	-0.030	-0.200	54.860	-1.600	0.100																			1580012723.0	7.67	14.20
26/01/2020 04:25:24	26012020	260120	042524	54.870	12.536217	-57.476218	54.770	-0.470	0.180	0.070	54.870	-1.300	0.300																			1580012724.0	7.29	13.50
26/01/2020 04:25:25	26012020	260120	042525	54.870	12.536237	-57.476192	54.730	-0.680	0.160	0.360	54.870	-1.200	0.600																			1580012725.0	7.09	13.13
26/01/2020 04:25:26	26012020	260120	042526	54.810	12.536255	-57.476163	54.650	-0.550	-0.100	0.590	54.790	-1.400	0.900																			1580012726.0	7.17	13.28
26/01/2020 04:25:27	26012020	260120	042527	54.730	12.536275	-57.476135	54.670	-0.160	-0.440	0.680	54.720	-1.700	1.000																			1580012727.0	7.39	13.69
26/01/2020 04:25:28	26012020	260120	042528	54.730	12.536295	-57.476105	54.700	0.240	-0.650	0.610	54.750	-2.000	1.000																			1580012728.0	7.59	14.06
26/01/2020 04:25:29	26012020	260120	042529	54.770	12.536315	-57.476077	54.650	0.490	-0.630	0.440	54.770	-2.100	0.900																			1580012729.0	7.64	14.15
26/01/2020 04:25:30	26012020	260120	042530	54.730	12.536338	-57.476048	54.540	0.580	-0.420	0.220	54.710	-1.900	0.700																			1580012730.0	7.54	13.96
26/01/2020 04:25:31	26012020	260120	042531	54.620	12.536362	-57.476022	54.510	0.530	-0.150	-0.030	54.610	-1.700	0.500																			1580012731.0	7.45	13.80
26/01/2020 04:25:32	26012020	260120	042532	54.590	12.536385	-57.475997	54.620	0.360	0.060	-0.220	54.600	-1.400	0.200																			1580012732.0	7.44	13.78
26/01/2020 04:25:33	26012020	260120	042533	54.700	12.536408	-57.475972	54.790	0.030	0.280	-0.190	54.730	-1.200	0.100																			1580012733.0	7.46	13.82
26/01/2020 04:25:34	26012020	260120	042534	54.860	12.536432	-57.475943	54.830	-0.400	0.500	0.130	54.880	-1.000	0.300																			1580012734.0	7.42	13.74
26/01/2020 04:25:35	26012020	260120	042535	54.890	12.536450	-57.475917	54.790	-0.700	0.350	0.530	54.880	-0.900	0.700																			1580012735.0	7.20	13.33
26/01/2020 04:25:36	26012020	260120	042536	54.850	12.536468	-57.475888	54.830	-0.580	-0.360	0.680	54.850	-1.400	1.000																			1580012736.0	7.14	13.22
26/01/2020 04:25:37	26012020	260120	042537	54.900	12.536487	-57.475857	54.910	-0.060	-1.110	0.700	54.920	-2.200	1.100																			1580012737.0	7.60	14.08
26/01/2020 04:25:38	26012020	260120	042538	54.980	12.536508	-57.475825	54.810	0.420	-1.100	0.790	54.980	-2.600	1.100																			1580012738.0	8.17	15.13
26/01/2020 04:25:39	26012020	260120	042539	54.890	12.536530	-57.475795	54.580	0.450	-0.300	0.800	54.850	-2.100	1.200																			1580012739.0	8.00	14.82
26/01/2020 04:25:40	26012020	260120	042540	54.670	12.536550	-57.475768	54.420	0.110	0.570	0.570	54.620	-1.200	1.100																			1580012740.0	7.17	13.28
26/01/2020 04:25:41	26012020	260120	042541	54.500	12.536572	-57.475745	54.460	-0.250	0.820	0.110	54.490	-0.600	0.700																			1580012741.0	6.58	12.19
26/01/2020 04:25:42	26012020	260120	042542	54.540	12.536593	-57.475722	54.630	-0.310	0.320	-0.440	54.570	-0.800	0.200																			1580012742.0	6.80	12.59
26/01/2020 04:25:43	26012020	260120	042543	54.710	12.536617	-57.475697	54.680	-0.080	-0.530	-0.700	54.740	-1.500	-0.300																			1580012743.0	7.50	13.89
26/01/2020 04:25:44	26012020	260120	042544	54.770	12.536643	-57.475668	54.610	0.210	-1.070	-0.500	54.770	-2.300	-0.300																			1580012744.0	8.10	15.00
26/01/2020 04:25:45	26012020	260120	042545	54.700	12.536667	-57.475638	54.540	0.320	-0.950	-0.040	54.670	-2.500	0.100																			1580012745.0	8.17	15.13
26/01/2020 04:25:46	26012020	260120	042546	54.620	12.536687	-57.475607	54.560	0.170	-0.290	0.320	54.610	-2.000	0.600																			1580012746.0	7.74	14.33
26/01/2020 04:25:47	26012020	260120	042547	54.620	12.536705	-57.475580	54.620	-0.070	0.370	0.550	54.640	-1.300	0.800																			1580012747.0	7.11	13.17
26/01/2020 04:25:48	26012020	260120	042548	54.680	12.536723	-57.475553	54.690	-0.150	0.530	0.770	54.700	-0.900	1.000																			1580012748.0	6.76	12.52
26/01/2020 04:25:49	26012020	260120	042549	54.740	12.536742	-57.475527	54.700	-0.010	0.140	0.930	54.750	-1.000	1.300																			1580012749.0	6.98	12.93
26/01/2020 04:25:50	26012020	260120	042550	54.750	12.536762	-57.475497	54.630	0.140	-0.300	0.960	54.730	-1.500	1.300																			1580012750.0	7.56	14.00
26/01/2020 04:25:51	26012020	260120	042551	54.680	12.536785	-57.475467	54.560	0.130	-0.440	0.860	54.670	-1.800	1.300																			1580012751.0	7.92	14.67
26/01/2020 04:25:52	26012020	260120	042552	54.620	12.536807	-57.475438	54.540	-0.020	-0.330	0.620	54.610	-1.800	1.100																			1580012752.0	7.74	14.33
26/01/2020 04:25:53	26012020	260120	042553	54.610	12.536828	-57.475412	54.610	-0.180	-0.150	0.270	54.610	-1.600	0.800																			1580012753.0	7.36	13.63
26/01/2020 04:25:54	26012020	260120	042554	54.670	12.536852	-57.475387	54.700	-0.230	-0.050	-0.080	54.700	-1.500	0.500																			1580012754.0	7.21	13.35
26/01/2020 04:25:55	26012020	260120	042555	54.780	12.536873	-57.475360	54.710	-0.180	-0.050	-0.230	54.790	-1.400	0.200																			1580012755.0	7.24	13.41
26/01/2020 04:25:56	26012020	260120	042556	54.780	12.536895	-57.475333	54.620	-0.080	-0.180	-0.230	54.760	-1.500	0.200																			1580012756.0	7.37	13.65
26/01/2020 04:25:57	26012020	260120	042557	54.690	12.536917	-57.475307	54.590	0.100	-0.480	-0.240	54.670	-1.700	0.200																			1580012757.0	7.45	13.80
26/01/2020 04:25:58	26012020	260120	042558	54.650	12.536938	-57.475278	54.570	0.280	-0.610	-0.110	54.660	-2.000	0.200																			1580012758.0	7.65	14.17
26/01/2020 04:25:59	26012020	260120	042559	54.640	12.536962	-57.475248	54.510	0.250	-0.200	0.190	54.630	-1.800	0.400																			1580012759.0	7.84	14.52
26/01/2020 04:26:00	26012020	260120	042600	54.570	12.536982	-57.475220	54.520	-0.020	0.310	0.370	54.560	-1.300	0.700	1014.90	25.70	25.70	20.90	20.90	-1.00	74.00	74.00	386.00	25.20	2.00	8.70	58.00	4.90	14	3273.00	27.40	27.40	1580012760.0	7.47	13.83
26/01/2020 04:26:01	26012020	260120	042601	54.570	12.537000	-57.475193	54.650	-0.250	0.350	0.350	54.590	-1.000	0.800																			1580012761.0	6.89	12.76
26/01/2020 04:26:02	26012020	260120	042602	54.710	12.537020	-57.475168	54.790	-0.220	-0.040	0.320	54.750	-1.200	0.700																			1580012762.0	7.02	13.00
26/01/2020 04:26:03	26012020	260120	042603	54.860	12.537043	-57.475140	54.840	-0.030	-0.390	0.370	54.870	-1.600	0.700																			1580012763.0	7.60	14.08
26/01/2020 04:26:04	26012020	260120	042604	54.910	12.537065	-57.475110	54.810	0.130	-0.450	0.570	54.900	-1.900	0.900																			1580012764.0	7.82	14.48
26/01/2020 04:26:05	26012020	260120	042605	54.870	12.537087	-57.475082	54.720	0.190	-0.310	0.740	54.860	-1.800	1.100																			1580012765.0	7.63	14.13
26/01/2020 04:26:06	26012020	260120	042606	54.790	12.537107	-57.475053	54.600	0.180	-0.180	0.730	54.760	-1.600	1.100																			1580012766.0	7.31	13.54
26/01/2020 04:26:07	26012020	260120	042607	54.670	12.537127	-57.475025	54.530	0.160	-0.240	0.520	54.650	-1.600	1.000																			1580012767.0	7.22	13.37
26/01/2020 04:26:08	26012020	260120	042608	54.610	12.537148	-57.474998	54.540	0.090	-0.340	0.190	54.610	-1.600	0.900																			1580012768.0	7.42	13.74
26/01/2020 04:26:09	26012020	260120	042609	54.630	12.537172	-57.474972	54.620	-0.050	-0.220	-0.110	54.640	-1.700	0.400																			1580012769.0	7.68	14.22
26/01/2020 04:26:10	26012020	260120	042610	54.710	12.537197	-57.474945	54.690	-0.190	0.060	-0.170	54.710	-1.600	0.300																			1580012770.0	7.63	14.13
26/01/2020 04:26:11	26012020	260120	042611	54.780	12.537218	-57.474918	54.740	-0.290	0.270	-0.030	54.790	-1.200	0.300																			1580012771.0	7.33	13.58
26/01/2020 04:26:12	26012020	260120	042612	54.820	12.537238	-57.474892	54.790	-0.370	0.270	0.160	54.830	-1.100	0.500																			1580012772.0	7.19	13.32
26/01/2020 04:26:13	26012020	260120	042613	54.870	12.537258	-57.474863	54.870	-0.370	-0.030	0.290	54.880	-1.200	0.600																			1580012773.0	7.24	13.41
26/01/2020 04:26:14	26012020	260120	042614	54.940	12.537277	-57.474835	54.870	-0.120	-0.550	0.400	54.950	-1.700	0.700																			1580012774.0	7.37	13.65
26/01/2020 04:26:15	26012020	260120	042615	54.940	12.537297	-57.474805	54.830	0.270	-0.900	0.430	54.940	-2.200	0.800																			1580012775.0	7.69	14.24
26/01/2020 04:26:16	26012020	260120	042616	54.920	12.537320	-57.474775	54.820	0.530	-0.760	0.380	54.920	-2.300	0.800																			1580012776.0	7.92	14.67
26/01/2020 04:26:17	26012020	260120	042617	54.920	12.537342	-57.474747	54.820	0.500	-0.180	0.330	54.920	-1.900	0.700																			1580012777.0	7.71	14.28
26/01/2020 04:26:18	26012020	260120	042618	54.910	12.537365	-57.474722	54.810	0.230	0.400	0.260	54.910	-1.200	0.700																			1580012778.0	7.24	13.41
26/01/2020 04:26:19	26012020	260120	042619	54.900	12.537385	-57.474697	54.840	-0.020	0.500	0.210	54.900	-0.900	0.600																			1580012779.0	6.89	12.76
26/01/2020 04:26:20	26012020	260120	042620	54.930	12.537407	-57.474670	54.870	-0.140	0.060	0.270	54.940	-1.100	0.600																			1580012780.0	7.05	13.06
26/01/2020 04:26:21	26012020	260120	042621	54.960	12.537427	-57.474642	54.880	-0.180	-0.420	0.320	54.960	-1.600	0.700																			1580012781.0	7.58	14.04
26/01/2020 04:26:22	26012020	260120	042622	54.960	12.537448	-57.474612	54.820	-0.220	-0.510	0.300	54.950	-1.900	0.700																			1580012782.0	7.95	14.72
26/01/2020 04:26:23	26012020	260120	042623	54.900	12.537470	-57.474582	54.740	-0.240	-0.280	0.230	54.890	-1.800	0.700																			1580012783.0	7.74	14.33
26/01/2020 04:26:24	26012020	260120	042624	54.830	12.537492	-57.474555	54.770	-0.120	-0.160	0.040	54.830	-1.600	0.500																			1580012784.0	7.29	13.50
26/01/2020 04:26:25	26012020	260120	042625	54.880	12.537513	-57.474528	54.860	0.110	-0.190	0.010	54.890	-1.600	0.400																			1580012785.0	7.20	13.33
26/01/2020 04:26:26	26012020	260120	042626	54.950	12.537535	-57.474502	54.850	0.210	-0.130	0.210	54.960	-1.600	0.500																			1580012786.0	7.48	13.85
26/01/2020 04:26:27	26012020	260120	042627	54.940	12.537557	-57.474473	54.770	0.040	-0.010	0.380	54.920	-1.500	0.700																			1580012787.0	7.54	13.96
26/01/2020 04:26:28	26012020	260120	042628	54.850	12.537575	-57.474445	54.760	-0.220	-0.050	0.380	54.840	-1.400	0.800																			1580012788.0	7.35	13.61
26/01/2020 04:26:29	26012020	260120	042629	54.840	12.537595	-57.474417	54.850	-0.250	-0.250	0.370	54.860	-1.500	0.700																			1580012789.0	7.30	13.52
26/01/2020 04:26:30	26012020	260120	042630	54.930	12.537617	-57.474388	54.850	-0.020	-0.370	0.430	54.940	-1.700	0.800																			1580012790.0	7.49	13.87
26/01/2020 04:26:31	26012020	260120	042631	54.930	12.537638	-57.474360	54.730	0.270	-0.360	0.390	54.920	-1.800	0.800																			1580012791.0	7.61	14.09
26/01/2020 04:26:32	26012020	260120	042632	54.820	12.537660	-57.474332	54.590	0.360	-0.220	0.370	54.790	-1.700	0.800																			1580012792.0	7.55	13.98
26/01/2020 04:26:33	26012020	260120	042633	54.670	12.537682	-57.474303	54.530	0.180	-0.020	0.260	54.650	-1.500	0.700																			1580012793.0	7.49	13.87
26/01/2020 04:26:34	26012020	260120	042634	54.620	12.537703	-57.474277	54.620	-0.060	0.050	-0.040	54.620	-1.400	0.500																			1580012794.0	7.35	13.61
26/01/2020 04:26:35	26012020	260120	042635	54.710	12.537725	-57.474252	54.750	-0.110	-0.030	-0.220	54.730	-1.400	0.200																			1580012795.0	7.30	13.52
26/01/2020 04:26:36	26012020	260120	042636	54.840	12.537748	-57.474225	54.860	-0.010	-0.140	-0.120	54.860	-1.500	0.200																			1580012796.0	7.48	13.85
26/01/2020 04:26:37	26012020	260120	042637	54.950	12.537772	-57.474197	54.910	0.010	-0.230	0.140	54.960	-1.600	0.400																			1580012797.0	7.55	13.98
26/01/2020 04:26:38	26012020	260120	042638	54.990	12.537792	-57.474168	54.860	-0.090	-0.290	0.460	54.990	-1.700	0.700																			1580012798.0	7.52	13.93
26/01/2020 04:26:39	26012020	260120	042639	54.930	12.537812	-57.474138	54.730	-0.180	-0.340	0.770	54.910	-1.700	1.000																			1580012799.0	7.47	13.83
26/01/2020 04:26:40	26012020	260120	042640	54.810	12.537830	-57.474110	54.680	-0.150	-0.350	0.840	54.780	-1.800	1.200																			1580012800.0	7.47	13.83
26/01/2020 04:26:41	26012020	260120	042641	54.760	12.537852	-57.474082	54.840	-0.010	-0.310	0.620	54.770	-1.700	1.100																			1580012801.0	7.49	13.87
26/01/2020 04:26:42	26012020	260120	042642	54.920	12.537872	-57.474053	54.990	0.090	-0.110	0.420	54.960	-1.600	0.900																			1580012802.0	7.53	13.95
26/01/2020 04:26:43	26012020	260120	042643	55.080	12.537893	-57.474025	54.890	0.060	0.170	0.330	55.090	-1.400	0.800																			1580012803.0	7.45	13.80
26/01/2020 04:26:44	26012020	260120	042644	54.990	12.537915	-57.473998	54.670	-0.040	0.240	0.180	54.940	-1.200	0.700																			1580012804.0	7.26	13.45
26/01/2020 04:26:45	26012020	260120	042645	54.770	12.537937	-57.473972	54.660	-0.040	-0.050	-0.180	54.750	-1.300	0.400																			1580012805.0	7.23	13.39
26/01/2020 04:26:46	26012020	260120	042646	54.770	12.537960	-57.473945	54.840	0.090	-0.430	-0.480	54.770	-1.400	0.300																			1580012806.0	7.54	13.96
26/01/2020 04:26:47	26012020	260120	042647	54.940	12.537985	-57.473918	54.940	0.200	-0.510	-0.510	54.980	-1.900	-0.100																			1580012807.0	7.86	14.56
26/01/2020 04:26:48	26012020	260120	042648	55.050	12.538008	-57.473890	54.870	0.100	-0.320	-0.270	55.050	-1.800	-0.000																			1580012808.0	7.73	14.32
26/01/2020 04:26:49	26012020	260120	042649	54.980	12.538028	-57.473862	54.720	-0.140	-0.100	0.100	54.950	-1.600	0.300																			1580012809.0	7.37	13.65
26/01/2020 04:26:50	26012020	260120	042650	54.820	12.538047	-57.473833	54.620	-0.290	0.010	0.460	54.780	-1.400	0.700																			1580012810.0	7.20	13.33
26/01/2020 04:26:51	26012020	260120	042651	54.710	12.538067	-57.473807	54.680	-0.120	-0.160	0.670	54.710	-1.500	1.000																			1580012811.0	7.23	13.39
26/01/2020 04:26:52	26012020	260120	042652	54.760	12.538087	-57.473778	54.740	0.220	-0.390	0.720	54.770	-1.700	1.100																			1580012812.0	7.45	13.80
26/01/2020 04:26:53	26012020	260120	042653	54.820	12.538110	-57.473748	54.740	0.330	-0.340	0.750	54.820	-1.800	1.100																			1580012813.0	7.80	14.45
26/01/2020 04:26:54	26012020	260120	042654	54.810	12.538132	-57.473720	54.760	0.110	-0.060	0.860	54.810	-1.600	1.200																			1580012814.0	7.73	14.32
26/01/2020 04:26:55	26012020	260120	042655	54.830	12.538152	-57.473692	54.850	-0.210	0.090	0.830	54.840	-1.400	1.300																			1580012815.0	7.34	13.59
26/01/2020 04:26:56	26012020	260120	042656	54.920	12.538172	-57.473663	54.870	-0.350	0.040	0.560	54.920	-1.300	1.200																			1580012816.0	7.19	13.32
26/01/2020 04:26:57	26012020	260120	042657	54.950	12.538192	-57.473637	54.780	-0.240	-0.040	0.320	54.940	-1.400	0.800																			1580012817.0	7.38	13.67
26/01/2020 04:26:58	26012020	260120	042658	54.870	12.538215	-57.473608	54.760	-0.020	-0.160	0.000	54.870	-1.400	0.700																			1580012818.0	7.52	13.93
26/01/2020 04:26:59	26012020	260120	042659	54.840	12.538237	-57.473582	54.790	0.180	-0.340	-0.380	54.850	-1.700	0.200																			1580012819.0	7.52	13.93
26/01/2020 04:27:00	26012020	260120	042700	54.890	12.538262	-57.473555	54.770	0.280	-0.410	-0.560	54.890	-1.800	-0.100	1014.90	25.70	25.80	21.20	21.10	-1.00	76.00	75.00	386.00	25.20	2.00	8.60	58.00	4.70	14	3177.00	27.50	27.40	1580012820.0	7.61	14.09
26/01/2020 04:27:01	26012020	260120	042701	54.870	12.538285	-57.473528	54.690	0.220	-0.330	-0.480	54.860	-1.800	-0.200																			1580012821.0	7.65	14.17
26/01/2020 04:27:02	26012020	260120	042702	54.780	12.538307	-57.473502	54.660	0.060	-0.250	-0.270	54.770	-1.700	0.000																			1580012822.0	7.49	13.87
26/01/2020 04:27:03	26012020	260120	042703	54.750	12.538328	-57.473473	54.740	-0.090	-0.150	0.030	54.760	-1.600	0.300																			1580012823.0	7.42	13.74
26/01/2020 04:27:04	26012020	260120	042704	54.820	12.538350	-57.473445	54.860	-0.170	-0.060	0.430	54.840	-1.500	0.600																			1580012824.0	7.46	13.82
26/01/2020 04:27:05	26012020	260120	042705	54.930	12.538368	-57.473417	54.990	-0.180	-0.020	0.800	54.960	-1.400	1.000																			1580012825.0	7.41	13.72
26/01/2020 04:27:06	26012020	260120	042706	55.050	12.538387	-57.473387	55.080	-0.200	0.020	1.030	55.070	-1.400	1.300																			1580012826.0	7.45	13.80
26/01/2020 04:27:07	26012020	260120	042707	55.130	12.538407	-57.473357	55.030	-0.190	-0.010	1.160	55.140	-1.400	1.500																			1580012827.0	7.45	13.80
26/01/2020 04:27:08	26012020	260120	042708	55.090	12.538427	-57.473328	54.880	-0.070	-0.180	1.120	55.060	-1.500	1.600																			1580012828.0	7.41	13.72
26/01/2020 04:27:09	26012020	260120	042709	54.940	12.538447	-57.473300	54.820	0.190	-0.510	0.700	54.920	-1.800	1.300																			1580012829.0	7.50	13.89
26/01/2020 04:27:10	26012020	260120	042710	54.890	12.538470	-57.473272	54.900	0.460	-0.720	0.080	54.900	-2.100	0.800																			1580012830.0	7.75	14.35
26/01/2020 04:27:11	26012020	260120	042711	54.980	12.538495	-57.473245	54.960	0.470	-0.420	-0.390	55.000	-2.000	0.200																			1580012831.0	7.96	14.74
26/01/2020 04:27:12	26012020	260120	042712	55.070	12.538520	-57.473217	54.950	0.120	0.310	-0.590	55.070	-1.400	-0.100																			1580012832.0	7.75	14.35
26/01/2020 04:27:13	26012020	260120	042713	55.050	12.538542	-57.473193	54.890	-0.360	0.760	-0.550	55.040	-0.800	-0.200																			1580012833.0	7.09	13.13
26/01/2020 04:27:14	26012020	260120	042714	54.990	12.538563	-57.473168	54.860	-0.570	0.430	-0.390	54.980	-0.700	-0.100																			1580012834.0	6.73	12.46
26/01/2020 04:27:15	26012020	260120	042715	54.950	12.538583	-57.473142	54.800	-0.320	-0.500	-0.150	54.940	-1.500	0.100																			1580012835.0	7.17	13.28
26/01/2020 04:27:16	26012020	260120	042716	54.890	12.538605	-57.473112	54.790	0.130	-1.220	0.160	54.880	-2.400	0.400																			1580012836.0	8.00	14.82
26/01/2020 04:27:17	26012020	260120	042717	54.880	12.538628	-57.473078	54.900	0.360	-1.090	0.550	54.900	-2.700	0.800																			1580012837.0	8.40	15.56
26/01/2020 04:27:18	26012020	260120	042718	54.980	12.538648	-57.473047	54.990	0.160	-0.190	0.910	55.000	-2.100	1.100																			1580012838.0	7.98	14.78
26/01/2020 04:27:19	26012020	260120	042719	55.060	12.538665	-57.473018	55.000	-0.200	0.670	1.060	55.070	-1.100	1.400																			1580012839.0	7.05	13.06
26/01/2020 04:27:20	26012020	260120	042720	55.090	12.538682	-57.472993	55.040	-0.310	0.750	0.900	55.100	-0.600	1.400																			1580012840.0	6.49	12.02
26/01/2020 04:27:21	26012020	260120	042721	55.130	12.538702	-57.472967	54.960	-0.090	0.090	0.610	55.130	-1.000	1.100																			1580012841.0	6.86	12.70
26/01/2020 04:27:22	26012020	260120	042722	55.070	12.538725	-57.472940	54.800	0.220	-0.630	0.330	55.040	-1.800	0.800																			1580012842.0	7.77	14.39
26/01/2020 04:27:23	26012020	260120	042723	54.900	12.538750	-57.472910	54.680	0.340	-0.810	0.070	54.870	-2.200	0.600																			1580012843.0	8.30	15.37
26/01/2020 04:27:24	26012020	260120	042724	54.790	12.538775	-57.472882	54.750	0.220	-0.460	-0.190	54.790	-2.100	0.300																			1580012844.0	8.05	14.91
26/01/2020 04:27:25	26012020	260120	042725	54.870	12.538798	-57.472855	54.960	0.010	-0.050	-0.410	54.900	-1.600	0.100																			1580012845.0	7.40	13.70
26/01/2020 04:27:26	26012020	260120	042726	55.070	12.538820	-57.472830	55.110	-0.140	0.120	-0.390	55.110	-1.300	-0.100																			1580012846.0	7.03	13.02
26/01/2020 04:27:27	26012020	260120	042727	55.220	12.538840	-57.472803	55.090	-0.190	0.080	-0.090	55.230	-1.300	0.100																			1580012847.0	7.18	13.30
26/01/2020 04:27:28	26012020	260120	042728	55.200	12.538858	-57.472773	54.940	-0.170	-0.040	0.190	55.180	-1.400	0.500																			1580012848.0	7.45	13.80
26/01/2020 04:27:29	26012020	260120	042729	55.050	12.538878	-57.472743	54.840	-0.120	-0.100	0.360	55.030	-1.500	0.700																			1580012849.0	7.58	14.04
26/01/2020 04:27:30	26012020	260120	042730	54.940	12.538900	-57.472715	54.820	-0.000	-0.150	0.550	54.930	-1.500	0.900																			1580012850.0	7.53	13.95
26/01/2020 04:27:31	26012020	260120	042731	54.930	12.538920	-57.472688	54.880	0.120	-0.340	0.650	54.930	-1.600	1.000																			1580012851.0	7.39	13.69
26/01/2020 04:27:32	26012020	260120	042732	54.980	12.538942	-57.472660	54.970	0.180	-0.550	0.600	55.000	-1.900	1.000																			1580012852.0	7.45	13.80
26/01/2020 04:27:33	26012020	260120	042733	55.050	12.538963	-57.472630	54.950	0.150	-0.470	0.560	55.060	-2.000	1.000																			1580012853.0	7.68	14.22
26/01/2020 04:27:34	26012020	260120	042734	55.040	12.538985	-57.472602	54.920	0.050	-0.100	0.470	55.040	-1.900	0.900																			1580012854.0	7.66	14.19
26/01/2020 04:27:35	26012020	260120	042735	55.010	12.539007	-57.472575	54.920	-0.070	0.190	0.300	55.010	-1.300	0.800																			1580012855.0	7.32	13.56
26/01/2020 04:27:36	26012020	260120	042736	55.010	12.539027	-57.472548	54.960	-0.200	0.250	0.110	55.020	-1.200	0.600																			1580012856.0	7.16	13.26
26/01/2020 04:27:37	26012020	260120	042737	55.060	12.539048	-57.472522	55.010	-0.210	0.010	-0.030	55.070	-1.300	0.400																			1580012857.0	7.29	13.50
26/01/2020 04:27:38	26012020	260120	042738	55.110	12.539070	-57.472493	54.980	-0.040	-0.400	-0.090	55.110	-1.600	0.300																			1580012858.0	7.48	13.85
26/01/2020 04:27:39	26012020	260120	042739	55.070	12.539093	-57.472465	54.910	0.210	-0.650	-0.110	55.060	-2.000	0.300																			1580012859.0	7.75	14.35
26/01/2020 04:27:40	26012020	260120	042740	55.000	12.539115	-57.472437	54.880	0.320	-0.550	-0.020	54.990	-2.000	0.300																			1580012860.0	7.86	14.56
26/01/2020 04:27:41	26012020	260120	042741	54.970	12.539137	-57.472408	54.890	0.200	-0.180	0.130	54.970	-1.800	0.500																			1580012861.0	7.66	14.19
26/01/2020 04:27:42	26012020	260120	042742	54.990	12.539158	-57.472380	54.890	-0.070	0.190	0.200	54.990	-1.400	0.600																			1580012862.0	7.33	13.58
26/01/2020 04:27:43	26012020	260120	042743	54.980	12.539178	-57.472353	54.850	-0.300	0.330	0.340	54.970	-1.100	0.700																			1580012863.0	7.15	13.24
26/01/2020 04:27:44	26012020	260120	042744	54.930	12.539198	-57.472325	54.850	-0.340	0.140	0.490	54.920	-1.100	0.800																			1580012864.0	7.20	13.33
26/01/2020 04:27:45	26012020	260120	042745	54.930	12.539218	-57.472297	54.930	-0.220	-0.220	0.470	54.940	-1.500	0.900																			1580012865.0	7.44	13.78
26/01/2020 04:27:46	26012020	260120	042746	55.000	12.539238	-57.472267	55.050	-0.060	-0.410	0.380	55.030	-1.800	0.800																			1580012866.0	7.71	14.28
26/01/2020 04:27:47	26012020	260120	042747	55.110	12.539260	-57.472238	55.060	0.060	-0.360	0.300	55.130	-1.800	0.700																			1580012867.0	7.71	14.28
26/01/2020 04:27:48	26012020	260120	042748	55.150	12.539282	-57.472210	54.940	0.210	-0.280	0.220	55.140	-1.700	0.700																			1580012868.0	7.46	13.82
26/01/2020 04:27:49	26012020	260120	042749	55.030	12.539303	-57.472183	54.800	0.380	-0.340	0.150	55.000	-1.700	0.600																			1580012869.0	7.32	13.56
26/01/2020 04:27:50	26012020	260120	042750	54.890	12.539327	-57.472157	54.730	0.470	-0.510	0.110	54.870	-1.800	0.500																			1580012870.0	7.44	13.78
26/01/2020 04:27:51	26012020	260120	042751	54.820	12.539348	-57.472128	54.730	0.320	-0.450	0.070	54.810	-1.900	0.500																			1580012871.0	7.72	14.30
26/01/2020 04:27:52	26012020	260120	042752	54.820	12.539372	-57.472100	54.810	-0.040	-0.080	0.040	54.840	-1.700	0.400																			1580012872.0	7.79	14.43
26/01/2020 04:27:53	26012020	260120	042753	54.900	12.539393	-57.472072	54.910	-0.380	0.300	0.140	54.930	-1.300	0.500																			1580012873.0	7.46	13.82
26/01/2020 04:27:54	26012020	260120	042754	54.990	12.539413	-57.472045	54.890	-0.480	0.420	0.350	54.990	-1.000	0.600																			1580012874.0	7.20	13.33
26/01/2020 04:27:55	26012020	260120	042755	54.960	12.539433	-57.472017	54.810	-0.350	0.260	0.490	54.950	-1.000	0.800																			1580012875.0	7.25	13.43
26/01/2020 04:27:56	26012020	260120	042756	54.880	12.539452	-57.471988	54.770	-0.090	-0.140	0.510	54.870	-1.300	0.900																			1580012876.0	7.46	13.82
26/01/2020 04:27:57	26012020	260120	042757	54.840	12.539473	-57.471958	54.830	0.110	-0.520	0.410	54.850	-1.800	0.800																			1580012877.0	7.65	14.17
26/01/2020 04:27:58	26012020	260120	042758	54.910	12.539495	-57.471928	54.920	0.100	-0.600	0.250	54.930	-2.000	0.700																			1580012878.0	7.81	14.46
26/01/2020 04:27:59	26012020	260120	042759	55.000	12.539518	-57.471902	54.940	-0.040	-0.430	0.080	55.010	-1.900	0.500																			1580012879.0	7.67	14.20
26/01/2020 04:28:00	26012020	260120	042800	55.030	12.539540	-57.471875	54.840	-0.080	-0.190	0.060	55.030	-1.700	0.400	1014.90	25.70	25.70	21.00	21.10	-1.00	75.00	75.00	386.00	25.20	6.00	8.90	66.00	5.00	14	3281.00	27.40	27.40	1580012880.0	7.37	13.65
26/01/2020 04:28:01	26012020	260120	042801	54.930	12.539562	-57.471848	54.670	0.060	-0.050	0.250	54.890	-1.500	0.500																			1580012881.0	7.26	13.45
26/01/2020 04:28:02	26012020	260120	042802	54.750	12.539582	-57.471820	54.610	0.310	-0.230	0.320	54.720	-1.500	0.700																			1580012882.0	7.29	13.50
26/01/2020 04:28:03	26012020	260120	042803	54.680	12.539603	-57.471792	54.710	0.520	-0.560	0.140	54.700	-1.800	0.600																			1580012883.0	7.54	13.96
26/01/2020 04:28:04	26012020	260120	042804	54.790	12.539627	-57.471762	54.780	0.470	-0.470	-0.050	54.820	-2.000	0.400																			1580012884.0	7.98	14.78
26/01/2020 04:28:05	26012020	260120	042805	54.870	12.539650	-57.471733	54.750	0.070	0.210	0.000	54.870	-1.500	0.300																			1580012885.0	8.00	14.82
26/01/2020 04:28:06	26012020	260120	042806	54.840	12.539672	-57.471707	54.820	-0.430	0.760	0.150	54.840	-0.800	0.500																			1580012886.0	7.32	13.56
26/01/2020 04:28:07	26012020	260120	042807	54.890	12.539692	-57.471682	54.960	-0.680	0.570	0.280	54.920	-0.700	0.600																			1580012887.0	6.75	12.50
26/01/2020 04:28:08	26012020	260120	042808	55.040	12.539712	-57.471655	54.960	-0.550	-0.130	0.450	55.060	-1.200	0.800																			1580012888.0	7.08	13.11
26/01/2020 04:28:09	26012020	260120	042809	55.050	12.539732	-57.471625	54.830	-0.210	-0.730	0.580	55.020	-1.900	0.900																			1580012889.0	7.79	14.43
26/01/2020 04:28:10	26012020	260120	042810	54.910	12.539753	-57.471593	54.780	0.160	-0.930	0.570	54.890	-2.300	1.000																			1580012890.0	8.04	14.89
26/01/2020 04:28:11	26012020	260120	042811	54.860	12.539775	-57.471563	54.820	0.360	-0.690	0.490	54.870	-2.300	0.900																			1580012891.0	7.81	14.46
26/01/2020 04:28:12	26012020	260120	042812	54.900	12.539797	-57.471535	54.770	0.320	-0.220	0.350	54.900	-1.800	0.800																			1580012892.0	7.48	13.85
26/01/2020 04:28:13	26012020	260120	042813	54.870	12.539817	-57.471510	54.650	0.160	0.080	0.160	54.840	-1.400	0.600																			1580012893.0	7.16	13.26
26/01/2020 04:28:14	26012020	260120	042814	54.750	12.539840	-57.471483	54.630	0.060	0.040	-0.050	54.730	-1.300	0.400																			1580012894.0	7.17	13.28
26/01/2020 04:28:15	26012020	260120	042815	54.730	12.539862	-57.471457	54.760	0.030	-0.080	-0.200	54.750	-1.400	0.300																			1580012895.0	7.52	13.93
26/01/2020 04:28:16	26012020	260120	042816	54.860	12.539885	-57.471428	54.870	-0.030	-0.020	-0.240	54.880	-1.500	0.200																			1580012896.0	7.78	14.41
26/01/2020 04:28:17	26012020	260120	042817	54.960	12.539907	-57.471400	54.890	-0.130	0.040	-0.210	54.980	-1.400	0.200																			1580012897.0	7.63	14.13
26/01/2020 04:28:18	26012020	260120	042818	54.990	12.539927	-57.471372	54.810	-0.120	-0.080	-0.080	54.980	-1.400	0.200																			1580012898.0	7.38	13.67
26/01/2020 04:28:19	26012020	260120	042819	54.900	12.539948	-57.471343	54.710	0.010	-0.240	0.110	54.870	-1.600	0.400																			1580012899.0	7.47	13.83
26/01/2020 04:28:20	26012020	260120	042820	54.790	12.539970	-57.471315	54.650	0.130	-0.300	0.350	54.780	-1.700	0.600																			1580012900.0	7.64	14.15
26/01/2020 04:28:21	26012020	260120	042821	54.730	12.539992	-57.471287	54.590	0.100	-0.200	0.590	54.720	-1.700	0.900																			1580012901.0	7.64	14.15
26/01/2020 04:28:22	26012020	260120	042822	54.670	12.540013	-57.471258	54.640	-0.100	-0.100	0.650	54.660	-1.500	1.000																			1580012902.0	7.45	13.80
26/01/2020 04:28:23	26012020	260120	042823	54.710	12.540033	-57.471232	54.810	-0.270	-0.260	0.530	54.740	-1.600	1.000																			1580012903.0	7.28	13.48
26/01/2020 04:28:24	26012020	260120	042824	54.890	12.540053	-57.471203	54.930	-0.240	-0.430	0.490	54.930	-1.800	0.900																			1580012904.0	7.42	13.74
26/01/2020 04:28:25	26012020	260120	042825	55.010	12.540077	-57.471173	54.860	-0.100	-0.230	0.540	55.010	-1.800	0.900																			1580012905.0	7.73	14.32
26/01/2020 04:28:26	26012020	260120	042826	54.940	12.540097	-57.471145	54.700	0.050	0.080	0.500	54.910	-1.400	0.900																			1580012906.0	7.59	14.06
26/01/2020 04:28:27	26012020	260120	042827	54.790	12.540117	-57.471118	54.600	0.190	0.040	0.340	54.760	-1.300	0.800																			1580012907.0	7.21	13.35
26/01/2020 04:28:28	26012020	260120	042828	54.680	12.540138	-57.471090	54.550	0.350	-0.360	0.100	54.670	-1.600	0.600																			1580012908.0	7.30	13.52
26/01/2020 04:28:29	26012020	260120	042829	54.640	12.540162	-57.471062	54.640	0.470	-0.670	-0.270	54.650	-2.000	0.300																			1580012909.0	7.79	14.43
26/01/2020 04:28:30	26012020	260120	042830	54.740	12.540187	-57.471033	54.780	0.350	-0.450	-0.490	54.770	-2.000	-0.000																			1580012910.0	8.07	14.95
26/01/2020 04:28:31	26012020	260120	042831	54.890	12.540210	-57.471007	54.830	-0.040	0.170	-0.390	54.910	-1.500	-0.100																			1580012911.0	7.81	14.46
26/01/2020 04:28:32	26012020	260120	042832	54.940	12.540232	-57.470980	54.770	-0.440	0.590	-0.050	54.930	-0.900	0.200																			1580012912.0	7.15	13.24
26/01/2020 04:28:33	26012020	260120	042833	54.870	12.540252	-57.470955	54.660	-0.560	0.380	0.350	54.840	-0.900	0.600																			1580012913.0	6.88	12.74
26/01/2020 04:28:34	26012020	260120	042834	54.750	12.540270	-57.470927	54.670	-0.370	-0.280	0.630	54.730	-1.400	0.900																			1580012914.0	7.26	13.45
26/01/2020 04:28:35	26012020	260120	042835	54.730	12.540290	-57.470895	54.780	-0.020	-0.820	0.700	54.750	-2.000	1.100																			1580012915.0	7.88	14.59
26/01/2020 04:28:36	26012020	260120	042836	54.860	12.540313	-57.470863	54.910	0.240	-0.720	0.710	54.890	-2.300	1.100																			1580012916.0	8.14	15.08
26/01/2020 04:28:37	26012020	260120	042837	54.990	12.540335	-57.470835	54.910	0.210	-0.180	0.770	55.000	-1.800	1.100																			1580012917.0	7.77	14.39
26/01/2020 04:28:38	26012020	260120	042838	54.990	12.540353	-57.470807	54.800	-0.020	0.170	0.760	54.990	-1.600	1.100																			1580012918.0	7.12	13.19
26/01/2020 04:28:39	26012020	260120	042839	54.890	12.540373	-57.470782	54.730	-0.150	0.040	0.580	54.870	-1.300	1.100																			1580012919.0	6.92	12.82
26/01/2020 04:28:40	26012020	260120	042840	54.820	12.540395	-57.470753	54.720	-0.050	-0.200	0.280	54.820	-1.500	0.800																			1580012920.0	7.37	13.65
26/01/2020 04:28:41	26012020	260120	042841	54.820	12.540418	-57.470727	54.670	0.100	-0.260	-0.030	54.820	-1.700	0.500																			1580012921.0	7.82	14.48
26/01/2020 04:28:42	26012020	260120	042842	54.780	12.540442	-57.470698	54.630	0.200	-0.320	-0.270	54.770	-1.700	0.200																			1580012922.0	7.74	14.33
26/01/2020 04:28:43	26012020	260120	042843	54.750	12.540465	-57.470670	54.710	0.230	-0.420	-0.440	54.750	-1.800	0.000																			1580012923.0	7.60	14.08
26/01/2020 04:28:44	26012020	260120	042844	54.820	12.540488	-57.470643	54.890	0.180	-0.310	-0.540	54.860	-1.800	-0.100																			1580012924.0	7.69	14.24
26/01/2020 04:28:45	26012020	260120	042845	55.010	12.540510	-57.470615	54.910	0.040	0.070	-0.310	55.040	-1.500	-0.100																			1580012925.0	7.65	14.17
26/01/2020 04:28:46	26012020	260120	042846	55.040	12.540530	-57.470587	54.740	-0.170	0.400	0.110	55.010	-1.100	0.300																			1580012926.0	7.35	13.61
26/01/2020 04:28:47	26012020	260120	042847	54.860	12.540550	-57.470558	54.580	-0.320	0.320	0.490	54.820	-1.000	0.700																			1580012927.0	7.11	13.17
26/01/2020 04:28:48	26012020	260120	042848	54.680	12.540570	-57.470532	54.560	-0.270	-0.170	0.690	54.660	-1.300	1.000																			1580012928.0	7.23	13.39
26/01/2020 04:28:49	26012020	260120	042849	54.650	12.540590	-57.470502	54.690	-0.030	-0.660	0.730	54.670	-1.900	1.100																			1580012929.0	7.68	14.22
26/01/2020 04:28:50	26012020	260120	042850	54.780	12.540613	-57.470472	54.810	0.170	-0.760	0.700	54.810	-2.200	1.100																			1580012930.0	7.97	14.76
26/01/2020 04:28:51	26012020	260120	042851	54.900	12.540635	-57.470442	54.830	0.110	-0.420	0.700	54.910	-2.000	1.100																			1580012931.0	7.87	14.58
26/01/2020 04:28:52	26012020	260120	042852	54.920	12.540657	-57.470413	54.780	-0.160	0.090	0.690	54.920	-1.500	1.100																			1580012932.0	7.45	13.80
26/01/2020 04:28:53	26012020	260120	042853	54.870	12.540675	-57.470387	54.670	-0.300	0.330	0.600	54.850	-1.100	1.000																			1580012933.0	7.03	13.02
26/01/2020 04:28:54	26012020	260120	042854	54.770	12.540695	-57.470362	54.620	-0.070	0.100	0.330	54.760	-1.100	0.900																			1580012934.0	7.02	13.00
26/01/2020 04:28:55	26012020	260120	042855	54.730	12.540717	-57.470333	54.630	0.350	-0.470	-0.060	54.730	-1.600	0.500																			1580012935.0	7.41	13.72
26/01/2020 04:28:56	26012020	260120	042856	54.750	12.540742	-57.470305	54.640	0.550	-0.780	-0.440	54.760	-2.100	0.100																			1580012936.0	7.99	14.80
26/01/2020 04:28:57	26012020	260120	042857	54.770	12.540767	-57.470275	54.520	0.310	-0.450	-0.580	54.760	-2.100	-0.200																			1580012937.0	8.21	15.20
26/01/2020 04:28:58	26012020	260120	042858	54.650	12.540790	-57.470248	54.300	-0.130	0.250	-0.460	54.600	-1.500	-0.200																			1580012938.0	7.71	14.28
26/01/2020 04:28:59	26012020	260120	042859	54.430	12.540812	-57.470223	54.230	-0.370	0.570	-0.260	54.390	-0.900	0.000																			1580012939.0	6.97	12.91
26/01/2020 04:29:00	26012020	260120	042900	54.350	12.540830	-57.470198	54.340	-0.300	0.220	-0.080	54.360	-0.900	0.200	1014.90	25.60	25.70	21.10	21.10	-1.00	75.00	75.00	387.00	25.20	4.00	8.80	63.00	4.90	14	3307.00	27.50	27.40	1580012940.0	6.81	12.61
26/01/2020 04:29:01	26012020	260120	042901	54.440	12.540852	-57.470170	54.570	-0.120	-0.410	0.030	54.480	-1.500	0.400																			1580012941.0	7.40	13.70
26/01/2020 04:29:02	26012020	260120	042902	54.660	12.540873	-57.470138	54.730	-0.050	-0.670	0.270	54.660	-1.800	0.400																			1580012942.0	8.00	14.82
26/01/2020 04:29:03	26012020	260120	042903	54.820	12.540895	-57.470108	54.680	-0.130	-0.340	0.770	54.820	-1.900	0.900																			1580012943.0	7.99	14.80
26/01/2020 04:29:04	26012020	260120	042904	54.770	12.540913	-57.470080	54.530	-0.200	0.130	1.220	54.740	-1.500	1.400																			1580012944.0	7.38	13.67
26/01/2020 04:29:05	26012020	260120	042905	54.600	12.540932	-57.470052	54.390	-0.100	0.130	1.270	54.570	-1.200	1.700																			1580012945.0	6.88	12.74
26/01/2020 04:29:06	26012020	260120	042906	54.460	12.540950	-57.470025	54.340	0.210	-0.420	0.950	54.440	-1.500	1.500																			1580012946.0	7.01	12.98
26/01/2020 04:29:07	26012020	260120	042907	54.420	12.540973	-57.469997	54.410	0.540	-0.940	0.420	54.430	-2.200	1.100																			1580012947.0	7.69	14.24
26/01/2020 04:29:08	26012020	260120	042908	54.500	12.540998	-57.469968	54.470	0.610	-0.770	-0.070	54.520	-2.400	0.500																			1580012948.0	8.26	15.30
26/01/2020 04:29:09	26012020	260120	042909	54.570	12.541023	-57.469940	54.430	0.270	0.060	-0.350	54.570	-1.800	0.200																			1580012949.0	8.03	14.87
26/01/2020 04:29:10	26012020	260120	042910	54.550	12.541047	-57.469915	54.390	-0.260	0.790	-0.480	54.540	-0.900	-0.000																			1580012950.0	7.19	13.32
26/01/2020 04:29:11	26012020	260120	042911	54.500	12.541067	-57.469892	54.410	-0.620	0.820	-0.500	54.500	-0.500	-0.100																			1580012951.0	6.65	12.32
26/01/2020 04:29:12	26012020	260120	042912	54.530	12.541088	-57.469867	54.510	-0.610	0.170	-0.430	54.540	-0.900	-0.100																			1580012952.0	6.93	12.83
26/01/2020 04:29:13	26012020	260120	042913	54.620	12.541110	-57.469838	54.680	-0.310	-0.620	-0.290	54.660	-1.700	0.000																			1580012953.0	7.62	14.11
26/01/2020 04:29:14	26012020	260120	042914	54.780	12.541132	-57.469807	54.730	0.100	-1.010	0.020	54.810	-2.300	0.200																			1580012954.0	8.08	14.96
26/01/2020 04:29:15	26012020	260120	042915	54.840	12.541153	-57.469777	54.650	0.390	-0.810	0.470	54.830	-2.400	0.600																			1580012955.0	7.99	14.80
26/01/2020 04:29:16	26012020	260120	042916	54.750	12.541173	-57.469747	54.590	0.440	-0.330	0.820	54.730	-2.000	1.100																			1580012956.0	7.54	13.96
26/01/2020 04:29:17	26012020	260120	042917	54.680	12.541192	-57.469718	54.610	0.280	0.110	0.870	54.670	-1.500	1.300																			1580012957.0	7.13	13.20
26/01/2020 04:29:18	26012020	260120	042918	54.710	12.541212	-57.469692	54.710	0.030	0.300	0.630	54.720	-1.200	1.200																			1580012958.0	7.05	13.06
26/01/2020 04:29:19	26012020	260120	042919	54.810	12.541233	-57.469667	54.850	-0.140	0.210	0.300	54.830	-1.100	0.800																			1580012959.0	7.20	13.33
26/01/2020 04:29:20	26012020	260120	042920	54.950	12.541257	-57.469640	54.900	-0.150	-0.090	0.100	54.970	-1.300	0.600																			1580012960.0	7.44	13.78
26/01/2020 04:29:21	26012020	260120	042921	55.000	12.541280	-57.469613	54.850	-0.030	-0.430	0.050	55.000	-1.700	0.400																			1580012961.0	7.65	14.17
26/01/2020 04:29:22	26012020	260120	042922	54.950	12.541302	-57.469583	54.780	0.070	-0.600	0.070	54.940	-2.000	0.400																			1580012962.0	7.79	14.43
26/01/2020 04:29:23	26012020	260120	042923	54.890	12.541323	-57.469555	54.880	0.050	-0.440	-0.020	54.890	-2.000	0.400																			1580012963.0	7.79	14.43
26/01/2020 04:29:24	26012020	260120	042924	54.980	12.541345	-57.469527	55.080	-0.090	-0.020	-0.210	55.020	-1.600	0.300																			1580012964.0	7.56	14.00
26/01/2020 04:29:25	26012020	260120	042925	55.180	12.541367	-57.469498	55.120	-0.210	0.370	-0.260	55.210	-1.200	0.100																			1580012965.0	7.23	13.39
26/01/2020 04:29:26	26012020	260120	042926	55.230	12.541387	-57.469473	54.980	-0.250	0.390	-0.060	55.220	-1.000	0.200																			1580012966.0	7.03	13.02
26/01/2020 04:29:27	26012020	260120	042927	55.090	12.541407	-57.469447	54.900	-0.120	-0.120	0.110	55.050	-1.200	0.400																			1580012967.0	7.14	13.22
26/01/2020 04:29:28	26012020	260120	042928	55.000	12.541428	-57.469418	55.040	0.170	-0.780	0.100	55.010	-1.900	0.500																			1580012968.0	7.57	14.02
26/01/2020 04:29:29	26012020	260120	042929	55.140	12.541452	-57.469388	55.210	0.450	-0.900	0.120	55.180	-2.400	0.500																			1580012969.0	8.06	14.93
26/01/2020 04:29:30	26012020	260120	042930	55.310	12.541475	-57.469358	55.130	0.430	-0.320	0.340	55.320	-2.100	0.600																			1580012970.0	8.02	14.85
26/01/2020 04:29:31	26012020	260120	042931	55.230	12.541495	-57.469330	54.940	0.090	0.310	0.520	55.200	-1.300	0.800																			1580012971.0	7.33	13.58
26/01/2020 04:29:32	26012020	260120	042932	55.040	12.541513	-57.469303	54.950	-0.200	0.340	0.390	55.020	-1.000	0.900																			1580012972.0	6.78	12.56
26/01/2020 04:29:33	26012020	260120	042933	55.060	12.541533	-57.469278	55.140	-0.220	-0.050	0.150	55.090	-1.300	0.600																			1580012973.0	7.06	13.08
26/01/2020 04:29:34	26012020	260120	042934	55.250	12.541557	-57.469250	55.340	-0.120	-0.350	-0.020	55.290	-1.700	0.400																			1580012974.0	7.74	14.33
26/01/2020 04:29:35	26012020	260120	042935	55.440	12.541580	-57.469220	55.400	-0.130	-0.360	-0.000	55.460	-1.800	0.300																			1580012975.0	7.92	14.67
26/01/2020 04:29:36	26012020	260120	042936	55.490	12.541602	-57.469192	55.200	-0.250	-0.160	0.300	55.460	-1.700	0.500																			1580012976.0	7.64	14.15
26/01/2020 04:29:37	26012020	260120	042937	55.280	12.541620	-57.469163	54.900	-0.250	-0.030	0.600	55.220	-1.500	0.900																			1580012977.0	7.29	13.50
26/01/2020 04:29:38	26012020	260120	042938	54.990	12.541638	-57.469135	54.740	0.010	-0.210	0.550	54.940	-1.500	1.000																			1580012978.0	7.15	13.24
26/01/2020 04:29:39	26012020	260120	042939	54.830	12.541660	-57.469107	54.760	0.330	-0.450	0.150	54.820	-1.800	0.800																			1580012979.0	7.45	13.80
26/01/2020 04:29:40	26012020	260120	042940	54.860	12.541683	-57.469078	54.890	0.450	-0.400	-0.350	54.870	-1.900	0.300																			1580012980.0	7.85	14.54
26/01/2020 04:29:41	26012020	260120	042941	54.990	12.541708	-57.469052	55.050	0.270	-0.050	-0.660	55.020	-1.600	-0.200																			1580012981.0	7.78	14.41
26/01/2020 04:29:42	26012020	260120	042942	55.150	12.541732	-57.469027	55.070	-0.040	0.250	-0.590	55.170	-1.300	-0.300																			1580012982.0	7.36	13.63
26/01/2020 04:29:43	26012020	260120	042943	55.170	12.541752	-57.469000	54.970	-0.250	0.170	-0.290	55.160	-1.100	-0.000																			1580012983.0	7.09	13.13
26/01/2020 04:29:44	26012020	260120	042944	55.060	12.541773	-57.468973	54.910	-0.170	-0.280	0.030	55.050	-1.400	0.300																			1580012984.0	7.25	13.43
26/01/2020 04:29:45	26012020	260120	042945	55.000	12.541795	-57.468945	54.970	0.080	-0.670	0.380	55.000	-1.900	0.600																			1580012985.0	7.69	14.24
26/01/2020 04:29:46	26012020	260120	042946	55.050	12.541817	-57.468913	55.070	0.130	-0.510	0.800	55.070	-2.100	1.000																			1580012986.0	8.00	14.82
26/01/2020 04:29:47	26012020	260120	042947	55.150	12.541837	-57.468883	55.080	-0.200	0.120	1.130	55.170	-1.600	1.400																			1580012987.0	7.75	14.35
26/01/2020 04:29:48	26012020	260120	042948	55.160	12.541853	-57.468853	55.040	-0.600	0.520	1.200	55.150	-1.000	1.600																			1580012988.0	7.07	13.09
26/01/2020 04:29:49	26012020	260120	042949	55.110	12.541870	-57.468827	55.060	-0.580	0.170	0.950	55.110	-1.000	1.500																			1580012989.0	6.70	12.41
26/01/2020 04:29:50	26012020	260120	042950	55.140	12.541890	-57.468800	55.030	-0.060	-0.510	0.590	55.140	-1.600	1.100																			1580012990.0	7.20	13.33
26/01/2020 04:29:51	26012020	260120	042951	55.110	12.541913	-57.468772	54.880	0.520	-0.800	0.220	55.090	-2.100	0.800																			1580012991.0	8.02	14.85
26/01/2020 04:29:52	26012020	260120	042952	54.960	12.541938	-57.468742	54.750	0.780	-0.620	-0.260	54.940	-2.100	0.400																			1580012992.0	8.07	14.95
26/01/2020 04:29:53	26012020	260120	042953	54.840	12.541962	-57.468715	54.730	0.650	-0.300	-0.850	54.830	-1.900	-0.200																			1580012993.0	7.61	14.09
26/01/2020 04:29:54	26012020	260120	042954	54.850	12.541985	-57.468690	54.870	0.320	0.010	-1.350	54.870	-1.500	-0.800																			1580012994.0	7.36	13.63
26/01/2020 04:29:55	26012020	260120	042955	55.010	12.542012	-57.468667	55.100	-0.040	0.290	-1.450	55.050	-1.200	-1.100																			1580012995.0	7.39	13.69
26/01/2020 04:29:56	26012020	260120	042956	55.230	12.542035	-57.468642	55.190	-0.320	0.350	-1.000	55.270	-1.000	-0.900																			1580012996.0	7.33	13.58
26/01/2020 04:29:57	26012020	260120	042957	55.320	12.542055	-57.468615	55.190	-0.460	0.070	-0.200	55.320	-1.200	-0.200																			1580012997.0	7.28	13.48
26/01/2020 04:29:58	26012020	260120	042958	55.290	12.542075	-57.468585	55.170	-0.470	-0.290	0.730	55.290	-1.500	0.700																			1580012998.0	7.53	13.95
26/01/2020 04:29:59	26012020	260120	042959	55.260	12.542092	-57.468552	55.130	-0.410	-0.390	1.570	55.250	-1.800	1.600																			1580012999.0	7.82	14.48
26/01/2020 04:30:00	26012020	260120	043000	55.210	12.542108	-57.468520	55.060	-0.290	-0.340	2.060	55.190	-1.800	2.300	1014.90	25.70	25.70	21.20	21.20	-1.00	76.00	76.00	388.00	25.20	7.00	8.70	68.00	4.90	14	3245.00	27.40	27.40	1580013000.0	7.70	14.26
26/01/2020 04:30:01	26012020	260120	043001	55.120	12.542123	-57.468488	55.000	-0.090	-0.390	2.000	55.110	-1.800	2.500																			1580013001.0	7.39	13.69
26/01/2020 04:30:02	26012020	260120	043002	55.070	12.542142	-57.468460	54.950	0.160	-0.450	1.470	55.060	-1.900	2.100																			1580013002.0	7.37	13.65
26/01/2020 04:30:03	26012020	260120	043003	55.020	12.542165	-57.468432	54.870	0.340	-0.180	0.710	55.010	-1.800	1.500																			1580013003.0	7.61	14.09
26/01/2020 04:30:04	26012020	260120	043004	54.960	12.542188	-57.468405	54.840	0.370	0.160	-0.200	54.950	-1.400	0.600																			1580013004.0	7.56	14.00
26/01/2020 04:30:05	26012020	260120	043005	54.940	12.542213	-57.468382	54.850	0.370	0.070	-1.090	54.940	-1.200	-0.300																			1580013005.0	7.24	13.41
26/01/2020 04:30:06	26012020	260120	043006	54.980	12.542238	-57.468358	54.900	0.400	-0.360	-1.710	54.980	-1.300	-0.600																			1580013006.0	7.44	13.78
26/01/2020 04:30:07	26012020	260120	043007	55.040	12.542267	-57.468332	54.920	0.330	-0.550	-1.820	55.060	-1.900	-1.400																			1580013007.0	7.97	14.76
26/01/2020 04:30:08	26012020	260120	043008	55.070	12.542292	-57.468305	54.820	0.030	-0.150	-1.370	55.060	-1.800	-1.300																			1580013008.0	8.05	14.91
26/01/2020 04:30:09	26012020	260120	043009	54.960	12.542313	-57.468277	54.730	-0.350	0.400	-0.530	54.940	-1.200	-0.500																			1580013009.0	7.48	13.85
26/01/2020 04:30:10	26012020	260120	043010	54.850	12.542330	-57.468250	54.830	-0.480	0.320	0.280	54.850	-0.900	0.300																			1580013010.0	6.81	12.61
26/01/2020 04:30:11	26012020	260120	043011	54.940	12.542347	-57.468222	55.030	-0.270	-0.420	0.950	54.980	-1.400	1.000																			1580013011.0	6.96	12.89
26/01/2020 04:30:12	26012020	260120	043012	55.120	12.542365	-57.468190	55.150	-0.020	-0.880	1.540	55.160	-2.200	1.600																			1580013012.0	7.85	14.54
26/01/2020 04:30:13	26012020	260120	043013	55.230	12.542385	-57.468155	55.070	-0.040	-0.480	2.010	55.230	-2.200	2.200																			1580013013.0	8.31	15.39
26/01/2020 04:30:14	26012020	260120	043014	55.140	12.542403	-57.468125	54.860	-0.290	0.280	2.120	55.100	-1.500	2.500																			1580013014.0	7.64	14.15
26/01/2020 04:30:15	26012020	260120	043015	54.930	12.542418	-57.468097	54.700	-0.370	0.490	1.650	54.880	-0.900	2.300																			1580013015.0	6.73	12.46
26/01/2020 04:30:16	26012020	260120	043016	54.760	12.542438	-57.468072	54.680	-0.090	-0.030	0.610	54.750	-1.100	1.500																			1580013016.0	6.73	12.46
26/01/2020 04:30:17	26012020	260120	043017	54.760	12.542463	-57.468047	54.730	0.350	-0.620	-0.530	54.780	-1.800	0.400																			1580013017.0	7.58	14.04
26/01/2020 04:30:18	26012020	260120	043018	54.830	12.542492	-57.468020	54.670	0.560	-0.630	-1.360	54.830	-2.100	-0.600																			1580013018.0	8.26	15.30
26/01/2020 04:30:19	26012020	260120	043019	54.790	12.542518	-57.467995	54.530	0.440	-0.250	-1.760	54.770	-1.800	-1.200																			1580013019.0	8.00	14.82
26/01/2020 04:30:20	26012020	260120	043020	54.670	12.542543	-57.467970	54.520	0.210	-0.050	-1.770	54.650	-1.500	-1.400																			1580013020.0	7.31	13.54
26/01/2020 04:30:21	26012020	260120	043021	54.640	12.542567	-57.467947	54.660	0.080	-0.170	-1.470	54.660	-1.500	-1.300																			1580013021.0	7.10	13.15
26/01/2020 04:30:22	26012020	260120	043022	54.780	12.542588	-57.467918	54.800	0.010	-0.230	-0.800	54.810	-1.600	-0.800																			1580013022.0	7.48	13.85
26/01/2020 04:30:23	26012020	260120	043023	54.900	12.542608	-57.467888	54.820	-0.120	0.020	0.190	54.910	-1.500	0.100																			1580013023.0	7.72	14.30
26/01/2020 04:30:24	26012020	260120	043024	54.900	12.542625	-57.467858	54.810	-0.340	0.310	1.210	54.890	-1.200	1.100																			1580013024.0	7.47	13.83
26/01/2020 04:30:25	26012020	260120	043025	54.860	12.542642	-57.467828	54.860	-0.450	0.190	2.000	54.860	-1.100	2.000																			1580013025.0	7.09	13.13
26/01/2020 04:30:26	26012020	260120	043026	54.900	12.542657	-57.467798	54.960	-0.330	-0.290	2.370	54.920	-1.400	2.600																			1580013026.0	7.17	13.28
26/01/2020 04:30:27	26012020	260120	043027	54.990	12.542675	-57.467768	55.010	-0.070	-0.710	2.250	55.010	-2.000	2.700																			1580013027.0	7.60	14.08
26/01/2020 04:30:28	26012020	260120	043028	55.040	12.542697	-57.467737	54.900	0.090	-0.630	1.770	55.030	-2.100	2.400																			1580013028.0	7.89	14.61
26/01/2020 04:30:29	26012020	260120	043029	54.950	12.542718	-57.467708	54.790	0.120	-0.190	1.040	54.920	-1.800	1.800																			1580013029.0	7.68	14.22
26/01/2020 04:30:30	26012020	260120	043030	54.860	12.542742	-57.467683	54.800	0.190	0.050	0.070	54.860	-1.400	0.900																			1580013030.0	7.20	13.33
26/01/2020 04:30:31	26012020	260120	043031	54.880	12.542765	-57.467660	54.790	0.310	-0.010	-0.950	54.880	-1.400	-0.100																			1580013031.0	7.16	13.26
26/01/2020 04:30:32	26012020	260120	043032	54.890	12.542792	-57.467637	54.730	0.360	-0.140	-1.720	54.880	-1.500	-1.000																			1580013032.0	7.57	14.02
26/01/2020 04:30:33	26012020	260120	043033	54.860	12.542818	-57.467612	54.760	0.250	-0.240	-2.070	54.860	-1.600	-1.600																			1580013033.0	7.76	14.37
26/01/2020 04:30:34	26012020	260120	043034	54.900	12.542843	-57.467585	54.820	0.010	-0.220	-1.920	54.910	-1.700	-1.700																			1580013034.0	7.67	14.20
26/01/2020 04:30:35	26012020	260120	043035	54.950	12.542865	-57.467558	54.870	-0.260	-0.070	-1.380	54.960	-1.600	-1.300																			1580013035.0	7.55	13.98
26/01/2020 04:30:36	26012020	260120	043036	54.990	12.542887	-57.467530	54.850	-0.400	0.060	-0.480	54.990	-1.400	-0.600																			1580013036.0	7.36	13.63
26/01/2020 04:30:37	26012020	260120	043037	54.960	12.542905	-57.467502	54.850	-0.360	-0.000	0.610	54.950	-1.300	0.500																			1580013037.0	7.24	13.41
26/01/2020 04:30:38	26012020	260120	043038	54.920	12.542922	-57.467472	54.930	-0.190	-0.300	1.530	54.930	-1.500	1.500																			1580013038.0	7.37	13.65
26/01/2020 04:30:39	26012020	260120	043039	54.980	12.542937	-57.467438	54.990	0.030	-0.560	2.110	54.990	-1.900	2.200																			1580013039.0	7.66	14.19
26/01/2020 04:30:40	26012020	260120	043040	55.030	12.542955	-57.467407	54.890	0.160	-0.440	2.340	55.020	-2.000	2.600																			1580013040.0	7.81	14.46
26/01/2020 04:30:41	26012020	260120	043041	54.920	12.542973	-57.467375	54.710	0.140	0.010	2.150	54.880	-1.600	2.700																			1580013041.0	7.62	14.11
26/01/2020 04:30:42	26012020	260120	043042	54.750	12.542992	-57.467348	54.680	0.060	0.250	1.390	54.720	-1.200	2.200																			1580013042.0	7.17	13.28
26/01/2020 04:30:43	26012020	260120	043043	54.710	12.543015	-57.467323	54.770	0.120	-0.060	0.170	54.730	-1.300	1.100																			1580013043.0	7.03	13.02
26/01/2020 04:30:44	26012020	260120	043044	54.830	12.543042	-57.467300	54.700	0.290	-0.490	-0.840	54.840	-1.700	-0.100																			1580013044.0	7.61	14.09
26/01/2020 04:30:45	26012020	260120	043045	54.790	12.543070	-57.467275	54.510	0.300	-0.490	-1.330	54.760	-2.000	-0.800																			1580013045.0	8.19	15.17
26/01/2020 04:30:46	26012020	260120	043046	54.630	12.543097	-57.467248	54.490	0.050	-0.160	-1.450	54.610	-1.700	-1.000																			1580013046.0	7.97	14.76
26/01/2020 04:30:47	26012020	260120	043047	54.610	12.543120	-57.467223	54.670	-0.280	0.050	-1.290	54.640	-1.400	-1.000																			1580013047.0	7.34	13.59
26/01/2020 04:30:48	26012020	260120	043048	54.780	12.543142	-57.467197	54.850	-0.470	0.100	-0.830	54.820	-1.300	-0.700																			1580013048.0	7.13	13.20
26/01/2020 04:30:49	26012020	260120	043049	54.960	12.543160	-57.467168	54.980	-0.420	0.020	-0.180	54.990	-1.300	-0.100																			1580013049.0	7.29	13.50
26/01/2020 04:30:50	26012020	260120	043050	55.060	12.543178	-57.467138	55.010	-0.220	-0.170	0.580	55.070	-1.500	0.600																			1580013050.0	7.42	13.74
26/01/2020 04:30:51	26012020	260120	043051	55.090	12.543195	-57.467107	55.020	-0.010	-0.340	1.240	55.080	-1.700	1.300																			1580013051.0	7.55	13.98
26/01/2020 04:30:52	26012020	260120	043052	55.070	12.543213	-57.467075	55.090	0.150	-0.430	1.490	55.070	-1.800	1.800																			1580013052.0	7.62	14.11
26/01/2020 04:30:53	26012020	260120	043053	55.140	12.543232	-57.467045	55.170	0.280	-0.370	1.390	55.160	-1.800	1.800																			1580013053.0	7.56	14.00
26/01/2020 04:30:54	26012020	260120	043054	55.220	12.543253	-57.467017	55.070	0.290	-0.100	1.160	55.220	-1.600	1.700																			1580013054.0	7.51	13.91
26/01/2020 04:30:55	26012020	260120	043055	55.140	12.543275	-57.466990	54.850	0.200	0.100	0.780	55.100	-1.400	1.400																			1580013055.0	7.37	13.65
26/01/2020 04:30:56	26012020	260120	043056	54.930	12.543298	-57.466965	54.680	0.140	-0.070	0.220	54.890	-1.400	0.900																			1580013056.0	7.22	13.37
26/01/2020 04:30:57	26012020	260120	043057	54.780	12.543322	-57.466940	54.690	0.160	-0.450	-0.420	54.770	-1.700	0.300																			1580013057.0	7.47	13.83
26/01/2020 04:30:58	26012020	260120	043058	54.800	12.543348	-57.466913	54.870	0.100	-0.570	-1.000	54.820	-2.000	-0.400																			1580013058.0	7.90	14.63
26/01/2020 04:30:59	26012020	260120	043059	54.980	12.543373	-57.466887	55.100	-0.180	-0.230	-1.290	55.030	-1.800	-0.800																			1580013059.0	7.95	14.72
26/01/2020 04:31:00	26012020	260120	043100	55.220	12.543397	-57.466860	55.270	-0.570	0.370	-1.150	55.270	-1.300	-0.900	1014.90	25.70	25.80	21.30	21.30	-1.00	76.00	76.00	389.00	25.20	7.00	8.90	67.00	5.00	14	3197.00	27.40	27.40	1580013060.0	7.55	13.98
26/01/2020 04:31:01	26012020	260120	043101	55.380	12.543417	-57.466833	55.270	-0.730	0.640	-0.560	55.390	-0.800	-0.500																			1580013061.0	7.00	12.96
26/01/2020 04:31:02	26012020	260120	043102	55.380	12.543433	-57.466805	55.130	-0.430	0.200	0.210	55.350	-0.900	0.200																			1580013062.0	6.84	12.67
26/01/2020 04:31:03	26012020	260120	043103	55.230	12.543450	-57.466775	54.970	0.160	-0.630	0.810	55.190	-1.700	0.900																			1580013063.0	7.35	13.61
26/01/2020 04:31:04	26012020	260120	043104	55.050	12.543468	-57.466742	54.900	0.640	-1.080	1.040	55.020	-2.400	1.300																			1580013064.0	8.08	14.96
26/01/2020 04:31:05	26012020	260120	043105	54.980	12.543490	-57.466710	54.960	0.730	-0.820	1.010	54.990	-2.400	1.400																			1580013065.0	8.15	15.09
26/01/2020 04:31:06	26012020	260120	043106	55.040	12.543512	-57.466682	54.990	0.480	-0.120	0.890	55.050	-1.900	1.300																			1580013066.0	7.60	14.08
26/01/2020 04:31:07	26012020	260120	043107	55.070	12.543533	-57.466657	54.890	0.050	0.480	0.770	55.070	-1.200	1.200																			1580013067.0	7.04	13.04
26/01/2020 04:31:08	26012020	260120	043108	54.980	12.543555	-57.466633	54.790	-0.320	0.520	0.660	54.980	-1.000	1.200																			1580013068.0	6.87	12.72
26/01/2020 04:31:09	26012020	260120	043109	54.880	12.543577	-57.466608	54.840	-0.440	0.040	0.450	54.880	-1.100	0.900																			1580013069.0	7.17	13.28
26/01/2020 04:31:10	26012020	260120	043110	54.930	12.543600	-57.466578	54.950	-0.350	-0.480	0.170	54.940	-1.700	0.700																			1580013070.0	7.73	14.32
26/01/2020 04:31:11	26012020	260120	043111	55.050	12.543622	-57.466548	55.080	-0.190	-0.640	-0.050	55.070	-2.000	0.400																			1580013071.0	8.00	14.82
26/01/2020 04:31:12	26012020	260120	043112	55.180	12.543643	-57.466518	55.170	-0.040	-0.460	-0.110	55.200	-2.000	0.300																			1580013072.0	7.81	14.46
26/01/2020 04:31:13	26012020	260120	043113	55.270	12.543663	-57.466490	55.110	0.060	-0.120	-0.050	55.270	-1.700	0.300																			1580013073.0	7.43	13.76
26/01/2020 04:31:14	26012020	260120	043114	55.210	12.543682	-57.466462	54.920	0.100	0.220	-0.080	55.180	-1.300	0.300																			1580013074.0	7.22	13.37
26/01/2020 04:31:15	26012020	260120	043115	55.010	12.543703	-57.466435	54.750	0.140	0.340	-0.200	54.970	-1.100	0.200																			1580013075.0	7.16	13.26
26/01/2020 04:31:16	26012020	260120	043116	54.850	12.543725	-57.466410	54.710	0.250	-0.030	-0.340	54.830	-1.200	0.100																			1580013076.0	7.17	13.28
26/01/2020 04:31:17	26012020	260120	043117	54.810	12.543748	-57.466383	54.730	0.380	-0.600	-0.420	54.810	-1.800	-0.000																			1580013077.0	7.51	13.91
26/01/2020 04:31:18	26012020	260120	043118	54.820	12.543773	-57.466355	54.760	0.320	-0.780	-0.280	54.830	-2.200	-0.000																			1580013078.0	8.01	14.83
26/01/2020 04:31:19	26012020	260120	043119	54.860	12.543797	-57.466327	54.800	-0.010	-0.380	0.200	54.870	-2.000	0.300																			1580013079.0	7.99	14.80
26/01/2020 04:31:20	26012020	260120	043120	54.890	12.543817	-57.466297	54.830	-0.470	0.220	0.800	54.900	-1.400	0.900																			1580013080.0	7.43	13.76
26/01/2020 04:31:21	26012020	260120	043121	54.920	12.543833	-57.466270	54.860	-0.740	0.410	1.250	54.930	-1.000	1.400																			1580013081.0	6.90	12.78
26/01/2020 04:31:22	26012020	260120	043122	54.940	12.543848	-57.466240	54.900	-0.570	-0.020	1.410	54.940	-1.200	1.700																			1580013082.0	6.94	12.85
26/01/2020 04:31:23	26012020	260120	043123	54.980	12.543867	-57.466210	54.890	-0.080	-0.570	1.380	54.990	-1.800	1.800																			1580013083.0	7.51	13.91
26/01/2020 04:31:24	26012020	260120	043124	54.970	12.543888	-57.466178	54.690	0.380	-0.630	1.160	54.950	-2.100	1.700																			1580013084.0	8.05	14.91
26/01/2020 04:31:25	26012020	260120	043125	54.790	12.543910	-57.466148	54.450	0.580	-0.240	0.690	54.730	-1.900	1.300																			1580013085.0	7.91	14.65
26/01/2020 04:31:26	26012020	260120	043126	54.540	12.543933	-57.466123	54.300	0.560	0.070	-0.010	54.500	-1.400	0.700																			1580013086.0	7.36	13.63
26/01/2020 04:31:27	26012020	260120	043127	54.400	12.543957	-57.466098	54.360	0.420	0.050	-0.830	54.400	-1.300	-0.100																			1580013087.0	7.21	13.35
26/01/2020 04:31:28	26012020	260120	043128	54.490	12.543983	-57.466075	54.630	0.220	-0.130	-1.430	54.540	-1.500	-0.800																			1580013088.0	7.52	13.93
26/01/2020 04:31:29	26012020	260120	043129	54.770	12.544010	-57.466050	54.750	-0.080	-0.190	-1.390	54.820	-1.600	-1.100																			1580013089.0	7.80	14.45
26/01/2020 04:31:30	26012020	260120	043130	54.900	12.544033	-57.466023	54.590	-0.460	-0.040	-0.730	54.880	-1.500	-0.700																			1580013090.0	7.70	14.26
26/01/2020 04:31:31	26012020	260120	043131	54.730	12.544053	-57.465995	54.460	-0.720	0.020	0.100	54.680	-1.400	0.100																			1580013091.0	7.37	13.65
26/01/2020 04:31:32	26012020	260120	043132	54.560	12.544070	-57.465965	54.480	-0.610	-0.180	0.820	54.560	-1.400	0.400																			1580013092.0	7.21	13.35
26/01/2020 04:31:33	26012020	260120	043133	54.560	12.544087	-57.465933	54.510	-0.200	-0.470	1.360	54.570	-1.800	1.500																			1580013093.0	7.45	13.80
26/01/2020 04:31:34	26012020	260120	043134	54.580	12.544103	-57.465902	54.440	0.180	-0.550	1.650	54.570	-2.000	1.900																			1580013094.0	7.75	14.35
26/01/2020 04:31:35	26012020	260120	043135	54.510	12.544122	-57.465870	54.340	0.310	-0.370	1.580	54.490	-1.900	2.000																			1580013095.0	7.75	14.35
26/01/2020 04:31:36	26012020	260120	043136	54.420	12.544142	-57.465842	54.320	0.310	-0.120	1.150	54.400	-1.600	1.800																			1580013096.0	7.45	13.80
26/01/2020 04:31:37	26012020	260120	043137	54.390	12.544165	-57.465815	54.270	0.360	0.020	0.470	54.380	-1.400	1.200																			1580013097.0	7.29	13.50
26/01/2020 04:31:38	26012020	260120	043138	54.360	12.544188	-57.465790	54.220	0.440	-0.050	-0.280	54.340	-1.400	0.400																			1580013098.0	7.41	13.72
26/01/2020 04:31:39	26012020	260120	043139	54.320	12.544215	-57.465767	54.210	0.410	-0.200	-0.830	54.320	-1.600	-0.200																			1580013099.0	7.68	14.22
26/01/2020 04:31:40	26012020	260120	043140	54.320	12.544242	-57.465740	54.200	0.130	-0.100	-1.000	54.330	-1.600	-0.600																			1580013100.0	7.91	14.65
26/01/2020 04:31:41	26012020	260120	043141	54.330	12.544267	-57.465715	54.260	-0.350	0.220	-0.790	54.330	-1.300	-0.500																			1580013101.0	7.73	14.32
26/01/2020 04:31:42	26012020	260120	043142	54.360	12.544288	-57.465688	54.420	-0.700	0.290	-0.390	54.380	-1.100	-0.200																			1580013102.0	7.19	13.32
26/01/2020 04:31:43	26012020	260120	043143	54.510	12.544305	-57.465660	54.550	-0.660	-0.130	0.200	54.540	-1.300	0.300																			1580013103.0	6.98	12.93
26/01/2020 04:31:44	26012020	260120	043144	54.630	12.544323	-57.465630	54.540	-0.270	-0.740	0.820	54.640	-1.900	0.900																			1580013104.0	7.43	13.76
26/01/2020 04:31:45	26012020	260120	043145	54.620	12.544342	-57.465597	54.430	0.180	-1.010	1.230	54.600	-2.400	1.400																			1580013105.0	7.93	14.69
26/01/2020 04:31:46	26012020	260120	043146	54.500	12.544362	-57.465565	54.290	0.380	-0.580	1.420	54.470	-2.300	1.700																			1580013106.0	8.03	14.87
26/01/2020 04:31:47	26012020	260120	043147	54.340	12.544382	-57.465535	54.190	0.240	0.230	1.260	54.310	-1.500	1.800																			1580013107.0	7.56	14.00
26/01/2020 04:31:48	26012020	260120	043148	54.260	12.544402	-57.465510	54.230	-0.020	0.690	0.670	54.260	-0.800	1.400																			1580013108.0	6.90	12.78
26/01/2020 04:31:49	26012020	260120	043149	54.310	12.544423	-57.465488	54.350	-0.050	0.370	-0.040	54.330	-0.800	0.700																			1580013109.0	6.77	12.54
26/01/2020 04:31:50	26012020	260120	043150	54.440	12.544448	-57.465463	54.410	0.200	-0.460	-0.540	54.470	-1.500	0.000																			1580013110.0	7.34	13.59
26/01/2020 04:31:51	26012020	260120	043151	54.520	12.544475	-57.465437	54.360	0.440	-1.040	-0.760	54.520	-2.300	-0.300																			1580013111.0	8.11	15.02
26/01/2020 04:31:52	26012020	260120	043152	54.480	12.544500	-57.465407	54.340	0.350	-0.800	-0.750	54.470	-2.400	-0.400																			1580013112.0	8.37	15.50
26/01/2020 04:31:53	26012020	260120	043153	54.460	12.544523	-57.465377	54.380	-0.110	0.090	-0.530	54.470	-1.800	-0.300																			1580013113.0	7.88	14.59
26/01/2020 04:31:54	26012020	260120	043154	54.500	12.544543	-57.465352	54.480	-0.580	0.760	-0.230	54.510	-0.900	0.000																			1580013114.0	6.92	12.82
26/01/2020 04:31:55	26012020	260120	043155	54.590	12.544560	-57.465327	54.580	-0.620	0.540	0.150	54.610	-0.600	0.300																			1580013115.0	6.43	11.91
26/01/2020 04:31:56	26012020	260120	043156	54.680	12.544578	-57.465298	54.570	-0.240	-0.260	0.610	54.700	-1.300	0.800																			1580013116.0	6.98	12.93
26/01/2020 04:31:57	26012020	260120	043157	54.660	12.544598	-57.465267	54.390	0.150	-0.770	1.090	54.640	-2.000	1.200																			1580013117.0	7.95	14.72
26/01/2020 04:31:58	26012020	260120	043158	54.480	12.544618	-57.465235	54.250	0.250	-0.620	1.320	54.440	-2.200	1.600																			1580013118.0	8.21	15.20
26/01/2020 04:31:59	26012020	260120	043159	54.320	12.544638	-57.465203	54.250	0.090	-0.140	1.070	54.310	-1.800	1.600																			1580013119.0	7.62	14.11
26/01/2020 04:32:00	26012020	260120	043200	54.320	12.544658	-57.465178	54.280	-0.020	0.170	0.530	54.330	-1.300	1.200	1014.80	25.70	25.80	21.00	21.00	-1.00	75.00	75.00	389.00	25.20	4.00	9.20	62.00	5.40	14	3272.00	27.40	27.40	1580013120.0	6.95	12.87
26/01/2020 04:32:01	26012020	260120	043201	54.370	12.544680	-57.465155	54.310	0.120	0.040	0.010	54.380	-1.200	0.600																			1580013121.0	6.88	12.74
26/01/2020 04:32:02	26012020	260120	043202	54.420	12.544705	-57.465130	54.270	0.360	-0.380	-0.340	54.420	-1.600	0.200																			1580013122.0	7.28	13.48
26/01/2020 04:32:03	26012020	260120	043203	54.380	12.544730	-57.465103	54.190	0.370	-0.580	-0.560	54.360	-1.900	-0.100																			1580013123.0	7.82	14.48
26/01/2020 04:32:04	26012020	260120	043204	54.310	12.544753	-57.465075	54.200	0.070	-0.330	-0.550	54.310	-1.900	-0.200																			1580013124.0	7.92	14.67
26/01/2020 04:32:05	26012020	260120	043205	54.310	12.544777	-57.465048	54.270	-0.290	0.080	-0.270	54.320	-1.500	-0.100																			1580013125.0	7.50	13.89
26/01/2020 04:32:06	26012020	260120	043206	54.370	12.544795	-57.465022	54.290	-0.410	0.220	0.130	54.380	-1.200	0.300																			1580013126.0	7.01	12.98
26/01/2020 04:32:07	26012020	260120	043207	54.390	12.544813	-57.464993	54.240	-0.190	-0.040	0.530	54.390	-1.300	0.700																			1580013127.0	7.03	13.02
26/01/2020 04:32:08	26012020	260120	043208	54.330	12.544833	-57.464963	54.190	0.170	-0.380	0.810	54.320	-1.600	1.100																			1580013128.0	7.45	13.80
26/01/2020 04:32:09	26012020	260120	043209	54.270	12.544853	-57.464933	54.210	0.350	-0.420	0.920	54.270	-1.900	1.300																			1580013129.0	7.80	14.45
26/01/2020 04:32:10	26012020	260120	043210	54.270	12.544873	-57.464903	54.190	0.220	-0.090	0.870	54.270	-1.700	1.300																			1580013130.0	7.71	14.28
26/01/2020 04:32:11	26012020	260120	043211	54.260	12.544895	-57.464877	54.080	-0.090	0.270	0.730	54.250	-1.300	1.200																			1580013131.0	7.29	13.50
26/01/2020 04:32:12	26012020	260120	043212	54.160	12.544917	-57.464852	53.990	-0.280	0.200	0.490	54.140	-1.100	1.000																			1580013132.0	6.94	12.85
26/01/2020 04:32:13	26012020	260120	043213	54.070	12.544938	-57.464828	54.080	-0.200	-0.310	0.110	54.080	-1.500	0.700																			1580013133.0	7.09	13.13
26/01/2020 04:32:14	26012020	260120	043214	54.170	12.544962	-57.464800	54.260	-0.040	-0.750	-0.160	54.210	-2.000	0.300																			1580013134.0	7.62	14.11
26/01/2020 04:32:15	26012020	260120	043215	54.360	12.544985	-57.464772	54.300	-0.050	-0.590	-0.220	54.380	-2.200	0.200																			1580013135.0	7.98	14.78
26/01/2020 04:32:16	26012020	260120	043216	54.390	12.545008	-57.464743	54.170	-0.180	-0.000	-0.100	54.380	-1.700	0.200																			1580013136.0	7.67	14.20
26/01/2020 04:32:17	26012020	260120	043217	54.270	12.545027	-57.464717	53.980	-0.160	0.330	0.080	54.230	-1.200	0.400																			1580013137.0	6.98	12.93
26/01/2020 04:32:18	26012020	260120	043218	54.070	12.545047	-57.464690	53.890	0.130	0.030	0.140	54.040	-1.200	0.500																			1580013138.0	6.77	12.54
26/01/2020 04:32:19	26012020	260120	043219	53.970	12.545067	-57.464663	53.950	0.500	-0.570	0.020	53.980	-1.700	0.500																			1580013139.0	7.31	13.54
26/01/2020 04:32:20	26012020	260120	043220	54.030	12.545090	-57.464633	53.990	0.610	-0.770	-0.070	54.050	-2.200	0.300																			1580013140.0	8.00	14.82
26/01/2020 04:32:21	26012020	260120	043221	54.080	12.545115	-57.464605	53.930	0.360	-0.290	0.040	54.080	-2.000	0.300																			1580013141.0	8.08	14.96
26/01/2020 04:32:22	26012020	260120	043222	54.020	12.545137	-57.464578	53.910	-0.040	0.310	0.280	54.000	-1.300	0.500																			1580013142.0	7.45	13.80
26/01/2020 04:32:23	26012020	260120	043223	53.990	12.545157	-57.464553	54.020	-0.330	0.460	0.440	54.010	-1.000	0.800																			1580013143.0	6.85	12.69
26/01/2020 04:32:24	26012020	260120	043224	54.100	12.545177	-57.464527	54.130	-0.450	0.230	0.520	54.130	-1.100	0.900																			1580013144.0	6.99	12.95
26/01/2020 04:32:25	26012020	260120	043225	54.210	12.545198	-57.464498	54.100	-0.450	-0.040	0.670	54.210	-1.300	1.000																			1580013145.0	7.45	13.80
26/01/2020 04:32:26	26012020	260120	043226	54.170	12.545218	-57.464470	54.020	-0.390	-0.230	0.810	54.160	-1.500	1.100																			1580013146.0	7.59	14.06
26/01/2020 04:32:27	26012020	260120	043227	54.100	12.545238	-57.464440	54.040	-0.210	-0.490	0.720	54.090	-1.800	1.200																			1580013147.0	7.44	13.78
26/01/2020 04:32:28	26012020	260120	043228	54.110	12.545260	-57.464413	54.140	0.080	-0.760	0.480	54.120	-2.100	1.000																			1580013148.0	7.40	13.70
26/01/2020 04:32:29	26012020	260120	043229	54.210	12.545282	-57.464385	54.210	0.360	-0.750	0.340	54.230	-2.200	0.800																			1580013149.0	7.60	14.08
26/01/2020 04:32:30	26012020	260120	043230	54.280	12.545305	-57.464357	54.060	0.440	-0.370	0.360	54.270	-2.000	0.700																			1580013150.0	7.67	14.20
26/01/2020 04:32:31	26012020	260120	043231	54.140	12.545327	-57.464330	53.800	0.240	0.150	0.240	54.080	-1.500	0.700																			1580013151.0	7.43	13.76
26/01/2020 04:32:32	26012020	260120	043232	53.880	12.545347	-57.464303	53.690	0.010	0.380	-0.100	53.840	-1.100	0.500																			1580013152.0	7.12	13.19
26/01/2020 04:32:33	26012020	260120	043233	53.770	12.545370	-57.464278	53.850	0.020	0.150	-0.610	53.780	-1.100	0.000																			1580013153.0	7.10	13.15
26/01/2020 04:32:34	26012020	260120	043234	53.940	12.545393	-57.464253	54.170	0.170	-0.240	-1.050	54.010	-1.500	-0.500																			1580013154.0	7.50	13.89
26/01/2020 04:32:35	26012020	260120	043235	54.280	12.545420	-57.464227	54.350	0.100	-0.270	-1.060	54.330	-1.700	-0.800																			1580013155.0	7.93	14.69
26/01/2020 04:32:36	26012020	260120	043236	54.450	12.545443	-57.464198	54.270	-0.230	0.030	-0.490	54.450	-1.500	-0.400																			1580013156.0	7.82	14.48
26/01/2020 04:32:37	26012020	260120	043237	54.360	12.545465	-57.464172	54.100	-0.510	0.190	0.320	54.320	-1.300	0.300																			1580013157.0	7.22	13.37
26/01/2020 04:32:38	26012020	260120	043238	54.170	12.545482	-57.464145	54.030	-0.440	-0.110	0.970	54.150	-1.300	1.100																			1580013158.0	6.97	12.91
26/01/2020 04:32:39	26012020	260120	043239	54.100	12.545500	-57.464115	54.090	-0.110	-0.610	1.310	54.100	-1.800	1.600																			1580013159.0	7.32	13.56
26/01/2020 04:32:40	26012020	260120	043240	54.150	12.545518	-57.464083	54.200	0.190	-0.770	1.410	54.170	-2.200	1.800																			1580013160.0	7.83	14.50
26/01/2020 04:32:41	26012020	260120	043241	54.250	12.545540	-57.464052	54.190	0.280	-0.460	1.310	54.270	-2.000	1.800																			1580013161.0	7.83	14.50
26/01/2020 04:32:42	26012020	260120	043242	54.260	12.545560	-57.464023	54.110	0.210	-0.000	0.960	54.240	-1.600	1.500																			1580013162.0	7.41	13.72
26/01/2020 04:32:43	26012020	260120	043243	54.170	12.545582	-57.463998	54.080	0.150	0.220	0.400	54.160	-1.300	1.100																			1580013163.0	7.09	13.13
26/01/2020 04:32:44	26012020	260120	043244	54.160	12.545605	-57.463975	54.120	0.120	0.120	-0.200	54.170	-1.200	0.500																			1580013164.0	7.21	13.35
26/01/2020 04:32:45	26012020	260120	043245	54.200	12.545630	-57.463950	54.130	0.110	-0.110	-0.750	54.200	-1.400	-0.100																			1580013165.0	7.56	14.00
26/01/2020 04:32:46	26012020	260120	043246	54.210	12.545655	-57.463923	54.180	0.060	-0.290	-1.090	54.220	-1.600	-0.600																			1580013166.0	7.75	14.35
26/01/2020 04:32:47	26012020	260120	043247	54.270	12.545680	-57.463897	54.260	-0.040	-0.350	-1.000	54.280	-1.700	-0.700																			1580013167.0	7.74	14.33
26/01/2020 04:32:48	26012020	260120	043248	54.350	12.545703	-57.463870	54.350	-0.170	-0.290	-0.650	54.370	-1.700	-0.400																			1580013168.0	7.62	14.11
26/01/2020 04:32:49	26012020	260120	043249	54.430	12.545725	-57.463842	54.420	-0.230	-0.150	-0.180	54.440	-1.600	-0.000																			1580013169.0	7.46	13.82
26/01/2020 04:32:50	26012020	260120	043250	54.500	12.545745	-57.463813	54.450	-0.210	0.040	0.450	54.510	-1.400	0.500																			1580013170.0	7.37	13.65
26/01/2020 04:32:51	26012020	260120	043251	54.520	12.545762	-57.463783	54.510	-0.200	0.150	0.990	54.520	-1.300	1.100																			1580013171.0	7.31	13.54
26/01/2020 04:32:52	26012020	260120	043252	54.560	12.545780	-57.463755	54.660	-0.140	-0.060	1.140	54.580	-1.300	1.500																			1580013172.0	7.26	13.45
26/01/2020 04:32:53	26012020	260120	043253	54.710	12.545798	-57.463725	54.830	0.070	-0.560	0.960	54.750	-1.700	1.400																			1580013173.0	7.35	13.61
26/01/2020 04:32:54	26012020	260120	043254	54.880	12.545822	-57.463697	54.900	0.300	-0.690	0.750	54.910	-2.100	1.200																			1580013174.0	7.78	14.41
26/01/2020 04:32:55	26012020	260120	043255	54.950	12.545845	-57.463668	54.810	0.290	-0.160	0.620	54.940	-1.900	1.000																			1580013175.0	7.98	14.78
26/01/2020 04:32:56	26012020	260120	043256	54.860	12.545868	-57.463642	54.650	0.040	0.450	0.400	54.830	-1.200	0.900																			1580013176.0	7.37	13.65
26/01/2020 04:32:57	26012020	260120	043257	54.710	12.545888	-57.463618	54.640	-0.100	0.280	-0.130	54.700	-0.900	0.500																			1580013177.0	6.72	12.45
26/01/2020 04:32:58	26012020	260120	043258	54.730	12.545910	-57.463593	54.860	0.070	-0.630	-0.790	54.760	-1.600	-0.100																			1580013178.0	7.01	12.98
26/01/2020 04:32:59	26012020	260120	043259	54.950	12.545937	-57.463567	55.020	0.300	-1.180	-1.120	55.000	-2.400	-0.600																			1580013179.0	8.08	14.96
26/01/2020 04:33:00	26012020	260120	043300	55.120	12.545963	-57.463537	55.030	0.230	-0.590	-0.980	55.120	-2.400	-0.700	1014.80	25.70	25.80	21.00	21.10	-1.00	75.00	75.00	390.00	25.20	6.00	8.90	65.00	5.10	14	3313.00	27.40	27.40	1580013180.0	8.61	15.95
26/01/2020 04:33:01	26012020	260120	043301	55.120	12.545987	-57.463508	55.050	-0.170	0.540	-0.540	55.120	-1.400	-0.400																			1580013181.0	7.75	14.35
26/01/2020 04:33:02	26012020	260120	043302	55.140	12.546003	-57.463483	55.190	-0.580	1.100	-0.060	55.150	-0.400	0.100																			1580013182.0	6.51	12.06
26/01/2020 04:33:03	26012020	260120	043303	55.260	12.546020	-57.463457	55.300	-0.650	0.620	0.350	55.280	-0.500	0.500																			1580013183.0	6.28	11.63
26/01/2020 04:33:04	26012020	260120	043304	55.370	12.546037	-57.463428	55.290	-0.290	-0.430	0.690	55.370	-1.300	0.900																			1580013184.0	7.10	13.15
26/01/2020 04:33:05	26012020	260120	043305	55.350	12.546058	-57.463398	55.190	0.240	-1.240	0.930	55.330	-2.300	1.200																			1580013185.0	8.00	14.82
26/01/2020 04:33:06	26012020	260120	043306	55.240	12.546080	-57.463365	55.120	0.570	-1.250	1.000	55.220	-2.800	1.400																			1580013186.0	8.31	15.39
26/01/2020 04:33:07	26012020	260120	043307	55.170	12.546102	-57.463335	55.150	0.510	-0.500	0.880	55.170	-2.300	1.300																			1580013187.0	7.91	14.65
26/01/2020 04:33:08	26012020	260120	043308	55.210	12.546123	-57.463310	55.230	0.200	0.370	0.550	55.220	-1.400	1.100																			1580013188.0	7.13	13.20
26/01/2020 04:33:09	26012020	260120	043309	55.290	12.546143	-57.463287	55.330	-0.090	0.700	0.110	55.320	-0.800	0.700																			1580013189.0	6.59	12.20
26/01/2020 04:33:10	26012020	260120	043310	55.390	12.546165	-57.463262	55.290	-0.180	0.360	-0.240	55.400	-0.800	0.300																			1580013190.0	6.75	12.50
26/01/2020 04:33:11	26012020	260120	043311	55.370	12.546188	-57.463237	55.190	-0.120	-0.250	-0.470	55.350	-1.400	0.000																			1580013191.0	7.40	13.70
26/01/2020 04:33:12	26012020	260120	043312	55.280	12.546212	-57.463208	55.260	-0.020	-0.700	-0.630	55.280	-1.600	-0.100																			1580013192.0	7.93	14.69
26/01/2020 04:33:13	26012020	260120	043313	55.350	12.546235	-57.463178	55.510	0.020	-0.690	-0.710	55.390	-2.200	-0.300																			1580013193.0	7.97	14.76
26/01/2020 04:33:14	26012020	260120	043314	55.600	12.546258	-57.463150	55.680	-0.120	-0.130	-0.530	55.660	-1.800	-0.300																			1580013194.0	7.68	14.22
26/01/2020 04:33:15	26012020	260120	043315	55.770	12.546277	-57.463123	55.620	-0.310	0.440	-0.060	55.770	-1.200	0.100																			1580013195.0	7.10	13.15
26/01/2020 04:33:16	26012020	260120	043316	55.700	12.546293	-57.463097	55.500	-0.290	0.340	0.420	55.660	-0.900	0.600																			1580013196.0	6.61	12.24
26/01/2020 04:33:17	26012020	260120	043317	55.570	12.546312	-57.463070	55.510	0.080	-0.410	0.610	55.560	-1.400	0.900																			1580013197.0	6.89	12.76
26/01/2020 04:33:18	26012020	260120	043318	55.560	12.546332	-57.463038	55.450	0.440	-0.890	0.600	55.560	-2.200	1.000																			1580013198.0	7.75	14.35
26/01/2020 04:33:19	26012020	260120	043319	55.500	12.546353	-57.463007	55.310	0.450	-0.620	0.500	55.480	-2.200	0.900																			1580013199.0	8.17	15.13
26/01/2020 04:33:20	26012020	260120	043320	55.370	12.546375	-57.462978	55.320	0.170	-0.050	0.280	55.350	-1.700	0.800																			1580013200.0	7.61	14.09
26/01/2020 04:33:21	26012020	260120	043321	55.390	12.546397	-57.462955	55.470	-0.060	0.290	-0.020	55.420	-1.200	0.500																			1580013201.0	6.97	12.91
26/01/2020 04:33:22	26012020	260120	043322	55.540	12.546418	-57.462930	55.490	-0.090	0.270	-0.180	55.560	-1.100	0.300																			1580013202.0	6.96	12.89
26/01/2020 04:33:23	26012020	260120	043323	55.570	12.546442	-57.462905	55.470	-0.050	0.040	-0.220	55.560	-1.200	0.200																			1580013203.0	7.30	13.52
26/01/2020 04:33:24	26012020	260120	043324	55.550	12.546463	-57.462877	55.560	-0.130	-0.190	-0.160	55.560	-1.500	0.200																			1580013204.0	7.53	13.95
26/01/2020 04:33:25	26012020	260120	043325	55.630	12.546483	-57.462848	55.610	-0.310	-0.270	0.010	55.650	-1.700	0.300																			1580013205.0	7.57	14.02
26/01/2020 04:33:26	26012020	260120	043326	55.670	12.546503	-57.462818	55.480	-0.400	-0.310	0.210	55.660	-1.700	0.500																			1580013206.0	7.40	13.70
26/01/2020 04:33:27	26012020	260120	043327	55.540	12.546522	-57.462790	55.310	-0.170	-0.410	0.310	55.500	-1.800	0.600																			1580013207.0	7.25	13.43
26/01/2020 04:33:28	26012020	260120	043328	55.370	12.546542	-57.462763	55.280	0.280	-0.520	0.300	55.350	-1.900	0.700																			1580013208.0	7.32	13.56
26/01/2020 04:33:29	26012020	260120	043329	55.360	12.546563	-57.462733	55.360	0.610	-0.450	0.190	55.370	-1.900	0.600																			1580013209.0	7.51	13.91
26/01/2020 04:33:30	26012020	260120	043330	55.430	12.546585	-57.462707	55.420	0.570	-0.120	0.040	55.450	-1.700	0.500																			1580013210.0	7.57	14.02
26/01/2020 04:33:31	26012020	260120	043331	55.510	12.546607	-57.462680	55.540	0.220	0.240	-0.130	55.530	-1.300	0.300																			1580013211.0	7.37	13.65
26/01/2020 04:33:32	26012020	260120	043332	55.630	12.546628	-57.462653	55.580	-0.190	0.320	-0.170	55.650	-1.100	0.200																			1580013212.0	7.11	13.17
26/01/2020 04:33:33	26012020	260120	043333	55.670	12.546648	-57.462627	55.470	-0.450	0.120	-0.010	55.660	-1.200	0.300																			1580013213.0	7.14	13.22
26/01/2020 04:33:34	26012020	260120	043334	55.550	12.546670	-57.462600	55.340	-0.440	-0.180	0.170	55.520	-1.400	0.500																			1580013214.0	7.37	13.65
26/01/2020 04:33:35	26012020	260120	043335	55.420	12.546690	-57.462570	55.360	-0.160	-0.500	0.210	55.400	-1.800	0.600																			1580013215.0	7.54	13.96
26/01/2020 04:33:36	26012020	260120	043336	55.440	12.546712	-57.462542	55.500	0.200	-0.640	0.180	55.460	-2.000	0.600																			1580013216.0	7.60	14.08
26/01/2020 04:33:37	26012020	260120	043337	55.570	12.546733	-57.462513	55.530	0.310	-0.390	0.170	55.590	-2.000	0.500																			1580013217.0	7.66	14.19
26/01/2020 04:33:38	26012020	260120	043338	55.600	12.546753	-57.462485	55.500	0.110	0.060	0.180	55.600	-1.800	0.500																			1580013218.0	7.42	13.74
26/01/2020 04:33:39	26012020	260120	043339	55.570	12.546773	-57.462458	55.560	-0.180	0.280	0.140	55.580	-1.200	0.500																			1580013219.0	7.02	13.00
26/01/2020 04:33:40	26012020	260120	043340	55.640	12.546793	-57.462432	55.640	-0.280	0.140	0.030	55.660	-1.200	0.500																			1580013220.0	6.96	12.89
26/01/2020 04:33:41	26012020	260120	043341	55.730	12.546813	-57.462405	55.610	-0.060	-0.250	0.010	55.740	-1.500	0.400																			1580013221.0	7.25	13.43
26/01/2020 04:33:42	26012020	260120	043342	55.700	12.546835	-57.462377	55.490	0.310	-0.640	0.080	55.670	-1.900	0.400																			1580013222.0	7.58	14.04
26/01/2020 04:33:43	26012020	260120	043343	55.570	12.546857	-57.462348	55.420	0.480	-0.680	0.140	55.550	-2.100	0.500																			1580013223.0	7.80	14.45
26/01/2020 04:33:44	26012020	260120	043344	55.500	12.546878	-57.462318	55.400	0.280	-0.270	0.140	55.500	-1.900	0.500																			1580013224.0	7.76	14.37
26/01/2020 04:33:45	26012020	260120	043345	55.480	12.546900	-57.462290	55.400	-0.120	0.240	0.020	55.470	-1.400	0.500																			1580013225.0	7.32	13.56
26/01/2020 04:33:46	26012020	260120	043346	55.490	12.546920	-57.462265	55.450	-0.360	0.480	-0.160	55.490	-1.000	0.300																			1580013226.0	6.95	12.87
26/01/2020 04:33:47	26012020	260120	043347	55.540	12.546942	-57.462240	55.520	-0.290	0.210	-0.190	55.550	-1.000	0.200																			1580013227.0	6.96	12.89
26/01/2020 04:33:48	26012020	260120	043348	55.610	12.546962	-57.462213	55.590	0.020	-0.410	-0.080	55.620	-1.500	0.200																			1580013228.0	7.28	13.48
26/01/2020 04:33:49	26012020	260120	043349	55.670	12.546983	-57.462183	55.520	0.280	-0.770	0.110	55.670	-2.100	0.400																			1580013229.0	7.81	14.46
26/01/2020 04:33:50	26012020	260120	043350	55.610	12.547005	-57.462152	55.330	0.220	-0.520	0.240	55.570	-2.100	0.600																			1580013230.0	8.00	14.82
26/01/2020 04:33:51	26012020	260120	043351	55.420	12.547025	-57.462123	55.280	-0.060	0.010	0.230	55.390	-1.600	0.600																			1580013231.0	7.52	13.93
26/01/2020 04:33:52	26012020	260120	043352	55.350	12.547045	-57.462097	55.380	-0.220	0.300	0.200	55.370	-1.200	0.600																			1580013232.0	6.93	12.83
26/01/2020 04:33:53	26012020	260120	043353	55.470	12.547065	-57.462072	55.480	-0.130	0.160	0.190	55.490	-1.100	0.500																			1580013233.0	6.86	12.70
26/01/2020 04:33:54	26012020	260120	043354	55.550	12.547085	-57.462045	55.360	0.050	-0.210	0.320	55.540	-1.400	0.600																			1580013234.0	7.24	13.41
26/01/2020 04:33:55	26012020	260120	043355	55.430	12.547107	-57.462015	55.170	0.110	-0.510	0.500	55.380	-1.800	0.800																			1580013235.0	7.66	14.19
26/01/2020 04:33:56	26012020	260120	043356	55.230	12.547127	-57.461985	55.120	0.070	-0.620	0.490	55.200	-2.000	0.900																			1580013236.0	7.72	14.30
26/01/2020 04:33:57	26012020	260120	043357	55.180	12.547147	-57.461957	55.180	0.080	-0.480	0.290	55.190	-2.000	0.800																			1580013237.0	7.58	14.04
26/01/2020 04:33:58	26012020	260120	043358	55.250	12.547170	-57.461928	55.230	0.110	-0.060	0.070	55.260	-1.700	0.500																			1580013238.0	7.46	13.82
26/01/2020 04:33:59	26012020	260120	043359	55.300	12.547192	-57.461903	55.210	0.090	0.340	0.020	55.300	-1.200	0.400																			1580013239.0	7.24	13.41
26/01/2020 04:34:00	26012020	260120	043400	55.280	12.547212	-57.461877	55.130	0.040	0.320	0.120	55.270	-1.000	0.400	1014.80	25.70	25.70	20.80	20.90	-1.00	74.00	74.00	391.00	25.20	8.00	9.20	70.00	5.50	14	3314.00	27.50	27.40	1580013240.0	7.00	12.96
26/01/2020 04:34:01	26012020	260120	043401	55.200	12.547232	-57.461850	55.040	0.030	-0.140	0.160	55.180	-1.300	0.500																			1580013241.0	7.14	13.22
26/01/2020 04:34:02	26012020	260120	043402	55.110	12.547253	-57.461822	55.010	0.090	-0.610	0.130	55.100	-1.800	0.500																			1580013242.0	7.62	14.11
26/01/2020 04:34:03	26012020	260120	043403	55.070	12.547275	-57.461792	55.110	0.130	-0.680	0.120	55.090	-2.100	0.500																			1580013243.0	7.93	14.69
26/01/2020 04:34:04	26012020	260120	043404	55.170	12.547298	-57.461763	55.250	-0.000	-0.220	0.150	55.210	-1.900	0.500																			1580013244.0	7.79	14.43
26/01/2020 04:34:05	26012020	260120	043405	55.320	12.547318	-57.461735	55.230	-0.290	0.450	0.300	55.330	-1.300	0.600																			1580013245.0	7.28	13.48
26/01/2020 04:34:06	26012020	260120	043406	55.300	12.547337	-57.461710	55.080	-0.500	0.670	0.610	55.270	-0.700	0.800																			1580013246.0	6.74	12.48
26/01/2020 04:34:07	26012020	260120	043407	55.130	12.547355	-57.461683	55.010	-0.360	0.030	0.710	55.100	-1.000	1.100																			1580013247.0	6.68	12.37
26/01/2020 04:34:08	26012020	260120	043408	55.050	12.547373	-57.461655	55.030	0.080	-0.940	0.510	55.060	-1.900	1.000																			1580013248.0	7.34	13.59
26/01/2020 04:34:09	26012020	260120	043409	55.090	12.547397	-57.461623	54.960	0.480	-1.290	0.260	55.090	-2.700	0.700																			1580013249.0	8.19	15.17
26/01/2020 04:34:10	26012020	260120	043410	55.040	12.547420	-57.461593	54.860	0.500	-0.650	0.050	55.020	-2.400	0.500																			1580013250.0	8.29	15.35
26/01/2020 04:34:11	26012020	260120	043411	54.930	12.547443	-57.461567	54.810	0.190	0.290	-0.120	54.910	-1.500	0.300																			1580013251.0	7.45	13.80
26/01/2020 04:34:12	26012020	260120	043412	54.870	12.547465	-57.461543	54.890	-0.120	0.650	-0.240	54.880	-0.800	0.200																			1580013252.0	6.64	12.30
26/01/2020 04:34:13	26012020	260120	043413	54.950	12.547485	-57.461520	55.030	-0.180	0.300	-0.300	54.980	-0.900	0.100																			1580013253.0	6.72	12.45
26/01/2020 04:34:14	26012020	260120	043414	55.090	12.547507	-57.461492	55.030	-0.040	-0.220	-0.080	55.100	-1.400	0.100																			1580013254.0	7.44	13.78
26/01/2020 04:34:15	26012020	260120	043415	55.090	12.547528	-57.461462	54.880	0.040	-0.420	0.340	55.060	-1.800	0.500																			1580013255.0	7.95	14.72
26/01/2020 04:34:16	26012020	260120	043416	54.930	12.547548	-57.461430	54.740	-0.080	-0.260	0.720	54.890	-1.800	0.900																			1580013256.0	7.84	14.52
26/01/2020 04:34:17	26012020	260120	043417	54.780	12.547567	-57.461402	54.760	-0.260	-0.080	0.870	54.770	-1.500	1.200																			1580013257.0	7.35	13.61
26/01/2020 04:34:18	26012020	260120	043418	54.790	12.547585	-57.461373	54.910	-0.270	-0.130	0.720	54.820	-1.500	1.200																			1580013258.0	7.05	13.06
26/01/2020 04:34:19	26012020	260120	043419	54.950	12.547607	-57.461347	55.000	-0.040	-0.290	0.450	54.980	-1.600	0.900																			1580013259.0	7.20	13.33
26/01/2020 04:34:20	26012020	260120	043420	55.040	12.547628	-57.461320	54.850	0.210	-0.310	0.370	55.020	-1.700	0.800																			1580013260.0	7.51	13.91
26/01/2020 04:34:21	26012020	260120	043421	54.900	12.547652	-57.461292	54.660	0.270	-0.190	0.340	54.860	-1.700	0.700																			1580013261.0	7.57	14.02
26/01/2020 04:34:22	26012020	260120	043422	54.720	12.547672	-57.461265	54.580	0.150	-0.140	0.110	54.700	-1.500	0.600																			1580013262.0	7.37	13.65
26/01/2020 04:34:23	26012020	260120	043423	54.640	12.547693	-57.461238	54.600	0.020	-0.230	-0.250	54.640	-1.600	0.300																			1580013263.0	7.29	13.50
26/01/2020 04:34:24	26012020	260120	043424	54.670	12.547717	-57.461212	54.650	-0.060	-0.260	-0.480	54.690	-1.700	-0.000																			1580013264.0	7.49	13.87
26/01/2020 04:34:25	26012020	260120	043425	54.730	12.547740	-57.461185	54.680	-0.150	-0.090	-0.450	54.740	-1.600	-0.100																			1580013265.0	7.61	14.09
26/01/2020 04:34:26	26012020	260120	043426	54.760	12.547762	-57.461157	54.710	-0.300	0.140	-0.150	54.770	-1.400	0.000																			1580013266.0	7.43	13.76
26/01/2020 04:34:27	26012020	260120	043427	54.800	12.547782	-57.461130	54.700	-0.370	0.160	0.320	54.800	-1.200	0.500																			1580013267.0	7.16	13.26
26/01/2020 04:34:28	26012020	260120	043428	54.780	12.547800	-57.461102	54.690	-0.190	-0.170	0.650	54.770	-1.400	0.900																			1580013268.0	7.18	13.30
26/01/2020 04:34:29	26012020	260120	043429	54.750	12.547818	-57.461072	54.640	0.190	-0.570	0.740	54.750	-1.800	1.100																			1580013269.0	7.46	13.82
26/01/2020 04:34:30	26012020	260120	043430	54.700	12.547838	-57.461040	54.430	0.450	-0.590	0.720	54.700	-1.900	1.100																			1580013270.0	7.80	14.45
26/01/2020 04:34:31	26012020	260120	043431	54.500	12.547860	-57.461012	54.230	0.410	-0.200	0.560	54.450	-1.800	1.000																			1580013271.0	7.75	14.35
26/01/2020 04:34:32	26012020	260120	043432	54.320	12.547883	-57.460985	54.270	0.180	0.110	0.210	54.310	-1.400	0.800																			1580013272.0	7.28	13.48
26/01/2020 04:34:33	26012020	260120	043433	54.370	12.547905	-57.460962	54.430	0.000	0.110	-0.180	54.400	-1.300	0.400																			1580013273.0	7.06	13.08
26/01/2020 04:34:34	26012020	260120	043434	54.530	12.547928	-57.460937	54.520	-0.030	-0.160	-0.350	54.550	-1.400	0.100																			1580013274.0	7.29	13.50
26/01/2020 04:34:35	26012020	260120	043435	54.620	12.547953	-57.460910	54.510	-0.000	-0.410	-0.220	54.630	-1.700	0.100																			1580013275.0	7.62	14.11
26/01/2020 04:34:36	26012020	260120	043436	54.620	12.547975	-57.460880	54.410	-0.080	-0.350	0.160	54.600	-1.800	0.300																			1580013276.0	7.79	14.43
26/01/2020 04:34:37	26012020	260120	043437	54.510	12.547995	-57.460850	54.240	-0.310	-0.050	0.610	54.470	-1.600	0.800																			1580013277.0	7.64	14.15
26/01/2020 04:34:38	26012020	260120	043438	54.310	12.548013	-57.460822	54.180	-0.510	0.080	0.790	54.280	-1.300	1.100																			1580013278.0	7.25	13.43
26/01/2020 04:34:39	26012020	260120	043439	54.250	12.548032	-57.460793	54.370	-0.470	-0.040	0.580	54.280	-1.400	1.100																			1580013279.0	7.11	13.17
26/01/2020 04:34:40	26012020	260120	043440	54.440	12.548052	-57.460767	54.510	-0.270	-0.100	0.370	54.480	-1.500	0.800																			1580013280.0	7.41	13.72
26/01/2020 04:34:41	26012020	260120	043441	54.590	12.548075	-57.460738	54.460	-0.040	-0.010	0.300	54.600	-1.500	0.700																			1580013281.0	7.55	13.98
26/01/2020 04:34:42	26012020	260120	043442	54.550	12.548095	-57.460712	54.340	0.180	-0.070	0.230	54.530	-1.400	0.600																			1580013282.0	7.29	13.50
26/01/2020 04:34:43	26012020	260120	043443	54.440	12.548117	-57.460683	54.230	0.420	-0.420	0.050	54.420	-1.600	0.500																			1580013283.0	7.22	13.37
26/01/2020 04:34:44	26012020	260120	043444	54.330	12.548138	-57.460657	54.170	0.640	-0.830	-0.260	54.310	-2.100	0.300																			1580013284.0	7.53	13.95
26/01/2020 04:34:45	26012020	260120	043445	54.260	12.548163	-57.460630	54.190	0.700	-0.820	-0.520	54.260	-2.300	-0.000																			1580013285.0	7.94	14.70
26/01/2020 04:34:46	26012020	260120	043446	54.280	12.548190	-57.460603	54.320	0.470	-0.230	-0.520	54.310	-2.000	-0.200																			1580013286.0	7.98	14.78
26/01/2020 04:34:47	26012020	260120	043447	54.420	12.548213	-57.460577	54.490	-0.010	0.460	-0.180	54.450	-1.200	0.000																			1580013287.0	7.42	13.74
26/01/2020 04:34:48	26012020	260120	043448	54.570	12.548233	-57.460552	54.560	-0.520	0.730	0.410	54.600	-0.700	0.500																			1580013288.0	6.85	12.69
26/01/2020 04:34:49	26012020	260120	043449	54.650	12.548252	-57.460525	54.550	-0.860	0.500	1.020	54.650	-0.700	1.100																			1580013289.0	6.93	12.83
26/01/2020 04:34:50	26012020	260120	043450	54.610	12.548268	-57.460493	54.490	-0.930	0.000	1.460	54.600	-1.100	1.700																			1580013290.0	7.39	13.69
26/01/2020 04:34:51	26012020	260120	043451	54.540	12.548285	-57.460462	54.550	-0.650	-0.540	1.460	54.530	-1.700	1.900																			1580013291.0	7.66	14.19
26/01/2020 04:34:52	26012020	260120	043452	54.590	12.548305	-57.460432	54.730	-0.070	-0.930	1.060	54.590	-1.900	1.800																			1580013292.0	7.73	14.32
26/01/2020 04:34:53	26012020	260120	043453	54.780	12.548327	-57.460402	54.740	0.490	-0.910	0.640	54.810	-2.400	1.200																			1580013293.0	7.75	14.35
26/01/2020 04:34:54	26012020	260120	043454	54.790	12.548350	-57.460375	54.480	0.710	-0.480	0.150	54.760	-2.100	0.800																			1580013294.0	7.68	14.22
26/01/2020 04:34:55	26012020	260120	043455	54.550	12.548373	-57.460348	54.230	0.590	0.070	-0.450	54.500	-1.600	0.200																			1580013295.0	7.38	13.67
26/01/2020 04:34:56	26012020	260120	043456	54.320	12.548397	-57.460325	54.150	0.370	0.370	-1.000	54.290	-1.100	-0.400																			1580013296.0	7.14	13.22
26/01/2020 04:34:57	26012020	260120	043457	54.250	12.548422	-57.460302	54.230	0.200	0.260	-1.380	54.260	-1.000	-0.800																			1580013297.0	7.20	13.33
26/01/2020 04:34:58	26012020	260120	043458	54.340	12.548447	-57.460278	54.380	-0.010	-0.040	-1.470	54.380	-1.300	-1.100																			1580013298.0	7.52	13.93
26/01/2020 04:34:59	26012020	260120	043459	54.500	12.548472	-57.460252	54.460	-0.320	-0.230	-1.050	54.510	-1.600	-0.900																			1580013299.0	7.80	14.45
26/01/2020 04:35:00	26012020	260120	043500	54.560	12.548493	-57.460222	54.520	-0.580	-0.260	-0.160	54.570	-1.700	-0.200	1014.80	25.70	25.80	20.80	20.90	-1.00	74.00	74.00	393.00	25.20	7.00	9.00	67.00	5.30	14	3215.00	27.40	27.40	1580013300.0	7.71	14.28
26/01/2020 04:35:01	26012020	260120	043501	54.600	12.548512	-57.460192	54.620	-0.640	-0.190	0.890	54.610	-1.600	0.800																			1580013301.0	7.48	13.85
26/01/2020 04:35:02	26012020	260120	043502	54.680	12.548527	-57.460160	54.640	-0.510	-0.060	1.690	54.690	-1.500	1.700																			1580013302.0	7.42	13.74
26/01/2020 04:35:03	26012020	260120	043503	54.690	12.548542	-57.460128	54.500	-0.230	-0.020	2.160	54.670	-1.400	2.400																			1580013303.0	7.34	13.59
26/01/2020 04:35:04	26012020	260120	043504	54.540	12.548557	-57.460098	54.270	0.140	-0.290	2.190	54.490	-1.500	2.600																			1580013304.0	7.25	13.43
26/01/2020 04:35:05	26012020	260120	043505	54.290	12.548577	-57.460070	54.190	0.580	-0.840	1.560	54.270	-2.000	2.300																			1580013305.0	7.39	13.69
26/01/2020 04:35:06	26012020	260120	043506	54.230	12.548600	-57.460042	54.250	0.900	-1.060	0.540	54.250	-2.500	1.400																			1580013306.0	7.88	14.59
26/01/2020 04:35:07	26012020	260120	043507	54.320	12.548630	-57.460015	54.250	0.840	-0.360	-0.310	54.340	-2.200	0.400																			1580013307.0	8.33	15.43
26/01/2020 04:35:08	26012020	260120	043508	54.360	12.548657	-57.459992	54.230	0.310	0.760	-0.750	54.350	-1.100	-0.200																			1580013308.0	7.84	14.52
26/01/2020 04:35:09	26012020	260120	043509	54.340	12.548680	-57.459970	54.320	-0.410	1.200	-0.990	54.350	-0.300	-0.500																			1580013309.0	6.71	12.43
26/01/2020 04:35:10	26012020	260120	043510	54.440	12.548702	-57.459948	54.530	-0.850	0.490	-1.170	54.480	-0.500	-0.700																			1580013310.0	6.46	11.96
26/01/2020 04:35:11	26012020	260120	043511	54.660	12.548723	-57.459922	54.740	-0.770	-0.690	-1.100	54.700	-1.500	-0.800																			1580013311.0	7.31	13.54
26/01/2020 04:35:12	26012020	260120	043512	54.860	12.548747	-57.459890	54.860	-0.330	-1.300	-0.570	54.880	-2.500	-0.500																			1580013312.0	8.29	15.35
26/01/2020 04:35:13	26012020	260120	043513	54.940	12.548768	-57.459858	54.840	0.050	-0.900	0.220	54.940	-2.600	0.200																			1580013313.0	8.39	15.54
26/01/2020 04:35:14	26012020	260120	043514	54.910	12.548787	-57.459827	54.770	0.130	0.010	0.910	54.900	-1.800	1.000																			1580013314.0	7.59	14.06
26/01/2020 04:35:15	26012020	260120	043515	54.820	12.548802	-57.459798	54.700	0.050	0.510	1.250	54.800	-1.000	1.500																			1580013315.0	6.67	12.35
26/01/2020 04:35:16	26012020	260120	043516	54.750	12.548817	-57.459772	54.690	0.040	0.280	1.110	54.730	-0.900	1.600																			1580013316.0	6.50	12.04
26/01/2020 04:35:17	26012020	260120	043517	54.730	12.548837	-57.459745	54.720	0.190	-0.290	0.630	54.740	-1.400	1.200																			1580013317.0	7.16	13.26
26/01/2020 04:35:18	26012020	260120	043518	54.770	12.548862	-57.459718	54.760	0.390	-0.710	0.060	54.780	-1.900	0.700																			1580013318.0	7.85	14.54
26/01/2020 04:35:19	26012020	260120	043519	54.830	12.548888	-57.459692	54.920	0.490	-0.760	-0.460	54.850	-2.200	0.100																			1580013319.0	8.06	14.93
26/01/2020 04:35:20	26012020	260120	043520	54.990	12.548913	-57.459665	55.070	0.360	-0.340	-0.690	55.030	-2.000	-0.300																			1580013320.0	7.87	14.58
26/01/2020 04:35:21	26012020	260120	043521	55.140	12.548937	-57.459638	55.080	-0.070	0.380	-0.540	55.150	-1.400	-0.300																			1580013321.0	7.45	13.80
26/01/2020 04:35:22	26012020	260120	043522	55.140	12.548957	-57.459613	55.050	-0.570	0.800	-0.160	55.120	-0.700	0.000																			1580013322.0	6.90	12.78
26/01/2020 04:35:23	26012020	260120	043523	55.090	12.548973	-57.459587	55.110	-0.740	0.440	0.180	55.100	-0.700	0.400																			1580013323.0	6.62	12.26
26/01/2020 04:35:24	26012020	260120	043524	55.160	12.548992	-57.459558	55.180	-0.430	-0.360	0.360	55.180	-1.400	0.700																			1580013324.0	7.07	13.09
26/01/2020 04:35:25	26012020	260120	043525	55.240	12.549012	-57.459528	55.040	0.090	-0.850	0.530	55.230	-2.100	0.800																			1580013325.0	7.83	14.50
26/01/2020 04:35:26	26012020	260120	043526	55.090	12.549032	-57.459497	54.780	0.470	-0.830	0.650	55.040	-2.300	1.000																			1580013326.0	7.99	14.80
26/01/2020 04:35:27	26012020	260120	043527	54.840	12.549053	-57.459468	54.680	0.590	-0.640	0.510	54.800	-2.100	1.000																			1580013327.0	7.54	13.96
26/01/2020 04:35:28	26012020	260120	043528	54.750	12.549075	-57.459442	54.770	0.480	-0.340	0.150	54.750	-1.900	0.700																			1580013328.0	7.28	13.48
26/01/2020 04:35:29	26012020	260120	043529	54.840	12.549098	-57.459417	54.910	0.140	0.240	-0.150	54.870	-1.500	0.300																			1580013329.0	7.38	13.67
26/01/2020 04:35:30	26012020	260120	043530	54.980	12.549122	-57.459392	54.990	-0.360	0.790	-0.160	55.000	-0.800	0.200																			1580013330.0	7.22	13.37
26/01/2020 04:35:31	26012020	260120	043531	55.070	12.549142	-57.459367	55.050	-0.730	0.760	-0.040	55.080	-0.500	0.300																			1580013331.0	6.79	12.58
26/01/2020 04:35:32	26012020	260120	043532	55.140	12.549162	-57.459340	55.090	-0.640	-0.060	0.090	55.150	-1.000	0.400																			1580013332.0	6.81	12.61
26/01/2020 04:35:33	26012020	260120	043533	55.170	12.549180	-57.459312	55.050	-0.080	-1.100	0.230	55.170	-2.000	0.500																			1580013333.0	7.51	13.91
26/01/2020 04:35:34	26012020	260120	043534	55.140	12.549202	-57.459280	54.970	0.510	-1.460	0.390	55.120	-2.800	0.700																			1580013334.0	8.25	15.28
26/01/2020 04:35:35	26012020	260120	043535	55.040	12.549223	-57.459247	54.860	0.650	-0.700	0.430	55.020	-2.600	0.800																			1580013335.0	8.25	15.28
26/01/2020 04:35:36	26012020	260120	043536	54.920	12.549243	-57.459218	54.720	0.330	0.460	0.270	54.880	-1.400	0.700																			1580013336.0	7.34	13.59
26/01/2020 04:35:37	26012020	260120	043537	54.780	12.549262	-57.459195	54.680	-0.040	0.920	-0.080	54.770	-0.600	0.500																			1580013337.0	6.33	11.72
26/01/2020 04:35:38	26012020	260120	043538	54.770	12.549283	-57.459173	54.740	-0.140	0.440	-0.470	54.780	-0.600	0.100																			1580013338.0	6.42	11.89
26/01/2020 04:35:39	26012020	260120	043539	54.840	12.549307	-57.459148	54.790	-0.000	-0.310	-0.680	54.860	-1.400	-0.300																			1580013339.0	7.38	13.67
26/01/2020 04:35:40	26012020	260120	043540	54.890	12.549332	-57.459120	54.760	0.080	-0.610	-0.490	54.890	-1.900	-0.200																			1580013340.0	8.09	14.98
26/01/2020 04:35:41	26012020	260120	043541	54.860	12.549355	-57.459092	54.780	-0.050	-0.430	-0.120	54.860	-1.900	0.100																			1580013341.0	7.92	14.67
26/01/2020 04:35:42	26012020	260120	043542	54.870	12.549375	-57.459063	54.850	-0.240	-0.150	0.220	54.870	-1.900	0.200																			1580013342.0	7.26	13.45
26/01/2020 04:35:43	26012020	260120	043543	54.930	12.549392	-57.459035	54.820	-0.270	-0.040	0.530	54.940	-1.400	0.800																			1580013343.0	6.88	12.74
26/01/2020 04:35:44	26012020	260120	043544	54.900	12.549408	-57.459007	54.690	-0.130	-0.210	0.750	54.880	-1.500	1.000																			1580013344.0	6.96	12.89
26/01/2020 04:35:45	26012020	260120	043545	54.770	12.549428	-57.458980	54.670	0.100	-0.470	0.780	54.760	-1.700	1.200																			1580013345.0	7.27	13.46
26/01/2020 04:35:46	26012020	260120	043546	54.750	12.549450	-57.458952	54.750	0.270	-0.520	0.670	54.760	-1.900	1.100																			1580013346.0	7.61	14.09
26/01/2020 04:35:47	26012020	260120	043547	54.830	12.549473	-57.458923	54.820	0.290	-0.220	0.540	54.850	-1.800	1.000																			1580013347.0	7.65	14.17
26/01/2020 04:35:48	26012020	260120	043548	54.890	12.549495	-57.458897	54.830	0.170	0.160	0.420	54.900	-1.400	0.900																			1580013348.0	7.36	13.63
26/01/2020 04:35:49	26012020	260120	043549	54.920	12.549515	-57.458870	54.840	-0.030	0.280	0.250	54.920	-1.100	0.700																			1580013349.0	7.04	13.04
26/01/2020 04:35:50	26012020	260120	043550	54.920	12.549535	-57.458843	54.830	-0.220	0.170	-0.030	54.920	-1.200	0.500																			1580013350.0	7.10	13.15
26/01/2020 04:35:51	26012020	260120	043551	54.910	12.549557	-57.458817	54.880	-0.310	-0.000	-0.460	54.920	-1.300	0.100																			1580013351.0	7.34	13.59
26/01/2020 04:35:52	26012020	260120	043552	54.960	12.549578	-57.458790	54.980	-0.200	-0.230	-0.800	54.990	-1.500	-0.300																			1580013352.0	7.43	13.76
26/01/2020 04:35:53	26012020	260120	043553	55.060	12.549603	-57.458763	55.070	0.090	-0.440	-0.820	55.090	-1.800	-0.500																			1580013353.0	7.43	13.76
26/01/2020 04:35:54	26012020	260120	043554	55.160	12.549625	-57.458737	55.010	0.320	-0.460	-0.510	55.160	-1.900	-0.300																			1580013354.0	7.49	13.87
26/01/2020 04:35:55	26012020	260120	043555	55.100	12.549647	-57.458708	54.790	0.310	-0.330	-0.070	55.060	-1.800	0.100																			1580013355.0	7.41	13.72
26/01/2020 04:35:56	26012020	260120	043556	54.870	12.549665	-57.458680	54.650	0.140	-0.260	0.250	54.820	-1.700	0.500																			1580013356.0	7.26	13.45
26/01/2020 04:35:57	26012020	260120	043557	54.710	12.549685	-57.458653	54.760	-0.020	-0.290	0.370	54.710	-1.700	0.700																			1580013357.0	7.23	13.39
26/01/2020 04:35:58	26012020	260120	043558	54.830	12.549705	-57.458625	54.990	-0.130	-0.180	0.450	54.870	-1.700	0.800																			1580013358.0	7.42	13.74
26/01/2020 04:35:59	26012020	260120	043559	55.060	12.549727	-57.458597	55.130	-0.230	0.150	0.630	55.100	-1.400	0.900																			1580013359.0	7.47	13.83
26/01/2020 04:36:00	26012020	260120	043600	55.200	12.549747	-57.458570	55.140	-0.260	0.310	0.800	55.210	-1.100	1.100	1014.80	25.70	25.80	20.90	20.90	-1.00	74.00	74.00	395.00	25.20	11.00	9.00	74.00	5.30	14	3227.00	27.50	27.40	1580013360.0	7.16	13.26
26/01/2020 04:36:01	26012020	260120	043601	55.210	12.549763	-57.458542	55.020	-0.120	0.020	0.860	55.200	-1.200	1.200																			1580013361.0	6.99	12.95
26/01/2020 04:36:02	26012020	260120	043602	55.100	12.549783	-57.458513	54.870	0.150	-0.470	0.800	55.070	-1.600	1.200																			1580013362.0	7.33	13.58
26/01/2020 04:36:03	26012020	260120	043603	54.940	12.549805	-57.458483	54.740	0.380	-0.710	0.560	54.910	-2.000	1.100																			1580013363.0	7.78	14.41
26/01/2020 04:36:04	26012020	260120	043604	54.830	12.549828	-57.458455	54.690	0.350	-0.460	0.130	54.810	-2.000	0.700																			1580013364.0	7.87	14.58
26/01/2020 04:36:05	26012020	260120	043605	54.780	12.549852	-57.458428	54.700	0.020	0.040	-0.430	54.780	-1.600	0.200																			1580013365.0	7.52	13.93
26/01/2020 04:36:06	26012020	260120	043606	54.810	12.549873	-57.458403	54.790	-0.300	0.290	-0.870	54.820	-1.200	-0.300																			1580013366.0	7.06	13.08
26/01/2020 04:36:07	26012020	260120	043607	54.900	12.549897	-57.458380	54.860	-0.330	0.160	-0.980	54.930	-1.100	-0.600																			1580013367.0	6.98	12.93
26/01/2020 04:36:08	26012020	260120	043608	54.970	12.549920	-57.458355	54.810	-0.110	-0.060	-0.760	54.960	-1.400	-0.500																			1580013368.0	7.32	13.56
26/01/2020 04:36:09	26012020	260120	043609	54.920	12.549942	-57.458327	54.720	0.130	-0.260	-0.360	54.900	-1.500	-0.200																			1580013369.0	7.56	14.00
26/01/2020 04:36:10	26012020	260120	043610	54.820	12.549962	-57.458297	54.710	0.240	-0.530	0.100	54.820	-1.800	0.300																			1580013370.0	7.48	13.85
26/01/2020 04:36:11	26012020	260120	043611	54.810	12.549980	-57.458267	54.770	0.160	-0.660	0.530	54.820	-2.000	0.700																			1580013371.0	7.54	13.96
26/01/2020 04:36:12	26012020	260120	043612	54.850	12.550000	-57.458237	54.720	-0.060	-0.380	0.870	54.850	-1.900	1.100																			1580013372.0	7.67	14.20
26/01/2020 04:36:13	26012020	260120	043613	54.790	12.550018	-57.458208	54.610	-0.200	0.120	1.080	54.770	-1.500	1.400																			1580013373.0	7.43	13.76
26/01/2020 04:36:14	26012020	260120	043614	54.680	12.550038	-57.458182	54.610	-0.090	0.300	1.020	54.670	-1.100	1.500																			1580013374.0	6.99	12.95
26/01/2020 04:36:15	26012020	260120	043615	54.670	12.550058	-57.458155	54.680	0.170	0.020	0.720	54.690	-1.200	1.200																			1580013375.0	6.98	12.93
26/01/2020 04:36:16	26012020	260120	043616	54.750	12.550080	-57.458127	54.650	0.290	-0.300	0.330	54.750	-1.600	0.900																			1580013376.0	7.48	13.85
26/01/2020 04:36:17	26012020	260120	043617	54.730	12.550103	-57.458098	54.600	0.150	-0.320	-0.110	54.720	-1.700	0.500																			1580013377.0	7.83	14.50
26/01/2020 04:36:18	26012020	260120	043618	54.690	12.550127	-57.458072	54.560	-0.090	-0.110	-0.450	54.680	-1.600	0.100																			1580013378.0	7.65	14.17
26/01/2020 04:36:19	26012020	260120	043619	54.670	12.550150	-57.458047	54.510	-0.240	-0.020	-0.570	54.670	-1.400	-0.200																			1580013379.0	7.25	13.43
26/01/2020 04:36:20	26012020	260120	043620	54.630	12.550172	-57.458022	54.410	-0.250	-0.210	-0.540	54.610	-1.500	-0.200																			1580013380.0	7.15	13.24
26/01/2020 04:36:21	26012020	260120	043621	54.530	12.550193	-57.457993	54.390	-0.130	-0.450	-0.450	54.510	-1.700	-0.100																			1580013381.0	7.41	13.72
26/01/2020 04:36:22	26012020	260120	043622	54.500	12.550215	-57.457965	54.440	0.040	-0.490	-0.260	54.500	-1.900	0.000																			1580013382.0	7.64	14.15
26/01/2020 04:36:23	26012020	260120	043623	54.550	12.550237	-57.457937	54.490	0.160	-0.210	-0.010	54.560	-1.800	0.200																			1580013383.0	7.63	14.13
26/01/2020 04:36:24	26012020	260120	043624	54.590	12.550255	-57.457908	54.530	0.100	0.190	0.230	54.600	-1.400	0.500																			1580013384.0	7.39	13.69
26/01/2020 04:36:25	26012020	260120	043625	54.630	12.550275	-57.457880	54.540	-0.020	0.290	0.470	54.640	-1.100	0.700																			1580013385.0	7.06	13.08
26/01/2020 04:36:26	26012020	260120	043626	54.640	12.550293	-57.457853	54.490	-0.040	-0.030	0.690	54.640	-1.200	1.000																			1580013386.0	7.04	13.04
26/01/2020 04:36:27	26012020	260120	043627	54.590	12.550315	-57.457825	54.400	0.070	-0.480	0.750	54.570	-1.700	1.100																			1580013387.0	7.44	13.78
26/01/2020 04:36:28	26012020	260120	043628	54.490	12.550337	-57.457797	54.330	0.160	-0.640	0.700	54.470	-2.000	1.100																			1580013388.0	7.84	14.52
26/01/2020 04:36:29	26012020	260120	043629	54.400	12.550360	-57.457767	54.350	0.130	-0.380	0.590	54.400	-1.900	1.000																			1580013389.0	7.83	14.50
26/01/2020 04:36:30	26012020	260120	043630	54.420	12.550382	-57.457740	54.480	0.030	0.030	0.390	54.440	-1.500	0.900																			1580013390.0	7.44	13.78
26/01/2020 04:36:31	26012020	260120	043631	54.550	12.550403	-57.457713	54.570	-0.080	0.220	0.160	54.590	-1.200	0.600																			1580013391.0	7.05	13.06
26/01/2020 04:36:32	26012020	260120	043632	54.670	12.550423	-57.457688	54.580	-0.170	0.100	-0.040	54.670	-1.200	0.600																			1580013392.0	7.08	13.11
26/01/2020 04:36:33	26012020	260120	043633	54.680	12.550445	-57.457660	54.540	-0.230	-0.120	-0.230	54.670	-1.400	0.200																			1580013393.0	7.37	13.65
26/01/2020 04:36:34	26012020	260120	043634	54.650	12.550467	-57.457633	54.490	-0.170	-0.270	-0.350	54.640	-1.600	0.100																			1580013394.0	7.57	14.02
26/01/2020 04:36:35	26012020	260120	043635	54.600	12.550490	-57.457607	54.470	0.050	-0.390	-0.380	54.600	-1.700	0.000																			1580013395.0	7.54	13.96
26/01/2020 04:36:36	26012020	260120	043636	54.590	12.550512	-57.457578	54.570	0.300	-0.560	-0.360	54.600	-1.900	0.000																			1580013396.0	7.49	13.87
26/01/2020 04:36:37	26012020	260120	043637	54.670	12.550535	-57.457552	54.650	0.330	-0.530	-0.180	54.700	-2.000	0.100																			1580013397.0	7.61	14.09
26/01/2020 04:36:38	26012020	260120	043638	54.730	12.550557	-57.457522	54.600	0.010	0.010	0.170	54.730	-1.700	0.400																			1580013398.0	7.70	14.26
26/01/2020 04:36:39	26012020	260120	043639	54.690	12.550577	-57.457493	54.560	-0.410	0.560	0.530	54.670	-1.000	0.800																			1580013399.0	7.27	13.46
26/01/2020 04:36:40	26012020	260120	043640	54.650	12.550593	-57.457468	54.610	-0.520	0.400	0.730	54.650	-0.800	1.000																			1580013400.0	6.69	12.39
26/01/2020 04:36:41	26012020	260120	043641	54.700	12.550612	-57.457440	54.650	-0.170	-0.370	0.710	54.710	-1.400	1.100																			1580013401.0	6.96	12.89
26/01/2020 04:36:42	26012020	260120	043642	54.720	12.550633	-57.457410	54.640	0.320	-0.960	0.460	54.720	-2.100	1.000																			1580013402.0	7.84	14.52
26/01/2020 04:36:43	26012020	260120	043643	54.730	12.550657	-57.457380	54.660	0.580	-0.780	0.160	54.730	-2.300	0.700																			1580013403.0	8.27	15.32
26/01/2020 04:36:44	26012020	260120	043644	54.750	12.550680	-57.457352	54.570	0.420	-0.020	0.130	54.750	-1.800	0.500																			1580013404.0	7.83	14.50
26/01/2020 04:36:45	26012020	260120	043645	54.660	12.550702	-57.457327	54.350	-0.040	0.610	0.160	54.630	-1.000	0.500																			1580013405.0	7.00	12.96
26/01/2020 04:36:46	26012020	260120	043646	54.440	12.550722	-57.457302	54.180	-0.390	0.510	0.000	54.400	-0.700	0.500																			1580013406.0	6.58	12.19
26/01/2020 04:36:47	26012020	260120	043647	54.280	12.550742	-57.457277	54.240	-0.340	-0.190	-0.310	54.280	-1.200	0.200																			1580013407.0	6.98	12.93
26/01/2020 04:36:48	26012020	260120	043648	54.360	12.550767	-57.457250	54.470	-0.020	-0.780	-0.520	54.390	-2.000	-0.100																			1580013408.0	7.76	14.37
26/01/2020 04:36:49	26012020	260120	043649	54.590	12.550792	-57.457222	54.650	0.160	-0.740	-0.410	54.640	-2.200	-0.100																			1580013409.0	8.15	15.09
26/01/2020 04:36:50	26012020	260120	043650	54.760	12.550813	-57.457192	54.610	-0.000	-0.210	0.020	54.770	-1.900	0.200																			1580013410.0	7.77	14.39
26/01/2020 04:36:51	26012020	260120	043651	54.710	12.550832	-57.457163	54.420	-0.300	0.260	0.540	54.670	-1.300	0.700																			1580013411.0	7.10	13.15
26/01/2020 04:36:52	26012020	260120	043652	54.520	12.550848	-57.457137	54.330	-0.380	0.300	0.780	54.490	-1.000	1.100																			1580013412.0	6.79	12.58
26/01/2020 04:36:53	26012020	260120	043653	54.430	12.550867	-57.457108	54.370	-0.130	-0.060	0.660	54.430	-1.200	1.100																			1580013413.0	7.02	13.00
26/01/2020 04:36:54	26012020	260120	043654	54.470	12.550887	-57.457080	54.380	0.280	-0.570	0.440	54.480	-1.700	0.900																			1580013414.0	7.47	13.83
26/01/2020 04:36:55	26012020	260120	043655	54.490	12.550910	-57.457052	54.400	0.580	-0.830	0.250	54.490	-2.100	0.700																			1580013415.0	7.86	14.56
26/01/2020 04:36:56	26012020	260120	043656	54.500	12.550935	-57.457023	54.510	0.610	-0.580	0.040	54.500	-2.200	0.700																			1580013416.0	7.97	14.76
26/01/2020 04:36:57	26012020	260120	043657	54.620	12.550960	-57.456997	54.620	0.340	0.100	-0.040	54.650	-1.600	0.400																			1580013417.0	7.65	14.17
26/01/2020 04:36:58	26012020	260120	043658	54.710	12.550982	-57.456972	54.600	-0.150	0.740	0.080	54.710	-1.400	0.300																			1580013418.0	7.13	13.20
26/01/2020 04:36:59	26012020	260120	043659	54.690	12.551000	-57.456947	54.610	-0.620	0.780	0.150	54.680	-0.500	0.500																			1580013419.0	6.71	12.43
26/01/2020 04:37:00	26012020	260120	043700	54.700	12.551020	-57.456922	54.720	-0.780	0.080	0.060	54.720	-0.900	0.500	1014.80	25.80	25.80	21.00	21.00	-1.00	75.00	75.00	397.00	25.20	11.00	8.80	74.00	5.10	14	3220.00	27.40	27.40	1580013420.0	6.82	12.63
26/01/2020 04:37:01	26012020	260120	043701	54.820	12.551042	-57.456893	54.940	-0.460	-0.900	-0.040	54.860	-1.800	0.400																			1580013421.0	7.44	13.78
26/01/2020 04:37:02	26012020	260120	043702	55.040	12.551063	-57.456863	55.080	0.110	-1.320	0.000	55.090	-2.600	0.300																			1580013422.0	8.07	14.95
26/01/2020 04:37:03	26012020	260120	043703	55.170	12.551087	-57.456832	54.910	0.430	-0.800	0.280	55.160	-2.500	0.500																			1580013423.0	8.19	15.17
26/01/2020 04:37:04	26012020	260120	043704	55.000	12.551107	-57.456803	54.650	0.320	0.020	0.490	54.940	-1.700	0.800																			1580013424.0	7.46	13.82
26/01/2020 04:37:05	26012020	260120	043705	54.730	12.551125	-57.456777	54.620	0.050	0.430	0.300	54.700	-1.100	0.800																			1580013425.0	6.72	12.45
26/01/2020 04:37:06	26012020	260120	043706	54.700	12.551145	-57.456752	54.820	-0.090	0.350	-0.180	54.730	-1.000	0.400																			1580013426.0	6.77	12.54
26/01/2020 04:37:07	26012020	260120	043707	54.930	12.551168	-57.456727	55.030	-0.090	0.100	-0.530	54.980	-1.200	-0.000																			1580013427.0	7.37	13.65
26/01/2020 04:37:08	26012020	260120	043708	55.140	12.551192	-57.456700	55.080	-0.030	-0.160	-0.610	55.170	-1.400	-0.200																			1580013428.0	7.67	14.20
26/01/2020 04:37:09	26012020	260120	043709	55.200	12.551215	-57.456672	55.080	0.080	-0.430	-0.480	55.200	-1.700	-0.200																			1580013429.0	7.61	14.09
26/01/2020 04:37:10	26012020	260120	043710	55.190	12.551237	-57.456643	55.110	0.230	-0.600	-0.200	55.190	-1.900	0.000																			1580013430.0	7.57	14.02
26/01/2020 04:37:11	26012020	260120	043711	55.210	12.551257	-57.456615	55.110	0.320	-0.520	0.120	55.210	-2.000	0.400																			1580013431.0	7.60	14.08
26/01/2020 04:37:12	26012020	260120	043712	55.200	12.551277	-57.456585	55.090	0.190	-0.100	0.330	55.200	-1.700	0.600																			1580013432.0	7.57	14.02
26/01/2020 04:37:13	26012020	260120	043713	55.170	12.551297	-57.456558	55.040	-0.120	0.370	0.540	55.170	-1.200	0.800																			1580013433.0	7.26	13.45
26/01/2020 04:37:14	26012020	260120	043714	55.130	12.551317	-57.456532	54.950	-0.420	0.500	0.760	55.110	-0.900	1.000																			1580013434.0	6.92	12.82
26/01/2020 04:37:15	26012020	260120	043715	55.030	12.551335	-57.456505	54.870	-0.490	0.090	0.790	55.010	-1.000	1.200																			1580013435.0	6.94	12.85
26/01/2020 04:37:16	26012020	260120	043716	54.950	12.551355	-57.456477	55.010	-0.210	-0.670	0.540	54.960	-1.700	1.100																			1580013436.0	7.33	13.58
26/01/2020 04:37:17	26012020	260120	043717	55.110	12.551378	-57.456448	55.250	0.170	-1.120	0.280	55.160	-2.400	0.800																			1580013437.0	7.89	14.61
26/01/2020 04:37:18	26012020	260120	043718	55.340	12.551402	-57.456417	55.260	0.260	-0.660	0.150	55.370	-2.400	0.600																			1580013438.0	8.16	15.11
26/01/2020 04:37:19	26012020	260120	043719	55.350	12.551423	-57.456388	55.050	0.030	0.240	0.130	55.320	-1.500	0.500																			1580013439.0	7.58	14.04
26/01/2020 04:37:20	26012020	260120	043720	55.150	12.551442	-57.456363	54.900	-0.170	0.550	0.030	55.110	-0.900	0.500																			1580013440.0	6.65	12.32
26/01/2020 04:37:21	26012020	260120	043721	55.000	12.551460	-57.456338	54.900	-0.070	0.110	-0.310	54.990	-1.000	0.300																			1580013441.0	6.63	12.28
26/01/2020 04:37:22	26012020	260120	043722	55.010	12.551483	-57.456312	54.990	0.200	-0.320	-0.690	55.010	-1.200	0.100																			1580013442.0	7.53	13.95
26/01/2020 04:37:23	26012020	260120	043723	55.110	12.551508	-57.456283	55.040	0.360	-0.370	-0.810	55.120	-1.800	-0.400																			1580013443.0	8.04	14.89
26/01/2020 04:37:24	26012020	260120	043724	55.160	12.551533	-57.456257	54.990	0.320	-0.240	-0.600	55.160	-1.700	-0.300																			1580013444.0	7.69	14.24
26/01/2020 04:37:25	26012020	260120	043725	55.110	12.551553	-57.456230	54.930	0.150	-0.190	-0.270	55.100	-1.600	-0.000																			1580013445.0	7.28	13.48
26/01/2020 04:37:26	26012020	260120	043726	55.030	12.551573	-57.456202	54.930	-0.050	-0.250	0.060	55.020	-1.600	0.300																			1580013446.0	7.26	13.45
26/01/2020 04:37:27	26012020	260120	043727	55.010	12.551595	-57.456173	55.070	-0.180	-0.280	0.430	55.030	-1.700	0.600																			1580013447.0	7.43	13.76
26/01/2020 04:37:28	26012020	260120	043728	55.140	12.551615	-57.456145	55.290	-0.300	-0.060	0.870	55.180	-1.600	1.000																			1580013448.0	7.54	13.96
26/01/2020 04:37:29	26012020	260120	043729	55.350	12.551633	-57.456115	55.410	-0.470	0.320	1.240	55.390	-1.200	1.500																			1580013449.0	7.38	13.67
26/01/2020 04:37:30	26012020	260120	043730	55.470	12.551650	-57.456087	55.330	-0.570	0.380	1.420	55.460	-1.000	1.700																			1580013450.0	7.03	13.02
26/01/2020 04:37:31	26012020	260120	043731	55.390	12.551667	-57.456058	55.210	-0.390	-0.170	1.260	55.370	-1.200	1.800																			1580013451.0	6.92	12.82
26/01/2020 04:37:32	26012020	260120	043732	55.280	12.551685	-57.456030	55.160	0.150	-0.980	0.680	55.270	-2.000	1.400																			1580013452.0	7.38	13.67
26/01/2020 04:37:33	26012020	260120	043733	55.240	12.551710	-57.456000	55.100	0.730	-1.170	-0.020	55.230	-2.600	0.700																			1580013453.0	8.10	15.00
26/01/2020 04:37:34	26012020	260120	043734	55.180	12.551737	-57.455972	55.040	0.950	-0.520	-0.600	55.170	-2.300	0.000																			1580013454.0	8.23	15.24
26/01/2020 04:37:35	26012020	260120	043735	55.140	12.551762	-57.455947	55.110	0.680	0.280	-1.010	55.150	-1.400	-0.500																			1580013455.0	7.50	13.89
26/01/2020 04:37:36	26012020	260120	043736	55.220	12.551783	-57.455925	55.300	0.160	0.580	-1.280	55.260	-0.900	-0.800																			1580013456.0	6.85	12.69
26/01/2020 04:37:37	26012020	260120	043737	55.430	12.551807	-57.455900	55.490	-0.300	0.430	-1.230	55.480	-0.900	-0.900																			1580013457.0	6.96	12.89
26/01/2020 04:37:38	26012020	260120	043738	55.620	12.551828	-57.455873	55.530	-0.590	0.220	-0.710	55.640	-1.100	-0.600																			1580013458.0	7.44	13.78
26/01/2020 04:37:39	26012020	260120	043739	55.650	12.551850	-57.455845	55.480	-0.680	-0.030	0.110	55.640	-1.300	0.100																			1580013459.0	7.57	14.02
26/01/2020 04:37:40	26012020	260120	043740	55.590	12.551867	-57.455815	55.440	-0.500	-0.510	0.910	55.570	-1.600	0.900																			1580013460.0	7.41	13.72
26/01/2020 04:37:41	26012020	260120	043741	55.530	12.551883	-57.455783	55.420	-0.070	-1.050	1.400	55.520	-2.200	1.600																			1580013461.0	7.51	13.91
26/01/2020 04:37:42	26012020	260120	043742	55.490	12.551900	-57.455750	55.400	0.360	-1.090	1.590	55.490	-2.500	1.900																			1580013462.0	7.84	14.52
26/01/2020 04:37:43	26012020	260120	043743	55.450	12.551920	-57.455718	55.360	0.470	-0.400	1.480	55.450	-2.200	1.900																			1580013463.0	7.88	14.59
26/01/2020 04:37:44	26012020	260120	043744	55.410	12.551940	-57.455692	55.320	0.260	0.470	1.000	55.400	-1.300	1.600																			1580013464.0	7.30	13.52
26/01/2020 04:37:45	26012020	260120	043745	55.390	12.551960	-57.455667	55.370	-0.010	0.820	0.210	55.390	-0.700	1.000																			1580013465.0	6.71	12.43
26/01/2020 04:37:46	26012020	260120	043746	55.450	12.551982	-57.455643	55.380	-0.130	0.450	-0.550	55.470	-0.700	0.200																			1580013466.0	6.81	12.61
26/01/2020 04:37:47	26012020	260120	043747	55.490	12.552007	-57.455618	55.250	-0.070	-0.320	-1.050	55.480	-1.400	-0.500																			1580013467.0	7.46	13.82
26/01/2020 04:37:48	26012020	260120	043748	55.380	12.552032	-57.455590	55.130	0.080	-0.900	-1.320	55.350	-2.100	-0.800																			1580013468.0	8.02	14.85
26/01/2020 04:37:49	26012020	260120	043749	55.260	12.552057	-57.455562	55.140	0.150	-0.820	-1.270	55.250	-2.300	-1.000																			1580013469.0	8.18	15.15
26/01/2020 04:37:50	26012020	260120	043750	55.260	12.552080	-57.455533	55.170	0.040	-0.160	-0.790	55.260	-1.900	-0.700																			1580013470.0	7.75	14.35
26/01/2020 04:37:51	26012020	260120	043751	55.280	12.552098	-57.455505	55.160	-0.180	0.410	-0.140	55.280	-1.200	-0.100																			1580013471.0	7.01	12.98
26/01/2020 04:37:52	26012020	260120	043752	55.260	12.552113	-57.455478	55.110	-0.280	0.350	0.410	55.250	-0.900	0.500																			1580013472.0	6.63	12.28
26/01/2020 04:37:53	26012020	260120	043753	55.200	12.552130	-57.455450	54.980	-0.210	-0.180	0.900	55.180	-1.300	1.100																			1580013473.0	7.00	12.96
26/01/2020 04:37:54	26012020	260120	043754	55.060	12.552150	-57.455420	54.930	-0.050	-0.640	1.260	55.040	-1.900	1.500																			1580013474.0	7.69	14.24
26/01/2020 04:37:55	26012020	260120	043755	54.990	12.552170	-57.455388	55.000	0.120	-0.710	1.390	55.000	-2.100	1.700																			1580013475.0	7.95	14.72
26/01/2020 04:37:56	26012020	260120	043756	55.050	12.552192	-57.455358	55.020	0.230	-0.360	1.350	55.060	-2.000	1.800																			1580013476.0	7.74	14.33
26/01/2020 04:37:57	26012020	260120	043757	55.070	12.552212	-57.455330	54.930	0.160	0.170	1.180	55.060	-1.500	1.700																			1580013477.0	7.35	13.61
26/01/2020 04:37:58	26012020	260120	043758	54.990	12.552232	-57.455303	54.840	-0.010	0.450	0.830	54.970	-1.000	1.400																			1580013478.0	6.99	12.95
26/01/2020 04:37:59	26012020	260120	043759	54.900	12.552250	-57.455278	54.830	-0.090	0.150	0.270	54.890	-1.000	0.900																			1580013479.0	6.91	12.80
26/01/2020 04:38:00	26012020	260120	043800	54.920	12.552273	-57.455252	54.880	0.050	-0.510	-0.410	54.920	-1.200	0.700	1014.90	25.70	25.80	21.20	21.20	-1.00	76.00	75.00	399.00	25.20	9.00	9.00	71.00	5.30	14	3362.00	27.50	27.40	1580013480.0	7.30	13.52
26/01/2020 04:38:01	26012020	260120	043801	54.990	12.552298	-57.455223	54.810	0.240	-0.820	-0.890	54.990	-2.200	-0.300																			1580013481.0	7.95	14.72
26/01/2020 04:38:02	26012020	260120	043802	54.930	12.552323	-57.455197	54.570	0.180	-0.420	-0.930	54.890	-2.100	-0.600																			1580013482.0	8.15	15.09
26/01/2020 04:38:03	26012020	260120	043803	54.700	12.552347	-57.455168	54.460	-0.140	0.250	-0.700	54.660	-1.400	-0.400																			1580013483.0	7.55	13.98
26/01/2020 04:38:04	26012020	260120	043804	54.580	12.552367	-57.455143	54.630	-0.410	0.510	-0.430	54.590	-0.900	-0.200																			1580013484.0	6.78	12.56
26/01/2020 04:38:05	26012020	260120	043805	54.730	12.552385	-57.455118	54.830	-0.410	0.210	-0.090	54.770	-1.000	0.100																			1580013485.0	6.74	12.48
26/01/2020 04:38:06	26012020	260120	043806	54.930	12.552403	-57.455088	54.860	-0.160	-0.300	0.390	54.950	-1.500	0.500																			1580013486.0	7.29	13.50
26/01/2020 04:38:07	26012020	260120	043807	54.950	12.552422	-57.455058	54.670	0.100	-0.700	0.950	54.920	-1.900	1.100																			1580013487.0	7.74	14.33
26/01/2020 04:38:08	26012020	260120	043808	54.760	12.552442	-57.455027	54.510	0.220	-0.770	1.330	54.710	-2.200	1.600																			1580013488.0	7.84	14.52
26/01/2020 04:38:09	26012020	260120	043809	54.570	12.552462	-57.454997	54.510	0.230	-0.490	1.310	54.550	-2.000	1.700																			1580013489.0	7.67	14.20
26/01/2020 04:38:10	26012020	260120	043810	54.560	12.552482	-57.454968	54.650	0.230	-0.030	0.920	54.590	-1.600	1.500																			1580013490.0	7.35	13.61
26/01/2020 04:38:11	26012020	260120	043811	54.710	12.552503	-57.454942	54.630	0.230	0.280	0.540	54.730	-1.200	1.100																			1580013491.0	7.10	13.15
26/01/2020 04:38:12	26012020	260120	043812	54.720	12.552523	-57.454917	54.350	0.150	0.250	0.300	54.720	-1.100	1.000																			1580013492.0	7.07	13.09
26/01/2020 04:38:13	26012020	260120	043813	54.440	12.552545	-57.454890	54.060	0.010	-0.070	-0.050	54.370	-1.300	0.500																			1580013493.0	7.31	13.54
26/01/2020 04:38:14	26012020	260120	043814	54.150	12.552568	-57.454863	54.060	-0.090	-0.380	-0.550	54.110	-1.700	0.100																			1580013494.0	7.65	14.17
26/01/2020 04:38:15	26012020	260120	043815	54.130	12.552595	-57.454837	54.300	-0.120	-0.400	-0.870	54.160	-1.800	-0.400																			1580013495.0	7.87	14.58
26/01/2020 04:38:16	26012020	260120	043816	54.370	12.552620	-57.454810	54.500	-0.250	-0.100	-0.760	54.420	-1.700	-0.500																			1580013496.0	7.70	14.26
26/01/2020 04:38:17	26012020	260120	043817	54.570	12.552640	-57.454783	54.510	-0.450	0.160	-0.260	54.590	-1.300	-0.100																			1580013497.0	7.23	13.39
26/01/2020 04:38:18	26012020	260120	043818	54.590	12.552657	-57.454755	54.440	-0.520	0.090	0.410	54.570	-1.200	0.500																			1580013498.0	6.97	12.91
26/01/2020 04:38:19	26012020	260120	043819	54.490	12.552673	-57.454725	54.260	-0.330	-0.210	1.010	54.460	-1.400	1.100																			1580013499.0	7.19	13.32
26/01/2020 04:38:20	26012020	260120	043820	54.290	12.552690	-57.454693	54.010	0.070	-0.510	1.320	54.240	-1.800	1.600																			1580013500.0	7.55	13.98
26/01/2020 04:38:21	26012020	260120	043821	54.040	12.552710	-57.454663	53.830	0.470	-0.630	1.220	53.990	-2.000	1.700																			1580013501.0	7.69	14.24
26/01/2020 04:38:22	26012020	260120	043822	53.870	12.552732	-57.454635	53.710	0.670	-0.520	0.860	53.840	-2.000	1.400																			1580013502.0	7.64	14.15
26/01/2020 04:38:23	26012020	260120	043823	53.750	12.552755	-57.454608	53.680	0.590	-0.290	0.350	53.740	-1.800	1.000																			1580013503.0	7.52	13.93
26/01/2020 04:38:24	26012020	260120	043824	53.730	12.552780	-57.454583	53.870	0.320	-0.060	-0.190	53.760	-1.600	0.500																			1580013504.0	7.44	13.78
26/01/2020 04:38:25	26012020	260120	043825	53.930	12.552805	-57.454558	54.140	-0.030	0.160	-0.530	53.990	-1.300	-0.000																			1580013505.0	7.43	13.76
26/01/2020 04:38:26	26012020	260120	043826	54.200	12.552828	-57.454533	54.170	-0.390	0.410	-0.450	54.240	-1.100	-0.100																			1580013506.0	7.43	13.76
26/01/2020 04:38:27	26012020	260120	043827	54.230	12.552848	-57.454507	53.960	-0.670	0.480	-0.060	54.200	-0.900	0.100																			1580013507.0	7.26	13.45
26/01/2020 04:38:28	26012020	260120	043828	54.010	12.552867	-57.454478	53.810	-0.680	0.110	0.310	53.970	-1.000	0.500																			1580013508.0	7.13	13.20
26/01/2020 04:38:29	26012020	260120	043829	53.840	12.552887	-57.454450	53.790	-0.320	-0.570	0.480	53.830	-1.600	0.800																			1580013509.0	7.30	13.52
26/01/2020 04:38:30	26012020	260120	043830	53.830	12.552907	-57.454420	53.750	0.170	-0.980	0.590	53.830	-2.300	0.900																			1580013510.0	7.76	14.37
26/01/2020 04:38:31	26012020	260120	043831	53.790	12.552928	-57.454388	53.660	0.450	-0.810	0.700	53.780	-2.300	1.000																			1580013511.0	7.97	14.76
26/01/2020 04:38:32	26012020	260120	043832	53.700	12.552950	-57.454360	53.640	0.400	-0.410	0.700	53.690	-2.000	1.100																			1580013512.0	7.55	13.98
26/01/2020 04:38:33	26012020	260120	043833	53.670	12.552970	-57.454333	53.650	0.180	-0.030	0.490	53.670	-1.600	1.000																			1580013513.0	7.17	13.28
26/01/2020 04:38:34	26012020	260120	043834	53.690	12.552992	-57.454308	53.700	-0.020	0.300	0.210	53.700	-1.200	0.700																			1580013514.0	7.20	13.33
26/01/2020 04:38:35	26012020	260120	043835	53.750	12.553015	-57.454282	53.760	-0.060	0.420	0.010	53.770	-1.000	0.500																			1580013515.0	7.25	13.43
26/01/2020 04:38:36	26012020	260120	043836	53.810	12.553037	-57.454257	53.740	-0.020	0.190	-0.130	53.810	-1.100	0.300																			1580013516.0	7.27	13.46
26/01/2020 04:38:37	26012020	260120	043837	53.790	12.553058	-57.454228	53.670	-0.010	-0.170	-0.230	53.780	-1.400	0.200																			1580013517.0	7.50	13.89
26/01/2020 04:38:38	26012020	260120	043838	53.720	12.553082	-57.454200	53.610	-0.050	-0.430	-0.230	53.710	-1.700	0.100																			1580013518.0	7.70	14.26
26/01/2020 04:38:39	26012020	260120	043839	53.670	12.553103	-57.454172	53.540	-0.020	-0.500	-0.110	53.660	-1.900	0.200																			1580013519.0	7.67	14.20
26/01/2020 04:38:40	26012020	260120	043840	53.600	12.553125	-57.454145	53.470	0.090	-0.430	0.130	53.600	-1.900	0.300																			1580013520.0	7.50	13.89
26/01/2020 04:38:41	26012020	260120	043841	53.520	12.553147	-57.454117	53.450	0.120	-0.330	0.370	53.510	-1.800	0.700																			1580013521.0	7.39	13.69
26/01/2020 04:38:42	26012020	260120	043842	53.480	12.553167	-57.454088	53.440	-0.010	-0.160	0.580	53.480	-1.600	0.900																			1580013522.0	7.39	13.69
26/01/2020 04:38:43	26012020	260120	043843	53.470	12.553187	-57.454060	53.450	-0.220	0.040	0.680	53.470	-1.400	1.000																			1580013523.0	7.40	13.70
26/01/2020 04:38:44	26012020	260120	043844	53.480	12.553207	-57.454033	53.520	-0.310	0.120	0.640	53.490	-1.300	1.100																			1580013524.0	7.31	13.54
26/01/2020 04:38:45	26012020	260120	043845	53.550	12.553228	-57.454005	53.590	-0.210	0.030	0.540	53.570	-1.300	1.000																			1580013525.0	7.31	13.54
26/01/2020 04:38:46	26012020	260120	043846	53.620	12.553250	-57.453978	53.530	-0.010	-0.130	0.480	53.630	-1.400	0.900																			1580013526.0	7.45	13.80
26/01/2020 04:38:47	26012020	260120	043847	53.580	12.553272	-57.453950	53.380	0.190	-0.310	0.470	53.550	-1.600	0.900																			1580013527.0	7.56	14.00
26/01/2020 04:38:48	26012020	260120	043848	53.420	12.553293	-57.453922	53.290	0.320	-0.470	0.320	53.390	-1.800	0.800																			1580013528.0	7.59	14.06
26/01/2020 04:38:49	26012020	260120	043849	53.340	12.553317	-57.453893	53.280	0.320	-0.460	0.050	53.330	-1.900	0.600																			1580013529.0	7.61	14.09
26/01/2020 04:38:50	26012020	260120	043850	53.330	12.553340	-57.453867	53.300	0.170	-0.200	-0.170	53.330	-1.700	0.300																			1580013530.0	7.63	14.13
26/01/2020 04:38:51	26012020	260120	043851	53.360	12.553363	-57.453842	53.440	-0.040	0.030	-0.280	53.380	-1.400	0.200																			1580013531.0	7.42	13.74
26/01/2020 04:38:52	26012020	260120	043852	53.500	12.553385	-57.453815	53.570	-0.140	0.010	-0.290	53.540	-1.400	0.100																			1580013532.0	7.23	13.39
26/01/2020 04:38:53	26012020	260120	043853	53.640	12.553407	-57.453788	53.500	-0.140	-0.050	-0.070	53.650	-1.400	0.200																			1580013533.0	7.41	13.72
26/01/2020 04:38:54	26012020	260120	043854	53.560	12.553428	-57.453760	53.320	-0.170	0.030	0.300	53.530	-1.400	0.500																			1580013534.0	7.63	14.13
26/01/2020 04:38:55	26012020	260120	043855	53.380	12.553448	-57.453732	53.270	-0.250	0.090	0.610	53.360	-1.300	0.900																			1580013535.0	7.49	13.87
26/01/2020 04:38:56	26012020	260120	043856	53.320	12.553468	-57.453703	53.350	-0.270	-0.050	0.720	53.330	-1.300	1.100																			1580013536.0	7.28	13.48
26/01/2020 04:38:57	26012020	260120	043857	53.380	12.553488	-57.453675	53.430	-0.140	-0.420	0.660	53.390	-1.600	1.100																			1580013537.0	7.32	13.56
26/01/2020 04:38:58	26012020	260120	043858	53.450	12.553512	-57.453647	53.550	0.110	-0.740	0.500	53.470	-2.000	1.000																			1580013538.0	7.60	14.08
26/01/2020 04:38:59	26012020	260120	043859	53.580	12.553533	-57.453618	53.650	0.320	-0.620	0.390	53.600	-2.100	0.800																			1580013539.0	7.84	14.52
26/01/2020 04:39:00	26012020	260120	043900	53.670	12.553557	-57.453590	53.660	0.350	-0.110	0.430	53.680	-1.800	0.800	1014.90	25.70	25.70	21.00	21.00	-1.00	75.00	75.00	399.00	25.20	6.00	9.30	65.00	5.50	15	3257.00	27.40	27.40	1580013540.0	7.68	14.22
26/01/2020 04:39:01	26012020	260120	043901	53.690	12.553577	-57.453563	53.560	0.250	0.230	0.450	53.680	-1.300	0.800																			1580013541.0	7.19	13.32
26/01/2020 04:39:02	26012020	260120	043902	53.600	12.553597	-57.453537	53.360	0.140	0.020	0.280	53.600	-1.200	0.800																			1580013542.0	6.99	12.95
26/01/2020 04:39:03	26012020	260120	043903	53.400	12.553620	-57.453510	53.210	0.090	-0.400	-0.000	53.360	-1.600	0.500																			1580013543.0	7.48	13.85
26/01/2020 04:39:04	26012020	260120	043904	53.260	12.553647	-57.453483	53.350	-0.010	-0.410	-0.260	53.260	-1.900	0.200																			1580013544.0	8.08	14.96
26/01/2020 04:39:05	26012020	260120	043905	53.400	12.553672	-57.453455	53.740	-0.210	0.060	-0.400	53.470	-1.600	0.000																			1580013545.0	7.99	14.80
26/01/2020 04:39:06	26012020	260120	043906	53.790	12.553693	-57.453428	54.000	-0.490	0.580	-0.270	53.870	-1.000	0.000																			1580013546.0	7.33	13.58
26/01/2020 04:39:07	26012020	260120	043907	54.060	12.553712	-57.453403	54.020	-0.670	0.560	0.120	54.090	-0.700	0.300																			1580013547.0	6.83	12.65
26/01/2020 04:39:08	26012020	260120	043908	54.090	12.553730	-57.453375	53.970	-0.510	-0.150	0.500	54.070	-1.100	0.700																			1580013548.0	6.91	12.80
26/01/2020 04:39:09	26012020	260120	043909	54.020	12.553748	-57.453345	53.910	-0.020	-0.990	0.700	54.010	-2.000	1.000																			1580013549.0	7.55	13.98
26/01/2020 04:39:10	26012020	260120	043910	53.950	12.553770	-57.453313	53.840	0.530	-1.240	0.680	53.940	-2.600	1.100																			1580013550.0	8.17	15.13
26/01/2020 04:39:11	26012020	260120	043911	53.890	12.553793	-57.453283	53.770	0.800	-0.760	0.500	53.880	-2.400	1.000																			1580013551.0	8.12	15.04
26/01/2020 04:39:12	26012020	260120	043912	53.830	12.553817	-57.453257	53.790	0.640	0.050	0.230	53.820	-1.700	0.800																			1580013552.0	7.52	13.93
26/01/2020 04:39:13	26012020	260120	043913	53.830	12.553838	-57.453232	53.860	0.200	0.590	-0.100	53.840	-1.000	0.500																			1580013553.0	6.98	12.93
26/01/2020 04:39:14	26012020	260120	043914	53.920	12.553862	-57.453208	53.920	-0.170	0.510	-0.320	53.940	-0.800	0.200																			1580013554.0	6.85	12.69
26/01/2020 04:39:15	26012020	260120	043915	54.000	12.553883	-57.453183	53.920	-0.280	-0.040	-0.330	54.000	-1.200	0.000																			1580013555.0	7.23	13.39
26/01/2020 04:39:16	26012020	260120	043916	54.010	12.553907	-57.453155	53.930	-0.270	-0.560	-0.150	54.000	-1.800	0.200																			1580013556.0	7.82	14.48
26/01/2020 04:39:17	26012020	260120	043917	54.010	12.553928	-57.453125	54.040	-0.280	-0.610	0.010	54.030	-2.000	0.300																			1580013557.0	8.10	15.00
26/01/2020 04:39:18	26012020	260120	043918	54.120	12.553950	-57.453093	54.200	-0.360	-0.150	0.160	54.160	-1.800	0.500																			1580013558.0	7.83	14.50
26/01/2020 04:39:19	26012020	260120	043919	54.270	12.553968	-57.453065	54.180	-0.400	0.400	0.400	54.280	-1.200	0.700																			1580013559.0	7.23	13.39
26/01/2020 04:39:20	26012020	260120	043920	54.250	12.553987	-57.453040	53.970	-0.240	0.400	0.600	54.220	-0.900	0.900																			1580013560.0	6.76	12.52
26/01/2020 04:39:21	26012020	260120	043921	54.030	12.554005	-57.453013	53.820	0.160	-0.260	0.600	53.990	-1.300	1.000																			1580013561.0	6.89	12.76
26/01/2020 04:39:22	26012020	260120	043922	53.880	12.554027	-57.452985	53.870	0.570	-0.940	0.350	53.870	-2.100	0.900																			1580013562.0	7.63	14.13
26/01/2020 04:39:23	26012020	260120	043923	53.940	12.554052	-57.452955	54.030	0.650	-0.970	-0.050	53.970	-2.400	0.500																			1580013563.0	8.21	15.20
26/01/2020 04:39:24	26012020	260120	043924	54.110	12.554077	-57.452927	54.080	0.360	-0.360	-0.260	54.130	-2.100	0.200																			1580013564.0	7.99	14.80
26/01/2020 04:39:25	26012020	260120	043925	54.160	12.554100	-57.452902	54.030	-0.040	0.280	-0.200	54.160	-1.400	0.200																			1580013565.0	7.27	13.46
26/01/2020 04:39:26	26012020	260120	043926	54.100	12.554120	-57.452877	54.030	-0.220	0.430	-0.080	54.100	-1.000	0.300																			1580013566.0	6.82	12.63
26/01/2020 04:39:27	26012020	260120	043927	54.100	12.554140	-57.452850	54.060	-0.210	0.200	0.080	54.110	-1.100	0.400																			1580013567.0	7.06	13.08
26/01/2020 04:39:28	26012020	260120	043928	54.140	12.554162	-57.452822	54.110	-0.200	-0.040	0.250	54.140	-1.300	0.600																			1580013568.0	7.59	14.06
26/01/2020 04:39:29	26012020	260120	043929	54.160	12.554182	-57.452792	54.160	-0.170	-0.260	0.350	54.170	-1.500	0.700																			1580013569.0	7.70	14.26
26/01/2020 04:39:30	26012020	260120	043930	54.210	12.554202	-57.452763	54.150	-0.000	-0.490	0.430	54.220	-1.800	0.800																			1580013570.0	7.52	13.93
26/01/2020 04:39:31	26012020	260120	043931	54.180	12.554223	-57.452733	54.070	0.220	-0.500	0.530	54.170	-1.900	0.900																			1580013571.0	7.57	14.02
26/01/2020 04:39:32	26012020	260120	043932	54.090	12.554245	-57.452705	54.030	0.300	-0.290	0.510	54.080	-1.800	0.900																			1580013572.0	7.59	14.06
26/01/2020 04:39:33	26012020	260120	043933	54.060	12.554267	-57.452678	54.080	0.170	-0.050	0.240	54.070	-1.500	0.800																			1580013573.0	7.37	13.65
26/01/2020 04:39:34	26012020	260120	043934	54.120	12.554288	-57.452652	54.200	-0.040	0.010	-0.110	54.140	-1.400	0.400																			1580013574.0	7.23	13.39
26/01/2020 04:39:35	26012020	260120	043935	54.250	12.554310	-57.452627	54.370	-0.110	-0.180	-0.320	54.290	-1.500	0.200																			1580013575.0	7.27	13.46
26/01/2020 04:39:36	26012020	260120	043936	54.440	12.554333	-57.452600	54.460	-0.040	-0.320	-0.320	54.470	-1.700	0.100																			1580013576.0	7.52	13.93
26/01/2020 04:39:37	26012020	260120	043937	54.540	12.554357	-57.452572	54.370	-0.020	-0.100	-0.070	54.530	-1.600	0.200																			1580013577.0	7.76	14.37
26/01/2020 04:39:38	26012020	260120	043938	54.430	12.554377	-57.452543	54.210	-0.140	0.200	0.210	54.390	-1.300	0.500																			1580013578.0	7.53	13.95
26/01/2020 04:39:39	26012020	260120	043939	54.260	12.554397	-57.452515	54.150	-0.240	0.130	0.260	54.230	-1.200	0.700																			1580013579.0	7.11	13.17
26/01/2020 04:39:40	26012020	260120	043940	54.200	12.554415	-57.452488	54.240	-0.130	-0.320	0.090	54.210	-1.500	0.600																			1580013580.0	7.13	13.20
26/01/2020 04:39:41	26012020	260120	043941	54.300	12.554437	-57.452460	54.430	0.190	-0.700	-0.090	54.330	-2.000	0.400																			1580013581.0	7.59	14.06
26/01/2020 04:39:42	26012020	260120	043942	54.480	12.554462	-57.452432	54.500	0.480	-0.620	-0.090	54.510	-2.100	0.300																			1580013582.0	7.91	14.65
26/01/2020 04:39:43	26012020	260120	043943	54.560	12.554483	-57.452403	54.370	0.470	-0.170	0.090	54.550	-1.800	0.400																			1580013583.0	7.72	14.30
26/01/2020 04:39:44	26012020	260120	043944	54.430	12.554505	-57.452375	54.290	0.160	0.190	0.110	54.390	-1.300	0.500																			1580013584.0	7.27	13.46
26/01/2020 04:39:45	26012020	260120	043945	54.340	12.554525	-57.452350	54.390	-0.130	0.180	-0.020	54.350	-1.200	0.400																			1580013585.0	7.04	13.04
26/01/2020 04:39:46	26012020	260120	043946	54.450	12.554547	-57.452323	54.480	-0.230	0.020	0.050	54.480	-1.300	0.400																			1580013586.0	7.30	13.52
26/01/2020 04:39:47	26012020	260120	043947	54.550	12.554570	-57.452295	54.490	-0.270	-0.080	0.230	54.560	-1.400	0.500																			1580013587.0	7.60	14.08
26/01/2020 04:39:48	26012020	260120	043948	54.570	12.554590	-57.452267	54.480	-0.300	-0.230	0.350	54.560	-1.500	0.700																			1580013588.0	7.55	13.98
26/01/2020 04:39:49	26012020	260120	043949	54.560	12.554610	-57.452237	54.490	-0.220	-0.470	0.430	54.560	-1.700	0.800																			1580013589.0	7.44	13.78
26/01/2020 04:39:50	26012020	260120	043950	54.550	12.554630	-57.452208	54.470	0.030	-0.560	0.460	54.550	-1.900	0.800																			1580013590.0	7.55	13.98
26/01/2020 04:39:51	26012020	260120	043951	54.530	12.554650	-57.452178	54.360	0.200	-0.260	0.370	54.510	-1.800	0.800																			1580013591.0	7.69	14.24
26/01/2020 04:39:52	26012020	260120	043952	54.420	12.554672	-57.452150	54.240	0.130	0.140	0.110	54.390	-1.400	0.600																			1580013592.0	7.49	13.87
26/01/2020 04:39:53	26012020	260120	043953	54.310	12.554693	-57.452125	54.180	0.040	0.190	-0.260	54.290	-1.200	0.300																			1580013593.0	7.10	13.15
26/01/2020 04:39:54	26012020	260120	043954	54.270	12.554717	-57.452100	54.280	0.130	-0.190	-0.640	54.280	-1.400	-0.100																			1580013594.0	7.18	13.30
26/01/2020 04:39:55	26012020	260120	043955	54.390	12.554742	-57.452075	54.530	0.270	-0.450	-0.810	54.440	-1.800	-0.400																			1580013595.0	7.68	14.22
26/01/2020 04:39:56	26012020	260120	043956	54.640	12.554765	-57.452047	54.660	0.200	-0.310	-0.610	54.670	-1.800	-0.300																			1580013596.0	7.95	14.72
26/01/2020 04:39:57	26012020	260120	043957	54.780	12.554787	-57.452017	54.630	-0.080	0.030	-0.240	54.780	-1.500	-0.000																			1580013597.0	7.60	14.08
26/01/2020 04:39:58	26012020	260120	043958	54.740	12.554807	-57.451990	54.560	-0.290	0.160	0.150	54.720	-1.200	0.400																			1580013598.0	7.15	13.24
26/01/2020 04:39:59	26012020	260120	043959	54.660	12.554825	-57.451963	54.560	-0.190	-0.100	0.520	54.650	-1.300	0.700																			1580013599.0	7.05	13.06
26/01/2020 04:40:00	26012020	260120	044000	54.640	12.554845	-57.451933	54.600	0.060	-0.520	0.770	54.640	-1.700	1.100	1014.80	25.70	25.70	20.90	21.00	-1.00	75.00	75.00	399.00	25.20	9.00	9.80	69.00	6.00	15	3291.00	27.40	27.40	1580013600.0	7.42	13.74
26/01/2020 04:40:01	26012020	260120	044001	54.650	12.554865	-57.451903	54.650	0.180	-0.680	0.760	54.660	-2.000	1.200																			1580013601.0	7.85	14.54
26/01/2020 04:40:02	26012020	260120	044002	54.690	12.554887	-57.451873	54.680	0.070	-0.430	0.650	54.700	-2.000	1.100																			1580013602.0	7.87	14.58
26/01/2020 04:40:03	26012020	260120	044003	54.730	12.554908	-57.451845	54.700	-0.130	0.100	0.490	54.740	-1.600	1.000																			1580013603.0	7.54	13.96
26/01/2020 04:40:04	26012020	260120	044004	54.750	12.554928	-57.451818	54.670	-0.220	0.540	0.190	54.750	-1.000	0.700																			1580013604.0	7.13	13.20
26/01/2020 04:40:05	26012020	260120	044005	54.730	12.554950	-57.451793	54.650	-0.150	0.520	-0.250	54.730	-0.800	0.400																			1580013605.0	6.94	12.85
26/01/2020 04:40:06	26012020	260120	044006	54.740	12.554972	-57.451768	54.640	0.030	-0.070	-0.640	54.740	-1.100	-0.100																			1580013606.0	7.14	13.22
26/01/2020 04:40:07	26012020	260120	044007	54.730	12.554995	-57.451742	54.590	0.240	-0.810	-0.890	54.720	-1.900	-0.400																			1580013607.0	7.66	14.19
26/01/2020 04:40:08	26012020	260120	044008	54.680	12.555022	-57.451713	54.600	0.320	-1.040	-0.900	54.680	-2.400	-0.500																			1580013608.0	8.14	15.08
26/01/2020 04:40:09	26012020	260120	044009	54.690	12.555045	-57.451683	54.690	0.200	-0.600	-0.620	54.710	-2.200	-0.400																			1580013609.0	8.06	14.93
26/01/2020 04:40:10	26012020	260120	044010	54.790	12.555067	-57.451655	54.740	-0.070	0.020	-0.170	54.810	-1.600	0.000																			1580013610.0	7.40	13.70
26/01/2020 04:40:11	26012020	260120	044011	54.840	12.555085	-57.451628	54.660	-0.320	0.460	0.310	54.830	-1.100	0.500																			1580013611.0	6.97	12.91
26/01/2020 04:40:12	26012020	260120	044012	54.760	12.555102	-57.451600	54.630	-0.390	0.490	0.660	54.740	-0.900	0.900																			1580013612.0	6.97	12.91
26/01/2020 04:40:13	26012020	260120	044013	54.710	12.555120	-57.451572	54.710	-0.180	0.020	0.810	54.710	-1.100	1.200																			1580013613.0	7.19	13.32
26/01/2020 04:40:14	26012020	260120	044014	54.790	12.555140	-57.451543	54.750	0.180	-0.640	0.870	54.810	-1.700	1.200																			1580013614.0	7.58	14.04
26/01/2020 04:40:15	26012020	260120	044015	54.810	12.555163	-57.451512	54.600	0.410	-0.830	0.880	54.790	-2.200	1.300																			1580013615.0	8.06	14.93
26/01/2020 04:40:16	26012020	260120	044016	54.670	12.555185	-57.451482	54.500	0.320	-0.430	0.750	54.640	-2.000	1.200																			1580013616.0	8.07	14.95
26/01/2020 04:40:17	26012020	260120	044017	54.570	12.555207	-57.451453	54.520	-0.010	0.190	0.380	54.570	-1.500	1.000																			1580013617.0	7.44	13.78
26/01/2020 04:40:18	26012020	260120	044018	54.600	12.555227	-57.451428	54.560	-0.280	0.500	-0.160	54.610	-1.000	0.500																			1580013618.0	6.91	12.80
26/01/2020 04:40:19	26012020	260120	044019	54.650	12.555248	-57.451405	54.540	-0.270	0.260	-0.590	54.650	-0.900	-0.000																			1580013619.0	6.91	12.80
26/01/2020 04:40:20	26012020	260120	044020	54.660	12.555273	-57.451380	54.510	-0.070	-0.210	-0.780	54.660	-1.100	-0.100																			1580013620.0	7.41	13.72
26/01/2020 04:40:21	26012020	260120	044021	54.650	12.555298	-57.451352	54.500	0.060	-0.520	-0.740	54.640	-1.800	-0.400																			1580013621.0	7.86	14.56
26/01/2020 04:40:22	26012020	260120	044022	54.620	12.555320	-57.451323	54.490	0.030	-0.530	-0.440	54.620	-1.900	-0.200																			1580013622.0	7.82	14.48
26/01/2020 04:40:23	26012020	260120	044023	54.610	12.555342	-57.451295	54.510	-0.050	-0.470	0.030	54.610	-1.900	0.200																			1580013623.0	7.49	13.87
26/01/2020 04:40:24	26012020	260120	044024	54.610	12.555358	-57.451265	54.570	-0.040	-0.530	0.420	54.610	-1.900	0.600																			1580013624.0	7.31	13.54
26/01/2020 04:40:25	26012020	260120	044025	54.660	12.555378	-57.451235	54.660	0.040	-0.390	0.650	54.680	-1.900	0.900																			1580013625.0	7.51	13.91
26/01/2020 04:40:26	26012020	260120	044026	54.730	12.555398	-57.451205	54.670	0.090	0.130	0.870	54.740	-1.500	1.200																			1580013626.0	7.68	14.22
26/01/2020 04:40:27	26012020	260120	044027	54.730	12.555418	-57.451178	54.680	0.090	0.530	0.920	54.730	-1.000	1.300																			1580013627.0	7.31	13.54
26/01/2020 04:40:28	26012020	260120	044028	54.750	12.555437	-57.451152	54.720	0.110	0.330	0.700	54.760	-0.900	1.200																			1580013628.0	6.92	12.82
26/01/2020 04:40:29	26012020	260120	044029	54.790	12.555458	-57.451123	54.660	0.100	-0.190	0.350	54.790	-1.300	0.900																			1580013629.0	7.28	13.48
26/01/2020 04:40:30	26012020	260120	044030	54.730	12.555482	-57.451095	54.610	0.020	-0.520	-0.020	54.720	-1.800	0.600																			1580013630.0	7.88	14.59
26/01/2020 04:40:31	26012020	260120	044031	54.690	12.555507	-57.451068	54.700	-0.130	-0.460	-0.400	54.700	-1.900	0.200																			1580013631.0	7.96	14.74
26/01/2020 04:40:32	26012020	260120	044032	54.790	12.555532	-57.451042	54.900	-0.270	-0.170	-0.590	54.830	-1.700	-0.100																			1580013632.0	7.61	14.09
26/01/2020 04:40:33	26012020	260120	044033	55.010	12.555553	-57.451017	55.080	-0.340	0.040	-0.420	55.050	-1.400	-0.100																			1580013633.0	7.22	13.37
26/01/2020 04:40:34	26012020	260120	044034	55.180	12.555573	-57.450990	55.130	-0.280	-0.080	-0.070	55.200	-1.400	0.200																			1580013634.0	7.05	13.06
26/01/2020 04:40:35	26012020	260120	044035	55.220	12.555592	-57.450960	55.020	-0.080	-0.370	0.260	55.210	-1.600	0.500																			1580013635.0	7.32	13.56
26/01/2020 04:40:36	26012020	260120	044036	55.110	12.555610	-57.450930	54.870	0.160	-0.470	0.480	55.080	-1.800	0.800																			1580013636.0	7.68	14.22
26/01/2020 04:40:37	26012020	260120	044037	54.950	12.555630	-57.450898	54.790	0.310	-0.280	0.520	54.930	-1.800	0.900																			1580013637.0	7.74	14.33
26/01/2020 04:40:38	26012020	260120	044038	54.880	12.555652	-57.450870	54.830	0.330	-0.080	0.260	54.870	-1.500	0.800																			1580013638.0	7.47	13.83
26/01/2020 04:40:39	26012020	260120	044039	54.920	12.555673	-57.450843	54.880	0.290	-0.070	-0.070	54.940	-1.400	0.500																			1580013639.0	7.27	13.46
26/01/2020 04:40:40	26012020	260120	044040	54.990	12.555697	-57.450818	54.850	0.230	-0.160	-0.170	54.990	-1.500	0.300																			1580013640.0	7.47	13.83
26/01/2020 04:40:41	26012020	260120	044041	54.960	12.555720	-57.450792	54.900	0.080	-0.250	-0.140	54.950	-1.600	0.200																			1580013641.0	7.67	14.20
26/01/2020 04:40:42	26012020	260120	044042	54.990	12.555743	-57.450763	55.050	-0.210	-0.130	-0.020	54.990	-1.600	0.300																			1580013642.0	7.72	14.30
26/01/2020 04:40:43	26012020	260120	044043	55.150	12.555765	-57.450735	55.160	-0.610	0.310	0.300	55.170	-1.300	0.500																			1580013643.0	7.62	14.11
26/01/2020 04:40:44	26012020	260120	044044	55.250	12.555783	-57.450707	55.200	-0.890	0.530	0.600	55.260	-0.900	0.900																			1580013644.0	7.16	13.26
26/01/2020 04:40:45	26012020	260120	044045	55.280	12.555800	-57.450678	55.250	-0.700	0.050	0.710	55.290	-1.000	1.100																			1580013645.0	6.84	12.67
26/01/2020 04:40:46	26012020	260120	044046	55.330	12.555817	-57.450648	55.230	-0.050	-0.740	0.730	55.330	-1.800	1.100																			1580013646.0	7.26	13.45
26/01/2020 04:40:47	26012020	260120	044047	55.300	12.555838	-57.450618	55.070	0.620	-1.090	0.610	55.280	-2.400	1.100																			1580013647.0	8.02	14.85
26/01/2020 04:40:48	26012020	260120	044048	55.130	12.555860	-57.450587	54.860	0.880	-0.800	0.270	55.090	-2.400	0.800																			1580013648.0	8.13	15.06
26/01/2020 04:40:49	26012020	260120	044049	54.940	12.555883	-57.450558	54.790	0.670	-0.170	-0.260	54.920	-1.900	0.400																			1580013649.0	7.62	14.11
26/01/2020 04:40:50	26012020	260120	044050	54.880	12.555907	-57.450535	54.820	0.250	0.280	-0.850	54.880	-1.300	-0.200																			1580013650.0	7.15	13.24
26/01/2020 04:40:51	26012020	260120	044051	54.920	12.555930	-57.450512	54.860	-0.080	0.360	-1.140	54.940	-1.000	-0.700																			1580013651.0	7.13	13.20
26/01/2020 04:40:52	26012020	260120	044052	54.980	12.555955	-57.450487	54.870	-0.270	0.170	-0.970	54.980	-1.100	-0.700																			1580013652.0	7.43	13.76
26/01/2020 04:40:53	26012020	260120	044053	55.000	12.555978	-57.450460	54.980	-0.380	-0.100	-0.570	55.010	-1.400	-0.400																			1580013653.0	7.64	14.15
26/01/2020 04:40:54	26012020	260120	044054	55.100	12.555998	-57.450430	55.080	-0.480	-0.200	0.090	55.130	-1.600	0.100																			1580013654.0	7.74	14.33
26/01/2020 04:40:55	26012020	260120	044055	55.180	12.556017	-57.450398	55.000	-0.530	-0.050	0.970	55.180	-1.500	1.000																			1580013655.0	7.69	14.24
26/01/2020 04:40:56	26012020	260120	044056	55.070	12.556032	-57.450367	54.840	-0.410	-0.070	1.600	55.040	-1.400	1.800																			1580013656.0	7.37	13.65
26/01/2020 04:40:57	26012020	260120	044057	54.910	12.556047	-57.450335	54.770	-0.030	-0.460	1.610	54.880	-1.600	2.100																			1580013657.0	7.21	13.35
26/01/2020 04:40:58	26012020	260120	044058	54.830	12.556065	-57.450305	54.750	0.440	-0.770	1.230	54.830	-2.100	1.800																			1580013658.0	7.54	13.96
26/01/2020 04:40:59	26012020	260120	044059	54.810	12.556088	-57.450277	54.710	0.670	-0.550	0.670	54.800	-2.100	1.300																			1580013659.0	7.92	14.67
26/01/2020 04:41:00	26012020	260120	044100	54.780	12.556113	-57.450250	54.670	0.510	0.020	0.010	54.770	-1.600	0.700	1014.80	25.70	25.70	21.10	21.10	-1.00	75.00	75.00	400.00	25.30	10.00	9.30	72.00	5.60	15	3289.00	27.40	27.40	1580013660.0	7.73	14.32
26/01/2020 04:41:01	26012020	260120	044101	54.760	12.556137	-57.450225	54.620	0.150	0.380	-0.530	54.750	-1.100	0.100																			1580013661.0	7.19	13.32
26/01/2020 04:41:02	26012020	260120	044102	54.720	12.556160	-57.450202	54.550	-0.140	0.270	-0.840	54.710	-1.000	-0.300																			1580013662.0	7.03	13.02
26/01/2020 04:41:03	26012020	260120	044103	54.670	12.556183	-57.450177	54.560	-0.220	-0.240	-1.030	54.660	-1.400	-0.600																			1580013663.0	7.33	13.58
26/01/2020 04:41:04	26012020	260120	044104	54.680	12.556207	-57.450150	54.620	-0.120	-0.710	-0.940	54.700	-1.900	-0.600																			1580013664.0	7.79	14.43
26/01/2020 04:41:05	26012020	260120	044105	54.750	12.556230	-57.450120	54.640	-0.030	-0.620	-0.430	54.760	-2.100	-0.300																			1580013665.0	8.07	14.95
26/01/2020 04:41:06	26012020	260120	044106	54.750	12.556250	-57.450088	54.600	-0.120	-0.080	0.240	54.740	-1.700	0.300																			1580013666.0	7.83	14.50
26/01/2020 04:41:07	26012020	260120	044107	54.680	12.556267	-57.450058	54.560	-0.250	0.300	0.760	54.670	-1.200	0.900																			1580013667.0	7.23	13.39
26/01/2020 04:41:08	26012020	260120	044108	54.630	12.556282	-57.450030	54.570	-0.240	0.250	1.000	54.620	-1.100	1.300																			1580013668.0	6.96	12.89
26/01/2020 04:41:09	26012020	260120	044109	54.650	12.556302	-57.450002	54.620	-0.100	0.060	0.960	54.650	-1.200	1.400																			1580013669.0	7.28	13.48
26/01/2020 04:41:10	26012020	260120	044110	54.690	12.556322	-57.449972	54.630	0.070	-0.110	0.840	54.700	-1.400	1.300																			1580013670.0	7.57	14.02
26/01/2020 04:41:11	26012020	260120	044111	54.700	12.556343	-57.449945	54.600	0.200	-0.370	0.680	54.700	-1.600	1.200																			1580013671.0	7.52	13.93
26/01/2020 04:41:12	26012020	260120	044112	54.680	12.556367	-57.449917	54.580	0.290	-0.660	0.370	54.670	-1.900	0.900																			1580013672.0	7.50	13.89
26/01/2020 04:41:13	26012020	260120	044113	54.650	12.556388	-57.449890	54.540	0.310	-0.700	0.080	54.650	-2.100	0.600																			1580013673.0	7.68	14.22
26/01/2020 04:41:14	26012020	260120	044114	54.630	12.556413	-57.449862	54.460	0.180	-0.300	-0.030	54.620	-1.900	0.400																			1580013674.0	7.75	14.35
26/01/2020 04:41:15	26012020	260120	044115	54.550	12.556435	-57.449835	54.300	-0.060	0.130	-0.050	54.520	-1.400	0.400																			1580013675.0	7.40	13.70
26/01/2020 04:41:16	26012020	260120	044116	54.400	12.556455	-57.449808	54.210	-0.240	0.210	-0.190	54.380	-1.200	0.300																			1580013676.0	7.07	13.09
26/01/2020 04:41:17	26012020	260120	044117	54.320	12.556475	-57.449782	54.240	-0.210	-0.030	-0.310	54.320	-1.300	0.100																			1580013677.0	7.23	13.39
26/01/2020 04:41:18	26012020	260120	044118	54.340	12.556498	-57.449753	54.310	-0.030	-0.240	-0.280	54.360	-1.500	0.100																			1580013678.0	7.69	14.24
26/01/2020 04:41:19	26012020	260120	044119	54.430	12.556522	-57.449723	54.420	0.100	-0.270	-0.150	54.450	-1.700	0.200																			1580013679.0	7.83	14.50
26/01/2020 04:41:20	26012020	260120	044120	54.530	12.556542	-57.449695	54.480	0.010	-0.100	0.060	54.550	-1.600	0.400																			1580013680.0	7.67	14.20
26/01/2020 04:41:21	26012020	260120	044121	54.590	12.556562	-57.449665	54.440	-0.270	0.180	0.340	54.590	-1.300	0.600																			1580013681.0	7.44	13.78
26/01/2020 04:41:22	26012020	260120	044122	54.550	12.556580	-57.449637	54.410	-0.420	0.220	0.540	54.540	-1.100	0.900																			1580013682.0	7.15	13.24
26/01/2020 04:41:23	26012020	260120	044123	54.500	12.556598	-57.449610	54.400	-0.190	-0.210	0.540	54.490	-1.400	1.000																			1580013683.0	7.04	13.04
26/01/2020 04:41:24	26012020	260120	044124	54.490	12.556618	-57.449582	54.300	0.300	-0.730	0.510	54.480	-1.900	0.900																			1580013684.0	7.45	13.80
26/01/2020 04:41:25	26012020	260120	044125	54.390	12.556642	-57.449552	54.090	0.640	-0.830	0.500	54.350	-2.200	0.900																			1580013685.0	7.96	14.74
26/01/2020 04:41:26	26012020	260120	044126	54.180	12.556665	-57.449523	54.010	0.530	-0.460	0.410	54.150	-2.100	0.900																			1580013686.0	7.94	14.70
26/01/2020 04:41:27	26012020	260120	044127	54.090	12.556687	-57.449495	54.060	0.140	0.050	0.220	54.090	-1.600	0.700																			1580013687.0	7.49	13.87
26/01/2020 04:41:28	26012020	260120	044128	54.140	12.556710	-57.449470	54.100	-0.180	0.310	0.080	54.160	-1.200	0.500																			1580013688.0	7.13	13.20
26/01/2020 04:41:29	26012020	260120	044129	54.200	12.556730	-57.449445	54.120	-0.270	0.190	0.070	54.200	-1.100	0.500																			1580013689.0	7.13	13.20
26/01/2020 04:41:30	26012020	260120	044130	54.220	12.556752	-57.449417	54.160	-0.250	-0.070	0.110	54.230	-1.400	0.500																			1580013690.0	7.47	13.83
26/01/2020 04:41:31	26012020	260120	044131	54.250	12.556772	-57.449387	54.200	-0.270	-0.160	0.120	54.260	-1.500	0.500																			1580013691.0	7.77	14.39
26/01/2020 04:41:32	26012020	260120	044132	54.300	12.556793	-57.449357	54.230	-0.270	-0.080	0.080	54.310	-1.500	0.500																			1580013692.0	7.66	14.19
26/01/2020 04:41:33	26012020	260120	044133	54.320	12.556813	-57.449328	54.090	-0.180	-0.050	0.150	54.310	-1.400	0.500																			1580013693.0	7.35	13.61
26/01/2020 04:41:34	26012020	260120	044134	54.200	12.556833	-57.449302	53.870	0.020	-0.230	0.210	54.160	-1.500	0.600																			1580013694.0	7.24	13.41
26/01/2020 04:41:35	26012020	260120	044135	53.990	12.556855	-57.449273	53.720	0.220	-0.510	0.150	53.950	-1.800	0.600																			1580013695.0	7.43	13.76
26/01/2020 04:41:36	26012020	260120	044136	53.830	12.556878	-57.449245	53.670	0.350	-0.640	0.070	53.820	-2.000	0.500																			1580013696.0	7.72	14.30
26/01/2020 04:41:37	26012020	260120	044137	53.780	12.556902	-57.449217	53.750	0.340	-0.440	0.050	53.790	-2.000	0.500																			1580013697.0	7.79	14.43
26/01/2020 04:41:38	26012020	260120	044138	53.870	12.556923	-57.449190	53.910	0.180	-0.040	0.120	53.900	-1.600	0.500																			1580013698.0	7.58	14.04
26/01/2020 04:41:39	26012020	260120	044139	54.030	12.556945	-57.449162	53.960	-0.070	0.290	0.320	54.050	-1.200	0.600																			1580013699.0	7.26	13.45
26/01/2020 04:41:40	26012020	260120	044140	54.080	12.556963	-57.449135	53.910	-0.270	0.330	0.530	54.070	-1.000	0.800																			1580013700.0	7.15	13.24
26/01/2020 04:41:41	26012020	260120	044141	54.030	12.556982	-57.449107	53.830	-0.250	-0.010	0.600	54.010	-1.200	1.000																			1580013701.0	7.26	13.45
26/01/2020 04:41:42	26012020	260120	044142	53.940	12.557003	-57.449077	53.760	-0.010	-0.510	0.500	53.920	-1.700	1.000																			1580013702.0	7.58	14.04
26/01/2020 04:41:43	26012020	260120	044143	53.860	12.557025	-57.449047	53.680	0.300	-0.740	0.370	53.840	-2.100	0.800																			1580013703.0	7.95	14.72
26/01/2020 04:41:44	26012020	260120	044144	53.790	12.557050	-57.449018	53.670	0.420	-0.470	0.220	53.780	-2.000	0.700																			1580013704.0	8.00	14.82
26/01/2020 04:41:45	26012020	260120	044145	53.780	12.557073	-57.448992	53.690	0.150	0.160	0.190	53.780	-1.500	0.600																			1580013705.0	7.64	14.15
26/01/2020 04:41:46	26012020	260120	044146	53.800	12.557095	-57.448965	53.720	-0.370	0.650	0.200	53.800	-1.300	0.600																			1580013706.0	7.12	13.19
26/01/2020 04:41:47	26012020	260120	044147	53.830	12.557113	-57.448940	53.790	-0.740	0.460	0.080	53.850	-0.800	0.600																			1580013707.0	6.79	12.58
26/01/2020 04:41:48	26012020	260120	044148	53.930	12.557133	-57.448913	53.830	-0.600	-0.330	0.020	53.940	-1.300	0.400																			1580013708.0	7.06	13.08
26/01/2020 04:41:49	26012020	260120	044149	53.970	12.557157	-57.448883	53.730	-0.090	-0.980	0.190	53.950	-2.100	0.500																			1580013709.0	7.83	14.50
26/01/2020 04:41:50	26012020	260120	044150	53.860	12.557178	-57.448852	53.630	0.370	-0.980	0.330	53.830	-2.500	0.700																			1580013710.0	8.25	15.28
26/01/2020 04:41:51	26012020	260120	044151	53.740	12.557200	-57.448822	53.590	0.520	-0.460	0.280	53.730	-2.100	0.700																			1580013711.0	7.92	14.67
26/01/2020 04:41:52	26012020	260120	044152	53.700	12.557220	-57.448793	53.540	0.410	0.140	0.140	53.700	-1.500	0.600																			1580013712.0	7.30	13.52
26/01/2020 04:41:53	26012020	260120	044153	53.650	12.557240	-57.448768	53.480	0.260	0.390	-0.040	53.640	-1.100	0.500																			1580013713.0	6.98	12.93
26/01/2020 04:41:54	26012020	260120	044154	53.600	12.557263	-57.448743	53.500	0.190	0.250	-0.210	53.610	-1.000	0.300																			1580013714.0	7.12	13.19
26/01/2020 04:41:55	26012020	260120	044155	53.630	12.557287	-57.448717	53.480	0.110	-0.040	-0.160	53.640	-1.300	0.200																			1580013715.0	7.53	13.95
26/01/2020 04:41:56	26012020	260120	044156	53.610	12.557310	-57.448690	53.470	-0.070	-0.310	-0.010	53.600	-1.600	0.300																			1580013716.0	7.79	14.43
26/01/2020 04:41:57	26012020	260120	044157	53.600	12.557332	-57.448660	53.600	-0.250	-0.500	0.090	53.610	-1.800	0.400																			1580013717.0	7.75	14.35
26/01/2020 04:41:58	26012020	260120	044158	53.710	12.557353	-57.448632	53.650	-0.360	-0.380	0.410	53.740	-1.900	0.600																			1580013718.0	7.69	14.24
26/01/2020 04:41:59	26012020	260120	044159	53.770	12.557375	-57.448602	53.560	-0.430	0.030	0.890	53.760	-1.500	1.100																			1580013719.0	7.58	14.04
26/01/2020 04:42:00	26012020	260120	044200	53.650	12.557392	-57.448573	53.450	-0.420	0.180	1.140	53.610	-1.200	1.500	1014.80	25.70	25.70	21.20	21.20	-1.00	76.00	76.00	401.00	25.30	9.00	9.30	70.00	5.50	15	3155.00	27.40	27.40	1580013720.0	7.20	13.33
26/01/2020 04:42:01	26012020	260120	044201	53.520	12.557410	-57.448545	53.430	-0.240	-0.160	1.010	53.510	-1.300	1.500																			1580013721.0	7.06	13.08
26/01/2020 04:42:02	26012020	260120	044202	53.490	12.557430	-57.448517	53.440	0.110	-0.610	0.640	53.500	-1.800	1.200																			1580013722.0	7.49	13.87
26/01/2020 04:42:03	26012020	260120	044203	53.500	12.557453	-57.448487	53.370	0.450	-0.660	0.220	53.500	-2.100	0.800																			1580013723.0	7.97	14.76
26/01/2020 04:42:04	26012020	260120	044204	53.460	12.557478	-57.448458	53.300	0.610	-0.250	-0.110	53.450	-1.900	0.400																			1580013724.0	7.94	14.70
26/01/2020 04:42:05	26012020	260120	044205	53.390	12.557502	-57.448433	53.260	0.480	0.230	-0.410	53.380	-1.400	0.100																			1580013725.0	7.50	13.89
26/01/2020 04:42:06	26012020	260120	044206	53.360	12.557525	-57.448408	53.340	0.170	0.330	-0.750	53.370	-1.000	-0.200																			1580013726.0	7.12	13.19
26/01/2020 04:42:07	26012020	260120	044207	53.460	12.557548	-57.448385	53.480	-0.110	0.050	-0.890	53.490	-1.200	-0.500																			1580013727.0	7.24	13.41
26/01/2020 04:42:08	26012020	260120	044208	53.610	12.557573	-57.448358	53.500	-0.230	-0.250	-0.580	53.630	-1.500	-0.400																			1580013728.0	7.64	14.15
26/01/2020 04:42:09	26012020	260120	044209	53.640	12.557597	-57.448330	53.470	-0.240	-0.360	0.120	53.620	-1.700	0.200																			1580013729.0	7.81	14.46
26/01/2020 04:42:10	26012020	260120	044210	53.580	12.557615	-57.448300	53.490	-0.210	-0.440	0.870	53.580	-1.800	0.900																			1580013730.0	7.64	14.15
26/01/2020 04:42:11	26012020	260120	044211	53.570	12.557633	-57.448268	53.490	-0.240	-0.400	1.400	53.570	-1.800	1.600																			1580013731.0	7.59	14.06
26/01/2020 04:42:12	26012020	260120	044212	53.560	12.557650	-57.448237	53.500	-0.340	-0.120	1.590	53.550	-1.700	1.900																			1580013732.0	7.63	14.13
26/01/2020 04:42:13	26012020	260120	044213	53.540	12.557668	-57.448207	53.520	-0.280	0.090	1.350	53.550	-1.400	1.900																			1580013733.0	7.38	13.67
26/01/2020 04:42:14	26012020	260120	044214	53.570	12.557688	-57.448180	53.580	0.100	-0.140	0.790	53.580	-1.400	1.500																			1580013734.0	7.13	13.20
26/01/2020 04:42:15	26012020	260120	044215	53.620	12.557712	-57.448153	53.520	0.570	-0.460	0.110	53.630	-1.700	0.800																			1580013735.0	7.48	13.85
26/01/2020 04:42:16	26012020	260120	044216	53.600	12.557737	-57.448127	53.390	0.650	-0.350	-0.550	53.580	-1.900	0.200																			1580013736.0	8.04	14.89
26/01/2020 04:42:17	26012020	260120	044217	53.490	12.557763	-57.448100	53.300	0.250	0.070	-1.000	53.470	-1.500	-0.400																			1580013737.0	7.95	14.72
26/01/2020 04:42:18	26012020	260120	044218	53.420	12.557790	-57.448077	53.310	-0.220	0.300	-1.090	53.420	-1.200	-0.700																			1580013738.0	7.38	13.67
26/01/2020 04:42:19	26012020	260120	044219	53.440	12.557813	-57.448053	53.470	-0.440	0.090	-0.940	53.460	-1.200	-0.600																			1580013739.0	7.09	13.13
26/01/2020 04:42:20	26012020	260120	044220	53.590	12.557835	-57.448027	53.740	-0.370	-0.340	-0.570	53.640	-1.500	-0.400																			1580013740.0	7.36	13.63
26/01/2020 04:42:21	26012020	260120	044221	53.850	12.557855	-57.447995	53.910	-0.200	-0.560	0.060	53.890	-1.900	0.200																			1580013741.0	7.79	14.43
26/01/2020 04:42:22	26012020	260120	044222	54.000	12.557873	-57.447963	53.860	-0.060	-0.430	0.700	54.000	-1.900	0.400																			1580013742.0	7.88	14.59
26/01/2020 04:42:23	26012020	260120	044223	53.940	12.557890	-57.447932	53.670	0.070	-0.200	1.160	53.910	-1.700	1.400																			1580013743.0	7.56	14.00
26/01/2020 04:42:24	26012020	260120	044224	53.730	12.557908	-57.447903	53.450	0.240	-0.070	1.340	53.690	-1.500	1.700																			1580013744.0	7.31	13.54
26/01/2020 04:42:25	26012020	260120	044225	53.500	12.557928	-57.447875	53.350	0.380	-0.090	1.130	53.470	-1.500	1.700																			1580013745.0	7.33	13.58
26/01/2020 04:42:26	26012020	260120	044226	53.400	12.557952	-57.447848	53.420	0.390	-0.190	0.610	53.400	-1.500	1.300																			1580013746.0	7.53	13.95
26/01/2020 04:42:27	26012020	260120	044227	53.490	12.557977	-57.447822	53.600	0.220	-0.170	0.020	53.530	-1.600	0.700																			1580013747.0	7.73	14.32
26/01/2020 04:42:28	26012020	260120	044228	53.690	12.558002	-57.447797	53.740	-0.060	-0.030	-0.350	53.730	-1.500	0.200																			1580013748.0	7.72	14.30
26/01/2020 04:42:29	26012020	260120	044229	53.840	12.558027	-57.447770	53.810	-0.370	0.070	-0.470	53.860	-1.400	-0.000																			1580013749.0	7.47	13.83
26/01/2020 04:42:30	26012020	260120	044230	53.920	12.558048	-57.447743	53.800	-0.570	0.000	-0.370	53.920	-1.300	-0.000																			1580013750.0	7.32	13.56
26/01/2020 04:42:31	26012020	260120	044231	53.910	12.558068	-57.447717	53.700	-0.570	-0.150	-0.130	53.900	-1.500	0.200																			1580013751.0	7.38	13.67
26/01/2020 04:42:32	26012020	260120	044232	53.820	12.558088	-57.447687	53.560	-0.380	-0.250	0.150	53.790	-1.600	0.400																			1580013752.0	7.54	13.96
26/01/2020 04:42:33	26012020	260120	044233	53.690	12.558108	-57.447658	53.550	0.000	-0.440	0.350	53.670	-1.700	0.700																			1580013753.0	7.52	13.93
26/01/2020 04:42:34	26012020	260120	044234	53.660	12.558128	-57.447628	53.650	0.530	-0.810	0.330	53.670	-2.000	0.800																			1580013754.0	7.50	13.89
26/01/2020 04:42:35	26012020	260120	044235	53.760	12.558150	-57.447598	53.690	0.890	-0.810	0.210	53.780	-2.300	0.700																			1580013755.0	7.81	14.46
26/01/2020 04:42:36	26012020	260120	044236	53.790	12.558173	-57.447568	53.590	0.760	-0.110	0.070	53.790	-2.200	0.600																			1580013756.0	8.03	14.87
26/01/2020 04:42:37	26012020	260120	044237	53.710	12.558197	-57.447542	53.450	0.240	0.700	-0.010	53.680	-1.000	0.400																			1580013757.0	7.50	13.89
26/01/2020 04:42:38	26012020	260120	044238	53.580	12.558218	-57.447518	53.420	-0.300	0.860	-0.060	53.560	-0.500	0.400																			1580013758.0	6.83	12.65
26/01/2020 04:42:39	26012020	260120	044239	53.550	12.558240	-57.447495	53.510	-0.530	0.240	-0.130	53.560	-0.800	0.300																			1580013759.0	6.89	12.76
26/01/2020 04:42:40	26012020	260120	044240	53.650	12.558263	-57.447468	53.650	-0.450	-0.580	0.000	53.680	-1.600	0.300																			1580013760.0	7.60	14.08
26/01/2020 04:42:41	26012020	260120	044241	53.780	12.558287	-57.447437	53.710	-0.300	-0.920	0.380	53.810	-2.200	0.600																			1580013761.0	8.17	15.13
26/01/2020 04:42:42	26012020	260120	044242	53.840	12.558307	-57.447405	53.640	-0.260	-0.550	0.810	53.830	-2.200	1.000																			1580013762.0	8.10	15.00
26/01/2020 04:42:43	26012020	260120	044243	53.750	12.558325	-57.447375	53.510	-0.230	-0.020	1.090	53.720	-1.600	1.400																			1580013763.0	7.44	13.78
26/01/2020 04:42:44	26012020	260120	044244	53.600	12.558342	-57.447347	53.420	-0.030	0.050	1.000	53.580	-1.300	1.500																			1580013764.0	6.88	12.74
26/01/2020 04:42:45	26012020	260120	044245	53.500	12.558362	-57.447320	53.400	0.270	-0.240	0.550	53.490	-1.500	1.200																			1580013765.0	7.08	13.11
26/01/2020 04:42:46	26012020	260120	044246	53.490	12.558385	-57.447293	53.500	0.420	-0.340	-0.040	53.500	-1.700	0.600																			1580013766.0	7.73	14.32
26/01/2020 04:42:47	26012020	260120	044247	53.600	12.558412	-57.447267	53.630	0.310	-0.100	-0.550	53.640	-1.600	0.100																			1580013767.0	7.94	14.70
26/01/2020 04:42:48	26012020	260120	044248	53.760	12.558435	-57.447242	53.670	0.140	0.050	-0.730	53.790	-1.400	-0.300																			1580013768.0	7.48	13.85
26/01/2020 04:42:49	26012020	260120	044249	53.810	12.558458	-57.447217	53.580	0.070	-0.140	-0.590	53.800	-1.400	-0.300																			1580013769.0	7.19	13.32
26/01/2020 04:42:50	26012020	260120	044250	53.730	12.558480	-57.447188	53.570	0.100	-0.500	-0.380	53.720	-1.700	-0.100																			1580013770.0	7.44	13.78
26/01/2020 04:42:51	26012020	260120	044251	53.710	12.558502	-57.447160	53.680	0.100	-0.570	-0.130	53.720	-2.000	0.200																			1580013771.0	7.85	14.54
26/01/2020 04:42:52	26012020	260120	044252	53.810	12.558525	-57.447130	53.770	-0.050	-0.070	0.230	53.830	-1.700	0.500																			1580013772.0	7.94	14.70
26/01/2020 04:42:53	26012020	260120	044253	53.890	12.558545	-57.447102	53.790	-0.290	0.530	0.580	53.890	-1.100	0.800																			1580013773.0	7.43	13.76
26/01/2020 04:42:54	26012020	260120	044254	53.900	12.558563	-57.447075	53.870	-0.420	0.560	0.760	53.900	-0.700	1.100																			1580013774.0	6.83	12.65
26/01/2020 04:42:55	26012020	260120	044255	53.970	12.558582	-57.447048	54.040	-0.290	-0.060	0.810	53.990	-1.100	1.200																			1580013775.0	6.92	12.82
26/01/2020 04:42:56	26012020	260120	044256	54.110	12.558602	-57.447018	54.110	0.010	-0.750	0.810	54.130	-1.800	1.200																			1580013776.0	7.59	14.06
26/01/2020 04:42:57	26012020	260120	044257	54.180	12.558625	-57.446988	54.080	0.280	-0.960	0.690	54.180	-2.300	1.100																			1580013777.0	8.05	14.91
26/01/2020 04:42:58	26012020	260120	044258	54.140	12.558647	-57.446958	53.930	0.350	-0.610	0.520	54.120	-2.200	1.000																			1580013778.0	7.95	14.72
26/01/2020 04:42:59	26012020	260120	044259	54.000	12.558670	-57.446932	53.810	0.190	-0.050	0.290	53.970	-1.700	0.800																			1580013779.0	7.47	13.83
26/01/2020 04:43:00	26012020	260120	044300	53.880	12.558692	-57.446907	53.890	-0.080	0.290	-0.080	53.880	-1.200	0.500	1014.80	25.70	25.70	21.30	21.30	-1.00	76.00	76.00	401.00	25.30	6.00	9.40	63.00	5.50	15	3281.00	27.40	27.40	1580013780.0	7.09	13.13
26/01/2020 04:43:01	26012020	260120	044301	53.980	12.558713	-57.446882	54.180	-0.240	0.220	-0.530	54.030	-1.100	0.100																			1580013781.0	7.08	13.11
26/01/2020 04:43:02	26012020	260120	044302	54.290	12.558737	-57.446855	54.340	-0.210	-0.030	-0.680	54.340	-1.300	-0.300																			1580013782.0	7.39	13.69
26/01/2020 04:43:03	26012020	260120	044303	54.470	12.558760	-57.446827	54.240	-0.130	-0.130	-0.420	54.470	-1.500	-0.200																			1580013783.0	7.73	14.32
26/01/2020 04:43:04	26012020	260120	044304	54.370	12.558780	-57.446798	54.130	-0.030	-0.210	-0.040	54.340	-1.500	0.200																			1580013784.0	7.67	14.20
26/01/2020 04:43:05	26012020	260120	044305	54.230	12.558800	-57.446768	54.110	0.160	-0.460	0.150	54.220	-1.700	0.500																			1580013785.0	7.45	13.80
26/01/2020 04:43:06	26012020	260120	044306	54.230	12.558820	-57.446738	54.150	0.400	-0.540	0.280	54.240	-1.900	0.600																			1580013786.0	7.55	13.98
26/01/2020 04:43:07	26012020	260120	044307	54.260	12.558842	-57.446710	54.130	0.450	-0.240	0.370	54.260	-1.800	0.700																			1580013787.0	7.73	14.32
26/01/2020 04:43:08	26012020	260120	044308	54.250	12.558863	-57.446682	54.110	0.250	0.070	0.330	54.240	-1.400	0.800																			1580013788.0	7.44	13.78
26/01/2020 04:43:09	26012020	260120	044309	54.230	12.558883	-57.446657	54.140	-0.060	0.110	0.310	54.230	-1.300	0.700																			1580013789.0	7.16	13.26
26/01/2020 04:43:10	26012020	260120	044310	54.260	12.558907	-57.446630	54.120	-0.320	0.010	0.370	54.250	-1.300	0.700																			1580013790.0	7.32	13.56
26/01/2020 04:43:11	26012020	260120	044311	54.230	12.558928	-57.446603	54.110	-0.450	-0.150	0.400	54.220	-1.500	0.800																			1580013791.0	7.55	13.98
26/01/2020 04:43:12	26012020	260120	044312	54.210	12.558950	-57.446575	54.230	-0.420	-0.320	0.460	54.220	-1.600	0.800																			1580013792.0	7.60	14.08
26/01/2020 04:43:13	26012020	260120	044313	54.340	12.558972	-57.446545	54.440	-0.270	-0.380	0.550	54.380	-1.800	0.900																			1580013793.0	7.61	14.09
26/01/2020 04:43:14	26012020	260120	044314	54.550	12.558992	-57.446515	54.470	-0.110	-0.300	0.620	54.580	-1.700	1.000																			1580013794.0	7.57	14.02
26/01/2020 04:43:15	26012020	260120	044315	54.610	12.559010	-57.446485	54.310	0.050	-0.150	0.590	54.590	-1.600	1.000																			1580013795.0	7.51	13.91
26/01/2020 04:43:16	26012020	260120	044316	54.450	12.559028	-57.446457	54.180	0.220	-0.090	0.390	54.410	-1.500	0.900																			1580013796.0	7.38	13.67
26/01/2020 04:43:17	26012020	260120	044317	54.300	12.559050	-57.446428	54.150	0.440	-0.190	-0.040	54.290	-1.500	0.600																			1580013797.0	7.40	13.70
26/01/2020 04:43:18	26012020	260120	044318	54.280	12.559073	-57.446402	54.140	0.540	-0.230	-0.550	54.290	-1.600	0.100																			1580013798.0	7.61	14.09
26/01/2020 04:43:19	26012020	260120	044319	54.270	12.559100	-57.446375	54.070	0.360	-0.080	-0.870	54.260	-1.600	-0.400																			1580013799.0	7.77	14.39
26/01/2020 04:43:20	26012020	260120	044320	54.220	12.559125	-57.446350	54.120	-0.010	0.090	-0.890	54.220	-1.400	-0.500																			1580013800.0	7.62	14.11
26/01/2020 04:43:21	26012020	260120	044321	54.280	12.559148	-57.446325	54.300	-0.330	-0.000	-0.670	54.310	-1.300	-0.400																			1580013801.0	7.32	13.56
26/01/2020 04:43:22	26012020	260120	044322	54.460	12.559170	-57.446298	54.450	-0.410	-0.210	-0.150	54.500	-1.500	-0.000																			1580013802.0	7.37	13.65
26/01/2020 04:43:23	26012020	260120	044323	54.590	12.559190	-57.446268	54.410	-0.310	-0.310	0.630	54.590	-1.700	0.600																			1580013803.0	7.63	14.13
26/01/2020 04:43:24	26012020	260120	044324	54.530	12.559207	-57.446237	54.350	-0.180	-0.340	1.340	54.510	-1.700	1.400																			1580013804.0	7.69	14.24
26/01/2020 04:43:25	26012020	260120	044325	54.430	12.559223	-57.446203	54.360	-0.070	-0.400	1.550	54.420	-1.800	1.900																			1580013805.0	7.60	14.08
26/01/2020 04:43:26	26012020	260120	044326	54.430	12.559240	-57.446173	54.360	0.070	-0.390	1.330	54.430	-1.800	1.900																			1580013806.0	7.56	14.00
26/01/2020 04:43:27	26012020	260120	044327	54.430	12.559262	-57.446143	54.290	0.200	-0.180	0.930	54.420	-1.700	1.500																			1580013807.0	7.61	14.09
26/01/2020 04:43:28	26012020	260120	044328	54.360	12.559285	-57.446117	54.210	0.260	0.060	0.410	54.340	-1.400	1.100																			1580013808.0	7.53	13.95
26/01/2020 04:43:29	26012020	260120	044329	54.290	12.559308	-57.446092	54.180	0.220	0.120	-0.160	54.280	-1.300	0.500																			1580013809.0	7.42	13.74
26/01/2020 04:43:30	26012020	260120	044330	54.280	12.559333	-57.446067	54.200	0.160	-0.060	-0.640	54.280	-1.400	-0.000																			1580013810.0	7.48	13.85
26/01/2020 04:43:31	26012020	260120	044331	54.310	12.559357	-57.446040	54.180	0.060	-0.260	-0.910	54.310	-1.600	-0.400																			1580013811.0	7.67	14.20
26/01/2020 04:43:32	26012020	260120	044332	54.310	12.559382	-57.446012	54.190	-0.210	-0.190	-0.960	54.310	-1.700	-0.600																			1580013812.0	7.84	14.52
26/01/2020 04:43:33	26012020	260120	044333	54.330	12.559403	-57.445983	54.260	-0.520	0.080	-0.750	54.340	-1.400	-0.500																			1580013813.0	7.65	14.17
26/01/2020 04:43:34	26012020	260120	044334	54.390	12.559423	-57.445957	54.330	-0.520	0.090	-0.280	54.410	-1.300	-0.100																			1580013814.0	7.20	13.33
26/01/2020 04:43:35	26012020	260120	044335	54.470	12.559443	-57.445928	54.300	-0.110	-0.290	0.330	54.470	-1.500	0.400																			1580013815.0	7.12	13.19
26/01/2020 04:43:36	26012020	260120	044336	54.410	12.559462	-57.445898	54.140	0.390	-0.730	0.940	54.380	-1.900	1.100																			1580013816.0	7.59	14.06
26/01/2020 04:43:37	26012020	260120	044337	54.220	12.559480	-57.445867	54.020	0.620	-0.820	1.320	54.180	-2.200	1.600																			1580013817.0	8.01	14.83
26/01/2020 04:43:38	26012020	260120	044338	54.100	12.559500	-57.445835	54.060	0.480	-0.410	1.300	54.100	-2.100	1.800																			1580013818.0	7.96	14.74
26/01/2020 04:43:39	26012020	260120	044339	54.140	12.559522	-57.445805	54.150	0.100	0.270	0.970	54.160	-1.400	1.500																			1580013819.0	7.54	13.96
26/01/2020 04:43:40	26012020	260120	044340	54.220	12.559542	-57.445780	54.140	-0.300	0.680	0.550	54.230	-0.900	1.100																			1580013820.0	7.05	13.06
26/01/2020 04:43:41	26012020	260120	044341	54.230	12.559563	-57.445755	54.130	-0.420	0.400	0.140	54.220	-0.800	0.700																			1580013821.0	6.93	12.83
26/01/2020 04:43:42	26012020	260120	044342	54.220	12.559587	-57.445730	54.130	-0.220	-0.320	-0.230	54.230	-1.400	0.300																			1580013822.0	7.35	13.61
26/01/2020 04:43:43	26012020	260120	044343	54.260	12.559612	-57.445702	54.130	0.020	-0.750	-0.450	54.260	-2.000	0.000																			1580013823.0	8.05	14.91
26/01/2020 04:43:44	26012020	260120	044344	54.270	12.559635	-57.445672	54.070	0.010	-0.560	-0.450	54.260	-2.100	-0.100																			1580013824.0	8.22	15.22
26/01/2020 04:43:45	26012020	260120	044345	54.210	12.559657	-57.445642	53.950	-0.190	-0.050	-0.320	54.190	-1.700	0.000																			1580013825.0	7.65	14.17
26/01/2020 04:43:46	26012020	260120	044346	54.090	12.559677	-57.445615	53.880	-0.280	0.250	-0.210	54.060	-1.200	0.200																			1580013826.0	7.02	13.00
26/01/2020 04:43:47	26012020	260120	044347	54.000	12.559695	-57.445590	53.910	-0.060	-0.000	-0.190	54.000	-1.200	0.200																			1580013827.0	6.87	12.72
26/01/2020 04:43:48	26012020	260120	044348	54.040	12.559717	-57.445562	53.900	0.320	-0.500	-0.050	54.050	-1.700	0.300																			1580013828.0	7.32	13.56
26/01/2020 04:43:49	26012020	260120	044349	54.040	12.559738	-57.445532	53.770	0.540	-0.740	0.210	54.020	-2.100	0.500																			1580013829.0	7.95	14.72
26/01/2020 04:43:50	26012020	260120	044350	53.910	12.559762	-57.445502	53.620	0.450	-0.540	0.450	53.870	-2.100	0.700																			1580013830.0	8.04	14.89
26/01/2020 04:43:51	26012020	260120	044351	53.740	12.559783	-57.445473	53.580	0.180	-0.100	0.650	53.710	-1.700	1.000																			1580013831.0	7.68	14.22
26/01/2020 04:43:52	26012020	260120	044352	53.690	12.559803	-57.445445	53.670	-0.140	0.370	0.720	53.700	-1.200	1.100																			1580013832.0	7.32	13.56
26/01/2020 04:43:53	26012020	260120	044353	53.790	12.559823	-57.445418	53.880	-0.410	0.610	0.650	53.830	-0.900	1.100																			1580013833.0	7.14	13.22
26/01/2020 04:43:54	26012020	260120	044354	53.990	12.559843	-57.445392	54.050	-0.530	0.440	0.600	54.030	-0.800	1.000																			1580013834.0	7.08	13.11
26/01/2020 04:43:55	26012020	260120	044355	54.160	12.559863	-57.445363	54.080	-0.470	-0.050	0.550	54.190	-1.200	1.000																			1580013835.0	7.30	13.52
26/01/2020 04:43:56	26012020	260120	044356	54.200	12.559883	-57.445333	53.920	-0.210	-0.640	0.470	54.180	-1.800	0.900																			1580013836.0	7.60	14.08
26/01/2020 04:43:57	26012020	260120	044357	54.030	12.559905	-57.445305	53.680	0.190	-1.030	0.360	53.980	-2.300	0.800																			1580013837.0	7.80	14.45
26/01/2020 04:43:58	26012020	260120	044358	53.780	12.559928	-57.445275	53.480	0.540	-0.910	0.210	53.740	-2.400	0.700																			1580013838.0	7.90	14.63
26/01/2020 04:43:59	26012020	260120	044359	53.580	12.559952	-57.445248	53.420	0.590	-0.360	-0.110	53.550	-2.000	0.500																			1580013839.0	7.73	14.32
26/01/2020 04:44:00	26012020	260120	044400	53.520	12.559975	-57.445222	53.510	0.320	0.130	-0.510	53.530	-1.500	0.100	1014.80	25.60	25.70	21.10	21.20	-1.00	76.00	76.00	403.00	25.30	6.00	9.20	64.00	5.40	15	3279.00	27.50	27.40	1580013840.0	7.30	13.52
26/01/2020 04:44:01	26012020	260120	044401	53.630	12.559998	-57.445198	53.670	-0.050	0.320	-0.700	53.660	-1.100	-0.300																			1580013841.0	7.10	13.15
26/01/2020 04:44:02	26012020	260120	044402	53.810	12.560020	-57.445172	53.830	-0.320	0.230	-0.550	53.840	-1.100	-0.200																			1580013842.0	7.29	13.50
26/01/2020 04:44:03	26012020	260120	044403	53.950	12.560042	-57.445145	53.910	-0.390	-0.070	-0.220	53.980	-1.300	0.000																			1580013843.0	7.54	13.96
26/01/2020 04:44:04	26012020	260120	044404	54.020	12.560063	-57.445115	53.930	-0.290	-0.290	0.200	54.020	-1.600	0.400																			1580013844.0	7.75	14.35
26/01/2020 04:44:05	26012020	260120	044405	54.030	12.560083	-57.445083	53.990	-0.130	-0.230	0.600	54.030	-1.700	0.800																			1580013845.0	7.84	14.52
26/01/2020 04:44:06	26012020	260120	044406	54.090	12.560102	-57.445053	54.060	-0.010	0.000	0.860	54.100	-1.500	1.100																			1580013846.0	7.60	14.08
26/01/2020 04:44:07	26012020	260120	044407	54.140	12.560120	-57.445023	53.980	0.040	0.130	0.970	54.140	-1.300	1.300																			1580013847.0	7.26	13.45
26/01/2020 04:44:08	26012020	260120	044408	54.060	12.560138	-57.444997	53.820	0.130	-0.170	0.900	54.030	-1.400	1.400																			1580013848.0	7.11	13.17
26/01/2020 04:44:09	26012020	260120	044409	53.900	12.560160	-57.444968	53.770	0.270	-0.690	0.500	53.880	-1.900	1.100																			1580013849.0	7.37	13.65
26/01/2020 04:44:10	26012020	260120	044410	53.850	12.560185	-57.444940	53.830	0.340	-0.800	-0.060	53.860	-2.200	0.600																			1580013850.0	7.94	14.70
26/01/2020 04:44:11	26012020	260120	044411	53.930	12.560210	-57.444913	53.800	0.220	-0.290	-0.330	53.940	-2.000	0.100																			1580013851.0	8.06	14.93
26/01/2020 04:44:12	26012020	260120	044412	53.930	12.560235	-57.444888	53.670	-0.020	0.240	-0.290	53.900	-1.400	0.100																			1580013852.0	7.46	13.82
26/01/2020 04:44:13	26012020	260120	044413	53.780	12.560255	-57.444862	53.590	-0.190	0.230	-0.230	53.760	-1.100	0.200																			1580013853.0	6.92	12.82
26/01/2020 04:44:14	26012020	260120	044414	53.710	12.560275	-57.444835	53.700	-0.190	-0.180	-0.240	53.710	-1.400	0.200																			1580013854.0	7.19	13.32
26/01/2020 04:44:15	26012020	260120	044415	53.820	12.560297	-57.444805	53.930	-0.130	-0.390	-0.200	53.860	-1.800	0.200																			1580013855.0	7.81	14.46
26/01/2020 04:44:16	26012020	260120	044416	54.040	12.560318	-57.444775	54.010	-0.130	-0.160	-0.040	54.090	-1.700	0.300																			1580013856.0	7.98	14.78
26/01/2020 04:44:17	26012020	260120	044417	54.130	12.560340	-57.444747	53.810	-0.150	0.230	0.300	54.110	-1.300	0.500																			1580013857.0	7.57	14.02
26/01/2020 04:44:18	26012020	260120	044418	53.910	12.560358	-57.444718	53.590	-0.040	0.230	0.590	53.860	-1.100	0.900																			1580013858.0	7.09	13.13
26/01/2020 04:44:19	26012020	260120	044419	53.690	12.560378	-57.444692	53.570	0.200	-0.300	0.590	53.660	-1.400	1.000																			1580013859.0	7.08	13.11
26/01/2020 04:44:20	26012020	260120	044420	53.670	12.560400	-57.444663	53.640	0.420	-0.830	0.400	53.680	-2.000	0.900																			1580013860.0	7.64	14.15
26/01/2020 04:44:21	26012020	260120	044421	53.740	12.560423	-57.444633	53.680	0.380	-0.780	0.260	53.760	-2.300	0.700																			1580013861.0	8.10	15.00
26/01/2020 04:44:22	26012020	260120	044422	53.780	12.560447	-57.444603	53.640	0.030	-0.120	0.320	53.780	-1.900	0.700																			1580013862.0	7.94	14.70
26/01/2020 04:44:23	26012020	260120	044423	53.730	12.560468	-57.444578	53.510	-0.380	0.540	0.410	53.710	-1.100	0.800																			1580013863.0	7.25	13.43
26/01/2020 04:44:24	26012020	260120	044424	53.610	12.560487	-57.444552	53.410	-0.460	0.520	0.370	53.590	-0.800	0.800																			1580013864.0	6.73	12.46
26/01/2020 04:44:25	26012020	260120	044425	53.500	12.560508	-57.444527	53.400	-0.110	-0.170	0.190	53.490	-1.200	0.700																			1580013865.0	7.02	13.00
26/01/2020 04:44:26	26012020	260120	044426	53.510	12.560530	-57.444497	53.530	0.340	-0.880	-0.050	53.530	-2.000	0.400																			1580013866.0	7.82	14.48
26/01/2020 04:44:27	26012020	260120	044427	53.640	12.560555	-57.444467	53.610	0.470	-0.870	-0.140	53.670	-2.400	0.300																			1580013867.0	8.37	15.50
26/01/2020 04:44:28	26012020	260120	044428	53.730	12.560578	-57.444437	53.540	0.170	-0.090	0.010	53.730	-2.300	0.200																			1580013868.0	8.08	14.96
26/01/2020 04:44:29	26012020	260120	044429	53.650	12.560600	-57.444410	53.420	-0.320	0.690	0.210	53.620	-1.000	0.500																			1580013869.0	7.17	13.28
26/01/2020 04:44:30	26012020	260120	044430	53.540	12.560618	-57.444385	53.470	-0.580	0.680	0.230	53.530	-0.600	0.600																			1580013870.0	6.53	12.09
26/01/2020 04:44:31	26012020	260120	044431	53.580	12.560637	-57.444360	53.530	-0.380	-0.110	0.140	53.600	-1.100	0.600																			1580013871.0	6.81	12.61
26/01/2020 04:44:32	26012020	260120	044432	53.660	12.560660	-57.444332	53.500	0.130	-0.880	0.100	53.660	-2.000	0.500																			1580013872.0	7.73	14.32
26/01/2020 04:44:33	26012020	260120	044433	53.610	12.560683	-57.444300	53.300	0.580	-1.020	0.260	53.580	-2.400	0.600																			1580013873.0	8.32	15.41
26/01/2020 04:44:34	26012020	260120	044434	53.430	12.560707	-57.444270	53.160	0.660	-0.680	0.440	53.380	-2.300	0.800																			1580013874.0	8.03	14.87
26/01/2020 04:44:35	26012020	260120	044435	53.280	12.560728	-57.444243	53.210	0.400	-0.170	0.360	53.270	-1.800	0.800																			1580013875.0	7.46	13.82
26/01/2020 04:44:36	26012020	260120	044436	53.330	12.560750	-57.444217	53.380	-0.010	0.350	0.190	53.360	-1.300	0.600																			1580013876.0	7.19	13.32
26/01/2020 04:44:37	26012020	260120	044437	53.500	12.560772	-57.444192	53.470	-0.470	0.780	0.230	53.530	-0.800	0.600																			1580013877.0	7.16	13.26
26/01/2020 04:44:38	26012020	260120	044438	53.600	12.560792	-57.444165	53.540	-0.730	0.590	0.290	53.610	-0.600	0.700																			1580013878.0	7.02	13.00
26/01/2020 04:44:39	26012020	260120	044439	53.650	12.560812	-57.444138	53.610	-0.530	-0.300	0.290	53.660	-1.200	0.700																			1580013879.0	7.12	13.19
26/01/2020 04:44:40	26012020	260120	044440	53.730	12.560833	-57.444108	53.640	-0.030	-1.030	0.360	53.740	-2.200	0.700																			1580013880.0	7.84	14.52
26/01/2020 04:44:41	26012020	260120	044441	53.730	12.560857	-57.444077	53.540	0.330	-0.900	0.430	53.720	-2.500	0.800																			1580013881.0	8.38	15.52
26/01/2020 04:44:42	26012020	260120	044442	53.640	12.560877	-57.444047	53.440	0.320	-0.220	0.300	53.620	-1.900	0.800																			1580013882.0	7.86	14.56
26/01/2020 04:44:43	26012020	260120	044443	53.540	12.560897	-57.444020	53.350	0.130	0.310	-0.040	53.530	-1.300	0.500																			1580013883.0	6.98	12.93
26/01/2020 04:44:44	26012020	260120	044444	53.470	12.560918	-57.443997	53.290	0.040	0.320	-0.450	53.450	-1.000	0.100																			1580013884.0	6.80	12.59
26/01/2020 04:44:45	26012020	260120	044445	53.430	12.560943	-57.443973	53.370	0.160	-0.160	-0.790	53.440	-1.300	-0.300																			1580013885.0	7.18	13.30
26/01/2020 04:44:46	26012020	260120	044446	53.510	12.560968	-57.443947	53.540	0.260	-0.550	-0.820	53.550	-1.800	-0.500																			1580013886.0	7.78	14.41
26/01/2020 04:44:47	26012020	260120	044447	53.700	12.560993	-57.443918	53.640	0.110	-0.420	-0.440	53.730	-1.900	-0.300																			1580013887.0	8.10	15.00
26/01/2020 04:44:48	26012020	260120	044448	53.790	12.561015	-57.443890	53.610	-0.190	-0.100	0.190	53.790	-1.600	0.300																			1580013888.0	7.66	14.19
26/01/2020 04:44:49	26012020	260120	044449	53.750	12.561033	-57.443860	53.550	-0.330	-0.100	0.760	53.730	-1.400	0.900																			1580013889.0	7.14	13.22
26/01/2020 04:44:50	26012020	260120	044450	53.660	12.561050	-57.443832	53.540	-0.190	-0.320	1.070	53.640	-1.600	1.400																			1580013890.0	7.26	13.45
26/01/2020 04:44:51	26012020	260120	044451	53.630	12.561070	-57.443802	53.600	0.030	-0.260	1.080	53.640	-1.700	1.500																			1580013891.0	7.70	14.26
26/01/2020 04:44:52	26012020	260120	044452	53.700	12.561092	-57.443772	53.690	0.080	0.150	0.950	53.720	-1.400	1.400																			1580013892.0	7.76	14.37
26/01/2020 04:44:53	26012020	260120	044453	53.800	12.561112	-57.443745	53.710	-0.050	0.460	0.790	53.810	-1.000	1.300																			1580013893.0	7.27	13.46
26/01/2020 04:44:54	26012020	260120	044454	53.820	12.561133	-57.443718	53.660	-0.140	0.220	0.480	53.820	-1.000	1.000																			1580013894.0	6.91	12.80
26/01/2020 04:44:55	26012020	260120	044455	53.810	12.561155	-57.443693	53.650	-0.050	-0.440	0.010	53.810	-1.500	0.600																			1580013895.0	7.20	13.33
26/01/2020 04:44:56	26012020	260120	044456	53.810	12.561178	-57.443665	53.680	0.150	-0.940	-0.410	53.810	-2.200	0.200																			1580013896.0	7.82	14.48
26/01/2020 04:44:57	26012020	260120	044457	53.830	12.561205	-57.443638	53.740	0.280	-0.850	-0.660	53.840	-2.400	-0.200																			1580013897.0	8.11	15.02
26/01/2020 04:44:58	26012020	260120	044458	53.900	12.561228	-57.443610	53.820	0.220	-0.250	-0.730	53.920	-1.900	-0.300																			1580013898.0	7.78	14.41
26/01/2020 04:44:59	26012020	260120	044459	53.980	12.561250	-57.443585	53.880	0.000	0.300	-0.600	53.990	-1.300	-0.300																			1580013899.0	7.20	13.33
26/01/2020 04:45:00	26012020	260120	044500	54.030	12.561270	-57.443558	53.890	-0.180	0.400	-0.270	54.030	-1.000	-0.000	1014.80	25.70	25.80	21.40	21.30	-1.00	76.00	76.00	404.00	25.30	10.00	9.10	71.00	5.40	15	3297.00	27.40	27.40	1580013900.0	6.88	12.74
26/01/2020 04:45:01	26012020	260120	044501	54.010	12.561290	-57.443532	53.820	-0.190	0.140	0.220	54.000	-1.100	0.400																			1580013901.0	7.13	13.20
26/01/2020 04:45:02	26012020	260120	044502	53.930	12.561310	-57.443503	53.770	-0.010	-0.300	0.690	53.920	-1.500	0.900																			1580013902.0	7.52	13.93
26/01/2020 04:45:03	26012020	260120	044503	53.880	12.561330	-57.443472	53.860	0.190	-0.680	0.890	53.880	-1.900	1.200																			1580013903.0	7.79	14.43
26/01/2020 04:45:04	26012020	260120	044504	53.970	12.561352	-57.443440	54.020	0.210	-0.670	0.870	53.970	-2.000	1.300																			1580013904.0	7.93	14.69
26/01/2020 04:45:05	26012020	260120	044505	54.120	12.561373	-57.443412	54.100	-0.010	-0.200	0.810	54.150	-1.800	1.200																			1580013905.0	7.77	14.39
26/01/2020 04:45:06	26012020	260120	044506	54.200	12.561393	-57.443383	54.020	-0.260	0.360	0.750	54.190	-1.300	1.200																			1580013906.0	7.31	13.54
26/01/2020 04:45:07	26012020	260120	044507	54.120	12.561413	-57.443358	53.910	-0.290	0.550	0.590	54.100	-0.900	1.100																			1580013907.0	6.93	12.83
26/01/2020 04:45:08	26012020	260120	044508	54.030	12.561433	-57.443333	53.930	-0.090	0.190	0.220	54.010	-1.000	0.800																			1580013908.0	6.99	12.95
26/01/2020 04:45:09	26012020	260120	044509	54.050	12.561457	-57.443305	54.050	0.150	-0.390	-0.270	54.060	-1.500	0.400																			1580013909.0	7.46	13.82
26/01/2020 04:45:10	26012020	260120	044510	54.170	12.561480	-57.443278	54.100	0.230	-0.760	-0.610	54.200	-2.000	-0.100																			1580013910.0	7.89	14.61
26/01/2020 04:45:11	26012020	260120	044511	54.230	12.561505	-57.443250	54.020	0.160	-0.710	-0.670	54.230	-2.200	-0.300																			1580013911.0	7.93	14.69
26/01/2020 04:45:12	26012020	260120	044512	54.170	12.561528	-57.443222	54.000	0.080	-0.450	-0.540	54.150	-2.000	-0.200																			1580013912.0	7.61	14.09
26/01/2020 04:45:13	26012020	260120	044513	54.130	12.561550	-57.443195	54.050	0.050	-0.210	-0.330	54.140	-1.700	-0.000																			1580013913.0	7.32	13.56
26/01/2020 04:45:14	26012020	260120	044514	54.170	12.561570	-57.443168	54.060	-0.010	0.060	-0.040	54.180	-1.500	0.200																			1580013914.0	7.35	13.61
26/01/2020 04:45:15	26012020	260120	044515	54.180	12.561590	-57.443138	54.040	-0.130	0.300	0.330	54.180	-1.200	0.500																			1580013915.0	7.41	13.72
26/01/2020 04:45:16	26012020	260120	044516	54.160	12.561610	-57.443110	54.060	-0.270	0.330	0.660	54.160	-1.000	0.900																			1580013916.0	7.34	13.59
26/01/2020 04:45:17	26012020	260120	044517	54.160	12.561628	-57.443082	54.140	-0.280	0.040	0.790	54.170	-1.200	1.200																			1580013917.0	7.30	13.52
26/01/2020 04:45:18	26012020	260120	044518	54.250	12.561648	-57.443053	54.270	-0.120	-0.390	0.730	54.280	-1.600	1.200																			1580013918.0	7.49	13.87
26/01/2020 04:45:19	26012020	260120	044519	54.380	12.561670	-57.443023	54.380	0.100	-0.630	0.610	54.400	-2.000	1.100																			1580013919.0	7.75	14.35
26/01/2020 04:45:20	26012020	260120	044520	54.480	12.561692	-57.442993	54.360	0.230	-0.480	0.490	54.490	-2.000	0.900																			1580013920.0	7.82	14.48
26/01/2020 04:45:21	26012020	260120	044521	54.450	12.561713	-57.442965	54.190	0.170	-0.090	0.390	54.430	-1.700	0.800																			1580013921.0	7.58	14.04
26/01/2020 04:45:22	26012020	260120	044522	54.280	12.561735	-57.442938	54.040	0.030	0.120	0.130	54.250	-1.300	0.700																			1580013922.0	7.20	13.33
26/01/2020 04:45:23	26012020	260120	044523	54.140	12.561757	-57.442913	54.040	0.010	-0.080	-0.320	54.130	-1.300	0.300																			1580013923.0	7.11	13.17
26/01/2020 04:45:24	26012020	260120	044524	54.160	12.561780	-57.442887	54.070	0.130	-0.380	-0.650	54.170	-1.700	-0.100																			1580013924.0	7.49	13.87
26/01/2020 04:45:25	26012020	260120	044525	54.200	12.561805	-57.442860	54.080	0.160	-0.410	-0.660	54.200	-1.800	-0.300																			1580013925.0	7.89	14.61
26/01/2020 04:45:26	26012020	260120	044526	54.210	12.561828	-57.442832	54.200	-0.000	-0.170	-0.410	54.220	-1.700	-0.200																			1580013926.0	7.83	14.50
26/01/2020 04:45:27	26012020	260120	044527	54.310	12.561850	-57.442803	54.410	-0.230	0.020	-0.070	54.340	-1.400	0.200																			1580013927.0	7.42	13.74
26/01/2020 04:45:28	26012020	260120	044528	54.510	12.561868	-57.442775	54.560	-0.330	0.020	0.350	54.560	-1.400	0.500																			1580013928.0	7.23	13.39
26/01/2020 04:45:29	26012020	260120	044529	54.660	12.561887	-57.442745	54.530	-0.280	-0.040	0.810	54.670	-1.400	1.000																			1580013929.0	7.41	13.72
26/01/2020 04:45:30	26012020	260120	044530	54.610	12.561903	-57.442715	54.320	-0.150	-0.120	1.100	54.570	-1.500	1.400																			1580013930.0	7.56	14.00
26/01/2020 04:45:31	26012020	260120	044531	54.390	12.561922	-57.442683	54.160	0.030	-0.220	1.000	54.350	-1.600	1.500																			1580013931.0	7.55	13.98
26/01/2020 04:45:32	26012020	260120	044532	54.240	12.561943	-57.442655	54.160	0.260	-0.330	0.540	54.230	-1.700	1.200																			1580013932.0	7.54	13.96
26/01/2020 04:45:33	26012020	260120	044533	54.250	12.561968	-57.442628	54.200	0.470	-0.350	0.050	54.260	-1.800	0.700																			1580013933.0	7.63	14.13
26/01/2020 04:45:34	26012020	260120	044534	54.290	12.561993	-57.442603	54.130	0.470	-0.250	-0.180	54.290	-1.700	0.300																			1580013934.0	7.68	14.22
26/01/2020 04:45:35	26012020	260120	044535	54.250	12.562017	-57.442577	54.050	0.190	-0.150	-0.240	54.220	-1.600	0.200																			1580013935.0	7.58	14.04
26/01/2020 04:45:36	26012020	260120	044536	54.160	12.562038	-57.442550	54.140	-0.190	-0.120	-0.370	54.160	-1.500	0.100																			1580013936.0	7.44	13.78
26/01/2020 04:45:37	26012020	260120	044537	54.250	12.562060	-57.442522	54.370	-0.440	-0.060	-0.450	54.290	-1.500	-0.000																			1580013937.0	7.47	13.83
26/01/2020 04:45:38	26012020	260120	044538	54.490	12.562082	-57.442495	54.450	-0.480	0.010	-0.260	54.520	-1.400	0.000																			1580013938.0	7.51	13.91
26/01/2020 04:45:39	26012020	260120	044539	54.570	12.562102	-57.442465	54.300	-0.310	-0.010	0.180	54.560	-1.400	0.300																			1580013939.0	7.42	13.74
26/01/2020 04:45:40	26012020	260120	044540	54.410	12.562120	-57.442437	54.070	0.000	-0.220	0.720	54.360	-1.500	0.900																			1580013940.0	7.44	13.78
26/01/2020 04:45:41	26012020	260120	044541	54.170	12.562138	-57.442405	53.920	0.320	-0.510	1.020	54.140	-1.800	1.300																			1580013941.0	7.60	14.08
26/01/2020 04:45:42	26012020	260120	044542	54.040	12.562158	-57.442373	53.860	0.410	-0.510	0.850	54.040	-1.900	1.400																			1580013942.0	7.83	14.50
26/01/2020 04:45:43	26012020	260120	044543	53.980	12.562180	-57.442345	53.860	0.230	-0.150	0.350	53.980	-1.700	1.000																			1580013943.0	7.80	14.45
26/01/2020 04:45:44	26012020	260120	044544	53.990	12.562203	-57.442318	53.930	-0.020	0.210	-0.020	54.000	-1.300	0.500																			1580013944.0	7.44	13.78
26/01/2020 04:45:45	26012020	260120	044545	54.050	12.562228	-57.442295	54.000	-0.110	0.170	-0.190	54.070	-1.200	0.300																			1580013945.0	7.18	13.30
26/01/2020 04:45:46	26012020	260120	044546	54.120	12.562250	-57.442270	53.950	-0.080	-0.130	-0.150	54.130	-1.400	0.200																			1580013946.0	7.30	13.52
26/01/2020 04:45:47	26012020	260120	044547	54.080	12.562273	-57.442240	53.780	-0.140	-0.300	0.070	54.050	-1.600	0.300																			1580013947.0	7.74	14.33
26/01/2020 04:45:48	26012020	260120	044548	53.900	12.562293	-57.442210	53.700	-0.240	-0.330	0.260	53.870	-1.700	0.600																			1580013948.0	7.80	14.45
26/01/2020 04:45:49	26012020	260120	044549	53.820	12.562313	-57.442182	53.840	-0.150	-0.420	0.280	53.830	-1.800	0.700																			1580013949.0	7.53	13.95
26/01/2020 04:45:50	26012020	260120	044550	53.950	12.562335	-57.442153	54.020	0.160	-0.460	0.290	53.990	-1.900	0.700																			1580013950.0	7.49	13.87
26/01/2020 04:45:51	26012020	260120	044551	54.120	12.562357	-57.442123	53.980	0.380	-0.230	0.450	54.140	-1.800	0.700																			1580013951.0	7.69	14.24
26/01/2020 04:45:52	26012020	260120	044552	54.090	12.562377	-57.442095	53.760	0.290	0.100	0.680	54.060	-1.500	1.000																			1580013952.0	7.58	14.04
26/01/2020 04:45:53	26012020	260120	044553	53.870	12.562397	-57.442067	53.580	-0.040	0.250	0.690	53.820	-1.200	1.100																			1580013953.0	7.33	13.58
26/01/2020 04:45:54	26012020	260120	044554	53.690	12.562418	-57.442040	53.660	-0.320	0.110	0.340	53.690	-1.200	0.900																			1580013954.0	7.26	13.45
26/01/2020 04:45:55	26012020	260120	044555	53.780	12.562440	-57.442013	53.880	-0.300	-0.190	-0.150	53.830	-1.500	0.500																			1580013955.0	7.45	13.80
26/01/2020 04:45:56	26012020	260120	044556	54.020	12.562465	-57.441987	54.030	-0.030	-0.450	-0.380	54.060	-1.800	0.100																			1580013956.0	7.69	14.24
26/01/2020 04:45:57	26012020	260120	044557	54.160	12.562488	-57.441958	54.000	0.220	-0.440	-0.240	54.160	-1.900	0.100																			1580013957.0	7.82	14.48
26/01/2020 04:45:58	26012020	260120	044558	54.110	12.562512	-57.441930	53.900	0.170	-0.180	0.090	54.090	-1.700	0.300																			1580013958.0	7.70	14.26
26/01/2020 04:45:59	26012020	260120	044559	54.010	12.562532	-57.441902	53.830	-0.120	0.070	0.440	53.990	-1.400	0.700																			1580013959.0	7.40	13.70
26/01/2020 04:46:00	26012020	260120	044600	53.940	12.562550	-57.441873	53.840	-0.300	-0.040	0.550	53.930	-1.300	0.900	1014.80	25.70	25.80	21.40	21.40	-1.00	77.00	76.00	404.00	25.30	9.00	9.00	69.00	5.20	15	3294.00	27.40	27.40	1580013960.0	7.15	13.24
26/01/2020 04:46:01	26012020	260120	044601	53.940	12.562570	-57.441845	53.880	-0.120	-0.460	0.430	53.950	-1.700	0.900																			1580013961.0	7.27	13.46
26/01/2020 04:46:02	26012020	260120	044602	54.000	12.562592	-57.441817	53.950	0.250	-0.680	0.300	54.010	-2.000	0.700																			1580013962.0	7.77	14.39
26/01/2020 04:46:03	26012020	260120	044603	54.060	12.562615	-57.441787	54.000	0.420	-0.390	0.290	54.080	-2.000	0.700																			1580013963.0	8.05	14.91
26/01/2020 04:46:04	26012020	260120	044604	54.100	12.562637	-57.441758	53.950	0.220	0.130	0.260	54.090	-1.500	0.700																			1580013964.0	7.70	14.26
26/01/2020 04:46:05	26012020	260120	044605	54.060	12.562658	-57.441732	53.880	-0.130	0.440	0.110	54.040	-1.100	0.600																			1580013965.0	7.18	13.30
26/01/2020 04:46:06	26012020	260120	044606	53.980	12.562678	-57.441705	53.810	-0.310	0.340	-0.010	53.970	-1.000	0.400																			1580013966.0	7.08	13.11
26/01/2020 04:46:07	26012020	260120	044607	53.920	12.562702	-57.441678	53.790	-0.210	-0.090	-0.060	53.920	-1.300	0.400																			1580013967.0	7.35	13.61
26/01/2020 04:46:08	26012020	260120	044608	53.900	12.562723	-57.441652	53.850	0.050	-0.620	-0.110	53.900	-1.800	0.300																			1580013968.0	7.71	14.28
26/01/2020 04:46:09	26012020	260120	044609	53.970	12.562747	-57.441622	53.990	0.200	-0.790	-0.180	54.000	-2.200	0.200																			1580013969.0	7.99	14.80
26/01/2020 04:46:10	26012020	260120	044610	54.120	12.562770	-57.441592	54.070	0.080	-0.390	-0.030	54.120	-2.200	0.200																			1580013970.0	7.97	14.76
26/01/2020 04:46:11	26012020	260120	044611	54.180	12.562790	-57.441563	53.970	-0.210	0.240	0.360	54.180	-1.400	0.500																			1580013971.0	7.47	13.83
26/01/2020 04:46:12	26012020	260120	044612	54.080	12.562808	-57.441535	53.740	-0.400	0.530	0.720	54.040	-0.900	1.000																			1580013972.0	6.92	12.82
26/01/2020 04:46:13	26012020	260120	044613	53.840	12.562827	-57.441508	53.620	-0.280	0.150	0.720	53.800	-1.000	1.200																			1580013973.0	6.89	12.76
26/01/2020 04:46:14	26012020	260120	044614	53.730	12.562847	-57.441480	53.710	0.120	-0.640	0.340	53.730	-1.700	0.900																			1580013974.0	7.40	13.70
26/01/2020 04:46:15	26012020	260120	044615	53.840	12.562872	-57.441452	53.840	0.510	-1.080	0.050	53.870	-2.400	0.500																			1580013975.0	8.10	15.00
26/01/2020 04:46:16	26012020	260120	044616	53.980	12.562897	-57.441422	53.900	0.530	-0.630	0.060	54.000	-2.300	0.400																			1580013976.0	8.38	15.52
26/01/2020 04:46:17	26012020	260120	044617	54.020	12.562920	-57.441393	53.910	0.150	0.240	0.200	54.020	-1.600	0.500																			1580013977.0	7.76	14.37
26/01/2020 04:46:18	26012020	260120	044618	54.010	12.562938	-57.441368	53.980	-0.270	0.620	0.260	54.020	-0.900	0.600																			1580013978.0	6.85	12.69
26/01/2020 04:46:19	26012020	260120	044619	54.090	12.562957	-57.441342	54.040	-0.340	0.270	0.190	54.110	-0.900	0.600																			1580013979.0	6.73	12.46
26/01/2020 04:46:20	26012020	260120	044620	54.170	12.562978	-57.441313	53.930	-0.090	-0.300	0.130	54.170	-1.500	0.500																			1580013980.0	7.42	13.74
26/01/2020 04:46:21	26012020	260120	044621	54.070	12.563002	-57.441283	53.700	0.180	-0.560	0.180	54.030	-1.900	0.500																			1580013981.0	8.04	14.89
26/01/2020 04:46:22	26012020	260120	044622	53.850	12.563025	-57.441253	53.610	0.260	-0.530	0.220	53.820	-2.000	0.600																			1580013982.0	8.01	14.83
26/01/2020 04:46:23	26012020	260120	044623	53.760	12.563047	-57.441227	53.710	0.170	-0.360	0.160	53.770	-1.900	0.600																			1580013983.0	7.62	14.11
26/01/2020 04:46:24	26012020	260120	044624	53.860	12.563068	-57.441198	53.860	-0.070	0.000	0.090	53.880	-1.600	0.500																			1580013984.0	7.45	13.80
26/01/2020 04:46:25	26012020	260120	044625	54.000	12.563090	-57.441172	54.010	-0.360	0.430	0.130	54.040	-1.200	0.500																			1580013985.0	7.34	13.59
26/01/2020 04:46:26	26012020	260120	044626	54.150	12.563110	-57.441145	54.070	-0.520	0.470	0.320	54.170	-0.900	0.600																			1580013986.0	7.06	13.08
26/01/2020 04:46:27	26012020	260120	044627	54.210	12.563128	-57.441117	54.030	-0.360	-0.030	0.420	54.210	-1.200	0.800																			1580013987.0	7.07	13.09
26/01/2020 04:46:28	26012020	260120	044628	54.160	12.563148	-57.441088	53.980	0.070	-0.720	0.390	54.150	-1.800	0.800																			1580013988.0	7.53	13.95
26/01/2020 04:46:29	26012020	260120	044629	54.100	12.563170	-57.441058	53.880	0.500	-1.100	0.390	54.090	-2.400	0.800																			1580013989.0	8.01	14.83
26/01/2020 04:46:30	26012020	260120	044630	54.000	12.563193	-57.441027	53.780	0.580	-0.830	0.250	53.990	-2.400	0.700																			1580013990.0	8.12	15.04
26/01/2020 04:46:31	26012020	260120	044631	53.920	12.563217	-57.440998	53.790	0.340	-0.110	-0.000	53.920	-1.900	0.500																			1580013991.0	7.72	14.30
26/01/2020 04:46:32	26012020	260120	044632	53.920	12.563238	-57.440973	53.840	0.000	0.500	-0.130	53.930	-1.100	0.300																			1580013992.0	7.16	13.26
26/01/2020 04:46:33	26012020	260120	044633	53.960	12.563260	-57.440950	53.880	-0.190	0.590	-0.080	53.970	-0.800	0.300																			1580013993.0	6.93	12.83
26/01/2020 04:46:34	26012020	260120	044634	54.000	12.563282	-57.440923	53.860	-0.170	0.150	0.030	54.000	-1.000	0.400																			1580013994.0	7.16	13.26
26/01/2020 04:46:35	26012020	260120	044635	53.980	12.563302	-57.440893	53.780	-0.090	-0.370	0.220	53.970	-1.600	0.500																			1580013995.0	7.69	14.24
26/01/2020 04:46:36	26012020	260120	044636	53.900	12.563323	-57.440863	53.690	-0.160	-0.490	0.480	53.880	-1.900	0.800																			1580013996.0	8.08	14.96
26/01/2020 04:46:37	26012020	260120	044637	53.820	12.563345	-57.440832	53.740	-0.270	-0.340	0.550	53.810	-1.800	0.900																			1580013997.0	7.83	14.50
26/01/2020 04:46:38	26012020	260120	044638	53.870	12.563363	-57.440803	53.900	-0.210	-0.180	0.360	53.890	-1.700	0.900																			1580013998.0	7.36	13.63
26/01/2020 04:46:39	26012020	260120	044639	54.010	12.563385	-57.440777	53.930	0.050	-0.030	0.230	54.040	-1.500	0.600																			1580013999.0	7.26	13.45
26/01/2020 04:46:40	26012020	260120	044640	54.030	12.563407	-57.440750	53.760	0.360	-0.030	0.310	54.010	-1.400	0.600																			1580014000.0	7.32	13.56
26/01/2020 04:46:41	26012020	260120	044641	53.870	12.563428	-57.440722	53.600	0.480	-0.260	0.330	53.830	-1.500	0.700																			1580014001.0	7.37	13.65
26/01/2020 04:46:42	26012020	260120	044642	53.710	12.563450	-57.440693	53.560	0.310	-0.510	0.170	53.690	-1.800	0.700																			1580014002.0	7.62	14.11
26/01/2020 04:46:43	26012020	260120	044643	53.660	12.563473	-57.440665	53.550	0.000	-0.530	0.010	53.670	-2.000	0.500																			1580014003.0	7.81	14.46
26/01/2020 04:46:44	26012020	260120	044644	53.680	12.563497	-57.440638	53.590	-0.190	-0.270	0.030	53.680	-1.800	0.400																			1580014004.0	7.74	14.33
26/01/2020 04:46:45	26012020	260120	044645	53.720	12.563520	-57.440612	53.690	-0.260	0.080	0.180	53.730	-1.500	0.500																			1580014005.0	7.51	13.91
26/01/2020 04:46:46	26012020	260120	044646	53.820	12.563540	-57.440583	53.830	-0.320	0.300	0.360	53.850	-1.200	0.700																			1580014006.0	7.31	13.54
26/01/2020 04:46:47	26012020	260120	044647	53.940	12.563558	-57.440555	53.840	-0.350	0.280	0.550	53.950	-1.100	0.900																			1580014007.0	7.28	13.48
26/01/2020 04:46:48	26012020	260120	044648	53.950	12.563577	-57.440525	53.740	-0.200	0.060	0.580	53.940	-1.200	1.000																			1580014008.0	7.41	13.72
26/01/2020 04:46:49	26012020	260120	044649	53.860	12.563597	-57.440495	53.640	0.150	-0.310	0.380	53.840	-1.500	0.900																			1580014009.0	7.52	13.93
26/01/2020 04:46:50	26012020	260120	044650	53.770	12.563618	-57.440467	53.550	0.470	-0.660	0.110	53.750	-1.900	0.600																			1580014010.0	7.67	14.20
26/01/2020 04:46:51	26012020	260120	044651	53.680	12.563643	-57.440438	53.540	0.510	-0.700	-0.250	53.670	-2.100	0.300																			1580014011.0	7.88	14.59
26/01/2020 04:46:52	26012020	260120	044652	53.660	12.563668	-57.440413	53.640	0.350	-0.430	-0.470	53.680	-2.000	-0.000																			1580014012.0	7.82	14.48
26/01/2020 04:46:53	26012020	260120	044653	53.770	12.563693	-57.440388	53.790	0.100	-0.020	-0.370	53.810	-1.600	-0.100																			1580014013.0	7.52	13.93
26/01/2020 04:46:54	26012020	260120	044654	53.920	12.563715	-57.440362	53.850	-0.200	0.300	0.030	53.940	-1.200	0.200																			1580014014.0	7.28	13.48
26/01/2020 04:46:55	26012020	260120	044655	53.970	12.563735	-57.440333	53.870	-0.440	0.200	0.510	53.980	-1.100	0.700																			1580014015.0	7.17	13.28
26/01/2020 04:46:56	26012020	260120	044656	53.980	12.563752	-57.440303	53.830	-0.470	-0.180	0.890	53.980	-1.400	1.100																			1580014016.0	7.39	13.69
26/01/2020 04:46:57	26012020	260120	044657	53.940	12.563770	-57.440272	53.760	-0.280	-0.420	1.030	53.920	-1.700	1.400																			1580014017.0	7.82	14.48
26/01/2020 04:46:58	26012020	260120	044658	53.850	12.563790	-57.440240	53.720	0.020	-0.390	0.950	53.840	-1.800	1.400																			1580014018.0	7.90	14.63
26/01/2020 04:46:59	26012020	260120	044659	53.820	12.563812	-57.440212	53.780	0.260	-0.200	0.670	53.830	-1.700	1.200																			1580014019.0	7.65	14.17
26/01/2020 04:47:00	26012020	260120	044700	53.880	12.563833	-57.440185	53.740	0.350	0.000	0.300	53.890	-1.500	0.900	1014.80	25.70	25.70	21.40	21.40	-1.00	77.00	76.00	405.00	25.30	7.00	8.90	65.00	5.10	15	3279.00	27.40	27.40	1580014020.0	7.41	13.72
26/01/2020 04:47:01	26012020	260120	044701	53.870	12.563857	-57.440158	53.590	0.270	0.030	-0.090	53.840	-1.400	0.500																			1580014021.0	7.32	13.56
26/01/2020 04:47:02	26012020	260120	044702	53.710	12.563880	-57.440133	53.530	0.110	-0.190	-0.450	53.690	-1.500	0.100																			1580014022.0	7.42	13.74
26/01/2020 04:47:03	26012020	260120	044703	53.650	12.563905	-57.440107	53.620	-0.070	-0.450	-0.660	53.660	-1.800	-0.200																			1580014023.0	7.64	14.15
26/01/2020 04:47:04	26012020	260120	044704	53.750	12.563928	-57.440078	53.720	-0.220	-0.420	-0.650	53.770	-1.900	-0.300																			1580014024.0	7.85	14.54
26/01/2020 04:47:05	26012020	260120	044705	53.860	12.563952	-57.440050	53.740	-0.340	-0.050	-0.410	53.870	-1.700	-0.200																			1580014025.0	7.75	14.35
26/01/2020 04:47:06	26012020	260120	044706	53.870	12.563972	-57.440023	53.730	-0.350	0.280	0.140	53.870	-1.200	0.300																			1580014026.0	7.35	13.61
26/01/2020 04:47:07	26012020	260120	044707	53.860	12.563990	-57.439995	53.750	-0.180	0.100	0.800	53.870	-1.200	0.900																			1580014027.0	7.07	13.09
26/01/2020 04:47:08	26012020	260120	044708	53.860	12.564007	-57.439963	53.680	0.120	-0.460	1.160	53.850	-1.600	1.400																			1580014028.0	7.35	13.61
26/01/2020 04:47:09	26012020	260120	044709	53.790	12.564025	-57.439932	53.530	0.390	-0.790	1.140	53.770	-2.100	1.600																			1580014029.0	7.94	14.70
26/01/2020 04:47:10	26012020	260120	044710	53.650	12.564048	-57.439900	53.400	0.490	-0.540	0.910	53.620	-2.100	1.400																			1580014030.0	8.14	15.08
26/01/2020 04:47:11	26012020	260120	044711	53.520	12.564072	-57.439873	53.410	0.400	-0.070	0.530	53.510	-1.700	1.100																			1580014031.0	7.74	14.33
26/01/2020 04:47:12	26012020	260120	044712	53.550	12.564095	-57.439848	53.530	0.180	0.250	0.130	53.570	-1.300	0.700																			1580014032.0	7.28	13.48
26/01/2020 04:47:13	26012020	260120	044713	53.660	12.564118	-57.439823	53.610	-0.170	0.390	-0.080	53.690	-1.100	0.400																			1580014033.0	7.27	13.46
26/01/2020 04:47:14	26012020	260120	044714	53.730	12.564140	-57.439797	53.600	-0.590	0.370	-0.120	53.730	-1.000	0.300																			1580014034.0	7.40	13.70
26/01/2020 04:47:15	26012020	260120	044715	53.710	12.564162	-57.439770	53.610	-0.840	0.140	-0.110	53.710	-1.100	0.300																			1580014035.0	7.40	13.70
26/01/2020 04:47:16	26012020	260120	044716	53.720	12.564183	-57.439742	53.680	-0.680	-0.310	-0.140	53.730	-1.500	0.300																			1580014036.0	7.39	13.69
26/01/2020 04:47:17	26012020	260120	044717	53.790	12.564203	-57.439712	53.700	-0.150	-0.880	-0.070	53.800	-2.000	0.300																			1580014037.0	7.55	13.98
26/01/2020 04:47:18	26012020	260120	044718	53.810	12.564225	-57.439682	53.540	0.440	-1.180	0.170	53.790	-2.500	0.400																			1580014038.0	7.85	14.54
26/01/2020 04:47:19	26012020	260120	044719	53.640	12.564247	-57.439652	53.270	0.730	-0.860	0.390	53.590	-2.500	0.700																			1580014039.0	8.05	14.91
26/01/2020 04:47:20	26012020	260120	044720	53.380	12.564268	-57.439622	53.170	0.610	-0.050	0.440	53.340	-1.900	0.800																			1580014040.0	7.78	14.41
26/01/2020 04:47:21	26012020	260120	044721	53.280	12.564288	-57.439595	53.310	0.280	0.600	0.280	53.290	-1.100	0.800																			1580014041.0	7.16	13.26
26/01/2020 04:47:22	26012020	260120	044722	53.400	12.564310	-57.439570	53.430	-0.030	0.730	0.100	53.400	-0.900	0.700																			1580014042.0	6.89	12.76
26/01/2020 04:47:23	26012020	260120	044723	53.510	12.564332	-57.439545	53.480	-0.200	0.380	0.010	53.530	-0.800	0.400																			1580014043.0	7.21	13.35
26/01/2020 04:47:24	26012020	260120	044724	53.580	12.564355	-57.439518	53.550	-0.250	-0.210	0.060	53.590	-1.400	0.400																			1580014044.0	7.65	14.17
26/01/2020 04:47:25	26012020	260120	044725	53.650	12.564378	-57.439488	53.590	-0.250	-0.630	0.230	53.660	-1.900	0.500																			1580014045.0	7.94	14.70
26/01/2020 04:47:26	26012020	260120	044726	53.690	12.564400	-57.439458	53.520	-0.230	-0.630	0.520	53.680	-2.100	0.800																			1580014046.0	7.95	14.72
26/01/2020 04:47:27	26012020	260120	044727	53.620	12.564420	-57.439428	53.400	-0.210	-0.340	0.860	53.600	-1.900	1.100																			1580014047.0	7.64	14.15
26/01/2020 04:47:28	26012020	260120	044728	53.500	12.564438	-57.439398	53.340	-0.220	-0.050	1.010	53.490	-1.600	1.400																			1580014048.0	7.30	13.52
26/01/2020 04:47:29	26012020	260120	044729	53.440	12.564457	-57.439370	53.300	-0.220	-0.000	0.810	53.430	-1.400	1.300																			1580014049.0	7.19	13.32
26/01/2020 04:47:30	26012020	260120	044730	53.420	12.564478	-57.439343	53.270	-0.040	-0.180	0.350	53.410	-1.500	1.000																			1580014050.0	7.31	13.54
26/01/2020 04:47:31	26012020	260120	044731	53.390	12.564502	-57.439317	53.290	0.320	-0.400	-0.130	53.400	-1.700	0.500																			1580014051.0	7.61	14.09
26/01/2020 04:47:32	26012020	260120	044732	53.430	12.564527	-57.439290	53.390	0.600	-0.460	-0.470	53.440	-1.900	0.100																			1580014052.0	7.84	14.52
26/01/2020 04:47:33	26012020	260120	044733	53.530	12.564552	-57.439262	53.490	0.480	-0.240	-0.620	53.550	-1.800	-0.200																			1580014053.0	7.86	14.56
26/01/2020 04:47:34	26012020	260120	044734	53.620	12.564575	-57.439235	53.530	0.030	0.130	-0.550	53.640	-1.400	-0.200																			1580014054.0	7.63	14.13
26/01/2020 04:47:35	26012020	260120	044735	53.640	12.564595	-57.439208	53.520	-0.410	0.370	-0.370	53.640	-1.100	-0.100																			1580014055.0	7.29	13.50
26/01/2020 04:47:36	26012020	260120	044736	53.620	12.564617	-57.439182	53.570	-0.520	0.240	-0.100	53.620	-1.100	0.200																			1580014056.0	7.15	13.24
26/01/2020 04:47:37	26012020	260120	044737	53.660	12.564637	-57.439153	53.630	-0.300	-0.160	0.260	53.670	-1.400	0.500																			1580014057.0	7.34	13.59
26/01/2020 04:47:38	26012020	260120	044738	53.730	12.564657	-57.439123	53.620	0.030	-0.470	0.660	53.730	-1.800	0.900																			1580014058.0	7.72	14.30
26/01/2020 04:47:39	26012020	260120	044739	53.720	12.564677	-57.439093	53.510	0.230	-0.580	0.990	53.710	-1.900	1.200																			1580014059.0	7.85	14.54
26/01/2020 04:47:40	26012020	260120	044740	53.610	12.564697	-57.439062	53.400	0.240	-0.570	1.080	53.580	-2.000	1.500																			1580014060.0	7.69	14.24
26/01/2020 04:47:41	26012020	260120	044741	53.500	12.564718	-57.439033	53.410	0.200	-0.460	0.910	53.500	-1.900	1.400																			1580014061.0	7.56	14.00
26/01/2020 04:47:42	26012020	260120	044742	53.510	12.564740	-57.439005	53.480	0.160	-0.170	0.630	53.540	-1.700	1.200																			1580014062.0	7.56	14.00
26/01/2020 04:47:43	26012020	260120	044743	53.600	12.564763	-57.438978	53.520	0.050	0.220	0.330	53.610	-1.400	0.900																			1580014063.0	7.52	13.93
26/01/2020 04:47:44	26012020	260120	044744	53.650	12.564785	-57.438952	53.560	-0.180	0.420	-0.030	53.650	-1.000	0.500																			1580014064.0	7.37	13.65
26/01/2020 04:47:45	26012020	260120	044745	53.680	12.564807	-57.438927	53.640	-0.330	0.120	-0.370	53.700	-1.100	0.200																			1580014065.0	7.26	13.45
26/01/2020 04:47:46	26012020	260120	044746	53.760	12.564830	-57.438898	53.730	-0.190	-0.460	-0.520	53.780	-1.600	-0.100																			1580014066.0	7.49	13.87
26/01/2020 04:47:47	26012020	260120	044747	53.840	12.564853	-57.438870	53.690	0.080	-0.660	-0.510	53.840	-2.000	-0.200																			1580014067.0	8.00	14.82
26/01/2020 04:47:48	26012020	260120	044748	53.790	12.564877	-57.438840	53.440	0.170	-0.290	-0.280	53.760	-1.900	-0.000																			1580014068.0	8.09	14.98
26/01/2020 04:47:49	26012020	260120	044749	53.550	12.564897	-57.438812	53.180	0.040	0.180	0.070	53.490	-1.400	0.300																			1580014069.0	7.53	13.95
26/01/2020 04:47:50	26012020	260120	044750	53.280	12.564917	-57.438785	53.130	-0.090	0.200	0.280	53.250	-1.100	0.600																			1580014070.0	6.99	12.95
26/01/2020 04:47:51	26012020	260120	044751	53.230	12.564937	-57.438757	53.370	-0.020	-0.270	0.140	53.260	-1.400	0.600																			1580014071.0	7.12	13.19
26/01/2020 04:47:52	26012020	260120	044752	53.480	12.564960	-57.438730	53.610	0.180	-0.660	0.100	53.540	-1.900	0.500																			1580014072.0	7.71	14.28
26/01/2020 04:47:53	26012020	260120	044753	53.720	12.564983	-57.438700	53.570	0.260	-0.530	0.400	53.730	-2.000	0.600																			1580014073.0	8.13	15.06
26/01/2020 04:47:54	26012020	260120	044754	53.670	12.565005	-57.438670	53.330	0.120	-0.100	0.800	53.630	-1.700	1.000																			1580014074.0	7.83	14.50
26/01/2020 04:47:55	26012020	260120	044755	53.430	12.565025	-57.438642	53.230	-0.110	0.190	0.980	53.390	-1.300	1.300																			1580014075.0	7.32	13.56
26/01/2020 04:47:56	26012020	260120	044756	53.340	12.565043	-57.438613	53.430	-0.220	0.170	0.750	53.360	-1.200	1.300																			1580014076.0	7.16	13.26
26/01/2020 04:47:57	26012020	260120	044757	53.530	12.565063	-57.438587	53.570	-0.170	-0.030	0.370	53.580	-1.300	0.900																			1580014077.0	7.37	13.65
26/01/2020 04:47:58	26012020	260120	044758	53.690	12.565087	-57.438558	53.440	-0.050	-0.160	0.240	53.680	-1.500	0.700																			1580014078.0	7.64	14.15
26/01/2020 04:47:59	26012020	260120	044759	53.550	12.565110	-57.438530	53.240	0.010	-0.250	0.290	53.500	-1.600	0.700																			1580014079.0	7.73	14.32
26/01/2020 04:48:00	26012020	260120	044800	53.340	12.565132	-57.438502	53.230	0.060	-0.530	0.140	53.320	-1.800	0.600	1014.80	25.60	25.70	21.30	21.30	-1.00	77.00	76.00	407.00	25.30	5.00	8.70	62.00	4.90	15	3293.00	27.40	27.40	1580014080.0	7.54	13.96
26/01/2020 04:48:01	26012020	260120	044801	53.320	12.565153	-57.438473	53.240	0.140	-0.760	-0.190	53.330	-2.100	0.400																			1580014081.0	7.64	14.15
26/01/2020 04:48:02	26012020	260120	044802	53.340	12.565178	-57.438445	53.180	0.210	-0.480	-0.420	53.340	-2.100	0.100																			1580014082.0	7.93	14.69
26/01/2020 04:48:03	26012020	260120	044803	53.290	12.565202	-57.438418	53.140	0.150	0.180	-0.400	53.280	-1.500	-0.000																			1580014083.0	7.80	14.45
26/01/2020 04:48:04	26012020	260120	044804	53.230	12.565223	-57.438392	53.200	-0.010	0.560	-0.270	53.230	-0.900	0.100																			1580014084.0	7.20	13.33
26/01/2020 04:48:05	26012020	260120	044805	53.300	12.565243	-57.438365	53.360	-0.190	0.400	-0.160	53.330	-0.900	0.200																			1580014085.0	6.99	12.95
26/01/2020 04:48:06	26012020	260120	044806	53.460	12.565265	-57.438338	53.470	-0.350	-0.050	0.030	53.490	-1.200	0.300																			1580014086.0	7.40	13.70
26/01/2020 04:48:07	26012020	260120	044807	53.580	12.565287	-57.438308	53.530	-0.420	-0.390	0.370	53.590	-1.700	0.600																			1580014087.0	7.82	14.48
26/01/2020 04:48:08	26012020	260120	044808	53.620	12.565308	-57.438278	53.530	-0.280	-0.490	0.740	53.620	-1.900	1.000																			1580014088.0	7.85	14.54
26/01/2020 04:48:09	26012020	260120	044809	53.610	12.565328	-57.438248	53.500	0.080	-0.580	0.910	53.610	-1.900	1.200																			1580014089.0	7.60	14.08
26/01/2020 04:48:10	26012020	260120	044810	53.580	12.565348	-57.438220	53.440	0.510	-0.730	0.920	53.580	-2.100	1.300																			1580014090.0	7.47	13.83
26/01/2020 04:48:11	26012020	260120	044811	53.520	12.565370	-57.438190	53.320	0.630	-0.550	0.840	53.500	-2.100	1.300																			1580014091.0	7.73	14.32
26/01/2020 04:48:12	26012020	260120	044812	53.400	12.565392	-57.438162	53.240	0.300	0.110	0.560	53.380	-1.600	1.100																			1580014092.0	7.84	14.52
26/01/2020 04:48:13	26012020	260120	044813	53.340	12.565415	-57.438135	53.320	-0.240	0.720	0.070	53.340	-0.900	0.700																			1580014093.0	7.36	13.63
26/01/2020 04:48:14	26012020	260120	044814	53.400	12.565437	-57.438112	53.540	-0.550	0.600	-0.490	53.440	-0.600	0.200																			1580014094.0	6.91	12.80
26/01/2020 04:48:15	26012020	260120	044815	53.640	12.565460	-57.438087	53.730	-0.430	-0.210	-0.870	53.690	-1.200	-0.400																			1580014095.0	7.15	13.24
26/01/2020 04:48:16	26012020	260120	044816	53.820	12.565485	-57.438058	53.720	-0.030	-0.880	-0.870	53.830	-2.000	-0.500																			1580014096.0	7.97	14.76
26/01/2020 04:48:17	26012020	260120	044817	53.810	12.565508	-57.438028	53.680	0.290	-0.800	-0.600	53.800	-2.300	-0.400																			1580014097.0	8.39	15.54
26/01/2020 04:48:18	26012020	260120	044818	53.760	12.565530	-57.437997	53.610	0.300	-0.190	-0.200	53.750	-1.900	0.000																			1580014098.0	7.94	14.70
26/01/2020 04:48:19	26012020	260120	044819	53.690	12.565548	-57.437968	53.550	0.060	0.320	0.060	53.670	-1.300	0.400																			1580014099.0	7.16	13.26
26/01/2020 04:48:20	26012020	260120	044820	53.610	12.565568	-57.437943	53.470	-0.080	0.300	0.150	53.590	-1.000	0.500																			1580014100.0	6.83	12.65
26/01/2020 04:48:21	26012020	260120	044821	53.530	12.565588	-57.437917	53.420	0.040	-0.190	0.260	53.510	-1.300	0.600																			1580014101.0	7.16	13.26
26/01/2020 04:48:22	26012020	260120	044822	53.480	12.565613	-57.437888	53.500	0.270	-0.780	0.400	53.490	-1.900	0.700																			1580014102.0	7.77	14.39
26/01/2020 04:48:23	26012020	260120	044823	53.570	12.565637	-57.437858	53.660	0.240	-0.840	0.510	53.610	-2.300	0.900																			1580014103.0	8.21	15.20
26/01/2020 04:48:24	26012020	260120	044824	53.740	12.565660	-57.437828	53.780	-0.180	-0.160	0.600	53.740	-2.300	0.900																			1580014104.0	8.13	15.06
26/01/2020 04:48:25	26012020	260120	044825	53.850	12.565678	-57.437800	53.790	-0.660	0.650	0.760	53.860	-1.100	1.100																			1580014105.0	7.36	13.63
26/01/2020 04:48:26	26012020	260120	044826	53.860	12.565697	-57.437773	53.750	-0.770	0.830	0.820	53.850	-0.500	1.200																			1580014106.0	6.65	12.32
26/01/2020 04:48:27	26012020	260120	044827	53.820	12.565713	-57.437747	53.710	-0.350	0.200	0.580	53.810	-0.800	1.100																			1580014107.0	6.77	12.54
26/01/2020 04:48:28	26012020	260120	044828	53.790	12.565735	-57.437718	53.660	0.300	-0.650	0.060	53.780	-1.700	0.700																			1580014108.0	7.55	13.98
26/01/2020 04:48:29	26012020	260120	044829	53.760	12.565758	-57.437688	53.600	0.750	-1.100	-0.520	53.750	-2.400	0.100																			1580014109.0	8.21	15.20
26/01/2020 04:48:30	26012020	260120	044830	53.710	12.565785	-57.437660	53.510	0.830	-0.970	-0.990	53.700	-2.500	-0.400																			1580014110.0	8.22	15.22
26/01/2020 04:48:31	26012020	260120	044831	53.640	12.565812	-57.437633	53.480	0.650	-0.440	-1.150	53.620	-2.100	-0.700																			1580014111.0	7.81	14.46
26/01/2020 04:48:32	26012020	260120	044832	53.590	12.565837	-57.437610	53.530	0.270	0.170	-0.970	53.590	-1.500	-0.700																			1580014112.0	7.39	13.69
26/01/2020 04:48:33	26012020	260120	044833	53.640	12.565858	-57.437585	53.700	-0.240	0.560	-0.470	53.660	-1.000	-0.300																			1580014113.0	7.13	13.20
26/01/2020 04:48:34	26012020	260120	044834	53.790	12.565878	-57.437558	53.840	-0.720	0.630	0.220	53.820	-0.800	0.300																			1580014114.0	7.13	13.20
26/01/2020 04:48:35	26012020	260120	044835	53.930	12.565895	-57.437528	53.860	-0.920	0.350	0.970	53.940	-0.900	1.000																			1580014115.0	7.31	13.54
26/01/2020 04:48:36	26012020	260120	044836	53.940	12.565912	-57.437497	53.840	-0.670	-0.320	1.540	53.930	-1.400	1.700																			1580014116.0	7.51	13.91
26/01/2020 04:48:37	26012020	260120	044837	53.900	12.565930	-57.437465	53.880	-0.100	-1.000	1.680	53.910	-2.100	2.100																			1580014117.0	7.85	14.54
26/01/2020 04:48:38	26012020	260120	044838	53.940	12.565950	-57.437432	53.910	0.490	-1.130	1.350	53.950	-2.600	1.900																			1580014118.0	8.16	15.11
26/01/2020 04:48:39	26012020	260120	044839	53.970	12.565972	-57.437402	53.820	0.780	-0.550	0.810	53.970	-2.300	1.400																			1580014119.0	8.00	14.82
26/01/2020 04:48:40	26012020	260120	044840	53.900	12.565995	-57.437375	53.630	0.640	0.270	0.260	53.870	-1.500	0.900																			1580014120.0	7.46	13.82
26/01/2020 04:48:41	26012020	260120	044841	53.730	12.566018	-57.437352	53.510	0.220	0.670	-0.410	53.710	-0.800	0.300																			1580014121.0	6.96	12.89
26/01/2020 04:48:42	26012020	260120	044842	53.630	12.566043	-57.437330	53.600	-0.190	0.480	-1.070	53.630	-0.800	-0.400																			1580014122.0	7.02	13.00
26/01/2020 04:48:43	26012020	260120	044843	53.720	12.566068	-57.437307	53.900	-0.400	-0.010	-1.520	53.770	-1.200	-1.000																			1580014123.0	7.51	13.91
26/01/2020 04:48:44	26012020	260120	044844	54.020	12.566093	-57.437280	54.140	-0.390	-0.520	-1.460	54.090	-1.700	-1.200																			1580014124.0	7.80	14.45
26/01/2020 04:48:45	26012020	260120	044845	54.260	12.566117	-57.437250	54.100	-0.250	-0.820	-0.810	54.270	-2.100	-0.800																			1580014125.0	7.88	14.59
26/01/2020 04:48:46	26012020	260120	044846	54.180	12.566137	-57.437220	53.910	-0.080	-0.770	0.060	54.150	-2.200	0.100																			1580014126.0	7.87	14.58
26/01/2020 04:48:47	26012020	260120	044847	53.990	12.566153	-57.437187	53.900	0.060	-0.400	0.700	53.970	-2.000	0.800																			1580014127.0	7.72	14.30
26/01/2020 04:48:48	26012020	260120	044848	53.970	12.566170	-57.437157	53.980	0.130	0.160	1.020	53.990	-1.500	1.300																			1580014128.0	7.44	13.78
26/01/2020 04:48:49	26012020	260120	044849	54.060	12.566188	-57.437128	54.000	0.120	0.510	1.030	54.070	-1.000	1.400																			1580014129.0	7.13	13.20
26/01/2020 04:48:50	26012020	260120	044850	54.080	12.566208	-57.437102	53.940	0.130	0.270	0.840	54.070	-1.000	1.300																			1580014130.0	6.99	12.95
26/01/2020 04:48:51	26012020	260120	044851	54.030	12.566230	-57.437075	53.910	0.190	-0.400	0.550	54.020	-1.500	1.100																			1580014131.0	7.35	13.61
26/01/2020 04:48:52	26012020	260120	044852	54.000	12.566255	-57.437047	53.920	0.220	-0.760	0.220	54.000	-2.100	0.800																			1580014132.0	8.00	14.82
26/01/2020 04:48:53	26012020	260120	044853	54.030	12.566280	-57.437017	53.960	0.110	-0.430	-0.050	54.030	-2.100	0.500																			1580014133.0	8.20	15.19
26/01/2020 04:48:54	26012020	260120	044854	54.070	12.566303	-57.436990	54.030	-0.080	0.110	-0.230	54.080	-1.500	0.200																			1580014134.0	7.63	14.13
26/01/2020 04:48:55	26012020	260120	044855	54.140	12.566323	-57.436965	54.130	-0.160	0.220	-0.320	54.160	-1.200	0.100																			1580014135.0	6.97	12.91
26/01/2020 04:48:56	26012020	260120	044856	54.240	12.566345	-57.436940	54.160	-0.080	-0.080	-0.300	54.250	-1.300	0.100																			1580014136.0	7.06	13.08
26/01/2020 04:48:57	26012020	260120	044857	54.280	12.566367	-57.436912	54.120	-0.020	-0.250	-0.140	54.280	-1.600	0.200																			1580014137.0	7.63	14.13
26/01/2020 04:48:58	26012020	260120	044858	54.220	12.566388	-57.436882	53.990	-0.120	-0.130	0.170	54.200	-1.600	0.400																			1580014138.0	7.83	14.50
26/01/2020 04:48:59	26012020	260120	044859	54.090	12.566408	-57.436852	53.940	-0.270	-0.090	0.450	54.060	-1.500	0.700																			1580014139.0	7.48	13.85
26/01/2020 04:49:00	26012020	260120	044900	54.040	12.566427	-57.436823	54.060	-0.190	-0.400	0.460	54.050	-1.600	0.900	1014.80	25.70	25.70	21.20	21.20	-1.00	76.00	76.00	409.00	25.30	11.00	9.20	73.00	5.40	15	3259.00	27.40	27.40	1580014140.0	7.20	13.33
26/01/2020 04:49:01	26012020	260120	044901	54.150	12.566447	-57.436795	54.060	0.100	-0.590	0.460	54.170	-2.000	0.800																			1580014141.0	7.50	13.89
26/01/2020 04:49:02	26012020	260120	044902	54.170	12.566470	-57.436765	53.910	0.240	-0.260	0.490	54.150	-1.900	0.900																			1580014142.0	7.91	14.65
26/01/2020 04:49:03	26012020	260120	044903	54.030	12.566492	-57.436737	53.840	0.160	0.160	0.360	53.990	-1.400	0.800																			1580014143.0	7.56	14.00
26/01/2020 04:49:04	26012020	260120	044904	53.940	12.566512	-57.436712	53.950	0.130	0.090	0.060	53.950	-1.200	0.600																			1580014144.0	7.03	13.02
26/01/2020 04:49:05	26012020	260120	044905	54.060	12.566533	-57.436685	54.080	0.240	-0.330	-0.270	54.090	-1.600	0.300																			1580014145.0	7.21	13.35
26/01/2020 04:49:06	26012020	260120	044906	54.200	12.566558	-57.436658	54.010	0.240	-0.470	-0.320	54.200	-1.900	0.000																			1580014146.0	7.85	14.54
26/01/2020 04:49:07	26012020	260120	044907	54.110	12.566582	-57.436628	53.800	-0.000	-0.140	-0.010	54.080	-1.700	0.200																			1580014147.0	8.00	14.82
26/01/2020 04:49:08	26012020	260120	044908	53.890	12.566603	-57.436600	53.790	-0.330	0.180	0.230	53.870	-1.300	0.500																			1580014148.0	7.48	13.85
26/01/2020 04:49:09	26012020	260120	044909	53.870	12.566622	-57.436573	53.990	-0.450	0.120	0.250	53.900	-1.200	0.600																			1580014149.0	7.05	13.06
26/01/2020 04:49:10	26012020	260120	044910	54.060	12.566642	-57.436545	54.090	-0.300	-0.110	0.340	54.100	-1.400	0.700																			1580014150.0	7.26	13.45
26/01/2020 04:49:11	26012020	260120	044911	54.150	12.566663	-57.436517	53.990	-0.050	-0.230	0.510	54.140	-1.600	0.800																			1580014151.0	7.64	14.15
26/01/2020 04:49:12	26012020	260120	044912	54.050	12.566683	-57.436487	53.910	0.150	-0.330	0.540	54.030	-1.700	0.900																			1580014152.0	7.62	14.11
26/01/2020 04:49:13	26012020	260120	044913	53.980	12.566703	-57.436458	53.950	0.250	-0.400	0.380	53.980	-1.800	0.900																			1580014153.0	7.50	13.89
26/01/2020 04:49:14	26012020	260120	044914	54.020	12.566727	-57.436430	54.000	0.210	-0.290	0.110	54.040	-1.800	0.600																			1580014154.0	7.55	13.98
26/01/2020 04:49:15	26012020	260120	044915	54.100	12.566748	-57.436403	54.000	0.090	-0.070	-0.040	54.100	-1.600	0.400																			1580014155.0	7.50	13.89
26/01/2020 04:49:16	26012020	260120	044916	54.100	12.566772	-57.436378	53.930	0.010	-0.080	-0.060	54.090	-1.500	0.300																			1580014156.0	7.32	13.56
26/01/2020 04:49:17	26012020	260120	044917	54.030	12.566793	-57.436352	53.860	0.020	-0.260	0.010	54.010	-1.600	0.400																			1580014157.0	7.36	13.63
26/01/2020 04:49:18	26012020	260120	044918	53.950	12.566815	-57.436323	53.910	0.010	-0.320	0.120	53.950	-1.700	0.500																			1580014158.0	7.69	14.24
26/01/2020 04:49:19	26012020	260120	044919	54.000	12.566837	-57.436293	54.100	-0.100	-0.190	0.090	54.030	-1.700	0.500																			1580014159.0	7.75	14.35
26/01/2020 04:49:20	26012020	260120	044920	54.180	12.566858	-57.436265	54.240	-0.220	0.010	0.090	54.220	-1.500	0.500																			1580014160.0	7.49	13.87
26/01/2020 04:49:21	26012020	260120	044921	54.320	12.566878	-57.436237	54.220	-0.260	0.160	0.240	54.330	-1.300	0.500																			1580014161.0	7.34	13.59
26/01/2020 04:49:22	26012020	260120	044922	54.320	12.566898	-57.436208	54.190	-0.150	0.060	0.360	54.310	-1.300	0.700																			1580014162.0	7.26	13.45
26/01/2020 04:49:23	26012020	260120	044923	54.290	12.566918	-57.436180	54.150	0.080	-0.290	0.330	54.290	-1.500	0.700																			1580014163.0	7.38	13.67
26/01/2020 04:49:24	26012020	260120	044924	54.260	12.566940	-57.436152	54.080	0.300	-0.540	0.230	54.250	-1.900	0.700																			1580014164.0	7.71	14.28
26/01/2020 04:49:25	26012020	260120	044925	54.200	12.566963	-57.436123	54.080	0.350	-0.530	0.120	54.190	-2.000	0.600																			1580014165.0	7.88	14.59
26/01/2020 04:49:26	26012020	260120	044926	54.210	12.566987	-57.436095	54.140	0.190	-0.260	0.010	54.220	-1.800	0.400																			1580014166.0	7.70	14.26
26/01/2020 04:49:27	26012020	260120	044927	54.270	12.567008	-57.436067	54.200	-0.120	0.150	-0.080	54.280	-1.500	0.400																			1580014167.0	7.46	13.82
26/01/2020 04:49:28	26012020	260120	044928	54.320	12.567028	-57.436040	54.280	-0.370	0.390	-0.090	54.320	-1.300	0.300																			1580014168.0	7.20	13.33
26/01/2020 04:49:29	26012020	260120	044929	54.410	12.567050	-57.436013	54.350	-0.360	0.190	0.010	54.430	-1.100	0.300																			1580014169.0	7.08	13.11
26/01/2020 04:49:30	26012020	260120	044930	54.480	12.567070	-57.435987	54.350	-0.110	-0.320	0.140	54.480	-1.500	0.500																			1580014170.0	7.34	13.59
26/01/2020 04:49:31	26012020	260120	044931	54.490	12.567090	-57.435957	54.320	0.150	-0.710	0.320	54.490	-2.000	0.600																			1580014171.0	7.80	14.45
26/01/2020 04:49:32	26012020	260120	044932	54.450	12.567112	-57.435925	54.200	0.210	-0.660	0.580	54.430	-2.100	0.900																			1580014172.0	8.00	14.82
26/01/2020 04:49:33	26012020	260120	044933	54.320	12.567133	-57.435895	54.120	0.150	-0.350	0.630	54.290	-1.900	1.000																			1580014173.0	7.72	14.30
26/01/2020 04:49:34	26012020	260120	044934	54.250	12.567153	-57.435868	54.110	0.130	-0.050	0.450	54.250	-1.600	0.900																			1580014174.0	7.31	13.54
26/01/2020 04:49:35	26012020	260120	044935	54.240	12.567175	-57.435840	54.060	0.100	0.130	0.320	54.230	-1.400	0.800																			1580014175.0	7.27	13.46
26/01/2020 04:49:36	26012020	260120	044936	54.170	12.567197	-57.435813	54.070	-0.030	0.170	0.160	54.160	-1.200	0.600																			1580014176.0	7.42	13.74
26/01/2020 04:49:37	26012020	260120	044937	54.180	12.567218	-57.435787	54.240	-0.230	0.080	-0.120	54.210	-1.300	0.400																			1580014177.0	7.52	13.93
26/01/2020 04:49:38	26012020	260120	044938	54.360	12.567240	-57.435758	54.370	-0.320	-0.010	-0.250	54.400	-1.400	0.200																			1580014178.0	7.56	14.00
26/01/2020 04:49:39	26012020	260120	044939	54.500	12.567263	-57.435730	54.310	-0.250	-0.100	-0.120	54.500	-1.500	0.200																			1580014179.0	7.55	13.98
26/01/2020 04:49:40	26012020	260120	044940	54.430	12.567283	-57.435702	54.150	-0.070	-0.250	0.170	54.390	-1.600	0.400																			1580014180.0	7.47	13.83
26/01/2020 04:49:41	26012020	260120	044941	54.260	12.567303	-57.435673	54.110	0.160	-0.560	0.300	54.240	-1.800	0.700																			1580014181.0	7.46	13.82
26/01/2020 04:49:42	26012020	260120	044942	54.210	12.567323	-57.435643	54.140	0.380	-0.850	0.240	54.220	-2.200	0.700																			1580014182.0	7.61	14.09
26/01/2020 04:49:43	26012020	260120	044943	54.240	12.567347	-57.435613	54.090	0.390	-0.590	0.300	54.240	-2.200	0.600																			1580014183.0	7.92	14.67
26/01/2020 04:49:44	26012020	260120	044944	54.180	12.567368	-57.435585	54.000	0.080	0.150	0.430	54.170	-1.600	0.800																			1580014184.0	7.81	14.46
26/01/2020 04:49:45	26012020	260120	044945	54.100	12.567388	-57.435558	53.990	-0.340	0.700	0.420	54.100	-0.900	0.800																			1580014185.0	7.14	13.22
26/01/2020 04:49:46	26012020	260120	044946	54.100	12.567407	-57.435532	54.000	-0.440	0.570	0.390	54.100	-0.700	0.800																			1580014186.0	6.76	12.52
26/01/2020 04:49:47	26012020	260120	044947	54.110	12.567427	-57.435505	53.990	-0.100	-0.160	0.280	54.110	-1.200	0.700																			1580014187.0	7.13	13.20
26/01/2020 04:49:48	26012020	260120	044948	54.100	12.567450	-57.435477	54.000	0.350	-0.860	0.100	54.100	-2.000	0.600																			1580014188.0	7.86	14.56
26/01/2020 04:49:49	26012020	260120	044949	54.110	12.567473	-57.435445	54.000	0.450	-0.850	0.050	54.110	-2.400	0.400																			1580014189.0	8.32	15.41
26/01/2020 04:49:50	26012020	260120	044950	54.110	12.567497	-57.435415	54.020	0.120	-0.290	0.070	54.110	-2.000	0.400																			1580014190.0	7.95	14.72
26/01/2020 04:49:51	26012020	260120	044951	54.120	12.567517	-57.435388	54.000	-0.320	0.240	0.100	54.120	-1.400	0.500																			1580014191.0	7.16	13.26
26/01/2020 04:49:52	26012020	260120	044952	54.090	12.567537	-57.435363	53.910	-0.490	0.300	0.190	54.090	-1.200	0.500																			1580014192.0	6.82	12.63
26/01/2020 04:49:53	26012020	260120	044953	54.010	12.567557	-57.435337	53.880	-0.280	-0.080	0.300	53.990	-1.300	0.600																			1580014193.0	7.10	13.15
26/01/2020 04:49:54	26012020	260120	044954	53.970	12.567578	-57.435308	53.880	0.060	-0.450	0.400	53.970	-1.700	0.700																			1580014194.0	7.68	14.22
26/01/2020 04:49:55	26012020	260120	044955	53.970	12.567600	-57.435277	53.780	0.210	-0.450	0.500	53.960	-1.900	0.800																			1580014195.0	7.98	14.78
26/01/2020 04:49:56	26012020	260120	044956	53.870	12.567620	-57.435247	53.610	0.150	-0.160	0.590	53.830	-1.700	1.000																			1580014196.0	7.78	14.41
26/01/2020 04:49:57	26012020	260120	044957	53.700	12.567640	-57.435218	53.560	0.050	0.000	0.460	53.680	-1.400	0.900																			1580014197.0	7.33	13.58
26/01/2020 04:49:58	26012020	260120	044958	53.660	12.567660	-57.435192	53.680	0.090	-0.110	0.130	53.680	-1.400	0.700																			1580014198.0	7.17	13.28
26/01/2020 04:49:59	26012020	260120	044959	53.780	12.567683	-57.435165	53.840	0.180	-0.240	-0.170	53.820	-1.600	0.400																			1580014199.0	7.49	13.87
26/01/2020 04:50:00	26012020	260120	045000	53.950	12.567707	-57.435137	53.920	0.150	-0.150	-0.330	53.980	-1.600	0.100	1014.80	25.70	25.80	21.20	21.20	-1.00	76.00	76.00	412.00	25.30	6.00	9.10	64.00	5.30	15	3394.00	27.50	27.40	1580014200.0	7.75	14.35
26/01/2020 04:50:01	26012020	260120	045001	54.030	12.567730	-57.435110	53.850	-0.020	0.040	-0.220	54.030	-1.500	0.100																			1580014201.0	7.59	14.06
26/01/2020 04:50:02	26012020	260120	045002	53.950	12.567752	-57.435083	53.650	-0.160	0.040	0.130	53.920	-1.300	0.300																			1580014202.0	7.30	13.52
26/01/2020 04:50:03	26012020	260120	045003	53.750	12.567772	-57.435055	53.480	-0.120	-0.260	0.430	53.700	-1.500	0.700																			1580014203.0	7.26	13.45
26/01/2020 04:50:04	26012020	260120	045004	53.570	12.567792	-57.435025	53.520	0.040	-0.650	0.520	53.560	-1.900	0.900																			1580014204.0	7.57	14.02
26/01/2020 04:50:05	26012020	260120	045005	53.590	12.567812	-57.434995	53.690	0.120	-0.690	0.490	53.620	-2.200	0.900																			1580014205.0	7.90	14.63
26/01/2020 04:50:06	26012020	260120	045006	53.760	12.567835	-57.434965	53.740	-0.010	-0.110	0.590	53.760	-1.800	0.900																			1580014206.0	7.90	14.63
26/01/2020 04:50:07	26012020	260120	045007	53.810	12.567855	-57.434937	53.600	-0.320	0.610	0.790	53.790	-1.100	1.100																			1580014207.0	7.38	13.67
26/01/2020 04:50:08	26012020	260120	045008	53.660	12.567873	-57.434912	53.430	-0.480	0.640	0.840	53.630	-0.700	1.200																			1580014208.0	6.76	12.52
26/01/2020 04:50:09	26012020	260120	045009	53.510	12.567892	-57.434885	53.410	-0.200	-0.210	0.540	53.490	-1.200	1.100																			1580014209.0	6.85	12.69
26/01/2020 04:50:10	26012020	260120	045010	53.490	12.567913	-57.434855	53.460	0.350	-1.090	0.000	53.500	-2.200	0.600																			1580014210.0	7.76	14.37
26/01/2020 04:50:11	26012020	260120	045011	53.550	12.567940	-57.434825	53.490	0.700	-1.050	-0.360	53.560	-2.600	0.200																			1580014211.0	8.53	15.80
26/01/2020 04:50:12	26012020	260120	045012	53.580	12.567965	-57.434797	53.480	0.560	-0.240	-0.420	53.580	-2.100	-0.000																			1580014212.0	8.20	15.19
26/01/2020 04:50:13	26012020	260120	045013	53.580	12.567988	-57.434772	53.480	0.110	0.500	-0.370	53.580	-1.200	0.000																			1580014213.0	7.15	13.24
26/01/2020 04:50:14	26012020	260120	045014	53.580	12.568008	-57.434748	53.470	-0.310	0.650	-0.240	53.580	-0.800	0.100																			1580014214.0	6.66	12.33
26/01/2020 04:50:15	26012020	260120	045015	53.580	12.568028	-57.434722	53.460	-0.440	0.170	0.110	53.580	-1.000	0.300																			1580014215.0	6.96	12.89
26/01/2020 04:50:16	26012020	260120	045016	53.580	12.568048	-57.434693	53.500	-0.290	-0.490	0.540	53.580	-1.600	0.700																			1580014216.0	7.58	14.04
26/01/2020 04:50:17	26012020	260120	045017	53.590	12.568070	-57.434660	53.510	-0.090	-0.750	0.860	53.590	-2.100	1.100																			1580014217.0	8.09	14.98
26/01/2020 04:50:18	26012020	260120	045018	53.590	12.568090	-57.434628	53.410	0.010	-0.410	1.130	53.590	-2.200	1.200																			1580014218.0	8.03	14.87
26/01/2020 04:50:19	26012020	260120	045019	53.500	12.568108	-57.434600	53.280	0.070	-0.030	1.210	53.470	-1.600	1.600																			1580014219.0	7.42	13.74
26/01/2020 04:50:20	26012020	260120	045020	53.380	12.568127	-57.434572	53.210	0.140	-0.000	0.950	53.380	-1.500	1.600																			1580014220.0	7.00	12.96
26/01/2020 04:50:21	26012020	260120	045021	53.320	12.568148	-57.434545	53.190	0.140	-0.160	0.400	53.310	-1.500	1.100																			1580014221.0	7.26	13.45
26/01/2020 04:50:22	26012020	260120	045022	53.310	12.568172	-57.434518	53.170	0.020	-0.180	-0.170	53.310	-1.600	0.500																			1580014222.0	7.68	14.22
26/01/2020 04:50:23	26012020	260120	045023	53.300	12.568197	-57.434492	53.130	-0.100	-0.030	-0.540	53.300	-1.500	-0.000																			1580014223.0	7.75	14.35
26/01/2020 04:50:24	26012020	260120	045024	53.260	12.568222	-57.434467	53.130	-0.070	-0.030	-0.670	53.250	-1.400	-0.200																			1580014224.0	7.45	13.80
26/01/2020 04:50:25	26012020	260120	045025	53.260	12.568243	-57.434442	53.200	0.110	-0.270	-0.610	53.270	-1.500	-0.300																			1580014225.0	7.30	13.52
26/01/2020 04:50:26	26012020	260120	045026	53.330	12.568265	-57.434413	53.180	0.220	-0.450	-0.320	53.340	-1.800	-0.100																			1580014226.0	7.56	14.00
26/01/2020 04:50:27	26012020	260120	045027	53.290	12.568287	-57.434382	53.000	0.110	-0.360	0.080	53.260	-1.800	0.300																			1580014227.0	7.79	14.43
26/01/2020 04:50:28	26012020	260120	045028	53.110	12.568307	-57.434353	52.880	-0.070	-0.150	0.400	53.070	-1.600	0.700																			1580014228.0	7.60	14.08
26/01/2020 04:50:29	26012020	260120	045029	52.980	12.568327	-57.434325	52.900	-0.090	-0.060	0.620	52.970	-1.500	0.900																			1580014229.0	7.33	13.58
26/01/2020 04:50:30	26012020	260120	045030	52.980	12.568348	-57.434298	52.950	0.000	-0.100	0.770	53.000	-1.500	1.100																			1580014230.0	7.37	13.65
26/01/2020 04:50:31	26012020	260120	045031	53.050	12.568370	-57.434268	52.930	0.010	-0.050	0.930	53.050	-1.500	1.200																			1580014231.0	7.60	14.08
26/01/2020 04:50:32	26012020	260120	045032	53.040	12.568390	-57.434240	52.830	-0.140	0.090	1.040	53.020	-1.400	1.400																			1580014232.0	7.62	14.11
26/01/2020 04:50:33	26012020	260120	045033	52.940	12.568410	-57.434212	52.760	-0.260	0.060	0.950	52.920	-1.300	1.400																			1580014233.0	7.39	13.69
26/01/2020 04:50:34	26012020	260120	045034	52.890	12.568430	-57.434183	52.850	-0.200	-0.220	0.610	52.900	-1.500	1.200																			1580014234.0	7.29	13.50
26/01/2020 04:50:35	26012020	260120	045035	52.990	12.568452	-57.434155	52.910	-0.040	-0.460	0.120	53.010	-1.800	0.700																			1580014235.0	7.52	13.93
26/01/2020 04:50:36	26012020	260120	045036	53.050	12.568475	-57.434128	52.790	0.090	-0.450	-0.270	53.050	-1.900	0.300																			1580014236.0	7.74	14.33
26/01/2020 04:50:37	26012020	260120	045037	52.940	12.568500	-57.434102	52.610	0.170	-0.290	-0.460	52.900	-1.800	0.000																			1580014237.0	7.65	14.17
26/01/2020 04:50:38	26012020	260120	045038	52.760	12.568525	-57.434077	52.560	0.250	-0.150	-0.490	52.740	-1.600	-0.100																			1580014238.0	7.46	13.82
26/01/2020 04:50:39	26012020	260120	045039	52.710	12.568548	-57.434050	52.590	0.290	-0.130	-0.400	52.710	-1.500	-0.100																			1580014239.0	7.41	13.72
26/01/2020 04:50:40	26012020	260120	045040	52.730	12.568570	-57.434023	52.670	0.210	-0.160	-0.240	52.730	-1.500	0.100																			1580014240.0	7.51	13.91
26/01/2020 04:50:41	26012020	260120	045041	52.790	12.568592	-57.433995	52.820	0.040	-0.240	-0.010	52.810	-1.600	0.300																			1580014241.0	7.60	14.08
26/01/2020 04:50:42	26012020	260120	045042	52.940	12.568613	-57.433967	52.970	-0.120	-0.240	0.350	52.970	-1.700	0.600																			1580014242.0	7.64	14.15
26/01/2020 04:50:43	26012020	260120	045043	53.080	12.568633	-57.433937	52.970	-0.240	-0.010	0.870	53.090	-1.500	1.000																			1580014243.0	7.67	14.20
26/01/2020 04:50:44	26012020	260120	045044	53.070	12.568653	-57.433907	52.890	-0.300	0.190	1.300	53.070	-1.400	1.200																			1580014244.0	7.49	13.87
26/01/2020 04:50:45	26012020	260120	045045	52.990	12.568672	-57.433878	52.950	-0.220	0.020	1.340	52.990	-1.300	1.800																			1580014245.0	7.25	13.43
26/01/2020 04:50:46	26012020	260120	045046	53.060	12.568690	-57.433848	53.050	-0.030	-0.290	1.060	53.090	-1.600	1.600																			1580014246.0	7.44	13.78
26/01/2020 04:50:47	26012020	260120	045047	53.160	12.568713	-57.433820	53.020	0.110	-0.310	0.600	53.170	-1.700	1.200																			1580014247.0	7.80	14.45
26/01/2020 04:50:48	26012020	260120	045048	53.150	12.568737	-57.433793	52.920	0.150	-0.130	0.090	53.140	-1.600	0.700																			1580014248.0	7.74	14.33
26/01/2020 04:50:49	26012020	260120	045049	53.060	12.568760	-57.433767	52.860	0.160	-0.150	-0.360	53.040	-1.500	0.200																			1580014249.0	7.37	13.65
26/01/2020 04:50:50	26012020	260120	045050	53.000	12.568785	-57.433743	52.920	0.180	-0.440	-0.790	53.010	-1.700	-0.200																			1580014250.0	7.37	13.65
26/01/2020 04:50:51	26012020	260120	045051	53.080	12.568810	-57.433717	53.080	0.170	-0.540	-1.030	53.110	-1.900	-0.600																			1580014251.0	7.78	14.41
26/01/2020 04:50:52	26012020	260120	045052	53.230	12.568837	-57.433690	53.210	0.050	-0.250	-0.860	53.260	-1.800	-0.600																			1580014252.0	7.93	14.69
26/01/2020 04:50:53	26012020	260120	045053	53.360	12.568858	-57.433662	53.310	-0.140	0.140	-0.290	53.370	-1.400	-0.200																			1580014253.0	7.54	13.96
26/01/2020 04:50:54	26012020	260120	045054	53.430	12.568877	-57.433635	53.350	-0.300	0.210	0.370	53.440	-1.200	0.500																			1580014254.0	7.17	13.28
26/01/2020 04:50:55	26012020	260120	045055	53.440	12.568895	-57.433605	53.360	-0.350	-0.020	0.830	53.440	-1.300	1.000																			1580014255.0	7.32	13.56
26/01/2020 04:50:56	26012020	260120	045056	53.440	12.568913	-57.433573	53.340	-0.250	-0.300	1.080	53.440	-1.400	1.200																			1580014256.0	7.67	14.20
26/01/2020 04:50:57	26012020	260120	045057	53.440	12.568933	-57.433543	53.330	0.000	-0.430	1.180	53.440	-1.800	1.500																			1580014257.0	7.81	14.46
26/01/2020 04:50:58	26012020	260120	045058	53.430	12.568955	-57.433513	53.330	0.270	-0.340	1.020	53.430	-1.800	1.500																			1580014258.0	7.77	14.39
26/01/2020 04:50:59	26012020	260120	045059	53.450	12.568977	-57.433485	53.300	0.420	-0.160	0.620	53.450	-1.600	1.200																			1580014259.0	7.60	14.08
26/01/2020 04:51:00	26012020	260120	045100	53.430	12.569000	-57.433458	53.260	0.430	-0.080	0.150	53.420	-1.500	0.800	1014.80	25.70	25.70	21.10	21.20	-1.00	76.00	76.00	415.00	25.30	7.00	8.90	66.00	5.10	15	3310.00	27.50	27.40	1580014260.0	7.46	13.82
26/01/2020 04:51:01	26012020	260120	045101	53.390	12.569023	-57.433433	53.280	0.270	-0.130	-0.340	53.390	-1.500	0.300																			1580014261.0	7.51	13.91
26/01/2020 04:51:02	26012020	260120	045102	53.420	12.569048	-57.433407	53.330	-0.070	-0.130	-0.670	53.430	-1.600	-0.100																			1580014262.0	7.67	14.20
26/01/2020 04:51:03	26012020	260120	045103	53.480	12.569073	-57.433380	53.390	-0.510	0.050	-0.760	53.490	-1.500	-0.400																			1580014263.0	7.73	14.32
26/01/2020 04:51:04	26012020	260120	045104	53.540	12.569097	-57.433353	53.480	-0.760	0.180	-0.620	53.550	-1.200	-0.300																			1580014264.0	7.48	13.85
26/01/2020 04:51:05	26012020	260120	045105	53.620	12.569117	-57.433327	53.630	-0.570	-0.100	-0.290	53.640	-1.300	-0.100																			1580014265.0	7.23	13.39
26/01/2020 04:51:06	26012020	260120	045106	53.750	12.569137	-57.433297	53.730	-0.050	-0.630	0.070	53.770	-1.800	0.300																			1580014266.0	7.45	13.80
26/01/2020 04:51:07	26012020	260120	045107	53.840	12.569157	-57.433265	53.700	0.370	-0.790	0.390	53.840	-2.200	0.600																			1580014267.0	8.00	14.82
26/01/2020 04:51:08	26012020	260120	045108	53.800	12.569177	-57.433233	53.470	0.400	-0.270	0.760	53.800	-2.200	0.700																			1580014268.0	8.11	15.02
26/01/2020 04:51:09	26012020	260120	045109	53.570	12.569197	-57.433203	53.170	0.130	0.340	0.970	53.500	-1.300	1.300																			1580014269.0	7.47	13.83
26/01/2020 04:51:10	26012020	260120	045110	53.260	12.569215	-57.433177	53.130	-0.030	0.260	0.680	53.260	-1.100	1.400																			1580014270.0	6.85	12.69
26/01/2020 04:51:11	26012020	260120	045111	53.230	12.569237	-57.433152	53.400	0.160	-0.460	-0.000	53.280	-1.500	0.700																			1580014271.0	7.12	13.19
26/01/2020 04:51:12	26012020	260120	045112	53.530	12.569263	-57.433125	53.580	0.430	-0.850	-0.410	53.580	-2.200	0.100																			1580014272.0	8.10	15.00
26/01/2020 04:51:13	26012020	260120	045113	53.720	12.569292	-57.433097	53.540	0.330	-0.320	-0.290	53.730	-2.100	-0.000																			1580014273.0	8.54	15.82
26/01/2020 04:51:14	26012020	260120	045114	53.670	12.569315	-57.433068	53.420	-0.170	0.500	0.140	53.640	-1.200	0.300																			1580014274.0	7.75	14.35
26/01/2020 04:51:15	26012020	260120	045115	53.530	12.569333	-57.433042	53.380	-0.610	0.650	0.460	53.510	-0.700	0.700																			1580014275.0	6.77	12.54
26/01/2020 04:51:16	26012020	260120	045116	53.490	12.569350	-57.433015	53.530	-0.580	0.030	0.430	53.510	-1.000	0.900																			1580014276.0	6.79	12.58
26/01/2020 04:51:17	26012020	260120	045117	53.650	12.569370	-57.432985	53.640	-0.230	-0.630	0.350	53.690	-1.800	0.800																			1580014277.0	7.62	14.11
26/01/2020 04:51:18	26012020	260120	045118	53.760	12.569393	-57.432955	53.550	0.100	-0.760	0.430	53.760	-2.200	0.800																			1580014278.0	8.19	15.17
26/01/2020 04:51:19	26012020	260120	045119	53.670	12.569415	-57.432925	53.410	0.190	-0.430	0.520	53.640	-2.000	0.900																			1580014279.0	7.96	14.74
26/01/2020 04:51:20	26012020	260120	045120	53.530	12.569437	-57.432897	53.420	0.100	-0.030	0.410	53.510	-1.600	0.900																			1580014280.0	7.40	13.70
26/01/2020 04:51:21	26012020	260120	045121	53.540	12.569458	-57.432872	53.500	-0.020	0.140	0.070	53.560	-1.300	0.600																			1580014281.0	7.09	13.13
26/01/2020 04:51:22	26012020	260120	045122	53.640	12.569480	-57.432845	53.580	0.000	0.010	-0.310	53.650	-1.300	0.300																			1580014282.0	7.18	13.30
26/01/2020 04:51:23	26012020	260120	045123	53.720	12.569503	-57.432820	53.650	0.180	-0.280	-0.470	53.730	-1.500	-0.000																			1580014283.0	7.51	13.91
26/01/2020 04:51:24	26012020	260120	045124	53.780	12.569528	-57.432792	53.650	0.330	-0.520	-0.320	53.780	-1.800	-0.000																			1580014284.0	7.77	14.39
26/01/2020 04:51:25	26012020	260120	045125	53.780	12.569550	-57.432763	53.620	0.270	-0.460	-0.100	53.770	-1.900	0.200																			1580014285.0	7.90	14.63
26/01/2020 04:51:26	26012020	260120	045126	53.740	12.569572	-57.432733	53.620	0.020	-0.110	0.090	53.730	-1.700	0.400																			1580014286.0	7.77	14.39
26/01/2020 04:51:27	26012020	260120	045127	53.730	12.569592	-57.432705	53.680	-0.260	0.280	0.260	53.740	-1.300	0.600																			1580014287.0	7.42	13.74
26/01/2020 04:51:28	26012020	260120	045128	53.790	12.569612	-57.432678	53.810	-0.380	0.340	0.360	53.810	-1.000	0.700																			1580014288.0	7.13	13.20
26/01/2020 04:51:29	26012020	260120	045129	53.930	12.569632	-57.432650	54.000	-0.270	-0.050	0.370	53.970	-1.200	0.800																			1580014289.0	7.18	13.30
26/01/2020 04:51:30	26012020	260120	045130	54.110	12.569653	-57.432622	54.080	-0.050	-0.500	0.390	54.140	-1.700	0.800																			1580014290.0	7.60	14.08
26/01/2020 04:51:31	26012020	260120	045131	54.200	12.569673	-57.432592	53.980	0.160	-0.620	0.440	54.200	-2.000	0.800																			1580014291.0	7.95	14.72
26/01/2020 04:51:32	26012020	260120	045132	54.100	12.569695	-57.432560	53.760	0.240	-0.390	0.450	54.060	-1.900	0.900																			1580014292.0	7.87	14.58
26/01/2020 04:51:33	26012020	260120	045133	53.880	12.569717	-57.432532	53.560	0.210	-0.010	0.300	53.830	-1.600	0.800																			1580014293.0	7.50	13.89
26/01/2020 04:51:34	26012020	260120	045134	53.680	12.569738	-57.432507	53.540	0.130	0.140	-0.130	53.680	-1.500	0.700																			1580014294.0	7.23	13.39
26/01/2020 04:51:35	26012020	260120	045135	53.690	12.569762	-57.432482	53.700	0.080	-0.080	-0.630	53.710	-1.400	-0.000																			1580014295.0	7.23	13.39
26/01/2020 04:51:36	26012020	260120	045136	53.860	12.569787	-57.432457	53.830	0.020	-0.330	-0.790	53.890	-1.600	-0.400																			1580014296.0	7.63	14.13
26/01/2020 04:51:37	26012020	260120	045137	54.000	12.569812	-57.432428	53.890	-0.130	-0.300	-0.620	54.010	-1.700	-0.300																			1580014297.0	7.93	14.69
26/01/2020 04:51:38	26012020	260120	045138	54.050	12.569833	-57.432400	53.940	-0.280	-0.160	-0.300	54.050	-1.600	-0.100																			1580014298.0	7.73	14.32
26/01/2020 04:51:39	26012020	260120	045139	54.090	12.569853	-57.432370	54.050	-0.260	-0.120	0.160	54.110	-1.500	0.300																			1580014299.0	7.42	13.74
26/01/2020 04:51:40	26012020	260120	045140	54.200	12.569872	-57.432340	54.080	-0.090	-0.170	0.710	54.220	-1.500	0.800																			1580014300.0	7.41	13.72
26/01/2020 04:51:41	26012020	260120	045141	54.210	12.569888	-57.432310	53.890	0.000	-0.120	1.110	54.180	-1.600	1.300																			1580014301.0	7.62	14.11
26/01/2020 04:51:42	26012020	260120	045142	54.010	12.569907	-57.432278	53.670	-0.010	0.010	1.200	53.970	-1.400	1.600																			1580014302.0	7.64	14.15
26/01/2020 04:51:43	26012020	260120	045143	53.810	12.569927	-57.432250	53.620	0.060	-0.060	0.900	53.780	-1.400	1.500																			1580014303.0	7.41	13.72
26/01/2020 04:51:44	26012020	260120	045144	53.770	12.569948	-57.432223	53.680	0.290	-0.370	0.290	53.780	-1.600	1.000																			1580014304.0	7.39	13.69
26/01/2020 04:51:45	26012020	260120	045145	53.840	12.569973	-57.432197	53.650	0.470	-0.500	-0.320	53.860	-1.900	0.300																			1580014305.0	7.78	14.41
26/01/2020 04:51:46	26012020	260120	045146	53.820	12.570000	-57.432170	53.490	0.380	-0.240	-0.570	53.820	-1.900	0.100																			1580014306.0	8.01	14.83
26/01/2020 04:51:47	26012020	260120	045147	53.670	12.570025	-57.432143	53.440	0.050	0.100	-0.550	53.640	-1.400	-0.200																			1580014307.0	7.64	14.15
26/01/2020 04:51:48	26012020	260120	045148	53.600	12.570047	-57.432118	53.630	-0.290	0.130	-0.580	53.620	-1.200	-0.200																			1580014308.0	7.17	13.28
26/01/2020 04:51:49	26012020	260120	045149	53.780	12.570068	-57.432092	53.870	-0.430	-0.110	-0.430	53.830	-1.400	-0.100																			1580014309.0	7.23	13.39
26/01/2020 04:51:50	26012020	260120	045150	54.020	12.570090	-57.432063	53.970	-0.380	-0.320	-0.000	54.050	-1.600	0.200																			1580014310.0	7.60	14.08
26/01/2020 04:51:51	26012020	260120	045151	54.100	12.570110	-57.432032	53.880	-0.190	-0.400	0.580	54.090	-1.800	0.700																			1580014311.0	7.79	14.43
26/01/2020 04:51:52	26012020	260120	045152	53.990	12.570128	-57.432002	53.680	0.050	-0.390	1.080	53.960	-1.800	1.300																			1580014312.0	7.70	14.26
26/01/2020 04:51:53	26012020	260120	045153	53.790	12.570145	-57.431970	53.440	0.200	-0.240	1.340	53.750	-1.700	1.600																			1580014313.0	7.64	14.15
26/01/2020 04:51:54	26012020	260120	045154	53.550	12.570163	-57.431940	53.310	0.210	-0.060	1.120	53.510	-1.500	1.700																			1580014314.0	7.55	13.98
26/01/2020 04:51:55	26012020	260120	045155	53.430	12.570185	-57.431912	53.380	0.170	-0.070	0.450	53.430	-1.400	1.200																			1580014315.0	7.39	13.69
26/01/2020 04:51:56	26012020	260120	045156	53.530	12.570210	-57.431887	53.530	0.140	-0.080	-0.220	53.560	-1.500	0.500																			1580014316.0	7.53	13.95
26/01/2020 04:51:57	26012020	260120	045157	53.680	12.570237	-57.431862	53.610	0.050	0.060	-0.690	53.710	-1.400	-0.100																			1580014317.0	7.77	14.39
26/01/2020 04:51:58	26012020	260120	045158	53.780	12.570262	-57.431837	53.640	-0.070	0.070	-0.890	53.780	-1.300	-0.300																			1580014318.0	7.55	13.98
26/01/2020 04:51:59	26012020	260120	045159	53.800	12.570283	-57.431810	53.580	-0.180	-0.200	-0.720	53.790	-1.400	-0.400																			1580014319.0	7.37	13.65
26/01/2020 04:52:00	26012020	260120	045200	53.730	12.570307	-57.431782	53.530	-0.190	-0.520	-0.400	53.730	-1.600	-0.400	1014.80	25.70	25.80	21.40	21.40	-1.00	77.00	76.00	418.00	25.30	9.00	8.80	70.00	5.00	15	3293.00	27.40	27.40	1580014320.0	7.57	14.02
26/01/2020 04:52:01	26012020	260120	045201	53.680	12.570328	-57.431752	53.640	-0.080	-0.610	-0.090	53.690	-2.000	0.100																			1580014321.0	7.82	14.48
26/01/2020 04:52:02	26012020	260120	045202	53.770	12.570348	-57.431722	53.750	0.070	-0.330	0.360	53.790	-1.900	0.500																			1580014322.0	7.80	14.45
26/01/2020 04:52:03	26012020	260120	045203	53.870	12.570368	-57.431693	53.770	0.160	0.000	0.830	53.880	-1.500	1.000																			1580014323.0	7.52	13.93
26/01/2020 04:52:04	26012020	260120	045204	53.890	12.570385	-57.431663	53.790	0.170	0.070	1.050	53.890	-1.300	1.400																			1580014324.0	7.27	13.46
26/01/2020 04:52:05	26012020	260120	045205	53.920	12.570403	-57.431633	53.790	0.110	-0.040	0.950	53.920	-1.400	1.400																			1580014325.0	7.37	13.65
26/01/2020 04:52:06	26012020	260120	045206	53.920	12.570425	-57.431605	53.710	0.000	-0.060	0.620	53.910	-1.500	1.200																			1580014326.0	7.67	14.20
26/01/2020 04:52:07	26012020	260120	045207	53.860	12.570448	-57.431577	53.650	-0.070	-0.030	0.180	53.840	-1.400	0.800																			1580014327.0	7.70	14.26
26/01/2020 04:52:08	26012020	260120	045208	53.810	12.570472	-57.431550	53.650	-0.060	-0.110	-0.250	53.810	-1.400	0.300																			1580014328.0	7.51	13.91
26/01/2020 04:52:09	26012020	260120	045209	53.820	12.570497	-57.431525	53.680	-0.020	-0.280	-0.560	53.820	-1.600	-0.000																			1580014329.0	7.50	13.89
26/01/2020 04:52:10	26012020	260120	045210	53.840	12.570520	-57.431498	53.720	-0.010	-0.420	-0.750	53.850	-1.700	-0.300																			1580014330.0	7.65	14.17
26/01/2020 04:52:11	26012020	260120	045211	53.880	12.570543	-57.431470	53.740	-0.070	-0.460	-0.760	53.890	-1.800	-0.400																			1580014331.0	7.70	14.26
26/01/2020 04:52:12	26012020	260120	045212	53.900	12.570567	-57.431443	53.750	-0.200	-0.290	-0.510	53.900	-1.800	-0.300																			1580014332.0	7.70	14.26
26/01/2020 04:52:13	26012020	260120	045213	53.900	12.570588	-57.431413	53.740	-0.280	0.020	-0.060	53.900	-1.500	0.100																			1580014333.0	7.58	14.04
26/01/2020 04:52:14	26012020	260120	045214	53.880	12.570607	-57.431385	53.730	-0.190	0.170	0.420	53.880	-1.200	0.600																			1580014334.0	7.32	13.56
26/01/2020 04:52:15	26012020	260120	045215	53.860	12.570625	-57.431357	53.740	0.030	-0.020	0.780	53.860	-1.300	1.000																			1580014335.0	7.28	13.48
26/01/2020 04:52:16	26012020	260120	045216	53.860	12.570643	-57.431327	53.770	0.260	-0.430	0.850	53.860	-1.600	1.200																			1580014336.0	7.57	14.02
26/01/2020 04:52:17	26012020	260120	045217	53.890	12.570665	-57.431295	53.810	0.410	-0.620	0.760	53.900	-2.000	1.200																			1580014337.0	7.91	14.65
26/01/2020 04:52:18	26012020	260120	045218	53.950	12.570688	-57.431265	53.840	0.430	-0.320	0.670	53.960	-1.900	1.100																			1580014338.0	8.00	14.82
26/01/2020 04:52:19	26012020	260120	045219	53.980	12.570710	-57.431238	53.800	0.260	0.170	0.530	53.980	-1.400	1.000																			1580014339.0	7.65	14.17
26/01/2020 04:52:20	26012020	260120	045220	53.940	12.570732	-57.431212	53.730	-0.050	0.350	0.300	53.930	-1.100	0.800																			1580014340.0	7.17	13.28
26/01/2020 04:52:21	26012020	260120	045221	53.880	12.570753	-57.431185	53.750	-0.320	0.110	0.030	53.880	-1.100	0.500																			1580014341.0	7.15	13.24
26/01/2020 04:52:22	26012020	260120	045222	53.910	12.570775	-57.431158	53.820	-0.400	-0.310	-0.300	53.930	-1.500	0.200																			1580014342.0	7.53	13.95
26/01/2020 04:52:23	26012020	260120	045223	53.990	12.570800	-57.431130	53.820	-0.240	-0.540	-0.480	54.000	-1.900	-0.100																			1580014343.0	7.86	14.56
26/01/2020 04:52:24	26012020	260120	045224	53.990	12.570823	-57.431102	53.770	-0.030	-0.430	-0.350	53.990	-1.900	-0.100																			1580014344.0	7.92	14.67
26/01/2020 04:52:25	26012020	260120	045225	53.940	12.570845	-57.431073	53.810	0.030	-0.180	-0.170	53.940	-1.700	0.100																			1580014345.0	7.63	14.13
26/01/2020 04:52:26	26012020	260120	045226	53.970	12.570865	-57.431045	53.900	-0.040	-0.080	-0.020	53.980	-1.500	0.300																			1580014346.0	7.32	13.56
26/01/2020 04:52:27	26012020	260120	045227	54.050	12.570885	-57.431017	54.010	-0.080	-0.170	0.180	54.080	-1.500	0.500																			1580014347.0	7.32	13.56
26/01/2020 04:52:28	26012020	260120	045228	54.160	12.570905	-57.430988	54.100	-0.010	-0.300	0.380	54.170	-1.600	0.700																			1580014348.0	7.55	13.98
26/01/2020 04:52:29	26012020	260120	045229	54.230	12.570927	-57.430958	54.100	0.090	-0.260	0.520	54.240	-1.700	0.800																			1580014349.0	7.77	14.39
26/01/2020 04:52:30	26012020	260120	045230	54.230	12.570947	-57.430928	54.020	0.140	-0.000	0.620	54.220	-1.500	1.000																			1580014350.0	7.74	14.33
26/01/2020 04:52:31	26012020	260120	045231	54.150	12.570967	-57.430900	53.950	0.150	0.140	0.570	54.130	-1.300	1.000																			1580014351.0	7.47	13.83
26/01/2020 04:52:32	26012020	260120	045232	54.080	12.570988	-57.430872	53.910	0.180	-0.050	0.300	54.080	-1.300	0.800																			1580014352.0	7.29	13.50
26/01/2020 04:52:33	26012020	260120	045233	54.050	12.571012	-57.430845	53.860	0.200	-0.400	-0.080	54.040	-1.600	0.500																			1580014353.0	7.56	14.00
26/01/2020 04:52:34	26012020	260120	045234	54.020	12.571037	-57.430818	53.900	0.150	-0.570	-0.290	54.020	-1.900	0.200																			1580014354.0	7.93	14.69
26/01/2020 04:52:35	26012020	260120	045235	54.060	12.571062	-57.430790	53.990	-0.060	-0.330	-0.250	54.080	-1.900	0.100																			1580014355.0	7.98	14.78
26/01/2020 04:52:36	26012020	260120	045236	54.150	12.571083	-57.430762	54.030	-0.430	0.210	-0.050	54.150	-1.800	0.100																			1580014356.0	7.67	14.20
26/01/2020 04:52:37	26012020	260120	045237	54.180	12.571102	-57.430733	54.010	-0.760	0.590	0.200	54.170	-0.900	0.500																			1580014357.0	7.18	13.30
26/01/2020 04:52:38	26012020	260120	045238	54.160	12.571118	-57.430705	54.050	-0.730	0.350	0.370	54.160	-0.900	0.700																			1580014358.0	6.93	12.83
26/01/2020 04:52:39	26012020	260120	045239	54.190	12.571138	-57.430677	54.080	-0.210	-0.460	0.380	54.200	-1.400	0.800																			1580014359.0	7.19	13.32
26/01/2020 04:52:40	26012020	260120	045240	54.210	12.571158	-57.430647	53.970	0.540	-1.210	0.310	54.200	-2.300	0.700																			1580014360.0	7.89	14.61
26/01/2020 04:52:41	26012020	260120	045241	54.100	12.571183	-57.430615	53.800	1.030	-1.240	0.340	54.070	-2.700	0.700																			1580014361.0	8.41	15.58
26/01/2020 04:52:42	26012020	260120	045242	53.930	12.571207	-57.430585	53.700	0.920	-0.450	0.390	53.900	-2.300	0.800																			1580014362.0	8.22	15.22
26/01/2020 04:52:43	26012020	260120	045243	53.830	12.571228	-57.430557	53.750	0.330	0.510	0.220	53.820	-1.300	0.700																			1580014363.0	7.44	13.78
26/01/2020 04:52:44	26012020	260120	045244	53.880	12.571248	-57.430533	53.860	-0.340	1.000	-0.020	53.910	-0.500	0.500																			1580014364.0	6.80	12.59
26/01/2020 04:52:45	26012020	260120	045245	54.010	12.571270	-57.430508	53.910	-0.740	0.780	-0.090	54.030	-0.400	0.300																			1580014365.0	6.81	12.61
26/01/2020 04:52:46	26012020	260120	045246	54.060	12.571292	-57.430482	53.930	-0.740	0.020	-0.000	54.060	-1.000	0.300																			1580014366.0	7.32	13.56
26/01/2020 04:52:47	26012020	260120	045247	54.080	12.571313	-57.430452	53.950	-0.350	-0.830	0.150	54.080	-1.900	0.400																			1580014367.0	7.84	14.52
26/01/2020 04:52:48	26012020	260120	045248	54.090	12.571335	-57.430420	53.910	0.180	-1.180	0.330	54.090	-2.200	0.500																			1580014368.0	8.22	15.22
26/01/2020 04:52:49	26012020	260120	045249	54.040	12.571357	-57.430388	53.780	0.460	-0.790	0.510	54.010	-2.400	0.800																			1580014369.0	8.17	15.13
26/01/2020 04:52:50	26012020	260120	045250	53.900	12.571377	-57.430358	53.660	0.300	-0.030	0.570	53.900	-2.300	0.900																			1580014370.0	7.62	14.11
26/01/2020 04:52:51	26012020	260120	045251	53.790	12.571395	-57.430332	53.620	-0.040	0.470	0.390	53.780	-1.100	0.900																			1580014371.0	6.98	12.93
26/01/2020 04:52:52	26012020	260120	045252	53.760	12.571415	-57.430307	53.700	-0.150	0.320	-0.010	53.770	-0.900	0.600																			1580014372.0	6.82	12.63
26/01/2020 04:52:53	26012020	260120	045253	53.860	12.571438	-57.430280	53.780	0.050	-0.180	-0.380	53.880	-1.300	0.200																			1580014373.0	7.31	13.54
26/01/2020 04:52:54	26012020	260120	045254	53.950	12.571462	-57.430252	53.750	0.280	-0.520	-0.500	53.960	-1.800	-0.100																			1580014374.0	7.93	14.69
26/01/2020 04:52:55	26012020	260120	045255	53.920	12.571487	-57.430223	53.640	0.260	-0.470	-0.310	53.890	-1.900	-0.100																			1580014375.0	8.08	14.96
26/01/2020 04:52:56	26012020	260120	045256	53.790	12.571508	-57.430195	53.500	0.000	-0.200	0.030	53.770	-1.700	0.200																			1580014376.0	7.74	14.33
26/01/2020 04:52:57	26012020	260120	045257	53.660	12.571528	-57.430167	53.440	-0.270	0.040	0.290	53.630	-1.400	0.600																			1580014377.0	7.36	13.63
26/01/2020 04:52:58	26012020	260120	045258	53.590	12.571548	-57.430138	53.500	-0.310	0.100	0.470	53.590	-1.300	0.800																			1580014378.0	7.23	13.39
26/01/2020 04:52:59	26012020	260120	045259	53.640	12.571568	-57.430110	53.560	-0.160	0.050	0.640	53.660	-1.300	0.900																			1580014379.0	7.36	13.63
26/01/2020 04:53:00	26012020	260120	045300	53.710	12.571588	-57.430082	53.540	-0.010	-0.140	0.710	53.710	-1.400	1.100	1014.70	25.70	25.80	21.30	21.30	0.00	76.00	76.00	420.00	25.30	9.00	9.40	69.00	5.60	15	3241.00	27.40	27.40	1580014380.0	7.52	13.93
26/01/2020 04:53:01	26012020	260120	045301	53.690	12.571608	-57.430052	53.480	0.050	-0.430	0.650	53.670	-1.700	1.100																			1580014381.0	7.59	14.06
26/01/2020 04:53:02	26012020	260120	045302	53.620	12.571630	-57.430022	53.480	0.100	-0.610	0.390	53.610	-2.000	0.900																			1580014382.0	7.73	14.32
26/01/2020 04:53:03	26012020	260120	045303	53.630	12.571653	-57.429993	53.560	0.210	-0.470	0.070	53.650	-2.000	0.600																			1580014383.0	7.79	14.43
26/01/2020 04:53:04	26012020	260120	045304	53.720	12.571677	-57.429967	53.500	0.260	-0.030	0.050	53.730	-1.700	0.400																			1580014384.0	7.65	14.17
26/01/2020 04:53:05	26012020	260120	045305	53.660	12.571698	-57.429940	53.200	0.130	0.320	0.230	53.610	-1.200	0.500																			1580014385.0	7.35	13.61
26/01/2020 04:53:06	26012020	260120	045306	53.360	12.571718	-57.429913	53.050	-0.070	0.100	0.120	53.290	-1.100	0.600																			1580014386.0	7.10	13.15
26/01/2020 04:53:07	26012020	260120	045307	53.190	12.571740	-57.429885	53.270	-0.100	-0.500	-0.330	53.210	-1.600	0.300																			1580014387.0	7.35	13.61
26/01/2020 04:53:08	26012020	260120	045308	53.410	12.571765	-57.429857	53.450	-0.050	-0.570	-0.570	53.470	-2.000	-0.100																			1580014388.0	8.06	14.93
26/01/2020 04:53:09	26012020	260120	045309	53.590	12.571790	-57.429828	53.370	-0.110	0.010	-0.420	53.590	-1.700	-0.200																			1580014389.0	8.14	15.08
26/01/2020 04:53:10	26012020	260120	045310	53.510	12.571810	-57.429802	53.260	-0.240	0.430	-0.130	53.480	-1.100	0.100																			1580014390.0	7.30	13.52
26/01/2020 04:53:11	26012020	260120	045311	53.380	12.571828	-57.429775	53.290	-0.200	0.120	0.080	53.370	-1.100	0.400																			1580014391.0	6.79	12.58
26/01/2020 04:53:12	26012020	260120	045312	53.390	12.571848	-57.429747	53.270	0.020	-0.450	0.350	53.390	-1.200	0.400																			1580014392.0	7.27	13.46
26/01/2020 04:53:13	26012020	260120	045313	53.370	12.571870	-57.429717	53.100	0.210	-0.670	0.640	53.340	-2.000	0.900																			1580014393.0	7.97	14.76
26/01/2020 04:53:14	26012020	260120	045314	53.190	12.571892	-57.429685	52.970	0.260	-0.540	0.660	53.190	-2.100	1.000																			1580014394.0	7.96	14.74
26/01/2020 04:53:15	26012020	260120	045315	53.060	12.571913	-57.429657	53.030	0.250	-0.360	0.390	53.060	-1.800	0.900																			1580014395.0	7.54	13.96
26/01/2020 04:53:16	26012020	260120	045316	53.120	12.571937	-57.429632	53.140	0.220	-0.230	0.060	53.150	-1.700	0.600																			1580014396.0	7.40	13.70
26/01/2020 04:53:17	26012020	260120	045317	53.250	12.571960	-57.429605	53.130	0.110	0.000	-0.070	53.260	-1.500	0.300																			1580014397.0	7.55	13.98
26/01/2020 04:53:18	26012020	260120	045318	53.240	12.571983	-57.429578	52.990	-0.130	0.360	0.050	53.220	-1.200	0.400																			1580014398.0	7.60	14.08
26/01/2020 04:53:19	26012020	260120	045319	53.100	12.572005	-57.429552	52.970	-0.340	0.420	0.120	53.080	-0.900	0.500																			1580014399.0	7.32	13.56
26/01/2020 04:53:20	26012020	260120	045320	53.060	12.572025	-57.429523	53.120	-0.320	0.000	0.010	53.080	-1.200	0.400																			1580014400.0	7.17	13.28
26/01/2020 04:53:21	26012020	260120	045321	53.210	12.572047	-57.429495	53.280	-0.120	-0.480	-0.140	53.250	-1.700	0.300																			1580014401.0	7.57	14.02
26/01/2020 04:53:22	26012020	260120	045322	53.380	12.572070	-57.429467	53.340	0.060	-0.640	-0.220	53.400	-2.000	0.200																			1580014402.0	7.94	14.70
26/01/2020 04:53:23	26012020	260120	045323	53.440	12.572092	-57.429437	53.250	0.130	-0.460	-0.120	53.440	-2.000	0.200																			1580014403.0	7.82	14.48
26/01/2020 04:53:24	26012020	260120	045324	53.360	12.572113	-57.429410	53.020	0.100	-0.120	0.160	53.320	-1.700	0.400																			1580014404.0	7.48	13.85
26/01/2020 04:53:25	26012020	260120	045325	53.120	12.572133	-57.429383	52.830	0.070	-0.010	0.310	53.070	-1.400	0.600																			1580014405.0	7.21	13.35
26/01/2020 04:53:26	26012020	260120	045326	52.930	12.572155	-57.429355	52.880	0.140	-0.280	0.180	52.930	-1.400	0.700																			1580014406.0	7.22	13.37
26/01/2020 04:53:27	26012020	260120	045327	52.970	12.572178	-57.429328	53.090	0.210	-0.460	-0.040	53.000	-1.800	0.400																			1580014407.0	7.67	14.20
26/01/2020 04:53:28	26012020	260120	045328	53.190	12.572203	-57.429300	53.280	0.110	-0.150	-0.100	53.230	-1.700	0.300																			1580014408.0	8.02	14.85
26/01/2020 04:53:29	26012020	260120	045329	53.370	12.572225	-57.429272	53.350	-0.160	0.290	0.070	53.390	-1.300	0.300																			1580014409.0	7.64	14.15
26/01/2020 04:53:30	26012020	260120	045330	53.440	12.572245	-57.429245	53.380	-0.320	0.290	0.250	53.450	-1.000	0.600																			1580014410.0	7.06	13.08
26/01/2020 04:53:31	26012020	260120	045331	53.460	12.572265	-57.429218	53.400	-0.170	-0.150	0.300	53.470	-1.300	0.700																			1580014411.0	7.16	13.26
26/01/2020 04:53:32	26012020	260120	045332	53.480	12.572287	-57.429188	53.450	0.130	-0.570	0.210	53.480	-1.800	0.600																			1580014412.0	7.69	14.24
26/01/2020 04:53:33	26012020	260120	045333	53.540	12.572310	-57.429158	53.540	0.300	-0.600	0.120	53.560	-2.000	0.500																			1580014413.0	8.02	14.85
26/01/2020 04:53:34	26012020	260120	045334	53.640	12.572333	-57.429130	53.500	0.210	-0.200	0.200	53.650	-1.800	0.500																			1580014414.0	7.84	14.52
26/01/2020 04:53:35	26012020	260120	045335	53.610	12.572353	-57.429103	53.310	-0.050	0.230	0.290	53.580	-1.300	0.600																			1580014415.0	7.38	13.67
26/01/2020 04:53:36	26012020	260120	045336	53.420	12.572375	-57.429077	53.220	-0.220	0.190	0.160	53.380	-1.100	0.600																			1580014416.0	7.01	12.98
26/01/2020 04:53:37	26012020	260120	045337	53.330	12.572397	-57.429052	53.410	-0.130	-0.300	-0.150	53.340	-1.500	0.400																			1580014417.0	7.21	13.35
26/01/2020 04:53:38	26012020	260120	045338	53.510	12.572420	-57.429023	53.680	0.070	-0.650	-0.420	53.510	-1.600	0.300																			1580014418.0	7.79	14.43
26/01/2020 04:53:39	26012020	260120	045339	53.790	12.572443	-57.428993	53.770	0.120	-0.460	-0.450	53.840	-2.000	-0.100																			1580014419.0	8.10	15.00
26/01/2020 04:53:40	26012020	260120	045340	53.890	12.572467	-57.428965	53.650	-0.030	-0.040	-0.240	53.890	-1.900	-0.100																			1580014420.0	7.73	14.32
26/01/2020 04:53:41	26012020	260120	045341	53.770	12.572487	-57.428938	53.500	-0.180	0.180	-0.020	53.740	-1.300	0.300																			1580014421.0	7.21	13.35
26/01/2020 04:53:42	26012020	260120	045342	53.610	12.572507	-57.428910	53.460	-0.160	0.120	0.040	53.590	-1.200	0.400																			1580014422.0	7.18	13.30
26/01/2020 04:53:43	26012020	260120	045343	53.570	12.572527	-57.428883	53.590	0.040	-0.090	-0.040	53.590	-1.400	0.400																			1580014423.0	7.46	13.82
26/01/2020 04:53:44	26012020	260120	045344	53.700	12.572550	-57.428855	53.740	0.200	-0.240	-0.070	53.740	-1.600	0.300																			1580014424.0	7.68	14.22
26/01/2020 04:53:45	26012020	260120	045345	53.850	12.572573	-57.428827	53.730	0.190	-0.280	0.050	53.860	-1.700	0.400																			1580014425.0	7.73	14.32
26/01/2020 04:53:46	26012020	260120	045346	53.830	12.572595	-57.428798	53.650	0.060	-0.350	0.220	53.810	-1.700	0.500																			1580014426.0	7.59	14.06
26/01/2020 04:53:47	26012020	260120	045347	53.760	12.572615	-57.428770	53.710	0.010	-0.540	0.320	53.760	-1.800	0.700																			1580014427.0	7.49	13.87
26/01/2020 04:53:48	26012020	260120	045348	53.810	12.572637	-57.428742	53.800	0.050	-0.500	0.360	53.830	-2.000	0.700																			1580014428.0	7.67	14.20
26/01/2020 04:53:49	26012020	260120	045349	53.900	12.572658	-57.428712	53.830	-0.010	-0.040	0.340	53.920	-1.700	0.700																			1580014429.0	7.82	14.48
26/01/2020 04:53:50	26012020	260120	045350	53.940	12.572680	-57.428683	53.760	-0.210	0.460	0.290	53.940	-1.100	0.700																			1580014430.0	7.46	13.82
26/01/2020 04:53:51	26012020	260120	045351	53.870	12.572700	-57.428657	53.670	-0.350	0.500	0.210	53.840	-0.800	0.600																			1580014431.0	7.04	13.04
26/01/2020 04:53:52	26012020	260120	045352	53.770	12.572720	-57.428630	53.740	-0.190	-0.130	-0.070	53.770	-1.200	0.500																			1580014432.0	7.08	13.11
26/01/2020 04:53:53	26012020	260120	045353	53.850	12.572743	-57.428602	53.870	0.200	-0.890	-0.440	53.880	-2.000	0.100																			1580014433.0	7.68	14.22
26/01/2020 04:53:54	26012020	260120	045354	53.990	12.572768	-57.428573	53.940	0.470	-0.950	-0.610	54.010	-2.400	-0.200																			1580014434.0	8.35	15.46
26/01/2020 04:53:55	26012020	260120	045355	54.060	12.572795	-57.428543	53.910	0.330	-0.250	-0.500	54.060	-2.000	-0.200																			1580014435.0	8.21	15.20
26/01/2020 04:53:56	26012020	260120	045356	54.030	12.572815	-57.428517	53.910	-0.120	0.470	-0.310	54.020	-1.200	-0.000																			1580014436.0	7.31	13.54
26/01/2020 04:53:57	26012020	260120	045357	54.030	12.572833	-57.428492	54.030	-0.510	0.610	-0.150	54.040	-0.800	0.200																			1580014437.0	6.69	12.39
26/01/2020 04:53:58	26012020	260120	045358	54.140	12.572853	-57.428465	54.150	-0.540	0.220	0.010	54.160	-0.900	0.300																			1580014438.0	6.91	12.80
26/01/2020 04:53:59	26012020	260120	045359	54.260	12.572875	-57.428437	54.220	-0.160	-0.440	0.190	54.270	-1.500	0.500																			1580014439.0	7.50	13.89
26/01/2020 04:54:00	26012020	260120	045400	54.310	12.572897	-57.428407	54.170	0.400	-0.980	0.500	54.310	-2.200	0.700	1014.70	25.70	25.80	21.10	21.20	0.00	75.00	75.00	422.00	25.30	14.00	9.70	77.00	6.00	15	3222.00	27.40	27.40	1580014440.0	7.92	14.67
26/01/2020 04:54:01	26012020	260120	045401	54.260	12.572918	-57.428375	54.130	0.650	-0.940	0.760	54.250	-2.400	1.000																			1580014441.0	8.14	15.08
26/01/2020 04:54:02	26012020	260120	045402	54.210	12.572940	-57.428345	54.180	0.430	-0.380	0.780	54.210	-2.400	1.100																			1580014442.0	7.93	14.69
26/01/2020 04:54:03	26012020	260120	045403	54.260	12.572958	-57.428317	54.250	-0.010	0.240	0.600	54.280	-1.400	1.100																			1580014443.0	7.32	13.56
26/01/2020 04:54:04	26012020	260120	045404	54.340	12.572978	-57.428290	54.270	-0.310	0.510	0.270	54.340	-1.200	1.000																			1580014444.0	6.94	12.85
26/01/2020 04:54:05	26012020	260120	045405	54.360	12.573000	-57.428265	54.270	-0.350	0.390	-0.120	54.370	-0.900	0.400																			1580014445.0	7.11	13.17
26/01/2020 04:54:06	26012020	260120	045406	54.380	12.573023	-57.428238	54.320	-0.240	0.020	-0.410	54.390	-1.200	0.100																			1580014446.0	7.49	13.87
26/01/2020 04:54:07	26012020	260120	045407	54.430	12.573048	-57.428212	54.360	-0.100	-0.380	-0.540	54.440	-1.600	-0.100																			1580014447.0	7.76	14.37
26/01/2020 04:54:08	26012020	260120	045408	54.480	12.573072	-57.428182	54.450	-0.000	-0.570	-0.650	54.500	-1.900	-0.200																			1580014448.0	7.85	14.54
26/01/2020 04:54:09	26012020	260120	045409	54.560	12.573093	-57.428153	54.540	0.050	-0.530	-0.640	54.580	-2.000	-0.300																			1580014449.0	7.74	14.33
26/01/2020 04:54:10	26012020	260120	045410	54.650	12.573113	-57.428125	54.590	0.060	-0.310	-0.430	54.670	-1.800	-0.200																			1580014450.0	7.53	13.95
26/01/2020 04:54:11	26012020	260120	045411	54.700	12.573133	-57.428097	54.550	0.030	-0.020	-0.080	54.700	-1.500	0.100																			1580014451.0	7.38	13.67
26/01/2020 04:54:12	26012020	260120	045412	54.650	12.573153	-57.428068	54.450	0.040	0.100	0.300	54.630	-1.300	0.500																			1580014452.0	7.26	13.45
26/01/2020 04:54:13	26012020	260120	045413	54.550	12.573173	-57.428040	54.410	0.150	-0.080	0.550	54.540	-1.400	0.800																			1580014453.0	7.27	13.46
26/01/2020 04:54:14	26012020	260120	045414	54.500	12.573193	-57.428012	54.390	0.210	-0.360	0.600	54.500	-1.600	1.000																			1580014454.0	7.52	13.93
26/01/2020 04:54:15	26012020	260120	045415	54.490	12.573215	-57.427982	54.370	0.130	-0.450	0.590	54.480	-1.800	1.000																			1580014455.0	7.82	14.48
26/01/2020 04:54:16	26012020	260120	045416	54.460	12.573237	-57.427952	54.310	-0.050	-0.220	0.560	54.460	-1.900	1.000																			1580014456.0	7.82	14.48
26/01/2020 04:54:17	26012020	260120	045417	54.420	12.573258	-57.427923	54.310	-0.220	0.130	0.430	54.420	-1.400	0.900																			1580014457.0	7.55	13.98
26/01/2020 04:54:18	26012020	260120	045418	54.420	12.573278	-57.427897	54.370	-0.230	0.190	0.230	54.430	-1.200	0.700																			1580014458.0	7.21	13.35
26/01/2020 04:54:19	26012020	260120	045419	54.480	12.573300	-57.427870	54.460	-0.030	-0.130	0.010	54.500	-1.400	0.500																			1580014459.0	7.20	13.33
26/01/2020 04:54:20	26012020	260120	045420	54.580	12.573320	-57.427842	54.440	0.200	-0.470	-0.160	54.600	-1.700	0.300																			1580014460.0	7.60	14.08
26/01/2020 04:54:21	26012020	260120	045421	54.570	12.573343	-57.427812	54.220	0.230	-0.470	-0.200	54.540	-1.900	0.200																			1580014461.0	7.95	14.72
26/01/2020 04:54:22	26012020	260120	045422	54.360	12.573365	-57.427782	54.050	0.100	-0.200	-0.240	54.310	-1.700	0.200																			1580014462.0	7.79	14.43
26/01/2020 04:54:23	26012020	260120	045423	54.170	12.573387	-57.427755	54.010	-0.060	0.060	-0.290	54.160	-1.400	0.100																			1580014463.0	7.42	13.74
26/01/2020 04:54:24	26012020	260120	045424	54.140	12.573410	-57.427728	54.050	-0.170	0.090	-0.290	54.150	-1.300	0.100																			1580014464.0	7.24	13.41
26/01/2020 04:54:25	26012020	260120	045425	54.180	12.573430	-57.427702	54.170	-0.200	-0.140	-0.160	54.200	-1.400	0.100																			1580014465.0	7.32	13.56
26/01/2020 04:54:26	26012020	260120	045426	54.290	12.573452	-57.427673	54.280	-0.200	-0.300	0.110	54.310	-1.600	0.300																			1580014466.0	7.62	14.11
26/01/2020 04:54:27	26012020	260120	045427	54.390	12.573472	-57.427643	54.310	-0.170	-0.240	0.440	54.400	-1.700	0.600																			1580014467.0	7.77	14.39
26/01/2020 04:54:28	26012020	260120	045428	54.410	12.573492	-57.427613	54.180	-0.030	-0.160	0.800	54.410	-1.600	0.800																			1580014468.0	7.55	13.98
26/01/2020 04:54:29	26012020	260120	045429	54.280	12.573510	-57.427583	53.920	0.180	-0.190	1.000	54.230	-1.600	1.300																			1580014469.0	7.39	13.69
26/01/2020 04:54:30	26012020	260120	045430	54.000	12.573528	-57.427553	53.680	0.370	-0.330	0.870	54.000	-1.600	1.400																			1580014470.0	7.49	13.87
26/01/2020 04:54:31	26012020	260120	045431	53.760	12.573550	-57.427525	53.620	0.460	-0.420	0.500	53.740	-1.800	1.100																			1580014471.0	7.67	14.20
26/01/2020 04:54:32	26012020	260120	045432	53.720	12.573575	-57.427498	53.780	0.370	-0.330	-0.020	53.730	-1.800	0.600																			1580014472.0	7.79	14.43
26/01/2020 04:54:33	26012020	260120	045433	53.890	12.573600	-57.427472	54.000	0.070	-0.080	-0.500	53.940	-1.600	0.100																			1580014473.0	7.73	14.32
26/01/2020 04:54:34	26012020	260120	045434	54.120	12.573623	-57.427445	54.140	-0.300	0.240	-0.630	54.160	-1.300	-0.300																			1580014474.0	7.54	13.96
26/01/2020 04:54:35	26012020	260120	045435	54.260	12.573647	-57.427420	54.140	-0.540	0.410	-0.330	54.270	-1.000	-0.100																			1580014475.0	7.31	13.54
26/01/2020 04:54:36	26012020	260120	045436	54.250	12.573665	-57.427392	53.990	-0.570	0.250	0.140	54.220	-1.000	0.300																			1580014476.0	7.23	13.39
26/01/2020 04:54:37	26012020	260120	045437	54.090	12.573683	-57.427362	53.820	-0.370	-0.270	0.490	54.050	-1.400	0.700																			1580014477.0	7.40	13.70
26/01/2020 04:54:38	26012020	260120	045438	53.910	12.573703	-57.427330	53.770	0.010	-0.860	0.580	53.890	-2.000	0.900																			1580014478.0	7.73	14.32
26/01/2020 04:54:39	26012020	260120	045439	53.860	12.573723	-57.427300	53.800	0.370	-0.960	0.510	53.860	-2.400	0.900																			1580014479.0	8.06	14.93
26/01/2020 04:54:40	26012020	260120	045440	53.890	12.573747	-57.427268	53.810	0.440	-0.360	0.440	53.900	-2.100	0.800																			1580014480.0	8.01	14.83
26/01/2020 04:54:41	26012020	260120	045441	53.920	12.573768	-57.427242	53.820	0.240	0.410	0.340	53.920	-1.300	0.800																			1580014481.0	7.40	13.70
26/01/2020 04:54:42	26012020	260120	045442	53.920	12.573788	-57.427217	53.810	0.030	0.490	0.190	53.920	-0.800	0.600																			1580014482.0	6.76	12.52
26/01/2020 04:54:43	26012020	260120	045443	53.920	12.573810	-57.427192	53.810	0.010	-0.180	0.010	53.920	-1.200	0.500																			1580014483.0	6.94	12.85
26/01/2020 04:54:44	26012020	260120	045444	53.920	12.573833	-57.427163	53.780	0.090	-0.810	-0.050	53.920	-1.500	0.400																			1580014484.0	7.85	14.54
26/01/2020 04:54:45	26012020	260120	045445	53.890	12.573858	-57.427133	53.630	0.040	-0.690	0.190	53.870	-2.200	0.400																			1580014485.0	8.43	15.61
26/01/2020 04:54:46	26012020	260120	045446	53.750	12.573880	-57.427103	53.530	-0.230	-0.010	0.440	53.710	-1.700	0.700																			1580014486.0	8.06	14.93
26/01/2020 04:54:47	26012020	260120	045447	53.640	12.573898	-57.427075	53.640	-0.500	0.470	0.400	53.650	-1.100	0.800																			1580014487.0	7.19	13.32
26/01/2020 04:54:48	26012020	260120	045448	53.750	12.573917	-57.427048	53.860	-0.490	0.450	0.190	53.790	-0.900	0.700																			1580014488.0	6.82	12.63
26/01/2020 04:54:49	26012020	260120	045449	53.970	12.573938	-57.427022	54.000	-0.180	0.160	0.080	54.010	-1.100	0.500																			1580014489.0	7.18	13.30
26/01/2020 04:54:50	26012020	260120	045450	54.110	12.573958	-57.426993	53.960	0.200	-0.310	0.070	54.120	-1.500	0.400																			1580014490.0	7.57	14.02
26/01/2020 04:54:51	26012020	260120	045451	54.080	12.573980	-57.426963	53.810	0.450	-0.790	0.010	54.050	-2.000	0.400																			1580014491.0	7.75	14.35
26/01/2020 04:54:52	26012020	260120	045452	53.920	12.574003	-57.426933	53.620	0.530	-0.950	-0.100	53.920	-2.100	0.400																			1580014492.0	7.91	14.65
26/01/2020 04:54:53	26012020	260120	045453	53.740	12.574027	-57.426905	53.480	0.500	-0.580	-0.150	53.710	-2.200	0.200																			1580014493.0	7.91	14.65
26/01/2020 04:54:54	26012020	260120	045454	53.610	12.574050	-57.426878	53.490	0.340	-0.040	-0.110	53.610	-2.000	0.200																			1580014494.0	7.55	13.98
26/01/2020 04:54:55	26012020	260120	045455	53.610	12.574072	-57.426853	53.660	-0.000	0.320	-0.020	53.630	-1.200	0.300																			1580014495.0	7.20	13.33
26/01/2020 04:54:56	26012020	260120	045456	53.780	12.574093	-57.426827	53.870	-0.490	0.480	0.170	53.830	-1.000	0.400																			1580014496.0	7.23	13.39
26/01/2020 04:54:57	26012020	260120	045457	53.990	12.574113	-57.426798	53.940	-0.890	0.430	0.520	54.010	-0.900	0.700																			1580014497.0	7.35	13.61
26/01/2020 04:54:58	26012020	260120	045458	54.040	12.574132	-57.426768	53.950	-0.950	0.150	0.770	54.040	-1.100	1.100																			1580014498.0	7.40	13.70
26/01/2020 04:54:59	26012020	260120	045459	54.050	12.574148	-57.426738	53.920	-0.550	-0.390	0.820	54.050	-1.500	1.200																			1580014499.0	7.50	13.89
26/01/2020 04:55:00	26012020	260120	045500	54.010	12.574168	-57.426707	53.740	0.170	-0.930	0.810	53.990	-2.100	1.200	1014.70	25.80	25.80	21.40	21.40	0.00	76.00	76.00	423.00	25.30	8.00	9.60	68.00	5.80	15	3183.00	27.40	27.40	1580014500.0	7.67	14.20
26/01/2020 04:55:01	26012020	260120	045501	53.830	12.574190	-57.426677	53.530	0.840	-1.110	0.640	53.780	-2.500	1.100																			1580014501.0	7.95	14.72
26/01/2020 04:55:02	26012020	260120	045502	53.630	12.574213	-57.426647	53.470	1.100	-0.780	0.200	53.600	-2.400	0.800																			1580014502.0	7.98	14.78
26/01/2020 04:55:03	26012020	260120	045503	53.590	12.574237	-57.426620	53.540	0.860	-0.110	-0.310	53.600	-1.800	0.300																			1580014503.0	7.70	14.26
26/01/2020 04:55:04	26012020	260120	045504	53.660	12.574262	-57.426595	53.600	0.280	0.600	-0.610	53.690	-1.100	-0.100																			1580014504.0	7.35	13.61
26/01/2020 04:55:05	26012020	260120	045505	53.730	12.574285	-57.426572	53.610	-0.360	0.950	-0.630	53.750	-0.500	-0.300																			1580014505.0	7.08	13.11
26/01/2020 04:55:06	26012020	260120	045506	53.740	12.574307	-57.426547	53.580	-0.730	0.590	-0.370	53.740	-0.500	-0.300																			1580014506.0	7.00	12.96
26/01/2020 04:55:07	26012020	260120	045507	53.700	12.574327	-57.426520	53.580	-0.680	-0.290	0.020	53.690	-1.300	0.200																			1580014507.0	7.35	13.61
26/01/2020 04:55:08	26012020	260120	045508	53.680	12.574348	-57.426488	53.570	-0.360	-0.950	0.480	53.680	-2.100	0.600																			1580014508.0	8.01	14.83
26/01/2020 04:55:09	26012020	260120	045509	53.660	12.574368	-57.426455	53.490	-0.090	-0.860	0.950	53.650	-2.400	1.100																			1580014509.0	8.30	15.37
26/01/2020 04:55:10	26012020	260120	045510	53.570	12.574387	-57.426423	53.400	0.020	-0.370	1.220	53.550	-2.000	1.500																			1580014510.0	7.82	14.48
26/01/2020 04:55:11	26012020	260120	045511	53.480	12.574403	-57.426393	53.350	0.100	-0.020	1.100	53.470	-1.500	1.600																			1580014511.0	7.12	13.19
26/01/2020 04:55:12	26012020	260120	045512	53.440	12.574423	-57.426367	53.300	0.210	0.060	0.670	53.430	-1.400	1.300																			1580014512.0	7.01	12.98
26/01/2020 04:55:13	26012020	260120	045513	53.400	12.574445	-57.426340	53.250	0.290	0.000	0.090	53.390	-1.400	0.700																			1580014513.0	7.36	13.63
26/01/2020 04:55:14	26012020	260120	045514	53.370	12.574470	-57.426315	53.200	0.340	-0.210	-0.350	53.360	-1.500	0.200																			1580014514.0	7.60	14.08
26/01/2020 04:55:15	26012020	260120	045515	53.330	12.574495	-57.426288	53.130	0.320	-0.470	-0.560	53.320	-1.800	-0.100																			1580014515.0	7.75	14.35
26/01/2020 04:55:16	26012020	260120	045516	53.270	12.574520	-57.426260	53.060	0.200	-0.470	-0.590	53.250	-1.900	-0.200																			1580014516.0	7.89	14.61
26/01/2020 04:55:17	26012020	260120	045517	53.190	12.574543	-57.426232	53.000	-0.040	-0.140	-0.410	53.170	-1.700	-0.100																			1580014517.0	7.83	14.50
26/01/2020 04:55:18	26012020	260120	045518	53.120	12.574563	-57.426203	52.980	-0.290	0.300	-0.060	53.120	-1.600	-0.100																			1580014518.0	7.51	13.91
26/01/2020 04:55:19	26012020	260120	045519	53.090	12.574583	-57.426177	52.990	-0.410	0.460	0.250	53.090	-0.900	0.500																			1580014519.0	7.17	13.28
26/01/2020 04:55:20	26012020	260120	045520	53.090	12.574602	-57.426148	53.070	-0.330	0.150	0.390	53.090	-0.900	0.600																			1580014520.0	7.14	13.22
26/01/2020 04:55:21	26012020	260120	045521	53.170	12.574622	-57.426118	53.180	-0.080	-0.380	0.510	53.200	-1.500	0.800																			1580014521.0	7.46	13.82
26/01/2020 04:55:22	26012020	260120	045522	53.270	12.574643	-57.426088	53.130	0.160	-0.680	0.670	53.280	-2.000	1.000																			1580014522.0	7.86	14.56
26/01/2020 04:55:23	26012020	260120	045523	53.220	12.574665	-57.426058	52.930	0.230	-0.510	0.830	53.190	-2.000	1.100																			1580014523.0	7.94	14.70
26/01/2020 04:55:24	26012020	260120	045524	53.010	12.574687	-57.426030	52.730	0.120	-0.150	0.860	52.970	-1.700	1.200																			1580014524.0	7.58	14.04
26/01/2020 04:55:25	26012020	260120	045525	52.820	12.574707	-57.426003	52.670	0.030	-0.060	0.620	52.790	-1.400	1.100																			1580014525.0	7.16	13.26
26/01/2020 04:55:26	26012020	260120	045526	52.760	12.574728	-57.425978	52.720	0.100	-0.300	0.240	52.770	-1.500	0.800																			1580014526.0	7.20	13.33
26/01/2020 04:55:27	26012020	260120	045527	52.820	12.574752	-57.425950	52.780	0.210	-0.530	-0.090	52.830	-1.800	0.400																			1580014527.0	7.67	14.20
26/01/2020 04:55:28	26012020	260120	045528	52.880	12.574777	-57.425922	52.810	0.180	-0.420	-0.250	52.890	-1.900	0.200																			1580014528.0	7.99	14.80
26/01/2020 04:55:29	26012020	260120	045529	52.930	12.574800	-57.425893	52.800	-0.050	0.080	-0.190	52.930	-1.600	0.100																			1580014529.0	7.87	14.58
26/01/2020 04:55:30	26012020	260120	045530	52.910	12.574822	-57.425865	52.690	-0.350	0.640	-0.050	52.890	-1.000	0.300																			1580014530.0	7.44	13.78
26/01/2020 04:55:31	26012020	260120	045531	52.800	12.574840	-57.425840	52.680	-0.470	0.730	0.040	52.780	-0.600	0.400																			1580014531.0	7.01	12.98
26/01/2020 04:55:32	26012020	260120	045532	52.780	12.574860	-57.425813	52.800	-0.290	0.120	0.030	52.800	-0.900	0.400																			1580014532.0	6.97	12.91
26/01/2020 04:55:33	26012020	260120	045533	52.890	12.574882	-57.425785	52.880	0.090	-0.770	0.020	52.920	-1.800	0.400																			1580014533.0	7.51	13.91
26/01/2020 04:55:34	26012020	260120	045534	52.980	12.574905	-57.425755	52.810	0.390	-1.220	0.160	52.980	-2.500	0.400																			1580014534.0	8.12	15.04
26/01/2020 04:55:35	26012020	260120	045535	52.910	12.574928	-57.425723	52.630	0.440	-0.910	0.480	52.870	-2.500	0.700																			1580014535.0	8.22	15.22
26/01/2020 04:55:36	26012020	260120	045536	52.710	12.574950	-57.425695	52.520	0.290	-0.270	0.650	52.670	-2.000	1.000																			1580014536.0	7.69	14.24
26/01/2020 04:55:37	26012020	260120	045537	52.600	12.574970	-57.425668	52.550	0.110	0.200	0.510	52.600	-1.400	1.000																			1580014537.0	7.13	13.20
26/01/2020 04:55:38	26012020	260120	045538	52.630	12.574993	-57.425643	52.660	-0.010	0.390	0.300	52.650	-1.100	0.800																			1580014538.0	7.12	13.19
26/01/2020 04:55:39	26012020	260120	045539	52.750	12.575015	-57.425617	52.820	-0.110	0.370	0.180	52.780	-1.000	0.600																			1580014539.0	7.38	13.67
26/01/2020 04:55:40	26012020	260120	045540	52.910	12.575038	-57.425590	52.900	-0.290	0.160	0.170	52.940	-1.100	0.500																			1580014540.0	7.55	13.98
26/01/2020 04:55:41	26012020	260120	045541	52.990	12.575058	-57.425560	52.890	-0.450	-0.230	0.170	52.990	-1.400	0.500																			1580014541.0	7.62	14.11
26/01/2020 04:55:42	26012020	260120	045542	52.980	12.575080	-57.425532	52.840	-0.430	-0.550	0.150	52.970	-1.800	0.500																			1580014542.0	7.73	14.32
26/01/2020 04:55:43	26012020	260120	045543	52.920	12.575103	-57.425502	52.810	-0.190	-0.550	0.150	52.920	-2.000	0.500																			1580014543.0	7.85	14.54
26/01/2020 04:55:44	26012020	260120	045544	52.900	12.575125	-57.425473	52.880	0.130	-0.340	0.080	52.900	-2.000	0.500																			1580014544.0	7.67	14.20
26/01/2020 04:55:45	26012020	260120	045545	52.970	12.575145	-57.425445	52.930	0.330	-0.120	-0.060	52.990	-1.600	0.400																			1580014545.0	7.39	13.69
26/01/2020 04:55:46	26012020	260120	045546	53.030	12.575167	-57.425418	52.840	0.330	0.010	-0.130	53.030	-1.400	0.300																			1580014546.0	7.32	13.56
26/01/2020 04:55:47	26012020	260120	045547	52.940	12.575188	-57.425392	52.700	0.230	-0.030	-0.180	52.920	-1.400	0.200																			1580014547.0	7.41	13.72
26/01/2020 04:55:48	26012020	260120	045548	52.810	12.575213	-57.425365	52.590	0.170	-0.210	-0.200	52.780	-1.500	0.200																			1580014548.0	7.55	13.98
26/01/2020 04:55:49	26012020	260120	045549	52.700	12.575237	-57.425338	52.630	0.110	-0.360	-0.140	52.700	-1.700	0.200																			1580014549.0	7.75	14.35
26/01/2020 04:55:50	26012020	260120	045550	52.730	12.575260	-57.425310	52.840	-0.020	-0.380	-0.010	52.770	-1.800	0.300																			1580014550.0	7.81	14.46
26/01/2020 04:55:51	26012020	260120	045551	52.940	12.575282	-57.425280	53.020	-0.190	-0.180	0.240	52.990	-1.700	0.500																			1580014551.0	7.71	14.28
26/01/2020 04:55:52	26012020	260120	045552	53.120	12.575302	-57.425252	53.000	-0.320	0.130	0.660	53.130	-1.400	0.800																			1580014552.0	7.54	13.96
26/01/2020 04:55:53	26012020	260120	045553	53.090	12.575322	-57.425223	52.820	-0.320	0.240	0.970	53.060	-1.200	1.200																			1580014553.0	7.33	13.58
26/01/2020 04:55:54	26012020	260120	045554	52.910	12.575340	-57.425193	52.650	-0.160	0.010	1.010	52.870	-1.200	1.400																			1580014554.0	7.29	13.50
26/01/2020 04:55:55	26012020	260120	045555	52.740	12.575360	-57.425165	52.670	0.110	-0.400	0.770	52.720	-1.600	1.300																			1580014555.0	7.57	14.02
26/01/2020 04:55:56	26012020	260120	045556	52.770	12.575385	-57.425137	52.870	0.300	-0.650	0.240	52.770	-1.700	1.200																			1580014556.0	7.89	14.61
26/01/2020 04:55:57	26012020	260120	045557	52.990	12.575410	-57.425108	52.980	0.250	-0.420	-0.250	53.030	-2.000	0.300																			1580014557.0	8.02	14.85
26/01/2020 04:55:58	26012020	260120	045558	53.110	12.575435	-57.425083	52.930	0.010	0.060	-0.350	53.110	-1.500	0.000																			1580014558.0	7.72	14.30
26/01/2020 04:55:59	26012020	260120	045559	53.060	12.575457	-57.425057	52.880	-0.190	0.180	-0.190	53.050	-1.200	0.100																			1580014559.0	7.17	13.28
26/01/2020 04:56:00	26012020	260120	045600	53.010	12.575477	-57.425030	52.910	-0.260	-0.110	-0.190	53.010	-1.300	0.200	1014.70	25.70	25.80	21.30	21.30	0.00	76.00	76.00	424.00	25.40	11.00	9.20	72.00	5.40	15	3160.00	27.40	27.40	1580014560.0	7.17	13.28
26/01/2020 04:56:01	26012020	260120	045601	53.050	12.575498	-57.425002	53.000	-0.170	-0.460	-0.280	53.060	-1.700	0.100																			1580014561.0	7.65	14.17
26/01/2020 04:56:02	26012020	260120	045602	53.140	12.575522	-57.424972	53.090	0.020	-0.420	-0.180	53.160	-1.900	0.100																			1580014562.0	7.99	14.80
26/01/2020 04:56:03	26012020	260120	045603	53.220	12.575545	-57.424943	53.130	0.180	-0.110	0.110	53.240	-1.600	0.300																			1580014563.0	7.82	14.48
26/01/2020 04:56:04	26012020	260120	045604	53.260	12.575565	-57.424915	53.100	0.240	0.040	0.350	53.260	-1.400	0.600																			1580014564.0	7.40	13.70
26/01/2020 04:56:05	26012020	260120	045605	53.220	12.575585	-57.424887	53.030	0.140	-0.050	0.450	53.210	-1.400	0.800																			1580014565.0	7.32	13.56
26/01/2020 04:56:06	26012020	260120	045606	53.150	12.575605	-57.424858	53.020	-0.060	-0.160	0.360	53.140	-1.500	0.800																			1580014566.0	7.59	14.06
26/01/2020 04:56:07	26012020	260120	045607	53.150	12.575630	-57.424830	53.140	-0.200	-0.140	0.170	53.160	-1.500	0.600																			1580014567.0	7.75	14.35
26/01/2020 04:56:08	26012020	260120	045608	53.270	12.575653	-57.424803	53.340	-0.200	-0.030	0.120	53.270	-1.500	0.600																			1580014568.0	7.66	14.19
26/01/2020 04:56:09	26012020	260120	045609	53.450	12.575677	-57.424777	53.530	-0.080	-0.170	0.200	53.500	-1.400	0.500																			1580014569.0	7.44	13.78
26/01/2020 04:56:10	26012020	260120	045610	53.640	12.575697	-57.424748	53.570	0.040	-0.480	0.320	53.640	-1.500	0.600																			1580014570.0	7.47	13.83
26/01/2020 04:56:11	26012020	260120	045611	53.670	12.575718	-57.424718	53.460	0.030	-0.560	0.450	53.660	-2.000	0.800																			1580014571.0	7.83	14.50
26/01/2020 04:56:12	26012020	260120	045612	53.570	12.575738	-57.424687	53.380	-0.070	-0.260	0.410	53.570	-1.900	0.800																			1580014572.0	7.92	14.67
26/01/2020 04:56:13	26012020	260120	045613	53.490	12.575758	-57.424658	53.370	-0.110	0.110	0.200	53.480	-1.400	0.700																			1580014573.0	7.54	13.96
26/01/2020 04:56:14	26012020	260120	045614	53.490	12.575780	-57.424632	53.350	0.040	0.170	-0.080	53.490	-1.200	0.400																			1580014574.0	7.23	13.39
26/01/2020 04:56:15	26012020	260120	045615	53.480	12.575803	-57.424605	53.270	0.260	-0.020	-0.300	53.470	-1.300	0.200																			1580014575.0	7.38	13.67
26/01/2020 04:56:16	26012020	260120	045616	53.410	12.575828	-57.424578	53.230	0.260	-0.210	-0.380	53.390	-1.500	0.000																			1580014576.0	7.78	14.41
26/01/2020 04:56:17	26012020	260120	045617	53.370	12.575852	-57.424550	53.360	0.030	-0.330	-0.360	53.380	-1.700	-0.000																			1580014577.0	7.86	14.56
26/01/2020 04:56:18	26012020	260120	045618	53.500	12.575875	-57.424522	53.650	-0.180	-0.410	-0.320	53.550	-1.800	0.000																			1580014578.0	7.69	14.24
26/01/2020 04:56:19	26012020	260120	045619	53.780	12.575895	-57.424493	53.850	-0.240	-0.260	-0.120	53.840	-1.700	0.100																			1580014579.0	7.65	14.17
26/01/2020 04:56:20	26012020	260120	045620	53.980	12.575917	-57.424463	53.730	-0.250	0.100	0.420	53.980	-1.400	0.500																			1580014580.0	7.61	14.09
26/01/2020 04:56:21	26012020	260120	045621	53.830	12.575935	-57.424435	53.420	-0.210	0.250	0.970	53.770	-1.100	1.100																			1580014581.0	7.34	13.59
26/01/2020 04:56:22	26012020	260120	045622	53.510	12.575952	-57.424407	53.240	0.010	-0.130	1.100	53.450	-1.300	1.500																			1580014582.0	7.19	13.32
26/01/2020 04:56:23	26012020	260120	045623	53.330	12.575972	-57.424377	53.310	0.370	-0.720	0.800	53.330	-1.900	1.300																			1580014583.0	7.55	13.98
26/01/2020 04:56:24	26012020	260120	045624	53.400	12.575997	-57.424347	53.430	0.550	-0.830	0.320	53.430	-2.300	0.900																			1580014584.0	8.15	15.09
26/01/2020 04:56:25	26012020	260120	045625	53.540	12.576022	-57.424318	53.470	0.310	-0.240	-0.060	53.560	-2.000	0.500																			1580014585.0	8.20	15.19
26/01/2020 04:56:26	26012020	260120	045626	53.600	12.576045	-57.424292	53.440	-0.200	0.440	-0.230	53.590	-1.200	0.200																			1580014586.0	7.55	13.98
26/01/2020 04:56:27	26012020	260120	045627	53.560	12.576067	-57.424267	53.420	-0.560	0.520	-0.240	53.550	-0.800	0.100																			1580014587.0	6.90	12.78
26/01/2020 04:56:28	26012020	260120	045628	53.550	12.576088	-57.424242	53.370	-0.500	0.050	-0.140	53.540	-1.100	0.200																			1580014588.0	7.05	13.06
26/01/2020 04:56:29	26012020	260120	045629	53.500	12.576110	-57.424212	53.300	-0.180	-0.430	0.030	53.480	-1.600	0.300																			1580014589.0	7.75	14.35
26/01/2020 04:56:30	26012020	260120	045630	53.410	12.576132	-57.424182	53.350	0.150	-0.690	0.110	53.400	-2.000	0.400																			1580014590.0	8.07	14.95
26/01/2020 04:56:31	26012020	260120	045631	53.450	12.576153	-57.424150	53.510	0.320	-0.700	0.120	53.480	-2.100	0.500																			1580014591.0	7.91	14.65
26/01/2020 04:56:32	26012020	260120	045632	53.610	12.576173	-57.424122	53.580	0.270	-0.320	0.160	53.610	-2.100	0.500																			1580014592.0	7.75	14.35
26/01/2020 04:56:33	26012020	260120	045633	53.690	12.576195	-57.424093	53.450	-0.010	0.380	0.300	53.680	-1.300	0.600																			1580014593.0	7.54	13.96
26/01/2020 04:56:34	26012020	260120	045634	53.550	12.576217	-57.424067	53.270	-0.310	0.790	0.460	53.550	-1.100	0.700																			1580014594.0	7.10	13.15
26/01/2020 04:56:35	26012020	260120	045635	53.370	12.576235	-57.424042	53.270	-0.300	0.260	0.440	53.350	-0.800	0.900																			1580014595.0	6.82	12.63
26/01/2020 04:56:36	26012020	260120	045636	53.370	12.576257	-57.424013	53.430	0.140	-0.870	0.240	53.400	-1.700	0.700																			1580014596.0	7.32	13.56
26/01/2020 04:56:37	26012020	260120	045637	53.530	12.576282	-57.423983	53.490	0.580	-1.410	0.090	53.560	-2.700	0.500																			1580014597.0	8.36	15.48
26/01/2020 04:56:38	26012020	260120	045638	53.600	12.576307	-57.423950	53.440	0.540	-0.790	0.170	53.590	-2.600	0.500																			1580014598.0	8.68	16.08
26/01/2020 04:56:39	26012020	260120	045639	53.550	12.576328	-57.423922	53.390	0.100	0.260	0.360	53.540	-1.600	0.600																			1580014599.0	7.74	14.33
26/01/2020 04:56:40	26012020	260120	045640	53.490	12.576347	-57.423897	53.350	-0.340	0.800	0.390	53.480	-0.700	0.800																			1580014600.0	6.71	12.43
26/01/2020 04:56:41	26012020	260120	045641	53.440	12.576367	-57.423872	53.390	-0.460	0.500	0.190	53.440	-0.600	0.700																			1580014601.0	6.68	12.37
26/01/2020 04:56:42	26012020	260120	045642	53.490	12.576388	-57.423845	53.570	-0.290	-0.210	-0.050	53.520	-1.200	0.400																			1580014602.0	7.42	13.74
26/01/2020 04:56:43	26012020	260120	045643	53.670	12.576413	-57.423815	53.680	-0.090	-0.600	-0.020	53.700	-1.900	0.300																			1580014603.0	8.13	15.06
26/01/2020 04:56:44	26012020	260120	045644	53.770	12.576437	-57.423785	53.610	-0.080	-0.400	0.160	53.770	-1.900	0.400																			1580014604.0	8.21	15.20
26/01/2020 04:56:45	26012020	260120	045645	53.710	12.576457	-57.423755	53.460	-0.180	-0.040	0.350	53.680	-1.600	0.600																			1580014605.0	7.61	14.09
26/01/2020 04:56:46	26012020	260120	045646	53.550	12.576475	-57.423727	53.360	-0.140	-0.030	0.380	53.550	-1.400	0.700																			1580014606.0	7.05	13.06
26/01/2020 04:56:47	26012020	260120	045647	53.440	12.576493	-57.423700	53.390	0.110	-0.350	0.140	53.440	-1.600	0.700																			1580014607.0	7.15	13.24
26/01/2020 04:56:48	26012020	260120	045648	53.490	12.576517	-57.423672	53.510	0.420	-0.590	-0.240	53.510	-1.900	0.300																			1580014608.0	7.69	14.24
26/01/2020 04:56:49	26012020	260120	045649	53.620	12.576542	-57.423643	53.570	0.540	-0.420	-0.410	53.650	-1.900	-0.000																			1580014609.0	8.00	14.82
26/01/2020 04:56:50	26012020	260120	045650	53.690	12.576567	-57.423617	53.500	0.340	0.020	-0.300	53.680	-1.600	-0.000																			1580014610.0	7.80	14.45
26/01/2020 04:56:51	26012020	260120	045651	53.620	12.576588	-57.423590	53.430	0.000	0.280	-0.070	53.600	-1.200	0.200																			1580014611.0	7.30	13.52
26/01/2020 04:56:52	26012020	260120	045652	53.550	12.576608	-57.423563	53.490	-0.210	0.060	0.170	53.550	-1.200	0.400																			1580014612.0	7.11	13.17
26/01/2020 04:56:53	26012020	260120	045653	53.590	12.576630	-57.423535	53.590	-0.250	-0.330	0.460	53.610	-1.500	0.700																			1580014613.0	7.47	13.83
26/01/2020 04:56:54	26012020	260120	045654	53.690	12.576650	-57.423505	53.660	-0.270	-0.380	0.730	53.710	-1.800	1.000																			1580014614.0	7.95	14.72
26/01/2020 04:56:55	26012020	260120	045655	53.750	12.576672	-57.423473	53.610	-0.280	-0.090	0.970	53.740	-1.600	1.200																			1580014615.0	7.85	14.54
26/01/2020 04:56:56	26012020	260120	045656	53.680	12.576690	-57.423445	53.520	-0.190	0.030	1.050	53.660	-1.300	1.400																			1580014616.0	7.34	13.59
26/01/2020 04:56:57	26012020	260120	045657	53.590	12.576708	-57.423417	53.490	-0.010	-0.200	0.770	53.590	-1.400	1.300																			1580014617.0	7.17	13.28
26/01/2020 04:56:58	26012020	260120	045658	53.580	12.576728	-57.423388	53.470	0.140	-0.430	0.180	53.580	-1.500	1.200																			1580014618.0	7.54	13.96
26/01/2020 04:56:59	26012020	260120	045659	53.570	12.576753	-57.423360	53.520	0.200	-0.380	-0.490	53.580	-1.800	0.200																			1580014619.0	7.88	14.59
26/01/2020 04:57:00	26012020	260120	045700	53.620	12.576780	-57.423335	53.610	0.200	-0.180	-0.890	53.620	-1.800	-0.100	1014.70	25.70	25.80	21.40	21.40	0.00	77.00	76.00	424.00	25.40	7.00	9.60	65.00	5.70	15	3230.00	27.50	27.40	1580014620.0	7.78	14.41
26/01/2020 04:57:01	26012020	260120	045701	53.720	12.576805	-57.423310	53.600	0.100	0.050	-0.840	53.730	-1.400	-0.500																			1580014621.0	7.53	13.95
26/01/2020 04:57:02	26012020	260120	045702	53.710	12.576828	-57.423283	53.560	-0.110	0.120	-0.570	53.700	-1.300	-0.300																			1580014622.0	7.38	13.67
26/01/2020 04:57:03	26012020	260120	045703	53.660	12.576848	-57.423255	53.630	-0.230	-0.140	-0.280	53.660	-1.400	-0.100																			1580014623.0	7.31	13.54
26/01/2020 04:57:04	26012020	260120	045704	53.720	12.576867	-57.423227	53.780	-0.130	-0.490	0.040	53.750	-1.700	0.300																			1580014624.0	7.53	13.95
26/01/2020 04:57:05	26012020	260120	045705	53.860	12.576887	-57.423195	53.840	0.130	-0.550	0.360	53.890	-1.900	0.600																			1580014625.0	7.86	14.56
26/01/2020 04:57:06	26012020	260120	045706	53.920	12.576908	-57.423165	53.750	0.270	-0.180	0.680	53.920	-1.800	0.900																			1580014626.0	7.88	14.59
26/01/2020 04:57:07	26012020	260120	045707	53.820	12.576927	-57.423135	53.630	0.160	0.290	0.830	53.790	-1.300	1.100																			1580014627.0	7.51	13.91
26/01/2020 04:57:08	26012020	260120	045708	53.690	12.576947	-57.423108	53.610	-0.020	0.310	0.680	53.680	-1.000	1.100																			1580014628.0	7.05	13.06
26/01/2020 04:57:09	26012020	260120	045709	53.670	12.576968	-57.423082	53.640	-0.020	-0.170	0.360	53.690	-1.300	0.900																			1580014629.0	7.10	13.15
26/01/2020 04:57:10	26012020	260120	045710	53.710	12.576992	-57.423055	53.580	0.080	-0.610	0.160	53.710	-1.800	0.600																			1580014630.0	7.71	14.28
26/01/2020 04:57:11	26012020	260120	045711	53.660	12.577017	-57.423027	53.510	0.080	-0.600	0.100	53.640	-2.000	0.500																			1580014631.0	8.12	15.04
26/01/2020 04:57:12	26012020	260120	045712	53.600	12.577040	-57.422998	53.650	-0.100	-0.320	0.010	53.610	-1.800	0.400																			1580014632.0	7.82	14.48
26/01/2020 04:57:13	26012020	260120	045713	53.740	12.577060	-57.422970	53.850	-0.330	0.010	-0.100	53.780	-1.500	0.300																			1580014633.0	7.37	13.65
26/01/2020 04:57:14	26012020	260120	045714	53.940	12.577080	-57.422942	53.890	-0.460	0.240	-0.170	53.960	-1.200	0.200																			1580014634.0	7.23	13.39
26/01/2020 04:57:15	26012020	260120	045715	53.990	12.577100	-57.422915	53.830	-0.330	0.170	-0.220	53.980	-1.100	0.200																			1580014635.0	7.22	13.37
26/01/2020 04:57:16	26012020	260120	045716	53.940	12.577120	-57.422887	53.730	0.040	-0.170	-0.120	53.920	-1.400	0.200																			1580014636.0	7.37	13.65
26/01/2020 04:57:17	26012020	260120	045717	53.840	12.577143	-57.422858	53.630	0.390	-0.430	-0.040	53.810	-1.700	0.300																			1580014637.0	7.73	14.32
26/01/2020 04:57:18	26012020	260120	045718	53.730	12.577165	-57.422828	53.560	0.510	-0.440	-0.060	53.720	-1.800	0.300																			1580014638.0	7.86	14.56
26/01/2020 04:57:19	26012020	260120	045719	53.670	12.577187	-57.422800	53.510	0.430	-0.330	-0.050	53.660	-1.800	0.300																			1580014639.0	7.66	14.19
26/01/2020 04:57:20	26012020	260120	045720	53.620	12.577210	-57.422773	53.510	0.260	-0.220	0.060	53.620	-1.600	0.400																			1580014640.0	7.46	13.82
26/01/2020 04:57:21	26012020	260120	045721	53.620	12.577232	-57.422745	53.610	0.060	-0.090	0.180	53.630	-1.500	0.500																			1580014641.0	7.46	13.82
26/01/2020 04:57:22	26012020	260120	045722	53.720	12.577253	-57.422718	53.770	-0.180	0.030	0.320	53.750	-1.400	0.600																			1580014642.0	7.48	13.85
26/01/2020 04:57:23	26012020	260120	045723	53.870	12.577273	-57.422690	53.790	-0.440	0.090	0.550	53.890	-1.300	0.800																			1580014643.0	7.45	13.80
26/01/2020 04:57:24	26012020	260120	045724	53.890	12.577293	-57.422660	53.700	-0.560	0.030	0.800	53.890	-1.300	0.900																			1580014644.0	7.44	13.78
26/01/2020 04:57:25	26012020	260120	045725	53.780	12.577312	-57.422630	53.620	-0.400	-0.190	0.840	53.760	-1.400	1.200																			1580014645.0	7.45	13.80
26/01/2020 04:57:26	26012020	260120	045726	53.710	12.577332	-57.422602	53.600	-0.010	-0.450	0.670	53.700	-1.700	1.100																			1580014646.0	7.57	14.02
26/01/2020 04:57:27	26012020	260120	045727	53.700	12.577353	-57.422572	53.550	0.320	-0.520	0.400	53.700	-1.900	0.900																			1580014647.0	7.75	14.35
26/01/2020 04:57:28	26012020	260120	045728	53.660	12.577377	-57.422543	53.480	0.390	-0.330	0.050	53.650	-1.800	0.600																			1580014648.0	7.78	14.41
26/01/2020 04:57:29	26012020	260120	045729	53.600	12.577400	-57.422517	53.500	0.240	-0.080	-0.380	53.590	-1.600	0.200																			1580014649.0	7.57	14.02
26/01/2020 04:57:30	26012020	260120	045730	53.620	12.577423	-57.422490	53.580	0.100	0.050	-0.710	53.650	-1.400	-0.200																			1580014650.0	7.36	13.63
26/01/2020 04:57:31	26012020	260120	045731	53.710	12.577447	-57.422465	53.540	0.060	0.000	-0.780	53.720	-1.300	-0.400																			1580014651.0	7.37	13.65
26/01/2020 04:57:32	26012020	260120	045732	53.680	12.577468	-57.422437	53.430	0.030	-0.130	-0.610	53.660	-1.500	-0.400																			1580014652.0	7.54	13.96
26/01/2020 04:57:33	26012020	260120	045733	53.560	12.577490	-57.422408	53.410	-0.060	-0.210	-0.280	53.550	-1.600	-0.100																			1580014653.0	7.69	14.24
26/01/2020 04:57:34	26012020	260120	045734	53.520	12.577513	-57.422380	53.490	-0.150	-0.220	0.080	53.530	-1.600	0.300																			1580014654.0	7.66	14.19
26/01/2020 04:57:35	26012020	260120	045735	53.590	12.577533	-57.422352	53.600	-0.160	-0.190	0.520	53.610	-1.600	0.700																			1580014655.0	7.55	13.98
26/01/2020 04:57:36	26012020	260120	045736	53.690	12.577553	-57.422322	53.610	-0.140	-0.090	0.960	53.690	-1.600	0.800																			1580014656.0	7.52	13.93
26/01/2020 04:57:37	26012020	260120	045737	53.690	12.577572	-57.422292	53.480	-0.140	-0.060	1.260	53.670	-1.400	1.500																			1580014657.0	7.50	13.89
26/01/2020 04:57:38	26012020	260120	045738	53.550	12.577590	-57.422262	53.310	-0.090	-0.180	1.250	53.520	-1.500	1.700																			1580014658.0	7.44	13.78
26/01/2020 04:57:39	26012020	260120	045739	53.380	12.577610	-57.422233	53.250	0.130	-0.400	0.880	53.360	-1.700	1.500																			1580014659.0	7.52	13.93
26/01/2020 04:57:40	26012020	260120	045740	53.340	12.577632	-57.422205	53.350	0.410	-0.540	0.270	53.340	-1.800	1.300																			1580014660.0	7.70	14.26
26/01/2020 04:57:41	26012020	260120	045741	53.450	12.577657	-57.422178	53.450	0.460	-0.380	-0.320	53.490	-1.900	0.300																			1580014661.0	7.87	14.58
26/01/2020 04:57:42	26012020	260120	045742	53.570	12.577683	-57.422152	53.480	0.150	0.070	-0.620	53.590	-1.500	-0.200																			1580014662.0	7.80	14.45
26/01/2020 04:57:43	26012020	260120	045743	53.610	12.577707	-57.422125	53.440	-0.330	0.420	-0.640	53.610	-1.100	-0.300																			1580014663.0	7.37	13.65
26/01/2020 04:57:44	26012020	260120	045744	53.560	12.577727	-57.422100	53.270	-0.600	0.380	-0.470	53.530	-0.900	-0.200																			1580014664.0	7.07	13.09
26/01/2020 04:57:45	26012020	260120	045745	53.380	12.577748	-57.422073	53.090	-0.480	-0.020	-0.230	53.340	-1.200	0.000																			1580014665.0	7.24	13.41
26/01/2020 04:57:46	26012020	260120	045746	53.200	12.577768	-57.422043	53.090	-0.070	-0.610	-0.030	53.170	-1.700	0.300																			1580014666.0	7.61	14.09
26/01/2020 04:57:47	26012020	260120	045747	53.190	12.577790	-57.422013	53.270	0.390	-1.040	0.100	53.210	-2.300	0.400																			1580014667.0	7.92	14.67
26/01/2020 04:57:48	26012020	260120	045748	53.360	12.577813	-57.421983	53.390	0.590	-0.920	0.400	53.360	-2.400	0.400																			1580014668.0	8.11	15.02
26/01/2020 04:57:49	26012020	260120	045749	53.480	12.577833	-57.421952	53.340	0.360	-0.190	0.780	53.480	-2.000	1.000																			1580014669.0	7.92	14.67
26/01/2020 04:57:50	26012020	260120	045750	53.420	12.577853	-57.421923	53.220	-0.120	0.640	0.990	53.420	-1.700	1.100																			1580014670.0	7.34	13.59
26/01/2020 04:57:51	26012020	260120	045751	53.280	12.577870	-57.421897	53.140	-0.430	0.940	0.890	53.260	-0.500	1.300																			1580014671.0	6.80	12.59
26/01/2020 04:57:52	26012020	260120	045752	53.200	12.577890	-57.421870	53.140	-0.320	0.400	0.490	53.200	-0.700	1.100																			1580014672.0	6.84	12.67
26/01/2020 04:57:53	26012020	260120	045753	53.210	12.577913	-57.421843	53.210	0.070	-0.550	-0.010	53.220	-1.500	0.600																			1580014673.0	7.52	13.93
26/01/2020 04:57:54	26012020	260120	045754	53.290	12.577940	-57.421815	53.230	0.350	-1.090	-0.340	53.300	-2.300	0.100																			1580014674.0	8.28	15.33
26/01/2020 04:57:55	26012020	260120	045755	53.320	12.577967	-57.421787	53.180	0.280	-0.820	-0.390	53.310	-2.400	-0.000																			1580014675.0	8.39	15.54
26/01/2020 04:57:56	26012020	260120	045756	53.270	12.577990	-57.421758	53.180	-0.050	-0.130	-0.220	53.260	-1.800	0.100																			1580014676.0	7.73	14.32
26/01/2020 04:57:57	26012020	260120	045757	53.260	12.578008	-57.421732	53.210	-0.380	0.400	-0.010	53.270	-1.200	0.300																			1580014677.0	6.97	12.91
26/01/2020 04:57:58	26012020	260120	045758	53.280	12.578027	-57.421705	53.120	-0.500	0.430	0.160	53.270	-0.900	0.400																			1580014678.0	6.81	12.61
26/01/2020 04:57:59	26012020	260120	045759	53.200	12.578047	-57.421678	53.050	-0.250	-0.090	0.290	53.190	-1.200	0.600																			1580014679.0	7.12	13.19
26/01/2020 04:58:00	26012020	260120	045800	53.120	12.578067	-57.421648	53.050	0.270	-0.800	0.400	53.120	-1.900	0.700	1014.70	25.60	25.70	21.20	21.20	0.00	76.00	76.00	425.00	25.40	10.00	9.50	71.00	5.80	15	3302.00	27.50	27.40	1580014680.0	7.66	14.19
26/01/2020 04:58:01	26012020	260120	045801	53.120	12.578090	-57.421618	53.110	0.630	-0.950	0.370	53.140	-2.400	0.800																			1580014681.0	8.23	15.24
26/01/2020 04:58:02	26012020	260120	045802	53.200	12.578113	-57.421587	53.160	0.520	-0.320	0.260	53.210	-2.100	0.700																			1580014682.0	8.24	15.26
26/01/2020 04:58:03	26012020	260120	045803	53.250	12.578135	-57.421558	53.150	0.080	0.480	0.190	53.250	-1.200	0.600																			1580014683.0	7.48	13.85
26/01/2020 04:58:04	26012020	260120	045804	53.240	12.578155	-57.421535	53.100	-0.280	0.740	0.110	53.230	-0.700	0.500																			1580014684.0	6.75	12.50
26/01/2020 04:58:05	26012020	260120	045805	53.200	12.578177	-57.421510	53.050	-0.340	0.350	0.070	53.190	-0.800	0.400																			1580014685.0	6.84	12.67
26/01/2020 04:58:06	26012020	260120	045806	53.150	12.578198	-57.421483	53.070	-0.180	-0.360	0.050	53.140	-1.400	0.400																			1580014686.0	7.46	13.82
26/01/2020 04:58:07	26012020	260120	045807	53.160	12.578222	-57.421453	53.140	-0.010	-0.880	0.040	53.170	-2.100	0.400																			1580014687.0	7.96	14.74
26/01/2020 04:58:08	26012020	260120	045808	53.230	12.578245	-57.421423	53.100	0.020	-0.770	0.130	53.230	-2.300	0.400																			1580014688.0	8.10	15.00
26/01/2020 04:58:09	26012020	260120	045809	53.190	12.578267	-57.421395	52.950	-0.120	-0.180	0.330	53.160	-1.900	0.600																			1580014689.0	7.75	14.35
26/01/2020 04:58:10	26012020	260120	045810	53.040	12.578287	-57.421367	52.940	-0.190	0.190	0.440	53.010	-1.300	0.800																			1580014690.0	7.07	13.09
26/01/2020 04:58:11	26012020	260120	045811	53.010	12.578305	-57.421342	53.050	0.000	-0.010	0.330	53.030	-1.200	0.800																			1580014691.0	6.85	12.69
26/01/2020 04:58:12	26012020	260120	045812	53.120	12.578327	-57.421313	53.100	0.320	-0.360	0.140	53.140	-1.600	0.600																			1580014692.0	7.39	13.69
26/01/2020 04:58:13	26012020	260120	045813	53.170	12.578350	-57.421285	53.080	0.470	-0.400	0.010	53.170	-1.800	0.400																			1580014693.0	7.97	14.76
26/01/2020 04:58:14	26012020	260120	045814	53.160	12.578373	-57.421255	53.130	0.340	-0.150	-0.030	53.160	-1.700	0.300																			1580014694.0	7.87	14.58
26/01/2020 04:58:15	26012020	260120	045815	53.210	12.578395	-57.421228	53.180	-0.010	0.120	-0.010	53.220	-1.400	0.300																			1580014695.0	7.46	13.82
26/01/2020 04:58:16	26012020	260120	045816	53.260	12.578417	-57.421202	53.210	-0.320	0.180	-0.030	53.260	-1.200	0.400																			1580014696.0	7.21	13.35
26/01/2020 04:58:17	26012020	260120	045817	53.280	12.578438	-57.421175	53.260	-0.390	0.010	-0.050	53.290	-1.300	0.300																			1580014697.0	7.24	13.41
26/01/2020 04:58:18	26012020	260120	045818	53.340	12.578460	-57.421148	53.250	-0.210	-0.190	0.180	53.340	-1.500	0.400																			1580014698.0	7.48	13.85
26/01/2020 04:58:19	26012020	260120	045819	53.320	12.578482	-57.421120	53.170	-0.010	-0.360	0.450	53.310	-1.700	0.700																			1580014699.0	7.65	14.17
26/01/2020 04:58:20	26012020	260120	045820	53.240	12.578502	-57.421090	53.160	0.120	-0.540	0.460	53.220	-1.800	0.900																			1580014700.0	7.62	14.11
26/01/2020 04:58:21	26012020	260120	045821	53.230	12.578522	-57.421060	53.250	0.180	-0.570	0.350	53.240	-2.000	0.800																			1580014701.0	7.63	14.13
26/01/2020 04:58:22	26012020	260120	045822	53.320	12.578545	-57.421032	53.370	0.160	-0.270	0.200	53.350	-1.800	0.600																			1580014702.0	7.69	14.24
26/01/2020 04:58:23	26012020	260120	045823	53.440	12.578568	-57.421005	53.400	0.060	0.150	0.080	53.450	-1.400	0.500																			1580014703.0	7.48	13.85
26/01/2020 04:58:24	26012020	260120	045824	53.480	12.578588	-57.420980	53.380	-0.030	0.340	0.030	53.480	-1.100	0.400																			1580014704.0	7.15	13.24
26/01/2020 04:58:25	26012020	260120	045825	53.450	12.578610	-57.420953	53.360	-0.080	0.120	-0.020	53.450	-1.100	0.400																			1580014705.0	7.14	13.22
26/01/2020 04:58:26	26012020	260120	045826	53.440	12.578632	-57.420925	53.410	-0.040	-0.330	-0.180	53.440	-1.200	0.400																			1580014706.0	7.45	13.80
26/01/2020 04:58:27	26012020	260120	045827	53.490	12.578655	-57.420897	53.550	0.030	-0.560	-0.310	53.510	-1.900	0.100																			1580014707.0	7.84	14.52
26/01/2020 04:58:28	26012020	260120	045828	53.640	12.578678	-57.420868	53.650	0.020	-0.390	-0.180	53.660	-1.900	0.100																			1580014708.0	7.91	14.65
26/01/2020 04:58:29	26012020	260120	045829	53.730	12.578700	-57.420840	53.680	-0.050	-0.150	0.180	53.750	-1.600	0.400																			1580014709.0	7.53	13.95
26/01/2020 04:58:30	26012020	260120	045830	53.760	12.578718	-57.420812	53.600	-0.090	-0.050	0.490	53.750	-1.500	0.700																			1580014710.0	7.24	13.41
26/01/2020 04:58:31	26012020	260120	045831	53.670	12.578737	-57.420783	53.430	-0.070	-0.010	0.600	53.630	-1.400	0.900																			1580014711.0	7.33	13.58
26/01/2020 04:58:32	26012020	260120	045832	53.490	12.578758	-57.420753	53.360	0.050	-0.100	0.510	53.460	-1.400	0.900																			1580014712.0	7.45	13.80
26/01/2020 04:58:33	26012020	260120	045833	53.410	12.578780	-57.420727	53.440	0.200	-0.300	0.180	53.420	-1.600	0.700																			1580014713.0	7.50	13.89
26/01/2020 04:58:34	26012020	260120	045834	53.500	12.578803	-57.420698	53.560	0.300	-0.420	-0.290	53.530	-1.800	0.300																			1580014714.0	7.67	14.20
26/01/2020 04:58:35	26012020	260120	045835	53.630	12.578828	-57.420672	53.590	0.240	-0.310	-0.490	53.650	-1.800	-0.100																			1580014715.0	7.78	14.41
26/01/2020 04:58:36	26012020	260120	045836	53.660	12.578852	-57.420645	53.580	-0.040	-0.020	-0.330	53.660	-1.500	-0.100																			1580014716.0	7.66	14.19
26/01/2020 04:58:37	26012020	260120	045837	53.660	12.578873	-57.420618	53.670	-0.390	0.170	-0.020	53.670	-1.300	0.200																			1580014717.0	7.37	13.65
26/01/2020 04:58:38	26012020	260120	045838	53.730	12.578893	-57.420590	53.770	-0.590	0.160	0.250	53.730	-1.200	0.300																			1580014718.0	7.26	13.45
26/01/2020 04:58:39	26012020	260120	045839	53.830	12.578912	-57.420562	53.810	-0.490	-0.030	0.460	53.840	-1.300	0.700																			1580014719.0	7.36	13.63
26/01/2020 04:58:40	26012020	260120	045840	53.870	12.578930	-57.420532	53.740	-0.130	-0.290	0.600	53.870	-1.400	0.800																			1580014720.0	7.51	13.91
26/01/2020 04:58:41	26012020	260120	045841	53.800	12.578950	-57.420502	53.560	0.260	-0.530	0.610	53.770	-1.800	1.000																			1580014721.0	7.62	14.11
26/01/2020 04:58:42	26012020	260120	045842	53.620	12.578972	-57.420472	53.470	0.500	-0.650	0.420	53.590	-2.000	0.900																			1580014722.0	7.72	14.30
26/01/2020 04:58:43	26012020	260120	045843	53.540	12.578995	-57.420443	53.560	0.550	-0.510	0.010	53.540	-2.000	0.600																			1580014723.0	7.74	14.33
26/01/2020 04:58:44	26012020	260120	045844	53.640	12.579018	-57.420417	53.590	0.410	-0.110	-0.310	53.660	-1.700	0.200																			1580014724.0	7.65	14.17
26/01/2020 04:58:45	26012020	260120	045845	53.680	12.579043	-57.420392	53.470	0.100	0.330	-0.320	53.660	-1.200	0.000																			1580014725.0	7.43	13.76
26/01/2020 04:58:46	26012020	260120	045846	53.560	12.579065	-57.420367	53.460	-0.230	0.360	-0.190	53.550	-1.000	0.100																			1580014726.0	7.16	13.26
26/01/2020 04:58:47	26012020	260120	045847	53.550	12.579085	-57.420338	53.650	-0.410	-0.100	-0.160	53.580	-1.200	0.200																			1580014727.0	7.21	13.35
26/01/2020 04:58:48	26012020	260120	045848	53.720	12.579107	-57.420310	53.800	-0.370	-0.460	-0.090	53.770	-1.700	0.200																			1580014728.0	7.71	14.28
26/01/2020 04:58:49	26012020	260120	045849	53.880	12.579128	-57.420280	53.830	-0.220	-0.330	0.210	53.890	-1.800	0.400																			1580014729.0	8.02	14.85
26/01/2020 04:58:50	26012020	260120	045850	53.890	12.579148	-57.420250	53.780	-0.070	-0.060	0.500	53.880	-1.600	0.800																			1580014730.0	7.62	14.11
26/01/2020 04:58:51	26012020	260120	045851	53.830	12.579167	-57.420222	53.710	0.080	-0.090	0.600	53.820	-1.400	0.900																			1580014731.0	7.18	13.30
26/01/2020 04:58:52	26012020	260120	045852	53.750	12.579187	-57.420193	53.630	0.230	-0.340	0.550	53.730	-1.600	0.900																			1580014732.0	7.28	13.48
26/01/2020 04:58:53	26012020	260120	045853	53.690	12.579208	-57.420165	53.650	0.280	-0.410	0.380	53.680	-1.800	0.800																			1580014733.0	7.68	14.22
26/01/2020 04:58:54	26012020	260120	045854	53.710	12.579232	-57.420137	53.750	0.140	-0.210	0.100	53.720	-1.700	0.600																			1580014734.0	7.80	14.45
26/01/2020 04:58:55	26012020	260120	045855	53.810	12.579255	-57.420110	53.810	-0.100	0.070	-0.090	53.830	-1.400	0.400																			1580014735.0	7.53	13.95
26/01/2020 04:58:56	26012020	260120	045856	53.880	12.579277	-57.420083	53.830	-0.290	0.180	-0.210	53.890	-1.200	0.200																			1580014736.0	7.25	13.43
26/01/2020 04:58:57	26012020	260120	045857	53.910	12.579298	-57.420057	53.870	-0.280	-0.020	-0.300	53.920	-1.300	0.100																			1580014737.0	7.22	13.37
26/01/2020 04:58:58	26012020	260120	045858	53.950	12.579320	-57.420030	53.900	-0.080	-0.370	-0.220	53.960	-1.600	0.100																			1580014738.0	7.44	13.78
26/01/2020 04:58:59	26012020	260120	045859	53.970	12.579342	-57.420000	53.820	0.180	-0.650	-0.050	53.970	-1.900	0.200																			1580014739.0	7.74	14.33
26/01/2020 04:59:00	26012020	260120	045900	53.900	12.579363	-57.419970	53.700	0.340	-0.660	0.090	53.870	-2.100	0.400	1014.70	25.70	25.70	21.20	21.30	0.00	76.00	76.00	426.00	25.40	11.00	9.70	72.00	5.90	15	3320.00	27.50	27.40	1580014740.0	7.86	14.56
26/01/2020 04:59:01	26012020	260120	045901	53.770	12.579385	-57.419940	53.680	0.290	-0.340	0.140	53.750	-1.900	0.500																			1580014741.0	7.83	14.50
26/01/2020 04:59:02	26012020	260120	045902	53.750	12.579407	-57.419912	53.850	0.070	0.130	0.130	53.750	-1.800	0.500																			1580014742.0	7.55	13.98
26/01/2020 04:59:03	26012020	260120	045903	53.910	12.579427	-57.419885	54.000	-0.180	0.530	0.150	53.950	-1.000	0.500																			1580014743.0	7.24	13.41
26/01/2020 04:59:04	26012020	260120	045904	54.060	12.579447	-57.419858	53.990	-0.340	0.630	0.250	54.060	-0.900	0.500																			1580014744.0	7.11	13.17
26/01/2020 04:59:05	26012020	260120	045905	54.050	12.579467	-57.419830	53.870	-0.320	0.210	0.330	54.030	-0.900	0.700																			1580014745.0	7.14	13.22
26/01/2020 04:59:06	26012020	260120	045906	53.920	12.579487	-57.419802	53.810	-0.130	-0.600	0.270	53.900	-1.600	0.700																			1580014746.0	7.44	13.78
26/01/2020 04:59:07	26012020	260120	045907	53.870	12.579510	-57.419773	53.890	0.180	-1.170	0.070	53.880	-2.400	0.500																			1580014747.0	7.98	14.78
26/01/2020 04:59:08	26012020	260120	045908	53.970	12.579535	-57.419743	54.050	0.420	-1.020	-0.040	54.000	-2.600	0.300																			1580014748.0	8.24	15.26
26/01/2020 04:59:09	26012020	260120	045909	54.130	12.579558	-57.419715	54.050	0.310	-0.220	0.100	54.150	-2.000	0.400																			1580014749.0	7.86	14.56
26/01/2020 04:59:10	26012020	260120	045910	54.120	12.579577	-57.419687	53.870	-0.160	0.610	0.320	54.090	-1.100	0.600																			1580014750.0	7.16	13.26
26/01/2020 04:59:11	26012020	260120	045911	53.940	12.579593	-57.419660	53.810	-0.540	0.770	0.300	53.920	-0.600	0.700																			1580014751.0	6.65	12.32
26/01/2020 04:59:12	26012020	260120	045912	53.870	12.579613	-57.419635	53.850	-0.400	0.160	0.090	53.880	-0.900	0.600																			1580014752.0	6.80	12.59
26/01/2020 04:59:13	26012020	260120	045913	53.910	12.579635	-57.419607	53.790	0.110	-0.600	-0.070	53.910	-1.700	0.400																			1580014753.0	7.61	14.09
26/01/2020 04:59:14	26012020	260120	045914	53.870	12.579660	-57.419577	53.720	0.450	-0.930	-0.180	53.860	-2.200	0.200																			1580014754.0	8.24	15.26
26/01/2020 04:59:15	26012020	260120	045915	53.810	12.579683	-57.419547	53.700	0.370	-0.690	-0.220	53.800	-2.200	0.200																			1580014755.0	8.13	15.06
26/01/2020 04:59:16	26012020	260120	045916	53.780	12.579705	-57.419518	53.730	0.100	-0.150	-0.220	53.780	-2.100	0.100																			1580014756.0	7.60	14.08
26/01/2020 04:59:17	26012020	260120	045917	53.810	12.579725	-57.419492	53.810	-0.080	0.260	-0.200	53.820	-1.300	0.200																			1580014757.0	7.10	13.15
26/01/2020 04:59:18	26012020	260120	045918	53.890	12.579747	-57.419467	53.900	-0.100	0.270	-0.120	53.900	-1.100	0.200																			1580014758.0	7.01	12.98
26/01/2020 04:59:19	26012020	260120	045919	53.980	12.579767	-57.419438	53.860	-0.090	0.130	0.080	53.980	-1.200	0.300																			1580014759.0	7.31	13.54
26/01/2020 04:59:20	26012020	260120	045920	53.930	12.579787	-57.419410	53.700	-0.140	0.040	0.310	53.900	-1.300	0.600																			1580014760.0	7.63	14.13
26/01/2020 04:59:21	26012020	260120	045921	53.770	12.579808	-57.419380	53.610	-0.160	-0.150	0.440	53.740	-1.400	0.800																			1580014761.0	7.54	13.96
26/01/2020 04:59:22	26012020	260120	045922	53.660	12.579828	-57.419352	53.560	-0.040	-0.490	0.500	53.650	-1.700	0.800																			1580014762.0	7.42	13.74
26/01/2020 04:59:23	26012020	260120	045923	53.610	12.579850	-57.419323	53.510	0.120	-0.650	0.490	53.610	-2.000	0.900																			1580014763.0	7.61	14.09
26/01/2020 04:59:24	26012020	260120	045924	53.580	12.579872	-57.419295	53.480	0.190	-0.460	0.440	53.570	-2.000	0.800																			1580014764.0	7.75	14.35
26/01/2020 04:59:25	26012020	260120	045925	53.550	12.579893	-57.419267	53.530	0.130	-0.180	0.350	53.550	-1.700	0.800																			1580014765.0	7.50	13.89
26/01/2020 04:59:26	26012020	260120	045926	53.590	12.579913	-57.419238	53.580	-0.020	0.000	0.190	53.600	-1.400	0.600																			1580014766.0	7.28	13.48
26/01/2020 04:59:27	26012020	260120	045927	53.650	12.579935	-57.419212	53.540	-0.140	0.080	0.020	53.650	-1.300	0.500																			1580014767.0	7.32	13.56
26/01/2020 04:59:28	26012020	260120	045928	53.620	12.579957	-57.419183	53.460	-0.130	0.110	-0.110	53.620	-1.300	0.400																			1580014768.0	7.43	13.76
26/01/2020 04:59:29	26012020	260120	045929	53.540	12.579978	-57.419157	53.450	0.050	-0.010	-0.280	53.530	-1.300	0.200																			1580014769.0	7.43	13.76
26/01/2020 04:59:30	26012020	260120	045930	53.530	12.580000	-57.419130	53.410	0.250	-0.240	-0.410	53.530	-1.400	0.100																			1580014770.0	7.46	13.82
26/01/2020 04:59:31	26012020	260120	045931	53.490	12.580023	-57.419102	53.350	0.320	-0.380	-0.350	53.480	-1.700	-0.000																			1580014771.0	7.65	14.17
26/01/2020 04:59:32	26012020	260120	045932	53.430	12.580047	-57.419075	53.360	0.220	-0.450	-0.120	53.420	-1.800	0.100																			1580014772.0	7.68	14.22
26/01/2020 04:59:33	26012020	260120	045933	53.430	12.580068	-57.419047	53.370	-0.020	-0.370	0.130	53.440	-1.800	0.400																			1580014773.0	7.59	14.06
26/01/2020 04:59:34	26012020	260120	045934	53.440	12.580088	-57.419017	53.310	-0.310	-0.090	0.420	53.430	-1.600	0.600																			1580014774.0	7.54	13.96
26/01/2020 04:59:35	26012020	260120	045935	53.370	12.580108	-57.418988	53.290	-0.440	0.070	0.770	53.350	-1.300	1.000																			1580014775.0	7.36	13.63
26/01/2020 04:59:36	26012020	260120	045936	53.340	12.580127	-57.418960	53.420	-0.310	-0.100	1.000	53.360	-1.400	1.300																			1580014776.0	7.22	13.37
26/01/2020 04:59:37	26012020	260120	045937	53.470	12.580147	-57.418930	53.520	-0.090	-0.200	0.980	53.500	-1.600	1.400																			1580014777.0	7.55	13.98
26/01/2020 04:59:38	26012020	260120	045938	53.560	12.580167	-57.418900	53.400	0.010	0.070	0.810	53.550	-1.500	1.300																			1580014778.0	7.80	14.45
26/01/2020 04:59:39	26012020	260120	045939	53.440	12.580187	-57.418872	53.230	0.000	0.250	0.490	53.400	-1.200	1.000																			1580014779.0	7.44	13.78
26/01/2020 04:59:40	26012020	260120	045940	53.280	12.580208	-57.418845	53.230	0.120	-0.160	-0.140	53.270	-1.300	0.500																			1580014780.0	7.02	13.00
26/01/2020 04:59:41	26012020	260120	045941	53.280	12.580232	-57.418820	53.280	0.420	-0.780	-0.840	53.300	-1.900	-0.200																			1580014781.0	7.39	13.69
26/01/2020 04:59:42	26012020	260120	045942	53.350	12.580258	-57.418793	53.250	0.610	-0.860	-1.220	53.350	-2.100	-0.400																			1580014782.0	8.15	15.09
26/01/2020 04:59:43	26012020	260120	045943	53.330	12.580287	-57.418767	53.190	0.450	-0.340	-1.070	53.320	-2.000	-0.800																			1580014783.0	8.17	15.13
26/01/2020 04:59:44	26012020	260120	045944	53.270	12.580310	-57.418742	53.180	0.030	0.240	-0.560	53.270	-1.800	-0.800																			1580014784.0	7.41	13.72
26/01/2020 04:59:45	26012020	260120	045945	53.250	12.580330	-57.418715	53.260	-0.400	0.430	0.090	53.260	-1.000	0.100																			1580014785.0	6.92	12.82
26/01/2020 04:59:46	26012020	260120	045946	53.320	12.580347	-57.418687	53.370	-0.660	0.220	0.730	53.330	-1.000	0.800																			1580014786.0	7.12	13.19
26/01/2020 04:59:47	26012020	260120	045947	53.400	12.580365	-57.418657	53.440	-0.650	-0.150	1.140	53.420	-1.400	1.300																			1580014787.0	7.55	13.98
26/01/2020 04:59:48	26012020	260120	045948	53.470	12.580383	-57.418625	53.450	-0.350	-0.480	1.360	53.480	-1.700	1.600																			1580014788.0	7.77	14.39
26/01/2020 04:59:49	26012020	260120	045949	53.470	12.580402	-57.418593	53.400	0.110	-0.590	1.430	53.460	-1.900	1.800																			1580014789.0	7.79	14.43
26/01/2020 04:59:50	26012020	260120	045950	53.430	12.580423	-57.418563	53.330	0.460	-0.430	1.260	53.420	-1.900	1.700																			1580014790.0	7.73	14.32
26/01/2020 04:59:51	26012020	260120	045951	53.370	12.580443	-57.418535	53.210	0.500	-0.060	0.720	53.350	-1.600	1.400																			1580014791.0	7.52	13.93
26/01/2020 04:59:52	26012020	260120	045952	53.260	12.580467	-57.418508	53.100	0.280	0.230	-0.120	53.240	-1.200	0.600																			1580014792.0	7.30	13.52
26/01/2020 04:59:53	26012020	260120	045953	53.180	12.580490	-57.418485	53.080	0.070	0.140	-0.970	53.170	-1.200	-0.200																			1580014793.0	7.18	13.30
26/01/2020 04:59:54	26012020	260120	045954	53.170	12.580517	-57.418463	53.160	-0.020	-0.220	-1.530	53.170	-1.200	-0.500																			1580014794.0	7.45	13.80
26/01/2020 04:59:55	26012020	260120	045955	53.260	12.580543	-57.418438	53.350	-0.040	-0.460	-1.680	53.300	-1.800	-1.300																			1580014795.0	7.84	14.52
26/01/2020 04:59:56	26012020	260120	045956	53.450	12.580568	-57.418410	53.440	-0.090	-0.450	-1.260	53.490	-1.900	-1.200																			1580014796.0	7.87	14.58
26/01/2020 04:59:57	26012020	260120	045957	53.550	12.580590	-57.418382	53.330	-0.210	-0.260	-0.320	53.530	-1.700	-0.400																			1580014797.0	7.64	14.15
26/01/2020 04:59:58	26012020	260120	045958	53.420	12.580608	-57.418352	53.270	-0.310	-0.120	0.610	53.380	-1.500	0.600																			1580014798.0	7.47	13.83
26/01/2020 04:59:59	26012020	260120	045959	53.330	12.580623	-57.418320	53.360	-0.240	-0.100	1.130	53.340	-1.500	1.300																			1580014799.0	7.44	13.78
26/01/2020 05:00:00	26012020	260120	050000	53.410	12.580642	-57.418288	53.470	-0.050	-0.010	1.330	53.430	-1.500	1.600	1014.70	25.70	25.70	21.10	21.20	0.00	76.00	76.00	428.00	25.40	10.00	9.70	71.00	5.90	15	3229.00	27.50	27.40	1580014800.0	7.51	13.91
26/01/2020 05:00:01	26012020	260120	050001	53.500	12.580660	-57.418260	53.530	0.120	0.130	1.310	53.520	-1.300	1.700																			1580014801.0	7.52	13.93
26/01/2020 05:00:02	26012020	260120	050001	53.550	12.580680	-57.418232	53.500	0.180	0.040	1.160	53.550	-1.300	1.600																			1580014801.0	7.32	13.56
26/01/2020 05:00:03	26012020	260120	050003	53.530	12.580702	-57.418205	53.410	0.150	-0.270	0.810	53.510	-1.500	1.400																			1580014803.0	7.34	13.59
26/01/2020 05:00:04	26012020	260120	050004	53.450	12.580725	-57.418177	53.440	0.110	-0.490	0.200	53.440	-1.800	0.900																			1580014804.0	7.65	14.17
26/01/2020 05:00:05	26012020	260120	050005	53.480	12.580750	-57.418150	53.580	0.160	-0.510	-0.430	53.510	-1.900	0.200																			1580014805.0	7.79	14.43
26/01/2020 05:00:06	26012020	260120	050006	53.650	12.580775	-57.418125	53.690	0.210	-0.360	-0.750	53.650	-1.900	0.000																			1580014806.0	7.68	14.22
26/01/2020 05:00:07	26012020	260120	050007	53.760	12.580800	-57.418098	53.620	0.100	-0.080	-0.780	53.760	-1.600	-0.400																			1580014807.0	7.54	13.96
26/01/2020 05:00:08	26012020	260120	050008	53.690	12.580822	-57.418072	53.510	-0.150	0.150	-0.640	53.670	-1.300	-0.400																			1580014808.0	7.41	13.72
26/01/2020 05:00:09	26012020	260120	050009	53.580	12.580842	-57.418043	53.540	-0.300	0.130	-0.390	53.570	-1.200	-0.100																			1580014809.0	7.29	13.50
26/01/2020 05:00:10	26012020	260120	050010	53.600	12.580862	-57.418017	53.670	-0.230	-0.110	-0.140	53.630	-1.400	0.100																			1580014810.0	7.34	13.59
26/01/2020 05:00:11	26012020	260120	050011	53.740	12.580882	-57.417987	53.760	-0.060	-0.320	0.080	53.760	-1.600	0.300																			1580014811.0	7.59	14.06
26/01/2020 05:00:12	26012020	260120	050012	53.820	12.580902	-57.417957	53.770	0.060	-0.320	0.390	53.820	-1.700	0.600																			1580014812.0	7.74	14.33
26/01/2020 05:00:13	26012020	260120	050013	53.820	12.580923	-57.417927	53.760	0.050	-0.200	0.710	53.820	-1.600	0.900																			1580014813.0	7.61	14.09
26/01/2020 05:00:14	26012020	260120	050014	53.800	12.580943	-57.417898	53.710	-0.020	-0.110	0.810	53.790	-1.500	1.200																			1580014814.0	7.40	13.70
26/01/2020 05:00:15	26012020	260120	050015	53.750	12.580963	-57.417870	53.600	-0.080	-0.090	0.740	53.730	-1.500	1.100																			1580014815.0	7.37	13.65
26/01/2020 05:00:16	26012020	260120	050016	53.650	12.580985	-57.417843	53.560	-0.050	-0.140	0.690	53.640	-1.500	1.100																			1580014816.0	7.44	13.78
26/01/2020 05:00:17	26012020	260120	050017	53.610	12.581007	-57.417815	53.580	0.030	-0.230	0.570	53.610	-1.600	1.000																			1580014817.0	7.51	13.91
26/01/2020 05:00:18	26012020	260120	050018	53.640	12.581028	-57.417787	53.580	0.100	-0.280	0.260	53.640	-1.600	1.000																			1580014818.0	7.58	14.04
26/01/2020 05:00:19	26012020	260120	050019	53.640	12.581050	-57.417758	53.540	0.100	-0.240	-0.130	53.640	-1.700	0.400																			1580014819.0	7.60	14.08
26/01/2020 05:00:20	26012020	260120	050020	53.600	12.581072	-57.417730	53.560	0.060	-0.140	-0.450	53.600	-1.600	0.300																			1580014820.0	7.56	14.00
26/01/2020 05:00:21	26012020	260120	050021	53.640	12.581095	-57.417703	53.680	0.030	-0.120	-0.690	53.660	-1.500	-0.200																			1580014821.0	7.46	13.82
26/01/2020 05:00:22	26012020	260120	050022	53.760	12.581118	-57.417677	53.720	0.070	-0.160	-0.750	53.780	-1.500	-0.400																			1580014822.0	7.47	13.83
26/01/2020 05:00:23	26012020	260120	050023	53.790	12.581140	-57.417650	53.600	0.130	-0.170	-0.480	53.780	-1.600	-0.300																			1580014823.0	7.57	14.02
26/01/2020 05:00:24	26012020	260120	050024	53.670	12.581162	-57.417622	53.370	0.080	-0.060	0.040	53.630	-1.500	0.200																			1580014824.0	7.61	14.09
26/01/2020 05:00:25	26012020	260120	050025	53.430	12.581182	-57.417592	53.130	-0.090	0.020	0.490	53.370	-1.400	0.700																			1580014825.0	7.50	13.89
26/01/2020 05:00:26	26012020	260120	050026	53.180	12.581202	-57.417563	53.110	-0.190	-0.190	0.660	53.150	-1.400	1.000																			1580014826.0	7.34	13.59
26/01/2020 05:00:27	26012020	260120	050027	53.160	12.581222	-57.417535	53.360	-0.120	-0.570	0.570	53.200	-1.800	1.000																			1580014827.0	7.45	13.80
26/01/2020 05:00:28	26012020	260120	050028	53.400	12.581243	-57.417505	53.560	-0.060	-0.540	0.580	53.460	-2.000	0.900																			1580014828.0	7.84	14.52
26/01/2020 05:00:29	26012020	260120	050029	53.600	12.581267	-57.417475	53.490	-0.240	0.130	0.810	53.610	-1.600	1.100																			1580014829.0	7.92	14.67
26/01/2020 05:00:30	26012020	260120	050030	53.530	12.581285	-57.417447	53.300	-0.490	0.640	0.930	53.490	-0.900	1.300																			1580014830.0	7.24	13.41
26/01/2020 05:00:31	26012020	260120	050031	53.330	12.581303	-57.417422	53.220	-0.370	0.250	0.650	53.310	-0.800	1.200																			1580014831.0	6.66	12.33
26/01/2020 05:00:32	26012020	260120	050032	53.250	12.581323	-57.417395	53.230	0.180	-0.650	0.120	53.250	-1.600	0.700																			1580014832.0	7.14	13.22
26/01/2020 05:00:33	26012020	260120	050033	53.280	12.581348	-57.417365	53.240	0.740	-1.120	-0.360	53.290	-2.400	0.200																			1580014833.0	8.15	15.09
26/01/2020 05:00:34	26012020	260120	050034	53.310	12.581375	-57.417337	53.110	0.810	-0.750	-0.620	53.300	-2.400	-0.200																			1580014834.0	8.43	15.61
26/01/2020 05:00:35	26012020	260120	050035	53.190	12.581398	-57.417308	52.900	0.380	0.080	-0.570	53.140	-1.700	-0.200																			1580014835.0	7.78	14.41
26/01/2020 05:00:36	26012020	260120	050036	52.980	12.581420	-57.417285	52.800	-0.180	0.610	-0.450	52.940	-0.900	-0.100																			1580014836.0	6.94	12.85
26/01/2020 05:00:37	26012020	260120	050037	52.870	12.581440	-57.417260	52.910	-0.420	0.420	-0.420	52.880	-0.800	-0.100																			1580014837.0	6.69	12.39
26/01/2020 05:00:38	26012020	260120	050038	52.980	12.581462	-57.417233	53.010	-0.330	-0.100	-0.180	53.010	-1.200	0.000																			1580014838.0	7.23	13.39
26/01/2020 05:00:39	26012020	260120	050039	53.080	12.581483	-57.417203	52.930	-0.180	-0.360	0.360	53.070	-1.700	0.500																			1580014839.0	7.88	14.59
26/01/2020 05:00:40	26012020	260120	050040	52.980	12.581505	-57.417173	52.850	-0.150	-0.420	0.880	52.950	-1.800	1.000																			1580014840.0	7.89	14.61
26/01/2020 05:00:41	26012020	260120	050041	52.890	12.581523	-57.417143	52.930	-0.170	-0.490	1.090	52.890	-1.800	1.400																			1580014841.0	7.56	14.00
26/01/2020 05:00:42	26012020	260120	050042	52.970	12.581543	-57.417113	53.060	-0.100	-0.440	1.040	52.970	-1.900	1.400																			1580014842.0	7.47	13.83
26/01/2020 05:00:43	26012020	260120	050043	53.090	12.581565	-57.417085	53.110	0.030	-0.110	0.930	53.110	-1.700	1.400																			1580014843.0	7.55	13.98
26/01/2020 05:00:44	26012020	260120	050044	53.150	12.581585	-57.417058	53.050	0.090	0.240	0.770	53.150	-1.300	1.200																			1580014844.0	7.36	13.63
26/01/2020 05:00:45	26012020	260120	050045	53.100	12.581605	-57.417032	52.970	0.120	0.150	0.480	53.080	-1.100	1.000																			1580014845.0	7.09	13.13
26/01/2020 05:00:46	26012020	260120	050046	53.020	12.581627	-57.417005	52.940	0.190	-0.290	0.040	53.020	-1.200	0.900																			1580014846.0	7.24	13.41
26/01/2020 05:00:47	26012020	260120	050047	53.000	12.581652	-57.416978	52.940	0.260	-0.580	-0.450	53.000	-1.900	0.200																			1580014847.0	7.77	14.39
26/01/2020 05:00:48	26012020	260120	050048	53.010	12.581677	-57.416950	52.970	0.240	-0.460	-0.800	53.010	-1.900	-0.300																			1580014848.0	8.01	14.83
26/01/2020 05:00:49	26012020	260120	050049	53.050	12.581702	-57.416925	53.070	0.100	-0.120	-0.930	53.060	-1.700	-0.500																			1580014849.0	7.70	14.26
26/01/2020 05:00:50	26012020	260120	050050	53.150	12.581725	-57.416898	53.150	-0.110	0.170	-0.770	53.170	-1.300	-0.500																			1580014850.0	7.28	13.48
26/01/2020 05:00:51	26012020	260120	050051	53.230	12.581747	-57.416873	53.120	-0.330	0.290	-0.350	53.230	-1.100	-0.200																			1580014851.0	7.16	13.26
26/01/2020 05:00:52	26012020	260120	050052	53.200	12.581765	-57.416845	53.080	-0.410	0.070	0.140	53.180	-1.200	0.300																			1580014852.0	7.23	13.39
26/01/2020 05:00:53	26012020	260120	050053	53.140	12.581785	-57.416815	53.170	-0.240	-0.390	0.540	53.150	-1.600	0.700																			1580014853.0	7.40	13.70
26/01/2020 05:00:54	26012020	260120	050054	53.220	12.581805	-57.416785	53.310	0.040	-0.690	0.810	53.240	-2.000	1.100																			1580014854.0	7.77	14.39
26/01/2020 05:00:55	26012020	260120	050055	53.360	12.581825	-57.416753	53.410	0.280	-0.650	0.920	53.380	-2.100	1.300																			1580014855.0	7.90	14.63
26/01/2020 05:00:56	26012020	260120	050056	53.450	12.581847	-57.416725	53.330	0.380	-0.290	0.950	53.450	-2.000	1.300																			1580014856.0	7.67	14.20
26/01/2020 05:00:57	26012020	260120	050057	53.370	12.581867	-57.416697	53.120	0.300	0.140	0.840	53.330	-1.400	1.300																			1580014857.0	7.38	13.67
26/01/2020 05:00:58	26012020	260120	050058	53.160	12.581888	-57.416670	53.020	0.120	0.210	0.480	53.120	-1.100	1.100																			1580014858.0	7.15	13.24
26/01/2020 05:00:59	26012020	260120	050059	53.060	12.581910	-57.416645	53.120	-0.060	-0.050	-0.070	53.070	-1.300	0.600																			1580014859.0	7.26	13.45
26/01/2020 05:01:00	26012020	260120	050100	53.170	12.581935	-57.416618	53.260	-0.260	-0.170	-0.550	53.200	-1.500	0.000	1014.70	25.70	25.70	21.10	21.10	0.00	75.00	75.00	429.00	25.40	11.00	9.40	71.00	5.70	15	3204.00	27.40	27.40	1580014860.0	7.70	14.26
26/01/2020 05:01:01	26012020	260120	050101	53.320	12.581960	-57.416592	53.290	-0.470	-0.010	-0.760	53.340	-1.500	-0.300																			1580014861.0	7.84	14.52
26/01/2020 05:01:02	26012020	260120	050102	53.360	12.581983	-57.416565	53.300	-0.530	0.110	-0.700	53.360	-1.300	-0.400																			1580014862.0	7.45	13.80
26/01/2020 05:01:03	26012020	260120	050103	53.370	12.582003	-57.416538	53.370	-0.320	-0.070	-0.470	53.370	-1.300	-0.200																			1580014863.0	7.18	13.30
26/01/2020 05:01:04	26012020	260120	050104	53.440	12.582023	-57.416510	53.450	0.070	-0.440	-0.150	53.450	-1.600	0.100																			1580014864.0	7.35	13.61
26/01/2020 05:01:05	26012020	260120	050105	53.510	12.582043	-57.416480	53.420	0.450	-0.730	0.130	53.510	-2.000	0.400																			1580014865.0	7.68	14.22
26/01/2020 05:01:06	26012020	260120	050106	53.480	12.582063	-57.416448	53.260	0.670	-0.750	0.370	53.450	-2.200	0.600																			1580014866.0	7.80	14.45
26/01/2020 05:01:07	26012020	260120	050107	53.310	12.582085	-57.416420	53.070	0.670	-0.470	0.500	53.260	-2.000	0.800																			1580014867.0	7.73	14.32
26/01/2020 05:01:08	26012020	260120	050108	53.110	12.582107	-57.416392	53.040	0.470	-0.100	0.460	53.110	-1.900	0.900																			1580014868.0	7.53	13.95
26/01/2020 05:01:09	26012020	260120	050109	53.070	12.582130	-57.416365	53.190	0.080	0.270	0.320	53.090	-1.300	0.800																			1580014869.0	7.41	13.72
26/01/2020 05:01:10	26012020	260120	050110	53.210	12.582153	-57.416340	53.370	-0.410	0.600	0.280	53.210	-1.200	0.700																			1580014870.0	7.40	13.70
26/01/2020 05:01:11	26012020	260120	050111	53.400	12.582175	-57.416313	53.520	-0.800	0.660	0.350	53.430	-0.700	0.700																			1580014871.0	7.28	13.48
26/01/2020 05:01:12	26012020	260120	050112	53.540	12.582195	-57.416287	53.620	-0.860	0.230	0.440	53.560	-0.900	0.800																			1580014872.0	7.17	13.28
26/01/2020 05:01:13	26012020	260120	050113	53.640	12.582213	-57.416257	53.600	-0.550	-0.550	0.480	53.650	-1.600	0.800																			1580014873.0	7.40	13.70
26/01/2020 05:01:14	26012020	260120	050114	53.620	12.582233	-57.416227	53.450	-0.070	-1.180	0.410	53.600	-2.300	0.800																			1580014874.0	7.88	14.59
26/01/2020 05:01:15	26012020	260120	050115	53.470	12.582257	-57.416195	53.270	0.360	-1.210	0.180	53.440	-2.700	0.700																			1580014875.0	8.12	15.04
26/01/2020 05:01:16	26012020	260120	050116	53.310	12.582280	-57.416165	53.160	0.550	-0.580	-0.090	53.280	-2.300	0.400																			1580014876.0	7.93	14.69
26/01/2020 05:01:17	26012020	260120	050117	53.210	12.582303	-57.416140	53.240	0.520	0.230	-0.350	53.210	-1.500	0.200																			1580014877.0	7.40	13.70
26/01/2020 05:01:18	26012020	260120	050118	53.300	12.582325	-57.416117	53.460	0.340	0.620	-0.630	53.330	-0.900	-0.100																			1580014878.0	6.94	12.85
26/01/2020 05:01:19	26012020	260120	050119	53.520	12.582347	-57.416092	53.580	0.080	0.490	-0.710	53.560	-0.800	-0.300																			1580014879.0	7.02	13.00
26/01/2020 05:01:20	26012020	260120	050120	53.650	12.582368	-57.416063	53.440	-0.180	0.120	-0.450	53.640	-1.100	-0.200																			1580014880.0	7.47	13.83
26/01/2020 05:01:21	26012020	260120	050121	53.500	12.582390	-57.416035	53.210	-0.350	-0.210	-0.040	53.450	-1.500	0.100																			1580014881.0	7.78	14.41
26/01/2020 05:01:22	26012020	260120	050122	53.260	12.582412	-57.416005	53.180	-0.270	-0.550	0.190	53.220	-1.800	0.500																			1580014882.0	7.74	14.33
26/01/2020 05:01:23	26012020	260120	050123	53.230	12.582433	-57.415977	53.430	0.070	-0.930	0.160	53.260	-2.200	0.600																			1580014883.0	7.60	14.08
26/01/2020 05:01:24	26012020	260120	050124	53.480	12.582455	-57.415947	53.550	0.330	-0.800	0.250	53.520	-2.300	0.500																			1580014884.0	7.81	14.46
26/01/2020 05:01:25	26012020	260120	050125	53.600	12.582478	-57.415917	53.400	0.180	0.050	0.590	53.580	-1.800	0.800																			1580014885.0	7.91	14.65
26/01/2020 05:01:26	26012020	260120	050126	53.420	12.582497	-57.415890	53.220	-0.220	0.740	0.850	53.370	-0.900	1.100																			1580014886.0	7.20	13.33
26/01/2020 05:01:27	26012020	260120	050127	53.230	12.582515	-57.415863	53.240	-0.380	0.470	0.650	53.220	-0.700	1.200																			1580014887.0	6.58	12.19
26/01/2020 05:01:28	26012020	260120	050128	53.260	12.582533	-57.415837	53.330	-0.140	-0.260	0.210	53.280	-1.300	0.800																			1580014888.0	7.07	13.09
26/01/2020 05:01:29	26012020	260120	050129	53.360	12.582558	-57.415808	53.310	0.140	-0.590	-0.130	53.370	-1.900	0.400																			1580014889.0	8.06	14.93
26/01/2020 05:01:30	26012020	260120	050130	53.360	12.582583	-57.415780	53.220	0.220	-0.540	-0.270	53.340	-2.000	0.200																			1580014890.0	8.09	14.98
26/01/2020 05:01:31	26012020	260120	050131	53.270	12.582607	-57.415752	53.230	0.160	-0.510	-0.410	53.260	-1.900	0.000																			1580014891.0	7.53	13.95
26/01/2020 05:01:32	26012020	260120	050132	53.280	12.582628	-57.415725	53.370	0.100	-0.450	-0.530	53.280	-1.900	-0.000																			1580014892.0	7.39	13.69
26/01/2020 05:01:33	26012020	260120	050133	53.420	12.582652	-57.415698	53.450	0.020	-0.040	-0.410	53.440	-1.700	-0.100																			1580014893.0	7.61	14.09
26/01/2020 05:01:34	26012020	260120	050134	53.510	12.582673	-57.415672	53.470	-0.150	0.500	-0.070	53.510	-1.500	-0.100																			1580014894.0	7.49	13.87
26/01/2020 05:01:35	26012020	260120	050135	53.510	12.582693	-57.415645	53.450	-0.300	0.580	0.320	53.510	-0.800	0.500																			1580014895.0	7.01	12.98
26/01/2020 05:01:36	26012020	260120	050136	53.490	12.582712	-57.415617	53.460	-0.280	-0.020	0.580	53.480	-1.100	0.900																			1580014896.0	6.98	12.93
26/01/2020 05:01:37	26012020	260120	050137	53.480	12.582732	-57.415587	53.590	-0.040	-0.810	0.590	53.490	-1.900	1.000																			1580014897.0	7.56	14.00
26/01/2020 05:01:38	26012020	260120	050138	53.610	12.582753	-57.415557	53.730	0.310	-1.070	0.520	53.640	-2.400	0.900																			1580014898.0	8.15	15.09
26/01/2020 05:01:39	26012020	260120	050139	53.760	12.582778	-57.415527	53.770	0.560	-0.620	0.500	53.780	-2.300	0.900																			1580014899.0	8.11	15.02
26/01/2020 05:01:40	26012020	260120	050140	53.810	12.582800	-57.415498	53.730	0.490	0.080	0.470	53.800	-1.600	0.900																			1580014900.0	7.51	13.91
26/01/2020 05:01:41	26012020	260120	050141	53.760	12.582820	-57.415473	53.730	0.130	0.490	0.250	53.760	-1.000	0.800																			1580014901.0	7.00	12.96
26/01/2020 05:01:42	26012020	260120	050142	53.770	12.582842	-57.415448	53.860	-0.280	0.440	-0.180	53.780	-0.900	0.400																			1580014902.0	6.97	12.91
26/01/2020 05:01:43	26012020	260120	050143	53.920	12.582863	-57.415423	54.050	-0.480	0.040	-0.540	53.960	-1.100	-0.000																			1580014903.0	7.30	13.52
26/01/2020 05:01:44	26012020	260120	050144	54.120	12.582888	-57.415395	54.120	-0.430	-0.410	-0.570	54.150	-1.600	-0.200																			1580014904.0	7.65	14.17
26/01/2020 05:01:45	26012020	260120	050145	54.200	12.582910	-57.415367	54.040	-0.270	-0.580	-0.330	54.200	-1.900	-0.100																			1580014905.0	7.86	14.56
26/01/2020 05:01:46	26012020	260120	050146	54.110	12.582932	-57.415337	53.860	-0.090	-0.490	0.030	54.110	-2.000	0.000																			1580014906.0	7.75	14.35
26/01/2020 05:01:47	26012020	260120	050147	53.930	12.582950	-57.415307	53.770	0.110	-0.350	0.240	53.900	-1.800	0.600																			1580014907.0	7.45	13.80
26/01/2020 05:01:48	26012020	260120	050148	53.830	12.582968	-57.415278	53.830	0.270	-0.230	0.130	53.830	-1.700	0.600																			1580014908.0	7.33	13.58
26/01/2020 05:01:49	26012020	260120	050149	53.890	12.582990	-57.415250	53.980	0.330	-0.080	-0.140	53.910	-1.500	0.400																			1580014909.0	7.43	13.76
26/01/2020 05:01:50	26012020	260120	050150	54.050	12.583013	-57.415223	54.160	0.290	0.080	-0.370	54.090	-1.400	0.100																			1580014910.0	7.50	13.89
26/01/2020 05:01:51	26012020	260120	050151	54.230	12.583037	-57.415197	54.220	0.190	0.120	-0.330	54.260	-1.300	-0.000																			1580014911.0	7.45	13.80
26/01/2020 05:01:52	26012020	260120	050152	54.290	12.583058	-57.415170	54.150	0.050	-0.070	-0.050	54.280	-1.300	0.200																			1580014912.0	7.41	13.72
26/01/2020 05:01:53	26012020	260120	050153	54.220	12.583080	-57.415142	54.090	-0.080	-0.390	0.310	54.200	-1.600	0.500																			1580014913.0	7.53	13.95
26/01/2020 05:01:54	26012020	260120	050154	54.130	12.583100	-57.415112	54.150	-0.150	-0.530	0.570	54.120	-1.900	0.800																			1580014914.0	7.76	14.37
26/01/2020 05:01:55	26012020	260120	050155	54.180	12.583120	-57.415082	54.260	-0.190	-0.270	0.760	54.200	-1.800	1.000																			1580014915.0	7.79	14.43
26/01/2020 05:01:56	26012020	260120	050156	54.270	12.583140	-57.415052	54.220	-0.300	0.230	0.850	54.280	-1.400	1.200																			1580014916.0	7.52	13.93
26/01/2020 05:01:57	26012020	260120	050157	54.250	12.583158	-57.415023	54.120	-0.400	0.410	0.750	54.220	-1.000	1.200																			1580014917.0	7.09	13.13
26/01/2020 05:01:58	26012020	260120	050158	54.150	12.583177	-57.414997	54.120	-0.260	-0.040	0.420	54.150	-1.000	1.100																			1580014918.0	6.98	12.93
26/01/2020 05:01:59	26012020	260120	050159	54.160	12.583198	-57.414968	54.210	0.170	-0.700	-0.050	54.180	-1.800	0.500																			1580014919.0	7.47	13.83
26/01/2020 05:02:00	26012020	260120	050200	54.270	12.583223	-57.414940	54.330	0.600	-0.910	-0.510	54.270	-2.000	0.400	1014.70	25.70	25.70	21.20	21.20	0.00	76.00	76.00	431.00	25.40	13.00	9.00	75.00	5.30	15	3195.00	27.40	27.40	1580014920.0	8.11	15.02
26/01/2020 05:02:01	26012020	260120	050201	54.390	12.583248	-57.414912	54.370	0.660	-0.460	-0.720	54.410	-2.100	-0.300																			1580014921.0	8.13	15.06
26/01/2020 05:02:02	26012020	260120	050202	54.440	12.583272	-57.414885	54.310	0.300	0.210	-0.680	54.440	-1.500	-0.400																			1580014922.0	7.53	13.95
26/01/2020 05:02:03	26012020	260120	050203	54.380	12.583292	-57.414860	54.230	-0.130	0.440	-0.530	54.360	-1.000	-0.200																			1580014923.0	6.91	12.80
26/01/2020 05:02:04	26012020	260120	050204	54.310	12.583313	-57.414833	54.230	-0.290	0.100	-0.300	54.290	-1.100	-0.000																			1580014924.0	6.96	12.89
26/01/2020 05:02:05	26012020	260120	050205	54.300	12.583335	-57.414805	54.310	-0.230	-0.330	0.020	54.310	-1.500	0.200																			1580014925.0	7.56	14.00
26/01/2020 05:02:06	26012020	260120	050206	54.370	12.583355	-57.414775	54.390	-0.200	-0.400	0.460	54.390	-1.800	0.600																			1580014926.0	8.00	14.82
26/01/2020 05:02:07	26012020	260120	050207	54.440	12.583375	-57.414743	54.390	-0.290	-0.180	0.920	54.440	-1.700	1.100																			1580014927.0	7.82	14.48
26/01/2020 05:02:08	26012020	260120	050208	54.420	12.583392	-57.414712	54.300	-0.310	-0.040	1.160	54.420	-1.600	1.200																			1580014928.0	7.38	13.67
26/01/2020 05:02:09	26012020	260120	050209	54.320	12.583408	-57.414683	54.200	-0.100	-0.200	1.060	54.300	-1.500	1.500																			1580014929.0	7.16	13.26
26/01/2020 05:02:10	26012020	260120	050210	54.220	12.583428	-57.414655	54.150	0.250	-0.450	0.610	54.210	-1.700	1.200																			1580014930.0	7.42	13.74
26/01/2020 05:02:11	26012020	260120	050211	54.180	12.583452	-57.414627	54.130	0.490	-0.450	-0.050	54.180	-1.900	0.600																			1580014931.0	7.79	14.43
26/01/2020 05:02:12	26012020	260120	050212	54.180	12.583477	-57.414600	54.110	0.480	-0.200	-0.640	54.180	-1.700	-0.000																			1580014932.0	7.83	14.50
26/01/2020 05:02:13	26012020	260120	050213	54.180	12.583502	-57.414575	54.010	0.240	0.050	-0.910	54.170	-1.400	-0.500																			1580014933.0	7.55	13.98
26/01/2020 05:02:14	26012020	260120	050214	54.090	12.583525	-57.414550	53.920	-0.090	0.160	-0.910	54.070	-1.300	-0.600																			1580014934.0	7.37	13.65
26/01/2020 05:02:15	26012020	260120	050215	54.000	12.583547	-57.414522	53.960	-0.370	0.120	-0.690	54.000	-1.200	-0.400																			1580014935.0	7.39	13.69
26/01/2020 05:02:16	26012020	260120	050216	54.040	12.583567	-57.414493	54.050	-0.490	-0.020	-0.220	54.050	-1.300	-0.100																			1580014936.0	7.43	13.76
26/01/2020 05:02:17	26012020	260120	050217	54.110	12.583587	-57.414463	54.060	-0.430	-0.220	0.310	54.110	-1.500	0.400																			1580014937.0	7.51	13.91
26/01/2020 05:02:18	26012020	260120	050218	54.090	12.583603	-57.414432	53.970	-0.190	-0.510	0.770	54.080	-1.700	0.900																			1580014938.0	7.58	14.04
26/01/2020 05:02:19	26012020	260120	050219	53.980	12.583622	-57.414402	53.820	0.170	-0.690	1.120	53.950	-2.000	1.400																			1580014939.0	7.66	14.19
26/01/2020 05:02:20	26012020	260120	050220	53.820	12.583642	-57.414370	53.620	0.410	-0.500	1.220	53.780	-2.000	1.600																			1580014940.0	7.81	14.46
26/01/2020 05:02:21	26012020	260120	050221	53.610	12.583663	-57.414342	53.450	0.380	-0.000	0.900	53.570	-1.600	1.500																			1580014941.0	7.67	14.20
26/01/2020 05:02:22	26012020	260120	050222	53.460	12.583685	-57.414315	53.430	0.150	0.350	0.300	53.460	-1.400	1.300																			1580014942.0	7.26	13.45
26/01/2020 05:02:23	26012020	260120	050223	53.460	12.583707	-57.414290	53.500	-0.010	0.220	-0.230	53.480	-1.000	0.400																			1580014943.0	7.09	13.13
26/01/2020 05:02:24	26012020	260120	050224	53.550	12.583732	-57.414265	53.500	-0.050	-0.170	-0.500	53.550	-1.100	0.200																			1580014944.0	7.39	13.69
26/01/2020 05:02:25	26012020	260120	050225	53.560	12.583757	-57.414238	53.450	-0.090	-0.430	-0.590	53.550	-1.700	-0.200																			1580014945.0	7.82	14.48
26/01/2020 05:02:26	26012020	260120	050226	53.520	12.583780	-57.414210	53.500	-0.150	-0.440	-0.480	53.530	-1.800	-0.200																			1580014946.0	7.88	14.59
26/01/2020 05:02:27	26012020	260120	050227	53.570	12.583802	-57.414182	53.570	-0.190	-0.320	-0.070	53.590	-1.800	0.100																			1580014947.0	7.62	14.11
26/01/2020 05:02:28	26012020	260120	050228	53.620	12.583820	-57.414152	53.540	-0.210	-0.140	0.360	53.620	-1.600	0.500																			1580014948.0	7.47	13.83
26/01/2020 05:02:29	26012020	260120	050229	53.590	12.583838	-57.414122	53.510	-0.210	0.010	0.620	53.580	-1.400	0.900																			1580014949.0	7.43	13.76
26/01/2020 05:02:30	26012020	260120	050230	53.550	12.583857	-57.414092	53.470	-0.120	0.050	0.740	53.550	-1.300	1.100																			1580014950.0	7.35	13.61
26/01/2020 05:02:31	26012020	260120	050231	53.500	12.583875	-57.414063	53.350	0.060	-0.060	0.740	53.490	-1.400	1.100																			1580014951.0	7.36	13.63
26/01/2020 05:02:32	26012020	260120	050232	53.380	12.583897	-57.414035	53.220	0.300	-0.280	0.570	53.350	-1.600	1.000																			1580014952.0	7.49	13.87
26/01/2020 05:02:33	26012020	260120	050233	53.250	12.583920	-57.414007	53.240	0.440	-0.480	0.210	53.240	-1.800	0.800																			1580014953.0	7.67	14.20
26/01/2020 05:02:34	26012020	260120	050234	53.270	12.583943	-57.413980	53.340	0.390	-0.430	-0.160	53.300	-1.900	0.400																			1580014954.0	7.82	14.48
26/01/2020 05:02:35	26012020	260120	050235	53.390	12.583968	-57.413953	53.380	0.120	-0.060	-0.320	53.420	-1.600	0.100																			1580014955.0	7.76	14.37
26/01/2020 05:02:36	26012020	260120	050236	53.440	12.583992	-57.413927	53.360	-0.230	0.300	-0.230	53.440	-1.500	0.100																			1580014956.0	7.39	13.69
26/01/2020 05:02:37	26012020	260120	050237	53.420	12.584013	-57.413902	53.380	-0.450	0.210	-0.010	53.420	-1.100	0.300																			1580014957.0	7.03	13.02
26/01/2020 05:02:38	26012020	260120	050238	53.430	12.584032	-57.413873	53.420	-0.440	-0.290	0.230	53.430	-1.100	0.300																			1580014958.0	7.23	13.39
26/01/2020 05:02:39	26012020	260120	050239	53.470	12.584053	-57.413843	53.440	-0.200	-0.740	0.500	53.480	-2.000	0.700																			1580014959.0	7.74	14.33
26/01/2020 05:02:40	26012020	260120	050240	53.490	12.584073	-57.413812	53.400	0.040	-0.660	0.750	53.490	-2.100	0.800																			1580014960.0	8.07	14.95
26/01/2020 05:02:41	26012020	260120	050241	53.430	12.584093	-57.413780	53.280	0.100	-0.120	0.870	53.410	-1.800	1.200																			1580014961.0	7.86	14.56
26/01/2020 05:02:42	26012020	260120	050242	53.310	12.584112	-57.413752	53.140	0.050	0.320	0.810	53.280	-1.200	1.200																			1580014962.0	7.26	13.45
26/01/2020 05:02:43	26012020	260120	050243	53.170	12.584132	-57.413725	53.040	0.110	0.240	0.450	53.140	-1.000	1.000																			1580014963.0	6.95	12.87
26/01/2020 05:02:44	26012020	260120	050244	53.080	12.584153	-57.413700	53.000	0.330	-0.200	-0.130	53.080	-1.100	0.900																			1580014964.0	7.29	13.50
26/01/2020 05:02:45	26012020	260120	050245	53.050	12.584180	-57.413673	53.040	0.440	-0.510	-0.580	53.050	-1.800	-0.000																			1580014965.0	7.90	14.63
26/01/2020 05:02:46	26012020	260120	050246	53.100	12.584207	-57.413647	53.160	0.240	-0.420	-0.790	53.120	-1.900	-0.400																			1580014966.0	8.09	14.98
26/01/2020 05:02:47	26012020	260120	050247	53.230	12.584230	-57.413620	53.180	-0.150	-0.050	-0.620	53.250	-1.600	-0.400																			1580014967.0	7.71	14.28
26/01/2020 05:02:48	26012020	260120	050248	53.250	12.584252	-57.413593	53.050	-0.480	0.230	-0.120	53.250	-1.500	-0.300																			1580014968.0	7.22	13.37
26/01/2020 05:02:49	26012020	260120	050249	53.110	12.584270	-57.413565	52.980	-0.520	0.060	0.340	53.080	-1.200	0.500																			1580014969.0	7.03	13.02
26/01/2020 05:02:50	26012020	260120	050250	53.030	12.584288	-57.413535	53.010	-0.260	-0.410	0.650	53.030	-1.300	0.700																			1580014970.0	7.32	13.56
26/01/2020 05:02:51	26012020	260120	050251	53.050	12.584308	-57.413505	53.040	-0.010	-0.530	0.860	53.050	-1.900	1.100																			1580014971.0	7.88	14.59
26/01/2020 05:02:52	26012020	260120	050252	53.070	12.584330	-57.413473	53.020	0.020	-0.170	0.970	53.070	-1.700	1.300																			1580014972.0	7.96	14.74
26/01/2020 05:02:53	26012020	260120	050253	53.040	12.584348	-57.413445	52.970	-0.020	0.060	0.890	53.030	-1.400	1.300																			1580014973.0	7.34	13.59
26/01/2020 05:02:54	26012020	260120	050254	53.010	12.584368	-57.413418	52.960	0.140	-0.220	0.580	53.010	-1.400	1.100																			1580014974.0	6.98	12.93
26/01/2020 05:02:55	26012020	260120	050255	53.000	12.584390	-57.413392	52.890	0.440	-0.530	0.190	53.000	-1.800	0.700																			1580014975.0	7.43	13.76
26/01/2020 05:02:56	26012020	260120	050256	52.940	12.584415	-57.413363	52.740	0.520	-0.370	-0.140	52.920	-1.900	0.400																			1580014976.0	8.00	14.82
26/01/2020 05:02:57	26012020	260120	050257	52.810	12.584440	-57.413337	52.630	0.250	0.080	-0.370	52.780	-1.500	0.100																			1580014977.0	7.80	14.45
26/01/2020 05:02:58	26012020	260120	050258	52.690	12.584463	-57.413312	52.640	-0.160	0.290	-0.550	52.680	-1.100	-0.100																			1580014978.0	7.26	13.45
26/01/2020 05:02:59	26012020	260120	050259	52.700	12.584485	-57.413287	52.790	-0.370	0.090	-0.620	52.720	-1.200	-0.200																			1580014979.0	7.10	13.15
26/01/2020 05:03:00	26012020	260120	050300	52.850	12.584508	-57.413260	52.940	-0.330	-0.280	-0.370	52.890	-1.500	-0.200	1014.70	25.70	25.80	21.10	21.10	0.00	75.00	75.00	432.00	25.40	10.00	9.60	70.00	5.80	15	3243.00	27.40	27.40	1580014980.0	7.41	13.72
26/01/2020 05:03:01	26012020	260120	050301	53.000	12.584530	-57.413232	53.010	-0.230	-0.430	0.170	53.030	-1.800	0.300																			1580014981.0	7.76	14.37
26/01/2020 05:03:02	26012020	260120	050302	53.060	12.584548	-57.413200	52.950	-0.230	-0.260	0.770	53.050	-1.700	0.900																			1580014982.0	7.81	14.46
26/01/2020 05:03:03	26012020	260120	050303	52.980	12.584567	-57.413168	52.830	-0.280	-0.030	1.110	52.960	-1.500	1.400																			1580014983.0	7.51	13.91
26/01/2020 05:03:04	26012020	260120	050304	52.860	12.584585	-57.413140	52.760	-0.150	-0.030	1.040	52.840	-1.400	1.500																			1580014984.0	7.19	13.32
26/01/2020 05:03:05	26012020	260120	050305	52.790	12.584605	-57.413113	52.700	0.250	-0.260	0.710	52.780	-1.500	1.300																			1580014985.0	7.23	13.39
26/01/2020 05:03:06	26012020	260120	050306	52.750	12.584628	-57.413087	52.710	0.640	-0.530	0.270	52.740	-1.800	0.800																			1580014986.0	7.57	14.02
26/01/2020 05:03:07	26012020	260120	050307	52.760	12.584653	-57.413058	52.700	0.680	-0.520	-0.100	52.760	-2.000	0.400																			1580014987.0	7.84	14.52
26/01/2020 05:03:08	26012020	260120	050308	52.750	12.584678	-57.413032	52.610	0.320	-0.170	-0.290	52.730	-1.700	0.200																			1580014988.0	7.83	14.50
26/01/2020 05:03:09	26012020	260120	050309	52.670	12.584702	-57.413007	52.600	-0.130	0.120	-0.410	52.660	-1.400	0.000																			1580014989.0	7.42	13.74
26/01/2020 05:03:10	26012020	260120	050310	52.660	12.584723	-57.412980	52.700	-0.360	0.150	-0.430	52.670	-1.200	-0.100																			1580014990.0	7.16	13.26
26/01/2020 05:03:11	26012020	260120	050311	52.760	12.584745	-57.412953	52.870	-0.380	0.030	-0.310	52.800	-1.300	-0.000																			1580014991.0	7.35	13.61
26/01/2020 05:03:12	26012020	260120	050312	52.920	12.584767	-57.412925	52.930	-0.370	-0.060	-0.090	52.920	-1.300	0.000																			1580014992.0	7.59	14.06
26/01/2020 05:03:13	26012020	260120	050313	52.980	12.584787	-57.412895	52.830	-0.390	-0.040	0.230	52.970	-1.400	0.400																			1580014993.0	7.62	14.11
26/01/2020 05:03:14	26012020	260120	050314	52.870	12.584807	-57.412867	52.730	-0.330	-0.090	0.540	52.840	-1.400	0.800																			1580014994.0	7.46	13.82
26/01/2020 05:03:15	26012020	260120	050315	52.760	12.584825	-57.412838	52.690	-0.040	-0.350	0.690	52.750	-1.600	1.000																			1580014995.0	7.30	13.52
26/01/2020 05:03:16	26012020	260120	050316	52.720	12.584847	-57.412810	52.620	0.390	-0.640	0.700	52.710	-1.900	1.100																			1580014996.0	7.46	13.82
26/01/2020 05:03:17	26012020	260120	050317	52.660	12.584870	-57.412782	52.510	0.630	-0.660	0.580	52.640	-2.100	1.000																			1580014997.0	7.74	14.33
26/01/2020 05:03:18	26012020	260120	050318	52.560	12.584892	-57.412753	52.550	0.510	-0.410	0.390	52.550	-1.900	0.900																			1580014998.0	7.76	14.37
26/01/2020 05:03:19	26012020	260120	050319	52.600	12.584915	-57.412727	52.760	0.180	-0.100	0.100	52.630	-1.600	0.600																			1580014999.0	7.49	13.87
26/01/2020 05:03:20	26012020	260120	050320	52.810	12.584938	-57.412700	52.940	-0.110	0.190	-0.140	52.860	-1.300	0.300																			1580015000.0	7.36	13.63
26/01/2020 05:03:21	26012020	260120	050321	52.990	12.584962	-57.412675	52.920	-0.260	0.480	-0.130	53.000	-1.000	0.200																			1580015001.0	7.38	13.67
26/01/2020 05:03:22	26012020	260120	050322	52.970	12.584983	-57.412648	52.910	-0.260	0.390	-0.050	52.950	-0.900	0.300																			1580015002.0	7.26	13.45
26/01/2020 05:03:23	26012020	260120	050323	52.970	12.585003	-57.412622	53.060	-0.120	-0.230	-0.040	52.980	-1.300	0.300																			1580015003.0	7.24	13.41
26/01/2020 05:03:24	26012020	260120	050324	53.110	12.585025	-57.412592	53.160	0.050	-0.760	0.070	53.140	-2.000	0.400																			1580015004.0	7.72	14.30
26/01/2020 05:03:25	26012020	260120	050325	53.200	12.585048	-57.412562	53.050	0.050	-0.620	0.270	53.190	-2.200	0.600																			1580015005.0	8.13	15.06
26/01/2020 05:03:26	26012020	260120	050326	53.090	12.585070	-57.412532	52.890	-0.100	-0.090	0.410	53.090	-2.000	0.600																			1580015006.0	7.76	14.37
26/01/2020 05:03:27	26012020	260120	050327	52.930	12.585088	-57.412505	52.840	-0.190	0.090	0.340	52.910	-1.300	0.800																			1580015007.0	7.01	12.98
26/01/2020 05:03:28	26012020	260120	050328	52.880	12.585108	-57.412478	52.940	-0.050	-0.200	0.070	52.890	-1.400	0.600																			1580015008.0	6.95	12.87
26/01/2020 05:03:29	26012020	260120	050329	52.980	12.585132	-57.412452	53.050	0.160	-0.390	-0.200	53.000	-1.700	0.300																			1580015009.0	7.56	14.00
26/01/2020 05:03:30	26012020	260120	050330	53.110	12.585157	-57.412425	53.110	0.180	-0.200	-0.290	53.120	-1.700	0.100																			1580015010.0	7.95	14.72
26/01/2020 05:03:31	26012020	260120	050331	53.160	12.585180	-57.412398	53.190	0.070	-0.040	-0.250	53.170	-1.500	0.100																			1580015011.0	7.56	14.00
26/01/2020 05:03:32	26012020	260120	050332	53.240	12.585202	-57.412372	53.350	0.030	-0.130	-0.130	53.270	-1.500	0.200																			1580015012.0	7.25	13.43
26/01/2020 05:03:33	26012020	260120	050333	53.400	12.585222	-57.412343	53.410	-0.010	-0.170	0.110	53.430	-1.600	0.400																			1580015013.0	7.48	13.85
26/01/2020 05:03:34	26012020	260120	050334	53.460	12.585243	-57.412313	53.330	-0.150	0.020	0.310	53.450	-1.500	0.600																			1580015014.0	7.70	14.26
26/01/2020 05:03:35	26012020	260120	050335	53.390	12.585263	-57.412285	53.250	-0.270	0.200	0.460	53.370	-1.200	0.800																			1580015015.0	7.44	13.78
26/01/2020 05:03:36	26012020	260120	050336	53.310	12.585283	-57.412257	53.260	-0.150	0.010	0.500	53.300	-1.200	0.900																			1580015016.0	7.11	13.17
26/01/2020 05:03:37	26012020	260120	050337	53.310	12.585303	-57.412230	53.270	0.160	-0.490	0.400	53.320	-1.600	0.800																			1580015017.0	7.24	13.41
26/01/2020 05:03:38	26012020	260120	050338	53.310	12.585325	-57.412202	53.200	0.440	-0.890	0.200	53.310	-1.800	0.800																			1580015018.0	7.71	14.28
26/01/2020 05:03:39	26012020	260120	050339	53.250	12.585350	-57.412172	53.160	0.460	-0.730	0.050	53.230	-2.300	0.500																			1580015019.0	8.04	14.89
26/01/2020 05:03:40	26012020	260120	050340	53.210	12.585373	-57.412145	53.260	0.170	-0.060	-0.130	53.210	-2.200	0.400																			1580015020.0	7.85	14.54
26/01/2020 05:03:41	26012020	260120	050341	53.320	12.585397	-57.412118	53.460	-0.220	0.540	-0.330	53.350	-1.100	0.100																			1580015021.0	7.23	13.39
26/01/2020 05:03:42	26012020	260120	050342	53.530	12.585417	-57.412095	53.620	-0.450	0.580	-0.300	53.560	-0.700	0.000																			1580015022.0	6.83	12.65
26/01/2020 05:03:43	26012020	260120	050343	53.680	12.585438	-57.412068	53.650	-0.420	0.090	-0.070	53.700	-1.000	0.200																			1580015023.0	7.05	13.06
26/01/2020 05:03:44	26012020	260120	050344	53.710	12.585458	-57.412040	53.630	-0.180	-0.530	0.220	53.700	-1.700	0.500																			1580015024.0	7.61	14.09
26/01/2020 05:03:45	26012020	260120	050345	53.670	12.585478	-57.412008	53.610	0.100	-0.800	0.450	53.660	-2.100	0.700																			1580015025.0	8.00	14.82
26/01/2020 05:03:46	26012020	260120	050346	53.640	12.585500	-57.411977	53.570	0.270	-0.550	0.560	53.640	-2.100	0.900																			1580015026.0	7.96	14.74
26/01/2020 05:03:47	26012020	260120	050347	53.610	12.585520	-57.411948	53.520	0.270	-0.100	0.480	53.600	-1.700	0.900																			1580015027.0	7.52	13.93
26/01/2020 05:03:48	26012020	260120	050348	53.560	12.585540	-57.411922	53.510	0.160	0.190	0.200	53.550	-1.300	0.700																			1580015028.0	7.12	13.19
26/01/2020 05:03:49	26012020	260120	050349	53.550	12.585562	-57.411895	53.570	0.050	0.180	-0.200	53.560	-1.200	0.400																			1580015029.0	7.08	13.11
26/01/2020 05:03:50	26012020	260120	050350	53.610	12.585585	-57.411870	53.640	0.000	-0.090	-0.500	53.640	-1.300	-0.000																			1580015030.0	7.34	13.59
26/01/2020 05:03:51	26012020	260120	050351	53.710	12.585610	-57.411843	53.700	-0.030	-0.350	-0.560	53.720	-1.600	-0.200																			1580015031.0	7.65	14.17
26/01/2020 05:03:52	26012020	260120	050352	53.750	12.585633	-57.411815	53.690	-0.110	-0.390	-0.400	53.750	-1.800	-0.100																			1580015032.0	7.79	14.43
26/01/2020 05:03:53	26012020	260120	050353	53.750	12.585655	-57.411787	53.720	-0.230	-0.220	-0.110	53.750	-1.700	0.100																			1580015033.0	7.64	14.15
26/01/2020 05:03:54	26012020	260120	050354	53.770	12.585673	-57.411758	53.810	-0.220	-0.140	0.210	53.770	-1.600	0.200																			1580015034.0	7.37	13.65
26/01/2020 05:03:55	26012020	260120	050355	53.840	12.585692	-57.411730	53.820	0.060	-0.370	0.500	53.860	-1.600	0.700																			1580015035.0	7.26	13.45
26/01/2020 05:03:56	26012020	260120	050356	53.860	12.585712	-57.411700	53.760	0.430	-0.550	0.700	53.850	-1.900	1.000																			1580015036.0	7.56	14.00
26/01/2020 05:03:57	26012020	260120	050357	53.790	12.585733	-57.411668	53.730	0.520	-0.210	0.740	53.780	-1.800	1.100																			1580015037.0	7.95	14.72
26/01/2020 05:03:58	26012020	260120	050358	53.770	12.585755	-57.411640	53.750	0.200	0.390	0.620	53.780	-1.300	1.100																			1580015038.0	7.68	14.22
26/01/2020 05:03:59	26012020	260120	050359	53.810	12.585775	-57.411615	53.860	-0.240	0.600	0.300	53.830	-0.800	0.900																			1580015039.0	7.02	13.00
26/01/2020 05:04:00	26012020	260120	050400	53.930	12.585797	-57.411590	54.090	-0.460	0.210	-0.180	53.960	-0.900	0.400	1014.70	25.70	25.80	20.90	21.00	0.00	75.00	75.00	433.00	25.40	11.00	9.50	72.00	5.70	15	3273.00	27.40	27.40	1580015040.0	6.91	12.80
26/01/2020 05:04:01	26012020	260120	050401	54.160	12.585820	-57.411563	54.340	-0.380	-0.400	-0.510	54.210	-1.500	-0.000																			1580015041.0	7.43	13.76
26/01/2020 05:04:02	26012020	260120	050402	54.420	12.585845	-57.411535	54.330	-0.210	-0.630	-0.330	54.420	-1.700	-0.100																			1580015042.0	7.93	14.69
26/01/2020 05:04:03	26012020	260120	050403	54.400	12.585867	-57.411505	54.030	-0.090	-0.460	0.090	54.350	-1.900	0.300																			1580015043.0	7.86	14.56
26/01/2020 05:04:04	26012020	260120	050404	54.090	12.585883	-57.411477	53.770	0.040	-0.360	0.310	54.090	-1.900	0.400																			1580015044.0	7.35	13.61
26/01/2020 05:04:05	26012020	260120	050405	53.820	12.585902	-57.411448	53.720	0.280	-0.530	0.170	53.790	-1.800	0.600																			1580015045.0	7.13	13.20
26/01/2020 05:04:06	26012020	260120	050406	53.780	12.585923	-57.411420	53.820	0.510	-0.650	-0.150	53.790	-2.000	0.400																			1580015046.0	7.49	13.87
26/01/2020 05:04:07	26012020	260120	050407	53.890	12.585947	-57.411392	53.910	0.540	-0.380	-0.390	53.910	-1.900	0.100																			1580015047.0	7.85	14.54
26/01/2020 05:04:08	26012020	260120	050408	53.990	12.585972	-57.411365	53.960	0.240	0.260	-0.340	54.000	-1.400	-0.000																			1580015048.0	7.78	14.41
26/01/2020 05:04:09	26012020	260120	050409	54.030	12.585993	-57.411338	54.020	-0.230	0.760	-0.100	54.040	-0.800	0.200																			1580015049.0	7.30	13.52
26/01/2020 05:04:10	26012020	260120	050410	54.090	12.586012	-57.411312	54.150	-0.560	0.640	0.040	54.110	-0.600	0.400																			1580015050.0	6.94	12.85
26/01/2020 05:04:11	26012020	260120	050411	54.210	12.586032	-57.411283	54.300	-0.530	0.060	0.070	54.250	-1.000	0.400																			1580015051.0	7.16	13.26
26/01/2020 05:04:12	26012020	260120	050412	54.370	12.586052	-57.411253	54.270	-0.200	-0.470	0.240	54.380	-1.600	0.500																			1580015052.0	7.67	14.20
26/01/2020 05:04:13	26012020	260120	050413	54.340	12.586073	-57.411223	54.050	0.150	-0.690	0.620	54.300	-2.000	0.800																			1580015053.0	7.89	14.61
26/01/2020 05:04:14	26012020	260120	050414	54.100	12.586093	-57.411193	53.800	0.290	-0.660	0.890	54.040	-2.100	1.200																			1580015054.0	7.70	14.26
26/01/2020 05:04:15	26012020	260120	050415	53.850	12.586113	-57.411165	53.740	0.240	-0.570	0.700	53.820	-2.000	1.200																			1580015055.0	7.42	13.74
26/01/2020 05:04:16	26012020	260120	050416	53.780	12.586133	-57.411137	53.840	0.160	-0.470	0.230	53.780	-2.000	1.100																			1580015056.0	7.32	13.56
26/01/2020 05:04:17	26012020	260120	050417	53.890	12.586157	-57.411110	53.890	0.050	-0.150	-0.040	53.920	-1.700	0.400																			1580015057.0	7.48	13.85
26/01/2020 05:04:18	26012020	260120	050418	53.950	12.586180	-57.411083	53.780	-0.150	0.330	-0.050	53.950	-1.600	0.400																			1580015058.0	7.53	13.95
26/01/2020 05:04:19	26012020	260120	050419	53.840	12.586200	-57.411057	53.700	-0.310	0.440	-0.090	53.820	-0.900	0.300																			1580015059.0	7.20	13.33
26/01/2020 05:04:20	26012020	260120	050420	53.760	12.586222	-57.411030	53.760	-0.190	0.010	-0.300	53.760	-1.100	0.200																			1580015060.0	7.12	13.19
26/01/2020 05:04:21	26012020	260120	050421	53.830	12.586243	-57.411002	53.840	0.120	-0.420	-0.410	53.860	-1.600	-0.000																			1580015061.0	7.62	14.11
26/01/2020 05:04:22	26012020	260120	050422	53.920	12.586265	-57.410972	53.800	0.320	-0.450	-0.250	53.920	-1.900	0.000																			1580015062.0	8.01	14.83
26/01/2020 05:04:23	26012020	260120	050423	53.870	12.586287	-57.410942	53.720	0.290	-0.310	-0.080	53.840	-1.800	0.200																			1580015063.0	7.75	14.35
26/01/2020 05:04:24	26012020	260120	050424	53.770	12.586307	-57.410913	53.620	0.140	-0.210	0.020	53.750	-1.600	0.300																			1580015064.0	7.34	13.59
26/01/2020 05:04:25	26012020	260120	050425	53.670	12.586327	-57.410887	53.470	-0.000	-0.070	0.220	53.650	-1.500	0.500																			1580015065.0	7.32	13.56
26/01/2020 05:04:26	26012020	260120	050426	53.510	12.586348	-57.410858	53.400	-0.120	0.070	0.410	53.490	-1.400	0.700																			1580015066.0	7.40	13.70
26/01/2020 05:04:27	26012020	260120	050427	53.450	12.586370	-57.410832	53.460	-0.190	0.000	0.490	53.460	-1.300	0.800																			1580015067.0	7.32	13.56
26/01/2020 05:04:28	26012020	260120	050428	53.520	12.586390	-57.410803	53.450	-0.220	-0.250	0.550	53.520	-1.400	0.900																			1580015068.0	7.37	13.65
26/01/2020 05:04:29	26012020	260120	050429	53.510	12.586412	-57.410775	53.380	-0.200	-0.440	0.600	53.500	-1.800	0.900																			1580015069.0	7.61	14.09
26/01/2020 05:04:30	26012020	260120	050430	53.440	12.586433	-57.410745	53.440	-0.090	-0.430	0.580	53.440	-1.800	1.000																			1580015070.0	7.75	14.35
26/01/2020 05:04:31	26012020	260120	050431	53.490	12.586453	-57.410717	53.510	0.050	-0.160	0.500	53.510	-1.700	0.900																			1580015071.0	7.64	14.15
26/01/2020 05:04:32	26012020	260120	050432	53.580	12.586475	-57.410688	53.410	0.110	0.180	0.360	53.580	-1.300	0.800																			1580015072.0	7.42	13.74
26/01/2020 05:04:33	26012020	260120	050433	53.470	12.586495	-57.410660	53.150	0.140	0.160	0.160	53.420	-1.100	0.600																			1580015073.0	7.16	13.26
26/01/2020 05:04:34	26012020	260120	050434	53.230	12.586517	-57.410635	53.100	0.230	-0.310	-0.220	53.200	-1.400	0.400																			1580015074.0	7.20	13.33
26/01/2020 05:04:35	26012020	260120	050435	53.190	12.586540	-57.410607	53.330	0.330	-0.770	-0.690	53.210	-2.000	-0.100																			1580015075.0	7.71	14.28
26/01/2020 05:04:36	26012020	260120	050436	53.410	12.586567	-57.410580	53.510	0.260	-0.590	-0.810	53.460	-2.100	-0.400																			1580015076.0	8.16	15.11
26/01/2020 05:04:37	26012020	260120	050437	53.590	12.586590	-57.410552	53.430	-0.030	0.120	-0.410	53.590	-1.600	-0.300																			1580015077.0	7.88	14.59
26/01/2020 05:04:38	26012020	260120	050438	53.500	12.586610	-57.410525	53.220	-0.420	0.640	0.200	53.450	-0.900	0.300																			1580015078.0	7.11	13.17
26/01/2020 05:04:39	26012020	260120	050439	53.260	12.586627	-57.410498	53.090	-0.660	0.440	0.630	53.220	-0.700	0.900																			1580015079.0	6.78	12.56
26/01/2020 05:04:40	26012020	260120	050440	53.130	12.586645	-57.410468	53.210	-0.440	-0.330	0.670	53.140	-1.300	1.100																			1580015080.0	7.13	13.20
26/01/2020 05:04:41	26012020	260120	050441	53.250	12.586667	-57.410440	53.360	0.160	-0.970	0.610	53.300	-2.100	1.000																			1580015081.0	7.81	14.46
26/01/2020 05:04:42	26012020	260120	050442	53.400	12.586690	-57.410408	53.310	0.580	-0.840	0.680	53.410	-2.400	1.000																			1580015082.0	8.27	15.32
26/01/2020 05:04:43	26012020	260120	050443	53.360	12.586712	-57.410378	53.200	0.470	-0.210	0.740	53.340	-1.900	1.100																			1580015083.0	7.91	14.65
26/01/2020 05:04:44	26012020	260120	050444	53.250	12.586732	-57.410352	53.240	0.090	0.140	0.500	53.230	-1.300	1.000																			1580015084.0	7.10	13.15
26/01/2020 05:04:45	26012020	260120	050445	53.300	12.586753	-57.410327	53.390	-0.090	0.070	-0.010	53.330	-1.300	0.600																			1580015085.0	6.91	12.80
26/01/2020 05:04:46	26012020	260120	050446	53.470	12.586777	-57.410302	53.450	-0.040	0.050	-0.400	53.490	-1.300	0.100																			1580015086.0	7.45	13.80
26/01/2020 05:04:47	26012020	260120	050447	53.520	12.586802	-57.410275	53.400	-0.000	0.090	-0.480	53.520	-1.300	-0.100																			1580015087.0	7.72	14.30
26/01/2020 05:04:48	26012020	260120	050448	53.480	12.586823	-57.410248	53.340	-0.110	0.040	-0.290	53.460	-1.300	-0.000																			1580015088.0	7.51	13.91
26/01/2020 05:04:49	26012020	260120	050449	53.400	12.586845	-57.410220	53.330	-0.320	-0.120	-0.130	53.390	-1.400	0.200																			1580015089.0	7.42	13.74
26/01/2020 05:04:50	26012020	260120	050450	53.390	12.586865	-57.410192	53.400	-0.370	-0.350	-0.090	53.400	-1.600	0.300																			1580015090.0	7.44	13.78
26/01/2020 05:04:51	26012020	260120	050451	53.470	12.586887	-57.410162	53.450	-0.150	-0.560	0.050	53.490	-1.900	0.300																			1580015091.0	7.49	13.87
26/01/2020 05:04:52	26012020	260120	050452	53.520	12.586907	-57.410133	53.340	0.160	-0.540	0.330	53.510	-1.900	0.600																			1580015092.0	7.60	14.08
26/01/2020 05:04:53	26012020	260120	050453	53.410	12.586927	-57.410103	53.200	0.310	-0.310	0.450	53.370	-1.800	0.800																			1580015093.0	7.61	14.09
26/01/2020 05:04:54	26012020	260120	050454	53.260	12.586948	-57.410075	53.200	0.280	-0.050	0.360	53.260	-1.700	0.800																			1580015094.0	7.42	13.74
26/01/2020 05:04:55	26012020	260120	050455	53.270	12.586970	-57.410048	53.320	0.160	0.090	0.100	53.280	-1.300	0.600																			1580015095.0	7.27	13.46
26/01/2020 05:04:56	26012020	260120	050456	53.390	12.586992	-57.410023	53.460	0.060	0.030	-0.180	53.420	-1.300	0.300																			1580015096.0	7.34	13.59
26/01/2020 05:04:57	26012020	260120	050457	53.540	12.587015	-57.409997	53.530	0.030	-0.160	-0.240	53.560	-1.400	0.100																			1580015097.0	7.50	13.89
26/01/2020 05:04:58	26012020	260120	050458	53.620	12.587038	-57.409970	53.520	-0.030	-0.290	0.020	53.620	-1.600	0.300																			1580015098.0	7.67	14.20
26/01/2020 05:04:59	26012020	260120	050459	53.610	12.587060	-57.409940	53.440	-0.220	-0.180	0.360	53.600	-1.600	0.600																			1580015099.0	7.73	14.32
26/01/2020 05:05:00	26012020	260120	050500	53.520	12.587080	-57.409910	53.340	-0.430	0.030	0.630	53.500	-1.400	0.900	1014.70	25.70	25.80	21.00	21.00	0.00	75.00	75.00	432.00	25.40	14.00	9.20	77.00	5.50	15	3325.00	27.40	27.40	1580015100.0	7.55	13.98
26/01/2020 05:05:01	26012020	260120	050501	53.400	12.587098	-57.409882	53.340	-0.400	0.020	0.660	53.390	-1.300	1.100																			1580015101.0	7.24	13.41
26/01/2020 05:05:02	26012020	260120	050502	53.400	12.587117	-57.409853	53.400	-0.080	-0.300	0.420	53.420	-1.500	0.900																			1580015102.0	7.22	13.37
26/01/2020 05:05:03	26012020	260120	050503	53.480	12.587138	-57.409825	53.410	0.300	-0.560	0.060	53.480	-1.900	0.600																			1580015103.0	7.56	14.00
26/01/2020 05:05:04	26012020	260120	050504	53.490	12.587162	-57.409797	53.400	0.420	-0.330	-0.260	53.490	-1.900	0.300																			1580015104.0	7.90	14.63
26/01/2020 05:05:05	26012020	260120	050505	53.490	12.587187	-57.409770	53.400	0.280	0.130	-0.470	53.490	-1.400	-0.000																			1580015105.0	7.68	14.22
26/01/2020 05:05:06	26012020	260120	050506	53.490	12.587210	-57.409745	53.400	0.120	0.190	-0.500	53.490	-1.300	-0.100																			1580015106.0	7.11	13.17
26/01/2020 05:05:07	26012020	260120	050507	53.490	12.587232	-57.409720	53.380	0.060	-0.260	-0.330	53.490	-1.400	-0.000																			1580015107.0	7.08	13.11
26/01/2020 05:05:08	26012020	260120	050508	53.480	12.587253	-57.409692	53.430	-0.050	-0.540	-0.030	53.480	-1.600	0.000																			1580015108.0	7.69	14.24
26/01/2020 05:05:09	26012020	260120	050509	53.510	12.587275	-57.409662	53.540	-0.260	-0.340	0.350	53.520	-1.900	0.600																			1580015109.0	7.99	14.80
26/01/2020 05:05:10	26012020	260120	050510	53.600	12.587295	-57.409632	53.660	-0.420	0.000	0.680	53.620	-1.500	0.900																			1580015110.0	7.55	13.98
26/01/2020 05:05:11	26012020	260120	050511	53.710	12.587313	-57.409603	53.690	-0.370	0.100	0.910	53.720	-1.300	1.200																			1580015111.0	7.12	13.19
26/01/2020 05:05:12	26012020	260120	050512	53.720	12.587330	-57.409575	53.610	-0.120	-0.140	1.000	53.710	-1.400	1.400																			1580015112.0	7.16	13.26
26/01/2020 05:05:13	26012020	260120	050513	53.640	12.587350	-57.409545	53.480	0.190	-0.440	0.930	53.620	-1.700	1.400																			1580015113.0	7.54	13.96
26/01/2020 05:05:14	26012020	260120	050514	53.510	12.587373	-57.409515	53.410	0.380	-0.480	0.570	53.500	-1.900	1.100																			1580015114.0	7.86	14.56
26/01/2020 05:05:15	26012020	260120	050515	53.460	12.587395	-57.409487	53.400	0.380	-0.200	0.120	53.450	-1.700	0.700																			1580015115.0	7.81	14.46
26/01/2020 05:05:16	26012020	260120	050516	53.450	12.587418	-57.409460	53.340	0.220	0.170	-0.240	53.440	-1.400	0.300																			1580015116.0	7.48	13.85
26/01/2020 05:05:17	26012020	260120	050517	53.400	12.587442	-57.409435	53.340	0.020	0.270	-0.670	53.390	-1.100	-0.100																			1580015117.0	7.20	13.33
26/01/2020 05:05:18	26012020	260120	050518	53.410	12.587465	-57.409412	53.400	-0.070	-0.020	-1.080	53.410	-1.100	-0.200																			1580015118.0	7.19	13.32
26/01/2020 05:05:19	26012020	260120	050519	53.490	12.587488	-57.409385	53.460	-0.050	-0.400	-1.110	53.500	-1.600	-0.800																			1580015119.0	7.55	13.98
26/01/2020 05:05:20	26012020	260120	050520	53.550	12.587513	-57.409358	53.510	-0.080	-0.510	-0.730	53.550	-1.700	-0.700																			1580015120.0	7.87	14.58
26/01/2020 05:05:21	26012020	260120	050521	53.590	12.587535	-57.409328	53.560	-0.220	-0.320	-0.050	53.600	-1.800	-0.000																			1580015121.0	7.77	14.39
26/01/2020 05:05:22	26012020	260120	050522	53.640	12.587555	-57.409298	53.610	-0.380	0.010	0.790	53.640	-1.700	0.200																			1580015122.0	7.47	13.83
26/01/2020 05:05:23	26012020	260120	050523	53.660	12.587570	-57.409268	53.600	-0.450	0.170	1.490	53.660	-1.200	1.600																			1580015123.0	7.24	13.41
26/01/2020 05:05:24	26012020	260120	050524	53.640	12.587585	-57.409238	53.550	-0.330	-0.030	1.770	53.630	-1.300	2.100																			1580015124.0	7.23	13.39
26/01/2020 05:05:25	26012020	260120	050525	53.580	12.587602	-57.409207	53.450	-0.000	-0.420	1.640	53.560	-1.600	2.100																			1580015125.0	7.45	13.80
26/01/2020 05:05:26	26012020	260120	050526	53.480	12.587622	-57.409177	53.320	0.420	-0.650	1.150	53.450	-1.900	1.800																			1580015126.0	7.77	14.39
26/01/2020 05:05:27	26012020	260120	050527	53.360	12.587647	-57.409148	53.170	0.820	-0.670	0.410	53.330	-2.100	1.200																			1580015127.0	7.84	14.52
26/01/2020 05:05:28	26012020	260120	050528	53.230	12.587672	-57.409122	53.050	0.980	-0.460	-0.370	53.200	-2.000	0.400																			1580015128.0	7.77	14.39
26/01/2020 05:05:29	26012020	260120	050529	53.150	12.587698	-57.409098	53.040	0.660	0.020	-0.920	53.140	-1.600	-0.300																			1580015129.0	7.78	14.41
26/01/2020 05:05:30	26012020	260120	050530	53.140	12.587725	-57.409073	53.130	-0.060	0.520	-1.200	53.150	-1.100	-0.700																			1580015130.0	7.57	14.02
26/01/2020 05:05:31	26012020	260120	050531	53.230	12.587748	-57.409050	53.330	-0.790	0.700	-1.090	53.260	-0.700	-0.800																			1580015131.0	7.19	13.32
26/01/2020 05:05:32	26012020	260120	050532	53.420	12.587770	-57.409023	53.580	-1.160	0.440	-0.600	53.460	-0.800	-0.500																			1580015132.0	7.13	13.20
26/01/2020 05:05:33	26012020	260120	050533	53.670	12.587788	-57.408995	53.890	-1.040	-0.120	0.050	53.720	-1.200	0.100																			1580015133.0	7.37	13.65
26/01/2020 05:05:34	26012020	260120	050534	53.940	12.587805	-57.408962	53.970	-0.540	-0.630	0.840	53.980	-1.800	0.800																			1580015134.0	7.73	14.32
26/01/2020 05:05:35	26012020	260120	050535	54.000	12.587822	-57.408928	53.620	0.110	-0.820	1.660	53.970	-2.100	1.700																			1580015135.0	7.93	14.69
26/01/2020 05:05:36	26012020	260120	050536	53.630	12.587837	-57.408895	53.110	0.680	-0.860	2.000	53.520	-2.200	2.300																			1580015136.0	7.77	14.39
26/01/2020 05:05:37	26012020	260120	050537	53.110	12.587855	-57.408865	52.930	1.040	-0.830	1.450	53.040	-2.200	2.200																			1580015137.0	7.54	13.96
26/01/2020 05:05:38	26012020	260120	050538	52.950	12.587880	-57.408838	53.130	1.020	-0.480	0.390	52.980	-2.100	1.300																			1580015138.0	7.67	14.20
26/01/2020 05:05:39	26012020	260120	050539	53.190	12.587907	-57.408813	53.370	0.550	0.260	-0.500	53.250	-1.500	0.300																			1580015139.0	7.85	14.54
26/01/2020 05:05:40	26012020	260120	050540	53.460	12.587935	-57.408792	53.520	-0.180	0.790	-0.960	53.500	-0.800	-0.400																			1580015140.0	7.43	13.76
26/01/2020 05:05:41	26012020	260120	050541	53.620	12.587958	-57.408768	53.550	-0.810	0.670	-0.950	53.630	-0.600	-0.600																			1580015141.0	7.01	12.98
26/01/2020 05:05:42	26012020	260120	050542	53.640	12.587978	-57.408742	53.560	-1.020	0.070	-0.640	53.640	-0.700	-0.600																			1580015142.0	7.25	13.43
26/01/2020 05:05:43	26012020	260120	050543	53.630	12.587998	-57.408712	53.560	-0.710	-0.560	-0.270	53.630	-1.700	-0.100																			1580015143.0	7.81	14.46
26/01/2020 05:05:44	26012020	260120	050544	53.620	12.588018	-57.408678	53.540	-0.080	-0.840	0.040	53.620	-1.900	0.100																			1580015144.0	8.07	14.95
26/01/2020 05:05:45	26012020	260120	050545	53.610	12.588038	-57.408647	53.430	0.420	-0.600	0.330	53.600	-2.200	0.600																			1580015145.0	7.95	14.72
26/01/2020 05:05:46	26012020	260120	050546	53.490	12.588057	-57.408617	53.200	0.420	0.020	0.560	53.450	-1.600	0.900																			1580015146.0	7.61	14.09
26/01/2020 05:05:47	26012020	260120	050547	53.270	12.588077	-57.408588	53.100	0.070	0.420	0.540	53.230	-1.100	1.000																			1580015147.0	7.05	13.06
26/01/2020 05:05:48	26012020	260120	050548	53.180	12.588097	-57.408565	53.250	-0.140	0.190	0.220	53.200	-1.000	0.800																			1580015148.0	6.77	12.54
26/01/2020 05:05:49	26012020	260120	050549	53.330	12.588118	-57.408540	53.410	0.060	-0.440	-0.070	53.370	-1.500	0.400																			1580015149.0	7.20	13.33
26/01/2020 05:05:50	26012020	260120	050550	53.480	12.588143	-57.408512	53.280	0.390	-0.870	0.030	53.480	-2.100	0.300																			1580015150.0	7.90	14.63
26/01/2020 05:05:51	26012020	260120	050551	53.350	12.588168	-57.408482	53.050	0.440	-0.780	0.390	53.300	-2.300	0.600																			1580015151.0	8.15	15.09
26/01/2020 05:05:52	26012020	260120	050552	53.100	12.588188	-57.408452	53.000	0.160	-0.300	0.600	53.070	-1.900	0.900																			1580015152.0	7.82	14.48
26/01/2020 05:05:53	26012020	260120	050553	53.050	12.588208	-57.408423	53.160	-0.210	0.210	0.550	53.070	-1.400	1.000																			1580015153.0	7.32	13.56
26/01/2020 05:05:54	26012020	260120	050554	53.210	12.588227	-57.408397	53.270	-0.420	0.500	0.400	53.250	-1.000	0.800																			1580015154.0	7.06	13.08
26/01/2020 05:05:55	26012020	260120	050555	53.340	12.588247	-57.408368	53.180	-0.390	0.520	0.310	53.340	-0.800	0.700																			1580015155.0	7.13	13.20
26/01/2020 05:05:56	26012020	260120	050556	53.260	12.588268	-57.408342	52.910	-0.230	0.270	0.370	53.260	-0.900	0.700																			1580015156.0	7.31	13.54
26/01/2020 05:05:57	26012020	260120	050557	53.000	12.588290	-57.408313	52.740	-0.030	-0.220	0.380	52.950	-1.400	0.800																			1580015157.0	7.48	13.85
26/01/2020 05:05:58	26012020	260120	050558	52.820	12.588312	-57.408285	52.840	0.130	-0.810	0.070	52.820	-1.500	0.800																			1580015158.0	7.62	14.11
26/01/2020 05:05:59	26012020	260120	050559	52.920	12.588333	-57.408257	53.020	0.210	-1.070	-0.340	52.970	-2.400	0.200																			1580015159.0	7.83	14.50
26/01/2020 05:06:00	26012020	260120	050600	53.110	12.588358	-57.408228	52.990	0.230	-0.720	-0.430	53.120	-2.300	-0.000	1014.70	25.70	25.80	21.30	21.30	0.00	76.00	76.00	432.00	25.40	8.00	8.90	68.00	5.10	15	3270.00	27.40	27.40	1580015160.0	7.91	14.65
26/01/2020 05:06:01	26012020	260120	050601	53.080	12.588382	-57.408202	52.850	0.180	-0.040	-0.250	53.050	-1.700	0.000																			1580015161.0	7.57	14.02
26/01/2020 05:06:02	26012020	260120	050602	52.940	12.588402	-57.408177	52.790	0.100	0.420	0.080	52.920	-1.100	0.300																			1580015162.0	7.05	13.06
26/01/2020 05:06:03	26012020	260120	050603	52.860	12.588422	-57.408150	52.750	-0.030	0.480	0.370	52.860	-0.900	0.600																			1580015163.0	6.97	12.91
26/01/2020 05:06:04	26012020	260120	050604	52.820	12.588440	-57.408122	52.770	-0.150	0.220	0.470	52.820	-1.000	0.800																			1580015164.0	7.27	13.46
26/01/2020 05:06:05	26012020	260120	050605	52.840	12.588460	-57.408092	52.830	-0.140	-0.210	0.500	52.850	-1.400	0.900																			1580015165.0	7.54	13.96
26/01/2020 05:06:06	26012020	260120	050606	52.910	12.588482	-57.408063	52.780	0.050	-0.690	0.580	52.910	-1.900	0.900																			1580015166.0	7.69	14.24
26/01/2020 05:06:07	26012020	260120	050607	52.840	12.588505	-57.408033	52.590	0.290	-0.850	0.660	52.810	-2.200	1.000																			1580015167.0	7.87	14.58
26/01/2020 05:06:08	26012020	260120	050608	52.660	12.588528	-57.408003	52.480	0.330	-0.470	0.710	52.660	-2.200	1.000																			1580015168.0	7.90	14.63
26/01/2020 05:06:09	26012020	260120	050609	52.550	12.588550	-57.407977	52.540	0.100	0.130	0.600	52.550	-1.500	1.100																			1580015169.0	7.51	13.91
26/01/2020 05:06:10	26012020	260120	050610	52.610	12.588570	-57.407950	52.730	-0.200	0.420	0.260	52.610	-1.300	1.000																			1580015170.0	7.00	12.96
26/01/2020 05:06:11	26012020	260120	050611	52.810	12.588590	-57.407925	52.840	-0.380	0.320	0.010	52.840	-1.000	0.500																			1580015171.0	6.97	12.91
26/01/2020 05:06:12	26012020	260120	050612	52.910	12.588612	-57.407898	52.810	-0.420	0.110	-0.070	52.910	-1.200	0.400																			1580015172.0	7.39	13.69
26/01/2020 05:06:13	26012020	260120	050613	52.880	12.588635	-57.407870	52.770	-0.320	-0.200	-0.160	52.870	-1.400	0.300																			1580015173.0	7.58	14.04
26/01/2020 05:06:14	26012020	260120	050614	52.840	12.588657	-57.407842	52.720	-0.030	-0.610	-0.190	52.830	-1.800	0.200																			1580015174.0	7.53	13.95
26/01/2020 05:06:15	26012020	260120	050615	52.800	12.588678	-57.407813	52.650	0.370	-0.890	-0.140	52.780	-2.200	0.200																			1580015175.0	7.66	14.19
26/01/2020 05:06:16	26012020	260120	050616	52.740	12.588702	-57.407785	52.590	0.590	-0.790	-0.030	52.720	-2.300	0.300																			1580015176.0	7.82	14.48
26/01/2020 05:06:17	26012020	260120	050617	52.670	12.588723	-57.407757	52.500	0.480	-0.320	0.160	52.650	-1.900	0.500																			1580015177.0	7.72	14.30
26/01/2020 05:06:18	26012020	260120	050618	52.570	12.588745	-57.407728	52.490	0.140	0.260	0.280	52.560	-1.400	0.600																			1580015178.0	7.39	13.69
26/01/2020 05:06:19	26012020	260120	050619	52.560	12.588765	-57.407702	52.640	-0.260	0.630	0.270	52.590	-0.900	0.700																			1580015179.0	7.10	13.15
26/01/2020 05:06:20	26012020	260120	050620	52.710	12.588785	-57.407677	52.790	-0.550	0.620	0.280	52.750	-0.700	0.600																			1580015180.0	7.06	13.08
26/01/2020 05:06:21	26012020	260120	050621	52.870	12.588807	-57.407648	52.790	-0.630	0.290	0.380	52.880	-0.900	0.700																			1580015181.0	7.26	13.45
26/01/2020 05:06:22	26012020	260120	050622	52.870	12.588827	-57.407620	52.680	-0.410	-0.220	0.530	52.850	-1.400	0.800																			1580015182.0	7.50	13.89
26/01/2020 05:06:23	26012020	260120	050623	52.760	12.588848	-57.407592	52.630	0.150	-0.910	0.570	52.740	-2.000	0.900																			1580015183.0	7.61	14.09
26/01/2020 05:06:24	26012020	260120	050624	52.710	12.588868	-57.407562	52.650	0.760	-1.410	0.430	52.710	-2.600	0.900																			1580015184.0	7.80	14.45
26/01/2020 05:06:25	26012020	260120	050625	52.720	12.588892	-57.407532	52.590	0.950	-1.060	0.220	52.710	-2.700	0.700																			1580015185.0	8.12	15.04
26/01/2020 05:06:26	26012020	260120	050626	52.650	12.588917	-57.407503	52.440	0.520	0.080	0.080	52.620	-1.900	0.500																			1580015186.0	7.90	14.63
26/01/2020 05:06:27	26012020	260120	050627	52.510	12.588938	-57.407478	52.360	-0.240	1.000	-0.030	52.480	-0.700	0.400																			1580015187.0	6.95	12.87
26/01/2020 05:06:28	26012020	260120	050628	52.420	12.588958	-57.407457	52.400	-0.800	0.910	-0.210	52.420	-0.300	0.300																			1580015188.0	6.38	11.82
26/01/2020 05:06:29	26012020	260120	050629	52.460	12.588980	-57.407432	52.530	-0.880	0.140	-0.330	52.480	-0.900	0.100																			1580015189.0	6.94	12.85
26/01/2020 05:06:30	26012020	260120	050630	52.600	12.589003	-57.407403	52.670	-0.530	-0.530	-0.230	52.620	-1.600	0.100																			1580015190.0	7.89	14.61
26/01/2020 05:06:31	26012020	260120	050631	52.740	12.589027	-57.407373	52.730	-0.040	-0.750	0.160	52.760	-2.100	0.300																			1580015191.0	8.17	15.13
26/01/2020 05:06:32	26012020	260120	050632	52.780	12.589047	-57.407342	52.620	0.240	-0.560	0.570	52.770	-2.100	0.800																			1580015192.0	7.88	14.59
26/01/2020 05:06:33	26012020	260120	050633	52.660	12.589065	-57.407312	52.480	0.270	-0.190	0.590	52.630	-1.700	1.000																			1580015193.0	7.46	13.82
26/01/2020 05:06:34	26012020	260120	050634	52.540	12.589083	-57.407283	52.480	0.230	0.040	0.200	52.540	-1.400	0.800																			1580015194.0	7.09	13.13
26/01/2020 05:06:35	26012020	260120	050635	52.550	12.589105	-57.407258	52.540	0.310	-0.070	-0.330	52.560	-1.400	0.300																			1580015195.0	7.03	13.02
26/01/2020 05:06:36	26012020	260120	050636	52.620	12.589130	-57.407235	52.560	0.490	-0.410	-0.660	52.630	-1.600	-0.200																			1580015196.0	7.35	13.61
26/01/2020 05:06:37	26012020	260120	050637	52.650	12.589155	-57.407208	52.530	0.510	-0.520	-0.620	52.640	-1.900	-0.300																			1580015197.0	7.84	14.52
26/01/2020 05:06:38	26012020	260120	050638	52.630	12.589182	-57.407182	52.590	0.200	-0.250	-0.360	52.630	-1.800	-0.100																			1580015198.0	7.93	14.69
26/01/2020 05:06:39	26012020	260120	050639	52.670	12.589203	-57.407153	52.640	-0.310	0.200	0.080	52.690	-1.400	0.200																			1580015199.0	7.55	13.98
26/01/2020 05:06:40	26012020	260120	050640	52.720	12.589222	-57.407125	52.590	-0.700	0.460	0.650	52.710	-1.000	0.800																			1580015200.0	7.14	13.22
26/01/2020 05:06:41	26012020	260120	050641	52.660	12.589238	-57.407097	52.600	-0.740	0.280	1.000	52.650	-1.000	1.300																			1580015201.0	7.05	13.06
26/01/2020 05:06:42	26012020	260120	050642	52.660	12.589257	-57.407067	52.720	-0.410	-0.250	0.930	52.680	-1.400	1.400																			1580015202.0	7.29	13.50
26/01/2020 05:06:43	26012020	260120	050643	52.780	12.589277	-57.407038	52.800	0.060	-0.640	0.690	52.810	-1.900	1.200																			1580015203.0	7.68	14.22
26/01/2020 05:06:44	26012020	260120	050644	52.860	12.589300	-57.407008	52.740	0.350	-0.550	0.410	52.850	-2.000	0.900																			1580015204.0	7.90	14.63
26/01/2020 05:06:45	26012020	260120	050645	52.810	12.589323	-57.406982	52.690	0.360	-0.200	0.070	52.790	-1.700	0.600																			1580015205.0	7.61	14.09
26/01/2020 05:06:46	26012020	260120	050646	52.760	12.589345	-57.406957	52.690	0.230	-0.050	-0.300	52.760	-1.600	0.500																			1580015206.0	7.18	13.30
26/01/2020 05:06:47	26012020	260120	050647	52.770	12.589368	-57.406932	52.710	0.180	-0.230	-0.600	52.770	-1.500	-0.100																			1580015207.0	7.12	13.19
26/01/2020 05:06:48	26012020	260120	050648	52.810	12.589393	-57.406907	52.800	0.220	-0.420	-0.740	52.820	-1.700	-0.300																			1580015208.0	7.49	13.87
26/01/2020 05:06:49	26012020	260120	050649	52.900	12.589417	-57.406878	52.850	0.170	-0.320	-0.630	52.920	-1.800	-0.300																			1580015209.0	7.79	14.43
26/01/2020 05:06:50	26012020	260120	050650	52.960	12.589438	-57.406850	52.800	-0.010	-0.020	-0.240	52.950	-1.600	-0.100																			1580015210.0	7.65	14.17
26/01/2020 05:06:51	26012020	260120	050651	52.900	12.589458	-57.406822	52.740	-0.240	0.270	0.250	52.880	-1.200	0.400																			1580015211.0	7.35	13.61
26/01/2020 05:06:52	26012020	260120	050652	52.820	12.589478	-57.406795	52.750	-0.340	0.250	0.540	52.810	-1.100	0.800																			1580015212.0	7.16	13.26
26/01/2020 05:06:53	26012020	260120	050653	52.830	12.589497	-57.406767	52.870	-0.210	-0.070	0.570	52.850	-1.300	0.900																			1580015213.0	7.21	13.35
26/01/2020 05:06:54	26012020	260120	050654	52.950	12.589518	-57.406738	52.900	0.010	-0.380	0.630	52.970	-1.600	1.000																			1580015214.0	7.53	13.95
26/01/2020 05:06:55	26012020	260120	050655	52.980	12.589540	-57.406708	52.820	0.070	-0.420	0.670	52.970	-1.800	1.100																			1580015215.0	7.76	14.37
26/01/2020 05:06:56	26012020	260120	050656	52.910	12.589562	-57.406680	52.830	-0.010	-0.380	0.520	52.890	-1.800	1.000																			1580015216.0	7.58	14.04
26/01/2020 05:06:57	26012020	260120	050657	52.920	12.589583	-57.406653	52.930	-0.060	-0.370	0.260	52.930	-1.800	0.800																			1580015217.0	7.36	13.63
26/01/2020 05:06:58	26012020	260120	050658	53.030	12.589607	-57.406627	53.000	0.020	-0.240	0.010	53.050	-1.700	0.500																			1580015218.0	7.40	13.70
26/01/2020 05:06:59	26012020	260120	050659	53.100	12.589628	-57.406600	52.990	0.120	-0.030	-0.160	53.110	-1.500	0.300																			1580015219.0	7.47	13.83
26/01/2020 05:07:00	26012020	260120	050700	53.090	12.589650	-57.406573	52.920	0.150	0.040	-0.190	53.090	-1.400	0.200	1014.70	25.70	25.70	21.20	21.20	0.00	76.00	76.00	432.00	25.40	13.00	9.50	74.00	5.80	15	3260.00	27.40	27.40	1580015220.0	7.35	13.61
26/01/2020 05:07:01	26012020	260120	050701	53.010	12.589672	-57.406547	52.850	0.160	-0.150	-0.240	53.000	-1.400	0.200																			1580015221.0	7.30	13.52
26/01/2020 05:07:02	26012020	260120	050702	52.940	12.589693	-57.406518	52.790	0.170	-0.310	-0.340	52.930	-1.700	0.100																			1580015222.0	7.54	13.96
26/01/2020 05:07:03	26012020	260120	050703	52.880	12.589717	-57.406490	52.770	0.120	-0.190	-0.350	52.870	-1.700	0.000																			1580015223.0	7.77	14.39
26/01/2020 05:07:04	26012020	260120	050704	52.860	12.589740	-57.406463	52.800	-0.010	0.000	-0.220	52.860	-1.500	0.100																			1580015224.0	7.59	14.06
26/01/2020 05:07:05	26012020	260120	050705	52.890	12.589762	-57.406437	52.920	-0.180	0.030	0.000	52.910	-1.400	0.300																			1580015225.0	7.28	13.48
26/01/2020 05:07:06	26012020	260120	050706	53.000	12.589783	-57.406410	53.100	-0.320	-0.060	0.280	53.030	-1.400	0.500																			1580015226.0	7.28	13.48
26/01/2020 05:07:07	26012020	260120	050707	53.160	12.589803	-57.406382	53.190	-0.340	-0.220	0.640	53.180	-1.500	0.900																			1580015227.0	7.43	13.76
26/01/2020 05:07:08	26012020	260120	050708	53.240	12.589822	-57.406352	53.200	-0.220	-0.370	0.930	53.250	-1.700	1.200																			1580015228.0	7.52	13.93
26/01/2020 05:07:09	26012020	260120	050709	53.250	12.589842	-57.406322	53.180	-0.030	-0.350	1.030	53.250	-1.800	1.400																			1580015229.0	7.60	14.08
26/01/2020 05:07:10	26012020	260120	050710	53.220	12.589862	-57.406293	53.140	0.130	-0.210	0.880	53.220	-1.700	1.400																			1580015230.0	7.57	14.02
26/01/2020 05:07:11	26012020	260120	050711	53.190	12.589883	-57.406265	53.120	0.290	-0.200	0.530	53.190	-1.600	1.100																			1580015231.0	7.36	13.63
26/01/2020 05:07:12	26012020	260120	050712	53.190	12.589907	-57.406238	53.190	0.420	-0.340	0.050	53.200	-1.700	0.700																			1580015232.0	7.38	13.67
26/01/2020 05:07:13	26012020	260120	050713	53.260	12.589930	-57.406212	53.250	0.380	-0.290	-0.360	53.270	-1.700	0.200																			1580015233.0	7.69	14.24
26/01/2020 05:07:14	26012020	260120	050714	53.310	12.589955	-57.406185	53.240	0.120	-0.030	-0.580	53.320	-1.600	-0.100																			1580015234.0	7.76	14.37
26/01/2020 05:07:15	26012020	260120	050715	53.320	12.589978	-57.406160	53.280	-0.200	0.180	-0.670	53.320	-1.300	-0.200																			1580015235.0	7.44	13.78
26/01/2020 05:07:16	26012020	260120	050716	53.360	12.590000	-57.406133	53.420	-0.410	0.170	-0.690	53.390	-1.200	-0.300																			1580015236.0	7.24	13.41
26/01/2020 05:07:17	26012020	260120	050717	53.500	12.590022	-57.406107	53.510	-0.440	0.010	-0.480	53.530	-1.300	-0.200																			1580015237.0	7.34	13.59
26/01/2020 05:07:18	26012020	260120	050718	53.590	12.590043	-57.406078	53.560	-0.280	-0.250	-0.140	53.600	-1.500	0.100																			1580015238.0	7.51	13.91
26/01/2020 05:07:19	26012020	260120	050719	53.620	12.590063	-57.406048	53.660	-0.000	-0.470	0.190	53.640	-1.800	0.400																			1580015239.0	7.60	14.08
26/01/2020 05:07:20	26012020	260120	050720	53.720	12.590083	-57.406018	53.700	0.210	-0.460	0.530	53.750	-1.900	0.800																			1580015240.0	7.67	14.20
26/01/2020 05:07:21	26012020	260120	050721	53.760	12.590103	-57.405988	53.570	0.240	-0.290	0.850	53.750	-1.800	1.100																			1580015241.0	7.58	14.04
26/01/2020 05:07:22	26012020	260120	050722	53.630	12.590123	-57.405960	53.380	0.160	-0.180	0.980	53.590	-1.600	1.300																			1580015242.0	7.35	13.61
26/01/2020 05:07:23	26012020	260120	050723	53.440	12.590142	-57.405932	53.380	0.080	-0.220	0.770	53.410	-1.600	1.300																			1580015243.0	7.33	13.58
26/01/2020 05:07:24	26012020	260120	050724	53.430	12.590165	-57.405905	53.580	0.030	-0.320	0.320	53.430	-1.600	1.200																			1580015244.0	7.52	13.93
26/01/2020 05:07:25	26012020	260120	050725	53.650	12.590190	-57.405878	53.750	-0.030	-0.130	-0.030	53.690	-1.700	0.500																			1580015245.0	7.76	14.37
26/01/2020 05:07:26	26012020	260120	050726	53.830	12.590213	-57.405852	53.810	-0.180	0.310	-0.110	53.850	-1.300	0.300																			1580015246.0	7.71	14.28
26/01/2020 05:07:27	26012020	260120	050727	53.890	12.590235	-57.405825	53.770	-0.330	0.440	-0.050	53.880	-0.900	0.300																			1580015247.0	7.21	13.35
26/01/2020 05:07:28	26012020	260120	050728	53.850	12.590253	-57.405798	53.750	-0.290	-0.060	-0.080	53.840	-1.200	0.300																			1580015248.0	7.00	12.96
26/01/2020 05:07:29	26012020	260120	050729	53.820	12.590275	-57.405768	53.770	0.010	-0.720	-0.200	53.830	-1.800	0.200																			1580015249.0	7.47	13.83
26/01/2020 05:07:30	26012020	260120	050730	53.850	12.590297	-57.405738	53.810	0.340	-0.900	-0.250	53.860	-2.300	0.100																			1580015250.0	8.06	14.93
26/01/2020 05:07:31	26012020	260120	050731	53.890	12.590322	-57.405710	53.810	0.350	-0.440	-0.220	53.890	-2.100	0.100																			1580015251.0	8.05	14.91
26/01/2020 05:07:32	26012020	260120	050732	53.890	12.590343	-57.405682	53.840	0.040	0.240	-0.220	53.890	-1.400	0.200																			1580015252.0	7.48	13.85
26/01/2020 05:07:33	26012020	260120	050733	53.910	12.590363	-57.405657	53.890	-0.240	0.510	-0.190	53.920	-0.900	0.200																			1580015253.0	6.88	12.74
26/01/2020 05:07:34	26012020	260120	050734	53.970	12.590383	-57.405632	53.960	-0.190	0.090	-0.080	53.980	-1.000	0.200																			1580015254.0	6.86	12.70
26/01/2020 05:07:35	26012020	260120	050735	54.040	12.590405	-57.405603	54.070	0.090	-0.580	0.100	54.050	-1.700	0.400																			1580015255.0	7.43	13.76
26/01/2020 05:07:36	26012020	260120	050736	54.130	12.590427	-57.405573	54.130	0.190	-0.750	0.360	54.130	-1.900	0.500																			1580015256.0	8.11	15.02
26/01/2020 05:07:37	26012020	260120	050737	54.180	12.590448	-57.405542	54.110	-0.060	-0.260	0.640	54.180	-1.900	0.900																			1580015257.0	8.09	14.98
26/01/2020 05:07:38	26012020	260120	050738	54.170	12.590467	-57.405512	54.120	-0.370	0.240	0.700	54.160	-1.300	1.100																			1580015258.0	7.35	13.61
26/01/2020 05:07:39	26012020	260120	050739	54.170	12.590485	-57.405487	54.130	-0.370	0.240	0.530	54.180	-1.100	1.000																			1580015259.0	6.82	12.63
26/01/2020 05:07:40	26012020	260120	050740	54.190	12.590507	-57.405460	54.090	-0.010	-0.230	0.270	54.190	-1.400	0.800																			1580015260.0	7.10	13.15
26/01/2020 05:07:41	26012020	260120	050741	54.160	12.590528	-57.405432	54.050	0.410	-0.630	0.040	54.160	-1.900	0.500																			1580015261.0	7.72	14.30
26/01/2020 05:07:42	26012020	260120	050742	54.120	12.590552	-57.405402	54.030	0.510	-0.500	-0.160	54.110	-2.000	0.300																			1580015262.0	8.08	14.96
26/01/2020 05:07:43	26012020	260120	050743	54.100	12.590575	-57.405372	54.070	0.140	0.090	-0.420	54.100	-1.600	0.100																			1580015263.0	7.82	14.48
26/01/2020 05:07:44	26012020	260120	050744	54.150	12.590597	-57.405347	54.220	-0.370	0.510	-0.640	54.180	-1.000	-0.200																			1580015264.0	7.16	13.26
26/01/2020 05:07:45	26012020	260120	050745	54.290	12.590618	-57.405323	54.380	-0.520	0.330	-0.660	54.330	-0.900	-0.300																			1580015265.0	6.78	12.56
26/01/2020 05:07:46	26012020	260120	050746	54.450	12.590638	-57.405297	54.430	-0.200	-0.310	-0.420	54.480	-1.400	-0.200																			1580015266.0	7.08	13.11
26/01/2020 05:07:47	26012020	260120	050747	54.500	12.590660	-57.405267	54.330	0.220	-0.840	-0.010	54.490	-2.000	0.200																			1580015267.0	7.73	14.32
26/01/2020 05:07:48	26012020	260120	050748	54.390	12.590680	-57.405235	54.200	0.360	-0.850	0.380	54.390	-2.200	0.300																			1580015268.0	8.08	14.96
26/01/2020 05:07:49	26012020	260120	050749	54.240	12.590700	-57.405203	54.130	0.200	-0.480	0.610	54.220	-2.100	0.900																			1580015269.0	7.82	14.48
26/01/2020 05:07:50	26012020	260120	050750	54.170	12.590720	-57.405175	54.130	0.030	-0.020	0.720	54.170	-1.900	1.000																			1580015270.0	7.34	13.59
26/01/2020 05:07:51	26012020	260120	050751	54.170	12.590740	-57.405148	54.170	-0.020	0.290	0.670	54.170	-1.200	1.100																			1580015271.0	7.13	13.20
26/01/2020 05:07:52	26012020	260120	050752	54.220	12.590760	-57.405122	54.250	0.010	0.260	0.500	54.240	-1.100	1.000																			1580015272.0	7.17	13.28
26/01/2020 05:07:53	26012020	260120	050753	54.320	12.590780	-57.405093	54.340	-0.010	0.010	0.260	54.340	-1.300	0.800																			1580015273.0	7.37	13.65
26/01/2020 05:07:54	26012020	260120	050754	54.420	12.590802	-57.405065	54.420	-0.180	-0.090	-0.050	54.440	-1.500	0.500																			1580015274.0	7.68	14.22
26/01/2020 05:07:55	26012020	260120	050755	54.500	12.590825	-57.405037	54.400	-0.380	0.070	-0.260	54.510	-1.400	0.200																			1580015275.0	7.68	14.22
26/01/2020 05:07:56	26012020	260120	050756	54.490	12.590847	-57.405010	54.350	-0.360	0.030	-0.360	54.480	-1.300	0.100																			1580015276.0	7.29	13.50
26/01/2020 05:07:57	26012020	260120	050757	54.440	12.590867	-57.404983	54.340	-0.020	-0.500	-0.460	54.430	-1.600	-0.000																			1580015277.0	7.05	13.06
26/01/2020 05:07:58	26012020	260120	050758	54.420	12.590888	-57.404957	54.340	0.400	-0.980	-0.480	54.430	-2.200	-0.100																			1580015278.0	7.54	13.96
26/01/2020 05:07:59	26012020	260120	050759	54.420	12.590912	-57.404927	54.220	0.490	-0.760	-0.200	54.410	-2.400	0.000																			1580015279.0	8.07	14.95
26/01/2020 05:08:00	26012020	260120	050800	54.280	12.590933	-57.404897	54.020	0.180	-0.030	0.230	54.240	-1.800	0.400	1014.60	25.70	25.70	21.30	21.30	0.00	76.00	76.00	432.00	25.40	10.00	9.30	71.00	5.60	15	3237.00	27.40	27.40	1580015280.0	7.78	14.41
26/01/2020 05:08:01	26012020	260120	050801	54.060	12.590952	-57.404868	54.020	-0.140	0.380	0.470	54.040	-1.100	0.800																			1580015281.0	6.98	12.93
26/01/2020 05:08:02	26012020	260120	050802	54.050	12.590968	-57.404842	54.240	-0.130	0.110	0.390	54.050	-1.000	0.800																			1580015282.0	6.74	12.48
26/01/2020 05:08:03	26012020	260120	050803	54.280	12.590988	-57.404813	54.300	0.060	-0.240	0.330	54.320	-1.500	0.700																			1580015283.0	7.38	13.67
26/01/2020 05:08:04	26012020	260120	050804	54.360	12.591012	-57.404783	54.130	0.090	-0.160	0.330	54.340	-1.600	0.700																			1580015284.0	8.00	14.82
26/01/2020 05:08:05	26012020	260120	050805	54.180	12.591032	-57.404755	53.930	-0.060	0.090	0.350	54.140	-1.400	0.700																			1580015285.0	7.71	14.28
26/01/2020 05:08:06	26012020	260120	050806	54.000	12.591053	-57.404728	53.930	-0.110	-0.000	0.230	53.980	-1.300	0.700																			1580015286.0	7.17	13.28
26/01/2020 05:08:07	26012020	260120	050807	54.000	12.591073	-57.404702	54.030	0.060	-0.340	-0.050	54.030	-1.600	0.500																			1580015287.0	7.15	13.24
26/01/2020 05:08:08	26012020	260120	050808	54.100	12.591097	-57.404673	53.970	0.200	-0.430	-0.180	54.110	-1.800	0.200																			1580015288.0	7.62	14.11
26/01/2020 05:08:09	26012020	260120	050809	54.050	12.591118	-57.404645	53.820	0.040	-0.110	-0.080	54.020	-1.700	0.300																			1580015289.0	7.74	14.33
26/01/2020 05:08:10	26012020	260120	050810	53.880	12.591140	-57.404618	53.720	-0.300	0.190	0.010	53.860	-1.300	0.400																			1580015290.0	7.29	13.50
26/01/2020 05:08:11	26012020	260120	050811	53.790	12.591158	-57.404592	53.780	-0.450	0.070	-0.020	53.790	-1.200	0.400																			1580015291.0	6.89	12.76
26/01/2020 05:08:12	26012020	260120	050812	53.840	12.591178	-57.404565	53.870	-0.190	-0.470	-0.050	53.860	-1.600	0.300																			1580015292.0	7.05	13.06
26/01/2020 05:08:13	26012020	260120	050813	53.920	12.591200	-57.404537	53.860	0.300	-0.910	0.060	53.930	-2.200	0.400																			1580015293.0	7.62	14.11
26/01/2020 05:08:14	26012020	260120	050814	53.900	12.591223	-57.404507	53.670	0.560	-0.780	0.370	53.880	-2.300	0.600																			1580015294.0	8.02	14.85
26/01/2020 05:08:15	26012020	260120	050815	53.710	12.591243	-57.404475	53.450	0.330	-0.120	0.660	53.660	-1.900	0.900																			1580015295.0	7.85	14.54
26/01/2020 05:08:16	26012020	260120	050816	53.490	12.591262	-57.404447	53.420	-0.160	0.510	0.630	53.460	-1.100	1.100																			1580015296.0	7.23	13.39
26/01/2020 05:08:17	26012020	260120	050817	53.440	12.591282	-57.404422	53.610	-0.390	0.570	0.240	53.470	-0.800	0.800																			1580015297.0	6.77	12.54
26/01/2020 05:08:18	26012020	260120	050818	53.640	12.591302	-57.404397	53.810	-0.170	0.100	-0.170	53.700	-1.100	0.400																			1580015298.0	6.95	12.87
26/01/2020 05:08:19	26012020	260120	050819	53.860	12.591325	-57.404368	53.740	0.190	-0.310	-0.240	53.880	-1.600	0.100																			1580015299.0	7.61	14.09
26/01/2020 05:08:20	26012020	260120	050820	53.800	12.591348	-57.404340	53.450	0.310	-0.390	-0.020	53.750	-1.800	0.300																			1580015300.0	7.90	14.63
26/01/2020 05:08:21	26012020	260120	050821	53.500	12.591368	-57.404310	53.240	0.190	-0.370	0.130	53.440	-1.800	0.500																			1580015301.0	7.60	14.08
26/01/2020 05:08:22	26012020	260120	050822	53.280	12.591388	-57.404283	53.290	0.050	-0.400	0.000	53.270	-1.800	0.500																			1580015302.0	7.27	13.46
26/01/2020 05:08:23	26012020	260120	050823	53.340	12.591412	-57.404257	53.490	-0.030	-0.370	-0.200	53.380	-1.800	0.300																			1580015303.0	7.32	13.56
26/01/2020 05:08:24	26012020	260120	050824	53.550	12.591435	-57.404230	53.600	-0.130	-0.110	-0.120	53.550	-1.800	0.200																			1580015304.0	7.47	13.83
26/01/2020 05:08:25	26012020	260120	050825	53.670	12.591455	-57.404203	53.510	-0.290	0.190	0.360	53.670	-1.300	0.500																			1580015305.0	7.33	13.58
26/01/2020 05:08:26	26012020	260120	050826	53.560	12.591473	-57.404175	53.350	-0.400	0.160	0.880	53.560	-1.200	0.700																			1580015306.0	7.08	13.11
26/01/2020 05:08:27	26012020	260120	050827	53.400	12.591490	-57.404145	53.330	-0.330	-0.230	1.050	53.380	-1.400	1.400																			1580015307.0	7.20	13.33
26/01/2020 05:08:28	26012020	260120	050828	53.360	12.591510	-57.404115	53.400	-0.040	-0.610	0.870	53.370	-1.900	1.400																			1580015308.0	7.57	14.02
26/01/2020 05:08:29	26012020	260120	050829	53.430	12.591530	-57.404085	53.410	0.310	-0.600	0.560	53.440	-2.100	1.100																			1580015309.0	7.82	14.48
26/01/2020 05:08:30	26012020	260120	050830	53.450	12.591553	-57.404058	53.320	0.520	-0.180	0.310	53.440	-1.800	0.800																			1580015310.0	7.72	14.30
26/01/2020 05:08:31	26012020	260120	050831	53.360	12.591577	-57.404032	53.240	0.490	0.150	0.090	53.340	-1.400	0.600																			1580015311.0	7.30	13.52
26/01/2020 05:08:32	26012020	260120	050832	53.270	12.591598	-57.404007	53.250	0.340	0.050	-0.280	53.260	-1.300	0.300																			1580015312.0	7.02	13.00
26/01/2020 05:08:33	26012020	260120	050833	53.280	12.591620	-57.403982	53.360	0.170	-0.220	-0.720	53.300	-1.500	-0.100																			1580015313.0	7.31	13.54
26/01/2020 05:08:34	26012020	260120	050834	53.420	12.591645	-57.403953	53.440	-0.040	-0.210	-0.800	53.440	-1.700	-0.400																			1580015314.0	7.75	14.35
26/01/2020 05:08:35	26012020	260120	050835	53.490	12.591668	-57.403927	53.360	-0.380	0.090	-0.430	53.490	-1.500	-0.300																			1580015315.0	7.69	14.24
26/01/2020 05:08:36	26012020	260120	050836	53.400	12.591688	-57.403898	53.240	-0.730	0.280	0.080	53.380	-1.200	0.200																			1580015316.0	7.23	13.39
26/01/2020 05:08:37	26012020	260120	050837	53.280	12.591707	-57.403872	53.280	-0.840	0.050	0.460	53.280	-1.200	0.700																			1580015317.0	6.99	12.95
26/01/2020 05:08:38	26012020	260120	050838	53.310	12.591723	-57.403843	53.440	-0.480	-0.530	0.690	53.310	-1.300	0.800																			1580015318.0	7.17	13.28
26/01/2020 05:08:39	26012020	260120	050839	53.470	12.591743	-57.403812	53.460	0.230	-1.010	0.970	53.490	-2.200	1.200																			1580015319.0	7.63	14.13
26/01/2020 05:08:40	26012020	260120	050840	53.480	12.591763	-57.403780	53.210	0.810	-0.860	1.200	53.480	-2.400	1.300																			1580015320.0	8.00	14.82
26/01/2020 05:08:41	26012020	260120	050841	53.210	12.591783	-57.403750	52.920	0.910	-0.240	1.100	53.150	-1.900	1.600																			1580015321.0	7.81	14.46
26/01/2020 05:08:42	26012020	260120	050842	52.940	12.591803	-57.403722	52.900	0.580	0.280	0.510	52.910	-1.300	1.200																			1580015322.0	7.19	13.32
26/01/2020 05:08:43	26012020	260120	050843	52.920	12.591827	-57.403698	53.050	0.060	0.480	-0.350	52.940	-1.000	0.400																			1580015323.0	6.98	12.93
26/01/2020 05:08:44	26012020	260120	050844	53.090	12.591852	-57.403675	53.230	-0.360	0.450	-1.080	53.120	-0.900	-0.400																			1580015324.0	7.27	13.46
26/01/2020 05:08:45	26012020	260120	050845	53.280	12.591878	-57.403653	53.300	-0.500	0.110	-1.300	53.310	-1.100	-0.900																			1580015325.0	7.46	13.82
26/01/2020 05:08:46	26012020	260120	050846	53.370	12.591902	-57.403627	53.250	-0.380	-0.450	-0.880	53.370	-1.600	-0.700																			1580015326.0	7.47	13.83
26/01/2020 05:08:47	26012020	260120	050847	53.300	12.591923	-57.403598	53.210	-0.200	-0.840	-0.260	53.290	-2.100	-0.200																			1580015327.0	7.72	14.30
26/01/2020 05:08:48	26012020	260120	050848	53.250	12.591942	-57.403567	53.130	-0.130	-0.700	0.350	53.240	-2.200	0.400																			1580015328.0	7.91	14.65
26/01/2020 05:08:49	26012020	260120	050849	53.150	12.591960	-57.403535	52.890	-0.160	-0.160	0.930	53.110	-1.800	1.100																			1580015329.0	7.63	14.13
26/01/2020 05:08:50	26012020	260120	050850	52.920	12.591977	-57.403505	52.800	-0.150	0.160	1.130	52.870	-1.300	1.500																			1580015330.0	7.09	13.13
26/01/2020 05:08:51	26012020	260120	050851	52.810	12.591993	-57.403478	52.930	0.060	-0.040	0.770	52.830	-1.300	1.400																			1580015331.0	6.88	12.74
26/01/2020 05:08:52	26012020	260120	050852	52.950	12.592015	-57.403450	53.000	0.330	-0.330	0.290	52.980	-1.600	0.900																			1580015332.0	7.34	13.59
26/01/2020 05:08:53	26012020	260120	050853	53.040	12.592040	-57.403423	52.980	0.430	-0.230	-0.050	53.040	-1.700	0.500																			1580015333.0	7.90	14.63
26/01/2020 05:08:54	26012020	260120	050854	53.010	12.592065	-57.403397	53.000	0.270	0.080	-0.230	53.010	-1.500	0.200																			1580015334.0	7.72	14.30
26/01/2020 05:08:55	26012020	260120	050855	53.040	12.592087	-57.403372	53.120	0.010	0.150	-0.350	53.060	-1.300	0.100																			1580015335.0	7.19	13.32
26/01/2020 05:08:56	26012020	260120	050856	53.150	12.592108	-57.403347	53.120	-0.140	-0.080	-0.360	53.170	-1.400	0.000																			1580015336.0	7.06	13.08
26/01/2020 05:08:57	26012020	260120	050857	53.160	12.592130	-57.403318	52.940	-0.150	-0.390	-0.220	53.140	-1.700	0.100																			1580015337.0	7.36	13.63
26/01/2020 05:08:58	26012020	260120	050858	52.980	12.592152	-57.403290	52.760	-0.110	-0.590	-0.050	52.930	-1.900	0.300																			1580015338.0	7.63	14.13
26/01/2020 05:08:59	26012020	260120	050859	52.800	12.592173	-57.403262	52.790	-0.070	-0.560	0.120	52.780	-2.000	0.400																			1580015339.0	7.68	14.22
26/01/2020 05:09:00	26012020	260120	050900	52.820	12.592195	-57.403233	53.010	-0.030	-0.190	0.240	52.860	-1.800	0.600	1014.70	25.70	25.70	21.30	21.30	0.00	76.00	76.00	432.00	25.50	12.00	8.90	74.00	5.20	15	3214.00	27.40	27.40	1580015340.0	7.56	14.00
26/01/2020 05:09:01	26012020	260120	050901	53.040	12.592215	-57.403205	53.170	-0.060	0.330	0.400	53.090	-1.300	0.700																			1580015341.0	7.32	13.56
26/01/2020 05:09:02	26012020	260120	050902	53.190	12.592235	-57.403178	53.020	-0.190	0.570	0.650	53.180	-0.900	0.900																			1580015342.0	7.01	12.98
26/01/2020 05:09:03	26012020	260120	050903	53.040	12.592252	-57.403152	52.790	-0.270	0.220	0.740	52.990	-0.900	1.100																			1580015343.0	6.93	12.83
26/01/2020 05:09:04	26012020	260120	050904	52.820	12.592272	-57.403123	52.820	-0.060	-0.670	0.400	52.820	-1.100	1.100																			1580015344.0	7.22	13.37
26/01/2020 05:09:05	26012020	260120	050905	52.860	12.592295	-57.403095	53.050	0.350	-1.280	-0.160	52.890	-2.500	0.500																			1580015345.0	7.87	14.58
26/01/2020 05:09:06	26012020	260120	050906	53.100	12.592322	-57.403065	53.230	0.540	-0.920	-0.570	53.150	-2.600	-0.000																			1580015346.0	8.35	15.46
26/01/2020 05:09:07	26012020	260120	050907	53.310	12.592347	-57.403038	53.210	0.270	0.090	-0.590	53.320	-1.800	-0.200																			1580015347.0	7.84	14.52
26/01/2020 05:09:08	26012020	260120	050908	53.290	12.592367	-57.403015	53.060	-0.220	0.840	-0.300	53.260	-0.800	-0.100																			1580015348.0	6.82	12.63
26/01/2020 05:09:09	26012020	260120	050909	53.140	12.592385	-57.402990	52.890	-0.500	0.810	0.030	53.100	-0.500	0.300																			1580015349.0	6.42	11.89
26/01/2020 05:09:10	26012020	260120	050910	52.930	12.592403	-57.402963	52.790	-0.320	0.060	0.200	52.890	-0.900	0.500																			1580015350.0	6.89	12.76
26/01/2020 05:09:11	26012020	260120	050911	52.820	12.592425	-57.402935	52.900	0.170	-0.860	0.160	52.830	-1.900	0.600																			1580015351.0	7.62	14.11
26/01/2020 05:09:12	26012020	260120	050912	52.930	12.592448	-57.402903	52.990	0.490	-1.120	0.150	52.950	-2.500	0.500																			1580015352.0	8.21	15.20
26/01/2020 05:09:13	26012020	260120	050913	53.010	12.592472	-57.402873	52.900	0.300	-0.460	0.270	53.010	-2.200	0.600																			1580015353.0	8.14	15.08
26/01/2020 05:09:14	26012020	260120	050914	52.930	12.592492	-57.402847	52.820	-0.210	0.310	0.370	52.900	-1.400	0.700																			1580015354.0	7.25	13.43
26/01/2020 05:09:15	26012020	260120	050915	52.830	12.592512	-57.402822	52.870	-0.520	0.470	0.260	52.830	-0.900	0.700																			1580015355.0	6.51	12.06
26/01/2020 05:09:16	26012020	260120	050916	52.880	12.592532	-57.402798	52.960	-0.380	0.100	0.110	52.880	-0.900	0.700																			1580015356.0	6.78	12.56
26/01/2020 05:09:17	26012020	260120	050917	52.970	12.592555	-57.402772	53.020	0.020	-0.370	0.070	52.990	-1.600	0.500																			1580015357.0	7.48	13.85
26/01/2020 05:09:18	26012020	260120	050918	53.040	12.592577	-57.402742	53.030	0.280	-0.570	0.200	53.050	-1.900	0.500																			1580015358.0	7.85	14.54
26/01/2020 05:09:19	26012020	260120	050919	53.050	12.592598	-57.402712	52.940	0.220	-0.440	0.390	53.040	-1.900	0.700																			1580015359.0	7.77	14.39
26/01/2020 05:09:20	26012020	260120	050920	52.950	12.592617	-57.402683	52.770	0.020	-0.170	0.420	52.930	-1.700	0.800																			1580015360.0	7.41	13.72
26/01/2020 05:09:21	26012020	260120	050921	52.800	12.592637	-57.402657	52.610	0.000	-0.050	0.260	52.760	-1.500	0.700																			1580015361.0	7.11	13.17
26/01/2020 05:09:22	26012020	260120	050922	52.640	12.592658	-57.402630	52.530	0.210	-0.170	0.000	52.610	-1.500	0.500																			1580015362.0	7.14	13.22
26/01/2020 05:09:23	26012020	260120	050923	52.560	12.592682	-57.402603	52.560	0.360	-0.280	-0.280	52.550	-1.700	0.200																			1580015363.0	7.47	13.83
26/01/2020 05:09:24	26012020	260120	050924	52.590	12.592707	-57.402577	52.720	0.260	-0.180	-0.530	52.610	-1.700	-0.000																			1580015364.0	7.72	14.30
26/01/2020 05:09:25	26012020	260120	050925	52.760	12.592730	-57.402552	53.020	0.010	0.000	-0.660	52.820	-1.500	-0.200																			1580015365.0	7.54	13.96
26/01/2020 05:09:26	26012020	260120	050926	53.050	12.592753	-57.402525	53.180	-0.230	0.170	-0.460	53.110	-1.300	-0.200																			1580015366.0	7.25	13.43
26/01/2020 05:09:27	26012020	260120	050927	53.210	12.592773	-57.402498	53.070	-0.430	0.340	0.110	53.210	-1.100	0.200																			1580015367.0	7.20	13.33
26/01/2020 05:09:28	26012020	260120	050928	53.090	12.592792	-57.402470	52.910	-0.540	0.210	0.690	53.050	-1.100	0.800																			1580015368.0	7.13	13.20
26/01/2020 05:09:29	26012020	260120	050929	52.910	12.592810	-57.402443	52.880	-0.380	-0.480	0.960	52.880	-1.500	1.300																			1580015369.0	7.08	13.11
26/01/2020 05:09:30	26012020	260120	050930	52.870	12.592830	-57.402413	52.920	0.050	-1.180	0.940	52.870	-1.800	1.300																			1580015370.0	7.53	13.95
26/01/2020 05:09:31	26012020	260120	050931	52.920	12.592853	-57.402383	52.980	0.460	-1.160	0.810	52.930	-2.700	1.300																			1580015371.0	8.10	15.00
26/01/2020 05:09:32	26012020	260120	050932	52.980	12.592875	-57.402353	53.070	0.530	-0.360	0.620	53.000	-2.200	1.100																			1580015372.0	7.96	14.74
26/01/2020 05:09:33	26012020	260120	050933	53.080	12.592895	-57.402327	53.150	0.260	0.560	0.290	53.100	-1.200	0.800																			1580015373.0	7.16	13.26
26/01/2020 05:09:34	26012020	260120	050934	53.170	12.592915	-57.402302	53.160	-0.040	0.860	-0.180	53.180	-0.600	0.400																			1580015374.0	6.55	12.13
26/01/2020 05:09:35	26012020	260120	050935	53.200	12.592937	-57.402278	53.060	-0.090	0.380	-0.660	53.190	-0.700	-0.100																			1580015375.0	6.69	12.39
26/01/2020 05:09:36	26012020	260120	050936	53.130	12.592960	-57.402253	52.970	0.100	-0.410	-0.990	53.110	-1.500	-0.500																			1580015376.0	7.44	13.78
26/01/2020 05:09:37	26012020	260120	050937	53.040	12.592987	-57.402227	53.030	0.230	-0.850	-1.090	53.040	-2.100	-0.700																			1580015377.0	8.08	14.96
26/01/2020 05:09:38	26012020	260120	050938	53.100	12.593013	-57.402198	53.220	0.060	-0.640	-0.920	53.130	-2.200	-0.600																			1580015378.0	8.11	15.02
26/01/2020 05:09:39	26012020	260120	050939	53.280	12.593035	-57.402172	53.430	-0.310	-0.070	-0.530	53.330	-1.700	-0.400																			1580015379.0	7.54	13.96
26/01/2020 05:09:40	26012020	260120	050940	53.490	12.593053	-57.402145	53.580	-0.590	0.390	0.080	53.530	-1.200	0.200																			1580015380.0	6.89	12.76
26/01/2020 05:09:41	26012020	260120	050941	53.620	12.593070	-57.402118	53.580	-0.580	0.420	0.850	53.640	-0.900	0.900																			1580015381.0	6.72	12.45
26/01/2020 05:09:42	26012020	260120	050942	53.610	12.593085	-57.402088	53.460	-0.260	-0.090	1.470	53.590	-1.200	1.600																			1580015382.0	6.99	12.95
26/01/2020 05:09:43	26012020	260120	050943	53.480	12.593102	-57.402057	53.340	0.210	-0.840	1.590	53.450	-1.900	2.000																			1580015383.0	7.50	13.89
26/01/2020 05:09:44	26012020	260120	050944	53.350	12.593122	-57.402025	53.310	0.570	-1.120	1.220	53.330	-2.500	1.800																			1580015384.0	8.00	14.82
26/01/2020 05:09:45	26012020	260120	050945	53.330	12.593145	-57.401997	53.450	0.690	-0.680	0.530	53.350	-2.400	1.200																			1580015385.0	8.04	14.89
26/01/2020 05:09:46	26012020	260120	050946	53.480	12.593170	-57.401970	53.560	0.540	0.150	-0.120	53.510	-1.600	0.500																			1580015386.0	7.53	13.95
26/01/2020 05:09:47	26012020	260120	050947	53.600	12.593195	-57.401948	53.550	0.180	0.790	-0.570	53.610	-0.900	0.000																			1580015387.0	6.98	12.93
26/01/2020 05:09:48	26012020	260120	050948	53.600	12.593217	-57.401927	53.570	-0.270	0.780	-0.860	53.600	-0.500	-0.400																			1580015388.0	6.74	12.48
26/01/2020 05:09:49	26012020	260120	050949	53.620	12.593238	-57.401902	53.630	-0.600	0.080	-0.920	53.630	-0.900	-0.500																			1580015389.0	6.96	12.89
26/01/2020 05:09:50	26012020	260120	050950	53.680	12.593262	-57.401875	53.670	-0.590	-0.770	-0.770	53.690	-1.800	-0.500																			1580015390.0	7.55	13.98
26/01/2020 05:09:51	26012020	260120	050951	53.710	12.593283	-57.401843	53.580	-0.280	-1.050	-0.370	53.700	-2.400	-0.200																			1580015391.0	8.05	14.91
26/01/2020 05:09:52	26012020	260120	050952	53.640	12.593305	-57.401813	53.450	0.030	-0.560	0.220	53.610	-2.200	0.300																			1580015392.0	7.98	14.78
26/01/2020 05:09:53	26012020	260120	050953	53.510	12.593322	-57.401783	53.500	0.100	0.110	0.570	53.500	-1.600	0.800																			1580015393.0	7.29	13.50
26/01/2020 05:09:54	26012020	260120	050954	53.540	12.593338	-57.401757	53.660	0.040	0.330	0.530	53.540	-1.400	0.900																			1580015394.0	6.67	12.35
26/01/2020 05:09:55	26012020	260120	050955	53.710	12.593357	-57.401730	53.750	0.070	0.030	0.420	53.740	-1.200	0.800																			1580015395.0	6.73	12.46
26/01/2020 05:09:56	26012020	260120	050956	53.790	12.593378	-57.401703	53.680	0.210	-0.390	0.390	53.790	-1.600	0.800																			1580015396.0	7.33	13.58
26/01/2020 05:09:57	26012020	260120	050957	53.720	12.593402	-57.401675	53.590	0.340	-0.620	0.390	53.700	-1.900	0.800																			1580015397.0	7.78	14.41
26/01/2020 05:09:58	26012020	260120	050958	53.620	12.593423	-57.401647	53.590	0.320	-0.490	0.340	53.610	-2.000	0.800																			1580015398.0	7.78	14.41
26/01/2020 05:09:59	26012020	260120	050959	53.620	12.593445	-57.401618	53.620	0.170	-0.110	0.160	53.640	-1.700	0.600																			1580015399.0	7.50	13.89
26/01/2020 05:10:00	26012020	260120	051000	53.670	12.593467	-57.401592	53.590	-0.040	0.250	-0.030	53.670	-1.300	0.400	1014.60	25.70	25.70	21.50	21.40	0.00	77.00	77.00	433.00	25.50	14.00	9.40	76.00	5.80	15	3081.00	27.40	27.40	1580015400.0	7.15	13.24
26/01/2020 05:10:01	26012020	260120	051001	53.650	12.593487	-57.401567	53.540	-0.220	0.410	-0.140	53.640	-1.000	0.300																			1580015401.0	7.01	12.98
26/01/2020 05:10:02	26012020	260120	051002	53.590	12.593508	-57.401542	53.550	-0.270	0.220	-0.260	53.590	-1.000	0.200																			1580015402.0	7.06	13.08
26/01/2020 05:10:03	26012020	260120	051003	53.610	12.593530	-57.401515	53.750	-0.180	-0.230	-0.410	53.640	-1.400	0.000																			1580015403.0	7.25	13.43
26/01/2020 05:10:04	26012020	260120	051004	53.800	12.593553	-57.401488	53.960	-0.080	-0.600	-0.380	53.850	-1.900	-0.100																			1580015404.0	7.57	14.02
26/01/2020 05:10:05	26012020	260120	051005	54.010	12.593575	-57.401458	54.040	-0.120	-0.680	-0.030	54.050	-2.100	0.200																			1580015405.0	7.69	14.24
26/01/2020 05:10:06	26012020	260120	051006	54.100	12.593595	-57.401430	54.000	-0.210	-0.500	0.390	54.100	-2.100	0.300																			1580015406.0	7.51	13.91
26/01/2020 05:10:07	26012020	260120	051007	54.050	12.593613	-57.401400	53.910	-0.170	-0.200	0.730	54.040	-1.700	1.000																			1580015407.0	7.25	13.43
26/01/2020 05:10:08	26012020	260120	051008	53.950	12.593630	-57.401372	53.770	0.050	0.040	0.890	53.930	-1.400	1.200																			1580015408.0	7.12	13.19
26/01/2020 05:10:09	26012020	260120	051009	53.800	12.593648	-57.401343	53.620	0.300	0.050	0.790	53.770	-1.300	1.300																			1580015409.0	7.12	13.19
26/01/2020 05:10:10	26012020	260120	051010	53.650	12.593668	-57.401317	53.570	0.430	-0.150	0.310	53.630	-1.400	0.900																			1580015410.0	7.29	13.50
26/01/2020 05:10:11	26012020	260120	051011	53.610	12.593692	-57.401288	53.640	0.360	-0.270	-0.370	53.620	-1.600	0.300																			1580015411.0	7.60	14.08
26/01/2020 05:10:12	26012020	260120	051012	53.700	12.593717	-57.401263	53.780	0.100	-0.080	-0.890	53.730	-1.600	-0.300																			1580015412.0	7.77	14.39
26/01/2020 05:10:13	26012020	260120	051013	53.850	12.593742	-57.401238	53.890	-0.210	0.180	-1.070	53.880	-1.300	-0.600																			1580015413.0	7.51	13.91
26/01/2020 05:10:14	26012020	260120	051014	53.990	12.593765	-57.401213	53.970	-0.340	0.140	-0.890	54.010	-1.200	-0.600																			1580015414.0	7.06	13.08
26/01/2020 05:10:15	26012020	260120	051015	54.060	12.593785	-57.401187	53.950	-0.240	-0.180	-0.340	54.070	-1.400	-0.300																			1580015415.0	7.05	13.06
26/01/2020 05:10:16	26012020	260120	051016	54.040	12.593803	-57.401158	53.910	-0.040	-0.550	0.330	54.030	-1.800	0.400																			1580015416.0	7.40	13.70
26/01/2020 05:10:17	26012020	260120	051017	53.990	12.593822	-57.401127	53.840	0.130	-0.730	0.920	53.980	-2.100	1.000																			1580015417.0	7.67	14.20
26/01/2020 05:10:18	26012020	260120	051018	53.890	12.593840	-57.401095	53.640	0.150	-0.480	1.320	53.850	-2.000	1.500																			1580015418.0	7.72	14.30
26/01/2020 05:10:19	26012020	260120	051019	53.670	12.593860	-57.401067	53.460	0.000	0.020	1.330	53.620	-1.600	1.700																			1580015419.0	7.48	13.85
26/01/2020 05:10:20	26012020	260120	051020	53.490	12.593878	-57.401038	53.540	-0.160	0.280	0.930	53.490	-1.400	1.700																			1580015420.0	7.06	13.08
26/01/2020 05:10:21	26012020	260120	051021	53.590	12.593898	-57.401013	53.830	-0.170	0.110	0.260	53.640	-1.200	1.000																			1580015421.0	6.94	12.85
26/01/2020 05:10:22	26012020	260120	051022	53.910	12.593922	-57.400987	54.030	-0.020	-0.190	-0.420	53.970	-1.500	0.200																			1580015422.0	7.31	13.54
26/01/2020 05:10:23	26012020	260120	051023	54.130	12.593947	-57.400960	53.990	0.170	-0.270	-0.750	54.150	-1.700	-0.300																			1580015423.0	7.70	14.26
26/01/2020 05:10:24	26012020	260120	051024	54.090	12.593970	-57.400933	53.820	0.270	-0.230	-0.750	54.060	-1.600	-0.400																			1580015424.0	7.60	14.08
26/01/2020 05:10:25	26012020	260120	051025	53.920	12.593992	-57.400907	53.660	0.230	-0.230	-0.730	53.880	-1.600	-0.300																			1580015425.0	7.33	13.58
26/01/2020 05:10:26	26012020	260120	051026	53.750	12.594012	-57.400880	53.520	0.050	-0.220	-0.730	53.710	-1.600	-0.400																			1580015426.0	7.32	13.56
26/01/2020 05:10:27	26012020	260120	051027	53.600	12.594035	-57.400853	53.510	-0.160	-0.240	-0.610	53.590	-1.600	-0.300																			1580015427.0	7.38	13.67
26/01/2020 05:10:28	26012020	260120	051028	53.590	12.594057	-57.400827	53.710	-0.270	-0.320	-0.310	53.620	-1.700	-0.100																			1580015428.0	7.36	13.63
26/01/2020 05:10:29	26012020	260120	051029	53.780	12.594077	-57.400798	53.930	-0.250	-0.270	0.140	53.830	-1.700	0.300																			1580015429.0	7.44	13.78
26/01/2020 05:10:30	26012020	260120	051030	53.980	12.594097	-57.400768	53.910	-0.220	0.030	0.730	54.000	-1.500	0.800																			1580015430.0	7.53	13.95
26/01/2020 05:10:31	26012020	260120	051031	53.950	12.594113	-57.400738	53.710	-0.190	0.210	1.250	53.920	-1.200	1.400																			1580015431.0	7.32	13.56
26/01/2020 05:10:32	26012020	260120	051032	53.730	12.594128	-57.400708	53.540	-0.050	0.040	1.330	53.730	-1.200	1.600																			1580015432.0	7.13	13.20
26/01/2020 05:10:33	26012020	260120	051033	53.560	12.594148	-57.400680	53.520	0.250	-0.320	0.970	53.540	-1.600	1.600																			1580015433.0	7.30	13.52
26/01/2020 05:10:34	26012020	260120	051034	53.540	12.594170	-57.400652	53.530	0.520	-0.580	0.400	53.540	-1.900	1.100																			1580015434.0	7.64	14.15
26/01/2020 05:10:35	26012020	260120	051035	53.560	12.594195	-57.400625	53.540	0.540	-0.540	-0.290	53.570	-2.000	0.400																			1580015435.0	7.79	14.43
26/01/2020 05:10:36	26012020	260120	051036	53.600	12.594220	-57.400600	53.610	0.270	-0.230	-0.820	53.610	-1.800	-0.200																			1580015436.0	7.68	14.22
26/01/2020 05:10:37	26012020	260120	051037	53.690	12.594245	-57.400575	53.730	-0.120	0.140	-0.970	53.710	-1.400	-0.600																			1580015437.0	7.39	13.69
26/01/2020 05:10:38	26012020	260120	051038	53.810	12.594268	-57.400550	53.740	-0.460	0.390	-0.730	53.820	-1.100	-0.500																			1580015438.0	7.13	13.20
26/01/2020 05:10:39	26012020	260120	051039	53.800	12.594288	-57.400523	53.590	-0.600	0.290	-0.250	53.780	-1.000	-0.100																			1580015439.0	7.05	13.06
26/01/2020 05:10:40	26012020	260120	051040	53.640	12.594307	-57.400495	53.440	-0.470	-0.230	0.300	53.600	-1.400	0.400																			1580015440.0	7.20	13.33
26/01/2020 05:10:41	26012020	260120	051041	53.480	12.594323	-57.400465	53.360	-0.170	-0.720	0.720	53.450	-1.900	0.900																			1580015441.0	7.61	14.09
26/01/2020 05:10:42	26012020	260120	051042	53.390	12.594343	-57.400432	53.300	0.090	-0.710	0.910	53.380	-2.200	1.200																			1580015442.0	7.95	14.72
26/01/2020 05:10:43	26012020	260120	051043	53.330	12.594363	-57.400402	53.330	0.230	-0.380	0.800	53.330	-1.900	1.300																			1580015443.0	7.68	14.22
26/01/2020 05:10:44	26012020	260120	051044	53.370	12.594383	-57.400375	53.420	0.310	-0.170	0.450	53.370	-1.800	1.200																			1580015444.0	7.19	13.32
26/01/2020 05:10:45	26012020	260120	051045	53.450	12.594405	-57.400350	53.340	0.360	-0.120	0.160	53.460	-1.500	0.700																			1580015445.0	7.18	13.30
26/01/2020 05:10:46	26012020	260120	051046	53.390	12.594428	-57.400323	53.190	0.310	-0.000	0.020	53.360	-1.500	0.500																			1580015446.0	7.52	13.93
26/01/2020 05:10:47	26012020	260120	051047	53.230	12.594452	-57.400297	53.180	0.100	0.200	-0.140	53.220	-1.300	0.300																			1580015447.0	7.59	14.06
26/01/2020 05:10:48	26012020	260120	051048	53.230	12.594475	-57.400270	53.300	-0.140	0.280	-0.350	53.250	-1.100	0.100																			1580015448.0	7.35	13.61
26/01/2020 05:10:49	26012020	260120	051049	53.350	12.594495	-57.400243	53.400	-0.280	0.040	-0.460	53.380	-1.200	-0.100																			1580015449.0	7.18	13.30
26/01/2020 05:10:50	26012020	260120	051050	53.440	12.594517	-57.400217	53.380	-0.250	-0.340	-0.350	53.450	-1.600	-0.000																			1580015450.0	7.35	13.61
26/01/2020 05:10:51	26012020	260120	051051	53.420	12.594540	-57.400188	53.260	-0.120	-0.520	-0.070	53.400	-1.900	0.200																			1580015451.0	7.65	14.17
26/01/2020 05:10:52	26012020	260120	051052	53.300	12.594560	-57.400158	53.110	-0.020	-0.440	0.320	53.270	-1.900	0.500																			1580015452.0	7.67	14.20
26/01/2020 05:10:53	26012020	260120	051053	53.130	12.594580	-57.400130	53.000	0.020	-0.320	0.610	53.100	-1.800	0.900																			1580015453.0	7.41	13.72
26/01/2020 05:10:54	26012020	260120	051054	53.010	12.594598	-57.400102	53.020	0.030	-0.260	0.640	53.000	-1.700	1.000																			1580015454.0	7.27	13.46
26/01/2020 05:10:55	26012020	260120	051055	53.040	12.594618	-57.400073	53.090	0.050	-0.160	0.560	53.050	-1.600	1.000																			1580015455.0	7.35	13.61
26/01/2020 05:10:56	26012020	260120	051056	53.100	12.594640	-57.400045	53.060	0.050	-0.020	0.490	53.100	-1.500	0.900																			1580015456.0	7.43	13.76
26/01/2020 05:10:57	26012020	260120	051057	53.070	12.594662	-57.400018	52.990	0.000	0.060	0.300	53.050	-1.400	0.800																			1580015457.0	7.38	13.67
26/01/2020 05:10:58	26012020	260120	051058	53.000	12.594683	-57.399992	52.990	-0.040	-0.000	-0.060	53.000	-1.400	0.500																			1580015458.0	7.34	13.59
26/01/2020 05:10:59	26012020	260120	051059	53.010	12.594707	-57.399965	53.060	0.020	-0.170	-0.370	53.030	-1.500	0.100																			1580015459.0	7.44	13.78
26/01/2020 05:11:00	26012020	260120	051100	53.090	12.594730	-57.399938	53.110	0.140	-0.330	-0.450	53.090	-1.500	0.000	1014.60	25.70	25.70	21.20	21.30	0.00	76.00	76.00	433.00	25.50	14.00	9.50	77.00	5.90	15	3207.00	27.50	27.40	1580015460.0	7.57	14.02
26/01/2020 05:11:01	26012020	260120	051101	53.140	12.594753	-57.399912	53.070	0.180	-0.410	-0.340	53.130	-1.800	-0.000																			1580015461.0	7.63	14.13
26/01/2020 05:11:02	26012020	260120	051102	53.090	12.594775	-57.399883	53.000	0.100	-0.340	-0.100	53.080	-1.800	0.200																			1580015462.0	7.59	14.06
26/01/2020 05:11:03	26012020	260120	051103	53.020	12.594797	-57.399855	52.970	-0.030	-0.170	0.230	53.000	-1.700	0.500																			1580015463.0	7.49	13.87
26/01/2020 05:11:04	26012020	260120	051104	52.980	12.594815	-57.399827	52.980	-0.110	-0.050	0.450	52.980	-1.500	0.800																			1580015464.0	7.34	13.59
26/01/2020 05:11:05	26012020	260120	051105	52.990	12.594835	-57.399798	53.070	-0.090	-0.080	0.410	53.000	-1.400	0.800																			1580015465.0	7.32	13.56
26/01/2020 05:11:06	26012020	260120	051106	53.080	12.594857	-57.399770	53.170	0.020	-0.120	0.360	53.100	-1.500	0.700																			1580015466.0	7.44	13.78
26/01/2020 05:11:07	26012020	260120	051107	53.180	12.594878	-57.399742	53.140	0.050	0.040	0.420	53.190	-1.500	0.800																			1580015467.0	7.59	14.06
26/01/2020 05:11:08	26012020	260120	051108	53.160	12.594900	-57.399715	53.050	-0.120	0.290	0.410	53.140	-1.200	0.800																			1580015468.0	7.47	13.83
26/01/2020 05:11:09	26012020	260120	051109	53.080	12.594920	-57.399688	52.980	-0.340	0.180	0.350	53.060	-1.100	0.800																			1580015469.0	7.13	13.20
26/01/2020 05:11:10	26012020	260120	051110	53.000	12.594942	-57.399662	53.010	-0.300	-0.450	0.160	53.000	-1.200	0.700																			1580015470.0	7.08	13.11
26/01/2020 05:11:11	26012020	260120	051111	53.050	12.594963	-57.399635	53.170	0.090	-1.150	-0.150	53.080	-2.300	0.400																			1580015471.0	7.56	14.00
26/01/2020 05:11:12	26012020	260120	051112	53.200	12.594988	-57.399605	53.120	0.500	-1.070	-0.220	53.210	-2.600	0.200																			1580015472.0	8.16	15.11
26/01/2020 05:11:13	26012020	260120	051113	53.150	12.595013	-57.399577	52.960	0.490	-0.210	-0.050	53.120	-2.100	0.200																			1580015473.0	8.08	14.96
26/01/2020 05:11:14	26012020	260120	051114	53.000	12.595033	-57.399550	52.950	0.050	0.590	0.040	52.990	-1.100	0.400																			1580015474.0	7.17	13.28
26/01/2020 05:11:15	26012020	260120	051115	52.980	12.595052	-57.399525	53.070	-0.380	0.670	-0.030	53.000	-0.700	0.400																			1580015475.0	6.57	12.17
26/01/2020 05:11:16	26012020	260120	051116	53.120	12.595072	-57.399498	53.310	-0.400	0.130	-0.170	53.170	-1.000	0.300																			1580015476.0	6.90	12.78
26/01/2020 05:11:17	26012020	260120	051117	53.380	12.595095	-57.399472	53.470	-0.080	-0.450	-0.190	53.430	-1.600	0.200																			1580015477.0	7.64	14.15
26/01/2020 05:11:18	26012020	260120	051118	53.540	12.595118	-57.399442	53.400	0.150	-0.520	0.050	53.540	-2.000	0.300																			1580015478.0	8.09	14.98
26/01/2020 05:11:19	26012020	260120	051119	53.450	12.595140	-57.399412	53.240	0.080	-0.170	0.450	53.410	-1.700	0.600																			1580015479.0	7.84	14.52
26/01/2020 05:11:20	26012020	260120	051120	53.270	12.595158	-57.399383	53.210	-0.100	0.010	0.610	53.250	-1.400	1.000																			1580015480.0	7.18	13.30
26/01/2020 05:11:21	26012020	260120	051121	53.220	12.595177	-57.399357	53.250	-0.110	-0.210	0.440	53.220	-1.500	0.900																			1580015481.0	6.93	12.83
26/01/2020 05:11:22	26012020	260120	051122	53.260	12.595198	-57.399330	53.250	0.110	-0.460	0.120	53.260	-1.800	0.700																			1580015482.0	7.32	13.56
26/01/2020 05:11:23	26012020	260120	051123	53.300	12.595223	-57.399302	53.340	0.310	-0.410	-0.160	53.310	-1.900	0.300																			1580015483.0	7.74	14.33
26/01/2020 05:11:24	26012020	260120	051124	53.390	12.595247	-57.399275	53.440	0.260	-0.120	-0.260	53.410	-1.700	0.100																			1580015484.0	7.65	14.17
26/01/2020 05:11:25	26012020	260120	051125	53.490	12.595268	-57.399248	53.460	-0.030	0.200	-0.170	53.500	-1.300	0.200																			1580015485.0	7.34	13.59
26/01/2020 05:11:26	26012020	260120	051126	53.510	12.595290	-57.399223	53.430	-0.290	0.230	-0.020	53.510	-1.100	0.300																			1580015486.0	7.10	13.15
26/01/2020 05:11:27	26012020	260120	051127	53.490	12.595310	-57.399197	53.480	-0.280	-0.150	0.070	53.490	-1.300	0.400																			1580015487.0	7.12	13.19
26/01/2020 05:11:28	26012020	260120	051128	53.520	12.595330	-57.399168	53.620	-0.080	-0.600	0.080	53.540	-1.800	0.400																			1580015488.0	7.49	13.87
26/01/2020 05:11:29	26012020	260120	051129	53.660	12.595352	-57.399138	53.720	0.070	-0.630	0.150	53.690	-2.100	0.500																			1580015489.0	7.87	14.58
26/01/2020 05:11:30	26012020	260120	051130	53.760	12.595373	-57.399108	53.660	0.050	-0.280	0.300	53.760	-1.900	0.600																			1580015490.0	7.76	14.37
26/01/2020 05:11:31	26012020	260120	051131	53.700	12.595393	-57.399080	53.500	-0.020	0.060	0.400	53.660	-1.500	0.700																			1580015491.0	7.30	13.52
26/01/2020 05:11:32	26012020	260120	051132	53.540	12.595412	-57.399053	53.410	-0.000	0.120	0.350	53.510	-1.300	0.800																			1580015492.0	7.08	13.11
26/01/2020 05:11:33	26012020	260120	051133	53.450	12.595433	-57.399025	53.470	0.120	-0.060	0.030	53.440	-1.400	0.600																			1580015493.0	7.24	13.41
26/01/2020 05:11:34	26012020	260120	051134	53.520	12.595455	-57.398998	53.630	0.190	-0.180	-0.410	53.520	-1.400	0.500																			1580015494.0	7.57	14.02
26/01/2020 05:11:35	26012020	260120	051135	53.700	12.595480	-57.398972	53.710	0.040	-0.040	-0.630	53.720	-1.500	-0.200																			1580015495.0	7.71	14.28
26/01/2020 05:11:36	26012020	260120	051136	53.770	12.595503	-57.398945	53.650	-0.210	0.110	-0.590	53.770	-1.300	-0.300																			1580015496.0	7.47	13.83
26/01/2020 05:11:37	26012020	260120	051137	53.720	12.595523	-57.398918	53.550	-0.300	-0.040	-0.360	53.700	-1.300	-0.100																			1580015497.0	7.13	13.20
26/01/2020 05:11:38	26012020	260120	051138	53.610	12.595545	-57.398892	53.530	-0.100	-0.490	-0.120	53.600	-1.700	0.200																			1580015498.0	7.20	13.33
26/01/2020 05:11:39	26012020	260120	051139	53.590	12.595567	-57.398863	53.630	0.200	-0.810	0.100	53.610	-2.100	0.400																			1580015499.0	7.62	14.11
26/01/2020 05:11:40	26012020	260120	051140	53.700	12.595587	-57.398833	53.710	0.280	-0.650	0.430	53.730	-2.200	0.600																			1580015500.0	7.91	14.65
26/01/2020 05:11:41	26012020	260120	051141	53.780	12.595607	-57.398802	53.660	0.090	-0.110	0.810	53.780	-1.800	1.000																			1580015501.0	7.69	14.24
26/01/2020 05:11:42	26012020	260120	051142	53.710	12.595625	-57.398773	53.570	-0.170	0.340	0.930	53.680	-1.200	1.300																			1580015502.0	7.22	13.37
26/01/2020 05:11:43	26012020	260120	051143	53.610	12.595643	-57.398747	53.590	-0.220	0.340	0.670	53.600	-1.000	1.200																			1580015503.0	6.94	12.85
26/01/2020 05:11:44	26012020	260120	051144	53.650	12.595663	-57.398720	53.640	-0.010	-0.030	0.360	53.670	-1.200	0.900																			1580015504.0	7.15	13.24
26/01/2020 05:11:45	26012020	260120	051145	53.720	12.595687	-57.398692	53.560	0.240	-0.340	0.120	53.710	-1.600	0.600																			1580015505.0	7.66	14.19
26/01/2020 05:11:46	26012020	260120	051146	53.650	12.595710	-57.398663	53.470	0.290	-0.400	-0.080	53.650	-1.700	0.500																			1580015506.0	7.86	14.56
26/01/2020 05:11:47	26012020	260120	051147	53.560	12.595732	-57.398635	53.380	0.080	-0.200	-0.290	53.550	-1.700	0.200																			1580015507.0	7.66	14.19
26/01/2020 05:11:48	26012020	260120	051148	53.480	12.595755	-57.398608	53.380	-0.230	0.060	-0.590	53.460	-1.400	-0.100																			1580015508.0	7.36	13.63
26/01/2020 05:11:49	26012020	260120	051149	53.470	12.595777	-57.398583	53.600	-0.340	-0.010	-0.890	53.490	-1.300	-0.400																			1580015509.0	7.09	13.13
26/01/2020 05:11:50	26012020	260120	051150	53.700	12.595798	-57.398558	53.830	-0.170	-0.370	-0.790	53.760	-1.600	-0.500																			1580015510.0	7.18	13.30
26/01/2020 05:11:51	26012020	260120	051151	53.930	12.595822	-57.398530	53.720	0.050	-0.500	-0.130	53.930	-1.900	-0.100																			1580015511.0	7.65	14.17
26/01/2020 05:11:52	26012020	260120	051152	53.810	12.595842	-57.398500	53.440	0.140	-0.360	0.670	53.750	-1.800	0.700																			1580015512.0	7.80	14.45
26/01/2020 05:11:53	26012020	260120	051153	53.500	12.595858	-57.398468	53.320	0.160	-0.270	1.200	53.450	-1.700	1.400																			1580015513.0	7.51	13.91
26/01/2020 05:11:54	26012020	260120	051154	53.360	12.595875	-57.398438	53.440	0.190	-0.320	1.160	53.370	-1.700	1.600																			1580015514.0	7.36	13.63
26/01/2020 05:11:55	26012020	260120	051155	53.470	12.595895	-57.398408	53.690	0.250	-0.270	0.630	53.510	-1.700	1.300																			1580015515.0	7.52	13.93
26/01/2020 05:11:56	26012020	260120	051156	53.710	12.595918	-57.398382	53.830	0.220	0.100	0.140	53.760	-1.500	0.700																			1580015516.0	7.66	14.19
26/01/2020 05:11:57	26012020	260120	051157	53.870	12.595943	-57.398355	53.770	0.030	0.550	-0.030	53.880	-1.000	0.400																			1580015517.0	7.47	13.83
26/01/2020 05:11:58	26012020	260120	051158	53.820	12.595963	-57.398330	53.580	-0.220	0.550	-0.040	53.780	-0.800	0.400																			1580015518.0	7.04	13.04
26/01/2020 05:11:59	26012020	260120	051159	53.620	12.595985	-57.398305	53.410	-0.360	-0.030	-0.100	53.580	-1.100	0.300																			1580015519.0	7.01	12.98
26/01/2020 05:12:00	26012020	260120	051200	53.470	12.596007	-57.398277	53.370	-0.360	-0.660	-0.270	53.470	-1.400	0.300	1014.60	25.70	25.80	21.30	21.30	0.00	76.00	76.00	433.00	25.50	12.00	9.10	73.00	5.40	15	3203.00	27.50	27.40	1580015520.0	7.53	13.95
26/01/2020 05:12:01	26012020	260120	051201	53.440	12.596030	-57.398248	53.440	-0.250	-0.890	-0.380	53.450	-2.200	0.000																			1580015521.0	7.94	14.70
26/01/2020 05:12:02	26012020	260120	051202	53.520	12.596053	-57.398220	53.590	-0.030	-0.820	-0.310	53.550	-2.300	0.000																			1580015522.0	7.74	14.33
26/01/2020 05:12:03	26012020	260120	051203	53.670	12.596073	-57.398192	53.660	0.190	-0.530	-0.030	53.700	-2.100	0.200																			1580015523.0	7.44	13.78
26/01/2020 05:12:04	26012020	260120	051204	53.750	12.596093	-57.398163	53.640	0.240	-0.060	0.270	53.750	-1.700	0.500																			1580015524.0	7.39	13.69
26/01/2020 05:12:05	26012020	260120	051205	53.710	12.596112	-57.398133	53.530	0.140	0.350	0.490	53.690	-1.200	0.800																			1580015525.0	7.28	13.48
26/01/2020 05:12:06	26012020	260120	051206	53.590	12.596130	-57.398105	53.450	0.090	0.460	0.540	53.560	-0.900	0.900																			1580015526.0	7.14	13.22
26/01/2020 05:12:07	26012020	260120	051207	53.510	12.596150	-57.398078	53.480	0.160	0.200	0.360	53.510	-1.000	0.900																			1580015527.0	7.23	13.39
26/01/2020 05:12:08	26012020	260120	051208	53.550	12.596172	-57.398050	53.530	0.290	-0.370	0.050	53.560	-1.500	0.600																			1580015528.0	7.48	13.85
26/01/2020 05:12:09	26012020	260120	051209	53.590	12.596195	-57.398023	53.490	0.370	-0.810	-0.140	53.590	-2.100	0.300																			1580015529.0	7.82	14.48
26/01/2020 05:12:10	26012020	260120	051210	53.560	12.596220	-57.397995	53.410	0.220	-0.620	-0.040	53.550	-2.200	0.300																			1580015530.0	8.06	14.93
26/01/2020 05:12:11	26012020	260120	051211	53.480	12.596243	-57.397967	53.350	-0.210	0.080	0.110	53.460	-1.700	0.400																			1580015531.0	7.78	14.41
26/01/2020 05:12:12	26012020	260120	051212	53.420	12.596263	-57.397940	53.390	-0.670	0.580	0.190	53.420	-1.400	0.500																			1580015532.0	7.02	13.00
26/01/2020 05:12:13	26012020	260120	051213	53.470	12.596282	-57.397913	53.470	-0.790	0.410	0.290	53.490	-0.800	0.600																			1580015533.0	6.65	12.32
26/01/2020 05:12:14	26012020	260120	051214	53.550	12.596300	-57.397887	53.490	-0.530	-0.180	0.410	53.560	-1.300	0.700																			1580015534.0	7.09	13.13
26/01/2020 05:12:15	26012020	260120	051215	53.570	12.596320	-57.397857	53.470	-0.120	-0.650	0.570	53.560	-1.900	0.900																			1580015535.0	7.74	14.33
26/01/2020 05:12:16	26012020	260120	051216	53.540	12.596342	-57.397825	53.490	0.200	-0.770	0.600	53.530	-2.200	1.000																			1580015536.0	7.96	14.74
26/01/2020 05:12:17	26012020	260120	051217	53.550	12.596362	-57.397795	53.540	0.430	-0.620	0.360	53.560	-2.100	0.900																			1580015537.0	7.69	14.24
26/01/2020 05:12:18	26012020	260120	051218	53.610	12.596382	-57.397767	53.460	0.630	-0.360	0.110	53.610	-1.900	0.600																			1580015538.0	7.37	13.65
26/01/2020 05:12:19	26012020	260120	051219	53.540	12.596403	-57.397740	53.220	0.690	-0.060	0.020	53.500	-1.600	0.400																			1580015539.0	7.32	13.56
26/01/2020 05:12:20	26012020	260120	051220	53.300	12.596427	-57.397713	53.100	0.510	0.160	-0.190	53.250	-1.300	0.300																			1580015540.0	7.38	13.67
26/01/2020 05:12:21	26012020	260120	051221	53.160	12.596450	-57.397688	53.240	0.170	0.230	-0.570	53.170	-1.200	0.000																			1580015541.0	7.41	13.72
26/01/2020 05:12:22	26012020	260120	051222	53.320	12.596473	-57.397662	53.430	-0.200	0.200	-0.700	53.320	-1.200	-0.100																			1580015542.0	7.46	13.82
26/01/2020 05:12:23	26012020	260120	051223	53.520	12.596497	-57.397635	53.490	-0.540	0.110	-0.360	53.540	-1.200	-0.200																			1580015543.0	7.48	13.85
26/01/2020 05:12:24	26012020	260120	051224	53.560	12.596517	-57.397608	53.490	-0.770	-0.100	0.180	53.560	-1.300	-0.000																			1580015544.0	7.44	13.78
26/01/2020 05:12:25	26012020	260120	051225	53.540	12.596535	-57.397578	53.490	-0.710	-0.410	0.760	53.530	-1.700	0.900																			1580015545.0	7.44	13.78
26/01/2020 05:12:26	26012020	260120	051226	53.530	12.596553	-57.397547	53.510	-0.380	-0.560	1.200	53.530	-1.900	1.400																			1580015546.0	7.60	14.08
26/01/2020 05:12:27	26012020	260120	051227	53.530	12.596572	-57.397515	53.450	-0.040	-0.400	1.350	53.530	-1.900	1.700																			1580015547.0	7.70	14.26
26/01/2020 05:12:28	26012020	260120	051228	53.460	12.596588	-57.397485	53.340	0.140	-0.200	1.120	53.440	-1.700	1.600																			1580015548.0	7.47	13.83
26/01/2020 05:12:29	26012020	260120	051229	53.340	12.596607	-57.397457	53.300	0.270	-0.190	0.500	53.330	-1.600	1.200																			1580015549.0	7.19	13.32
26/01/2020 05:12:30	26012020	260120	051230	53.330	12.596630	-57.397430	53.330	0.520	-0.270	-0.230	53.340	-1.600	0.500																			1580015550.0	7.31	13.54
26/01/2020 05:12:31	26012020	260120	051231	53.380	12.596655	-57.397405	53.260	0.740	-0.270	-0.760	53.380	-1.700	-0.200																			1580015551.0	7.63	14.13
26/01/2020 05:12:32	26012020	260120	051232	53.320	12.596680	-57.397380	53.110	0.670	-0.210	-1.100	53.290	-1.600	-0.600																			1580015552.0	7.69	14.24
26/01/2020 05:12:33	26012020	260120	051233	53.190	12.596705	-57.397353	53.070	0.320	-0.120	-1.210	53.170	-1.600	-0.800																			1580015553.0	7.61	14.09
26/01/2020 05:12:34	26012020	260120	051234	53.150	12.596728	-57.397327	53.140	-0.130	0.000	-0.990	53.160	-1.400	-0.800																			1580015554.0	7.53	13.95
26/01/2020 05:12:35	26012020	260120	051235	53.220	12.596752	-57.397300	53.200	-0.520	0.100	-0.480	53.240	-1.300	-0.400																			1580015555.0	7.44	13.78
26/01/2020 05:12:36	26012020	260120	051236	53.280	12.596772	-57.397272	53.250	-0.770	0.140	0.180	53.280	-1.300	-0.200																			1580015556.0	7.40	13.70
26/01/2020 05:12:37	26012020	260120	051237	53.310	12.596788	-57.397242	53.270	-0.780	0.130	0.980	53.310	-1.200	1.000																			1580015557.0	7.40	13.70
26/01/2020 05:12:38	26012020	260120	051238	53.320	12.596805	-57.397210	53.250	-0.540	-0.090	1.710	53.320	-1.400	1.800																			1580015558.0	7.39	13.69
26/01/2020 05:12:39	26012020	260120	051239	53.280	12.596820	-57.397178	53.190	-0.120	-0.460	2.040	53.270	-1.700	2.300																			1580015559.0	7.49	13.87
26/01/2020 05:12:40	26012020	260120	051240	53.210	12.596837	-57.397147	53.050	0.250	-0.670	1.790	53.190	-2.000	2.300																			1580015560.0	7.70	14.26
26/01/2020 05:12:41	26012020	260120	051241	53.070	12.596858	-57.397117	52.900	0.460	-0.550	1.120	53.030	-2.000	1.800																			1580015561.0	7.73	14.32
26/01/2020 05:12:42	26012020	260120	051242	52.910	12.596882	-57.397090	52.840	0.570	-0.370	0.200	52.890	-1.800	1.000																			1580015562.0	7.50	13.89
26/01/2020 05:12:43	26012020	260120	051243	52.880	12.596907	-57.397067	52.920	0.640	-0.260	-0.770	52.890	-1.700	0.000																			1580015563.0	7.41	13.72
26/01/2020 05:12:44	26012020	260120	051244	52.990	12.596935	-57.397043	52.900	0.500	-0.060	-1.360	53.000	-1.600	-0.800																			1580015564.0	7.61	14.09
26/01/2020 05:12:45	26012020	260120	051245	53.000	12.596960	-57.397020	52.780	0.140	0.150	-1.390	52.980	-1.300	-1.000																			1580015565.0	7.64	14.15
26/01/2020 05:12:46	26012020	260120	051246	52.880	12.596983	-57.396993	52.770	-0.210	0.150	-1.120	52.870	-1.200	-0.900																			1580015566.0	7.40	13.70
26/01/2020 05:12:47	26012020	260120	051247	52.860	12.597005	-57.396965	52.780	-0.380	0.040	-0.590	52.870	-1.300	-0.500																			1580015567.0	7.38	13.67
26/01/2020 05:12:48	26012020	260120	051248	52.860	12.597023	-57.396937	52.740	-0.420	-0.070	0.090	52.850	-1.400	0.200																			1580015568.0	7.55	13.98
26/01/2020 05:12:49	26012020	260120	051249	52.800	12.597042	-57.396905	52.740	-0.420	-0.200	0.740	52.780	-1.500	0.800																			1580015569.0	7.58	14.04
26/01/2020 05:12:50	26012020	260120	051250	52.780	12.597060	-57.396875	52.850	-0.330	-0.290	1.140	52.780	-1.600	1.000																			1580015570.0	7.55	13.98
26/01/2020 05:12:51	26012020	260120	051251	52.880	12.597078	-57.396845	52.910	-0.120	-0.330	1.310	52.900	-1.700	1.600																			1580015571.0	7.50	13.89
26/01/2020 05:12:52	26012020	260120	051252	52.930	12.597098	-57.396815	52.770	0.110	-0.320	1.360	52.930	-1.700	1.700																			1580015572.0	7.45	13.80
26/01/2020 05:12:53	26012020	260120	051253	52.790	12.597118	-57.396787	52.540	0.190	-0.220	1.200	52.750	-1.700	1.700																			1580015573.0	7.46	13.82
26/01/2020 05:12:54	26012020	260120	051254	52.570	12.597140	-57.396758	52.440	0.190	-0.170	0.790	52.540	-1.600	1.400																			1580015574.0	7.39	13.69
26/01/2020 05:12:55	26012020	260120	051255	52.470	12.597162	-57.396733	52.430	0.270	-0.280	0.210	52.470	-1.600	0.900																			1580015575.0	7.35	13.61
26/01/2020 05:12:56	26012020	260120	051256	52.480	12.597187	-57.396707	52.430	0.370	-0.380	-0.460	52.490	-1.800	0.200																			1580015576.0	7.54	13.96
26/01/2020 05:12:57	26012020	260120	051257	52.480	12.597212	-57.396682	52.380	0.290	-0.290	-0.990	52.480	-1.800	-0.400																			1580015577.0	7.77	14.39
26/01/2020 05:12:58	26012020	260120	051258	52.450	12.597237	-57.396655	52.350	0.060	-0.120	-1.120	52.440	-1.600	-0.700																			1580015578.0	7.69	14.24
26/01/2020 05:12:59	26012020	260120	051259	52.410	12.597260	-57.396628	52.360	-0.130	-0.000	-0.920	52.410	-1.500	-0.700																			1580015579.0	7.45	13.80
26/01/2020 05:13:00	26012020	260120	051300	52.420	12.597282	-57.396602	52.410	-0.220	0.110	-0.570	52.430	-1.400	-0.400	1014.60	25.70	25.70	21.30	21.30	0.00	76.00	76.00	434.00	25.50	12.00	8.90	74.00	5.20	15	3205.00	27.40	27.40	1580015580.0	7.41	13.72
26/01/2020 05:13:01	26012020	260120	051301	52.460	12.597303	-57.396573	52.410	-0.300	0.270	-0.040	52.460	-1.200	0.100																			1580015581.0	7.48	13.85
26/01/2020 05:13:02	26012020	260120	051302	52.450	12.597322	-57.396545	52.390	-0.380	0.220	0.560	52.450	-1.100	0.700																			1580015582.0	7.34	13.59
26/01/2020 05:13:03	26012020	260120	051303	52.420	12.597340	-57.396515	52.390	-0.340	-0.180	1.000	52.420	-1.400	1.200																			1580015583.0	7.27	13.46
26/01/2020 05:13:04	26012020	260120	051304	52.420	12.597358	-57.396485	52.360	-0.090	-0.650	1.220	52.420	-1.900	1.500																			1580015584.0	7.51	13.91
26/01/2020 05:13:05	26012020	260120	051305	52.380	12.597380	-57.396455	52.240	0.190	-0.730	1.250	52.370	-2.100	1.600																			1580015585.0	7.83	14.50
26/01/2020 05:13:06	26012020	260120	051306	52.270	12.597400	-57.396425	52.150	0.340	-0.520	1.040	52.250	-2.000	1.500																			1580015586.0	7.76	14.37
26/01/2020 05:13:07	26012020	260120	051307	52.190	12.597422	-57.396398	52.160	0.380	-0.330	0.610	52.190	-1.800	1.200																			1580015587.0	7.38	13.67
26/01/2020 05:13:08	26012020	260120	051308	52.210	12.597445	-57.396373	52.160	0.310	-0.160	0.100	52.220	-1.700	0.700																			1580015588.0	7.34	13.59
26/01/2020 05:13:09	26012020	260120	051309	52.230	12.597470	-57.396347	52.130	0.100	0.160	-0.320	52.220	-1.400	0.200																			1580015589.0	7.57	14.02
26/01/2020 05:13:10	26012020	260120	051310	52.210	12.597495	-57.396322	52.150	-0.160	0.370	-0.550	52.210	-1.100	-0.100																			1580015590.0	7.48	13.85
26/01/2020 05:13:11	26012020	260120	051311	52.230	12.597518	-57.396297	52.240	-0.320	0.230	-0.650	52.250	-1.100	-0.200																			1580015591.0	7.25	13.43
26/01/2020 05:13:12	26012020	260120	051312	52.320	12.597540	-57.396270	52.260	-0.320	-0.170	-0.590	52.330	-1.400	-0.300																			1580015592.0	7.37	13.65
26/01/2020 05:13:13	26012020	260120	051313	52.350	12.597562	-57.396242	52.330	-0.180	-0.590	-0.390	52.360	-1.800	-0.100																			1580015593.0	7.69	14.24
26/01/2020 05:13:14	26012020	260120	051314	52.410	12.597583	-57.396212	52.430	0.020	-0.690	-0.050	52.410	-2.000	-0.000																			1580015594.0	7.89	14.61
26/01/2020 05:13:15	26012020	260120	051315	52.490	12.597605	-57.396182	52.450	0.130	-0.280	0.390	52.500	-1.900	0.600																			1580015595.0	7.83	14.50
26/01/2020 05:13:16	26012020	260120	051316	52.490	12.597623	-57.396152	52.370	0.060	0.230	0.740	52.480	-1.400	1.000																			1580015596.0	7.41	13.72
26/01/2020 05:13:17	26012020	260120	051317	52.420	12.597642	-57.396125	52.300	-0.060	0.280	0.850	52.400	-1.100	1.200																			1580015597.0	6.96	12.89
26/01/2020 05:13:18	26012020	260120	051318	52.340	12.597662	-57.396098	52.280	-0.060	-0.120	0.660	52.330	-1.300	1.200																			1580015598.0	7.07	13.09
26/01/2020 05:13:19	26012020	260120	051319	52.330	12.597685	-57.396072	52.370	0.110	-0.490	0.360	52.340	-1.700	0.900																			1580015599.0	7.65	14.17
26/01/2020 05:13:20	26012020	260120	051320	52.430	12.597710	-57.396043	52.530	0.310	-0.620	0.040	52.460	-2.000	0.600																			1580015600.0	7.94	14.70
26/01/2020 05:13:21	26012020	260120	051321	52.600	12.597735	-57.396017	52.640	0.380	-0.520	-0.190	52.620	-2.000	0.300																			1580015601.0	7.79	14.43
26/01/2020 05:13:22	26012020	260120	051322	52.710	12.597758	-57.395988	52.620	0.200	-0.170	-0.180	52.710	-1.800	0.200																			1580015602.0	7.62	14.11
26/01/2020 05:13:23	26012020	260120	051323	52.680	12.597780	-57.395962	52.510	-0.140	0.230	-0.020	52.660	-1.300	0.300																			1580015603.0	7.43	13.76
26/01/2020 05:13:24	26012020	260120	051324	52.560	12.597800	-57.395935	52.490	-0.420	0.350	0.080	52.550	-1.100	0.400																			1580015604.0	7.20	13.33
26/01/2020 05:13:25	26012020	260120	051325	52.540	12.597820	-57.395907	52.610	-0.500	0.140	0.000	52.550	-1.100	0.400																			1580015605.0	7.21	13.35
26/01/2020 05:13:26	26012020	260120	051326	52.680	12.597842	-57.395878	52.790	-0.360	-0.150	-0.130	52.680	-1.200	0.400																			1580015606.0	7.49	13.87
26/01/2020 05:13:27	26012020	260120	051327	52.870	12.597863	-57.395850	52.850	-0.100	-0.340	-0.070	52.890	-1.700	0.200																			1580015607.0	7.68	14.22
26/01/2020 05:13:28	26012020	260120	051328	52.920	12.597885	-57.395822	52.730	0.160	-0.460	0.140	52.910	-1.800	0.400																			1580015608.0	7.64	14.15
26/01/2020 05:13:29	26012020	260120	051329	52.790	12.597907	-57.395793	52.540	0.310	-0.530	0.210	52.760	-1.900	0.600																			1580015609.0	7.55	13.98
26/01/2020 05:13:30	26012020	260120	051330	52.610	12.597928	-57.395765	52.480	0.360	-0.510	0.030	52.590	-1.900	0.500																			1580015610.0	7.56	14.00
26/01/2020 05:13:31	26012020	260120	051331	52.560	12.597952	-57.395738	52.590	0.350	-0.360	-0.180	52.580	-1.800	0.300																			1580015611.0	7.60	14.08
26/01/2020 05:13:32	26012020	260120	051332	52.690	12.597975	-57.395712	52.750	0.290	-0.160	-0.220	52.720	-1.700	0.100																			1580015612.0	7.58	14.04
26/01/2020 05:13:33	26012020	260120	051333	52.840	12.597998	-57.395685	52.820	0.080	0.090	-0.060	52.860	-1.400	0.200																			1580015613.0	7.53	13.95
26/01/2020 05:13:34	26012020	260120	051334	52.890	12.598020	-57.395657	52.800	-0.270	0.330	0.290	52.890	-1.200	0.500																			1580015614.0	7.49	13.87
26/01/2020 05:13:35	26012020	260120	051335	52.870	12.598040	-57.395628	52.750	-0.580	0.350	0.640	52.860	-1.000	0.900																			1580015615.0	7.35	13.61
26/01/2020 05:13:36	26012020	260120	051336	52.810	12.598058	-57.395600	52.690	-0.620	0.110	0.770	52.790	-1.200	1.100																			1580015616.0	7.33	13.58
26/01/2020 05:13:37	26012020	260120	051337	52.750	12.598078	-57.395570	52.760	-0.350	-0.290	0.640	52.760	-1.500	1.100																			1580015617.0	7.51	13.91
26/01/2020 05:13:38	26012020	260120	051338	52.820	12.598100	-57.395540	52.830	0.050	-0.650	0.410	52.820	-1.600	1.000																			1580015618.0	7.69	14.24
26/01/2020 05:13:39	26012020	260120	051339	52.890	12.598122	-57.395512	52.800	0.350	-0.740	0.080	52.890	-2.100	0.600																			1580015619.0	7.80	14.45
26/01/2020 05:13:40	26012020	260120	051340	52.860	12.598145	-57.395483	52.780	0.470	-0.520	-0.280	52.860	-2.100	0.500																			1580015620.0	7.74	14.33
26/01/2020 05:13:41	26012020	260120	051341	52.840	12.598168	-57.395458	52.740	0.460	-0.230	-0.500	52.840	-1.800	-0.000																			1580015621.0	7.50	13.89
26/01/2020 05:13:42	26012020	260120	051342	52.810	12.598192	-57.395432	52.700	0.360	-0.010	-0.560	52.800	-1.500	-0.200																			1580015622.0	7.39	13.69
26/01/2020 05:13:43	26012020	260120	051343	52.770	12.598217	-57.395407	52.680	0.130	0.170	-0.420	52.760	-1.300	-0.100																			1580015623.0	7.46	13.82
26/01/2020 05:13:44	26012020	260120	051344	52.760	12.598238	-57.395380	52.730	-0.190	0.210	-0.100	52.770	-1.200	0.100																			1580015624.0	7.48	13.85
26/01/2020 05:13:45	26012020	260120	051345	52.820	12.598258	-57.395352	52.860	-0.450	-0.060	0.210	52.840	-1.300	0.500																			1580015625.0	7.41	13.72
26/01/2020 05:13:46	26012020	260120	051346	52.940	12.598278	-57.395322	52.930	-0.490	-0.350	0.510	52.970	-1.600	0.700																			1580015626.0	7.59	14.06
26/01/2020 05:13:47	26012020	260120	051347	53.000	12.598298	-57.395290	52.890	-0.350	-0.370	0.810	53.000	-1.800	1.100																			1580015627.0	7.85	14.54
26/01/2020 05:13:48	26012020	260120	051348	52.950	12.598318	-57.395260	52.920	-0.150	-0.170	0.900	52.940	-1.700	1.300																			1580015628.0	7.74	14.33
26/01/2020 05:13:49	26012020	260120	051349	52.980	12.598338	-57.395232	53.060	0.080	0.020	0.720	53.000	-1.400	1.200																			1580015629.0	7.41	13.72
26/01/2020 05:13:50	26012020	260120	051350	53.110	12.598360	-57.395205	53.100	0.290	0.020	0.430	53.140	-1.300	0.900																			1580015630.0	7.26	13.45
26/01/2020 05:13:51	26012020	260120	051351	53.170	12.598382	-57.395178	53.000	0.420	-0.270	0.110	53.160	-1.500	0.600																			1580015631.0	7.32	13.56
26/01/2020 05:13:52	26012020	260120	051352	53.070	12.598403	-57.395150	52.820	0.410	-0.600	-0.170	53.070	-1.600	0.500																			1580015632.0	7.62	14.11
26/01/2020 05:13:53	26012020	260120	051353	52.910	12.598428	-57.395122	52.800	0.310	-0.660	-0.460	52.890	-2.100	0.100																			1580015633.0	7.93	14.69
26/01/2020 05:13:54	26012020	260120	051354	52.880	12.598455	-57.395095	52.970	0.170	-0.380	-0.740	52.910	-1.900	-0.200																			1580015634.0	7.91	14.65
26/01/2020 05:13:55	26012020	260120	051355	53.060	12.598478	-57.395070	53.190	-0.070	0.080	-0.760	53.110	-1.500	-0.400																			1580015635.0	7.61	14.09
26/01/2020 05:13:56	26012020	260120	051356	53.280	12.598502	-57.395043	53.260	-0.430	0.490	-0.380	53.310	-1.100	-0.200																			1580015636.0	7.31	13.54
26/01/2020 05:13:57	26012020	260120	051357	53.360	12.598520	-57.395015	53.230	-0.740	0.590	0.210	53.340	-0.800	0.300																			1580015637.0	7.16	13.26
26/01/2020 05:13:58	26012020	260120	051358	53.300	12.598537	-57.394987	53.230	-0.650	0.170	0.650	53.280	-0.900	0.900																			1580015638.0	7.20	13.33
26/01/2020 05:13:59	26012020	260120	051359	53.280	12.598555	-57.394955	53.300	-0.050	-0.630	0.780	53.300	-1.600	1.100																			1580015639.0	7.46	13.82
26/01/2020 05:14:00	26012020	260120	051400	53.340	12.598575	-57.394923	53.210	0.600	-1.090	0.740	53.340	-2.400	1.100	1014.60	25.70	25.70	21.30	21.30	0.00	76.00	76.00	434.00	25.50	16.00	9.00	79.00	5.30	15	3215.00	27.40	27.40	1580015640.0	8.01	14.83
26/01/2020 05:14:01	26012020	260120	051401	53.260	12.598598	-57.394892	52.980	0.790	-0.800	0.590	53.220	-2.400	1.000																			1580015641.0	8.28	15.33
26/01/2020 05:14:02	26012020	260120	051402	53.030	12.598622	-57.394863	52.820	0.490	-0.170	0.290	52.980	-1.800	0.800																			1580015642.0	7.73	14.32
26/01/2020 05:14:03	26012020	260120	051403	52.870	12.598643	-57.394840	52.840	0.100	0.220	-0.190	52.860	-1.300	0.400																			1580015643.0	7.11	13.17
26/01/2020 05:14:04	26012020	260120	051404	52.920	12.598668	-57.394817	53.040	-0.130	0.240	-0.600	52.920	-1.200	0.200																			1580015644.0	7.08	13.11
26/01/2020 05:14:05	26012020	260120	051405	53.150	12.598692	-57.394792	53.210	-0.180	0.040	-0.690	53.190	-1.300	-0.300																			1580015645.0	7.43	13.76
26/01/2020 05:14:06	26012020	260120	051406	53.310	12.598715	-57.394763	53.130	-0.240	-0.070	-0.400	53.310	-1.400	-0.200																			1580015646.0	7.72	14.30
26/01/2020 05:14:07	26012020	260120	051407	53.220	12.598735	-57.394733	52.930	-0.400	0.010	0.110	53.190	-1.400	0.200																			1580015647.0	7.79	14.43
26/01/2020 05:14:08	26012020	260120	051408	53.010	12.598753	-57.394703	52.860	-0.500	-0.030	0.530	52.980	-1.400	0.800																			1580015648.0	7.53	13.95
26/01/2020 05:14:09	26012020	260120	051409	52.930	12.598772	-57.394673	53.000	-0.300	-0.360	0.510	52.940	-1.600	0.900																			1580015649.0	7.30	13.52
26/01/2020 05:14:10	26012020	260120	051410	53.060	12.598793	-57.394645	53.150	0.130	-0.630	0.250	53.100	-1.900	0.700																			1580015650.0	7.53	13.95
26/01/2020 05:14:11	26012020	260120	051411	53.220	12.598817	-57.394617	53.190	0.470	-0.490	0.190	53.240	-2.000	0.600																			1580015651.0	7.83	14.50
26/01/2020 05:14:12	26012020	260120	051412	53.250	12.598838	-57.394588	53.140	0.510	-0.180	0.280	53.250	-1.700	0.600																			1580015652.0	7.64	14.15
26/01/2020 05:14:13	26012020	260120	051413	53.210	12.598860	-57.394562	53.120	0.290	-0.020	0.240	53.200	-1.500	0.700																			1580015653.0	7.27	13.46
26/01/2020 05:14:14	26012020	260120	051414	53.180	12.598882	-57.394535	53.110	0.070	-0.060	0.100	53.180	-1.400	0.600																			1580015654.0	7.26	13.45
26/01/2020 05:14:15	26012020	260120	051415	53.190	12.598903	-57.394508	53.150	-0.010	-0.160	-0.030	53.190	-1.500	0.400																			1580015655.0	7.50	13.89
26/01/2020 05:14:16	26012020	260120	051416	53.210	12.598927	-57.394480	53.170	0.030	-0.230	-0.040	53.210	-1.500	0.400																			1580015656.0	7.68	14.22
26/01/2020 05:14:17	26012020	260120	051417	53.230	12.598950	-57.394452	53.180	-0.020	-0.160	0.080	53.240	-1.600	0.400																			1580015657.0	7.72	14.30
26/01/2020 05:14:18	26012020	260120	051418	53.250	12.598972	-57.394423	53.250	-0.210	0.020	0.150	53.260	-1.500	0.500																			1580015658.0	7.63	14.13
26/01/2020 05:14:19	26012020	260120	051419	53.340	12.598992	-57.394395	53.410	-0.400	0.110	0.130	53.370	-1.300	0.500																			1580015659.0	7.39	13.69
26/01/2020 05:14:20	26012020	260120	051420	53.500	12.599012	-57.394367	53.500	-0.410	0.040	0.130	53.530	-1.300	0.500																			1580015660.0	7.27	13.46
26/01/2020 05:14:21	26012020	260120	051421	53.580	12.599032	-57.394338	53.450	-0.200	-0.190	0.090	53.570	-1.500	0.500																			1580015661.0	7.38	13.67
26/01/2020 05:14:22	26012020	260120	051422	53.530	12.599053	-57.394310	53.460	0.160	-0.520	-0.080	53.530	-1.800	0.400																			1580015662.0	7.53	13.95
26/01/2020 05:14:23	26012020	260120	051423	53.540	12.599075	-57.394282	53.550	0.520	-0.710	-0.240	53.560	-2.000	0.200																			1580015663.0	7.74	14.33
26/01/2020 05:14:24	26012020	260120	051424	53.620	12.599100	-57.394255	53.540	0.640	-0.560	-0.220	53.640	-2.100	0.100																			1580015664.0	7.85	14.54
26/01/2020 05:14:25	26012020	260120	051425	53.620	12.599123	-57.394227	53.410	0.350	-0.010	-0.020	53.600	-1.700	0.200																			1580015665.0	7.74	14.33
26/01/2020 05:14:26	26012020	260120	051426	53.490	12.599143	-57.394198	53.330	-0.200	0.490	0.210	53.460	-1.100	0.500																			1580015666.0	7.32	13.56
26/01/2020 05:14:27	26012020	260120	051427	53.400	12.599163	-57.394173	53.420	-0.560	0.370	0.240	53.410	-0.900	0.600																			1580015667.0	6.91	12.80
26/01/2020 05:14:28	26012020	260120	051428	53.510	12.599182	-57.394145	53.570	-0.450	-0.260	0.150	53.510	-1.000	0.600																			1580015668.0	7.12	13.19
26/01/2020 05:14:29	26012020	260120	051429	53.650	12.599205	-57.394117	53.660	-0.080	-0.740	0.200	53.670	-2.000	0.500																			1580015669.0	7.83	14.50
26/01/2020 05:14:30	26012020	260120	051430	53.740	12.599227	-57.394085	53.700	0.150	-0.560	0.250	53.740	-2.100	0.600																			1580015670.0	8.21	15.20
26/01/2020 05:14:31	26012020	260120	051431	53.770	12.599248	-57.394055	53.620	0.120	0.050	0.230	53.770	-1.600	0.600																			1580015671.0	7.81	14.46
26/01/2020 05:14:32	26012020	260120	051432	53.700	12.599268	-57.394028	53.450	0.050	0.390	0.230	53.700	-1.400	0.600																			1580015672.0	7.05	13.06
26/01/2020 05:14:33	26012020	260120	051433	53.520	12.599288	-57.394003	53.390	0.110	0.040	0.040	53.490	-1.100	0.500																			1580015673.0	6.82	12.63
26/01/2020 05:14:34	26012020	260120	051434	53.460	12.599310	-57.393975	53.500	0.240	-0.550	-0.430	53.480	-1.700	0.200																			1580015674.0	7.41	13.72
26/01/2020 05:14:35	26012020	260120	051435	53.580	12.599335	-57.393948	53.590	0.270	-0.700	-0.670	53.600	-2.100	-0.200																			1580015675.0	8.07	14.95
26/01/2020 05:14:36	26012020	260120	051436	53.670	12.599362	-57.393920	53.600	0.110	-0.320	-0.450	53.680	-1.900	-0.200																			1580015676.0	8.06	14.93
26/01/2020 05:14:37	26012020	260120	051437	53.700	12.599382	-57.393892	53.580	-0.190	0.110	0.020	53.690	-1.400	0.200																			1580015677.0	7.45	13.80
26/01/2020 05:14:38	26012020	260120	051438	53.660	12.599400	-57.393865	53.540	-0.390	0.140	0.410	53.650	-1.200	0.600																			1580015678.0	7.03	13.02
26/01/2020 05:14:39	26012020	260120	051439	53.600	12.599418	-57.393835	53.490	-0.330	-0.080	0.620	53.590	-1.400	0.900																			1580015679.0	7.21	13.35
26/01/2020 05:14:40	26012020	260120	051440	53.540	12.599437	-57.393805	53.380	-0.120	-0.160	0.720	53.520	-1.600	1.100																			1580015680.0	7.63	14.13
26/01/2020 05:14:41	26012020	260120	051441	53.440	12.599457	-57.393775	53.240	0.040	-0.090	0.620	53.410	-1.500	1.100																			1580015681.0	7.72	14.30
26/01/2020 05:14:42	26012020	260120	051442	53.310	12.599478	-57.393747	53.200	0.090	-0.100	0.200	53.310	-1.500	1.000																			1580015682.0	7.47	13.83
26/01/2020 05:14:43	26012020	260120	051443	53.260	12.599502	-57.393720	53.230	0.110	-0.230	-0.350	53.270	-1.600	0.300																			1580015683.0	7.40	13.70
26/01/2020 05:14:44	26012020	260120	051444	53.330	12.599527	-57.393695	53.360	0.150	-0.350	-0.730	53.350	-1.700	-0.200																			1580015684.0	7.57	14.02
26/01/2020 05:14:45	26012020	260120	051445	53.460	12.599552	-57.393670	53.490	0.210	-0.460	-0.750	53.490	-1.800	-0.400																			1580015685.0	7.63	14.13
26/01/2020 05:14:46	26012020	260120	051446	53.590	12.599575	-57.393642	53.560	0.210	-0.460	-0.420	53.610	-1.900	-0.200																			1580015686.0	7.64	14.15
26/01/2020 05:14:47	26012020	260120	051447	53.650	12.599595	-57.393613	53.520	0.040	-0.270	0.070	53.650	-1.800	0.200																			1580015687.0	7.66	14.19
26/01/2020 05:14:48	26012020	260120	051448	53.600	12.599613	-57.393582	53.390	-0.170	0.050	0.530	53.580	-1.500	0.700																			1580015688.0	7.54	13.96
26/01/2020 05:14:49	26012020	260120	051449	53.470	12.599632	-57.393553	53.210	-0.200	0.280	0.870	53.430	-1.200	1.100																			1580015689.0	7.32	13.56
26/01/2020 05:14:50	26012020	260120	051450	53.270	12.599650	-57.393525	53.090	-0.040	0.110	0.840	53.230	-1.100	1.300																			1580015690.0	7.22	13.37
26/01/2020 05:14:51	26012020	260120	051451	53.150	12.599670	-57.393497	53.170	0.170	-0.370	0.500	53.150	-1.500	1.100																			1580015691.0	7.44	13.78
26/01/2020 05:14:52	26012020	260120	051452	53.250	12.599695	-57.393468	53.480	0.240	-0.620	0.040	53.250	-1.700	0.900																			1580015692.0	7.92	14.67
26/01/2020 05:14:53	26012020	260120	051453	53.550	12.599720	-57.393440	53.670	0.060	-0.180	-0.200	53.610	-1.900	0.200																			1580015693.0	8.08	14.96
26/01/2020 05:14:54	26012020	260120	051454	53.750	12.599743	-57.393413	53.610	-0.280	0.520	-0.050	53.750	-1.600	0.200																			1580015694.0	7.49	13.87
26/01/2020 05:14:55	26012020	260120	051455	53.680	12.599762	-57.393387	53.510	-0.490	0.550	0.110	53.660	-0.800	0.400																			1580015695.0	6.69	12.39
26/01/2020 05:14:56	26012020	260120	051456	53.580	12.599778	-57.393360	53.550	-0.320	-0.250	-0.020	53.580	-1.200	0.400																			1580015696.0	6.73	12.46
26/01/2020 05:14:57	26012020	260120	051457	53.620	12.599800	-57.393332	53.610	0.130	-1.030	-0.230	53.640	-2.100	0.200																			1580015697.0	7.61	14.09
26/01/2020 05:14:58	26012020	260120	051458	53.690	12.599827	-57.393303	53.580	0.480	-1.090	-0.290	53.700	-2.500	0.100																			1580015698.0	8.35	15.46
26/01/2020 05:14:59	26012020	260120	051459	53.670	12.599850	-57.393273	53.510	0.520	-0.660	-0.170	53.660	-2.300	0.100																			1580015699.0	8.03	14.87
26/01/2020 05:15:00	26012020	260120	051500	53.600	12.599872	-57.393247	53.510	0.320	-0.140	0.010	53.590	-1.800	0.300	1014.60	25.70	25.80	21.50	21.50	0.00	77.00	77.00	434.00	25.50	16.00	8.90	82.00	5.20	15	3152.00	27.50	27.40	1580015700.0	7.38	13.67
26/01/2020 05:15:01	26012020	260120	051501	53.600	12.599892	-57.393220	53.670	0.010	0.340	0.150	53.610	-1.300	0.500																			1580015701.0	7.19	13.32
26/01/2020 05:15:02	26012020	260120	051502	53.750	12.599912	-57.393192	53.920	-0.290	0.610	0.190	53.810	-0.900	0.600																			1580015702.0	7.18	13.30
26/01/2020 05:15:03	26012020	260120	051503	54.010	12.599932	-57.393163	54.010	-0.470	0.580	0.320	54.050	-0.800	0.600																			1580015703.0	7.19	13.32
26/01/2020 05:15:04	26012020	260120	051504	54.090	12.599950	-57.393135	53.850	-0.470	0.230	0.540	54.060	-1.000	0.800																			1580015704.0	7.33	13.58
26/01/2020 05:15:05	26012020	260120	051505	53.910	12.599970	-57.393107	53.680	-0.240	-0.420	0.520	53.870	-1.500	0.900																			1580015705.0	7.50	13.89
26/01/2020 05:15:06	26012020	260120	051506	53.750	12.599992	-57.393077	53.650	0.180	-0.950	0.160	53.750	-1.700	0.900																			1580015706.0	7.76	14.37
26/01/2020 05:15:07	26012020	260120	051507	53.730	12.600015	-57.393048	53.720	0.520	-0.900	-0.250	53.750	-2.400	0.300																			1580015707.0	8.01	14.83
26/01/2020 05:15:08	26012020	260120	051508	53.810	12.600040	-57.393020	53.790	0.510	-0.380	-0.530	53.810	-2.300	0.200																			1580015708.0	7.78	14.41
26/01/2020 05:15:09	26012020	260120	051509	53.900	12.600062	-57.392995	53.780	0.170	0.130	-0.540	53.900	-1.500	-0.200																			1580015709.0	7.23	13.39
26/01/2020 05:15:10	26012020	260120	051510	53.880	12.600083	-57.392970	53.650	-0.250	0.350	-0.370	53.860	-1.100	-0.100																			1580015710.0	6.98	12.93
26/01/2020 05:15:11	26012020	260120	051511	53.760	12.600103	-57.392943	53.480	-0.440	0.230	-0.090	53.720	-1.100	0.100																			1580015711.0	7.12	13.19
26/01/2020 05:15:12	26012020	260120	051512	53.590	12.600123	-57.392915	53.400	-0.290	-0.200	0.270	53.550	-1.400	0.500																			1580015712.0	7.38	13.67
26/01/2020 05:15:13	26012020	260120	051513	53.480	12.600143	-57.392885	53.430	0.010	-0.680	0.530	53.470	-1.900	0.800																			1580015713.0	7.70	14.26
26/01/2020 05:15:14	26012020	260120	051514	53.490	12.600163	-57.392853	53.510	0.170	-0.710	0.550	53.500	-2.200	0.900																			1580015714.0	8.03	14.87
26/01/2020 05:15:15	26012020	260120	051515	53.560	12.600185	-57.392822	53.560	0.090	-0.200	0.540	53.580	-1.900	0.900																			1580015715.0	7.91	14.65
26/01/2020 05:15:16	26012020	260120	051516	53.600	12.600205	-57.392793	53.480	-0.030	0.340	0.520	53.590	-1.300	0.900																			1580015716.0	7.31	13.54
26/01/2020 05:15:17	26012020	260120	051517	53.520	12.600223	-57.392768	53.340	-0.030	0.360	0.310	53.490	-1.000	0.800																			1580015717.0	6.87	12.72
26/01/2020 05:15:18	26012020	260120	051518	53.400	12.600245	-57.392742	53.310	0.110	-0.110	-0.030	53.400	-1.000	0.700																			1580015718.0	7.10	13.15
26/01/2020 05:15:19	26012020	260120	051519	53.390	12.600270	-57.392715	53.330	0.230	-0.540	-0.240	53.390	-1.800	0.200																			1580015719.0	7.73	14.32
26/01/2020 05:15:20	26012020	260120	051520	53.430	12.600295	-57.392687	53.350	0.200	-0.510	-0.230	53.430	-1.900	0.100																			1580015720.0	8.08	14.96
26/01/2020 05:15:21	26012020	260120	051521	53.440	12.600318	-57.392658	53.390	-0.030	-0.080	-0.060	53.440	-1.700	0.200																			1580015721.0	7.79	14.43
26/01/2020 05:15:22	26012020	260120	051522	53.470	12.600338	-57.392632	53.460	-0.310	0.230	0.170	53.480	-1.300	0.400																			1580015722.0	7.21	13.35
26/01/2020 05:15:23	26012020	260120	051523	53.530	12.600357	-57.392603	53.500	-0.440	0.060	0.360	53.540	-1.200	0.600																			1580015723.0	6.94	12.85
26/01/2020 05:15:24	26012020	260120	051524	53.570	12.600375	-57.392575	53.490	-0.320	-0.350	0.490	53.580	-1.600	0.800																			1580015724.0	7.26	13.45
26/01/2020 05:15:25	26012020	260120	051525	53.560	12.600395	-57.392545	53.410	-0.050	-0.550	0.570	53.550	-1.900	0.900																			1580015725.0	7.78	14.41
26/01/2020 05:15:26	26012020	260120	051526	53.480	12.600417	-57.392515	53.300	0.260	-0.470	0.550	53.460	-1.900	1.000																			1580015726.0	7.84	14.52
26/01/2020 05:15:27	26012020	260120	051527	53.370	12.600438	-57.392487	53.270	0.460	-0.300	0.410	53.360	-1.800	0.900																			1580015727.0	7.57	14.02
26/01/2020 05:15:28	26012020	260120	051528	53.350	12.600458	-57.392458	53.350	0.450	-0.130	0.110	53.360	-1.600	0.600																			1580015728.0	7.39	13.69
26/01/2020 05:15:29	26012020	260120	051529	53.440	12.600480	-57.392432	53.410	0.210	0.120	-0.240	53.470	-1.400	0.300																			1580015729.0	7.42	13.74
26/01/2020 05:15:30	26012020	260120	051530	53.510	12.600503	-57.392405	53.320	-0.130	0.390	-0.390	53.510	-1.100	0.000																			1580015730.0	7.41	13.72
26/01/2020 05:15:31	26012020	260120	051531	53.430	12.600527	-57.392380	53.210	-0.360	0.280	-0.360	53.390	-1.000	0.000																			1580015731.0	7.23	13.39
26/01/2020 05:15:32	26012020	260120	051532	53.310	12.600548	-57.392353	53.260	-0.320	-0.320	-0.300	53.300	-1.400	0.100																			1580015732.0	7.22	13.37
26/01/2020 05:15:33	26012020	260120	051533	53.360	12.600570	-57.392325	53.390	-0.140	-0.830	-0.140	53.380	-2.100	0.100																			1580015733.0	7.70	14.26
26/01/2020 05:15:34	26012020	260120	051534	53.470	12.600592	-57.392295	53.300	-0.060	-0.730	0.300	53.470	-2.300	0.400																			1580015734.0	8.10	15.00
26/01/2020 05:15:35	26012020	260120	051535	53.380	12.600612	-57.392263	53.070	-0.100	-0.190	0.870	53.330	-1.800	1.000																			1580015735.0	7.81	14.46
26/01/2020 05:15:36	26012020	260120	051536	53.120	12.600630	-57.392233	52.970	-0.100	0.190	1.090	53.080	-1.300	1.400																			1580015736.0	7.21	13.35
26/01/2020 05:15:37	26012020	260120	051537	53.010	12.600647	-57.392207	53.110	0.040	0.060	0.780	53.030	-1.200	1.300																			1580015737.0	6.96	12.89
26/01/2020 05:15:38	26012020	260120	051538	53.160	12.600667	-57.392178	53.310	0.240	-0.210	0.210	53.210	-1.500	0.900																			1580015738.0	7.33	13.58
26/01/2020 05:15:39	26012020	260120	051539	53.370	12.600692	-57.392150	53.320	0.270	-0.150	-0.290	53.400	-1.600	0.300																			1580015739.0	7.84	14.52
26/01/2020 05:15:40	26012020	260120	051540	53.410	12.600717	-57.392123	53.110	0.110	0.100	-0.470	53.390	-1.400	-0.000																			1580015740.0	7.77	14.39
26/01/2020 05:15:41	26012020	260120	051541	53.220	12.600740	-57.392098	52.930	-0.020	0.010	-0.420	53.180	-1.300	-0.100																			1580015741.0	7.26	13.45
26/01/2020 05:15:42	26012020	260120	051542	53.040	12.600762	-57.392073	52.970	-0.000	-0.440	-0.430	53.040	-1.400	-0.000																			1580015742.0	7.22	13.37
26/01/2020 05:15:43	26012020	260120	051543	53.080	12.600783	-57.392045	53.110	0.030	-0.680	-0.330	53.110	-2.000	-0.000																			1580015743.0	7.71	14.28
26/01/2020 05:15:44	26012020	260120	051544	53.240	12.600807	-57.392015	53.160	-0.080	-0.350	0.100	53.240	-2.100	0.000																			1580015744.0	7.96	14.74
26/01/2020 05:15:45	26012020	260120	051545	53.280	12.600827	-57.391985	53.120	-0.270	0.110	0.580	53.270	-1.500	0.700																			1580015745.0	7.50	13.89
26/01/2020 05:15:46	26012020	260120	051546	53.210	12.600843	-57.391957	53.040	-0.330	0.180	0.910	53.190	-1.200	1.200																			1580015746.0	7.02	13.00
26/01/2020 05:15:47	26012020	260120	051547	53.110	12.600862	-57.391928	53.030	-0.180	-0.110	0.930	53.100	-1.400	1.300																			1580015747.0	7.16	13.26
26/01/2020 05:15:48	26012020	260120	051548	53.090	12.600882	-57.391898	53.010	0.140	-0.410	0.680	53.090	-1.700	1.200																			1580015748.0	7.61	14.09
26/01/2020 05:15:49	26012020	260120	051549	53.090	12.600905	-57.391870	52.960	0.440	-0.480	0.330	53.090	-1.900	0.900																			1580015749.0	7.84	14.52
26/01/2020 05:15:50	26012020	260120	051550	53.040	12.600928	-57.391842	52.910	0.470	-0.290	-0.020	53.030	-1.800	0.500																			1580015750.0	7.77	14.39
26/01/2020 05:15:51	26012020	260120	051551	53.000	12.600952	-57.391815	52.960	0.120	0.040	-0.370	53.000	-1.500	0.200																			1580015751.0	7.58	14.04
26/01/2020 05:15:52	26012020	260120	051552	53.050	12.600975	-57.391790	53.060	-0.340	0.370	-0.590	53.080	-1.200	-0.100																			1580015752.0	7.33	13.58
26/01/2020 05:15:53	26012020	260120	051553	53.170	12.600997	-57.391765	53.100	-0.540	0.430	-0.490	53.190	-1.000	-0.200																			1580015753.0	7.12	13.19
26/01/2020 05:15:54	26012020	260120	051554	53.210	12.601018	-57.391740	53.040	-0.390	0.030	-0.160	53.200	-1.100	0.100																			1580015754.0	7.09	13.13
26/01/2020 05:15:55	26012020	260120	051555	53.140	12.601038	-57.391712	52.960	-0.050	-0.700	0.200	53.110	-1.800	0.400																			1580015755.0	7.40	13.70
26/01/2020 05:15:56	26012020	260120	051556	53.050	12.601058	-57.391680	52.950	0.290	-1.240	0.410	53.050	-2.000	0.500																			1580015756.0	7.92	14.67
26/01/2020 05:15:57	26012020	260120	051557	53.030	12.601080	-57.391647	52.960	0.440	-1.000	0.480	53.030	-2.600	0.800																			1580015757.0	8.20	15.19
26/01/2020 05:15:58	26012020	260120	051558	53.050	12.601102	-57.391617	52.930	0.350	-0.110	0.500	53.050	-1.900	0.900																			1580015758.0	7.85	14.54
26/01/2020 05:15:59	26012020	260120	051559	53.020	12.601122	-57.391590	52.850	0.080	0.710	0.520	53.010	-1.000	0.900																			1580015759.0	7.07	13.09
26/01/2020 05:16:00	26012020	260120	051600	52.940	12.601140	-57.391567	52.830	-0.160	0.770	0.400	52.930	-0.500	0.900	1014.70	25.70	25.80	21.30	21.30	0.00	76.00	76.00	434.00	25.50	12.00	9.30	73.00	5.50	15	3214.00	27.50	27.40	1580015760.0	6.63	12.28
26/01/2020 05:16:01	26012020	260120	051601	52.930	12.601162	-57.391542	52.950	-0.200	0.100	0.040	52.940	-0.900	0.600																			1580015761.0	6.97	12.91
26/01/2020 05:16:02	26012020	260120	051602	53.040	12.601185	-57.391513	53.000	-0.160	-0.460	-0.190	53.070	-1.700	0.300																			1580015762.0	7.79	14.43
26/01/2020 05:16:03	26012020	260120	051603	53.100	12.601210	-57.391483	52.850	-0.200	-0.430	-0.120	53.090	-1.900	0.200																			1580015763.0	8.20	15.19
26/01/2020 05:16:04	26012020	260120	051604	52.970	12.601232	-57.391455	52.680	-0.280	-0.180	-0.040	52.930	-1.700	0.300																			1580015764.0	7.71	14.28
26/01/2020 05:16:05	26012020	260120	051605	52.800	12.601252	-57.391428	52.640	-0.200	-0.250	-0.080	52.780	-1.600	0.300																			1580015765.0	7.07	13.09
26/01/2020 05:16:06	26012020	260120	051606	52.750	12.601272	-57.391402	52.710	0.080	-0.580	-0.140	52.760	-1.800	0.300																			1580015766.0	7.15	13.24
26/01/2020 05:16:07	26012020	260120	051607	52.830	12.601295	-57.391373	52.830	0.320	-0.610	-0.120	52.860	-2.100	0.200																			1580015767.0	7.68	14.22
26/01/2020 05:16:08	26012020	260120	051608	52.940	12.601317	-57.391343	52.820	0.240	-0.050	0.090	52.940	-2.000	0.200																			1580015768.0	7.87	14.58
26/01/2020 05:16:09	26012020	260120	051609	52.920	12.601337	-57.391315	52.650	-0.080	0.490	0.410	52.890	-1.100	0.600																			1580015769.0	7.35	13.61
26/01/2020 05:16:10	26012020	260120	051610	52.740	12.601355	-57.391290	52.570	-0.230	0.310	0.550	52.740	-0.900	0.800																			1580015770.0	6.78	12.56
26/01/2020 05:16:11	26012020	260120	051611	52.650	12.601375	-57.391262	52.670	0.040	-0.470	0.360	52.660	-1.500	0.900																			1580015771.0	7.06	13.08
26/01/2020 05:16:12	26012020	260120	051612	52.750	12.601398	-57.391233	52.770	0.450	-0.940	0.150	52.780	-2.200	0.600																			1580015772.0	7.93	14.69
26/01/2020 05:16:13	26012020	260120	051613	52.870	12.601423	-57.391203	52.750	0.500	-0.500	0.190	52.880	-2.200	0.500																			1580015773.0	8.34	15.45
26/01/2020 05:16:14	26012020	260120	051614	52.840	12.601447	-57.391175	52.620	0.060	0.340	0.360	52.820	-1.400	0.700																			1580015774.0	7.71	14.28
26/01/2020 05:16:15	26012020	260120	051615	52.710	12.601465	-57.391150	52.570	-0.490	0.700	0.400	52.690	-0.800	0.800																			1580015775.0	6.75	12.50
26/01/2020 05:16:16	26012020	260120	051616	52.650	12.601483	-57.391125	52.730	-0.680	0.280	0.150	52.670	-0.900	0.700																			1580015776.0	6.60	12.22
26/01/2020 05:16:17	26012020	260120	051617	52.820	12.601505	-57.391098	52.890	-0.450	-0.360	-0.080	52.870	-1.500	0.400																			1580015777.0	7.28	13.48
26/01/2020 05:16:18	26012020	260120	051618	52.990	12.601530	-57.391070	52.800	-0.080	-0.670	0.030	52.990	-2.000	0.300																			1580015778.0	7.91	14.65
26/01/2020 05:16:19	26012020	260120	051619	52.920	12.601552	-57.391040	52.660	0.220	-0.720	0.260	52.880	-2.100	0.500																			1580015779.0	7.85	14.54
26/01/2020 05:16:20	26012020	260120	051620	52.750	12.601572	-57.391012	52.610	0.370	-0.690	0.290	52.730	-2.100	0.700																			1580015780.0	7.53	13.95
26/01/2020 05:16:21	26012020	260120	051621	52.690	12.601593	-57.390983	52.660	0.410	-0.440	0.110	52.690	-2.000	0.600																			1580015781.0	7.47	13.83
26/01/2020 05:16:22	26012020	260120	051622	52.750	12.601615	-57.390955	52.780	0.300	0.080	-0.130	52.770	-1.600	0.400																			1580015782.0	7.51	13.91
26/01/2020 05:16:23	26012020	260120	051623	52.870	12.601638	-57.390930	52.860	0.040	0.550	-0.270	52.890	-1.000	0.200																			1580015783.0	7.28	13.48
26/01/2020 05:16:24	26012020	260120	051624	52.950	12.601660	-57.390905	52.870	-0.200	0.540	-0.250	52.960	-0.800	0.100																			1580015784.0	7.01	12.98
26/01/2020 05:16:25	26012020	260120	051625	52.980	12.601680	-57.390880	52.950	-0.240	0.030	-0.170	52.980	-1.100	0.200																			1580015785.0	7.13	13.20
26/01/2020 05:16:26	26012020	260120	051626	53.040	12.601702	-57.390850	53.000	-0.110	-0.520	-0.020	53.060	-1.700	0.300																			1580015786.0	7.59	14.06
26/01/2020 05:16:27	26012020	260120	051627	53.100	12.601723	-57.390820	52.910	-0.030	-0.590	0.260	53.090	-2.000	0.500																			1580015787.0	7.97	14.76
26/01/2020 05:16:28	26012020	260120	051628	53.010	12.601745	-57.390790	52.740	-0.070	-0.280	0.540	52.980	-1.800	0.800																			1580015788.0	7.76	14.37
26/01/2020 05:16:29	26012020	260120	051629	52.830	12.601763	-57.390762	52.680	-0.100	-0.100	0.550	52.810	-1.500	1.000																			1580015789.0	7.18	13.30
26/01/2020 05:16:30	26012020	260120	051630	52.760	12.601785	-57.390737	52.810	0.010	-0.260	0.300	52.780	-1.500	0.800																			1580015790.0	6.99	12.95
26/01/2020 05:16:31	26012020	260120	051631	52.890	12.601807	-57.390710	52.950	0.180	-0.460	0.060	52.930	-1.800	0.500																			1580015791.0	7.36	13.63
26/01/2020 05:16:32	26012020	260120	051632	53.040	12.601830	-57.390682	52.930	0.170	-0.340	0.030	53.060	-1.800	0.400																			1580015792.0	7.77	14.39
26/01/2020 05:16:33	26012020	260120	051633	53.040	12.601852	-57.390653	52.810	0.010	-0.020	0.120	53.010	-1.600	0.500																			1580015793.0	7.66	14.19
26/01/2020 05:16:34	26012020	260120	051634	52.910	12.601872	-57.390627	52.730	-0.130	0.210	0.120	52.910	-1.400	0.500																			1580015794.0	7.28	13.48
26/01/2020 05:16:35	26012020	260120	051635	52.830	12.601892	-57.390598	52.790	-0.110	0.200	-0.040	52.840	-1.200	0.400																			1580015795.0	7.16	13.26
26/01/2020 05:16:36	26012020	260120	051636	52.890	12.601913	-57.390572	52.880	0.060	-0.010	-0.250	52.910	-1.300	0.200																			1580015796.0	7.29	13.50
26/01/2020 05:16:37	26012020	260120	051637	52.990	12.601935	-57.390545	52.940	0.240	-0.320	-0.360	53.000	-1.600	0.000																			1580015797.0	7.48	13.85
26/01/2020 05:16:38	26012020	260120	051638	53.040	12.601958	-57.390517	52.870	0.280	-0.550	-0.210	53.040	-1.900	0.100																			1580015798.0	7.64	14.15
26/01/2020 05:16:39	26012020	260120	051639	52.970	12.601982	-57.390490	52.740	0.110	-0.490	0.060	52.940	-1.900	0.300																			1580015799.0	7.69	14.24
26/01/2020 05:16:40	26012020	260120	051640	52.830	12.602003	-57.390460	52.680	-0.130	-0.260	0.300	52.800	-1.800	0.600																			1580015800.0	7.54	13.96
26/01/2020 05:16:41	26012020	260120	051641	52.760	12.602023	-57.390433	52.790	-0.240	-0.090	0.480	52.770	-1.600	0.800																			1580015801.0	7.28	13.48
26/01/2020 05:16:42	26012020	260120	051642	52.860	12.602043	-57.390405	52.930	-0.240	0.100	0.600	52.890	-1.400	0.900																			1580015802.0	7.28	13.48
26/01/2020 05:16:43	26012020	260120	051643	53.010	12.602063	-57.390377	52.990	-0.260	0.250	0.610	53.030	-1.200	1.000																			1580015803.0	7.34	13.59
26/01/2020 05:16:44	26012020	260120	051644	53.080	12.602082	-57.390348	52.960	-0.270	0.150	0.510	53.080	-1.200	0.900																			1580015804.0	7.25	13.43
26/01/2020 05:16:45	26012020	260120	051645	53.050	12.602102	-57.390322	52.880	-0.070	-0.310	0.310	53.040	-1.500	0.800																			1580015805.0	7.25	13.43
26/01/2020 05:16:46	26012020	260120	051646	52.980	12.602125	-57.390293	52.830	0.380	-0.810	0.040	52.980	-1.600	0.700																			1580015806.0	7.57	14.02
26/01/2020 05:16:47	26012020	260120	051647	52.930	12.602150	-57.390265	52.800	0.780	-0.910	-0.230	52.930	-2.300	0.300																			1580015807.0	7.97	14.76
26/01/2020 05:16:48	26012020	260120	051648	52.920	12.602173	-57.390238	52.780	0.770	-0.420	-0.330	52.920	-2.100	0.100																			1580015808.0	7.96	14.74
26/01/2020 05:16:49	26012020	260120	051649	52.880	12.602197	-57.390210	52.820	0.290	0.260	-0.320	52.880	-1.400	0.100																			1580015809.0	7.47	13.83
26/01/2020 05:16:50	26012020	260120	051650	52.920	12.602217	-57.390185	53.010	-0.370	0.650	-0.370	52.950	-0.900	0.000																			1580015810.0	6.95	12.87
26/01/2020 05:16:51	26012020	260120	051651	53.110	12.602237	-57.390160	53.120	-0.780	0.550	-0.240	53.150	-0.800	0.000																			1580015811.0	6.87	12.72
26/01/2020 05:16:52	26012020	260120	051652	53.220	12.602258	-57.390133	53.090	-0.760	0.100	0.140	53.220	-1.100	0.300																			1580015812.0	7.20	13.33
26/01/2020 05:16:53	26012020	260120	051653	53.170	12.602278	-57.390103	53.040	-0.390	-0.470	0.530	53.160	-1.600	0.700																			1580015813.0	7.56	14.00
26/01/2020 05:16:54	26012020	260120	051654	53.110	12.602298	-57.390073	53.040	0.030	-0.830	0.740	53.110	-2.100	1.000																			1580015814.0	7.82	14.48
26/01/2020 05:16:55	26012020	260120	051655	53.100	12.602318	-57.390042	53.020	0.310	-0.800	0.770	53.090	-2.300	1.100																			1580015815.0	7.83	14.50
26/01/2020 05:16:56	26012020	260120	051656	53.060	12.602338	-57.390013	52.960	0.420	-0.430	0.640	53.050	-2.000	1.100																			1580015816.0	7.57	14.02
26/01/2020 05:16:57	26012020	260120	051657	53.020	12.602360	-57.389987	52.970	0.400	-0.070	0.360	53.020	-1.600	0.900																			1580015817.0	7.25	13.43
26/01/2020 05:16:58	26012020	260120	051658	53.040	12.602382	-57.389960	53.000	0.280	0.030	-0.020	53.040	-1.500	0.800																			1580015818.0	7.12	13.19
26/01/2020 05:16:59	26012020	260120	051659	53.090	12.602403	-57.389935	53.010	0.130	-0.040	-0.390	53.100	-1.400	0.100																			1580015819.0	7.31	13.54
26/01/2020 05:17:00	26012020	260120	051700	53.120	12.602428	-57.389908	52.990	-0.030	-0.030	-0.540	53.120	-1.400	-0.100	1014.60	25.80	25.80	21.20	21.30	0.00	75.00	75.00	434.00	25.50	12.00	9.40	73.00	5.70	15	3336.00	27.40	27.40	1580015820.0	7.63	14.13
26/01/2020 05:17:01	26012020	260120	051701	53.110	12.602452	-57.389880	52.960	-0.150	-0.010	-0.480	53.100	-1.400	-0.100																			1580015821.0	7.64	14.15
26/01/2020 05:17:02	26012020	260120	051702	53.060	12.602473	-57.389853	52.890	-0.150	-0.040	-0.320	53.050	-1.400	-0.000																			1580015822.0	7.47	13.83
26/01/2020 05:17:03	26012020	260120	051703	52.990	12.602495	-57.389825	52.880	-0.110	-0.000	-0.110	52.980	-1.400	0.200																			1580015823.0	7.48	13.85
26/01/2020 05:17:04	26012020	260120	051704	52.980	12.602515	-57.389797	53.010	-0.170	0.050	0.160	53.000	-1.400	0.400																			1580015824.0	7.46	13.82
26/01/2020 05:17:05	26012020	260120	051705	53.110	12.602535	-57.389768	53.210	-0.300	-0.070	0.400	53.150	-1.400	0.700																			1580015825.0	7.30	13.52
26/01/2020 05:17:06	26012020	260120	051706	53.310	12.602553	-57.389740	53.300	-0.290	-0.390	0.500	53.340	-1.600	0.800																			1580015826.0	7.27	13.46
26/01/2020 05:17:07	26012020	260120	051707	53.400	12.602573	-57.389710	53.200	0.010	-0.600	0.640	53.390	-1.900	0.900																			1580015827.0	7.48	13.85
26/01/2020 05:17:08	26012020	260120	051708	53.290	12.602595	-57.389682	52.970	0.400	-0.590	0.830	53.250	-2.000	1.100																			1580015828.0	7.66	14.19
26/01/2020 05:17:09	26012020	260120	051709	53.060	12.602615	-57.389652	52.830	0.530	-0.490	0.740	53.020	-1.900	1.200																			1580015829.0	7.58	14.04
26/01/2020 05:17:10	26012020	260120	051710	52.930	12.602637	-57.389625	52.900	0.310	-0.290	0.240	52.930	-1.800	0.900																			1580015830.0	7.50	13.89
26/01/2020 05:17:11	26012020	260120	051711	52.990	12.602660	-57.389598	53.040	-0.020	0.110	-0.250	53.010	-1.500	0.300																			1580015831.0	7.49	13.87
26/01/2020 05:17:12	26012020	260120	051712	53.130	12.602683	-57.389573	53.180	-0.250	0.440	-0.520	53.160	-1.100	-0.000																			1580015832.0	7.36	13.63
26/01/2020 05:17:13	26012020	260120	051713	53.270	12.602707	-57.389548	53.230	-0.300	0.360	-0.580	53.290	-1.000	-0.200																			1580015833.0	7.14	13.22
26/01/2020 05:17:14	26012020	260120	051714	53.320	12.602728	-57.389522	53.170	-0.170	-0.120	-0.550	53.320	-1.300	-0.200																			1580015834.0	7.29	13.50
26/01/2020 05:17:15	26012020	260120	051715	53.270	12.602750	-57.389493	53.060	0.050	-0.530	-0.380	53.250	-1.800	-0.100																			1580015835.0	7.71	14.28
26/01/2020 05:17:16	26012020	260120	051716	53.160	12.602772	-57.389462	53.000	0.150	-0.510	-0.120	53.140	-2.000	0.100																			1580015836.0	7.95	14.72
26/01/2020 05:17:17	26012020	260120	051717	53.100	12.602792	-57.389432	53.040	0.020	-0.140	0.080	53.100	-1.700	0.400																			1580015837.0	7.69	14.24
26/01/2020 05:17:18	26012020	260120	051718	53.140	12.602812	-57.389405	53.160	-0.170	0.100	0.160	53.150	-1.400	0.500																			1580015838.0	7.17	13.28
26/01/2020 05:17:19	26012020	260120	051719	53.260	12.602832	-57.389378	53.310	-0.150	-0.060	0.190	53.280	-1.300	0.600																			1580015839.0	6.91	12.80
26/01/2020 05:17:20	26012020	260120	051720	53.390	12.602852	-57.389352	53.360	0.080	-0.420	0.330	53.410	-1.700	0.600																			1580015840.0	7.25	13.43
26/01/2020 05:17:21	26012020	260120	051721	53.440	12.602873	-57.389323	53.300	0.220	-0.530	0.550	53.430	-1.900	0.800																			1580015841.0	7.72	14.30
26/01/2020 05:17:22	26012020	260120	051722	53.370	12.602895	-57.389293	53.160	0.110	-0.250	0.670	53.350	-1.800	1.000																			1580015842.0	7.81	14.46
26/01/2020 05:17:23	26012020	260120	051723	53.230	12.602915	-57.389263	52.910	-0.110	0.130	0.710	53.190	-1.400	1.100																			1580015843.0	7.46	13.82
26/01/2020 05:17:24	26012020	260120	051724	52.990	12.602935	-57.389238	52.700	-0.200	0.140	0.550	52.990	-1.300	1.100																			1580015844.0	7.07	13.09
26/01/2020 05:17:25	26012020	260120	051725	52.790	12.602957	-57.389212	52.750	-0.010	-0.310	0.050	52.780	-1.500	0.700																			1580015845.0	7.13	13.20
26/01/2020 05:17:26	26012020	260120	051726	52.870	12.602980	-57.389183	52.980	0.230	-0.640	-0.420	52.910	-2.000	0.100																			1580015846.0	7.69	14.24
26/01/2020 05:17:27	26012020	260120	051727	53.090	12.603005	-57.389155	53.130	0.210	-0.430	-0.650	53.130	-2.000	-0.200																			1580015847.0	8.06	14.93
26/01/2020 05:17:28	26012020	260120	051728	53.240	12.603027	-57.389127	53.070	-0.020	0.090	-0.650	53.250	-1.600	-0.300																			1580015848.0	7.69	14.24
26/01/2020 05:17:29	26012020	260120	051729	53.180	12.603048	-57.389102	52.880	-0.180	0.440	-0.420	53.150	-1.100	-0.200																			1580015849.0	7.08	13.11
26/01/2020 05:17:30	26012020	260120	051730	52.990	12.603068	-57.389075	52.770	-0.140	0.310	-0.130	52.960	-1.000	0.100																			1580015850.0	6.90	12.78
26/01/2020 05:17:31	26012020	260120	051731	52.860	12.603088	-57.389048	52.760	-0.010	-0.220	-0.010	52.850	-1.400	0.300																			1580015851.0	7.22	13.37
26/01/2020 05:17:32	26012020	260120	051732	52.870	12.603110	-57.389020	52.860	0.040	-0.600	0.010	52.880	-1.900	0.400																			1580015852.0	7.72	14.30
26/01/2020 05:17:33	26012020	260120	051733	52.970	12.603133	-57.388990	52.970	-0.010	-0.520	0.200	52.990	-2.000	0.500																			1580015853.0	7.92	14.67
26/01/2020 05:17:34	26012020	260120	051734	53.060	12.603155	-57.388962	52.990	-0.070	-0.280	0.580	53.080	-1.800	0.800																			1580015854.0	7.53	13.95
26/01/2020 05:17:35	26012020	260120	051735	53.080	12.603173	-57.388935	52.940	-0.010	-0.250	0.930	53.070	-1.600	1.200																			1580015855.0	7.14	13.22
26/01/2020 05:17:36	26012020	260120	051736	53.000	12.603192	-57.388905	52.870	0.110	-0.300	1.060	52.990	-1.700	1.400																			1580015856.0	7.28	13.48
26/01/2020 05:17:37	26012020	260120	051737	52.930	12.603212	-57.388877	52.840	0.110	-0.200	0.920	52.920	-1.700	1.400																			1580015857.0	7.59	14.06
26/01/2020 05:17:38	26012020	260120	051738	52.910	12.603233	-57.388847	52.810	-0.020	0.050	0.570	52.900	-1.500	1.100																			1580015858.0	7.59	14.06
26/01/2020 05:17:39	26012020	260120	051739	52.890	12.603255	-57.388822	52.840	-0.140	0.260	0.160	52.890	-1.200	0.700																			1580015859.0	7.35	13.61
26/01/2020 05:17:40	26012020	260120	051740	52.930	12.603278	-57.388795	52.920	-0.140	0.190	-0.260	52.940	-1.100	0.300																			1580015860.0	7.20	13.33
26/01/2020 05:17:41	26012020	260120	051741	53.010	12.603302	-57.388770	52.980	-0.030	-0.200	-0.660	53.040	-1.400	-0.100																			1580015861.0	7.28	13.48
26/01/2020 05:17:42	26012020	260120	051742	53.100	12.603323	-57.388743	52.980	0.120	-0.580	-0.910	53.100	-1.900	-0.400																			1580015862.0	7.59	14.06
26/01/2020 05:17:43	26012020	260120	051743	53.110	12.603348	-57.388715	52.920	0.190	-0.570	-0.870	53.100	-2.000	-0.500																			1580015863.0	7.87	14.58
26/01/2020 05:17:44	26012020	260120	051744	53.030	12.603372	-57.388687	52.880	0.130	-0.250	-0.610	53.010	-1.800	-0.400																			1580015864.0	7.70	14.26
26/01/2020 05:17:45	26012020	260120	051745	52.990	12.603392	-57.388660	52.990	0.020	0.010	-0.290	53.000	-1.500	-0.100																			1580015865.0	7.24	13.41
26/01/2020 05:17:46	26012020	260120	051746	53.090	12.603412	-57.388633	53.130	-0.070	0.040	0.100	53.120	-1.400	0.300																			1580015866.0	7.08	13.11
26/01/2020 05:17:47	26012020	260120	051747	53.230	12.603432	-57.388605	53.160	-0.120	-0.100	0.560	53.250	-1.400	0.700																			1580015867.0	7.27	13.46
26/01/2020 05:17:48	26012020	260120	051748	53.250	12.603450	-57.388575	53.080	-0.140	-0.210	1.020	53.230	-1.600	1.200																			1580015868.0	7.53	13.95
26/01/2020 05:17:49	26012020	260120	051749	53.150	12.603470	-57.388545	52.950	-0.090	-0.310	1.370	53.110	-1.700	1.600																			1580015869.0	7.62	14.11
26/01/2020 05:17:50	26012020	260120	051750	52.990	12.603490	-57.388515	52.920	0.050	-0.430	1.360	52.990	-1.700	1.700																			1580015870.0	7.57	14.02
26/01/2020 05:17:51	26012020	260120	051751	52.950	12.603510	-57.388485	52.990	0.200	-0.450	0.900	52.960	-1.900	1.500																			1580015871.0	7.60	14.08
26/01/2020 05:17:52	26012020	260120	051752	53.040	12.603532	-57.388457	53.050	0.220	-0.150	0.270	53.050	-1.700	0.900																			1580015872.0	7.68	14.22
26/01/2020 05:17:53	26012020	260120	051753	53.110	12.603555	-57.388432	53.030	0.050	0.320	-0.260	53.120	-1.300	0.300																			1580015873.0	7.53	13.95
26/01/2020 05:17:54	26012020	260120	051754	53.110	12.603578	-57.388407	52.990	-0.190	0.510	-0.670	53.100	-0.900	-0.100																			1580015874.0	7.17	13.28
26/01/2020 05:17:55	26012020	260120	051755	53.090	12.603602	-57.388383	53.050	-0.290	0.150	-1.010	53.090	-1.000	-0.500																			1580015875.0	7.04	13.04
26/01/2020 05:17:56	26012020	260120	051756	53.160	12.603625	-57.388357	53.130	-0.190	-0.450	-1.150	53.190	-1.600	-0.700																			1580015876.0	7.38	13.67
26/01/2020 05:17:57	26012020	260120	051757	53.260	12.603648	-57.388328	53.110	-0.010	-0.780	-0.870	53.270	-2.100	-0.700																			1580015877.0	7.86	14.56
26/01/2020 05:17:58	26012020	260120	051758	53.230	12.603670	-57.388298	53.040	0.070	-0.700	-0.340	53.210	-2.200	-0.200																			1580015878.0	7.91	14.65
26/01/2020 05:17:59	26012020	260120	051759	53.150	12.603690	-57.388268	53.030	0.060	-0.360	0.200	53.140	-1.900	0.300																			1580015879.0	7.60	14.08
26/01/2020 05:18:00	26012020	260120	051800	53.120	12.603708	-57.388240	53.020	0.070	-0.000	0.620	53.120	-1.600	0.800	1014.60	25.80	25.90	21.00	21.10	0.00	74.00	75.00	434.00	25.50	13.00	9.60	75.00	5.90	15	3248.00	27.40	27.40	1580015880.0	7.28	13.48
26/01/2020 05:18:01	26012020	260120	051801	53.100	12.603727	-57.388212	52.950	0.110	0.210	0.920	53.090	-1.300	1.200																			1580015881.0	7.16	13.26
26/01/2020 05:18:02	26012020	260120	051802	53.030	12.603747	-57.388183	52.890	0.100	0.130	1.000	53.000	-1.200	1.400																			1580015882.0	7.23	13.39
26/01/2020 05:18:03	26012020	260120	051803	52.970	12.603767	-57.388155	52.970	0.040	-0.210	0.860	52.980	-1.400	1.300																			1580015883.0	7.41	13.72
26/01/2020 05:18:04	26012020	260120	051804	53.050	12.603788	-57.388127	53.080	-0.050	-0.460	0.580	53.070	-1.800	1.100																			1580015884.0	7.69	14.24
26/01/2020 05:18:05	26012020	260120	051805	53.170	12.603812	-57.388098	53.090	-0.160	-0.300	0.300	53.190	-1.800	0.800																			1580015885.0	7.87	14.58
26/01/2020 05:18:06	26012020	260120	051806	53.190	12.603835	-57.388070	53.020	-0.220	0.050	0.110	53.170	-1.500	0.600																			1580015886.0	7.60	14.08
26/01/2020 05:18:07	26012020	260120	051807	53.110	12.603857	-57.388045	53.000	-0.120	0.050	-0.080	53.100	-1.300	0.400																			1580015887.0	7.13	13.20
26/01/2020 05:18:08	26012020	260120	051808	53.100	12.603877	-57.388018	53.030	0.060	-0.250	-0.340	53.110	-1.500	0.200																			1580015888.0	7.17	13.28
26/01/2020 05:18:09	26012020	260120	051809	53.150	12.603900	-57.387990	53.040	0.190	-0.370	-0.570	53.160	-1.800	-0.100																			1580015889.0	7.68	14.22
26/01/2020 05:18:10	26012020	260120	051810	53.160	12.603923	-57.387962	52.990	0.190	-0.170	-0.580	53.150	-1.700	-0.200																			1580015890.0	7.80	14.45
26/01/2020 05:18:11	26012020	260120	051811	53.110	12.603945	-57.387935	52.960	0.050	0.070	-0.450	53.100	-1.400	-0.100																			1580015891.0	7.44	13.78
26/01/2020 05:18:12	26012020	260120	051812	53.070	12.603965	-57.387908	52.940	-0.140	0.020	-0.270	53.060	-1.300	0.000																			1580015892.0	7.13	13.20
26/01/2020 05:18:13	26012020	260120	051813	53.040	12.603987	-57.387882	52.980	-0.230	-0.300	-0.060	53.040	-1.600	0.200																			1580015893.0	7.23	13.39
26/01/2020 05:18:14	26012020	260120	051814	53.080	12.604008	-57.387853	53.100	-0.200	-0.500	0.170	53.080	-1.700	0.300																			1580015894.0	7.59	14.06
26/01/2020 05:18:15	26012020	260120	051815	53.200	12.604030	-57.387823	53.180	-0.150	-0.380	0.500	53.220	-1.900	0.700																			1580015895.0	7.78	14.41
26/01/2020 05:18:16	26012020	260120	051816	53.260	12.604050	-57.387793	53.140	-0.110	-0.140	0.920	53.250	-1.600	1.100																			1580015896.0	7.56	14.00
26/01/2020 05:18:17	26012020	260120	051817	53.200	12.604067	-57.387765	53.030	-0.030	-0.030	1.120	53.170	-1.500	1.400																			1580015897.0	7.31	13.54
26/01/2020 05:18:18	26012020	260120	051818	53.080	12.604085	-57.387735	52.950	0.160	-0.120	0.910	53.060	-1.500	1.400																			1580015898.0	7.31	13.54
26/01/2020 05:18:19	26012020	260120	051819	52.980	12.604107	-57.387707	52.880	0.400	-0.260	0.470	52.970	-1.600	1.100																			1580015899.0	7.51	13.91
26/01/2020 05:18:20	26012020	260120	051820	52.930	12.604132	-57.387680	52.850	0.510	-0.300	-0.110	52.920	-1.700	0.500																			1580015900.0	7.72	14.30
26/01/2020 05:18:21	26012020	260120	051821	52.930	12.604157	-57.387653	52.950	0.330	-0.120	-0.640	52.940	-1.600	-0.000																			1580015901.0	7.77	14.39
26/01/2020 05:18:22	26012020	260120	051822	53.040	12.604182	-57.387628	53.120	-0.050	0.150	-0.850	53.080	-1.400	-0.400																			1580015902.0	7.58	14.04
26/01/2020 05:18:23	26012020	260120	051823	53.220	12.604205	-57.387603	53.280	-0.420	0.260	-0.780	53.260	-1.200	-0.500																			1580015903.0	7.26	13.45
26/01/2020 05:18:24	26012020	260120	051824	53.380	12.604225	-57.387577	53.250	-0.540	0.050	-0.400	53.400	-1.200	-0.200																			1580015904.0	7.15	13.24
26/01/2020 05:18:25	26012020	260120	051825	53.360	12.604245	-57.387548	53.060	-0.370	-0.400	0.160	53.320	-1.600	0.300																			1580015905.0	7.37	13.65
26/01/2020 05:18:26	26012020	260120	051826	53.140	12.604263	-57.387517	52.950	-0.050	-0.760	0.530	53.140	-1.800	0.500																			1580015906.0	7.72	14.30
26/01/2020 05:18:27	26012020	260120	051827	53.030	12.604283	-57.387485	53.010	0.170	-0.620	0.690	53.030	-2.200	1.000																			1580015907.0	7.93	14.69
26/01/2020 05:18:28	26012020	260120	051828	53.090	12.604303	-57.387455	53.100	0.170	-0.140	0.740	53.090	-2.100	1.100																			1580015908.0	7.69	14.24
26/01/2020 05:18:29	26012020	260120	051829	53.190	12.604323	-57.387428	53.130	0.110	0.070	0.630	53.210	-1.400	1.100																			1580015909.0	7.13	13.20
26/01/2020 05:18:30	26012020	260120	051830	53.220	12.604343	-57.387402	53.070	0.130	-0.070	0.430	53.210	-1.400	0.900																			1580015910.0	7.07	13.09
26/01/2020 05:18:31	26012020	260120	051831	53.160	12.604367	-57.387375	53.070	0.160	-0.200	0.160	53.160	-1.600	0.700																			1580015911.0	7.57	14.02
26/01/2020 05:18:32	26012020	260120	051832	53.160	12.604390	-57.387347	53.160	0.110	-0.130	-0.090	53.170	-1.600	0.400																			1580015912.0	7.82	14.48
26/01/2020 05:18:33	26012020	260120	051833	53.260	12.604413	-57.387320	53.230	0.030	0.040	-0.190	53.270	-1.400	0.200																			1580015913.0	7.62	14.11
26/01/2020 05:18:34	26012020	260120	051834	53.330	12.604435	-57.387293	53.280	-0.080	0.050	-0.180	53.340	-1.300	0.200																			1580015914.0	7.33	13.58
26/01/2020 05:18:35	26012020	260120	051835	53.370	12.604457	-57.387265	53.320	-0.170	-0.180	-0.200	53.380	-1.500	0.200																			1580015915.0	7.31	13.54
26/01/2020 05:18:36	26012020	260120	051836	53.410	12.604477	-57.387237	53.340	-0.160	-0.420	-0.240	53.420	-1.700	0.200																			1580015916.0	7.55	13.98
26/01/2020 05:18:37	26012020	260120	051837	53.440	12.604500	-57.387208	53.330	-0.020	-0.400	-0.140	53.450	-1.800	0.200																			1580015917.0	7.76	14.37
26/01/2020 05:18:38	26012020	260120	051838	53.440	12.604522	-57.387180	53.300	0.130	-0.180	0.080	53.440	-1.800	0.200																			1580015918.0	7.65	14.17
26/01/2020 05:18:39	26012020	260120	051839	53.420	12.604542	-57.387152	53.290	0.140	0.030	0.260	53.410	-1.500	0.600																			1580015919.0	7.38	13.67
26/01/2020 05:18:40	26012020	260120	051840	53.400	12.604562	-57.387123	53.280	-0.010	0.050	0.460	53.400	-1.400	0.600																			1580015920.0	7.25	13.43
26/01/2020 05:18:41	26012020	260120	051841	53.400	12.604580	-57.387095	53.340	-0.170	-0.140	0.530	53.400	-1.400	0.900																			1580015921.0	7.32	13.56
26/01/2020 05:18:42	26012020	260120	051842	53.440	12.604602	-57.387065	53.400	-0.200	-0.310	0.430	53.450	-1.700	0.900																			1580015922.0	7.53	13.95
26/01/2020 05:18:43	26012020	260120	051843	53.490	12.604623	-57.387037	53.350	-0.080	-0.350	0.320	53.490	-1.700	0.800																			1580015923.0	7.67	14.20
26/01/2020 05:18:44	26012020	260120	051844	53.450	12.604645	-57.387008	53.280	0.090	-0.350	0.150	53.430	-1.800	0.600																			1580015924.0	7.60	14.08
26/01/2020 05:18:45	26012020	260120	051845	53.390	12.604667	-57.386980	53.310	0.230	-0.290	-0.120	53.390	-1.700	0.400																			1580015925.0	7.55	13.98
26/01/2020 05:18:46	26012020	260120	051846	53.410	12.604690	-57.386953	53.310	0.270	-0.070	-0.310	53.420	-1.600	0.200																			1580015926.0	7.56	14.00
26/01/2020 05:18:47	26012020	260120	051847	53.420	12.604712	-57.386927	53.250	0.130	0.170	-0.360	53.400	-1.300	0.000																			1580015927.0	7.46	13.82
26/01/2020 05:18:48	26012020	260120	051848	53.360	12.604733	-57.386900	53.240	-0.090	0.080	-0.310	53.350	-1.200	0.000																			1580015928.0	7.23	13.39
26/01/2020 05:18:49	26012020	260120	051849	53.360	12.604753	-57.386873	53.330	-0.200	-0.380	-0.210	53.370	-1.600	0.100																			1580015929.0	7.28	13.48
26/01/2020 05:18:50	26012020	260120	051850	53.440	12.604775	-57.386843	53.290	-0.220	-0.620	0.010	53.440	-2.000	0.300																			1580015930.0	7.77	14.39
26/01/2020 05:18:51	26012020	260120	051851	53.400	12.604798	-57.386813	53.150	-0.250	-0.260	0.360	53.370	-1.900	0.600																			1580015931.0	8.03	14.87
26/01/2020 05:18:52	26012020	260120	051852	53.240	12.604818	-57.386783	53.090	-0.270	0.230	0.630	53.210	-1.400	0.900																			1580015932.0	7.57	14.02
26/01/2020 05:18:53	26012020	260120	051853	53.160	12.604837	-57.386757	53.140	-0.110	0.240	0.620	53.170	-1.100	1.000																			1580015933.0	6.96	12.89
26/01/2020 05:18:54	26012020	260120	051854	53.230	12.604855	-57.386728	53.190	0.220	-0.200	0.450	53.250	-1.400	0.900																			1580015934.0	7.05	13.06
26/01/2020 05:18:55	26012020	260120	051855	53.280	12.604877	-57.386700	53.100	0.460	-0.570	0.230	53.270	-1.800	0.700																			1580015935.0	7.66	14.19
26/01/2020 05:18:56	26012020	260120	051856	53.190	12.604900	-57.386670	52.950	0.420	-0.540	0.020	53.160	-2.000	0.500																			1580015936.0	8.00	14.82
26/01/2020 05:18:57	26012020	260120	051857	53.030	12.604923	-57.386643	52.870	0.150	-0.190	-0.170	53.000	-1.800	0.300																			1580015937.0	7.78	14.41
26/01/2020 05:18:58	26012020	260120	051858	52.950	12.604947	-57.386617	52.930	-0.120	0.100	-0.350	52.960	-1.400	0.100																			1580015938.0	7.33	13.58
26/01/2020 05:18:59	26012020	260120	051859	53.040	12.604968	-57.386592	53.090	-0.230	0.110	-0.340	53.080	-1.300	0.000																			1580015939.0	7.12	13.19
26/01/2020 05:19:00	26012020	260120	051900	53.200	12.604990	-57.386565	53.120	-0.230	-0.040	-0.030	53.220	-1.400	0.200	1014.60	25.90	25.90	21.00	21.10	0.00	74.00	74.00	434.00	25.50	14.00	9.30	77.00	5.70	15	3182.00	27.50	27.40	1580015940.0	7.31	13.54
26/01/2020 05:19:01	26012020	260120	051901	53.220	12.605010	-57.386535	52.990	-0.200	-0.200	0.320	53.210	-1.500	0.500																			1580015941.0	7.58	14.04
26/01/2020 05:19:02	26012020	260120	051902	53.090	12.605028	-57.386505	52.820	-0.130	-0.340	0.570	53.050	-1.700	0.800																			1580015942.0	7.64	14.15
26/01/2020 05:19:03	26012020	260120	051903	52.920	12.605048	-57.386475	52.640	-0.000	-0.360	0.730	52.880	-1.800	1.100																			1580015943.0	7.60	14.08
26/01/2020 05:19:04	26012020	260120	051904	52.730	12.605068	-57.386445	52.570	0.100	-0.280	0.620	52.730	-1.800	1.100																			1580015944.0	7.58	14.04
26/01/2020 05:19:05	26012020	260120	051905	52.650	12.605090	-57.386418	52.670	0.170	-0.210	0.190	52.650	-1.600	0.800																			1580015945.0	7.46	13.82
26/01/2020 05:19:06	26012020	260120	051906	52.770	12.605113	-57.386392	52.850	0.140	-0.070	-0.160	52.810	-1.600	0.400																			1580015946.0	7.47	13.83
26/01/2020 05:19:07	26012020	260120	051907	52.940	12.605138	-57.386367	52.910	-0.030	0.130	-0.230	52.960	-1.400	0.200																			1580015947.0	7.51	13.91
26/01/2020 05:19:08	26012020	260120	051908	53.010	12.605160	-57.386340	52.900	-0.200	0.070	-0.140	53.010	-1.300	0.200																			1580015948.0	7.31	13.54
26/01/2020 05:19:09	26012020	260120	051909	53.010	12.605182	-57.386313	52.780	-0.250	-0.190	0.110	53.000	-1.500	0.400																			1580015949.0	7.30	13.52
26/01/2020 05:19:10	26012020	260120	051910	52.920	12.605202	-57.386283	52.660	-0.170	-0.400	0.320	52.890	-1.700	0.600																			1580015950.0	7.61	14.09
26/01/2020 05:19:11	26012020	260120	051911	52.790	12.605222	-57.386253	52.630	0.060	-0.550	0.240	52.770	-1.900	0.700																			1580015951.0	7.70	14.26
26/01/2020 05:19:12	26012020	260120	051912	52.760	12.605243	-57.386225	52.650	0.400	-0.650	0.170	52.760	-2.000	0.600																			1580015952.0	7.60	14.08
26/01/2020 05:19:13	26012020	260120	051913	52.760	12.605265	-57.386195	52.600	0.610	-0.470	0.240	52.750	-2.000	0.600																			1580015953.0	7.71	14.28
26/01/2020 05:19:14	26012020	260120	051914	52.710	12.605287	-57.386167	52.540	0.440	0.090	0.190	52.700	-1.600	0.600																			1580015954.0	7.72	14.30
26/01/2020 05:19:15	26012020	260120	051915	52.660	12.605308	-57.386140	52.450	-0.040	0.670	0.040	52.640	-1.000	0.500																			1580015955.0	7.37	13.65
26/01/2020 05:19:16	26012020	260120	051916	52.570	12.605330	-57.386115	52.420	-0.470	0.710	-0.080	52.570	-0.800	0.400																			1580015956.0	6.96	12.89
26/01/2020 05:19:17	26012020	260120	051917	52.530	12.605352	-57.386090	52.530	-0.510	0.020	-0.240	52.540	-1.000	0.200																			1580015957.0	6.98	12.93
26/01/2020 05:19:18	26012020	260120	051918	52.650	12.605375	-57.386063	52.700	-0.250	-0.730	-0.380	52.650	-1.300	0.200																			1580015958.0	7.63	14.13
26/01/2020 05:19:19	26012020	260120	051919	52.830	12.605400	-57.386033	52.710	-0.040	-0.850	-0.120	52.850	-2.300	0.100																			1580015959.0	8.19	15.17
26/01/2020 05:19:20	26012020	260120	051920	52.820	12.605422	-57.386003	52.520	-0.100	-0.390	0.490	52.790	-2.000	0.600																			1580015960.0	7.95	14.72
26/01/2020 05:19:21	26012020	260120	051921	52.610	12.605440	-57.385975	52.390	-0.250	-0.050	0.920	52.570	-1.500	1.200																			1580015961.0	7.24	13.41
26/01/2020 05:19:22	26012020	260120	051922	52.470	12.605457	-57.385947	52.460	-0.180	-0.210	0.820	52.470	-1.500	1.300																			1580015962.0	6.92	12.82
26/01/2020 05:19:23	26012020	260120	051923	52.560	12.605477	-57.385918	52.630	0.190	-0.470	0.530	52.590	-1.800	1.000																			1580015963.0	7.31	13.54
26/01/2020 05:19:24	26012020	260120	051924	52.720	12.605498	-57.385890	52.720	0.580	-0.420	0.280	52.750	-1.900	0.800																			1580015964.0	7.83	14.50
26/01/2020 05:19:25	26012020	260120	051925	52.810	12.605523	-57.385862	52.630	0.670	-0.070	0.030	52.810	-1.600	0.500																			1580015965.0	7.84	14.52
26/01/2020 05:19:26	26012020	260120	051926	52.750	12.605545	-57.385835	52.480	0.460	0.190	-0.220	52.720	-1.300	0.300																			1580015966.0	7.47	13.83
26/01/2020 05:19:27	26012020	260120	051927	52.600	12.605568	-57.385810	52.430	0.130	0.180	-0.510	52.580	-1.200	0.000																			1580015967.0	7.27	13.46
26/01/2020 05:19:28	26012020	260120	051928	52.550	12.605592	-57.385783	52.580	-0.160	-0.010	-0.790	52.550	-1.200	-0.100																			1580015968.0	7.43	13.76
26/01/2020 05:19:29	26012020	260120	051929	52.690	12.605617	-57.385757	52.790	-0.350	-0.180	-0.820	52.730	-1.500	-0.500																			1580015969.0	7.66	14.19
26/01/2020 05:19:30	26012020	260120	051930	52.920	12.605640	-57.385730	52.950	-0.440	-0.140	-0.420	52.920	-1.600	-0.400																			1580015970.0	7.69	14.24
26/01/2020 05:19:31	26012020	260120	051931	53.060	12.605662	-57.385702	52.920	-0.490	0.060	0.310	53.080	-1.400	0.400																			1580015971.0	7.52	13.93
26/01/2020 05:19:32	26012020	260120	051932	53.030	12.605678	-57.385672	52.790	-0.430	0.010	0.920	53.000	-1.300	1.100																			1580015972.0	7.26	13.45
26/01/2020 05:19:33	26012020	260120	051933	52.890	12.605693	-57.385642	52.770	-0.120	-0.500	1.140	52.870	-1.600	1.500																			1580015973.0	7.20	13.33
26/01/2020 05:19:34	26012020	260120	051934	52.860	12.605713	-57.385612	52.870	0.360	-0.990	0.980	52.870	-2.200	1.500																			1580015974.0	7.59	14.06
26/01/2020 05:19:35	26012020	260120	051935	52.960	12.605737	-57.385582	52.970	0.690	-0.820	0.620	52.990	-2.400	1.200																			1580015975.0	8.07	14.95
26/01/2020 05:19:36	26012020	260120	051936	53.070	12.605760	-57.385553	52.950	0.600	-0.060	0.260	53.080	-1.800	0.800																			1580015976.0	7.90	14.63
26/01/2020 05:19:37	26012020	260120	051937	53.060	12.605783	-57.385528	52.900	0.180	0.510	-0.010	53.050	-1.100	0.500																			1580015977.0	7.21	13.35
26/01/2020 05:19:38	26012020	260120	051938	53.000	12.605805	-57.385505	52.870	-0.190	0.370	-0.250	53.000	-0.900	0.300																			1580015978.0	6.82	12.63
26/01/2020 05:19:39	26012020	260120	051939	52.990	12.605827	-57.385480	52.870	-0.300	-0.160	-0.430	53.000	-1.300	0.000																			1580015979.0	7.26	13.45
26/01/2020 05:19:40	26012020	260120	051940	53.010	12.605852	-57.385450	52.860	-0.250	-0.440	-0.390	53.010	-1.800	-0.000																			1580015980.0	7.94	14.70
26/01/2020 05:19:41	26012020	260120	051941	53.000	12.605875	-57.385420	52.880	-0.230	-0.270	-0.210	53.000	-1.800	0.100																			1580015981.0	8.04	14.89
26/01/2020 05:19:42	26012020	260120	051942	53.010	12.605895	-57.385392	52.970	-0.250	0.040	-0.130	53.010	-1.700	0.200																			1580015982.0	7.57	14.02
26/01/2020 05:19:43	26012020	260120	051943	53.100	12.605913	-57.385363	53.030	-0.180	0.100	-0.080	53.120	-1.300	0.300																			1580015983.0	7.12	13.19
26/01/2020 05:19:44	26012020	260120	051944	53.170	12.605933	-57.385337	53.030	0.060	-0.200	0.010	53.170	-1.400	0.400																			1580015984.0	7.12	13.19
26/01/2020 05:19:45	26012020	260120	051945	53.160	12.605953	-57.385308	52.990	0.330	-0.570	0.060	53.150	-1.800	0.400																			1580015985.0	7.51	13.91
26/01/2020 05:19:46	26012020	260120	051946	53.120	12.605978	-57.385280	53.010	0.460	-0.630	0.140	53.110	-2.100	0.500																			1580015986.0	7.88	14.59
26/01/2020 05:19:47	26012020	260120	051947	53.130	12.606002	-57.385252	53.100	0.360	-0.310	0.320	53.140	-1.900	0.600																			1580015987.0	7.83	14.50
26/01/2020 05:19:48	26012020	260120	051948	53.190	12.606022	-57.385223	53.100	0.120	0.110	0.550	53.200	-1.500	0.800																			1580015988.0	7.42	13.74
26/01/2020 05:19:49	26012020	260120	051949	53.200	12.606042	-57.385197	53.030	-0.120	0.320	0.740	53.190	-1.100	1.100																			1580015989.0	7.12	13.19
26/01/2020 05:19:50	26012020	260120	051950	53.110	12.606060	-57.385168	52.930	-0.260	0.100	0.760	53.090	-1.200	1.200																			1580015990.0	7.13	13.20
26/01/2020 05:19:51	26012020	260120	051951	53.030	12.606080	-57.385140	53.000	-0.250	-0.350	0.520	53.020	-1.600	1.000																			1580015991.0	7.43	13.76
26/01/2020 05:19:52	26012020	260120	051952	53.100	12.606103	-57.385110	53.200	-0.150	-0.500	0.170	53.140	-1.900	0.700																			1580015992.0	7.87	14.58
26/01/2020 05:19:53	26012020	260120	051953	53.300	12.606127	-57.385082	53.310	-0.070	-0.230	-0.050	53.340	-1.800	0.400																			1580015993.0	7.89	14.61
26/01/2020 05:19:54	26012020	260120	051954	53.420	12.606148	-57.385055	53.250	-0.030	0.010	-0.130	53.420	-1.500	0.300																			1580015994.0	7.40	13.70
26/01/2020 05:19:55	26012020	260120	051955	53.370	12.606168	-57.385028	53.130	-0.010	-0.040	-0.180	53.360	-1.400	0.200																			1580015995.0	7.12	13.19
26/01/2020 05:19:56	26012020	260120	051956	53.280	12.606190	-57.385000	53.110	0.050	-0.240	-0.300	53.260	-1.600	0.200																			1580015996.0	7.33	13.58
26/01/2020 05:19:57	26012020	260120	051957	53.250	12.606212	-57.384973	53.120	0.150	-0.360	-0.430	53.250	-1.700	0.000																			1580015997.0	7.62	14.11
26/01/2020 05:19:58	26012020	260120	051958	53.260	12.606235	-57.384945	53.170	0.240	-0.340	-0.430	53.270	-1.800	-0.100																			1580015998.0	7.68	14.22
26/01/2020 05:19:59	26012020	260120	051959	53.290	12.606258	-57.384917	53.210	0.190	-0.230	-0.230	53.300	-1.700	0.100																			1580015999.0	7.59	14.06
26/01/2020 05:20:00	26012020	260120	052000	53.320	12.606278	-57.384890	53.210	-0.010	-0.140	0.030	53.330	-1.600	0.300	1014.60	25.90	25.90	20.80	20.90	0.00	73.00	73.00	434.00	25.50	12.00	9.30	73.00	5.60	15	3245.00	27.40	27.40	1580016000.0	7.48	13.85
26/01/2020 05:20:01	26012020	260120	052001	53.340	12.606300	-57.384860	53.280	-0.180	-0.090	0.260	53.340	-1.500	0.600																			1580016001.0	7.44	13.78
26/01/2020 05:20:02	26012020	260120	052002	53.390	12.606320	-57.384832	53.360	-0.160	-0.040	0.480	53.400	-1.500	0.800																			1580016002.0	7.48	13.85
26/01/2020 05:20:03	26012020	260120	052003	53.450	12.606340	-57.384803	53.420	-0.050	0.040	0.650	53.470	-1.400	1.000																			1580016003.0	7.51	13.91
26/01/2020 05:20:04	26012020	260120	052004	53.490	12.606358	-57.384773	53.400	-0.020	0.040	0.660	53.500	-1.400	1.000																			1580016004.0	7.48	13.85
26/01/2020 05:20:05	26012020	260120	052005	53.490	12.606378	-57.384745	53.240	-0.060	-0.060	0.580	53.480	-1.400	1.000																			1580016005.0	7.42	13.74
26/01/2020 05:20:06	26012020	260120	052006	53.350	12.606400	-57.384717	53.060	-0.040	-0.240	0.410	53.350	-1.500	1.000																			1580016006.0	7.46	13.82
26/01/2020 05:20:07	26012020	260120	052007	53.170	12.606422	-57.384688	53.040	0.110	-0.450	0.030	53.160	-1.800	0.600																			1580016007.0	7.54	13.96
26/01/2020 05:20:08	26012020	260120	052008	53.170	12.606445	-57.384662	53.120	0.250	-0.530	-0.380	53.170	-1.800	0.500																			1580016008.0	7.63	14.13
26/01/2020 05:20:09	26012020	260120	052009	53.250	12.606470	-57.384635	53.230	0.190	-0.370	-0.650	53.270	-1.900	-0.200																			1580016009.0	7.72	14.30
26/01/2020 05:20:10	26012020	260120	052010	53.360	12.606493	-57.384608	53.280	-0.080	-0.060	-0.690	53.370	-1.600	-0.300																			1580016010.0	7.56	14.00
26/01/2020 05:20:11	26012020	260120	052011	53.420	12.606513	-57.384582	53.230	-0.350	0.180	-0.450	53.420	-1.300	-0.200																			1580016011.0	7.30	13.52
26/01/2020 05:20:12	26012020	260120	052012	53.360	12.606533	-57.384553	53.110	-0.380	0.090	-0.040	53.330	-1.200	0.200																			1580016012.0	7.19	13.32
26/01/2020 05:20:13	26012020	260120	052013	53.230	12.606552	-57.384523	52.980	-0.120	-0.330	0.280	53.200	-1.500	0.500																			1580016013.0	7.38	13.67
26/01/2020 05:20:14	26012020	260120	052014	53.110	12.606572	-57.384493	52.900	0.230	-0.630	0.450	53.090	-1.900	0.800																			1580016014.0	7.79	14.43
26/01/2020 05:20:15	26012020	260120	052015	53.010	12.606593	-57.384462	52.870	0.390	-0.460	0.460	53.000	-2.000	0.900																			1580016015.0	8.05	14.91
26/01/2020 05:20:16	26012020	260120	052016	52.970	12.606615	-57.384433	52.930	0.270	0.030	0.320	52.980	-1.600	0.800																			1580016016.0	7.75	14.35
26/01/2020 05:20:17	26012020	260120	052017	53.040	12.606637	-57.384407	52.990	-0.000	0.430	0.200	53.050	-1.100	0.600																			1580016017.0	7.24	13.41
26/01/2020 05:20:18	26012020	260120	052018	53.100	12.606657	-57.384380	52.950	-0.240	0.410	0.170	53.110	-1.000	0.600																			1580016018.0	7.01	12.98
26/01/2020 05:20:19	26012020	260120	052019	53.080	12.606678	-57.384355	52.820	-0.270	-0.070	0.160	53.060	-1.200	0.600																			1580016019.0	7.16	13.26
26/01/2020 05:20:20	26012020	260120	052020	52.970	12.606700	-57.384327	52.710	-0.060	-0.670	0.180	52.970	-1.400	0.600																			1580016020.0	7.60	14.08
26/01/2020 05:20:21	26012020	260120	052021	52.830	12.606723	-57.384297	52.640	0.130	-0.880	0.190	52.810	-2.300	0.600																			1580016021.0	8.01	14.83
26/01/2020 05:20:22	26012020	260120	052022	52.770	12.606745	-57.384267	52.770	0.100	-0.550	0.090	52.780	-2.200	0.500																			1580016022.0	7.99	14.80
26/01/2020 05:20:23	26012020	260120	052023	52.890	12.606767	-57.384238	52.950	-0.080	0.030	0.040	52.930	-1.600	0.400																			1580016023.0	7.50	13.89
26/01/2020 05:20:24	26012020	260120	052024	53.070	12.606787	-57.384212	52.950	-0.220	0.400	0.120	53.090	-1.100	0.500																			1580016024.0	7.02	13.00
26/01/2020 05:20:25	26012020	260120	052025	53.080	12.606805	-57.384185	52.710	-0.190	0.310	0.260	53.050	-1.000	0.600																			1580016025.0	6.96	12.89
26/01/2020 05:20:26	26012020	260120	052026	52.850	12.606825	-57.384157	52.500	0.010	-0.220	0.290	52.800	-1.300	0.700																			1580016026.0	7.29	13.50
26/01/2020 05:20:27	26012020	260120	052027	52.620	12.606847	-57.384128	52.490	0.260	-0.720	0.080	52.610	-1.900	0.600																			1580016027.0	7.79	14.43
26/01/2020 05:20:28	26012020	260120	052028	52.620	12.606872	-57.384098	52.670	0.350	-0.690	-0.230	52.640	-2.200	0.300																			1580016028.0	8.13	15.06
26/01/2020 05:20:29	26012020	260120	052029	52.780	12.606897	-57.384070	52.830	0.180	-0.140	-0.350	52.830	-1.800	0.100																			1580016029.0	7.92	14.67
26/01/2020 05:20:30	26012020	260120	052030	52.960	12.606918	-57.384043	52.810	-0.190	0.440	-0.160	52.970	-1.200	0.100																			1580016030.0	7.27	13.46
26/01/2020 05:20:31	26012020	260120	052031	52.940	12.606937	-57.384018	52.680	-0.500	0.560	0.150	52.920	-0.800	0.400																			1580016031.0	6.86	12.70
26/01/2020 05:20:32	26012020	260120	052032	52.810	12.606957	-57.383992	52.590	-0.470	0.090	0.400	52.810	-0.800	0.500																			1580016032.0	6.96	12.89
26/01/2020 05:20:33	26012020	260120	052033	52.710	12.606977	-57.383963	52.560	-0.090	-0.680	0.500	52.700	-1.700	0.900																			1580016033.0	7.47	13.83
26/01/2020 05:20:34	26012020	260120	052034	52.680	12.606998	-57.383932	52.510	0.330	-1.150	0.530	52.670	-2.400	0.900																			1580016034.0	8.02	14.85
26/01/2020 05:20:35	26012020	260120	052035	52.620	12.607020	-57.383900	52.470	0.460	-0.870	0.510	52.610	-2.500	0.900																			1580016035.0	8.23	15.24
26/01/2020 05:20:36	26012020	260120	052036	52.580	12.607043	-57.383872	52.450	0.210	-0.020	0.450	52.580	-1.800	0.900																			1580016036.0	7.80	14.45
26/01/2020 05:20:37	26012020	260120	052037	52.570	12.607063	-57.383845	52.470	-0.180	0.700	0.240	52.570	-1.000	0.800																			1580016037.0	7.05	13.06
26/01/2020 05:20:38	26012020	260120	052038	52.590	12.607083	-57.383820	52.580	-0.320	0.650	-0.130	52.600	-0.600	0.400																			1580016038.0	6.65	12.32
26/01/2020 05:20:39	26012020	260120	052039	52.700	12.607105	-57.383795	52.630	-0.140	0.010	-0.340	52.720	-1.100	0.100																			1580016039.0	7.04	13.04
26/01/2020 05:20:40	26012020	260120	052040	52.750	12.607128	-57.383768	52.530	0.100	-0.570	-0.330	52.740	-1.700	0.000																			1580016040.0	7.83	14.50
26/01/2020 05:20:41	26012020	260120	052041	52.640	12.607152	-57.383737	52.410	0.200	-0.710	-0.200	52.610	-2.100	0.100																			1580016041.0	8.14	15.08
26/01/2020 05:20:42	26012020	260120	052042	52.540	12.607173	-57.383708	52.360	0.120	-0.450	-0.090	52.530	-2.100	0.200																			1580016042.0	7.85	14.54
26/01/2020 05:20:43	26012020	260120	052043	52.480	12.607195	-57.383680	52.320	-0.090	0.030	0.010	52.470	-1.600	0.400																			1580016043.0	7.41	13.72
26/01/2020 05:20:44	26012020	260120	052044	52.440	12.607215	-57.383653	52.320	-0.290	0.350	0.160	52.440	-1.400	0.400																			1580016044.0	7.07	13.09
26/01/2020 05:20:45	26012020	260120	052045	52.430	12.607233	-57.383627	52.380	-0.290	0.130	0.330	52.440	-1.100	0.600																			1580016045.0	6.91	12.80
26/01/2020 05:20:46	26012020	260120	052046	52.480	12.607253	-57.383600	52.390	-0.090	-0.400	0.410	52.490	-1.600	0.800																			1580016046.0	7.23	13.39
26/01/2020 05:20:47	26012020	260120	052047	52.490	12.607275	-57.383570	52.250	0.150	-0.700	0.490	52.480	-2.000	0.800																			1580016047.0	7.82	14.48
26/01/2020 05:20:48	26012020	260120	052048	52.360	12.607298	-57.383540	52.000	0.310	-0.620	0.630	52.310	-2.100	1.000																			1580016048.0	7.95	14.72
26/01/2020 05:20:49	26012020	260120	052049	52.100	12.607320	-57.383510	51.870	0.420	-0.440	0.550	52.050	-1.900	1.000																			1580016049.0	7.63	14.13
26/01/2020 05:20:50	26012020	260120	052050	51.960	12.607342	-57.383483	51.940	0.450	-0.230	0.200	51.970	-1.700	0.800																			1580016050.0	7.41	13.72
26/01/2020 05:20:51	26012020	260120	052051	52.040	12.607365	-57.383457	52.050	0.250	0.210	-0.180	52.070	-1.400	0.400																			1580016051.0	7.54	13.96
26/01/2020 05:20:52	26012020	260120	052052	52.160	12.607388	-57.383432	52.190	-0.200	0.640	-0.420	52.190	-0.900	0.100																			1580016052.0	7.46	13.82
26/01/2020 05:20:53	26012020	260120	052053	52.300	12.607410	-57.383407	52.320	-0.620	0.620	-0.490	52.330	-0.700	-0.100																			1580016053.0	7.09	13.13
26/01/2020 05:20:54	26012020	260120	052054	52.410	12.607432	-57.383380	52.330	-0.740	0.110	-0.320	52.430	-0.800	-0.100																			1580016054.0	7.07	13.09
26/01/2020 05:20:55	26012020	260120	052055	52.440	12.607452	-57.383352	52.190	-0.490	-0.550	0.050	52.420	-1.700	0.300																			1580016055.0	7.50	13.89
26/01/2020 05:20:56	26012020	260120	052056	52.290	12.607473	-57.383322	52.050	-0.030	-1.040	0.410	52.290	-1.900	0.400																			1580016056.0	7.85	14.54
26/01/2020 05:20:57	26012020	260120	052057	52.140	12.607493	-57.383290	51.980	0.370	-1.030	0.590	52.120	-2.500	0.900																			1580016057.0	7.95	14.72
26/01/2020 05:20:58	26012020	260120	052058	52.080	12.607515	-57.383260	51.900	0.500	-0.440	0.590	52.080	-2.500	1.000																			1580016058.0	7.76	14.37
26/01/2020 05:20:59	26012020	260120	052059	52.000	12.607535	-57.383233	51.870	0.360	0.220	0.430	51.990	-1.400	0.900																			1580016059.0	7.31	13.54
26/01/2020 05:21:00	26012020	260120	052100	51.970	12.607557	-57.383208	52.010	0.220	0.310	0.070	51.990	-1.000	0.600	1014.60	25.90	25.90	20.70	20.80	0.00	73.00	73.00	434.00	25.60	17.00	9.80	81.00	6.30	15	3223.00	27.40	27.40	1580016060.0	6.85	12.69
26/01/2020 05:21:01	26012020	260120	052101	52.120	12.607578	-57.383183	52.240	0.190	-0.010	-0.320	52.160	-1.300	0.200																			1580016061.0	7.10	13.15
26/01/2020 05:21:02	26012020	260120	052102	52.330	12.607603	-57.383157	52.300	0.070	-0.090	-0.430	52.360	-1.500	-0.000																			1580016062.0	7.81	14.46
26/01/2020 05:21:03	26012020	260120	052103	52.390	12.607628	-57.383130	52.210	-0.210	0.060	-0.220	52.380	-1.400	0.000																			1580016063.0	7.88	14.59
26/01/2020 05:21:04	26012020	260120	052104	52.310	12.607650	-57.383102	52.170	-0.420	-0.010	0.020	52.280	-1.300	0.300																			1580016064.0	7.39	13.69
26/01/2020 05:21:05	26012020	260120	052105	52.270	12.607670	-57.383075	52.280	-0.290	-0.380	0.080	52.280	-1.600	0.500																			1580016065.0	7.20	13.33
26/01/2020 05:21:06	26012020	260120	052106	52.370	12.607690	-57.383047	52.390	0.040	-0.640	0.110	52.410	-2.000	0.500																			1580016066.0	7.56	14.00
26/01/2020 05:21:07	26012020	260120	052107	52.480	12.607713	-57.383017	52.340	0.180	-0.430	0.330	52.490	-2.000	0.600																			1580016067.0	7.86	14.56
26/01/2020 05:21:08	26012020	260120	052108	52.430	12.607733	-57.382987	52.210	-0.030	0.090	0.510	52.430	-1.900	0.700																			1580016068.0	7.64	14.15
26/01/2020 05:21:09	26012020	260120	052109	52.310	12.607753	-57.382960	52.210	-0.290	0.390	0.380	52.290	-1.100	0.900																			1580016069.0	7.10	13.15
26/01/2020 05:21:10	26012020	260120	052110	52.290	12.607773	-57.382935	52.300	-0.260	0.120	0.130	52.300	-1.100	0.600																			1580016070.0	6.87	12.72
26/01/2020 05:21:11	26012020	260120	052111	52.380	12.607797	-57.382908	52.410	0.030	-0.420	-0.090	52.410	-1.600	0.400																			1580016071.0	7.28	13.48
26/01/2020 05:21:12	26012020	260120	052112	52.490	12.607820	-57.382882	52.460	0.290	-0.740	-0.350	52.510	-2.000	0.200																			1580016072.0	7.86	14.56
26/01/2020 05:21:13	26012020	260120	052113	52.570	12.607843	-57.382852	52.480	0.340	-0.630	-0.540	52.580	-2.100	-0.100																			1580016073.0	7.96	14.74
26/01/2020 05:21:14	26012020	260120	052114	52.600	12.607867	-57.382825	52.450	0.270	-0.240	-0.470	52.590	-1.800	-0.100																			1580016074.0	7.64	14.15
26/01/2020 05:21:15	26012020	260120	052115	52.560	12.607888	-57.382798	52.420	0.170	0.070	-0.270	52.550	-1.400	0.000																			1580016075.0	7.27	13.46
26/01/2020 05:21:16	26012020	260120	052116	52.510	12.607910	-57.382772	52.440	0.090	0.130	-0.020	52.510	-1.300	0.200																			1580016076.0	7.18	13.30
26/01/2020 05:21:17	26012020	260120	052117	52.530	12.607932	-57.382745	52.520	-0.060	0.150	0.230	52.530	-1.300	0.500																			1580016077.0	7.40	13.70
26/01/2020 05:21:18	26012020	260120	052118	52.590	12.607952	-57.382715	52.510	-0.290	0.250	0.440	52.600	-1.200	0.700																			1580016078.0	7.53	13.95
26/01/2020 05:21:19	26012020	260120	052119	52.590	12.607972	-57.382687	52.390	-0.460	0.190	0.570	52.570	-1.100	0.900																			1580016079.0	7.36	13.63
26/01/2020 05:21:20	26012020	260120	052120	52.480	12.607990	-57.382660	52.430	-0.310	-0.330	0.440	52.470	-1.400	0.900																			1580016080.0	7.18	13.30
26/01/2020 05:21:21	26012020	260120	052121	52.520	12.608013	-57.382632	52.680	0.160	-1.050	0.090	52.560	-2.100	0.600																			1580016081.0	7.47	13.83
26/01/2020 05:21:22	26012020	260120	052122	52.770	12.608038	-57.382603	52.790	0.540	-1.120	-0.180	52.820	-2.600	0.300																			1580016082.0	8.09	14.98
26/01/2020 05:21:23	26012020	260120	052123	52.910	12.608063	-57.382575	52.630	0.420	-0.250	-0.110	52.890	-2.100	0.200																			1580016083.0	8.17	15.13
26/01/2020 05:21:24	26012020	260120	052124	52.760	12.608085	-57.382548	52.430	-0.140	0.740	0.130	52.710	-1.000	0.400																			1580016084.0	7.29	13.50
26/01/2020 05:21:25	26012020	260120	052125	52.550	12.608103	-57.382523	52.440	-0.580	0.840	0.160	52.530	-0.500	0.600																			1580016085.0	6.41	11.87
26/01/2020 05:21:26	26012020	260120	052126	52.570	12.608122	-57.382500	52.650	-0.450	-0.010	-0.130	52.610	-0.900	0.400																			1580016086.0	6.60	12.22
26/01/2020 05:21:27	26012020	260120	052127	52.780	12.608143	-57.382472	52.780	0.120	-0.860	-0.350	52.820	-1.900	0.100																			1580016087.0	7.67	14.20
26/01/2020 05:21:28	26012020	260120	052128	52.900	12.608170	-57.382442	52.760	0.570	-0.910	-0.320	52.910	-2.400	0.000																			1580016088.0	8.42	15.59
26/01/2020 05:21:29	26012020	260120	052129	52.880	12.608193	-57.382412	52.740	0.570	-0.350	-0.110	52.870	-2.000	0.200																			1580016089.0	8.06	14.93
26/01/2020 05:21:30	26012020	260120	052130	52.860	12.608213	-57.382385	52.740	0.240	0.170	0.070	52.860	-1.400	0.400																			1580016090.0	7.17	13.28
26/01/2020 05:21:31	26012020	260120	052131	52.860	12.608233	-57.382358	52.730	-0.120	0.330	0.040	52.850	-1.100	0.500																			1580016091.0	6.79	12.58
26/01/2020 05:21:32	26012020	260120	052132	52.840	12.608253	-57.382333	52.790	-0.350	0.170	-0.130	52.850	-1.100	0.400																			1580016092.0	7.00	12.96
26/01/2020 05:21:33	26012020	260120	052133	52.910	12.608275	-57.382307	52.900	-0.420	-0.080	-0.160	52.930	-1.400	0.200																			1580016093.0	7.38	13.67
26/01/2020 05:21:34	26012020	260120	052134	53.010	12.608298	-57.382280	52.930	-0.340	-0.300	0.050	53.010	-1.400	0.200																			1580016094.0	7.57	14.02
26/01/2020 05:21:35	26012020	260120	052135	53.050	12.608322	-57.382253	52.920	-0.140	-0.480	0.350	53.040	-1.800	0.600																			1580016095.0	7.56	14.00
26/01/2020 05:21:36	26012020	260120	052136	53.030	12.608342	-57.382223	53.030	0.130	-0.650	0.560	53.040	-2.000	0.900																			1580016096.0	7.52	13.93
26/01/2020 05:21:37	26012020	260120	052137	53.140	12.608362	-57.382193	53.200	0.310	-0.670	0.600	53.170	-2.100	1.000																			1580016097.0	7.57	14.02
26/01/2020 05:21:38	26012020	260120	052138	53.300	12.608380	-57.382163	53.260	0.290	-0.250	0.440	53.320	-1.900	0.900																			1580016098.0	7.67	14.20
26/01/2020 05:21:39	26012020	260120	052139	53.380	12.608402	-57.382135	53.210	0.110	0.410	0.100	53.380	-1.300	0.700																			1580016099.0	7.43	13.76
26/01/2020 05:21:40	26012020	260120	052140	53.330	12.608422	-57.382110	53.180	-0.040	0.670	-0.380	53.320	-0.800	0.200																			1580016100.0	6.94	12.85
26/01/2020 05:21:41	26012020	260120	052141	53.310	12.608445	-57.382087	53.290	0.010	0.230	-0.870	53.320	-0.900	-0.300																			1580016101.0	6.88	12.74
26/01/2020 05:21:42	26012020	260120	052142	53.420	12.608470	-57.382062	53.460	0.150	-0.440	-1.200	53.450	-1.600	-0.700																			1580016102.0	7.47	13.83
26/01/2020 05:21:43	26012020	260120	052143	53.600	12.608495	-57.382035	53.560	0.130	-0.750	-1.190	53.640	-2.100	-0.900																			1580016103.0	8.02	14.85
26/01/2020 05:21:44	26012020	260120	052144	53.710	12.608520	-57.382007	53.510	-0.100	-0.530	-0.760	53.710	-2.100	-0.600																			1580016104.0	7.94	14.70
26/01/2020 05:21:45	26012020	260120	052145	53.660	12.608540	-57.381978	53.480	-0.340	-0.110	-0.180	53.640	-1.700	-0.100																			1580016105.0	7.42	13.74
26/01/2020 05:21:46	26012020	260120	052146	53.610	12.608558	-57.381952	53.540	-0.320	0.010	0.290	53.610	-1.600	0.100																			1580016106.0	6.96	12.89
26/01/2020 05:21:47	26012020	260120	052147	53.660	12.608575	-57.381923	53.680	-0.030	-0.250	0.650	53.690	-1.500	0.900																			1580016107.0	7.02	13.00
26/01/2020 05:21:48	26012020	260120	052148	53.780	12.608595	-57.381893	53.790	0.240	-0.440	0.830	53.810	-1.800	1.100																			1580016108.0	7.53	13.95
26/01/2020 05:21:49	26012020	260120	052149	53.890	12.608615	-57.381862	53.760	0.210	-0.110	0.890	53.890	-1.700	1.300																			1580016109.0	7.89	14.61
26/01/2020 05:21:50	26012020	260120	052150	53.860	12.608635	-57.381832	53.650	-0.040	0.380	0.760	53.840	-1.200	1.200																			1580016110.0	7.53	13.95
26/01/2020 05:21:51	26012020	260120	052151	53.750	12.608655	-57.381807	53.630	-0.120	0.280	0.290	53.730	-1.000	0.900																			1580016111.0	6.87	12.72
26/01/2020 05:21:52	26012020	260120	052152	53.740	12.608675	-57.381782	53.770	0.100	-0.360	-0.430	53.760	-1.500	0.300																			1580016112.0	6.96	12.89
26/01/2020 05:21:53	26012020	260120	052153	53.900	12.608700	-57.381755	53.910	0.300	-0.720	-1.010	53.940	-2.000	-0.400																			1580016113.0	7.76	14.37
26/01/2020 05:21:54	26012020	260120	052154	54.060	12.608727	-57.381728	53.820	0.240	-0.470	-1.090	54.080	-2.100	-0.700																			1580016114.0	8.09	14.98
26/01/2020 05:21:55	26012020	260120	052155	53.990	12.608750	-57.381702	53.590	-0.030	0.030	-0.800	53.940	-1.600	-0.600																			1580016115.0	7.54	13.96
26/01/2020 05:21:56	26012020	260120	052156	53.760	12.608770	-57.381675	53.540	-0.230	0.130	-0.530	53.720	-1.300	-0.200																			1580016116.0	6.91	12.80
26/01/2020 05:21:57	26012020	260120	052157	53.710	12.608788	-57.381648	53.700	-0.220	-0.210	-0.340	53.730	-1.400	-0.100																			1580016117.0	6.93	12.83
26/01/2020 05:21:58	26012020	260120	052158	53.870	12.608808	-57.381620	53.760	-0.190	-0.380	-0.020	53.870	-1.600	0.000																			1580016118.0	7.55	13.98
26/01/2020 05:21:59	26012020	260120	052159	53.920	12.608830	-57.381588	53.660	-0.220	-0.110	0.360	53.900	-1.700	0.600																			1580016119.0	7.85	14.54
26/01/2020 05:22:00	26012020	260120	052200	53.820	12.608850	-57.381560	53.650	-0.160	0.130	0.590	53.790	-1.300	0.900	1014.60	25.90	25.90	20.80	20.90	0.00	73.00	73.00	434.00	25.60	19.00	9.20	85.00	5.70	15	3179.00	27.40	27.40	1580016120.0	7.38	13.67
26/01/2020 05:22:01	26012020	260120	052201	53.770	12.608868	-57.381533	53.760	0.110	-0.100	0.620	53.780	-1.300	1.000																			1580016121.0	6.95	12.87
26/01/2020 05:22:02	26012020	260120	052202	53.870	12.608887	-57.381505	53.860	0.450	-0.580	0.460	53.900	-1.800	0.900																			1580016122.0	7.23	13.39
26/01/2020 05:22:03	26012020	260120	052203	53.990	12.608908	-57.381475	53.800	0.530	-0.630	0.190	53.990	-2.100	0.700																			1580016123.0	7.84	14.52
26/01/2020 05:22:04	26012020	260120	052204	53.940	12.608932	-57.381447	53.630	0.230	-0.050	-0.020	53.910	-1.800	0.400																			1580016124.0	7.93	14.69
26/01/2020 05:22:05	26012020	260120	052205	53.760	12.608955	-57.381420	53.500	-0.210	0.550	-0.220	53.730	-1.100	0.300																			1580016125.0	7.26	13.45
26/01/2020 05:22:06	26012020	260120	052206	53.650	12.608975	-57.381397	53.560	-0.410	0.470	-0.490	53.650	-0.800	0.000																			1580016126.0	6.64	12.30
26/01/2020 05:22:07	26012020	260120	052207	53.700	12.608997	-57.381373	53.640	-0.310	-0.150	-0.690	53.720	-1.300	-0.200																			1580016127.0	6.91	12.80
26/01/2020 05:22:08	26012020	260120	052208	53.790	12.609020	-57.381345	53.710	-0.050	-0.760	-0.680	53.810	-1.900	-0.300																			1580016128.0	7.62	14.11
26/01/2020 05:22:09	26012020	260120	052209	53.860	12.609043	-57.381317	53.660	0.130	-0.820	-0.320	53.870	-2.300	-0.200																			1580016129.0	7.97	14.76
26/01/2020 05:22:10	26012020	260120	052210	53.820	12.609063	-57.381285	53.510	0.120	-0.380	0.190	53.780	-2.000	0.400																			1580016130.0	7.78	14.41
26/01/2020 05:22:11	26012020	260120	052211	53.640	12.609080	-57.381257	53.390	0.020	0.000	0.420	53.600	-1.500	0.800																			1580016131.0	7.20	13.33
26/01/2020 05:22:12	26012020	260120	052212	53.530	12.609098	-57.381228	53.510	0.020	-0.050	0.250	53.530	-1.400	0.700																			1580016132.0	6.88	12.74
26/01/2020 05:22:13	26012020	260120	052213	53.630	12.609118	-57.381202	53.650	0.140	-0.150	0.030	53.660	-1.600	0.500																			1580016133.0	7.23	13.39
26/01/2020 05:22:14	26012020	260120	052214	53.780	12.609143	-57.381175	53.670	0.150	0.060	0.010	53.780	-1.600	0.400																			1580016134.0	7.69	14.24
26/01/2020 05:22:15	26012020	260120	052215	53.790	12.609165	-57.381148	53.620	-0.050	0.310	0.010	53.780	-1.200	0.400																			1580016135.0	7.50	13.89
26/01/2020 05:22:16	26012020	260120	052216	53.750	12.609187	-57.381122	53.720	-0.290	0.150	-0.050	53.750	-1.100	0.400																			1580016136.0	7.06	13.08
26/01/2020 05:22:17	26012020	260120	052217	53.840	12.609207	-57.381095	53.930	-0.370	-0.310	-0.090	53.880	-1.500	0.300																			1580016137.0	7.14	13.22
26/01/2020 05:22:18	26012020	260120	052218	54.050	12.609228	-57.381067	54.070	-0.200	-0.610	-0.020	54.090	-1.900	0.300																			1580016138.0	7.54	13.96
26/01/2020 05:22:19	26012020	260120	052219	54.200	12.609248	-57.381038	54.050	0.070	-0.480	0.200	54.210	-2.000	0.500																			1580016139.0	7.72	14.30
26/01/2020 05:22:20	26012020	260120	052220	54.190	12.609268	-57.381008	53.940	0.250	-0.190	0.450	54.170	-1.700	0.700																			1580016140.0	7.42	13.74
26/01/2020 05:22:21	26012020	260120	052221	54.060	12.609287	-57.380980	53.820	0.310	-0.190	0.470	54.030	-1.600	0.900																			1580016141.0	7.07	13.09
26/01/2020 05:22:22	26012020	260120	052222	53.960	12.609305	-57.380953	53.900	0.360	-0.480	0.070	53.950	-1.600	0.900																			1580016142.0	7.13	13.20
26/01/2020 05:22:23	26012020	260120	052223	54.030	12.609328	-57.380925	54.070	0.380	-0.520	-0.380	54.070	-2.000	0.200																			1580016143.0	7.64	14.15
26/01/2020 05:22:24	26012020	260120	052224	54.220	12.609355	-57.380898	54.190	0.190	0.050	-0.490	54.220	-2.000	0.000																			1580016144.0	7.96	14.74
26/01/2020 05:22:25	26012020	260120	052225	54.330	12.609378	-57.380873	54.220	-0.230	0.650	-0.300	54.350	-1.000	-0.000																			1580016145.0	7.38	13.67
26/01/2020 05:22:26	26012020	260120	052226	54.370	12.609397	-57.380847	54.200	-0.590	0.560	0.020	54.370	-0.700	0.300																			1580016146.0	6.71	12.43
26/01/2020 05:22:27	26012020	260120	052227	54.340	12.609413	-57.380820	54.200	-0.580	-0.170	0.250	54.340	-1.200	0.500																			1580016147.0	6.90	12.78
26/01/2020 05:22:28	26012020	260120	052228	54.340	12.609433	-57.380790	54.310	-0.220	-0.840	0.300	54.340	-2.000	0.700																			1580016148.0	7.65	14.17
26/01/2020 05:22:29	26012020	260120	052229	54.430	12.609455	-57.380758	54.450	0.170	-0.840	0.320	54.450	-2.400	0.700																			1580016149.0	8.11	15.02
26/01/2020 05:22:30	26012020	260120	052230	54.560	12.609475	-57.380728	54.500	0.270	-0.240	0.320	54.570	-2.000	0.700																			1580016150.0	7.82	14.48
26/01/2020 05:22:31	26012020	260120	052231	54.600	12.609495	-57.380700	54.390	0.050	0.330	0.260	54.590	-1.300	0.700																			1580016151.0	7.05	13.06
26/01/2020 05:22:32	26012020	260120	052232	54.490	12.609513	-57.380675	54.250	-0.150	0.370	0.050	54.460	-1.000	0.500																			1580016152.0	6.63	12.28
26/01/2020 05:22:33	26012020	260120	052233	54.360	12.609533	-57.380650	54.230	-0.070	-0.090	-0.290	54.340	-1.300	0.200																			1580016153.0	6.89	12.76
26/01/2020 05:22:34	26012020	260120	052234	54.340	12.609557	-57.380623	54.230	0.260	-0.720	-0.550	54.340	-1.900	-0.100																			1580016154.0	7.47	13.83
26/01/2020 05:22:35	26012020	260120	052235	54.340	12.609580	-57.380595	54.190	0.550	-1.050	-0.630	54.340	-2.400	-0.200																			1580016155.0	7.95	14.72
26/01/2020 05:22:36	26012020	260120	052236	54.310	12.609603	-57.380565	54.110	0.500	-0.680	-0.440	54.310	-2.500	-0.300																			1580016156.0	8.06	14.93
26/01/2020 05:22:37	26012020	260120	052237	54.230	12.609625	-57.380537	54.050	0.030	0.260	0.010	54.210	-1.600	0.200																			1580016157.0	7.67	14.20
26/01/2020 05:22:38	26012020	260120	052238	54.160	12.609643	-57.380510	54.080	-0.590	1.020	0.400	54.160	-1.300	0.300																			1580016158.0	6.90	12.78
26/01/2020 05:22:39	26012020	260120	052239	54.170	12.609658	-57.380483	54.160	-0.870	0.920	0.570	54.190	-0.300	0.900																			1580016159.0	6.40	11.85
26/01/2020 05:22:40	26012020	260120	052240	54.250	12.609675	-57.380457	54.160	-0.580	-0.010	0.630	54.260	-0.900	1.000																			1580016160.0	6.74	12.48
26/01/2020 05:22:41	26012020	260120	052241	54.250	12.609695	-57.380427	54.120	0.010	-1.040	0.610	54.230	-2.000	1.000																			1580016161.0	7.63	14.13
26/01/2020 05:22:42	26012020	260120	052242	54.190	12.609718	-57.380395	54.060	0.450	-1.340	0.660	54.180	-2.700	1.000																			1580016162.0	8.29	15.35
26/01/2020 05:22:43	26012020	260120	052243	54.140	12.609740	-57.380363	54.040	0.490	-0.760	0.630	54.140	-2.500	1.000																			1580016163.0	8.12	15.04
26/01/2020 05:22:44	26012020	260120	052244	54.110	12.609760	-57.380337	53.980	0.250	0.150	0.400	54.110	-1.700	0.900																			1580016164.0	7.26	13.45
26/01/2020 05:22:45	26012020	260120	052245	54.050	12.609778	-57.380312	53.840	-0.030	0.700	0.090	54.030	-0.900	0.600																			1580016165.0	6.55	12.13
26/01/2020 05:22:46	26012020	260120	052246	53.930	12.609798	-57.380288	53.750	-0.110	0.510	-0.150	53.900	-0.700	0.400																			1580016166.0	6.51	12.06
26/01/2020 05:22:47	26012020	260120	052247	53.840	12.609820	-57.380263	53.790	0.020	-0.190	-0.540	53.840	-1.300	0.000																			1580016167.0	7.04	13.04
26/01/2020 05:22:48	26012020	260120	052248	53.900	12.609843	-57.380235	53.850	0.180	-0.740	-0.830	53.920	-2.000	-0.400																			1580016168.0	7.75	14.35
26/01/2020 05:22:49	26012020	260120	052249	53.980	12.609868	-57.380207	53.810	0.180	-0.730	-0.640	53.980	-2.200	-0.400																			1580016169.0	8.06	14.93
26/01/2020 05:22:50	26012020	260120	052250	53.930	12.609890	-57.380178	53.740	-0.040	-0.310	-0.170	53.920	-1.900	-0.000																			1580016170.0	7.69	14.24
26/01/2020 05:22:51	26012020	260120	052251	53.870	12.609908	-57.380150	53.770	-0.320	0.100	0.300	53.860	-1.500	0.500																			1580016171.0	7.12	13.19
26/01/2020 05:22:52	26012020	260120	052252	53.870	12.609925	-57.380122	53.750	-0.430	0.260	0.740	53.870	-1.200	0.900																			1580016172.0	6.88	12.74
26/01/2020 05:22:53	26012020	260120	052253	53.820	12.609942	-57.380093	53.580	-0.340	0.190	1.070	53.790	-1.200	1.300																			1580016173.0	7.04	13.04
26/01/2020 05:22:54	26012020	260120	052254	53.650	12.609958	-57.380063	53.460	-0.160	-0.100	1.100	53.610	-1.400	1.500																			1580016174.0	7.30	13.52
26/01/2020 05:22:55	26012020	260120	052255	53.530	12.609977	-57.380033	53.530	0.030	-0.450	0.710	53.530	-1.700	1.300																			1580016175.0	7.46	13.82
26/01/2020 05:22:56	26012020	260120	052256	53.600	12.609998	-57.380005	53.600	0.220	-0.540	0.160	53.620	-2.000	0.800																			1580016176.0	7.57	14.02
26/01/2020 05:22:57	26012020	260120	052257	53.690	12.610022	-57.379978	53.550	0.390	-0.300	-0.220	53.690	-1.900	0.300																			1580016177.0	7.55	13.98
26/01/2020 05:22:58	26012020	260120	052258	53.640	12.610045	-57.379953	53.360	0.480	-0.080	-0.380	53.610	-1.600	0.100																			1580016178.0	7.22	13.37
26/01/2020 05:22:59	26012020	260120	052259	53.460	12.610067	-57.379928	53.120	0.400	-0.150	-0.360	53.420	-1.500	0.000																			1580016179.0	7.05	13.06
26/01/2020 05:23:00	26012020	260120	052300	53.220	12.610088	-57.379902	52.970	0.150	-0.350	-0.340	53.180	-1.700	0.000	1014.60	25.90	26.00	21.10	21.10	0.00	74.00	74.00	434.00	25.60	14.00	9.30	77.00	5.70	15	3175.00	27.40	27.40	1580016180.0	7.27	13.46
26/01/2020 05:23:01	26012020	260120	052301	53.070	12.610110	-57.379873	52.990	-0.180	-0.280	-0.330	53.060	-1.800	0.000																			1580016181.0	7.59	14.06
26/01/2020 05:23:02	26012020	260120	052302	53.090	12.610133	-57.379847	53.120	-0.440	0.090	-0.130	53.120	-1.500	0.100																			1580016182.0	7.55	13.98
26/01/2020 05:23:03	26012020	260120	052303	53.230	12.610153	-57.379820	53.250	-0.550	0.390	0.280	53.260	-1.100	0.500																			1580016183.0	7.14	13.22
26/01/2020 05:23:04	26012020	260120	052304	53.330	12.610170	-57.379792	53.310	-0.480	0.250	0.730	53.340	-1.000	0.900																			1580016184.0	6.90	12.78
26/01/2020 05:23:05	26012020	260120	052305	53.370	12.610185	-57.379762	53.320	-0.200	-0.300	1.000	53.380	-1.400	1.300																			1580016185.0	7.12	13.19
26/01/2020 05:23:06	26012020	260120	052306	53.390	12.610203	-57.379732	53.180	0.160	-0.710	1.120	53.380	-2.000	1.500																			1580016186.0	7.60	14.08
26/01/2020 05:23:07	26012020	260120	052307	53.260	12.610223	-57.379700	52.880	0.390	-0.590	1.020	53.210	-2.100	1.500																			1580016187.0	7.85	14.54
26/01/2020 05:23:08	26012020	260120	052308	52.950	12.610243	-57.379672	52.600	0.370	-0.160	0.590	52.880	-1.800	1.200																			1580016188.0	7.53	13.95
26/01/2020 05:23:09	26012020	260120	052309	52.670	12.610265	-57.379647	52.560	0.250	0.000	-0.080	52.640	-1.400	0.600																			1580016189.0	7.02	13.00
26/01/2020 05:23:10	26012020	260120	052310	52.620	12.610290	-57.379625	52.710	0.200	-0.170	-0.740	52.650	-1.500	-0.100																			1580016190.0	7.01	12.98
26/01/2020 05:23:11	26012020	260120	052311	52.790	12.610315	-57.379600	52.800	0.140	-0.210	-1.040	52.830	-1.600	-0.600																			1580016191.0	7.47	13.83
26/01/2020 05:23:12	26012020	260120	052312	52.890	12.610340	-57.379573	52.700	-0.060	-0.030	-0.840	52.890	-1.600	-0.600																			1580016192.0	7.63	14.13
26/01/2020 05:23:13	26012020	260120	052313	52.810	12.610360	-57.379547	52.560	-0.310	0.050	-0.340	52.780	-1.400	-0.200																			1580016193.0	7.30	13.52
26/01/2020 05:23:14	26012020	260120	052314	52.660	12.610378	-57.379518	52.520	-0.380	-0.100	0.180	52.660	-1.400	-0.000																			1580016194.0	7.12	13.19
26/01/2020 05:23:15	26012020	260120	052315	52.590	12.610397	-57.379488	52.550	-0.230	-0.280	0.590	52.590	-1.600	0.800																			1580016195.0	7.32	13.56
26/01/2020 05:23:16	26012020	260120	052316	52.610	12.610415	-57.379458	52.560	-0.000	-0.290	0.890	52.610	-1.700	1.100																			1580016196.0	7.52	13.93
26/01/2020 05:23:17	26012020	260120	052317	52.610	12.610435	-57.379430	52.510	0.150	-0.200	1.030	52.610	-1.600	1.400																			1580016197.0	7.44	13.78
26/01/2020 05:23:18	26012020	260120	052318	52.550	12.610453	-57.379402	52.410	0.210	-0.180	0.940	52.530	-1.600	1.400																			1580016198.0	7.25	13.43
26/01/2020 05:23:19	26012020	260120	052319	52.450	12.610473	-57.379375	52.350	0.220	-0.240	0.660	52.440	-1.600	1.200																			1580016199.0	7.24	13.41
26/01/2020 05:23:20	26012020	260120	052320	52.410	12.610497	-57.379347	52.340	0.110	-0.190	0.280	52.400	-1.600	0.900																			1580016200.0	7.38	13.67
26/01/2020 05:23:21	26012020	260120	052321	52.410	12.610518	-57.379322	52.380	-0.100	-0.010	-0.100	52.420	-1.500	0.500																			1580016201.0	7.43	13.76
26/01/2020 05:23:22	26012020	260120	052322	52.440	12.610542	-57.379295	52.310	-0.260	0.150	-0.290	52.440	-1.300	0.200																			1580016202.0	7.26	13.45
26/01/2020 05:23:23	26012020	260120	052323	52.380	12.610563	-57.379270	52.180	-0.220	0.060	-0.330	52.350	-1.300	0.100																			1580016203.0	7.08	13.11
26/01/2020 05:23:24	26012020	260120	052324	52.250	12.610585	-57.379245	52.100	0.010	-0.350	-0.330	52.230	-1.500	0.000																			1580016204.0	7.14	13.22
26/01/2020 05:23:25	26012020	260120	052325	52.170	12.610607	-57.379217	52.030	0.240	-0.720	-0.210	52.160	-2.000	0.100																			1580016205.0	7.48	13.85
26/01/2020 05:23:26	26012020	260120	052326	52.110	12.610628	-57.379187	51.950	0.280	-0.710	-0.110	52.110	-2.100	0.200																			1580016206.0	7.80	14.45
26/01/2020 05:23:27	26012020	260120	052327	52.030	12.610650	-57.379158	51.900	0.150	-0.310	-0.040	52.020	-1.900	0.300																			1580016207.0	7.66	14.19
26/01/2020 05:23:28	26012020	260120	052328	51.980	12.610670	-57.379132	51.890	0.020	0.180	0.150	51.980	-1.800	0.300																			1580016208.0	7.25	13.43
26/01/2020 05:23:29	26012020	260120	052329	51.980	12.610690	-57.379105	51.880	-0.110	0.530	0.430	51.970	-1.000	0.700																			1580016209.0	6.99	12.95
26/01/2020 05:23:30	26012020	260120	052330	51.970	12.610710	-57.379078	51.890	-0.230	0.480	0.590	51.970	-0.800	0.900																			1580016210.0	6.95	12.87
26/01/2020 05:23:31	26012020	260120	052331	51.970	12.610730	-57.379052	51.910	-0.240	-0.040	0.670	51.980	-1.200	1.000																			1580016211.0	7.06	13.08
26/01/2020 05:23:32	26012020	260120	052332	51.990	12.610750	-57.379023	51.890	-0.100	-0.630	0.730	51.990	-1.800	1.100																			1580016212.0	7.45	13.80
26/01/2020 05:23:33	26012020	260120	052333	51.970	12.610772	-57.378995	51.850	0.040	-0.870	0.660	51.960	-2.200	1.100																			1580016213.0	7.82	14.48
26/01/2020 05:23:34	26012020	260120	052334	51.920	12.610795	-57.378965	51.790	0.050	-0.600	0.560	51.910	-2.200	1.000																			1580016214.0	7.78	14.41
26/01/2020 05:23:35	26012020	260120	052335	51.860	12.610815	-57.378938	51.710	-0.040	-0.100	0.470	51.840	-1.700	0.900																			1580016215.0	7.37	13.65
26/01/2020 05:23:36	26012020	260120	052336	51.770	12.610835	-57.378912	51.530	-0.110	0.260	0.270	51.740	-1.300	0.800																			1580016216.0	6.94	12.85
26/01/2020 05:23:37	26012020	260120	052337	51.600	12.610855	-57.378887	51.410	-0.070	0.250	-0.110	51.560	-1.100	0.500																			1580016217.0	6.89	12.76
26/01/2020 05:23:38	26012020	260120	052338	51.490	12.610878	-57.378862	51.440	0.130	-0.060	-0.490	51.490	-1.100	0.300																			1580016218.0	7.16	13.26
26/01/2020 05:23:39	26012020	260120	052339	51.510	12.610903	-57.378837	51.530	0.430	-0.460	-0.760	51.520	-1.700	-0.300																			1580016219.0	7.51	13.91
26/01/2020 05:23:40	26012020	260120	052340	51.590	12.610928	-57.378810	51.650	0.570	-0.640	-0.880	51.610	-2.000	-0.500																			1580016220.0	7.74	14.33
26/01/2020 05:23:41	26012020	260120	052341	51.710	12.610952	-57.378783	51.730	0.310	-0.370	-0.690	51.730	-1.900	-0.400																			1580016221.0	7.76	14.37
26/01/2020 05:23:42	26012020	260120	052342	51.780	12.610973	-57.378755	51.710	-0.220	0.100	-0.250	51.780	-1.500	-0.100																			1580016222.0	7.43	13.76
26/01/2020 05:23:43	26012020	260120	052343	51.760	12.610993	-57.378730	51.720	-0.580	0.340	0.300	51.750	-1.100	0.400																			1580016223.0	6.96	12.89
26/01/2020 05:23:44	26012020	260120	052344	51.760	12.611012	-57.378702	51.730	-0.570	0.210	0.850	51.770	-1.100	1.000																			1580016224.0	6.88	12.74
26/01/2020 05:23:45	26012020	260120	052345	51.770	12.611030	-57.378673	51.630	-0.370	-0.080	1.300	51.760	-1.300	1.500																			1580016225.0	7.26	13.45
26/01/2020 05:23:46	26012020	260120	052346	51.660	12.611048	-57.378643	51.460	-0.140	-0.410	1.490	51.620	-1.700	1.800																			1580016226.0	7.54	13.96
26/01/2020 05:23:47	26012020	260120	052347	51.500	12.611068	-57.378613	51.420	0.090	-0.670	1.300	51.490	-2.000	1.800																			1580016227.0	7.57	14.02
26/01/2020 05:23:48	26012020	260120	052348	51.480	12.611090	-57.378587	51.540	0.300	-0.680	0.720	51.500	-2.100	1.400																			1580016228.0	7.57	14.02
26/01/2020 05:23:49	26012020	260120	052349	51.630	12.611113	-57.378560	51.660	0.340	-0.320	0.050	51.660	-1.900	0.700																			1580016229.0	7.55	13.98
26/01/2020 05:23:50	26012020	260120	052350	51.750	12.611138	-57.378535	51.610	0.180	0.210	-0.530	51.750	-1.400	0.100																			1580016230.0	7.33	13.58
26/01/2020 05:23:51	26012020	260120	052351	51.700	12.611162	-57.378512	51.480	-0.020	0.460	-0.960	51.670	-1.000	-0.400																			1580016231.0	7.00	12.96
26/01/2020 05:23:52	26012020	260120	052352	51.580	12.611185	-57.378488	51.500	-0.060	0.170	-1.270	51.570	-1.000	-0.800																			1580016232.0	6.94	12.85
26/01/2020 05:23:53	26012020	260120	052353	51.600	12.611208	-57.378465	51.630	0.090	-0.340	-1.300	51.630	-1.500	-0.900																			1580016233.0	7.31	13.54
26/01/2020 05:23:54	26012020	260120	052354	51.730	12.611233	-57.378438	51.660	0.260	-0.650	-0.880	51.740	-1.900	-0.700																			1580016234.0	7.78	14.41
26/01/2020 05:23:55	26012020	260120	052355	51.750	12.611257	-57.378408	51.710	0.240	-0.660	-0.220	51.750	-2.100	-0.100																			1580016235.0	7.80	14.45
26/01/2020 05:23:56	26012020	260120	052356	51.780	12.611277	-57.378380	51.810	-0.030	-0.340	0.450	51.800	-1.900	0.500																			1580016236.0	7.58	14.04
26/01/2020 05:23:57	26012020	260120	052357	51.880	12.611295	-57.378350	51.830	-0.420	0.260	1.090	51.890	-1.400	1.200																			1580016237.0	7.34	13.59
26/01/2020 05:23:58	26012020	260120	052358	51.890	12.611312	-57.378322	51.800	-0.680	0.630	1.540	51.880	-0.900	1.800																			1580016238.0	6.98	12.93
26/01/2020 05:23:59	26012020	260120	052359	51.860	12.611327	-57.378295	51.840	-0.550	0.270	1.520	51.860	-0.900	2.000																			1580016239.0	6.73	12.46
26/01/2020 05:24:00	26012020	260120	052400	51.890	12.611347	-57.378267	51.860	-0.060	-0.490	1.110	51.900	-1.600	1.700	1014.60	25.90	25.90	20.80	20.80	0.00	73.00	73.00	433.00	25.60	15.00	10.00	75.00	6.40	15	3291.00	27.40	27.40	1580016240.0	7.11	13.17
26/01/2020 05:24:01	26012020	260120	052401	51.920	12.611370	-57.378238	51.780	0.440	-0.890	0.590	51.910	-2.200	1.200																			1580016241.0	7.86	14.56
26/01/2020 05:24:02	26012020	260120	052402	51.820	12.611397	-57.378212	51.650	0.630	-0.720	0.040	51.800	-2.300	0.700																			1580016242.0	8.05	14.91
26/01/2020 05:24:03	26012020	260120	052403	51.720	12.611422	-57.378185	51.720	0.510	-0.320	-0.590	51.710	-1.900	0.100																			1580016243.0	7.57	14.02
26/01/2020 05:24:04	26012020	260120	052404	51.790	12.611445	-57.378163	52.020	0.240	0.010	-1.160	51.790	-1.800	-0.100																			1580016244.0	7.17	13.28
26/01/2020 05:24:05	26012020	260120	052405	52.080	12.611470	-57.378140	52.290	-0.050	0.300	-1.320	52.150	-1.200	-0.900																			1580016245.0	7.13	13.20
26/01/2020 05:24:06	26012020	260120	052406	52.340	12.611493	-57.378115	52.350	-0.320	0.490	-1.040	52.370	-1.000	-0.800																			1580016246.0	7.20	13.33
26/01/2020 05:24:07	26012020	260120	052407	52.410	12.611513	-57.378090	52.310	-0.500	0.250	-0.500	52.400	-1.000	-0.400																			1580016247.0	7.07	13.09
26/01/2020 05:24:08	26012020	260120	052408	52.360	12.611533	-57.378062	52.280	-0.440	-0.320	0.090	52.350	-1.500	0.200																			1580016248.0	7.20	13.33
26/01/2020 05:24:09	26012020	260120	052409	52.320	12.611552	-57.378032	52.300	-0.130	-0.780	0.610	52.310	-2.000	0.800																			1580016249.0	7.61	14.09
26/01/2020 05:24:10	26012020	260120	052410	52.320	12.611573	-57.378000	52.360	0.240	-0.840	0.990	52.330	-2.300	1.200																			1580016250.0	7.82	14.48
26/01/2020 05:24:11	26012020	260120	052411	52.380	12.611592	-57.377970	52.390	0.380	-0.460	1.180	52.390	-2.100	1.500																			1580016251.0	7.64	14.15
26/01/2020 05:24:12	26012020	260120	052412	52.420	12.611612	-57.377942	52.400	0.190	0.090	1.070	52.420	-1.600	1.500																			1580016252.0	7.29	13.50
26/01/2020 05:24:13	26012020	260120	052413	52.430	12.611632	-57.377917	52.510	-0.080	0.300	0.590	52.450	-1.100	1.200																			1580016253.0	6.89	12.76
26/01/2020 05:24:14	26012020	260120	052414	52.560	12.611653	-57.377892	52.690	-0.130	0.050	-0.100	52.610	-1.200	0.600																			1580016254.0	6.88	12.74
26/01/2020 05:24:15	26012020	260120	052415	52.750	12.611677	-57.377867	52.700	-0.000	-0.220	-0.590	52.770	-1.500	-0.000																			1580016255.0	7.44	13.78
26/01/2020 05:24:16	26012020	260120	052416	52.770	12.611703	-57.377842	52.590	0.090	-0.240	-0.830	52.770	-1.600	-0.200																			1580016256.0	7.81	14.46
26/01/2020 05:24:17	26012020	260120	052417	52.670	12.611727	-57.377815	52.540	0.060	-0.160	-0.890	52.650	-1.600	-0.500																			1580016257.0	7.59	14.06
26/01/2020 05:24:18	26012020	260120	052418	52.630	12.611750	-57.377788	52.640	-0.010	-0.110	-0.800	52.630	-1.600	-0.500																			1580016258.0	7.30	13.52
26/01/2020 05:24:19	26012020	260120	052419	52.720	12.611770	-57.377763	52.940	0.020	-0.160	-0.660	52.750	-1.500	-0.300																			1580016259.0	7.20	13.33
26/01/2020 05:24:20	26012020	260120	052420	53.000	12.611792	-57.377737	53.280	0.130	-0.240	-0.440	53.080	-1.600	-0.200																			1580016260.0	7.25	13.43
26/01/2020 05:24:21	26012020	260120	052421	53.340	12.611812	-57.377708	53.370	0.100	-0.150	0.040	53.380	-1.600	0.200																			1580016261.0	7.40	13.70
26/01/2020 05:24:22	26012020	260120	052422	53.410	12.611832	-57.377678	53.240	-0.140	-0.010	0.650	53.390	-1.500	0.800																			1580016262.0	7.36	13.63
26/01/2020 05:24:23	26012020	260120	052423	53.270	12.611850	-57.377650	53.180	-0.330	-0.110	0.970	53.250	-1.400	1.300																			1580016263.0	7.14	13.22
26/01/2020 05:24:24	26012020	260120	052424	53.210	12.611868	-57.377622	53.280	-0.230	-0.420	0.880	53.220	-1.700	1.300																			1580016264.0	7.17	13.28
26/01/2020 05:24:25	26012020	260120	052425	53.310	12.611890	-57.377595	53.390	0.100	-0.580	0.630	53.340	-2.000	1.100																			1580016265.0	7.47	13.83
26/01/2020 05:24:26	26012020	260120	052426	53.440	12.611912	-57.377567	53.450	0.340	-0.380	0.350	53.450	-1.900	0.900																			1580016266.0	7.67	14.20
26/01/2020 05:24:27	26012020	260120	052427	53.500	12.611933	-57.377538	53.490	0.290	-0.050	-0.020	53.510	-1.600	0.500																			1580016267.0	7.44	13.78
26/01/2020 05:24:28	26012020	260120	052428	53.540	12.611955	-57.377513	53.470	0.080	0.040	-0.470	53.550	-1.400	0.100																			1580016268.0	7.15	13.24
26/01/2020 05:24:29	26012020	260120	052429	53.550	12.611978	-57.377488	53.420	-0.060	-0.030	-0.820	53.540	-1.400	-0.300																			1580016269.0	7.24	13.41
26/01/2020 05:24:30	26012020	260120	052430	53.510	12.612002	-57.377462	53.460	-0.100	0.020	-0.930	53.510	-1.400	-0.500																			1580016270.0	7.53	13.95
26/01/2020 05:24:31	26012020	260120	052431	53.550	12.612025	-57.377437	53.640	-0.140	0.120	-0.880	53.580	-1.300	-0.500																			1580016271.0	7.48	13.85
26/01/2020 05:24:32	26012020	260120	052432	53.750	12.612047	-57.377408	53.880	-0.250	0.080	-0.760	53.790	-1.300	-0.400																			1580016272.0	7.22	13.37
26/01/2020 05:24:33	26012020	260120	052433	53.980	12.612067	-57.377382	53.980	-0.320	-0.160	-0.500	54.010	-1.400	-0.300																			1580016273.0	7.17	13.28
26/01/2020 05:24:34	26012020	260120	052434	54.080	12.612085	-57.377353	54.000	-0.150	-0.460	-0.080	54.090	-1.700	0.100																			1580016274.0	7.30	13.52
26/01/2020 05:24:35	26012020	260120	052435	54.090	12.612105	-57.377325	53.950	0.210	-0.570	0.410	54.090	-2.000	0.600																			1580016275.0	7.50	13.89
26/01/2020 05:24:36	26012020	260120	052436	54.030	12.612125	-57.377295	53.840	0.440	-0.480	0.770	54.010	-1.900	1.000																			1580016276.0	7.55	13.98
26/01/2020 05:24:37	26012020	260120	052437	53.920	12.612143	-57.377265	53.790	0.360	-0.300	0.870	53.890	-1.800	1.200																			1580016277.0	7.43	13.76
26/01/2020 05:24:38	26012020	260120	052438	53.870	12.612163	-57.377237	53.900	0.100	-0.100	0.630	53.880	-1.600	1.200																			1580016278.0	7.28	13.48
26/01/2020 05:24:39	26012020	260120	052439	53.970	12.612185	-57.377210	54.070	-0.090	0.050	0.190	54.000	-1.400	0.800																			1580016279.0	7.22	13.37
26/01/2020 05:24:40	26012020	260120	052440	54.140	12.612207	-57.377185	54.150	-0.120	0.120	-0.150	54.160	-1.300	0.400																			1580016280.0	7.24	13.41
26/01/2020 05:24:41	26012020	260120	052441	54.230	12.612228	-57.377158	54.130	-0.090	0.020	-0.380	54.230	-1.300	0.100																			1580016281.0	7.30	13.52
26/01/2020 05:24:42	26012020	260120	052442	54.210	12.612250	-57.377132	54.070	-0.080	-0.240	-0.600	54.210	-1.400	0.000																			1580016282.0	7.37	13.65
26/01/2020 05:24:43	26012020	260120	052443	54.150	12.612273	-57.377103	54.010	-0.120	-0.380	-0.750	54.140	-1.800	-0.300																			1580016283.0	7.56	14.00
26/01/2020 05:24:44	26012020	260120	052444	54.110	12.612295	-57.377075	54.030	-0.140	-0.260	-0.750	54.110	-1.700	-0.400																			1580016284.0	7.61	14.09
26/01/2020 05:24:45	26012020	260120	052445	54.130	12.612317	-57.377048	54.090	-0.100	-0.060	-0.600	54.140	-1.600	-0.300																			1580016285.0	7.39	13.69
26/01/2020 05:24:46	26012020	260120	052446	54.160	12.612337	-57.377022	54.070	0.010	0.030	-0.290	54.160	-1.400	-0.100																			1580016286.0	7.16	13.26
26/01/2020 05:24:47	26012020	260120	052447	54.150	12.612355	-57.376993	54.070	0.050	0.010	0.060	54.140	-1.400	0.300																			1580016287.0	7.18	13.30
26/01/2020 05:24:48	26012020	260120	052448	54.140	12.612375	-57.376965	54.110	-0.050	-0.080	0.340	54.140	-1.400	0.600																			1580016288.0	7.32	13.56
26/01/2020 05:24:49	26012020	260120	052449	54.170	12.612393	-57.376935	54.200	-0.140	-0.320	0.470	54.180	-1.600	0.800																			1580016289.0	7.30	13.52
26/01/2020 05:24:50	26012020	260120	052450	54.260	12.612413	-57.376907	54.240	-0.060	-0.560	0.500	54.270	-1.900	0.900																			1580016290.0	7.38	13.67
26/01/2020 05:24:51	26012020	260120	052451	54.280	12.612435	-57.376878	54.150	0.200	-0.600	0.520	54.270	-2.000	0.900																			1580016291.0	7.57	14.02
26/01/2020 05:24:52	26012020	260120	052452	54.200	12.612455	-57.376850	54.090	0.500	-0.470	0.570	54.170	-1.900	0.900																			1580016292.0	7.55	13.98
26/01/2020 05:24:53	26012020	260120	052453	54.120	12.612477	-57.376822	54.110	0.580	-0.260	0.510	54.120	-1.800	0.900																			1580016293.0	7.44	13.78
26/01/2020 05:24:54	26012020	260120	052454	54.140	12.612497	-57.376793	54.130	0.320	0.080	0.190	54.160	-1.500	0.700																			1580016294.0	7.40	13.70
26/01/2020 05:24:55	26012020	260120	052455	54.180	12.612518	-57.376767	54.030	-0.170	0.490	-0.190	54.170	-1.100	0.300																			1580016295.0	7.34	13.59
26/01/2020 05:24:56	26012020	260120	052456	54.100	12.612540	-57.376740	53.970	-0.580	0.650	-0.470	54.090	-0.800	0.000																			1580016296.0	7.14	13.22
26/01/2020 05:24:57	26012020	260120	052457	54.060	12.612562	-57.376717	54.140	-0.650	0.230	-0.720	54.080	-0.900	-0.200																			1580016297.0	7.00	12.96
26/01/2020 05:24:58	26012020	260120	052458	54.230	12.612583	-57.376690	54.340	-0.420	-0.420	-0.880	54.280	-1.600	-0.500																			1580016298.0	7.30	13.52
26/01/2020 05:24:59	26012020	260120	052459	54.460	12.612605	-57.376662	54.360	-0.150	-0.720	-0.690	54.490	-2.100	-0.500																			1580016299.0	7.78	14.41
26/01/2020 05:25:00	26012020	260120	052500	54.490	12.612627	-57.376632	54.190	0.020	-0.580	-0.160	54.470	-2.100	-0.100	1014.50	25.90	25.90	20.70	20.80	0.00	73.00	73.00	433.00	25.60	12.00	10.20	72.00	6.60	15	3202.00	27.40	27.40	1580016300.0	7.74	14.33
26/01/2020 05:25:01	26012020	260120	052501	54.320	12.612645	-57.376602	54.090	0.120	-0.450	0.310	54.280	-1.900	0.500																			1580016301.0	7.29	13.50
26/01/2020 05:25:02	26012020	260120	052502	54.200	12.612662	-57.376573	54.120	0.220	-0.490	0.450	54.190	-1.900	0.800																			1580016302.0	7.10	13.15
26/01/2020 05:25:03	26012020	260120	052503	54.210	12.612680	-57.376543	54.100	0.330	-0.440	0.390	54.220	-1.900	0.800																			1580016303.0	7.37	13.65
26/01/2020 05:25:04	26012020	260120	052504	54.200	12.612702	-57.376515	54.030	0.450	-0.210	0.350	54.180	-1.700	0.700																			1580016304.0	7.55	13.98
26/01/2020 05:25:05	26012020	260120	052505	54.120	12.612723	-57.376488	54.050	0.520	-0.020	0.250	54.110	-1.500	0.700																			1580016305.0	7.45	13.80
26/01/2020 05:25:06	26012020	260120	052506	54.150	12.612745	-57.376462	54.140	0.430	0.050	0.090	54.150	-1.400	0.600																			1580016306.0	7.36	13.63
26/01/2020 05:25:07	26012020	260120	052507	54.240	12.612767	-57.376433	54.100	0.060	0.230	-0.010	54.250	-1.300	0.400																			1580016307.0	7.51	13.91
26/01/2020 05:25:08	26012020	260120	052508	54.200	12.612788	-57.376405	54.010	-0.470	0.490	-0.060	54.200	-1.200	0.400																			1580016308.0	7.49	13.87
26/01/2020 05:25:09	26012020	260120	052509	54.090	12.612808	-57.376378	54.030	-0.840	0.470	-0.170	54.080	-0.900	0.300																			1580016309.0	7.16	13.26
26/01/2020 05:25:10	26012020	260120	052510	54.110	12.612828	-57.376352	54.190	-0.810	0.030	-0.280	54.140	-1.100	0.100																			1580016310.0	7.03	13.02
26/01/2020 05:25:11	26012020	260120	052511	54.270	12.612850	-57.376325	54.270	-0.410	-0.550	-0.270	54.300	-1.700	0.100																			1580016311.0	7.30	13.52
26/01/2020 05:25:12	26012020	260120	052512	54.360	12.612870	-57.376295	54.180	0.080	-0.920	-0.130	54.360	-2.200	0.200																			1580016312.0	7.64	14.15
26/01/2020 05:25:13	26012020	260120	052513	54.260	12.612890	-57.376265	53.970	0.420	-0.960	0.110	54.220	-2.400	0.400																			1580016313.0	7.71	14.28
26/01/2020 05:25:14	26012020	260120	052514	54.050	12.612910	-57.376235	53.830	0.590	-0.720	0.230	54.010	-2.300	0.600																			1580016314.0	7.53	13.95
26/01/2020 05:25:15	26012020	260120	052515	53.920	12.612930	-57.376208	53.790	0.620	-0.240	0.140	53.900	-1.900	0.600																			1580016315.0	7.35	13.61
26/01/2020 05:25:16	26012020	260120	052516	53.880	12.612950	-57.376180	53.760	0.480	0.310	0.020	53.870	-1.300	0.400																			1580016316.0	7.23	13.39
26/01/2020 05:25:17	26012020	260120	052517	53.840	12.612972	-57.376155	53.710	0.160	0.530	0.030	53.830	-0.900	0.400																			1580016317.0	7.07	13.09
26/01/2020 05:25:18	26012020	260120	052518	53.780	12.612993	-57.376128	53.680	-0.170	0.190	0.050	53.770	-1.000	0.400																			1580016318.0	7.08	13.11
26/01/2020 05:25:19	26012020	260120	052519	53.750	12.613013	-57.376102	53.710	-0.300	-0.370	0.070	53.750	-1.500	0.400																			1580016319.0	7.47	13.83
26/01/2020 05:25:20	26012020	260120	052520	53.770	12.613037	-57.376072	53.720	-0.280	-0.510	0.190	53.780	-1.900	0.500																			1580016320.0	7.94	14.70
26/01/2020 05:25:21	26012020	260120	052521	53.770	12.613058	-57.376042	53.690	-0.320	-0.090	0.370	53.770	-1.700	0.700																			1580016321.0	7.92	14.67
26/01/2020 05:25:22	26012020	260120	052522	53.740	12.613077	-57.376012	53.660	-0.450	0.340	0.490	53.730	-1.200	0.800																			1580016322.0	7.30	13.52
26/01/2020 05:25:23	26012020	260120	052523	53.720	12.613093	-57.375985	53.620	-0.420	0.260	0.420	53.710	-1.000	0.800																			1580016323.0	6.75	12.50
26/01/2020 05:25:24	26012020	260120	052524	53.690	12.613112	-57.375958	53.540	-0.100	-0.320	0.180	53.670	-1.400	0.700																			1580016324.0	6.93	12.83
26/01/2020 05:25:25	26012020	260120	052525	53.600	12.613133	-57.375930	53.390	0.380	-0.810	-0.050	53.580	-2.000	0.400																			1580016325.0	7.54	13.96
26/01/2020 05:25:26	26012020	260120	052526	53.450	12.613157	-57.375900	53.140	0.710	-0.800	-0.140	53.400	-2.300	0.300																			1580016326.0	7.97	14.76
26/01/2020 05:25:27	26012020	260120	052527	53.210	12.613180	-57.375873	53.030	0.710	-0.460	-0.290	53.170	-2.000	0.200																			1580016327.0	7.73	14.32
26/01/2020 05:25:28	26012020	260120	052528	53.090	12.613202	-57.375847	53.150	0.430	-0.070	-0.550	53.100	-1.700	-0.100																			1580016328.0	7.27	13.46
26/01/2020 05:25:29	26012020	260120	052529	53.210	12.613225	-57.375822	53.310	-0.030	0.310	-0.580	53.250	-1.300	-0.200																			1580016329.0	7.12	13.19
26/01/2020 05:25:30	26012020	260120	052530	53.370	12.613247	-57.375797	53.330	-0.460	0.520	-0.210	53.390	-0.900	-0.000																			1580016330.0	7.13	13.20
26/01/2020 05:25:31	26012020	260120	052531	53.380	12.613265	-57.375770	53.170	-0.640	0.240	0.390	53.370	-1.000	0.500																			1580016331.0	7.07	13.09
26/01/2020 05:25:32	26012020	260120	052532	53.250	12.613283	-57.375740	53.050	-0.450	-0.450	0.870	53.250	-1.100	0.700																			1580016332.0	7.30	13.52
26/01/2020 05:25:33	26012020	260120	052533	53.110	12.613302	-57.375708	52.980	-0.070	-0.900	1.120	53.100	-2.200	1.400																			1580016333.0	7.85	14.54
26/01/2020 05:25:34	26012020	260120	052534	53.030	12.613320	-57.375675	52.870	0.140	-0.600	1.150	53.010	-2.200	1.500																			1580016334.0	8.10	15.00
26/01/2020 05:25:35	26012020	260120	052535	52.920	12.613340	-57.375645	52.810	0.050	0.070	0.910	52.890	-1.600	1.400																			1580016335.0	7.58	14.04
26/01/2020 05:25:36	26012020	260120	052536	52.840	12.613360	-57.375618	52.770	-0.110	0.390	0.370	52.840	-1.100	1.000																			1580016336.0	6.81	12.61
26/01/2020 05:25:37	26012020	260120	052537	52.810	12.613380	-57.375595	52.710	-0.010	0.090	-0.220	52.810	-1.100	0.400																			1580016337.0	6.73	12.46
26/01/2020 05:25:38	26012020	260120	052538	52.760	12.613405	-57.375572	52.620	0.370	-0.430	-0.570	52.750	-1.600	-0.100																			1580016338.0	7.36	13.63
26/01/2020 05:25:39	26012020	260120	052539	52.690	12.613430	-57.375545	52.560	0.620	-0.700	-0.740	52.670	-2.000	-0.300																			1580016339.0	7.90	14.63
26/01/2020 05:25:40	26012020	260120	052540	52.620	12.613455	-57.375517	52.490	0.410	-0.390	-0.790	52.600	-2.000	-0.400																			1580016340.0	7.96	14.74
26/01/2020 05:25:41	26012020	260120	052541	52.550	12.613477	-57.375488	52.460	-0.170	0.250	-0.660	52.540	-1.400	-0.400																			1580016341.0	7.54	13.96
26/01/2020 05:25:42	26012020	260120	052542	52.500	12.613497	-57.375463	52.490	-0.600	0.540	-0.310	52.500	-0.900	-0.100																			1580016342.0	6.82	12.63
26/01/2020 05:25:43	26012020	260120	052543	52.530	12.613515	-57.375438	52.680	-0.520	0.120	0.080	52.560	-1.000	0.300																			1580016343.0	6.62	12.26
26/01/2020 05:25:44	26012020	260120	052544	52.720	12.613535	-57.375410	52.800	-0.140	-0.520	0.490	52.720	-1.200	0.400																			1580016344.0	7.24	13.41
26/01/2020 05:25:45	26012020	260120	052545	52.850	12.613553	-57.375378	52.660	0.130	-0.760	0.960	52.850	-2.100	1.100																			1580016345.0	7.93	14.69
26/01/2020 05:25:46	26012020	260120	052546	52.720	12.613573	-57.375347	52.330	0.120	-0.500	1.350	52.670	-2.100	1.600																			1580016346.0	7.91	14.65
26/01/2020 05:25:47	26012020	260120	052547	52.380	12.613592	-57.375317	52.000	0.020	-0.090	1.330	52.310	-1.700	1.800																			1580016347.0	7.40	13.70
26/01/2020 05:25:48	26012020	260120	052548	52.050	12.613610	-57.375290	51.870	0.100	0.040	0.790	52.020	-1.400	1.500																			1580016348.0	6.96	12.89
26/01/2020 05:25:49	26012020	260120	052549	51.930	12.613633	-57.375265	51.910	0.370	-0.210	-0.080	51.930	-1.500	0.700																			1580016349.0	7.03	13.02
26/01/2020 05:25:50	26012020	260120	052550	51.980	12.613658	-57.375242	51.990	0.500	-0.320	-0.850	52.000	-1.700	-0.200																			1580016350.0	7.57	14.02
26/01/2020 05:25:51	26012020	260120	052551	52.080	12.613685	-57.375217	52.090	0.220	0.030	-1.200	52.100	-1.600	-0.700																			1580016351.0	7.90	14.63
26/01/2020 05:25:52	26012020	260120	052552	52.170	12.613710	-57.375192	52.080	-0.320	0.420	-1.120	52.180	-1.100	-0.800																			1580016352.0	7.43	13.76
26/01/2020 05:25:53	26012020	260120	052553	52.160	12.613732	-57.375167	52.000	-0.670	0.310	-0.780	52.140	-1.000	-0.600																			1580016353.0	6.83	12.65
26/01/2020 05:25:54	26012020	260120	052554	52.080	12.613750	-57.375142	52.060	-0.550	-0.310	-0.430	52.080	-1.400	-0.200																			1580016354.0	6.91	12.80
26/01/2020 05:25:55	26012020	260120	052555	52.140	12.613770	-57.375112	52.180	-0.130	-0.780	0.100	52.170	-2.000	0.200																			1580016355.0	7.50	13.89
26/01/2020 05:25:56	26012020	260120	052556	52.240	12.613792	-57.375080	52.060	0.140	-0.570	0.840	52.240	-2.100	0.400																			1580016356.0	7.93	14.69
26/01/2020 05:25:57	26012020	260120	052557	52.100	12.613808	-57.375050	51.830	0.140	-0.130	1.300	52.050	-1.700	1.500																			1580016357.0	7.57	14.02
26/01/2020 05:25:58	26012020	260120	052558	51.870	12.613825	-57.375022	51.810	0.160	-0.120	1.190	51.870	-1.500	1.600																			1580016358.0	6.90	12.78
26/01/2020 05:25:59	26012020	260120	052559	51.840	12.613845	-57.374995	51.850	0.330	-0.390	0.770	51.850	-1.700	1.300																			1580016359.0	6.96	12.89
26/01/2020 05:26:00	26012020	260120	052600	51.880	12.613868	-57.374968	51.830	0.420	-0.350	0.290	51.890	-1.800	0.900	1014.50	25.90	25.90	20.70	20.70	0.00	73.00	73.00	433.00	25.60	15.00	9.90	78.00	6.30	16	3261.00	27.40	27.40	1580016360.0	7.62	14.11
26/01/2020 05:26:01	26012020	260120	052601	51.860	12.613893	-57.374943	51.850	0.290	-0.020	-0.190	51.860	-1.600	0.400																			1580016361.0	7.72	14.30
26/01/2020 05:26:02	26012020	260120	052602	51.880	12.613918	-57.374918	51.990	0.030	0.210	-0.620	51.900	-1.300	-0.100																			1580016362.0	7.30	13.52
26/01/2020 05:26:03	26012020	260120	052603	52.030	12.613940	-57.374895	52.110	-0.140	0.160	-0.860	52.060	-1.200	-0.400																			1580016363.0	7.05	13.06
26/01/2020 05:26:04	26012020	260120	052604	52.160	12.613963	-57.374870	52.050	-0.220	0.050	-0.770	52.160	-1.300	-0.500																			1580016364.0	7.21	13.35
26/01/2020 05:26:05	26012020	260120	052605	52.110	12.613985	-57.374842	51.920	-0.330	0.030	-0.400	52.080	-1.400	-0.200																			1580016365.0	7.41	13.72
26/01/2020 05:26:06	26012020	260120	052606	51.980	12.614007	-57.374815	51.970	-0.420	-0.110	-0.080	51.970	-1.400	0.200																			1580016366.0	7.28	13.48
26/01/2020 05:26:07	26012020	260120	052607	52.030	12.614025	-57.374787	52.160	-0.290	-0.510	0.080	52.060	-1.700	0.400																			1580016367.0	7.15	13.24
26/01/2020 05:26:08	26012020	260120	052608	52.190	12.614047	-57.374760	52.220	0.070	-0.780	0.340	52.220	-1.900	0.400																			1580016368.0	7.37	13.65
26/01/2020 05:26:09	26012020	260120	052609	52.290	12.614068	-57.374732	52.140	0.320	-0.570	0.730	52.280	-2.100	0.900																			1580016369.0	7.67	14.20
26/01/2020 05:26:10	26012020	260120	052610	52.210	12.614088	-57.374702	52.130	0.230	-0.130	0.900	52.190	-1.700	1.200																			1580016370.0	7.46	13.82
26/01/2020 05:26:11	26012020	260120	052611	52.170	12.614107	-57.374675	52.220	-0.000	0.100	0.670	52.180	-1.300	1.200																			1580016371.0	7.01	12.98
26/01/2020 05:26:12	26012020	260120	052612	52.250	12.614127	-57.374650	52.400	0.000	-0.050	0.200	52.250	-1.300	1.100																			1580016372.0	6.94	12.85
26/01/2020 05:26:13	26012020	260120	052613	52.430	12.614152	-57.374625	52.560	0.260	-0.270	-0.250	52.470	-1.600	0.300																			1580016373.0	7.34	13.59
26/01/2020 05:26:14	26012020	260120	052614	52.610	12.614177	-57.374598	52.610	0.330	-0.150	-0.440	52.620	-1.600	-0.000																			1580016374.0	7.75	14.35
26/01/2020 05:26:15	26012020	260120	052615	52.650	12.614198	-57.374570	52.590	0.000	0.240	-0.470	52.650	-1.300	-0.100																			1580016375.0	7.59	14.06
26/01/2020 05:26:16	26012020	260120	052616	52.640	12.614218	-57.374545	52.580	-0.420	0.390	-0.530	52.640	-1.000	-0.100																			1580016376.0	7.03	13.02
26/01/2020 05:26:17	26012020	260120	052617	52.610	12.614238	-57.374520	52.450	-0.480	0.040	-0.560	52.600	-1.100	-0.200																			1580016377.0	6.77	12.54
26/01/2020 05:26:18	26012020	260120	052618	52.510	12.614262	-57.374495	52.350	-0.110	-0.600	-0.510	52.490	-1.700	-0.200																			1580016378.0	7.15	13.24
26/01/2020 05:26:19	26012020	260120	052619	52.410	12.614285	-57.374467	52.480	0.290	-0.970	-0.450	52.410	-2.300	-0.100																			1580016379.0	7.69	14.24
26/01/2020 05:26:20	26012020	260120	052620	52.530	12.614308	-57.374438	52.770	0.280	-0.640	-0.340	52.580	-2.300	-0.000																			1580016380.0	7.90	14.63
26/01/2020 05:26:21	26012020	260120	052621	52.820	12.614330	-57.374410	53.030	-0.140	0.150	-0.140	52.880	-1.600	0.100																			1580016381.0	7.46	13.82
26/01/2020 05:26:22	26012020	260120	052622	53.080	12.614348	-57.374385	53.070	-0.480	0.690	0.240	53.110	-0.900	0.400																			1580016382.0	6.68	12.37
26/01/2020 05:26:23	26012020	260120	052623	53.140	12.614365	-57.374360	52.970	-0.380	0.450	0.620	53.120	-0.700	0.800																			1580016383.0	6.39	11.83
26/01/2020 05:26:24	26012020	260120	052624	53.040	12.614382	-57.374333	52.950	0.130	-0.510	0.660	53.040	-1.400	1.000																			1580016384.0	6.88	12.74
26/01/2020 05:26:25	26012020	260120	052625	53.040	12.614403	-57.374303	52.990	0.640	-1.250	0.420	53.040	-2.400	0.900																			1580016385.0	7.79	14.43
26/01/2020 05:26:26	26012020	260120	052626	53.080	12.614428	-57.374272	52.980	0.720	-0.940	0.140	53.090	-2.600	0.600																			1580016386.0	8.35	15.46
26/01/2020 05:26:27	26012020	260120	052627	53.080	12.614452	-57.374245	52.920	0.340	0.100	-0.090	53.080	-1.800	0.400																			1580016387.0	7.81	14.46
26/01/2020 05:26:28	26012020	260120	052628	53.040	12.614473	-57.374222	52.970	-0.180	0.790	-0.330	53.040	-0.800	0.200																			1580016388.0	6.64	12.30
26/01/2020 05:26:29	26012020	260120	052629	53.090	12.614492	-57.374200	53.140	-0.460	0.590	-0.580	53.110	-0.600	-0.100																			1580016389.0	6.24	11.56
26/01/2020 05:26:30	26012020	260120	052630	53.250	12.614513	-57.374175	53.310	-0.400	-0.110	-0.770	53.290	-1.200	-0.300																			1580016390.0	6.90	12.78
26/01/2020 05:26:31	26012020	260120	052631	53.430	12.614537	-57.374147	53.420	-0.260	-0.570	-0.770	53.460	-1.800	-0.400																			1580016391.0	7.73	14.32
26/01/2020 05:26:32	26012020	260120	052632	53.550	12.614560	-57.374118	53.460	-0.240	-0.450	-0.450	53.560	-2.000	-0.300																			1580016392.0	7.89	14.61
26/01/2020 05:26:33	26012020	260120	052633	53.560	12.614580	-57.374090	53.440	-0.330	-0.010	-0.000	53.560	-1.600	0.200																			1580016393.0	7.39	13.69
26/01/2020 05:26:34	26012020	260120	052634	53.520	12.614597	-57.374062	53.420	-0.320	0.180	0.290	53.520	-1.400	0.300																			1580016394.0	6.76	12.52
26/01/2020 05:26:35	26012020	260120	052635	53.500	12.614613	-57.374037	53.530	-0.040	-0.160	0.330	53.510	-1.300	0.700																			1580016395.0	6.61	12.24
26/01/2020 05:26:36	26012020	260120	052636	53.610	12.614633	-57.374010	53.760	0.450	-0.750	0.180	53.650	-1.900	0.600																			1580016396.0	7.05	13.06
26/01/2020 05:26:37	26012020	260120	052637	53.840	12.614655	-57.373982	53.840	0.800	-0.930	0.100	53.880	-2.300	0.500																			1580016397.0	7.66	14.19
26/01/2020 05:26:38	26012020	260120	052638	53.920	12.614678	-57.373952	53.590	0.720	-0.450	0.230	53.890	-2.100	0.500																			1580016398.0	7.82	14.48
26/01/2020 05:26:39	26012020	260120	052639	53.670	12.614700	-57.373925	53.350	0.310	0.170	0.350	53.610	-1.500	0.700																			1580016399.0	7.28	13.48
26/01/2020 05:26:40	26012020	260120	052640	53.430	12.614718	-57.373902	53.410	-0.100	0.340	0.120	53.420	-1.100	0.600																			1580016400.0	6.72	12.45
26/01/2020 05:26:41	26012020	260120	052641	53.500	12.614740	-57.373877	53.650	-0.330	0.200	-0.300	53.540	-1.100	0.300																			1580016401.0	6.87	12.72
26/01/2020 05:26:42	26012020	260120	052642	53.750	12.614763	-57.373850	53.820	-0.430	0.110	-0.550	53.790	-1.300	-0.100																			1580016402.0	7.38	13.67
26/01/2020 05:26:43	26012020	260120	052643	53.940	12.614785	-57.373823	53.870	-0.440	0.020	-0.440	53.950	-1.300	-0.200																			1580016403.0	7.41	13.72
26/01/2020 05:26:44	26012020	260120	052644	53.990	12.614805	-57.373797	53.840	-0.340	-0.200	-0.080	53.990	-1.500	0.100																			1580016404.0	7.19	13.32
26/01/2020 05:26:45	26012020	260120	052645	53.930	12.614822	-57.373767	53.760	-0.170	-0.430	0.200	53.910	-1.700	0.500																			1580016405.0	7.24	13.41
26/01/2020 05:26:46	26012020	260120	052646	53.830	12.614840	-57.373737	53.660	0.020	-0.470	0.250	53.830	-1.800	0.500																			1580016406.0	7.36	13.63
26/01/2020 05:26:47	26012020	260120	052647	53.740	12.614860	-57.373710	53.600	0.170	-0.310	0.200	53.720	-1.800	0.600																			1580016407.0	7.31	13.54
26/01/2020 05:26:48	26012020	260120	052648	53.670	12.614882	-57.373683	53.610	0.250	-0.140	0.080	53.670	-1.700	0.600																			1580016408.0	7.13	13.20
26/01/2020 05:26:49	26012020	260120	052649	53.700	12.614902	-57.373658	53.700	0.250	-0.120	-0.090	53.720	-1.500	0.400																			1580016409.0	7.01	12.98
26/01/2020 05:26:50	26012020	260120	052650	53.790	12.614923	-57.373632	53.750	0.220	-0.210	-0.270	53.810	-1.600	0.200																			1580016410.0	7.12	13.19
26/01/2020 05:26:51	26012020	260120	052651	53.840	12.614945	-57.373605	53.770	0.250	-0.290	-0.300	53.840	-1.700	0.100																			1580016411.0	7.30	13.52
26/01/2020 05:26:52	26012020	260120	052652	53.840	12.614968	-57.373578	53.720	0.260	-0.240	-0.190	53.830	-1.700	0.100																			1580016412.0	7.40	13.70
26/01/2020 05:26:53	26012020	260120	052653	53.790	12.614988	-57.373552	53.710	0.160	-0.110	-0.100	53.780	-1.600	0.200																			1580016413.0	7.37	13.65
26/01/2020 05:26:54	26012020	260120	052654	53.780	12.615008	-57.373523	53.780	0.010	0.020	0.000	53.780	-1.400	0.300																			1580016414.0	7.22	13.37
26/01/2020 05:26:55	26012020	260120	052655	53.840	12.615030	-57.373497	53.820	-0.150	0.080	0.230	53.860	-1.300	0.500																			1580016415.0	7.13	13.20
26/01/2020 05:26:56	26012020	260120	052656	53.880	12.615048	-57.373470	53.750	-0.300	0.020	0.430	53.880	-1.300	0.700																			1580016416.0	7.12	13.19
26/01/2020 05:26:57	26012020	260120	052657	53.840	12.615067	-57.373442	53.660	-0.410	-0.170	0.500	53.830	-1.500	0.800																			1580016417.0	7.19	13.32
26/01/2020 05:26:58	26012020	260120	052658	53.760	12.615087	-57.373413	53.670	-0.370	-0.360	0.440	53.750	-1.700	0.900																			1580016418.0	7.31	13.54
26/01/2020 05:26:59	26012020	260120	052659	53.760	12.615107	-57.373385	53.820	-0.150	-0.410	0.240	53.780	-1.800	0.700																			1580016419.0	7.40	13.70
26/01/2020 05:27:00	26012020	260120	052700	53.890	12.615128	-57.373357	53.900	0.080	-0.250	0.030	53.930	-1.700	0.500	1014.50	25.90	25.90	20.60	20.70	0.00	72.00	72.00	433.00	25.60	15.00	10.10	76.00	6.60	16	3216.00	27.40	27.40	1580016420.0	7.38	13.67
26/01/2020 05:27:01	26012020	260120	052701	53.980	12.615148	-57.373330	53.800	0.150	0.010	-0.110	53.980	-1.500	0.300																			1580016421.0	7.24	13.41
26/01/2020 05:27:02	26012020	260120	052702	53.880	12.615168	-57.373303	53.680	0.130	0.070	-0.300	53.860	-1.300	0.200																			1580016422.0	7.01	12.98
26/01/2020 05:27:03	26012020	260120	052703	53.780	12.615188	-57.373278	53.660	0.200	-0.210	-0.530	53.780	-1.400	-0.100																			1580016423.0	6.96	12.89
26/01/2020 05:27:04	26012020	260120	052704	53.770	12.615212	-57.373252	53.620	0.330	-0.510	-0.630	53.760	-1.800	-0.200																			1580016424.0	7.31	13.54
26/01/2020 05:27:05	26012020	260120	052705	53.710	12.615235	-57.373225	53.630	0.400	-0.580	-0.700	53.710	-2.000	-0.300																			1580016425.0	7.62	14.11
26/01/2020 05:27:06	26012020	260120	052706	53.730	12.615257	-57.373198	53.770	0.290	-0.300	-0.590	53.750	-1.900	-0.300																			1580016426.0	7.59	14.06
26/01/2020 05:27:07	26012020	260120	052707	53.850	12.615280	-57.373172	53.790	-0.000	0.220	-0.100	53.860	-1.400	0.000																			1580016427.0	7.33	13.58
26/01/2020 05:27:08	26012020	260120	052708	53.850	12.615298	-57.373145	53.730	-0.360	0.510	0.470	53.840	-1.000	0.600																			1580016428.0	6.95	12.87
26/01/2020 05:27:09	26012020	260120	052709	53.790	12.615315	-57.373117	53.750	-0.510	0.200	0.860	53.780	-1.000	1.100																			1580016429.0	6.78	12.56
26/01/2020 05:27:10	26012020	260120	052710	53.810	12.615332	-57.373088	53.770	-0.390	-0.370	1.100	53.820	-1.500	1.400																			1580016430.0	7.14	13.22
26/01/2020 05:27:11	26012020	260120	052711	53.830	12.615352	-57.373057	53.750	-0.230	-0.610	1.090	53.830	-1.700	1.400																			1580016431.0	7.71	14.28
26/01/2020 05:27:12	26012020	260120	052712	53.820	12.615370	-57.373027	53.700	-0.150	-0.380	0.840	53.820	-1.900	1.300																			1580016432.0	7.72	14.30
26/01/2020 05:27:13	26012020	260120	052713	53.770	12.615390	-57.372998	53.630	-0.070	0.010	0.460	53.770	-1.500	1.000																			1580016433.0	7.21	13.35
26/01/2020 05:27:14	26012020	260120	052714	53.730	12.615412	-57.372975	53.580	0.160	0.020	0.010	53.720	-1.300	0.600																			1580016434.0	6.78	12.56
26/01/2020 05:27:15	26012020	260120	052715	53.690	12.615432	-57.372950	53.500	0.450	-0.370	-0.510	53.670	-1.600	0.100																			1580016435.0	6.90	12.78
26/01/2020 05:27:16	26012020	260120	052716	53.600	12.615455	-57.372923	53.440	0.560	-0.640	-1.030	53.590	-1.900	-0.400																			1580016436.0	7.49	13.87
26/01/2020 05:27:17	26012020	260120	052717	53.530	12.615480	-57.372897	53.430	0.400	-0.460	-1.310	53.530	-2.000	-0.800																			1580016437.0	7.82	14.48
26/01/2020 05:27:18	26012020	260120	052718	53.530	12.615505	-57.372872	53.520	0.100	0.000	-1.220	53.530	-1.600	-0.900																			1580016438.0	7.53	13.95
26/01/2020 05:27:19	26012020	260120	052719	53.600	12.615527	-57.372847	53.560	-0.180	0.350	-0.810	53.610	-1.200	-0.700																			1580016439.0	7.03	13.02
26/01/2020 05:27:20	26012020	260120	052720	53.640	12.615545	-57.372820	53.520	-0.340	0.320	-0.190	53.640	-1.000	-0.100																			1580016440.0	6.88	12.74
26/01/2020 05:27:21	26012020	260120	052721	53.590	12.615563	-57.372792	53.500	-0.380	-0.030	0.540	53.580	-1.200	0.600																			1580016441.0	7.09	13.13
26/01/2020 05:27:22	26012020	260120	052722	53.540	12.615582	-57.372762	53.520	-0.330	-0.330	1.130	53.540	-1.600	1.300																			1580016442.0	7.48	13.85
26/01/2020 05:27:23	26012020	260120	052723	53.570	12.615598	-57.372730	53.620	-0.250	-0.390	1.410	53.570	-1.800	1.700																			1580016443.0	7.63	14.13
26/01/2020 05:27:24	26012020	260120	052724	53.670	12.615617	-57.372700	53.690	-0.120	-0.290	1.480	53.670	-1.800	1.800																			1580016444.0	7.39	13.69
26/01/2020 05:27:25	26012020	260120	052725	53.730	12.615635	-57.372672	53.550	0.000	-0.130	1.310	53.730	-1.600	1.800																			1580016445.0	7.15	13.24
26/01/2020 05:27:26	26012020	260120	052726	53.610	12.615653	-57.372645	53.310	0.080	-0.030	0.730	53.570	-1.400	1.400																			1580016446.0	7.06	13.08
26/01/2020 05:27:27	26012020	260120	052727	53.390	12.615675	-57.372620	53.130	0.210	-0.170	0.030	53.390	-1.400	0.700																			1580016447.0	7.06	13.08
26/01/2020 05:27:28	26012020	260120	052728	53.220	12.615700	-57.372595	53.080	0.410	-0.590	-0.660	53.200	-1.800	0.000																			1580016448.0	7.24	13.41
26/01/2020 05:27:29	26012020	260120	052729	53.180	12.615725	-57.372570	53.140	0.490	-0.820	-1.350	53.190	-2.200	-0.700																			1580016449.0	7.62	14.11
26/01/2020 05:27:30	26012020	260120	052730	53.260	12.615752	-57.372543	53.200	0.260	-0.400	-1.620	53.270	-2.100	-1.200																			1580016450.0	7.92	14.67
26/01/2020 05:27:31	26012020	260120	052731	53.310	12.615775	-57.372518	53.140	-0.190	0.390	-1.230	53.300	-1.400	-1.100																			1580016451.0	7.52	13.93
26/01/2020 05:27:32	26012020	260120	052732	53.230	12.615793	-57.372493	53.080	-0.530	0.770	-0.540	53.230	-0.700	-0.500																			1580016452.0	6.74	12.48
26/01/2020 05:27:33	26012020	260120	052733	53.160	12.615810	-57.372467	53.100	-0.440	0.360	0.100	53.160	-0.600	-0.200																			1580016453.0	6.57	12.17
26/01/2020 05:27:34	26012020	260120	052734	53.170	12.615827	-57.372437	53.170	-0.030	-0.370	0.610	53.170	-0.900	0.400																			1580016454.0	7.19	13.32
26/01/2020 05:27:35	26012020	260120	052735	53.240	12.615847	-57.372405	53.170	0.280	-0.760	1.020	53.240	-1.700	0.900																			1580016455.0	7.85	14.54
26/01/2020 05:27:36	26012020	260120	052736	53.250	12.615865	-57.372373	53.040	0.200	-0.530	1.320	53.250	-2.100	1.300																			1580016456.0	7.91	14.65
26/01/2020 05:27:37	26012020	260120	052737	53.110	12.615885	-57.372345	52.910	-0.100	-0.050	1.370	53.110	-1.900	1.700																			1580016457.0	7.34	13.59
26/01/2020 05:27:38	26012020	260120	052738	52.980	12.615903	-57.372320	52.880	-0.230	0.060	1.080	52.980	-1.500	1.800																			1580016458.0	6.73	12.46
26/01/2020 05:27:39	26012020	260120	052739	52.970	12.615925	-57.372295	52.870	-0.070	-0.210	0.600	52.970	-1.500	1.200																			1580016459.0	6.79	12.58
26/01/2020 05:27:40	26012020	260120	052740	52.960	12.615947	-57.372268	52.780	0.110	-0.410	0.110	52.960	-1.600	1.000																			1580016460.0	7.36	13.63
26/01/2020 05:27:41	26012020	260120	052741	52.890	12.615970	-57.372242	52.720	0.100	-0.320	-0.320	52.890	-1.800	0.500																			1580016461.0	7.63	14.13
26/01/2020 05:27:42	26012020	260120	052742	52.820	12.615993	-57.372215	52.720	-0.020	-0.120	-0.640	52.820	-1.700	0.100																			1580016462.0	7.41	13.72
26/01/2020 05:27:43	26012020	260120	052743	52.820	12.616015	-57.372190	52.710	-0.080	-0.020	-0.860	52.820	-1.400	-0.400																			1580016463.0	7.12	13.19
26/01/2020 05:27:44	26012020	260120	052744	52.820	12.616037	-57.372165	52.730	-0.020	-0.080	-0.970	52.820	-1.400	-0.500																			1580016464.0	7.13	13.20
26/01/2020 05:27:45	26012020	260120	052745	52.830	12.616058	-57.372138	52.830	0.140	-0.200	-0.910	52.830	-1.500	-0.600																			1580016465.0	7.30	13.52
26/01/2020 05:27:46	26012020	260120	052746	52.900	12.616080	-57.372112	52.880	0.250	-0.190	-0.520	52.920	-1.600	-0.600																			1580016466.0	7.43	13.76
26/01/2020 05:27:47	26012020	260120	052747	52.940	12.616102	-57.372083	52.710	0.110	0.040	0.070	52.940	-1.600	-0.200																			1580016467.0	7.44	13.78
26/01/2020 05:27:48	26012020	260120	052748	52.750	12.616120	-57.372053	52.540	-0.220	0.180	0.540	52.750	-1.400	0.400																			1580016468.0	7.22	13.37
26/01/2020 05:27:49	26012020	260120	052749	52.580	12.616137	-57.372027	52.620	-0.390	-0.070	0.730	52.580	-1.200	0.900																			1580016469.0	6.94	12.85
26/01/2020 05:27:50	26012020	260120	052750	52.650	12.616157	-57.372000	52.770	-0.210	-0.430	0.740	52.650	-1.700	1.100																			1580016470.0	7.11	13.17
26/01/2020 05:27:51	26012020	260120	052751	52.820	12.616178	-57.371972	52.820	0.100	-0.490	0.750	52.820	-1.900	1.100																			1580016471.0	7.52	13.93
26/01/2020 05:27:52	26012020	260120	052752	52.870	12.616200	-57.371943	52.720	0.210	-0.360	0.710	52.870	-1.900	1.100																			1580016472.0	7.49	13.87
26/01/2020 05:27:53	26012020	260120	052753	52.760	12.616220	-57.371915	52.530	0.070	-0.260	0.540	52.760	-1.700	1.000																			1580016473.0	7.19	13.32
26/01/2020 05:27:54	26012020	260120	052754	52.580	12.616240	-57.371890	52.390	-0.060	-0.200	0.220	52.540	-1.600	0.800																			1580016474.0	7.14	13.22
26/01/2020 05:27:55	26012020	260120	052755	52.440	12.616262	-57.371863	52.340	-0.010	-0.130	-0.150	52.440	-1.600	0.600																			1580016475.0	7.23	13.39
26/01/2020 05:27:56	26012020	260120	052756	52.390	12.616285	-57.371838	52.400	0.130	-0.050	-0.530	52.390	-1.500	0.000																			1580016476.0	7.32	13.56
26/01/2020 05:27:57	26012020	260120	052757	52.450	12.616308	-57.371812	52.540	0.140	0.010	-0.840	52.450	-1.500	-0.100																			1580016477.0	7.34	13.59
26/01/2020 05:27:58	26012020	260120	052758	52.590	12.616330	-57.371787	52.660	-0.000	0.020	-0.900	52.590	-1.400	-0.400																			1580016478.0	7.29	13.50
26/01/2020 05:27:59	26012020	260120	052759	52.730	12.616352	-57.371760	52.730	-0.150	-0.040	-0.670	52.730	-1.400	-0.400																			1580016479.0	7.23	13.39
26/01/2020 05:28:00	26012020	260120	052800	52.780	12.616373	-57.371733	52.720	-0.160	-0.160	-0.350	52.780	-1.400	-0.300	1014.60	25.90	25.90	20.60	20.60	0.00	72.00	72.00	434.00	25.60	14.00	10.10	76.00	6.60	16	3118.00	27.40	27.40	1580016480.0	7.22	13.37
26/01/2020 05:28:01	26012020	260120	052801	52.760	12.616393	-57.371705	52.670	-0.070	-0.310	0.020	52.760	-1.500	-0.000																			1580016481.0	7.28	13.48
26/01/2020 05:28:02	26012020	260120	052802	52.710	12.616413	-57.371677	52.600	0.030	-0.410	0.420	52.710	-1.700	0.300																			1580016482.0	7.35	13.61
26/01/2020 05:28:03	26012020	260120	052803	52.640	12.616433	-57.371648	52.580	0.050	-0.380	0.680	52.640	-1.800	0.700																			1580016483.0	7.39	13.69
26/01/2020 05:28:04	26012020	260120	052804	52.610	12.616453	-57.371620	52.620	-0.030	-0.190	0.820	52.610	-1.800	1.000																			1580016484.0	7.37	13.65
26/01/2020 05:28:05	26012020	260120	052805	52.660	12.616473	-57.371593	52.660	-0.120	0.050	0.880	52.660	-1.600	1.200																			1580016485.0	7.21	13.35
26/01/2020 05:28:06	26012020	260120	052806	52.700	12.616492	-57.371567	52.680	-0.110	0.090	0.750	52.710	-1.300	1.200																			1580016486.0	7.04	13.04
26/01/2020 05:28:07	26012020	260120	052807	52.730	12.616512	-57.371540	52.690	0.020	-0.160	0.380	52.730	-1.300	1.100																			1580016487.0	7.03	13.02
26/01/2020 05:28:08	26012020	260120	052808	52.750	12.616533	-57.371512	52.650	0.150	-0.430	-0.100	52.750	-1.500	0.800																			1580016488.0	7.38	13.67
26/01/2020 05:28:09	26012020	260120	052809	52.730	12.616557	-57.371485	52.570	0.190	-0.360	-0.540	52.730	-1.800	0.300																			1580016489.0	7.66	14.19
26/01/2020 05:28:10	26012020	260120	052810	52.670	12.616582	-57.371460	52.500	0.180	-0.100	-0.810	52.670	-1.800	-0.100																			1580016490.0	7.53	13.95
26/01/2020 05:28:11	26012020	260120	052811	52.600	12.616605	-57.371437	52.540	0.230	-0.080	-0.940	52.600	-1.400	-0.500																			1580016491.0	7.12	13.19
26/01/2020 05:28:12	26012020	260120	052812	52.650	12.616627	-57.371412	52.680	0.230	-0.260	-0.870	52.650	-1.500	-0.600																			1580016492.0	7.12	13.19
26/01/2020 05:28:13	26012020	260120	052813	52.780	12.616650	-57.371383	52.750	-0.060	-0.150	-0.500	52.780	-1.600	-0.300																			1580016493.0	7.52	13.93
26/01/2020 05:28:14	26012020	260120	052814	52.830	12.616670	-57.371355	52.700	-0.560	0.290	0.110	52.830	-1.600	-0.200																			1580016494.0	7.49	13.87
26/01/2020 05:28:15	26012020	260120	052815	52.770	12.616687	-57.371327	52.640	-0.840	0.440	0.660	52.770	-1.100	0.400																			1580016495.0	6.95	12.87
26/01/2020 05:28:16	26012020	260120	052816	52.710	12.616703	-57.371300	52.650	-0.580	-0.130	0.930	52.710	-0.900	1.000																			1580016496.0	6.66	12.33
26/01/2020 05:28:17	26012020	260120	052817	52.720	12.616722	-57.371272	52.650	0.080	-0.940	1.000	52.720	-1.400	1.300																			1580016497.0	7.20	13.33
26/01/2020 05:28:18	26012020	260120	052818	52.720	12.616743	-57.371242	52.590	0.640	-1.160	0.920	52.720	-2.200	1.400																			1580016498.0	7.98	14.78
26/01/2020 05:28:19	26012020	260120	052819	52.670	12.616765	-57.371210	52.520	0.790	-0.610	0.620	52.670	-2.600	1.300																			1580016499.0	8.00	14.82
26/01/2020 05:28:20	26012020	260120	052820	52.590	12.616787	-57.371183	52.480	0.570	0.170	0.050	52.590	-2.100	1.000																			1580016500.0	7.30	13.52
26/01/2020 05:28:21	26012020	260120	052821	52.560	12.616808	-57.371162	52.550	0.230	0.520	-0.610	52.560	-1.300	0.500																			1580016501.0	6.69	12.39
26/01/2020 05:28:22	26012020	260120	052822	52.620	12.616832	-57.371138	52.590	-0.150	0.510	-1.000	52.640	-0.900	-0.200																			1580016502.0	6.82	12.63
26/01/2020 05:28:23	26012020	260120	052823	52.690	12.616857	-57.371115	52.590	-0.540	0.330	-1.100	52.690	-0.900	-0.600																			1580016503.0	7.30	13.52
26/01/2020 05:28:24	26012020	260120	052824	52.700	12.616880	-57.371090	52.730	-0.730	-0.010	-0.960	52.700	-1.000	-0.700																			1580016504.0	7.37	13.65
26/01/2020 05:28:25	26012020	260120	052825	52.820	12.616902	-57.371063	52.900	-0.550	-0.440	-0.520	52.820	-1.400	-0.600																			1580016505.0	7.29	13.50
26/01/2020 05:28:26	26012020	260120	052826	52.980	12.616922	-57.371035	52.950	-0.170	-0.700	0.100	52.980	-1.800	-0.200																			1580016506.0	7.42	13.74
26/01/2020 05:28:27	26012020	260120	052827	53.030	12.616938	-57.371003	52.840	0.100	-0.620	0.650	53.030	-2.100	0.400																			1580016507.0	7.54	13.96
26/01/2020 05:28:28	26012020	260120	052828	52.910	12.616955	-57.370973	52.670	0.220	-0.410	0.900	52.910	-2.000	1.000																			1580016508.0	7.35	13.61
26/01/2020 05:28:29	26012020	260120	052829	52.750	12.616972	-57.370945	52.600	0.310	-0.300	0.750	52.750	-1.800	1.300																			1580016509.0	7.05	13.06
26/01/2020 05:28:30	26012020	260120	052830	52.690	12.616993	-57.370918	52.650	0.420	-0.250	0.260	52.690	-1.700	1.200																			1580016510.0	7.09	13.13
26/01/2020 05:28:31	26012020	260120	052831	52.760	12.617017	-57.370893	52.700	0.470	-0.130	-0.160	52.760	-1.600	0.700																			1580016511.0	7.36	13.63
26/01/2020 05:28:32	26012020	260120	052832	52.800	12.617042	-57.370870	52.710	0.310	0.100	-0.340	52.800	-1.500	0.200																			1580016512.0	7.46	13.82
26/01/2020 05:28:33	26012020	260120	052833	52.800	12.617067	-57.370845	52.720	-0.040	0.280	-0.420	52.800	-1.300	0.000																			1580016513.0	7.30	13.52
26/01/2020 05:28:34	26012020	260120	052834	52.810	12.617087	-57.370820	52.750	-0.330	0.130	-0.440	52.820	-1.100	-0.000																			1580016514.0	7.08	13.11
26/01/2020 05:28:35	26012020	260120	052835	52.840	12.617108	-57.370793	52.850	-0.410	-0.210	-0.330	52.860	-1.400	-0.000																			1580016515.0	7.17	13.28
26/01/2020 05:28:36	26012020	260120	052836	52.940	12.617128	-57.370765	53.020	-0.420	-0.310	-0.180	52.940	-1.600	0.000																			1580016516.0	7.51	13.91
26/01/2020 05:28:37	26012020	260120	052837	53.060	12.617148	-57.370735	53.210	-0.440	-0.070	0.000	53.100	-1.700	0.200																			1580016517.0	7.50	13.89
26/01/2020 05:28:38	26012020	260120	052838	53.260	12.617168	-57.370708	53.240	-0.310	0.100	0.280	53.260	-1.500	0.300																			1580016518.0	7.03	13.02
26/01/2020 05:28:39	26012020	260120	052839	53.310	12.617185	-57.370682	53.160	0.080	-0.210	0.490	53.310	-1.300	0.600																			1580016519.0	6.73	12.46
26/01/2020 05:28:40	26012020	260120	052840	53.230	12.617203	-57.370653	53.110	0.540	-0.810	0.400	53.210	-1.600	0.800																			1580016520.0	7.06	13.08
26/01/2020 05:28:41	26012020	260120	052841	53.160	12.617225	-57.370625	53.130	0.740	-0.990	0.150	53.160	-2.100	0.800																			1580016521.0	7.70	14.26
26/01/2020 05:28:42	26012020	260120	052842	53.190	12.617250	-57.370597	53.150	0.510	-0.360	-0.090	53.200	-2.400	0.500																			1580016522.0	7.91	14.65
26/01/2020 05:28:43	26012020	260120	052843	53.220	12.617273	-57.370572	53.110	0.030	0.510	-0.210	53.220	-1.900	0.300																			1580016523.0	7.27	13.46
26/01/2020 05:28:44	26012020	260120	052844	53.190	12.617293	-57.370550	53.110	-0.350	0.750	-0.260	53.180	-1.000	0.200																			1580016524.0	6.49	12.02
26/01/2020 05:28:45	26012020	260120	052845	53.170	12.617313	-57.370527	53.320	-0.440	0.140	-0.380	53.190	-0.600	0.100																			1580016525.0	6.53	12.09
26/01/2020 05:28:46	26012020	260120	052846	53.320	12.617335	-57.370498	53.560	-0.290	-0.650	-0.470	53.370	-1.200	0.000																			1580016526.0	7.33	13.58
26/01/2020 05:28:47	26012020	260120	052847	53.580	12.617357	-57.370468	53.680	-0.080	-0.790	-0.390	53.620	-2.000	-0.100																			1580016527.0	8.02	14.85
26/01/2020 05:28:48	26012020	260120	052848	53.740	12.617378	-57.370438	53.630	-0.020	-0.240	-0.150	53.740	-2.200	-0.100																			1580016528.0	7.86	14.56
26/01/2020 05:28:49	26012020	260120	052849	53.700	12.617397	-57.370410	53.520	-0.080	0.290	0.050	53.680	-1.300	0.300																			1580016529.0	7.03	13.02
26/01/2020 05:28:50	26012020	260120	052850	53.590	12.617413	-57.370385	53.430	-0.050	0.220	0.020	53.560	-1.100	0.400																			1580016530.0	6.49	12.02
26/01/2020 05:28:51	26012020	260120	052851	53.490	12.617433	-57.370360	53.400	0.180	-0.250	-0.060	53.490	-1.100	0.400																			1580016531.0	6.80	12.59
26/01/2020 05:28:52	26012020	260120	052852	53.470	12.617457	-57.370333	53.360	0.390	-0.500	-0.070	53.450	-1.600	0.300																			1580016532.0	7.50	13.89
26/01/2020 05:28:53	26012020	260120	052853	53.420	12.617478	-57.370305	53.350	0.330	-0.390	-0.030	53.420	-1.900	0.300																			1580016533.0	7.67	14.20
26/01/2020 05:28:54	26012020	260120	052854	53.400	12.617500	-57.370278	53.360	0.040	-0.180	0.040	53.400	-1.800	0.300																			1580016534.0	7.28	13.48
26/01/2020 05:28:55	26012020	260120	052855	53.400	12.617518	-57.370252	53.400	-0.200	-0.140	0.020	53.410	-1.600	0.400																			1580016535.0	6.97	12.91
26/01/2020 05:28:56	26012020	260120	052856	53.440	12.617540	-57.370225	53.440	-0.240	-0.160	-0.030	53.450	-1.500	0.400																			1580016536.0	7.06	13.08
26/01/2020 05:28:57	26012020	260120	052857	53.480	12.617560	-57.370198	53.400	-0.150	-0.100	0.010	53.490	-1.500	0.300																			1580016537.0	7.27	13.46
26/01/2020 05:28:58	26012020	260120	052858	53.470	12.617582	-57.370172	53.320	-0.050	-0.020	0.170	53.450	-1.500	0.400																			1580016538.0	7.27	13.46
26/01/2020 05:28:59	26012020	260120	052859	53.370	12.617602	-57.370145	53.250	0.010	-0.030	0.320	53.360	-1.400	0.500																			1580016539.0	7.16	13.26
26/01/2020 05:29:00	26012020	260120	052900	53.300	12.617622	-57.370117	53.250	0.060	-0.220	0.310	53.290	-1.400	0.700	1014.60	25.90	25.90	20.50	20.50	0.00	72.00	72.00	434.00	25.60	18.00	10.20	81.00	6.70	16	3177.00	27.40	27.40	1580016540.0	7.12	13.19
26/01/2020 05:29:01	26012020	260120	052901	53.290	12.617642	-57.370090	53.340	0.100	-0.380	0.140	53.300	-1.700	0.600																			1580016541.0	7.29	13.50
26/01/2020 05:29:02	26012020	260120	052902	53.370	12.617662	-57.370062	53.480	0.130	-0.370	-0.140	53.390	-1.800	0.500																			1580016542.0	7.42	13.74
26/01/2020 05:29:03	26012020	260120	052903	53.550	12.617685	-57.370035	53.560	0.110	-0.210	-0.300	53.550	-1.700	0.100																			1580016543.0	7.34	13.59
26/01/2020 05:29:04	26012020	260120	052904	53.610	12.617707	-57.370008	53.530	-0.040	0.080	-0.290	53.610	-1.600	0.100																			1580016544.0	7.22	13.37
26/01/2020 05:29:05	26012020	260120	052905	53.590	12.617727	-57.369983	53.440	-0.220	0.260	-0.160	53.580	-1.300	0.100																			1580016545.0	7.04	13.04
26/01/2020 05:29:06	26012020	260120	052906	53.510	12.617747	-57.369957	53.380	-0.190	0.080	-0.000	53.490	-1.100	0.200																			1580016546.0	6.88	12.74
26/01/2020 05:29:07	26012020	260120	052907	53.450	12.617767	-57.369930	53.470	0.100	-0.420	0.050	53.450	-1.300	0.300																			1580016547.0	7.05	13.06
26/01/2020 05:29:08	26012020	260120	052908	53.510	12.617787	-57.369902	53.510	0.360	-0.750	0.050	53.530	-1.700	0.400																			1580016548.0	7.48	13.85
26/01/2020 05:29:09	26012020	260120	052909	53.580	12.617808	-57.369873	53.420	0.330	-0.590	0.120	53.580	-2.100	0.400																			1580016549.0	7.73	14.32
26/01/2020 05:29:10	26012020	260120	052910	53.510	12.617828	-57.369845	53.320	0.080	-0.160	0.170	53.480	-2.000	0.500																			1580016550.0	7.44	13.78
26/01/2020 05:29:11	26012020	260120	052911	53.390	12.617850	-57.369820	53.390	-0.090	0.100	0.030	53.380	-1.600	0.500																			1580016551.0	6.93	12.83
26/01/2020 05:29:12	26012020	260120	052912	53.430	12.617870	-57.369795	53.550	-0.070	0.060	-0.170	53.460	-1.300	0.400																			1580016552.0	6.87	12.72
26/01/2020 05:29:13	26012020	260120	052913	53.590	12.617892	-57.369768	53.590	-0.030	-0.000	-0.140	53.620	-1.300	0.200																			1580016553.0	7.22	13.37
26/01/2020 05:29:14	26012020	260120	052914	53.670	12.617913	-57.369740	53.520	-0.150	0.110	0.090	53.660	-1.400	0.200																			1580016554.0	7.45	13.80
26/01/2020 05:29:15	26012020	260120	052915	53.610	12.617932	-57.369713	53.510	-0.330	0.150	0.190	53.600	-1.300	0.400																			1580016555.0	7.23	13.39
26/01/2020 05:29:16	26012020	260120	052916	53.560	12.617950	-57.369685	53.610	-0.330	-0.120	0.020	53.570	-1.200	0.500																			1580016556.0	6.97	12.91
26/01/2020 05:29:17	26012020	260120	052917	53.650	12.617970	-57.369658	53.730	-0.080	-0.530	-0.150	53.670	-1.500	0.400																			1580016557.0	7.11	13.17
26/01/2020 05:29:18	26012020	260120	052918	53.770	12.617992	-57.369632	53.690	0.230	-0.700	-0.240	53.780	-1.900	0.200																			1580016558.0	7.48	13.85
26/01/2020 05:29:19	26012020	260120	052919	53.770	12.618015	-57.369603	53.510	0.360	-0.500	-0.280	53.750	-2.100	0.100																			1580016559.0	7.56	14.00
26/01/2020 05:29:20	26012020	260120	052920	53.620	12.618037	-57.369577	53.400	0.280	-0.160	-0.270	53.580	-1.900	0.100																			1580016560.0	7.29	13.50
26/01/2020 05:29:21	26012020	260120	052921	53.480	12.618058	-57.369552	53.400	0.170	0.020	-0.170	53.460	-1.600	0.100																			1580016561.0	6.97	12.91
26/01/2020 05:29:22	26012020	260120	052922	53.470	12.618078	-57.369527	53.450	0.140	-0.070	-0.070	53.470	-1.400	0.200																			1580016562.0	6.96	12.89
26/01/2020 05:29:23	26012020	260120	052923	53.510	12.618097	-57.369498	53.540	0.080	-0.180	-0.010	53.520	-1.400	0.300																			1580016563.0	7.26	13.45
26/01/2020 05:29:24	26012020	260120	052924	53.580	12.618118	-57.369470	53.600	-0.110	-0.040	0.090	53.600	-1.600	0.300																			1580016564.0	7.53	13.95
26/01/2020 05:29:25	26012020	260120	052925	53.650	12.618138	-57.369442	53.590	-0.350	0.230	0.250	53.660	-1.500	0.400																			1580016565.0	7.37	13.65
26/01/2020 05:29:26	26012020	260120	052926	53.660	12.618158	-57.369415	53.520	-0.430	0.310	0.440	53.650	-1.200	0.600																			1580016566.0	6.99	12.95
26/01/2020 05:29:27	26012020	260120	052927	53.590	12.618177	-57.369388	53.470	-0.250	-0.070	0.440	53.560	-1.100	0.800																			1580016567.0	6.86	12.70
26/01/2020 05:29:28	26012020	260120	052928	53.520	12.618197	-57.369362	53.560	0.070	-0.680	0.210	53.530	-1.400	0.800																			1580016568.0	7.14	13.22
26/01/2020 05:29:29	26012020	260120	052929	53.600	12.618218	-57.369333	53.600	0.280	-0.910	0.030	53.610	-2.000	0.600																			1580016569.0	7.64	14.15
26/01/2020 05:29:30	26012020	260120	052930	53.660	12.618240	-57.369303	53.510	0.250	-0.520	-0.020	53.660	-2.300	0.400																			1580016570.0	7.76	14.37
26/01/2020 05:29:31	26012020	260120	052931	53.600	12.618262	-57.369277	53.390	0.090	0.050	-0.120	53.580	-2.000	0.400																			1580016571.0	7.22	13.37
26/01/2020 05:29:32	26012020	260120	052932	53.480	12.618280	-57.369252	53.330	0.010	0.270	-0.290	53.470	-1.400	0.300																			1580016572.0	6.72	12.45
26/01/2020 05:29:33	26012020	260120	052933	53.400	12.618302	-57.369228	53.240	0.100	0.110	-0.370	53.390	-1.100	0.100																			1580016573.0	6.85	12.69
26/01/2020 05:29:34	26012020	260120	052934	53.330	12.618325	-57.369202	53.280	0.200	-0.220	-0.470	53.320	-1.300	0.000																			1580016574.0	7.29	13.50
26/01/2020 05:29:35	26012020	260120	052935	53.330	12.618347	-57.369175	53.440	0.140	-0.410	-0.540	53.350	-1.600	-0.100																			1580016575.0	7.60	14.08
26/01/2020 05:29:36	26012020	260120	052936	53.470	12.618370	-57.369147	53.550	-0.080	-0.230	-0.350	53.500	-1.800	-0.200																			1580016576.0	7.61	14.09
26/01/2020 05:29:37	26012020	260120	052937	53.590	12.618390	-57.369118	53.590	-0.330	0.150	0.030	53.600	-1.700	-0.000																			1580016577.0	7.30	13.52
26/01/2020 05:29:38	26012020	260120	052938	53.640	12.618408	-57.369092	53.640	-0.430	0.320	0.380	53.640	-1.300	0.400																			1580016578.0	6.89	12.76
26/01/2020 05:29:39	26012020	260120	052939	53.670	12.618425	-57.369065	53.640	-0.320	0.080	0.660	53.690	-1.200	0.900																			1580016579.0	6.79	12.58
26/01/2020 05:29:40	26012020	260120	052940	53.690	12.618443	-57.369037	53.570	-0.060	-0.470	0.840	53.690	-1.300	1.000																			1580016580.0	7.07	13.09
26/01/2020 05:29:41	26012020	260120	052941	53.640	12.618462	-57.369007	53.480	0.230	-0.930	0.830	53.630	-1.800	1.200																			1580016581.0	7.49	13.87
26/01/2020 05:29:42	26012020	260120	052942	53.560	12.618507	-57.368950	53.370	0.400	-0.860	0.600	53.550	-2.300	1.200																			1580016582.0	7.75	14.35
26/01/2020 05:29:43	26012020	260120	052943	53.460	12.618507	-57.368950	53.310	0.420	-0.330	0.170	53.440	-2.300	1.000																			1580016583.0	7.61	14.09
26/01/2020 05:29:44	26012020	260120	052944	53.390	12.618528	-57.368925	53.340	0.330	0.190	-0.240	53.390	-1.800	0.600																			1580016584.0	7.13	13.20
26/01/2020 05:29:45	26012020	260120	052945	53.390	12.618550	-57.368902	53.420	0.180	0.340	-0.570	53.400	-1.300	0.200																			1580016585.0	6.85	12.69
26/01/2020 05:29:46	26012020	260120	052946	53.460	12.618572	-57.368877	53.660	-0.020	0.130	-0.860	53.490	-1.100	-0.200																			1580016586.0	7.00	12.96
26/01/2020 05:29:47	26012020	260120	052947	53.670	12.618595	-57.368850	53.830	-0.230	-0.040	-0.900	53.730	-1.200	-0.500																			1580016587.0	7.40	13.70
26/01/2020 05:29:48	26012020	260120	052948	53.890	12.618617	-57.368822	53.710	-0.410	0.030	-0.550	53.890	-1.400	-0.600																			1580016588.0	7.57	14.02
26/01/2020 05:29:49	26012020	260120	052949	53.820	12.618637	-57.368795	53.560	-0.460	0.020	-0.070	53.780	-1.400	-0.200																			1580016589.0	7.29	13.50
26/01/2020 05:29:50	26012020	260120	052950	53.640	12.618655	-57.368767	53.570	-0.290	-0.320	0.220	53.610	-1.400	0.200																			1580016590.0	7.01	12.98
26/01/2020 05:29:51	26012020	260120	052951	53.590	12.618673	-57.368738	53.620	0.020	-0.630	0.340	53.610	-1.900	0.600																			1580016591.0	7.24	13.41
26/01/2020 05:29:52	26012020	260120	052952	53.660	12.618693	-57.368710	53.600	0.230	-0.490	0.480	53.670	-2.000	0.700																			1580016592.0	7.58	14.04
26/01/2020 05:29:53	26012020	260120	052953	53.650	12.618715	-57.368682	53.550	0.240	-0.120	0.580	53.640	-1.700	0.900																			1580016593.0	7.39	13.69
26/01/2020 05:29:54	26012020	260120	052954	53.590	12.618733	-57.368655	53.590	0.110	0.010	0.480	53.590	-1.500	0.900																			1580016594.0	6.95	12.87
26/01/2020 05:29:55	26012020	260120	052955	53.610	12.618752	-57.368628	53.630	-0.020	-0.120	0.190	53.620	-1.400	0.900																			1580016595.0	6.93	12.83
26/01/2020 05:29:56	26012020	260120	052956	53.660	12.618773	-57.368602	53.590	-0.060	-0.230	-0.160	53.670	-1.500	0.600																			1580016596.0	7.28	13.48
26/01/2020 05:29:57	26012020	260120	052957	53.670	12.618797	-57.368575	53.520	0.020	-0.200	-0.430	53.660	-1.600	0.200																			1580016597.0	7.47	13.83
26/01/2020 05:29:58	26012020	260120	052958	53.600	12.618820	-57.368548	53.540	0.190	-0.240	-0.530	53.590	-1.600	-0.000																			1580016598.0	7.36	13.63
26/01/2020 05:29:59	26012020	260120	052959	53.590	12.618842	-57.368523	53.680	0.370	-0.420	-0.480	53.600	-1.600	-0.200																			1580016599.0	7.28	13.48
26/01/2020 05:30:00	26012020	260120	053000	53.710	12.618863	-57.368495	53.720	0.380	-0.400	-0.330	53.740	-1.800	-0.100	1014.60	25.80	25.90	20.40	20.50	0.00	71.00	72.00	435.00	25.60	16.00	10.10	79.00	6.60	16	3175.00	27.40	27.40	1580016600.0	7.48	13.85
26/01/2020 05:30:01	26012020	260120	053001	53.790	12.618885	-57.368467	53.510	0.070	0.080	0.030	53.780	-1.800	0.000																			1580016601.0	7.59	14.06
26/01/2020 05:30:02	26012020	260120	053002	53.640	12.618903	-57.368438	53.280	-0.450	0.590	0.480	53.590	-1.400	0.300																			1580016602.0	7.21	13.35
26/01/2020 05:30:03	26012020	260120	053003	53.380	12.618920	-57.368412	53.300	-0.760	0.400	0.620	53.340	-0.800	0.800																			1580016603.0	6.68	12.37
26/01/2020 05:30:04	26012020	260120	053004	53.330	12.618938	-57.368385	53.510	-0.590	-0.390	0.390	53.360	-0.900	1.000																			1580016604.0	6.82	12.63
26/01/2020 05:30:05	26012020	260120	053005	53.540	12.618960	-57.368357	53.660	-0.170	-0.830	0.150	53.590	-1.700	0.800																			1580016605.0	7.66	14.19
26/01/2020 05:30:06	26012020	260120	053006	53.720	12.618983	-57.368327	53.670	0.130	-0.550	0.110	53.730	-2.200	0.500																			1580016606.0	7.99	14.80
26/01/2020 05:30:07	26012020	260120	053007	53.740	12.619005	-57.368300	53.600	0.200	-0.080	0.110	53.730	-2.000	0.500																			1580016607.0	7.34	13.59
26/01/2020 05:30:08	26012020	260120	053008	53.690	12.619023	-57.368273	53.490	0.210	0.020	-0.020	53.670	-1.500	0.500																			1580016608.0	6.74	12.48
26/01/2020 05:30:09	26012020	260120	053009	53.580	12.619043	-57.368248	53.380	0.320	-0.240	-0.330	53.550	-1.400	0.400																			1580016609.0	6.86	12.70
26/01/2020 05:30:10	26012020	260120	053010	53.470	12.619065	-57.368222	53.380	0.450	-0.430	-0.550	53.450	-1.600	0.100																			1580016610.0	7.41	13.72
26/01/2020 05:30:11	26012020	260120	053011	53.450	12.619090	-57.368195	53.440	0.360	-0.240	-0.560	53.450	-1.800	-0.200																			1580016611.0	7.72	14.30
26/01/2020 05:30:12	26012020	260120	053012	53.500	12.619112	-57.368168	53.400	0.040	0.100	-0.350	53.500	-1.700	-0.200																			1580016612.0	7.44	13.78
26/01/2020 05:30:13	26012020	260120	053013	53.470	12.619132	-57.368142	53.350	-0.280	0.170	-0.100	53.450	-1.300	-0.000																			1580016613.0	6.99	12.95
26/01/2020 05:30:14	26012020	260120	053014	53.400	12.619152	-57.368117	53.440	-0.350	-0.130	0.120	53.400	-1.200	0.200																			1580016614.0	6.96	12.89
26/01/2020 05:30:15	26012020	260120	053015	53.460	12.619172	-57.368088	53.560	-0.240	-0.420	0.360	53.490	-1.500	0.400																			1580016615.0	7.36	13.63
26/01/2020 05:30:16	26012020	260120	053016	53.580	12.619192	-57.368057	53.540	-0.200	-0.290	0.590	53.600	-1.800	0.700																			1580016616.0	7.68	14.22
26/01/2020 05:30:17	26012020	260120	053017	53.600	12.619210	-57.368028	53.380	-0.300	0.160	0.780	53.580	-1.700	0.900																			1580016617.0	7.49	13.87
26/01/2020 05:30:18	26012020	260120	053018	53.440	12.619227	-57.368000	53.190	-0.300	0.250	0.730	53.410	-1.300	1.100																			1580016618.0	6.89	12.76
26/01/2020 05:30:19	26012020	260120	053019	53.250	12.619245	-57.367975	53.110	0.020	-0.360	0.330	53.220	-1.100	1.100																			1580016619.0	6.71	12.43
26/01/2020 05:30:20	26012020	260120	053020	53.160	12.619268	-57.367947	53.180	0.510	-0.930	-0.250	53.170	-1.700	0.700																			1580016620.0	7.40	13.70
26/01/2020 05:30:21	26012020	260120	053021	53.220	12.619293	-57.367920	53.300	0.720	-0.730	-0.700	53.250	-2.300	0.200																			1580016621.0	8.10	15.00
26/01/2020 05:30:22	26012020	260120	053022	53.340	12.619318	-57.367893	53.300	0.370	0.120	-0.780	53.350	-2.200	-0.300																			1580016622.0	7.79	14.43
26/01/2020 05:30:23	26012020	260120	053023	53.350	12.619340	-57.367870	53.200	-0.320	0.820	-0.600	53.340	-1.400	-0.400																			1580016623.0	6.87	12.72
26/01/2020 05:30:24	26012020	260120	053024	53.260	12.619358	-57.367847	53.160	-0.740	0.630	-0.370	53.240	-0.600	-0.300																			1580016624.0	6.29	11.65
26/01/2020 05:30:25	26012020	260120	053025	53.200	12.619377	-57.367822	53.210	-0.450	-0.410	-0.100	53.200	-0.700	-0.000																			1580016625.0	6.62	12.26
26/01/2020 05:30:26	26012020	260120	053026	53.230	12.619398	-57.367792	53.220	0.200	-1.230	0.270	53.230	-1.700	0.200																			1580016626.0	7.68	14.22
26/01/2020 05:30:27	26012020	260120	053027	53.250	12.619420	-57.367758	53.160	0.540	-1.070	0.590	53.240	-2.600	0.600																			1580016627.0	8.35	15.46
26/01/2020 05:30:28	26012020	260120	053028	53.190	12.619440	-57.367728	53.020	0.300	-0.130	0.780	53.160	-2.500	0.900																			1580016628.0	7.84	14.52
26/01/2020 05:30:29	26012020	260120	053029	53.050	12.619457	-57.367702	52.910	-0.180	0.730	0.730	53.010	-1.600	1.100																			1580016629.0	6.76	12.52
26/01/2020 05:30:30	26012020	260120	053030	52.920	12.619475	-57.367678	52.940	-0.360	0.730	0.360	52.910	-0.700	1.100																			1580016630.0	6.19	11.46
26/01/2020 05:30:31	26012020	260120	053031	52.930	12.619495	-57.367655	53.100	-0.140	0.010	-0.220	52.950	-0.600	0.800																			1580016631.0	6.58	12.19
26/01/2020 05:30:32	26012020	260120	053032	53.100	12.619520	-57.367628	53.170	0.140	-0.650	-0.660	53.130	-1.300	0.200																			1580016632.0	7.56	14.00
26/01/2020 05:30:33	26012020	260120	053033	53.210	12.619545	-57.367602	53.090	0.210	-0.780	-0.720	53.210	-2.000	-0.300																			1580016633.0	8.01	14.83
26/01/2020 05:30:34	26012020	260120	053034	53.150	12.619568	-57.367573	52.950	0.070	-0.440	-0.490	53.120	-2.200	-0.400																			1580016634.0	7.66	14.19
26/01/2020 05:30:35	26012020	260120	053035	53.000	12.619588	-57.367547	52.910	-0.140	0.010	-0.270	52.980	-1.900	-0.200																			1580016635.0	7.07	13.09
26/01/2020 05:30:36	26012020	260120	053036	52.930	12.619607	-57.367522	53.030	-0.240	0.190	-0.180	52.930	-1.400	0.100																			1580016636.0	6.73	12.46
26/01/2020 05:30:37	26012020	260120	053037	53.020	12.619625	-57.367495	53.170	-0.160	0.040	-0.030	53.050	-1.200	0.200																			1580016637.0	6.78	12.56
26/01/2020 05:30:38	26012020	260120	053038	53.170	12.619645	-57.367468	53.240	0.040	-0.250	0.190	53.200	-1.300	0.300																			1580016638.0	7.14	13.22
26/01/2020 05:30:39	26012020	260120	053039	53.260	12.619665	-57.367438	53.170	0.190	-0.370	0.470	53.260	-1.600	0.500																			1580016639.0	7.46	13.82
26/01/2020 05:30:40	26012020	260120	053040	53.200	12.619685	-57.367410	52.970	0.170	-0.230	0.690	53.170	-1.800	0.800																			1580016640.0	7.50	13.89
26/01/2020 05:30:41	26012020	260120	053041	53.030	12.619705	-57.367383	52.800	0.040	0.010	0.630	52.980	-1.500	1.000																			1580016641.0	7.22	13.37
26/01/2020 05:30:42	26012020	260120	053042	52.830	12.619725	-57.367357	52.830	-0.000	0.020	0.290	52.810	-1.400	1.000																			1580016642.0	6.92	12.82
26/01/2020 05:30:43	26012020	260120	053043	52.820	12.619747	-57.367332	53.070	0.100	-0.270	-0.220	52.860	-1.500	0.400																			1580016643.0	6.94	12.85
26/01/2020 05:30:44	26012020	260120	053044	53.050	12.619770	-57.367307	53.210	0.210	-0.480	-0.550	53.100	-1.600	0.200																			1580016644.0	7.34	13.59
26/01/2020 05:30:45	26012020	260120	053045	53.260	12.619795	-57.367282	53.170	0.170	-0.330	-0.470	53.270	-1.900	-0.200																			1580016645.0	7.61	14.09
26/01/2020 05:30:46	26012020	260120	053046	53.250	12.619815	-57.367255	53.080	-0.060	0.040	-0.130	53.220	-1.800	-0.100																			1580016646.0	7.36	13.63
26/01/2020 05:30:47	26012020	260120	053047	53.140	12.619835	-57.367227	53.070	-0.350	0.250	0.120	53.120	-1.400	0.200																			1580016647.0	6.93	12.83
26/01/2020 05:30:48	26012020	260120	053048	53.100	12.619852	-57.367200	53.100	-0.460	0.100	0.190	53.110	-1.200	0.400																			1580016648.0	6.79	12.58
26/01/2020 05:30:49	26012020	260120	053049	53.130	12.619870	-57.367173	53.120	-0.240	-0.380	0.190	53.140	-1.300	0.500																			1580016649.0	6.97	12.91
26/01/2020 05:30:50	26012020	260120	053050	53.160	12.619890	-57.367145	53.070	0.160	-0.780	0.210	53.160	-1.700	0.500																			1580016650.0	7.39	13.69
26/01/2020 05:30:51	26012020	260120	053051	53.130	12.619913	-57.367117	52.930	0.400	-0.590	0.190	53.110	-2.200	0.600																			1580016651.0	7.75	14.35
26/01/2020 05:30:52	26012020	260120	053052	53.000	12.619935	-57.367088	52.820	0.290	0.050	0.050	52.980	-2.000	0.500																			1580016652.0	7.51	13.91
26/01/2020 05:30:53	26012020	260120	053053	52.890	12.619955	-57.367065	52.890	0.050	0.450	-0.180	52.880	-1.400	0.400																			1580016653.0	6.83	12.65
26/01/2020 05:30:54	26012020	260120	053054	52.920	12.619975	-57.367042	53.140	-0.040	0.230	-0.540	52.950	-1.000	0.200																			1580016654.0	6.54	12.11
26/01/2020 05:30:55	26012020	260120	053055	53.150	12.619997	-57.367017	53.370	-0.010	-0.260	-0.740	53.210	-1.100	-0.100																			1580016655.0	7.00	12.96
26/01/2020 05:30:56	26012020	260120	053056	53.410	12.620020	-57.366990	53.360	-0.010	-0.440	-0.460	53.440	-1.600	-0.400																			1580016656.0	7.59	14.06
26/01/2020 05:30:57	26012020	260120	053057	53.460	12.620042	-57.366962	53.110	-0.080	-0.280	0.140	53.440	-1.800	-0.200																			1580016657.0	7.57	14.02
26/01/2020 05:30:58	26012020	260120	053058	53.230	12.620060	-57.366933	52.890	-0.060	-0.220	0.560	53.170	-1.700	0.400																			1580016658.0	7.10	13.15
26/01/2020 05:30:59	26012020	260120	053059	52.980	12.620078	-57.366905	52.920	0.140	-0.420	0.570	52.960	-1.600	0.900																			1580016659.0	6.88	12.74
26/01/2020 05:31:00	26012020	260120	053100	52.960	12.620097	-57.366878	53.010	0.290	-0.470	0.370	52.980	-1.800	0.900	1014.50	25.80	25.90	20.60	20.60	0.00	72.00	72.00	435.00	25.60	18.00	9.80	81.00	6.40	16	3269.00	27.40	27.40	1580016660.0	7.22	13.37
26/01/2020 05:31:01	26012020	260120	053101	53.060	12.620120	-57.366850	53.010	0.140	-0.080	0.140	53.070	-1.900	0.800																			1580016661.0	7.54	13.96
26/01/2020 05:31:02	26012020	260120	053102	53.080	12.620142	-57.366823	53.050	-0.230	0.380	-0.180	53.080	-1.500	0.500																			1580016662.0	7.21	13.35
26/01/2020 05:31:03	26012020	260120	053103	53.100	12.620162	-57.366800	53.150	-0.470	0.390	-0.470	53.120	-1.100	0.200																			1580016663.0	6.73	12.46
26/01/2020 05:31:04	26012020	260120	053104	53.210	12.620183	-57.366777	53.150	-0.400	-0.000	-0.500	53.220	-1.000	-0.100																			1580016664.0	6.79	12.58
26/01/2020 05:31:05	26012020	260120	053105	53.230	12.620205	-57.366750	53.110	-0.130	-0.480	-0.400	53.220	-1.700	-0.100																			1580016665.0	7.25	13.43
26/01/2020 05:31:06	26012020	260120	053106	53.170	12.620225	-57.366722	53.090	0.160	-0.710	-0.290	53.160	-1.800	-0.100																			1580016666.0	7.54	13.96
26/01/2020 05:31:07	26012020	260120	053107	53.150	12.620247	-57.366693	53.080	0.310	-0.590	-0.150	53.150	-2.100	0.100																			1580016667.0	7.53	13.95
26/01/2020 05:31:08	26012020	260120	053108	53.150	12.620267	-57.366665	53.030	0.270	-0.220	-0.010	53.140	-2.000	0.200																			1580016668.0	7.27	13.46
26/01/2020 05:31:09	26012020	260120	053109	53.100	12.620287	-57.366638	52.960	0.140	0.140	0.110	53.090	-1.700	0.300																			1580016669.0	6.98	12.93
26/01/2020 05:31:10	26012020	260120	053110	53.030	12.620307	-57.366613	52.960	0.050	0.210	0.160	53.010	-1.300	0.500																			1580016670.0	6.84	12.67
26/01/2020 05:31:11	26012020	260120	053111	52.990	12.620327	-57.366588	53.090	0.090	-0.060	0.080	53.000	-1.200	0.500																			1580016671.0	6.95	12.87
26/01/2020 05:31:12	26012020	260120	053112	53.110	12.620348	-57.366562	53.280	0.150	-0.350	0.100	53.150	-1.400	0.500																			1580016672.0	7.30	13.52
26/01/2020 05:31:13	26012020	260120	053113	53.300	12.620370	-57.366533	53.340	0.070	-0.320	0.250	53.330	-1.700	0.400																			1580016673.0	7.57	14.02
26/01/2020 05:31:14	26012020	260120	053114	53.390	12.620390	-57.366505	53.290	-0.160	-0.040	0.340	53.390	-1.700	0.600																			1580016674.0	7.42	13.74
26/01/2020 05:31:15	26012020	260120	053115	53.360	12.620410	-57.366478	53.240	-0.370	0.130	0.310	53.340	-1.500	0.700																			1580016675.0	7.01	12.98
26/01/2020 05:31:16	26012020	260120	053116	53.310	12.620428	-57.366453	53.280	-0.380	-0.060	0.120	53.300	-1.300	0.700																			1580016676.0	6.83	12.65
26/01/2020 05:31:17	26012020	260120	053117	53.330	12.620450	-57.366427	53.420	-0.140	-0.400	-0.190	53.350	-1.700	0.300																			1580016677.0	7.06	13.08
26/01/2020 05:31:18	26012020	260120	053118	53.470	12.620472	-57.366400	53.460	0.110	-0.420	-0.370	53.490	-1.800	0.200																			1580016678.0	7.45	13.80
26/01/2020 05:31:19	26012020	260120	053119	53.550	12.620493	-57.366372	53.350	0.150	-0.140	-0.380	53.550	-1.700	-0.000																			1580016679.0	7.47	13.83
26/01/2020 05:31:20	26012020	260120	053120	53.470	12.620513	-57.366345	53.260	0.070	-0.010	-0.410	53.440	-1.600	-0.000																			1580016680.0	7.06	13.08
26/01/2020 05:31:21	26012020	260120	053121	53.360	12.620533	-57.366320	53.260	0.090	-0.230	-0.520	53.340	-1.400	-0.100																			1580016681.0	6.89	12.76
26/01/2020 05:31:22	26012020	260120	053122	53.340	12.620557	-57.366295	53.290	0.220	-0.450	-0.520	53.340	-1.600	-0.200																			1580016682.0	7.25	13.43
26/01/2020 05:31:23	26012020	260120	053123	53.370	12.620580	-57.366268	53.350	0.250	-0.380	-0.420	53.380	-1.800	-0.200																			1580016683.0	7.58	14.04
26/01/2020 05:31:24	26012020	260120	053124	53.420	12.620602	-57.366240	53.440	0.090	-0.120	-0.110	53.440	-1.800	-0.100																			1580016684.0	7.44	13.78
26/01/2020 05:31:25	26012020	260120	053125	53.490	12.620622	-57.366213	53.490	-0.130	0.120	0.320	53.500	-1.500	0.200																			1580016685.0	7.13	13.20
26/01/2020 05:31:26	26012020	260120	053126	53.540	12.620638	-57.366185	53.480	-0.290	0.210	0.640	53.540	-1.300	0.600																			1580016686.0	7.00	12.96
26/01/2020 05:31:27	26012020	260120	053127	53.530	12.620655	-57.366157	53.500	-0.320	0.110	0.720	53.530	-1.200	1.000																			1580016687.0	7.07	13.09
26/01/2020 05:31:28	26012020	260120	053128	53.540	12.620675	-57.366128	53.540	-0.170	-0.200	0.590	53.550	-1.300	1.100																			1580016688.0	7.15	13.24
26/01/2020 05:31:29	26012020	260120	053129	53.600	12.620695	-57.366100	53.480	0.070	-0.490	0.340	53.600	-1.600	1.000																			1580016689.0	7.33	13.58
26/01/2020 05:31:30	26012020	260120	053130	53.570	12.620717	-57.366073	53.360	0.230	-0.470	0.030	53.550	-1.900	0.700																			1580016690.0	7.54	13.96
26/01/2020 05:31:31	26012020	260120	053131	53.460	12.620740	-57.366047	53.300	0.240	-0.210	-0.220	53.440	-1.700	0.300																			1580016691.0	7.43	13.76
26/01/2020 05:31:32	26012020	260120	053132	53.390	12.620762	-57.366022	53.330	0.140	-0.070	-0.460	53.390	-1.600	0.200																			1580016692.0	7.08	13.11
26/01/2020 05:31:33	26012020	260120	053133	53.430	12.620783	-57.365997	53.290	-0.010	-0.100	-0.590	53.430	-1.500	-0.200																			1580016693.0	6.96	12.89
26/01/2020 05:31:34	26012020	260120	053134	53.410	12.620805	-57.365972	53.190	-0.090	-0.200	-0.530	53.390	-1.500	-0.200																			1580016694.0	7.19	13.32
26/01/2020 05:31:35	26012020	260120	053135	53.300	12.620827	-57.365945	53.250	-0.040	-0.390	-0.440	53.280	-1.600	-0.200																			1580016695.0	7.32	13.56
26/01/2020 05:31:36	26012020	260120	053136	53.310	12.620847	-57.365917	53.400	0.020	-0.350	-0.350	53.340	-1.800	-0.100																			1580016696.0	7.44	13.78
26/01/2020 05:31:37	26012020	260120	053137	53.470	12.620868	-57.365888	53.380	-0.080	0.060	-0.150	53.480	-1.800	-0.000																			1580016697.0	7.52	13.93
26/01/2020 05:31:38	26012020	260120	053138	53.480	12.620888	-57.365860	53.270	-0.240	0.410	0.130	53.450	-1.400	0.200																			1580016698.0	7.14	13.22
26/01/2020 05:31:39	26012020	260120	053139	53.350	12.620907	-57.365835	53.360	-0.230	0.160	0.310	53.340	-1.000	0.400																			1580016699.0	6.72	12.45
26/01/2020 05:31:40	26012020	260120	053140	53.390	12.620925	-57.365808	53.570	-0.040	-0.430	0.350	53.430	-1.200	0.600																			1580016700.0	6.96	12.89
26/01/2020 05:31:41	26012020	260120	053141	53.600	12.620945	-57.365778	53.590	0.130	-0.660	0.340	53.640	-1.800	0.700																			1580016701.0	7.61	14.09
26/01/2020 05:31:42	26012020	260120	053142	53.690	12.620967	-57.365748	53.350	0.160	-0.420	0.440	53.670	-2.000	0.700																			1580016702.0	7.72	14.30
26/01/2020 05:31:43	26012020	260120	053143	53.480	12.620987	-57.365722	53.110	0.130	-0.210	0.390	53.420	-1.800	0.800																			1580016703.0	7.23	13.39
26/01/2020 05:31:44	26012020	260120	053144	53.220	12.621007	-57.365695	53.060	0.130	-0.230	-0.000	53.190	-1.600	0.800																			1580016704.0	6.97	12.91
26/01/2020 05:31:45	26012020	260120	053145	53.140	12.621028	-57.365670	53.130	0.100	-0.160	-0.510	53.150	-1.600	0.400																			1580016705.0	7.24	13.41
26/01/2020 05:31:46	26012020	260120	053146	53.210	12.621053	-57.365645	53.270	0.010	0.090	-0.850	53.230	-1.600	-0.100																			1580016706.0	7.46	13.82
26/01/2020 05:31:47	26012020	260120	053147	53.330	12.621077	-57.365620	53.350	-0.080	0.200	-0.850	53.360	-1.300	-0.500																			1580016707.0	7.22	13.37
26/01/2020 05:31:48	26012020	260120	053148	53.420	12.621098	-57.365595	53.390	-0.100	-0.050	-0.610	53.430	-1.200	-0.500																			1580016708.0	7.02	13.00
26/01/2020 05:31:49	26012020	260120	053149	53.440	12.621118	-57.365568	53.480	-0.100	-0.420	-0.330	53.450	-1.400	-0.300																			1580016709.0	7.26	13.45
26/01/2020 05:31:50	26012020	260120	053150	53.520	12.621138	-57.365538	53.580	-0.150	-0.450	0.050	53.540	-1.800	-0.000																			1580016710.0	7.63	14.13
26/01/2020 05:31:51	26012020	260120	053151	53.610	12.621157	-57.365508	53.650	-0.210	-0.120	0.460	53.630	-1.900	0.400																			1580016711.0	7.56	14.00
26/01/2020 05:31:52	26012020	260120	053152	53.690	12.621175	-57.365478	53.710	-0.180	0.130	0.630	53.710	-1.500	0.800																			1580016712.0	7.08	13.11
26/01/2020 05:31:53	26012020	260120	053153	53.760	12.621192	-57.365452	53.660	0.040	0.030	0.580	53.760	-1.300	1.000																			1580016713.0	6.82	12.63
26/01/2020 05:31:54	26012020	260120	053154	53.740	12.621212	-57.365425	53.500	0.340	-0.310	0.410	53.720	-1.300	0.900																			1580016714.0	7.04	13.04
26/01/2020 05:31:55	26012020	260120	053155	53.610	12.621235	-57.365398	53.390	0.480	-0.560	0.140	53.580	-1.700	0.800																			1580016715.0	7.48	13.85
26/01/2020 05:31:56	26012020	260120	053156	53.490	12.621258	-57.365372	53.440	0.320	-0.530	-0.260	53.470	-1.900	0.500																			1580016716.0	7.64	14.15
26/01/2020 05:31:57	26012020	260120	053157	53.500	12.621282	-57.365345	53.580	0.010	-0.320	-0.610	53.530	-1.800	-0.100																			1580016717.0	7.45	13.80
26/01/2020 05:31:58	26012020	260120	053158	53.650	12.621305	-57.365320	53.660	-0.220	-0.020	-0.620	53.680	-1.700	-0.200																			1580016718.0	7.21	13.35
26/01/2020 05:31:59	26012020	260120	053159	53.750	12.621325	-57.365295	53.610	-0.330	0.200	-0.380	53.760	-1.400	-0.300																			1580016719.0	7.09	13.13
26/01/2020 05:32:00	26012020	260120	053200	53.730	12.621343	-57.365267	53.570	-0.330	0.150	-0.170	53.720	-1.200	-0.100	1014.60	25.90	25.90	20.70	20.80	0.00	73.00	73.00	436.00	25.60	21.00	9.80	86.00	6.40	16	3166.00	27.40	27.40	1580016720.0	7.07	13.09
26/01/2020 05:32:01	26012020	260120	053201	53.680	12.621363	-57.365238	53.620	-0.250	-0.070	-0.140	53.680	-1.200	0.200																			1580016721.0	7.23	13.39
26/01/2020 05:32:02	26012020	260120	053202	53.710	12.621383	-57.365210	53.770	-0.080	-0.140	-0.200	53.730	-1.400	0.200																			1580016722.0	7.47	13.83
26/01/2020 05:32:03	26012020	260120	053203	53.830	12.621405	-57.365182	53.940	0.120	-0.130	-0.220	53.870	-1.500	0.200																			1580016723.0	7.42	13.74
26/01/2020 05:32:04	26012020	260120	053204	54.010	12.621425	-57.365155	54.030	0.290	-0.260	-0.080	54.040	-1.500	0.100																			1580016724.0	7.15	13.24
26/01/2020 05:32:05	26012020	260120	053205	54.120	12.621445	-57.365128	53.970	0.340	-0.460	0.160	54.130	-1.600	0.300																			1580016725.0	7.16	13.26
26/01/2020 05:32:06	26012020	260120	053206	54.090	12.621465	-57.365100	53.880	0.160	-0.420	0.320	54.070	-1.800	0.500																			1580016726.0	7.41	13.72
26/01/2020 05:32:07	26012020	260120	053207	53.990	12.621485	-57.365072	53.820	-0.160	-0.120	0.320	53.980	-1.800	0.700																			1580016727.0	7.41	13.72
26/01/2020 05:32:08	26012020	260120	053208	53.930	12.621505	-57.365045	53.790	-0.360	0.130	0.270	53.920	-1.500	0.700																			1580016728.0	7.09	13.13
26/01/2020 05:32:09	26012020	260120	053209	53.880	12.621525	-57.365020	53.750	-0.270	-0.030	0.180	53.870	-1.300	0.600																			1580016729.0	6.88	12.74
26/01/2020 05:32:10	26012020	260120	053210	53.830	12.621545	-57.364993	53.790	0.040	-0.460	-0.090	53.830	-1.400	0.600																			1580016730.0	7.13	13.20
26/01/2020 05:32:11	26012020	260120	053211	53.870	12.621567	-57.364963	53.840	0.340	-0.660	-0.340	53.880	-1.800	0.300																			1580016731.0	7.62	14.11
26/01/2020 05:32:12	26012020	260120	053212	53.930	12.621590	-57.364935	53.800	0.390	-0.360	-0.410	53.930	-2.100	0.000																			1580016732.0	7.78	14.41
26/01/2020 05:32:13	26012020	260120	053213	53.900	12.621612	-57.364908	53.720	0.140	0.190	-0.390	53.890	-1.800	-0.100																			1580016733.0	7.43	13.76
26/01/2020 05:32:14	26012020	260120	053214	53.840	12.621632	-57.364882	53.650	-0.220	0.470	-0.340	53.820	-1.300	-0.000																			1580016734.0	6.93	12.83
26/01/2020 05:32:15	26012020	260120	053215	53.770	12.621652	-57.364857	53.710	-0.390	0.220	-0.340	53.760	-0.900	0.000																			1580016735.0	6.82	12.63
26/01/2020 05:32:16	26012020	260120	053216	53.790	12.621672	-57.364830	53.790	-0.260	-0.220	-0.310	53.810	-1.100	0.000																			1580016736.0	7.18	13.30
26/01/2020 05:32:17	26012020	260120	053217	53.890	12.621693	-57.364802	53.760	-0.050	-0.370	-0.070	53.900	-1.600	0.000																			1580016737.0	7.61	14.09
26/01/2020 05:32:18	26012020	260120	053218	53.890	12.621713	-57.364773	53.670	0.080	-0.320	0.250	53.870	-1.800	0.300																			1580016738.0	7.55	13.98
26/01/2020 05:32:19	26012020	260120	053219	53.790	12.621732	-57.364745	53.630	0.190	-0.460	0.490	53.770	-1.700	0.600																			1580016739.0	7.14	13.22
26/01/2020 05:32:20	26012020	260120	053220	53.730	12.621752	-57.364717	53.540	0.250	-0.590	0.560	53.720	-1.800	0.800																			1580016740.0	7.18	13.30
26/01/2020 05:32:21	26012020	260120	053221	53.660	12.621772	-57.364687	53.360	0.130	-0.340	0.440	53.640	-1.900	0.900																			1580016741.0	7.52	13.93
26/01/2020 05:32:22	26012020	260120	053222	53.500	12.621793	-57.364660	53.240	-0.100	0.090	0.260	53.470	-1.800	0.800																			1580016742.0	7.42	13.74
26/01/2020 05:32:23	26012020	260120	053223	53.360	12.621815	-57.364635	53.330	-0.200	0.220	0.030	53.350	-1.200	0.500																			1580016743.0	7.00	12.96
26/01/2020 05:32:24	26012020	260120	053224	53.400	12.621835	-57.364610	53.550	-0.120	-0.020	-0.320	53.430	-1.200	0.400																			1580016744.0	6.95	12.87
26/01/2020 05:32:25	26012020	260120	053225	53.620	12.621857	-57.364583	53.600	-0.030	-0.170	-0.530	53.660	-1.400	0.100																			1580016745.0	7.36	13.63
26/01/2020 05:32:26	26012020	260120	053226	53.730	12.621878	-57.364553	53.350	-0.070	0.050	-0.450	53.720	-1.600	-0.200																			1580016746.0	7.60	14.08
26/01/2020 05:32:27	26012020	260120	053227	53.530	12.621898	-57.364527	53.070	-0.110	0.110	-0.370	53.460	-1.400	-0.100																			1580016747.0	7.23	13.39
26/01/2020 05:32:28	26012020	260120	053228	53.220	12.621917	-57.364500	52.990	0.100	-0.410	-0.530	53.170	-1.300	0.000																			1580016748.0	6.85	12.69
26/01/2020 05:32:29	26012020	260120	053229	53.100	12.621940	-57.364475	53.040	0.430	-0.930	-0.730	53.110	-1.700	-0.100																			1580016749.0	7.32	13.56
26/01/2020 05:32:30	26012020	260120	053230	53.150	12.621965	-57.364447	53.050	0.520	-0.790	-0.620	53.170	-2.300	-0.400																			1580016750.0	7.96	14.74
26/01/2020 05:32:31	26012020	260120	053231	53.170	12.621988	-57.364420	52.970	0.210	-0.090	-0.120	53.160	-2.200	-0.300																			1580016751.0	7.74	14.33
26/01/2020 05:32:32	26012020	260120	053232	53.090	12.622008	-57.364393	52.970	-0.280	0.500	0.490	53.060	-1.600	0.200																			1580016752.0	6.98	12.93
26/01/2020 05:32:33	26012020	260120	053233	53.040	12.622025	-57.364367	53.080	-0.640	0.560	0.900	53.050	-0.900	0.800																			1580016753.0	6.65	12.32
26/01/2020 05:32:34	26012020	260120	053234	53.110	12.622042	-57.364338	53.180	-0.680	0.200	1.070	53.130	-0.800	1.200																			1580016754.0	6.92	12.82
26/01/2020 05:32:35	26012020	260120	053235	53.210	12.622060	-57.364308	53.250	-0.410	-0.220	1.100	53.230	-1.200	1.400																			1580016755.0	7.41	13.72
26/01/2020 05:32:36	26012020	260120	053236	53.290	12.622080	-57.364278	53.240	0.040	-0.560	0.960	53.300	-1.600	1.500																			1580016756.0	7.56	14.00
26/01/2020 05:32:37	26012020	260120	053237	53.300	12.622100	-57.364250	53.160	0.490	-0.770	0.550	53.300	-1.900	1.300																			1580016757.0	7.51	13.91
26/01/2020 05:32:38	26012020	260120	053238	53.240	12.622122	-57.364222	53.000	0.690	-0.600	-0.040	53.220	-2.200	1.000																			1580016758.0	7.53	13.95
26/01/2020 05:32:39	26012020	260120	053239	53.110	12.622145	-57.364197	52.880	0.520	-0.090	-0.680	53.080	-2.000	0.400																			1580016759.0	7.47	13.83
26/01/2020 05:32:40	26012020	260120	053240	52.990	12.622170	-57.364173	52.920	0.160	0.280	-1.330	52.980	-1.500	-0.200																			1580016760.0	7.08	13.11
26/01/2020 05:32:41	26012020	260120	053241	53.000	12.622193	-57.364152	53.120	-0.090	0.190	-1.840	53.030	-1.100	-0.900																			1580016761.0	6.88	12.74
26/01/2020 05:32:42	26012020	260120	053242	53.190	12.622218	-57.364128	53.340	-0.120	-0.170	-1.870	53.250	-1.200	-1.400																			1580016762.0	7.20	13.33
26/01/2020 05:32:43	26012020	260120	053243	53.430	12.622242	-57.364103	53.380	-0.120	-0.430	-1.230	53.460	-1.500	-1.500																			1580016763.0	7.59	14.06
26/01/2020 05:32:44	26012020	260120	053244	53.490	12.622263	-57.364073	53.320	-0.220	-0.360	-0.250	53.490	-1.800	-0.900																			1580016764.0	7.69	14.24
26/01/2020 05:32:45	26012020	260120	053245	53.420	12.622280	-57.364042	53.300	-0.380	-0.060	0.710	53.400	-1.800	0.000																			1580016765.0	7.49	13.87
26/01/2020 05:32:46	26012020	260120	053246	53.360	12.622295	-57.364012	53.380	-0.380	0.030	1.320	53.360	-1.500	1.000																			1580016766.0	7.14	13.22
26/01/2020 05:32:47	26012020	260120	053247	53.400	12.622310	-57.363982	53.410	-0.190	-0.170	1.470	53.420	-1.500	1.800																			1580016767.0	7.04	13.04
26/01/2020 05:32:48	26012020	260120	053248	53.470	12.622328	-57.363953	53.330	0.020	-0.280	1.310	53.470	-1.500	1.800																			1580016768.0	7.34	13.59
26/01/2020 05:32:49	26012020	260120	053249	53.420	12.622350	-57.363925	53.340	0.110	-0.150	0.880	53.410	-1.700	1.700																			1580016769.0	7.52	13.93
26/01/2020 05:32:50	26012020	260120	053250	53.400	12.622372	-57.363898	53.450	0.130	-0.060	0.230	53.420	-1.600	1.300																			1580016770.0	7.30	13.52
26/01/2020 05:32:51	26012020	260120	053251	53.520	12.622395	-57.363875	53.550	0.230	-0.160	-0.430	53.550	-1.500	0.700																			1580016771.0	7.09	13.13
26/01/2020 05:32:52	26012020	260120	053252	53.660	12.622418	-57.363850	53.480	0.400	-0.360	-0.890	53.670	-1.500	0.000																			1580016772.0	7.21	13.35
26/01/2020 05:32:53	26012020	260120	053253	53.640	12.622442	-57.363823	53.320	0.440	-0.410	-1.200	53.620	-1.700	-0.500																			1580016773.0	7.47	13.83
26/01/2020 05:32:54	26012020	260120	053254	53.500	12.622465	-57.363797	53.250	0.240	-0.230	-1.360	53.470	-1.800	-0.800																			1580016774.0	7.53	13.95
26/01/2020 05:32:55	26012020	260120	053255	53.400	12.622487	-57.363772	53.300	-0.050	0.010	-1.350	53.400	-1.600	-1.000																			1580016775.0	7.32	13.56
26/01/2020 05:32:56	26012020	260120	053256	53.430	12.622508	-57.363747	53.390	-0.270	0.100	-1.010	53.440	-1.400	-1.000																			1580016776.0	7.07	13.09
26/01/2020 05:32:57	26012020	260120	053257	53.510	12.622530	-57.363720	53.440	-0.350	-0.020	-0.390	53.520	-1.300	-0.700																			1580016777.0	7.08	13.11
26/01/2020 05:32:58	26012020	260120	053258	53.550	12.622548	-57.363692	53.490	-0.350	-0.210	0.310	53.560	-1.400	-0.100																			1580016778.0	7.27	13.46
26/01/2020 05:32:59	26012020	260120	053259	53.590	12.622565	-57.363660	53.470	-0.330	-0.260	0.970	53.590	-1.600	1.000																			1580016779.0	7.49	13.87
26/01/2020 05:33:00	26012020	260120	053300	53.560	12.622582	-57.363630	53.370	-0.250	-0.240	1.400	53.550	-1.700	1.300	1014.60	25.80	25.80	20.40	20.50	0.00	72.00	72.00	436.00	25.60	22.00	10.00	88.00	6.60	16	3133.00	27.40	27.40	1580016780.0	7.48	13.85
26/01/2020 05:33:01	26012020	260120	053301	53.470	12.622598	-57.363600	53.270	-0.030	-0.210	1.440	53.440	-1.600	1.700																			1580016781.0	7.27	13.46
26/01/2020 05:33:02	26012020	260120	053302	53.360	12.622618	-57.363572	53.240	0.280	-0.190	1.060	53.340	-1.600	1.800																			1580016782.0	7.19	13.32
26/01/2020 05:33:03	26012020	260120	053303	53.320	12.622638	-57.363545	53.170	0.490	-0.280	0.430	53.310	-1.600	1.500																			1580016783.0	7.23	13.39
26/01/2020 05:33:04	26012020	260120	053304	53.280	12.622662	-57.363520	53.130	0.500	-0.430	-0.270	53.270	-1.700	0.900																			1580016784.0	7.34	13.59
26/01/2020 05:33:05	26012020	260120	053305	53.230	12.622687	-57.363495	53.130	0.290	-0.350	-0.860	53.230	-1.800	0.200																			1580016785.0	7.59	14.06
26/01/2020 05:33:06	26012020	260120	053306	53.250	12.622713	-57.363468	53.140	-0.080	0.030	-1.130	53.250	-1.800	-0.400																			1580016786.0	7.62	14.11
26/01/2020 05:33:07	26012020	260120	053307	53.260	12.622737	-57.363445	53.200	-0.360	0.320	-1.140	53.260	-1.400	-0.700																			1580016787.0	7.19	13.32
26/01/2020 05:33:08	26012020	260120	053308	53.310	12.622757	-57.363420	53.230	-0.380	0.210	-0.890	53.320	-1.100	-0.800																			1580016788.0	6.88	12.74
26/01/2020 05:33:09	26012020	260120	053309	53.360	12.622775	-57.363392	53.140	-0.200	-0.180	-0.390	53.360	-1.200	-0.600																			1580016789.0	7.07	13.09
26/01/2020 05:33:10	26012020	260120	053310	53.270	12.622793	-57.363362	53.020	-0.020	-0.490	0.180	53.240	-1.500	-0.100																			1580016790.0	7.50	13.89
26/01/2020 05:33:11	26012020	260120	053311	53.140	12.622813	-57.363332	53.030	0.030	-0.500	0.550	53.120	-1.900	0.800																			1580016791.0	7.67	14.20
26/01/2020 05:33:12	26012020	260120	053312	53.110	12.622832	-57.363302	53.110	0.010	-0.280	0.660	53.120	-1.900	0.900																			1580016792.0	7.45	13.80
26/01/2020 05:33:13	26012020	260120	053313	53.190	12.622852	-57.363275	53.140	0.040	-0.080	0.670	53.200	-1.500	1.000																			1580016793.0	7.13	13.20
26/01/2020 05:33:14	26012020	260120	053314	53.240	12.622872	-57.363248	53.100	0.120	-0.050	0.640	53.240	-1.500	1.000																			1580016794.0	7.04	13.04
26/01/2020 05:33:15	26012020	260120	053315	53.200	12.622893	-57.363222	53.050	0.200	-0.160	0.560	53.190	-1.400	1.000																			1580016795.0	7.18	13.30
26/01/2020 05:33:16	26012020	260120	053316	53.140	12.622915	-57.363195	53.050	0.250	-0.330	0.360	53.140	-1.500	0.900																			1580016796.0	7.35	13.61
26/01/2020 05:33:17	26012020	260120	053317	53.130	12.622937	-57.363167	53.030	0.220	-0.370	0.140	53.130	-1.700	0.800																			1580016797.0	7.48	13.85
26/01/2020 05:33:18	26012020	260120	053318	53.120	12.622958	-57.363140	53.000	0.050	-0.150	-0.150	53.120	-1.800	0.500																			1580016798.0	7.54	13.96
26/01/2020 05:33:19	26012020	260120	053319	53.100	12.622980	-57.363113	53.020	-0.200	0.130	-0.430	53.100	-1.600	0.300																			1580016799.0	7.33	13.58
26/01/2020 05:33:20	26012020	260120	053320	53.100	12.623002	-57.363088	53.110	-0.360	0.190	-0.620	53.110	-1.300	-0.000																			1580016800.0	7.07	13.09
26/01/2020 05:33:21	26012020	260120	053321	53.180	12.623023	-57.363063	53.200	-0.320	-0.040	-0.690	53.200	-1.200	-0.200																			1580016801.0	7.05	13.06
26/01/2020 05:33:22	26012020	260120	053322	53.280	12.623045	-57.363035	53.170	-0.160	-0.320	-0.580	53.300	-1.400	-0.300																			1580016802.0	7.31	13.54
26/01/2020 05:33:23	26012020	260120	053323	53.280	12.623065	-57.363007	53.080	-0.030	-0.390	-0.280	53.270	-1.700	-0.200																			1580016803.0	7.55	13.98
26/01/2020 05:33:24	26012020	260120	053324	53.190	12.623087	-57.362978	52.970	0.050	-0.310	0.080	53.160	-1.800	0.000																			1580016804.0	7.47	13.83
26/01/2020 05:33:25	26012020	260120	053325	53.050	12.623105	-57.362950	53.030	0.110	-0.310	0.220	53.030	-1.700	0.400																			1580016805.0	7.23	13.39
26/01/2020 05:33:26	26012020	260120	053326	53.060	12.623125	-57.362923	53.180	0.180	-0.290	0.180	53.090	-1.700	0.600																			1580016806.0	7.20	13.33
26/01/2020 05:33:27	26012020	260120	053327	53.230	12.623147	-57.362895	53.080	0.160	-0.020	0.290	53.250	-1.700	0.500																			1580016807.0	7.36	13.63
26/01/2020 05:33:28	26012020	260120	053328	53.200	12.623167	-57.362868	52.780	0.030	0.240	0.510	53.150	-1.400	0.600																			1580016808.0	7.27	13.46
26/01/2020 05:33:29	26012020	260120	053329	52.910	12.623187	-57.362842	52.720	-0.030	-0.060	0.450	52.850	-1.200	0.900																			1580016809.0	6.98	12.93
26/01/2020 05:33:30	26012020	260120	053330	52.770	12.623207	-57.362815	52.930	0.140	-0.710	0.080	52.790	-1.400	0.800																			1580016810.0	7.17	13.28
26/01/2020 05:33:31	26012020	260120	053331	52.960	12.623232	-57.362787	53.160	0.290	-0.770	-0.260	53.010	-2.000	0.500																			1580016811.0	7.88	14.59
26/01/2020 05:33:32	26012020	260120	053332	53.210	12.623255	-57.362758	53.140	0.120	-0.030	-0.290	53.250	-2.200	0.100																			1580016812.0	7.99	14.80
26/01/2020 05:33:33	26012020	260120	053333	53.260	12.623277	-57.362733	52.890	-0.320	0.730	-0.040	53.230	-1.500	0.100																			1580016813.0	7.11	13.17
26/01/2020 05:33:34	26012020	260120	053334	53.030	12.623295	-57.362708	52.770	-0.590	0.650	0.150	52.980	-0.700	0.300																			1580016814.0	6.38	11.82
26/01/2020 05:33:35	26012020	260120	053335	52.850	12.623313	-57.362683	52.840	-0.390	-0.280	0.070	52.840	-0.700	0.500																			1580016815.0	6.64	12.30
26/01/2020 05:33:36	26012020	260120	053336	52.890	12.623333	-57.362655	52.900	0.060	-1.070	-0.150	52.920	-1.600	0.500																			1580016816.0	7.63	14.13
26/01/2020 05:33:37	26012020	260120	053337	52.980	12.623358	-57.362623	52.830	0.310	-0.920	-0.260	52.980	-2.500	0.100																			1580016817.0	8.27	15.32
26/01/2020 05:33:38	26012020	260120	053338	52.940	12.623382	-57.362595	52.750	0.210	-0.150	-0.130	52.920	-2.400	0.100																			1580016818.0	7.79	14.43
26/01/2020 05:33:39	26012020	260120	053339	52.830	12.623402	-57.362570	52.790	-0.020	0.340	-0.050	52.820	-1.600	0.200																			1580016819.0	6.76	12.52
26/01/2020 05:33:40	26012020	260120	053340	52.840	12.623420	-57.362547	52.830	-0.070	0.260	-0.100	52.860	-1.100	0.300																			1580016820.0	6.48	12.00
26/01/2020 05:33:41	26012020	260120	053341	52.900	12.623442	-57.362522	52.790	0.080	-0.060	-0.010	52.910	-1.100	0.300																			1580016821.0	7.04	13.04
26/01/2020 05:33:42	26012020	260120	053342	52.870	12.623463	-57.362493	52.780	0.270	-0.450	0.110	52.860	-1.400	0.300																			1580016822.0	7.52	13.93
26/01/2020 05:33:43	26012020	260120	053343	52.830	12.623485	-57.362465	52.900	0.290	-0.630	0.150	52.840	-1.800	0.500																			1580016823.0	7.65	14.17
26/01/2020 05:33:44	26012020	260120	053344	52.930	12.623507	-57.362435	53.040	0.080	-0.320	0.130	52.960	-2.000	0.500																			1580016824.0	7.66	14.19
26/01/2020 05:33:45	26012020	260120	053345	53.080	12.623527	-57.362408	53.010	-0.250	0.300	0.210	53.100	-1.800	0.500																			1580016825.0	7.33	13.58
26/01/2020 05:33:46	26012020	260120	053346	53.090	12.623547	-57.362383	52.870	-0.440	0.520	0.300	53.060	-1.100	0.600																			1580016826.0	6.73	12.46
26/01/2020 05:33:47	26012020	260120	053347	52.950	12.623565	-57.362358	52.860	-0.350	0.090	0.220	52.930	-0.900	0.700																			1580016827.0	6.62	12.26
26/01/2020 05:33:48	26012020	260120	053348	52.890	12.623587	-57.362332	53.020	-0.120	-0.520	-0.080	52.910	-1.200	0.600																			1580016828.0	7.24	13.41
26/01/2020 05:33:49	26012020	260120	053349	53.030	12.623610	-57.362303	53.180	0.120	-0.780	-0.350	53.080	-1.900	0.300																			1580016829.0	7.76	14.37
26/01/2020 05:33:50	26012020	260120	053350	53.220	12.623633	-57.362277	53.200	0.240	-0.590	-0.420	53.250	-2.200	0.000																			1580016830.0	7.69	14.24
26/01/2020 05:33:51	26012020	260120	053351	53.290	12.623653	-57.362248	53.070	0.190	-0.180	-0.270	53.280	-2.000	-0.000																			1580016831.0	7.28	13.48
26/01/2020 05:33:52	26012020	260120	053352	53.180	12.623673	-57.362223	52.980	0.070	0.090	-0.150	53.150	-1.600	0.100																			1580016832.0	6.95	12.87
26/01/2020 05:33:53	26012020	260120	053353	53.060	12.623693	-57.362197	53.030	0.000	0.070	-0.170	53.060	-1.300	0.200																			1580016833.0	6.92	12.82
26/01/2020 05:33:54	26012020	260120	053354	53.090	12.623715	-57.362172	53.210	0.060	-0.050	-0.290	53.110	-1.300	0.200																			1580016834.0	7.20	13.33
26/01/2020 05:33:55	26012020	260120	053355	53.250	12.623738	-57.362145	53.430	0.120	-0.110	-0.340	53.290	-1.400	0.100																			1580016835.0	7.42	13.74
26/01/2020 05:33:56	26012020	260120	053356	53.480	12.623760	-57.362117	53.460	0.010	-0.040	-0.080	53.510	-1.500	0.000																			1580016836.0	7.41	13.72
26/01/2020 05:33:57	26012020	260120	053357	53.550	12.623778	-57.362088	53.350	-0.250	0.010	0.240	53.540	-1.400	0.200																			1580016837.0	7.25	13.43
26/01/2020 05:33:58	26012020	260120	053358	53.450	12.623797	-57.362062	53.340	-0.350	-0.220	0.270	53.430	-1.400	0.600																			1580016838.0	7.06	13.08
26/01/2020 05:33:59	26012020	260120	053359	53.420	12.623817	-57.362033	53.360	-0.140	-0.540	0.210	53.420	-1.600	0.700																			1580016839.0	7.14	13.22
26/01/2020 05:34:00	26012020	260120	053400	53.450	12.623838	-57.362007	53.250	0.170	-0.530	0.200	53.450	-1.900	0.600	1014.50	25.80	25.90	20.60	20.60	0.00	73.00	73.00	436.00	25.70	19.00	10.50	82.00	7.10	16	3235.00	27.40	27.40	1580016840.0	7.52	13.93
26/01/2020 05:34:01	26012020	260120	053401	53.380	12.623860	-57.361978	53.090	0.300	-0.150	0.160	53.340	-1.700	0.600																			1580016841.0	7.54	13.96
26/01/2020 05:34:02	26012020	260120	053402	53.210	12.623882	-57.361952	53.100	0.210	0.140	-0.010	53.190	-1.600	0.500																			1580016842.0	7.12	13.19
26/01/2020 05:34:03	26012020	260120	053403	53.180	12.623902	-57.361927	53.340	0.060	0.020	-0.340	53.200	-1.300	0.200																			1580016843.0	6.86	12.70
26/01/2020 05:34:04	26012020	260120	053404	53.390	12.623923	-57.361902	53.540	0.000	-0.260	-0.610	53.440	-1.400	0.100																			1580016844.0	7.12	13.19
26/01/2020 05:34:05	26012020	260120	053405	53.620	12.623947	-57.361875	53.580	-0.020	-0.260	-0.520	53.650	-1.600	-0.200																			1580016845.0	7.55	13.98
26/01/2020 05:34:06	26012020	260120	053406	53.690	12.623968	-57.361848	53.580	-0.110	-0.060	-0.170	53.690	-1.700	-0.200																			1580016846.0	7.47	13.83
26/01/2020 05:34:07	26012020	260120	053407	53.690	12.623988	-57.361820	53.520	-0.260	0.030	0.290	53.680	-1.500	0.200																			1580016847.0	7.08	13.11
26/01/2020 05:34:08	26012020	260120	053408	53.620	12.624005	-57.361792	53.360	-0.320	-0.110	0.610	53.600	-1.400	0.600																			1580016848.0	7.01	12.98
26/01/2020 05:34:09	26012020	260120	053409	53.470	12.624023	-57.361763	53.360	-0.130	-0.420	0.590	53.440	-1.500	1.000																			1580016849.0	7.20	13.33
26/01/2020 05:34:10	26012020	260120	053410	53.430	12.624045	-57.361737	53.570	0.230	-0.630	0.300	53.440	-1.800	1.000																			1580016850.0	7.46	13.82
26/01/2020 05:34:11	26012020	260120	053411	53.610	12.624067	-57.361708	53.710	0.440	-0.420	0.050	53.660	-2.000	0.700																			1580016851.0	7.61	14.09
26/01/2020 05:34:12	26012020	260120	053412	53.800	12.624088	-57.361680	53.690	0.260	0.160	-0.110	53.820	-1.900	0.400																			1580016852.0	7.45	13.80
26/01/2020 05:34:13	26012020	260120	053413	53.820	12.624108	-57.361655	53.620	-0.140	0.580	-0.280	53.810	-1.300	0.300																			1580016853.0	6.93	12.83
26/01/2020 05:34:14	26012020	260120	053414	53.750	12.624128	-57.361632	53.590	-0.350	0.300	-0.540	53.730	-0.800	0.100																			1580016854.0	6.59	12.20
26/01/2020 05:34:15	26012020	260120	053415	53.710	12.624150	-57.361607	53.660	-0.160	-0.430	-0.830	53.710	-1.000	-0.100																			1580016855.0	6.96	12.89
26/01/2020 05:34:16	26012020	260120	053416	53.760	12.624175	-57.361580	53.750	0.220	-0.880	-0.920	53.780	-1.700	-0.400																			1580016856.0	7.73	14.32
26/01/2020 05:34:17	26012020	260120	053417	53.870	12.624200	-57.361552	53.740	0.410	-0.640	-0.610	53.870	-2.300	-0.500																			1580016857.0	7.98	14.78
26/01/2020 05:34:18	26012020	260120	053418	53.860	12.624220	-57.361523	53.720	0.260	-0.100	-0.070	53.850	-2.100	-0.300																			1580016858.0	7.43	13.76
26/01/2020 05:34:19	26012020	260120	053419	53.830	12.624237	-57.361497	53.730	-0.100	0.160	0.300	53.830	-1.500	0.300																			1580016859.0	6.81	12.61
26/01/2020 05:34:20	26012020	260120	053420	53.840	12.624253	-57.361468	53.780	-0.340	0.050	0.450	53.840	-1.200	0.700																			1580016860.0	6.78	12.56
26/01/2020 05:34:21	26012020	260120	053421	53.880	12.624273	-57.361442	53.850	-0.300	-0.100	0.570	53.900	-1.300	0.800																			1580016861.0	7.17	13.28
26/01/2020 05:34:22	26012020	260120	053422	53.950	12.624295	-57.361413	53.900	-0.100	-0.110	0.620	53.970	-1.500	0.900																			1580016862.0	7.45	13.80
26/01/2020 05:34:23	26012020	260120	053423	54.000	12.624315	-57.361385	53.890	0.060	-0.050	0.530	54.010	-1.500	1.000																			1580016863.0	7.35	13.61
26/01/2020 05:34:24	26012020	260120	053424	54.010	12.624335	-57.361358	53.850	0.120	-0.160	0.380	54.000	-1.400	0.900																			1580016864.0	7.14	13.22
26/01/2020 05:34:25	26012020	260120	053425	53.990	12.624355	-57.361332	53.850	0.110	-0.380	0.100	53.980	-1.500	0.800																			1580016865.0	7.15	13.24
26/01/2020 05:34:26	26012020	260120	053426	54.000	12.624377	-57.361303	53.850	0.040	-0.430	-0.280	54.000	-1.700	0.500																			1580016866.0	7.36	13.63
26/01/2020 05:34:27	26012020	260120	053427	54.000	12.624398	-57.361277	53.880	-0.040	-0.250	-0.640	54.000	-1.700	-0.100																			1580016867.0	7.44	13.78
26/01/2020 05:34:28	26012020	260120	053428	54.020	12.624422	-57.361252	53.960	-0.060	-0.030	-0.890	54.030	-1.700	-0.200																			1580016868.0	7.23	13.39
26/01/2020 05:34:29	26012020	260120	053429	54.100	12.624443	-57.361227	53.990	-0.030	0.060	-0.940	54.110	-1.400	-0.500																			1580016869.0	7.05	13.06
26/01/2020 05:34:30	26012020	260120	053430	54.150	12.624465	-57.361202	53.960	0.020	0.000	-0.690	54.150	-1.300	-0.600																			1580016870.0	7.09	13.13
26/01/2020 05:34:31	26012020	260120	053431	54.110	12.624485	-57.361175	53.930	0.090	-0.210	-0.230	54.100	-1.400	-0.400																			1580016871.0	7.18	13.30
26/01/2020 05:34:32	26012020	260120	053432	54.060	12.624503	-57.361145	53.920	0.170	-0.480	0.200	54.050	-1.600	0.100																			1580016872.0	7.32	13.56
26/01/2020 05:34:33	26012020	260120	053433	54.050	12.624522	-57.361115	53.930	0.180	-0.540	0.510	54.050	-1.800	0.500																			1580016873.0	7.51	13.91
26/01/2020 05:34:34	26012020	260120	053434	54.050	12.624542	-57.361087	53.990	0.050	-0.220	0.640	54.050	-1.900	0.900																			1580016874.0	7.55	13.98
26/01/2020 05:34:35	26012020	260120	053435	54.090	12.624562	-57.361058	54.080	-0.120	0.260	0.630	54.110	-1.700	1.000																			1580016875.0	7.25	13.43
26/01/2020 05:34:36	26012020	260120	053436	54.180	12.624582	-57.361033	54.150	-0.250	0.430	0.580	54.200	-1.200	1.000																			1580016876.0	6.84	12.67
26/01/2020 05:34:37	26012020	260120	053437	54.260	12.624600	-57.361007	54.230	-0.260	0.050	0.440	54.280	-1.000	1.000																			1580016877.0	6.77	12.54
26/01/2020 05:34:38	26012020	260120	053438	54.340	12.624620	-57.360980	54.220	-0.130	-0.530	0.270	54.360	-1.300	0.800																			1580016878.0	7.18	13.30
26/01/2020 05:34:39	26012020	260120	053439	54.370	12.624642	-57.360950	54.130	0.050	-0.750	0.120	54.370	-2.100	0.600																			1580016879.0	7.68	14.22
26/01/2020 05:34:40	26012020	260120	053440	54.290	12.624663	-57.360922	53.990	0.140	-0.520	-0.120	54.270	-2.100	0.500																			1580016880.0	7.71	14.28
26/01/2020 05:34:41	26012020	260120	053441	54.160	12.624683	-57.360893	53.880	0.110	-0.100	-0.470	54.130	-1.900	0.300																			1580016881.0	7.32	13.56
26/01/2020 05:34:42	26012020	260120	053442	54.040	12.624705	-57.360868	53.900	0.080	0.130	-0.830	54.030	-1.500	-0.000																			1580016882.0	6.97	12.91
26/01/2020 05:34:43	26012020	260120	053443	54.040	12.624727	-57.360845	54.000	0.140	0.030	-1.110	54.050	-1.300	-0.400																			1580016883.0	6.94	12.85
26/01/2020 05:34:44	26012020	260120	053444	54.140	12.624750	-57.360818	54.070	0.180	-0.090	-1.070	54.150	-1.300	-0.700																			1580016884.0	7.25	13.43
26/01/2020 05:34:45	26012020	260120	053445	54.210	12.624772	-57.360792	54.060	0.040	-0.030	-0.740	54.210	-1.500	-0.700																			1580016885.0	7.49	13.87
26/01/2020 05:34:46	26012020	260120	053446	54.200	12.624792	-57.360763	53.970	-0.190	-0.040	-0.210	54.190	-1.400	-0.400																			1580016886.0	7.28	13.48
26/01/2020 05:34:47	26012020	260120	053447	54.120	12.624810	-57.360735	53.890	-0.290	-0.270	0.350	54.100	-1.400	0.100																			1580016887.0	7.10	13.15
26/01/2020 05:34:48	26012020	260120	053448	54.010	12.624828	-57.360707	53.910	-0.190	-0.500	0.710	54.000	-1.600	0.700																			1580016888.0	7.30	13.52
26/01/2020 05:34:49	26012020	260120	053449	54.000	12.624847	-57.360677	53.950	0.020	-0.480	0.930	54.010	-1.900	1.100																			1580016889.0	7.52	13.93
26/01/2020 05:34:50	26012020	260120	053450	54.050	12.624865	-57.360647	53.860	0.180	-0.220	1.020	54.050	-1.900	1.300																			1580016890.0	7.45	13.80
26/01/2020 05:34:51	26012020	260120	053451	53.990	12.624883	-57.360618	53.730	0.190	-0.010	0.870	53.970	-1.500	1.400																			1580016891.0	7.19	13.32
26/01/2020 05:34:52	26012020	260120	053452	53.860	12.624902	-57.360590	53.660	0.080	0.060	0.460	53.830	-1.400	1.300																			1580016892.0	7.05	13.06
26/01/2020 05:34:53	26012020	260120	053453	53.780	12.624923	-57.360565	53.530	-0.060	0.100	-0.020	53.770	-1.300	0.600																			1580016893.0	7.17	13.28
26/01/2020 05:34:54	26012020	260120	053454	53.680	12.624947	-57.360540	53.450	-0.160	0.070	-0.570	53.660	-1.300	0.400																			1580016894.0	7.27	13.46
26/01/2020 05:34:55	26012020	260120	053455	53.580	12.624970	-57.360515	53.520	-0.110	-0.150	-1.100	53.580	-1.300	-0.100																			1580016895.0	7.22	13.37
26/01/2020 05:34:56	26012020	260120	053456	53.640	12.624993	-57.360490	53.550	0.070	-0.500	-1.260	53.660	-1.500	-0.700																			1580016896.0	7.28	13.48
26/01/2020 05:34:57	26012020	260120	053457	53.720	12.625017	-57.360463	53.350	0.170	-0.640	-0.940	53.710	-1.900	-0.900																			1580016897.0	7.50	13.89
26/01/2020 05:34:58	26012020	260120	053458	53.550	12.625037	-57.360433	53.130	0.080	-0.440	-0.490	53.500	-2.000	-0.600																			1580016898.0	7.59	14.06
26/01/2020 05:34:59	26012020	260120	053459	53.300	12.625057	-57.360405	53.110	-0.060	-0.150	-0.130	53.270	-1.800	-0.200																			1580016899.0	7.31	13.54
26/01/2020 05:35:00	26012020	260120	053500	53.230	12.625075	-57.360378	53.230	-0.070	0.010	0.220	53.240	-1.600	0.200	1014.50	25.80	25.80	20.50	20.60	0.00	72.00	72.00	436.00	25.60	17.00	10.30	80.00	6.80	16	3222.00	27.40	27.40	1580016900.0	7.05	13.06
26/01/2020 05:35:01	26012020	260120	053501	53.320	12.625093	-57.360350	53.240	0.020	0.090	0.570	53.340	-1.400	0.600																			1580016901.0	7.11	13.17
26/01/2020 05:35:02	26012020	260120	053502	53.360	12.625112	-57.360322	53.100	0.040	0.150	0.880	53.340	-1.300	0.900																			1580016902.0	7.28	13.48
26/01/2020 05:35:03	26012020	260120	053503	53.230	12.625130	-57.360293	52.980	-0.030	0.110	1.010	53.200	-1.200	1.200																			1580016903.0	7.27	13.46
26/01/2020 05:35:04	26012020	260120	053504	53.090	12.625150	-57.360265	52.970	-0.070	-0.190	0.840	53.070	-1.300	1.400																			1580016904.0	7.18	13.30
26/01/2020 05:35:05	26012020	260120	053505	53.060	12.625170	-57.360238	53.050	-0.010	-0.530	0.450	53.070	-1.500	1.300																			1580016905.0	7.29	13.50
26/01/2020 05:35:06	26012020	260120	053506	53.140	12.625193	-57.360210	53.080	0.030	-0.530	0.040	53.150	-1.900	0.900																			1580016906.0	7.56	14.00
26/01/2020 05:35:07	26012020	260120	053507	53.190	12.625217	-57.360185	52.990	-0.050	-0.190	-0.260	53.190	-1.900	0.500																			1580016907.0	7.51	13.91
26/01/2020 05:35:08	26012020	260120	053508	53.140	12.625238	-57.360158	52.920	-0.140	0.110	-0.430	53.110	-1.600	0.100																			1580016908.0	7.11	13.17
26/01/2020 05:35:09	26012020	260120	053509	53.050	12.625260	-57.360135	52.870	-0.080	0.050	-0.530	53.030	-1.300	-0.000																			1580016909.0	6.84	12.67
26/01/2020 05:35:10	26012020	260120	053510	52.990	12.625280	-57.360108	52.830	0.090	-0.250	-0.640	52.990	-1.300	-0.100																			1580016910.0	7.04	13.04
26/01/2020 05:35:11	26012020	260120	053511	52.960	12.625302	-57.360082	52.700	0.230	-0.470	-0.630	52.950	-1.600	-0.300																			1580016911.0	7.45	13.80
26/01/2020 05:35:12	26012020	260120	053512	52.850	12.625323	-57.360053	52.610	0.240	-0.420	-0.440	52.820	-1.800	-0.300																			1580016912.0	7.63	14.13
26/01/2020 05:35:13	26012020	260120	053513	52.730	12.625345	-57.360025	52.670	0.130	-0.230	-0.290	52.720	-1.800	-0.100																			1580016913.0	7.44	13.78
26/01/2020 05:35:14	26012020	260120	053514	52.740	12.625367	-57.359998	52.820	-0.020	-0.040	-0.200	52.760	-1.600	0.100																			1580016914.0	7.22	13.37
26/01/2020 05:35:15	26012020	260120	053515	52.870	12.625387	-57.359972	52.930	-0.130	0.130	0.050	52.910	-1.300	0.300																			1580016915.0	7.14	13.22
26/01/2020 05:35:16	26012020	260120	053516	52.990	12.625407	-57.359945	52.970	-0.160	0.150	0.430	53.000	-1.300	0.400																			1580016916.0	7.09	13.13
26/01/2020 05:35:17	26012020	260120	053517	53.030	12.625427	-57.359918	52.970	-0.170	-0.080	0.770	53.030	-1.300	1.000																			1580016917.0	7.13	13.20
26/01/2020 05:35:18	26012020	260120	053518	53.030	12.625445	-57.359888	52.880	-0.200	-0.300	0.940	53.030	-1.400	1.100																			1580016918.0	7.34	13.59
26/01/2020 05:35:19	26012020	260120	053519	52.960	12.625463	-57.359858	52.740	-0.220	-0.320	0.750	52.930	-1.700	1.300																			1580016919.0	7.51	13.91
26/01/2020 05:35:20	26012020	260120	053520	52.820	12.625485	-57.359832	52.650	-0.110	-0.310	0.330	52.800	-1.700	1.200																			1580016920.0	7.34	13.59
26/01/2020 05:35:21	26012020	260120	053521	52.730	12.625507	-57.359807	52.620	0.130	-0.350	-0.120	52.720	-1.700	0.800																			1580016921.0	7.19	13.32
26/01/2020 05:35:22	26012020	260120	053522	52.690	12.625530	-57.359780	52.680	0.280	-0.250	-0.550	52.700	-1.700	0.300																			1580016922.0	7.34	13.59
26/01/2020 05:35:23	26012020	260120	053523	52.750	12.625553	-57.359755	52.690	0.180	0.040	-0.780	52.770	-1.700	-0.100																			1580016923.0	7.39	13.69
26/01/2020 05:35:24	26012020	260120	053524	52.780	12.625577	-57.359730	52.640	-0.080	0.240	-0.880	52.780	-1.400	-0.400																			1580016924.0	7.13	13.20
26/01/2020 05:35:25	26012020	260120	053525	52.730	12.625597	-57.359705	52.630	-0.180	-0.010	-0.920	52.720	-1.200	-0.500																			1580016925.0	6.90	12.78
26/01/2020 05:35:26	26012020	260120	053526	52.710	12.625618	-57.359680	52.690	0.060	-0.630	-0.820	52.720	-1.300	-0.500																			1580016926.0	7.10	13.15
26/01/2020 05:35:27	26012020	260120	053527	52.760	12.625640	-57.359652	52.760	0.430	-0.990	-0.540	52.770	-1.900	-0.500																			1580016927.0	7.68	14.22
26/01/2020 05:35:28	26012020	260120	053528	52.820	12.625663	-57.359622	52.750	0.560	-0.610	-0.070	52.820	-2.400	-0.200																			1580016928.0	8.00	14.82
26/01/2020 05:35:29	26012020	260120	053529	52.820	12.625683	-57.359592	52.680	0.220	0.280	0.510	52.810	-2.100	0.200																			1580016929.0	7.57	14.02
26/01/2020 05:35:30	26012020	260120	053530	52.740	12.625702	-57.359565	52.630	-0.400	0.910	0.950	52.720	-1.200	0.800																			1580016930.0	6.79	12.58
26/01/2020 05:35:31	26012020	260120	053531	52.660	12.625717	-57.359540	52.610	-0.820	0.700	1.070	52.650	-0.500	1.300																			1580016931.0	6.40	11.85
26/01/2020 05:35:32	26012020	260120	053532	52.620	12.625735	-57.359513	52.610	-0.720	-0.120	0.900	52.620	-0.600	1.400																			1580016932.0	6.81	12.61
26/01/2020 05:35:33	26012020	260120	053533	52.610	12.625758	-57.359485	52.660	-0.240	-0.820	0.570	52.620	-1.400	1.300																			1580016933.0	7.61	14.09
26/01/2020 05:35:34	26012020	260120	053534	52.670	12.625782	-57.359457	52.760	0.210	-0.940	0.130	52.690	-2.100	1.000																			1580016934.0	7.98	14.78
26/01/2020 05:35:35	26012020	260120	053535	52.770	12.625805	-57.359428	52.830	0.370	-0.540	-0.250	52.800	-2.300	0.600																			1580016935.0	7.66	14.19
26/01/2020 05:35:36	26012020	260120	053536	52.880	12.625827	-57.359403	52.760	0.290	-0.040	-0.400	52.880	-2.000	0.200																			1580016936.0	7.08	13.11
26/01/2020 05:35:37	26012020	260120	053537	52.840	12.625847	-57.359380	52.600	0.150	0.140	-0.550	52.810	-1.500	-0.000																			1580016937.0	6.74	12.48
26/01/2020 05:35:38	26012020	260120	053538	52.690	12.625868	-57.359355	52.540	0.090	-0.020	-0.820	52.660	-1.200	-0.200																			1580016938.0	6.89	12.76
26/01/2020 05:35:39	26012020	260120	053539	52.600	12.625892	-57.359330	52.630	0.130	-0.210	-0.980	52.610	-1.400	-0.400																			1580016939.0	7.34	13.59
26/01/2020 05:35:40	26012020	260120	053540	52.670	12.625915	-57.359303	52.770	0.190	-0.280	-0.880	52.700	-1.600	-0.600																			1580016940.0	7.55	13.98
26/01/2020 05:35:41	26012020	260120	053541	52.810	12.625938	-57.359277	52.840	0.180	-0.270	-0.480	52.830	-1.700	-0.300																			1580016941.0	7.46	13.82
26/01/2020 05:35:42	26012020	260120	053542	52.890	12.625958	-57.359248	52.890	0.110	-0.260	0.130	52.900	-1.600	-0.200																			1580016942.0	7.31	13.54
26/01/2020 05:35:43	26012020	260120	053543	52.930	12.625977	-57.359220	52.920	-0.040	-0.150	0.620	52.930	-1.600	0.800																			1580016943.0	7.34	13.59
26/01/2020 05:35:44	26012020	260120	053544	52.960	12.625993	-57.359190	52.930	-0.250	0.130	0.820	52.970	-1.500	1.000																			1580016944.0	7.33	13.58
26/01/2020 05:35:45	26012020	260120	053545	52.990	12.626013	-57.359162	52.880	-0.470	0.440	0.840	52.990	-1.300	1.200																			1580016945.0	7.16	13.26
26/01/2020 05:35:46	26012020	260120	053546	52.950	12.626032	-57.359137	52.860	-0.530	0.370	0.680	52.940	-1.000	1.200																			1580016946.0	6.88	12.74
26/01/2020 05:35:47	26012020	260120	053547	52.910	12.626053	-57.359112	52.880	-0.320	-0.280	0.280	52.910	-1.000	1.100																			1580016947.0	6.85	12.69
26/01/2020 05:35:48	26012020	260120	053548	52.940	12.626075	-57.359085	52.940	0.060	-0.970	-0.210	52.950	-1.600	0.700																			1580016948.0	7.38	13.67
26/01/2020 05:35:49	26012020	260120	053549	53.000	12.626100	-57.359057	52.940	0.350	-1.030	-0.480	53.010	-2.300	0.200																			1580016949.0	7.95	14.72
26/01/2020 05:35:50	26012020	260120	053550	53.030	12.626125	-57.359030	52.880	0.450	-0.510	-0.560	53.030	-2.400	-0.100																			1580016950.0	7.77	14.39
26/01/2020 05:35:51	26012020	260120	053551	52.990	12.626145	-57.359003	52.890	0.400	-0.000	-0.640	52.980	-1.900	-0.200																			1580016951.0	7.05	13.06
26/01/2020 05:35:52	26012020	260120	053552	52.980	12.626165	-57.358978	52.920	0.220	0.230	-0.670	52.980	-1.400	-0.300																			1580016952.0	6.76	12.52
26/01/2020 05:35:53	26012020	260120	053553	53.000	12.626185	-57.358953	52.880	-0.050	0.280	-0.560	53.000	-1.200	-0.300																			1580016953.0	7.01	12.98
26/01/2020 05:35:54	26012020	260120	053554	52.980	12.626207	-57.358927	52.840	-0.270	0.300	-0.410	52.960	-1.100	-0.200																			1580016954.0	7.27	13.46
26/01/2020 05:35:55	26012020	260120	053555	52.920	12.626228	-57.358900	52.910	-0.270	0.130	-0.280	52.910	-1.100	-0.000																			1580016955.0	7.27	13.46
26/01/2020 05:35:56	26012020	260120	053556	52.950	12.626250	-57.358873	53.090	-0.030	-0.380	-0.100	52.980	-1.200	0.100																			1580016956.0	7.18	13.30
26/01/2020 05:35:57	26012020	260120	053557	53.120	12.626270	-57.358845	53.190	0.220	-0.820	0.210	53.160	-1.700	0.300																			1580016957.0	7.44	13.78
26/01/2020 05:35:58	26012020	260120	053558	53.260	12.626292	-57.358815	53.070	0.170	-0.610	0.550	53.260	-2.200	0.500																			1580016958.0	7.81	14.46
26/01/2020 05:35:59	26012020	260120	053559	53.170	12.626310	-57.358785	52.930	-0.130	0.080	0.800	53.140	-2.000	0.900																			1580016959.0	7.53	13.95
26/01/2020 05:36:00	26012020	260120	053600	53.030	12.626328	-57.358760	52.920	-0.390	0.500	0.800	53.010	-1.400	1.200	1014.50	25.80	25.80	20.30	20.40	0.00	71.00	71.00	436.00	25.70	23.00	10.30	88.00	7.00	16	3254.00	27.40	27.40	1580016960.0	6.77	12.54
26/01/2020 05:36:01	26012020	260120	053601	52.990	12.626347	-57.358735	52.970	-0.330	0.150	0.420	53.000	-0.900	1.200																			1580016961.0	6.42	11.89
26/01/2020 05:36:02	26012020	260120	053602	53.050	12.626367	-57.358708	53.010	-0.000	-0.550	-0.120	53.060	-1.100	0.900																			1580016962.0	7.00	12.96
26/01/2020 05:36:03	26012020	260120	053603	53.100	12.626392	-57.358682	53.090	0.310	-0.830	-0.560	53.110	-1.900	0.300																			1580016963.0	7.83	14.50
26/01/2020 05:36:04	26012020	260120	053604	53.170	12.626417	-57.358655	53.140	0.360	-0.440	-0.780	53.190	-2.200	-0.100																			1580016964.0	7.96	14.74
26/01/2020 05:36:05	26012020	260120	053605	53.250	12.626440	-57.358630	53.120	0.140	0.180	-0.720	53.250	-1.500	-0.400																			1580016965.0	7.33	13.58
26/01/2020 05:36:06	26012020	260120	053606	53.230	12.626460	-57.358605	53.130	-0.110	0.360	-0.570	53.220	-1.200	-0.400																			1580016966.0	6.68	12.37
26/01/2020 05:36:07	26012020	260120	053607	53.220	12.626480	-57.358580	53.310	-0.120	-0.060	-0.510	53.230	-1.000	-0.200																			1580016967.0	6.67	12.35
26/01/2020 05:36:08	26012020	260120	053608	53.370	12.626502	-57.358553	53.440	0.090	-0.480	-0.290	53.410	-1.400	-0.100																			1580016968.0	7.30	13.52
26/01/2020 05:36:09	26012020	260120	053609	53.530	12.626523	-57.358523	53.370	0.210	-0.430	0.110	53.540	-1.800	0.100																			1580016969.0	7.81	14.46
26/01/2020 05:36:10	26012020	260120	053610	53.490	12.626542	-57.358495	53.280	0.070	-0.170	0.370	53.470	-1.800	0.400																			1580016970.0	7.54	13.96
26/01/2020 05:36:11	26012020	260120	053611	53.370	12.626562	-57.358467	53.380	-0.170	-0.060	0.330	53.370	-1.600	0.700																			1580016971.0	7.05	13.06
26/01/2020 05:36:12	26012020	260120	053612	53.430	12.626582	-57.358440	53.640	-0.290	-0.000	0.120	53.470	-1.400	0.700																			1580016972.0	6.99	12.95
26/01/2020 05:36:13	26012020	260120	053613	53.660	12.626603	-57.358415	53.840	-0.280	0.130	0.020	53.720	-1.400	0.500																			1580016973.0	7.17	13.28
26/01/2020 05:36:14	26012020	260120	053614	53.890	12.626623	-57.358390	53.880	-0.200	0.110	0.050	53.930	-1.300	0.400																			1580016974.0	7.11	13.17
26/01/2020 05:36:15	26012020	260120	053615	53.970	12.626643	-57.358363	53.780	-0.030	-0.230	0.040	53.950	-1.200	0.400																			1580016975.0	7.00	12.96
26/01/2020 05:36:16	26012020	260120	053616	53.880	12.626663	-57.358335	53.630	0.210	-0.590	-0.010	53.850	-1.600	0.400																			1580016976.0	7.25	13.43
26/01/2020 05:36:17	26012020	260120	053617	53.730	12.626685	-57.358307	53.540	0.430	-0.690	-0.190	53.700	-1.900	0.400																			1580016977.0	7.56	14.00
26/01/2020 05:36:18	26012020	260120	053618	53.620	12.626707	-57.358278	53.630	0.510	-0.580	-0.590	53.610	-2.100	0.200																			1580016978.0	7.49	13.87
26/01/2020 05:36:19	26012020	260120	053619	53.680	12.626730	-57.358253	53.870	0.360	-0.270	-1.040	53.710	-1.800	-0.500																			1580016979.0	7.36	13.63
26/01/2020 05:36:20	26012020	260120	053620	53.900	12.626753	-57.358228	54.070	0.000	0.290	-1.070	53.950	-1.700	-0.600																			1580016980.0	7.32	13.56
26/01/2020 05:36:21	26012020	260120	053621	54.130	12.626777	-57.358205	54.040	-0.430	0.730	-0.520	54.150	-1.100	-0.700																			1580016981.0	7.01	12.98
26/01/2020 05:36:22	26012020	260120	053622	54.150	12.626795	-57.358178	53.920	-0.720	0.560	0.190	54.120	-0.700	-0.200																			1580016982.0	6.67	12.35
26/01/2020 05:36:23	26012020	260120	053623	54.000	12.626810	-57.358150	53.930	-0.640	-0.250	0.620	53.980	-0.800	0.500																			1580016983.0	6.91	12.80
26/01/2020 05:36:24	26012020	260120	053624	53.970	12.626828	-57.358120	54.060	-0.200	-1.060	0.730	53.980	-1.500	1.000																			1580016984.0	7.53	13.95
26/01/2020 05:36:25	26012020	260120	053625	54.090	12.626848	-57.358088	54.090	0.250	-1.050	0.780	54.110	-2.400	1.100																			1580016985.0	8.04	14.89
26/01/2020 05:36:26	26012020	260120	053626	54.160	12.626868	-57.358057	53.980	0.450	-0.360	0.720	54.150	-2.500	1.200																			1580016986.0	7.76	14.37
26/01/2020 05:36:27	26012020	260120	053627	54.070	12.626887	-57.358032	53.880	0.420	0.190	0.360	54.050	-1.800	1.100																			1580016987.0	6.87	12.72
26/01/2020 05:36:28	26012020	260120	053628	53.970	12.626908	-57.358008	53.810	0.340	0.300	-0.200	53.950	-1.200	0.800																			1580016988.0	6.55	12.13
26/01/2020 05:36:29	26012020	260120	053629	53.910	12.626932	-57.357985	53.830	0.240	0.120	-0.770	53.900	-1.100	0.200																			1580016989.0	7.03	13.02
26/01/2020 05:36:30	26012020	260120	053630	53.920	12.626955	-57.357960	53.930	0.070	-0.150	-1.150	53.940	-1.200	-0.300																			1580016990.0	7.42	13.74
26/01/2020 05:36:31	26012020	260120	053631	54.010	12.626980	-57.357933	54.020	-0.140	-0.380	-1.190	54.040	-1.700	-0.800																			1580016991.0	7.52	13.93
26/01/2020 05:36:32	26012020	260120	053632	54.120	12.627002	-57.357907	54.030	-0.290	-0.440	-0.810	54.140	-1.700	-0.800																			1580016992.0	7.49	13.87
26/01/2020 05:36:33	26012020	260120	053633	54.140	12.627022	-57.357878	53.970	-0.360	-0.260	-0.230	54.120	-1.700	-0.100																			1580016993.0	7.39	13.69
26/01/2020 05:36:34	26012020	260120	053634	54.070	12.627040	-57.357850	53.990	-0.340	-0.050	0.290	54.060	-1.600	0.100																			1580016994.0	7.22	13.37
26/01/2020 05:36:35	26012020	260120	053635	54.060	12.627057	-57.357820	54.030	-0.230	0.030	0.660	54.060	-1.400	0.600																			1580016995.0	7.05	13.06
26/01/2020 05:36:36	26012020	260120	053636	54.090	12.627073	-57.357792	54.050	-0.080	0.030	0.820	54.100	-1.300	1.000																			1580016996.0	7.09	13.13
26/01/2020 05:36:37	26012020	260120	053637	54.120	12.627090	-57.357763	54.010	0.050	0.000	0.780	54.120	-1.300	1.200																			1580016997.0	7.20	13.33
26/01/2020 05:36:38	26012020	260120	053638	54.090	12.627110	-57.357735	53.900	0.200	-0.210	0.550	54.080	-1.300	1.200																			1580016998.0	7.15	13.24
26/01/2020 05:36:39	26012020	260120	053639	53.990	12.627132	-57.357708	53.820	0.400	-0.640	0.140	53.970	-1.500	1.000																			1580016999.0	7.20	13.33
26/01/2020 05:36:40	26012020	260120	053640	53.900	12.627155	-57.357683	53.890	0.570	-0.860	-0.430	53.900	-2.000	0.600																			1580017000.0	7.55	13.98
26/01/2020 05:36:41	26012020	260120	053641	53.960	12.627182	-57.357657	54.000	0.460	-0.460	-0.790	53.990	-2.200	0.000																			1580017001.0	7.83	14.50
26/01/2020 05:36:42	26012020	260120	053642	54.080	12.627205	-57.357632	54.080	0.020	0.380	-0.740	54.100	-1.900	-0.400																			1580017002.0	7.53	13.95
26/01/2020 05:36:43	26012020	260120	053643	54.160	12.627227	-57.357607	54.120	-0.500	0.860	-0.450	54.170	-1.100	-0.400																			1580017003.0	6.75	12.50
26/01/2020 05:36:44	26012020	260120	053644	54.210	12.627243	-57.357582	54.170	-0.690	0.480	-0.070	54.220	-0.500	-0.100																			1580017004.0	6.40	11.85
26/01/2020 05:36:45	26012020	260120	053645	54.240	12.627260	-57.357553	54.150	-0.400	-0.470	0.350	54.250	-0.800	0.300																			1580017005.0	6.94	12.85
26/01/2020 05:36:46	26012020	260120	053646	54.230	12.627278	-57.357522	54.060	0.100	-1.110	0.670	54.220	-1.700	0.700																			1580017006.0	7.83	14.50
26/01/2020 05:36:47	26012020	260120	053647	54.140	12.627297	-57.357488	53.990	0.410	-0.960	0.720	54.120	-2.400	1.000																			1580017007.0	8.14	15.08
26/01/2020 05:36:48	26012020	260120	053648	54.060	12.627317	-57.357458	53.910	0.360	-0.260	0.600	54.050	-2.400	1.100																			1580017008.0	7.60	14.08
26/01/2020 05:36:49	26012020	260120	053649	53.990	12.627337	-57.357433	53.810	0.120	0.400	0.270	53.980	-1.700	1.000																			1580017009.0	6.85	12.69
26/01/2020 05:36:50	26012020	260120	053650	53.900	12.627358	-57.357410	53.820	-0.130	0.600	-0.220	53.890	-1.000	0.700																			1580017010.0	6.57	12.17
26/01/2020 05:36:51	26012020	260120	053651	53.900	12.627380	-57.357387	53.920	-0.240	0.240	-0.620	53.910	-0.800	0.200																			1580017011.0	6.79	12.58
26/01/2020 05:36:52	26012020	260120	053652	53.990	12.627402	-57.357362	54.010	-0.210	-0.350	-0.760	54.010	-1.100	-0.200																			1580017012.0	7.26	13.45
26/01/2020 05:36:53	26012020	260120	053653	54.090	12.627425	-57.357335	54.020	-0.110	-0.680	-0.640	54.110	-1.700	-0.400																			1580017013.0	7.66	14.19
26/01/2020 05:36:54	26012020	260120	053654	54.120	12.627447	-57.357305	53.940	-0.030	-0.620	-0.350	54.110	-2.000	-0.300																			1580017014.0	7.67	14.20
26/01/2020 05:36:55	26012020	260120	053655	54.040	12.627465	-57.357275	53.910	0.010	-0.350	-0.110	54.020	-1.800	0.200																			1580017015.0	7.36	13.63
26/01/2020 05:36:56	26012020	260120	053656	53.980	12.627483	-57.357248	53.890	0.090	-0.020	0.090	53.980	-1.700	0.300																			1580017016.0	7.05	13.06
26/01/2020 05:36:57	26012020	260120	053657	53.970	12.627502	-57.357222	53.810	0.160	0.170	0.290	53.970	-1.400	0.400																			1580017017.0	6.95	12.87
26/01/2020 05:36:58	26012020	260120	053658	53.900	12.627520	-57.357195	53.720	0.180	0.050	0.430	53.880	-1.200	0.600																			1580017018.0	6.96	12.89
26/01/2020 05:36:59	26012020	260120	053659	53.800	12.627540	-57.357167	53.710	0.150	-0.300	0.380	53.790	-1.300	0.800																			1580017019.0	7.18	13.30
26/01/2020 05:37:00	26012020	260120	053700	53.780	12.627562	-57.357138	53.760	0.130	-0.500	0.240	53.790	-1.600	0.800	1014.50	25.80	25.90	20.60	20.60	0.00	72.00	72.00	436.00	25.70	17.00	10.30	80.00	6.80	16	3103.00	27.40	27.40	1580017020.0	7.49	13.87
26/01/2020 05:37:01	26012020	260120	053701	53.840	12.627583	-57.357110	53.760	0.110	-0.310	0.200	53.840	-1.900	0.600																			1580017021.0	7.62	14.11
26/01/2020 05:37:02	26012020	260120	053702	53.840	12.627605	-57.357083	53.790	0.010	0.010	0.140	53.840	-1.700	0.600																			1580017022.0	7.32	13.56
26/01/2020 05:37:03	26012020	260120	053703	53.860	12.627625	-57.357057	53.800	-0.190	0.160	0.040	53.860	-1.400	0.500																			1580017023.0	6.98	12.93
26/01/2020 05:37:04	26012020	260120	053704	53.880	12.627643	-57.357032	53.770	-0.390	0.120	-0.060	53.880	-1.200	0.400																			1580017024.0	6.97	12.91
26/01/2020 05:37:05	26012020	260120	053705	53.860	12.627663	-57.357005	53.700	-0.390	-0.050	-0.110	53.850	-1.200	0.300																			1580017025.0	7.11	13.17
26/01/2020 05:37:06	26012020	260120	053706	53.790	12.627685	-57.356977	53.640	-0.160	-0.320	-0.140	53.770	-1.400	0.300																			1580017026.0	7.21	13.35
26/01/2020 05:37:07	26012020	260120	053707	53.720	12.627705	-57.356950	53.600	0.060	-0.480	-0.180	53.710	-1.700	0.200																			1580017027.0	7.38	13.67
26/01/2020 05:37:08	26012020	260120	053708	53.690	12.627727	-57.356922	53.580	0.100	-0.430	-0.250	53.670	-1.800	0.200																			1580017028.0	7.44	13.78
26/01/2020 05:37:09	26012020	260120	053709	53.660	12.627747	-57.356895	53.580	0.080	-0.320	-0.260	53.660	-1.800	0.100																			1580017029.0	7.26	13.45
26/01/2020 05:37:10	26012020	260120	053710	53.650	12.627768	-57.356868	53.560	0.170	-0.250	-0.130	53.650	-1.700	0.100																			1580017030.0	7.10	13.15
26/01/2020 05:37:11	26012020	260120	053711	53.640	12.627788	-57.356842	53.460	0.340	-0.240	0.080	53.620	-1.600	0.200																			1580017031.0	7.15	13.24
26/01/2020 05:37:12	26012020	260120	053712	53.540	12.627808	-57.356813	53.310	0.380	-0.220	0.160	53.510	-1.600	0.400																			1580017032.0	7.33	13.58
26/01/2020 05:37:13	26012020	260120	053713	53.400	12.627828	-57.356785	53.260	0.180	0.010	0.110	53.380	-1.600	0.500																			1580017033.0	7.45	13.80
26/01/2020 05:37:14	26012020	260120	053714	53.320	12.627848	-57.356757	53.280	-0.130	0.310	0.040	53.320	-1.400	0.500																			1580017034.0	7.29	13.50
26/01/2020 05:37:15	26012020	260120	053715	53.340	12.627870	-57.356732	53.310	-0.350	0.360	0.010	53.350	-1.100	0.400																			1580017035.0	6.96	12.89
26/01/2020 05:37:16	26012020	260120	053716	53.370	12.627890	-57.356705	53.230	-0.400	0.080	0.100	53.370	-1.000	0.400																			1580017036.0	6.94	12.85
26/01/2020 05:37:17	26012020	260120	053717	53.300	12.627910	-57.356678	53.110	-0.290	-0.380	0.240	53.270	-1.200	0.500																			1580017037.0	7.20	13.33
26/01/2020 05:37:18	26012020	260120	053718	53.170	12.627930	-57.356650	53.100	-0.140	-0.690	0.250	53.150	-1.700	0.600																			1580017038.0	7.48	13.85
26/01/2020 05:37:19	26012020	260120	053719	53.140	12.627950	-57.356620	53.170	0.010	-0.630	0.130	53.150	-2.000	0.600																			1580017039.0	7.55	13.98
26/01/2020 05:37:20	26012020	260120	053720	53.210	12.627972	-57.356593	53.090	0.150	-0.250	0.120	53.210	-2.000	0.500																			1580017040.0	7.34	13.59
26/01/2020 05:37:21	26012020	260120	053721	53.170	12.627992	-57.356567	52.920	0.270	-0.000	0.150	53.140	-1.400	0.500																			1580017041.0	6.99	12.95
26/01/2020 05:37:22	26012020	260120	053722	52.990	12.628012	-57.356542	52.810	0.350	-0.140	0.000	52.960	-1.400	0.500																			1580017042.0	6.86	12.70
26/01/2020 05:37:23	26012020	260120	053723	52.870	12.628032	-57.356515	52.810	0.310	-0.360	-0.270	52.860	-1.600	0.200																			1580017043.0	7.22	13.37
26/01/2020 05:37:24	26012020	260120	053724	52.860	12.628055	-57.356488	52.780	0.130	-0.230	-0.370	52.860	-1.700	0.100																			1580017044.0	7.61	14.09
26/01/2020 05:37:25	26012020	260120	053725	52.830	12.628078	-57.356462	52.710	-0.150	0.150	-0.240	52.820	-1.600	0.000																			1580017045.0	7.50	13.89
26/01/2020 05:37:26	26012020	260120	053726	52.760	12.628100	-57.356435	52.780	-0.340	0.260	-0.060	52.750	-1.200	0.100																			1580017046.0	7.04	13.04
26/01/2020 05:37:27	26012020	260120	053727	52.790	12.628118	-57.356410	52.950	-0.290	-0.070	0.020	52.810	-1.100	0.300																			1580017047.0	6.88	12.74
26/01/2020 05:37:28	26012020	260120	053728	52.950	12.628138	-57.356382	52.980	-0.180	-0.350	0.180	52.990	-1.400	0.400																			1580017048.0	7.30	13.52
26/01/2020 05:37:29	26012020	260120	053729	53.040	12.628158	-57.356352	52.760	-0.190	-0.230	0.460	53.030	-1.700	0.500																			1580017049.0	7.66	14.19
26/01/2020 05:37:30	26012020	260120	053730	52.860	12.628177	-57.356322	52.520	-0.200	-0.060	0.570	52.810	-1.600	0.800																			1580017050.0	7.33	13.58
26/01/2020 05:37:31	26012020	260120	053731	52.610	12.628197	-57.356297	52.420	-0.000	-0.190	0.390	52.580	-1.400	1.000																			1580017051.0	6.92	12.82
26/01/2020 05:37:32	26012020	260120	053732	52.490	12.628218	-57.356270	52.390	0.330	-0.480	0.050	52.470	-1.500	0.800																			1580017052.0	7.07	13.09
26/01/2020 05:37:33	26012020	260120	053733	52.440	12.628240	-57.356243	52.440	0.510	-0.570	-0.340	52.440	-1.800	0.500																			1580017053.0	7.50	13.89
26/01/2020 05:37:34	26012020	260120	053734	52.480	12.628265	-57.356217	52.510	0.390	-0.310	-0.530	52.500	-1.900	0.100																			1580017054.0	7.59	14.06
26/01/2020 05:37:35	26012020	260120	053735	52.560	12.628288	-57.356192	52.540	0.080	0.120	-0.500	52.570	-1.700	-0.100																			1580017055.0	7.32	13.56
26/01/2020 05:37:36	26012020	260120	053736	52.600	12.628308	-57.356167	52.530	-0.170	0.320	-0.340	52.600	-1.300	-0.100																			1580017056.0	6.96	12.89
26/01/2020 05:37:37	26012020	260120	053737	52.590	12.628328	-57.356142	52.470	-0.260	0.150	-0.100	52.580	-1.000	0.000																			1580017057.0	6.90	12.78
26/01/2020 05:37:38	26012020	260120	053738	52.510	12.628348	-57.356113	52.520	-0.210	-0.220	0.080	52.500	-1.200	0.300																			1580017058.0	7.21	13.35
26/01/2020 05:37:39	26012020	260120	053739	52.520	12.628368	-57.356085	52.630	-0.110	-0.490	0.270	52.540	-1.500	0.400																			1580017059.0	7.50	13.89
26/01/2020 05:37:40	26012020	260120	053740	52.640	12.628390	-57.356057	52.590	-0.050	-0.380	0.540	52.660	-1.800	0.600																			1580017060.0	7.58	14.04
26/01/2020 05:37:41	26012020	260120	053741	52.640	12.628410	-57.356028	52.390	-0.040	-0.130	0.740	52.610	-1.800	0.900																			1580017061.0	7.33	13.58
26/01/2020 05:37:42	26012020	260120	053742	52.450	12.628428	-57.356000	52.270	0.030	-0.160	0.650	52.410	-1.500	1.100																			1580017062.0	6.97	12.91
26/01/2020 05:37:43	26012020	260120	053743	52.300	12.628448	-57.355975	52.330	0.150	-0.410	0.290	52.300	-1.500	1.000																			1580017063.0	7.05	13.06
26/01/2020 05:37:44	26012020	260120	053744	52.330	12.628472	-57.355948	52.390	0.170	-0.350	-0.080	52.360	-1.800	0.700																			1580017064.0	7.55	13.98
26/01/2020 05:37:45	26012020	260120	053745	52.410	12.628497	-57.355922	52.400	0.020	0.090	-0.300	52.420	-1.700	0.300																			1580017065.0	7.66	14.19
26/01/2020 05:37:46	26012020	260120	053746	52.430	12.628520	-57.355897	52.500	-0.150	0.340	-0.370	52.440	-1.300	0.100																			1580017066.0	7.09	13.13
26/01/2020 05:37:47	26012020	260120	053747	52.510	12.628540	-57.355873	52.630	-0.200	0.070	-0.370	52.540	-1.100	0.000																			1580017067.0	6.75	12.50
26/01/2020 05:37:48	26012020	260120	053748	52.650	12.628560	-57.355845	52.680	-0.140	-0.390	-0.370	52.670	-1.200	0.000																			1580017068.0	7.13	13.20
26/01/2020 05:37:49	26012020	260120	053749	52.710	12.628582	-57.355817	52.660	-0.040	-0.530	-0.350	52.710	-1.700	0.000																			1580017069.0	7.63	14.13
26/01/2020 05:37:50	26012020	260120	053750	52.700	12.628603	-57.355790	52.660	0.050	-0.250	-0.190	52.700	-1.900	0.000																			1580017070.0	7.64	14.15
26/01/2020 05:37:51	26012020	260120	053751	52.690	12.628625	-57.355763	52.660	0.100	0.100	0.080	52.690	-1.600	0.200																			1580017071.0	7.18	13.30
26/01/2020 05:37:52	26012020	260120	053752	52.690	12.628643	-57.355738	52.660	0.150	0.050	0.290	52.680	-1.300	0.400																			1580017072.0	6.80	12.59
26/01/2020 05:37:53	26012020	260120	053753	52.670	12.628663	-57.355712	52.680	0.240	-0.430	0.340	52.670	-1.300	0.600																			1580017073.0	6.91	12.80
26/01/2020 05:37:54	26012020	260120	053754	52.690	12.628683	-57.355683	52.680	0.240	-0.760	0.340	52.690	-1.700	0.700																			1580017074.0	7.46	13.82
26/01/2020 05:37:55	26012020	260120	053755	52.700	12.628707	-57.355653	52.630	0.070	-0.500	0.310	52.690	-2.100	0.700																			1580017075.0	7.85	14.54
26/01/2020 05:37:56	26012020	260120	053756	52.650	12.628728	-57.355627	52.640	-0.130	0.060	0.240	52.640	-1.900	0.700																			1580017076.0	7.51	13.91
26/01/2020 05:37:57	26012020	260120	053757	52.640	12.628750	-57.355602	52.810	-0.210	0.390	0.010	52.650	-1.400	0.600																			1580017077.0	6.92	12.82
26/01/2020 05:37:58	26012020	260120	053758	52.770	12.628770	-57.355577	52.980	-0.210	0.340	-0.230	52.820	-1.000	0.400																			1580017078.0	6.80	12.59
26/01/2020 05:37:59	26012020	260120	053759	52.970	12.628792	-57.355552	52.980	-0.260	0.130	-0.310	52.990	-1.100	0.100																			1580017079.0	7.11	13.17
26/01/2020 05:38:00	26012020	260120	053800	53.010	12.628812	-57.355523	52.890	-0.280	-0.140	-0.260	53.000	-1.200	0.100	1014.50	25.80	25.90	20.70	20.70	0.00	73.00	73.00	436.00	25.60	19.00	10.40	83.00	6.90	16	3191.00	27.40	27.40	1580017080.0	7.33	13.58
26/01/2020 05:38:01	26012020	260120	053801	52.920	12.628833	-57.355497	52.840	-0.130	-0.470	-0.250	52.900	-1.500	0.100																			1580017081.0	7.33	13.58
26/01/2020 05:38:02	26012020	260120	053802	52.860	12.628855	-57.355470	52.840	0.140	-0.720	-0.280	52.860	-1.800	0.100																			1580017082.0	7.38	13.67
26/01/2020 05:38:03	26012020	260120	053803	52.860	12.628878	-57.355442	52.840	0.340	-0.630	-0.280	52.860	-2.100	0.100																			1580017083.0	7.51	13.91
26/01/2020 05:38:04	26012020	260120	053804	52.860	12.628900	-57.355415	52.890	0.350	-0.250	-0.220	52.860	-2.000	0.100																			1580017084.0	7.41	13.72
26/01/2020 05:38:05	26012020	260120	053805	52.890	12.628920	-57.355390	53.010	0.200	0.080	-0.080	52.910	-1.700	0.100																			1580017085.0	7.05	13.06
26/01/2020 05:38:06	26012020	260120	053806	53.000	12.628940	-57.355363	53.080	-0.030	0.170	0.140	53.020	-1.300	0.300																			1580017086.0	6.91	12.80
26/01/2020 05:38:07	26012020	260120	053807	53.080	12.628960	-57.355337	53.040	-0.190	0.070	0.390	53.090	-1.200	0.500																			1580017087.0	7.08	13.11
26/01/2020 05:38:08	26012020	260120	053808	53.060	12.628980	-57.355308	52.970	-0.160	-0.170	0.600	53.040	-1.300	0.700																			1580017088.0	7.29	13.50
26/01/2020 05:38:09	26012020	260120	053809	52.970	12.629000	-57.355280	53.000	0.050	-0.500	0.570	52.960	-1.500	1.000																			1580017089.0	7.41	13.72
26/01/2020 05:38:10	26012020	260120	053810	52.980	12.629020	-57.355252	53.050	0.260	-0.580	0.310	52.990	-1.800	1.000																			1580017090.0	7.58	14.04
26/01/2020 05:38:11	26012020	260120	053811	53.050	12.629043	-57.355223	53.010	0.220	-0.160	0.010	53.060	-1.800	0.500																			1580017091.0	7.65	14.17
26/01/2020 05:38:12	26012020	260120	053812	53.030	12.629065	-57.355197	53.000	-0.070	0.420	-0.260	53.020	-1.600	0.400																			1580017092.0	7.27	13.46
26/01/2020 05:38:13	26012020	260120	053813	53.010	12.629087	-57.355173	53.130	-0.370	0.590	-0.570	53.020	-0.800	-0.100																			1580017093.0	6.74	12.48
26/01/2020 05:38:14	26012020	260120	053814	53.110	12.629108	-57.355150	53.300	-0.490	0.240	-0.770	53.140	-0.800	-0.200																			1580017094.0	6.71	12.43
26/01/2020 05:38:15	26012020	260120	053815	53.290	12.629130	-57.355125	53.420	-0.380	-0.350	-0.690	53.320	-1.100	-0.400																			1580017095.0	7.13	13.20
26/01/2020 05:38:16	26012020	260120	053816	53.430	12.629152	-57.355098	53.410	-0.110	-0.890	-0.330	53.440	-1.600	-0.300																			1580017096.0	7.50	13.89
26/01/2020 05:38:17	26012020	260120	053817	53.430	12.629173	-57.355068	53.290	0.220	-1.090	0.160	53.420	-2.200	0.000																			1580017097.0	7.66	14.19
26/01/2020 05:38:18	26012020	260120	053818	53.320	12.629192	-57.355038	53.190	0.490	-0.850	0.530	53.300	-2.400	0.500																			1580017098.0	7.63	14.13
26/01/2020 05:38:19	26012020	260120	053819	53.220	12.629212	-57.355008	53.160	0.610	-0.360	0.650	53.210	-2.300	0.900																			1580017099.0	7.39	13.69
26/01/2020 05:38:20	26012020	260120	053820	53.190	12.629230	-57.354982	53.210	0.500	0.160	0.510	53.190	-1.800	1.000																			1580017100.0	7.13	13.20
26/01/2020 05:38:21	26012020	260120	053821	53.220	12.629250	-57.354955	53.410	0.200	0.520	0.150	53.240	-1.200	0.900																			1580017101.0	7.03	13.02
26/01/2020 05:38:22	26012020	260120	053822	53.400	12.629272	-57.354930	53.570	-0.170	0.660	-0.210	53.450	-0.900	0.600																			1580017102.0	7.06	13.08
26/01/2020 05:38:23	26012020	260120	053823	53.590	12.629295	-57.354905	53.580	-0.480	0.560	-0.410	53.610	-0.700	0.200																			1580017103.0	7.15	13.24
26/01/2020 05:38:24	26012020	260120	053824	53.620	12.629317	-57.354880	53.640	-0.570	0.060	-0.520	53.620	-0.800	-0.000																			1580017104.0	7.15	13.24
26/01/2020 05:38:25	26012020	260120	053825	53.650	12.629338	-57.354853	53.770	-0.350	-0.650	-0.560	53.670	-1.200	-0.100																			1580017105.0	7.29	13.50
26/01/2020 05:38:26	26012020	260120	053826	53.770	12.629360	-57.354825	53.830	-0.010	-0.970	-0.410	53.800	-1.900	-0.200																			1580017106.0	7.65	14.17
26/01/2020 05:38:27	26012020	260120	053827	53.860	12.629382	-57.354795	53.730	0.200	-0.720	-0.080	53.860	-2.300	-0.100																			1580017107.0	7.71	14.28
26/01/2020 05:38:28	26012020	260120	053828	53.790	12.629402	-57.354767	53.620	0.230	-0.240	0.190	53.770	-2.100	0.300																			1580017108.0	7.25	13.43
26/01/2020 05:38:29	26012020	260120	053829	53.670	12.629420	-57.354740	53.550	0.170	0.060	0.230	53.650	-1.600	0.500																			1580017109.0	6.84	12.67
26/01/2020 05:38:30	26012020	260120	053830	53.590	12.629438	-57.354715	53.560	0.180	0.010	0.130	53.580	-1.300	0.600																			1580017110.0	6.84	12.67
26/01/2020 05:38:31	26012020	260120	053831	53.580	12.629460	-57.354688	53.680	0.280	-0.320	-0.020	53.600	-1.300	0.500																			1580017111.0	7.17	13.28
26/01/2020 05:38:32	26012020	260120	053832	53.690	12.629482	-57.354662	53.780	0.260	-0.500	-0.150	53.720	-1.600	0.400																			1580017112.0	7.58	14.04
26/01/2020 05:38:33	26012020	260120	053833	53.800	12.629505	-57.354632	53.790	-0.010	-0.160	-0.070	53.820	-1.900	0.200																			1580017113.0	7.79	14.43
26/01/2020 05:38:34	26012020	260120	053834	53.830	12.629527	-57.354605	53.740	-0.350	0.340	0.180	53.820	-1.600	0.300																			1580017114.0	7.40	13.70
26/01/2020 05:38:35	26012020	260120	053835	53.780	12.629543	-57.354578	53.740	-0.480	0.390	0.240	53.770	-1.100	0.500																			1580017115.0	6.80	12.59
26/01/2020 05:38:36	26012020	260120	053836	53.760	12.629562	-57.354552	53.790	-0.280	-0.030	0.060	53.760	-0.900	0.600																			1580017116.0	6.83	12.65
26/01/2020 05:38:37	26012020	260120	053837	53.790	12.629583	-57.354523	53.840	0.060	-0.410	-0.120	53.810	-1.600	0.300																			1580017117.0	7.40	13.70
26/01/2020 05:38:38	26012020	260120	053838	53.860	12.629607	-57.354495	53.810	0.280	-0.420	-0.150	53.870	-1.800	0.300																			1580017118.0	7.71	14.28
26/01/2020 05:38:39	26012020	260120	053839	53.870	12.629627	-57.354468	53.610	0.290	-0.210	-0.060	53.840	-1.800	0.200																			1580017119.0	7.49	13.87
26/01/2020 05:38:40	26012020	260120	053840	53.690	12.629648	-57.354442	53.400	0.190	-0.180	-0.030	53.640	-1.600	0.300																			1580017120.0	7.08	13.11
26/01/2020 05:38:41	26012020	260120	053841	53.450	12.629668	-57.354415	53.450	0.160	-0.440	-0.190	53.430	-1.500	0.400																			1580017121.0	7.00	12.96
26/01/2020 05:38:42	26012020	260120	053842	53.450	12.629690	-57.354388	53.710	0.170	-0.540	-0.370	53.490	-1.800	0.200																			1580017122.0	7.37	13.65
26/01/2020 05:38:43	26012020	260120	053843	53.710	12.629713	-57.354362	53.870	-0.000	-0.150	-0.330	53.760	-1.900	0.000																			1580017123.0	7.67	14.20
26/01/2020 05:38:44	26012020	260120	053844	53.900	12.629735	-57.354335	53.830	-0.340	0.370	-0.060	53.920	-1.600	0.000																			1580017124.0	7.31	13.54
26/01/2020 05:38:45	26012020	260120	053845	53.890	12.629753	-57.354308	53.720	-0.520	0.440	0.320	53.860	-1.000	0.300																			1580017125.0	6.76	12.52
26/01/2020 05:38:46	26012020	260120	053846	53.760	12.629770	-57.354282	53.680	-0.310	-0.060	0.580	53.730	-0.900	0.700																			1580017126.0	6.78	12.56
26/01/2020 05:38:47	26012020	260120	053847	53.690	12.629788	-57.354252	53.650	0.190	-0.700	0.640	53.690	-1.400	0.900																			1580017127.0	7.34	13.59
26/01/2020 05:38:48	26012020	260120	053848	53.670	12.629808	-57.354222	53.560	0.580	-0.960	0.520	53.660	-2.000	1.000																			1580017128.0	7.87	14.58
26/01/2020 05:38:49	26012020	260120	053849	53.600	12.629832	-57.354192	53.490	0.580	-0.600	0.230	53.590	-2.200	0.700																			1580017129.0	7.89	14.61
26/01/2020 05:38:50	26012020	260120	053850	53.530	12.629853	-57.354165	53.430	0.200	0.150	-0.040	53.520	-2.000	0.600																			1580017130.0	7.45	13.80
26/01/2020 05:38:51	26012020	260120	053851	53.470	12.629875	-57.354140	53.460	-0.270	0.690	-0.270	53.460	-1.300	0.400																			1580017131.0	6.86	12.70
26/01/2020 05:38:52	26012020	260120	053852	53.480	12.629897	-57.354118	53.600	-0.470	0.550	-0.510	53.490	-0.700	0.100																			1580017132.0	6.59	12.20
26/01/2020 05:38:53	26012020	260120	053853	53.610	12.629917	-57.354093	53.720	-0.350	-0.090	-0.570	53.650	-0.800	-0.100																			1580017133.0	6.92	12.82
26/01/2020 05:38:54	26012020	260120	053854	53.740	12.629940	-57.354065	53.750	-0.060	-0.720	-0.340	53.750	-1.400	-0.200																			1580017134.0	7.56	14.00
26/01/2020 05:38:55	26012020	260120	053855	53.770	12.629960	-57.354035	53.760	0.180	-0.890	-0.010	53.770	-2.000	0.000																			1580017135.0	7.86	14.56
26/01/2020 05:38:56	26012020	260120	053856	53.780	12.629980	-57.354005	53.720	0.180	-0.500	0.290	53.780	-2.300	0.300																			1580017136.0	7.72	14.30
26/01/2020 05:38:57	26012020	260120	053857	53.740	12.629998	-57.353975	53.610	-0.020	0.130	0.440	53.720	-1.900	0.600																			1580017137.0	7.24	13.41
26/01/2020 05:38:58	26012020	260120	053858	53.640	12.630017	-57.353950	53.450	-0.150	0.430	0.450	53.620	-1.300	0.800																			1580017138.0	6.72	12.45
26/01/2020 05:38:59	26012020	260120	053859	53.490	12.630035	-57.353925	53.360	0.020	0.050	0.280	53.450	-1.000	0.800																			1580017139.0	6.66	12.33
26/01/2020 05:39:00	26012020	260120	053900	53.370	12.630057	-57.353898	53.420	0.390	-0.640	-0.060	53.370	-1.300	0.700	1014.50	25.80	25.80	20.60	20.60	0.00	73.00	73.00	436.00	25.70	15.00	10.10	77.00	6.60	16	3127.00	27.40	27.40	1580017140.0	7.20	13.33
26/01/2020 05:39:01	26012020	260120	053901	53.420	12.630082	-57.353870	53.550	0.560	-0.810	-0.340	53.440	-2.200	0.100																			1580017141.0	7.96	14.74
26/01/2020 05:39:02	26012020	260120	053902	53.550	12.630107	-57.353843	53.680	0.310	-0.240	-0.370	53.580	-2.200	0.100																			1580017142.0	8.02	14.85
26/01/2020 05:39:03	26012020	260120	053903	53.690	12.630128	-57.353817	53.750	-0.220	0.430	-0.170	53.700	-1.200	0.100																			1580017143.0	7.22	13.37
26/01/2020 05:39:04	26012020	260120	053904	53.760	12.630145	-57.353792	53.740	-0.680	0.610	0.150	53.770	-1.000	0.200																			1580017144.0	6.56	12.15
26/01/2020 05:39:05	26012020	260120	053905	53.760	12.630163	-57.353765	53.750	-0.800	0.240	0.340	53.750	-0.800	0.500																			1580017145.0	6.69	12.39
26/01/2020 05:39:06	26012020	260120	053906	53.750	12.630182	-57.353737	53.840	-0.470	-0.380	0.310	53.750	-1.100	0.700																			1580017146.0	7.20	13.33
26/01/2020 05:39:07	26012020	260120	053907	53.820	12.630202	-57.353707	53.890	0.090	-0.810	0.240	53.850	-1.700	0.700																			1580017147.0	7.60	14.08
26/01/2020 05:39:08	26012020	260120	053908	53.900	12.630223	-57.353677	53.710	0.520	-0.740	0.310	53.900	-2.200	0.600																			1580017148.0	7.72	14.30
26/01/2020 05:39:09	26012020	260120	053909	53.770	12.630243	-57.353648	53.420	0.590	-0.370	0.330	53.720	-2.100	0.700																			1580017149.0	7.45	13.80
26/01/2020 05:39:10	26012020	260120	053910	53.490	12.630263	-57.353622	53.340	0.430	-0.200	-0.000	53.440	-1.800	0.700																			1580017150.0	7.02	13.00
26/01/2020 05:39:11	26012020	260120	053911	53.350	12.630285	-57.353598	53.440	0.310	-0.200	-0.480	53.360	-1.600	0.400																			1580017151.0	7.03	13.02
26/01/2020 05:39:12	26012020	260120	053912	53.440	12.630310	-57.353573	53.560	0.190	-0.060	-0.740	53.470	-1.600	-0.100																			1580017152.0	7.45	13.80
26/01/2020 05:39:13	26012020	260120	053913	53.560	12.630335	-57.353548	53.670	-0.050	0.220	-0.660	53.590	-1.500	-0.300																			1580017153.0	7.50	13.89
26/01/2020 05:39:14	26012020	260120	053914	53.670	12.630355	-57.353522	53.760	-0.370	0.340	-0.300	53.690	-1.200	-0.300																			1580017154.0	7.18	13.30
26/01/2020 05:39:15	26012020	260120	053915	53.760	12.630373	-57.353493	53.800	-0.590	0.230	0.150	53.770	-1.000	0.000																			1580017155.0	7.04	13.04
26/01/2020 05:39:16	26012020	260120	053916	53.810	12.630392	-57.353465	53.770	-0.570	0.000	0.530	53.810	-1.100	0.500																			1580017156.0	7.19	13.32
26/01/2020 05:39:17	26012020	260120	053917	53.770	12.630408	-57.353435	53.670	-0.310	-0.340	0.780	53.760	-1.400	0.900																			1580017157.0	7.29	13.50
26/01/2020 05:39:18	26012020	260120	053918	53.690	12.630427	-57.353405	53.580	0.080	-0.690	0.730	53.660	-1.700	1.100																			1580017158.0	7.35	13.61
26/01/2020 05:39:19	26012020	260120	053919	53.590	12.630447	-57.353377	53.550	0.390	-0.810	0.410	53.580	-2.000	1.100																			1580017159.0	7.46	13.82
26/01/2020 05:39:20	26012020	260120	053920	53.580	12.630470	-57.353348	53.380	0.390	-0.420	0.090	53.560	-2.200	0.800																			1580017160.0	7.54	13.96
26/01/2020 05:39:21	26012020	260120	053921	53.450	12.630492	-57.353323	53.180	0.110	0.140	-0.300	53.410	-1.900	0.500																			1580017161.0	7.28	13.48
26/01/2020 05:39:22	26012020	260120	053922	53.250	12.630513	-57.353300	53.180	-0.090	0.220	-0.780	53.220	-1.300	0.100																			1580017162.0	6.79	12.58
26/01/2020 05:39:23	26012020	260120	053923	53.210	12.630537	-57.353277	53.300	0.050	-0.230	-1.080	53.230	-1.100	-0.400																			1580017163.0	6.87	12.72
26/01/2020 05:39:24	26012020	260120	053924	53.330	12.630560	-57.353250	53.350	0.280	-0.510	-1.000	53.360	-1.600	-0.700																			1580017164.0	7.55	13.98
26/01/2020 05:39:25	26012020	260120	053925	53.410	12.630583	-57.353222	53.270	0.230	-0.240	-0.630	53.410	-1.900	-0.600																			1580017165.0	7.92	14.67
26/01/2020 05:39:26	26012020	260120	053926	53.350	12.630603	-57.353193	53.120	-0.130	0.180	-0.090	53.320	-1.700	-0.300																			1580017166.0	7.45	13.80
26/01/2020 05:39:27	26012020	260120	053927	53.190	12.630620	-57.353165	53.100	-0.440	0.280	0.310	53.160	-1.100	0.500																			1580017167.0	6.90	12.78
26/01/2020 05:39:28	26012020	260120	053928	53.120	12.630638	-57.353138	53.240	-0.410	-0.010	0.400	53.140	-1.100	0.700																			1580017168.0	6.87	12.72
26/01/2020 05:39:29	26012020	260120	053929	53.240	12.630658	-57.353110	53.250	-0.110	-0.300	0.520	53.260	-1.400	0.800																			1580017169.0	7.27	13.46
26/01/2020 05:39:30	26012020	260120	053930	53.280	12.630680	-57.353082	53.110	0.130	-0.360	0.760	53.270	-1.700	0.900																			1580017170.0	7.57	14.02
26/01/2020 05:39:31	26012020	260120	053931	53.170	12.630700	-57.353053	52.980	0.120	-0.300	0.790	53.140	-1.800	1.100																			1580017171.0	7.44	13.78
26/01/2020 05:39:32	26012020	260120	053932	53.030	12.630720	-57.353025	52.990	-0.050	-0.180	0.480	53.010	-1.700	1.200																			1580017172.0	7.21	13.35
26/01/2020 05:39:33	26012020	260120	053933	53.010	12.630740	-57.353000	53.000	-0.200	0.040	0.030	53.030	-1.600	0.900																			1580017173.0	7.11	13.17
26/01/2020 05:39:34	26012020	260120	053934	53.050	12.630762	-57.352975	52.990	-0.150	0.070	-0.360	53.060	-1.400	0.500																			1580017174.0	6.98	12.93
26/01/2020 05:39:35	26012020	260120	053935	53.050	12.630783	-57.352950	52.970	0.170	-0.360	-0.680	53.050	-1.300	0.100																			1580017175.0	6.91	12.80
26/01/2020 05:39:36	26012020	260120	053936	53.040	12.630807	-57.352925	52.930	0.510	-0.870	-0.890	53.040	-1.700	-0.300																			1580017176.0	7.33	13.58
26/01/2020 05:39:37	26012020	260120	053937	53.020	12.630830	-57.352897	52.850	0.560	-0.830	-0.890	53.010	-2.200	-0.500																			1580017177.0	7.88	14.59
26/01/2020 05:39:38	26012020	260120	053938	52.950	12.630853	-57.352868	52.780	0.280	-0.200	-0.650	52.930	-2.300	-0.500																			1580017178.0	7.80	14.45
26/01/2020 05:39:39	26012020	260120	053939	52.870	12.630875	-57.352842	52.780	-0.140	0.540	-0.280	52.860	-1.200	-0.100																			1580017179.0	7.16	13.26
26/01/2020 05:39:40	26012020	260120	053940	52.840	12.630893	-57.352817	52.880	-0.490	0.840	0.080	52.840	-0.900	0.100																			1580017180.0	6.65	12.32
26/01/2020 05:39:41	26012020	260120	053941	52.910	12.630912	-57.352792	53.040	-0.620	0.450	0.370	52.930	-0.600	0.400																			1580017181.0	6.65	12.32
26/01/2020 05:39:42	26012020	260120	053942	53.050	12.630930	-57.352763	53.200	-0.510	-0.290	0.630	53.090	-0.900	0.700																			1580017182.0	7.13	13.20
26/01/2020 05:39:43	26012020	260120	053943	53.210	12.630950	-57.352733	53.250	-0.240	-0.830	0.780	53.230	-1.600	1.000																			1580017183.0	7.68	14.22
26/01/2020 05:39:44	26012020	260120	053944	53.280	12.630970	-57.352703	53.150	0.080	-0.860	0.800	53.280	-2.200	1.100																			1580017184.0	7.80	14.45
26/01/2020 05:39:45	26012020	260120	053945	53.210	12.630990	-57.352673	52.970	0.330	-0.480	0.710	53.170	-2.300	1.200																			1580017185.0	7.50	13.89
26/01/2020 05:39:46	26012020	260120	053946	53.030	12.631012	-57.352648	52.900	0.420	-0.100	0.340	53.000	-1.900	1.100																			1580017186.0	7.05	13.06
26/01/2020 05:39:47	26012020	260120	053947	52.940	12.631032	-57.352623	52.980	0.340	0.060	-0.370	52.940	-1.500	0.800																			1580017187.0	6.87	12.72
26/01/2020 05:39:48	26012020	260120	053948	53.030	12.631055	-57.352600	53.050	0.160	0.100	-1.040	53.050	-1.300	0.100																			1580017188.0	7.08	13.11
26/01/2020 05:39:49	26012020	260120	053949	53.130	12.631080	-57.352577	53.010	-0.010	0.110	-1.330	53.130	-1.300	-0.600																			1580017189.0	7.35	13.61
26/01/2020 05:39:50	26012020	260120	053950	53.100	12.631105	-57.352552	53.050	-0.050	-0.070	-1.330	53.090	-1.300	-0.900																			1580017190.0	7.33	13.58
26/01/2020 05:39:51	26012020	260120	053951	53.120	12.631127	-57.352527	53.200	-0.020	-0.400	-1.070	53.140	-1.400	-0.900																			1580017191.0	7.28	13.48
26/01/2020 05:39:52	26012020	260120	053952	53.250	12.631148	-57.352497	53.300	-0.060	-0.500	-0.570	53.280	-1.800	-0.700																			1580017192.0	7.53	13.95
26/01/2020 05:39:53	26012020	260120	053953	53.350	12.631167	-57.352467	53.240	-0.210	-0.250	0.110	53.360	-1.800	0.200																			1580017193.0	7.58	14.04
26/01/2020 05:39:54	26012020	260120	053954	53.320	12.631185	-57.352438	53.130	-0.310	0.070	0.700	53.300	-1.700	0.400																			1580017194.0	7.23	13.39
26/01/2020 05:39:55	26012020	260120	053955	53.190	12.631202	-57.352410	53.120	-0.270	0.120	0.930	53.170	-1.300	1.000																			1580017195.0	6.92	12.82
26/01/2020 05:39:56	26012020	260120	053956	53.150	12.631218	-57.352382	53.160	-0.050	-0.130	0.860	53.160	-1.300	1.300																			1580017196.0	6.97	12.91
26/01/2020 05:39:57	26012020	260120	053957	53.200	12.631240	-57.352355	53.140	0.230	-0.400	0.700	53.200	-1.500	1.300																			1580017197.0	7.32	13.56
26/01/2020 05:39:58	26012020	260120	053958	53.190	12.631263	-57.352328	53.040	0.330	-0.410	0.450	53.170	-1.800	1.100																			1580017198.0	7.61	14.09
26/01/2020 05:39:59	26012020	260120	053959	53.100	12.631287	-57.352300	53.020	0.200	-0.220	0.060	53.080	-1.800	0.900																			1580017199.0	7.52	13.93
26/01/2020 05:40:00	26012020	260120	054000	53.050	12.631308	-57.352275	53.150	-0.030	-0.080	-0.420	53.060	-1.600	0.500	1014.50	25.80	25.90	20.60	20.60	0.00	72.00	72.00	436.00	25.70	21.00	10.40	85.00	7.00	16	3199.00	27.40	27.40	1580017200.0	7.19	13.32
26/01/2020 05:40:01	26012020	260120	054001	53.170	12.631330	-57.352250	53.300	-0.200	-0.010	-0.860	53.200	-1.500	0.000																			1580017201.0	7.07	13.09
26/01/2020 05:40:02	26012020	260120	054002	53.340	12.631353	-57.352225	53.300	-0.210	0.060	-1.010	53.360	-1.400	-0.400																			1580017202.0	7.18	13.30
26/01/2020 05:40:03	26012020	260120	054003	53.380	12.631375	-57.352200	53.230	-0.080	0.050	-0.840	53.370	-1.300	-0.600																			1580017203.0	7.22	13.37
26/01/2020 05:40:04	26012020	260120	054004	53.300	12.631397	-57.352173	53.210	0.120	-0.200	-0.570	53.290	-1.300	-0.500																			1580017204.0	7.15	13.24
26/01/2020 05:40:05	26012020	260120	054005	53.260	12.631417	-57.352145	53.210	0.270	-0.550	-0.370	53.260	-1.600	-0.200																			1580017205.0	7.29	13.50
26/01/2020 05:40:06	26012020	260120	054006	53.260	12.631437	-57.352117	53.200	0.230	-0.590	-0.120	53.260	-1.900	-0.000																			1580017206.0	7.57	14.02
26/01/2020 05:40:07	26012020	260120	054007	53.250	12.631458	-57.352088	53.160	-0.010	-0.170	0.270	53.250	-2.000	0.200																			1580017207.0	7.58	14.04
26/01/2020 05:40:08	26012020	260120	054008	53.210	12.631477	-57.352060	53.190	-0.300	0.280	0.500	53.200	-1.600	0.600																			1580017208.0	7.16	13.26
26/01/2020 05:40:09	26012020	260120	054009	53.210	12.631495	-57.352035	53.290	-0.370	0.240	0.500	53.220	-1.100	0.900																			1580017209.0	6.73	12.46
26/01/2020 05:40:10	26012020	260120	054010	53.300	12.631515	-57.352008	53.370	-0.150	-0.260	0.380	53.320	-1.100	0.900																			1580017210.0	6.87	12.72
26/01/2020 05:40:11	26012020	260120	054011	53.380	12.631537	-57.351980	53.410	0.180	-0.650	0.230	53.390	-1.600	0.800																			1580017211.0	7.50	13.89
26/01/2020 05:40:12	26012020	260120	054012	53.430	12.631558	-57.351952	53.410	0.340	-0.520	0.100	53.440	-2.000	0.600																			1580017212.0	7.85	14.54
26/01/2020 05:40:13	26012020	260120	054013	53.450	12.631582	-57.351923	53.380	0.250	-0.100	-0.070	53.450	-1.900	0.500																			1580017213.0	7.52	13.93
26/01/2020 05:40:14	26012020	260120	054014	53.430	12.631602	-57.351898	53.290	-0.010	0.230	-0.280	53.420	-1.500	0.300																			1580017214.0	7.02	13.00
26/01/2020 05:40:15	26012020	260120	054015	53.360	12.631623	-57.351873	53.190	-0.260	0.280	-0.460	53.340	-1.200	0.100																			1580017215.0	6.89	12.76
26/01/2020 05:40:16	26012020	260120	054016	53.260	12.631645	-57.351848	53.240	-0.290	-0.070	-0.630	53.240	-1.100	-0.100																			1580017216.0	7.03	13.02
26/01/2020 05:40:17	26012020	260120	054017	53.260	12.631667	-57.351822	53.460	-0.090	-0.530	-0.770	53.290	-1.400	-0.200																			1580017217.0	7.33	13.58
26/01/2020 05:40:18	26012020	260120	054018	53.470	12.631690	-57.351795	53.650	0.080	-0.540	-0.600	53.520	-1.900	-0.400																			1580017218.0	7.70	14.26
26/01/2020 05:40:19	26012020	260120	054019	53.690	12.631712	-57.351767	53.680	0.010	-0.110	-0.120	53.710	-1.900	-0.300																			1580017219.0	7.64	14.15
26/01/2020 05:40:20	26012020	260120	054020	53.740	12.631730	-57.351738	53.530	-0.140	0.150	0.400	53.730	-1.500	0.200																			1580017220.0	7.03	13.02
26/01/2020 05:40:21	26012020	260120	054021	53.610	12.631747	-57.351710	53.350	-0.080	-0.050	0.630	53.570	-1.200	0.700																			1580017221.0	6.75	12.50
26/01/2020 05:40:22	26012020	260120	054022	53.420	12.631765	-57.351683	53.390	0.250	-0.510	0.470	53.390	-1.400	1.000																			1580017222.0	7.11	13.17
26/01/2020 05:40:23	26012020	260120	054023	53.390	12.631787	-57.351655	53.540	0.580	-0.790	0.170	53.420	-1.900	0.900																			1580017223.0	7.61	14.09
26/01/2020 05:40:24	26012020	260120	054024	53.550	12.631810	-57.351627	53.620	0.520	-0.460	-0.060	53.580	-2.200	0.600																			1580017224.0	7.87	14.58
26/01/2020 05:40:25	26012020	260120	054025	53.660	12.631833	-57.351600	53.640	0.050	0.300	-0.170	53.670	-1.900	0.300																			1580017225.0	7.58	14.04
26/01/2020 05:40:26	26012020	260120	054026	53.690	12.631855	-57.351575	53.660	-0.510	0.850	-0.160	53.690	-1.200	0.200																			1580017226.0	6.87	12.72
26/01/2020 05:40:27	26012020	260120	054027	53.700	12.631873	-57.351552	53.750	-0.750	0.620	-0.180	53.700	-0.600	0.200																			1580017227.0	6.45	11.95
26/01/2020 05:40:28	26012020	260120	054028	53.770	12.631893	-57.351527	53.820	-0.490	-0.290	-0.210	53.790	-0.700	0.200																			1580017228.0	6.76	12.52
26/01/2020 05:40:29	26012020	260120	054029	53.860	12.631913	-57.351497	53.710	0.010	-1.110	-0.110	53.860	-2.200	0.200																			1580017229.0	7.59	14.06
26/01/2020 05:40:30	26012020	260120	054030	53.790	12.631937	-57.351467	53.550	0.350	-1.240	0.030	53.760	-2.400	0.300																			1580017230.0	8.12	15.04
26/01/2020 05:40:31	26012020	260120	054031	53.620	12.631958	-57.351437	53.510	0.370	-0.660	0.120	53.590	-2.600	0.400																			1580017231.0	7.85	14.54
26/01/2020 05:40:32	26012020	260120	054032	53.550	12.631978	-57.351410	53.560	0.140	0.230	0.090	53.560	-2.100	0.500																			1580017232.0	7.15	13.24
26/01/2020 05:40:33	26012020	260120	054033	53.600	12.631997	-57.351385	53.630	-0.130	0.860	-0.070	53.610	-1.200	0.500																			1580017233.0	6.62	12.26
26/01/2020 05:40:34	26012020	260120	054034	53.660	12.632017	-57.351362	53.710	-0.290	0.740	-0.290	53.680	-0.600	0.300																			1580017234.0	6.48	12.00
26/01/2020 05:40:35	26012020	260120	054035	53.750	12.632037	-57.351337	53.810	-0.220	-0.060	-0.460	53.760	-0.600	0.100																			1580017235.0	6.86	12.70
26/01/2020 05:40:36	26012020	260120	054036	53.840	12.632060	-57.351310	53.980	0.070	-0.920	-0.520	53.870	-1.300	-0.100																			1580017236.0	7.57	14.02
26/01/2020 05:40:37	26012020	260120	054037	53.990	12.632083	-57.351280	54.130	0.360	-1.120	-0.370	54.030	-2.200	-0.100																			1580017237.0	8.06	14.93
26/01/2020 05:40:38	26012020	260120	054038	54.170	12.632105	-57.351250	54.120	0.400	-0.540	0.020	54.190	-2.500	-0.000																			1580017238.0	7.87	14.58
26/01/2020 05:40:39	26012020	260120	054039	54.180	12.632123	-57.351222	53.880	0.140	0.220	0.450	54.160	-2.000	0.400																			1580017239.0	7.13	13.20
26/01/2020 05:40:40	26012020	260120	054040	53.980	12.632140	-57.351195	53.640	-0.180	0.470	0.570	53.920	-1.200	0.800																			1580017240.0	6.54	12.11
26/01/2020 05:40:41	26012020	260120	054041	53.720	12.632157	-57.351170	53.610	-0.250	0.140	0.320	53.680	-0.900	1.000																			1580017241.0	6.65	12.32
26/01/2020 05:40:42	26012020	260120	054042	53.640	12.632178	-57.351143	53.710	-0.050	-0.310	-0.090	53.650	-1.200	0.700																			1580017242.0	7.29	13.50
26/01/2020 05:40:43	26012020	260120	054043	53.740	12.632203	-57.351115	53.790	0.160	-0.450	-0.420	53.760	-1.800	0.100																			1580017243.0	7.76	14.37
26/01/2020 05:40:44	26012020	260120	054044	53.830	12.632227	-57.351088	53.880	0.190	-0.280	-0.560	53.840	-1.800	-0.000																			1580017244.0	7.66	14.19
26/01/2020 05:40:45	26012020	260120	054045	53.910	12.632248	-57.351063	53.990	-0.000	-0.040	-0.530	53.930	-1.700	-0.200																			1580017245.0	7.25	13.43
26/01/2020 05:40:46	26012020	260120	054046	54.030	12.632268	-57.351037	54.010	-0.320	0.120	-0.340	54.050	-1.400	-0.200																			1580017246.0	6.99	12.95
26/01/2020 05:40:47	26012020	260120	054047	54.060	12.632288	-57.351010	53.990	-0.520	0.080	-0.100	54.060	-1.300	0.000																			1580017247.0	6.96	12.89
26/01/2020 05:40:48	26012020	260120	054048	54.040	12.632307	-57.350983	54.050	-0.410	-0.190	0.060	54.040	-1.300	0.300																			1580017248.0	7.01	12.98
26/01/2020 05:40:49	26012020	260120	054049	54.080	12.632327	-57.350955	54.070	-0.030	-0.500	0.250	54.090	-1.500	0.400																			1580017249.0	7.23	13.39
26/01/2020 05:40:50	26012020	260120	054050	54.110	12.632347	-57.350927	53.980	0.390	-0.700	0.460	54.110	-1.900	0.600																			1580017250.0	7.45	13.80
26/01/2020 05:40:51	26012020	260120	054051	54.040	12.632365	-57.350897	53.830	0.600	-0.700	0.490	54.010	-2.100	0.800																			1580017251.0	7.52	13.93
26/01/2020 05:40:52	26012020	260120	054052	53.900	12.632385	-57.350868	53.750	0.520	-0.350	0.270	53.870	-2.100	0.900																			1580017252.0	7.50	13.89
26/01/2020 05:40:53	26012020	260120	054053	53.790	12.632408	-57.350840	53.780	0.220	0.270	-0.030	53.790	-1.800	0.700																			1580017253.0	7.36	13.63
26/01/2020 05:40:54	26012020	260120	054054	53.800	12.632430	-57.350817	53.890	-0.100	0.650	-0.320	53.820	-1.200	0.400																			1580017254.0	6.99	12.95
26/01/2020 05:40:55	26012020	260120	054055	53.920	12.632450	-57.350793	54.030	-0.270	0.380	-0.610	53.940	-0.800	0.100																			1580017255.0	6.73	12.46
26/01/2020 05:40:56	26012020	260120	054056	54.060	12.632472	-57.350767	54.120	-0.250	-0.210	-0.720	54.090	-1.000	-0.200																			1580017256.0	7.09	13.13
26/01/2020 05:40:57	26012020	260120	054057	54.170	12.632495	-57.350738	54.080	-0.190	-0.490	-0.550	54.170	-1.500	-0.400																			1580017257.0	7.67	14.20
26/01/2020 05:40:58	26012020	260120	054058	54.150	12.632515	-57.350710	53.960	-0.230	-0.310	-0.280	54.130	-1.900	-0.200																			1580017258.0	7.73	14.32
26/01/2020 05:40:59	26012020	260120	054059	54.030	12.632535	-57.350682	53.830	-0.260	-0.100	-0.080	54.000	-1.700	0.100																			1580017259.0	7.20	13.33
26/01/2020 05:41:00	26012020	260120	054100	53.900	12.632553	-57.350655	53.790	-0.130	-0.220	0.040	53.870	-1.500	0.300	1014.50	25.80	25.80	20.60	20.70	0.00	73.00	73.00	435.00	25.60	21.00	10.00	86.00	6.60	15	3211.00	27.40	27.40	1580017260.0	6.81	12.61
26/01/2020 05:41:01	26012020	260120	054101	53.830	12.632572	-57.350628	53.940	0.130	-0.480	0.020	53.830	-1.600	0.400																			1580017261.0	7.00	12.96
26/01/2020 05:41:02	26012020	260120	054102	53.950	12.632593	-57.350600	54.100	0.260	-0.500	0.030	53.990	-1.800	0.400																			1580017262.0	7.44	13.78
26/01/2020 05:41:03	26012020	260120	054103	54.130	12.632615	-57.350573	54.080	0.170	-0.260	0.210	54.150	-1.900	0.400																			1580017263.0	7.49	13.87
26/01/2020 05:41:04	26012020	260120	054104	54.140	12.632635	-57.350545	53.940	0.030	-0.010	0.460	54.110	-1.700	0.600																			1580017264.0	7.18	13.30
26/01/2020 05:41:05	26012020	260120	054105	54.000	12.632653	-57.350518	53.840	0.010	0.070	0.540	53.970	-1.400	0.800																			1580017265.0	7.01	12.98
26/01/2020 05:41:06	26012020	260120	054106	53.880	12.632672	-57.350490	53.830	0.100	-0.020	0.320	53.870	-1.300	0.900																			1580017266.0	7.11	13.17
26/01/2020 05:41:07	26012020	260120	054107	53.870	12.632693	-57.350463	53.840	0.150	-0.210	-0.040	53.870	-1.500	0.500																			1580017267.0	7.31	13.54
26/01/2020 05:41:08	26012020	260120	054108	53.890	12.632715	-57.350435	53.830	0.140	-0.420	-0.370	53.890	-1.600	0.400																			1580017268.0	7.43	13.76
26/01/2020 05:41:09	26012020	260120	054109	53.890	12.632738	-57.350408	53.840	0.100	-0.410	-0.620	53.890	-1.800	0.000																			1580017269.0	7.55	13.98
26/01/2020 05:41:10	26012020	260120	054110	53.900	12.632762	-57.350382	53.890	-0.030	-0.020	-0.710	53.910	-1.800	-0.200																			1580017270.0	7.56	14.00
26/01/2020 05:41:11	26012020	260120	054111	53.960	12.632783	-57.350357	53.930	-0.260	0.450	-0.590	53.970	-1.500	-0.300																			1580017271.0	7.21	13.35
26/01/2020 05:41:12	26012020	260120	054112	54.000	12.632803	-57.350332	53.960	-0.450	0.430	-0.260	54.010	-1.000	-0.200																			1580017272.0	6.72	12.45
26/01/2020 05:41:13	26012020	260120	054113	54.010	12.632822	-57.350305	54.030	-0.470	-0.060	0.050	54.020	-0.900	0.100																			1580017273.0	6.80	12.59
26/01/2020 05:41:14	26012020	260120	054114	54.070	12.632840	-57.350277	54.090	-0.260	-0.630	0.320	54.090	-1.400	0.400																			1580017274.0	7.32	13.56
26/01/2020 05:41:15	26012020	260120	054115	54.140	12.632860	-57.350247	54.030	0.110	-0.880	0.570	54.150	-2.000	0.600																			1580017275.0	7.67	14.20
26/01/2020 05:41:16	26012020	260120	054116	54.100	12.632878	-57.350215	53.940	0.420	-0.750	0.590	54.080	-2.300	0.900																			1580017276.0	7.62	14.11
26/01/2020 05:41:17	26012020	260120	054117	54.000	12.632898	-57.350187	53.930	0.550	-0.410	0.320	53.990	-2.200	1.000																			1580017277.0	7.32	13.56
26/01/2020 05:41:18	26012020	260120	054118	53.980	12.632918	-57.350160	53.890	0.470	0.020	-0.040	53.980	-1.800	0.700																			1580017278.0	7.12	13.19
26/01/2020 05:41:19	26012020	260120	054119	53.970	12.632942	-57.350137	53.810	0.260	0.370	-0.360	53.960	-1.200	0.100																			1580017279.0	7.10	13.15
26/01/2020 05:41:20	26012020	260120	054120	53.890	12.632963	-57.350112	53.760	0.010	0.410	-0.530	53.870	-1.000	0.000																			1580017280.0	7.08	13.11
26/01/2020 05:41:21	26012020	260120	054121	53.820	12.632987	-57.350087	53.880	-0.230	0.100	-0.640	53.820	-1.000	-0.100																			1580017281.0	7.13	13.20
26/01/2020 05:41:22	26012020	260120	054122	53.910	12.633008	-57.350060	54.050	-0.390	-0.330	-0.650	53.950	-1.200	-0.300																			1580017282.0	7.35	13.61
26/01/2020 05:41:23	26012020	260120	054123	54.100	12.633028	-57.350032	54.060	-0.440	-0.540	-0.450	54.120	-1.700	-0.300																			1580017283.0	7.58	14.04
26/01/2020 05:41:24	26012020	260120	054124	54.140	12.633048	-57.350002	53.980	-0.350	-0.430	-0.080	54.120	-1.900	-0.100																			1580017284.0	7.57	14.02
26/01/2020 05:41:25	26012020	260120	054125	54.050	12.633067	-57.349973	53.920	-0.090	-0.240	0.240	54.030	-1.800	0.200																			1580017285.0	7.28	13.48
26/01/2020 05:41:26	26012020	260120	054126	53.980	12.633085	-57.349945	53.810	0.220	-0.120	0.450	53.960	-1.600	0.600																			1580017286.0	7.07	13.09
26/01/2020 05:41:27	26012020	260120	054127	53.870	12.633103	-57.349917	53.720	0.400	-0.090	0.370	53.850	-1.500	0.800																			1580017287.0	7.13	13.20
26/01/2020 05:41:28	26012020	260120	054128	53.770	12.633123	-57.349888	53.680	0.360	-0.150	0.050	53.760	-1.500	0.800																			1580017288.0	7.23	13.39
26/01/2020 05:41:29	26012020	260120	054129	53.740	12.633145	-57.349862	53.700	0.170	-0.200	-0.300	53.740	-1.500	0.400																			1580017289.0	7.33	13.58
26/01/2020 05:41:30	26012020	260120	054130	53.750	12.633168	-57.349837	53.730	0.010	-0.170	-0.540	53.760	-1.600	0.100																			1580017290.0	7.41	13.72
26/01/2020 05:41:31	26012020	260120	054131	53.790	12.633192	-57.349812	53.740	-0.040	-0.130	-0.560	53.790	-1.500	-0.200																			1580017291.0	7.36	13.63
26/01/2020 05:41:32	26012020	260120	054132	53.810	12.633213	-57.349785	53.740	-0.040	-0.160	-0.410	53.810	-1.500	-0.200																			1580017292.0	7.29	13.50
26/01/2020 05:41:33	26012020	260120	054133	53.800	12.633235	-57.349757	53.690	-0.100	-0.140	-0.130	53.790	-1.500	0.100																			1580017293.0	7.31	13.54
26/01/2020 05:41:34	26012020	260120	054134	53.760	12.633253	-57.349728	53.630	-0.260	-0.010	0.160	53.750	-1.500	0.200																			1580017294.0	7.37	13.65
26/01/2020 05:41:35	26012020	260120	054135	53.680	12.633272	-57.349700	53.650	-0.330	-0.030	0.310	53.670	-1.400	0.500																			1580017295.0	7.20	13.33
26/01/2020 05:41:36	26012020	260120	054136	53.670	12.633290	-57.349672	53.680	-0.140	-0.320	0.260	53.680	-1.400	0.700																			1580017296.0	7.08	13.11
26/01/2020 05:41:37	26012020	260120	054137	53.710	12.633310	-57.349645	53.710	0.210	-0.570	0.110	53.720	-1.700	0.600																			1580017297.0	7.34	13.59
26/01/2020 05:41:38	26012020	260120	054138	53.750	12.633333	-57.349615	53.660	0.410	-0.420	0.020	53.750	-1.900	0.500																			1580017298.0	7.64	14.15
26/01/2020 05:41:39	26012020	260120	054139	53.720	12.633355	-57.349588	53.520	0.280	0.050	-0.030	53.700	-1.800	0.400																			1580017299.0	7.49	13.87
26/01/2020 05:41:40	26012020	260120	054140	53.580	12.633375	-57.349562	53.420	0.000	0.270	-0.160	53.550	-1.400	0.400																			1580017300.0	7.00	12.96
26/01/2020 05:41:41	26012020	260120	054141	53.450	12.633395	-57.349537	53.460	-0.120	-0.090	-0.480	53.440	-1.100	0.200																			1580017301.0	6.82	12.63
26/01/2020 05:41:42	26012020	260120	054142	53.490	12.633417	-57.349510	53.440	-0.050	-0.510	-0.710	53.500	-1.400	-0.100																			1580017302.0	7.29	13.50
26/01/2020 05:41:43	26012020	260120	054143	53.500	12.633440	-57.349483	53.300	0.010	-0.430	-0.680	53.480	-1.900	-0.300																			1580017303.0	7.86	14.56
26/01/2020 05:41:44	26012020	260120	054144	53.370	12.633463	-57.349455	53.220	-0.040	0.020	-0.470	53.340	-1.800	-0.300																			1580017304.0	7.67	14.20
26/01/2020 05:41:45	26012020	260120	054145	53.270	12.633483	-57.349428	53.240	-0.120	0.250	-0.220	53.260	-1.400	-0.100																			1580017305.0	7.01	12.98
26/01/2020 05:41:46	26012020	260120	054146	53.270	12.633502	-57.349402	53.270	-0.100	0.030	0.040	53.280	-1.100	0.100																			1580017306.0	6.80	12.59
26/01/2020 05:41:47	26012020	260120	054147	53.300	12.633522	-57.349375	53.220	0.010	-0.400	0.240	53.290	-1.300	0.400																			1580017307.0	7.16	13.26
26/01/2020 05:41:48	26012020	260120	054148	53.250	12.633542	-57.349345	53.180	0.080	-0.610	0.340	53.250	-1.700	0.600																			1580017308.0	7.60	14.08
26/01/2020 05:41:49	26012020	260120	054149	53.200	12.633563	-57.349315	53.120	-0.030	-0.330	0.370	53.200	-2.000	0.700																			1580017309.0	7.71	14.28
26/01/2020 05:41:50	26012020	260120	054150	53.150	12.633583	-57.349288	53.040	-0.240	0.130	0.370	53.140	-1.800	0.700																			1580017310.0	7.33	13.58
26/01/2020 05:41:51	26012020	260120	054151	53.080	12.633603	-57.349263	53.000	-0.210	0.220	0.330	53.060	-1.300	0.700																			1580017311.0	6.84	12.67
26/01/2020 05:41:52	26012020	260120	054152	53.010	12.633623	-57.349238	53.040	0.140	-0.230	0.150	53.010	-1.100	0.700																			1580017312.0	6.83	12.65
26/01/2020 05:41:53	26012020	260120	054153	53.050	12.633645	-57.349210	53.020	0.470	-0.630	-0.070	53.060	-1.600	0.500																			1580017313.0	7.43	13.76
26/01/2020 05:41:54	26012020	260120	054154	53.060	12.633668	-57.349182	52.840	0.400	-0.480	-0.190	53.050	-2.000	0.300																			1580017314.0	7.92	14.67
26/01/2020 05:41:55	26012020	260120	054155	52.930	12.633690	-57.349153	52.690	0.010	-0.020	-0.370	52.880	-1.600	0.100																			1580017315.0	7.60	14.08
26/01/2020 05:41:56	26012020	260120	054156	52.750	12.633712	-57.349128	52.750	-0.250	0.170	-0.730	52.740	-1.400	0.000																			1580017316.0	6.95	12.87
26/01/2020 05:41:57	26012020	260120	054157	52.780	12.633733	-57.349105	52.890	-0.180	0.060	-0.950	52.800	-1.200	-0.300																			1580017317.0	6.89	12.76
26/01/2020 05:41:58	26012020	260120	054158	52.920	12.633757	-57.349080	52.920	-0.070	-0.040	-0.810	52.940	-1.300	-0.600																			1580017318.0	7.33	13.58
26/01/2020 05:41:59	26012020	260120	054159	52.970	12.633780	-57.349053	52.890	-0.130	-0.050	-0.410	52.970	-1.400	-0.500																			1580017319.0	7.47	13.83
26/01/2020 05:42:00	26012020	260120	054200	52.940	12.633800	-57.349025	52.900	-0.270	-0.110	0.060	52.930	-1.400	-0.100	1014.40	25.80	25.80	20.70	20.70	0.00	73.00	73.00	435.00	25.60	25.00	10.40	92.00	7.20	15	3118.00	27.40	27.40	1580017320.0	7.27	13.46
26/01/2020 05:42:01	26012020	260120	054201	52.920	12.633818	-57.348997	52.930	-0.240	-0.340	0.460	52.930	-1.500	0.400																			1580017321.0	7.13	13.20
26/01/2020 05:42:02	26012020	260120	054202	52.940	12.633837	-57.348968	52.890	-0.010	-0.550	0.820	52.950	-1.700	0.800																			1580017322.0	7.24	13.41
26/01/2020 05:42:03	26012020	260120	054203	52.920	12.633857	-57.348940	52.790	0.220	-0.500	1.040	52.910	-1.900	1.100																			1580017323.0	7.48	13.85
26/01/2020 05:42:04	26012020	260120	054204	52.820	12.633877	-57.348910	52.800	0.280	-0.290	0.950	52.800	-1.900	1.400																			1580017324.0	7.41	13.72
26/01/2020 05:42:05	26012020	260120	054205	52.790	12.633897	-57.348883	52.960	0.200	-0.140	0.500	52.810	-1.700	1.300																			1580017325.0	7.19	13.32
26/01/2020 05:42:06	26012020	260120	054206	52.950	12.633918	-57.348858	53.010	0.130	-0.090	-0.010	52.980	-1.500	0.900																			1580017326.0	7.16	13.26
26/01/2020 05:42:07	26012020	260120	054207	53.050	12.633942	-57.348832	52.950	0.140	-0.030	-0.410	53.050	-1.500	0.400																			1580017327.0	7.32	13.56
26/01/2020 05:42:08	26012020	260120	054208	53.010	12.633965	-57.348807	53.000	0.150	0.040	-0.730	53.000	-1.400	0.000																			1580017328.0	7.43	13.76
26/01/2020 05:42:09	26012020	260120	054209	53.030	12.633988	-57.348782	53.130	0.030	0.070	-0.960	53.050	-1.300	-0.500																			1580017329.0	7.34	13.59
26/01/2020 05:42:10	26012020	260120	054210	53.150	12.634012	-57.348757	53.210	-0.220	0.070	-1.010	53.180	-1.300	-0.600																			1580017330.0	7.28	13.48
26/01/2020 05:42:11	26012020	260120	054211	53.260	12.634033	-57.348730	53.270	-0.430	0.040	-0.870	53.260	-1.300	-0.600																			1580017331.0	7.23	13.39
26/01/2020 05:42:12	26012020	260120	054212	53.310	12.634053	-57.348703	53.350	-0.430	-0.140	-0.520	53.320	-1.300	-0.500																			1580017332.0	7.15	13.24
26/01/2020 05:42:13	26012020	260120	054213	53.370	12.634073	-57.348677	53.390	-0.220	-0.460	-0.090	53.390	-1.500	-0.200																			1580017333.0	7.16	13.26
26/01/2020 05:42:14	26012020	260120	054214	53.420	12.634093	-57.348647	53.380	0.090	-0.710	0.260	53.420	-1.800	0.200																			1580017334.0	7.38	13.67
26/01/2020 05:42:15	26012020	260120	054215	53.400	12.634112	-57.348617	53.340	0.300	-0.620	0.500	53.400	-2.100	0.600																			1580017335.0	7.57	14.02
26/01/2020 05:42:16	26012020	260120	054216	53.370	12.634133	-57.348588	53.360	0.320	-0.280	0.530	53.360	-2.000	0.800																			1580017336.0	7.46	13.82
26/01/2020 05:42:17	26012020	260120	054217	53.360	12.634153	-57.348562	53.490	0.220	-0.010	0.320	53.380	-1.700	0.900																			1580017337.0	7.14	13.22
26/01/2020 05:42:18	26012020	260120	054218	53.480	12.634175	-57.348537	53.620	0.150	0.020	0.040	53.510	-1.400	0.700																			1580017338.0	7.03	13.02
26/01/2020 05:42:19	26012020	260120	054219	53.620	12.634197	-57.348512	53.640	0.090	-0.030	-0.130	53.640	-1.400	0.400																			1580017339.0	7.25	13.43
26/01/2020 05:42:20	26012020	260120	054220	53.660	12.634218	-57.348483	53.620	-0.070	0.020	-0.190	53.660	-1.400	0.300																			1580017340.0	7.49	13.87
26/01/2020 05:42:21	26012020	260120	054221	53.640	12.634240	-57.348457	53.710	-0.290	0.040	-0.340	53.640	-1.300	0.100																			1580017341.0	7.42	13.74
26/01/2020 05:42:22	26012020	260120	054222	53.710	12.634262	-57.348428	53.780	-0.440	0.090	-0.470	53.730	-1.300	0.000																			1580017342.0	7.27	13.46
26/01/2020 05:42:23	26012020	260120	054223	53.800	12.634282	-57.348402	53.750	-0.390	0.190	-0.500	53.810	-1.200	-0.100																			1580017343.0	7.23	13.39
26/01/2020 05:42:24	26012020	260120	054224	53.790	12.634302	-57.348377	53.650	-0.100	-0.070	-0.510	53.780	-1.200	-0.100																			1580017344.0	7.02	13.00
26/01/2020 05:42:25	26012020	260120	054225	53.700	12.634322	-57.348350	53.600	0.320	-0.720	-0.510	53.690	-1.400	-0.100																			1580017345.0	7.04	13.04
26/01/2020 05:42:26	26012020	260120	054226	53.640	12.634345	-57.348322	53.630	0.550	-1.060	-0.520	53.640	-2.000	-0.100																			1580017346.0	7.62	14.11
26/01/2020 05:42:27	26012020	260120	054227	53.650	12.634368	-57.348292	53.740	0.420	-0.640	-0.530	53.670	-2.400	-0.200																			1580017347.0	7.95	14.72
26/01/2020 05:42:28	26012020	260120	054228	53.750	12.634390	-57.348267	53.800	0.070	0.130	-0.310	53.770	-2.100	-0.200																			1580017348.0	7.41	13.72
26/01/2020 05:42:29	26012020	260120	054229	53.830	12.634410	-57.348242	53.800	-0.190	0.470	0.100	53.830	-1.300	0.000																			1580017349.0	6.70	12.41
26/01/2020 05:42:30	26012020	260120	054230	53.830	12.634428	-57.348217	53.850	-0.230	0.190	0.440	53.830	-0.900	0.400																			1580017350.0	6.63	12.28
26/01/2020 05:42:31	26012020	260120	054231	53.860	12.634447	-57.348187	53.910	-0.150	-0.300	0.650	53.870	-1.200	0.800																			1580017351.0	7.31	13.54
26/01/2020 05:42:32	26012020	260120	054232	53.910	12.634467	-57.348157	53.910	-0.060	-0.530	0.780	53.920	-1.600	1.000																			1580017352.0	7.81	14.46
26/01/2020 05:42:33	26012020	260120	054233	53.930	12.634487	-57.348127	53.920	-0.040	-0.300	0.720	53.930	-1.900	1.100																			1580017353.0	7.78	14.41
26/01/2020 05:42:34	26012020	260120	054234	53.930	12.634507	-57.348097	53.900	-0.100	0.170	0.420	53.940	-1.700	1.100																			1580017354.0	7.37	13.65
26/01/2020 05:42:35	26012020	260120	054235	53.930	12.634525	-57.348072	53.820	-0.170	0.430	-0.040	53.930	-1.300	0.800																			1580017355.0	6.88	12.74
26/01/2020 05:42:36	26012020	260120	054236	53.870	12.634547	-57.348047	53.670	-0.090	0.200	-0.590	53.860	-1.000	0.400																			1580017356.0	6.75	12.50
26/01/2020 05:42:37	26012020	260120	054237	53.740	12.634570	-57.348023	53.580	0.180	-0.400	-1.100	53.710	-1.100	-0.200																			1580017357.0	7.11	13.17
26/01/2020 05:42:38	26012020	260120	054238	53.630	12.634595	-57.347997	53.710	0.460	-0.970	-1.520	53.630	-1.700	-0.700																			1580017358.0	7.63	14.13
26/01/2020 05:42:39	26012020	260120	054239	53.720	12.634622	-57.347972	53.940	0.510	-0.980	-1.550	53.770	-2.300	-1.100																			1580017359.0	7.96	14.74
26/01/2020 05:42:40	26012020	260120	054240	53.970	12.634645	-57.347943	53.950	0.160	-0.280	-0.910	54.000	-2.400	-1.200																			1580017360.0	7.77	14.39
26/01/2020 05:42:41	26012020	260120	054241	54.030	12.634665	-57.347917	53.750	-0.360	0.530	0.070	54.000	-1.800	-0.600																			1580017361.0	7.07	13.09
26/01/2020 05:42:42	26012020	260120	054242	53.820	12.634678	-57.347890	53.690	-0.610	0.650	0.810	53.770	-0.900	0.300																			1580017362.0	6.49	12.02
26/01/2020 05:42:43	26012020	260120	054243	53.690	12.634693	-57.347862	53.840	-0.360	-0.020	1.120	53.700	-0.700	1.100																			1580017363.0	6.66	12.33
26/01/2020 05:42:44	26012020	260120	054244	53.790	12.634712	-57.347832	53.940	0.170	-0.780	1.160	53.830	-1.300	1.500																			1580017364.0	7.49	13.87
26/01/2020 05:42:45	26012020	260120	054245	53.930	12.634732	-57.347798	53.830	0.460	-0.830	1.060	53.930	-2.100	1.500																			1580017365.0	8.15	15.09
26/01/2020 05:42:46	26012020	260120	054246	53.860	12.634753	-57.347768	53.650	0.290	-0.180	0.790	53.830	-2.200	1.400																			1580017366.0	7.94	14.70
26/01/2020 05:42:47	26012020	260120	054247	53.680	12.634773	-57.347742	53.700	-0.110	0.470	0.130	53.660	-1.200	0.900																			1580017367.0	7.06	13.08
26/01/2020 05:42:48	26012020	260120	054248	53.690	12.634795	-57.347720	53.910	-0.330	0.590	-0.820	53.720	-1.000	0.600																			1580017368.0	6.50	12.04
26/01/2020 05:42:49	26012020	260120	054249	53.900	12.634818	-57.347698	54.010	-0.190	0.230	-1.440	53.950	-0.800	-0.400																			1580017369.0	6.76	12.52
26/01/2020 05:42:50	26012020	260120	054250	54.060	12.634843	-57.347675	53.840	0.090	-0.320	-1.510	54.060	-1.100	-1.000																			1580017370.0	7.29	13.50
26/01/2020 05:42:51	26012020	260120	054251	53.950	12.634867	-57.347648	53.630	0.230	-0.840	-1.340	53.900	-1.600	-1.200																			1580017371.0	7.55	13.98
26/01/2020 05:42:52	26012020	260120	054252	53.720	12.634888	-57.347620	53.560	0.190	-1.100	-1.050	53.680	-2.200	-1.000																			1580017372.0	7.63	14.13
26/01/2020 05:42:53	26012020	260120	054253	53.610	12.634910	-57.347592	53.650	0.050	-0.820	-0.670	53.600	-2.500	-0.700																			1580017373.0	7.62	14.11
26/01/2020 05:42:54	26012020	260120	054254	53.660	12.634930	-57.347563	53.790	-0.100	-0.090	-0.240	53.680	-2.300	-0.400																			1580017374.0	7.38	13.67
26/01/2020 05:42:55	26012020	260120	054255	53.790	12.634947	-57.347535	53.890	-0.210	0.600	0.330	53.820	-1.500	0.100																			1580017375.0	6.88	12.74
26/01/2020 05:42:56	26012020	260120	054256	53.880	12.634963	-57.347510	54.000	-0.170	0.680	0.840	53.900	-0.800	0.600																			1580017376.0	6.56	12.15
26/01/2020 05:42:57	26012020	260120	054257	53.970	12.634980	-57.347482	54.080	-0.010	0.180	1.040	53.990	-0.700	1.200																			1580017377.0	6.82	12.63
26/01/2020 05:42:58	26012020	260120	054258	54.060	12.634998	-57.347452	54.080	0.170	-0.400	0.920	54.080	-1.100	1.400																			1580017378.0	7.43	13.76
26/01/2020 05:42:59	26012020	260120	054259	54.090	12.635020	-57.347422	54.010	0.240	-0.590	0.620	54.080	-1.700	1.300																			1580017379.0	7.78	14.41
26/01/2020 05:43:00	26012020	260120	054300	54.030	12.635042	-57.347395	53.870	0.120	-0.300	0.210	54.010	-2.000	1.000	1014.50	25.80	25.80	20.90	20.90	0.00	74.00	74.00	435.00	25.60	22.00	10.80	87.00	7.40	15	3192.00	27.40	27.40	1580017380.0	7.61	14.09
26/01/2020 05:43:01	26012020	260120	054301	53.900	12.635065	-57.347368	53.720	-0.150	0.100	-0.250	53.880	-1.700	0.600																			1580017381.0	7.12	13.19
26/01/2020 05:43:02	26012020	260120	054302	53.750	12.635087	-57.347347	53.750	-0.310	0.080	-0.810	53.730	-1.300	0.200																			1580017382.0	6.72	12.45
26/01/2020 05:43:03	26012020	260120	054303	53.750	12.635108	-57.347323	53.930	-0.180	-0.380	-1.280	53.780	-1.300	-0.400																			1580017383.0	6.82	12.63
26/01/2020 05:43:04	26012020	260120	054304	53.940	12.635133	-57.347298	54.050	0.080	-0.650	-1.330	53.980	-1.700	-0.900																			1580017384.0	7.42	13.74
26/01/2020 05:43:05	26012020	260120	054305	54.080	12.635155	-57.347270	54.020	0.160	-0.420	-0.880	54.090	-2.000	-1.000																			1580017385.0	7.73	14.32
26/01/2020 05:43:06	26012020	260120	054306	54.080	12.635175	-57.347242	53.950	0.020	-0.040	-0.270	54.060	-1.800	-0.600																			1580017386.0	7.32	13.56
26/01/2020 05:43:07	26012020	260120	054307	53.990	12.635190	-57.347213	53.940	-0.070	0.000	0.150	53.980	-1.400	0.000																			1580017387.0	6.86	12.70
26/01/2020 05:43:08	26012020	260120	054308	53.960	12.635207	-57.347185	53.910	0.030	-0.210	0.370	53.960	-1.400	0.500																			1580017388.0	6.94	12.85
26/01/2020 05:43:09	26012020	260120	054309	53.940	12.635227	-57.347157	53.870	0.190	-0.310	0.490	53.930	-1.600	0.700																			1580017389.0	7.37	13.65
26/01/2020 05:43:10	26012020	260120	054310	53.890	12.635247	-57.347128	53.910	0.260	-0.200	0.450	53.890	-1.700	0.900																			1580017390.0	7.51	13.91
26/01/2020 05:43:11	26012020	260120	054311	53.920	12.635268	-57.347100	53.940	0.200	0.080	0.270	53.940	-1.400	0.700																			1580017391.0	7.31	13.54
26/01/2020 05:43:12	26012020	260120	054312	53.980	12.635290	-57.347075	53.870	-0.020	0.290	0.140	53.970	-1.300	0.700																			1580017392.0	7.09	13.13
26/01/2020 05:43:13	26012020	260120	054313	53.920	12.635310	-57.347050	53.910	-0.280	0.140	-0.040	53.900	-1.100	0.400																			1580017393.0	6.94	12.85
26/01/2020 05:43:14	26012020	260120	054314	53.920	12.635332	-57.347025	54.110	-0.420	-0.190	-0.270	53.940	-1.200	0.400																			1580017394.0	7.03	13.02
26/01/2020 05:43:15	26012020	260120	054315	54.110	12.635353	-57.346997	54.200	-0.400	-0.330	-0.310	54.150	-1.500	0.100																			1580017395.0	7.33	13.58
26/01/2020 05:43:16	26012020	260120	054316	54.250	12.635373	-57.346970	54.000	-0.250	-0.330	-0.110	54.230	-1.700	0.100																			1580017396.0	7.32	13.56
26/01/2020 05:43:17	26012020	260120	054317	54.090	12.635392	-57.346942	53.770	-0.010	-0.450	0.030	54.030	-1.700	0.200																			1580017397.0	7.09	13.13
26/01/2020 05:43:18	26012020	260120	054318	53.830	12.635410	-57.346913	53.770	0.270	-0.660	-0.160	53.800	-1.800	0.400																			1580017398.0	7.13	13.20
26/01/2020 05:43:19	26012020	260120	054319	53.780	12.635432	-57.346885	53.870	0.480	-0.560	-0.510	53.810	-2.000	0.200																			1580017399.0	7.41	13.72
26/01/2020 05:43:20	26012020	260120	054320	53.900	12.635453	-57.346858	53.850	0.500	-0.110	-0.710	53.920	-2.000	-0.100																			1580017400.0	7.48	13.85
26/01/2020 05:43:21	26012020	260120	054321	53.920	12.635477	-57.346833	53.810	0.360	0.270	-0.690	53.900	-1.500	-0.300																			1580017401.0	7.13	13.20
26/01/2020 05:43:22	26012020	260120	054322	53.860	12.635497	-57.346810	53.830	0.140	0.300	-0.540	53.860	-1.100	-0.300																			1580017402.0	6.86	12.70
26/01/2020 05:43:23	26012020	260120	054323	53.870	12.635517	-57.346783	53.870	-0.100	0.150	-0.260	53.880	-1.100	-0.200																			1580017403.0	7.06	13.08
26/01/2020 05:43:24	26012020	260120	054324	53.900	12.635537	-57.346755	53.870	-0.340	-0.010	0.050	53.900	-1.200	0.100																			1580017404.0	7.30	13.52
26/01/2020 05:43:25	26012020	260120	054325	53.900	12.635557	-57.346727	53.880	-0.540	-0.220	0.290	53.900	-1.400	0.400																			1580017405.0	7.32	13.56
26/01/2020 05:43:26	26012020	260120	054326	53.890	12.635575	-57.346698	53.970	-0.560	-0.440	0.470	53.900	-1.600	0.600																			1580017406.0	7.27	13.46
26/01/2020 05:43:27	26012020	260120	054327	53.960	12.635595	-57.346670	54.090	-0.370	-0.460	0.640	53.980	-1.800	0.800																			1580017407.0	7.33	13.58
26/01/2020 05:43:28	26012020	260120	054328	54.090	12.635615	-57.346642	54.080	-0.050	-0.230	0.790	54.100	-1.900	1.000																			1580017408.0	7.30	13.52
26/01/2020 05:43:29	26012020	260120	054329	54.100	12.635632	-57.346613	53.870	0.180	-0.000	0.760	54.090	-1.600	1.100																			1580017409.0	7.06	13.08
26/01/2020 05:43:30	26012020	260120	054330	53.940	12.635650	-57.346587	53.600	0.290	-0.100	0.460	53.890	-1.400	1.100																			1580017410.0	6.89	12.76
26/01/2020 05:43:31	26012020	260120	054331	53.660	12.635670	-57.346560	53.560	0.400	-0.510	-0.190	53.620	-1.400	0.900																			1580017411.0	7.03	13.02
26/01/2020 05:43:32	26012020	260120	054332	53.570	12.635693	-57.346533	53.780	0.540	-0.750	-1.010	53.600	-1.900	0.300																			1580017412.0	7.54	13.96
26/01/2020 05:43:33	26012020	260120	054333	53.780	12.635722	-57.346508	54.000	0.500	-0.340	-1.570	53.830	-2.100	-0.600																			1580017413.0	7.93	14.69
26/01/2020 05:43:34	26012020	260120	054334	54.030	12.635747	-57.346483	54.070	0.160	0.400	-1.480	54.060	-1.800	-1.200																			1580017414.0	7.55	13.98
26/01/2020 05:43:35	26012020	260120	054335	54.120	12.635768	-57.346460	53.950	-0.330	0.760	-0.850	54.120	-1.100	-1.100																			1580017415.0	6.74	12.48
26/01/2020 05:43:36	26012020	260120	054336	54.020	12.635785	-57.346435	53.830	-0.630	0.400	-0.120	53.990	-0.600	-0.600																			1580017416.0	6.52	12.08
26/01/2020 05:43:37	26012020	260120	054337	53.870	12.635802	-57.346407	53.800	-0.510	-0.370	0.550	53.840	-1.400	0.600																			1580017417.0	7.04	13.04
26/01/2020 05:43:38	26012020	260120	054338	53.800	12.635820	-57.346375	53.830	-0.150	-0.930	1.030	53.800	-1.700	0.900																			1580017418.0	7.68	14.22
26/01/2020 05:43:39	26012020	260120	054339	53.820	12.635838	-57.346342	53.830	0.100	-0.880	1.300	53.820	-2.300	1.300																			1580017419.0	7.90	14.63
26/01/2020 05:43:40	26012020	260120	054340	53.830	12.635857	-57.346312	53.750	0.100	-0.370	1.370	53.820	-2.300	1.600																			1580017420.0	7.53	13.95
26/01/2020 05:43:41	26012020	260120	054341	53.760	12.635875	-57.346285	53.590	0.010	0.170	1.150	53.730	-1.800	1.700																			1580017421.0	6.93	12.83
26/01/2020 05:43:42	26012020	260120	054342	53.610	12.635893	-57.346260	53.400	0.000	0.410	0.620	53.580	-1.300	1.500																			1580017422.0	6.67	12.35
26/01/2020 05:43:43	26012020	260120	054343	53.420	12.635915	-57.346237	53.320	0.070	0.260	-0.180	53.390	-1.000	1.100																			1580017423.0	6.84	12.67
26/01/2020 05:43:44	26012020	260120	054344	53.330	12.635938	-57.346212	53.310	0.170	-0.220	-0.980	53.330	-1.100	0.300																			1580017424.0	7.19	13.32
26/01/2020 05:43:45	26012020	260120	054345	53.340	12.635963	-57.346187	53.340	0.280	-0.790	-1.480	53.340	-1.600	-0.500																			1580017425.0	7.56	14.00
26/01/2020 05:43:46	26012020	260120	054346	53.370	12.635990	-57.346162	53.460	0.340	-0.980	-1.590	53.390	-2.100	-1.100																			1580017426.0	7.82	14.48
26/01/2020 05:43:47	26012020	260120	054347	53.480	12.636013	-57.346133	53.500	0.180	-0.450	-1.240	53.500	-2.400	-1.200																			1580017427.0	7.82	14.48
26/01/2020 05:43:48	26012020	260120	054348	53.550	12.636033	-57.346105	53.410	-0.160	0.460	-0.510	53.540	-1.900	-0.900																			1580017428.0	7.29	13.50
26/01/2020 05:43:49	26012020	260120	054349	53.470	12.636050	-57.346078	53.260	-0.420	0.880	0.310	53.440	-0.600	0.300																			1580017429.0	6.55	12.13
26/01/2020 05:43:50	26012020	260120	054350	53.310	12.636063	-57.346052	53.170	-0.400	0.430	0.910	53.280	-0.500	0.600																			1580017430.0	6.44	11.93
26/01/2020 05:43:51	26012020	260120	054351	53.190	12.636080	-57.346023	53.180	-0.160	-0.440	1.160	53.170	-0.900	1.200																			1580017431.0	7.10	13.15
26/01/2020 05:43:52	26012020	260120	054352	53.170	12.636100	-57.345992	53.250	0.090	-0.900	1.070	53.180	-1.700	1.500																			1580017432.0	7.86	14.56
26/01/2020 05:43:53	26012020	260120	054353	53.240	12.636123	-57.345963	53.270	0.190	-0.590	0.950	53.250	-2.300	1.400																			1580017433.0	7.93	14.69
26/01/2020 05:43:54	26012020	260120	054354	53.280	12.636145	-57.345937	53.280	0.170	-0.070	0.840	53.280	-2.000	1.300																			1580017434.0	7.25	13.43
26/01/2020 05:43:55	26012020	260120	054355	53.300	12.636163	-57.345912	53.240	0.120	0.010	0.590	53.300	-1.500	1.200																			1580017435.0	6.55	12.13
26/01/2020 05:43:56	26012020	260120	054356	53.270	12.636183	-57.345887	53.160	0.030	-0.180	0.110	53.260	-1.400	1.000																			1580017436.0	6.74	12.48
26/01/2020 05:43:57	26012020	260120	054357	53.210	12.636205	-57.345860	53.090	-0.090	-0.220	-0.410	53.200	-1.500	0.500																			1580017437.0	7.32	13.56
26/01/2020 05:43:58	26012020	260120	054358	53.150	12.636228	-57.345835	53.040	-0.160	-0.100	-0.820	53.140	-1.600	0.000																			1580017438.0	7.45	13.80
26/01/2020 05:43:59	26012020	260120	054359	53.100	12.636253	-57.345810	53.040	-0.050	-0.080	-1.060	53.090	-1.500	-0.400																			1580017439.0	7.21	13.35
26/01/2020 05:44:00	26012020	260120	054400	53.090	12.636275	-57.345785	53.120	0.140	-0.230	-1.050	53.100	-1.500	-0.700	1014.40	25.80	25.80	20.70	20.80	0.00	73.00	73.00	435.00	25.60	21.00	10.50	85.00	7.20	15	3204.00	27.40	27.40	1580017440.0	7.10	13.15
26/01/2020 05:44:01	26012020	260120	054401	53.160	12.636297	-57.345758	53.180	0.210	-0.370	-0.820	53.170	-1.600	-0.700																			1580017441.0	7.27	13.46
26/01/2020 05:44:02	26012020	260120	054402	53.220	12.636317	-57.345730	53.220	0.060	-0.330	-0.550	53.230	-1.700	-0.500																			1580017442.0	7.43	13.76
26/01/2020 05:44:03	26012020	260120	054403	53.260	12.636335	-57.345702	53.250	-0.140	-0.060	-0.210	53.260	-1.600	0.000																			1580017443.0	7.33	13.58
26/01/2020 05:44:04	26012020	260120	054404	53.280	12.636355	-57.345675	53.300	-0.200	0.240	0.220	53.290	-1.500	0.100																			1580017444.0	7.06	13.08
26/01/2020 05:44:05	26012020	260120	054405	53.320	12.636373	-57.345648	53.250	-0.130	0.240	0.650	53.320	-1.200	0.500																			1580017445.0	6.86	12.70
26/01/2020 05:44:06	26012020	260120	054406	53.280	12.636392	-57.345622	53.190	-0.050	-0.070	0.840	53.270	-1.100	1.000																			1580017446.0	6.97	12.91
26/01/2020 05:44:07	26012020	260120	054407	53.210	12.636412	-57.345593	53.190	-0.060	-0.370	0.820	53.200	-1.400	1.200																			1580017447.0	7.28	13.48
26/01/2020 05:44:08	26012020	260120	054408	53.200	12.636432	-57.345565	53.180	-0.090	-0.430	0.710	53.200	-1.700	1.200																			1580017448.0	7.44	13.78
26/01/2020 05:44:09	26012020	260120	054409	53.200	12.636453	-57.345538	53.150	-0.030	-0.410	0.480	53.200	-1.800	1.100																			1580017449.0	7.26	13.45
26/01/2020 05:44:10	26012020	260120	054410	53.170	12.636473	-57.345512	53.130	0.140	-0.480	0.110	53.170	-1.800	0.900																			1580017450.0	7.06	13.08
26/01/2020 05:44:11	26012020	260120	054411	53.160	12.636495	-57.345485	53.100	0.290	-0.480	-0.280	53.160	-1.900	0.500																			1580017451.0	7.18	13.30
26/01/2020 05:44:12	26012020	260120	054412	53.150	12.636517	-57.345458	53.030	0.250	-0.180	-0.560	53.150	-1.900	0.100																			1580017452.0	7.42	13.74
26/01/2020 05:44:13	26012020	260120	054413	53.090	12.636540	-57.345433	52.910	-0.010	0.300	-0.750	53.070	-1.600	-0.200																			1580017453.0	7.32	13.56
26/01/2020 05:44:14	26012020	260120	054414	52.980	12.636562	-57.345408	52.880	-0.210	0.460	-0.900	52.970	-1.100	-0.400																			1580017454.0	6.89	12.76
26/01/2020 05:44:15	26012020	260120	054415	52.930	12.636582	-57.345385	52.990	-0.120	0.090	-1.000	52.930	-0.900	-0.500																			1580017455.0	6.77	12.54
26/01/2020 05:44:16	26012020	260120	054416	53.010	12.636603	-57.345358	53.220	0.110	-0.440	-0.940	53.050	-1.200	-0.600																			1580017456.0	7.19	13.32
26/01/2020 05:44:17	26012020	260120	054417	53.230	12.636625	-57.345330	53.310	0.130	-0.610	-0.540	53.280	-1.800	-0.600																			1580017457.0	7.67	14.20
26/01/2020 05:44:18	26012020	260120	054418	53.370	12.636647	-57.345300	53.140	-0.180	-0.280	0.060	53.360	-2.000	-0.200																			1580017458.0	7.65	14.17
26/01/2020 05:44:19	26012020	260120	054419	53.220	12.636663	-57.345272	52.880	-0.490	0.140	0.610	53.170	-1.700	0.400																			1580017459.0	7.11	13.17
26/01/2020 05:44:20	26012020	260120	054420	52.940	12.636682	-57.345245	52.720	-0.420	0.150	0.950	52.890	-1.300	0.900																			1580017460.0	6.63	12.28
26/01/2020 05:44:21	26012020	260120	054421	52.740	12.636698	-57.345220	52.710	0.010	-0.320	1.010	52.720	-1.200	1.300																			1580017461.0	6.75	12.50
26/01/2020 05:44:22	26012020	260120	054422	52.710	12.636718	-57.345192	52.800	0.440	-0.810	0.740	52.720	-1.600	1.400																			1580017462.0	7.33	13.58
26/01/2020 05:44:23	26012020	260120	054423	52.800	12.636740	-57.345162	52.890	0.510	-0.760	0.240	52.820	-2.200	1.100																			1580017463.0	7.80	14.45
26/01/2020 05:44:24	26012020	260120	054424	52.910	12.636763	-57.345133	52.880	0.230	-0.080	-0.250	52.920	-2.200	0.700																			1580017464.0	7.68	14.22
26/01/2020 05:44:25	26012020	260120	054425	52.930	12.636787	-57.345110	52.780	-0.080	0.630	-0.530	52.920	-1.500	0.200																			1580017465.0	7.03	13.02
26/01/2020 05:44:26	26012020	260120	054426	52.850	12.636807	-57.345088	52.690	-0.140	0.680	-0.750	52.820	-0.800	-0.100																			1580017466.0	6.50	12.04
26/01/2020 05:44:27	26012020	260120	054427	52.760	12.636828	-57.345065	52.710	-0.020	0.050	-0.960	52.750	-0.700	-0.400																			1580017467.0	6.67	12.35
26/01/2020 05:44:28	26012020	260120	054428	52.760	12.636852	-57.345038	52.800	0.060	-0.640	-0.980	52.770	-1.300	-0.600																			1580017468.0	7.42	13.74
26/01/2020 05:44:29	26012020	260120	054429	52.850	12.636875	-57.345012	52.950	-0.020	-0.810	-0.690	52.870	-2.000	-0.600																			1580017469.0	7.87	14.58
26/01/2020 05:44:30	26012020	260120	054430	52.990	12.636897	-57.344982	53.020	-0.190	-0.430	-0.170	53.010	-2.200	-0.400																			1580017470.0	7.61	14.09
26/01/2020 05:44:31	26012020	260120	054431	53.080	12.636915	-57.344955	52.950	-0.320	0.020	0.390	53.080	-1.900	0.100																			1580017471.0	6.99	12.95
26/01/2020 05:44:32	26012020	260120	054432	53.030	12.636930	-57.344927	52.760	-0.310	0.140	0.880	53.000	-1.400	0.700																			1580017472.0	6.66	12.33
26/01/2020 05:44:33	26012020	260120	054433	52.830	12.636948	-57.344900	52.620	-0.110	-0.140	1.010	52.790	-1.200	1.200																			1580017473.0	6.83	12.65
26/01/2020 05:44:34	26012020	260120	054434	52.650	12.636967	-57.344872	52.720	0.180	-0.440	0.670	52.640	-1.500	1.400																			1580017474.0	7.27	13.46
26/01/2020 05:44:35	26012020	260120	054435	52.710	12.636990	-57.344845	52.970	0.350	-0.360	0.150	52.760	-1.800	1.100																			1580017475.0	7.61	14.09
26/01/2020 05:44:36	26012020	260120	054436	52.960	12.637013	-57.344818	53.150	0.220	0.060	-0.310	53.010	-1.800	0.600																			1580017476.0	7.48	13.85
26/01/2020 05:44:37	26012020	260120	054437	53.180	12.637035	-57.344795	53.160	-0.060	0.350	-0.580	53.200	-1.400	0.100																			1580017477.0	6.96	12.89
26/01/2020 05:44:38	26012020	260120	054438	53.220	12.637057	-57.344770	53.110	-0.210	0.110	-0.710	53.210	-1.000	-0.200																			1580017478.0	6.67	12.35
26/01/2020 05:44:39	26012020	260120	054439	53.180	12.637077	-57.344745	53.080	-0.080	-0.460	-0.760	53.170	-1.600	-0.400																			1580017479.0	6.97	12.91
26/01/2020 05:44:40	26012020	260120	054440	53.150	12.637100	-57.344718	53.020	0.190	-0.790	-0.630	53.150	-1.800	-0.400																			1580017480.0	7.55	13.98
26/01/2020 05:44:41	26012020	260120	054441	53.090	12.637123	-57.344690	52.920	0.330	-0.530	-0.320	53.070	-2.200	-0.300																			1580017481.0	7.74	14.33
26/01/2020 05:44:42	26012020	260120	054442	52.980	12.637143	-57.344662	52.910	0.200	0.030	-0.030	52.970	-1.900	0.000																			1580017482.0	7.32	13.56
26/01/2020 05:44:43	26012020	260120	054443	52.950	12.637162	-57.344637	53.040	-0.020	0.230	0.070	52.960	-1.400	0.300																			1580017483.0	6.73	12.46
26/01/2020 05:44:44	26012020	260120	054444	53.050	12.637180	-57.344610	53.210	-0.110	-0.010	0.050	53.080	-1.100	0.400																			1580017484.0	6.69	12.39
26/01/2020 05:44:45	26012020	260120	054445	53.220	12.637200	-57.344583	53.250	-0.120	-0.180	0.100	53.250	-1.400	0.400																			1580017485.0	7.24	13.41
26/01/2020 05:44:46	26012020	260120	054446	53.300	12.637223	-57.344557	53.200	-0.170	-0.050	0.280	53.290	-1.600	0.500																			1580017486.0	7.55	13.98
26/01/2020 05:44:47	26012020	260120	054447	53.250	12.637243	-57.344530	53.220	-0.240	0.050	0.450	53.240	-1.500	0.600																			1580017487.0	7.21	13.35
26/01/2020 05:44:48	26012020	260120	054448	53.230	12.637262	-57.344503	53.260	-0.210	-0.160	0.420	53.240	-1.300	0.800																			1580017488.0	6.88	12.74
26/01/2020 05:44:49	26012020	260120	054449	53.280	12.637282	-57.344477	53.320	-0.000	-0.550	0.200	53.290	-1.500	0.800																			1580017489.0	7.00	12.96
26/01/2020 05:44:50	26012020	260120	054450	53.330	12.637302	-57.344448	53.310	0.200	-0.660	-0.020	53.340	-1.900	0.600																			1580017490.0	7.40	13.70
26/01/2020 05:44:51	26012020	260120	054451	53.360	12.637323	-57.344420	53.130	0.140	-0.260	-0.190	53.350	-1.900	0.300																			1580017491.0	7.55	13.98
26/01/2020 05:44:52	26012020	260120	054452	53.220	12.637345	-57.344393	52.940	-0.070	0.270	-0.450	53.180	-1.700	0.200																			1580017492.0	7.16	13.26
26/01/2020 05:44:53	26012020	260120	054453	53.010	12.637365	-57.344370	52.970	-0.090	0.290	-0.890	52.990	-1.000	-0.300																			1580017493.0	6.66	12.33
26/01/2020 05:44:54	26012020	260120	054454	53.000	12.637388	-57.344348	53.200	0.210	-0.240	-1.320	53.030	-1.100	-0.500																			1580017494.0	6.79	12.58
26/01/2020 05:44:55	26012020	260120	054455	53.230	12.637413	-57.344323	53.320	0.470	-0.610	-1.290	53.280	-1.600	-0.900																			1580017495.0	7.50	13.89
26/01/2020 05:44:56	26012020	260120	054456	53.390	12.637437	-57.344295	53.190	0.320	-0.390	-0.750	53.390	-2.000	-1.000																			1580017496.0	7.85	14.54
26/01/2020 05:44:57	26012020	260120	054457	53.280	12.637457	-57.344267	53.030	-0.160	0.100	-0.150	53.250	-1.800	-0.500																			1580017497.0	7.39	13.69
26/01/2020 05:44:58	26012020	260120	054458	53.090	12.637473	-57.344240	53.050	-0.500	0.300	0.200	53.060	-1.300	0.200																			1580017498.0	6.72	12.45
26/01/2020 05:44:59	26012020	260120	054459	53.060	12.637490	-57.344213	53.180	-0.390	0.040	0.400	53.080	-1.100	0.500																			1580017499.0	6.57	12.17
26/01/2020 05:45:00	26012020	260120	054500	53.180	12.637510	-57.344187	53.240	0.020	-0.410	0.590	53.200	-1.300	0.700	1014.40	25.80	25.80	20.60	20.70	0.00	73.00	73.00	435.00	25.60	22.00	10.50	86.00	7.20	15	3103.00	27.40	27.40	1580017500.0	7.01	12.98
26/01/2020 05:45:01	26012020	260120	054501	53.260	12.637530	-57.344158	53.150	0.310	-0.650	0.640	53.260	-1.800	0.900																			1580017501.0	7.50	13.89
26/01/2020 05:45:02	26012020	260120	054502	53.190	12.637552	-57.344128	53.020	0.310	-0.500	0.530	53.170	-2.000	1.000																			1580017502.0	7.60	14.08
26/01/2020 05:45:03	26012020	260120	054503	53.070	12.637573	-57.344102	52.940	0.120	-0.110	0.300	53.050	-1.900	0.900																			1580017503.0	7.30	13.52
26/01/2020 05:45:04	26012020	260120	054504	52.980	12.637593	-57.344077	52.980	-0.070	0.210	-0.130	52.980	-1.500	0.700																			1580017504.0	6.91	12.80
26/01/2020 05:45:05	26012020	260120	054505	53.000	12.637615	-57.344053	53.080	-0.210	0.280	-0.610	53.010	-1.200	0.300																			1580017505.0	6.79	12.58
26/01/2020 05:45:06	26012020	260120	054506	53.110	12.637637	-57.344030	53.180	-0.280	0.120	-0.910	53.130	-1.100	-0.200																			1580017506.0	6.94	12.85
26/01/2020 05:45:07	26012020	260120	054507	53.230	12.637660	-57.344005	53.210	-0.270	-0.140	-0.900	53.250	-1.200	-0.500																			1580017507.0	7.14	13.22
26/01/2020 05:45:08	26012020	260120	054508	53.270	12.637682	-57.343978	53.220	-0.150	-0.410	-0.790	53.270	-1.500	-0.500																			1580017508.0	7.23	13.39
26/01/2020 05:45:09	26012020	260120	054509	53.280	12.637702	-57.343952	53.280	0.040	-0.640	-0.620	53.280	-1.800	-0.400																			1580017509.0	7.25	13.43
26/01/2020 05:45:10	26012020	260120	054510	53.330	12.637722	-57.343923	53.320	0.260	-0.690	-0.330	53.340	-2.000	-0.300																			1580017510.0	7.30	13.52
26/01/2020 05:45:11	26012020	260120	054511	53.370	12.637742	-57.343897	53.310	0.410	-0.420	0.020	53.380	-2.100	0.000																			1580017511.0	7.34	13.59
26/01/2020 05:45:12	26012020	260120	054512	53.370	12.637762	-57.343868	53.290	0.370	0.070	0.320	53.360	-1.800	0.400																			1580017512.0	7.19	13.32
26/01/2020 05:45:13	26012020	260120	054513	53.340	12.637782	-57.343842	53.300	0.130	0.390	0.490	53.330	-1.400	0.700																			1580017513.0	6.91	12.80
26/01/2020 05:45:14	26012020	260120	054514	53.330	12.637800	-57.343817	53.510	-0.100	0.190	0.360	53.340	-1.000	0.900																			1580017514.0	6.73	12.46
26/01/2020 05:45:15	26012020	260120	054515	53.500	12.637820	-57.343790	53.740	-0.190	-0.160	0.050	53.560	-1.200	0.800																			1580017515.0	7.01	12.98
26/01/2020 05:45:16	26012020	260120	054516	53.760	12.637842	-57.343763	53.760	-0.230	-0.200	-0.160	53.790	-1.500	0.500																			1580017516.0	7.50	13.89
26/01/2020 05:45:17	26012020	260120	054517	53.830	12.637865	-57.343737	53.660	-0.210	-0.130	-0.160	53.820	-1.600	0.200																			1580017517.0	7.39	13.69
26/01/2020 05:45:18	26012020	260120	054518	53.730	12.637885	-57.343712	53.660	-0.060	-0.290	-0.210	53.710	-1.500	0.200																			1580017518.0	6.97	12.91
26/01/2020 05:45:19	26012020	260120	054519	53.700	12.637905	-57.343685	53.800	0.100	-0.460	-0.370	53.720	-1.600	0.200																			1580017519.0	7.04	13.04
26/01/2020 05:45:20	26012020	260120	054520	53.830	12.637927	-57.343658	53.930	0.080	-0.320	-0.510	53.860	-1.800	0.000																			1580017520.0	7.36	13.63
26/01/2020 05:45:21	26012020	260120	054521	53.970	12.637948	-57.343632	54.040	-0.050	-0.100	-0.610	53.990	-1.700	-0.100																			1580017521.0	7.20	13.33
26/01/2020 05:45:22	26012020	260120	054522	54.080	12.637968	-57.343607	54.110	-0.090	-0.060	-0.620	54.100	-1.500	-0.200																			1580017522.0	6.87	12.72
26/01/2020 05:45:23	26012020	260120	054523	54.160	12.637988	-57.343580	54.050	0.010	-0.140	-0.450	54.160	-1.400	-0.300																			1580017523.0	6.97	12.91
26/01/2020 05:45:24	26012020	260120	054524	54.120	12.638008	-57.343553	53.900	0.120	-0.220	-0.230	54.100	-1.500	-0.100																			1580017524.0	7.21	13.35
26/01/2020 05:45:25	26012020	260120	054525	53.970	12.638028	-57.343525	53.870	0.150	-0.230	-0.090	53.940	-1.600	0.100																			1580017525.0	7.30	13.52
26/01/2020 05:45:26	26012020	260120	054526	53.900	12.638048	-57.343498	54.070	0.080	-0.140	-0.100	53.920	-1.600	0.300																			1580017526.0	7.25	13.43
26/01/2020 05:45:27	26012020	260120	054527	54.060	12.638068	-57.343472	54.220	-0.060	0.010	-0.120	54.110	-1.500	0.300																			1580017527.0	7.14	13.22
26/01/2020 05:45:28	26012020	260120	054528	54.250	12.638090	-57.343445	54.160	-0.160	0.050	-0.020	54.260	-1.400	0.200																			1580017528.0	7.03	13.02
26/01/2020 05:45:29	26012020	260120	054529	54.210	12.638110	-57.343418	54.070	-0.100	-0.130	0.050	54.180	-1.400	0.400																			1580017529.0	6.99	12.95
26/01/2020 05:45:30	26012020	260120	054530	54.100	12.638130	-57.343392	54.190	0.060	-0.400	-0.050	54.090	-1.500	0.400																			1580017530.0	7.16	13.26
26/01/2020 05:45:31	26012020	260120	054531	54.180	12.638152	-57.343365	54.410	0.120	-0.480	-0.190	54.220	-1.800	0.300																			1580017531.0	7.39	13.69
26/01/2020 05:45:32	26012020	260120	054532	54.400	12.638172	-57.343337	54.490	0.000	-0.160	-0.180	54.430	-1.900	0.200																			1580017532.0	7.41	13.72
26/01/2020 05:45:33	26012020	260120	054533	54.510	12.638192	-57.343310	54.390	-0.170	0.230	-0.040	54.510	-1.600	0.200																			1580017533.0	7.08	13.11
26/01/2020 05:45:34	26012020	260120	054534	54.440	12.638210	-57.343283	54.250	-0.150	0.100	0.060	54.420	-1.200	0.300																			1580017534.0	6.66	12.33
26/01/2020 05:45:35	26012020	260120	054535	54.300	12.638228	-57.343257	54.110	0.140	-0.530	-0.010	54.270	-1.200	0.400																			1580017535.0	6.83	12.65
26/01/2020 05:45:36	26012020	260120	054536	54.160	12.638250	-57.343230	54.000	0.470	-0.920	-0.240	54.130	-1.800	0.400																			1580017536.0	7.54	13.96
26/01/2020 05:45:37	26012020	260120	054537	54.050	12.638273	-57.343200	53.990	0.510	-0.550	-0.400	54.030	-2.300	0.200																			1580017537.0	7.95	14.72
26/01/2020 05:45:38	26012020	260120	054538	54.030	12.638295	-57.343173	54.110	0.130	0.270	-0.410	54.030	-2.000	-0.000																			1580017538.0	7.48	13.85
26/01/2020 05:45:39	26012020	260120	054539	54.110	12.638315	-57.343148	54.280	-0.460	0.840	-0.440	54.150	-1.200	-0.000																			1580017539.0	6.69	12.39
26/01/2020 05:45:40	26012020	260120	054540	54.280	12.638333	-57.343125	54.400	-0.860	0.760	-0.460	54.310	-0.600	-0.100																			1580017540.0	6.39	11.83
26/01/2020 05:45:41	26012020	260120	054541	54.420	12.638353	-57.343100	54.430	-0.760	0.090	-0.260	54.440	-0.600	-0.100																			1580017541.0	6.69	12.39
26/01/2020 05:45:42	26012020	260120	054542	54.470	12.638373	-57.343073	54.400	-0.230	-0.780	0.050	54.460	-1.200	0.100																			1580017542.0	7.25	13.43
26/01/2020 05:45:43	26012020	260120	054543	54.430	12.638393	-57.343042	54.350	0.390	-1.310	0.270	54.420	-2.500	0.500																			1580017543.0	7.74	14.33
26/01/2020 05:45:44	26012020	260120	054544	54.370	12.638413	-57.343012	54.280	0.750	-1.180	0.390	54.360	-2.700	0.600																			1580017544.0	7.82	14.48
26/01/2020 05:45:45	26012020	260120	054545	54.310	12.638432	-57.342982	54.200	0.720	-0.510	0.400	54.290	-2.600	0.700																			1580017545.0	7.46	13.82
26/01/2020 05:45:46	26012020	260120	054546	54.230	12.638452	-57.342955	54.150	0.390	0.270	0.180	54.210	-2.000	0.800																			1580017546.0	6.96	12.89
26/01/2020 05:45:47	26012020	260120	054547	54.170	12.638470	-57.342930	54.190	-0.040	0.750	-0.190	54.170	-1.200	0.600																			1580017547.0	6.66	12.33
26/01/2020 05:45:48	26012020	260120	054548	54.210	12.638492	-57.342907	54.290	-0.360	0.730	-0.600	54.220	-0.700	0.200																			1580017548.0	6.72	12.45
26/01/2020 05:45:49	26012020	260120	054549	54.310	12.638513	-57.342883	54.370	-0.450	0.200	-0.880	54.340	-0.600	-0.200																			1580017549.0	6.96	12.89
26/01/2020 05:45:50	26012020	260120	054550	54.420	12.638537	-57.342857	54.360	-0.330	-0.460	-0.860	54.430	-1.100	-0.500																			1580017550.0	7.34	13.59
26/01/2020 05:45:51	26012020	260120	054551	54.420	12.638558	-57.342828	54.260	-0.120	-0.840	-0.650	54.410	-1.800	-0.500																			1580017551.0	7.68	14.22
26/01/2020 05:45:52	26012020	260120	054552	54.330	12.638578	-57.342798	54.200	0.110	-0.740	-0.390	54.310	-2.200	-0.300																			1580017552.0	7.66	14.19
26/01/2020 05:45:53	26012020	260120	054553	54.250	12.638598	-57.342770	54.240	0.230	-0.270	-0.190	54.240	-2.100	-0.100																			1580017553.0	7.32	13.56
26/01/2020 05:45:54	26012020	260120	054554	54.260	12.638615	-57.342742	54.210	0.140	0.220	-0.020	54.260	-1.700	0.200																			1580017554.0	6.91	12.80
26/01/2020 05:45:55	26012020	260120	054555	54.250	12.638633	-57.342717	54.170	-0.080	0.390	0.020	54.240	-1.200	0.300																			1580017555.0	6.68	12.37
26/01/2020 05:45:56	26012020	260120	054556	54.190	12.638652	-57.342692	54.210	-0.260	0.160	-0.080	54.180	-1.000	0.400																			1580017556.0	6.75	12.50
26/01/2020 05:45:57	26012020	260120	054557	54.210	12.638673	-57.342665	54.300	-0.240	-0.280	-0.120	54.220	-1.200	0.300																			1580017557.0	7.09	13.13
26/01/2020 05:45:58	26012020	260120	054558	54.300	12.638695	-57.342638	54.380	-0.030	-0.660	0.050	54.320	-1.600	0.200																			1580017558.0	7.40	13.70
26/01/2020 05:45:59	26012020	260120	054559	54.380	12.638717	-57.342610	54.360	0.200	-0.850	0.290	54.390	-2.000	0.400																			1580017559.0	7.51	13.91
26/01/2020 05:46:00	26012020	260120	054600	54.380	12.638735	-57.342580	54.220	0.310	-0.720	0.420	54.370	-2.200	0.600	1014.40	25.70	25.80	20.50	20.50	0.00	72.00	72.00	435.00	25.60	23.00	10.30	88.00	7.10	15	3157.00	27.40	27.40	1580017560.0	7.50	13.89
26/01/2020 05:46:01	26012020	260120	054601	54.270	12.638753	-57.342550	54.000	0.260	-0.190	0.470	54.230	-2.100	0.800																			1580017561.0	7.40	13.70
26/01/2020 05:46:02	26012020	260120	054602	54.050	12.638772	-57.342522	53.840	0.130	0.470	0.260	54.010	-1.600	0.800																			1580017562.0	7.10	13.15
26/01/2020 05:46:03	26012020	260120	054603	53.870	12.638790	-57.342497	53.870	0.040	0.690	-0.330	53.860	-1.000	0.700																			1580017563.0	6.72	12.45
26/01/2020 05:46:04	26012020	260120	054604	53.880	12.638812	-57.342473	54.030	0.030	0.300	-1.040	53.900	-0.700	0.100																			1580017564.0	6.75	12.50
26/01/2020 05:46:05	26012020	260120	054605	54.030	12.638837	-57.342450	54.110	-0.010	-0.220	-1.390	54.060	-1.000	-0.600																			1580017565.0	7.32	13.56
26/01/2020 05:46:06	26012020	260120	054606	54.160	12.638862	-57.342423	54.030	-0.160	-0.430	-1.210	54.160	-1.600	-1.000																			1580017566.0	7.72	14.30
26/01/2020 05:46:07	26012020	260120	054607	54.110	12.638883	-57.342395	53.900	-0.270	-0.410	-0.720	54.080	-1.800	-0.600																			1580017567.0	7.48	13.85
26/01/2020 05:46:08	26012020	260120	054608	53.960	12.638902	-57.342368	53.880	-0.170	-0.440	-0.200	53.940	-1.800	-0.400																			1580017568.0	7.03	13.02
26/01/2020 05:46:09	26012020	260120	054609	53.910	12.638920	-57.342340	53.900	0.070	-0.470	0.280	53.900	-1.800	0.100																			1580017569.0	7.00	12.96
26/01/2020 05:46:10	26012020	260120	054610	53.920	12.638937	-57.342312	53.880	0.170	-0.370	0.650	53.920	-1.900	0.600																			1580017570.0	7.23	13.39
26/01/2020 05:46:11	26012020	260120	054611	53.900	12.638955	-57.342282	53.780	0.040	-0.130	0.840	53.890	-1.800	1.000																			1580017571.0	7.27	13.46
26/01/2020 05:46:12	26012020	260120	054612	53.820	12.638973	-57.342253	53.600	-0.120	0.050	0.870	53.780	-1.500	1.200																			1580017572.0	7.10	13.15
26/01/2020 05:46:13	26012020	260120	054613	53.640	12.638992	-57.342227	53.470	-0.110	-0.020	0.640	53.600	-1.300	1.200																			1580017573.0	7.00	12.96
26/01/2020 05:46:14	26012020	260120	054614	53.500	12.639012	-57.342200	53.460	0.060	-0.200	0.210	53.490	-1.400	1.000																			1580017574.0	7.15	13.24
26/01/2020 05:46:15	26012020	260120	054615	53.480	12.639035	-57.342173	53.440	0.160	-0.190	-0.240	53.480	-1.600	0.600																			1580017575.0	7.44	13.78
26/01/2020 05:46:16	26012020	260120	054616	53.480	12.639057	-57.342147	53.400	0.110	-0.030	-0.710	53.470	-1.600	0.200																			1580017576.0	7.42	13.74
26/01/2020 05:46:17	26012020	260120	054617	53.450	12.639080	-57.342122	53.390	0.010	0.070	-1.070	53.450	-1.400	-0.300																			1580017577.0	7.14	13.22
26/01/2020 05:46:18	26012020	260120	054618	53.450	12.639102	-57.342097	53.330	-0.040	0.050	-1.070	53.450	-1.300	-0.700																			1580017578.0	7.05	13.06
26/01/2020 05:46:19	26012020	260120	054619	53.400	12.639123	-57.342072	53.180	-0.030	-0.120	-0.790	53.380	-1.400	-0.600																			1580017579.0	7.08	13.11
26/01/2020 05:46:20	26012020	260120	054620	53.270	12.639143	-57.342045	53.120	0.000	-0.380	-0.440	53.240	-1.500	-0.500																			1580017580.0	7.16	13.26
26/01/2020 05:46:21	26012020	260120	054621	53.170	12.639163	-57.342017	53.130	0.020	-0.550	0.020	53.160	-1.700	-0.100																			1580017581.0	7.31	13.54
26/01/2020 05:46:22	26012020	260120	054622	53.160	12.639183	-57.341988	53.230	0.030	-0.540	0.460	53.170	-1.900	0.300																			1580017582.0	7.38	13.67
26/01/2020 05:46:23	26012020	260120	054623	53.230	12.639203	-57.341960	53.300	0.080	-0.440	0.810	53.260	-1.900	0.800																			1580017583.0	7.26	13.45
26/01/2020 05:46:24	26012020	260120	054624	53.320	12.639222	-57.341932	53.220	0.130	-0.260	1.180	53.320	-1.800	1.100																			1580017584.0	7.23	13.39
26/01/2020 05:46:25	26012020	260120	054625	53.250	12.639240	-57.341903	53.120	0.060	0.010	1.300	53.230	-1.700	1.500																			1580017585.0	7.27	13.46
26/01/2020 05:46:26	26012020	260120	054626	53.150	12.639258	-57.341875	53.130	-0.170	0.330	1.030	53.140	-1.400	1.700																			1580017586.0	7.23	13.39
26/01/2020 05:46:27	26012020	260120	054627	53.140	12.639278	-57.341848	53.240	-0.380	0.500	0.360	53.160	-1.100	1.400																			1580017587.0	7.06	13.08
26/01/2020 05:46:28	26012020	260120	054628	53.250	12.639300	-57.341823	53.360	-0.350	0.300	-0.420	53.280	-0.900	0.800																			1580017588.0	6.91	12.80
26/01/2020 05:46:29	26012020	260120	054629	53.400	12.639322	-57.341800	53.350	-0.020	-0.250	-0.970	53.430	-1.400	-0.400																			1580017589.0	7.06	13.08
26/01/2020 05:46:30	26012020	260120	054630	53.440	12.639347	-57.341773	53.130	0.350	-0.790	-1.210	53.430	-1.600	-0.600																			1580017590.0	7.43	13.76
26/01/2020 05:46:31	26012020	260120	054631	53.270	12.639370	-57.341747	52.960	0.460	-0.950	-1.280	53.220	-2.100	-0.800																			1580017591.0	7.72	14.30
26/01/2020 05:46:32	26012020	260120	054632	53.060	12.639393	-57.341720	53.040	0.270	-0.660	-1.230	53.040	-2.300	-0.900																			1580017592.0	7.61	14.09
26/01/2020 05:46:33	26012020	260120	054633	53.080	12.639415	-57.341693	53.240	-0.050	-0.060	-0.980	53.110	-1.700	-0.800																			1580017593.0	7.26	13.45
26/01/2020 05:46:34	26012020	260120	054634	53.280	12.639437	-57.341668	53.360	-0.320	0.500	-0.370	53.310	-1.500	-0.700																			1580017594.0	6.90	12.78
26/01/2020 05:46:35	26012020	260120	054635	53.400	12.639453	-57.341642	53.390	-0.420	0.550	0.450	53.400	-0.900	-0.100																			1580017595.0	6.69	12.39
26/01/2020 05:46:36	26012020	260120	054636	53.420	12.639470	-57.341613	53.430	-0.290	0.020	1.090	53.420	-0.800	0.700																			1580017596.0	6.88	12.74
26/01/2020 05:46:37	26012020	260120	054637	53.440	12.639487	-57.341583	53.430	-0.030	-0.590	1.420	53.450	-1.300	1.400																			1580017597.0	7.47	13.83
26/01/2020 05:46:38	26012020	260120	054638	53.450	12.639505	-57.341552	53.350	0.220	-0.800	1.500	53.440	-1.900	1.700																			1580017598.0	7.87	14.58
26/01/2020 05:46:39	26012020	260120	054639	53.380	12.639525	-57.341522	53.270	0.340	-0.560	1.250	53.360	-2.200	1.900																			1580017599.0	7.70	14.26
26/01/2020 05:46:40	26012020	260120	054640	53.290	12.639547	-57.341493	53.240	0.270	-0.050	0.650	53.280	-2.000	1.700																			1580017600.0	7.30	13.52
26/01/2020 05:46:41	26012020	260120	054641	53.270	12.639568	-57.341470	53.190	0.070	0.390	-0.070	53.270	-1.500	1.100																			1580017601.0	6.98	12.93
26/01/2020 05:46:42	26012020	260120	054642	53.260	12.639592	-57.341447	53.080	-0.160	0.380	-0.710	53.240	-1.000	0.400																			1580017602.0	6.83	12.65
26/01/2020 05:46:43	26012020	260120	054643	53.170	12.639613	-57.341423	53.030	-0.320	-0.040	-1.240	53.150	-1.000	-0.300																			1580017603.0	7.02	13.00
26/01/2020 05:46:44	26012020	260120	054644	53.110	12.639638	-57.341398	53.090	-0.290	-0.470	-1.590	53.120	-1.400	-0.800																			1580017604.0	7.44	13.78
26/01/2020 05:46:45	26012020	260120	054645	53.160	12.639662	-57.341372	53.200	-0.090	-0.640	-1.620	53.180	-1.800	-1.200																			1580017605.0	7.65	14.17
26/01/2020 05:46:46	26012020	260120	054646	53.270	12.639685	-57.341343	53.270	0.110	-0.460	-1.220	53.290	-2.000	-1.300																			1580017606.0	7.52	13.93
26/01/2020 05:46:47	26012020	260120	054647	53.350	12.639705	-57.341317	53.190	0.120	-0.090	-0.480	53.350	-1.900	-0.900																			1580017607.0	7.29	13.50
26/01/2020 05:46:48	26012020	260120	054648	53.290	12.639722	-57.341288	53.000	-0.020	0.120	0.260	53.260	-1.500	-0.200																			1580017608.0	6.99	12.95
26/01/2020 05:46:49	26012020	260120	054649	53.090	12.639737	-57.341260	52.860	-0.100	0.040	0.790	53.050	-1.300	0.500																			1580017609.0	6.94	12.85
26/01/2020 05:46:50	26012020	260120	054650	52.920	12.639755	-57.341232	52.890	0.020	-0.310	1.030	52.900	-1.300	1.100																			1580017610.0	7.16	13.26
26/01/2020 05:46:51	26012020	260120	054651	52.900	12.639777	-57.341202	53.020	0.300	-0.670	0.930	52.920	-1.600	1.400																			1580017611.0	7.46	13.82
26/01/2020 05:46:52	26012020	260120	054652	53.040	12.639798	-57.341173	53.100	0.460	-0.540	0.740	53.060	-2.000	1.300																			1580017612.0	7.76	14.37
26/01/2020 05:46:53	26012020	260120	054653	53.130	12.639822	-57.341147	53.040	0.180	0.180	0.660	53.140	-2.000	1.100																			1580017613.0	7.67	14.20
26/01/2020 05:46:54	26012020	260120	054654	53.110	12.639842	-57.341120	52.860	-0.440	0.830	0.590	53.090	-1.300	1.000																			1580017614.0	6.98	12.93
26/01/2020 05:46:55	26012020	260120	054655	52.950	12.639860	-57.341095	52.740	-0.880	0.730	0.200	52.920	-0.600	1.000																			1580017615.0	6.41	11.87
26/01/2020 05:46:56	26012020	260120	054656	52.810	12.639880	-57.341072	52.790	-0.670	-0.140	-0.460	52.800	-0.600	0.600																			1580017616.0	6.59	12.20
26/01/2020 05:46:57	26012020	260120	054657	52.840	12.639903	-57.341047	52.880	0.050	-1.090	-1.040	52.860	-2.100	-0.400																			1580017617.0	7.42	13.74
26/01/2020 05:46:58	26012020	260120	054658	52.950	12.639928	-57.341018	52.880	0.710	-1.390	-1.230	52.970	-2.400	-0.600																			1580017618.0	8.09	14.98
26/01/2020 05:46:59	26012020	260120	054659	52.980	12.639953	-57.340990	52.720	0.860	-0.840	-1.070	52.960	-2.800	-0.900																			1580017619.0	7.99	14.80
26/01/2020 05:47:00	26012020	260120	054700	52.840	12.639975	-57.340963	52.560	0.460	0.080	-0.770	52.800	-2.300	-0.700	1014.40	25.70	25.80	20.40	20.50	0.00	72.00	72.00	435.00	25.60	22.00	10.30	87.00	7.00	15	3226.00	27.40	27.40	1580017620.0	7.30	13.52
26/01/2020 05:47:01	26012020	260120	054701	52.660	12.639993	-57.340938	52.560	-0.090	0.660	-0.460	52.630	-1.400	-0.400																			1580017621.0	6.56	12.15
26/01/2020 05:47:02	26012020	260120	054702	52.610	12.640012	-57.340915	52.660	-0.430	0.590	-0.120	52.620	-0.800	-0.100																			1580017622.0	6.45	11.95
26/01/2020 05:47:03	26012020	260120	054703	52.700	12.640032	-57.340888	52.770	-0.480	0.170	0.190	52.720	-0.800	0.200																			1580017623.0	6.97	12.91
26/01/2020 05:47:04	26012020	260120	054704	52.800	12.640052	-57.340860	52.850	-0.370	-0.220	0.510	52.820	-1.200	0.500																			1580017624.0	7.48	13.85
26/01/2020 05:47:05	26012020	260120	054705	52.880	12.640072	-57.340830	52.850	-0.240	-0.380	0.930	52.890	-1.600	0.800																			1580017625.0	7.59	14.06
26/01/2020 05:47:06	26012020	260120	054706	52.890	12.640092	-57.340802	52.750	-0.150	-0.390	1.170	52.880	-1.800	1.200																			1580017626.0	7.42	13.74
26/01/2020 05:47:07	26012020	260120	054707	52.800	12.640110	-57.340773	52.660	0.020	-0.440	0.950	52.780	-1.800	1.500																			1580017627.0	7.16	13.26
26/01/2020 05:47:08	26012020	260120	054708	52.710	12.640130	-57.340745	52.620	0.310	-0.510	0.420	52.700	-1.800	1.300																			1580017628.0	7.09	13.13
26/01/2020 05:47:09	26012020	260120	054709	52.670	12.640152	-57.340720	52.580	0.520	-0.350	-0.170	52.670	-1.900	0.500																			1580017629.0	7.29	13.50
26/01/2020 05:47:10	26012020	260120	054710	52.640	12.640177	-57.340695	52.490	0.440	0.020	-0.730	52.630	-1.800	0.200																			1580017630.0	7.37	13.65
26/01/2020 05:47:11	26012020	260120	054711	52.580	12.640200	-57.340672	52.460	0.150	0.230	-1.220	52.560	-1.400	-0.300																			1580017631.0	7.12	13.19
26/01/2020 05:47:12	26012020	260120	054712	52.540	12.640225	-57.340650	52.620	-0.110	0.100	-1.490	52.540	-1.200	-0.800																			1580017632.0	6.99	12.95
26/01/2020 05:47:13	26012020	260120	054713	52.660	12.640248	-57.340627	52.890	-0.250	-0.180	-1.420	52.710	-1.300	-1.100																			1580017633.0	7.21	13.35
26/01/2020 05:47:14	26012020	260120	054714	52.930	12.640270	-57.340600	53.120	-0.310	-0.350	-0.960	52.980	-1.500	-1.100																			1580017634.0	7.43	13.76
26/01/2020 05:47:15	26012020	260120	054715	53.160	12.640290	-57.340570	53.110	-0.310	-0.290	-0.200	53.190	-1.700	-0.700																			1580017635.0	7.47	13.83
26/01/2020 05:47:16	26012020	260120	054716	53.190	12.640307	-57.340540	52.950	-0.250	-0.120	0.600	53.170	-1.700	0.100																			1580017636.0	7.32	13.56
26/01/2020 05:47:17	26012020	260120	054717	53.020	12.640323	-57.340510	52.800	-0.130	-0.030	1.100	52.980	-1.500	0.900																			1580017637.0	7.11	13.17
26/01/2020 05:47:18	26012020	260120	054718	52.840	12.640338	-57.340482	52.710	0.030	-0.070	1.190	52.820	-1.400	1.400																			1580017638.0	7.05	13.06
26/01/2020 05:47:19	26012020	260120	054719	52.730	12.640358	-57.340453	52.740	0.220	-0.230	0.790	52.720	-1.400	1.600																			1580017639.0	7.12	13.19
26/01/2020 05:47:20	26012020	260120	054720	52.750	12.640382	-57.340428	52.900	0.440	-0.510	0.090	52.770	-1.600	1.200																			1580017640.0	7.26	13.45
26/01/2020 05:47:21	26012020	260120	054721	52.900	12.640407	-57.340403	53.070	0.540	-0.670	-0.560	52.940	-2.000	0.100																			1580017641.0	7.52	13.93
26/01/2020 05:47:22	26012020	260120	054722	53.090	12.640433	-57.340378	53.140	0.360	-0.320	-0.880	53.120	-2.100	-0.100																			1580017642.0	7.73	14.32
26/01/2020 05:47:23	26012020	260120	054723	53.190	12.640458	-57.340355	53.100	-0.070	0.390	-0.770	53.190	-1.300	-0.500																			1580017643.0	7.46	13.82
26/01/2020 05:47:24	26012020	260120	054724	53.160	12.640478	-57.340330	53.120	-0.470	0.740	-0.500	53.150	-1.100	-0.400																			1580017644.0	6.73	12.46
26/01/2020 05:47:25	26012020	260120	054725	53.140	12.640495	-57.340305	53.270	-0.590	0.320	-0.280	53.150	-0.700	-0.200																			1580017645.0	6.47	11.98
26/01/2020 05:47:26	26012020	260120	054726	53.270	12.640513	-57.340278	53.360	-0.420	-0.480	-0.090	53.310	-1.000	0.000																			1580017646.0	7.00	12.96
26/01/2020 05:47:27	26012020	260120	054727	53.390	12.640535	-57.340248	53.360	-0.110	-1.000	0.100	53.400	-1.800	0.200																			1580017647.0	7.72	14.30
26/01/2020 05:47:28	26012020	260120	054728	53.400	12.640555	-57.340217	53.310	0.160	-0.780	0.360	53.390	-2.400	0.400																			1580017648.0	7.91	14.65
26/01/2020 05:47:29	26012020	260120	054729	53.360	12.640577	-57.340188	53.290	0.310	-0.210	0.500	53.340	-2.200	0.700																			1580017649.0	7.42	13.74
26/01/2020 05:47:30	26012020	260120	054730	53.310	12.640595	-57.340163	53.330	0.360	0.090	0.340	53.310	-1.700	0.900																			1580017650.0	6.76	12.52
26/01/2020 05:47:31	26012020	260120	054731	53.340	12.640613	-57.340138	53.350	0.290	0.100	-0.020	53.360	-1.300	0.700																			1580017651.0	6.74	12.48
26/01/2020 05:47:32	26012020	260120	054732	53.380	12.640637	-57.340112	53.310	0.040	0.120	-0.340	53.390	-1.300	0.400																			1580017652.0	7.20	13.33
26/01/2020 05:47:33	26012020	260120	054733	53.360	12.640660	-57.340087	53.310	-0.220	0.100	-0.610	53.360	-1.300	0.100																			1580017653.0	7.33	13.58
26/01/2020 05:47:34	26012020	260120	054734	53.340	12.640682	-57.340062	53.440	-0.230	-0.100	-0.920	53.350	-1.300	-0.200																			1580017654.0	7.17	13.28
26/01/2020 05:47:35	26012020	260120	054735	53.450	12.640705	-57.340037	53.620	0.000	-0.370	-1.050	53.490	-1.500	-0.500																			1580017655.0	7.23	13.39
26/01/2020 05:47:36	26012020	260120	054736	53.640	12.640728	-57.340010	53.710	0.220	-0.520	-0.850	53.670	-1.700	-0.700																			1580017656.0	7.42	13.74
26/01/2020 05:47:37	26012020	260120	054737	53.760	12.640748	-57.339983	53.680	0.240	-0.470	-0.410	53.760	-1.900	-0.500																			1580017657.0	7.43	13.76
26/01/2020 05:47:38	26012020	260120	054738	53.730	12.640767	-57.339953	53.630	0.020	-0.180	0.110	53.720	-1.900	-0.100																			1580017658.0	7.33	13.58
26/01/2020 05:47:39	26012020	260120	054739	53.660	12.640785	-57.339925	53.570	-0.290	0.200	0.510	53.650	-1.600	0.400																			1580017659.0	7.12	13.19
26/01/2020 05:47:40	26012020	260120	054740	53.600	12.640803	-57.339898	53.540	-0.450	0.290	0.710	53.580	-1.200	0.800																			1580017660.0	6.86	12.70
26/01/2020 05:47:41	26012020	260120	054741	53.550	12.640822	-57.339872	53.620	-0.290	-0.070	0.610	53.550	-1.100	1.100																			1580017661.0	6.82	12.63
26/01/2020 05:47:42	26012020	260120	054742	53.610	12.640842	-57.339845	53.760	0.080	-0.540	0.260	53.640	-1.400	1.000																			1580017662.0	7.23	13.39
26/01/2020 05:47:43	26012020	260120	054743	53.760	12.640865	-57.339817	53.780	0.370	-0.680	-0.040	53.780	-1.900	0.700																			1580017663.0	7.67	14.20
26/01/2020 05:47:44	26012020	260120	054744	53.830	12.640888	-57.339790	53.710	0.380	-0.360	-0.260	53.820	-2.100	0.400																			1580017664.0	7.65	14.17
26/01/2020 05:47:45	26012020	260120	054745	53.770	12.640910	-57.339763	53.690	0.130	0.150	-0.480	53.760	-1.800	0.100																			1580017665.0	7.27	13.46
26/01/2020 05:47:46	26012020	260120	054746	53.740	12.640930	-57.339738	53.790	-0.130	0.350	-0.680	53.750	-1.300	-0.100																			1580017666.0	6.82	12.63
26/01/2020 05:47:47	26012020	260120	054747	53.820	12.640952	-57.339715	53.980	-0.170	0.030	-0.810	53.860	-1.000	-0.300																			1580017667.0	6.75	12.50
26/01/2020 05:47:48	26012020	260120	054748	54.020	12.640973	-57.339690	54.080	-0.030	-0.370	-0.730	54.050	-1.300	-0.400																			1580017668.0	7.20	13.33
26/01/2020 05:47:49	26012020	260120	054749	54.140	12.640995	-57.339660	54.040	0.050	-0.460	-0.440	54.150	-1.700	-0.400																			1580017669.0	7.63	14.13
26/01/2020 05:47:50	26012020	260120	054750	54.100	12.641015	-57.339632	53.980	-0.010	-0.290	-0.110	54.090	-1.900	-0.100																			1580017670.0	7.52	13.93
26/01/2020 05:47:51	26012020	260120	054751	54.020	12.641033	-57.339603	54.010	-0.080	-0.150	0.070	54.010	-1.700	0.200																			1580017671.0	7.14	13.22
26/01/2020 05:47:52	26012020	260120	054752	54.030	12.641053	-57.339577	54.130	-0.000	-0.130	0.070	54.040	-1.600	0.400																			1580017672.0	7.01	12.98
26/01/2020 05:47:53	26012020	260120	054753	54.130	12.641073	-57.339550	54.210	0.180	-0.160	0.070	54.150	-1.500	0.400																			1580017673.0	7.14	13.22
26/01/2020 05:47:54	26012020	260120	054754	54.220	12.641093	-57.339522	54.200	0.250	-0.190	0.130	54.230	-1.600	0.400																			1580017674.0	7.28	13.48
26/01/2020 05:47:55	26012020	260120	054755	54.220	12.641113	-57.339495	54.140	0.110	-0.170	0.130	54.210	-1.600	0.500																			1580017675.0	7.34	13.59
26/01/2020 05:47:56	26012020	260120	054756	54.170	12.641135	-57.339467	54.170	-0.180	-0.110	0.020	54.170	-1.600	0.500																			1580017676.0	7.29	13.50
26/01/2020 05:47:57	26012020	260120	054757	54.180	12.641155	-57.339440	54.250	-0.390	-0.050	-0.140	54.200	-1.500	0.400																			1580017677.0	7.23	13.39
26/01/2020 05:47:58	26012020	260120	054758	54.250	12.641177	-57.339415	54.300	-0.350	-0.020	-0.290	54.270	-1.500	0.200																			1580017678.0	7.16	13.26
26/01/2020 05:47:59	26012020	260120	054759	54.320	12.641198	-57.339388	54.340	-0.140	-0.020	-0.360	54.320	-1.400	0.000																			1580017679.0	7.17	13.28
26/01/2020 05:48:00	26012020	260120	054800	54.350	12.641218	-57.339360	54.390	0.080	-0.130	-0.350	54.360	-1.400	0.000	1014.40	25.80	25.80	20.60	20.60	-1.00	73.00	73.00	435.00	25.60	25.00	10.20	91.00	7.00	15	3165.00	27.40	27.40	1580017680.0	7.16	13.26
26/01/2020 05:48:01	26012020	260120	054801	54.390	12.641237	-57.339333	54.440	0.230	-0.360	-0.350	54.400	-1.500	0.000																			1580017681.0	7.18	13.30
26/01/2020 05:48:02	26012020	260120	054802	54.450	12.641257	-57.339305	54.390	0.290	-0.500	-0.450	54.450	-1.700	0.000																			1580017682.0	7.34	13.59
26/01/2020 05:48:03	26012020	260120	054803	54.430	12.641278	-57.339277	54.290	0.290	-0.380	-0.500	54.400	-1.900	-0.100																			1580017683.0	7.46	13.82
26/01/2020 05:48:04	26012020	260120	054804	54.330	12.641300	-57.339252	54.290	0.230	-0.180	-0.400	54.320	-1.800	-0.100																			1580017684.0	7.34	13.59
26/01/2020 05:48:05	26012020	260120	054805	54.310	12.641322	-57.339225	54.390	0.080	-0.050	-0.250	54.320	-1.600	-0.000																			1580017685.0	7.13	13.20
26/01/2020 05:48:06	26012020	260120	054806	54.390	12.641342	-57.339198	54.430	-0.080	-0.030	-0.060	54.420	-1.500	0.100																			1580017686.0	7.11	13.17
26/01/2020 05:48:07	26012020	260120	054807	54.450	12.641362	-57.339170	54.320	-0.190	-0.050	0.330	54.450	-1.400	0.300																			1580017687.0	7.20	13.33
26/01/2020 05:48:08	26012020	260120	054808	54.360	12.641380	-57.339142	54.240	-0.210	-0.190	0.590	54.330	-1.400	0.700																			1580017688.0	7.29	13.50
26/01/2020 05:48:09	26012020	260120	054809	54.260	12.641398	-57.339112	54.310	-0.130	-0.360	0.430	54.250	-1.600	0.900																			1580017689.0	7.36	13.63
26/01/2020 05:48:10	26012020	260120	054810	54.310	12.641418	-57.339083	54.330	-0.080	-0.160	0.180	54.330	-1.800	0.800																			1580017690.0	7.51	13.91
26/01/2020 05:48:11	26012020	260120	054811	54.370	12.641438	-57.339055	54.250	-0.150	0.290	-0.080	54.370	-1.600	0.600																			1580017691.0	7.40	13.70
26/01/2020 05:48:12	26012020	260120	054812	54.310	12.641460	-57.339030	54.200	-0.220	0.330	-0.520	54.290	-1.100	0.300																			1580017692.0	6.89	12.76
26/01/2020 05:48:13	26012020	260120	054813	54.250	12.641480	-57.339007	54.290	-0.070	-0.250	-0.960	54.260	-1.300	-0.400																			1580017693.0	6.78	12.56
26/01/2020 05:48:14	26012020	260120	054814	54.330	12.641503	-57.338980	54.400	0.200	-0.800	-1.140	54.350	-1.600	-0.600																			1580017694.0	7.39	13.69
26/01/2020 05:48:15	26012020	260120	054815	54.450	12.641528	-57.338952	54.360	0.340	-0.830	-0.990	54.470	-2.200	-0.800																			1580017695.0	7.87	14.58
26/01/2020 05:48:16	26012020	260120	054816	54.440	12.641550	-57.338923	54.110	0.260	-0.400	-0.520	54.420	-2.200	-0.700																			1580017696.0	7.65	14.17
26/01/2020 05:48:17	26012020	260120	054817	54.220	12.641568	-57.338895	53.930	0.060	0.070	-0.010	54.160	-1.800	-0.200																			1580017697.0	7.15	13.24
26/01/2020 05:48:18	26012020	260120	054818	53.980	12.641585	-57.338868	53.980	-0.080	0.210	0.190	53.950	-1.400	0.300																			1580017698.0	6.88	12.74
26/01/2020 05:48:19	26012020	260120	054819	53.980	12.641603	-57.338840	54.130	-0.110	0.090	0.140	54.010	-1.200	0.500																			1580017699.0	7.02	13.00
26/01/2020 05:48:20	26012020	260120	054820	54.140	12.641623	-57.338812	54.190	-0.110	0.040	0.110	54.170	-1.300	0.500																			1580017700.0	7.34	13.59
26/01/2020 05:48:21	26012020	260120	054821	54.230	12.641645	-57.338785	54.190	-0.090	0.050	0.120	54.230	-1.400	0.500																			1580017701.0	7.43	13.76
26/01/2020 05:48:22	26012020	260120	054822	54.230	12.641665	-57.338758	54.140	0.010	-0.140	0.140	54.220	-1.300	0.500																			1580017702.0	7.21	13.35
26/01/2020 05:48:23	26012020	260120	054823	54.190	12.641685	-57.338730	54.060	0.190	-0.520	0.120	54.180	-1.500	0.500																			1580017703.0	7.16	13.26
26/01/2020 05:48:24	26012020	260120	054824	54.110	12.641707	-57.338702	53.990	0.260	-0.700	0.010	54.090	-1.900	0.500																			1580017704.0	7.49	13.87
26/01/2020 05:48:25	26012020	260120	054825	54.030	12.641728	-57.338673	53.990	0.090	-0.400	-0.140	54.030	-2.100	0.400																			1580017705.0	7.63	14.13
26/01/2020 05:48:26	26012020	260120	054826	54.030	12.641750	-57.338647	53.980	-0.220	0.150	-0.270	54.030	-1.900	0.200																			1580017706.0	7.35	13.61
26/01/2020 05:48:27	26012020	260120	054827	54.030	12.641770	-57.338622	53.950	-0.410	0.470	-0.400	54.020	-1.300	0.100																			1580017707.0	6.88	12.74
26/01/2020 05:48:28	26012020	260120	054828	53.990	12.641790	-57.338597	53.960	-0.280	0.140	-0.470	53.990	-0.900	-0.000																			1580017708.0	6.69	12.39
26/01/2020 05:48:29	26012020	260120	054829	54.000	12.641810	-57.338570	53.890	0.050	-0.570	-0.450	54.000	-1.200	-0.100																			1580017709.0	7.09	13.13
26/01/2020 05:48:30	26012020	260120	054830	53.970	12.641832	-57.338540	53.720	0.280	-0.950	-0.340	53.950	-1.900	-0.100																			1580017710.0	7.81	14.46
26/01/2020 05:48:31	26012020	260120	054831	53.820	12.641853	-57.338510	53.510	0.260	-0.630	-0.190	53.770	-2.300	0.000																			1580017711.0	7.99	14.80
26/01/2020 05:48:32	26012020	260120	054832	53.600	12.641873	-57.338482	53.500	0.090	0.010	-0.180	53.560	-2.100	0.200																			1580017712.0	7.47	13.83
26/01/2020 05:48:33	26012020	260120	054833	53.530	12.641893	-57.338457	53.650	-0.070	0.440	-0.280	53.540	-1.400	0.200																			1580017713.0	6.86	12.70
26/01/2020 05:48:34	26012020	260120	054834	53.660	12.641913	-57.338432	53.730	-0.140	0.510	-0.320	53.690	-1.000	0.100																			1580017714.0	6.79	12.58
26/01/2020 05:48:35	26012020	260120	054835	53.770	12.641933	-57.338405	53.680	-0.090	0.260	-0.290	53.780	-0.900	0.000																			1580017715.0	7.04	13.04
26/01/2020 05:48:36	26012020	260120	054836	53.760	12.641953	-57.338378	53.540	0.080	-0.280	-0.140	53.740	-1.100	0.100																			1580017716.0	7.26	13.45
26/01/2020 05:48:37	26012020	260120	054837	53.620	12.641975	-57.338350	53.460	0.280	-0.790	0.060	53.600	-2.000	0.300																			1580017717.0	7.51	13.91
26/01/2020 05:48:38	26012020	260120	054838	53.500	12.641997	-57.338320	53.520	0.360	-0.890	0.170	53.500	-2.200	0.400																			1580017718.0	7.74	14.33
26/01/2020 05:48:39	26012020	260120	054839	53.540	12.642018	-57.338292	53.550	0.230	-0.510	0.230	53.560	-2.300	0.500																			1580017719.0	7.61	14.09
26/01/2020 05:48:40	26012020	260120	054840	53.600	12.642038	-57.338265	53.430	-0.120	0.130	0.360	53.600	-2.000	0.600																			1580017720.0	7.23	13.39
26/01/2020 05:48:41	26012020	260120	054841	53.500	12.642057	-57.338238	53.260	-0.510	0.570	0.460	53.470	-1.300	0.700																			1580017721.0	6.83	12.65
26/01/2020 05:48:42	26012020	260120	054842	53.310	12.642077	-57.338213	53.300	-0.610	0.310	0.270	53.290	-0.900	0.800																			1580017722.0	6.67	12.35
26/01/2020 05:48:43	26012020	260120	054843	53.310	12.642097	-57.338187	53.460	-0.280	-0.400	-0.060	53.330	-1.000	0.700																			1580017723.0	7.03	13.02
26/01/2020 05:48:44	26012020	260120	054844	53.470	12.642118	-57.338158	53.510	0.210	-0.780	-0.290	53.500	-1.700	0.300																			1580017724.0	7.79	14.43
26/01/2020 05:48:45	26012020	260120	054845	53.550	12.642142	-57.338128	53.420	0.440	-0.590	-0.420	53.550	-2.200	0.100																			1580017725.0	7.98	14.78
26/01/2020 05:48:46	26012020	260120	054846	53.500	12.642163	-57.338100	53.300	0.300	-0.120	-0.500	53.480	-2.000	-0.000																			1580017726.0	7.47	13.83
26/01/2020 05:48:47	26012020	260120	054847	53.380	12.642182	-57.338073	53.280	0.050	0.250	-0.670	53.370	-1.600	-0.100																			1580017727.0	6.98	12.93
26/01/2020 05:48:48	26012020	260120	054848	53.350	12.642203	-57.338050	53.290	-0.050	0.290	-0.880	53.350	-1.200	-0.300																			1580017728.0	6.81	12.61
26/01/2020 05:48:49	26012020	260120	054849	53.370	12.642225	-57.338025	53.280	0.030	0.030	-0.960	53.370	-1.200	-0.600																			1580017729.0	7.05	13.06
26/01/2020 05:48:50	26012020	260120	054850	53.360	12.642250	-57.338000	53.330	0.180	-0.370	-0.800	53.360	-1.300	-0.600																			1580017730.0	7.41	13.72
26/01/2020 05:48:51	26012020	260120	054851	53.390	12.642272	-57.337972	53.420	0.200	-0.620	-0.360	53.400	-1.700	-0.500																			1580017731.0	7.61	14.09
26/01/2020 05:48:52	26012020	260120	054852	53.460	12.642293	-57.337943	53.390	-0.010	-0.470	0.250	53.470	-2.000	-0.000																			1580017732.0	7.65	14.17
26/01/2020 05:48:53	26012020	260120	054853	53.450	12.642312	-57.337913	53.300	-0.390	0.020	0.830	53.430	-1.900	0.600																			1580017733.0	7.43	13.76
26/01/2020 05:48:54	26012020	260120	054854	53.340	12.642328	-57.337885	53.220	-0.640	0.360	1.210	53.310	-1.400	1.100																			1580017734.0	6.96	12.89
26/01/2020 05:48:55	26012020	260120	054855	53.240	12.642345	-57.337858	53.230	-0.500	0.100	1.150	53.230	-1.100	1.600																			1580017735.0	6.72	12.45
26/01/2020 05:48:56	26012020	260120	054856	53.240	12.642363	-57.337830	53.330	0.030	-0.580	0.630	53.260	-1.200	1.600																			1580017736.0	7.04	13.04
26/01/2020 05:48:57	26012020	260120	054857	53.350	12.642385	-57.337802	53.340	0.540	-0.860	0.110	53.380	-1.900	1.100																			1580017737.0	7.76	14.37
26/01/2020 05:48:58	26012020	260120	054858	53.400	12.642410	-57.337773	53.210	0.600	-0.350	-0.330	53.390	-2.300	0.500																			1580017738.0	8.07	14.95
26/01/2020 05:48:59	26012020	260120	054859	53.310	12.642433	-57.337747	53.120	0.260	0.350	-0.850	53.280	-1.800	0.100																			1580017739.0	7.38	13.67
26/01/2020 05:49:00	26012020	260120	054900	53.200	12.642455	-57.337725	53.180	-0.030	0.460	-1.330	53.200	-1.100	-0.400	1014.40	25.80	25.80	20.60	20.60	0.00	73.00	73.00	435.00	25.60	25.00	10.20	92.00	7.00	15	3199.00	27.40	27.40	1580017740.0	6.61	12.24
26/01/2020 05:49:01	26012020	260120	054901	53.240	12.642477	-57.337703	53.250	-0.070	-0.010	-1.540	53.260	-1.200	-1.100																			1580017741.0	6.70	12.41
26/01/2020 05:49:02	26012020	260120	054902	53.330	12.642502	-57.337677	53.190	-0.050	-0.420	-1.380	53.340	-1.400	-1.200																			1580017742.0	7.43	13.76
26/01/2020 05:49:03	26012020	260120	054903	53.290	12.642525	-57.337650	53.090	-0.120	-0.470	-0.800	53.270	-1.900	-0.700																			1580017743.0	7.75	14.35
26/01/2020 05:49:04	26012020	260120	054904	53.160	12.642545	-57.337620	53.040	-0.220	-0.360	-0.040	53.150	-1.900	-0.500																			1580017744.0	7.46	13.82
26/01/2020 05:49:05	26012020	260120	054905	53.100	12.642563	-57.337592	53.020	-0.220	-0.280	0.520	53.080	-1.800	0.300																			1580017745.0	7.15	13.24
26/01/2020 05:49:06	26012020	260120	054906	53.050	12.642580	-57.337563	53.110	-0.070	-0.270	0.730	53.050	-1.700	0.900																			1580017746.0	7.15	13.24
26/01/2020 05:49:07	26012020	260120	054907	53.110	12.642598	-57.337533	53.250	0.130	-0.170	0.800	53.150	-1.700	1.100																			1580017747.0	7.27	13.46
26/01/2020 05:49:08	26012020	260120	054908	53.260	12.642618	-57.337507	53.310	0.220	0.020	0.810	53.280	-1.600	1.200																			1580017748.0	7.34	13.59
26/01/2020 05:49:09	26012020	260120	054909	53.330	12.642638	-57.337478	53.350	0.180	0.100	0.610	53.340	-1.400	1.200																			1580017749.0	7.17	13.28
26/01/2020 05:49:10	26012020	260120	054910	53.380	12.642660	-57.337453	53.300	0.020	0.090	0.280	53.390	-1.300	1.000																			1580017750.0	7.12	13.19
26/01/2020 05:49:11	26012020	260120	054911	53.380	12.642682	-57.337427	53.140	-0.190	0.060	-0.020	53.360	-1.300	0.700																			1580017751.0	7.22	13.37
26/01/2020 05:49:12	26012020	260120	054912	53.230	12.642703	-57.337402	53.080	-0.270	-0.140	-0.420	53.190	-1.300	0.400																			1580017752.0	7.19	13.32
26/01/2020 05:49:13	26012020	260120	054913	53.120	12.642727	-57.337377	53.210	-0.110	-0.560	-0.930	53.140	-1.500	0.000																			1580017753.0	7.18	13.30
26/01/2020 05:49:14	26012020	260120	054914	53.250	12.642750	-57.337350	53.320	0.130	-0.730	-1.270	53.280	-1.900	-0.500																			1580017754.0	7.47	13.83
26/01/2020 05:49:15	26012020	260120	054915	53.390	12.642773	-57.337323	53.270	0.250	-0.440	-1.150	53.400	-2.100	-0.900																			1580017755.0	7.65	14.17
26/01/2020 05:49:16	26012020	260120	054916	53.360	12.642795	-57.337297	53.190	0.150	0.040	-0.780	53.340	-1.900	-0.800																			1580017756.0	7.33	13.58
26/01/2020 05:49:17	26012020	260120	054917	53.270	12.642813	-57.337270	53.160	-0.030	0.240	-0.380	53.260	-1.400	-0.400																			1580017757.0	6.88	12.74
26/01/2020 05:49:18	26012020	260120	054918	53.230	12.642832	-57.337243	53.130	-0.110	0.070	-0.010	53.220	-1.200	-0.000																			1580017758.0	6.86	12.70
26/01/2020 05:49:19	26012020	260120	054919	53.200	12.642852	-57.337217	53.190	-0.050	-0.240	0.270	53.190	-1.300	0.300																			1580017759.0	7.20	13.33
26/01/2020 05:49:20	26012020	260120	054920	53.220	12.642872	-57.337187	53.310	0.040	-0.440	0.510	53.250	-1.600	0.600																			1580017760.0	7.52	13.93
26/01/2020 05:49:21	26012020	260120	054921	53.340	12.642893	-57.337158	53.380	0.040	-0.410	0.640	53.360	-1.800	0.900																			1580017761.0	7.59	14.06
26/01/2020 05:49:22	26012020	260120	054922	53.430	12.642913	-57.337130	53.390	-0.010	-0.190	0.670	53.430	-1.800	1.000																			1580017762.0	7.41	13.72
26/01/2020 05:49:23	26012020	260120	054923	53.440	12.642933	-57.337103	53.350	-0.020	0.070	0.610	53.440	-1.600	1.000																			1580017763.0	7.19	13.32
26/01/2020 05:49:24	26012020	260120	054924	53.420	12.642953	-57.337077	53.250	0.010	0.180	0.410	53.410	-1.300	1.000																			1580017764.0	7.03	13.02
26/01/2020 05:49:25	26012020	260120	054925	53.330	12.642973	-57.337050	53.200	0.070	0.030	0.020	53.320	-1.300	0.600																			1580017765.0	7.05	13.06
26/01/2020 05:49:26	26012020	260120	054926	53.270	12.642995	-57.337023	53.260	0.070	-0.220	-0.520	53.280	-1.300	0.400																			1580017766.0	7.24	13.41
26/01/2020 05:49:27	26012020	260120	054927	53.320	12.643018	-57.336998	53.320	-0.050	-0.280	-0.960	53.340	-1.600	-0.100																			1580017767.0	7.50	13.89
26/01/2020 05:49:28	26012020	260120	054928	53.410	12.643043	-57.336973	53.360	-0.210	-0.210	-1.080	53.420	-1.700	-0.600																			1580017768.0	7.46	13.82
26/01/2020 05:49:29	26012020	260120	054929	53.450	12.643067	-57.336948	53.370	-0.300	-0.240	-0.920	53.450	-1.600	-0.700																			1580017769.0	7.18	13.30
26/01/2020 05:49:30	26012020	260120	054930	53.470	12.643087	-57.336922	53.360	-0.260	-0.310	-0.520	53.470	-1.600	-0.600																			1580017770.0	7.13	13.20
26/01/2020 05:49:31	26012020	260120	054931	53.460	12.643105	-57.336893	53.340	-0.110	-0.320	-0.020	53.450	-1.700	-0.200																			1580017771.0	7.29	13.50
26/01/2020 05:49:32	26012020	260120	054932	53.420	12.643123	-57.336863	53.340	0.170	-0.380	0.340	53.420	-1.700	0.300																			1580017772.0	7.31	13.54
26/01/2020 05:49:33	26012020	260120	054933	53.410	12.643142	-57.336833	53.300	0.530	-0.450	0.560	53.410	-1.700	0.700																			1580017773.0	7.31	13.54
26/01/2020 05:49:34	26012020	260120	054934	53.380	12.643162	-57.336805	53.210	0.690	-0.340	0.600	53.370	-1.800	0.900																			1580017774.0	7.49	13.87
26/01/2020 05:49:35	26012020	260120	054935	53.290	12.643183	-57.336777	53.220	0.470	0.020	0.370	53.270	-1.700	1.000																			1580017775.0	7.56	14.00
26/01/2020 05:49:36	26012020	260120	054936	53.270	12.643205	-57.336750	53.330	-0.040	0.480	0.070	53.280	-1.400	0.800																			1580017776.0	7.31	13.54
26/01/2020 05:49:37	26012020	260120	054937	53.370	12.643228	-57.336727	53.440	-0.520	0.680	-0.130	53.400	-0.900	0.500																			1580017777.0	6.97	12.91
26/01/2020 05:49:38	26012020	260120	054938	53.500	12.643248	-57.336703	53.520	-0.680	0.270	-0.260	53.520	-0.700	0.300																			1580017778.0	6.79	12.58
26/01/2020 05:49:39	26012020	260120	054939	53.590	12.643270	-57.336677	53.530	-0.490	-0.500	-0.320	53.600	-1.500	0.100																			1580017779.0	7.10	13.15
26/01/2020 05:49:40	26012020	260120	054940	53.620	12.643292	-57.336648	53.490	-0.130	-0.960	-0.250	53.620	-1.800	0.100																			1580017780.0	7.70	14.26
26/01/2020 05:49:41	26012020	260120	054941	53.590	12.643313	-57.336618	53.430	0.160	-0.830	-0.050	53.580	-2.300	0.100																			1580017781.0	7.85	14.54
26/01/2020 05:49:42	26012020	260120	054942	53.500	12.643333	-57.336588	53.400	0.250	-0.430	0.050	53.490	-2.200	0.300																			1580017782.0	7.41	13.72
26/01/2020 05:49:43	26012020	260120	054943	53.470	12.643352	-57.336562	53.360	0.160	-0.060	-0.060	53.470	-1.800	0.400																			1580017783.0	6.98	12.93
26/01/2020 05:49:44	26012020	260120	054944	53.450	12.643372	-57.336537	53.310	0.010	0.210	-0.170	53.440	-1.500	0.300																			1580017784.0	6.93	12.83
26/01/2020 05:49:45	26012020	260120	054945	53.390	12.643393	-57.336512	53.340	-0.030	0.210	-0.230	53.380	-1.200	0.200																			1580017785.0	7.06	13.08
26/01/2020 05:49:46	26012020	260120	054946	53.380	12.643415	-57.336485	53.490	0.050	-0.120	-0.440	53.390	-1.100	0.200																			1580017786.0	7.15	13.24
26/01/2020 05:49:47	26012020	260120	054947	53.530	12.643437	-57.336458	53.630	0.110	-0.410	-0.570	53.560	-1.500	-0.000																			1580017787.0	7.48	13.85
26/01/2020 05:49:48	26012020	260120	054948	53.680	12.643460	-57.336430	53.660	0.080	-0.340	-0.390	53.700	-1.800	-0.200																			1580017788.0	7.73	14.32
26/01/2020 05:49:49	26012020	260120	054949	53.730	12.643482	-57.336402	53.600	-0.020	-0.010	-0.050	53.730	-1.700	-0.100																			1580017789.0	7.48	13.85
26/01/2020 05:49:50	26012020	260120	054950	53.680	12.643500	-57.336375	53.490	-0.100	0.190	0.270	53.660	-1.400	0.300																			1580017790.0	7.05	13.06
26/01/2020 05:49:51	26012020	260120	054951	53.560	12.643518	-57.336347	53.470	-0.100	-0.030	0.370	53.540	-1.200	0.600																			1580017791.0	6.89	12.76
26/01/2020 05:49:52	26012020	260120	054952	53.510	12.643537	-57.336320	53.520	0.010	-0.450	0.260	53.520	-1.400	0.700																			1580017792.0	7.16	13.26
26/01/2020 05:49:53	26012020	260120	054953	53.560	12.643558	-57.336292	53.540	0.140	-0.560	0.080	53.570	-1.900	0.500																			1580017793.0	7.61	14.09
26/01/2020 05:49:54	26012020	260120	054954	53.600	12.643582	-57.336263	53.550	0.210	-0.260	-0.060	53.610	-1.900	0.500																			1580017794.0	7.66	14.19
26/01/2020 05:49:55	26012020	260120	054955	53.620	12.643603	-57.336238	53.520	0.110	0.150	-0.110	53.620	-1.700	0.300																			1580017795.0	7.24	13.41
26/01/2020 05:49:56	26012020	260120	054956	53.600	12.643623	-57.336212	53.520	-0.120	0.250	-0.210	53.590	-1.300	0.300																			1580017796.0	6.89	12.76
26/01/2020 05:49:57	26012020	260120	054957	53.590	12.643643	-57.336187	53.560	-0.300	-0.080	-0.340	53.590	-1.100	0.200																			1580017797.0	6.89	12.76
26/01/2020 05:49:58	26012020	260120	054958	53.620	12.643665	-57.336160	53.570	-0.260	-0.540	-0.350	53.640	-1.400	0.000																			1580017798.0	7.28	13.48
26/01/2020 05:49:59	26012020	260120	054959	53.650	12.643688	-57.336132	53.600	-0.090	-0.690	-0.250	53.650	-1.900	0.000																			1580017799.0	7.68	14.22
26/01/2020 05:50:00	26012020	260120	055000	53.650	12.643710	-57.336103	53.680	-0.010	-0.400	-0.100	53.660	-2.100	0.100	1014.40	25.70	25.80	20.60	20.60	0.00	73.00	73.00	435.00	25.60	21.00	10.50	85.00	7.10	15	3114.00	27.40	27.40	1580017800.0	7.71	14.28
26/01/2020 05:50:01	26012020	260120	055001	53.710	12.643728	-57.336075	53.780	-0.080	0.090	0.030	53.730	-1.800	0.200																			1580017801.0	7.31	13.54
26/01/2020 05:50:02	26012020	260120	055002	53.820	12.643747	-57.336047	53.760	-0.150	0.360	0.100	53.830	-1.300	0.400																			1580017802.0	6.92	12.82
26/01/2020 05:50:03	26012020	260120	055003	53.830	12.643765	-57.336022	53.610	0.010	0.100	0.110	53.820	-1.000	0.500																			1580017803.0	6.81	12.61
26/01/2020 05:50:04	26012020	260120	055004	53.710	12.643785	-57.335993	53.460	0.330	-0.440	0.070	53.670	-1.200	0.500																			1580017804.0	7.19	13.32
26/01/2020 05:50:05	26012020	260120	055005	53.550	12.643808	-57.335965	53.360	0.490	-0.620	-0.080	53.530	-1.800	0.400																			1580017805.0	7.77	14.39
26/01/2020 05:50:06	26012020	260120	055006	53.440	12.643832	-57.335937	53.470	0.340	-0.260	-0.330	53.430	-2.000	0.300																			1580017806.0	7.87	14.58
26/01/2020 05:50:07	26012020	260120	055007	53.510	12.643855	-57.335912	53.780	0.010	0.210	-0.540	53.550	-1.700	0.100																			1580017807.0	7.32	13.56
26/01/2020 05:50:08	26012020	260120	055008	53.790	12.643877	-57.335888	53.990	-0.290	0.400	-0.530	53.860	-1.200	-0.200																			1580017808.0	6.80	12.59
26/01/2020 05:50:09	26012020	260120	055009	54.040	12.643897	-57.335863	53.950	-0.460	0.170	-0.260	54.060	-1.000	-0.200																			1580017809.0	6.82	12.63
26/01/2020 05:50:10	26012020	260120	055010	54.040	12.643915	-57.335835	53.790	-0.420	-0.310	0.240	54.010	-1.200	0.100																			1580017810.0	7.13	13.20
26/01/2020 05:50:11	26012020	260120	055011	53.880	12.643933	-57.335805	53.650	-0.150	-0.820	0.700	53.850	-1.600	0.500																			1580017811.0	7.48	13.85
26/01/2020 05:50:12	26012020	260120	055012	53.720	12.643952	-57.335773	53.560	0.230	-1.050	0.760	53.700	-2.100	1.000																			1580017812.0	7.70	14.26
26/01/2020 05:50:13	26012020	260120	055013	53.620	12.643972	-57.335743	53.520	0.500	-0.690	0.550	53.610	-2.400	1.100																			1580017813.0	7.73	14.32
26/01/2020 05:50:14	26012020	260120	055014	53.580	12.643993	-57.335715	53.490	0.410	0.080	0.250	53.580	-2.100	0.900																			1580017814.0	7.46	13.82
26/01/2020 05:50:15	26012020	260120	055015	53.560	12.644015	-57.335690	53.500	-0.000	0.730	-0.140	53.560	-1.400	0.700																			1580017815.0	6.94	12.85
26/01/2020 05:50:16	26012020	260120	055016	53.580	12.644035	-57.335667	53.500	-0.440	0.810	-0.590	53.580	-0.700	0.300																			1580017816.0	6.64	12.30
26/01/2020 05:50:17	26012020	260120	055017	53.590	12.644057	-57.335643	53.590	-0.580	0.240	-1.010	53.590	-0.800	-0.500																			1580017817.0	6.83	12.65
26/01/2020 05:50:18	26012020	260120	055018	53.660	12.644080	-57.335618	53.710	-0.340	-0.570	-1.210	53.690	-1.100	-0.600																			1580017818.0	7.36	13.63
26/01/2020 05:50:19	26012020	260120	055019	53.790	12.644103	-57.335590	53.740	0.090	-0.950	-0.990	53.810	-1.900	-0.800																			1580017819.0	7.88	14.59
26/01/2020 05:50:20	26012020	260120	055020	53.830	12.644127	-57.335560	53.630	0.350	-0.670	-0.460	53.830	-2.300	-0.700																			1580017820.0	7.86	14.56
26/01/2020 05:50:21	26012020	260120	055021	53.750	12.644145	-57.335532	53.430	0.320	-0.170	0.120	53.710	-2.100	-0.200																			1580017821.0	7.32	13.56
26/01/2020 05:50:22	26012020	260120	055022	53.530	12.644162	-57.335503	53.290	0.180	-0.010	0.460	53.490	-1.600	0.400																			1580017822.0	6.81	12.61
26/01/2020 05:50:23	26012020	260120	055023	53.370	12.644180	-57.335477	53.370	0.140	-0.180	0.500	53.360	-1.400	0.800																			1580017823.0	6.85	12.69
26/01/2020 05:50:24	26012020	260120	055024	53.410	12.644200	-57.335450	53.550	0.130	-0.250	0.370	53.440	-1.500	0.900																			1580017824.0	7.36	13.63
26/01/2020 05:50:25	26012020	260120	055025	53.580	12.644222	-57.335422	53.670	0.010	-0.070	0.300	53.610	-1.600	0.800																			1580017825.0	7.58	14.04
26/01/2020 05:50:26	26012020	260120	055026	53.720	12.644243	-57.335393	53.660	-0.170	0.150	0.310	53.740	-1.500	0.700																			1580017826.0	7.33	13.58
26/01/2020 05:50:27	26012020	260120	055027	53.740	12.644263	-57.335367	53.520	-0.250	0.190	0.350	53.730	-1.200	0.700																			1580017827.0	7.05	13.06
26/01/2020 05:50:28	26012020	260120	055028	53.620	12.644282	-57.335340	53.290	-0.180	0.040	0.310	53.580	-1.200	0.700																			1580017828.0	7.07	13.09
26/01/2020 05:50:29	26012020	260120	055029	53.400	12.644302	-57.335313	53.140	-0.060	-0.230	0.050	53.360	-1.500	0.600																			1580017829.0	7.23	13.39
26/01/2020 05:50:30	26012020	260120	055030	53.220	12.644323	-57.335285	53.220	0.070	-0.550	-0.490	53.210	-1.600	0.500																			1580017830.0	7.36	13.63
26/01/2020 05:50:31	26012020	260120	055031	53.260	12.644347	-57.335260	53.440	0.190	-0.740	-1.010	53.300	-1.900	-0.100																			1580017831.0	7.48	13.85
26/01/2020 05:50:32	26012020	260120	055032	53.490	12.644372	-57.335233	53.500	0.170	-0.480	-1.110	53.530	-2.100	-0.600																			1580017832.0	7.60	14.08
26/01/2020 05:50:33	26012020	260120	055033	53.600	12.644395	-57.335207	53.370	-0.030	0.070	-0.750	53.590	-1.900	-0.700																			1580017833.0	7.42	13.74
26/01/2020 05:50:34	26012020	260120	055034	53.480	12.644415	-57.335182	53.240	-0.240	0.380	-0.260	53.440	-1.400	-0.400																			1580017834.0	6.94	12.85
26/01/2020 05:50:35	26012020	260120	055035	53.330	12.644432	-57.335155	53.220	-0.220	0.190	0.060	53.310	-1.000	0.100																			1580017835.0	6.79	12.58
26/01/2020 05:50:36	26012020	260120	055036	53.290	12.644450	-57.335127	53.190	0.040	-0.310	0.220	53.290	-1.100	0.400																			1580017836.0	7.12	13.19
26/01/2020 05:50:37	26012020	260120	055037	53.270	12.644470	-57.335097	53.110	0.310	-0.620	0.350	53.260	-1.600	0.600																			1580017837.0	7.63	14.13
26/01/2020 05:50:38	26012020	260120	055038	53.190	12.644492	-57.335067	53.100	0.370	-0.510	0.470	53.180	-2.000	0.700																			1580017838.0	7.79	14.43
26/01/2020 05:50:39	26012020	260120	055039	53.150	12.644513	-57.335040	53.180	0.200	-0.150	0.500	53.160	-1.900	0.800																			1580017839.0	7.47	13.83
26/01/2020 05:50:40	26012020	260120	055040	53.210	12.644533	-57.335013	53.290	-0.080	0.210	0.370	53.230	-1.600	0.900																			1580017840.0	7.09	13.13
26/01/2020 05:50:41	26012020	260120	055041	53.320	12.644553	-57.334987	53.290	-0.360	0.420	0.190	53.340	-1.200	0.800																			1580017841.0	6.94	12.85
26/01/2020 05:50:42	26012020	260120	055042	53.370	12.644573	-57.334962	53.070	-0.460	0.310	0.170	53.350	-1.000	0.600																			1580017842.0	6.91	12.80
26/01/2020 05:50:43	26012020	260120	055043	53.190	12.644593	-57.334935	52.830	-0.320	-0.130	0.100	53.140	-1.300	0.500																			1580017843.0	7.05	13.06
26/01/2020 05:50:44	26012020	260120	055044	52.930	12.644615	-57.334908	52.760	0.040	-0.780	-0.270	52.890	-1.500	0.500																			1580017844.0	7.33	13.58
26/01/2020 05:50:45	26012020	260120	055045	52.830	12.644638	-57.334880	52.880	0.470	-1.260	-0.790	52.830	-2.100	0.100																			1580017845.0	7.64	14.15
26/01/2020 05:50:46	26012020	260120	055046	52.930	12.644663	-57.334853	53.000	0.680	-1.030	-1.080	52.960	-2.600	-0.400																			1580017846.0	7.92	14.67
26/01/2020 05:50:47	26012020	260120	055047	53.080	12.644688	-57.334827	53.020	0.400	0.000	-0.840	53.090	-2.500	-0.700																			1580017847.0	7.81	14.46
26/01/2020 05:50:48	26012020	260120	055048	53.110	12.644708	-57.334802	52.960	-0.230	1.030	-0.310	53.100	-1.500	-0.500																			1580017848.0	6.99	12.95
26/01/2020 05:50:49	26012020	260120	055049	53.050	12.644725	-57.334777	52.940	-0.710	1.140	0.130	53.040	-0.400	0.000																			1580017849.0	6.25	11.58
26/01/2020 05:50:50	26012020	260120	055050	53.010	12.644742	-57.334750	53.030	-0.640	0.270	0.330	53.020	-0.200	0.500																			1580017850.0	6.49	12.02
26/01/2020 05:50:51	26012020	260120	055051	53.070	12.644760	-57.334722	53.090	-0.110	-0.800	0.510	53.090	-1.000	0.700																			1580017851.0	7.42	13.74
26/01/2020 05:50:52	26012020	260120	055052	53.130	12.644783	-57.334690	53.000	0.370	-1.210	0.700	53.130	-2.100	0.900																			1580017852.0	8.19	15.17
26/01/2020 05:50:53	26012020	260120	055053	53.070	12.644805	-57.334658	52.850	0.440	-0.770	0.670	53.040	-2.600	1.000																			1580017853.0	8.08	14.96
26/01/2020 05:50:54	26012020	260120	055054	52.920	12.644825	-57.334632	52.730	0.220	-0.030	0.420	52.880	-2.200	1.100																			1580017854.0	7.23	13.39
26/01/2020 05:50:55	26012020	260120	055055	52.790	12.644845	-57.334608	52.700	0.000	0.360	0.050	52.770	-1.500	0.800																			1580017855.0	6.54	12.11
26/01/2020 05:50:56	26012020	260120	055056	52.750	12.644865	-57.334585	52.760	-0.100	0.240	-0.460	52.750	-1.000	0.500																			1580017856.0	6.61	12.24
26/01/2020 05:50:57	26012020	260120	055057	52.800	12.644888	-57.334560	52.760	-0.120	-0.070	-0.820	52.820	-1.100	-0.000																			1580017857.0	7.16	13.26
26/01/2020 05:50:58	26012020	260120	055058	52.840	12.644913	-57.334535	52.700	-0.130	-0.240	-0.810	52.830	-1.400	-0.400																			1580017858.0	7.58	14.04
26/01/2020 05:50:59	26012020	260120	055059	52.780	12.644937	-57.334508	52.760	-0.120	-0.310	-0.630	52.770	-1.600	-0.400																			1580017859.0	7.48	13.85
26/01/2020 05:51:00	26012020	260120	055100	52.810	12.644957	-57.334482	52.920	-0.060	-0.390	-0.450	52.830	-1.700	-0.300	1014.40	25.70	25.80	20.70	20.70	-1.00	73.00	73.00	435.00	25.60	22.00	10.70	87.00	7.40	15	3128.00	27.40	27.40	1580017860.0	7.25	13.43
26/01/2020 05:51:01	26012020	260120	055101	52.960	12.644977	-57.334453	52.980	0.000	-0.320	-0.140	52.990	-1.800	-0.100																			1580017861.0	7.25	13.43
26/01/2020 05:51:02	26012020	260120	055102	53.050	12.644995	-57.334425	52.920	0.050	-0.160	0.270	53.050	-1.700	0.200																			1580017862.0	7.27	13.46
26/01/2020 05:51:03	26012020	260120	055103	53.000	12.645013	-57.334397	52.800	0.160	-0.150	0.540	52.980	-1.500	0.600																			1580017863.0	7.12	13.19
26/01/2020 05:51:04	26012020	260120	055104	52.880	12.645032	-57.334368	52.690	0.350	-0.220	0.550	52.860	-1.500	0.900																			1580017864.0	7.14	13.22
26/01/2020 05:51:05	26012020	260120	055105	52.760	12.645053	-57.334342	52.680	0.410	-0.160	0.320	52.750	-1.600	0.900																			1580017865.0	7.37	13.65
26/01/2020 05:51:06	26012020	260120	055106	52.730	12.645077	-57.334315	52.780	0.210	0.020	-0.020	52.730	-1.500	0.700																			1580017866.0	7.41	13.72
26/01/2020 05:51:07	26012020	260120	055107	52.810	12.645100	-57.334290	52.950	-0.120	0.120	-0.400	52.840	-1.300	0.100																			1580017867.0	7.21	13.35
26/01/2020 05:51:08	26012020	260120	055108	52.990	12.645123	-57.334267	53.100	-0.350	0.050	-0.590	53.030	-1.300	0.000																			1580017868.0	7.08	13.11
26/01/2020 05:51:09	26012020	260120	055109	53.150	12.645145	-57.334242	53.080	-0.460	-0.040	-0.440	53.170	-1.300	-0.200																			1580017869.0	7.18	13.30
26/01/2020 05:51:10	26012020	260120	055110	53.170	12.645167	-57.334215	53.040	-0.520	-0.120	-0.180	53.160	-1.400	-0.100																			1580017870.0	7.26	13.45
26/01/2020 05:51:11	26012020	260120	055111	53.110	12.645185	-57.334187	53.090	-0.440	-0.300	-0.020	53.100	-1.500	0.200																			1580017871.0	7.19	13.32
26/01/2020 05:51:12	26012020	260120	055112	53.140	12.645203	-57.334158	53.160	-0.150	-0.540	0.090	53.150	-1.600	0.300																			1580017872.0	7.16	13.26
26/01/2020 05:51:13	26012020	260120	055113	53.220	12.645223	-57.334130	53.120	0.290	-0.680	0.230	53.230	-1.900	0.400																			1580017873.0	7.31	13.54
26/01/2020 05:51:14	26012020	260120	055114	53.210	12.645243	-57.334102	53.060	0.640	-0.600	0.230	53.190	-2.000	0.600																			1580017874.0	7.45	13.80
26/01/2020 05:51:15	26012020	260120	055115	53.130	12.645263	-57.334073	53.090	0.750	-0.340	-0.060	53.120	-2.000	0.600																			1580017875.0	7.41	13.72
26/01/2020 05:51:16	26012020	260120	055116	53.150	12.645287	-57.334048	53.140	0.610	0.080	-0.370	53.160	-1.700	0.400																			1580017876.0	7.31	13.54
26/01/2020 05:51:17	26012020	260120	055117	53.220	12.645310	-57.334023	53.160	0.240	0.460	-0.570	53.220	-1.300	0.000																			1580017877.0	7.20	13.33
26/01/2020 05:51:18	26012020	260120	055118	53.250	12.645333	-57.333998	53.250	-0.190	0.490	-0.720	53.250	-0.900	-0.200																			1580017878.0	7.03	13.02
26/01/2020 05:51:19	26012020	260120	055119	53.320	12.645355	-57.333975	53.390	-0.480	0.190	-0.660	53.350	-1.000	-0.400																			1580017879.0	7.05	13.06
26/01/2020 05:51:20	26012020	260120	055120	53.470	12.645377	-57.333948	53.440	-0.580	-0.140	-0.300	53.490	-1.200	-0.300																			1580017880.0	7.33	13.58
26/01/2020 05:51:21	26012020	260120	055121	53.520	12.645397	-57.333920	53.510	-0.530	-0.390	0.090	53.530	-1.500	0.000																			1580017881.0	7.45	13.80
26/01/2020 05:51:22	26012020	260120	055122	53.570	12.645415	-57.333890	53.590	-0.390	-0.510	0.390	53.590	-1.700	0.400																			1580017882.0	7.37	13.65
26/01/2020 05:51:23	26012020	260120	055123	53.650	12.645433	-57.333860	53.510	-0.210	-0.430	0.610	53.660	-1.900	0.700																			1580017883.0	7.28	13.48
26/01/2020 05:51:24	26012020	260120	055124	53.590	12.645452	-57.333832	53.390	0.020	-0.350	0.530	53.560	-1.800	1.000																			1580017884.0	7.17	13.28
26/01/2020 05:51:25	26012020	260120	055125	53.450	12.645472	-57.333805	53.430	0.330	-0.410	0.110	53.440	-1.700	0.900																			1580017885.0	7.07	13.09
26/01/2020 05:51:26	26012020	260120	055126	53.460	12.645493	-57.333780	53.640	0.640	-0.520	-0.420	53.490	-1.800	0.500																			1580017886.0	7.25	13.43
26/01/2020 05:51:27	26012020	260120	055127	53.670	12.645518	-57.333755	53.760	0.740	-0.420	-0.700	53.720	-1.900	0.000																			1580017887.0	7.53	13.95
26/01/2020 05:51:28	26012020	260120	055128	53.830	12.645542	-57.333728	53.660	0.440	0.020	-0.700	53.840	-1.800	-0.300																			1580017888.0	7.58	14.04
26/01/2020 05:51:29	26012020	260120	055129	53.770	12.645563	-57.333702	53.600	-0.130	0.540	-0.630	53.750	-1.400	-0.300																			1580017889.0	7.31	13.54
26/01/2020 05:51:30	26012020	260120	055130	53.690	12.645583	-57.333675	53.700	-0.600	0.630	-0.640	53.690	-0.900	-0.300																			1580017890.0	6.86	12.70
26/01/2020 05:51:31	26012020	260120	055131	53.750	12.645603	-57.333650	53.800	-0.690	0.220	-0.620	53.770	-0.900	-0.300																			1580017891.0	6.83	12.65
26/01/2020 05:51:32	26012020	260120	055132	53.860	12.645623	-57.333623	53.800	-0.400	-0.380	-0.410	53.880	-1.100	-0.300																			1580017892.0	7.26	13.45
26/01/2020 05:51:33	26012020	260120	055133	53.880	12.645645	-57.333595	53.770	0.020	-0.810	0.000	53.870	-2.000	0.200																			1580017893.0	7.65	14.17
26/01/2020 05:51:34	26012020	260120	055134	53.830	12.645667	-57.333565	53.820	0.320	-0.890	0.350	53.820	-2.200	0.300																			1580017894.0	7.70	14.26
26/01/2020 05:51:35	26012020	260120	055135	53.840	12.645685	-57.333535	53.960	0.340	-0.520	0.390	53.860	-2.300	0.700																			1580017895.0	7.56	14.00
26/01/2020 05:51:36	26012020	260120	055136	53.970	12.645703	-57.333507	54.020	0.140	0.130	0.350	54.000	-1.900	0.800																			1580017896.0	7.20	13.33
26/01/2020 05:51:37	26012020	260120	055137	54.050	12.645723	-57.333480	53.950	-0.090	0.600	0.290	54.050	-1.300	0.700																			1580017897.0	6.80	12.59
26/01/2020 05:51:38	26012020	260120	055138	53.990	12.645743	-57.333457	53.880	-0.150	0.420	0.060	53.980	-0.800	0.700																			1580017898.0	6.65	12.32
26/01/2020 05:51:39	26012020	260120	055139	53.930	12.645763	-57.333432	53.880	0.070	-0.370	-0.260	53.920	-0.900	0.500																			1580017899.0	6.97	12.91
26/01/2020 05:51:40	26012020	260120	055140	53.920	12.645788	-57.333403	53.940	0.340	-1.000	-0.500	53.930	-1.700	0.100																			1580017900.0	7.71	14.28
26/01/2020 05:51:41	26012020	260120	055141	53.980	12.645812	-57.333375	53.990	0.290	-0.770	-0.600	54.000	-2.300	-0.100																			1580017901.0	8.17	15.13
26/01/2020 05:51:42	26012020	260120	055142	54.040	12.645835	-57.333347	53.950	-0.140	0.070	-0.430	54.040	-2.200	-0.200																			1580017902.0	7.72	14.30
26/01/2020 05:51:43	26012020	260120	055143	54.000	12.645853	-57.333320	53.890	-0.520	0.600	-0.150	53.990	-1.400	-0.100																			1580017903.0	6.73	12.46
26/01/2020 05:51:44	26012020	260120	055144	53.940	12.645870	-57.333295	53.900	-0.470	0.320	-0.090	53.930	-0.800	0.200																			1580017904.0	6.37	11.80
26/01/2020 05:51:45	26012020	260120	055145	53.940	12.645888	-57.333268	53.890	-0.060	-0.340	-0.210	53.950	-1.000	0.300																			1580017905.0	6.98	12.93
26/01/2020 05:51:46	26012020	260120	055146	53.940	12.645910	-57.333238	53.810	0.300	-0.670	-0.250	53.930	-1.700	0.200																			1580017906.0	7.81	14.46
26/01/2020 05:51:47	26012020	260120	055147	53.870	12.645933	-57.333210	53.820	0.360	-0.470	-0.220	53.860	-2.000	0.100																			1580017907.0	7.91	14.65
26/01/2020 05:51:48	26012020	260120	055148	53.850	12.645955	-57.333182	53.940	0.150	0.010	-0.250	53.870	-1.900	0.200																			1580017908.0	7.39	13.69
26/01/2020 05:51:49	26012020	260120	055149	53.960	12.645975	-57.333157	53.970	-0.150	0.370	-0.260	53.980	-1.400	0.100																			1580017909.0	6.88	12.74
26/01/2020 05:51:50	26012020	260120	055150	54.020	12.645995	-57.333132	53.950	-0.320	0.230	-0.180	54.020	-1.000	0.100																			1580017910.0	6.68	12.37
26/01/2020 05:51:51	26012020	260120	055151	54.000	12.646013	-57.333107	53.910	-0.200	-0.320	-0.100	54.000	-1.100	0.200																			1580017911.0	6.91	12.80
26/01/2020 05:51:52	26012020	260120	055152	53.970	12.646035	-57.333078	53.800	0.120	-0.770	-0.000	53.950	-1.600	0.300																			1580017912.0	7.49	13.87
26/01/2020 05:51:53	26012020	260120	055153	53.880	12.646057	-57.333048	53.670	0.410	-0.780	0.180	53.850	-2.100	0.400																			1580017913.0	7.80	14.45
26/01/2020 05:51:54	26012020	260120	055154	53.740	12.646078	-57.333020	53.620	0.410	-0.420	0.250	53.720	-2.200	0.500																			1580017914.0	7.59	14.06
26/01/2020 05:51:55	26012020	260120	055155	53.670	12.646098	-57.332992	53.610	0.070	0.120	0.140	53.660	-1.800	0.600																			1580017915.0	7.23	13.39
26/01/2020 05:51:56	26012020	260120	055156	53.650	12.646117	-57.332967	53.610	-0.340	0.540	-0.060	53.640	-1.300	0.500																			1580017916.0	6.92	12.82
26/01/2020 05:51:57	26012020	260120	055157	53.640	12.646137	-57.332942	53.660	-0.470	0.530	-0.300	53.650	-0.900	0.300																			1580017917.0	6.75	12.50
26/01/2020 05:51:58	26012020	260120	055158	53.690	12.646158	-57.332917	53.830	-0.210	-0.050	-0.650	53.710	-0.800	0.100																			1580017918.0	6.89	12.76
26/01/2020 05:51:59	26012020	260120	055159	53.840	12.646180	-57.332890	53.890	0.150	-0.690	-0.810	53.880	-1.400	-0.200																			1580017919.0	7.39	13.69
26/01/2020 05:52:00	26012020	260120	055200	53.970	12.646203	-57.332862	53.710	0.200	-0.680	-0.680	53.960	-2.000	-0.400	1014.40	25.70	25.80	20.60	20.60	0.00	73.00	73.00	435.00	25.60	25.00	10.20	91.00	7.00	15	3232.00	27.40	27.40	1580017920.0	7.94	14.70
26/01/2020 05:52:01	26012020	260120	055201	53.830	12.646225	-57.332832	53.540	-0.030	-0.140	-0.440	53.780	-2.100	-0.300																			1580017921.0	7.66	14.19
26/01/2020 05:52:02	26012020	260120	055202	53.620	12.646245	-57.332807	53.530	-0.180	0.160	-0.270	53.600	-1.600	-0.100																			1580017922.0	6.82	12.63
26/01/2020 05:52:03	26012020	260120	055203	53.590	12.646263	-57.332782	53.560	-0.000	-0.150	-0.160	53.600	-1.200	0.100																			1580017923.0	6.51	12.06
26/01/2020 05:52:04	26012020	260120	055204	53.620	12.646282	-57.332755	53.490	0.340	-0.580	-0.020	53.620	-1.500	0.200																			1580017924.0	7.08	13.11
26/01/2020 05:52:05	26012020	260120	055205	53.560	12.646303	-57.332725	53.410	0.500	-0.570	0.120	53.540	-1.900	0.300																			1580017925.0	7.73	14.32
26/01/2020 05:52:06	26012020	260120	055206	53.470	12.646327	-57.332697	53.480	0.330	-0.130	0.210	53.460	-2.000	0.500																			1580017926.0	7.66	14.19
26/01/2020 05:52:07	26012020	260120	055207	53.500	12.646347	-57.332670	53.590	0.010	0.270	0.220	53.520	-1.500	0.600																			1580017927.0	7.08	13.11
26/01/2020 05:52:08	26012020	260120	055208	53.610	12.646367	-57.332645	53.580	-0.250	0.300	0.210	53.630	-1.100	0.600																			1580017928.0	6.75	12.50
26/01/2020 05:52:09	26012020	260120	055209	53.630	12.646387	-57.332620	53.540	-0.380	0.090	0.190	53.620	-1.100	0.600																			1580017929.0	6.97	12.91
26/01/2020 05:52:10	26012020	260120	055210	53.590	12.646407	-57.332593	53.620	-0.420	-0.110	0.120	53.590	-1.300	0.600																			1580017930.0	7.29	13.50
26/01/2020 05:52:11	26012020	260120	055211	53.640	12.646428	-57.332565	53.790	-0.380	-0.240	0.040	53.660	-1.500	0.500																			1580017931.0	7.35	13.61
26/01/2020 05:52:12	26012020	260120	055212	53.790	12.646448	-57.332538	53.870	-0.190	-0.430	-0.030	53.820	-1.600	0.400																			1580017932.0	7.20	13.33
26/01/2020 05:52:13	26012020	260120	055213	53.900	12.646467	-57.332510	53.810	0.140	-0.580	-0.150	53.910	-1.800	0.300																			1580017933.0	7.19	13.32
26/01/2020 05:52:14	26012020	260120	055214	53.870	12.646488	-57.332482	53.720	0.460	-0.490	-0.320	53.850	-1.900	0.200																			1580017934.0	7.35	13.61
26/01/2020 05:52:15	26012020	260120	055215	53.770	12.646510	-57.332455	53.680	0.600	-0.220	-0.510	53.760	-1.900	0.100																			1580017935.0	7.32	13.56
26/01/2020 05:52:16	26012020	260120	055216	53.730	12.646530	-57.332430	53.610	0.510	0.040	-0.720	53.720	-1.600	-0.100																			1580017936.0	7.11	13.17
26/01/2020 05:52:17	26012020	260120	055217	53.690	12.646553	-57.332405	53.550	0.290	0.090	-0.940	53.670	-1.400	-0.300																			1580017937.0	7.02	13.00
26/01/2020 05:52:18	26012020	260120	055218	53.630	12.646577	-57.332382	53.550	0.070	-0.070	-0.940	53.620	-1.300	-0.600																			1580017938.0	7.15	13.24
26/01/2020 05:52:19	26012020	260120	055219	53.610	12.646600	-57.332355	53.710	-0.170	-0.210	-0.660	53.620	-1.400	-0.600																			1580017939.0	7.39	13.69
26/01/2020 05:52:20	26012020	260120	055220	53.750	12.646622	-57.332328	53.890	-0.460	-0.090	-0.100	53.780	-1.600	-0.300																			1580017940.0	7.48	13.85
26/01/2020 05:52:21	26012020	260120	055221	53.920	12.646640	-57.332300	53.990	-0.710	0.100	0.590	53.950	-1.300	0.700																			1580017941.0	7.27	13.46
26/01/2020 05:52:22	26012020	260120	055222	54.010	12.646655	-57.332270	54.060	-0.690	-0.010	1.060	54.020	-1.300	0.900																			1580017942.0	7.01	12.98
26/01/2020 05:52:23	26012020	260120	055223	54.070	12.646670	-57.332240	54.100	-0.330	-0.370	1.160	54.080	-1.600	1.500																			1580017943.0	7.09	13.13
26/01/2020 05:52:24	26012020	260120	055224	54.100	12.646688	-57.332210	54.030	0.210	-0.600	0.960	54.110	-1.700	1.500																			1580017944.0	7.42	13.74
26/01/2020 05:52:25	26012020	260120	055225	54.080	12.646708	-57.332180	53.820	0.620	-0.440	0.570	54.050	-2.000	1.400																			1580017945.0	7.59	14.06
26/01/2020 05:52:26	26012020	260120	055226	53.890	12.646730	-57.332153	53.680	0.700	-0.110	-0.120	53.840	-1.800	1.000																			1580017946.0	7.40	13.70
26/01/2020 05:52:27	26012020	260120	055227	53.730	12.646753	-57.332130	53.750	0.490	0.030	-1.020	53.720	-1.500	0.300																			1580017947.0	7.08	13.11
26/01/2020 05:52:28	26012020	260120	055228	53.790	12.646778	-57.332108	53.810	0.170	0.060	-1.670	53.820	-1.300	-0.500																			1580017948.0	7.11	13.17
26/01/2020 05:52:29	26012020	260120	055229	53.900	12.646803	-57.332085	53.720	-0.150	0.130	-1.730	53.900	-1.300	-1.200																			1580017949.0	7.35	13.61
26/01/2020 05:52:30	26012020	260120	055230	53.860	12.646828	-57.332060	53.590	-0.330	-0.050	-1.340	53.830	-1.300	-1.400																			1580017950.0	7.23	13.39
26/01/2020 05:52:31	26012020	260120	055231	53.710	12.646848	-57.332035	53.670	-0.320	-0.530	-0.870	53.690	-1.400	-1.000																			1580017951.0	7.13	13.20
26/01/2020 05:52:32	26012020	260120	055232	53.720	12.646868	-57.332005	53.910	-0.230	-0.750	-0.290	53.760	-1.900	-0.500																			1580017952.0	7.51	13.91
26/01/2020 05:52:33	26012020	260120	055233	53.930	12.646887	-57.331973	54.110	-0.210	-0.320	0.440	53.980	-2.100	0.000																			1580017953.0	7.78	14.41
26/01/2020 05:52:34	26012020	260120	055234	54.120	12.646903	-57.331943	54.200	-0.280	0.300	1.140	54.150	-1.700	0.700																			1580017954.0	7.35	13.61
26/01/2020 05:52:35	26012020	260120	055235	54.210	12.646917	-57.331913	54.120	-0.260	0.480	1.500	54.220	-1.100	1.400																			1580017955.0	6.74	12.48
26/01/2020 05:52:36	26012020	260120	055236	54.160	12.646932	-57.331887	53.880	-0.020	0.050	1.410	54.120	-0.900	1.900																			1580017956.0	6.72	12.45
26/01/2020 05:52:37	26012020	260120	055237	53.940	12.646950	-57.331858	53.690	0.400	-0.600	0.870	53.890	-1.300	1.800																			1580017957.0	7.23	13.39
26/01/2020 05:52:38	26012020	260120	055238	53.730	12.646975	-57.331830	53.730	0.740	-0.930	0.040	53.710	-1.900	1.300																			1580017958.0	7.80	14.45
26/01/2020 05:52:39	26012020	260120	055239	53.740	12.647002	-57.331803	53.950	0.730	-0.630	-0.850	53.770	-2.300	0.500																			1580017959.0	8.00	14.82
26/01/2020 05:52:40	26012020	260120	055240	53.970	12.647028	-57.331780	54.070	0.290	0.110	-1.390	54.020	-2.000	-0.400																			1580017960.0	7.59	14.06
26/01/2020 05:52:41	26012020	260120	055241	54.150	12.647052	-57.331758	53.950	-0.350	0.700	-1.360	54.160	-1.300	-1.000																			1580017961.0	6.94	12.85
26/01/2020 05:52:42	26012020	260120	055242	54.090	12.647072	-57.331735	53.850	-0.760	0.590	-1.040	54.050	-0.700	-1.000																			1580017962.0	6.51	12.06
26/01/2020 05:52:43	26012020	260120	055243	53.950	12.647092	-57.331710	53.910	-0.690	-0.160	-0.640	53.940	-0.700	-0.700																			1580017963.0	6.75	12.50
26/01/2020 05:52:44	26012020	260120	055244	53.970	12.647110	-57.331680	54.030	-0.320	-0.800	-0.080	53.990	-1.400	-0.300																			1580017964.0	7.54	13.96
26/01/2020 05:52:45	26012020	260120	055245	54.080	12.647130	-57.331647	54.010	-0.050	-0.810	0.450	54.090	-2.100	0.200																			1580017965.0	8.02	14.85
26/01/2020 05:52:46	26012020	260120	055246	54.080	12.647147	-57.331615	53.850	-0.030	-0.340	0.780	54.060	-2.200	0.800																			1580017966.0	7.68	14.22
26/01/2020 05:52:47	26012020	260120	055247	53.930	12.647163	-57.331587	53.760	-0.040	0.050	0.820	53.900	-1.700	1.100																			1580017967.0	6.98	12.93
26/01/2020 05:52:48	26012020	260120	055248	53.810	12.647182	-57.331562	53.830	0.200	-0.010	0.500	53.800	-1.300	1.200																			1580017968.0	6.67	12.35
26/01/2020 05:52:49	26012020	260120	055249	53.860	12.647203	-57.331537	53.930	0.590	-0.270	-0.060	53.880	-1.400	0.900																			1580017969.0	7.02	13.00
26/01/2020 05:52:50	26012020	260120	055250	53.980	12.647227	-57.331510	53.790	0.770	-0.290	-0.480	54.000	-1.600	0.400																			1580017970.0	7.58	14.04
26/01/2020 05:52:51	26012020	260120	055251	53.920	12.647250	-57.331483	53.420	0.470	0.040	-0.600	53.870	-1.700	-0.100																			1580017971.0	7.65	14.17
26/01/2020 05:52:52	26012020	260120	055252	53.570	12.647273	-57.331458	53.230	-0.100	0.210	-0.700	53.490	-1.400	-0.200																			1580017972.0	7.23	13.39
26/01/2020 05:52:53	26012020	260120	055253	53.310	12.647295	-57.331435	53.440	-0.450	-0.090	-0.890	53.310	-1.100	-0.300																			1580017973.0	6.91	12.80
26/01/2020 05:52:54	26012020	260120	055254	53.460	12.647318	-57.331410	53.730	-0.440	-0.420	-0.790	53.530	-1.400	-0.500																			1580017974.0	7.20	13.33
26/01/2020 05:52:55	26012020	260120	055255	53.770	12.647340	-57.331382	53.840	-0.380	-0.310	-0.270	53.810	-1.800	-0.400																			1580017975.0	7.63	14.13
26/01/2020 05:52:56	26012020	260120	055256	53.900	12.647360	-57.331352	53.770	-0.470	0.080	0.470	53.910	-1.700	0.000																			1580017976.0	7.47	13.83
26/01/2020 05:52:57	26012020	260120	055257	53.850	12.647373	-57.331322	53.590	-0.560	0.280	1.090	53.820	-1.300	0.800																			1580017977.0	6.99	12.95
26/01/2020 05:52:58	26012020	260120	055258	53.660	12.647388	-57.331293	53.460	-0.320	-0.100	1.120	53.610	-1.100	1.400																			1580017978.0	6.77	12.54
26/01/2020 05:52:59	26012020	260120	055259	53.500	12.647405	-57.331265	53.440	0.330	-0.830	0.640	53.480	-1.900	1.300																			1580017979.0	7.06	13.08
26/01/2020 05:53:00	26012020	260120	055300	53.470	12.647428	-57.331237	53.430	0.980	-1.130	0.040	53.480	-2.100	1.100	1014.30	25.70	25.70	20.50	20.50	0.00	73.00	72.00	435.00	25.60	24.00	9.80	90.00	6.60	15	3222.00	27.40	27.40	1580017980.0	7.73	14.32
26/01/2020 05:53:01	26012020	260120	055301	53.480	12.647455	-57.331208	53.340	1.130	-0.690	-0.460	53.480	-2.500	0.500																			1580017981.0	8.05	14.91
26/01/2020 05:53:02	26012020	260120	055302	53.420	12.647480	-57.331185	53.290	0.650	0.180	-0.900	53.400	-2.100	-0.000																			1580017982.0	7.58	14.04
26/01/2020 05:53:03	26012020	260120	055303	53.370	12.647503	-57.331162	53.310	-0.180	0.920	-1.060	53.370	-1.300	-0.500																			1580017983.0	6.93	12.83
26/01/2020 05:53:04	26012020	260120	055304	53.380	12.647525	-57.331140	53.420	-0.840	0.990	-0.810	53.380	-0.500	-0.700																			1580017984.0	6.56	12.15
26/01/2020 05:53:05	26012020	260120	055305	53.450	12.647545	-57.331117	53.650	-0.950	0.270	-0.450	53.480	-0.300	-0.500																			1580017985.0	6.64	12.30
26/01/2020 05:53:06	26012020	260120	055306	53.650	12.647563	-57.331088	53.840	-0.580	-0.700	0.000	53.700	-1.000	-0.100																			1580017986.0	7.29	13.50
26/01/2020 05:53:07	26012020	260120	055307	53.870	12.647583	-57.331055	53.820	-0.100	-1.170	0.670	53.890	-2.000	0.300																			1580017987.0	7.98	14.78
26/01/2020 05:53:08	26012020	260120	055308	53.880	12.647600	-57.331022	53.700	0.210	-0.930	1.230	53.860	-2.500	1.000																			1580017988.0	8.01	14.83
26/01/2020 05:53:09	26012020	260120	055309	53.730	12.647615	-57.330990	53.560	0.280	-0.290	1.210	53.710	-2.300	1.600																			1580017989.0	7.43	13.76
26/01/2020 05:53:10	26012020	260120	055310	53.610	12.647633	-57.330963	53.360	0.240	0.270	0.720	53.580	-1.700	1.600																			1580017990.0	6.77	12.54
26/01/2020 05:53:11	26012020	260120	055311	53.420	12.647653	-57.330940	53.170	0.260	0.320	-0.080	53.370	-1.100	1.100																			1580017991.0	6.65	12.32
26/01/2020 05:53:12	26012020	260120	055312	53.220	12.647678	-57.330918	53.210	0.370	-0.130	-0.960	53.200	-1.000	0.400																			1580017992.0	7.05	13.06
26/01/2020 05:53:13	26012020	260120	055313	53.250	12.647707	-57.330895	53.450	0.410	-0.540	-1.580	53.280	-1.800	-1.000																			1580017993.0	7.68	14.22
26/01/2020 05:53:14	26012020	260120	055314	53.480	12.647733	-57.330868	53.660	0.180	-0.430	-1.690	53.530	-1.900	-1.200																			1580017994.0	7.98	14.78
26/01/2020 05:53:15	26012020	260120	055315	53.730	12.647757	-57.330842	53.680	-0.270	0.100	-1.240	53.760	-1.800	-1.300																			1580017995.0	7.62	14.11
26/01/2020 05:53:16	26012020	260120	055316	53.790	12.647775	-57.330815	53.600	-0.670	0.490	-0.520	53.780	-1.300	-0.900																			1580017996.0	6.97	12.91
26/01/2020 05:53:17	26012020	260120	055317	53.700	12.647790	-57.330788	53.540	-0.720	0.350	0.190	53.670	-0.900	-0.200																			1580017997.0	6.66	12.33
26/01/2020 05:53:18	26012020	260120	055318	53.600	12.647807	-57.330758	53.570	-0.360	-0.230	0.690	53.600	-1.000	0.500																			1580017998.0	6.93	12.83
26/01/2020 05:53:19	26012020	260120	055319	53.610	12.647825	-57.330728	53.660	0.180	-0.730	0.930	53.610	-1.500	1.000																			1580017999.0	7.45	13.80
26/01/2020 05:53:20	26012020	260120	055320	53.670	12.647845	-57.330698	53.700	0.480	-0.760	0.990	53.690	-2.100	1.300																			1580018000.0	7.75	14.35
26/01/2020 05:53:21	26012020	260120	055321	53.720	12.647865	-57.330670	53.650	0.380	-0.430	0.870	53.720	-2.100	1.400																			1580018001.0	7.53	13.95
26/01/2020 05:53:22	26012020	260120	055322	53.700	12.647885	-57.330643	53.540	0.140	-0.140	0.580	53.680	-1.800	1.300																			1580018002.0	7.06	13.08
26/01/2020 05:53:23	26012020	260120	055323	53.590	12.647905	-57.330618	53.410	0.030	0.040	0.130	53.560	-1.500	1.000																			1580018003.0	6.94	12.85
26/01/2020 05:53:24	26012020	260120	055324	53.470	12.647928	-57.330593	53.370	0.100	0.050	-0.370	53.450	-1.300	0.600																			1580018004.0	7.12	13.19
26/01/2020 05:53:25	26012020	260120	055325	53.430	12.647952	-57.330568	53.400	0.210	-0.140	-0.800	53.430	-1.400	-0.200																			1580018005.0	7.25	13.43
26/01/2020 05:53:26	26012020	260120	055326	53.450	12.647975	-57.330542	53.430	0.130	-0.240	-1.070	53.470	-1.500	-0.400																			1580018006.0	7.46	13.82
26/01/2020 05:53:27	26012020	260120	055327	53.510	12.647998	-57.330515	53.420	-0.180	0.010	-1.100	53.510	-1.600	-0.700																			1580018007.0	7.61	14.09
26/01/2020 05:53:28	26012020	260120	055328	53.510	12.648020	-57.330488	53.420	-0.460	0.280	-0.820	53.510	-1.400	-0.700																			1580018008.0	7.26	13.45
26/01/2020 05:53:29	26012020	260120	055329	53.500	12.648038	-57.330463	53.500	-0.450	0.140	-0.400	53.500	-1.100	-0.500																			1580018009.0	6.82	12.63
26/01/2020 05:53:30	26012020	260120	055330	53.550	12.648057	-57.330435	53.570	-0.180	-0.340	0.000	53.580	-1.200	-0.100																			1580018010.0	6.95	12.87
26/01/2020 05:53:31	26012020	260120	055331	53.640	12.648075	-57.330405	53.490	0.130	-0.670	0.420	53.640	-1.600	0.300																			1580018011.0	7.44	13.78
26/01/2020 05:53:32	26012020	260120	055332	53.580	12.648095	-57.330375	53.360	0.280	-0.540	0.770	53.550	-2.000	0.700																			1580018012.0	7.69	14.24
26/01/2020 05:53:33	26012020	260120	055333	53.430	12.648113	-57.330347	53.320	0.290	-0.250	0.880	53.410	-1.900	1.100																			1580018013.0	7.37	13.65
26/01/2020 05:53:34	26012020	260120	055334	53.360	12.648132	-57.330320	53.320	0.290	-0.170	0.720	53.350	-1.600	1.300																			1580018014.0	6.94	12.85
26/01/2020 05:53:35	26012020	260120	055335	53.360	12.648153	-57.330293	53.300	0.300	-0.260	0.400	53.360	-1.500	1.100																			1580018015.0	7.03	13.02
26/01/2020 05:53:36	26012020	260120	055336	53.340	12.648175	-57.330267	53.230	0.180	-0.150	0.030	53.330	-1.600	0.800																			1580018016.0	7.43	13.76
26/01/2020 05:53:37	26012020	260120	055337	53.290	12.648200	-57.330242	53.190	-0.100	0.200	-0.250	53.280	-1.300	0.200																			1580018017.0	7.52	13.93
26/01/2020 05:53:38	26012020	260120	055338	53.250	12.648222	-57.330217	53.210	-0.360	0.380	-0.400	53.250	-1.200	0.200																			1580018018.0	7.14	13.22
26/01/2020 05:53:39	26012020	260120	055339	53.260	12.648243	-57.330192	53.270	-0.450	0.120	-0.540	53.270	-1.000	0.000																			1580018019.0	6.86	12.70
26/01/2020 05:53:40	26012020	260120	055340	53.330	12.648263	-57.330165	53.290	-0.310	-0.400	-0.570	53.330	-1.200	-0.200																			1580018020.0	7.13	13.20
26/01/2020 05:53:41	26012020	260120	055341	53.350	12.648285	-57.330137	53.320	-0.080	-0.700	-0.410	53.350	-1.700	-0.200																			1580018021.0	7.58	14.04
26/01/2020 05:53:42	26012020	260120	055342	53.370	12.648305	-57.330107	53.390	0.040	-0.530	-0.230	53.380	-2.100	-0.100																			1580018022.0	7.70	14.26
26/01/2020 05:53:43	26012020	260120	055343	53.440	12.648325	-57.330078	53.380	0.010	-0.040	-0.060	53.450	-1.900	0.100																			1580018023.0	7.37	13.65
26/01/2020 05:53:44	26012020	260120	055344	53.470	12.648343	-57.330052	53.290	-0.030	0.300	0.180	53.450	-1.500	0.300																			1580018024.0	6.87	12.72
26/01/2020 05:53:45	26012020	260120	055345	53.370	12.648362	-57.330027	53.200	0.110	0.090	0.350	53.350	-1.100	0.500																			1580018025.0	6.66	12.33
26/01/2020 05:53:46	26012020	260120	055346	53.260	12.648382	-57.330000	53.110	0.350	-0.470	0.360	53.240	-1.200	0.700																			1580018026.0	7.04	13.04
26/01/2020 05:53:47	26012020	260120	055347	53.170	12.648403	-57.329970	53.120	0.500	-0.810	0.190	53.170	-1.800	0.700																			1580018027.0	7.66	14.19
26/01/2020 05:53:48	26012020	260120	055348	53.170	12.648427	-57.329942	53.160	0.380	-0.580	0.060	53.180	-2.200	0.600																			1580018028.0	7.88	14.59
26/01/2020 05:53:49	26012020	260120	055349	53.220	12.648450	-57.329915	53.190	0.010	0.090	0.080	53.230	-1.600	0.400																			1580018029.0	7.55	13.98
26/01/2020 05:53:50	26012020	260120	055350	53.260	12.648472	-57.329890	53.250	-0.420	0.620	0.080	53.270	-1.300	0.500																			1580018030.0	6.93	12.83
26/01/2020 05:53:51	26012020	260120	055351	53.310	12.648490	-57.329865	53.340	-0.620	0.500	0.040	53.320	-0.800	0.500																			1580018031.0	6.57	12.17
26/01/2020 05:53:52	26012020	260120	055352	53.390	12.648510	-57.329840	53.360	-0.520	-0.020	0.120	53.400	-0.800	0.400																			1580018032.0	6.89	12.76
26/01/2020 05:53:53	26012020	260120	055353	53.410	12.648530	-57.329812	53.310	-0.290	-0.480	0.170	53.400	-1.300	0.500																			1580018033.0	7.51	13.91
26/01/2020 05:53:54	26012020	260120	055354	53.360	12.648550	-57.329782	53.270	0.000	-0.670	0.190	53.350	-1.800	0.500																			1580018034.0	7.68	14.22
26/01/2020 05:53:55	26012020	260120	055355	53.320	12.648570	-57.329753	53.230	0.270	-0.590	0.130	53.320	-2.000	0.600																			1580018035.0	7.48	13.85
26/01/2020 05:53:56	26012020	260120	055356	53.290	12.648590	-57.329725	53.190	0.390	-0.370	-0.130	53.280	-2.000	0.500																			1580018036.0	7.26	13.45
26/01/2020 05:53:57	26012020	260120	055357	53.250	12.648612	-57.329698	53.220	0.390	-0.160	-0.490	53.250	-1.800	0.300																			1580018037.0	7.12	13.19
26/01/2020 05:53:58	26012020	260120	055358	53.270	12.648633	-57.329673	53.250	0.300	0.060	-0.690	53.280	-1.500	-0.100																			1580018038.0	7.16	13.26
26/01/2020 05:53:59	26012020	260120	055359	53.320	12.648657	-57.329650	53.230	0.120	0.240	-0.620	53.320	-1.300	-0.300																			1580018039.0	7.22	13.37
26/01/2020 05:54:00	26012020	260120	055400	53.310	12.648680	-57.329625	53.220	-0.060	0.100	-0.340	53.300	-1.100	-0.300	1014.40	25.70	25.80	20.80	20.70	0.00	74.00	73.00	435.00	25.60	18.00	10.00	82.00	6.60	15	3203.00	27.40	27.40	1580018040.0	7.08	13.11
26/01/2020 05:54:01	26012020	260120	055401	53.280	12.648700	-57.329597	53.200	-0.160	-0.340	0.040	53.280	-1.500	0.200																			1580018041.0	7.15	13.24
26/01/2020 05:54:02	26012020	260120	055402	53.280	12.648718	-57.329568	53.160	-0.230	-0.560	0.440	53.280	-1.700	0.400																			1580018042.0	7.55	13.98
26/01/2020 05:54:03	26012020	260120	055403	53.230	12.648738	-57.329537	53.080	-0.350	-0.300	0.720	53.210	-1.800	1.000																			1580018043.0	7.75	14.35
26/01/2020 05:54:04	26012020	260120	055404	53.130	12.648757	-57.329508	53.040	-0.410	0.110	0.700	53.110	-1.700	1.100																			1580018044.0	7.34	13.59
26/01/2020 05:54:05	26012020	260120	055405	53.070	12.648775	-57.329482	53.130	-0.240	0.170	0.390	53.070	-1.300	1.100																			1580018045.0	6.84	12.67
26/01/2020 05:54:06	26012020	260120	055406	53.150	12.648797	-57.329457	53.250	0.110	-0.100	0.080	53.170	-1.200	0.800																			1580018046.0	6.89	12.76
26/01/2020 05:54:07	26012020	260120	055407	53.280	12.648818	-57.329430	53.280	0.390	-0.350	-0.220	53.300	-1.400	0.500																			1580018047.0	7.36	13.63
26/01/2020 05:54:08	26012020	260120	055408	53.330	12.648842	-57.329403	53.270	0.440	-0.440	-0.480	53.340	-1.700	0.200																			1580018048.0	7.57	14.02
26/01/2020 05:54:09	26012020	260120	055409	53.340	12.648863	-57.329375	53.190	0.300	-0.380	-0.610	53.340	-1.800	-0.100																			1580018049.0	7.44	13.78
26/01/2020 05:54:10	26012020	260120	055410	53.280	12.648885	-57.329350	53.080	0.160	-0.260	-0.600	53.260	-1.800	-0.200																			1580018050.0	7.26	13.45
26/01/2020 05:54:11	26012020	260120	055411	53.160	12.648907	-57.329323	53.000	0.100	-0.100	-0.500	53.140	-1.600	-0.200																			1580018051.0	7.21	13.35
26/01/2020 05:54:12	26012020	260120	055412	53.060	12.648928	-57.329297	53.030	0.030	0.040	-0.340	53.060	-1.500	-0.100																			1580018052.0	7.24	13.41
26/01/2020 05:54:13	26012020	260120	055413	53.080	12.648950	-57.329270	53.080	-0.140	0.090	-0.020	53.090	-1.300	0.000																			1580018053.0	7.17	13.28
26/01/2020 05:54:14	26012020	260120	055414	53.120	12.648968	-57.329243	53.060	-0.380	0.030	0.350	53.120	-1.300	0.300																			1580018054.0	7.20	13.33
26/01/2020 05:54:15	26012020	260120	055415	53.100	12.648988	-57.329215	53.070	-0.490	-0.150	0.610	53.090	-1.300	0.700																			1580018055.0	7.25	13.43
26/01/2020 05:54:16	26012020	260120	055416	53.080	12.649007	-57.329185	53.190	-0.310	-0.370	0.710	53.090	-1.500	1.000																			1580018056.0	7.30	13.52
26/01/2020 05:54:17	26012020	260120	055417	53.180	12.649027	-57.329157	53.280	0.010	-0.480	0.640	53.210	-1.700	1.100																			1580018057.0	7.42	13.74
26/01/2020 05:54:18	26012020	260120	055418	53.310	12.649047	-57.329128	53.210	0.210	-0.330	0.440	53.320	-1.800	1.000																			1580018058.0	7.45	13.80
26/01/2020 05:54:19	26012020	260120	055419	53.280	12.649067	-57.329100	52.970	0.230	-0.070	0.100	53.250	-1.700	0.800																			1580018059.0	7.32	13.56
26/01/2020 05:54:20	26012020	260120	055420	53.080	12.649088	-57.329075	52.850	0.230	-0.030	-0.360	53.040	-1.500	0.500																			1580018060.0	7.08	13.11
26/01/2020 05:54:21	26012020	260120	055421	52.930	12.649112	-57.329052	52.820	0.350	-0.220	-0.790	52.930	-1.400	0.100																			1580018061.0	7.10	13.15
26/01/2020 05:54:22	26012020	260120	055422	52.910	12.649137	-57.329027	52.820	0.430	-0.350	-1.050	52.910	-1.600	-0.400																			1580018062.0	7.47	13.83
26/01/2020 05:54:23	26012020	260120	055423	52.910	12.649162	-57.329000	52.870	0.300	-0.250	-1.020	52.910	-1.700	-0.700																			1580018063.0	7.67	14.20
26/01/2020 05:54:24	26012020	260120	055424	52.940	12.649183	-57.328973	53.020	-0.030	-0.050	-0.690	52.960	-1.600	-0.700																			1580018064.0	7.46	13.82
26/01/2020 05:54:25	26012020	260120	055425	53.050	12.649203	-57.328947	53.220	-0.430	0.180	-0.200	53.090	-1.400	-0.400																			1580018065.0	7.22	13.37
26/01/2020 05:54:26	26012020	260120	055426	53.240	12.649222	-57.328918	53.330	-0.680	0.340	0.400	53.280	-1.200	0.100																			1580018066.0	7.09	13.13
26/01/2020 05:54:27	26012020	260120	055427	53.360	12.649238	-57.328888	53.240	-0.650	0.150	1.030	53.360	-1.000	0.700																			1580018067.0	7.02	13.00
26/01/2020 05:54:28	26012020	260120	055428	53.280	12.649253	-57.328860	53.030	-0.280	-0.440	1.430	53.250	-1.200	1.300																			1580018068.0	7.12	13.19
26/01/2020 05:54:29	26012020	260120	055429	53.060	12.649272	-57.328828	52.880	0.250	-0.980	1.360	53.030	-1.700	1.800																			1580018069.0	7.53	13.95
26/01/2020 05:54:30	26012020	260120	055430	52.900	12.649293	-57.328798	52.810	0.610	-0.910	0.910	52.880	-2.300	1.700																			1580018070.0	7.90	14.63
26/01/2020 05:54:31	26012020	260120	055431	52.830	12.649317	-57.328770	52.800	0.590	-0.220	0.250	52.830	-2.300	1.300																			1580018071.0	7.73	14.32
26/01/2020 05:54:32	26012020	260120	055432	52.830	12.649340	-57.328747	52.870	0.250	0.450	-0.480	52.830	-1.700	0.700																			1580018072.0	7.11	13.17
26/01/2020 05:54:33	26012020	260120	055433	52.880	12.649363	-57.328725	53.000	-0.120	0.520	-1.150	52.890	-1.000	-0.000																			1580018073.0	6.71	12.43
26/01/2020 05:54:34	26012020	260120	055434	53.000	12.649387	-57.328703	53.140	-0.330	0.080	-1.520	53.040	-0.900	-0.700																			1580018074.0	6.94	12.85
26/01/2020 05:54:35	26012020	260120	055435	53.170	12.649412	-57.328678	53.160	-0.320	-0.340	-1.350	53.200	-1.300	-1.100																			1580018075.0	7.50	13.89
26/01/2020 05:54:36	26012020	260120	055436	53.230	12.649435	-57.328650	53.050	-0.190	-0.520	-0.760	53.220	-1.700	-1.000																			1580018076.0	7.73	14.32
26/01/2020 05:54:37	26012020	260120	055437	53.120	12.649453	-57.328620	52.970	-0.030	-0.550	-0.070	53.100	-1.900	-0.400																			1580018077.0	7.55	13.98
26/01/2020 05:54:38	26012020	260120	055438	53.010	12.649472	-57.328590	52.960	0.110	-0.470	0.500	53.000	-1.900	0.200																			1580018078.0	7.41	13.72
26/01/2020 05:54:39	26012020	260120	055439	52.990	12.649488	-57.328560	52.980	0.190	-0.240	0.840	52.990	-1.700	1.100																			1580018079.0	7.36	13.63
26/01/2020 05:54:40	26012020	260120	055440	52.990	12.649507	-57.328530	52.960	0.170	0.070	0.950	52.990	-1.700	1.200																			1580018080.0	7.30	13.52
26/01/2020 05:54:41	26012020	260120	055441	52.970	12.649525	-57.328503	53.000	0.070	0.250	0.730	52.960	-1.300	1.300																			1580018081.0	7.15	13.24
26/01/2020 05:54:42	26012020	260120	055442	53.000	12.649547	-57.328477	53.130	-0.020	0.130	0.310	53.020	-1.100	1.100																			1580018082.0	7.07	13.09
26/01/2020 05:54:43	26012020	260120	055443	53.150	12.649570	-57.328452	53.200	-0.080	-0.100	-0.090	53.180	-1.200	0.700																			1580018083.0	7.26	13.45
26/01/2020 05:54:44	26012020	260120	055444	53.250	12.649593	-57.328425	53.140	-0.150	-0.240	-0.370	53.260	-1.500	0.300																			1580018084.0	7.47	13.83
26/01/2020 05:54:45	26012020	260120	055445	53.220	12.649615	-57.328400	53.020	-0.180	-0.280	-0.460	53.200	-1.600	0.000																			1580018085.0	7.44	13.78
26/01/2020 05:54:46	26012020	260120	055446	53.110	12.649638	-57.328373	52.940	-0.090	-0.310	-0.480	53.090	-1.700	-0.100																			1580018086.0	7.29	13.50
26/01/2020 05:54:47	26012020	260120	055447	53.030	12.649658	-57.328347	52.890	0.090	-0.370	-0.540	53.010	-1.700	-0.100																			1580018087.0	7.24	13.41
26/01/2020 05:54:48	26012020	260120	055448	52.970	12.649680	-57.328320	52.870	0.220	-0.350	-0.490	52.950	-1.800	-0.200																			1580018088.0	7.34	13.59
26/01/2020 05:54:49	26012020	260120	055449	52.930	12.649702	-57.328292	52.940	0.150	-0.240	-0.260	52.930	-1.700	-0.100																			1580018089.0	7.40	13.70
26/01/2020 05:54:50	26012020	260120	055450	52.970	12.649722	-57.328265	53.130	-0.080	-0.140	-0.120	52.990	-1.600	0.100																			1580018090.0	7.31	13.54
26/01/2020 05:54:51	26012020	260120	055451	53.140	12.649742	-57.328237	53.350	-0.220	-0.110	-0.070	53.180	-1.500	0.300																			1580018091.0	7.23	13.39
26/01/2020 05:54:52	26012020	260120	055452	53.350	12.649762	-57.328208	53.340	-0.120	-0.040	0.220	53.380	-1.500	0.300																			1580018092.0	7.26	13.45
26/01/2020 05:54:53	26012020	260120	055453	53.400	12.649782	-57.328180	53.130	0.060	0.050	0.600	53.380	-1.400	0.800																			1580018093.0	7.35	13.61
26/01/2020 05:54:54	26012020	260120	055454	53.200	12.649800	-57.328152	52.990	0.140	-0.030	0.670	53.150	-1.300	0.900																			1580018094.0	7.28	13.48
26/01/2020 05:54:55	26012020	260120	055455	53.030	12.649820	-57.328123	52.990	0.130	-0.300	0.350	53.020	-1.400	1.000																			1580018095.0	7.24	13.41
26/01/2020 05:54:56	26012020	260120	055456	53.020	12.649842	-57.328097	53.010	0.120	-0.420	-0.070	53.030	-1.700	0.800																			1580018096.0	7.46	13.82
26/01/2020 05:54:57	26012020	260120	055457	53.060	12.649867	-57.328070	52.970	0.060	-0.200	-0.340	53.060	-1.800	0.300																			1580018097.0	7.62	14.11
26/01/2020 05:54:58	26012020	260120	055458	53.030	12.649890	-57.328045	52.950	-0.070	-0.010	-0.530	53.010	-1.600	0.100																			1580018098.0	7.36	13.63
26/01/2020 05:54:59	26012020	260120	055459	53.000	12.649912	-57.328020	53.070	-0.130	-0.120	-0.690	53.010	-1.400	-0.100																			1580018099.0	7.03	13.02
26/01/2020 05:55:00	26012020	260120	055500	53.120	12.649933	-57.327993	53.090	-0.110	-0.250	-0.600	53.140	-1.500	-0.300	1014.30	25.70	25.80	20.40	20.50	0.00	72.00	72.00	435.00	25.60	17.00	10.70	79.00	7.20	15	3246.00	27.40	27.40	1580018100.0	7.22	13.37
26/01/2020 05:55:01	26012020	260120	055501	53.160	12.649955	-57.327965	53.110	-0.140	-0.130	-0.460	53.160	-1.600	-0.200																			1580018101.0	7.53	13.95
26/01/2020 05:55:02	26012020	260120	055502	53.150	12.649975	-57.327938	53.210	-0.220	0.030	-0.360	53.160	-1.500	-0.100																			1580018102.0	7.35	13.61
26/01/2020 05:55:03	26012020	260120	055503	53.240	12.649993	-57.327910	53.330	-0.210	0.020	-0.180	53.260	-1.400	-0.000																			1580018103.0	7.06	13.08
26/01/2020 05:55:04	26012020	260120	055504	53.360	12.650013	-57.327883	53.290	-0.050	-0.210	0.150	53.380	-1.400	0.200																			1580018104.0	7.07	13.09
26/01/2020 05:55:05	26012020	260120	055505	53.360	12.650033	-57.327855	53.050	0.190	-0.440	0.470	53.330	-1.600	0.500																			1580018105.0	7.33	13.58
26/01/2020 05:55:06	26012020	260120	055506	53.140	12.650053	-57.327827	52.880	0.380	-0.620	0.570	53.080	-1.800	0.800																			1580018106.0	7.52	13.93
26/01/2020 05:55:07	26012020	260120	055507	52.920	12.650075	-57.327798	52.940	0.460	-0.690	0.430	52.910	-2.000	0.900																			1580018107.0	7.53	13.95
26/01/2020 05:55:08	26012020	260120	055508	52.940	12.650097	-57.327770	52.990	0.330	-0.340	0.230	52.960	-2.100	0.800																			1580018108.0	7.57	14.02
26/01/2020 05:55:09	26012020	260120	055509	53.010	12.650118	-57.327743	52.950	-0.030	0.300	0.020	53.010	-1.800	0.600																			1580018109.0	7.47	13.83
26/01/2020 05:55:10	26012020	260120	055510	52.990	12.650140	-57.327718	53.000	-0.400	0.630	-0.280	52.980	-1.100	0.400																			1580018110.0	6.98	12.93
26/01/2020 05:55:11	26012020	260120	055511	53.030	12.650160	-57.327693	53.190	-0.540	0.440	-0.590	53.060	-0.800	0.100																			1580018111.0	6.80	12.59
26/01/2020 05:55:12	26012020	260120	055512	53.220	12.650182	-57.327668	53.350	-0.400	0.020	-0.810	53.270	-0.900	-0.200																			1580018112.0	7.19	13.32
26/01/2020 05:55:13	26012020	260120	055513	53.410	12.650205	-57.327640	53.370	-0.100	-0.360	-0.720	53.430	-1.300	-0.400																			1580018113.0	7.52	13.93
26/01/2020 05:55:14	26012020	260120	055514	53.470	12.650227	-57.327613	53.320	0.200	-0.630	-0.410	53.460	-1.700	-0.400																			1580018114.0	7.55	13.98
26/01/2020 05:55:15	26012020	260120	055515	53.420	12.650247	-57.327583	53.240	0.360	-0.840	-0.070	53.390	-2.000	-0.100																			1580018115.0	7.45	13.80
26/01/2020 05:55:16	26012020	260120	055516	53.320	12.650267	-57.327555	53.150	0.350	-0.860	0.170	53.300	-2.200	0.300																			1580018116.0	7.45	13.80
26/01/2020 05:55:17	26012020	260120	055517	53.220	12.650288	-57.327527	53.150	0.140	-0.370	0.270	53.210	-2.300	0.500																			1580018117.0	7.59	14.06
26/01/2020 05:55:18	26012020	260120	055518	53.200	12.650308	-57.327498	53.240	-0.190	0.450	0.340	53.210	-1.800	0.600																			1580018118.0	7.38	13.67
26/01/2020 05:55:19	26012020	260120	055519	53.260	12.650328	-57.327473	53.310	-0.400	0.850	0.390	53.270	-1.000	0.700																			1580018119.0	6.77	12.54
26/01/2020 05:55:20	26012020	260120	055520	53.330	12.650347	-57.327448	53.410	-0.290	0.410	0.240	53.340	-0.500	0.800																			1580018120.0	6.56	12.15
26/01/2020 05:55:21	26012020	260120	055521	53.420	12.650367	-57.327422	53.500	0.010	-0.380	-0.070	53.440	-0.900	0.600																			1580018121.0	7.17	13.28
26/01/2020 05:55:22	26012020	260120	055522	53.530	12.650390	-57.327392	53.470	0.250	-0.870	-0.300	53.540	-1.700	0.300																			1580018122.0	7.92	14.67
26/01/2020 05:55:23	26012020	260120	055523	53.540	12.650413	-57.327363	53.300	0.340	-0.820	-0.360	53.510	-2.200	0.100																			1580018123.0	8.00	14.82
26/01/2020 05:55:24	26012020	260120	055524	53.380	12.650437	-57.327335	53.130	0.300	-0.360	-0.370	53.340	-2.200	0.000																			1580018124.0	7.56	14.00
26/01/2020 05:55:25	26012020	260120	055525	53.200	12.650457	-57.327310	53.160	0.140	0.120	-0.370	53.170	-1.800	0.000																			1580018125.0	7.10	13.15
26/01/2020 05:55:26	26012020	260120	055526	53.190	12.650478	-57.327285	53.340	-0.120	0.340	-0.310	53.210	-1.300	0.000																			1580018126.0	6.87	12.72
26/01/2020 05:55:27	26012020	260120	055527	53.370	12.650498	-57.327258	53.460	-0.360	0.290	-0.170	53.410	-1.100	0.000																			1580018127.0	6.94	12.85
26/01/2020 05:55:28	26012020	260120	055528	53.510	12.650517	-57.327232	53.490	-0.390	-0.040	0.040	53.530	-1.100	0.200																			1580018128.0	7.16	13.26
26/01/2020 05:55:29	26012020	260120	055529	53.540	12.650537	-57.327203	53.430	-0.170	-0.500	0.340	53.540	-1.400	0.400																			1580018129.0	7.39	13.69
26/01/2020 05:55:30	26012020	260120	055530	53.490	12.650557	-57.327173	53.290	0.080	-0.670	0.580	53.470	-1.800	0.700																			1580018130.0	7.68	14.22
26/01/2020 05:55:31	26012020	260120	055531	53.360	12.650577	-57.327143	53.260	0.170	-0.410	0.550	53.340	-2.100	0.900																			1580018131.0	7.71	14.28
26/01/2020 05:55:32	26012020	260120	055532	53.300	12.650598	-57.327115	53.360	0.120	-0.000	0.250	53.300	-1.800	0.900																			1580018132.0	7.32	13.56
26/01/2020 05:55:33	26012020	260120	055533	53.370	12.650618	-57.327090	53.480	0.060	0.150	-0.140	53.400	-1.400	0.700																			1580018133.0	6.90	12.78
26/01/2020 05:55:34	26012020	260120	055534	53.510	12.650640	-57.327065	53.480	0.070	-0.030	-0.410	53.540	-1.200	0.300																			1580018134.0	6.93	12.83
26/01/2020 05:55:35	26012020	260120	055535	53.560	12.650662	-57.327040	53.330	0.110	-0.310	-0.420	53.550	-1.400	-0.000																			1580018135.0	7.30	13.52
26/01/2020 05:55:36	26012020	260120	055536	53.430	12.650685	-57.327012	53.240	0.120	-0.420	-0.360	53.390	-1.700	-0.100																			1580018136.0	7.63	14.13
26/01/2020 05:55:37	26012020	260120	055537	53.300	12.650707	-57.326983	53.250	0.090	-0.280	-0.340	53.300	-1.800	0.000																			1580018137.0	7.60	14.08
26/01/2020 05:55:38	26012020	260120	055538	53.310	12.650728	-57.326957	53.250	0.000	0.040	-0.200	53.310	-1.700	0.000																			1580018138.0	7.36	13.63
26/01/2020 05:55:39	26012020	260120	055539	53.310	12.650747	-57.326928	53.290	-0.110	0.230	-0.060	53.310	-1.400	0.200																			1580018139.0	7.08	13.11
26/01/2020 05:55:40	26012020	260120	055540	53.330	12.650767	-57.326902	53.350	-0.160	0.050	-0.010	53.340	-1.200	0.300																			1580018140.0	6.95	12.87
26/01/2020 05:55:41	26012020	260120	055541	53.390	12.650787	-57.326875	53.360	-0.070	-0.350	0.070	53.400	-1.300	0.400																			1580018141.0	7.16	13.26
26/01/2020 05:55:42	26012020	260120	055542	53.420	12.650808	-57.326847	53.340	0.150	-0.620	0.220	53.410	-1.700	0.400																			1580018142.0	7.54	13.96
26/01/2020 05:55:43	26012020	260120	055543	53.380	12.650830	-57.326818	53.340	0.280	-0.610	0.310	53.380	-2.000	0.600																			1580018143.0	7.68	14.22
26/01/2020 05:55:44	26012020	260120	055544	53.380	12.650850	-57.326790	53.350	0.160	-0.290	0.310	53.380	-2.000	0.700																			1580018144.0	7.55	13.98
26/01/2020 05:55:45	26012020	260120	055545	53.390	12.650870	-57.326762	53.330	-0.170	0.230	0.290	53.390	-1.700	0.700																			1580018145.0	7.28	13.48
26/01/2020 05:55:46	26012020	260120	055546	53.370	12.650890	-57.326735	53.240	-0.490	0.630	0.230	53.360	-1.200	0.700																			1580018146.0	6.94	12.85
26/01/2020 05:55:47	26012020	260120	055547	53.290	12.650908	-57.326710	53.200	-0.520	0.400	0.040	53.270	-0.800	0.600																			1580018147.0	6.71	12.43
26/01/2020 05:55:48	26012020	260120	055548	53.230	12.650928	-57.326685	53.240	-0.120	-0.480	-0.300	53.230	-0.900	0.400																			1580018148.0	6.92	12.82
26/01/2020 05:55:49	26012020	260120	055549	53.280	12.650952	-57.326657	53.260	0.410	-1.220	-0.560	53.300	-1.800	0.100																			1580018149.0	7.68	14.22
26/01/2020 05:55:50	26012020	260120	055550	53.310	12.650977	-57.326627	53.200	0.620	-1.010	-0.690	53.310	-2.600	-0.200																			1580018150.0	8.28	15.33
26/01/2020 05:55:51	26012020	260120	055551	53.270	12.651000	-57.326598	53.150	0.370	-0.000	-0.580	53.260	-2.400	-0.300																			1580018151.0	7.88	14.59
26/01/2020 05:55:52	26012020	260120	055552	53.210	12.651020	-57.326575	53.150	-0.030	0.780	-0.310	53.200	-1.500	-0.200																			1580018152.0	6.77	12.54
26/01/2020 05:55:53	26012020	260120	055553	53.190	12.651038	-57.326550	53.270	-0.230	0.640	-0.060	53.200	-0.600	0.000																			1580018153.0	6.21	11.50
26/01/2020 05:55:54	26012020	260120	055554	53.280	12.651057	-57.326525	53.330	-0.230	-0.080	0.140	53.310	-0.700	0.300																			1580018154.0	6.79	12.58
26/01/2020 05:55:55	26012020	260120	055555	53.370	12.651077	-57.326495	53.260	-0.180	-0.640	0.390	53.370	-1.400	0.500																			1580018155.0	7.71	14.28
26/01/2020 05:55:56	26012020	260120	055556	53.310	12.651098	-57.326463	53.190	-0.120	-0.690	0.610	53.300	-2.000	0.700																			1580018156.0	7.95	14.72
26/01/2020 05:55:57	26012020	260120	055557	53.220	12.651118	-57.326435	53.110	0.030	-0.420	0.740	53.210	-2.100	1.000																			1580018157.0	7.53	13.95
26/01/2020 05:55:58	26012020	260120	055558	53.150	12.651138	-57.326408	53.010	0.240	-0.190	0.640	53.130	-1.800	1.100																			1580018158.0	7.08	13.11
26/01/2020 05:55:59	26012020	260120	055559	53.050	12.651157	-57.326382	52.870	0.320	-0.070	0.310	53.030	-1.600	1.000																			1580018159.0	6.98	12.93
26/01/2020 05:56:00	26012020	260120	055600	52.930	12.651178	-57.326355	52.780	0.150	0.070	-0.140	52.910	-1.500	0.700	1014.30	25.80	25.80	20.40	20.40	0.00	72.00	72.00	435.00	25.60	19.00	10.20	83.00	6.80	15	3191.00	27.40	27.40	1580018160.0	7.19	13.32
26/01/2020 05:56:01	26012020	260120	055601	52.840	12.651202	-57.326330	52.880	-0.140	0.150	-0.640	52.830	-1.300	0.300																			1580018161.0	7.27	13.46
26/01/2020 05:56:02	26012020	260120	055602	52.910	12.651225	-57.326305	53.040	-0.320	0.080	-1.000	52.950	-1.200	-0.200																			1580018162.0	7.15	13.24
26/01/2020 05:56:03	26012020	260120	055603	53.100	12.651248	-57.326280	53.090	-0.300	-0.110	-0.990	53.130	-1.300	-0.600																			1580018163.0	7.18	13.30
26/01/2020 05:56:04	26012020	260120	055604	53.190	12.651270	-57.326255	53.000	-0.110	-0.420	-0.630	53.180	-1.500	-0.600																			1580018164.0	7.28	13.48
26/01/2020 05:56:05	26012020	260120	055605	53.110	12.651290	-57.326227	52.920	0.130	-0.700	-0.140	53.090	-1.800	-0.300																			1580018165.0	7.41	13.72
26/01/2020 05:56:06	26012020	260120	055606	53.010	12.651310	-57.326197	52.900	0.280	-0.630	0.310	52.990	-2.100	0.200																			1580018166.0	7.60	14.08
26/01/2020 05:56:07	26012020	260120	055607	52.950	12.651330	-57.326167	52.930	0.230	-0.190	0.550	52.950	-1.800	0.800																			1580018167.0	7.54	13.96
26/01/2020 05:56:08	26012020	260120	055608	52.970	12.651348	-57.326138	53.050	0.010	0.270	0.580	52.980	-1.600	0.900																			1580018168.0	7.15	13.24
26/01/2020 05:56:09	26012020	260120	055609	53.060	12.651367	-57.326113	53.230	-0.230	0.420	0.450	53.080	-1.100	0.900																			1580018169.0	6.84	12.67
26/01/2020 05:56:10	26012020	260120	055610	53.220	12.651387	-57.326087	53.340	-0.260	0.140	0.230	53.260	-1.000	0.800																			1580018170.0	6.88	12.74
26/01/2020 05:56:11	26012020	260120	055611	53.370	12.651407	-57.326060	53.250	-0.010	-0.300	0.030	53.380	-1.200	0.600																			1580018171.0	7.22	13.37
26/01/2020 05:56:12	26012020	260120	055612	53.330	12.651430	-57.326033	53.100	0.300	-0.560	-0.140	53.300	-1.600	0.400																			1580018172.0	7.60	14.08
26/01/2020 05:56:13	26012020	260120	055613	53.170	12.651453	-57.326005	53.130	0.360	-0.480	-0.380	53.150	-1.900	0.300																			1580018173.0	7.69	14.24
26/01/2020 05:56:14	26012020	260120	055614	53.160	12.651477	-57.325978	53.360	0.110	-0.200	-0.730	53.190	-1.900	0.000																			1580018174.0	7.41	13.72
26/01/2020 05:56:15	26012020	260120	055615	53.380	12.651498	-57.325953	53.510	-0.220	0.140	-0.850	53.430	-1.600	-0.300																			1580018175.0	7.11	13.17
26/01/2020 05:56:16	26012020	260120	055616	53.570	12.651520	-57.325930	53.440	-0.400	0.280	-0.530	53.580	-1.300	-0.500																			1580018176.0	6.94	12.85
26/01/2020 05:56:17	26012020	260120	055617	53.530	12.651540	-57.325903	53.340	-0.300	-0.100	-0.070	53.500	-1.100	-0.200																			1580018177.0	6.86	12.70
26/01/2020 05:56:18	26012020	260120	055618	53.400	12.651558	-57.325875	53.410	0.010	-0.770	0.270	53.390	-1.400	0.300																			1580018178.0	7.21	13.35
26/01/2020 05:56:19	26012020	260120	055619	53.430	12.651578	-57.325843	53.520	0.270	-0.990	0.450	53.440	-2.400	0.800																			1580018179.0	7.83	14.50
26/01/2020 05:56:20	26012020	260120	055620	53.530	12.651598	-57.325813	53.580	0.260	-0.410	0.410	53.550	-2.400	0.800																			1580018180.0	7.97	14.76
26/01/2020 05:56:21	26012020	260120	055621	53.610	12.651618	-57.325785	53.580	-0.010	0.450	0.240	53.610	-1.300	0.700																			1580018181.0	7.35	13.61
26/01/2020 05:56:22	26012020	260120	055622	53.610	12.651637	-57.325760	53.560	-0.230	0.760	-0.010	53.610	-1.000	0.600																			1580018182.0	6.58	12.19
26/01/2020 05:56:23	26012020	260120	055623	53.610	12.651657	-57.325737	53.580	-0.210	0.350	-0.340	53.610	-0.600	0.400																			1580018183.0	6.56	12.15
26/01/2020 05:56:24	26012020	260120	055624	53.640	12.651678	-57.325710	53.560	-0.050	-0.240	-0.620	53.640	-1.000	0.100																			1580018184.0	7.26	13.45
26/01/2020 05:56:25	26012020	260120	055625	53.640	12.651703	-57.325683	53.520	0.040	-0.560	-0.740	53.630	-1.600	-0.200																			1580018185.0	7.77	14.39
26/01/2020 05:56:26	26012020	260120	055626	53.600	12.651725	-57.325655	53.520	0.020	-0.590	-0.760	53.600	-1.900	-0.400																			1580018186.0	7.63	14.13
26/01/2020 05:56:27	26012020	260120	055627	53.600	12.651747	-57.325628	53.490	-0.010	-0.470	-0.580	53.600	-2.000	-0.400																			1580018187.0	7.28	13.48
26/01/2020 05:56:28	26012020	260120	055628	53.570	12.651767	-57.325602	53.390	0.070	-0.310	-0.250	53.550	-1.900	-0.200																			1580018188.0	7.12	13.19
26/01/2020 05:56:29	26012020	260120	055629	53.470	12.651787	-57.325575	53.310	0.240	-0.280	0.090	53.440	-1.700	0.100																			1580018189.0	7.11	13.17
26/01/2020 05:56:30	26012020	260120	055630	53.370	12.651807	-57.325547	53.360	0.340	-0.340	0.300	53.360	-1.700	0.400																			1580018190.0	7.24	13.41
26/01/2020 05:56:31	26012020	260120	055631	53.380	12.651827	-57.325518	53.470	0.160	-0.140	0.460	53.390	-1.700	0.800																			1580018191.0	7.52	13.93
26/01/2020 05:56:32	26012020	260120	055632	53.480	12.651847	-57.325488	53.540	-0.230	0.370	0.530	53.500	-1.600	0.800																			1580018192.0	7.50	13.89
26/01/2020 05:56:33	26012020	260120	055633	53.560	12.651865	-57.325462	53.590	-0.550	0.610	0.440	53.580	-0.800	0.900																			1580018193.0	6.99	12.95
26/01/2020 05:56:34	26012020	260120	055634	53.630	12.651883	-57.325435	53.550	-0.510	0.210	0.290	53.640	-0.800	0.800																			1580018194.0	6.68	12.37
26/01/2020 05:56:35	26012020	260120	055635	53.620	12.651903	-57.325408	53.320	-0.180	-0.520	0.200	53.600	-1.100	0.700																			1580018195.0	7.11	13.17
26/01/2020 05:56:36	26012020	260120	055636	53.420	12.651925	-57.325380	53.060	0.190	-0.950	0.090	53.370	-1.800	0.600																			1580018196.0	7.75	14.35
26/01/2020 05:56:37	26012020	260120	055637	53.150	12.651948	-57.325350	52.970	0.360	-0.740	-0.060	53.100	-2.300	0.500																			1580018197.0	7.92	14.67
26/01/2020 05:56:38	26012020	260120	055638	53.010	12.651972	-57.325323	53.090	0.290	-0.140	-0.370	53.010	-2.200	0.300																			1580018198.0	7.48	13.85
26/01/2020 05:56:39	26012020	260120	055639	53.110	12.651992	-57.325300	53.210	0.100	0.350	-0.680	53.150	-1.600	0.000																			1580018199.0	6.87	12.72
26/01/2020 05:56:40	26012020	260120	055640	53.270	12.652013	-57.325275	53.210	-0.080	0.360	-0.770	53.280	-1.100	-0.300																			1580018200.0	6.70	12.41
26/01/2020 05:56:41	26012020	260120	055641	53.300	12.652033	-57.325250	53.160	-0.110	-0.120	-0.670	53.300	-1.000	-0.400																			1580018201.0	6.94	12.85
26/01/2020 05:56:42	26012020	260120	055642	53.250	12.652055	-57.325223	53.200	0.080	-0.690	-0.480	53.250	-1.400	-0.300																			1580018202.0	7.42	13.74
26/01/2020 05:56:43	26012020	260120	055643	53.260	12.652078	-57.325193	53.300	0.310	-0.800	-0.140	53.270	-2.000	-0.100																			1580018203.0	7.86	14.56
26/01/2020 05:56:44	26012020	260120	055644	53.340	12.652100	-57.325163	53.300	0.300	-0.300	0.380	53.360	-2.200	0.200																			1580018204.0	7.83	14.50
26/01/2020 05:56:45	26012020	260120	055645	53.370	12.652117	-57.325135	53.170	-0.030	0.330	0.820	53.350	-1.700	0.700																			1580018205.0	7.28	13.48
26/01/2020 05:56:46	26012020	260120	055646	53.250	12.652133	-57.325107	53.070	-0.420	0.550	0.970	53.210	-1.100	1.100																			1580018206.0	6.75	12.50
26/01/2020 05:56:47	26012020	260120	055647	53.110	12.652150	-57.325080	53.110	-0.560	0.270	0.790	53.110	-0.800	1.300																			1580018207.0	6.73	12.46
26/01/2020 05:56:48	26012020	260120	055648	53.150	12.652170	-57.325053	53.120	-0.380	-0.200	0.360	53.160	-1.100	1.200																			1580018208.0	7.14	13.22
26/01/2020 05:56:49	26012020	260120	055649	53.190	12.652193	-57.325027	52.990	-0.010	-0.550	-0.070	53.190	-1.500	0.800																			1580018209.0	7.54	13.96
26/01/2020 05:56:50	26012020	260120	055650	53.090	12.652217	-57.325000	52.930	0.360	-0.760	-0.480	53.060	-1.900	0.300																			1580018210.0	7.61	14.09
26/01/2020 05:56:51	26012020	260120	055651	53.010	12.652240	-57.324973	53.030	0.550	-0.760	-0.830	53.020	-2.100	-0.100																			1580018211.0	7.52	13.93
26/01/2020 05:56:52	26012020	260120	055652	53.110	12.652263	-57.324947	53.110	0.400	-0.320	-1.000	53.140	-2.200	-0.400																			1580018212.0	7.49	13.87
26/01/2020 05:56:53	26012020	260120	055653	53.200	12.652287	-57.324922	53.070	-0.000	0.320	-0.880	53.200	-1.800	-0.600																			1580018213.0	7.24	13.41
26/01/2020 05:56:54	26012020	260120	055654	53.170	12.652305	-57.324897	53.030	-0.310	0.500	-0.590	53.160	-1.100	-0.500																			1580018214.0	6.76	12.52
26/01/2020 05:56:55	26012020	260120	055655	53.120	12.652325	-57.324872	53.050	-0.230	-0.020	-0.290	53.120	-0.900	-0.300																			1580018215.0	6.72	12.45
26/01/2020 05:56:56	26012020	260120	055656	53.130	12.652345	-57.324843	53.170	0.070	-0.580	0.040	53.150	-1.300	0.000																			1580018216.0	7.38	13.67
26/01/2020 05:56:57	26012020	260120	055657	53.230	12.652367	-57.324812	53.280	0.210	-0.500	0.440	53.250	-2.000	0.600																			1580018217.0	8.00	14.82
26/01/2020 05:56:58	26012020	260120	055658	53.330	12.652387	-57.324782	53.270	0.040	0.030	0.790	53.330	-1.900	0.800																			1580018218.0	7.69	14.24
26/01/2020 05:56:59	26012020	260120	055659	53.330	12.652403	-57.324753	53.170	-0.250	0.380	0.890	53.320	-1.400	1.100																			1580018219.0	6.94	12.85
26/01/2020 05:57:00	26012020	260120	055700	53.230	12.652420	-57.324728	53.080	-0.400	0.170	0.630	53.210	-1.000	1.300	1014.30	25.80	25.80	20.50	20.60	-1.00	72.00	72.00	435.00	25.60	22.00	10.20	87.00	6.80	15	3215.00	27.40	27.40	1580018220.0	6.61	12.24
26/01/2020 05:57:01	26012020	260120	055701	53.140	12.652440	-57.324702	53.030	-0.240	-0.380	0.130	53.120	-1.200	1.000																			1580018221.0	6.97	12.91
26/01/2020 05:57:02	26012020	260120	055702	53.100	12.652465	-57.324675	53.020	0.150	-0.790	-0.330	53.090	-1.700	0.500																			1580018222.0	7.55	13.98
26/01/2020 05:57:03	26012020	260120	055703	53.090	12.652490	-57.324650	53.050	0.480	-0.770	-0.630	53.090	-2.100	0.100																			1580018223.0	7.80	14.45
26/01/2020 05:57:04	26012020	260120	055704	53.110	12.652513	-57.324623	53.010	0.410	-0.380	-0.780	53.110	-2.200	-0.200																			1580018224.0	7.57	14.02
26/01/2020 05:57:05	26012020	260120	055705	53.100	12.652535	-57.324597	52.940	-0.010	0.170	-0.870	53.090	-1.800	-0.400																			1580018225.0	7.22	13.37
26/01/2020 05:57:06	26012020	260120	055706	53.030	12.652555	-57.324572	52.940	-0.360	0.520	-0.860	53.010	-1.200	-0.500																			1580018226.0	6.89	12.76
26/01/2020 05:57:07	26012020	260120	055707	53.000	12.652575	-57.324547	53.070	-0.310	0.360	-0.790	53.010	-0.900	-0.500																			1580018227.0	6.78	12.56
26/01/2020 05:57:08	26012020	260120	055708	53.110	12.652597	-57.324520	53.230	-0.000	-0.170	-0.630	53.140	-1.000	-0.400																			1580018228.0	7.04	13.04
26/01/2020 05:57:09	26012020	260120	055709	53.270	12.652617	-57.324492	53.270	0.210	-0.610	-0.270	53.300	-1.800	-0.100																			1580018229.0	7.58	14.04
26/01/2020 05:57:10	26012020	260120	055710	53.330	12.652637	-57.324462	53.170	0.150	-0.620	0.250	53.330	-1.900	0.000																			1580018230.0	7.77	14.39
26/01/2020 05:57:11	26012020	260120	055711	53.230	12.652657	-57.324432	52.990	-0.080	-0.300	0.660	53.200	-2.000	0.500																			1580018231.0	7.50	13.89
26/01/2020 05:57:12	26012020	260120	055712	53.050	12.652675	-57.324403	52.840	-0.240	0.020	0.870	53.030	-1.700	1.000																			1580018232.0	7.07	13.09
26/01/2020 05:57:13	26012020	260120	055713	52.890	12.652693	-57.324378	52.810	-0.180	0.080	0.810	52.870	-1.400	1.200																			1580018233.0	6.85	12.69
26/01/2020 05:57:14	26012020	260120	055714	52.840	12.652713	-57.324352	52.920	0.010	-0.100	0.480	52.850	-1.300	1.200																			1580018234.0	6.99	12.95
26/01/2020 05:57:15	26012020	260120	055715	52.940	12.652735	-57.324325	53.000	0.130	-0.220	-0.010	52.970	-1.400	0.900																			1580018235.0	7.35	13.61
26/01/2020 05:57:16	26012020	260120	055716	53.050	12.652758	-57.324298	52.960	0.100	-0.230	-0.440	53.060	-1.600	0.400																			1580018236.0	7.49	13.87
26/01/2020 05:57:17	26012020	260120	055717	53.030	12.652782	-57.324272	52.850	0.110	-0.300	-0.710	53.010	-1.600	-0.000																			1580018237.0	7.35	13.61
26/01/2020 05:57:18	26012020	260120	055718	52.930	12.652805	-57.324247	52.830	0.270	-0.470	-0.890	52.910	-1.700	-0.300																			1580018238.0	7.27	13.46
26/01/2020 05:57:19	26012020	260120	055719	52.880	12.652827	-57.324220	52.900	0.320	-0.390	-0.950	52.890	-1.800	-0.500																			1580018239.0	7.46	13.82
26/01/2020 05:57:20	26012020	260120	055720	52.940	12.652850	-57.324193	53.010	0.030	0.110	-0.910	52.960	-1.800	-0.600																			1580018240.0	7.56	14.00
26/01/2020 05:57:21	26012020	260120	055721	53.050	12.652872	-57.324168	53.130	-0.410	0.550	-0.670	53.070	-1.300	-0.600																			1580018241.0	7.09	13.13
26/01/2020 05:57:22	26012020	260120	055722	53.160	12.652890	-57.324143	53.180	-0.580	0.410	-0.190	53.190	-0.800	-0.300																			1580018242.0	6.60	12.22
26/01/2020 05:57:23	26012020	260120	055723	53.240	12.652908	-57.324117	53.110	-0.370	-0.180	0.400	53.240	-0.900	0.100																			1580018243.0	6.85	12.69
26/01/2020 05:57:24	26012020	260120	055724	53.180	12.652927	-57.324085	52.970	-0.020	-0.730	0.830	53.150	-1.500	0.700																			1580018244.0	7.52	13.93
26/01/2020 05:57:25	26012020	260120	055725	53.030	12.652945	-57.324055	52.920	0.220	-0.870	0.920	53.000	-2.100	1.200																			1580018245.0	7.83	14.50
26/01/2020 05:57:26	26012020	260120	055726	52.950	12.652965	-57.324025	52.990	0.320	-0.620	0.630	52.950	-2.200	1.300																			1580018246.0	7.59	14.06
26/01/2020 05:57:27	26012020	260120	055727	53.000	12.652987	-57.323998	53.130	0.370	-0.190	0.120	53.030	-2.000	1.000																			1580018247.0	7.18	13.30
26/01/2020 05:57:28	26012020	260120	055728	53.150	12.653008	-57.323973	53.190	0.310	0.240	-0.330	53.170	-1.600	0.500																			1580018248.0	6.99	12.95
26/01/2020 05:57:29	26012020	260120	055729	53.250	12.653032	-57.323950	53.080	0.110	0.450	-0.560	53.250	-1.200	0.100																			1580018249.0	7.01	12.98
26/01/2020 05:57:30	26012020	260120	055730	53.190	12.653055	-57.323927	52.930	-0.110	0.220	-0.610	53.160	-0.900	-0.200																			1580018250.0	6.99	12.95
26/01/2020 05:57:31	26012020	260120	055731	53.040	12.653077	-57.323902	52.900	-0.210	-0.330	-0.600	53.010	-1.100	-0.300																			1580018251.0	7.20	13.33
26/01/2020 05:57:32	26012020	260120	055732	52.980	12.653098	-57.323873	53.060	-0.170	-0.750	-0.500	52.990	-1.700	-0.200																			1580018252.0	7.59	14.06
26/01/2020 05:57:33	26012020	260120	055733	53.090	12.653120	-57.323843	53.260	-0.120	-0.620	-0.300	53.120	-2.100	-0.200																			1580018253.0	7.78	14.41
26/01/2020 05:57:34	26012020	260120	055734	53.280	12.653140	-57.323815	53.410	-0.150	-0.010	-0.050	53.320	-2.000	0.000																			1580018254.0	7.51	13.91
26/01/2020 05:57:35	26012020	260120	055735	53.430	12.653158	-57.323788	53.490	-0.190	0.490	0.210	53.450	-1.400	0.300																			1580018255.0	6.90	12.78
26/01/2020 05:57:36	26012020	260120	055736	53.530	12.653175	-57.323762	53.480	-0.080	0.330	0.360	53.530	-0.900	0.500																			1580018256.0	6.54	12.11
26/01/2020 05:57:37	26012020	260120	055737	53.530	12.653193	-57.323735	53.420	0.170	-0.320	0.280	53.530	-1.000	0.700																			1580018257.0	6.87	12.72
26/01/2020 05:57:38	26012020	260120	055738	53.480	12.653215	-57.323707	53.360	0.370	-0.780	0.050	53.460	-1.600	0.700																			1580018258.0	7.59	14.06
26/01/2020 05:57:39	26012020	260120	055739	53.420	12.653238	-57.323678	53.330	0.340	-0.660	-0.130	53.400	-2.100	0.400																			1580018259.0	7.92	14.67
26/01/2020 05:57:40	26012020	260120	055740	53.390	12.653263	-57.323652	53.340	0.110	-0.150	-0.210	53.390	-2.100	0.200																			1580018260.0	7.53	13.95
26/01/2020 05:57:41	26012020	260120	055741	53.380	12.653283	-57.323628	53.440	-0.160	0.150	-0.290	53.390	-1.600	0.200																			1580018261.0	6.91	12.80
26/01/2020 05:57:42	26012020	260120	055742	53.460	12.653303	-57.323603	53.600	-0.300	0.070	-0.340	53.490	-1.200	0.100																			1580018262.0	6.74	12.48
26/01/2020 05:57:43	26012020	260120	055743	53.630	12.653323	-57.323577	53.660	-0.260	-0.130	-0.260	53.660	-1.300	0.000																			1580018263.0	7.13	13.20
26/01/2020 05:57:44	26012020	260120	055744	53.710	12.653345	-57.323548	53.640	-0.030	-0.270	-0.160	53.720	-1.500	0.100																			1580018264.0	7.45	13.80
26/01/2020 05:57:45	26012020	260120	055745	53.710	12.653363	-57.323518	53.580	0.250	-0.340	-0.040	53.700	-1.600	0.200																			1580018265.0	7.44	13.78
26/01/2020 05:57:46	26012020	260120	055746	53.650	12.653383	-57.323490	53.480	0.340	-0.270	0.010	53.630	-1.700	0.300																			1580018266.0	7.40	13.70
26/01/2020 05:57:47	26012020	260120	055747	53.540	12.653403	-57.323462	53.420	0.140	0.010	-0.120	53.510	-1.700	0.400																			1580018267.0	7.36	13.63
26/01/2020 05:57:48	26012020	260120	055748	53.470	12.653425	-57.323437	53.540	-0.120	0.230	-0.340	53.460	-1.400	0.300																			1580018268.0	7.13	13.20
26/01/2020 05:57:49	26012020	260120	055749	53.550	12.653447	-57.323412	53.770	-0.180	0.090	-0.510	53.590	-1.100	0.000																			1580018269.0	6.91	12.80
26/01/2020 05:57:50	26012020	260120	055750	53.770	12.653468	-57.323387	53.880	-0.100	-0.330	-0.490	53.810	-1.300	-0.100																			1580018270.0	7.04	13.04
26/01/2020 05:57:51	26012020	260120	055751	53.920	12.653490	-57.323360	53.790	-0.080	-0.580	-0.180	53.920	-1.700	-0.200																			1580018271.0	7.47	13.83
26/01/2020 05:57:52	26012020	260120	055752	53.850	12.653510	-57.323330	53.590	-0.220	-0.430	0.220	53.820	-1.900	0.100																			1580018272.0	7.65	14.17
26/01/2020 05:57:53	26012020	260120	055753	53.650	12.653528	-57.323300	53.500	-0.340	-0.090	0.340	53.610	-1.800	0.500																			1580018273.0	7.32	13.56
26/01/2020 05:57:54	26012020	260120	055754	53.530	12.653547	-57.323273	53.580	-0.210	0.060	0.180	53.530	-1.500	0.700																			1580018274.0	6.90	12.78
26/01/2020 05:57:55	26012020	260120	055755	53.590	12.653567	-57.323248	53.720	0.140	-0.100	-0.150	53.610	-1.300	0.600																			1580018275.0	6.89	12.76
26/01/2020 05:57:56	26012020	260120	055756	53.730	12.653588	-57.323222	53.790	0.430	-0.340	-0.450	53.760	-1.400	0.200																			1580018276.0	7.23	13.39
26/01/2020 05:57:57	26012020	260120	055757	53.830	12.653610	-57.323193	53.760	0.470	-0.370	-0.570	53.840	-1.700	-0.100																			1580018277.0	7.54	13.96
26/01/2020 05:57:58	26012020	260120	055758	53.820	12.653633	-57.323167	53.650	0.270	-0.120	-0.530	53.810	-1.700	-0.200																			1580018278.0	7.52	13.93
26/01/2020 05:57:59	26012020	260120	055759	53.720	12.653655	-57.323140	53.530	0.020	0.130	-0.440	53.690	-1.500	-0.200																			1580018279.0	7.20	13.33
26/01/2020 05:58:00	26012020	260120	055800	53.590	12.653675	-57.323115	53.560	-0.100	-0.010	-0.430	53.560	-1.300	-0.100	1014.20	25.70	25.80	20.40	20.50	-1.00	72.00	72.00	435.00	25.60	23.00	10.30	89.00	7.00	15	3263.00	27.40	27.40	1580018280.0	6.93	12.83
26/01/2020 05:58:01	26012020	260120	055801	53.580	12.653695	-57.323090	53.780	-0.060	-0.370	-0.460	53.600	-1.300	-0.100																			1580018281.0	7.08	13.11
26/01/2020 05:58:02	26012020	260120	055802	53.770	12.653718	-57.323062	53.890	-0.050	-0.400	-0.260	53.820	-1.700	-0.100																			1580018282.0	7.53	13.95
26/01/2020 05:58:03	26012020	260120	055803	53.920	12.653738	-57.323032	53.780	-0.190	-0.040	0.160	53.920	-1.800	0.100																			1580018283.0	7.60	14.08
26/01/2020 05:58:04	26012020	260120	055804	53.830	12.653757	-57.323005	53.690	-0.320	0.160	0.530	53.800	-1.400	0.500																			1580018284.0	7.09	13.13
26/01/2020 05:58:05	26012020	260120	055805	53.710	12.653773	-57.322977	53.680	-0.290	-0.050	0.560	53.700	-1.200	0.900																			1580018285.0	6.82	12.63
26/01/2020 05:58:06	26012020	260120	055806	53.690	12.653792	-57.322948	53.590	-0.140	-0.330	0.340	53.690	-1.400	0.900																			1580018286.0	7.17	13.28
26/01/2020 05:58:07	26012020	260120	055807	53.640	12.653813	-57.322920	53.430	0.020	-0.360	0.080	53.610	-1.700	0.700																			1580018287.0	7.52	13.93
26/01/2020 05:58:08	26012020	260120	055808	53.480	12.653835	-57.322893	53.400	0.160	-0.310	-0.290	53.460	-1.700	0.500																			1580018288.0	7.42	13.74
26/01/2020 05:58:09	26012020	260120	055809	53.430	12.653857	-57.322868	53.500	0.320	-0.350	-0.720	53.440	-1.700	0.100																			1580018289.0	7.18	13.30
26/01/2020 05:58:10	26012020	260120	055810	53.530	12.653880	-57.322843	53.600	0.410	-0.320	-1.000	53.550	-1.700	-0.300																			1580018290.0	7.29	13.50
26/01/2020 05:58:11	26012020	260120	055811	53.640	12.653903	-57.322817	53.590	0.270	-0.030	-0.910	53.660	-1.700	-0.600																			1580018291.0	7.46	13.82
26/01/2020 05:58:12	26012020	260120	055812	53.660	12.653925	-57.322790	53.480	-0.070	0.280	-0.520	53.650	-1.400	-0.600																			1580018292.0	7.26	13.45
26/01/2020 05:58:13	26012020	260120	055813	53.550	12.653945	-57.322763	53.400	-0.370	0.220	-0.100	53.520	-1.100	-0.200																			1580018293.0	6.92	12.82
26/01/2020 05:58:14	26012020	260120	055814	53.440	12.653962	-57.322737	53.410	-0.350	-0.260	0.260	53.440	-1.100	0.200																			1580018294.0	6.96	12.89
26/01/2020 05:58:15	26012020	260120	055815	53.440	12.653982	-57.322707	53.390	-0.050	-0.670	0.600	53.440	-1.600	0.600																			1580018295.0	7.44	13.78
26/01/2020 05:58:16	26012020	260120	055816	53.430	12.654002	-57.322677	53.350	0.270	-0.680	0.800	53.420	-2.000	0.900																			1580018296.0	7.77	14.39
26/01/2020 05:58:17	26012020	260120	055817	53.390	12.654022	-57.322647	53.340	0.300	-0.310	0.700	53.380	-2.100	1.100																			1580018297.0	7.61	14.09
26/01/2020 05:58:18	26012020	260120	055818	53.370	12.654042	-57.322620	53.340	0.030	0.200	0.370	53.360	-1.700	1.100																			1580018298.0	7.22	13.37
26/01/2020 05:58:19	26012020	260120	055819	53.370	12.654062	-57.322595	53.390	-0.260	0.450	-0.090	53.370	-1.200	0.800																			1580018299.0	6.88	12.74
26/01/2020 05:58:20	26012020	260120	055820	53.430	12.654083	-57.322570	53.450	-0.290	0.280	-0.490	53.450	-0.900	0.300																			1580018300.0	6.82	12.63
26/01/2020 05:58:21	26012020	260120	055821	53.500	12.654107	-57.322547	53.410	-0.080	-0.150	-0.740	53.510	-1.100	-0.100																			1580018301.0	7.16	13.26
26/01/2020 05:58:22	26012020	260120	055822	53.480	12.654130	-57.322520	53.410	0.140	-0.620	-0.800	53.480	-1.500	-0.400																			1580018302.0	7.51	13.91
26/01/2020 05:58:23	26012020	260120	055823	53.460	12.654152	-57.322492	53.500	0.190	-0.850	-0.710	53.470	-1.900	-0.400																			1580018303.0	7.65	14.17
26/01/2020 05:58:24	26012020	260120	055824	53.540	12.654173	-57.322462	53.560	0.080	-0.600	-0.460	53.560	-2.200	-0.400																			1580018304.0	7.62	14.11
26/01/2020 05:58:25	26012020	260120	055825	53.620	12.654193	-57.322433	53.450	-0.050	-0.030	-0.020	53.610	-2.000	-0.100																			1580018305.0	7.35	13.61
26/01/2020 05:58:26	26012020	260120	055826	53.530	12.654210	-57.322407	53.230	-0.040	0.250	0.320	53.490	-1.400	0.300																			1580018306.0	6.89	12.76
26/01/2020 05:58:27	26012020	260120	055827	53.320	12.654228	-57.322380	53.150	0.120	0.070	0.350	53.280	-1.100	0.700																			1580018307.0	6.82	12.63
26/01/2020 05:58:28	26012020	260120	055828	53.200	12.654250	-57.322353	53.260	0.240	-0.160	0.160	53.210	-1.300	0.700																			1580018308.0	7.31	13.54
26/01/2020 05:58:29	26012020	260120	055829	53.300	12.654273	-57.322325	53.420	0.120	-0.120	0.010	53.340	-1.500	0.500																			1580018309.0	7.67	14.20
26/01/2020 05:58:30	26012020	260120	055830	53.470	12.654295	-57.322298	53.570	-0.190	0.040	-0.010	53.500	-1.500	0.400																			1580018310.0	7.48	13.85
26/01/2020 05:58:31	26012020	260120	055831	53.620	12.654315	-57.322272	53.670	-0.430	-0.020	0.040	53.650	-1.300	0.300																			1580018311.0	7.07	13.09
26/01/2020 05:58:32	26012020	260120	055832	53.720	12.654335	-57.322245	53.650	-0.420	-0.220	0.180	53.730	-1.400	0.400																			1580018312.0	7.05	13.06
26/01/2020 05:58:33	26012020	260120	055833	53.730	12.654355	-57.322217	53.510	-0.200	-0.340	0.330	53.710	-1.600	0.500																			1580018313.0	7.31	13.54
26/01/2020 05:58:34	26012020	260120	055834	53.590	12.654373	-57.322188	53.390	0.100	-0.480	0.350	53.560	-1.700	0.700																			1580018314.0	7.38	13.67
26/01/2020 05:58:35	26012020	260120	055835	53.460	12.654393	-57.322158	53.340	0.370	-0.630	0.140	53.440	-1.800	0.700																			1580018315.0	7.31	13.54
26/01/2020 05:58:36	26012020	260120	055836	53.400	12.654415	-57.322132	53.330	0.480	-0.510	-0.310	53.390	-2.000	0.500																			1580018316.0	7.50	13.89
26/01/2020 05:58:37	26012020	260120	055837	53.390	12.654438	-57.322105	53.340	0.410	-0.030	-0.650	53.400	-1.900	0.100																			1580018317.0	7.56	14.00
26/01/2020 05:58:38	26012020	260120	055838	53.410	12.654462	-57.322080	53.360	0.200	0.450	-0.700	53.410	-1.400	-0.300																			1580018318.0	7.26	13.45
26/01/2020 05:58:39	26012020	260120	055839	53.420	12.654483	-57.322057	53.430	-0.080	0.510	-0.610	53.430	-0.900	-0.300																			1580018319.0	6.90	12.78
26/01/2020 05:58:40	26012020	260120	055840	53.490	12.654503	-57.322030	53.530	-0.320	0.020	-0.390	53.500	-0.800	-0.300																			1580018320.0	6.94	12.85
26/01/2020 05:58:41	26012020	260120	055841	53.580	12.654525	-57.322003	53.590	-0.440	-0.540	-0.060	53.600	-1.300	-0.100																			1580018321.0	7.39	13.69
26/01/2020 05:58:42	26012020	260120	055842	53.640	12.654545	-57.321972	53.630	-0.460	-0.620	0.380	53.650	-1.900	0.300																			1580018322.0	7.83	14.50
26/01/2020 05:58:43	26012020	260120	055843	53.660	12.654565	-57.321942	53.610	-0.410	-0.200	0.860	53.660	-2.000	0.700																			1580018323.0	7.67	14.20
26/01/2020 05:58:44	26012020	260120	055844	53.650	12.654582	-57.321913	53.540	-0.260	0.160	1.090	53.640	-1.600	1.200																			1580018324.0	7.08	13.11
26/01/2020 05:58:45	26012020	260120	055845	53.580	12.654597	-57.321885	53.450	0.060	-0.010	0.900	53.560	-1.200	1.400																			1580018325.0	6.71	12.43
26/01/2020 05:58:46	26012020	260120	055846	53.500	12.654615	-57.321858	53.400	0.500	-0.550	0.400	53.490	-1.300	1.300																			1580018326.0	6.99	12.95
26/01/2020 05:58:47	26012020	260120	055847	53.460	12.654638	-57.321830	53.370	0.870	-0.920	-0.260	53.450	-1.900	0.800																			1580018327.0	7.65	14.17
26/01/2020 05:58:48	26012020	260120	055848	53.440	12.654665	-57.321803	53.370	0.890	-0.700	-0.760	53.440	-2.300	0.200																			1580018328.0	8.04	14.89
26/01/2020 05:58:49	26012020	260120	055849	53.440	12.654690	-57.321778	53.410	0.410	0.020	-0.900	53.450	-1.700	-0.500																			1580018329.0	7.79	14.43
26/01/2020 05:58:50	26012020	260120	055850	53.480	12.654713	-57.321753	53.490	-0.370	0.700	-0.860	53.490	-1.400	-0.500																			1580018330.0	7.11	13.17
26/01/2020 05:58:51	26012020	260120	055851	53.550	12.654733	-57.321728	53.640	-0.900	0.790	-0.720	53.570	-0.700	-0.500																			1580018331.0	6.62	12.26
26/01/2020 05:58:52	26012020	260120	055852	53.680	12.654752	-57.321703	53.740	-0.870	0.270	-0.310	53.710	-0.600	-0.400																			1580018332.0	6.74	12.48
26/01/2020 05:58:53	26012020	260120	055853	53.790	12.654770	-57.321675	53.660	-0.510	-0.280	0.270	53.790	-1.000	-0.000																			1580018333.0	7.38	13.67
26/01/2020 05:58:54	26012020	260120	055854	53.730	12.654788	-57.321642	53.500	-0.160	-0.570	0.690	53.700	-1.600	0.500																			1580018334.0	7.79	14.43
26/01/2020 05:58:55	26012020	260120	055855	53.550	12.654807	-57.321612	53.430	0.140	-0.710	0.830	53.530	-1.900	1.000																			1580018335.0	7.55	13.98
26/01/2020 05:58:56	26012020	260120	055856	53.450	12.654825	-57.321583	53.430	0.390	-0.740	0.680	53.450	-2.100	1.200																			1580018336.0	7.27	13.46
26/01/2020 05:58:57	26012020	260120	055857	53.450	12.654847	-57.321555	53.430	0.540	-0.550	0.290	53.450	-2.100	1.100																			1580018337.0	7.29	13.50
26/01/2020 05:58:58	26012020	260120	055858	53.470	12.654868	-57.321530	53.380	0.480	-0.210	-0.000	53.460	-1.900	0.700																			1580018338.0	7.31	13.54
26/01/2020 05:58:59	26012020	260120	055859	53.440	12.654892	-57.321505	53.340	0.250	0.110	-0.110	53.430	-1.600	0.400																			1580018339.0	7.19	13.32
26/01/2020 05:59:00	26012020	260120	055900	53.390	12.654913	-57.321478	53.360	-0.010	0.230	-0.300	53.390	-1.300	0.300	1014.20	25.70	25.80	20.50	20.50	0.00	72.00	72.00	435.00	25.60	21.00	10.00	86.00	6.60	15	3270.00	27.40	27.40	1580018340.0	7.12	13.19
26/01/2020 05:59:01	26012020	260120	055901	53.420	12.654933	-57.321453	53.340	-0.170	0.150	-0.440	53.430	-1.100	0.100																			1580018341.0	7.18	13.30
26/01/2020 05:59:02	26012020	260120	055902	53.420	12.654955	-57.321425	53.210	-0.230	-0.010	-0.350	53.400	-1.200	-0.100																			1580018342.0	7.34	13.59
26/01/2020 05:59:03	26012020	260120	055903	53.310	12.654975	-57.321397	53.110	-0.230	-0.120	-0.240	53.290	-1.400	-0.000																			1580018343.0	7.46	13.82
26/01/2020 05:59:04	26012020	260120	055904	53.200	12.654995	-57.321368	53.080	-0.210	-0.170	-0.250	53.190	-1.500	0.100																			1580018344.0	7.40	13.70
26/01/2020 05:59:05	26012020	260120	055905	53.160	12.655015	-57.321340	53.080	-0.150	-0.220	-0.250	53.150	-1.500	0.100																			1580018345.0	7.26	13.45
26/01/2020 05:59:06	26012020	260120	055906	53.150	12.655035	-57.321313	53.100	-0.060	-0.300	-0.190	53.150	-1.600	0.100																			1580018346.0	7.20	13.33
26/01/2020 05:59:07	26012020	260120	055907	53.170	12.655057	-57.321287	53.100	0.060	-0.370	-0.110	53.170	-1.700	0.200																			1580018347.0	7.24	13.41
26/01/2020 05:59:08	26012020	260120	055908	53.170	12.655078	-57.321260	52.990	0.200	-0.380	0.080	53.170	-1.700	0.200																			1580018348.0	7.30	13.52
26/01/2020 05:59:09	26012020	260120	055909	53.090	12.655098	-57.321232	52.870	0.270	-0.320	0.310	53.070	-1.800	0.400																			1580018349.0	7.34	13.59
26/01/2020 05:59:10	26012020	260120	055910	52.960	12.655120	-57.321205	52.800	0.210	-0.210	0.450	52.940	-1.700	0.600																			1580018350.0	7.35	13.61
26/01/2020 05:59:11	26012020	260120	055911	52.870	12.655140	-57.321177	52.800	0.060	-0.010	0.530	52.870	-1.600	0.800																			1580018351.0	7.32	13.56
26/01/2020 05:59:12	26012020	260120	055912	52.860	12.655160	-57.321150	52.890	-0.130	0.160	0.520	52.860	-1.400	0.900																			1580018352.0	7.24	13.41
26/01/2020 05:59:13	26012020	260120	055913	52.930	12.655180	-57.321122	53.040	-0.260	-0.000	0.370	52.960	-1.200	0.900																			1580018353.0	7.08	13.11
26/01/2020 05:59:14	26012020	260120	055914	53.080	12.655198	-57.321095	53.060	-0.250	-0.340	0.200	53.100	-1.400	0.700																			1580018354.0	7.21	13.35
26/01/2020 05:59:15	26012020	260120	055915	53.120	12.655220	-57.321067	52.930	-0.110	-0.440	0.070	53.120	-1.700	0.600																			1580018355.0	7.59	14.06
26/01/2020 05:59:16	26012020	260120	055916	53.030	12.655242	-57.321037	52.780	0.080	-0.190	-0.040	52.990	-1.800	0.400																			1580018356.0	7.62	14.11
26/01/2020 05:59:17	26012020	260120	055917	52.870	12.655263	-57.321010	52.680	0.220	0.090	-0.280	52.840	-1.600	0.300																			1580018357.0	7.27	13.46
26/01/2020 05:59:18	26012020	260120	055918	52.770	12.655283	-57.320985	52.650	0.290	0.070	-0.640	52.760	-1.300	0.100																			1580018358.0	6.96	12.89
26/01/2020 05:59:19	26012020	260120	055919	52.750	12.655305	-57.320960	52.570	0.310	-0.240	-0.930	52.740	-1.300	-0.200																			1580018359.0	7.07	13.09
26/01/2020 05:59:20	26012020	260120	055920	52.690	12.655330	-57.320935	52.530	0.300	-0.590	-0.970	52.670	-1.600	-0.500																			1580018360.0	7.46	13.82
26/01/2020 05:59:21	26012020	260120	055921	52.630	12.655353	-57.320908	52.670	0.180	-0.660	-0.880	52.640	-1.900	-0.600																			1580018361.0	7.72	14.30
26/01/2020 05:59:22	26012020	260120	055922	52.730	12.655377	-57.320880	52.790	-0.120	-0.230	-0.450	52.770	-2.000	-0.500																			1580018362.0	7.71	14.28
26/01/2020 05:59:23	26012020	260120	055923	52.870	12.655398	-57.320852	52.740	-0.500	0.420	0.320	52.880	-1.700	-0.200																			1580018363.0	7.32	13.56
26/01/2020 05:59:24	26012020	260120	055924	52.840	12.655413	-57.320825	52.620	-0.730	0.630	1.030	52.820	-1.000	0.600																			1580018364.0	6.81	12.61
26/01/2020 05:59:25	26012020	260120	055925	52.710	12.655428	-57.320797	52.600	-0.610	0.120	1.300	52.680	-0.700	1.300																			1580018365.0	6.78	12.56
26/01/2020 05:59:26	26012020	260120	055926	52.640	12.655445	-57.320767	52.680	-0.160	-0.650	1.150	52.650	-1.200	1.600																			1580018366.0	7.31	13.54
26/01/2020 05:59:27	26012020	260120	055927	52.730	12.655467	-57.320735	52.650	0.330	-0.950	0.810	52.740	-1.900	1.500																			1580018367.0	7.89	14.61
26/01/2020 05:59:28	26012020	260120	055928	52.730	12.655490	-57.320707	52.470	0.520	-0.560	0.320	52.710	-2.300	1.200																			1580018368.0	7.95	14.72
26/01/2020 05:59:29	26012020	260120	055929	52.580	12.655513	-57.320680	52.270	0.370	0.120	-0.200	52.540	-2.000	0.700																			1580018369.0	7.39	13.69
26/01/2020 05:59:30	26012020	260120	055930	52.380	12.655535	-57.320658	52.170	0.120	0.430	-0.680	52.360	-1.300	0.200																			1580018370.0	6.78	12.56
26/01/2020 05:59:31	26012020	260120	055931	52.280	12.655558	-57.320635	52.230	0.070	0.090	-1.140	52.280	-0.900	-0.300																			1580018371.0	6.70	12.41
26/01/2020 05:59:32	26012020	260120	055932	52.320	12.655582	-57.320612	52.410	0.230	-0.580	-1.510	52.360	-1.200	-0.700																			1580018372.0	7.25	13.43
26/01/2020 05:59:33	26012020	260120	055933	52.510	12.655607	-57.320585	52.430	0.280	-0.870	-1.370	52.540	-1.900	-1.100																			1580018373.0	7.89	14.61
26/01/2020 05:59:34	26012020	260120	055934	52.570	12.655632	-57.320555	52.260	-0.010	-0.310	-0.760	52.550	-2.200	-1.000																			1580018374.0	8.06	14.93
26/01/2020 05:59:35	26012020	260120	055935	52.420	12.655652	-57.320527	52.120	-0.440	0.530	0.010	52.370	-1.800	-0.500																			1580018375.0	7.38	13.67
26/01/2020 05:59:36	26012020	260120	055936	52.230	12.655667	-57.320502	52.180	-0.550	0.620	0.610	52.210	-0.900	0.300																			1580018376.0	6.47	11.98
26/01/2020 05:59:37	26012020	260120	055937	52.230	12.655682	-57.320475	52.310	-0.220	-0.100	0.880	52.260	-0.700	0.900																			1580018377.0	6.52	12.08
26/01/2020 05:59:38	26012020	260120	055938	52.370	12.655702	-57.320445	52.310	0.140	-0.710	1.020	52.390	-1.400	1.200																			1580018378.0	7.51	13.91
26/01/2020 05:59:39	26012020	260120	055939	52.390	12.655723	-57.320413	52.180	0.160	-0.590	1.100	52.370	-2.100	1.400																			1580018379.0	8.09	14.98
26/01/2020 05:59:40	26012020	260120	055940	52.270	12.655745	-57.320385	52.110	-0.080	-0.080	0.910	52.250	-2.000	1.400																			1580018380.0	7.60	14.08
26/01/2020 05:59:41	26012020	260120	055941	52.190	12.655765	-57.320360	52.150	-0.210	0.200	0.420	52.180	-1.500	1.300																			1580018381.0	6.79	12.58
26/01/2020 05:59:42	26012020	260120	055942	52.220	12.655787	-57.320337	52.120	-0.030	0.020	-0.110	52.230	-1.200	0.800																			1580018382.0	6.63	12.28
26/01/2020 05:59:43	26012020	260120	055943	52.230	12.655810	-57.320313	52.020	0.250	-0.380	-0.540	52.210	-1.300	0.300																			1580018383.0	7.09	13.13
26/01/2020 05:59:44	26012020	260120	055944	52.130	12.655833	-57.320287	52.050	0.370	-0.630	-0.920	52.120	-1.700	-0.100																			1580018384.0	7.58	14.04
26/01/2020 05:59:45	26012020	260120	055945	52.130	12.655858	-57.320260	52.220	0.260	-0.530	-1.160	52.150	-2.000	-0.500																			1580018385.0	7.66	14.19
26/01/2020 05:59:46	26012020	260120	055946	52.300	12.655882	-57.320235	52.320	0.050	-0.110	-1.140	52.330	-1.900	-0.800																			1580018386.0	7.43	13.76
26/01/2020 05:59:47	26012020	260120	055947	52.420	12.655903	-57.320210	52.290	-0.070	0.200	-0.780	52.430	-1.500	-0.800																			1580018387.0	7.06	13.08
26/01/2020 05:59:48	26012020	260120	055948	52.400	12.655922	-57.320183	52.260	-0.050	0.140	-0.260	52.390	-1.200	-0.500																			1580018388.0	6.84	12.67
26/01/2020 05:59:49	26012020	260120	055949	52.340	12.655942	-57.320157	52.300	-0.030	-0.060	0.170	52.340	-1.200	0.000																			1580018389.0	7.14	13.22
26/01/2020 05:59:50	26012020	260120	055950	52.360	12.655960	-57.320127	52.390	-0.100	-0.100	0.470	52.370	-1.400	0.500																			1580018390.0	7.46	13.82
26/01/2020 05:59:51	26012020	260120	055951	52.440	12.655980	-57.320098	52.450	-0.150	-0.050	0.710	52.460	-1.500	0.800																			1580018391.0	7.35	13.61
26/01/2020 05:59:52	26012020	260120	055952	52.500	12.656000	-57.320072	52.500	-0.130	-0.100	0.810	52.510	-1.400	1.000																			1580018392.0	7.12	13.19
26/01/2020 05:59:53	26012020	260120	055953	52.540	12.656022	-57.320047	52.570	-0.040	-0.360	0.690	52.550	-1.500	1.200																			1580018393.0	7.08	13.11
26/01/2020 05:59:54	26012020	260120	055954	52.610	12.656043	-57.320018	52.640	0.070	-0.520	0.430	52.620	-1.700	1.100																			1580018394.0	7.30	13.52
26/01/2020 05:59:55	26012020	260120	055955	52.690	12.656065	-57.319992	52.690	0.080	-0.350	0.080	52.700	-1.900	0.800																			1580018395.0	7.50	13.89
26/01/2020 05:59:56	26012020	260120	055956	52.750	12.656087	-57.319965	52.710	-0.060	0.000	-0.230	52.760	-1.800	0.500																			1580018396.0	7.28	13.48
26/01/2020 05:59:57	26012020	260120	055957	52.780	12.656108	-57.319940	52.720	-0.160	0.070	-0.470	52.790	-1.400	0.200																			1580018397.0	6.92	12.82
26/01/2020 05:59:58	26012020	260120	055958	52.800	12.656128	-57.319915	52.790	-0.010	-0.300	-0.730	52.810	-1.300	-0.100																			1580018398.0	6.87	12.72
26/01/2020 05:59:59	26012020	260120	055959	52.860	12.656150	-57.319890	52.880	0.320	-0.650	-0.940	52.880	-1.600	-0.300																			1580018399.0	7.34	13.59
26/01/2020 06:00:00	26012020	260120	060000	52.970	12.656175	-57.319862	52.860	0.500	-0.490	-0.930	52.980	-2.000	-0.600	1014.20	25.80	25.80	20.50	20.60	0.00	72.00	72.00	435.00	25.60	23.00	10.30	88.00	7.00	15	3321.00	27.40	27.40	1580018400.0	7.80	14.45
26/01/2020 06:00:01	26012020	260120	060001	52.980	12.656197	-57.319833	52.730	0.280	0.130	-0.730	52.970	-1.900	-0.600																			1580018401.0	7.63	14.13
26/01/2020 06:00:02	26012020	260120	060002	52.850	12.656218	-57.319808	52.690	-0.160	0.590	-0.500	52.820	-1.300	-0.400																			1580018402.0	6.98	12.93
26/01/2020 06:00:03	26012020	260120	060003	52.770	12.656237	-57.319785	52.890	-0.420	0.410	-0.370	52.780	-0.800	-0.200																			1580018403.0	6.59	12.20
26/01/2020 06:00:04	26012020	260120	060004	52.980	12.656257	-57.319758	53.120	-0.360	-0.130	-0.190	52.980	-0.900	-0.000																			1580018404.0	6.88	12.74
26/01/2020 06:00:05	26012020	260120	060005	53.180	12.656278	-57.319732	53.170	-0.190	-0.490	0.220	53.210	-1.500	0.100																			1580018405.0	7.52	13.93
26/01/2020 06:00:06	26012020	260120	060006	53.260	12.656298	-57.319702	53.090	-0.100	-0.550	0.780	53.250	-1.800	0.500																			1580018406.0	7.65	14.17
26/01/2020 06:00:07	26012020	260120	060007	53.170	12.656317	-57.319672	53.070	0.010	-0.540	1.030	53.150	-1.900	1.100																			1580018407.0	7.33	13.58
26/01/2020 06:00:08	26012020	260120	060008	53.120	12.656335	-57.319643	53.120	0.230	-0.530	0.860	53.120	-1.900	1.400																			1580018408.0	7.11	13.17
26/01/2020 06:00:09	26012020	260120	060009	53.170	12.656355	-57.319617	53.080	0.410	-0.320	0.520	53.190	-1.900	1.200																			1580018409.0	7.21	13.35
26/01/2020 06:00:10	26012020	260120	060010	53.160	12.656377	-57.319590	52.990	0.320	0.090	0.050	53.150	-1.700	0.900																			1580018410.0	7.31	13.54
26/01/2020 06:00:11	26012020	260120	060011	53.080	12.656400	-57.319565	52.940	0.030	0.310	-0.510	53.070	-1.300	0.500																			1580018411.0	7.08	13.11
26/01/2020 06:00:12	26012020	260120	060012	53.040	12.656423	-57.319542	52.990	-0.190	0.150	-0.960	53.040	-1.100	-0.100																			1580018412.0	6.96	12.89
26/01/2020 06:00:13	26012020	260120	060013	53.090	12.656447	-57.319518	53.130	-0.260	-0.150	-1.240	53.100	-1.200	-0.600																			1580018413.0	7.24	13.41
26/01/2020 06:00:14	26012020	260120	060014	53.220	12.656470	-57.319492	53.260	-0.220	-0.270	-1.150	53.250	-1.500	-0.900																			1580018414.0	7.52	13.93
26/01/2020 06:00:15	26012020	260120	060015	53.360	12.656492	-57.319465	53.300	-0.140	-0.210	-0.680	53.370	-1.600	-0.800																			1580018415.0	7.44	13.78
26/01/2020 06:00:16	26012020	260120	060016	53.390	12.656512	-57.319437	53.310	0.000	-0.240	-0.170	53.390	-1.600	-0.400																			1580018416.0	7.18	13.30
26/01/2020 06:00:17	26012020	260120	060017	53.390	12.656528	-57.319408	53.320	0.190	-0.440	0.230	53.390	-1.600	0.200																			1580018417.0	7.10	13.15
26/01/2020 06:00:18	26012020	260120	060018	53.390	12.656547	-57.319378	53.320	0.330	-0.520	0.440	53.390	-1.800	0.600																			1580018418.0	7.34	13.59
26/01/2020 06:00:19	26012020	260120	060019	53.390	12.656567	-57.319350	53.400	0.290	-0.220	0.470	53.390	-1.900	0.800																			1580018419.0	7.52	13.93
26/01/2020 06:00:20	26012020	260120	060020	53.460	12.656588	-57.319323	53.530	0.100	0.240	0.430	53.480	-1.600	0.800																			1580018420.0	7.29	13.50
26/01/2020 06:00:21	26012020	260120	060021	53.590	12.656610	-57.319298	53.640	-0.160	0.430	0.430	53.610	-1.200	0.800																			1580018421.0	6.88	12.74
26/01/2020 06:00:22	26012020	260120	060022	53.700	12.656630	-57.319273	53.710	-0.380	0.170	0.380	53.720	-1.000	0.800																			1580018422.0	6.80	12.59
26/01/2020 06:00:23	26012020	260120	060023	53.780	12.656650	-57.319247	53.760	-0.430	-0.380	0.290	53.790	-1.200	0.700																			1580018423.0	7.11	13.17
26/01/2020 06:00:24	26012020	260120	060024	53.830	12.656670	-57.319218	53.770	-0.280	-0.780	0.160	53.840	-1.700	0.700																			1580018424.0	7.53	13.95
26/01/2020 06:00:25	26012020	260120	060025	53.850	12.656692	-57.319188	53.730	0.020	-0.800	-0.030	53.850	-2.100	0.500																			1580018425.0	7.69	14.24
26/01/2020 06:00:26	26012020	260120	060026	53.820	12.656713	-57.319160	53.670	0.320	-0.460	-0.200	53.810	-2.200	0.400																			1580018426.0	7.52	13.93
26/01/2020 06:00:27	26012020	260120	060027	53.750	12.656733	-57.319133	53.670	0.450	-0.020	-0.480	53.740	-1.900	0.200																			1580018427.0	7.22	13.37
26/01/2020 06:00:28	26012020	260120	060028	53.740	12.656755	-57.319108	53.730	0.340	0.340	-0.790	53.750	-1.400	-0.100																			1580018428.0	7.03	13.02
26/01/2020 06:00:29	26012020	260120	060029	53.810	12.656777	-57.319083	53.810	0.050	0.490	-1.020	53.820	-0.900	-0.600																			1580018429.0	7.03	13.02
26/01/2020 06:00:30	26012020	260120	060030	53.890	12.656798	-57.319058	53.990	-0.210	0.330	-1.120	53.920	-0.900	-0.600																			1580018430.0	7.05	13.06
26/01/2020 06:00:31	26012020	260120	060031	54.060	12.656822	-57.319033	54.160	-0.260	-0.150	-0.910	54.100	-1.000	-0.700																			1580018431.0	7.13	13.20
26/01/2020 06:00:32	26012020	260120	060032	54.250	12.656842	-57.319007	54.180	-0.100	-0.670	-0.320	54.270	-1.500	-0.600																			1580018432.0	7.38	13.67
26/01/2020 06:00:33	26012020	260120	060033	54.280	12.656862	-57.318977	54.070	0.070	-0.830	0.370	54.270	-2.000	-0.000																			1580018433.0	7.65	14.17
26/01/2020 06:00:34	26012020	260120	060034	54.150	12.656880	-57.318945	53.940	0.120	-0.560	0.980	54.120	-2.200	0.700																			1580018434.0	7.63	14.13
26/01/2020 06:00:35	26012020	260120	060035	53.990	12.656897	-57.318915	53.840	0.040	-0.170	1.290	53.970	-2.000	1.300																			1580018435.0	7.24	13.41
26/01/2020 06:00:36	26012020	260120	060036	53.870	12.656913	-57.318887	53.800	-0.100	0.050	1.130	53.850	-1.600	1.600																			1580018436.0	6.97	12.91
26/01/2020 06:00:37	26012020	260120	060037	53.820	12.656933	-57.318860	53.810	-0.160	0.110	0.660	53.820	-1.300	1.500																			1580018437.0	7.01	12.98
26/01/2020 06:00:38	26012020	260120	060038	53.860	12.656955	-57.318835	53.870	-0.100	0.090	0.140	53.870	-1.300	1.100																			1580018438.0	7.24	13.41
26/01/2020 06:00:39	26012020	260120	060039	53.930	12.656978	-57.318808	53.950	0.020	-0.060	-0.320	53.940	-1.300	0.600																			1580018439.0	7.35	13.61
26/01/2020 06:00:40	26012020	260120	060040	54.010	12.657000	-57.318782	54.020	0.130	-0.330	-0.750	54.020	-1.400	0.100																			1580018440.0	7.37	13.65
26/01/2020 06:00:41	26012020	260120	060041	54.080	12.657022	-57.318755	54.090	0.180	-0.460	-1.110	54.100	-1.700	-0.300																			1580018441.0	7.49	13.87
26/01/2020 06:00:42	26012020	260120	060042	54.170	12.657045	-57.318727	53.980	0.150	-0.240	-1.120	54.170	-1.900	-0.700																			1580018442.0	7.55	13.98
26/01/2020 06:00:43	26012020	260120	060043	54.090	12.657067	-57.318700	53.800	0.060	0.110	-0.890	54.060	-1.700	-0.800																			1580018443.0	7.30	13.52
26/01/2020 06:00:44	26012020	260120	060044	53.900	12.657087	-57.318675	53.730	-0.010	0.150	-0.610	53.870	-1.300	-0.600																			1580018444.0	6.91	12.80
26/01/2020 06:00:45	26012020	260120	060045	53.790	12.657107	-57.318648	53.770	-0.080	-0.100	-0.290	53.790	-1.200	-0.300																			1580018445.0	6.94	12.85
26/01/2020 06:00:46	26012020	260120	060046	53.810	12.657127	-57.318622	53.840	-0.170	-0.310	0.090	53.830	-1.400	0.000																			1580018446.0	7.35	13.61
26/01/2020 06:00:47	26012020	260120	060047	53.880	12.657147	-57.318592	53.880	-0.250	-0.360	0.580	53.890	-1.700	0.400																			1580018447.0	7.50	13.89
26/01/2020 06:00:48	26012020	260120	060048	53.920	12.657165	-57.318563	53.830	-0.220	-0.400	1.080	53.910	-1.700	0.900																			1580018448.0	7.36	13.63
26/01/2020 06:00:49	26012020	260120	060049	53.870	12.657182	-57.318533	53.790	-0.090	-0.430	1.330	53.860	-1.800	1.400																			1580018449.0	7.32	13.56
26/01/2020 06:00:50	26012020	260120	060050	53.810	12.657200	-57.318503	53.820	0.080	-0.360	1.170	53.810	-1.800	1.700																			1580018450.0	7.40	13.70
26/01/2020 06:00:51	26012020	260120	060051	53.830	12.657218	-57.318473	53.820	0.230	-0.070	0.740	53.830	-1.800	1.600																			1580018451.0	7.38	13.67
26/01/2020 06:00:52	26012020	260120	060052	53.860	12.657240	-57.318447	53.710	0.280	0.260	0.110	53.850	-1.500	1.100																			1580018452.0	7.24	13.41
26/01/2020 06:00:53	26012020	260120	060053	53.780	12.657262	-57.318422	53.560	0.310	0.200	-0.580	53.750	-1.100	0.500																			1580018453.0	7.06	13.08
26/01/2020 06:00:54	26012020	260120	060054	53.650	12.657287	-57.318398	53.540	0.330	-0.260	-1.160	53.630	-1.200	-0.100																			1580018454.0	7.19	13.32
26/01/2020 06:00:55	26012020	260120	060055	53.620	12.657312	-57.318373	53.580	0.160	-0.480	-1.480	53.620	-1.600	-0.700																			1580018455.0	7.67	14.20
26/01/2020 06:00:56	26012020	260120	060056	53.660	12.657337	-57.318347	53.580	-0.320	-0.150	-1.390	53.670	-1.900	-1.100																			1580018456.0	7.84	14.52
26/01/2020 06:00:57	26012020	260120	060057	53.690	12.657358	-57.318320	53.570	-0.840	0.300	-0.900	53.680	-1.600	-1.100																			1580018457.0	7.28	13.48
26/01/2020 06:00:58	26012020	260120	060058	53.660	12.657377	-57.318295	53.590	-0.970	0.290	-0.180	53.660	-1.100	-0.600																			1580018458.0	6.67	12.35
26/01/2020 06:00:59	26012020	260120	060059	53.660	12.657393	-57.318267	53.610	-0.520	-0.270	0.590	53.660	-1.100	0.100																			1580018459.0	6.78	12.56
26/01/2020 06:01:00	26012020	260120	060100	53.650	12.657408	-57.318235	53.590	0.230	-1.010	1.080	53.650	-1.600	0.900	1014.20	25.80	25.80	20.60	20.60	0.00	73.00	73.00	435.00	25.60	18.00	10.00	82.00	6.50	15	3296.00	27.40	27.40	1580018460.0	7.44	13.78
26/01/2020 06:01:01	26012020	260120	060101	53.630	12.657427	-57.318202	53.450	0.820	-1.220	1.230	53.620	-2.300	1.400																			1580018461.0	8.03	14.87
26/01/2020 06:01:02	26012020	260120	060102	53.530	12.657445	-57.318170	53.220	0.930	-0.580	1.110	53.480	-2.600	1.600																			1580018462.0	8.06	14.93
26/01/2020 06:01:03	26012020	260120	060103	53.300	12.657467	-57.318142	53.070	0.590	0.340	0.600	53.260	-2.000	1.500																			1580018463.0	7.37	13.65
26/01/2020 06:01:04	26012020	260120	060104	53.140	12.657488	-57.318118	53.100	0.110	0.850	-0.220	53.140	-1.100	1.000																			1580018464.0	6.68	12.37
26/01/2020 06:01:05	26012020	260120	060105	53.160	12.657512	-57.318098	53.190	-0.200	0.730	-0.930	53.180	-0.600	0.200																			1580018465.0	6.75	12.50
26/01/2020 06:01:06	26012020	260120	060106	53.270	12.657537	-57.318075	53.270	-0.330	0.130	-1.270	53.290	-0.600	-0.500																			1580018466.0	7.21	13.35
26/01/2020 06:01:07	26012020	260120	060107	53.370	12.657562	-57.318050	53.280	-0.390	-0.510	-1.140	53.390	-1.200	-0.900																			1580018467.0	7.61	14.09
26/01/2020 06:01:08	26012020	260120	060108	53.400	12.657585	-57.318020	53.160	-0.480	-0.750	-0.620	53.390	-1.900	-0.800																			1580018468.0	7.82	14.48
26/01/2020 06:01:09	26012020	260120	060109	53.290	12.657603	-57.317990	53.050	-0.550	-0.580	0.000	53.260	-2.100	-0.300																			1580018469.0	7.65	14.17
26/01/2020 06:01:10	26012020	260120	060110	53.150	12.657620	-57.317960	53.030	-0.440	-0.280	0.490	53.130	-2.000	0.300																			1580018470.0	7.20	13.33
26/01/2020 06:01:11	26012020	260120	060111	53.100	12.657635	-57.317932	52.930	-0.090	-0.060	0.780	53.090	-1.700	0.800																			1580018471.0	6.92	12.82
26/01/2020 06:01:12	26012020	260120	060112	53.010	12.657653	-57.317903	52.790	0.370	-0.080	0.820	52.990	-1.500	1.100																			1580018472.0	6.95	12.87
26/01/2020 06:01:13	26012020	260120	060113	52.880	12.657673	-57.317877	52.740	0.730	-0.360	0.610	52.860	-1.400	1.200																			1580018473.0	7.16	13.26
26/01/2020 06:01:14	26012020	260120	060114	52.820	12.657695	-57.317850	52.790	0.800	-0.630	0.200	52.820	-1.700	1.000																			1580018474.0	7.49	13.87
26/01/2020 06:01:15	26012020	260120	060115	52.870	12.657720	-57.317822	52.890	0.560	-0.420	-0.220	52.890	-2.000	0.600																			1580018475.0	7.80	14.45
26/01/2020 06:01:16	26012020	260120	060116	52.980	12.657745	-57.317797	52.970	0.040	0.310	-0.390	53.000	-1.900	0.200																			1580018476.0	7.69	14.24
26/01/2020 06:01:17	26012020	260120	060117	53.080	12.657767	-57.317773	53.030	-0.510	0.850	-0.280	53.090	-1.200	-0.000																			1580018477.0	7.00	12.96
26/01/2020 06:01:18	26012020	260120	060118	53.140	12.657787	-57.317748	53.010	-0.730	0.570	-0.040	53.140	-0.600	0.100																			1580018478.0	6.47	11.98
26/01/2020 06:01:19	26012020	260120	060119	53.120	12.657805	-57.317723	52.910	-0.520	-0.270	0.220	53.110	-1.300	0.500																			1580018479.0	6.84	12.67
26/01/2020 06:01:20	26012020	260120	060120	53.030	12.657825	-57.317692	52.810	-0.150	-0.950	0.470	53.000	-1.600	0.600																			1580018480.0	7.69	14.24
26/01/2020 06:01:21	26012020	260120	060121	52.910	12.657845	-57.317660	52.810	0.120	-1.040	0.580	52.890	-2.500	0.900																			1580018481.0	8.01	14.83
26/01/2020 06:01:22	26012020	260120	060122	52.870	12.657865	-57.317630	52.880	0.200	-0.550	0.460	52.880	-2.400	0.900																			1580018482.0	7.68	14.22
26/01/2020 06:01:23	26012020	260120	060123	52.950	12.657885	-57.317603	52.920	0.200	0.080	0.210	52.960	-2.000	0.800																			1580018483.0	7.09	13.13
26/01/2020 06:01:24	26012020	260120	060124	53.000	12.657905	-57.317580	52.900	0.180	0.350	-0.140	53.010	-1.400	0.600																			1580018484.0	6.69	12.39
26/01/2020 06:01:25	26012020	260120	060125	53.010	12.657927	-57.317555	52.880	0.160	0.120	-0.490	53.000	-1.000	0.300																			1580018485.0	6.79	12.58
26/01/2020 06:01:26	26012020	260120	060126	53.000	12.657948	-57.317530	52.830	0.130	-0.210	-0.680	52.990	-1.200	-0.100																			1580018486.0	7.29	13.50
26/01/2020 06:01:27	26012020	260120	060127	52.970	12.657973	-57.317503	52.690	0.030	-0.210	-0.670	52.940	-1.600	-0.300																			1580018487.0	7.68	14.22
26/01/2020 06:01:28	26012020	260120	060128	52.840	12.657997	-57.317477	52.620	-0.090	-0.160	-0.550	52.810	-1.600	-0.300																			1580018488.0	7.51	13.91
26/01/2020 06:01:29	26012020	260120	060129	52.740	12.658018	-57.317450	52.760	-0.100	-0.340	-0.360	52.740	-1.500	-0.200																			1580018489.0	7.14	13.22
26/01/2020 06:01:30	26012020	260120	060130	52.830	12.658038	-57.317423	52.920	-0.060	-0.390	0.000	52.870	-1.700	-0.000																			1580018490.0	7.26	13.45
26/01/2020 06:01:31	26012020	260120	060131	53.010	12.658058	-57.317393	52.880	-0.190	-0.040	0.450	53.020	-1.800	0.300																			1580018491.0	7.55	13.98
26/01/2020 06:01:32	26012020	260120	060132	52.980	12.658075	-57.317365	52.730	-0.420	0.320	0.770	52.950	-1.500	0.800																			1580018492.0	7.25	13.43
26/01/2020 06:01:33	26012020	260120	060133	52.830	12.658092	-57.317337	52.650	-0.430	0.160	0.790	52.800	-1.100	1.100																			1580018493.0	6.78	12.56
26/01/2020 06:01:34	26012020	260120	060134	52.720	12.658110	-57.317310	52.650	-0.040	-0.420	0.570	52.720	-1.200	1.200																			1580018494.0	6.90	12.78
26/01/2020 06:01:35	26012020	260120	060135	52.730	12.658132	-57.317283	52.570	0.460	-0.810	0.300	52.730	-1.700	1.000																			1580018495.0	7.54	13.96
26/01/2020 06:01:36	26012020	260120	060136	52.690	12.658157	-57.317255	52.460	0.670	-0.660	-0.030	52.660	-2.200	0.700																			1580018496.0	7.89	14.61
26/01/2020 06:01:37	26012020	260120	060137	52.580	12.658180	-57.317228	52.470	0.500	-0.210	-0.410	52.560	-2.100	0.400																			1580018497.0	7.55	13.98
26/01/2020 06:01:38	26012020	260120	060138	52.560	12.658203	-57.317203	52.460	0.130	0.230	-0.640	52.560	-1.600	0.000																			1580018498.0	7.07	13.09
26/01/2020 06:01:39	26012020	260120	060139	52.580	12.658225	-57.317180	52.360	-0.220	0.440	-0.650	52.570	-1.200	-0.200																			1580018499.0	6.90	12.78
26/01/2020 06:01:40	26012020	260120	060140	52.490	12.658247	-57.317155	52.310	-0.400	0.250	-0.550	52.470	-0.900	-0.300																			1580018500.0	6.93	12.83
26/01/2020 06:01:41	26012020	260120	060141	52.420	12.658268	-57.317130	52.510	-0.360	-0.270	-0.430	52.430	-1.100	-0.200																			1580018501.0	7.14	13.22
26/01/2020 06:01:42	26012020	260120	060142	52.570	12.658288	-57.317102	52.700	-0.260	-0.600	-0.130	52.620	-1.600	-0.100																			1580018502.0	7.52	13.93
26/01/2020 06:01:43	26012020	260120	060143	52.780	12.658310	-57.317072	52.680	-0.190	-0.470	0.360	52.810	-2.000	0.200																			1580018503.0	7.72	14.30
26/01/2020 06:01:44	26012020	260120	060144	52.800	12.658328	-57.317042	52.550	-0.060	-0.200	0.740	52.780	-1.900	0.700																			1580018504.0	7.35	13.61
26/01/2020 06:01:45	26012020	260120	060145	52.670	12.658345	-57.317015	52.450	0.190	-0.160	0.830	52.640	-1.600	1.100																			1580018505.0	6.96	12.89
26/01/2020 06:01:46	26012020	260120	060146	52.550	12.658363	-57.316987	52.420	0.420	-0.230	0.550	52.530	-1.500	1.200																			1580018506.0	7.06	13.08
26/01/2020 06:01:47	26012020	260120	060147	52.510	12.658385	-57.316960	52.440	0.410	-0.200	0.020	52.510	-1.600	1.000																			1580018507.0	7.37	13.65
26/01/2020 06:01:48	26012020	260120	060148	52.530	12.658410	-57.316935	52.440	0.170	-0.010	-0.530	52.530	-1.600	0.400																			1580018508.0	7.45	13.80
26/01/2020 06:01:49	26012020	260120	060149	52.540	12.658435	-57.316910	52.560	-0.090	0.100	-0.970	52.540	-1.400	-0.100																			1580018509.0	7.28	13.48
26/01/2020 06:01:50	26012020	260120	060150	52.620	12.658458	-57.316888	52.790	-0.180	-0.050	-1.240	52.670	-1.300	-0.500																			1580018510.0	7.10	13.15
26/01/2020 06:01:51	26012020	260120	060151	52.860	12.658482	-57.316863	52.880	-0.170	-0.230	-1.110	52.910	-1.400	-0.800																			1580018511.0	7.22	13.37
26/01/2020 06:01:52	26012020	260120	060152	53.000	12.658503	-57.316835	52.710	-0.210	-0.230	-0.490	52.990	-1.600	-0.800																			1580018512.0	7.43	13.76
26/01/2020 06:01:53	26012020	260120	060153	52.860	12.658523	-57.316807	52.540	-0.230	-0.290	0.230	52.810	-1.600	-0.200																			1580018513.0	7.33	13.58
26/01/2020 06:01:54	26012020	260120	060154	52.640	12.658540	-57.316778	52.570	-0.110	-0.470	0.620	52.620	-1.700	0.500																			1580018514.0	7.21	13.35
26/01/2020 06:01:55	26012020	260120	060155	52.610	12.658558	-57.316748	52.700	0.060	-0.410	0.620	52.630	-1.900	1.000																			1580018515.0	7.41	13.72
26/01/2020 06:01:56	26012020	260120	060156	52.730	12.658578	-57.316718	52.780	0.140	-0.040	0.430	52.750	-1.800	1.000																			1580018516.0	7.47	13.83
26/01/2020 06:01:57	26012020	260120	060157	52.830	12.658598	-57.316693	52.910	0.190	0.180	0.150	52.850	-1.500	0.800																			1580018517.0	7.09	13.13
26/01/2020 06:01:58	26012020	260120	060158	52.950	12.658620	-57.316668	53.010	0.270	0.110	-0.170	52.990	-1.200	0.500																			1580018518.0	6.93	12.83
26/01/2020 06:01:59	26012020	260120	060159	53.090	12.658643	-57.316643	52.950	0.250	-0.050	-0.390	53.100	-1.300	0.200																			1580018519.0	7.22	13.37
26/01/2020 06:02:00	26012020	260120	060200	53.070	12.658667	-57.316618	52.870	0.100	-0.200	-0.530	53.050	-1.400	0.000	1014.20	25.70	25.80	20.40	20.50	0.00	72.00	72.00	435.00	25.60	19.00	10.10	83.00	6.70	15	3238.00	27.40	27.40	1580018520.0	7.44	13.78
26/01/2020 06:02:01	26012020	260120	060201	52.980	12.658690	-57.316592	52.890	-0.050	-0.410	-0.610	52.970	-1.600	-0.100																			1580018521.0	7.36	13.63
26/01/2020 06:02:02	26012020	260120	060202	52.980	12.658713	-57.316567	52.970	-0.070	-0.550	-0.610	52.990	-1.800	-0.200																			1580018522.0	7.32	13.56
26/01/2020 06:02:03	26012020	260120	060203	53.050	12.658735	-57.316540	53.090	-0.090	-0.440	-0.450	53.070	-1.900	-0.200																			1580018523.0	7.42	13.74
26/01/2020 06:02:04	26012020	260120	060204	53.160	12.658755	-57.316512	53.140	-0.270	-0.030	-0.160	53.190	-1.900	-0.100																			1580018524.0	7.40	13.70
26/01/2020 06:02:05	26012020	260120	060205	53.230	12.658775	-57.316483	53.150	-0.500	0.350	0.130	53.230	-1.500	0.200																			1580018525.0	7.10	13.15
26/01/2020 06:02:06	26012020	260120	060206	53.230	12.658792	-57.316457	53.190	-0.480	0.270	0.240	53.230	-1.100	0.500																			1580018526.0	6.79	12.58
26/01/2020 06:02:07	26012020	260120	060207	53.250	12.658810	-57.316430	53.300	-0.140	-0.160	0.180	53.270	-1.100	0.600																			1580018527.0	6.96	12.89
26/01/2020 06:02:08	26012020	260120	060208	53.360	12.658832	-57.316402	53.360	0.330	-0.580	0.060	53.380	-1.500	0.500																			1580018528.0	7.44	13.78
26/01/2020 06:02:09	26012020	260120	060209	53.440	12.658853	-57.316373	53.390	0.650	-0.700	-0.240	53.450	-2.100	0.300																			1580018529.0	7.69	14.24
26/01/2020 06:02:10	26012020	260120	060210	53.480	12.658877	-57.316345	53.390	0.670	-0.410	-0.590	53.490	-2.100	0.200																			1580018530.0	7.61	14.09
26/01/2020 06:02:11	26012020	260120	060211	53.490	12.658900	-57.316320	53.320	0.430	0.050	-0.740	53.490	-1.800	-0.200																			1580018531.0	7.34	13.59
26/01/2020 06:02:12	26012020	260120	060212	53.430	12.658923	-57.316297	53.320	0.110	0.250	-0.710	53.420	-1.400	-0.400																			1580018532.0	6.99	12.95
26/01/2020 06:02:13	26012020	260120	060213	53.400	12.658945	-57.316273	53.420	-0.100	0.050	-0.580	53.420	-1.100	-0.300																			1580018533.0	6.93	12.83
26/01/2020 06:02:14	26012020	260120	060214	53.500	12.658967	-57.316247	53.460	-0.280	-0.200	-0.300	53.520	-1.300	-0.200																			1580018534.0	7.27	13.46
26/01/2020 06:02:15	26012020	260120	060215	53.560	12.658988	-57.316218	53.460	-0.510	-0.270	0.110	53.560	-1.600	0.000																			1580018535.0	7.59	14.06
26/01/2020 06:02:16	26012020	260120	060216	53.550	12.659007	-57.316188	53.560	-0.620	-0.210	0.490	53.550	-1.700	0.400																			1580018536.0	7.47	13.83
26/01/2020 06:02:17	26012020	260120	060217	53.600	12.659025	-57.316160	53.720	-0.460	-0.170	0.680	53.620	-1.600	0.800																			1580018537.0	7.21	13.35
26/01/2020 06:02:18	26012020	260120	060218	53.740	12.659042	-57.316130	53.850	-0.090	-0.150	0.580	53.770	-1.500	1.000																			1580018538.0	7.16	13.26
26/01/2020 06:02:19	26012020	260120	060219	53.890	12.659060	-57.316102	53.850	0.250	-0.070	0.330	53.910	-1.500	1.000																			1580018539.0	7.21	13.35
26/01/2020 06:02:20	26012020	260120	060220	53.930	12.659082	-57.316075	53.680	0.420	-0.080	0.030	53.910	-1.500	0.700																			1580018540.0	7.21	13.35
26/01/2020 06:02:21	26012020	260120	060221	53.780	12.659103	-57.316050	53.560	0.530	-0.380	-0.460	53.730	-1.400	0.400																			1580018541.0	7.16	13.26
26/01/2020 06:02:22	26012020	260120	060222	53.630	12.659127	-57.316025	53.500	0.610	-0.710	-0.980	53.620	-1.700	-0.000																			1580018542.0	7.37	13.65
26/01/2020 06:02:23	26012020	260120	060223	53.590	12.659153	-57.315998	53.440	0.480	-0.490	-1.260	53.580	-2.100	-0.600																			1580018543.0	7.81	14.46
26/01/2020 06:02:24	26012020	260120	060224	53.530	12.659178	-57.315973	53.530	0.030	0.150	-1.200	53.530	-1.900	-0.900																			1580018544.0	7.71	14.28
26/01/2020 06:02:25	26012020	260120	060225	53.570	12.659200	-57.315948	53.780	-0.510	0.570	-0.870	53.600	-1.300	-0.800																			1580018545.0	6.99	12.95
26/01/2020 06:02:26	26012020	260120	060226	53.800	12.659220	-57.315925	54.020	-0.730	0.390	-0.300	53.860	-0.800	-0.500																			1580018546.0	6.60	12.22
26/01/2020 06:02:27	26012020	260120	060227	54.060	12.659237	-57.315897	54.070	-0.540	-0.130	0.480	54.090	-1.000	0.000																			1580018547.0	7.00	12.96
26/01/2020 06:02:28	26012020	260120	060228	54.150	12.659253	-57.315865	54.030	-0.150	-0.650	1.120	54.150	-1.500	0.800																			1580018548.0	7.60	14.08
26/01/2020 06:02:29	26012020	260120	060229	54.100	12.659270	-57.315832	54.000	0.240	-0.900	1.350	54.090	-2.000	1.400																			1580018549.0	7.81	14.46
26/01/2020 06:02:30	26012020	260120	060230	54.050	12.659288	-57.315800	53.960	0.470	-0.710	1.120	54.050	-2.300	1.700																			1580018550.0	7.69	14.24
26/01/2020 06:02:31	26012020	260120	060231	54.020	12.659308	-57.315772	53.850	0.440	-0.090	0.620	54.010	-2.100	1.500																			1580018551.0	7.42	13.74
26/01/2020 06:02:32	26012020	260120	060232	53.930	12.659332	-57.315748	53.720	0.190	0.460	-0.010	53.900	-1.500	1.000																			1580018552.0	7.04	13.04
26/01/2020 06:02:33	26012020	260120	060233	53.810	12.659355	-57.315725	53.790	-0.110	0.480	-0.740	53.790	-1.000	0.400																			1580018553.0	6.81	12.61
26/01/2020 06:02:34	26012020	260120	060234	53.840	12.659378	-57.315703	54.060	-0.240	0.010	-1.400	53.880	-0.900	-0.300																			1580018554.0	7.04	13.04
26/01/2020 06:02:35	26012020	260120	060235	54.110	12.659403	-57.315678	54.230	-0.220	-0.390	-1.590	54.180	-1.300	-1.000																			1580018555.0	7.57	14.02
26/01/2020 06:02:36	26012020	260120	060236	54.360	12.659427	-57.315650	54.100	-0.190	-0.400	-1.270	54.370	-1.800	-1.200																			1580018556.0	7.78	14.41
26/01/2020 06:02:37	26012020	260120	060237	54.270	12.659447	-57.315622	53.910	-0.170	-0.310	-0.740	54.230	-1.800	-0.900																			1580018557.0	7.43	13.76
26/01/2020 06:02:38	26012020	260120	060238	54.050	12.659465	-57.315593	53.940	0.030	-0.440	-0.360	54.030	-1.700	-0.400																			1580018558.0	7.06	13.08
26/01/2020 06:02:39	26012020	260120	060239	54.030	12.659483	-57.315565	54.050	0.360	-0.500	-0.090	54.050	-1.800	-0.000																			1580018559.0	7.18	13.30
26/01/2020 06:02:40	26012020	260120	060240	54.130	12.659503	-57.315537	54.090	0.530	-0.160	0.270	54.150	-1.900	0.300																			1580018560.0	7.50	13.89
26/01/2020 06:02:41	26012020	260120	060241	54.170	12.659525	-57.315508	54.120	0.320	0.250	0.640	54.170	-1.600	0.600																			1580018561.0	7.34	13.59
26/01/2020 06:02:42	26012020	260120	060242	54.190	12.659543	-57.315482	54.180	-0.100	0.260	0.760	54.200	-1.200	1.000																			1580018562.0	6.89	12.76
26/01/2020 06:02:43	26012020	260120	060243	54.220	12.659562	-57.315455	54.270	-0.360	-0.090	0.600	54.230	-1.100	1.100																			1580018563.0	6.94	12.85
26/01/2020 06:02:44	26012020	260120	060244	54.320	12.659582	-57.315427	54.370	-0.330	-0.380	0.400	54.350	-1.400	1.000																			1580018564.0	7.37	13.65
26/01/2020 06:02:45	26012020	260120	060245	54.440	12.659605	-57.315398	54.380	-0.160	-0.400	0.240	54.460	-1.800	0.800																			1580018565.0	7.61	14.09
26/01/2020 06:02:46	26012020	260120	060246	54.480	12.659625	-57.315372	54.290	-0.020	-0.270	0.010	54.470	-1.800	0.600																			1580018566.0	7.41	13.72
26/01/2020 06:02:47	26012020	260120	060247	54.400	12.659647	-57.315345	54.220	0.060	-0.160	-0.280	54.390	-1.700	0.400																			1580018567.0	7.17	13.28
26/01/2020 06:02:48	26012020	260120	060248	54.320	12.659667	-57.315318	54.230	0.050	-0.140	-0.660	54.320	-1.600	0.100																			1580018568.0	7.13	13.20
26/01/2020 06:02:49	26012020	260120	060249	54.330	12.659688	-57.315292	54.340	-0.020	-0.210	-1.020	54.350	-1.500	-0.200																			1580018569.0	7.22	13.37
26/01/2020 06:02:50	26012020	260120	060250	54.440	12.659712	-57.315267	54.420	-0.060	-0.230	-1.200	54.470	-1.600	-0.600																			1580018570.0	7.35	13.61
26/01/2020 06:02:51	26012020	260120	060251	54.550	12.659735	-57.315240	54.370	-0.050	-0.080	-1.050	54.560	-1.600	-0.800																			1580018571.0	7.44	13.78
26/01/2020 06:02:52	26012020	260120	060252	54.530	12.659755	-57.315213	54.350	-0.030	0.020	-0.680	54.510	-1.500	-0.700																			1580018572.0	7.28	13.48
26/01/2020 06:02:53	26012020	260120	060253	54.470	12.659773	-57.315185	54.480	0.020	-0.090	-0.320	54.480	-1.400	-0.400																			1580018573.0	7.09	13.13
26/01/2020 06:02:54	26012020	260120	060254	54.560	12.659792	-57.315157	54.580	0.100	-0.240	-0.010	54.590	-1.500	0.000																			1580018574.0	7.23	13.39
26/01/2020 06:02:55	26012020	260120	060255	54.670	12.659812	-57.315127	54.560	0.210	-0.290	0.290	54.680	-1.600	0.300																			1580018575.0	7.40	13.70
26/01/2020 06:02:56	26012020	260120	060256	54.660	12.659832	-57.315098	54.460	0.300	-0.330	0.490	54.640	-1.700	0.600																			1580018576.0	7.38	13.67
26/01/2020 06:02:57	26012020	260120	060257	54.560	12.659852	-57.315070	54.480	0.270	-0.300	0.530	54.550	-1.700	0.900																			1580018577.0	7.33	13.58
26/01/2020 06:02:58	26012020	260120	060258	54.550	12.659873	-57.315043	54.470	0.050	-0.060	0.560	54.550	-1.700	0.900																			1580018578.0	7.36	13.63
26/01/2020 06:02:59	26012020	260120	060259	54.550	12.659893	-57.315017	54.430	-0.320	0.200	0.550	54.550	-1.300	0.900																			1580018579.0	7.22	13.37
26/01/2020 06:03:00	26012020	260120	060300	54.510	12.659912	-57.314990	54.450	-0.610	0.140	0.360	54.500	-1.200	0.900	1014.20	25.70	25.80	20.30	20.40	0.00	72.00	72.00	435.00	25.60	22.00	10.10	87.00	6.80	15	3237.00	27.40	27.40	1580018580.0	6.98	12.93
26/01/2020 06:03:01	26012020	260120	060301	54.520	12.659932	-57.314962	54.560	-0.590	-0.250	-0.050	54.530	-1.200	0.800																			1580018581.0	7.02	13.00
26/01/2020 06:03:02	26012020	260120	060302	54.630	12.659952	-57.314935	54.660	-0.200	-0.620	-0.420	54.660	-1.600	0.400																			1580018582.0	7.38	13.67
26/01/2020 06:03:03	26012020	260120	060303	54.760	12.659975	-57.314907	54.640	0.260	-0.630	-0.600	54.770	-2.000	-0.000																			1580018583.0	7.70	14.26
26/01/2020 06:03:04	26012020	260120	060304	54.770	12.659997	-57.314878	54.450	0.440	-0.310	-0.630	54.750	-2.000	-0.200																			1580018584.0	7.60	14.08
26/01/2020 06:03:05	26012020	260120	060305	54.600	12.660017	-57.314850	54.230	0.260	0.120	-0.690	54.550	-1.700	-0.300																			1580018585.0	7.27	13.46
26/01/2020 06:03:06	26012020	260120	060306	54.360	12.660037	-57.314825	54.170	0.030	0.230	-0.830	54.320	-1.300	-0.300																			1580018586.0	6.95	12.87
26/01/2020 06:03:07	26012020	260120	060307	54.270	12.660058	-57.314800	54.350	0.050	-0.070	-0.970	54.280	-1.100	-0.400																			1580018587.0	6.96	12.89
26/01/2020 06:03:08	26012020	260120	060308	54.420	12.660082	-57.314773	54.550	0.140	-0.270	-0.930	54.470	-1.400	-0.600																			1580018588.0	7.43	13.76
26/01/2020 06:03:09	26012020	260120	060309	54.640	12.660103	-57.314745	54.630	0.080	-0.140	-0.550	54.670	-1.700	-0.600																			1580018589.0	7.69	14.24
26/01/2020 06:03:10	26012020	260120	060310	54.730	12.660123	-57.314717	54.560	-0.070	0.040	0.050	54.730	-1.500	-0.200																			1580018590.0	7.33	13.58
26/01/2020 06:03:11	26012020	260120	060311	54.680	12.660140	-57.314688	54.460	-0.100	-0.130	0.620	54.660	-1.400	0.400																			1580018591.0	6.98	12.93
26/01/2020 06:03:12	26012020	260120	060312	54.560	12.660157	-57.314660	54.260	-0.000	-0.480	1.060	54.540	-1.500	0.900																			1580018592.0	7.13	13.20
26/01/2020 06:03:13	26012020	260120	060313	54.380	12.660175	-57.314628	54.070	0.000	-0.520	1.250	54.330	-1.800	1.400																			1580018593.0	7.59	14.06
26/01/2020 06:03:14	26012020	260120	060314	54.160	12.660195	-57.314598	54.050	-0.110	-0.270	1.070	54.140	-1.900	1.600																			1580018594.0	7.60	14.08
26/01/2020 06:03:15	26012020	260120	060315	54.110	12.660215	-57.314572	54.130	-0.170	-0.060	0.610	54.120	-1.700	1.500																			1580018595.0	7.15	13.24
26/01/2020 06:03:16	26012020	260120	060316	54.200	12.660237	-57.314547	54.070	-0.180	0.080	0.130	54.210	-1.500	1.000																			1580018596.0	7.03	13.02
26/01/2020 06:03:17	26012020	260120	060317	54.200	12.660258	-57.314520	53.930	-0.180	0.130	-0.410	54.170	-1.300	0.600																			1580018597.0	7.19	13.32
26/01/2020 06:03:18	26012020	260120	060318	54.070	12.660280	-57.314495	53.850	-0.160	0.010	-0.910	54.050	-1.300	0.000																			1580018598.0	7.22	13.37
26/01/2020 06:03:19	26012020	260120	060319	53.990	12.660302	-57.314468	53.840	-0.010	-0.270	-1.210	53.980	-1.400	-0.500																			1580018599.0	7.26	13.45
26/01/2020 06:03:20	26012020	260120	060320	53.980	12.660325	-57.314443	53.840	0.260	-0.540	-1.350	53.990	-1.600	-0.800																			1580018600.0	7.39	13.69
26/01/2020 06:03:21	26012020	260120	060321	53.990	12.660348	-57.314415	53.810	0.450	-0.530	-1.250	53.990	-1.900	-1.000																			1580018601.0	7.56	14.00
26/01/2020 06:03:22	26012020	260120	060322	53.960	12.660370	-57.314388	53.770	0.400	-0.290	-0.830	53.950	-1.900	-0.900																			1580018602.0	7.50	13.89
26/01/2020 06:03:23	26012020	260120	060323	53.900	12.660390	-57.314360	53.690	0.220	-0.060	-0.150	53.890	-1.700	-0.500																			1580018603.0	7.22	13.37
26/01/2020 06:03:24	26012020	260120	060324	53.820	12.660408	-57.314333	53.620	0.060	-0.000	0.530	53.800	-1.400	0.200																			1580018604.0	7.07	13.09
26/01/2020 06:03:25	26012020	260120	060325	53.740	12.660427	-57.314303	53.540	-0.110	0.000	1.020	53.730	-1.400	0.800																			1580018605.0	7.23	13.39
26/01/2020 06:03:26	26012020	260120	060326	53.660	12.660445	-57.314273	53.440	-0.350	0.100	1.320	53.640	-1.400	1.400																			1580018606.0	7.41	13.72
26/01/2020 06:03:27	26012020	260120	060327	53.530	12.660463	-57.314245	53.430	-0.480	0.080	1.370	53.500	-1.300	1.700																			1580018607.0	7.29	13.50
26/01/2020 06:03:28	26012020	260120	060328	53.480	12.660482	-57.314218	53.620	-0.330	-0.220	1.060	53.500	-1.300	1.700																			1580018608.0	7.11	13.17
26/01/2020 06:03:29	26012020	260120	060329	53.650	12.660503	-57.314190	53.740	-0.060	-0.450	0.520	53.700	-1.600	1.500																			1580018609.0	7.34	13.59
26/01/2020 06:03:30	26012020	260120	060330	53.820	12.660525	-57.314162	53.620	0.070	-0.340	0.010	53.830	-1.800	0.900																			1580018610.0	7.57	14.02
26/01/2020 06:03:31	26012020	260120	060331	53.750	12.660547	-57.314135	53.370	-0.000	-0.090	-0.420	53.710	-1.800	0.400																			1580018611.0	7.37	13.65
26/01/2020 06:03:32	26012020	260120	060332	53.520	12.660570	-57.314112	53.230	-0.050	-0.050	-0.820	53.480	-1.500	0.000																			1580018612.0	7.04	13.04
26/01/2020 06:03:33	26012020	260120	060333	53.360	12.660592	-57.314087	53.250	0.090	-0.290	-1.230	53.340	-1.400	-0.400																			1580018613.0	7.03	13.02
26/01/2020 06:03:34	26012020	260120	060334	53.370	12.660615	-57.314062	53.280	0.270	-0.510	-1.420	53.380	-1.700	-0.800																			1580018614.0	7.39	13.69
26/01/2020 06:03:35	26012020	260120	060335	53.420	12.660638	-57.314033	53.180	0.310	-0.470	-1.260	53.420	-1.900	-1.000																			1580018615.0	7.66	14.19
26/01/2020 06:03:36	26012020	260120	060336	53.350	12.660662	-57.314007	53.130	0.230	-0.280	-0.890	53.330	-1.900	-0.900																			1580018616.0	7.53	13.95
26/01/2020 06:03:37	26012020	260120	060337	53.270	12.660682	-57.313978	53.200	0.150	-0.020	-0.400	53.270	-1.700	-0.600																			1580018617.0	7.28	13.48
26/01/2020 06:03:38	26012020	260120	060338	53.310	12.660702	-57.313952	53.260	-0.010	0.300	0.130	53.320	-1.400	-0.100																			1580018618.0	7.23	13.39
26/01/2020 06:03:39	26012020	260120	060339	53.370	12.660720	-57.313923	53.260	-0.280	0.480	0.620	53.370	-1.100	0.400																			1580018619.0	7.14	13.22
26/01/2020 06:03:40	26012020	260120	060340	53.370	12.660737	-57.313895	53.150	-0.540	0.290	1.050	53.360	-0.900	0.900																			1580018620.0	7.01	12.98
26/01/2020 06:03:41	26012020	260120	060341	53.260	12.660755	-57.313867	53.020	-0.520	-0.290	1.260	53.230	-1.100	1.400																			1580018621.0	7.12	13.19
26/01/2020 06:03:42	26012020	260120	060342	53.120	12.660775	-57.313838	53.070	-0.170	-0.910	1.070	53.110	-1.600	1.600																			1580018622.0	7.46	13.82
26/01/2020 06:03:43	26012020	260120	060343	53.140	12.660798	-57.313808	53.130	0.220	-0.970	0.690	53.150	-2.200	1.500																			1580018623.0	7.83	14.50
26/01/2020 06:03:44	26012020	260120	060344	53.210	12.660820	-57.313780	53.100	0.320	-0.360	0.270	53.220	-2.400	1.100																			1580018624.0	7.78	14.41
26/01/2020 06:03:45	26012020	260120	060345	53.210	12.660842	-57.313753	52.950	0.150	0.300	-0.160	53.200	-1.800	0.700																			1580018625.0	7.12	13.19
26/01/2020 06:03:46	26012020	260120	060346	53.090	12.660862	-57.313730	52.730	-0.030	0.430	-0.630	53.050	-1.100	0.200																			1580018626.0	6.59	12.20
26/01/2020 06:03:47	26012020	260120	060347	52.880	12.660883	-57.313707	52.610	0.020	0.010	-1.090	52.850	-0.900	-0.200																			1580018627.0	6.82	12.63
26/01/2020 06:03:48	26012020	260120	060348	52.760	12.660908	-57.313682	52.600	0.240	-0.470	-1.430	52.750	-1.300	-0.700																			1580018628.0	7.47	13.83
26/01/2020 06:03:49	26012020	260120	060349	52.760	12.660933	-57.313655	52.660	0.340	-0.590	-1.540	52.770	-2.000	-1.200																			1580018629.0	7.91	14.65
26/01/2020 06:03:50	26012020	260120	060350	52.810	12.660958	-57.313628	52.710	0.180	-0.420	-1.230	52.820	-2.000	-1.200																			1580018630.0	7.74	14.33
26/01/2020 06:03:51	26012020	260120	060351	52.860	12.660980	-57.313602	52.820	-0.100	-0.180	-0.580	52.860	-1.700	-0.500																			1580018631.0	7.33	13.58
26/01/2020 06:03:52	26012020	260120	060352	52.940	12.661000	-57.313573	52.930	-0.330	0.090	0.280	52.970	-1.600	-0.300																			1580018632.0	7.16	13.26
26/01/2020 06:03:53	26012020	260120	060353	53.060	12.661017	-57.313545	52.910	-0.460	0.420	1.140	53.060	-1.300	0.600																			1580018633.0	7.20	13.33
26/01/2020 06:03:54	26012020	260120	060354	53.040	12.661032	-57.313515	52.830	-0.470	0.470	1.670	53.020	-1.000	1.400																			1580018634.0	7.10	13.15
26/01/2020 06:03:55	26012020	260120	060355	52.940	12.661048	-57.313487	52.850	-0.280	-0.040	1.670	52.930	-0.900	2.000																			1580018635.0	6.97	12.91
26/01/2020 06:03:56	26012020	260120	060356	52.930	12.661067	-57.313458	52.920	0.120	-0.780	1.190	52.940	-1.300	2.100																			1580018636.0	7.24	13.41
26/01/2020 06:03:57	26012020	260120	060357	53.000	12.661090	-57.313430	52.950	0.550	-1.110	0.470	53.020	-2.100	1.600																			1580018637.0	7.80	14.45
26/01/2020 06:03:58	26012020	260120	060358	53.060	12.661115	-57.313403	52.870	0.720	-0.770	-0.140	53.060	-2.500	0.900																			1580018638.0	7.95	14.72
26/01/2020 06:03:59	26012020	260120	060359	53.010	12.661142	-57.313378	52.770	0.460	-0.050	-0.550	52.990	-2.200	0.300																			1580018639.0	7.57	14.02
26/01/2020 06:04:00	26012020	260120	060400	52.920	12.661165	-57.313355	52.860	-0.100	0.480	-0.860	52.920	-1.500	-0.200	1014.20	25.70	25.80	20.30	20.40	0.00	72.00	72.00	435.00	25.60	21.00	10.20	85.00	6.80	15	3271.00	27.40	27.40	1580018640.0	7.00	12.96
26/01/2020 06:04:01	26012020	260120	060401	52.970	12.661187	-57.313332	53.150	-0.520	0.420	-1.130	53.000	-0.900	-0.500																			1580018641.0	6.72	12.45
26/01/2020 06:04:02	26012020	260120	060402	53.230	12.661208	-57.313307	53.390	-0.540	0.030	-1.110	53.300	-0.900	-0.700																			1580018642.0	7.02	13.00
26/01/2020 06:04:03	26012020	260120	060403	53.500	12.661230	-57.313278	53.370	-0.260	-0.250	-0.690	53.540	-1.300	-0.800																			1580018643.0	7.54	13.96
26/01/2020 06:04:04	26012020	260120	060404	53.530	12.661250	-57.313250	53.190	0.080	-0.410	-0.050	53.500	-1.600	-0.400																			1580018644.0	7.64	14.15
26/01/2020 06:04:05	26012020	260120	060405	53.340	12.661268	-57.313220	53.110	0.300	-0.550	0.390	53.300	-1.800	0.200																			1580018645.0	7.48	13.85
26/01/2020 06:04:06	26012020	260120	060406	53.210	12.661287	-57.313190	53.170	0.290	-0.470	0.420	53.210	-1.900	0.700																			1580018646.0	7.45	13.80
26/01/2020 06:04:07	26012020	260120	060407	53.250	12.661308	-57.313162	53.290	0.040	-0.010	0.270	53.270	-1.900	0.800																			1580018647.0	7.44	13.78
26/01/2020 06:04:08	26012020	260120	060408	53.360	12.661330	-57.313137	53.480	-0.260	0.400	0.050	53.390	-1.400	0.700																			1580018648.0	7.11	13.17
26/01/2020 06:04:09	26012020	260120	060409	53.550	12.661350	-57.313112	53.680	-0.360	0.250	-0.160	53.600	-1.000	0.400																			1580018649.0	6.74	12.48
26/01/2020 06:04:10	26012020	260120	060410	53.780	12.661372	-57.313087	53.740	-0.170	-0.300	-0.210	53.810	-1.100	0.200																			1580018650.0	6.97	12.91
26/01/2020 06:04:11	26012020	260120	060411	53.870	12.661393	-57.313058	53.670	0.140	-0.700	-0.100	53.880	-1.600	0.100																			1580018651.0	7.60	14.08
26/01/2020 06:04:12	26012020	260120	060412	53.830	12.661415	-57.313028	53.470	0.330	-0.650	0.070	53.800	-2.100	0.200																			1580018652.0	7.84	14.52
26/01/2020 06:04:13	26012020	260120	060413	53.650	12.661435	-57.313000	53.290	0.290	-0.260	0.070	53.600	-1.800	0.500																			1580018653.0	7.57	14.02
26/01/2020 06:04:14	26012020	260120	060414	53.450	12.661455	-57.312973	53.250	0.120	0.090	-0.200	53.420	-1.700	0.400																			1580018654.0	7.11	13.17
26/01/2020 06:04:15	26012020	260120	060415	53.380	12.661477	-57.312948	53.270	0.020	0.080	-0.470	53.380	-1.300	0.200																			1580018655.0	6.90	12.78
26/01/2020 06:04:16	26012020	260120	060416	53.410	12.661498	-57.312923	53.370	-0.020	-0.160	-0.670	53.420	-1.300	-0.100																			1580018656.0	7.14	13.22
26/01/2020 06:04:17	26012020	260120	060417	53.490	12.661523	-57.312897	53.580	-0.150	-0.190	-0.700	53.530	-1.500	-0.300																			1580018657.0	7.56	14.00
26/01/2020 06:04:18	26012020	260120	060418	53.690	12.661545	-57.312870	53.710	-0.440	0.120	-0.400	53.730	-1.600	-0.300																			1580018658.0	7.61	14.09
26/01/2020 06:04:19	26012020	260120	060419	53.850	12.661565	-57.312842	53.630	-0.670	0.350	0.130	53.860	-1.300	-0.100																			1580018659.0	7.15	13.24
26/01/2020 06:04:20	26012020	260120	060420	53.810	12.661580	-57.312813	53.490	-0.510	0.080	0.480	53.770	-1.000	0.400																			1580018660.0	6.81	12.61
26/01/2020 06:04:21	26012020	260120	060421	53.650	12.661598	-57.312785	53.500	0.070	-0.620	0.510	53.620	-1.200	0.800																			1580018661.0	7.04	13.04
26/01/2020 06:04:22	26012020	260120	060422	53.620	12.661618	-57.312757	53.510	0.680	-1.070	0.360	53.620	-1.900	0.900																			1580018662.0	7.62	14.11
26/01/2020 06:04:23	26012020	260120	060423	53.640	12.661640	-57.312727	53.500	0.900	-0.840	0.030	53.640	-2.400	0.800																			1580018663.0	7.98	14.78
26/01/2020 06:04:24	26012020	260120	060424	53.640	12.661665	-57.312700	53.490	0.680	-0.190	-0.270	53.640	-2.300	0.400																			1580018664.0	7.57	14.02
26/01/2020 06:04:25	26012020	260120	060425	53.630	12.661687	-57.312675	53.460	0.190	0.420	-0.410	53.630	-1.200	0.000																			1580018665.0	6.99	12.95
26/01/2020 06:04:26	26012020	260120	060426	53.610	12.661708	-57.312652	53.480	-0.330	0.570	-0.460	53.600	-1.000	-0.000																			1580018666.0	6.78	12.56
26/01/2020 06:04:27	26012020	260120	060427	53.610	12.661730	-57.312628	53.570	-0.630	0.200	-0.430	53.620	-1.000	-0.100																			1580018667.0	6.92	12.82
26/01/2020 06:04:28	26012020	260120	060428	53.700	12.661752	-57.312600	53.610	-0.580	-0.320	-0.180	53.720	-1.100	-0.100																			1580018668.0	7.35	13.61
26/01/2020 06:04:29	26012020	260120	060429	53.770	12.661772	-57.312570	53.480	-0.320	-0.530	0.270	53.770	-1.600	0.200																			1580018669.0	7.73	14.32
26/01/2020 06:04:30	26012020	260120	060430	53.670	12.661790	-57.312538	53.250	-0.090	-0.370	0.660	53.620	-1.900	0.600																			1580018670.0	7.71	14.28
26/01/2020 06:04:31	26012020	260120	060431	53.430	12.661807	-57.312510	53.180	0.090	-0.170	0.620	53.390	-1.800	1.000																			1580018671.0	7.32	13.56
26/01/2020 06:04:32	26012020	260120	060432	53.310	12.661827	-57.312482	53.260	0.270	-0.160	0.100	53.320	-1.600	1.000																			1580018672.0	6.99	12.95
26/01/2020 06:04:33	26012020	260120	060433	53.380	12.661848	-57.312457	53.390	0.420	-0.210	-0.570	53.400	-1.500	0.500																			1580018673.0	7.16	13.26
26/01/2020 06:04:34	26012020	260120	060434	53.520	12.661873	-57.312432	53.580	0.370	-0.140	-1.040	53.560	-1.600	-0.100																			1580018674.0	7.48	13.85
26/01/2020 06:04:35	26012020	260120	060435	53.720	12.661898	-57.312408	53.720	0.100	0.030	-1.020	53.760	-1.500	-0.600																			1580018675.0	7.46	13.82
26/01/2020 06:04:36	26012020	260120	060436	53.880	12.661922	-57.312383	53.660	-0.230	0.120	-0.560	53.890	-1.400	-0.700																			1580018676.0	7.17	13.28
26/01/2020 06:04:37	26012020	260120	060437	53.840	12.661940	-57.312357	53.460	-0.410	-0.060	0.040	53.820	-1.300	-0.200																			1580018677.0	7.02	13.00
26/01/2020 06:04:38	26012020	260120	060438	53.660	12.661958	-57.312327	53.290	-0.280	-0.520	0.560	53.610	-1.400	0.400																			1580018678.0	7.14	13.22
26/01/2020 06:04:39	26012020	260120	060439	53.470	12.661977	-57.312297	53.200	0.060	-0.860	0.920	53.430	-2.100	1.100																			1580018679.0	7.53	13.95
26/01/2020 06:04:40	26012020	260120	060440	53.330	12.661995	-57.312265	53.170	0.350	-0.740	0.970	53.310	-2.200	1.300																			1580018680.0	7.81	14.46
26/01/2020 06:04:41	26012020	260120	060441	53.280	12.662015	-57.312237	53.190	0.410	-0.270	0.720	53.280	-2.100	1.300																			1580018681.0	7.60	14.08
26/01/2020 06:04:42	26012020	260120	060442	53.300	12.662037	-57.312210	53.200	0.280	0.280	0.320	53.300	-1.700	1.100																			1580018682.0	7.22	13.37
26/01/2020 06:04:43	26012020	260120	060443	53.310	12.662058	-57.312185	53.290	0.050	0.610	-0.190	53.320	-1.100	0.700																			1580018683.0	6.99	12.95
26/01/2020 06:04:44	26012020	260120	060444	53.380	12.662080	-57.312162	53.490	-0.190	0.530	-0.750	53.410	-0.800	0.200																			1580018684.0	6.98	12.93
26/01/2020 06:04:45	26012020	260120	060445	53.580	12.662103	-57.312137	53.670	-0.380	0.160	-1.110	53.630	-0.800	-0.300																			1580018685.0	7.19	13.32
26/01/2020 06:04:46	26012020	260120	060446	53.800	12.662128	-57.312110	53.660	-0.470	-0.180	-1.040	53.830	-1.200	-0.700																			1580018686.0	7.45	13.80
26/01/2020 06:04:47	26012020	260120	060447	53.850	12.662150	-57.312083	53.510	-0.370	-0.490	-0.660	53.830	-1.500	-0.700																			1580018687.0	7.46	13.82
26/01/2020 06:04:48	26012020	260120	060448	53.710	12.662170	-57.312055	53.420	0.000	-0.940	-0.230	53.680	-1.800	-0.300																			1580018688.0	7.30	13.52
26/01/2020 06:04:49	26012020	260120	060449	53.610	12.662188	-57.312027	53.460	0.490	-1.220	0.060	53.600	-2.300	0.100																			1580018689.0	7.43	13.76
26/01/2020 06:04:50	26012020	260120	060450	53.620	12.662208	-57.311995	53.430	0.630	-0.690	0.310	53.620	-2.600	0.400																			1580018690.0	7.78	14.41
26/01/2020 06:04:51	26012020	260120	060451	53.600	12.662228	-57.311967	53.260	0.250	0.390	0.540	53.580	-2.200	0.700																			1580018691.0	7.57	14.02
26/01/2020 06:04:52	26012020	260120	060452	53.440	12.662247	-57.311940	53.130	-0.310	1.020	0.510	53.400	-1.100	0.900																			1580018692.0	6.67	12.35
26/01/2020 06:04:53	26012020	260120	060453	53.270	12.662267	-57.311917	53.200	-0.460	0.610	0.100	53.250	-0.400	0.900																			1580018693.0	6.31	11.69
26/01/2020 06:04:54	26012020	260120	060454	53.300	12.662288	-57.311893	53.430	-0.080	-0.420	-0.390	53.340	-0.700	0.500																			1580018694.0	7.02	13.00
26/01/2020 06:04:55	26012020	260120	060455	53.550	12.662313	-57.311865	53.530	0.320	-0.990	-0.590	53.590	-1.700	0.000																			1580018695.0	8.06	14.93
26/01/2020 06:04:56	26012020	260120	060456	53.690	12.662338	-57.311835	53.410	0.270	-0.650	-0.510	53.690	-2.400	-0.200																			1580018696.0	8.34	15.45
26/01/2020 06:04:57	26012020	260120	060457	53.620	12.662358	-57.311805	53.240	-0.150	0.110	-0.350	53.590	-2.100	-0.200																			1580018697.0	7.54	13.96
26/01/2020 06:04:58	26012020	260120	060458	53.470	12.662377	-57.311780	53.210	-0.430	0.520	-0.270	53.440	-1.300	0.000																			1580018698.0	6.60	12.22
26/01/2020 06:04:59	26012020	260120	060459	53.390	12.662395	-57.311757	53.250	-0.330	0.320	-0.290	53.390	-0.900	0.100																			1580018699.0	6.44	11.93
26/01/2020 06:05:00	26012020	260120	060500	53.420	12.662417	-57.311730	53.280	0.000	-0.270	-0.290	53.430	-1.000	0.100	1014.20	25.70	25.80	20.30	20.30	0.00	72.00	72.00	435.00	25.60	24.00	9.80	91.00	6.60	15	3184.00	27.40	27.40	1580018700.0	6.95	12.87
26/01/2020 06:05:01	26012020	260120	060501	53.480	12.662438	-57.311703	53.330	0.300	-0.770	-0.210	53.490	-1.600	0.100																			1580018701.0	7.56	14.00
26/01/2020 06:05:02	26012020	260120	060502	53.530	12.662460	-57.311673	53.300	0.390	-0.820	-0.040	53.530	-2.100	0.100																			1580018702.0	7.82	14.48
26/01/2020 06:05:03	26012020	260120	060503	53.500	12.662482	-57.311645	53.190	0.320	-0.460	0.220	53.490	-2.200	0.300																			1580018703.0	7.59	14.06
26/01/2020 06:05:04	26012020	260120	060504	53.400	12.662502	-57.311618	53.120	0.190	-0.050	0.380	53.370	-1.900	0.600																			1580018704.0	7.15	13.24
26/01/2020 06:05:05	26012020	260120	060505	53.300	12.662522	-57.311592	53.160	0.040	0.140	0.340	53.290	-1.500	0.700																			1580018705.0	6.93	12.83
26/01/2020 06:05:06	26012020	260120	060506	53.310	12.662542	-57.311567	53.310	-0.180	0.230	0.150	53.330	-1.200	0.700																			1580018706.0	7.10	13.15
26/01/2020 06:05:07	26012020	260120	060507	53.440	12.662565	-57.311540	53.490	-0.450	0.300	-0.020	53.480	-1.200	0.500																			1580018707.0	7.28	13.48
26/01/2020 06:05:08	26012020	260120	060508	53.620	12.662585	-57.311513	53.630	-0.540	0.210	-0.110	53.660	-1.100	0.400																			1580018708.0	7.19	13.32
26/01/2020 06:05:09	26012020	260120	060509	53.770	12.662605	-57.311487	53.640	-0.340	-0.170	-0.080	53.790	-1.100	0.300																			1580018709.0	7.08	13.11
26/01/2020 06:05:10	26012020	260120	060510	53.820	12.662625	-57.311458	53.600	0.030	-0.650	-0.090	53.810	-1.500	0.300																			1580018710.0	7.30	13.52
26/01/2020 06:05:11	26012020	260120	060511	53.770	12.662645	-57.311430	53.600	0.380	-0.860	-0.280	53.770	-2.000	0.300																			1580018711.0	7.59	14.06
26/01/2020 06:05:12	26012020	260120	060512	53.760	12.662668	-57.311400	53.560	0.550	-0.540	-0.550	53.760	-2.200	0.100																			1580018712.0	7.67	14.20
26/01/2020 06:05:13	26012020	260120	060513	53.730	12.662690	-57.311375	53.510	0.480	0.050	-0.760	53.720	-2.000	-0.200																			1580018713.0	7.33	13.58
26/01/2020 06:05:14	26012020	260120	060514	53.680	12.662712	-57.311352	53.560	0.240	0.380	-0.880	53.680	-1.400	-0.400																			1580018714.0	6.87	12.72
26/01/2020 06:05:15	26012020	260120	060515	53.720	12.662733	-57.311328	53.680	-0.000	0.170	-0.820	53.740	-1.000	-0.500																			1580018715.0	6.77	12.54
26/01/2020 06:05:16	26012020	260120	060516	53.840	12.662757	-57.311303	53.780	-0.110	-0.350	-0.580	53.870	-1.200	-0.500																			1580018716.0	7.15	13.24
26/01/2020 06:05:17	26012020	260120	060517	53.950	12.662778	-57.311273	53.810	-0.110	-0.690	-0.200	53.970	-1.700	-0.200																			1580018717.0	7.66	14.19
26/01/2020 06:05:18	26012020	260120	060518	54.000	12.662798	-57.311243	53.780	-0.120	-0.530	0.380	53.990	-2.000	0.100																			1580018718.0	7.85	14.54
26/01/2020 06:05:19	26012020	260120	060519	53.950	12.662817	-57.311213	53.760	-0.230	0.040	0.930	53.930	-1.900	0.700																			1580018719.0	7.57	14.02
26/01/2020 06:05:20	26012020	260120	060520	53.900	12.662833	-57.311183	53.900	-0.390	0.520	0.980	53.900	-1.400	1.200																			1580018720.0	7.04	13.04
26/01/2020 06:05:21	26012020	260120	060521	54.000	12.662848	-57.311157	54.070	-0.450	0.540	0.560	54.040	-0.900	1.400																			1580018721.0	6.65	12.32
26/01/2020 06:05:22	26012020	260120	060522	54.190	12.662868	-57.311132	54.110	-0.240	0.090	0.040	54.220	-0.800	1.000																			1580018722.0	6.79	12.58
26/01/2020 06:05:23	26012020	260120	060523	54.270	12.662892	-57.311107	54.080	0.200	-0.630	-0.460	54.270	-1.200	0.500																			1580018723.0	7.27	13.46
26/01/2020 06:05:24	26012020	260120	060524	54.260	12.662915	-57.311080	53.950	0.610	-1.110	-0.790	54.250	-1.900	-0.000																			1580018724.0	7.73	14.32
26/01/2020 06:05:25	26012020	260120	060525	54.170	12.662940	-57.311052	53.810	0.680	-0.960	-0.990	54.140	-2.500	-0.400																			1580018725.0	7.94	14.70
26/01/2020 06:05:26	26012020	260120	060526	54.020	12.662965	-57.311025	53.730	0.400	-0.320	-1.130	53.990	-2.400	-0.600																			1580018726.0	7.61	14.09
26/01/2020 06:05:27	26012020	260120	060527	53.920	12.662987	-57.311000	53.850	0.060	0.260	-1.160	53.910	-1.800	-0.700																			1580018727.0	6.99	12.95
26/01/2020 06:05:28	26012020	260120	060528	53.990	12.663007	-57.310977	54.120	-0.190	0.540	-0.990	54.030	-1.200	-0.800																			1580018728.0	6.72	12.45
26/01/2020 06:05:29	26012020	260120	060529	54.260	12.663027	-57.310950	54.320	-0.380	0.540	-0.600	54.320	-0.800	-0.400																			1580018729.0	6.94	12.85
26/01/2020 06:05:30	26012020	260120	060530	54.490	12.663045	-57.310922	54.310	-0.440	0.220	-0.050	54.510	-0.800	-0.300																			1580018730.0	7.11	13.17
26/01/2020 06:05:31	26012020	260120	060531	54.500	12.663063	-57.310893	54.170	-0.250	-0.400	0.540	54.480	-1.100	0.300																			1580018731.0	7.25	13.43
26/01/2020 06:05:32	26012020	260120	060532	54.350	12.663082	-57.310863	54.010	0.040	-0.930	0.980	54.320	-1.700	0.800																			1580018732.0	7.54	13.96
26/01/2020 06:05:33	26012020	260120	060533	54.180	12.663100	-57.310832	53.920	0.110	-0.810	1.040	54.150	-2.300	1.300																			1580018733.0	7.84	14.52
26/01/2020 06:05:34	26012020	260120	060534	54.060	12.663120	-57.310802	53.920	-0.080	-0.100	0.800	54.060	-2.200	1.400																			1580018734.0	7.57	14.02
26/01/2020 06:05:35	26012020	260120	060535	54.050	12.663140	-57.310777	53.950	-0.240	0.460	0.430	54.050	-1.600	1.200																			1580018735.0	6.81	12.61
26/01/2020 06:05:36	26012020	260120	060536	54.070	12.663160	-57.310753	53.970	-0.130	0.370	-0.070	54.080	-0.900	0.800																			1580018736.0	6.42	11.89
26/01/2020 06:05:37	26012020	260120	060537	54.100	12.663180	-57.310728	53.920	0.150	-0.190	-0.690	54.100	-1.000	0.400																			1580018737.0	6.86	12.70
26/01/2020 06:05:38	26012020	260120	060538	54.080	12.663203	-57.310702	53.840	0.410	-0.730	-1.250	54.060	-1.500	-0.300																			1580018738.0	7.56	14.00
26/01/2020 06:05:39	26012020	260120	060539	54.030	12.663230	-57.310675	53.890	0.570	-0.880	-1.600	54.030	-2.100	-0.800																			1580018739.0	7.88	14.59
26/01/2020 06:05:40	26012020	260120	060540	54.060	12.663255	-57.310648	53.940	0.590	-0.540	-1.540	54.090	-2.300	-1.200																			1580018740.0	7.77	14.39
26/01/2020 06:05:41	26012020	260120	060541	54.130	12.663278	-57.310623	53.890	0.360	0.040	-1.040	54.130	-2.000	-1.200																			1580018741.0	7.35	13.61
26/01/2020 06:05:42	26012020	260120	060542	54.100	12.663297	-57.310597	53.850	-0.170	0.540	-0.310	54.090	-1.400	-0.700																			1580018742.0	6.94	12.85
26/01/2020 06:05:43	26012020	260120	060543	54.040	12.663313	-57.310570	53.910	-0.720	0.640	0.370	54.040	-0.900	-0.000																			1580018743.0	6.80	12.59
26/01/2020 06:05:44	26012020	260120	060544	54.070	12.663330	-57.310542	54.000	-0.870	0.270	0.930	54.090	-0.700	0.700																			1580018744.0	6.86	12.70
26/01/2020 06:05:45	26012020	260120	060545	54.140	12.663347	-57.310513	54.000	-0.510	-0.340	1.370	54.150	-1.100	1.200																			1580018745.0	7.18	13.30
26/01/2020 06:05:46	26012020	260120	060546	54.140	12.663365	-57.310482	53.970	0.000	-0.780	1.600	54.120	-1.700	1.700																			1580018746.0	7.61	14.09
26/01/2020 06:05:47	26012020	260120	060547	54.090	12.663385	-57.310452	53.950	0.260	-0.780	1.410	54.090	-2.100	1.900																			1580018747.0	7.72	14.30
26/01/2020 06:05:48	26012020	260120	060548	54.060	12.663405	-57.310422	53.980	0.240	-0.390	0.810	54.060	-2.200	1.800																			1580018748.0	7.43	13.76
26/01/2020 06:05:49	26012020	260120	060549	54.090	12.663427	-57.310397	54.070	0.180	0.020	-0.010	54.100	-1.800	1.200																			1580018749.0	7.02	13.00
26/01/2020 06:05:50	26012020	260120	060550	54.190	12.663448	-57.310375	54.170	0.210	0.140	-0.840	54.220	-1.400	0.400																			1580018750.0	6.84	12.67
26/01/2020 06:05:51	26012020	260120	060551	54.330	12.663473	-57.310352	54.150	0.250	-0.010	-1.410	54.340	-1.200	-0.400																			1580018751.0	7.05	13.06
26/01/2020 06:05:52	26012020	260120	060552	54.340	12.663497	-57.310327	54.050	0.210	-0.230	-1.660	54.320	-1.400	-1.000																			1580018752.0	7.36	13.63
26/01/2020 06:05:53	26012020	260120	060553	54.250	12.663520	-57.310300	54.080	0.150	-0.390	-1.630	54.240	-1.600	-1.300																			1580018753.0	7.50	13.89
26/01/2020 06:05:54	26012020	260120	060554	54.250	12.663543	-57.310273	54.090	0.110	-0.420	-1.290	54.250	-1.800	-1.300																			1580018754.0	7.47	13.83
26/01/2020 06:05:55	26012020	260120	060555	54.270	12.663563	-57.310247	54.040	0.040	-0.280	-0.660	54.270	-1.800	-1.000																			1580018755.0	7.42	13.74
26/01/2020 06:05:56	26012020	260120	060556	54.220	12.663583	-57.310217	54.120	-0.090	-0.050	0.060	54.210	-1.700	-0.400																			1580018756.0	7.31	13.54
26/01/2020 06:05:57	26012020	260120	060557	54.240	12.663600	-57.310188	54.340	-0.290	0.190	0.720	54.270	-1.400	0.400																			1580018757.0	7.16	13.26
26/01/2020 06:05:58	26012020	260120	060558	54.420	12.663617	-57.310158	54.430	-0.530	0.440	1.200	54.450	-1.200	1.000																			1580018758.0	7.10	13.15
26/01/2020 06:05:59	26012020	260120	060559	54.530	12.663633	-57.310130	54.400	-0.680	0.420	1.340	54.530	-0.900	1.500																			1580018759.0	6.96	12.89
26/01/2020 06:06:00	26012020	260120	060600	54.500	12.663650	-57.310103	54.350	-0.510	-0.160	1.170	54.490	-0.900	1.700	1014.20	25.70	25.80	20.60	20.60	0.00	73.00	72.00	435.00	25.60	23.00	10.10	89.00	6.80	15	3193.00	27.40	27.40	1580018760.0	6.83	12.65
26/01/2020 06:06:01	26012020	260120	060601	54.460	12.663670	-57.310075	54.290	-0.030	-0.960	0.810	54.450	-1.500	1.600																			1580018761.0	7.20	13.33
26/01/2020 06:06:02	26012020	260120	060602	54.420	12.663693	-57.310047	54.220	0.500	-1.240	0.280	54.410	-2.300	1.200																			1580018762.0	7.80	14.45
26/01/2020 06:06:03	26012020	260120	060603	54.380	12.663717	-57.310018	54.120	0.700	-0.680	-0.270	54.360	-2.600	0.700																			1580018763.0	7.94	14.70
26/01/2020 06:06:04	26012020	260120	060604	54.280	12.663740	-57.309993	54.040	0.520	0.170	-0.740	54.260	-2.100	0.100																			1580018764.0	7.34	13.59
26/01/2020 06:06:05	26012020	260120	060605	54.200	12.663762	-57.309970	54.030	0.230	0.470	-1.150	54.200	-1.300	-0.300																			1580018765.0	6.61	12.24
26/01/2020 06:06:06	26012020	260120	060606	54.200	12.663782	-57.309947	54.040	0.090	0.160	-1.420	54.200	-0.900	-0.700																			1580018766.0	6.65	12.32
26/01/2020 06:06:07	26012020	260120	060607	54.220	12.663805	-57.309922	54.150	0.030	-0.210	-1.510	54.230	-1.200	-1.000																			1580018767.0	7.36	13.63
26/01/2020 06:06:08	26012020	260120	060608	54.320	12.663828	-57.309893	54.240	-0.120	-0.250	-1.210	54.340	-1.600	-1.100																			1580018768.0	7.79	14.43
26/01/2020 06:06:09	26012020	260120	060609	54.430	12.663850	-57.309865	54.240	-0.380	0.010	-0.410	54.440	-1.600	-0.900																			1580018769.0	7.56	14.00
26/01/2020 06:06:10	26012020	260120	060610	54.420	12.663868	-57.309837	54.140	-0.590	0.190	0.520	54.400	-1.400	-0.100																			1580018770.0	7.08	13.11
26/01/2020 06:06:11	26012020	260120	060611	54.310	12.663882	-57.309808	54.030	-0.590	0.000	1.160	54.280	-1.200	0.800																			1580018771.0	6.89	12.76
26/01/2020 06:06:12	26012020	260120	060612	54.180	12.663898	-57.309778	53.940	-0.290	-0.440	1.520	54.150	-1.300	1.500																			1580018772.0	7.08	13.11
26/01/2020 06:06:13	26012020	260120	060613	54.060	12.663917	-57.309748	53.930	0.160	-0.730	1.560	54.040	-1.800	1.900																			1580018773.0	7.47	13.83
26/01/2020 06:06:14	26012020	260120	060614	54.020	12.663937	-57.309718	54.000	0.430	-0.580	1.200	54.030	-2.100	1.900																			1580018774.0	7.65	14.17
26/01/2020 06:06:15	26012020	260120	060615	54.080	12.663957	-57.309690	54.050	0.360	-0.120	0.500	54.090	-2.000	1.600																			1580018775.0	7.41	13.72
26/01/2020 06:06:16	26012020	260120	060616	54.160	12.663978	-57.309665	54.070	0.100	0.300	-0.250	54.180	-1.500	0.900																			1580018776.0	7.02	13.00
26/01/2020 06:06:17	26012020	260120	060617	54.210	12.664002	-57.309642	54.010	-0.120	0.370	-0.850	54.220	-1.100	0.200																			1580018777.0	6.85	12.69
26/01/2020 06:06:18	26012020	260120	060618	54.190	12.664025	-57.309620	53.870	-0.110	-0.020	-1.180	54.170	-1.000	-0.400																			1580018778.0	6.96	12.89
26/01/2020 06:06:19	26012020	260120	060619	54.070	12.664048	-57.309595	53.780	0.140	-0.680	-1.260	54.040	-1.800	-0.900																			1580018779.0	7.31	13.54
26/01/2020 06:06:20	26012020	260120	060620	53.970	12.664072	-57.309567	53.780	0.370	-1.000	-1.110	53.960	-2.000	-0.900																			1580018780.0	7.77	14.39
26/01/2020 06:06:21	26012020	260120	060621	53.960	12.664093	-57.309537	53.820	0.320	-0.630	-0.760	53.970	-2.400	-0.800																			1580018781.0	7.94	14.70
26/01/2020 06:06:22	26012020	260120	060622	53.980	12.664113	-57.309507	53.750	-0.020	0.200	-0.160	53.980	-2.100	-0.400																			1580018782.0	7.47	13.83
26/01/2020 06:06:23	26012020	260120	060623	53.930	12.664130	-57.309480	53.670	-0.430	0.780	0.390	53.900	-1.300	0.100																			1580018783.0	6.81	12.61
26/01/2020 06:06:24	26012020	260120	060624	53.820	12.664145	-57.309453	53.730	-0.580	0.630	0.600	53.810	-0.600	0.700																			1580018784.0	6.50	12.04
26/01/2020 06:06:25	26012020	260120	060625	53.850	12.664163	-57.309427	53.850	-0.390	-0.010	0.650	53.870	-0.700	1.000																			1580018785.0	6.89	12.76
26/01/2020 06:06:26	26012020	260120	060626	53.980	12.664183	-57.309397	53.970	-0.030	-0.490	0.610	54.010	-1.300	1.000																			1580018786.0	7.56	14.00
26/01/2020 06:06:27	26012020	260120	060627	54.110	12.664207	-57.309368	53.980	0.230	-0.610	0.570	54.120	-1.800	1.000																			1580018787.0	7.74	14.33
26/01/2020 06:06:28	26012020	260120	060628	54.140	12.664227	-57.309340	53.850	0.290	-0.530	0.590	54.130	-2.000	0.900																			1580018788.0	7.39	13.69
26/01/2020 06:06:29	26012020	260120	060629	54.020	12.664247	-57.309313	53.650	0.220	-0.460	0.530	53.990	-1.900	1.000																			1580018789.0	7.09	13.13
26/01/2020 06:06:30	26012020	260120	060630	53.820	12.664267	-57.309287	53.510	0.130	-0.430	0.260	53.780	-1.800	0.900																			1580018790.0	7.08	13.11
26/01/2020 06:06:31	26012020	260120	060631	53.670	12.664288	-57.309260	53.480	0.080	-0.300	-0.100	53.650	-1.800	0.700																			1580018791.0	7.28	13.48
26/01/2020 06:06:32	26012020	260120	060632	53.640	12.664312	-57.309235	53.570	0.030	-0.110	-0.390	53.650	-1.700	0.300																			1580018792.0	7.37	13.65
26/01/2020 06:06:33	26012020	260120	060633	53.710	12.664333	-57.309208	53.620	-0.040	0.100	-0.540	53.730	-1.500	0.000																			1580018793.0	7.30	13.52
26/01/2020 06:06:34	26012020	260120	060634	53.780	12.664353	-57.309182	53.530	-0.110	0.220	-0.490	53.780	-1.300	-0.200																			1580018794.0	7.23	13.39
26/01/2020 06:06:35	26012020	260120	060635	53.730	12.664373	-57.309153	53.420	-0.150	0.220	-0.420	53.710	-1.200	-0.100																			1580018795.0	7.21	13.35
26/01/2020 06:06:36	26012020	260120	060636	53.610	12.664393	-57.309125	53.470	-0.170	0.130	-0.520	53.600	-1.200	-0.000																			1580018796.0	7.23	13.39
26/01/2020 06:06:37	26012020	260120	060637	53.640	12.664415	-57.309098	53.580	-0.150	0.010	-0.530	53.670	-1.200	-0.100																			1580018797.0	7.25	13.43
26/01/2020 06:06:38	26012020	260120	060638	53.760	12.664437	-57.309073	53.550	-0.060	-0.220	-0.240	53.770	-1.400	-0.200																			1580018798.0	7.20	13.33
26/01/2020 06:06:39	26012020	260120	060639	53.760	12.664457	-57.309047	53.420	0.100	-0.650	0.220	53.740	-1.600	0.100																			1580018799.0	7.17	13.28
26/01/2020 06:06:40	26012020	260120	060640	53.630	12.664477	-57.309017	53.330	0.260	-1.060	0.630	53.600	-2.000	0.500																			1580018800.0	7.40	13.70
26/01/2020 06:06:41	26012020	260120	060641	53.510	12.664497	-57.308987	53.230	0.310	-0.900	0.900	53.490	-2.400	1.000																			1580018801.0	7.74	14.33
26/01/2020 06:06:42	26012020	260120	060642	53.410	12.664517	-57.308957	53.070	0.140	-0.020	0.990	53.390	-2.300	1.200																			1580018802.0	7.70	14.26
26/01/2020 06:06:43	26012020	260120	060643	53.270	12.664535	-57.308928	52.940	-0.160	0.820	0.900	53.240	-1.500	1.400																			1580018803.0	7.02	13.00
26/01/2020 06:06:44	26012020	260120	060644	53.110	12.664553	-57.308905	52.970	-0.270	0.690	0.490	53.100	-0.600	1.300																			1580018804.0	6.37	11.80
26/01/2020 06:06:45	26012020	260120	060645	53.100	12.664573	-57.308880	53.090	-0.110	-0.150	-0.150	53.120	-0.600	0.900																			1580018805.0	6.75	12.50
26/01/2020 06:06:46	26012020	260120	060646	53.230	12.664598	-57.308853	53.090	0.080	-0.680	-0.590	53.260	-1.400	0.300																			1580018806.0	7.83	14.50
26/01/2020 06:06:47	26012020	260120	060647	53.280	12.664623	-57.308825	53.010	0.060	-0.520	-0.700	53.270	-2.000	-0.200																			1580018807.0	8.16	15.11
26/01/2020 06:06:48	26012020	260120	060648	53.210	12.664647	-57.308798	52.980	-0.130	-0.120	-0.610	53.200	-1.900	-0.300																			1580018808.0	7.50	13.89
26/01/2020 06:06:49	26012020	260120	060649	53.170	12.664665	-57.308772	53.020	-0.280	0.020	-0.460	53.170	-1.500	-0.300																			1580018809.0	6.81	12.61
26/01/2020 06:06:50	26012020	260120	060650	53.190	12.664685	-57.308747	52.990	-0.270	-0.040	-0.230	53.190	-1.400	-0.100																			1580018810.0	6.85	12.69
26/01/2020 06:06:51	26012020	260120	060651	53.170	12.664703	-57.308718	52.970	-0.130	-0.090	0.060	53.160	-1.400	0.100																			1580018811.0	7.21	13.35
26/01/2020 06:06:52	26012020	260120	060652	53.110	12.664723	-57.308690	52.880	0.130	-0.240	0.340	53.100	-1.400	0.400																			1580018812.0	7.27	13.46
26/01/2020 06:06:53	26012020	260120	060653	53.040	12.664743	-57.308662	52.790	0.500	-0.580	0.520	53.030	-1.600	0.700																			1580018813.0	7.25	13.43
26/01/2020 06:06:54	26012020	260120	060654	52.950	12.664763	-57.308633	52.680	0.800	-0.790	0.640	52.940	-1.900	0.900																			1580018814.0	7.49	13.87
26/01/2020 06:06:55	26012020	260120	060655	52.860	12.664785	-57.308605	52.600	0.680	-0.460	0.610	52.830	-2.200	1.000																			1580018815.0	7.76	14.37
26/01/2020 06:06:56	26012020	260120	060656	52.760	12.664808	-57.308577	52.670	0.090	0.300	0.420	52.750	-1.900	1.000																			1580018816.0	7.59	14.06
26/01/2020 06:06:57	26012020	260120	060657	52.790	12.664830	-57.308552	52.910	-0.620	0.890	0.180	52.820	-1.200	0.800																			1580018817.0	6.93	12.83
26/01/2020 06:06:58	26012020	260120	060658	52.990	12.664850	-57.308530	53.180	-1.000	0.810	-0.030	53.050	-0.500	0.600																			1580018818.0	6.49	12.02
26/01/2020 06:06:59	26012020	260120	060659	53.290	12.664870	-57.308505	53.210	-0.900	0.070	-0.010	53.330	-0.500	0.400																			1580018819.0	6.72	12.45
26/01/2020 06:07:00	26012020	260120	060700	53.360	12.664890	-57.308477	52.970	-0.480	-0.820	0.160	53.330	-1.200	0.300	1014.20	25.70	25.80	20.40	20.40	0.00	72.00	72.00	435.00	25.60	16.00	9.70	79.00	6.20	15	3143.00	27.40	27.40	1580018820.0	7.40	13.70
26/01/2020 06:07:01	26012020	260120	060701	53.150	12.664910	-57.308445	52.690	0.030	-1.280	0.250	53.090	-2.100	0.500																			1580018821.0	7.92	14.67
26/01/2020 06:07:02	26012020	260120	060702	52.870	12.664932	-57.308415	52.590	0.500	-1.110	0.090	52.820	-2.600	0.600																			1580018822.0	7.89	14.61
26/01/2020 06:07:03	26012020	260120	060703	52.730	12.664953	-57.308387	52.650	0.820	-0.570	-0.210	52.730	-2.500	0.500																			1580018823.0	7.43	13.76
26/01/2020 06:07:04	26012020	260120	060704	52.780	12.664975	-57.308362	52.660	0.790	0.160	-0.530	52.790	-2.000	0.200																			1580018824.0	7.09	13.13
26/01/2020 06:07:05	26012020	260120	060705	52.820	12.664995	-57.308337	52.580	0.340	0.800	-0.770	52.820	-1.300	-0.100																			1580018825.0	6.93	12.83
26/01/2020 06:07:06	26012020	260120	060706	52.770	12.665017	-57.308313	52.500	-0.180	0.900	-0.770	52.750	-0.600	-0.400																			1580018826.0	6.76	12.52
26/01/2020 06:07:07	26012020	260120	060707	52.680	12.665040	-57.308292	52.630	-0.360	0.200	-0.690	52.670	-0.400	-0.400																			1580018827.0	6.80	12.59
26/01/2020 06:07:08	26012020	260120	060708	52.760	12.665062	-57.308265	52.710	-0.220	-0.710	-0.450	52.800	-1.100	-0.300																			1580018828.0	7.33	13.58
26/01/2020 06:07:09	26012020	260120	060709	52.890	12.665085	-57.308235	52.510	-0.110	-0.970	0.180	52.880	-2.300	0.200																			1580018829.0	8.03	14.87
26/01/2020 06:07:10	26012020	260120	060710	52.750	12.665105	-57.308203	52.230	-0.180	-0.540	0.960	52.690	-2.300	0.500																			1580018830.0	7.93	14.69
26/01/2020 06:07:11	26012020	260120	060711	52.430	12.665122	-57.308175	52.150	-0.280	-0.090	1.320	52.380	-2.000	1.300																			1580018831.0	7.17	13.28
26/01/2020 06:07:12	26012020	260120	060712	52.270	12.665138	-57.308147	52.270	-0.190	-0.020	1.120	52.280	-1.500	1.700																			1580018832.0	6.69	12.39
26/01/2020 06:07:13	26012020	260120	060713	52.390	12.665157	-57.308120	52.360	-0.000	-0.050	0.660	52.420	-1.400	1.500																			1580018833.0	6.94	12.85
26/01/2020 06:07:14	26012020	260120	060714	52.500	12.665178	-57.308093	52.320	0.110	-0.020	0.140	52.510	-1.400	1.100																			1580018834.0	7.33	13.58
26/01/2020 06:07:15	26012020	260120	060715	52.490	12.665202	-57.308068	52.280	0.160	-0.050	-0.320	52.480	-1.400	0.600																			1580018835.0	7.34	13.59
26/01/2020 06:07:16	26012020	260120	060716	52.440	12.665227	-57.308043	52.250	0.210	-0.230	-0.720	52.430	-1.400	0.100																			1580018836.0	7.27	13.46
26/01/2020 06:07:17	26012020	260120	060717	52.420	12.665250	-57.308018	52.230	0.280	-0.430	-1.020	52.410	-1.600	-0.300																			1580018837.0	7.37	13.65
26/01/2020 06:07:18	26012020	260120	060718	52.400	12.665275	-57.307993	52.280	0.260	-0.450	-1.140	52.400	-1.800	-0.600																			1580018838.0	7.53	13.95
26/01/2020 06:07:19	26012020	260120	060719	52.440	12.665298	-57.307967	52.360	0.090	-0.140	-0.910	52.450	-1.800	-0.800																			1580018839.0	7.50	13.89
26/01/2020 06:07:20	26012020	260120	060720	52.530	12.665320	-57.307942	52.420	-0.180	0.310	-0.390	52.540	-1.500	-0.600																			1580018840.0	7.22	13.37
26/01/2020 06:07:21	26012020	260120	060721	52.580	12.665338	-57.307915	52.390	-0.390	0.450	0.230	52.580	-1.100	-0.100																			1580018841.0	6.84	12.67
26/01/2020 06:07:22	26012020	260120	060722	52.550	12.665355	-57.307888	52.360	-0.310	-0.050	0.770	52.540	-0.900	0.500																			1580018842.0	6.75	12.50
26/01/2020 06:07:23	26012020	260120	060723	52.500	12.665373	-57.307860	52.330	0.080	-0.890	1.070	52.490	-1.300	1.100																			1580018843.0	7.19	13.32
26/01/2020 06:07:24	26012020	260120	060724	52.470	12.665395	-57.307828	52.380	0.460	-1.200	1.110	52.470	-2.200	1.400																			1580018844.0	7.91	14.65
26/01/2020 06:07:25	26012020	260120	060725	52.490	12.665417	-57.307798	52.440	0.470	-0.600	0.940	52.500	-2.600	1.500																			1580018845.0	8.10	15.00
26/01/2020 06:07:26	26012020	260120	060726	52.550	12.665438	-57.307772	52.550	0.090	0.400	0.610	52.570	-2.000	1.300																			1580018846.0	7.41	13.72
26/01/2020 06:07:27	26012020	260120	060727	52.650	12.665460	-57.307748	52.640	-0.350	0.970	0.200	52.680	-1.100	1.000																			1580018847.0	6.54	12.11
26/01/2020 06:07:28	26012020	260120	060728	52.770	12.665480	-57.307725	52.680	-0.490	0.640	-0.250	52.780	-0.400	0.600																			1580018848.0	6.38	11.82
26/01/2020 06:07:29	26012020	260120	060729	52.830	12.665502	-57.307702	52.710	-0.290	-0.250	-0.680	52.840	-0.600	0.200																			1580018849.0	6.98	12.93
26/01/2020 06:07:30	26012020	260120	060730	52.870	12.665527	-57.307675	52.750	0.010	-0.900	-0.840	52.880	-1.500	-0.300																			1580018850.0	7.79	14.43
26/01/2020 06:07:31	26012020	260120	060731	52.920	12.665550	-57.307645	52.740	0.140	-0.880	-0.720	52.920	-2.200	-0.500																			1580018851.0	8.04	14.89
26/01/2020 06:07:32	26012020	260120	060732	52.910	12.665572	-57.307617	52.710	0.070	-0.460	-0.590	52.910	-2.300	-0.400																			1580018852.0	7.54	13.96
26/01/2020 06:07:33	26012020	260120	060733	52.890	12.665590	-57.307590	52.680	0.040	-0.080	-0.510	52.880	-1.900	-0.200																			1580018853.0	6.93	12.83
26/01/2020 06:07:34	26012020	260120	060734	52.860	12.665612	-57.307565	52.700	0.210	0.040	-0.390	52.860	-1.500	-0.100																			1580018854.0	6.79	12.58
26/01/2020 06:07:35	26012020	260120	060735	52.870	12.665632	-57.307540	52.740	0.380	0.040	-0.210	52.870	-1.300	0.100																			1580018855.0	7.07	13.09
26/01/2020 06:07:36	26012020	260120	060736	52.890	12.665653	-57.307513	52.830	0.340	0.060	-0.030	52.900	-1.300	0.100																			1580018856.0	7.36	13.63
26/01/2020 06:07:37	26012020	260120	060737	52.960	12.665675	-57.307487	53.040	0.140	-0.060	0.110	52.990	-1.300	0.300																			1580018857.0	7.33	13.58
26/01/2020 06:07:38	26012020	260120	060738	53.150	12.665697	-57.307460	53.260	-0.030	-0.330	0.260	53.200	-1.400	0.500																			1580018858.0	7.26	13.45
26/01/2020 06:07:39	26012020	260120	060739	53.390	12.665718	-57.307432	53.360	-0.180	-0.390	0.520	53.430	-1.700	0.600																			1580018859.0	7.46	13.82
26/01/2020 06:07:40	26012020	260120	060740	53.520	12.665738	-57.307403	53.320	-0.340	-0.170	0.790	53.530	-1.800	0.900																			1580018860.0	7.53	13.95
26/01/2020 06:07:41	26012020	260120	060741	53.500	12.665757	-57.307375	53.250	-0.500	0.110	0.870	53.480	-1.600	1.100																			1580018861.0	7.21	13.35
26/01/2020 06:07:42	26012020	260120	060742	53.420	12.665775	-57.307347	53.250	-0.510	0.160	0.590	53.400	-1.300	1.200																			1580018862.0	6.92	12.82
26/01/2020 06:07:43	26012020	260120	060743	53.410	12.665795	-57.307322	53.350	-0.250	-0.180	0.050	53.420	-1.200	1.000																			1580018863.0	6.92	12.82
26/01/2020 06:07:44	26012020	260120	060744	53.500	12.665817	-57.307295	53.390	0.170	-0.560	-0.510	53.510	-1.500	0.500																			1580018864.0	7.28	13.48
26/01/2020 06:07:45	26012020	260120	060745	53.580	12.665840	-57.307268	53.340	0.470	-0.570	-0.990	53.590	-1.900	-0.100																			1580018865.0	7.69	14.24
26/01/2020 06:07:46	26012020	260120	060746	53.560	12.665865	-57.307242	53.270	0.520	-0.250	-1.320	53.550	-1.900	-0.600																			1580018866.0	7.60	14.08
26/01/2020 06:07:47	26012020	260120	060747	53.480	12.665887	-57.307217	53.250	0.400	-0.030	-1.440	53.470	-1.700	-0.900																			1580018867.0	7.16	13.26
26/01/2020 06:07:48	26012020	260120	060748	53.430	12.665910	-57.307193	53.260	0.250	-0.090	-1.350	53.430	-1.400	-1.000																			1580018868.0	7.00	12.96
26/01/2020 06:07:49	26012020	260120	060749	53.430	12.665933	-57.307168	53.320	0.100	-0.190	-1.080	53.440	-1.400	-1.000																			1580018869.0	7.27	13.46
26/01/2020 06:07:50	26012020	260120	060750	53.470	12.665957	-57.307142	53.450	-0.050	-0.090	-0.510	53.490	-1.600	-0.700																			1580018870.0	7.52	13.93
26/01/2020 06:07:51	26012020	260120	060751	53.580	12.665977	-57.307113	53.600	-0.220	0.100	0.360	53.610	-1.500	-0.200																			1580018871.0	7.40	13.70
26/01/2020 06:07:52	26012020	260120	060752	53.730	12.665995	-57.307085	53.750	-0.390	0.120	1.190	53.760	-1.300	0.700																			1580018872.0	7.16	13.26
26/01/2020 06:07:53	26012020	260120	060753	53.890	12.666010	-57.307053	53.900	-0.500	-0.030	1.680	53.920	-1.200	1.500																			1580018873.0	7.16	13.26
26/01/2020 06:07:54	26012020	260120	060754	54.040	12.666025	-57.307023	53.890	-0.460	-0.180	1.840	54.060	-1.400	2.000																			1580018874.0	7.32	13.56
26/01/2020 06:07:55	26012020	260120	060755	54.060	12.666042	-57.306993	53.800	-0.240	-0.370	1.560	54.050	-1.500	2.200																			1580018875.0	7.32	13.56
26/01/2020 06:07:56	26012020	260120	060756	53.980	12.666062	-57.306965	53.650	0.150	-0.590	0.850	53.950	-1.700	2.000																			1580018876.0	7.27	13.46
26/01/2020 06:07:57	26012020	260120	060757	53.840	12.666085	-57.306938	53.480	0.520	-0.640	-0.090	53.810	-1.900	1.300																			1580018877.0	7.42	13.74
26/01/2020 06:07:58	26012020	260120	060758	53.680	12.666110	-57.306913	53.420	0.730	-0.470	-0.990	53.650	-2.000	0.400																			1580018878.0	7.61	14.09
26/01/2020 06:07:59	26012020	260120	060759	53.610	12.666137	-57.306892	53.530	0.630	-0.110	-1.680	53.620	-1.700	-1.000																			1580018879.0	7.57	14.02
26/01/2020 06:08:00	26012020	260120	060800	53.720	12.666163	-57.306868	53.640	0.140	0.330	-2.070	53.740	-1.500	-1.200	1014.20	25.80	25.80	20.70	20.70	0.00	73.00	73.00	435.00	25.60	24.00	9.40	91.00	6.20	15	3327.00	27.40	27.40	1580018880.0	7.39	13.69
26/01/2020 06:08:01	26012020	260120	060801	53.830	12.666187	-57.306843	53.760	-0.460	0.480	-2.000	53.840	-0.900	-1.700																			1580018881.0	7.11	13.17
26/01/2020 06:08:02	26012020	260120	060802	53.930	12.666208	-57.306820	53.980	-0.710	0.160	-1.500	53.950	-0.900	-1.600																			1580018882.0	6.97	12.91
26/01/2020 06:08:03	26012020	260120	060803	54.120	12.666228	-57.306792	54.130	-0.500	-0.260	-0.680	54.160	-1.200	-1.200																			1580018883.0	7.26	13.45
26/01/2020 06:08:04	26012020	260120	060804	54.280	12.666247	-57.306760	54.080	-0.080	-0.480	0.320	54.290	-1.600	-0.400																			1580018884.0	7.65	14.17
26/01/2020 06:08:05	26012020	260120	060805	54.260	12.666263	-57.306728	53.960	0.250	-0.550	1.280	54.230	-1.800	0.600																			1580018885.0	7.63	14.13
26/01/2020 06:08:06	26012020	260120	060806	54.110	12.666278	-57.306697	53.920	0.360	-0.520	1.740	54.090	-1.900	1.600																			1580018886.0	7.45	13.80
26/01/2020 06:08:07	26012020	260120	060807	54.050	12.666295	-57.306667	53.980	0.280	-0.300	1.670	54.050	-1.900	2.100																			1580018887.0	7.34	13.59
26/01/2020 06:08:08	26012020	260120	060808	54.100	12.666315	-57.306640	53.980	0.110	0.060	1.360	54.110	-1.700	2.100																			1580018888.0	7.23	13.39
26/01/2020 06:08:09	26012020	260120	060809	54.120	12.666337	-57.306613	53.920	-0.080	0.220	0.830	54.110	-1.300	1.800																			1580018889.0	7.08	13.11
26/01/2020 06:08:10	26012020	260120	060810	54.070	12.666358	-57.306588	53.970	-0.190	0.050	0.040	54.070	-1.200	1.300																			1580018890.0	7.08	13.11
26/01/2020 06:08:11	26012020	260120	060811	54.110	12.666383	-57.306563	54.040	-0.180	-0.180	-0.700	54.120	-1.300	0.500																			1580018891.0	7.36	13.63
26/01/2020 06:08:12	26012020	260120	060812	54.190	12.666407	-57.306538	54.080	-0.120	-0.240	-1.220	54.200	-1.500	-0.200																			1580018892.0	7.61	14.09
26/01/2020 06:08:13	26012020	260120	060813	54.250	12.666432	-57.306512	54.150	-0.060	-0.220	-1.480	54.260	-1.600	-0.800																			1580018893.0	7.49	13.87
26/01/2020 06:08:14	26012020	260120	060814	54.330	12.666453	-57.306485	54.120	0.000	-0.270	-1.450	54.340	-1.600	-1.100																			1580018894.0	7.24	13.41
26/01/2020 06:08:15	26012020	260120	060815	54.330	12.666473	-57.306458	54.010	0.090	-0.400	-1.160	54.310	-1.600	-1.100																			1580018895.0	7.23	13.39
26/01/2020 06:08:16	26012020	260120	060816	54.210	12.666493	-57.306430	53.970	0.200	-0.490	-0.770	54.190	-1.800	-0.800																			1580018896.0	7.39	13.69
26/01/2020 06:08:17	26012020	260120	060817	54.130	12.666515	-57.306402	54.090	0.270	-0.340	-0.360	54.130	-1.900	-0.400																			1580018897.0	7.54	13.96
26/01/2020 06:08:18	26012020	260120	060818	54.210	12.666535	-57.306373	54.290	0.200	0.100	0.140	54.250	-1.700	-0.000																			1580018898.0	7.49	13.87
26/01/2020 06:08:19	26012020	260120	060819	54.400	12.666553	-57.306345	54.400	0.000	0.480	0.730	54.440	-1.300	0.500																			1580018899.0	7.15	13.24
26/01/2020 06:08:20	26012020	260120	060820	54.540	12.666570	-57.306317	54.400	-0.190	0.410	1.220	54.540	-0.900	1.000																			1580018900.0	6.83	12.65
26/01/2020 06:08:21	26012020	260120	060821	54.530	12.666587	-57.306288	54.300	-0.230	-0.170	1.380	54.520	-0.900	1.600																			1580018901.0	6.99	12.95
26/01/2020 06:08:22	26012020	260120	060822	54.450	12.666605	-57.306260	54.150	-0.100	-0.840	1.230	54.420	-1.500	1.700																			1580018902.0	7.46	13.82
26/01/2020 06:08:23	26012020	260120	060823	54.290	12.666628	-57.306230	54.040	0.060	-0.960	0.860	54.270	-2.200	1.600																			1580018903.0	7.93	14.69
26/01/2020 06:08:24	26012020	260120	060824	54.170	12.666652	-57.306202	54.060	0.090	-0.430	0.350	54.160	-2.400	1.300																			1580018904.0	7.90	14.63
26/01/2020 06:08:25	26012020	260120	060825	54.180	12.666675	-57.306175	54.220	-0.040	0.250	-0.160	54.200	-1.900	0.800																			1580018905.0	7.29	13.50
26/01/2020 06:08:26	26012020	260120	060826	54.330	12.666695	-57.306152	54.360	-0.230	0.550	-0.600	54.370	-1.200	0.300																			1580018906.0	6.71	12.43
26/01/2020 06:08:27	26012020	260120	060827	54.500	12.666715	-57.306127	54.360	-0.310	0.320	-0.970	54.530	-0.800	-0.200																			1580018907.0	6.72	12.45
26/01/2020 06:08:28	26012020	260120	060828	54.550	12.666735	-57.306100	54.330	-0.130	-0.270	-1.160	54.550	-1.000	-0.600																			1580018908.0	7.13	13.20
26/01/2020 06:08:29	26012020	260120	060829	54.510	12.666758	-57.306073	54.330	0.300	-0.900	-1.110	54.510	-1.600	-0.800																			1580018909.0	7.60	14.08
26/01/2020 06:08:30	26012020	260120	060830	54.500	12.666782	-57.306043	54.300	0.640	-1.010	-0.910	54.500	-2.200	-0.700																			1580018910.0	7.92	14.67
26/01/2020 06:08:31	26012020	260120	060831	54.480	12.666803	-57.306013	54.210	0.540	-0.330	-0.560	54.470	-2.400	-0.600																			1580018911.0	7.93	14.69
26/01/2020 06:08:32	26012020	260120	060832	54.390	12.666823	-57.305987	54.160	0.060	0.570	-0.060	54.370	-1.800	-0.200																			1580018912.0	7.26	13.45
26/01/2020 06:08:33	26012020	260120	060833	54.310	12.666842	-57.305962	54.300	-0.400	0.820	0.360	54.310	-0.900	0.300																			1580018913.0	6.46	11.96
26/01/2020 06:08:34	26012020	260120	060834	54.390	12.666858	-57.305935	54.480	-0.540	0.290	0.610	54.430	-0.500	0.700																			1580018914.0	6.48	12.00
26/01/2020 06:08:35	26012020	260120	060835	54.570	12.666877	-57.305907	54.500	-0.390	-0.410	0.850	54.600	-1.000	1.000																			1580018915.0	7.25	13.43
26/01/2020 06:08:36	26012020	260120	060836	54.620	12.666897	-57.305875	54.370	-0.130	-0.880	1.110	54.610	-1.700	1.200																			1580018916.0	7.81	14.46
26/01/2020 06:08:37	26012020	260120	060837	54.510	12.666915	-57.305845	54.250	0.100	-1.010	1.150	54.480	-2.200	1.500																			1580018917.0	7.80	14.45
26/01/2020 06:08:38	26012020	260120	060838	54.390	12.666935	-57.305815	54.180	0.200	-0.620	0.780	54.380	-2.400	1.500																			1580018918.0	7.62	14.11
26/01/2020 06:08:39	26012020	260120	060839	54.330	12.666955	-57.305787	54.130	0.140	0.210	0.190	54.320	-2.100	1.200																			1580018919.0	7.35	13.61
26/01/2020 06:08:40	26012020	260120	060840	54.290	12.666977	-57.305763	54.120	0.040	0.790	-0.410	54.290	-1.300	0.600																			1580018920.0	6.83	12.65
26/01/2020 06:08:41	26012020	260120	060841	54.270	12.666998	-57.305740	54.110	0.030	0.520	-0.980	54.270	-0.600	0.000																			1580018921.0	6.52	12.08
26/01/2020 06:08:42	26012020	260120	060842	54.280	12.667020	-57.305717	54.070	0.130	-0.310	-1.410	54.280	-0.800	-0.500																			1580018922.0	7.00	12.96
26/01/2020 06:08:43	26012020	260120	060843	54.260	12.667045	-57.305690	54.100	0.230	-0.960	-1.570	54.260	-1.600	-1.000																			1580018923.0	7.82	14.48
26/01/2020 06:08:44	26012020	260120	060844	54.260	12.667070	-57.305660	54.170	0.220	-0.940	-1.290	54.270	-2.300	-1.200																			1580018924.0	8.13	15.06
26/01/2020 06:08:45	26012020	260120	060845	54.320	12.667092	-57.305632	54.180	0.020	-0.330	-0.540	54.330	-2.300	-1.000																			1580018925.0	7.71	14.28
26/01/2020 06:08:46	26012020	260120	060846	54.350	12.667110	-57.305603	54.120	-0.300	0.320	0.290	54.340	-1.800	-0.200																			1580018926.0	7.07	13.09
26/01/2020 06:08:47	26012020	260120	060847	54.280	12.667123	-57.305575	54.010	-0.450	0.510	0.930	54.250	-1.100	0.600																			1580018927.0	6.66	12.33
26/01/2020 06:08:48	26012020	260120	060848	54.150	12.667138	-57.305547	53.930	-0.330	0.260	1.300	54.120	-0.900	1.300																			1580018928.0	6.81	12.61
26/01/2020 06:08:49	26012020	260120	060849	54.050	12.667157	-57.305517	53.980	-0.100	-0.130	1.330	54.050	-1.300	1.700																			1580018929.0	7.30	13.52
26/01/2020 06:08:50	26012020	260120	060850	54.090	12.667177	-57.305487	54.050	0.060	-0.420	1.060	54.110	-1.500	1.700																			1580018930.0	7.54	13.96
26/01/2020 06:08:51	26012020	260120	060851	54.160	12.667197	-57.305458	53.970	0.120	-0.500	0.590	54.170	-1.900	1.200																			1580018931.0	7.50	13.89
26/01/2020 06:08:52	26012020	260120	060852	54.140	12.667218	-57.305432	53.820	0.150	-0.400	0.120	54.120	-1.900	1.000																			1580018932.0	7.38	13.67
26/01/2020 06:08:53	26012020	260120	060853	54.000	12.667242	-57.305407	53.720	0.230	-0.340	-0.300	53.970	-1.800	0.500																			1580018933.0	7.20	13.33
26/01/2020 06:08:54	26012020	260120	060854	53.880	12.667265	-57.305383	53.680	0.370	-0.450	-0.660	53.870	-1.700	0.100																			1580018934.0	7.14	13.22
26/01/2020 06:08:55	26012020	260120	060855	53.830	12.667288	-57.305357	53.670	0.400	-0.470	-0.910	53.820	-1.800	-0.200																			1580018935.0	7.39	13.69
26/01/2020 06:08:56	26012020	260120	060856	53.830	12.667312	-57.305330	53.670	0.130	-0.090	-0.860	53.830	-1.900	-0.500																			1580018936.0	7.61	14.09
26/01/2020 06:08:57	26012020	260120	060857	53.830	12.667332	-57.305302	53.660	-0.320	0.380	-0.540	53.830	-1.500	-0.500																			1580018937.0	7.35	13.61
26/01/2020 06:08:58	26012020	260120	060858	53.820	12.667350	-57.305275	53.710	-0.560	0.450	-0.170	53.820	-1.000	-0.200																			1580018938.0	6.88	12.74
26/01/2020 06:08:59	26012020	260120	060859	53.840	12.667368	-57.305248	53.800	-0.420	0.100	0.120	53.860	-0.900	0.200																			1580018939.0	6.92	12.82
26/01/2020 06:09:00	26012020	260120	060900	53.930	12.667387	-57.305218	53.840	-0.140	-0.220	0.410	53.940	-1.200	0.500	1014.20	25.70	25.80	20.40	20.40	0.00	72.00	72.00	435.00	25.60	15.00	9.90	78.00	6.40	15	3315.00	27.40	27.40	1580018940.0	7.38	13.67
26/01/2020 06:09:01	26012020	260120	060901	53.970	12.667407	-57.305188	53.690	0.060	-0.270	0.740	53.960	-1.600	0.700																			1580018941.0	7.63	14.13
26/01/2020 06:09:02	26012020	260120	060902	53.840	12.667425	-57.305160	53.470	0.120	-0.230	0.930	53.800	-1.600	1.100																			1580018942.0	7.37	13.65
26/01/2020 06:09:03	26012020	260120	060903	53.620	12.667443	-57.305132	53.340	0.150	-0.380	0.780	53.580	-1.600	1.300																			1580018943.0	7.07	13.09
26/01/2020 06:09:04	26012020	260120	060904	53.470	12.667465	-57.305105	53.300	0.180	-0.550	0.450	53.460	-1.700	1.200																			1580018944.0	7.14	13.22
26/01/2020 06:09:05	26012020	260120	060905	53.430	12.667487	-57.305078	53.300	0.150	-0.490	0.110	53.430	-1.900	0.900																			1580018945.0	7.41	13.72
26/01/2020 06:09:06	26012020	260120	060906	53.440	12.667510	-57.305052	53.330	0.090	-0.310	-0.220	53.440	-1.900	0.500																			1580018946.0	7.38	13.67
26/01/2020 06:09:07	26012020	260120	060907	53.480	12.667532	-57.305027	53.300	0.080	-0.110	-0.340	53.490	-1.700	0.200																			1580018947.0	7.18	13.30
26/01/2020 06:09:08	26012020	260120	060908	53.480	12.667552	-57.305000	53.130	0.070	0.010	-0.290	53.450	-1.500	0.000																			1580018948.0	7.20	13.33
26/01/2020 06:09:09	26012020	260120	060909	53.320	12.667572	-57.304973	52.910	0.030	-0.010	-0.230	53.270	-1.400	0.100																			1580018949.0	7.26	13.45
26/01/2020 06:09:10	26012020	260120	060910	53.080	12.667593	-57.304945	52.830	0.000	-0.100	-0.230	53.040	-1.400	0.100																			1580018950.0	7.36	13.63
26/01/2020 06:09:11	26012020	260120	060911	52.960	12.667613	-57.304917	52.970	-0.020	-0.120	-0.330	52.970	-1.500	0.200																			1580018951.0	7.44	13.78
26/01/2020 06:09:12	26012020	260120	060912	53.080	12.667635	-57.304888	53.080	-0.110	0.050	-0.240	53.110	-1.500	0.100																			1580018952.0	7.43	13.76
26/01/2020 06:09:13	26012020	260120	060913	53.220	12.667657	-57.304862	53.010	-0.290	0.250	0.070	53.220	-1.400	0.100																			1580018953.0	7.25	13.43
26/01/2020 06:09:14	26012020	260120	060914	53.180	12.667675	-57.304835	52.860	-0.410	0.170	0.390	53.150	-1.100	0.400																			1580018954.0	6.96	12.89
26/01/2020 06:09:15	26012020	260120	060915	53.010	12.667693	-57.304808	52.760	-0.290	-0.270	0.590	52.980	-1.400	0.900																			1580018955.0	6.96	12.89
26/01/2020 06:09:16	26012020	260120	060916	52.880	12.667713	-57.304780	52.660	0.030	-0.760	0.690	52.860	-1.600	0.900																			1580018956.0	7.31	13.54
26/01/2020 06:09:17	26012020	260120	060917	52.780	12.667735	-57.304752	52.640	0.330	-0.940	0.620	52.770	-2.100	1.100																			1580018957.0	7.67	14.20
26/01/2020 06:09:18	26012020	260120	060918	52.730	12.667757	-57.304722	52.690	0.400	-0.630	0.350	52.740	-2.300	1.000																			1580018958.0	7.70	14.26
26/01/2020 06:09:19	26012020	260120	060919	52.790	12.667778	-57.304695	52.680	0.270	0.040	0.120	52.800	-2.100	0.800																			1580018959.0	7.37	13.65
26/01/2020 06:09:20	26012020	260120	060920	52.810	12.667798	-57.304670	52.610	0.080	0.500	-0.030	52.800	-1.400	0.500																			1580018960.0	6.90	12.78
26/01/2020 06:09:21	26012020	260120	060921	52.740	12.667818	-57.304647	52.550	-0.020	0.350	-0.250	52.730	-0.900	0.400																			1580018961.0	6.68	12.37
26/01/2020 06:09:22	26012020	260120	060922	52.680	12.667840	-57.304620	52.470	0.020	-0.200	-0.450	52.660	-1.000	0.200																			1580018962.0	7.07	13.09
26/01/2020 06:09:23	26012020	260120	060923	52.610	12.667863	-57.304593	52.470	0.090	-0.600	-0.510	52.600	-1.500	-0.100																			1580018963.0	7.68	14.22
26/01/2020 06:09:24	26012020	260120	060924	52.590	12.667888	-57.304565	52.550	0.050	-0.580	-0.460	52.600	-2.000	-0.100																			1580018964.0	7.88	14.59
26/01/2020 06:09:25	26012020	260120	060925	52.670	12.667912	-57.304538	52.590	-0.170	-0.150	-0.150	52.690	-2.000	-0.100																			1580018965.0	7.62	14.11
26/01/2020 06:09:26	26012020	260120	060926	52.730	12.667930	-57.304510	52.490	-0.460	0.420	0.360	52.720	-1.600	0.200																			1580018966.0	7.17	13.28
26/01/2020 06:09:27	26012020	260120	060927	52.650	12.667947	-57.304483	52.390	-0.630	0.570	0.650	52.620	-1.000	0.700																			1580018967.0	6.75	12.50
26/01/2020 06:09:28	26012020	260120	060928	52.540	12.667963	-57.304457	52.470	-0.470	0.040	0.480	52.530	-0.800	1.000																			1580018968.0	6.69	12.39
26/01/2020 06:09:29	26012020	260120	060929	52.590	12.667983	-57.304428	52.630	-0.040	-0.690	0.100	52.620	-1.300	0.900																			1580018969.0	7.19	13.32
26/01/2020 06:09:30	26012020	260120	060930	52.760	12.668007	-57.304400	52.630	0.400	-0.930	-0.150	52.780	-2.000	0.500																			1580018970.0	7.84	14.52
26/01/2020 06:09:31	26012020	260120	060931	52.810	12.668032	-57.304373	52.460	0.610	-0.650	-0.220	52.790	-2.300	0.200																			1580018971.0	7.85	14.54
26/01/2020 06:09:32	26012020	260120	060932	52.670	12.668053	-57.304347	52.280	0.580	-0.260	-0.210	52.620	-2.100	0.200																			1580018972.0	7.28	13.48
26/01/2020 06:09:33	26012020	260120	060933	52.480	12.668075	-57.304322	52.240	0.370	-0.040	-0.230	52.440	-1.700	0.200																			1580018973.0	6.97	12.91
26/01/2020 06:09:34	26012020	260120	060934	52.400	12.668097	-57.304297	52.300	0.070	0.090	-0.300	52.400	-1.400	0.200																			1580018974.0	7.10	13.15
26/01/2020 06:09:35	26012020	260120	060935	52.440	12.668118	-57.304270	52.340	-0.180	0.180	-0.310	52.460	-1.300	0.100																			1580018975.0	7.25	13.43
26/01/2020 06:09:36	26012020	260120	060936	52.500	12.668140	-57.304243	52.270	-0.270	0.230	-0.050	52.500	-1.200	0.100																			1580018976.0	7.29	13.50
26/01/2020 06:09:37	26012020	260120	060937	52.450	12.668160	-57.304217	52.220	-0.290	0.100	0.230	52.430	-1.200	0.300																			1580018977.0	7.24	13.41
26/01/2020 06:09:38	26012020	260120	060938	52.380	12.668180	-57.304188	52.350	-0.340	-0.160	0.230	52.380	-1.300	0.600																			1580018978.0	7.26	13.45
26/01/2020 06:09:39	26012020	260120	060939	52.470	12.668200	-57.304160	52.480	-0.400	-0.280	0.140	52.500	-1.600	0.500																			1580018979.0	7.40	13.70
26/01/2020 06:09:40	26012020	260120	060940	52.610	12.668222	-57.304133	52.500	-0.320	-0.290	0.140	52.630	-1.700	0.500																			1580018980.0	7.36	13.63
26/01/2020 06:09:41	26012020	260120	060941	52.650	12.668242	-57.304107	52.500	-0.000	-0.480	0.110	52.650	-1.700	0.500																			1580018981.0	7.12	13.19
26/01/2020 06:09:42	26012020	260120	060942	52.650	12.668263	-57.304080	52.410	0.380	-0.670	0.130	52.650	-1.800	0.500																			1580018982.0	7.20	13.33
26/01/2020 06:09:43	26012020	260120	060943	52.590	12.668285	-57.304052	52.200	0.460	-0.430	0.190	52.560	-2.100	0.500																			1580018983.0	7.56	14.00
26/01/2020 06:09:44	26012020	260120	060944	52.390	12.668307	-57.304023	52.090	0.230	0.070	0.030	52.350	-1.900	0.600																			1580018984.0	7.47	13.83
26/01/2020 06:09:45	26012020	260120	060945	52.250	12.668327	-57.303998	52.230	0.060	0.210	-0.360	52.260	-1.400	0.500																			1580018985.0	6.93	12.83
26/01/2020 06:09:46	26012020	260120	060946	52.360	12.668348	-57.303975	52.390	0.140	-0.150	-0.720	52.400	-1.200	0.100																			1580018986.0	6.88	12.74
26/01/2020 06:09:47	26012020	260120	060947	52.540	12.668373	-57.303950	52.480	0.250	-0.400	-0.860	52.580	-1.500	-0.300																			1580018987.0	7.51	13.91
26/01/2020 06:09:48	26012020	260120	060948	52.650	12.668398	-57.303922	52.500	0.100	-0.120	-0.600	52.650	-1.800	-0.500																			1580018988.0	7.88	14.59
26/01/2020 06:09:49	26012020	260120	060949	52.670	12.668420	-57.303895	52.510	-0.260	0.390	-0.030	52.660	-1.600	-0.300																			1580018989.0	7.43	13.76
26/01/2020 06:09:50	26012020	260120	060950	52.660	12.668438	-57.303868	52.530	-0.560	0.500	0.450	52.660	-1.000	0.300																			1580018990.0	6.79	12.58
26/01/2020 06:09:51	26012020	260120	060951	52.670	12.668455	-57.303842	52.510	-0.560	0.020	0.710	52.670	-0.900	0.800																			1580018991.0	6.70	12.41
26/01/2020 06:09:52	26012020	260120	060952	52.660	12.668473	-57.303813	52.450	-0.250	-0.630	0.820	52.650	-1.300	1.100																			1580018992.0	7.19	13.32
26/01/2020 06:09:53	26012020	260120	060953	52.600	12.668493	-57.303785	52.430	0.180	-1.000	0.720	52.600	-2.000	1.200																			1580018993.0	7.66	14.19
26/01/2020 06:09:54	26012020	260120	060954	52.590	12.668517	-57.303755	52.490	0.490	-0.920	0.430	52.600	-2.400	1.100																			1580018994.0	7.69	14.24
26/01/2020 06:09:55	26012020	260120	060955	52.650	12.668538	-57.303728	52.590	0.530	-0.450	0.110	52.660	-2.300	0.900																			1580018995.0	7.46	13.82
26/01/2020 06:09:56	26012020	260120	060956	52.750	12.668562	-57.303703	52.630	0.290	0.160	-0.210	52.770	-1.900	0.500																			1580018996.0	7.18	13.30
26/01/2020 06:09:57	26012020	260120	060957	52.810	12.668583	-57.303680	52.730	-0.030	0.460	-0.560	52.810	-1.300	0.200																			1580018997.0	6.93	12.83
26/01/2020 06:09:58	26012020	260120	060958	52.860	12.668605	-57.303657	52.880	-0.170	0.360	-0.820	52.880	-0.900	-0.100																			1580018998.0	6.91	12.80
26/01/2020 06:09:59	26012020	260120	060959	53.000	12.668628	-57.303630	52.980	-0.140	0.090	-0.840	53.040	-1.000	-0.400																			1580018999.0	7.24	13.41
26/01/2020 06:10:00	26012020	260120	061000	53.120	12.668650	-57.303603	53.010	-0.100	-0.160	-0.730	53.130	-1.300	-0.500	1014.10	25.70	25.80	20.30	20.40	0.00	72.00	72.00	435.00	25.60	19.00	10.40	81.00	6.90	15	3236.00	27.40	27.40	1580019000.0	7.50	13.89
26/01/2020 06:10:01	26012020	260120	061001	53.160	12.668672	-57.303575	52.970	-0.100	-0.330	-0.510	53.160	-1.500	-0.400																			1580019001.0	7.47	13.83
26/01/2020 06:10:02	26012020	260120	061002	53.130	12.668693	-57.303548	52.890	-0.090	-0.380	-0.250	53.120	-1.700	-0.200																			1580019002.0	7.37	13.65
26/01/2020 06:10:03	26012020	260120	061003	53.060	12.668713	-57.303520	52.920	0.000	-0.430	-0.060	53.050	-1.800	0.300																			1580019003.0	7.23	13.39
26/01/2020 06:10:04	26012020	260120	061004	53.060	12.668733	-57.303493	53.120	0.090	-0.460	0.010	53.080	-1.800	0.300																			1580019004.0	7.23	13.39
26/01/2020 06:10:05	26012020	260120	061005	53.230	12.668753	-57.303465	53.310	0.090	-0.310	0.100	53.280	-1.900	0.400																			1580019005.0	7.34	13.59
26/01/2020 06:10:06	26012020	260120	061006	53.440	12.668775	-57.303438	53.280	0.000	0.040	0.340	53.450	-1.700	0.500																			1580019006.0	7.30	13.52
26/01/2020 06:10:07	26012020	260120	061007	53.440	12.668795	-57.303412	53.180	-0.110	0.280	0.510	53.420	-1.400	0.700																			1580019007.0	7.09	13.13
26/01/2020 06:10:08	26012020	260120	061008	53.310	12.668813	-57.303385	53.110	-0.130	0.070	0.440	53.290	-1.100	0.900																			1580019008.0	6.93	12.83
26/01/2020 06:10:09	26012020	260120	061009	53.230	12.668833	-57.303358	53.170	-0.000	-0.410	0.140	53.220	-1.300	0.800																			1580019009.0	7.16	13.26
26/01/2020 06:10:10	26012020	260120	061010	53.260	12.668857	-57.303330	53.300	0.190	-0.640	-0.240	53.280	-1.800	0.600																			1580019010.0	7.65	14.17
26/01/2020 06:10:11	26012020	260120	061011	53.400	12.668882	-57.303302	53.470	0.230	-0.330	-0.510	53.440	-2.000	0.200																			1580019011.0	7.81	14.46
26/01/2020 06:10:12	26012020	260120	061012	53.580	12.668903	-57.303277	53.540	0.090	0.160	-0.560	53.600	-1.800	-0.100																			1580019012.0	7.36	13.63
26/01/2020 06:10:13	26012020	260120	061013	53.670	12.668923	-57.303252	53.560	-0.030	0.270	-0.520	53.670	-1.300	-0.200																			1580019013.0	6.81	12.61
26/01/2020 06:10:14	26012020	260120	061014	53.690	12.668943	-57.303225	53.490	-0.030	0.000	-0.500	53.690	-1.100	-0.100																			1580019014.0	6.85	12.69
26/01/2020 06:10:15	26012020	260120	061015	53.650	12.668965	-57.303198	53.350	0.040	-0.290	-0.450	53.630	-1.400	-0.100																			1580019015.0	7.34	13.59
26/01/2020 06:10:16	26012020	260120	061016	53.510	12.668988	-57.303172	53.290	0.090	-0.400	-0.370	53.490	-1.700	-0.100																			1580019016.0	7.59	14.06
26/01/2020 06:10:17	26012020	260120	061017	53.430	12.669010	-57.303145	53.490	0.090	-0.440	-0.280	53.430	-1.800	0.100																			1580019017.0	7.44	13.78
26/01/2020 06:10:18	26012020	260120	061018	53.580	12.669032	-57.303118	53.800	0.030	-0.470	-0.090	53.640	-1.800	0.100																			1580019018.0	7.27	13.46
26/01/2020 06:10:19	26012020	260120	061019	53.880	12.669052	-57.303090	53.900	-0.110	-0.350	0.190	53.930	-1.900	0.300																			1580019019.0	7.33	13.58
26/01/2020 06:10:20	26012020	260120	061020	54.040	12.669072	-57.303062	53.800	-0.320	0.110	0.570	54.040	-1.800	0.500																			1580019020.0	7.41	13.72
26/01/2020 06:10:21	26012020	260120	061021	53.980	12.669088	-57.303032	53.650	-0.510	0.580	0.820	53.940	-1.400	0.900																			1580019021.0	7.19	13.32
26/01/2020 06:10:22	26012020	260120	061022	53.800	12.669105	-57.303005	53.680	-0.410	0.430	0.530	53.770	-0.800	1.200																			1580019022.0	6.76	12.52
26/01/2020 06:10:23	26012020	260120	061023	53.770	12.669123	-57.302978	53.890	0.100	-0.360	-0.210	53.810	-0.900	1.000																			1580019023.0	6.82	12.63
26/01/2020 06:10:24	26012020	260120	061024	53.980	12.669147	-57.302952	53.890	0.690	-0.970	-0.860	54.020	-1.700	0.200																			1580019024.0	7.62	14.11
26/01/2020 06:10:25	26012020	260120	061025	54.060	12.669173	-57.302923	53.680	0.910	-0.880	-1.120	54.040	-2.300	-0.400																			1580019025.0	8.17	15.13
26/01/2020 06:10:26	26012020	260120	061026	53.870	12.669198	-57.302898	53.510	0.670	-0.380	-1.170	53.820	-2.300	-0.700																			1580019026.0	7.74	14.33
26/01/2020 06:10:27	26012020	260120	061027	53.670	12.669222	-57.302875	53.600	0.200	0.080	-1.150	53.660	-1.800	-0.800																			1580019027.0	7.08	13.11
26/01/2020 06:10:28	26012020	260120	061028	53.700	12.669243	-57.302850	53.780	-0.310	0.400	-0.910	53.730	-1.400	-0.800																			1580019028.0	6.90	12.78
26/01/2020 06:10:29	26012020	260120	061029	53.870	12.669265	-57.302825	53.950	-0.750	0.530	-0.310	53.910	-0.900	-0.200																			1580019029.0	7.02	13.00
26/01/2020 06:10:30	26012020	260120	061030	54.040	12.669283	-57.302797	54.030	-0.910	0.340	0.520	54.060	-0.900	-0.000																			1580019030.0	7.04	13.04
26/01/2020 06:10:31	26012020	260120	061031	54.120	12.669300	-57.302767	54.060	-0.710	-0.130	1.220	54.120	-1.000	0.800																			1580019031.0	7.20	13.33
26/01/2020 06:10:32	26012020	260120	061032	54.120	12.669315	-57.302735	54.140	-0.230	-0.710	1.500	54.140	-1.500	1.500																			1580019032.0	7.49	13.87
26/01/2020 06:10:33	26012020	260120	061033	54.200	12.669332	-57.302703	54.210	0.310	-1.030	1.350	54.230	-2.100	1.900																			1580019033.0	7.68	14.22
26/01/2020 06:10:34	26012020	260120	061034	54.310	12.669352	-57.302673	54.170	0.680	-0.750	0.810	54.320	-2.400	1.800																			1580019034.0	7.70	14.26
26/01/2020 06:10:35	26012020	260120	061035	54.310	12.669373	-57.302645	53.970	0.700	-0.030	0.080	54.290	-2.200	1.300																			1580019035.0	7.41	13.72
26/01/2020 06:10:36	26012020	260120	061036	54.150	12.669397	-57.302623	53.710	0.490	0.400	-0.680	54.100	-1.500	0.500																			1580019036.0	6.94	12.85
26/01/2020 06:10:37	26012020	260120	061037	53.900	12.669420	-57.302602	53.700	0.300	0.120	-1.470	53.870	-1.000	-0.200																			1580019037.0	6.80	12.59
26/01/2020 06:10:38	26012020	260120	061038	53.840	12.669447	-57.302580	53.900	0.170	-0.390	-2.030	53.860	-1.200	-1.000																			1580019038.0	7.39	13.69
26/01/2020 06:10:39	26012020	260120	061039	54.030	12.669475	-57.302553	54.090	-0.110	-0.410	-1.970	54.080	-1.700	-1.600																			1580019039.0	8.03	14.87
26/01/2020 06:10:40	26012020	260120	061040	54.240	12.669498	-57.302527	54.120	-0.560	0.090	-1.280	54.260	-1.800	-1.600																			1580019040.0	7.81	14.46
26/01/2020 06:10:41	26012020	260120	061041	54.300	12.669515	-57.302498	54.130	-0.870	0.480	-0.310	54.300	-1.400	-1.000																			1580019041.0	7.05	13.06
26/01/2020 06:10:42	26012020	260120	061042	54.280	12.669528	-57.302470	54.180	-0.730	0.200	0.540	54.280	-0.900	-0.000																			1580019042.0	6.67	12.35
26/01/2020 06:10:43	26012020	260120	061043	54.290	12.669543	-57.302440	54.240	-0.170	-0.500	1.080	54.300	-1.100	0.800																			1580019043.0	7.02	13.00
26/01/2020 06:10:44	26012020	260120	061044	54.340	12.669560	-57.302407	54.240	0.360	-0.850	1.370	54.350	-1.800	1.400																			1580019044.0	7.72	14.30
26/01/2020 06:10:45	26012020	260120	061045	54.350	12.669580	-57.302377	54.160	0.540	-0.550	1.360	54.340	-2.200	1.700																			1580019045.0	7.90	14.63
26/01/2020 06:10:46	26012020	260120	061046	54.290	12.669602	-57.302348	54.110	0.430	-0.020	1.000	54.270	-2.000	1.700																			1580019046.0	7.32	13.56
26/01/2020 06:10:47	26012020	260120	061047	54.230	12.669622	-57.302323	54.110	0.240	0.200	0.380	54.220	-1.500	1.400																			1580019047.0	6.78	12.56
26/01/2020 06:10:48	26012020	260120	061048	54.220	12.669643	-57.302300	54.130	0.080	0.070	-0.330	54.220	-1.200	0.800																			1580019048.0	6.84	12.67
26/01/2020 06:10:49	26012020	260120	061049	54.240	12.669668	-57.302277	54.230	-0.060	-0.180	-0.990	54.250	-1.300	0.100																			1580019049.0	7.26	13.45
26/01/2020 06:10:50	26012020	260120	061050	54.330	12.669692	-57.302250	54.350	-0.110	-0.470	-1.380	54.360	-1.500	-0.500																			1580019050.0	7.48	13.85
26/01/2020 06:10:51	26012020	260120	061051	54.470	12.669715	-57.302225	54.380	-0.060	-0.610	-1.450	54.490	-1.800	-1.000																			1580019051.0	7.50	13.89
26/01/2020 06:10:52	26012020	260120	061052	54.530	12.669737	-57.302197	54.260	-0.060	-0.330	-1.180	54.520	-2.000	-1.100																			1580019052.0	7.57	14.02
26/01/2020 06:10:53	26012020	260120	061053	54.440	12.669758	-57.302168	54.120	-0.200	0.250	-0.650	54.420	-1.800	-0.800																			1580019053.0	7.40	13.70
26/01/2020 06:10:54	26012020	260120	061054	54.290	12.669777	-57.302142	54.150	-0.330	0.520	-0.110	54.270	-1.200	-0.300																			1580019054.0	6.88	12.74
26/01/2020 06:10:55	26012020	260120	061055	54.250	12.669792	-57.302115	54.300	-0.220	0.090	0.220	54.270	-0.900	0.200																			1580019055.0	6.66	12.33
26/01/2020 06:10:56	26012020	260120	061056	54.390	12.669810	-57.302087	54.390	0.060	-0.550	0.390	54.410	-1.200	0.600																			1580019056.0	7.14	13.22
26/01/2020 06:10:57	26012020	260120	061057	54.480	12.669830	-57.302055	54.450	0.290	-0.790	0.530	54.490	-1.900	0.700																			1580019057.0	7.79	14.43
26/01/2020 06:10:58	26012020	260120	061058	54.540	12.669852	-57.302025	54.510	0.340	-0.520	0.650	54.560	-2.200	0.900																			1580019058.0	7.77	14.39
26/01/2020 06:10:59	26012020	260120	061059	54.610	12.669872	-57.301998	54.490	0.260	0.010	0.590	54.620	-1.900	1.000																			1580019059.0	7.27	13.46
26/01/2020 06:11:00	26012020	260120	061100	54.620	12.669890	-57.301972	54.360	0.060	0.380	0.420	54.610	-1.400	1.000	1014.10	25.70	25.80	20.30	20.40	0.00	72.00	72.00	435.00	25.60	21.00	10.10	86.00	6.70	15	3265.00	27.40	27.40	1580019060.0	6.85	12.69
26/01/2020 06:11:01	26012020	260120	061101	54.510	12.669910	-57.301947	54.300	-0.220	0.350	0.180	54.490	-1.000	0.800																			1580019061.0	6.75	12.50
26/01/2020 06:11:02	26012020	260120	061102	54.420	12.669930	-57.301922	54.350	-0.430	0.000	-0.170	54.420	-1.000	0.600																			1580019062.0	6.97	12.91
26/01/2020 06:11:03	26012020	260120	061103	54.470	12.669953	-57.301895	54.430	-0.370	-0.410	-0.540	54.490	-1.300	0.300																			1580019063.0	7.30	13.52
26/01/2020 06:11:04	26012020	260120	061104	54.560	12.669975	-57.301868	54.440	-0.070	-0.640	-0.710	54.570	-1.800	-0.100																			1580019064.0	7.50	13.89
26/01/2020 06:11:05	26012020	260120	061105	54.590	12.669997	-57.301840	54.270	0.180	-0.630	-0.610	54.570	-2.000	-0.300																			1580019065.0	7.48	13.85
26/01/2020 06:11:06	26012020	260120	061106	54.450	12.670017	-57.301812	54.050	0.260	-0.470	-0.480	54.410	-2.000	-0.200																			1580019066.0	7.33	13.58
26/01/2020 06:11:07	26012020	260120	061107	54.230	12.670035	-57.301783	54.000	0.260	-0.290	-0.500	54.190	-1.900	-0.100																			1580019067.0	7.19	13.32
26/01/2020 06:11:08	26012020	260120	061108	54.120	12.670057	-57.301757	54.220	0.290	-0.130	-0.630	54.130	-1.700	-0.100																			1580019068.0	7.18	13.30
26/01/2020 06:11:09	26012020	260120	061109	54.290	12.670078	-57.301732	54.450	0.250	0.070	-0.620	54.340	-1.500	-0.200																			1580019069.0	7.28	13.48
26/01/2020 06:11:10	26012020	260120	061110	54.540	12.670100	-57.301703	54.450	-0.030	0.360	-0.320	54.570	-1.300	-0.300																			1580019070.0	7.31	13.54
26/01/2020 06:11:11	26012020	260120	061111	54.590	12.670118	-57.301677	54.340	-0.460	0.600	0.170	54.560	-1.100	0.000																			1580019071.0	7.14	13.22
26/01/2020 06:11:12	26012020	260120	061112	54.450	12.670137	-57.301648	54.250	-0.690	0.460	0.540	54.420	-0.800	0.500																			1580019072.0	6.89	12.76
26/01/2020 06:11:13	26012020	260120	061113	54.340	12.670153	-57.301622	54.190	-0.440	-0.230	0.650	54.320	-0.900	0.900																			1580019073.0	6.84	12.67
26/01/2020 06:11:14	26012020	260120	061114	54.290	12.670173	-57.301593	54.140	0.100	-1.040	0.590	54.280	-1.500	1.000																			1580019074.0	7.28	13.48
26/01/2020 06:11:15	26012020	260120	061115	54.250	12.670193	-57.301563	54.000	0.440	-1.210	0.470	54.230	-2.400	1.000																			1580019075.0	7.84	14.52
26/01/2020 06:11:16	26012020	260120	061116	54.130	12.670217	-57.301533	53.860	0.370	-0.660	0.300	54.100	-2.600	0.900																			1580019076.0	7.80	14.45
26/01/2020 06:11:17	26012020	260120	061117	54.000	12.670237	-57.301508	53.800	0.130	0.020	0.000	53.980	-2.100	0.700																			1580019077.0	7.10	13.15
26/01/2020 06:11:18	26012020	260120	061118	53.920	12.670257	-57.301485	53.740	-0.040	0.360	-0.310	53.920	-1.400	0.400																			1580019078.0	6.61	12.24
26/01/2020 06:11:19	26012020	260120	061119	53.870	12.670278	-57.301460	53.660	-0.100	0.350	-0.580	53.850	-1.000	-0.100																			1580019079.0	6.81	12.61
26/01/2020 06:11:20	26012020	260120	061120	53.770	12.670300	-57.301435	53.720	-0.070	0.020	-0.860	53.760	-1.000	-0.200																			1580019080.0	7.17	13.28
26/01/2020 06:11:21	26012020	260120	061121	53.810	12.670322	-57.301407	53.850	0.040	-0.380	-1.020	53.830	-1.300	-0.500																			1580019081.0	7.42	13.74
26/01/2020 06:11:22	26012020	260120	061122	53.950	12.670343	-57.301378	53.880	0.120	-0.420	-0.880	53.970	-1.700	-0.600																			1580019082.0	7.66	14.19
26/01/2020 06:11:23	26012020	260120	061123	54.000	12.670365	-57.301350	53.810	0.070	-0.130	-0.530	54.000	-1.800	-0.500																			1580019083.0	7.55	13.98
26/01/2020 06:11:24	26012020	260120	061124	53.940	12.670385	-57.301323	53.720	-0.060	0.110	-0.110	53.920	-1.600	-0.200																			1580019084.0	7.10	13.15
26/01/2020 06:11:25	26012020	260120	061125	53.850	12.670403	-57.301297	53.670	-0.180	0.090	0.310	53.830	-1.300	0.200																			1580019085.0	6.86	12.70
26/01/2020 06:11:26	26012020	260120	061126	53.790	12.670422	-57.301270	53.580	-0.240	-0.120	0.650	53.770	-1.300	0.600																			1580019086.0	7.00	12.96
26/01/2020 06:11:27	26012020	260120	061127	53.710	12.670440	-57.301242	53.490	-0.220	-0.340	0.820	53.690	-1.500	1.000																			1580019087.0	7.25	13.43
26/01/2020 06:11:28	26012020	260120	061128	53.610	12.670460	-57.301212	53.410	-0.070	-0.500	0.840	53.590	-1.700	1.200																			1580019088.0	7.36	13.63
26/01/2020 06:11:29	26012020	260120	061129	53.530	12.670480	-57.301183	53.430	0.180	-0.570	0.560	53.530	-1.900	1.200																			1580019089.0	7.35	13.61
26/01/2020 06:11:30	26012020	260120	061130	53.550	12.670502	-57.301157	53.400	0.380	-0.420	0.120	53.560	-2.000	1.000																			1580019090.0	7.34	13.59
26/01/2020 06:11:31	26012020	260120	061131	53.550	12.670523	-57.301130	53.220	0.350	-0.030	-0.210	53.530	-1.800	0.500																			1580019091.0	7.35	13.61
26/01/2020 06:11:32	26012020	260120	061132	53.390	12.670545	-57.301105	53.080	0.080	0.260	-0.500	53.350	-1.500	0.200																			1580019092.0	7.17	13.28
26/01/2020 06:11:33	26012020	260120	061133	53.210	12.670568	-57.301080	53.140	-0.190	0.190	-0.850	53.200	-1.200	-0.100																			1580019093.0	6.97	12.91
26/01/2020 06:11:34	26012020	260120	061134	53.250	12.670590	-57.301057	53.350	-0.260	-0.040	-1.110	53.270	-1.200	-0.400																			1580019094.0	7.12	13.19
26/01/2020 06:11:35	26012020	260120	061135	53.450	12.670613	-57.301030	53.500	-0.180	-0.170	-1.000	53.490	-1.400	-0.700																			1580019095.0	7.40	13.70
26/01/2020 06:11:36	26012020	260120	061136	53.620	12.670635	-57.301003	53.460	-0.090	-0.260	-0.520	53.640	-1.600	-0.700																			1580019096.0	7.38	13.67
26/01/2020 06:11:37	26012020	260120	061137	53.630	12.670653	-57.300973	53.170	-0.050	-0.380	0.140	53.600	-1.600	-0.200																			1580019097.0	7.26	13.45
26/01/2020 06:11:38	26012020	260120	061138	53.380	12.670670	-57.300945	52.860	-0.000	-0.430	0.700	53.310	-1.800	0.500																			1580019098.0	7.31	13.54
26/01/2020 06:11:39	26012020	260120	061139	53.040	12.670688	-57.300915	52.740	0.090	-0.330	0.940	52.980	-1.800	1.000																			1580019099.0	7.36	13.63
26/01/2020 06:11:40	26012020	260120	061140	52.870	12.670708	-57.300887	52.890	0.170	-0.180	0.740	52.870	-1.700	1.300																			1580019100.0	7.28	13.48
26/01/2020 06:11:41	26012020	260120	061141	52.970	12.670728	-57.300860	53.060	0.160	-0.060	0.320	53.010	-1.600	1.200																			1580019101.0	7.17	13.28
26/01/2020 06:11:42	26012020	260120	061142	53.160	12.670752	-57.300835	53.120	0.010	0.100	-0.060	53.200	-1.500	0.700																			1580019102.0	7.19	13.32
26/01/2020 06:11:43	26012020	260120	061143	53.250	12.670773	-57.300810	53.110	-0.180	0.190	-0.310	53.260	-1.300	0.400																			1580019103.0	7.18	13.30
26/01/2020 06:11:44	26012020	260120	061144	53.250	12.670795	-57.300785	53.100	-0.220	-0.010	-0.450	53.250	-1.200	0.100																			1580019104.0	7.08	13.11
26/01/2020 06:11:45	26012020	260120	061145	53.250	12.670818	-57.300758	53.070	-0.020	-0.370	-0.470	53.250	-1.400	-0.100																			1580019105.0	7.18	13.30
26/01/2020 06:11:46	26012020	260120	061146	53.240	12.670840	-57.300732	53.020	0.240	-0.630	-0.430	53.230	-1.700	-0.100																			1580019106.0	7.47	13.83
26/01/2020 06:11:47	26012020	260120	061147	53.190	12.670862	-57.300703	53.020	0.340	-0.670	-0.340	53.180	-2.000	-0.100																			1580019107.0	7.60	14.08
26/01/2020 06:11:48	26012020	260120	061148	53.180	12.670882	-57.300675	53.020	0.230	-0.440	-0.150	53.180	-2.100	0.000																			1580019108.0	7.50	13.89
26/01/2020 06:11:49	26012020	260120	061149	53.190	12.670903	-57.300647	53.000	-0.030	0.090	0.050	53.190	-1.900	0.200																			1580019109.0	7.33	13.58
26/01/2020 06:11:50	26012020	260120	061150	53.170	12.670922	-57.300620	52.960	-0.300	0.630	0.180	53.160	-1.400	0.400																			1580019110.0	7.05	13.06
26/01/2020 06:11:51	26012020	260120	061151	53.120	12.670942	-57.300595	52.980	-0.420	0.660	0.150	53.110	-0.800	0.600																			1580019111.0	6.72	12.45
26/01/2020 06:11:52	26012020	260120	061152	53.120	12.670960	-57.300570	53.080	-0.280	0.020	0.060	53.130	-0.700	0.500																			1580019112.0	6.76	12.52
26/01/2020 06:11:53	26012020	260120	061153	53.190	12.670982	-57.300542	53.140	-0.010	-0.760	-0.010	53.210	-1.300	0.400																			1580019113.0	7.35	13.61
26/01/2020 06:11:54	26012020	260120	061154	53.250	12.671005	-57.300513	53.110	0.180	-1.030	-0.070	53.260	-2.100	0.400																			1580019114.0	7.92	14.67
26/01/2020 06:11:55	26012020	260120	061155	53.260	12.671027	-57.300483	52.980	0.180	-0.620	-0.030	53.250	-2.400	0.300																			1580019115.0	7.86	14.56
26/01/2020 06:11:56	26012020	260120	061156	53.150	12.671048	-57.300458	52.970	0.130	-0.090	-0.020	53.120	-2.100	0.400																			1580019116.0	7.22	13.37
26/01/2020 06:11:57	26012020	260120	061157	53.100	12.671068	-57.300433	53.080	0.140	0.140	-0.080	53.110	-1.300	0.300																			1580019117.0	6.70	12.41
26/01/2020 06:11:58	26012020	260120	061158	53.210	12.671088	-57.300407	53.130	0.150	0.110	-0.120	53.230	-1.300	0.300																			1580019118.0	6.89	12.76
26/01/2020 06:11:59	26012020	260120	061159	53.270	12.671110	-57.300380	53.090	0.110	-0.060	-0.130	53.270	-1.300	0.300																			1580019119.0	7.27	13.46
26/01/2020 06:12:00	26012020	260120	061200	53.230	12.671132	-57.300353	53.010	0.030	-0.250	-0.100	53.220	-1.400	0.300	1014.10	25.70	25.80	20.40	20.40	0.00	72.00	72.00	435.00	25.60	21.00	9.80	86.00	6.50	15	3252.00	27.40	27.40	1580019120.0	7.44	13.78
26/01/2020 06:12:01	26012020	260120	061201	53.150	12.671153	-57.300325	52.990	-0.070	-0.240	-0.020	53.140	-1.600	0.300																			1580019121.0	7.54	13.96
26/01/2020 06:12:02	26012020	260120	061202	53.120	12.671175	-57.300298	53.030	-0.180	-0.040	0.090	53.130	-1.600	0.400																			1580019122.0	7.44	13.78
26/01/2020 06:12:03	26012020	260120	061203	53.160	12.671195	-57.300270	53.080	-0.250	0.090	0.140	53.160	-1.400	0.500																			1580019123.0	7.15	13.24
26/01/2020 06:12:04	26012020	260120	061204	53.190	12.671215	-57.300245	53.130	-0.190	-0.050	0.070	53.200	-1.300	0.500																			1580019124.0	6.98	12.93
26/01/2020 06:12:05	26012020	260120	061205	53.250	12.671235	-57.300218	53.150	-0.020	-0.260	-0.010	53.260	-1.400	0.500																			1580019125.0	7.15	13.24
26/01/2020 06:12:06	26012020	260120	061206	53.270	12.671257	-57.300190	53.190	0.090	-0.340	-0.110	53.280	-1.600	0.400																			1580019126.0	7.41	13.72
26/01/2020 06:12:07	26012020	260120	061207	53.310	12.671277	-57.300163	53.250	0.040	-0.290	-0.190	53.320	-1.700	0.300																			1580019127.0	7.39	13.69
26/01/2020 06:12:08	26012020	260120	061208	53.380	12.671298	-57.300137	53.330	-0.080	-0.200	-0.250	53.400	-1.700	0.200																			1580019128.0	7.22	13.37
26/01/2020 06:12:09	26012020	260120	061209	53.470	12.671320	-57.300110	53.340	-0.120	-0.130	-0.250	53.480	-1.500	0.100																			1580019129.0	7.12	13.19
26/01/2020 06:12:10	26012020	260120	061210	53.510	12.671342	-57.300083	53.190	0.020	-0.160	-0.090	53.500	-1.500	0.100																			1580019130.0	7.12	13.19
26/01/2020 06:12:11	26012020	260120	061211	53.390	12.671362	-57.300057	53.000	0.310	-0.450	0.100	53.340	-1.500	0.300																			1580019131.0	7.19	13.32
26/01/2020 06:12:12	26012020	260120	061212	53.170	12.671382	-57.300028	53.080	0.590	-0.780	0.040	53.160	-1.800	0.500																			1580019132.0	7.42	13.74
26/01/2020 06:12:13	26012020	260120	061213	53.200	12.671405	-57.300000	53.250	0.550	-0.530	-0.100	53.240	-2.100	0.400																			1580019133.0	7.82	14.48
26/01/2020 06:12:14	26012020	260120	061214	53.380	12.671428	-57.299972	53.260	0.010	0.400	-0.080	53.410	-2.000	0.300																			1580019134.0	7.77	14.39
26/01/2020 06:12:15	26012020	260120	061215	53.420	12.671448	-57.299947	53.200	-0.700	1.150	0.080	53.410	-1.100	0.300																			1580019135.0	6.93	12.83
26/01/2020 06:12:16	26012020	260120	061216	53.340	12.671467	-57.299923	53.280	-0.970	0.790	0.070	53.330	-0.300	0.400																			1580019136.0	6.20	11.48
26/01/2020 06:12:17	26012020	260120	061217	53.390	12.671485	-57.299898	53.460	-0.600	-0.350	-0.050	53.420	-0.500	0.500																			1580019137.0	6.62	12.26
26/01/2020 06:12:18	26012020	260120	061218	53.580	12.671507	-57.299868	53.540	-0.010	-1.100	-0.120	53.610	-1.600	0.300																			1580019138.0	7.82	14.48
26/01/2020 06:12:19	26012020	260120	061219	53.690	12.671530	-57.299838	53.410	0.340	-0.960	-0.030	53.680	-2.500	0.300																			1580019139.0	8.22	15.22
26/01/2020 06:12:20	26012020	260120	061220	53.590	12.671550	-57.299808	53.250	0.420	-0.430	0.010	53.550	-2.400	0.300																			1580019140.0	7.49	13.87
26/01/2020 06:12:21	26012020	260120	061221	53.420	12.671568	-57.299783	53.160	0.440	-0.110	-0.130	53.390	-1.900	0.400																			1580019141.0	6.72	12.45
26/01/2020 06:12:22	26012020	260120	061222	53.310	12.671590	-57.299760	53.110	0.490	-0.100	-0.340	53.300	-1.500	0.300																			1580019142.0	6.73	12.46
26/01/2020 06:12:23	26012020	260120	061223	53.260	12.671613	-57.299735	53.110	0.410	-0.210	-0.490	53.260	-1.500	0.100																			1580019143.0	7.22	13.37
26/01/2020 06:12:24	26012020	260120	061224	53.260	12.671637	-57.299708	53.180	0.100	-0.140	-0.470	53.270	-1.600	-0.100																			1580019144.0	7.54	13.96
26/01/2020 06:12:25	26012020	260120	061225	53.320	12.671660	-57.299682	53.360	-0.370	0.140	-0.270	53.330	-1.500	-0.100																			1580019145.0	7.52	13.93
26/01/2020 06:12:26	26012020	260120	061226	53.450	12.671680	-57.299655	53.590	-0.770	0.380	-0.000	53.490	-1.300	0.100																			1580019146.0	7.19	13.32
26/01/2020 06:12:27	26012020	260120	061227	53.660	12.671698	-57.299628	53.730	-0.830	0.340	0.220	53.700	-1.000	0.400																			1580019147.0	6.91	12.80
26/01/2020 06:12:28	26012020	260120	061228	53.830	12.671715	-57.299600	53.670	-0.480	-0.030	0.500	53.840	-1.000	0.600																			1580019148.0	6.95	12.87
26/01/2020 06:12:29	26012020	260120	061229	53.810	12.671733	-57.299572	53.480	0.090	-0.540	0.680	53.780	-1.400	0.800																			1580019149.0	7.24	13.41
26/01/2020 06:12:30	26012020	260120	061230	53.630	12.671753	-57.299542	53.370	0.600	-0.970	0.510	53.600	-1.900	1.100																			1580019150.0	7.52	13.93
26/01/2020 06:12:31	26012020	260120	061231	53.510	12.671775	-57.299513	53.370	0.800	-0.930	0.060	53.500	-2.300	0.900																			1580019151.0	7.68	14.22
26/01/2020 06:12:32	26012020	260120	061232	53.500	12.671798	-57.299487	53.480	0.580	-0.260	-0.450	53.510	-2.300	0.500																			1580019152.0	7.65	14.17
26/01/2020 06:12:33	26012020	260120	061233	53.600	12.671823	-57.299463	53.680	0.100	0.510	-0.800	53.640	-1.200	-0.300																			1580019153.0	7.21	13.35
26/01/2020 06:12:34	26012020	260120	061234	53.790	12.671847	-57.299442	53.810	-0.340	0.700	-0.810	53.830	-0.900	-0.400																			1580019154.0	6.63	12.28
26/01/2020 06:12:35	26012020	260120	061235	53.940	12.671867	-57.299418	53.810	-0.540	0.270	-0.470	53.950	-0.700	-0.400																			1580019155.0	6.67	12.35
26/01/2020 06:12:36	26012020	260120	061236	53.950	12.671887	-57.299390	53.800	-0.440	-0.400	-0.030	53.940	-1.100	-0.100																			1580019156.0	7.25	13.43
26/01/2020 06:12:37	26012020	260120	061237	53.910	12.671905	-57.299358	53.830	-0.140	-0.860	0.290	53.910	-1.700	0.300																			1580019157.0	7.74	14.33
26/01/2020 06:12:38	26012020	260120	061238	53.930	12.671923	-57.299327	53.840	0.150	-0.830	0.430	53.940	-2.200	0.600																			1580019158.0	7.81	14.46
26/01/2020 06:12:39	26012020	260120	061239	53.970	12.671943	-57.299298	53.800	0.330	-0.390	0.460	53.970	-2.200	0.800																			1580019159.0	7.53	13.95
26/01/2020 06:12:40	26012020	260120	061240	53.940	12.671963	-57.299270	53.740	0.380	0.080	0.340	53.920	-1.800	0.800																			1580019160.0	7.08	13.11
26/01/2020 06:12:41	26012020	260120	061241	53.870	12.671983	-57.299245	53.680	0.280	0.360	0.000	53.850	-1.400	0.700																			1580019161.0	6.90	12.78
26/01/2020 06:12:42	26012020	260120	061242	53.790	12.672005	-57.299222	53.690	0.040	0.370	-0.450	53.790	-1.000	0.400																			1580019162.0	7.01	12.98
26/01/2020 06:12:43	26012020	260120	061243	53.790	12.672028	-57.299197	53.800	-0.220	0.120	-0.780	53.810	-1.000	-0.000																			1580019163.0	7.16	13.26
26/01/2020 06:12:44	26012020	260120	061244	53.900	12.672053	-57.299172	53.910	-0.390	-0.190	-0.840	53.940	-1.200	-0.400																			1580019164.0	7.35	13.61
26/01/2020 06:12:45	26012020	260120	061245	54.030	12.672075	-57.299145	53.920	-0.390	-0.450	-0.620	54.050	-1.600	-0.500																			1580019165.0	7.44	13.78
26/01/2020 06:12:46	26012020	260120	061246	54.060	12.672095	-57.299117	53.860	-0.230	-0.620	-0.240	54.050	-1.800	-0.300																			1580019166.0	7.38	13.67
26/01/2020 06:12:47	26012020	260120	061247	53.990	12.672113	-57.299088	53.820	-0.010	-0.590	0.160	53.980	-2.000	0.100																			1580019167.0	7.37	13.65
26/01/2020 06:12:48	26012020	260120	061248	53.940	12.672132	-57.299058	53.870	0.200	-0.390	0.350	53.940	-2.000	0.500																			1580019168.0	7.36	13.63
26/01/2020 06:12:49	26012020	260120	061249	53.990	12.672150	-57.299030	53.880	0.420	-0.210	0.340	54.010	-1.800	0.700																			1580019169.0	7.18	13.30
26/01/2020 06:12:50	26012020	260120	061250	54.040	12.672170	-57.299002	53.710	0.510	-0.030	0.270	54.030	-1.600	0.700																			1580019170.0	7.16	13.26
26/01/2020 06:12:51	26012020	260120	061251	53.890	12.672190	-57.298975	53.540	0.410	0.110	0.070	53.850	-1.400	0.700																			1580019171.0	7.28	13.48
26/01/2020 06:12:52	26012020	260120	061252	53.710	12.672213	-57.298950	53.620	0.170	0.100	-0.270	53.690	-1.300	0.500																			1580019172.0	7.29	13.50
26/01/2020 06:12:53	26012020	260120	061253	53.730	12.672237	-57.298925	53.820	-0.120	0.030	-0.550	53.770	-1.300	0.200																			1580019173.0	7.31	13.54
26/01/2020 06:12:54	26012020	260120	061254	53.940	12.672260	-57.298898	53.910	-0.410	0.050	-0.600	53.980	-1.400	-0.100																			1580019174.0	7.38	13.67
26/01/2020 06:12:55	26012020	260120	061255	54.070	12.672282	-57.298872	53.860	-0.570	0.000	-0.410	54.070	-1.400	-0.200																			1580019175.0	7.26	13.45
26/01/2020 06:12:56	26012020	260120	061256	54.010	12.672302	-57.298845	53.820	-0.480	-0.240	-0.100	54.000	-1.400	-0.100																			1580019176.0	7.11	13.17
26/01/2020 06:12:57	26012020	260120	061257	53.960	12.672320	-57.298817	53.870	-0.160	-0.540	0.150	53.960	-1.600	0.300																			1580019177.0	7.23	13.39
26/01/2020 06:12:58	26012020	260120	061258	54.000	12.672338	-57.298787	53.900	0.170	-0.600	0.200	54.010	-1.900	0.500																			1580019178.0	7.48	13.85
26/01/2020 06:12:59	26012020	260120	061259	54.050	12.672358	-57.298758	53.790	0.320	-0.390	0.090	54.040	-1.900	0.500																			1580019179.0	7.49	13.87
26/01/2020 06:13:00	26012020	260120	061300	53.970	12.672380	-57.298730	53.700	0.290	-0.090	-0.080	53.940	-1.800	0.500	1014.10	25.70	25.80	20.50	20.50	0.00	72.00	72.00	435.00	25.60	21.00	9.80	87.00	6.40	15	3265.00	27.40	27.40	1580019180.0	7.26	13.45
26/01/2020 06:13:01	26012020	260120	061301	53.870	12.672400	-57.298705	53.720	0.240	0.050	-0.310	53.860	-1.500	0.300																			1580019181.0	7.05	13.06
26/01/2020 06:13:02	26012020	260120	061302	53.870	12.672423	-57.298680	53.750	0.230	-0.100	-0.480	53.880	-1.400	0.100																			1580019182.0	7.07	13.09
26/01/2020 06:13:03	26012020	260120	061303	53.910	12.672445	-57.298655	53.750	0.180	-0.340	-0.510	53.910	-1.500	-0.100																			1580019183.0	7.34	13.59
26/01/2020 06:13:04	26012020	260120	061304	53.910	12.672468	-57.298627	53.840	0.020	-0.340	-0.450	53.920	-1.700	-0.100																			1580019184.0	7.63	14.13
26/01/2020 06:13:05	26012020	260120	061305	53.980	12.672490	-57.298598	53.900	-0.210	0.030	-0.260	54.000	-1.700	-0.100																			1580019185.0	7.59	14.06
26/01/2020 06:13:06	26012020	260120	061306	54.050	12.672510	-57.298570	53.850	-0.400	0.460	0.080	54.060	-1.400	0.100																			1580019186.0	7.21	13.35
26/01/2020 06:13:07	26012020	260120	061307	54.010	12.672527	-57.298543	53.720	-0.450	0.390	0.300	53.990	-1.000	0.400																			1580019187.0	6.79	12.58
26/01/2020 06:13:08	26012020	260120	061308	53.890	12.672545	-57.298517	53.710	-0.270	-0.260	0.200	53.860	-1.000	0.700																			1580019188.0	6.85	12.69
26/01/2020 06:13:09	26012020	260120	061309	53.830	12.672567	-57.298488	53.830	0.120	-0.860	-0.090	53.840	-1.600	0.600																			1580019189.0	7.44	13.78
26/01/2020 06:13:10	26012020	260120	061310	53.950	12.672590	-57.298460	53.880	0.490	-0.890	-0.190	53.990	-2.200	0.300																			1580019190.0	7.92	14.67
26/01/2020 06:13:11	26012020	260120	061311	54.040	12.672613	-57.298433	53.790	0.580	-0.470	-0.080	54.030	-2.300	0.200																			1580019191.0	7.71	14.28
26/01/2020 06:13:12	26012020	260120	061312	53.970	12.672633	-57.298407	53.750	0.330	-0.020	-0.070	53.950	-1.900	0.300																			1580019192.0	7.18	13.30
26/01/2020 06:13:13	26012020	260120	061313	53.900	12.672653	-57.298380	53.810	-0.000	0.220	-0.260	53.890	-1.400	0.300																			1580019193.0	6.92	12.82
26/01/2020 06:13:14	26012020	260120	061314	53.940	12.672675	-57.298355	53.920	-0.240	0.300	-0.420	53.950	-1.200	0.100																			1580019194.0	7.02	13.00
26/01/2020 06:13:15	26012020	260120	061315	54.050	12.672697	-57.298328	54.040	-0.360	0.200	-0.480	54.070	-1.100	-0.000																			1580019195.0	7.20	13.33
26/01/2020 06:13:16	26012020	260120	061316	54.170	12.672717	-57.298302	54.130	-0.350	-0.140	-0.460	54.190	-1.200	-0.100																			1580019196.0	7.25	13.43
26/01/2020 06:13:17	26012020	260120	061317	54.270	12.672738	-57.298273	54.110	-0.200	-0.510	-0.280	54.280	-1.500	-0.100																			1580019197.0	7.39	13.69
26/01/2020 06:13:18	26012020	260120	061318	54.270	12.672758	-57.298245	53.900	-0.000	-0.520	0.070	54.250	-1.900	0.100																			1580019198.0	7.65	14.17
26/01/2020 06:13:19	26012020	260120	061319	54.090	12.672778	-57.298215	53.690	0.130	-0.240	0.340	54.040	-1.900	0.400																			1580019199.0	7.54	13.96
26/01/2020 06:13:20	26012020	260120	061320	53.850	12.672797	-57.298187	53.610	0.220	-0.080	0.230	53.820	-1.700	0.700																			1580019200.0	7.11	13.17
26/01/2020 06:13:21	26012020	260120	061321	53.760	12.672817	-57.298162	53.690	0.290	-0.180	-0.210	53.760	-1.500	0.600																			1580019201.0	6.96	12.89
26/01/2020 06:13:22	26012020	260120	061322	53.820	12.672840	-57.298135	53.830	0.230	-0.230	-0.660	53.850	-1.600	0.200																			1580019202.0	7.30	13.52
26/01/2020 06:13:23	26012020	260120	061323	53.960	12.672865	-57.298110	53.990	0.040	-0.150	-0.880	54.000	-1.600	-0.300																			1580019203.0	7.59	14.06
26/01/2020 06:13:24	26012020	260120	061324	54.120	12.672888	-57.298085	54.130	-0.130	-0.070	-0.720	54.160	-1.600	-0.500																			1580019204.0	7.44	13.78
26/01/2020 06:13:25	26012020	260120	061325	54.260	12.672910	-57.298058	54.220	-0.230	-0.040	-0.230	54.290	-1.500	-0.400																			1580019205.0	7.24	13.41
26/01/2020 06:13:26	26012020	260120	061326	54.360	12.672928	-57.298030	54.190	-0.310	-0.030	0.350	54.360	-1.400	0.100																			1580019206.0	7.26	13.45
26/01/2020 06:13:27	26012020	260120	061327	54.330	12.672945	-57.298000	54.070	-0.300	-0.130	0.700	54.310	-1.400	0.700																			1580019207.0	7.30	13.52
26/01/2020 06:13:28	26012020	260120	061328	54.210	12.672962	-57.297970	53.970	-0.060	-0.310	0.720	54.180	-1.500	1.000																			1580019208.0	7.27	13.46
26/01/2020 06:13:29	26012020	260120	061329	54.100	12.672982	-57.297942	53.990	0.370	-0.520	0.400	54.090	-1.700	1.100																			1580019209.0	7.37	13.65
26/01/2020 06:13:30	26012020	260120	061330	54.110	12.673003	-57.297913	54.030	0.730	-0.590	-0.110	54.120	-1.900	0.800																			1580019210.0	7.50	13.89
26/01/2020 06:13:31	26012020	260120	061331	54.170	12.673028	-57.297887	53.980	0.670	-0.260	-0.500	54.180	-2.000	0.300																			1580019211.0	7.66	14.19
26/01/2020 06:13:32	26012020	260120	061332	54.160	12.673053	-57.297862	53.810	0.080	0.370	-0.620	54.140	-1.700	-0.100																			1580019212.0	7.54	13.96
26/01/2020 06:13:33	26012020	260120	061333	53.990	12.673075	-57.297838	53.770	-0.680	0.690	-0.690	53.950	-1.100	-0.200																			1580019213.0	6.99	12.95
26/01/2020 06:13:34	26012020	260120	061334	53.910	12.673097	-57.297815	54.030	-1.050	0.350	-0.750	53.930	-0.700	-0.300																			1580019214.0	6.66	12.33
26/01/2020 06:13:35	26012020	260120	061335	54.110	12.673117	-57.297788	54.360	-0.760	-0.370	-0.680	54.180	-1.000	-0.400																			1580019215.0	7.02	13.00
26/01/2020 06:13:36	26012020	260120	061336	54.440	12.673138	-57.297760	54.490	-0.070	-0.950	-0.380	54.500	-1.700	-0.300																			1580019216.0	7.61	14.09
26/01/2020 06:13:37	26012020	260120	061337	54.640	12.673157	-57.297728	54.280	0.530	-1.010	0.150	54.640	-2.400	0.300																			1580019217.0	7.91	14.65
26/01/2020 06:13:38	26012020	260120	061338	54.490	12.673175	-57.297697	53.880	0.720	-0.650	0.520	54.420	-2.400	0.500																			1580019218.0	7.74	14.33
26/01/2020 06:13:39	26012020	260120	061339	54.090	12.673193	-57.297667	53.640	0.600	-0.200	0.380	54.010	-2.100	0.900																			1580019219.0	7.28	13.48
26/01/2020 06:13:40	26012020	260120	061340	53.800	12.673213	-57.297640	53.700	0.360	0.310	-0.170	53.780	-1.600	0.800																			1580019220.0	7.07	13.09
26/01/2020 06:13:41	26012020	260120	061341	53.820	12.673237	-57.297617	53.930	0.030	0.720	-0.720	53.850	-1.100	0.300																			1580019221.0	7.12	13.19
26/01/2020 06:13:42	26012020	260120	061342	54.040	12.673262	-57.297595	54.180	-0.280	0.620	-1.040	54.100	-0.700	-0.300																			1580019222.0	7.02	13.00
26/01/2020 06:13:43	26012020	260120	061343	54.310	12.673285	-57.297572	54.270	-0.460	-0.010	-0.920	54.340	-0.700	-0.700																			1580019223.0	7.05	13.06
26/01/2020 06:13:44	26012020	260120	061344	54.430	12.673307	-57.297543	54.170	-0.490	-0.590	-0.360	54.420	-1.300	-0.600																			1580019224.0	7.51	13.91
26/01/2020 06:13:45	26012020	260120	061345	54.330	12.673327	-57.297512	54.020	-0.390	-0.800	0.270	54.290	-1.900	-0.100																			1580019225.0	7.82	14.48
26/01/2020 06:13:46	26012020	260120	061346	54.150	12.673343	-57.297482	53.910	-0.160	-0.780	0.620	54.120	-2.200	0.600																			1580019226.0	7.57	14.02
26/01/2020 06:13:47	26012020	260120	061347	54.040	12.673360	-57.297452	53.800	0.140	-0.550	0.720	54.020	-2.200	1.000																			1580019227.0	7.28	13.48
26/01/2020 06:13:48	26012020	260120	061348	53.940	12.673380	-57.297423	53.750	0.320	-0.110	0.580	53.920	-2.000	1.100																			1580019228.0	7.21	13.35
26/01/2020 06:13:49	26012020	260120	061349	53.880	12.673400	-57.297397	53.820	0.320	0.240	0.220	53.880	-1.300	0.800																			1580019229.0	7.09	13.13
26/01/2020 06:13:50	26012020	260120	061350	53.930	12.673422	-57.297372	53.980	0.240	0.230	-0.300	53.960	-1.200	0.600																			1580019230.0	7.01	12.98
26/01/2020 06:13:51	26012020	260120	061351	54.090	12.673445	-57.297348	54.100	0.190	0.030	-0.640	54.130	-1.200	0.100																			1580019231.0	7.23	13.39
26/01/2020 06:13:52	26012020	260120	061352	54.230	12.673470	-57.297322	54.170	0.090	-0.110	-0.660	54.250	-1.300	-0.200																			1580019232.0	7.55	13.98
26/01/2020 06:13:53	26012020	260120	061353	54.290	12.673492	-57.297295	54.220	-0.130	-0.160	-0.480	54.300	-1.500	-0.300																			1580019233.0	7.50	13.89
26/01/2020 06:13:54	26012020	260120	061354	54.350	12.673512	-57.297267	54.210	-0.390	-0.160	-0.200	54.360	-1.500	-0.100																			1580019234.0	7.32	13.56
26/01/2020 06:13:55	26012020	260120	061355	54.350	12.673530	-57.297238	54.120	-0.450	-0.270	0.130	54.330	-1.500	0.100																			1580019235.0	7.17	13.28
26/01/2020 06:13:56	26012020	260120	061356	54.240	12.673550	-57.297210	54.030	-0.180	-0.510	0.350	54.220	-1.600	0.500																			1580019236.0	7.16	13.26
26/01/2020 06:13:57	26012020	260120	061357	54.140	12.673568	-57.297182	54.020	0.200	-0.550	0.400	54.130	-1.900	0.700																			1580019237.0	7.41	13.72
26/01/2020 06:13:58	26012020	260120	061358	54.120	12.673590	-57.297153	54.080	0.380	-0.250	0.360	54.120	-1.900	0.800																			1580019238.0	7.56	14.00
26/01/2020 06:13:59	26012020	260120	061359	54.170	12.673610	-57.297125	54.140	0.230	0.160	0.220	54.200	-1.700	0.700																			1580019239.0	7.29	13.50
26/01/2020 06:14:00	26012020	260120	061400	54.250	12.673630	-57.297100	54.070	-0.060	0.300	-0.030	54.260	-1.300	0.600	1014.10	25.70	25.80	20.60	20.60	0.00	73.00	73.00	435.00	25.60	22.00	9.90	89.00	6.60	15	3212.00	27.40	27.40	1580019240.0	6.97	12.91
26/01/2020 06:14:01	26012020	260120	061401	54.210	12.673652	-57.297073	53.980	-0.180	0.040	-0.300	54.200	-1.100	0.400																			1580019241.0	6.98	12.93
26/01/2020 06:14:02	26012020	260120	061402	54.120	12.673673	-57.297048	54.020	-0.030	-0.380	-0.500	54.110	-1.300	0.100																			1580019242.0	7.31	13.54
26/01/2020 06:14:03	26012020	260120	061403	54.120	12.673697	-57.297022	54.220	0.160	-0.580	-0.630	54.150	-1.700	-0.100																			1580019243.0	7.67	14.20
26/01/2020 06:14:04	26012020	260120	061404	54.310	12.673720	-57.296993	54.360	0.160	-0.400	-0.610	54.350	-2.000	-0.300																			1580019244.0	7.71	14.28
26/01/2020 06:14:05	26012020	260120	061405	54.490	12.673742	-57.296965	54.400	-0.040	-0.040	-0.400	54.510	-1.800	-0.200																			1580019245.0	7.35	13.61
26/01/2020 06:14:06	26012020	260120	061406	54.550	12.673760	-57.296938	54.330	-0.270	0.190	0.020	54.550	-1.500	-0.100																			1580019246.0	6.99	12.95
26/01/2020 06:14:07	26012020	260120	061407	54.490	12.673777	-57.296910	54.130	-0.360	0.150	0.480	54.470	-1.200	0.300																			1580019247.0	6.94	12.85
26/01/2020 06:14:08	26012020	260120	061408	54.310	12.673795	-57.296882	53.920	-0.240	-0.150	0.660	54.260	-1.200	0.800																			1580019248.0	7.14	13.22
26/01/2020 06:14:09	26012020	260120	061409	54.090	12.673813	-57.296852	53.870	0.070	-0.540	0.510	54.050	-1.500	1.000																			1580019249.0	7.40	13.70
26/01/2020 06:14:10	26012020	260120	061410	53.990	12.673835	-57.296823	53.960	0.390	-0.720	0.190	53.990	-1.900	0.900																			1580019250.0	7.63	14.13
26/01/2020 06:14:11	26012020	260120	061411	54.060	12.673858	-57.296797	54.020	0.490	-0.450	-0.080	54.090	-2.100	0.600																			1580019251.0	7.73	14.32
26/01/2020 06:14:12	26012020	260120	061412	54.150	12.673882	-57.296770	54.010	0.260	0.120	-0.250	54.150	-1.900	0.300																			1580019252.0	7.50	13.89
26/01/2020 06:14:13	26012020	260120	061413	54.160	12.673903	-57.296745	54.000	-0.120	0.540	-0.280	54.150	-1.300	0.100																			1580019253.0	7.03	13.02
26/01/2020 06:14:14	26012020	260120	061414	54.140	12.673923	-57.296720	54.040	-0.430	0.450	-0.260	54.140	-0.900	0.100																			1580019254.0	6.76	12.52
26/01/2020 06:14:15	26012020	260120	061415	54.160	12.673943	-57.296693	54.100	-0.490	-0.150	-0.250	54.170	-1.200	0.100																			1580019255.0	6.95	12.87
26/01/2020 06:14:16	26012020	260120	061416	54.220	12.673963	-57.296665	54.130	-0.270	-0.790	-0.100	54.240	-1.500	0.100																			1580019256.0	7.47	13.83
26/01/2020 06:14:17	26012020	260120	061417	54.260	12.673985	-57.296635	54.030	0.090	-0.980	0.220	54.260	-2.100	0.200																			1580019257.0	7.88	14.59
26/01/2020 06:14:18	26012020	260120	061418	54.180	12.674005	-57.296603	53.860	0.340	-0.600	0.490	54.150	-2.400	0.600																			1580019258.0	7.82	14.48
26/01/2020 06:14:19	26012020	260120	061419	54.010	12.674023	-57.296575	53.730	0.320	0.070	0.490	53.980	-2.000	0.800																			1580019259.0	7.37	13.65
26/01/2020 06:14:20	26012020	260120	061420	53.870	12.674042	-57.296548	53.640	0.100	0.570	0.190	53.840	-1.400	0.900																			1580019260.0	6.89	12.76
26/01/2020 06:14:21	26012020	260120	061421	53.790	12.674062	-57.296523	53.590	-0.060	0.500	-0.200	53.780	-0.800	0.600																			1580019261.0	6.70	12.41
26/01/2020 06:14:22	26012020	260120	061422	53.750	12.674085	-57.296500	53.620	-0.050	-0.080	-0.560	53.740	-0.900	0.200																			1580019262.0	7.02	13.00
26/01/2020 06:14:23	26012020	260120	061423	53.760	12.674108	-57.296473	53.760	0.050	-0.690	-0.800	53.770	-1.400	-0.200																			1580019263.0	7.58	14.04
26/01/2020 06:14:24	26012020	260120	061424	53.890	12.674133	-57.296445	53.920	0.080	-0.840	-0.760	53.920	-2.000	-0.400																			1580019264.0	7.92	14.67
26/01/2020 06:14:25	26012020	260120	061425	54.040	12.674157	-57.296417	53.970	-0.080	-0.420	-0.450	54.070	-2.200	-0.400																			1580019265.0	7.78	14.41
26/01/2020 06:14:26	26012020	260120	061426	54.110	12.674175	-57.296388	53.860	-0.350	0.200	0.120	54.110	-1.900	-0.100																			1580019266.0	7.25	13.43
26/01/2020 06:14:27	26012020	260120	061427	54.030	12.674192	-57.296362	53.690	-0.460	0.440	0.670	53.990	-1.000	0.800																			1580019267.0	6.75	12.50
26/01/2020 06:14:28	26012020	260120	061428	53.840	12.674208	-57.296333	53.590	-0.220	0.060	0.920	53.810	-0.900	1.000																			1580019268.0	6.75	12.50
26/01/2020 06:14:29	26012020	260120	061429	53.730	12.674225	-57.296305	53.490	0.220	-0.570	0.890	53.720	-1.300	1.300																			1580019269.0	7.26	13.45
26/01/2020 06:14:30	26012020	260120	061430	53.660	12.674247	-57.296273	53.380	0.530	-0.870	0.720	53.640	-1.900	1.300																			1580019270.0	7.85	14.54
26/01/2020 06:14:31	26012020	260120	061431	53.540	12.674268	-57.296243	53.330	0.530	-0.570	0.360	53.520	-2.300	1.100																			1580019271.0	7.95	14.72
26/01/2020 06:14:32	26012020	260120	061432	53.470	12.674292	-57.296217	53.370	0.300	0.100	-0.170	53.470	-2.000	0.800																			1580019272.0	7.51	13.91
26/01/2020 06:14:33	26012020	260120	061433	53.520	12.674315	-57.296193	53.460	0.020	0.650	-0.620	53.540	-1.300	0.300																			1580019273.0	6.97	12.91
26/01/2020 06:14:34	26012020	260120	061434	53.610	12.674338	-57.296172	53.510	-0.240	0.630	-0.870	53.630	-0.800	-0.200																			1580019274.0	6.76	12.52
26/01/2020 06:14:35	26012020	260120	061435	53.670	12.674360	-57.296148	53.530	-0.420	0.010	-0.900	53.690	-0.700	-0.500																			1580019275.0	6.92	12.82
26/01/2020 06:14:36	26012020	260120	061436	53.710	12.674382	-57.296122	53.550	-0.450	-0.690	-0.620	53.720	-1.300	-0.500																			1580019276.0	7.43	13.76
26/01/2020 06:14:37	26012020	260120	061437	53.720	12.674403	-57.296092	53.490	-0.340	-0.900	-0.060	53.720	-2.000	-0.300																			1580019277.0	7.85	14.54
26/01/2020 06:14:38	26012020	260120	061438	53.660	12.674423	-57.296060	53.310	-0.100	-0.700	0.650	53.630	-2.300	0.200																			1580019278.0	7.70	14.26
26/01/2020 06:14:39	26012020	260120	061439	53.480	12.674440	-57.296030	53.130	0.180	-0.470	1.160	53.430	-1.900	1.300																			1580019279.0	7.28	13.48
26/01/2020 06:14:40	26012020	260120	061440	53.280	12.674455	-57.296000	53.020	0.340	-0.240	1.250	53.250	-1.900	1.500																			1580019280.0	7.20	13.33
26/01/2020 06:14:41	26012020	260120	061441	53.160	12.674475	-57.295972	52.990	0.310	0.140	0.800	53.150	-1.600	1.600																			1580019281.0	7.33	13.58
26/01/2020 06:14:42	26012020	260120	061442	53.120	12.674495	-57.295945	53.050	0.150	0.450	-0.020	53.140	-1.300	1.200																			1580019282.0	7.24	13.41
26/01/2020 06:14:43	26012020	260120	061443	53.200	12.674520	-57.295922	53.210	0.040	0.320	-0.790	53.230	-0.900	0.400																			1580019283.0	7.11	13.17
26/01/2020 06:14:44	26012020	260120	061444	53.350	12.674545	-57.295898	53.270	-0.000	-0.080	-1.190	53.380	-1.000	-0.400																			1580019284.0	7.31	13.54
26/01/2020 06:14:45	26012020	260120	061445	53.440	12.674570	-57.295873	53.240	-0.080	-0.250	-1.080	53.440	-1.400	-0.800																			1580019285.0	7.70	14.26
26/01/2020 06:14:46	26012020	260120	061446	53.410	12.674595	-57.295847	53.140	-0.200	-0.200	-0.530	53.390	-1.600	-0.700																			1580019286.0	7.61	14.09
26/01/2020 06:14:47	26012020	260120	061447	53.310	12.674613	-57.295818	53.060	-0.280	-0.310	0.130	53.280	-1.600	-0.200																			1580019287.0	7.16	13.26
26/01/2020 06:14:48	26012020	260120	061448	53.210	12.674630	-57.295790	53.080	-0.260	-0.510	0.550	53.200	-1.700	0.400																			1580019288.0	7.13	13.20
26/01/2020 06:14:49	26012020	260120	061449	53.200	12.674648	-57.295760	53.190	-0.150	-0.530	0.700	53.210	-1.900	0.900																			1580019289.0	7.38	13.67
26/01/2020 06:14:50	26012020	260120	061450	53.300	12.674668	-57.295730	53.270	0.020	-0.290	0.780	53.320	-1.900	1.100																			1580019290.0	7.43	13.76
26/01/2020 06:14:51	26012020	260120	061451	53.380	12.674688	-57.295703	53.290	0.230	-0.100	0.790	53.390	-1.700	1.100																			1580019291.0	7.21	13.35
26/01/2020 06:14:52	26012020	260120	061452	53.410	12.674708	-57.295677	53.190	0.390	-0.160	0.660	53.410	-1.500	1.200																			1580019292.0	7.09	13.13
26/01/2020 06:14:53	26012020	260120	061453	53.360	12.674730	-57.295650	53.000	0.400	-0.230	0.340	53.320	-1.500	1.000																			1580019293.0	7.36	13.63
26/01/2020 06:14:54	26012020	260120	061454	53.170	12.674753	-57.295623	52.930	0.230	-0.100	-0.030	53.140	-1.600	0.800																			1580019294.0	7.61	14.09
26/01/2020 06:14:55	26012020	260120	061455	53.070	12.674777	-57.295597	53.060	-0.050	0.130	-0.420	53.080	-1.500	0.400																			1580019295.0	7.50	13.89
26/01/2020 06:14:56	26012020	260120	061456	53.190	12.674800	-57.295572	53.320	-0.320	0.190	-0.750	53.230	-1.300	0.000																			1580019296.0	7.20	13.33
26/01/2020 06:14:57	26012020	260120	061457	53.430	12.674822	-57.295547	53.420	-0.430	0.030	-0.860	53.480	-1.200	-0.400																			1580019297.0	7.11	13.17
26/01/2020 06:14:58	26012020	260120	061458	53.560	12.674843	-57.295520	53.380	-0.360	-0.170	-0.710	53.570	-1.300	-0.500																			1580019298.0	7.28	13.48
26/01/2020 06:14:59	26012020	260120	061459	53.540	12.674863	-57.295492	53.290	-0.220	-0.260	-0.320	53.530	-1.500	-0.400																			1580019299.0	7.41	13.72
26/01/2020 06:15:00	26012020	260120	061500	53.450	12.674883	-57.295463	53.240	-0.090	-0.310	0.010	53.430	-1.600	0.000	1014.10	25.70	25.80	20.30	20.40	0.00	72.00	72.00	435.00	25.60	17.00	10.00	81.00	6.50	15	3164.00	27.40	27.40	1580019300.0	7.38	13.67
26/01/2020 06:15:01	26012020	260120	061501	53.380	12.674903	-57.295435	53.260	0.070	-0.450	0.180	53.380	-1.700	0.400																			1580019301.0	7.22	13.37
26/01/2020 06:15:02	26012020	260120	061502	53.390	12.674923	-57.295408	53.280	0.290	-0.580	0.320	53.400	-1.800	0.500																			1580019302.0	7.27	13.46
26/01/2020 06:15:03	26012020	260120	061503	53.420	12.674943	-57.295380	53.140	0.390	-0.410	0.590	53.400	-2.000	0.700																			1580019303.0	7.49	13.87
26/01/2020 06:15:04	26012020	260120	061504	53.300	12.674965	-57.295352	53.060	0.290	-0.110	0.740	53.260	-1.800	0.900																			1580019304.0	7.45	13.80
26/01/2020 06:15:05	26012020	260120	061505	53.170	12.674983	-57.295323	53.180	0.120	0.030	0.520	53.170	-1.500	1.100																			1580019305.0	7.17	13.28
26/01/2020 06:15:06	26012020	260120	061506	53.270	12.675005	-57.295297	53.330	0.030	0.010	0.110	53.310	-1.400	0.900																			1580019306.0	7.16	13.26
26/01/2020 06:15:07	26012020	260120	061507	53.440	12.675027	-57.295272	53.310	0.040	-0.000	-0.180	53.460	-1.400	0.500																			1580019307.0	7.38	13.67
26/01/2020 06:15:08	26012020	260120	061508	53.460	12.675050	-57.295245	53.160	0.020	0.000	-0.390	53.440	-1.400	0.200																			1580019308.0	7.48	13.85
26/01/2020 06:15:09	26012020	260120	061509	53.330	12.675073	-57.295218	53.050	-0.070	-0.070	-0.500	53.300	-1.400	0.000																			1580019309.0	7.38	13.67
26/01/2020 06:15:10	26012020	260120	061510	53.200	12.675095	-57.295192	53.080	-0.160	-0.230	-0.500	53.190	-1.400	-0.100																			1580019310.0	7.33	13.58
26/01/2020 06:15:11	26012020	260120	061511	53.200	12.675118	-57.295165	53.240	-0.210	-0.370	-0.460	53.220	-1.600	-0.100																			1580019311.0	7.40	13.70
26/01/2020 06:15:12	26012020	260120	061512	53.360	12.675140	-57.295138	53.380	-0.280	-0.280	-0.230	53.390	-1.700	-0.100																			1580019312.0	7.47	13.83
26/01/2020 06:15:13	26012020	260120	061513	53.490	12.675160	-57.295110	53.480	-0.390	0.090	0.170	53.510	-1.700	0.100																			1580019313.0	7.42	13.74
26/01/2020 06:15:14	26012020	260120	061514	53.600	12.675178	-57.295082	53.560	-0.450	0.310	0.560	53.620	-1.300	0.500																			1580019314.0	7.08	13.11
26/01/2020 06:15:15	26012020	260120	061515	53.680	12.675195	-57.295055	53.540	-0.250	-0.060	0.760	53.690	-1.100	0.900																			1580019315.0	6.81	12.61
26/01/2020 06:15:16	26012020	260120	061516	53.680	12.675213	-57.295027	53.500	0.240	-0.810	0.590	53.670	-1.400	1.100																			1580019316.0	7.13	13.20
26/01/2020 06:15:17	26012020	260120	061517	53.650	12.675235	-57.294997	53.470	0.760	-1.180	0.220	53.650	-2.100	1.000																			1580019317.0	7.83	14.50
26/01/2020 06:15:18	26012020	260120	061518	53.640	12.675260	-57.294967	53.440	0.930	-0.750	-0.070	53.640	-2.600	0.600																			1580019318.0	8.14	15.08
26/01/2020 06:15:19	26012020	260120	061519	53.600	12.675285	-57.294942	53.420	0.590	0.140	-0.340	53.600	-2.200	0.300																			1580019319.0	7.67	14.20
26/01/2020 06:15:20	26012020	260120	061520	53.580	12.675307	-57.294917	53.410	-0.010	0.740	-0.670	53.570	-1.300	0.100																			1580019320.0	6.91	12.80
26/01/2020 06:15:21	26012020	260120	061521	53.560	12.675328	-57.294895	53.520	-0.410	0.590	-0.950	53.570	-0.700	-0.300																			1580019321.0	6.63	12.28
26/01/2020 06:15:22	26012020	260120	061522	53.650	12.675350	-57.294870	53.660	-0.480	0.070	-0.960	53.670	-0.800	-0.600																			1580019322.0	7.11	13.17
26/01/2020 06:15:23	26012020	260120	061523	53.790	12.675373	-57.294842	53.800	-0.440	-0.220	-0.740	53.820	-1.300	-0.600																			1580019323.0	7.75	14.35
26/01/2020 06:15:24	26012020	260120	061524	53.930	12.675395	-57.294812	53.900	-0.420	-0.210	-0.330	53.950	-1.600	-0.400																			1580019324.0	7.74	14.33
26/01/2020 06:15:25	26012020	260120	061525	54.040	12.675413	-57.294783	53.860	-0.400	-0.140	0.230	54.050	-1.600	-0.000																			1580019325.0	7.31	13.54
26/01/2020 06:15:26	26012020	260120	061526	54.010	12.675430	-57.294755	53.680	-0.230	-0.380	0.690	53.980	-1.500	0.500																			1580019326.0	6.99	12.95
26/01/2020 06:15:27	26012020	260120	061527	53.840	12.675448	-57.294727	53.580	0.140	-0.870	0.870	53.810	-1.700	1.000																			1580019327.0	7.10	13.15
26/01/2020 06:15:28	26012020	260120	061528	53.720	12.675468	-57.294697	53.560	0.470	-1.010	0.790	53.710	-2.200	1.200																			1580019328.0	7.61	14.09
26/01/2020 06:15:29	26012020	260120	061529	53.700	12.675490	-57.294667	53.500	0.460	-0.390	0.580	53.700	-2.100	1.100																			1580019329.0	7.89	14.61
26/01/2020 06:15:30	26012020	260120	061530	53.660	12.675512	-57.294640	53.420	0.150	0.490	0.230	53.640	-1.900	1.000																			1580019330.0	7.38	13.67
26/01/2020 06:15:31	26012020	260120	061531	53.580	12.675532	-57.294617	53.380	-0.110	0.830	-0.220	53.570	-1.000	0.600																			1580019331.0	6.67	12.35
26/01/2020 06:15:32	26012020	260120	061532	53.540	12.675553	-57.294593	53.390	-0.070	0.320	-0.670	53.540	-0.600	0.200																			1580019332.0	6.65	12.32
26/01/2020 06:15:33	26012020	260120	061533	53.550	12.675577	-57.294568	53.480	0.180	-0.610	-1.060	53.550	-1.000	-0.200																			1580019333.0	7.34	13.59
26/01/2020 06:15:34	26012020	260120	061534	53.620	12.675602	-57.294540	53.670	0.310	-1.040	-1.210	53.650	-1.900	-0.700																			1580019334.0	8.12	15.04
26/01/2020 06:15:35	26012020	260120	061535	53.800	12.675628	-57.294510	53.740	0.080	-0.470	-0.880	53.840	-2.400	-0.800																			1580019335.0	8.26	15.30
26/01/2020 06:15:36	26012020	260120	061536	53.890	12.675648	-57.294482	53.600	-0.370	0.470	-0.170	53.880	-2.000	-0.600																			1580019336.0	7.43	13.76
26/01/2020 06:15:37	26012020	260120	061537	53.770	12.675665	-57.294457	53.450	-0.630	0.790	0.480	53.730	-1.000	0.100																			1580019337.0	6.42	11.89
26/01/2020 06:15:38	26012020	260120	061538	53.590	12.675680	-57.294432	53.410	-0.440	0.140	0.800	53.560	-0.600	0.800																			1580019338.0	6.37	11.80
26/01/2020 06:15:39	26012020	260120	061539	53.520	12.675698	-57.294402	53.480	0.030	-0.860	0.860	53.520	-1.200	1.200																			1580019339.0	7.21	13.35
26/01/2020 06:15:40	26012020	260120	061540	53.580	12.675720	-57.294370	53.560	0.370	-1.190	0.740	53.590	-2.200	1.200																			1580019340.0	8.14	15.08
26/01/2020 06:15:41	26012020	260120	061541	53.670	12.675743	-57.294340	53.590	0.330	-0.520	0.570	53.690	-2.600	1.100																			1580019341.0	8.18	15.15
26/01/2020 06:15:42	26012020	260120	061542	53.720	12.675765	-57.294313	53.570	0.050	0.380	0.360	53.730	-2.000	1.000																			1580019342.0	7.22	13.37
26/01/2020 06:15:43	26012020	260120	061543	53.710	12.675783	-57.294290	53.540	-0.100	0.580	0.080	53.710	-1.100	0.800																			1580019343.0	6.32	11.70
26/01/2020 06:15:44	26012020	260120	061544	53.690	12.675803	-57.294267	53.580	0.020	-0.050	-0.310	53.690	-0.800	0.500																			1580019344.0	6.46	11.96
26/01/2020 06:15:45	26012020	260120	061545	53.730	12.675825	-57.294240	53.570	0.250	-0.740	-0.670	53.750	-1.400	0.100																			1580019345.0	7.45	13.80
26/01/2020 06:15:46	26012020	260120	061546	53.750	12.675850	-57.294212	53.410	0.370	-0.760	-0.820	53.730	-2.100	-0.300																			1580019346.0	8.13	15.06
26/01/2020 06:15:47	26012020	260120	061547	53.610	12.675875	-57.294185	53.300	0.290	-0.200	-0.750	53.560	-2.200	-0.400																			1580019347.0	7.89	14.61
26/01/2020 06:15:48	26012020	260120	061548	53.450	12.675897	-57.294158	53.450	0.020	0.310	-0.630	53.450	-1.700	-0.400																			1580019348.0	7.10	13.15
26/01/2020 06:15:49	26012020	260120	061549	53.550	12.675917	-57.294135	53.630	-0.320	0.440	-0.380	53.600	-1.100	-0.300																			1580019349.0	6.68	12.37
26/01/2020 06:15:50	26012020	260120	061550	53.730	12.675935	-57.294108	53.680	-0.590	0.330	0.070	53.760	-1.000	-0.000																			1580019350.0	6.87	12.72
26/01/2020 06:15:51	26012020	260120	061551	53.790	12.675955	-57.294080	53.680	-0.670	0.030	0.520	53.790	-1.000	0.400																			1580019351.0	7.16	13.26
26/01/2020 06:15:52	26012020	260120	061552	53.790	12.675973	-57.294052	53.730	-0.440	-0.530	0.750	53.790	-1.300	0.900																			1580019352.0	7.23	13.39
26/01/2020 06:15:53	26012020	260120	061553	53.830	12.675992	-57.294022	53.800	0.050	-1.050	0.780	53.840	-1.900	1.100																			1580019353.0	7.43	13.76
26/01/2020 06:15:54	26012020	260120	061554	53.890	12.676012	-57.293992	53.760	0.500	-0.920	0.730	53.900	-2.400	1.200																			1580019354.0	7.75	14.35
26/01/2020 06:15:55	26012020	260120	061555	53.880	12.676033	-57.293963	53.630	0.580	-0.160	0.580	53.860	-2.400	1.100																			1580019355.0	7.64	14.15
26/01/2020 06:15:56	26012020	260120	061556	53.770	12.676053	-57.293938	53.510	0.400	0.460	0.230	53.740	-1.600	1.000																			1580019356.0	6.92	12.82
26/01/2020 06:15:57	26012020	260120	061557	53.650	12.676073	-57.293915	53.530	0.270	0.300	-0.350	53.640	-1.000	0.700																			1580019357.0	6.48	12.00
26/01/2020 06:15:58	26012020	260120	061558	53.660	12.676097	-57.293892	53.590	0.270	-0.270	-0.940	53.680	-1.000	0.100																			1580019358.0	6.98	12.93
26/01/2020 06:15:59	26012020	260120	061559	53.750	12.676123	-57.293865	53.590	0.170	-0.460	-1.170	53.760	-1.600	-0.500																			1580019359.0	7.86	14.56
26/01/2020 06:16:00	26012020	260120	061600	53.750	12.676148	-57.293838	53.560	-0.130	-0.110	-0.950	53.740	-1.900	-0.800	1014.10	25.70	25.80	20.30	20.40	0.00	72.00	72.00	435.00	25.60	18.00	9.70	83.00	6.30	15	3297.00	27.40	27.40	1580019360.0	7.92	14.67
26/01/2020 06:16:01	26012020	260120	061601	53.710	12.676170	-57.293812	53.610	-0.450	0.240	-0.520	53.700	-1.600	-0.600																			1580019361.0	7.22	13.37
26/01/2020 06:16:02	26012020	260120	061602	53.730	12.676188	-57.293785	53.740	-0.520	0.100	-0.140	53.750	-1.200	-0.200																			1580019362.0	6.67	12.35
26/01/2020 06:16:03	26012020	260120	061603	53.840	12.676205	-57.293758	53.820	-0.350	-0.290	0.290	53.870	-1.300	0.200																			1580019363.0	6.92	12.82
26/01/2020 06:16:04	26012020	260120	061604	53.930	12.676223	-57.293728	53.830	-0.210	-0.350	0.720	53.940	-1.700	0.600																			1580019364.0	7.49	13.87
26/01/2020 06:16:05	26012020	260120	061605	53.930	12.676243	-57.293698	53.820	-0.180	-0.130	0.960	53.930	-1.800	1.100																			1580019365.0	7.53	13.95
26/01/2020 06:16:06	26012020	260120	061606	53.930	12.676260	-57.293670	53.760	-0.040	-0.150	0.970	53.930	-1.500	1.300																			1580019366.0	6.99	12.95
26/01/2020 06:16:07	26012020	260120	061607	53.890	12.676280	-57.293645	53.700	0.350	-0.540	0.700	53.880	-1.700	1.200																			1580019367.0	6.88	12.74
26/01/2020 06:16:08	26012020	260120	061608	53.830	12.676302	-57.293617	53.670	0.690	-0.830	0.260	53.820	-1.900	1.100																			1580019368.0	7.36	13.63
26/01/2020 06:16:09	26012020	260120	061609	53.820	12.676325	-57.293590	53.610	0.600	-0.460	-0.180	53.820	-2.200	0.700																			1580019369.0	7.83	14.50
26/01/2020 06:16:10	26012020	260120	061610	53.790	12.676348	-57.293563	53.550	0.150	0.340	-0.510	53.780	-1.900	0.200																			1580019370.0	7.56	14.00
26/01/2020 06:16:11	26012020	260120	061611	53.720	12.676372	-57.293540	53.670	-0.200	0.710	-0.830	53.720	-1.100	-0.100																			1580019371.0	6.78	12.56
26/01/2020 06:16:12	26012020	260120	061612	53.780	12.676392	-57.293518	53.940	-0.170	0.240	-1.140	53.820	-0.700	-0.400																			1580019372.0	6.53	12.09
26/01/2020 06:16:13	26012020	260120	061613	54.030	12.676415	-57.293493	54.100	0.000	-0.390	-1.140	54.090	-1.100	-0.700																			1580019373.0	7.20	13.33
26/01/2020 06:16:14	26012020	260120	061614	54.220	12.676438	-57.293463	54.070	-0.050	-0.420	-0.720	54.240	-1.700	-0.800																			1580019374.0	7.90	14.63
26/01/2020 06:16:15	26012020	260120	061615	54.210	12.676458	-57.293433	53.920	-0.320	-0.020	-0.080	54.190	-1.800	-0.400																			1580019375.0	7.64	14.15
26/01/2020 06:16:16	26012020	260120	061616	54.060	12.676475	-57.293407	53.850	-0.490	0.100	0.410	54.030	-1.400	0.200																			1580019376.0	6.82	12.63
26/01/2020 06:16:17	26012020	260120	061617	53.950	12.676492	-57.293380	53.890	-0.380	-0.270	0.550	53.940	-1.300	0.800																			1580019377.0	6.58	12.19
26/01/2020 06:16:18	26012020	260120	061618	53.970	12.676510	-57.293353	53.950	-0.060	-0.620	0.620	53.990	-1.600	0.900																			1580019378.0	7.10	13.15
26/01/2020 06:16:19	26012020	260120	061619	54.040	12.676532	-57.293325	53.930	0.240	-0.660	0.710	54.040	-2.100	1.100																			1580019379.0	7.54	13.96
26/01/2020 06:16:20	26012020	260120	061620	54.030	12.676552	-57.293297	53.900	0.420	-0.530	0.610	54.030	-2.100	1.100																			1580019380.0	7.42	13.74
26/01/2020 06:16:21	26012020	260120	061621	54.000	12.676573	-57.293268	53.870	0.460	-0.310	0.360	53.990	-1.900	1.000																			1580019381.0	7.24	13.41
26/01/2020 06:16:22	26012020	260120	061622	53.980	12.676593	-57.293242	53.870	0.410	-0.070	-0.020	53.970	-1.700	0.800																			1580019382.0	7.21	13.35
26/01/2020 06:16:23	26012020	260120	061623	53.990	12.676615	-57.293217	53.940	0.270	0.230	-0.520	54.000	-1.500	0.400																			1580019383.0	7.20	13.33
26/01/2020 06:16:24	26012020	260120	061624	54.060	12.676638	-57.293192	53.970	0.080	0.480	-0.910	54.090	-1.200	-0.100																			1580019384.0	7.18	13.30
26/01/2020 06:16:25	26012020	260120	061625	54.120	12.676660	-57.293167	53.910	-0.140	0.470	-1.080	54.120	-0.900	-0.500																			1580019385.0	7.07	13.09
26/01/2020 06:16:26	26012020	260120	061626	54.080	12.676683	-57.293143	53.900	-0.330	0.080	-1.060	54.070	-0.900	-0.700																			1580019386.0	7.05	13.06
26/01/2020 06:16:27	26012020	260120	061627	54.050	12.676705	-57.293117	54.010	-0.400	-0.460	-0.800	54.060	-1.300	-0.700																			1580019387.0	7.25	13.43
26/01/2020 06:16:28	26012020	260120	061628	54.130	12.676727	-57.293088	54.200	-0.350	-0.730	-0.330	54.160	-1.800	-0.500																			1580019388.0	7.51	13.91
26/01/2020 06:16:29	26012020	260120	061629	54.300	12.676747	-57.293060	54.320	-0.290	-0.530	0.280	54.340	-2.100	0.000																			1580019389.0	7.51	13.91
26/01/2020 06:16:30	26012020	260120	061630	54.430	12.676763	-57.293030	54.230	-0.260	-0.180	0.950	54.440	-1.900	0.600																			1580019390.0	7.17	13.28
26/01/2020 06:16:31	26012020	260120	061631	54.360	12.676778	-57.293002	54.110	-0.120	-0.190	1.310	54.330	-1.600	1.300																			1580019391.0	6.83	12.65
26/01/2020 06:16:32	26012020	260120	061632	54.210	12.676793	-57.292973	54.110	0.270	-0.520	1.070	54.200	-1.600	1.700																			1580019392.0	6.93	12.83
26/01/2020 06:16:33	26012020	260120	061633	54.200	12.676813	-57.292945	54.120	0.720	-0.580	0.430	54.200	-1.900	1.500																			1580019393.0	7.46	13.82
26/01/2020 06:16:34	26012020	260120	061634	54.230	12.676838	-57.292917	54.110	0.870	-0.160	-0.280	54.230	-2.000	0.900																			1580019394.0	7.78	14.41
26/01/2020 06:16:35	26012020	260120	061635	54.230	12.676863	-57.292893	54.130	0.600	0.290	-0.810	54.230	-1.600	0.200																			1580019395.0	7.39	13.69
26/01/2020 06:16:36	26012020	260120	061636	54.250	12.676887	-57.292870	54.140	0.070	0.440	-1.130	54.260	-1.100	-0.400																			1580019396.0	7.00	12.96
26/01/2020 06:16:37	26012020	260120	061637	54.280	12.676910	-57.292847	54.150	-0.450	0.250	-1.210	54.280	-1.000	-0.700																			1580019397.0	7.01	12.98
26/01/2020 06:16:38	26012020	260120	061638	54.280	12.676932	-57.292822	54.200	-0.690	-0.130	-1.010	54.280	-1.100	-0.800																			1580019398.0	7.23	13.39
26/01/2020 06:16:39	26012020	260120	061639	54.320	12.676953	-57.292793	54.300	-0.620	-0.390	-0.550	54.340	-1.500	-0.700																			1580019399.0	7.43	13.76
26/01/2020 06:16:40	26012020	260120	061640	54.400	12.676973	-57.292763	54.360	-0.420	-0.350	0.030	54.420	-1.800	-0.200																			1580019400.0	7.49	13.87
26/01/2020 06:16:41	26012020	260120	061641	54.470	12.676990	-57.292733	54.350	-0.220	-0.160	0.630	54.470	-1.800	0.300																			1580019401.0	7.29	13.50
26/01/2020 06:16:42	26012020	260120	061642	54.440	12.677005	-57.292705	54.330	-0.030	-0.170	0.980	54.440	-1.600	0.900																			1580019402.0	6.98	12.93
26/01/2020 06:16:43	26012020	260120	061643	54.420	12.677020	-57.292677	54.290	0.220	-0.470	0.940	54.410	-1.500	1.300																			1580019403.0	6.94	12.85
26/01/2020 06:16:44	26012020	260120	061644	54.380	12.677040	-57.292648	54.190	0.490	-0.670	0.700	54.360	-1.800	1.300																			1580019404.0	7.30	13.52
26/01/2020 06:16:45	26012020	260120	061645	54.280	12.677063	-57.292620	54.230	0.620	-0.530	0.230	54.260	-2.000	0.800																			1580019405.0	7.65	14.17
26/01/2020 06:16:46	26012020	260120	061646	54.290	12.677087	-57.292595	54.370	0.490	-0.050	-0.310	54.310	-1.900	0.700																			1580019406.0	7.52	13.93
26/01/2020 06:16:47	26012020	260120	061647	54.440	12.677110	-57.292570	54.370	0.110	0.460	-0.610	54.470	-1.500	0.100																			1580019407.0	7.17	13.28
26/01/2020 06:16:48	26012020	260120	061648	54.490	12.677132	-57.292545	54.240	-0.290	0.590	-0.700	54.480	-1.000	-0.200																			1580019408.0	6.83	12.65
26/01/2020 06:16:49	26012020	260120	061649	54.380	12.677152	-57.292522	54.120	-0.390	0.110	-0.730	54.340	-0.800	-0.300																			1580019409.0	6.79	12.58
26/01/2020 06:16:50	26012020	260120	061650	54.250	12.677173	-57.292495	54.090	-0.120	-0.650	-0.690	54.230	-1.200	-0.400																			1580019410.0	7.22	13.37
26/01/2020 06:16:51	26012020	260120	061651	54.210	12.677195	-57.292465	54.160	0.210	-0.970	-0.570	54.220	-2.000	-0.300																			1580019411.0	7.82	14.48
26/01/2020 06:16:52	26012020	260120	061652	54.270	12.677218	-57.292435	54.180	0.210	-0.500	-0.270	54.280	-2.400	-0.200																			1580019412.0	7.95	14.72
26/01/2020 06:16:53	26012020	260120	061653	54.280	12.677238	-57.292407	54.170	-0.160	0.320	0.110	54.280	-2.000	0.100																			1580019413.0	7.34	13.59
26/01/2020 06:16:54	26012020	260120	061654	54.270	12.677255	-57.292382	54.250	-0.550	0.730	0.330	54.280	-1.100	0.400																			1580019414.0	6.52	12.08
26/01/2020 06:16:55	26012020	260120	061655	54.330	12.677270	-57.292357					54.360	-0.700	0.700																			1580019415.0	6.34	11.74
26/01/2020 06:16:56	26012020	260120	061656	54.420	12.677288	-57.292330	54.310	-0.600	0.400	0.410	54.430	-0.900	0.800																			1580019416.0	6.86	12.70
26/01/2020 06:16:57	26012020	260120	061657	54.440	12.677310	-57.292300	54.300	0.350	-1.180	0.410	54.440	-2.300	0.800																			1580019417.0	7.62	14.11
26/01/2020 06:16:58	26012020	260120	061658	54.400	12.677333	-57.292270	54.190	0.700	-1.100	0.390	54.390	-2.500	0.800																			1580019418.0	8.05	14.91
26/01/2020 06:16:59	26012020	260120	061659	54.310	12.677353	-57.292242	54.000	0.620	-0.340	0.350	54.280	-2.500	0.800																			1580019419.0	7.74	14.33
26/01/2020 06:17:00	26012020	260120	061700	54.120	12.677373	-57.292215	53.830	0.280	0.330	0.080	54.090	-1.800	0.700	1014.00	25.70	25.70	20.40	20.40	0.00	72.00	72.00	434.00	25.60	21.00	10.00	86.00	6.70	15	3153.00	27.40	27.40	1580019420.0	6.91	12.80
26/01/2020 06:17:01	26012020	260120	061701	53.960	12.677393	-57.292192	53.840	-0.010	0.440	-0.430	53.940	-1.100	0.500																			1580019421.0	6.53	12.09
26/01/2020 06:17:02	26012020	260120	061702	53.960	12.677415	-57.292168	54.010	-0.130	0.260	-0.910	53.980	-0.900	0.000																			1580019422.0	6.95	12.87
26/01/2020 06:17:03	26012020	260120	061703	54.110	12.677440	-57.292143	54.150	-0.250	0.200	-1.000	54.150	-1.100	-0.500																			1580019423.0	7.48	13.85
26/01/2020 06:17:04	26012020	260120	061704	54.280	12.677463	-57.292117	54.220	-0.390	0.090	-0.760	54.300	-1.200	-0.600																			1580019424.0	7.38	13.67
26/01/2020 06:17:05	26012020	260120	061705	54.360	12.677482	-57.292090	54.210	-0.430	-0.280	-0.410	54.360	-1.300	-0.400																			1580019425.0	7.05	13.06
26/01/2020 06:17:06	26012020	260120	061706	54.350	12.677500	-57.292062	54.120	-0.300	-0.680	0.010	54.330	-1.600	-0.100																			1580019426.0	7.17	13.28
26/01/2020 06:17:07	26012020	260120	061707	54.250	12.677520	-57.292032	54.110	-0.050	-0.800	0.360	54.220	-2.000	0.300																			1580019427.0	7.48	13.85
26/01/2020 06:17:08	26012020	260120	061708	54.200	12.677538	-57.292002	54.170	0.200	-0.580	0.550	54.200	-2.200	0.700																			1580019428.0	7.45	13.80
26/01/2020 06:17:09	26012020	260120	061709	54.250	12.677558	-57.291973	54.190	0.300	-0.090	0.580	54.270	-1.700	0.900																			1580019429.0	7.22	13.37
26/01/2020 06:17:10	26012020	260120	061710	54.290	12.677577	-57.291947	54.090	0.230	0.280	0.490	54.280	-1.500	0.900																			1580019430.0	6.94	12.85
26/01/2020 06:17:11	26012020	260120	061711	54.220	12.677595	-57.291922	53.970	0.150	0.210	0.320	54.200	-1.100	0.800																			1580019431.0	6.79	12.58
26/01/2020 06:17:12	26012020	260120	061712	54.100	12.677617	-57.291895	54.020	0.160	-0.240	-0.090	54.090	-1.200	0.700																			1580019432.0	7.04	13.04
26/01/2020 06:17:13	26012020	260120	061713	54.130	12.677640	-57.291868	54.150	0.190	-0.540	-0.580	54.150	-1.600	0.300																			1580019433.0	7.55	13.98
26/01/2020 06:17:14	26012020	260120	061714	54.260	12.677663	-57.291842	54.120	0.050	-0.310	-0.750	54.280	-1.900	-0.200																			1580019434.0	7.82	14.48
26/01/2020 06:17:15	26012020	260120	061715	54.260	12.677687	-57.291815	54.040	-0.260	0.210	-0.650	54.240	-1.700	-0.400																			1580019435.0	7.46	13.82
26/01/2020 06:17:16	26012020	260120	061716	54.170	12.677707	-57.291790					54.160	-1.200	-0.300																			1580019436.0	6.79	12.58
26/01/2020 06:17:17	26012020	260120	061717	54.220	12.677725	-57.291765	54.120	-0.470	0.390	-0.590	54.250	-1.000	-0.200																			1580019437.0	6.64	12.30
26/01/2020 06:17:18	26012020	260120	061718	54.380	12.677745	-57.291737	54.230	-0.080	-0.390	-0.240	54.390	-1.300	-0.200																			1580019438.0	7.14	13.22
26/01/2020 06:17:19	26012020	260120	061719	54.370	12.677765	-57.291708	53.980	0.150	-0.550	0.180	54.330	-1.700	0.100																			1580019439.0	7.58	14.04
26/01/2020 06:17:20	26012020	260120	061720	54.130	12.677783	-57.291678	53.820	0.240	-0.530	0.380	54.070	-1.900	0.500																			1580019440.0	7.49	13.87
26/01/2020 06:17:21	26012020	260120	061721	53.900	12.677803	-57.291650	53.880	0.280	-0.460	0.260	53.890	-1.900	0.700																			1580019441.0	7.21	13.35
26/01/2020 06:17:22	26012020	260120	061722	53.950	12.677825	-57.291623	54.010	0.290	-0.290	0.060	53.980	-1.900	0.600																			1580019442.0	7.17	13.28
26/01/2020 06:17:23	26012020	260120	061723	54.100	12.677847	-57.291598	53.970	0.170	0.010	0.030	54.110	-1.700	0.500																			1580019443.0	7.25	13.43
26/01/2020 06:17:24	26012020	260120	061724	54.090	12.677868	-57.291572	53.960	-0.080	0.200	-0.000	54.080	-1.400	0.400																			1580019444.0	7.15	13.24
26/01/2020 06:17:25	26012020	260120	061725	54.050	12.677888	-57.291545	54.120	-0.340	0.170	-0.090	54.060	-1.200	0.400																			1580019445.0	7.04	13.04
26/01/2020 06:17:26	26012020	260120	061726	54.180	12.677908	-57.291518	54.200	-0.460	0.130	-0.160	54.220	-1.200	0.300																			1580019446.0	7.15	13.24
26/01/2020 06:17:27	26012020	260120	061727	54.310	12.677928	-57.291492	54.060	-0.320	0.000	-0.160	54.310	-1.300	0.200																			1580019447.0	7.21	13.35
26/01/2020 06:17:28	26012020	260120	061728	54.220	12.677947	-57.291463	53.840	0.090	-0.440	-0.180	54.170	-1.400	0.200																			1580019448.0	7.11	13.17
26/01/2020 06:17:29	26012020	260120	061729	54.000	12.677968	-57.291437	53.710	0.570	-0.940	-0.300	53.970	-1.800	0.200																			1580019449.0	7.31	13.54
26/01/2020 06:17:30	26012020	260120	061730	53.860	12.677990	-57.291408					53.840	-2.300	0.100																			1580019450.0	7.78	14.41
26/01/2020 06:17:31	26012020	260120	061731	53.810	12.678015	-57.291380	53.690	0.710	-0.830	-0.520	53.810	-2.300	-0.100																			1580019451.0	7.76	14.37
26/01/2020 06:17:32	26012020	260120	061732	53.860	12.678037	-57.291355	54.000	-0.330	0.680	-0.650	53.880	-1.500	-0.300																			1580019452.0	6.99	12.95
26/01/2020 06:17:33	26012020	260120	061733	54.060	12.678055	-57.291333	54.150	-0.710	0.750	-0.430	54.110	-0.600	-0.200																			1580019453.0	6.37	11.80
26/01/2020 06:17:34	26012020	260120	061734	54.250	12.678075	-57.291308	54.100	-0.670	0.310	0.030	54.260	-0.600	-0.100																			1580019454.0	6.65	12.32
26/01/2020 06:17:35	26012020	260120	061735	54.220	12.678093	-57.291278	53.960	-0.340	-0.380	0.460	54.190	-1.000	0.400																			1580019455.0	7.26	13.45
26/01/2020 06:17:36	26012020	260120	061736	54.060	12.678112	-57.291248	53.860	0.130	-1.050	0.600	54.030	-1.700	0.800																			1580019456.0	7.58	14.04
26/01/2020 06:17:37	26012020	260120	061737	53.950	12.678132	-57.291218					53.940	-2.400	1.000																			1580019457.0	7.76	14.37
26/01/2020 06:17:38	26012020	260120	061738	53.970	12.678153	-57.291188	53.900	0.580	-1.280	0.470	53.980	-2.700	0.900																			1580019458.0	7.75	14.35
26/01/2020 06:17:39	26012020	260120	061739	54.000	12.678175	-57.291162	53.780	0.350	0.220	0.100	53.990	-2.200	0.700																			1580019459.0	7.37	13.65
26/01/2020 06:17:40	26012020	260120	061740	53.900	12.678195	-57.291137	53.670	-0.240	0.940	-0.160	53.880	-1.300	0.500																			1580019460.0	6.69	12.39
26/01/2020 06:17:41	26012020	260120	061741	53.800	12.678215	-57.291115	53.760	-0.520	0.770	-0.590	53.790	-0.500	0.300																			1580019461.0	6.33	11.72
26/01/2020 06:17:42	26012020	260120	061742	53.860	12.678237	-57.291092	53.870	-0.300	-0.040	-0.950	53.880	-0.600	-0.200																			1580019462.0	6.80	12.59
26/01/2020 06:17:43	26012020	260120	061743	53.980	12.678260	-57.291065	53.860	0.060	-0.650	-0.970	53.990	-1.400	-0.500																			1580019463.0	7.70	14.26
26/01/2020 06:17:44	26012020	260120	061744	53.990	12.678283	-57.291035					53.980	-2.000	-0.600																			1580019464.0	7.98	14.78
26/01/2020 06:17:45	26012020	260120	061745	53.920	12.678305	-57.291007	53.790	0.210	-0.780	-0.750	53.900	-2.200	-0.400																			1580019465.0	7.53	13.95
26/01/2020 06:17:46	26012020	260120	061746	53.860	12.678323	-57.290978	53.780	-0.070	-0.210	-0.340	53.860	-2.000	-0.200																			1580019466.0	7.12	13.19
26/01/2020 06:17:47	26012020	260120	061747	53.870	12.678343	-57.290953					53.870	-1.600	0.000																			1580019467.0	6.95	12.87
26/01/2020 06:17:48	26012020	260120	061748	53.850	12.678362	-57.290927	53.740	-0.230	0.300	-0.060	53.840	-1.100	0.300																			1580019468.0	6.76	12.52
26/01/2020 06:17:49	26012020	260120	061749	53.850	12.678380	-57.290902	53.760	-0.260	0.480	0.260	53.860	-0.900	0.600																			1580019469.0	6.70	12.41
26/01/2020 06:17:50	26012020	260120	061750	53.890	12.678400	-57.290873					53.900	-1.300	0.800																			1580019470.0	7.18	13.30
26/01/2020 06:17:51	26012020	260120	061751	53.880	12.678420	-57.290843	53.780	0.210	-0.660	0.470	53.860	-2.000	0.800																			1580019471.0	7.78	14.41
26/01/2020 06:17:52	26012020	260120	061752	53.780	12.678443	-57.290815	53.670	0.420	-0.950	0.420	53.770	-2.300	0.800																			1580019472.0	7.85	14.54
26/01/2020 06:17:53	26012020	260120	061753	53.710	12.678465	-57.290787	53.580	0.380	-0.550	0.270	53.700	-2.000	0.700																			1580019473.0	7.32	13.56
26/01/2020 06:17:54	26012020	260120	061754	53.670	12.678485	-57.290763					53.670	-1.300	0.400																			1580019474.0	6.67	12.35
26/01/2020 06:17:55	26012020	260120	061755	53.730	12.678505	-57.290740	53.620	-0.100	0.550	-0.250	53.750	-0.900	0.200																			1580019475.0	6.59	12.20
26/01/2020 06:17:56	26012020	260120	061756	53.810	12.678527	-57.290715	53.680	-0.170	-0.240	-0.680	53.810	-1.100	-0.100																			1580019476.0	7.12	13.19
26/01/2020 06:17:57	26012020	260120	061757	53.820	12.678550	-57.290688					53.810	-1.600	-0.300																			1580019477.0	7.64	14.15
26/01/2020 06:17:58	26012020	260120	061758	53.790	12.678572	-57.290660	53.660	-0.100	-0.540	-0.600	53.790	-1.900	-0.200																			1580019478.0	7.64	14.15
26/01/2020 06:17:59	26012020	260120	061759	53.800	12.678592	-57.290632	53.700	-0.080	-0.480	-0.380	53.810	-1.700	0.100																			1580019479.0	7.29	13.50
26/01/2020 06:18:00	26012020	260120	061800	53.840	12.678610	-57.290603	53.770	-0.100	-0.020	0.010	53.840	-1.600	0.200	1014.10	25.70	25.70	20.40	20.40	0.00	72.00	72.00	434.00	25.60	24.00	10.00	91.00	6.80	15	3244.00	27.40	27.40	1580019480.0	6.98	12.93
26/01/2020 06:18:01	26012020	260120	061801	53.870	12.678628	-57.290578					53.870	-1.400	0.400																			1580019481.0	6.87	12.72
26/01/2020 06:18:02	26012020	260120	061802	53.880	12.678650	-57.290552	53.790	0.000	-0.030	0.080	53.890	-1.400	0.400																			1580019482.0	7.08	13.11
26/01/2020 06:18:03	26012020	260120	061803	53.900	12.678670	-57.290523					53.900	-1.600	0.500																			1580019483.0	7.33	13.58
26/01/2020 06:18:04	26012020	260120	061804	53.940	12.678692	-57.290497	53.850	0.220	-0.270	0.080	53.950	-1.700	0.500																			1580019484.0	7.39	13.69
26/01/2020 06:18:05	26012020	260120	061805	54.010	12.678713	-57.290470	53.920	0.150	-0.240	0.020	54.030	-1.600	0.400																			1580019485.0	7.27	13.46
26/01/2020 06:18:06	26012020	260120	061806	54.070	12.678733	-57.290443	53.960	0.020	-0.180	-0.040	54.080	-1.600	0.300																			1580019486.0	7.16	13.26
26/01/2020 06:18:07	26012020	260120	061807	54.100	12.678755	-57.290417	54.010	-0.060	-0.130	-0.100	54.110	-1.500	0.300																			1580019487.0	7.17	13.28
26/01/2020 06:18:08	26012020	260120	061808	54.160	12.678775	-57.290390	54.070	-0.040	-0.100	-0.190	54.170	-1.500	0.200																			1580019488.0	7.19	13.32
26/01/2020 06:18:09	26012020	260120	061809	54.170	12.678797	-57.290363	54.060	0.020	-0.070	-0.180	54.160	-1.500	0.200																			1580019489.0	7.20	13.33
26/01/2020 06:18:10	26012020	260120	061810	54.080	12.678817	-57.290335	53.960	0.020	-0.100	-0.120	54.060	-1.500	0.300																			1580019490.0	7.21	13.35
26/01/2020 06:18:11	26012020	260120	061811	54.050	12.678837	-57.290308	53.950	-0.100	-0.190	-0.220	54.060	-1.600	0.200																			1580019491.0	7.24	13.41
26/01/2020 06:18:12	26012020	260120	061812	54.150	12.678858	-57.290282	54.070	-0.180	-0.340	-0.350	54.170	-1.700	0.000																			1580019492.0	7.30	13.52
26/01/2020 06:18:13	26012020	260120	061813	54.260	12.678880	-57.290255	54.160	-0.050	-0.380	-0.320	54.270	-1.800	0.000																			1580019493.0	7.36	13.63
26/01/2020 06:18:14	26012020	260120	061814	54.260	12.678900	-57.290227	54.140	0.190	-0.190	-0.200	54.240	-1.600	0.200																			1580019494.0	7.22	13.37
26/01/2020 06:18:15	26012020	260120	061815	54.160	12.678920	-57.290200	54.050	0.280	-0.030	-0.100	54.150	-1.400	0.300																			1580019495.0	7.09	13.13
26/01/2020 06:18:16	26012020	260120	061816	54.110	12.678940	-57.290173	54.030	0.150	-0.050	-0.030	54.110	-1.400	0.300																			1580019496.0	7.18	13.30
26/01/2020 06:18:17	26012020	260120	061817	54.200	12.678962	-57.290147	54.130	-0.090	-0.200	-0.160	54.230	-1.600	0.200																			1580019497.0	7.35	13.61
26/01/2020 06:18:18	26012020	260120	061818	54.370	12.678983	-57.290120	54.290	-0.210	-0.250	-0.290	54.390	-1.600	0.100																			1580019498.0	7.40	13.70
26/01/2020 06:18:19	26012020	260120	061819	54.450	12.679005	-57.290093	54.370	-0.190	-0.120	-0.160	54.460	-1.500	0.200																			1580019499.0	7.19	13.32
26/01/2020 06:18:20	26012020	260120	061820	54.430	12.679023	-57.290065	54.310	-0.140	-0.080	0.060	54.410	-1.500	0.400																			1580019500.0	7.10	13.15
26/01/2020 06:18:21	26012020	260120	061821	54.280	12.679042	-57.290037	54.150	-0.110	-0.150	0.220	54.240	-1.500	0.600																			1580019501.0	7.27	13.46
26/01/2020 06:18:22	26012020	260120	061822	54.070	12.679062	-57.290008	53.960	-0.050	-0.190	0.330	54.040	-1.600	0.700																			1580019502.0	7.31	13.54
26/01/2020 06:18:23	26012020	260120	061823	53.990	12.679082	-57.289980	53.910	0.050	-0.230	0.170	54.010	-1.700	0.300																			1580019503.0	7.26	13.45
26/01/2020 06:18:24	26012020	260120	061824	54.160	12.679103	-57.289955	54.100	0.180	-0.320	-0.300	54.200	-1.700	0.100																			1580019504.0	7.32	13.56
26/01/2020 06:18:25	26012020	260120	061825	54.290	12.679127	-57.289928	54.190	0.270	-0.300	-0.670	54.300	-1.700	-0.300																			1580019505.0	7.42	13.74
26/01/2020 06:18:26	26012020	260120	061826	54.220	12.679148	-57.289902	54.090	0.270	-0.140	-0.710	54.200	-1.500	-0.400																			1580019506.0	7.26	13.45
26/01/2020 06:18:27	26012020	260120	061827	54.030	12.679170	-57.289877	53.890	0.140	-0.020	-0.510	53.990	-1.400	-0.200																			1580019507.0	7.16	13.26
26/01/2020 06:18:28	26012020	260120	061828	53.880	12.679190	-57.289848	53.780	-0.010	-0.070	-0.370	53.880	-1.500	-0.000																			1580019508.0	7.23	13.39
26/01/2020 06:18:29	26012020	260120	061829	53.930	12.679212	-57.289822	53.870	-0.110	-0.190	-0.320	53.950	-1.600	0.000																			1580019509.0	7.38	13.67
26/01/2020 06:18:30	26012020	260120	061830	54.050	12.679233	-57.289793	54.000	-0.190	-0.190	-0.140	54.080	-1.600	0.200																			1580019510.0	7.37	13.65
26/01/2020 06:18:31	26012020	260120	061831	54.090	12.679252	-57.289765	54.020	-0.330	-0.020	0.220	54.080	-1.400	0.500																			1580019511.0	7.18	13.30
26/01/2020 06:18:32	26012020	260120	061832	54.020	12.679268	-57.289737	53.940	-0.440	0.040	0.620	54.000	-1.300	0.900																			1580019512.0	7.02	13.00
26/01/2020 06:18:33	26012020	260120	061833	53.950	12.679287	-57.289708	53.880	-0.310	-0.240	0.810	53.940	-1.600	1.200																			1580019513.0	7.25	13.43
26/01/2020 06:18:34	26012020	260120	061834	54.000	12.679307	-57.289678	53.940	0.080	-0.610	0.650	54.030	-2.000	1.000																			1580019514.0	7.63	14.13
26/01/2020 06:18:35	26012020	260120	061835	54.080	12.679330	-57.289650	53.980	0.430	-0.600	0.320	54.070	-2.000	0.700																			1580019515.0	7.63	14.13
26/01/2020 06:18:36	26012020	260120	061836	54.000	12.679352	-57.289625	53.870	0.460	-0.200	0.010	53.970	-1.600	0.400																			1580019516.0	7.23	13.39
26/01/2020 06:18:37	26012020	260120	061837	53.850	12.679373	-57.289600	53.720	0.210	0.210	-0.230	53.830	-1.200	0.200																			1580019517.0	6.92	12.82
26/01/2020 06:18:38	26012020	260120	061838	53.790	12.679395	-57.289577	53.670	-0.090	0.310	-0.530	53.790	-1.100	-0.100																			1580019518.0	7.03	13.02
26/01/2020 06:18:39	26012020	260120	061839	53.800	12.679418	-57.289550	53.680	-0.220	0.050	-0.850	53.810	-1.300	-0.400																			1580019519.0	7.35	13.61
26/01/2020 06:18:40	26012020	260120	061840	53.870	12.679442	-57.289523	53.780	-0.100	-0.430	-1.060	53.900	-1.800	-0.700																			1580019520.0	7.66	14.19
26/01/2020 06:18:41	26012020	260120	061841	54.010	12.679465	-57.289495	53.910	0.090	-0.680	-0.950	54.030	-2.100	-0.600																			1580019521.0	7.78	14.41
26/01/2020 06:18:42	26012020	260120	061842	54.060	12.679483	-57.289465	53.950	0.090	-0.350	-0.520	54.060	-1.800	-0.200																			1580019522.0	7.38	13.67
26/01/2020 06:18:43	26012020	260120	061843	54.000	12.679500	-57.289438	53.880	-0.110	0.180	0.050	53.990	-1.300	0.400																			1580019523.0	6.80	12.59
26/01/2020 06:18:44	26012020	260120	061844	53.880	12.679517	-57.289410	53.750	-0.250	0.310	0.540	53.850	-1.100	0.900																			1580019524.0	6.79	12.58
26/01/2020 06:18:45	26012020	260120	061845	53.740	12.679537	-57.289382	53.620	-0.160	-0.080	0.780	53.720	-1.400	1.100																			1580019525.0	7.33	13.58
26/01/2020 06:18:46	26012020	260120	061846	53.720	12.679558	-57.289353	53.620	0.040	-0.590	0.750	53.730	-1.900	1.100																			1580019526.0	7.82	14.48
26/01/2020 06:18:47	26012020	260120	061847	53.790	12.679582	-57.289323	53.700	0.140	-0.730	0.590	53.810	-2.100	1.000																			1580019527.0	7.78	14.41
26/01/2020 06:18:48	26012020	260120	061848	53.890	12.679602	-57.289297	53.780	0.060	-0.360	0.400	53.910	-1.800	0.800																			1580019528.0	7.29	13.50
26/01/2020 06:18:49	26012020	260120	061849	53.940	12.679622	-57.289272	53.790	-0.090	0.170	0.170	53.930	-1.000	0.400																			1580019529.0	6.86	12.70
26/01/2020 06:18:50	26012020	260120	061850	53.840	12.679642	-57.289247	53.670	-0.150	0.450	-0.080	53.820	-0.900	0.300																			1580019530.0	6.82	12.63
26/01/2020 06:18:51	26012020	260120	061851	53.700	12.679662	-57.289220	53.520	-0.040	0.230	-0.340	53.670	-1.500	-0.200																			1580019531.0	7.16	13.26
26/01/2020 06:18:52	26012020	260120	061852	53.610	12.679685	-57.289192	53.470	0.160	-0.310	-0.730	53.610	-1.700	-0.300																			1580019532.0	7.67	14.20
26/01/2020 06:18:53	26012020	260120	061853	53.640	12.679710	-57.289165	53.520	0.290	-0.720	-1.120	53.650	-2.100	-0.700																			1580019533.0	7.90	14.63
26/01/2020 06:18:54	26012020	260120	061854	53.670	12.679735	-57.289138	53.550	0.230	-0.610	-1.200	53.670	-2.000	-0.800																			1580019534.0	7.60	14.08
26/01/2020 06:18:55	26012020	260120	061855	53.640	12.679755	-57.289113	53.520	-0.020	-0.090	-0.890	53.620	-1.500	-0.600																			1580019535.0	6.97	12.91
26/01/2020 06:18:56	26012020	260120	061856	53.560	12.679773	-57.289088	53.470	-0.320	0.340	-0.320	53.540	-1.100	-0.000																			1580019536.0	6.67	12.35
26/01/2020 06:18:57	26012020	260120	061857	53.490	12.679790	-57.289060	53.420	-0.420	0.210	0.330	53.480	-1.100	0.600																			1580019537.0	7.00	12.96
26/01/2020 06:18:58	26012020	260120	061858	53.500	12.679808	-57.289028	53.450	-0.220	-0.420	0.770	53.510	-1.700	1.100																			1580019538.0	7.68	14.22
26/01/2020 06:18:59	26012020	260120	061859	53.600	12.679830	-57.288997	53.570	0.100	-0.850	0.970	53.630	-2.200	1.300																			1580019539.0	8.07	14.95
26/01/2020 06:19:00	26012020	260120	061900	53.690	12.679850	-57.288967	53.620	0.210	-0.470	1.080	53.690	-1.900	1.400	1014.00	25.70	25.70	20.10	20.20	0.00	71.00	71.00	433.00	25.60	21.00	9.60	87.00	6.30	15	3250.00	27.40	27.40	1580019540.0	7.55	13.98
26/01/2020 06:19:01	26012020	260120	061901	53.620	12.679868	-57.288942	53.520	0.070	0.240	1.140	53.590	-1.200	1.500																			1580019541.0	6.69	12.39
26/01/2020 06:19:02	26012020	260120	061902	53.500	12.679887	-57.288917	53.400	-0.100	0.440	0.940	53.490	-0.900	1.400																			1580019542.0	6.62	12.26
26/01/2020 06:19:03	26012020	260120	061903	53.450	12.679908	-57.288890	53.340	-0.100	-0.010	0.390	53.440	-1.300	0.800																			1580019543.0	7.34	13.59
26/01/2020 06:19:04	26012020	260120	061904	53.380	12.679933	-57.288863	53.250	0.060	-0.490	-0.300	53.360	-1.900	0.100																			1580019544.0	7.89	14.61
26/01/2020 06:19:05	26012020	260120	061905	53.270	12.679960	-57.288837	53.130	0.230	-0.560	-0.930	53.250	-2.000	-0.500																			1580019545.0	7.74	14.33
26/01/2020 06:19:06	26012020	260120	061906	53.240	12.679983	-57.288813	53.140	0.280	-0.270	-1.390	53.260	-1.700	-1.000																			1580019546.0	7.29	13.50
26/01/2020 06:19:07	26012020	260120	061907	53.350	12.680005	-57.288788	53.270	0.160	0.080	-1.500	53.370	-1.300	-1.100																			1580019547.0	6.99	12.95
26/01/2020 06:19:08	26012020	260120	061908	53.450	12.680027	-57.288763	53.370	-0.070	0.260	-1.270	53.460	-1.100	-0.900																			1580019548.0	6.95	12.87
26/01/2020 06:19:09	26012020	260120	061909	53.470	12.680045	-57.288737	53.380	-0.240	0.150	-0.760	53.470	-1.200	-0.400																			1580019549.0	7.11	13.17
26/01/2020 06:19:10	26012020	260120	061910	53.440	12.680065	-57.288707	53.380	-0.240	-0.270	-0.070	53.440	-1.600	0.200																			1580019550.0	7.42	13.74
26/01/2020 06:19:11	26012020	260120	061911	53.420	12.680083	-57.288675	53.360	-0.100	-0.720	0.670	53.420	-2.100	1.000																			1580019551.0	7.74	14.33
26/01/2020 06:19:12	26012020	260120	061912	53.380	12.680102	-57.288643	53.340	0.000	-0.810	1.320	53.370	-2.200	1.600																			1580019552.0	7.73	14.32
26/01/2020 06:19:13	26012020	260120	061913	53.360	12.680118	-57.288613	53.320	-0.030	-0.440	1.670	53.360	-1.900	2.000																			1580019553.0	7.31	13.54
26/01/2020 06:19:14	26012020	260120	061914	53.400	12.680137	-57.288587	53.360	-0.100	0.100	1.640	53.420	-1.300	2.000																			1580019554.0	6.90	12.78
26/01/2020 06:19:15	26012020	260120	061915	53.480	12.680155	-57.288560	53.400	-0.080	0.400	1.210	53.480	-1.000	1.600																			1580019555.0	6.85	12.69
26/01/2020 06:19:16	26012020	260120	061916	53.430	12.680178	-57.288535	53.300	0.070	0.260	0.530	53.410	-1.100	1.000																			1580019556.0	7.23	13.39
26/01/2020 06:19:17	26012020	260120	061917	53.290	12.680203	-57.288510	53.130	0.260	-0.130	-0.370	53.270	-1.500	0.100																			1580019557.0	7.67	14.20
26/01/2020 06:19:18	26012020	260120	061918	53.230	12.680230	-57.288485	53.100	0.340	-0.390	-1.290	53.230	-1.800	-0.800																			1580019558.0	7.83	14.50
26/01/2020 06:19:19	26012020	260120	061919	53.250	12.680257	-57.288462	53.110	0.250	-0.350	-1.940	53.260	-1.800	-1.500																			1580019559.0	7.57	14.02
26/01/2020 06:19:20	26012020	260120	061920	53.310	12.680282	-57.288438	53.190	0.010	-0.140	-2.170	53.320	-1.500	-1.800																			1580019560.0	7.17	13.28
26/01/2020 06:19:21	26012020	260120	061921	53.400	12.680303	-57.288413	53.320	-0.230	-0.050	-1.900	53.430	-1.400	-1.600																			1580019561.0	7.03	13.02
26/01/2020 06:19:22	26012020	260120	061922	53.540	12.680322	-57.288385	53.480	-0.350	-0.170	-1.160	53.560	-1.500	-0.900																			1580019562.0	7.24	13.41
26/01/2020 06:19:23	26012020	260120	061923	53.580	12.680338	-57.288353	53.510	-0.330	-0.340	-0.040	53.560	-1.700	0.200																			1580019563.0	7.55	13.98
26/01/2020 06:19:24	26012020	260120	061924	53.460	12.680353	-57.288320	53.380	-0.210	-0.370	1.130	53.430	-1.800	1.400																			1580019564.0	7.62	14.11
26/01/2020 06:19:25	26012020	260120	061925	53.340	12.680367	-57.288288	53.290	-0.070	-0.300	1.950	53.330	-1.700	2.300																			1580019565.0	7.48	13.85
26/01/2020 06:19:26	26012020	260120	061926	53.350	12.680385	-57.288258	53.320	0.040	-0.200	2.170	53.360	-1.600	2.500																			1580019566.0	7.30	13.52
26/01/2020 06:19:27	26012020	260120	061927	53.370	12.680405	-57.288232	53.290	0.140	-0.120	1.840	53.360	-1.500	1.900																			1580019567.0	7.27	13.46
26/01/2020 06:19:28	26012020	260120	061928	53.290	12.680428	-57.288205	53.180	0.270	-0.040	1.110	53.270	-1.400	1.600																			1580019568.0	7.35	13.61
26/01/2020 06:19:29	26012020	260120	061929	53.220	12.680453	-57.288182	53.110	0.380	0.030	0.150	53.220	-1.400	0.600																			1580019569.0	7.38	13.67
26/01/2020 06:19:30	26012020	260120	061930	53.250	12.680480	-57.288158	53.130	0.340	-0.020	-0.820	53.260	-1.400	-0.300																			1580019570.0	7.39	13.69
26/01/2020 06:19:31	26012020	260120	061931	53.340	12.680505	-57.288135	53.220	0.170	-0.210	-1.680	53.370	-1.600	-1.200																			1580019571.0	7.55	13.98
26/01/2020 06:19:32	26012020	260120	061932	53.470	12.680532	-57.288110	53.320	-0.060	-0.310	-2.190	53.480	-1.700	-1.800																			1580019572.0	7.63	14.13
26/01/2020 06:19:33	26012020	260120	061933	53.500	12.680555	-57.288085	53.370	-0.250	-0.200	-2.040	53.500	-1.600	-1.700																			1580019573.0	7.33	13.58
26/01/2020 06:19:34	26012020	260120	061934	53.490	12.680573	-57.288057	53.390	-0.340	-0.090	-1.310	53.490	-1.500	-1.000																			1580019574.0	7.14	13.22
26/01/2020 06:19:35	26012020	260120	061935	53.470	12.680590	-57.288027	53.400	-0.400	-0.090	-0.290	53.450	-1.500	-0.000																			1580019575.0	7.28	13.48
26/01/2020 06:19:36	26012020	260120	061936	53.380	12.680605	-57.287995	53.310	-0.440	-0.150	0.750	53.370	-1.500	1.000																			1580019576.0	7.39	13.69
26/01/2020 06:19:37	26012020	260120	061937	53.310	12.680620	-57.287963	53.260	-0.330	-0.340	1.560	53.310	-1.700	1.900																			1580019577.0	7.46	13.82
26/01/2020 06:19:38	26012020	260120	061938	53.390	12.680638	-57.287932	53.370	0.030	-0.660	1.890	53.420	-2.000	2.300																			1580019578.0	7.63	14.13
26/01/2020 06:19:39	26012020	260120	061939	53.550	12.680658	-57.287902	53.500	0.470	-0.750	1.690	53.570	-1.900	1.800																			1580019579.0	7.79	14.43
26/01/2020 06:19:40	26012020	260120	061940	53.540	12.680682	-57.287875	53.410	0.650	-0.230	1.140	53.500	-1.700	1.600																			1580019580.0	7.49	13.87
26/01/2020 06:19:41	26012020	260120	061941	53.270	12.680705	-57.287853	53.100	0.430	0.680	0.390	53.220	-0.400	0.200																			1580019581.0	6.82	12.63
26/01/2020 06:19:42	26012020	260120	061942	53.090	12.680728	-57.287833	52.940	0.060	0.970	-0.620	53.090	-0.400	-0.100																			1580019582.0	6.68	12.37
26/01/2020 06:19:43	26012020	260120	061943	53.190	12.680757	-57.287812	53.070	-0.080	0.210	-1.720	53.230	-1.100	-1.200																			1580019583.0	7.50	13.89
26/01/2020 06:19:44	26012020	260120	061944	53.420	12.680785	-57.287785	53.290	-0.030	-0.850	-2.390	53.460	-2.100	-2.000																			1580019584.0	8.33	15.43
26/01/2020 06:19:45	26012020	260120	061945	53.590	12.680810	-57.287757	53.430	-0.090	-1.210	-2.370	53.590	-2.600	-2.000																			1580019585.0	8.16	15.11
26/01/2020 06:19:46	26012020	260120	061946	53.510	12.680830	-57.287728	53.340	-0.380	-0.710	-1.590	53.470	-2.200	-1.300																			1580019586.0	7.30	13.52
26/01/2020 06:19:47	26012020	260120	061947	53.220	12.680843	-57.287700	53.070	-0.670	0.080	-0.390	53.160	-1.400	-0.100																			1580019587.0	6.70	12.41
26/01/2020 06:19:48	26012020	260120	061948	53.010	12.680855	-57.287670	52.940	-0.660	0.430	0.640	53.000	-0.900	0.900																			1580019588.0	6.78	12.56
26/01/2020 06:19:49	26012020	260120	061949	53.060	12.680872	-57.287640	53.050	-0.290	0.150	1.160	53.100	-1.200	1.500																			1580019589.0	7.32	13.56
26/01/2020 06:19:50	26012020	260120	061950	53.270	12.680892	-57.287608	53.270	0.200	-0.290	1.170	53.320	-1.600	1.600																			1580019590.0	7.75	14.35
26/01/2020 06:19:51	26012020	260120	061951	53.430	12.680913	-57.287580	53.380	0.530	-0.450	0.920	53.440	-1.800	1.300																			1580019591.0	7.66	14.19
26/01/2020 06:19:52	26012020	260120	061952	53.440	12.680937	-57.287555	53.350	0.630	-0.300	0.570	53.430	-1.700	1.000																			1580019592.0	7.33	13.58
26/01/2020 06:19:53	26012020	260120	061953	53.380	12.680962	-57.287532	53.250	0.590	-0.150	0.180	53.360	-1.500	0.600																			1580019593.0	7.17	13.28
26/01/2020 06:19:54	26012020	260120	061954	53.300	12.680985	-57.287507	53.190	0.460	-0.170	-0.200	53.290	-1.500	0.200																			1580019594.0	7.32	13.56
26/01/2020 06:19:55	26012020	260120	061955	53.260	12.681010	-57.287482	53.140	0.230	-0.260	-0.490	53.250	-1.600	-0.100																			1580019595.0	7.53	13.95
26/01/2020 06:19:56	26012020	260120	061956	53.270	12.681033	-57.287455	53.170	-0.190	-0.130	-0.640	53.280	-1.500	-0.300																			1580019596.0	7.43	13.76
26/01/2020 06:19:57	26012020	260120	061957	53.320	12.681053	-57.287430	53.230	-0.640	0.170	-0.500	53.330	-1.200	-0.100																			1580019597.0	7.05	13.06
26/01/2020 06:19:58	26012020	260120	061958	53.400	12.681072	-57.287403	53.360	-0.850	0.250	-0.170	53.430	-1.100	0.200																			1580019598.0	6.91	12.80
26/01/2020 06:19:59	26012020	260120	061959	53.580	12.681090	-57.287373	53.550	-0.650	-0.110	0.070	53.620	-1.400	0.400																			1580019599.0	7.30	13.52
26/01/2020 06:20:00	26012020	260120	062000	53.730	12.681108	-57.287342	53.670	-0.200	-0.520	0.200	53.750	-1.900	0.600	1014.10	25.70	25.80	20.30	20.30	0.00	71.00	71.00	432.00	25.60	20.00	9.50	85.00	6.00	15	3238.00	27.40	27.40	1580019600.0	7.72	14.30
26/01/2020 06:20:01	26012020	260120	062001	53.750	12.681128	-57.287312	53.660	0.150	-0.550	0.350	53.730	-1.900	0.700																			1580019601.0	7.57	14.02
26/01/2020 06:20:02	26012020	260120	062002	53.630	12.681148	-57.287285	53.520	0.310	-0.300	0.310	53.600	-1.700	0.700																			1580019602.0	7.14	13.22
26/01/2020 06:20:03	26012020	260120	062003	53.470	12.681170	-57.287260	53.360	0.430	-0.080	-0.050	53.440	-1.400	0.100																			1580019603.0	7.05	13.06
26/01/2020 06:20:04	26012020	260120	062004	53.440	12.681195	-57.287237	53.380	0.600	-0.120	-0.560	53.470	-1.500	-0.100																			1580019604.0	7.31	13.54
26/01/2020 06:20:05	26012020	260120	062005	53.640	12.681222	-57.287212	53.590	0.690	-0.370	-1.000	53.690	-1.700	-0.600																			1580019605.0	7.67	14.20
26/01/2020 06:20:06	26012020	260120	062006	53.860	12.681245	-57.287185	53.800	0.470	-0.400	-1.140	53.890	-1.800	-0.800																			1580019606.0	7.74	14.33
26/01/2020 06:20:07	26012020	260120	062007	53.980	12.681267	-57.287158	53.900	-0.100	0.040	-0.800	53.990	-1.400	-0.500																			1580019607.0	7.26	13.45
26/01/2020 06:20:08	26012020	260120	062008	53.980	12.681283	-57.287132	53.910	-0.730	0.490	-0.050	53.970	-0.900	0.200																			1580019608.0	6.76	12.52
26/01/2020 06:20:09	26012020	260120	062009	53.910	12.681297	-57.287102	53.840	-0.990	0.380	0.760	53.900	-1.000	1.100																			1580019609.0	6.97	12.91
26/01/2020 06:20:10	26012020	260120	062010	53.860	12.681313	-57.287070	53.800	-0.670	-0.270	1.210	53.870	-1.600	1.600																			1580019610.0	7.61	14.09
26/01/2020 06:20:11	26012020	260120	062011	53.890	12.681333	-57.287038	53.840	-0.030	-0.840	1.210	53.900	-2.200	1.600																			1580019611.0	7.99	14.80
26/01/2020 06:20:12	26012020	260120	062012	53.930	12.681355	-57.287008	53.850	0.460	-0.750	0.880	53.940	-2.200	1.300																			1580019612.0	7.69	14.24
26/01/2020 06:20:13	26012020	260120	062013	53.920	12.681378	-57.286985	53.810	0.520	-0.130	0.320	53.910	-1.600	0.800																			1580019613.0	6.99	12.95
26/01/2020 06:20:14	26012020	260120	062014	53.840	12.681400	-57.286963	53.710	0.300	0.340	-0.370	53.830	-1.100	0.100																			1580019614.0	6.71	12.43
26/01/2020 06:20:15	26012020	260120	062015	53.810	12.681425	-57.286940	53.680	0.120	0.210	-1.060	53.810	-1.100	-0.600																			1580019615.0	7.13	13.20
26/01/2020 06:20:16	26012020	260120	062016	53.860	12.681452	-57.286915	53.750	0.150	-0.360	-1.560	53.880	-1.700	-1.100																			1580019616.0	7.78	14.41
26/01/2020 06:20:17	26012020	260120	062017	53.980	12.681477	-57.286887	53.890	0.230	-0.750	-1.670	53.990	-2.100	-1.300																			1580019617.0	8.01	14.83
26/01/2020 06:20:18	26012020	260120	062018	54.050	12.681498	-57.286858	53.970	0.110	-0.530	-1.320	54.050	-1.900	-1.000																			1580019618.0	7.59	14.06
26/01/2020 06:20:19	26012020	260120	062019	54.030	12.681515	-57.286830	53.950	-0.210	0.060	-0.550	54.010	-1.400	-0.300																			1580019619.0	6.92	12.82
26/01/2020 06:20:20	26012020	260120	062020	53.980	12.681528	-57.286802	53.930	-0.430	0.360	0.360	53.970	-1.000	0.600																			1580019620.0	6.80	12.59
26/01/2020 06:20:21	26012020	260120	062021	53.950	12.681543	-57.286770	53.880	-0.360	0.170	1.020	53.940	-1.200	1.300																			1580019621.0	7.30	13.52
26/01/2020 06:20:22	26012020	260120	062022	53.920	12.681562	-57.286740	53.840	-0.150	-0.160	1.330	53.920	-1.500	1.700																			1580019622.0	7.64	14.15
26/01/2020 06:20:23	26012020	260120	062023	53.920	12.681582	-57.286710	53.830	0.030	-0.290	1.280	53.920	-1.700	1.700																			1580019623.0	7.50	13.89
26/01/2020 06:20:24	26012020	260120	062024	53.890	12.681603	-57.286685	53.770	0.140	-0.310	0.870	53.860	-1.700	1.300																			1580019624.0	7.29	13.50
26/01/2020 06:20:25	26012020	260120	062025	53.740	12.681628	-57.286660	53.610	0.230	-0.300	0.330	53.710	-1.700	0.800																			1580019625.0	7.29	13.50
26/01/2020 06:20:26	26012020	260120	062026	53.640	12.681652	-57.286635	53.520	0.290	-0.320	-0.230	53.640	-1.700	0.200																			1580019626.0	7.35	13.61
26/01/2020 06:20:27	26012020	260120	062027	53.700	12.681677	-57.286610	53.590	0.260	-0.380	-0.810	53.720	-1.800	-0.400																			1580019627.0	7.43	13.76
26/01/2020 06:20:28	26012020	260120	062028	53.820	12.681700	-57.286585	53.700	0.130	-0.270	-1.230	53.840	-1.700	-0.800																			1580019628.0	7.47	13.83
26/01/2020 06:20:29	26012020	260120	062029	53.890	12.681722	-57.286558	53.760	-0.120	0.100	-1.270	53.900	-1.100	-0.800																			1580019629.0	7.14	13.22
26/01/2020 06:20:30	26012020	260120	062030	53.920	12.681740	-57.286532	53.780	-0.330	0.330	-1.000	53.920	-1.100	-0.700																			1580019630.0	6.87	12.72
26/01/2020 06:20:31	26012020	260120	062031	53.880	12.681758	-57.286503	53.760	-0.300	0.090	-0.540	53.870	-1.200	-0.200																			1580019631.0	7.15	13.24
26/01/2020 06:20:32	26012020	260120	062032	53.820	12.681777	-57.286473	53.700	0.010	-0.430	-0.070	53.810	-1.800	0.300																			1580019632.0	7.64	14.15
26/01/2020 06:20:33	26012020	260120	062033	53.760	12.681797	-57.286442	53.640	0.340	-0.760	0.330	53.750	-2.100	0.700																			1580019633.0	7.84	14.52
26/01/2020 06:20:34	26012020	260120	062034	53.710	12.681818	-57.286413	53.610	0.420	-0.610	0.540	53.710	-2.000	0.900																			1580019634.0	7.54	13.96
26/01/2020 06:20:35	26012020	260120	062035	53.790	12.681838	-57.286387	53.720	0.230	-0.110	0.500	53.830	-1.500	0.900																			1580019635.0	7.05	13.06
26/01/2020 06:20:36	26012020	260120	062036	53.970	12.681858	-57.286362	53.900	-0.060	0.390	0.390	54.000	-1.000	0.800																			1580019636.0	6.78	12.56
26/01/2020 06:20:37	26012020	260120	062037	53.990	12.681877	-57.286337	53.890	-0.320	0.550	0.390	53.970	-0.800	0.800																			1580019637.0	6.85	12.69
26/01/2020 06:20:38	26012020	260120	062038	53.830	12.681897	-57.286308	53.700	-0.440	0.130	0.310	53.790	-1.200	0.700																			1580019638.0	7.26	13.45
26/01/2020 06:20:39	26012020	260120	062039	53.690	12.681920	-57.286280	53.580	-0.350	-0.510	0.070	53.670	-1.800	0.500																			1580019639.0	7.76	14.37
26/01/2020 06:20:40	26012020	260120	062040	53.690	12.681943	-57.286252	53.610	-0.080	-0.810	-0.290	53.710	-2.200	0.100																			1580019640.0	7.79	14.43
26/01/2020 06:20:41	26012020	260120	062041	53.820	12.681967	-57.286225	53.750	0.250	-0.630	-0.630	53.860	-2.000	-0.200																			1580019641.0	7.38	13.67
26/01/2020 06:20:42	26012020	260120	062042	53.950	12.681987	-57.286200	53.870	0.410	-0.190	-0.800	53.970	-1.600	-0.400																			1580019642.0	7.04	13.04
26/01/2020 06:20:43	26012020	260120	062043	53.940	12.682007	-57.286173	53.840	0.330	0.130	-0.730	53.930	-1.300	-0.400																			1580019643.0	6.91	12.80
26/01/2020 06:20:44	26012020	260120	062044	53.880	12.682027	-57.286147	53.800	0.160	0.050	-0.640	53.880	-1.300	-0.300																			1580019644.0	7.15	13.24
26/01/2020 06:20:45	26012020	260120	062045	53.900	12.682048	-57.286120	53.830	0.110	-0.240	-0.560	53.910	-1.600	-0.200																			1580019645.0	7.56	14.00
26/01/2020 06:20:46	26012020	260120	062046	53.950	12.682070	-57.286090	53.870	0.130	-0.370	-0.380	53.950	-1.700	-0.000																			1580019646.0	7.66	14.19
26/01/2020 06:20:47	26012020	260120	062047	53.930	12.682092	-57.286063	53.850	0.020	-0.130	-0.020	53.920	-1.500	0.300																			1580019647.0	7.39	13.69
26/01/2020 06:20:48	26012020	260120	062048	53.830	12.682110	-57.286035	53.750	-0.310	0.300	0.400	53.800	-1.100	0.700																			1580019648.0	6.92	12.82
26/01/2020 06:20:49	26012020	260120	062049	53.720	12.682127	-57.286008	53.670	-0.590	0.380	0.670	53.710	-1.000	1.000																			1580019649.0	6.77	12.54
26/01/2020 06:20:50	26012020	260120	062050	53.730	12.682147	-57.285980	53.700	-0.510	-0.210	0.640	53.750	-1.500	1.000																			1580019650.0	7.32	13.56
26/01/2020 06:20:51	26012020	260120	062051	53.870	12.682168	-57.285950	53.850	-0.060	-0.920	0.400	53.900	-2.200	0.800																			1580019651.0	7.99	14.80
26/01/2020 06:20:52	26012020	260120	062052	54.010	12.682192	-57.285920	53.970	0.320	-0.940	0.110	54.030	-2.300	0.500																			1580019652.0	7.90	14.63
26/01/2020 06:20:53	26012020	260120	062053	53.980	12.682212	-57.285895	53.880	0.330	-0.190	-0.110	53.940	-1.600	0.300																			1580019653.0	7.02	13.00
26/01/2020 06:20:54	26012020	260120	062054	53.740	12.682230	-57.285872	53.600	0.090	0.560	-0.290	53.690	-0.900	0.100																			1580019654.0	6.39	11.83
26/01/2020 06:20:55	26012020	260120	062055	53.530	12.682252	-57.285848	53.420	-0.020	0.510	-0.660	53.510	-0.800	-0.200																			1580019655.0	6.71	12.43
26/01/2020 06:20:56	26012020	260120	062056	53.480	12.682277	-57.285822	53.370	0.210	-0.290	-1.100	53.480	-1.600	-0.700																			1580019656.0	7.75	14.35
26/01/2020 06:20:57	26012020	260120	062057	53.440	12.682303	-57.285793	53.340	0.460	-0.880	-1.260	53.430	-2.200	-0.900																			1580019657.0	8.30	15.37
26/01/2020 06:20:58	26012020	260120	062058	53.370	12.682327	-57.285767	53.290	0.350	-0.620	-0.940	53.360	-2.000	-0.600																			1580019658.0	7.66	14.19
26/01/2020 06:20:59	26012020	260120	062059	53.370	12.682343	-57.285740	53.340	-0.090	0.030	-0.330	53.390	-1.400	-0.000																			1580019659.0	6.75	12.50
26/01/2020 06:21:00	26012020	260120	062100	53.500	12.682360	-57.285712	53.470	-0.490	0.300	0.300	53.530	-1.100	0.600	1014.00	25.70	25.80	20.50	20.50	0.00	72.00	72.00	432.00	25.50	25.00	9.70	93.00	6.50	15	3179.00	27.40	27.40	1580019660.0	6.72	12.45
26/01/2020 06:21:01	26012020	260120	062101	53.580	12.682375	-57.285682	53.540	-0.620	0.150	0.930	53.580	-1.200	1.200																			1580019661.0	7.26	13.45
26/01/2020 06:21:02	26012020	260120	062102	53.540	12.682393	-57.285650	53.510	-0.520	-0.050	1.300	53.530	-1.400	1.600																			1580019662.0	7.54	13.96
26/01/2020 06:21:03	26012020	260120	062103	53.470	12.682412	-57.285622	53.420	-0.290	-0.090	1.280	53.460	-1.500	1.700																			1580019663.0	7.29	13.50
26/01/2020 06:21:04	26012020	260120	062104	53.420	12.682432	-57.285595	53.340	0.040	-0.170	0.940	53.400	-1.500	1.400																			1580019664.0	7.10	13.15
26/01/2020 06:21:05	26012020	260120	062105	53.390	12.682455	-57.285570	53.300	0.430	-0.460	0.350	53.380	-1.800	0.800																			1580019665.0	7.33	13.58
26/01/2020 06:21:06	26012020	260120	062106	53.330	12.682482	-57.285545	53.210	0.700	-0.710	-0.370	53.310	-2.100	0.100																			1580019666.0	7.70	14.26
26/01/2020 06:21:07	26012020	260120	062107	53.200	12.682508	-57.285520	53.060	0.650	-0.560	-0.970	53.170	-1.700	-0.800																			1580019667.0	7.64	14.15
26/01/2020 06:21:08	26012020	260120	062108	53.120	12.682532	-57.285497	53.020	0.320	-0.120	-1.260	53.130	-1.500	-0.900																			1580019668.0	7.15	13.24
26/01/2020 06:21:09	26012020	260120	062109	53.230	12.682553	-57.285473	53.170	-0.050	0.130	-1.230	53.260	-1.300	-0.900																			1580019669.0	6.97	12.91
26/01/2020 06:21:10	26012020	260120	062110	53.370	12.682573	-57.285445	53.310	-0.360	0.120	-0.900	53.390	-1.200	-0.600																			1580019670.0	7.25	13.43
26/01/2020 06:21:11	26012020	260120	062111	53.440	12.682590	-57.285415	53.370	-0.560	0.050	-0.350	53.450	-1.300	-0.000																			1580019671.0	7.44	13.78
26/01/2020 06:21:12	26012020	260120	062112	53.480	12.682607	-57.285383	53.440	-0.570	0.030	0.260	53.490	-1.300	0.600																			1580019672.0	7.37	13.65
26/01/2020 06:21:13	26012020	260120	062113	53.540	12.682625	-57.285355	53.500	-0.390	0.020	0.690	53.550	-1.300	1.000																			1580019673.0	7.22	13.37
26/01/2020 06:21:14	26012020	260120	062114	53.600	12.682643	-57.285327	53.530	-0.050	-0.120	0.780	53.600	-1.500	1.200																			1580019674.0	7.18	13.30
26/01/2020 06:21:15	26012020	260120	062115	53.550	12.682665	-57.285300	53.450	0.300	-0.380	0.640	53.520	-1.700	1.000																			1580019675.0	7.37	13.65
26/01/2020 06:21:16	26012020	260120	062116	53.430	12.682688	-57.285273	53.340	0.540	-0.560	0.360	53.420	-1.900	0.800																			1580019676.0	7.51	13.91
26/01/2020 06:21:17	26012020	260120	062117	53.390	12.682712	-57.285247	53.300	0.560	-0.500	-0.020	53.390	-1.900	0.400																			1580019677.0	7.43	13.76
26/01/2020 06:21:18	26012020	260120	062118	53.360	12.682735	-57.285223	53.250	0.340	-0.220	-0.370	53.340	-1.600	0.000																			1580019678.0	7.20	13.33
26/01/2020 06:21:19	26012020	260120	062119	53.250	12.682758	-57.285198	53.140	-0.030	0.040	-0.590	53.240	-1.300	-0.300																			1580019679.0	7.05	13.06
26/01/2020 06:21:20	26012020	260120	062120	53.310	12.682780	-57.285173	53.250	-0.370	0.050	-0.790	53.350	-1.300	-0.400																			1580019680.0	7.16	13.26
26/01/2020 06:21:21	26012020	260120	062121	53.580	12.682802	-57.285147	53.520	-0.530	-0.090	-0.840	53.620	-1.500	-0.400																			1580019681.0	7.41	13.72
26/01/2020 06:21:22	26012020	260120	062122	53.760	12.682822	-57.285117	53.660	-0.520	-0.120	-0.590	53.760	-1.500	-0.300																			1580019682.0	7.42	13.74
26/01/2020 06:21:23	26012020	260120	062123	53.670	12.682838	-57.285088	53.540	-0.380	-0.100	-0.130	53.620	-1.500	0.200																			1580019683.0	7.28	13.48
26/01/2020 06:21:24	26012020	260120	062124	53.430	12.682855	-57.285058	53.290	-0.080	-0.270	0.320	53.380	-1.600	0.700																			1580019684.0	7.33	13.58
26/01/2020 06:21:25	26012020	260120	062125	53.250	12.682875	-57.285028	53.150	0.320	-0.530	0.430	53.230	-1.900	0.800																			1580019685.0	7.57	14.02
26/01/2020 06:21:26	26012020	260120	062126	53.230	12.682898	-57.285000	53.160	0.640	-0.510	0.200	53.230	-1.900	0.600																			1580019686.0	7.60	14.08
26/01/2020 06:21:27	26012020	260120	062127	53.270	12.682922	-57.284975	53.210	0.630	-0.130	-0.240	53.280	-1.500	0.200																			1580019687.0	7.25	13.43
26/01/2020 06:21:28	26012020	260120	062128	53.320	12.682945	-57.284952	53.240	0.310	0.240	-0.700	53.330	-1.200	-0.300																			1580019688.0	6.99	12.95
26/01/2020 06:21:29	26012020	260120	062129	53.420	12.682968	-57.284928	53.340	-0.100	0.260	-1.020	53.440	-1.100	-0.600																			1580019689.0	7.15	13.24
26/01/2020 06:21:30	26012020	260120	062130	53.510	12.682992	-57.284903	53.400	-0.400	0.140	-0.960	53.500	-1.200	-0.600																			1580019690.0	7.39	13.69
26/01/2020 06:21:31	26012020	260120	062131	53.430	12.683012	-57.284875	53.300	-0.590	0.050	-0.540	53.400	-1.300	-0.200																			1580019691.0	7.31	13.54
26/01/2020 06:21:32	26012020	260120	062132	53.320	12.683030	-57.284847	53.240	-0.660	-0.170	-0.120	53.320	-1.500	0.200																			1580019692.0	7.21	13.35
26/01/2020 06:21:33	26012020	260120	062133	53.360	12.683048	-57.284817	53.320	-0.450	-0.620	0.220	53.380	-1.900	0.600																			1580019693.0	7.41	13.72
26/01/2020 06:21:34	26012020	260120	062134	53.500	12.683068	-57.284787	53.460	-0.010	-0.990	0.480	53.510	-2.400	0.800																			1580019694.0	7.72	14.30
26/01/2020 06:21:35	26012020	260120	062135	53.500	12.683087	-57.284757	53.430	0.380	-0.820	0.680	53.480	-2.200	1.000																			1580019695.0	7.62	14.11
26/01/2020 06:21:36	26012020	260120	062136	53.310	12.683107	-57.284728	53.220	0.480	-0.210	0.680	53.260	-1.600	1.100																			1580019696.0	7.07	13.09
26/01/2020 06:21:37	26012020	260120	062137	53.140	12.683128	-57.284705	53.080	0.410	0.230	0.260	53.130	-1.200	0.700																			1580019697.0	6.87	12.72
26/01/2020 06:21:38	26012020	260120	062138	53.140	12.683152	-57.284680	53.090	0.380	0.280	-0.440	53.160	-1.100	0.000																			1580019698.0	7.30	13.52
26/01/2020 06:21:39	26012020	260120	062139	53.250	12.683178	-57.284657	53.210	0.350	0.170	-1.150	53.280	-1.200	-0.700																			1580019699.0	7.66	14.19
26/01/2020 06:21:40	26012020	260120	062140	53.440	12.683205	-57.284632	53.400	0.210	0.060	-1.660	53.480	-1.300	-1.200																			1580019700.0	7.62	14.11
26/01/2020 06:21:41	26012020	260120	062141	53.620	12.683228	-57.284607	53.570	-0.070	0.010	-1.690	53.650	-1.400	-1.300																			1580019701.0	7.39	13.69
26/01/2020 06:21:42	26012020	260120	062142	53.690	12.683248	-57.284580	53.600	-0.420	0.010	-1.240	53.690	-1.400	-0.900																			1580019702.0	7.19	13.32
26/01/2020 06:21:43	26012020	260120	062143	53.650	12.683267	-57.284550	53.590	-0.680	-0.120	-0.560	53.640	-1.700	0.200																			1580019703.0	7.12	13.19
26/01/2020 06:21:44	26012020	260120	062144	53.620	12.683283	-57.284522	53.570	-0.670	-0.450	0.120	53.620	-1.800	0.400																			1580019704.0	7.37	13.65
26/01/2020 06:21:45	26012020	260120	062145	53.600	12.683302	-57.284490	53.570	-0.400	-0.640	0.710	53.590	-2.000	1.000																			1580019705.0	7.55	13.98
26/01/2020 06:21:46	26012020	260120	062146	53.560	12.683318	-57.284460	53.550	-0.060	-0.550	1.090	53.560	-1.900	1.400																			1580019706.0	7.36	13.63
26/01/2020 06:21:47	26012020	260120	062147	53.580	12.683337	-57.284432	53.560	0.240	-0.350	1.160	53.590	-1.700	1.500																			1580019707.0	7.17	13.28
26/01/2020 06:21:48	26012020	260120	062148	53.630	12.683358	-57.284405	53.610	0.430	-0.240	0.780	53.650	-1.600	1.200																			1580019708.0	7.23	13.39
26/01/2020 06:21:49	26012020	260120	062149	53.700	12.683382	-57.284380	53.640	0.550	-0.170	0.040	53.700	-1.600	0.500																			1580019709.0	7.43	13.76
26/01/2020 06:21:50	26012020	260120	062150	53.680	12.683408	-57.284355	53.590	0.590	-0.080	-0.710	53.670	-1.500	-0.300																			1580019710.0	7.56	14.00
26/01/2020 06:21:51	26012020	260120	062151	53.650	12.683433	-57.284332	53.530	0.460	0.040	-1.350	53.650	-1.400	-0.900																			1580019711.0	7.56	14.00
26/01/2020 06:21:52	26012020	260120	062152	53.680	12.683460	-57.284307	53.580	0.150	0.250	-1.780	53.700	-1.200	-1.400																			1580019712.0	7.41	13.72
26/01/2020 06:21:53	26012020	260120	062153	53.800	12.683483	-57.284283	53.730	-0.250	0.360	-1.860	53.830	-1.000	-1.500																			1580019713.0	7.11	13.17
26/01/2020 06:21:54	26012020	260120	062154	54.010	12.683503	-57.284257	53.960	-0.480	-0.010	-1.560	54.060	-1.300	-1.200																			1580019714.0	7.19	13.32
26/01/2020 06:21:55	26012020	260120	062155	54.200	12.683522	-57.284225	54.130	-0.440	-0.600	-0.870	54.200	-1.900	-0.600																			1580019715.0	7.74	14.33
26/01/2020 06:21:56	26012020	260120	062156	54.140	12.683540	-57.284193	54.060	-0.290	-0.730	0.080	54.100	-2.100	0.400																			1580019716.0	7.84	14.52
26/01/2020 06:21:57	26012020	260120	062157	53.950	12.683555	-57.284162	53.890	-0.220	-0.350	0.960	53.920	-1.800	1.300																			1580019717.0	7.29	13.50
26/01/2020 06:21:58	26012020	260120	062158	53.830	12.683570	-57.284133	53.770	-0.190	0.020	1.370	53.820	-1.400	1.700																			1580019718.0	6.87	12.72
26/01/2020 06:21:59	26012020	260120	062159	53.770	12.683588	-57.284107	53.720	-0.090	0.020	1.140	53.760	-1.300	1.600																			1580019719.0	7.04	13.04
26/01/2020 06:22:00	26012020	260120	062200	53.780	12.683613	-57.284080	53.730	0.110	-0.210	0.450	53.800	-1.600	0.900	1014.00	25.80	25.80	20.80	20.70	0.00	74.00	73.00	432.00	25.60	30.00	9.80	99.00	6.80	15	3192.00	27.40	27.40	1580019720.0	7.51	13.91
26/01/2020 06:22:01	26012020	260120	062201	53.940	12.683638	-57.284055	53.880	0.340	-0.380	-0.340	53.980	-1.800	0.100																			1580019721.0	7.72	14.30
26/01/2020 06:22:02	26012020	260120	062202	54.120	12.683663	-57.284030	54.050	0.490	-0.360	-0.940	54.150	-1.700	-0.500																			1580019722.0	7.55	13.98
26/01/2020 06:22:03	26012020	260120	062203	54.210	12.683687	-57.284005	54.090	0.450	-0.220	-1.330	54.200	-1.600	-0.900																			1580019723.0	7.36	13.63
26/01/2020 06:22:04	26012020	260120	062204	54.110	12.683710	-57.283978	53.970	0.190	0.010	-1.410	54.080	-1.400	-1.000																			1580019724.0	7.24	13.41
26/01/2020 06:22:05	26012020	260120	062205	53.940	12.683730	-57.283953	53.820	-0.130	0.180	-1.150	53.910	-1.200	-0.800																			1580019725.0	7.08	13.11
26/01/2020 06:22:06	26012020	260120	062206	53.850	12.683750	-57.283925	53.770	-0.270	0.050	-0.820	53.850	-1.300	-0.500																			1580019726.0	7.20	13.33
26/01/2020 06:22:07	26012020	260120	062207	53.880	12.683770	-57.283897	53.800	-0.190	-0.310	-0.500	53.890	-1.700	-0.200																			1580019727.0	7.58	14.04
26/01/2020 06:22:08	26012020	260120	062208	54.020	12.683792	-57.283867	53.980	-0.130	-0.480	-0.220	54.070	-1.900	0.100																			1580019728.0	7.70	14.26
26/01/2020 06:22:09	26012020	260120	062209	54.270	12.683810	-57.283838	54.230	-0.260	-0.180	0.160	54.320	-1.300	0.800																			1580019729.0	7.26	13.45
26/01/2020 06:22:10	26012020	260120	062210	54.440	12.683827	-57.283810	54.370	-0.440	0.280	0.620	54.440	-1.100	0.900																			1580019730.0	6.75	12.50
26/01/2020 06:22:11	26012020	260120	062211	54.350	12.683842	-57.283783	54.250	-0.420	0.330	1.020	54.310	-1.300	1.400																			1580019731.0	6.73	12.46
26/01/2020 06:22:12	26012020	260120	062212	54.140	12.683862	-57.283755	54.040	-0.040	-0.320	1.030	54.110	-1.600	1.400																			1580019732.0	7.36	13.63
26/01/2020 06:22:13	26012020	260120	062213	54.080	12.683885	-57.283725	54.000	0.540	-1.150	0.530	54.080	-2.500	1.000																			1580019733.0	8.11	15.02
26/01/2020 06:22:14	26012020	260120	062214	54.150	12.683912	-57.283697	54.070	0.920	-1.280	-0.180	54.160	-2.700	0.300																			1580019734.0	8.21	15.20
26/01/2020 06:22:15	26012020	260120	062215	54.220	12.683937	-57.283673	54.140	0.780	-0.420	-0.770	54.230	-1.900	-0.400																			1580019735.0	7.39	13.69
26/01/2020 06:22:16	26012020	260120	062216	54.230	12.683958	-57.283652	54.140	0.170	0.730	-1.040	54.230	-0.800	-0.700																			1580019736.0	6.47	11.98
26/01/2020 06:22:17	26012020	260120	062217	54.270	12.683978	-57.283628	54.190	-0.480	1.190	-1.140	54.290	-0.200	-0.800																			1580019737.0	6.36	11.78
26/01/2020 06:22:18	26012020	260120	062218	54.480	12.683998	-57.283602	54.420	-0.780	0.650	-1.270	54.530	-0.600	-0.900																			1580019738.0	7.12	13.19
26/01/2020 06:22:19	26012020	260120	062219	54.750	12.684020	-57.283572	54.680	-0.600	-0.300	-1.280	54.780	-1.600	-0.900																			1580019739.0	7.90	14.63
26/01/2020 06:22:20	26012020	260120	062220	54.840	12.684042	-57.283542	54.720	-0.180	-0.870	-0.900	54.820	-2.200	-0.600																			1580019740.0	7.98	14.78
26/01/2020 06:22:21	26012020	260120	062221	54.650	12.684060	-57.283510	54.510	0.100	-0.810	-0.190	54.600	-2.200	0.100																			1580019741.0	7.46	13.82
26/01/2020 06:22:22	26012020	260120	062222	54.410	12.684075	-57.283482	54.290	0.140	-0.470	0.390	54.380	-1.900	0.700																			1580019742.0	6.91	12.80
26/01/2020 06:22:23	26012020	260120	062223	54.320	12.684095	-57.283455	54.250	0.190	-0.300	0.540	54.320	-1.700	0.900																			1580019743.0	6.90	12.78
26/01/2020 06:22:24	26012020	260120	062224	54.390	12.684115	-57.283428	54.350	0.350	-0.280	0.350	54.430	-1.700	0.700																			1580019744.0	7.26	13.45
26/01/2020 06:22:25	26012020	260120	062225	54.570	12.684138	-57.283402	54.540	0.430	-0.220	0.020	54.610	-1.600	0.400																			1580019745.0	7.43	13.76
26/01/2020 06:22:26	26012020	260120	062226	54.670	12.684160	-57.283375	54.590	0.260	-0.010	-0.230	54.670	-1.400	0.100																			1580019746.0	7.34	13.59
26/01/2020 06:22:27	26012020	260120	062227	54.550	12.684182	-57.283350	54.440	-0.060	0.250	-0.380	54.510	-1.200	-0.000																			1580019747.0	7.15	13.24
26/01/2020 06:22:28	26012020	260120	062228	54.390	12.684202	-57.283323	54.280	-0.270	0.280	-0.530	54.370	-1.100	-0.200																			1580019748.0	7.10	13.15
26/01/2020 06:22:29	26012020	260120	062229	54.380	12.684225	-57.283297	54.310	-0.220	-0.070	-0.720	54.410	-1.400	-0.300																			1580019749.0	7.38	13.67
26/01/2020 06:22:30	26012020	260120	062230	54.540	12.684247	-57.283268	54.470	-0.020	-0.460	-0.870	54.560	-1.800	-0.500																			1580019750.0	7.70	14.26
26/01/2020 06:22:31	26012020	260120	062231	54.650	12.684267	-57.283240	54.580	0.080	-0.410	-0.780	54.660	-1.800	-0.400																			1580019751.0	7.51	13.91
26/01/2020 06:22:32	26012020	260120	062232	54.660	12.684285	-57.283212	54.600	-0.030	-0.040	-0.420	54.660	-1.400	-0.100																			1580019752.0	6.96	12.89
26/01/2020 06:22:33	26012020	260120	062233	54.640	12.684302	-57.283185	54.580	-0.230	0.130	-0.090	54.630	-1.300	0.200																			1580019753.0	6.78	12.56
26/01/2020 06:22:34	26012020	260120	062234	54.580	12.684322	-57.283158	54.520	-0.250	-0.130	0.060	54.560	-1.500	0.400																			1580019754.0	7.12	13.19
26/01/2020 06:22:35	26012020	260120	062235	54.500	12.684343	-57.283130	54.430	0.030	-0.550	0.080	54.480	-1.900	0.400																			1580019755.0	7.60	14.08
26/01/2020 06:22:36	26012020	260120	062236	54.390	12.684367	-57.283102	54.320	0.370	-0.670	0.130	54.380	-2.100	0.500																			1580019756.0	7.71	14.28
26/01/2020 06:22:37	26012020	260120	062237	54.360	12.684387	-57.283075	54.300	0.440	-0.360	0.170	54.360	-1.800	0.500																			1580019757.0	7.36	13.63
26/01/2020 06:22:38	26012020	260120	062238	54.470	12.684407	-57.283048	54.460	0.170	0.050	0.080	54.510	-1.400	0.500																			1580019758.0	6.96	12.89
26/01/2020 06:22:39	26012020	260120	062239	54.680	12.684427	-57.283022	54.660	-0.180	0.260	-0.140	54.720	-1.100	0.200																			1580019759.0	6.94	12.85
26/01/2020 06:22:40	26012020	260120	062240	54.840	12.684448	-57.282995	54.810	-0.320	0.160	-0.290	54.860	-1.200	0.100																			1580019760.0	7.18	13.30
26/01/2020 06:22:41	26012020	260120	062241	54.840	12.684468	-57.282967	54.770	-0.180	-0.160	-0.290	54.830	-1.500	0.100																			1580019761.0	7.49	13.87
26/01/2020 06:22:42	26012020	260120	062242	54.720	12.684488	-57.282937	54.640	0.070	-0.440	-0.230	54.700	-1.800	0.100																			1580019762.0	7.65	14.17
26/01/2020 06:22:43	26012020	260120	062243	54.600	12.684510	-57.282908	54.540	0.190	-0.430	-0.240	54.590	-1.800	0.100																			1580019763.0	7.48	13.85
26/01/2020 06:22:44	26012020	260120	062244	54.570	12.684530	-57.282882	54.510	0.110	-0.160	-0.440	54.580	-1.600	-0.100																			1580019764.0	7.13	13.20
26/01/2020 06:22:45	26012020	260120	062245	54.650	12.684552	-57.282857	54.600	-0.010	0.040	-0.660	54.670	-1.400	-0.300																			1580019765.0	7.00	12.96
26/01/2020 06:22:46	26012020	260120	062246	54.740	12.684573	-57.282832	54.670	-0.040	0.030	-0.730	54.760	-1.400	-0.400																			1580019766.0	7.18	13.30
26/01/2020 06:22:47	26012020	260120	062247	54.840	12.684595	-57.282803	54.800	-0.060	-0.090	-0.690	54.870	-1.500	-0.300																			1580019767.0	7.37	13.65
26/01/2020 06:22:48	26012020	260120	062248	54.950	12.684613	-57.282777	54.890	-0.130	-0.150	-0.490	54.950	-1.500	-0.200																			1580019768.0	7.32	13.56
26/01/2020 06:22:49	26012020	260120	062249	54.900	12.684633	-57.282748	54.830	-0.170	-0.200	-0.120	54.880	-1.600	0.200																			1580019769.0	7.21	13.35
26/01/2020 06:22:50	26012020	260120	062250	54.810	12.684652	-57.282718	54.750	-0.060	-0.380	0.230	54.790	-1.700	0.500																			1580019770.0	7.30	13.52
26/01/2020 06:22:51	26012020	260120	062251	54.750	12.684670	-57.282688	54.680	0.130	-0.520	0.400	54.740	-1.900	0.700																			1580019771.0	7.49	13.87
26/01/2020 06:22:52	26012020	260120	062252	54.730	12.684690	-57.282660	54.670	0.240	-0.440	0.410	54.730	-1.900	0.800																			1580019772.0	7.43	13.76
26/01/2020 06:22:53	26012020	260120	062253	54.680	12.684712	-57.282633	54.610	0.190	-0.180	0.320	54.670	-1.600	0.700																			1580019773.0	7.24	13.41
26/01/2020 06:22:54	26012020	260120	062254	54.610	12.684732	-57.282607	54.500	0.060	0.090	0.070	54.600	-1.300	0.500																			1580019774.0	7.11	13.17
26/01/2020 06:22:55	26012020	260120	062255	54.560	12.684753	-57.282582	54.470	-0.030	0.140	-0.300	54.550	-1.200	0.100																			1580019775.0	7.20	13.33
26/01/2020 06:22:56	26012020	260120	062256	54.590	12.684777	-57.282555	54.510	-0.050	-0.030	-0.650	54.610	-1.400	-0.300																			1580019776.0	7.43	13.76
26/01/2020 06:22:57	26012020	260120	062257	54.700	12.684798	-57.282527	54.630	-0.080	-0.130	-0.880	54.720	-1.500	-0.500																			1580019777.0	7.50	13.89
26/01/2020 06:22:58	26012020	260120	062258	54.770	12.684818	-57.282500	54.670	-0.190	-0.020	-0.890	54.770	-1.400	-0.500																			1580019778.0	7.26	13.45
26/01/2020 06:22:59	26012020	260120	062259	54.720	12.684838	-57.282473	54.620	-0.260	0.060	-0.750	54.700	-1.300	-0.400																			1580019779.0	6.98	12.93
26/01/2020 06:23:00	26012020	260120	062300	54.620	12.684857	-57.282445	54.520	-0.120	-0.180	-0.570	54.600	-1.500	-0.200	1014.00	25.70	25.70	20.30	20.30	0.00	72.00	72.00	431.00	25.50	28.00	10.00	97.00	6.90	15	3186.00	27.40	27.40	1580019780.0	7.15	13.24
26/01/2020 06:23:01	26012020	260120	062301	54.500	12.684877	-57.282417	54.380	0.180	-0.550	-0.340	54.470	-2.100	0.200																			1580019781.0	7.55	13.98
26/01/2020 06:23:02	26012020	260120	062302	54.270	12.684898	-57.282387	54.160	0.380	-0.700	0.060	54.220	-2.100	0.400																			1580019782.0	7.65	14.17
26/01/2020 06:23:03	26012020	260120	062303	54.060	12.684918	-57.282358	53.990	0.300	-0.510	0.340	54.050	-1.900	0.700																			1580019783.0	7.41	13.72
26/01/2020 06:23:04	26012020	260120	062304	54.070	12.684938	-57.282332	54.040	0.060	-0.200	0.310	54.100	-1.600	0.700																			1580019784.0	7.14	13.22
26/01/2020 06:23:05	26012020	260120	062305	54.220	12.684958	-57.282305	54.180	-0.140	0.070	0.200	54.230	-1.300	0.600																			1580019785.0	7.14	13.22
26/01/2020 06:23:06	26012020	260120	062306	54.260	12.684978	-57.282277	54.200	-0.270	0.340	0.240	54.250	-1.100	0.600																			1580019786.0	7.15	13.24
26/01/2020 06:23:07	26012020	260120	062307	54.180	12.684997	-57.282250	54.110	-0.340	0.410	0.270	54.160	-1.000	0.600																			1580019787.0	7.09	13.13
26/01/2020 06:23:08	26012020	260120	062308	54.090	12.685017	-57.282222	54.000	-0.280	0.090	0.190	54.070	-1.200	0.600																			1580019788.0	7.28	13.48
26/01/2020 06:23:09	26012020	260120	062309	54.010	12.685038	-57.282193	53.920	-0.060	-0.450	-0.050	54.000	-1.800	0.300																			1580019789.0	7.63	14.13
26/01/2020 06:23:10	26012020	260120	062310	54.000	12.685062	-57.282165	53.930	0.260	-0.830	-0.470	54.000	-2.200	-0.100																			1580019790.0	7.79	14.43
26/01/2020 06:23:11	26012020	260120	062311	54.000	12.685085	-57.282138	53.940	0.440	-0.710	-0.820	54.000	-2.100	-0.400																			1580019791.0	7.60	14.08
26/01/2020 06:23:12	26012020	260120	062312	53.910	12.685107	-57.282113	53.800	0.340	-0.130	-0.880	53.870	-1.600	-0.500																			1580019792.0	7.06	13.08
26/01/2020 06:23:13	26012020	260120	062313	53.690	12.685127	-57.282088	53.570	0.060	0.380	-0.680	53.640	-1.000	-0.300																			1580019793.0	6.68	12.37
26/01/2020 06:23:14	26012020	260120	062314	53.530	12.685147	-57.282063	53.450	-0.090	0.260	-0.500	53.530	-1.100	-0.200																			1580019794.0	6.95	12.87
26/01/2020 06:23:15	26012020	260120	062315	53.620	12.685168	-57.282033	53.590	-0.060	-0.360	-0.350	53.650	-1.700	-0.000																			1580019795.0	7.74	14.33
26/01/2020 06:23:16	26012020	260120	062316	53.730	12.685190	-57.282002	53.680	-0.120	-0.630	-0.080	53.730	-2.000	0.200																			1580019796.0	8.00	14.82
26/01/2020 06:23:17	26012020	260120	062317	53.700	12.685208	-57.281973	53.640	-0.410	-0.230	0.270	53.690	-1.700	0.600																			1580019797.0	7.35	13.61
26/01/2020 06:23:18	26012020	260120	062318	53.670	12.685225	-57.281947	53.650	-0.670	0.340	0.620	53.670	-1.100	0.900																			1580019798.0	6.63	12.28
26/01/2020 06:23:19	26012020	260120	062319	53.670	12.685240	-57.281918	53.640	-0.560	0.380	0.820	53.660	-1.000	1.200																			1580019799.0	6.72	12.45
26/01/2020 06:23:20	26012020	260120	062320	53.540	12.685260	-57.281890	53.460	-0.020	-0.180	0.700	53.490	-1.500	1.100																			1580019800.0	7.41	13.72
26/01/2020 06:23:21	26012020	260120	062321	53.300	12.685285	-57.281862	53.210	0.630	-0.770	0.300	53.260	-2.100	0.700																			1580019801.0	7.93	14.69
26/01/2020 06:23:22	26012020	260120	062322	53.160	12.685310	-57.281835	53.110	1.020	-0.890	-0.220	53.170	-2.300	0.200																			1580019802.0	7.81	14.46
26/01/2020 06:23:23	26012020	260120	062323	53.260	12.685335	-57.281812	53.220	0.990	-0.590	-0.760	53.290	-1.700	-0.600																			1580019803.0	7.42	13.74
26/01/2020 06:23:24	26012020	260120	062324	53.380	12.685358	-57.281788	53.300	0.500	-0.010	-1.120	53.390	-1.500	-0.800																			1580019804.0	7.16	13.26
26/01/2020 06:23:25	26012020	260120	062325	53.360	12.685382	-57.281765	53.250	-0.320	0.630	-1.080	53.340	-0.800	-0.700																			1580019805.0	6.86	12.70
26/01/2020 06:23:26	26012020	260120	062326	53.270	12.685400	-57.281740	53.190	-1.080	0.930	-0.580	53.270	-0.400	-0.300																			1580019806.0	6.65	12.32
26/01/2020 06:23:27	26012020	260120	062327	53.340	12.685417	-57.281710	53.300	-1.350	0.480	0.010	53.370	-0.800	0.300																			1580019807.0	7.02	13.00
26/01/2020 06:23:28	26012020	260120	062328	53.500	12.685433	-57.281678	53.470	-0.950	-0.510	0.470	53.530	-1.800	0.800																			1580019808.0	7.80	14.45
26/01/2020 06:23:29	26012020	260120	062329	53.580	12.685452	-57.281645	53.520	-0.140	-1.260	0.890	53.560	-2.600	1.200																			1580019809.0	8.17	15.13
26/01/2020 06:23:30	26012020	260120	062330	53.430	12.685470	-57.281612	53.360	0.560	-1.240	1.190	53.380	-2.700	1.500																			1580019810.0	7.83	14.50
26/01/2020 06:23:31	26012020	260120	062331	53.160	12.685488	-57.281585	53.090	0.830	-0.520	0.970	53.100	-2.000	1.400																			1580019811.0	7.04	13.04
26/01/2020 06:23:32	26012020	260120	062332	52.980	12.685510	-57.281563	52.940	0.730	0.270	0.150	52.970	-1.200	0.600																			1580019812.0	6.60	12.22
26/01/2020 06:23:33	26012020	260120	062333	53.000	12.685537	-57.281543	52.960	0.510	0.580	-0.940	53.020	-0.800	-0.500																			1580019813.0	6.96	12.89
26/01/2020 06:23:34	26012020	260120	062334	53.090	12.685565	-57.281522	53.020	0.350	0.340	-1.840	53.100	-1.000	-1.400																			1580019814.0	7.57	14.02
26/01/2020 06:23:35	26012020	260120	062335	53.100	12.685593	-57.281498	53.010	0.210	-0.140	-2.200	53.090	-1.500	-1.800																			1580019815.0	7.89	14.61
26/01/2020 06:23:36	26012020	260120	062336	53.070	12.685617	-57.281470	53.000	-0.040	-0.440	-1.860	53.070	-1.800	-1.600																			1580019816.0	7.77	14.39
26/01/2020 06:23:37	26012020	260120	062337	53.120	12.685635	-57.281442	53.110	-0.450	-0.380	-0.950	53.150	-1.600	0.000																			1580019817.0	7.40	13.70
26/01/2020 06:23:38	26012020	260120	062338	53.300	12.685648	-57.281410	53.310	-0.890	-0.090	0.180	53.330	-1.500	0.400																			1580019818.0	7.16	13.26
26/01/2020 06:23:39	26012020	260120	062339	53.420	12.685660	-57.281378	53.430	-1.110	0.200	1.180	53.430	-1.200	1.400																			1580019819.0	7.03	13.02
26/01/2020 06:23:40	26012020	260120	062340	53.390	12.685673	-57.281348	53.400	-0.860	0.170	1.900	53.380	-1.200	2.200																			1580019820.0	7.01	12.98
26/01/2020 06:23:41	26012020	260120	062341	53.270	12.685690	-57.281318	53.280	-0.140	-0.270	2.140	53.230	-1.600	2.500																			1580019821.0	7.33	13.58
26/01/2020 06:23:42	26012020	260120	062342	53.100	12.685713	-57.281290	53.110	0.730	-0.840	1.770	53.070	-2.200	2.200																			1580019822.0	7.75	14.35
26/01/2020 06:23:43	26012020	260120	062343	52.980	12.685738	-57.281263	52.960	1.290	-0.980	0.870	52.970	-2.400	1.300																			1580019823.0	7.91	14.65
26/01/2020 06:23:44	26012020	260120	062344	52.990	12.685767	-57.281240	52.960	1.200	-0.420	-0.270	53.000	-1.900	0.200																			1580019824.0	7.52	13.93
26/01/2020 06:23:45	26012020	260120	062345	53.120	12.685792	-57.281222	53.110	0.570	0.350	-1.310	53.170	-1.100	-0.900																			1580019825.0	6.93	12.83
26/01/2020 06:23:46	26012020	260120	062346	53.330	12.685817	-57.281202	53.300	-0.160	0.650	-2.010	53.370	-0.700	-1.600																			1580019826.0	6.83	12.65
26/01/2020 06:23:47	26012020	260120	062347	53.470	12.685840	-57.281177	53.420	-0.620	0.350	-2.090	53.480	-1.000	-1.800																			1580019827.0	7.22	13.37
26/01/2020 06:23:48	26012020	260120	062348	53.500	12.685862	-57.281147	53.430	-0.740	-0.180	-1.560	53.500	-1.500	-1.300																			1580019828.0	7.62	14.11
26/01/2020 06:23:49	26012020	260120	062349	53.500	12.685878	-57.281115	53.450	-0.620	-0.540	-0.680	53.500	-2.000	0.200																			1580019829.0	7.76	14.37
26/01/2020 06:23:50	26012020	260120	062350	53.490	12.685892	-57.281082	53.440	-0.420	-0.530	0.310	53.480	-1.900	0.600																			1580019830.0	7.57	14.02
26/01/2020 06:23:51	26012020	260120	062351	53.390	12.685907	-57.281052	53.350	-0.210	-0.260	1.070	53.360	-1.700	1.400																			1580019831.0	7.17	13.28
26/01/2020 06:23:52	26012020	260120	062352	53.190	12.685923	-57.281023	53.140	0.040	-0.060	1.300	53.150	-1.400	1.700																			1580019832.0	6.91	12.80
26/01/2020 06:23:53	26012020	260120	062353	53.050	12.685943	-57.280998	53.030	0.380	-0.150	0.960	53.050	-1.500	1.400																			1580019833.0	7.10	13.15
26/01/2020 06:23:54	26012020	260120	062354	53.150	12.685970	-57.280973	53.150	0.750	-0.450	0.250	53.190	-1.800	0.700																			1580019834.0	7.58	14.04
26/01/2020 06:23:55	26012020	260120	062355	53.320	12.685997	-57.280948	53.290	0.820	-0.460	-0.410	53.340	-1.900	-0.000																			1580019835.0	7.78	14.41
26/01/2020 06:23:56	26012020	260120	062356	53.340	12.686020	-57.280925	53.270	0.350	0.080	-0.720	53.330	-1.400	-0.400																			1580019836.0	7.22	13.37
26/01/2020 06:23:57	26012020	260120	062357	53.220	12.686040	-57.280900	53.140	-0.430	0.600	-0.700	53.190	-0.800	-0.400																			1580019837.0	6.54	12.11
26/01/2020 06:23:58	26012020	260120	062358	53.130	12.686058	-57.280875	53.070	-0.940	0.380	-0.600	53.130	-0.900	-0.300																			1580019838.0	6.73	12.46
26/01/2020 06:23:59	26012020	260120	062359	53.210	12.686078	-57.280845	53.190	-0.790	-0.420	-0.510	53.230	-1.700	-0.200																			1580019839.0	7.58	14.04
26/01/2020 06:24:00	26012020	260120	062400	53.310	12.686100	-57.280815	53.280	-0.190	-0.970	-0.330	53.310	-2.300	-0.000	1014.00	25.70	25.80	20.40	20.40	0.00	72.00	72.00	430.00	25.50	23.00	9.80	89.00	6.50	15	3185.00	27.40	27.40	1580019840.0	8.00	14.82
26/01/2020 06:24:01	26012020	260120	062401	53.290	12.686120	-57.280785	53.230	0.360	-0.750	-0.030	53.270	-2.200	0.300																			1580019841.0	7.56	14.00
26/01/2020 06:24:02	26012020	260120	062402	53.140	12.686137	-57.280758	53.070	0.540	-0.080	0.310	53.090	-1.500	0.600																			1580019842.0	6.80	12.59
26/01/2020 06:24:03	26012020	260120	062403	52.930	12.686155	-57.280732	52.880	0.430	0.320	0.460	52.900	-1.100	0.800																			1580019843.0	6.56	12.15
26/01/2020 06:24:04	26012020	260120	062404	52.800	12.686175	-57.280707	52.770	0.280	0.160	0.280	52.790	-1.200	0.700																			1580019844.0	7.05	13.06
26/01/2020 06:24:05	26012020	260120	062405	52.800	12.686200	-57.280680	52.770	0.150	-0.280	-0.140	52.810	-1.600	0.300																			1580019845.0	7.61	14.09
26/01/2020 06:24:06	26012020	260120	062406	52.910	12.686225	-57.280655	52.890	0.010	-0.550	-0.480	52.940	-1.900	-0.100																			1580019846.0	7.75	14.35
26/01/2020 06:24:07	26012020	260120	062407	53.040	12.686248	-57.280628	53.010	-0.170	-0.400	-0.520	53.050	-1.800	-0.200																			1580019847.0	7.42	13.74
26/01/2020 06:24:08	26012020	260120	062408	53.050	12.686268	-57.280602	53.010	-0.360	0.030	-0.260	53.050	-1.400	0.100																			1580019848.0	6.97	12.91
26/01/2020 06:24:09	26012020	260120	062409	53.030	12.686285	-57.280575	53.000	-0.430	0.310	0.110	53.030	-1.100	0.400																			1580019849.0	6.79	12.58
26/01/2020 06:24:10	26012020	260120	062410	53.050	12.686302	-57.280547	53.050	-0.300	0.150	0.390	53.060	-1.200	0.700																			1580019850.0	7.10	13.15
26/01/2020 06:24:11	26012020	260120	062411	53.090	12.686322	-57.280517	53.070	-0.070	-0.200	0.430	53.090	-1.600	0.800																			1580019851.0	7.50	13.89
26/01/2020 06:24:12	26012020	260120	062412	53.050	12.686343	-57.280488	53.020	0.090	-0.290	0.310	53.040	-1.700	0.700																			1580019852.0	7.45	13.80
26/01/2020 06:24:13	26012020	260120	062413	52.970	12.686365	-57.280463	52.950	0.170	-0.250	0.100	52.970	-1.600	0.500																			1580019853.0	7.10	13.15
26/01/2020 06:24:14	26012020	260120	062414	52.970	12.686387	-57.280438	52.960	0.280	-0.430	-0.200	52.980	-1.800	0.200																			1580019854.0	7.16	13.26
26/01/2020 06:24:15	26012020	260120	062415	53.020	12.686412	-57.280412	53.010	0.380	-0.660	-0.490	53.040	-2.000	-0.100																			1580019855.0	7.56	14.00
26/01/2020 06:24:16	26012020	260120	062416	53.080	12.686433	-57.280385	53.070	0.290	-0.500	-0.580	53.090	-1.900	-0.200																			1580019856.0	7.47	13.83
26/01/2020 06:24:17	26012020	260120	062417	53.050	12.686453	-57.280360	53.000	0.020	0.020	-0.400	53.030	-1.400	-0.100																			1580019857.0	7.00	12.96
26/01/2020 06:24:18	26012020	260120	062418	52.910	12.686472	-57.280333	52.860	-0.230	0.410	-0.130	52.880	-1.000	0.200																			1580019858.0	6.76	12.52
26/01/2020 06:24:19	26012020	260120	062419	52.800	12.686492	-57.280307	52.790	-0.260	0.300	0.080	52.790	-1.100	0.400																			1580019859.0	7.07	13.09
26/01/2020 06:24:20	26012020	260120	062420	52.790	12.686512	-57.280277	52.780	-0.130	-0.120	0.160	52.800	-1.500	0.500																			1580019860.0	7.56	14.00
26/01/2020 06:24:21	26012020	260120	062421	52.870	12.686533	-57.280248	52.870	-0.040	-0.390	0.020	52.890	-1.800	0.400																			1580019861.0	7.64	14.15
26/01/2020 06:24:22	26012020	260120	062422	52.970	12.686555	-57.280222	52.940	-0.030	-0.280	-0.140	52.980	-1.700	0.200																			1580019862.0	7.28	13.48
26/01/2020 06:24:23	26012020	260120	062423	53.010	12.686577	-57.280197	52.970	-0.010	-0.140	-0.150	53.010	-1.500	0.200																			1580019863.0	6.95	12.87
26/01/2020 06:24:24	26012020	260120	062424	53.000	12.686598	-57.280172	52.970	0.050	-0.240	-0.080	53.000	-1.600	0.300																			1580019864.0	7.13	13.20
26/01/2020 06:24:25	26012020	260120	062425	53.000	12.686618	-57.280143	52.970	0.080	-0.400	-0.010	53.000	-1.800	0.300																			1580019865.0	7.42	13.74
26/01/2020 06:24:26	26012020	260120	062426	53.000	12.686640	-57.280115	52.960	0.010	-0.350	0.130	53.000	-1.700	0.500																			1580019866.0	7.39	13.69
26/01/2020 06:24:27	26012020	260120	062427	52.970	12.686658	-57.280088	52.920	-0.110	-0.090	0.300	52.950	-1.300	0.700																			1580019867.0	7.13	13.20
26/01/2020 06:24:28	26012020	260120	062428	52.870	12.686677	-57.280062	52.840	-0.180	0.110	0.370	52.860	-1.300	0.700																			1580019868.0	6.99	12.95
26/01/2020 06:24:29	26012020	260120	062429	52.820	12.686697	-57.280033	52.790	-0.080	0.010	0.190	52.820	-1.300	0.600																			1580019869.0	7.15	13.24
26/01/2020 06:24:30	26012020	260120	062430	52.880	12.686720	-57.280007	52.870	0.150	-0.260	-0.210	52.910	-1.600	0.200																			1580019870.0	7.48	13.85
26/01/2020 06:24:31	26012020	260120	062431	53.000	12.686745	-57.279982	52.990	0.330	-0.390	-0.640	53.030	-1.800	-0.300																			1580019871.0	7.59	14.06
26/01/2020 06:24:32	26012020	260120	062432	53.090	12.686768	-57.279957	53.060	0.340	-0.240	-0.930	53.100	-1.700	-0.600																			1580019872.0	7.35	13.61
26/01/2020 06:24:33	26012020	260120	062433	53.080	12.686790	-57.279932	53.030	0.150	-0.000	-0.970	53.060	-1.400	-0.600																			1580019873.0	7.08	13.11
26/01/2020 06:24:34	26012020	260120	062434	53.020	12.686812	-57.279905	52.980	-0.150	0.080	-0.720	53.010	-1.300	-0.400																			1580019874.0	7.02	13.00
26/01/2020 06:24:35	26012020	260120	062435	53.030	12.686832	-57.279878	53.030	-0.360	-0.070	-0.300	53.050	-1.400	0.000																			1580019875.0	7.18	13.30
26/01/2020 06:24:36	26012020	260120	062436	53.120	12.686850	-57.279848	53.120	-0.360	-0.360	0.060	53.140	-1.700	0.400																			1580019876.0	7.44	13.78
26/01/2020 06:24:37	26012020	260120	062437	53.160	12.686870	-57.279818	53.150	-0.200	-0.510	0.370	53.160	-1.900	0.700																			1580019877.0	7.54	13.96
26/01/2020 06:24:38	26012020	260120	062438	53.140	12.686888	-57.279790	53.130	-0.020	-0.410	0.660	53.120	-1.800	1.000																			1580019878.0	7.40	13.70
26/01/2020 06:24:39	26012020	260120	062439	53.090	12.686907	-57.279762	53.090	0.070	-0.160	0.770	53.080	-1.600	1.100																			1580019879.0	7.19	13.32
26/01/2020 06:24:40	26012020	260120	062440	53.060	12.686927	-57.279735	53.050	0.060	0.100	0.550	53.060	-1.300	0.900																			1580019880.0	7.09	13.13
26/01/2020 06:24:41	26012020	260120	062441	53.070	12.686948	-57.279710	53.070	0.020	0.210	0.000	53.080	-1.200	-0.000																			1580019881.0	7.07	13.09
26/01/2020 06:24:42	26012020	260120	062442	53.160	12.686973	-57.279687	53.160	0.080	0.010	-0.710	53.180	-1.300	-0.300																			1580019882.0	7.27	13.46
26/01/2020 06:24:43	26012020	260120	062443	53.260	12.686998	-57.279662	53.230	0.230	-0.370	-1.250	53.270	-1.700	-0.900																			1580019883.0	7.65	14.17
26/01/2020 06:24:44	26012020	260120	062444	53.280	12.687023	-57.279635	53.230	0.260	-0.490	-1.390	53.280	-1.900	-1.000																			1580019884.0	7.66	14.19
26/01/2020 06:24:45	26012020	260120	062445	53.210	12.687045	-57.279608	53.150	0.050	-0.280	-1.200	53.190	-1.700	-0.900																			1580019885.0	7.25	13.43
26/01/2020 06:24:46	26012020	260120	062446	53.080	12.687063	-57.279582	53.020	-0.230	-0.020	-0.790	53.050	-1.400	-0.500																			1580019886.0	6.96	12.89
26/01/2020 06:24:47	26012020	260120	062447	53.000	12.687082	-57.279553	52.980	-0.340	0.020	-0.350	53.000	-1.400	-0.000																			1580019887.0	7.05	13.06
26/01/2020 06:24:48	26012020	260120	062448	53.090	12.687102	-57.279525	53.110	-0.210	-0.150	-0.030	53.120	-1.500	0.300																			1580019888.0	7.32	13.56
26/01/2020 06:24:49	26012020	260120	062449	53.250	12.687120	-57.279495	53.240	-0.010	-0.320	0.220	53.260	-1.700	0.500																			1580019889.0	7.50	13.89
26/01/2020 06:24:50	26012020	260120	062450	53.260	12.687142	-57.279467	53.220	0.100	-0.300	0.470	53.240	-1.700	0.800																			1580019890.0	7.40	13.70
26/01/2020 06:24:51	26012020	260120	062451	53.170	12.687162	-57.279440	53.150	0.130	-0.230	0.600	53.160	-1.600	0.900																			1580019891.0	7.26	13.45
26/01/2020 06:24:52	26012020	260120	062452	53.130	12.687182	-57.279412	53.120	0.110	-0.170	0.540	53.130	-1.600	0.900																			1580019892.0	7.28	13.48
26/01/2020 06:24:53	26012020	260120	062453	53.120	12.687203	-57.279385	53.110	0.020	-0.070	0.370	53.120	-1.500	0.700																			1580019893.0	7.27	13.46
26/01/2020 06:24:54	26012020	260120	062454	53.150	12.687225	-57.279360	53.130	-0.080	0.000	0.000	53.160	-1.400	0.400																			1580019894.0	7.18	13.30
26/01/2020 06:24:55	26012020	260120	062455	53.170	12.687247	-57.279335	53.130	-0.050	-0.100	-0.440	53.170	-1.500	-0.000																			1580019895.0	7.27	13.46
26/01/2020 06:24:56	26012020	260120	062456	53.120	12.687270	-57.279308	53.060	0.090	-0.290	-0.770	53.100	-1.700	-0.400																			1580019896.0	7.50	13.89
26/01/2020 06:24:57	26012020	260120	062457	53.040	12.687295	-57.279282	52.980	0.120	-0.330	-0.960	53.040	-1.700	-0.600																			1580019897.0	7.54	13.96
26/01/2020 06:24:58	26012020	260120	062458	53.050	12.687317	-57.279255	53.030	-0.040	-0.130	-0.970	53.070	-1.500	-0.600																			1580019898.0	7.27	13.46
26/01/2020 06:24:59	26012020	260120	062459	53.140	12.687337	-57.279230	53.130	-0.250	0.100	-0.820	53.160	-1.300	-0.500																			1580019899.0	7.02	13.00
26/01/2020 06:25:00	26012020	260120	062500	53.200	12.687355	-57.279203	53.180	-0.320	0.160	-0.540	53.210	-1.200	-0.200	1014.00	25.70	25.70	20.30	20.30	-1.00	72.00	72.00	429.00	25.50	23.00	10.10	89.00	6.90	15	3181.00	27.40	27.40	1580019900.0	7.01	12.98
26/01/2020 06:25:01	26012020	260120	062501	53.190	12.687375	-57.279175	53.140	-0.140	-0.120	-0.180	53.180	-1.500	0.100																			1580019901.0	7.23	13.39
26/01/2020 06:25:02	26012020	260120	062502	53.110	12.687395	-57.279143	53.070	0.200	-0.630	0.200	53.090	-2.000	0.500																			1580019902.0	7.68	14.22
26/01/2020 06:25:03	26012020	260120	062503	53.040	12.687417	-57.279115	53.020	0.430	-0.830	0.370	53.030	-2.200	0.700																			1580019903.0	7.80	14.45
26/01/2020 06:25:04	26012020	260120	062504	53.050	12.687438	-57.279088	53.070	0.450	-0.530	0.350	53.070	-1.900	0.700																			1580019904.0	7.38	13.67
26/01/2020 06:25:05	26012020	260120	062505	53.150	12.687458	-57.279062	53.160	0.290	0.010	0.360	53.160	-1.400	0.700																			1580019905.0	6.99	12.95
26/01/2020 06:25:06	26012020	260120	062506	53.180	12.687478	-57.279037	53.170	-0.050	0.420	0.410	53.170	-1.000	0.800																			1580019906.0	6.91	12.80
26/01/2020 06:25:07	26012020	260120	062507	53.150	12.687498	-57.279010	53.150	-0.440	0.440	0.280	53.150	-0.900	0.700																			1580019907.0	7.06	13.08
26/01/2020 06:25:08	26012020	260120	062508	53.200	12.687522	-57.278983	53.200	-0.580	0.080	-0.080	53.220	-1.300	0.300																			1580019908.0	7.41	13.72
26/01/2020 06:25:09	26012020	260120	062509	53.320	12.687543	-57.278955	53.320	-0.380	-0.250	-0.450	53.340	-1.600	-0.100																			1580019909.0	7.64	14.15
26/01/2020 06:25:10	26012020	260120	062510	53.380	12.687567	-57.278928	53.360	-0.070	-0.320	-0.770	53.390	-1.700	-0.400																			1580019910.0	7.39	13.69
26/01/2020 06:25:11	26012020	260120	062511	53.420	12.687588	-57.278903	53.390	0.200	-0.400	-1.050	53.420	-1.800	-0.700																			1580019911.0	7.17	13.28
26/01/2020 06:25:12	26012020	260120	062512	53.430	12.687610	-57.278877	53.380	0.430	-0.600	-1.120	53.420	-2.000	-0.800																			1580019912.0	7.39	13.69
26/01/2020 06:25:13	26012020	260120	062513	53.340	12.687633	-57.278850	53.280	0.450	-0.550	-0.910	53.310	-2.000	-0.600																			1580019913.0	7.55	13.98
26/01/2020 06:25:14	26012020	260120	062514	53.210	12.687655	-57.278823	53.160	0.150	-0.150	-0.620	53.200	-1.600	-0.300																			1580019914.0	7.20	13.33
26/01/2020 06:25:15	26012020	260120	062515	53.250	12.687673	-57.278797	53.260	-0.270	0.150	-0.350	53.280	-1.200	-0.000																			1580019915.0	6.91	12.80
26/01/2020 06:25:16	26012020	260120	062516	53.540	12.687693	-57.278770	53.590	-0.410	0.060	-0.120	53.610	-1.300	0.200																			1580019916.0	7.19	13.32
26/01/2020 06:25:17	26012020	260120	062517	53.830	12.687713	-57.278740	53.850	-0.220	-0.130	0.150	53.860	-1.500	0.500																			1580019917.0	7.58	14.04
26/01/2020 06:25:18	26012020	260120	062518	53.810	12.687732	-57.278710	53.790	0.030	-0.060	0.540	53.780	-1.500	0.800																			1580019918.0	7.51	13.91
26/01/2020 06:25:19	26012020	260120	062519	53.610	12.687750	-57.278682	53.610	0.120	0.080	0.770	53.590	-1.300	1.100																			1580019919.0	7.14	13.22
26/01/2020 06:25:20	26012020	260120	062520	53.540	12.687770	-57.278655	53.570	0.130	-0.090	0.510	53.550	-1.400	0.900																			1580019920.0	7.11	13.17
26/01/2020 06:25:21	26012020	260120	062521	53.640	12.687795	-57.278628	53.660	0.280	-0.530	-0.110	53.660	-1.900	0.300																			1580019921.0	7.59	14.06
26/01/2020 06:25:22	26012020	260120	062522	53.740	12.687820	-57.278603	53.730	0.440	-0.740	-0.700	53.750	-2.100	-0.300																			1580019922.0	7.87	14.58
26/01/2020 06:25:23	26012020	260120	062523	53.760	12.687845	-57.278578	53.710	0.300	-0.390	-1.040	53.760	-1.800	-0.700																			1580019923.0	7.51	13.91
26/01/2020 06:25:24	26012020	260120	062524	53.740	12.687867	-57.278553	53.690	-0.150	0.240	-1.070	53.740	-1.200	-0.700																			1580019924.0	6.88	12.74
26/01/2020 06:25:25	26012020	260120	062525	53.760	12.687887	-57.278530	53.720	-0.580	0.610	-0.830	53.770	-0.800	-0.500																			1580019925.0	6.63	12.28
26/01/2020 06:25:26	26012020	260120	062526	53.880	12.687905	-57.278502	53.880	-0.620	0.350	-0.520	53.920	-1.000	-0.200																			1580019926.0	7.00	12.96
26/01/2020 06:25:27	26012020	260120	062527	54.070	12.687923	-57.278472	54.080	-0.320	-0.330	-0.300	54.110	-1.600	0.000																			1580019927.0	7.65	14.17
26/01/2020 06:25:28	26012020	260120	062528	54.210	12.687943	-57.278440	54.190	0.030	-0.880	-0.110	54.220	-2.200	0.200																			1580019928.0	7.92	14.67
26/01/2020 06:25:29	26012020	260120	062529	54.180	12.687963	-57.278410	54.130	0.260	-0.880	0.150	54.150	-2.300	0.500																			1580019929.0	7.63	14.13
26/01/2020 06:25:30	26012020	260120	062530	54.050	12.687983	-57.278383	53.990	0.350	-0.490	0.290	54.030	-1.900	0.600																			1580019930.0	7.12	13.19
26/01/2020 06:25:31	26012020	260120	062531	54.010	12.688005	-57.278357	53.980	0.390	-0.100	0.080	54.010	-1.300	0.200																			1580019931.0	7.00	12.96
26/01/2020 06:25:32	26012020	260120	062532	54.020	12.688027	-57.278332	53.960	0.380	0.140	-0.220	54.010	-1.300	0.200																			1580019932.0	7.21	13.35
26/01/2020 06:25:33	26012020	260120	062533	53.980	12.688050	-57.278307	53.920	0.270	0.250	-0.460	53.980	-1.100	-0.100																			1580019933.0	7.33	13.58
26/01/2020 06:25:34	26012020	260120	062534	54.030	12.688073	-57.278282	54.000	0.050	0.220	-0.710	54.060	-1.200	-0.300																			1580019934.0	7.36	13.63
26/01/2020 06:25:35	26012020	260120	062535	54.180	12.688095	-57.278255	54.160	-0.250	0.180	-0.850	54.210	-1.200	-0.500																			1580019935.0	7.32	13.56
26/01/2020 06:25:36	26012020	260120	062536	54.280	12.688115	-57.278228	54.260	-0.540	0.090	-0.780	54.290	-1.300	-0.500																			1580019936.0	7.18	13.30
26/01/2020 06:25:37	26012020	260120	062537	54.340	12.688135	-57.278200	54.320	-0.610	-0.200	-0.590	54.350	-1.500	-0.300																			1580019937.0	7.18	13.30
26/01/2020 06:25:38	26012020	260120	062538	54.390	12.688155	-57.278170	54.370	-0.340	-0.690	-0.350	54.400	-2.000	-0.000																			1580019938.0	7.48	13.85
26/01/2020 06:25:39	26012020	260120	062539	54.400	12.688175	-57.278140	54.370	0.130	-0.950	-0.070	54.380	-2.300	0.200																			1580019939.0	7.74	14.33
26/01/2020 06:25:40	26012020	260120	062540	54.310	12.688195	-57.278112	54.260	0.440	-0.690	0.110	54.290	-2.100	0.400																			1580019940.0	7.46	13.82
26/01/2020 06:25:41	26012020	260120	062541	54.230	12.688215	-57.278085	54.200	0.460	-0.060	0.140	54.230	-1.500	0.500																			1580019941.0	6.96	12.89
26/01/2020 06:25:42	26012020	260120	062542	54.230	12.688233	-57.278060	54.220	0.290	0.410	0.010	54.250	-1.000	0.400																			1580019942.0	6.74	12.48
26/01/2020 06:25:43	26012020	260120	062543	54.300	12.688255	-57.278035	54.270	0.090	0.350	-0.290	54.310	-1.000	0.100																			1580019943.0	7.07	13.09
26/01/2020 06:25:44	26012020	260120	062544	54.370	12.688278	-57.278008	54.330	-0.080	-0.060	-0.580	54.380	-1.400	-0.200																			1580019944.0	7.57	14.02
26/01/2020 06:25:45	26012020	260120	062545	54.450	12.688302	-57.277980	54.420	-0.210	-0.390	-0.740	54.470	-1.700	-0.400																			1580019945.0	7.74	14.33
26/01/2020 06:25:46	26012020	260120	062546	54.510	12.688323	-57.277952	54.480	-0.240	-0.390	-0.750	54.520	-1.800	-0.400																			1580019946.0	7.47	13.83
26/01/2020 06:25:47	26012020	260120	062547	54.530	12.688343	-57.277925	54.480	-0.140	-0.210	-0.570	54.520	-1.600	-0.200																			1580019947.0	7.15	13.24
26/01/2020 06:25:48	26012020	260120	062548	54.470	12.688362	-57.277897	54.420	0.030	-0.120	-0.250	54.450	-1.500	0.100																			1580019948.0	7.12	13.19
26/01/2020 06:25:49	26012020	260120	062549	54.390	12.688380	-57.277868	54.360	0.170	-0.190	-0.080	54.390	-1.600	0.300																			1580019949.0	7.29	13.50
26/01/2020 06:25:50	26012020	260120	062550	54.420	12.688402	-57.277840	54.410	0.220	-0.230	-0.070	54.440	-1.600	0.300																			1580019950.0	7.43	13.76
26/01/2020 06:25:51	26012020	260120	062551	54.550	12.688422	-57.277813	54.550	0.130	-0.120	-0.150	54.580	-1.500	0.200																			1580019951.0	7.30	13.52
26/01/2020 06:25:52	26012020	260120	062552	54.660	12.688443	-57.277787	54.640	-0.030	-0.000	-0.270	54.670	-1.400	0.100																			1580019952.0	7.12	13.19
26/01/2020 06:25:53	26012020	260120	062553	54.680	12.688465	-57.277762	54.640	-0.130	-0.030	-0.300	54.670	-1.400	0.000																			1580019953.0	7.16	13.26
26/01/2020 06:25:54	26012020	260120	062554	54.650	12.688485	-57.277733	54.610	-0.060	-0.240	-0.190	54.660	-1.600	0.100																			1580019954.0	7.35	13.61
26/01/2020 06:25:55	26012020	260120	062555	54.700	12.688507	-57.277705	54.660	0.060	-0.500	-0.110	54.710	-1.900	0.200																			1580019955.0	7.58	14.04
26/01/2020 06:25:56	26012020	260120	062556	54.780	12.688527	-57.277675	54.750	0.100	-0.570	-0.170	54.790	-2.000	0.200																			1580019956.0	7.59	14.06
26/01/2020 06:25:57	26012020	260120	062557	54.810	12.688547	-57.277647	54.770	0.010	-0.300	-0.200	54.810	-1.700	0.100																			1580019957.0	7.37	13.65
26/01/2020 06:25:58	26012020	260120	062558	54.790	12.688565	-57.277620	54.740	-0.160	0.190	-0.140	54.780	-1.200	0.200																			1580019958.0	6.99	12.95
26/01/2020 06:25:59	26012020	260120	062559	54.770	12.688583	-57.277593	54.730	-0.250	0.460	-0.120	54.770	-0.900	0.200																			1580019959.0	6.83	12.65
26/01/2020 06:26:00	26012020	260120	062600	54.710	12.688603	-57.277567	54.660	-0.180	0.290	-0.240	54.700	-1.100	0.100	1014.00	25.60	25.70	20.10	20.10	0.00	71.00	71.00	428.00	25.50	25.00	10.30	92.00	7.00	15	3297.00	27.40	27.40	1580019960.0	7.11	13.17
26/01/2020 06:26:01	26012020	260120	062601	54.710	12.688627	-57.277540	54.680	0.050	-0.210	-0.550	54.730	-1.500	-0.200																			1580019961.0	7.49	13.87
26/01/2020 06:26:02	26012020	260120	062602	54.850	12.688650	-57.277512	54.830	0.360	-0.810	-0.910	54.880	-2.100	-0.500																			1580019962.0	7.82	14.48
26/01/2020 06:26:03	26012020	260120	062603	54.950	12.688675	-57.277483	54.900	0.550	-1.000	-1.100	54.950	-2.400	-0.700																			1580019963.0	7.91	14.65
26/01/2020 06:26:04	26012020	260120	062604	54.900	12.688697	-57.277457	54.830	0.400	-0.490	-0.910	54.870	-1.900	-0.600																			1580019964.0	7.41	13.72
26/01/2020 06:26:05	26012020	260120	062605	54.730	12.688715	-57.277432	54.670	-0.020	0.340	-0.380	54.700	-1.100	-0.100																			1580019965.0	6.67	12.35
26/01/2020 06:26:06	26012020	260120	062606	54.620	12.688732	-57.277405	54.610	-0.430	0.740	0.130	54.620	-0.600	0.400																			1580019966.0	6.53	12.09
26/01/2020 06:26:07	26012020	260120	062607	54.730	12.688748	-57.277377	54.750	-0.530	0.360	0.410	54.770	-1.500	0.800																			1580019967.0	7.10	13.15
26/01/2020 06:26:08	26012020	260120	062608	54.900	12.688767	-57.277345	54.900	-0.350	-0.450	0.550	54.920	-1.800	0.900																			1580019968.0	7.84	14.52
26/01/2020 06:26:09	26012020	260120	062609	54.920	12.688787	-57.277312	54.880	-0.120	-0.980	0.660	54.900	-2.300	1.000																			1580019969.0	8.09	14.98
26/01/2020 06:26:10	26012020	260120	062610	54.750	12.688807	-57.277282	54.700	0.000	-0.750	0.690	54.710	-2.200	1.000																			1580019970.0	7.61	14.09
26/01/2020 06:26:11	26012020	260120	062611	54.570	12.688825	-57.277255	54.530	0.050	-0.080	0.470	54.540	-1.500	0.900																			1580019971.0	6.85	12.69
26/01/2020 06:26:12	26012020	260120	062612	54.460	12.688845	-57.277232	54.410	0.150	0.350	-0.170	54.450	-1.000	0.300																			1580019972.0	6.68	12.37
26/01/2020 06:26:13	26012020	260120	062613	54.420	12.688870	-57.277208	54.350	0.350	0.240	-0.980	54.400	-1.100	-0.500																			1580019973.0	7.21	13.35
26/01/2020 06:26:14	26012020	260120	062614	54.360	12.688895	-57.277183	54.270	0.470	-0.050	-1.550	54.340	-1.400	-1.100																			1580019974.0	7.67	14.20
26/01/2020 06:26:15	26012020	260120	062615	54.270	12.688920	-57.277157	54.180	0.380	-0.220	-1.740	54.250	-1.600	-1.400																			1580019975.0	7.57	14.02
26/01/2020 06:26:16	26012020	260120	062616	54.190	12.688942	-57.277130	54.130	0.120	-0.350	-1.540	54.180	-1.700	-1.200																			1580019976.0	7.32	13.56
26/01/2020 06:26:17	26012020	260120	062617	54.200	12.688962	-57.277102	54.150	-0.160	-0.510	-1.020	54.200	-1.900	-0.700																			1580019977.0	7.37	13.65
26/01/2020 06:26:18	26012020	260120	062618	54.180	12.688980	-57.277072	54.140	-0.390	-0.510	-0.270	54.170	-1.900	0.000																			1580019978.0	7.46	13.82
26/01/2020 06:26:19	26012020	260120	062619	54.100	12.688997	-57.277042	54.080	-0.500	-0.260	0.580	54.090	-1.700	0.800																			1580019979.0	7.34	13.59
26/01/2020 06:26:20	26012020	260120	062620	54.060	12.689012	-57.277012	54.080	-0.420	0.050	1.350	54.060	-1.400	1.600																			1580019980.0	7.16	13.26
26/01/2020 06:26:21	26012020	260120	062621	54.110	12.689027	-57.276980	54.130	-0.170	0.160	1.690	54.120	-1.200	2.000																			1580019981.0	7.20	13.33
26/01/2020 06:26:22	26012020	260120	062622	54.150	12.689045	-57.276952	54.140	0.110	0.090	1.530	54.150	-1.300	1.900																			1580019982.0	7.31	13.54
26/01/2020 06:26:23	26012020	260120	062623	54.050	12.689065	-57.276923	54.000	0.320	-0.090	1.010	54.010	-1.400	1.400																			1580019983.0	7.37	13.65
26/01/2020 06:26:24	26012020	260120	062624	53.850	12.689090	-57.276898	53.800	0.460	-0.370	0.180	53.820	-1.700	0.600																			1580019984.0	7.53	13.95
26/01/2020 06:26:25	26012020	260120	062625	53.760	12.689117	-57.276873	53.710	0.540	-0.640	-0.820	53.760	-2.000	-0.400																			1580019985.0	7.82	14.48
26/01/2020 06:26:26	26012020	260120	062626	53.770	12.689145	-57.276850	53.710	0.460	-0.550	-1.590	53.780	-2.000	-1.200																			1580019986.0	7.80	14.45
26/01/2020 06:26:27	26012020	260120	062627	53.810	12.689168	-57.276827	53.750	0.130	-0.030	-1.840	53.810	-1.500	-1.500																			1580019987.0	7.24	13.41
26/01/2020 06:26:28	26012020	260120	062628	53.820	12.689188	-57.276802	53.760	-0.340	0.470	-1.590	53.820	-1.000	-1.300																			1580019988.0	6.73	12.46
26/01/2020 06:26:29	26012020	260120	062629	53.830	12.689205	-57.276773	53.780	-0.700	0.470	-0.990	53.830	-0.900	-0.700																			1580019989.0	6.86	12.70
26/01/2020 06:26:30	26012020	260120	062630	53.850	12.689222	-57.276742	53.810	-0.720	-0.070	-0.170	53.850	-1.400	0.100																			1580019990.0	7.49	13.87
26/01/2020 06:26:31	26012020	260120	062631	53.830	12.689238	-57.276708	53.790	-0.400	-0.680	0.530	53.820	-2.000	0.800																			1580019991.0	7.96	14.74
26/01/2020 06:26:32	26012020	260120	062632	53.730	12.689257	-57.276677	53.700	0.000	-0.870	1.020	53.710	-2.300	1.300																			1580019992.0	7.82	14.48
26/01/2020 06:26:33	26012020	260120	062633	53.620	12.689275	-57.276648	53.610	0.330	-0.570	1.250	53.600	-2.000	1.600																			1580019993.0	7.30	13.52
26/01/2020 06:26:34	26012020	260120	062634	53.590	12.689295	-57.276622	53.580	0.520	-0.140	1.120	53.590	-1.600	1.500																			1580019994.0	6.97	12.91
26/01/2020 06:26:35	26012020	260120	062635	53.560	12.689317	-57.276597	53.520	0.560	0.130	0.680	53.550	-1.300	1.100																			1580019995.0	7.06	13.08
26/01/2020 06:26:36	26012020	260120	062636	53.470	12.689340	-57.276572	53.420	0.360	0.230	0.040	53.450	-1.200	0.500																			1580019996.0	7.28	13.48
26/01/2020 06:26:37	26012020	260120	062637	53.440	12.689365	-57.276547	53.390	0.010	0.160	-0.650	53.440	-1.200	-0.200																			1580019997.0	7.38	13.67
26/01/2020 06:26:38	26012020	260120	062638	53.510	12.689390	-57.276523	53.480	-0.290	-0.070	-1.230	53.540	-1.400	-0.800																			1580019998.0	7.47	13.83
26/01/2020 06:26:39	26012020	260120	062639	53.600	12.689413	-57.276497	53.540	-0.400	-0.330	-1.470	53.610	-1.700	-1.100																			1580019999.0	7.55	13.98
26/01/2020 06:26:40	26012020	260120	062640	53.540	12.689435	-57.276468	53.450	-0.330	-0.410	-1.160	53.500	-1.800	-0.900																			1580020000.0	7.46	13.82
26/01/2020 06:26:41	26012020	260120	062641	53.330	12.689452	-57.276438	53.260	-0.170	-0.330	-0.520	53.290	-1.700	-0.200																			1580020001.0	7.30	13.52
26/01/2020 06:26:42	26012020	260120	062642	53.150	12.689468	-57.276408	53.110	-0.050	-0.280	0.060	53.120	-1.700	0.400																			1580020002.0	7.27	13.46
26/01/2020 06:26:43	26012020	260120	062643	53.120	12.689487	-57.276378	53.130	-0.000	-0.330	0.360	53.140	-1.700	0.700																			1580020003.0	7.37	13.65
26/01/2020 06:26:44	26012020	260120	062644	53.250	12.689507	-57.276350	53.270	-0.010	-0.240	0.390	53.280	-1.600	0.700																			1580020004.0	7.44	13.78
26/01/2020 06:26:45	26012020	260120	062645	53.310	12.689528	-57.276323	53.290	-0.050	0.130	0.390	53.300	-1.300	0.700																			1580020005.0	7.18	13.30
26/01/2020 06:26:46	26012020	260120	062646	53.190	12.689548	-57.276298	53.140	-0.060	0.460	0.430	53.150	-0.900	0.800																			1580020006.0	6.86	12.70
26/01/2020 06:26:47	26012020	260120	062647	53.000	12.689568	-57.276272	52.970	-0.010	0.240	0.380	52.980	-1.100	0.700																			1580020007.0	7.02	13.00
26/01/2020 06:26:48	26012020	260120	062648	52.980	12.689590	-57.276245	52.980	0.180	-0.540	0.060	53.000	-1.800	0.500																			1580020008.0	7.64	14.15
26/01/2020 06:26:49	26012020	260120	062649	53.150	12.689617	-57.276215	53.140	0.440	-1.170	-0.390	53.170	-2.500	0.000																			1580020009.0	8.17	15.13
26/01/2020 06:26:50	26012020	260120	062650	53.180	12.689640	-57.276188	53.120	0.540	-0.900	-0.590	53.150	-2.400	-0.200																			1580020010.0	7.81	14.46
26/01/2020 06:26:51	26012020	260120	062651	52.970	12.689662	-57.276163	52.880	0.330	-0.050	-0.590	52.920	-1.500	-0.200																			1580020011.0	6.89	12.76
26/01/2020 06:26:52	26012020	260120	062652	52.770	12.689682	-57.276140	52.710	-0.110	0.530	-0.500	52.750	-0.900	-0.200																			1580020012.0	6.58	12.19
26/01/2020 06:26:53	26012020	260120	062653	52.760	12.689702	-57.276113	52.750	-0.490	0.520	-0.340	52.770	-0.800	0.000																			1580020013.0	7.02	13.00
26/01/2020 06:26:54	26012020	260120	062654	52.890	12.689722	-57.276085	52.910	-0.660	0.220	-0.220	52.930	-1.100	0.100																			1580020014.0	7.47	13.83
26/01/2020 06:26:55	26012020	260120	062655	53.040	12.689742	-57.276055	53.050	-0.610	-0.140	-0.100	53.060	-1.500	0.200																			1580020015.0	7.54	13.96
26/01/2020 06:26:56	26012020	260120	062656	53.090	12.689762	-57.276025	53.060	-0.350	-0.500	0.100	53.080	-1.900	0.400																			1580020016.0	7.55	13.98
26/01/2020 06:26:57	26012020	260120	062657	52.970	12.689780	-57.275995	52.910	-0.010	-0.670	0.380	52.930	-2.000	0.800																			1580020017.0	7.56	14.00
26/01/2020 06:26:58	26012020	260120	062658	52.750	12.689800	-57.275967	52.710	0.280	-0.500	0.480	52.710	-1.900	0.800																			1580020018.0	7.33	13.58
26/01/2020 06:26:59	26012020	260120	062659	52.620	12.689820	-57.275942	52.610	0.470	-0.160	0.230	52.620	-1.600	0.600																			1580020019.0	7.04	13.04
26/01/2020 06:27:00	26012020	260120	062700	52.610	12.689843	-57.275918	52.570	0.520	-0.040	-0.260	52.600	-1.400	0.200	1014.00	25.70	25.70	20.00	20.10	-1.00	71.00	71.00	427.00	25.50	26.00	9.60	95.00	6.50	15	3251.00	27.40	27.40	1580020020.0	7.11	13.17
26/01/2020 06:27:01	26012020	260120	062701	52.610	12.689870	-57.275893	52.560	0.450	-0.190	-0.780	52.610	-1.600	-0.400																			1580020021.0	7.54	13.96
26/01/2020 06:27:02	26012020	260120	062702	52.640	12.689895	-57.275868	52.590	0.240	-0.240	-1.010	52.650	-1.600	-0.600																			1580020022.0	7.69	14.24
26/01/2020 06:27:03	26012020	260120	062703	52.670	12.689918	-57.275842	52.620	-0.040	-0.010	-0.830	52.670	-1.400	-0.500																			1580020023.0	7.38	13.67
26/01/2020 06:27:04	26012020	260120	062704	52.690	12.689937	-57.275815	52.670	-0.290	0.270	-0.410	52.700	-1.100	-0.100																			1580020024.0	7.00	12.96
26/01/2020 06:27:05	26012020	260120	062705	52.770	12.689953	-57.275787	52.770	-0.420	0.270	0.040	52.800	-1.100	0.300																			1580020025.0	7.04	13.04
26/01/2020 06:27:06	26012020	260120	062706	52.850	12.689972	-57.275757	52.830	-0.460	-0.090	0.410	52.850	-1.400	0.700																			1580020026.0	7.38	13.67
26/01/2020 06:27:07	26012020	260120	062707	52.830	12.689990	-57.275725	52.820	-0.420	-0.520	0.670	52.820	-1.900	1.000																			1580020027.0	7.63	14.13
26/01/2020 06:27:08	26012020	260120	062708	52.760	12.690012	-57.275697	52.750	-0.220	-0.760	0.760	52.730	-2.100	1.100																			1580020028.0	7.62	14.11
26/01/2020 06:27:09	26012020	260120	062709	52.650	12.690033	-57.275670	52.660	0.160	-0.680	0.660	52.640	-1.900	0.900																			1580020029.0	7.46	13.82
26/01/2020 06:27:10	26012020	260120	062710	52.590	12.690055	-57.275643	52.580	0.510	-0.330	0.390	52.570	-1.800	0.800																			1580020030.0	7.26	13.45
26/01/2020 06:27:11	26012020	260120	062711	52.500	12.690077	-57.275618	52.480	0.560	0.130	0.080	52.490	-1.100	0.200																			1580020031.0	7.06	13.08
26/01/2020 06:27:12	26012020	260120	062712	52.490	12.690098	-57.275593	52.470	0.290	0.360	-0.370	52.490	-1.000	0.000																			1580020032.0	7.00	12.96
26/01/2020 06:27:13	26012020	260120	062713	52.540	12.690123	-57.275568	52.510	-0.050	0.160	-0.980	52.550	-1.200	-0.600																			1580020033.0	7.32	13.56
26/01/2020 06:27:14	26012020	260120	062714	52.650	12.690150	-57.275545	52.630	-0.210	-0.200	-1.470	52.690	-1.600	-1.100																			1580020034.0	7.69	14.24
26/01/2020 06:27:15	26012020	260120	062715	52.880	12.690175	-57.275518	52.860	-0.150	-0.460	-1.610	52.920	-1.800	-1.300																			1580020035.0	7.72	14.30
26/01/2020 06:27:16	26012020	260120	062716	53.010	12.690197	-57.275490	52.970	-0.060	-0.390	-1.210	53.010	-1.800	-0.900																			1580020036.0	7.52	13.93
26/01/2020 06:27:17	26012020	260120	062717	52.930	12.690213	-57.275462	52.880	-0.160	0.010	-0.420	52.900	-1.400	-0.200																			1580020037.0	7.13	13.20
26/01/2020 06:27:18	26012020	260120	062718	52.770	12.690228	-57.275433	52.750	-0.370	0.310	0.460	52.750	-1.100	0.700																			1580020038.0	6.85	12.69
26/01/2020 06:27:19	26012020	260120	062719	52.700	12.690245	-57.275403	52.720	-0.370	0.050	1.040	52.710	-1.300	1.400																			1580020039.0	7.08	13.11
26/01/2020 06:27:20	26012020	260120	062720	52.800	12.690265	-57.275373	52.860	-0.020	-0.590	1.140	52.830	-1.900	1.500																			1580020040.0	7.69	14.24
26/01/2020 06:27:21	26012020	260120	062721	52.870	12.690287	-57.275343	52.880	0.380	-0.920	0.990	52.860	-2.300	1.400																			1580020041.0	7.96	14.74
26/01/2020 06:27:22	26012020	260120	062722	52.750	12.690310	-57.275317	52.730	0.500	-0.590	0.700	52.720	-2.000	1.100																			1580020042.0	7.49	13.87
26/01/2020 06:27:23	26012020	260120	062723	52.650	12.690332	-57.275293	52.650	0.310	0.020	0.240	52.650	-1.400	0.700																			1580020043.0	6.93	12.83
26/01/2020 06:27:24	26012020	260120	062724	52.730	12.690355	-57.275270	52.760	0.040	0.370	-0.400	52.770	-1.000	0.000																			1580020044.0	6.87	12.72
26/01/2020 06:27:25	26012020	260120	062725	52.940	12.690380	-57.275247	52.930	-0.110	0.240	-1.050	52.970	-1.100	-0.600																			1580020045.0	7.28	13.48
26/01/2020 06:27:26	26012020	260120	062726	53.010	12.690405	-57.275220	52.960	-0.100	-0.060	-1.330	53.000	-1.400	-1.000																			1580020046.0	7.64	14.15
26/01/2020 06:27:27	26012020	260120	062727	52.920	12.690427	-57.275193	52.860	-0.010	-0.280	-1.160	52.900	-1.700	-0.800																			1580020047.0	7.58	14.04
26/01/2020 06:27:28	26012020	260120	062728	52.840	12.690447	-57.275165	52.800	0.060	-0.440	-0.790	52.840	-1.800	-0.500																			1580020048.0	7.50	13.89
26/01/2020 06:27:29	26012020	260120	062729	52.870	12.690467	-57.275135	52.850	0.020	-0.410	-0.410	52.880	-1.800	-0.100																			1580020049.0	7.44	13.78
26/01/2020 06:27:30	26012020	260120	062730	52.920	12.690487	-57.275107	52.910	-0.180	-0.130	-0.010	52.930	-1.600	0.300																			1580020050.0	7.20	13.33
26/01/2020 06:27:31	26012020	260120	062731	52.940	12.690503	-57.275080	52.940	-0.400	0.170	0.420	52.950	-1.200	0.700																			1580020051.0	6.95	12.87
26/01/2020 06:27:32	26012020	260120	062732	53.010	12.690522	-57.275052	53.030	-0.410	0.190	0.710	53.030	-1.200	1.000																			1580020052.0	7.01	12.98
26/01/2020 06:27:33	26012020	260120	062733	53.140	12.690542	-57.275023	53.140	-0.190	-0.130	0.760	53.150	-1.700	1.100																			1580020053.0	7.37	13.65
26/01/2020 06:27:34	26012020	260120	062734	53.170	12.690563	-57.274995	53.150	0.100	-0.480	0.610	53.160	-1.800	1.000																			1580020054.0	7.62	14.11
26/01/2020 06:27:35	26012020	260120	062735	53.100	12.690585	-57.274967	53.050	0.350	-0.620	0.290	53.070	-2.000	0.700																			1580020055.0	7.59	14.06
26/01/2020 06:27:36	26012020	260120	062736	52.970	12.690608	-57.274942	52.920	0.490	-0.470	-0.110	52.950	-1.900	0.300																			1580020056.0	7.42	13.74
26/01/2020 06:27:37	26012020	260120	062737	52.910	12.690633	-57.274917	52.860	0.480	-0.230	-0.520	52.910	-1.600	-0.100																			1580020057.0	7.27	13.46
26/01/2020 06:27:38	26012020	260120	062738	52.970	12.690657	-57.274893	52.950	0.340	-0.080	-0.850	53.000	-1.500	-0.500																			1580020058.0	7.29	13.50
26/01/2020 06:27:39	26012020	260120	062739	53.140	12.690680	-57.274867	53.110	0.090	-0.020	-1.040	53.170	-1.400	-0.700																			1580020059.0	7.40	13.70
26/01/2020 06:27:40	26012020	260120	062740	53.280	12.690702	-57.274840	53.240	-0.210	0.100	-0.930	53.310	-1.300	-0.600																			1580020060.0	7.38	13.67
26/01/2020 06:27:41	26012020	260120	062741	53.350	12.690720	-57.274812	53.310	-0.500	0.190	-0.490	53.360	-1.200	-0.200																			1580020061.0	7.23	13.39
26/01/2020 06:27:42	26012020	260120	062742	53.390	12.690737	-57.274782	53.360	-0.610	0.080	-0.000	53.400	-1.300	0.300																			1580020062.0	7.27	13.46
26/01/2020 06:27:43	26012020	260120	062743	53.390	12.690755	-57.274752	53.350	-0.460	-0.090	0.380	53.380	-1.500	0.700																			1580020063.0	7.40	13.70
26/01/2020 06:27:44	26012020	260120	062744	53.350	12.690775	-57.274723	53.320	-0.080	-0.310	0.550	53.350	-1.700	0.900																			1580020064.0	7.35	13.61
26/01/2020 06:27:45	26012020	260120	062745	53.350	12.690797	-57.274695	53.310	0.390	-0.660	0.510	53.340	-2.000	0.900																			1580020065.0	7.53	13.95
26/01/2020 06:27:46	26012020	260120	062746	53.300	12.690820	-57.274667	53.250	0.630	-0.780	0.410	53.280	-2.200	0.800																			1580020066.0	7.76	14.37
26/01/2020 06:27:47	26012020	260120	062747	53.170	12.690842	-57.274640	53.100	0.380	-0.310	0.210	53.140	-1.300	0.400																			1580020067.0	7.39	13.69
26/01/2020 06:27:48	26012020	260120	062748	53.080	12.690863	-57.274617	53.050	-0.180	0.360	-0.110	53.090	-1.100	0.300																			1580020068.0	6.75	12.50
26/01/2020 06:27:49	26012020	260120	062749	53.250	12.690885	-57.274593	53.260	-0.540	0.500	-0.480	53.310	-0.900	-0.100																			1580020069.0	6.73	12.46
26/01/2020 06:27:50	26012020	260120	062750	53.560	12.690907	-57.274567	53.540	-0.430	0.010	-0.790	53.600	-1.300	-0.400																			1580020070.0	7.41	13.72
26/01/2020 06:27:51	26012020	260120	062751	53.660	12.690928	-57.274537	53.600	-0.030	-0.530	-0.800	53.650	-1.900	-0.500																			1580020071.0	7.94	14.70
26/01/2020 06:27:52	26012020	260120	062752	53.500	12.690948	-57.274507	53.420	0.280	-0.590	-0.460	53.450	-2.000	-0.100																			1580020072.0	7.76	14.37
26/01/2020 06:27:53	26012020	260120	062753	53.260	12.690968	-57.274478	53.190	0.310	-0.320	-0.130	53.210	-1.700	0.200																			1580020073.0	7.21	13.35
26/01/2020 06:27:54	26012020	260120	062754	53.120	12.690988	-57.274452	53.100	0.210	-0.160	-0.180	53.120	-1.600	0.200																			1580020074.0	7.02	13.00
26/01/2020 06:27:55	26012020	260120	062755	53.150	12.691010	-57.274425	53.150	0.190	-0.200	-0.320	53.170	-1.600	0.100																			1580020075.0	7.33	13.58
26/01/2020 06:27:56	26012020	260120	062756	53.230	12.691033	-57.274398	53.220	0.190	-0.120	-0.270	53.250	-1.500	0.100																			1580020076.0	7.49	13.87
26/01/2020 06:27:57	26012020	260120	062757	53.310	12.691055	-57.274372	53.300	0.020	0.100	-0.140	53.330	-1.300	0.200																			1580020077.0	7.24	13.41
26/01/2020 06:27:58	26012020	260120	062758	53.420	12.691073	-57.274345	53.400	-0.260	0.210	-0.070	53.440	-1.200	0.300																			1580020078.0	7.09	13.13
26/01/2020 06:27:59	26012020	260120	062759	53.470	12.691093	-57.274317	53.440	-0.440	0.040	0.110	53.470	-1.500	0.600																			1580020079.0	7.24	13.41
26/01/2020 06:28:00	26012020	260120	062800	53.450	12.691113	-57.274288	53.420	-0.410	-0.310	0.290	53.450	-1.700	0.600	1014.00	25.70	25.80	20.30	20.30	-1.00	72.00	71.00	426.00	25.50	23.00	9.20	90.00	5.90	15	3193.00	27.40	27.40	1580020080.0	7.48	13.85
26/01/2020 06:28:01	26012020	260120	062801	53.400	12.691133	-57.274258	53.370	-0.190	-0.560	0.340	53.390	-1.900	0.700																			1580020081.0	7.60	14.08
26/01/2020 06:28:02	26012020	260120	062802	53.310	12.691155	-57.274230	53.270	0.100	-0.460	0.370	53.280	-1.900	0.700																			1580020082.0	7.42	13.74
26/01/2020 06:28:03	26012020	260120	062803	53.200	12.691175	-57.274203	53.160	0.260	-0.170	0.300	53.180	-1.600	0.700																			1580020083.0	7.11	13.17
26/01/2020 06:28:04	26012020	260120	062804	53.170	12.691195	-57.274178	53.160	0.260	-0.050	-0.050	53.180	-1.400	0.400																			1580020084.0	7.08	13.11
26/01/2020 06:28:05	26012020	260120	062805	53.300	12.691220	-57.274153	53.300	0.190	-0.210	-0.570	53.340	-1.600	-0.200																			1580020085.0	7.43	13.76
26/01/2020 06:28:06	26012020	260120	062806	53.470	12.691243	-57.274127	53.450	0.150	-0.350	-0.870	53.500	-1.700	-0.500																			1580020086.0	7.66	14.19
26/01/2020 06:28:07	26012020	260120	062807	53.540	12.691267	-57.274098	53.490	0.100	-0.220	-0.820	53.540	-1.600	-0.500																			1580020087.0	7.50	13.89
26/01/2020 06:28:08	26012020	260120	062808	53.520	12.691285	-57.274072	53.450	-0.060	0.080	-0.530	53.500	-1.300	-0.200																			1580020088.0	7.18	13.30
26/01/2020 06:28:09	26012020	260120	062809	53.450	12.691303	-57.274043	53.390	-0.240	0.240	-0.120	53.430	-1.100	0.200																			1580020089.0	7.02	13.00
26/01/2020 06:28:10	26012020	260120	062810	53.420	12.691322	-57.274015	53.390	-0.260	0.040	0.170	53.420	-1.300	0.500																			1580020090.0	7.22	13.37
26/01/2020 06:28:11	26012020	260120	062811	53.460	12.691343	-57.273987	53.440	-0.050	-0.350	0.290	53.470	-1.700	0.600																			1580020091.0	7.60	14.08
26/01/2020 06:28:12	26012020	260120	062812	53.480	12.691365	-57.273957	53.470	0.190	-0.530	0.300	53.490	-1.900	0.700																			1580020092.0	7.67	14.20
26/01/2020 06:28:13	26012020	260120	062813	53.580	12.691387	-57.273930	53.590	0.270	-0.490	0.250	53.610	-1.900	0.600																			1580020093.0	7.42	13.74
26/01/2020 06:28:14	26012020	260120	062814	53.720	12.691408	-57.273903	53.700	0.200	-0.340	0.210	53.730	-1.800	0.600																			1580020094.0	7.28	13.48
26/01/2020 06:28:15	26012020	260120	062815	53.640	12.691428	-57.273875	53.570	0.020	-0.070	0.330	53.600	-1.500	0.700																			1580020095.0	7.25	13.43
26/01/2020 06:28:16	26012020	260120	062816	53.440	12.691447	-57.273848	53.400	-0.210	0.230	0.330	53.420	-1.200	0.700																			1580020096.0	7.10	13.15
26/01/2020 06:28:17	26012020	260120	062817	53.450	12.691468	-57.273822	53.460	-0.370	0.280	0.070	53.490	-1.100	0.500																			1580020097.0	7.06	13.08
26/01/2020 06:28:18	26012020	260120	062818	53.660	12.691490	-57.273795	53.670	-0.300	-0.100	-0.360	53.710	-1.400	0.100																			1580020098.0	7.36	13.63
26/01/2020 06:28:19	26012020	260120	062819	53.870	12.691513	-57.273767	53.840	0.010	-0.670	-0.760	53.890	-2.000	-0.400																			1580020099.0	7.85	14.54
26/01/2020 06:28:20	26012020	260120	062820	53.880	12.691537	-57.273738	53.810	0.290	-0.750	-0.850	53.850	-2.200	-0.500																			1580020100.0	7.92	14.67
26/01/2020 06:28:21	26012020	260120	062821	53.690	12.691557	-57.273710	53.600	0.270	-0.180	-0.570	53.650	-1.600	-0.200																			1580020101.0	7.21	13.35
26/01/2020 06:28:22	26012020	260120	062822	53.500	12.691575	-57.273685	53.450	0.030	0.380	-0.200	53.480	-1.000	0.100																			1580020102.0	6.63	12.28
26/01/2020 06:28:23	26012020	260120	062823	53.490	12.691593	-57.273658	53.470	-0.110	0.290	-0.130	53.510	-1.100	0.200																			1580020103.0	6.92	12.82
26/01/2020 06:28:24	26012020	260120	062824	53.630	12.691615	-57.273630	53.600	-0.030	-0.230	-0.220	53.650	-1.600	0.200																			1580020104.0	7.63	14.13
26/01/2020 06:28:25	26012020	260120	062825	53.690	12.691638	-57.273600	53.630	0.070	-0.550	-0.090	53.670	-1.900	0.300																			1580020105.0	7.86	14.56
26/01/2020 06:28:26	26012020	260120	062826	53.590	12.691658	-57.273572	53.530	0.040	-0.470	0.160	53.560	-1.900	0.500																			1580020106.0	7.48	13.85
26/01/2020 06:28:27	26012020	260120	062827	53.540	12.691678	-57.273543	53.530	-0.010	-0.300	0.250	53.550	-1.700	0.600																			1580020107.0	7.18	13.30
26/01/2020 06:28:28	26012020	260120	062828	53.630	12.691698	-57.273517	53.610	0.010	-0.170	0.190	53.640	-1.600	0.600																			1580020108.0	7.26	13.45
26/01/2020 06:28:29	26012020	260120	062829	53.650	12.691718	-57.273490	53.620	0.040	0.050	0.130	53.640	-1.400	0.500																			1580020109.0	7.27	13.46
26/01/2020 06:28:30	26012020	260120	062830	53.560	12.691738	-57.273463	53.510	0.000	0.270	0.130	53.530	-1.100	0.500																			1580020110.0	7.09	13.13
26/01/2020 06:28:31	26012020	260120	062831	53.420	12.691758	-57.273437	53.390	-0.050	0.170	0.070	53.400	-1.200	0.400																			1580020111.0	7.12	13.19
26/01/2020 06:28:32	26012020	260120	062832	53.400	12.691780	-57.273408	53.390	-0.030	-0.340	-0.230	53.420	-1.700	0.200																			1580020112.0	7.51	13.91
26/01/2020 06:28:33	26012020	260120	062833	53.480	12.691805	-57.273380	53.450	0.100	-0.870	-0.520	53.480	-2.200	-0.100																			1580020113.0	7.96	14.74
26/01/2020 06:28:34	26012020	260120	062834	53.450	12.691828	-57.273352	53.410	0.200	-0.820	-0.550	53.440	-2.200	-0.200																			1580020114.0	7.87	14.58
26/01/2020 06:28:35	26012020	260120	062835	53.400	12.691848	-57.273325	53.380	0.090	-0.130	-0.410	53.400	-1.600	-0.100																			1580020115.0	7.14	13.22
26/01/2020 06:28:36	26012020	260120	062836	53.460	12.691865	-57.273298	53.450	-0.220	0.570	-0.270	53.480	-0.900	0.100																			1580020116.0	6.58	12.19
26/01/2020 06:28:37	26012020	260120	062837	53.510	12.691883	-57.273273	53.490	-0.530	0.780	-0.090	53.510	-0.600	0.300																			1580020117.0	6.66	12.33
26/01/2020 06:28:38	26012020	260120	062838	53.470	12.691903	-57.273245	53.420	-0.550	0.320	0.020	53.440	-1.000	0.400																			1580020118.0	7.19	13.32
26/01/2020 06:28:39	26012020	260120	062839	53.300	12.691925	-57.273215	53.230	-0.240	-0.460	0.120	53.260	-1.800	0.500																			1580020119.0	7.77	14.39
26/01/2020 06:28:40	26012020	260120	062840	53.120	12.691948	-57.273187	53.100	0.220	-1.010	0.230	53.110	-2.400	0.600																			1580020120.0	7.92	14.67
26/01/2020 06:28:41	26012020	260120	062841	53.100	12.691970	-57.273158	53.110	0.570	-1.170	0.200	53.120	-2.600	0.600																			1580020121.0	7.69	14.24
26/01/2020 06:28:42	26012020	260120	062842	53.200	12.691992	-57.273130	53.200	0.680	-0.850	0.070	53.220	-2.300	0.400																			1580020122.0	7.44	13.78
26/01/2020 06:28:43	26012020	260120	062843	53.210	12.692012	-57.273103	53.190	0.490	-0.130	0.090	53.200	-1.600	0.400																			1580020123.0	7.11	13.17
26/01/2020 06:28:44	26012020	260120	062844	53.170	12.692032	-57.273078	53.150	0.060	0.570	0.090	53.170	-0.900	0.500																			1580020124.0	6.79	12.58
26/01/2020 06:28:45	26012020	260120	062845	53.220	12.692050	-57.273052	53.220	-0.330	0.810	-0.070	53.240	-0.600	0.300																			1580020125.0	6.90	12.78
26/01/2020 06:28:46	26012020	260120	062846	53.340	12.692072	-57.273025	53.320	-0.450	0.580	-0.280	53.360	-0.800	0.100																			1580020126.0	7.28	13.48
26/01/2020 06:28:47	26012020	260120	062847	53.360	12.692093	-57.272997	53.310	-0.340	0.090	-0.370	53.340	-1.300	-0.000																			1580020127.0	7.53	13.95
26/01/2020 06:28:48	26012020	260120	062848	53.220	12.692115	-57.272968	53.150	-0.170	-0.480	-0.320	53.190	-1.800	0.000																			1580020128.0	7.67	14.20
26/01/2020 06:28:49	26012020	260120	062849	53.030	12.692137	-57.272940	52.960	-0.060	-0.850	-0.130	52.990	-2.200	0.200																			1580020129.0	7.68	14.22
26/01/2020 06:28:50	26012020	260120	062850	52.940	12.692158	-57.272912	52.920	-0.080	-0.740	0.010	52.940	-2.200	0.400																			1580020130.0	7.40	13.70
26/01/2020 06:28:51	26012020	260120	062851	52.970	12.692177	-57.272885	52.940	-0.120	-0.230	0.130	52.970	-1.400	0.500																			1580020131.0	6.91	12.80
26/01/2020 06:28:52	26012020	260120	062852	52.940	12.692195	-57.272860	52.900	-0.100	0.130	0.220	52.940	-1.300	0.600																			1580020132.0	6.70	12.41
26/01/2020 06:28:53	26012020	260120	062853	52.890	12.692213	-57.272832	52.860	0.110	-0.130	0.250	52.890	-1.500	0.600																			1580020133.0	7.17	13.28
26/01/2020 06:28:54	26012020	260120	062854	52.820	12.692235	-57.272802	52.760	0.420	-0.670	0.160	52.800	-2.000	0.500																			1580020134.0	7.92	14.67
26/01/2020 06:28:55	26012020	260120	062855	52.690	12.692260	-57.272772	52.640	0.600	-0.720	-0.100	52.670	-2.100	0.300																			1580020135.0	8.03	14.87
26/01/2020 06:28:56	26012020	260120	062856	52.660	12.692283	-57.272747	52.640	0.480	-0.110	-0.400	52.680	-1.600	-0.000																			1580020136.0	7.35	13.61
26/01/2020 06:28:57	26012020	260120	062857	52.800	12.692305	-57.272725	52.780	0.150	0.570	-0.550	52.830	-0.900	-0.200																			1580020137.0	6.76	12.52
26/01/2020 06:28:58	26012020	260120	062858	52.880	12.692327	-57.272700	52.840	-0.210	0.780	-0.430	52.880	-0.600	-0.100																			1580020138.0	6.79	12.58
26/01/2020 06:28:59	26012020	260120	062859	52.840	12.692347	-57.272673	52.800	-0.480	0.410	-0.150	52.830	-0.900	0.200																			1580020139.0	7.23	13.39
26/01/2020 06:29:00	26012020	260120	062900	52.780	12.692365	-57.272642	52.740	-0.590	-0.270	0.260	52.770	-1.600	0.600	1014.00	25.70	25.70	20.40	20.40	-1.00	72.00	72.00	426.00	25.50	22.00	9.80	88.00	6.50	15	3196.00	27.40	27.40	1580020140.0	7.68	14.22
26/01/2020 06:29:01	26012020	260120	062901	52.730	12.692385	-57.272610	52.710	-0.520	-0.840	0.600	52.720	-2.200	0.900																			1580020141.0	7.80	14.45
26/01/2020 06:29:02	26012020	260120	062902	52.650	12.692403	-57.272580	52.590	-0.250	-0.940	0.800	52.610	-2.300	1.100																			1580020142.0	7.60	14.08
26/01/2020 06:29:03	26012020	260120	062903	52.430	12.692422	-57.272552	52.350	0.060	-0.560	0.860	52.370	-2.000	1.200																			1580020143.0	7.15	13.24
26/01/2020 06:29:04	26012020	260120	062904	52.180	12.692442	-57.272527	52.130	0.270	-0.130	0.610	52.150	-1.600	1.000																			1580020144.0	6.88	12.74
26/01/2020 06:29:05	26012020	260120	062905	52.170	12.692465	-57.272503	52.170	0.410	-0.020	-0.160	52.210	-1.400	0.300																			1580020145.0	7.12	13.19
26/01/2020 06:29:06	26012020	260120	062906	52.410	12.692492	-57.272480	52.400	0.520	-0.070	-1.050	52.460	-1.500	-0.600																			1580020146.0	7.58	14.04
26/01/2020 06:29:07	26012020	260120	062907	52.600	12.692517	-57.272455	52.540	0.490	0.050	-1.520	52.610	-1.400	-1.100																			1580020147.0	7.52	13.93
26/01/2020 06:29:08	26012020	260120	062908	52.630	12.692540	-57.272430	52.550	0.230	0.160	-1.480	52.620	-1.200	-1.100																			1580020148.0	7.18	13.30
26/01/2020 06:29:09	26012020	260120	062909	52.530	12.692560	-57.272402	52.440	-0.100	-0.020	-1.050	52.500	-1.400	-0.700																			1580020149.0	7.24	13.41
26/01/2020 06:29:10	26012020	260120	062910	52.360	12.692580	-57.272373	52.280	-0.300	-0.330	-0.440	52.330	-1.700	-0.100																			1580020150.0	7.51	13.91
26/01/2020 06:29:11	26012020	260120	062911	52.250	12.692600	-57.272343	52.200	-0.330	-0.470	0.160	52.230	-1.900	0.500																			1580020151.0	7.57	14.02
26/01/2020 06:29:12	26012020	260120	062912	52.250	12.692618	-57.272315	52.250	-0.310	-0.350	0.690	52.270	-1.800	1.000																			1580020152.0	7.37	13.65
26/01/2020 06:29:13	26012020	260120	062913	52.400	12.692637	-57.272285	52.420	-0.290	-0.140	1.070	52.430	-1.600	1.400																			1580020153.0	7.16	13.26
26/01/2020 06:29:14	26012020	260120	062914	52.530	12.692655	-57.272257	52.540	-0.260	0.010	1.230	52.540	-1.400	1.600																			1580020154.0	7.15	13.24
26/01/2020 06:29:15	26012020	260120	062915	52.540	12.692673	-57.272230	52.530	-0.160	0.090	1.130	52.530	-1.300	1.500																			1580020155.0	7.17	13.28
26/01/2020 06:29:16	26012020	260120	062916	52.440	12.692695	-57.272203	52.410	0.050	-0.010	0.740	52.420	-1.400	1.100																			1580020156.0	7.22	13.37
26/01/2020 06:29:17	26012020	260120	062917	52.330	12.692718	-57.272177	52.300	0.320	-0.320	0.070	52.320	-1.700	0.500																			1580020157.0	7.47	13.83
26/01/2020 06:29:18	26012020	260120	062918	52.340	12.692743	-57.272152	52.320	0.500	-0.630	-0.710	52.360	-2.000	-0.300																			1580020158.0	7.76	14.37
26/01/2020 06:29:19	26012020	260120	062919	52.460	12.692772	-57.272127	52.430	0.460	-0.590	-1.440	52.490	-2.000	-1.000																			1580020159.0	7.74	14.33
26/01/2020 06:29:20	26012020	260120	062920	52.570	12.692797	-57.272103	52.510	0.220	-0.110	-1.800	52.580	-1.600	-1.400																			1580020160.0	7.33	13.58
26/01/2020 06:29:21	26012020	260120	062921	52.610	12.692818	-57.272080	52.560	-0.070	0.410	-1.650	52.620	-1.000	-1.300																			1580020161.0	6.81	12.61
26/01/2020 06:29:22	26012020	260120	062922	52.670	12.692837	-57.272055	52.640	-0.220	0.400	-1.110	52.690	-1.000	-0.800																			1580020162.0	6.88	12.74
26/01/2020 06:29:23	26012020	260120	062923	52.770	12.692857	-57.272023	52.760	-0.190	-0.150	-0.370	52.790	-1.500	-0.100																			1580020163.0	7.55	13.98
26/01/2020 06:29:24	26012020	260120	062924	52.830	12.692875	-57.271992	52.810	-0.130	-0.650	0.400	52.820	-2.000	0.700																			1580020164.0	7.98	14.78
26/01/2020 06:29:25	26012020	260120	062925	52.760	12.692892	-57.271960	52.750	-0.180	-0.610	1.100	52.730	-2.000	1.400																			1580020165.0	7.71	14.28
26/01/2020 06:29:26	26012020	260120	062926	52.640	12.692908	-57.271930	52.640	-0.310	-0.190	1.530	52.620	-1.600	1.900																			1580020166.0	7.10	13.15
26/01/2020 06:29:27	26012020	260120	062927	52.580	12.692927	-57.271903	52.600	-0.300	0.060	1.490	52.570	-1.400	1.600																			1580020167.0	6.88	12.74
26/01/2020 06:29:28	26012020	260120	062928	52.580	12.692950	-57.271878	52.590	-0.050	-0.060	0.920	52.580	-1.400	1.300																			1580020168.0	7.26	13.45
26/01/2020 06:29:29	26012020	260120	062929	52.620	12.692975	-57.271853	52.620	0.310	-0.270	0.030	52.640	-1.700	0.500																			1580020169.0	7.67	14.20
26/01/2020 06:29:30	26012020	260120	062930	52.700	12.693002	-57.271828	52.670	0.520	-0.290	-0.820	52.720	-1.700	-0.400																			1580020170.0	7.68	14.22
26/01/2020 06:29:31	26012020	260120	062931	52.760	12.693027	-57.271803	52.720	0.450	-0.140	-1.410	52.770	-1.600	-1.000																			1580020171.0	7.42	13.74
26/01/2020 06:29:32	26012020	260120	062932	52.770	12.693050	-57.271780	52.720	0.140	-0.020	-1.680	52.770	-1.400	-1.300																			1580020172.0	7.24	13.41
26/01/2020 06:29:33	26012020	260120	062933	52.800	12.693072	-57.271753	52.750	-0.180	-0.030	-1.650	52.810	-1.400	-1.300																			1580020173.0	7.27	13.46
26/01/2020 06:29:34	26012020	260120	062934	52.840	12.693093	-57.271725	52.800	-0.360	-0.080	-1.290	52.840	-1.500	-1.000																			1580020174.0	7.35	13.61
26/01/2020 06:29:35	26012020	260120	062935	52.870	12.693112	-57.271697	52.850	-0.340	-0.170	-0.680	52.880	-1.500	-0.400																			1580020175.0	7.35	13.61
26/01/2020 06:29:36	26012020	260120	062936	52.910	12.693130	-57.271667	52.900	-0.210	-0.250	0.100	52.910	-1.600	0.400																			1580020176.0	7.42	13.74
26/01/2020 06:29:37	26012020	260120	062937	52.870	12.693147	-57.271637	52.860	-0.060	-0.250	0.870	52.840	-1.600	1.200																			1580020177.0	7.39	13.69
26/01/2020 06:29:38	26012020	260120	062938	52.750	12.693163	-57.271607	52.740	0.060	-0.270	1.400	52.730	-1.700	1.700																			1580020178.0	7.35	13.61
26/01/2020 06:29:39	26012020	260120	062939	52.730	12.693183	-57.271577	52.760	0.170	-0.370	1.460	52.740	-1.700	1.800																			1580020179.0	7.42	13.74
26/01/2020 06:29:40	26012020	260120	062940	52.810	12.693207	-57.271550	52.830	0.270	-0.420	1.030	52.830	-1.800	1.400																			1580020180.0	7.54	13.96
26/01/2020 06:29:41	26012020	260120	062941	52.840	12.693232	-57.271525	52.830	0.290	-0.180	0.350	52.840	-1.300	0.300																			1580020181.0	7.53	13.95
26/01/2020 06:29:42	26012020	260120	062942	52.810	12.693255	-57.271502	52.780	0.160	0.210	-0.310	52.810	-1.200	0.100																			1580020182.0	7.19	13.32
26/01/2020 06:29:43	26012020	260120	062943	52.890	12.693280	-57.271478	52.880	-0.040	0.290	-0.930	52.920	-1.100	-0.500																			1580020183.0	7.08	13.11
26/01/2020 06:29:44	26012020	260120	062944	53.080	12.693303	-57.271453	53.060	-0.210	-0.000	-1.350	53.110	-1.400	-1.000																			1580020184.0	7.41	13.72
26/01/2020 06:29:45	26012020	260120	062945	53.130	12.693325	-57.271425	53.060	-0.310	-0.300	-1.360	53.110	-1.700	-1.000																			1580020185.0	7.61	14.09
26/01/2020 06:29:46	26012020	260120	062946	53.010	12.693347	-57.271397	52.940	-0.280	-0.500	-1.120	52.990	-1.900	-0.800																			1580020186.0	7.53	13.95
26/01/2020 06:29:47	26012020	260120	062947	52.880	12.693367	-57.271367	52.830	-0.100	-0.640	-0.720	52.870	-2.000	-0.400																			1580020187.0	7.53	13.95
26/01/2020 06:29:48	26012020	260120	062948	52.840	12.693385	-57.271338	52.810	0.100	-0.520	-0.290	52.840	-1.900	0.000																			1580020188.0	7.53	13.95
26/01/2020 06:29:49	26012020	260120	062949	52.890	12.693405	-57.271310	52.890	0.150	-0.060	0.040	52.920	-1.500	0.400																			1580020189.0	7.22	13.37
26/01/2020 06:29:50	26012020	260120	062950	53.040	12.693423	-57.271283	53.060	0.050	0.380	0.200	53.080	-1.000	0.500																			1580020190.0	6.89	12.76
26/01/2020 06:29:51	26012020	260120	062951	53.170	12.693443	-57.271257	53.170	-0.080	0.430	0.270	53.170	-0.900	0.600																			1580020191.0	7.02	13.00
26/01/2020 06:29:52	26012020	260120	062952	53.150	12.693465	-57.271230	53.120	-0.110	0.050	0.240	53.130	-1.300	0.600																			1580020192.0	7.39	13.69
26/01/2020 06:29:53	26012020	260120	062953	53.080	12.693488	-57.271202	53.050	0.010	-0.460	0.160	53.060	-1.800	0.500																			1580020193.0	7.75	14.35
26/01/2020 06:29:54	26012020	260120	062954	53.010	12.693512	-57.271173	52.990	0.190	-0.720	0.130	53.000	-2.100	0.500																			1580020194.0	7.77	14.39
26/01/2020 06:29:55	26012020	260120	062955	52.980	12.693533	-57.271147	52.950	0.240	-0.570	0.030	52.980	-2.000	0.400																			1580020195.0	7.46	13.82
26/01/2020 06:29:56	26012020	260120	062956	53.030	12.693555	-57.271120	53.010	0.140	-0.220	-0.120	53.040	-1.600	0.200																			1580020196.0	7.13	13.20
26/01/2020 06:29:57	26012020	260120	062957	53.100	12.693575	-57.271095	53.070	-0.050	0.030	-0.260	53.110	-1.400	0.100																			1580020197.0	7.08	13.11
26/01/2020 06:29:58	26012020	260120	062958	53.080	12.693597	-57.271068	53.020	-0.170	0.090	-0.290	53.060	-1.300	0.100																			1580020198.0	7.23	13.39
26/01/2020 06:29:59	26012020	260120	062959	52.990	12.693618	-57.271040	52.950	-0.170	-0.040	-0.230	52.980	-1.400	0.100																			1580020199.0	7.43	13.76
26/01/2020 06:30:00	26012020	260120	063000	53.010	12.693638	-57.271012	52.990	-0.110	-0.250	-0.210	53.030	-1.600	0.100	1014.00	25.70	25.70	20.20	20.20	-1.00	71.00	71.00	426.00	25.50	25.00	9.80	91.00	6.60	15	3273.00	27.40	27.40	1580020200.0	7.59	14.06
26/01/2020 06:30:01	26012020	260120	063001	53.160	12.693660	-57.270982	53.160	-0.100	-0.300	-0.270	53.200	-1.700	0.100																			1580020201.0	7.60	14.08
26/01/2020 06:30:02	26012020	260120	063002	53.340	12.693682	-57.270955	53.320	-0.150	-0.080	-0.330	53.360	-1.500	0.000																			1580020202.0	7.32	13.56
26/01/2020 06:30:03	26012020	260120	063003	53.360	12.693702	-57.270928	53.290	-0.190	0.160	-0.300	53.330	-1.200	0.000																			1580020203.0	7.04	13.04
26/01/2020 06:30:04	26012020	260120	063004	53.190	12.693722	-57.270902	53.130	-0.100	0.100	-0.180	53.170	-1.300	0.200																			1580020204.0	7.11	13.17
26/01/2020 06:30:05	26012020	260120	063005	53.140	12.693743	-57.270875	53.110	0.120	-0.270	-0.170	53.150	-1.600	0.200																			1580020205.0	7.47	13.83
26/01/2020 06:30:06	26012020	260120	063006	53.170	12.693767	-57.270847	53.140	0.390	-0.650	-0.230	53.180	-2.000	0.100																			1580020206.0	7.77	14.39
26/01/2020 06:30:07	26012020	260120	063007	53.160	12.693790	-57.270818	53.120	0.570	-0.690	-0.260	53.160	-2.100	0.100																			1580020207.0	7.69	14.24
26/01/2020 06:30:08	26012020	260120	063008	53.180	12.693812	-57.270792	53.150	0.480	-0.450	-0.250	53.190	-1.900	0.100																			1580020208.0	7.38	13.67
26/01/2020 06:30:09	26012020	260120	063009	53.260	12.693833	-57.270765	53.230	0.090	-0.080	-0.130	53.280	-1.500	0.200																			1580020209.0	7.19	13.32
26/01/2020 06:30:10	26012020	260120	063010	53.420	12.693852	-57.270738	53.430	-0.360	0.210	0.050	53.460	-1.200	0.400																			1580020210.0	7.13	13.20
26/01/2020 06:30:11	26012020	260120	063011	53.560	12.693872	-57.270710	53.530	-0.600	0.350	0.190	53.560	-1.000	0.500																			1580020211.0	7.21	13.35
26/01/2020 06:30:12	26012020	260120	063012	53.500	12.693892	-57.270682	53.450	-0.530	0.280	0.380	53.480	-1.100	0.700																			1580020212.0	7.30	13.52
26/01/2020 06:30:13	26012020	260120	063013	53.430	12.693912	-57.270653	53.420	-0.260	-0.080	0.420	53.440	-1.400	0.800																			1580020213.0	7.51	13.91
26/01/2020 06:30:14	26012020	260120	063014	53.590	12.693933	-57.270623	53.610	0.020	-0.520	0.130	53.640	-1.900	0.500																			1580020214.0	7.73	14.32
26/01/2020 06:30:15	26012020	260120	063015	53.830	12.693957	-57.270595	53.820	0.190	-0.640	-0.280	53.860	-2.000	0.100																			1580020215.0	7.70	14.26
26/01/2020 06:30:16	26012020	260120	063016	53.890	12.693978	-57.270570	53.820	0.220	-0.320	-0.550	53.880	-1.700	-0.200																			1580020216.0	7.28	13.48
26/01/2020 06:30:17	26012020	260120	063017	53.750	12.693998	-57.270545	53.650	0.170	0.050	-0.580	53.710	-1.300	-0.300																			1580020217.0	6.91	12.80
26/01/2020 06:30:18	26012020	260120	063018	53.610	12.694020	-57.270518	53.540	0.150	-0.000	-0.700	53.600	-1.400	-0.300																			1580020218.0	7.10	13.15
26/01/2020 06:30:19	26012020	260120	063019	53.620	12.694045	-57.270492	53.570	0.210	-0.380	-0.880	53.640	-1.700	-0.500																			1580020219.0	7.68	14.22
26/01/2020 06:30:20	26012020	260120	063020	53.710	12.694068	-57.270463	53.660	0.270	-0.580	-0.910	53.730	-2.000	-0.600																			1580020220.0	7.88	14.59
26/01/2020 06:30:21	26012020	260120	063021	53.860	12.694090	-57.270435	53.830	0.190	-0.400	-0.680	53.890	-1.800	-0.400																			1580020221.0	7.58	14.04
26/01/2020 06:30:22	26012020	260120	063022	54.040	12.694108	-57.270407	54.010	-0.070	-0.090	-0.280	54.080	-1.500	0.000																			1580020222.0	7.27	13.46
26/01/2020 06:30:23	26012020	260120	063023	54.140	12.694127	-57.270378	54.080	-0.380	0.180	0.160	54.140	-1.200	0.500																			1580020223.0	7.22	13.37
26/01/2020 06:30:24	26012020	260120	063024	54.030	12.694143	-57.270348	53.970	-0.540	0.440	0.650	53.990	-1.000	0.900																			1580020224.0	7.17	13.28
26/01/2020 06:30:25	26012020	260120	063025	53.890	12.694162	-57.270320	53.860	-0.400	0.380	0.910	53.880	-1.000	1.200																			1580020225.0	7.13	13.20
26/01/2020 06:30:26	26012020	260120	063026	53.940	12.694182	-57.270292	53.940	-0.020	-0.190	0.660	53.970	-1.500	1.000																			1580020226.0	7.50	13.89
26/01/2020 06:30:27	26012020	260120	063027	54.120	12.694205	-57.270262	54.110	0.350	-0.800	0.050	54.160	-2.100	0.500																			1580020227.0	7.99	14.80
26/01/2020 06:30:28	26012020	260120	063028	54.260	12.694230	-57.270235	54.200	0.450	-0.820	-0.550	54.270	-2.200	-0.200																			1580020228.0	7.87	14.58
26/01/2020 06:30:29	26012020	260120	063029	54.240	12.694253	-57.270210	54.150	0.240	-0.280	-0.860	54.220	-1.400	-0.600																			1580020229.0	7.19	13.32
26/01/2020 06:30:30	26012020	260120	063030	54.110	12.694275	-57.270187	54.000	-0.040	0.170	-0.930	54.090	-1.200	-0.600																			1580020230.0	6.80	12.59
26/01/2020 06:30:31	26012020	260120	063031	53.980	12.694295	-57.270160	53.880	-0.160	0.130	-0.860	53.950	-1.400	-0.400																			1580020231.0	7.10	13.15
26/01/2020 06:30:32	26012020	260120	063032	53.860	12.694317	-57.270132	53.760	-0.090	-0.240	-0.660	53.840	-1.600	-0.300																			1580020232.0	7.62	14.11
26/01/2020 06:30:33	26012020	260120	063033	53.770	12.694337	-57.270100	53.690	0.020	-0.530	-0.330	53.760	-1.900	-0.000																			1580020233.0	7.91	14.65
26/01/2020 06:30:34	26012020	260120	063034	53.770	12.694357	-57.270070	53.730	0.030	-0.420	-0.020	53.790	-1.800	0.300																			1580020234.0	7.68	14.22
26/01/2020 06:30:35	26012020	260120	063035	53.920	12.694377	-57.270042	53.890	-0.070	-0.060	0.110	53.950	-1.500	0.400																			1580020235.0	7.25	13.43
26/01/2020 06:30:36	26012020	260120	063036	54.050	12.694395	-57.270015	54.020	-0.150	0.230	0.200	54.080	-1.200	0.500																			1580020236.0	7.05	13.06
26/01/2020 06:30:37	26012020	260120	063037	54.120	12.694415	-57.269987	54.080	-0.090	0.280	0.270	54.130	-1.100	0.600																			1580020237.0	7.15	13.24
26/01/2020 06:30:38	26012020	260120	063038	54.080	12.694435	-57.269958	54.010	0.080	0.050	0.320	54.060	-1.300	0.700																			1580020238.0	7.40	13.70
26/01/2020 06:30:39	26012020	260120	063039	53.950	12.694457	-57.269930	53.870	0.200	-0.280	0.300	53.930	-1.600	0.700																			1580020239.0	7.61	14.09
26/01/2020 06:30:40	26012020	260120	063040	53.890	12.694478	-57.269902	53.820	0.210	-0.580	0.130	53.890	-1.900	0.500																			1580020240.0	7.67	14.20
26/01/2020 06:30:41	26012020	260120	063041	53.940	12.694502	-57.269875	53.880	0.140	-0.660	-0.190	53.960	-2.000	0.200																			1580020241.0	7.62	14.11
26/01/2020 06:30:42	26012020	260120	063042	54.000	12.694523	-57.269848	53.920	0.040	-0.410	-0.360	53.990	-1.800	0.000																			1580020242.0	7.38	13.67
26/01/2020 06:30:43	26012020	260120	063043	53.910	12.694543	-57.269820	53.800	-0.090	-0.040	-0.250	53.870	-1.500	0.100																			1580020243.0	7.14	13.22
26/01/2020 06:30:44	26012020	260120	063044	53.730	12.694562	-57.269793	53.630	-0.240	0.200	-0.090	53.690	-1.200	0.200																			1580020244.0	7.13	13.20
26/01/2020 06:30:45	26012020	260120	063045	53.580	12.694582	-57.269765	53.510	-0.340	0.220	-0.060	53.560	-1.200	0.300																			1580020245.0	7.26	13.45
26/01/2020 06:30:46	26012020	260120	063046	53.620	12.694603	-57.269738	53.590	-0.210	-0.060	-0.320	53.660	-1.400	0.100																			1580020246.0	7.47	13.83
26/01/2020 06:30:47	26012020	260120	063047	53.850	12.694627	-57.269710	53.810	0.140	-0.420	-0.650	53.890	-1.800	-0.300																			1580020247.0	7.77	14.39
26/01/2020 06:30:48	26012020	260120	063048	53.980	12.694650	-57.269682	53.920	0.410	-0.470	-0.690	53.990	-1.900	-0.400																			1580020248.0	7.72	14.30
26/01/2020 06:30:49	26012020	260120	063049	53.930	12.694670	-57.269653	53.850	0.340	-0.230	-0.470	53.910	-1.600	-0.200																			1580020249.0	7.33	13.58
26/01/2020 06:30:50	26012020	260120	063050	53.780	12.694688	-57.269625	53.680	-0.010	0.010	-0.190	53.730	-1.400	0.100																			1580020250.0	7.10	13.15
26/01/2020 06:30:51	26012020	260120	063051	53.540	12.694708	-57.269598	53.450	-0.310	0.070	0.060	53.490	-1.300	0.400																			1580020251.0	7.17	13.28
26/01/2020 06:30:52	26012020	260120	063052	53.370	12.694730	-57.269572	53.310	-0.320	-0.040	0.240	53.360	-1.400	0.600																			1580020252.0	7.33	13.58
26/01/2020 06:30:53	26012020	260120	063053	53.360	12.694750	-57.269542	53.300	-0.030	-0.320	0.350	53.360	-1.900	0.700																			1580020253.0	7.54	13.96
26/01/2020 06:30:54	26012020	260120	063054	53.360	12.694772	-57.269512	53.310	0.280	-0.610	0.380	53.360	-2.000	0.700																			1580020254.0	7.76	14.37
26/01/2020 06:30:55	26012020	260120	063055	53.370	12.694792	-57.269482	53.320	0.330	-0.610	0.260	53.370	-2.000	0.600																			1580020255.0	7.74	14.33
26/01/2020 06:30:56	26012020	260120	063056	53.370	12.694813	-57.269455	53.320	0.100	-0.220	0.090	53.370	-1.700	0.500																			1580020256.0	7.38	13.67
26/01/2020 06:30:57	26012020	260120	063057	53.330	12.694833	-57.269428	53.270	-0.190	0.360	-0.070	53.320	-1.100	0.300																			1580020257.0	6.98	12.93
26/01/2020 06:30:58	26012020	260120	063058	53.270	12.694855	-57.269405	53.220	-0.290	0.650	-0.310	53.260	-0.700	0.100																			1580020258.0	6.85	12.69
26/01/2020 06:30:59	26012020	260120	063059	53.210	12.694877	-57.269378	53.150	-0.140	0.350	-0.500	53.190	-1.000	-0.100																			1580020259.0	7.23	13.39
26/01/2020 06:31:00	26012020	260120	063100	53.110	12.694900	-57.269350	53.050	0.090	-0.310	-0.550	53.090	-1.600	-0.200	1014.00	25.70	25.70	20.50	20.50	-1.00	72.00	72.00	428.00	25.50	21.00	9.50	87.00	6.10	15	3201.00	27.40	27.40	1580020260.0	7.74	14.33
26/01/2020 06:31:01	26012020	260120	063101	53.050	12.694923	-57.269322	52.990	0.200	-0.850	-0.540	53.040	-2.200	-0.200																			1580020261.0	7.93	14.69
26/01/2020 06:31:02	26012020	260120	063102	53.070	12.694947	-57.269293	53.030	0.170	-0.930	-0.420	53.090	-2.300	-0.100																			1580020262.0	7.73	14.32
26/01/2020 06:31:03	26012020	260120	063103	53.150	12.694967	-57.269265	53.110	0.050	-0.550	-0.090	53.150	-2.000	0.200																			1580020263.0	7.32	13.56
26/01/2020 06:31:04	26012020	260120	063104	53.120	12.694983	-57.269237	53.050	-0.120	-0.020	0.330	53.100	-1.400	0.600																			1580020264.0	7.01	12.98
26/01/2020 06:31:05	26012020	260120	063105	52.980	12.695000	-57.269208	52.920	-0.220	0.230	0.640	52.960	-1.200	1.000																			1580020265.0	7.04	13.04
26/01/2020 06:31:06	26012020	260120	063106	52.930	12.695020	-57.269180	52.910	-0.120	0.100	0.720	52.940	-1.300	1.100																			1580020266.0	7.42	13.74
26/01/2020 06:31:07	26012020	260120	063107	52.970	12.695043	-57.269152	52.930	0.100	-0.110	0.550	52.970	-1.500	0.900																			1580020267.0	7.72	14.30
26/01/2020 06:31:08	26012020	260120	063108	52.940	12.695067	-57.269123	52.890	0.220	-0.150	0.240	52.930	-1.500	0.600																			1580020268.0	7.67	14.20
26/01/2020 06:31:09	26012020	260120	063109	52.910	12.695088	-57.269098	52.870	0.140	-0.050	-0.110	52.920	-1.400	0.300																			1580020269.0	7.39	13.69
26/01/2020 06:31:10	26012020	260120	063110	52.990	12.695112	-57.269073	52.960	-0.020	0.020	-0.460	53.020	-1.400	-0.100																			1580020270.0	7.24	13.41
26/01/2020 06:31:11	26012020	260120	063111	53.120	12.695135	-57.269047	53.080	-0.110	-0.060	-0.710	53.150	-1.400	-0.300																			1580020271.0	7.28	13.48
26/01/2020 06:31:12	26012020	260120	063112	53.210	12.695157	-57.269020	53.150	-0.100	-0.250	-0.690	53.210	-1.600	-0.400																			1580020272.0	7.41	13.72
26/01/2020 06:31:13	26012020	260120	063113	53.160	12.695177	-57.268990	53.080	-0.070	-0.440	-0.470	53.140	-1.800	-0.100																			1580020273.0	7.53	13.95
26/01/2020 06:31:14	26012020	260120	063114	53.050	12.695197	-57.268962	52.970	-0.020	-0.510	-0.220	53.040	-1.900	0.100																			1580020274.0	7.53	13.95
26/01/2020 06:31:15	26012020	260120	063115	52.950	12.695218	-57.268933	52.870	0.100	-0.390	0.080	52.930	-1.800	0.400																			1580020275.0	7.47	13.83
26/01/2020 06:31:16	26012020	260120	063116	52.830	12.695238	-57.268905	52.770	0.180	-0.140	0.300	52.820	-1.500	0.600																			1580020276.0	7.28	13.48
26/01/2020 06:31:17	26012020	260120	063117	52.860	12.695258	-57.268878	52.850	0.160	-0.070	0.230	52.890	-1.400	0.600																			1580020277.0	7.27	13.46
26/01/2020 06:31:18	26012020	260120	063118	53.060	12.695280	-57.268850	53.050	0.020	-0.110	0.040	53.100	-1.500	0.400																			1580020278.0	7.51	13.91
26/01/2020 06:31:19	26012020	260120	063119	53.170	12.695302	-57.268823	53.120	-0.220	0.030	-0.070	53.160	-1.200	0.300																			1580020279.0	7.46	13.82
26/01/2020 06:31:20	26012020	260120	063120	53.050	12.695323	-57.268797	52.980	-0.380	0.190	0.010	53.020	-1.200	0.400																			1580020280.0	7.20	13.33
26/01/2020 06:31:21	26012020	260120	063121	52.930	12.695343	-57.268770	52.880	-0.300	0.050	0.030	52.930	-1.500	0.300																			1580020281.0	7.27	13.46
26/01/2020 06:31:22	26012020	260120	063122	52.930	12.695365	-57.268742	52.880	-0.020	-0.290	-0.050	52.920	-1.600	0.300																			1580020282.0	7.60	14.08
26/01/2020 06:31:23	26012020	260120	063123	52.880	12.695388	-57.268712	52.820	0.260	-0.530	-0.180	52.870	-1.900	0.200																			1580020283.0	7.73	14.32
26/01/2020 06:31:24	26012020	260120	063124	52.830	12.695410	-57.268685	52.790	0.410	-0.560	-0.360	52.840	-1.900	0.000																			1580020284.0	7.59	14.06
26/01/2020 06:31:25	26012020	260120	063125	52.900	12.695433	-57.268658	52.860	0.390	-0.380	-0.540	52.920	-1.800	-0.200																			1580020285.0	7.41	13.72
26/01/2020 06:31:26	26012020	260120	063126	52.980	12.695455	-57.268632	52.920	0.190	-0.020	-0.600	52.990	-1.400	-0.200																			1580020286.0	7.21	13.35
26/01/2020 06:31:27	26012020	260120	063127	53.000	12.695477	-57.268607	52.950	-0.090	0.260	-0.500	53.000	-1.100	-0.200																			1580020287.0	7.08	13.11
26/01/2020 06:31:28	26012020	260120	063128	53.000	12.695497	-57.268580	52.960	-0.320	0.230	-0.270	53.000	-1.100	0.100																			1580020288.0	7.21	13.35
26/01/2020 06:31:29	26012020	260120	063129	52.950	12.695517	-57.268552	52.900	-0.350	-0.100	0.080	52.930	-1.400	0.400																			1580020289.0	7.50	13.89
26/01/2020 06:31:30	26012020	260120	063130	52.820	12.695538	-57.268520	52.760	-0.200	-0.480	0.420	52.800	-1.800	0.700																			1580020290.0	7.76	14.37
26/01/2020 06:31:31	26012020	260120	063131	52.740	12.695558	-57.268490	52.720	-0.000	-0.630	0.580	52.740	-2.000	0.900																			1580020291.0	7.71	14.28
26/01/2020 06:31:32	26012020	260120	063132	52.820	12.695578	-57.268462	52.830	0.140	-0.540	0.540	52.850	-1.900	0.900																			1580020292.0	7.52	13.93
26/01/2020 06:31:33	26012020	260120	063133	52.960	12.695600	-57.268435	52.930	0.090	-0.170	0.350	52.970	-1.600	0.700																			1580020293.0	7.36	13.63
26/01/2020 06:31:34	26012020	260120	063134	52.930	12.695620	-57.268408	52.860	-0.170	0.440	0.070	52.910	-1.000	0.400																			1580020294.0	7.01	12.98
26/01/2020 06:31:35	26012020	260120	063135	52.810	12.695642	-57.268385	52.750	-0.410	0.770	-0.240	52.790	-0.600	0.200																			1580020295.0	6.71	12.43
26/01/2020 06:31:36	26012020	260120	063136	52.760	12.695663	-57.268360	52.710	-0.260	0.230	-0.560	52.760	-1.100	-0.200																			1580020296.0	7.11	13.17
26/01/2020 06:31:37	26012020	260120	063137	52.800	12.695690	-57.268332	52.740	0.360	-0.980	-0.960	52.810	-2.300	-0.600																			1580020297.0	8.15	15.09
26/01/2020 06:31:38	26012020	260120	063138	52.800	12.695717	-57.268302	52.700	0.930	-1.670	-1.190	52.780	-3.000	-0.800																			1580020298.0	8.72	16.15
26/01/2020 06:31:39	26012020	260120	063139	52.680	12.695740	-57.268273	52.570	0.830	-0.950	-0.990	52.660	-2.500	-0.700																			1580020299.0	7.81	14.46
26/01/2020 06:31:40	26012020	260120	063140	52.640	12.695758	-57.268250	52.580	0.060	0.540	-0.520	52.650	-1.000	-0.200																			1580020300.0	6.32	11.70
26/01/2020 06:31:41	26012020	260120	063141	52.780	12.695773	-57.268227	52.770	-0.740	1.420	-0.050	52.830	0.000	0.300																			1580020301.0	5.88	10.89
26/01/2020 06:31:42	26012020	260120	063142	52.990	12.695792	-57.268200	52.980	-0.970	0.980	0.390	53.010	-0.300	0.700																			1580020302.0	6.81	12.61
26/01/2020 06:31:43	26012020	260120	063143	53.050	12.695812	-57.268167	53.030	-0.610	-0.240	0.830	53.040	-1.500	1.100																			1580020303.0	8.08	14.96
26/01/2020 06:31:44	26012020	260120	063144	52.940	12.695832	-57.268133	52.890	-0.060	-1.110	1.220	52.910	-2.400	1.500																			1580020304.0	8.44	15.63
26/01/2020 06:31:45	26012020	260120	063145	52.750	12.695852	-57.268102	52.690	0.310	-1.070	1.410	52.710	-2.500	1.800																			1580020305.0	7.74	14.33
26/01/2020 06:31:46	26012020	260120	063146	52.610	12.695870	-57.268077	52.580	0.440	-0.540	1.140	52.600	-2.000	1.500																			1580020306.0	6.91	12.80
26/01/2020 06:31:47	26012020	260120	063147	52.670	12.695893	-57.268053	52.670	0.460	-0.150	0.270	52.700	-1.600	0.700																			1580020307.0	6.87	12.72
26/01/2020 06:31:48	26012020	260120	063148	52.770	12.695920	-57.268032	52.720	0.400	0.040	-0.710	52.780	-1.400	-0.300																			1580020308.0	7.35	13.61
26/01/2020 06:31:49	26012020	260120	063149	52.730	12.695947	-57.268008	52.630	0.210	0.240	-1.330	52.710	-1.200	-0.900																			1580020309.0	7.41	13.72
26/01/2020 06:31:50	26012020	260120	063150	52.650	12.695970	-57.267985	52.560	-0.050	0.280	-1.550	52.640	-1.100	-1.200																			1580020310.0	7.21	13.35
26/01/2020 06:31:51	26012020	260120	063151	52.650	12.695992	-57.267958	52.580	-0.180	-0.020	-1.490	52.670	-1.400	-1.100																			1580020311.0	7.35	13.61
26/01/2020 06:31:52	26012020	260120	063152	52.800	12.696013	-57.267928	52.740	-0.150	-0.420	-1.280	52.830	-1.800	-1.000																			1580020312.0	7.68	14.22
26/01/2020 06:31:53	26012020	260120	063153	52.950	12.696033	-57.267900	52.880	-0.120	-0.470	-0.850	52.980	-1.900	-0.600																			1580020313.0	7.63	14.13
26/01/2020 06:31:54	26012020	260120	063154	52.970	12.696052	-57.267870	52.880	-0.230	-0.110	-0.150	52.940	-1.500	0.100																			1580020314.0	7.17	13.28
26/01/2020 06:31:55	26012020	260120	063155	52.810	12.696067	-57.267842	52.750	-0.410	0.220	0.650	52.780	-1.200	1.300																			1580020315.0	6.83	12.65
26/01/2020 06:31:56	26012020	260120	063156	52.750	12.696083	-57.267813	52.750	-0.390	0.040	1.150	52.770	-1.300	1.500																			1580020316.0	7.02	13.00
26/01/2020 06:31:57	26012020	260120	063157	52.890	12.696105	-57.267785	52.900	-0.060	-0.490	1.150	52.920	-2.000	1.400																			1580020317.0	7.60	14.08
26/01/2020 06:31:58	26012020	260120	063158	52.940	12.696127	-57.267755	52.890	0.340	-0.690	0.980	52.920	-2.100	1.300																			1580020318.0	7.77	14.39
26/01/2020 06:31:59	26012020	260120	063159	52.770	12.696148	-57.267728	52.690	0.570	-0.480	0.810	52.720	-1.900	1.200																			1580020319.0	7.37	13.65
26/01/2020 06:32:00	26012020	260120	063200	52.590	12.696170	-57.267703	52.530	0.590	-0.190	0.410	52.570	-1.600	0.800	1014.00	25.70	25.70	20.10	20.20	-1.00	71.00	71.00	429.00	25.50	19.00	9.90	83.00	6.40	15	3220.00	27.40	27.40	1580020320.0	7.14	13.22
26/01/2020 06:32:01	26012020	260120	063201	52.590	12.696195	-57.267680	52.550	0.450	-0.010	-0.310	52.620	-1.400	0.100																			1580020321.0	7.26	13.45
26/01/2020 06:32:02	26012020	260120	063202	52.800	12.696222	-57.267657	52.750	0.220	0.110	-1.080	52.840	-1.300	-0.600																			1580020322.0	7.43	13.76
26/01/2020 06:32:03	26012020	260120	063203	53.020	12.696247	-57.267633	52.960	-0.060	0.240	-1.480	53.060	-1.200	-1.100																			1580020323.0	7.36	13.63
26/01/2020 06:32:04	26012020	260120	063204	53.150	12.696268	-57.267608	53.080	-0.360	0.230	-1.440	53.170	-1.100	-1.100																			1580020324.0	7.16	13.26
26/01/2020 06:32:05	26012020	260120	063205	53.230	12.696288	-57.267580	53.160	-0.550	-0.130	-1.080	53.250	-1.500	-0.800																			1580020325.0	7.31	13.54
26/01/2020 06:32:06	26012020	260120	063206	53.300	12.696308	-57.267550	53.240	-0.540	-0.580	-0.460	53.320	-1.900	-0.200																			1580020326.0	7.66	14.19
26/01/2020 06:32:07	26012020	260120	063207	53.390	12.696325	-57.267518	53.340	-0.340	-0.740	0.200	53.400	-2.100	0.500																			1580020327.0	7.66	14.19
26/01/2020 06:32:08	26012020	260120	063208	53.470	12.696343	-57.267487	53.410	-0.040	-0.520	0.720	53.480	-1.900	1.000																			1580020328.0	7.38	13.67
26/01/2020 06:32:09	26012020	260120	063209	53.480	12.696360	-57.267458	53.400	0.160	-0.070	0.980	53.470	-1.200	1.400																			1580020329.0	7.10	13.15
26/01/2020 06:32:10	26012020	260120	063210	53.370	12.696378	-57.267432	53.260	0.130	0.360	0.950	53.340	-1.100	1.300																			1580020330.0	6.90	12.78
26/01/2020 06:32:11	26012020	260120	063211	53.290	12.696400	-57.267408	53.220	0.000	0.400	0.480	53.300	-1.200	0.400																			1580020331.0	6.96	12.89
26/01/2020 06:32:12	26012020	260120	063212	53.410	12.696425	-57.267383	53.380	0.050	-0.120	-0.340	53.450	-1.400	0.100																			1580020332.0	7.50	13.89
26/01/2020 06:32:13	26012020	260120	063213	53.610	12.696453	-57.267358	53.550	0.320	-0.690	-1.100	53.640	-2.000	-0.700																			1580020333.0	8.03	14.87
26/01/2020 06:32:14	26012020	260120	063214	53.640	12.696480	-57.267332	53.530	0.530	-0.790	-1.410	53.620	-2.200	-1.000																			1580020334.0	7.86	14.56
26/01/2020 06:32:15	26012020	260120	063215	53.530	12.696502	-57.267305	53.440	0.470	-0.510	-1.230	53.510	-1.900	-0.900																			1580020335.0	7.33	13.58
26/01/2020 06:32:16	26012020	260120	063216	53.580	12.696522	-57.267278	53.560	0.180	-0.210	-0.940	53.630	-1.600	-0.600																			1580020336.0	7.12	13.19
26/01/2020 06:32:17	26012020	260120	063217	53.840	12.696540	-57.267250	53.820	-0.150	0.090	-0.630	53.880	-1.300	-0.300																			1580020337.0	7.21	13.35
26/01/2020 06:32:18	26012020	260120	063218	53.980	12.696558	-57.267222	53.920	-0.450	0.510	-0.100	53.980	-0.900	0.200																			1580020338.0	7.08	13.11
26/01/2020 06:32:19	26012020	260120	063219	53.900	12.696573	-57.267193	53.840	-0.640	0.710	0.500	53.880	-0.700	0.800																			1580020339.0	6.86	12.70
26/01/2020 06:32:20	26012020	260120	063220	53.770	12.696592	-57.267165	53.730	-0.600	0.270	0.920	53.760	-1.000	1.200																			1580020340.0	7.13	13.20
26/01/2020 06:32:21	26012020	260120	063221	53.760	12.696613	-57.267135	53.740	-0.290	-0.640	0.950	53.780	-1.900	1.300																			1580020341.0	7.78	14.41
26/01/2020 06:32:22	26012020	260120	063222	53.920	12.696637	-57.267105	53.910	0.090	-1.270	0.650	53.970	-2.600	1.000																			1580020342.0	8.11	15.02
26/01/2020 06:32:23	26012020	260120	063223	54.150	12.696658	-57.267077	54.110	0.300	-1.000	0.260	54.170	-2.400	0.600																			1580020343.0	7.66	14.19
26/01/2020 06:32:24	26012020	260120	063224	54.210	12.696680	-57.267053	54.110	0.220	-0.010	-0.030	54.200	-1.500	0.300																			1580020344.0	6.73	12.46
26/01/2020 06:32:25	26012020	260120	063225	54.120	12.696698	-57.267030	54.030	0.050	0.690	-0.280	54.110	-0.700	0.100																			1580020345.0	6.27	11.61
26/01/2020 06:32:26	26012020	260120	063226	54.110	12.696720	-57.267005	54.040	0.150	0.310	-0.710	54.110	-1.000	-0.300																			1580020346.0	6.95	12.87
26/01/2020 06:32:27	26012020	260120	063227	54.140	12.696745	-57.266977	54.060	0.500	-0.650	-1.140	54.130	-2.000	-0.700																			1580020347.0	8.19	15.17
26/01/2020 06:32:28	26012020	260120	063228	54.060	12.696772	-57.266948	53.970	0.650	-0.900	-1.270	54.040	-2.300	-0.900																			1580020348.0	8.37	15.50
26/01/2020 06:32:29	26012020	260120	063229	53.950	12.696793	-57.266922	53.890	0.320	-0.220	-0.980	53.950	-1.700	-0.700																			1580020349.0	7.24	13.41
26/01/2020 06:32:30	26012020	260120	063230	54.030	12.696810	-57.266897	54.020	-0.270	0.480	-0.510	54.070	-0.900	-0.200																			1580020350.0	6.42	11.89
26/01/2020 06:32:31	26012020	260120	063231	54.280	12.696827	-57.266870	54.290	-0.680	0.490	-0.120	54.340	-0.900	0.200																			1580020351.0	6.74	12.48
26/01/2020 06:32:32	26012020	260120	063232	54.530	12.696845	-57.266840	54.530	-0.670	0.020	0.220	54.550	-1.300	0.500																			1580020352.0	7.46	13.82
26/01/2020 06:32:33	26012020	260120	063233	54.540	12.696865	-57.266808	54.490	-0.430	-0.270	0.680	54.520	-1.700	1.300																			1580020353.0	7.70	14.26
26/01/2020 06:32:34	26012020	260120	063234	54.380	12.696882	-57.266778	54.310	-0.210	-0.250	1.070	54.350	-1.600	1.400																			1580020354.0	7.31	13.54
26/01/2020 06:32:35	26012020	260120	063235	54.260	12.696900	-57.266752	54.190	-0.070	-0.260	1.050	54.260	-1.600	1.400																			1580020355.0	6.99	12.95
26/01/2020 06:32:36	26012020	260120	063236	54.310	12.696922	-57.266725	54.260	0.170	-0.580	0.540	54.330	-1.900	0.900																			1580020356.0	7.25	13.43
26/01/2020 06:32:37	26012020	260120	063237	54.390	12.696947	-57.266698	54.310	0.520	-0.830	-0.100	54.400	-2.200	0.300																			1580020357.0	7.73	14.32
26/01/2020 06:32:38	26012020	260120	063238	54.380	12.696972	-57.266673	54.250	0.680	-0.530	-0.560	54.360	-2.000	-0.200																			1580020358.0	7.56	14.00
26/01/2020 06:32:39	26012020	260120	063239	54.310	12.696992	-57.266648	54.190	0.480	0.100	-0.810	54.300	-1.300	-0.400																			1580020359.0	6.95	12.87
26/01/2020 06:32:40	26012020	260120	063240	54.330	12.697012	-57.266623	54.250	0.050	0.460	-0.960	54.350	-0.900	-0.600																			1580020360.0	6.75	12.50
26/01/2020 06:32:41	26012020	260120	063241	54.400	12.697033	-57.266597	54.320	-0.320	0.350	-1.030	54.400	-1.000	-0.700																			1580020361.0	7.12	13.19
26/01/2020 06:32:42	26012020	260120	063242	54.370	12.697055	-57.266570	54.280	-0.470	0.020	-0.910	54.360	-1.300	-0.600																			1580020362.0	7.48	13.85
26/01/2020 06:32:43	26012020	260120	063243	54.320	12.697075	-57.266540	54.260	-0.380	-0.300	-0.580	54.330	-1.700	-0.300																			1580020363.0	7.53	13.95
26/01/2020 06:32:44	26012020	260120	063244	54.420	12.697095	-57.266512	54.400	-0.140	-0.550	-0.150	54.450	-1.900	0.200																			1580020364.0	7.52	13.93
26/01/2020 06:32:45	26012020	260120	063245	54.540	12.697112	-57.266480	54.500	0.040	-0.500	0.310	54.540	-1.900	0.600																			1580020365.0	7.43	13.76
26/01/2020 06:32:46	26012020	260120	063246	54.500	12.697128	-57.266452	54.430	-0.010	-0.100	0.740	54.470	-1.500	1.000																			1580020366.0	7.09	13.13
26/01/2020 06:32:47	26012020	260120	063247	54.360	12.697145	-57.266425	54.280	-0.190	0.280	0.970	54.330	-1.100	1.300																			1580020367.0	6.72	12.45
26/01/2020 06:32:48	26012020	260120	063248	54.260	12.697163	-57.266398	54.200	-0.200	0.170	0.790	54.250	-1.200	1.200																			1580020368.0	6.85	12.69
26/01/2020 06:32:49	26012020	260120	063249	54.260	12.697187	-57.266372	54.220	0.130	-0.450	0.230	54.270	-1.800	0.600																			1580020369.0	7.52	13.93
26/01/2020 06:32:50	26012020	260120	063250	54.280	12.697212	-57.266343	54.230	0.600	-0.990	-0.400	54.280	-2.300	0.000																			1580020370.0	8.06	14.93
26/01/2020 06:32:51	26012020	260120	063251	54.290	12.697238	-57.266317	54.220	0.790	-0.880	-0.870	54.300	-2.300	-0.500																			1580020371.0	7.86	14.56
26/01/2020 06:32:52	26012020	260120	063252	54.330	12.697260	-57.266292	54.240	0.480	-0.120	-1.010	54.330	-1.600	-0.700																			1580020372.0	7.16	13.26
26/01/2020 06:32:53	26012020	260120	063253	54.310	12.697280	-57.266268	54.200	-0.200	0.790	-0.780	54.280	-0.700	-0.500																			1580020373.0	6.49	12.02
26/01/2020 06:32:54	26012020	260120	063254	54.170	12.697295	-57.266243	54.100	-0.820	1.140	-0.300	54.150	-0.200	0.000																			1580020374.0	6.40	11.85
26/01/2020 06:32:55	26012020	260120	063255	54.150	12.697312	-57.266213	54.130	-0.910	0.460	0.080	54.170	-0.800	0.400																			1580020375.0	7.08	13.11
26/01/2020 06:32:56	26012020	260120	063256	54.270	12.697332	-57.266182	54.260	-0.460	-0.760	0.300	54.290	-2.000	0.600																			1580020376.0	8.05	14.91
26/01/2020 06:32:57	26012020	260120	063257	54.320	12.697353	-57.266148	54.260	0.100	-1.410	0.400	54.310	-2.800	0.700																			1580020377.0	8.28	15.33
26/01/2020 06:32:58	26012020	260120	063258	54.200	12.697373	-57.266120	54.100	0.360	-0.920	0.540	54.150	-2.400	0.900																			1580020378.0	7.40	13.70
26/01/2020 06:32:59	26012020	260120	063259	53.970	12.697390	-57.266095	53.860	0.300	0.050	0.630	53.920	-1.000	0.900																			1580020379.0	6.36	11.78
26/01/2020 06:33:00	26012020	260120	063300	53.820	12.697410	-57.266072	53.750	0.230	0.400	0.390	53.810	-1.000	0.800	1014.00	25.70	25.70	20.20	20.20	-1.00	71.00	71.00	429.00	25.50	18.00	9.90	83.00	6.50	15	3288.00	27.40	27.40	1580020380.0	6.38	11.82
26/01/2020 06:33:01	26012020	260120	063301	53.860	12.697433	-57.266047	53.820	0.260	-0.040	-0.160	53.880	-1.700	-0.100																			1580020381.0	7.37	13.65
26/01/2020 06:33:02	26012020	260120	063302	54.010	12.697458	-57.266018	53.970	0.270	-0.480	-0.650	54.040	-1.800	-0.300																			1580020382.0	8.00	14.82
26/01/2020 06:33:03	26012020	260120	063303	54.090	12.697482	-57.265992	54.010	0.090	-0.320	-0.760	54.080	-1.800	-0.400																			1580020383.0	7.61	14.09
26/01/2020 06:33:04	26012020	260120	063304	53.980	12.697500	-57.265965	53.870	-0.180	0.170	-0.560	53.950	-1.300	-0.200																			1580020384.0	6.92	12.82
26/01/2020 06:33:05	26012020	260120	063305	53.820	12.697518	-57.265938	53.720	-0.310	0.400	-0.290	53.790	-1.000	0.000																			1580020385.0	6.69	12.39
26/01/2020 06:33:06	26012020	260120	063306	53.720	12.697537	-57.265912	53.650	-0.200	0.050	-0.070	53.710	-1.300	0.300																			1580020386.0	7.13	13.20
26/01/2020 06:33:07	26012020	260120	063307	53.720	12.697557	-57.265882	53.680	0.040	-0.550	0.050	53.740	-1.900	0.400																			1580020387.0	7.67	14.20
26/01/2020 06:33:08	26012020	260120	063308	53.800	12.697578	-57.265852	53.740	0.220	-0.800	0.110	53.810	-2.200	0.400																			1580020388.0	7.77	14.39
26/01/2020 06:33:09	26012020	260120	063309	53.810	12.697600	-57.265825	53.760	0.180	-0.400	0.190	53.800	-1.800	0.500																			1580020389.0	7.27	13.46
26/01/2020 06:33:10	26012020	260120	063310	53.800	12.697618	-57.265800	53.770	-0.080	0.190	0.290	53.810	-1.200	0.600																			1580020390.0	6.68	12.37
26/01/2020 06:33:11	26012020	260120	063311	53.850	12.697637	-57.265773	53.820	-0.310	0.370	0.300	53.860	-1.000	0.700																			1580020391.0	6.72	12.45
26/01/2020 06:33:12	26012020	260120	063312	53.860	12.697657	-57.265747	53.820	-0.350	0.130	0.280	53.840	-1.200	0.600																			1580020392.0	7.17	13.28
26/01/2020 06:33:13	26012020	260120	063313	53.800	12.697677	-57.265718	53.760	-0.200	-0.240	0.200	53.790	-1.600	0.600																			1580020393.0	7.48	13.85
26/01/2020 06:33:14	26012020	260120	063314	53.790	12.697698	-57.265690	53.750	0.040	-0.550	0.030	53.790	-1.900	0.400																			1580020394.0	7.50	13.89
26/01/2020 06:33:15	26012020	260120	063315	53.880	12.697720	-57.265663	53.860	0.310	-0.720	-0.290	53.900	-2.100	0.100																			1580020395.0	7.47	13.83
26/01/2020 06:33:16	26012020	260120	063316	53.960	12.697743	-57.265637	53.910	0.480	-0.570	-0.520	53.950	-2.000	-0.200																			1580020396.0	7.39	13.69
26/01/2020 06:33:17	26012020	260120	063317	53.850	12.697763	-57.265610	53.760	0.440	-0.130	-0.490	53.810	-1.600	-0.100																			1580020397.0	7.09	13.13
26/01/2020 06:33:18	26012020	260120	063318	53.650	12.697783	-57.265585	53.580	0.240	0.200	-0.390	53.620	-1.200	-0.000																			1580020398.0	6.93	12.83
26/01/2020 06:33:19	26012020	260120	063319	53.530	12.697805	-57.265558	53.470	-0.010	0.170	-0.370	53.530	-1.200	-0.000																			1580020399.0	7.20	13.33
26/01/2020 06:33:20	26012020	260120	063320	53.590	12.697828	-57.265532	53.550	-0.200	0.010	-0.440	53.620	-1.400	-0.100																			1580020400.0	7.47	13.83
26/01/2020 06:33:21	26012020	260120	063321	53.840	12.697848	-57.265503	53.820	-0.300	-0.090	-0.400	53.890	-1.500	-0.100																			1580020401.0	7.40	13.70
26/01/2020 06:33:22	26012020	260120	063322	54.040	12.697868	-57.265475	53.990	-0.310	-0.100	-0.080	54.050	-1.500	0.200																			1580020402.0	7.28	13.48
26/01/2020 06:33:23	26012020	260120	063323	54.010	12.697885	-57.265447	53.950	-0.300	-0.050	0.400	54.000	-1.400	1.000																			1580020403.0	7.20	13.33
26/01/2020 06:33:24	26012020	260120	063324	53.930	12.697902	-57.265417	53.860	-0.280	-0.080	0.780	53.910	-1.500	1.100																			1580020404.0	7.14	13.22
26/01/2020 06:33:25	26012020	260120	063325	53.890	12.697920	-57.265388	53.850	-0.180	-0.270	0.860	53.890	-1.800	1.100																			1580020405.0	7.22	13.37
26/01/2020 06:33:26	26012020	260120	063326	53.880	12.697940	-57.265360	53.800	0.060	-0.510	0.660	53.870	-1.900	1.000																			1580020406.0	7.40	13.70
26/01/2020 06:33:27	26012020	260120	063327	53.750	12.697963	-57.265332	53.630	0.320	-0.560	0.310	53.720	-2.000	0.700																			1580020407.0	7.47	13.83
26/01/2020 06:33:28	26012020	260120	063328	53.550	12.697985	-57.265307	53.420	0.430	-0.390	-0.070	53.510	-1.800	0.300																			1580020408.0	7.34	13.59
26/01/2020 06:33:29	26012020	260120	063329	53.400	12.698008	-57.265282	53.300	0.360	-0.140	-0.460	53.390	-1.600	-0.100																			1580020409.0	7.20	13.33
26/01/2020 06:33:30	26012020	260120	063330	53.440	12.698032	-57.265258	53.380	0.240	0.010	-0.850	53.470	-1.400	-0.400																			1580020410.0	7.18	13.30
26/01/2020 06:33:31	26012020	260120	063331	53.570	12.698055	-57.265232	53.480	0.130	-0.010	-1.160	53.590	-1.400	-0.800																			1580020411.0	7.34	13.59
26/01/2020 06:33:32	26012020	260120	063332	53.620	12.698077	-57.265205	53.510	0.030	-0.100	-1.160	53.620	-1.500	-0.800																			1580020412.0	7.44	13.78
26/01/2020 06:33:33	26012020	260120	063333	53.620	12.698098	-57.265177	53.550	-0.070	-0.170	-0.730	53.640	-1.500	-0.400																			1580020413.0	7.46	13.82
26/01/2020 06:33:34	26012020	260120	063334	53.730	12.698117	-57.265147	53.710	-0.240	-0.120	-0.170	53.770	-1.500	0.100																			1580020414.0	7.40	13.70
26/01/2020 06:33:35	26012020	260120	063335	53.840	12.698133	-57.265118	53.810	-0.460	0.050	0.390	53.850	-1.400	0.700																			1580020415.0	7.23	13.39
26/01/2020 06:33:36	26012020	260120	063336	53.790	12.698150	-57.265088	53.750	-0.580	0.200	0.970	53.770	-1.200	1.300																			1580020416.0	7.05	13.06
26/01/2020 06:33:37	26012020	260120	063337	53.640	12.698167	-57.265060	53.600	-0.460	0.110	1.340	53.610	-1.500	1.700																			1580020417.0	7.08	13.11
26/01/2020 06:33:38	26012020	260120	063338	53.530	12.698185	-57.265030	53.480	-0.110	-0.330	1.200	53.520	-1.700	1.600																			1580020418.0	7.35	13.61
26/01/2020 06:33:39	26012020	260120	063339	53.470	12.698208	-57.265002	53.400	0.320	-0.800	0.690	53.450	-2.200	1.100																			1580020419.0	7.71	14.28
26/01/2020 06:33:40	26012020	260120	063340	53.370	12.698233	-57.264977	53.280	0.630	-0.880	0.040	53.360	-2.300	0.500																			1580020420.0	7.75	14.35
26/01/2020 06:33:41	26012020	260120	063341	53.370	12.698258	-57.264952	53.310	0.680	-0.530	-0.680	53.400	-2.000	-0.300																			1580020421.0	7.45	13.80
26/01/2020 06:33:42	26012020	260120	063342	53.550	12.698283	-57.264930	53.490	0.450	-0.010	-1.190	53.590	-1.500	-0.800																			1580020422.0	7.15	13.24
26/01/2020 06:33:43	26012020	260120	063343	53.670	12.698305	-57.264905	53.580	0.000	0.530	-1.180	53.670	-0.900	-0.800																			1580020423.0	6.92	12.82
26/01/2020 06:33:44	26012020	260120	063344	53.620	12.698323	-57.264878	53.530	-0.500	0.750	-0.780	53.600	-0.600	-0.500																			1580020424.0	6.81	12.61
26/01/2020 06:33:45	26012020	260120	063345	53.530	12.698340	-57.264850	53.480	-0.750	0.280	-0.290	53.530	-1.000	0.000																			1580020425.0	7.17	13.28
26/01/2020 06:33:46	26012020	260120	063346	53.550	12.698360	-57.264818	53.530	-0.520	-0.710	0.070	53.560	-2.000	0.400																			1580020426.0	7.90	14.63
26/01/2020 06:33:47	26012020	260120	063347	53.600	12.698380	-57.264785	53.550	0.010	-1.280	0.330	53.600	-2.700	0.700																			1580020427.0	8.26	15.30
26/01/2020 06:33:48	26012020	260120	063348	53.500	12.698400	-57.264755	53.410	0.390	-0.800	0.590	53.460	-2.300	0.900																			1580020428.0	7.61	14.09
26/01/2020 06:33:49	26012020	260120	063349	53.290	12.698418	-57.264730	53.180	0.370	0.210	0.760	53.250	-0.800	1.100																			1580020429.0	6.55	12.13
26/01/2020 06:33:50	26012020	260120	063350	53.130	12.698437	-57.264707	53.050	0.140	0.680	0.570	53.120	-0.700	1.000																			1580020430.0	6.34	11.74
26/01/2020 06:33:51	26012020	260120	063351	53.180	12.698460	-57.264682	53.130	0.060	0.200	-0.030	53.210	-1.600	-0.100																			1580020431.0	7.23	13.39
26/01/2020 06:33:52	26012020	260120	063352	53.370	12.698487	-57.264655	53.310	0.110	-0.440	-0.680	53.390	-1.800	-0.300																			1580020432.0	8.09	14.98
26/01/2020 06:33:53	26012020	260120	063353	53.470	12.698512	-57.264628	53.360	0.060	-0.470	-0.940	53.470	-1.900	-0.600																			1580020433.0	7.79	14.43
26/01/2020 06:33:54	26012020	260120	063354	53.410	12.698532	-57.264602	53.320	-0.190	-0.120	-0.730	53.390	-1.600	-0.400																			1580020434.0	7.01	12.98
26/01/2020 06:33:55	26012020	260120	063355	53.350	12.698548	-57.264575	53.280	-0.440	0.040	-0.370	53.350	-1.400	-0.000																			1580020435.0	6.82	12.63
26/01/2020 06:33:56	26012020	260120	063356	53.400	12.698567	-57.264547	53.360	-0.470	-0.100	-0.120	53.420	-1.500	0.200																			1580020436.0	7.15	13.24
26/01/2020 06:33:57	26012020	260120	063357	53.430	12.698587	-57.264518	53.360	-0.220	-0.320	0.090	53.410	-1.700	0.400																			1580020437.0	7.42	13.74
26/01/2020 06:33:58	26012020	260120	063358	53.270	12.698607	-57.264488	53.170	0.140	-0.400	0.320	53.230	-1.800	0.700																			1580020438.0	7.43	13.76
26/01/2020 06:33:59	26012020	260120	063359	53.110	12.698627	-57.264462	53.040	0.430	-0.400	0.350	53.100	-1.800	0.700																			1580020439.0	7.33	13.58
26/01/2020 06:34:00	26012020	260120	063400	53.150	12.698650	-57.264435	53.120	0.540	-0.400	0.150	53.180	-1.800	0.500	1014.00	25.70	25.70	20.10	20.20	0.00	71.00	71.00	429.00	25.50	21.00	9.50	87.00	6.10	15	3226.00	27.40	27.40	1580020440.0	7.38	13.67
26/01/2020 06:34:01	26012020	260120	063401	53.310	12.698673	-57.264408	53.280	0.450	-0.270	-0.140	53.340	-1.700	0.200																			1580020441.0	7.45	13.80
26/01/2020 06:34:02	26012020	260120	063402	53.440	12.698695	-57.264383	53.390	0.200	0.140	-0.240	53.450	-1.300	0.100																			1580020442.0	7.21	13.35
26/01/2020 06:34:03	26012020	260120	063403	53.490	12.698715	-57.264358	53.450	-0.160	0.470	-0.120	53.500	-0.900	0.200																			1580020443.0	6.86	12.70
26/01/2020 06:34:04	26012020	260120	063404	53.540	12.698735	-57.264332	53.490	-0.470	0.280	0.040	53.550	-1.100	0.400																			1580020444.0	7.07	13.09
26/01/2020 06:34:05	26012020	260120	063405	53.560	12.698755	-57.264302	53.500	-0.590	-0.230	0.080	53.560	-1.600	0.400																			1580020445.0	7.54	13.96
26/01/2020 06:34:06	26012020	260120	063406	53.550	12.698777	-57.264273	53.490	-0.480	-0.540	0.100	53.550	-1.900	0.400																			1580020446.0	7.63	14.13
26/01/2020 06:34:07	26012020	260120	063407	53.590	12.698795	-57.264245	53.540	-0.170	-0.520	0.150	53.610	-1.900	0.500																			1580020447.0	7.31	13.54
26/01/2020 06:34:08	26012020	260120	063408	53.660	12.698813	-57.264217	53.590	0.160	-0.410	0.080	53.660	-1.800	0.400																			1580020448.0	7.13	13.20
26/01/2020 06:34:09	26012020	260120	063409	53.590	12.698835	-57.264190	53.480	0.360	-0.360	-0.170	53.560	-1.800	0.200																			1580020449.0	7.24	13.41
26/01/2020 06:34:10	26012020	260120	063410	53.450	12.698860	-57.264165	53.350	0.440	-0.290	-0.460	53.430	-1.700	-0.100																			1580020450.0	7.42	13.74
26/01/2020 06:34:11	26012020	260120	063411	53.430	12.698883	-57.264140	53.360	0.450	-0.120	-0.680	53.450	-1.500	-0.300																			1580020451.0	7.40	13.70
26/01/2020 06:34:12	26012020	260120	063412	53.570	12.698905	-57.264113	53.520	0.340	0.140	-0.800	53.600	-1.300	-0.400																			1580020452.0	7.20	13.33
26/01/2020 06:34:13	26012020	260120	063413	53.730	12.698927	-57.264088	53.670	0.070	0.300	-0.740	53.750	-1.100	-0.300																			1580020453.0	7.06	13.08
26/01/2020 06:34:14	26012020	260120	063414	53.780	12.698945	-57.264060	53.710	-0.310	0.170	-0.460	53.780	-1.200	-0.100																			1580020454.0	7.16	13.26
26/01/2020 06:34:15	26012020	260120	063415	53.760	12.698965	-57.264032	53.700	-0.540	-0.220	-0.080	53.750	-1.900	0.400																			1580020455.0	7.42	13.74
26/01/2020 06:34:16	26012020	260120	063416	53.780	12.698985	-57.264002	53.750	-0.440	-0.620	0.210	53.790	-2.000	0.500																			1580020456.0	7.64	14.15
26/01/2020 06:34:17	26012020	260120	063417	53.840	12.699005	-57.263972	53.810	-0.100	-0.680	0.500	53.860	-2.100	0.800																			1580020457.0	7.61	14.09
26/01/2020 06:34:18	26012020	260120	063418	53.890	12.699023	-57.263943	53.860	0.150	-0.310	0.740	53.900	-1.700	1.100																			1580020458.0	7.23	13.39
26/01/2020 06:34:19	26012020	260120	063419	53.920	12.699042	-57.263917	53.860	0.130	0.100	0.770	53.900	-1.300	1.100																			1580020459.0	6.89	12.76
26/01/2020 06:34:20	26012020	260120	063420	53.840	12.699060	-57.263890	53.770	-0.020	0.210	0.550	53.820	-1.200	0.900																			1580020460.0	6.95	12.87
26/01/2020 06:34:21	26012020	260120	063421	53.750	12.699083	-57.263863	53.680	-0.030	-0.030	0.100	53.730	-1.400	0.500																			1580020461.0	7.31	13.54
26/01/2020 06:34:22	26012020	260120	063422	53.690	12.699108	-57.263837	53.620	0.200	-0.420	-0.450	53.690	-1.800	-0.100																			1580020462.0	7.71	14.28
26/01/2020 06:34:23	26012020	260120	063423	53.730	12.699133	-57.263810	53.670	0.430	-0.580	-0.880	53.760	-2.000	-0.500																			1580020463.0	7.83	14.50
26/01/2020 06:34:24	26012020	260120	063424	53.880	12.699157	-57.263785	53.820	0.350	-0.270	-1.100	53.920	-1.700	-0.700																			1580020464.0	7.43	13.76
26/01/2020 06:34:25	26012020	260120	063425	54.030	12.699177	-57.263758	53.960	-0.080	0.260	-1.100	54.060	-1.200	-0.800																			1580020465.0	6.88	12.74
26/01/2020 06:34:26	26012020	260120	063426	54.100	12.699195	-57.263733	54.020	-0.570	0.520	-0.810	54.100	-0.900	-0.500																			1580020466.0	6.67	12.35
26/01/2020 06:34:27	26012020	260120	063427	54.090	12.699212	-57.263705	54.030	-0.670	0.180	-0.300	54.090	-1.200	-0.000																			1580020467.0	7.05	13.06
26/01/2020 06:34:28	26012020	260120	063428	54.110	12.699230	-57.263673	54.060	-0.280	-0.570	0.160	54.110	-1.900	0.400																			1580020468.0	7.71	14.28
26/01/2020 06:34:29	26012020	260120	063429	54.100	12.699252	-57.263642	54.040	0.300	-1.070	0.490	54.090	-2.400	1.000																			1580020469.0	8.04	14.89
26/01/2020 06:34:30	26012020	260120	063430	53.980	12.699270	-57.263612	53.910	0.610	-0.840	0.760	53.960	-2.300	1.100																			1580020470.0	7.63	14.13
26/01/2020 06:34:31	26012020	260120	063431	53.900	12.699290	-57.263585	53.850	0.520	-0.180	0.810	53.890	-1.600	1.100																			1580020471.0	6.95	12.87
26/01/2020 06:34:32	26012020	260120	063432	53.870	12.699310	-57.263562	53.820	0.180	0.380	0.560	53.860	-1.100	0.900																			1580020472.0	6.76	12.52
26/01/2020 06:34:33	26012020	260120	063433	53.860	12.699332	-57.263537	53.810	-0.180	0.550	0.140	53.870	-0.800	0.500																			1580020473.0	6.94	12.85
26/01/2020 06:34:34	26012020	260120	063434	53.910	12.699355	-57.263512	53.870	-0.350	0.260	-0.350	53.930	-1.100	0.000																			1580020474.0	7.31	13.54
26/01/2020 06:34:35	26012020	260120	063435	54.030	12.699378	-57.263483	53.980	-0.280	-0.280	-0.740	54.050	-1.600	-0.400																			1580020475.0	7.68	14.22
26/01/2020 06:34:36	26012020	260120	063436	54.140	12.699400	-57.263455	54.070	-0.090	-0.660	-0.920	54.160	-2.000	-0.600																			1580020476.0	7.79	14.43
26/01/2020 06:34:37	26012020	260120	063437	54.150	12.699420	-57.263425	54.050	0.020	-0.540	-0.840	54.140	-1.700	-0.400																			1580020477.0	7.49	13.87
26/01/2020 06:34:38	26012020	260120	063438	54.010	12.699438	-57.263398	53.900	-0.050	-0.070	-0.620	53.980	-1.500	-0.300																			1580020478.0	6.98	12.93
26/01/2020 06:34:39	26012020	260120	063439	53.860	12.699457	-57.263372	53.770	-0.180	0.290	-0.470	53.840	-1.100	-0.100																			1580020479.0	6.72	12.45
26/01/2020 06:34:40	26012020	260120	063440	53.830	12.699477	-57.263347	53.770	-0.160	0.200	-0.360	53.840	-1.200	-0.000																			1580020480.0	6.95	12.87
26/01/2020 06:34:41	26012020	260120	063441	53.900	12.699498	-57.263318	53.820	0.120	-0.350	-0.240	53.900	-2.100	0.200																			1580020481.0	7.47	13.83
26/01/2020 06:34:42	26012020	260120	063442	53.820	12.699520	-57.263288	53.710	0.420	-0.850	0.010	53.790	-2.200	0.300																			1580020482.0	7.88	14.59
26/01/2020 06:34:43	26012020	260120	063443	53.650	12.699542	-57.263258	53.550	0.440	-0.850	0.290	53.630	-2.300	0.600																			1580020483.0	7.74	14.33
26/01/2020 06:34:44	26012020	260120	063444	53.620	12.699562	-57.263232	53.570	0.180	-0.400	0.530	53.640	-1.900	0.800																			1580020484.0	7.25	13.43
26/01/2020 06:34:45	26012020	260120	063445	53.810	12.699580	-57.263205	53.810	-0.090	0.190	0.540	53.870	-1.300	0.900																			1580020485.0	6.91	12.80
26/01/2020 06:34:46	26012020	260120	063446	54.030	12.699598	-57.263178	53.990	-0.220	0.690	0.470	54.040	-0.800	0.800																			1580020486.0	6.84	12.67
26/01/2020 06:34:47	26012020	260120	063447	53.990	12.699617	-57.263152	53.900	-0.250	0.770	0.410	53.950	-0.600	0.800																			1580020487.0	6.88	12.74
26/01/2020 06:34:48	26012020	260120	063448	53.790	12.699637	-57.263123	53.690	-0.160	0.150	0.250	53.760	-1.200	0.600																			1580020488.0	7.30	13.52
26/01/2020 06:34:49	26012020	260120	063449	53.690	12.699662	-57.263095	53.600	0.050	-0.770	-0.140	53.690	-2.100	0.200																			1580020489.0	7.95	14.72
26/01/2020 06:34:50	26012020	260120	063450	53.780	12.699687	-57.263067	53.730	0.270	-1.220	-0.720	53.820	-2.600	-0.300																			1580020490.0	8.09	14.98
26/01/2020 06:34:51	26012020	260120	063451	53.930	12.699712	-57.263042	53.830	0.330	-0.820	-1.060	53.940	-2.300	-0.700																			1580020491.0	7.49	13.87
26/01/2020 06:34:52	26012020	260120	063452	53.880	12.699732	-57.263017	53.750	0.110	0.030	-0.960	53.860	-1.400	-0.600																			1580020492.0	6.70	12.41
26/01/2020 06:34:53	26012020	260120	063453	53.730	12.699748	-57.262992	53.620	-0.250	0.580	-0.590	53.700	-0.800	-0.300																			1580020493.0	6.46	11.96
26/01/2020 06:34:54	26012020	260120	063454	53.620	12.699767	-57.262965	53.530	-0.440	0.380	-0.210	53.600	-1.000	0.100																			1580020494.0	7.00	12.96
26/01/2020 06:34:55	26012020	260120	063455	53.520	12.699787	-57.262935	53.420	-0.320	-0.170	0.110	53.510	-1.500	0.400																			1580020495.0	7.69	14.24
26/01/2020 06:34:56	26012020	260120	063456	53.500	12.699807	-57.262905	53.440	0.010	-0.580	0.350	53.510	-1.900	0.700																			1580020496.0	7.81	14.46
26/01/2020 06:34:57	26012020	260120	063457	53.640	12.699828	-57.262875	53.610	0.350	-0.730	0.460	53.680	-2.100	0.800																			1580020497.0	7.59	14.06
26/01/2020 06:34:58	26012020	260120	063458	53.810	12.699848	-57.262847	53.760	0.490	-0.490	0.460	53.830	-1.900	0.800																			1580020498.0	7.41	13.72
26/01/2020 06:34:59	26012020	260120	063459	53.820	12.699867	-57.262820	53.740	0.270	0.170	0.480	53.800	-1.300	0.800																			1580020499.0	6.95	12.87
26/01/2020 06:35:00	26012020	260120	063500	53.690	12.699885	-57.262795	53.610	-0.130	0.620	0.470	53.670	-0.800	0.800	1014.00	25.70	25.70	20.20	20.20	0.00	71.00	71.00	429.00	25.50	20.00	9.70	86.00	6.40	15	3243.00	27.40	27.40	1580020500.0	6.55	12.13
26/01/2020 06:35:01	26012020	260120	063501	53.580	12.699907	-57.262770	53.500	-0.330	0.320	0.250	53.560	-1.000	0.600																			1580020501.0	6.97	12.91
26/01/2020 06:35:02	26012020	260120	063502	53.450	12.699930	-57.262742	53.350	-0.160	-0.440	-0.060	53.430	-1.800	0.300																			1580020502.0	7.78	14.41
26/01/2020 06:35:03	26012020	260120	063503	53.340	12.699955	-57.262713	53.250	0.180	-0.940	-0.370	53.320	-2.300	-0.200																			1580020503.0	8.07	14.95
26/01/2020 06:35:04	26012020	260120	063504	53.310	12.699978	-57.262685	53.230	0.300	-0.720	-0.550	53.310	-2.200	-0.200																			1580020504.0	7.64	14.15
26/01/2020 06:35:05	26012020	260120	063505	53.360	12.699997	-57.262660	53.300	0.040	0.020	-0.550	53.380	-1.400	-0.200																			1580020505.0	6.82	12.63
26/01/2020 06:35:06	26012020	260120	063506	53.490	12.700015	-57.262637	53.440	-0.330	0.530	-0.560	53.520	-0.900	-0.200																			1580020506.0	6.45	11.95
26/01/2020 06:35:07	26012020	260120	063507	53.650	12.700035	-57.262610	53.600	-0.400	0.320	-0.630	53.680	-1.000	-0.300																			1580020507.0	6.90	12.78
26/01/2020 06:35:08	26012020	260120	063508	53.770	12.700057	-57.262582	53.690	-0.130	-0.220	-0.520	53.770	-1.600	-0.200																			1580020508.0	7.63	14.13
26/01/2020 06:35:09	26012020	260120	063509	53.740	12.700077	-57.262552	53.650	0.130	-0.500	-0.190	53.720	-1.900	0.100																			1580020509.0	7.74	14.33
26/01/2020 06:35:10	26012020	260120	063510	53.640	12.700097	-57.262523	53.540	0.140	-0.420	0.090	53.610	-1.800	0.400																			1580020510.0	7.34	13.59
26/01/2020 06:35:11	26012020	260120	063511	53.480	12.700115	-57.262497	53.370	0.040	-0.200	0.330	53.440	-1.600	0.600																			1580020511.0	7.01	12.98
26/01/2020 06:35:12	26012020	260120	063512	53.370	12.700135	-57.262470	53.300	0.060	-0.160	0.370	53.370	-1.500	0.700																			1580020512.0	7.00	12.96
26/01/2020 06:35:13	26012020	260120	063513	53.460	12.700157	-57.262443	53.420	0.250	-0.370	0.170	53.490	-1.700	0.500																			1580020513.0	7.37	13.65
26/01/2020 06:35:14	26012020	260120	063514	53.610	12.700180	-57.262415	53.560	0.350	-0.420	0.000	53.640	-1.800	0.300																			1580020514.0	7.60	14.08
26/01/2020 06:35:15	26012020	260120	063515	53.690	12.700200	-57.262387	53.610	0.130	-0.090	-0.120	53.690	-1.200	0.200																			1580020515.0	7.27	13.46
26/01/2020 06:35:16	26012020	260120	063516	53.670	12.700220	-57.262362	53.590	-0.280	0.290	-0.230	53.660	-1.100	0.100																			1580020516.0	6.87	12.72
26/01/2020 06:35:17	26012020	260120	063517	53.610	12.700240	-57.262337	53.520	-0.550	0.350	-0.300	53.590	-1.000	0.000																			1580020517.0	6.90	12.78
26/01/2020 06:35:18	26012020	260120	063518	53.580	12.700262	-57.262310	53.490	-0.490	0.030	-0.380	53.580	-1.300	-0.000																			1580020518.0	7.29	13.50
26/01/2020 06:35:19	26012020	260120	063519	53.580	12.700283	-57.262282	53.490	-0.180	-0.340	-0.440	53.580	-1.700	-0.100																			1580020519.0	7.53	13.95
26/01/2020 06:35:20	26012020	260120	063520	53.580	12.700303	-57.262253	53.500	0.170	-0.560	-0.450	53.580	-1.900	-0.100																			1580020520.0	7.46	13.82
26/01/2020 06:35:21	26012020	260120	063521	53.610	12.700325	-57.262225	53.540	0.430	-0.650	-0.440	53.610	-2.000	-0.100																			1580020521.0	7.38	13.67
26/01/2020 06:35:22	26012020	260120	063522	53.630	12.700347	-57.262198	53.550	0.490	-0.500	-0.330	53.620	-1.900	0.000																			1580020522.0	7.33	13.58
26/01/2020 06:35:23	26012020	260120	063523	53.550	12.700367	-57.262172	53.460	0.280	-0.140	-0.160	53.530	-1.600	0.200																			1580020523.0	7.11	13.17
26/01/2020 06:35:24	26012020	260120	063524	53.480	12.700387	-57.262145	53.400	-0.040	0.150	-0.050	53.480	-1.300	0.300																			1580020524.0	6.98	12.93
26/01/2020 06:35:25	26012020	260120	063525	53.500	12.700407	-57.262118	53.430	-0.260	0.220	-0.010	53.520	-1.200	0.300																			1580020525.0	7.12	13.19
26/01/2020 06:35:26	26012020	260120	063526	53.570	12.700427	-57.262092	53.500	-0.340	0.160	0.030	53.580	-1.200	0.400																			1580020526.0	7.27	13.46
26/01/2020 06:35:27	26012020	260120	063527	53.580	12.700447	-57.262063	53.500	-0.320	-0.070	0.080	53.570	-1.400	0.400																			1580020527.0	7.32	13.56
26/01/2020 06:35:28	26012020	260120	063528	53.560	12.700467	-57.262035	53.480	-0.200	-0.370	0.110	53.550	-1.700	0.400																			1580020528.0	7.50	13.89
26/01/2020 06:35:29	26012020	260120	063529	53.540	12.700488	-57.262007	53.470	-0.060	-0.400	0.120	53.540	-1.700	0.400																			1580020529.0	7.45	13.80
26/01/2020 06:35:30	26012020	260120	063530	53.570	12.700508	-57.261980	53.510	0.020	-0.210	-0.050	53.590	-1.600	0.300																			1580020530.0	7.09	13.13
26/01/2020 06:35:31	26012020	260120	063531	53.660	12.700528	-57.261953	53.600	0.110	-0.130	-0.350	53.670	-1.600	-0.100																			1580020531.0	6.98	12.93
26/01/2020 06:35:32	26012020	260120	063532	53.670	12.700550	-57.261928	53.570	0.270	-0.260	-0.540	53.660	-1.600	-0.200																			1580020532.0	7.27	13.46
26/01/2020 06:35:33	26012020	260120	063533	53.560	12.700573	-57.261902	53.450	0.410	-0.390	-0.600	53.540	-1.800	-0.200																			1580020533.0	7.51	13.91
26/01/2020 06:35:34	26012020	260120	063534	53.470	12.700597	-57.261875	53.380	0.410	-0.390	-0.560	53.460	-1.800	-0.200																			1580020534.0	7.47	13.83
26/01/2020 06:35:35	26012020	260120	063535	53.500	12.700618	-57.261847	53.450	0.240	-0.270	-0.460	53.530	-1.700	-0.100																			1580020535.0	7.33	13.58
26/01/2020 06:35:36	26012020	260120	063536	53.640	12.700637	-57.261820	53.590	-0.090	-0.020	-0.310	53.660	-1.400	0.000																			1580020536.0	7.21	13.35
26/01/2020 06:35:37	26012020	260120	063537	53.710	12.700657	-57.261792	53.650	-0.490	0.300	-0.010	53.710	-1.100	0.300																			1580020537.0	7.04	13.04
26/01/2020 06:35:38	26012020	260120	063538	53.710	12.700673	-57.261765	53.670	-0.750	0.370	0.320	53.720	-1.000	0.600																			1580020538.0	6.99	12.95
26/01/2020 06:35:39	26012020	260120	063539	53.760	12.700693	-57.261737	53.730	-0.670	0.050	0.430	53.780	-1.300	0.800																			1580020539.0	7.26	13.45
26/01/2020 06:35:40	26012020	260120	063540	53.830	12.700713	-57.261707	53.770	-0.220	-0.360	0.340	53.830	-1.700	0.700																			1580020540.0	7.57	14.02
26/01/2020 06:35:41	26012020	260120	063541	53.810	12.700733	-57.261678	53.720	0.330	-0.600	0.170	53.790	-2.000	0.500																			1580020541.0	7.56	14.00
26/01/2020 06:35:42	26012020	260120	063542	53.710	12.700755	-57.261650	53.610	0.650	-0.590	-0.040	53.700	-2.000	0.300																			1580020542.0	7.41	13.72
26/01/2020 06:35:43	26012020	260120	063543	53.660	12.700778	-57.261625	53.540	0.610	-0.420	-0.350	53.660	-1.800	0.000																			1580020543.0	7.23	13.39
26/01/2020 06:35:44	26012020	260120	063544	53.660	12.700800	-57.261600	53.530	0.320	-0.160	-0.690	53.650	-1.600	-0.300																			1580020544.0	7.19	13.32
26/01/2020 06:35:45	26012020	260120	063545	53.610	12.700823	-57.261575	53.490	-0.000	0.090	-0.830	53.600	-1.300	-0.500																			1580020545.0	7.13	13.20
26/01/2020 06:35:46	26012020	260120	063546	53.660	12.700845	-57.261550	53.570	-0.180	0.060	-0.900	53.700	-1.300	-0.500																			1580020546.0	7.20	13.33
26/01/2020 06:35:47	26012020	260120	063547	53.830	12.700868	-57.261522	53.750	-0.180	-0.180	-0.790	53.850	-1.600	-0.500																			1580020547.0	7.58	14.04
26/01/2020 06:35:48	26012020	260120	063548	53.870	12.700887	-57.261492	53.760	-0.180	-0.080	-0.300	53.850	-1.500	-0.000																			1580020548.0	7.55	13.98
26/01/2020 06:35:49	26012020	260120	063549	53.790	12.700903	-57.261463	53.700	-0.290	0.210	0.280	53.780	-1.200	0.600																			1580020549.0	7.05	13.06
26/01/2020 06:35:50	26012020	260120	063550	53.780	12.700918	-57.261435	53.710	-0.330	0.090	0.600	53.790	-1.300	0.900																			1580020550.0	6.97	12.91
26/01/2020 06:35:51	26012020	260120	063551	53.870	12.700938	-57.261405	53.800	-0.160	-0.410	0.600	53.880	-1.800	0.900																			1580020551.0	7.50	13.89
26/01/2020 06:35:52	26012020	260120	063552	53.900	12.700962	-57.261377	53.800	0.110	-0.700	0.460	53.880	-2.100	0.800																			1580020552.0	7.76	14.37
26/01/2020 06:35:53	26012020	260120	063553	53.770	12.700983	-57.261350	53.650	0.290	-0.510	0.300	53.740	-1.900	0.700																			1580020553.0	7.44	13.78
26/01/2020 06:35:54	26012020	260120	063554	53.650	12.701005	-57.261323	53.550	0.290	-0.160	0.030	53.650	-1.600	0.400																			1580020554.0	7.02	13.00
26/01/2020 06:35:55	26012020	260120	063555	53.680	12.701027	-57.261300	53.600	0.180	0.020	-0.380	53.700	-1.400	0.000																			1580020555.0	7.05	13.06
26/01/2020 06:35:56	26012020	260120	063556	53.780	12.701050	-57.261273	53.680	0.040	0.050	-0.770	53.790	-1.300	-0.400																			1580020556.0	7.29	13.50
26/01/2020 06:35:57	26012020	260120	063557	53.780	12.701072	-57.261248	53.650	-0.090	0.080	-0.910	53.780	-1.300	-0.600																			1580020557.0	7.33	13.58
26/01/2020 06:35:58	26012020	260120	063558	53.750	12.701093	-57.261222	53.620	-0.190	-0.010	-0.850	53.750	-1.400	-0.500																			1580020558.0	7.27	13.46
26/01/2020 06:35:59	26012020	260120	063559	53.790	12.701115	-57.261193	53.700	-0.140	-0.310	-0.780	53.830	-1.700	-0.400																			1580020559.0	7.43	13.76
26/01/2020 06:36:00	26012020	260120	063600	53.960	12.701137	-57.261163	53.870	0.030	-0.570	-0.620	53.990	-1.900	-0.300	1014.00	25.70	25.70	20.10	20.20	-1.00	71.00	71.00	429.00	25.50	23.00	9.60	91.00	6.30	15	3297.00	27.40	27.40	1580020560.0	7.66	14.19
26/01/2020 06:36:01	26012020	260120	063601	54.010	12.701155	-57.261135	53.900	0.130	-0.410	-0.100	54.000	-1.800	0.200																			1580020561.0	7.51	13.91
26/01/2020 06:36:02	26012020	260120	063602	53.920	12.701172	-57.261105	53.810	0.010	0.010	0.460	53.890	-1.400	0.800																			1580020562.0	7.05	13.06
26/01/2020 06:36:03	26012020	260120	063603	53.810	12.701188	-57.261078	53.730	-0.210	0.260	0.730	53.800	-1.100	1.100																			1580020563.0	6.84	12.67
26/01/2020 06:36:04	26012020	260120	063604	53.770	12.701208	-57.261050	53.700	-0.240	0.090	0.710	53.780	-1.300	1.100																			1580020564.0	7.12	13.19
26/01/2020 06:36:05	26012020	260120	063605	53.780	12.701230	-57.261023	53.700	-0.030	-0.370	0.410	53.780	-1.700	0.800																			1580020565.0	7.62	14.11
26/01/2020 06:36:06	26012020	260120	063606	53.800	12.701255	-57.260995	53.720	0.260	-0.640	-0.010	53.810	-2.000	0.400																			1580020566.0	7.84	14.52
26/01/2020 06:36:07	26012020	260120	063607	53.830	12.701278	-57.260968	53.730	0.340	-0.380	-0.280	53.830	-1.400	0.000																			1580020567.0	7.50	13.89
26/01/2020 06:36:08	26012020	260120	063608	53.800	12.701298	-57.260943	53.690	0.100	0.180	-0.400	53.790	-1.200	-0.000																			1580020568.0	6.85	12.69
26/01/2020 06:36:09	26012020	260120	063609	53.760	12.701318	-57.260918	53.670	-0.240	0.330	-0.620	53.770	-1.000	-0.200																			1580020569.0	6.69	12.39
26/01/2020 06:36:10	26012020	260120	063610	53.840	12.701340	-57.260893	53.770	-0.260	-0.130	-0.910	53.860	-1.400	-0.500																			1580020570.0	7.32	13.56
26/01/2020 06:36:11	26012020	260120	063611	53.940	12.701363	-57.260865	53.860	0.010	-0.590	-0.970	53.950	-1.900	-0.600																			1580020571.0	7.87	14.58
26/01/2020 06:36:12	26012020	260120	063612	53.980	12.701387	-57.260837	53.870	0.220	-0.640	-0.790	53.970	-2.000	-0.500																			1580020572.0	7.70	14.26
26/01/2020 06:36:13	26012020	260120	063613	53.960	12.701405	-57.260808	53.860	0.140	-0.250	-0.500	53.950	-1.700	-0.200																			1580020573.0	7.21	13.35
26/01/2020 06:36:14	26012020	260120	063614	53.880	12.701423	-57.260782	53.800	-0.110	0.230	-0.050	53.870	-1.200	0.200																			1580020574.0	6.79	12.58
26/01/2020 06:36:15	26012020	260120	063615	53.830	12.701440	-57.260753	53.760	-0.240	0.270	0.360	53.830	-1.100	0.700																			1580020575.0	6.87	12.72
26/01/2020 06:36:16	26012020	260120	063616	53.850	12.701458	-57.260725	53.770	-0.110	-0.160	0.510	53.860	-1.500	0.900																			1580020576.0	7.44	13.78
26/01/2020 06:36:17	26012020	260120	063617	53.890	12.701480	-57.260695	53.810	0.130	-0.510	0.400	53.910	-1.900	0.800																			1580020577.0	7.79	14.43
26/01/2020 06:36:18	26012020	260120	063618	53.980	12.701503	-57.260667	53.880	0.270	-0.450	0.180	53.990	-1.800	0.500																			1580020578.0	7.54	13.96
26/01/2020 06:36:19	26012020	260120	063619	54.070	12.701525	-57.260642	53.970	0.190	-0.130	-0.030	54.090	-1.300	0.200																			1580020579.0	7.14	13.22
26/01/2020 06:36:20	26012020	260120	063620	54.130	12.701545	-57.260617	54.010	-0.050	0.130	-0.260	54.130	-1.300	0.100																			1580020580.0	6.96	12.89
26/01/2020 06:36:21	26012020	260120	063621	54.090	12.701567	-57.260592	53.940	-0.260	0.120	-0.470	54.090	-1.200	-0.100																			1580020581.0	7.08	13.11
26/01/2020 06:36:22	26012020	260120	063622	54.000	12.701588	-57.260565	53.850	-0.230	-0.110	-0.570	53.990	-1.500	-0.200																			1580020582.0	7.35	13.61
26/01/2020 06:36:23	26012020	260120	063623	53.950	12.701610	-57.260537	53.830	-0.040	-0.310	-0.590	53.950	-1.700	-0.200																			1580020583.0	7.50	13.89
26/01/2020 06:36:24	26012020	260120	063624	53.980	12.701630	-57.260508	53.880	0.090	-0.410	-0.550	54.000	-1.800	-0.200																			1580020584.0	7.40	13.70
26/01/2020 06:36:25	26012020	260120	063625	54.100	12.701650	-57.260480	54.010	0.100	-0.470	-0.550	54.130	-1.800	-0.200																			1580020585.0	7.35	13.61
26/01/2020 06:36:26	26012020	260120	063626	54.260	12.701672	-57.260452	54.170	0.090	-0.430	-0.600	54.280	-1.800	-0.300																			1580020586.0	7.38	13.67
26/01/2020 06:36:27	26012020	260120	063627	54.360	12.701692	-57.260425	54.240	0.110	-0.180	-0.490	54.360	-1.600	-0.200																			1580020587.0	7.29	13.50
26/01/2020 06:36:28	26012020	260120	063628	54.370	12.701712	-57.260397	54.250	0.100	0.170	-0.150	54.360	-1.200	0.200																			1580020588.0	7.08	13.11
26/01/2020 06:36:29	26012020	260120	063629	54.310	12.701728	-57.260370	54.180	0.010	0.320	0.230	54.290	-1.100	0.500																			1580020589.0	7.03	13.02
26/01/2020 06:36:30	26012020	260120	063630	54.170	12.701747	-57.260340	54.050	-0.100	0.120	0.480	54.140	-1.200	0.800																			1580020590.0	7.26	13.45
26/01/2020 06:36:31	26012020	260120	063631	54.060	12.701768	-57.260312	53.950	-0.170	-0.280	0.450	54.050	-1.600	0.800																			1580020591.0	7.55	13.98
26/01/2020 06:36:32	26012020	260120	063632	54.060	12.701792	-57.260283	53.970	-0.110	-0.590	0.250	54.070	-1.900	0.600																			1580020592.0	7.67	14.20
26/01/2020 06:36:33	26012020	260120	063633	54.140	12.701813	-57.260257	54.050	0.040	-0.550	0.000	54.150	-1.900	0.400																			1580020593.0	7.47	13.83
26/01/2020 06:36:34	26012020	260120	063634	54.230	12.701833	-57.260230	54.150	0.170	-0.310	-0.260	54.250	-1.700	0.100																			1580020594.0	7.19	13.32
26/01/2020 06:36:35	26012020	260120	063635	54.320	12.701855	-57.260203	54.230	0.190	-0.100	-0.500	54.330	-1.500	-0.100																			1580020595.0	7.16	13.26
26/01/2020 06:36:36	26012020	260120	063636	54.350	12.701877	-57.260178	54.220	0.050	0.090	-0.650	54.340	-1.300	-0.300																			1580020596.0	7.23	13.39
26/01/2020 06:36:37	26012020	260120	063637	54.290	12.701898	-57.260152	54.170	-0.140	0.180	-0.640	54.290	-1.200	-0.300																			1580020597.0	7.19	13.32
26/01/2020 06:36:38	26012020	260120	063638	54.330	12.701918	-57.260123	54.230	-0.230	0.050	-0.660	54.360	-1.300	-0.300																			1580020598.0	7.28	13.48
26/01/2020 06:36:39	26012020	260120	063639	54.500	12.701940	-57.260097	54.420	-0.190	-0.160	-0.560	54.540	-1.500	-0.200																			1580020599.0	7.46	13.82
26/01/2020 06:36:40	26012020	260120	063640	54.610	12.701958	-57.260067	54.500	-0.140	-0.210	-0.190	54.620	-1.600	0.100																			1580020600.0	7.37	13.65
26/01/2020 06:36:41	26012020	260120	063641	54.590	12.701975	-57.260037	54.460	-0.120	-0.260	0.230	54.560	-1.600	0.500																			1580020601.0	7.21	13.35
26/01/2020 06:36:42	26012020	260120	063642	54.430	12.701993	-57.260007	54.290	-0.030	-0.540	0.500	54.390	-1.900	0.800																			1580020602.0	7.37	13.65
26/01/2020 06:36:43	26012020	260120	063643	54.290	12.702013	-57.259978	54.180	0.240	-0.850	0.490	54.280	-2.200	0.700																			1580020603.0	7.71	14.28
26/01/2020 06:36:44	26012020	260120	063644	54.230	12.702037	-57.259948	54.120	0.520	-0.710	0.260	54.220	-2.100	0.600																			1580020604.0	7.77	14.39
26/01/2020 06:36:45	26012020	260120	063645	54.150	12.702058	-57.259923	54.020	0.500	0.000	-0.070	54.140	-1.500	0.300																			1580020605.0	7.26	13.45
26/01/2020 06:36:46	26012020	260120	063646	54.140	12.702080	-57.259900	54.030	0.100	0.760	-0.470	54.160	-0.700	-0.100																			1580020606.0	6.71	12.43
26/01/2020 06:36:47	26012020	260120	063647	54.310	12.702102	-57.259877	54.230	-0.380	0.850	-0.920	54.360	-0.500	-0.500																			1580020607.0	6.76	12.52
26/01/2020 06:36:48	26012020	260120	063648	54.590	12.702123	-57.259850	54.510	-0.550	0.170	-1.210	54.640	-1.100	-0.800																			1580020608.0	7.45	13.80
26/01/2020 06:36:49	26012020	260120	063649	54.790	12.702147	-57.259820	54.690	-0.390	-0.590	-1.130	54.820	-1.900	-0.800																			1580020609.0	8.01	14.83
26/01/2020 06:36:50	26012020	260120	063650	54.810	12.702167	-57.259788	54.650	-0.170	-0.800	-0.590	54.770	-2.200	-0.300																			1580020610.0	7.80	14.45
26/01/2020 06:36:51	26012020	260120	063651	54.560	12.702182	-57.259758	54.390	-0.080	-0.500	0.180	54.490	-1.900	0.500																			1580020611.0	7.25	13.43
26/01/2020 06:36:52	26012020	260120	063652	54.230	12.702197	-57.259728	54.100	-0.050	-0.220	0.740	54.190	-1.600	1.000																			1580020612.0	6.93	12.83
26/01/2020 06:36:53	26012020	260120	063653	54.110	12.702215	-57.259700	54.020	0.080	-0.260	0.730	54.120	-1.600	1.100																			1580020613.0	7.15	13.24
26/01/2020 06:36:54	26012020	260120	063654	54.220	12.702237	-57.259673	54.140	0.340	-0.390	0.270	54.260	-1.800	0.700																			1580020614.0	7.56	14.00
26/01/2020 06:36:55	26012020	260120	063655	54.390	12.702262	-57.259647	54.290	0.560	-0.260	-0.170	54.420	-1.700	0.200																			1580020615.0	7.57	14.02
26/01/2020 06:36:56	26012020	260120	063656	54.470	12.702283	-57.259622	54.350	0.550	0.050	-0.400	54.470	-1.400	-0.000																			1580020616.0	7.24	13.41
26/01/2020 06:36:57	26012020	260120	063657	54.430	12.702303	-57.259595	54.270	0.260	0.190	-0.430	54.390	-1.200	-0.100																			1580020617.0	7.15	13.24
26/01/2020 06:36:58	26012020	260120	063658	54.250	12.702325	-57.259567	54.090	-0.170	0.110	-0.350	54.210	-1.300	0.000																			1580020618.0	7.31	13.54
26/01/2020 06:36:59	26012020	260120	063659	54.120	12.702345	-57.259538	54.000	-0.450	-0.090	-0.290	54.120	-1.400	0.100																			1580020619.0	7.44	13.78
26/01/2020 06:37:00	26012020	260120	063700	54.220	12.702367	-57.259510	54.140	-0.390	-0.320	-0.260	54.250	-1.700	0.100	1013.90	25.60	25.70	20.20	20.20	0.00	71.00	71.00	429.00	25.50	23.00	9.60	91.00	6.30	15	3111.00	27.40	27.40	1580020620.0	7.49	13.87
26/01/2020 06:37:01	26012020	260120	063701	54.400	12.702387	-57.259482	54.320	-0.160	-0.400	-0.180	54.430	-1.800	0.200																			1580020621.0	7.51	13.91
26/01/2020 06:37:02	26012020	260120	063702	54.440	12.702405	-57.259452	54.330	-0.070	-0.190	0.030	54.430	-1.600	0.400																			1580020622.0	7.32	13.56
26/01/2020 06:37:03	26012020	260120	063703	54.330	12.702422	-57.259423	54.210	-0.180	0.040	0.270	54.300	-1.300	0.600																			1580020623.0	7.02	13.00
26/01/2020 06:37:04	26012020	260120	063704	54.230	12.702442	-57.259397	54.130	-0.230	-0.030	0.240	54.230	-1.400	0.600																			1580020624.0	7.08	13.11
26/01/2020 06:37:05	26012020	260120	063705	54.270	12.702463	-57.259368	54.180	0.060	-0.380	-0.000	54.290	-1.700	0.400																			1580020625.0	7.51	13.91
26/01/2020 06:37:06	26012020	260120	063706	54.280	12.702485	-57.259340	54.150	0.450	-0.550	-0.160	54.260	-1.900	0.200																			1580020626.0	7.77	14.39
26/01/2020 06:37:07	26012020	260120	063707	54.110	12.702507	-57.259312	53.950	0.500	-0.250	-0.210	54.060	-1.700	0.100																			1580020627.0	7.42	13.74
26/01/2020 06:37:08	26012020	260120	063708	53.920	12.702527	-57.259287	53.790	0.200	0.130	-0.290	53.900	-1.300	0.100																			1580020628.0	6.91	12.80
26/01/2020 06:37:09	26012020	260120	063709	53.870	12.702548	-57.259262	53.760	-0.060	0.080	-0.480	53.870	-1.300	-0.100																			1580020629.0	7.02	13.00
26/01/2020 06:37:10	26012020	260120	063710	53.890	12.702570	-57.259233	53.780	-0.050	-0.320	-0.580	53.890	-1.700	-0.200																			1580020630.0	7.58	14.04
26/01/2020 06:37:11	26012020	260120	063711	53.920	12.702592	-57.259205	53.830	0.100	-0.570	-0.510	53.920	-1.900	-0.200																			1580020631.0	7.84	14.52
26/01/2020 06:37:12	26012020	260120	063712	54.000	12.702613	-57.259175	53.910	0.080	-0.350	-0.280	54.010	-1.800	0.000																			1580020632.0	7.57	14.02
26/01/2020 06:37:13	26012020	260120	063713	54.000	12.702630	-57.259147	53.900	-0.210	0.240	0.060	53.990	-1.200	0.400																			1580020633.0	6.98	12.93
26/01/2020 06:37:14	26012020	260120	063714	53.900	12.702647	-57.259120	53.790	-0.510	0.570	0.370	53.880	-0.800	0.700																			1580020634.0	6.69	12.39
26/01/2020 06:37:15	26012020	260120	063715	53.790	12.702665	-57.259093	53.690	-0.440	0.200	0.580	53.780	-1.100	0.900																			1580020635.0	7.11	13.17
26/01/2020 06:37:16	26012020	260120	063716	53.720	12.702687	-57.259062	53.620	0.010	-0.540	0.610	53.720	-1.800	1.000																			1580020636.0	7.81	14.46
26/01/2020 06:37:17	26012020	260120	063717	53.710	12.702708	-57.259032	53.610	0.470	-0.960	0.450	53.720	-2.300	0.800																			1580020637.0	8.00	14.82
26/01/2020 06:37:18	26012020	260120	063718	53.710	12.702730	-57.259003	53.600	0.570	-0.700	0.190	53.710	-2.100	0.600																			1580020638.0	7.54	13.96
26/01/2020 06:37:19	26012020	260120	063719	53.670	12.702752	-57.258980	53.540	0.270	-0.060	-0.110	53.660	-1.500	0.300																			1580020639.0	6.92	12.82
26/01/2020 06:37:20	26012020	260120	063720	53.640	12.702773	-57.258957	53.520	-0.120	0.370	-0.420	53.640	-1.000	-0.000																			1580020640.0	6.77	12.54
26/01/2020 06:37:21	26012020	260120	063721	53.670	12.702795	-57.258932	53.560	-0.280	0.300	-0.620	53.690	-1.100	-0.300																			1580020641.0	7.12	13.19
26/01/2020 06:37:22	26012020	260120	063722	53.730	12.702817	-57.258903	53.620	-0.190	-0.050	-0.640	53.740	-1.400	-0.300																			1580020642.0	7.52	13.93
26/01/2020 06:37:23	26012020	260120	063723	53.750	12.702837	-57.258873	53.630	-0.050	-0.410	-0.480	53.750	-1.800	-0.200																			1580020643.0	7.69	14.24
26/01/2020 06:37:24	26012020	260120	063724	53.710	12.702857	-57.258843	53.590	-0.020	-0.580	-0.270	53.700	-1.900	0.100																			1580020644.0	7.64	14.15
26/01/2020 06:37:25	26012020	260120	063725	53.630	12.702877	-57.258815	53.500	-0.040	-0.420	-0.110	53.610	-1.800	0.200																			1580020645.0	7.39	13.69
26/01/2020 06:37:26	26012020	260120	063726	53.500	12.702897	-57.258787	53.370	0.030	-0.090	0.060	53.470	-1.500	0.400																			1580020646.0	7.10	13.15
26/01/2020 06:37:27	26012020	260120	063727	53.410	12.702917	-57.258760	53.300	0.210	0.030	0.150	53.410	-1.300	0.500																			1580020647.0	7.10	13.15
26/01/2020 06:37:28	26012020	260120	063728	53.470	12.702938	-57.258733	53.380	0.340	-0.150	0.040	53.490	-1.500	0.400																			1580020648.0	7.43	13.76
26/01/2020 06:37:29	26012020	260120	063729	53.620	12.702960	-57.258705	53.550	0.220	-0.280	-0.140	53.650	-1.700	0.200																			1580020649.0	7.67	14.20
26/01/2020 06:37:30	26012020	260120	063730	53.780	12.702982	-57.258677	53.690	-0.150	-0.000	-0.210	53.790	-1.400	0.100																			1580020650.0	7.37	13.65
26/01/2020 06:37:31	26012020	260120	063731	53.780	12.703002	-57.258652	53.650	-0.550	0.430	0.000	53.750	-1.000	0.300																			1580020651.0	6.82	12.63
26/01/2020 06:37:32	26012020	260120	063732	53.610	12.703018	-57.258625	53.490	-0.680	0.350	0.340	53.580	-1.000	0.700																			1580020652.0	6.81	12.61
26/01/2020 06:37:33	26012020	260120	063733	53.480	12.703038	-57.258595	53.360	-0.390	-0.380	0.390	53.470	-1.700	0.800																			1580020653.0	7.50	13.89
26/01/2020 06:37:34	26012020	260120	063734	53.430	12.703060	-57.258565	53.310	0.160	-1.160	0.160	53.420	-2.500	0.500																			1580020654.0	8.11	15.02
26/01/2020 06:37:35	26012020	260120	063735	53.360	12.703083	-57.258535	53.240	0.660	-1.230	0.000	53.360	-2.600	0.400																			1580020655.0	8.00	14.82
26/01/2020 06:37:36	26012020	260120	063736	53.310	12.703105	-57.258508	53.200	0.840	-0.550	-0.080	53.300	-2.000	0.300																			1580020656.0	7.29	13.50
26/01/2020 06:37:37	26012020	260120	063737	53.300	12.703125	-57.258483	53.190	0.590	0.340	-0.250	53.300	-1.100	0.100																			1580020657.0	6.77	12.54
26/01/2020 06:37:38	26012020	260120	063738	53.340	12.703147	-57.258460	53.240	0.050	0.850	-0.550	53.360	-0.600	-0.200																			1580020658.0	6.72	12.45
26/01/2020 06:37:39	26012020	260120	063739	53.490	12.703168	-57.258435	53.400	-0.510	0.730	-0.830	53.540	-0.600	-0.400																			1580020659.0	7.11	13.17
26/01/2020 06:37:40	26012020	260120	063740	53.730	12.703192	-57.258408	53.660	-0.760	0.150	-0.970	53.780	-1.200	-0.600																			1580020660.0	7.57	14.02
26/01/2020 06:37:41	26012020	260120	063741	53.910	12.703213	-57.258378	53.800	-0.600	-0.480	-0.740	53.920	-1.800	-0.400																			1580020661.0	7.79	14.43
26/01/2020 06:37:42	26012020	260120	063742	53.820	12.703232	-57.258347	53.660	-0.190	-0.800	-0.100	53.770	-2.200	0.200																			1580020662.0	7.74	14.33
26/01/2020 06:37:43	26012020	260120	063743	53.510	12.703248	-57.258317	53.350	0.140	-0.690	0.620	53.440	-2.100	0.900																			1580020663.0	7.48	13.85
26/01/2020 06:37:44	26012020	260120	063744	53.170	12.703265	-57.258287	53.040	0.200	-0.310	0.990	53.120	-1.700	1.300																			1580020664.0	7.06	13.08
26/01/2020 06:37:45	26012020	260120	063745	53.060	12.703285	-57.258262	52.970	0.160	-0.110	0.800	53.070	-1.500	1.200																			1580020665.0	6.89	12.76
26/01/2020 06:37:46	26012020	260120	063746	53.230	12.703307	-57.258235	53.170	0.290	-0.320	0.130	53.290	-1.700	0.600																			1580020666.0	7.35	13.61
26/01/2020 06:37:47	26012020	260120	063747	53.470	12.703333	-57.258208	53.370	0.500	-0.480	-0.500	53.470	-1.900	-0.100																			1580020667.0	7.88	14.59
26/01/2020 06:37:48	26012020	260120	063748	53.540	12.703357	-57.258182	53.400	0.380	-0.150	-0.730	53.540	-1.600	-0.400																			1580020668.0	7.65	14.17
26/01/2020 06:37:49	26012020	260120	063749	53.470	12.703377	-57.258157	53.320	-0.130	0.460	-0.700	53.450	-1.000	-0.400																			1580020669.0	6.95	12.87
26/01/2020 06:37:50	26012020	260120	063750	53.360	12.703397	-57.258132	53.220	-0.590	0.710	-0.660	53.340	-0.700	-0.300																			1580020670.0	6.64	12.30
26/01/2020 06:37:51	26012020	260120	063751	53.320	12.703417	-57.258105	53.220	-0.510	0.200	-0.570	53.330	-1.100	-0.200																			1580020671.0	7.13	13.20
26/01/2020 06:37:52	26012020	260120	063752	53.360	12.703438	-57.258075	53.260	-0.030	-0.620	-0.360	53.360	-1.900	-0.000																			1580020672.0	7.93	14.69
26/01/2020 06:37:53	26012020	260120	063753	53.330	12.703460	-57.258043	53.210	0.300	-0.900	-0.140	53.310	-2.300	0.200																			1580020673.0	7.93	14.69
26/01/2020 06:37:54	26012020	260120	063754	53.220	12.703478	-57.258017	53.110	0.240	-0.490	0.130	53.200	-1.900	0.400																			1580020674.0	7.18	13.30
26/01/2020 06:37:55	26012020	260120	063755	53.090	12.703497	-57.257990	52.980	0.000	0.040	0.440	53.060	-1.400	0.800																			1580020675.0	6.63	12.28
26/01/2020 06:37:56	26012020	260120	063756	52.980	12.703517	-57.257965	52.880	-0.120	0.100	0.570	52.960	-1.300	0.900																			1580020676.0	6.83	12.65
26/01/2020 06:37:57	26012020	260120	063757	52.960	12.703538	-57.257937	52.880	-0.050	-0.330	0.410	52.980	-1.700	0.800																			1580020677.0	7.49	13.87
26/01/2020 06:37:58	26012020	260120	063758	53.110	12.703562	-57.257908	53.050	0.140	-0.690	0.140	53.150	-2.000	0.500																			1580020678.0	7.92	14.67
26/01/2020 06:37:59	26012020	260120	063759	53.250	12.703583	-57.257880	53.160	0.200	-0.380	0.060	53.250	-1.800	0.400																			1580020679.0	7.63	14.13
26/01/2020 06:38:00	26012020	260120	063800	53.170	12.703602	-57.257853	53.050	-0.020	0.400	0.150	53.140	-1.000	0.500	1014.00	25.60	25.70	20.10	20.10	-1.00	71.00	71.00	429.00	25.50	20.00	10.00	84.00	6.50	15	3166.00	27.40	27.40	1580020680.0	6.81	12.61
26/01/2020 06:38:01	26012020	260120	063801	53.020	12.703618	-57.257828	52.900	-0.330	0.750	0.110	53.020	-0.600	0.500																			1580020681.0	6.47	11.98
26/01/2020 06:38:02	26012020	260120	063802	52.940	12.703640	-57.257803	52.830	-0.370	0.240	-0.230	52.940	-1.100	0.200																			1580020682.0	7.07	13.09
26/01/2020 06:38:03	26012020	260120	063803	53.010	12.703665	-57.257775	52.910	-0.030	-0.630	-0.780	53.030	-1.900	-0.400																			1580020683.0	7.92	14.67
26/01/2020 06:38:04	26012020	260120	063804	53.090	12.703692	-57.257748	52.960	0.390	-1.010	-1.130	53.090	-2.400	-0.800																			1580020684.0	8.07	14.95
26/01/2020 06:38:05	26012020	260120	063805	53.010	12.703715	-57.257722	52.870	0.440	-0.620	-1.100	52.990	-2.100	-0.800																			1580020685.0	7.42	13.74
26/01/2020 06:38:06	26012020	260120	063806	52.890	12.703733	-57.257697	52.750	0.080	0.120	-0.700	52.880	-1.300	-0.400																			1580020686.0	6.66	12.33
26/01/2020 06:38:07	26012020	260120	063807	52.890	12.703752	-57.257672	52.800	-0.340	0.480	-0.240	52.910	-0.900	0.100																			1580020687.0	6.49	12.02
26/01/2020 06:38:08	26012020	260120	063808	52.990	12.703768	-57.257643	52.900	-0.390	0.090	0.190	53.000	-1.200	0.500																			1580020688.0	7.10	13.15
26/01/2020 06:38:09	26012020	260120	063809	53.060	12.703788	-57.257612	52.980	-0.060	-0.640	0.520	53.080	-2.000	0.800																			1580020689.0	7.92	14.67
26/01/2020 06:38:10	26012020	260120	063810	53.120	12.703810	-57.257582	53.050	0.260	-0.860	0.760	53.120	-2.200	1.100																			1580020690.0	8.02	14.85
26/01/2020 06:38:11	26012020	260120	063811	53.040	12.703828	-57.257553	52.940	0.250	-0.240	1.010	53.000	-1.700	1.300																			1580020691.0	7.24	13.41
26/01/2020 06:38:12	26012020	260120	063812	52.840	12.703847	-57.257528	52.750	0.010	0.540	1.070	52.810	-0.900	1.400																			1580020692.0	6.42	11.89
26/01/2020 06:38:13	26012020	260120	063813	52.720	12.703867	-57.257503	52.650	-0.170	0.570	0.660	52.710	-0.800	1.100																			1580020693.0	6.57	12.17
26/01/2020 06:38:14	26012020	260120	063814	52.730	12.703890	-57.257478	52.660	-0.130	-0.140	-0.110	52.750	-1.400	0.300																			1580020694.0	7.53	13.95
26/01/2020 06:38:15	26012020	260120	063815	52.870	12.703918	-57.257453	52.810	0.040	-0.820	-0.930	52.920	-2.100	-0.500																			1580020695.0	8.14	15.08
26/01/2020 06:38:16	26012020	260120	063816	53.110	12.703943	-57.257427	53.030	0.130	-0.740	-1.380	53.150	-2.100	-1.000																			1580020696.0	7.74	14.33
26/01/2020 06:38:17	26012020	260120	063817	53.270	12.703965	-57.257402	53.160	-0.010	-0.060	-1.280	53.270	-1.500	-1.000																			1580020697.0	6.84	12.67
26/01/2020 06:38:18	26012020	260120	063818	53.220	12.703982	-57.257377	53.090	-0.280	0.460	-0.850	53.200	-0.900	-0.500																			1580020698.0	6.44	11.93
26/01/2020 06:38:19	26012020	260120	063819	53.100	12.703998	-57.257350	52.980	-0.420	0.320	-0.450	53.080	-1.000	-0.100																			1580020699.0	6.81	12.61
26/01/2020 06:38:20	26012020	260120	063820	53.040	12.704018	-57.257320	52.960	-0.220	-0.360	-0.150	53.040	-1.600	0.200																			1580020700.0	7.52	13.93
26/01/2020 06:38:21	26012020	260120	063821	53.050	12.704040	-57.257290	52.980	0.230	-0.940	0.110	53.060	-2.300	0.400																			1580020701.0	7.94	14.70
26/01/2020 06:38:22	26012020	260120	063822	53.060	12.704062	-57.257260	52.980	0.610	-0.980	0.290	53.060	-2.400	0.600																			1580020702.0	7.75	14.35
26/01/2020 06:38:23	26012020	260120	063823	53.050	12.704082	-57.257233	52.960	0.630	-0.420	0.400	53.040	-1.900	0.700																			1580020703.0	7.21	13.35
26/01/2020 06:38:24	26012020	260120	063824	53.000	12.704102	-57.257208	52.920	0.320	0.390	0.500	52.990	-1.000	0.800																			1580020704.0	6.67	12.35
26/01/2020 06:38:25	26012020	260120	063825	53.010	12.704120	-57.257185	52.940	-0.080	0.840	0.460	53.010	-0.600	0.800																			1580020705.0	6.54	12.11
26/01/2020 06:38:26	26012020	260120	063826	53.110	12.704142	-57.257158	53.040	-0.350	0.580	0.230	53.140	-0.800	0.600																			1580020706.0	7.01	12.98
26/01/2020 06:38:27	26012020	260120	063827	53.220	12.704163	-57.257132	53.120	-0.470	-0.070	-0.130	53.230	-1.400	0.300																			1580020707.0	7.60	14.08
26/01/2020 06:38:28	26012020	260120	063828	53.260	12.704187	-57.257103	53.140	-0.460	-0.610	-0.390	53.260	-1.900	-0.000																			1580020708.0	7.71	14.28
26/01/2020 06:38:29	26012020	260120	063829	53.250	12.704208	-57.257075	53.130	-0.300	-0.810	-0.460	53.230	-2.200	-0.100																			1580020709.0	7.46	13.82
26/01/2020 06:38:30	26012020	260120	063830	53.220	12.704228	-57.257048	53.110	-0.030	-0.690	-0.410	53.220	-2.100	-0.100																			1580020710.0	7.19	13.32
26/01/2020 06:38:31	26012020	260120	063831	53.220	12.704248	-57.257022	53.110	0.200	-0.330	-0.360	53.220	-1.700	-0.000																			1580020711.0	7.03	13.02
26/01/2020 06:38:32	26012020	260120	063832	53.190	12.704268	-57.256995	53.060	0.250	0.060	-0.340	53.170	-1.300	0.000																			1580020712.0	6.90	12.78
26/01/2020 06:38:33	26012020	260120	063833	53.100	12.704288	-57.256970	52.970	0.180	0.190	-0.350	53.090	-1.200	0.000																			1580020713.0	6.97	12.91
26/01/2020 06:38:34	26012020	260120	063834	53.080	12.704308	-57.256943	52.960	0.130	-0.020	-0.380	53.080	-1.400	-0.000																			1580020714.0	7.31	13.54
26/01/2020 06:38:35	26012020	260120	063835	53.090	12.704332	-57.256915	52.960	0.110	-0.290	-0.380	53.090	-1.600	-0.000																			1580020715.0	7.59	14.06
26/01/2020 06:38:36	26012020	260120	063836	53.110	12.704353	-57.256888	52.980	0.090	-0.390	-0.350	53.120	-1.800	0.000																			1580020716.0	7.51	13.91
26/01/2020 06:38:37	26012020	260120	063837	53.170	12.704375	-57.256860	53.050	0.100	-0.230	-0.210	53.170	-1.600	0.100																			1580020717.0	7.26	13.45
26/01/2020 06:38:38	26012020	260120	063838	53.200	12.704393	-57.256833	53.080	0.070	0.060	0.070	53.200	-1.300	0.400																			1580020718.0	7.03	13.02
26/01/2020 06:38:39	26012020	260120	063839	53.180	12.704412	-57.256807	53.060	-0.060	0.240	0.300	53.180	-1.100	0.600																			1580020719.0	6.91	12.80
26/01/2020 06:38:40	26012020	260120	063840	53.190	12.704432	-57.256780	53.070	-0.210	0.090	0.300	53.200	-1.300	0.700																			1580020720.0	7.08	13.11
26/01/2020 06:38:41	26012020	260120	063841	53.250	12.704453	-57.256752	53.130	-0.220	-0.290	0.140	53.260	-1.600	0.500																			1580020721.0	7.41	13.72
26/01/2020 06:38:42	26012020	260120	063842	53.290	12.704475	-57.256725	53.160	-0.060	-0.590	0.020	53.290	-1.900	0.400																			1580020722.0	7.57	14.02
26/01/2020 06:38:43	26012020	260120	063843	53.270	12.704497	-57.256697	53.130	0.120	-0.610	-0.030	53.260	-2.000	0.300																			1580020723.0	7.46	13.82
26/01/2020 06:38:44	26012020	260120	063844	53.170	12.704517	-57.256670	53.020	0.170	-0.340	-0.030	53.140	-1.700	0.300																			1580020724.0	7.19	13.32
26/01/2020 06:38:45	26012020	260120	063845	53.080	12.704537	-57.256643	52.950	0.080	-0.050	-0.110	53.070	-1.400	0.300																			1580020725.0	6.99	12.95
26/01/2020 06:38:46	26012020	260120	063846	53.090	12.704558	-57.256618	52.960	-0.010	0.040	-0.260	53.090	-1.300	0.100																			1580020726.0	7.11	13.17
26/01/2020 06:38:47	26012020	260120	063847	53.140	12.704580	-57.256592	53.020	-0.060	-0.050	-0.410	53.160	-1.400	-0.000																			1580020727.0	7.35	13.61
26/01/2020 06:38:48	26012020	260120	063848	53.230	12.704603	-57.256565	53.120	-0.060	-0.110	-0.470	53.250	-1.500	-0.100																			1580020728.0	7.45	13.80
26/01/2020 06:38:49	26012020	260120	063849	53.320	12.704623	-57.256537	53.190	-0.110	-0.030	-0.400	53.320	-1.400	-0.100																			1580020729.0	7.31	13.54
26/01/2020 06:38:50	26012020	260120	063850	53.370	12.704642	-57.256510	53.250	-0.230	0.110	-0.300	53.380	-1.300	0.000																			1580020730.0	7.08	13.11
26/01/2020 06:38:51	26012020	260120	063851	53.470	12.704662	-57.256483	53.370	-0.250	0.060	-0.260	53.470	-1.300	0.100																			1580020731.0	7.03	13.02
26/01/2020 06:38:52	26012020	260120	063852	53.470	12.704682	-57.256455	53.330	-0.070	-0.190	-0.140	53.450	-1.500	0.200																			1580020732.0	7.29	13.50
26/01/2020 06:38:53	26012020	260120	063853	53.320	12.704703	-57.256427	53.180	0.220	-0.470	-0.030	53.300	-1.800	0.300																			1580020733.0	7.46	13.82
26/01/2020 06:38:54	26012020	260120	063854	53.270	12.704725	-57.256400	53.160	0.490	-0.670	-0.050	53.290	-2.000	0.300																			1580020734.0	7.51	13.91
26/01/2020 06:38:55	26012020	260120	063855	53.390	12.704747	-57.256372	53.290	0.560	-0.590	-0.150	53.420	-2.000	0.200																			1580020735.0	7.43	13.76
26/01/2020 06:38:56	26012020	260120	063856	53.400	12.704768	-57.256345	53.250	0.350	-0.180	-0.060	53.370	-1.600	0.300																			1580020736.0	7.14	13.22
26/01/2020 06:38:57	26012020	260120	063857	53.190	12.704787	-57.256320	53.030	-0.030	0.190	0.070	53.150	-1.200	0.400																			1580020737.0	6.90	12.78
26/01/2020 06:38:58	26012020	260120	063858	53.050	12.704808	-57.256293	52.940	-0.360	0.140	0.070	53.050	-1.200	0.400																			1580020738.0	7.11	13.17
26/01/2020 06:38:59	26012020	260120	063859	53.100	12.704830	-57.256265	53.000	-0.460	-0.170	0.020	53.120	-1.500	0.400																			1580020739.0	7.57	14.02
26/01/2020 06:39:00	26012020	260120	063900	53.190	12.704852	-57.256237	53.090	-0.380	-0.270	-0.020	53.200	-1.600	0.300	1014.00	25.60	25.70	20.00	20.00	0.00	71.00	71.00	430.00	25.50	22.00	9.80	88.00	6.50	15	3247.00	27.40	27.40	1580020740.0	7.65	14.17
26/01/2020 06:39:01	26012020	260120	063901	53.270	12.704872	-57.256208	53.170	-0.250	-0.080	-0.050	53.280	-1.500	0.300																			1580020741.0	7.31	13.54
26/01/2020 06:39:02	26012020	260120	063902	53.360	12.704890	-57.256182	53.250	-0.180	0.130	-0.010	53.370	-1.200	0.300																			1580020742.0	7.02	13.00
26/01/2020 06:39:03	26012020	260120	063903	53.440	12.704908	-57.256153	53.320	-0.150	0.130	-0.070	53.440	-1.200	0.300																			1580020743.0	7.06	13.08
26/01/2020 06:39:04	26012020	260120	063904	53.470	12.704930	-57.256127	53.330	-0.090	-0.070	-0.330	53.460	-1.400	0.100																			1580020744.0	7.23	13.39
26/01/2020 06:39:05	26012020	260120	063905	53.450	12.704953	-57.256102	53.310	0.070	-0.340	-0.550	53.450	-1.700	-0.200																			1580020745.0	7.38	13.67
26/01/2020 06:39:06	26012020	260120	063906	53.420	12.704975	-57.256075	53.260	0.330	-0.610	-0.570	53.390	-1.900	-0.200																			1580020746.0	7.47	13.83
26/01/2020 06:39:07	26012020	260120	063907	53.270	12.704998	-57.256047	53.110	0.590	-0.750	-0.440	53.230	-2.100	-0.100																			1580020747.0	7.52	13.93
26/01/2020 06:39:08	26012020	260120	063908	53.090	12.705020	-57.256020	52.940	0.710	-0.630	-0.270	53.060	-2.000	0.100																			1580020748.0	7.48	13.85
26/01/2020 06:39:09	26012020	260120	063909	52.990	12.705042	-57.255993	52.880	0.560	-0.270	-0.150	53.000	-1.700	0.200																			1580020749.0	7.31	13.54
26/01/2020 06:39:10	26012020	260120	063910	53.110	12.705062	-57.255967	53.030	0.140	0.220	-0.040	53.150	-1.200	0.300																			1580020750.0	7.12	13.19
26/01/2020 06:39:11	26012020	260120	063911	53.390	12.705082	-57.255940	53.350	-0.450	0.580	0.030	53.460	-0.800	0.400																			1580020751.0	6.95	12.87
26/01/2020 06:39:12	26012020	260120	063912	53.690	12.705100	-57.255912	53.610	-0.950	0.580	0.100	53.730	-0.800	0.400																			1580020752.0	7.06	13.08
26/01/2020 06:39:13	26012020	260120	063913	53.790	12.705118	-57.255883	53.690	-1.080	0.240	0.290	53.790	-1.100	0.600																			1580020753.0	7.30	13.52
26/01/2020 06:39:14	26012020	260120	063914	53.730	12.705137	-57.255853	53.620	-0.710	-0.310	0.570	53.710	-1.600	0.900																			1580020754.0	7.52	13.93
26/01/2020 06:39:15	26012020	260120	063915	53.590	12.705157	-57.255823	53.470	0.060	-0.910	0.750	53.550	-2.200	1.100																			1580020755.0	7.73	14.32
26/01/2020 06:39:16	26012020	260120	063916	53.400	12.705178	-57.255793	53.280	0.800	-1.160	0.680	53.370	-2.500	1.000																			1580020756.0	7.81	14.46
26/01/2020 06:39:17	26012020	260120	063917	53.280	12.705200	-57.255765	53.170	1.040	-0.770	0.250	53.270	-2.200	0.700																			1580020757.0	7.51	13.91
26/01/2020 06:39:18	26012020	260120	063918	53.270	12.705223	-57.255742	53.170	0.600	0.120	-0.410	53.290	-1.300	0.000																			1580020758.0	6.95	12.87
26/01/2020 06:39:19	26012020	260120	063919	53.400	12.705247	-57.255722	53.300	-0.130	0.830	-1.100	53.430	-0.600	-0.700																			1580020759.0	6.64	12.30
26/01/2020 06:39:20	26012020	260120	063920	53.610	12.705270	-57.255700	53.520	-0.520	0.770	-1.540	53.660	-0.600	-1.200																			1580020760.0	6.92	12.82
26/01/2020 06:39:21	26012020	260120	063921	53.820	12.705293	-57.255672	53.710	-0.360	-0.060	-1.500	53.840	-1.300	-1.200																			1580020761.0	7.67	14.20
26/01/2020 06:39:22	26012020	260120	063922	53.860	12.705315	-57.255640	53.720	0.040	-0.890	-1.010	53.840	-2.200	-0.700																			1580020762.0	8.23	15.24
26/01/2020 06:39:23	26012020	260120	063923	53.770	12.705335	-57.255608	53.640	0.240	-0.980	-0.200	53.740	-2.400	0.100																			1580020763.0	7.99	14.80
26/01/2020 06:39:24	26012020	260120	063924	53.680	12.705350	-57.255577	53.590	0.070	-0.350	0.660	53.680	-1.800	0.900																			1580020764.0	7.16	13.26
26/01/2020 06:39:25	26012020	260120	063925	53.730	12.705363	-57.255550	53.670	-0.240	0.330	1.140	53.730	-1.100	1.500																			1580020765.0	6.59	12.20
26/01/2020 06:39:26	26012020	260120	063926	53.790	12.705382	-57.255523	53.710	-0.380	0.520	1.200	53.790	-0.800	1.600																			1580020766.0	6.69	12.39
26/01/2020 06:39:27	26012020	260120	063927	53.760	12.705402	-57.255497	53.660	-0.190	0.060	1.010	53.760	-1.200	1.400																			1580020767.0	7.29	13.50
26/01/2020 06:39:28	26012020	260120	063928	53.720	12.705425	-57.255467	53.620	0.200	-0.700	0.590	53.720	-2.000	1.000																			1580020768.0	7.97	14.76
26/01/2020 06:39:29	26012020	260120	063929	53.740	12.705452	-57.255438	53.650	0.450	-1.000	0.040	53.760	-2.400	0.400																			1580020769.0	8.11	15.02
26/01/2020 06:39:30	26012020	260120	063930	53.830	12.705475	-57.255413	53.740	0.380	-0.490	-0.450	53.860	-1.900	-0.000																			1580020770.0	7.43	13.76
26/01/2020 06:39:31	26012020	260120	063931	53.980	12.705495	-57.255390	53.880	0.110	0.280	-0.800	54.000	-1.100	-0.400																			1580020771.0	6.68	12.37
26/01/2020 06:39:32	26012020	260120	063932	54.060	12.705515	-57.255365	53.950	-0.100	0.620	-0.960	54.070	-0.800	-0.600																			1580020772.0	6.63	12.28
26/01/2020 06:39:33	26012020	260120	063933	54.060	12.705535	-57.255338	53.930	-0.130	0.310	-0.980	54.050	-1.000	-0.600																			1580020773.0	7.20	13.33
26/01/2020 06:39:34	26012020	260120	063934	54.020	12.705557	-57.255308	53.900	-0.070	-0.240	-0.800	54.010	-1.600	-0.500																			1580020774.0	7.72	14.30
26/01/2020 06:39:35	26012020	260120	063935	53.990	12.705578	-57.255280	53.870	-0.070	-0.540	-0.470	53.990	-1.900	-0.200																			1580020775.0	7.72	14.30
26/01/2020 06:39:36	26012020	260120	063936	53.970	12.705597	-57.255252	53.850	-0.120	-0.510	-0.160	53.970	-1.900	0.200																			1580020776.0	7.34	13.59
26/01/2020 06:39:37	26012020	260120	063937	53.990	12.705617	-57.255223	53.890	-0.080	-0.410	0.170	54.000	-1.800	0.500																			1580020777.0	7.12	13.19
26/01/2020 06:39:38	26012020	260120	063938	54.030	12.705635	-57.255195	53.930	0.070	-0.280	0.550	54.030	-1.700	0.900																			1580020778.0	7.21	13.35
26/01/2020 06:39:39	26012020	260120	063939	53.990	12.705653	-57.255165	53.870	0.190	-0.110	0.880	53.990	-1.500	1.200																			1580020779.0	7.25	13.43
26/01/2020 06:39:40	26012020	260120	063940	53.900	12.705672	-57.255137	53.800	0.180	-0.050	0.920	53.890	-1.400	1.300																			1580020780.0	7.24	13.41
26/01/2020 06:39:41	26012020	260120	063941	53.870	12.705692	-57.255110	53.770	0.080	-0.140	0.580	53.870	-1.500	1.000																			1580020781.0	7.40	13.70
26/01/2020 06:39:42	26012020	260120	063942	53.860	12.705715	-57.255083	53.750	-0.040	-0.110	0.090	53.860	-1.500	0.500																			1580020782.0	7.50	13.89
26/01/2020 06:39:43	26012020	260120	063943	53.890	12.705738	-57.255058	53.780	-0.150	0.110	-0.440	53.900	-1.300	-0.000																			1580020783.0	7.23	13.39
26/01/2020 06:39:44	26012020	260120	063944	54.000	12.705760	-57.255033	53.890	-0.200	0.210	-0.820	54.020	-1.100	-0.400																			1580020784.0	7.00	12.96
26/01/2020 06:39:45	26012020	260120	063945	54.070	12.705782	-57.255007	53.940	-0.160	-0.060	-0.970	54.080	-1.400	-0.600																			1580020785.0	7.19	13.32
26/01/2020 06:39:46	26012020	260120	063946	54.080	12.705803	-57.254978	53.940	-0.030	-0.530	-0.970	54.060	-1.900	-0.600																			1580020786.0	7.58	14.04
26/01/2020 06:39:47	26012020	260120	063947	53.990	12.705823	-57.254948	53.850	0.150	-0.780	-0.760	53.970	-2.100	-0.400																			1580020787.0	7.70	14.26
26/01/2020 06:39:48	26012020	260120	063948	53.810	12.705843	-57.254920	53.670	0.270	-0.570	-0.310	53.770	-2.000	-0.000																			1580020788.0	7.46	13.82
26/01/2020 06:39:49	26012020	260120	063949	53.650	12.705862	-57.254892	53.540	0.210	-0.070	0.150	53.640	-1.500	0.500																			1580020789.0	7.04	13.04
26/01/2020 06:39:50	26012020	260120	063950	53.650	12.705880	-57.254865	53.560	-0.020	0.290	0.360	53.670	-1.100	0.700																			1580020790.0	6.84	12.67
26/01/2020 06:39:51	26012020	260120	063951	53.770	12.705900	-57.254838	53.690	-0.150	0.200	0.350	53.790	-1.200	0.700																			1580020791.0	7.10	13.15
26/01/2020 06:39:52	26012020	260120	063952	53.860	12.705922	-57.254810	53.770	-0.080	-0.130	0.440	53.870	-1.500	0.800																			1580020792.0	7.57	14.02
26/01/2020 06:39:53	26012020	260120	063953	53.880	12.705942	-57.254780	53.790	0.020	-0.370	0.560	53.880	-1.700	0.900																			1580020793.0	7.69	14.24
26/01/2020 06:39:54	26012020	260120	063954	53.950	12.705962	-57.254750	53.880	-0.050	-0.380	0.460	53.970	-1.800	0.800																			1580020794.0	7.49	13.87
26/01/2020 06:39:55	26012020	260120	063955	54.030	12.705982	-57.254723	53.940	-0.240	-0.150	0.250	54.040	-1.600	0.600																			1580020795.0	7.19	13.32
26/01/2020 06:39:56	26012020	260120	063956	53.970	12.706000	-57.254697	53.840	-0.370	0.150	0.060	53.940	-1.300	0.400																			1580020796.0	6.93	12.83
26/01/2020 06:39:57	26012020	260120	063957	53.780	12.706022	-57.254672	53.640	-0.280	0.220	-0.150	53.740	-1.200	0.200																			1580020797.0	6.91	12.80
26/01/2020 06:39:58	26012020	260120	063958	53.650	12.706043	-57.254645	53.520	0.090	-0.180	-0.460	53.640	-1.500	-0.100																			1580020798.0	7.30	13.52
26/01/2020 06:39:59	26012020	260120	063959	53.670	12.706067	-57.254618	53.570	0.490	-0.760	-0.850	53.700	-2.100	-0.500																			1580020799.0	7.87	14.58
26/01/2020 06:40:00	26012020	260120	064000	53.820	12.706092	-57.254590	53.710	0.600	-0.880	-1.110	53.850	-2.300	-0.700	1014.00	25.70	25.70	20.20	20.20	0.00	71.00	71.00	430.00	25.50	17.00	9.80	81.00	6.30	15	3238.00	27.40	27.40	1580020800.0	7.91	14.65
26/01/2020 06:40:01	26012020	260120	064001	53.970	12.706113	-57.254563	53.860	0.370	-0.320	-0.970	53.990	-1.800	-0.600																			1580020801.0	7.26	13.45
26/01/2020 06:40:02	26012020	260120	064002	54.000	12.706130	-57.254537	53.850	-0.080	0.440	-0.400	53.980	-1.000	-0.100																			1580020802.0	6.65	12.32
26/01/2020 06:40:03	26012020	260120	064003	53.820	12.706145	-57.254510	53.650	-0.490	0.720	0.290	53.820	-0.700	0.600																			1580020803.0	6.66	12.33
26/01/2020 06:40:04	26012020	260120	064004	53.580	12.706163	-57.254480	53.450	-0.590	0.240	0.790	53.550	-1.100	1.100																			1580020804.0	7.24	13.41
26/01/2020 06:40:05	26012020	260120	064005	53.620	12.706183	-57.254450	53.570	-0.320	-0.600	0.840	53.620	-1.900	1.200																			1580020805.0	7.91	14.65
26/01/2020 06:40:06	26012020	260120	064006	53.900	12.706207	-57.254418	53.870	0.080	-0.990	0.630	53.950	-2.400	1.000																			1580020806.0	8.04	14.89
26/01/2020 06:40:07	26012020	260120	064007	54.030	12.706227	-57.254390	53.930	0.280	-0.580	0.520	54.010	-2.000	0.900																			1580020807.0	7.42	13.74
26/01/2020 06:40:08	26012020	260120	064008	53.840	12.706245	-57.254365	53.690	0.130	0.190	0.540	53.780	-1.300	0.900																			1580020808.0	6.66	12.33
26/01/2020 06:40:09	26012020	260120	064009	53.590	12.706263	-57.254340	53.450	-0.150	0.510	0.350	53.550	-0.900	0.700																			1580020809.0	6.53	12.09
26/01/2020 06:40:10	26012020	260120	064010	53.530	12.706285	-57.254315	53.420	-0.180	0.050	-0.230	53.550	-1.300	0.200																			1580020810.0	7.17	13.28
26/01/2020 06:40:11	26012020	260120	064011	53.640	12.706312	-57.254288	53.530	0.160	-0.680	-0.930	53.660	-2.000	-0.500																			1580020811.0	7.99	14.80
26/01/2020 06:40:12	26012020	260120	064012	53.690	12.706338	-57.254260	53.550	0.490	-0.810	-1.260	53.690	-2.200	-0.900																			1580020812.0	8.05	14.91
26/01/2020 06:40:13	26012020	260120	064013	53.620	12.706358	-57.254235	53.470	0.360	-0.180	-1.100	53.600	-1.600	-0.800																			1580020813.0	7.18	13.30
26/01/2020 06:40:14	26012020	260120	064014	53.530	12.706377	-57.254208	53.380	-0.140	0.450	-0.730	53.510	-1.000	-0.400																			1580020814.0	6.50	12.04
26/01/2020 06:40:15	26012020	260120	064015	53.510	12.706393	-57.254182	53.400	-0.530	0.440	-0.420	53.530	-0.900	-0.100																			1580020815.0	6.73	12.46
26/01/2020 06:40:16	26012020	260120	064016	53.640	12.706413	-57.254153	53.560	-0.470	-0.120	-0.170	53.670	-1.400	0.200																			1580020816.0	7.46	13.82
26/01/2020 06:40:17	26012020	260120	064017	53.780	12.706433	-57.254123	53.690	-0.100	-0.660	0.160	53.780	-2.000	0.500																			1580020817.0	7.87	14.58
26/01/2020 06:40:18	26012020	260120	064018	53.750	12.706453	-57.254092	53.640	0.240	-0.660	0.660	53.720	-2.100	1.000																			1580020818.0	7.65	14.17
26/01/2020 06:40:19	26012020	260120	064019	53.610	12.706470	-57.254063	53.510	0.260	-0.190	1.130	53.590	-1.600	1.400																			1580020819.0	7.06	13.08
26/01/2020 06:40:20	26012020	260120	064020	53.530	12.706487	-57.254037	53.440	0.020	0.270	1.270	53.520	-1.100	1.600																			1580020820.0	6.67	12.35
26/01/2020 06:40:21	26012020	260120	064021	53.480	12.706507	-57.254012	53.380	-0.190	0.220	1.010	53.470	-1.100	1.400																			1580020821.0	6.84	12.67
26/01/2020 06:40:22	26012020	260120	064022	53.470	12.706530	-57.253985	53.370	-0.050	-0.350	0.410	53.470	-1.700	0.800																			1580020822.0	7.50	13.89
26/01/2020 06:40:23	26012020	260120	064023	53.530	12.706555	-57.253958	53.420	0.320	-0.840	-0.240	53.540	-2.200	0.200																			1580020823.0	8.00	14.82
26/01/2020 06:40:24	26012020	260120	064024	53.540	12.706580	-57.253930	53.400	0.470	-0.650	-0.650	53.520	-2.100	-0.300																			1580020824.0	7.73	14.32
26/01/2020 06:40:25	26012020	260120	064025	53.450	12.706600	-57.253905	53.320	0.170	0.070	-0.900	53.440	-1.400	-0.500																			1580020825.0	6.91	12.80
26/01/2020 06:40:26	26012020	260120	064026	53.450	12.706620	-57.253882	53.330	-0.280	0.640	-1.030	53.460	-0.800	-0.700																			1580020826.0	6.48	12.00
26/01/2020 06:40:27	26012020	260120	064027	53.500	12.706640	-57.253857	53.390	-0.480	0.510	-0.970	53.510	-0.800	-0.600																			1580020827.0	6.82	12.63
26/01/2020 06:40:28	26012020	260120	064028	53.560	12.706660	-57.253828	53.460	-0.280	-0.220	-0.780	53.580	-1.500	-0.400																			1580020828.0	7.54	13.96
26/01/2020 06:40:29	26012020	260120	064029	53.640	12.706682	-57.253797	53.530	0.090	-0.870	-0.490	53.640	-2.200	-0.200																			1580020829.0	8.04	14.89
26/01/2020 06:40:30	26012020	260120	064030	53.630	12.706702	-57.253767	53.510	0.210	-0.720	0.090	53.610	-2.200	0.400																			1580020830.0	7.70	14.26
26/01/2020 06:40:31	26012020	260120	064031	53.540	12.706717	-57.253738	53.440	-0.050	-0.010	0.730	53.540	-1.500	1.000																			1580020831.0	6.80	12.59
26/01/2020 06:40:32	26012020	260120	064032	53.550	12.706732	-57.253713	53.470	-0.370	0.440	0.970	53.560	-1.000	1.300																			1580020832.0	6.40	11.85
26/01/2020 06:40:33	26012020	260120	064033	53.620	12.706752	-57.253687	53.540	-0.290	0.190	0.790	53.640	-1.100	1.200																			1580020833.0	6.86	12.70
26/01/2020 06:40:34	26012020	260120	064034	53.630	12.706773	-57.253658	53.520	0.250	-0.490	0.510	53.610	-1.800	0.900																			1580020834.0	7.66	14.19
26/01/2020 06:40:35	26012020	260120	064035	53.470	12.706797	-57.253628	53.340	0.770	-0.890	0.230	53.430	-2.300	0.600																			1580020835.0	7.99	14.80
26/01/2020 06:40:36	26012020	260120	064036	53.270	12.706822	-57.253603	53.150	0.780	-0.610	-0.130	53.250	-2.000	0.300																			1580020836.0	7.54	13.96
26/01/2020 06:40:37	26012020	260120	064037	53.270	12.706843	-57.253580	53.200	0.330	0.010	-0.600	53.310	-1.400	-0.200																			1580020837.0	6.85	12.69
26/01/2020 06:40:38	26012020	260120	064038	53.520	12.706865	-57.253557	53.460	-0.210	0.420	-1.060	53.580	-1.000	-0.700																			1580020838.0	6.71	12.43
26/01/2020 06:40:39	26012020	260120	064039	53.780	12.706887	-57.253533	53.690	-0.580	0.470	-1.180	53.820	-0.900	-0.800																			1580020839.0	6.97	12.91
26/01/2020 06:40:40	26012020	260120	064040	53.830	12.706907	-57.253505	53.690	-0.750	0.280	-0.710	53.810	-1.100	-0.400																			1580020840.0	7.20	13.33
26/01/2020 06:40:41	26012020	260120	064041	53.660	12.706923	-57.253473	53.510	-0.730	-0.130	0.060	53.620	-1.500	0.300																			1580020841.0	7.35	13.61
26/01/2020 06:40:42	26012020	260120	064042	53.500	12.706938	-57.253442	53.370	-0.430	-0.720	0.680	53.480	-2.000	1.000																			1580020842.0	7.60	14.08
26/01/2020 06:40:43	26012020	260120	064043	53.510	12.706957	-57.253410	53.410	0.130	-1.130	0.890	53.530	-2.500	1.200																			1580020843.0	7.77	14.39
26/01/2020 06:40:44	26012020	260120	064044	53.570	12.706975	-57.253380	53.450	0.650	-0.840	0.780	53.560	-2.300	1.200																			1580020844.0	7.51	13.91
26/01/2020 06:40:45	26012020	260120	064045	53.430	12.706995	-57.253355	53.260	0.760	0.040	0.470	53.380	-1.400	0.900																			1580020845.0	6.80	12.59
26/01/2020 06:40:46	26012020	260120	064046	53.170	12.707017	-57.253333	53.010	0.490	0.720	-0.050	53.140	-0.700	0.400																			1580020846.0	6.43	11.91
26/01/2020 06:40:47	26012020	260120	064047	53.090	12.707042	-57.253313	52.950	0.200	0.600	-0.740	53.090	-0.700	-0.300																			1580020847.0	6.94	12.85
26/01/2020 06:40:48	26012020	260120	064048	53.190	12.707068	-57.253288	53.070	0.050	-0.030	-1.340	53.220	-1.400	-0.900																			1580020848.0	7.73	14.32
26/01/2020 06:40:49	26012020	260120	064049	53.340	12.707093	-57.253262	53.190	-0.100	-0.460	-1.500	53.360	-1.800	-1.100																			1580020849.0	7.79	14.43
26/01/2020 06:40:50	26012020	260120	064050	53.390	12.707113	-57.253235	53.220	-0.290	-0.530	-1.070	53.380	-1.900	-0.800																			1580020850.0	7.31	13.54
26/01/2020 06:40:51	26012020	260120	064051	53.330	12.707130	-57.253205	53.170	-0.450	-0.480	-0.260	53.320	-1.900	0.000																			1580020851.0	7.11	13.17
26/01/2020 06:40:52	26012020	260120	064052	53.260	12.707145	-57.253173	53.130	-0.470	-0.430	0.610	53.250	-1.800	0.900																			1580020852.0	7.25	13.43
26/01/2020 06:40:53	26012020	260120	064053	53.200	12.707160	-57.253143	53.080	-0.330	-0.270	1.170	53.180	-1.700	1.500																			1580020853.0	7.27	13.46
26/01/2020 06:40:54	26012020	260120	064054	53.140	12.707177	-57.253113	53.030	-0.030	-0.110	1.240	53.130	-1.500	1.600																			1580020854.0	7.13	13.20
26/01/2020 06:40:55	26012020	260120	064055	53.100	12.707197	-57.253087	53.000	0.320	0.010	0.920	53.100	-1.400	1.300																			1580020855.0	7.16	13.26
26/01/2020 06:40:56	26012020	260120	064056	53.100	12.707218	-57.253062	52.990	0.490	0.120	0.370	53.110	-1.300	0.800																			1580020856.0	7.18	13.30
26/01/2020 06:40:57	26012020	260120	064057	53.110	12.707243	-57.253038	52.980	0.420	0.100	-0.330	53.110	-1.300	0.100																			1580020857.0	7.19	13.32
26/01/2020 06:40:58	26012020	260120	064058	53.110	12.707268	-57.253015	52.970	0.200	-0.040	-1.030	53.110	-1.400	-0.600																			1580020858.0	7.31	13.54
26/01/2020 06:40:59	26012020	260120	064059	53.120	12.707293	-57.252992	52.960	0.010	-0.240	-1.470	53.120	-1.600	-1.100																			1580020859.0	7.35	13.61
26/01/2020 06:41:00	26012020	260120	064100	53.120	12.707317	-57.252965	52.960	-0.050	-0.440	-1.480	53.120	-1.800	-1.100	1013.90	25.60	25.70	19.90	19.90	0.00	70.00	70.00	430.00	25.50	17.00	10.10	80.00	6.60	15	3226.00	27.40	27.40	1580020860.0	7.36	13.63
26/01/2020 06:41:01	26012020	260120	064101	53.150	12.707337	-57.252938	53.010	-0.060	-0.500	-1.100	53.160	-1.900	-0.800																			1580020861.0	7.36	13.63
26/01/2020 06:41:02	26012020	260120	064102	53.190	12.707355	-57.252908	53.060	-0.180	-0.300	-0.510	53.200	-1.700	-0.200																			1580020862.0	7.23	13.39
26/01/2020 06:41:03	26012020	260120	064103	53.210	12.707370	-57.252880	53.070	-0.340	-0.030	0.080	53.200	-1.400	0.400																			1580020863.0	7.00	12.96
26/01/2020 06:41:04	26012020	260120	064104	53.160	12.707387	-57.252852	53.020	-0.300	0.070	0.640	53.150	-1.300	0.900																			1580020864.0	7.00	12.96
26/01/2020 06:41:05	26012020	260120	064105	53.130	12.707405	-57.252822	53.010	-0.040	-0.110	0.960	53.140	-1.500	1.300																			1580020865.0	7.25	13.43
26/01/2020 06:41:06	26012020	260120	064106	53.210	12.707425	-57.252793	53.100	0.260	-0.350	0.960	53.220	-1.700	1.300																			1580020866.0	7.50	13.89
26/01/2020 06:41:07	26012020	260120	064107	53.260	12.707447	-57.252765	53.130	0.340	-0.310	0.780	53.260	-1.700	1.200																			1580020867.0	7.44	13.78
26/01/2020 06:41:08	26012020	260120	064108	53.240	12.707468	-57.252740	53.110	0.200	-0.020	0.430	53.240	-1.400	0.800																			1580020868.0	7.06	13.08
26/01/2020 06:41:09	26012020	260120	064109	53.240	12.707490	-57.252715	53.100	0.000	0.150	-0.060	53.240	-1.200	0.400																			1580020869.0	6.90	12.78
26/01/2020 06:41:10	26012020	260120	064110	53.260	12.707512	-57.252692	53.100	-0.070	0.000	-0.540	53.260	-1.400	-0.100																			1580020870.0	7.15	13.24
26/01/2020 06:41:11	26012020	260120	064111	53.220	12.707535	-57.252665	53.050	-0.010	-0.270	-0.820	53.210	-1.600	-0.400																			1580020871.0	7.43	13.76
26/01/2020 06:41:12	26012020	260120	064112	53.150	12.707558	-57.252638	52.980	0.060	-0.390	-0.950	53.140	-1.800	-0.600																			1580020872.0	7.45	13.80
26/01/2020 06:41:13	26012020	260120	064113	53.150	12.707580	-57.252612	53.010	0.040	-0.300	-0.920	53.170	-1.700	-0.600																			1580020873.0	7.22	13.37
26/01/2020 06:41:14	26012020	260120	064114	53.220	12.707598	-57.252585	53.060	-0.070	-0.240	-0.640	53.220	-1.600	-0.300																			1580020874.0	7.09	13.13
26/01/2020 06:41:15	26012020	260120	064115	53.220	12.707617	-57.252557	53.070	-0.160	-0.250	-0.240	53.220	-1.600	0.100																			1580020875.0	7.22	13.37
26/01/2020 06:41:16	26012020	260120	064116	53.250	12.707637	-57.252527	53.120	-0.160	-0.230	0.070	53.260	-1.600	0.400																			1580020876.0	7.30	13.52
26/01/2020 06:41:17	26012020	260120	064117	53.310	12.707655	-57.252500	53.180	-0.070	-0.090	0.330	53.320	-1.500	0.700																			1580020877.0	7.23	13.39
26/01/2020 06:41:18	26012020	260120	064118	53.300	12.707673	-57.252472	53.170	0.030	0.070	0.610	53.300	-1.300	0.900																			1580020878.0	7.12	13.19
26/01/2020 06:41:19	26012020	260120	064119	53.270	12.707692	-57.252443	53.140	0.090	0.070	0.740	53.270	-1.300	1.100																			1580020879.0	7.10	13.15
26/01/2020 06:41:20	26012020	260120	064120	53.270	12.707713	-57.252417	53.150	0.150	-0.150	0.580	53.280	-1.500	1.000																			1580020880.0	7.26	13.45
26/01/2020 06:41:21	26012020	260120	064121	53.280	12.707737	-57.252390	53.160	0.290	-0.480	0.280	53.280	-1.800	0.700																			1580020881.0	7.52	13.93
26/01/2020 06:41:22	26012020	260120	064122	53.260	12.707760	-57.252362	53.130	0.380	-0.570	-0.040	53.260	-2.000	0.400																			1580020882.0	7.62	14.11
26/01/2020 06:41:23	26012020	260120	064123	53.220	12.707782	-57.252337	53.080	0.180	-0.240	-0.260	53.220	-1.700	0.100																			1580020883.0	7.31	13.54
26/01/2020 06:41:24	26012020	260120	064124	53.230	12.707802	-57.252312	53.090	-0.340	0.280	-0.390	53.230	-1.100	-0.000																			1580020884.0	6.83	12.65
26/01/2020 06:41:25	26012020	260120	064125	53.240	12.707822	-57.252287	53.100	-0.790	0.520	-0.420	53.250	-0.900	-0.000																			1580020885.0	6.67	12.35
26/01/2020 06:41:26	26012020	260120	064126	53.340	12.707842	-57.252260	53.230	-0.730	0.140	-0.450	53.380	-1.200	-0.100																			1580020886.0	7.01	12.98
26/01/2020 06:41:27	26012020	260120	064127	53.480	12.707862	-57.252230	53.340	-0.180	-0.650	-0.410	53.490	-1.900	-0.100																			1580020887.0	7.75	14.35
26/01/2020 06:41:28	26012020	260120	064128	53.390	12.707882	-57.252198	53.210	0.410	-1.050	-0.170	53.340	-2.400	0.200																			1580020888.0	8.04	14.89
26/01/2020 06:41:29	26012020	260120	064129	53.110	12.707902	-57.252170	52.910	0.610	-0.650	0.080	53.050	-2.100	0.400																			1580020889.0	7.43	13.76
26/01/2020 06:41:30	26012020	260120	064130	52.870	12.707922	-57.252145	52.730	0.450	0.080	0.190	52.860	-1.400	0.500																			1580020890.0	6.69	12.39
26/01/2020 06:41:31	26012020	260120	064131	52.930	12.707942	-57.252122	52.850	0.220	0.370	-0.020	52.980	-1.000	0.400																			1580020891.0	6.68	12.37
26/01/2020 06:41:32	26012020	260120	064132	53.200	12.707965	-57.252095	53.100	0.040	0.160	-0.410	53.250	-1.200	-0.000																			1580020892.0	7.30	13.52
26/01/2020 06:41:33	26012020	260120	064133	53.320	12.707988	-57.252068	53.170	-0.140	-0.040	-0.480	53.320	-1.400	-0.100																			1580020893.0	7.58	14.04
26/01/2020 06:41:34	26012020	260120	064134	53.230	12.708008	-57.252042	53.060	-0.320	-0.070	-0.150	53.200	-1.400	0.200																			1580020894.0	7.27	13.46
26/01/2020 06:41:35	26012020	260120	064135	53.110	12.708027	-57.252013	52.950	-0.380	-0.180	0.270	53.090	-1.500	0.600																			1580020895.0	7.17	13.28
26/01/2020 06:41:36	26012020	260120	064136	53.030	12.708045	-57.251983	52.890	-0.290	-0.340	0.570	53.020	-1.700	0.900																			1580020896.0	7.34	13.59
26/01/2020 06:41:37	26012020	260120	064137	52.990	12.708063	-57.251955	52.860	-0.150	-0.400	0.550	52.980	-1.800	0.900																			1580020897.0	7.34	13.59
26/01/2020 06:41:38	26012020	260120	064138	53.030	12.708085	-57.251928	52.920	-0.020	-0.300	0.260	53.050	-1.700	0.700																			1580020898.0	7.22	13.37
26/01/2020 06:41:39	26012020	260120	064139	53.100	12.708107	-57.251902	52.960	0.040	-0.060	-0.050	53.090	-1.500	0.300																			1580020899.0	7.06	13.08
26/01/2020 06:41:40	26012020	260120	064140	52.990	12.708127	-57.251877	52.830	0.050	0.090	-0.220	52.970	-1.300	0.200																			1580020900.0	6.94	12.85
26/01/2020 06:41:41	26012020	260120	064141	52.890	12.708148	-57.251852	52.750	0.130	-0.170	-0.500	52.890	-1.500	-0.100																			1580020901.0	7.16	13.26
26/01/2020 06:41:42	26012020	260120	064142	52.880	12.708173	-57.251825	52.740	0.330	-0.660	-0.810	52.880	-2.000	-0.400																			1580020902.0	7.71	14.28
26/01/2020 06:41:43	26012020	260120	064143	52.810	12.708197	-57.251797	52.640	0.460	-0.750	-0.910	52.810	-2.100	-0.500																			1580020903.0	7.84	14.52
26/01/2020 06:41:44	26012020	260120	064144	52.700	12.708218	-57.251770	52.530	0.310	-0.280	-0.760	52.670	-1.700	-0.400																			1580020904.0	7.29	13.50
26/01/2020 06:41:45	26012020	260120	064145	52.660	12.708237	-57.251743	52.520	-0.070	0.290	-0.540	52.660	-1.100	-0.200																			1580020905.0	6.81	12.61
26/01/2020 06:41:46	26012020	260120	064146	52.750	12.708255	-57.251718	52.640	-0.410	0.560	-0.370	52.770	-0.800	-0.000																			1580020906.0	6.84	12.67
26/01/2020 06:41:47	26012020	260120	064147	52.830	12.708275	-57.251690	52.700	-0.600	0.550	-0.100	52.830	-0.800	0.200																			1580020907.0	7.07	13.09
26/01/2020 06:41:48	26012020	260120	064148	52.710	12.708292	-57.251662	52.540	-0.610	0.330	0.320	52.660	-1.000	0.600																			1580020908.0	7.14	13.22
26/01/2020 06:41:49	26012020	260120	064149	52.380	12.708310	-57.251632	52.190	-0.380	-0.240	0.690	52.300	-1.500	1.000																			1580020909.0	7.27	13.46
26/01/2020 06:41:50	26012020	260120	064150	51.980	12.708332	-57.251603	51.800	0.120	-1.010	0.840	51.910	-2.300	1.200																			1580020910.0	7.68	14.22
26/01/2020 06:41:51	26012020	260120	064151	51.710	12.708355	-57.251573	51.580	0.590	-1.450	0.660	51.680	-2.800	1.000																			1580020911.0	7.92	14.67
26/01/2020 06:41:52	26012020	260120	064152	51.590	12.708377	-57.251547	51.460	0.660	-1.010	0.290	51.570	-2.500	0.700																			1580020912.0	7.56	14.00
26/01/2020 06:41:53	26012020	260120	064153	51.470	12.708398	-57.251523	51.320	0.270	0.120	-0.120	51.440	-1.400	0.300																			1580020913.0	6.65	12.32
26/01/2020 06:41:54	26012020	260120	064154	51.260	12.708418	-57.251502	51.070	-0.230	1.000	-0.390	51.190	-0.400	-0.000																			1580020914.0	6.15	11.39
26/01/2020 06:41:55	26012020	260120	064155	50.910	12.708438	-57.251478	50.720	-0.370	0.840	-0.470	50.840	-0.500	-0.100																			1580020915.0	6.69	12.39
26/01/2020 06:41:56	26012020	260120	064156	50.630	12.708462	-57.251450	50.480	-0.010	-0.230	-0.610	50.590	-1.500	-0.200																			1580020916.0	7.84	14.52
26/01/2020 06:41:57	26012020	260120	064157	50.470	12.708487	-57.251418	50.320	0.390	-1.040	-0.770	50.470	-2.400	-0.400																			1580020917.0	8.48	15.70
26/01/2020 06:41:58	26012020	260120	064158	50.230	12.708510	-57.251392	50.070	0.340	-0.710	-0.740	50.170	-2.200	-0.400																			1580020918.0	7.74	14.33
26/01/2020 06:41:59	26012020	260120	064159	49.920	12.708528	-57.251367	49.780	-0.170	0.340	-0.380	49.870	-1.100	-0.100																			1580020919.0	6.41	11.87
26/01/2020 06:42:00	26012020	260120	064200	49.700	12.708545	-57.251345	49.600	-0.670	0.940	0.060	49.670	-0.400	0.400	1014.00	25.70	25.70	19.90	19.90	0.00	70.00	70.00	430.00	25.50	18.00	9.70	82.00	6.30	15	3267.00	27.40	27.40	1580020920.0	5.93	10.98
26/01/2020 06:42:01	26012020	260120	064201	49.550	12.708562	-57.251318	49.470	-0.690	0.400	0.420	49.520	-0.900	0.700																			1580020921.0	6.73	12.46
26/01/2020 06:42:02	26012020	260120	064202	49.390	12.708583	-57.251288	49.300	-0.210	-0.710	0.700	49.350	-2.000	1.000																			1580020922.0	7.87	14.58
26/01/2020 06:42:03	26012020	260120	064203	49.140	12.708607	-57.251257	49.000	0.370	-1.310	1.010	49.050	-2.700	1.300																			1580020923.0	8.20	15.19
26/01/2020 06:42:04	26012020	260120	064204	48.620	12.708627	-57.251228	48.440	0.570	-0.860	1.290	48.490	-2.300	1.600																			1580020924.0	7.43	13.76
26/01/2020 06:42:05	26012020	260120	064205	47.970	12.708647	-57.251205	47.800	0.310	0.040	1.170	47.850	-1.400	1.600																			1580020925.0	6.42	11.89
26/01/2020 06:42:06	26012020	260120	064206	47.510	12.708668	-57.251185	47.390	-0.010	0.430	0.480	47.450	-0.900	0.900																			1580020926.0	6.36	11.78
26/01/2020 06:42:07	26012020	260120	064207	47.340	12.708695	-57.251163	47.260	-0.050	0.110	-0.530	47.330	-1.200	-0.100																			1580020927.0	7.17	13.28
26/01/2020 06:42:08	26012020	260120	064208	47.260	12.708723	-57.251140	47.150	0.090	-0.300	-1.390	47.210	-1.700	-1.000																			1580020928.0	7.75	14.35
26/01/2020 06:42:09	26012020	260120	064209	46.910	12.708748	-57.251117	46.730	0.090	-0.250	-1.760	46.910	-1.700	-1.400																			1580020929.0	7.48	13.85
26/01/2020 06:42:10	26012020	260120	064210	46.280	12.708768	-57.251092	46.090	-0.130	0.070	-1.630	46.140	-1.300	-1.300																			1580020930.0	6.79	12.58
26/01/2020 06:42:11	26012020	260120	064211	45.550	12.708788	-57.251067	45.370	-0.290	0.100	-1.240	45.550	-1.300	-0.900																			1580020931.0	6.63	12.28
26/01/2020 06:42:12	26012020	260120	064212	44.860	12.708808	-57.251042	44.690	-0.150	-0.250	-0.760	44.730	-1.600	-0.400																			1580020932.0	7.06	13.08
26/01/2020 06:42:13	26012020	260120	064213	44.170	12.708830	-57.251015	43.990	0.140	-0.480	-0.260	44.030	-1.800	0.100																			1580020933.0	7.33	13.58
26/01/2020 06:42:14	26012020	260120	064214	43.450	12.708850	-57.250988	43.260	0.230	-0.300	0.260	43.290	-1.700	0.600																			1580020934.0	7.01	12.98
26/01/2020 06:42:15	26012020	260120	064215	42.630	12.708870	-57.250965	42.430	0.040	0.080	0.810	42.440	-1.300	1.100																			1580020935.0	6.55	12.13
26/01/2020 06:42:16	26012020	260120	064216	41.680	12.708890	-57.250942	41.480	-0.220	0.240	1.260	41.490	-1.100	1.600																			1580020936.0	6.42	11.89
26/01/2020 06:42:17	26012020	260120	064217	40.780	12.708910	-57.250918	40.580	-0.300	-0.060	1.340	40.610	-1.400	1.700																			1580020937.0	6.72	12.45
26/01/2020 06:42:18	26012020	260120	064218	39.950	12.708933	-57.250895	39.730	-0.190	-0.480	1.120	39.780	-1.800	1.500																			1580020938.0	7.10	13.15
26/01/2020 06:42:19	26012020	260120	064219	39.050	12.708958	-57.250872	38.800	-0.000	-0.610	0.950	38.840	-2.000	1.300																			1580020939.0	7.03	13.02
26/01/2020 06:42:20	26012020	260120	064220	38.010	12.708980	-57.250850	37.740	0.200	-0.450	0.830	37.800	-1.800	1.200																			1580020940.0	6.65	12.32
26/01/2020 06:42:21	26012020	260120	064221	36.990	12.709003	-57.250830	36.720	0.420	-0.390	0.530	36.780	-1.800	0.900																			1580020941.0	6.54	12.11
26/01/2020 06:42:22	26012020	260120	064222	36.020	12.709028	-57.250810	35.760	0.560	-0.330	0.080	35.820	-1.700	0.500																			1580020942.0	6.75	12.50
26/01/2020 06:42:23	26012020	260120	064223	34.960	12.709053	-57.250792	34.680	0.440	0.080	-0.290	34.730	-1.400	0.100																			1580020943.0	6.60	12.22
26/01/2020 06:42:24	26012020	260120	064224	33.750	12.709075	-57.250775	33.490	0.040	0.700	-0.450	33.530	-0.700	-0.100																			1580020944.0	6.01	11.13
26/01/2020 06:42:25	26012020	260120	064225	32.660	12.709097	-57.250758	32.430	-0.350	0.830	-0.510	32.470	-0.500	-0.100																			1580020945.0	5.77	10.69
26/01/2020 06:42:26	26012020	260120	064226	31.730	12.709120	-57.250740	31.530	-0.430	0.170	-0.470	31.550	-1.100	-0.100																			1580020946.0	6.33	11.72
26/01/2020 06:42:27	26012020	260120	064227	30.780	12.709147	-57.250720	30.550	-0.230	-0.690	-0.140	30.570	-2.000	0.200																			1580020947.0	6.99	12.95
26/01/2020 06:42:28	26012020	260120	064228	29.670	12.709170	-57.250698	29.420	-0.050	-0.990	0.460	29.430	-2.400	0.800																			1580020948.0	6.96	12.89
26/01/2020 06:42:29	26012020	260120	064229	28.470	12.709192	-57.250678	28.210	-0.100	-0.610	1.070	28.220	-2.000	1.400																			1580020949.0	6.27	11.61
26/01/2020 06:42:30	26012020	260120	064230	27.310	12.709212	-57.250662	27.070	-0.230	-0.050	1.450	27.090	-1.500	1.800																			1580020950.0	5.66	10.48
26/01/2020 06:42:31	26012020	260120	064231	26.270	12.709233	-57.250645	26.050	-0.150	0.170	1.570	26.070	-1.200	1.900																			1580020951.0	5.70	10.56
26/01/2020 06:42:32	26012020	260120	064232	25.240	12.709257	-57.250628	24.980	0.150	0.060	1.610	25.010	-1.300	2.000																			1580020952.0	6.14	11.37
26/01/2020 06:42:33	26012020	260120	064233	24.090	12.709282	-57.250612	23.820	0.460	-0.190	1.570	24.090	-1.500	1.900																			1580020953.0	6.39	11.83
26/01/2020 06:42:34	26012020	260120	064234	22.960	12.709308	-57.250597	22.660	0.580	-0.390	1.350	22.730	-1.800	1.700																			1580020954.0	6.39	11.83
26/01/2020 06:42:35	26012020	260120	064235	21.870	12.709333	-57.250583	21.600	0.430	-0.410	1.010	21.670	-1.800	1.400																			1580020955.0	6.22	11.52
26/01/2020 06:42:36	26012020	260120	064236	20.920	12.709358	-57.250572	20.670	0.120	-0.230	0.530	20.750	-1.600	0.900																			1580020956.0	5.96	11.04
26/01/2020 06:42:37	26012020	260120	064237	20.060	12.709383	-57.250563	19.800	-0.160	0.130	0.080	19.900	-1.300	0.500																			1580020957.0	5.74	10.63
26/01/2020 06:42:38	26012020	260120	064238	19.240	12.709408	-57.250555	18.990	-0.310	0.490	-0.110	19.100	-0.900	0.300																			1580020958.0	5.52	10.22
26/01/2020 06:42:39	26012020	260120	064239	18.500	12.709432	-57.250545	18.260	-0.360	0.520	-0.140	18.360	-0.800	0.200																			1580020959.0	5.55	10.28
26/01/2020 06:42:40	26012020	260120	064240	17.780	12.709457	-57.250532	17.530	-0.380	0.210	0.040	17.630	-1.100	0.400																			1580020960.0	5.83	10.80
26/01/2020 06:42:41	26012020	260120	064241	16.980	12.709480	-57.250518	16.710	-0.390	-0.170	0.510	16.800	-1.500	0.800																			1580020961.0	6.03	11.17
26/01/2020 06:42:42	26012020	260120	064242	16.070	12.709505	-57.250503	15.820	-0.320	-0.500	1.080	15.890	-1.800	1.400																			1580020962.0	6.00	11.11
26/01/2020 06:42:43	26012020	260120	064243	15.230	12.709530	-57.250492	15.020	-0.060	-0.860	1.440	15.080	-2.200	1.800																			1580020963.0	5.98	11.07
26/01/2020 06:42:44	26012020	260120	064244	14.510	12.709555	-57.250480	14.300	0.370	-1.010	1.540	14.360	-2.400	1.900																			1580020964.0	6.08	11.26
26/01/2020 06:42:45	26012020	260120	064245	13.740	12.709582	-57.250470	13.500	0.680	-0.710	1.520	13.570	-2.100	1.900																			1580020965.0	5.92	10.96
26/01/2020 06:42:46	26012020	260120	064246	12.900	12.709605	-57.250462	12.650	0.680	-0.130	1.310	12.740	-1.500	1.700																			1580020966.0	5.54	10.26
26/01/2020 06:42:47	26012020	260120	064247	12.150	12.709630	-57.250457	11.920	0.420	0.310	0.880	12.150	-1.100	1.300																			1580020967.0	5.42	10.04
26/01/2020 06:42:48	26012020	260120	064248	11.570	12.709657	-57.250452	11.350	0.100	0.460	0.340	11.470	-0.900	0.800																			1580020968.0	5.62	10.41
26/01/2020 06:42:49	26012020	260120	064249	11.070	12.709682	-57.250447	10.840	-0.240	0.550	-0.080	10.960	-0.800	0.300																			1580020969.0	5.73	10.61
26/01/2020 06:42:50	26012020	260120	064250	10.450	12.709707	-57.250440	10.210	-0.630	0.730	-0.230	10.310	-0.700	0.100																			1580020970.0	5.46	10.11
26/01/2020 06:42:51	26012020	260120	064251	9.720	12.709730	-57.250433	9.490	-0.900	0.660	-0.150	9.570	-0.700	0.200																			1580020971.0	5.15	9.54
26/01/2020 06:42:52	26012020	260120	064252	8.990	12.709753	-57.250427	8.770	-0.810	-0.010	0.030	8.850	-1.300	0.400																			1580020972.0	5.42	10.04
26/01/2020 06:42:53	26012020	260120	064253	8.310	12.709780	-57.250418	8.100	-0.340	-0.980	0.200	8.180	-2.300	0.600																			1580020973.0	6.00	11.11
26/01/2020 06:42:54	26012020	260120	064254	7.710	12.709808	-57.250412	7.500	0.300	-1.620	0.370	7.590	-2.900	0.700																			1580020974.0	6.25	11.58
26/01/2020 06:42:55	26012020	260120	064255	7.150	12.709835	-57.250403	6.960	0.770	-1.490	0.610	7.040	-2.900	1.000																			1580020975.0	5.95	11.02
26/01/2020 06:42:56	26012020	260120	064256	6.610	12.709860	-57.250397	6.410	0.840	-0.710	0.890	6.490	-2.100	1.200																			1580020976.0	5.44	10.07
26/01/2020 06:42:57	26012020	260120	064257	5.950	12.709883	-57.250390	5.740	0.450	0.350	1.080	5.800	-1.100	1.400																			1580020977.0	5.04	9.33
26/01/2020 06:42:58	26012020	260120	064258	5.140	12.709905	-57.250387	4.920	-0.140	1.170	1.150	4.970	-0.200	1.500																			1580020978.0	4.84	8.96
26/01/2020 06:42:59	26012020	260120	064259	4.360	12.709928	-57.250383	4.180	-0.550	1.270	1.010	4.360	-0.100	1.400																			1580020979.0	5.04	9.33
26/01/2020 06:43:00	26012020	260120	064300	3.770	12.709955	-57.250382	3.630	-0.540	0.590	0.650	3.670	-0.700	1.100	1014.00	25.70	25.70	19.90	19.90	0.00	70.00	70.00	430.00	25.50	40.00	8.40	87.00	6.60	15	3299.00	27.40	27.40	1580020980.0	5.65	10.46
26/01/2020 06:43:01	26012020	260120	064301	3.300	12.709983	-57.250380	3.160	-0.250	-0.250	0.270	3.300	-1.600	0.700																			1580020981.0	6.09	11.28
26/01/2020 06:43:02	26012020	260120	064302	2.820	12.710010	-57.250378	2.680	0.000	-0.770	-0.040	2.720	-2.100	0.400																			1580020982.0	5.91	10.95
26/01/2020 06:43:03	26012020	260120	064303	2.330	12.710035	-57.250375	2.200	0.060	-0.920	-0.240	2.240	-2.300	0.100																			1580020983.0	5.51	10.20
26/01/2020 06:43:04	26012020	260120	064304	1.870	12.710060	-57.250372	1.730	0.090	-0.850	-0.230	1.770	-2.200	0.100																			1580020984.0	5.33	9.87
26/01/2020 06:43:05	26012020	260120	064305	1.290	12.710085	-57.250370	1.110	0.180	-0.530	0.060	1.140	-1.900	0.400																			1580020985.0	5.35	9.91
26/01/2020 06:43:06	26012020	260120	064306	0.510	12.710108	-57.250365	0.310	0.230	-0.010	0.460	0.340	-1.400	0.800																			1580020986.0	5.26	9.74
26/01/2020 06:43:07	26012020	260120	064307	359.680	12.710132	-57.250363	359.490	0.110	0.480	0.770	359.520	-0.900	1.100																			1580020987.0	5.11	9.46
26/01/2020 06:43:08	26012020	260120	064308	358.970	12.710157	-57.250360	358.820	-0.140	0.620	0.840	358.850	-0.700	1.200																			1580020988.0	5.10	9.45
26/01/2020 06:43:09	26012020	260120	064309	358.480	12.710182	-57.250360	358.350	-0.280	0.310	0.670	358.390	-1.000	1.100																			1580020989.0	5.36	9.93
26/01/2020 06:43:10	26012020	260120	064310	358.110	12.710207	-57.250360	357.990	-0.190	-0.240	0.410	358.050	-1.600	0.800																			1580020990.0	5.66	10.48
26/01/2020 06:43:11	26012020	260120	064311	357.790	12.710235	-57.250360	357.640	0.010	-0.720	0.160	357.710	-2.000	0.600																			1580020991.0	5.81	10.76
26/01/2020 06:43:12	26012020	260120	064312	357.330	12.710260	-57.250360	357.120	0.130	-0.770	0.160	357.210	-2.100	0.500																			1580020992.0	5.66	10.48
26/01/2020 06:43:13	26012020	260120	064313	356.680	12.710285	-57.250360	356.430	0.140	-0.390	0.410	356.540	-1.800	0.800																			1580020993.0	5.27	9.76
26/01/2020 06:43:14	26012020	260120	064314	355.900	12.710308	-57.250358	355.640	0.100	0.130	0.700	355.760	-1.300	1.100																			1580020994.0	4.97	9.20
26/01/2020 06:43:15	26012020	260120	064315	355.140	12.710332	-57.250358	354.890	0.030	0.370	0.750	355.010	-1.000	1.100																			1580020995.0	4.98	9.22
26/01/2020 06:43:16	26012020	260120	064316	354.530	12.710357	-57.250360	354.300	-0.070	0.240	0.570	354.430	-1.100	1.000																			1580020996.0	5.30	9.82
26/01/2020 06:43:17	26012020	260120	064317	354.080	12.710382	-57.250363	353.880	-0.160	0.000	0.280	354.010	-1.300	0.700																			1580020997.0	5.51	10.20
26/01/2020 06:43:18	26012020	260120	064318	353.750	12.710407	-57.250367	353.550	-0.170	-0.170	-0.010	353.690	-1.500	0.400																			1580020998.0	5.42	10.04
26/01/2020 06:43:19	26012020	260120	064319	353.370	12.710432	-57.250368	353.130	-0.050	-0.270	-0.020	353.280	-1.600	0.300																			1580020999.0	5.28	9.78
26/01/2020 06:43:20	26012020	260120	064320	352.870	12.710457	-57.250368	352.600	0.100	-0.430	0.210	352.760	-1.800	0.500																			1580021000.0	5.33	9.87
26/01/2020 06:43:21	26012020	260120	064321	352.280	12.710482	-57.250367	352.000	0.210	-0.640	0.420	352.160	-2.000	0.800																			1580021001.0	5.54	10.26
26/01/2020 06:43:22	26012020	260120	064322	351.620	12.710508	-57.250368	351.310	0.230	-0.570	0.610	351.470	-1.900	1.000																			1580021002.0	5.60	10.37
26/01/2020 06:43:23	26012020	260120	064323	350.850	12.710532	-57.250372	350.540	0.190	-0.150	0.790	350.850	-1.500	1.200																			1580021003.0	5.32	9.85
26/01/2020 06:43:24	26012020	260120	064324	350.150	12.710555	-57.250375	349.870	0.080	0.280	0.700	350.030	-1.100	1.100																			1580021004.0	5.05	9.35
26/01/2020 06:43:25	26012020	260120	064325	349.620	12.710578	-57.250380	349.350	-0.060	0.470	0.390	349.620	-0.900	0.800																			1580021005.0	5.10	9.45
26/01/2020 06:43:26	26012020	260120	064326	349.250	12.710602	-57.250387	349.020	-0.200	0.450	0.130	349.210	-0.900	0.500																			1580021006.0	5.18	9.59
26/01/2020 06:43:27	26012020	260120	064327	349.080	12.710627	-57.250390	348.880	-0.320	0.180	-0.060	349.050	-1.100	0.300																			1580021007.0	5.23	9.69
26/01/2020 06:43:28	26012020	260120	064328	348.830	12.710652	-57.250393	348.570	-0.390	-0.160	0.010	348.750	-1.500	0.400																			1580021008.0	5.40	10.00
26/01/2020 06:43:29	26012020	260120	064329	348.260	12.710675	-57.250397	347.960	-0.340	-0.370	0.340	348.120	-1.700	0.700																			1580021009.0	5.36	9.93
26/01/2020 06:43:30	26012020	260120	064330	347.540	12.710700	-57.250398	347.270	-0.030	-0.540	0.770	347.410	-1.900	1.100																			1580021010.0	5.28	9.78
26/01/2020 06:43:31	26012020	260120	064331	346.990	12.710725	-57.250402	346.770	0.470	-0.870	0.950	346.910	-2.200	1.300																			1580021011.0	5.49	10.17
26/01/2020 06:43:32	26012020	260120	064332	346.660	12.710752	-57.250405	346.450	0.810	-1.050	0.770	346.610	-2.400	1.200																			1580021012.0	5.82	10.78
26/01/2020 06:43:33	26012020	260120	064333	346.380	12.710777	-57.250412	346.170	0.590	-0.540	0.450	346.310	-2.000	0.900																			1580021013.0	5.56	10.30
26/01/2020 06:43:34	26012020	260120	064334	346.020	12.710798	-57.250418	345.790	-0.060	0.460	0.200	345.930	-1.000	0.600																			1580021014.0	4.80	8.89
26/01/2020 06:43:35	26012020	260120	064335	345.610	12.710818	-57.250427	345.370	-0.590	1.180	0.110	345.520	-0.200	0.500																			1580021015.0	4.43	8.20
26/01/2020 06:43:36	26012020	260120	064336	345.250	12.710838	-57.250433	345.010	-0.570	0.980	0.070	345.190	-0.300	0.500																			1580021016.0	4.84	8.96
26/01/2020 06:43:37	26012020	260120	064337	344.990	12.710865	-57.250440	344.770	-0.090	0.010	-0.020	344.990	-1.300	0.400																			1580021017.0	5.77	10.69
26/01/2020 06:43:38	26012020	260120	064338	344.750	12.710893	-57.250447	344.520	0.290	-0.790	0.000	344.700	-2.100	0.400																			1580021018.0	6.22	11.52
26/01/2020 06:43:39	26012020	260120	064339	344.460	12.710918	-57.250453	344.230	0.200	-0.760	0.220	344.400	-2.200	0.600																			1580021019.0	5.67	10.50
26/01/2020 06:43:40	26012020	260120	064340	344.140	12.710940	-57.250457	343.940	-0.220	-0.210	0.490	344.080	-1.600	0.800																			1580021020.0	4.75	8.80
26/01/2020 06:43:41	26012020	260120	064341	343.900	12.710960	-57.250462	343.740	-0.500	0.130	0.650	343.860	-1.200	1.000																			1580021021.0	4.46	8.26
26/01/2020 06:43:42	26012020	260120	064342	343.750	12.710983	-57.250468	343.600	-0.300	-0.060	0.650	343.730	-1.400	1.000																			1580021022.0	4.96	9.19
26/01/2020 06:43:43	26012020	260120	064343	343.670	12.711008	-57.250477	343.520	0.240	-0.560	0.510	343.660	-1.900	0.900																			1580021023.0	5.62	10.41
26/01/2020 06:43:44	26012020	260120	064344	343.590	12.711033	-57.250485	343.410	0.720	-0.830	0.450	343.560	-2.200	0.800																			1580021024.0	5.89	10.91
26/01/2020 06:43:45	26012020	260120	064345	343.420	12.711058	-57.250493	343.230	0.800	-0.570	0.570	343.380	-2.000	0.900																			1580021025.0	5.60	10.37
26/01/2020 06:43:46	26012020	260120	064346	343.190	12.711082	-57.250498	343.010	0.460	0.020	0.730	343.140	-1.400	1.100																			1580021026.0	5.13	9.50
26/01/2020 06:43:47	26012020	260120	064347	343.020	12.711103	-57.250505	342.870	-0.050	0.500	0.670	343.000	-0.900	1.100																			1580021027.0	4.90	9.07
26/01/2020 06:43:48	26012020	260120	064348	342.920	12.711125	-57.250513	342.770	-0.510	0.680	0.350	342.890	-0.700	0.800																			1580021028.0	5.05	9.35
26/01/2020 06:43:49	26012020	260120	064349	342.760	12.711148	-57.250525	342.610	-0.800	0.650	-0.050	342.730	-0.700	0.400																			1580021029.0	5.23	9.69
26/01/2020 06:43:50	26012020	260120	064350	342.640	12.711168	-57.250537	342.520	-0.820	0.440	-0.350	342.630	-0.900	0.100																			1580021030.0	5.20	9.63
26/01/2020 06:43:51	26012020	260120	064351	342.650	12.711192	-57.250547	342.560	-0.530	-0.050	-0.500	342.650	-1.400	-0.100																			1580021031.0	5.23	9.69
26/01/2020 06:43:52	26012020	260120	064352	342.740	12.711215	-57.250555	342.670	-0.050	-0.750	-0.450	342.760	-2.000	-0.100																			1580021032.0	5.48	10.15
26/01/2020 06:43:53	26012020	260120	064353	342.890	12.711242	-57.250562	342.830	0.460	-1.370	-0.330	342.920	-2.700	0.000																			1580021033.0	5.77	10.69
26/01/2020 06:43:54	26012020	260120	064354	343.060	12.711267	-57.250568	342.980	0.810	-1.490	-0.060	343.080	-2.900	0.300																			1580021034.0	5.82	10.78
26/01/2020 06:43:55	26012020	260120	064355	343.080	12.711292	-57.250573	342.950	0.820	-0.860	0.450	343.050	-2.300	0.800																			1580021035.0	5.47	10.13
26/01/2020 06:43:56	26012020	260120	064356	342.880	12.711315	-57.250578	342.750	0.480	0.190	1.010	342.830	-1.300	1.300																			1580021036.0	4.91	9.09
26/01/2020 06:43:57	26012020	260120	064357	342.670	12.711335	-57.250585	342.570	-0.020	0.990	1.200	342.650	-0.400	1.600																			1580021037.0	4.70	8.70
26/01/2020 06:43:58	26012020	260120	064358	342.610	12.711357	-57.250595	342.510	-0.410	1.160	0.890	342.610	-0.200	1.300																			1580021038.0	5.02	9.30
26/01/2020 06:43:59	26012020	260120	064359	342.620	12.711380	-57.250607	342.530	-0.520	0.760	0.450	342.620	-0.600	0.900																			1580021039.0	5.53	10.24
26/01/2020 06:44:00	26012020	260120	064400	342.700	12.711403	-57.250618	342.640	-0.380	0.070	0.060	342.730	-1.200	0.500	1014.10	25.70	25.70	20.00	20.10	0.00	71.00	70.00	430.00	25.50	80.00	6.80	93.00	7.00	15	3237.00	27.40	27.40	1580021040.0	5.77	10.69
26/01/2020 06:44:01	26012020	260120	064401	342.930	12.711428	-57.250630	342.900	-0.170	-0.610	-0.270	342.990	-1.900	0.100																			1580021041.0	5.78	10.70
26/01/2020 06:44:02	26012020	260120	064402	343.190	12.711453	-57.250638	343.140	-0.040	-0.950	-0.470	343.240	-2.300	-0.100																			1580021042.0	5.67	10.50
26/01/2020 06:44:03	26012020	260120	064403	343.370	12.711477	-57.250647	343.290	-0.060	-0.840	-0.560	343.390	-2.200	-0.200																			1580021043.0	5.35	9.91
26/01/2020 06:44:04	26012020	260120	064404	343.420	12.711498	-57.250657	343.320	-0.150	-0.480	-0.580	343.410	-1.900	-0.200																			1580021044.0	5.15	9.54
26/01/2020 06:44:05	26012020	260120	064405	343.350	12.711520	-57.250667	343.260	-0.170	-0.110	-0.540	343.340	-1.500	-0.200																			1580021045.0	5.17	9.57
26/01/2020 06:44:06	26012020	260120	064406	343.320	12.711542	-57.250678	343.250	0.010	0.130	-0.310	343.330	-1.300	0.000																			1580021046.0	5.30	9.82
26/01/2020 06:44:07	26012020	260120	064407	343.400	12.711567	-57.250687	343.370	0.300	0.220	0.110	343.430	-1.100	0.400																			1580021047.0	5.37	9.95
26/01/2020 06:44:08	26012020	260120	064408	343.660	12.711590	-57.250693	343.670	0.460	0.160	0.570	343.730	-1.200	0.900																			1580021048.0	5.44	10.07
26/01/2020 06:44:09	26012020	260120	064409	344.020	12.711615	-57.250698	344.030	0.400	-0.040	0.910	344.090	-1.400	1.300																			1580021049.0	5.50	10.19
26/01/2020 06:44:10	26012020	260120	064410	344.370	12.711642	-57.250703	344.350	0.200	-0.310	1.060	344.430	-1.600	1.400																			1580021050.0	5.59	10.35
26/01/2020 06:44:11	26012020	260120	064411	344.590	12.711667	-57.250710	344.520	0.010	-0.490	0.980	344.620	-1.800	1.400																			1580021051.0	5.64	10.45
26/01/2020 06:44:12	26012020	260120	064412	344.690	12.711690	-57.250722	344.570	-0.050	-0.510	0.600	344.700	-1.900	1.000																			1580021052.0	5.67	10.50
26/01/2020 06:44:13	26012020	260120	064413	344.700	12.711713	-57.250733	344.540	-0.020	-0.290	0.110	344.700	-1.700	0.500																			1580021053.0	5.69	10.54
26/01/2020 06:44:14	26012020	260120	064414	344.710	12.711737	-57.250747	344.580	-0.040	0.080	-0.360	344.730	-1.300	0.100																			1580021054.0	5.52	10.22
26/01/2020 06:44:15	26012020	260120	064415	344.870	12.711758	-57.250760	344.780	-0.190	0.400	-0.820	344.870	-1.000	-0.400																			1580021055.0	5.34	9.89
26/01/2020 06:44:16	26012020	260120	064416	345.250	12.711778	-57.250772	345.180	-0.400	0.480	-1.170	345.340	-0.900	-0.800																			1580021056.0	5.28	9.78
26/01/2020 06:44:17	26012020	260120	064417	345.740	12.711802	-57.250782	345.690	-0.530	0.320	-1.250	345.830	-1.000	-0.900																			1580021057.0	5.34	9.89
26/01/2020 06:44:18	26012020	260120	064418	346.180	12.711825	-57.250790	346.110	-0.490	-0.030	-1.070	346.250	-1.400	-0.700																			1580021058.0	5.42	10.04
26/01/2020 06:44:19	26012020	260120	064419	346.520	12.711850	-57.250797	346.450	-0.270	-0.490	-0.690	346.580	-1.800	-0.400																			1580021059.0	5.56	10.30
26/01/2020 06:44:20	26012020	260120	064420	346.820	12.711877	-57.250803	346.750	0.130	-0.910	-0.220	346.880	-2.200	0.100																			1580021060.0	5.70	10.56
26/01/2020 06:44:21	26012020	260120	064421	347.080	12.711903	-57.250810	346.990	0.590	-1.090	0.240	347.120	-2.500	0.600																			1580021061.0	5.80	10.74
26/01/2020 06:44:22	26012020	260120	064422	347.260	12.711928	-57.250817	347.170	0.890	-0.890	0.620	347.300	-2.300	1.000																			1580021062.0	5.71	10.57
26/01/2020 06:44:23	26012020	260120	064423	347.460	12.711953	-57.250823	347.370	0.860	-0.330	0.770	347.490	-1.800	1.100																			1580021063.0	5.47	10.13
26/01/2020 06:44:24	26012020	260120	064424	347.680	12.711977	-57.250830	347.600	0.510	0.390	0.680	347.730	-1.000	1.100																			1580021064.0	5.22	9.67
26/01/2020 06:44:25	26012020	260120	064425	347.960	12.711998	-57.250840	347.880	-0.040	0.950	0.330	348.030	-0.400	0.800																			1580021065.0	5.07	9.39
26/01/2020 06:44:26	26012020	260120	064426	348.320	12.712020	-57.250850	348.240	-0.560	1.030	-0.220	348.400	-0.300	0.200																			1580021066.0	5.22	9.67
26/01/2020 06:44:27	26012020	260120	064427	348.680	12.712043	-57.250860	348.580	-0.860	0.620	-0.820	348.680	-0.700	-0.400																			1580021067.0	5.57	10.32
26/01/2020 06:44:28	26012020	260120	064428	349.020	12.712068	-57.250872	348.890	-0.860	-0.110	-1.380	349.080	-1.400	-0.900																			1580021068.0	5.85	10.83
26/01/2020 06:44:29	26012020	260120	064429	349.320	12.712095	-57.250883	349.150	-0.540	-0.860	-1.730	349.320	-2.200	-1.300																			1580021069.0	6.04	11.19
26/01/2020 06:44:30	26012020	260120	064430	349.570	12.712120	-57.250893	349.380	-0.050	-1.250	-1.700	349.600	-2.600	-1.300																			1580021070.0	6.02	11.15
26/01/2020 06:44:31	26012020	260120	064431	349.700	12.712145	-57.250902	349.510	0.390	-1.060	-1.270	349.720	-2.500	-0.900																			1580021071.0	5.66	10.48
26/01/2020 06:44:32	26012020	260120	064432	349.800	12.712170	-57.250907	349.620	0.580	-0.500	-0.620	349.820	-1.900	-0.300																			1580021072.0	5.25	9.72
26/01/2020 06:44:33	26012020	260120	064433	349.940	12.712193	-57.250910	349.780	0.520	0.090	0.030	349.970	-1.300	0.300																			1580021073.0	5.11	9.46
26/01/2020 06:44:34	26012020	260120	064434	350.140	12.712217	-57.250913	350.020	0.270	0.490	0.500	350.200	-0.900	0.800																			1580021074.0	5.18	9.59
26/01/2020 06:44:35	26012020	260120	064435	350.430	12.712242	-57.250918	350.340	-0.050	0.610	0.690	350.500	-0.800	1.000																			1580021075.0	5.32	9.85
26/01/2020 06:44:36	26012020	260120	064436	350.830	12.712265	-57.250927	350.770	-0.260	0.440	0.590	350.930	-0.900	1.000																			1580021076.0	5.49	10.17
26/01/2020 06:44:37	26012020	260120	064437	351.300	12.712292	-57.250935	351.230	-0.250	-0.010	0.280	351.390	-1.300	0.700																			1580021077.0	5.72	10.59
26/01/2020 06:44:38	26012020	260120	064438	351.650	12.712317	-57.250943	351.530	-0.050	-0.500	0.050	351.690	-1.800	0.400																			1580021078.0	5.92	10.96
26/01/2020 06:44:39	26012020	260120	064439	351.770	12.712343	-57.250950	351.600	0.170	-0.710	0.020	351.770	-2.100	0.400																			1580021079.0	5.85	10.83
26/01/2020 06:44:40	26012020	260120	064440	351.730	12.712368	-57.250957	351.550	0.250	-0.620	0.030	351.720	-2.000	0.400																			1580021080.0	5.59	10.35
26/01/2020 06:44:41	26012020	260120	064441	351.750	12.712393	-57.250963	351.610	0.170	-0.370	-0.180	351.750	-1.800	0.200																			1580021081.0	5.42	10.04
26/01/2020 06:44:42	26012020	260120	064442	351.980	12.712417	-57.250972	351.860	0.020	-0.150	-0.730	352.040	-1.500	-0.300																			1580021082.0	5.50	10.19
26/01/2020 06:44:43	26012020	260120	064443	352.310	12.712442	-57.250983	352.180	-0.100	0.060	-1.310	352.370	-1.300	-0.900																			1580021083.0	5.71	10.57
26/01/2020 06:44:44	26012020	260120	064444	352.590	12.712465	-57.250993	352.440	-0.140	0.280	-1.500	352.640	-1.100	-1.100																			1580021084.0	5.65	10.46
26/01/2020 06:44:45	26012020	260120	064445	352.840	12.712490	-57.251002	352.700	-0.130	0.380	-1.270	352.890	-1.000	-0.900																			1580021085.0	5.44	10.07
26/01/2020 06:44:46	26012020	260120	064446	353.110	12.712515	-57.251005	352.980	-0.130	0.180	-0.860	353.170	-1.200	-0.500																			1580021086.0	5.46	10.11
26/01/2020 06:44:47	26012020	260120	064447	353.410	12.712542	-57.251008	353.290	-0.170	-0.230	-0.460	353.470	-1.600	-0.100																			1580021087.0	5.71	10.57
26/01/2020 06:44:48	26012020	260120	064448	353.620	12.712568	-57.251012	353.480	-0.200	-0.540	-0.040	353.650	-1.900	0.300																			1580021088.0	5.83	10.80
26/01/2020 06:44:49	26012020	260120	064449	353.700	12.712593	-57.251017	353.550	-0.130	-0.510	0.300	353.710	-1.900	0.600																			1580021089.0	5.65	10.46
26/01/2020 06:44:50	26012020	260120	064450	353.750	12.712618	-57.251023	353.620	0.120	-0.300	0.520	353.760	-1.700	0.900																			1580021090.0	5.42	10.04
26/01/2020 06:44:51	26012020	260120	064451	353.900	12.712643	-57.251028	353.810	0.470	-0.250	0.590	353.960	-1.600	1.000																			1580021091.0	5.45	10.09
26/01/2020 06:44:52	26012020	260120	064452	354.200	12.712668	-57.251033	354.110	0.680	-0.300	0.510	354.270	-1.700	0.900																			1580021092.0	5.72	10.59
26/01/2020 06:44:53	26012020	260120	064453	354.500	12.712695	-57.251038	354.390	0.500	-0.210	0.250	354.550	-1.600	0.700																			1580021093.0	5.77	10.69
26/01/2020 06:44:54	26012020	260120	064454	354.730	12.712720	-57.251045	354.590	0.010	0.090	-0.180	354.770	-1.300	0.200																			1580021094.0	5.54	10.26
26/01/2020 06:44:55	26012020	260120	064455	354.940	12.712743	-57.251053	354.790	-0.480	0.350	-0.710	354.980	-1.000	-0.300																			1580021095.0	5.37	9.95
26/01/2020 06:44:56	26012020	260120	064456	355.180	12.712768	-57.251062	355.020	-0.660	0.310	-1.220	355.230	-1.000	-0.800																			1580021096.0	5.52	10.22
26/01/2020 06:44:57	26012020	260120	064457	355.390	12.712793	-57.251072	355.210	-0.460	0.040	-1.550	355.430	-1.300	-1.100																			1580021097.0	5.82	10.78
26/01/2020 06:44:58	26012020	260120	064458	355.540	12.712820	-57.251078	355.330	-0.120	-0.250	-1.620	355.550	-1.600	-1.200																			1580021098.0	5.90	10.93
26/01/2020 06:44:59	26012020	260120	064459	355.630	12.712847	-57.251083	355.430	0.150	-0.460	-1.370	355.650	-1.800	-1.000																			1580021099.0	5.77	10.69
26/01/2020 06:45:00	26012020	260120	064500	355.790	12.712873	-57.251088	355.610	0.290	-0.600	-0.920	355.830	-2.000	-0.600	1014.10	25.60	25.70	19.90	19.90	0.00	70.00	70.00	430.00	25.50	81.00	6.10	96.00	6.30	15	3243.00	27.40	27.40	1580021100.0	5.69	10.54
26/01/2020 06:45:01	26012020	260120	064501	356.000	12.712898	-57.251090	355.830	0.310	-0.600	-0.360	356.050	-2.000	-0.000																			1580021101.0	5.71	10.57
26/01/2020 06:45:02	26012020	260120	064502	356.230	12.712925	-57.251093	356.080	0.240	-0.320	0.120	356.280	-1.700	0.400																			1580021102.0	5.58	10.33
26/01/2020 06:45:03	26012020	260120	064503	356.460	12.712950	-57.251095	356.320	0.100	0.130	0.500	356.510	-1.300	0.800																			1580021103.0	5.32	9.85
26/01/2020 06:45:04	26012020	260120	064504	356.690	12.712973	-57.251098	356.570	-0.040	0.430	0.660	356.740	-1.000	1.000																			1580021104.0	5.17	9.57
26/01/2020 06:45:05	26012020	260120	064505	356.980	12.712998	-57.251102	356.870	-0.080	0.240	0.500	357.040	-1.100	0.900																			1580021105.0	5.47	10.13
26/01/2020 06:45:06	26012020	260120	064506	357.310	12.713027	-57.251108	357.190	-0.000	-0.280	0.140	357.370	-1.600	0.500																			1580021106.0	6.02	11.15
26/01/2020 06:45:07	26012020	260120	064507	357.580	12.713055	-57.251115	357.460	0.070	-0.590	-0.210	357.620	-2.000	0.200																			1580021107.0	6.27	11.61
26/01/2020 06:45:08	26012020	260120	064508	357.740	12.713080	-57.251122	357.620	0.040	-0.320	-0.430	357.770	-1.700	-0.000																			1580021108.0	5.88	10.89
26/01/2020 06:45:09	26012020	260120	064509	357.870	12.713105	-57.251127	357.740	-0.090	0.240	-0.500	357.890	-1.200	-0.100																			1580021109.0	5.23	9.69
26/01/2020 06:45:10	26012020	260120	064510	357.950	12.713128	-57.251130	357.800	-0.250	0.530	-0.510	357.960	-0.900	-0.100																			1580021110.0	5.00	9.26
26/01/2020 06:45:11	26012020	260120	064511	358.010	12.713152	-57.251135	357.870	-0.330	0.250	-0.620	358.030	-1.100	-0.200																			1580021111.0	5.34	9.89
26/01/2020 06:45:12	26012020	260120	064512	358.170	12.713180	-57.251140	358.060	-0.240	-0.470	-0.900	358.230	-1.800	-0.500																			1580021112.0	5.94	11.00
26/01/2020 06:45:13	26012020	260120	064513	358.550	12.713208	-57.251147	358.480	0.010	-1.060	-1.280	358.650	-2.400	-0.900																			1580021113.0	6.33	11.72
26/01/2020 06:45:14	26012020	260120	064514	359.060	12.713237	-57.251153	358.990	0.260	-1.060	-1.540	359.160	-2.500	-1.200																			1580021114.0	6.19	11.46
26/01/2020 06:45:15	26012020	260120	064515	359.480	12.713262	-57.251158	359.400	0.350	-0.410	-1.320	359.540	-1.900	-1.000																			1580021115.0	5.59	10.35
26/01/2020 06:45:16	26012020	260120	064516	359.690	12.713285	-57.251160	359.600	0.270	0.430	-0.640	359.720	-1.000	-0.300																			1580021116.0	4.98	9.22
26/01/2020 06:45:17	26012020	260120	064517	359.790	12.713308	-57.251158	359.710	0.130	0.800	0.160	359.790	-0.600	0.500																			1580021117.0	4.96	9.19
26/01/2020 06:45:18	26012020	260120	064518	359.940	12.713333	-57.251157	359.870	0.050	0.400	0.700	359.970	-0.900	1.000																			1580021118.0	5.57	10.32
26/01/2020 06:45:19	26012020	260120	064519	0.070	12.713362	-57.251157	0.010	0.010	-0.260	0.940	0.090	-1.600	1.300																			1580021119.0	6.18	11.45
26/01/2020 06:45:20	26012020	260120	064520	0.230	12.713390	-57.251160	0.190	-0.070	-0.610	0.760	0.260	-2.000	1.200																			1580021120.0	6.17	11.43
26/01/2020 06:45:21	26012020	260120	064521	0.520	12.713417	-57.251165	0.510	-0.220	-0.520	0.220	0.590	-1.900	0.600																			1580021121.0	5.78	10.70
26/01/2020 06:45:22	26012020	260120	064522	0.910	12.713442	-57.251172	0.890	-0.340	-0.180	-0.400	0.980	-1.600	0.000																			1580021122.0	5.49	10.17
26/01/2020 06:45:23	26012020	260120	064523	1.220	12.713465	-57.251178	1.160	-0.350	0.170	-0.880	1.270	-1.200	-0.500																			1580021123.0	5.39	9.98
26/01/2020 06:45:24	26012020	260120	064524	1.400	12.713490	-57.251185	1.320	-0.210	0.290	-1.080	1.430	-1.100	-0.700																			1580021124.0	5.39	9.98
26/01/2020 06:45:25	26012020	260120	064525	1.490	12.713517	-57.251188	1.400	0.000	0.060	-1.070	1.510	-1.300	-0.700																			1580021125.0	5.58	10.33
26/01/2020 06:45:26	26012020	260120	064526	1.580	12.713543	-57.251190	1.500	0.200	-0.410	-1.020	1.610	-1.700	-0.700																			1580021126.0	5.87	10.87
26/01/2020 06:45:27	26012020	260120	064527	1.820	12.713572	-57.251192	1.770	0.320	-0.830	-1.060	1.820	-2.200	-0.700																			1580021127.0	6.07	11.24
26/01/2020 06:45:28	26012020	260120	064528	2.210	12.713598	-57.251195	2.180	0.360	-0.900	-1.110	2.300	-2.300	-0.800																			1580021128.0	6.04	11.19
26/01/2020 06:45:29	26012020	260120	064529	2.580	12.713625	-57.251198	2.530	0.290	-0.450	-0.920	2.580	-1.900	-0.600																			1580021129.0	5.72	10.59
26/01/2020 06:45:30	26012020	260120	064530	2.810	12.713650	-57.251200	2.740	0.090	0.320	-0.430	2.840	-1.100	-0.100																			1580021130.0	5.22	9.67
26/01/2020 06:45:31	26012020	260120	064531	2.980	12.713673	-57.251198	2.950	-0.160	0.830	0.130	2.980	-0.600	0.400																			1580021131.0	4.97	9.20
26/01/2020 06:45:32	26012020	260120	064532	3.270	12.713697	-57.251198	3.260	-0.330	0.720	0.560	3.330	-0.600	0.900																			1580021132.0	5.28	9.78
26/01/2020 06:45:33	26012020	260120	064533	3.640	12.713723	-57.251197	3.650	-0.360	0.170	0.750	3.720	-1.200	1.100																			1580021133.0	5.73	10.61
26/01/2020 06:45:34	26012020	260120	064534	4.120	12.713752	-57.251197	4.120	-0.240	-0.500	0.630	4.220	-1.800	1.000																			1580021134.0	5.97	11.06
26/01/2020 06:45:35	26012020	260120	064535	4.570	12.713780	-57.251198	4.540	-0.040	-0.870	0.420	4.640	-2.200	0.800																			1580021135.0	6.00	11.11
26/01/2020 06:45:36	26012020	260120	064536	4.830	12.713807	-57.251200	4.780	0.170	-0.770	0.340	4.870	-2.200	0.700																			1580021136.0	5.71	10.57
26/01/2020 06:45:37	26012020	260120	064537	5.060	12.713832	-57.251203	5.050	0.390	-0.540	0.210	5.130	-1.900	0.600																			1580021137.0	5.46	10.11
26/01/2020 06:45:38	26012020	260120	064538	5.510	12.713857	-57.251207	5.540	0.530	-0.390	-0.110	5.630	-1.800	0.300																			1580021138.0	5.61	10.39
26/01/2020 06:45:39	26012020	260120	064539	6.210	12.713883	-57.251212	6.280	0.440	-0.150	-0.580	6.380	-1.600	-0.200																			1580021139.0	5.78	10.70
26/01/2020 06:45:40	26012020	260120	064540	7.110	12.713908	-57.251215	7.180	0.040	0.350	-1.080	7.290	-1.100	-0.700																			1580021140.0	5.53	10.24
26/01/2020 06:45:41	26012020	260120	064541	8.010	12.713933	-57.251218	8.050	-0.490	0.860	-1.320	8.170	-0.500	-0.900																			1580021141.0	5.09	9.43
26/01/2020 06:45:42	26012020	260120	064542	8.770	12.713955	-57.251220	8.790	-0.820	0.890	-1.210	8.910	-0.500	-0.900																			1580021142.0	4.94	9.15
26/01/2020 06:45:43	26012020	260120	064543	9.450	12.713980	-57.251220	9.490	-0.750	0.210	-0.940	9.600	-1.100	-0.600																			1580021143.0	5.36	9.93
26/01/2020 06:45:44	26012020	260120	064544	10.180	12.714008	-57.251218	10.220	-0.300	-0.770	-0.630	10.320	-2.100	-0.300																			1580021144.0	5.93	10.98
26/01/2020 06:45:45	26012020	260120	064545	10.950	12.714037	-57.251217	11.010	0.250	-1.340	-0.260	11.100	-2.700	0.100																			1580021145.0	6.02	11.15
26/01/2020 06:45:46	26012020	260120	064546	11.790	12.714062	-57.251213	11.860	0.600	-1.140	0.130	11.970	-2.600	0.500																			1580021146.0	5.50	10.19
26/01/2020 06:45:47	26012020	260120	064547	12.670	12.714083	-57.251212	12.760	0.610	-0.420	0.380	12.850	-1.900	0.700																			1580021147.0	4.87	9.02
26/01/2020 06:45:48	26012020	260120	064548	13.560	12.714105	-57.251210	13.660	0.370	0.300	0.360	13.740	-1.100	0.700																			1580021148.0	4.62	8.56
26/01/2020 06:45:49	26012020	260120	064549	14.500	12.714128	-57.251212	14.610	0.100	0.620	0.070	14.710	-0.800	0.500																			1580021149.0	4.86	9.00
26/01/2020 06:45:50	26012020	260120	064550	15.510	12.714152	-57.251212	15.630	-0.060	0.470	-0.310	15.720	-0.900	0.100																			1580021150.0	5.28	9.78
26/01/2020 06:45:51	26012020	260120	064551	16.560	12.714178	-57.251212	16.660	-0.150	0.130	-0.730	16.770	-1.200	-0.300																			1580021151.0	5.52	10.22
26/01/2020 06:45:52	26012020	260120	064552	17.530	12.714203	-57.251210	17.620	-0.250	-0.130	-1.070	17.720	-1.500	-0.700																			1580021152.0	5.44	10.07
26/01/2020 06:45:53	26012020	260120	064553	18.420	12.714227	-57.251208	18.510	-0.340	-0.200	-1.250	18.590	-1.600	-0.900																			1580021153.0	5.15	9.54
26/01/2020 06:45:54	26012020	260120	064554	19.300	12.714250	-57.251208	19.400	-0.340	-0.190	-1.400	19.480	-1.600	-1.000																			1580021154.0	4.92	9.11
26/01/2020 06:45:55	26012020	260120	064555	20.200	12.714273	-57.251207	20.290	-0.210	-0.170	-1.460	20.380	-1.600	-1.100																			1580021155.0	4.91	9.09
26/01/2020 06:45:56	26012020	260120	064556	21.100	12.714297	-57.251205	21.190	-0.050	-0.200	-1.340	21.280	-1.600	-1.000																			1580021156.0	4.94	9.15
26/01/2020 06:45:57	26012020	260120	064557	22.060	12.714318	-57.251203	22.160	0.080	-0.280	-1.120	22.240	-1.700	-0.800																			1580021157.0	4.96	9.19
26/01/2020 06:45:58	26012020	260120	064558	23.120	12.714342	-57.251200	23.230	0.170	-0.370	-0.870	23.320	-1.700	-0.500																			1580021158.0	4.93	9.13
26/01/2020 06:45:59	26012020	260120	064559	24.270	12.714363	-57.251193	24.400	0.220	-0.370	-0.560	24.520	-1.800	-0.200																			1580021159.0	4.84	8.96
26/01/2020 06:46:00	26012020	260120	064600	25.480	12.714383	-57.251187	25.610	0.190	-0.210	-0.240	25.710	-1.600	0.100	1014.10	25.70	25.70	20.10	20.10	0.00	71.00	71.00	430.00	25.50	66.00	7.40	93.00	6.80	15	3208.00	27.40	27.40	1580021160.0	4.69	8.69
26/01/2020 06:46:01	26012020	260120	064601	26.580	12.714403	-57.251180	26.670	0.070	0.060	0.130	26.770	-1.300	0.400																			1580021161.0	4.48	8.30
26/01/2020 06:46:02	26012020	260120	064602	27.450	12.714422	-57.251172	27.520	-0.070	0.320	0.490	27.600	-1.100	0.800																			1580021162.0	4.33	8.02
26/01/2020 06:46:03	26012020	260120	064603	28.200	12.714442	-57.251165	28.270	-0.140	0.320	0.540	28.350	-1.000	0.900																			1580021163.0	4.34	8.04
26/01/2020 06:46:04	26012020	260120	064604	29.010	12.714463	-57.251160	29.100	-0.100	-0.010	0.160	29.190	-1.400	0.600																			1580021164.0	4.69	8.69
26/01/2020 06:46:05	26012020	260120	064605	29.920	12.714487	-57.251158	30.010	-0.000	-0.350	-0.540	30.110	-1.700	-0.100																			1580021165.0	5.10	9.45
26/01/2020 06:46:06	26012020	260120	064606	30.900	12.714510	-57.251157	31.010	0.070	-0.420	-1.360	31.110	-1.800	-0.900																			1580021166.0	5.16	9.56
26/01/2020 06:46:07	26012020	260120	064607	31.980	12.714533	-57.251155	32.090	0.100	-0.220	-1.940	31.980	-1.600	-1.500																			1580021167.0	4.86	9.00
26/01/2020 06:46:08	26012020	260120	064608	33.090	12.714553	-57.251153	33.220	0.060	0.010	-2.060	33.310	-1.400	-1.700																			1580021168.0	4.40	8.15
26/01/2020 06:46:09	26012020	260120	064609	34.180	12.714572	-57.251147	34.300	-0.080	0.100	-1.830	34.380	-1.300	-1.500																			1580021169.0	4.18	7.74
26/01/2020 06:46:10	26012020	260120	064610	35.170	12.714590	-57.251138	35.280	-0.230	0.060	-1.370	35.340	-1.300	-1.100																			1580021170.0	4.18	7.74
26/01/2020 06:46:11	26012020	260120	064611	36.020	12.714607	-57.251128	36.120	-0.300	-0.030	-0.730	36.180	-1.400	-0.400																			1580021171.0	4.17	7.72
26/01/2020 06:46:12	26012020	260120	064612	36.840	12.714623	-57.251118	36.970	-0.200	-0.190	-0.170	37.010	-1.600	0.100																			1580021172.0	4.14	7.67
26/01/2020 06:46:13	26012020	260120	064613	37.770	12.714640	-57.251108	37.930	0.020	-0.370	0.090	37.970	-1.700	0.400																			1580021173.0	4.21	7.80
26/01/2020 06:46:14	26012020	260120	064614	38.780	12.714658	-57.251100	38.930	0.260	-0.440	0.160	38.990	-1.800	0.500																			1580021174.0	4.29	7.95
26/01/2020 06:46:15	26012020	260120	064615	39.800	12.714677	-57.251093	39.950	0.400	-0.310	0.160	40.010	-1.700	0.500																			1580021175.0	4.25	7.87
26/01/2020 06:46:16	26012020	260120	064616	40.810	12.714693	-57.251087	40.960	0.390	-0.070	0.090	41.020	-1.500	0.400																			1580021176.0	4.08	7.56
26/01/2020 06:46:17	26012020	260120	064617	41.780	12.714712	-57.251078	41.890	0.220	0.130	-0.070	41.950	-1.300	0.300																			1580021177.0	3.97	7.35
26/01/2020 06:46:18	26012020	260120	064618	42.570	12.714728	-57.251072	42.650	-0.070	0.210	-0.250	42.720	-1.200	0.100																			1580021178.0	3.96	7.33
26/01/2020 06:46:19	26012020	260120	064619	43.310	12.714745	-57.251063	43.400	-0.360	0.180	-0.410	43.310	-1.200	-0.100																			1580021179.0	3.96	7.33
26/01/2020 06:46:20	26012020	260120	064620	44.180	12.714760	-57.251055	44.280	-0.480	0.080	-0.690	44.370	-1.300	-0.300																			1580021180.0	3.95	7.32
26/01/2020 06:46:21	26012020	260120	064621	45.180	12.714778	-57.251047	45.260	-0.380	-0.010	-1.120	45.180	-1.400	-0.700																			1580021181.0	4.01	7.43
26/01/2020 06:46:22	26012020	260120	064622	46.200	12.714795	-57.251040	46.250	-0.170	-0.060	-1.550	46.390	-1.400	-1.200																			1580021182.0	4.01	7.43
26/01/2020 06:46:23	26012020	260120	064623	47.190	12.714812	-57.251033	47.220	0.070	-0.200	-1.790	47.370	-1.600	-1.400																			1580021183.0	3.99	7.39
26/01/2020 06:46:24	26012020	260120	064624	48.130	12.714830	-57.251025	48.150	0.270	-0.400	-1.700	48.310	-1.800	-1.400																			1580021184.0	4.02	7.45
26/01/2020 06:46:25	26012020	260120	064625	49.000	12.714845	-57.251015	49.030	0.340	-0.470	-1.270	49.180	-1.900	-1.000																			1580021185.0	3.90	7.22
26/01/2020 06:46:26	26012020	260120	064626	49.850	12.714858	-57.251005	49.890	0.280	-0.330	-0.700	50.030	-1.700	-0.400																			1580021186.0	3.63	6.72
26/01/2020 06:46:27	26012020	260120	064627	50.720	12.714870	-57.250993	50.790	0.160	-0.150	-0.130	50.900	-1.600	0.100																			1580021187.0	3.44	6.37
26/01/2020 06:46:28	26012020	260120	064628	51.590	12.714880	-57.250982	51.640	0.030	-0.000	0.440	51.750	-1.400	0.700																			1580021188.0	3.44	6.37
26/01/2020 06:46:29	26012020	260120	064629	52.380	12.714892	-57.250970	52.450	-0.100	0.110	0.880	52.540	-1.300	1.200																			1580021189.0	3.43	6.35
26/01/2020 06:46:30	26012020	260120	064630	53.170	12.714903	-57.250958	53.250	-0.200	0.130	0.910	53.350	-1.300	1.300																			1580021190.0	3.45	6.39
26/01/2020 06:46:31	26012020	260120	064631	54.080	12.714917	-57.250948	54.180	-0.190	0.000	0.470	54.270	-1.400	0.900																			1580021191.0	3.65	6.76
26/01/2020 06:46:32	26012020	260120	064632	55.050	12.714932	-57.250938	55.140	-0.080	-0.130	-0.170	55.250	-1.500	0.200																			1580021192.0	3.88	7.19
26/01/2020 06:46:33	26012020	260120	064633	55.980	12.714948	-57.250930	56.060	0.040	-0.120	-0.740	56.160	-1.500	-0.400																			1580021193.0	3.84	7.11
26/01/2020 06:46:34	26012020	260120	064634	56.890	12.714963	-57.250922	56.940	0.070	0.040	-1.170	57.050	-1.400	-0.800																			1580021194.0	3.58	6.63
26/01/2020 06:46:35	26012020	260120	064635	57.730	12.714977	-57.250913	57.740	-0.020	0.220	-1.380	57.870	-1.200	-1.000																			1580021195.0	3.33	6.17
26/01/2020 06:46:36	26012020	260120	064636	58.450	12.714988	-57.250905	58.440	-0.130	0.210	-1.400	58.590	-1.200	-1.100																			1580021196.0	3.20	5.93
26/01/2020 06:46:37	26012020	260120	064637	59.150	12.715000	-57.250895	59.160	-0.090	-0.150	-1.340	59.300	-1.500	-1.000																			1580021197.0	3.37	6.24
26/01/2020 06:46:38	26012020	260120	064638	59.960	12.715013	-57.250883	60.000	0.130	-0.670	-1.250	60.130	-2.000	-0.900																			1580021198.0	3.72	6.89
26/01/2020 06:46:39	26012020	260120	064639	60.830	12.715025	-57.250872	60.870	0.320	-0.840	-0.930	61.000	-2.200	-0.600																			1580021199.0	3.73	6.91
26/01/2020 06:46:40	26012020	260120	064640	61.680	12.715035	-57.250858	61.770	0.280	-0.520	-0.390	61.860	-1.900	-0.100																			1580021200.0	3.26	6.04
26/01/2020 06:46:41	26012020	260120	064641	62.620	12.715042	-57.250848	62.750	0.030	-0.020	0.110	62.820	-1.400	0.400																			1580021201.0	2.82	5.22
26/01/2020 06:46:42	26012020	260120	064642	63.580	12.715048	-57.250837	63.700	-0.210	0.370	0.450	63.770	-1.000	0.700																			1580021202.0	2.72	5.04
26/01/2020 06:46:43	26012020	260120	064643	64.450	12.715057	-57.250825	64.550	-0.240	0.450	0.640	64.610	-0.900	0.900																			1580021203.0	2.88	5.33
26/01/2020 06:46:44	26012020	260120	064644	65.170	12.715065	-57.250813	65.240	-0.050	0.220	0.730	65.300	-1.100	1.000																			1580021204.0	3.17	5.87
26/01/2020 06:46:45	26012020	260120	064645	65.800	12.715075	-57.250800	65.850	0.160	-0.100	0.610	65.930	-1.500	0.900																			1580021205.0	3.40	6.30
26/01/2020 06:46:46	26012020	260120	064646	66.510	12.715087	-57.250790	66.560	0.220	-0.260	0.200	66.660	-1.600	0.600																			1580021206.0	3.46	6.41
26/01/2020 06:46:47	26012020	260120	064647	67.360	12.715098	-57.250780	67.420	0.140	-0.160	-0.350	67.530	-1.600	0.000																			1580021207.0	3.36	6.22
26/01/2020 06:46:48	26012020	260120	064648	68.260	12.715112	-57.250772	68.310	-0.020	0.030	-0.870	68.430	-1.400	-0.500																			1580021208.0	3.15	5.83
26/01/2020 06:46:49	26012020	260120	064649	69.200	12.715122	-57.250763	69.260	-0.140	0.020	-1.310	69.400	-1.400	-0.900																			1580021209.0	3.08	5.70
26/01/2020 06:46:50	26012020	260120	064650	70.130	12.715133	-57.250752	70.150	-0.200	-0.210	-1.470	70.300	-1.600	-1.100																			1580021210.0	3.17	5.87
26/01/2020 06:46:51	26012020	260120	064651	70.870	12.715140	-57.250740	70.840	-0.190	-0.400	-1.220	71.000	-1.800	-0.900																			1580021211.0	3.14	5.82
26/01/2020 06:46:52	26012020	260120	064652	71.480	12.715147	-57.250727	71.440	-0.150	-0.350	-0.660	71.600	-1.800	-0.400																			1580021212.0	2.95	5.46
26/01/2020 06:46:53	26012020	260120	064653	72.150	12.715152	-57.250715	72.150	-0.080	-0.120	-0.110	72.300	-1.500	0.200																			1580021213.0	2.69	4.98
26/01/2020 06:46:54	26012020	260120	064654	72.920	12.715155	-57.250703	72.950	0.030	0.060	0.260	73.090	-1.300	0.600																			1580021214.0	2.56	4.74
26/01/2020 06:46:55	26012020	260120	064655	73.780	12.715162	-57.250692	73.830	0.200	0.000	0.370	73.970	-1.400	0.700																			1580021215.0	2.77	5.13
26/01/2020 06:46:56	26012020	260120	064656	74.710	12.715170	-57.250680	74.760	0.330	-0.200	0.240	74.890	-1.600	0.600																			1580021216.0	3.08	5.70
26/01/2020 06:46:57	26012020	260120	064657	75.560	12.715178	-57.250667	75.620	0.350	-0.330	0.120	75.560	-1.700	0.400																			1580021217.0	3.21	5.94
26/01/2020 06:46:58	26012020	260120	064658	76.320	12.715185	-57.250655	76.390	0.220	-0.220	0.060	76.470	-1.600	0.400																			1580021218.0	3.03	5.61
26/01/2020 06:46:59	26012020	260120	064659	77.060	12.715192	-57.250645	77.140	0.010	0.140	0.070	77.200	-1.300	0.400																			1580021219.0	2.69	4.98
26/01/2020 06:47:00	26012020	260120	064700	77.820	12.715198	-57.250635	77.930	-0.200	0.490	0.040	77.960	-0.900	0.400	1014.00	25.60	25.70	20.00	20.00	-1.00	71.00	70.00	430.00	25.50	29.00	7.90	90.00	6.60	15	3257.00	27.40	27.40	1580021220.0	2.37	4.39
26/01/2020 06:47:01	26012020	260120	064701	78.670	12.715205	-57.250625	78.810	-0.310	0.500	-0.210	78.840	-0.900	0.100																			1580021221.0	2.40	4.44
26/01/2020 06:47:02	26012020	260120	064702	79.530	12.715212	-57.250615	79.660	-0.240	0.050	-0.520	79.700	-1.300	-0.200																			1580021222.0	2.76	5.11
26/01/2020 06:47:03	26012020	260120	064703	80.320	12.715218	-57.250602	80.420	-0.040	-0.640	-0.660	80.460	-2.000	-0.300																			1580021223.0	3.21	5.94
26/01/2020 06:47:04	26012020	260120	064704	81.050	12.715225	-57.250587	81.150	0.130	-0.930	-0.610	81.200	-2.300	-0.300																			1580021224.0	3.30	6.11
26/01/2020 06:47:05	26012020	260120	064705	81.780	12.715230	-57.250575	81.880	0.110	-0.490	-0.410	81.930	-1.900	-0.100																			1580021225.0	2.72	5.04
26/01/2020 06:47:06	26012020	260120	064706	82.490	12.715233	-57.250567	82.610	-0.080	0.250	-0.090	82.640	-1.200	0.200																			1580021226.0	1.95	3.61
26/01/2020 06:47:07	26012020	260120	064707	83.250	12.715237	-57.250558	83.390	-0.220	0.490	0.180	83.430	-0.900	0.500																			1580021227.0	1.88	3.48
26/01/2020 06:47:08	26012020	260120	064708	84.120	12.715240	-57.250547	84.270	-0.170	0.060	0.250	84.300	-1.300	0.600																			1580021228.0	2.56	4.74
26/01/2020 06:47:09	26012020	260120	064709	84.990	12.715243	-57.250532	85.110	0.010	-0.490	0.210	84.990	-1.800	0.500																			1580021229.0	3.16	5.85
26/01/2020 06:47:10	26012020	260120	064710	85.770	12.715248	-57.250518	85.840	0.130	-0.530	0.180	85.920	-1.900	0.500																			1580021230.0	3.03	5.61
26/01/2020 06:47:11	26012020	260120	064711	86.520	12.715252	-57.250508	86.580	0.110	-0.040	0.150	86.520	-1.500	0.500																			1580021231.0	2.40	4.44
26/01/2020 06:47:12	26012020	260120	064712	87.280	12.715255	-57.250500	87.340	0.080	0.400	0.090	87.420	-1.000	0.400																			1580021232.0	1.98	3.67
26/01/2020 06:47:13	26012020	260120	064713	88.060	12.715260	-57.250490	88.150	0.170	0.260	-0.060	88.220	-1.100	0.300																			1580021233.0	2.24	4.15
26/01/2020 06:47:14	26012020	260120	064714	88.900	12.715265	-57.250477	88.990	0.330	-0.280	-0.270	89.060	-1.600	0.100																			1580021234.0	2.90	5.37
26/01/2020 06:47:15	26012020	260120	064715	89.650	12.715270	-57.250463	89.740	0.350	-0.520	-0.390	89.800	-1.900	-0.100																			1580021235.0	3.12	5.78
26/01/2020 06:47:16	26012020	260120	064716	90.410	12.715275	-57.250452	90.500	0.130	-0.160	-0.490	90.570	-1.600	-0.200																			1580021236.0	2.64	4.89
26/01/2020 06:47:17	26012020	260120	064717	91.260	12.715280	-57.250443	91.370	-0.210	0.350	-0.420	91.440	-1.100	-0.100																			1580021237.0	1.98	3.67
26/01/2020 06:47:18	26012020	260120	064718	92.140	12.715282	-57.250435	92.230	-0.440	0.420	-0.100	92.300	-0.900	0.200																			1580021238.0	1.81	3.35
26/01/2020 06:47:19	26012020	260120	064719	92.870	12.715280	-57.250425	92.940	-0.440	-0.020	0.420	93.000	-1.300	0.700																			1580021239.0	2.29	4.24
26/01/2020 06:47:20	26012020	260120	064720	93.460	12.715278	-57.250412	93.520	-0.280	-0.520	0.830	93.570	-1.900	1.100																			1580021240.0	2.74	5.07
26/01/2020 06:47:21	26012020	260120	064721	94.100	12.715278	-57.250398	94.210	-0.100	-0.650	0.910	94.250	-2.000	1.200																			1580021241.0	2.64	4.89
26/01/2020 06:47:22	26012020	260120	064722	94.900	12.715278	-57.250388	95.020	0.020	-0.420	0.770	95.070	-1.800	1.100																			1580021242.0	2.27	4.20
26/01/2020 06:47:23	26012020	260120	064723	95.770	12.715282	-57.250378	95.920	0.160	-0.090	0.460	95.770	-1.500	0.800																			1580021243.0	2.07	3.83
26/01/2020 06:47:24	26012020	260120	064724	96.690	12.715285	-57.250368	96.820	0.310	0.060	-0.080	96.850	-1.300	0.300																			1580021244.0	2.28	4.22
26/01/2020 06:47:25	26012020	260120	064725	97.490	12.715290	-57.250357	97.580	0.430	-0.030	-0.600	97.610	-1.400	-0.200																			1580021245.0	2.67	4.94
26/01/2020 06:47:26	26012020	260120	064726	98.060	12.715295	-57.250345	98.090	0.410	-0.200	-0.880	98.150	-1.600	-0.500																			1580021246.0	2.87	5.32
26/01/2020 06:47:27	26012020	260120	064727	98.520	12.715298	-57.250332	98.550	0.240	-0.150	-0.910	98.610	-1.500	-0.600																			1580021247.0	2.75	5.09
26/01/2020 06:47:28	26012020	260120	064728	99.090	12.715300	-57.250322	99.150	-0.040	0.150	-0.790	99.230	-1.300	-0.500																			1580021248.0	2.37	4.39
26/01/2020 06:47:29	26012020	260120	064729	99.840	12.715300	-57.250312	99.930	-0.350	0.500	-0.650	100.000	-0.900	-0.300																			1580021249.0	2.01	3.72
26/01/2020 06:47:30	26012020	260120	064730	100.630	12.715300	-57.250302	100.720	-0.540	0.540	-0.500	100.780	-0.800	-0.200																			1580021250.0	1.93	3.57
26/01/2020 06:47:31	26012020	260120	064731	101.340	12.715297	-57.250292	101.430	-0.480	0.130	-0.330	101.480	-1.200	-0.000																			1580021251.0	2.25	4.17
26/01/2020 06:47:32	26012020	260120	064732	101.960	12.715293	-57.250280	102.020	-0.180	-0.400	-0.090	102.070	-1.700	0.200																			1580021252.0	2.63	4.87
26/01/2020 06:47:33	26012020	260120	064733	102.440	12.715292	-57.250268	102.460	0.140	-0.610	0.230	102.510	-2.000	0.500																			1580021253.0	2.61	4.83
26/01/2020 06:47:34	26012020	260120	064734	102.800	12.715290	-57.250258	102.800	0.190	-0.430	0.490	102.870	-1.800	0.800																			1580021254.0	2.17	4.02
26/01/2020 06:47:35	26012020	260120	064735	103.100	12.715288	-57.250248	103.090	0.070	-0.310	0.580	103.100	-1.700	0.900																			1580021255.0	1.91	3.54
26/01/2020 06:47:36	26012020	260120	064736	103.320	12.715288	-57.250238	103.280	0.070	-0.560	0.520	103.360	-1.900	0.800																			1580021256.0	2.33	4.32
26/01/2020 06:47:37	26012020	260120	064737	103.510	12.715288	-57.250223	103.480	0.260	-0.830	0.430	103.560	-2.200	0.800																			1580021257.0	2.95	5.46
26/01/2020 06:47:38	26012020	260120	064738	103.810	12.715287	-57.250210	103.790	0.350	-0.560	0.260	103.880	-2.000	0.600																			1580021258.0	2.97	5.50
26/01/2020 06:47:39	26012020	260120	064739	104.260	12.715287	-57.250198	104.270	0.130	0.290	-0.020	104.370	-1.200	0.300																			1580021259.0	2.37	4.39
26/01/2020 06:47:40	26012020	260120	064740	104.820	12.715288	-57.250190	104.850	-0.240	1.110	-0.430	104.940	-0.300	-0.100																			1580021260.0	1.86	3.44
26/01/2020 06:47:41	26012020	260120	064741	105.410	12.715290	-57.250180	105.410	-0.410	1.230	-0.830	105.520	-0.100	-0.500																			1580021261.0	1.98	3.67
26/01/2020 06:47:42	26012020	260120	064742	105.950	12.715290	-57.250168	105.940	-0.230	0.600	-1.060	106.050	-0.700	-0.700																			1580021262.0	2.58	4.78
26/01/2020 06:47:43	26012020	260120	064743	106.410	12.715288	-57.250153	106.400	0.100	-0.250	-1.060	106.500	-1.500	-0.800																			1580021263.0	3.02	5.59
26/01/2020 06:47:44	26012020	260120	064744	106.760	12.715285	-57.250140	106.730	0.270	-0.830	-0.790	106.820	-2.200	-0.500																			1580021264.0	2.92	5.41
26/01/2020 06:47:45	26012020	260120	064745	106.970	12.715282	-57.250128	106.920	0.170	-0.940	-0.220	106.970	-2.300	0.000																			1580021265.0	2.53	4.69
26/01/2020 06:47:46	26012020	260120	064746	107.070	12.715277	-57.250120	107.020	-0.060	-0.690	0.480	107.080	-2.100	0.700																			1580021266.0	2.19	4.06
26/01/2020 06:47:47	26012020	260120	064747	107.150	12.715272	-57.250112	107.130	-0.250	-0.350	1.070	107.150	-1.700	1.300																			1580021267.0	2.11	3.91
26/01/2020 06:47:48	26012020	260120	064748	107.370	12.715267	-57.250102	107.400	-0.340	-0.130	1.370	107.430	-1.500	1.700																			1580021268.0	2.28	4.22
26/01/2020 06:47:49	26012020	260120	064749	107.680	12.715262	-57.250090	107.700	-0.290	-0.080	1.430	107.740	-1.400	1.700																			1580021269.0	2.55	4.72
26/01/2020 06:47:50	26012020	260120	064750	107.970	12.715257	-57.250078	107.970	-0.100	-0.100	1.220	108.020	-1.500	1.600																			1580021270.0	2.80	5.19
26/01/2020 06:47:51	26012020	260120	064751	108.240	12.715253	-57.250065	108.220	0.170	0.000	0.690	108.300	-1.400	1.100																			1580021271.0	2.85	5.28
26/01/2020 06:47:52	26012020	260120	064752	108.530	12.715253	-57.250052	108.480	0.410	0.230	-0.080	108.600	-1.200	0.300																			1580021272.0	2.80	5.19
26/01/2020 06:47:53	26012020	260120	064753	108.870	12.715257	-57.250038	108.830	0.560	0.420	-0.960	108.950	-0.900	-0.600																			1580021273.0	2.85	5.28
26/01/2020 06:47:54	26012020	260120	064754	109.300	12.715260	-57.250025	109.280	0.550	0.450	-1.760	109.410	-0.900	-1.400																			1580021274.0	2.96	5.48
26/01/2020 06:47:55	26012020	260120	064755	109.830	12.715263	-57.250012	109.800	0.310	0.200	-2.230	109.920	-1.100	-1.900																			1580021275.0	2.96	5.48
26/01/2020 06:47:56	26012020	260120	064756	110.210	12.715262	-57.249997	110.150	-0.050	-0.340	-1.970	110.250	-1.600	-1.700																			1580021276.0	2.85	5.28
26/01/2020 06:47:57	26012020	260120	064757	110.280	12.715255	-57.249985	110.200	-0.320	-0.860	-1.020	110.270	-2.200	-0.800																			1580021277.0	3.05	5.65
26/01/2020 06:47:58	26012020	260120	064758	110.190	12.715245	-57.249973	110.140	-0.400	-0.940	0.220	110.170	-2.300	0.400																			1580021278.0	3.21	5.94
26/01/2020 06:47:59	26012020	260120	064759	110.130	12.715233	-57.249965	110.130	-0.400	-0.520	1.350	110.130	-1.900	1.600																			1580021279.0	3.01	5.57
26/01/2020 06:48:00	26012020	260120	064800	110.220	12.715225	-57.249957	110.250	-0.440	0.050	2.080	110.250	-1.300	2.300	1013.90	25.60	25.70	19.90	20.00	-1.00	70.00	70.00	430.00	25.50	351.00	7.70	87.00	6.50	15	3281.00	27.40	27.40	1580021280.0	2.70	5.00
26/01/2020 06:48:01	26012020	260120	064801	110.410	12.715217	-57.249947	110.460	-0.510	0.350	2.310	110.410	-1.000	2.600																			1580021281.0	2.57	4.76
26/01/2020 06:48:02	26012020	260120	064802	110.620	12.715210	-57.249935	110.650	-0.440	0.220	1.960	110.650	-1.100	2.300																			1580021282.0	2.82	5.22
26/01/2020 06:48:03	26012020	260120	064803	110.760	12.715207	-57.249920	110.750	-0.080	-0.100	1.160	110.780	-1.400	1.600																			1580021283.0	3.21	5.94
26/01/2020 06:48:04	26012020	260120	064804	110.890	12.715205	-57.249905	110.880	0.460	-0.250	0.030	110.940	-1.600	0.500																			1580021284.0	3.45	6.39
26/01/2020 06:48:05	26012020	260120	064805	111.240	12.715207	-57.249888	111.240	0.760	0.040	-1.280	111.330	-1.400	-0.800																			1580021285.0	3.39	6.28
26/01/2020 06:48:06	26012020	260120	064806	111.690	12.715212	-57.249875	111.650	0.620	0.420	-2.340	111.760	-1.000	-1.900																			1580021286.0	3.03	5.61
26/01/2020 06:48:07	26012020	260120	064807	111.910	12.715213	-57.249862	111.800	0.280	0.350	-2.760	111.920	-1.000	-2.400																			1580021287.0	2.78	5.15
26/01/2020 06:48:08	26012020	260120	064808	111.890	12.715210	-57.249848	111.760	0.080	-0.210	-2.450	111.860	-1.500	-2.200																			1580021288.0	2.96	5.48
26/01/2020 06:48:09	26012020	260120	064809	111.750	12.715203	-57.249833	111.660	0.130	-0.880	-1.510	111.730	-2.200	-1.300																			1580021289.0	3.44	6.37
26/01/2020 06:48:10	26012020	260120	064810	111.660	12.715192	-57.249820	111.610	0.200	-1.080	-0.270	111.650	-2.400	-0.100																			1580021290.0	3.63	6.72
26/01/2020 06:48:11	26012020	260120	064811	111.620	12.715182	-57.249810	111.600	0.000	-0.630	1.060	111.610	-2.000	1.300																			1580021291.0	3.32	6.15
26/01/2020 06:48:12	26012020	260120	064812	111.610	12.715170	-57.249800	111.630	-0.440	0.080	2.180	111.620	-1.300	2.400																			1580021292.0	2.99	5.54
26/01/2020 06:48:13	26012020	260120	064813	111.670	12.715158	-57.249792	111.690	-0.790	0.500	2.790	111.670	-0.900	3.100																			1580021293.0	2.97	5.50
26/01/2020 06:48:14	26012020	260120	064814	111.710	12.715148	-57.249782	111.750	-0.790	0.510	2.830	111.730	-0.800	3.100																			1580021294.0	3.16	5.85
26/01/2020 06:48:15	26012020	260120	064815	111.900	12.715142	-57.249768	111.970	-0.460	0.330	2.200	111.960	-1.000	2.600																			1580021295.0	3.27	6.06
26/01/2020 06:48:16	26012020	260120	064816	112.210	12.715138	-57.249752	112.220	0.010	0.030	1.020	112.270	-1.300	1.400																			1580021296.0	3.34	6.19
26/01/2020 06:48:17	26012020	260120	064817	112.440	12.715138	-57.249735	112.390	0.400	-0.290	-0.410	112.480	-1.600	0.000																			1580021297.0	3.61	6.69
26/01/2020 06:48:18	26012020	260120	064818	112.580	12.715140	-57.249718	112.490	0.540	-0.330	-1.680	112.610	-1.700	-1.300																			1580021298.0	3.65	6.76
26/01/2020 06:48:19	26012020	260120	064819	112.640	12.715140	-57.249703	112.510	0.440	-0.150	-2.410	112.630	-1.500	-2.000																			1580021299.0	3.17	5.87
26/01/2020 06:48:20	26012020	260120	064820	112.560	12.715138	-57.249690	112.420	0.350	-0.130	-2.510	112.530	-1.500	-2.200																			1580021300.0	2.87	5.32
26/01/2020 06:48:21	26012020	260120	064821	112.430	12.715133	-57.249675	112.310	0.380	-0.340	-2.180	112.420	-1.700	-1.900																			1580021301.0	3.14	5.82
26/01/2020 06:48:22	26012020	260120	064822	112.360	12.715127	-57.249660	112.270	0.380	-0.520	-1.450	112.350	-1.900	-1.200																			1580021302.0	3.43	6.35
26/01/2020 06:48:23	26012020	260120	064823	112.320	12.715118	-57.249647	112.260	0.190	-0.440	-0.360	112.310	-1.800	-0.200																			1580021303.0	3.48	6.44
26/01/2020 06:48:24	26012020	260120	064824	112.280	12.715107	-57.249637	112.240	-0.180	-0.190	0.890	112.260	-1.600	1.100																			1580021304.0	3.50	6.48
26/01/2020 06:48:25	26012020	260120	064825	112.230	12.715093	-57.249625	112.220	-0.520	0.070	2.050	112.220	-1.300	2.300																			1580021305.0	3.62	6.70
26/01/2020 06:48:26	26012020	260120	064826	112.190	12.715080	-57.249615	112.220	-0.640	0.300	2.820	112.190	-1.100	3.100																			1580021306.0	3.63	6.72
26/01/2020 06:48:27	26012020	260120	064827	112.230	12.715068	-57.249603	112.250	-0.560	0.450	2.930	112.240	-0.900	3.200																			1580021307.0	3.36	6.22
26/01/2020 06:48:28	26012020	260120	064828	112.360	12.715062	-57.249590	112.370	-0.380	0.340	2.360	112.390	-1.000	2.700																			1580021308.0	3.20	5.93
26/01/2020 06:48:29	26012020	260120	064829	112.510	12.715057	-57.249573	112.490	-0.130	-0.130	1.350	112.530	-1.400	1.800																			1580021309.0	3.45	6.39
26/01/2020 06:48:30	26012020	260120	064830	112.510	12.715053	-57.249557	112.430	0.170	-0.640	0.220	112.490	-2.000	0.600																			1580021310.0	3.87	7.17
26/01/2020 06:48:31	26012020	260120	064831	112.370	12.715052	-57.249538	112.250	0.410	-0.730	-0.810	112.340	-2.100	-0.400																			1580021311.0	3.86	7.15
26/01/2020 06:48:32	26012020	260120	064832	112.210	12.715050	-57.249522	112.090	0.470	-0.320	-1.600	112.180	-1.700	-1.200																			1580021312.0	3.39	6.28
26/01/2020 06:48:33	26012020	260120	064833	112.120	12.715048	-57.249508	112.010	0.340	0.170	-2.140	112.120	-1.200	-1.800																			1580021313.0	2.95	5.46
26/01/2020 06:48:34	26012020	260120	064834	112.150	12.715047	-57.249495	112.050	0.210	0.330	-2.370	112.170	-1.000	-2.000																			1580021314.0	2.96	5.48
26/01/2020 06:48:35	26012020	260120	064835	112.180	12.715040	-57.249478	112.050	0.220	0.010	-2.100	112.170	-1.300	-1.800																			1580021315.0	3.40	6.30
26/01/2020 06:48:36	26012020	260120	064836	112.100	12.715032	-57.249463	112.000	0.240	-0.410	-1.280	112.070	-1.700	-1.100																			1580021316.0	3.87	7.17
26/01/2020 06:48:37	26012020	260120	064837	111.980	12.715022	-57.249448	111.920	0.050	-0.450	-0.020	111.980	-1.800	0.200																			1580021317.0	3.92	7.26
26/01/2020 06:48:38	26012020	260120	064838	111.870	12.715008	-57.249437	111.840	-0.280	-0.210	1.330	111.850	-1.600	1.500																			1580021318.0	3.76	6.96
26/01/2020 06:48:39	26012020	260120	064839	111.710	12.714993	-57.249427	111.700	-0.480	-0.120	2.550	111.670	-1.500	2.700																			1580021319.0	3.79	7.02
26/01/2020 06:48:40	26012020	260120	064840	111.530	12.714980	-57.249413	111.550	-0.450	-0.210	3.260	111.510	-1.600	3.500																			1580021320.0	4.03	7.46
26/01/2020 06:48:41	26012020	260120	064841	111.500	12.714967	-57.249400	111.530	-0.300	-0.100	3.310	111.510	-1.500	3.600																			1580021321.0	3.94	7.30
26/01/2020 06:48:42	26012020	260120	064842	111.570	12.714960	-57.249385	111.600	-0.200	0.240	2.670	111.590	-1.100	3.100																			1580021322.0	3.41	6.32
26/01/2020 06:48:43	26012020	260120	064843	111.720	12.714957	-57.249372	111.730	-0.150	0.440	1.350	111.760	-0.900	1.800																			1580021323.0	3.14	5.82
26/01/2020 06:48:44	26012020	260120	064844	111.870	12.714955	-57.249355	111.820	-0.010	0.220	-0.280	111.890	-1.100	0.200																			1580021324.0	3.49	6.46
26/01/2020 06:48:45	26012020	260120	064845	111.870	12.714955	-57.249337	111.770	0.290	-0.210	-1.670	111.850	-1.500	-1.200																			1580021325.0	3.95	7.32
26/01/2020 06:48:46	26012020	260120	064846	111.700	12.714955	-57.249317	111.560	0.570	-0.550	-2.540	111.650	-1.900	-2.200																			1580021326.0	4.06	7.52
26/01/2020 06:48:47	26012020	260120	064847	111.470	12.714953	-57.249298	111.320	0.590	-0.660	-2.850	111.420	-2.000	-2.500																			1580021327.0	3.80	7.04
26/01/2020 06:48:48	26012020	260120	064848	111.290	12.714948	-57.249283	111.180	0.330	-0.620	-2.560	111.270	-2.000	-2.300																			1580021328.0	3.58	6.63
26/01/2020 06:48:49	26012020	260120	064849	111.220	12.714938	-57.249268	111.130	0.010	-0.370	-1.630	111.220	-1.800	-1.400																			1580021329.0	3.59	6.65
26/01/2020 06:48:50	26012020	260120	064850	111.160	12.714927	-57.249257	111.110	-0.240	0.120	-0.290	111.150	-1.300	-0.100																			1580021330.0	3.72	6.89
26/01/2020 06:48:51	26012020	260120	064851	111.140	12.714912	-57.249247	111.120	-0.400	0.530	1.060	111.140	-0.800	1.200																			1580021331.0	3.76	6.96
26/01/2020 06:48:52	26012020	260120	064852	111.120	12.714898	-57.249235	111.100	-0.440	0.430	2.250	111.100	-0.900	2.400																			1580021332.0	3.94	7.30
26/01/2020 06:48:53	26012020	260120	064853	110.980	12.714883	-57.249220	110.980	-0.300	-0.110	3.130	110.950	-1.400	3.400																			1580021333.0	4.34	8.04
26/01/2020 06:48:54	26012020	260120	064854	110.780	12.714870	-57.249205	110.770	-0.040	-0.540	3.490	110.740	-1.900	3.800																			1580021334.0	4.46	8.26
26/01/2020 06:48:55	26012020	260120	064855	110.630	12.714860	-57.249188	110.640	0.200	-0.500	3.110	110.620	-1.900	3.500																			1580021335.0	4.01	7.43
26/01/2020 06:48:56	26012020	260120	064856	110.630	12.714855	-57.249173	110.620	0.250	-0.090	2.030	110.640	-1.500	2.500																			1580021336.0	3.43	6.35
26/01/2020 06:48:57	26012020	260120	064857	110.750	12.714855	-57.249157	110.730	0.130	0.280	0.470	110.790	-1.100	0.900																			1580021337.0	3.32	6.15
26/01/2020 06:48:58	26012020	260120	064858	110.920	12.714857	-57.249140	110.830	-0.030	0.280	-1.040	110.940	-1.000	-0.600																			1580021338.0	3.58	6.63
26/01/2020 06:48:59	26012020	260120	064859	110.920	12.714855	-57.249122	110.750	-0.100	-0.050	-2.050	110.890	-1.400	-1.700																			1580021339.0	3.85	7.13
26/01/2020 06:49:00	26012020	260120	064900	110.670	12.714852	-57.249103	110.460	-0.090	-0.390	-2.390	110.600	-1.700	-2.100	1013.90	25.70	25.70	20.10	20.10	-1.00	71.00	71.00	430.00	25.50	341.00	8.20	88.00	6.50	15	3208.00	27.40	27.40	1580021340.0	3.95	7.32
26/01/2020 06:49:01	26012020	260120	064901	110.300	12.714845	-57.249087	110.100	-0.020	-0.550	-2.130	110.220	-1.900	-1.900																			1580021341.0	3.81	7.06
26/01/2020 06:49:02	26012020	260120	064902	109.960	12.714835	-57.249072	109.800	0.090	-0.610	-1.440	109.900	-2.000	-1.200																			1580021342.0	3.81	7.06
26/01/2020 06:49:03	26012020	260120	064903	109.740	12.714825	-57.249057	109.620	0.190	-0.590	-0.550	109.710	-2.000	-0.300																			1580021343.0	4.03	7.46
26/01/2020 06:49:04	26012020	260120	064904	109.630	12.714812	-57.249042	109.560	0.150	-0.290	0.460	109.620	-1.700	0.700																			1580021344.0	4.16	7.70
26/01/2020 06:49:05	26012020	260120	064905	109.610	12.714798	-57.249028	109.560	-0.040	0.320	1.420	109.610	-1.100	1.600																			1580021345.0	3.97	7.35
26/01/2020 06:49:06	26012020	260120	064906	109.610	12.714787	-57.249017	109.570	-0.200	0.800	2.110	109.610	-0.600	2.400																			1580021346.0	3.60	6.67
26/01/2020 06:49:07	26012020	260120	064907	109.620	12.714775	-57.249003	109.580	-0.200	0.670	2.360	109.620	-0.600	2.600																			1580021347.0	3.58	6.63
26/01/2020 06:49:08	26012020	260120	064908	109.640	12.714767	-57.248987	109.590	-0.050	0.020	2.140	109.650	-1.300	2.500																			1580021348.0	4.02	7.45
26/01/2020 06:49:09	26012020	260120	064909	109.630	12.714760	-57.248967	109.550	0.080	-0.560	1.650	109.610	-1.900	2.000																			1580021349.0	4.29	7.95
26/01/2020 06:49:10	26012020	260120	064910	109.510	12.714755	-57.248950	109.400	0.060	-0.630	1.170	109.470	-2.000	1.500																			1580021350.0	3.97	7.35
26/01/2020 06:49:11	26012020	260120	064911	109.290	12.714750	-57.248933	109.160	-0.040	-0.360	0.760	109.240	-1.700	1.100																			1580021351.0	3.47	6.43
26/01/2020 06:49:12	26012020	260120	064912	109.060	12.714743	-57.248918	108.920	-0.090	-0.140	0.240	109.020	-1.500	0.600																			1580021352.0	3.33	6.17
26/01/2020 06:49:13	26012020	260120	064913	108.890	12.714738	-57.248903	108.750	-0.010	-0.180	-0.380	108.890	-1.500	0.000																			1580021353.0	3.61	6.69
26/01/2020 06:49:14	26012020	260120	064914	108.710	12.714733	-57.248885	108.550	0.160	-0.350	-0.820	108.670	-1.700	-0.500																			1580021354.0	3.97	7.35
26/01/2020 06:49:15	26012020	260120	064915	108.510	12.714728	-57.248867	108.380	0.250	-0.360	-0.980	108.490	-1.700	-0.700																			1580021355.0	4.08	7.56
26/01/2020 06:49:16	26012020	260120	064916	108.470	12.714722	-57.248850	108.360	0.130	-0.110	-0.910	108.470	-1.500	-0.600																			1580021356.0	3.84	7.11
26/01/2020 06:49:17	26012020	260120	064917	108.510	12.714713	-57.248835	108.410	-0.100	0.160	-0.580	108.510	-1.200	-0.300																			1580021357.0	3.64	6.74
26/01/2020 06:49:18	26012020	260120	064918	108.460	12.714703	-57.248820	108.340	-0.250	0.220	0.020	108.440	-1.100	0.300																			1580021358.0	3.80	7.04
26/01/2020 06:49:19	26012020	260120	064919	108.300	12.714692	-57.248805	108.200	-0.250	0.100	0.830	108.270	-1.200	1.100																			1580021359.0	4.10	7.59
26/01/2020 06:49:20	26012020	260120	064920	108.150	12.714678	-57.248788	108.070	-0.120	-0.110	1.560	108.130	-1.400	1.800																			1580021360.0	4.29	7.95
26/01/2020 06:49:21	26012020	260120	064921	108.090	12.714667	-57.248773	108.040	0.080	-0.310	1.930	108.100	-1.700	2.200																			1580021361.0	4.26	7.89
26/01/2020 06:49:22	26012020	260120	064922	108.120	12.714658	-57.248755	108.060	0.180	-0.290	1.880	108.120	-1.700	2.200																			1580021362.0	4.07	7.54
26/01/2020 06:49:23	26012020	260120	064923	108.080	12.714652	-57.248740	107.990	0.120	-0.050	1.580	108.060	-1.400	1.900																			1580021363.0	3.68	6.82
26/01/2020 06:49:24	26012020	260120	064924	107.970	12.714645	-57.248723	107.870	-0.000	0.170	1.150	107.950	-1.200	1.500																			1580021364.0	3.49	6.46
26/01/2020 06:49:25	26012020	260120	064925	107.860	12.714642	-57.248708	107.770	-0.070	0.180	0.610	107.850	-1.200	1.000																			1580021365.0	3.58	6.63
26/01/2020 06:49:26	26012020	260120	064926	107.770	12.714637	-57.248690	107.670	-0.060	-0.060	0.040	107.750	-1.400	0.400																			1580021366.0	3.80	7.04
26/01/2020 06:49:27	26012020	260120	064927	107.640	12.714632	-57.248672	107.500	-0.000	-0.480	-0.380	107.640	-1.800	-0.000																			1580021367.0	4.07	7.54
26/01/2020 06:49:28	26012020	260120	064928	107.390	12.714625	-57.248653	107.240	0.070	-0.790	-0.500	107.340	-2.100	-0.200																			1580021368.0	4.26	7.89
26/01/2020 06:49:29	26012020	260120	064929	107.160	12.714617	-57.248635	107.020	0.090	-0.650	-0.440	107.130	-2.000	-0.100																			1580021369.0	4.15	7.69
26/01/2020 06:49:30	26012020	260120	064930	107.000	12.714608	-57.248620	106.870	0.070	-0.190	-0.280	106.970	-1.600	0.000																			1580021370.0	3.76	6.96
26/01/2020 06:49:31	26012020	260120	064931	106.840	12.714600	-57.248603	106.730	0.050	0.160	-0.010	106.820	-1.200	0.300																			1580021371.0	3.68	6.82
26/01/2020 06:49:32	26012020	260120	064932	106.790	12.714592	-57.248588	106.710	-0.030	0.270	0.270	106.800	-1.100	0.600																			1580021372.0	3.92	7.26
26/01/2020 06:49:33	26012020	260120	064933	106.850	12.714582	-57.248570	106.780	-0.190	0.270	0.530	106.860	-1.100	0.800																			1580021373.0	4.05	7.50
26/01/2020 06:49:34	26012020	260120	064934	106.890	12.714573	-57.248553	106.810	-0.290	0.190	0.790	106.890	-1.200	1.100																			1580021374.0	4.03	7.46
26/01/2020 06:49:35	26012020	260120	064935	106.830	12.714563	-57.248538	106.740	-0.220	0.020	1.130	106.800	-1.300	1.400																			1580021375.0	4.06	7.52
26/01/2020 06:49:36	26012020	260120	064936	106.730	12.714553	-57.248520	106.630	-0.060	-0.200	1.390	106.710	-1.500	1.700																			1580021376.0	4.15	7.69
26/01/2020 06:49:37	26012020	260120	064937	106.630	12.714545	-57.248503	106.550	0.050	-0.330	1.460	106.610	-1.700	1.800																			1580021377.0	4.12	7.63
26/01/2020 06:49:38	26012020	260120	064938	106.470	12.714537	-57.248487	106.380	0.090	-0.340	1.290	106.440	-1.700	1.600																			1580021378.0	3.99	7.39
26/01/2020 06:49:39	26012020	260120	064939	106.330	12.714530	-57.248470	106.240	0.090	-0.200	0.880	106.330	-1.600	1.300																			1580021379.0	3.82	7.07
26/01/2020 06:49:40	26012020	260120	064940	106.270	12.714527	-57.248453	106.180	0.110	-0.050	0.370	106.250	-1.400	0.800																			1580021380.0	3.69	6.83
26/01/2020 06:49:41	26012020	260120	064941	106.180	12.714522	-57.248435	106.060	0.170	-0.110	-0.110	106.180	-1.500	0.300																			1580021381.0	3.82	7.07
26/01/2020 06:49:42	26012020	260120	064942	106.030	12.714518	-57.248417	105.890	0.220	-0.330	-0.460	106.000	-1.700	-0.100																			1580021382.0	4.12	7.63
26/01/2020 06:49:43	26012020	260120	064943	105.850	12.714512	-57.248397	105.740	0.170	-0.450	-0.560	105.830	-1.800	-0.200																			1580021383.0	4.25	7.87
26/01/2020 06:49:44	26012020	260120	064944	105.730	12.714503	-57.248378	105.640	0.060	-0.300	-0.400	105.720	-1.700	-0.100																			1580021384.0	4.14	7.67
26/01/2020 06:49:45	26012020	260120	064945	105.650	12.714495	-57.248362	105.550	-0.070	-0.020	-0.040	105.620	-1.400	0.300																			1580021385.0	3.96	7.33
26/01/2020 06:49:46	26012020	260120	064946	105.470	12.714487	-57.248347	105.390	-0.150	0.130	0.410	105.440	-1.200	0.700																			1580021386.0	3.96	7.33
26/01/2020 06:49:47	26012020	260120	064947	105.280	12.714477	-57.248328	105.210	-0.170	0.080	0.870	105.250	-1.300	1.200																			1580021387.0	4.19	7.76
26/01/2020 06:49:48	26012020	260120	064948	105.210	12.714467	-57.248312	105.180	-0.170	0.030	1.180	105.220	-1.300	1.500																			1580021388.0	4.31	7.98
26/01/2020 06:49:49	26012020	260120	064949	105.350	12.714457	-57.248293	105.350	-0.240	0.110	1.290	105.390	-1.300	1.600																			1580021389.0	4.12	7.63
26/01/2020 06:49:50	26012020	260120	064950	105.540	12.714448	-57.248278	105.520	-0.350	0.170	1.250	105.570	-1.200	1.600																			1580021390.0	3.86	7.15
26/01/2020 06:49:51	26012020	260120	064951	105.580	12.714442	-57.248262	105.510	-0.320	-0.030	1.180	105.570	-1.400	1.500																			1580021391.0	3.90	7.22
26/01/2020 06:49:52	26012020	260120	064952	105.430	12.714433	-57.248243	105.320	-0.130	-0.410	1.120	105.390	-1.700	1.500																			1580021392.0	4.20	7.78
26/01/2020 06:49:53	26012020	260120	064953	105.220	12.714427	-57.248223	105.100	0.140	-0.670	0.990	105.220	-2.000	1.400																			1580021393.0	4.36	8.07
26/01/2020 06:49:54	26012020	260120	064954	105.010	12.714420	-57.248205	104.900	0.360	-0.580	0.720	104.970	-2.000	1.100																			1580021394.0	4.18	7.74
26/01/2020 06:49:55	26012020	260120	064955	104.800	12.714415	-57.248187	104.680	0.500	-0.340	0.270	104.780	-1.700	0.700																			1580021395.0	3.93	7.28
26/01/2020 06:49:56	26012020	260120	064956	104.700	12.714412	-57.248168	104.580	0.530	-0.120	-0.270	104.690	-1.500	0.100																			1580021396.0	3.98	7.37
26/01/2020 06:49:57	26012020	260120	064957	104.720	12.714408	-57.248150	104.620	0.370	0.110	-0.700	104.730	-1.300	-0.300																			1580021397.0	4.08	7.56
26/01/2020 06:49:58	26012020	260120	064958	104.830	12.714405	-57.248132	104.750	0.060	0.310	-0.860	104.850	-1.100	-0.500																			1580021398.0	3.98	7.37
26/01/2020 06:49:59	26012020	260120	064959	104.950	12.714398	-57.248113	104.870	-0.220	0.330	-0.630	104.980	-1.000	-0.300																			1580021399.0	4.00	7.41
26/01/2020 06:50:00	26012020	260120	065000	105.040	12.714388	-57.248095	104.970	-0.370	0.210	-0.100	105.060	-1.100	0.200	1013.90	25.70	25.70	20.30	20.30	-1.00	72.00	72.00	430.00	25.50	339.00	8.40	80.00	6.50	15	3185.00	27.40	27.40	1580021400.0	4.20	7.78
26/01/2020 06:50:01	26012020	260120	065001	105.100	12.714378	-57.248078	105.020	-0.460	0.020	0.590	105.100	-1.300	0.900																			1580021401.0	4.28	7.93
26/01/2020 06:50:02	26012020	260120	065002	105.060	12.714367	-57.248062	104.980	-0.430	-0.300	1.350	105.040	-1.600	1.600																			1580021402.0	4.41	8.17
26/01/2020 06:50:03	26012020	260120	065003	104.880	12.714353	-57.248045	104.780	-0.220	-0.630	2.040	104.830	-2.000	2.300																			1580021403.0	4.57	8.46
26/01/2020 06:50:04	26012020	260120	065004	104.600	12.714342	-57.248027	104.510	0.090	-0.790	2.400	104.550	-2.100	2.700																			1580021404.0	4.57	8.46
26/01/2020 06:50:05	26012020	260120	065005	104.360	12.714333	-57.248008	104.280	0.280	-0.670	2.220	104.320	-2.000	2.600																			1580021405.0	4.36	8.07
26/01/2020 06:50:06	26012020	260120	065006	104.200	12.714328	-57.247988	104.140	0.210	-0.230	1.560	104.190	-1.600	2.000																			1580021406.0	4.07	7.54
26/01/2020 06:50:07	26012020	260120	065007	104.180	12.714327	-57.247970	104.120	-0.040	0.300	0.610	104.200	-1.100	1.100																			1580021407.0	3.84	7.11
26/01/2020 06:50:08	26012020	260120	065008	104.310	12.714325	-57.247953	104.240	-0.260	0.560	-0.330	104.340	-0.800	0.100																			1580021408.0	3.83	7.09
26/01/2020 06:50:09	26012020	260120	065009	104.450	12.714323	-57.247933	104.380	-0.240	0.380	-1.080	104.480	-0.900	-0.700																			1580021409.0	4.13	7.65
26/01/2020 06:50:10	26012020	260120	065010	104.570	12.714318	-57.247913	104.470	-0.010	-0.010	-1.520	104.590	-1.300	-1.100																			1580021410.0	4.47	8.28
26/01/2020 06:50:11	26012020	260120	065011	104.610	12.714313	-57.247892	104.500	0.240	-0.290	-1.540	104.610	-1.600	-1.200																			1580021411.0	4.51	8.35
26/01/2020 06:50:12	26012020	260120	065012	104.520	12.714305	-57.247873	104.400	0.340	-0.360	-1.110	104.490	-1.700	-0.800																			1580021412.0	4.31	7.98
26/01/2020 06:50:13	26012020	260120	065013	104.390	12.714297	-57.247855	104.290	0.320	-0.270	-0.400	104.370	-1.600	-0.100																			1580021413.0	4.12	7.63
26/01/2020 06:50:14	26012020	260120	065014	104.300	12.714288	-57.247838	104.240	0.240	-0.160	0.450	104.280	-1.500	0.700																			1580021414.0	4.08	7.56
26/01/2020 06:50:15	26012020	260120	065015	104.200	12.714278	-57.247822	104.130	0.120	-0.190	1.320	104.200	-1.500	1.600																			1580021415.0	4.24	7.85
26/01/2020 06:50:16	26012020	260120	065016	104.050	12.714267	-57.247803	103.990	-0.040	-0.270	1.990	104.010	-1.600	2.300																			1580021416.0	4.43	8.20
26/01/2020 06:50:17	26012020	260120	065017	103.920	12.714257	-57.247785	103.880	-0.230	-0.270	2.390	103.920	-1.600	2.700																			1580021417.0	4.47	8.28
26/01/2020 06:50:18	26012020	260120	065018	103.900	12.714247	-57.247767	103.880	-0.390	-0.150	2.480	103.900	-1.500	2.800																			1580021418.0	4.34	8.04
26/01/2020 06:50:19	26012020	260120	065019	103.940	12.714238	-57.247750	103.910	-0.450	-0.040	2.220	103.950	-1.400	2.600																			1580021419.0	4.20	7.78
26/01/2020 06:50:20	26012020	260120	065020	103.970	12.714232	-57.247730	103.920	-0.320	-0.090	1.560	103.980	-1.400	2.000																			1580021420.0	4.22	7.82
26/01/2020 06:50:21	26012020	260120	065021	103.950	12.714228	-57.247710	103.850	-0.010	-0.220	0.610	103.930	-1.600	1.000																			1580021421.0	4.40	8.15
26/01/2020 06:50:22	26012020	260120	065022	103.830	12.714227	-57.247688	103.700	0.310	-0.220	-0.350	103.810	-1.600	0.100																			1580021422.0	4.50	8.33
26/01/2020 06:50:23	26012020	260120	065023	103.710	12.714225	-57.247668	103.580	0.430	-0.020	-1.190	103.710	-1.400	-0.800																			1580021423.0	4.40	8.15
26/01/2020 06:50:24	26012020	260120	065024	103.790	12.714225	-57.247648	103.710	0.280	0.240	-1.830	103.840	-1.100	-1.400																			1580021424.0	4.14	7.67
26/01/2020 06:50:25	26012020	260120	065025	104.080	12.714223	-57.247630	104.020	0.020	0.240	-2.020	104.140	-1.100	-1.700																			1580021425.0	4.03	7.46
26/01/2020 06:50:26	26012020	260120	065026	104.310	12.714217	-57.247610	104.220	-0.130	-0.040	-1.530	104.330	-1.400	-1.200																			1580021426.0	4.27	7.91
26/01/2020 06:50:27	26012020	260120	065027	104.280	12.714205	-57.247592	104.160	-0.150	-0.320	-0.430	104.230	-1.700	-0.200																			1580021427.0	4.65	8.61
26/01/2020 06:50:28	26012020	260120	065028	104.040	12.714192	-57.247573	103.940	-0.090	-0.420	0.940	103.990	-1.800	1.200																			1580021428.0	4.77	8.83
26/01/2020 06:50:29	26012020	260120	065029	103.840	12.714177	-57.247557	103.790	0.000	-0.440	2.060	103.840	-1.800	2.300																			1580021429.0	4.69	8.69
26/01/2020 06:50:30	26012020	260120	065030	103.780	12.714165	-57.247538	103.760	0.100	-0.430	2.730	103.770	-1.800	3.000																			1580021430.0	4.59	8.50
26/01/2020 06:50:31	26012020	260120	065031	103.740	12.714155	-57.247520	103.740	0.140	-0.320	2.880	103.740	-1.700	3.200																			1580021431.0	4.48	8.30
26/01/2020 06:50:32	26012020	260120	065032	103.680	12.714150	-57.247500	103.670	0.080	-0.130	2.450	103.680	-1.500	2.900																			1580021432.0	4.29	7.95
26/01/2020 06:50:33	26012020	260120	065033	103.650	12.714147	-57.247480	103.620	-0.000	0.030	1.610	103.650	-1.300	2.000																			1580021433.0	4.27	7.91
26/01/2020 06:50:34	26012020	260120	065034	103.660	12.714143	-57.247460	103.610	-0.070	0.140	0.690	103.670	-1.200	1.100																			1580021434.0	4.37	8.09
26/01/2020 06:50:35	26012020	260120	065035	103.790	12.714142	-57.247440	103.740	-0.140	0.250	-0.320	103.830	-1.100	0.100																			1580021435.0	4.34	8.04
26/01/2020 06:50:36	26012020	260120	065036	103.980	12.714140	-57.247420	103.890	-0.210	0.260	-1.250	104.000	-1.100	-0.800																			1580021436.0	4.24	7.85
26/01/2020 06:50:37	26012020	260120	065037	104.000	12.714137	-57.247400	103.870	-0.160	-0.020	-1.740	103.980	-1.300	-1.400																			1580021437.0	4.31	7.98
26/01/2020 06:50:38	26012020	260120	065038	103.850	12.714132	-57.247378	103.710	0.020	-0.440	-1.670	103.820	-1.800	-1.300																			1580021438.0	4.57	8.46
26/01/2020 06:50:39	26012020	260120	065039	103.710	12.714125	-57.247358	103.610	0.170	-0.580	-1.230	103.700	-1.900	-0.900																			1580021439.0	4.63	8.57
26/01/2020 06:50:40	26012020	260120	065040	103.720	12.714117	-57.247340	103.660	0.140	-0.350	-0.650	103.730	-1.700	-0.400																			1580021440.0	4.32	8.00
26/01/2020 06:50:41	26012020	260120	065041	103.800	12.714107	-57.247322	103.730	0.000	-0.100	0.050	103.800	-1.500	0.300																			1580021441.0	4.06	7.52
26/01/2020 06:50:42	26012020	260120	065042	103.770	12.714097	-57.247305	103.700	-0.060	-0.110	0.910	103.740	-1.400	1.200																			1580021442.0	4.27	7.91
26/01/2020 06:50:43	26012020	260120	065043	103.660	12.714087	-57.247287	103.610	-0.010	-0.270	1.780	103.630	-1.600	2.000																			1580021443.0	4.66	8.63
26/01/2020 06:50:44	26012020	260120	065044	103.550	12.714075	-57.247267	103.500	0.060	-0.310	2.360	103.540	-1.700	2.700																			1580021444.0	4.76	8.82
26/01/2020 06:50:45	26012020	260120	065045	103.500	12.714065	-57.247248	103.470	0.000	-0.050	2.410	103.510	-1.400	2.800																			1580021445.0	4.42	8.19
26/01/2020 06:50:46	26012020	260120	065046	103.530	12.714060	-57.247230	103.510	-0.140	0.310	2.000	103.540	-1.100	2.400																			1580021446.0	3.92	7.26
26/01/2020 06:50:47	26012020	260120	065047	103.570	12.714057	-57.247213	103.520	-0.180	0.300	1.290	103.580	-1.000	1.700																			1580021447.0	3.86	7.15
26/01/2020 06:50:48	26012020	260120	065048	103.580	12.714053	-57.247192	103.500	-0.010	-0.180	0.380	103.570	-1.500	0.800																			1580021448.0	4.37	8.09
26/01/2020 06:50:49	26012020	260120	065049	103.520	12.714052	-57.247170	103.400	0.220	-0.580	-0.510	103.500	-1.900	-0.100																			1580021449.0	4.76	8.82
26/01/2020 06:50:50	26012020	260120	065050	103.410	12.714048	-57.247148	103.270	0.270	-0.410	-1.150	103.400	-1.800	-0.700																			1580021450.0	4.40	8.15
26/01/2020 06:50:51	26012020	260120	065051	103.390	12.714047	-57.247132	103.280	0.080	0.080	-1.480	103.400	-1.300	-1.100																			1580021451.0	3.73	6.91
26/01/2020 06:50:52	26012020	260120	065052	103.470	12.714042	-57.247115	103.350	-0.110	0.280	-1.500	103.480	-1.100	-1.200																			1580021452.0	3.53	6.54
26/01/2020 06:50:53	26012020	260120	065053	103.450	12.714035	-57.247097	103.310	-0.140	-0.000	-1.080	103.450	-1.300	-0.800																			1580021453.0	4.01	7.43
26/01/2020 06:50:54	26012020	260120	065054	103.290	12.714027	-57.247078	103.170	-0.060	-0.430	-0.370	103.260	-1.800	-0.100																			1580021454.0	4.54	8.41
26/01/2020 06:50:55	26012020	260120	065055	103.130	12.714017	-57.247058	103.040	-0.060	-0.610	0.530	103.100	-2.000	0.800																			1580021455.0	4.63	8.57
26/01/2020 06:50:56	26012020	260120	065056	102.960	12.714005	-57.247042	102.890	-0.120	-0.430	1.500	102.930	-1.800	1.800																			1580021456.0	4.39	8.13
26/01/2020 06:50:57	26012020	260120	065057	102.830	12.713993	-57.247027	102.800	-0.120	-0.160	2.160	102.810	-1.500	2.500																			1580021457.0	4.13	7.65
26/01/2020 06:50:58	26012020	260120	065058	102.760	12.713985	-57.247008	102.730	0.020	-0.020	2.300	102.750	-1.400	2.600																			1580021458.0	4.04	7.48
26/01/2020 06:50:59	26012020	260120	065059	102.730	12.713978	-57.246990	102.680	0.180	-0.000	2.000	102.720	-1.400	2.400																			1580021459.0	4.11	7.61
26/01/2020 06:51:00	26012020	260120	065100	102.700	12.713975	-57.246972	102.630	0.230	0.010	1.420	102.690	-1.400	1.800	1013.90	25.70	25.70	20.10	20.20	-1.00	71.00	71.00	428.00	25.50	347.00	8.30	86.00	6.20	15	3212.00	27.40	27.40	1580021460.0	4.13	7.65
26/01/2020 06:51:01	26012020	260120	065101	102.670	12.713972	-57.246952	102.590	0.180	0.040	0.600	102.670	-1.300	1.000																			1580021461.0	4.09	7.57
26/01/2020 06:51:02	26012020	260120	065102	102.710	12.713970	-57.246933	102.610	0.090	0.160	-0.300	102.720	-1.200	0.100																			1580021462.0	3.96	7.33
26/01/2020 06:51:03	26012020	260120	065103	102.760	12.713970	-57.246917	102.650	-0.000	0.310	-1.040	102.770	-1.100	-0.600																			1580021463.0	3.73	6.91
26/01/2020 06:51:04	26012020	260120	065104	102.730	12.713968	-57.246898	102.600	-0.070	0.220	-1.390	102.710	-1.100	-1.000																			1580021464.0	3.62	6.70
26/01/2020 06:51:05	26012020	260120	065105	102.570	12.713965	-57.246882	102.430	-0.090	-0.270	-1.370	102.540	-1.600	-1.000																			1580021465.0	3.89	7.20
26/01/2020 06:51:06	26012020	260120	065106	102.360	12.713958	-57.246862	102.230	-0.060	-0.890	-0.930	102.310	-2.200	-0.600																			1580021466.0	4.31	7.98
26/01/2020 06:51:07	26012020	260120	065107	102.090	12.713948	-57.246843	101.960	-0.030	-1.130	-0.100	102.090	-2.500	0.200																			1580021467.0	4.52	8.37
26/01/2020 06:51:08	26012020	260120	065108	101.810	12.713938	-57.246825	101.730	-0.080	-0.720	0.820	101.760	-2.100	1.100																			1580021468.0	4.29	7.95
26/01/2020 06:51:09	26012020	260120	065109	101.670	12.713927	-57.246812	101.660	-0.200	0.040	1.520	101.670	-1.400	1.800																			1580021469.0	3.83	7.09
26/01/2020 06:51:10	26012020	260120	065110	101.730	12.713918	-57.246797	101.740	-0.280	0.600	1.770	101.760	-0.800	2.100																			1580021470.0	3.54	6.56
26/01/2020 06:51:11	26012020	260120	065111	101.820	12.713910	-57.246782	101.790	-0.190	0.610	1.650	101.820	-0.700	2.000																			1580021471.0	3.66	6.78
26/01/2020 06:51:12	26012020	260120	065112	101.780	12.713905	-57.246763	101.730	0.050	0.150	1.270	101.760	-1.200	1.700																			1580021472.0	4.12	7.63
26/01/2020 06:51:13	26012020	260120	065113	101.690	12.713902	-57.246742	101.630	0.290	-0.260	0.700	101.680	-1.600	1.100																			1580021473.0	4.35	8.06
26/01/2020 06:51:14	26012020	260120	065114	101.670	12.713900	-57.246723	101.620	0.400	-0.260	0.060	101.680	-1.600	0.500																			1580021474.0	4.04	7.48
26/01/2020 06:51:15	26012020	260120	065115	101.680	12.713898	-57.246707	101.610	0.360	-0.090	-0.470	101.670	-1.500	-0.100																			1580021475.0	3.54	6.56
26/01/2020 06:51:16	26012020	260120	065116	101.610	12.713897	-57.246690	101.520	0.230	-0.120	-0.790	101.590	-1.500	-0.400																			1580021476.0	3.51	6.50
26/01/2020 06:51:17	26012020	260120	065117	101.460	12.713893	-57.246673	101.360	0.020	-0.270	-0.800	101.420	-1.600	-0.400																			1580021477.0	3.74	6.93
26/01/2020 06:51:18	26012020	260120	065118	101.240	12.713888	-57.246655	101.140	-0.230	-0.270	-0.430	101.190	-1.600	-0.100																			1580021478.0	3.76	6.96
26/01/2020 06:51:19	26012020	260120	065119	101.000	12.713880	-57.246640	100.940	-0.410	-0.210	0.200	100.950	-1.600	0.500																			1580021479.0	3.68	6.82
26/01/2020 06:51:20	26012020	260120	065120	100.770	12.713872	-57.246625	100.730	-0.360	-0.350	0.850	100.720	-1.700	1.200																			1580021480.0	3.87	7.17
26/01/2020 06:51:21	26012020	260120	065121	100.540	12.713862	-57.246607	100.530	-0.100	-0.620	1.350	100.540	-2.000	1.700																			1580021481.0	4.25	7.87
26/01/2020 06:51:22	26012020	260120	065122	100.440	12.713853	-57.246588	100.480	0.100	-0.520	1.480	100.450	-1.900	1.800																			1580021482.0	4.28	7.93
26/01/2020 06:51:23	26012020	260120	065123	100.560	12.713847	-57.246572	100.620	0.050	0.120	1.310	100.590	-1.300	1.700																			1580021483.0	3.66	6.78
26/01/2020 06:51:24	26012020	260120	065124	100.670	12.713843	-57.246558	100.690	-0.140	0.740	0.990	100.680	-0.700	1.400																			1580021484.0	3.04	5.63
26/01/2020 06:51:25	26012020	260120	065125	100.650	12.713840	-57.246543	100.640	-0.160	0.710	0.480	100.630	-0.600	0.900																			1580021485.0	3.17	5.87
26/01/2020 06:51:26	26012020	260120	065126	100.550	12.713837	-57.246527	100.500	0.090	0.130	-0.110	100.530	-1.200	0.300																			1580021486.0	3.81	7.06
26/01/2020 06:51:27	26012020	260120	065127	100.440	12.713835	-57.246507	100.370	0.400	-0.480	-0.590	100.420	-1.800	-0.200																			1580021487.0	4.16	7.70
26/01/2020 06:51:28	26012020	260120	065128	100.340	12.713833	-57.246488	100.260	0.470	-0.740	-0.830	100.320	-2.100	-0.400																			1580021488.0	3.97	7.35
26/01/2020 06:51:29	26012020	260120	065129	100.180	12.713830	-57.246472	100.070	0.240	-0.580	-0.720	100.140	-2.000	-0.400																			1580021489.0	3.53	6.54
26/01/2020 06:51:30	26012020	260120	065130	99.910	12.713825	-57.246457	99.790	-0.110	-0.220	-0.320	99.850	-1.600	0.000																			1580021490.0	3.25	6.02
26/01/2020 06:51:31	26012020	260120	065131	99.620	12.713818	-57.246443	99.540	-0.290	0.020	0.240	99.580	-1.300	0.600																			1580021491.0	3.29	6.09
26/01/2020 06:51:32	26012020	260120	065132	99.450	12.713810	-57.246427	99.410	-0.260	-0.010	0.800	99.430	-1.400	1.100																			1580021492.0	3.64	6.74
26/01/2020 06:51:33	26012020	260120	065133	99.430	12.713803	-57.246412	99.430	-0.210	-0.120	1.140	99.430	-1.500	1.500																			1580021493.0	3.88	7.19
26/01/2020 06:51:34	26012020	260120	065134	99.420	12.713795	-57.246395	99.390	-0.220	-0.130	1.280	99.410	-1.500	1.600																			1580021494.0	3.79	7.02
26/01/2020 06:51:35	26012020	260120	065135	99.280	12.713788	-57.246378	99.230	-0.180	-0.110	1.340	99.230	-1.500	1.700																			1580021495.0	3.61	6.69
26/01/2020 06:51:36	26012020	260120	065136	99.070	12.713783	-57.246363	99.030	0.000	-0.180	1.210	99.030	-1.500	1.600																			1580021496.0	3.61	6.69
26/01/2020 06:51:37	26012020	260120	065137	98.930	12.713778	-57.246347	98.880	0.210	-0.210	0.850	98.910	-1.600	1.300																			1580021497.0	3.66	6.78
26/01/2020 06:51:38	26012020	260120	065138	98.830	12.713777	-57.246330	98.750	0.250	-0.020	0.260	98.810	-1.400	0.700																			1580021498.0	3.48	6.44
26/01/2020 06:51:39	26012020	260120	065139	98.720	12.713777	-57.246315	98.640	0.160	0.190	-0.460	98.700	-1.200	-0.000																			1580021499.0	3.24	6.00
26/01/2020 06:51:40	26012020	260120	065140	98.650	12.713777	-57.246298	98.590	0.110	0.150	-1.000	98.650	-1.200	-0.600																			1580021500.0	3.25	6.02
26/01/2020 06:51:41	26012020	260120	065141	98.650	12.713777	-57.246283	98.580	0.130	-0.070	-1.210	98.640	-1.400	-0.800																			1580021501.0	3.44	6.37
26/01/2020 06:51:42	26012020	260120	065142	98.560	12.713772	-57.246267	98.450	0.130	-0.290	-0.980	98.530	-1.600	-0.600																			1580021502.0	3.54	6.56
26/01/2020 06:51:43	26012020	260120	065143	98.320	12.713767	-57.246250	98.200	0.040	-0.390	-0.450	98.270	-1.700	-0.100																			1580021503.0	3.56	6.59
26/01/2020 06:51:44	26012020	260120	065144	98.030	12.713758	-57.246237	97.930	-0.130	-0.320	0.230	97.980	-1.700	0.500																			1580021504.0	3.48	6.44
26/01/2020 06:51:45	26012020	260120	065145	97.780	12.713752	-57.246222	97.700	-0.260	-0.180	0.950	97.740	-1.500	1.200																			1580021505.0	3.39	6.28
26/01/2020 06:51:46	26012020	260120	065146	97.580	12.713743	-57.246208	97.520	-0.230	-0.140	1.540	97.550	-1.500	1.900																			1580021506.0	3.42	6.33
26/01/2020 06:51:47	26012020	260120	065147	97.400	12.713737	-57.246193	97.370	-0.080	-0.260	1.880	97.360	-1.600	2.200																			1580021507.0	3.59	6.65
26/01/2020 06:51:48	26012020	260120	065148	97.220	12.713730	-57.246177	97.190	0.050	-0.360	1.880	97.190	-1.700	2.300																			1580021508.0	3.69	6.83
26/01/2020 06:51:49	26012020	260120	065149	97.090	12.713725	-57.246160	97.070	0.030	-0.220	1.530	97.060	-1.600	1.900																			1580021509.0	3.52	6.52
26/01/2020 06:51:50	26012020	260120	065150	97.000	12.713723	-57.246145	96.990	-0.110	0.150	0.920	96.980	-1.200	1.400																			1580021510.0	3.14	5.82
26/01/2020 06:51:51	26012020	260120	065151	96.880	12.713722	-57.246132	96.830	-0.150	0.460	0.180	96.860	-0.900	0.600																			1580021511.0	2.89	5.35
26/01/2020 06:51:52	26012020	260120	065152	96.760	12.713723	-57.246118	96.690	0.020	0.370	-0.640	96.750	-1.000	-0.200																			1580021512.0	3.03	5.61
26/01/2020 06:51:53	26012020	260120	065153	96.710	12.713723	-57.246102	96.630	0.320	-0.120	-1.330	96.700	-1.400	-0.900																			1580021513.0	3.44	6.37
26/01/2020 06:51:54	26012020	260120	065154	96.640	12.713723	-57.246083	96.530	0.520	-0.580	-1.640	96.610	-1.900	-1.300																			1580021514.0	3.71	6.87
26/01/2020 06:51:55	26012020	260120	065155	96.480	12.713722	-57.246068	96.350	0.410	-0.530	-1.460	96.480	-1.900	-1.100																			1580021515.0	3.44	6.37
26/01/2020 06:51:56	26012020	260120	065156	96.260	12.713718	-57.246055	96.150	0.060	-0.090	-0.880	96.220	-1.500	-0.600																			1580021516.0	2.86	5.30
26/01/2020 06:51:57	26012020	260120	065157	96.050	12.713712	-57.246043	95.960	-0.260	0.160	-0.020	96.010	-1.200	0.300																			1580021517.0	2.78	5.15
26/01/2020 06:51:58	26012020	260120	065158	95.810	12.713703	-57.246030	95.730	-0.350	-0.050	1.010	95.750	-1.400	1.300																			1580021518.0	3.33	6.17
26/01/2020 06:51:59	26012020	260120	065159	95.520	12.713693	-57.246015	95.450	-0.260	-0.440	1.970	95.460	-1.800	2.300																			1580021519.0	3.90	7.22
26/01/2020 06:52:00	26012020	260120	065200	95.270	12.713685	-57.245998	95.250	-0.190	-0.530	2.600	95.240	-1.900	2.900	1013.90	25.70	25.70	20.10	20.20	-1.00	71.00	71.00	427.00	25.40	354.00	7.70	92.00	5.90	15	3177.00	27.40	27.40	1580021520.0	3.90	7.22
26/01/2020 06:52:01	26012020	260120	065201	95.100	12.713677	-57.245985	95.080	-0.210	-0.250	2.730	95.070	-1.600	3.100																			1580021521.0	3.37	6.24
26/01/2020 06:52:02	26012020	260120	065202	94.920	12.713673	-57.245972	94.890	-0.190	0.040	2.330	94.880	-1.300	2.700																			1580021522.0	2.91	5.39
26/01/2020 06:52:03	26012020	260120	065203	94.800	12.713672	-57.245958	94.780	-0.030	0.140	1.420	94.800	-1.200	1.900																			1580021523.0	2.94	5.44
26/01/2020 06:52:04	26012020	260120	065204	94.820	12.713673	-57.245943	94.770	0.180	0.170	0.210	94.830	-1.200	0.700																			1580021524.0	3.16	5.85
26/01/2020 06:52:05	26012020	260120	065205	94.860	12.713677	-57.245928	94.770	0.330	0.160	-1.060	94.860	-1.200	-0.600																			1580021525.0	3.15	5.83
26/01/2020 06:52:06	26012020	260120	065206	94.810	12.713682	-57.245913	94.660	0.400	-0.050	-2.050	94.780	-1.400	-1.600																			1580021526.0	3.18	5.89
26/01/2020 06:52:07	26012020	260120	065207	94.590	12.713683	-57.245898	94.410	0.400	-0.390	-2.430	94.530	-1.700	-2.000																			1580021527.0	3.30	6.11
26/01/2020 06:52:08	26012020	260120	065208	94.290	12.713683	-57.245883	94.120	0.250	-0.470	-2.120	94.230	-1.800	-1.800																			1580021528.0	3.23	5.98
26/01/2020 06:52:09	26012020	260120	065209	93.990	12.713680	-57.245870	93.850	-0.070	-0.190	-1.190	93.920	-1.600	-0.900																			1580021529.0	2.91	5.39
26/01/2020 06:52:10	26012020	260120	065210	93.710	12.713670	-57.245858	93.640	-0.400	0.070	0.090	93.670	-1.300	0.300																			1580021530.0	3.04	5.63
26/01/2020 06:52:11	26012020	260120	065211	93.570	12.713660	-57.245847	93.550	-0.540	0.030	1.320	93.570	-1.300	1.600																			1580021531.0	3.53	6.54
26/01/2020 06:52:12	26012020	260120	065212	93.530	12.713648	-57.245833	93.530	-0.440	-0.150	2.250	93.520	-1.500	2.500																			1580021532.0	3.76	6.96
26/01/2020 06:52:13	26012020	260120	065213	93.450	12.713640	-57.245818	93.450	-0.190	-0.210	2.730	93.430	-1.600	3.100																			1580021533.0	3.52	6.52
26/01/2020 06:52:14	26012020	260120	065214	93.280	12.713633	-57.245807	93.260	0.070	-0.160	2.730	93.240	-1.500	3.100																			1580021534.0	3.07	5.69
26/01/2020 06:52:15	26012020	260120	065215	93.050	12.713632	-57.245793	93.000	0.250	-0.140	2.220	93.000	-1.500	2.700																			1580021535.0	2.79	5.17
26/01/2020 06:52:16	26012020	260120	065216	92.800	12.713632	-57.245780	92.700	0.360	-0.230	1.300	92.740	-1.600	1.800																			1580021536.0	2.86	5.30
26/01/2020 06:52:17	26012020	260120	065217	92.520	12.713637	-57.245765	92.400	0.400	-0.300	0.120	92.480	-1.700	0.600																			1580021537.0	3.13	5.80
26/01/2020 06:52:18	26012020	260120	065218	92.350	12.713642	-57.245752	92.200	0.310	-0.190	-1.010	92.330	-1.600	-0.500																			1580021538.0	3.18	5.89
26/01/2020 06:52:19	26012020	260120	065219	92.290	12.713645	-57.245738	92.130	0.070	0.060	-1.760	92.270	-1.300	-1.300																			1580021539.0	2.81	5.20
26/01/2020 06:52:20	26012020	260120	065220	92.220	12.713645	-57.245727	92.040	-0.190	0.170	-2.000	92.200	-1.200	-1.600																			1580021540.0	2.53	4.69
26/01/2020 06:52:21	26012020	260120	065221	92.090	12.713643	-57.245713	91.890	-0.310	0.000	-1.720	92.050	-1.300	-1.400																			1580021541.0	2.76	5.11
26/01/2020 06:52:22	26012020	260120	065222	91.880	12.713637	-57.245700	91.700	-0.260	-0.180	-0.960	91.830	-1.500	-0.700																			1580021542.0	3.18	5.89
26/01/2020 06:52:23	26012020	260120	065223	91.630	12.713630	-57.245687	91.470	-0.170	-0.120	0.050	91.590	-1.500	0.300																			1580021543.0	3.28	6.07
26/01/2020 06:52:24	26012020	260120	065224	91.450	12.713620	-57.245675	91.320	-0.140	0.080	0.980	91.420	-1.300	1.300																			1580021544.0	3.02	5.59
26/01/2020 06:52:25	26012020	260120	065225	91.350	12.713613	-57.245663	91.250	-0.100	0.030	1.670	91.340	-1.300	2.000																			1580021545.0	2.82	5.22
26/01/2020 06:52:26	26012020	260120	065226	91.220	12.713608	-57.245652	91.110	0.070	-0.330	2.010	91.190	-1.600	2.400																			1580021546.0	2.92	5.41
26/01/2020 06:52:27	26012020	260120	065227	91.050	12.713605	-57.245637	90.940	0.300	-0.600	2.010	91.010	-1.900	2.400																			1580021547.0	3.08	5.70
26/01/2020 06:52:28	26012020	260120	065228	90.850	12.713603	-57.245623	90.730	0.390	-0.520	1.840	90.810	-1.900	2.200																			1580021548.0	2.87	5.32
26/01/2020 06:52:29	26012020	260120	065229	90.630	12.713602	-57.245612	90.530	0.250	-0.160	1.510	90.600	-1.600	1.900																			1580021549.0	2.51	4.65
26/01/2020 06:52:30	26012020	260120	065230	90.490	12.713602	-57.245602	90.380	-0.010	0.160	0.860	90.480	-1.200	1.300																			1580021550.0	2.30	4.26
26/01/2020 06:52:31	26012020	260120	065231	90.450	12.713603	-57.245590	90.330	-0.190	0.240	-0.050	90.450	-1.100	0.400																			1580021551.0	2.42	4.48
26/01/2020 06:52:32	26012020	260120	065232	90.450	12.713607	-57.245577	90.290	-0.190	0.100	-0.900	90.440	-1.200	-0.400																			1580021552.0	2.65	4.91
26/01/2020 06:52:33	26012020	260120	065233	90.360	12.713608	-57.245565	90.160	-0.060	-0.110	-1.390	90.320	-1.500	-1.000																			1580021553.0	2.77	5.13
26/01/2020 06:52:34	26012020	260120	065234	90.190	12.713608	-57.245552	90.020	0.060	-0.210	-1.510	90.170	-1.600	-1.100																			1580021554.0	2.73	5.06
26/01/2020 06:52:35	26012020	260120	065235	90.090	12.713607	-57.245540	89.940	0.070	-0.190	-1.340	90.090	-1.500	-1.000																			1580021555.0	2.54	4.70
26/01/2020 06:52:36	26012020	260120	065236	90.040	12.713603	-57.245528	89.890	-0.020	-0.100	-0.870	90.030	-1.500	-0.500																			1580021556.0	2.50	4.63
26/01/2020 06:52:37	26012020	260120	065237	89.890	12.713598	-57.245517	89.730	-0.170	-0.000	-0.090	89.840	-1.400	0.200																			1580021557.0	2.60	4.82
26/01/2020 06:52:38	26012020	260120	065238	89.620	12.713592	-57.245507	89.480	-0.280	0.010	0.810	89.560	-1.300	1.100																			1580021558.0	2.74	5.07
26/01/2020 06:52:39	26012020	260120	065239	89.370	12.713585	-57.245495	89.280	-0.240	-0.100	1.550	89.330	-1.400	1.900																			1580021559.0	2.79	5.17
26/01/2020 06:52:40	26012020	260120	065240	89.220	12.713578	-57.245483	89.170	-0.040	-0.310	1.980	89.200	-1.600	2.300																			1580021560.0	2.79	5.17
26/01/2020 06:52:41	26012020	260120	065241	89.150	12.713575	-57.245470	89.130	0.180	-0.440	2.030	89.150	-1.800	2.400																			1580021561.0	2.75	5.09
26/01/2020 06:52:42	26012020	260120	065242	89.140	12.713573	-57.245458	89.110	0.270	-0.410	1.680	89.130	-1.800	2.100																			1580021562.0	2.57	4.76
26/01/2020 06:52:43	26012020	260120	065243	89.060	12.713573	-57.245447	89.010	0.200	-0.230	1.140	89.030	-1.600	1.600																			1580021563.0	2.39	4.43
26/01/2020 06:52:44	26012020	260120	065244	88.920	12.713575	-57.245437	88.840	0.060	0.010	0.520	88.890	-1.400	1.000																			1580021564.0	2.26	4.19
26/01/2020 06:52:45	26012020	260120	065245	88.810	12.713577	-57.245427	88.740	-0.010	0.210	-0.110	88.800	-1.200	0.300																			1580021565.0	2.20	4.07
26/01/2020 06:52:46	26012020	260120	065246	88.780	12.713578	-57.245415	88.690	-0.010	0.250	-0.710	88.780	-1.100	-0.300																			1580021566.0	2.22	4.11
26/01/2020 06:52:47	26012020	260120	065247	88.740	12.713580	-57.245405	88.620	0.000	0.120	-1.150	88.740	-1.200	-0.700																			1580021567.0	2.33	4.32
26/01/2020 06:52:48	26012020	260120	065248	88.610	12.713582	-57.245393	88.480	-0.030	-0.100	-1.270	88.580	-1.400	-0.900																			1580021568.0	2.40	4.44
26/01/2020 06:52:49	26012020	260120	065249	88.490	12.713580	-57.245382	88.390	-0.060	-0.320	-1.040	88.480	-1.700	-0.700																			1580021569.0	2.40	4.44
26/01/2020 06:52:50	26012020	260120	065250	88.470	12.713577	-57.245372	88.400	-0.050	-0.390	-0.540	88.480	-1.800	-0.200																			1580021570.0	2.43	4.50
26/01/2020 06:52:51	26012020	260120	065251	88.500	12.713572	-57.245360	88.430	-0.070	-0.290	0.130	88.500	-1.700	0.400																			1580021571.0	2.44	4.52
26/01/2020 06:52:52	26012020	260120	065252	88.440	12.713567	-57.245350	88.360	-0.160	-0.080	0.920	88.410	-1.500	1.200																			1580021572.0	2.41	4.46
26/01/2020 06:52:53	26012020	260120	065253	88.240	12.713560	-57.245342	88.160	-0.270	0.040	1.680	88.200	-1.300	2.000																			1580021573.0	2.42	4.48
26/01/2020 06:52:54	26012020	260120	065254	88.070	12.713555	-57.245332	88.010	-0.260	-0.020	2.100	88.050	-1.400	2.500																			1580021574.0	2.43	4.50
26/01/2020 06:52:55	26012020	260120	065255	88.050	12.713552	-57.245320	88.020	-0.110	-0.180	1.990	88.070	-1.500	2.400																			1580021575.0	2.39	4.43
26/01/2020 06:52:56	26012020	260120	065256	88.170	12.713552	-57.245310	88.140	0.100	-0.280	1.400	88.190	-1.600	1.800																			1580021576.0	2.28	4.22
26/01/2020 06:52:57	26012020	260120	065257	88.290	12.713553	-57.245300	88.240	0.280	-0.260	0.600	88.300	-1.600	1.100																			1580021577.0	2.19	4.06
26/01/2020 06:52:58	26012020	260120	065258	88.350	12.713555	-57.245290	88.280	0.380	-0.170	-0.170	88.350	-1.600	0.300																			1580021578.0	2.09	3.87
26/01/2020 06:52:59	26012020	260120	065259	88.330	12.713558	-57.245280	88.210	0.400	-0.140	-0.840	88.330	-1.500	-0.400																			1580021579.0	2.09	3.87
26/01/2020 06:53:00	26012020	260120	065300	88.250	12.713562	-57.245270	88.140	0.310	-0.110	-1.300	88.240	-1.500	-0.900	1013.90	25.60	25.70	20.20	20.20	-1.00	71.00	71.00	425.00	25.40	355.00	7.60	85.00	6.20	15	3211.00	27.40	27.40	1580021580.0	2.15	3.98
26/01/2020 06:53:01	26012020	260120	065301	88.180	12.713563	-57.245262	88.060	0.070	0.050	-1.420	88.180	-1.300	-1.000																			1580021581.0	1.99	3.69
26/01/2020 06:53:02	26012020	260120	065302	88.130	12.713563	-57.245253	88.010	-0.210	0.250	-1.130	88.120	-1.100	-0.800																			1580021582.0	1.71	3.17
26/01/2020 06:53:03	26012020	260120	065303	88.110	12.713560	-57.245245	88.000	-0.370	0.210	-0.580	88.120	-1.200	-0.200																			1580021583.0	1.78	3.30
26/01/2020 06:53:04	26012020	260120	065304	88.190	12.713555	-57.245237	88.090	-0.360	-0.130	0.080	88.210	-1.500	0.400																			1580021584.0	2.19	4.06
26/01/2020 06:53:05	26012020	260120	065305	88.280	12.713550	-57.245225	88.180	-0.280	-0.470	0.850	88.280	-1.800	1.200																			1580021585.0	2.57	4.76
26/01/2020 06:53:06	26012020	260120	065306	88.240	12.713542	-57.245215	88.120	-0.240	-0.470	1.630	88.210	-1.900	2.000																			1580021586.0	2.58	4.78
26/01/2020 06:53:07	26012020	260120	065307	88.110	12.713535	-57.245208	88.010	-0.170	-0.230	2.100	88.090	-1.600	2.500																			1580021587.0	2.20	4.07
26/01/2020 06:53:08	26012020	260120	065308	88.070	12.713532	-57.245200	87.980	0.010	-0.050	2.050	88.070	-1.400	2.500																			1580021588.0	1.76	3.26
26/01/2020 06:53:09	26012020	260120	065309	88.110	12.713530	-57.245193	88.000	0.240	-0.080	1.540	88.120	-1.400	2.000																			1580021589.0	1.67	3.09
26/01/2020 06:53:10	26012020	260120	065310	88.130	12.713533	-57.245183	88.030	0.380	-0.170	0.720	88.130	-1.500	1.200																			1580021590.0	1.90	3.52
26/01/2020 06:53:11	26012020	260120	065311	88.070	12.713537	-57.245175	87.930	0.360	-0.170	-0.200	88.050	-1.500	0.300																			1580021591.0	2.01	3.72
26/01/2020 06:53:12	26012020	260120	065312	87.940	12.713542	-57.245168	87.770	0.240	-0.070	-0.960	87.910	-1.500	-0.500																			1580021592.0	1.91	3.54
26/01/2020 06:53:13	26012020	260120	065313	87.850	12.713545	-57.245162	87.710	0.120	-0.030	-1.430	87.850	-1.400	-1.000																			1580021593.0	1.73	3.20
26/01/2020 06:53:14	26012020	260120	065314	87.880	12.713548	-57.245153	87.770	0.060	-0.090	-1.570	87.900	-1.500	-1.200																			1580021594.0	1.65	3.06
26/01/2020 06:53:15	26012020	260120	065315	87.980	12.713547	-57.245145	87.880	-0.020	-0.190	-1.370	88.000	-1.600	-1.000																			1580021595.0	1.74	3.22
26/01/2020 06:53:16	26012020	260120	065316	88.010	12.713543	-57.245137	87.900	-0.210	-0.150	-0.750	88.000	-1.500	-0.400																			1580021596.0	1.87	3.46
26/01/2020 06:53:17	26012020	260120	065317	87.900	12.713537	-57.245130	87.780	-0.440	0.100	0.180	87.860	-1.300	0.500																			1580021597.0	1.95	3.61
26/01/2020 06:53:18	26012020	260120	065318	87.740	12.713530	-57.245125	87.650	-0.500	0.320	1.120	87.710	-1.100	1.400																			1580021598.0	1.94	3.59
26/01/2020 06:53:19	26012020	260120	065319	87.690	12.713523	-57.245118	87.650	-0.310	0.170	1.740	87.700	-1.200	2.100																			1580021599.0	1.86	3.44
26/01/2020 06:53:20	26012020	260120	065320	87.790	12.713518	-57.245112	87.740	0.010	-0.330	1.940	87.800	-1.600	2.300																			1580021600.0	1.86	3.44
26/01/2020 06:53:21	26012020	260120	065321	87.810	12.713517	-57.245103	87.730	0.260	-0.760	1.840	87.800	-2.100	2.300																			1580021601.0	1.91	3.54
26/01/2020 06:53:22	26012020	260120	065322	87.720	12.713517	-57.245095	87.620	0.330	-0.730	1.490	87.690	-2.100	1.900																			1580021602.0	1.64	3.04
26/01/2020 06:53:23	26012020	260120	065323	87.620	12.713518	-57.245090	87.530	0.280	-0.320	0.970	87.610	-1.700	1.400																			1580021603.0	1.21	2.24
26/01/2020 06:53:24	26012020	260120	065324	87.630	12.713520	-57.245085	87.550	0.230	0.120	0.310	87.640	-1.300	0.800																			1580021604.0	1.06	1.96
26/01/2020 06:53:25	26012020	260120	065325	87.670	12.713523	-57.245080	87.550	0.170	0.340	-0.380	87.670	-1.100	0.100																			1580021605.0	1.16	2.15
26/01/2020 06:53:26	26012020	260120	065326	87.650	12.713527	-57.245075	87.510	0.050	0.300	-0.920	87.640	-1.100	-0.500																			1580021606.0	1.33	2.46
26/01/2020 06:53:27	26012020	260120	065327	87.650	12.713528	-57.245068	87.520	-0.090	0.070	-1.210	87.660	-1.300	-0.800																			1580021607.0	1.38	2.56
26/01/2020 06:53:28	26012020	260120	065328	87.760	12.713528	-57.245062	87.650	-0.160	-0.210	-1.240	87.800	-1.600	-0.800																			1580021608.0	1.41	2.61
26/01/2020 06:53:29	26012020	260120	065329	87.940	12.713527	-57.245055	87.820	-0.150	-0.290	-0.990	87.960	-1.700	-0.600																			1580021609.0	1.38	2.56
26/01/2020 06:53:30	26012020	260120	065330	87.960	12.713523	-57.245050	87.820	-0.130	-0.220	-0.370	87.940	-1.600	-0.000																			1580021610.0	1.36	2.52
26/01/2020 06:53:31	26012020	260120	065331	87.780	12.713518	-57.245045	87.620	-0.100	-0.160	0.500	87.720	-1.500	0.800																			1580021611.0	1.51	2.80
26/01/2020 06:53:32	26012020	260120	065332	87.550	12.713512	-57.245040	87.440	-0.060	-0.220	1.270	87.520	-1.600	1.600																			1580021612.0	1.61	2.98
26/01/2020 06:53:33	26012020	260120	065333	87.460	12.713508	-57.245035	87.370	-0.030	-0.310	1.640	87.460	-1.700	2.000																			1580021613.0	1.52	2.82
26/01/2020 06:53:34	26012020	260120	065334	87.530	12.713507	-57.245028	87.470	-0.030	-0.240	1.670	87.560	-1.600	2.100																			1580021614.0	1.36	2.52
26/01/2020 06:53:35	26012020	260120	065335	87.670	12.713505	-57.245023	87.600	-0.070	0.040	1.530	87.690	-1.400	1.900																			1580021615.0	1.09	2.02
26/01/2020 06:53:36	26012020	260120	065336	87.720	12.713503	-57.245020	87.610	-0.080	0.240	1.180	87.720	-1.200	1.600																			1580021616.0	0.89	1.65
26/01/2020 06:53:37	26012020	260120	065337	87.690	12.713505	-57.245015	87.570	0.020	0.190	0.530	87.690	-1.200	1.000																			1580021617.0	0.99	1.83
26/01/2020 06:53:38	26012020	260120	065338	87.690	12.713507	-57.245008	87.570	0.160	-0.010	-0.270	87.700	-1.400	0.200																			1580021618.0	1.31	2.43
26/01/2020 06:53:39	26012020	260120	065339	87.750	12.713510	-57.245003	87.640	0.260	-0.170	-0.930	87.770	-1.500	-0.500																			1580021619.0	1.41	2.61
26/01/2020 06:53:40	26012020	260120	065340	87.850	12.713513	-57.244998	87.740	0.230	-0.300	-1.370	87.860	-1.700	-0.900																			1580021620.0	1.28	2.37
26/01/2020 06:53:41	26012020	260120	065341	87.880	12.713515	-57.244993	87.750	0.110	-0.380	-1.500	87.870	-1.800	-1.100																			1580021621.0	1.15	2.13
26/01/2020 06:53:42	26012020	260120	065342	87.740	12.713515	-57.244988	87.580	-0.030	-0.360	-1.140	87.690	-1.800	-0.800																			1580021622.0	1.08	2.00
26/01/2020 06:53:43	26012020	260120	065343	87.500	12.713512	-57.244983	87.360	-0.090	-0.270	-0.400	87.460	-1.700	-0.100																			1580021623.0	1.32	2.44
26/01/2020 06:53:44	26012020	260120	065344	87.380	12.713507	-57.244978	87.290	-0.110	-0.160	0.380	87.380	-1.600	0.700																			1580021624.0	1.58	2.93
26/01/2020 06:53:45	26012020	260120	065345	87.450	12.713502	-57.244972	87.400	-0.090	-0.050	0.990	87.470	-1.400	1.300																			1580021625.0	1.62	3.00
26/01/2020 06:53:46	26012020	260120	065346	87.540	12.713497	-57.244967	87.470	-0.070	0.110	1.420	87.560	-1.300	1.800																			1580021626.0	1.52	2.82
26/01/2020 06:53:47	26012020	260120	065347	87.610	12.713493	-57.244962	87.530	-0.090	0.250	1.540	87.620	-1.200	1.900																			1580021627.0	1.27	2.35
26/01/2020 06:53:48	26012020	260120	065348	87.630	12.713492	-57.244958	87.540	-0.100	0.250	1.410	87.620	-1.100	1.800																			1580021628.0	1.03	1.91
26/01/2020 06:53:49	26012020	260120	065349	87.560	12.713492	-57.244953	87.450	-0.080	0.060	1.070	87.560	-1.300	1.500																			1580021629.0	1.04	1.93
26/01/2020 06:53:50	26012020	260120	065350	87.520	12.713492	-57.244947	87.400	-0.020	-0.220	0.540	87.520	-1.600	1.000																			1580021630.0	1.18	2.19
26/01/2020 06:53:51	26012020	260120	065351	87.560	12.713495	-57.244942	87.450	0.010	-0.410	-0.040	87.560	-1.800	0.400																			1580021631.0	1.22	2.26
26/01/2020 06:53:52	26012020	260120	065352	87.600	12.713495	-57.244937	87.480	-0.020	-0.410	-0.500	87.600	-1.800	-0.100																			1580021632.0	1.09	2.02
26/01/2020 06:53:53	26012020	260120	065353	87.580	12.713497	-57.244933	87.450	-0.050	-0.280	-0.820	87.570	-1.700	-0.400																			1580021633.0	0.91	1.69
26/01/2020 06:53:54	26012020	260120	065354	87.470	12.713497	-57.244928	87.310	0.010	-0.180	-0.910	87.440	-1.600	-0.500																			1580021634.0	0.90	1.67
26/01/2020 06:53:55	26012020	260120	065355	87.280	12.713495	-57.244923	87.120	0.190	-0.190	-0.790	87.240	-1.600	-0.400																			1580021635.0	1.09	2.02
26/01/2020 06:53:56	26012020	260120	065356	87.180	12.713495	-57.244918	87.070	0.370	-0.200	-0.600	87.190	-1.600	-0.200																			1580021636.0	1.23	2.28
26/01/2020 06:53:57	26012020	260120	065357	87.300	12.713493	-57.244912	87.240	0.380	-0.040	-0.380	87.350	-1.500	0.000																			1580021637.0	1.16	2.15
26/01/2020 06:53:58	26012020	260120	065358	87.550	12.713492	-57.244908	87.500	0.180	0.190	0.010	87.590	-1.200	0.400																			1580021638.0	0.99	1.83
26/01/2020 06:53:59	26012020	260120	065359	87.710	12.713488	-57.244903	87.650	-0.110	0.300	0.540	87.730	-1.100	0.900																			1580021639.0	1.08	2.00
26/01/2020 06:54:00	26012020	260120	065400	87.740	12.713485	-57.244900	87.640	-0.320	0.200	1.110	87.720	-1.200	1.500	1013.90	25.60	25.70	20.10	20.20	-1.00	71.00	71.00	424.00	25.40	360.00	6.90	88.00	6.10	15	3166.00	27.40	27.40	1580021640.0	1.27	2.35
26/01/2020 06:54:01	26012020	260120	065401	87.620	12.713480	-57.244895	87.520	-0.370	-0.050	1.670	87.580	-1.400	2.000																			1580021641.0	1.44	2.67
26/01/2020 06:54:02	26012020	260120	065402	87.500	12.713477	-57.244888	87.430	-0.300	-0.340	2.050	87.490	-1.700	2.400																			1580021642.0	1.51	2.80
26/01/2020 06:54:03	26012020	260120	065403	87.490	12.713473	-57.244883	87.430	-0.170	-0.540	2.080	87.500	-1.900	2.500																			1580021643.0	1.38	2.56
26/01/2020 06:54:04	26012020	260120	065404	87.520	12.713472	-57.244878	87.440	0.000	-0.570	1.750	87.510	-2.000	2.200																			1580021644.0	1.10	2.04
26/01/2020 06:54:05	26012020	260120	065405	87.450	12.713472	-57.244873	87.330	0.170	-0.430	1.170	87.420	-1.800	1.600																			1580021645.0	0.90	1.67
26/01/2020 06:54:06	26012020	260120	065406	87.320	12.713473	-57.244870	87.190	0.280	-0.200	0.390	87.300	-1.600	0.900																			1580021646.0	0.96	1.78
26/01/2020 06:54:07	26012020	260120	065407	87.300	12.713478	-57.244867	87.160	0.290	0.070	-0.530	87.320	-1.400	-0.000																			1580021647.0	1.22	2.26
26/01/2020 06:54:08	26012020	260120	065408	87.480	12.713483	-57.244863	87.370	0.210	0.320	-1.440	87.550	-1.100	-0.900																			1580021648.0	1.36	2.52
26/01/2020 06:54:09	26012020	260120	065409	87.810	12.713488	-57.244860	87.690	0.070	0.450	-1.950	87.870	-1.000	-1.500																			1580021649.0	1.16	2.15
26/01/2020 06:54:10	26012020	260120	065410	88.040	12.713490	-57.244857	87.890	-0.090	0.340	-1.810	88.060	-1.000	-1.400																			1580021650.0	0.71	1.31
26/01/2020 06:54:11	26012020	260120	065411	88.070	12.713487	-57.244853	87.920	-0.170	-0.040	-1.090	88.060	-1.400	-0.800																			1580021651.0	1.02	1.89
26/01/2020 06:54:12	26012020	260120	065412	88.010	12.713482	-57.244848	87.880	-0.150	-0.480	-0.030	88.000	-1.800	0.300																			1580021652.0	1.57	2.91
26/01/2020 06:54:13	26012020	260120	065413	87.910	12.713473	-57.244843	87.810	-0.040	-0.760	1.170	87.880	-2.100	1.500																			1580021653.0	1.85	3.43
26/01/2020 06:54:14	26012020	260120	065414	87.800	12.713467	-57.244838	87.740	0.080	-0.820	2.250	87.790	-2.200	2.600																			1580021654.0	1.86	3.44
26/01/2020 06:54:15	26012020	260120	065415	87.820	12.713460	-57.244835	87.790	0.170	-0.640	2.830	87.840	-2.100	3.200																			1580021655.0	1.55	2.87
26/01/2020 06:54:16	26012020	260120	065416	88.000	12.713457	-57.244832	87.970	0.160	-0.190	2.760	88.050	-1.600	3.200																			1580021656.0	0.95	1.76
26/01/2020 06:54:17	26012020	260120	065417	88.290	12.713458	-57.244830	88.250	0.010	0.400	2.110	88.340	-1.000	2.600																			1580021657.0	0.40	0.74
26/01/2020 06:54:18	26012020	260120	065418	88.590	12.713460	-57.244828	88.520	-0.230	0.820	1.160	88.640	-0.600	1.700																			1580021658.0	0.64	1.19
26/01/2020 06:54:19	26012020	260120	065419	88.830	12.713465	-57.244828	88.750	-0.390	0.800	0.190	88.870	-0.600	0.700																			1580021659.0	0.86	1.59
26/01/2020 06:54:20	26012020	260120	065420	89.010	12.713468	-57.244825	88.900	-0.300	0.310	-0.660	89.040	-1.000	-0.200																			1580021660.0	0.95	1.76
26/01/2020 06:54:21	26012020	260120	065421	89.130	12.713470	-57.244822	88.990	0.020	-0.430	-1.290	89.150	-1.800	-0.800																			1580021661.0	1.09	2.02
26/01/2020 06:54:22	26012020	260120	065422	89.170	12.713473	-57.244817	89.010	0.420	-1.070	-1.580	89.170	-2.400	-1.200																			1580021662.0	1.17	2.17
26/01/2020 06:54:23	26012020	260120	065423	89.110	12.713475	-57.244812	88.940	0.640	-1.260	-1.410	89.090	-2.700	-1.000																			1580021663.0	1.00	1.85
26/01/2020 06:54:24	26012020	260120	065424	89.040	12.713475	-57.244808	88.910	0.530	-0.870	-0.880	89.060	-2.300	-0.500																			1580021664.0	0.63	1.17
26/01/2020 06:54:25	26012020	260120	065425	89.150	12.713472	-57.244808	89.080	0.140	-0.050	-0.140	89.190	-1.500	0.200																			1580021665.0	0.56	1.04
26/01/2020 06:54:26	26012020	260120	065426	89.370	12.713467	-57.244808	89.330	-0.370	0.790	0.840	89.420	-0.700	1.200																			1580021666.0	1.08	2.00
26/01/2020 06:54:27	26012020	260120	065427	89.560	12.713460	-57.244808	89.530	-0.760	1.180	1.840	89.560	-0.200	2.200																			1580021667.0	1.53	2.83
26/01/2020 06:54:28	26012020	260120	065428	89.730	12.713453	-57.244808	89.710	-0.830	0.820	2.470	89.760	-0.500	2.800																			1580021668.0	1.50	2.78
26/01/2020 06:54:29	26012020	260120	065429	89.900	12.713448	-57.244803	89.860	-0.500	-0.090	2.580	89.900	-1.400	3.000																			1580021669.0	1.29	2.39
26/01/2020 06:54:30	26012020	260120	065430	89.970	12.713447	-57.244798	89.920	0.050	-0.970	2.320	89.970	-2.300	2.800																			1580021670.0	1.25	2.31
26/01/2020 06:54:31	26012020	260120	065431	89.970	12.713448	-57.244793	89.910	0.520	-1.280	1.760	89.970	-2.700	2.200																			1580021671.0	1.08	2.00
26/01/2020 06:54:32	26012020	260120	065432	89.950	12.713450	-57.244790	89.860	0.670	-0.850	1.020	89.940	-2.300	1.500																			1580021672.0	0.82	1.52
26/01/2020 06:54:33	26012020	260120	065433	89.900	12.713455	-57.244790	89.780	0.470	-0.050	0.190	89.890	-1.500	0.700																			1580021673.0	0.96	1.78
26/01/2020 06:54:34	26012020	260120	065434	89.900	12.713460	-57.244792	89.790	0.110	0.590	-0.750	89.910	-0.900	-0.200																			1580021674.0	1.18	2.19
26/01/2020 06:54:35	26012020	260120	065435	90.030	12.713467	-57.244792	89.920	-0.160	0.660	-1.680	90.080	-0.700	-1.200																			1580021675.0	1.27	2.35
26/01/2020 06:54:36	26012020	260120	065436	90.270	12.713472	-57.244788	90.130	-0.210	0.230	-2.250	90.320	-1.100	-1.800																			1580021676.0	1.20	2.22
26/01/2020 06:54:37	26012020	260120	065437	90.480	12.713473	-57.244785	90.320	-0.100	-0.260	-2.160	90.510	-1.600	-1.800																			1580021677.0	0.99	1.83
26/01/2020 06:54:38	26012020	260120	065438	90.570	12.713470	-57.244780	90.410	-0.020	-0.460	-1.460	90.580	-1.900	-1.100																			1580021678.0	0.96	1.78
26/01/2020 06:54:39	26012020	260120	065439	90.590	12.713465	-57.244778	90.430	-0.050	-0.340	-0.450	90.590	-1.800	-0.100																			1580021679.0	1.09	2.02
26/01/2020 06:54:40	26012020	260120	065440	90.540	12.713460	-57.244778	90.370	-0.140	-0.150	0.670	90.520	-1.600	1.000																			1580021680.0	1.23	2.28
26/01/2020 06:54:41	26012020	260120	065441	90.440	12.713453	-57.244777	90.310	-0.180	-0.100	1.740	90.440	-1.500	2.100																			1580021681.0	1.36	2.52
26/01/2020 06:54:42	26012020	260120	065442	90.450	12.713447	-57.244775	90.390	-0.120	-0.210	2.520	90.470	-1.600	2.900																			1580021682.0	1.44	2.67
26/01/2020 06:54:43	26012020	260120	065443	90.600	12.713442	-57.244772	90.580	-0.030	-0.300	2.800	90.630	-1.700	3.200																			1580021683.0	1.21	2.24
26/01/2020 06:54:44	26012020	260120	065444	90.730	12.713440	-57.244770	90.690	-0.000	-0.260	2.510	90.740	-1.700	2.900																			1580021684.0	0.66	1.22
26/01/2020 06:54:45	26012020	260120	065445	90.750	12.713442	-57.244767	90.690	-0.010	-0.100	1.740	90.750	-1.500	2.200																			1580021685.0	0.56	1.04
26/01/2020 06:54:46	26012020	260120	065446	90.740	12.713447	-57.244767	90.650	0.030	0.100	0.710	90.740	-1.300	1.200																			1580021686.0	0.94	1.74
26/01/2020 06:54:47	26012020	260120	065447	90.760	12.713452	-57.244765	90.650	0.110	0.280	-0.400	90.780	-1.100	0.100																			1580021687.0	1.19	2.20
26/01/2020 06:54:48	26012020	260120	065448	90.880	12.713458	-57.244763	90.770	0.160	0.350	-1.400	90.920	-1.100	-0.900																			1580021688.0	1.28	2.37
26/01/2020 06:54:49	26012020	260120	065449	91.080	12.713463	-57.244763	90.930	0.140	0.150	-2.110	91.120	-1.200	-1.600																			1580021689.0	1.17	2.17
26/01/2020 06:54:50	26012020	260120	065450	91.220	12.713467	-57.244760	91.040	0.110	-0.280	-2.350	91.240	-1.600	-1.900																			1580021690.0	0.89	1.65
26/01/2020 06:54:51	26012020	260120	065451	91.260	12.713467	-57.244758	91.060	0.110	-0.670	-2.030	91.250	-2.100	-1.700																			1580021691.0	0.61	1.13
26/01/2020 06:54:52	26012020	260120	065452	91.180	12.713465	-57.244757	91.000	0.100	-0.740	-1.080	91.150	-2.200	-0.800																			1580021692.0	0.73	1.35
26/01/2020 06:54:53	26012020	260120	065453	91.040	12.713458	-57.244755	90.890	0.070	-0.530	0.190	91.040	-2.000	0.500																			1580021693.0	1.25	2.31
26/01/2020 06:54:54	26012020	260120	065454	90.990	12.713452	-57.244755	90.890	-0.010	-0.260	1.380	90.990	-1.700	1.700																			1580021694.0	1.49	2.76
26/01/2020 06:54:55	26012020	260120	065455	91.020	12.713445	-57.244755	90.960	-0.110	-0.040	2.340	91.030	-1.500	2.700																			1580021695.0	1.43	2.65
26/01/2020 06:54:56	26012020	260120	065456	91.040	12.713440	-57.244755	90.980	-0.240	0.170	2.960	91.040	-1.300	3.300																			1580021696.0	1.25	2.31
26/01/2020 06:54:57	26012020	260120	065457	91.030	12.713435	-57.244755	90.980	-0.330	0.340	3.030	91.030	-1.100	3.400																			1580021697.0	0.83	1.54
26/01/2020 06:54:58	26012020	260120	065458	91.050	12.713435	-57.244755	91.020	-0.280	0.290	2.500	91.070	-1.100	3.000																			1580021698.0	0.15	0.28
26/01/2020 06:54:59	26012020	260120	065459	91.150	12.713438	-57.244753	91.110	-0.050	0.030	1.490	91.170	-1.400	2.000																			1580021699.0	0.57	1.06
26/01/2020 06:55:00	26012020	260120	065500	91.240	12.713442	-57.244753	91.150	0.250	-0.200	0.290	91.250	-1.600	0.800	1013.90	25.60	25.70	20.10	20.10	-1.00	71.00	71.00	422.00	25.40	359.00	6.10	88.00	5.60	15	3214.00	27.40	27.40	1580021700.0	1.10	2.04
26/01/2020 06:55:01	26012020	260120	065501	91.240	12.713448	-57.244752	91.100	0.470	-0.250	-0.890	91.230	-1.700	-0.400																			1580021701.0	1.44	2.67
26/01/2020 06:55:02	26012020	260120	065502	91.170	12.713457	-57.244752	90.990	0.480	-0.180	-1.750	91.140	-1.600	-1.300																			1580021702.0	1.52	2.82
26/01/2020 06:55:03	26012020	260120	065503	90.990	12.713462	-57.244753	90.780	0.270	-0.100	-2.040	90.950	-1.500	-1.600																			1580021703.0	1.14	2.11
26/01/2020 06:55:04	26012020	260120	065504	90.780	12.713463	-57.244753	90.560	-0.030	-0.170	-1.800	90.740	-1.600	-1.400																			1580021704.0	0.47	0.87
26/01/2020 06:55:05	26012020	260120	065505	90.600	12.713462	-57.244753	90.400	-0.280	-0.360	-1.130	90.600	-1.800	-0.800																			1580021705.0	0.26	0.48
26/01/2020 06:55:06	26012020	260120	065506	90.390	12.713458	-57.244753	90.190	-0.380	-0.540	-0.070	90.350	-1.900	0.200																			1580021706.0	0.99	1.83
26/01/2020 06:55:07	26012020	260120	065507	90.140	12.713450	-57.244752	89.980	-0.390	-0.450	1.130	90.100	-1.900	1.400																			1580021707.0	1.57	2.91
26/01/2020 06:55:08	26012020	260120	065508	89.960	12.713443	-57.244752	89.850	-0.340	-0.110	2.120	89.940	-1.600	2.400																			1580021708.0	1.71	3.17
26/01/2020 06:55:09	26012020	260120	065509	89.950	12.713437	-57.244752	89.880	-0.220	0.250	2.480	89.970	-1.200	2.900																			1580021709.0	1.33	2.46
26/01/2020 06:55:10	26012020	260120	065510	90.130	12.713435	-57.244753	90.090	-0.030	0.440	2.100	90.180	-1.000	2.600																			1580021710.0	0.43	0.80
26/01/2020 06:55:11	26012020	260120	065511	90.340	12.713437	-57.244753	90.240	0.220	0.380	1.310	90.350	-1.000	1.800																			1580021711.0	0.53	0.98
26/01/2020 06:55:12	26012020	260120	065512	90.290	12.713442	-57.244752	90.120	0.460	0.060	0.540	90.240	-1.300	1.000																			1580021712.0	1.04	1.93
26/01/2020 06:55:13	26012020	260120	065513	90.030	12.713447	-57.244750	89.840	0.550	-0.370	-0.140	89.980	-1.700	0.300																			1580021713.0	1.22	2.26
26/01/2020 06:55:14	26012020	260120	065514	89.840	12.713453	-57.244748	89.660	0.430	-0.630	-0.740	89.820	-2.000	-0.300																			1580021714.0	1.21	2.24
26/01/2020 06:55:15	26012020	260120	065515	89.810	12.713457	-57.244748	89.680	0.130	-0.520	-1.100	89.820	-1.900	-0.700																			1580021715.0	0.92	1.70
26/01/2020 06:55:16	26012020	260120	065516	89.870	12.713458	-57.244748	89.730	-0.180	-0.210	-1.040	89.870	-1.600	-0.700																			1580021716.0	0.41	0.76
26/01/2020 06:55:17	26012020	260120	065517	89.850	12.713457	-57.244750	89.690	-0.400	0.050	-0.520	89.850	-1.400	-0.200																			1580021717.0	0.40	0.74
26/01/2020 06:55:18	26012020	260120	065518	89.750	12.713453	-57.244750	89.600	-0.490	0.160	0.190	89.740	-1.300	0.500																			1580021718.0	0.92	1.70
26/01/2020 06:55:19	26012020	260120	065519	89.690	12.713447	-57.244750	89.580	-0.450	0.160	0.840	89.690	-1.200	1.200																			1580021719.0	1.14	2.11
26/01/2020 06:55:20	26012020	260120	065520	89.700	12.713443	-57.244750	89.600	-0.290	0.050	1.320	89.700	-1.300	1.700																			1580021720.0	1.02	1.89
26/01/2020 06:55:21	26012020	260120	065521	89.700	12.713440	-57.244748	89.610	-0.030	-0.170	1.640	89.690	-1.600	2.000																			1580021721.0	0.70	1.30
26/01/2020 06:55:22	26012020	260120	065522	89.680	12.713438	-57.244747	89.610	0.230	-0.390	1.710	89.680	-1.800	2.100																			1580021722.0	0.39	0.72
26/01/2020 06:55:23	26012020	260120	065523	89.710	12.713440	-57.244747	89.650	0.360	-0.420	1.430	89.730	-1.800	1.900																			1580021723.0	0.33	0.61
26/01/2020 06:55:24	26012020	260120	065524	89.750	12.713442	-57.244747	89.660	0.310	-0.260	0.930	89.750	-1.700	1.400																			1580021724.0	0.61	1.13
26/01/2020 06:55:25	26012020	260120	065525	89.690	12.713447	-57.244747	89.580	0.200	-0.050	0.450	89.670	-1.500	0.900																			1580021725.0	0.81	1.50
26/01/2020 06:55:26	26012020	260120	065526	89.570	12.713450	-57.244747	89.440	0.090	0.080	0.180	89.540	-1.300	0.600																			1580021726.0	0.66	1.22
26/01/2020 06:55:27	26012020	260120	065527	89.450	12.713452	-57.244747	89.320	0.020	0.140	0.040	89.420	-1.300	0.500																			1580021727.0	0.39	0.72
26/01/2020 06:55:28	26012020	260120	065528	89.360	12.713452	-57.244747	89.250	-0.010	0.100	-0.050	89.350	-1.300	0.400																			1580021728.0	0.27	0.50
26/01/2020 06:55:29	26012020	260120	065529	89.340	12.713453	-57.244745	89.240	-0.010	-0.020	-0.080	89.340	-1.400	0.300																			1580021729.0	0.21	0.39
26/01/2020 06:55:30	26012020	260120	065530	89.350	12.713453	-57.244745	89.250	0.000	-0.210	0.060	89.350	-1.600	0.400																			1580021730.0	0.14	0.26
26/01/2020 06:55:31	26012020	260120	065531	89.310	12.713452	-57.244745	89.200	0.020	-0.390	0.380	89.310	-1.800	0.700																			1580021731.0	0.26	0.48
26/01/2020 06:55:32	26012020	260120	065532	89.130	12.713452	-57.244743	89.010	0.040	-0.450	0.880	89.080	-1.900	1.200																			1580021732.0	0.32	0.59
26/01/2020 06:55:33	26012020	260120	065533	88.850	12.713450	-57.244743	88.720	-0.000	-0.310	1.430	88.790	-1.700	1.800																			1580021733.0	0.36	0.67
26/01/2020 06:55:34	26012020	260120	065534	88.570	12.713448	-57.244743	88.460	-0.150	-0.060	1.850	88.520	-1.500	2.200																			1580021734.0	0.40	0.74
26/01/2020 06:55:35	26012020	260120	065535	88.410	12.713447	-57.244743	88.330	-0.330	0.130	1.970	88.400	-1.300	2.400																			1580021735.0	0.35	0.65
26/01/2020 06:55:36	26012020	260120	065536	88.390	12.713445	-57.244743	88.310	-0.390	0.170	1.780	88.390	-1.200	2.200																			1580021736.0	0.16	0.30
26/01/2020 06:55:37	26012020	260120	065537	88.350	12.713447	-57.244743	88.220	-0.180	0.050	1.380	88.320	-1.300	1.800																			1580021737.0	0.23	0.43
26/01/2020 06:55:38	26012020	260120	065538	88.150	12.713450	-57.244742	87.980	0.190	-0.150	0.890	88.110	-1.500	1.300																			1580021738.0	0.68	1.26
26/01/2020 06:55:39	26012020	260120	065539	87.900	12.713455	-57.244742	87.730	0.470	-0.280	0.330	87.860	-1.700	0.800																			1580021739.0	1.04	1.93
26/01/2020 06:55:40	26012020	260120	065540	87.740	12.713460	-57.244740	87.570	0.510	-0.290	-0.210	87.730	-1.700	0.200																			1580021740.0	1.21	2.24
26/01/2020 06:55:41	26012020	260120	065541	87.650	12.713465	-57.244742	87.480	0.310	-0.140	-0.530	87.630	-1.600	-0.100																			1580021741.0	1.12	2.07
26/01/2020 06:55:42	26012020	260120	065542	87.470	12.713468	-57.244742	87.280	0.050	0.030	-0.410	87.410	-1.400	-0.000																			1580021742.0	0.73	1.35
26/01/2020 06:55:43	26012020	260120	065543	87.190	12.713468	-57.244743	87.000	-0.150	0.020	0.040	87.130	-1.400	0.400																			1580021743.0	0.16	0.30
26/01/2020 06:55:44	26012020	260120	065544	86.920	12.713467	-57.244742	86.750	-0.270	-0.160	0.600	86.870	-1.500	1.000																			1580021744.0	0.35	0.65
26/01/2020 06:55:45	26012020	260120	065545	86.740	12.713465	-57.244740	86.610	-0.310	-0.310	1.080	86.720	-1.700	1.400																			1580021745.0	0.56	1.04
26/01/2020 06:55:46	26012020	260120	065546	86.670	12.713463	-57.244740	86.560	-0.300	-0.280	1.420	86.660	-1.700	1.800																			1580021746.0	0.52	0.96
26/01/2020 06:55:47	26012020	260120	065547	86.590	12.713462	-57.244740	86.460	-0.190	-0.160	1.620	86.570	-1.600	2.000																			1580021747.0	0.35	0.65
26/01/2020 06:55:48	26012020	260120	065548	86.390	12.713462	-57.244740	86.220	0.020	-0.110	1.620	86.330	-1.500	2.000																			1580021748.0	0.05	0.09
26/01/2020 06:55:49	26012020	260120	065549	86.080	12.713463	-57.244738	85.900	0.220	-0.110	1.310	86.020	-1.500	1.800																			1580021749.0	0.51	0.94
26/01/2020 06:55:50	26012020	260120	065550	85.850	12.713468	-57.244738	85.690	0.250	-0.010	0.810	85.820	-1.400	1.300																			1580021750.0	0.97	1.80
26/01/2020 06:55:51	26012020	260120	065551	85.770	12.713473	-57.244740	85.620	0.090	0.150	0.250	85.770	-1.300	0.700																			1580021751.0	1.13	2.09
26/01/2020 06:55:52	26012020	260120	065552	85.780	12.713478	-57.244740	85.640	-0.100	0.190	-0.270	85.780	-1.200	0.200																			1580021752.0	1.10	2.04
26/01/2020 06:55:53	26012020	260120	065553	85.750	12.713482	-57.244740	85.590	-0.130	-0.060	-0.630	85.740	-1.400	-0.200																			1580021753.0	0.96	1.78
26/01/2020 06:55:54	26012020	260120	065554	85.670	12.713485	-57.244738	85.510	-0.000	-0.450	-0.760	85.650	-1.800	-0.400																			1580021754.0	0.77	1.43
26/01/2020 06:55:55	26012020	260120	065555	85.600	12.713488	-57.244737	85.460	0.110	-0.620	-0.610	85.580	-2.000	-0.200																			1580021755.0	0.55	1.02
26/01/2020 06:55:56	26012020	260120	065556	85.500	12.713487	-57.244737	85.360	0.070	-0.330	-0.120	85.480	-1.800	0.200																			1580021756.0	0.12	0.22
26/01/2020 06:55:57	26012020	260120	065557	85.340	12.713485	-57.244738	85.210	-0.080	0.180	0.510	85.300	-1.300	0.900																			1580021757.0	0.51	0.94
26/01/2020 06:55:58	26012020	260120	065558	85.180	12.713483	-57.244740	85.080	-0.200	0.420	0.970	85.160	-1.000	1.300																			1580021758.0	0.56	1.04
26/01/2020 06:55:59	26012020	260120	065559	85.100	12.713483	-57.244740	85.000	-0.210	0.170	1.120	85.090	-1.200	1.500																			1580021759.0	0.06	0.11
26/01/2020 06:56:00	26012020	260120	065600	85.060	12.713485	-57.244738	84.980	-0.130	-0.320	1.140	85.060	-1.700	1.500	1013.90	25.60	25.60	20.00	20.00	-1.00	71.00	71.00	422.00	25.40	1.00	5.50	90.00	5.20	15	3226.00	27.40	27.40	1580021760.0	0.46	0.85
26/01/2020 06:56:01	26012020	260120	065601	85.050	12.713487	-57.244735	84.980	-0.020	-0.620	1.070	85.050	-2.000	1.500																			1580021761.0	0.61	1.13
26/01/2020 06:56:02	26012020	260120	065602	85.070	12.713488	-57.244735	84.990	0.070	-0.500	0.820	85.070	-1.900	1.300																			1580021762.0	0.46	0.85
26/01/2020 06:56:03	26012020	260120	065603	85.030	12.713490	-57.244735	84.940	0.140	-0.130	0.450	85.010	-1.600	0.900																			1580021763.0	0.62	1.15
26/01/2020 06:56:04	26012020	260120	065604	84.930	12.713495	-57.244737	84.830	0.190	0.120	0.070	84.910	-1.300	0.500																			1580021764.0	0.78	1.44
26/01/2020 06:56:05	26012020	260120	065605	84.890	12.713498	-57.244737	84.790	0.210	0.050	-0.280	84.890	-1.300	0.200																			1580021765.0	0.81	1.50
26/01/2020 06:56:06	26012020	260120	065606	84.950	12.713502	-57.244737	84.860	0.110	-0.030	-0.560	84.960	-1.400	-0.100																			1580021766.0	0.91	1.69
26/01/2020 06:56:07	26012020	260120	065607	84.990	12.713505	-57.244737	84.890	-0.130	0.110	-0.630	84.990	-1.300	-0.200																			1580021767.0	0.78	1.44
26/01/2020 06:56:08	26012020	260120	065608	84.980	12.713508	-57.244738	84.860	-0.370	0.320	-0.500	84.970	-1.100	-0.100																			1580021768.0	0.54	1.00
26/01/2020 06:56:09	26012020	260120	065609	84.920	12.713508	-57.244738	84.800	-0.410	0.140	-0.180	84.910	-1.200	0.200																			1580021769.0	0.28	0.52
26/01/2020 06:56:10	26012020	260120	065610	84.820	12.713507	-57.244738	84.700	-0.140	-0.520	0.260	84.790	-1.900	0.600																			1580021770.0	0.40	0.74
26/01/2020 06:56:11	26012020	260120	065611	84.740	12.713505	-57.244733	84.660	0.220	-1.090	0.680	84.730	-2.500	1.000																			1580021771.0	0.89	1.65
26/01/2020 06:56:12	26012020	260120	065612	84.740	12.713503	-57.244732	84.700	0.380	-0.880	0.970	84.750	-2.300	1.400																			1580021772.0	0.61	1.13
26/01/2020 06:56:13	26012020	260120	065613	84.830	12.713505	-57.244732	84.790	0.260	0.020	0.980	84.850	-1.500	1.400																			1580021773.0	0.31	0.57
26/01/2020 06:56:14	26012020	260120	065614	84.950	12.713507	-57.244737	84.910	-0.020	0.890	0.650	84.970	-0.600	1.100																			1580021774.0	1.02	1.89
26/01/2020 06:56:15	26012020	260120	065615	85.020	12.713510	-57.244740	84.950	-0.200	1.010	0.130	85.020	-0.400	0.600																			1580021775.0	1.16	2.15
26/01/2020 06:56:16	26012020	260120	065616	84.970	12.713515	-57.244740	84.860	-0.140	0.280	-0.230	84.950	-1.000	0.200																			1580021776.0	1.09	2.02
26/01/2020 06:56:17	26012020	260120	065617	84.860	12.713520	-57.244737	84.760	0.060	-0.710	-0.350	84.840	-2.000	0.100																			1580021777.0	1.13	2.09
26/01/2020 06:56:18	26012020	260120	065618	84.820	12.713522	-57.244733	84.740	0.180	-1.250	-0.340	84.830	-2.600	0.100																			1580021778.0	0.96	1.78
26/01/2020 06:56:19	26012020	260120	065619	84.890	12.713523	-57.244732	84.830	0.110	-1.080	-0.280	84.890	-2.500	0.100																			1580021779.0	0.41	0.76
26/01/2020 06:56:20	26012020	260120	065620	85.000	12.713523	-57.244733	84.920	-0.110	-0.360	-0.120	85.010	-1.800	0.300																			1580021780.0	0.25	0.46
26/01/2020 06:56:21	26012020	260120	065621	85.030	12.713522	-57.244735	84.950	-0.270	0.450	0.150	85.030	-1.000	0.500																			1580021781.0	0.66	1.22
26/01/2020 06:56:22	26012020	260120	065622	85.050	12.713520	-57.244738	84.970	-0.260	0.920	0.370	85.050	-0.500	0.800																			1580021782.0	0.64	1.19
26/01/2020 06:56:23	26012020	260120	065623	85.090	12.713520	-57.244740	85.030	-0.070	0.830	0.400	85.110	-0.600	0.800																			1580021783.0	0.22	0.41
26/01/2020 06:56:24	26012020	260120	065624	85.210	12.713522	-57.244738	85.170	0.160	0.320	0.240	85.240	-1.000	0.700																			1580021784.0	0.50	0.93
26/01/2020 06:56:25	26012020	260120	065625	85.370	12.713525	-57.244737	85.310	0.330	-0.370	0.020	85.400	-1.700	0.400																			1580021785.0	0.90	1.67
26/01/2020 06:56:26	26012020	260120	065626	85.450	12.713530	-57.244735	85.350	0.390	-0.970	-0.060	85.440	-2.300	0.300																			1580021786.0	0.95	1.76
26/01/2020 06:56:27	26012020	260120	065627	85.340	12.713532	-57.244733	85.220	0.360	-1.210	0.170	85.300	-2.600	0.500																			1580021787.0	0.61	1.13
26/01/2020 06:56:28	26012020	260120	065628	85.110	12.713532	-57.244733	84.980	0.210	-0.930	0.550	85.070	-2.400	0.900																			1580021788.0	0.19	0.35
26/01/2020 06:56:29	26012020	260120	065629	84.990	12.713532	-57.244733	84.900	-0.060	-0.150	0.810	84.990	-1.600	1.200																			1580021789.0	0.26	0.48
26/01/2020 06:56:30	26012020	260120	065630	85.090	12.713530	-57.244737	85.060	-0.370	0.720	0.830	85.140	-0.800	1.200																			1580021790.0	0.60	1.11
26/01/2020 06:56:31	26012020	260120	065631	85.410	12.713530	-57.244740	85.400	-0.520	1.100	0.560	85.500	-0.300	1.000																			1580021791.0	0.61	1.13
26/01/2020 06:56:32	26012020	260120	065632	85.800	12.713532	-57.244740	85.760	-0.410	0.760	0.070	85.860	-0.600	0.500																			1580021792.0	0.36	0.67
26/01/2020 06:56:33	26012020	260120	065633	86.060	12.713535	-57.244738	85.980	-0.110	-0.040	-0.470	86.090	-1.400	-0.000																			1580021793.0	0.71	1.31
26/01/2020 06:56:34	26012020	260120	065634	86.160	12.713538	-57.244737	86.010	0.200	-0.710	-0.790	86.160	-2.100	-0.400																			1580021794.0	0.90	1.67
26/01/2020 06:56:35	26012020	260120	065635	86.130	12.713540	-57.244735	85.990	0.390	-0.850	-0.780	86.120	-2.300	-0.400																			1580021795.0	0.59	1.09
26/01/2020 06:56:36	26012020	260120	065636	86.070	12.713542	-57.244737	85.940	0.440	-0.630	-0.520	86.060	-2.100	-0.200																			1580021796.0	0.37	0.69
26/01/2020 06:56:37	26012020	260120	065637	86.060	12.713543	-57.244737	85.960	0.380	-0.360	-0.280	86.070	-1.800	0.100																			1580021797.0	0.35	0.65
26/01/2020 06:56:38	26012020	260120	065638	86.160	12.713543	-57.244738	86.090	0.210	-0.200	-0.100	86.190	-1.600	0.300																			1580021798.0	0.18	0.33
26/01/2020 06:56:39	26012020	260120	065639	86.330	12.713543	-57.244738	86.260	-0.020	-0.030	0.220	86.360	-1.500	0.600																			1580021799.0	0.03	0.06
26/01/2020 06:56:40	26012020	260120	065640	86.470	12.713542	-57.244738	86.420	-0.250	0.270	0.650	86.500	-1.200	1.000																			1580021800.0	0.33	0.61
26/01/2020 06:56:41	26012020	260120	065641	86.590	12.713540	-57.244740	86.560	-0.370	0.490	0.950	86.620	-0.900	1.300																			1580021801.0	0.54	1.00
26/01/2020 06:56:42	26012020	260120	065642	86.720	12.713538	-57.244740	86.660	-0.320	0.380	1.020	86.740	-1.000	1.400																			1580021802.0	0.36	0.67
26/01/2020 06:56:43	26012020	260120	065643	86.820	12.713538	-57.244740	86.760	-0.110	-0.060	0.970	86.850	-1.400	1.400																			1580021803.0	0.13	0.24
26/01/2020 06:56:44	26012020	260120	065644	86.940	12.713538	-57.244738	86.860	0.140	-0.490	0.820	86.960	-1.900	1.200																			1580021804.0	0.40	0.74
26/01/2020 06:56:45	26012020	260120	065645	86.990	12.713540	-57.244737	86.880	0.300	-0.620	0.610	86.990	-2.000	1.000																			1580021805.0	0.49	0.91
26/01/2020 06:56:46	26012020	260120	065646	86.940	12.713543	-57.244738	86.790	0.300	-0.430	0.360	86.920	-1.900	0.800																			1580021806.0	0.63	1.17
26/01/2020 06:56:47	26012020	260120	065647	86.880	12.713547	-57.244740	86.750	0.140	-0.060	0.100	86.870	-1.500	0.500																			1580021807.0	0.73	1.35
26/01/2020 06:56:48	26012020	260120	065648	86.870	12.713548	-57.244742	86.730	-0.050	0.210	-0.120	86.870	-1.200	0.300																			1580021808.0	0.67	1.24
26/01/2020 06:56:49	26012020	260120	065649	86.860	12.713550	-57.244743	86.710	-0.120	0.190	-0.260	86.860	-1.200	0.200																			1580021809.0	0.42	0.78
26/01/2020 06:56:50	26012020	260120	065650	86.820	12.713552	-57.244742	86.670	-0.010	-0.120	-0.290	86.800	-1.500	0.100																			1580021810.0	0.24	0.44
26/01/2020 06:56:51	26012020	260120	065651	86.690	12.713552	-57.244740	86.540	0.170	-0.460	-0.230	86.670	-1.900	0.200																			1580021811.0	0.37	0.69
26/01/2020 06:56:52	26012020	260120	065652	86.570	12.713553	-57.244740	86.420	0.260	-0.530	-0.140	86.560	-2.000	0.300																			1580021812.0	0.34	0.63
26/01/2020 06:56:53	26012020	260120	065653	86.570	12.713553	-57.244740	86.450	0.140	-0.220	-0.050	86.580	-1.700	0.300																			1580021813.0	0.14	0.26
26/01/2020 06:56:54	26012020	260120	065654	86.650	12.713553	-57.244742	86.540	-0.150	0.280	0.010	86.670	-1.200	0.400																			1580021814.0	0.40	0.74
26/01/2020 06:56:55	26012020	260120	065655	86.720	12.713553	-57.244743	86.610	-0.420	0.550	0.060	86.720	-0.900	0.400																			1580021815.0	0.54	1.00
26/01/2020 06:56:56	26012020	260120	065656	86.700	12.713553	-57.244745	86.580	-0.450	0.290	0.170	86.690	-1.100	0.500																			1580021816.0	0.29	0.54
26/01/2020 06:56:57	26012020	260120	065657	86.620	12.713552	-57.244743	86.500	-0.190	-0.290	0.300	86.620	-1.700	0.700																			1580021817.0	0.31	0.57
26/01/2020 06:56:58	26012020	260120	065658	86.560	12.713552	-57.244742	86.450	0.150	-0.630	0.380	86.550	-2.000	0.800																			1580021818.0	0.45	0.83
26/01/2020 06:56:59	26012020	260120	065659	86.530	12.713552	-57.244742	86.410	0.350	-0.510	0.330	86.520	-1.900	0.700																			1580021819.0	0.10	0.19
26/01/2020 06:57:00	26012020	260120	065700	86.470	12.713553	-57.244743	86.340	0.340	-0.220	0.180	86.450	-1.700	0.600	1013.90	25.60	25.70	20.10	20.10	-1.00	71.00	71.00	421.00	25.40	8.00	5.30	94.00	5.10	15	3215.00	27.40	27.40	1580021820.0	0.41	0.76
26/01/2020 06:57:01	26012020	260120	065701	86.400	12.713557	-57.244743	86.270	0.210	-0.030	-0.000	86.390	-1.500	0.400																			1580021821.0	0.58	1.07
26/01/2020 06:57:02	26012020	260120	065702	86.380	12.713558	-57.244745	86.260	0.070	0.010	-0.120	86.380	-1.400	0.300																			1580021822.0	0.51	0.94
26/01/2020 06:57:03	26012020	260120	065703	86.420	12.713560	-57.244745	86.310	-0.050	-0.020	-0.150	86.430	-1.400	0.200																			1580021823.0	0.29	0.54
26/01/2020 06:57:04	26012020	260120	065704	86.460	12.713560	-57.244745	86.350	-0.180	-0.020	-0.090	86.460	-1.400	0.300																			1580021824.0	0.04	0.07
26/01/2020 06:57:05	26012020	260120	065705	86.450	12.713558	-57.244745	86.330	-0.270	-0.010	0.090	86.440	-1.400	0.500																			1580021825.0	0.22	0.41
26/01/2020 06:57:06	26012020	260120	065706	86.380	12.713557	-57.244745	86.260	-0.240	-0.100	0.390	86.370	-1.500	0.800																			1580021826.0	0.41	0.76
26/01/2020 06:57:07	26012020	260120	065707	86.320	12.713555	-57.244743	86.210	-0.050	-0.290	0.620	86.310	-1.700	1.000																			1580021827.0	0.44	0.81
26/01/2020 06:57:08	26012020	260120	065708	86.250	12.713553	-57.244743	86.130	0.190	-0.390	0.730	86.240	-1.800	1.100																			1580021828.0	0.35	0.65
26/01/2020 06:57:09	26012020	260120	065709	86.160	12.713553	-57.244742	86.060	0.310	-0.200	0.650	86.140	-1.700	1.100																			1580021829.0	0.13	0.24
26/01/2020 06:57:10	26012020	260120	065710	86.110	12.713557	-57.244743	86.000	0.230	0.150	0.410	86.100	-1.300	0.800																			1580021830.0	0.49	0.91
26/01/2020 06:57:11	26012020	260120	065711	86.110	12.713558	-57.244745	86.010	0.050	0.370	0.130	86.110	-1.100	0.600																			1580021831.0	0.73	1.35
26/01/2020 06:57:12	26012020	260120	065712	86.220	12.713562	-57.244747	86.150	-0.100	0.250	-0.090	86.250	-1.200	0.300																			1580021832.0	0.62	1.15
26/01/2020 06:57:13	26012020	260120	065713	86.390	12.713563	-57.244747	86.300	-0.180	-0.050	-0.180	86.410	-1.400	0.200																			1580021833.0	0.32	0.59
26/01/2020 06:57:14	26012020	260120	065714	86.420	12.713563	-57.244745	86.310	-0.220	-0.300	-0.080	86.400	-1.700	0.300																			1580021834.0	0.14	0.26
26/01/2020 06:57:15	26012020	260120	065715	86.270	12.713562	-57.244745	86.140	-0.240	-0.500	0.190	86.220	-1.900	0.500																			1580021835.0	0.35	0.65
26/01/2020 06:57:16	26012020	260120	065716	86.030	12.713558	-57.244745	85.930	-0.180	-0.650	0.510	85.990	-2.100	0.900																			1580021836.0	0.47	0.87
26/01/2020 06:57:17	26012020	260120	065717	85.890	12.713557	-57.244743	85.830	-0.050	-0.620	0.750	85.880	-2.000	1.100																			1580021837.0	0.49	0.91
26/01/2020 06:57:18	26012020	260120	065718	85.920	12.713555	-57.244743	85.880	0.110	-0.280	0.790	85.950	-1.700	1.200																			1580021838.0	0.33	0.61
26/01/2020 06:57:19	26012020	260120	065719	86.080	12.713555	-57.244745	86.040	0.220	0.200	0.610	86.120	-1.300	1.000																			1580021839.0	0.28	0.52
26/01/2020 06:57:20	26012020	260120	065720	86.220	12.713557	-57.244747	86.160	0.290	0.430	0.300	86.240	-1.000	0.700																			1580021840.0	0.47	0.87
26/01/2020 06:57:21	26012020	260120	065721	86.260	12.713560	-57.244747	86.180	0.300	0.320	-0.030	86.260	-1.100	0.400																			1580021841.0	0.66	1.22
26/01/2020 06:57:22	26012020	260120	065722	86.250	12.713563	-57.244747	86.170	0.190	0.070	-0.250	86.260	-1.300	0.200																			1580021842.0	0.74	1.37
26/01/2020 06:57:23	26012020	260120	065723	86.290	12.713565	-57.244747	86.210	0.010	-0.130	-0.250	86.310	-1.500	0.100																			1580021843.0	0.53	0.98
26/01/2020 06:57:24	26012020	260120	065724	86.390	12.713567	-57.244747	86.320	-0.100	-0.260	-0.030	86.410	-1.700	0.300																			1580021844.0	0.15	0.28
26/01/2020 06:57:25	26012020	260120	065725	86.470	12.713565	-57.244747	86.390	-0.120	-0.320	0.460	86.470	-1.700	0.800																			1580021845.0	0.37	0.69
26/01/2020 06:57:26	26012020	260120	065726	86.430	12.713562	-57.244747	86.350	-0.110	-0.290	1.110	86.400	-1.700	1.400																			1580021846.0	0.81	1.50
26/01/2020 06:57:27	26012020	260120	065727	86.270	12.713557	-57.244747	86.170	-0.210	-0.110	1.630	86.230	-1.500	2.000																			1580021847.0	0.93	1.72
26/01/2020 06:57:28	26012020	260120	065728	86.090	12.713553	-57.244748	86.030	-0.370	0.080	1.790	86.070	-1.400	2.200																			1580021848.0	0.67	1.24
26/01/2020 06:57:29	26012020	260120	065729	86.040	12.713553	-57.244750	86.010	-0.380	0.010	1.590	86.050	-1.400	2.000																			1580021849.0	0.26	0.48
26/01/2020 06:57:30	26012020	260120	065730	86.170	12.713555	-57.244750	86.140	-0.140	-0.320	1.130	86.200	-1.700	1.600																			1580021850.0	0.37	0.69
26/01/2020 06:57:31	26012020	260120	065731	86.340	12.713558	-57.244748	86.270	0.200	-0.520	0.580	86.360	-1.900	1.000																			1580021851.0	0.61	1.13
26/01/2020 06:57:32	26012020	260120	065732	86.410	12.713560	-57.244747	86.310	0.380	-0.350	0.040	86.400	-1.800	0.500																			1580021852.0	0.57	1.06
26/01/2020 06:57:33	26012020	260120	065733	86.350	12.713563	-57.244748	86.220	0.290	0.060	-0.400	86.330	-1.400	0.000																			1580021853.0	0.67	1.24
26/01/2020 06:57:34	26012020	260120	065734	86.250	12.713567	-57.244750	86.110	0.090	0.330	-0.670	86.230	-1.100	-0.300																			1580021854.0	0.78	1.44
26/01/2020 06:57:35	26012020	260120	065735	86.170	12.713568	-57.244752	86.040	0.020	0.200	-0.760	86.170	-1.200	-0.400																			1580021855.0	0.61	1.13
26/01/2020 06:57:36	26012020	260120	065736	86.180	12.713570	-57.244750	86.090	0.090	-0.120	-0.710	86.190	-1.500	-0.300																			1580021856.0	0.48	0.89
26/01/2020 06:57:37	26012020	260120	065737	86.250	12.713572	-57.244750	86.170	0.140	-0.320	-0.420	86.270	-1.700	-0.100																			1580021857.0	0.32	0.59
26/01/2020 06:57:38	26012020	260120	065738	86.340	12.713570	-57.244748	86.290	0.050	-0.230	0.080	86.360	-1.700	0.400																			1580021858.0	0.30	0.56
26/01/2020 06:57:39	26012020	260120	065739	86.460	12.713567	-57.244750	86.410	-0.140	-0.040	0.610	86.480	-1.500	0.900																			1580021859.0	0.63	1.17
26/01/2020 06:57:40	26012020	260120	065740	86.560	12.713563	-57.244752	86.520	-0.270	0.040	1.070	86.580	-1.400	1.400																			1580021860.0	0.70	1.30
26/01/2020 06:57:41	26012020	260120	065741	86.650	12.713562	-57.244752	86.630	-0.250	-0.070	1.400	86.670	-1.500	1.800																			1580021861.0	0.60	1.11
26/01/2020 06:57:42	26012020	260120	065742	86.740	12.713558	-57.244750	86.700	-0.130	-0.240	1.590	86.750	-1.600	2.000																			1580021862.0	0.49	0.91
26/01/2020 06:57:43	26012020	260120	065743	86.780	12.713558	-57.244750	86.720	-0.040	-0.350	1.610	86.780	-1.800	2.000																			1580021863.0	0.31	0.57
26/01/2020 06:57:44	26012020	260120	065744	86.720	12.713558	-57.244750	86.640	-0.050	-0.320	1.440	86.700	-1.700	1.900																			1580021864.0	0.06	0.11
26/01/2020 06:57:45	26012020	260120	065745	86.650	12.713558	-57.244750	86.560	-0.100	-0.180	1.070	86.650	-1.600	1.500																			1580021865.0	0.23	0.43
26/01/2020 06:57:46	26012020	260120	065746	86.720	12.713560	-57.244752	86.670	-0.070	-0.010	0.510	86.770	-1.400	1.000																			1580021866.0	0.47	0.87
26/01/2020 06:57:47	26012020	260120	065747	86.980	12.713563	-57.244752	86.950	0.020	0.140	-0.220	86.980	-1.300	0.200																			1580021867.0	0.72	1.33
26/01/2020 06:57:48	26012020	260120	065748	87.270	12.713568	-57.244753	87.200	0.050	0.230	-0.850	87.310	-1.200	-0.400																			1580021868.0	0.85	1.57
26/01/2020 06:57:49	26012020	260120	065749	87.360	12.713570	-57.244755	87.250	0.030	0.160	-1.090	87.360	-1.200	-0.700																			1580021869.0	0.66	1.22
26/01/2020 06:57:50	26012020	260120	065750	87.290	12.713572	-57.244755	87.160	0.040	-0.120	-0.890	87.270	-1.500	-0.500																			1580021870.0	0.27	0.50
26/01/2020 06:57:51	26012020	260120	065751	87.220	12.713572	-57.244753	87.110	0.130	-0.450	-0.390	87.210	-1.800	-0.100																			1580021871.0	0.21	0.39
26/01/2020 06:57:52	26012020	260120	065752	87.230	12.713570	-57.244753	87.150	0.260	-0.620	0.240	87.230	-2.000	0.600																			1580021872.0	0.47	0.87
26/01/2020 06:57:53	26012020	260120	065753	87.260	12.713567	-57.244752	87.200	0.260	-0.490	0.920	87.270	-1.900	1.200																			1580021873.0	0.63	1.17
26/01/2020 06:57:54	26012020	260120	065754	87.290	12.713563	-57.244753	87.240	0.040	-0.070	1.530	87.300	-1.500	1.900																			1580021874.0	0.74	1.37
26/01/2020 06:57:55	26012020	260120	065755	87.290	12.713560	-57.244755	87.220	-0.240	0.380	1.980	87.280	-1.100	2.300																			1580021875.0	0.88	1.63
26/01/2020 06:57:56	26012020	260120	065756	87.220	12.713557	-57.244757	87.160	-0.340	0.460	2.120	87.200	-0.900	2.500																			1580021876.0	0.71	1.31
26/01/2020 06:57:57	26012020	260120	065757	87.140	12.713557	-57.244755	87.090	-0.180	0.060	1.860	87.130	-1.300	2.300																			1580021877.0	0.16	0.30
26/01/2020 06:57:58	26012020	260120	065758	87.110	12.713558	-57.244753	87.050	0.050	-0.430	1.310	87.110	-1.800	1.800																			1580021878.0	0.65	1.20
26/01/2020 06:57:59	26012020	260120	065759	87.130	12.713562	-57.244752	87.060	0.100	-0.560	0.600	87.140	-2.000	1.100																			1580021879.0	0.92	1.70
26/01/2020 06:58:00	26012020	260120	065800	87.210	12.713567	-57.244752	87.130	-0.100	-0.260	-0.150	87.230	-1.700	0.300	1013.90	25.60	25.60	20.00	20.10	-1.00	71.00	71.00	421.00	25.40	360.00	5.60	86.00	5.40	15	3222.00	27.40	27.40	1580021880.0	0.94	1.74
26/01/2020 06:58:01	26012020	260120	065801	87.270	12.713570	-57.244755	87.160	-0.360	0.150	-0.760	87.270	-1.300	-0.300																			1580021881.0	0.87	1.61
26/01/2020 06:58:02	26012020	260120	065802	87.240	12.713572	-57.244757	87.110	-0.410	0.250	-1.090	87.230	-1.200	-0.700																			1580021882.0	0.57	1.06
26/01/2020 06:58:03	26012020	260120	065803	87.150	12.713572	-57.244757	87.010	-0.210	-0.060	-1.070	87.130	-1.400	-0.700																			1580021883.0	0.07	0.13
26/01/2020 06:58:04	26012020	260120	065804	87.030	12.713570	-57.244755	86.910	0.110	-0.410	-0.740	87.010	-1.800	-0.400																			1580021884.0	0.52	0.96
26/01/2020 06:58:05	26012020	260120	065805	86.950	12.713568	-57.244752	86.840	0.320	-0.470	-0.370	86.940	-1.900	-0.000																			1580021885.0	0.60	1.11
26/01/2020 06:58:06	26012020	260120	065806	86.960	12.713567	-57.244752	86.890	0.340	-0.190	-0.140	86.980	-1.600	0.200																			1580021886.0	0.31	0.57
26/01/2020 06:58:07	26012020	260120	065807	87.120	12.713567	-57.244753	87.070	0.260	0.180	0.020	87.160	-1.300	0.400																			1580021887.0	0.34	0.63
26/01/2020 06:58:08	26012020	260120	065808	87.280	12.713567	-57.244755	87.230	0.210	0.360	0.340	87.300	-1.100	0.700																			1580021888.0	0.40	0.74
26/01/2020 06:58:09	26012020	260120	065809	87.300	12.713565	-57.244757	87.220	0.230	0.160	0.800	87.280	-1.200	1.100																			1580021889.0	0.37	0.69
26/01/2020 06:58:10	26012020	260120	065810	87.190	12.713562	-57.244755	87.110	0.260	-0.320	1.210	87.170	-1.700	1.600																			1580021890.0	0.49	0.91
26/01/2020 06:58:11	26012020	260120	065811	87.130	12.713562	-57.244753	87.070	0.200	-0.740	1.460	87.120	-2.100	1.800																			1580021891.0	0.52	0.96
26/01/2020 06:58:12	26012020	260120	065812	87.130	12.713560	-57.244752	87.080	-0.020	-0.760	1.530	87.130	-2.200	1.900																			1580021892.0	0.33	0.61
26/01/2020 06:58:13	26012020	260120	065813	87.120	12.713560	-57.244752	87.060	-0.370	-0.310	1.460	87.120	-1.800	1.900																			1580021893.0	0.14	0.26
26/01/2020 06:58:14	26012020	260120	065814	87.070	12.713560	-57.244755	87.000	-0.730	0.320	1.320	87.060	-1.100	1.700																			1580021894.0	0.53	0.98
26/01/2020 06:58:15	26012020	260120	065815	87.040	12.713558	-57.244757	86.970	-0.900	0.650	1.010	87.040	-0.800	1.400																			1580021895.0	0.59	1.09
26/01/2020 06:58:16	26012020	260120	065816	87.100	12.713557	-57.244758	87.050	-0.780	0.490	0.500	87.130	-0.900	0.900																			1580021896.0	0.25	0.46
26/01/2020 06:58:17	26012020	260120	065817	87.290	12.713557	-57.244757	87.250	-0.370	0.030	-0.190	87.340	-1.300	0.300																			1580021897.0	0.19	0.35
26/01/2020 06:58:18	26012020	260120	065818	87.560	12.713560	-57.244757	87.500	0.190	-0.360	-0.960	87.610	-1.800	-0.500																			1580021898.0	0.50	0.93
26/01/2020 06:58:19	26012020	260120	065819	87.740	12.713563	-57.244755	87.620	0.730	-0.460	-1.550	87.740	-1.900	-1.100																			1580021899.0	0.71	1.31
26/01/2020 06:58:20	26012020	260120	065820	87.680	12.713567	-57.244757	87.530	1.060	-0.370	-1.660	87.640	-1.800	-1.300																			1580021900.0	0.73	1.35
26/01/2020 06:58:21	26012020	260120	065821	87.470	12.713568	-57.244758	87.330	1.070	-0.330	-1.290	87.430	-1.700	-0.900																			1580021901.0	0.50	0.93
26/01/2020 06:58:22	26012020	260120	065822	87.270	12.713568	-57.244758	87.160	0.790	-0.330	-0.560	87.240	-1.700	-0.200																			1580021902.0	0.12	0.22
26/01/2020 06:58:23	26012020	260120	065823	87.140	12.713567	-57.244758	87.060	0.330	-0.270	0.370	87.130	-1.700	0.700																			1580021903.0	0.30	0.56
26/01/2020 06:58:24	26012020	260120	065824	87.100	12.713563	-57.244758	87.050	-0.140	-0.100	1.370	87.100	-1.500	1.700																			1580021904.0	0.78	1.44
26/01/2020 06:58:25	26012020	260120	065825	87.120	12.713558	-57.244758	87.100	-0.520	0.080	2.280	87.120	-1.300	2.600																			1580021905.0	1.21	2.24
26/01/2020 06:58:26	26012020	260120	065826	87.180	12.713552	-57.244758	87.190	-0.800	0.220	2.900	87.200	-1.200	3.200																			1580021906.0	1.40	2.59
26/01/2020 06:58:27	26012020	260120	065827	87.310	12.713545	-57.244758	87.320	-0.930	0.270	3.070	87.330	-1.100	3.400																			1580021907.0	1.26	2.33
26/01/2020 06:58:28	26012020	260120	065828	87.410	12.713542	-57.244758	87.400	-0.850	0.120	2.780	87.420	-1.300	3.200																			1580021908.0	0.84	1.56
26/01/2020 06:58:29	26012020	260120	065829	87.450	12.713540	-57.244758	87.390	-0.500	-0.150	2.060	87.440	-1.500	2.500																			1580021909.0	0.28	0.52
26/01/2020 06:58:30	26012020	260120	065830	87.410	12.713542	-57.244758	87.320	0.010	-0.330	0.980	87.400	-1.700	1.500																			1580021910.0	0.45	0.83
26/01/2020 06:58:31	26012020	260120	065831	87.360	12.713547	-57.244758	87.240	0.460	-0.260	-0.350	87.350	-1.700	0.200																			1580021911.0	1.12	2.07
26/01/2020 06:58:32	26012020	260120	065832	87.340	12.713555	-57.244760	87.210	0.680	-0.070	-1.640	87.330	-1.500	-1.100																			1580021912.0	1.68	3.11
26/01/2020 06:58:33	26012020	260120	065833	87.290	12.713563	-57.244762	87.140	0.710	-0.040	-2.530	87.280	-1.400	-2.100																			1580021913.0	1.80	3.33
26/01/2020 06:58:34	26012020	260120	065834	87.200	12.713570	-57.244762	87.040	0.680	-0.240	-2.750	87.180	-1.600	-2.400																			1580021914.0	1.42	2.63
26/01/2020 06:58:35	26012020	260120	065835	87.110	12.713573	-57.244762	86.990	0.580	-0.450	-2.210	87.110	-1.900	-1.900																			1580021915.0	0.66	1.22
26/01/2020 06:58:36	26012020	260120	065836	87.100	12.713572	-57.244760	87.010	0.340	-0.480	-1.110	87.110	-1.900	-0.800																			1580021916.0	0.44	0.81
26/01/2020 06:58:37	26012020	260120	065837	87.130	12.713565	-57.244760	87.050	-0.050	-0.260	0.350	87.130	-1.700	0.600																			1580021917.0	1.32	2.44
26/01/2020 06:58:38	26012020	260120	065838	87.080	12.713555	-57.244760	87.000	-0.480	0.050	2.020	87.060	-1.400	2.300																			1580021918.0	2.04	3.78
26/01/2020 06:58:39	26012020	260120	065839	86.960	12.713543	-57.244762	86.920	-0.770	0.260	3.570	86.940	-1.200	3.800																			1580021919.0	2.46	4.56
26/01/2020 06:58:40	26012020	260120	065840	86.910	12.713533	-57.244760	86.910	-0.800	0.230	4.430	86.910	-1.200	4.800																			1580021920.0	2.22	4.11
26/01/2020 06:58:41	26012020	260120	065841	86.970	12.713528	-57.244760	86.990	-0.520	0.010	4.260	86.990	-1.400	4.700																			1580021921.0	1.23	2.28
26/01/2020 06:58:42	26012020	260120	065842	87.100	12.713528	-57.244760	87.110	-0.100	-0.110	3.170	87.130	-1.500	3.700																			1580021922.0	0.20	0.37
26/01/2020 06:58:43	26012020	260120	065843	87.290	12.713535	-57.244760	87.280	0.260	-0.030	1.460	87.330	-1.500	2.000																			1580021923.0	1.36	2.52
26/01/2020 06:58:44	26012020	260120	065844	87.480	12.713545	-57.244762	87.420	0.440	0.040	-0.450	87.510	-1.400	0.100																			1580021924.0	2.13	3.94
26/01/2020 06:58:45	26012020	260120	065845	87.590	12.713555	-57.244763	87.470	0.460	-0.070	-2.140	87.600	-1.500	-1.600																			1580021925.0	2.39	4.43
26/01/2020 06:58:46	26012020	260120	065846	87.620	12.713565	-57.244765	87.480	0.360	-0.260	-3.270	87.620	-1.700	-2.800																			1580021926.0	2.17	4.02
26/01/2020 06:58:47	26012020	260120	065847	87.640	12.713572	-57.244765	87.500	0.200	-0.440	-3.550	87.640	-1.800	-3.200																			1580021927.0	1.41	2.61
26/01/2020 06:58:48	26012020	260120	065848	87.670	12.713573	-57.244765	87.540	0.060	-0.630	-2.850	87.670	-2.000	-2.500																			1580021928.0	0.17	0.31
26/01/2020 06:58:49	26012020	260120	065849	87.660	12.713567	-57.244763	87.560	-0.050	-0.680	-1.390	87.660	-2.100	-1.100																			1580021929.0	1.21	2.24
26/01/2020 06:58:50	26012020	260120	065850	87.640	12.713558	-57.244762	87.560	-0.160	-0.410	0.380	87.630	-1.900	0.600																			1580021930.0	2.11	3.91
26/01/2020 06:58:51	26012020	260120	065851	87.640	12.713547	-57.244763	87.590	-0.260	0.100	2.090	87.650	-1.400	2.300																			1580021931.0	2.47	4.57
26/01/2020 06:58:52	26012020	260120	065852	87.710	12.713535	-57.244763	87.710	-0.280	0.530	3.390	87.730	-0.900	3.700																			1580021932.0	2.30	4.26
26/01/2020 06:58:53	26012020	260120	065853	87.870	12.713528	-57.244765	87.930	-0.170	0.610	3.940	87.920	-0.800	4.300																			1580021933.0	1.54	2.85
26/01/2020 06:58:54	26012020	260120	065854	88.130	12.713527	-57.244763	88.200	0.050	0.330	3.600	88.190	-1.000	4.000																			1580021934.0	0.40	0.74
26/01/2020 06:58:55	26012020	260120	065855	88.370	12.713530	-57.244763	88.400	0.270	-0.060	2.640	88.410	-1.400	3.100																			1580021935.0	0.75	1.39
26/01/2020 06:58:56	26012020	260120	065856	88.510	12.713537	-57.244762	88.480	0.330	-0.310	1.400	88.530	-1.700	1.900																			1580021936.0	1.38	2.56
26/01/2020 06:58:57	26012020	260120	065857	88.590	12.713543	-57.244763	88.510	0.210	-0.380	0.150	88.610	-1.800	0.700																			1580021937.0	1.62	3.00
26/01/2020 06:58:58	26012020	260120	065858	88.640	12.713550	-57.244763	88.540	-0.010	-0.370	-0.850	88.640	-1.800	-0.400																			1580021938.0	1.47	2.72
26/01/2020 06:58:59	26012020	260120	065859	88.630	12.713555	-57.244765	88.530	-0.200	-0.330	-1.480	88.630	-1.700	-1.000																			1580021939.0	1.00	1.85
26/01/2020 06:59:00	26012020	260120	065900	88.560	12.713557	-57.244765	88.430	-0.250	-0.320	-1.630	88.520	-1.700	-1.200	1013.90	25.60	25.60	20.00	20.00	-1.00	71.00	71.00	421.00	25.40	1.00	5.70	88.00	5.20	15	3248.00	27.40	27.40	1580021940.0	0.40	0.74
26/01/2020 06:59:01	26012020	260120	065901	88.350	12.713557	-57.244765	88.210	-0.140	-0.410	-1.300	88.300	-1.800	-0.900																			1580021941.0	0.21	0.39
26/01/2020 06:59:02	26012020	260120	065902	88.180	12.713553	-57.244763	88.070	0.040	-0.420	-0.780	88.170	-1.800	-0.400																			1580021942.0	0.65	1.20
26/01/2020 06:59:03	26012020	260120	065903	88.250	12.713550	-57.244762	88.210	0.150	-0.170	-0.290	88.300	-1.600	0.000																			1580021943.0	0.67	1.24
26/01/2020 06:59:04	26012020	260120	065904	88.560	12.713548	-57.244763	88.530	0.120	0.250	0.180	88.620	-1.200	0.500																			1580021944.0	0.59	1.09
26/01/2020 06:59:05	26012020	260120	065905	88.890	12.713545	-57.244765	88.840	-0.010	0.530	0.680	88.950	-0.900	1.000																			1580021945.0	0.68	1.26
26/01/2020 06:59:06	26012020	260120	065906	89.070	12.713542	-57.244765	88.970	-0.100	0.460	1.220	89.070	-0.900	1.500																			1580021946.0	0.74	1.37
26/01/2020 06:59:07	26012020	260120	065907	88.980	12.713538	-57.244765	88.840	-0.090	0.110	1.750	88.930	-1.300	2.100																			1580021947.0	0.80	1.48
26/01/2020 06:59:08	26012020	260120	065908	88.750	12.713535	-57.244763	88.610	-0.040	-0.240	2.030	88.700	-1.600	2.400																			1580021948.0	0.67	1.24
26/01/2020 06:59:09	26012020	260120	065909	88.590	12.713533	-57.244763	88.490	-0.010	-0.390	1.850	88.580	-1.800	2.300																			1580021949.0	0.16	0.30
26/01/2020 06:59:10	26012020	260120	065910	88.640	12.713537	-57.244763	88.570	-0.000	-0.390	1.260	88.680	-1.800	1.700																			1580021950.0	0.45	0.83
26/01/2020 06:59:11	26012020	260120	065911	88.850	12.713540	-57.244765	88.770	-0.010	-0.370	0.480	88.890	-1.800	0.900																			1580021951.0	0.77	1.43
26/01/2020 06:59:12	26012020	260120	065912	88.970	12.713543	-57.244765	88.840	-0.030	-0.380	-0.200	88.970	-1.800	0.200																			1580021952.0	0.78	1.44
26/01/2020 06:59:13	26012020	260120	065913	88.910	12.713545	-57.244765	88.750	-0.060	-0.360	-0.660	88.890	-1.800	-0.200																			1580021953.0	0.51	0.94
26/01/2020 06:59:14	26012020	260120	065914	88.770	12.713547	-57.244765	88.590	-0.110	-0.240	-0.920	88.740	-1.700	-0.500																			1580021954.0	0.23	0.43
26/01/2020 06:59:15	26012020	260120	065915	88.670	12.713547	-57.244765	88.520	-0.090	-0.070	-0.960	88.670	-1.500	-0.600																			1580021955.0	0.05	0.09
26/01/2020 06:59:16	26012020	260120	065916	88.720	12.713545	-57.244765	88.600	0.050	0.060	-0.830	88.740	-1.400	-0.500																			1580021956.0	0.22	0.41
26/01/2020 06:59:17	26012020	260120	065917	88.870	12.713545	-57.244763	88.760	0.250	0.140	-0.580	88.900	-1.300	-0.200																			1580021957.0	0.29	0.54
26/01/2020 06:59:18	26012020	260120	065918	88.980	12.713543	-57.244763	88.880	0.360	0.240	-0.230	89.000	-1.200	0.100																			1580021958.0	0.29	0.54
26/01/2020 06:59:19	26012020	260120	065919	89.090	12.713542	-57.244763	89.020	0.240	0.370	0.170	89.130	-1.100	0.500																			1580021959.0	0.30	0.56
26/01/2020 06:59:20	26012020	260120	065920	89.260	12.713540	-57.244765	89.190	-0.060	0.420	0.700	89.290	-1.000	1.000																			1580021960.0	0.52	0.96
26/01/2020 06:59:21	26012020	260120	065921	89.320	12.713537	-57.244767	89.210	-0.330	0.170	1.440	89.300	-1.200	1.700																			1580021961.0	0.81	1.50
26/01/2020 06:59:22	26012020	260120	065922	89.170	12.713532	-57.244765	89.030	-0.410	-0.460	2.200	89.120	-1.800	2.500																			1580021962.0	1.01	1.87
26/01/2020 06:59:23	26012020	260120	065923	88.870	12.713527	-57.244763	88.720	-0.290	-1.170	2.750	88.800	-2.500	3.100																			1580021963.0	1.13	2.09
26/01/2020 06:59:24	26012020	260120	065924	88.500	12.713523	-57.244760	88.350	-0.100	-1.400	3.010	88.420	-2.800	3.400																			1580021964.0	1.06	1.96
26/01/2020 06:59:25	26012020	260120	065925	88.200	12.713520	-57.244758	88.080	0.030	-0.890	2.730	88.180	-2.400	3.100																			1580021965.0	0.55	1.02
26/01/2020 06:59:26	26012020	260120	065926	88.170	12.713522	-57.244760	88.090	0.100	0.100	1.760	88.200	-1.400	2.200																			1580021966.0	0.40	0.74
26/01/2020 06:59:27	26012020	260120	065927	88.360	12.713527	-57.244763	88.290	0.130	0.960	0.270	88.360	-0.500	0.800																			1580021967.0	1.27	2.35
26/01/2020 06:59:28	26012020	260120	065928	88.670	12.713535	-57.244767	88.570	0.150	1.210	-1.420	88.730	-0.200	-0.900																			1580021968.0	1.87	3.46
26/01/2020 06:59:29	26012020	260120	065929	88.930	12.713545	-57.244767	88.790	0.160	0.850	-2.800	88.970	-0.500	-2.300																			1580021969.0	2.05	3.80
26/01/2020 06:59:30	26012020	260120	065930	89.070	12.713552	-57.244765	88.880	0.160	0.080	-3.340	89.070	-1.300	-2.900																			1580021970.0	1.54	2.85
26/01/2020 06:59:31	26012020	260120	065931	89.020	12.713553	-57.244763	88.810	0.140	-0.800	-2.830	88.990	-2.100	-2.500																			1580021971.0	0.58	1.07
26/01/2020 06:59:32	26012020	260120	065932	88.790	12.713548	-57.244760	88.590	0.090	-1.360	-1.480	88.730	-2.700	-1.200																			1580021972.0	1.00	1.85
26/01/2020 06:59:33	26012020	260120	065933	88.450	12.713540	-57.244760	88.290	-0.050	-1.260	0.270	88.380	-2.700	0.500																			1580021973.0	1.76	3.26
26/01/2020 06:59:34	26012020	260120	065934	88.130	12.713530	-57.244760	88.010	-0.260	-0.590	2.020	88.070	-2.100	2.200																			1580021974.0	2.26	4.19
26/01/2020 06:59:35	26012020	260120	065935	87.900	12.713520	-57.244762	87.850	-0.430	0.100	3.340	87.880	-1.400	3.600																			1580021975.0	2.33	4.32
26/01/2020 06:59:36	26012020	260120	065936	87.860	12.713512	-57.244763	87.870	-0.460	0.430	3.880	87.890	-1.000	4.200																			1580021976.0	1.83	3.39
26/01/2020 06:59:37	26012020	260120	065937	88.030	12.713507	-57.244762	88.070	-0.330	0.490	3.510	88.080	-0.900	3.900																			1580021977.0	0.86	1.59
26/01/2020 06:59:38	26012020	260120	065938	88.330	12.713508	-57.244762	88.360	-0.130	0.500	2.330	88.410	-0.900	2.800																			1580021978.0	0.37	0.69
26/01/2020 06:59:39	26012020	260120	065939	88.690	12.713515	-57.244762	88.680	0.100	0.450	0.620	88.760	-1.000	1.100																			1580021979.0	1.37	2.54
26/01/2020 06:59:40	26012020	260120	065940	88.950	12.713525	-57.244762	88.860	0.330	0.210	-1.060	88.970	-1.200	-0.500																			1580021980.0	1.95	3.61
26/01/2020 06:59:41	26012020	260120	065941	89.010	12.713533	-57.244762	88.850	0.440	-0.160	-2.190	89.000	-1.500	-1.700																			1580021981.0	1.85	3.43
26/01/2020 06:59:42	26012020	260120	065942	88.910	12.713538	-57.244762	88.730	0.390	-0.540	-2.580	88.890	-1.900	-2.200																			1580021982.0	1.26	2.33
26/01/2020 06:59:43	26012020	260120	065943	88.730	12.713542	-57.244762	88.540	0.260	-0.840	-2.290	88.680	-2.200	-2.000																			1580021983.0	0.53	0.98
26/01/2020 06:59:44	26012020	260120	065944	88.510	12.713540	-57.244760	88.360	0.140	-0.940	-1.410	88.470	-2.400	-1.100																			1580021984.0	0.38	0.70
26/01/2020 06:59:45	26012020	260120	065945	88.380	12.713533	-57.244760	88.290	-0.050	-0.680	-0.070	88.370	-2.100	0.200																			1580021985.0	1.28	2.37
26/01/2020 06:59:46	26012020	260120	065946	88.400	12.713525	-57.244760	88.360	-0.320	-0.140	1.410	88.420	-1.600	1.600																			1580021986.0	2.03	3.76
26/01/2020 06:59:47	26012020	260120	065947	88.540	12.713515	-57.244760	88.540	-0.530	0.340	2.600	88.580	-1.100	2.900																			1580021987.0	2.17	4.02
26/01/2020 06:59:48	26012020	260120	065948	88.770	12.713507	-57.244760	88.790	-0.540	0.540	3.160	88.820	-0.900	3.500																			1580021988.0	1.68	3.11
26/01/2020 06:59:49	26012020	260120	065949	88.980	12.713502	-57.244760	88.990	-0.310	0.500	3.110	89.000	-0.900	3.500																			1580021989.0	0.92	1.70
26/01/2020 06:59:50	26012020	260120	065950	89.010	12.713502	-57.244760	88.980	0.010	0.320	2.710	88.990	-1.100	3.100																			1580021990.0	0.29	0.54
26/01/2020 06:59:51	26012020	260120	065951	88.920	12.713503	-57.244758	88.860	0.270	0.060	1.920	88.900	-1.300	2.400																			1580021991.0	0.45	0.83
26/01/2020 06:59:52	26012020	260120	065952	88.890	12.713508	-57.244758	88.810	0.410	-0.270	0.720	88.900	-1.700	1.200																			1580021992.0	1.21	2.24
26/01/2020 06:59:53	26012020	260120	065953	88.990	12.713517	-57.244757	88.890	0.440	-0.570	-0.580	89.020	-2.000	-0.100																			1580021993.0	1.81	3.35
26/01/2020 06:59:54	26012020	260120	065954	89.120	12.713525	-57.244757	88.990	0.380	-0.660	-1.560	89.140	-2.100	-1.100																			1580021994.0	1.79	3.32
26/01/2020 06:59:55	26012020	260120	065955	89.190	12.713530	-57.244757	89.040	0.220	-0.440	-1.920	89.190	-1.900	-1.500																			1580021995.0	1.10	2.04
26/01/2020 06:59:56	26012020	260120	065956	89.140	12.713532	-57.244758	88.980	-0.060	-0.070	-1.620	89.120	-1.500	-1.300																			1580021996.0	0.29	0.54
26/01/2020 06:59:57	26012020	260120	065957	89.020	12.713527	-57.244760	88.880	-0.350	0.160	-0.780	89.000	-1.300	-0.500																			1580021997.0	0.83	1.54
26/01/2020 06:59:58	26012020	260120	065958	88.940	12.713522	-57.244760	88.840	-0.460	0.130	0.300	88.930	-1.300	0.600																			1580021998.0	1.33	2.46
26/01/2020 06:59:59	26012020	260120	065959	88.950	12.713515	-57.244758	88.870	-0.350	-0.030	1.300	88.960	-1.400	1.600																			1580021999.0	1.51	2.80
26/01/2020 07:00:00	26012020	260120	070000	89.010	12.713508	-57.244758	88.950	-0.130	-0.160	2.010	89.030	-1.600	2.300	1013.90	25.60	25.70	20.00	20.00	-1.00	71.00	71.00	420.00	25.40	3.00	5.20	92.00	4.70	15	3254.00	27.40	27.40	1580022000.0	1.40	2.59
26/01/2020 07:00:01	26012020	260120	070001	89.140	12.713503	-57.244757	89.090	0.060	-0.220	2.250	89.170	-1.600	2.600																			1580022001.0	0.92	1.70
26/01/2020 07:00:02	26012020	260120	070001	89.300	12.713503	-57.244757	89.260	0.160	-0.200	2.080	89.340	-1.600	2.500																			1580022001.0	0.24	0.44
26/01/2020 07:00:03	26012020	260120	070003	89.460	12.713503	-57.244757	89.370	0.210	-0.090	1.650	89.460	-1.500	2.100																			1580022003.0	0.33	0.61
26/01/2020 07:00:04	26012020	260120	070004	89.500	12.713507	-57.244758	89.390	0.230	-0.010	1.140	89.480	-1.400	1.600																			1580022004.0	0.60	1.11
26/01/2020 07:00:05	26012020	260120	070005	89.380	12.713510	-57.244758	89.220	0.190	-0.070	0.610	89.380	-1.500	1.000																			1580022005.0	0.64	1.19
26/01/2020 07:00:06	26012020	260120	070006	89.200	12.713513	-57.244758	89.050	0.070	-0.170	0.070	89.180	-1.600	0.500																			1580022006.0	0.63	1.17
26/01/2020 07:00:07	26012020	260120	070007	89.120	12.713515	-57.244757	88.990	-0.070	-0.200	-0.430	89.120	-1.600	0.000																			1580022007.0	0.61	1.13
26/01/2020 07:00:08	26012020	260120	070008	89.200	12.713518	-57.244757	89.070	-0.140	-0.180	-0.820	89.230	-1.600	-0.400																			1580022008.0	0.46	0.85
26/01/2020 07:00:09	26012020	260120	070009	89.370	12.713518	-57.244757	89.250	-0.120	-0.110	-1.000	89.400	-1.500	-0.600																			1580022009.0	0.27	0.50
26/01/2020 07:00:10	26012020	260120	070010	89.490	12.713518	-57.244757	89.370	-0.060	0.030	-0.850	89.500	-1.400	-0.500																			1580022010.0	0.03	0.06
26/01/2020 07:00:11	26012020	260120	070011	89.530	12.713517	-57.244758	89.400	-0.050	0.190	-0.440	89.530	-1.200	-0.100																			1580022011.0	0.38	0.70
26/01/2020 07:00:12	26012020	260120	070012	89.530	12.713515	-57.244758	89.420	-0.080	0.230	0.080	89.540	-1.200	0.400																			1580022012.0	0.57	1.06
26/01/2020 07:00:13	26012020	260120	070013	89.570	12.713512	-57.244758	89.460	-0.100	-0.010	0.680	89.570	-1.400	1.000																			1580022013.0	0.63	1.17
26/01/2020 07:00:14	26012020	260120	070014	89.610	12.713508	-57.244758	89.530	-0.060	-0.360	1.300	89.620	-1.700	1.600																			1580022014.0	0.78	1.44
26/01/2020 07:00:15	26012020	260120	070015	89.650	12.713505	-57.244757	89.560	0.040	-0.550	1.790	89.660	-1.900	2.100																			1580022015.0	0.81	1.50
26/01/2020 07:00:16	26012020	260120	070016	89.650	12.713502	-57.244757	89.550	0.130	-0.530	1.990	89.640	-1.900	2.300																			1580022016.0	0.65	1.20
26/01/2020 07:00:17	26012020	260120	070017	89.570	12.713500	-57.244757	89.460	0.200	-0.460	1.890	89.570	-1.900	2.300																			1580022017.0	0.36	0.67
26/01/2020 07:00:18	26012020	260120	070018	89.360	12.713500	-57.244755	89.220	0.220	-0.370	1.600	89.310	-1.800	2.000																			1580022018.0	0.16	0.30
26/01/2020 07:00:19	26012020	260120	070019	89.190	12.713502	-57.244755	89.070	0.150	-0.120	0.990	89.190	-1.500	1.400																			1580022019.0	0.44	0.81
26/01/2020 07:00:20	26012020	260120	070020	89.280	12.713507	-57.244755	89.200	-0.020	0.340	-0.010	89.330	-1.100	0.500																			1580022020.0	0.92	1.70
26/01/2020 07:00:21	26012020	260120	070021	89.640	12.713512	-57.244757	89.590	-0.240	0.770	-1.120	89.740	-0.700	-0.600																			1580022021.0	1.27	2.35
26/01/2020 07:00:22	26012020	260120	070022	90.110	12.713517	-57.244758	90.030	-0.370	0.770	-1.940	90.190	-0.600	-1.500																			1580022022.0	1.11	2.06
26/01/2020 07:00:23	26012020	260120	070023	90.390	12.713518	-57.244758	90.250	-0.310	0.210	-2.040	90.400	-1.100	-1.700																			1580022023.0	0.45	0.83
26/01/2020 07:00:24	26012020	260120	070024	90.290	12.713517	-57.244757	90.100	-0.080	-0.530	-1.430	90.230	-1.900	-1.100																			1580022024.0	0.57	1.06
26/01/2020 07:00:25	26012020	260120	070025	89.920	12.713512	-57.244755	89.730	0.180	-0.960	-0.390	89.840	-2.300	-0.100																			1580022025.0	1.08	2.00
26/01/2020 07:00:26	26012020	260120	070026	89.560	12.713507	-57.244753	89.430	0.320	-0.940	0.750	89.520	-2.400	1.000																			1580022026.0	1.23	2.28
26/01/2020 07:00:27	26012020	260120	070027	89.460	12.713502	-57.244755	89.400	0.320	-0.610	1.680	89.480	-2.000	2.000																			1580022027.0	1.22	2.26
26/01/2020 07:00:28	26012020	260120	070028	89.600	12.713497	-57.244755	89.570	0.200	-0.130	2.210	89.640	-1.600	2.500																			1580022028.0	1.01	1.87
26/01/2020 07:00:29	26012020	260120	070029	89.760	12.713493	-57.244757	89.720	0.010	0.310	2.300	89.760	-1.100	2.700																			1580022029.0	0.65	1.20
26/01/2020 07:00:30	26012020	260120	070030	89.840	12.713493	-57.244758	89.760	-0.170	0.510	2.060	89.840	-0.900	2.500																			1580022030.0	0.28	0.52
26/01/2020 07:00:31	26012020	260120	070031	89.780	12.713493	-57.244758	89.660	-0.250	0.320	1.590	89.760	-1.100	2.000																			1580022031.0	0.19	0.35
26/01/2020 07:00:32	26012020	260120	070032	89.640	12.713495	-57.244757	89.510	-0.160	-0.150	1.000	89.620	-1.500	1.400																			1580022032.0	0.50	0.93
26/01/2020 07:00:33	26012020	260120	070033	89.510	12.713498	-57.244755	89.350	0.030	-0.530	0.400	89.480	-1.900	0.800																			1580022033.0	0.71	1.31
26/01/2020 07:00:34	26012020	260120	070034	89.390	12.713500	-57.244753	89.230	0.140	-0.480	-0.120	89.380	-1.900	0.300																			1580022034.0	0.60	1.11
26/01/2020 07:00:35	26012020	260120	070035	89.360	12.713503	-57.244753	89.180	0.060	-0.010	-0.640	89.350	-1.500	-0.200																			1580022035.0	0.59	1.09
26/01/2020 07:00:36	26012020	260120	070036	89.300	12.713505	-57.244757	89.120	-0.110	0.360	-1.030	89.280	-1.100	-0.600																			1580022036.0	0.78	1.44
26/01/2020 07:00:37	26012020	260120	070037	89.180	12.713508	-57.244758	88.990	-0.160	0.270	-1.150	89.140	-1.100	-0.800																			1580022037.0	0.51	0.94
26/01/2020 07:00:38	26012020	260120	070038	89.020	12.713508	-57.244757	88.850	-0.050	-0.110	-0.920	88.990	-1.500	-0.600																			1580022038.0	0.19	0.35
26/01/2020 07:00:39	26012020	260120	070039	88.890	12.713507	-57.244755	88.740	0.120	-0.390	-0.410	88.860	-1.800	-0.100																			1580022039.0	0.51	0.94
26/01/2020 07:00:40	26012020	260120	070040	88.780	12.713503	-57.244755	88.650	0.220	-0.450	0.250	88.760	-1.900	0.600																			1580022040.0	0.70	1.30
26/01/2020 07:00:41	26012020	260120	070041	88.680	12.713500	-57.244755	88.570	0.210	-0.390	0.920	88.650	-1.800	1.200																			1580022041.0	0.79	1.46
26/01/2020 07:00:42	26012020	260120	070042	88.520	12.713497	-57.244753	88.380	0.120	-0.300	1.450	88.470	-1.700	1.800																			1580022042.0	0.69	1.28
26/01/2020 07:00:43	26012020	260120	070043	88.310	12.713493	-57.244753	88.180	-0.000	-0.120	1.720	88.260	-1.500	2.100																			1580022043.0	0.44	0.81
26/01/2020 07:00:44	26012020	260120	070044	88.130	12.713493	-57.244755	88.010	-0.130	0.120	1.780	88.100	-1.300	2.100																			1580022044.0	0.21	0.39
26/01/2020 07:00:45	26012020	260120	070045	87.980	12.713492	-57.244755	87.870	-0.220	0.220	1.680	87.960	-1.200	2.100																			1580022045.0	0.18	0.33
26/01/2020 07:00:46	26012020	260120	070046	87.880	12.713492	-57.244753	87.800	-0.240	0.100	1.350	87.860	-1.300	1.800																			1580022046.0	0.13	0.24
26/01/2020 07:00:47	26012020	260120	070047	87.820	12.713493	-57.244753	87.740	-0.210	-0.090	0.790	87.810	-1.500	1.200																			1580022047.0	0.33	0.61
26/01/2020 07:00:48	26012020	260120	070048	87.820	12.713495	-57.244752	87.750	-0.120	-0.150	0.090	87.830	-1.500	0.500																			1580022048.0	0.48	0.89
26/01/2020 07:00:49	26012020	260120	070049	87.860	12.713498	-57.244752	87.770	0.030	-0.120	-0.630	87.860	-1.500	-0.200																			1580022049.0	0.67	1.24
26/01/2020 07:00:50	26012020	260120	070050	87.810	12.713502	-57.244752	87.680	0.230	-0.100	-1.100	87.790	-1.500	-0.700																			1580022050.0	0.74	1.37
26/01/2020 07:00:51	26012020	260120	070051	87.640	12.713503	-57.244752	87.500	0.380	-0.110	-1.180	87.610	-1.500	-0.800																			1580022051.0	0.55	1.02
26/01/2020 07:00:52	26012020	260120	070052	87.470	12.713505	-57.244752	87.330	0.390	-0.240	-0.920	87.440	-1.600	-0.600																			1580022052.0	0.30	0.56
26/01/2020 07:00:53	26012020	260120	070053	87.340	12.713505	-57.244750	87.220	0.250	-0.420	-0.390	87.320	-1.800	-0.100																			1580022053.0	0.25	0.46
26/01/2020 07:00:54	26012020	260120	070054	87.300	12.713503	-57.244748	87.230	-0.010	-0.440	0.330	87.310	-1.900	0.700																			1580022054.0	0.54	1.00
26/01/2020 07:00:55	26012020	260120	070055	87.360	12.713498	-57.244748	87.320	-0.300	-0.200	1.180	87.370	-1.600	1.500																			1580022055.0	0.95	1.76
26/01/2020 07:00:56	26012020	260120	070056	87.440	12.713493	-57.244748	87.420	-0.500	0.200	1.970	87.450	-1.200	2.300																			1580022056.0	1.32	2.44
26/01/2020 07:00:57	26012020	260120	070057	87.460	12.713487	-57.244750	87.440	-0.490	0.430	2.460	87.460	-1.000	2.800																			1580022057.0	1.32	2.44
26/01/2020 07:00:58	26012020	260120	070058	87.470	12.713483	-57.244750	87.470	-0.240	0.270	2.460	87.480	-1.100	2.900																			1580022058.0	0.83	1.54
26/01/2020 07:00:59	26012020	260120	070059	87.530	12.713483	-57.244748	87.520	0.110	-0.120	1.990	87.550	-1.500	2.400																			1580022059.0	0.32	0.59
26/01/2020 07:01:00	26012020	260120	070100	87.580	12.713485	-57.244747	87.550	0.390	-0.450	1.270	87.580	-1.800	1.700	1013.90	25.60	25.70	20.20	20.20	-1.00	71.00	71.00	420.00	25.40	3.00	5.40	92.00	5.20	15	3221.00	27.40	27.40	1580022060.0	0.76	1.41
26/01/2020 07:01:01	26012020	260120	070101	87.560	12.713490	-57.244745	87.480	0.500	-0.570	0.480	87.540	-2.000	0.900																			1580022061.0	1.07	1.98
26/01/2020 07:01:02	26012020	260120	070102	87.450	12.713497	-57.244745	87.340	0.380	-0.430	-0.220	87.420	-1.900	0.200																			1580022062.0	1.14	2.11
26/01/2020 07:01:03	26012020	260120	070103	87.340	12.713500	-57.244747	87.240	0.080	-0.080	-0.740	87.340	-1.500	-0.300																			1580022063.0	1.02	1.89
26/01/2020 07:01:04	26012020	260120	070104	87.390	12.713503	-57.244747	87.290	-0.230	0.250	-1.090	87.410	-1.200	-0.700																			1580022064.0	0.80	1.48
26/01/2020 07:01:05	26012020	260120	070105	87.550	12.713505	-57.244748	87.460	-0.350	0.330	-1.170	87.580	-1.100	-0.800																			1580022065.0	0.42	0.78
26/01/2020 07:01:06	26012020	260120	070106	87.680	12.713505	-57.244748	87.580	-0.210	0.110	-0.800	87.690	-1.300	-0.500																			1580022066.0	0.20	0.37
26/01/2020 07:01:07	26012020	260120	070107	87.700	12.713502	-57.244747	87.610	0.060	-0.250	-0.060	87.690	-1.600	0.300																			1580022067.0	0.84	1.56
26/01/2020 07:01:08	26012020	260120	070108	87.640	12.713497	-57.244745	87.560	0.260	-0.460	0.780	87.620	-1.800	1.100																			1580022068.0	1.09	2.02
26/01/2020 07:01:09	26012020	260120	070109	87.540	12.713493	-57.244743	87.480	0.260	-0.390	1.480	87.540	-1.800	1.800																			1580022069.0	0.84	1.56
26/01/2020 07:01:10	26012020	260120	070110	87.440	12.713490	-57.244743	87.410	0.080	-0.210	1.940	87.420	-1.600	2.300																			1580022070.0	0.49	0.91
26/01/2020 07:01:11	26012020	260120	070111	87.370	12.713490	-57.244745	87.350	-0.080	-0.150	2.150	87.360	-1.500	2.500																			1580022071.0	0.26	0.48
26/01/2020 07:01:12	26012020	260120	070112	87.360	12.713488	-57.244743	87.360	-0.130	-0.200	2.090	87.360	-1.600	2.500																			1580022072.0	0.20	0.37
26/01/2020 07:01:13	26012020	260120	070113	87.380	12.713488	-57.244743	87.360	-0.120	-0.140	1.750	87.390	-1.600	2.200																			1580022073.0	0.24	0.44
26/01/2020 07:01:14	26012020	260120	070114	87.420	12.713490	-57.244743	87.410	-0.160	0.150	1.120	87.440	-1.300	1.600																			1580022074.0	0.26	0.48
26/01/2020 07:01:15	26012020	260120	070115	87.550	12.713493	-57.244743	87.520	-0.230	0.460	0.230	87.580	-1.000	0.700																			1580022075.0	0.69	1.28
26/01/2020 07:01:16	26012020	260120	070116	87.690	12.713497	-57.244745	87.630	-0.240	0.480	-0.670	87.710	-0.900	-0.200																			1580022076.0	1.02	1.89
26/01/2020 07:01:17	26012020	260120	070117	87.720	12.713502	-57.244747	87.590	-0.070	0.080	-1.220	87.700	-1.300	-0.800																			1580022077.0	0.96	1.78
26/01/2020 07:01:18	26012020	260120	070118	87.580	12.713505	-57.244745	87.440	0.210	-0.590	-1.360	87.550	-1.900	-1.000																			1580022078.0	0.78	1.44
26/01/2020 07:01:19	26012020	260120	070119	87.440	12.713507	-57.244742	87.320	0.470	-1.060	-1.180	87.440	-2.400	-0.800																			1580022079.0	0.69	1.28
26/01/2020 07:01:20	26012020	260120	070120	87.430	12.713507	-57.244740	87.340	0.530	-0.940	-0.720	87.450	-2.400	-0.400																			1580022080.0	0.36	0.67
26/01/2020 07:01:21	26012020	260120	070121	87.530	12.713505	-57.244740	87.460	0.340	-0.270	-0.010	87.550	-1.700	0.300																			1580022081.0	0.46	0.85
26/01/2020 07:01:22	26012020	260120	070122	87.610	12.713500	-57.244743	87.550	-0.010	0.500	0.870	87.610	-1.000	1.200																			1580022082.0	1.06	1.96
26/01/2020 07:01:23	26012020	260120	070123	87.570	12.713495	-57.244745	87.510	-0.300	0.770	1.700	87.550	-0.600	2.000																			1580022083.0	1.24	2.30
26/01/2020 07:01:24	26012020	260120	070124	87.480	12.713492	-57.244745	87.440	-0.370	0.400	2.240	87.460	-0.900	2.600																			1580022084.0	0.98	1.81
26/01/2020 07:01:25	26012020	260120	070125	87.450	12.713488	-57.244743	87.450	-0.240	-0.230	2.370	87.460	-1.600	2.700																			1580022085.0	0.75	1.39
26/01/2020 07:01:26	26012020	260120	070126	87.500	12.713488	-57.244740	87.500	-0.070	-0.610	2.110	87.520	-2.000	2.500																			1580022086.0	0.55	1.02
26/01/2020 07:01:27	26012020	260120	070127	87.590	12.713490	-57.244740	87.580	-0.010	-0.540	1.570	87.620	-2.000	2.000																			1580022087.0	0.37	0.69
26/01/2020 07:01:28	26012020	260120	070128	87.700	12.713493	-57.244742	87.660	-0.090	-0.200	0.790	87.730	-1.600	1.300																			1580022088.0	0.67	1.24
26/01/2020 07:01:29	26012020	260120	070129	87.780	12.713497	-57.244743	87.710	-0.170	0.110	-0.040	87.790	-1.300	0.400																			1580022089.0	0.95	1.76
26/01/2020 07:01:30	26012020	260120	070130	87.760	12.713500	-57.244745	87.680	-0.120	0.210	-0.650	87.750	-1.200	-0.200																			1580022090.0	0.88	1.63
26/01/2020 07:01:31	26012020	260120	070131	87.710	12.713503	-57.244745	87.610	0.060	0.070	-1.030	87.700	-1.300	-0.600																			1580022091.0	0.60	1.11
26/01/2020 07:01:32	26012020	260120	070132	87.710	12.713505	-57.244743	87.610	0.210	-0.160	-1.210	87.720	-1.500	-0.800																			1580022092.0	0.44	0.81
26/01/2020 07:01:33	26012020	260120	070133	87.740	12.713507	-57.244743	87.630	0.220	-0.300	-1.120	87.740	-1.700	-0.800																			1580022093.0	0.31	0.57
26/01/2020 07:01:34	26012020	260120	070134	87.700	12.713507	-57.244743	87.590	0.170	-0.330	-0.670	87.690	-1.700	-0.300																			1580022094.0	0.04	0.07
26/01/2020 07:01:35	26012020	260120	070135	87.610	12.713505	-57.244743	87.520	0.170	-0.340	0.020	87.600	-1.700	0.300																			1580022095.0	0.33	0.61
26/01/2020 07:01:36	26012020	260120	070136	87.560	12.713502	-57.244743	87.480	0.200	-0.330	0.800	87.550	-1.700	1.100																			1580022096.0	0.65	1.20
26/01/2020 07:01:37	26012020	260120	070137	87.550	12.713498	-57.244742	87.520	0.150	-0.210	1.570	87.560	-1.600	1.900																			1580022097.0	0.90	1.67
26/01/2020 07:01:38	26012020	260120	070138	87.620	12.713493	-57.244742	87.630	-0.010	0.060	2.080	87.650	-1.400	2.400																			1580022098.0	0.91	1.69
26/01/2020 07:01:39	26012020	260120	070139	87.740	12.713492	-57.244743	87.730	-0.200	0.360	2.170	87.750	-1.100	2.500																			1580022099.0	0.61	1.13
26/01/2020 07:01:40	26012020	260120	070140	87.730	12.713490	-57.244745	87.700	-0.310	0.440	1.960	87.720	-1.000	2.400																			1580022100.0	0.29	0.54
26/01/2020 07:01:41	26012020	260120	070141	87.630	12.713492	-57.244745	87.590	-0.310	0.160	1.500	87.610	-1.200	1.900																			1580022101.0	0.31	0.57
26/01/2020 07:01:42	26012020	260120	070142	87.580	12.713495	-57.244743	87.550	-0.200	-0.310	0.840	87.580	-1.700	1.300																			1580022102.0	0.62	1.15
26/01/2020 07:01:43	26012020	260120	070143	87.590	12.713498	-57.244742	87.530	-0.070	-0.610	0.140	87.590	-2.000	0.600																			1580022103.0	0.78	1.44
26/01/2020 07:01:44	26012020	260120	070144	87.560	12.713502	-57.244742	87.480	0.050	-0.590	-0.450	87.550	-2.000	-0.000																			1580022104.0	0.67	1.24
26/01/2020 07:01:45	26012020	260120	070145	87.480	12.713503	-57.244743	87.380	0.140	-0.360	-0.910	87.460	-1.800	-0.500																			1580022105.0	0.58	1.07
26/01/2020 07:01:46	26012020	260120	070146	87.370	12.713507	-57.244743	87.250	0.190	-0.060	-1.170	87.350	-1.500	-0.800																			1580022106.0	0.54	1.00
26/01/2020 07:01:47	26012020	260120	070147	87.280	12.713508	-57.244745	87.170	0.180	0.170	-1.130	87.260	-1.200	-0.800																			1580022107.0	0.43	0.80
26/01/2020 07:01:48	26012020	260120	070148	87.260	12.713508	-57.244747	87.160	0.140	0.250	-0.790	87.260	-1.100	-0.400																			1580022108.0	0.19	0.35
26/01/2020 07:01:49	26012020	260120	070149	87.280	12.713507	-57.244747	87.190	0.110	0.050	-0.190	87.270	-1.300	0.100																			1580022109.0	0.25	0.46
26/01/2020 07:01:50	26012020	260120	070150	87.250	12.713505	-57.244745	87.180	0.110	-0.330	0.510	87.240	-1.700	0.800																			1580022110.0	0.57	1.06
26/01/2020 07:01:51	26012020	260120	070151	87.190	12.713502	-57.244742	87.150	0.130	-0.570	1.190	87.180	-1.900	1.500																			1580022111.0	0.76	1.41
26/01/2020 07:01:52	26012020	260120	070152	87.090	12.713498	-57.244742	87.050	0.060	-0.390	1.860	87.070	-1.800	2.200																			1580022112.0	0.82	1.52
26/01/2020 07:01:53	26012020	260120	070153	86.970	12.713495	-57.244743	86.950	-0.130	0.160	2.340	86.960	-1.300	2.700																			1580022113.0	0.89	1.65
26/01/2020 07:01:54	26012020	260120	070154	86.920	12.713492	-57.244745	86.920	-0.360	0.610	2.410	86.930	-0.800	2.800																			1580022114.0	0.83	1.54
26/01/2020 07:01:55	26012020	260120	070155	87.000	12.713492	-57.244747	87.010	-0.410	0.480	1.970	87.030	-0.900	2.400																			1580022115.0	0.42	0.78
26/01/2020 07:01:56	26012020	260120	070156	87.100	12.713493	-57.244747	87.080	-0.200	-0.160	1.240	87.110	-1.500	1.700																			1580022116.0	0.54	1.00
26/01/2020 07:01:57	26012020	260120	070157	87.080	12.713498	-57.244745	87.020	0.120	-0.800	0.440	87.080	-2.100	0.900																			1580022117.0	0.96	1.78
26/01/2020 07:01:58	26012020	260120	070158	86.960	12.713502	-57.244742	86.870	0.260	-0.920	-0.290	86.940	-2.300	0.200																			1580022118.0	0.95	1.76
26/01/2020 07:01:59	26012020	260120	070159	86.810	12.713505	-57.244743	86.700	0.160	-0.430	-0.760	86.810	-1.900	-0.300																			1580022119.0	0.73	1.35
26/01/2020 07:02:00	26012020	260120	070200	86.660	12.713507	-57.244747	86.550	-0.010	0.250	-0.930	86.640	-1.200	-0.500	1013.90	25.60	25.60	19.90	20.00	-1.00	70.00	71.00	420.00	25.40	359.00	5.90	86.00	5.60	15	3169.00	27.40	27.40	1580022120.0	0.83	1.54
26/01/2020 07:02:01	26012020	260120	070201	86.570	12.713508	-57.244750	86.470	-0.050	0.570	-0.920	86.560	-0.800	-0.500																			1580022121.0	0.74	1.37
26/01/2020 07:02:02	26012020	260120	070202	86.580	12.713510	-57.244750	86.490	0.060	0.340	-0.820	86.590	-1.000	-0.400																			1580022122.0	0.33	0.61
26/01/2020 07:02:03	26012020	260120	070203	86.660	12.713510	-57.244748	86.570	0.200	-0.220	-0.570	86.670	-1.500	-0.200																			1580022123.0	0.34	0.63
26/01/2020 07:02:04	26012020	260120	070204	86.690	12.713510	-57.244747	86.600	0.190	-0.650	-0.020	86.680	-2.000	0.300																			1580022124.0	0.55	1.02
26/01/2020 07:02:05	26012020	260120	070205	86.620	12.713507	-57.244745	86.540	0.040	-0.700	0.810	86.610	-2.100	1.100																			1580022125.0	0.74	1.37
26/01/2020 07:02:06	26012020	260120	070206	86.520	12.713502	-57.244745	86.460	-0.150	-0.410	1.720	86.500	-1.800	2.000																			1580022126.0	1.10	2.04
26/01/2020 07:02:07	26012020	260120	070207	86.410	12.713495	-57.244747	86.370	-0.280	0.120	2.390	86.390	-1.300	2.700																			1580022127.0	1.26	2.33
26/01/2020 07:02:08	26012020	260120	070208	86.290	12.713492	-57.244748	86.240	-0.310	0.560	2.590	86.260	-0.800	3.000																			1580022128.0	1.01	1.87
26/01/2020 07:02:09	26012020	260120	070209	86.170	12.713490	-57.244750	86.130	-0.190	0.550	2.230	86.170	-0.800	2.700																			1580022129.0	0.39	0.72
26/01/2020 07:02:10	26012020	260120	070210	86.180	12.713493	-57.244750	86.150	0.070	0.070	1.370	86.200	-1.300	1.800																			1580022130.0	0.67	1.24
26/01/2020 07:02:11	26012020	260120	070211	86.330	12.713500	-57.244748	86.290	0.310	-0.490	0.200	86.370	-1.800	0.700																			1580022131.0	1.33	2.46
26/01/2020 07:02:12	26012020	260120	070212	86.520	12.713507	-57.244747	86.450	0.330	-0.620	-0.870	86.550	-2.000	-0.400																			1580022132.0	1.51	2.80
26/01/2020 07:02:13	26012020	260120	070213	86.570	12.713512	-57.244748	86.430	0.100	-0.310	-1.420	86.550	-1.700	-1.000																			1580022133.0	1.24	2.30
26/01/2020 07:02:14	26012020	260120	070214	86.360	12.713515	-57.244752	86.180	-0.160	-0.020	-1.350	86.300	-1.400	-1.000																			1580022134.0	0.81	1.50
26/01/2020 07:02:15	26012020	260120	070215	86.040	12.713515	-57.244753	85.870	-0.250	-0.050	-0.930	85.990	-1.400	-0.600																			1580022135.0	0.30	0.56
26/01/2020 07:02:16	26012020	260120	070216	85.830	12.713513	-57.244752	85.700	-0.160	-0.250	-0.340	85.800	-1.600	-0.000																			1580022136.0	0.43	0.80
26/01/2020 07:02:17	26012020	260120	070217	85.780	12.713510	-57.244752	85.700	-0.040	-0.270	0.340	85.790	-1.700	0.600																			1580022137.0	0.75	1.39
26/01/2020 07:02:18	26012020	260120	070218	85.910	12.713505	-57.244752	85.880	-0.030	-0.030	0.930	85.950	-1.400	1.300																			1580022138.0	0.86	1.59
26/01/2020 07:02:19	26012020	260120	070219	86.120	12.713502	-57.244752	86.100	-0.050	0.180	1.300	86.160	-1.200	1.600																			1580022139.0	0.80	1.48
26/01/2020 07:02:20	26012020	260120	070220	86.230	12.713500	-57.244753	86.180	0.040	0.080	1.480	86.240	-1.300	1.800																			1580022140.0	0.43	0.80
26/01/2020 07:02:21	26012020	260120	070221	86.180	12.713500	-57.244752	86.090	0.190	-0.200	1.560	86.140	-1.600	1.900																			1580022141.0	0.17	0.31
26/01/2020 07:02:22	26012020	260120	070222	85.980	12.713500	-57.244752	85.890	0.250	-0.370	1.580	85.940	-1.700	2.000																			1580022142.0	0.24	0.44
26/01/2020 07:02:23	26012020	260120	070223	85.810	12.713500	-57.244752	85.750	0.080	-0.250	1.400	85.810	-1.600	1.800																			1580022143.0	0.09	0.17
26/01/2020 07:02:24	26012020	260120	070224	85.840	12.713502	-57.244753	85.810	-0.180	-0.020	0.910	85.860	-1.400	1.400																			1580022144.0	0.45	0.83
26/01/2020 07:02:25	26012020	260120	070225	86.000	12.713505	-57.244755	85.960	-0.300	0.040	0.190	86.030	-1.300	0.600																			1580022145.0	0.75	1.39
26/01/2020 07:02:26	26012020	260120	070226	86.140	12.713508	-57.244755	86.070	-0.130	-0.100	-0.470	86.160	-1.500	-0.000																			1580022146.0	0.86	1.59
26/01/2020 07:02:27	26012020	260120	070227	86.160	12.713512	-57.244755	86.050	0.160	-0.200	-0.850	86.140	-1.600	-0.400																			1580022147.0	0.67	1.24
26/01/2020 07:02:28	26012020	260120	070228	86.070	12.713513	-57.244755	85.950	0.330	-0.130	-0.910	86.040	-1.500	-0.500																			1580022148.0	0.33	0.61
26/01/2020 07:02:29	26012020	260120	070229	85.950	12.713513	-57.244755	85.850	0.280	-0.000	-0.710	85.940	-1.400	-0.300																			1580022149.0	0.18	0.33
26/01/2020 07:02:30	26012020	260120	070230	85.960	12.713513	-57.244757	85.890	0.070	0.030	-0.390	85.970	-1.400	-0.000																			1580022150.0	0.21	0.39
26/01/2020 07:02:31	26012020	260120	070231	86.090	12.713513	-57.244757	86.040	-0.120	0.000	0.050	86.120	-1.400	0.400																			1580022151.0	0.14	0.26
26/01/2020 07:02:32	26012020	260120	070232	86.210	12.713512	-57.244757	86.160	-0.210	-0.060	0.690	86.220	-1.400	1.000																			1580022152.0	0.37	0.69
26/01/2020 07:02:33	26012020	260120	070233	86.230	12.713508	-57.244758	86.160	-0.210	-0.200	1.410	86.220	-1.600	1.700																			1580022153.0	0.84	1.56
26/01/2020 07:02:34	26012020	260120	070234	86.140	12.713503	-57.244757	86.080	-0.170	-0.350	2.030	86.120	-1.700	2.400																			1580022154.0	1.11	2.06
26/01/2020 07:02:35	26012020	260120	070235	86.020	12.713498	-57.244757	85.980	-0.150	-0.430	2.350	86.020	-1.800	2.700																			1580022155.0	0.95	1.76
26/01/2020 07:02:36	26012020	260120	070236	85.910	12.713497	-57.244757	85.880	-0.120	-0.330	2.300	85.890	-1.700	2.700																			1580022156.0	0.45	0.83
26/01/2020 07:02:37	26012020	260120	070237	85.840	12.713497	-57.244758	85.810	0.020	-0.160	1.810	85.840	-1.600	2.300																			1580022157.0	0.22	0.41
26/01/2020 07:02:38	26012020	260120	070238	85.850	12.713500	-57.244758	85.810	0.220	-0.090	0.920	85.860	-1.500	1.400																			1580022158.0	0.77	1.43
26/01/2020 07:02:39	26012020	260120	070239	85.920	12.713507	-57.244758	85.850	0.350	-0.090	-0.200	85.940	-1.500	0.300																			1580022159.0	1.29	2.39
26/01/2020 07:02:40	26012020	260120	070240	86.000	12.713513	-57.244760	85.910	0.300	0.010	-1.300	86.010	-1.400	-0.800																			1580022160.0	1.59	2.94
26/01/2020 07:02:41	26012020	260120	070241	86.050	12.713520	-57.244760	85.930	0.090	0.230	-1.970	86.060	-1.200	-1.500																			1580022161.0	1.46	2.70
26/01/2020 07:02:42	26012020	260120	070242	86.050	12.713525	-57.244763	85.910	-0.080	0.340	-1.990	86.050	-1.000	-1.600																			1580022162.0	0.87	1.61
26/01/2020 07:02:43	26012020	260120	070243	86.060	12.713523	-57.244763	85.930	-0.130	0.200	-1.420	86.070	-1.200	-1.100																			1580022163.0	0.25	0.46
26/01/2020 07:02:44	26012020	260120	070244	86.090	12.713522	-57.244763	85.980	-0.090	-0.130	-0.510	86.090	-1.500	-0.200																			1580022164.0	0.71	1.31
26/01/2020 07:02:45	26012020	260120	070245	86.070	12.713517	-57.244763	85.960	-0.040	-0.430	0.510	86.050	-1.800	0.800																			1580022165.0	1.02	1.89
26/01/2020 07:02:46	26012020	260120	070246	85.970	12.713512	-57.244763	85.900	-0.050	-0.580	1.500	85.940	-2.000	1.800																			1580022166.0	1.08	2.00
26/01/2020 07:02:47	26012020	260120	070247	85.820	12.713507	-57.244763	85.770	-0.090	-0.570	2.450	85.820	-2.000	2.700																			1580022167.0	1.13	2.09
26/01/2020 07:02:48	26012020	260120	070248	85.660	12.713502	-57.244763	85.630	-0.090	-0.480	3.180	85.630	-1.900	3.500																			1580022168.0	1.07	1.98
26/01/2020 07:02:49	26012020	260120	070249	85.590	12.713498	-57.244763	85.600	-0.100	-0.240	3.280	85.600	-1.700	3.700																			1580022169.0	0.72	1.33
26/01/2020 07:02:50	26012020	260120	070250	85.690	12.713497	-57.244763	85.700	-0.140	0.160	2.580	85.720	-1.300	3.000																			1580022170.0	0.19	0.35
26/01/2020 07:02:51	26012020	260120	070251	85.830	12.713500	-57.244765	85.800	-0.190	0.520	1.360	85.840	-0.900	1.900																			1580022171.0	0.86	1.59
26/01/2020 07:02:52	26012020	260120	070252	85.840	12.713507	-57.244768	85.760	-0.110	0.500	-0.010	85.830	-0.900	0.500																			1580022172.0	1.39	2.57
26/01/2020 07:02:53	26012020	260120	070253	85.760	12.713515	-57.244768	85.640	0.160	0.030	-1.270	85.740	-1.300	-0.800																			1580022173.0	1.64	3.04
26/01/2020 07:02:54	26012020	260120	070254	85.720	12.713522	-57.244767	85.600	0.470	-0.510	-2.290	85.730	-1.900	-1.800																			1580022174.0	1.75	3.24
26/01/2020 07:02:55	26012020	260120	070255	85.840	12.713530	-57.244765	85.720	0.530	-0.600	-2.870	85.880	-2.000	-2.400																			1580022175.0	1.49	2.76
26/01/2020 07:02:56	26012020	260120	070256	86.020	12.713533	-57.244767	85.900	0.250	-0.210	-2.760	86.060	-1.600	-2.400																			1580022176.0	0.87	1.61
26/01/2020 07:02:57	26012020	260120	070257	86.100	12.713532	-57.244768	85.950	-0.160	0.180	-1.840	86.090	-1.200	-1.500																			1580022177.0	0.64	1.19
26/01/2020 07:02:58	26012020	260120	070258	85.970	12.713527	-57.244770	85.810	-0.390	0.150	-0.270	85.920	-1.200	-0.000																			1580022178.0	1.33	2.46
26/01/2020 07:02:59	26012020	260120	070259	85.710	12.713517	-57.244770	85.570	-0.340	-0.280	1.540	85.660	-1.600	1.800																			1580022179.0	2.04	3.78
26/01/2020 07:03:00	26012020	260120	070300	85.490	12.713507	-57.244767	85.420	-0.170	-0.640	3.100	85.460	-2.000	3.400	1013.90	25.60	25.60	19.90	19.90	-1.00	70.00	70.00	420.00	25.40	3.00	5.70	89.00	5.40	15	3277.00	27.40	27.40	1580022180.0	2.21	4.09
26/01/2020 07:03:01	26012020	260120	070301	85.470	12.713500	-57.244765	85.500	-0.090	-0.510	3.940	85.500	-1.900	4.300																			1580022181.0	1.67	3.09
26/01/2020 07:03:02	26012020	260120	070302	85.680	12.713497	-57.244765	85.730	-0.100	0.030	3.860	85.740	-1.400	4.300																			1580022182.0	0.82	1.52
26/01/2020 07:03:03	26012020	260120	070303	85.930	12.713497	-57.244768	85.960	-0.050	0.410	3.020	85.970	-1.000	3.500																			1580022183.0	0.64	1.19
26/01/2020 07:03:04	26012020	260120	070304	86.060	12.713502	-57.244770	86.030	0.130	0.270	1.730	86.070	-1.100	2.200																			1580022184.0	1.11	2.06
26/01/2020 07:03:05	26012020	260120	070305	86.080	12.713510	-57.244770	86.010	0.310	-0.130	0.260	86.080	-1.500	0.800																			1580022185.0	1.62	3.00
26/01/2020 07:03:06	26012020	260120	070306	86.110	12.713518	-57.244768	86.000	0.300	-0.280	-1.130	86.110	-1.700	-0.600																			1580022186.0	1.81	3.35
26/01/2020 07:03:07	26012020	260120	070307	86.160	12.713525	-57.244770	86.010	0.080	-0.090	-2.230	86.170	-1.500	-1.800																			1580022187.0	1.66	3.07
26/01/2020 07:03:08	26012020	260120	070308	86.190	12.713530	-57.244773	86.020	-0.150	0.110	-2.780	86.180	-1.300	-2.400																			1580022188.0	1.29	2.39
26/01/2020 07:03:09	26012020	260120	070309	86.140	12.713532	-57.244775	85.960	-0.190	-0.050	-2.580	86.120	-1.400	-2.200																			1580022189.0	0.58	1.07
26/01/2020 07:03:10	26012020	260120	070310	86.060	12.713530	-57.244775	85.900	-0.050	-0.470	-1.790	86.050	-1.800	-1.500																			1580022190.0	0.39	0.72
26/01/2020 07:03:11	26012020	260120	070311	85.990	12.713527	-57.244772	85.840	0.080	-0.730	-0.650	85.970	-2.100	-0.400																			1580022191.0	1.02	1.89
26/01/2020 07:03:12	26012020	260120	070312	85.920	12.713520	-57.244772	85.820	0.050	-0.580	0.630	85.910	-2.000	0.900																			1580022192.0	1.28	2.37
26/01/2020 07:03:13	26012020	260120	070313	85.910	12.713513	-57.244772	85.860	-0.060	-0.200	1.810	85.910	-1.600	2.100																			1580022193.0	1.41	2.61
26/01/2020 07:03:14	26012020	260120	070314	85.920	12.713508	-57.244773	85.900	-0.110	0.160	2.740	85.930	-1.300	3.000																			1580022194.0	1.31	2.43
26/01/2020 07:03:15	26012020	260120	070315	85.960	12.713503	-57.244775	85.950	-0.090	0.430	3.210	85.960	-1.000	3.600																			1580022195.0	0.98	1.81
26/01/2020 07:03:16	26012020	260120	070316	86.020	12.713502	-57.244775	86.030	-0.080	0.540	3.050	86.050	-0.900	3.500																			1580022196.0	0.44	0.81
26/01/2020 07:03:17	26012020	260120	070317	86.110	12.713503	-57.244777	86.100	-0.100	0.390	2.360	86.120	-1.000	2.800																			1580022197.0	0.32	0.59
26/01/2020 07:03:18	26012020	260120	070318	86.120	12.713507	-57.244777	86.070	-0.060	0.020	1.390	86.120	-1.300	1.900																			1580022198.0	0.79	1.46
26/01/2020 07:03:19	26012020	260120	070319	86.050	12.713512	-57.244777	85.960	0.070	-0.360	0.350	86.030	-1.700	0.800																			1580022199.0	1.12	2.07
26/01/2020 07:03:20	26012020	260120	070320	85.940	12.713518	-57.244777	85.800	0.220	-0.600	-0.630	85.910	-2.000	-0.100																			1580022200.0	1.29	2.39
26/01/2020 07:03:21	26012020	260120	070321	85.820	12.713523	-57.244777	85.660	0.320	-0.660	-1.410	85.790	-2.000	-1.000																			1580022201.0	1.29	2.39
26/01/2020 07:03:22	26012020	260120	070322	85.680	12.713528	-57.244778	85.500	0.300	-0.560	-1.810	85.650	-2.000	-1.400																			1580022202.0	1.04	1.93
26/01/2020 07:03:23	26012020	260120	070323	85.540	12.713532	-57.244778	85.380	0.170	-0.370	-1.760	85.520	-1.800	-1.400																			1580022203.0	0.56	1.04
26/01/2020 07:03:24	26012020	260120	070324	85.460	12.713530	-57.244778	85.320	-0.030	-0.070	-1.230	85.450	-1.500	-0.900																			1580022204.0	0.07	0.13
26/01/2020 07:03:25	26012020	260120	070325	85.470	12.713527	-57.244780	85.380	-0.250	0.260	-0.420	85.490	-1.200	-0.100																			1580022205.0	0.71	1.31
26/01/2020 07:03:26	26012020	260120	070326	85.590	12.713523	-57.244780	85.510	-0.420	0.450	0.430	85.610	-1.000	0.700																			1580022206.0	1.00	1.85
26/01/2020 07:03:27	26012020	260120	070327	85.710	12.713518	-57.244780	85.640	-0.440	0.360	1.170	85.730	-1.000	1.500																			1580022207.0	0.98	1.81
26/01/2020 07:03:28	26012020	260120	070328	85.790	12.713513	-57.244778	85.740	-0.270	0.070	1.780	85.800	-1.300	2.100																			1580022208.0	0.87	1.61
26/01/2020 07:03:29	26012020	260120	070329	85.890	12.713512	-57.244777	85.870	-0.020	-0.190	2.150	85.920	-1.600	2.500																			1580022209.0	0.75	1.39
26/01/2020 07:03:30	26012020	260120	070330	86.030	12.713508	-57.244777	86.030	0.150	-0.340	2.210	86.060	-1.700	2.600																			1580022210.0	0.47	0.87
26/01/2020 07:03:31	26012020	260120	070331	86.120	12.713508	-57.244777	86.080	0.160	-0.360	1.980	86.120	-1.800	2.400																			1580022211.0	0.09	0.17
26/01/2020 07:03:32	26012020	260120	070332	86.070	12.713510	-57.244777	86.000	0.140	-0.330	1.500	86.050	-1.700	1.900																			1580022212.0	0.31	0.57
26/01/2020 07:03:33	26012020	260120	070333	85.960	12.713513	-57.244777	85.870	0.190	-0.300	0.780	85.940	-1.700	1.300																			1580022213.0	0.68	1.26
26/01/2020 07:03:34	26012020	260120	070334	85.920	12.713518	-57.244777	85.840	0.270	-0.180	-0.120	85.940	-1.600	0.400																			1580022214.0	1.04	1.93
26/01/2020 07:03:35	26012020	260120	070335	86.050	12.713523	-57.244778	85.970	0.260	0.010	-0.980	86.090	-1.400	-0.500																			1580022215.0	1.29	2.39
26/01/2020 07:03:36	26012020	260120	070336	86.290	12.713530	-57.244778	86.190	0.120	0.150	-1.510	86.340	-1.300	-1.100																			1580022216.0	1.19	2.20
26/01/2020 07:03:37	26012020	260120	070337	86.480	12.713532	-57.244778	86.360	-0.010	0.070	-1.560	86.480	-1.300	-1.200																			1580022217.0	0.69	1.28
26/01/2020 07:03:38	26012020	260120	070338	86.480	12.713532	-57.244778	86.330	-0.050	-0.210	-1.070	86.460	-1.600	-0.700																			1580022218.0	0.17	0.31
26/01/2020 07:03:39	26012020	260120	070339	86.290	12.713528	-57.244777	86.140	-0.060	-0.480	-0.150	86.250	-1.900	0.200																			1580022219.0	0.83	1.54
26/01/2020 07:03:40	26012020	260120	070340	86.090	12.713523	-57.244775	86.000	-0.160	-0.490	0.940	86.070	-1.900	1.200																			1580022220.0	1.21	2.24
26/01/2020 07:03:41	26012020	260120	070341	86.060	12.713518	-57.244773	86.030	-0.340	-0.150	1.940	86.080	-1.600	2.300																			1580022221.0	1.31	2.43
26/01/2020 07:03:42	26012020	260120	070342	86.200	12.713512	-57.244775	86.220	-0.440	0.250	2.530	86.240	-1.200	2.900																			1580022222.0	1.18	2.19
26/01/2020 07:03:43	26012020	260120	070343	86.380	12.713510	-57.244777	86.390	-0.330	0.360	2.530	86.410	-1.000	2.900																			1580022223.0	0.68	1.26
26/01/2020 07:03:44	26012020	260120	070344	86.530	12.713510	-57.244775	86.520	-0.050	0.180	1.980	86.560	-1.200	2.400																			1580022224.0	0.05	0.09
26/01/2020 07:03:45	26012020	260120	070345	86.660	12.713512	-57.244775	86.620	0.230	-0.040	1.150	86.680	-1.400	1.600																			1580022225.0	0.67	1.24
26/01/2020 07:03:46	26012020	260120	070346	86.730	12.713517	-57.244775	86.660	0.350	-0.130	0.330	86.730	-1.500	0.800																			1580022226.0	0.97	1.80
26/01/2020 07:03:47	26012020	260120	070347	86.690	12.713522	-57.244777	86.590	0.330	-0.180	-0.400	86.680	-1.600	0.100																			1580022227.0	1.15	2.13
26/01/2020 07:03:48	26012020	260120	070348	86.630	12.713528	-57.244777	86.510	0.280	-0.340	-1.050	86.620	-1.700	-0.600																			1580022228.0	1.27	2.35
26/01/2020 07:03:49	26012020	260120	070349	86.580	12.713533	-57.244777	86.440	0.260	-0.610	-1.420	86.570	-2.000	-1.000																			1580022229.0	1.14	2.11
26/01/2020 07:03:50	26012020	260120	070350	86.550	12.713537	-57.244775	86.410	0.160	-0.750	-1.320	86.540	-2.100	-0.900																			1580022230.0	0.61	1.13
26/01/2020 07:03:51	26012020	260120	070351	86.510	12.713535	-57.244775	86.390	-0.080	-0.550	-0.750	86.500	-2.000	-0.400																			1580022231.0	0.37	0.69
26/01/2020 07:03:52	26012020	260120	070352	86.500	12.713530	-57.244775	86.410	-0.380	-0.030	0.070	86.510	-1.500	0.400																			1580022232.0	1.02	1.89
26/01/2020 07:03:53	26012020	260120	070353	86.610	12.713523	-57.244777	86.570	-0.550	0.550	0.760	86.640	-0.900	1.100																			1580022233.0	1.28	2.37
26/01/2020 07:03:54	26012020	260120	070354	86.800	12.713518	-57.244777	86.770	-0.440	0.780	1.190	86.840	-0.600	1.600																			1580022234.0	1.11	2.06
26/01/2020 07:03:55	26012020	260120	070355	86.950	12.713517	-57.244777	86.910	-0.080	0.460	1.330	86.970	-0.900	1.700																			1580022235.0	0.62	1.15
26/01/2020 07:03:56	26012020	260120	070356	86.990	12.713515	-57.244775	86.940	0.310	-0.120	1.280	86.990	-1.500	1.700																			1580022236.0	0.47	0.87
26/01/2020 07:03:57	26012020	260120	070357	87.000	12.713517	-57.244773	86.950	0.470	-0.530	1.010	87.010	-1.900	1.400																			1580022237.0	0.60	1.11
26/01/2020 07:03:58	26012020	260120	070358	87.090	12.713520	-57.244772	87.040	0.320	-0.500	0.550	87.120	-1.900	1.000																			1580022238.0	0.77	1.43
26/01/2020 07:03:59	26012020	260120	070359	87.200	12.713525	-57.244773	87.130	0.020	-0.160	0.170	87.220	-1.600	0.600																			1580022239.0	0.94	1.74
26/01/2020 07:04:00	26012020	260120	070400	87.220	12.713527	-57.244777	87.120	-0.210	0.130	0.030	87.200	-1.300	0.400	1013.90	25.60	25.60	19.80	19.90	-1.00	70.00	70.00	419.00	25.30	3.00	5.40	90.00	5.00	15	3300.00	27.40	27.40	1580022240.0	0.71	1.31
26/01/2020 07:04:01	26012020	260120	070401	87.080	12.713527	-57.244778	86.950	-0.240	0.010	0.090	87.030	-1.400	0.500																			1580022241.0	0.26	0.48
26/01/2020 07:04:02	26012020	260120	070402	86.800	12.713525	-57.244777	86.670	-0.130	-0.490	0.310	86.750	-1.900	0.700																			1580022242.0	0.47	0.87
26/01/2020 07:04:03	26012020	260120	070403	86.580	12.713523	-57.244773	86.490	-0.020	-0.870	0.520	86.570	-2.300	0.900																			1580022243.0	0.84	1.56
26/01/2020 07:04:04	26012020	260120	070404	86.610	12.713522	-57.244770	86.570	-0.010	-0.630	0.530	86.640	-2.100	0.900																			1580022244.0	0.56	1.04
26/01/2020 07:04:05	26012020	260120	070405	86.800	12.713522	-57.244772	86.760	-0.010	0.080	0.330	86.840	-1.400	0.800																			1580022245.0	0.19	0.35
26/01/2020 07:04:06	26012020	260120	070406	86.980	12.713522	-57.244773	86.920	0.070	0.620	0.110	87.010	-0.800	0.500																			1580022246.0	0.53	0.98
26/01/2020 07:04:07	26012020	260120	070407	87.040	12.713523	-57.244775	86.960	0.190	0.600	-0.010	87.040	-0.800	0.400																			1580022247.0	0.28	0.52
26/01/2020 07:04:08	26012020	260120	070408	87.000	12.713525	-57.244773	86.890	0.240	0.250	0.040	86.970	-1.100	0.400																			1580022248.0	0.33	0.61
26/01/2020 07:04:09	26012020	260120	070409	86.830	12.713525	-57.244772	86.700	0.160	-0.110	0.260	86.770	-1.500	0.600																			1580022249.0	0.34	0.63
26/01/2020 07:04:10	26012020	260120	070410	86.570	12.713525	-57.244772	86.460	-0.030	-0.320	0.560	86.520	-1.700	0.900																			1580022250.0	0.17	0.31
26/01/2020 07:04:11	26012020	260120	070411	86.420	12.713523	-57.244772	86.360	-0.220	-0.390	0.810	86.420	-1.800	1.200																			1580022251.0	0.16	0.30
26/01/2020 07:04:12	26012020	260120	070412	86.440	12.713523	-57.244772	86.390	-0.300	-0.380	0.950	86.450	-1.800	1.300																			1580022252.0	0.23	0.43
26/01/2020 07:04:13	26012020	260120	070413	86.480	12.713522	-57.244772	86.440	-0.190	-0.360	0.990	86.490	-1.800	1.400																			1580022253.0	0.30	0.56
26/01/2020 07:04:14	26012020	260120	070414	86.470	12.713520	-57.244772	86.400	0.000	-0.350	0.920	86.450	-1.800	1.300																			1580022254.0	0.31	0.57
26/01/2020 07:04:15	26012020	260120	070415	86.380	12.713520	-57.244772	86.290	0.150	-0.280	0.720	86.350	-1.700	1.100																			1580022255.0	0.18	0.33
26/01/2020 07:04:16	26012020	260120	070416	86.290	12.713520	-57.244772	86.200	0.170	-0.080	0.400	86.280	-1.500	0.800																			1580022256.0	0.15	0.28
26/01/2020 07:04:17	26012020	260120	070417	86.240	12.713522	-57.244772	86.140	0.100	0.160	0.020	86.230	-1.300	0.500																			1580022257.0	0.48	0.89
26/01/2020 07:04:18	26012020	260120	070418	86.180	12.713525	-57.244772	86.050	0.040	0.260	-0.350	86.170	-1.200	0.100																			1580022258.0	0.65	1.20
26/01/2020 07:04:19	26012020	260120	070419	86.180	12.713528	-57.244773	86.070	0.010	0.160	-0.730	86.190	-1.200	-0.300																			1580022259.0	0.65	1.20
26/01/2020 07:04:20	26012020	260120	070420	86.310	12.713530	-57.244772	86.210	0.020	-0.070	-0.970	86.340	-1.500	-0.600																			1580022260.0	0.54	1.00
26/01/2020 07:04:21	26012020	260120	070421	86.440	12.713532	-57.244772	86.310	0.020	-0.290	-0.860	86.450	-1.700	-0.500																			1580022261.0	0.28	0.52
26/01/2020 07:04:22	26012020	260120	070422	86.450	12.713530	-57.244770	86.310	-0.030	-0.360	-0.330	86.440	-1.800	0.000																			1580022262.0	0.42	0.78
26/01/2020 07:04:23	26012020	260120	070423	86.410	12.713527	-57.244770	86.300	-0.140	-0.260	0.430	86.400	-1.700	0.700																			1580022263.0	0.87	1.61
26/01/2020 07:04:24	26012020	260120	070424	86.330	12.713520	-57.244770	86.230	-0.220	-0.060	1.180	86.310	-1.500	1.500																			1580022264.0	1.11	2.06
26/01/2020 07:04:25	26012020	260120	070425	86.230	12.713517	-57.244770	86.140	-0.160	0.080	1.690	86.210	-1.300	2.100																			1580022265.0	1.00	1.85
26/01/2020 07:04:26	26012020	260120	070426	86.180	12.713513	-57.244770	86.110	0.030	0.050	1.830	86.180	-1.400	2.200																			1580022266.0	0.61	1.13
26/01/2020 07:04:27	26012020	260120	070427	86.200	12.713513	-57.244770	86.130	0.240	-0.110	1.650	86.200	-1.500	2.100																			1580022267.0	0.16	0.30
26/01/2020 07:04:28	26012020	260120	070428	86.290	12.713515	-57.244768	86.230	0.390	-0.320	1.190	86.310	-1.700	1.600																			1580022268.0	0.52	0.96
26/01/2020 07:04:29	26012020	260120	070429	86.430	12.713518	-57.244768	86.370	0.400	-0.450	0.550	86.430	-1.900	1.000																			1580022269.0	0.90	1.67
26/01/2020 07:04:30	26012020	260120	070430	86.510	12.713523	-57.244767	86.410	0.260	-0.360	-0.000	86.510	-1.800	0.400																			1580022270.0	0.94	1.74
26/01/2020 07:04:31	26012020	260120	070431	86.460	12.713527	-57.244767	86.340	-0.040	0.010	-0.180	86.440	-1.400	0.200																			1580022271.0	0.59	1.09
26/01/2020 07:04:32	26012020	260120	070432	86.360	12.713527	-57.244768	86.240	-0.380	0.450	-0.080	86.350	-1.000	0.300																			1580022272.0	0.35	0.65
26/01/2020 07:04:33	26012020	260120	070433	86.330	12.713525	-57.244770	86.220	-0.570	0.520	0.050	86.330	-0.900	0.400																			1580022273.0	0.43	0.80
26/01/2020 07:04:34	26012020	260120	070434	86.340	12.713523	-57.244770	86.230	-0.450	0.030	0.200	86.340	-1.300	0.600																			1580022274.0	0.34	0.63
26/01/2020 07:04:35	26012020	260120	070435	86.310	12.713522	-57.244767	86.190	-0.080	-0.660	0.440	86.300	-2.000	0.800																			1580022275.0	0.73	1.35
26/01/2020 07:04:36	26012020	260120	070436	86.280	12.713520	-57.244763	86.180	0.280	-0.940	0.650	86.280	-2.300	1.000																			1580022276.0	0.79	1.46
26/01/2020 07:04:37	26012020	260120	070437	86.280	12.713518	-57.244763	86.200	0.430	-0.570	0.760	86.290	-2.000	1.100																			1580022277.0	0.30	0.56
26/01/2020 07:04:38	26012020	260120	070438	86.300	12.713518	-57.244765	86.230	0.340	0.080	0.780	86.310	-1.400	1.200																			1580022278.0	0.38	0.70
26/01/2020 07:04:39	26012020	260120	070439	86.380	12.713520	-57.244767	86.310	0.150	0.520	0.660	86.400	-0.900	1.100																			1580022279.0	0.54	1.00
26/01/2020 07:04:40	26012020	260120	070440	86.460	12.713522	-57.244768	86.380	0.020	0.520	0.460	86.480	-0.900	0.900																			1580022280.0	0.40	0.74
26/01/2020 07:04:41	26012020	260120	070441	86.520	12.713523	-57.244768	86.440	-0.030	0.210	0.250	86.530	-1.200	0.700																			1580022281.0	0.41	0.76
26/01/2020 07:04:42	26012020	260120	070442	86.570	12.713525	-57.244767	86.490	-0.060	-0.170	0.070	86.580	-1.500	0.500																			1580022282.0	0.44	0.81
26/01/2020 07:04:43	26012020	260120	070443	86.570	12.713525	-57.244765	86.470	-0.090	-0.500	0.060	86.560	-1.900	0.400																			1580022283.0	0.27	0.50
26/01/2020 07:04:44	26012020	260120	070444	86.520	12.713525	-57.244765	86.420	-0.100	-0.700	0.240	86.510	-2.100	0.600																			1580022284.0	0.26	0.48
26/01/2020 07:04:45	26012020	260120	070445	86.480	12.713523	-57.244763	86.390	-0.080	-0.670	0.480	86.470	-2.100	0.800																			1580022285.0	0.43	0.80
26/01/2020 07:04:46	26012020	260120	070446	86.480	12.713520	-57.244763	86.400	-0.070	-0.300	0.640	86.490	-1.700	1.000																			1580022286.0	0.41	0.76
26/01/2020 07:04:47	26012020	260120	070447	86.550	12.713520	-57.244765	86.480	-0.100	0.200	0.640	86.560	-1.200	1.000																			1580022287.0	0.38	0.70
26/01/2020 07:04:48	26012020	260120	070448	86.630	12.713520	-57.244767	86.560	-0.120	0.450	0.480	86.640	-0.900	0.900																			1580022288.0	0.30	0.56
26/01/2020 07:04:49	26012020	260120	070449	86.770	12.713520	-57.244767	86.720	-0.090	0.320	0.240	86.800	-1.100	0.700																			1580022289.0	0.19	0.35
26/01/2020 07:04:50	26012020	260120	070450	86.990	12.713522	-57.244765	86.940	0.020	0.020	0.010	87.030	-1.300	0.400																			1580022290.0	0.37	0.69
26/01/2020 07:04:51	26012020	260120	070451	87.170	12.713522	-57.244763	87.100	0.190	-0.220	-0.040	87.170	-1.600	0.400																			1580022291.0	0.35	0.65
26/01/2020 07:04:52	26012020	260120	070452	87.220	12.713523	-57.244763	87.140	0.320	-0.310	0.040	87.220	-1.700	0.400																			1580022292.0	0.21	0.39
26/01/2020 07:04:53	26012020	260120	070453	87.220	12.713523	-57.244763	87.130	0.320	-0.270	0.170	87.220	-1.700	0.600																			1580022293.0	0.07	0.13
26/01/2020 07:04:54	26012020	260120	070454	87.190	12.713523	-57.244763	87.110	0.160	-0.140	0.390	87.180	-1.500	0.800																			1580022294.0	0.06	0.11
26/01/2020 07:04:55	26012020	260120	070455	87.170	12.713522	-57.244763	87.120	-0.070	-0.000	0.710	87.170	-1.400	1.100																			1580022295.0	0.24	0.44
26/01/2020 07:04:56	26012020	260120	070456	87.190	12.713520	-57.244763	87.150	-0.230	-0.050	1.060	87.200	-1.400	1.400																			1580022296.0	0.37	0.69
26/01/2020 07:04:57	26012020	260120	070457	87.270	12.713518	-57.244763	87.250	-0.260	-0.330	1.280	87.290	-1.700	1.700																			1580022297.0	0.49	0.91
26/01/2020 07:04:58	26012020	260120	070458	87.340	12.713517	-57.244760	87.300	-0.210	-0.560	1.340	87.340	-1.900	1.700																			1580022298.0	0.61	1.13
26/01/2020 07:04:59	26012020	260120	070459	87.250	12.713515	-57.244758	87.180	-0.170	-0.360	1.330	87.220	-1.800	1.700																			1580022299.0	0.44	0.81
26/01/2020 07:05:00	26012020	260120	070500	87.050	12.713515	-57.244760	86.980	-0.170	0.210	1.220	87.010	-1.200	1.600	1013.90	25.60	25.70	20.00	20.00	-1.00	71.00	71.00	418.00	25.30	10.00	5.30	97.00	5.20	15	3216.00	27.40	27.40	1580022300.0	0.24	0.44
26/01/2020 07:05:01	26012020	260120	070501	86.950	12.713515	-57.244762	86.920	-0.140	0.620	0.800	86.960	-0.800	1.200																			1580022301.0	0.47	0.87
26/01/2020 07:05:02	26012020	260120	070502	87.120	12.713518	-57.244763	87.130	0.010	0.440	0.020	87.190	-0.900	0.500																			1580022302.0	0.63	1.17
26/01/2020 07:05:03	26012020	260120	070503	87.440	12.713523	-57.244762	87.410	0.250	-0.190	-0.820	87.480	-1.500	-0.400																			1580022303.0	1.10	2.04
26/01/2020 07:05:04	26012020	260120	070504	87.560	12.713528	-57.244758	87.450	0.450	-0.740	-1.240	87.540	-2.100	-0.800																			1580022304.0	1.23	2.28
26/01/2020 07:05:05	26012020	260120	070505	87.350	12.713530	-57.244757	87.190	0.430	-0.790	-1.060	87.350	-2.200	-0.700																			1580022305.0	0.67	1.24
26/01/2020 07:05:06	26012020	260120	070506	86.970	12.713530	-57.244757	86.830	0.180	-0.400	-0.440	86.900	-1.800	-0.100																			1580022306.0	0.16	0.30
26/01/2020 07:05:07	26012020	260120	070507	86.700	12.713527	-57.244758	86.610	-0.150	0.060	0.260	86.680	-1.400	0.600																			1580022307.0	0.71	1.31
26/01/2020 07:05:08	26012020	260120	070508	86.710	12.713523	-57.244760	86.680	-0.330	0.270	0.790	86.740	-1.100	1.100																			1580022308.0	0.76	1.41
26/01/2020 07:05:09	26012020	260120	070509	86.960	12.713520	-57.244760	86.960	-0.300	0.260	1.070	87.020	-1.100	1.400																			1580022309.0	0.66	1.22
26/01/2020 07:05:10	26012020	260120	070510	87.280	12.713518	-57.244758	87.280	-0.190	0.140	1.160	87.340	-1.200	1.500																			1580022310.0	0.57	1.06
26/01/2020 07:05:11	26012020	260120	070511	87.490	12.713517	-57.244758	87.460	-0.120	0.050	1.150	87.500	-1.300	1.500																			1580022311.0	0.43	0.80
26/01/2020 07:05:12	26012020	260120	070512	87.460	12.713515	-57.244758	87.390	-0.090	-0.020	1.140	87.420	-1.400	1.500																			1580022312.0	0.21	0.39
26/01/2020 07:05:13	26012020	260120	070513	87.240	12.713515	-57.244758	87.160	-0.040	-0.190	1.060	87.190	-1.600	1.500																			1580022313.0	0.10	0.19
26/01/2020 07:05:14	26012020	260120	070514	87.060	12.713517	-57.244758	87.010	0.050	-0.450	0.740	87.050	-1.800	1.200																			1580022314.0	0.36	0.67
26/01/2020 07:05:15	26012020	260120	070515	87.010	12.713518	-57.244758	86.950	0.100	-0.610	0.320	87.000	-2.000	0.700																			1580022315.0	0.52	0.96
26/01/2020 07:05:16	26012020	260120	070516	86.980	12.713520	-57.244757	86.910	0.080	-0.520	0.010	86.970	-1.900	0.400																			1580022316.0	0.38	0.70
26/01/2020 07:05:17	26012020	260120	070517	86.980	12.713522	-57.244757	86.910	0.050	-0.270	-0.220	86.980	-1.700	0.200																			1580022317.0	0.19	0.35
26/01/2020 07:05:18	26012020	260120	070518	87.040	12.713522	-57.244757	86.970	0.070	-0.000	-0.430	87.060	-1.400	-0.000																			1580022318.0	0.18	0.33
26/01/2020 07:05:19	26012020	260120	070519	87.130	12.713523	-57.244757	87.070	0.130	0.200	-0.580	87.130	-1.200	-0.200																			1580022319.0	0.23	0.43
26/01/2020 07:05:20	26012020	260120	070520	87.210	12.713523	-57.244757	87.140	0.150	0.350	-0.560	87.220	-1.000	-0.200																			1580022320.0	0.15	0.28
26/01/2020 07:05:21	26012020	260120	070521	87.220	12.713523	-57.244757	87.140	0.100	0.380	-0.240	87.220	-1.000	0.100																			1580022321.0	0.11	0.20
26/01/2020 07:05:22	26012020	260120	070522	87.210	12.713522	-57.244757	87.150	0.010	0.220	0.260	87.220	-1.100	0.600																			1580022322.0	0.36	0.67
26/01/2020 07:05:23	26012020	260120	070523	87.260	12.713520	-57.244757	87.230	-0.110	-0.040	0.790	87.280	-1.400	1.100																			1580022323.0	0.48	0.89
26/01/2020 07:05:24	26012020	260120	070524	87.300	12.713517	-57.244755	87.270	-0.190	-0.340	1.320	87.300	-1.700	1.600																			1580022324.0	0.53	0.98
26/01/2020 07:05:25	26012020	260120	070525	87.220	12.713515	-57.244755	87.160	-0.170	-0.590	1.860	87.170	-1.900	2.200																			1580022325.0	0.65	1.20
26/01/2020 07:05:26	26012020	260120	070526	86.940	12.713512	-57.244753	86.880	-0.070	-0.690	2.270	86.870	-2.100	2.600																			1580022326.0	0.75	1.39
26/01/2020 07:05:27	26012020	260120	070527	86.640	12.713508	-57.244753	86.590	0.000	-0.580	2.320	86.590	-2.000	2.700																			1580022327.0	0.59	1.09
26/01/2020 07:05:28	26012020	260120	070528	86.480	12.713508	-57.244753	86.470	-0.020	-0.250	1.960	86.470	-1.700	2.400																			1580022328.0	0.13	0.24
26/01/2020 07:05:29	26012020	260120	070529	86.510	12.713510	-57.244753	86.500	-0.100	0.120	1.220	86.520	-1.300	1.700																			1580022329.0	0.47	0.87
26/01/2020 07:05:30	26012020	260120	070530	86.620	12.713515	-57.244755	86.580	-0.110	0.300	0.210	86.640	-1.100	0.700																			1580022330.0	0.97	1.80
26/01/2020 07:05:31	26012020	260120	070531	86.700	12.713520	-57.244755	86.610	0.050	0.190	-0.820	86.700	-1.200	-0.300																			1580022331.0	1.24	2.30
26/01/2020 07:05:32	26012020	260120	070532	86.740	12.713525	-57.244753	86.620	0.250	-0.020	-1.610	86.750	-1.400	-1.200																			1580022332.0	1.19	2.20
26/01/2020 07:05:33	26012020	260120	070533	86.830	12.713528	-57.244752	86.700	0.320	-0.100	-1.980	86.850	-1.500	-1.600																			1580022333.0	0.81	1.50
26/01/2020 07:05:34	26012020	260120	070534	86.960	12.713530	-57.244752	86.840	0.190	0.040	-1.830	86.990	-1.400	-1.500																			1580022334.0	0.30	0.56
26/01/2020 07:05:35	26012020	260120	070535	87.060	12.713530	-57.244753	86.930	-0.020	0.170	-1.170	87.070	-1.200	-0.900																			1580022335.0	0.36	0.67
26/01/2020 07:05:36	26012020	260120	070536	87.020	12.713527	-57.244755	86.890	-0.130	-0.020	-0.070	87.000	-1.400	0.200																			1580022336.0	0.75	1.39
26/01/2020 07:05:37	26012020	260120	070537	86.910	12.713520	-57.244753	86.820	-0.080	-0.520	1.160	86.890	-1.900	1.400																			1580022337.0	1.22	2.26
26/01/2020 07:05:38	26012020	260120	070538	86.820	12.713513	-57.244752	86.770	-0.010	-0.880	2.270	86.800	-2.300	2.500																			1580022338.0	1.54	2.85
26/01/2020 07:05:39	26012020	260120	070539	86.730	12.713508	-57.244750	86.700	-0.120	-0.610	3.120	86.710	-2.000	3.400																			1580022339.0	1.43	2.65
26/01/2020 07:05:40	26012020	260120	070540	86.660	12.713503	-57.244752	86.650	-0.380	0.080	3.450	86.660	-1.400	3.800																			1580022340.0	1.11	2.06
26/01/2020 07:05:41	26012020	260120	070541	86.750	12.713500	-57.244753	86.780	-0.500	0.580	3.020	86.750	-0.800	3.500																			1580022341.0	0.73	1.35
26/01/2020 07:05:42	26012020	260120	070542	87.020	12.713502	-57.244755	87.040	-0.290	0.510	1.890	87.090	-0.900	2.400																			1580022342.0	0.48	0.89
26/01/2020 07:05:43	26012020	260120	070543	87.290	12.713508	-57.244753	87.240	0.130	0.010	0.390	87.330	-1.300	0.900																			1580022343.0	1.18	2.19
26/01/2020 07:05:44	26012020	260120	070544	87.460	12.713515	-57.244752	87.360	0.470	-0.440	-1.120	87.480	-1.800	-0.600																			1580022344.0	1.80	3.33
26/01/2020 07:05:45	26012020	260120	070545	87.570	12.713525	-57.244752	87.430	0.540	-0.520	-2.180	87.580	-1.900	-1.700																			1580022345.0	1.84	3.41
26/01/2020 07:05:46	26012020	260120	070546	87.570	12.713530	-57.244752	87.400	0.430	-0.380	-2.490	87.560	-1.800	-2.100																			1580022346.0	1.25	2.31
26/01/2020 07:05:47	26012020	260120	070547	87.460	12.713532	-57.244752	87.280	0.260	-0.260	-2.120	87.430	-1.700	-1.800																			1580022347.0	0.41	0.76
26/01/2020 07:05:48	26012020	260120	070548	87.330	12.713530	-57.244752	87.170	0.010	-0.150	-1.200	87.300	-1.500	-0.900																			1580022348.0	0.47	0.87
26/01/2020 07:05:49	26012020	260120	070549	87.280	12.713523	-57.244752	87.190	-0.270	0.000	0.050	87.290	-1.400	0.300																			1580022349.0	1.19	2.20
26/01/2020 07:05:50	26012020	260120	070550	87.360	12.713517	-57.244752	87.320	-0.430	0.130	1.400	87.390	-1.300	1.600																			1580022350.0	1.60	2.96
26/01/2020 07:05:51	26012020	260120	070551	87.500	12.713508	-57.244752	87.520	-0.380	0.190	2.530	87.530	-1.200	2.800																			1580022351.0	1.69	3.13
26/01/2020 07:05:52	26012020	260120	070552	87.670	12.713502	-57.244752	87.710	-0.160	0.170	3.160	87.690	-1.200	3.500																			1580022352.0	1.38	2.56
26/01/2020 07:05:53	26012020	260120	070553	87.770	12.713498	-57.244752	87.800	0.050	0.050	3.260	87.770	-1.300	3.600																			1580022353.0	0.77	1.43
26/01/2020 07:05:54	26012020	260120	070554	87.780	12.713498	-57.244750	87.770	0.150	-0.140	2.890	87.760	-1.500	3.300																			1580022354.0	0.08	0.15
26/01/2020 07:05:55	26012020	260120	070555	87.720	12.713502	-57.244750	87.700	0.140	-0.320	2.130	87.720	-1.700	2.600																			1580022355.0	0.59	1.09
26/01/2020 07:05:56	26012020	260120	070556	87.640	12.713507	-57.244750	87.590	0.100	-0.460	1.100	87.620	-1.800	1.600																			1580022356.0	1.10	2.04
26/01/2020 07:05:57	26012020	260120	070557	87.610	12.713513	-57.244750	87.540	0.090	-0.510	-0.070	87.610	-1.900	0.400																			1580022357.0	1.35	2.50
26/01/2020 07:05:58	26012020	260120	070558	87.680	12.713518	-57.244750	87.600	0.080	-0.430	-1.160	87.710	-1.800	-0.700																			1580022358.0	1.31	2.43
26/01/2020 07:05:59	26012020	260120	070559	87.850	12.713523	-57.244752	87.750	0.020	-0.220	-1.920	87.880	-1.600	-1.500																			1580022359.0	0.99	1.83
26/01/2020 07:06:00	26012020	260120	070600	87.930	12.713525	-57.244752	87.780	-0.050	0.010	-2.080	87.920	-1.400	-1.700	1013.90	25.60	25.70	20.10	20.20	-1.00	71.00	71.00	417.00	25.30	355.00	5.60	81.00	5.20	15	3254.00	27.40	27.40	1580022360.0	0.48	0.89
26/01/2020 07:06:01	26012020	260120	070601	87.830	12.713525	-57.244752	87.670	-0.070	0.140	-1.710	87.800	-1.300	-1.400																			1580022361.0	0.11	0.20
26/01/2020 07:06:02	26012020	260120	070602	87.740	12.713523	-57.244752	87.640	-0.020	0.170	-1.050	87.740	-1.200	-0.700																			1580022362.0	0.46	0.85
26/01/2020 07:06:03	26012020	260120	070603	87.840	12.713520	-57.244752	87.780	0.020	0.230	-0.250	87.880	-1.200	0.000																			1580022363.0	0.64	1.19
26/01/2020 07:06:04	26012020	260120	070604	88.060	12.713517	-57.244752	88.020	0.030	0.250	0.670	88.090	-1.100	1.000																			1580022364.0	0.83	1.54
26/01/2020 07:06:05	26012020	260120	070605	88.190	12.713512	-57.244752	88.160	0.060	0.060	1.640	88.200	-1.300	1.900																			1580022365.0	0.99	1.83
26/01/2020 07:06:06	26012020	260120	070606	88.200	12.713507	-57.244752	88.170	0.090	-0.300	2.470	88.190	-1.600	2.800																			1580022366.0	1.07	1.98
26/01/2020 07:06:07	26012020	260120	070607	88.190	12.713502	-57.244750	88.200	0.020	-0.540	2.940	88.190	-1.900	3.300																			1580022367.0	0.94	1.74
26/01/2020 07:06:08	26012020	260120	070608	88.270	12.713500	-57.244750	88.290	-0.110	-0.510	2.920	88.290	-1.900	3.300																			1580022368.0	0.53	0.98
26/01/2020 07:06:09	26012020	260120	070609	88.360	12.713500	-57.244752	88.370	-0.180	-0.330	2.510	88.360	-1.700	2.900																			1580022369.0	0.22	0.41
26/01/2020 07:06:10	26012020	260120	070610	88.370	12.713502	-57.244752	88.350	-0.110	-0.210	1.850	88.350	-1.600	2.300																			1580022370.0	0.34	0.63
26/01/2020 07:06:11	26012020	260120	070611	88.270	12.713503	-57.244752	88.220	0.020	-0.180	0.950	88.250	-1.600	1.400																			1580022371.0	0.55	1.02
26/01/2020 07:06:12	26012020	260120	070612	88.220	12.713508	-57.244752	88.170	0.070	-0.110	-0.190	88.230	-1.500	0.300																			1580022372.0	0.96	1.78
26/01/2020 07:06:13	26012020	260120	070613	88.330	12.713515	-57.244752	88.280	-0.020	0.090	-1.390	88.370	-1.300	-0.900																			1580022373.0	1.40	2.59
26/01/2020 07:06:14	26012020	260120	070614	88.580	12.713522	-57.244753	88.510	-0.100	0.330	-2.280	88.630	-1.100	-1.800																			1580022374.0	1.49	2.76
26/01/2020 07:06:15	26012020	260120	070615	88.840	12.713527	-57.244753	88.730	-0.040	0.360	-2.560	88.880	-1.000	-2.200																			1580022375.0	0.99	1.83
26/01/2020 07:06:16	26012020	260120	070616	88.990	12.713527	-57.244753	88.850	0.120	0.050	-2.160	89.000	-1.300	-1.800																			1580022376.0	0.14	0.26
26/01/2020 07:06:17	26012020	260120	070617	89.010	12.713523	-57.244752	88.870	0.200	-0.390	-1.240	89.000	-1.700	-0.900																			1580022377.0	0.71	1.31
26/01/2020 07:06:18	26012020	260120	070618	88.990	12.713518	-57.244750	88.900	0.120	-0.610	-0.000	88.990	-2.000	0.300																			1580022378.0	1.20	2.22
26/01/2020 07:06:19	26012020	260120	070619	89.030	12.713512	-57.244750	89.000	-0.060	-0.480	1.330	89.040	-1.900	1.600																			1580022379.0	1.54	2.85
26/01/2020 07:06:20	26012020	260120	070620	89.120	12.713503	-57.244752	89.130	-0.170	-0.200	2.470	89.130	-1.600	2.800																			1580022380.0	1.74	3.22
26/01/2020 07:06:21	26012020	260120	070621	89.160	12.713497	-57.244752	89.190	-0.160	-0.030	3.220	89.150	-1.400	3.500																			1580022381.0	1.55	2.87
26/01/2020 07:06:22	26012020	260120	070622	89.140	12.713492	-57.244752	89.170	-0.080	-0.030	3.370	89.140	-1.400	3.800																			1580022382.0	0.99	1.83
26/01/2020 07:06:23	26012020	260120	070623	89.170	12.713492	-57.244752	89.200	0.020	-0.060	2.770	89.190	-1.400	3.200																			1580022383.0	0.19	0.35
26/01/2020 07:06:24	26012020	260120	070624	89.300	12.713495	-57.244750	89.330	0.120	-0.060	1.580	89.340	-1.400	2.100																			1580022384.0	0.81	1.50
26/01/2020 07:06:25	26012020	260120	070625	89.470	12.713502	-57.244750	89.470	0.230	-0.030	0.220	89.510	-1.400	0.700																			1580022385.0	1.39	2.57
26/01/2020 07:06:26	26012020	260120	070626	89.610	12.713508	-57.244750	89.580	0.290	0.060	-1.000	89.630	-1.300	-0.500																			1580022386.0	1.49	2.76
26/01/2020 07:06:27	26012020	260120	070627	89.680	12.713515	-57.244752	89.610	0.230	0.060	-1.890	89.690	-1.300	-1.400																			1580022387.0	1.29	2.39
26/01/2020 07:06:28	26012020	260120	070628	89.690	12.713518	-57.244752	89.580	0.040	-0.080	-2.340	89.690	-1.400	-1.900																			1580022388.0	0.96	1.78
26/01/2020 07:06:29	26012020	260120	070629	89.660	12.713520	-57.244750	89.540	-0.180	-0.270	-2.190	89.650	-1.600	-1.800																			1580022389.0	0.46	0.85
26/01/2020 07:06:30	26012020	260120	070630	89.630	12.713518	-57.244750	89.540	-0.320	-0.310	-1.380	89.630	-1.700	-1.100																			1580022390.0	0.38	0.70
26/01/2020 07:06:31	26012020	260120	070631	89.630	12.713513	-57.244752	89.560	-0.370	-0.190	-0.060	89.630	-1.600	0.200																			1580022391.0	1.35	2.50
26/01/2020 07:06:32	26012020	260120	070632	89.570	12.713503	-57.244752	89.520	-0.350	-0.110	1.390	89.540	-1.500	1.600																			1580022392.0	1.96	3.63
26/01/2020 07:06:33	26012020	260120	070633	89.450	12.713495	-57.244752	89.440	-0.220	-0.210	2.550	89.450	-1.600	2.800																			1580022393.0	1.94	3.59
26/01/2020 07:06:34	26012020	260120	070634	89.350	12.713488	-57.244752	89.370	0.010	-0.370	3.180	89.340	-1.700	3.500																			1580022394.0	1.47	2.72
26/01/2020 07:06:35	26012020	260120	070635	89.310	12.713485	-57.244750	89.370	0.290	-0.310	3.300	89.310	-1.700	3.700																			1580022395.0	0.83	1.54
26/01/2020 07:06:36	26012020	260120	070636	89.310	12.713483	-57.244750	89.370	0.480	-0.060	2.890	89.310	-1.500	3.300																			1580022396.0	0.12	0.22
26/01/2020 07:06:37	26012020	260120	070637	89.280	12.713487	-57.244752	89.290	0.500	0.170	1.890	89.260	-1.200	2.400																			1580022397.0	0.71	1.31
26/01/2020 07:06:38	26012020	260120	070638	89.210	12.713493	-57.244752	89.200	0.340	0.210	0.470	89.200	-1.200	1.000																			1580022398.0	1.53	2.83
26/01/2020 07:06:39	26012020	260120	070639	89.170	12.713503	-57.244752	89.120	0.090	0.110	-0.860	89.160	-1.300	-0.400																			1580022399.0	1.88	3.48
26/01/2020 07:06:40	26012020	260120	070640	89.110	12.713510	-57.244752	89.030	-0.130	-0.050	-1.740	89.090	-1.400	-1.300																			1580022400.0	1.54	2.85
26/01/2020 07:06:41	26012020	260120	070641	89.020	12.713513	-57.244752	88.920	-0.250	-0.250	-2.070	89.010	-1.600	-1.700																			1580022401.0	0.84	1.56
26/01/2020 07:06:42	26012020	260120	070642	88.920	12.713513	-57.244752	88.790	-0.270	-0.330	-1.860	88.890	-1.700	-1.500																			1580022402.0	0.12	0.22
26/01/2020 07:06:43	26012020	260120	070643	88.750	12.713512	-57.244752	88.600	-0.240	-0.260	-1.200	88.700	-1.700	-0.900																			1580022403.0	0.63	1.17
26/01/2020 07:06:44	26012020	260120	070644	88.500	12.713507	-57.244752	88.390	-0.200	-0.140	-0.250	88.460	-1.500	0.000																			1580022404.0	1.12	2.07
26/01/2020 07:06:45	26012020	260120	070645	88.310	12.713500	-57.244752	88.230	-0.110	-0.110	0.750	88.310	-1.500	1.000																			1580022405.0	1.30	2.41
26/01/2020 07:06:46	26012020	260120	070646	88.240	12.713495	-57.244752	88.210	0.020	-0.170	1.600	88.240	-1.600	1.900																			1580022406.0	1.24	2.30
26/01/2020 07:06:47	26012020	260120	070647	88.240	12.713490	-57.244750	88.240	0.090	-0.190	2.110	88.240	-1.600	2.400																			1580022407.0	0.91	1.69
26/01/2020 07:06:48	26012020	260120	070648	88.220	12.713488	-57.244750	88.210	0.050	-0.080	2.230	88.210	-1.500	2.600																			1580022408.0	0.47	0.87
26/01/2020 07:06:49	26012020	260120	070649	88.170	12.713488	-57.244750	88.170	-0.050	0.070	1.990	88.170	-1.300	2.400																			1580022409.0	0.15	0.28
26/01/2020 07:06:50	26012020	260120	070650	88.140	12.713488	-57.244752	88.120	-0.060	0.050	1.540	88.130	-1.300	2.000																			1580022410.0	0.25	0.46
26/01/2020 07:06:51	26012020	260120	070651	88.060	12.713490	-57.244750	88.020	0.070	-0.180	1.030	88.040	-1.500	1.500																			1580022411.0	0.39	0.72
26/01/2020 07:06:52	26012020	260120	070652	87.970	12.713493	-57.244748	87.910	0.250	-0.390	0.410	87.960	-1.800	0.900																			1580022412.0	0.64	1.19
26/01/2020 07:06:53	26012020	260120	070653	87.940	12.713497	-57.244747	87.870	0.320	-0.370	-0.280	87.940	-1.800	0.200																			1580022413.0	0.85	1.57
26/01/2020 07:06:54	26012020	260120	070654	87.950	12.713500	-57.244747	87.880	0.260	-0.120	-0.780	87.960	-1.500	-0.400																			1580022414.0	0.84	1.56
26/01/2020 07:06:55	26012020	260120	070655	88.020	12.713503	-57.244748	87.950	0.130	0.160	-0.990	88.050	-1.200	-0.600																			1580022415.0	0.58	1.07
26/01/2020 07:06:56	26012020	260120	070656	88.080	12.713503	-57.244748	88.000	-0.000	0.240	-0.820	88.090	-1.100	-0.500																			1580022416.0	0.19	0.35
26/01/2020 07:06:57	26012020	260120	070657	88.070	12.713502	-57.244748	87.990	-0.150	0.110	-0.340	88.070	-1.300	0.000																			1580022417.0	0.27	0.50
26/01/2020 07:06:58	26012020	260120	070658	88.030	12.713500	-57.244748	87.980	-0.290	-0.080	0.310	88.020	-1.400	0.600																			1580022418.0	0.56	1.04
26/01/2020 07:06:59	26012020	260120	070659	88.030	12.713497	-57.244747	88.010	-0.340	-0.200	1.030	88.030	-1.600	1.300																			1580022419.0	0.76	1.41
26/01/2020 07:07:00	26012020	260120	070700	88.040	12.713492	-57.244747	88.030	-0.250	-0.270	1.740	88.040	-1.600	2.100	1013.90	25.60	25.70	20.20	20.20	-1.00	71.00	71.00	416.00	25.30	354.00	5.40	82.00	5.00	15	3233.00	27.40	27.40	1580022420.0	0.97	1.80
26/01/2020 07:07:01	26012020	260120	070701	88.020	12.713487	-57.244747	88.030	-0.080	-0.360	2.300	88.020	-1.700	2.600																			1580022421.0	1.04	1.93
26/01/2020 07:07:02	26012020	260120	070702	87.980	12.713483	-57.244745	87.990	0.030	-0.440	2.500	87.970	-1.800	2.900																			1580022422.0	0.83	1.54
26/01/2020 07:07:03	26012020	260120	070703	87.940	12.713482	-57.244745	87.930	0.040	-0.350	2.260	87.920	-1.800	2.700																			1580022423.0	0.33	0.61
26/01/2020 07:07:04	26012020	260120	070704	87.890	12.713483	-57.244745	87.870	0.040	-0.120	1.640	87.870	-1.500	2.100																			1580022424.0	0.36	0.67
26/01/2020 07:07:05	26012020	260120	070705	87.840	12.713488	-57.244745	87.790	0.150	0.060	0.760	87.830	-1.300	1.200																			1580022425.0	0.92	1.70
26/01/2020 07:07:06	26012020	260120	070706	87.830	12.713493	-57.244745	87.770	0.300	0.090	-0.200	87.850	-1.300	0.300																			1580022426.0	1.20	2.22
26/01/2020 07:07:07	26012020	260120	070707	87.960	12.713500	-57.244743	87.900	0.330	0.070	-1.120	88.000	-1.300	-0.700																			1580022427.0	1.23	2.28
26/01/2020 07:07:08	26012020	260120	070708	88.180	12.713505	-57.244743	88.090	0.180	0.090	-1.760	88.220	-1.300	-1.300																			1580022428.0	1.06	1.96
26/01/2020 07:07:09	26012020	260120	070709	88.300	12.713507	-57.244743	88.170	-0.040	0.100	-1.790	88.310	-1.300	-1.400																			1580022429.0	0.58	1.07
26/01/2020 07:07:10	26012020	260120	070710	88.270	12.713507	-57.244743	88.130	-0.180	-0.010	-1.200	88.250	-1.400	-0.900																			1580022430.0	0.11	0.20
26/01/2020 07:07:11	26012020	260120	070711	88.150	12.713503	-57.244743	88.030	-0.210	-0.220	-0.290	88.130	-1.600	0.000																			1580022431.0	0.70	1.30
26/01/2020 07:07:12	26012020	260120	070712	88.010	12.713498	-57.244742	87.920	-0.150	-0.460	0.740	87.980	-1.800	1.000																			1580022432.0	1.03	1.91
26/01/2020 07:07:13	26012020	260120	070713	87.900	12.713493	-57.244742	87.860	-0.070	-0.560	1.770	87.890	-1.900	2.000																			1580022433.0	1.24	2.30
26/01/2020 07:07:14	26012020	260120	070714	87.890	12.713487	-57.244740	87.900	-0.040	-0.430	2.610	87.910	-1.800	2.900																			1580022434.0	1.25	2.31
26/01/2020 07:07:15	26012020	260120	070715	87.990	12.713482	-57.244740	88.030	-0.120	-0.060	3.000	88.020	-1.500	3.400																			1580022435.0	1.02	1.89
26/01/2020 07:07:16	26012020	260120	070716	88.120	12.713480	-57.244742	88.150	-0.210	0.300	2.780	88.130	-1.100	3.200																			1580022436.0	0.55	1.02
26/01/2020 07:07:17	26012020	260120	070717	88.170	12.713482	-57.244742	88.160	-0.150	0.370	2.000	88.170	-1.000	2.500																			1580022437.0	0.30	0.56
26/01/2020 07:07:18	26012020	260120	070718	88.180	12.713485	-57.244742	88.160	0.090	0.090	0.840	88.180	-1.300	1.300																			1580022438.0	0.94	1.74
26/01/2020 07:07:19	26012020	260120	070719	88.240	12.713492	-57.244740	88.200	0.350	-0.300	-0.390	88.260	-1.700	0.100																			1580022439.0	1.46	2.70
26/01/2020 07:07:20	26012020	260120	070720	88.340	12.713500	-57.244738	88.270	0.440	-0.510	-1.390	88.350	-1.900	-0.900																			1580022440.0	1.61	2.98
26/01/2020 07:07:21	26012020	260120	070721	88.370	12.713505	-57.244738	88.250	0.330	-0.480	-1.940	88.360	-1.900	-1.500																			1580022441.0	1.34	2.48
26/01/2020 07:07:22	26012020	260120	070722	88.280	12.713508	-57.244738	88.120	0.060	-0.270	-1.900	88.240	-1.700	-1.500																			1580022442.0	0.70	1.30
26/01/2020 07:07:23	26012020	260120	070723	88.110	12.713508	-57.244740	87.970	-0.260	-0.010	-1.300	88.080	-1.400	-1.000																			1580022443.0	0.21	0.39
26/01/2020 07:07:24	26012020	260120	070724	88.030	12.713503	-57.244740	87.940	-0.480	0.180	-0.370	88.050	-1.200	-0.100																			1580022444.0	0.94	1.74
26/01/2020 07:07:25	26012020	260120	070725	88.150	12.713497	-57.244740	88.110	-0.510	0.250	0.680	88.190	-1.100	1.000																			1580022445.0	1.37	2.54
26/01/2020 07:07:26	26012020	260120	070726	88.300	12.713490	-57.244740	88.290	-0.330	0.240	1.710	88.330	-1.100	2.000																			1580022446.0	1.54	2.85
26/01/2020 07:07:27	26012020	260120	070727	88.370	12.713483	-57.244740	88.370	-0.010	0.060	2.450	88.370	-1.300	2.800																			1580022447.0	1.36	2.52
26/01/2020 07:07:28	26012020	260120	070728	88.370	12.713480	-57.244738	88.380	0.330	-0.320	2.670	88.370	-1.700	3.000																			1580022448.0	0.81	1.50
26/01/2020 07:07:29	26012020	260120	070729	88.360	12.713480	-57.244737	88.370	0.560	-0.630	2.380	88.360	-2.000	2.800																			1580022449.0	0.34	0.63
26/01/2020 07:07:30	26012020	260120	070730	88.320	12.713483	-57.244737	88.320	0.530	-0.510	1.780	88.300	-1.900	2.200																			1580022450.0	0.75	1.39
26/01/2020 07:07:31	26012020	260120	070731	88.240	12.713488	-57.244738	88.230	0.240	-0.060	1.100	88.230	-1.500	1.500																			1580022451.0	1.15	2.13
26/01/2020 07:07:32	26012020	260120	070732	88.150	12.713493	-57.244740	88.100	-0.100	0.190	0.470	88.120	-1.200	0.900																			1580022452.0	1.18	2.19
26/01/2020 07:07:33	26012020	260120	070733	88.020	12.713498	-57.244742	87.970	-0.270	-0.130	-0.110	88.000	-1.500	0.300																			1580022453.0	0.86	1.59
26/01/2020 07:07:34	26012020	260120	070734	87.930	12.713500	-57.244738	87.860	-0.280	-0.630	-0.610	87.920	-2.000	-0.200																			1580022454.0	0.86	1.59
26/01/2020 07:07:35	26012020	260120	070735	87.860	12.713502	-57.244735	87.770	-0.270	-0.650	-0.820	87.860	-2.100	-0.400																			1580022455.0	0.66	1.22
26/01/2020 07:07:36	26012020	260120	070736	87.800	12.713500	-57.244735	87.730	-0.260	-0.060	-0.650	87.790	-1.500	-0.300																			1580022456.0	0.31	0.57
26/01/2020 07:07:37	26012020	260120	070737	87.800	12.713497	-57.244738	87.750	-0.190	0.650	-0.320	87.810	-0.800	0.000																			1580022457.0	0.88	1.63
26/01/2020 07:07:38	26012020	260120	070738	87.860	12.713495	-57.244740	87.820	-0.050	0.930	-0.060	87.870	-0.500	0.300																			1580022458.0	0.84	1.56
26/01/2020 07:07:39	26012020	260120	070739	87.940	12.713493	-57.244742	87.890	0.140	0.590	0.060	87.950	-0.800	0.400																			1580022459.0	0.25	0.46
26/01/2020 07:07:40	26012020	260120	070740	87.970	12.713495	-57.244740	87.920	0.380	-0.160	0.150	87.970	-1.500	0.500																			1580022460.0	0.41	0.76
26/01/2020 07:07:41	26012020	260120	070741	87.940	12.713497	-57.244738	87.870	0.560	-0.880	0.430	87.910	-2.200	0.800																			1580022461.0	0.64	1.19
26/01/2020 07:07:42	26012020	260120	070742	87.760	12.713497	-57.244737	87.690	0.500	-1.160	1.030	87.720	-2.500	1.300																			1580022462.0	0.35	0.65
26/01/2020 07:07:43	26012020	260120	070743	87.480	12.713495	-57.244737	87.410	0.150	-0.860	1.800	87.410	-2.300	2.100																			1580022463.0	0.51	0.94
26/01/2020 07:07:44	26012020	260120	070744	87.150	12.713490	-57.244738	87.100	-0.350	-0.230	2.470	87.080	-1.700	2.800																			1580022464.0	1.02	1.89
26/01/2020 07:07:45	26012020	260120	070745	86.870	12.713487	-57.244740	86.860	-0.690	0.270	2.670	86.840	-1.100	3.000																			1580022465.0	1.04	1.93
26/01/2020 07:07:46	26012020	260120	070746	86.760	12.713485	-57.244742	86.750	-0.670	0.360	2.250	86.750	-1.000	2.700																			1580022466.0	0.45	0.83
26/01/2020 07:07:47	26012020	260120	070747	86.810	12.713485	-57.244740	86.810	-0.380	0.210	1.310	86.810	-1.200	1.800																			1580022467.0	0.35	0.65
26/01/2020 07:07:48	26012020	260120	070748	86.980	12.713490	-57.244740	86.950	-0.050	0.140	0.100	87.020	-1.300	0.600																			1580022468.0	0.92	1.70
26/01/2020 07:07:49	26012020	260120	070749	87.150	12.713495	-57.244740	87.060	0.180	0.160	-1.110	87.150	-1.200	-0.600																			1580022469.0	1.25	2.31
26/01/2020 07:07:50	26012020	260120	070750	87.200	12.713502	-57.244742	87.050	0.310	0.080	-2.010	87.190	-1.300	-1.600																			1580022470.0	1.38	2.56
26/01/2020 07:07:51	26012020	260120	070751	87.090	12.713507	-57.244742	86.890	0.390	-0.220	-2.330	87.050	-1.600	-1.900																			1580022471.0	1.13	2.09
26/01/2020 07:07:52	26012020	260120	070752	86.850	12.713510	-57.244742	86.640	0.440	-0.650	-1.960	86.790	-2.000	-1.600																			1580022472.0	0.59	1.09
26/01/2020 07:07:53	26012020	260120	070753	86.550	12.713508	-57.244740	86.350	0.400	-0.900	-1.020	86.480	-2.300	-0.700																			1580022473.0	0.39	0.72
26/01/2020 07:07:54	26012020	260120	070754	86.240	12.713505	-57.244738	86.060	0.210	-0.620	0.190	86.190	-2.100	0.400																			1580022474.0	0.84	1.56
26/01/2020 07:07:55	26012020	260120	070755	86.070	12.713500	-57.244740	85.970	-0.130	0.080	1.350	86.060	-1.400	1.600																			1580022475.0	1.20	2.22
26/01/2020 07:07:56	26012020	260120	070756	86.110	12.713493	-57.244742	86.080	-0.450	0.660	2.260	86.140	-0.800	2.600																			1580022476.0	1.37	2.54
26/01/2020 07:07:57	26012020	260120	070757	86.340	12.713488	-57.244743	86.350	-0.570	0.690	2.760	86.390	-0.700	3.100																			1580022477.0	1.22	2.26
26/01/2020 07:07:58	26012020	260120	070758	86.560	12.713485	-57.244743	86.550	-0.430	0.200	2.780	86.590	-1.100	3.200																			1580022478.0	0.83	1.54
26/01/2020 07:07:59	26012020	260120	070759	86.600	12.713483	-57.244740	86.540	-0.170	-0.320	2.460	86.580	-1.700	2.900																			1580022479.0	0.55	1.02
26/01/2020 07:08:00	26012020	260120	070800	86.420	12.713485	-57.244738	86.330	0.050	-0.510	1.860	86.380	-1.900	2.300	1013.90	25.60	25.60	20.10	20.10	-1.00	71.00	71.00	414.00	25.30	0.00	6.10	88.00	5.70	15	3203.00	27.40	27.40	1580022480.0	0.38	0.70
26/01/2020 07:08:01	26012020	260120	070801	86.220	12.713488	-57.244740	86.110	0.150	-0.440	0.950	86.190	-1.800	1.400																			1580022481.0	0.85	1.57
26/01/2020 07:08:02	26012020	260120	070802	86.150	12.713495	-57.244742	86.040	0.200	-0.310	-0.180	86.160	-1.700	0.300																			1580022482.0	1.34	2.48
26/01/2020 07:08:03	26012020	260120	070803	86.230	12.713502	-57.244743	86.090	0.230	-0.230	-1.240	86.240	-1.600	-0.800																			1580022483.0	1.51	2.80
26/01/2020 07:08:04	26012020	260120	070804	86.260	12.713507	-57.244743	86.080	0.230	-0.220	-1.840	86.250	-1.600	-1.400																			1580022484.0	1.25	2.31
26/01/2020 07:08:05	26012020	260120	070805	86.180	12.713510	-57.244743	86.000	0.160	-0.180	-1.890	86.160	-1.600	-1.500																			1580022485.0	0.68	1.26
26/01/2020 07:08:06	26012020	260120	070806	86.140	12.713510	-57.244743	85.990	0.010	0.030	-1.560	86.140	-1.400	-1.200																			1580022486.0	0.08	0.15
26/01/2020 07:08:07	26012020	260120	070807	86.200	12.713508	-57.244743	86.080	-0.130	0.340	-0.860	86.220	-1.100	-0.600																			1580022487.0	0.46	0.85
26/01/2020 07:08:08	26012020	260120	070808	86.270	12.713505	-57.244745	86.150	-0.160	0.420	0.190	86.270	-1.000	0.400																			1580022488.0	0.91	1.69
26/01/2020 07:08:09	26012020	260120	070809	86.220	12.713500	-57.244745	86.130	-0.060	0.060	1.330	86.200	-1.300	1.600																			1580022489.0	1.16	2.15
26/01/2020 07:08:10	26012020	260120	070810	86.130	12.713493	-57.244743	86.050	0.090	-0.500	2.250	86.120	-1.800	2.500																			1580022490.0	1.20	2.22
26/01/2020 07:08:11	26012020	260120	070811	86.070	12.713490	-57.244742	86.020	0.220	-0.850	2.860	86.070	-2.200	3.200																			1580022491.0	1.01	1.87
26/01/2020 07:08:12	26012020	260120	070812	86.010	12.713488	-57.244740	85.990	0.260	-0.740	3.080	86.000	-2.200	3.400																			1580022492.0	0.58	1.07
26/01/2020 07:08:13	26012020	260120	070813	85.990	12.713487	-57.244740	85.990	0.120	-0.240	2.740	86.000	-1.700	3.200																			1580022493.0	0.13	0.24
26/01/2020 07:08:14	26012020	260120	070814	86.070	12.713490	-57.244742	86.070	-0.180	0.310	1.830	86.090	-1.100	2.300																			1580022494.0	0.70	1.30
26/01/2020 07:08:15	26012020	260120	070815	86.190	12.713495	-57.244745	86.150	-0.470	0.590	0.710	86.220	-0.800	1.200																			1580022495.0	1.05	1.94
26/01/2020 07:08:16	26012020	260120	070816	86.280	12.713498	-57.244745	86.190	-0.540	0.530	-0.370	86.290	-0.900	0.100																			1580022496.0	1.02	1.89
26/01/2020 07:08:17	26012020	260120	070817	86.310	12.713503	-57.244745	86.180	-0.340	0.200	-1.360	86.320	-1.200	-0.900																			1580022497.0	0.95	1.76
26/01/2020 07:08:18	26012020	260120	070818	86.360	12.713508	-57.244745	86.220	0.000	-0.190	-2.190	86.380	-1.500	-1.700																			1580022498.0	1.02	1.89
26/01/2020 07:08:19	26012020	260120	070819	86.450	12.713512	-57.244745	86.290	0.290	-0.450	-2.620	86.470	-1.800	-2.200																			1580022499.0	0.97	1.80
26/01/2020 07:08:20	26012020	260120	070820	86.560	12.713515	-57.244745	86.390	0.420	-0.540	-2.450	86.570	-1.900	-2.100																			1580022500.0	0.64	1.19
26/01/2020 07:08:21	26012020	260120	070821	86.630	12.713515	-57.244745	86.480	0.430	-0.520	-1.720	86.640	-1.900	-1.400																			1580022501.0	0.15	0.28
26/01/2020 07:08:22	26012020	260120	070822	86.620	12.713513	-57.244747	86.470	0.340	-0.480	-0.530	86.610	-1.900	-0.300																			1580022502.0	0.54	1.00
26/01/2020 07:08:23	26012020	260120	070823	86.500	12.713508	-57.244745	86.360	0.170	-0.420	1.010	86.460	-1.800	1.200																			1580022503.0	1.24	2.30
26/01/2020 07:08:24	26012020	260120	070824	86.370	12.713498	-57.244745	86.300	-0.090	-0.270	2.560	86.360	-1.700	2.800																			1580022504.0	1.84	3.41
26/01/2020 07:08:25	26012020	260120	070825	86.440	12.713490	-57.244743	86.440	-0.370	0.030	3.630	86.480	-1.400	3.900																			1580022505.0	1.96	3.63
26/01/2020 07:08:26	26012020	260120	070826	86.700	12.713483	-57.244745	86.740	-0.540	0.390	3.860	86.760	-1.000	4.200																			1580022506.0	1.46	2.70
26/01/2020 07:08:27	26012020	260120	070827	86.980	12.713482	-57.244745	87.000	-0.450	0.550	3.290	87.020	-0.900	3.700																			1580022507.0	0.57	1.06
26/01/2020 07:08:28	26012020	260120	070828	87.140	12.713483	-57.244747	87.110	-0.130	0.420	2.180	87.160	-1.000	2.700																			1580022508.0	0.53	0.98
26/01/2020 07:08:29	26012020	260120	070829	87.220	12.713490	-57.244747	87.150	0.240	0.100	0.770	87.230	-1.300	1.300																			1580022509.0	1.35	2.50
26/01/2020 07:08:30	26012020	260120	070830	87.290	12.713498	-57.244747	87.190	0.480	-0.280	-0.720	87.310	-1.600	-0.200																			1580022510.0	1.93	3.57
26/01/2020 07:08:31	26012020	260120	070831	87.390	12.713508	-57.244747	87.260	0.470	-0.520	-1.990	87.410	-1.900	-1.500																			1580022511.0	2.13	3.94
26/01/2020 07:08:32	26012020	260120	070832	87.480	12.713517	-57.244748	87.330	0.220	-0.510	-2.600	87.480	-1.900	-2.200																			1580022512.0	1.69	3.13
26/01/2020 07:08:33	26012020	260120	070833	87.470	12.713520	-57.244750	87.320	-0.130	-0.370	-2.390	87.470	-1.800	-2.100																			1580022513.0	0.79	1.46
26/01/2020 07:08:34	26012020	260120	070834	87.420	12.713518	-57.244752	87.270	-0.400	-0.290	-1.500	87.400	-1.700	-1.200																			1580022514.0	0.51	0.94
26/01/2020 07:08:35	26012020	260120	070835	87.280	12.713512	-57.244752	87.150	-0.470	-0.250	-0.110	87.240	-1.600	0.100																			1580022515.0	1.41	2.61
26/01/2020 07:08:36	26012020	260120	070836	87.080	12.713502	-57.244752	86.980	-0.350	-0.220	1.420	87.040	-1.600	1.700																			1580022516.0	2.03	3.76
26/01/2020 07:08:37	26012020	260120	070837	86.920	12.713492	-57.244750	86.870	-0.140	-0.180	2.670	86.920	-1.600	3.000																			1580022517.0	2.06	3.82
26/01/2020 07:08:38	26012020	260120	070838	86.920	12.713485	-57.244748	86.920	0.080	-0.080	3.250	86.940	-1.500	3.600																			1580022518.0	1.41	2.61
26/01/2020 07:08:39	26012020	260120	070839	87.060	12.713483	-57.244748	87.070	0.290	0.070	3.010	87.090	-1.300	3.400																			1580022519.0	0.36	0.67
26/01/2020 07:08:40	26012020	260120	070840	87.170	12.713487	-57.244750	87.140	0.510	0.220	2.160	87.170	-1.200	2.600																			1580022520.0	0.71	1.31
26/01/2020 07:08:41	26012020	260120	070841	87.180	12.713493	-57.244750	87.120	0.620	0.300	1.020	87.180	-1.100	1.500																			1580022521.0	1.44	2.67
26/01/2020 07:08:42	26012020	260120	070842	87.190	12.713502	-57.244752	87.110	0.480	0.260	-0.110	87.190	-1.100	0.400																			1580022522.0	1.81	3.35
26/01/2020 07:08:43	26012020	260120	070843	87.220	12.713510	-57.244752	87.110	0.110	0.020	-1.000	87.230	-1.300	-0.500																			1580022523.0	1.77	3.28
26/01/2020 07:08:44	26012020	260120	070844	87.250	12.713517	-57.244752	87.120	-0.310	-0.350	-1.470	87.250	-1.700	-1.100																			1580022524.0	1.30	2.41
26/01/2020 07:08:45	26012020	260120	070845	87.220	12.713518	-57.244752	87.050	-0.590	-0.610	-1.330	87.190	-2.000	-1.000																			1580022525.0	0.40	0.74
26/01/2020 07:08:46	26012020	260120	070846	87.070	12.713515	-57.244752	86.890	-0.660	-0.620	-0.610	87.020	-2.000	-0.300																			1580022526.0	0.75	1.39
26/01/2020 07:08:47	26012020	260120	070847	86.780	12.713508	-57.244752	86.610	-0.540	-0.480	0.460	86.710	-1.900	0.800																			1580022527.0	1.55	2.87
26/01/2020 07:08:48	26012020	260120	070848	86.480	12.713500	-57.244752	86.370	-0.290	-0.270	1.380	86.450	-1.700	1.700																			1580022528.0	1.62	3.00
26/01/2020 07:08:49	26012020	260120	070849	86.430	12.713495	-57.244752	86.370	0.020	-0.030	1.770	86.450	-1.400	2.100																			1580022529.0	1.06	1.96
26/01/2020 07:08:50	26012020	260120	070850	86.620	12.713495	-57.244752	86.590	0.330	0.150	1.550	86.670	-1.300	2.000																			1580022530.0	0.16	0.30
26/01/2020 07:08:51	26012020	260120	070851	86.880	12.713497	-57.244752	86.830	0.550	0.180	0.970	86.930	-1.200	1.400																			1580022531.0	0.68	1.26
26/01/2020 07:08:52	26012020	260120	070852	87.070	12.713503	-57.244752	86.990	0.600	0.120	0.360	87.090	-1.300	0.800																			1580022532.0	1.12	2.07
26/01/2020 07:08:53	26012020	260120	070853	87.120	12.713508	-57.244752	87.000	0.470	0.060	-0.000	87.110	-1.300	0.400																			1580022533.0	1.06	1.96
26/01/2020 07:08:54	26012020	260120	070854	87.060	12.713512	-57.244752	86.930	0.210	-0.050	-0.100	87.040	-1.400	0.300																			1580022534.0	0.75	1.39
26/01/2020 07:08:55	26012020	260120	070855	86.950	12.713513	-57.244752	86.810	-0.060	-0.220	0.050	86.920	-1.600	0.400																			1580022535.0	0.36	0.67
26/01/2020 07:08:56	26012020	260120	070856	86.800	12.713513	-57.244752	86.670	-0.240	-0.370	0.380	86.770	-1.700	0.700																			1580022536.0	0.08	0.15
26/01/2020 07:08:57	26012020	260120	070857	86.660	12.713510	-57.244750	86.530	-0.360	-0.400	0.800	86.630	-1.800	1.100																			1580022537.0	0.49	0.91
26/01/2020 07:08:58	26012020	260120	070858	86.550	12.713507	-57.244750	86.460	-0.440	-0.210	1.170	86.540	-1.600	1.500																			1580022538.0	0.73	1.35
26/01/2020 07:08:59	26012020	260120	070859	86.560	12.713503	-57.244752	86.500	-0.460	0.040	1.300	86.580	-1.400	1.700																			1580022539.0	0.72	1.33
26/01/2020 07:09:00	26012020	260120	070900	86.700	12.713502	-57.244752	86.640	-0.340	0.130	1.070	86.740	-1.300	1.500	1013.80	25.60	25.70	20.30	20.30	-1.00	72.00	72.00	412.00	25.30	2.00	6.30	89.00	5.80	15	3298.00	27.40	27.40	1580022540.0	0.34	0.63
26/01/2020 07:09:01	26012020	260120	070901	86.870	12.713503	-57.244752	86.800	-0.050	-0.020	0.650	86.890	-1.400	1.100																			1580022541.0	0.25	0.46
26/01/2020 07:09:02	26012020	260120	070902	86.940	12.713507	-57.244752	86.830	0.280	-0.250	0.250	86.930	-1.600	0.700																			1580022542.0	0.59	1.09
26/01/2020 07:09:03	26012020	260120	070903	86.860	12.713508	-57.244750	86.720	0.450	-0.390	-0.030	86.830	-1.800	0.400																			1580022543.0	0.65	1.20
26/01/2020 07:09:04	26012020	260120	070904	86.680	12.713512	-57.244750	86.520	0.380	-0.320	-0.110	86.640	-1.700	0.300																			1580022544.0	0.50	0.93
26/01/2020 07:09:05	26012020	260120	070905	86.500	12.713513	-57.244752	86.360	0.160	-0.120	-0.030	86.470	-1.500	0.400																			1580022545.0	0.33	0.61
26/01/2020 07:09:06	26012020	260120	070906	86.420	12.713513	-57.244752	86.310	-0.000	0.030	0.040	86.420	-1.400	0.400																			1580022546.0	0.24	0.44
26/01/2020 07:09:07	26012020	260120	070907	86.440	12.713513	-57.244752	86.320	-0.020	0.070	0.120	86.440	-1.300	0.500																			1580022547.0	0.09	0.17
26/01/2020 07:09:08	26012020	260120	070908	86.420	12.713513	-57.244752	86.300	0.050	0.040	0.260	86.420	-1.300	0.600																			1580022548.0	0.07	0.13
26/01/2020 07:09:09	26012020	260120	070909	86.410	12.713513	-57.244752	86.300	0.080	-0.050	0.440	86.410	-1.400	0.800																			1580022549.0	0.15	0.28
26/01/2020 07:09:10	26012020	260120	070910	86.420	12.713513	-57.244750	86.300	0.000	-0.120	0.670	86.410	-1.500	1.000																			1580022550.0	0.16	0.30
26/01/2020 07:09:11	26012020	260120	070911	86.360	12.713512	-57.244750	86.250	-0.180	-0.120	0.920	86.350	-1.500	1.300																			1580022551.0	0.16	0.30
26/01/2020 07:09:12	26012020	260120	070912	86.260	12.713512	-57.244752	86.140	-0.380	-0.020	1.090	86.230	-1.400	1.400																			1580022552.0	0.22	0.41
26/01/2020 07:09:13	26012020	260120	070913	86.100	12.713510	-57.244752	85.980	-0.480	0.040	1.210	86.060	-1.300	1.600																			1580022553.0	0.35	0.65
26/01/2020 07:09:14	26012020	260120	070914	85.900	12.713508	-57.244753	85.770	-0.410	-0.070	1.280	85.860	-1.400	1.700																			1580022554.0	0.37	0.69
26/01/2020 07:09:15	26012020	260120	070915	85.750	12.713508	-57.244753	85.660	-0.170	-0.370	1.100	85.740	-1.700	1.500																			1580022555.0	0.23	0.43
26/01/2020 07:09:16	26012020	260120	070916	85.720	12.713508	-57.244752	85.610	0.150	-0.650	0.630	85.700	-2.000	1.100																			1580022556.0	0.39	0.72
26/01/2020 07:09:17	26012020	260120	070917	85.630	12.713512	-57.244750	85.500	0.440	-0.660	0.050	85.610	-2.100	0.500																			1580022557.0	0.72	1.33
26/01/2020 07:09:18	26012020	260120	070918	85.460	12.713515	-57.244750	85.310	0.590	-0.350	-0.400	85.420	-1.800	0.000																			1580022558.0	0.80	1.48
26/01/2020 07:09:19	26012020	260120	070919	85.310	12.713518	-57.244750	85.150	0.500	0.180	-0.670	85.290	-1.300	-0.300																			1580022559.0	0.76	1.41
26/01/2020 07:09:20	26012020	260120	070920	85.250	12.713522	-57.244753	85.110	0.240	0.620	-0.760	85.250	-0.800	-0.400																			1580022560.0	0.75	1.39
26/01/2020 07:09:21	26012020	260120	070921	85.250	12.713523	-57.244755	85.110	-0.050	0.650	-0.730	85.260	-0.700	-0.400																			1580022561.0	0.61	1.13
26/01/2020 07:09:22	26012020	260120	070922	85.240	12.713525	-57.244755	85.090	-0.230	0.230	-0.440	85.230	-1.100	-0.100																			1580022562.0	0.21	0.39
26/01/2020 07:09:23	26012020	260120	070923	85.130	12.713523	-57.244753	84.970	-0.250	-0.390	0.190	85.090	-1.700	0.500																			1580022563.0	0.49	0.91
26/01/2020 07:09:24	26012020	260120	070924	84.910	12.713518	-57.244750	84.770	-0.230	-0.780	1.060	84.870	-2.200	1.400																			1580022564.0	1.02	1.89
26/01/2020 07:09:25	26012020	260120	070925	84.680	12.713513	-57.244750	84.570	-0.260	-0.710	1.870	84.640	-2.100	2.200																			1580022565.0	1.21	2.24
26/01/2020 07:09:26	26012020	260120	070926	84.490	12.713508	-57.244750	84.400	-0.320	-0.320	2.280	84.450	-1.700	2.600																			1580022566.0	1.08	2.00
26/01/2020 07:09:27	26012020	260120	070927	84.340	12.713507	-57.244752	84.270	-0.300	0.110	2.070	84.340	-1.300	2.500																			1580022567.0	0.62	1.15
26/01/2020 07:09:28	26012020	260120	070928	84.290	12.713507	-57.244753	84.230	-0.150	0.360	1.350	84.300	-1.000	1.800																			1580022568.0	0.45	0.83
26/01/2020 07:09:29	26012020	260120	070929	84.330	12.713512	-57.244755	84.250	0.100	0.310	0.370	84.330	-1.100	0.800																			1580022569.0	0.94	1.74
26/01/2020 07:09:30	26012020	260120	070930	84.330	12.713518	-57.244755	84.220	0.320	-0.080	-0.590	84.320	-1.400	-0.100																			1580022570.0	1.27	2.35
26/01/2020 07:09:31	26012020	260120	070931	84.250	12.713523	-57.244753	84.100	0.430	-0.540	-1.300	84.230	-1.900	-0.900																			1580022571.0	1.34	2.48
26/01/2020 07:09:32	26012020	260120	070932	84.080	12.713528	-57.244752	83.900	0.380	-0.710	-1.610	84.030	-2.100	-1.200																			1580022572.0	1.09	2.02
26/01/2020 07:09:33	26012020	260120	070933	83.830	12.713532	-57.244752	83.640	0.200	-0.440	-1.460	83.770	-1.900	-1.100																			1580022573.0	0.55	1.02
26/01/2020 07:09:34	26012020	260120	070934	83.590	12.713530	-57.244753	83.430	0.000	0.010	-0.930	83.550	-1.400	-0.600																			1580022574.0	0.30	0.56
26/01/2020 07:09:35	26012020	260120	070935	83.470	12.713528	-57.244755	83.360	-0.130	0.250	-0.170	83.470	-1.200	0.100																			1580022575.0	0.67	1.24
26/01/2020 07:09:36	26012020	260120	070936	83.500	12.713523	-57.244755	83.430	-0.170	0.180	0.630	83.520	-1.200	0.900																			1580022576.0	0.97	1.80
26/01/2020 07:09:37	26012020	260120	070937	83.580	12.713518	-57.244753	83.530	-0.130	0.020	1.290	83.590	-1.400	1.600																			1580022577.0	1.04	1.93
26/01/2020 07:09:38	26012020	260120	070938	83.560	12.713515	-57.244752	83.480	-0.040	-0.060	1.740	83.540	-1.400	2.100																			1580022578.0	0.83	1.54
26/01/2020 07:09:39	26012020	260120	070939	83.390	12.713513	-57.244752	83.290	0.030	0.010	1.970	83.340	-1.400	2.300																			1580022579.0	0.45	0.83
26/01/2020 07:09:40	26012020	260120	070940	83.160	12.713512	-57.244753	83.050	0.030	0.080	1.960	83.110	-1.300	2.300																			1580022580.0	0.22	0.41
26/01/2020 07:09:41	26012020	260120	070941	82.940	12.713513	-57.244753	82.850	-0.050	-0.030	1.640	82.900	-1.400	2.100																			1580022581.0	0.36	0.67
26/01/2020 07:09:42	26012020	260120	070942	82.810	12.713517	-57.244753	82.730	-0.140	-0.360	1.010	82.790	-1.700	1.500																			1580022582.0	0.68	1.26
26/01/2020 07:09:43	26012020	260120	070943	82.740	12.713522	-57.244753	82.640	-0.180	-0.650	0.300	82.730	-2.000	0.700																			1580022583.0	0.93	1.72
26/01/2020 07:09:44	26012020	260120	070944	82.650	12.713525	-57.244753	82.520	-0.160	-0.630	-0.260	82.620	-2.000	0.200																			1580022584.0	0.76	1.41
26/01/2020 07:09:45	26012020	260120	070945	82.480	12.713527	-57.244753	82.330	-0.120	-0.300	-0.610	82.440	-1.700	-0.200																			1580022585.0	0.36	0.67
26/01/2020 07:09:46	26012020	260120	070946	82.240	12.713527	-57.244755	82.060	-0.080	0.120	-0.780	82.180	-1.300	-0.400																			1580022586.0	0.27	0.50
26/01/2020 07:09:47	26012020	260120	070947	82.020	12.713527	-57.244757	81.850	0.020	0.360	-0.870	82.000	-1.000	-0.500																			1580022587.0	0.28	0.52
26/01/2020 07:09:48	26012020	260120	070948	81.960	12.713527	-57.244757	81.810	0.230	0.280	-0.960	81.960	-1.100	-0.600																			1580022588.0	0.26	0.48
26/01/2020 07:09:49	26012020	260120	070949	81.980	12.713530	-57.244755	81.820	0.450	0.030	-0.910	81.980	-1.300	-0.500																			1580022589.0	0.49	0.91
26/01/2020 07:09:50	26012020	260120	070950	81.900	12.713532	-57.244755	81.730	0.520	-0.180	-0.530	81.880	-1.600	-0.200																			1580022590.0	0.41	0.76
26/01/2020 07:09:51	26012020	260120	070951	81.710	12.713532	-57.244755	81.530	0.370	-0.270	0.150	81.710	-1.700	0.500																			1580022591.0	0.11	0.20
26/01/2020 07:09:52	26012020	260120	070952	81.430	12.713528	-57.244753	81.260	0.060	-0.290	0.990	81.380	-1.700	1.300																			1580022592.0	0.49	0.91
26/01/2020 07:09:53	26012020	260120	070953	81.210	12.713525	-57.244753	81.080	-0.270	-0.260	1.770	81.210	-1.700	2.100																			1580022593.0	0.83	1.54
26/01/2020 07:09:54	26012020	260120	070954	81.060	12.713520	-57.244753	80.950	-0.510	-0.190	2.380	81.030	-1.600	2.700																			1580022594.0	1.00	1.85
26/01/2020 07:09:55	26012020	260120	070955	80.840	12.713515	-57.244753	80.710	-0.600	-0.070	2.730	80.790	-1.500	3.100																			1580022595.0	1.02	1.89
26/01/2020 07:09:56	26012020	260120	070956	80.560	12.713513	-57.244753	80.420	-0.520	0.030	2.550	80.500	-1.400	3.000																			1580022596.0	0.64	1.19
26/01/2020 07:09:57	26012020	260120	070957	80.320	12.713513	-57.244753	80.160	-0.270	-0.030	1.760	80.290	-1.400	2.200																			1580022597.0	0.12	0.22
26/01/2020 07:09:58	26012020	260120	070958	80.180	12.713518	-57.244753	80.010	0.120	-0.240	0.510	80.170	-1.600	1.000																			1580022598.0	0.98	1.81
26/01/2020 07:09:59	26012020	260120	070959	80.150	12.713525	-57.244753	79.970	0.460	-0.340	-0.860	80.150	-1.700	-0.400																			1580022599.0	1.63	3.02
26/01/2020 07:10:00	26012020	260120	071000	80.130	12.713533	-57.244753	79.940	0.560	-0.140	-1.990	80.120	-1.600	-1.500	1013.80	25.60	25.60	20.20	20.20	-1.00	72.00	72.00	410.00	25.30	6.00	6.20	91.00	5.90	15	3161.00	27.40	27.40	1580022600.0	1.81	3.35
26/01/2020 07:10:01	26012020	260120	071001	80.040	12.713540	-57.244757	79.800	0.360	0.220	-2.590	80.000	-1.200	-2.200																			1580022601.0	1.60	2.96
26/01/2020 07:10:02	26012020	260120	071002	79.850	12.713545	-57.244758	79.620	0.090	0.310	-2.530	79.810	-1.100	-2.200																			1580022602.0	1.02	1.89
26/01/2020 07:10:03	26012020	260120	071003	79.620	12.713545	-57.244760	79.400	-0.070	-0.010	-1.800	79.570	-1.400	-1.500																			1580022603.0	0.09	0.17
26/01/2020 07:10:04	26012020	260120	071004	79.330	12.713542	-57.244757	79.130	-0.100	-0.430	-0.500	79.260	-1.800	-0.200																			1580022604.0	0.88	1.63
26/01/2020 07:10:05	26012020	260120	071005	78.980	12.713535	-57.244753	78.810	-0.140	-0.620	1.020	78.900	-2.000	1.300																			1580022605.0	1.55	2.87
26/01/2020 07:10:06	26012020	260120	071006	78.660	12.713527	-57.244752	78.530	-0.240	-0.520	2.330	78.610	-1.900	2.600																			1580022606.0	1.76	3.26
26/01/2020 07:10:07	26012020	260120	071007	78.480	12.713520	-57.244752	78.370	-0.300	-0.290	3.170	78.450	-1.700	3.500																			1580022607.0	1.56	2.89
26/01/2020 07:10:08	26012020	260120	071008	78.430	12.713515	-57.244750	78.340	-0.190	-0.080	3.360	78.440	-1.500	3.700																			1580022608.0	1.04	1.93
26/01/2020 07:10:09	26012020	260120	071009	78.470	12.713513	-57.244750	78.360	0.030	0.160	2.830	78.470	-1.300	3.300																			1580022609.0	0.29	0.54
26/01/2020 07:10:10	26012020	260120	071010	78.460	12.713515	-57.244752	78.310	0.160	0.470	1.720	78.450	-0.900	2.200																			1580022610.0	0.58	1.07
26/01/2020 07:10:11	26012020	260120	071011	78.370	12.713522	-57.244753	78.180	0.140	0.590	0.290	78.330	-0.800	0.800																			1580022611.0	1.44	2.67
26/01/2020 07:10:12	26012020	260120	071012	78.160	12.713530	-57.244757	77.940	0.100	0.240	-1.080	78.100	-1.100	-0.600																			1580022612.0	1.98	3.67
26/01/2020 07:10:13	26012020	260120	071013	77.860	12.713540	-57.244757	77.630	0.200	-0.460	-2.160	77.790	-1.800	-1.700																			1580022613.0	2.09	3.87
26/01/2020 07:10:14	26012020	260120	071014	77.590	12.713548	-57.244757	77.370	0.330	-1.020	-2.770	77.550	-2.400	-2.400																			1580022614.0	1.82	3.37
26/01/2020 07:10:15	26012020	260120	071015	77.450	12.713553	-57.244757	77.250	0.270	-0.980	-2.640	77.430	-2.400	-2.300																			1580022615.0	0.95	1.76
26/01/2020 07:10:16	26012020	260120	071016	77.370	12.713552	-57.244757	77.210	-0.060	-0.400	-1.750	77.360	-1.800	-1.500																			1580022616.0	0.39	0.72
26/01/2020 07:10:17	26012020	260120	071017	77.310	12.713545	-57.244758	77.180	-0.460	0.300	-0.370	77.310	-1.100	-0.100																			1580022617.0	1.56	2.89
26/01/2020 07:10:18	26012020	260120	071018	77.250	12.713535	-57.244758	77.180	-0.630	0.560	1.060	77.230	-0.800	1.300																			1580022618.0	2.09	3.87
26/01/2020 07:10:19	26012020	260120	071019	77.150	12.713525	-57.244755	77.100	-0.430	0.250	2.250	77.150	-1.100	2.500																			1580022619.0	1.98	3.67
26/01/2020 07:10:20	26012020	260120	071020	76.920	12.713520	-57.244752	76.850	-0.010	-0.210	3.080	76.860	-1.600	3.400																			1580022620.0	1.60	2.96
26/01/2020 07:10:21	26012020	260120	071021	76.610	12.713517	-57.244748	76.540	0.360	-0.320	3.350	76.550	-1.700	3.700																			1580022621.0	0.92	1.70
26/01/2020 07:10:22	26012020	260120	071022	76.390	12.713517	-57.244750	76.340	0.510	-0.100	2.880	76.370	-1.500	3.300																			1580022622.0	0.15	0.28
26/01/2020 07:10:23	26012020	260120	071023	76.350	12.713522	-57.244752	76.290	0.470	0.060	1.730	76.360	-1.300	2.200																			1580022623.0	1.23	2.28
26/01/2020 07:10:24	26012020	260120	071024	76.370	12.713530	-57.244755	76.270	0.350	-0.050	0.310	76.370	-1.400	0.800																			1580022624.0	1.97	3.65
26/01/2020 07:10:25	26012020	260120	071025	76.290	12.713540	-57.244757	76.130	0.190	-0.260	-0.920	76.260	-1.600	-0.400																			1580022625.0	2.14	3.96
26/01/2020 07:10:26	26012020	260120	071026	76.060	12.713547	-57.244758	75.860	-0.060	-0.270	-1.630	76.000	-1.700	-1.200																			1580022626.0	1.57	2.91
26/01/2020 07:10:27	26012020	260120	071027	75.800	12.713550	-57.244760	75.620	-0.370	-0.120	-1.820	75.770	-1.500	-1.400																			1580022627.0	0.67	1.24
26/01/2020 07:10:28	26012020	260120	071028	75.690	12.713548	-57.244762	75.550	-0.590	-0.040	-1.610	75.670	-1.400	-1.200																			1580022628.0	0.36	0.67
26/01/2020 07:10:29	26012020	260120	071029	75.610	12.713545	-57.244762	75.510	-0.570	-0.190	-0.990	75.610	-1.600	-0.700																			1580022629.0	0.74	1.37
26/01/2020 07:10:30	26012020	260120	071030	75.460	12.713542	-57.244760	75.350	-0.300	-0.370	-0.170	75.420	-1.700	0.100																			1580022630.0	1.02	1.89
26/01/2020 07:10:31	26012020	260120	071031	75.250	12.713537	-57.244757	75.170	0.060	-0.330	0.610	75.210	-1.700	0.900																			1580022631.0	1.04	1.93
26/01/2020 07:10:32	26012020	260120	071032	75.090	12.713533	-57.244757	75.040	0.320	-0.100	1.140	75.070	-1.500	1.500																			1580022632.0	0.82	1.52
26/01/2020 07:10:33	26012020	260120	071033	75.050	12.713530	-57.244757	75.030	0.380	0.150	1.410	75.050	-1.200	1.800																			1580022633.0	0.50	0.93
26/01/2020 07:10:34	26012020	260120	071034	75.060	12.713530	-57.244758	75.040	0.300	0.240	1.460	75.060	-1.100	1.800																			1580022634.0	0.25	0.46
26/01/2020 07:10:35	26012020	260120	071035	75.030	12.713532	-57.244760	74.990	0.200	0.080	1.260	75.020	-1.300	1.700																			1580022635.0	0.32	0.59
26/01/2020 07:10:36	26012020	260120	071036	74.970	12.713533	-57.244760	74.920	0.180	-0.240	0.830	74.960	-1.600	1.300																			1580022636.0	0.60	1.11
26/01/2020 07:10:37	26012020	260120	071037	74.890	12.713538	-57.244758	74.820	0.190	-0.470	0.390	74.870	-1.800	0.800																			1580022637.0	0.76	1.41
26/01/2020 07:10:38	26012020	260120	071038	74.740	12.713540	-57.244758	74.660	0.110	-0.370	0.130	74.710	-1.800	0.500																			1580022638.0	0.54	1.00
26/01/2020 07:10:39	26012020	260120	071039	74.580	12.713542	-57.244760	74.490	-0.090	-0.030	-0.040	74.550	-1.400	0.400																			1580022639.0	0.37	0.69
26/01/2020 07:10:40	26012020	260120	071040	74.470	12.713542	-57.244762	74.400	-0.270	0.250	-0.210	74.450	-1.200	0.200																			1580022640.0	0.45	0.83
26/01/2020 07:10:41	26012020	260120	071041	74.390	12.713542	-57.244763	74.320	-0.350	0.210	-0.320	74.390	-1.200	0.100																			1580022641.0	0.30	0.56
26/01/2020 07:10:42	26012020	260120	071042	74.360	12.713543	-57.244763	74.310	-0.310	-0.050	-0.320	74.360	-1.400	0.100																			1580022642.0	0.20	0.37
26/01/2020 07:10:43	26012020	260120	071043	74.380	12.713543	-57.244762	74.340	-0.250	-0.270	-0.180	74.380	-1.600	0.200																			1580022643.0	0.23	0.43
26/01/2020 07:10:44	26012020	260120	071044	74.320	12.713542	-57.244762	74.280	-0.180	-0.280	0.200	74.300	-1.700	0.500																			1580022644.0	0.39	0.72
26/01/2020 07:10:45	26012020	260120	071045	74.130	12.713538	-57.244762	74.060	-0.080	-0.250	0.700	74.080	-1.600	1.000																			1580022645.0	0.70	1.30
26/01/2020 07:10:46	26012020	260120	071046	73.890	12.713535	-57.244760	73.860	0.080	-0.360	1.090	73.860	-1.700	1.400																			1580022646.0	0.69	1.28
26/01/2020 07:10:47	26012020	260120	071047	73.700	12.713533	-57.244758	73.670	0.290	-0.440	1.270	73.660	-1.800	1.600																			1580022647.0	0.45	0.83
26/01/2020 07:10:48	26012020	260120	071048	73.530	12.713535	-57.244758	73.490	0.410	-0.250	1.190	73.490	-1.700	1.600																			1580022648.0	0.19	0.35
26/01/2020 07:10:49	26012020	260120	071049	73.410	12.713537	-57.244758	73.380	0.400	0.150	0.800	73.390	-1.300	1.200																			1580022649.0	0.53	0.98
26/01/2020 07:10:50	26012020	260120	071050	73.370	12.713540	-57.244762	73.330	0.270	0.360	0.230	73.360	-1.000	0.700																			1580022650.0	1.00	1.85
26/01/2020 07:10:51	26012020	260120	071051	73.360	12.713545	-57.244763	73.310	0.110	0.230	-0.300	73.360	-1.100	0.100																			1580022651.0	1.07	1.98
26/01/2020 07:10:52	26012020	260120	071052	73.360	12.713548	-57.244763	73.300	-0.050	-0.050	-0.590	73.350	-1.400	-0.200																			1580022652.0	0.84	1.56
26/01/2020 07:10:53	26012020	260120	071053	73.310	12.713550	-57.244762	73.250	-0.200	-0.240	-0.540	73.310	-1.600	-0.200																			1580022653.0	0.37	0.69
26/01/2020 07:10:54	26012020	260120	071054	73.210	12.713550	-57.244762	73.150	-0.310	-0.310	-0.220	73.190	-1.700	0.100																			1580022654.0	0.32	0.59
26/01/2020 07:10:55	26012020	260120	071055	73.090	12.713547	-57.244760	73.050	-0.340	-0.330	0.190	73.090	-1.700	0.500																			1580022655.0	0.71	1.31
26/01/2020 07:10:56	26012020	260120	071056	73.020	12.713543	-57.244760	72.980	-0.270	-0.290	0.510	73.010	-1.700	0.900																			1580022656.0	0.76	1.41
26/01/2020 07:10:57	26012020	260120	071057	72.970	12.713540	-57.244758	72.930	-0.130	-0.090	0.680	72.950	-1.500	1.000																			1580022657.0	0.50	0.93
26/01/2020 07:10:58	26012020	260120	071058	72.890	12.713540	-57.244760	72.860	0.060	0.150	0.720	72.880	-1.200	1.100																			1580022658.0	0.19	0.35
26/01/2020 07:10:59	26012020	260120	071059	72.860	12.713542	-57.244760	72.820	0.240	0.190	0.570	72.860	-1.200	1.000																			1580022659.0	0.38	0.70
26/01/2020 07:11:00	26012020	260120	071100	72.890	12.713543	-57.244762	72.860	0.350	-0.070	0.280	72.910	-1.400	0.700	1013.80	25.50	25.60	19.90	20.00	-1.00	71.00	71.00	409.00	25.30	16.00	5.80	93.00	5.40	15	3329.00	27.40	27.40	1580022660.0	0.61	1.13
26/01/2020 07:11:01	26012020	260120	071101	72.960	12.713547	-57.244762	72.920	0.320	-0.470	0.040	72.970	-1.800	0.400																			1580022661.0	0.66	1.22
26/01/2020 07:11:02	26012020	260120	071102	72.990	12.713548	-57.244760	72.950	0.110	-0.650	0.020	73.000	-2.000	0.400																			1580022662.0	0.51	0.94
26/01/2020 07:11:03	26012020	260120	071103	72.970	12.713548	-57.244758	72.920	-0.210	-0.330	0.240	72.960	-1.800	0.600																			1580022663.0	0.09	0.17
26/01/2020 07:11:04	26012020	260120	071104	72.850	12.713547	-57.244760	72.790	-0.460	0.270	0.590	72.810	-1.100	0.900																			1580022664.0	0.61	1.13
26/01/2020 07:11:05	26012020	260120	071105	72.700	12.713543	-57.244762	72.660	-0.450	0.540	0.830	72.680	-0.800	1.200																			1580022665.0	0.82	1.52
26/01/2020 07:11:06	26012020	260120	071106	72.640	12.713542	-57.244762	72.620	-0.170	0.170	0.870	72.630	-1.200	1.300																			1580022666.0	0.43	0.80
26/01/2020 07:11:07	26012020	260120	071107	72.630	12.713542	-57.244760	72.620	0.200	-0.410	0.700	72.630	-1.700	1.100																			1580022667.0	0.49	0.91
26/01/2020 07:11:08	26012020	260120	071108	72.710	12.713543	-57.244758	72.700	0.450	-0.590	0.350	72.720	-2.000	0.800																			1580022668.0	0.64	1.19
26/01/2020 07:11:09	26012020	260120	071109	72.780	12.713547	-57.244760	72.750	0.460	-0.290	0.050	72.790	-1.700	0.500																			1580022669.0	0.69	1.28
26/01/2020 07:11:10	26012020	260120	071110	72.750	12.713550	-57.244763	72.700	0.310	0.070	-0.020	72.740	-1.300	0.400																			1580022670.0	0.78	1.44
26/01/2020 07:11:11	26012020	260120	071111	72.630	12.713550	-57.244765	72.570	0.120	0.160	0.090	72.600	-1.200	0.500																			1580022671.0	0.52	0.96
26/01/2020 07:11:12	26012020	260120	071112	72.460	12.713552	-57.244765	72.400	-0.060	-0.040	0.320	72.420	-1.400	0.700																			1580022672.0	0.13	0.24
26/01/2020 07:11:13	26012020	260120	071113	72.290	12.713552	-57.244763	72.260	-0.240	-0.240	0.680	72.260	-1.600	1.000																			1580022673.0	0.31	0.57
26/01/2020 07:11:14	26012020	260120	071114	72.190	12.713548	-57.244762	72.180	-0.390	-0.220	1.060	72.180	-1.600	1.400																			1580022674.0	0.49	0.91
26/01/2020 07:11:15	26012020	260120	071115	72.180	12.713547	-57.244762	72.180	-0.430	-0.110	1.270	72.180	-1.500	1.600																			1580022675.0	0.58	1.07
26/01/2020 07:11:16	26012020	260120	071116	72.190	12.713545	-57.244762	72.180	-0.290	-0.070	1.230	72.180	-1.400	1.600																			1580022676.0	0.40	0.74
26/01/2020 07:11:17	26012020	260120	071117	72.110	12.713545	-57.244762	72.070	-0.060	-0.100	1.000	72.080	-1.500	1.400																			1580022677.0	0.08	0.15
26/01/2020 07:11:18	26012020	260120	071118	71.950	12.713545	-57.244762	71.900	0.140	-0.140	0.610	71.920	-1.500	1.000																			1580022678.0	0.32	0.59
26/01/2020 07:11:19	26012020	260120	071119	71.790	12.713548	-57.244762	71.740	0.240	-0.160	0.120	71.790	-1.500	0.500																			1580022679.0	0.73	1.35
26/01/2020 07:11:20	26012020	260120	071120	71.700	12.713553	-57.244763	71.670	0.240	-0.110	-0.440	71.700	-1.500	0.000																			1580022680.0	1.06	1.96
26/01/2020 07:11:21	26012020	260120	071121	71.750	12.713558	-57.244765	71.750	0.180	-0.050	-0.940	71.780	-1.400	-0.500																			1580022681.0	1.14	2.11
26/01/2020 07:11:22	26012020	260120	071122	71.920	12.713563	-57.244765	71.930	0.080	-0.010	-1.180	71.950	-1.400	-0.800																			1580022682.0	0.81	1.50
26/01/2020 07:11:23	26012020	260120	071123	72.040	12.713563	-57.244765	72.030	-0.050	0.010	-1.000	72.040	-1.400	-0.600																			1580022683.0	0.18	0.33
26/01/2020 07:11:24	26012020	260120	071124	71.980	12.713562	-57.244765	71.950	-0.140	-0.060	-0.450	71.950	-1.400	-0.100																			1580022684.0	0.44	0.81
26/01/2020 07:11:25	26012020	260120	071125	71.790	12.713558	-57.244763	71.760	-0.090	-0.310	0.240	71.750	-1.600	0.600																			1580022685.0	0.77	1.43
26/01/2020 07:11:26	26012020	260120	071126	71.610	12.713555	-57.244760	71.600	0.090	-0.540	0.830	71.580	-1.900	1.200																			1580022686.0	0.87	1.61
26/01/2020 07:11:27	26012020	260120	071127	71.540	12.713553	-57.244758	71.570	0.220	-0.480	1.100	71.540	-1.900	1.500																			1580022687.0	0.63	1.17
26/01/2020 07:11:28	26012020	260120	071128	71.630	12.713553	-57.244758	71.670	0.170	-0.080	1.030	71.650	-1.500	1.400																			1580022688.0	0.09	0.17
26/01/2020 07:11:29	26012020	260120	071129	71.790	12.713553	-57.244760	71.840	0.000	0.320	0.760	71.830	-1.100	1.200																			1580022689.0	0.45	0.83
26/01/2020 07:11:30	26012020	260120	071130	71.960	12.713555	-57.244762	71.990	-0.140	0.330	0.350	71.990	-1.000	0.800																			1580022690.0	0.55	1.02
26/01/2020 07:11:31	26012020	260120	071131	72.050	12.713558	-57.244762	72.080	-0.190	-0.010	-0.070	72.070	-1.300	0.400																			1580022691.0	0.61	1.13
26/01/2020 07:11:32	26012020	260120	071132	72.090	12.713562	-57.244760	72.080	-0.180	-0.290	-0.320	72.080	-1.700	0.100																			1580022692.0	0.59	1.09
26/01/2020 07:11:33	26012020	260120	071133	72.000	12.713562	-57.244760	71.990	-0.190	-0.260	-0.330	71.980	-1.600	0.000																			1580022693.0	0.22	0.41
26/01/2020 07:11:34	26012020	260120	071134	71.930	12.713560	-57.244760	71.940	-0.180	-0.070	-0.290	71.930	-1.500	0.100																			1580022694.0	0.22	0.41
26/01/2020 07:11:35	26012020	260120	071135	72.020	12.713560	-57.244762	72.060	-0.070	-0.010	-0.360	72.050	-1.400	0.000																			1580022695.0	0.23	0.43
26/01/2020 07:11:36	26012020	260120	071136	72.210	12.713560	-57.244762	72.250	0.100	-0.150	-0.440	72.250	-1.500	-0.100																			1580022696.0	0.12	0.22
26/01/2020 07:11:37	26012020	260120	071137	72.320	12.713562	-57.244762	72.320	0.260	-0.350	-0.370	72.320	-1.700	0.000																			1580022697.0	0.28	0.52
26/01/2020 07:11:38	26012020	260120	071138	72.310	12.713562	-57.244760	72.300	0.320	-0.460	-0.120	72.300	-1.800	0.200																			1580022698.0	0.29	0.54
26/01/2020 07:11:39	26012020	260120	071139	72.250	12.713562	-57.244758	72.250	0.200	-0.350	0.270	72.240	-1.700	0.600																			1580022699.0	0.32	0.59
26/01/2020 07:11:40	26012020	260120	071140	72.200	12.713558	-57.244758	72.200	-0.050	-0.020	0.740	72.190	-1.400	1.100																			1580022700.0	0.51	0.94
26/01/2020 07:11:41	26012020	260120	071141	72.180	12.713557	-57.244758	72.190	-0.280	0.300	1.080	72.180	-1.100	1.400																			1580022701.0	0.63	1.17
26/01/2020 07:11:42	26012020	260120	071142	72.240	12.713553	-57.244758	72.270	-0.330	0.400	1.100	72.270	-1.000	1.500																			1580022702.0	0.44	0.81
26/01/2020 07:11:43	26012020	260120	071143	72.380	12.713553	-57.244758	72.410	-0.180	0.240	0.840	72.410	-1.100	1.200																			1580022703.0	0.04	0.07
26/01/2020 07:11:44	26012020	260120	071144	72.520	12.713555	-57.244758	72.530	0.080	-0.140	0.470	72.540	-1.500	0.900																			1580022704.0	0.35	0.65
26/01/2020 07:11:45	26012020	260120	071145	72.590	12.713558	-57.244758	72.590	0.310	-0.600	0.150	72.600	-1.900	0.600																			1580022705.0	0.56	1.04
26/01/2020 07:11:46	26012020	260120	071146	72.570	12.713560	-57.244757	72.520	0.400	-0.850	-0.060	72.550	-2.200	0.300																			1580022706.0	0.58	1.07
26/01/2020 07:11:47	26012020	260120	071147	72.440	12.713562	-57.244755	72.380	0.280	-0.640	-0.200	72.420	-2.000	0.200																			1580022707.0	0.39	0.72
26/01/2020 07:11:48	26012020	260120	071148	72.350	12.713563	-57.244757	72.310	0.020	-0.080	-0.260	72.350	-1.500	0.100																			1580022708.0	0.30	0.56
26/01/2020 07:11:49	26012020	260120	071149	72.380	12.713562	-57.244758	72.370	-0.250	0.460	-0.180	72.410	-1.000	0.200																			1580022709.0	0.42	0.78
26/01/2020 07:11:50	26012020	260120	071150	72.530	12.713562	-57.244760	72.540	-0.410	0.640	-0.050	72.570	-0.700	0.300																			1580022710.0	0.36	0.67
26/01/2020 07:11:51	26012020	260120	071151	72.750	12.713560	-57.244760	72.760	-0.410	0.400	-0.020	72.800	-0.900	0.400																			1580022711.0	0.28	0.52
26/01/2020 07:11:52	26012020	260120	071152	72.970	12.713558	-57.244758	72.950	-0.230	-0.000	0.030	72.990	-1.300	0.400																			1580022712.0	0.36	0.67
26/01/2020 07:11:53	26012020	260120	071153	73.000	12.713557	-57.244757	72.950	0.040	-0.360	0.310	72.990	-1.700	0.700																			1580022713.0	0.49	0.91
26/01/2020 07:11:54	26012020	260120	071154	72.830	12.713555	-57.244755	72.740	0.270	-0.600	0.720	72.780	-2.000	1.100																			1580022714.0	0.53	0.98
26/01/2020 07:11:55	26012020	260120	071155	72.590	12.713555	-57.244753	72.520	0.360	-0.670	0.960	72.550	-2.100	1.300																			1580022715.0	0.30	0.56
26/01/2020 07:11:56	26012020	260120	071156	72.480	12.713555	-57.244753	72.450	0.320	-0.560	0.930	72.480	-2.000	1.300																			1580022716.0	0.15	0.28
26/01/2020 07:11:57	26012020	260120	071157	72.530	12.713557	-57.244755	72.550	0.230	-0.270	0.670	72.550	-1.700	1.100																			1580022717.0	0.38	0.70
26/01/2020 07:11:58	26012020	260120	071158	72.760	12.713558	-57.244755	72.760	0.120	0.200	0.340	72.810	-1.200	0.800																			1580022718.0	0.46	0.85
26/01/2020 07:11:59	26012020	260120	071159	72.940	12.713560	-57.244758	72.950	-0.060	0.620	0.000	72.980	-0.800	0.400																			1580022719.0	0.46	0.85
26/01/2020 07:12:00	26012020	260120	071200	73.070	12.713560	-57.244760	73.000	-0.240	0.630	-0.260	73.070	-0.700	0.100	1013.80	25.60	25.60	20.10	20.10	-1.00	71.00	71.00	407.00	25.30	27.00	5.70	100.00	5.60	15	3211.00	27.40	27.40	1580022720.0	0.40	0.74
26/01/2020 07:12:01	26012020	260120	071201	72.990	12.713562	-57.244758	72.910	-0.280	0.090	-0.280	72.970	-1.200	0.100																			1580022721.0	0.18	0.33
26/01/2020 07:12:02	26012020	260120	071202	72.920	12.713562	-57.244757	72.870	-0.120	-0.660	-0.190	72.920	-2.000	0.200																			1580022722.0	0.58	1.07
26/01/2020 07:12:03	26012020	260120	071203	72.990	12.713562	-57.244753	72.970	0.090	-1.030	-0.070	73.010	-2.400	0.300																			1580022723.0	0.69	1.28
26/01/2020 07:12:04	26012020	260120	071204	73.050	12.713562	-57.244752	73.010	0.150	-0.700	0.120	73.040	-2.100	0.500																			1580022724.0	0.34	0.63
26/01/2020 07:12:05	26012020	260120	071205	72.970	12.713558	-57.244753	72.920	0.040	0.020	0.360	72.940	-1.400	0.700																			1580022725.0	0.53	0.98
26/01/2020 07:12:06	26012020	260120	071206	72.880	12.713557	-57.244755	72.840	-0.060	0.500	0.520	72.870	-0.900	0.900																			1580022726.0	0.67	1.24
26/01/2020 07:12:07	26012020	260120	071207	72.950	12.713555	-57.244757	72.960	-0.000	0.400	0.460	72.990	-0.900	0.900																			1580022727.0	0.24	0.44
26/01/2020 07:12:08	26012020	260120	071208	73.170	12.713557	-57.244755	73.170	0.150	-0.000	0.230	73.210	-1.300	0.600																			1580022728.0	0.38	0.70
26/01/2020 07:12:09	26012020	260120	071209	73.370	12.713558	-57.244753	73.350	0.190	-0.180	-0.040	73.400	-1.600	0.400																			1580022729.0	0.56	1.04
26/01/2020 07:12:10	26012020	260120	071210	73.460	12.713562	-57.244753	73.400	0.030	-0.000	-0.170	73.460	-1.400	0.200																			1580022730.0	0.45	0.83
26/01/2020 07:12:11	26012020	260120	071211	73.380	12.713562	-57.244757	73.300	-0.170	0.140	-0.050	73.350	-1.200	0.300																			1580022731.0	0.49	0.91
26/01/2020 07:12:12	26012020	260120	071212	73.240	12.713560	-57.244757	73.160	-0.180	-0.150	0.230	73.210	-1.500	0.600																			1580022732.0	0.25	0.46
26/01/2020 07:12:13	26012020	260120	071213	73.170	12.713560	-57.244755	73.130	0.020	-0.700	0.470	73.170	-2.000	0.800																			1580022733.0	0.53	0.98
26/01/2020 07:12:14	26012020	260120	071214	73.160	12.713558	-57.244752	73.130	0.220	-0.950	0.650	73.160	-2.300	1.000																			1580022734.0	0.72	1.33
26/01/2020 07:12:15	26012020	260120	071215	73.110	12.713557	-57.244750	73.080	0.220	-0.630	0.730	73.100	-2.000	1.100																			1580022735.0	0.38	0.70
26/01/2020 07:12:16	26012020	260120	071216	73.050	12.713557	-57.244752	73.010	0.050	0.060	0.600	73.050	-1.400	1.000																			1580022736.0	0.25	0.46
26/01/2020 07:12:17	26012020	260120	071217	73.140	12.713558	-57.244753	73.140	-0.100	0.580	0.190	73.180	-0.800	0.600																			1580022737.0	0.62	1.15
26/01/2020 07:12:18	26012020	260120	071218	73.420	12.713560	-57.244755	73.420	-0.130	0.600	-0.330	73.480	-0.800	0.100																			1580022738.0	0.62	1.15
26/01/2020 07:12:19	26012020	260120	071219	73.680	12.713563	-57.244755	73.640	-0.140	0.270	-0.580	73.710	-1.100	-0.200																			1580022739.0	0.49	0.91
26/01/2020 07:12:20	26012020	260120	071220	73.750	12.713563	-57.244753	73.680	-0.240	-0.000	-0.470	73.750	-1.400	-0.100																			1580022740.0	0.29	0.54
26/01/2020 07:12:21	26012020	260120	071221	73.690	12.713562	-57.244753	73.620	-0.370	-0.110	-0.150	73.670	-1.500	0.200																			1580022741.0	0.44	0.81
26/01/2020 07:12:22	26012020	260120	071222	73.600	12.713558	-57.244753	73.540	-0.330	-0.170	0.180	73.580	-1.500	0.500																			1580022742.0	0.67	1.24
26/01/2020 07:12:23	26012020	260120	071223	73.540	12.713555	-57.244753	73.460	0.010	-0.430	0.420	73.520	-1.800	0.800																			1580022743.0	0.57	1.06
26/01/2020 07:12:24	26012020	260120	071224	73.430	12.713555	-57.244752	73.380	0.500	-0.800	0.560	73.420	-2.200	0.900																			1580022744.0	0.36	0.67
26/01/2020 07:12:25	26012020	260120	071225	73.350	12.713555	-57.244750	73.310	0.820	-0.890	0.560	73.350	-2.300	0.900																			1580022745.0	0.45	0.83
26/01/2020 07:12:26	26012020	260120	071226	73.340	12.713558	-57.244750	73.310	0.770	-0.460	0.390	73.350	-1.900	0.800																			1580022746.0	0.51	0.94
26/01/2020 07:12:27	26012020	260120	071227	73.410	12.713560	-57.244752	73.380	0.360	0.210	0.210	73.430	-1.200	0.600																			1580022747.0	0.68	1.26
26/01/2020 07:12:28	26012020	260120	071228	73.560	12.713562	-57.244755	73.540	-0.180	0.690	0.070	73.600	-0.700	0.500																			1580022748.0	0.61	1.13
26/01/2020 07:12:29	26012020	260120	071229	73.760	12.713562	-57.244757	73.730	-0.630	0.730	0.010	73.790	-0.700	0.400																			1580022749.0	0.28	0.52
26/01/2020 07:12:30	26012020	260120	071230	73.860	12.713560	-57.244755	73.810	-0.810	0.380	0.160	73.860	-1.000	0.500																			1580022750.0	0.28	0.52
26/01/2020 07:12:31	26012020	260120	071231	73.820	12.713558	-57.244753	73.760	-0.650	-0.210	0.420	73.810	-1.500	0.800																			1580022751.0	0.67	1.24
26/01/2020 07:12:32	26012020	260120	071232	73.820	12.713555	-57.244750	73.790	-0.250	-0.770	0.570	73.830	-2.100	0.900																			1580022752.0	0.83	1.54
26/01/2020 07:12:33	26012020	260120	071233	73.930	12.713553	-57.244748	73.910	0.140	-0.880	0.590	73.950	-2.300	1.000																			1580022753.0	0.65	1.20
26/01/2020 07:12:34	26012020	260120	071234	74.040	12.713553	-57.244748	74.000	0.350	-0.470	0.520	74.050	-1.900	0.900																			1580022754.0	0.29	0.54
26/01/2020 07:12:35	26012020	260120	071235	74.080	12.713552	-57.244750	74.020	0.350	0.110	0.310	74.080	-1.300	0.700																			1580022755.0	0.44	0.81
26/01/2020 07:12:36	26012020	260120	071236	74.080	12.713553	-57.244752	74.010	0.270	0.430	-0.020	74.080	-1.000	0.400																			1580022756.0	0.56	1.04
26/01/2020 07:12:37	26012020	260120	071237	74.080	12.713555	-57.244753	74.000	0.180	0.330	-0.330	74.080	-1.000	0.100																			1580022757.0	0.62	1.15
26/01/2020 07:12:38	26012020	260120	071238	74.140	12.713558	-57.244753	74.060	0.150	-0.020	-0.550	74.150	-1.400	-0.200																			1580022758.0	0.71	1.31
26/01/2020 07:12:39	26012020	260120	071239	74.200	12.713562	-57.244753	74.120	0.160	-0.360	-0.520	74.210	-1.700	-0.200																			1580022759.0	0.59	1.09
26/01/2020 07:12:40	26012020	260120	071240	74.240	12.713562	-57.244752	74.170	0.130	-0.520	-0.270	74.250	-1.900	0.100																			1580022760.0	0.27	0.50
26/01/2020 07:12:41	26012020	260120	071241	74.280	12.713560	-57.244752	74.220	0.020	-0.460	0.130	74.290	-1.900	0.500																			1580022761.0	0.39	0.72
26/01/2020 07:12:42	26012020	260120	071242	74.300	12.713557	-57.244750	74.250	-0.140	-0.280	0.710	74.300	-1.700	1.000																			1580022762.0	0.84	1.56
26/01/2020 07:12:43	26012020	260120	071243	74.280	12.713552	-57.244748	74.260	-0.250	-0.050	1.250	74.290	-1.500	1.600																			1580022763.0	1.10	2.04
26/01/2020 07:12:44	26012020	260120	071244	74.330	12.713548	-57.244748	74.320	-0.280	0.170	1.460	74.350	-1.200	1.800																			1580022764.0	0.90	1.67
26/01/2020 07:12:45	26012020	260120	071245	74.460	12.713547	-57.244748	74.440	-0.230	0.280	1.270	74.490	-1.100	1.700																			1580022765.0	0.38	0.70
26/01/2020 07:12:46	26012020	260120	071246	74.610	12.713547	-57.244748	74.570	-0.090	0.150	0.840	74.640	-1.200	1.300																			1580022766.0	0.16	0.30
26/01/2020 07:12:47	26012020	260120	071247	74.700	12.713548	-57.244748	74.660	0.140	-0.170	0.320	74.710	-1.500	0.700																			1580022767.0	0.51	0.94
26/01/2020 07:12:48	26012020	260120	071248	74.780	12.713552	-57.244748	74.700	0.340	-0.420	-0.160	74.800	-1.800	0.300																			1580022768.0	0.67	1.24
26/01/2020 07:12:49	26012020	260120	071249	74.830	12.713555	-57.244747	74.740	0.370	-0.350	-0.490	74.830	-1.800	-0.100																			1580022769.0	0.56	1.04
26/01/2020 07:12:50	26012020	260120	071250	74.840	12.713557	-57.244748	74.740	0.160	-0.030	-0.650	74.850	-1.400	-0.300																			1580022770.0	0.46	0.85
26/01/2020 07:12:51	26012020	260120	071251	74.870	12.713557	-57.244752	74.760	-0.150	0.250	-0.640	74.880	-1.200	-0.300																			1580022771.0	0.50	0.93
26/01/2020 07:12:52	26012020	260120	071252	74.880	12.713557	-57.244752	74.780	-0.330	0.210	-0.310	74.870	-1.200	0.000																			1580022772.0	0.33	0.61
26/01/2020 07:12:53	26012020	260120	071253	74.860	12.713553	-57.244752	74.770	-0.270	-0.190	0.210	74.860	-1.500	0.500																			1580022773.0	0.58	1.07
26/01/2020 07:12:54	26012020	260120	071254	74.870	12.713550	-57.244748	74.800	-0.050	-0.690	0.700	74.870	-2.000	1.000																			1580022774.0	0.91	1.69
26/01/2020 07:12:55	26012020	260120	071255	74.920	12.713548	-57.244745	74.880	0.140	-0.860	1.050	74.930	-2.300	1.400																			1580022775.0	0.90	1.67
26/01/2020 07:12:56	26012020	260120	071256	75.000	12.713545	-57.244743	74.970	0.180	-0.460	1.250	75.020	-1.900	1.600																			1580022776.0	0.58	1.07
26/01/2020 07:12:57	26012020	260120	071257	75.030	12.713543	-57.244745	74.980	0.120	0.240	1.360	75.020	-1.200	1.700																			1580022777.0	0.55	1.02
26/01/2020 07:12:58	26012020	260120	071258	74.970	12.713542	-57.244747	74.910	0.040	0.630	1.240	74.960	-0.800	1.600																			1580022778.0	0.53	0.98
26/01/2020 07:12:59	26012020	260120	071259	74.950	12.713543	-57.244748	74.910	0.040	0.440	0.800	74.970	-0.900	1.200																			1580022779.0	0.29	0.54
26/01/2020 07:13:00	26012020	260120	071300	75.050	12.713547	-57.244747	75.010	0.090	-0.050	0.180	75.080	-1.400	0.600	1013.80	25.60	25.60	20.20	20.20	-1.00	72.00	71.00	406.00	25.30	14.00	6.30	89.00	6.10	15	3350.00	27.40	27.40	1580022780.0	0.75	1.39
26/01/2020 07:13:01	26012020	260120	071301	75.230	12.713550	-57.244747	75.190	0.100	-0.370	-0.390	75.280	-1.700	0.000																			1580022781.0	0.86	1.59
26/01/2020 07:13:02	26012020	260120	071302	75.420	12.713553	-57.244747	75.340	-0.030	-0.340	-0.690	75.440	-1.700	-0.300																			1580022782.0	0.53	0.98
26/01/2020 07:13:03	26012020	260120	071303	75.480	12.713553	-57.244748	75.370	-0.250	-0.110	-0.650	75.470	-1.500	-0.300																			1580022783.0	0.28	0.52
26/01/2020 07:13:04	26012020	260120	071304	75.440	12.713552	-57.244748	75.330	-0.400	0.060	-0.310	75.430	-1.300	0.000																			1580022784.0	0.51	0.94
26/01/2020 07:13:05	26012020	260120	071305	75.420	12.713548	-57.244750	75.330	-0.330	0.010	0.170	75.420	-1.400	0.500																			1580022785.0	0.73	1.35
26/01/2020 07:13:06	26012020	260120	071306	75.380	12.713543	-57.244748	75.290	-0.060	-0.250	0.710	75.360	-1.600	1.000																			1580022786.0	0.86	1.59
26/01/2020 07:13:07	26012020	260120	071307	75.260	12.713542	-57.244745	75.170	0.270	-0.580	1.110	75.230	-1.900	1.500																			1580022787.0	0.82	1.52
26/01/2020 07:13:08	26012020	260120	071308	75.090	12.713540	-57.244743	75.020	0.480	-0.710	1.270	75.060	-2.100	1.600																			1580022788.0	0.54	1.00
26/01/2020 07:13:09	26012020	260120	071309	75.040	12.713540	-57.244743	75.010	0.500	-0.420	1.150	75.060	-1.800	1.600																			1580022789.0	0.25	0.46
26/01/2020 07:13:10	26012020	260120	071310	75.220	12.713542	-57.244745	75.220	0.340	0.170	0.840	75.280	-1.300	1.300																			1580022790.0	0.49	0.91
26/01/2020 07:13:11	26012020	260120	071311	75.440	12.713543	-57.244747	75.490	0.050	0.640	0.490	75.500	-0.800	0.900																			1580022791.0	0.67	1.24
26/01/2020 07:13:12	26012020	260120	071312	75.730	12.713545	-57.244748	75.720	-0.250	0.620	0.140	75.780	-0.800	0.600																			1580022792.0	0.50	0.93
26/01/2020 07:13:13	26012020	260120	071313	75.880	12.713547	-57.244748	75.820	-0.460	0.170	-0.130	75.890	-1.200	0.300																			1580022793.0	0.23	0.43
26/01/2020 07:13:14	26012020	260120	071314	75.840	12.713547	-57.244747	75.750	-0.510	-0.320	-0.080	75.810	-1.700	0.300																			1580022794.0	0.32	0.59
26/01/2020 07:13:15	26012020	260120	071315	75.670	12.713545	-57.244745	75.570	-0.370	-0.620	0.260	75.630	-2.000	0.600																			1580022795.0	0.57	1.06
26/01/2020 07:13:16	26012020	260120	071316	75.480	12.713542	-57.244743	75.400	-0.140	-0.640	0.640	75.440	-2.000	1.000																			1580022796.0	0.76	1.41
26/01/2020 07:13:17	26012020	260120	071317	75.380	12.713538	-57.244743	75.330	0.060	-0.420	0.760	75.380	-1.800	1.100																			1580022797.0	0.60	1.11
26/01/2020 07:13:18	26012020	260120	071318	75.450	12.713537	-57.244745	75.430	0.170	-0.060	0.530	75.480	-1.500	0.900																			1580022798.0	0.27	0.50
26/01/2020 07:13:19	26012020	260120	071319	75.610	12.713538	-57.244747	75.580	0.210	0.270	0.160	75.650	-1.100	0.600																			1580022799.0	0.51	0.94
26/01/2020 07:13:20	26012020	260120	071320	75.760	12.713542	-57.244748	75.700	0.230	0.370	-0.160	75.780	-1.000	0.200																			1580022800.0	0.72	1.33
26/01/2020 07:13:21	26012020	260120	071321	75.880	12.713545	-57.244750	75.810	0.240	0.120	-0.340	75.890	-1.200	0.100																			1580022801.0	0.65	1.20
26/01/2020 07:13:22	26012020	260120	071322	75.920	12.713547	-57.244748	75.830	0.220	-0.340	-0.240	75.910	-1.700	0.100																			1580022802.0	0.39	0.72
26/01/2020 07:13:23	26012020	260120	071323	75.850	12.713545	-57.244747	75.760	0.130	-0.660	0.160	75.820	-2.000	0.500																			1580022803.0	0.36	0.67
26/01/2020 07:13:24	26012020	260120	071324	75.690	12.713543	-57.244747	75.600	-0.020	-0.660	0.770	75.660	-2.000	1.100																			1580022804.0	0.64	1.19
26/01/2020 07:13:25	26012020	260120	071325	75.590	12.713538	-57.244745	75.530	-0.150	-0.410	1.260	75.580	-1.800	1.600																			1580022805.0	0.86	1.59
26/01/2020 07:13:26	26012020	260120	071326	75.590	12.713535	-57.244745	75.570	-0.190	-0.090	1.460	75.600	-1.500	1.800																			1580022806.0	0.76	1.41
26/01/2020 07:13:27	26012020	260120	071327	75.670	12.713533	-57.244745	75.660	-0.180	0.230	1.350	75.690	-1.200	1.700																			1580022807.0	0.46	0.85
26/01/2020 07:13:28	26012020	260120	071328	75.810	12.713533	-57.244747	75.800	-0.140	0.440	0.920	75.840	-0.900	1.300																			1580022808.0	0.18	0.33
26/01/2020 07:13:29	26012020	260120	071329	75.990	12.713535	-57.244747	75.970	-0.100	0.490	0.230	76.030	-0.900	0.700																			1580022809.0	0.52	0.96
26/01/2020 07:13:30	26012020	260120	071330	76.180	12.713538	-57.244750	76.150	-0.040	0.350	-0.490	76.210	-1.000	-0.000																			1580022810.0	0.88	1.63
26/01/2020 07:13:31	26012020	260120	071331	76.360	12.713543	-57.244750	76.300	0.020	0.020	-1.010	76.390	-1.300	-0.600																			1580022811.0	0.92	1.70
26/01/2020 07:13:32	26012020	260120	071332	76.470	12.713545	-57.244752	76.390	0.050	-0.440	-1.160	76.480	-1.800	-0.800																			1580022812.0	0.60	1.11
26/01/2020 07:13:33	26012020	260120	071333	76.490	12.713547	-57.244750	76.390	0.020	-0.780	-0.860	76.480	-2.100	-0.500																			1580022813.0	0.18	0.33
26/01/2020 07:13:34	26012020	260120	071334	76.430	12.713545	-57.244750	76.350	-0.050	-0.830	-0.270	76.420	-2.200	0.100																			1580022814.0	0.49	0.91
26/01/2020 07:13:35	26012020	260120	071335	76.330	12.713540	-57.244748	76.250	-0.110	-0.580	0.490	76.310	-2.000	0.800																			1580022815.0	0.91	1.69
26/01/2020 07:13:36	26012020	260120	071336	76.230	12.713535	-57.244748	76.210	-0.140	-0.150	1.220	76.230	-1.600	1.500																			1580022816.0	1.14	2.11
26/01/2020 07:13:37	26012020	260120	071337	76.280	12.713530	-57.244748	76.340	-0.110	0.220	1.620	76.310	-1.200	2.000																			1580022817.0	1.02	1.89
26/01/2020 07:13:38	26012020	260120	071338	76.580	12.713527	-57.244748	76.650	0.020	0.290	1.570	76.640	-1.100	2.000																			1580022818.0	0.54	1.00
26/01/2020 07:13:39	26012020	260120	071339	76.870	12.713528	-57.244747	76.910	0.270	0.130	1.160	76.920	-1.200	1.600																			1580022819.0	0.26	0.48
26/01/2020 07:13:40	26012020	260120	071340	77.060	12.713532	-57.244747	77.050	0.490	0.020	0.630	77.080	-1.400	1.100																			1580022820.0	0.63	1.17
26/01/2020 07:13:41	26012020	260120	071341	77.100	12.713533	-57.244747	77.050	0.520	0.010	0.170	77.090	-1.400	0.600																			1580022821.0	0.68	1.26
26/01/2020 07:13:42	26012020	260120	071342	77.040	12.713537	-57.244747	76.980	0.320	-0.040	-0.160	77.020	-1.400	0.200																			1580022822.0	0.68	1.26
26/01/2020 07:13:43	26012020	260120	071343	76.950	12.713540	-57.244747	76.880	-0.030	-0.120	-0.230	76.930	-1.500	0.100																			1580022823.0	0.56	1.04
26/01/2020 07:13:44	26012020	260120	071344	76.840	12.713542	-57.244748	76.790	-0.380	-0.110	-0.070	76.830	-1.500	0.300																			1580022824.0	0.25	0.46
26/01/2020 07:13:45	26012020	260120	071345	76.790	12.713540	-57.244748	76.760	-0.610	-0.070	0.170	76.800	-1.400	0.500																			1580022825.0	0.19	0.35
26/01/2020 07:13:46	26012020	260120	071346	76.820	12.713538	-57.244748	76.780	-0.670	-0.150	0.430	76.820	-1.500	0.800																			1580022826.0	0.55	1.02
26/01/2020 07:13:47	26012020	260120	071347	76.820	12.713533	-57.244747	76.780	-0.570	-0.320	0.720	76.820	-1.700	1.100																			1580022827.0	0.82	1.52
26/01/2020 07:13:48	26012020	260120	071348	76.810	12.713530	-57.244745	76.770	-0.330	-0.430	1.000	76.810	-1.800	1.400																			1580022828.0	0.95	1.76
26/01/2020 07:13:49	26012020	260120	071349	76.760	12.713527	-57.244743	76.710	0.010	-0.370	1.170	76.750	-1.800	1.500																			1580022829.0	0.75	1.39
26/01/2020 07:13:50	26012020	260120	071350	76.640	12.713525	-57.244743	76.560	0.350	-0.200	1.080	76.600	-1.600	1.500																			1580022830.0	0.28	0.52
26/01/2020 07:13:51	26012020	260120	071351	76.480	12.713527	-57.244743	76.400	0.590	-0.060	0.640	76.450	-1.500	1.100																			1580022831.0	0.35	0.65
26/01/2020 07:13:52	26012020	260120	071352	76.390	12.713532	-57.244745	76.300	0.620	0.040	-0.030	76.380	-1.400	0.400																			1580022832.0	0.95	1.76
26/01/2020 07:13:53	26012020	260120	071353	76.390	12.713537	-57.244745	76.310	0.460	0.130	-0.620	76.390	-1.300	-0.200																			1580022833.0	1.15	2.13
26/01/2020 07:13:54	26012020	260120	071354	76.460	12.713540	-57.244747	76.390	0.220	0.160	-0.940	76.480	-1.200	-0.500																			1580022834.0	0.86	1.59
26/01/2020 07:13:55	26012020	260120	071355	76.540	12.713542	-57.244747	76.460	-0.000	0.020	-0.950	76.550	-1.300	-0.600																			1580022835.0	0.39	0.72
26/01/2020 07:13:56	26012020	260120	071356	76.580	12.713542	-57.244747	76.490	-0.140	-0.210	-0.660	76.570	-1.600	-0.300																			1580022836.0	0.14	0.26
26/01/2020 07:13:57	26012020	260120	071357	76.510	12.713540	-57.244745	76.430	-0.190	-0.370	-0.130	76.490	-1.700	0.200																			1580022837.0	0.56	1.04
26/01/2020 07:13:58	26012020	260120	071358	76.340	12.713535	-57.244743	76.260	-0.200	-0.340	0.550	76.300	-1.700	0.900																			1580022838.0	0.89	1.65
26/01/2020 07:13:59	26012020	260120	071359	76.150	12.713532	-57.244743	76.100	-0.260	-0.200	1.190	76.120	-1.600	1.500																			1580022839.0	0.99	1.83
26/01/2020 07:14:00	26012020	260120	071400	76.050	12.713527	-57.244743	76.030	-0.350	-0.030	1.620	76.040	-1.400	2.000	1013.70	25.60	25.70	20.30	20.30	-1.00	72.00	72.00	404.00	25.30	14.00	6.30	91.00	6.10	14	3280.00	27.40	27.40	1580022840.0	0.86	1.59
26/01/2020 07:14:01	26012020	260120	071401	76.060	12.713525	-57.244743	76.090	-0.430	0.120	1.660	76.080	-1.300	2.000																			1580022841.0	0.50	0.93
26/01/2020 07:14:02	26012020	260120	071402	76.200	12.713525	-57.244743	76.210	-0.420	0.190	1.320	76.220	-1.200	1.700																			1580022842.0	0.14	0.26
26/01/2020 07:14:03	26012020	260120	071403	76.330	12.713525	-57.244743	76.340	-0.290	0.150	0.780	76.360	-1.200	1.200																			1580022843.0	0.21	0.39
26/01/2020 07:14:04	26012020	260120	071404	76.470	12.713527	-57.244743	76.450	-0.040	-0.060	0.150	76.490	-1.400	0.600																			1580022844.0	0.29	0.54
26/01/2020 07:14:05	26012020	260120	071405	76.530	12.713528	-57.244743	76.470	0.290	-0.350	-0.390	76.520	-1.700	0.000																			1580022845.0	0.41	0.76
26/01/2020 07:14:06	26012020	260120	071406	76.430	12.713530	-57.244743	76.320	0.620	-0.580	-0.680	76.390	-1.900	-0.300																			1580022846.0	0.57	1.06
26/01/2020 07:14:07	26012020	260120	071407	76.170	12.713533	-57.244743	76.050	0.800	-0.570	-0.680	76.110	-2.000	-0.300																			1580022847.0	0.55	1.02
26/01/2020 07:14:08	26012020	260120	071408	75.910	12.713535	-57.244743	75.800	0.720	-0.340	-0.570	75.880	-1.800	-0.200																			1580022848.0	0.43	0.80
26/01/2020 07:14:09	26012020	260120	071409	75.830	12.713537	-57.244743	75.760	0.380	-0.050	-0.410	75.840	-1.500	-0.000																			1580022849.0	0.40	0.74
26/01/2020 07:14:10	26012020	260120	071410	75.910	12.713537	-57.244743	75.860	-0.080	0.220	0.020	75.930	-1.200	0.400																			1580022850.0	0.13	0.24
26/01/2020 07:14:11	26012020	260120	071411	75.980	12.713535	-57.244743	75.930	-0.510	0.380	0.820	75.990	-1.000	1.100																			1580022851.0	0.64	1.19
26/01/2020 07:14:12	26012020	260120	071412	75.990	12.713528	-57.244742	75.960	-0.750	0.300	1.640	75.990	-1.100	2.000																			1580022852.0	1.25	2.31
26/01/2020 07:14:13	26012020	260120	071413	75.960	12.713523	-57.244740	75.950	-0.730	0.040	2.190	75.950	-1.300	2.500																			1580022853.0	1.40	2.59
26/01/2020 07:14:14	26012020	260120	071414	75.880	12.713518	-57.244738	75.870	-0.470	-0.220	2.350	75.860	-1.600	2.700																			1580022854.0	1.13	2.09
26/01/2020 07:14:15	26012020	260120	071415	75.780	12.713515	-57.244737	75.740	-0.120	-0.350	2.150	75.760	-1.700	2.500																			1580022855.0	0.53	0.98
26/01/2020 07:14:16	26012020	260120	071416	75.690	12.713517	-57.244737	75.680	0.230	-0.420	1.530	75.690	-1.800	2.000																			1580022856.0	0.33	0.61
26/01/2020 07:14:17	26012020	260120	071417	75.780	12.713523	-57.244738	75.790	0.500	-0.390	0.530	75.810	-1.800	1.000																			1580022857.0	1.17	2.17
26/01/2020 07:14:18	26012020	260120	071418	75.960	12.713530	-57.244740	75.930	0.630	-0.260	-0.570	75.990	-1.700	-0.100																			1580022858.0	1.63	3.02
26/01/2020 07:14:19	26012020	260120	071419	76.010	12.713537	-57.244742	75.920	0.540	-0.060	-1.290	76.000	-1.500	-0.900																			1580022859.0	1.47	2.72
26/01/2020 07:14:20	26012020	260120	071420	75.860	12.713540	-57.244743	75.720	0.230	0.080	-1.420	75.820	-1.300	-1.000																			1580022860.0	0.84	1.56
26/01/2020 07:14:21	26012020	260120	071421	75.640	12.713540	-57.244743	75.510	-0.160	0.060	-1.090	75.600	-1.300	-0.800																			1580022861.0	0.12	0.22
26/01/2020 07:14:22	26012020	260120	071422	75.520	12.713538	-57.244743	75.440	-0.430	-0.080	-0.540	75.520	-1.400	-0.200																			1580022862.0	0.45	0.83
26/01/2020 07:14:23	26012020	260120	071423	75.610	12.713535	-57.244742	75.570	-0.470	-0.200	-0.000	75.650	-1.600	0.300																			1580022863.0	0.81	1.50
26/01/2020 07:14:24	26012020	260120	071424	75.830	12.713532	-57.244740	75.810	-0.290	-0.200	0.470	75.870	-1.600	0.800																			1580022864.0	0.90	1.67
26/01/2020 07:14:25	26012020	260120	071425	75.990	12.713527	-57.244738	75.960	-0.050	-0.080	0.930	76.000	-1.500	1.300																			1580022865.0	0.86	1.59
26/01/2020 07:14:26	26012020	260120	071426	76.000	12.713523	-57.244738	75.960	0.140	0.030	1.340	75.990	-1.400	1.700																			1580022866.0	0.74	1.37
26/01/2020 07:14:27	26012020	260120	071427	75.970	12.713522	-57.244738	75.940	0.280	-0.060	1.460	75.970	-1.400	1.800																			1580022867.0	0.34	0.63
26/01/2020 07:14:28	26012020	260120	071428	76.020	12.713523	-57.244738	76.010	0.340	-0.310	1.230	76.040	-1.700	1.600																			1580022868.0	0.32	0.59
26/01/2020 07:14:29	26012020	260120	071429	76.130	12.713527	-57.244738	76.120	0.290	-0.380	0.850	76.150	-1.800	1.300																			1580022869.0	0.73	1.35
26/01/2020 07:14:30	26012020	260120	071430	76.200	12.713530	-57.244738	76.180	0.090	-0.110	0.550	76.200	-1.500	0.900																			1580022870.0	0.66	1.22
26/01/2020 07:14:31	26012020	260120	071431	76.210	12.713532	-57.244740	76.190	-0.200	0.240	0.380	76.210	-1.200	0.800																			1580022871.0	0.49	0.91
26/01/2020 07:14:32	26012020	260120	071432	76.250	12.713532	-57.244742	76.230	-0.410	0.270	0.250	76.270	-1.100	0.600																			1580022872.0	0.31	0.57
26/01/2020 07:14:33	26012020	260120	071433	76.360	12.713532	-57.244742	76.340	-0.430	-0.030	0.090	76.380	-1.400	0.500																			1580022873.0	0.09	0.17
26/01/2020 07:14:34	26012020	260120	071434	76.460	12.713532	-57.244740	76.430	-0.280	-0.290	0.050	76.470	-1.700	0.400																			1580022874.0	0.33	0.61
26/01/2020 07:14:35	26012020	260120	071435	76.460	12.713530	-57.244738	76.420	-0.060	-0.320	0.190	76.450	-1.700	0.500																			1580022875.0	0.36	0.67
26/01/2020 07:14:36	26012020	260120	071436	76.430	12.713528	-57.244738	76.420	0.160	-0.270	0.370	76.430	-1.600	0.700																			1580022876.0	0.39	0.72
26/01/2020 07:14:37	26012020	260120	071437	76.450	12.713528	-57.244738	76.450	0.350	-0.310	0.430	76.460	-1.700	0.800																			1580022877.0	0.16	0.30
26/01/2020 07:14:38	26012020	260120	071438	76.510	12.713530	-57.244737	76.510	0.470	-0.350	0.390	76.520	-1.700	0.800																			1580022878.0	0.30	0.56
26/01/2020 07:14:39	26012020	260120	071439	76.500	12.713532	-57.244737	76.460	0.430	-0.170	0.410	76.480	-1.600	0.800																			1580022879.0	0.40	0.74
26/01/2020 07:14:40	26012020	260120	071440	76.390	12.713532	-57.244738	76.340	0.210	0.140	0.540	76.360	-1.300	0.900																			1580022880.0	0.33	0.61
26/01/2020 07:14:41	26012020	260120	071441	76.280	12.713533	-57.244738	76.240	-0.070	0.280	0.650	76.270	-1.100	1.000																			1580022881.0	0.26	0.48
26/01/2020 07:14:42	26012020	260120	071442	76.250	12.713533	-57.244738	76.240	-0.270	0.160	0.680	76.260	-1.200	1.100																			1580022882.0	0.12	0.22
26/01/2020 07:14:43	26012020	260120	071443	76.370	12.713535	-57.244738	76.390	-0.350	-0.040	0.620	76.410	-1.400	1.000																			1580022883.0	0.21	0.39
26/01/2020 07:14:44	26012020	260120	071444	76.590	12.713533	-57.244737	76.590	-0.340	-0.200	0.540	76.620	-1.600	0.900																			1580022884.0	0.19	0.35
26/01/2020 07:14:45	26012020	260120	071445	76.690	12.713533	-57.244737	76.670	-0.300	-0.250	0.500	76.680	-1.600	0.900																			1580022885.0	0.22	0.41
26/01/2020 07:14:46	26012020	260120	071446	76.580	12.713532	-57.244737	76.510	-0.220	-0.220	0.490	76.530	-1.600	0.900																			1580022886.0	0.23	0.43
26/01/2020 07:14:47	26012020	260120	071447	76.320	12.713532	-57.244737	76.250	-0.020	-0.220	0.400	76.260	-1.600	0.800																			1580022887.0	0.12	0.22
26/01/2020 07:14:48	26012020	260120	071448	76.110	12.713533	-57.244737	76.060	0.250	-0.310	0.160	76.080	-1.700	0.600																			1580022888.0	0.22	0.41
26/01/2020 07:14:49	26012020	260120	071449	76.050	12.713535	-57.244737	76.020	0.430	-0.330	-0.160	76.060	-1.700	0.200																			1580022889.0	0.53	0.98
26/01/2020 07:14:50	26012020	260120	071450	76.110	12.713538	-57.244737	76.070	0.360	-0.140	-0.480	76.120	-1.500	-0.100																			1580022890.0	0.62	1.15
26/01/2020 07:14:51	26012020	260120	071451	76.190	12.713542	-57.244738	76.130	0.100	0.100	-0.770	76.200	-1.300	-0.400																			1580022891.0	0.71	1.31
26/01/2020 07:14:52	26012020	260120	071452	76.200	12.713543	-57.244740	76.140	-0.170	0.200	-0.830	76.200	-1.200	-0.500																			1580022892.0	0.52	0.96
26/01/2020 07:14:53	26012020	260120	071453	76.150	12.713543	-57.244740	76.070	-0.290	0.050	-0.540	76.140	-1.300	-0.200																			1580022893.0	0.05	0.09
26/01/2020 07:14:54	26012020	260120	071454	76.020	12.713540	-57.244738	75.970	-0.220	-0.200	0.040	76.000	-1.600	0.400																			1580022894.0	0.67	1.24
26/01/2020 07:14:55	26012020	260120	071455	75.880	12.713537	-57.244735	75.830	-0.030	-0.280	0.710	75.860	-1.700	1.000																			1580022895.0	0.95	1.76
26/01/2020 07:14:56	26012020	260120	071456	75.790	12.713533	-57.244735	75.760	0.180	-0.250	1.120	75.790	-1.600	1.500																			1580022896.0	0.77	1.43
26/01/2020 07:14:57	26012020	260120	071457	75.820	12.713532	-57.244733	75.810	0.320	-0.230	1.120	75.830	-1.600	1.500																			1580022897.0	0.23	0.43
26/01/2020 07:14:58	26012020	260120	071458	75.890	12.713533	-57.244733	75.870	0.300	-0.150	0.910	75.890	-1.500	1.300																			1580022898.0	0.30	0.56
26/01/2020 07:14:59	26012020	260120	071459	75.880	12.713535	-57.244735	75.840	0.110	-0.020	0.720	75.870	-1.400	1.100																			1580022899.0	0.46	0.85
26/01/2020 07:15:00	26012020	260120	071500	75.760	12.713537	-57.244735	75.690	-0.150	0.150	0.600	75.710	-1.300	1.000	1013.70	25.60	25.70	20.40	20.40	-1.00	72.00	72.00	402.00	25.30	17.00	6.20	93.00	6.10	14	3372.00	27.40	27.40	1580022900.0	0.40	0.74
26/01/2020 07:15:01	26012020	260120	071501	75.550	12.713538	-57.244737	75.490	-0.380	0.300	0.510	75.520	-1.100	0.900																			1580022901.0	0.29	0.54
26/01/2020 07:15:02	26012020	260120	071502	75.420	12.713537	-57.244738	75.370	-0.450	0.190	0.400	75.400	-1.200	0.800																			1580022902.0	0.20	0.37
26/01/2020 07:15:03	26012020	260120	071503	75.370	12.713537	-57.244737	75.310	-0.320	-0.250	0.270	75.360	-1.600	0.700																			1580022903.0	0.12	0.22
26/01/2020 07:15:04	26012020	260120	071504	75.340	12.713538	-57.244735	75.290	-0.040	-0.730	0.070	75.340	-2.100	0.500																			1580022904.0	0.44	0.81
26/01/2020 07:15:05	26012020	260120	071505	75.340	12.713538	-57.244733	75.260	0.210	-0.820	-0.140	75.330	-2.200	0.200																			1580022905.0	0.41	0.76
26/01/2020 07:15:06	26012020	260120	071506	75.220	12.713538	-57.244733	75.120	0.320	-0.430	-0.160	75.180	-1.900	0.200																			1580022906.0	0.15	0.28
26/01/2020 07:15:07	26012020	260120	071507	75.000	12.713540	-57.244735	74.890	0.290	0.130	-0.030	74.950	-1.300	0.300																			1580022907.0	0.41	0.76
26/01/2020 07:15:08	26012020	260120	071508	74.810	12.713540	-57.244737	74.730	0.210	0.400	0.090	74.790	-1.000	0.500																			1580022908.0	0.40	0.74
26/01/2020 07:15:09	26012020	260120	071509	74.720	12.713540	-57.244738	74.650	0.110	0.290	0.170	74.710	-1.100	0.500																			1580022909.0	0.12	0.22
26/01/2020 07:15:10	26012020	260120	071510	74.650	12.713540	-57.244737	74.600	0.010	0.070	0.340	74.630	-1.300	0.700																			1580022910.0	0.23	0.43
26/01/2020 07:15:11	26012020	260120	071511	74.540	12.713540	-57.244735	74.490	-0.090	-0.100	0.580	74.520	-1.500	0.900																			1580022911.0	0.20	0.37
26/01/2020 07:15:12	26012020	260120	071512	74.450	12.713540	-57.244735	74.410	-0.120	-0.210	0.790	74.430	-1.600	1.100																			1580022912.0	0.16	0.30
26/01/2020 07:15:13	26012020	260120	071513	74.380	12.713538	-57.244735	74.340	-0.080	-0.280	0.920	74.360	-1.700	1.300																			1580022913.0	0.19	0.35
26/01/2020 07:15:14	26012020	260120	071514	74.240	12.713538	-57.244735	74.180	-0.020	-0.270	1.020	74.200	-1.700	1.400																			1580022914.0	0.21	0.39
26/01/2020 07:15:15	26012020	260120	071515	74.020	12.713538	-57.244735	73.950	-0.010	-0.160	1.080	73.970	-1.600	1.400																			1580022915.0	0.16	0.30
26/01/2020 07:15:16	26012020	260120	071516	73.840	12.713538	-57.244735	73.800	-0.090	-0.020	0.980	73.820	-1.400	1.400																			1580022916.0	0.09	0.17
26/01/2020 07:15:17	26012020	260120	071517	73.760	12.713538	-57.244735	73.720	-0.190	0.080	0.720	73.740	-1.300	1.100																			1580022917.0	0.26	0.48
26/01/2020 07:15:18	26012020	260120	071518	73.660	12.713540	-57.244737	73.600	-0.260	0.020	0.370	73.630	-1.400	0.800																			1580022918.0	0.35	0.65
26/01/2020 07:15:19	26012020	260120	071519	73.530	12.713542	-57.244737	73.420	-0.200	-0.140	0.070	73.490	-1.500	0.500																			1580022919.0	0.42	0.78
26/01/2020 07:15:20	26012020	260120	071520	73.270	12.713543	-57.244735	73.200	0.010	-0.330	-0.130	73.240	-1.700	0.300																			1580022920.0	0.42	0.78
26/01/2020 07:15:21	26012020	260120	071521	73.130	12.713545	-57.244733	73.070	0.280	-0.480	-0.330	73.110	-1.900	0.100																			1580022921.0	0.45	0.83
26/01/2020 07:15:22	26012020	260120	071522	73.080	12.713548	-57.244733	73.040	0.460	-0.460	-0.520	73.080	-1.900	-0.100																			1580022922.0	0.52	0.96
26/01/2020 07:15:23	26012020	260120	071523	73.110	12.713550	-57.244733	73.080	0.450	-0.160	-0.620	73.130	-1.600	-0.200																			1580022923.0	0.49	0.91
26/01/2020 07:15:24	26012020	260120	071524	73.230	12.713552	-57.244733	73.210	0.250	0.240	-0.540	73.260	-1.200	-0.200																			1580022924.0	0.37	0.69
26/01/2020 07:15:25	26012020	260120	071525	73.420	12.713552	-57.244735	73.410	-0.030	0.450	-0.290	73.450	-0.900	0.100																			1580022925.0	0.20	0.37
26/01/2020 07:15:26	26012020	260120	071526	73.550	12.713552	-57.244735	73.530	-0.270	0.310	0.140	73.570	-1.100	0.500																			1580022926.0	0.11	0.20
26/01/2020 07:15:27	26012020	260120	071527	73.580	12.713550	-57.244732	73.540	-0.380	-0.040	0.720	73.570	-1.400	1.000																			1580022927.0	0.54	1.00
26/01/2020 07:15:28	26012020	260120	071528	73.490	12.713547	-57.244730	73.440	-0.360	-0.350	1.400	73.460	-1.700	1.700																			1580022928.0	0.95	1.76
26/01/2020 07:15:29	26012020	260120	071529	73.330	12.713542	-57.244727	73.300	-0.270	-0.530	2.020	73.300	-1.900	2.300																			1580022929.0	1.11	2.06
26/01/2020 07:15:30	26012020	260120	071530	73.240	12.713538	-57.244725	73.250	-0.130	-0.550	2.250	73.240	-1.900	2.600																			1580022930.0	0.87	1.61
26/01/2020 07:15:31	26012020	260120	071531	73.330	12.713538	-57.244723	73.370	0.020	-0.340	1.850	73.370	-1.700	2.300																			1580022931.0	0.20	0.37
26/01/2020 07:15:32	26012020	260120	071532	73.610	12.713542	-57.244725	73.660	0.140	0.040	0.860	73.680	-1.400	1.300																			1580022932.0	0.77	1.43
26/01/2020 07:15:33	26012020	260120	071533	73.980	12.713547	-57.244728	74.000	0.220	0.390	-0.340	74.040	-1.000	0.100																			1580022933.0	1.42	2.63
26/01/2020 07:15:34	26012020	260120	071534	74.250	12.713553	-57.244732	74.220	0.220	0.460	-1.250	74.280	-0.900	-0.800																			1580022934.0	1.53	2.83
26/01/2020 07:15:35	26012020	260120	071535	74.300	12.713558	-57.244733	74.210	0.160	0.100	-1.600	74.280	-1.200	-1.200																			1580022935.0	1.14	2.11
26/01/2020 07:15:36	26012020	260120	071536	74.170	12.713562	-57.244733	74.060	0.150	-0.580	-1.420	74.130	-1.900	-1.100																			1580022936.0	0.66	1.22
26/01/2020 07:15:37	26012020	260120	071537	73.970	12.713562	-57.244730	73.870	0.210	-1.090	-0.790	73.930	-2.400	-0.500																			1580022937.0	0.62	1.15
26/01/2020 07:15:38	26012020	260120	071538	73.820	12.713560	-57.244727	73.780	0.180	-0.960	0.090	73.810	-2.400	0.400																			1580022938.0	0.80	1.48
26/01/2020 07:15:39	26012020	260120	071539	73.850	12.713555	-57.244727	73.860	-0.060	-0.270	0.860	73.880	-1.700	1.200																			1580022939.0	0.99	1.83
26/01/2020 07:15:40	26012020	260120	071540	74.100	12.713550	-57.244728	74.150	-0.380	0.510	1.310	74.170	-0.900	1.700																			1580022940.0	1.03	1.91
26/01/2020 07:15:41	26012020	260120	071541	74.390	12.713547	-57.244730	74.530	-0.540	0.890	1.520	74.470	-0.500	1.900																			1580022941.0	0.81	1.50
26/01/2020 07:15:42	26012020	260120	071542	74.800	12.713545	-57.244730	74.850	-0.410	0.720	1.580	74.840	-0.600	1.900																			1580022942.0	0.45	0.83
26/01/2020 07:15:43	26012020	260120	071543	74.950	12.713545	-57.244730	74.970	-0.080	0.160	1.490	74.970	-1.200	1.900																			1580022943.0	0.29	0.54
26/01/2020 07:15:44	26012020	260120	071544	74.970	12.713545	-57.244728	74.960	0.210	-0.410	1.180	74.960	-1.800	1.600																			1580022944.0	0.40	0.74
26/01/2020 07:15:45	26012020	260120	071545	74.920	12.713548	-57.244727	74.910	0.310	-0.710	0.700	74.910	-2.100	1.100																			1580022945.0	0.57	1.06
26/01/2020 07:15:46	26012020	260120	071546	74.860	12.713552	-57.244728	74.820	0.220	-0.670	0.200	74.840	-2.100	0.600																			1580022946.0	0.81	1.50
26/01/2020 07:15:47	26012020	260120	071547	74.780	12.713555	-57.244732	74.740	0.060	-0.380	-0.200	74.770	-1.800	0.200																			1580022947.0	0.95	1.76
26/01/2020 07:15:48	26012020	260120	071548	74.740	12.713558	-57.244733	74.690	-0.050	-0.080	-0.460	74.730	-1.500	-0.100																			1580022948.0	0.80	1.48
26/01/2020 07:15:49	26012020	260120	071549	74.730	12.713560	-57.244735	74.680	-0.070	0.050	-0.610	74.730	-1.300	-0.200																			1580022949.0	0.47	0.87
26/01/2020 07:15:50	26012020	260120	071550	74.750	12.713560	-57.244735	74.720	-0.040	-0.030	-0.650	74.760	-1.400	-0.300																			1580022950.0	0.14	0.26
26/01/2020 07:15:51	26012020	260120	071551	74.790	12.713560	-57.244733	74.770	0.010	-0.180	-0.490	74.800	-1.600	-0.100																			1580022951.0	0.26	0.48
26/01/2020 07:15:52	26012020	260120	071552	74.820	12.713558	-57.244732	74.810	0.040	-0.190	-0.160	74.830	-1.600	0.200																			1580022952.0	0.44	0.81
26/01/2020 07:15:53	26012020	260120	071553	74.840	12.713557	-57.244732	74.840	0.020	-0.020	0.170	74.840	-1.400	0.500																			1580022953.0	0.42	0.78
26/01/2020 07:15:54	26012020	260120	071554	74.830	12.713555	-57.244732	74.840	-0.020	0.180	0.470	74.820	-1.200	0.800																			1580022954.0	0.34	0.63
26/01/2020 07:15:55	26012020	260120	071555	74.760	12.713555	-57.244733	74.740	-0.040	0.200	0.800	74.730	-1.200	1.100																			1580022955.0	0.29	0.54
26/01/2020 07:15:56	26012020	260120	071556	74.600	12.713553	-57.244733	74.610	-0.010	-0.040	1.030	74.580	-1.400	1.400																			1580022956.0	0.15	0.28
26/01/2020 07:15:57	26012020	260120	071557	74.520	12.713553	-57.244732	74.530	0.010	-0.300	1.080	74.500	-1.700	1.400																			1580022957.0	0.20	0.37
26/01/2020 07:15:58	26012020	260120	071558	74.490	12.713555	-57.244732	74.510	-0.020	-0.340	0.980	74.490	-1.700	1.400																			1580022958.0	0.16	0.30
26/01/2020 07:15:59	26012020	260120	071559	74.510	12.713555	-57.244732	74.520	-0.070	-0.210	0.790	74.510	-1.600	1.200																			1580022959.0	0.17	0.31
26/01/2020 07:16:00	26012020	260120	071600	74.490	12.713555	-57.244733	74.490	-0.110	-0.080	0.580	74.480	-1.500	1.000	1013.70	25.60	25.70	20.40	20.40	-1.00	72.00	72.00	400.00	25.30	16.00	5.90	91.00	5.80	14	3235.00	27.40	27.40	1580022960.0	0.23	0.43
26/01/2020 07:16:01	26012020	260120	071601	74.450	12.713555	-57.244733	74.450	-0.120	-0.060	0.290	74.450	-1.400	0.700																			1580022961.0	0.20	0.37
26/01/2020 07:16:02	26012020	260120	071602	74.440	12.713557	-57.244735	74.420	-0.060	-0.170	-0.080	74.440	-1.500	0.300																			1580022962.0	0.28	0.52
26/01/2020 07:16:03	26012020	260120	071603	74.410	12.713558	-57.244735	74.380	0.020	-0.250	-0.310	74.400	-1.600	0.100																			1580022963.0	0.35	0.65
26/01/2020 07:16:04	26012020	260120	071604	74.310	12.713560	-57.244735	74.280	0.050	-0.180	-0.320	74.290	-1.600	0.100																			1580022964.0	0.18	0.33
26/01/2020 07:16:05	26012020	260120	071605	74.220	12.713560	-57.244735	74.180	-0.010	-0.030	-0.220	74.200	-1.400	0.100																			1580022965.0	0.11	0.20
26/01/2020 07:16:06	26012020	260120	071606	74.130	12.713560	-57.244735	74.110	-0.090	0.070	-0.080	74.110	-1.300	0.300																			1580022966.0	0.16	0.30
26/01/2020 07:16:07	26012020	260120	071607	74.060	12.713558	-57.244737	74.040	-0.090	0.080	0.090	74.060	-1.300	0.500																			1580022967.0	0.13	0.24
26/01/2020 07:16:08	26012020	260120	071608	74.050	12.713558	-57.244735	74.050	0.050	-0.020	0.250	74.060	-1.400	0.600																			1580022968.0	0.13	0.24
26/01/2020 07:16:09	26012020	260120	071609	74.130	12.713558	-57.244735	74.130	0.250	-0.210	0.370	74.150	-1.600	0.700																			1580022969.0	0.13	0.24
26/01/2020 07:16:10	26012020	260120	071610	74.200	12.713558	-57.244735	74.190	0.390	-0.430	0.460	74.200	-1.800	0.800																			1580022970.0	0.20	0.37
26/01/2020 07:16:11	26012020	260120	071611	74.210	12.713558	-57.244733	74.200	0.340	-0.480	0.550	74.210	-1.900	0.900																			1580022971.0	0.24	0.44
26/01/2020 07:16:12	26012020	260120	071612	74.170	12.713558	-57.244733	74.150	0.110	-0.220	0.710	74.160	-1.600	1.100																			1580022972.0	0.04	0.07
26/01/2020 07:16:13	26012020	260120	071613	74.080	12.713557	-57.244735	74.060	-0.210	0.230	0.930	74.060	-1.200	1.300																			1580022973.0	0.33	0.61
26/01/2020 07:16:14	26012020	260120	071614	74.000	12.713557	-57.244737	73.980	-0.470	0.450	0.980	73.990	-0.900	1.400																			1580022974.0	0.46	0.85
26/01/2020 07:16:15	26012020	260120	071615	73.980	12.713557	-57.244737	73.980	-0.540	0.240	0.820	73.990	-1.100	1.200																			1580022975.0	0.18	0.33
26/01/2020 07:16:16	26012020	260120	071616	74.080	12.713557	-57.244737	74.100	-0.430	-0.200	0.540	74.110	-1.500	0.900																			1580022976.0	0.24	0.44
26/01/2020 07:16:17	26012020	260120	071617	74.240	12.713555	-57.244733	74.250	-0.240	-0.490	0.300	74.260	-1.900	0.700																			1580022977.0	0.36	0.67
26/01/2020 07:16:18	26012020	260120	071618	74.330	12.713555	-57.244733	74.320	-0.030	-0.460	0.120	74.340	-1.800	0.500																			1580022978.0	0.22	0.41
26/01/2020 07:16:19	26012020	260120	071619	74.390	12.713555	-57.244733	74.390	0.170	-0.220	-0.150	74.410	-1.600	0.300																			1580022979.0	0.18	0.33
26/01/2020 07:16:20	26012020	260120	071620	74.450	12.713557	-57.244737	74.430	0.370	-0.050	-0.450	74.460	-1.400	-0.100																			1580022980.0	0.49	0.91
26/01/2020 07:16:21	26012020	260120	071621	74.460	12.713560	-57.244737	74.430	0.550	-0.070	-0.620	74.450	-1.400	-0.200																			1580022981.0	0.70	1.30
26/01/2020 07:16:22	26012020	260120	071622	74.410	12.713563	-57.244737	74.370	0.600	-0.150	-0.530	74.400	-1.500	-0.200																			1580022982.0	0.65	1.20
26/01/2020 07:16:23	26012020	260120	071623	74.410	12.713563	-57.244737	74.420	0.390	-0.120	-0.210	74.430	-1.500	0.100																			1580022983.0	0.30	0.56
26/01/2020 07:16:24	26012020	260120	071624	74.580	12.713563	-57.244737	74.640	-0.040	0.050	0.240	74.630	-1.300	0.600																			1580022984.0	0.18	0.33
26/01/2020 07:16:25	26012020	260120	071625	74.840	12.713560	-57.244738	74.930	-0.440	0.180	0.790	74.900	-1.200	1.100																			1580022985.0	0.62	1.15
26/01/2020 07:16:26	26012020	260120	071626	75.060	12.713557	-57.244738	75.130	-0.570	0.070	1.380	75.090	-1.300	1.700																			1580022986.0	0.94	1.74
26/01/2020 07:16:27	26012020	260120	071627	75.140	12.713552	-57.244735	75.180	-0.400	-0.280	1.840	75.140	-1.600	2.200																			1580022987.0	1.08	2.00
26/01/2020 07:16:28	26012020	260120	071628	75.100	12.713548	-57.244733	75.150	-0.110	-0.580	2.020	75.100	-1.900	2.400																			1580022988.0	0.94	1.74
26/01/2020 07:16:29	26012020	260120	071629	75.110	12.713547	-57.244732	75.180	0.060	-0.470	1.840	75.140	-1.900	2.200																			1580022989.0	0.42	0.78
26/01/2020 07:16:30	26012020	260120	071630	75.260	12.713547	-57.244733	75.330	0.060	-0.010	1.330	75.310	-1.400	1.800																			1580022990.0	0.36	0.67
26/01/2020 07:16:31	26012020	260120	071631	75.440	12.713550	-57.244737	75.550	0.030	0.360	0.580	75.490	-1.000	1.000																			1580022991.0	0.86	1.59
26/01/2020 07:16:32	26012020	260120	071632	75.690	12.713553	-57.244738	75.720	0.080	0.310	-0.260	75.720	-1.100	0.200																			1580022992.0	1.00	1.85
26/01/2020 07:16:33	26012020	260120	071633	75.810	12.713558	-57.244740	75.820	0.170	-0.090	-1.010	75.830	-1.400	-0.600																			1580022993.0	1.06	1.96
26/01/2020 07:16:34	26012020	260120	071634	75.890	12.713563	-57.244738	75.860	0.190	-0.410	-1.360	75.890	-1.800	-1.000																			1580022994.0	0.93	1.72
26/01/2020 07:16:35	26012020	260120	071635	75.870	12.713565	-57.244738	75.820	0.120	-0.380	-1.210	75.860	-1.800	-0.900																			1580022995.0	0.37	0.69
26/01/2020 07:16:36	26012020	260120	071636	75.810	12.713563	-57.244740	75.780	0.010	-0.150	-0.710	75.810	-1.500	-0.400																			1580022996.0	0.27	0.50
26/01/2020 07:16:37	26012020	260120	071637	75.840	12.713562	-57.244740	75.840	-0.050	-0.050	-0.060	75.860	-1.400	0.300																			1580022997.0	0.56	1.04
26/01/2020 07:16:38	26012020	260120	071638	75.970	12.713558	-57.244740	76.010	-0.010	-0.180	0.630	76.000	-1.500	0.900																			1580022998.0	0.72	1.33
26/01/2020 07:16:39	26012020	260120	071639	76.130	12.713555	-57.244737	76.180	0.050	-0.320	1.310	76.160	-1.700	1.600																			1580022999.0	0.93	1.72
26/01/2020 07:16:40	26012020	260120	071640	76.270	12.713550	-57.244735	76.340	0.010	-0.170	1.820	76.300	-1.600	2.100																			1580023000.0	0.89	1.65
26/01/2020 07:16:41	26012020	260120	071641	76.370	12.713548	-57.244737	76.410	-0.120	0.170	2.060	76.370	-1.200	2.400																			1580023001.0	0.60	1.11
26/01/2020 07:16:42	26012020	260120	071642	76.360	12.713547	-57.244737	76.390	-0.180	0.390	2.070	76.350	-1.000	2.400																			1580023002.0	0.45	0.83
26/01/2020 07:16:43	26012020	260120	071643	76.300	12.713547	-57.244738	76.320	-0.110	0.220	1.810	76.280	-1.100	2.200																			1580023003.0	0.21	0.39
26/01/2020 07:16:44	26012020	260120	071644	76.250	12.713548	-57.244738	76.280	0.040	-0.280	1.270	76.250	-1.600	1.700																			1580023004.0	0.43	0.80
26/01/2020 07:16:45	26012020	260120	071645	76.220	12.713552	-57.244737	76.220	0.160	-0.710	0.560	76.220	-2.100	1.000																			1580023005.0	0.90	1.67
26/01/2020 07:16:46	26012020	260120	071646	76.210	12.713557	-57.244737	76.190	0.150	-0.710	-0.230	76.220	-2.100	0.200																			1580023006.0	1.00	1.85
26/01/2020 07:16:47	26012020	260120	071647	76.280	12.713560	-57.244738	76.280	0.070	-0.290	-0.910	76.300	-1.700	-0.500																			1580023007.0	0.93	1.72
26/01/2020 07:16:48	26012020	260120	071648	76.390	12.713563	-57.244742	76.340	-0.020	0.230	-1.250	76.390	-1.200	-0.900																			1580023008.0	0.77	1.43
26/01/2020 07:16:49	26012020	260120	071649	76.370	12.713563	-57.244743	76.300	-0.070	0.440	-1.190	76.360	-0.900	-0.800																			1580023009.0	0.48	0.89
26/01/2020 07:16:50	26012020	260120	071650	76.270	12.713563	-57.244743	76.190	-0.080	0.250	-0.850	76.240	-1.100	-0.500																			1580023010.0	0.16	0.30
26/01/2020 07:16:51	26012020	260120	071651	76.160	12.713562	-57.244742	76.120	-0.050	-0.120	-0.370	76.150	-1.500	-0.000																			1580023011.0	0.42	0.78
26/01/2020 07:16:52	26012020	260120	071652	76.150	12.713560	-57.244740	76.140	-0.010	-0.390	0.140	76.170	-1.800	0.500																			1580023012.0	0.55	1.02
26/01/2020 07:16:53	26012020	260120	071653	76.270	12.713557	-57.244740	76.290	0.000	-0.380	0.640	76.300	-1.800	1.000																			1580023013.0	0.56	1.04
26/01/2020 07:16:54	26012020	260120	071654	76.410	12.713553	-57.244740	76.440	-0.020	-0.170	1.100	76.430	-1.600	1.400																			1580023014.0	0.66	1.22
26/01/2020 07:16:55	26012020	260120	071655	76.470	12.713552	-57.244740	76.490	-0.050	0.000	1.350	76.480	-1.400	1.700																			1580023015.0	0.63	1.17
26/01/2020 07:16:56	26012020	260120	071656	76.480	12.713550	-57.244742	76.490	0.000	0.000	1.290	76.470	-1.400	1.700																			1580023016.0	0.30	0.56
26/01/2020 07:16:57	26012020	260120	071657	76.430	12.713550	-57.244742	76.410	0.120	-0.080	1.090	76.420	-1.400	1.500																			1580023017.0	0.07	0.13
26/01/2020 07:16:58	26012020	260120	071658	76.300	12.713552	-57.244742	76.300	0.210	-0.190	0.910	76.280	-1.600	1.300																			1580023018.0	0.19	0.35
26/01/2020 07:16:59	26012020	260120	071659	76.250	12.713553	-57.244740	76.250	0.200	-0.370	0.580	76.250	-1.700	1.000																			1580023019.0	0.35	0.65
26/01/2020 07:17:00	26012020	260120	071700	76.320	12.713555	-57.244740	76.320	0.100	-0.430	0.030	76.340	-1.800	0.500	1013.70	25.60	25.60	19.90	20.00	-1.00	71.00	71.00	398.00	25.20	7.00	5.70	83.00	5.50	14	3186.00	27.40	27.40	1580023020.0	0.58	1.07
26/01/2020 07:17:01	26012020	260120	071701	76.420	12.713558	-57.244742	76.400	-0.070	-0.170	-0.530	76.440	-1.600	-0.100																			1580023021.0	0.62	1.15
26/01/2020 07:17:02	26012020	260120	071702	76.480	12.713560	-57.244743	76.420	-0.230	0.190	-0.840	76.480	-1.200	-0.500																			1580023022.0	0.55	1.02
26/01/2020 07:17:03	26012020	260120	071703	76.500	12.713560	-57.244745	76.440	-0.300	0.300	-0.790	76.500	-1.100	-0.400																			1580023023.0	0.31	0.57
26/01/2020 07:17:04	26012020	260120	071704	76.540	12.713558	-57.244743	76.500	-0.250	0.120	-0.440	76.550	-1.200	-0.100																			1580023024.0	0.32	0.59
26/01/2020 07:17:05	26012020	260120	071705	76.620	12.713557	-57.244742	76.590	-0.120	-0.100	0.010	76.640	-1.500	0.300																			1580023025.0	0.67	1.24
26/01/2020 07:17:06	26012020	260120	071706	76.670	12.713553	-57.244742	76.620	0.010	-0.150	0.400	76.660	-1.500	0.700																			1580023026.0	0.70	1.30
26/01/2020 07:17:07	26012020	260120	071707	76.590	12.713550	-57.244742	76.520	0.100	-0.100	0.790	76.550	-1.500	1.100																			1580023027.0	0.58	1.07
26/01/2020 07:17:08	26012020	260120	071708	76.430	12.713548	-57.244742	76.390	0.200	-0.150	1.140	76.400	-1.500	1.500																			1580023028.0	0.45	0.83
26/01/2020 07:17:09	26012020	260120	071709	76.340	12.713548	-57.244742	76.330	0.340	-0.390	1.330	76.340	-1.700	1.700																			1580023029.0	0.16	0.30
26/01/2020 07:17:10	26012020	260120	071710	76.340	12.713548	-57.244740	76.340	0.410	-0.550	1.320	76.350	-1.900	1.700																			1580023030.0	0.28	0.52
26/01/2020 07:17:11	26012020	260120	071711	76.370	12.713550	-57.244740	76.350	0.330	-0.410	1.100	76.370	-1.800	1.500																			1580023031.0	0.36	0.67
26/01/2020 07:17:12	26012020	260120	071712	76.320	12.713552	-57.244742	76.290	0.080	-0.090	0.850	76.300	-1.500	1.200																			1580023032.0	0.43	0.80
26/01/2020 07:17:13	26012020	260120	071713	76.190	12.713553	-57.244743	76.150	-0.240	0.210	0.730	76.160	-1.200	1.100																			1580023033.0	0.34	0.63
26/01/2020 07:17:14	26012020	260120	071714	76.100	12.713552	-57.244743	76.070	-0.540	0.370	0.660	76.090	-1.000	1.000																			1580023034.0	0.22	0.41
26/01/2020 07:17:15	26012020	260120	071715	76.100	12.713552	-57.244745	76.090	-0.670	0.310	0.500	76.100	-1.100	0.900																			1580023035.0	0.25	0.46
26/01/2020 07:17:16	26012020	260120	071716	76.120	12.713550	-57.244745	76.120	-0.510	0.040	0.260	76.140	-1.300	0.700																			1580023036.0	0.16	0.30
26/01/2020 07:17:17	26012020	260120	071717	76.130	12.713550	-57.244743	76.110	-0.090	-0.330	0.030	76.120	-1.700	0.400																			1580023037.0	0.15	0.28
26/01/2020 07:17:18	26012020	260120	071718	76.050	12.713550	-57.244742	76.010	0.380	-0.630	-0.130	76.030	-2.000	0.300																			1580023038.0	0.26	0.48
26/01/2020 07:17:19	26012020	260120	071719	75.940	12.713552	-57.244742	75.900	0.630	-0.700	-0.240	75.930	-2.100	0.100																			1580023039.0	0.29	0.54
26/01/2020 07:17:20	26012020	260120	071720	75.940	12.713553	-57.244742	75.910	0.510	-0.390	-0.340	75.950	-1.800	0.000																			1580023040.0	0.30	0.56
26/01/2020 07:17:21	26012020	260120	071721	76.000	12.713555	-57.244745	75.960	0.170	0.220	-0.330	76.000	-1.200	0.000																			1580023041.0	0.54	1.00
26/01/2020 07:17:22	26012020	260120	071722	75.990	12.713553	-57.244748	75.950	-0.130	0.740	-0.100	75.980	-0.700	0.300																			1580023042.0	0.77	1.43
26/01/2020 07:17:23	26012020	260120	071723	75.940	12.713553	-57.244750	75.900	-0.210	0.650	0.250	75.930	-0.700	0.600																			1580023043.0	0.59	1.09
26/01/2020 07:17:24	26012020	260120	071724	75.910	12.713552	-57.244750	75.910	-0.120	-0.070	0.570	75.910	-1.400	0.900																			1580023044.0	0.32	0.59
26/01/2020 07:17:25	26012020	260120	071725	75.930	12.713550	-57.244747	75.950	-0.050	-0.840	0.820	75.940	-2.200	1.200																			1580023045.0	0.70	1.30
26/01/2020 07:17:26	26012020	260120	071726	75.960	12.713550	-57.244743	75.970	-0.070	-1.060	1.080	75.950	-2.400	1.400																			1580023046.0	0.63	1.17
26/01/2020 07:17:27	26012020	260120	071727	75.940	12.713547	-57.244743	75.930	-0.140	-0.650	1.380	75.930	-2.100	1.700																			1580023047.0	0.59	1.09
26/01/2020 07:17:28	26012020	260120	071728	75.920	12.713543	-57.244745	75.930	-0.150	-0.040	1.560	75.920	-1.500	1.900																			1580023048.0	0.89	1.65
26/01/2020 07:17:29	26012020	260120	071729	75.970	12.713540	-57.244747	76.000	-0.100	0.350	1.380	75.990	-1.000	1.800																			1580023049.0	0.68	1.26
26/01/2020 07:17:30	26012020	260120	071730	76.120	12.713540	-57.244747	76.160	-0.020	0.470	0.750	76.160	-0.900	1.200																			1580023050.0	0.21	0.39
26/01/2020 07:17:31	26012020	260120	071731	76.350	12.713543	-57.244748	76.370	0.060	0.430	-0.140	76.400	-0.900	0.300																			1580023051.0	0.74	1.37
26/01/2020 07:17:32	26012020	260120	071732	76.560	12.713548	-57.244750	76.540	0.120	0.290	-0.920	76.590	-1.100	-0.500																			1580023052.0	1.04	1.93
26/01/2020 07:17:33	26012020	260120	071733	76.610	12.713552	-57.244752	76.530	0.210	-0.040	-1.240	76.600	-1.400	-0.900																			1580023053.0	0.92	1.70
26/01/2020 07:17:34	26012020	260120	071734	76.450	12.713555	-57.244752	76.360	0.330	-0.540	-1.040	76.400	-1.900	-0.700																			1580023054.0	0.55	1.02
26/01/2020 07:17:35	26012020	260120	071735	76.290	12.713555	-57.244750	76.190	0.350	-0.950	-0.520	76.260	-2.300	-0.200																			1580023055.0	0.36	0.67
26/01/2020 07:17:36	26012020	260120	071736	76.160	12.713553	-57.244748	76.120	0.170	-0.910	0.150	76.150	-2.300	0.500																			1580023056.0	0.50	0.93
26/01/2020 07:17:37	26012020	260120	071737	76.150	12.713550	-57.244748	76.150	-0.180	-0.330	0.960	76.160	-1.800	1.300																			1580023057.0	0.92	1.70
26/01/2020 07:17:38	26012020	260120	071738	76.190	12.713543	-57.244748	76.210	-0.530	0.420	1.760	76.200	-1.000	2.100																			1580023058.0	1.48	2.74
26/01/2020 07:17:39	26012020	260120	071739	76.250	12.713535	-57.244750	76.280	-0.660	0.760	2.230	76.260	-0.600	2.600																			1580023059.0	1.51	2.80
26/01/2020 07:17:40	26012020	260120	071740	76.370	12.713532	-57.244750	76.420	-0.470	0.490	2.130	76.400	-0.800	2.500																			1580023060.0	0.84	1.56
26/01/2020 07:17:41	26012020	260120	071741	76.550	12.713532	-57.244748	76.590	-0.030	-0.080	1.520	76.580	-1.400	2.000																			1580023061.0	0.31	0.57
26/01/2020 07:17:42	26012020	260120	071742	76.670	12.713535	-57.244747	76.660	0.410	-0.490	0.710	76.670	-1.800	1.200																			1580023062.0	0.78	1.44
26/01/2020 07:17:43	26012020	260120	071743	76.600	12.713540	-57.244748	76.530	0.600	-0.570	0.010	76.560	-1.900	0.400																			1580023063.0	1.00	1.85
26/01/2020 07:17:44	26012020	260120	071744	76.340	12.713545	-57.244750	76.240	0.510	-0.450	-0.420	76.280	-1.800	-0.000																			1580023064.0	1.00	1.85
26/01/2020 07:17:45	26012020	260120	071745	76.150	12.713548	-57.244752	76.050	0.240	-0.290	-0.750	76.120	-1.700	-0.400																			1580023065.0	0.86	1.59
26/01/2020 07:17:46	26012020	260120	071746	76.120	12.713552	-57.244753	76.070	-0.030	-0.100	-0.960	76.140	-1.500	-0.600																			1580023066.0	0.67	1.24
26/01/2020 07:17:47	26012020	260120	071747	76.220	12.713552	-57.244753	76.200	-0.230	0.110	-0.870	76.250	-1.300	-0.500																			1580023067.0	0.22	0.41
26/01/2020 07:17:48	26012020	260120	071748	76.360	12.713548	-57.244753	76.340	-0.350	0.280	-0.490	76.390	-1.100	-0.200																			1580023068.0	0.53	0.98
26/01/2020 07:17:49	26012020	260120	071749	76.470	12.713545	-57.244753	76.500	-0.370	0.300	0.030	76.500	-1.100	0.400																			1580023069.0	0.89	1.65
26/01/2020 07:17:50	26012020	260120	071750	76.620	12.713540	-57.244753	76.630	-0.240	0.150	0.620	76.640	-1.200	0.900																			1580023070.0	0.97	1.80
26/01/2020 07:17:51	26012020	260120	071751	76.650	12.713537	-57.244752	76.650	0.010	-0.160	1.130	76.630	-1.500	1.500																			1580023071.0	0.84	1.56
26/01/2020 07:17:52	26012020	260120	071752	76.540	12.713535	-57.244752	76.540	0.240	-0.480	1.470	76.510	-1.800	1.800																			1580023072.0	0.61	1.13
26/01/2020 07:17:53	26012020	260120	071753	76.390	12.713533	-57.244750	76.390	0.300	-0.640	1.600	76.370	-2.000	2.000																			1580023073.0	0.32	0.59
26/01/2020 07:17:54	26012020	260120	071754	76.330	12.713533	-57.244750	76.360	0.170	-0.610	1.480	76.340	-2.000	1.900																			1580023074.0	0.06	0.11
26/01/2020 07:17:55	26012020	260120	071755	76.430	12.713535	-57.244750	76.460	-0.010	-0.390	1.110	76.460	-1.800	1.500																			1580023075.0	0.34	0.63
26/01/2020 07:17:56	26012020	260120	071756	76.540	12.713537	-57.244752	76.540	-0.120	-0.020	0.680	76.550	-1.400	1.100																			1580023076.0	0.39	0.72
26/01/2020 07:17:57	26012020	260120	071757	76.570	12.713537	-57.244752	76.550	-0.160	0.380	0.260	76.570	-1.000	0.700																			1580023077.0	0.27	0.50
26/01/2020 07:17:58	26012020	260120	071758	76.610	12.713537	-57.244753	76.590	-0.190	0.580	-0.200	76.640	-0.800	0.200																			1580023078.0	0.26	0.48
26/01/2020 07:17:59	26012020	260120	071759	76.740	12.713538	-57.244755	76.710	-0.170	0.450	-0.630	76.770	-0.900	-0.200																			1580023079.0	0.23	0.43
26/01/2020 07:18:00	26012020	260120	071800	76.870	12.713540	-57.244755	76.820	-0.020	0.090	-0.860	76.880	-1.300	-0.500	1013.70	25.60	25.60	19.90	20.00	-1.00	71.00	71.00	397.00	25.20	359.00	5.50	75.00	5.30	14	3271.00	27.40	27.40	1580023080.0	0.36	0.67
26/01/2020 07:18:01	26012020	260120	071801	76.890	12.713542	-57.244753	76.810	0.220	-0.290	-0.850	76.880	-1.600	-0.500																			1580023081.0	0.43	0.80
26/01/2020 07:18:02	26012020	260120	071802	76.790	12.713542	-57.244753	76.700	0.410	-0.550	-0.560	76.770	-1.900	-0.200																			1580023082.0	0.27	0.50
26/01/2020 07:18:03	26012020	260120	071803	76.660	12.713542	-57.244753	76.590	0.410	-0.630	0.000	76.640	-2.000	0.300																			1580023083.0	0.16	0.30
26/01/2020 07:18:04	26012020	260120	071804	76.580	12.713540	-57.244752	76.520	0.210	-0.520	0.800	76.570	-1.900	1.100																			1580023084.0	0.57	1.06
26/01/2020 07:18:05	26012020	260120	071805	76.530	12.713535	-57.244752	76.500	-0.120	-0.240	1.670	76.520	-1.600	2.000																			1580023085.0	1.03	1.91
26/01/2020 07:18:06	26012020	260120	071806	76.430	12.713528	-57.244752	76.420	-0.430	0.100	2.390	76.400	-1.300	2.700																			1580023086.0	1.28	2.37
26/01/2020 07:18:07	26012020	260120	071807	76.260	12.713523	-57.244752	76.250	-0.540	0.200	2.750	76.220	-1.200	3.100																			1580023087.0	1.14	2.11
26/01/2020 07:18:08	26012020	260120	071808	76.120	12.713520	-57.244750	76.140	-0.370	-0.050	2.520	76.110	-1.400	2.900																			1580023088.0	0.59	1.09
26/01/2020 07:18:09	26012020	260120	071809	76.150	12.713522	-57.244748	76.180	0.000	-0.370	1.740	76.170	-1.700	2.200																			1580023089.0	0.48	0.89
26/01/2020 07:18:10	26012020	260120	071810	76.280	12.713527	-57.244747	76.290	0.360	-0.350	0.650	76.310	-1.700	1.100																			1580023090.0	0.88	1.63
26/01/2020 07:18:11	26012020	260120	071811	76.380	12.713532	-57.244748	76.350	0.490	0.070	-0.470	76.390	-1.300	0.000																			1580023091.0	1.19	2.20
26/01/2020 07:18:12	26012020	260120	071812	76.380	12.713537	-57.244753	76.290	0.370	0.560	-1.400	76.360	-0.900	-0.900																			1580023092.0	1.45	2.69
26/01/2020 07:18:13	26012020	260120	071813	76.260	12.713542	-57.244757	76.140	0.150	0.630	-2.010	76.230	-0.700	-1.600																			1580023093.0	1.40	2.59
26/01/2020 07:18:14	26012020	260120	071814	76.150	12.713547	-57.244758	76.040	-0.020	0.110	-2.150	76.140	-1.200	-1.800																			1580023094.0	0.95	1.76
26/01/2020 07:18:15	26012020	260120	071815	76.100	12.713548	-57.244757	76.010	-0.050	-0.680	-1.730	76.090	-2.000	-1.400																			1580023095.0	0.50	0.93
26/01/2020 07:18:16	26012020	260120	071816	76.050	12.713547	-57.244753	76.000	-0.040	-1.170	-0.820	76.040	-2.500	-0.500																			1580023096.0	0.83	1.54
26/01/2020 07:18:17	26012020	260120	071817	75.950	12.713540	-57.244750	75.920	-0.120	-0.940	0.430	75.920	-2.300	0.700																			1580023097.0	1.37	2.54
26/01/2020 07:18:18	26012020	260120	071818	75.800	12.713532	-57.244750	75.800	-0.310	-0.160	1.710	75.770	-1.600	2.000																			1580023098.0	1.98	3.67
26/01/2020 07:18:19	26012020	260120	071819	75.690	12.713522	-57.244752	75.720	-0.480	0.560	2.640	75.670	-0.900	2.900																			1580023099.0	2.14	3.96
26/01/2020 07:18:20	26012020	260120	071820	75.650	12.713515	-57.244752	75.700	-0.460	0.720	2.900	75.650	-0.600	3.300																			1580023100.0	1.44	2.67
26/01/2020 07:18:21	26012020	260120	071821	75.720	12.713513	-57.244752	75.790	-0.170	0.280	2.420	75.760	-1.000	2.900																			1580023101.0	0.31	0.57
26/01/2020 07:18:22	26012020	260120	071822	75.860	12.713517	-57.244750	75.890	0.270	-0.340	1.420	75.880	-1.700	1.900																			1580023102.0	0.88	1.63
26/01/2020 07:18:23	26012020	260120	071823	75.940	12.713523	-57.244748	75.930	0.640	-0.740	0.280	75.950	-2.100	0.800																			1580023103.0	1.45	2.69
26/01/2020 07:18:24	26012020	260120	071824	75.990	12.713530	-57.244748	75.960	0.750	-0.740	-0.750	76.000	-2.100	-0.300																			1580023104.0	1.53	2.83
26/01/2020 07:18:25	26012020	260120	071825	76.030	12.713537	-57.244750	75.980	0.550	-0.360	-1.450	76.040	-1.800	-1.000																			1580023105.0	1.32	2.44
26/01/2020 07:18:26	26012020	260120	071826	76.030	12.713540	-57.244753	75.960	0.150	0.250	-1.600	76.020	-1.200	-1.200																			1580023106.0	0.93	1.72
26/01/2020 07:18:27	26012020	260120	071827	76.010	12.713540	-57.244755	75.950	-0.230	0.710	-1.220	76.010	-0.700	-0.900																			1580023107.0	0.55	1.02
26/01/2020 07:18:28	26012020	260120	071828	76.050	12.713537	-57.244757	76.030	-0.430	0.630	-0.510	76.080	-0.700	-0.200																			1580023108.0	0.65	1.20
26/01/2020 07:18:29	26012020	260120	071829	76.170	12.713533	-57.244753	76.180	-0.460	0.070	0.380	76.200	-1.200	0.700																			1580023109.0	1.09	2.02
26/01/2020 07:18:30	26012020	260120	071830	76.260	12.713527	-57.244750	76.270	-0.380	-0.550	1.390	76.260	-1.900	1.700																			1580023110.0	1.51	2.80
26/01/2020 07:18:31	26012020	260120	071831	76.190	12.713520	-57.244747	76.200	-0.240	-0.850	2.360	76.160	-2.200	2.700																			1580023111.0	1.61	2.98
26/01/2020 07:18:32	26012020	260120	071832	76.020	12.713515	-57.244745	76.040	-0.080	-0.730	3.000	75.990	-2.100	3.300																			1580023112.0	1.38	2.56
26/01/2020 07:18:33	26012020	260120	071833	75.870	12.713510	-57.244743	75.920	0.080	-0.330	3.080	75.850	-1.700	3.500																			1580023113.0	0.81	1.50
26/01/2020 07:18:34	26012020	260120	071834	75.830	12.713510	-57.244745	75.890	0.200	0.110	2.530	75.840	-1.300	3.000																			1580023114.0	0.30	0.56
26/01/2020 07:18:35	26012020	260120	071835	75.910	12.713513	-57.244748	75.960	0.280	0.330	1.430	75.940	-1.000	1.900																			1580023115.0	0.93	1.72
26/01/2020 07:18:36	26012020	260120	071836	76.060	12.713522	-57.244750	76.090	0.340	0.220	0.000	76.100	-1.100	0.500																			1580023116.0	1.60	2.96
26/01/2020 07:18:37	26012020	260120	071837	76.180	12.713530	-57.244750	76.170	0.330	-0.060	-1.350	76.200	-1.400	-0.900																			1580023117.0	1.96	3.63
26/01/2020 07:18:38	26012020	260120	071838	76.200	12.713538	-57.244752	76.120	0.190	-0.260	-2.180	76.180	-1.600	-1.800																			1580023118.0	1.70	3.15
26/01/2020 07:18:39	26012020	260120	071839	76.100	12.713542	-57.244752	75.990	-0.030	-0.290	-2.230	76.070	-1.700	-1.900																			1580023119.0	0.88	1.63
26/01/2020 07:18:40	26012020	260120	071840	75.990	12.713542	-57.244752	75.940	-0.210	-0.270	-1.650	76.000	-1.600	-1.300																			1580023120.0	0.20	0.37
26/01/2020 07:18:41	26012020	260120	071841	76.060	12.713537	-57.244750	76.030	-0.310	-0.240	-0.810	76.080	-1.600	-0.500																			1580023121.0	1.02	1.89
26/01/2020 07:18:42	26012020	260120	071842	76.110	12.713530	-57.244750	76.090	-0.310	-0.110	0.190	76.110	-1.500	0.500																			1580023122.0	1.36	2.52
26/01/2020 07:18:43	26012020	260120	071843	76.090	12.713523	-57.244748	76.090	-0.210	0.130	1.180	76.090	-1.300	1.500																			1580023123.0	1.42	2.63
26/01/2020 07:18:44	26012020	260120	071844	76.100	12.713518	-57.244748	76.150	-0.020	0.210	1.920	76.110	-1.200	2.200																			1580023124.0	1.27	2.35
26/01/2020 07:18:45	26012020	260120	071845	76.160	12.713515	-57.244747	76.200	0.130	0.040	2.270	76.160	-1.300	2.600																			1580023125.0	0.78	1.44
26/01/2020 07:18:46	26012020	260120	071846	76.200	12.713515	-57.244747	76.250	0.200	-0.240	2.210	76.210	-1.600	2.600																			1580023126.0	0.19	0.35
26/01/2020 07:18:47	26012020	260120	071847	76.250	12.713517	-57.244747	76.290	0.200	-0.480	1.800	76.270	-1.800	2.200																			1580023127.0	0.56	1.04
26/01/2020 07:18:48	26012020	260120	071848	76.310	12.713520	-57.244747	76.330	0.150	-0.510	1.180	76.320	-1.900	1.600																			1580023128.0	0.79	1.46
26/01/2020 07:18:49	26012020	260120	071849	76.360	12.713523	-57.244747	76.370	0.010	-0.220	0.530	76.370	-1.600	1.000																			1580023129.0	0.72	1.33
26/01/2020 07:18:50	26012020	260120	071850	76.440	12.713527	-57.244748	76.460	-0.200	0.200	-0.060	76.480	-1.200	0.400																			1580023130.0	0.61	1.13
26/01/2020 07:18:51	26012020	260120	071851	76.620	12.713527	-57.244752	76.640	-0.330	0.360	-0.530	76.660	-1.000	-0.100																			1580023131.0	0.50	0.93
26/01/2020 07:18:52	26012020	260120	071852	76.800	12.713528	-57.244752	76.790	-0.250	0.110	-0.840	76.820	-1.200	-0.400																			1580023132.0	0.18	0.33
26/01/2020 07:18:53	26012020	260120	071853	76.930	12.713528	-57.244750	76.910	-0.050	-0.240	-0.980	76.950	-1.600	-0.600																			1580023133.0	0.38	0.70
26/01/2020 07:18:54	26012020	260120	071854	77.020	12.713530	-57.244748	76.990	0.110	-0.360	-0.890	77.030	-1.700	-0.500																			1580023134.0	0.32	0.59
26/01/2020 07:18:55	26012020	260120	071855	77.010	12.713528	-57.244748	76.980	0.150	-0.250	-0.460	77.000	-1.600	-0.100																			1580023135.0	0.11	0.20
26/01/2020 07:18:56	26012020	260120	071856	76.950	12.713527	-57.244748	76.940	0.170	-0.150	0.230	76.940	-1.500	0.500																			1580023136.0	0.39	0.72
26/01/2020 07:18:57	26012020	260120	071857	76.920	12.713525	-57.244747	76.940	0.210	-0.170	0.940	76.930	-1.500	1.300																			1580023137.0	0.63	1.17
26/01/2020 07:18:58	26012020	260120	071858	77.050	12.713522	-57.244745	77.110	0.200	-0.220	1.450	77.100	-1.600	1.800																			1580023138.0	0.68	1.26
26/01/2020 07:18:59	26012020	260120	071859	77.310	12.713520	-57.244743	77.380	0.060	-0.100	1.720	77.360	-1.500	2.100																			1580023139.0	0.47	0.87
26/01/2020 07:19:00	26012020	260120	071900	77.510	12.713518	-57.244743	77.570	-0.160	0.150	1.870	77.540	-1.200	2.200	1013.70	25.60	25.60	19.90	20.00	-1.00	71.00	71.00	396.00	25.20	4.00	6.00	81.00	5.60	14	3178.00	27.40	27.40	1580023140.0	0.29	0.54
26/01/2020 07:19:01	26012020	260120	071901	77.550	12.713517	-57.244745	77.570	-0.320	0.320	1.920	77.530	-1.100	2.300																			1580023141.0	0.35	0.65
26/01/2020 07:19:02	26012020	260120	071902	77.410	12.713517	-57.244745	77.420	-0.360	0.200	1.770	77.380	-1.100	2.200																			1580023142.0	0.22	0.41
26/01/2020 07:19:03	26012020	260120	071903	77.290	12.713517	-57.244743	77.310	-0.230	-0.170	1.310	77.280	-1.500	1.700																			1580023143.0	0.21	0.39
26/01/2020 07:19:04	26012020	260120	071904	77.280	12.713520	-57.244742	77.310	0.010	-0.570	0.550	77.290	-1.900	1.000																			1580023144.0	0.67	1.24
26/01/2020 07:19:05	26012020	260120	071905	77.350	12.713523	-57.244742	77.350	0.250	-0.760	-0.270	77.360	-2.100	0.200																			1580023145.0	0.99	1.83
26/01/2020 07:19:06	26012020	260120	071906	77.380	12.713528	-57.244742	77.340	0.360	-0.560	-0.930	77.380	-2.000	-0.500																			1580023146.0	1.00	1.85
26/01/2020 07:19:07	26012020	260120	071907	77.370	12.713532	-57.244742	77.320	0.280	-0.110	-1.390	77.370	-1.500	-1.000																			1580023147.0	0.81	1.50
26/01/2020 07:19:08	26012020	260120	071908	77.390	12.713535	-57.244743	77.340	0.090	0.340	-1.580	77.400	-1.100	-1.200																			1580023148.0	0.61	1.13
26/01/2020 07:19:09	26012020	260120	071909	77.440	12.713535	-57.244745	77.400	-0.120	0.550	-1.400	77.460	-0.800	-1.100																			1580023149.0	0.32	0.59
26/01/2020 07:19:10	26012020	260120	071910	77.500	12.713533	-57.244745	77.480	-0.230	0.390	-0.830	77.510	-0.900	-0.500																			1580023150.0	0.27	0.50
26/01/2020 07:19:11	26012020	260120	071911	77.510	12.713532	-57.244743	77.490	-0.220	-0.020	0.080	77.500	-1.300	0.400																			1580023151.0	0.81	1.50
26/01/2020 07:19:12	26012020	260120	071912	77.420	12.713527	-57.244740	77.400	-0.120	-0.420	1.100	77.380	-1.700	1.400																			1580023152.0	1.20	2.22
26/01/2020 07:19:13	26012020	260120	071913	77.250	12.713520	-57.244737	77.240	-0.030	-0.610	1.920	77.220	-2.000	2.200																			1580023153.0	1.25	2.31
26/01/2020 07:19:14	26012020	260120	071914	77.100	12.713517	-57.244737	77.110	-0.010	-0.510	2.380	77.080	-1.900	2.700																			1580023154.0	0.97	1.80
26/01/2020 07:19:15	26012020	260120	071915	77.030	12.713515	-57.244735	77.080	-0.050	-0.270	2.380	77.030	-1.700	2.800																			1580023155.0	0.49	0.91
26/01/2020 07:19:16	26012020	260120	071916	77.080	12.713515	-57.244737	77.120	-0.060	-0.110	1.920	77.090	-1.500	2.300																			1580023156.0	0.16	0.30
26/01/2020 07:19:17	26012020	260120	071917	77.150	12.713517	-57.244737	77.190	0.020	-0.050	1.140	77.170	-1.400	1.600																			1580023157.0	0.60	1.11
26/01/2020 07:19:18	26012020	260120	071918	77.240	12.713522	-57.244737	77.240	0.160	0.010	0.160	77.250	-1.400	0.600																			1580023158.0	0.95	1.76
26/01/2020 07:19:19	26012020	260120	071919	77.270	12.713527	-57.244738	77.250	0.220	0.060	-0.810	77.270	-1.300	-0.400																			1580023159.0	1.06	1.96
26/01/2020 07:19:20	26012020	260120	071920	77.260	12.713532	-57.244738	77.200	0.130	0.020	-1.480	77.250	-1.300	-1.000																			1580023160.0	0.95	1.76
26/01/2020 07:19:21	26012020	260120	071921	77.200	12.713533	-57.244738	77.140	-0.040	-0.070	-1.660	77.190	-1.400	-1.300																			1580023161.0	0.59	1.09
26/01/2020 07:19:22	26012020	260120	071922	77.160	12.713533	-57.244738	77.110	-0.170	-0.100	-1.440	77.160	-1.500	-1.100																			1580023162.0	0.13	0.24
26/01/2020 07:19:23	26012020	260120	071923	77.160	12.713532	-57.244738	77.130	-0.200	-0.090	-0.980	77.170	-1.500	-0.700																			1580023163.0	0.42	0.78
26/01/2020 07:19:24	26012020	260120	071924	77.180	12.713528	-57.244737	77.150	-0.120	-0.100	-0.350	77.180	-1.500	-0.000																			1580023164.0	0.69	1.28
26/01/2020 07:19:25	26012020	260120	071925	77.160	12.713525	-57.244737	77.140	0.000	-0.170	0.430	77.150	-1.500	0.700																			1580023165.0	0.84	1.56
26/01/2020 07:19:26	26012020	260120	071926	77.090	12.713522	-57.244735	77.090	0.120	-0.230	1.240	77.080	-1.600	1.500																			1580023166.0	0.96	1.78
26/01/2020 07:19:27	26012020	260120	071927	77.040	12.713517	-57.244733	77.060	0.150	-0.190	1.860	77.040	-1.600	2.200																			1580023167.0	0.89	1.65
26/01/2020 07:19:28	26012020	260120	071928	77.040	12.713515	-57.244732	77.070	0.070	-0.020	2.140	77.040	-1.400	2.500																			1580023168.0	0.57	1.06
26/01/2020 07:19:29	26012020	260120	071929	77.040	12.713513	-57.244733	77.070	-0.050	0.080	2.060	77.040	-1.300	2.400																			1580023169.0	0.21	0.39
26/01/2020 07:19:30	26012020	260120	071930	77.010	12.713515	-57.244733	77.030	-0.080	-0.080	1.730	77.000	-1.400	2.100																			1580023170.0	0.18	0.33
26/01/2020 07:19:31	26012020	260120	071931	76.990	12.713517	-57.244732	76.990	-0.060	-0.370	1.270	76.990	-1.700	1.700																			1580023171.0	0.47	0.87
26/01/2020 07:19:32	26012020	260120	071932	76.940	12.713518	-57.244730	76.910	-0.070	-0.470	0.770	76.930	-1.800	1.200																			1580023172.0	0.52	0.96
26/01/2020 07:19:33	26012020	260120	071933	76.820	12.713520	-57.244730	76.770	-0.130	-0.270	0.270	76.790	-1.700	0.700																			1580023173.0	0.31	0.57
26/01/2020 07:19:34	26012020	260120	071934	76.710	12.713522	-57.244730	76.670	-0.120	0.030	-0.230	76.700	-1.400	0.200																			1580023174.0	0.27	0.50
26/01/2020 07:19:35	26012020	260120	071935	76.620	12.713522	-57.244732	76.580	0.010	0.180	-0.650	76.610	-1.200	-0.200																			1580023175.0	0.34	0.63
26/01/2020 07:19:36	26012020	260120	071936	76.540	12.713525	-57.244732	76.510	0.220	0.110	-0.960	76.530	-1.200	-0.500																			1580023176.0	0.45	0.83
26/01/2020 07:19:37	26012020	260120	071937	76.530	12.713527	-57.244732	76.510	0.390	-0.100	-1.150	76.530	-1.400	-0.800																			1580023177.0	0.63	1.17
26/01/2020 07:19:38	26012020	260120	071938	76.530	12.713530	-57.244730	76.500	0.400	-0.220	-1.040	76.530	-1.600	-0.700																			1580023178.0	0.56	1.04
26/01/2020 07:19:39	26012020	260120	071939	76.450	12.713530	-57.244730	76.410	0.240	-0.180	-0.520	76.430	-1.500	-0.200																			1580023179.0	0.12	0.22
26/01/2020 07:19:40	26012020	260120	071940	76.320	12.713528	-57.244730	76.290	-0.040	-0.100	0.280	76.290	-1.500	0.600																			1580023180.0	0.50	0.93
26/01/2020 07:19:41	26012020	260120	071941	76.170	12.713523	-57.244728	76.150	-0.320	-0.060	1.180	76.140	-1.400	1.500																			1580023181.0	0.98	1.81
26/01/2020 07:19:42	26012020	260120	071942	75.980	12.713518	-57.244728	75.980	-0.520	-0.030	1.970	75.940	-1.400	2.300																			1580023182.0	1.21	2.24
26/01/2020 07:19:43	26012020	260120	071943	75.810	12.713513	-57.244727	75.830	-0.520	-0.020	2.380	75.780	-1.400	2.700																			1580023183.0	1.03	1.91
26/01/2020 07:19:44	26012020	260120	071944	75.760	12.713510	-57.244725	75.810	-0.290	-0.130	2.260	75.770	-1.500	2.700																			1580023184.0	0.55	1.02
26/01/2020 07:19:45	26012020	260120	071945	75.840	12.713512	-57.244725	75.900	0.080	-0.340	1.690	75.870	-1.700	2.100																			1580023185.0	0.21	0.39
26/01/2020 07:19:46	26012020	260120	071946	75.930	12.713515	-57.244725	75.960	0.370	-0.450	0.920	75.940	-1.800	1.400																			1580023186.0	0.67	1.24
26/01/2020 07:19:47	26012020	260120	071947	75.940	12.713518	-57.244725	75.920	0.400	-0.280	0.080	75.920	-1.700	0.500																			1580023187.0	0.86	1.59
26/01/2020 07:19:48	26012020	260120	071948	75.840	12.713523	-57.244727	75.800	0.210	0.000	-0.670	75.810	-1.400	-0.200																			1580023188.0	0.95	1.76
26/01/2020 07:19:49	26012020	260120	071949	75.700	12.713527	-57.244728	75.630	0.000	0.140	-1.150	75.670	-1.200	-0.700																			1580023189.0	0.85	1.57
26/01/2020 07:19:50	26012020	260120	071950	75.590	12.713528	-57.244728	75.530	-0.050	-0.010	-1.280	75.580	-1.400	-0.900																			1580023190.0	0.53	0.98
26/01/2020 07:19:51	26012020	260120	071951	75.510	12.713530	-57.244728	75.460	0.020	-0.240	-1.050	75.490	-1.600	-0.700																			1580023191.0	0.36	0.67
26/01/2020 07:19:52	26012020	260120	071952	75.430	12.713528	-57.244727	75.400	0.060	-0.290	-0.570	75.430	-1.700	-0.200																			1580023192.0	0.39	0.72
26/01/2020 07:19:53	26012020	260120	071953	75.420	12.713527	-57.244725	75.430	0.030	-0.110	-0.040	75.430	-1.500	0.300																			1580023193.0	0.40	0.74
26/01/2020 07:19:54	26012020	260120	071954	75.480	12.713525	-57.244725	75.520	-0.030	0.140	0.540	75.490	-1.300	0.900																			1580023194.0	0.44	0.81
26/01/2020 07:19:55	26012020	260120	071955	75.550	12.713522	-57.244727	75.600	-0.080	0.320	1.210	75.550	-1.100	1.500																			1580023195.0	0.65	1.20
26/01/2020 07:19:56	26012020	260120	071956	75.540	12.713518	-57.244727	75.590	-0.110	0.270	1.840	75.530	-1.100	2.200																			1580023196.0	0.83	1.54
26/01/2020 07:19:57	26012020	260120	071957	75.450	12.713515	-57.244725	75.470	-0.130	-0.070	2.260	75.420	-1.400	2.600																			1580023197.0	0.75	1.39
26/01/2020 07:19:58	26012020	260120	071958	75.320	12.713513	-57.244723	75.340	-0.110	-0.570	2.350	75.280	-1.900	2.700																			1580023198.0	0.49	0.91
26/01/2020 07:19:59	26012020	260120	071959	75.170	12.713515	-57.244722	75.180	-0.040	-0.850	2.110	75.140	-2.200	2.500																			1580023199.0	0.46	0.85
26/01/2020 07:20:00	26012020	260120	072000	75.040	12.713517	-57.244722	75.050	0.020	-0.630	1.530	75.030	-2.000	2.000	1013.70	25.60	25.60	19.80	19.90	-1.00	70.00	70.00	396.00	25.20	4.00	6.30	81.00	6.00	14	3197.00	27.40	27.40	1580023200.0	0.50	0.93
26/01/2020 07:20:01	26012020	260120	072001	75.020	12.713520	-57.244723	75.030	0.020	-0.120	0.660	75.030	-1.500	1.100																			1580023201.0	0.75	1.39
26/01/2020 07:20:02	26012020	260120	072002	75.090	12.713523	-57.244725	75.080	0.020	0.260	-0.290	75.110	-1.100	0.200																			1580023202.0	0.98	1.81
26/01/2020 07:20:03	26012020	260120	072003	75.180	12.713528	-57.244727	75.150	0.050	0.320	-1.080	75.200	-1.100	-0.600																			1580023203.0	0.98	1.81
26/01/2020 07:20:04	26012020	260120	072004	75.260	12.713532	-57.244727	75.200	0.080	0.190	-1.610	75.260	-1.200	-1.200																			1580023204.0	0.87	1.61
26/01/2020 07:20:05	26012020	260120	072005	75.260	12.713535	-57.244727	75.180	0.070	0.070	-1.790	75.260	-1.300	-1.400																			1580023205.0	0.64	1.19
26/01/2020 07:20:06	26012020	260120	072006	75.190	12.713537	-57.244727	75.120	0.020	-0.050	-1.590	75.170	-1.400	-1.200																			1580023206.0	0.31	0.57
26/01/2020 07:20:07	26012020	260120	072007	75.130	12.713537	-57.244727	75.070	-0.010	-0.300	-1.010	75.120	-1.600	-0.700																			1580023207.0	0.11	0.20
26/01/2020 07:20:08	26012020	260120	072008	75.080	12.713533	-57.244725	75.060	0.040	-0.590	-0.090	75.080	-1.900	0.200																			1580023208.0	0.60	1.11
26/01/2020 07:20:09	26012020	260120	072009	75.080	12.713530	-57.244722	75.100	0.090	-0.590	0.910	75.090	-2.000	1.200																			1580023209.0	1.03	1.91
26/01/2020 07:20:10	26012020	260120	072010	75.170	12.713525	-57.244720	75.220	0.020	-0.180	1.710	75.190	-1.600	2.000																			1580023210.0	1.18	2.19
26/01/2020 07:20:11	26012020	260120	072011	75.310	12.713520	-57.244722	75.380	-0.180	0.390	2.160	75.340	-1.000	2.500																			1580023211.0	1.10	2.04
26/01/2020 07:20:12	26012020	260120	072012	75.510	12.713517	-57.244723	75.600	-0.330	0.620	2.180	75.550	-0.700	2.600																			1580023212.0	0.73	1.35
26/01/2020 07:20:13	26012020	260120	072013	75.710	12.713517	-57.244723	75.770	-0.300	0.340	1.810	75.730	-1.000	2.200																			1580023213.0	0.17	0.31
26/01/2020 07:20:14	26012020	260120	072014	75.820	12.713518	-57.244723	75.840	-0.070	-0.250	1.180	75.830	-1.600	1.600																			1580023214.0	0.53	0.98
26/01/2020 07:20:15	26012020	260120	072015	75.830	12.713523	-57.244722	75.840	0.230	-0.760	0.450	75.820	-2.100	0.900																			1580023215.0	0.90	1.67
26/01/2020 07:20:16	26012020	260120	072016	75.760	12.713527	-57.244722	75.740	0.410	-0.910	-0.180	75.750	-2.300	0.300																			1580023216.0	0.96	1.78
26/01/2020 07:20:17	26012020	260120	072017	75.690	12.713532	-57.244722	75.670	0.390	-0.640	-0.600	75.680	-2.000	-0.200																			1580023217.0	0.85	1.57
26/01/2020 07:20:18	26012020	260120	072018	75.680	12.713533	-57.244723	75.680	0.180	-0.080	-0.810	75.690	-1.500	-0.400																			1580023218.0	0.65	1.20
26/01/2020 07:20:19	26012020	260120	072019	75.750	12.713535	-57.244725	75.790	-0.060	0.400	-0.850	75.770	-1.000	-0.500																			1580023219.0	0.50	0.93
26/01/2020 07:20:20	26012020	260120	072020	75.940	12.713535	-57.244727	75.960	-0.230	0.520	-0.730	75.970	-0.900	-0.400																			1580023220.0	0.21	0.39
26/01/2020 07:20:21	26012020	260120	072021	76.090	12.713533	-57.244727	76.100	-0.290	0.360	-0.360	76.100	-1.000	-0.000																			1580023221.0	0.28	0.52
26/01/2020 07:20:22	26012020	260120	072022	76.110	12.713532	-57.244725	76.130	-0.280	0.110	0.290	76.100	-1.200	0.600																			1580023222.0	0.67	1.24
26/01/2020 07:20:23	26012020	260120	072023	76.060	12.713527	-57.244723	76.090	-0.150	-0.180	1.020	76.050	-1.500	1.300																			1580023223.0	0.90	1.67
26/01/2020 07:20:24	26012020	260120	072024	76.000	12.713523	-57.244722	76.020	0.040	-0.420	1.560	75.990	-1.800	1.900																			1580023224.0	0.82	1.52
26/01/2020 07:20:25	26012020	260120	072025	75.900	12.713522	-57.244720	75.900	0.210	-0.490	1.790	75.870	-1.900	2.200																			1580023225.0	0.44	0.81
26/01/2020 07:20:26	26012020	260120	072026	75.780	12.713522	-57.244720	75.790	0.280	-0.380	1.710	75.760	-1.800	2.100																			1580023226.0	0.04	0.07
26/01/2020 07:20:27	26012020	260120	072027	75.730	12.713523	-57.244722	75.760	0.240	-0.230	1.340	75.730	-1.600	1.800																			1580023227.0	0.39	0.72
26/01/2020 07:20:28	26012020	260120	072028	75.750	12.713527	-57.244722	75.780	0.140	-0.140	0.780	75.750	-1.500	1.200																			1580023228.0	0.61	1.13
26/01/2020 07:20:29	26012020	260120	072029	75.720	12.713530	-57.244723	75.720	-0.020	-0.040	0.220	75.710	-1.400	0.600																			1580023229.0	0.69	1.28
26/01/2020 07:20:30	26012020	260120	072030	75.620	12.713532	-57.244723	75.610	-0.200	0.130	-0.320	75.590	-1.300	0.100																			1580023230.0	0.71	1.31
26/01/2020 07:20:31	26012020	260120	072031	75.510	12.713535	-57.244725	75.480	-0.290	0.230	-0.800	75.490	-1.100	-0.400																			1580023231.0	0.66	1.22
26/01/2020 07:20:32	26012020	260120	072032	75.420	12.713537	-57.244727	75.390	-0.220	0.090	-1.050	75.410	-1.300	-0.700																			1580023232.0	0.44	0.81
26/01/2020 07:20:33	26012020	260120	072033	75.380	12.713538	-57.244725	75.380	-0.040	-0.290	-1.000	75.390	-1.600	-0.600																			1580023233.0	0.22	0.41
26/01/2020 07:20:34	26012020	260120	072034	75.460	12.713537	-57.244723	75.460	0.130	-0.620	-0.790	75.490	-2.000	-0.400																			1580023234.0	0.44	0.81
26/01/2020 07:20:35	26012020	260120	072035	75.540	12.713537	-57.244722	75.530	0.170	-0.550	-0.450	75.540	-1.900	-0.100																			1580023235.0	0.41	0.76
26/01/2020 07:20:36	26012020	260120	072036	75.440	12.713535	-57.244722	75.420	0.090	-0.070	0.080	75.410	-1.500	0.400																			1580023236.0	0.43	0.80
26/01/2020 07:20:37	26012020	260120	072037	75.250	12.713532	-57.244723	75.240	-0.020	0.410	0.680	75.210	-1.000	1.000																			1580023237.0	0.72	1.33
26/01/2020 07:20:38	26012020	260120	072038	75.110	12.713528	-57.244725	75.140	-0.060	0.470	1.180	75.100	-0.900	1.500																			1580023238.0	0.68	1.26
26/01/2020 07:20:39	26012020	260120	072039	75.110	12.713527	-57.244723	75.170	0.000	0.090	1.400	75.130	-1.200	1.800																			1580023239.0	0.36	0.67
26/01/2020 07:20:40	26012020	260120	072040	75.220	12.713527	-57.244722	75.270	0.130	-0.360	1.370	75.230	-1.700	1.700																			1580023240.0	0.40	0.74
26/01/2020 07:20:41	26012020	260120	072041	75.260	12.713528	-57.244720	75.280	0.190	-0.500	1.250	75.260	-1.900	1.600																			1580023241.0	0.38	0.70
26/01/2020 07:20:42	26012020	260120	072042	75.140	12.713530	-57.244720	75.110	0.100	-0.300	1.130	75.090	-1.700	1.500																			1580023242.0	0.21	0.39
26/01/2020 07:20:43	26012020	260120	072043	74.870	12.713530	-57.244722	74.840	-0.070	-0.110	0.960	74.810	-1.500	1.400																			1580023243.0	0.33	0.61
26/01/2020 07:20:44	26012020	260120	072044	74.630	12.713532	-57.244723	74.620	-0.200	-0.130	0.700	74.600	-1.500	1.100																			1580023244.0	0.26	0.48
26/01/2020 07:20:45	26012020	260120	072045	74.520	12.713533	-57.244723	74.520	-0.220	-0.230	0.370	74.500	-1.600	0.800																			1580023245.0	0.34	0.63
26/01/2020 07:20:46	26012020	260120	072046	74.500	12.713535	-57.244722	74.530	-0.170	-0.180	0.020	74.510	-1.500	0.400																			1580023246.0	0.36	0.67
26/01/2020 07:20:47	26012020	260120	072047	74.570	12.713535	-57.244722	74.590	-0.070	-0.060	-0.320	74.590	-1.400	0.100																			1580023247.0	0.30	0.56
26/01/2020 07:20:48	26012020	260120	072048	74.670	12.713537	-57.244723	74.670	0.060	-0.020	-0.640	74.690	-1.400	-0.200																			1580023248.0	0.35	0.65
26/01/2020 07:20:49	26012020	260120	072049	74.700	12.713540	-57.244723	74.670	0.190	-0.020	-0.780	74.690	-1.400	-0.400																			1580023249.0	0.43	0.80
26/01/2020 07:20:50	26012020	260120	072050	74.610	12.713540	-57.244723	74.560	0.250	0.030	-0.600	74.580	-1.300	-0.300																			1580023250.0	0.31	0.57
26/01/2020 07:20:51	26012020	260120	072051	74.430	12.713540	-57.244723	74.390	0.200	0.120	-0.070	74.380	-1.200	0.200																			1580023251.0	0.09	0.17
26/01/2020 07:20:52	26012020	260120	072052	74.240	12.713538	-57.244723	74.230	0.060	0.040	0.640	74.210	-1.300	1.000																			1580023252.0	0.41	0.76
26/01/2020 07:20:53	26012020	260120	072053	74.190	12.713537	-57.244723	74.210	-0.070	-0.220	1.210	74.190	-1.500	1.500																			1580023253.0	0.53	0.98
26/01/2020 07:20:54	26012020	260120	072054	74.230	12.713535	-57.244722	74.260	-0.110	-0.430	1.490	74.240	-1.800	1.800																			1580023254.0	0.39	0.72
26/01/2020 07:20:55	26012020	260120	072055	74.230	12.713533	-57.244720	74.230	-0.070	-0.380	1.610	74.220	-1.800	2.000																			1580023255.0	0.20	0.37
26/01/2020 07:20:56	26012020	260120	072056	74.140	12.713533	-57.244722	74.140	-0.010	-0.200	1.600	74.120	-1.600	2.000																			1580023256.0	0.19	0.35
26/01/2020 07:20:57	26012020	260120	072057	74.080	12.713533	-57.244722	74.080	0.010	-0.090	1.430	74.080	-1.400	1.800																			1580023257.0	0.16	0.30
26/01/2020 07:20:58	26012020	260120	072058	74.060	12.713533	-57.244722	74.050	-0.080	-0.040	1.080	74.060	-1.400	1.500																			1580023258.0	0.12	0.22
26/01/2020 07:20:59	26012020	260120	072059	74.080	12.713535	-57.244723	74.060	-0.180	0.000	0.490	74.090	-1.400	0.900																			1580023259.0	0.42	0.78
26/01/2020 07:21:00	26012020	260120	072100	74.140	12.713538	-57.244725	74.110	-0.200	0.000	-0.250	74.150	-1.400	0.200	1013.70	25.60	25.60	19.70	19.70	-1.00	69.00	70.00	396.00	25.20	11.00	6.20	87.00	6.00	14	3259.00	27.40	27.40	1580023260.0	0.72	1.33
26/01/2020 07:21:01	26012020	260120	072101	74.210	12.713542	-57.244725	74.180	-0.070	-0.110	-0.930	74.220	-1.500	-0.500																			1580023261.0	0.82	1.52
26/01/2020 07:21:02	26012020	260120	072102	74.210	12.713545	-57.244727	74.150	0.150	-0.270	-1.300	74.200	-1.600	-0.900																			1580023262.0	0.69	1.28
26/01/2020 07:21:03	26012020	260120	072103	74.150	12.713547	-57.244727	74.090	0.350	-0.310	-1.330	74.140	-1.700	-0.900																			1580023263.0	0.47	0.87
26/01/2020 07:21:04	26012020	260120	072104	74.160	12.713548	-57.244727	74.130	0.410	-0.190	-1.170	74.180	-1.600	-0.800																			1580023264.0	0.29	0.54
26/01/2020 07:21:05	26012020	260120	072105	74.260	12.713550	-57.244727	74.280	0.320	0.040	-0.830	74.290	-1.300	-0.500																			1580023265.0	0.24	0.44
26/01/2020 07:21:06	26012020	260120	072106	74.440	12.713548	-57.244728	74.440	0.120	0.200	-0.160	74.470	-1.200	0.200																			1580023266.0	0.23	0.43
26/01/2020 07:21:07	26012020	260120	072107	74.520	12.713545	-57.244727	74.540	-0.150	0.150	0.770	74.530	-1.200	1.100																			1580023267.0	0.70	1.30
26/01/2020 07:21:08	26012020	260120	072108	74.540	12.713540	-57.244727	74.550	-0.440	0.010	1.720	74.530	-1.300	2.000																			1580023268.0	1.16	2.15
26/01/2020 07:21:09	26012020	260120	072109	74.530	12.713535	-57.244725	74.560	-0.630	-0.050	2.420	74.530	-1.400	2.700																			1580023269.0	1.24	2.30
26/01/2020 07:21:10	26012020	260120	072110	74.520	12.713530	-57.244723	74.540	-0.600	-0.120	2.790	74.510	-1.500	3.100																			1580023270.0	0.97	1.80
26/01/2020 07:21:11	26012020	260120	072111	74.460	12.713528	-57.244723	74.460	-0.280	-0.320	2.790	74.440	-1.700	3.200																			1580023271.0	0.55	1.02
26/01/2020 07:21:12	26012020	260120	072112	74.400	12.713528	-57.244723	74.410	0.180	-0.580	2.320	74.400	-1.900	2.800																			1580023272.0	0.22	0.41
26/01/2020 07:21:13	26012020	260120	072113	74.450	12.713532	-57.244722	74.460	0.530	-0.640	1.310	74.480	-2.000	1.800																			1580023273.0	0.72	1.33
26/01/2020 07:21:14	26012020	260120	072114	74.560	12.713538	-57.244723	74.540	0.610	-0.380	0.030	74.580	-1.800	0.500																			1580023274.0	1.46	2.70
26/01/2020 07:21:15	26012020	260120	072115	74.630	12.713545	-57.244727	74.580	0.460	0.010	-1.080	74.640	-1.400	-0.600																			1580023275.0	1.85	3.43
26/01/2020 07:21:16	26012020	260120	072116	74.670	12.713553	-57.244728	74.600	0.240	0.250	-1.720	74.670	-1.100	-1.300																			1580023276.0	1.57	2.91
26/01/2020 07:21:17	26012020	260120	072117	74.690	12.713557	-57.244730	74.620	0.010	0.280	-1.810	74.690	-1.100	-1.400																			1580023277.0	0.85	1.57
26/01/2020 07:21:18	26012020	260120	072118	74.720	12.713557	-57.244730	74.660	-0.230	0.230	-1.440	74.720	-1.100	-1.100																			1580023278.0	0.14	0.26
26/01/2020 07:21:19	26012020	260120	072119	74.760	12.713555	-57.244728	74.720	-0.470	0.190	-0.780	74.760	-1.200	-0.500																			1580023279.0	0.51	0.94
26/01/2020 07:21:20	26012020	260120	072120	74.750	12.713550	-57.244728	74.710	-0.540	0.140	0.130	74.730	-1.200	0.400																			1580023280.0	0.89	1.65
26/01/2020 07:21:21	26012020	260120	072121	74.630	12.713545	-57.244727	74.590	-0.330	-0.040	1.180	74.590	-1.400	1.500																			1580023281.0	1.17	2.17
26/01/2020 07:21:22	26012020	260120	072122	74.440	12.713540	-57.244725	74.420	0.090	-0.430	2.070	74.410	-1.800	2.400																			1580023282.0	1.20	2.22
26/01/2020 07:21:23	26012020	260120	072123	74.300	12.713537	-57.244723	74.300	0.440	-0.820	2.500	74.280	-2.200	2.900																			1580023283.0	0.86	1.59
26/01/2020 07:21:24	26012020	260120	072124	74.250	12.713537	-57.244720	74.260	0.500	-0.880	2.330	74.250	-2.300	2.700																			1580023284.0	0.38	0.70
26/01/2020 07:21:25	26012020	260120	072125	74.270	12.713540	-57.244722	74.280	0.260	-0.500	1.740	74.280	-1.900	2.200																			1580023285.0	0.63	1.17
26/01/2020 07:21:26	26012020	260120	072126	74.290	12.713543	-57.244723	74.270	-0.100	0.120	1.020	74.290	-1.300	1.500																			1580023286.0	0.92	1.70
26/01/2020 07:21:27	26012020	260120	072127	74.250	12.713547	-57.244727	74.200	-0.380	0.610	0.270	74.240	-0.800	0.700																			1580023287.0	0.89	1.65
26/01/2020 07:21:28	26012020	260120	072128	74.210	12.713550	-57.244728	74.160	-0.480	0.680	-0.570	74.210	-0.700	-0.100																			1580023288.0	0.76	1.41
26/01/2020 07:21:29	26012020	260120	072129	74.250	12.713553	-57.244730	74.200	-0.400	0.320	-1.410	74.270	-1.000	-1.000																			1580023289.0	0.77	1.43
26/01/2020 07:21:30	26012020	260120	072130	74.360	12.713557	-57.244730	74.310	-0.160	-0.280	-2.030	74.390	-1.600	-1.600																			1580023290.0	0.82	1.52
26/01/2020 07:21:31	26012020	260120	072131	74.470	12.713560	-57.244728	74.380	0.190	-0.750	-2.260	74.480	-2.100	-1.900																			1580023291.0	0.71	1.31
26/01/2020 07:21:32	26012020	260120	072132	74.440	12.713560	-57.244727	74.340	0.490	-0.730	-2.010	74.420	-2.100	-1.700																			1580023292.0	0.34	0.63
26/01/2020 07:21:33	26012020	260120	072133	74.310	12.713560	-57.244728	74.210	0.540	-0.280	-1.320	74.280	-1.700	-1.000																			1580023293.0	0.30	0.56
26/01/2020 07:21:34	26012020	260120	072134	74.220	12.713557	-57.244730	74.170	0.280	0.180	-0.370	74.210	-1.200	-0.100																			1580023294.0	0.78	1.44
26/01/2020 07:21:35	26012020	260120	072135	74.250	12.713552	-57.244730	74.250	-0.060	0.280	0.640	74.260	-1.100	0.900																			1580023295.0	0.91	1.69
26/01/2020 07:21:36	26012020	260120	072136	74.320	12.713548	-57.244730	74.330	-0.240	0.020	1.600	74.320	-1.300	1.900																			1580023296.0	0.96	1.78
26/01/2020 07:21:37	26012020	260120	072137	74.330	12.713543	-57.244727	74.340	-0.220	-0.280	2.390	74.320	-1.600	2.700																			1580023297.0	1.12	2.07
26/01/2020 07:21:38	26012020	260120	072138	74.270	12.713538	-57.244725	74.290	-0.160	-0.370	2.860	74.260	-1.700	3.200																			1580023298.0	1.08	2.00
26/01/2020 07:21:39	26012020	260120	072139	74.220	12.713535	-57.244723	74.260	-0.160	-0.240	2.850	74.220	-1.600	3.200																			1580023299.0	0.70	1.30
26/01/2020 07:21:40	26012020	260120	072140	74.310	12.713535	-57.244725	74.360	-0.180	-0.020	2.200	74.340	-1.400	2.700																			1580023300.0	0.25	0.46
26/01/2020 07:21:41	26012020	260120	072141	74.530	12.713537	-57.244727	74.550	-0.100	0.100	1.070	74.570	-1.300	1.600																			1580023301.0	0.68	1.26
26/01/2020 07:21:42	26012020	260120	072142	74.660	12.713542	-57.244730	74.620	0.070	0.040	-0.200	74.660	-1.300	0.300																			1580023302.0	1.21	2.24
26/01/2020 07:21:43	26012020	260120	072143	74.610	12.713548	-57.244732	74.530	0.250	-0.150	-1.340	74.590	-1.500	-0.900																			1580023303.0	1.45	2.69
26/01/2020 07:21:44	26012020	260120	072144	74.490	12.713555	-57.244732	74.390	0.340	-0.310	-2.120	74.470	-1.700	-1.700																			1580023304.0	1.37	2.54
26/01/2020 07:21:45	26012020	260120	072145	74.410	12.713560	-57.244733	74.310	0.290	-0.310	-2.360	74.400	-1.700	-2.000																			1580023305.0	0.92	1.70
26/01/2020 07:21:46	26012020	260120	072146	74.420	12.713560	-57.244733	74.360	0.100	-0.140	-2.110	74.440	-1.500	-1.800																			1580023306.0	0.32	0.59
26/01/2020 07:21:47	26012020	260120	072147	74.550	12.713558	-57.244735	74.520	-0.140	0.120	-1.450	74.580	-1.300	-1.100																			1580023307.0	0.41	0.76
26/01/2020 07:21:48	26012020	260120	072148	74.700	12.713555	-57.244735	74.680	-0.300	0.220	-0.420	74.720	-1.100	-0.200																			1580023308.0	0.91	1.69
26/01/2020 07:21:49	26012020	260120	072149	74.740	12.713548	-57.244735	74.720	-0.280	0.050	0.890	74.730	-1.300	1.100																			1580023309.0	1.40	2.59
26/01/2020 07:21:50	26012020	260120	072150	74.630	12.713540	-57.244732	74.610	-0.140	-0.220	2.240	74.590	-1.600	2.500																			1580023310.0	1.81	3.35
26/01/2020 07:21:51	26012020	260120	072151	74.440	12.713533	-57.244728	74.440	0.010	-0.420	3.210	74.400	-1.800	3.500																			1580023311.0	1.73	3.20
26/01/2020 07:21:52	26012020	260120	072152	74.290	12.713528	-57.244727	74.320	0.100	-0.500	3.490	74.270	-1.900	3.900																			1580023312.0	1.04	1.93
26/01/2020 07:21:53	26012020	260120	072153	74.270	12.713528	-57.244727	74.320	0.150	-0.400	2.990	74.290	-1.800	3.400																			1580023313.0	0.04	0.07
26/01/2020 07:21:54	26012020	260120	072154	74.390	12.713532	-57.244728	74.430	0.160	-0.170	1.950	74.420	-1.600	2.400																			1580023314.0	0.83	1.54
26/01/2020 07:21:55	26012020	260120	072155	74.550	12.713537	-57.244732	74.560	0.140	0.080	0.650	74.580	-1.300	1.100																			1580023315.0	1.35	2.50
26/01/2020 07:21:56	26012020	260120	072156	74.630	12.713543	-57.244735	74.580	0.040	0.210	-0.600	74.630	-1.200	-0.100																			1580023316.0	1.49	2.76
26/01/2020 07:21:57	26012020	260120	072157	74.560	12.713550	-57.244737	74.430	-0.090	0.200	-1.520	74.530	-1.200	-1.100																			1580023317.0	1.27	2.35
26/01/2020 07:21:58	26012020	260120	072158	74.300	12.713553	-57.244738	74.170	-0.160	0.050	-1.940	74.240	-1.300	-1.500																			1580023318.0	0.76	1.41
26/01/2020 07:21:59	26012020	260120	072159	74.050	12.713553	-57.244738	73.950	-0.100	-0.140	-1.910	74.030	-1.500	-1.500																			1580023319.0	0.22	0.41
26/01/2020 07:22:00	26012020	260120	072200	73.990	12.713553	-57.244738	73.920	0.040	-0.300	-1.630	74.000	-1.700	-1.300	1013.70	25.60	25.60	19.80	19.90	-1.00	70.00	70.00	395.00	25.20	13.00	5.50	89.00	5.10	14	3371.00	27.40	27.40	1580023320.0	0.10	0.19
26/01/2020 07:22:01	26012020	260120	072201	74.100	12.713552	-57.244738	74.060	0.160	-0.340	-1.190	74.130	-1.700	-0.900																			1580023321.0	0.19	0.35
26/01/2020 07:22:02	26012020	260120	072202	74.180	12.713550	-57.244738	74.140	0.210	-0.250	-0.450	74.180	-1.600	-0.200																			1580023322.0	0.37	0.69
26/01/2020 07:22:03	26012020	260120	072203	74.130	12.713547	-57.244738	74.080	0.170	-0.090	0.550	74.100	-1.500	0.800																			1580023323.0	0.77	1.43
26/01/2020 07:22:04	26012020	260120	072204	73.980	12.713542	-57.244738	73.950	0.020	0.040	1.610	73.940	-1.300	1.900																			1580023324.0	1.17	2.17
26/01/2020 07:22:05	26012020	260120	072205	73.800	12.713537	-57.244737	73.780	-0.210	0.070	2.510	73.760	-1.300	2.800																			1580023325.0	1.27	2.35
26/01/2020 07:22:06	26012020	260120	072206	73.700	12.713532	-57.244737	73.720	-0.360	-0.080	2.950	73.700	-1.400	3.300																			1580023326.0	1.01	1.87
26/01/2020 07:22:07	26012020	260120	072207	73.730	12.713528	-57.244735	73.760	-0.290	-0.360	2.810	73.740	-1.700	3.200																			1580023327.0	0.52	0.96
26/01/2020 07:22:08	26012020	260120	072208	73.760	12.713530	-57.244733	73.760	-0.040	-0.540	2.190	73.750	-1.900	2.600																			1580023328.0	0.23	0.43
26/01/2020 07:22:09	26012020	260120	072209	73.720	12.713532	-57.244733	73.690	0.200	-0.420	1.250	73.720	-1.800	1.700																			1580023329.0	0.53	0.98
26/01/2020 07:22:10	26012020	260120	072210	73.700	12.713537	-57.244737	73.640	0.260	-0.010	0.110	73.700	-1.400	0.600																			1580023330.0	0.97	1.80
26/01/2020 07:22:11	26012020	260120	072211	73.700	12.713542	-57.244740	73.620	0.140	0.410	-1.050	73.700	-1.000	-0.600																			1580023331.0	1.38	2.56
26/01/2020 07:22:12	26012020	260120	072212	73.710	12.713547	-57.244743	73.610	0.010	0.490	-1.980	73.710	-0.900	-1.500																			1580023332.0	1.50	2.78
26/01/2020 07:22:13	26012020	260120	072213	73.730	12.713553	-57.244745	73.620	0.030	0.100	-2.470	73.740	-1.200	-2.100																			1580023333.0	1.24	2.30
26/01/2020 07:22:14	26012020	260120	072214	73.830	12.713557	-57.244745	73.740	0.150	-0.440	-2.450	73.860	-1.800	-2.100																			1580023334.0	0.82	1.52
26/01/2020 07:22:15	26012020	260120	072215	73.980	12.713557	-57.244743	73.910	0.200	-0.660	-1.860	74.020	-2.000	-1.600																			1580023335.0	0.42	0.78
26/01/2020 07:22:16	26012020	260120	072216	74.120	12.713553	-57.244742	74.080	0.060	-0.400	-0.700	74.140	-1.800	-0.500																			1580023336.0	0.79	1.46
26/01/2020 07:22:17	26012020	260120	072217	74.200	12.713545	-57.244742	74.170	-0.210	0.010	0.830	74.200	-1.400	1.000																			1580023337.0	1.66	3.07
26/01/2020 07:22:18	26012020	260120	072218	74.160	12.713535	-57.244742	74.150	-0.400	0.250	2.390	74.150	-1.100	2.600																			1580023338.0	2.13	3.94
26/01/2020 07:22:19	26012020	260120	072219	74.080	12.713527	-57.244740	74.100	-0.380	0.170	3.550	74.060	-1.200	3.800																			1580023339.0	2.00	3.70
26/01/2020 07:22:20	26012020	260120	072220	74.070	12.713522	-57.244738	74.130	-0.150	-0.180	3.960	74.080	-1.500	4.300																			1580023340.0	1.31	2.43
26/01/2020 07:22:21	26012020	260120	072221	74.130	12.713520	-57.244735	74.180	0.160	-0.530	3.620	74.130	-1.900	4.000																			1580023341.0	0.50	0.93
26/01/2020 07:22:22	26012020	260120	072222	74.110	12.713523	-57.244735	74.140	0.370	-0.560	2.680	74.100	-1.900	3.100																			1580023342.0	0.64	1.19
26/01/2020 07:22:23	26012020	260120	072223	74.090	12.713528	-57.244737	74.080	0.390	-0.280	1.290	74.090	-1.700	1.800																			1580023343.0	1.41	2.61
26/01/2020 07:22:24	26012020	260120	072224	74.130	12.713537	-57.244742	74.100	0.250	0.090	-0.270	74.150	-1.300	0.200																			1580023344.0	1.94	3.59
26/01/2020 07:22:25	26012020	260120	072225	74.220	12.713545	-57.244745	74.150	0.040	0.300	-1.610	74.240	-1.100	-1.100																			1580023345.0	1.97	3.65
26/01/2020 07:22:26	26012020	260120	072226	74.300	12.713552	-57.244748	74.230	-0.200	0.240	-2.460	74.320	-1.100	-2.000																			1580023346.0	1.51	2.80
26/01/2020 07:22:27	26012020	260120	072227	74.420	12.713555	-57.244748	74.340	-0.390	-0.000	-2.730	74.440	-1.400	-2.400																			1580023347.0	0.82	1.52
26/01/2020 07:22:28	26012020	260120	072228	74.560	12.713557	-57.244748	74.490	-0.460	-0.180	-2.390	74.580	-1.500	-2.100																			1580023348.0	0.10	0.19
26/01/2020 07:22:29	26012020	260120	072229	74.640	12.713552	-57.244747	74.570	-0.320	-0.220	-1.420	74.640	-1.600	-1.200																			1580023349.0	0.83	1.54
26/01/2020 07:22:30	26012020	260120	072230	74.620	12.713545	-57.244747	74.580	-0.010	-0.210	-0.090	74.610	-1.600	0.100																			1580023350.0	1.47	2.72
26/01/2020 07:22:31	26012020	260120	072231	74.560	12.713538	-57.244745	74.520	0.310	-0.300	1.200	74.540	-1.700	1.500																			1580023351.0	1.65	3.06
26/01/2020 07:22:32	26012020	260120	072232	74.440	12.713532	-57.244743	74.420	0.470	-0.390	2.170	74.420	-1.800	2.500																			1580023352.0	1.29	2.39
26/01/2020 07:22:33	26012020	260120	072233	74.390	12.713528	-57.244742	74.410	0.400	-0.350	2.680	74.400	-1.700	3.000																			1580023353.0	0.65	1.20
26/01/2020 07:22:34	26012020	260120	072234	74.540	12.713528	-57.244742	74.610	0.240	-0.210	2.740	74.590	-1.600	3.100																			1580023354.0	0.14	0.26
26/01/2020 07:22:35	26012020	260120	072235	74.780	12.713530	-57.244743	74.830	0.070	-0.060	2.350	74.830	-1.400	2.800																			1580023355.0	0.35	0.65
26/01/2020 07:22:36	26012020	260120	072236	74.950	12.713532	-57.244745	74.960	-0.110	0.090	1.590	74.970	-1.300	2.000																			1580023356.0	0.63	1.17
26/01/2020 07:22:37	26012020	260120	072237	75.030	12.713535	-57.244747	75.010	-0.320	0.270	0.670	75.040	-1.100	1.100																			1580023357.0	0.80	1.48
26/01/2020 07:22:38	26012020	260120	072238	75.110	12.713538	-57.244748	75.080	-0.500	0.390	-0.150	75.130	-1.000	0.300																			1580023358.0	0.76	1.41
26/01/2020 07:22:39	26012020	260120	072239	75.200	12.713540	-57.244750	75.160	-0.520	0.250	-0.790	75.220	-1.100	-0.400																			1580023359.0	0.59	1.09
26/01/2020 07:22:40	26012020	260120	072240	75.330	12.713543	-57.244752	75.290	-0.310	-0.200	-1.360	75.370	-1.500	-0.900																			1580023360.0	0.47	0.87
26/01/2020 07:22:41	26012020	260120	072241	75.540	12.713545	-57.244750	75.490	0.060	-0.710	-1.820	75.590	-2.000	-1.400																			1580023361.0	0.66	1.22
26/01/2020 07:22:42	26012020	260120	072242	75.720	12.713548	-57.244750	75.660	0.380	-0.860	-1.860	75.740	-2.200	-1.500																			1580023362.0	0.62	1.15
26/01/2020 07:22:43	26012020	260120	072243	75.760	12.713548	-57.244750	75.700	0.480	-0.500	-1.320	75.760	-1.900	-1.000																			1580023363.0	0.08	0.15
26/01/2020 07:22:44	26012020	260120	072244	75.750	12.713547	-57.244750	75.720	0.340	0.110	-0.380	75.750	-1.300	-0.100																			1580023364.0	0.63	1.17
26/01/2020 07:22:45	26012020	260120	072245	75.780	12.713542	-57.244752	75.770	0.080	0.500	0.680	75.800	-0.900	1.000																			1580023365.0	0.99	1.83
26/01/2020 07:22:46	26012020	260120	072246	75.840	12.713537	-57.244752	75.860	-0.120	0.380	1.600	75.860	-1.000	1.900																			1580023366.0	1.03	1.91
26/01/2020 07:22:47	26012020	260120	072247	75.880	12.713533	-57.244748	75.920	-0.160	-0.070	2.290	75.890	-1.400	2.600																			1580023367.0	1.04	1.93
26/01/2020 07:22:48	26012020	260120	072248	75.890	12.713530	-57.244745	75.930	-0.060	-0.400	2.690	75.890	-1.800	3.000																			1580023368.0	0.94	1.74
26/01/2020 07:22:49	26012020	260120	072249	75.880	12.713528	-57.244743	75.910	0.050	-0.440	2.710	75.880	-1.800	3.100																			1580023369.0	0.56	1.04
26/01/2020 07:22:50	26012020	260120	072250	75.890	12.713528	-57.244743	75.930	0.090	-0.250	2.190	75.900	-1.600	2.600																			1580023370.0	0.00	0.00
26/01/2020 07:22:51	26012020	260120	072251	75.930	12.713530	-57.244745	75.930	0.020	-0.000	1.240	75.940	-1.400	1.700																			1580023371.0	0.65	1.20
26/01/2020 07:22:52	26012020	260120	072252	75.930	12.713535	-57.244747	75.890	-0.080	0.170	0.210	75.910	-1.200	0.700																			1580023372.0	1.12	2.07
26/01/2020 07:22:53	26012020	260120	072253	75.830	12.713540	-57.244748	75.760	-0.130	0.190	-0.720	75.810	-1.200	-0.300																			1580023373.0	1.20	2.22
26/01/2020 07:22:54	26012020	260120	072254	75.660	12.713545	-57.244750	75.570	-0.120	0.010	-1.450	75.620	-1.300	-1.000																			1580023374.0	1.08	2.00
26/01/2020 07:22:55	26012020	260120	072255	75.490	12.713550	-57.244750	75.410	-0.090	-0.270	-1.900	75.480	-1.600	-1.500																			1580023375.0	0.91	1.69
26/01/2020 07:22:56	26012020	260120	072256	75.430	12.713553	-57.244750	75.350	-0.060	-0.460	-1.920	75.420	-1.800	-1.600																			1580023376.0	0.58	1.07
26/01/2020 07:22:57	26012020	260120	072257	75.390	12.713553	-57.244748	75.320	-0.030	-0.470	-1.460	75.380	-1.800	-1.100																			1580023377.0	0.14	0.26
26/01/2020 07:22:58	26012020	260120	072258	75.380	12.713550	-57.244748	75.350	0.000	-0.330	-0.720	75.390	-1.700	-0.400																			1580023378.0	0.57	1.06
26/01/2020 07:22:59	26012020	260120	072259	75.420	12.713545	-57.244748	75.400	0.030	-0.070	0.220	75.420	-1.500	0.500																			1580023379.0	0.98	1.81
26/01/2020 07:23:00	26012020	260120	072300	75.380	12.713540	-57.244747	75.360	0.040	0.170	1.200	75.360	-1.200	1.500	1013.70	25.60	25.60	19.90	19.90	-1.00	71.00	70.00	394.00	25.20	19.00	5.20	95.00	4.80	14	3322.00	27.40	27.40	1580023380.0	1.28	2.37
26/01/2020 07:23:01	26012020	260120	072301	75.270	12.713535	-57.244747	75.250	0.060	0.230	1.900	75.250	-1.100	2.200																			1580023381.0	1.16	2.15
26/01/2020 07:23:02	26012020	260120	072302	75.190	12.713532	-57.244745	75.190	0.170	0.070	2.090	75.190	-1.300	2.500																			1580023382.0	0.61	1.13
26/01/2020 07:23:03	26012020	260120	072303	75.200	12.713532	-57.244743	75.200	0.340	-0.210	1.830	75.210	-1.600	2.200																			1580023383.0	0.22	0.41
26/01/2020 07:23:04	26012020	260120	072304	75.220	12.713535	-57.244743	75.200	0.440	-0.440	1.330	75.220	-1.800	1.800																			1580023384.0	0.58	1.07
26/01/2020 07:23:05	26012020	260120	072305	75.190	12.713538	-57.244743	75.150	0.320	-0.420	0.680	75.170	-1.800	1.100																			1580023385.0	0.83	1.54
26/01/2020 07:23:06	26012020	260120	072306	75.100	12.713543	-57.244745	75.040	-0.020	-0.140	-0.020	75.090	-1.500	0.400																			1580023386.0	0.94	1.74
26/01/2020 07:23:07	26012020	260120	072307	74.990	12.713547	-57.244747	74.930	-0.410	0.150	-0.590	74.970	-1.200	-0.200																			1580023387.0	0.84	1.56
26/01/2020 07:23:08	26012020	260120	072308	74.890	12.713548	-57.244748	74.830	-0.670	0.270	-0.960	74.880	-1.100	-0.600																			1580023388.0	0.47	0.87
26/01/2020 07:23:09	26012020	260120	072309	74.880	12.713548	-57.244748	74.830	-0.690	0.190	-1.140	74.890	-1.200	-0.800																			1580023389.0	0.06	0.11
26/01/2020 07:23:10	26012020	260120	072310	75.020	12.713547	-57.244748	75.000	-0.460	-0.040	-1.190	75.060	-1.400	-0.800																			1580023390.0	0.19	0.35
26/01/2020 07:23:11	26012020	260120	072311	75.260	12.713547	-57.244747	75.250	-0.040	-0.270	-1.050	75.300	-1.600	-0.700																			1580023391.0	0.30	0.56
26/01/2020 07:23:12	26012020	260120	072312	75.370	12.713543	-57.244747	75.330	0.410	-0.400	-0.580	75.370	-1.800	-0.300																			1580023392.0	0.46	0.85
26/01/2020 07:23:13	26012020	260120	072313	75.270	12.713542	-57.244745	75.210	0.680	-0.420	0.050	75.230	-1.800	0.400																			1580023393.0	0.57	1.06
26/01/2020 07:23:14	26012020	260120	072314	75.060	12.713540	-57.244745	75.000	0.640	-0.360	0.700	75.020	-1.700	1.000																			1580023394.0	0.45	0.83
26/01/2020 07:23:15	26012020	260120	072315	74.810	12.713538	-57.244745	74.770	0.410	-0.260	1.390	74.770	-1.600	1.700																			1580023395.0	0.32	0.59
26/01/2020 07:23:16	26012020	260120	072316	74.600	12.713537	-57.244743	74.590	0.150	-0.130	2.020	74.570	-1.500	2.300																			1580023396.0	0.38	0.70
26/01/2020 07:23:17	26012020	260120	072317	74.540	12.713535	-57.244743	74.560	-0.080	-0.000	2.270	74.540	-1.400	2.600																			1580023397.0	0.44	0.81
26/01/2020 07:23:18	26012020	260120	072318	74.600	12.713533	-57.244742	74.630	-0.310	0.110	2.080	74.620	-1.300	2.500																			1580023398.0	0.33	0.61
26/01/2020 07:23:19	26012020	260120	072319	74.670	12.713533	-57.244742	74.690	-0.480	0.200	1.640	74.690	-1.200	2.000																			1580023399.0	0.13	0.24
26/01/2020 07:23:20	26012020	260120	072320	74.760	12.713533	-57.244742	74.750	-0.480	0.230	1.020	74.770	-1.100	1.500																			1580023400.0	0.08	0.15
26/01/2020 07:23:21	26012020	260120	072321	74.830	12.713535	-57.244743	74.790	-0.260	0.140	0.250	74.830	-1.200	0.700																			1580023401.0	0.40	0.74
26/01/2020 07:23:22	26012020	260120	072322	74.780	12.713538	-57.244743	74.720	0.080	-0.080	-0.530	74.760	-1.400	-0.100																			1580023402.0	0.75	1.39
26/01/2020 07:23:23	26012020	260120	072323	74.630	12.713543	-57.244745	74.530	0.360	-0.340	-1.130	74.590	-1.700	-0.700																			1580023403.0	0.97	1.80
26/01/2020 07:23:24	26012020	260120	072324	74.450	12.713547	-57.244745	74.350	0.440	-0.520	-1.410	74.420	-1.900	-1.000																			1580023404.0	0.93	1.72
26/01/2020 07:23:25	26012020	260120	072325	74.320	12.713550	-57.244745	74.190	0.300	-0.520	-1.310	74.280	-1.900	-1.000																			1580023405.0	0.63	1.17
26/01/2020 07:23:26	26012020	260120	072326	74.090	12.713550	-57.244745	74.000	0.020	-0.260	-0.820	74.050	-1.600	-0.500																			1580023406.0	0.09	0.17
26/01/2020 07:23:27	26012020	260120	072327	73.920	12.713548	-57.244747	73.860	-0.250	0.070	-0.080	73.900	-1.300	0.200																			1580023407.0	0.57	1.06
26/01/2020 07:23:28	26012020	260120	072328	73.860	12.713543	-57.244745	73.830	-0.370	0.180	0.730	73.860	-1.200	1.000																			1580023408.0	0.99	1.83
26/01/2020 07:23:29	26012020	260120	072329	73.890	12.713538	-57.244743	73.880	-0.310	0.030	1.430	73.910	-1.300	1.700																			1580023409.0	1.22	2.26
26/01/2020 07:23:30	26012020	260120	072330	73.950	12.713533	-57.244742	73.940	-0.140	-0.180	1.860	73.950	-1.500	2.200																			1580023410.0	1.17	2.17
26/01/2020 07:23:31	26012020	260120	072331	73.860	12.713530	-57.244740	73.810	0.060	-0.250	2.000	73.820	-1.600	2.400																			1580023411.0	0.74	1.37
26/01/2020 07:23:32	26012020	260120	072332	73.630	12.713530	-57.244738	73.550	0.250	-0.200	1.820	73.570	-1.600	2.200																			1580023412.0	0.13	0.24
26/01/2020 07:23:33	26012020	260120	072333	73.410	12.713532	-57.244740	73.340	0.430	-0.180	1.270	73.380	-1.500	1.700																			1580023413.0	0.56	1.04
26/01/2020 07:23:34	26012020	260120	072334	73.340	12.713537	-57.244740	73.280	0.520	-0.230	0.440	73.350	-1.600	0.900																			1580023414.0	1.11	2.06
26/01/2020 07:23:35	26012020	260120	072335	73.430	12.713543	-57.244742	73.370	0.410	-0.190	-0.470	73.460	-1.600	-0.000																			1580023415.0	1.38	2.56
26/01/2020 07:23:36	26012020	260120	072336	73.600	12.713548	-57.244743	73.540	0.050	0.090	-1.150	73.640	-1.300	-0.700																			1580023416.0	1.16	2.15
26/01/2020 07:23:37	26012020	260120	072337	73.720	12.713550	-57.244745	73.660	-0.400	0.430	-1.390	73.740	-1.000	-1.000																			1580023417.0	0.61	1.13
26/01/2020 07:23:38	26012020	260120	072338	73.760	12.713550	-57.244747	73.670	-0.680	0.430	-1.160	73.760	-0.900	-0.800																			1580023418.0	0.37	0.69
26/01/2020 07:23:39	26012020	260120	072339	73.710	12.713547	-57.244745	73.610	-0.630	0.000	-0.580	73.700	-1.300	-0.300																			1580023419.0	0.65	1.20
26/01/2020 07:23:40	26012020	260120	072340	73.630	12.713543	-57.244742	73.570	-0.290	-0.580	0.160	73.620	-1.900	0.500																			1580023420.0	1.06	1.96
26/01/2020 07:23:41	26012020	260120	072341	73.590	12.713538	-57.244738	73.540	0.090	-0.850	0.860	73.580	-2.200	1.200																			1580023421.0	1.15	2.13
26/01/2020 07:23:42	26012020	260120	072342	73.590	12.713535	-57.244737	73.560	0.290	-0.580	1.360	73.590	-2.000	1.700																			1580023422.0	0.84	1.56
26/01/2020 07:23:43	26012020	260120	072343	73.620	12.713533	-57.244738	73.600	0.300	-0.060	1.580	73.630	-1.500	1.900																			1580023423.0	0.53	0.98
26/01/2020 07:23:44	26012020	260120	072344	73.650	12.713532	-57.244740	73.610	0.270	0.240	1.500	73.650	-1.100	1.900																			1580023424.0	0.39	0.72
26/01/2020 07:23:45	26012020	260120	072345	73.670	12.713535	-57.244740	73.640	0.300	0.130	1.120	73.690	-1.200	1.500																			1580023425.0	0.44	0.81
26/01/2020 07:23:46	26012020	260120	072346	73.770	12.713538	-57.244740	73.730	0.340	-0.160	0.560	73.800	-1.500	1.000																			1580023426.0	0.88	1.63
26/01/2020 07:23:47	26012020	260120	072347	73.920	12.713543	-57.244738	73.880	0.260	-0.280	0.030	73.950	-1.600	0.400																			1580023427.0	0.97	1.80
26/01/2020 07:23:48	26012020	260120	072348	74.080	12.713547	-57.244738	74.050	-0.010	-0.180	-0.310	74.120	-1.600	0.100																			1580023428.0	0.71	1.31
26/01/2020 07:23:49	26012020	260120	072349	74.270	12.713547	-57.244740	74.240	-0.330	-0.010	-0.400	74.310	-1.400	-0.000																			1580023429.0	0.30	0.56
26/01/2020 07:23:50	26012020	260120	072350	74.380	12.713545	-57.244740	74.330	-0.510	0.140	-0.130	74.380	-1.200	0.200																			1580023430.0	0.34	0.63
26/01/2020 07:23:51	26012020	260120	072351	74.280	12.713542	-57.244738	74.190	-0.500	0.260	0.410	74.240	-1.100	0.700																			1580023431.0	0.96	1.78
26/01/2020 07:23:52	26012020	260120	072352	74.040	12.713537	-57.244738	73.960	-0.380	0.240	0.900	73.990	-1.100	1.200																			1580023432.0	1.06	1.96
26/01/2020 07:23:53	26012020	260120	072353	73.900	12.713533	-57.244738	73.870	-0.160	-0.040	1.080	73.900	-1.400	1.400																			1580023433.0	0.56	1.04
26/01/2020 07:23:54	26012020	260120	072354	74.000	12.713535	-57.244737	74.000	0.150	-0.490	0.870	74.050	-1.800	1.300																			1580023434.0	0.29	0.54
26/01/2020 07:23:55	26012020	260120	072355	74.240	12.713538	-57.244737	74.230	0.470	-0.760	0.430	74.290	-2.100	0.900																			1580023435.0	0.84	1.56
26/01/2020 07:23:56	26012020	260120	072356	74.430	12.713543	-57.244737	74.380	0.620	-0.600	0.040	74.440	-2.000	0.400																			1580023436.0	0.97	1.80
26/01/2020 07:23:57	26012020	260120	072357	74.430	12.713547	-57.244738	74.340	0.460	-0.150	0.000	74.410	-1.600	0.400																			1580023437.0	0.69	1.28
26/01/2020 07:23:58	26012020	260120	072358	74.280	12.713547	-57.244740	74.200	0.100	0.160	0.330	74.260	-1.200	0.700																			1580023438.0	0.35	0.65
26/01/2020 07:23:59	26012020	260120	072359	74.150	12.713543	-57.244740	74.090	-0.220	0.130	0.820	74.140	-1.200	1.100																			1580023439.0	0.43	0.80
26/01/2020 07:24:00	26012020	260120	072400	74.070	12.713542	-57.244738	74.030	-0.340	-0.130	1.180	74.060	-1.500	1.500	1013.70	25.60	25.70	20.20	20.20	-1.00	72.00	71.00	393.00	25.20	17.00	5.30	93.00	5.00	14	3280.00	27.40	27.40	1580023440.0	0.65	1.20
26/01/2020 07:24:01	26012020	260120	072401	74.040	12.713540	-57.244735	74.000	-0.260	-0.290	1.220	74.040	-1.600	1.600																			1580023441.0	0.59	1.09
26/01/2020 07:24:02	26012020	260120	072402	74.080	12.713540	-57.244735	74.050	-0.150	-0.180	0.940	74.090	-1.600	1.300																			1580023442.0	0.22	0.41
26/01/2020 07:24:03	26012020	260120	072403	74.180	12.713542	-57.244735	74.160	-0.130	0.150	0.490	74.210	-1.200	0.900																			1580023443.0	0.32	0.59
26/01/2020 07:24:04	26012020	260120	072404	74.330	12.713543	-57.244738	74.310	-0.120	0.420	0.050	74.370	-1.000	0.500																			1580023444.0	0.66	1.22
26/01/2020 07:24:05	26012020	260120	072405	74.520	12.713545	-57.244740	74.480	-0.040	0.320	-0.340	74.550	-1.000	0.100																			1580023445.0	0.69	1.28
26/01/2020 07:24:06	26012020	260120	072406	74.650	12.713548	-57.244742	74.600	0.090	-0.090	-0.650	74.660	-1.400	-0.200																			1580023446.0	0.65	1.20
26/01/2020 07:24:07	26012020	260120	072407	74.650	12.713550	-57.244740	74.570	0.150	-0.490	-0.720	74.640	-1.800	-0.300																			1580023447.0	0.54	1.00
26/01/2020 07:24:08	26012020	260120	072408	74.540	12.713552	-57.244740	74.460	0.040	-0.590	-0.410	74.520	-1.900	-0.100																			1580023448.0	0.13	0.24
26/01/2020 07:24:09	26012020	260120	072409	74.380	12.713548	-57.244740	74.320	-0.160	-0.430	0.190	74.350	-1.800	0.500																			1580023449.0	0.53	0.98
26/01/2020 07:24:10	26012020	260120	072410	74.260	12.713545	-57.244740	74.220	-0.250	-0.240	0.760	74.250	-1.600	1.100																			1580023450.0	0.79	1.46
26/01/2020 07:24:11	26012020	260120	072411	74.270	12.713542	-57.244740	74.250	-0.090	-0.210	1.040	74.280	-1.600	1.400																			1580023451.0	0.61	1.13
26/01/2020 07:24:12	26012020	260120	072412	74.420	12.713542	-57.244738	74.420	0.220	-0.290	0.980	74.460	-1.600	1.400																			1580023452.0	0.29	0.54
26/01/2020 07:24:13	26012020	260120	072413	74.650	12.713542	-57.244738	74.640	0.430	-0.210	0.720	74.700	-1.600	1.100																			1580023453.0	0.32	0.59
26/01/2020 07:24:14	26012020	260120	072414	74.830	12.713545	-57.244738	74.800	0.340	0.110	0.420	74.850	-1.300	0.800																			1580023454.0	0.39	0.72
26/01/2020 07:24:15	26012020	260120	072415	74.890	12.713547	-57.244740	74.850	0.080	0.390	0.210	74.900	-1.000	0.600																			1580023455.0	0.51	0.94
26/01/2020 07:24:16	26012020	260120	072416	74.930	12.713548	-57.244740	74.870	-0.120	0.390	0.070	74.930	-1.000	0.500																			1580023456.0	0.43	0.80
26/01/2020 07:24:17	26012020	260120	072417	74.940	12.713548	-57.244740	74.890	-0.180	0.110	0.030	74.940	-1.200	0.400																			1580023457.0	0.32	0.59
26/01/2020 07:24:18	26012020	260120	072418	74.920	12.713550	-57.244740	74.880	-0.220	-0.180	0.090	74.920	-1.500	0.500																			1580023458.0	0.31	0.57
26/01/2020 07:24:19	26012020	260120	072419	74.860	12.713550	-57.244738	74.810	-0.300	-0.300	0.230	74.840	-1.700	0.600																			1580023459.0	0.14	0.26
26/01/2020 07:24:20	26012020	260120	072420	74.770	12.713548	-57.244738	74.730	-0.360	-0.260	0.470	74.750	-1.600	0.800																			1580023460.0	0.27	0.50
26/01/2020 07:24:21	26012020	260120	072421	74.700	12.713547	-57.244738	74.670	-0.280	-0.210	0.760	74.680	-1.600	1.100																			1580023461.0	0.54	1.00
26/01/2020 07:24:22	26012020	260120	072422	74.630	12.713543	-57.244738	74.610	-0.110	-0.290	0.970	74.620	-1.600	1.300																			1580023462.0	0.60	1.11
26/01/2020 07:24:23	26012020	260120	072423	74.550	12.713543	-57.244737	74.510	0.100	-0.420	0.910	74.530	-1.800	1.300																			1580023463.0	0.32	0.59
26/01/2020 07:24:24	26012020	260120	072424	74.450	12.713545	-57.244737	74.400	0.300	-0.400	0.620	74.430	-1.800	1.000																			1580023464.0	0.37	0.69
26/01/2020 07:24:25	26012020	260120	072425	74.360	12.713547	-57.244737	74.290	0.450	-0.200	0.260	74.340	-1.600	0.700																			1580023465.0	0.63	1.17
26/01/2020 07:24:26	26012020	260120	072426	74.270	12.713550	-57.244738	74.190	0.500	0.030	-0.010	74.250	-1.400	0.400																			1580023466.0	0.71	1.31
26/01/2020 07:24:27	26012020	260120	072427	74.160	12.713553	-57.244738	74.070	0.410	0.150	-0.180	74.130	-1.200	0.200																			1580023467.0	0.61	1.13
26/01/2020 07:24:28	26012020	260120	072428	74.020	12.713555	-57.244738	73.930	0.160	0.130	-0.220	73.990	-1.200	0.200																			1580023468.0	0.46	0.85
26/01/2020 07:24:29	26012020	260120	072429	73.870	12.713557	-57.244738	73.750	-0.170	0.030	-0.060	73.830	-1.300	0.300																			1580023469.0	0.29	0.54
26/01/2020 07:24:30	26012020	260120	072430	73.670	12.713557	-57.244738	73.600	-0.450	-0.110	0.230	73.650	-1.500	0.600																			1580023470.0	0.14	0.26
26/01/2020 07:24:31	26012020	260120	072431	73.630	12.713555	-57.244737	73.590	-0.570	-0.210	0.530	73.640	-1.600	0.900																			1580023471.0	0.47	0.87
26/01/2020 07:24:32	26012020	260120	072432	73.690	12.713552	-57.244737	73.650	-0.510	-0.170	0.760	73.700	-1.500	1.100																			1580023472.0	0.72	1.33
26/01/2020 07:24:33	26012020	260120	072433	73.700	12.713548	-57.244735	73.640	-0.310	-0.040	0.890	73.690	-1.400	1.300																			1580023473.0	0.71	1.31
26/01/2020 07:24:34	26012020	260120	072434	73.560	12.713547	-57.244737	73.460	-0.030	0.010	0.930	73.510	-1.400	1.300																			1580023474.0	0.41	0.76
26/01/2020 07:24:35	26012020	260120	072435	73.340	12.713547	-57.244737	73.250	0.270	-0.110	0.750	73.300	-1.500	1.200																			1580023475.0	0.10	0.19
26/01/2020 07:24:36	26012020	260120	072436	73.240	12.713550	-57.244737	73.170	0.460	-0.290	0.280	73.240	-1.600	0.700																			1580023476.0	0.60	1.11
26/01/2020 07:24:37	26012020	260120	072437	73.300	12.713553	-57.244738	73.240	0.460	-0.360	-0.370	73.330	-1.700	0.100																			1580023477.0	0.99	1.83
26/01/2020 07:24:38	26012020	260120	072438	73.420	12.713558	-57.244738	73.340	0.300	-0.250	-0.860	73.430	-1.600	-0.400																			1580023478.0	1.07	1.98
26/01/2020 07:24:39	26012020	260120	072439	73.470	12.713562	-57.244742	73.370	0.050	-0.080	-1.010	73.470	-1.500	-0.600																			1580023479.0	0.80	1.48
26/01/2020 07:24:40	26012020	260120	072440	73.430	12.713563	-57.244742	73.330	-0.170	-0.030	-0.800	73.420	-1.400	-0.400																			1580023480.0	0.25	0.46
26/01/2020 07:24:41	26012020	260120	072441	73.370	12.713560	-57.244742	73.280	-0.270	-0.170	-0.340	73.360	-1.500	-0.000																			1580023481.0	0.44	0.81
26/01/2020 07:24:42	26012020	260120	072442	73.350	12.713557	-57.244738	73.270	-0.250	-0.280	0.210	73.350	-1.600	0.500																			1580023482.0	0.92	1.70
26/01/2020 07:24:43	26012020	260120	072443	73.330	12.713553	-57.244737	73.270	-0.160	-0.190	0.750	73.330	-1.600	1.100																			1580023483.0	1.05	1.94
26/01/2020 07:24:44	26012020	260120	072444	73.330	12.713548	-57.244735	73.270	-0.070	0.060	1.090	73.330	-1.300	1.400																			1580023484.0	0.86	1.59
26/01/2020 07:24:45	26012020	260120	072445	73.430	12.713547	-57.244735	73.400	0.020	0.230	1.080	73.470	-1.100	1.500																			1580023485.0	0.48	0.89
26/01/2020 07:24:46	26012020	260120	072446	73.660	12.713547	-57.244737	73.630	0.060	0.210	0.680	73.710	-1.200	1.100																			1580023486.0	0.17	0.31
26/01/2020 07:24:47	26012020	260120	072447	73.860	12.713550	-57.244737	73.800	0.050	0.130	0.160	73.880	-1.200	0.600																			1580023487.0	0.66	1.22
26/01/2020 07:24:48	26012020	260120	072448	73.880	12.713553	-57.244738	73.780	0.060	0.000	-0.170	73.860	-1.300	0.200																			1580023488.0	0.78	1.44
26/01/2020 07:24:49	26012020	260120	072449	73.780	12.713555	-57.244740	73.680	0.160	-0.310	-0.250	73.760	-1.600	0.100																			1580023489.0	0.49	0.91
26/01/2020 07:24:50	26012020	260120	072450	73.710	12.713557	-57.244738	73.620	0.260	-0.690	-0.150	73.700	-2.000	0.200																			1580023490.0	0.26	0.48
26/01/2020 07:24:51	26012020	260120	072451	73.680	12.713557	-57.244737	73.600	0.220	-0.810	0.020	73.670	-2.200	0.400																			1580023491.0	0.37	0.69
26/01/2020 07:24:52	26012020	260120	072452	73.660	12.713555	-57.244737	73.580	0.010	-0.470	0.220	73.660	-1.900	0.600																			1580023492.0	0.22	0.41
26/01/2020 07:24:53	26012020	260120	072453	73.700	12.713553	-57.244737	73.630	-0.250	0.150	0.440	73.710	-1.300	0.800																			1580023493.0	0.42	0.78
26/01/2020 07:24:54	26012020	260120	072454	73.820	12.713550	-57.244738	73.780	-0.420	0.640	0.630	73.850	-0.700	1.000																			1580023494.0	0.72	1.33
26/01/2020 07:24:55	26012020	260120	072455	73.980	12.713548	-57.244740	73.940	-0.390	0.640	0.710	74.000	-0.700	1.100																			1580023495.0	0.63	1.17
26/01/2020 07:24:56	26012020	260120	072456	74.080	12.713547	-57.244738	74.030	-0.160	0.140	0.710	74.090	-1.200	1.100																			1580023496.0	0.35	0.65
26/01/2020 07:24:57	26012020	260120	072457	74.080	12.713547	-57.244737	74.010	0.210	-0.460	0.630	74.070	-1.800	1.000																			1580023497.0	0.49	0.91
26/01/2020 07:24:58	26012020	260120	072458	74.020	12.713548	-57.244735	73.930	0.500	-0.760	0.510	73.990	-2.100	0.900																			1580023498.0	0.46	0.85
26/01/2020 07:24:59	26012020	260120	072459	73.910	12.713550	-57.244735	73.810	0.560	-0.660	0.430	73.880	-2.000	0.800																			1580023499.0	0.35	0.65
26/01/2020 07:25:00	26012020	260120	072500	73.810	12.713552	-57.244735	73.730	0.340	-0.320	0.310	73.810	-1.700	0.700	1013.70	25.60	25.60	20.00	20.10	-1.00	71.00	71.00	392.00	25.10	16.00	5.80	90.00	5.70	14	3243.00	27.40	27.40	1580023500.0	0.44	0.81
26/01/2020 07:25:01	26012020	260120	072501	73.860	12.713553	-57.244738	73.800	-0.000	0.070	0.060	73.890	-1.300	0.500																			1580023501.0	0.57	1.06
26/01/2020 07:25:02	26012020	260120	072502	74.000	12.713553	-57.244740	73.950	-0.290	0.400	-0.090	74.030	-1.000	0.300																			1580023502.0	0.49	0.91
26/01/2020 07:25:03	26012020	260120	072503	74.100	12.713553	-57.244740	74.040	-0.440	0.540	0.040	74.110	-0.800	0.400																			1580023503.0	0.27	0.50
26/01/2020 07:25:04	26012020	260120	072504	74.140	12.713552	-57.244742	74.070	-0.460	0.350	0.310	74.140	-1.000	0.700																			1580023504.0	0.48	0.89
26/01/2020 07:25:05	26012020	260120	072505	74.130	12.713548	-57.244740	74.060	-0.350	-0.090	0.600	74.130	-1.400	0.900																			1580023505.0	0.66	1.22
26/01/2020 07:25:06	26012020	260120	072506	74.120	12.713547	-57.244738	74.070	-0.140	-0.530	0.770	74.130	-1.900	1.100																			1580023506.0	0.67	1.24
26/01/2020 07:25:07	26012020	260120	072507	74.150	12.713545	-57.244737	74.100	0.120	-0.750	0.800	74.150	-2.100	1.200																			1580023507.0	0.43	0.80
26/01/2020 07:25:08	26012020	260120	072508	74.110	12.713545	-57.244737	74.020	0.330	-0.680	0.780	74.090	-2.100	1.200																			1580023508.0	0.06	0.11
26/01/2020 07:25:09	26012020	260120	072509	73.970	12.713545	-57.244737	73.880	0.450	-0.440	0.710	73.940	-1.800	1.100																			1580023509.0	0.25	0.46
26/01/2020 07:25:10	26012020	260120	072510	73.850	12.713547	-57.244738	73.770	0.470	-0.130	0.520	73.830	-1.500	0.900																			1580023510.0	0.45	0.83
26/01/2020 07:25:11	26012020	260120	072511	73.800	12.713550	-57.244738	73.710	0.350	0.200	0.300	73.790	-1.200	0.700																			1580023511.0	0.51	0.94
26/01/2020 07:25:12	26012020	260120	072512	73.760	12.713550	-57.244740	73.680	0.080	0.380	0.160	73.750	-1.000	0.500																			1580023512.0	0.40	0.74
26/01/2020 07:25:13	26012020	260120	072513	73.730	12.713552	-57.244740	73.660	-0.230	0.340	0.090	73.740	-1.000	0.500																			1580023513.0	0.18	0.33
26/01/2020 07:25:14	26012020	260120	072514	73.800	12.713552	-57.244740	73.750	-0.470	0.190	0.040	73.820	-1.200	0.400																			1580023514.0	0.11	0.20
26/01/2020 07:25:15	26012020	260120	072515	73.930	12.713552	-57.244740	73.890	-0.520	0.070	0.080	73.950	-1.300	0.400																			1580023515.0	0.15	0.28
26/01/2020 07:25:16	26012020	260120	072516	74.020	12.713550	-57.244740	73.960	-0.360	-0.040	0.270	74.030	-1.400	0.600																			1580023516.0	0.33	0.61
26/01/2020 07:25:17	26012020	260120	072517	73.980	12.713548	-57.244740	73.900	-0.050	-0.260	0.610	73.950	-1.600	0.900																			1580023517.0	0.47	0.87
26/01/2020 07:25:18	26012020	260120	072518	73.840	12.713545	-57.244738	73.750	0.260	-0.590	0.910	73.810	-1.900	1.300																			1580023518.0	0.52	0.96
26/01/2020 07:25:19	26012020	260120	072519	73.730	12.713545	-57.244737	73.640	0.400	-0.780	0.960	73.710	-2.100	1.300																			1580023519.0	0.39	0.72
26/01/2020 07:25:20	26012020	260120	072520	73.640	12.713547	-57.244735	73.580	0.310	-0.550	0.870	73.630	-1.900	1.300																			1580023520.0	0.28	0.52
26/01/2020 07:25:21	26012020	260120	072521	73.620	12.713548	-57.244737	73.560	0.110	0.010	0.720	73.620	-1.400	1.100																			1580023521.0	0.45	0.83
26/01/2020 07:25:22	26012020	260120	072522	73.660	12.713550	-57.244740	73.620	-0.040	0.410	0.470	73.690	-1.000	0.900																			1580023522.0	0.58	1.07
26/01/2020 07:25:23	26012020	260120	072523	73.820	12.713552	-57.244740	73.800	-0.070	0.360	0.100	73.870	-1.000	0.500																			1580023523.0	0.49	0.91
26/01/2020 07:25:24	26012020	260120	072524	74.100	12.713553	-57.244740	74.080	-0.070	0.050	-0.300	74.160	-1.300	0.100																			1580023524.0	0.55	1.02
26/01/2020 07:25:25	26012020	260120	072525	74.340	12.713555	-57.244738	74.300	-0.120	-0.150	-0.460	74.380	-1.500	-0.100																			1580023525.0	0.42	0.78
26/01/2020 07:25:26	26012020	260120	072526	74.440	12.713555	-57.244738	74.370	-0.170	-0.200	-0.290	74.440	-1.600	0.000																			1580023526.0	0.22	0.41
26/01/2020 07:25:27	26012020	260120	072527	74.410	12.713552	-57.244737	74.350	-0.130	-0.260	0.030	74.410	-1.600	0.400																			1580023527.0	0.49	0.91
26/01/2020 07:25:28	26012020	260120	072528	74.380	12.713550	-57.244737	74.320	0.020	-0.330	0.330	74.380	-1.700	0.700																			1580023528.0	0.50	0.93
26/01/2020 07:25:29	26012020	260120	072529	74.380	12.713548	-57.244735	74.320	0.160	-0.290	0.570	74.380	-1.700	0.900																			1580023529.0	0.32	0.59
26/01/2020 07:25:30	26012020	260120	072530	74.430	12.713548	-57.244735	74.400	0.200	-0.120	0.700	74.460	-1.500	1.100																			1580023530.0	0.09	0.17
26/01/2020 07:25:31	26012020	260120	072531	74.580	12.713548	-57.244737	74.560	0.150	0.050	0.710	74.610	-1.300	1.100																			1580023531.0	0.16	0.30
26/01/2020 07:25:32	26012020	260120	072532	74.760	12.713550	-57.244737	74.740	0.040	0.130	0.630	74.800	-1.300	1.000																			1580023532.0	0.21	0.39
26/01/2020 07:25:33	26012020	260120	072533	74.920	12.713550	-57.244737	74.900	-0.070	0.120	0.540	74.940	-1.200	0.900																			1580023533.0	0.22	0.41
26/01/2020 07:25:34	26012020	260120	072534	75.040	12.713550	-57.244738	75.020	-0.140	0.000	0.540	75.070	-1.400	0.900																			1580023534.0	0.17	0.31
26/01/2020 07:25:35	26012020	260120	072535	75.170	12.713552	-57.244738	75.150	-0.120	-0.220	0.610	75.200	-1.600	1.000																			1580023535.0	0.03	0.06
26/01/2020 07:25:36	26012020	260120	072536	75.280	12.713550	-57.244737	75.260	-0.070	-0.390	0.720	75.300	-1.700	1.100																			1580023536.0	0.22	0.41
26/01/2020 07:25:37	26012020	260120	072537	75.320	12.713548	-57.244737	75.290	-0.050	-0.410	0.850	75.320	-1.800	1.200																			1580023537.0	0.33	0.61
26/01/2020 07:25:38	26012020	260120	072538	75.340	12.713547	-57.244737	75.330	-0.070	-0.270	0.890	75.360	-1.700	1.300																			1580023538.0	0.36	0.67
26/01/2020 07:25:39	26012020	260120	072539	75.410	12.713547	-57.244737	75.390	-0.030	-0.100	0.780	75.420	-1.500	1.200																			1580023539.0	0.24	0.44
26/01/2020 07:25:40	26012020	260120	072540	75.470	12.713547	-57.244737	75.440	0.080	0.030	0.580	75.480	-1.400	1.000																			1580023540.0	0.12	0.22
26/01/2020 07:25:41	26012020	260120	072541	75.490	12.713548	-57.244738	75.470	0.210	0.060	0.260	75.490	-1.300	0.700																			1580023541.0	0.37	0.69
26/01/2020 07:25:42	26012020	260120	072542	75.540	12.713552	-57.244738	75.510	0.250	0.000	-0.160	75.550	-1.400	0.200																			1580023542.0	0.77	1.43
26/01/2020 07:25:43	26012020	260120	072543	75.610	12.713555	-57.244740	75.610	0.210	-0.080	-0.520	75.630	-1.400	-0.100																			1580023543.0	0.91	1.69
26/01/2020 07:25:44	26012020	260120	072544	75.740	12.713558	-57.244740	75.710	0.100	-0.160	-0.660	75.760	-1.500	-0.300																			1580023544.0	0.65	1.20
26/01/2020 07:25:45	26012020	260120	072545	75.820	12.713560	-57.244740	75.790	-0.100	-0.110	-0.530	75.830	-1.500	-0.200																			1580023545.0	0.21	0.39
26/01/2020 07:25:46	26012020	260120	072546	75.890	12.713558	-57.244740	75.870	-0.350	0.100	-0.110	75.910	-1.300	0.200																			1580023546.0	0.31	0.57
26/01/2020 07:25:47	26012020	260120	072547	76.000	12.713555	-57.244740	76.000	-0.510	0.270	0.440	76.020	-1.100	0.800																			1580023547.0	0.79	1.46
26/01/2020 07:25:48	26012020	260120	072548	76.110	12.713550	-57.244740	76.120	-0.460	0.100	0.890	76.130	-1.200	1.200																			1580023548.0	0.96	1.78
26/01/2020 07:25:49	26012020	260120	072549	76.130	12.713547	-57.244738	76.110	-0.170	-0.420	1.170	76.110	-1.700	1.500																			1580023549.0	0.84	1.56
26/01/2020 07:25:50	26012020	260120	072550	75.980	12.713545	-57.244735	75.940	0.210	-0.940	1.300	75.940	-2.300	1.700																			1580023550.0	0.74	1.37
26/01/2020 07:25:51	26012020	260120	072551	75.800	12.713545	-57.244733	75.770	0.460	-0.970	1.260	75.770	-2.400	1.600																			1580023551.0	0.53	0.98
26/01/2020 07:25:52	26012020	260120	072552	75.670	12.713545	-57.244733	75.630	0.440	-0.370	1.020	75.650	-1.800	1.400																			1580023552.0	0.22	0.41
26/01/2020 07:25:53	26012020	260120	072553	75.600	12.713547	-57.244737	75.560	0.230	0.490	0.530	75.590	-0.900	0.900																			1580023553.0	0.76	1.41
26/01/2020 07:25:54	26012020	260120	072554	75.650	12.713550	-57.244740	75.630	-0.020	0.950	-0.250	75.670	-0.400	0.200																			1580023554.0	1.11	2.06
26/01/2020 07:25:55	26012020	260120	072555	75.780	12.713555	-57.244743	75.790	-0.170	0.750	-1.040	75.820	-0.600	-0.600																			1580023555.0	1.14	2.11
26/01/2020 07:25:56	26012020	260120	072556	75.950	12.713560	-57.244743	75.890	-0.200	0.130	-1.430	75.960	-1.200	-1.000																			1580023556.0	0.92	1.70
26/01/2020 07:25:57	26012020	260120	072557	75.940	12.713562	-57.244742	75.870	-0.160	-0.480	-1.300	75.930	-1.800	-0.900																			1580023557.0	0.54	1.00
26/01/2020 07:25:58	26012020	260120	072558	75.860	12.713560	-57.244740	75.790	-0.110	-0.770	-0.800	75.830	-2.100	-0.500																			1580023558.0	0.38	0.70
26/01/2020 07:25:59	26012020	260120	072559	75.690	12.713558	-57.244738	75.620	-0.070	-0.740	-0.010	75.650	-2.100	0.300																			1580023559.0	0.71	1.31
26/01/2020 07:26:00	26012020	260120	072600	75.450	12.713553	-57.244738	75.400	-0.040	-0.560	0.920	75.410	-1.900	1.200	1013.80	25.60	25.60	19.80	19.80	-1.00	70.00	70.00	391.00	25.10	17.00	5.60	92.00	5.40	14	3295.00	27.40	27.40	1580023560.0	1.07	1.98
26/01/2020 07:26:01	26012020	260120	072601	75.270	12.713547	-57.244737	75.260	-0.040	-0.330	1.680	75.250	-1.700	2.000																			1580023561.0	1.20	2.22
26/01/2020 07:26:02	26012020	260120	072602	75.230	12.713543	-57.244735	75.240	-0.090	-0.020	2.050	75.230	-1.400	2.400																			1580023562.0	1.04	1.93
26/01/2020 07:26:03	26012020	260120	072603	75.310	12.713540	-57.244735	75.340	-0.130	0.320	1.920	75.330	-1.100	2.300																			1580023563.0	0.60	1.11
26/01/2020 07:26:04	26012020	260120	072604	75.420	12.713540	-57.244737	75.430	-0.070	0.480	1.350	75.440	-0.900	1.800																			1580023564.0	0.22	0.41
26/01/2020 07:26:05	26012020	260120	072605	75.480	12.713543	-57.244738	75.460	0.140	0.310	0.560	75.480	-1.000	1.000																			1580023565.0	0.73	1.35
26/01/2020 07:26:06	26012020	260120	072606	75.420	12.713548	-57.244738	75.350	0.380	-0.030	-0.210	75.390	-1.400	0.200																			1580023566.0	1.09	2.02
26/01/2020 07:26:07	26012020	260120	072607	75.260	12.713553	-57.244738	75.120	0.420	-0.250	-0.760	75.210	-1.600	-0.400																			1580023567.0	1.11	2.06
26/01/2020 07:26:08	26012020	260120	072608	75.000	12.713558	-57.244740	74.910	0.200	-0.310	-1.070	74.970	-1.700	-0.700																			1580023568.0	0.96	1.78
26/01/2020 07:26:09	26012020	260120	072609	74.940	12.713560	-57.244740	74.890	-0.080	-0.350	-1.140	74.940	-1.700	-0.800																			1580023569.0	0.67	1.24
26/01/2020 07:26:10	26012020	260120	072610	75.030	12.713560	-57.244742	74.980	-0.250	-0.430	-0.880	75.040	-1.800	-0.500																			1580023570.0	0.09	0.17
26/01/2020 07:26:11	26012020	260120	072611	75.040	12.713558	-57.244740	74.970	-0.280	-0.420	-0.270	75.020	-1.800	0.000																			1580023571.0	0.61	1.13
26/01/2020 07:26:12	26012020	260120	072612	74.870	12.713553	-57.244738	74.790	-0.300	-0.160	0.610	74.820	-1.600	0.900																			1580023572.0	1.19	2.20
26/01/2020 07:26:13	26012020	260120	072613	74.600	12.713547	-57.244737	74.540	-0.350	0.200	1.470	74.550	-1.200	1.800																			1580023573.0	1.42	2.63
26/01/2020 07:26:14	26012020	260120	072614	74.430	12.713542	-57.244737	74.410	-0.300	0.350	1.920	74.420	-1.000	2.300																			1580023574.0	1.18	2.19
26/01/2020 07:26:15	26012020	260120	072615	74.470	12.713538	-57.244737	74.470	-0.060	0.110	1.760	74.490	-1.200	2.200																			1580023575.0	0.40	0.74
26/01/2020 07:26:16	26012020	260120	072616	74.580	12.713542	-57.244737	74.570	0.290	-0.290	1.180	74.600	-1.600	1.600																			1580023576.0	0.49	0.91
26/01/2020 07:26:17	26012020	260120	072617	74.620	12.713545	-57.244735	74.570	0.510	-0.470	0.480	74.610	-1.800	0.900																			1580023577.0	0.89	1.65
26/01/2020 07:26:18	26012020	260120	072618	74.560	12.713550	-57.244737	74.480	0.450	-0.310	-0.100	74.540	-1.700	0.300																			1580023578.0	0.90	1.67
26/01/2020 07:26:19	26012020	260120	072619	74.420	12.713552	-57.244738	74.310	0.200	-0.060	-0.470	74.380	-1.400	-0.100																			1580023579.0	0.81	1.50
26/01/2020 07:26:20	26012020	260120	072620	74.200	12.713555	-57.244740	74.080	-0.020	-0.020	-0.610	74.150	-1.400	-0.200																			1580023580.0	0.58	1.07
26/01/2020 07:26:21	26012020	260120	072621	73.970	12.713557	-57.244740	73.850	-0.120	-0.130	-0.610	73.920	-1.500	-0.200																			1580023581.0	0.30	0.56
26/01/2020 07:26:22	26012020	260120	072622	73.820	12.713557	-57.244738	73.740	-0.190	-0.110	-0.490	73.820	-1.500	-0.100																			1580023582.0	0.20	0.37
26/01/2020 07:26:23	26012020	260120	072623	73.870	12.713555	-57.244738	73.820	-0.320	0.090	-0.250	73.890	-1.300	0.100																			1580023583.0	0.29	0.54
26/01/2020 07:26:24	26012020	260120	072624	74.030	12.713552	-57.244740	74.000	-0.400	0.260	0.140	74.060	-1.100	0.500																			1580023584.0	0.63	1.17
26/01/2020 07:26:25	26012020	260120	072625	74.180	12.713548	-57.244740	74.150	-0.290	0.160	0.560	74.200	-1.200	0.900																			1580023585.0	0.78	1.44
26/01/2020 07:26:26	26012020	260120	072626	74.210	12.713545	-57.244738	74.160	0.030	-0.230	0.970	74.200	-1.500	1.300																			1580023586.0	0.76	1.41
26/01/2020 07:26:27	26012020	260120	072627	74.100	12.713543	-57.244735	74.040	0.380	-0.650	1.330	74.060	-2.000	1.700																			1580023587.0	0.70	1.30
26/01/2020 07:26:28	26012020	260120	072628	73.880	12.713542	-57.244733	73.810	0.520	-0.740	1.540	73.830	-2.100	1.900																			1580023588.0	0.49	0.91
26/01/2020 07:26:29	26012020	260120	072629	73.690	12.713543	-57.244733	73.650	0.380	-0.380	1.480	73.670	-1.800	1.900																			1580023589.0	0.16	0.30
26/01/2020 07:26:30	26012020	260120	072630	73.710	12.713545	-57.244735	73.700	0.110	0.110	1.140	73.740	-1.300	1.600																			1580023590.0	0.65	1.20
26/01/2020 07:26:31	26012020	260120	072631	73.910	12.713547	-57.244738	73.900	-0.120	0.360	0.680	73.950	-1.000	1.100																			1580023591.0	0.74	1.37
26/01/2020 07:26:32	26012020	260120	072632	74.160	12.713550	-57.244738	74.150	-0.260	0.280	0.160	74.210	-1.100	0.600																			1580023592.0	0.58	1.07
26/01/2020 07:26:33	26012020	260120	072633	74.320	12.713552	-57.244738	74.290	-0.320	0.080	-0.210	74.340	-1.300	0.200																			1580023593.0	0.41	0.76
26/01/2020 07:26:34	26012020	260120	072634	74.350	12.713552	-57.244738	74.280	-0.320	-0.060	-0.270	74.340	-1.400	0.100																			1580023594.0	0.16	0.30
26/01/2020 07:26:35	26012020	260120	072635	74.300	12.713550	-57.244737	74.220	-0.260	-0.120	-0.120	74.280	-1.500	0.200																			1580023595.0	0.34	0.63
26/01/2020 07:26:36	26012020	260120	072636	74.260	12.713548	-57.244737	74.220	-0.130	-0.200	0.070	74.270	-1.600	0.400																			1580023596.0	0.39	0.72
26/01/2020 07:26:37	26012020	260120	072637	74.330	12.713548	-57.244738	74.300	0.070	-0.310	0.110	74.360	-1.700	0.500																			1580023597.0	0.14	0.26
26/01/2020 07:26:38	26012020	260120	072638	74.460	12.713548	-57.244738	74.410	0.320	-0.400	0.120	74.480	-1.800	0.500																			1580023598.0	0.21	0.39
26/01/2020 07:26:39	26012020	260120	072639	74.500	12.713550	-57.244738	74.440	0.520	-0.420	0.260	74.490	-1.800	0.600																			1580023599.0	0.22	0.41
26/01/2020 07:26:40	26012020	260120	072640	74.450	12.713550	-57.244738	74.390	0.510	-0.340	0.520	74.440	-1.700	0.900																			1580023600.0	0.08	0.15
26/01/2020 07:26:41	26012020	260120	072641	74.420	12.713550	-57.244738	74.370	0.280	-0.180	0.790	74.420	-1.600	1.100																			1580023601.0	0.06	0.11
26/01/2020 07:26:42	26012020	260120	072642	74.480	12.713550	-57.244738	74.460	-0.060	0.060	0.970	74.510	-1.300	1.300																			1580023602.0	0.13	0.24
26/01/2020 07:26:43	26012020	260120	072643	74.650	12.713548	-57.244738	74.650	-0.370	0.330	1.020	74.690	-1.100	1.400																			1580023603.0	0.26	0.48
26/01/2020 07:26:44	26012020	260120	072644	74.860	12.713547	-57.244740	74.850	-0.550	0.420	0.970	74.890	-0.900	1.400																			1580023604.0	0.34	0.63
26/01/2020 07:26:45	26012020	260120	072645	75.000	12.713547	-57.244740	75.020	-0.530	0.200	0.830	75.030	-1.100	1.200																			1580023605.0	0.21	0.39
26/01/2020 07:26:46	26012020	260120	072646	75.180	12.713547	-57.244740	75.160	-0.320	-0.170	0.610	75.200	-1.500	1.000																			1580023606.0	0.15	0.28
26/01/2020 07:26:47	26012020	260120	072647	75.250	12.713547	-57.244738	75.200	-0.060	-0.390	0.410	75.250	-1.800	0.800																			1580023607.0	0.17	0.31
26/01/2020 07:26:48	26012020	260120	072648	75.210	12.713547	-57.244738	75.130	0.130	-0.370	0.190	75.190	-1.700	0.600																			1580023608.0	0.16	0.30
26/01/2020 07:26:49	26012020	260120	072649	75.130	12.713548	-57.244740	75.050	0.250	-0.240	-0.020	75.110	-1.600	0.400																			1580023609.0	0.50	0.93
26/01/2020 07:26:50	26012020	260120	072650	75.090	12.713550	-57.244742	75.020	0.340	-0.230	-0.180	75.090	-1.600	0.200																			1580023610.0	0.61	1.13
26/01/2020 07:26:51	26012020	260120	072651	75.150	12.713553	-57.244743	75.100	0.400	-0.330	-0.280	75.170	-1.700	0.100																			1580023611.0	0.57	1.06
26/01/2020 07:26:52	26012020	260120	072652	75.310	12.713555	-57.244742	75.280	0.290	-0.390	-0.260	75.340	-1.800	0.100																			1580023612.0	0.43	0.80
26/01/2020 07:26:53	26012020	260120	072653	75.470	12.713555	-57.244742	75.430	0.000	-0.240	0.030	75.490	-1.600	0.400																			1580023613.0	0.14	0.26
26/01/2020 07:26:54	26012020	260120	072654	75.510	12.713553	-57.244742	75.460	-0.320	0.110	0.530	75.510	-1.300	0.900																			1580023614.0	0.57	1.06
26/01/2020 07:26:55	26012020	260120	072655	75.500	12.713548	-57.244742	75.460	-0.460	0.440	1.020	75.500	-0.900	1.400																			1580023615.0	0.90	1.67
26/01/2020 07:26:56	26012020	260120	072656	75.520	12.713545	-57.244742	75.500	-0.300	0.440	1.310	75.530	-0.900	1.700																			1580023616.0	0.82	1.52
26/01/2020 07:26:57	26012020	260120	072657	75.560	12.713543	-57.244742	75.560	0.060	0.060	1.350	75.570	-1.300	1.700																			1580023617.0	0.38	0.70
26/01/2020 07:26:58	26012020	260120	072658	75.610	12.713543	-57.244740	75.590	0.370	-0.420	1.160	75.610	-1.800	1.600																			1580023618.0	0.40	0.74
26/01/2020 07:26:59	26012020	260120	072659	75.620	12.713547	-57.244738	75.590	0.450	-0.630	0.820	75.620	-2.000	1.200																			1580023619.0	0.71	1.31
26/01/2020 07:27:00	26012020	260120	072700	75.610	12.713550	-57.244740	75.570	0.220	-0.420	0.480	75.610	-1.800	0.900	1013.70	25.50	25.60	19.80	19.90	-1.00	70.00	70.00	392.00	25.10	14.00	5.60	89.00	5.40	14	3265.00	27.40	27.40	1580023620.0	0.79	1.46
26/01/2020 07:27:01	26012020	260120	072701	75.590	12.713553	-57.244742	75.550	-0.190	0.030	0.260	75.590	-1.400	0.700																			1580023621.0	0.76	1.41
26/01/2020 07:27:02	26012020	260120	072702	75.560	12.713553	-57.244745	75.520	-0.530	0.380	0.200	75.550	-1.000	0.600																			1580023622.0	0.64	1.19
26/01/2020 07:27:03	26012020	260120	072703	75.500	12.713553	-57.244747	75.460	-0.590	0.310	0.290	75.490	-1.000	0.700																			1580023623.0	0.42	0.78
26/01/2020 07:27:04	26012020	260120	072704	75.450	12.713552	-57.244747	75.420	-0.310	-0.200	0.370	75.450	-1.500	0.700																			1580023624.0	0.44	0.81
26/01/2020 07:27:05	26012020	260120	072705	75.460	12.713550	-57.244743	75.430	0.070	-0.710	0.300	75.470	-2.000	0.700																			1580023625.0	0.61	1.13
26/01/2020 07:27:06	26012020	260120	072706	75.440	12.713550	-57.244742	75.390	0.330	-0.700	0.190	75.420	-2.100	0.600																			1580023626.0	0.35	0.65
26/01/2020 07:27:07	26012020	260120	072707	75.300	12.713550	-57.244743	75.220	0.390	-0.280	0.090	75.260	-1.700	0.500																			1580023627.0	0.29	0.54
26/01/2020 07:27:08	26012020	260120	072708	75.140	12.713552	-57.244745	75.080	0.370	0.080	-0.090	75.120	-1.300	0.300																			1580023628.0	0.66	1.22
26/01/2020 07:27:09	26012020	260120	072709	75.140	12.713555	-57.244748	75.110	0.360	0.090	-0.320	75.160	-1.300	0.100																			1580023629.0	0.70	1.30
26/01/2020 07:27:10	26012020	260120	072710	75.290	12.713557	-57.244748	75.270	0.300	-0.030	-0.410	75.320	-1.400	-0.000																			1580023630.0	0.55	1.02
26/01/2020 07:27:11	26012020	260120	072711	75.390	12.713558	-57.244747	75.360	0.050	0.060	-0.290	75.410	-1.300	0.100																			1580023631.0	0.20	0.37
26/01/2020 07:27:12	26012020	260120	072712	75.380	12.713557	-57.244748	75.330	-0.300	0.320	-0.050	75.360	-1.100	0.300																			1580023632.0	0.29	0.54
26/01/2020 07:27:13	26012020	260120	072713	75.260	12.713555	-57.244750	75.210	-0.510	0.380	0.250	75.230	-1.000	0.600																			1580023633.0	0.56	1.04
26/01/2020 07:27:14	26012020	260120	072714	75.150	12.713553	-57.244750	75.130	-0.420	0.060	0.580	75.150	-1.300	0.900																			1580023634.0	0.52	0.96
26/01/2020 07:27:15	26012020	260120	072715	75.180	12.713552	-57.244748	75.180	-0.180	-0.440	0.790	75.200	-1.800	1.100																			1580023635.0	0.51	0.94
26/01/2020 07:27:16	26012020	260120	072716	75.310	12.713550	-57.244748	75.320	-0.020	-0.740	0.810	75.340	-2.100	1.200																			1580023636.0	0.37	0.69
26/01/2020 07:27:17	26012020	260120	072717	75.440	12.713550	-57.244747	75.430	-0.000	-0.690	0.670	75.450	-2.100	1.100																			1580023637.0	0.07	0.13
26/01/2020 07:27:18	26012020	260120	072718	75.430	12.713550	-57.244748	75.380	-0.050	-0.330	0.580	75.410	-1.700	0.900																			1580023638.0	0.22	0.41
26/01/2020 07:27:19	26012020	260120	072719	75.260	12.713548	-57.244750	75.190	-0.070	0.090	0.570	75.210	-1.300	0.900																			1580023639.0	0.44	0.81
26/01/2020 07:27:20	26012020	260120	072720	75.060	12.713547	-57.244752	75.010	0.000	0.290	0.460	75.040	-1.100	0.900																			1580023640.0	0.40	0.74
26/01/2020 07:27:21	26012020	260120	072721	75.000	12.713548	-57.244752	74.970	0.190	0.120	0.100	75.000	-1.200	0.500																			1580023641.0	0.13	0.24
26/01/2020 07:27:22	26012020	260120	072722	75.070	12.713552	-57.244750	75.030	0.440	-0.210	-0.460	75.090	-1.500	-0.000																			1580023642.0	0.74	1.37
26/01/2020 07:27:23	26012020	260120	072723	75.160	12.713557	-57.244750	75.120	0.650	-0.370	-0.910	75.170	-1.700	-0.500																			1580023643.0	1.03	1.91
26/01/2020 07:27:24	26012020	260120	072724	75.270	12.713560	-57.244750	75.230	0.620	-0.230	-1.110	75.290	-1.600	-0.700																			1580023644.0	0.88	1.63
26/01/2020 07:27:25	26012020	260120	072725	75.390	12.713562	-57.244752	75.360	0.280	0.070	-0.970	75.420	-1.300	-0.600																			1580023645.0	0.55	1.02
26/01/2020 07:27:26	26012020	260120	072726	75.480	12.713562	-57.244753	75.450	-0.230	0.320	-0.400	75.490	-1.100	-0.100																			1580023646.0	0.38	0.70
26/01/2020 07:27:27	26012020	260120	072727	75.470	12.713558	-57.244755	75.430	-0.630	0.320	0.560	75.450	-1.000	0.800																			1580023647.0	0.87	1.61
26/01/2020 07:27:28	26012020	260120	072728	75.340	12.713552	-57.244753	75.320	-0.720	0.030	1.670	75.310	-1.300	1.900																			1580023648.0	1.47	2.72
26/01/2020 07:27:29	26012020	260120	072729	75.220	12.713543	-57.244750	75.220	-0.540	-0.420	2.540	75.200	-1.700	2.800																			1580023649.0	1.75	3.24
26/01/2020 07:27:30	26012020	260120	072730	75.130	12.713537	-57.244747	75.140	-0.280	-0.720	2.890	75.110	-2.100	3.200																			1580023650.0	1.46	2.70
26/01/2020 07:27:31	26012020	260120	072731	75.060	12.713535	-57.244745	75.060	-0.070	-0.630	2.630	75.050	-2.000	3.000																			1580023651.0	0.68	1.26
26/01/2020 07:27:32	26012020	260120	072732	75.030	12.713535	-57.244747	75.010	0.120	-0.250	1.770	75.030	-1.600	2.200																			1580023652.0	0.34	0.63
26/01/2020 07:27:33	26012020	260120	072733	75.060	12.713540	-57.244750	75.040	0.360	0.090	0.460	75.090	-1.300	0.900																			1580023653.0	1.23	2.28
26/01/2020 07:27:34	26012020	260120	072734	75.210	12.713548	-57.244752	75.170	0.580	0.160	-1.010	75.250	-1.200	-0.500																			1580023654.0	1.81	3.35
26/01/2020 07:27:35	26012020	260120	072735	75.360	12.713557	-57.244753	75.310	0.620	0.080	-2.200	75.390	-1.300	-1.700																			1580023655.0	1.97	3.65
26/01/2020 07:27:36	26012020	260120	072736	75.450	12.713563	-57.244755	75.330	0.420	0.060	-2.700	75.440	-1.300	-2.300																			1580023656.0	1.47	2.72
26/01/2020 07:27:37	26012020	260120	072737	75.370	12.713567	-57.244757	75.240	0.070	0.050	-2.450	75.340	-1.300	-2.100																			1580023657.0	0.58	1.07
26/01/2020 07:27:38	26012020	260120	072738	75.190	12.713565	-57.244757	75.070	-0.220	-0.120	-1.500	75.150	-1.400	-1.200																			1580023658.0	0.40	0.74
26/01/2020 07:27:39	26012020	260120	072739	74.980	12.713560	-57.244755	74.900	-0.280	-0.450	-0.100	74.940	-1.800	0.100																			1580023659.0	1.22	2.26
26/01/2020 07:27:40	26012020	260120	072740	74.830	12.713552	-57.244752	74.800	-0.170	-0.650	1.380	74.820	-2.000	1.600																			1580023660.0	1.81	3.35
26/01/2020 07:27:41	26012020	260120	072741	74.810	12.713543	-57.244748	74.830	-0.130	-0.390	2.500	74.820	-1.800	2.800																			1580023661.0	1.86	3.44
26/01/2020 07:27:42	26012020	260120	072742	74.920	12.713537	-57.244748	74.980	-0.250	0.220	3.010	74.950	-1.200	3.300																			1580023662.0	1.42	2.63
26/01/2020 07:27:43	26012020	260120	072743	75.100	12.713533	-57.244750	75.150	-0.360	0.630	2.940	75.130	-0.700	3.300																			1580023663.0	0.88	1.63
26/01/2020 07:27:44	26012020	260120	072744	75.290	12.713533	-57.244752	75.330	-0.270	0.420	2.340	75.330	-0.900	2.800																			1580023664.0	0.37	0.69
26/01/2020 07:27:45	26012020	260120	072745	75.470	12.713537	-57.244752	75.460	-0.010	-0.230	1.320	75.480	-1.500	1.800																			1580023665.0	0.71	1.31
26/01/2020 07:27:46	26012020	260120	072746	75.460	12.713542	-57.244750	75.390	0.220	-0.660	0.260	75.440	-2.000	0.700																			1580023666.0	1.17	2.17
26/01/2020 07:27:47	26012020	260120	072747	75.340	12.713547	-57.244750	75.210	0.290	-0.610	-0.640	75.310	-2.000	-0.200																			1580023667.0	1.15	2.13
26/01/2020 07:27:48	26012020	260120	072748	75.160	12.713552	-57.244753	75.060	0.280	-0.350	-1.320	75.150	-1.700	-0.900																			1580023668.0	1.06	1.96
26/01/2020 07:27:49	26012020	260120	072749	75.130	12.713555	-57.244755	75.050	0.280	-0.150	-1.750	75.130	-1.500	-1.300																			1580023669.0	0.85	1.57
26/01/2020 07:27:50	26012020	260120	072750	75.230	12.713557	-57.244757	75.170	0.260	-0.040	-1.850	75.260	-1.400	-1.500																			1580023670.0	0.49	0.91
26/01/2020 07:27:51	26012020	260120	072751	75.340	12.713558	-57.244757	75.270	0.130	0.120	-1.520	75.350	-1.300	-1.200																			1580023671.0	0.09	0.17
26/01/2020 07:27:52	26012020	260120	072752	75.370	12.713555	-57.244757	75.310	-0.110	0.250	-0.790	75.370	-1.100	-0.500																			1580023672.0	0.37	0.69
26/01/2020 07:27:53	26012020	260120	072753	75.410	12.713552	-57.244757	75.390	-0.300	0.160	0.150	75.430	-1.200	0.400																			1580023673.0	0.74	1.37
26/01/2020 07:27:54	26012020	260120	072754	75.500	12.713548	-57.244755	75.500	-0.300	-0.120	1.180	75.530	-1.400	1.400																			1580023674.0	1.07	1.98
26/01/2020 07:27:55	26012020	260120	072755	75.640	12.713542	-57.244752	75.660	-0.120	-0.390	2.110	75.660	-1.700	2.400																			1580023675.0	1.37	2.54
26/01/2020 07:27:56	26012020	260120	072756	75.760	12.713537	-57.244750	75.780	0.110	-0.480	2.740	75.770	-1.800	3.000																			1580023676.0	1.34	2.48
26/01/2020 07:27:57	26012020	260120	072757	75.750	12.713532	-57.244748	75.760	0.230	-0.310	2.940	75.730	-1.700	3.300																			1580023677.0	0.92	1.70
26/01/2020 07:27:58	26012020	260120	072758	75.640	12.713530	-57.244748	75.620	0.140	0.040	2.630	75.610	-1.400	3.000																			1580023678.0	0.29	0.54
26/01/2020 07:27:59	26012020	260120	072759	75.560	12.713533	-57.244752	75.560	-0.040	0.290	1.770	75.560	-1.100	2.200																			1580023679.0	0.71	1.31
26/01/2020 07:28:00	26012020	260120	072800	75.660	12.713538	-57.244753	75.660	-0.160	0.260	0.490	75.700	-1.100	1.000	1013.80	25.50	25.60	19.80	19.90	-1.00	70.00	70.00	393.00	25.10	12.00	5.20	88.00	4.80	14	3341.00	27.40	27.40	1580023680.0	1.31	2.43
26/01/2020 07:28:01	26012020	260120	072801	75.830	12.713545	-57.244755	75.800	-0.140	-0.020	-0.820	75.860	-1.400	-0.300																			1580023681.0	1.59	2.94
26/01/2020 07:28:02	26012020	260120	072802	75.960	12.713552	-57.244757	75.900	-0.020	-0.400	-1.830	75.980	-1.700	-1.400																			1580023682.0	1.44	2.67
26/01/2020 07:28:03	26012020	260120	072803	75.990	12.713557	-57.244757	75.900	0.100	-0.640	-2.320	75.990	-2.000	-1.900																			1580023683.0	1.00	1.85
26/01/2020 07:28:04	26012020	260120	072804	75.950	12.713558	-57.244757	75.850	0.100	-0.520	-2.180	75.940	-1.900	-1.800																			1580023684.0	0.32	0.59
26/01/2020 07:28:05	26012020	260120	072805	75.910	12.713557	-57.244757	75.840	-0.050	-0.080	-1.460	75.910	-1.500	-1.200																			1580023685.0	0.46	0.85
26/01/2020 07:28:06	26012020	260120	072806	75.910	12.713552	-57.244757	75.860	-0.250	0.380	-0.420	75.910	-1.000	-0.200																			1580023686.0	1.11	2.06
26/01/2020 07:28:07	26012020	260120	072807	75.940	12.713545	-57.244758	75.930	-0.300	0.490	0.590	75.950	-0.900	0.900																			1580023687.0	1.29	2.39
26/01/2020 07:28:08	26012020	260120	072808	76.010	12.713540	-57.244757	76.010	-0.070	0.130	1.430	76.020	-1.200	1.700																			1580023688.0	1.09	2.02
26/01/2020 07:28:09	26012020	260120	072809	76.040	12.713537	-57.244755	76.040	0.360	-0.490	2.110	76.040	-1.800	2.400																			1580023689.0	0.91	1.69
26/01/2020 07:28:10	26012020	260120	072810	75.980	12.713535	-57.244752	75.970	0.690	-0.870	2.640	75.950	-2.200	3.000																			1580023690.0	0.83	1.54
26/01/2020 07:28:11	26012020	260120	072811	75.860	12.713533	-57.244750	75.820	0.610	-0.690	2.840	75.830	-2.100	3.200																			1580023691.0	0.41	0.76
26/01/2020 07:28:12	26012020	260120	072812	75.730	12.713535	-57.244752	75.740	0.120	-0.080	2.510	75.730	-1.500	2.900																			1580023692.0	0.30	0.56
26/01/2020 07:28:13	26012020	260120	072813	75.780	12.713537	-57.244755	75.840	-0.450	0.490	1.680	75.810	-0.900	2.100																			1580023693.0	0.82	1.52
26/01/2020 07:28:14	26012020	260120	072814	76.000	12.713538	-57.244758	76.000	-0.750	0.710	0.650	76.030	-0.700	1.100																			1580023694.0	0.98	1.81
26/01/2020 07:28:15	26012020	260120	072815	76.130	12.713542	-57.244760	76.100	-0.640	0.480	-0.340	76.150	-0.900	0.100																			1580023695.0	0.85	1.57
26/01/2020 07:28:16	26012020	260120	072816	76.190	12.713547	-57.244760	76.120	-0.280	-0.020	-1.240	76.190	-1.300	-0.800																			1580023696.0	0.76	1.41
26/01/2020 07:28:17	26012020	260120	072817	76.120	12.713550	-57.244760	76.010	0.060	-0.460	-1.880	76.090	-1.800	-1.500																			1580023697.0	0.75	1.39
26/01/2020 07:28:18	26012020	260120	072818	75.890	12.713552	-57.244762	75.750	0.260	-0.650	-2.020	75.830	-2.000	-1.600																			1580023698.0	0.59	1.09
26/01/2020 07:28:19	26012020	260120	072819	75.640	12.713553	-57.244762	75.530	0.360	-0.670	-1.760	75.610	-2.000	-1.400																			1580023699.0	0.46	0.85
26/01/2020 07:28:20	26012020	260120	072820	75.600	12.713555	-57.244763	75.550	0.430	-0.660	-1.250	75.610	-2.000	-0.900																			1580023700.0	0.18	0.33
26/01/2020 07:28:21	26012020	260120	072821	75.710	12.713553	-57.244762	75.690	0.410	-0.500	-0.520	75.730	-1.900	-0.200																			1580023701.0	0.34	0.63
26/01/2020 07:28:22	26012020	260120	072822	75.830	12.713548	-57.244762	75.820	0.180	-0.080	0.370	75.840	-1.500	0.700																			1580023702.0	0.87	1.61
26/01/2020 07:28:23	26012020	260120	072823	75.880	12.713543	-57.244762	75.880	-0.200	0.450	1.370	75.890	-0.900	1.700																			1580023703.0	1.35	2.50
26/01/2020 07:28:24	26012020	260120	072824	75.870	12.713535	-57.244762	75.870	-0.490	0.770	2.200	75.860	-0.600	2.500																			1580023704.0	1.53	2.83
26/01/2020 07:28:25	26012020	260120	072825	75.820	12.713530	-57.244762	75.820	-0.510	0.640	2.640	75.810	-0.700	3.000																			1580023705.0	1.14	2.11
26/01/2020 07:28:26	26012020	260120	072826	75.760	12.713528	-57.244762	75.780	-0.220	0.080	2.540	75.760	-1.200	2.900																			1580023706.0	0.48	0.89
26/01/2020 07:28:27	26012020	260120	072827	75.820	12.713530	-57.244760	75.840	0.190	-0.570	1.910	75.830	-1.900	2.400																			1580023707.0	0.50	0.93
26/01/2020 07:28:28	26012020	260120	072828	75.930	12.713535	-57.244758	75.930	0.430	-0.810	0.920	75.950	-2.200	1.400																			1580023708.0	0.97	1.80
26/01/2020 07:28:29	26012020	260120	072829	75.970	12.713540	-57.244760	75.910	0.350	-0.500	-0.100	75.950	-1.900	0.400																			1580023709.0	1.27	2.35
26/01/2020 07:28:30	26012020	260120	072830	75.860	12.713545	-57.244765	75.770	0.070	-0.020	-0.870	75.830	-1.400	-0.400																			1580023710.0	1.37	2.54
26/01/2020 07:28:31	26012020	260120	072831	75.710	12.713548	-57.244768	75.610	-0.170	0.170	-1.280	75.670	-1.200	-0.900																			1580023711.0	1.04	1.93
26/01/2020 07:28:32	26012020	260120	072832	75.580	12.713550	-57.244768	75.490	-0.240	0.010	-1.350	75.560	-1.300	-1.000																			1580023712.0	0.43	0.80
26/01/2020 07:28:33	26012020	260120	072833	75.520	12.713552	-57.244767	75.450	-0.170	-0.220	-1.100	75.520	-1.600	-0.800																			1580023713.0	0.24	0.44
26/01/2020 07:28:34	26012020	260120	072834	75.490	12.713548	-57.244765	75.440	-0.050	-0.320	-0.570	75.480	-1.700	-0.200																			1580023714.0	0.55	1.02
26/01/2020 07:28:35	26012020	260120	072835	75.480	12.713545	-57.244765	75.450	0.070	-0.300	0.060	75.490	-1.700	0.400																			1580023715.0	0.82	1.52
26/01/2020 07:28:36	26012020	260120	072836	75.500	12.713542	-57.244763	75.480	0.170	-0.180	0.640	75.500	-1.500	1.000																			1580023716.0	0.85	1.57
26/01/2020 07:28:37	26012020	260120	072837	75.480	12.713538	-57.244762	75.450	0.190	0.020	1.160	75.470	-1.400	1.500																			1580023717.0	0.69	1.28
26/01/2020 07:28:38	26012020	260120	072838	75.390	12.713537	-57.244763	75.360	0.120	0.200	1.530	75.370	-1.200	1.900																			1580023718.0	0.48	0.89
26/01/2020 07:28:39	26012020	260120	072839	75.310	12.713535	-57.244763	75.280	0.010	0.200	1.670	75.300	-1.100	2.000																			1580023719.0	0.21	0.39
26/01/2020 07:28:40	26012020	260120	072840	75.210	12.713537	-57.244763	75.180	-0.030	-0.050	1.560	75.200	-1.400	1.900																			1580023720.0	0.13	0.24
26/01/2020 07:28:41	26012020	260120	072841	75.160	12.713537	-57.244762	75.130	0.010	-0.330	1.220	75.160	-1.700	1.600																			1580023721.0	0.38	0.70
26/01/2020 07:28:42	26012020	260120	072842	75.170	12.713540	-57.244762	75.140	0.010	-0.360	0.700	75.190	-1.700	1.100																			1580023722.0	0.39	0.72
26/01/2020 07:28:43	26012020	260120	072843	75.200	12.713540	-57.244762	75.150	-0.120	-0.100	0.170	75.200	-1.500	0.600																			1580023723.0	0.37	0.69
26/01/2020 07:28:44	26012020	260120	072844	75.170	12.713542	-57.244765	75.100	-0.280	0.170	-0.260	75.160	-1.200	0.200																			1580023724.0	0.56	1.04
26/01/2020 07:28:45	26012020	260120	072845	75.110	12.713543	-57.244767	75.040	-0.250	0.110	-0.590	75.110	-1.200	-0.200																			1580023725.0	0.52	0.96
26/01/2020 07:28:46	26012020	260120	072846	75.130	12.713545	-57.244767	75.060	0.020	-0.290	-0.890	75.130	-1.600	-0.500																			1580023726.0	0.47	0.87
26/01/2020 07:28:47	26012020	260120	072847	75.190	12.713548	-57.244765	75.120	0.300	-0.650	-0.990	75.200	-2.000	-0.600																			1580023727.0	0.55	1.02
26/01/2020 07:28:48	26012020	260120	072848	75.190	12.713548	-57.244763	75.100	0.340	-0.570	-0.690	75.160	-2.000	-0.400																			1580023728.0	0.31	0.57
26/01/2020 07:28:49	26012020	260120	072849	74.990	12.713547	-57.244763	74.900	0.120	-0.080	0.060	74.940	-1.500	0.400																			1580023729.0	0.51	0.94
26/01/2020 07:28:50	26012020	260120	072850	74.760	12.713542	-57.244765	74.700	-0.170	0.340	0.860	74.730	-1.000	1.200																			1580023730.0	0.95	1.76
26/01/2020 07:28:51	26012020	260120	072851	74.730	12.713538	-57.244765	74.730	-0.270	0.290	1.310	74.750	-1.000	1.700																			1580023731.0	0.74	1.37
26/01/2020 07:28:52	26012020	260120	072852	74.910	12.713537	-57.244763	74.920	-0.130	-0.060	1.450	74.950	-1.400	1.800																			1580023732.0	0.49	0.91
26/01/2020 07:28:53	26012020	260120	072853	75.070	12.713535	-57.244762	75.060	0.060	-0.250	1.510	75.080	-1.600	1.900																			1580023733.0	0.47	0.87
26/01/2020 07:28:54	26012020	260120	072854	75.060	12.713535	-57.244762	75.020	0.120	-0.170	1.480	75.040	-1.500	1.900																			1580023734.0	0.23	0.43
26/01/2020 07:28:55	26012020	260120	072855	74.920	12.713535	-57.244762	74.860	0.050	0.050	1.280	74.880	-1.300	1.700																			1580023735.0	0.28	0.52
26/01/2020 07:28:56	26012020	260120	072856	74.750	12.713537	-57.244765	74.680	-0.020	0.120	0.900	74.720	-1.200	1.300																			1580023736.0	0.55	1.02
26/01/2020 07:28:57	26012020	260120	072857	74.650	12.713540	-57.244765	74.580	-0.000	-0.100	0.430	74.640	-1.400	0.900																			1580023737.0	0.71	1.31
26/01/2020 07:28:58	26012020	260120	072858	74.630	12.713543	-57.244765	74.560	0.040	-0.380	0.030	74.630	-1.700	0.400																			1580023738.0	0.73	1.35
26/01/2020 07:28:59	26012020	260120	072859	74.610	12.713545	-57.244765	74.540	-0.000	-0.420	-0.240	74.600	-1.800	0.200																			1580023739.0	0.48	0.89
26/01/2020 07:29:00	26012020	260120	072900	74.540	12.713545	-57.244767	74.450	-0.090	-0.270	-0.350	74.520	-1.600	0.000	1013.80	25.50	25.60	19.90	19.90	-1.00	70.00	70.00	395.00	25.10	11.00	5.00	87.00	4.70	14	3234.00	27.40	27.40	1580023740.0	0.23	0.43
26/01/2020 07:29:01	26012020	260120	072901	74.420	12.713545	-57.244767	74.340	-0.080	-0.180	-0.300	74.390	-1.500	0.100																			1580023741.0	0.13	0.24
26/01/2020 07:29:02	26012020	260120	072902	74.310	12.713545	-57.244767	74.250	0.080	-0.200	-0.090	74.300	-1.500	0.300																			1580023742.0	0.13	0.24
26/01/2020 07:29:03	26012020	260120	072903	74.240	12.713545	-57.244765	74.190	0.230	-0.170	0.220	74.230	-1.500	0.600																			1580023743.0	0.29	0.54
26/01/2020 07:29:04	26012020	260120	072904	74.200	12.713543	-57.244763	74.150	0.250	-0.020	0.500	74.190	-1.400	0.900																			1580023744.0	0.25	0.46
26/01/2020 07:29:05	26012020	260120	072905	74.200	12.713543	-57.244763	74.160	0.070	0.200	0.650	74.210	-1.200	1.000																			1580023745.0	0.11	0.20
26/01/2020 07:29:06	26012020	260120	072906	74.250	12.713543	-57.244765	74.200	-0.180	0.330	0.730	74.250	-1.000	1.100																			1580023746.0	0.13	0.24
26/01/2020 07:29:07	26012020	260120	072907	74.220	12.713543	-57.244765	74.160	-0.350	0.280	0.850	74.210	-1.100	1.200																			1580023747.0	0.14	0.26
26/01/2020 07:29:08	26012020	260120	072908	74.190	12.713542	-57.244765	74.130	-0.340	0.000	0.880	74.180	-1.300	1.300																			1580023748.0	0.08	0.15
26/01/2020 07:29:09	26012020	260120	072909	74.190	12.713543	-57.244763	74.150	-0.180	-0.370	0.770	74.200	-1.700	1.200																			1580023749.0	0.22	0.41
26/01/2020 07:29:10	26012020	260120	072910	74.300	12.713543	-57.244763	74.260	0.030	-0.600	0.510	74.330	-1.900	0.900																			1580023750.0	0.31	0.57
26/01/2020 07:29:11	26012020	260120	072911	74.470	12.713545	-57.244762	74.420	0.160	-0.530	0.190	74.490	-1.900	0.600																			1580023751.0	0.27	0.50
26/01/2020 07:29:12	26012020	260120	072912	74.550	12.713547	-57.244763	74.480	0.170	-0.220	-0.030	74.550	-1.600	0.400																			1580023752.0	0.29	0.54
26/01/2020 07:29:13	26012020	260120	072913	74.520	12.713547	-57.244765	74.440	0.090	0.080	-0.130	74.500	-1.300	0.200																			1580023753.0	0.36	0.67
26/01/2020 07:29:14	26012020	260120	072914	74.440	12.713547	-57.244767	74.370	0.010	0.170	-0.160	74.430	-1.200	0.200																			1580023754.0	0.28	0.52
26/01/2020 07:29:15	26012020	260120	072915	74.410	12.713548	-57.244767	74.330	0.020	-0.030	-0.130	74.400	-1.400	0.200																			1580023755.0	0.13	0.24
26/01/2020 07:29:16	26012020	260120	072916	74.390	12.713548	-57.244765	74.330	0.160	-0.430	-0.060	74.390	-1.800	0.300																			1580023756.0	0.37	0.69
26/01/2020 07:29:17	26012020	260120	072917	74.460	12.713550	-57.244762	74.420	0.330	-0.690	0.000	74.490	-2.000	0.400																			1580023757.0	0.57	1.06
26/01/2020 07:29:18	26012020	260120	072918	74.650	12.713550	-57.244760	74.630	0.340	-0.410	0.100	74.700	-1.800	0.500																			1580023758.0	0.34	0.63
26/01/2020 07:29:19	26012020	260120	072919	74.880	12.713548	-57.244762	74.860	0.110	0.260	0.300	74.930	-1.200	0.600																			1580023759.0	0.29	0.54
26/01/2020 07:29:20	26012020	260120	072920	75.060	12.713547	-57.244763	75.030	-0.230	0.780	0.570	75.080	-0.600	0.900																			1580023760.0	0.64	1.19
26/01/2020 07:29:21	26012020	260120	072921	75.130	12.713545	-57.244765	75.080	-0.460	0.730	0.850	75.130	-0.600	1.200																			1580023761.0	0.49	0.91
26/01/2020 07:29:22	26012020	260120	072922	75.120	12.713543	-57.244763	75.080	-0.460	0.150	1.080	75.120	-1.100	1.400																			1580023762.0	0.34	0.63
26/01/2020 07:29:23	26012020	260120	072923	75.160	12.713543	-57.244762	75.140	-0.260	-0.540	1.170	75.190	-1.800	1.500																			1580023763.0	0.60	1.11
26/01/2020 07:29:24	26012020	260120	072924	75.290	12.713543	-57.244758	75.270	-0.030	-0.820	1.140	75.310	-2.200	1.500																			1580023764.0	0.53	0.98
26/01/2020 07:29:25	26012020	260120	072925	75.340	12.713542	-57.244758	75.300	0.090	-0.560	1.000	75.340	-1.900	1.400																			1580023765.0	0.13	0.24
26/01/2020 07:29:26	26012020	260120	072926	75.280	12.713543	-57.244762	75.220	0.110	-0.090	0.680	75.270	-1.500	1.100																			1580023766.0	0.50	0.93
26/01/2020 07:29:27	26012020	260120	072927	75.210	12.713545	-57.244763	75.100	0.150	0.110	0.270	75.190	-1.300	0.700																			1580023767.0	0.71	1.31
26/01/2020 07:29:28	26012020	260120	072928	75.100	12.713548	-57.244765	75.010	0.260	-0.110	-0.130	75.090	-1.400	0.300																			1580023768.0	0.69	1.28
26/01/2020 07:29:29	26012020	260120	072929	75.070	12.713552	-57.244763	75.000	0.340	-0.440	-0.490	75.070	-1.800	-0.100																			1580023769.0	0.80	1.48
26/01/2020 07:29:30	26012020	260120	072930	75.100	12.713553	-57.244762	75.040	0.260	-0.500	-0.730	75.110	-1.900	-0.300																			1580023770.0	0.73	1.35
26/01/2020 07:29:31	26012020	260120	072931	75.150	12.713555	-57.244762	75.090	0.050	-0.170	-0.730	75.150	-1.600	-0.400																			1580023771.0	0.33	0.61
26/01/2020 07:29:32	26012020	260120	072932	75.170	12.713555	-57.244762	75.130	-0.200	0.350	-0.480	75.170	-1.000	-0.100																			1580023772.0	0.25	0.46
26/01/2020 07:29:33	26012020	260120	072933	75.200	12.713553	-57.244763	75.170	-0.330	0.600	-0.090	75.210	-0.800	0.200																			1580023773.0	0.53	0.98
26/01/2020 07:29:34	26012020	260120	072934	75.230	12.713550	-57.244763	75.210	-0.260	0.340	0.360	75.240	-1.000	0.700																			1580023774.0	0.60	1.11
26/01/2020 07:29:35	26012020	260120	072935	75.270	12.713548	-57.244760	75.260	-0.060	-0.240	0.810	75.270	-1.500	1.100																			1580023775.0	0.81	1.50
26/01/2020 07:29:36	26012020	260120	072936	75.260	12.713545	-57.244757	75.240	0.110	-0.650	1.190	75.260	-2.000	1.500																			1580023776.0	0.92	1.70
26/01/2020 07:29:37	26012020	260120	072937	75.180	12.713543	-57.244755	75.150	0.130	-0.560	1.370	75.150	-1.900	1.700																			1580023777.0	0.55	1.02
26/01/2020 07:29:38	26012020	260120	072938	75.040	12.713543	-57.244755	74.990	0.040	-0.120	1.260	75.010	-1.500	1.600																			1580023778.0	0.24	0.44
26/01/2020 07:29:39	26012020	260120	072939	74.870	12.713543	-57.244758	74.820	-0.010	0.240	0.960	74.830	-1.100	1.400																			1580023779.0	0.59	1.09
26/01/2020 07:29:40	26012020	260120	072940	74.710	12.713547	-57.244760	74.660	0.000	0.250	0.560	74.690	-1.100	1.000																			1580023780.0	0.66	1.22
26/01/2020 07:29:41	26012020	260120	072941	74.690	12.713550	-57.244760	74.660	0.010	0.010	0.070	74.710	-1.300	0.500																			1580023781.0	0.72	1.33
26/01/2020 07:29:42	26012020	260120	072942	74.880	12.713553	-57.244760	74.860	-0.060	-0.220	-0.490	74.930	-1.600	-0.100																			1580023782.0	0.76	1.41
26/01/2020 07:29:43	26012020	260120	072943	75.090	12.713557	-57.244760	75.040	-0.160	-0.370	-0.830	75.100	-1.700	-0.400																			1580023783.0	0.57	1.06
26/01/2020 07:29:44	26012020	260120	072944	75.090	12.713557	-57.244758	75.010	-0.170	-0.480	-0.700	75.050	-1.800	-0.400																			1580023784.0	0.15	0.28
26/01/2020 07:29:45	26012020	260120	072945	74.890	12.713553	-57.244757	74.810	-0.060	-0.520	-0.160	74.840	-1.900	0.200																			1580023785.0	0.65	1.20
26/01/2020 07:29:46	26012020	260120	072946	74.650	12.713550	-57.244755	74.580	0.100	-0.380	0.530	74.610	-1.700	0.800																			1580023786.0	1.06	1.96
26/01/2020 07:29:47	26012020	260120	072947	74.480	12.713545	-57.244753	74.420	0.220	-0.050	1.050	74.450	-1.400	1.400																			1580023787.0	0.97	1.80
26/01/2020 07:29:48	26012020	260120	072948	74.360	12.713543	-57.244753	74.320	0.270	0.250	1.250	74.350	-1.100	1.600																			1580023788.0	0.50	0.93
26/01/2020 07:29:49	26012020	260120	072949	74.330	12.713543	-57.244753	74.310	0.290	0.330	1.050	74.350	-1.000	1.400																			1580023789.0	0.13	0.24
26/01/2020 07:29:50	26012020	260120	072950	74.460	12.713547	-57.244753	74.440	0.290	0.180	0.600	74.490	-1.200	1.000																			1580023790.0	0.66	1.22
26/01/2020 07:29:51	26012020	260120	072951	74.580	12.713550	-57.244753	74.560	0.200	-0.000	0.170	74.610	-1.400	0.600																			1580023791.0	0.91	1.69
26/01/2020 07:29:52	26012020	260120	072952	74.690	12.713553	-57.244755	74.620	-0.030	-0.030	-0.090	74.690	-1.400	0.300																			1580023792.0	0.77	1.43
26/01/2020 07:29:53	26012020	260120	072953	74.690	12.713555	-57.244755	74.610	-0.280	-0.040	-0.090	74.670	-1.400	0.300																			1580023793.0	0.40	0.74
26/01/2020 07:29:54	26012020	260120	072954	74.610	12.713555	-57.244755	74.530	-0.420	-0.180	0.210	74.590	-1.500	0.500																			1580023794.0	0.26	0.48
26/01/2020 07:29:55	26012020	260120	072955	74.490	12.713552	-57.244755	74.430	-0.440	-0.350	0.680	74.470	-1.700	1.000																			1580023795.0	0.77	1.43
26/01/2020 07:29:56	26012020	260120	072956	74.410	12.713547	-57.244753	74.370	-0.420	-0.390	1.020	74.400	-1.700	1.400																			1580023796.0	0.89	1.65
26/01/2020 07:29:57	26012020	260120	072957	74.380	12.713545	-57.244752	74.340	-0.360	-0.250	1.110	74.380	-1.600	1.500																			1580023797.0	0.63	1.17
26/01/2020 07:29:58	26012020	260120	072958	74.390	12.713543	-57.244752	74.350	-0.180	-0.150	0.980	74.400	-1.500	1.400																			1580023798.0	0.30	0.56
26/01/2020 07:29:59	26012020	260120	072959	74.420	12.713543	-57.244752	74.380	0.190	-0.290	0.700	74.430	-1.600	1.100																			1580023799.0	0.06	0.11
26/01/2020 07:30:00	26012020	260120	073000	74.500	12.713545	-57.244752	74.450	0.590	-0.490	0.280	74.520	-1.800	0.700	1013.80	25.60	25.70	20.10	20.10	-1.00	71.00	71.00	398.00	25.10	13.00	4.60	88.00	4.40	14	3288.00	27.40	27.40	1580023800.0	0.49	0.91
26/01/2020 07:30:01	26012020	260120	073001	74.600	12.713548	-57.244750	74.540	0.770	-0.420	-0.220	74.610	-1.800	0.200																			1580023801.0	0.76	1.41
26/01/2020 07:30:02	26012020	260120	073002	74.650	12.713552	-57.244750	74.570	0.640	0.010	-0.570	74.650	-1.400	-0.200																			1580023802.0	0.79	1.46
26/01/2020 07:30:03	26012020	260120	073003	74.640	12.713555	-57.244752	74.550	0.320	0.450	-0.690	74.630	-0.900	-0.300																			1580023803.0	0.72	1.33
26/01/2020 07:30:04	26012020	260120	073004	74.630	12.713557	-57.244753	74.560	0.010	0.560	-0.590	74.630	-0.800	-0.200																			1580023804.0	0.48	0.89
26/01/2020 07:30:05	26012020	260120	073005	74.660	12.713557	-57.244753	74.640	-0.220	0.320	-0.300	74.690	-1.000	0.000																			1580023805.0	0.16	0.30
26/01/2020 07:30:06	26012020	260120	073006	74.860	12.713557	-57.244753	74.850	-0.450	0.020	0.090	74.910	-1.300	0.400																			1580023806.0	0.26	0.48
26/01/2020 07:30:07	26012020	260120	073007	75.100	12.713553	-57.244752	75.090	-0.680	-0.170	0.630	75.130	-1.500	0.900																			1580023807.0	0.56	1.04
26/01/2020 07:30:08	26012020	260120	073008	75.210	12.713548	-57.244752	75.190	-0.780	-0.300	1.370	75.210	-1.600	1.700																			1580023808.0	1.04	1.93
26/01/2020 07:30:09	26012020	260120	073009	75.190	12.713543	-57.244750	75.160	-0.640	-0.450	2.070	75.170	-1.800	2.400																			1580023809.0	1.43	2.65
26/01/2020 07:30:10	26012020	260120	073010	75.090	12.713537	-57.244748	75.080	-0.290	-0.600	2.400	75.080	-1.900	2.800																			1580023810.0	1.38	2.56
26/01/2020 07:30:11	26012020	260120	073011	75.050	12.713533	-57.244747	75.040	0.140	-0.660	2.170	75.050	-2.000	2.600																			1580023811.0	0.76	1.41
26/01/2020 07:30:12	26012020	260120	073012	75.090	12.713535	-57.244745	75.080	0.520	-0.490	1.380	75.100	-1.900	1.800																			1580023812.0	0.26	0.48
26/01/2020 07:30:13	26012020	260120	073013	75.170	12.713540	-57.244747	75.130	0.720	-0.080	0.240	75.190	-1.500	0.700																			1580023813.0	1.16	2.15
26/01/2020 07:30:14	26012020	260120	073014	75.250	12.713547	-57.244750	75.200	0.720	0.330	-0.940	75.280	-1.000	-0.500																			1580023814.0	1.75	3.24
26/01/2020 07:30:15	26012020	260120	073015	75.440	12.713555	-57.244753	75.370	0.540	0.440	-1.960	75.480	-0.900	-1.500																			1580023815.0	1.90	3.52
26/01/2020 07:30:16	26012020	260120	073016	75.660	12.713563	-57.244755	75.580	0.250	0.210	-2.540	75.700	-1.100	-2.100																			1580023816.0	1.61	2.98
26/01/2020 07:30:17	26012020	260120	073017	75.790	12.713567	-57.244755	75.710	-0.040	-0.100	-2.360	75.810	-1.400	-2.000																			1580023817.0	0.86	1.59
26/01/2020 07:30:18	26012020	260120	073018	75.810	12.713565	-57.244753	75.720	-0.270	-0.340	-1.320	75.800	-1.700	-1.100																			1580023818.0	0.51	0.94
26/01/2020 07:30:19	26012020	260120	073019	75.760	12.713558	-57.244750	75.700	-0.420	-0.410	0.230	75.750	-1.800	0.500																			1580023819.0	1.64	3.04
26/01/2020 07:30:20	26012020	260120	073020	75.760	12.713548	-57.244747	75.760	-0.530	-0.260	1.700	75.770	-1.600	2.000																			1580023820.0	2.21	4.09
26/01/2020 07:30:21	26012020	260120	073021	75.840	12.713538	-57.244747	75.870	-0.610	0.050	2.730	75.860	-1.300	3.000																			1580023821.0	2.07	3.83
26/01/2020 07:30:22	26012020	260120	073022	75.950	12.713532	-57.244747	76.010	-0.560	0.290	3.150	75.980	-1.100	3.500																			1580023822.0	1.47	2.72
26/01/2020 07:30:23	26012020	260120	073023	76.080	12.713528	-57.244747	76.110	-0.320	0.230	2.960	76.100	-1.100	3.400																			1580023823.0	0.65	1.20
26/01/2020 07:30:24	26012020	260120	073024	76.130	12.713530	-57.244747	76.130	0.060	-0.140	2.250	76.130	-1.400	2.700																			1580023824.0	0.24	0.44
26/01/2020 07:30:25	26012020	260120	073025	76.150	12.713535	-57.244747	76.130	0.440	-0.580	1.170	76.160	-1.900	1.700																			1580023825.0	1.06	1.96
26/01/2020 07:30:26	26012020	260120	073026	76.210	12.713542	-57.244745	76.180	0.650	-0.760	-0.080	76.230	-2.100	0.400																			1580023826.0	1.55	2.87
26/01/2020 07:30:27	26012020	260120	073027	76.320	12.713550	-57.244747	76.260	0.610	-0.520	-1.240	76.340	-1.900	-0.800																			1580023827.0	1.65	3.06
26/01/2020 07:30:28	26012020	260120	073028	76.420	12.713557	-57.244750	76.330	0.380	-0.000	-2.040	76.430	-1.400	-1.600																			1580023828.0	1.46	2.70
26/01/2020 07:30:29	26012020	260120	073029	76.440	12.713560	-57.244753	76.330	0.110	0.380	-2.220	76.430	-1.000	-1.900																			1580023829.0	1.03	1.91
26/01/2020 07:30:30	26012020	260120	073030	76.360	12.713560	-57.244753	76.260	-0.030	0.330	-1.730	76.330	-1.000	-1.400																			1580023830.0	0.27	0.50
26/01/2020 07:30:31	26012020	260120	073031	76.250	12.713558	-57.244752	76.170	-0.010	-0.080	-0.800	76.230	-1.400	-0.500																			1580023831.0	0.61	1.13
26/01/2020 07:30:32	26012020	260120	073032	76.190	12.713553	-57.244748	76.150	-0.010	-0.440	0.320	76.190	-1.800	0.600																			1580023832.0	1.23	2.28
26/01/2020 07:30:33	26012020	260120	073033	76.250	12.713548	-57.244745	76.260	-0.160	-0.430	1.360	76.270	-1.800	1.600																			1580023833.0	1.45	2.69
26/01/2020 07:30:34	26012020	260120	073034	76.390	12.713542	-57.244743	76.410	-0.440	-0.030	2.210	76.420	-1.400	2.500																			1580023834.0	1.43	2.65
26/01/2020 07:30:35	26012020	260120	073035	76.450	12.713535	-57.244745	76.460	-0.650	0.450	2.800	76.440	-0.900	3.100																			1580023835.0	1.37	2.54
26/01/2020 07:30:36	26012020	260120	073036	76.350	12.713530	-57.244747	76.340	-0.610	0.580	2.980	76.320	-0.800	3.300																			1580023836.0	1.03	1.91
26/01/2020 07:30:37	26012020	260120	073037	76.170	12.713528	-57.244747	76.140	-0.280	0.150	2.630	76.130	-1.100	3.000																			1580023837.0	0.29	0.54
26/01/2020 07:30:38	26012020	260120	073038	76.010	12.713532	-57.244745	75.980	0.190	-0.560	1.730	75.990	-1.900	2.200																			1580023838.0	0.69	1.28
26/01/2020 07:30:39	26012020	260120	073039	75.930	12.713538	-57.244743	75.880	0.560	-1.000	0.500	75.920	-2.300	1.000																			1580023839.0	1.42	2.63
26/01/2020 07:30:40	26012020	260120	073040	75.880	12.713547	-57.244745	75.810	0.670	-0.850	-0.770	75.880	-2.200	-0.300																			1580023840.0	1.72	3.19
26/01/2020 07:30:41	26012020	260120	073041	75.860	12.713553	-57.244747	75.750	0.530	-0.280	-1.760	75.850	-1.700	-1.300																			1580023841.0	1.70	3.15
26/01/2020 07:30:42	26012020	260120	073042	75.810	12.713558	-57.244752	75.710	0.260	0.270	-2.190	75.810	-1.100	-1.800																			1580023842.0	1.35	2.50
26/01/2020 07:30:43	26012020	260120	073043	75.790	12.713562	-57.244753	75.690	-0.010	0.480	-2.040	75.790	-0.900	-1.700																			1580023843.0	0.60	1.11
26/01/2020 07:30:44	26012020	260120	073044	75.820	12.713560	-57.244752	75.740	-0.240	0.310	-1.450	75.830	-1.000	-1.100																			1580023844.0	0.29	0.54
26/01/2020 07:30:45	26012020	260120	073045	75.800	12.713557	-57.244750	75.710	-0.360	-0.090	-0.440	75.770	-1.400	-0.200																			1580023845.0	1.04	1.93
26/01/2020 07:30:46	26012020	260120	073046	75.620	12.713550	-57.244745	75.550	-0.320	-0.420	0.850	75.580	-1.700	1.100																			1580023846.0	1.58	2.93
26/01/2020 07:30:47	26012020	260120	073047	75.390	12.713542	-57.244742	75.360	-0.180	-0.440	2.060	75.360	-1.800	2.300																			1580023847.0	1.78	3.30
26/01/2020 07:30:48	26012020	260120	073048	75.280	12.713535	-57.244740	75.300	-0.030	-0.200	2.760	75.280	-1.600	3.100																			1580023848.0	1.48	2.74
26/01/2020 07:30:49	26012020	260120	073049	75.340	12.713532	-57.244740	75.370	0.040	0.060	2.730	75.370	-1.300	3.100																			1580023849.0	0.72	1.33
26/01/2020 07:30:50	26012020	260120	073050	75.500	12.713533	-57.244742	75.540	0.040	0.160	2.020	75.540	-1.200	2.500																			1580023850.0	0.33	0.61
26/01/2020 07:30:51	26012020	260120	073051	75.700	12.713537	-57.244743	75.700	0.010	0.100	0.940	75.730	-1.200	1.400																			1580023851.0	1.02	1.89
26/01/2020 07:30:52	26012020	260120	073052	75.820	12.713543	-57.244745	75.760	0.020	-0.010	-0.110	75.820	-1.400	0.300																			1580023852.0	1.28	2.37
26/01/2020 07:30:53	26012020	260120	073053	75.810	12.713548	-57.244747	75.710	0.070	-0.170	-0.910	75.790	-1.500	-0.500																			1580023853.0	1.08	2.00
26/01/2020 07:30:54	26012020	260120	073054	75.690	12.713552	-57.244747	75.560	0.120	-0.380	-1.410	75.650	-1.700	-1.000																			1580023854.0	0.81	1.50
26/01/2020 07:30:55	26012020	260120	073055	75.520	12.713555	-57.244747	75.340	0.130	-0.530	-1.540	75.470	-1.900	-1.200																			1580023855.0	0.54	1.00
26/01/2020 07:30:56	26012020	260120	073056	75.280	12.713555	-57.244747	75.200	0.080	-0.450	-1.320	75.270	-1.800	-1.000																			1580023856.0	0.16	0.30
26/01/2020 07:30:57	26012020	260120	073057	75.300	12.713553	-57.244747	75.270	0.000	-0.210	-0.890	75.330	-1.600	-0.600																			1580023857.0	0.28	0.52
26/01/2020 07:30:58	26012020	260120	073058	75.500	12.713550	-57.244747	75.490	-0.040	-0.020	-0.320	75.540	-1.400	0.000																			1580023858.0	0.63	1.17
26/01/2020 07:30:59	26012020	260120	073059	75.670	12.713547	-57.244745	75.650	-0.050	0.030	0.440	75.680	-1.300	0.700																			1580023859.0	0.91	1.69
26/01/2020 07:31:00	26012020	260120	073100	75.670	12.713542	-57.244743	75.640	-0.060	0.050	1.240	75.660	-1.300	1.500	1013.80	25.60	25.70	20.30	20.30	-1.00	72.00	72.00	400.00	25.10	13.00	5.30	90.00	4.80	14	3172.00	27.40	27.40	1580023860.0	1.13	2.09
26/01/2020 07:31:01	26012020	260120	073101	75.600	12.713537	-57.244742	75.580	-0.110	0.140	1.880	75.590	-1.200	2.200																			1580023861.0	1.09	2.02
26/01/2020 07:31:02	26012020	260120	073102	75.540	12.713533	-57.244742	75.520	-0.190	0.270	2.170	75.530	-1.100	2.500																			1580023862.0	0.76	1.41
26/01/2020 07:31:03	26012020	260120	073103	75.540	12.713532	-57.244743	75.540	-0.200	0.200	2.000	75.550	-1.100	2.400																			1580023863.0	0.32	0.59
26/01/2020 07:31:04	26012020	260120	073104	75.640	12.713533	-57.244743	75.620	-0.050	-0.160	1.430	75.650	-1.500	1.800																			1580023864.0	0.37	0.69
26/01/2020 07:31:05	26012020	260120	073105	75.700	12.713537	-57.244743	75.650	0.170	-0.540	0.750	75.700	-1.900	1.200																			1580023865.0	0.66	1.22
26/01/2020 07:31:06	26012020	260120	073106	75.660	12.713540	-57.244743	75.570	0.300	-0.670	0.140	75.650	-2.000	0.600																			1580023866.0	0.68	1.26
26/01/2020 07:31:07	26012020	260120	073107	75.560	12.713543	-57.244743	75.420	0.260	-0.440	-0.340	75.540	-1.800	0.100																			1580023867.0	0.58	1.07
26/01/2020 07:31:08	26012020	260120	073108	75.360	12.713545	-57.244747	75.230	0.100	0.000	-0.710	75.330	-1.400	-0.300																			1580023868.0	0.61	1.13
26/01/2020 07:31:09	26012020	260120	073109	75.270	12.713547	-57.244748	75.170	-0.030	0.260	-0.990	75.270	-1.100	-0.600																			1580023869.0	0.62	1.15
26/01/2020 07:31:10	26012020	260120	073110	75.370	12.713548	-57.244750	75.300	-0.070	0.200	-1.090	75.410	-1.100	-0.700																			1580023870.0	0.40	0.74
26/01/2020 07:31:11	26012020	260120	073111	75.550	12.713548	-57.244748	75.470	-0.100	-0.020	-0.810	75.570	-1.400	-0.500																			1580023871.0	0.17	0.31
26/01/2020 07:31:12	26012020	260120	073112	75.610	12.713547	-57.244747	75.530	-0.210	-0.120	-0.130	75.600	-1.500	0.200																			1580023872.0	0.53	0.98
26/01/2020 07:31:13	26012020	260120	073113	75.460	12.713542	-57.244747	75.350	-0.340	-0.080	0.760	75.410	-1.400	1.000																			1580023873.0	1.04	1.93
26/01/2020 07:31:14	26012020	260120	073114	75.130	12.713535	-57.244747	75.030	-0.320	-0.150	1.660	75.050	-1.500	1.900																			1580023874.0	1.28	2.37
26/01/2020 07:31:15	26012020	260120	073115	74.830	12.713530	-57.244743	74.780	-0.060	-0.450	2.290	74.790	-1.800	2.600																			1580023875.0	1.15	2.13
26/01/2020 07:31:16	26012020	260120	073116	74.720	12.713528	-57.244742	74.710	0.300	-0.730	2.450	74.720	-2.000	2.800																			1580023876.0	0.81	1.50
26/01/2020 07:31:17	26012020	260120	073117	74.780	12.713528	-57.244740	74.790	0.500	-0.560	2.020	74.800	-1.900	2.400																			1580023877.0	0.37	0.69
26/01/2020 07:31:18	26012020	260120	073118	74.920	12.713532	-57.244742	74.900	0.390	0.120	1.160	74.940	-1.300	1.600																			1580023878.0	0.71	1.31
26/01/2020 07:31:19	26012020	260120	073119	75.010	12.713537	-57.244745	74.950	0.050	0.850	0.160	75.020	-0.500	0.600																			1580023879.0	1.40	2.59
26/01/2020 07:31:20	26012020	260120	073120	75.000	12.713542	-57.244750	74.900	-0.250	1.000	-0.670	74.990	-0.300	-0.200																			1580023880.0	1.54	2.85
26/01/2020 07:31:21	26012020	260120	073121	74.920	12.713545	-57.244753	74.790	-0.280	0.370	-1.150	74.890	-0.900	-0.700																			1580023881.0	1.09	2.02
26/01/2020 07:31:22	26012020	260120	073122	74.760	12.713548	-57.244752	74.610	-0.080	-0.610	-1.160	74.720	-1.900	-0.800																			1580023882.0	0.73	1.35
26/01/2020 07:31:23	26012020	260120	073123	74.550	12.713548	-57.244748	74.430	0.090	-1.210	-0.820	74.520	-2.500	-0.500																			1580023883.0	0.68	1.26
26/01/2020 07:31:24	26012020	260120	073124	74.430	12.713547	-57.244747	74.350	0.070	-1.130	-0.330	74.420	-2.500	0.000																			1580023884.0	0.50	0.93
26/01/2020 07:31:25	26012020	260120	073125	74.390	12.713545	-57.244747	74.320	-0.080	-0.550	0.250	74.390	-1.900	0.600																			1580023885.0	0.68	1.26
26/01/2020 07:31:26	26012020	260120	073126	74.380	12.713540	-57.244748	74.340	-0.190	0.120	0.870	74.390	-1.300	1.200																			1580023886.0	0.99	1.83
26/01/2020 07:31:27	26012020	260120	073127	74.460	12.713535	-57.244748	74.450	-0.170	0.530	1.310	74.490	-0.800	1.600																			1580023887.0	0.99	1.83
26/01/2020 07:31:28	26012020	260120	073128	74.630	12.713532	-57.244748	74.620	-0.080	0.570	1.430	74.660	-0.800	1.800																			1580023888.0	0.62	1.15
26/01/2020 07:31:29	26012020	260120	073129	74.750	12.713532	-57.244748	74.720	0.030	0.310	1.260	74.770	-1.000	1.600																			1580023889.0	0.09	0.17
26/01/2020 07:31:30	26012020	260120	073130	74.820	12.713535	-57.244748	74.760	0.130	-0.060	0.930	74.820	-1.400	1.300																			1580023890.0	0.43	0.80
26/01/2020 07:31:31	26012020	260120	073131	74.830	12.713537	-57.244748	74.750	0.240	-0.370	0.550	74.820	-1.700	1.000																			1580023891.0	0.59	1.09
26/01/2020 07:31:32	26012020	260120	073132	74.840	12.713540	-57.244748	74.780	0.350	-0.590	0.140	74.860	-1.900	0.500																			1580023892.0	0.67	1.24
26/01/2020 07:31:33	26012020	260120	073133	74.950	12.713543	-57.244748	74.910	0.370	-0.630	-0.270	74.990	-2.000	0.100																			1580023893.0	0.73	1.35
26/01/2020 07:31:34	26012020	260120	073134	75.080	12.713547	-57.244750	75.000	0.200	-0.350	-0.420	75.080	-1.700	-0.000																			1580023894.0	0.56	1.04
26/01/2020 07:31:35	26012020	260120	073135	75.060	12.713547	-57.244752	74.990	-0.140	0.160	-0.220	75.060	-1.200	0.100																			1580023895.0	0.31	0.57
26/01/2020 07:31:36	26012020	260120	073136	75.040	12.713543	-57.244753	74.990	-0.500	0.550	0.140	75.050	-0.800	0.500																			1580023896.0	0.58	1.07
26/01/2020 07:31:37	26012020	260120	073137	75.130	12.713542	-57.244753	75.110	-0.680	0.540	0.460	75.160	-0.800	0.800																			1580023897.0	0.65	1.20
26/01/2020 07:31:38	26012020	260120	073138	75.330	12.713538	-57.244753	75.330	-0.580	0.150	0.670	75.380	-1.200	1.000																			1580023898.0	0.58	1.07
26/01/2020 07:31:39	26012020	260120	073139	75.580	12.713537	-57.244750	75.570	-0.230	-0.380	0.780	75.620	-1.700	1.100																			1580023899.0	0.58	1.07
26/01/2020 07:31:40	26012020	260120	073140	75.720	12.713535	-57.244748	75.670	0.220	-0.740	0.900	75.720	-2.100	1.300																			1580023900.0	0.50	0.93
26/01/2020 07:31:41	26012020	260120	073141	75.670	12.713535	-57.244747	75.610	0.590	-0.820	1.020	75.650	-2.200	1.400																			1580023901.0	0.33	0.61
26/01/2020 07:31:42	26012020	260120	073142	75.560	12.713535	-57.244747	75.490	0.710	-0.580	1.000	75.540	-1.900	1.400																			1580023902.0	0.14	0.26
26/01/2020 07:31:43	26012020	260120	073143	75.490	12.713537	-57.244748	75.440	0.570	-0.080	0.840	75.490	-1.500	1.200																			1580023903.0	0.40	0.74
26/01/2020 07:31:44	26012020	260120	073144	75.480	12.713538	-57.244750	75.430	0.220	0.430	0.610	75.480	-0.900	1.000																			1580023904.0	0.60	1.11
26/01/2020 07:31:45	26012020	260120	073145	75.490	12.713540	-57.244752	75.440	-0.200	0.640	0.360	75.490	-0.700	0.800																			1580023905.0	0.59	1.09
26/01/2020 07:31:46	26012020	260120	073146	75.540	12.713542	-57.244752	75.490	-0.490	0.400	0.140	75.550	-0.900	0.500																			1580023906.0	0.34	0.63
26/01/2020 07:31:47	26012020	260120	073147	75.610	12.713543	-57.244752	75.560	-0.540	-0.070	0.020	75.620	-1.400	0.400																			1580023907.0	0.27	0.50
26/01/2020 07:31:48	26012020	260120	073148	75.600	12.713542	-57.244750	75.520	-0.380	-0.490	0.070	75.580	-1.800	0.400																			1580023908.0	0.42	0.78
26/01/2020 07:31:49	26012020	260120	073149	75.420	12.713542	-57.244748	75.320	-0.090	-0.690	0.260	75.380	-2.000	0.600																			1580023909.0	0.41	0.76
26/01/2020 07:31:50	26012020	260120	073150	75.210	12.713540	-57.244747	75.130	0.220	-0.640	0.430	75.170	-2.000	0.800																			1580023910.0	0.32	0.59
26/01/2020 07:31:51	26012020	260120	073151	75.090	12.713540	-57.244747	75.040	0.410	-0.330	0.470	75.090	-1.700	0.800																			1580023911.0	0.10	0.19
26/01/2020 07:31:52	26012020	260120	073152	75.140	12.713540	-57.244747	75.100	0.360	0.120	0.280	75.160	-1.300	0.700																			1580023912.0	0.30	0.56
26/01/2020 07:31:53	26012020	260120	073153	75.300	12.713542	-57.244750	75.260	0.090	0.500	0.060	75.320	-0.900	0.400																			1580023913.0	0.58	1.07
26/01/2020 07:31:54	26012020	260120	073154	75.400	12.713543	-57.244752	75.340	-0.230	0.590	-0.000	75.410	-0.800	0.400																			1580023914.0	0.48	0.89
26/01/2020 07:31:55	26012020	260120	073155	75.360	12.713543	-57.244752	75.280	-0.370	0.260	0.120	75.340	-1.100	0.500																			1580023915.0	0.12	0.22
26/01/2020 07:31:56	26012020	260120	073156	75.230	12.713543	-57.244750	75.140	-0.230	-0.370	0.380	75.200	-1.700	0.700																			1580023916.0	0.34	0.63
26/01/2020 07:31:57	26012020	260120	073157	75.090	12.713542	-57.244748	74.980	0.060	-0.840	0.740	75.050	-2.200	1.100																			1580023917.0	0.66	1.22
26/01/2020 07:31:58	26012020	260120	073158	74.870	12.713538	-57.244747	74.790	0.230	-0.880	1.050	74.830	-2.200	1.400																			1580023918.0	0.68	1.26
26/01/2020 07:31:59	26012020	260120	073159	74.710	12.713537	-57.244745	74.600	0.170	-0.590	1.130	74.670	-2.000	1.500																			1580023919.0	0.43	0.80
26/01/2020 07:32:00	26012020	260120	073200	74.550	12.713537	-57.244747	74.500	0.030	-0.180	0.880	74.540	-1.600	1.300	1013.80	25.60	25.60	19.80	19.90	-1.00	70.00	70.00	403.00	25.10	10.00	5.40	85.00	5.10	14	3274.00	27.40	27.40	1580023920.0	0.18	0.33
26/01/2020 07:32:01	26012020	260120	073201	74.600	12.713538	-57.244748	74.580	-0.030	0.210	0.330	74.640	-1.200	0.800																			1580023921.0	0.46	0.85
26/01/2020 07:32:02	26012020	260120	073202	74.800	12.713542	-57.244748	74.770	0.050	0.460	-0.300	74.840	-0.900	0.100																			1580023922.0	0.65	1.20
26/01/2020 07:32:03	26012020	260120	073203	74.980	12.713543	-57.244750	74.920	0.140	0.450	-0.820	75.000	-0.900	-0.400																			1580023923.0	0.64	1.19
26/01/2020 07:32:04	26012020	260120	073204	75.040	12.713547	-57.244750	74.960	0.130	0.230	-1.110	75.040	-1.100	-0.700																			1580023924.0	0.59	1.09
26/01/2020 07:32:05	26012020	260120	073205	75.030	12.713548	-57.244750	74.940	0.040	-0.010	-1.110	75.020	-1.300	-0.700																			1580023925.0	0.48	0.89
26/01/2020 07:32:06	26012020	260120	073206	75.000	12.713550	-57.244750	74.930	-0.030	-0.170	-0.810	75.000	-1.500	-0.500																			1580023926.0	0.14	0.26
26/01/2020 07:32:07	26012020	260120	073207	75.010	12.713548	-57.244750	74.950	-0.000	-0.370	-0.260	75.010	-1.700	0.100																			1580023927.0	0.32	0.59
26/01/2020 07:32:08	26012020	260120	073208	74.970	12.713545	-57.244748	74.910	0.050	-0.570	0.530	74.950	-1.900	0.800																			1580023928.0	0.79	1.46
26/01/2020 07:32:09	26012020	260120	073209	74.830	12.713540	-57.244747	74.790	-0.010	-0.560	1.390	74.800	-1.900	1.700																			1580023929.0	1.12	2.07
26/01/2020 07:32:10	26012020	260120	073210	74.680	12.713535	-57.244745	74.650	-0.200	-0.280	2.020	74.660	-1.600	2.400																			1580023930.0	1.10	2.04
26/01/2020 07:32:11	26012020	260120	073211	74.630	12.713532	-57.244745	74.630	-0.380	0.010	2.180	74.640	-1.400	2.600																			1580023931.0	0.78	1.44
26/01/2020 07:32:12	26012020	260120	073212	74.700	12.713530	-57.244745	74.700	-0.360	0.080	1.900	74.720	-1.300	2.300																			1580023932.0	0.32	0.59
26/01/2020 07:32:13	26012020	260120	073213	74.810	12.713530	-57.244745	74.800	-0.150	-0.020	1.320	74.830	-1.400	1.800																			1580023933.0	0.19	0.35
26/01/2020 07:32:14	26012020	260120	073214	74.920	12.713533	-57.244743	74.890	0.140	-0.060	0.530	74.940	-1.400	1.000																			1580023934.0	0.48	0.89
26/01/2020 07:32:15	26012020	260120	073215	75.000	12.713537	-57.244743	74.930	0.380	-0.010	-0.370	75.010	-1.400	0.100																			1580023935.0	0.77	1.43
26/01/2020 07:32:16	26012020	260120	073216	74.980	12.713542	-57.244745	74.870	0.520	0.010	-1.130	74.960	-1.300	-0.700																			1580023936.0	1.05	1.94
26/01/2020 07:32:17	26012020	260120	073217	74.870	12.713547	-57.244747	74.750	0.540	-0.060	-1.620	74.860	-1.400	-1.200																			1580023937.0	1.09	2.02
26/01/2020 07:32:18	26012020	260120	073218	74.840	12.713550	-57.244747	74.750	0.370	-0.110	-1.760	74.860	-1.400	-1.400																			1580023938.0	0.93	1.72
26/01/2020 07:32:19	26012020	260120	073219	74.920	12.713552	-57.244747	74.850	0.060	-0.100	-1.430	74.940	-1.400	-1.100																			1580023939.0	0.49	0.91
26/01/2020 07:32:20	26012020	260120	073220	75.010	12.713552	-57.244747	74.960	-0.260	-0.080	-0.580	75.020	-1.400	-0.300																			1580023940.0	0.28	0.52
26/01/2020 07:32:21	26012020	260120	073221	75.020	12.713545	-57.244747	74.970	-0.500	-0.100	0.630	75.010	-1.400	0.900																			1580023941.0	1.17	2.17
26/01/2020 07:32:22	26012020	260120	073222	74.930	12.713537	-57.244743	74.900	-0.600	-0.150	1.950	74.910	-1.500	2.200																			1580023942.0	1.85	3.43
26/01/2020 07:32:23	26012020	260120	073223	74.840	12.713528	-57.244740	74.830	-0.550	-0.240	2.990	74.830	-1.600	3.300																			1580023943.0	2.07	3.83
26/01/2020 07:32:24	26012020	260120	073224	74.820	12.713522	-57.244738	74.840	-0.320	-0.330	3.420	74.830	-1.700	3.800																			1580023944.0	1.63	3.02
26/01/2020 07:32:25	26012020	260120	073225	74.890	12.713518	-57.244737	74.900	0.050	-0.300	3.130	74.900	-1.600	3.600																			1580023945.0	0.78	1.44
26/01/2020 07:32:26	26012020	260120	073226	74.930	12.713518	-57.244737	74.910	0.400	-0.140	2.200	74.940	-1.500	2.700																			1580023946.0	0.25	0.46
26/01/2020 07:32:27	26012020	260120	073227	74.940	12.713525	-57.244738	74.890	0.560	-0.020	0.760	74.950	-1.400	1.300																			1580023947.0	1.32	2.44
26/01/2020 07:32:28	26012020	260120	073228	75.000	12.713535	-57.244742	74.920	0.520	-0.020	-0.850	75.020	-1.400	-0.300																			1580023948.0	2.15	3.98
26/01/2020 07:32:29	26012020	260120	073229	75.090	12.713545	-57.244743	74.990	0.380	-0.050	-2.170	75.110	-1.400	-1.700																			1580023949.0	2.38	4.41
26/01/2020 07:32:30	26012020	260120	073230	75.170	12.713553	-57.244745	75.060	0.200	-0.080	-2.770	75.190	-1.400	-2.400																			1580023950.0	1.75	3.24
26/01/2020 07:32:31	26012020	260120	073231	75.200	12.713557	-57.244745	75.070	-0.020	-0.110	-2.520	75.190	-1.500	-2.200																			1580023951.0	0.57	1.06
26/01/2020 07:32:32	26012020	260120	073232	75.150	12.713553	-57.244745	75.060	-0.280	-0.150	-1.580	75.150	-1.500	-1.300																			1580023952.0	0.67	1.24
26/01/2020 07:32:33	26012020	260120	073233	75.180	12.713547	-57.244742	75.130	-0.510	-0.120	-0.330	75.190	-1.500	-0.100																			1580023953.0	1.54	2.85
26/01/2020 07:32:34	26012020	260120	073234	75.250	12.713538	-57.244740	75.220	-0.610	-0.020	1.020	75.250	-1.400	1.300																			1580023954.0	1.91	3.54
26/01/2020 07:32:35	26012020	260120	073235	75.260	12.713528	-57.244738	75.250	-0.510	0.120	2.260	75.260	-1.200	2.500																			1580023955.0	1.93	3.57
26/01/2020 07:32:36	26012020	260120	073236	75.290	12.713522	-57.244737	75.300	-0.220	0.100	3.040	75.310	-1.200	3.400																			1580023956.0	1.57	2.91
26/01/2020 07:32:37	26012020	260120	073237	75.360	12.713518	-57.244737	75.370	0.210	-0.170	3.210	75.370	-1.500	3.600																			1580023957.0	0.83	1.54
26/01/2020 07:32:38	26012020	260120	073238	75.410	12.713518	-57.244735	75.400	0.560	-0.490	2.830	75.410	-1.800	3.300																			1580023958.0	0.30	0.56
26/01/2020 07:32:39	26012020	260120	073239	75.430	12.713522	-57.244735	75.410	0.670	-0.560	1.950	75.440	-1.900	2.400																			1580023959.0	0.87	1.61
26/01/2020 07:32:40	26012020	260120	073240	75.490	12.713528	-57.244737	75.450	0.510	-0.370	0.780	75.500	-1.700	1.300																			1580023960.0	1.40	2.59
26/01/2020 07:32:41	26012020	260120	073241	75.570	12.713535	-57.244738	75.500	0.220	-0.090	-0.340	75.590	-1.500	0.100																			1580023961.0	1.55	2.87
26/01/2020 07:32:42	26012020	260120	073242	75.640	12.713542	-57.244740	75.540	-0.060	0.080	-1.170	75.650	-1.300	-0.700																			1580023962.0	1.30	2.41
26/01/2020 07:32:43	26012020	260120	073243	75.660	12.713545	-57.244742	75.540	-0.250	0.090	-1.570	75.660	-1.300	-1.200																			1580023963.0	0.82	1.52
26/01/2020 07:32:44	26012020	260120	073244	75.660	12.713545	-57.244742	75.550	-0.360	0.100	-1.570	75.660	-1.200	-1.200																			1580023964.0	0.20	0.37
26/01/2020 07:32:45	26012020	260120	073245	75.720	12.713543	-57.244742	75.630	-0.410	0.130	-1.250	75.730	-1.200	-0.900																			1580023965.0	0.42	0.78
26/01/2020 07:32:46	26012020	260120	073246	75.800	12.713540	-57.244740	75.730	-0.370	0.080	-0.680	75.810	-1.300	-0.400																			1580023966.0	0.76	1.41
26/01/2020 07:32:47	26012020	260120	073247	75.870	12.713537	-57.244738	75.860	-0.180	-0.100	0.040	75.890	-1.400	0.400																			1580023967.0	0.87	1.61
26/01/2020 07:32:48	26012020	260120	073248	76.030	12.713533	-57.244737	76.000	0.090	-0.310	0.750	76.050	-1.600	1.100																			1580023968.0	0.84	1.56
26/01/2020 07:32:49	26012020	260120	073249	76.090	12.713530	-57.244735	76.050	0.310	-0.380	1.410	76.100	-1.700	1.700																			1580023969.0	0.74	1.37
26/01/2020 07:32:50	26012020	260120	073250	76.050	12.713527	-57.244735	76.010	0.330	-0.300	1.940	76.040	-1.600	2.300																			1580023970.0	0.62	1.15
26/01/2020 07:32:51	26012020	260120	073251	75.960	12.713525	-57.244735	75.920	0.160	-0.160	2.260	75.940	-1.500	2.600																			1580023971.0	0.45	0.83
26/01/2020 07:32:52	26012020	260120	073252	75.870	12.713523	-57.244735	75.830	-0.070	-0.030	2.260	75.860	-1.400	2.700																			1580023972.0	0.22	0.41
26/01/2020 07:32:53	26012020	260120	073253	75.850	12.713525	-57.244735	75.820	-0.190	0.040	1.860	75.860	-1.300	2.300																			1580023973.0	0.15	0.28
26/01/2020 07:32:54	26012020	260120	073254	75.890	12.713527	-57.244735	75.850	-0.150	0.010	1.170	75.900	-1.300	1.600																			1580023974.0	0.45	0.83
26/01/2020 07:32:55	26012020	260120	073255	75.950	12.713530	-57.244737	75.890	-0.000	-0.090	0.350	75.960	-1.400	0.800																			1580023975.0	0.72	1.33
26/01/2020 07:32:56	26012020	260120	073256	75.970	12.713535	-57.244737	75.860	0.120	-0.180	-0.420	75.950	-1.500	0.000																			1580023976.0	0.90	1.67
26/01/2020 07:32:57	26012020	260120	073257	75.850	12.713538	-57.244737	75.710	0.150	-0.280	-0.900	75.810	-1.600	-0.500																			1580023977.0	0.89	1.65
26/01/2020 07:32:58	26012020	260120	073258	75.680	12.713542	-57.244737	75.550	0.110	-0.380	-1.080	75.650	-1.700	-0.700																			1580023978.0	0.61	1.13
26/01/2020 07:32:59	26012020	260120	073259	75.580	12.713542	-57.244737	75.470	0.020	-0.360	-1.010	75.560	-1.700	-0.600																			1580023979.0	0.28	0.52
26/01/2020 07:33:00	26012020	260120	073300	75.560	12.713542	-57.244737	75.480	-0.120	-0.090	-0.700	75.570	-1.500	-0.300	1013.80	25.60	25.60	19.90	20.00	-1.00	71.00	70.00	405.00	25.10	12.00	5.80	88.00	5.40	14	3269.00	27.40	27.40	1580023980.0	0.14	0.26
26/01/2020 07:33:01	26012020	260120	073301	75.610	12.713540	-57.244737	75.550	-0.250	0.320	-0.150	75.620	-1.100	0.200																			1580023981.0	0.55	1.02
26/01/2020 07:33:02	26012020	260120	073302	75.670	12.713535	-57.244738	75.610	-0.320	0.560	0.520	75.680	-0.800	0.800																			1580023982.0	0.94	1.74
26/01/2020 07:33:03	26012020	260120	073303	75.710	12.713530	-57.244738	75.650	-0.240	0.310	1.100	75.710	-1.000	1.400																			1580023983.0	0.97	1.80
26/01/2020 07:33:04	26012020	260120	073304	75.700	12.713528	-57.244735	75.630	0.010	-0.310	1.460	75.690	-1.600	1.800																			1580023984.0	0.73	1.35
26/01/2020 07:33:05	26012020	260120	073305	75.650	12.713527	-57.244733	75.590	0.290	-0.780	1.570	75.640	-2.100	1.900																			1580023985.0	0.57	1.06
26/01/2020 07:33:06	26012020	260120	073306	75.620	12.713528	-57.244732	75.570	0.400	-0.680	1.490	75.620	-2.000	1.900																			1580023986.0	0.26	0.48
26/01/2020 07:33:07	26012020	260120	073307	75.600	12.713528	-57.244733	75.550	0.280	-0.180	1.310	75.600	-1.600	1.700																			1580023987.0	0.40	0.74
26/01/2020 07:33:08	26012020	260120	073308	75.590	12.713530	-57.244737	75.540	0.080	0.110	0.950	75.600	-1.200	1.400																			1580023988.0	0.62	1.15
26/01/2020 07:33:09	26012020	260120	073309	75.610	12.713532	-57.244738	75.540	-0.040	-0.080	0.420	75.610	-1.400	0.900																			1580023989.0	0.55	1.02
26/01/2020 07:33:10	26012020	260120	073310	75.630	12.713535	-57.244737	75.550	-0.070	-0.360	-0.160	75.630	-1.700	0.300																			1580023990.0	0.77	1.43
26/01/2020 07:33:11	26012020	260120	073311	75.640	12.713538	-57.244735	75.550	-0.160	-0.240	-0.640	75.650	-1.600	-0.200																			1580023991.0	0.63	1.17
26/01/2020 07:33:12	26012020	260120	073312	75.700	12.713538	-57.244737	75.610	-0.310	0.210	-0.910	75.720	-1.200	-0.500																			1580023992.0	0.37	0.69
26/01/2020 07:33:13	26012020	260120	073313	75.800	12.713538	-57.244738	75.760	-0.400	0.520	-0.910	75.830	-0.800	-0.500																			1580023993.0	0.47	0.87
26/01/2020 07:33:14	26012020	260120	073314	76.020	12.713537	-57.244740	75.970	-0.300	0.390	-0.770	76.060	-0.900	-0.400																			1580023994.0	0.33	0.61
26/01/2020 07:33:15	26012020	260120	073315	76.200	12.713535	-57.244738	76.140	-0.050	-0.030	-0.560	76.220	-1.300	-0.200																			1580023995.0	0.38	0.70
26/01/2020 07:33:16	26012020	260120	073316	76.270	12.713535	-57.244737	76.190	0.210	-0.450	-0.180	76.260	-1.800	0.200																			1580023996.0	0.50	0.93
26/01/2020 07:33:17	26012020	260120	073317	76.190	12.713532	-57.244735	76.100	0.350	-0.630	0.450	76.160	-2.000	0.800																			1580023997.0	0.57	1.06
26/01/2020 07:33:18	26012020	260120	073318	76.000	12.713530	-57.244735	75.920	0.320	-0.510	1.140	75.960	-1.900	1.500																			1580023998.0	0.61	1.13
26/01/2020 07:33:19	26012020	260120	073319	75.820	12.713527	-57.244735	75.750	0.170	-0.210	1.620	75.790	-1.600	2.000																			1580023999.0	0.56	1.04
26/01/2020 07:33:20	26012020	260120	073320	75.740	12.713525	-57.244737	75.700	-0.020	0.040	1.680	75.750	-1.300	2.100																			1580024000.0	0.39	0.72
26/01/2020 07:33:21	26012020	260120	073321	75.830	12.713525	-57.244737	75.810	-0.120	0.060	1.340	75.860	-1.300	1.800																			1580024001.0	0.17	0.31
26/01/2020 07:33:22	26012020	260120	073322	75.940	12.713527	-57.244737	75.890	-0.100	-0.070	0.920	75.950	-1.400	1.300																			1580024002.0	0.36	0.67
26/01/2020 07:33:23	26012020	260120	073323	75.910	12.713530	-57.244735	75.820	-0.010	-0.190	0.560	75.890	-1.500	1.000																			1580024003.0	0.41	0.76
26/01/2020 07:33:24	26012020	260120	073324	75.810	12.713532	-57.244735	75.720	0.060	-0.240	0.160	75.800	-1.600	0.600																			1580024004.0	0.40	0.74
26/01/2020 07:33:25	26012020	260120	073325	75.740	12.713533	-57.244735	75.610	0.030	-0.150	-0.240	75.720	-1.500	0.200																			1580024005.0	0.37	0.69
26/01/2020 07:33:26	26012020	260120	073326	75.610	12.713533	-57.244735	75.490	-0.090	0.060	-0.520	75.590	-1.300	-0.100																			1580024006.0	0.35	0.65
26/01/2020 07:33:27	26012020	260120	073327	75.530	12.713535	-57.244737	75.410	-0.170	0.240	-0.680	75.520	-1.100	-0.300																			1580024007.0	0.41	0.76
26/01/2020 07:33:28	26012020	260120	073328	75.530	12.713535	-57.244738	75.430	-0.130	0.200	-0.680	75.530	-1.100	-0.300																			1580024008.0	0.28	0.52
26/01/2020 07:33:29	26012020	260120	073329	75.520	12.713535	-57.244738	75.410	-0.040	-0.050	-0.480	75.500	-1.400	-0.100																			1580024009.0	0.07	0.13
26/01/2020 07:33:30	26012020	260120	073330	75.420	12.713535	-57.244737	75.310	0.040	-0.340	-0.100	75.390	-1.700	0.200																			1580024010.0	0.32	0.59
26/01/2020 07:33:31	26012020	260120	073331	75.280	12.713532	-57.244737	75.180	0.080	-0.490	0.340	75.250	-1.800	0.700																			1580024011.0	0.47	0.87
26/01/2020 07:33:32	26012020	260120	073332	75.090	12.713530	-57.244735	75.000	0.090	-0.390	0.740	75.050	-1.800	1.100																			1580024012.0	0.53	0.98
26/01/2020 07:33:33	26012020	260120	073333	74.910	12.713528	-57.244737	74.830	0.120	-0.170	0.960	74.880	-1.500	1.300																			1580024013.0	0.46	0.85
26/01/2020 07:33:34	26012020	260120	073334	74.840	12.713527	-57.244737	74.800	0.170	-0.070	0.890	74.840	-1.400	1.300																			1580024014.0	0.23	0.43
26/01/2020 07:33:35	26012020	260120	073335	74.890	12.713528	-57.244738	74.850	0.200	-0.100	0.640	74.900	-1.500	1.000																			1580024015.0	0.29	0.54
26/01/2020 07:33:36	26012020	260120	073336	74.960	12.713530	-57.244738	74.910	0.150	-0.110	0.330	74.970	-1.500	0.700																			1580024016.0	0.38	0.70
26/01/2020 07:33:37	26012020	260120	073337	74.970	12.713532	-57.244738	74.870	-0.030	-0.010	0.070	74.950	-1.400	0.500																			1580024017.0	0.31	0.57
26/01/2020 07:33:38	26012020	260120	073338	74.750	12.713532	-57.244740	74.620	-0.250	0.130	-0.050	74.680	-1.200	0.300																			1580024018.0	0.25	0.46
26/01/2020 07:33:39	26012020	260120	073339	74.470	12.713532	-57.244740	74.290	-0.350	0.120	-0.140	74.410	-1.200	0.300																			1580024019.0	0.24	0.44
26/01/2020 07:33:40	26012020	260120	073340	74.240	12.713533	-57.244740	74.180	-0.210	-0.170	-0.360	74.250	-1.500	0.100																			1580024020.0	0.16	0.30
26/01/2020 07:33:41	26012020	260120	073341	74.380	12.713535	-57.244740	74.360	0.050	-0.510	-0.680	74.430	-1.800	-0.300																			1580024021.0	0.41	0.76
26/01/2020 07:33:42	26012020	260120	073342	74.640	12.713535	-57.244738	74.600	0.160	-0.460	-0.870	74.670	-1.800	-0.500																			1580024022.0	0.31	0.57
26/01/2020 07:33:43	26012020	260120	073343	74.750	12.713535	-57.244738	74.670	0.020	-0.010	-0.840	74.740	-1.400	-0.500																			1580024023.0	0.22	0.41
26/01/2020 07:33:44	26012020	260120	073344	74.660	12.713533	-57.244742	74.580	-0.200	0.450	-0.590	74.640	-0.900	-0.200																			1580024024.0	0.64	1.19
26/01/2020 07:33:45	26012020	260120	073345	74.510	12.713530	-57.244743	74.440	-0.210	0.450	-0.200	74.480	-0.900	0.100																			1580024025.0	0.60	1.11
26/01/2020 07:33:46	26012020	260120	073346	74.390	12.713530	-57.244742	74.340	0.060	-0.070	0.190	74.370	-1.400	0.500																			1580024026.0	0.37	0.69
26/01/2020 07:33:47	26012020	260120	073347	74.330	12.713528	-57.244740	74.300	0.380	-0.650	0.520	74.330	-2.000	0.900																			1580024027.0	0.57	1.06
26/01/2020 07:33:48	26012020	260120	073348	74.340	12.713528	-57.244737	74.320	0.500	-0.770	0.740	74.340	-2.100	1.100																			1580024028.0	0.46	0.85
26/01/2020 07:33:49	26012020	260120	073349	74.360	12.713528	-57.244738	74.320	0.320	-0.360	0.900	74.350	-1.800	1.300																			1580024029.0	0.07	0.13
26/01/2020 07:33:50	26012020	260120	073350	74.310	12.713528	-57.244740	74.260	-0.020	0.170	0.990	74.300	-1.200	1.400																			1580024030.0	0.48	0.89
26/01/2020 07:33:51	26012020	260120	073351	74.280	12.713527	-57.244742	74.250	-0.290	0.360	0.910	74.290	-1.000	1.300																			1580024031.0	0.42	0.78
26/01/2020 07:33:52	26012020	260120	073352	74.380	12.713527	-57.244742	74.360	-0.360	0.150	0.690	74.410	-1.200	1.100																			1580024032.0	0.04	0.07
26/01/2020 07:33:53	26012020	260120	073353	74.510	12.713527	-57.244740	74.470	-0.330	-0.110	0.490	74.530	-1.400	0.900																			1580024033.0	0.29	0.54
26/01/2020 07:33:54	26012020	260120	073354	74.520	12.713527	-57.244740	74.450	-0.320	-0.160	0.320	74.500	-1.500	0.700																			1580024034.0	0.19	0.35
26/01/2020 07:33:55	26012020	260120	073355	74.390	12.713527	-57.244740	74.300	-0.290	-0.090	0.160	74.360	-1.400	0.600																			1580024035.0	0.13	0.24
26/01/2020 07:33:56	26012020	260120	073356	74.260	12.713527	-57.244742	74.170	-0.110	-0.140	-0.060	74.240	-1.500	0.400																			1580024036.0	0.22	0.41
26/01/2020 07:33:57	26012020	260120	073357	74.220	12.713528	-57.244742	74.160	0.230	-0.410	-0.350	74.240	-1.700	0.100																			1580024037.0	0.24	0.44
26/01/2020 07:33:58	26012020	260120	073358	74.300	12.713530	-57.244740	74.240	0.590	-0.570	-0.610	74.310	-1.900	-0.200																			1580024038.0	0.49	0.91
26/01/2020 07:33:59	26012020	260120	073359	74.360	12.713532	-57.244740	74.290	0.720	-0.340	-0.660	74.370	-1.700	-0.300																			1580024039.0	0.39	0.72
26/01/2020 07:34:00	26012020	260120	073400	74.340	12.713532	-57.244740	74.270	0.520	0.140	-0.530	74.340	-1.300	-0.200	1013.80	25.60	25.70	20.00	20.10	-1.00	71.00	71.00	405.00	25.10	11.00	6.30	87.00	6.20	14	3296.00	27.40	27.40	1580024040.0	0.36	0.67
26/01/2020 07:34:01	26012020	260120	073401	74.320	12.713533	-57.244743	74.250	0.130	0.520	-0.310	74.320	-0.900	0.100																			1580024041.0	0.56	1.04
26/01/2020 07:34:02	26012020	260120	073402	74.330	12.713533	-57.244745	74.270	-0.220	0.510	0.040	74.330	-0.800	0.400																			1580024042.0	0.39	0.72
26/01/2020 07:34:03	26012020	260120	073403	74.340	12.713532	-57.244745	74.290	-0.380	0.080	0.630	74.340	-1.200	1.000																			1580024043.0	0.32	0.59
26/01/2020 07:34:04	26012020	260120	073404	74.280	12.713528	-57.244742	74.210	-0.380	-0.460	1.400	74.250	-1.800	1.700																			1580024044.0	0.94	1.74
26/01/2020 07:34:05	26012020	260120	073405	74.120	12.713523	-57.244738	74.060	-0.340	-0.760	2.090	74.090	-2.100	2.400																			1580024045.0	1.29	2.39
26/01/2020 07:34:06	26012020	260120	073406	73.990	12.713518	-57.244737	73.950	-0.350	-0.660	2.320	73.980	-2.000	2.700																			1580024046.0	1.05	1.94
26/01/2020 07:34:07	26012020	260120	073407	73.940	12.713517	-57.244738	73.890	-0.320	-0.230	2.000	73.930	-1.600	2.400																			1580024047.0	0.46	0.85
26/01/2020 07:34:08	26012020	260120	073408	73.910	12.713517	-57.244740	73.860	-0.110	0.200	1.320	73.910	-1.200	1.800																			1580024048.0	0.58	1.07
26/01/2020 07:34:09	26012020	260120	073409	73.920	12.713522	-57.244743	73.840	0.270	0.310	0.370	73.920	-1.000	0.900																			1580024049.0	0.92	1.70
26/01/2020 07:34:10	26012020	260120	073410	73.980	12.713527	-57.244745	73.900	0.580	0.110	-0.790	74.000	-1.200	-0.300																			1580024050.0	1.35	2.50
26/01/2020 07:34:11	26012020	260120	073411	74.110	12.713535	-57.244747	74.030	0.640	-0.200	-1.960	74.150	-1.500	-1.500																			1580024051.0	1.71	3.17
26/01/2020 07:34:12	26012020	260120	073412	74.240	12.713542	-57.244748	74.120	0.450	-0.380	-2.690	74.250	-1.700	-2.300																			1580024052.0	1.63	3.02
26/01/2020 07:34:13	26012020	260120	073413	74.250	12.713547	-57.244748	74.120	0.170	-0.340	-2.610	74.240	-1.700	-2.200																			1580024053.0	0.89	1.65
26/01/2020 07:34:14	26012020	260120	073414	74.150	12.713545	-57.244750	74.030	-0.070	-0.200	-1.720	74.120	-1.600	-1.400																			1580024054.0	0.26	0.48
26/01/2020 07:34:15	26012020	260120	073415	74.050	12.713540	-57.244748	73.960	-0.230	-0.100	-0.460	74.030	-1.500	-0.200																			1580024055.0	1.11	2.06
26/01/2020 07:34:16	26012020	260120	073416	74.040	12.713533	-57.244747	74.020	-0.390	-0.030	0.730	74.060	-1.400	1.000																			1580024056.0	1.46	2.70
26/01/2020 07:34:17	26012020	260120	073417	74.170	12.713527	-57.244745	74.170	-0.530	0.090	1.760	74.190	-1.300	2.100																			1580024057.0	1.48	2.74
26/01/2020 07:34:18	26012020	260120	073418	74.290	12.713520	-57.244745	74.300	-0.550	0.210	2.570	74.310	-1.200	2.900																			1580024058.0	1.50	2.78
26/01/2020 07:34:19	26012020	260120	073419	74.350	12.713513	-57.244743	74.340	-0.370	0.180	2.970	74.360	-1.200	3.300																			1580024059.0	1.27	2.35
26/01/2020 07:34:20	26012020	260120	073420	74.380	12.713512	-57.244743	74.370	-0.010	-0.060	2.760	74.390	-1.400	3.200																			1580024060.0	0.65	1.20
26/01/2020 07:34:21	26012020	260120	073421	74.440	12.713512	-57.244743	74.390	0.350	-0.360	1.920	74.450	-1.700	2.400																			1580024061.0	0.33	0.61
26/01/2020 07:34:22	26012020	260120	073422	74.480	12.713518	-57.244743	74.420	0.530	-0.480	0.650	74.490	-1.800	1.200																			1580024062.0	1.33	2.46
26/01/2020 07:34:23	26012020	260120	073423	74.580	12.713528	-57.244747	74.510	0.510	-0.410	-0.770	74.600	-1.800	-0.300																			1580024063.0	2.06	3.82
26/01/2020 07:34:24	26012020	260120	073424	74.730	12.713537	-57.244750	74.650	0.370	-0.230	-1.920	74.760	-1.600	-1.500																			1580024064.0	2.15	3.98
26/01/2020 07:34:25	26012020	260120	073425	74.850	12.713543	-57.244752	74.750	0.180	-0.050	-2.390	74.860	-1.400	-2.000																			1580024065.0	1.46	2.70
26/01/2020 07:34:26	26012020	260120	073426	74.830	12.713545	-57.244753	74.720	0.010	-0.020	-2.080	74.820	-1.400	-1.700																			1580024066.0	0.35	0.65
26/01/2020 07:34:27	26012020	260120	073427	74.770	12.713542	-57.244752	74.670	-0.110	-0.140	-1.310	74.760	-1.500	-1.000																			1580024067.0	0.60	1.11
26/01/2020 07:34:28	26012020	260120	073428	74.730	12.713538	-57.244748	74.680	-0.210	-0.210	-0.330	74.730	-1.600	-0.000																			1580024068.0	1.14	2.11
26/01/2020 07:34:29	26012020	260120	073429	74.740	12.713532	-57.244747	74.710	-0.300	-0.100	0.720	74.740	-1.500	1.000																			1580024069.0	1.39	2.57
26/01/2020 07:34:30	26012020	260120	073430	74.730	12.713525	-57.244745	74.720	-0.360	0.100	1.660	74.720	-1.300	2.000																			1580024070.0	1.44	2.67
26/01/2020 07:34:31	26012020	260120	073431	74.710	12.713520	-57.244743	74.700	-0.330	0.270	2.250	74.710	-1.100	2.600																			1580024071.0	1.18	2.19
26/01/2020 07:34:32	26012020	260120	073432	74.750	12.713517	-57.244743	74.750	-0.200	0.270	2.290	74.760	-1.100	2.700																			1580024072.0	0.61	1.13
26/01/2020 07:34:33	26012020	260120	073433	74.840	12.713518	-57.244745	74.830	-0.030	0.080	1.800	74.870	-1.300	2.200																			1580024073.0	0.14	0.26
26/01/2020 07:34:34	26012020	260120	073434	74.910	12.713522	-57.244745	74.850	0.090	-0.200	1.040	74.900	-1.500	1.500																			1580024074.0	0.71	1.31
26/01/2020 07:34:35	26012020	260120	073435	74.800	12.713525	-57.244747	74.700	0.170	-0.430	0.300	74.760	-1.800	0.800																			1580024075.0	0.98	1.81
26/01/2020 07:34:36	26012020	260120	073436	74.540	12.713530	-57.244747	74.410	0.220	-0.590	-0.360	74.480	-1.900	0.100																			1580024076.0	1.02	1.89
26/01/2020 07:34:37	26012020	260120	073437	74.300	12.713535	-57.244748	74.180	0.250	-0.640	-1.000	74.270	-2.000	-0.600																			1580024077.0	1.05	1.94
26/01/2020 07:34:38	26012020	260120	073438	74.210	12.713540	-57.244748	74.110	0.280	-0.520	-1.520	74.200	-1.900	-1.100																			1580024078.0	0.98	1.81
26/01/2020 07:34:39	26012020	260120	073439	74.240	12.713542	-57.244750	74.150	0.270	-0.220	-1.720	74.250	-1.600	-1.300																			1580024079.0	0.64	1.19
26/01/2020 07:34:40	26012020	260120	073440	74.360	12.713543	-57.244750	74.310	0.160	0.140	-1.570	74.400	-1.200	-1.200																			1580024080.0	0.20	0.37
26/01/2020 07:34:41	26012020	260120	073441	74.540	12.713542	-57.244752	74.570	-0.060	0.380	-1.190	74.590	-1.000	-0.800																			1580024081.0	0.31	0.57
26/01/2020 07:34:42	26012020	260120	073442	74.820	12.713538	-57.244750	74.780	-0.320	0.440	-0.530	74.840	-0.900	-0.200																			1580024082.0	0.61	1.13
26/01/2020 07:34:43	26012020	260120	073443	74.820	12.713533	-57.244750	74.760	-0.440	0.330	0.490	74.780	-1.000	0.800																			1580024083.0	1.05	1.94
26/01/2020 07:34:44	26012020	260120	073444	74.590	12.713527	-57.244748	74.540	-0.350	0.040	1.620	74.540	-1.300	1.900																			1580024084.0	1.51	2.80
26/01/2020 07:34:45	26012020	260120	073445	74.390	12.713520	-57.244745	74.380	-0.140	-0.370	2.310	74.380	-1.700	2.600																			1580024085.0	1.44	2.67
26/01/2020 07:34:46	26012020	260120	073446	74.380	12.713518	-57.244743	74.390	0.040	-0.650	2.330	74.390	-2.000	2.700																			1580024086.0	0.74	1.37
26/01/2020 07:34:47	26012020	260120	073447	74.500	12.713518	-57.244743	74.510	0.120	-0.540	1.820	74.530	-1.900	2.300																			1580024087.0	0.23	0.43
26/01/2020 07:34:48	26012020	260120	073448	74.630	12.713522	-57.244745	74.610	0.090	-0.130	0.960	74.650	-1.500	1.400																			1580024088.0	0.86	1.59
26/01/2020 07:34:49	26012020	260120	073449	74.680	12.713527	-57.244748	74.610	0.030	0.230	-0.020	74.680	-1.200	0.400																			1580024089.0	1.21	2.24
26/01/2020 07:34:50	26012020	260120	073450	74.660	12.713532	-57.244752	74.580	-0.010	0.270	-0.910	74.660	-1.100	-0.500																			1580024090.0	1.20	2.22
26/01/2020 07:34:51	26012020	260120	073451	74.660	12.713537	-57.244752	74.570	-0.030	-0.040	-1.560	74.660	-1.400	-1.100																			1580024091.0	1.06	1.96
26/01/2020 07:34:52	26012020	260120	073452	74.710	12.713540	-57.244752	74.620	-0.040	-0.420	-1.870	74.720	-1.800	-1.500																			1580024092.0	0.87	1.61
26/01/2020 07:34:53	26012020	260120	073453	74.770	12.713542	-57.244750	74.690	-0.040	-0.610	-1.710	74.770	-2.000	-1.400																			1580024093.0	0.46	0.85
26/01/2020 07:34:54	26012020	260120	073454	74.800	12.713540	-57.244748	74.730	-0.020	-0.470	-1.160	74.800	-1.900	-0.800																			1580024094.0	0.47	0.87
26/01/2020 07:34:55	26012020	260120	073455	74.800	12.713537	-57.244747	74.750	0.040	-0.120	-0.380	74.800	-1.500	-0.100																			1580024095.0	0.96	1.78
26/01/2020 07:34:56	26012020	260120	073456	74.780	12.713530	-57.244747	74.750	0.080	0.250	0.510	74.780	-1.100	0.800																			1580024096.0	1.23	2.28
26/01/2020 07:34:57	26012020	260120	073457	74.730	12.713525	-57.244747	74.710	0.040	0.440	1.330	74.720	-0.900	1.600																			1580024097.0	1.17	2.17
26/01/2020 07:34:58	26012020	260120	073458	74.690	12.713522	-57.244745	74.680	-0.040	0.300	1.800	74.690	-1.000	2.100																			1580024098.0	0.70	1.30
26/01/2020 07:34:59	26012020	260120	073459	74.720	12.713522	-57.244745	74.710	-0.030	-0.070	1.850	74.730	-1.400	2.200																			1580024099.0	0.21	0.39
26/01/2020 07:35:00	26012020	260120	073500	74.790	12.713523	-57.244743	74.770	0.070	-0.430	1.570	74.810	-1.800	2.000	1013.80	25.50	25.60	19.80	19.90	-1.00	70.00	70.00	404.00	25.10	7.00	5.70	82.00	5.30	14	3295.00	27.40	27.40	1580024100.0	0.44	0.81
26/01/2020 07:35:01	26012020	260120	073501	74.860	12.713525	-57.244743	74.820	0.120	-0.520	1.130	74.870	-1.900	1.500																			1580024101.0	0.46	0.85
26/01/2020 07:35:02	26012020	260120	073502	74.840	12.713527	-57.244743	74.770	0.010	-0.320	0.720	74.820	-1.700	1.100																			1580024102.0	0.39	0.72
26/01/2020 07:35:03	26012020	260120	073503	74.710	12.713528	-57.244745	74.570	-0.210	0.000	0.430	74.660	-1.400	0.800																			1580024103.0	0.41	0.76
26/01/2020 07:35:04	26012020	260120	073504	74.440	12.713530	-57.244747	74.350	-0.360	0.180	0.100	74.390	-1.200	0.500																			1580024104.0	0.44	0.81
26/01/2020 07:35:05	26012020	260120	073505	74.290	12.713532	-57.244748	74.190	-0.310	0.050	-0.370	74.270	-1.300	0.100																			1580024105.0	0.43	0.80
26/01/2020 07:35:06	26012020	260120	073506	74.230	12.713533	-57.244748	74.190	-0.100	-0.290	-0.910	74.240	-1.600	-0.500																			1580024106.0	0.60	1.11
26/01/2020 07:35:07	26012020	260120	073507	74.350	12.713537	-57.244747	74.320	0.120	-0.550	-1.320	74.380	-1.900	-0.900																			1580024107.0	0.65	1.20
26/01/2020 07:35:08	26012020	260120	073508	74.480	12.713538	-57.244747	74.420	0.260	-0.500	-1.400	74.490	-1.900	-1.000																			1580024108.0	0.41	0.76
26/01/2020 07:35:09	26012020	260120	073509	74.470	12.713538	-57.244747	74.410	0.280	-0.110	-1.050	74.450	-1.500	-0.700																			1580024109.0	0.12	0.22
26/01/2020 07:35:10	26012020	260120	073510	74.370	12.713535	-57.244747	74.310	0.200	0.360	-0.500	74.340	-1.000	-0.200																			1580024110.0	0.61	1.13
26/01/2020 07:35:11	26012020	260120	073511	74.270	12.713533	-57.244748	74.230	0.070	0.530	-0.020	74.250	-0.800	0.300																			1580024111.0	0.63	1.17
26/01/2020 07:35:12	26012020	260120	073512	74.170	12.713532	-57.244748	74.130	-0.020	0.300	0.420	74.140	-1.000	0.800																			1580024112.0	0.31	0.57
26/01/2020 07:35:13	26012020	260120	073513	74.050	12.713530	-57.244748	74.030	-0.010	-0.220	0.860	74.040	-1.500	1.200																			1580024113.0	0.26	0.48
26/01/2020 07:35:14	26012020	260120	073514	74.050	12.713530	-57.244745	74.070	0.040	-0.720	1.200	74.060	-2.000	1.600																			1580024114.0	0.47	0.87
26/01/2020 07:35:15	26012020	260120	073515	74.180	12.713530	-57.244743	74.220	0.010	-0.890	1.360	74.220	-2.200	1.700																			1580024115.0	0.49	0.91
26/01/2020 07:35:16	26012020	260120	073516	74.360	12.713528	-57.244742	74.390	-0.170	-0.580	1.240	74.390	-2.000	1.600																			1580024116.0	0.36	0.67
26/01/2020 07:35:17	26012020	260120	073517	74.480	12.713527	-57.244743	74.490	-0.390	0.110	0.900	74.490	-1.300	1.300																			1580024117.0	0.42	0.78
26/01/2020 07:35:18	26012020	260120	073518	74.440	12.713525	-57.244747	74.390	-0.480	0.780	0.540	74.410	-0.600	0.900																			1580024118.0	0.68	1.26
26/01/2020 07:35:19	26012020	260120	073519	74.310	12.713525	-57.244750	74.250	-0.310	0.860	0.100	74.290	-0.500	0.500																			1580024119.0	0.59	1.09
26/01/2020 07:35:20	26012020	260120	073520	74.290	12.713528	-57.244750	74.260	0.120	0.170	-0.580	74.310	-1.100	-0.100																			1580024120.0	0.60	1.11
26/01/2020 07:35:21	26012020	260120	073521	74.450	12.713533	-57.244748	74.430	0.560	-0.760	-1.380	74.490	-2.000	-0.900																			1580024121.0	1.35	2.50
26/01/2020 07:35:22	26012020	260120	073522	74.610	12.713542	-57.244747	74.560	0.720	-1.130	-1.920	74.630	-2.500	-1.500																			1580024122.0	1.51	2.80
26/01/2020 07:35:23	26012020	260120	073523	74.640	12.713545	-57.244747	74.550	0.480	-0.720	-1.840	74.620	-2.100	-1.500																			1580024123.0	0.83	1.54
26/01/2020 07:35:24	26012020	260120	073524	74.560	12.713543	-57.244748	74.500	-0.010	0.020	-1.080	74.550	-1.400	-0.800																			1580024124.0	0.55	1.02
26/01/2020 07:35:25	26012020	260120	073525	74.530	12.713538	-57.244750	74.510	-0.510	0.500	0.050	74.530	-0.900	0.300																			1580024125.0	1.22	2.26
26/01/2020 07:35:26	26012020	260120	073526	74.550	12.713530	-57.244750	74.560	-0.780	0.540	1.200	74.560	-0.800	1.500																			1580024126.0	1.64	3.04
26/01/2020 07:35:27	26012020	260120	073527	74.560	12.713523	-57.244747	74.570	-0.700	0.230	2.090	74.550	-1.100	2.400																			1580024127.0	1.66	3.07
26/01/2020 07:35:28	26012020	260120	073528	74.500	12.713517	-57.244743	74.500	-0.260	-0.240	2.640	74.480	-1.600	3.000																			1580024128.0	1.41	2.61
26/01/2020 07:35:29	26012020	260120	073529	74.410	12.713515	-57.244742	74.400	0.330	-0.660	2.700	74.390	-2.000	3.100																			1580024129.0	0.94	1.74
26/01/2020 07:35:30	26012020	260120	073530	74.350	12.713515	-57.244740	74.330	0.750	-0.740	2.120	74.340	-2.100	2.600																			1580024130.0	0.40	0.74
26/01/2020 07:35:31	26012020	260120	073531	74.340	12.713520	-57.244740	74.290	0.800	-0.340	1.020	74.340	-1.800	1.500																			1580024131.0	1.14	2.11
26/01/2020 07:35:32	26012020	260120	073532	74.330	12.713528	-57.244745	74.260	0.520	0.230	-0.250	74.330	-1.200	0.200																			1580024132.0	1.96	3.63
26/01/2020 07:35:33	26012020	260120	073533	74.300	12.713537	-57.244750	74.200	0.130	0.470	-1.280	74.280	-0.900	-0.800																			1580024133.0	2.07	3.83
26/01/2020 07:35:34	26012020	260120	073534	74.240	12.713543	-57.244752	74.130	-0.160	0.180	-1.810	74.230	-1.200	-1.400																			1580024134.0	1.37	2.54
26/01/2020 07:35:35	26012020	260120	073535	74.200	12.713545	-57.244752	74.090	-0.340	-0.270	-1.820	74.190	-1.600	-1.500																			1580024135.0	0.50	0.93
26/01/2020 07:35:36	26012020	260120	073536	74.110	12.713542	-57.244748	74.010	-0.510	-0.400	-1.370	74.090	-1.800	-1.000																			1580024136.0	0.70	1.30
26/01/2020 07:35:37	26012020	260120	073537	73.950	12.713537	-57.244748	73.850	-0.640	-0.150	-0.650	73.910	-1.500	-0.300																			1580024137.0	1.11	2.06
26/01/2020 07:35:38	26012020	260120	073538	73.760	12.713532	-57.244748	73.670	-0.540	0.130	0.110	73.720	-1.300	0.400																			1580024138.0	1.26	2.33
26/01/2020 07:35:39	26012020	260120	073539	73.610	12.713527	-57.244748	73.550	-0.120	0.060	0.720	73.580	-1.300	1.100																			1580024139.0	1.00	1.85
26/01/2020 07:35:40	26012020	260120	073540	73.520	12.713525	-57.244747	73.480	0.450	-0.410	1.050	73.510	-1.700	1.400																			1580024140.0	0.56	1.04
26/01/2020 07:35:41	26012020	260120	073541	73.490	12.713525	-57.244745	73.470	0.810	-0.780	1.030	73.490	-2.100	1.400																			1580024141.0	0.55	1.02
26/01/2020 07:35:42	26012020	260120	073542	73.500	12.713528	-57.244743	73.480	0.750	-0.580	0.780	73.510	-2.000	1.200																			1580024142.0	0.60	1.11
26/01/2020 07:35:43	26012020	260120	073543	73.540	12.713530	-57.244747	73.530	0.360	0.060	0.490	73.560	-1.400	0.900																			1580024143.0	0.75	1.39
26/01/2020 07:35:44	26012020	260120	073544	73.600	12.713532	-57.244750	73.540	-0.090	0.590	0.330	73.590	-0.800	0.700																			1580024144.0	0.79	1.46
26/01/2020 07:35:45	26012020	260120	073545	73.520	12.713532	-57.244752	73.450	-0.410	0.620	0.300	73.490	-0.700	0.700																			1580024145.0	0.45	0.83
26/01/2020 07:35:46	26012020	260120	073546	73.390	12.713532	-57.244752	73.330	-0.520	0.180	0.240	73.370	-1.100	0.600																			1580024146.0	0.12	0.22
26/01/2020 07:35:47	26012020	260120	073547	73.330	12.713532	-57.244750	73.290	-0.430	-0.340	0.070	73.330	-1.700	0.500																			1580024147.0	0.40	0.74
26/01/2020 07:35:48	26012020	260120	073548	73.370	12.713532	-57.244748	73.330	-0.240	-0.580	-0.150	73.380	-1.900	0.200																			1580024148.0	0.35	0.65
26/01/2020 07:35:49	26012020	260120	073549	73.400	12.713530	-57.244748	73.340	-0.070	-0.420	-0.330	73.390	-1.800	0.100																			1580024149.0	0.05	0.09
26/01/2020 07:35:50	26012020	260120	073550	73.380	12.713532	-57.244750	73.320	0.050	-0.080	-0.460	73.370	-1.500	-0.100																			1580024150.0	0.37	0.69
26/01/2020 07:35:51	26012020	260120	073551	73.380	12.713532	-57.244752	73.330	0.190	0.080	-0.640	73.390	-1.300	-0.200																			1580024151.0	0.55	1.02
26/01/2020 07:35:52	26012020	260120	073552	73.510	12.713535	-57.244753	73.480	0.390	-0.150	-0.830	73.550	-1.500	-0.400																			1580024152.0	0.57	1.06
26/01/2020 07:35:53	26012020	260120	073553	73.710	12.713537	-57.244752	73.670	0.520	-0.430	-0.800	73.730	-1.800	-0.400																			1580024153.0	0.57	1.06
26/01/2020 07:35:54	26012020	260120	073554	73.740	12.713537	-57.244750	73.670	0.400	-0.370	-0.370	73.710	-1.800	-0.000																			1580024154.0	0.32	0.59
26/01/2020 07:35:55	26012020	260120	073555	73.610	12.713535	-57.244750	73.520	0.080	-0.060	0.370	73.580	-1.400	0.700																			1580024155.0	0.54	1.00
26/01/2020 07:35:56	26012020	260120	073556	73.410	12.713530	-57.244750	73.370	-0.200	0.170	1.080	73.380	-1.200	1.400																			1580024156.0	0.88	1.63
26/01/2020 07:35:57	26012020	260120	073557	73.350	12.713527	-57.244750	73.340	-0.300	0.140	1.460	73.350	-1.200	1.800																			1580024157.0	0.81	1.50
26/01/2020 07:35:58	26012020	260120	073558	73.380	12.713525	-57.244748	73.380	-0.260	-0.020	1.490	73.390	-1.400	1.900																			1580024158.0	0.50	0.93
26/01/2020 07:35:59	26012020	260120	073559	73.470	12.713525	-57.244747	73.460	-0.240	-0.120	1.290	73.490	-1.500	1.700																			1580024159.0	0.25	0.46
26/01/2020 07:36:00	26012020	260120	073600	73.600	12.713525	-57.244747	73.580	-0.260	-0.070	0.870	73.630	-1.400	1.300	1013.80	25.50	25.60	19.90	19.90	-1.00	70.00	70.00	403.00	25.10	14.00	6.00	88.00	5.80	14	3283.00	27.40	27.40	1580024160.0	0.12	0.22
26/01/2020 07:36:01	26012020	260120	073601	73.710	12.713527	-57.244748	73.670	-0.250	0.020	0.270	73.720	-1.400	0.700																			1580024161.0	0.38	0.70
26/01/2020 07:36:02	26012020	260120	073602	73.700	12.713528	-57.244750	73.610	-0.120	-0.010	-0.330	73.680	-1.400	0.100																			1580024162.0	0.54	1.00
26/01/2020 07:36:03	26012020	260120	073603	73.540	12.713532	-57.244750	73.430	0.090	-0.140	-0.800	73.500	-1.500	-0.400																			1580024163.0	0.61	1.13
26/01/2020 07:36:04	26012020	260120	073604	73.380	12.713535	-57.244752	73.280	0.260	-0.300	-1.130	73.360	-1.700	-0.700																			1580024164.0	0.71	1.31
26/01/2020 07:36:05	26012020	260120	073605	73.380	12.713538	-57.244752	73.320	0.360	-0.380	-1.340	73.410	-1.700	-0.900																			1580024165.0	0.73	1.35
26/01/2020 07:36:06	26012020	260120	073606	73.550	12.713540	-57.244752	73.500	0.390	-0.310	-1.390	73.580	-1.700	-1.000																			1580024166.0	0.59	1.09
26/01/2020 07:36:07	26012020	260120	073607	73.670	12.713542	-57.244753	73.650	0.350	-0.110	-1.070	73.700	-1.500	-0.700																			1580024167.0	0.24	0.44
26/01/2020 07:36:08	26012020	260120	073608	73.730	12.713540	-57.244753	73.680	0.230	0.000	-0.300	73.720	-1.400	0.000																			1580024168.0	0.40	0.74
26/01/2020 07:36:09	26012020	260120	073609	73.670	12.713535	-57.244752	73.620	0.010	-0.060	0.690	73.650	-1.400	1.000																			1580024169.0	0.94	1.74
26/01/2020 07:36:10	26012020	260120	073610	73.600	12.713530	-57.244750	73.590	-0.240	-0.200	1.540	73.600	-1.600	1.900																			1580024170.0	1.18	2.19
26/01/2020 07:36:11	26012020	260120	073611	73.590	12.713525	-57.244747	73.590	-0.380	-0.260	2.130	73.590	-1.600	2.500																			1580024171.0	1.09	2.02
26/01/2020 07:36:12	26012020	260120	073612	73.560	12.713522	-57.244745	73.550	-0.360	-0.240	2.490	73.550	-1.600	2.800																			1580024172.0	0.94	1.74
26/01/2020 07:36:13	26012020	260120	073613	73.520	12.713518	-57.244745	73.480	-0.210	-0.130	2.400	73.510	-1.500	2.800																			1580024173.0	0.65	1.20
26/01/2020 07:36:14	26012020	260120	073614	73.530	12.713518	-57.244745	73.490	-0.060	0.030	1.650	73.540	-1.400	2.100																			1580024174.0	0.01	0.02
26/01/2020 07:36:15	26012020	260120	073615	73.640	12.713523	-57.244747	73.590	0.010	0.230	0.360	73.660	-1.200	0.900																			1580024175.0	0.97	1.80
26/01/2020 07:36:16	26012020	260120	073616	73.780	12.713530	-57.244750	73.720	0.060	0.380	-1.060	73.820	-1.000	-0.600																			1580024176.0	1.73	3.20
26/01/2020 07:36:17	26012020	260120	073617	73.940	12.713538	-57.244753	73.860	0.120	0.310	-2.190	73.970	-1.100	-1.700																			1580024177.0	1.93	3.57
26/01/2020 07:36:18	26012020	260120	073618	74.070	12.713545	-57.244755	73.970	0.200	-0.010	-2.760	74.090	-1.400	-2.300																			1580024178.0	1.54	2.85
26/01/2020 07:36:19	26012020	260120	073619	74.160	12.713550	-57.244757	74.050	0.220	-0.420	-2.700	74.170	-1.800	-2.300																			1580024179.0	0.84	1.56
26/01/2020 07:36:20	26012020	260120	073620	74.190	12.713550	-57.244755	74.080	0.130	-0.730	-1.990	74.190	-2.100	-1.700																			1580024180.0	0.19	0.35
26/01/2020 07:36:21	26012020	260120	073621	74.120	12.713545	-57.244753	74.020	-0.030	-0.770	-0.700	74.090	-2.100	-0.400																			1580024181.0	0.95	1.76
26/01/2020 07:36:22	26012020	260120	073622	73.970	12.713538	-57.244752	73.900	-0.180	-0.520	0.940	73.940	-1.900	1.200																			1580024182.0	1.70	3.15
26/01/2020 07:36:23	26012020	260120	073623	73.830	12.713528	-57.244750	73.800	-0.240	-0.170	2.440	73.810	-1.600	2.700																			1580024183.0	2.06	3.82
26/01/2020 07:36:24	26012020	260120	073624	73.780	12.713520	-57.244748	73.790	-0.140	0.020	3.310	73.800	-1.400	3.600																			1580024184.0	1.79	3.32
26/01/2020 07:36:25	26012020	260120	073625	73.890	12.713517	-57.244745	73.910	0.070	-0.020	3.320	73.930	-1.400	3.700																			1580024185.0	0.98	1.81
26/01/2020 07:36:26	26012020	260120	073626	74.090	12.713517	-57.244745	74.080	0.250	-0.030	2.610	74.130	-1.400	3.100																			1580024186.0	0.35	0.65
26/01/2020 07:36:27	26012020	260120	073627	74.250	12.713522	-57.244745	74.200	0.240	0.230	1.420	74.260	-1.200	1.900																			1580024187.0	0.95	1.76
26/01/2020 07:36:28	26012020	260120	073628	74.310	12.713528	-57.244748	74.220	0.020	0.580	0.030	74.320	-0.800	0.500																			1580024188.0	1.63	3.02
26/01/2020 07:36:29	26012020	260120	073629	74.340	12.713537	-57.244753	74.230	-0.210	0.590	-1.310	74.340	-0.800	-0.800																			1580024189.0	1.95	3.61
26/01/2020 07:36:30	26012020	260120	073630	74.390	12.713543	-57.244755	74.280	-0.260	0.070	-2.360	74.410	-1.200	-1.900																			1580024190.0	1.79	3.32
26/01/2020 07:36:31	26012020	260120	073631	74.490	12.713550	-57.244755	74.430	-0.130	-0.620	-2.920	74.530	-1.900	-2.500																			1580024191.0	1.35	2.50
26/01/2020 07:36:32	26012020	260120	073632	74.700	12.713553	-57.244753	74.580	0.030	-0.970	-2.840	74.720	-2.300	-2.500																			1580024192.0	0.65	1.20
26/01/2020 07:36:33	26012020	260120	073633	74.730	12.713552	-57.244753	74.590	0.070	-0.750	-2.030	74.720	-2.200	-1.700																			1580024193.0	0.43	0.80
26/01/2020 07:36:34	26012020	260120	073634	74.570	12.713545	-57.244753	74.450	0.000	-0.230	-0.680	74.540	-1.600	-0.400																			1580024194.0	1.34	2.48
26/01/2020 07:36:35	26012020	260120	073635	74.440	12.713537	-57.244753	74.370	-0.020	0.130	0.720	74.430	-1.300	1.000																			1580024195.0	1.76	3.26
26/01/2020 07:36:36	26012020	260120	073636	74.470	12.713530	-57.244752	74.450	0.060	0.100	1.730	74.490	-1.200	2.000																			1580024196.0	1.45	2.69
26/01/2020 07:36:37	26012020	260120	073637	74.560	12.713527	-57.244750	74.550	0.160	-0.080	2.270	74.580	-1.400	2.600																			1580024197.0	0.84	1.56
26/01/2020 07:36:38	26012020	260120	073638	74.650	12.713527	-57.244748	74.640	0.180	-0.130	2.410	74.680	-1.500	2.800																			1580024198.0	0.35	0.65
26/01/2020 07:36:39	26012020	260120	073639	74.810	12.713527	-57.244748	74.800	0.110	-0.050	2.190	74.850	-1.400	2.600																			1580024199.0	0.14	0.26
26/01/2020 07:36:40	26012020	260120	073640	75.020	12.713528	-57.244750	74.990	-0.030	0.010	1.630	75.050	-1.400	2.100																			1580024200.0	0.39	0.72
26/01/2020 07:36:41	26012020	260120	073641	75.200	12.713530	-57.244752	75.160	-0.170	-0.010	0.830	75.230	-1.400	1.300																			1580024201.0	0.56	1.04
26/01/2020 07:36:42	26012020	260120	073642	75.310	12.713533	-57.244752	75.220	-0.230	-0.080	-0.000	75.310	-1.400	0.400																			1580024202.0	0.66	1.22
26/01/2020 07:36:43	26012020	260120	073643	75.280	12.713537	-57.244752	75.160	-0.190	-0.130	-0.690	75.260	-1.500	-0.300																			1580024203.0	0.66	1.22
26/01/2020 07:36:44	26012020	260120	073644	75.190	12.713540	-57.244753	75.060	-0.070	-0.160	-1.230	75.170	-1.500	-0.800																			1580024204.0	0.63	1.17
26/01/2020 07:36:45	26012020	260120	073645	75.150	12.713542	-57.244755	75.040	0.060	-0.130	-1.670	75.140	-1.500	-1.200																			1580024205.0	0.68	1.26
26/01/2020 07:36:46	26012020	260120	073646	75.180	12.713545	-57.244755	75.080	0.110	-0.020	-1.890	75.200	-1.400	-1.500																			1580024206.0	0.74	1.37
26/01/2020 07:36:47	26012020	260120	073647	75.270	12.713548	-57.244757	75.200	0.090	0.040	-1.750	75.300	-1.300	-1.400																			1580024207.0	0.55	1.02
26/01/2020 07:36:48	26012020	260120	073648	75.410	12.713548	-57.244758	75.360	0.100	-0.050	-1.280	75.440	-1.400	-0.900																			1580024208.0	0.13	0.24
26/01/2020 07:36:49	26012020	260120	073649	75.530	12.713547	-57.244757	75.490	0.160	-0.280	-0.520	75.550	-1.600	-0.200																			1580024209.0	0.41	0.76
26/01/2020 07:36:50	26012020	260120	073650	75.600	12.713543	-57.244755	75.570	0.180	-0.440	0.440	75.610	-1.800	0.700																			1580024210.0	0.86	1.59
26/01/2020 07:36:51	26012020	260120	073651	75.610	12.713538	-57.244753	75.590	0.050	-0.350	1.450	75.600	-1.700	1.700																			1580024211.0	1.14	2.11
26/01/2020 07:36:52	26012020	260120	073652	75.590	12.713532	-57.244752	75.580	-0.180	-0.110	2.260	75.580	-1.500	2.600																			1580024212.0	1.23	2.28
26/01/2020 07:36:53	26012020	260120	073653	75.560	12.713527	-57.244752	75.560	-0.350	0.060	2.630	75.560	-1.300	3.000																			1580024213.0	1.04	1.93
26/01/2020 07:36:54	26012020	260120	073654	75.530	12.713525	-57.244752	75.510	-0.330	0.040	2.420	75.520	-1.300	2.800																			1580024214.0	0.49	0.91
26/01/2020 07:36:55	26012020	260120	073655	75.480	12.713527	-57.244752	75.450	-0.130	-0.180	1.700	75.480	-1.500	2.100																			1580024215.0	0.23	0.43
26/01/2020 07:36:56	26012020	260120	073656	75.460	12.713530	-57.244750	75.400	0.130	-0.390	0.660	75.450	-1.800	1.100																			1580024216.0	0.87	1.61
26/01/2020 07:36:57	26012020	260120	073657	75.470	12.713535	-57.244750	75.410	0.260	-0.280	-0.470	75.480	-1.700	0.000																			1580024217.0	1.17	2.17
26/01/2020 07:36:58	26012020	260120	073658	75.550	12.713542	-57.244753	75.490	0.220	0.190	-1.630	75.580	-1.200	-1.100																			1580024218.0	1.35	2.50
26/01/2020 07:36:59	26012020	260120	073659	75.700	12.713547	-57.244757	75.690	0.100	0.580	-2.660	75.750	-0.800	-2.200																			1580024219.0	1.57	2.91
26/01/2020 07:37:00	26012020	260120	073700	76.000	12.713553	-57.244760	75.920	0.060	0.440	-3.220	76.030	-0.900	-2.800	1013.80	25.50	25.60	19.80	19.80	-1.00	70.00	70.00	403.00	25.10	16.00	5.50	92.00	5.00	14	3318.00	27.40	27.40	1580024220.0	1.42	2.63
26/01/2020 07:37:01	26012020	260120	073701	76.110	12.713557	-57.244762	76.010	0.140	-0.200	-2.960	76.110	-1.500	-2.600																			1580024221.0	0.81	1.50
26/01/2020 07:37:02	26012020	260120	073702	76.080	12.713557	-57.244758	75.970	0.220	-0.740	-1.900	76.050	-2.100	-1.600																			1580024222.0	0.55	1.02
26/01/2020 07:37:03	26012020	260120	073703	75.940	12.713552	-57.244757	75.860	0.090	-0.720	-0.310	75.910	-2.100	-0.100																			1580024223.0	1.25	2.31
26/01/2020 07:37:04	26012020	260120	073704	75.780	12.713542	-57.244755	75.740	-0.220	-0.320	1.430	75.760	-1.700	1.700																			1580024224.0	2.01	3.72
26/01/2020 07:37:05	26012020	260120	073705	75.710	12.713532	-57.244755	75.730	-0.500	-0.070	2.860	75.710	-1.400	3.100																			1580024225.0	2.18	4.04
26/01/2020 07:37:06	26012020	260120	073706	75.720	12.713523	-57.244753	75.750	-0.480	-0.190	3.710	75.730	-1.500	4.000																			1580024226.0	1.79	3.32
26/01/2020 07:37:07	26012020	260120	073707	75.770	12.713518	-57.244750	75.790	-0.200	-0.350	3.820	75.770	-1.700	4.200																			1580024227.0	1.21	2.24
26/01/2020 07:37:08	26012020	260120	073708	75.820	12.713518	-57.244750	75.830	0.120	-0.200	3.130	75.840	-1.600	3.600																			1580024228.0	0.39	0.72
26/01/2020 07:37:09	26012020	260120	073709	75.950	12.713522	-57.244750	75.930	0.290	0.200	1.740	75.980	-1.200	2.300																			1580024229.0	0.83	1.54
26/01/2020 07:37:10	26012020	260120	073710	76.130	12.713528	-57.244755	76.080	0.350	0.490	-0.020	76.160	-0.900	0.500																			1580024230.0	1.80	3.33
26/01/2020 07:37:11	26012020	260120	073711	76.270	12.713538	-57.244758	76.160	0.390	0.410	-1.760	76.290	-1.000	-1.200																			1580024231.0	2.33	4.32
26/01/2020 07:37:12	26012020	260120	073712	76.310	12.713550	-57.244762	76.150	0.400	0.060	-3.080	76.310	-1.300	-2.600																			1580024232.0	2.33	4.32
26/01/2020 07:37:13	26012020	260120	073713	76.240	12.713558	-57.244763	76.050	0.280	-0.260	-3.660	76.220	-1.600	-3.200																			1580024233.0	1.81	3.35
26/01/2020 07:37:14	26012020	260120	073714	76.110	12.713562	-57.244763	75.930	-0.010	-0.430	-3.360	76.090	-1.800	-3.000																			1580024234.0	0.77	1.43
26/01/2020 07:37:15	26012020	260120	073715	76.020	12.713560	-57.244763	75.880	-0.370	-0.490	-2.310	76.010	-1.900	-2.000																			1580024235.0	0.38	0.70
26/01/2020 07:37:16	26012020	260120	073716	75.970	12.713553	-57.244763	75.860	-0.600	-0.460	-0.670	75.950	-1.800	-0.400																			1580024236.0	1.38	2.56
26/01/2020 07:37:17	26012020	260120	073717	75.880	12.713543	-57.244762	75.820	-0.560	-0.410	1.200	75.870	-1.800	1.400																			1580024237.0	2.24	4.15
26/01/2020 07:37:18	26012020	260120	073718	75.870	12.713532	-57.244758	75.840	-0.290	-0.320	2.730	75.880	-1.700	3.000																			1580024238.0	2.57	4.76
26/01/2020 07:37:19	26012020	260120	073719	75.970	12.713522	-57.244757	75.970	-0.000	-0.080	3.520	76.000	-1.500	3.900																			1580024239.0	2.09	3.87
26/01/2020 07:37:20	26012020	260120	073720	76.070	12.713517	-57.244755	76.050	0.200	0.210	3.550	76.080	-1.200	3.900																			1580024240.0	1.09	2.02
26/01/2020 07:37:21	26012020	260120	073721	76.090	12.713517	-57.244757	76.030	0.320	0.330	2.900	76.090	-1.100	3.400																			1580024241.0	0.26	0.48
26/01/2020 07:37:22	26012020	260120	073722	76.060	12.713522	-57.244758	75.990	0.420	0.150	1.640	76.060	-1.200	2.200																			1580024242.0	1.25	2.31
26/01/2020 07:37:23	26012020	260120	073723	76.090	12.713532	-57.244760	76.020	0.480	-0.150	-0.050	76.110	-1.500	0.500																			1580024243.0	2.15	3.98
26/01/2020 07:37:24	26012020	260120	073724	76.210	12.713543	-57.244762	76.090	0.410	-0.310	-1.690	76.230	-1.700	-1.200																			1580024244.0	2.50	4.63
26/01/2020 07:37:25	26012020	260120	073725	76.250	12.713553	-57.244765	76.090	0.160	-0.220	-2.710	76.240	-1.600	-2.300																			1580024245.0	2.05	3.80
26/01/2020 07:37:26	26012020	260120	073726	76.150	12.713557	-57.244768	75.970	-0.190	-0.000	-2.880	76.120	-1.400	-2.500																			1580024246.0	1.12	2.07
26/01/2020 07:37:27	26012020	260120	073727	76.030	12.713557	-57.244770	75.880	-0.480	0.060	-2.370	76.010	-1.300	-2.000																			1580024247.0	0.35	0.65
26/01/2020 07:37:28	26012020	260120	073728	75.970	12.713553	-57.244768	75.850	-0.610	-0.070	-1.470	75.970	-1.400	-1.200																			1580024248.0	0.87	1.61
26/01/2020 07:37:29	26012020	260120	073729	75.970	12.713547	-57.244767	75.900	-0.570	-0.260	-0.360	75.980	-1.600	-0.100																			1580024249.0	1.32	2.44
26/01/2020 07:37:30	26012020	260120	073730	76.030	12.713540	-57.244765	75.980	-0.380	-0.310	0.820	76.040	-1.700	1.100																			1580024250.0	1.54	2.85
26/01/2020 07:37:31	26012020	260120	073731	76.100	12.713533	-57.244763	76.090	-0.110	-0.210	1.810	76.110	-1.600	2.100																			1580024251.0	1.55	2.87
26/01/2020 07:37:32	26012020	260120	073732	76.140	12.713527	-57.244762	76.120	0.210	-0.150	2.430	76.130	-1.500	2.800																			1580024252.0	1.26	2.33
26/01/2020 07:37:33	26012020	260120	073733	76.090	12.713525	-57.244762	76.060	0.490	-0.240	2.550	76.060	-1.600	2.900																			1580024253.0	0.67	1.24
26/01/2020 07:37:34	26012020	260120	073734	75.970	12.713525	-57.244760	75.920	0.650	-0.330	2.180	75.940	-1.700	2.600																			1580024254.0	0.33	0.61
26/01/2020 07:37:35	26012020	260120	073735	75.860	12.713530	-57.244760	75.770	0.650	-0.270	1.390	75.830	-1.700	1.900																			1580024255.0	1.07	1.98
26/01/2020 07:37:36	26012020	260120	073736	75.800	12.713538	-57.244762	75.750	0.460	-0.000	0.300	75.820	-1.400	0.800																			1580024256.0	1.64	3.04
26/01/2020 07:37:37	26012020	260120	073737	75.950	12.713547	-57.244763	75.910	0.130	0.330	-0.840	75.990	-1.100	-0.400																			1580024257.0	1.78	3.30
26/01/2020 07:37:38	26012020	260120	073738	76.190	12.713552	-57.244765	76.120	-0.290	0.500	-1.660	76.220	-0.900	-1.200																			1580024258.0	1.36	2.52
26/01/2020 07:37:39	26012020	260120	073739	76.330	12.713555	-57.244767	76.240	-0.630	0.370	-1.870	76.340	-1.000	-1.500																			1580024259.0	0.59	1.09
26/01/2020 07:37:40	26012020	260120	073740	76.310	12.713553	-57.244765	76.200	-0.720	-0.010	-1.470	76.280	-1.400	-1.100																			1580024260.0	0.32	0.59
26/01/2020 07:37:41	26012020	260120	073741	76.180	12.713550	-57.244762	76.080	-0.540	-0.490	-0.750	76.150	-1.800	-0.400																			1580024261.0	0.94	1.74
26/01/2020 07:37:42	26012020	260120	073742	76.030	12.713547	-57.244758	75.950	-0.220	-0.800	0.030	75.990	-2.100	0.300																			1580024262.0	1.20	2.22
26/01/2020 07:37:43	26012020	260120	073743	75.880	12.713542	-57.244755	75.820	0.050	-0.770	0.760	75.850	-2.100	1.100																			1580024263.0	1.14	2.11
26/01/2020 07:37:44	26012020	260120	073744	75.780	12.713538	-57.244753	75.760	0.190	-0.390	1.330	75.780	-1.800	1.700																			1580024264.0	0.89	1.65
26/01/2020 07:37:45	26012020	260120	073745	75.810	12.713537	-57.244752	75.810	0.240	0.090	1.540	75.830	-1.300	1.900																			1580024265.0	0.55	1.02
26/01/2020 07:37:46	26012020	260120	073746	75.970	12.713537	-57.244752	75.970	0.260	0.380	1.240	76.000	-1.000	1.700																			1580024266.0	0.07	0.13
26/01/2020 07:37:47	26012020	260120	073747	76.110	12.713540	-57.244752	76.120	0.310	0.360	0.590	76.140	-1.000	1.000																			1580024267.0	0.74	1.37
26/01/2020 07:37:48	26012020	260120	073748	76.210	12.713545	-57.244750	76.160	0.380	0.140	-0.090	76.210	-1.200	0.400																			1580024268.0	1.27	2.35
26/01/2020 07:37:49	26012020	260120	073749	76.190	12.713552	-57.244748	76.080	0.410	-0.090	-0.590	76.170	-1.400	-0.200																			1580024269.0	1.40	2.59
26/01/2020 07:37:50	26012020	260120	073750	76.110	12.713557	-57.244747	76.030	0.290	-0.250	-0.830	76.110	-1.600	-0.400																			1580024270.0	1.14	2.11
26/01/2020 07:37:51	26012020	260120	073751	76.130	12.713560	-57.244745	76.060	0.050	-0.350	-0.770	76.140	-1.700	-0.400																			1580024271.0	0.68	1.26
26/01/2020 07:37:52	26012020	260120	073752	76.150	12.713560	-57.244743	76.080	-0.260	-0.440	-0.420	76.140	-1.800	-0.100																			1580024272.0	0.56	1.04
26/01/2020 07:37:53	26012020	260120	073753	76.100	12.713557	-57.244738	76.030	-0.530	-0.470	0.100	76.080	-1.800	0.400																			1580024273.0	0.95	1.76
26/01/2020 07:37:54	26012020	260120	073754	76.030	12.713553	-57.244735	75.980	-0.660	-0.300	0.680	76.010	-1.700	1.000																			1580024274.0	1.22	2.26
26/01/2020 07:37:55	26012020	260120	073755	75.970	12.713548	-57.244730	75.940	-0.590	0.070	1.140	75.960	-1.300	1.500																			1580024275.0	1.25	2.31
26/01/2020 07:37:56	26012020	260120	073756	75.960	12.713545	-57.244728	75.960	-0.360	0.460	1.230	75.980	-0.900	1.600																			1580024276.0	0.92	1.70
26/01/2020 07:37:57	26012020	260120	073757	76.090	12.713545	-57.244727	76.090	-0.030	0.560	0.820	76.120	-0.800	1.200																			1580024277.0	0.36	0.67
26/01/2020 07:37:58	26012020	260120	073758	76.230	12.713548	-57.244725	76.190	0.300	0.330	0.150	76.250	-1.000	0.600																			1580024278.0	0.88	1.63
26/01/2020 07:37:59	26012020	260120	073759	76.250	12.713555	-57.244722	76.180	0.500	-0.060	-0.540	76.230	-1.400	-0.100																			1580024279.0	1.42	2.63
26/01/2020 07:38:00	26012020	260120	073800	76.200	12.713562	-57.244720	76.120	0.550	-0.480	-1.110	76.200	-1.800	-0.700	1013.80	25.50	25.60	19.80	19.90	-1.00	70.00	70.00	404.00	25.10	12.00	5.60	90.00	5.00	14	3200.00	27.40	27.40	1580024280.0	1.61	2.98
26/01/2020 07:38:01	26012020	260120	073801	76.210	12.713568	-57.244717	76.150	0.490	-0.840	-1.420	76.220	-2.200	-1.000																			1580024281.0	1.58	2.93
26/01/2020 07:38:02	26012020	260120	073802	76.300	12.713573	-57.244713	76.240	0.350	-0.910	-1.280	76.310	-2.300	-0.900																			1580024282.0	1.25	2.31
26/01/2020 07:38:03	26012020	260120	073803	76.320	12.713573	-57.244708	76.260	0.130	-0.580	-0.610	76.310	-2.000	-0.300																			1580024283.0	0.82	1.52
26/01/2020 07:38:04	26012020	260120	073804	76.230	12.713568	-57.244705	76.180	-0.170	-0.050	0.380	76.200	-1.500	0.700																			1580024284.0	1.16	2.15
26/01/2020 07:38:05	26012020	260120	073805	76.060	12.713563	-57.244702	76.030	-0.490	0.380	1.370	76.030	-1.000	1.700																			1580024285.0	1.57	2.91
26/01/2020 07:38:06	26012020	260120	073806	75.970	12.713558	-57.244697	75.970	-0.670	0.530	2.020	75.970	-0.800	2.400																			1580024286.0	1.57	2.91
26/01/2020 07:38:07	26012020	260120	073807	76.070	12.713555	-57.244690	76.100	-0.560	0.400	2.080	76.110	-0.900	2.500																			1580024287.0	1.29	2.39
26/01/2020 07:38:08	26012020	260120	073808	76.310	12.713555	-57.244685	76.330	-0.210	0.140	1.600	76.360	-1.200	2.000																			1580024288.0	1.13	2.09
26/01/2020 07:38:09	26012020	260120	073809	76.530	12.713560	-57.244680	76.510	0.170	-0.130	0.810	76.560	-1.500	1.300																			1580024289.0	1.30	2.41
26/01/2020 07:38:10	26012020	260120	073810	76.640	12.713565	-57.244677	76.590	0.360	-0.290	-0.100	76.660	-1.700	0.400																			1580024290.0	1.52	2.82
26/01/2020 07:38:11	26012020	260120	073811	76.690	12.713572	-57.244673	76.620	0.290	-0.270	-0.900	76.700	-1.600	-0.400																			1580024291.0	1.57	2.91
26/01/2020 07:38:12	26012020	260120	073812	76.690	12.713578	-57.244672	76.570	0.120	-0.120	-1.380	76.670	-1.500	-1.000																			1580024292.0	1.36	2.52
26/01/2020 07:38:13	26012020	260120	073813	76.600	12.713582	-57.244668	76.440	0.040	-0.090	-1.430	76.570	-1.400	-1.000																			1580024293.0	1.00	1.85
26/01/2020 07:38:14	26012020	260120	073814	76.430	12.713583	-57.244665	76.320	0.130	-0.340	-1.200	76.400	-1.700	-0.800																			1580024294.0	1.06	1.96
26/01/2020 07:38:15	26012020	260120	073815	76.360	12.713585	-57.244658	76.270	0.250	-0.650	-0.810	76.360	-2.000	-0.500																			1580024295.0	1.45	2.69
26/01/2020 07:38:16	26012020	260120	073816	76.370	12.713585	-57.244650	76.300	0.220	-0.640	-0.220	76.380	-2.000	0.100																			1580024296.0	1.56	2.89
26/01/2020 07:38:17	26012020	260120	073817	76.460	12.713583	-57.244645	76.430	-0.010	-0.140	0.390	76.490	-1.600	0.700																			1580024297.0	1.33	2.46
26/01/2020 07:38:18	26012020	260120	073818	76.590	12.713582	-57.244640	76.570	-0.300	0.500	0.940	76.610	-0.900	1.300																			1580024298.0	1.03	1.91
26/01/2020 07:38:19	26012020	260120	073819	76.700	12.713578	-57.244637	76.700	-0.440	0.720	1.370	76.720	-0.600	1.700																			1580024299.0	1.00	1.85
26/01/2020 07:38:20	26012020	260120	073820	76.820	12.713577	-57.244630	76.820	-0.310	0.300	1.560	76.850	-1.000	1.900																			1580024300.0	1.37	2.54
26/01/2020 07:38:21	26012020	260120	073821	76.930	12.713578	-57.244622	76.910	-0.020	-0.320	1.390	76.950	-1.600	1.800																			1580024301.0	1.79	3.32
26/01/2020 07:38:22	26012020	260120	073822	77.010	12.713580	-57.244613	76.970	0.170	-0.550	0.940	77.020	-1.900	1.400																			1580024302.0	1.77	3.28
26/01/2020 07:38:23	26012020	260120	073823	77.020	12.713585	-57.244608	76.950	0.130	-0.260	0.450	77.010	-1.600	0.900																			1580024303.0	1.36	2.52
26/01/2020 07:38:24	26012020	260120	073824	76.980	12.713588	-57.244605	76.900	-0.010	0.080	-0.000	76.970	-1.300	0.400																			1580024304.0	1.07	1.98
26/01/2020 07:38:25	26012020	260120	073825	76.950	12.713593	-57.244602	76.880	-0.060	0.050	-0.450	76.950	-1.300	-0.000																			1580024305.0	1.19	2.20
26/01/2020 07:38:26	26012020	260120	073826	77.000	12.713598	-57.244595	76.930	0.030	-0.260	-0.890	77.020	-1.600	-0.500																			1580024306.0	1.61	2.98
26/01/2020 07:38:27	26012020	260120	073827	77.100	12.713602	-57.244588	77.020	0.160	-0.490	-1.160	77.120	-1.800	-0.800																			1580024307.0	1.82	3.37
26/01/2020 07:38:28	26012020	260120	073828	77.170	12.713605	-57.244582	77.080	0.230	-0.390	-1.100	77.170	-1.800	-0.700																			1580024308.0	1.64	3.04
26/01/2020 07:38:29	26012020	260120	073829	77.190	12.713605	-57.244575	77.100	0.180	-0.020	-0.710	77.190	-1.400	-0.400																			1580024309.0	1.33	2.46
26/01/2020 07:38:30	26012020	260120	073830	77.180	12.713605	-57.244570	77.110	0.020	0.280	-0.170	77.180	-1.100	0.200																			1580024310.0	1.23	2.28
26/01/2020 07:38:31	26012020	260120	073831	77.230	12.713603	-57.244563	77.190	-0.130	0.240	0.290	77.260	-1.100	0.600																			1580024311.0	1.40	2.59
26/01/2020 07:38:32	26012020	260120	073832	77.370	12.713605	-57.244555	77.350	-0.150	-0.080	0.620	77.400	-1.400	1.000																			1580024312.0	1.69	3.13
26/01/2020 07:38:33	26012020	260120	073833	77.520	12.713605	-57.244547	77.490	-0.030	-0.380	0.890	77.540	-1.700	1.200																			1580024313.0	1.89	3.50
26/01/2020 07:38:34	26012020	260120	073834	77.610	12.713605	-57.244537	77.590	0.040	-0.400	1.180	77.620	-1.800	1.500																			1580024314.0	1.85	3.43
26/01/2020 07:38:35	26012020	260120	073835	77.650	12.713605	-57.244530	77.630	-0.070	-0.120	1.330	77.650	-1.500	1.700																			1580024315.0	1.60	2.96
26/01/2020 07:38:36	26012020	260120	073836	77.680	12.713605	-57.244523	77.660	-0.250	0.190	1.200	77.690	-1.200	1.600																			1580024316.0	1.35	2.50
26/01/2020 07:38:37	26012020	260120	073837	77.710	12.713607	-57.244517	77.680	-0.310	0.260	0.850	77.710	-1.100	1.300																			1580024317.0	1.43	2.65
26/01/2020 07:38:38	26012020	260120	073838	77.760	12.713612	-57.244510	77.720	-0.140	0.020	0.330	77.770	-1.300	0.800																			1580024318.0	1.78	3.30
26/01/2020 07:38:39	26012020	260120	073839	77.820	12.713617	-57.244500	77.790	0.190	-0.400	-0.310	77.840	-1.700	0.100																			1580024319.0	2.17	4.02
26/01/2020 07:38:40	26012020	260120	073840	77.970	12.713623	-57.244492	77.910	0.470	-0.700	-0.930	77.990	-2.000	-0.500																			1580024320.0	2.41	4.46
26/01/2020 07:38:41	26012020	260120	073841	78.060	12.713628	-57.244482	77.980	0.480	-0.540	-1.300	78.070	-1.900	-0.900																			1580024321.0	2.27	4.20
26/01/2020 07:38:42	26012020	260120	073842	78.070	12.713632	-57.244475	77.970	0.220	0.090	-1.290	78.060	-1.300	-0.900																			1580024322.0	1.71	3.17
26/01/2020 07:38:43	26012020	260120	073843	78.060	12.713633	-57.244468	77.980	-0.120	0.660	-0.970	78.070	-0.700	-0.600																			1580024323.0	1.26	2.33
26/01/2020 07:38:44	26012020	260120	073844	78.170	12.713635	-57.244462	78.120	-0.300	0.620	-0.510	78.200	-0.700	-0.200																			1580024324.0	1.49	2.76
26/01/2020 07:38:45	26012020	260120	073845	78.370	12.713635	-57.244452	78.340	-0.250	-0.010	-0.000	78.420	-1.300	0.300																			1580024325.0	2.19	4.06
26/01/2020 07:38:46	26012020	260120	073846	78.570	12.713635	-57.244438	78.540	-0.080	-0.720	0.530	78.600	-2.000	0.800																			1580024326.0	2.73	5.06
26/01/2020 07:38:47	26012020	260120	073847	78.640	12.713633	-57.244427	78.590	0.030	-0.890	1.150	78.630	-2.300	1.500																			1580024327.0	2.69	4.98
26/01/2020 07:38:48	26012020	260120	073848	78.540	12.713632	-57.244415	78.500	0.010	-0.480	1.790	78.510	-1.900	2.100																			1580024328.0	2.22	4.11
26/01/2020 07:38:49	26012020	260120	073849	78.440	12.713630	-57.244407	78.410	-0.050	-0.000	2.110	78.420	-1.400	2.500																			1580024329.0	1.89	3.50
26/01/2020 07:38:50	26012020	260120	073850	78.470	12.713630	-57.244398	78.490	-0.070	0.210	1.770	78.510	-1.200	2.200																			1580024330.0	1.91	3.54
26/01/2020 07:38:51	26012020	260120	073851	78.710	12.713635	-57.244388	78.730	-0.090	0.310	0.850	78.770	-1.100	1.300																			1580024331.0	2.23	4.13
26/01/2020 07:38:52	26012020	260120	073852	78.980	12.713642	-57.244380	78.960	-0.110	0.350	-0.210	79.010	-1.000	0.300																			1580024332.0	2.45	4.54
26/01/2020 07:38:53	26012020	260120	073853	79.140	12.713650	-57.244372	79.090	-0.020	0.130	-1.060	79.160	-1.200	-0.600																			1580024333.0	2.51	4.65
26/01/2020 07:38:54	26012020	260120	073854	79.240	12.713657	-57.244360	79.170	0.210	-0.370	-1.630	79.260	-1.700	-1.200																			1580024334.0	2.71	5.02
26/01/2020 07:38:55	26012020	260120	073855	79.290	12.713662	-57.244348	79.220	0.380	-0.690	-1.870	79.310	-2.000	-1.500																			1580024335.0	2.88	5.33
26/01/2020 07:38:56	26012020	260120	073856	79.330	12.713665	-57.244337	79.270	0.300	-0.540	-1.660	79.330	-1.900	-1.300																			1580024336.0	2.57	4.76
26/01/2020 07:38:57	26012020	260120	073857	79.380	12.713667	-57.244327	79.340	0.030	-0.060	-1.070	79.390	-1.500	-0.800																			1580024337.0	2.13	3.94
26/01/2020 07:38:58	26012020	260120	073858	79.500	12.713665	-57.244317	79.500	-0.210	0.340	-0.320	79.540	-1.000	-0.000																			1580024338.0	2.00	3.70
26/01/2020 07:38:59	26012020	260120	073859	79.680	12.713663	-57.244307	79.700	-0.290	0.360	0.420	79.720	-1.000	0.700																			1580024339.0	2.27	4.20
26/01/2020 07:39:00	26012020	260120	073900	79.880	12.713662	-57.244293	79.910	-0.210	0.020	1.120	79.920	-1.300	1.400	1013.80	25.50	25.60	19.80	19.90	-1.00	70.00	70.00	405.00	25.10	3.00	6.60	80.00	5.70	14	3308.00	27.40	27.40	1580024340.0	2.70	5.00
26/01/2020 07:39:01	26012020	260120	073901	80.000	12.713660	-57.244280	80.040	-0.070	-0.410	1.740	80.020	-1.700	2.000																			1580024341.0	3.02	5.59
26/01/2020 07:39:02	26012020	260120	073902	80.030	12.713658	-57.244265	80.040	0.020	-0.650	2.200	80.020	-2.000	2.500																			1580024342.0	3.08	5.70
26/01/2020 07:39:03	26012020	260120	073903	80.000	12.713658	-57.244252	80.010	0.040	-0.540	2.290	80.000	-1.900	2.700																			1580024343.0	2.85	5.28
26/01/2020 07:39:04	26012020	260120	073904	80.000	12.713660	-57.244240	80.010	0.050	-0.140	1.850	80.010	-1.500	2.300																			1580024344.0	2.52	4.67
26/01/2020 07:39:05	26012020	260120	073905	80.100	12.713665	-57.244230	80.110	0.070	0.310	0.850	80.130	-1.100	1.300																			1580024345.0	2.42	4.48
26/01/2020 07:39:06	26012020	260120	073906	80.370	12.713673	-57.244220	80.390	0.110	0.470	-0.480	80.440	-0.900	0.000																			1580024346.0	2.78	5.15
26/01/2020 07:39:07	26012020	260120	073907	80.770	12.713685	-57.244208	80.750	0.140	0.270	-1.740	80.850	-1.100	-1.300																			1580024347.0	3.24	6.00
26/01/2020 07:39:08	26012020	260120	073908	81.090	12.713693	-57.244195	81.040	0.090	-0.110	-2.450	81.130	-1.400	-2.000																			1580024348.0	3.36	6.22
26/01/2020 07:39:09	26012020	260120	073909	81.190	12.713698	-57.244182	81.110	-0.030	-0.410	-2.440	81.180	-1.700	-2.100																			1580024349.0	3.13	5.80
26/01/2020 07:39:10	26012020	260120	073910	81.100	12.713700	-57.244168	81.020	-0.150	-0.480	-1.740	81.070	-1.800	-1.500																			1580024350.0	2.92	5.41
26/01/2020 07:39:11	26012020	260120	073911	81.000	12.713697	-57.244155	80.970	-0.190	-0.360	-0.630	80.990	-1.700	-0.400																			1580024351.0	2.95	5.46
26/01/2020 07:39:12	26012020	260120	073912	81.010	12.713693	-57.244140	81.020	-0.150	-0.230	0.510	81.020	-1.600	0.800																			1580024352.0	3.03	5.61
26/01/2020 07:39:13	26012020	260120	073913	81.160	12.713690	-57.244127	81.220	-0.050	-0.210	1.340	81.220	-1.600	1.600																			1580024353.0	3.17	5.87
26/01/2020 07:39:14	26012020	260120	073914	81.480	12.713687	-57.244112	81.560	0.060	-0.160	1.750	81.560	-1.500	2.100																			1580024354.0	3.23	5.98
26/01/2020 07:39:15	26012020	260120	073915	81.770	12.713687	-57.244097	81.890	0.100	0.090	1.850	81.830	-1.300	2.200																			1580024355.0	3.03	5.61
26/01/2020 07:39:16	26012020	260120	073916	82.040	12.713688	-57.244083	82.060	0.060	0.350	1.690	82.060	-1.000	2.100																			1580024356.0	2.77	5.13
26/01/2020 07:39:17	26012020	260120	073917	82.100	12.713692	-57.244072	82.090	0.020	0.310	1.240	82.100	-1.000	1.600																			1580024357.0	2.81	5.20
26/01/2020 07:39:18	26012020	260120	073918	82.090	12.713698	-57.244057	82.070	0.100	-0.120	0.540	82.090	-1.400	1.000																			1580024358.0	3.25	6.02
26/01/2020 07:39:19	26012020	260120	073919	82.140	12.713705	-57.244042	82.110	0.270	-0.630	-0.230	82.160	-2.000	0.200																			1580024359.0	3.74	6.93
26/01/2020 07:39:20	26012020	260120	073920	82.230	12.713713	-57.244025	82.200	0.310	-0.690	-0.840	82.260	-2.100	-0.400																			1580024360.0	3.74	6.93
26/01/2020 07:39:21	26012020	260120	073921	82.390	12.713718	-57.244012	82.360	0.030	-0.240	-1.260	82.440	-1.600	-0.900																			1580024361.0	3.17	5.87
26/01/2020 07:39:22	26012020	260120	073922	82.640	12.713722	-57.243998	82.610	-0.410	0.240	-1.440	82.690	-1.200	-1.100																			1580024362.0	2.72	5.04
26/01/2020 07:39:23	26012020	260120	073923	82.890	12.713723	-57.243985	82.880	-0.680	0.390	-1.240	82.950	-1.000	-0.900																			1580024363.0	2.84	5.26
26/01/2020 07:39:24	26012020	260120	073924	83.130	12.713722	-57.243970	83.110	-0.580	0.220	-0.710	83.170	-1.100	-0.400																			1580024364.0	3.28	6.07
26/01/2020 07:39:25	26012020	260120	073925	83.290	12.713718	-57.243953	83.260	-0.170	-0.140	-0.050	83.310	-1.500	0.200																			1580024365.0	3.64	6.74
26/01/2020 07:39:26	26012020	260120	073926	83.370	12.713717	-57.243935	83.350	0.320	-0.430	0.470	83.390	-1.800	0.800																			1580024366.0	3.75	6.95
26/01/2020 07:39:27	26012020	260120	073927	83.440	12.713717	-57.243918	83.440	0.580	-0.460	0.770	83.460	-1.800	1.100																			1580024367.0	3.55	6.57
26/01/2020 07:39:28	26012020	260120	073928	83.580	12.713718	-57.243903	83.590	0.570	-0.290	0.930	83.620	-1.700	1.300																			1580024368.0	3.28	6.07
26/01/2020 07:39:29	26012020	260120	073929	83.730	12.713722	-57.243888	83.760	0.420	-0.110	0.900	83.770	-1.500	1.300																			1580024369.0	3.21	5.94
26/01/2020 07:39:30	26012020	260120	073930	83.960	12.713725	-57.243873	83.940	0.240	-0.060	0.730	83.990	-1.400	1.100																			1580024370.0	3.35	6.20
26/01/2020 07:39:31	26012020	260120	073931	84.070	12.713728	-57.243857	84.020	-0.000	-0.060	0.650	84.080	-1.400	1.000																			1580024371.0	3.53	6.54
26/01/2020 07:39:32	26012020	260120	073932	84.100	12.713730	-57.243840	84.060	-0.300	-0.010	0.610	84.110	-1.400	1.000																			1580024372.0	3.55	6.57
26/01/2020 07:39:33	26012020	260120	073933	84.180	12.713732	-57.243823	84.160	-0.540	0.090	0.430	84.210	-1.300	0.800																			1580024373.0	3.47	6.43
26/01/2020 07:39:34	26012020	260120	073934	84.420	12.713733	-57.243807	84.420	-0.590	0.170	0.030	84.490	-1.200	0.400																			1580024374.0	3.39	6.28
26/01/2020 07:39:35	26012020	260120	073935	84.780	12.713735	-57.243790	84.770	-0.430	0.080	-0.450	84.850	-1.300	-0.000																			1580024375.0	3.46	6.41
26/01/2020 07:39:36	26012020	260120	073936	85.060	12.713738	-57.243773	85.010	-0.130	-0.190	-0.790	85.100	-1.500	-0.400																			1580024376.0	3.66	6.78
26/01/2020 07:39:37	26012020	260120	073937	85.180	12.713742	-57.243755	85.100	0.210	-0.520	-0.910	85.190	-1.900	-0.500																			1580024377.0	3.85	7.13
26/01/2020 07:39:38	26012020	260120	073938	85.270	12.713743	-57.243737	85.200	0.500	-0.700	-0.850	85.290	-2.000	-0.500																			1580024378.0	3.95	7.32
26/01/2020 07:39:39	26012020	260120	073939	85.380	12.713745	-57.243718	85.310	0.580	-0.490	-0.610	85.390	-1.900	-0.300																			1580024379.0	3.85	7.13
26/01/2020 07:39:40	26012020	260120	073940	85.440	12.713745	-57.243702	85.380	0.380	0.020	-0.270	85.450	-1.400	0.100																			1580024380.0	3.52	6.52
26/01/2020 07:39:41	26012020	260120	073941	85.530	12.713747	-57.243687	85.480	0.040	0.500	0.040	85.560	-0.900	0.400																			1580024381.0	3.27	6.06
26/01/2020 07:39:42	26012020	260120	073942	85.680	12.713747	-57.243670	85.660	-0.200	0.540	0.320	85.720	-0.800	0.700																			1580024382.0	3.40	6.30
26/01/2020 07:39:43	26012020	260120	073943	85.930	12.713748	-57.243652	85.940	-0.200	0.120	0.520	85.990	-1.200	0.900																			1580024383.0	3.87	7.17
26/01/2020 07:39:44	26012020	260120	073944	86.230	12.713748	-57.243632	86.230	-0.060	-0.380	0.710	86.280	-1.700	1.000																			1580024384.0	4.23	7.83
26/01/2020 07:39:45	26012020	260120	073945	86.420	12.713748	-57.243612	86.400	0.000	-0.640	0.860	86.450	-2.000	1.200																			1580024385.0	4.24	7.85
26/01/2020 07:39:46	26012020	260120	073946	86.530	12.713748	-57.243593	86.520	-0.080	-0.520	0.880	86.560	-1.900	1.200																			1580024386.0	3.98	7.37
26/01/2020 07:39:47	26012020	260120	073947	86.640	12.713748	-57.243577	86.620	-0.220	-0.150	0.820	86.670	-1.500	1.200																			1580024387.0	3.65	6.76
26/01/2020 07:39:48	26012020	260120	073948	86.730	12.713748	-57.243560	86.690	-0.280	0.200	0.650	86.740	-1.200	1.000																			1580024388.0	3.50	6.48
26/01/2020 07:39:49	26012020	260120	073949	86.810	12.713750	-57.243542	86.780	-0.170	0.210	0.240	86.840	-1.100	0.600																			1580024389.0	3.68	6.82
26/01/2020 07:39:50	26012020	260120	073950	87.020	12.713753	-57.243523	87.000	0.050	-0.100	-0.360	87.070	-1.400	0.100																			1580024390.0	4.16	7.70
26/01/2020 07:39:51	26012020	260120	073951	87.260	12.713758	-57.243502	87.310	0.210	-0.340	-0.940	87.330	-1.700	-0.500																			1580024391.0	4.43	8.20
26/01/2020 07:39:52	26012020	260120	073952	87.680	12.713762	-57.243483	87.660	0.260	-0.270	-1.360	87.750	-1.600	-1.000																			1580024392.0	4.26	7.89
26/01/2020 07:39:53	26012020	260120	073953	87.940	12.713765	-57.243465	87.880	0.280	-0.020	-1.410	87.960	-1.400	-1.000																			1580024393.0	3.92	7.26
26/01/2020 07:39:54	26012020	260120	073954	87.980	12.713767	-57.243447	87.900	0.280	0.090	-1.060	87.970	-1.300	-0.700																			1580024394.0	3.86	7.15
26/01/2020 07:39:55	26012020	260120	073955	87.960	12.713767	-57.243427	87.910	0.230	-0.020	-0.500	87.970	-1.300	-0.200																			1580024395.0	4.09	7.57
26/01/2020 07:39:56	26012020	260120	073956	88.070	12.713765	-57.243407	88.070	0.090	-0.230	0.140	88.110	-1.600	0.400																			1580024396.0	4.34	8.04
26/01/2020 07:39:57	26012020	260120	073957	88.310	12.713763	-57.243385	88.340	-0.120	-0.390	0.770	88.370	-1.700	1.100																			1580024397.0	4.47	8.28
26/01/2020 07:39:58	26012020	260120	073958	88.580	12.713760	-57.243365	88.600	-0.360	-0.350	1.320	88.620	-1.700	1.600																			1580024398.0	4.45	8.24
26/01/2020 07:39:59	26012020	260120	073959	88.750	12.713755	-57.243345	88.760	-0.500	-0.160	1.770	88.780	-1.500	2.100																			1580024399.0	4.33	8.02
26/01/2020 07:40:00	26012020	260120	074000	88.860	12.713752	-57.243325	88.870	-0.460	0.020	1.990	88.890	-1.300	2.300	1013.80	25.50	25.60	19.80	19.90	-1.00	70.00	70.00	406.00	25.10	357.00	7.70	80.00	6.00	14	3292.00	27.40	27.40	1580024400.0	4.28	7.93
26/01/2020 07:40:01	26012020	260120	074001	89.030	12.713750	-57.243303	89.050	-0.230	0.050	1.800	89.080	-1.300	2.200																			1580024401.0	4.35	8.06
26/01/2020 07:40:02	26012020	260120	074002	89.360	12.713750	-57.243283	89.390	0.110	-0.030	1.010	89.450	-1.400	1.400																			1580024402.0	4.51	8.35
26/01/2020 07:40:03	26012020	260120	074003	89.800	12.713755	-57.243260	89.810	0.380	-0.030	-0.150	89.890	-1.400	0.300																			1580024403.0	4.71	8.72
26/01/2020 07:40:04	26012020	260120	074004	90.230	12.713763	-57.243240	90.210	0.460	0.120	-1.210	90.310	-1.200	-0.800																			1580024404.0	4.68	8.67
26/01/2020 07:40:05	26012020	260120	074005	90.570	12.713770	-57.243220	90.610	0.370	0.180	-1.910	90.640	-1.200	-1.500																			1580024405.0	4.51	8.35
26/01/2020 07:40:06	26012020	260120	074006	90.990	12.713775	-57.243200	90.940	0.210	-0.050	-2.090	91.040	-1.400	-1.700																			1580024406.0	4.52	8.37
26/01/2020 07:40:07	26012020	260120	074007	91.260	12.713777	-57.243177	91.220	0.070	-0.480	-1.700	91.300	-1.800	-1.400																			1580024407.0	4.76	8.82
26/01/2020 07:40:08	26012020	260120	074008	91.490	12.713775	-57.243153	91.460	-0.020	-0.760	-0.820	91.530	-2.100	-0.600																			1580024408.0	4.97	9.20
26/01/2020 07:40:09	26012020	260120	074009	91.700	12.713770	-57.243130	91.700	-0.120	-0.640	0.260	91.750	-2.000	0.500																			1580024409.0	4.93	9.13
26/01/2020 07:40:10	26012020	260120	074010	91.950	12.713763	-57.243110	91.980	-0.260	-0.240	1.290	92.010	-1.600	1.600																			1580024410.0	4.71	8.72
26/01/2020 07:40:11	26012020	260120	074011	92.290	12.713757	-57.243088	92.350	-0.390	0.130	1.990	92.370	-1.200	2.300																			1580024411.0	4.61	8.54
26/01/2020 07:40:12	26012020	260120	074012	92.760	12.713750	-57.243067	92.860	-0.410	0.220	2.180	92.870	-1.100	2.500																			1580024412.0	4.70	8.70
26/01/2020 07:40:13	26012020	260120	074013	93.320	12.713748	-57.243043	93.410	-0.310	0.100	1.900	93.430	-1.200	2.300																			1580024413.0	4.93	9.13
26/01/2020 07:40:14	26012020	260120	074014	93.880	12.713748	-57.243020	93.940	-0.110	-0.030	1.200	93.990	-1.400	1.600																			1580024414.0	5.08	9.41
26/01/2020 07:40:15	26012020	260120	074015	94.390	12.713750	-57.242995	94.430	0.130	-0.060	0.280	94.490	-1.400	0.700																			1580024415.0	5.08	9.41
26/01/2020 07:40:16	26012020	260120	074016	94.860	12.713753	-57.242972	94.870	0.310	0.070	-0.610	94.940	-1.300	-0.200																			1580024416.0	5.02	9.30
26/01/2020 07:40:17	26012020	260120	074017	95.220	12.713758	-57.242950	95.320	0.350	0.250	-1.390	95.310	-1.100	-1.000																			1580024417.0	4.85	8.98
26/01/2020 07:40:18	26012020	260120	074018	95.840	12.713762	-57.242927	95.860	0.310	0.150	-2.010	95.960	-1.200	-1.600																			1580024418.0	4.85	8.98
26/01/2020 07:40:19	26012020	260120	074019	96.300	12.713765	-57.242903	96.390	0.300	-0.290	-2.260	96.410	-1.600	-1.900																			1580024419.0	5.18	9.59
26/01/2020 07:40:20	26012020	260120	074020	96.870	12.713765	-57.242877	96.840	0.280	-0.700	-1.910	96.940	-2.000	-1.600																			1580024420.0	5.44	10.07
26/01/2020 07:40:21	26012020	260120	074021	97.250	12.713762	-57.242852	97.240	0.110	-0.730	-0.960	97.330	-2.100	-0.700																			1580024421.0	5.32	9.85
26/01/2020 07:40:22	26012020	260120	074022	97.670	12.713755	-57.242828	97.700	-0.260	-0.380	0.280	97.760	-1.800	0.500																			1580024422.0	5.09	9.43
26/01/2020 07:40:23	26012020	260120	074023	98.120	12.713745	-57.242808	98.160	-0.640	0.010	1.430	98.200	-1.400	1.700																			1580024423.0	4.99	9.24
26/01/2020 07:40:24	26012020	260120	074024	98.530	12.713735	-57.242785	98.590	-0.770	0.040	2.200	98.610	-1.300	2.500																			1580024424.0	5.20	9.63
26/01/2020 07:40:25	26012020	260120	074025	98.940	12.713725	-57.242760	99.010	-0.500	-0.260	2.470	99.040	-1.600	2.800																			1580024425.0	5.65	10.46
26/01/2020 07:40:26	26012020	260120	074026	99.470	12.713720	-57.242733	99.550	-0.070	-0.340	2.150	99.590	-1.700	2.500																			1580024426.0	5.87	10.87
26/01/2020 07:40:27	26012020	260120	074027	100.180	12.713718	-57.242707	100.270	0.210	0.090	1.190	100.340	-1.300	1.600																			1580024427.0	5.49	10.17
26/01/2020 07:40:28	26012020	260120	074028	101.000	12.713720	-57.242683	101.050	0.250	0.610	-0.090	101.160	-0.700	0.400																			1580024428.0	5.10	9.45
26/01/2020 07:40:29	26012020	260120	074029	101.740	12.713725	-57.242658	101.740	0.240	0.640	-1.180	101.880	-0.700	-0.700																			1580024429.0	5.22	9.67
26/01/2020 07:40:30	26012020	260120	074030	102.370	12.713727	-57.242632	102.340	0.340	0.060	-1.840	102.490	-1.200	-1.400																			1580024430.0	5.71	10.57
26/01/2020 07:40:31	26012020	260120	074031	102.960	12.713727	-57.242603	102.930	0.450	-0.570	-2.030	103.070	-1.900	-1.700																			1580024431.0	6.11	11.32
26/01/2020 07:40:32	26012020	260120	074032	103.500	12.713723	-57.242575	103.450	0.370	-0.760	-1.750	103.590	-2.100	-1.400																			1580024432.0	5.89	10.91
26/01/2020 07:40:33	26012020	260120	074033	103.990	12.713718	-57.242550	103.960	0.100	-0.550	-1.080	104.090	-1.900	-0.800																			1580024433.0	5.41	10.02
26/01/2020 07:40:34	26012020	260120	074034	104.520	12.713710	-57.242527	104.520	-0.230	-0.240	-0.270	104.630	-1.600	0.000																			1580024434.0	5.24	9.70
26/01/2020 07:40:35	26012020	260120	074035	105.070	12.713698	-57.242503	105.090	-0.430	-0.100	0.500	105.180	-1.400	0.800																			1580024435.0	5.40	10.00
26/01/2020 07:40:36	26012020	260120	074036	105.620	12.713688	-57.242478	105.650	-0.430	-0.130	0.970	105.730	-1.400	1.300																			1580024436.0	5.71	10.57
26/01/2020 07:40:37	26012020	260120	074037	106.210	12.713680	-57.242452	106.250	-0.290	-0.170	1.050	106.330	-1.500	1.400																			1580024437.0	5.88	10.89
26/01/2020 07:40:38	26012020	260120	074038	106.840	12.713672	-57.242425	106.890	-0.160	-0.130	0.900	106.970	-1.500	1.300																			1580024438.0	5.91	10.95
26/01/2020 07:40:39	26012020	260120	074039	107.500	12.713665	-57.242398	107.560	-0.100	-0.020	0.550	107.650	-1.400	0.900																			1580024439.0	5.86	10.85
26/01/2020 07:40:40	26012020	260120	074040	108.280	12.713660	-57.242372	108.350	-0.060	0.160	-0.130	108.460	-1.200	0.300																			1580024440.0	5.80	10.74
26/01/2020 07:40:41	26012020	260120	074041	108.970	12.713657	-57.242343	109.200	0.050	0.210	-0.850	109.150	-1.100	-0.400																			1580024441.0	5.80	10.74
26/01/2020 07:40:42	26012020	260120	074042	109.950	12.713652	-57.242317	109.980	0.190	0.110	-1.240	110.100	-1.200	-0.900																			1580024442.0	5.98	11.07
26/01/2020 07:40:43	26012020	260120	074043	110.640	12.713647	-57.242288	110.640	0.260	-0.010	-1.350	110.750	-1.300	-1.000																			1580024443.0	6.00	11.11
26/01/2020 07:40:44	26012020	260120	074044	111.180	12.713638	-57.242262	111.170	0.300	-0.170	-1.210	111.270	-1.500	-0.900																			1580024444.0	5.93	10.98
26/01/2020 07:40:45	26012020	260120	074045	111.670	12.713630	-57.242235	111.690	0.370	-0.410	-0.880	111.780	-1.700	-0.500																			1580024445.0	6.01	11.13
26/01/2020 07:40:46	26012020	260120	074046	112.290	12.713622	-57.242207	112.350	0.350	-0.580	-0.590	112.430	-1.900	-0.300																			1580024446.0	6.18	11.45
26/01/2020 07:40:47	26012020	260120	074047	113.040	12.713612	-57.242178	113.110	0.080	-0.450	-0.290	113.190	-1.800	0.000																			1580024447.0	6.14	11.37
26/01/2020 07:40:48	26012020	260120	074048	113.760	12.713600	-57.242153	113.830	-0.400	-0.090	0.110	113.900	-1.400	0.400																			1580024448.0	5.84	10.82
26/01/2020 07:40:49	26012020	260120	074049	114.380	12.713587	-57.242130	114.450	-0.740	0.180	0.510	114.490	-1.200	0.800																			1580024449.0	5.71	10.57
26/01/2020 07:40:50	26012020	260120	074050	114.890	12.713573	-57.242107	114.950	-0.630	0.050	0.800	114.990	-1.200	1.100																			1580024450.0	6.00	11.11
26/01/2020 07:40:51	26012020	260120	074051	115.420	12.713560	-57.242078	115.500	-0.140	-0.270	0.700	115.540	-1.600	1.100																			1580024451.0	6.50	12.04
26/01/2020 07:40:52	26012020	260120	074052	116.120	12.713548	-57.242048	116.220	0.330	-0.390	0.180	116.270	-1.700	0.600																			1580024452.0	6.68	12.37
26/01/2020 07:40:53	26012020	260120	074053	116.940	12.713538	-57.242020	117.040	0.430	-0.210	-0.400	117.110	-1.500	0.000																			1580024453.0	6.46	11.96
26/01/2020 07:40:54	26012020	260120	074054	117.780	12.713530	-57.241992	117.860	0.220	0.170	-0.850	117.950	-1.200	-0.500																			1580024454.0	6.12	11.33
26/01/2020 07:40:55	26012020	260120	074055	118.480	12.713522	-57.241967	118.720	-0.030	0.520	-1.180	118.640	-0.800	-0.800																			1580024455.0	5.88	10.89
26/01/2020 07:40:56	26012020	260120	074056	119.480	12.713512	-57.241940	119.540	-0.090	0.410	-1.270	119.630	-0.900	-0.900																			1580024456.0	5.96	11.04
26/01/2020 07:40:57	26012020	260120	074057	120.190	12.713498	-57.241912	120.210	0.060	-0.200	-1.070	120.300	-1.500	-0.700																			1580024457.0	6.47	11.98
26/01/2020 07:40:58	26012020	260120	074058	120.770	12.713483	-57.241883	120.780	0.200	-0.780	-0.630	120.870	-2.100	-0.300																			1580024458.0	6.88	12.74
26/01/2020 07:40:59	26012020	260120	074059	121.320	12.713467	-57.241857	121.360	0.210	-0.850	-0.130	121.440	-2.200	0.200																			1580024459.0	6.72	12.45
26/01/2020 07:41:00	26012020	260120	074100	121.910	12.713450	-57.241832	121.970	0.130	-0.470	0.160	122.040	-1.800	0.500	1013.70	25.60	25.60	19.80	19.80	-1.00	70.00	70.00	406.00	25.10	343.00	8.80	79.00	6.20	14	3233.00	27.40	27.40	1580024460.0	6.26	11.59
26/01/2020 07:41:01	26012020	260120	074101	122.550	12.713437	-57.241807	122.640	-0.010	-0.010	0.270	122.690	-1.400	0.600																			1580024461.0	6.04	11.19
26/01/2020 07:41:02	26012020	260120	074102	123.250	12.713422	-57.241782	123.360	-0.210	0.280	0.280	123.390	-1.100	0.600																			1580024462.0	6.14	11.37
26/01/2020 07:41:03	26012020	260120	074103	124.000	12.713407	-57.241755	124.120	-0.380	0.280	0.090	124.160	-1.000	0.500																			1580024463.0	6.36	11.78
26/01/2020 07:41:04	26012020	260120	074104	124.800	12.713392	-57.241728	124.920	-0.370	-0.010	-0.140	124.950	-1.300	0.200																			1580024464.0	6.64	12.30
26/01/2020 07:41:05	26012020	260120	074105	125.480	12.713373	-57.241702	125.590	-0.150	-0.430	-0.260	125.610	-1.700	0.100																			1580024465.0	6.93	12.83
26/01/2020 07:41:06	26012020	260120	074106	126.160	12.713355	-57.241673	126.280	0.120	-0.540	-0.530	126.310	-1.900	-0.100																			1580024466.0	7.04	13.04
26/01/2020 07:41:07	26012020	260120	074107	126.780	12.713340	-57.241647	127.060	0.240	-0.180	-0.860	126.930	-1.500	-0.500																			1580024467.0	6.65	12.32
26/01/2020 07:41:08	26012020	260120	074108	127.770	12.713325	-57.241620	127.900	0.140	0.300	-1.050	127.940	-1.100	-0.700																			1580024468.0	6.25	11.58
26/01/2020 07:41:09	26012020	260120	074109	128.460	12.713310	-57.241595	128.740	0.010	0.410	-1.130	128.630	-0.900	-0.800																			1580024469.0	6.22	11.52
26/01/2020 07:41:10	26012020	260120	074110	129.390	12.713292	-57.241570	129.460	0.050	0.040	-0.980	129.510	-1.200	-0.600																			1580024470.0	6.68	12.37
26/01/2020 07:41:11	26012020	260120	074111	130.070	12.713272	-57.241543	130.150	0.190	-0.340	-0.690	130.200	-1.600	-0.400																			1580024471.0	7.11	13.17
26/01/2020 07:41:12	26012020	260120	074112	130.840	12.713252	-57.241517	130.950	0.230	-0.320	-0.430	131.020	-1.700	-0.100																			1580024472.0	6.93	12.83
26/01/2020 07:41:13	26012020	260120	074113	131.730	12.713233	-57.241493	131.850	0.100	-0.090	-0.250	131.910	-1.400	0.100																			1580024473.0	6.46	11.96
26/01/2020 07:41:14	26012020	260120	074114	132.540	12.713213	-57.241472	132.600	-0.050	-0.050	-0.110	132.680	-1.400	0.200																			1580024474.0	6.34	11.74
26/01/2020 07:41:15	26012020	260120	074115	133.120	12.713193	-57.241447	133.150	-0.020	-0.360	0.050	133.220	-1.700	0.400																			1580024475.0	6.71	12.43
26/01/2020 07:41:16	26012020	260120	074116	133.630	12.713172	-57.241422	133.660	0.110	-0.690	0.160	133.750	-2.000	0.500																			1580024476.0	7.18	13.30
26/01/2020 07:41:17	26012020	260120	074117	134.340	12.713150	-57.241397	134.410	0.100	-0.530	-0.080	134.510	-1.900	0.300																			1580024477.0	7.15	13.24
26/01/2020 07:41:18	26012020	260120	074118	135.200	12.713130	-57.241372	135.270	-0.140	-0.070	-0.410	135.370	-1.400	-0.000																			1580024478.0	6.65	12.32
26/01/2020 07:41:19	26012020	260120	074119	136.010	12.713110	-57.241348	136.050	-0.340	0.110	-0.570	136.160	-1.200	-0.200																			1580024479.0	6.55	12.13
26/01/2020 07:41:20	26012020	260120	074120	136.680	12.713088	-57.241323	136.720	-0.250	-0.140	-0.630	136.810	-1.400	-0.300																			1580024480.0	7.07	13.09
26/01/2020 07:41:21	26012020	260120	074121	137.340	12.713063	-57.241298	137.400	-0.000	-0.310	-0.590	137.490	-1.600	-0.200																			1580024481.0	7.52	13.93
26/01/2020 07:41:22	26012020	260120	074122	138.180	12.713040	-57.241273	138.260	0.080	0.010	-0.560	138.350	-1.400	-0.200																			1580024482.0	7.25	13.43
26/01/2020 07:41:23	26012020	260120	074123	139.130	12.713018	-57.241252	139.230	-0.070	0.540	-0.610	139.310	-0.800	-0.300																			1580024483.0	6.64	12.30
26/01/2020 07:41:24	26012020	260120	074124	140.050	12.712995	-57.241230	140.160	-0.200	0.690	-0.680	140.220	-0.600	-0.300																			1580024484.0	6.49	12.02
26/01/2020 07:41:25	26012020	260120	074125	140.870	12.712972	-57.241208	140.950	-0.050	0.290	-0.680	141.020	-1.000	-0.300																			1580024485.0	6.92	12.82
26/01/2020 07:41:26	26012020	260120	074126	141.650	12.712947	-57.241185	141.740	0.330	-0.260	-0.730	141.810	-1.600	-0.400																			1580024486.0	7.38	13.67
26/01/2020 07:41:27	26012020	260120	074127	142.490	12.712920	-57.241162	142.600	0.610	-0.430	-0.830	142.680	-1.800	-0.500																			1580024487.0	7.30	13.52
26/01/2020 07:41:28	26012020	260120	074128	143.440	12.712898	-57.241140	143.560	0.550	-0.280	-0.970	143.640	-1.600	-0.600																			1580024488.0	6.82	12.63
26/01/2020 07:41:29	26012020	260120	074129	144.380	12.712875	-57.241118	144.470	0.240	-0.280	-0.980	144.550	-1.600	-0.600																			1580024489.0	6.59	12.20
26/01/2020 07:41:30	26012020	260120	074130	145.070	12.712850	-57.241098	145.080	-0.050	-0.690	-0.580	145.160	-2.000	-0.300																			1580024490.0	6.93	12.83
26/01/2020 07:41:31	26012020	260120	074131	145.340	12.712822	-57.241078	145.390	-0.130	-1.180	0.060	145.400	-2.500	0.400																			1580024491.0	7.53	13.95
26/01/2020 07:41:32	26012020	260120	074132	145.760	12.712790	-57.241058	145.810	-0.120	-1.130	0.410	145.870	-2.500	0.800																			1580024492.0	7.72	14.30
26/01/2020 07:41:33	26012020	260120	074133	146.440	12.712763	-57.241038	146.560	-0.220	-0.430	0.380	146.620	-1.800	0.700																			1580024493.0	7.25	13.43
26/01/2020 07:41:34	26012020	260120	074134	147.410	12.712737	-57.241020	147.520	-0.430	0.370	0.120	147.600	-1.000	0.500																			1580024494.0	6.86	12.70
26/01/2020 07:41:35	26012020	260120	074135	148.390	12.712710	-57.241002	148.460	-0.540	0.750	-0.250	148.550	-0.600	0.100																			1580024495.0	6.98	12.93
26/01/2020 07:41:36	26012020	260120	074136	149.230	12.712682	-57.240980	149.280	-0.380	0.660	-0.680	149.390	-0.700	-0.300																			1580024496.0	7.48	13.85
26/01/2020 07:41:37	26012020	260120	074137	150.060	12.712653	-57.240958	150.120	-0.030	0.460	-1.050	150.240	-0.900	-0.700																			1580024497.0	7.77	14.39
26/01/2020 07:41:38	26012020	260120	074138	150.980	12.712625	-57.240937	151.040	0.250	0.370	-1.250	151.160	-1.000	-0.900																			1580024498.0	7.58	14.04
26/01/2020 07:41:39	26012020	260120	074139	151.870	12.712597	-57.240918	151.930	0.320	0.250	-1.250	152.050	-1.100	-0.900																			1580024499.0	7.29	13.50
26/01/2020 07:41:40	26012020	260120	074140	152.660	12.712568	-57.240900	152.710	0.250	-0.030	-1.030	152.800	-1.300	-0.700																			1580024500.0	7.20	13.33
26/01/2020 07:41:41	26012020	260120	074141	153.330	12.712538	-57.240885	153.370	0.190	-0.390	-0.590	153.460	-1.700	-0.300																			1580024501.0	7.29	13.50
26/01/2020 07:41:42	26012020	260120	074142	153.970	12.712507	-57.240870	154.010	0.250	-0.560	-0.230	154.110	-1.900	0.100																			1580024502.0	7.28	13.48
26/01/2020 07:41:43	26012020	260120	074143	154.670	12.712478	-57.240855	154.740	0.360	-0.570	-0.200	154.830	-1.900	0.200																			1580024503.0	7.12	13.19
26/01/2020 07:41:44	26012020	260120	074144	155.460	12.712448	-57.240838	155.540	0.330	-0.630	-0.310	155.630	-2.000	0.100																			1580024504.0	7.17	13.28
26/01/2020 07:41:45	26012020	260120	074145	156.120	12.712418	-57.240822	156.360	0.130	-0.760	-0.340	156.280	-2.100	0.000																			1580024505.0	7.43	13.76
26/01/2020 07:41:46	26012020	260120	074146	157.080	12.712387	-57.240807	157.170	-0.110	-0.740	-0.390	157.240	-2.100	-0.000																			1580024506.0	7.61	14.09
26/01/2020 07:41:47	26012020	260120	074147	157.910	12.712355	-57.240790	158.020	-0.250	-0.450	-0.580	158.070	-1.800	-0.200																			1580024507.0	7.60	14.08
26/01/2020 07:41:48	26012020	260120	074148	158.760	12.712323	-57.240775	158.860	-0.270	-0.080	-0.720	158.910	-1.400	-0.400																			1580024508.0	7.53	13.95
26/01/2020 07:41:49	26012020	260120	074149	159.540	12.712292	-57.240758	159.620	-0.230	0.150	-0.730	159.690	-1.200	-0.400																			1580024509.0	7.65	14.17
26/01/2020 07:41:50	26012020	260120	074150	160.260	12.712258	-57.240743	160.350	-0.250	0.300	-0.640	160.400	-1.000	-0.300																			1580024510.0	7.84	14.52
26/01/2020 07:41:51	26012020	260120	074151	160.960	12.712225	-57.240728	161.050	-0.330	0.450	-0.490	161.110	-0.900	-0.100																			1580024511.0	7.80	14.45
26/01/2020 07:41:52	26012020	260120	074152	161.690	12.712192	-57.240717	161.780	-0.330	0.540	-0.290	161.830	-0.800	0.100																			1580024512.0	7.64	14.15
26/01/2020 07:41:53	26012020	260120	074153	162.370	12.712158	-57.240705	162.460	-0.120	0.450	-0.120	162.510	-0.900	0.200																			1580024513.0	7.58	14.04
26/01/2020 07:41:54	26012020	260120	074154	163.020	12.712123	-57.240693	163.100	0.280	0.180	-0.150	163.150	-1.100	0.200																			1580024514.0	7.68	14.22
26/01/2020 07:41:55	26012020	260120	074155	163.750	12.712090	-57.240680	163.860	0.570	-0.120	-0.410	163.920	-1.400	-0.000																			1580024515.0	7.77	14.39
26/01/2020 07:41:56	26012020	260120	074156	164.640	12.712057	-57.240667	164.740	0.510	-0.330	-0.640	164.820	-1.700	-0.300																			1580024516.0	7.63	14.13
26/01/2020 07:41:57	26012020	260120	074157	165.380	12.712025	-57.240653	165.650	0.190	-0.590	-0.720	165.560	-1.900	-0.400																			1580024517.0	7.50	13.89
26/01/2020 07:41:58	26012020	260120	074158	166.480	12.711992	-57.240643	166.550	-0.110	-0.830	-0.760	166.650	-2.200	-0.400																			1580024518.0	7.59	14.06
26/01/2020 07:41:59	26012020	260120	074159	167.140	12.711957	-57.240635	167.320	-0.150	-0.970	-0.710	167.290	-2.300	-0.400																			1580024519.0	7.75	14.35
26/01/2020 07:42:00	26012020	260120	074200	167.950	12.711920	-57.240627	167.960	0.020	-0.840	-0.630	168.070	-2.200	-0.300	1013.70	25.60	25.60	19.80	19.90	-1.00	70.00	70.00	406.00	25.10	321.00	8.60	83.00	6.30	14	3211.00	27.40	27.40	1580024520.0	7.86	14.56
26/01/2020 07:42:01	26012020	260120	074201	168.650	12.711885	-57.240617	168.690	0.080	-0.320	-0.790	168.800	-1.700	-0.400																			1580024521.0	7.78	14.41
26/01/2020 07:42:02	26012020	260120	074202	169.470	12.711852	-57.240607	169.500	-0.100	0.330	-1.030	169.620	-1.100	-0.700																			1580024522.0	7.54	13.96
26/01/2020 07:42:03	26012020	260120	074203	170.220	12.711818	-57.240597	170.240	-0.310	0.650	-1.180	170.360	-0.700	-0.800																			1580024523.0	7.60	14.08
26/01/2020 07:42:04	26012020	260120	074204	170.880	12.711782	-57.240587	170.900	-0.310	0.550	-1.290	171.010	-0.800	-0.900																			1580024524.0	7.99	14.80
26/01/2020 07:42:05	26012020	260120	074205	171.480	12.711745	-57.240577	171.470	-0.060	0.240	-1.190	171.580	-1.100	-0.900																			1580024525.0	8.26	15.30
26/01/2020 07:42:06	26012020	260120	074206	171.950	12.711707	-57.240570	171.940	0.270	-0.010	-0.820	172.050	-1.300	-0.500																			1580024526.0	8.25	15.28
26/01/2020 07:42:07	26012020	260120	074207	172.430	12.711670	-57.240563	172.440	0.390	-0.040	-0.480	172.540	-1.400	-0.200																			1580024527.0	7.95	14.72
26/01/2020 07:42:08	26012020	260120	074208	172.930	12.711635	-57.240558	172.940	0.260	-0.070	-0.190	173.020	-1.400	0.100																			1580024528.0	7.61	14.09
26/01/2020 07:42:09	26012020	260120	074209	173.350	12.711600	-57.240555	173.350	0.060	-0.420	0.040	173.430	-1.700	0.400																			1580024529.0	7.70	14.26
26/01/2020 07:42:10	26012020	260120	074210	173.720	12.711562	-57.240552	173.720	-0.000	-0.910	0.110	173.790	-2.200	0.400																			1580024530.0	8.13	15.06
26/01/2020 07:42:11	26012020	260120	074211	174.100	12.711523	-57.240548	174.120	0.020	-1.090	0.010	174.190	-2.400	0.400																			1580024531.0	8.37	15.50
26/01/2020 07:42:12	26012020	260120	074212	174.630	12.711487	-57.240543	174.690	-0.070	-0.680	-0.280	174.750	-2.100	0.100																			1580024532.0	8.11	15.02
26/01/2020 07:42:13	26012020	260120	074213	175.340	12.711450	-57.240537	175.400	-0.320	0.010	-0.720	175.470	-1.400	-0.300																			1580024533.0	7.71	14.28
26/01/2020 07:42:14	26012020	260120	074214	176.070	12.711415	-57.240532	176.120	-0.540	0.450	-1.080	176.210	-0.900	-0.700																			1580024534.0	7.71	14.28
26/01/2020 07:42:15	26012020	260120	074215	176.740	12.711378	-57.240527	176.770	-0.490	0.440	-1.290	176.860	-0.900	-0.900																			1580024535.0	8.12	15.04
26/01/2020 07:42:16	26012020	260120	074216	177.330	12.711338	-57.240522	177.350	-0.140	0.190	-1.380	177.440	-1.100	-1.000																			1580024536.0	8.52	15.78
26/01/2020 07:42:17	26012020	260120	074217	177.860	12.711298	-57.240517	177.880	0.240	0.030	-1.300	177.960	-1.300	-1.000																			1580024537.0	8.59	15.91
26/01/2020 07:42:18	26012020	260120	074218	178.280	12.711260	-57.240513	178.290	0.380	0.050	-0.910	178.350	-1.300	-0.600																			1580024538.0	8.26	15.30
26/01/2020 07:42:19	26012020	260120	074219	178.570	12.711223	-57.240512	178.580	0.300	0.060	-0.340	178.620	-1.300	-0.000																			1580024539.0	7.97	14.76
26/01/2020 07:42:20	26012020	260120	074220	178.770	12.711187	-57.240513	178.790	0.200	-0.070	0.240	178.800	-1.400	0.500																			1580024540.0	7.98	14.78
26/01/2020 07:42:21	26012020	260120	074221	178.910	12.711148	-57.240515	178.930	0.240	-0.260	0.680	178.940	-1.600	1.000																			1580024541.0	8.12	15.04
26/01/2020 07:42:22	26012020	260120	074222	179.060	12.711110	-57.240515	179.080	0.380	-0.450	0.770	179.090	-1.800	1.100																			1580024542.0	8.23	15.24
26/01/2020 07:42:23	26012020	260120	074223	179.270	12.711072	-57.240513	179.400	0.440	-0.600	0.500	179.330	-1.900	0.900																			1580024543.0	8.32	15.41
26/01/2020 07:42:24	26012020	260120	074224	179.830	12.711033	-57.240512	179.930	0.260	-0.600	0.020	179.940	-1.900	0.400																			1580024544.0	8.39	15.54
26/01/2020 07:42:25	26012020	260120	074225	180.460	12.710995	-57.240508	180.560	-0.100	-0.390	-0.550	180.570	-1.700	-0.200																			1580024545.0	8.26	15.30
26/01/2020 07:42:26	26012020	260120	074226	181.050	12.710957	-57.240507	181.130	-0.410	-0.200	-0.990	181.150	-1.500	-0.600																			1580024546.0	8.19	15.17
26/01/2020 07:42:27	26012020	260120	074227	181.520	12.710918	-57.240505	181.570	-0.500	-0.140	-1.190	181.590	-1.500	-0.800																			1580024547.0	8.36	15.48
26/01/2020 07:42:28	26012020	260120	074228	181.780	12.710878	-57.240505	181.800	-0.400	-0.200	-1.210	181.800	-1.500	-0.900																			1580024548.0	8.59	15.91
26/01/2020 07:42:29	26012020	260120	074229	181.860	12.710837	-57.240507	181.880	-0.240	-0.300	-1.130	181.870	-1.600	-0.800																			1580024549.0	8.76	16.22
26/01/2020 07:42:30	26012020	260120	074230	181.900	12.710797	-57.240507	181.910	-0.140	-0.240	-0.970	181.900	-1.600	-0.700																			1580024550.0	8.77	16.24
26/01/2020 07:42:31	26012020	260120	074231	181.840	12.710757	-57.240508	181.840	-0.130	-0.030	-0.760	181.800	-1.400	-0.500																			1580024551.0	8.56	15.85
26/01/2020 07:42:32	26012020	260120	074232	181.580	12.710717	-57.240510	181.540	-0.140	0.070	-0.420	181.500	-1.300	-0.100																			1580024552.0	8.48	15.70
26/01/2020 07:42:33	26012020	260120	074233	181.170	12.710677	-57.240513	181.140	-0.110	0.060	-0.010	181.090	-1.300	0.300																			1580024553.0	8.68	16.08
26/01/2020 07:42:34	26012020	260120	074234	180.850	12.710637	-57.240518	180.870	-0.010	0.240	0.130	180.810	-1.100	0.400																			1580024554.0	8.67	16.06
26/01/2020 07:42:35	26012020	260120	074235	180.710	12.710598	-57.240522	180.710	0.150	0.470	-0.010	180.680	-0.900	0.300																			1580024555.0	8.32	15.41
26/01/2020 07:42:36	26012020	260120	074236	180.520	12.710560	-57.240522	180.540	0.360	0.360	-0.220	180.480	-1.000	0.100																			1580024556.0	8.27	15.32
26/01/2020 07:42:37	26012020	260120	074237	180.310	12.710520	-57.240522	180.320	0.510	-0.070	-0.220	180.270	-1.400	0.100																			1580024557.0	8.59	15.91
26/01/2020 07:42:38	26012020	260120	074238	180.080	12.710478	-57.240525	180.090	0.530	-0.490	0.150	180.040	-1.800	0.400																			1580024558.0	8.78	16.26
26/01/2020 07:42:39	26012020	260120	074239	179.860	12.710438	-57.240528	179.880	0.430	-0.620	0.600	179.810	-2.000	0.900																			1580024559.0	8.66	16.04
26/01/2020 07:42:40	26012020	260120	074240	179.690	12.710400	-57.240532	179.730	0.250	-0.580	0.950	179.660	-1.900	1.200																			1580024560.0	8.40	15.56
26/01/2020 07:42:41	26012020	260120	074241	179.540	12.710360	-57.240535	179.580	0.040	-0.690	1.300	179.500	-2.000	1.600																			1580024561.0	8.45	15.65
26/01/2020 07:42:42	26012020	260120	074242	179.320	12.710320	-57.240538	179.350	-0.150	-0.980	1.680	179.260	-2.300	2.000																			1580024562.0	8.85	16.39
26/01/2020 07:42:43	26012020	260120	074243	179.000	12.710277	-57.240543	179.020	-0.260	-1.110	1.900	178.920	-2.500	2.200																			1580024563.0	9.25	17.13
26/01/2020 07:42:44	26012020	260120	074244	178.730	12.710233	-57.240545	178.800	-0.340	-0.700	1.740	178.710	-2.100	2.100																			1580024564.0	9.20	17.04
26/01/2020 07:42:45	26012020	260120	074245	178.770	12.710193	-57.240547	178.860	-0.470	0.100	1.270	178.800	-1.300	1.600																			1580024565.0	8.72	16.15
26/01/2020 07:42:46	26012020	260120	074246	179.030	12.710153	-57.240545	179.120	-0.560	0.690	0.760	179.100	-0.700	1.100																			1580024566.0	8.52	15.78
26/01/2020 07:42:47	26012020	260120	074247	179.360	12.710113	-57.240545	179.450	-0.500	0.720	0.430	179.430	-0.600	0.800																			1580024567.0	8.88	16.45
26/01/2020 07:42:48	26012020	260120	074248	179.660	12.710070	-57.240545	179.710	-0.260	0.450	0.280	179.700	-0.900	0.600																			1580024568.0	9.32	17.26
26/01/2020 07:42:49	26012020	260120	074249	179.830	12.710027	-57.240545	179.880	0.080	0.260	0.270	179.860	-1.100	0.600																			1580024569.0	9.32	17.26
26/01/2020 07:42:50	26012020	260120	074250	179.970	12.709985	-57.240547	179.990	0.360	0.250	0.350	179.990	-1.100	0.700																			1580024570.0	8.96	16.59
26/01/2020 07:42:51	26012020	260120	074251	179.990	12.709943	-57.240547	180.010	0.490	0.230	0.380	179.980	-1.100	0.700																			1580024571.0	8.65	16.02
26/01/2020 07:42:52	26012020	260120	074252	179.890	12.709903	-57.240547	179.890	0.470	-0.000	0.430	179.860	-1.300	0.800																			1580024572.0	8.63	15.98
26/01/2020 07:42:53	26012020	260120	074253	179.700	12.709863	-57.240548	179.680	0.380	-0.410	0.540	179.660	-1.700	0.900																			1580024573.0	8.80	16.30
26/01/2020 07:42:54	26012020	260120	074254	179.450	12.709822	-57.240550	179.420	0.330	-0.840	0.700	179.390	-2.100	1.000																			1580024574.0	9.00	16.67
26/01/2020 07:42:55	26012020	260120	074255	179.140	12.709778	-57.240555	179.130	0.320	-1.080	0.850	179.090	-2.400	1.200																			1580024575.0	9.11	16.87
26/01/2020 07:42:56	26012020	260120	074256	178.930	12.709737	-57.240558	178.950	0.210	-0.940	0.870	178.910	-2.300	1.200																			1580024576.0	9.05	16.76
26/01/2020 07:42:57	26012020	260120	074257	178.980	12.709697	-57.240560	179.030	-0.060	-0.550	0.650	179.020	-1.900	1.000																			1580024577.0	8.84	16.37
26/01/2020 07:42:58	26012020	260120	074258	179.200	12.709655	-57.240562	179.250	-0.360	-0.270	0.360	179.240	-1.600	0.700																			1580024578.0	8.81	16.32
26/01/2020 07:42:59	26012020	260120	074259	179.340	12.709613	-57.240562	179.360	-0.520	-0.320	0.270	179.340	-1.600	0.600																			1580024579.0	9.20	17.04
26/01/2020 07:43:00	26012020	260120	074300	179.360	12.709568	-57.240565	179.360	-0.530	-0.430	0.410	179.360	-1.800	0.700	1013.70	25.60	25.70	20.00	20.10	-1.00	71.00	71.00	408.00	25.10	308.00	8.10	94.00	6.40	14	3326.00	27.40	27.40	1580024580.0	9.67	17.91
26/01/2020 07:43:01	26012020	260120	074301	179.380	12.709523	-57.240567	179.400	-0.480	-0.220	0.590	179.390	-1.600	0.900																			1580024581.0	9.67	17.91
26/01/2020 07:43:02	26012020	260120	074302	179.360	12.709480	-57.240570	179.360	-0.420	0.210	0.760	179.340	-1.200	1.100																			1580024582.0	9.30	17.22
26/01/2020 07:43:03	26012020	260120	074303	179.210	12.709437	-57.240572	179.210	-0.320	0.490	0.870	179.180	-0.900	1.200																			1580024583.0	9.18	17.00
26/01/2020 07:43:04	26012020	260120	074304	179.080	12.709393	-57.240572	179.090	-0.200	0.570	0.870	179.070	-0.800	1.200																			1580024584.0	9.33	17.28
26/01/2020 07:43:05	26012020	260120	074305	179.020	12.709350	-57.240573	179.020	-0.050	0.530	0.840	179.010	-0.800	1.200																			1580024585.0	9.32	17.26
26/01/2020 07:43:06	26012020	260120	074306	178.950	12.709307	-57.240573	178.940	0.180	0.320	0.800	178.920	-1.000	1.100																			1580024586.0	9.27	17.17
26/01/2020 07:43:07	26012020	260120	074307	178.820	12.709263	-57.240575	178.810	0.460	-0.040	0.780	178.790	-1.300	1.100																			1580024587.0	9.31	17.24
26/01/2020 07:43:08	26012020	260120	074308	178.730	12.709220	-57.240577	178.730	0.610	-0.380	0.870	178.720	-1.700	1.200																			1580024588.0	9.34	17.30
26/01/2020 07:43:09	26012020	260120	074309	178.680	12.709178	-57.240578	178.680	0.560	-0.590	1.020	178.670	-1.900	1.300																			1580024589.0	9.22	17.08
26/01/2020 07:43:10	26012020	260120	074310	178.590	12.709135	-57.240580	178.600	0.360	-0.720	1.120	178.580	-2.000	1.400																			1580024590.0	9.15	16.95
26/01/2020 07:43:11	26012020	260120	074311	178.590	12.709093	-57.240583	178.630	0.080	-0.670	1.070	178.610	-2.000	1.400																			1580024591.0	9.16	16.96
26/01/2020 07:43:12	26012020	260120	074312	178.740	12.709050	-57.240585	178.780	-0.150	-0.550	0.910	178.780	-1.900	1.300																			1580024592.0	9.10	16.85
26/01/2020 07:43:13	26012020	260120	074313	178.860	12.709008	-57.240587	178.910	-0.200	-0.550	0.670	178.890	-1.900	1.000																			1580024593.0	9.21	17.06
26/01/2020 07:43:14	26012020	260120	074314	178.920	12.708963	-57.240588	178.940	-0.090	-0.690	0.510	178.920	-2.000	0.900																			1580024594.0	9.60	17.78
26/01/2020 07:43:15	26012020	260120	074315	178.960	12.708917	-57.240588	179.000	-0.070	-0.670	0.550	178.970	-2.000	0.900																			1580024595.0	9.85	18.24
26/01/2020 07:43:16	26012020	260120	074316	179.100	12.708872	-57.240588	179.160	-0.310	-0.390	0.670	179.140	-1.800	1.000																			1580024596.0	9.79	18.13
26/01/2020 07:43:17	26012020	260120	074317	179.340	12.708827	-57.240590	179.410	-0.690	0.070	0.830	179.390	-1.300	1.200																			1580024597.0	9.59	17.76
26/01/2020 07:43:18	26012020	260120	074318	179.520	12.708783	-57.240593	179.560	-0.860	0.400	1.030	179.530	-0.900	1.400																			1580024598.0	9.52	17.63
26/01/2020 07:43:19	26012020	260120	074319	179.540	12.708738	-57.240598	179.560	-0.590	0.490	1.130	179.530	-0.800	1.500																			1580024599.0	9.69	17.95
26/01/2020 07:43:20	26012020	260120	074320	179.520	12.708692	-57.240598	179.560	-0.100	0.450	1.070	179.530	-0.900	1.400																			1580024600.0	9.84	18.22
26/01/2020 07:43:21	26012020	260120	074321	179.520	12.708647	-57.240598	179.540	0.280	0.350	0.940	179.520	-1.000	1.300																			1580024601.0	9.75	18.06
26/01/2020 07:43:22	26012020	260120	074322	179.480	12.708602	-57.240598	179.480	0.400	0.150	0.760	179.460	-1.200	1.100																			1580024602.0	9.65	17.87
26/01/2020 07:43:23	26012020	260120	074323	179.340	12.708558	-57.240598	179.330	0.340	-0.110	0.740	179.300	-1.400	1.100																			1580024603.0	9.57	17.72
26/01/2020 07:43:24	26012020	260120	074324	179.190	12.708513	-57.240602	179.180	0.320	-0.260	0.770	179.170	-1.600	1.100																			1580024604.0	9.51	17.61
26/01/2020 07:43:25	26012020	260120	074325	179.120	12.708470	-57.240603	179.130	0.360	-0.330	0.800	179.110	-1.700	1.100																			1580024605.0	9.34	17.30
26/01/2020 07:43:26	26012020	260120	074326	179.120	12.708427	-57.240605	179.160	0.400	-0.480	0.820	179.130	-1.800	1.200																			1580024606.0	9.32	17.26
26/01/2020 07:43:27	26012020	260120	074327	179.170	12.708382	-57.240608	179.230	0.400	-0.750	0.820	179.180	-2.100	1.200																			1580024607.0	9.54	17.67
26/01/2020 07:43:28	26012020	260120	074328	179.240	12.708337	-57.240610	179.280	0.350	-0.980	0.900	179.240	-2.300	1.200																			1580024608.0	9.75	18.06
26/01/2020 07:43:29	26012020	260120	074329	179.230	12.708292	-57.240612	179.290	0.190	-1.000	1.060	179.230	-2.300	1.400																			1580024609.0	9.89	18.32
26/01/2020 07:43:30	26012020	260120	074330	179.370	12.708245	-57.240613	179.490	-0.150	-0.700	1.110	179.430	-2.100	1.500																			1580024610.0	9.86	18.26
26/01/2020 07:43:31	26012020	260120	074331	179.690	12.708200	-57.240615	179.810	-0.560	-0.200	0.990	179.760	-1.600	1.400																			1580024611.0	9.70	17.96
26/01/2020 07:43:32	26012020	260120	074332	180.070	12.708155	-57.240617	180.180	-0.830	0.230	0.750	180.140	-1.100	1.100																			1580024612.0	9.67	17.91
26/01/2020 07:43:33	26012020	260120	074333	180.420	12.708110	-57.240617	180.510	-0.800	0.380	0.520	180.470	-0.900	0.900																			1580024613.0	9.81	18.17
26/01/2020 07:43:34	26012020	260120	074334	180.550	12.708063	-57.240618	180.580	-0.490	0.170	0.430	180.530	-1.100	0.800																			1580024614.0	10.13	18.76
26/01/2020 07:43:35	26012020	260120	074335	180.410	12.708015	-57.240618	180.410	-0.080	-0.060	0.460	180.360	-1.400	0.800																			1580024615.0	10.41	19.28
26/01/2020 07:43:36	26012020	260120	074336	180.160	12.707967	-57.240620	180.170	0.170	0.010	0.630	180.120	-1.300	1.000																			1580024616.0	10.22	18.93
26/01/2020 07:43:37	26012020	260120	074337	180.020	12.707922	-57.240620	180.050	0.150	0.310	0.760	180.000	-1.000	1.100																			1580024617.0	9.77	18.09
26/01/2020 07:43:38	26012020	260120	074338	179.960	12.707878	-57.240623	180.020	0.030	0.530	0.810	179.950	-0.800	1.200																			1580024618.0	9.41	17.43
26/01/2020 07:43:39	26012020	260120	074339	179.900	12.707833	-57.240627	179.890	0.100	0.250	0.940	179.860	-1.000	1.300																			1580024619.0	9.51	17.61
26/01/2020 07:43:40	26012020	260120	074340	179.690	12.707787	-57.240632	179.720	0.410	-0.410	1.030	179.660	-1.700	1.400																			1580024620.0	10.03	18.58
26/01/2020 07:43:41	26012020	260120	074341	179.640	12.707740	-57.240633	179.710	0.690	-0.870	0.920	179.660	-2.200	1.300																			1580024621.0	10.27	19.02
26/01/2020 07:43:42	26012020	260120	074342	179.810	12.707693	-57.240635	179.910	0.660	-0.870	0.640	179.860	-2.200	1.000																			1580024622.0	9.91	18.35
26/01/2020 07:43:43	26012020	260120	074343	180.050	12.707648	-57.240635	180.130	0.320	-0.720	0.390	180.080	-2.100	0.800																			1580024623.0	9.55	17.69
26/01/2020 07:43:44	26012020	260120	074344	180.170	12.707603	-57.240637	180.230	-0.050	-0.690	0.400	180.180	-2.000	0.700																			1580024624.0	9.69	17.95
26/01/2020 07:43:45	26012020	260120	074345	180.210	12.707557	-57.240638	180.280	-0.290	-0.700	0.600	180.220	-2.000	0.900																			1580024625.0	10.08	18.67
26/01/2020 07:43:46	26012020	260120	074346	180.230	12.707510	-57.240642	180.290	-0.420	-0.520	0.820	180.220	-1.900	1.200																			1580024626.0	10.25	18.98
26/01/2020 07:43:47	26012020	260120	074347	180.180	12.707462	-57.240643	180.250	-0.490	-0.150	1.040	180.170	-1.500	1.400																			1580024627.0	10.16	18.82
26/01/2020 07:43:48	26012020	260120	074348	180.170	12.707415	-57.240647	180.250	-0.480	0.290	1.040	180.170	-1.100	1.400																			1580024628.0	10.10	18.71
26/01/2020 07:43:49	26012020	260120	074349	180.190	12.707368	-57.240648	180.290	-0.400	0.600	0.790	180.200	-0.700	1.200																			1580024629.0	10.02	18.56
26/01/2020 07:43:50	26012020	260120	074350	180.250	12.707322	-57.240648	180.320	-0.240	0.600	0.630	180.250	-0.700	1.000																			1580024630.0	10.07	18.65
26/01/2020 07:43:51	26012020	260120	074351	180.280	12.707275	-57.240650	180.350	-0.000	0.340	0.600	180.290	-1.000	1.000																			1580024631.0	10.23	18.95
26/01/2020 07:43:52	26012020	260120	074352	180.280	12.707227	-57.240652	180.320	0.260	-0.010	0.680	180.260	-1.300	1.000																			1580024632.0	10.22	18.93
26/01/2020 07:43:53	26012020	260120	074353	180.060	12.707180	-57.240653	180.070	0.460	-0.450	0.910	180.000	-1.700	1.200																			1580024633.0	10.20	18.89
26/01/2020 07:43:54	26012020	260120	074354	179.730	12.707132	-57.240657	179.760	0.530	-0.720	1.130	179.680	-2.000	1.500																			1580024634.0	10.24	18.96
26/01/2020 07:43:55	26012020	260120	074355	179.530	12.707085	-57.240658	179.580	0.380	-0.620	1.220	179.520	-2.000	1.600																			1580024635.0	10.02	18.56
26/01/2020 07:43:56	26012020	260120	074356	179.560	12.707040	-57.240662	179.640	0.110	-0.350	1.120	179.580	-1.700	1.500																			1580024636.0	9.70	17.96
26/01/2020 07:43:57	26012020	260120	074357	179.670	12.706995	-57.240663	179.730	-0.050	-0.340	0.960	179.680	-1.700	1.300																			1580024637.0	9.76	18.08
26/01/2020 07:43:58	26012020	260120	074358	179.680	12.706947	-57.240665	179.730	-0.000	-0.630	0.880	179.670	-1.900	1.200																			1580024638.0	10.27	19.02
26/01/2020 07:43:59	26012020	260120	074359	179.750	12.706898	-57.240668	179.860	0.090	-0.730	0.770	179.800	-2.100	1.100																			1580024639.0	10.67	19.76
26/01/2020 07:44:00	26012020	260120	074400	180.080	12.706850	-57.240668	180.230	-0.040	-0.320	0.640	180.170	-1.700	1.000	1013.70	25.60	25.60	20.00	20.00	-1.00	71.00	71.00	411.00	25.10	310.00	8.00	91.00	6.10	14	3196.00	27.40	27.40	1580024640.0	10.38	19.22
26/01/2020 07:44:01	26012020	260120	074401	180.420	12.706803	-57.240670	180.650	-0.350	0.240	0.580	180.500	-1.100	0.900																			1580024641.0	9.87	18.28
26/01/2020 07:44:02	26012020	260120	074402	180.750	12.706758	-57.240673	180.850	-0.510	0.380	0.670	180.770	-0.900	1.000																			1580024642.0	9.87	18.28
26/01/2020 07:44:03	26012020	260120	074403	180.760	12.706710	-57.240677	180.840	-0.280	0.120	0.810	180.760	-1.200	1.200																			1580024643.0	10.42	19.30
26/01/2020 07:44:04	26012020	260120	074404	180.740	12.706660	-57.240678	180.830	0.140	-0.010	0.740	180.740	-1.300	1.100																			1580024644.0	10.63	19.69
26/01/2020 07:44:05	26012020	260120	074405	180.790	12.706612	-57.240678	180.890	0.360	0.050	0.550	180.800	-1.300	0.900																			1580024645.0	10.27	19.02
26/01/2020 07:44:06	26012020	260120	074406	180.790	12.706565	-57.240678	180.860	0.270	-0.050	0.500	180.770	-1.400	0.900																			1580024646.0	10.02	18.56
26/01/2020 07:44:07	26012020	260120	074407	180.570	12.706518	-57.240680	180.590	0.030	-0.430	0.800	180.480	-1.700	1.100																			1580024647.0	10.20	18.89
26/01/2020 07:44:08	26012020	260120	074408	180.120	12.706470	-57.240683	180.120	-0.070	-0.810	1.250	180.020	-2.100	1.600																			1580024648.0	10.54	19.52
26/01/2020 07:44:09	26012020	260120	074409	179.680	12.706420	-57.240688	179.730	-0.010	-0.780	1.490	179.620	-2.100	1.900																			1580024649.0	10.52	19.48
26/01/2020 07:44:10	26012020	260120	074410	179.480	12.706373	-57.240692	179.580	0.070	-0.370	1.410	179.480	-1.700	1.800																			1580024650.0	10.14	18.78
26/01/2020 07:44:11	26012020	260120	074411	179.550	12.706328	-57.240695	179.660	0.070	-0.020	1.060	179.570	-1.400	1.500																			1580024651.0	9.91	18.35
26/01/2020 07:44:12	26012020	260120	074412	179.680	12.706280	-57.240695	179.780	0.040	-0.050	0.750	179.710	-1.400	1.100																			1580024652.0	10.15	18.80
26/01/2020 07:44:13	26012020	260120	074413	179.790	12.706232	-57.240697	179.890	0.040	-0.310	0.710	179.810	-1.600	1.100																			1580024653.0	10.58	19.59
26/01/2020 07:44:14	26012020	260120	074414	179.960	12.706182	-57.240700	180.100	0.050	-0.370	0.690	180.030	-1.700	1.100																			1580024654.0	10.72	19.85
26/01/2020 07:44:15	26012020	260120	074415	180.240	12.706133	-57.240700	180.460	-0.030	-0.130	0.630	180.310	-1.500	1.000																			1580024655.0	10.40	19.26
26/01/2020 07:44:16	26012020	260120	074416	180.630	12.706087	-57.240702	180.750	-0.170	0.080	0.730	180.670	-1.200	1.100																			1580024656.0	10.13	18.76
26/01/2020 07:44:17	26012020	260120	074417	180.750	12.706038	-57.240705	180.830	-0.240	0.110	0.930	180.750	-1.200	1.300																			1580024657.0	10.19	18.87
26/01/2020 07:44:18	26012020	260120	074418	180.670	12.705990	-57.240708	180.720	-0.070	-0.060	1.050	180.630	-1.400	1.400																			1580024658.0	10.40	19.26
26/01/2020 07:44:19	26012020	260120	074419	180.470	12.705942	-57.240710	180.540	0.220	-0.230	0.990	180.440	-1.500	1.400																			1580024659.0	10.58	19.59
26/01/2020 07:44:20	26012020	260120	074420	180.400	12.705893	-57.240710	180.500	0.320	-0.170	0.750	180.400	-1.500	1.200																			1580024660.0	10.47	19.39
26/01/2020 07:44:21	26012020	260120	074421	180.450	12.705845	-57.240710	180.550	0.130	-0.050	0.580	180.450	-1.400	1.000																			1580024661.0	10.11	18.72
26/01/2020 07:44:22	26012020	260120	074422	180.410	12.705798	-57.240712	180.480	-0.080	-0.190	0.580	180.390	-1.500	1.000																			1580024662.0	10.08	18.67
26/01/2020 07:44:23	26012020	260120	074423	180.290	12.705750	-57.240715	180.350	-0.070	-0.550	0.680	180.250	-1.800	1.000																			1580024663.0	10.46	19.37
26/01/2020 07:44:24	26012020	260120	074424	180.080	12.705700	-57.240718	180.140	0.140	-0.860	0.880	180.030	-2.200	1.200																			1580024664.0	10.74	19.89
26/01/2020 07:44:25	26012020	260120	074425	179.900	12.705650	-57.240722	180.000	0.290	-0.820	0.920	179.890	-2.200	1.300																			1580024665.0	10.73	19.87
26/01/2020 07:44:26	26012020	260120	074426	179.980	12.705602	-57.240723	180.110	0.110	-0.390	0.720	180.030	-1.700	1.100																			1580024666.0	10.40	19.26
26/01/2020 07:44:27	26012020	260120	074427	180.150	12.705555	-57.240725	180.280	-0.280	0.010	0.660	180.180	-1.300	1.000																			1580024667.0	10.11	18.72
26/01/2020 07:44:28	26012020	260120	074428	180.260	12.705507	-57.240727	180.350	-0.540	0.040	0.820	180.280	-1.300	1.200																			1580024668.0	10.36	19.19
26/01/2020 07:44:29	26012020	260120	074429	180.280	12.705457	-57.240732	180.370	-0.500	-0.100	1.070	180.280	-1.400	1.400																			1580024669.0	10.80	20.00
26/01/2020 07:44:30	26012020	260120	074430	180.350	12.705407	-57.240735	180.460	-0.240	-0.060	1.170	180.380	-1.400	1.500																			1580024670.0	10.87	20.13
26/01/2020 07:44:31	26012020	260120	074431	180.520	12.705358	-57.240738	180.640	0.030	0.160	1.020	180.560	-1.200	1.400																			1580024671.0	10.51	19.46
26/01/2020 07:44:32	26012020	260120	074432	180.740	12.705310	-57.240738	180.840	0.180	0.250	0.760	180.770	-1.100	1.200																			1580024672.0	10.31	19.09
26/01/2020 07:44:33	26012020	260120	074433	180.830	12.705262	-57.240738	180.890	0.260	0.030	0.660	180.820	-1.300	1.000																			1580024673.0	10.40	19.26
26/01/2020 07:44:34	26012020	260120	074434	180.690	12.705212	-57.240740	180.730	0.350	-0.330	0.740	180.640	-1.600	1.100																			1580024674.0	10.65	19.72
26/01/2020 07:44:35	26012020	260120	074435	180.470	12.705162	-57.240742	180.530	0.380	-0.480	0.850	180.430	-1.800	1.200																			1580024675.0	10.68	19.78
26/01/2020 07:44:36	26012020	260120	074436	180.330	12.705113	-57.240743	180.400	0.280	-0.400	0.950	180.310	-1.700	1.300																			1580024676.0	10.40	19.26
26/01/2020 07:44:37	26012020	260120	074437	180.290	12.705067	-57.240747	180.380	0.100	-0.300	1.050	180.290	-1.600	1.400																			1580024677.0	10.28	19.04
26/01/2020 07:44:38	26012020	260120	074438	180.290	12.705018	-57.240750	180.370	-0.050	-0.290	1.190	180.290	-1.600	1.600																			1580024678.0	10.35	19.17
26/01/2020 07:44:39	26012020	260120	074439	180.230	12.704970	-57.240755	180.300	-0.050	-0.430	1.320	180.210	-1.700	1.700																			1580024679.0	10.53	19.50
26/01/2020 07:44:40	26012020	260120	074440	180.140	12.704920	-57.240758	180.220	0.060	-0.570	1.310	180.130	-1.900	1.700																			1580024680.0	10.78	19.96
26/01/2020 07:44:41	26012020	260120	074441	180.160	12.704870	-57.240760	180.280	0.100	-0.440	1.200	180.190	-1.800	1.600																			1580024681.0	10.76	19.93
26/01/2020 07:44:42	26012020	260120	074442	180.370	12.704822	-57.240762	180.500	-0.010	-0.070	0.900	180.420	-1.400	1.300																			1580024682.0	10.45	19.35
26/01/2020 07:44:43	26012020	260120	074443	180.640	12.704773	-57.240762	180.740	-0.200	0.090	0.550	180.680	-1.200	1.000																			1580024683.0	10.28	19.04
26/01/2020 07:44:44	26012020	260120	074444	180.760	12.704723	-57.240762	180.840	-0.280	-0.180	0.530	180.760	-1.500	0.900																			1580024684.0	10.65	19.72
26/01/2020 07:44:45	26012020	260120	074445	180.830	12.704672	-57.240765	180.930	-0.220	-0.450	0.630	180.860	-1.800	1.000																			1580024685.0	11.05	20.46
26/01/2020 07:44:46	26012020	260120	074446	180.970	12.704622	-57.240767	181.060	-0.130	-0.380	0.620	180.980	-1.700	1.000																			1580024686.0	10.87	20.13
26/01/2020 07:44:47	26012020	260120	074447	180.950	12.704573	-57.240770	181.000	-0.100	-0.230	0.730	180.910	-1.600	1.100																			1580024687.0	10.51	19.46
26/01/2020 07:44:48	26012020	260120	074448	180.650	12.704523	-57.240772	180.670	-0.080	-0.320	0.940	180.580	-1.600	1.300																			1580024688.0	10.64	19.71
26/01/2020 07:44:49	26012020	260120	074449	180.320	12.704473	-57.240775	180.350	-0.030	-0.380	1.060	180.260	-1.700	1.400																			1580024689.0	10.98	20.33
26/01/2020 07:44:50	26012020	260120	074450	180.110	12.704422	-57.240778	180.150	0.010	-0.090	1.050	180.080	-1.400	1.400																			1580024690.0	10.83	20.06
26/01/2020 07:44:51	26012020	260120	074451	180.020	12.704373	-57.240780	180.090	-0.010	0.300	0.910	180.020	-1.000	1.300																			1580024691.0	10.45	19.35
26/01/2020 07:44:52	26012020	260120	074452	180.070	12.704325	-57.240782	180.150	-0.040	0.440	0.740	180.090	-0.900	1.100																			1580024692.0	10.38	19.22
26/01/2020 07:44:53	26012020	260120	074453	180.210	12.704277	-57.240783	180.320	0.030	0.230	0.720	180.250	-1.100	1.100																			1580024693.0	10.59	19.61
26/01/2020 07:44:54	26012020	260120	074454	180.410	12.704227	-57.240787	180.520	0.200	-0.150	0.820	180.450	-1.400	1.200																			1580024694.0	10.79	19.98
26/01/2020 07:44:55	26012020	260120	074455	180.560	12.704177	-57.240790	180.650	0.410	-0.480	1.000	180.570	-1.800	1.400																			1580024695.0	10.82	20.04
26/01/2020 07:44:56	26012020	260120	074456	180.640	12.704127	-57.240793	180.760	0.510	-0.580	1.080	180.670	-1.900	1.500																			1580024696.0	10.68	19.78
26/01/2020 07:44:57	26012020	260120	074457	180.800	12.704078	-57.240795	180.930	0.360	-0.430	1.040	180.840	-1.800	1.400																			1580024697.0	10.39	19.24
26/01/2020 07:44:58	26012020	260120	074458	180.960	12.704032	-57.240797	181.070	0.070	-0.330	0.970	180.970	-1.600	1.400																			1580024698.0	10.19	18.87
26/01/2020 07:44:59	26012020	260120	074459	180.980	12.703982	-57.240798	181.070	-0.130	-0.530	0.900	180.980	-1.800	1.300																			1580024699.0	10.48	19.41
26/01/2020 07:45:00	26012020	260120	074500	180.950	12.703932	-57.240802	181.040	-0.170	-0.850	0.870	180.950	-2.100	1.300	1013.70	25.60	25.60	20.10	20.10	-1.00	71.00	71.00	413.00	25.10	311.00	8.60	92.00	6.50	14	3213.00	27.40	27.40	1580024700.0	10.94	20.26
26/01/2020 07:45:01	26012020	260120	074501	180.920	12.703880	-57.240803	180.990	-0.120	-0.970	0.820	180.910	-2.300	1.200																			1580024701.0	11.13	20.61
26/01/2020 07:45:02	26012020	260120	074502	180.840	12.703828	-57.240805	180.890	-0.100	-0.710	0.730	180.810	-2.100	1.100																			1580024702.0	11.00	20.37
26/01/2020 07:45:03	26012020	260120	074503	180.700	12.703778	-57.240807	180.750	-0.220	-0.260	0.730	180.670	-1.600	1.100																			1580024703.0	10.77	19.95
26/01/2020 07:45:04	26012020	260120	074504	180.560	12.703728	-57.240808	180.600	-0.430	0.110	0.910	180.530	-1.200	1.300																			1580024704.0	10.77	19.95
26/01/2020 07:45:05	26012020	260120	074505	180.470	12.703678	-57.240812	180.520	-0.580	0.350	1.150	180.450	-1.000	1.500																			1580024705.0	10.95	20.28
26/01/2020 07:45:06	26012020	260120	074506	180.460	12.703627	-57.240817	180.540	-0.540	0.560	1.190	180.470	-0.800	1.600																			1580024706.0	10.97	20.32
26/01/2020 07:45:07	26012020	260120	074507	180.520	12.703577	-57.240820	180.590	-0.250	0.610	1.020	180.520	-0.700	1.400																			1580024707.0	10.83	20.06
26/01/2020 07:45:08	26012020	260120	074508	180.580	12.703527	-57.240823	180.660	0.170	0.460	0.730	180.600	-0.800	1.100																			1580024708.0	10.84	20.08
26/01/2020 07:45:09	26012020	260120	074509	180.680	12.703477	-57.240823	180.750	0.450	0.200	0.440	180.700	-1.100	0.800																			1580024709.0	10.78	19.96
26/01/2020 07:45:10	26012020	260120	074510	180.770	12.703427	-57.240823	180.830	0.520	-0.130	0.330	180.790	-1.400	0.700																			1580024710.0	10.64	19.71
26/01/2020 07:45:11	26012020	260120	074511	180.840	12.703377	-57.240825	180.900	0.480	-0.540	0.380	180.850	-1.800	0.800																			1580024711.0	10.59	19.61
26/01/2020 07:45:12	26012020	260120	074512	180.880	12.703328	-57.240828	180.950	0.420	-0.860	0.600	180.890	-2.200	1.000																			1580024712.0	10.63	19.69
26/01/2020 07:45:13	26012020	260120	074513	180.910	12.703280	-57.240832	180.990	0.360	-0.910	0.860	180.920	-2.200	1.200																			1580024713.0	10.54	19.52
26/01/2020 07:45:14	26012020	260120	074514	180.960	12.703232	-57.240835	181.060	0.270	-0.800	0.970	180.980	-2.100	1.400																			1580024714.0	10.38	19.22
26/01/2020 07:45:15	26012020	260120	074515	181.030	12.703182	-57.240838	181.120	0.130	-0.780	0.900	181.040	-2.100	1.300																			1580024715.0	10.48	19.41
26/01/2020 07:45:16	26012020	260120	074516	180.990	12.703132	-57.240840	181.050	-0.010	-0.880	0.820	180.960	-2.200	1.200																			1580024716.0	10.86	20.11
26/01/2020 07:45:17	26012020	260120	074517	180.860	12.703080	-57.240842	180.890	-0.180	-0.790	0.890	180.830	-2.100	1.300																			1580024717.0	11.15	20.65
26/01/2020 07:45:18	26012020	260120	074518	180.740	12.703028	-57.240845	180.830	-0.380	-0.310	0.910	180.740	-1.700	1.300																			1580024718.0	11.04	20.45
26/01/2020 07:45:19	26012020	260120	074519	180.770	12.702978	-57.240847	180.890	-0.580	0.300	0.870	180.780	-1.100	1.300																			1580024719.0	10.71	19.83
26/01/2020 07:45:20	26012020	260120	074520	180.840	12.702930	-57.240850	180.930	-0.660	0.590	0.890	180.850	-0.700	1.300																			1580024720.0	10.69	19.80
26/01/2020 07:45:21	26012020	260120	074521	180.900	12.702878	-57.240853	181.000	-0.520	0.510	0.850	180.910	-0.800	1.200																			1580024721.0	11.01	20.39
26/01/2020 07:45:22	26012020	260120	074522	181.000	12.702827	-57.240855	181.100	-0.250	0.300	0.720	181.020	-1.000	1.100																			1580024722.0	11.13	20.61
26/01/2020 07:45:23	26012020	260120	074523	181.110	12.702775	-57.240858	181.200	0.010	0.140	0.670	181.130	-1.200	1.100																			1580024723.0	10.95	20.28
26/01/2020 07:45:24	26012020	260120	074524	181.140	12.702727	-57.240860	181.210	0.210	0.010	0.730	181.130	-1.300	1.100																			1580024724.0	10.66	19.74
26/01/2020 07:45:25	26012020	260120	074525	181.010	12.702677	-57.240863	181.050	0.360	-0.150	0.890	180.980	-1.400	1.300																			1580024725.0	10.51	19.46
26/01/2020 07:45:26	26012020	260120	074526	180.880	12.702628	-57.240867	180.930	0.410	-0.340	1.000	180.870	-1.600	1.400																			1580024726.0	10.51	19.46
26/01/2020 07:45:27	26012020	260120	074527	180.850	12.702580	-57.240870	180.930	0.330	-0.510	1.090	180.860	-1.800	1.500																			1580024727.0	10.48	19.41
26/01/2020 07:45:28	26012020	260120	074528	180.850	12.702532	-57.240873	180.940	0.200	-0.690	1.130	180.850	-2.000	1.500																			1580024728.0	10.48	19.41
26/01/2020 07:45:29	26012020	260120	074529	180.830	12.702482	-57.240877	180.900	0.140	-0.880	1.060	180.820	-2.200	1.400																			1580024729.0	10.62	19.67
26/01/2020 07:45:30	26012020	260120	074530	180.810	12.702432	-57.240880	180.900	0.200	-0.890	0.920	180.820	-2.200	1.300																			1580024730.0	10.77	19.95
26/01/2020 07:45:31	26012020	260120	074531	180.910	12.702383	-57.240882	181.030	0.190	-0.550	0.720	180.950	-1.900	1.100																			1580024731.0	10.68	19.78
26/01/2020 07:45:32	26012020	260120	074532	181.110	12.702333	-57.240882	181.230	-0.030	-0.090	0.520	181.150	-1.400	0.900																			1580024732.0	10.42	19.30
26/01/2020 07:45:33	26012020	260120	074533	181.270	12.702285	-57.240883	181.360	-0.320	0.070	0.430	181.290	-1.200	0.800																			1580024733.0	10.47	19.39
26/01/2020 07:45:34	26012020	260120	074534	181.310	12.702235	-57.240885	181.380	-0.430	-0.100	0.570	181.300	-1.400	0.900																			1580024734.0	10.90	20.19
26/01/2020 07:45:35	26012020	260120	074535	181.270	12.702183	-57.240888	181.340	-0.330	-0.230	0.770	181.270	-1.500	1.100																			1580024735.0	11.17	20.69
26/01/2020 07:45:36	26012020	260120	074536	181.260	12.702132	-57.240892	181.340	-0.190	-0.080	0.950	181.250	-1.400	1.300																			1580024736.0	10.94	20.26
26/01/2020 07:45:37	26012020	260120	074537	181.190	12.702083	-57.240895	181.240	-0.120	0.150	1.170	181.170	-1.200	1.500																			1580024737.0	10.58	19.59
26/01/2020 07:45:38	26012020	260120	074538	181.080	12.702035	-57.240898	181.130	-0.100	0.230	1.280	181.060	-1.100	1.700																			1580024738.0	10.49	19.43
26/01/2020 07:45:39	26012020	260120	074539	180.970	12.701985	-57.240902	181.000	-0.120	0.150	1.330	180.940	-1.200	1.700																			1580024739.0	10.54	19.52
26/01/2020 07:45:40	26012020	260120	074540	180.810	12.701937	-57.240905	180.840	-0.080	-0.080	1.240	180.770	-1.400	1.600																			1580024740.0	10.57	19.58
26/01/2020 07:45:41	26012020	260120	074541	180.600	12.701887	-57.240908	180.610	0.140	-0.420	0.980	180.560	-1.700	1.400																			1580024741.0	10.66	19.74
26/01/2020 07:45:42	26012020	260120	074542	180.440	12.701837	-57.240910	180.480	0.410	-0.630	0.620	180.440	-1.900	1.000																			1580024742.0	10.72	19.85
26/01/2020 07:45:43	26012020	260120	074543	180.500	12.701788	-57.240910	180.630	0.450	-0.490	0.230	180.530	-1.800	0.600																			1580024743.0	10.51	19.46
26/01/2020 07:45:44	26012020	260120	074544	180.860	12.701742	-57.240912	180.970	0.190	-0.240	-0.030	180.930	-1.600	0.400																			1580024744.0	10.15	18.80
26/01/2020 07:45:45	26012020	260120	074545	181.160	12.701693	-57.240913	181.240	-0.100	-0.290	0.110	181.190	-1.600	0.500																			1580024745.0	10.17	18.83
26/01/2020 07:45:46	26012020	260120	074546	181.240	12.701645	-57.240918	181.300	-0.120	-0.670	0.500	181.230	-2.000	0.900																			1580024746.0	10.68	19.78
26/01/2020 07:45:47	26012020	260120	074547	181.160	12.701593	-57.240923	181.230	0.040	-0.900	0.920	181.150	-2.200	1.300																			1580024747.0	11.08	20.52
26/01/2020 07:45:48	26012020	260120	074548	181.120	12.701542	-57.240927	181.210	0.030	-0.630	1.190	181.120	-2.000	1.600																			1580024748.0	10.89	20.17
26/01/2020 07:45:49	26012020	260120	074549	181.140	12.701493	-57.240928	181.250	-0.240	-0.050	1.170	181.150	-1.400	1.600																			1580024749.0	10.42	19.30
26/01/2020 07:45:50	26012020	260120	074550	181.200	12.701447	-57.240932	181.290	-0.520	0.400	1.000	181.220	-0.900	1.400																			1580024750.0	10.21	18.91
26/01/2020 07:45:51	26012020	260120	074551	181.240	12.701398	-57.240933	181.310	-0.520	0.460	0.890	181.230	-0.900	1.300																			1580024751.0	10.42	19.30
26/01/2020 07:45:52	26012020	260120	074552	181.180	12.701348	-57.240937	181.230	-0.210	0.250	0.830	181.140	-1.100	1.200																			1580024752.0	10.73	19.87
26/01/2020 07:45:53	26012020	260120	074553	180.990	12.701298	-57.240938	181.020	0.150	-0.050	0.870	180.950	-1.400	1.300																			1580024753.0	10.82	20.04
26/01/2020 07:45:54	26012020	260120	074554	180.780	12.701248	-57.240942	180.800	0.290	-0.280	1.030	180.740	-1.600	1.400																			1580024754.0	10.75	19.91
26/01/2020 07:45:55	26012020	260120	074555	180.630	12.701200	-57.240945	180.660	0.180	-0.320	1.280	180.610	-1.700	1.600																			1580024755.0	10.53	19.50
26/01/2020 07:45:56	26012020	260120	074556	180.630	12.701152	-57.240950	180.710	0.030	-0.230	1.380	180.640	-1.600	1.800																			1580024756.0	10.22	18.93
26/01/2020 07:45:57	26012020	260120	074557	180.690	12.701105	-57.240953	180.760	0.090	-0.330	1.310	180.700	-1.600	1.700																			1580024757.0	10.15	18.80
26/01/2020 07:45:58	26012020	260120	074558	180.730	12.701057	-57.240957	180.810	0.290	-0.600	1.140	180.740	-1.900	1.500																			1580024758.0	10.48	19.41
26/01/2020 07:45:59	26012020	260120	074559	180.850	12.701007	-57.240958	180.940	0.340	-0.690	0.890	180.890	-2.000	1.300																			1580024759.0	10.62	19.67
26/01/2020 07:46:00	26012020	260120	074600	181.030	12.700958	-57.240960	181.100	0.170	-0.530	0.620	181.060	-1.900	1.000	1013.70	25.60	25.60	20.10	20.20	-1.00	71.00	71.00	413.00	25.10	314.00	8.80	97.00	6.30	14	3246.00	27.40	27.40	1580024760.0	10.41	19.28
26/01/2020 07:46:01	26012020	260120	074601	181.190	12.700912	-57.240960	181.270	-0.080	-0.330	0.430	181.230	-1.700	0.800																			1580024761.0	10.30	19.08
26/01/2020 07:46:02	26012020	260120	074602	181.360	12.700863	-57.240962	181.440	-0.240	-0.180	0.430	181.390	-1.500	0.800																			1580024762.0	10.40	19.26
26/01/2020 07:46:03	26012020	260120	074603	181.460	12.700813	-57.240965	181.520	-0.270	-0.070	0.550	181.470	-1.400	0.900																			1580024763.0	10.51	19.46
26/01/2020 07:46:04	26012020	260120	074604	181.480	12.700765	-57.240968	181.540	-0.250	0.030	0.720	181.470	-1.300	1.100																			1580024764.0	10.56	19.56
26/01/2020 07:46:05	26012020	260120	074605	181.460	12.700717	-57.240973	181.540	-0.220	0.100	0.910	181.460	-1.200	1.300																			1580024765.0	10.52	19.48
26/01/2020 07:46:06	26012020	260120	074606	181.420	12.700667	-57.240977	181.480	-0.140	0.100	0.960	181.400	-1.200	1.300																			1580024766.0	10.47	19.39
26/01/2020 07:46:07	26012020	260120	074607	181.290	12.700618	-57.240980	181.280	0.050	-0.020	0.870	181.250	-1.300	1.300																			1580024767.0	10.43	19.32
26/01/2020 07:46:08	26012020	260120	074608	181.000	12.700570	-57.240982	181.020	0.270	-0.280	0.720	180.950	-1.600	1.100																			1580024768.0	10.53	19.50
26/01/2020 07:46:09	26012020	260120	074609	180.860	12.700520	-57.240983	180.900	0.310	-0.480	0.580	180.840	-1.800	1.000																			1580024769.0	10.58	19.59
26/01/2020 07:46:10	26012020	260120	074610	180.800	12.700472	-57.240985	180.870	0.120	-0.520	0.550	180.800	-1.800	0.900																			1580024770.0	10.44	19.33
26/01/2020 07:46:11	26012020	260120	074611	180.830	12.700425	-57.240988	180.910	-0.130	-0.460	0.600	180.840	-1.800	1.000																			1580024771.0	10.29	19.06
26/01/2020 07:46:12	26012020	260120	074612	180.940	12.700377	-57.240993	181.030	-0.230	-0.380	0.670	180.970	-1.700	1.000																			1580024772.0	10.32	19.11
26/01/2020 07:46:13	26012020	260120	074613	181.080	12.700328	-57.240998	181.160	-0.130	-0.320	0.670	181.110	-1.600	1.100																			1580024773.0	10.40	19.26
26/01/2020 07:46:14	26012020	260120	074614	181.220	12.700280	-57.241002	181.300	0.030	-0.250	0.560	181.240	-1.600	0.900																			1580024774.0	10.47	19.39
26/01/2020 07:46:15	26012020	260120	074615	181.340	12.700232	-57.241003	181.430	0.060	-0.150	0.510	181.360	-1.500	0.900																			1580024775.0	10.45	19.35
26/01/2020 07:46:16	26012020	260120	074616	181.400	12.700183	-57.241005	181.460	-0.020	-0.060	0.620	181.400	-1.400	1.000																			1580024776.0	10.42	19.30
26/01/2020 07:46:17	26012020	260120	074617	181.350	12.700135	-57.241008	181.390	-0.070	-0.000	0.850	181.330	-1.300	1.200																			1580024777.0	10.42	19.30
26/01/2020 07:46:18	26012020	260120	074618	181.280	12.700087	-57.241012	181.340	-0.030	0.070	0.990	181.270	-1.300	1.400																			1580024778.0	10.42	19.30
26/01/2020 07:46:19	26012020	260120	074619	181.250	12.700038	-57.241015	181.320	0.070	0.120	1.020	181.250	-1.200	1.400																			1580024779.0	10.30	19.08
26/01/2020 07:46:20	26012020	260120	074620	181.180	12.699992	-57.241018	181.220	0.160	-0.010	1.000	181.150	-1.300	1.400																			1580024780.0	10.25	18.98
26/01/2020 07:46:21	26012020	260120	074621	180.980	12.699943	-57.241020	181.000	0.200	-0.380	1.020	180.940	-1.700	1.400																			1580024781.0	10.41	19.28
26/01/2020 07:46:22	26012020	260120	074622	180.720	12.699893	-57.241023	180.740	0.150	-0.680	1.110	180.670	-2.000	1.500																			1580024782.0	10.60	19.63
26/01/2020 07:46:23	26012020	260120	074623	180.540	12.699845	-57.241028	180.590	0.040	-0.680	1.050	180.520	-2.000	1.400																			1580024783.0	10.46	19.37
26/01/2020 07:46:24	26012020	260120	074624	180.500	12.699798	-57.241032	180.560	-0.030	-0.510	0.790	180.500	-1.900	1.200																			1580024784.0	10.19	18.87
26/01/2020 07:46:25	26012020	260120	074625	180.520	12.699750	-57.241035	180.580	-0.040	-0.420	0.530	180.530	-1.800	0.900																			1580024785.0	10.22	18.93
26/01/2020 07:46:26	26012020	260120	074626	180.660	12.699702	-57.241037	180.760	-0.040	-0.370	0.350	180.720	-1.700	0.800																			1580024786.0	10.45	19.35
26/01/2020 07:46:27	26012020	260120	074627	180.990	12.699653	-57.241038	181.110	-0.120	-0.200	0.220	181.060	-1.500	0.600																			1580024787.0	10.46	19.37
26/01/2020 07:46:28	26012020	260120	074628	181.290	12.699605	-57.241040	181.390	-0.180	-0.060	0.290	181.340	-1.400	0.700																			1580024788.0	10.35	19.17
26/01/2020 07:46:29	26012020	260120	074629	181.440	12.699557	-57.241043	181.530	-0.120	-0.060	0.540	181.460	-1.400	0.900																			1580024789.0	10.46	19.37
26/01/2020 07:46:30	26012020	260120	074630	181.540	12.699507	-57.241047	181.640	-0.030	-0.020	0.850	181.560	-1.400	1.200																			1580024790.0	10.58	19.59
26/01/2020 07:46:31	26012020	260120	074631	181.600	12.699460	-57.241050	181.680	-0.030	0.150	1.210	181.610	-1.200	1.600																			1580024791.0	10.36	19.19
26/01/2020 07:46:32	26012020	260120	074632	181.460	12.699412	-57.241053	181.480	-0.020	0.180	1.510	181.390	-1.100	1.900																			1580024792.0	10.15	18.80
26/01/2020 07:46:33	26012020	260120	074633	181.060	12.699365	-57.241058	181.060	0.130	-0.070	1.680	180.960	-1.400	2.100																			1580024793.0	10.34	19.15
26/01/2020 07:46:34	26012020	260120	074634	180.630	12.699315	-57.241060	180.660	0.300	-0.280	1.640	180.570	-1.600	2.000																			1580024794.0	10.53	19.50
26/01/2020 07:46:35	26012020	260120	074635	180.400	12.699268	-57.241062	180.470	0.290	-0.260	1.390	180.390	-1.600	1.800																			1580024795.0	10.31	19.09
26/01/2020 07:46:36	26012020	260120	074636	180.350	12.699222	-57.241065	180.430	0.120	-0.190	1.080	180.350	-1.500	1.500																			1580024796.0	10.00	18.52
26/01/2020 07:46:37	26012020	260120	074637	180.330	12.699175	-57.241068	180.380	0.020	-0.350	0.860	180.310	-1.700	1.300																			1580024797.0	10.05	18.61
26/01/2020 07:46:38	26012020	260120	074638	180.310	12.699127	-57.241072	180.380	0.110	-0.650	0.770	180.320	-1.900	1.200																			1580024798.0	10.41	19.28
26/01/2020 07:46:39	26012020	260120	074639	180.430	12.699078	-57.241077	180.530	0.230	-0.700	0.690	180.470	-2.000	1.100																			1580024799.0	10.50	19.45
26/01/2020 07:46:40	26012020	260120	074640	180.700	12.699030	-57.241078	180.820	0.160	-0.510	0.580	180.760	-1.900	1.000																			1580024800.0	10.23	18.95
26/01/2020 07:46:41	26012020	260120	074641	181.030	12.698983	-57.241080	181.140	-0.060	-0.330	0.560	181.090	-1.700	0.900																			1580024801.0	10.10	18.71
26/01/2020 07:46:42	26012020	260120	074642	181.300	12.698935	-57.241083	181.390	-0.240	-0.300	0.660	181.340	-1.600	1.000																			1580024802.0	10.27	19.02
26/01/2020 07:46:43	26012020	260120	074643	181.410	12.698887	-57.241087	181.520	-0.270	-0.320	0.870	181.420	-1.600	1.200																			1580024803.0	10.49	19.43
26/01/2020 07:46:44	26012020	260120	074644	181.520	12.698838	-57.241088	181.620	-0.270	-0.200	1.030	181.540	-1.500	1.400																			1580024804.0	10.52	19.48
26/01/2020 07:46:45	26012020	260120	074645	181.590	12.698790	-57.241090	181.670	-0.280	0.010	1.100	181.590	-1.300	1.500																			1580024805.0	10.32	19.11
26/01/2020 07:46:46	26012020	260120	074646	181.470	12.698742	-57.241093	181.500	-0.210	0.080	1.120	181.420	-1.300	1.500																			1580024806.0	10.28	19.04
26/01/2020 07:46:47	26012020	260120	074647	181.180	12.698693	-57.241095	181.200	-0.020	0.040	1.080	181.120	-1.300	1.500																			1580024807.0	10.44	19.33
26/01/2020 07:46:48	26012020	260120	074648	180.910	12.698645	-57.241097	180.930	0.170	0.060	0.970	180.870	-1.300	1.400																			1580024808.0	10.47	19.39
26/01/2020 07:46:49	26012020	260120	074649	180.720	12.698597	-57.241098	180.750	0.210	0.180	0.890	180.690	-1.200	1.300																			1580024809.0	10.27	19.02
26/01/2020 07:46:50	26012020	260120	074650	180.600	12.698552	-57.241100	180.650	0.140	0.270	0.820	180.590	-1.100	1.200																			1580024810.0	10.02	18.56
26/01/2020 07:46:51	26012020	260120	074651	180.560	12.698505	-57.241105	180.620	0.110	0.100	0.760	180.560	-1.200	1.100																			1580024811.0	10.00	18.52
26/01/2020 07:46:52	26012020	260120	074652	180.610	12.698457	-57.241108	180.690	0.170	-0.270	0.750	180.630	-1.600	1.100																			1580024812.0	10.20	18.89
26/01/2020 07:46:53	26012020	260120	074653	180.690	12.698410	-57.241113	180.760	0.280	-0.690	0.850	180.700	-2.000	1.200																			1580024813.0	10.31	19.09
26/01/2020 07:46:54	26012020	260120	074654	180.740	12.698362	-57.241118	180.820	0.340	-0.980	0.940	180.760	-2.300	1.300																			1580024814.0	10.37	19.21
26/01/2020 07:46:55	26012020	260120	074655	180.890	12.698313	-57.241122	180.980	0.270	-0.930	0.830	180.920	-2.300	1.200																			1580024815.0	10.26	19.00
26/01/2020 07:46:56	26012020	260120	074656	181.110	12.698268	-57.241123	181.210	0.070	-0.680	0.620	181.150	-2.000	1.000																			1580024816.0	10.05	18.61
26/01/2020 07:46:57	26012020	260120	074657	181.300	12.698220	-57.241125	181.450	-0.180	-0.470	0.530	181.340	-1.800	0.900																			1580024817.0	10.07	18.65
26/01/2020 07:46:58	26012020	260120	074658	181.510	12.698173	-57.241127	181.600	-0.370	-0.360	0.560	181.530	-1.700	0.900																			1580024818.0	10.28	19.04
26/01/2020 07:46:59	26012020	260120	074659	181.530	12.698123	-57.241128	181.580	-0.400	-0.310	0.780	181.510	-1.600	1.100																			1580024819.0	10.51	19.46
26/01/2020 07:47:00	26012020	260120	074700	181.330	12.698075	-57.241132	181.390	-0.330	-0.200	1.170	181.290	-1.500	1.500	1013.70	25.60	25.60	19.90	20.00	-1.00	71.00	71.00	410.00	25.10	315.00	9.20	101.00	6.60	14	3255.00	27.40	27.40	1580024820.0	10.69	19.80
26/01/2020 07:47:01	26012020	260120	074701	181.220	12.698025	-57.241137	181.330	-0.320	0.230	1.330	181.220	-1.200	1.700																			1580024821.0	10.59	19.61
26/01/2020 07:47:02	26012020	260120	074702	181.330	12.697978	-57.241138	181.460	-0.360	0.800	1.170	181.360	-0.600	1.600																			1580024822.0	10.09	18.69
26/01/2020 07:47:03	26012020	260120	074703	181.470	12.697933	-57.241142	181.560	-0.280	0.950	0.960	181.480	-0.400	1.400																			1580024823.0	9.84	18.22
26/01/2020 07:47:04	26012020	260120	074704	181.430	12.697885	-57.241143	181.470	0.080	0.410	0.840	181.410	-0.900	1.200																			1580024824.0	10.23	18.95
26/01/2020 07:47:05	26012020	260120	074705	181.240	12.697835	-57.241147	181.270	0.520	-0.360	0.850	181.190	-1.600	1.200																			1580024825.0	10.71	19.83
26/01/2020 07:47:06	26012020	260120	074706	181.040	12.697787	-57.241148	181.070	0.700	-0.780	0.980	181.010	-2.100	1.400																			1580024826.0	10.62	19.67
26/01/2020 07:47:07	26012020	260120	074707	180.920	12.697740	-57.241152	180.990	0.490	-0.730	1.130	180.910	-2.100	1.500																			1580024827.0	10.05	18.61
26/01/2020 07:47:08	26012020	260120	074708	180.890	12.697695	-57.241157	180.960	0.150	-0.600	1.270	180.890	-1.900	1.600																			1580024828.0	9.71	17.98
26/01/2020 07:47:09	26012020	260120	074709	180.870	12.697648	-57.241162	180.960	-0.020	-0.700	1.340	180.870	-2.000	1.700																			1580024829.0	9.91	18.35
26/01/2020 07:47:10	26012020	260120	074710	180.870	12.697602	-57.241167	180.960	0.010	-0.910	1.340	180.870	-2.200	1.700																			1580024830.0	10.37	19.21
26/01/2020 07:47:11	26012020	260120	074711	180.910	12.697552	-57.241170	181.020	0.060	-0.900	1.290	180.930	-2.200	1.700																			1580024831.0	10.59	19.61
26/01/2020 07:47:12	26012020	260120	074712	181.110	12.697503	-57.241172	181.260	-0.090	-0.470	1.100	181.170	-1.800	1.500																			1580024832.0	10.43	19.32
26/01/2020 07:47:13	26012020	260120	074713	181.480	12.697457	-57.241173	181.640	-0.420	0.220	0.840	181.560	-1.200	1.200																			1580024833.0	10.03	18.58
26/01/2020 07:47:14	26012020	260120	074714	181.840	12.697412	-57.241177	181.960	-0.630	0.670	0.640	181.890	-0.700	1.000																			1580024834.0	9.88	18.30
26/01/2020 07:47:15	26012020	260120	074715	182.020	12.697363	-57.241178	182.120	-0.490	0.610	0.530	182.040	-0.700	0.900																			1580024835.0	10.17	18.83
26/01/2020 07:47:16	26012020	260120	074716	182.130	12.697315	-57.241180	182.210	-0.120	0.230	0.470	182.140	-1.100	0.900																			1580024836.0	10.60	19.63
26/01/2020 07:47:17	26012020	260120	074717	182.180	12.697265	-57.241183	182.230	0.220	-0.060	0.570	182.180	-1.400	1.000																			1580024837.0	10.58	19.59
26/01/2020 07:47:18	26012020	260120	074718	182.110	12.697218	-57.241185	182.120	0.400	-0.190	0.830	182.070	-1.500	1.200																			1580024838.0	10.20	18.89
26/01/2020 07:47:19	26012020	260120	074719	181.810	12.697172	-57.241188	181.800	0.410	-0.390	1.180	181.730	-1.700	1.500																			1580024839.0	10.03	18.58
26/01/2020 07:47:20	26012020	260120	074720	181.400	12.697123	-57.241192	181.400	0.300	-0.660	1.530	181.330	-2.000	1.900																			1580024840.0	10.19	18.87
26/01/2020 07:47:21	26012020	260120	074721	181.110	12.697077	-57.241197	181.150	0.150	-0.760	1.690	181.070	-2.100	2.100																			1580024841.0	10.33	19.13
26/01/2020 07:47:22	26012020	260120	074722	181.030	12.697030	-57.241202	181.090	0.040	-0.530	1.420	181.030	-1.900	1.800																			1580024842.0	10.15	18.80
26/01/2020 07:47:23	26012020	260120	074723	181.070	12.696983	-57.241205	181.170	-0.030	-0.220	1.030	181.090	-1.600	1.500																			1580024843.0	9.88	18.30
26/01/2020 07:47:24	26012020	260120	074724	181.220	12.696937	-57.241208	181.290	-0.060	-0.140	0.700	181.240	-1.500	1.100																			1580024844.0	9.98	18.48
26/01/2020 07:47:25	26012020	260120	074725	181.350	12.696890	-57.241210	181.420	-0.030	-0.230	0.500	181.370	-1.500	0.900																			1580024845.0	10.27	19.02
26/01/2020 07:47:26	26012020	260120	074726	181.460	12.696842	-57.241212	181.530	-0.040	-0.340	0.480	181.470	-1.700	0.900																			1580024846.0	10.43	19.32
26/01/2020 07:47:27	26012020	260120	074727	181.590	12.696793	-57.241215	181.680	-0.150	-0.330	0.650	181.620	-1.700	1.000																			1580024847.0	10.45	19.35
26/01/2020 07:47:28	26012020	260120	074728	181.790	12.696745	-57.241220	181.880	-0.310	-0.110	0.840	181.840	-1.500	1.200																			1580024848.0	10.26	19.00
26/01/2020 07:47:29	26012020	260120	074729	181.960	12.696698	-57.241223	182.030	-0.340	0.090	0.930	181.970	-1.300	1.300																			1580024849.0	10.02	18.56
26/01/2020 07:47:30	26012020	260120	074730	181.960	12.696652	-57.241228	182.000	-0.180	0.060	1.050	181.950	-1.300	1.400																			1580024850.0	10.13	18.76
26/01/2020 07:47:31	26012020	260120	074731	181.890	12.696603	-57.241232	181.930	0.040	-0.050	1.040	181.870	-1.400	1.400																			1580024851.0	10.31	19.09
26/01/2020 07:47:32	26012020	260120	074732	181.840	12.696557	-57.241233	181.870	0.170	-0.050	0.780	181.830	-1.400	1.200																			1580024852.0	10.24	18.96
26/01/2020 07:47:33	26012020	260120	074733	181.780	12.696510	-57.241235	181.800	0.230	-0.050	0.570	181.750	-1.400	1.000																			1580024853.0	10.04	18.59
26/01/2020 07:47:34	26012020	260120	074734	181.670	12.696463	-57.241235	181.700	0.280	-0.190	0.590	181.640	-1.500	1.000																			1580024854.0	10.04	18.59
26/01/2020 07:47:35	26012020	260120	074735	181.580	12.696415	-57.241238	181.620	0.270	-0.390	0.780	181.570	-1.700	1.200																			1580024855.0	10.21	18.91
26/01/2020 07:47:36	26012020	260120	074736	181.460	12.696368	-57.241243	181.500	0.200	-0.520	1.130	181.440	-1.800	1.500																			1580024856.0	10.23	18.95
26/01/2020 07:47:37	26012020	260120	074737	181.350	12.696322	-57.241248	181.410	0.070	-0.490	1.320	181.340	-1.800	1.700																			1580024857.0	10.17	18.83
26/01/2020 07:47:38	26012020	260120	074738	181.270	12.696275	-57.241253	181.330	-0.040	-0.410	1.250	181.250	-1.700	1.700																			1580024858.0	10.05	18.61
26/01/2020 07:47:39	26012020	260120	074739	181.190	12.696228	-57.241257	181.250	-0.080	-0.450	1.100	181.180	-1.800	1.500																			1580024859.0	10.13	18.76
26/01/2020 07:47:40	26012020	260120	074740	181.140	12.696180	-57.241260	181.220	-0.070	-0.520	0.910	181.140	-1.900	1.300																			1580024860.0	10.37	19.21
26/01/2020 07:47:41	26012020	260120	074741	181.250	12.696132	-57.241262	181.380	-0.100	-0.350	0.640	181.310	-1.700	1.100																			1580024861.0	10.39	19.24
26/01/2020 07:47:42	26012020	260120	074742	181.580	12.696085	-57.241265	181.710	-0.240	0.010	0.370	181.650	-1.400	0.800																			1580024862.0	10.07	18.65
26/01/2020 07:47:43	26012020	260120	074743	181.840	12.696038	-57.241267	181.930	-0.320	0.080	0.360	181.860	-1.200	0.800																			1580024863.0	9.96	18.45
26/01/2020 07:47:44	26012020	260120	074744	181.890	12.695990	-57.241270	181.960	-0.210	-0.220	0.590	181.890	-1.500	1.000																			1580024864.0	10.42	19.30
26/01/2020 07:47:45	26012020	260120	074745	181.900	12.695940	-57.241273	181.970	-0.080	-0.280	0.830	181.900	-1.600	1.200																			1580024865.0	10.68	19.78
26/01/2020 07:47:46	26012020	260120	074746	181.900	12.695893	-57.241277	181.960	-0.060	0.020	1.020	181.890	-1.300	1.400																			1580024866.0	10.20	18.89
26/01/2020 07:47:47	26012020	260120	074747	181.820	12.695847	-57.241282	181.820	-0.040	0.210	1.080	181.790	-1.100	1.500																			1580024867.0	9.89	18.32
26/01/2020 07:47:48	26012020	260120	074748	181.630	12.695800	-57.241285	181.670	0.030	0.160	1.010	181.610	-1.200	1.400																			1580024868.0	10.10	18.71
26/01/2020 07:47:49	26012020	260120	074749	181.620	12.695753	-57.241287	181.690	0.140	0.130	0.770	181.630	-1.200	1.200																			1580024869.0	10.18	18.85
26/01/2020 07:47:50	26012020	260120	074750	181.680	12.695707	-57.241288	181.710	0.270	0.090	0.480	181.680	-1.200	0.900																			1580024870.0	9.91	18.35
26/01/2020 07:47:51	26012020	260120	074751	181.570	12.695662	-57.241290	181.580	0.430	-0.280	0.390	181.550	-1.600	0.800																			1580024871.0	9.95	18.43
26/01/2020 07:47:52	26012020	260120	074752	181.510	12.695613	-57.241292	181.560	0.470	-0.750	0.550	181.520	-2.100	0.900																			1580024872.0	10.33	19.13
26/01/2020 07:47:53	26012020	260120	074753	181.550	12.695565	-57.241297	181.610	0.290	-0.940	0.910	181.560	-2.300	1.300																			1580024873.0	10.31	19.09
26/01/2020 07:47:54	26012020	260120	074754	181.560	12.695518	-57.241303	181.600	0.010	-0.830	1.110	181.540	-2.200	1.500																			1580024874.0	10.06	18.63
26/01/2020 07:47:55	26012020	260120	074755	181.520	12.695473	-57.241308	181.570	-0.180	-0.630	1.090	181.510	-2.000	1.500																			1580024875.0	9.99	18.50
26/01/2020 07:47:56	26012020	260120	074756	181.530	12.695427	-57.241312	181.600	-0.240	-0.470	0.990	181.540	-1.800	1.400																			1580024876.0	10.11	18.72
26/01/2020 07:47:57	26012020	260120	074757	181.590	12.695378	-57.241315	181.660	-0.240	-0.350	0.840	181.600	-1.700	1.300																			1580024877.0	10.33	19.13
26/01/2020 07:47:58	26012020	260120	074758	181.710	12.695330	-57.241317	181.800	-0.340	-0.090	0.640	181.760	-1.500	1.100																			1580024878.0	10.43	19.32
26/01/2020 07:47:59	26012020	260120	074759	181.980	12.695282	-57.241318	182.060	-0.520	0.310	0.470	182.030	-1.100	0.900																			1580024879.0	10.18	18.85
26/01/2020 07:48:00	26012020	260120	074800	182.190	12.695235	-57.241323	182.240	-0.530	0.470	0.500	182.200	-0.900	0.900	1013.70	25.60	25.60	19.90	20.00	-1.00	71.00	71.00	407.00	25.10	311.00	8.30	93.00	6.30	14	3278.00	27.40	27.40	1580024880.0	10.01	18.54
26/01/2020 07:48:01	26012020	260120	074801	182.130	12.695188	-57.241327	182.120	-0.190	0.170	0.710	182.090	-1.100	1.100																			1580024881.0	10.31	19.09
26/01/2020 07:48:02	26012020	260120	074802	181.870	12.695138	-57.241332	181.850	0.280	-0.200	1.000	181.820	-1.500	1.400																			1580024882.0	10.69	19.80
26/01/2020 07:48:03	26012020	260120	074803	181.740	12.695090	-57.241335	181.780	0.440	-0.100	1.120	181.750	-1.500	1.500																			1580024883.0	10.45	19.35
26/01/2020 07:48:04	26012020	260120	074804	181.800	12.695045	-57.241337	181.840	0.200	0.270	1.010	181.810	-1.100	1.400																			1580024884.0	9.69	17.95
26/01/2020 07:48:05	26012020	260120	074805	181.790	12.695002	-57.241340	181.780	-0.050	0.280	0.930	181.760	-1.000	1.300																			1580024885.0	9.42	17.45
26/01/2020 07:48:06	26012020	260120	074806	181.590	12.694955	-57.241345	181.570	0.090	-0.290	0.940	181.540	-1.600	1.400																			1580024886.0	9.94	18.41
26/01/2020 07:48:07	26012020	260120	074807	181.420	12.694907	-57.241348	181.430	0.490	-0.820	0.840	181.410	-2.100	1.300																			1580024887.0	10.45	19.35
26/01/2020 07:48:08	26012020	260120	074808	181.500	12.694860	-57.241352	181.560	0.640	-0.820	0.600	181.550	-2.200	1.000																			1580024888.0	10.21	18.91
26/01/2020 07:48:09	26012020	260120	074809	181.780	12.694815	-57.241352	181.840	0.330	-0.580	0.440	181.830	-1.900	0.900																			1580024889.0	9.68	17.93
26/01/2020 07:48:10	26012020	260120	074810	181.920	12.694770	-57.241355	181.930	-0.120	-0.550	0.590	181.910	-1.900	1.000																			1580024890.0	9.63	17.83
26/01/2020 07:48:11	26012020	260120	074811	181.790	12.694723	-57.241360	181.790	-0.290	-0.790	0.970	181.750	-2.100	1.300																			1580024891.0	10.18	18.85
26/01/2020 07:48:12	26012020	260120	074812	181.690	12.694673	-57.241365	181.730	-0.230	-0.780	1.180	181.700	-2.100	1.600																			1580024892.0	10.58	19.59
26/01/2020 07:48:13	26012020	260120	074813	181.820	12.694625	-57.241368	181.960	-0.270	-0.290	1.100	181.870	-1.700	1.500																			1580024893.0	10.29	19.06
26/01/2020 07:48:14	26012020	260120	074814	182.120	12.694580	-57.241372	182.180	-0.460	0.260	1.080	182.140	-1.100	1.500																			1580024894.0	9.84	18.22
26/01/2020 07:48:15	26012020	260120	074815	182.120	12.694535	-57.241377	182.140	-0.550	0.420	1.160	182.100	-0.900	1.600																			1580024895.0	9.89	18.32
26/01/2020 07:48:16	26012020	260120	074816	181.930	12.694487	-57.241382	181.910	-0.340	0.240	1.170	181.880	-1.100	1.600																			1580024896.0	10.29	19.06
26/01/2020 07:48:17	26012020	260120	074817	181.650	12.694438	-57.241385	181.640	-0.000	0.030	1.160	181.590	-1.300	1.600																			1580024897.0	10.47	19.39
26/01/2020 07:48:18	26012020	260120	074818	181.390	12.694390	-57.241388	181.400	0.190	-0.020	1.140	181.340	-1.400	1.500																			1580024898.0	10.29	19.06
26/01/2020 07:48:19	26012020	260120	074819	181.240	12.694345	-57.241392	181.270	0.180	0.080	1.050	181.230	-1.300	1.500																			1580024899.0	9.96	18.45
26/01/2020 07:48:20	26012020	260120	074820	181.250	12.694300	-57.241395	181.310	0.120	0.190	0.840	181.280	-1.200	1.300																			1580024900.0	9.70	17.96
26/01/2020 07:48:21	26012020	260120	074821	181.440	12.694255	-57.241397	181.530	0.200	0.160	0.500	181.500	-1.200	0.900																			1580024901.0	9.60	17.78
26/01/2020 07:48:22	26012020	260120	074822	181.750	12.694210	-57.241398	181.840	0.340	-0.150	0.200	181.810	-1.500	0.600																			1580024902.0	9.70	17.96
26/01/2020 07:48:23	26012020	260120	074823	182.010	12.694163	-57.241400	182.070	0.410	-0.700	0.200	182.040	-2.000	0.600																			1580024903.0	9.95	18.43
26/01/2020 07:48:24	26012020	260120	074824	182.090	12.694117	-57.241403	182.120	0.350	-1.160	0.530	182.080	-2.500	0.900																			1580024904.0	10.16	18.82
26/01/2020 07:48:25	26012020	260120	074825	182.040	12.694070	-57.241408	182.050	0.190	-1.190	0.950	182.020	-2.500	1.300																			1580024905.0	10.10	18.71
26/01/2020 07:48:26	26012020	260120	074826	181.880	12.694023	-57.241413	181.900	0.010	-0.800	1.190	181.840	-2.200	1.600																			1580024906.0	9.82	18.19
26/01/2020 07:48:27	26012020	260120	074827	181.640	12.693978	-57.241417	181.650	-0.190	-0.320	1.320	181.590	-1.700	1.700																			1580024907.0	9.67	17.91
26/01/2020 07:48:28	26012020	260120	074828	181.430	12.693933	-57.241420	181.460	-0.370	0.050	1.290	181.400	-1.300	1.700																			1580024908.0	9.83	18.21
26/01/2020 07:48:29	26012020	260120	074829	181.340	12.693887	-57.241423	181.370	-0.470	0.300	1.070	181.330	-1.000	1.500																			1580024909.0	9.98	18.48
26/01/2020 07:48:30	26012020	260120	074830	181.300	12.693840	-57.241427	181.340	-0.440	0.340	0.870	181.300	-1.000	1.300																			1580024910.0	10.04	18.59
26/01/2020 07:48:31	26012020	260120	074831	181.270	12.693793	-57.241430	181.300	-0.240	0.110	0.770	181.260	-1.200	1.200																			1580024911.0	10.19	18.87
26/01/2020 07:48:32	26012020	260120	074832	181.230	12.693745	-57.241433	181.270	0.020	-0.170	0.780	181.230	-1.500	1.200																			1580024912.0	10.33	19.13
26/01/2020 07:48:33	26012020	260120	074833	181.240	12.693698	-57.241437	181.300	0.170	-0.240	0.880	181.250	-1.600	1.300																			1580024913.0	10.18	18.85
26/01/2020 07:48:34	26012020	260120	074834	181.350	12.693653	-57.241442	181.440	0.120	-0.110	1.000	181.380	-1.500	1.400																			1580024914.0	9.81	18.17
26/01/2020 07:48:35	26012020	260120	074835	181.470	12.693608	-57.241445	181.560	-0.010	-0.070	1.150	181.480	-1.400	1.500																			1580024915.0	9.57	17.72
26/01/2020 07:48:36	26012020	260120	074836	181.470	12.693563	-57.241450	181.510	-0.000	-0.350	1.280	181.450	-1.700	1.700																			1580024916.0	9.77	18.09
26/01/2020 07:48:37	26012020	260120	074837	181.370	12.693517	-57.241453	181.420	0.140	-0.670	1.290	181.360	-2.000	1.700																			1580024917.0	10.17	18.83
26/01/2020 07:48:38	26012020	260120	074838	181.360	12.693470	-57.241457	181.420	0.250	-0.510	1.100	181.370	-1.900	1.500																			1580024918.0	10.07	18.65
26/01/2020 07:48:39	26012020	260120	074839	181.440	12.693425	-57.241457	181.530	0.180	-0.010	0.690	181.470	-1.400	1.100																			1580024919.0	9.54	17.67
26/01/2020 07:48:40	26012020	260120	074840	181.620	12.693382	-57.241457	181.680	-0.010	0.270	0.400	181.640	-1.100	0.800																			1580024920.0	9.32	17.26
26/01/2020 07:48:41	26012020	260120	074841	181.650	12.693337	-57.241458	181.700	-0.090	0.050	0.520	181.650	-1.300	0.900																			1580024921.0	9.66	17.89
26/01/2020 07:48:42	26012020	260120	074842	181.590	12.693290	-57.241462	181.620	-0.040	-0.330	0.790	181.570	-1.600	1.200																			1580024922.0	10.14	18.78
26/01/2020 07:48:43	26012020	260120	074843	181.430	12.693243	-57.241465	181.450	0.010	-0.540	1.170	181.390	-1.900	1.500																			1580024923.0	10.13	18.76
26/01/2020 07:48:44	26012020	260120	074844	181.240	12.693197	-57.241472	181.280	0.020	-0.520	1.470	181.220	-1.900	1.900																			1580024924.0	9.93	18.39
26/01/2020 07:48:45	26012020	260120	074845	181.140	12.693152	-57.241477	181.200	0.020	-0.320	1.410	181.130	-1.700	1.800																			1580024925.0	9.70	17.96
26/01/2020 07:48:46	26012020	260120	074846	181.120	12.693108	-57.241478	181.180	0.020	-0.190	1.210	181.120	-1.500	1.600																			1580024926.0	9.56	17.71
26/01/2020 07:48:47	26012020	260120	074847	181.100	12.693062	-57.241482	181.150	0.040	-0.290	0.980	181.090	-1.600	1.400																			1580024927.0	9.75	18.06
26/01/2020 07:48:48	26012020	260120	074848	181.060	12.693015	-57.241483	181.110	0.040	-0.500	0.770	181.070	-1.800	1.200																			1580024928.0	10.06	18.63
26/01/2020 07:48:49	26012020	260120	074849	181.150	12.692968	-57.241485	181.230	-0.050	-0.470	0.630	181.190	-1.800	1.000																			1580024929.0	10.13	18.76
26/01/2020 07:48:50	26012020	260120	074850	181.370	12.692923	-57.241488	181.460	-0.210	-0.140	0.580	181.420	-1.500	1.000																			1580024930.0	9.81	18.17
26/01/2020 07:48:51	26012020	260120	074851	181.560	12.692878	-57.241492	181.670	-0.300	0.150	0.500	181.590	-1.200	0.900																			1580024931.0	9.57	17.72
26/01/2020 07:48:52	26012020	260120	074852	181.790	12.692833	-57.241495	181.850	-0.220	0.190	0.480	181.820	-1.200	0.900																			1580024932.0	9.67	17.91
26/01/2020 07:48:53	26012020	260120	074853	181.850	12.692788	-57.241498	181.870	0.000	-0.030	0.660	181.840	-1.400	1.000																			1580024933.0	9.91	18.35
26/01/2020 07:48:54	26012020	260120	074854	181.740	12.692742	-57.241500	181.760	0.190	-0.200	0.960	181.720	-1.500	1.300																			1580024934.0	10.08	18.67
26/01/2020 07:48:55	26012020	260120	074855	181.600	12.692695	-57.241503	181.620	0.180	-0.080	1.160	181.570	-1.400	1.600																			1580024935.0	9.84	18.22
26/01/2020 07:48:56	26012020	260120	074856	181.500	12.692652	-57.241507	181.540	0.020	0.120	1.200	181.500	-1.200	1.600																			1580024936.0	9.45	17.50
26/01/2020 07:48:57	26012020	260120	074857	181.470	12.692608	-57.241510	181.500	-0.090	0.050	1.130	181.470	-1.300	1.500																			1580024937.0	9.39	17.39
26/01/2020 07:48:58	26012020	260120	074858	181.450	12.692563	-57.241513	181.490	0.020	-0.340	0.920	181.450	-1.600	1.300																			1580024938.0	9.70	17.96
26/01/2020 07:48:59	26012020	260120	074859	181.450	12.692517	-57.241515	181.470	0.250	-0.750	0.670	181.440	-2.100	1.100																			1580024939.0	9.98	18.48
26/01/2020 07:49:00	26012020	260120	074900	181.420	12.692470	-57.241518	181.440	0.330	-0.830	0.530	181.410	-2.200	0.900	1013.70	25.60	25.70	20.10	20.20	-1.00	71.00	71.00	405.00	25.10	313.00	8.30	96.00	6.10	14	3340.00	27.40	27.40	1580024940.0	9.93	18.39
26/01/2020 07:49:01	26012020	260120	074901	181.390	12.692427	-57.241520	181.420	0.140	-0.580	0.530	181.390	-1.900	0.900																			1580024941.0	9.61	17.80
26/01/2020 07:49:02	26012020	260120	074902	181.350	12.692382	-57.241523	181.380	-0.180	-0.240	0.750	181.340	-1.600	1.100																			1580024942.0	9.42	17.45
26/01/2020 07:49:03	26012020	260120	074903	181.350	12.692338	-57.241528	181.400	-0.370	-0.040	0.990	181.350	-1.400	1.400																			1580024943.0	9.54	17.67
26/01/2020 07:49:04	26012020	260120	074904	181.440	12.692293	-57.241533	181.490	-0.260	0.000	1.010	181.460	-1.300	1.400																			1580024944.0	9.79	18.13
26/01/2020 07:49:05	26012020	260120	074905	181.540	12.692247	-57.241537	181.590	-0.000	0.010	0.870	181.550	-1.300	1.300																			1580024945.0	9.85	18.24
26/01/2020 07:49:06	26012020	260120	074906	181.570	12.692202	-57.241538	181.600	0.160	-0.050	0.770	181.570	-1.400	1.200																			1580024946.0	9.81	18.17
26/01/2020 07:49:07	26012020	260120	074907	181.490	12.692157	-57.241540	181.500	0.130	-0.230	0.770	181.460	-1.600	1.200																			1580024947.0	9.83	18.21
26/01/2020 07:49:08	26012020	260120	074908	181.330	12.692110	-57.241542	181.340	-0.010	-0.420	0.930	181.300	-1.700	1.300																			1580024948.0	9.92	18.37
26/01/2020 07:49:09	26012020	260120	074909	181.230	12.692063	-57.241547	181.270	-0.150	-0.400	1.080	181.230	-1.800	1.500																			1580024949.0	9.91	18.35
26/01/2020 07:49:10	26012020	260120	074910	181.290	12.692020	-57.241550	181.350	-0.240	-0.150	0.950	181.300	-1.500	1.400																			1580024950.0	9.61	17.80
26/01/2020 07:49:11	26012020	260120	074911	181.400	12.691975	-57.241553	181.470	-0.210	0.000	0.710	181.430	-1.300	1.100																			1580024951.0	9.42	17.45
26/01/2020 07:49:12	26012020	260120	074912	181.550	12.691932	-57.241555	181.600	-0.080	-0.090	0.550	181.580	-1.400	1.000																			1580024952.0	9.61	17.80
26/01/2020 07:49:13	26012020	260120	074913	181.620	12.691885	-57.241557	181.640	0.070	-0.280	0.570	181.620	-1.600	1.000																			1580024953.0	9.82	18.19
26/01/2020 07:49:14	26012020	260120	074914	181.510	12.691840	-57.241560	181.490	0.170	-0.360	0.810	181.470	-1.700	1.200																			1580024954.0	9.87	18.28
26/01/2020 07:49:15	26012020	260120	074915	181.380	12.691795	-57.241563	181.340	0.150	-0.160	1.000	181.350	-1.500	1.400																			1580024955.0	9.69	17.95
26/01/2020 07:49:16	26012020	260120	074916	181.260	12.691752	-57.241567	181.250	0.050	0.190	1.110	181.250	-1.200	1.500																			1580024956.0	9.38	17.37
26/01/2020 07:49:17	26012020	260120	074917	181.240	12.691708	-57.241570	181.250	-0.020	0.380	1.090	181.240	-1.000	1.500																			1580024957.0	9.23	17.09
26/01/2020 07:49:18	26012020	260120	074918	181.280	12.691665	-57.241573	181.300	0.070	0.170	0.930	181.290	-1.200	1.400																			1580024958.0	9.40	17.41
26/01/2020 07:49:19	26012020	260120	074919	181.360	12.691620	-57.241577	181.390	0.250	-0.300	0.750	181.370	-1.600	1.200																			1580024959.0	9.71	17.98
26/01/2020 07:49:20	26012020	260120	074920	181.410	12.691573	-57.241578	181.430	0.380	-0.740	0.600	181.410	-2.100	1.000																			1580024960.0	9.84	18.22
26/01/2020 07:49:21	26012020	260120	074921	181.400	12.691528	-57.241582	181.410	0.350	-0.960	0.500	181.400	-2.300	0.900																			1580024961.0	9.74	18.04
26/01/2020 07:49:22	26012020	260120	074922	181.370	12.691483	-57.241583	181.390	0.140	-1.010	0.510	181.360	-2.400	0.900																			1580024962.0	9.64	17.85
26/01/2020 07:49:23	26012020	260120	074923	181.390	12.691440	-57.241587	181.440	-0.160	-0.850	0.590	181.410	-2.200	1.000																			1580024963.0	9.65	17.87
26/01/2020 07:49:24	26012020	260120	074924	181.510	12.691395	-57.241590	181.550	-0.430	-0.550	0.670	181.530	-1.900	1.100																			1580024964.0	9.63	17.83
26/01/2020 07:49:25	26012020	260120	074925	181.610	12.691350	-57.241593	181.660	-0.520	-0.220	0.680	181.630	-1.600	1.100																			1580024965.0	9.70	17.96
26/01/2020 07:49:26	26012020	260120	074926	181.730	12.691305	-57.241595	181.770	-0.460	0.120	0.660	181.760	-1.300	1.100																			1580024966.0	9.81	18.17
26/01/2020 07:49:27	26012020	260120	074927	181.870	12.691258	-57.241598	181.970	-0.400	0.520	0.700	181.910	-0.900	1.100																			1580024967.0	9.76	18.08
26/01/2020 07:49:28	26012020	260120	074928	182.150	12.691215	-57.241600	182.190	-0.340	0.790	0.770	182.180	-0.600	1.200																			1580024968.0	9.58	17.74
26/01/2020 07:49:29	26012020	260120	074929	182.200	12.691170	-57.241605	182.170	-0.170	0.720	0.950	182.180	-0.600	1.300																			1580024969.0	9.55	17.69
26/01/2020 07:49:30	26012020	260120	074930	181.930	12.691125	-57.241608	181.900	0.190	0.320	1.270	181.870	-1.000	1.700																			1580024970.0	9.73	18.02
26/01/2020 07:49:31	26012020	260120	074931	181.640	12.691080	-57.241613	181.640	0.600	-0.060	1.340	181.610	-1.400	1.700																			1580024971.0	9.82	18.19
26/01/2020 07:49:32	26012020	260120	074932	181.520	12.691035	-57.241615	181.530	0.770	-0.190	1.060	181.500	-1.500	1.500																			1580024972.0	9.47	17.54
26/01/2020 07:49:33	26012020	260120	074933	181.470	12.690993	-57.241617	181.490	0.610	-0.350	0.880	181.470	-1.700	1.300																			1580024973.0	9.09	16.83
26/01/2020 07:49:34	26012020	260120	074934	181.460	12.690950	-57.241620	181.480	0.330	-0.760	0.770	181.460	-2.100	1.200																			1580024974.0	9.23	17.09
26/01/2020 07:49:35	26012020	260120	074935	181.500	12.690907	-57.241625	181.530	0.150	-1.180	0.670	181.510	-2.500	1.100																			1580024975.0	9.58	17.74
26/01/2020 07:49:36	26012020	260120	074936	181.550	12.690862	-57.241630	181.570	0.170	-1.310	0.620	181.560	-2.700	1.000																			1580024976.0	9.65	17.87
26/01/2020 07:49:37	26012020	260120	074937	181.580	12.690817	-57.241633	181.600	0.230	-1.140	0.560	181.600	-2.500	1.000																			1580024977.0	9.59	17.76
26/01/2020 07:49:38	26012020	260120	074938	181.690	12.690773	-57.241635	181.740	0.050	-0.700	0.540	181.720	-2.100	0.900																			1580024978.0	9.59	17.76
26/01/2020 07:49:39	26012020	260120	074939	181.900	12.690728	-57.241637	181.950	-0.430	-0.110	0.650	181.950	-1.500	1.000																			1580024979.0	9.53	17.65
26/01/2020 07:49:40	26012020	260120	074940	182.120	12.690685	-57.241640	182.150	-0.920	0.410	0.890	182.150	-1.000	1.300																			1580024980.0	9.50	17.59
26/01/2020 07:49:41	26012020	260120	074941	182.250	12.690640	-57.241645	182.260	-1.010	0.650	1.120	182.260	-0.700	1.500																			1580024981.0	9.63	17.83
26/01/2020 07:49:42	26012020	260120	074942	182.260	12.690595	-57.241650	182.270	-0.620	0.580	1.230	182.250	-0.800	1.600																			1580024982.0	9.88	18.30
26/01/2020 07:49:43	26012020	260120	074943	182.240	12.690548	-57.241653	182.250	-0.040	0.370	1.110	182.230	-1.000	1.500																			1580024983.0	10.00	18.52
26/01/2020 07:49:44	26012020	260120	074944	182.190	12.690502	-57.241655	182.190	0.370	0.190	0.860	182.170	-1.200	1.300																			1580024984.0	9.81	18.17
26/01/2020 07:49:45	26012020	260120	074945	182.030	12.690458	-57.241655	182.010	0.500	0.010	0.750	181.990	-1.300	1.200																			1580024985.0	9.52	17.63
26/01/2020 07:49:46	26012020	260120	074946	181.800	12.690415	-57.241658	181.770	0.430	-0.190	0.870	181.750	-1.500	1.300																			1580024986.0	9.38	17.37
26/01/2020 07:49:47	26012020	260120	074947	181.570	12.690372	-57.241663	181.540	0.370	-0.370	1.120	181.520	-1.700	1.500																			1580024987.0	9.34	17.30
26/01/2020 07:49:48	26012020	260120	074948	181.350	12.690328	-57.241668	181.360	0.350	-0.540	1.300	181.330	-1.900	1.700																			1580024988.0	9.36	17.33
26/01/2020 07:49:49	26012020	260120	074949	181.310	12.690285	-57.241673	181.360	0.320	-0.590	1.200	181.340	-2.000	1.600																			1580024989.0	9.40	17.41
26/01/2020 07:49:50	26012020	260120	074950	181.540	12.690242	-57.241678	181.610	0.240	-0.440	0.830	181.610	-1.800	1.300																			1580024990.0	9.28	17.19
26/01/2020 07:49:51	26012020	260120	074951	181.800	12.690200	-57.241680	181.930	0.140	-0.280	0.380	181.860	-1.600	0.800																			1580024991.0	9.10	16.85
26/01/2020 07:49:52	26012020	260120	074952	182.150	12.690157	-57.241682	182.200	0.070	-0.350	0.050	182.200	-1.700	0.500																			1580024992.0	9.28	17.19
26/01/2020 07:49:53	26012020	260120	074953	182.360	12.690112	-57.241683	182.400	0.010	-0.550	-0.020	182.400	-1.900	0.400																			1580024993.0	9.64	17.85
26/01/2020 07:49:54	26012020	260120	074954	182.530	12.690067	-57.241685	182.560	-0.120	-0.580	0.140	182.560	-1.900	0.500																			1580024994.0	9.74	18.04
26/01/2020 07:49:55	26012020	260120	074955	182.540	12.690022	-57.241688	182.520	-0.290	-0.490	0.570	182.510	-1.900	0.900																			1580024995.0	9.61	17.80
26/01/2020 07:49:56	26012020	260120	074956	182.350	12.689977	-57.241693	182.330	-0.390	-0.380	1.080	182.310	-1.700	1.400																			1580024996.0	9.68	17.93
26/01/2020 07:49:57	26012020	260120	074957	182.150	12.689932	-57.241700	182.140	-0.360	-0.130	1.380	182.120	-1.500	1.800																			1580024997.0	9.72	18.00
26/01/2020 07:49:58	26012020	260120	074958	182.030	12.689888	-57.241703	182.040	-0.300	0.250	1.360	182.010	-1.100	1.800																			1580024998.0	9.52	17.63
26/01/2020 07:49:59	26012020	260120	074959	181.960	12.689845	-57.241707	181.990	-0.260	0.450	1.230	181.950	-0.900	1.600																			1580024999.0	9.34	17.30
26/01/2020 07:50:00	26012020	260120	075000	181.850	12.689800	-57.241710	181.850	-0.160	0.260	1.130	181.820	-1.100	1.500	1013.70	25.60	25.70	20.10	20.20	-1.00	71.00	71.00	404.00	25.10	308.00	8.80	96.00	7.00	14	3356.00	27.40	27.40	1580025000.0	9.53	17.65
26/01/2020 07:50:01	26012020	260120	075001	181.670	12.689755	-57.241713	181.670	0.020	-0.060	1.070	181.640	-1.400	1.500																			1580025001.0	9.81	18.17
26/01/2020 07:50:02	26012020	260120	075002	181.570	12.689710	-57.241718	181.590	0.230	-0.170	0.970	181.570	-1.500	1.400																			1580025002.0	9.70	17.96
26/01/2020 07:50:03	26012020	260120	075003	181.590	12.689667	-57.241722	181.620	0.380	-0.130	0.720	181.600	-1.500	1.200																			1580025003.0	9.34	17.30
26/01/2020 07:50:04	26012020	260120	075004	181.700	12.689625	-57.241725	181.730	0.430	-0.110	0.420	181.740	-1.500	0.900																			1580025004.0	9.18	17.00
26/01/2020 07:50:05	26012020	260120	075005	181.850	12.689582	-57.241727	181.910	0.370	-0.170	0.240	181.890	-1.500	0.700																			1580025005.0	9.20	17.04
26/01/2020 07:50:06	26012020	260120	075006	182.080	12.689538	-57.241730	182.100	0.250	-0.310	0.300	182.110	-1.700	0.700																			1580025006.0	9.25	17.13
26/01/2020 07:50:07	26012020	260120	075007	182.180	12.689495	-57.241733	182.180	0.190	-0.470	0.560	182.190	-1.800	0.900																			1580025007.0	9.33	17.28
26/01/2020 07:50:08	26012020	260120	075008	182.180	12.689452	-57.241737	182.190	0.150	-0.600	0.840	182.180	-2.000	1.200																			1580025008.0	9.41	17.43
26/01/2020 07:50:09	26012020	260120	075009	182.180	12.689408	-57.241740	182.200	0.030	-0.640	1.060	182.180	-2.000	1.400																			1580025009.0	9.45	17.50
26/01/2020 07:50:10	26012020	260120	075010	182.150	12.689365	-57.241745	182.150	-0.130	-0.620	1.210	182.130	-2.000	1.600																			1580025010.0	9.45	17.50
26/01/2020 07:50:11	26012020	260120	075011	182.010	12.689320	-57.241750	182.010	-0.250	-0.560	1.240	181.980	-1.900	1.600																			1580025011.0	9.54	17.67
26/01/2020 07:50:12	26012020	260120	075012	181.930	12.689275	-57.241753	181.950	-0.330	-0.310	1.100	181.930	-1.700	1.500																			1580025012.0	9.58	17.74
26/01/2020 07:50:13	26012020	260120	075013	181.960	12.689232	-57.241757	181.960	-0.390	0.080	0.830	181.960	-1.300	1.300																			1580025013.0	9.35	17.32
26/01/2020 07:50:14	26012020	260120	075014	181.950	12.689190	-57.241760	181.960	-0.350	0.220	0.580	181.950	-1.100	1.000																			1580025014.0	9.29	17.21
26/01/2020 07:50:15	26012020	260120	075015	181.930	12.689145	-57.241762	181.930	-0.170	0.010	0.490	181.920	-1.300	0.900																			1580025015.0	9.62	17.82
26/01/2020 07:50:16	26012020	260120	075016	181.850	12.689098	-57.241765	181.840	0.060	-0.250	0.610	181.830	-1.600	1.000																			1580025016.0	9.90	18.33
26/01/2020 07:50:17	26012020	260120	075017	181.790	12.689053	-57.241770	181.790	0.170	-0.230	0.820	181.780	-1.600	1.200																			1580025017.0	9.82	18.19
26/01/2020 07:50:18	26012020	260120	075018	181.850	12.689010	-57.241773	181.880	0.060	0.120	0.930	181.880	-1.300	1.300																			1580025018.0	9.36	17.33
26/01/2020 07:50:19	26012020	260120	075019	181.960	12.688968	-57.241778	182.010	-0.130	0.420	0.980	181.980	-1.000	1.400																			1580025019.0	8.96	16.59
26/01/2020 07:50:20	26012020	260120	075020	182.040	12.688927	-57.241782	182.040	-0.130	0.240	0.980	182.040	-1.100	1.400																			1580025020.0	9.07	16.80
26/01/2020 07:50:21	26012020	260120	075021	182.000	12.688882	-57.241787	182.000	0.170	-0.310	0.910	181.990	-1.600	1.300																			1580025021.0	9.58	17.74
26/01/2020 07:50:22	26012020	260120	075022	181.970	12.688837	-57.241790	181.990	0.480	-0.590	0.740	181.980	-2.000	1.200																			1580025022.0	9.79	18.13
26/01/2020 07:50:23	26012020	260120	075023	182.080	12.688793	-57.241792	182.110	0.460	-0.330	0.520	182.120	-1.700	0.900																			1580025023.0	9.25	17.13
26/01/2020 07:50:24	26012020	260120	075024	182.210	12.688753	-57.241793	182.230	0.200	-0.040	0.360	182.230	-1.400	0.800																			1580025024.0	8.69	16.09
26/01/2020 07:50:25	26012020	260120	075025	182.190	12.688712	-57.241797	182.170	0.010	-0.200	0.420	182.170	-1.500	0.800																			1580025025.0	8.88	16.45
26/01/2020 07:50:26	26012020	260120	075026	182.020	12.688668	-57.241802	181.990	0.040	-0.660	0.720	181.980	-2.000	1.100																			1580025026.0	9.49	17.58
26/01/2020 07:50:27	26012020	260120	075027	181.850	12.688623	-57.241807	181.830	0.130	-0.930	0.870	181.820	-2.300	1.300																			1580025027.0	9.77	18.09
26/01/2020 07:50:28	26012020	260120	075028	181.780	12.688578	-57.241810	181.780	0.040	-0.840	0.850	181.780	-2.200	1.300																			1580025028.0	9.60	17.78
26/01/2020 07:50:29	26012020	260120	075029	181.850	12.688535	-57.241813	181.880	-0.280	-0.510	0.830	181.880	-1.900	1.200																			1580025029.0	9.36	17.33
26/01/2020 07:50:30	26012020	260120	075030	182.060	12.688492	-57.241817	182.090	-0.610	-0.160	0.840	182.100	-1.500	1.200																			1580025030.0	9.27	17.17
26/01/2020 07:50:31	26012020	260120	075031	182.210	12.688448	-57.241822	182.220	-0.700	-0.010	0.950	182.230	-1.400	1.300																			1580025031.0	9.39	17.39
26/01/2020 07:50:32	26012020	260120	075032	182.200	12.688405	-57.241828	182.190	-0.460	-0.010	1.060	182.180	-1.400	1.500																			1580025032.0	9.68	17.93
26/01/2020 07:50:33	26012020	260120	075033	182.120	12.688358	-57.241832	182.120	-0.100	0.120	1.020	182.120	-1.300	1.400																			1580025033.0	9.77	18.09
26/01/2020 07:50:34	26012020	260120	075034	182.170	12.688315	-57.241835	182.190	0.080	0.430	0.810	182.190	-1.000	1.200																			1580025034.0	9.46	17.52
26/01/2020 07:50:35	26012020	260120	075035	182.280	12.688273	-57.241835	182.300	0.050	0.630	0.630	182.290	-0.700	1.000																			1580025035.0	9.10	16.85
26/01/2020 07:50:36	26012020	260120	075036	182.240	12.688230	-57.241838	182.220	0.060	0.410	0.750	182.200	-0.900	1.100																			1580025036.0	9.12	16.89
26/01/2020 07:50:37	26012020	260120	075037	182.000	12.688187	-57.241843	181.970	0.240	-0.090	1.090	181.940	-1.400	1.500																			1580025037.0	9.48	17.56
26/01/2020 07:50:38	26012020	260120	075038	181.740	12.688142	-57.241848	181.720	0.450	-0.420	1.310	181.700	-1.800	1.700																			1580025038.0	9.58	17.74
26/01/2020 07:50:39	26012020	260120	075039	181.600	12.688100	-57.241853	181.610	0.500	-0.430	1.280	181.590	-1.800	1.700																			1580025039.0	9.19	17.02
26/01/2020 07:50:40	26012020	260120	075040	181.590	12.688058	-57.241857	181.600	0.390	-0.380	0.990	181.600	-1.700	1.400																			1580025040.0	8.82	16.33
26/01/2020 07:50:41	26012020	260120	075041	181.610	12.688017	-57.241860	181.610	0.260	-0.580	0.660	181.610	-1.900	1.100																			1580025041.0	8.93	16.54
26/01/2020 07:50:42	26012020	260120	075042	181.620	12.687973	-57.241862	181.610	0.140	-0.870	0.530	181.630	-2.200	0.900																			1580025042.0	9.33	17.28
26/01/2020 07:50:43	26012020	260120	075043	181.720	12.687930	-57.241865	181.740	-0.040	-0.940	0.600	181.750	-2.300	1.000																			1580025043.0	9.47	17.54
26/01/2020 07:50:44	26012020	260120	075044	181.910	12.687887	-57.241870	181.950	-0.260	-0.710	0.670	181.950	-2.100	1.100																			1580025044.0	9.34	17.30
26/01/2020 07:50:45	26012020	260120	075045	182.080	12.687845	-57.241873	182.100	-0.410	-0.390	0.810	182.100	-1.800	1.200																			1580025045.0	9.20	17.04
26/01/2020 07:50:46	26012020	260120	075046	182.140	12.687802	-57.241878	182.160	-0.410	-0.220	0.970	182.140	-1.600	1.400																			1580025046.0	9.37	17.35
26/01/2020 07:50:47	26012020	260120	075047	182.140	12.687757	-57.241882	182.160	-0.310	-0.080	0.980	182.130	-1.500	1.400																			1580025047.0	9.62	17.82
26/01/2020 07:50:48	26012020	260120	075048	182.080	12.687712	-57.241883	182.080	-0.260	0.120	0.950	182.060	-1.300	1.400																			1580025048.0	9.62	17.82
26/01/2020 07:50:49	26012020	260120	075049	182.000	12.687668	-57.241887	182.020	-0.320	0.320	0.930	181.990	-1.100	1.300																			1580025049.0	9.52	17.63
26/01/2020 07:50:50	26012020	260120	075050	181.980	12.687623	-57.241888	182.000	-0.430	0.480	0.970	181.980	-0.900	1.400																			1580025050.0	9.39	17.39
26/01/2020 07:50:51	26012020	260120	075051	181.910	12.687582	-57.241893	181.890	-0.390	0.460	1.090	181.870	-0.900	1.500																			1580025051.0	9.30	17.22
26/01/2020 07:50:52	26012020	260120	075052	181.740	12.687538	-57.241898	181.710	-0.070	0.250	1.020	181.710	-1.100	1.400																			1580025052.0	9.36	17.33
26/01/2020 07:50:53	26012020	260120	075053	181.680	12.687495	-57.241902	181.680	0.350	0.050	0.720	181.690	-1.300	1.200																			1580025053.0	9.35	17.32
26/01/2020 07:50:54	26012020	260120	075054	181.800	12.687452	-57.241903	181.820	0.590	-0.080	0.480	181.840	-1.400	0.900																			1580025054.0	9.11	16.87
26/01/2020 07:50:55	26012020	260120	075055	181.910	12.687412	-57.241907	181.890	0.610	-0.310	0.430	181.910	-1.700	0.800																			1580025055.0	8.89	16.46
26/01/2020 07:50:56	26012020	260120	075056	181.810	12.687368	-57.241910	181.770	0.570	-0.770	0.600	181.780	-2.100	1.000																			1580025056.0	9.08	16.82
26/01/2020 07:50:57	26012020	260120	075057	181.670	12.687325	-57.241915	181.660	0.510	-1.050	0.790	181.660	-2.400	1.200																			1580025057.0	9.41	17.43
26/01/2020 07:50:58	26012020	260120	075058	181.730	12.687283	-57.241918	181.760	0.290	-0.850	0.890	181.750	-2.200	1.300																			1580025058.0	9.19	17.02
26/01/2020 07:50:59	26012020	260120	075059	181.860	12.687242	-57.241923	181.880	-0.060	-0.590	0.950	181.880	-2.000	1.400																			1580025059.0	8.89	16.46
26/01/2020 07:51:00	26012020	260120	075100	181.890	12.687198	-57.241927	181.880	-0.350	-0.540	1.050	181.870	-1.900	1.400	1013.60	25.60	25.60	19.90	20.00	-1.00	70.00	71.00	402.00	25.10	311.00	8.50	98.00	6.50	14	3235.00	27.40	27.40	1580025060.0	9.19	17.02
26/01/2020 07:51:01	26012020	260120	075101	181.810	12.687155	-57.241932	181.810	-0.440	-0.490	1.150	181.810	-1.900	1.600																			1580025061.0	9.62	17.82
26/01/2020 07:51:02	26012020	260120	075102	181.940	12.687110	-57.241935	181.990	-0.510	-0.090	0.990	182.000	-1.500	1.400																			1580025062.0	9.60	17.78
26/01/2020 07:51:03	26012020	260120	075103	182.250	12.687068	-57.241938	182.300	-0.630	0.390	0.750	182.300	-1.000	1.200																			1580025063.0	9.17	16.98
26/01/2020 07:51:04	26012020	260120	075104	182.420	12.687025	-57.241942	182.430	-0.630	0.460	0.640	182.420	-0.900	1.100																			1580025064.0	9.14	16.93
26/01/2020 07:51:05	26012020	260120	075105	182.360	12.686982	-57.241947	182.350	-0.340	0.150	0.630	182.340	-1.200	1.000																			1580025065.0	9.57	17.72
26/01/2020 07:51:06	26012020	260120	075106	182.180	12.686935	-57.241950	182.150	0.060	-0.080	0.810	182.130	-1.400	1.200																			1580025066.0	9.76	18.08
26/01/2020 07:51:07	26012020	260120	075107	182.020	12.686892	-57.241953	182.040	0.290	0.040	1.020	182.010	-1.300	1.400																			1580025067.0	9.39	17.39
26/01/2020 07:51:08	26012020	260120	075108	181.960	12.686852	-57.241957	181.960	0.300	0.250	1.030	181.930	-1.100	1.400																			1580025068.0	8.88	16.45
26/01/2020 07:51:09	26012020	260120	075109	181.840	12.686810	-57.241960	181.770	0.310	0.110	1.070	181.800	-1.200	1.500																			1580025069.0	8.85	16.39
26/01/2020 07:51:10	26012020	260120	075110	181.650	12.686767	-57.241965	181.670	0.380	-0.220	1.080	181.650	-1.600	1.500																			1580025070.0	9.21	17.06
26/01/2020 07:51:11	26012020	260120	075111	181.740	12.686725	-57.241968	181.770	0.430	-0.420	0.890	181.770	-1.800	1.300																			1580025071.0	9.23	17.09
26/01/2020 07:51:12	26012020	260120	075112	181.890	12.686683	-57.241972	181.900	0.380	-0.540	0.670	181.910	-1.900	1.100																			1580025072.0	8.98	16.63
26/01/2020 07:51:13	26012020	260120	075113	181.890	12.686642	-57.241975	181.860	0.310	-0.760	0.650	181.860	-2.100	1.000																			1580025073.0	9.04	16.74
26/01/2020 07:51:14	26012020	260120	075114	181.730	12.686598	-57.241978	181.710	0.220	-0.950	0.820	181.700	-2.300	1.200																			1580025074.0	9.33	17.28
26/01/2020 07:51:15	26012020	260120	075115	181.670	12.686555	-57.241983	181.700	0.040	-0.790	0.990	181.690	-2.200	1.400																			1580025075.0	9.40	17.41
26/01/2020 07:51:16	26012020	260120	075116	181.790	12.686512	-57.241987	181.820	-0.280	-0.380	1.090	181.820	-1.800	1.500																			1580025076.0	9.14	16.93
26/01/2020 07:51:17	26012020	260120	075117	181.890	12.686470	-57.241992	181.890	-0.590	-0.090	1.240	181.900	-1.500	1.600																			1580025077.0	9.10	16.85
26/01/2020 07:51:18	26012020	260120	075118	181.870	12.686427	-57.241998	181.860	-0.670	-0.020	1.420	181.860	-1.400	1.800																			1580025078.0	9.40	17.41
26/01/2020 07:51:19	26012020	260120	075119	181.790	12.686382	-57.242003	181.790	-0.470	0.070	1.420	181.790	-1.300	1.800																			1580025079.0	9.61	17.80
26/01/2020 07:51:20	26012020	260120	075120	181.830	12.686338	-57.242007	181.860	-0.170	0.320	1.150	181.860	-1.100	1.600																			1580025080.0	9.44	17.48
26/01/2020 07:51:21	26012020	260120	075121	181.950	12.686297	-57.242008	181.980	0.020	0.550	0.780	181.970	-0.800	1.200																			1580025081.0	9.10	16.85
26/01/2020 07:51:22	26012020	260120	075122	182.010	12.686253	-57.242008	182.010	0.100	0.440	0.600	182.010	-0.900	1.000																			1580025082.0	9.03	16.72
26/01/2020 07:51:23	26012020	260120	075123	181.950	12.686212	-57.242010	181.930	0.180	0.060	0.640	181.920	-1.300	1.000																			1580025083.0	9.25	17.13
26/01/2020 07:51:24	26012020	260120	075124	181.800	12.686168	-57.242013	181.770	0.280	-0.370	0.940	181.760	-1.700	1.300																			1580025084.0	9.33	17.28
26/01/2020 07:51:25	26012020	260120	075125	181.680	12.686125	-57.242018	181.680	0.330	-0.690	1.240	181.670	-2.000	1.600																			1580025085.0	9.33	17.28
26/01/2020 07:51:26	26012020	260120	075126	181.640	12.686082	-57.242023	181.640	0.280	-0.730	1.420	181.630	-2.100	1.800																			1580025086.0	9.17	16.98
26/01/2020 07:51:27	26012020	260120	075127	181.590	12.686042	-57.242030	181.590	0.230	-0.580	1.350	181.580	-2.000	1.800																			1580025087.0	8.94	16.56
26/01/2020 07:51:28	26012020	260120	075128	181.540	12.686000	-57.242033	181.540	0.250	-0.450	1.080	181.540	-1.800	1.500																			1580025088.0	8.92	16.52
26/01/2020 07:51:29	26012020	260120	075129	181.580	12.685957	-57.242035	181.610	0.250	-0.350	0.760	181.620	-1.700	1.200																			1580025089.0	9.11	16.87
26/01/2020 07:51:30	26012020	260120	075130	181.760	12.685915	-57.242037	181.790	0.090	-0.240	0.500	181.810	-1.600	0.900																			1580025090.0	9.19	17.02
26/01/2020 07:51:31	26012020	260120	075131	181.910	12.685872	-57.242038	181.940	-0.170	-0.160	0.430	181.930	-1.500	0.800																			1580025091.0	9.20	17.04
26/01/2020 07:51:32	26012020	260120	075132	182.010	12.685828	-57.242043	182.010	-0.360	-0.110	0.600	182.010	-1.500	1.000																			1580025092.0	9.26	17.15
26/01/2020 07:51:33	26012020	260120	075133	182.010	12.685787	-57.242048	182.000	-0.350	-0.080	0.820	182.010	-1.400	1.200																			1580025093.0	9.32	17.26
26/01/2020 07:51:34	26012020	260120	075134	182.040	12.685743	-57.242052	182.040	-0.180	-0.030	0.900	182.040	-1.400	1.300																			1580025094.0	9.33	17.28
26/01/2020 07:51:35	26012020	260120	075135	182.050	12.685700	-57.242055	182.050	-0.020	0.020	0.830	182.050	-1.400	1.300																			1580025095.0	9.25	17.13
26/01/2020 07:51:36	26012020	260120	075136	182.070	12.685657	-57.242057	182.070	-0.010	0.010	0.710	182.070	-1.400	1.100																			1580025096.0	9.20	17.04
26/01/2020 07:51:37	26012020	260120	075137	182.060	12.685615	-57.242060	182.050	-0.130	-0.050	0.780	182.040	-1.400	1.200																			1580025097.0	9.15	16.95
26/01/2020 07:51:38	26012020	260120	075138	181.920	12.685572	-57.242063	181.900	-0.170	-0.240	1.080	181.880	-1.600	1.500																			1580025098.0	9.17	16.98
26/01/2020 07:51:39	26012020	260120	075139	181.660	12.685528	-57.242070	181.620	0.000	-0.480	1.370	181.610	-1.800	1.800																			1580025099.0	9.37	17.35
26/01/2020 07:51:40	26012020	260120	075140	181.460	12.685487	-57.242075	181.460	0.210	-0.450	1.420	181.450	-1.800	1.800																			1580025100.0	9.38	17.37
26/01/2020 07:51:41	26012020	260120	075141	181.440	12.685445	-57.242080	181.440	0.230	-0.130	1.210	181.460	-1.500	1.600																			1580025101.0	8.99	16.65
26/01/2020 07:51:42	26012020	260120	075142	181.580	12.685403	-57.242083	181.580	0.100	0.080	0.820	181.630	-1.300	1.300																			1580025102.0	8.76	16.22
26/01/2020 07:51:43	26012020	260120	075143	181.800	12.685362	-57.242087	181.800	0.010	-0.040	0.460	181.850	-1.400	0.900																			1580025103.0	8.96	16.59
26/01/2020 07:51:44	26012020	260120	075144	182.030	12.685318	-57.242088	182.030	0.070	-0.320	0.200	182.070	-1.700	0.600																			1580025104.0	9.30	17.22
26/01/2020 07:51:45	26012020	260120	075145	182.190	12.685275	-57.242090	182.210	0.190	-0.500	0.080	182.230	-1.900	0.500																			1580025105.0	9.38	17.37
26/01/2020 07:51:46	26012020	260120	075146	182.300	12.685232	-57.242092	182.270	0.220	-0.500	0.230	182.300	-1.900	0.600																			1580025106.0	9.24	17.11
26/01/2020 07:51:47	26012020	260120	075147	182.240	12.685190	-57.242095	182.200	0.090	-0.400	0.660	182.210	-1.800	1.000																			1580025107.0	9.15	16.95
26/01/2020 07:51:48	26012020	260120	075148	182.060	12.685148	-57.242100	182.020	-0.110	-0.250	1.220	182.010	-1.600	1.600																			1580025108.0	9.14	16.93
26/01/2020 07:51:49	26012020	260120	075149	181.760	12.685105	-57.242105	181.730	-0.260	-0.100	1.710	181.700	-1.500	2.100																			1580025109.0	9.19	17.02
26/01/2020 07:51:50	26012020	260120	075150	181.550	12.685063	-57.242112	181.550	-0.280	0.100	1.810	181.530	-1.300	2.200																			1580025110.0	9.22	17.08
26/01/2020 07:51:51	26012020	260120	075151	181.540	12.685022	-57.242117	181.570	-0.200	0.260	1.530	181.560	-1.100	2.000																			1580025111.0	9.04	16.74
26/01/2020 07:51:52	26012020	260120	075152	181.580	12.684978	-57.242120	181.590	-0.020	0.080	1.180	181.580	-1.200	1.600																			1580025112.0	9.07	16.80
26/01/2020 07:51:53	26012020	260120	075153	181.590	12.684935	-57.242122	181.610	0.190	-0.290	0.850	181.600	-1.600	1.300																			1580025113.0	9.38	17.37
26/01/2020 07:51:54	26012020	260120	075154	181.640	12.684892	-57.242123	181.650	0.210	-0.500	0.680	181.650	-1.900	1.100																			1580025114.0	9.43	17.46
26/01/2020 07:51:55	26012020	260120	075155	181.690	12.684848	-57.242127	181.710	0.010	-0.440	0.780	181.700	-1.800	1.200																			1580025115.0	9.15	16.95
26/01/2020 07:51:56	26012020	260120	075156	181.720	12.684808	-57.242132	181.730	-0.200	-0.280	1.010	181.720	-1.600	1.400																			1580025116.0	8.91	16.50
26/01/2020 07:51:57	26012020	260120	075157	181.680	12.684767	-57.242138	181.670	-0.150	-0.250	1.200	181.670	-1.600	1.600																			1580025117.0	8.99	16.65
26/01/2020 07:51:58	26012020	260120	075158	181.590	12.684723	-57.242142	181.600	0.100	-0.290	1.230	181.580	-1.700	1.600																			1580025118.0	9.24	17.11
26/01/2020 07:51:59	26012020	260120	075159	181.600	12.684682	-57.242145	181.660	0.240	-0.190	1.020	181.620	-1.600	1.500																			1580025119.0	9.25	17.13
26/01/2020 07:52:00	26012020	260120	075200	181.770	12.684638	-57.242147	181.820	0.130	-0.010	0.640	181.800	-1.400	1.100	1013.70	25.60	25.70	19.90	20.00	-1.00	70.00	70.00	401.00	25.10	310.00	8.60	98.00	6.60	14	3201.00	27.40	27.40	1580025120.0	9.03	16.72
26/01/2020 07:52:01	26012020	260120	075201	181.960	12.684597	-57.242148	182.000	-0.070	0.010	0.370	182.000	-1.300	0.800																			1580025121.0	8.96	16.59
26/01/2020 07:52:02	26012020	260120	075202	182.170	12.684555	-57.242150	182.210	-0.140	-0.130	0.340	182.200	-1.500	0.800																			1580025122.0	9.13	16.91
26/01/2020 07:52:03	26012020	260120	075203	182.310	12.684512	-57.242153	182.330	-0.040	-0.320	0.520	182.320	-1.700	0.900																			1580025123.0	9.25	17.13
26/01/2020 07:52:04	26012020	260120	075204	182.280	12.684468	-57.242158	182.260	0.140	-0.500	0.810	182.250	-1.900	1.200																			1580025124.0	9.28	17.19
26/01/2020 07:52:05	26012020	260120	075205	182.080	12.684427	-57.242162	182.050	0.210	-0.570	1.070	182.030	-1.900	1.500																			1580025125.0	9.32	17.26
26/01/2020 07:52:06	26012020	260120	075206	181.840	12.684383	-57.242165	181.810	0.070	-0.400	1.300	181.800	-1.800	1.700																			1580025126.0	9.23	17.09
26/01/2020 07:52:07	26012020	260120	075207	181.690	12.684342	-57.242170	181.680	-0.190	-0.070	1.440	181.670	-1.500	1.800																			1580025127.0	9.03	16.72
26/01/2020 07:52:08	26012020	260120	075208	181.620	12.684300	-57.242175	181.600	-0.360	0.170	1.390	181.610	-1.200	1.800																			1580025128.0	8.95	16.58
26/01/2020 07:52:09	26012020	260120	075209	181.590	12.684258	-57.242180	181.590	-0.280	0.190	1.120	181.610	-1.200	1.600																			1580025129.0	9.09	16.83
26/01/2020 07:52:10	26012020	260120	075210	181.670	12.684215	-57.242183	181.680	-0.030	0.040	0.770	181.690	-1.300	1.200																			1580025130.0	9.27	17.17
26/01/2020 07:52:11	26012020	260120	075211	181.820	12.684172	-57.242185	181.850	0.180	-0.130	0.390	181.870	-1.500	0.800																			1580025131.0	9.33	17.28
26/01/2020 07:52:12	26012020	260120	075212	182.140	12.684130	-57.242187	182.180	0.180	-0.140	0.040	182.210	-1.500	0.500																			1580025132.0	9.17	16.98
26/01/2020 07:52:13	26012020	260120	075213	182.480	12.684088	-57.242190	182.500	0.050	-0.090	-0.080	182.530	-1.500	0.300																			1580025133.0	8.86	16.41
26/01/2020 07:52:14	26012020	260120	075214	182.580	12.684047	-57.242192	182.550	0.020	-0.300	0.220	182.570	-1.600	0.600																			1580025134.0	8.86	16.41
26/01/2020 07:52:15	26012020	260120	075215	182.430	12.684005	-57.242197	182.380	0.150	-0.680	0.710	182.380	-2.000	1.100																			1580025135.0	9.25	17.13
26/01/2020 07:52:16	26012020	260120	075216	182.180	12.683960	-57.242202	182.140	0.220	-0.860	1.180	182.130	-2.200	1.600																			1580025136.0	9.45	17.50
26/01/2020 07:52:17	26012020	260120	075217	181.980	12.683918	-57.242207	181.960	0.100	-0.630	1.540	181.950	-2.000	1.900																			1580025137.0	9.27	17.17
26/01/2020 07:52:18	26012020	260120	075218	181.900	12.683877	-57.242213	181.910	-0.150	-0.140	1.620	181.890	-1.500	2.000																			1580025138.0	8.94	16.56
26/01/2020 07:52:19	26012020	260120	075219	181.850	12.683837	-57.242218	181.850	-0.250	0.220	1.440	181.840	-1.200	1.900																			1580025139.0	8.79	16.28
26/01/2020 07:52:20	26012020	260120	075220	181.790	12.683793	-57.242222	181.800	-0.120	0.190	1.060	181.780	-1.200	1.500																			1580025140.0	9.07	16.80
26/01/2020 07:52:21	26012020	260120	075221	181.800	12.683750	-57.242223	181.810	0.080	-0.070	0.700	181.820	-1.400	1.100																			1580025141.0	9.44	17.48
26/01/2020 07:52:22	26012020	260120	075222	181.950	12.683707	-57.242225	181.960	0.090	-0.180	0.530	181.980	-1.500	1.000																			1580025142.0	9.51	17.61
26/01/2020 07:52:23	26012020	260120	075223	182.160	12.683663	-57.242228	182.180	-0.080	-0.060	0.510	182.190	-1.400	0.900																			1580025143.0	9.15	16.95
26/01/2020 07:52:24	26012020	260120	075224	182.300	12.683623	-57.242233	182.310	-0.200	0.060	0.610	182.320	-1.300	1.000																			1580025144.0	8.87	16.43
26/01/2020 07:52:25	26012020	260120	075225	182.350	12.683582	-57.242238	182.350	-0.050	-0.030	0.750	182.360	-1.400	1.200																			1580025145.0	8.94	16.56
26/01/2020 07:52:26	26012020	260120	075226	182.390	12.683538	-57.242243	182.400	0.250	-0.270	0.690	182.410	-1.600	1.100																			1580025146.0	9.16	16.96
26/01/2020 07:52:27	26012020	260120	075227	182.510	12.683497	-57.242245	182.520	0.390	-0.510	0.540	182.530	-1.900	1.000																			1580025147.0	9.24	17.11
26/01/2020 07:52:28	26012020	260120	075228	182.600	12.683453	-57.242245	182.600	0.190	-0.650	0.560	182.600	-2.000	1.000																			1580025148.0	9.21	17.06
26/01/2020 07:52:29	26012020	260120	075229	182.580	12.683412	-57.242250	182.560	-0.160	-0.620	0.900	182.550	-2.000	1.300																			1580025149.0	9.14	16.93
26/01/2020 07:52:30	26012020	260120	075230	182.400	12.683370	-57.242257	182.360	-0.370	-0.410	1.320	182.350	-1.800	1.700																			1580025150.0	9.06	16.78
26/01/2020 07:52:31	26012020	260120	075231	182.140	12.683328	-57.242263	182.090	-0.300	-0.110	1.480	182.080	-1.500	1.900																			1580025151.0	9.02	16.71
26/01/2020 07:52:32	26012020	260120	075232	181.900	12.683287	-57.242268	181.870	-0.100	0.090	1.300	181.870	-1.300	1.700																			1580025152.0	9.05	16.76
26/01/2020 07:52:33	26012020	260120	075233	181.820	12.683243	-57.242272	181.830	-0.010	0.180	0.990	181.830	-1.200	1.400																			1580025153.0	9.16	16.96
26/01/2020 07:52:34	26012020	260120	075234	181.890	12.683202	-57.242273	181.900	-0.060	0.180	0.730	181.910	-1.200	1.200																			1580025154.0	9.12	16.89
26/01/2020 07:52:35	26012020	260120	075235	181.970	12.683158	-57.242277	181.980	-0.080	0.020	0.600	181.980	-1.300	1.000																			1580025155.0	9.10	16.85
26/01/2020 07:52:36	26012020	260120	075236	182.010	12.683117	-57.242282	182.000	0.120	-0.280	0.620	182.010	-1.600	1.000																			1580025156.0	9.23	17.09
26/01/2020 07:52:37	26012020	260120	075237	182.030	12.683073	-57.242287	182.040	0.390	-0.440	0.680	182.040	-1.800	1.100																			1580025157.0	9.32	17.26
26/01/2020 07:52:38	26012020	260120	075238	182.110	12.683032	-57.242290	182.120	0.440	-0.330	0.730	182.130	-1.700	1.100																			1580025158.0	9.03	16.72
26/01/2020 07:52:39	26012020	260120	075239	182.150	12.682990	-57.242293	182.140	0.230	-0.280	0.810	182.140	-1.600	1.200																			1580025159.0	8.79	16.28
26/01/2020 07:52:40	26012020	260120	075240	182.060	12.682948	-57.242297	182.030	-0.040	-0.470	0.950	182.030	-1.800	1.400																			1580025160.0	9.05	16.76
26/01/2020 07:52:41	26012020	260120	075241	181.950	12.682905	-57.242302	181.940	-0.230	-0.580	1.100	181.940	-1.900	1.500																			1580025161.0	9.38	17.37
26/01/2020 07:52:42	26012020	260120	075242	181.970	12.682863	-57.242307	181.990	-0.310	-0.290	1.090	182.000	-1.700	1.500																			1580025162.0	9.24	17.11
26/01/2020 07:52:43	26012020	260120	075243	182.130	12.682822	-57.242310	182.170	-0.320	0.160	0.810	182.180	-1.200	1.300																			1580025163.0	8.82	16.33
26/01/2020 07:52:44	26012020	260120	075244	182.320	12.682782	-57.242312	182.320	-0.210	0.270	0.470	182.340	-1.100	0.900																			1580025164.0	8.77	16.24
26/01/2020 07:52:45	26012020	260120	075245	182.320	12.682738	-57.242313	182.260	0.010	-0.090	0.420	182.280	-1.400	0.800																			1580025165.0	9.19	17.02
26/01/2020 07:52:46	26012020	260120	075246	182.070	12.682693	-57.242317	181.980	0.190	-0.490	0.750	182.010	-1.800	1.100																			1580025166.0	9.58	17.74
26/01/2020 07:52:47	26012020	260120	075247	181.760	12.682650	-57.242320	181.700	0.180	-0.440	1.180	181.710	-1.800	1.600																			1580025167.0	9.42	17.45
26/01/2020 07:52:48	26012020	260120	075248	181.530	12.682608	-57.242325	181.490	-0.000	-0.060	1.520	181.490	-1.400	1.900																			1580025168.0	8.91	16.50
26/01/2020 07:52:49	26012020	260120	075249	181.390	12.682568	-57.242332	181.350	-0.170	0.170	1.750	181.360	-1.200	2.100																			1580025169.0	8.72	16.15
26/01/2020 07:52:50	26012020	260120	075250	181.230	12.682528	-57.242338	181.240	-0.140	0.010	1.770	181.220	-1.300	2.200																			1580025170.0	9.00	16.67
26/01/2020 07:52:51	26012020	260120	075251	181.210	12.682485	-57.242343	181.230	0.100	-0.310	1.430	181.220	-1.600	1.900																			1580025171.0	9.36	17.33
26/01/2020 07:52:52	26012020	260120	075252	181.330	12.682442	-57.242347	181.370	0.330	-0.420	0.940	181.370	-1.800	1.400																			1580025172.0	9.34	17.30
26/01/2020 07:52:53	26012020	260120	075253	181.570	12.682400	-57.242348	181.620	0.320	-0.290	0.450	181.630	-1.700	0.900																			1580025173.0	9.00	16.67
26/01/2020 07:52:54	26012020	260120	075254	181.890	12.682358	-57.242348	181.930	0.110	-0.190	0.060	181.950	-1.500	0.500																			1580025174.0	8.78	16.26
26/01/2020 07:52:55	26012020	260120	075255	182.160	12.682317	-57.242350	182.190	-0.070	-0.300	-0.120	182.200	-1.600	0.300																			1580025175.0	8.92	16.52
26/01/2020 07:52:56	26012020	260120	075256	182.320	12.682275	-57.242353	182.330	-0.090	-0.490	0.040	182.340	-1.800	0.400																			1580025176.0	9.20	17.04
26/01/2020 07:52:57	26012020	260120	075257	182.370	12.682232	-57.242357	182.360	-0.040	-0.590	0.430	182.360	-1.900	0.800																			1580025177.0	9.33	17.28
26/01/2020 07:52:58	26012020	260120	075258	182.290	12.682188	-57.242360	182.270	-0.060	-0.430	0.860	182.260	-1.800	1.200																			1580025178.0	9.25	17.13
26/01/2020 07:52:59	26012020	260120	075259	182.090	12.682147	-57.242365	182.060	-0.190	-0.080	1.240	182.040	-1.500	1.600																			1580025179.0	9.05	16.76
26/01/2020 07:53:00	26012020	260120	075300	181.890	12.682105	-57.242370	181.880	-0.290	0.270	1.450	181.860	-1.100	1.900	1013.70	25.60	25.70	20.00	20.00	-1.00	71.00	71.00	402.00	25.10	310.00	8.40	98.00	6.50	14	3238.00	27.40	27.40	1580025180.0	8.95	16.58
26/01/2020 07:53:01	26012020	260120	075301	181.770	12.682063	-57.242373	181.770	-0.260	0.440	1.420	181.750	-0.900	1.800																			1580025181.0	8.95	16.58
26/01/2020 07:53:02	26012020	260120	075302	181.670	12.682022	-57.242378	181.670	-0.050	0.390	1.240	181.650	-1.000	1.700																			1580025182.0	9.03	16.72
26/01/2020 07:53:03	26012020	260120	075303	181.520	12.681980	-57.242382	181.510	0.250	0.090	1.110	181.500	-1.200	1.500																			1580025183.0	9.14	16.93
26/01/2020 07:53:04	26012020	260120	075304	181.420	12.681937	-57.242383	181.440	0.430	-0.260	0.940	181.420	-1.600	1.400																			1580025184.0	9.25	17.13
26/01/2020 07:53:05	26012020	260120	075305	181.410	12.681895	-57.242387	181.410	0.350	-0.500	0.890	181.400	-1.800	1.300																			1580025185.0	9.08	16.82
26/01/2020 07:53:06	26012020	260120	075306	181.350	12.681853	-57.242390	181.330	0.110	-0.730	0.990	181.330	-2.100	1.400																			1580025186.0	8.98	16.63
26/01/2020 07:53:07	26012020	260120	075307	181.220	12.681812	-57.242397	181.190	-0.080	-0.890	1.120	181.190	-2.200	1.500																			1580025187.0	9.13	16.91
26/01/2020 07:53:08	26012020	260120	075308	181.220	12.681768	-57.242402	181.240	-0.150	-0.740	1.110	181.260	-2.100	1.500																			1580025188.0	9.16	16.96
26/01/2020 07:53:09	26012020	260120	075309	181.500	12.681727	-57.242405	181.540	-0.170	-0.360	0.930	181.570	-1.700	1.400																			1580025189.0	8.93	16.54
26/01/2020 07:53:10	26012020	260120	075310	181.850	12.681687	-57.242408	181.890	-0.160	-0.070	0.660	181.920	-1.400	1.100																			1580025190.0	8.87	16.43
26/01/2020 07:53:11	26012020	260120	075311	182.170	12.681643	-57.242410	182.190	-0.130	-0.010	0.420	182.220	-1.400	0.800																			1580025191.0	9.10	16.85
26/01/2020 07:53:12	26012020	260120	075312	182.380	12.681600	-57.242412	182.370	-0.090	-0.060	0.450	182.400	-1.400	0.900																			1580025192.0	9.31	17.24
26/01/2020 07:53:13	26012020	260120	075313	182.400	12.681557	-57.242413	182.350	-0.050	-0.100	0.780	182.390	-1.500	1.200																			1580025193.0	9.34	17.30
26/01/2020 07:53:14	26012020	260120	075314	182.140	12.681513	-57.242417	182.080	-0.030	-0.060	1.160	182.080	-1.400	1.500																			1580025194.0	9.31	17.24
26/01/2020 07:53:15	26012020	260120	075315	181.800	12.681472	-57.242422	181.760	-0.070	0.150	1.540	181.750	-1.200	1.900																			1580025195.0	9.17	16.98
26/01/2020 07:53:16	26012020	260120	075316	181.600	12.681430	-57.242427	181.610	-0.130	0.450	1.690	181.580	-0.900	2.100																			1580025196.0	8.94	16.56
26/01/2020 07:53:17	26012020	260120	075317	181.560	12.681390	-57.242432	181.570	-0.080	0.590	1.510	181.550	-0.800	1.900																			1580025197.0	8.71	16.13
26/01/2020 07:53:18	26012020	260120	075318	181.580	12.681350	-57.242435	181.590	0.140	0.310	1.140	181.590	-1.000	1.600																			1580025198.0	8.78	16.26
26/01/2020 07:53:19	26012020	260120	075319	181.640	12.681307	-57.242437	181.650	0.430	-0.310	0.790	181.650	-1.600	1.200																			1580025199.0	9.13	16.91
26/01/2020 07:53:20	26012020	260120	075320	181.690	12.681263	-57.242440	181.690	0.580	-0.860	0.600	181.700	-2.200	1.000																			1580025200.0	9.29	17.21
26/01/2020 07:53:21	26012020	260120	075321	181.710	12.681222	-57.242442	181.700	0.500	-1.030	0.590	181.710	-2.400	1.000																			1580025201.0	9.06	16.78
26/01/2020 07:53:22	26012020	260120	075322	181.680	12.681182	-57.242447	181.660	0.270	-0.960	0.730	181.670	-2.300	1.100																			1580025202.0	8.82	16.33
26/01/2020 07:53:23	26012020	260120	075323	181.710	12.681140	-57.242450	181.730	-0.040	-0.780	0.830	181.740	-2.200	1.200																			1580025203.0	8.85	16.39
26/01/2020 07:53:24	26012020	260120	075324	181.870	12.681098	-57.242455	181.900	-0.330	-0.530	0.820	181.900	-1.900	1.200																			1580025204.0	8.95	16.58
26/01/2020 07:53:25	26012020	260120	075325	181.970	12.681057	-57.242460	181.980	-0.480	-0.320	0.850	181.980	-1.700	1.300																			1580025205.0	9.06	16.78
26/01/2020 07:53:26	26012020	260120	075326	181.940	12.681013	-57.242463	181.920	-0.460	-0.180	0.950	181.920	-1.500	1.400																			1580025206.0	9.29	17.21
26/01/2020 07:53:27	26012020	260120	075327	181.850	12.680970	-57.242467	181.840	-0.360	0.000	0.960	181.840	-1.400	1.400																			1580025207.0	9.41	17.43
26/01/2020 07:53:28	26012020	260120	075328	181.790	12.680927	-57.242470	181.780	-0.290	0.250	0.960	181.790	-1.100	1.400																			1580025208.0	9.33	17.28
26/01/2020 07:53:29	26012020	260120	075329	181.730	12.680885	-57.242472	181.710	-0.260	0.440	0.990	181.720	-0.900	1.400																			1580025209.0	9.19	17.02
26/01/2020 07:53:30	26012020	260120	075330	181.620	12.680842	-57.242475	181.600	-0.180	0.480	1.100	181.600	-0.900	1.500																			1580025210.0	9.15	16.95
26/01/2020 07:53:31	26012020	260120	075331	181.530	12.680800	-57.242478	181.520	-0.010	0.450	1.130	181.530	-0.900	1.500																			1580025211.0	9.13	16.91
26/01/2020 07:53:32	26012020	260120	075332	181.580	12.680758	-57.242483	181.580	0.190	0.340	0.970	181.590	-1.000	1.400																			1580025212.0	8.96	16.59
26/01/2020 07:53:33	26012020	260120	075333	181.650	12.680717	-57.242487	181.640	0.380	-0.030	0.790	181.660	-1.300	1.200																			1580025213.0	8.88	16.45
26/01/2020 07:53:34	26012020	260120	075334	181.690	12.680675	-57.242488	181.670	0.540	-0.560	0.620	181.690	-1.900	1.100																			1580025214.0	9.08	16.82
26/01/2020 07:53:35	26012020	260120	075335	181.730	12.680633	-57.242492	181.710	0.570	-0.840	0.470	181.730	-2.200	0.900																			1580025215.0	9.10	16.85
26/01/2020 07:53:36	26012020	260120	075336	181.810	12.680592	-57.242493	181.800	0.400	-0.790	0.450	181.810	-2.100	0.900																			1580025216.0	8.81	16.32
26/01/2020 07:53:37	26012020	260120	075337	181.820	12.680552	-57.242497	181.790	0.140	-0.650	0.620	181.820	-2.000	1.000																			1580025217.0	8.63	15.98
26/01/2020 07:53:38	26012020	260120	075338	181.620	12.680510	-57.242502	181.570	-0.010	-0.660	0.950	181.620	-2.000	1.300																			1580025218.0	8.87	16.43
26/01/2020 07:53:39	26012020	260120	075339	181.400	12.680468	-57.242507	181.320	-0.040	-0.610	1.260	181.350	-2.000	1.700																			1580025219.0	9.25	17.13
26/01/2020 07:53:40	26012020	260120	075340	181.230	12.680425	-57.242512	181.240	-0.090	-0.280	1.300	181.230	-1.700	1.700																			1580025220.0	9.24	17.11
26/01/2020 07:53:41	26012020	260120	075341	181.280	12.680383	-57.242513	181.310	-0.260	0.140	1.180	181.300	-1.200	1.600																			1580025221.0	8.98	16.63
26/01/2020 07:53:42	26012020	260120	075342	181.390	12.680342	-57.242517	181.420	-0.440	0.300	1.080	181.420	-1.100	1.500																			1580025222.0	9.00	16.67
26/01/2020 07:53:43	26012020	260120	075343	181.570	12.680298	-57.242522	181.610	-0.470	0.210	0.960	181.610	-1.100	1.400																			1580025223.0	9.22	17.08
26/01/2020 07:53:44	26012020	260120	075344	181.720	12.680255	-57.242525	181.750	-0.290	-0.020	0.920	181.730	-1.400	1.300																			1580025224.0	9.34	17.30
26/01/2020 07:53:45	26012020	260120	075345	181.750	12.680212	-57.242528	181.750	-0.010	-0.240	0.890	181.740	-1.600	1.300																			1580025225.0	9.35	17.32
26/01/2020 07:53:46	26012020	260120	075346	181.700	12.680170	-57.242532	181.700	0.190	-0.310	0.790	181.690	-1.700	1.200																			1580025226.0	9.23	17.09
26/01/2020 07:53:47	26012020	260120	075347	181.620	12.680127	-57.242533	181.630	0.190	-0.320	0.770	181.620	-1.700	1.200																			1580025227.0	9.07	16.80
26/01/2020 07:53:48	26012020	260120	075348	181.530	12.680085	-57.242535	181.540	0.040	-0.250	0.860	181.530	-1.600	1.300																			1580025228.0	9.03	16.72
26/01/2020 07:53:49	26012020	260120	075349	181.540	12.680043	-57.242540	181.560	-0.130	-0.030	0.920	181.540	-1.400	1.300																			1580025229.0	8.91	16.50
26/01/2020 07:53:50	26012020	260120	075350	181.580	12.680003	-57.242543	181.580	-0.110	0.060	0.940	181.580	-1.300	1.400																			1580025230.0	8.78	16.26
26/01/2020 07:53:51	26012020	260120	075351	181.530	12.679962	-57.242547	181.530	0.120	-0.160	0.930	181.520	-1.500	1.300																			1580025231.0	9.05	16.76
26/01/2020 07:53:52	26012020	260120	075352	181.470	12.679918	-57.242550	181.470	0.330	-0.400	0.980	181.460	-1.700	1.400																			1580025232.0	9.34	17.30
26/01/2020 07:53:53	26012020	260120	075353	181.430	12.679875	-57.242553	181.440	0.310	-0.360	1.110	181.430	-1.700	1.500																			1580025233.0	9.21	17.06
26/01/2020 07:53:54	26012020	260120	075354	181.380	12.679833	-57.242557	181.370	0.110	-0.120	1.250	181.380	-1.500	1.700																			1580025234.0	8.89	16.46
26/01/2020 07:53:55	26012020	260120	075355	181.290	12.679793	-57.242560	181.280	-0.080	0.070	1.430	181.270	-1.300	1.800																			1580025235.0	8.76	16.22
26/01/2020 07:53:56	26012020	260120	075356	181.230	12.679753	-57.242565	181.240	-0.120	0.060	1.450	181.230	-1.300	1.900																			1580025236.0	8.89	16.46
26/01/2020 07:53:57	26012020	260120	075357	181.280	12.679710	-57.242568	181.310	-0.010	-0.120	1.250	181.280	-1.500	1.700																			1580025237.0	9.03	16.72
26/01/2020 07:53:58	26012020	260120	075358	181.380	12.679668	-57.242572	181.420	0.160	-0.390	0.940	181.400	-1.700	1.400																			1580025238.0	9.17	16.98
26/01/2020 07:53:59	26012020	260120	075359	181.510	12.679625	-57.242572	181.530	0.260	-0.540	0.580	181.510	-1.900	1.000																			1580025239.0	9.20	17.04
26/01/2020 07:54:00	26012020	260120	075400	181.580	12.679583	-57.242573	181.590	0.160	-0.510	0.370	181.580	-1.900	0.800	1013.60	25.60	25.70	20.10	20.10	-1.00	71.00	71.00	403.00	25.20	308.00	8.60	97.00	6.80	14	3241.00	27.40	27.40	1580025240.0	9.02	16.71
26/01/2020 07:54:01	26012020	260120	075401	181.620	12.679542	-57.242575	181.620	-0.080	-0.470	0.370	181.620	-1.800	0.800																			1580025241.0	8.93	16.54
26/01/2020 07:54:02	26012020	260120	075402	181.640	12.679500	-57.242578	181.640	-0.270	-0.480	0.550	181.640	-1.800	1.000																			1580025242.0	9.07	16.80
26/01/2020 07:54:03	26012020	260120	075403	181.620	12.679457	-57.242582	181.620	-0.330	-0.430	0.820	181.620	-1.800	1.200																			1580025243.0	9.23	17.09
26/01/2020 07:54:04	26012020	260120	075404	181.590	12.679415	-57.242587	181.600	-0.320	-0.270	1.040	181.590	-1.600	1.400																			1580025244.0	9.22	17.08
26/01/2020 07:54:05	26012020	260120	075405	181.530	12.679372	-57.242592	181.530	-0.260	-0.110	1.150	181.530	-1.500	1.600																			1580025245.0	9.19	17.02
26/01/2020 07:54:06	26012020	260120	075406	181.390	12.679328	-57.242593	181.370	-0.170	-0.000	1.180	181.390	-1.400	1.600																			1580025246.0	9.26	17.15
26/01/2020 07:54:07	26012020	260120	075407	181.350	12.679287	-57.242597	181.370	-0.120	0.190	1.140	181.350	-1.200	1.600																			1580025247.0	9.27	17.17
26/01/2020 07:54:08	26012020	260120	075408	181.540	12.679243	-57.242600	181.570	-0.130	0.480	1.010	181.540	-0.900	1.400																			1580025248.0	9.03	16.72
26/01/2020 07:54:09	26012020	260120	075409	181.780	12.679203	-57.242603	181.810	-0.100	0.630	0.790	181.780	-0.700	1.200																			1580025249.0	8.78	16.26
26/01/2020 07:54:10	26012020	260120	075410	181.870	12.679162	-57.242605	181.860	0.070	0.370	0.630	181.870	-0.900	1.000																			1580025250.0	8.82	16.33
26/01/2020 07:54:11	26012020	260120	075411	181.800	12.679120	-57.242608	181.790	0.380	-0.240	0.520	181.800	-1.500	0.900																			1580025251.0	9.18	17.00
26/01/2020 07:54:12	26012020	260120	075412	181.780	12.679077	-57.242610	181.790	0.590	-0.660	0.420	181.780	-2.000	0.800																			1580025252.0	9.33	17.28
26/01/2020 07:54:13	26012020	260120	075413	181.860	12.679035	-57.242613	181.880	0.500	-0.690	0.440	181.860	-2.100	0.900																			1580025253.0	8.93	16.54
26/01/2020 07:54:14	26012020	260120	075414	181.980	12.678995	-57.242617	181.990	0.210	-0.650	0.530	181.980	-2.000	0.900																			1580025254.0	8.61	15.95
26/01/2020 07:54:15	26012020	260120	075415	182.020	12.678955	-57.242620	182.020	-0.020	-0.760	0.790	182.020	-2.100	1.200																			1580025255.0	8.79	16.28
26/01/2020 07:54:16	26012020	260120	075416	182.000	12.678912	-57.242625	181.990	-0.090	-0.850	1.140	182.000	-2.200	1.500																			1580025256.0	9.16	16.96
26/01/2020 07:54:17	26012020	260120	075417	181.900	12.678870	-57.242630	181.890	-0.070	-0.730	1.330	181.900	-2.100	1.700																			1580025257.0	9.28	17.19
26/01/2020 07:54:18	26012020	260120	075418	181.840	12.678827	-57.242633	181.850	-0.110	-0.350	1.290	181.840	-1.800	1.700																			1580025258.0	9.20	17.04
26/01/2020 07:54:19	26012020	260120	075419	181.900	12.678785	-57.242637	181.910	-0.270	0.150	1.160	181.900	-1.200	1.600																			1580025259.0	9.04	16.74
26/01/2020 07:54:20	26012020	260120	075420	182.000	12.678743	-57.242638	182.010	-0.460	0.470	1.010	182.000	-0.900	1.400																			1580025260.0	8.97	16.61
26/01/2020 07:54:21	26012020	260120	075421	182.040	12.678700	-57.242642	182.030	-0.490	0.470	0.950	182.040	-0.900	1.400																			1580025261.0	9.15	16.95
26/01/2020 07:54:22	26012020	260120	075422	181.960	12.678657	-57.242647	181.920	-0.260	0.210	1.000	181.960	-1.100	1.400																			1580025262.0	9.38	17.37
26/01/2020 07:54:23	26012020	260120	075423	181.840	12.678613	-57.242650	181.820	0.090	-0.040	0.930	181.840	-1.400	1.400																			1580025263.0	9.48	17.56
26/01/2020 07:54:24	26012020	260120	075424	181.930	12.678570	-57.242653	181.950	0.270	-0.060	0.730	181.930	-1.400	1.200																			1580025264.0	9.24	17.11
26/01/2020 07:54:25	26012020	260120	075425	182.160	12.678530	-57.242655	182.160	0.190	0.010	0.580	182.160	-1.400	1.000																			1580025265.0	8.82	16.33
26/01/2020 07:54:26	26012020	260120	075426	182.290	12.678490	-57.242658	182.240	0.050	-0.130	0.530	182.290	-1.500	0.900																			1580025266.0	8.67	16.06
26/01/2020 07:54:27	26012020	260120	075427	182.250	12.678448	-57.242662	182.190	0.060	-0.510	0.630	182.230	-1.800	1.000																			1580025267.0	8.98	16.63
26/01/2020 07:54:28	26012020	260120	075428	182.170	12.678405	-57.242667	182.140	0.170	-0.780	0.830	182.170	-2.100	1.200																			1580025268.0	9.26	17.15
26/01/2020 07:54:29	26012020	260120	075429	182.190	12.678363	-57.242670	182.200	0.220	-0.700	0.920	182.210	-2.100	1.300																			1580025269.0	9.14	16.93
26/01/2020 07:54:30	26012020	260120	075430	182.360	12.678322	-57.242673	182.370	0.150	-0.350	0.910	182.360	-1.700	1.300																			1580025270.0	8.85	16.39
26/01/2020 07:54:31	26012020	260120	075431	182.520	12.678282	-57.242677	182.510	0.010	-0.020	0.880	182.520	-1.400	1.300																			1580025271.0	8.69	16.09
26/01/2020 07:54:32	26012020	260120	075432	182.520	12.678240	-57.242680	182.460	-0.080	0.030	1.010	182.520	-1.300	1.400																			1580025272.0	8.82	16.33
26/01/2020 07:54:33	26012020	260120	075433	182.300	12.678198	-57.242683	182.220	-0.100	-0.230	1.310	182.300	-1.600	1.700																			1580025273.0	9.22	17.08
26/01/2020 07:54:34	26012020	260120	075434	182.000	12.678153	-57.242688	181.920	-0.110	-0.470	1.510	182.000	-1.800	1.900																			1580025274.0	9.54	17.67
26/01/2020 07:54:35	26012020	260120	075435	181.750	12.678110	-57.242693	181.720	-0.140	-0.370	1.540	181.750	-1.800	2.000																			1580025275.0	9.44	17.48
26/01/2020 07:54:36	26012020	260120	075436	181.730	12.678068	-57.242698	181.740	-0.160	0.050	1.190	181.730	-1.300	1.600																			1580025276.0	9.00	16.67
26/01/2020 07:54:37	26012020	260120	075437	181.930	12.678028	-57.242702	181.940	-0.130	0.370	0.610	181.930	-1.000	1.100																			1580025277.0	8.67	16.06
26/01/2020 07:54:38	26012020	260120	075438	182.180	12.677987	-57.242702	182.180	-0.060	0.230	0.120	182.180	-1.100	0.600																			1580025278.0	8.84	16.37
26/01/2020 07:54:39	26012020	260120	075439	182.330	12.677943	-57.242703	182.310	0.050	-0.310	-0.050	182.330	-1.600	0.400																			1580025279.0	9.27	17.17
26/01/2020 07:54:40	26012020	260120	075440	182.410	12.677900	-57.242707	182.390	0.160	-0.750	0.080	182.410	-2.100	0.500																			1580025280.0	9.60	17.78
26/01/2020 07:54:41	26012020	260120	075441	182.510	12.677857	-57.242710	182.500	0.070	-0.600	0.450	182.510	-2.000	0.800																			1580025281.0	9.31	17.24
26/01/2020 07:54:42	26012020	260120	075442	182.590	12.677817	-57.242715	182.570	-0.190	-0.100	0.880	182.590	-1.500	1.300																			1580025282.0	8.69	16.09
26/01/2020 07:54:43	26012020	260120	075443	182.540	12.677777	-57.242722	182.490	-0.290	0.170	1.170	182.540	-1.200	1.600																			1580025283.0	8.54	15.82
26/01/2020 07:54:44	26012020	260120	075444	182.330	12.677735	-57.242727	182.280	-0.050	0.000	1.260	182.330	-1.300	1.700																			1580025284.0	8.94	16.56
26/01/2020 07:54:45	26012020	260120	075445	182.140	12.677692	-57.242730	182.100	0.260	-0.300	1.170	182.140	-1.600	1.600																			1580025285.0	9.38	17.37
26/01/2020 07:54:46	26012020	260120	075446	182.020	12.677648	-57.242732	181.980	0.310	-0.410	1.030	182.020	-1.800	1.500																			1580025286.0	9.37	17.35
26/01/2020 07:54:47	26012020	260120	075447	182.030	12.677607	-57.242735	182.030	0.070	-0.250	0.910	182.030	-1.600	1.300																			1580025287.0	9.05	16.76
26/01/2020 07:54:48	26012020	260120	075448	182.120	12.677567	-57.242738	182.100	-0.140	-0.060	0.860	182.120	-1.400	1.300																			1580025288.0	8.78	16.26
26/01/2020 07:54:49	26012020	260120	075449	182.150	12.677525	-57.242743	182.130	-0.080	-0.060	0.800	182.150	-1.400	1.200																			1580025289.0	8.87	16.43
26/01/2020 07:54:50	26012020	260120	075450	182.230	12.677483	-57.242747	182.220	0.070	-0.180	0.720	182.230	-1.500	1.100																			1580025290.0	9.12	16.89
26/01/2020 07:54:51	26012020	260120	075451	182.390	12.677440	-57.242750	182.390	0.060	-0.300	0.740	182.390	-1.700	1.100																			1580025291.0	9.17	16.98
26/01/2020 07:54:52	26012020	260120	075452	182.540	12.677398	-57.242755	182.520	-0.060	-0.340	0.810	182.540	-1.700	1.200																			1580025292.0	9.08	16.82
26/01/2020 07:54:53	26012020	260120	075453	182.540	12.677357	-57.242760	182.480	-0.090	-0.340	0.910	182.540	-1.700	1.300																			1580025293.0	9.00	16.67
26/01/2020 07:54:54	26012020	260120	075454	182.380	12.677315	-57.242765	182.310	0.010	-0.360	1.070	182.380	-1.700	1.500																			1580025294.0	9.08	16.82
26/01/2020 07:54:55	26012020	260120	075455	182.200	12.677272	-57.242768	182.140	0.060	-0.290	1.230	182.200	-1.700	1.600																			1580025295.0	9.17	16.98
26/01/2020 07:54:56	26012020	260120	075456	182.140	12.677230	-57.242772	182.120	-0.060	-0.090	1.250	182.140	-1.500	1.700																			1580025296.0	9.06	16.78
26/01/2020 07:54:57	26012020	260120	075457	182.210	12.677188	-57.242775	182.210	-0.250	0.110	1.200	182.210	-1.300	1.600																			1580025297.0	8.91	16.50
26/01/2020 07:54:58	26012020	260120	075458	182.320	12.677148	-57.242780	182.320	-0.310	0.140	1.150	182.320	-1.200	1.600																			1580025298.0	8.90	16.48
26/01/2020 07:54:59	26012020	260120	075459	182.350	12.677107	-57.242783	182.340	-0.110	-0.070	1.000	182.350	-1.400	1.400																			1580025299.0	9.05	16.76
26/01/2020 07:55:00	26012020	260120	075500	182.260	12.677063	-57.242787	182.210	0.240	-0.440	0.830	182.260	-1.800	1.300	1013.70	25.60	25.60	19.90	19.90	-1.00	70.00	70.00	404.00	25.20	308.00	8.00	95.00	6.30	14	3299.00	27.40	27.40	1580025300.0	9.29	17.21
26/01/2020 07:55:01	26012020	260120	075501	182.170	12.677020	-57.242790	182.150	0.420	-0.570	0.630	182.170	-1.900	1.100																			1580025301.0	9.38	17.37
26/01/2020 07:55:02	26012020	260120	075502	182.170	12.676978	-57.242792	182.150	0.290	-0.340	0.510	182.170	-1.700	0.900																			1580025302.0	9.00	16.67
26/01/2020 07:55:03	26012020	260120	075503	182.210	12.676937	-57.242795	182.200	-0.000	-0.020	0.540	182.210	-1.400	0.900																			1580025303.0	8.69	16.09
26/01/2020 07:55:04	26012020	260120	075504	182.270	12.676897	-57.242798	182.250	-0.200	0.080	0.650	182.270	-1.300	1.100																			1580025304.0	8.73	16.17
26/01/2020 07:55:05	26012020	260120	075505	182.220	12.676855	-57.242803	182.160	-0.150	-0.120	0.870	182.200	-1.500	1.300																			1580025305.0	9.05	16.76
26/01/2020 07:55:06	26012020	260120	075506	182.040	12.676812	-57.242808	182.020	0.040	-0.350	1.060	182.040	-1.700	1.500																			1580025306.0	9.39	17.39
26/01/2020 07:55:07	26012020	260120	075507	181.950	12.676768	-57.242813	181.940	0.150	-0.270	1.060	181.950	-1.700	1.500																			1580025307.0	9.28	17.19
26/01/2020 07:55:08	26012020	260120	075508	181.960	12.676728	-57.242815	181.960	0.080	0.000	0.890	181.960	-1.400	1.300																			1580025308.0	8.87	16.43
26/01/2020 07:55:09	26012020	260120	075509	182.010	12.676687	-57.242818	182.000	-0.080	0.130	0.690	182.010	-1.200	1.100																			1580025309.0	8.68	16.08
26/01/2020 07:55:10	26012020	260120	075510	181.970	12.676647	-57.242820	181.940	-0.150	-0.110	0.650	181.970	-1.400	1.100																			1580025310.0	8.89	16.46
26/01/2020 07:55:11	26012020	260120	075511	181.850	12.676603	-57.242825	181.820	-0.080	-0.520	0.760	181.850	-1.900	1.200																			1580025311.0	9.26	17.15
26/01/2020 07:55:12	26012020	260120	075512	181.760	12.676560	-57.242828	181.730	0.010	-0.750	0.950	181.760	-2.100	1.400																			1580025312.0	9.36	17.33
26/01/2020 07:55:13	26012020	260120	075513	181.660	12.676517	-57.242833	181.630	0.060	-0.720	1.180	181.660	-2.100	1.600																			1580025313.0	9.20	17.04
26/01/2020 07:55:14	26012020	260120	075514	181.500	12.676475	-57.242838	181.470	0.050	-0.510	1.320	181.500	-1.900	1.700																			1580025314.0	9.07	16.80
26/01/2020 07:55:15	26012020	260120	075515	181.370	12.676433	-57.242843	181.380	-0.050	-0.170	1.240	181.370	-1.600	1.700																			1580025315.0	9.02	16.71
26/01/2020 07:55:16	26012020	260120	075516	181.460	12.676392	-57.242847	181.490	-0.170	0.270	0.840	181.460	-1.100	1.300																			1580025316.0	8.92	16.52
26/01/2020 07:55:17	26012020	260120	075517	181.630	12.676352	-57.242847	181.690	-0.210	0.570	0.410	181.660	-0.800	0.900																			1580025317.0	8.76	16.22
26/01/2020 07:55:18	26012020	260120	075518	181.720	12.676310	-57.242848	181.710	-0.080	0.350	0.310	181.720	-1.000	0.700																			1580025318.0	8.94	16.56
26/01/2020 07:55:19	26012020	260120	075519	181.610	12.676267	-57.242850	181.560	0.140	-0.210	0.530	181.570	-1.500	0.900																			1580025319.0	9.45	17.50
26/01/2020 07:55:20	26012020	260120	075520	181.420	12.676222	-57.242853	181.420	0.220	-0.510	0.860	181.420	-1.900	1.300																			1580025320.0	9.60	17.78
26/01/2020 07:55:21	26012020	260120	075521	181.360	12.676180	-57.242858	181.370	0.090	-0.350	1.160	181.360	-1.700	1.600																			1580025321.0	9.11	16.87
26/01/2020 07:55:22	26012020	260120	075522	181.340	12.676140	-57.242863	181.350	-0.080	-0.060	1.300	181.340	-1.400	1.700																			1580025322.0	8.62	15.96
26/01/2020 07:55:23	26012020	260120	075523	181.240	12.676100	-57.242868	181.240	-0.090	-0.070	1.320	181.240	-1.400	1.700																			1580025323.0	8.60	15.93
26/01/2020 07:55:24	26012020	260120	075524	181.040	12.676058	-57.242872	181.030	0.070	-0.420	1.270	181.040	-1.800	1.700																			1580025324.0	9.04	16.74
26/01/2020 07:55:25	26012020	260120	075525	180.910	12.676015	-57.242873	180.930	0.210	-0.690	1.080	180.910	-2.000	1.500																			1580025325.0	9.36	17.33
26/01/2020 07:55:26	26012020	260120	075526	181.010	12.675972	-57.242875	181.050	0.150	-0.550	0.800	181.010	-1.900	1.200																			1580025326.0	9.17	16.98
26/01/2020 07:55:27	26012020	260120	075527	181.220	12.675932	-57.242878	181.250	-0.040	-0.260	0.620	181.220	-1.600	1.000																			1580025327.0	8.78	16.26
26/01/2020 07:55:28	26012020	260120	075528	181.330	12.675890	-57.242880	181.340	-0.150	-0.180	0.680	181.330	-1.500	1.100																			1580025328.0	8.84	16.37
26/01/2020 07:55:29	26012020	260120	075529	181.360	12.675847	-57.242885	181.380	-0.120	-0.240	0.920	181.360	-1.600	1.300																			1580025329.0	9.21	17.06
26/01/2020 07:55:30	26012020	260120	075530	181.440	12.675805	-57.242888	181.480	-0.050	-0.120	1.040	181.440	-1.500	1.500																			1580025330.0	9.31	17.24
26/01/2020 07:55:31	26012020	260120	075531	181.620	12.675763	-57.242893	181.740	-0.080	0.230	0.970	181.680	-1.200	1.400																			1580025331.0	9.01	16.69
26/01/2020 07:55:32	26012020	260120	075532	181.930	12.675722	-57.242895	181.970	-0.120	0.450	0.820	181.930	-0.900	1.200																			1580025332.0	8.70	16.11
26/01/2020 07:55:33	26012020	260120	075533	182.040	12.675682	-57.242898	182.040	-0.010	0.190	0.710	182.040	-1.100	1.100																			1580025333.0	8.86	16.41
26/01/2020 07:55:34	26012020	260120	075534	182.010	12.675638	-57.242900	182.010	0.260	-0.390	0.700	182.010	-1.700	1.100																			1580025334.0	9.35	17.32
26/01/2020 07:55:35	26012020	260120	075535	182.020	12.675593	-57.242903	182.030	0.370	-0.700	0.760	182.020	-2.100	1.200																			1580025335.0	9.50	17.59
26/01/2020 07:55:36	26012020	260120	075536	182.110	12.675552	-57.242905	182.140	0.150	-0.530	0.840	182.110	-1.900	1.300																			1580025336.0	9.02	16.71
26/01/2020 07:55:37	26012020	260120	075537	182.300	12.675512	-57.242908	182.340	-0.240	-0.190	0.840	182.300	-1.600	1.300																			1580025337.0	8.61	15.95
26/01/2020 07:55:38	26012020	260120	075538	182.570	12.675472	-57.242913	182.600	-0.440	-0.040	0.800	182.570	-1.400	1.200																			1580025338.0	8.59	15.91
26/01/2020 07:55:39	26012020	260120	075539	182.820	12.675430	-57.242918	182.850	-0.260	-0.210	0.780	182.820	-1.600	1.200																			1580025339.0	8.94	16.56
26/01/2020 07:55:40	26012020	260120	075540	183.080	12.675388	-57.242922	183.100	0.150	-0.450	0.660	183.080	-1.800	1.100																			1580025340.0	9.31	17.24
26/01/2020 07:55:41	26012020	260120	075541	183.350	12.675345	-57.242925	183.370	0.360	-0.480	0.590	183.350	-1.900	1.000																			1580025341.0	9.31	17.24
26/01/2020 07:55:42	26012020	260120	075542	183.560	12.675302	-57.242927	183.550	0.210	-0.250	0.710	183.560	-1.600	1.100																			1580025342.0	9.04	16.74
26/01/2020 07:55:43	26012020	260120	075543	183.630	12.675262	-57.242932	183.610	-0.120	-0.040	0.910	183.640	-1.400	1.300																			1580025343.0	8.84	16.37
26/01/2020 07:55:44	26012020	260120	075544	183.700	12.675220	-57.242937	183.680	-0.310	0.060	0.960	183.700	-1.300	1.400																			1580025344.0	8.97	16.61
26/01/2020 07:55:45	26012020	260120	075545	183.880	12.675178	-57.242942	183.900	-0.230	0.110	0.820	183.880	-1.300	1.300																			1580025345.0	9.08	16.82
26/01/2020 07:55:46	26012020	260120	075546	184.210	12.675137	-57.242947	184.240	-0.030	0.150	0.560	184.210	-1.200	1.000																			1580025346.0	9.01	16.69
26/01/2020 07:55:47	26012020	260120	075547	184.510	12.675095	-57.242950	184.510	0.180	0.030	0.310	184.510	-1.300	0.700																			1580025347.0	8.94	16.56
26/01/2020 07:55:48	26012020	260120	075548	184.630	12.675053	-57.242953	184.610	0.350	-0.260	0.230	184.630	-1.600	0.600																			1580025348.0	9.07	16.80
26/01/2020 07:55:49	26012020	260120	075549	184.690	12.675010	-57.242957	184.690	0.400	-0.440	0.380	184.690	-1.800	0.800																			1580025349.0	9.18	17.00
26/01/2020 07:55:50	26012020	260120	075550	184.820	12.674970	-57.242962	184.830	0.240	-0.300	0.600	184.820	-1.700	1.000																			1580025350.0	8.93	16.54
26/01/2020 07:55:51	26012020	260120	075551	184.960	12.674930	-57.242967	184.950	0.020	-0.160	0.730	184.960	-1.500	1.100																			1580025351.0	8.64	16.00
26/01/2020 07:55:52	26012020	260120	075552	185.050	12.674888	-57.242972	185.050	-0.090	-0.320	0.780	185.050	-1.700	1.200																			1580025352.0	8.85	16.39
26/01/2020 07:55:53	26012020	260120	075553	185.300	12.674847	-57.242978	185.340	-0.090	-0.530	0.700	185.300	-1.900	1.100																			1580025353.0	9.25	17.13
26/01/2020 07:55:54	26012020	260120	075554	185.740	12.674803	-57.242983	185.810	-0.130	-0.460	0.450	185.740	-1.800	0.900																			1580025354.0	9.18	17.00
26/01/2020 07:55:55	26012020	260120	075555	186.080	12.674762	-57.242987	186.160	-0.240	-0.350	0.200	186.140	-1.700	0.600																			1580025355.0	8.89	16.46
26/01/2020 07:55:56	26012020	260120	075556	186.290	12.674720	-57.242992	186.250	-0.310	-0.440	0.230	186.290	-1.800	0.600																			1580025356.0	9.05	16.76
26/01/2020 07:55:57	26012020	260120	075557	186.240	12.674677	-57.242998	186.180	-0.280	-0.520	0.560	186.240	-1.900	0.900																			1580025357.0	9.36	17.33
26/01/2020 07:55:58	26012020	260120	075558	186.100	12.674635	-57.243005	186.070	-0.210	-0.280	0.940	186.100	-1.700	1.300																			1580025358.0	9.34	17.30
26/01/2020 07:55:59	26012020	260120	075559	186.090	12.674593	-57.243012	186.080	-0.170	0.240	1.070	186.090	-1.200	1.500																			1580025359.0	9.00	16.67
26/01/2020 07:56:00	26012020	260120	075600	186.140	12.674553	-57.243018	186.110	-0.130	0.580	0.950	186.140	-0.800	1.400	1013.70	25.60	25.60	19.90	19.90	-1.00	70.00	70.00	405.00	25.20	312.00	8.20	101.00	6.20	14	3223.00	27.40	27.40	1580025360.0	8.75	16.21
26/01/2020 07:56:01	26012020	260120	075601	186.160	12.674512	-57.243025	186.140	-0.010	0.510	0.760	186.160	-0.900	1.200																			1580025361.0	8.96	16.59
26/01/2020 07:56:02	26012020	260120	075602	186.260	12.674470	-57.243030	186.240	0.220	0.230	0.520	186.260	-1.100	1.000																			1580025362.0	9.20	17.04
26/01/2020 07:56:03	26012020	260120	075603	186.410	12.674427	-57.243035	186.370	0.490	-0.040	0.250	186.410	-1.400	0.700																			1580025363.0	9.16	16.96
26/01/2020 07:56:04	26012020	260120	075604	186.500	12.674385	-57.243040	186.460	0.640	-0.290	0.140	186.500	-1.600	0.600																			1580025364.0	9.01	16.69
26/01/2020 07:56:05	26012020	260120	075605	186.590	12.674343	-57.243045	186.570	0.550	-0.470	0.220	186.590	-1.800	0.600																			1580025365.0	8.97	16.61
26/01/2020 07:56:06	26012020	260120	075606	186.830	12.674303	-57.243052	186.840	0.250	-0.460	0.340	186.830	-1.800	0.700																			1580025366.0	8.84	16.37
26/01/2020 07:56:07	26012020	260120	075607	187.220	12.674263	-57.243058	187.260	-0.070	-0.430	0.500	187.220	-1.800	0.900																			1580025367.0	8.69	16.09
26/01/2020 07:56:08	26012020	260120	075608	187.560	12.674223	-57.243067	187.570	-0.200	-0.600	0.680	187.560	-1.900	1.100																			1580025368.0	8.81	16.32
26/01/2020 07:56:09	26012020	260120	075609	187.660	12.674182	-57.243075	187.620	-0.110	-0.880	0.840	187.660	-2.200	1.200																			1580025369.0	9.18	17.00
26/01/2020 07:56:10	26012020	260120	075610	187.630	12.674138	-57.243082	187.600	-0.040	-0.920	0.930	187.630	-2.300	1.300																			1580025370.0	9.40	17.41
26/01/2020 07:56:11	26012020	260120	075611	187.610	12.674095	-57.243087	187.590	-0.160	-0.590	0.920	187.610	-2.000	1.300																			1580025371.0	9.22	17.08
26/01/2020 07:56:12	26012020	260120	075612	187.540	12.674055	-57.243093	187.510	-0.420	-0.140	0.870	187.540	-1.500	1.300																			1580025372.0	8.99	16.65
26/01/2020 07:56:13	26012020	260120	075613	187.430	12.674013	-57.243100	187.400	-0.580	0.170	0.840	187.430	-1.200	1.300																			1580025373.0	9.08	16.82
26/01/2020 07:56:14	26012020	260120	075614	187.310	12.673970	-57.243107	187.260	-0.510	0.360	0.770	187.310	-1.000	1.200																			1580025374.0	9.25	17.13
26/01/2020 07:56:15	26012020	260120	075615	187.150	12.673927	-57.243115	187.090	-0.280	0.370	0.780	187.150	-1.000	1.200																			1580025375.0	9.34	17.30
26/01/2020 07:56:16	26012020	260120	075616	187.070	12.673885	-57.243122	187.020	-0.030	0.310	0.760	187.070	-1.100	1.200																			1580025376.0	9.42	17.45
26/01/2020 07:56:17	26012020	260120	075617	187.190	12.673842	-57.243130	187.170	0.150	0.330	0.650	187.190	-1.000	1.100																			1580025377.0	9.24	17.11
26/01/2020 07:56:18	26012020	260120	075618	187.440	12.673802	-57.243138	187.410	0.250	0.350	0.480	187.440	-1.000	0.900																			1580025378.0	8.90	16.48
26/01/2020 07:56:19	26012020	260120	075619	187.670	12.673762	-57.243145	187.630	0.390	0.150	0.300	187.670	-1.200	0.700																			1580025379.0	8.79	16.28
26/01/2020 07:56:20	26012020	260120	075620	187.840	12.673720	-57.243153	187.800	0.580	-0.230	0.180	187.840	-1.600	0.600																			1580025380.0	8.91	16.50
26/01/2020 07:56:21	26012020	260120	075621	187.940	12.673678	-57.243158	187.920	0.660	-0.550	0.070	187.960	-1.900	0.500																			1580025381.0	8.96	16.59
26/01/2020 07:56:22	26012020	260120	075622	188.030	12.673638	-57.243165	187.970	0.540	-0.780	0.030	188.030	-2.100	0.400																			1580025382.0	8.87	16.43
26/01/2020 07:56:23	26012020	260120	075623	188.040	12.673597	-57.243170	188.000	0.290	-0.910	0.170	188.040	-2.300	0.600																			1580025383.0	8.90	16.48
26/01/2020 07:56:24	26012020	260120	075624	188.030	12.673557	-57.243178	187.980	0.020	-0.910	0.480	188.030	-2.300	0.900																			1580025384.0	8.95	16.58
26/01/2020 07:56:25	26012020	260120	075625	187.850	12.673515	-57.243187	187.780	-0.190	-0.870	0.910	187.850	-2.200	1.300																			1580025385.0	9.06	16.78
26/01/2020 07:56:26	26012020	260120	075626	187.530	12.673473	-57.243195	187.460	-0.340	-0.770	1.370	187.530	-2.200	1.700																			1580025386.0	9.32	17.26
26/01/2020 07:56:27	26012020	260120	075627	187.260	12.673430	-57.243205	187.220	-0.500	-0.400	1.630	187.260	-1.800	2.000																			1580025387.0	9.41	17.43
26/01/2020 07:56:28	26012020	260120	075628	187.110	12.673388	-57.243213	187.080	-0.630	0.150	1.600	187.110	-1.300	2.000																			1580025388.0	9.20	17.04
26/01/2020 07:56:29	26012020	260120	075629	187.050	12.673347	-57.243222	187.010	-0.640	0.520	1.320	187.050	-0.900	1.800																			1580025389.0	9.13	16.91
26/01/2020 07:56:30	26012020	260120	075630	187.090	12.673303	-57.243228	187.060	-0.480	0.600	0.950	187.090	-0.800	1.400																			1580025390.0	9.29	17.21
26/01/2020 07:56:31	26012020	260120	075631	187.150	12.673260	-57.243235	187.110	-0.210	0.550	0.640	187.150	-0.800	1.100																			1580025391.0	9.36	17.33
26/01/2020 07:56:32	26012020	260120	075632	187.190	12.673218	-57.243242	187.110	0.090	0.440	0.420	187.190	-0.900	0.800																			1580025392.0	9.21	17.06
26/01/2020 07:56:33	26012020	260120	075633	187.160	12.673177	-57.243248	187.040	0.340	0.210	0.440	187.150	-1.200	0.800																			1580025393.0	9.06	16.78
26/01/2020 07:56:34	26012020	260120	075634	187.060	12.673135	-57.243257	186.960	0.490	-0.090	0.620	187.060	-1.400	1.000																			1580025394.0	9.02	16.71
26/01/2020 07:56:35	26012020	260120	075635	187.010	12.673095	-57.243265	186.920	0.560	-0.370	0.760	187.010	-1.700	1.200																			1580025395.0	8.97	16.61
26/01/2020 07:56:36	26012020	260120	075636	187.010	12.673053	-57.243272	186.940	0.580	-0.610	0.780	187.010	-2.000	1.200																			1580025396.0	8.90	16.48
26/01/2020 07:56:37	26012020	260120	075637	187.020	12.673013	-57.243278	186.960	0.510	-0.780	0.740	187.020	-2.200	1.200																			1580025397.0	8.91	16.50
26/01/2020 07:56:38	26012020	260120	075638	187.050	12.672972	-57.243285	187.000	0.270	-0.840	0.770	187.050	-2.200	1.200																			1580025398.0	8.93	16.54
26/01/2020 07:56:39	26012020	260120	075639	187.040	12.672930	-57.243292	186.980	-0.070	-0.790	0.830	187.040	-2.200	1.200																			1580025399.0	8.96	16.59
26/01/2020 07:56:40	26012020	260120	075640	186.980	12.672888	-57.243298	186.920	-0.310	-0.680	0.840	186.980	-2.100	1.300																			1580025400.0	9.05	16.76
26/01/2020 07:56:41	26012020	260120	075641	186.970	12.672847	-57.243307	186.930	-0.370	-0.450	0.720	186.970	-1.900	1.100																			1580025401.0	9.21	17.06
26/01/2020 07:56:42	26012020	260120	075642	187.050	12.672805	-57.243313	187.020	-0.330	-0.090	0.560	187.050	-1.500	1.000																			1580025402.0	9.16	16.96
26/01/2020 07:56:43	26012020	260120	075643	187.130	12.672763	-57.243318	187.070	-0.310	0.190	0.450	187.130	-1.200	0.900																			1580025403.0	9.12	16.89
26/01/2020 07:56:44	26012020	260120	075644	187.100	12.672720	-57.243325	187.010	-0.360	0.240	0.510	187.100	-1.100	0.900																			1580025404.0	9.25	17.13
26/01/2020 07:56:45	26012020	260120	075645	186.980	12.672677	-57.243333	186.830	-0.380	0.180	0.730	186.940	-1.200	1.100																			1580025405.0	9.43	17.46
26/01/2020 07:56:46	26012020	260120	075646	186.720	12.672635	-57.243342	186.610	-0.230	0.200	0.960	186.720	-1.200	1.400																			1580025406.0	9.37	17.35
26/01/2020 07:56:47	26012020	260120	075647	186.540	12.672593	-57.243350	186.440	0.030	0.290	0.960	186.540	-1.100	1.400																			1580025407.0	9.15	16.95
26/01/2020 07:56:48	26012020	260120	075648	186.440	12.672552	-57.243357	186.340	0.250	0.240	0.850	186.440	-1.100	1.300																			1580025408.0	8.95	16.58
26/01/2020 07:56:49	26012020	260120	075649	186.270	12.672510	-57.243363	186.160	0.360	-0.060	0.820	186.270	-1.400	1.200																			1580025409.0	9.00	16.67
26/01/2020 07:56:50	26012020	260120	075650	186.060	12.672468	-57.243370	185.950	0.390	-0.390	0.810	186.060	-1.800	1.200																			1580025410.0	9.14	16.93
26/01/2020 07:56:51	26012020	260120	075651	185.930	12.672427	-57.243378	185.840	0.330	-0.500	0.790	185.930	-1.900	1.200																			1580025411.0	9.04	16.74
26/01/2020 07:56:52	26012020	260120	075652	185.900	12.672387	-57.243385	185.840	0.220	-0.480	0.800	185.900	-1.900	1.200																			1580025412.0	8.80	16.30
26/01/2020 07:56:53	26012020	260120	075653	185.910	12.672347	-57.243393	185.840	0.170	-0.600	0.800	185.910	-2.000	1.200																			1580025413.0	8.84	16.37
26/01/2020 07:56:54	26012020	260120	075654	185.940	12.672303	-57.243400	185.870	0.200	-0.780	0.710	185.940	-2.100	1.100																			1580025414.0	9.15	16.95
26/01/2020 07:56:55	26012020	260120	075655	186.040	12.672262	-57.243407	185.990	0.140	-0.690	0.610	186.040	-2.100	1.000																			1580025415.0	9.23	17.09
26/01/2020 07:56:56	26012020	260120	075656	186.210	12.672220	-57.243412	186.160	-0.120	-0.420	0.620	186.210	-1.800	1.000																			1580025416.0	9.05	16.76
26/01/2020 07:56:57	26012020	260120	075657	186.300	12.672178	-57.243418	186.260	-0.470	-0.220	0.710	186.320	-1.600	1.100																			1580025417.0	9.06	16.78
26/01/2020 07:56:58	26012020	260120	075658	186.370	12.672135	-57.243425	186.310	-0.700	-0.110	0.870	186.370	-1.500	1.300																			1580025418.0	9.27	17.17
26/01/2020 07:56:59	26012020	260120	075659	186.380	12.672093	-57.243433	186.280	-0.640	0.040	1.060	186.360	-1.400	1.500																			1580025419.0	9.37	17.35
26/01/2020 07:57:00	26012020	260120	075700	186.190	12.672050	-57.243442	186.080	-0.320	0.220	1.190	186.190	-1.200	1.600	1013.70	25.60	25.70	19.80	19.90	-1.00	70.00	70.00	407.00	25.20	309.00	8.30	101.00	6.50	14	3269.00	27.40	27.40	1580025420.0	9.26	17.15
26/01/2020 07:57:01	26012020	260120	075701	185.850	12.672008	-57.243447	185.720	0.030	0.260	1.310	185.850	-1.100	1.700																			1580025421.0	9.22	17.08
26/01/2020 07:57:02	26012020	260120	075702	185.480	12.671965	-57.243453	185.380	0.220	0.220	1.420	185.480	-1.200	1.800																			1580025422.0	9.28	17.19
26/01/2020 07:57:03	26012020	260120	075703	185.270	12.671923	-57.243458	185.210	0.210	0.220	1.460	185.270	-1.200	1.900																			1580025423.0	9.15	16.95
26/01/2020 07:57:04	26012020	260120	075704	185.120	12.671882	-57.243467	185.030	0.160	0.160	1.520	185.120	-1.200	1.900																			1580025424.0	8.94	16.56
26/01/2020 07:57:05	26012020	260120	075705	184.870	12.671842	-57.243473	184.790	0.240	-0.020	1.560	184.870	-1.400	2.000																			1580025425.0	8.93	16.54
26/01/2020 07:57:06	26012020	260120	075706	184.730	12.671800	-57.243480	184.690	0.390	-0.270	1.420	184.730	-1.600	1.900																			1580025426.0	8.99	16.65
26/01/2020 07:57:07	26012020	260120	075707	184.820	12.671758	-57.243487	184.810	0.460	-0.480	1.080	184.820	-1.900	1.500																			1580025427.0	8.98	16.63
26/01/2020 07:57:08	26012020	260120	075708	185.020	12.671718	-57.243493	185.000	0.390	-0.620	0.740	185.020	-2.000	1.200																			1580025428.0	8.88	16.45
26/01/2020 07:57:09	26012020	260120	075709	185.140	12.671677	-57.243498	185.090	0.250	-0.790	0.520	185.140	-2.100	0.900																			1580025429.0	8.88	16.45
26/01/2020 07:57:10	26012020	260120	075710	185.210	12.671635	-57.243503	185.160	0.080	-0.910	0.420	185.210	-2.300	0.800																			1580025430.0	9.10	16.85
26/01/2020 07:57:11	26012020	260120	075711	185.310	12.671592	-57.243508	185.280	-0.170	-0.830	0.480	185.310	-2.200	0.900																			1580025431.0	9.20	17.04
26/01/2020 07:57:12	26012020	260120	075712	185.410	12.671550	-57.243515	185.370	-0.450	-0.510	0.620	185.410	-1.900	1.000																			1580025432.0	9.13	16.91
26/01/2020 07:57:13	26012020	260120	075713	185.490	12.671508	-57.243522	185.450	-0.630	-0.120	0.710	185.490	-1.500	1.100																			1580025433.0	9.05	16.76
26/01/2020 07:57:14	26012020	260120	075714	185.490	12.671467	-57.243527	185.430	-0.620	0.110	0.850	185.490	-1.300	1.300																			1580025434.0	9.12	16.89
26/01/2020 07:57:15	26012020	260120	075715	185.290	12.671423	-57.243532	185.190	-0.450	0.080	1.140	185.290	-1.300	1.500																			1580025435.0	9.37	17.35
26/01/2020 07:57:16	26012020	260120	075716	184.900	12.671378	-57.243538	184.810	-0.250	0.010	1.470	184.900	-1.400	1.900																			1580025436.0	9.62	17.82
26/01/2020 07:57:17	26012020	260120	075717	184.560	12.671335	-57.243545	184.490	-0.100	0.190	1.590	184.560	-1.200	2.000																			1580025437.0	9.49	17.58
26/01/2020 07:57:18	26012020	260120	075718	184.340	12.671293	-57.243552	184.310	-0.010	0.540	1.500	184.340	-0.900	1.900																			1580025438.0	9.02	16.71
26/01/2020 07:57:19	26012020	260120	075719	184.190	12.671253	-57.243558	184.150	0.120	0.640	1.330	184.190	-0.700	1.800																			1580025439.0	8.74	16.19
26/01/2020 07:57:20	26012020	260120	075720	184.100	12.671212	-57.243563	184.090	0.380	0.320	1.000	184.100	-1.000	1.400																			1580025440.0	8.93	16.54
26/01/2020 07:57:21	26012020	260120	075721	184.140	12.671170	-57.243567	184.160	0.620	-0.180	0.690	184.140	-1.500	1.100																			1580025441.0	9.17	16.98
26/01/2020 07:57:22	26012020	260120	075722	184.280	12.671128	-57.243572	184.310	0.630	-0.580	0.560	184.280	-1.900	1.000																			1580025442.0	9.12	16.89
26/01/2020 07:57:23	26012020	260120	075723	184.460	12.671087	-57.243577	184.480	0.390	-0.750	0.600	184.460	-2.100	1.000																			1580025443.0	8.91	16.50
26/01/2020 07:57:24	26012020	260120	075724	184.610	12.671047	-57.243583	184.610	0.110	-0.770	0.760	184.610	-2.100	1.200																			1580025444.0	8.74	16.19
26/01/2020 07:57:25	26012020	260120	075725	184.690	12.671007	-57.243592	184.670	-0.030	-0.750	0.960	184.690	-2.100	1.400																			1580025445.0	8.76	16.22
26/01/2020 07:57:26	26012020	260120	075726	184.580	12.670965	-57.243597	184.530	-0.020	-0.790	1.160	184.580	-2.200	1.600																			1580025446.0	8.97	16.61
26/01/2020 07:57:27	26012020	260120	075727	184.380	12.670922	-57.243603	184.340	-0.030	-0.790	1.300	184.380	-2.200	1.700																			1580025447.0	9.27	17.17
26/01/2020 07:57:28	26012020	260120	075728	184.240	12.670880	-57.243608	184.210	-0.210	-0.530	1.410	184.240	-1.900	1.800																			1580025448.0	9.33	17.28
26/01/2020 07:57:29	26012020	260120	075729	184.130	12.670837	-57.243615	184.110	-0.470	-0.070	1.350	184.130	-1.500	1.800																			1580025449.0	9.15	16.95
26/01/2020 07:57:30	26012020	260120	075730	184.090	12.670795	-57.243620	184.080	-0.610	0.310	1.120	184.090	-1.100	1.600																			1580025450.0	9.04	16.74
26/01/2020 07:57:31	26012020	260120	075731	184.190	12.670753	-57.243623	184.210	-0.510	0.440	0.720	184.190	-0.900	1.200																			1580025451.0	9.18	17.00
26/01/2020 07:57:32	26012020	260120	075732	184.420	12.670710	-57.243627	184.440	-0.270	0.360	0.380	184.420	-1.000	0.800																			1580025452.0	9.35	17.32
26/01/2020 07:57:33	26012020	260120	075733	184.630	12.670667	-57.243632	184.630	-0.050	0.180	0.320	184.630	-1.200	0.700																			1580025453.0	9.34	17.30
26/01/2020 07:57:34	26012020	260120	075734	184.670	12.670623	-57.243635	184.640	0.100	-0.030	0.510	184.670	-1.400	0.900																			1580025454.0	9.24	17.11
26/01/2020 07:57:35	26012020	260120	075735	184.570	12.670582	-57.243642	184.510	0.190	-0.230	0.890	184.540	-1.600	1.300																			1580025455.0	9.22	17.08
26/01/2020 07:57:36	26012020	260120	075736	184.450	12.670540	-57.243648	184.430	0.220	-0.220	1.210	184.450	-1.600	1.600																			1580025456.0	9.12	16.89
26/01/2020 07:57:37	26012020	260120	075737	184.450	12.670498	-57.243655	184.440	0.240	-0.050	1.350	184.450	-1.400	1.800																			1580025457.0	8.80	16.30
26/01/2020 07:57:38	26012020	260120	075738	184.460	12.670458	-57.243662	184.450	0.290	-0.040	1.190	184.460	-1.400	1.600																			1580025458.0	8.67	16.06
26/01/2020 07:57:39	26012020	260120	075739	184.430	12.670418	-57.243665	184.420	0.320	-0.270	0.940	184.430	-1.600	1.400																			1580025459.0	8.89	16.46
26/01/2020 07:57:40	26012020	260120	075740	184.380	12.670375	-57.243670	184.350	0.270	-0.550	0.790	184.380	-1.900	1.200																			1580025460.0	9.10	16.85
26/01/2020 07:57:41	26012020	260120	075741	184.270	12.670333	-57.243675	184.230	0.160	-0.740	0.790	184.270	-2.100	1.200																			1580025461.0	9.14	16.93
26/01/2020 07:57:42	26012020	260120	075742	184.120	12.670292	-57.243682	184.090	0.040	-0.780	0.950	184.120	-2.200	1.400																			1580025462.0	9.17	16.98
26/01/2020 07:57:43	26012020	260120	075743	184.100	12.670250	-57.243688	184.140	-0.080	-0.560	1.090	184.100	-2.000	1.500																			1580025463.0	9.15	16.95
26/01/2020 07:57:44	26012020	260120	075744	184.330	12.670208	-57.243695	184.390	-0.240	-0.170	1.040	184.330	-1.600	1.500																			1580025464.0	8.96	16.59
26/01/2020 07:57:45	26012020	260120	075745	184.580	12.670167	-57.243700	184.600	-0.340	0.080	0.860	184.580	-1.300	1.300																			1580025465.0	8.90	16.48
26/01/2020 07:57:46	26012020	260120	075746	184.710	12.670125	-57.243705	184.710	-0.320	0.060	0.750	184.710	-1.300	1.200																			1580025466.0	9.14	16.93
26/01/2020 07:57:47	26012020	260120	075747	184.810	12.670082	-57.243710	184.800	-0.200	-0.040	0.640	184.810	-1.400	1.100																			1580025467.0	9.39	17.39
26/01/2020 07:57:48	26012020	260120	075748	184.930	12.670038	-57.243713	184.920	-0.100	-0.000	0.510	184.930	-1.400	0.900																			1580025468.0	9.31	17.24
26/01/2020 07:57:49	26012020	260120	075749	184.970	12.669997	-57.243717	184.920	-0.030	0.020	0.490	184.960	-1.300	0.900																			1580025469.0	9.09	16.83
26/01/2020 07:57:50	26012020	260120	075750	184.900	12.669953	-57.243722	184.860	0.050	-0.080	0.540	184.900	-1.400	1.000																			1580025470.0	9.15	16.95
26/01/2020 07:57:51	26012020	260120	075751	184.930	12.669912	-57.243727	184.910	0.080	-0.160	0.650	184.930	-1.500	1.100																			1580025471.0	9.22	17.08
26/01/2020 07:57:52	26012020	260120	075752	185.040	12.669870	-57.243732	185.010	0.030	-0.150	0.830	185.040	-1.500	1.200																			1580025472.0	9.06	16.78
26/01/2020 07:57:53	26012020	260120	075753	185.010	12.669828	-57.243738	184.940	-0.010	-0.190	1.120	185.010	-1.600	1.500																			1580025473.0	8.93	16.54
26/01/2020 07:57:54	26012020	260120	075754	184.730	12.669787	-57.243747	184.640	0.060	-0.380	1.450	184.730	-1.700	1.800																			1580025474.0	9.09	16.83
26/01/2020 07:57:55	26012020	260120	075755	184.390	12.669745	-57.243753	184.320	0.180	-0.470	1.600	184.390	-1.800	2.000																			1580025475.0	9.29	17.21
26/01/2020 07:57:56	26012020	260120	075756	184.210	12.669702	-57.243760	184.180	0.200	-0.310	1.460	184.210	-1.700	1.900																			1580025476.0	9.13	16.91
26/01/2020 07:57:57	26012020	260120	075757	184.250	12.669662	-57.243765	184.240	0.080	-0.070	1.140	184.250	-1.500	1.600																			1580025477.0	8.87	16.43
26/01/2020 07:57:58	26012020	260120	075758	184.410	12.669620	-57.243770	184.420	-0.070	0.030	0.810	184.410	-1.400	1.200																			1580025478.0	8.85	16.39
26/01/2020 07:57:59	26012020	260120	075759	184.620	12.669578	-57.243775	184.610	-0.140	-0.110	0.550	184.620	-1.500	1.000																			1580025479.0	9.03	16.72
26/01/2020 07:58:00	26012020	260120	075800	184.770	12.669537	-57.243780	184.760	-0.100	-0.400	0.450	184.770	-1.800	0.900	1013.70	25.60	25.70	19.70	19.80	-1.00	70.00	70.00	409.00	25.20	308.00	8.20	98.00	6.50	14	3263.00	27.40	27.40	1580025480.0	9.30	17.22
26/01/2020 07:58:01	26012020	260120	075801	184.940	12.669493	-57.243787	184.930	-0.020	-0.540	0.470	184.940	-1.900	0.900																			1580025481.0	9.41	17.43
26/01/2020 07:58:02	26012020	260120	075802	185.160	12.669450	-57.243792	185.170	0.020	-0.320	0.480	185.160	-1.700	0.900																			1580025482.0	9.15	16.95
26/01/2020 07:58:03	26012020	260120	075803	185.410	12.669410	-57.243797	185.410	-0.010	-0.020	0.460	185.410	-1.400	0.900																			1580025483.0	8.80	16.30
26/01/2020 07:58:04	26012020	260120	075804	185.550	12.669368	-57.243800	185.510	-0.060	-0.020	0.620	185.550	-1.400	1.000																			1580025484.0	8.87	16.43
26/01/2020 07:58:05	26012020	260120	075805	185.510	12.669327	-57.243807	185.440	-0.040	-0.260	0.910	185.510	-1.600	1.300																			1580025485.0	9.23	17.09
26/01/2020 07:58:06	26012020	260120	075806	185.410	12.669283	-57.243812	185.350	0.020	-0.380	1.140	185.410	-1.800	1.500																			1580025486.0	9.44	17.48
26/01/2020 07:58:07	26012020	260120	075807	185.380	12.669240	-57.243818	185.330	0.020	-0.200	1.230	185.380	-1.600	1.600																			1580025487.0	9.20	17.04
26/01/2020 07:58:08	26012020	260120	075808	185.340	12.669198	-57.243823	185.260	-0.040	-0.010	1.210	185.340	-1.400	1.600																			1580025488.0	8.90	16.48
26/01/2020 07:58:09	26012020	260120	075809	185.200	12.669158	-57.243828	185.110	-0.040	-0.060	1.140	185.200	-1.400	1.600																			1580025489.0	9.01	16.69
26/01/2020 07:58:10	26012020	260120	075810	185.020	12.669115	-57.243835	184.930	0.070	-0.170	1.030	185.020	-1.600	1.500																			1580025490.0	9.26	17.15
26/01/2020 07:58:11	26012020	260120	075811	184.910	12.669072	-57.243840	184.840	0.150	-0.090	0.870	184.910	-1.500	1.300																			1580025491.0	9.19	17.02
26/01/2020 07:58:12	26012020	260120	075812	184.910	12.669032	-57.243845	184.840	0.100	0.080	0.630	184.910	-1.300	1.100																			1580025492.0	8.92	16.52
26/01/2020 07:58:13	26012020	260120	075813	184.940	12.668990	-57.243850	184.880	-0.020	0.040	0.480	184.950	-1.300	0.900																			1580025493.0	8.84	16.37
26/01/2020 07:58:14	26012020	260120	075814	184.970	12.668948	-57.243858	184.910	-0.010	-0.250	0.480	184.970	-1.600	0.900																			1580025494.0	9.10	16.85
26/01/2020 07:58:15	26012020	260120	075815	185.010	12.668907	-57.243865	184.970	0.120	-0.530	0.470	185.010	-1.900	0.900																			1580025495.0	9.29	17.21
26/01/2020 07:58:16	26012020	260120	075816	185.120	12.668863	-57.243870	185.080	0.180	-0.710	0.520	185.120	-2.100	0.900																			1580025496.0	9.26	17.15
26/01/2020 07:58:17	26012020	260120	075817	185.270	12.668822	-57.243877	185.240	0.050	-0.740	0.710	185.270	-2.100	1.100																			1580025497.0	9.22	17.08
26/01/2020 07:58:18	26012020	260120	075818	185.410	12.668778	-57.243883	185.380	-0.250	-0.530	0.880	185.410	-1.900	1.300																			1580025498.0	9.13	16.91
26/01/2020 07:58:19	26012020	260120	075819	185.510	12.668738	-57.243890	185.460	-0.480	-0.210	1.030	185.510	-1.600	1.400																			1580025499.0	8.97	16.61
26/01/2020 07:58:20	26012020	260120	075820	185.530	12.668697	-57.243897	185.490	-0.450	-0.000	1.120	185.530	-1.400	1.500																			1580025500.0	9.02	16.71
26/01/2020 07:58:21	26012020	260120	075821	185.590	12.668653	-57.243902	185.550	-0.150	0.100	0.960	185.590	-1.300	1.400																			1580025501.0	9.21	17.06
26/01/2020 07:58:22	26012020	260120	075822	185.640	12.668610	-57.243905	185.580	0.180	0.120	0.710	185.640	-1.300	1.100																			1580025502.0	9.29	17.21
26/01/2020 07:58:23	26012020	260120	075823	185.640	12.668567	-57.243908	185.570	0.280	0.120	0.650	185.640	-1.300	1.100																			1580025503.0	9.32	17.26
26/01/2020 07:58:24	26012020	260120	075824	185.630	12.668525	-57.243912	185.570	0.120	0.230	0.810	185.630	-1.200	1.200																			1580025504.0	9.13	16.91
26/01/2020 07:58:25	26012020	260120	075825	185.590	12.668485	-57.243920	185.470	-0.040	0.310	1.140	185.570	-1.100	1.500																			1580025505.0	8.85	16.39
26/01/2020 07:58:26	26012020	260120	075826	185.310	12.668443	-57.243928	185.190	0.080	0.050	1.480	185.310	-1.300	1.900																			1580025506.0	8.94	16.56
26/01/2020 07:58:27	26012020	260120	075827	184.970	12.668402	-57.243937	184.870	0.390	-0.390	1.620	184.970	-1.700	2.000																			1580025507.0	9.27	17.17
26/01/2020 07:58:28	26012020	260120	075828	184.800	12.668358	-57.243943	184.750	0.540	-0.630	1.450	184.800	-2.000	1.900																			1580025508.0	9.32	17.26
26/01/2020 07:58:29	26012020	260120	075829	184.890	12.668317	-57.243948	184.850	0.370	-0.590	1.030	184.890	-2.000	1.500																			1580025509.0	8.99	16.65
26/01/2020 07:58:30	26012020	260120	075830	185.110	12.668277	-57.243953	185.090	0.040	-0.490	0.510	185.110	-1.900	1.000																			1580025510.0	8.77	16.24
26/01/2020 07:58:31	26012020	260120	075831	185.430	12.668237	-57.243958	185.420	-0.220	-0.430	0.050	185.430	-1.800	0.500																			1580025511.0	8.85	16.39
26/01/2020 07:58:32	26012020	260120	075832	185.770	12.668195	-57.243962	185.750	-0.300	-0.500	-0.190	185.770	-1.900	0.200																			1580025512.0	8.99	16.65
26/01/2020 07:58:33	26012020	260120	075833	186.020	12.668152	-57.243967	185.960	-0.270	-0.730	-0.040	186.020	-2.100	0.400																			1580025513.0	9.29	17.21
26/01/2020 07:58:34	26012020	260120	075834	186.120	12.668107	-57.243973	186.050	-0.270	-0.830	0.380	186.120	-2.200	0.800																			1580025514.0	9.60	17.78
26/01/2020 07:58:35	26012020	260120	075835	186.200	12.668063	-57.243980	186.140	-0.370	-0.470	0.820	186.200	-1.900	1.200																			1580025515.0	9.46	17.52
26/01/2020 07:58:36	26012020	260120	075836	186.210	12.668023	-57.243988	186.120	-0.450	0.140	1.180	186.210	-1.300	1.600																			1580025516.0	9.03	16.72
26/01/2020 07:58:37	26012020	260120	075837	186.010	12.667982	-57.243997	185.890	-0.330	0.520	1.410	186.010	-0.900	1.800																			1580025517.0	8.97	16.61
26/01/2020 07:58:38	26012020	260120	075838	185.710	12.667938	-57.244003	185.610	-0.050	0.590	1.390	185.710	-0.800	1.800																			1580025518.0	9.26	17.15
26/01/2020 07:58:39	26012020	260120	075839	185.520	12.667895	-57.244008	185.400	0.210	0.560	1.200	185.480	-0.800	1.600																			1580025519.0	9.37	17.35
26/01/2020 07:58:40	26012020	260120	075840	185.440	12.667853	-57.244013	185.360	0.310	0.490	0.970	185.440	-0.900	1.400																			1580025520.0	9.19	17.02
26/01/2020 07:58:41	26012020	260120	075841	185.400	12.667812	-57.244018	185.310	0.310	0.290	0.890	185.400	-1.100	1.300																			1580025521.0	8.97	16.61
26/01/2020 07:58:42	26012020	260120	075842	185.370	12.667770	-57.244025	185.300	0.370	-0.010	0.850	185.370	-1.400	1.300																			1580025522.0	8.94	16.56
26/01/2020 07:58:43	26012020	260120	075843	185.450	12.667730	-57.244032	185.390	0.510	-0.290	0.750	185.450	-1.700	1.200																			1580025523.0	8.85	16.39
26/01/2020 07:58:44	26012020	260120	075844	185.580	12.667690	-57.244038	185.510	0.620	-0.630	0.690	185.580	-2.000	1.100																			1580025524.0	8.75	16.21
26/01/2020 07:58:45	26012020	260120	075845	185.690	12.667648	-57.244043	185.620	0.580	-1.120	0.690	185.690	-2.500	1.100																			1580025525.0	8.92	16.52
26/01/2020 07:58:46	26012020	260120	075846	185.770	12.667607	-57.244050	185.710	0.310	-1.500	0.820	185.770	-2.900	1.200																			1580025526.0	9.23	17.09
26/01/2020 07:58:47	26012020	260120	075847	185.790	12.667563	-57.244057	185.710	-0.120	-1.410	1.130	185.790	-2.800	1.500																			1580025527.0	9.26	17.15
26/01/2020 07:58:48	26012020	260120	075848	185.730	12.667523	-57.244065	185.660	-0.520	-0.900	1.350	185.730	-2.300	1.800																			1580025528.0	9.06	16.78
26/01/2020 07:58:49	26012020	260120	075849	185.710	12.667482	-57.244073	185.650	-0.730	-0.280	1.300	185.710	-1.700	1.700																			1580025529.0	9.00	16.67
26/01/2020 07:58:50	26012020	260120	075850	185.790	12.667438	-57.244078	185.730	-0.760	0.180	1.050	185.790	-1.200	1.500																			1580025530.0	9.19	17.02
26/01/2020 07:58:51	26012020	260120	075851	185.880	12.667395	-57.244083	185.810	-0.640	0.450	0.780	185.880	-1.000	1.200																			1580025531.0	9.43	17.46
26/01/2020 07:58:52	26012020	260120	075852	185.970	12.667352	-57.244088	185.900	-0.450	0.590	0.610	185.970	-0.800	1.000																			1580025532.0	9.55	17.69
26/01/2020 07:58:53	26012020	260120	075853	186.040	12.667308	-57.244093	185.960	-0.220	0.710	0.570	186.040	-0.700	1.000																			1580025533.0	9.45	17.50
26/01/2020 07:58:54	26012020	260120	075854	186.030	12.667265	-57.244098	185.950	-0.010	0.750	0.770	186.030	-0.600	1.200																			1580025534.0	9.20	17.04
26/01/2020 07:58:55	26012020	260120	075855	185.980	12.667223	-57.244105	185.920	0.190	0.610	1.060	185.980	-0.800	1.500																			1580025535.0	9.03	16.72
26/01/2020 07:58:56	26012020	260120	075856	185.970	12.667183	-57.244113	185.910	0.380	0.280	1.160	185.970	-1.100	1.600																			1580025536.0	8.98	16.63
26/01/2020 07:58:57	26012020	260120	075857	185.900	12.667142	-57.244120	185.800	0.590	-0.240	1.140	185.900	-1.600	1.600																			1580025537.0	8.94	16.56
26/01/2020 07:58:58	26012020	260120	075858	185.660	12.667100	-57.244127	185.550	0.800	-0.820	1.040	185.660	-2.200	1.500																			1580025538.0	9.04	16.74
26/01/2020 07:58:59	26012020	260120	075859	185.480	12.667058	-57.244133	185.400	0.850	-1.090	0.770	185.480	-2.500	1.200																			1580025539.0	9.05	16.76
26/01/2020 07:59:00	26012020	260120	075900	185.470	12.667018	-57.244137	185.420	0.620	-0.980	0.510	185.470	-2.400	0.900	1013.70	25.60	25.70	19.50	19.60	-1.00	69.00	69.00	410.00	25.20	308.00	8.40	99.00	6.60	14	3291.00	27.40	27.40	1580025540.0	8.75	16.21
26/01/2020 07:59:01	26012020	260120	075901	185.530	12.666978	-57.244142	185.480	0.170	-0.810	0.380	185.540	-2.200	0.800																			1580025541.0	8.62	15.96
26/01/2020 07:59:02	26012020	260120	075902	185.590	12.666937	-57.244148	185.520	-0.280	-0.760	0.440	185.590	-2.100	0.800																			1580025542.0	8.92	16.52
26/01/2020 07:59:03	26012020	260120	075903	185.620	12.666895	-57.244157	185.560	-0.530	-0.680	0.630	185.630	-2.100	1.000																			1580025543.0	9.27	17.17
26/01/2020 07:59:04	26012020	260120	075904	185.670	12.666852	-57.244163	185.620	-0.570	-0.470	0.790	185.670	-1.900	1.200																			1580025544.0	9.43	17.46
26/01/2020 07:59:05	26012020	260120	075905	185.800	12.666808	-57.244170	185.760	-0.540	-0.030	0.770	185.800	-1.500	1.200																			1580025545.0	9.36	17.33
26/01/2020 07:59:06	26012020	260120	075906	185.990	12.666767	-57.244177	185.950	-0.540	0.370	0.640	185.990	-1.000	1.100																			1580025546.0	9.15	16.95
26/01/2020 07:59:07	26012020	260120	075907	186.120	12.666723	-57.244180	186.050	-0.490	0.420	0.610	186.120	-1.000	1.000																			1580025547.0	9.23	17.09
26/01/2020 07:59:08	26012020	260120	075908	186.010	12.666680	-57.244187	185.900	-0.330	0.260	0.880	186.010	-1.100	1.300																			1580025548.0	9.48	17.56
26/01/2020 07:59:09	26012020	260120	075909	185.680	12.666637	-57.244195	185.560	-0.080	0.210	1.220	185.680	-1.200	1.600																			1580025549.0	9.48	17.56
26/01/2020 07:59:10	26012020	260120	075910	185.300	12.666595	-57.244202	185.190	0.160	0.280	1.380	185.300	-1.100	1.800																			1580025550.0	9.15	16.95
26/01/2020 07:59:11	26012020	260120	075911	185.000	12.666553	-57.244208	184.910	0.350	0.260	1.350	185.000	-1.100	1.800																			1580025551.0	8.93	16.54
26/01/2020 07:59:12	26012020	260120	075912	184.870	12.666513	-57.244213	184.810	0.480	0.080	1.070	184.870	-1.300	1.500																			1580025552.0	8.91	16.50
26/01/2020 07:59:13	26012020	260120	075913	184.870	12.666472	-57.244218	184.820	0.560	-0.240	0.710	184.870	-1.600	1.100																			1580025553.0	8.95	16.58
26/01/2020 07:59:14	26012020	260120	075914	184.950	12.666430	-57.244223	184.910	0.550	-0.540	0.520	184.950	-1.900	0.900																			1580025554.0	9.01	16.69
26/01/2020 07:59:15	26012020	260120	075915	185.060	12.666388	-57.244228	185.050	0.420	-0.720	0.540	185.080	-2.100	0.900																			1580025555.0	8.95	16.58
26/01/2020 07:59:16	26012020	260120	075916	185.170	12.666347	-57.244235	185.130	0.190	-0.830	0.730	185.170	-2.200	1.100																			1580025556.0	8.92	16.52
26/01/2020 07:59:17	26012020	260120	075917	185.210	12.666305	-57.244242	185.190	-0.030	-0.820	0.990	185.230	-2.200	1.400																			1580025557.0	9.05	16.76
26/01/2020 07:59:18	26012020	260120	075918	185.280	12.666265	-57.244250	185.250	-0.170	-0.590	1.120	185.280	-2.000	1.500																			1580025558.0	9.04	16.74
26/01/2020 07:59:19	26012020	260120	075919	185.380	12.666223	-57.244255	185.360	-0.230	-0.260	0.960	185.380	-1.700	1.400																			1580025559.0	8.97	16.61
26/01/2020 07:59:20	26012020	260120	075920	185.480	12.666182	-57.244260	185.440	-0.240	-0.050	0.770	185.480	-1.400	1.200																			1580025560.0	9.03	16.72
26/01/2020 07:59:21	26012020	260120	075921	185.540	12.666138	-57.244265	185.490	-0.250	0.020	0.640	185.540	-1.400	1.100																			1580025561.0	9.22	17.08
26/01/2020 07:59:22	26012020	260120	075922	185.480	12.666095	-57.244270	185.390	-0.280	-0.010	0.720	185.480	-1.400	1.100																			1580025562.0	9.32	17.26
26/01/2020 07:59:23	26012020	260120	075923	185.230	12.666052	-57.244277	185.120	-0.260	-0.120	0.990	185.230	-1.500	1.400																			1580025563.0	9.41	17.43
26/01/2020 07:59:24	26012020	260120	075924	184.960	12.666008	-57.244283	184.880	-0.190	-0.140	1.210	184.960	-1.500	1.600																			1580025564.0	9.45	17.50
26/01/2020 07:59:25	26012020	260120	075925	184.870	12.665967	-57.244290	184.830	-0.130	-0.010	1.270	184.870	-1.400	1.700																			1580025565.0	9.25	17.13
26/01/2020 07:59:26	26012020	260120	075926	184.940	12.665925	-57.244297	184.920	-0.090	0.120	1.080	184.940	-1.300	1.500																			1580025566.0	9.05	16.76
26/01/2020 07:59:27	26012020	260120	075927	185.110	12.665883	-57.244302	185.080	-0.000	0.120	0.720	185.110	-1.300	1.200																			1580025567.0	8.99	16.65
26/01/2020 07:59:28	26012020	260120	075928	185.310	12.665842	-57.244305	185.280	0.130	-0.020	0.350	185.310	-1.400	0.800																			1580025568.0	9.08	16.82
26/01/2020 07:59:29	26012020	260120	075929	185.470	12.665798	-57.244310	185.450	0.260	-0.160	0.170	185.500	-1.500	0.600																			1580025569.0	9.14	16.93
26/01/2020 07:59:30	26012020	260120	075930	185.630	12.665757	-57.244315	185.580	0.300	-0.190	0.190	185.630	-1.600	0.600																			1580025570.0	9.05	16.76
26/01/2020 07:59:31	26012020	260120	075931	185.760	12.665717	-57.244320	185.720	0.210	-0.130	0.380	185.760	-1.500	0.800																			1580025571.0	8.86	16.41
26/01/2020 07:59:32	26012020	260120	075932	185.830	12.665677	-57.244327	185.760	0.110	-0.190	0.700	185.830	-1.600	1.100																			1580025572.0	8.78	16.26
26/01/2020 07:59:33	26012020	260120	075933	185.710	12.665635	-57.244333	185.620	0.150	-0.470	1.040	185.710	-1.800	1.400																			1580025573.0	9.02	16.71
26/01/2020 07:59:34	26012020	260120	075934	185.470	12.665592	-57.244342	185.380	0.260	-0.740	1.260	185.470	-2.100	1.700																			1580025574.0	9.31	17.24
26/01/2020 07:59:35	26012020	260120	075935	185.240	12.665550	-57.244347	185.170	0.210	-0.750	1.320	185.240	-2.100	1.700																			1580025575.0	9.30	17.22
26/01/2020 07:59:36	26012020	260120	075936	185.100	12.665507	-57.244353	185.050	-0.090	-0.500	1.240	185.100	-1.900	1.700																			1580025576.0	9.09	16.83
26/01/2020 07:59:37	26012020	260120	075937	185.050	12.665467	-57.244360	185.010	-0.390	-0.180	1.050	185.050	-1.600	1.500																			1580025577.0	8.94	16.56
26/01/2020 07:59:38	26012020	260120	075938	185.090	12.665425	-57.244367	185.060	-0.450	0.030	0.740	185.090	-1.400	1.200																			1580025578.0	9.02	16.71
26/01/2020 07:59:39	26012020	260120	075939	185.230	12.665383	-57.244372	185.200	-0.260	0.070	0.340	185.230	-1.300	0.800																			1580025579.0	9.18	17.00
26/01/2020 07:59:40	26012020	260120	075940	185.380	12.665340	-57.244377	185.350	-0.020	-0.070	0.110	185.380	-1.400	0.500																			1580025580.0	9.37	17.35
26/01/2020 07:59:41	26012020	260120	075941	185.530	12.665295	-57.244382	185.490	0.050	-0.190	0.140	185.530	-1.600	0.600																			1580025581.0	9.47	17.54
26/01/2020 07:59:42	26012020	260120	075942	185.650	12.665252	-57.244387	185.610	-0.090	-0.100	0.400	185.650	-1.500	0.800																			1580025582.0	9.31	17.24
26/01/2020 07:59:43	26012020	260120	075943	185.720	12.665212	-57.244393	185.660	-0.250	0.130	0.710	185.720	-1.300	1.100																			1580025583.0	8.97	16.61
26/01/2020 07:59:44	26012020	260120	075944	185.670	12.665170	-57.244400	185.600	-0.220	0.180	0.930	185.670	-1.200	1.300																			1580025584.0	8.88	16.45
26/01/2020 07:59:45	26012020	260120	075945	185.540	12.665128	-57.244407	185.470	0.040	-0.020	0.990	185.540	-1.400	1.400																			1580025585.0	9.08	16.82
26/01/2020 07:59:46	26012020	260120	075946	185.480	12.665087	-57.244412	185.440	0.310	-0.240	0.870	185.480	-1.600	1.300																			1580025586.0	9.24	17.11
26/01/2020 07:59:47	26012020	260120	075947	185.540	12.665043	-57.244417	185.500	0.360	-0.390	0.700	185.540	-1.800	1.100																			1580025587.0	9.13	16.91
26/01/2020 07:59:48	26012020	260120	075948	185.500	12.665002	-57.244422	185.420	0.220	-0.560	0.770	185.500	-1.900	1.200																			1580025588.0	9.04	16.74
26/01/2020 07:59:49	26012020	260120	075949	185.300	12.664960	-57.244428	185.210	0.050	-0.690	1.040	185.300	-2.100	1.400																			1580025589.0	9.19	17.02
26/01/2020 07:59:50	26012020	260120	075950	185.090	12.664918	-57.244437	185.030	-0.020	-0.570	1.180	185.090	-2.000	1.600																			1580025590.0	9.25	17.13
26/01/2020 07:59:51	26012020	260120	075951	185.090	12.664877	-57.244443	185.070	-0.080	-0.150	1.060	185.090	-1.600	1.500																			1580025591.0	9.03	16.72
26/01/2020 07:59:52	26012020	260120	075952	185.260	12.664837	-57.244450	185.240	-0.150	0.220	0.860	185.260	-1.200	1.300																			1580025592.0	8.78	16.26
26/01/2020 07:59:53	26012020	260120	075953	185.380	12.664795	-57.244455	185.350	-0.170	0.200	0.680	185.400	-1.200	1.100																			1580025593.0	8.94	16.56
26/01/2020 07:59:54	26012020	260120	075954	185.340	12.664752	-57.244462	185.240	-0.070	-0.140	0.650	185.340	-1.500	1.100																			1580025594.0	9.35	17.32
26/01/2020 07:59:55	26012020	260120	075955	185.150	12.664707	-57.244467	185.070	0.060	-0.360	0.760	185.150	-1.800	1.200																			1580025595.0	9.58	17.74
26/01/2020 07:59:56	26012020	260120	075956	185.140	12.664665	-57.244473	185.100	0.060	-0.200	0.770	185.140	-1.600	1.200																			1580025596.0	9.29	17.21
26/01/2020 07:59:57	26012020	260120	075957	185.380	12.664625	-57.244480	185.380	-0.060	0.110	0.620	185.380	-1.300	1.100																			1580025597.0	8.78	16.26
26/01/2020 07:59:58	26012020	260120	075958	185.650	12.664585	-57.244485	185.610	-0.090	0.080	0.410	185.650	-1.300	0.800																			1580025598.0	8.66	16.04
26/01/2020 07:59:59	26012020	260120	075959	185.740	12.664542	-57.244488	185.680	0.070	-0.360	0.270	185.740	-1.700	0.700																			1580025599.0	9.12	16.89
26/01/2020 08:00:00	26012020	260120	080000	185.760	12.664498	-57.244493	185.700	0.300	-0.770	0.310	185.760	-2.100	0.700	1013.70	25.60	25.70	19.80	19.80	-1.00	70.00	70.00	410.00	25.20	305.00	7.90	95.00	6.50	14	3359.00	27.40	27.40	1580025600.0	9.51	17.61
26/01/2020 08:00:01	26012020	260120	080001	185.800	12.664455	-57.244498	185.760	0.320	-0.790	0.500	185.800	-2.200	0.900																			1580025601.0	9.40	17.41
26/01/2020 08:00:02	26012020	260120	080001	185.830	12.664413	-57.244505	185.780	0.060	-0.520	0.820	185.830	-1.900	1.200																			1580025601.0	9.07	16.80
26/01/2020 08:00:03	26012020	260120	080003	185.730	12.664372	-57.244513	185.650	-0.280	-0.230	1.270	185.730	-1.600	1.700																			1580025603.0	8.98	16.63
26/01/2020 08:00:04	26012020	260120	080004	185.520	12.664330	-57.244522	185.460	-0.470	0.040	1.610	185.520	-1.400	2.000																			1580025604.0	9.14	16.93
26/01/2020 08:00:05	26012020	260120	080005	185.420	12.664288	-57.244530	185.390	-0.450	0.280	1.530	185.420	-1.100	2.000																			1580025605.0	9.18	17.00
26/01/2020 08:00:06	26012020	260120	080006	185.460	12.664247	-57.244537	185.430	-0.260	0.380	1.190	185.460	-1.000	1.600																			1580025606.0	9.10	16.85
26/01/2020 08:00:07	26012020	260120	080007	185.410	12.664203	-57.244542	185.330	0.010	0.190	0.980	185.410	-1.200	1.400																			1580025607.0	9.19	17.02
26/01/2020 08:00:08	26012020	260120	080008	185.230	12.664162	-57.244548	185.140	0.300	-0.110	0.840	185.230	-1.500	1.300																			1580025608.0	9.38	17.37
26/01/2020 08:00:09	26012020	260120	080009	185.120	12.664118	-57.244553	185.060	0.470	-0.190	0.650	185.120	-1.600	1.100																			1580025609.0	9.28	17.19
26/01/2020 08:00:10	26012020	260120	080010	185.190	12.664077	-57.244558	185.160	0.400	-0.140	0.470	185.190	-1.500	0.900																			1580025610.0	8.92	16.52
26/01/2020 08:00:11	26012020	260120	080011	185.360	12.664037	-57.244563	185.330	0.170	-0.220	0.440	185.360	-1.600	0.900																			1580025611.0	8.78	16.26
26/01/2020 08:00:12	26012020	260120	080012	185.470	12.663995	-57.244570	185.440	-0.020	-0.480	0.560	185.470	-1.900	1.000																			1580025612.0	9.00	16.67
26/01/2020 08:00:13	26012020	260120	080013	185.610	12.663953	-57.244577	185.600	-0.040	-0.690	0.670	185.610	-2.100	1.100																			1580025613.0	9.23	17.09
26/01/2020 08:00:14	26012020	260120	080014	185.830	12.663910	-57.244583	185.840	0.010	-0.680	0.710	185.830	-2.100	1.100																			1580025614.0	9.18	17.00
26/01/2020 08:00:15	26012020	260120	080015	186.080	12.663868	-57.244588	186.080	-0.040	-0.480	0.650	186.080	-1.900	1.100																			1580025615.0	9.02	16.71
26/01/2020 08:00:16	26012020	260120	080016	186.200	12.663827	-57.244593	186.160	-0.160	-0.340	0.660	186.200	-1.700	1.100																			1580025616.0	8.97	16.61
26/01/2020 08:00:17	26012020	260120	080017	186.090	12.663785	-57.244598	185.930	-0.180	-0.350	0.910	186.030	-1.700	1.300																			1580025617.0	9.18	17.00
26/01/2020 08:00:18	26012020	260120	080018	185.570	12.663742	-57.244605	185.440	-0.070	-0.360	1.270	185.570	-1.800	1.700																			1580025618.0	9.45	17.50
26/01/2020 08:00:19	26012020	260120	080019	185.070	12.663698	-57.244613	184.960	0.010	-0.140	1.520	185.070	-1.600	1.900																			1580025619.0	9.48	17.56
26/01/2020 08:00:20	26012020	260120	080020	184.740	12.663655	-57.244620	184.680	-0.060	0.270	1.530	184.740	-1.100	1.900																			1580025620.0	9.23	17.09
26/01/2020 08:00:21	26012020	260120	080021	184.660	12.663613	-57.244627	184.660	-0.220	0.600	1.320	184.660	-0.800	1.800																			1580025621.0	9.00	16.67
26/01/2020 08:00:22	26012020	260120	080022	184.900	12.663573	-57.244633	184.910	-0.290	0.640	0.890	184.900	-0.700	1.300																			1580025622.0	8.99	16.65
26/01/2020 08:00:23	26012020	260120	080023	185.250	12.663532	-57.244640	185.260	-0.150	0.310	0.440	185.250	-1.000	0.900																			1580025623.0	9.12	16.89
26/01/2020 08:00:24	26012020	260120	080024	185.600	12.663488	-57.244645	185.600	0.170	-0.180	0.070	185.600	-1.500	0.500																			1580025624.0	9.28	17.19
26/01/2020 08:00:25	26012020	260120	080025	185.880	12.663445	-57.244650	185.860	0.460	-0.540	-0.060	185.880	-1.900	0.400																			1580025625.0	9.23	17.09
26/01/2020 08:00:26	26012020	260120	080026	186.000	12.663403	-57.244653	185.950	0.510	-0.700	0.130	186.000	-2.100	0.500																			1580025626.0	8.99	16.65
26/01/2020 08:00:27	26012020	260120	080027	185.920	12.663363	-57.244658	185.850	0.330	-0.770	0.570	185.920	-2.200	0.900																			1580025627.0	8.87	16.43
26/01/2020 08:00:28	26012020	260120	080028	185.780	12.663322	-57.244667	185.750	0.030	-0.700	1.080	185.780	-2.100	1.500																			1580025628.0	8.96	16.59
26/01/2020 08:00:29	26012020	260120	080029	185.700	12.663282	-57.244675	185.670	-0.210	-0.510	1.470	185.700	-1.900	1.900																			1580025629.0	8.95	16.58
26/01/2020 08:00:30	26012020	260120	080030	185.540	12.663240	-57.244683	185.500	-0.260	-0.410	1.660	185.540	-1.800	2.100																			1580025630.0	9.02	16.71
26/01/2020 08:00:31	26012020	260120	080031	185.300	12.663197	-57.244692	185.230	-0.110	-0.440	1.640	185.300	-1.800	2.100																			1580025631.0	9.33	17.28
26/01/2020 08:00:32	26012020	260120	080032	185.030	12.663153	-57.244698	184.990	0.070	-0.320	1.420	185.030	-1.700	1.900																			1580025632.0	9.49	17.58
26/01/2020 08:00:33	26012020	260120	080033	185.010	12.663110	-57.244702	185.000	0.060	0.120	1.000	185.010	-1.300	1.400																			1580025633.0	9.28	17.19
26/01/2020 08:00:34	26012020	260120	080034	185.180	12.663070	-57.244705	185.180	-0.170	0.520	0.660	185.180	-0.900	1.100																			1580025634.0	8.89	16.46
26/01/2020 08:00:35	26012020	260120	080035	185.330	12.663028	-57.244712	185.300	-0.360	0.420	0.620	185.330	-0.900	1.000																			1580025635.0	8.99	16.65
26/01/2020 08:00:36	26012020	260120	080036	185.380	12.662985	-57.244718	185.370	-0.250	0.010	0.720	185.380	-1.400	1.100																			1580025636.0	9.47	17.54
26/01/2020 08:00:37	26012020	260120	080037	185.510	12.662940	-57.244725	185.500	0.010	-0.200	0.770	185.510	-1.600	1.200																			1580025637.0	9.55	17.69
26/01/2020 08:00:38	26012020	260120	080038	185.670	12.662898	-57.244732	185.650	0.160	-0.110	0.710	185.670	-1.500	1.100																			1580025638.0	9.07	16.80
26/01/2020 08:00:39	26012020	260120	080039	185.700	12.662858	-57.244737	185.650	0.160	-0.080	0.660	185.700	-1.500	1.100																			1580025639.0	8.74	16.19
26/01/2020 08:00:40	26012020	260120	080040	185.580	12.662818	-57.244742	185.500	0.120	-0.240	0.750	185.580	-1.600	1.200																			1580025640.0	8.87	16.43
26/01/2020 08:00:41	26012020	260120	080041	185.370	12.662777	-57.244748	185.300	0.140	-0.390	0.870	185.370	-1.800	1.300																			1580025641.0	9.03	16.72
26/01/2020 08:00:42	26012020	260120	080042	185.200	12.662735	-57.244755	185.150	0.180	-0.450	0.920	185.200	-1.800	1.300																			1580025642.0	9.01	16.69
26/01/2020 08:00:43	26012020	260120	080043	185.110	12.662693	-57.244762	185.060	0.180	-0.490	0.930	185.110	-1.900	1.300																			1580025643.0	8.97	16.61
26/01/2020 08:00:44	26012020	260120	080044	184.980	12.662652	-57.244767	184.910	0.130	-0.590	0.940	184.980	-2.000	1.400																			1580025644.0	9.07	16.80
26/01/2020 08:00:45	26012020	260120	080045	184.800	12.662608	-57.244773	184.740	0.030	-0.660	0.950	184.800	-2.000	1.400																			1580025645.0	9.27	17.17
26/01/2020 08:00:46	26012020	260120	080046	184.730	12.662567	-57.244780	184.700	-0.140	-0.510	0.900	184.730	-1.900	1.300																			1580025646.0	9.34	17.30
26/01/2020 08:00:47	26012020	260120	080047	184.790	12.662523	-57.244787	184.770	-0.310	-0.150	0.800	184.790	-1.600	1.200																			1580025647.0	9.13	16.91
26/01/2020 08:00:48	26012020	260120	080048	184.870	12.662483	-57.244793	184.840	-0.350	0.160	0.660	184.870	-1.200	1.100																			1580025648.0	8.99	16.65
26/01/2020 08:00:49	26012020	260120	080049	184.930	12.662440	-57.244798	184.900	-0.290	0.230	0.540	184.930	-1.200	1.000																			1580025649.0	9.14	16.93
26/01/2020 08:00:50	26012020	260120	080050	184.980	12.662397	-57.244803	184.940	-0.210	0.160	0.530	184.980	-1.200	0.900																			1580025650.0	9.30	17.22
26/01/2020 08:00:51	26012020	260120	080051	184.960	12.662355	-57.244810	184.900	-0.130	0.110	0.550	184.960	-1.300	1.000																			1580025651.0	9.26	17.15
26/01/2020 08:00:52	26012020	260120	080052	184.830	12.662313	-57.244815	184.740	-0.010	0.050	0.660	184.830	-1.300	1.100																			1580025652.0	9.10	16.85
26/01/2020 08:00:53	26012020	260120	080053	184.560	12.662272	-57.244822	184.470	0.170	-0.100	0.900	184.560	-1.500	1.300																			1580025653.0	9.10	16.85
26/01/2020 08:00:54	26012020	260120	080054	184.290	12.662228	-57.244828	184.210	0.350	-0.220	1.080	184.290	-1.600	1.500																			1580025654.0	9.16	16.96
26/01/2020 08:00:55	26012020	260120	080055	184.180	12.662187	-57.244833	184.130	0.370	-0.230	1.100	184.170	-1.600	1.500																			1580025655.0	9.02	16.71
26/01/2020 08:00:56	26012020	260120	080056	184.190	12.662147	-57.244840	184.160	0.210	-0.180	1.060	184.190	-1.600	1.500																			1580025656.0	8.85	16.39
26/01/2020 08:00:57	26012020	260120	080057	184.230	12.662107	-57.244845	184.180	0.030	-0.290	0.990	184.230	-1.700	1.400																			1580025657.0	8.80	16.30
26/01/2020 08:00:58	26012020	260120	080058	184.140	12.662065	-57.244852	184.050	0.020	-0.610	1.010	184.140	-2.000	1.400																			1580025658.0	9.06	16.78
26/01/2020 08:00:59	26012020	260120	080059	183.930	12.662022	-57.244858	183.850	0.150	-0.890	1.080	183.930	-2.300	1.500																			1580025659.0	9.39	17.39
26/01/2020 08:01:00	26012020	260120	080100	183.760	12.661978	-57.244865	183.690	0.190	-0.750	1.070	183.760	-2.200	1.500	1013.70	25.60	25.70	19.90	20.00	-1.00	70.00	70.00	411.00	25.20	306.00	8.60	99.00	7.00	14	3283.00	27.40	27.40	1580025660.0	9.34	17.30
26/01/2020 08:01:01	26012020	260120	080101	183.630	12.661937	-57.244870	183.560	-0.000	-0.280	1.050	183.630	-1.700	1.500																			1580025661.0	8.93	16.54
26/01/2020 08:01:02	26012020	260120	080102	183.390	12.661897	-57.244873	183.310	-0.290	0.030	1.070	183.390	-1.400	1.500																			1580025662.0	8.84	16.37
26/01/2020 08:01:03	26012020	260120	080103	183.190	12.661853	-57.244878	183.150	-0.450	0.130	1.090	183.190	-1.300	1.500																			1580025663.0	9.18	17.00
26/01/2020 08:01:04	26012020	260120	080104	183.200	12.661810	-57.244885	183.190	-0.430	0.230	1.030	183.200	-1.200	1.500																			1580025664.0	9.30	17.22
26/01/2020 08:01:05	26012020	260120	080105	183.290	12.661768	-57.244890	183.270	-0.270	0.260	0.980	183.290	-1.100	1.400																			1580025665.0	9.15	16.95
26/01/2020 08:01:06	26012020	260120	080106	183.290	12.661727	-57.244895	183.240	-0.040	0.120	0.960	183.290	-1.300	1.400																			1580025666.0	9.12	16.89
26/01/2020 08:01:07	26012020	260120	080107	183.130	12.661683	-57.244900	183.050	0.170	-0.130	1.090	183.130	-1.500	1.500																			1580025667.0	9.19	17.02
26/01/2020 08:01:08	26012020	260120	080108	182.850	12.661642	-57.244905	182.780	0.300	-0.330	1.300	182.850	-1.700	1.700																			1580025668.0	9.20	17.04
26/01/2020 08:01:09	26012020	260120	080109	182.630	12.661600	-57.244910	182.570	0.290	-0.370	1.420	182.630	-1.800	1.800																			1580025669.0	9.07	16.80
26/01/2020 08:01:10	26012020	260120	080110	182.450	12.661558	-57.244917	182.400	0.150	-0.300	1.580	182.450	-1.700	2.000																			1580025670.0	8.90	16.48
26/01/2020 08:01:11	26012020	260120	080111	182.200	12.661518	-57.244922	182.140	0.030	-0.260	1.710	182.200	-1.700	2.100																			1580025671.0	8.86	16.41
26/01/2020 08:01:12	26012020	260120	080112	181.910	12.661477	-57.244928	181.870	0.030	-0.330	1.690	181.910	-1.700	2.100																			1580025672.0	9.00	16.67
26/01/2020 08:01:13	26012020	260120	080113	181.770	12.661435	-57.244933	181.750	0.100	-0.370	1.450	181.770	-1.800	1.900																			1580025673.0	9.15	16.95
26/01/2020 08:01:14	26012020	260120	080114	181.810	12.661392	-57.244937	181.810	0.170	-0.290	1.050	181.810	-1.700	1.500																			1580025674.0	9.07	16.80
26/01/2020 08:01:15	26012020	260120	080115	181.960	12.661350	-57.244938	181.960	0.160	-0.240	0.590	181.960	-1.600	1.000																			1580025675.0	8.97	16.61
26/01/2020 08:01:16	26012020	260120	080116	182.070	12.661308	-57.244938	182.070	0.050	-0.310	0.330	182.070	-1.700	0.800																			1580025676.0	9.07	16.80
26/01/2020 08:01:17	26012020	260120	080117	182.130	12.661265	-57.244940	182.120	-0.130	-0.400	0.460	182.130	-1.800	0.900																			1580025677.0	9.23	17.09
26/01/2020 08:01:18	26012020	260120	080118	182.140	12.661223	-57.244945	182.120	-0.360	-0.270	0.780	182.140	-1.700	1.200																			1580025678.0	9.21	17.06
26/01/2020 08:01:19	26012020	260120	080119	182.010	12.661182	-57.244950	181.960	-0.470	-0.070	1.170	182.010	-1.500	1.600																			1580025679.0	8.98	16.63
26/01/2020 08:01:20	26012020	260120	080120	181.650	12.661140	-57.244957	181.580	-0.320	-0.030	1.620	181.650	-1.400	2.000																			1580025680.0	9.07	16.80
26/01/2020 08:01:21	26012020	260120	080121	181.140	12.661097	-57.244963	181.070	-0.020	-0.020	1.930	181.140	-1.400	2.300																			1580025681.0	9.31	17.24
26/01/2020 08:01:22	26012020	260120	080122	180.700	12.661055	-57.244967	180.670	0.170	0.210	1.890	180.700	-1.200	2.300																			1580025682.0	9.14	16.93
26/01/2020 08:01:23	26012020	260120	080123	180.490	12.661013	-57.244970	180.460	0.140	0.380	1.590	180.490	-1.000	2.000																			1580025683.0	8.78	16.26
26/01/2020 08:01:24	26012020	260120	080124	180.380	12.660973	-57.244973	180.350	0.070	0.210	1.210	180.380	-1.200	1.700																			1580025684.0	8.80	16.30
26/01/2020 08:01:25	26012020	260120	080125	180.300	12.660932	-57.244977	180.260	0.090	-0.250	0.920	180.300	-1.600	1.400																			1580025685.0	9.07	16.80
26/01/2020 08:01:26	26012020	260120	080126	180.230	12.660888	-57.244980	180.180	0.210	-0.720	0.730	180.230	-2.100	1.200																			1580025686.0	9.24	17.11
26/01/2020 08:01:27	26012020	260120	080127	180.200	12.660845	-57.244983	180.160	0.300	-0.930	0.540	180.200	-2.300	1.000																			1580025687.0	9.21	17.06
26/01/2020 08:01:28	26012020	260120	080128	180.240	12.660803	-57.244985	180.200	0.200	-0.790	0.440	180.240	-2.200	0.900																			1580025688.0	8.94	16.56
26/01/2020 08:01:29	26012020	260120	080129	180.300	12.660763	-57.244987	180.260	-0.070	-0.520	0.560	180.300	-1.900	1.000																			1580025689.0	8.72	16.15
26/01/2020 08:01:30	26012020	260120	080130	180.280	12.660722	-57.244990	180.200	-0.270	-0.420	0.860	180.280	-1.800	1.300																			1580025690.0	8.85	16.39
26/01/2020 08:01:31	26012020	260120	080131	180.070	12.660680	-57.244993	179.990	-0.280	-0.440	1.150	180.070	-1.800	1.500																			1580025691.0	9.28	17.19
26/01/2020 08:01:32	26012020	260120	080132	179.810	12.660635	-57.244995	179.740	-0.240	-0.280	1.430	179.810	-1.700	1.800																			1580025692.0	9.47	17.54
26/01/2020 08:01:33	26012020	260120	080133	179.640	12.660592	-57.244998	179.540	-0.300	0.190	1.610	179.610	-1.200	2.000																			1580025693.0	9.24	17.11
26/01/2020 08:01:34	26012020	260120	080134	179.430	12.660552	-57.245002	179.360	-0.400	0.710	1.600	179.430	-0.700	2.000																			1580025694.0	8.85	16.39
26/01/2020 08:01:35	26012020	260120	080135	179.170	12.660510	-57.245003	179.060	-0.320	0.850	1.480	179.170	-0.500	1.900																			1580025695.0	8.75	16.21
26/01/2020 08:01:36	26012020	260120	080136	178.800	12.660468	-57.245007	178.690	0.010	0.500	1.350	178.800	-0.800	1.800																			1580025696.0	9.08	16.82
26/01/2020 08:01:37	26012020	260120	080137	178.480	12.660425	-57.245008	178.400	0.380	0.070	1.180	178.480	-1.300	1.600																			1580025697.0	9.28	17.19
26/01/2020 08:01:38	26012020	260120	080138	178.250	12.660383	-57.245010	178.170	0.580	-0.240	1.010	178.250	-1.600	1.400																			1580025698.0	9.03	16.72
26/01/2020 08:01:39	26012020	260120	080139	177.970	12.660343	-57.245012	177.860	0.580	-0.550	0.980	177.970	-1.900	1.400																			1580025699.0	8.77	16.24
26/01/2020 08:01:40	26012020	260120	080140	177.580	12.660302	-57.245013	177.470	0.490	-0.890	1.180	177.580	-2.200	1.600																			1580025700.0	8.85	16.39
26/01/2020 08:01:41	26012020	260120	080141	177.280	12.660260	-57.245017	177.200	0.330	-1.010	1.330	177.280	-2.400	1.700																			1580025701.0	8.99	16.65
26/01/2020 08:01:42	26012020	260120	080142	177.240	12.660218	-57.245020	177.210	0.070	-0.840	1.260	177.240	-2.200	1.700																			1580025702.0	8.83	16.35
26/01/2020 08:01:43	26012020	260120	080143	177.450	12.660178	-57.245020	177.450	-0.240	-0.640	1.030	177.450	-2.000	1.500																			1580025703.0	8.76	16.22
26/01/2020 08:01:44	26012020	260120	080144	177.790	12.660137	-57.245022	177.780	-0.510	-0.530	0.840	177.790	-1.900	1.300																			1580025704.0	8.96	16.59
26/01/2020 08:01:45	26012020	260120	080145	178.020	12.660093	-57.245022	178.030	-0.600	-0.420	0.840	178.060	-1.800	1.300																			1580025705.0	9.20	17.04
26/01/2020 08:01:46	26012020	260120	080146	178.200	12.660050	-57.245023	178.130	-0.500	-0.180	0.970	178.200	-1.600	1.400																			1580025706.0	9.24	17.11
26/01/2020 08:01:47	26012020	260120	080147	178.150	12.660008	-57.245023	178.010	-0.310	0.100	1.190	178.120	-1.300	1.600																			1580025707.0	9.18	17.00
26/01/2020 08:01:48	26012020	260120	080148	177.810	12.659965	-57.245023	177.690	-0.180	0.290	1.460	177.810	-1.100	1.900																			1580025708.0	9.19	17.02
26/01/2020 08:01:49	26012020	260120	080149	177.390	12.659922	-57.245023	177.260	-0.150	0.410	1.760	177.390	-1.000	2.200																			1580025709.0	9.23	17.09
26/01/2020 08:01:50	26012020	260120	080150	176.990	12.659880	-57.245025	176.890	-0.110	0.590	1.860	176.990	-0.800	2.300																			1580025710.0	9.12	16.89
26/01/2020 08:01:51	26012020	260120	080151	176.690	12.659838	-57.245025	176.590	0.050	0.730	1.720	176.690	-0.700	2.200																			1580025711.0	8.81	16.32
26/01/2020 08:01:52	26012020	260120	080152	176.410	12.659798	-57.245027	176.310	0.330	0.500	1.570	176.410	-0.900	2.000																			1580025712.0	8.73	16.17
26/01/2020 08:01:53	26012020	260120	080153	176.190	12.659757	-57.245027	176.110	0.610	-0.040	1.340	176.190	-1.400	1.800																			1580025713.0	8.96	16.59
26/01/2020 08:01:54	26012020	260120	080154	176.110	12.659715	-57.245027	176.050	0.720	-0.510	1.040	176.110	-1.900	1.500																			1580025714.0	8.98	16.63
26/01/2020 08:01:55	26012020	260120	080155	176.150	12.659675	-57.245027	176.090	0.600	-0.810	0.780	176.150	-2.200	1.200																			1580025715.0	8.74	16.19
26/01/2020 08:01:56	26012020	260120	080156	176.220	12.659635	-57.245027	176.150	0.340	-1.070	0.680	176.220	-2.400	1.100																			1580025716.0	8.63	15.98
26/01/2020 08:01:57	26012020	260120	080157	176.230	12.659593	-57.245028	176.200	0.080	-1.240	0.710	176.240	-2.600	1.100																			1580025717.0	8.82	16.33
26/01/2020 08:01:58	26012020	260120	080158	176.330	12.659552	-57.245028	176.300	-0.150	-1.070	0.750	176.330	-2.500	1.200																			1580025718.0	8.93	16.54
26/01/2020 08:01:59	26012020	260120	080159	176.470	12.659512	-57.245028	176.440	-0.360	-0.640	0.790	176.470	-2.100	1.200																			1580025719.0	8.78	16.26
26/01/2020 08:02:00	26012020	260120	080200	176.600	12.659470	-57.245028	176.560	-0.500	-0.310	0.860	176.600	-1.700	1.300	1013.70	25.60	25.70	19.80	19.80	-1.00	70.00	70.00	412.00	25.20	310.00	8.90	99.00	6.90	14	3204.00	27.40	27.40	1580025720.0	8.84	16.37
26/01/2020 08:02:01	26012020	260120	080201	176.670	12.659427	-57.245027	176.610	-0.540	-0.180	1.070	176.670	-1.600	1.500																			1580025721.0	9.20	17.04
26/01/2020 08:02:02	26012020	260120	080202	176.550	12.659383	-57.245027	176.460	-0.490	-0.030	1.440	176.550	-1.400	1.800																			1580025722.0	9.46	17.52
26/01/2020 08:02:03	26012020	260120	080203	176.240	12.659340	-57.245028	176.130	-0.400	0.280	1.780	176.240	-1.100	2.200																			1580025723.0	9.37	17.35
26/01/2020 08:02:04	26012020	260120	080204	175.830	12.659297	-57.245028	175.720	-0.260	0.620	1.970	175.830	-0.800	2.400																			1580025724.0	9.12	16.89
26/01/2020 08:02:05	26012020	260120	080205	175.410	12.659255	-57.245028	175.310	-0.100	0.810	1.990	175.410	-0.600	2.400																			1580025725.0	9.00	16.67
26/01/2020 08:02:06	26012020	260120	080206	175.110	12.659213	-57.245027	175.050	0.060	0.770	1.830	175.110	-0.600	2.300																			1580025726.0	8.97	16.61
26/01/2020 08:02:07	26012020	260120	080207	175.000	12.659172	-57.245027	174.970	0.210	0.550	1.510	175.000	-0.800	2.000																			1580025727.0	8.86	16.41
26/01/2020 08:02:08	26012020	260120	080208	174.950	12.659132	-57.245027	174.920	0.440	0.090	1.180	174.950	-1.300	1.600																			1580025728.0	8.77	16.24
26/01/2020 08:02:09	26012020	260120	080209	174.940	12.659090	-57.245025	174.930	0.750	-0.540	0.790	174.940	-1.900	1.300																			1580025729.0	8.88	16.45
26/01/2020 08:02:10	26012020	260120	080210	175.100	12.659048	-57.245022	175.130	0.860	-0.970	0.420	175.100	-2.300	0.900																			1580025730.0	8.92	16.52
26/01/2020 08:02:11	26012020	260120	080211	175.410	12.659008	-57.245020	175.430	0.590	-1.050	0.350	175.410	-2.400	0.800																			1580025731.0	8.59	15.91
26/01/2020 08:02:12	26012020	260120	080212	175.630	12.658970	-57.245018	175.630	0.100	-1.080	0.600	175.630	-2.500	1.000																			1580025732.0	8.44	15.63
26/01/2020 08:02:13	26012020	260120	080213	175.670	12.658928	-57.245020	175.660	-0.320	-1.140	0.950	175.670	-2.500	1.300																			1580025733.0	8.81	16.32
26/01/2020 08:02:14	26012020	260120	080214	175.650	12.658887	-57.245022	175.650	-0.490	-0.970	1.320	175.650	-2.400	1.700																			1580025734.0	9.13	16.91
26/01/2020 08:02:15	26012020	260120	080215	175.670	12.658845	-57.245023	175.700	-0.440	-0.480	1.460	175.670	-1.900	1.900																			1580025735.0	9.11	16.87
26/01/2020 08:02:16	26012020	260120	080216	175.770	12.658803	-57.245023	175.790	-0.370	0.150	1.360	175.770	-1.300	1.800																			1580025736.0	8.91	16.50
26/01/2020 08:02:17	26012020	260120	080217	175.830	12.658762	-57.245020	175.820	-0.360	0.580	1.220	175.830	-0.800	1.700																			1580025737.0	8.89	16.46
26/01/2020 08:02:18	26012020	260120	080218	175.750	12.658720	-57.245018	175.710	-0.370	0.660	1.210	175.750	-0.700	1.600																			1580025738.0	9.08	16.82
26/01/2020 08:02:19	26012020	260120	080219	175.560	12.658677	-57.245017	175.510	-0.270	0.490	1.280	175.560	-0.900	1.700																			1580025739.0	9.28	17.19
26/01/2020 08:02:20	26012020	260120	080220	175.290	12.658633	-57.245015	175.240	-0.050	0.280	1.360	175.290	-1.100	1.800																			1580025740.0	9.30	17.22
26/01/2020 08:02:21	26012020	260120	080221	175.040	12.658590	-57.245015	175.000	0.210	0.130	1.460	175.040	-1.200	1.900																			1580025741.0	9.12	16.89
26/01/2020 08:02:22	26012020	260120	080222	174.960	12.658550	-57.245015	174.970	0.360	0.080	1.400	174.960	-1.300	1.800																			1580025742.0	8.87	16.43
26/01/2020 08:02:23	26012020	260120	080223	175.170	12.658510	-57.245015	175.210	0.360	0.050	1.060	175.170	-1.300	1.500																			1580025743.0	8.58	15.89
26/01/2020 08:02:24	26012020	260120	080224	175.500	12.658470	-57.245013	175.530	0.330	-0.180	0.670	175.500	-1.500	1.100																			1580025744.0	8.45	15.65
26/01/2020 08:02:25	26012020	260120	080225	175.740	12.658430	-57.245012	175.750	0.380	-0.690	0.430	175.740	-2.000	0.900																			1580025745.0	8.71	16.13
26/01/2020 08:02:26	26012020	260120	080226	175.850	12.658388	-57.245008	175.830	0.450	-1.150	0.400	175.850	-2.500	0.800																			1580025746.0	9.01	16.69
26/01/2020 08:02:27	26012020	260120	080227	175.900	12.658345	-57.245007	175.890	0.360	-1.270	0.590	175.900	-2.700	1.000																			1580025747.0	9.06	16.78
26/01/2020 08:02:28	26012020	260120	080228	176.000	12.658305	-57.245007	176.010	0.010	-0.910	0.860	176.000	-2.300	1.300																			1580025748.0	8.89	16.46
26/01/2020 08:02:29	26012020	260120	080229	176.110	12.658265	-57.245007	176.110	-0.470	-0.240	1.180	176.110	-1.700	1.600																			1580025749.0	8.60	15.93
26/01/2020 08:02:30	26012020	260120	080230	176.120	12.658225	-57.245008	176.080	-0.720	0.250	1.360	176.120	-1.200	1.800																			1580025750.0	8.55	15.83
26/01/2020 08:02:31	26012020	260120	080231	175.950	12.658183	-57.245008	175.880	-0.550	0.210	1.490	175.950	-1.200	1.900																			1580025751.0	8.99	16.65
26/01/2020 08:02:32	26012020	260120	080232	175.670	12.658138	-57.245008	175.620	-0.160	-0.050	1.550	175.670	-1.400	2.000																			1580025752.0	9.55	17.69
26/01/2020 08:02:33	26012020	260120	080233	175.510	12.658093	-57.245007	175.470	0.070	-0.020	1.370	175.510	-1.400	1.800																			1580025753.0	9.52	17.63
26/01/2020 08:02:34	26012020	260120	080234	175.440	12.658053	-57.245005	175.400	0.020	0.260	1.080	175.440	-1.200	1.500																			1580025754.0	8.94	16.56
26/01/2020 08:02:35	26012020	260120	080235	175.400	12.658013	-57.245003	175.350	-0.120	0.400	0.830	175.390	-1.000	1.300																			1580025755.0	8.60	15.93
26/01/2020 08:02:36	26012020	260120	080236	175.360	12.657972	-57.245003	175.330	-0.100	0.140	0.740	175.360	-1.200	1.200																			1580025756.0	8.78	16.26
26/01/2020 08:02:37	26012020	260120	080237	175.410	12.657930	-57.245003	175.400	0.130	-0.270	0.670	175.410	-1.600	1.100																			1580025757.0	9.13	16.91
26/01/2020 08:02:38	26012020	260120	080238	175.660	12.657887	-57.245002	175.700	0.410	-0.480	0.440	175.660	-1.900	0.900																			1580025758.0	9.13	16.91
26/01/2020 08:02:39	26012020	260120	080239	176.130	12.657847	-57.245000	176.200	0.450	-0.360	0.200	176.130	-1.800	0.600																			1580025759.0	8.80	16.30
26/01/2020 08:02:40	26012020	260120	080240	176.640	12.657807	-57.244997	176.680	0.220	-0.190	0.240	176.640	-1.600	0.700																			1580025760.0	8.44	15.63
26/01/2020 08:02:41	26012020	260120	080241	176.950	12.657768	-57.244997	176.940	-0.020	-0.260	0.570	176.950	-1.600	1.000																			1580025761.0	8.46	15.67
26/01/2020 08:02:42	26012020	260120	080242	176.890	12.657727	-57.244997	176.810	0.020	-0.640	1.070	176.890	-2.000	1.500																			1580025762.0	8.91	16.50
26/01/2020 08:02:43	26012020	260120	080243	176.450	12.657683	-57.244998	176.350	0.250	-0.890	1.670	176.450	-2.300	2.000																			1580025763.0	9.34	17.30
26/01/2020 08:02:44	26012020	260120	080244	175.950	12.657640	-57.244998	175.870	0.270	-0.560	2.070	175.950	-2.000	2.500																			1580025764.0	9.22	17.08
26/01/2020 08:02:45	26012020	260120	080245	175.680	12.657600	-57.244998	175.640	-0.060	0.150	2.040	175.680	-1.300	2.500																			1580025765.0	8.61	15.95
26/01/2020 08:02:46	26012020	260120	080246	175.610	12.657562	-57.244998	175.580	-0.480	0.550	1.780	175.610	-0.800	2.200																			1580025766.0	8.35	15.46
26/01/2020 08:02:47	26012020	260120	080247	175.540	12.657520	-57.244998	175.510	-0.600	0.280	1.570	175.540	-1.100	2.000																			1580025767.0	8.82	16.33
26/01/2020 08:02:48	26012020	260120	080248	175.520	12.657477	-57.245000	175.520	-0.300	-0.200	1.250	175.520	-1.600	1.700																			1580025768.0	9.42	17.45
26/01/2020 08:02:49	26012020	260120	080249	175.710	12.657433	-57.244998	175.730	0.130	-0.380	0.730	175.710	-1.800	1.200																			1580025769.0	9.33	17.28
26/01/2020 08:02:50	26012020	260120	080250	176.030	12.657392	-57.244997	176.050	0.360	-0.310	0.210	176.030	-1.700	0.700																			1580025770.0	8.87	16.43
26/01/2020 08:02:51	26012020	260120	080251	176.380	12.657352	-57.244993	176.390	0.290	-0.290	-0.060	176.380	-1.700	0.400																			1580025771.0	8.66	16.04
26/01/2020 08:02:52	26012020	260120	080252	176.670	12.657310	-57.244990	176.660	0.070	-0.400	0.010	176.670	-1.800	0.400																			1580025772.0	8.79	16.28
26/01/2020 08:02:53	26012020	260120	080253	176.880	12.657268	-57.244990	176.860	-0.090	-0.500	0.250	176.880	-1.900	0.700																			1580025773.0	8.97	16.61
26/01/2020 08:02:54	26012020	260120	080254	176.960	12.657227	-57.244990	176.920	-0.150	-0.520	0.630	176.960	-1.900	1.000																			1580025774.0	9.04	16.74
26/01/2020 08:02:55	26012020	260120	080255	176.910	12.657185	-57.244992	176.870	-0.160	-0.340	1.080	176.910	-1.800	1.500																			1580025775.0	9.05	16.76
26/01/2020 08:02:56	26012020	260120	080256	176.850	12.657143	-57.244992	176.790	-0.160	0.060	1.380	176.850	-1.400	1.800																			1580025776.0	8.86	16.41
26/01/2020 08:02:57	26012020	260120	080257	176.690	12.657103	-57.244992	176.620	-0.100	0.400	1.480	176.690	-1.000	1.900																			1580025777.0	8.65	16.02
26/01/2020 08:02:58	26012020	260120	080258	176.460	12.657063	-57.244992	176.380	0.010	0.420	1.440	176.460	-1.000	1.900																			1580025778.0	8.77	16.24
26/01/2020 08:02:59	26012020	260120	080259	176.260	12.657020	-57.244990	176.180	0.150	0.200	1.330	176.260	-1.200	1.800																			1580025779.0	9.01	16.69
26/01/2020 08:03:00	26012020	260120	080300	176.080	12.656978	-57.244988	176.010	0.290	-0.060	1.120	176.080	-1.400	1.600	1013.70	25.60	25.60	19.80	19.90	-1.00	70.00	70.00	413.00	25.20	311.00	9.10	97.00	7.00	14	3243.00	27.40	27.40	1580025780.0	9.06	16.78
26/01/2020 08:03:01	26012020	260120	080301	176.010	12.656937	-57.244988	175.960	0.350	-0.230	0.820	176.010	-1.600	1.300																			1580025781.0	8.94	16.56
26/01/2020 08:03:02	26012020	260120	080302	176.060	12.656897	-57.244987	176.010	0.290	-0.320	0.700	176.060	-1.700	1.100																			1580025782.0	8.73	16.17
26/01/2020 08:03:03	26012020	260120	080303	176.180	12.656857	-57.244987	176.150	0.170	-0.450	0.670	176.180	-1.800	1.100																			1580025783.0	8.65	16.02
26/01/2020 08:03:04	26012020	260120	080304	176.410	12.656815	-57.244988	176.420	0.040	-0.660	0.590	176.410	-2.000	1.000																			1580025784.0	8.80	16.30
26/01/2020 08:03:05	26012020	260120	080305	176.700	12.656773	-57.244988	176.700	-0.090	-0.830	0.550	176.700	-2.200	1.000																			1580025785.0	8.94	16.56
26/01/2020 08:03:06	26012020	260120	080306	176.940	12.656732	-57.244990	176.920	-0.170	-0.850	0.650	176.940	-2.200	1.100																			1580025786.0	9.00	16.67
26/01/2020 08:03:07	26012020	260120	080307	177.030	12.656690	-57.244990	176.980	-0.160	-0.710	0.810	177.030	-2.100	1.200																			1580025787.0	8.99	16.65
26/01/2020 08:03:08	26012020	260120	080308	176.980	12.656648	-57.244988	176.920	-0.120	-0.460	1.010	176.980	-1.900	1.400																			1580025788.0	9.07	16.80
26/01/2020 08:03:09	26012020	260120	080309	176.990	12.656605	-57.244988	176.970	-0.230	-0.040	1.160	176.990	-1.500	1.600																			1580025789.0	9.09	16.83
26/01/2020 08:03:10	26012020	260120	080310	177.120	12.656563	-57.244987	177.110	-0.490	0.420	1.320	177.120	-1.000	1.700																			1580025790.0	8.96	16.59
26/01/2020 08:03:11	26012020	260120	080311	177.250	12.656523	-57.244987	177.230	-0.670	0.730	1.420	177.250	-0.700	1.800																			1580025791.0	8.84	16.37
26/01/2020 08:03:12	26012020	260120	080312	177.230	12.656482	-57.244988	177.190	-0.500	0.680	1.360	177.230	-0.700	1.800																			1580025792.0	8.93	16.54
26/01/2020 08:03:13	26012020	260120	080313	177.120	12.656438	-57.244988	177.070	0.040	0.330	1.110	177.120	-1.000	1.600																			1580025793.0	9.17	16.98
26/01/2020 08:03:14	26012020	260120	080314	177.060	12.656397	-57.244987	177.020	0.590	0.020	0.740	177.060	-1.300	1.200																			1580025794.0	9.19	17.02
26/01/2020 08:03:15	26012020	260120	080315	177.130	12.656355	-57.244983	177.100	0.790	-0.100	0.340	177.130	-1.500	0.800																			1580025795.0	8.88	16.45
26/01/2020 08:03:16	26012020	260120	080316	177.290	12.656315	-57.244980	177.250	0.600	-0.210	0.080	177.290	-1.600	0.500																			1580025796.0	8.51	15.76
26/01/2020 08:03:17	26012020	260120	080317	177.350	12.656275	-57.244980	177.290	0.310	-0.570	0.250	177.350	-1.900	0.600																			1580025797.0	8.52	15.78
26/01/2020 08:03:18	26012020	260120	080318	177.290	12.656235	-57.244983	177.240	0.150	-1.020	0.650	177.290	-2.400	1.000																			1580025798.0	8.94	16.56
26/01/2020 08:03:19	26012020	260120	080319	177.330	12.656192	-57.244987	177.310	0.070	-1.130	0.920	177.330	-2.500	1.300																			1580025799.0	9.13	16.91
26/01/2020 08:03:20	26012020	260120	080320	177.460	12.656150	-57.244988	177.430	-0.060	-0.850	1.030	177.460	-2.300	1.400																			1580025800.0	8.89	16.46
26/01/2020 08:03:21	26012020	260120	080321	177.560	12.656110	-57.244990	177.510	-0.230	-0.440	1.030	177.560	-1.800	1.500																			1580025801.0	8.72	16.15
26/01/2020 08:03:22	26012020	260120	080322	177.610	12.656070	-57.244990	177.540	-0.340	-0.120	0.910	177.610	-1.500	1.300																			1580025802.0	8.82	16.33
26/01/2020 08:03:23	26012020	260120	080323	177.570	12.656027	-57.244990	177.500	-0.360	0.040	0.800	177.570	-1.300	1.200																			1580025803.0	9.08	16.82
26/01/2020 08:03:24	26012020	260120	080324	177.540	12.655983	-57.244988	177.480	-0.370	0.190	0.730	177.540	-1.200	1.200																			1580025804.0	9.27	17.17
26/01/2020 08:03:25	26012020	260120	080325	177.580	12.655942	-57.244988	177.550	-0.380	0.510	0.640	177.600	-0.900	1.100																			1580025805.0	9.03	16.72
26/01/2020 08:03:26	26012020	260120	080326	177.660	12.655902	-57.244988	177.590	-0.280	0.610	0.520	177.660	-0.800	0.900																			1580025806.0	8.72	16.15
26/01/2020 08:03:27	26012020	260120	080327	177.550	12.655860	-57.244988	177.450	0.000	0.180	0.580	177.550	-1.200	1.000																			1580025807.0	8.96	16.59
26/01/2020 08:03:28	26012020	260120	080328	177.310	12.655817	-57.244988	177.230	0.300	-0.410	0.920	177.310	-1.800	1.300																			1580025808.0	9.38	17.37
26/01/2020 08:03:29	26012020	260120	080329	177.190	12.655773	-57.244990	177.140	0.390	-0.580	1.120	177.190	-2.000	1.500																			1580025809.0	9.30	17.22
26/01/2020 08:03:30	26012020	260120	080330	177.240	12.655733	-57.244992	177.190	0.270	-0.340	1.050	177.240	-1.700	1.500																			1580025810.0	8.68	16.08
26/01/2020 08:03:31	26012020	260120	080331	177.280	12.655693	-57.244992	177.220	0.180	-0.230	0.920	177.280	-1.600	1.400																			1580025811.0	8.40	15.56
26/01/2020 08:03:32	26012020	260120	080332	177.300	12.655653	-57.244992	177.230	0.200	-0.440	0.860	177.300	-1.800	1.300																			1580025812.0	8.77	16.24
26/01/2020 08:03:33	26012020	260120	080333	177.270	12.655610	-57.244992	177.200	0.180	-0.680	0.910	177.270	-2.000	1.300																			1580025813.0	9.16	16.96
26/01/2020 08:03:34	26012020	260120	080334	177.190	12.655567	-57.244992	177.130	0.010	-0.620	1.030	177.190	-2.000	1.400																			1580025814.0	9.18	17.00
26/01/2020 08:03:35	26012020	260120	080335	177.120	12.655527	-57.244993	177.060	-0.230	-0.240	1.150	177.120	-1.600	1.600																			1580025815.0	8.93	16.54
26/01/2020 08:03:36	26012020	260120	080336	177.110	12.655485	-57.244995	177.060	-0.370	0.240	1.210	177.110	-1.200	1.600																			1580025816.0	8.66	16.04
26/01/2020 08:03:37	26012020	260120	080337	177.130	12.655445	-57.244995	177.080	-0.300	0.410	1.200	177.130	-1.000	1.600																			1580025817.0	8.65	16.02
26/01/2020 08:03:38	26012020	260120	080338	177.100	12.655403	-57.244995	177.040	-0.040	0.170	1.160	177.100	-1.200	1.600																			1580025818.0	9.00	16.67
26/01/2020 08:03:39	26012020	260120	080339	176.970	12.655360	-57.244995	176.910	0.230	-0.170	1.150	176.970	-1.500	1.600																			1580025819.0	9.30	17.22
26/01/2020 08:03:40	26012020	260120	080340	176.900	12.655318	-57.244995	176.870	0.290	-0.230	1.050	176.900	-1.600	1.500																			1580025820.0	9.16	16.96
26/01/2020 08:03:41	26012020	260120	080341	177.000	12.655277	-57.244993	176.980	0.130	-0.140	0.890	177.000	-1.500	1.300																			1580025821.0	8.72	16.15
26/01/2020 08:03:42	26012020	260120	080342	177.050	12.655237	-57.244993	177.000	-0.020	-0.300	0.880	177.050	-1.600	1.300																			1580025822.0	8.64	16.00
26/01/2020 08:03:43	26012020	260120	080343	176.940	12.655195	-57.244993	176.880	0.000	-0.680	1.080	176.940	-2.000	1.500																			1580025823.0	9.04	16.74
26/01/2020 08:03:44	26012020	260120	080344	176.810	12.655152	-57.244995	176.780	0.080	-0.840	1.200	176.810	-2.200	1.600																			1580025824.0	9.32	17.26
26/01/2020 08:03:45	26012020	260120	080345	176.880	12.655110	-57.244995	176.890	0.010	-0.500	1.150	176.880	-1.900	1.600																			1580025825.0	9.03	16.72
26/01/2020 08:03:46	26012020	260120	080346	177.130	12.655070	-57.244995	177.140	-0.170	0.010	1.030	177.130	-1.400	1.500																			1580025826.0	8.58	15.89
26/01/2020 08:03:47	26012020	260120	080347	177.300	12.655030	-57.244995	177.290	-0.220	0.180	0.890	177.300	-1.200	1.300																			1580025827.0	8.59	15.91
26/01/2020 08:03:48	26012020	260120	080348	177.380	12.654988	-57.244993	177.360	-0.090	0.020	0.710	177.380	-1.300	1.100																			1580025828.0	9.09	16.83
26/01/2020 08:03:49	26012020	260120	080349	177.490	12.654945	-57.244992	177.470	0.020	-0.110	0.620	177.490	-1.500	1.000																			1580025829.0	9.28	17.19
26/01/2020 08:03:50	26012020	260120	080350	177.570	12.654902	-57.244990	177.530	0.020	-0.160	0.670	177.570	-1.500	1.100																			1580025830.0	9.14	16.93
26/01/2020 08:03:51	26012020	260120	080351	177.570	12.654860	-57.244990	177.490	-0.080	-0.170	0.880	177.550	-1.500	1.300																			1580025831.0	9.03	16.72
26/01/2020 08:03:52	26012020	260120	080352	177.400	12.654818	-57.244992	177.350	-0.140	-0.120	1.290	177.400	-1.500	1.700																			1580025832.0	8.95	16.58
26/01/2020 08:03:53	26012020	260120	080353	177.220	12.654777	-57.244995	177.150	-0.070	-0.100	1.550	177.220	-1.500	2.000																			1580025833.0	8.91	16.50
26/01/2020 08:03:54	26012020	260120	080354	176.970	12.654735	-57.244997	176.920	0.100	-0.140	1.540	176.970	-1.500	2.000																			1580025834.0	8.97	16.61
26/01/2020 08:03:55	26012020	260120	080355	176.850	12.654693	-57.244997	176.840	0.150	-0.100	1.290	176.850	-1.500	1.700																			1580025835.0	8.98	16.63
26/01/2020 08:03:56	26012020	260120	080356	176.960	12.654653	-57.244997	176.970	-0.000	-0.030	0.930	176.960	-1.400	1.400																			1580025836.0	8.77	16.24
26/01/2020 08:03:57	26012020	260120	080357	177.160	12.654613	-57.244997	177.150	-0.150	-0.110	0.580	177.160	-1.500	1.000																			1580025837.0	8.70	16.11
26/01/2020 08:03:58	26012020	260120	080358	177.320	12.654572	-57.244997	177.300	-0.070	-0.330	0.330	177.320	-1.700	0.800																			1580025838.0	8.90	16.48
26/01/2020 08:03:59	26012020	260120	080359	177.450	12.654530	-57.244995	177.420	0.210	-0.530	0.150	177.450	-1.900	0.600																			1580025839.0	9.04	16.74
26/01/2020 08:04:00	26012020	260120	080400	177.510	12.654487	-57.244993	177.460	0.410	-0.610	0.170	177.510	-2.000	0.600	1013.60	25.60	25.60	19.80	19.80	-1.00	70.00	70.00	413.00	25.20	308.00	8.50	93.00	6.80	14	3258.00	27.40	27.40	1580025840.0	9.03	16.72
26/01/2020 08:04:01	26012020	260120	080401	177.500	12.654445	-57.244992	177.460	0.340	-0.550	0.400	177.500	-1.900	0.800																			1580025841.0	8.96	16.59
26/01/2020 08:04:02	26012020	260120	080402	177.470	12.654405	-57.244992	177.430	0.020	-0.410	0.730	177.470	-1.800	1.100																			1580025842.0	8.91	16.50
26/01/2020 08:04:03	26012020	260120	080403	177.390	12.654363	-57.244993	177.330	-0.310	-0.250	1.160	177.390	-1.600	1.500																			1580025843.0	8.96	16.59
26/01/2020 08:04:04	26012020	260120	080404	177.240	12.654320	-57.244997	177.190	-0.440	-0.120	1.510	177.240	-1.500	1.900																			1580025844.0	9.08	16.82
26/01/2020 08:04:05	26012020	260120	080405	177.140	12.654278	-57.244998	177.100	-0.320	0.050	1.490	177.140	-1.300	1.900																			1580025845.0	9.10	16.85
26/01/2020 08:04:06	26012020	260120	080406	177.080	12.654237	-57.244998	177.040	-0.100	0.150	1.230	177.080	-1.200	1.700																			1580025846.0	9.03	16.72
26/01/2020 08:04:07	26012020	260120	080407	177.030	12.654193	-57.244997	177.000	0.010	0.140	0.910	177.030	-1.200	1.400																			1580025847.0	9.10	16.85
26/01/2020 08:04:08	26012020	260120	080408	177.020	12.654152	-57.244995	177.000	-0.090	0.130	0.710	177.020	-1.200	1.100																			1580025848.0	9.04	16.74
26/01/2020 08:04:09	26012020	260120	080409	176.990	12.654110	-57.244993	176.950	-0.210	0.020	0.710	176.990	-1.300	1.100																			1580025849.0	8.88	16.45
26/01/2020 08:04:10	26012020	260120	080410	176.870	12.654068	-57.244995	176.840	-0.110	-0.280	0.820	176.870	-1.600	1.200																			1580025850.0	9.03	16.72
26/01/2020 08:04:11	26012020	260120	080411	176.840	12.654027	-57.244997	176.830	0.130	-0.460	0.930	176.840	-1.800	1.300																			1580025851.0	9.18	17.00
26/01/2020 08:04:12	26012020	260120	080412	176.940	12.653985	-57.244997	176.950	0.280	-0.350	0.980	176.940	-1.700	1.400																			1580025852.0	8.93	16.54
26/01/2020 08:04:13	26012020	260120	080413	177.100	12.653945	-57.244998	177.090	0.250	-0.140	0.880	177.100	-1.500	1.300																			1580025853.0	8.59	15.91
26/01/2020 08:04:14	26012020	260120	080414	177.130	12.653905	-57.244997	177.100	0.190	-0.130	0.800	177.130	-1.500	1.200																			1580025854.0	8.60	15.93
26/01/2020 08:04:15	26012020	260120	080415	177.040	12.653863	-57.244997	176.960	0.190	-0.330	0.840	177.010	-1.700	1.300																			1580025855.0	8.90	16.48
26/01/2020 08:04:16	26012020	260120	080416	176.840	12.653822	-57.244997	176.790	0.230	-0.490	0.910	176.840	-1.900	1.300																			1580025856.0	9.15	16.95
26/01/2020 08:04:17	26012020	260120	080417	176.710	12.653778	-57.244997	176.650	0.210	-0.410	0.950	176.690	-1.800	1.400																			1580025857.0	9.08	16.82
26/01/2020 08:04:18	26012020	260120	080418	176.710	12.653737	-57.244997	176.690	0.070	-0.140	0.760	176.710	-1.500	1.200																			1580025858.0	8.85	16.39
26/01/2020 08:04:19	26012020	260120	080419	176.960	12.653697	-57.244995	176.970	-0.140	0.050	0.420	176.960	-1.300	0.900																			1580025859.0	8.71	16.13
26/01/2020 08:04:20	26012020	260120	080420	177.270	12.653657	-57.244993	177.270	-0.270	-0.070	0.260	177.270	-1.400	0.700																			1580025860.0	8.84	16.37
26/01/2020 08:04:21	26012020	260120	080421	177.480	12.653613	-57.244992	177.460	-0.230	-0.390	0.350	177.480	-1.700	0.800																			1580025861.0	9.16	16.96
26/01/2020 08:04:22	26012020	260120	080422	177.530	12.653570	-57.244992	177.480	-0.150	-0.650	0.650	177.530	-2.000	1.000																			1580025862.0	9.33	17.28
26/01/2020 08:04:23	26012020	260120	080423	177.450	12.653527	-57.244993	177.400	-0.150	-0.700	1.020	177.450	-2.100	1.400																			1580025863.0	9.30	17.22
26/01/2020 08:04:24	26012020	260120	080424	177.350	12.653483	-57.244995	177.290	-0.240	-0.450	1.260	177.350	-1.900	1.700																			1580025864.0	9.16	16.96
26/01/2020 08:04:25	26012020	260120	080425	177.270	12.653443	-57.244995	177.220	-0.360	0.050	1.260	177.270	-1.400	1.700																			1580025865.0	8.90	16.48
26/01/2020 08:04:26	26012020	260120	080426	177.220	12.653402	-57.244997	177.170	-0.380	0.460	1.130	177.220	-0.900	1.600																			1580025866.0	8.72	16.15
26/01/2020 08:04:27	26012020	260120	080427	177.170	12.653362	-57.244997	177.110	-0.210	0.560	0.930	177.170	-0.800	1.400																			1580025867.0	8.85	16.39
26/01/2020 08:04:28	26012020	260120	080428	177.090	12.653318	-57.244997	177.030	0.100	0.380	0.730	177.090	-1.000	1.200																			1580025868.0	9.09	16.83
26/01/2020 08:04:29	26012020	260120	080429	177.060	12.653277	-57.244995	177.010	0.360	0.190	0.620	177.060	-1.200	1.000																			1580025869.0	9.13	16.91
26/01/2020 08:04:30	26012020	260120	080430	177.080	12.653235	-57.244995	177.040	0.460	0.070	0.580	177.080	-1.300	1.000																			1580025870.0	8.87	16.43
26/01/2020 08:04:31	26012020	260120	080431	177.040	12.653195	-57.244995	176.980	0.480	-0.190	0.610	177.040	-1.500	1.000																			1580025871.0	8.67	16.06
26/01/2020 08:04:32	26012020	260120	080432	176.920	12.653153	-57.244997	176.860	0.490	-0.590	0.740	176.920	-1.900	1.100																			1580025872.0	8.83	16.35
26/01/2020 08:04:33	26012020	260120	080433	176.820	12.653112	-57.244997	176.760	0.480	-0.880	0.930	176.820	-2.200	1.300																			1580025873.0	8.98	16.63
26/01/2020 08:04:34	26012020	260120	080434	176.790	12.653070	-57.244997	176.760	0.330	-0.950	0.970	176.790	-2.300	1.400																			1580025874.0	8.93	16.54
26/01/2020 08:04:35	26012020	260120	080435	176.890	12.653030	-57.244997	176.870	0.040	-0.850	0.870	176.890	-2.200	1.300																			1580025875.0	8.86	16.41
26/01/2020 08:04:36	26012020	260120	080436	177.100	12.652988	-57.244997	177.100	-0.290	-0.630	0.710	177.100	-2.000	1.100																			1580025876.0	8.88	16.45
26/01/2020 08:04:37	26012020	260120	080437	177.320	12.652947	-57.244995	177.290	-0.480	-0.410	0.520	177.320	-1.800	1.000																			1580025877.0	8.94	16.56
26/01/2020 08:04:38	26012020	260120	080438	177.400	12.652903	-57.244993	177.350	-0.490	-0.320	0.430	177.400	-1.700	0.900																			1580025878.0	9.16	16.96
26/01/2020 08:04:39	26012020	260120	080439	177.390	12.652860	-57.244992	177.330	-0.490	-0.200	0.560	177.390	-1.600	1.000																			1580025879.0	9.39	17.39
26/01/2020 08:04:40	26012020	260120	080440	177.290	12.652817	-57.244993	177.230	-0.550	0.080	0.900	177.290	-1.300	1.300																			1580025880.0	9.34	17.30
26/01/2020 08:04:41	26012020	260120	080441	177.100	12.652773	-57.244995	177.020	-0.570	0.440	1.270	177.100	-1.000	1.700																			1580025881.0	9.15	16.95
26/01/2020 08:04:42	26012020	260120	080442	176.810	12.652732	-57.244998	176.740	-0.410	0.700	1.510	176.810	-0.700	1.900																			1580025882.0	9.01	16.69
26/01/2020 08:04:43	26012020	260120	080443	176.560	12.652690	-57.244998	176.520	-0.040	0.690	1.480	176.560	-0.700	1.900																			1580025883.0	9.01	16.69
26/01/2020 08:04:44	26012020	260120	080444	176.470	12.652648	-57.244998	176.460	0.360	0.490	1.100	176.470	-0.900	1.600																			1580025884.0	9.03	16.72
26/01/2020 08:04:45	26012020	260120	080445	176.530	12.652607	-57.244997	176.530	0.650	0.160	0.600	176.530	-1.200	1.100																			1580025885.0	8.95	16.58
26/01/2020 08:04:46	26012020	260120	080446	176.660	12.652565	-57.244993	176.670	0.720	-0.280	0.330	176.660	-1.600	0.800																			1580025886.0	8.87	16.43
26/01/2020 08:04:47	26012020	260120	080447	176.840	12.652525	-57.244993	176.860	0.600	-0.680	0.370	176.840	-2.000	0.800																			1580025887.0	8.82	16.33
26/01/2020 08:04:48	26012020	260120	080448	177.020	12.652483	-57.244993	177.020	0.420	-0.970	0.550	177.020	-2.300	1.000																			1580025888.0	8.78	16.26
26/01/2020 08:04:49	26012020	260120	080449	177.130	12.652443	-57.244995	177.120	0.300	-1.090	0.720	177.130	-2.500	1.100																			1580025889.0	8.81	16.32
26/01/2020 08:04:50	26012020	260120	080450	177.260	12.652402	-57.244995	177.260	0.190	-0.960	0.790	177.260	-2.400	1.200																			1580025890.0	8.82	16.33
26/01/2020 08:04:51	26012020	260120	080451	177.400	12.652362	-57.244995	177.400	-0.020	-0.680	0.760	177.400	-2.100	1.200																			1580025891.0	8.78	16.26
26/01/2020 08:04:52	26012020	260120	080452	177.530	12.652320	-57.244993	177.510	-0.300	-0.450	0.630	177.530	-1.800	1.100																			1580025892.0	8.91	16.50
26/01/2020 08:04:53	26012020	260120	080453	177.580	12.652277	-57.244993	177.550	-0.520	-0.250	0.580	177.580	-1.700	1.000																			1580025893.0	9.17	16.98
26/01/2020 08:04:54	26012020	260120	080454	177.530	12.652233	-57.244992	177.480	-0.580	0.030	0.620	177.530	-1.400	1.000																			1580025894.0	9.26	17.15
26/01/2020 08:04:55	26012020	260120	080455	177.450	12.652192	-57.244992	177.410	-0.530	0.340	0.680	177.450	-1.100	1.100																			1580025895.0	9.16	16.96
26/01/2020 08:04:56	26012020	260120	080456	177.360	12.652148	-57.244992	177.310	-0.390	0.430	0.790	177.360	-0.900	1.200																			1580025896.0	9.11	16.87
26/01/2020 08:04:57	26012020	260120	080457	177.170	12.652105	-57.244993	177.100	-0.170	0.220	0.990	177.170	-1.100	1.400																			1580025897.0	9.29	17.21
26/01/2020 08:04:58	26012020	260120	080458	176.880	12.652062	-57.244993	176.830	0.020	0.020	1.290	176.880	-1.400	1.700																			1580025898.0	9.43	17.46
26/01/2020 08:04:59	26012020	260120	080459	176.730	12.652020	-57.244995	176.710	0.100	0.070	1.360	176.730	-1.300	1.800																			1580025899.0	9.16	16.96
26/01/2020 08:05:00	26012020	260120	080500	176.790	12.651978	-57.244997	176.790	0.090	0.160	1.150	176.790	-1.200	1.600	1013.70	25.60	25.70	19.60	19.70	-1.00	69.00	69.00	412.00	25.20	313.00	8.50	98.00	6.40	14	3267.00	27.40	27.40	1580025900.0	8.75	16.21
26/01/2020 08:05:01	26012020	260120	080501	176.910	12.651938	-57.244998	176.910	0.140	0.030	0.940	176.910	-1.300	1.400																			1580025901.0	8.68	16.08
26/01/2020 08:05:02	26012020	260120	080502	177.030	12.651897	-57.244998	177.010	0.340	-0.290	0.670	177.030	-1.700	1.100																			1580025902.0	8.90	16.48
26/01/2020 08:05:03	26012020	260120	080503	177.150	12.651855	-57.244997	177.140	0.550	-0.510	0.370	177.150	-1.900	0.800																			1580025903.0	9.01	16.69
26/01/2020 08:05:04	26012020	260120	080504	177.310	12.651813	-57.244993	177.290	0.520	-0.480	0.200	177.310	-1.900	0.600																			1580025904.0	8.84	16.37
26/01/2020 08:05:05	26012020	260120	080505	177.420	12.651773	-57.244992	177.400	0.270	-0.390	0.240	177.440	-1.800	0.700																			1580025905.0	8.59	15.91
26/01/2020 08:05:06	26012020	260120	080506	177.370	12.651733	-57.244992	177.300	0.030	-0.540	0.600	177.370	-1.900	1.000																			1580025906.0	8.72	16.15
26/01/2020 08:05:07	26012020	260120	080507	177.160	12.651690	-57.244993	177.100	-0.020	-0.780	1.090	177.160	-2.200	1.500																			1580025907.0	9.20	17.04
26/01/2020 08:05:08	26012020	260120	080508	177.030	12.651648	-57.244995	177.010	-0.020	-0.690	1.420	177.030	-2.100	1.800																			1580025908.0	9.31	17.24
26/01/2020 08:05:09	26012020	260120	080509	177.080	12.651607	-57.244997	177.070	-0.110	-0.260	1.410	177.080	-1.700	1.800																			1580025909.0	8.97	16.61
26/01/2020 08:05:10	26012020	260120	080510	177.110	12.651565	-57.244995	177.070	-0.260	0.020	1.350	177.110	-1.400	1.800																			1580025910.0	8.74	16.19
26/01/2020 08:05:11	26012020	260120	080511	177.000	12.651523	-57.244995	176.950	-0.380	-0.070	1.360	177.000	-1.400	1.800																			1580025911.0	9.11	16.87
26/01/2020 08:05:12	26012020	260120	080512	176.820	12.651478	-57.244997	176.750	-0.400	-0.200	1.440	176.820	-1.600	1.900																			1580025912.0	9.50	17.59
26/01/2020 08:05:13	26012020	260120	080513	176.640	12.651435	-57.244998	176.610	-0.320	-0.050	1.350	176.640	-1.500	1.800																			1580025913.0	9.40	17.41
26/01/2020 08:05:14	26012020	260120	080514	176.680	12.651393	-57.244997	176.690	-0.210	0.360	0.940	176.680	-1.100	1.400																			1580025914.0	8.95	16.58
26/01/2020 08:05:15	26012020	260120	080515	176.840	12.651353	-57.244995	176.830	-0.120	0.540	0.490	176.840	-0.900	0.900																			1580025915.0	8.65	16.02
26/01/2020 08:05:16	26012020	260120	080516	177.000	12.651312	-57.244993	176.970	-0.020	0.260	0.170	177.000	-1.100	0.600																			1580025916.0	8.90	16.48
26/01/2020 08:05:17	26012020	260120	080517	177.120	12.651268	-57.244993	177.100	0.150	-0.150	0.160	177.120	-1.500	0.600																			1580025917.0	9.19	17.02
26/01/2020 08:05:18	26012020	260120	080518	177.260	12.651227	-57.244993	177.240	0.340	-0.320	0.270	177.260	-1.700	0.700																			1580025918.0	9.09	16.83
26/01/2020 08:05:19	26012020	260120	080519	177.390	12.651187	-57.244993	177.340	0.420	-0.340	0.420	177.390	-1.700	0.800																			1580025919.0	8.73	16.17
26/01/2020 08:05:20	26012020	260120	080520	177.330	12.651145	-57.244993	177.270	0.390	-0.500	0.790	177.330	-1.900	1.200																			1580025920.0	8.68	16.08
26/01/2020 08:05:21	26012020	260120	080521	177.150	12.651103	-57.244995	177.080	0.310	-0.720	1.240	177.150	-2.100	1.600																			1580025921.0	8.97	16.61
26/01/2020 08:05:22	26012020	260120	080522	177.020	12.651062	-57.244997	176.970	0.210	-0.660	1.440	177.020	-2.100	1.900																			1580025922.0	9.06	16.78
26/01/2020 08:05:23	26012020	260120	080523	177.000	12.651022	-57.244997	176.970	0.100	-0.380	1.340	177.000	-1.800	1.800																			1580025923.0	8.81	16.32
26/01/2020 08:05:24	26012020	260120	080524	176.990	12.650980	-57.244995	176.950	-0.040	-0.160	1.180	176.990	-1.500	1.600																			1580025924.0	8.72	16.15
26/01/2020 08:05:25	26012020	260120	080525	176.940	12.650938	-57.244993	176.900	-0.190	-0.150	1.010	176.940	-1.500	1.400																			1580025925.0	8.94	16.56
26/01/2020 08:05:26	26012020	260120	080526	176.900	12.650897	-57.244993	176.860	-0.340	-0.280	0.900	176.900	-1.600	1.300																			1580025926.0	9.21	17.06
26/01/2020 08:05:27	26012020	260120	080527	176.870	12.650853	-57.244993	176.840	-0.420	-0.370	0.940	176.870	-1.800	1.400																			1580025927.0	9.37	17.35
26/01/2020 08:05:28	26012020	260120	080528	176.940	12.650810	-57.244995	176.930	-0.390	-0.240	0.920	176.940	-1.600	1.300																			1580025928.0	9.30	17.22
26/01/2020 08:05:29	26012020	260120	080529	177.110	12.650767	-57.244995	177.110	-0.280	0.080	0.780	177.110	-1.300	1.200																			1580025929.0	9.01	16.69
26/01/2020 08:05:30	26012020	260120	080530	177.230	12.650727	-57.244995	177.190	-0.160	0.250	0.670	177.230	-1.100	1.100																			1580025930.0	8.81	16.32
26/01/2020 08:05:31	26012020	260120	080531	177.170	12.650685	-57.244995	177.110	-0.020	0.150	0.740	177.170	-1.200	1.100																			1580025931.0	8.97	16.61
26/01/2020 08:05:32	26012020	260120	080532	177.080	12.650642	-57.244995	177.040	0.100	0.010	0.820	177.080	-1.400	1.200																			1580025932.0	9.17	16.98
26/01/2020 08:05:33	26012020	260120	080533	177.100	12.650600	-57.244995	177.080	0.160	0.010	0.860	177.100	-1.400	1.300																			1580025933.0	9.02	16.71
26/01/2020 08:05:34	26012020	260120	080534	177.250	12.650560	-57.244995	177.240	0.150	0.040	0.850	177.250	-1.300	1.300																			1580025934.0	8.76	16.22
26/01/2020 08:05:35	26012020	260120	080535	177.390	12.650518	-57.244995	177.370	0.200	-0.150	0.830	177.390	-1.500	1.300																			1580025935.0	8.74	16.19
26/01/2020 08:05:36	26012020	260120	080536	177.420	12.650477	-57.244993	177.380	0.310	-0.510	0.870	177.420	-1.900	1.300																			1580025936.0	8.99	16.65
26/01/2020 08:05:37	26012020	260120	080537	177.320	12.650435	-57.244993	177.240	0.350	-0.800	1.140	177.320	-2.200	1.500																			1580025937.0	9.17	16.98
26/01/2020 08:05:38	26012020	260120	080538	177.140	12.650392	-57.244995	177.090	0.200	-0.800	1.390	177.140	-2.200	1.800																			1580025938.0	9.13	16.91
26/01/2020 08:05:39	26012020	260120	080539	177.070	12.650350	-57.244995	177.040	-0.080	-0.440	1.320	177.070	-1.900	1.800																			1580025939.0	8.88	16.45
26/01/2020 08:05:40	26012020	260120	080540	177.010	12.650310	-57.244995	176.970	-0.290	-0.100	1.110	177.010	-1.500	1.500																			1580025940.0	8.62	15.96
26/01/2020 08:05:41	26012020	260120	080541	176.970	12.650268	-57.244995	176.940	-0.300	-0.060	0.880	176.970	-1.400	1.300																			1580025941.0	8.91	16.50
26/01/2020 08:05:42	26012020	260120	080542	177.080	12.650227	-57.244993	177.070	-0.250	-0.050	0.680	177.080	-1.400	1.100																			1580025942.0	9.19	17.02
26/01/2020 08:05:43	26012020	260120	080543	177.140	12.650183	-57.244993	177.080	-0.190	-0.080	0.670	177.130	-1.500	1.100																			1580025943.0	9.15	16.95
26/01/2020 08:05:44	26012020	260120	080544	177.050	12.650140	-57.244995	177.000	-0.080	-0.170	0.820	177.050	-1.600	1.200																			1580025944.0	9.23	17.09
26/01/2020 08:05:45	26012020	260120	080545	177.030	12.650098	-57.244997	177.010	0.050	-0.050	0.920	177.030	-1.500	1.300																			1580025945.0	9.23	17.09
26/01/2020 08:05:46	26012020	260120	080546	177.200	12.650057	-57.244997	177.210	0.070	0.260	0.860	177.200	-1.100	1.300																			1580025946.0	8.83	16.35
26/01/2020 08:05:47	26012020	260120	080547	177.350	12.650017	-57.244995	177.330	0.040	0.290	0.780	177.350	-1.100	1.200																			1580025947.0	8.59	15.91
26/01/2020 08:05:48	26012020	260120	080548	177.290	12.649975	-57.244995	177.240	0.050	-0.130	0.850	177.290	-1.500	1.300																			1580025948.0	8.97	16.61
26/01/2020 08:05:49	26012020	260120	080549	177.140	12.649932	-57.244995	177.100	0.090	-0.540	1.050	177.140	-1.900	1.500																			1580025949.0	9.33	17.28
26/01/2020 08:05:50	26012020	260120	080550	177.070	12.649890	-57.244995	177.050	0.080	-0.580	1.190	177.070	-2.000	1.600																			1580025950.0	9.16	16.96
26/01/2020 08:05:51	26012020	260120	080551	177.080	12.649848	-57.244997	177.070	0.030	-0.430	1.100	177.080	-1.800	1.500																			1580025951.0	8.79	16.28
26/01/2020 08:05:52	26012020	260120	080552	177.120	12.649808	-57.244995	177.100	0.010	-0.360	0.820	177.120	-1.700	1.300																			1580025952.0	8.73	16.17
26/01/2020 08:05:53	26012020	260120	080553	177.160	12.649767	-57.244995	177.130	0.040	-0.490	0.570	177.160	-1.900	1.000																			1580025953.0	8.98	16.63
26/01/2020 08:05:54	26012020	260120	080554	177.170	12.649723	-57.244993	177.140	0.050	-0.660	0.510	177.170	-2.000	0.900																			1580025954.0	9.26	17.15
26/01/2020 08:05:55	26012020	260120	080555	177.170	12.649680	-57.244992	177.140	-0.050	-0.580	0.710	177.170	-2.000	1.100																			1580025955.0	9.33	17.28
26/01/2020 08:05:56	26012020	260120	080556	177.110	12.649637	-57.244993	177.080	-0.240	-0.210	1.090	177.110	-1.600	1.500																			1580025956.0	9.14	16.93
26/01/2020 08:05:57	26012020	260120	080557	177.030	12.649595	-57.244995	177.010	-0.370	0.290	1.360	177.030	-1.100	1.800																			1580025957.0	8.94	16.56
26/01/2020 08:05:58	26012020	260120	080558	177.030	12.649555	-57.244998	177.030	-0.350	0.690	1.330	177.030	-0.700	1.800																			1580025958.0	8.85	16.39
26/01/2020 08:05:59	26012020	260120	080559	177.140	12.649513	-57.244998	177.140	-0.180	0.800	1.060	177.140	-0.600	1.500																			1580025959.0	8.84	16.37
26/01/2020 08:06:00	26012020	260120	080600	177.270	12.649472	-57.244997	177.240	0.090	0.520	0.750	177.270	-0.800	1.200	1013.60	25.70	25.70	19.50	19.60	-1.00	69.00	69.00	411.00	25.20	310.00	8.90	96.00	6.90	14	3218.00	27.40	27.40	1580025960.0	8.95	16.58
26/01/2020 08:06:01	26012020	260120	080601	177.250	12.649430	-57.244997	177.190	0.420	-0.040	0.530	177.250	-1.400	1.000																			1580025961.0	9.11	16.87
26/01/2020 08:06:02	26012020	260120	080602	177.030	12.649387	-57.244993	176.960	0.670	-0.600	0.540	177.030	-1.900	1.000																			1580025962.0	9.23	17.09
26/01/2020 08:06:03	26012020	260120	080603	176.820	12.649345	-57.244993	176.760	0.640	-0.840	0.740	176.820	-2.200	1.100																			1580025963.0	9.09	16.83
26/01/2020 08:06:04	26012020	260120	080604	176.690	12.649303	-57.244993	176.660	0.340	-0.740	0.940	176.690	-2.100	1.400																			1580025964.0	8.72	16.15
26/01/2020 08:06:05	26012020	260120	080605	176.720	12.649263	-57.244995	176.710	-0.030	-0.590	1.030	176.720	-2.000	1.400																			1580025965.0	8.56	15.85
26/01/2020 08:06:06	26012020	260120	080606	176.830	12.649223	-57.244997	176.830	-0.210	-0.650	1.090	176.830	-2.000	1.500																			1580025966.0	8.75	16.21
26/01/2020 08:06:07	26012020	260120	080607	176.940	12.649180	-57.244998	176.930	-0.170	-0.850	1.070	176.940	-2.200	1.500																			1580025967.0	9.19	17.02
26/01/2020 08:06:08	26012020	260120	080608	176.980	12.649137	-57.244997	176.970	-0.080	-0.940	1.010	176.980	-2.300	1.400																			1580025968.0	9.48	17.56
26/01/2020 08:06:09	26012020	260120	080609	177.010	12.649093	-57.244995	177.010	-0.190	-0.610	0.950	177.010	-2.000	1.400																			1580025969.0	9.44	17.48
26/01/2020 08:06:10	26012020	260120	080610	177.100	12.649050	-57.244993	177.100	-0.490	0.040	0.890	177.100	-1.400	1.300																			1580025970.0	9.11	16.87
26/01/2020 08:06:11	26012020	260120	080611	177.170	12.649008	-57.244993	177.160	-0.730	0.660	0.810	177.170	-0.800	1.200																			1580025971.0	8.89	16.46
26/01/2020 08:06:12	26012020	260120	080612	177.270	12.648968	-57.244993	177.270	-0.680	1.020	0.680	177.270	-0.400	1.100																			1580025972.0	8.95	16.58
26/01/2020 08:06:13	26012020	260120	080613	177.400	12.648925	-57.244993	177.400	-0.350	0.990	0.540	177.400	-0.400	1.000																			1580025973.0	9.05	16.76
26/01/2020 08:06:14	26012020	260120	080614	177.470	12.648883	-57.244993	177.430	0.120	0.550	0.490	177.470	-0.800	0.900																			1580025974.0	9.19	17.02
26/01/2020 08:06:15	26012020	260120	080615	177.310	12.648840	-57.244993	177.240	0.580	-0.060	0.620	177.310	-1.400	1.000																			1580025975.0	9.30	17.22
26/01/2020 08:06:16	26012020	260120	080616	176.950	12.648797	-57.244993	176.870	0.860	-0.480	0.870	176.950	-1.800	1.300																			1580025976.0	9.22	17.08
26/01/2020 08:06:17	26012020	260120	080617	176.680	12.648755	-57.244993	176.660	0.800	-0.500	0.960	176.680	-1.900	1.400																			1580025977.0	8.83	16.35
26/01/2020 08:06:18	26012020	260120	080618	176.710	12.648717	-57.244993	176.720	0.450	-0.400	0.840	176.710	-1.800	1.300																			1580025978.0	8.38	15.52
26/01/2020 08:06:19	26012020	260120	080619	176.810	12.648677	-57.244995	176.850	0.140	-0.570	0.680	176.840	-1.900	1.100																			1580025979.0	8.43	15.61
26/01/2020 08:06:20	26012020	260120	080620	176.970	12.648637	-57.244995	176.990	0.070	-0.970	0.510	176.970	-2.300	0.900																			1580025980.0	8.94	16.56
26/01/2020 08:06:21	26012020	260120	080621	177.150	12.648593	-57.244997	177.160	0.130	-1.190	0.420	177.150	-2.600	0.800																			1580025981.0	9.26	17.15
26/01/2020 08:06:22	26012020	260120	080622	177.330	12.648550	-57.244995	177.320	0.080	-0.980	0.460	177.330	-2.400	0.900																			1580025982.0	9.17	16.98
26/01/2020 08:06:23	26012020	260120	080623	177.440	12.648508	-57.244995	177.410	-0.150	-0.530	0.610	177.440	-1.900	1.000																			1580025983.0	8.93	16.54
26/01/2020 08:06:24	26012020	260120	080624	177.430	12.648467	-57.244995	177.400	-0.420	-0.160	0.920	177.430	-1.600	1.300																			1580025984.0	9.00	16.67
26/01/2020 08:06:25	26012020	260120	080625	177.410	12.648423	-57.244995	177.390	-0.600	0.140	1.270	177.410	-1.300	1.700																			1580025985.0	9.26	17.15
26/01/2020 08:06:26	26012020	260120	080626	177.360	12.648380	-57.244997	177.350	-0.640	0.410	1.530	177.360	-1.000	1.900																			1580025986.0	9.32	17.26
26/01/2020 08:06:27	26012020	260120	080627	177.200	12.648337	-57.244998	177.150	-0.500	0.530	1.700	177.200	-0.800	2.100																			1580025987.0	9.28	17.19
26/01/2020 08:06:28	26012020	260120	080628	176.900	12.648293	-57.244998	176.860	-0.250	0.460	1.790	176.900	-0.900	2.200																			1580025988.0	9.35	17.32
26/01/2020 08:06:29	26012020	260120	080629	176.740	12.648250	-57.244998	176.740	-0.030	0.390	1.610	176.740	-1.000	2.100																			1580025989.0	9.33	17.28
26/01/2020 08:06:30	26012020	260120	080630	176.790	12.648208	-57.244998	176.810	0.120	0.430	1.170	176.790	-0.900	1.600																			1580025990.0	8.96	16.59
26/01/2020 08:06:31	26012020	260120	080631	176.920	12.648168	-57.244998	176.910	0.290	0.340	0.670	176.920	-1.000	1.100																			1580025991.0	8.59	15.91
26/01/2020 08:06:32	26012020	260120	080632	176.940	12.648128	-57.244997	176.900	0.540	-0.120	0.340	176.940	-1.400	0.800																			1580025992.0	8.65	16.02
26/01/2020 08:06:33	26012020	260120	080633	176.820	12.648087	-57.244995	176.750	0.810	-0.750	0.280	176.820	-2.100	0.700																			1580025993.0	8.99	16.65
26/01/2020 08:06:34	26012020	260120	080634	176.730	12.648045	-57.244995	176.700	0.860	-1.090	0.360	176.730	-2.500	0.800																			1580025994.0	9.12	16.89
26/01/2020 08:06:35	26012020	260120	080635	176.880	12.648003	-57.244993	176.890	0.560	-0.950	0.450	176.880	-2.300	0.900																			1580025995.0	8.80	16.30
26/01/2020 08:06:36	26012020	260120	080636	177.170	12.647963	-57.244993	177.180	0.060	-0.670	0.590	177.170	-2.100	1.000																			1580025996.0	8.49	15.72
26/01/2020 08:06:37	26012020	260120	080637	177.340	12.647923	-57.244995	177.330	-0.310	-0.620	0.900	177.340	-2.000	1.300																			1580025997.0	8.73	16.17
26/01/2020 08:06:38	26012020	260120	080638	177.410	12.647880	-57.244998	177.400	-0.460	-0.610	1.250	177.410	-2.000	1.600																			1580025998.0	9.23	17.09
26/01/2020 08:06:39	26012020	260120	080639	177.430	12.647837	-57.245000	177.410	-0.430	-0.370	1.430	177.430	-1.800	1.800																			1580025999.0	9.28	17.19
26/01/2020 08:06:40	26012020	260120	080640	177.360	12.647795	-57.245000	177.320	-0.320	-0.080	1.310	177.360	-1.500	1.700																			1580026000.0	9.13	16.91
26/01/2020 08:06:41	26012020	260120	080641	177.220	12.647752	-57.244998	177.170	-0.230	0.060	1.110	177.220	-1.300	1.500																			1580026001.0	9.22	17.08
26/01/2020 08:06:42	26012020	260120	080642	177.080	12.647708	-57.244997	177.040	-0.230	0.120	1.020	177.080	-1.300	1.400																			1580026002.0	9.36	17.33
26/01/2020 08:06:43	26012020	260120	080643	176.980	12.647665	-57.244995	176.950	-0.290	0.270	1.030	176.980	-1.100	1.400																			1580026003.0	9.31	17.24
26/01/2020 08:06:44	26012020	260120	080644	176.930	12.647623	-57.244997	176.910	-0.290	0.520	1.080	176.930	-0.900	1.500																			1580026004.0	9.02	16.71
26/01/2020 08:06:45	26012020	260120	080645	176.900	12.647582	-57.244998	176.860	-0.110	0.540	1.070	176.900	-0.800	1.500																			1580026005.0	8.83	16.35
26/01/2020 08:06:46	26012020	260120	080646	176.870	12.647540	-57.244998	176.850	0.200	0.200	0.930	176.870	-1.100	1.400																			1580026006.0	9.00	16.67
26/01/2020 08:06:47	26012020	260120	080647	176.880	12.647498	-57.244998	176.870	0.470	-0.230	0.750	176.890	-1.600	1.200																			1580026007.0	9.19	17.02
26/01/2020 08:06:48	26012020	260120	080648	176.920	12.647455	-57.244997	176.910	0.530	-0.420	0.630	176.920	-1.800	1.100																			1580026008.0	9.04	16.74
26/01/2020 08:06:49	26012020	260120	080649	176.940	12.647415	-57.244997	176.920	0.410	-0.370	0.620	176.940	-1.800	1.000																			1580026009.0	8.66	16.04
26/01/2020 08:06:50	26012020	260120	080650	176.960	12.647377	-57.244997	176.940	0.270	-0.380	0.680	176.960	-1.700	1.100																			1580026010.0	8.50	15.74
26/01/2020 08:06:51	26012020	260120	080651	176.930	12.647335	-57.244997	176.900	0.220	-0.630	0.870	176.930	-2.000	1.300																			1580026011.0	8.75	16.21
26/01/2020 08:06:52	26012020	260120	080652	176.870	12.647293	-57.244997	176.850	0.190	-0.900	1.120	176.870	-2.300	1.500																			1580026012.0	9.15	16.95
26/01/2020 08:06:53	26012020	260120	080653	176.830	12.647250	-57.244998	176.800	0.070	-0.840	1.240	176.830	-2.200	1.600																			1580026013.0	9.18	17.00
26/01/2020 08:06:54	26012020	260120	080654	176.720	12.647208	-57.245000	176.670	-0.130	-0.530	1.310	176.720	-1.900	1.700																			1580026014.0	8.92	16.52
26/01/2020 08:06:55	26012020	260120	080655	176.540	12.647167	-57.245000	176.490	-0.310	-0.320	1.310	176.540	-1.700	1.700																			1580026015.0	8.95	16.58
26/01/2020 08:06:56	26012020	260120	080656	176.390	12.647123	-57.244998	176.350	-0.420	-0.230	1.270	176.390	-1.600	1.700																			1580026016.0	9.24	17.11
26/01/2020 08:06:57	26012020	260120	080657	176.300	12.647080	-57.244998	176.280	-0.440	-0.110	1.160	176.300	-1.500	1.600																			1580026017.0	9.40	17.41
26/01/2020 08:06:58	26012020	260120	080658	176.370	12.647037	-57.244998	176.370	-0.420	0.170	0.890	176.370	-1.200	1.300																			1580026018.0	9.31	17.24
26/01/2020 08:06:59	26012020	260120	080659	176.600	12.646995	-57.244997	176.620	-0.370	0.540	0.550	176.600	-0.900	1.000																			1580026019.0	9.04	16.74
26/01/2020 08:07:00	26012020	260120	080700	176.900	12.646953	-57.244995	176.910	-0.250	0.750	0.320	176.900	-0.600	0.800	1013.60	25.60	25.70	19.50	19.60	-1.00	69.00	69.00	410.00	25.20	307.00	8.90	92.00	7.10	14	3186.00	27.40	27.40	1580026020.0	8.84	16.37
26/01/2020 08:07:01	26012020	260120	080701	177.210	12.646913	-57.244993	177.210	-0.060	0.600	0.330	177.210	-0.700	0.700																			1580026021.0	8.83	16.35
26/01/2020 08:07:02	26012020	260120	080702	177.350	12.646872	-57.244993	177.340	0.200	0.100	0.660	177.350	-1.200	1.000																			1580026022.0	8.99	16.65
26/01/2020 08:07:03	26012020	260120	080703	177.240	12.646828	-57.244993	177.190	0.480	-0.550	1.100	177.240	-1.900	1.500																			1580026023.0	9.22	17.08
26/01/2020 08:07:04	26012020	260120	080704	176.930	12.646785	-57.244995	176.880	0.670	-0.950	1.460	176.930	-2.300	1.800																			1580026024.0	9.27	17.17
26/01/2020 08:07:05	26012020	260120	080705	176.660	12.646743	-57.244995	176.650	0.630	-0.830	1.590	176.660	-2.200	2.000																			1580026025.0	8.98	16.63
26/01/2020 08:07:06	26012020	260120	080706	176.620	12.646703	-57.244995	176.640	0.310	-0.360	1.400	176.620	-1.800	1.800																			1580026026.0	8.50	15.74
26/01/2020 08:07:07	26012020	260120	080707	176.730	12.646665	-57.244995	176.750	-0.100	-0.080	1.090	176.730	-1.500	1.500																			1580026027.0	8.31	15.39
26/01/2020 08:07:08	26012020	260120	080708	176.850	12.646625	-57.244995	176.850	-0.350	-0.330	0.860	176.850	-1.700	1.300																			1580026028.0	8.80	16.30
26/01/2020 08:07:09	26012020	260120	080709	176.900	12.646580	-57.244995	176.900	-0.340	-0.760	0.690	176.910	-2.100	1.100																			1580026029.0	9.46	17.52
26/01/2020 08:07:10	26012020	260120	080710	176.960	12.646537	-57.244997	176.940	-0.190	-0.760	0.520	176.960	-2.100	1.000																			1580026030.0	9.55	17.69
26/01/2020 08:07:11	26012020	260120	080711	177.030	12.646493	-57.244995	177.020	-0.120	-0.330	0.360	177.030	-1.700	0.800																			1580026031.0	9.11	16.87
26/01/2020 08:07:12	26012020	260120	080712	177.200	12.646453	-57.244993	177.210	-0.220	0.220	0.250	177.200	-1.200	0.700																			1580026032.0	8.78	16.26
26/01/2020 08:07:13	26012020	260120	080713	177.420	12.646412	-57.244992	177.430	-0.400	0.490	0.310	177.420	-0.900	0.700																			1580026033.0	8.74	16.19
26/01/2020 08:07:14	26012020	260120	080714	177.500	12.646370	-57.244992	177.480	-0.410	0.260	0.660	177.500	-1.100	1.000																			1580026034.0	9.05	16.76
26/01/2020 08:07:15	26012020	260120	080715	177.420	12.646325	-57.244992	177.400	-0.210	-0.120	1.020	177.420	-1.500	1.400																			1580026035.0	9.51	17.61
26/01/2020 08:07:16	26012020	260120	080716	177.350	12.646282	-57.244993	177.330	0.060	-0.210	1.190	177.350	-1.600	1.600																			1580026036.0	9.41	17.43
26/01/2020 08:07:17	26012020	260120	080717	177.290	12.646240	-57.244995	177.270	0.250	-0.070	1.220	177.290	-1.500	1.600																			1580026037.0	8.94	16.56
26/01/2020 08:07:18	26012020	260120	080718	177.210	12.646200	-57.244993	177.200	0.320	0.010	1.090	177.210	-1.400	1.500																			1580026038.0	8.71	16.13
26/01/2020 08:07:19	26012020	260120	080719	177.110	12.646160	-57.244992	177.070	0.270	-0.110	0.910	177.110	-1.500	1.300																			1580026039.0	8.76	16.22
26/01/2020 08:07:20	26012020	260120	080720	176.840	12.646117	-57.244992	176.760	0.210	-0.460	0.950	176.840	-1.800	1.400																			1580026040.0	8.98	16.63
26/01/2020 08:07:21	26012020	260120	080721	176.490	12.646075	-57.244992	176.430	0.180	-0.740	1.100	176.490	-2.100	1.500																			1580026041.0	9.30	17.22
26/01/2020 08:07:22	26012020	260120	080722	176.330	12.646032	-57.244993	176.320	0.120	-0.570	1.150	176.330	-2.000	1.600																			1580026042.0	9.16	16.96
26/01/2020 08:07:23	26012020	260120	080723	176.460	12.645992	-57.244993	176.500	-0.010	-0.120	0.980	176.460	-1.500	1.400																			1580026043.0	8.74	16.19
26/01/2020 08:07:24	26012020	260120	080724	176.820	12.645952	-57.244993	176.870	-0.150	0.210	0.710	176.820	-1.200	1.100																			1580026044.0	8.57	15.87
26/01/2020 08:07:25	26012020	260120	080725	177.200	12.645910	-57.244993	177.230	-0.190	0.160	0.590	177.200	-1.200	1.000																			1580026045.0	8.74	16.19
26/01/2020 08:07:26	26012020	260120	080726	177.420	12.645868	-57.244993	177.420	-0.080	-0.290	0.650	177.420	-1.600	1.100																			1580026046.0	9.15	16.95
26/01/2020 08:07:27	26012020	260120	080727	177.480	12.645823	-57.244992	177.470	0.080	-0.760	0.800	177.480	-2.100	1.200																			1580026047.0	9.53	17.65
26/01/2020 08:07:28	26012020	260120	080728	177.520	12.645780	-57.244992	177.520	0.080	-0.730	0.930	177.520	-2.100	1.300																			1580026048.0	9.43	17.46
26/01/2020 08:07:29	26012020	260120	080729	177.600	12.645738	-57.244992	177.590	-0.130	-0.230	1.060	177.600	-1.700	1.500																			1580026049.0	8.83	16.35
26/01/2020 08:07:30	26012020	260120	080730	177.580	12.645698	-57.244992	177.540	-0.350	0.160	1.210	177.580	-1.200	1.600																			1580026050.0	8.52	15.78
26/01/2020 08:07:31	26012020	260120	080731	177.420	12.645658	-57.244992	177.370	-0.370	0.130	1.320	177.420	-1.200	1.700																			1580026051.0	8.87	16.43
26/01/2020 08:07:32	26012020	260120	080732	177.260	12.645615	-57.244993	177.230	-0.200	-0.070	1.340	177.260	-1.400	1.800																			1580026052.0	9.33	17.28
26/01/2020 08:07:33	26012020	260120	080733	177.240	12.645572	-57.244993	177.230	0.010	-0.080	1.180	177.240	-1.500	1.600																			1580026053.0	9.30	17.22
26/01/2020 08:07:34	26012020	260120	080734	177.330	12.645530	-57.244993	177.330	0.160	0.070	0.690	177.330	-1.300	1.200																			1580026054.0	8.95	16.58
26/01/2020 08:07:35	26012020	260120	080735	177.410	12.645488	-57.244990	177.400	0.220	0.080	0.190	177.420	-1.300	0.600																			1580026055.0	8.77	16.24
26/01/2020 08:07:36	26012020	260120	080736	177.490	12.645447	-57.244988	177.470	0.300	-0.150	-0.010	177.490	-1.500	0.400																			1580026056.0	8.92	16.52
26/01/2020 08:07:37	26012020	260120	080737	177.600	12.645405	-57.244988	177.570	0.370	-0.380	-0.070	177.600	-1.700	0.400																			1580026057.0	9.07	16.80
26/01/2020 08:07:38	26012020	260120	080738	177.680	12.645363	-57.244987	177.640	0.340	-0.550	0.060	177.680	-1.900	0.500																			1580026058.0	9.01	16.69
26/01/2020 08:07:39	26012020	260120	080739	177.650	12.645322	-57.244987	177.610	0.130	-0.700	0.480	177.650	-2.100	0.900																			1580026059.0	9.01	16.69
26/01/2020 08:07:40	26012020	260120	080740	177.500	12.645280	-57.244990	177.430	-0.150	-0.710	0.960	177.500	-2.100	1.300																			1580026060.0	9.11	16.87
26/01/2020 08:07:41	26012020	260120	080741	177.230	12.645237	-57.244992	177.180	-0.320	-0.500	1.350	177.230	-1.900	1.700																			1580026061.0	9.11	16.87
26/01/2020 08:07:42	26012020	260120	080742	177.120	12.645195	-57.244993	177.120	-0.380	-0.090	1.350	177.120	-1.500	1.800																			1580026062.0	9.01	16.69
26/01/2020 08:07:43	26012020	260120	080743	177.180	12.645153	-57.244995	177.180	-0.430	0.260	1.200	177.180	-1.100	1.600																			1580026063.0	8.85	16.39
26/01/2020 08:07:44	26012020	260120	080744	177.180	12.645112	-57.244995	177.150	-0.390	0.340	1.060	177.180	-1.000	1.500																			1580026064.0	8.94	16.56
26/01/2020 08:07:45	26012020	260120	080745	177.070	12.645070	-57.244995	177.030	-0.200	0.260	0.980	177.070	-1.100	1.400																			1580026065.0	9.13	16.91
26/01/2020 08:07:46	26012020	260120	080746	177.000	12.645027	-57.244995	176.970	0.110	0.170	0.870	177.000	-1.200	1.300																			1580026066.0	9.14	16.93
26/01/2020 08:07:47	26012020	260120	080747	177.010	12.644985	-57.244993	176.990	0.390	0.060	0.770	177.010	-1.300	1.200																			1580026067.0	8.98	16.63
26/01/2020 08:07:48	26012020	260120	080748	177.100	12.644945	-57.244993	177.080	0.470	-0.110	0.750	177.100	-1.500	1.200																			1580026068.0	8.88	16.45
26/01/2020 08:07:49	26012020	260120	080749	177.180	12.644903	-57.244992	177.140	0.360	-0.360	0.920	177.180	-1.700	1.300																			1580026069.0	8.80	16.30
26/01/2020 08:07:50	26012020	260120	080750	177.100	12.644862	-57.244993	177.040	0.240	-0.770	1.170	177.100	-2.100	1.600																			1580026070.0	8.91	16.50
26/01/2020 08:07:51	26012020	260120	080751	176.940	12.644818	-57.244995	176.890	0.220	-1.080	1.320	176.940	-2.400	1.700																			1580026071.0	9.21	17.06
26/01/2020 08:07:52	26012020	260120	080752	176.950	12.644777	-57.244995	176.940	0.180	-0.960	1.300	176.950	-2.400	1.700																			1580026072.0	9.14	16.93
26/01/2020 08:07:53	26012020	260120	080753	177.130	12.644735	-57.244995	177.130	0.010	-0.540	1.110	177.130	-1.900	1.500																			1580026073.0	8.83	16.35
26/01/2020 08:07:54	26012020	260120	080754	177.310	12.644695	-57.244993	177.280	-0.260	-0.160	0.820	177.310	-1.600	1.300																			1580026074.0	8.77	16.24
26/01/2020 08:07:55	26012020	260120	080755	177.400	12.644653	-57.244993	177.370	-0.460	0.020	0.710	177.400	-1.400	1.100																			1580026075.0	9.03	16.72
26/01/2020 08:07:56	26012020	260120	080756	177.520	12.644610	-57.244993	177.510	-0.510	0.160	0.660	177.520	-1.200	1.100																			1580026076.0	9.27	17.17
26/01/2020 08:07:57	26012020	260120	080757	177.750	12.644567	-57.244993	177.740	-0.420	0.360	0.600	177.750	-1.000	1.000																			1580026077.0	9.18	17.00
26/01/2020 08:07:58	26012020	260120	080758	177.940	12.644525	-57.244992	177.910	-0.260	0.420	0.660	177.940	-1.000	1.100																			1580026078.0	9.03	16.72
26/01/2020 08:07:59	26012020	260120	080759	177.940	12.644483	-57.244993	177.890	-0.090	0.230	0.950	177.940	-1.100	1.300																			1580026079.0	9.11	16.87
26/01/2020 08:08:00	26012020	260120	080800	177.750	12.644440	-57.244993	177.690	0.080	0.040	1.250	177.750	-1.300	1.700	1013.70	25.60	25.70	19.70	19.80	-1.00	70.00	69.00	410.00	25.20	308.00	8.80	94.00	7.00	14	3299.00	27.40	27.40	1580026080.0	9.19	17.02
26/01/2020 08:08:01	26012020	260120	080801	177.600	12.644398	-57.244995	177.560	0.200	0.050	1.310	177.600	-1.300	1.700																			1580026081.0	8.94	16.56
26/01/2020 08:08:02	26012020	260120	080802	177.550	12.644358	-57.244995	177.520	0.270	0.060	1.140	177.550	-1.300	1.600																			1580026082.0	8.56	15.85
26/01/2020 08:08:03	26012020	260120	080803	177.510	12.644318	-57.244995	177.470	0.360	-0.260	0.920	177.510	-1.600	1.400																			1580026083.0	8.59	15.91
26/01/2020 08:08:04	26012020	260120	080804	177.420	12.644277	-57.244997	177.370	0.500	-0.790	0.740	177.420	-2.100	1.200																			1580026084.0	8.98	16.63
26/01/2020 08:08:05	26012020	260120	080805	177.360	12.644235	-57.244995	177.330	0.580	-1.100	0.570	177.360	-2.500	1.000																			1580026085.0	9.20	17.04
26/01/2020 08:08:06	26012020	260120	080806	177.500	12.644193	-57.244995	177.500	0.440	-0.910	0.330	177.500	-2.300	0.800																			1580026086.0	8.95	16.58
26/01/2020 08:08:07	26012020	260120	080807	177.740	12.644153	-57.244995	177.720	0.090	-0.550	0.120	177.740	-2.000	0.600																			1580026087.0	8.63	15.98
26/01/2020 08:08:08	26012020	260120	080808	177.890	12.644112	-57.244993	177.850	-0.270	-0.390	0.150	177.890	-1.800	0.600																			1580026088.0	8.79	16.28
26/01/2020 08:08:09	26012020	260120	080809	177.860	12.644068	-57.244995	177.810	-0.470	-0.370	0.490	177.860	-1.700	0.900																			1580026089.0	9.21	17.06
26/01/2020 08:08:10	26012020	260120	080810	177.770	12.644025	-57.244997	177.720	-0.490	-0.230	0.810	177.770	-1.600	1.200																			1580026090.0	9.42	17.45
26/01/2020 08:08:11	26012020	260120	080811	177.650	12.643982	-57.244998	177.600	-0.440	0.080	1.000	177.650	-1.300	1.400																			1580026091.0	9.25	17.13
26/01/2020 08:08:12	26012020	260120	080812	177.440	12.643940	-57.245000	177.370	-0.380	0.320	1.180	177.440	-1.100	1.600																			1580026092.0	9.12	16.89
26/01/2020 08:08:13	26012020	260120	080813	177.230	12.643897	-57.245000	177.120	-0.300	0.430	1.330	177.180	-1.000	1.700																			1580026093.0	9.16	16.96
26/01/2020 08:08:14	26012020	260120	080814	176.990	12.643855	-57.245002	176.950	-0.210	0.550	1.300	176.990	-0.800	1.700																			1580026094.0	9.09	16.83
26/01/2020 08:08:15	26012020	260120	080815	176.950	12.643813	-57.245000	176.920	-0.050	0.580	1.030	176.950	-0.800	1.500																			1580026095.0	8.81	16.32
26/01/2020 08:08:16	26012020	260120	080816	176.990	12.643773	-57.245000	176.960	0.190	0.200	0.740	176.990	-1.100	1.200																			1580026096.0	8.79	16.28
26/01/2020 08:08:17	26012020	260120	080817	176.960	12.643730	-57.244998	176.920	0.450	-0.440	0.690	176.960	-1.800	1.100																			1580026097.0	9.10	16.85
26/01/2020 08:08:18	26012020	260120	080818	176.880	12.643688	-57.245000	176.830	0.560	-0.850	0.830	176.880	-2.200	1.200																			1580026098.0	9.16	16.96
26/01/2020 08:08:19	26012020	260120	080819	176.750	12.643647	-57.245000	176.690	0.460	-0.890	1.030	176.750	-2.300	1.400																			1580026099.0	8.84	16.37
26/01/2020 08:08:20	26012020	260120	080820	176.590	12.643607	-57.245002	176.530	0.260	-0.770	1.210	176.590	-2.200	1.600																			1580026100.0	8.65	16.02
26/01/2020 08:08:21	26012020	260120	080821	176.460	12.643567	-57.245003	176.430	0.120	-0.630	1.340	176.460	-2.000	1.700																			1580026101.0	8.76	16.22
26/01/2020 08:08:22	26012020	260120	080822	176.490	12.643525	-57.245005	176.480	0.070	-0.400	1.240	176.490	-1.800	1.700																			1580026102.0	8.89	16.46
26/01/2020 08:08:23	26012020	260120	080823	176.640	12.643483	-57.245005	176.640	0.030	-0.110	0.950	176.640	-1.500	1.400																			1580026103.0	8.86	16.41
26/01/2020 08:08:24	26012020	260120	080824	176.800	12.643442	-57.245002	176.790	-0.080	0.050	0.710	176.800	-1.300	1.100																			1580026104.0	8.89	16.46
26/01/2020 08:08:25	26012020	260120	080825	176.930	12.643400	-57.245002	176.960	-0.210	0.010	0.570	176.960	-1.400	1.000																			1580026105.0	9.09	16.83
26/01/2020 08:08:26	26012020	260120	080826	177.130	12.643357	-57.245000	177.100	-0.240	-0.080	0.560	177.130	-1.400	1.000																			1580026106.0	9.23	17.09
26/01/2020 08:08:27	26012020	260120	080827	177.180	12.643315	-57.245000	177.130	-0.150	-0.140	0.730	177.180	-1.500	1.100																			1580026107.0	9.20	17.04
26/01/2020 08:08:28	26012020	260120	080828	177.060	12.643272	-57.245000	177.000	-0.080	-0.190	1.080	177.060	-1.600	1.500																			1580026108.0	9.16	16.96
26/01/2020 08:08:29	26012020	260120	080829	176.930	12.643230	-57.245000	176.890	-0.140	-0.120	1.350	176.930	-1.500	1.800																			1580026109.0	9.13	16.91
26/01/2020 08:08:30	26012020	260120	080830	176.940	12.643188	-57.245002	176.920	-0.300	0.090	1.340	176.940	-1.300	1.800																			1580026110.0	8.90	16.48
26/01/2020 08:08:31	26012020	260120	080831	177.030	12.643148	-57.245002	177.010	-0.370	0.140	1.150	177.030	-1.200	1.600																			1580026111.0	8.73	16.17
26/01/2020 08:08:32	26012020	260120	080832	177.100	12.643107	-57.245002	177.050	-0.190	-0.120	0.920	177.100	-1.500	1.400																			1580026112.0	8.94	16.56
26/01/2020 08:08:33	26012020	260120	080833	177.110	12.643063	-57.245002	177.050	0.150	-0.430	0.680	177.110	-1.800	1.100																			1580026113.0	9.20	17.04
26/01/2020 08:08:34	26012020	260120	080834	177.080	12.643020	-57.245000	177.020	0.410	-0.450	0.520	177.080	-1.800	0.900																			1580026114.0	9.11	16.87
26/01/2020 08:08:35	26012020	260120	080835	177.020	12.642980	-57.245000	176.940	0.400	-0.270	0.520	177.020	-1.700	0.900																			1580026115.0	8.76	16.22
26/01/2020 08:08:36	26012020	260120	080836	176.890	12.642940	-57.244998	176.810	0.190	-0.140	0.640	176.890	-1.500	1.000																			1580026116.0	8.65	16.02
26/01/2020 08:08:37	26012020	260120	080837	176.760	12.642898	-57.245000	176.680	-0.010	-0.200	0.890	176.760	-1.600	1.300																			1580026117.0	8.85	16.39
26/01/2020 08:08:38	26012020	260120	080838	176.660	12.642857	-57.245002	176.600	-0.040	-0.320	1.170	176.660	-1.700	1.600																			1580026118.0	9.14	16.93
26/01/2020 08:08:39	26012020	260120	080839	176.690	12.642813	-57.245005	176.670	0.040	-0.230	1.200	176.690	-1.600	1.600																			1580026119.0	9.16	16.96
26/01/2020 08:08:40	26012020	260120	080840	176.910	12.642773	-57.245005	176.900	0.090	0.040	0.910	176.910	-1.400	1.400																			1580026120.0	8.83	16.35
26/01/2020 08:08:41	26012020	260120	080841	177.190	12.642733	-57.245003	177.170	0.060	0.110	0.580	177.190	-1.300	1.000																			1580026121.0	8.65	16.02
26/01/2020 08:08:42	26012020	260120	080842	177.340	12.642692	-57.245000	177.290	0.020	-0.190	0.440	177.340	-1.500	0.900																			1580026122.0	8.91	16.50
26/01/2020 08:08:43	26012020	260120	080843	177.330	12.642648	-57.245000	177.260	-0.010	-0.550	0.560	177.330	-1.900	1.000																			1580026123.0	9.25	17.13
26/01/2020 08:08:44	26012020	260120	080844	177.250	12.642605	-57.245000	177.180	-0.050	-0.650	0.800	177.250	-2.000	1.200																			1580026124.0	9.23	17.09
26/01/2020 08:08:45	26012020	260120	080845	177.170	12.642563	-57.245000	177.100	-0.140	-0.440	1.010	177.170	-1.800	1.400																			1580026125.0	8.97	16.61
26/01/2020 08:08:46	26012020	260120	080846	177.000	12.642523	-57.245002	176.900	-0.220	-0.240	1.280	177.000	-1.600	1.700																			1580026126.0	8.78	16.26
26/01/2020 08:08:47	26012020	260120	080847	176.670	12.642482	-57.245002	176.560	-0.190	-0.200	1.460	176.670	-1.600	1.900																			1580026127.0	8.99	16.65
26/01/2020 08:08:48	26012020	260120	080848	176.440	12.642438	-57.245003	176.370	-0.090	-0.140	1.280	176.440	-1.500	1.700																			1580026128.0	9.22	17.08
26/01/2020 08:08:49	26012020	260120	080849	176.440	12.642395	-57.245002	176.400	-0.040	0.060	1.000	176.440	-1.300	1.400																			1580026129.0	9.07	16.80
26/01/2020 08:08:50	26012020	260120	080850	176.520	12.642355	-57.245000	176.460	-0.090	0.170	0.860	176.520	-1.200	1.300																			1580026130.0	8.90	16.48
26/01/2020 08:08:51	26012020	260120	080851	176.520	12.642313	-57.245000	176.460	-0.140	0.090	0.810	176.520	-1.300	1.200																			1580026131.0	8.96	16.59
26/01/2020 08:08:52	26012020	260120	080852	176.540	12.642270	-57.245002	176.480	-0.150	-0.020	0.840	176.540	-1.400	1.200																			1580026132.0	9.08	16.82
26/01/2020 08:08:53	26012020	260120	080853	176.620	12.642228	-57.245003	176.570	-0.040	-0.050	0.940	176.620	-1.400	1.300																			1580026133.0	8.97	16.61
26/01/2020 08:08:54	26012020	260120	080854	176.730	12.642188	-57.245003	176.680	0.180	-0.140	0.910	176.730	-1.500	1.300																			1580026134.0	8.85	16.39
26/01/2020 08:08:55	26012020	260120	080855	176.870	12.642147	-57.245003	176.830	0.340	-0.300	0.740	176.870	-1.700	1.200																			1580026135.0	8.91	16.50
26/01/2020 08:08:56	26012020	260120	080856	177.110	12.642105	-57.245000	177.080	0.290	-0.390	0.640	177.110	-1.800	1.100																			1580026136.0	8.92	16.52
26/01/2020 08:08:57	26012020	260120	080857	177.300	12.642063	-57.245000	177.250	0.140	-0.390	0.690	177.300	-1.800	1.100																			1580026137.0	8.76	16.22
26/01/2020 08:08:58	26012020	260120	080858	177.220	12.642023	-57.245000	177.120	0.100	-0.500	0.880	177.220	-1.900	1.300																			1580026138.0	8.79	16.28
26/01/2020 08:08:59	26012020	260120	080859	176.910	12.641982	-57.245000	176.810	0.220	-0.640	1.170	176.910	-2.000	1.600																			1580026139.0	9.12	16.89
26/01/2020 08:09:00	26012020	260120	080900	176.700	12.641938	-57.245000	176.650	0.270	-0.430	1.310	176.700	-1.800	1.700	1013.70	25.60	25.70	19.90	19.90	-1.00	70.00	70.00	410.00	25.20	311.00	9.10	98.00	6.90	14	3248.00	27.40	27.40	1580026140.0	9.18	17.00
26/01/2020 08:09:01	26012020	260120	080901	176.740	12.641897	-57.244998	176.710	0.070	0.070	1.200	176.740	-1.300	1.600																			1580026141.0	8.77	16.24
26/01/2020 08:09:02	26012020	260120	080902	176.830	12.641858	-57.244998	176.780	-0.240	0.340	1.110	176.830	-1.000	1.500																			1580026142.0	8.55	15.83
26/01/2020 08:09:03	26012020	260120	080903	176.820	12.641817	-57.244998	176.730	-0.380	0.130	1.200	176.800	-1.200	1.600																			1580026143.0	8.89	16.46
26/01/2020 08:09:04	26012020	260120	080904	176.670	12.641773	-57.245000	176.580	-0.200	-0.300	1.280	176.670	-1.600	1.700																			1580026144.0	9.35	17.32
26/01/2020 08:09:05	26012020	260120	080905	176.520	12.641728	-57.245002	176.460	0.060	-0.520	1.210	176.520	-1.900	1.600																			1580026145.0	9.44	17.48
26/01/2020 08:09:06	26012020	260120	080906	176.570	12.641687	-57.245000	176.540	0.070	-0.350	1.000	176.570	-1.800	1.400																			1580026146.0	9.09	16.83
26/01/2020 08:09:07	26012020	260120	080907	176.810	12.641647	-57.245000	176.790	-0.200	-0.060	0.820	176.810	-1.500	1.300																			1580026147.0	8.63	15.98
26/01/2020 08:09:08	26012020	260120	080908	177.000	12.641607	-57.245000	176.940	-0.380	-0.110	0.790	177.000	-1.500	1.200																			1580026148.0	8.62	15.96
26/01/2020 08:09:09	26012020	260120	080909	176.930	12.641563	-57.245002	176.830	-0.180	-0.520	0.860	176.930	-1.900	1.300																			1580026149.0	9.17	16.98
26/01/2020 08:09:10	26012020	260120	080910	176.830	12.641520	-57.245002	176.780	0.140	-0.580	0.900	176.830	-2.000	1.300																			1580026150.0	9.50	17.59
26/01/2020 08:09:11	26012020	260120	080911	177.000	12.641478	-57.245000	176.990	0.190	-0.040	0.870	177.000	-1.500	1.300																			1580026151.0	8.94	16.56
26/01/2020 08:09:12	26012020	260120	080912	177.290	12.641440	-57.245000	177.270	0.000	0.480	0.770	177.290	-0.900	1.200																			1580026152.0	8.35	15.46
26/01/2020 08:09:13	26012020	260120	080913	177.450	12.641400	-57.245000	177.380	-0.100	0.420	0.740	177.450	-0.900	1.200																			1580026153.0	8.54	15.82
26/01/2020 08:09:14	26012020	260120	080914	177.450	12.641357	-57.245000	177.360	0.050	-0.030	0.950	177.450	-1.400	1.400																			1580026154.0	9.12	16.89
26/01/2020 08:09:15	26012020	260120	080915	177.390	12.641313	-57.245000	177.290	0.330	-0.320	1.190	177.380	-1.700	1.600																			1580026155.0	9.28	17.19
26/01/2020 08:09:16	26012020	260120	080916	177.220	12.641273	-57.245000	177.120	0.490	-0.340	1.250	177.220	-1.700	1.700																			1580026156.0	8.92	16.52
26/01/2020 08:09:17	26012020	260120	080917	177.020	12.641232	-57.245000	176.870	0.450	-0.320	1.310	176.970	-1.700	1.700																			1580026157.0	8.66	16.04
26/01/2020 08:09:18	26012020	260120	080918	176.730	12.641192	-57.245000	176.630	0.250	-0.390	1.310	176.730	-1.800	1.700																			1580026158.0	8.73	16.17
26/01/2020 08:09:19	26012020	260120	080919	176.600	12.641150	-57.245000	176.520	0.040	-0.500	1.130	176.600	-1.900	1.600																			1580026159.0	8.91	16.50
26/01/2020 08:09:20	26012020	260120	080920	176.600	12.641108	-57.245000	176.530	-0.120	-0.540	0.830	176.600	-1.900	1.300																			1580026160.0	8.97	16.61
26/01/2020 08:09:21	26012020	260120	080921	176.670	12.641067	-57.245000	176.590	-0.190	-0.520	0.580	176.670	-1.900	1.000																			1580026161.0	8.96	16.59
26/01/2020 08:09:22	26012020	260120	080922	176.760	12.641025	-57.245000	176.690	-0.210	-0.460	0.410	176.760	-1.800	0.800																			1580026162.0	9.02	16.71
26/01/2020 08:09:23	26012020	260120	080923	176.880	12.640983	-57.245000	176.820	-0.300	-0.330	0.440	176.880	-1.700	0.900																			1580026163.0	9.05	16.76
26/01/2020 08:09:24	26012020	260120	080924	177.050	12.640940	-57.245000	177.000	-0.440	-0.160	0.680	177.050	-1.600	1.100																			1580026164.0	9.05	16.76
26/01/2020 08:09:25	26012020	260120	080925	177.190	12.640898	-57.245003	177.140	-0.520	-0.010	0.970	177.190	-1.400	1.400																			1580026165.0	9.06	16.78
26/01/2020 08:09:26	26012020	260120	080926	177.200	12.640857	-57.245005	177.100	-0.390	0.100	1.210	177.200	-1.300	1.600																			1580026166.0	9.08	16.82
26/01/2020 08:09:27	26012020	260120	080927	177.040	12.640815	-57.245007	176.930	-0.080	0.180	1.330	177.040	-1.200	1.700																			1580026167.0	9.08	16.82
26/01/2020 08:09:28	26012020	260120	080928	176.820	12.640773	-57.245005	176.700	0.190	0.280	1.300	176.820	-1.100	1.700																			1580026168.0	8.98	16.63
26/01/2020 08:09:29	26012020	260120	080929	176.640	12.640732	-57.245003	176.500	0.250	0.270	1.210	176.600	-1.100	1.600																			1580026169.0	8.89	16.46
26/01/2020 08:09:30	26012020	260120	080930	176.450	12.640690	-57.245002	176.350	0.170	0.120	1.210	176.450	-1.300	1.600																			1580026170.0	8.87	16.43
26/01/2020 08:09:31	26012020	260120	080931	176.330	12.640648	-57.245003	176.230	0.170	-0.090	1.350	176.330	-1.500	1.800																			1580026171.0	8.87	16.43
26/01/2020 08:09:32	26012020	260120	080932	176.220	12.640608	-57.245005	176.120	0.360	-0.270	1.390	176.220	-1.600	1.800																			1580026172.0	8.84	16.37
26/01/2020 08:09:33	26012020	260120	080933	176.140	12.640567	-57.245007	176.070	0.620	-0.460	1.220	176.140	-1.800	1.700																			1580026173.0	8.80	16.30
26/01/2020 08:09:34	26012020	260120	080934	176.230	12.640527	-57.245005	176.200	0.670	-0.610	0.910	176.230	-2.000	1.400																			1580026174.0	8.82	16.33
26/01/2020 08:09:35	26012020	260120	080935	176.460	12.640485	-57.245002	176.430	0.390	-0.680	0.660	176.460	-2.100	1.100																			1580026175.0	8.78	16.26
26/01/2020 08:09:36	26012020	260120	080936	176.630	12.640445	-57.245000	176.590	-0.030	-0.720	0.660	176.630	-2.100	1.100																			1580026176.0	8.79	16.28
26/01/2020 08:09:37	26012020	260120	080937	176.680	12.640403	-57.245002	176.620	-0.340	-0.750	0.950	176.680	-2.100	1.300																			1580026177.0	8.93	16.54
26/01/2020 08:09:38	26012020	260120	080938	176.610	12.640360	-57.245003	176.550	-0.430	-0.700	1.320	176.610	-2.100	1.700																			1580026178.0	9.17	16.98
26/01/2020 08:09:39	26012020	260120	080939	176.580	12.640317	-57.245005	176.550	-0.460	-0.350	1.450	176.580	-1.800	1.900																			1580026179.0	9.22	17.08
26/01/2020 08:09:40	26012020	260120	080940	176.630	12.640277	-57.245005	176.590	-0.510	0.160	1.370	176.630	-1.300	1.800																			1580026180.0	8.93	16.54
26/01/2020 08:09:41	26012020	260120	080941	176.580	12.640235	-57.245005	176.500	-0.520	0.410	1.330	176.580	-1.000	1.800																			1580026181.0	8.86	16.41
26/01/2020 08:09:42	26012020	260120	080942	176.460	12.640192	-57.245005	176.380	-0.380	0.390	1.250	176.460	-1.000	1.700																			1580026182.0	9.16	16.96
26/01/2020 08:09:43	26012020	260120	080943	176.440	12.640148	-57.245003	176.380	-0.160	0.370	1.110	176.440	-1.000	1.500																			1580026183.0	9.23	17.09
26/01/2020 08:09:44	26012020	260120	080944	176.520	12.640107	-57.245003	176.450	0.050	0.350	0.890	176.520	-1.000	1.300																			1580026184.0	8.98	16.63
26/01/2020 08:09:45	26012020	260120	080945	176.590	12.640067	-57.245002	176.510	0.260	0.180	0.620	176.590	-1.200	1.100																			1580026185.0	8.82	16.33
26/01/2020 08:09:46	26012020	260120	080946	176.610	12.640025	-57.245000	176.510	0.460	-0.150	0.500	176.610	-1.500	0.900																			1580026186.0	8.85	16.39
26/01/2020 08:09:47	26012020	260120	080947	176.580	12.639983	-57.245000	176.490	0.580	-0.500	0.620	176.580	-1.900	1.000																			1580026187.0	8.93	16.54
26/01/2020 08:09:48	26012020	260120	080948	176.540	12.639942	-57.245000	176.450	0.530	-0.630	0.900	176.540	-2.000	1.300																			1580026188.0	8.87	16.43
26/01/2020 08:09:49	26012020	260120	080949	176.520	12.639902	-57.245002	176.450	0.330	-0.540	1.140	176.520	-1.900	1.500																			1580026189.0	8.67	16.06
26/01/2020 08:09:50	26012020	260120	080950	176.590	12.639862	-57.245003	176.550	0.120	-0.390	1.120	176.590	-1.800	1.500																			1580026190.0	8.61	15.95
26/01/2020 08:09:51	26012020	260120	080951	176.770	12.639822	-57.245003	176.730	0.030	-0.350	0.920	176.770	-1.700	1.400																			1580026191.0	8.67	16.06
26/01/2020 08:09:52	26012020	260120	080952	176.900	12.639780	-57.245002	176.850	0.050	-0.490	0.780	176.900	-1.900	1.200																			1580026192.0	8.93	16.54
26/01/2020 08:09:53	26012020	260120	080953	176.980	12.639738	-57.245000	176.920	0.010	-0.630	0.730	176.990	-2.000	1.100																			1580026193.0	9.19	17.02
26/01/2020 08:09:54	26012020	260120	080954	176.930	12.639695	-57.245000	176.830	-0.180	-0.570	0.900	176.930	-2.000	1.300																			1580026194.0	9.21	17.06
26/01/2020 08:09:55	26012020	260120	080955	176.740	12.639653	-57.245000	176.640	-0.420	-0.280	1.190	176.740	-1.700	1.600																			1580026195.0	9.08	16.82
26/01/2020 08:09:56	26012020	260120	080956	176.600	12.639612	-57.245002	176.510	-0.570	0.160	1.360	176.600	-1.300	1.800																			1580026196.0	8.91	16.50
26/01/2020 08:09:57	26012020	260120	080957	176.550	12.639570	-57.245003	176.460	-0.530	0.500	1.360	176.550	-0.900	1.800																			1580026197.0	8.79	16.28
26/01/2020 08:09:58	26012020	260120	080958	176.490	12.639528	-57.245003	176.380	-0.320	0.450	1.320	176.490	-0.900	1.700																			1580026198.0	8.89	16.46
26/01/2020 08:09:59	26012020	260120	080959	176.390	12.639487	-57.245003	176.290	0.020	0.090	1.230	176.390	-1.300	1.700																			1580026199.0	9.20	17.04
26/01/2020 08:10:00	26012020	260120	081000	176.290	12.639443	-57.245003	176.190	0.310	-0.240	1.070	176.290	-1.600	1.500	1013.60	25.60	25.70	20.10	20.10	-1.00	71.00	71.00	411.00	25.20	311.00	9.90	101.00	7.70	14	3257.00	27.40	27.40	1580026200.0	9.33	17.28
26/01/2020 08:10:01	26012020	260120	081001	176.290	12.639400	-57.245002	176.200	0.410	-0.320	0.890	176.290	-1.700	1.300																			1580026201.0	9.08	16.82
26/01/2020 08:10:02	26012020	260120	081002	176.360	12.639360	-57.245000	176.290	0.290	-0.220	0.760	176.360	-1.600	1.200																			1580026202.0	8.70	16.11
26/01/2020 08:10:03	26012020	260120	081003	176.460	12.639320	-57.245000	176.400	0.080	-0.170	0.680	176.490	-1.600	1.100																			1580026203.0	8.56	15.85
26/01/2020 08:10:04	26012020	260120	081004	176.510	12.639280	-57.245000	176.390	-0.010	-0.350	0.730	176.510	-1.700	1.100																			1580026204.0	8.71	16.13
26/01/2020 08:10:05	26012020	260120	081005	176.440	12.639238	-57.245000	176.320	0.050	-0.590	0.820	176.430	-2.000	1.200																			1580026205.0	9.04	16.74
26/01/2020 08:10:06	26012020	260120	081006	176.410	12.639195	-57.245000	176.330	0.140	-0.570	0.900	176.410	-2.000	1.300																			1580026206.0	9.08	16.82
26/01/2020 08:10:07	26012020	260120	081007	176.430	12.639155	-57.245000	176.350	0.140	-0.390	0.950	176.430	-1.800	1.400																			1580026207.0	8.85	16.39
26/01/2020 08:10:08	26012020	260120	081008	176.450	12.639113	-57.244998	176.360	0.010	-0.230	1.000	176.450	-1.600	1.400																			1580026208.0	8.83	16.35
26/01/2020 08:10:09	26012020	260120	081009	176.430	12.639072	-57.244998	176.340	-0.170	-0.150	1.220	176.430	-1.500	1.600																			1580026209.0	8.95	16.58
26/01/2020 08:10:10	26012020	260120	081010	176.400	12.639030	-57.245000	176.340	-0.320	-0.010	1.470	176.400	-1.400	1.900																			1580026210.0	9.06	16.78
26/01/2020 08:10:11	26012020	260120	081011	176.460	12.638988	-57.245002	176.390	-0.370	0.250	1.580	176.460	-1.200	2.000																			1580026211.0	8.89	16.46
26/01/2020 08:10:12	26012020	260120	081012	176.440	12.638948	-57.245002	176.360	-0.240	0.320	1.560	176.440	-1.100	2.000																			1580026212.0	8.75	16.21
26/01/2020 08:10:13	26012020	260120	081013	176.390	12.638907	-57.245002	176.310	0.050	0.100	1.360	176.390	-1.300	1.800																			1580026213.0	8.92	16.52
26/01/2020 08:10:14	26012020	260120	081014	176.400	12.638863	-57.245000	176.330	0.320	-0.230	1.040	176.400	-1.600	1.500																			1580026214.0	9.09	16.83
26/01/2020 08:10:15	26012020	260120	081015	176.400	12.638822	-57.244997	176.320	0.420	-0.530	0.760	176.400	-1.900	1.200																			1580026215.0	9.07	16.80
26/01/2020 08:10:16	26012020	260120	081016	176.310	12.638780	-57.244995	176.190	0.330	-0.760	0.700	176.310	-2.100	1.100																			1580026216.0	9.01	16.69
26/01/2020 08:10:17	26012020	260120	081017	176.130	12.638738	-57.244993	176.030	0.070	-0.780	0.920	176.130	-2.200	1.300																			1580026217.0	9.04	16.74
26/01/2020 08:10:18	26012020	260120	081018	176.060	12.638697	-57.244995	176.000	-0.280	-0.470	1.170	176.060	-1.900	1.600																			1580026218.0	8.92	16.52
26/01/2020 08:10:19	26012020	260120	081019	176.200	12.638657	-57.244997	176.180	-0.510	-0.050	1.090	176.200	-1.500	1.500																			1580026219.0	8.70	16.11
26/01/2020 08:10:20	26012020	260120	081020	176.460	12.638615	-57.244998	176.430	-0.450	0.120	0.760	176.460	-1.300	1.200																			1580026220.0	8.72	16.15
26/01/2020 08:10:21	26012020	260120	081021	176.690	12.638573	-57.244997	176.640	-0.180	-0.020	0.480	176.690	-1.400	0.900																			1580026221.0	9.09	16.83
26/01/2020 08:10:22	26012020	260120	081022	176.860	12.638530	-57.244993	176.800	0.040	-0.150	0.400	176.860	-1.500	0.800																			1580026222.0	9.32	17.26
26/01/2020 08:10:23	26012020	260120	081023	176.930	12.638488	-57.244992	176.850	0.060	-0.070	0.560	176.930	-1.500	1.000																			1580026223.0	9.12	16.89
26/01/2020 08:10:24	26012020	260120	081024	176.890	12.638447	-57.244992	176.780	-0.010	0.110	0.840	176.890	-1.300	1.200																			1580026224.0	8.80	16.30
26/01/2020 08:10:25	26012020	260120	081025	176.720	12.638407	-57.244992	176.610	-0.000	0.120	1.120	176.720	-1.300	1.500																			1580026225.0	8.76	16.22
26/01/2020 08:10:26	26012020	260120	081026	176.600	12.638365	-57.244992	176.500	0.090	-0.020	1.230	176.600	-1.400	1.600																			1580026226.0	8.95	16.58
26/01/2020 08:10:27	26012020	260120	081027	176.560	12.638323	-57.244993	176.460	0.200	-0.140	1.230	176.560	-1.500	1.600																			1580026227.0	8.97	16.61
26/01/2020 08:10:28	26012020	260120	081028	176.480	12.638282	-57.244993	176.370	0.310	-0.250	1.140	176.480	-1.600	1.600																			1580026228.0	8.87	16.43
26/01/2020 08:10:29	26012020	260120	081029	176.380	12.638240	-57.244992	176.270	0.350	-0.360	0.930	176.380	-1.800	1.400																			1580026229.0	8.86	16.41
26/01/2020 08:10:30	26012020	260120	081030	176.340	12.638200	-57.244990	176.250	0.270	-0.410	0.740	176.340	-1.800	1.200																			1580026230.0	8.84	16.37
26/01/2020 08:10:31	26012020	260120	081031	176.420	12.638158	-57.244990	176.360	0.060	-0.400	0.590	176.420	-1.800	1.000																			1580026231.0	8.82	16.33
26/01/2020 08:10:32	26012020	260120	081032	176.580	12.638117	-57.244988	176.510	-0.180	-0.390	0.440	176.580	-1.800	0.900																			1580026232.0	8.79	16.28
26/01/2020 08:10:33	26012020	260120	081033	176.730	12.638077	-57.244988	176.640	-0.290	-0.490	0.400	176.730	-1.900	0.800																			1580026233.0	8.89	16.46
26/01/2020 08:10:34	26012020	260120	081034	176.740	12.638033	-57.244988	176.660	-0.220	-0.640	0.600	176.740	-2.000	1.000																			1580026234.0	9.15	16.95
26/01/2020 08:10:35	26012020	260120	081035	176.680	12.637990	-57.244988	176.590	-0.100	-0.630	0.920	176.680	-2.000	1.300																			1580026235.0	9.25	17.13
26/01/2020 08:10:36	26012020	260120	081036	176.630	12.637948	-57.244988	176.560	-0.080	-0.340	1.160	176.630	-1.800	1.600																			1580026236.0	9.14	16.93
26/01/2020 08:10:37	26012020	260120	081037	176.700	12.637907	-57.244988	176.650	-0.250	0.080	1.360	176.700	-1.300	1.800																			1580026237.0	8.92	16.52
26/01/2020 08:10:38	26012020	260120	081038	176.850	12.637865	-57.244990	176.800	-0.430	0.370	1.450	176.850	-1.000	1.900																			1580026238.0	8.85	16.39
26/01/2020 08:10:39	26012020	260120	081039	176.930	12.637823	-57.244992	176.850	-0.410	0.400	1.420	176.930	-1.000	1.800																			1580026239.0	8.99	16.65
26/01/2020 08:10:40	26012020	260120	081040	176.920	12.637782	-57.244992	176.840	-0.130	0.270	1.240	176.920	-1.100	1.700																			1580026240.0	9.17	16.98
26/01/2020 08:10:41	26012020	260120	081041	176.990	12.637738	-57.244990	176.910	0.250	0.200	0.830	176.990	-1.200	1.300																			1580026241.0	9.14	16.93
26/01/2020 08:10:42	26012020	260120	081042	177.210	12.637698	-57.244987	177.130	0.490	0.250	0.330	177.210	-1.200	0.800																			1580026242.0	8.84	16.37
26/01/2020 08:10:43	26012020	260120	081043	177.380	12.637658	-57.244983	177.270	0.520	0.100	0.110	177.400	-1.300	0.500																			1580026243.0	8.56	15.85
26/01/2020 08:10:44	26012020	260120	081044	177.290	12.637617	-57.244982	177.120	0.480	-0.420	0.350	177.290	-1.800	0.700																			1580026244.0	8.75	16.21
26/01/2020 08:10:45	26012020	260120	081045	177.010	12.637575	-57.244983	176.880	0.410	-0.940	0.830	177.010	-2.300	1.200																			1580026245.0	9.15	16.95
26/01/2020 08:10:46	26012020	260120	081046	176.880	12.637532	-57.244985	176.800	0.260	-1.040	1.190	176.880	-2.400	1.600																			1580026246.0	9.14	16.93
26/01/2020 08:10:47	26012020	260120	081047	176.960	12.637492	-57.244987	176.920	0.010	-0.710	1.190	176.960	-2.100	1.600																			1580026247.0	8.78	16.26
26/01/2020 08:10:48	26012020	260120	081048	177.230	12.637452	-57.244988	177.180	-0.270	-0.300	0.990	177.230	-1.700	1.400																			1580026248.0	8.50	15.74
26/01/2020 08:10:49	26012020	260120	081049	177.470	12.637412	-57.244988	177.390	-0.400	-0.200	0.740	177.470	-1.600	1.200																			1580026249.0	8.64	16.00
26/01/2020 08:10:50	26012020	260120	081050	177.540	12.637368	-57.244987	177.430	-0.300	-0.430	0.550	177.540	-1.800	1.000																			1580026250.0	9.16	16.96
26/01/2020 08:10:51	26012020	260120	081051	177.470	12.637325	-57.244985	177.350	-0.170	-0.590	0.590	177.470	-2.000	1.000																			1580026251.0	9.56	17.71
26/01/2020 08:10:52	26012020	260120	081052	177.470	12.637280	-57.244985	177.390	-0.210	-0.310	0.750	177.470	-1.700	1.200																			1580026252.0	9.42	17.45
26/01/2020 08:10:53	26012020	260120	081053	177.610	12.637240	-57.244987	177.530	-0.380	0.340	0.920	177.610	-1.100	1.300																			1580026253.0	8.91	16.50
26/01/2020 08:10:54	26012020	260120	081054	177.730	12.637200	-57.244988	177.630	-0.420	0.800	1.050	177.730	-0.600	1.500																			1580026254.0	8.57	15.87
26/01/2020 08:10:55	26012020	260120	081055	177.720	12.637158	-57.244988	177.580	-0.180	0.680	1.200	177.700	-0.700	1.600																			1580026255.0	8.81	16.32
26/01/2020 08:10:56	26012020	260120	081056	177.510	12.637115	-57.244990	177.370	0.230	0.170	1.330	177.510	-1.200	1.700																			1580026256.0	9.29	17.21
26/01/2020 08:10:57	26012020	260120	081057	177.280	12.637072	-57.244990	177.150	0.520	-0.250	1.280	177.280	-1.600	1.700																			1580026257.0	9.39	17.39
26/01/2020 08:10:58	26012020	260120	081058	177.140	12.637030	-57.244988	177.040	0.520	-0.380	1.120	177.140	-1.800	1.600																			1580026258.0	9.06	16.78
26/01/2020 08:10:59	26012020	260120	081059	177.120	12.636990	-57.244988	177.040	0.350	-0.310	0.930	177.120	-1.700	1.400																			1580026259.0	8.66	16.04
26/01/2020 08:11:00	26012020	260120	081100	177.210	12.636950	-57.244988	177.130	0.210	-0.290	0.620	177.210	-1.700	1.100	1013.60	25.60	25.60	19.80	19.90	-1.00	70.00	70.00	412.00	25.20	313.00	9.20	101.00	7.00	14	3325.00	27.40	27.40	1580026260.0	8.49	15.72
26/01/2020 08:11:01	26012020	260120	081101	177.390	12.636910	-57.244988	177.320	0.170	-0.440	0.250	177.390	-1.800	0.700																			1580026261.0	8.64	16.00
26/01/2020 08:11:02	26012020	260120	081102	177.600	12.636868	-57.244987	177.520	0.130	-0.700	0.060	177.600	-2.100	0.500																			1580026262.0	8.90	16.48
26/01/2020 08:11:03	26012020	260120	081103	177.690	12.636827	-57.244985	177.580	0.030	-0.900	0.180	177.690	-2.300	0.600																			1580026263.0	9.12	16.89
26/01/2020 08:11:04	26012020	260120	081104	177.690	12.636783	-57.244987	177.580	-0.140	-0.790	0.500	177.690	-2.200	0.900																			1580026264.0	9.16	16.96
26/01/2020 08:11:05	26012020	260120	081105	177.640	12.636742	-57.244987	177.530	-0.300	-0.370	0.900	177.640	-1.800	1.300																			1580026265.0	8.94	16.56
26/01/2020 08:11:06	26012020	260120	081106	177.500	12.636700	-57.244988	177.380	-0.380	-0.010	1.210	177.500	-1.400	1.600																			1580026266.0	8.85	16.39
26/01/2020 08:11:07	26012020	260120	081107	177.400	12.636658	-57.244990	177.300	-0.380	0.210	1.310	177.400	-1.200	1.700																			1580026267.0	9.07	16.80
26/01/2020 08:11:08	26012020	260120	081108	177.410	12.636615	-57.244990	177.320	-0.320	0.330	1.270	177.410	-1.100	1.700																			1580026268.0	9.17	16.98
26/01/2020 08:11:09	26012020	260120	081109	177.420	12.636573	-57.244992	177.310	-0.210	0.350	1.180	177.420	-1.000	1.600																			1580026269.0	9.08	16.82
26/01/2020 08:11:10	26012020	260120	081110	177.350	12.636532	-57.244992	177.230	-0.040	0.200	1.050	177.350	-1.200	1.500																			1580026270.0	9.06	16.78
26/01/2020 08:11:11	26012020	260120	081111	177.240	12.636488	-57.244993	177.120	0.140	-0.060	0.960	177.240	-1.400	1.400																			1580026271.0	9.13	16.91
26/01/2020 08:11:12	26012020	260120	081112	177.180	12.636447	-57.244993	177.070	0.270	-0.240	0.820	177.180	-1.600	1.300																			1580026272.0	9.08	16.82
26/01/2020 08:11:13	26012020	260120	081113	177.170	12.636405	-57.244993	177.070	0.340	-0.320	0.660	177.170	-1.700	1.100																			1580026273.0	8.91	16.50
26/01/2020 08:11:14	26012020	260120	081114	177.260	12.636365	-57.244992	177.180	0.340	-0.340	0.500	177.260	-1.700	0.900																			1580026274.0	8.80	16.30
26/01/2020 08:11:15	26012020	260120	081115	177.450	12.636323	-57.244990	177.380	0.280	-0.380	0.330	177.450	-1.800	0.800																			1580026275.0	8.79	16.28
26/01/2020 08:11:16	26012020	260120	081116	177.710	12.636282	-57.244988	177.650	0.150	-0.430	0.230	177.710	-1.800	0.700																			1580026276.0	8.88	16.45
26/01/2020 08:11:17	26012020	260120	081117	178.000	12.636242	-57.244988	177.930	-0.070	-0.420	0.360	178.000	-1.800	0.800																			1580026277.0	8.91	16.50
26/01/2020 08:11:18	26012020	260120	081118	178.150	12.636200	-57.244990	178.050	-0.220	-0.380	0.740	178.150	-1.800	1.100																			1580026278.0	8.88	16.45
26/01/2020 08:11:19	26012020	260120	081119	178.050	12.636158	-57.244993	177.920	-0.160	-0.370	1.120	178.050	-1.800	1.500																			1580026279.0	8.99	16.65
26/01/2020 08:11:20	26012020	260120	081120	177.850	12.636115	-57.244995	177.720	0.010	-0.280	1.330	177.850	-1.700	1.700																			1580026280.0	9.10	16.85
26/01/2020 08:11:21	26012020	260120	081121	177.700	12.636073	-57.244995	177.600	0.070	-0.070	1.350	177.700	-1.500	1.800																			1580026281.0	9.04	16.74
26/01/2020 08:11:22	26012020	260120	081122	177.650	12.636032	-57.244993	177.550	-0.060	0.150	1.230	177.650	-1.300	1.700																			1580026282.0	8.89	16.46
26/01/2020 08:11:23	26012020	260120	081123	177.530	12.635992	-57.244993	177.410	-0.220	0.170	1.160	177.530	-1.200	1.600																			1580026283.0	8.88	16.45
26/01/2020 08:11:24	26012020	260120	081124	177.380	12.635948	-57.244995	177.270	-0.280	0.020	1.180	177.380	-1.400	1.600																			1580026284.0	9.09	16.83
26/01/2020 08:11:25	26012020	260120	081125	177.380	12.635907	-57.244998	177.300	-0.180	-0.160	1.020	177.380	-1.500	1.500																			1580026285.0	9.15	16.95
26/01/2020 08:11:26	26012020	260120	081126	177.510	12.635865	-57.245000	177.430	0.080	-0.320	0.670	177.510	-1.700	1.100																			1580026286.0	9.05	16.76
26/01/2020 08:11:27	26012020	260120	081127	177.610	12.635822	-57.244998	177.520	0.320	-0.520	0.360	177.610	-1.900	0.800																			1580026287.0	9.05	16.76
26/01/2020 08:11:28	26012020	260120	081128	177.680	12.635780	-57.244997	177.590	0.310	-0.590	0.200	177.680	-2.000	0.600																			1580026288.0	9.11	16.87
26/01/2020 08:11:29	26012020	260120	081129	177.780	12.635738	-57.244997	177.710	0.010	-0.460	0.290	177.780	-1.900	0.700																			1580026289.0	8.96	16.59
26/01/2020 08:11:30	26012020	260120	081130	177.930	12.635697	-57.244997	177.850	-0.310	-0.250	0.510	177.930	-1.700	0.900																			1580026290.0	8.83	16.35
26/01/2020 08:11:31	26012020	260120	081131	178.060	12.635657	-57.245000	177.970	-0.360	-0.060	0.670	178.060	-1.500	1.100																			1580026291.0	8.87	16.43
26/01/2020 08:11:32	26012020	260120	081132	178.130	12.635613	-57.245000	178.020	-0.120	-0.010	0.790	178.130	-1.400	1.200																			1580026292.0	9.00	16.67
26/01/2020 08:11:33	26012020	260120	081133	178.110	12.635572	-57.245000	177.990	0.200	-0.040	0.880	178.100	-1.400	1.300																			1580026293.0	9.16	16.96
26/01/2020 08:11:34	26012020	260120	081134	178.080	12.635528	-57.245000	177.970	0.320	0.080	0.890	178.080	-1.300	1.300																			1580026294.0	9.14	16.93
26/01/2020 08:11:35	26012020	260120	081135	177.990	12.635488	-57.244998	177.850	0.160	0.290	1.040	177.990	-1.100	1.400																			1580026295.0	8.80	16.30
26/01/2020 08:11:36	26012020	260120	081136	177.650	12.635448	-57.245000	177.470	-0.020	0.220	1.340	177.650	-1.100	1.700																			1580026296.0	8.69	16.09
26/01/2020 08:11:37	26012020	260120	081137	177.180	12.635405	-57.245003	177.010	0.040	-0.140	1.520	177.180	-1.500	1.900																			1580026297.0	9.05	16.76
26/01/2020 08:11:38	26012020	260120	081138	176.920	12.635363	-57.245005	176.820	0.180	-0.370	1.390	176.920	-1.800	1.800																			1580026298.0	9.22	17.08
26/01/2020 08:11:39	26012020	260120	081139	177.020	12.635322	-57.245005	176.940	0.170	-0.330	1.030	177.020	-1.700	1.500																			1580026299.0	8.85	16.39
26/01/2020 08:11:40	26012020	260120	081140	177.130	12.635282	-57.245007	177.020	0.050	-0.450	0.670	177.130	-1.800	1.100																			1580026300.0	8.60	15.93
26/01/2020 08:11:41	26012020	260120	081141	177.120	12.635240	-57.245007	177.010	0.010	-0.780	0.460	177.120	-2.100	0.900																			1580026301.0	8.95	16.58
26/01/2020 08:11:42	26012020	260120	081142	177.170	12.635197	-57.245007	177.080	0.040	-0.960	0.450	177.170	-2.300	0.900																			1580026302.0	9.23	17.09
26/01/2020 08:11:43	26012020	260120	081143	177.330	12.635155	-57.245007	177.260	-0.010	-0.800	0.530	177.330	-2.200	0.900																			1580026303.0	9.12	16.89
26/01/2020 08:11:44	26012020	260120	081144	177.500	12.635113	-57.245007	177.430	-0.190	-0.420	0.640	177.500	-1.800	1.100																			1580026304.0	8.92	16.52
26/01/2020 08:11:45	26012020	260120	081145	177.500	12.635072	-57.245008	177.360	-0.370	-0.150	0.940	177.470	-1.600	1.300																			1580026305.0	8.90	16.48
26/01/2020 08:11:46	26012020	260120	081146	177.250	12.635030	-57.245010	177.130	-0.360	0.020	1.230	177.250	-1.400	1.600																			1580026306.0	9.22	17.08
26/01/2020 08:11:47	26012020	260120	081147	177.090	12.634987	-57.245010	176.960	-0.200	0.280	1.230	177.060	-1.100	1.700																			1580026307.0	9.27	17.17
26/01/2020 08:11:48	26012020	260120	081148	176.960	12.634943	-57.245010	176.870	-0.080	0.580	1.140	176.960	-0.800	1.600																			1580026308.0	9.08	16.82
26/01/2020 08:11:49	26012020	260120	081149	176.920	12.634903	-57.245008	176.830	-0.060	0.700	1.130	176.920	-0.700	1.500																			1580026309.0	8.92	16.52
26/01/2020 08:11:50	26012020	260120	081150	176.880	12.634862	-57.245008	176.770	-0.020	0.580	1.150	176.880	-0.800	1.600																			1580026310.0	8.91	16.50
26/01/2020 08:11:51	26012020	260120	081151	176.820	12.634820	-57.245010	176.720	0.160	0.300	1.150	176.820	-1.100	1.600																			1580026311.0	8.91	16.50
26/01/2020 08:11:52	26012020	260120	081152	176.760	12.634778	-57.245010	176.670	0.420	-0.110	1.100	176.760	-1.500	1.500																			1580026312.0	8.87	16.43
26/01/2020 08:11:53	26012020	260120	081153	176.750	12.634737	-57.245010	176.660	0.610	-0.580	1.010	176.750	-1.900	1.400																			1580026313.0	8.87	16.43
26/01/2020 08:11:54	26012020	260120	081154	176.690	12.634697	-57.245010	176.600	0.630	-0.970	0.970	176.690	-2.300	1.400																			1580026314.0	8.87	16.43
26/01/2020 08:11:55	26012020	260120	081155	176.570	12.634655	-57.245010	176.470	0.460	-1.080	1.020	176.570	-2.500	1.400																			1580026315.0	8.81	16.32
26/01/2020 08:11:56	26012020	260120	081156	176.430	12.634615	-57.245012	176.320	0.150	-0.910	1.080	176.430	-2.300	1.500																			1580026316.0	8.68	16.08
26/01/2020 08:11:57	26012020	260120	081157	176.290	12.634575	-57.245012	176.210	-0.180	-0.690	1.110	176.290	-2.100	1.500																			1580026317.0	8.68	16.08
26/01/2020 08:11:58	26012020	260120	081158	176.260	12.634533	-57.245012	176.200	-0.410	-0.580	1.090	176.260	-2.000	1.500																			1580026318.0	8.93	16.54
26/01/2020 08:11:59	26012020	260120	081159	176.290	12.634490	-57.245013	176.240	-0.520	-0.520	1.110	176.290	-1.900	1.500																			1580026319.0	9.27	17.17
26/01/2020 08:12:00	26012020	260120	081200	176.400	12.634447	-57.245015	176.370	-0.530	-0.260	1.020	176.400	-1.700	1.500	1013.60	25.60	25.60	19.80	19.90	-1.00	70.00	70.00	413.00	25.20	312.00	8.70	98.00	6.60	14	3262.00	27.40	27.40	1580026320.0	9.40	17.41
26/01/2020 08:12:01	26012020	260120	081201	176.660	12.634403	-57.245013	176.630	-0.490	0.180	0.760	176.660	-1.200	1.200																			1580026321.0	9.17	16.98
26/01/2020 08:12:02	26012020	260120	081202	176.860	12.634362	-57.245013	176.810	-0.370	0.480	0.610	176.860	-0.900	1.000																			1580026322.0	9.00	16.67
26/01/2020 08:12:03	26012020	260120	081203	176.880	12.634320	-57.245012	176.800	-0.200	0.480	0.720	176.880	-0.900	1.100																			1580026323.0	9.13	16.91
26/01/2020 08:12:04	26012020	260120	081204	176.830	12.634277	-57.245010	176.770	-0.020	0.400	0.910	176.830	-1.000	1.300																			1580026324.0	9.29	17.21
26/01/2020 08:12:05	26012020	260120	081205	176.850	12.634233	-57.245010	176.800	0.110	0.450	1.080	176.850	-0.900	1.500																			1580026325.0	9.09	16.83
26/01/2020 08:12:06	26012020	260120	081206	176.890	12.634193	-57.245010	176.810	0.260	0.480	1.190	176.890	-0.900	1.600																			1580026326.0	8.69	16.09
26/01/2020 08:12:07	26012020	260120	081207	176.800	12.634153	-57.245010	176.700	0.470	0.160	1.200	176.800	-1.200	1.600																			1580026327.0	8.64	16.00
26/01/2020 08:12:08	26012020	260120	081208	176.630	12.634112	-57.245008	176.530	0.630	-0.360	1.200	176.630	-1.700	1.600																			1580026328.0	8.91	16.50
26/01/2020 08:12:09	26012020	260120	081209	176.450	12.634070	-57.245008	176.360	0.570	-0.720	1.240	176.450	-2.100	1.700																			1580026329.0	8.93	16.54
26/01/2020 08:12:10	26012020	260120	081210	176.310	12.634030	-57.245008	176.230	0.350	-0.820	1.180	176.310	-2.200	1.600																			1580026330.0	8.72	16.15
26/01/2020 08:12:11	26012020	260120	081211	176.240	12.633990	-57.245010	176.170	0.130	-0.830	0.930	176.240	-2.200	1.400																			1580026331.0	8.58	15.89
26/01/2020 08:12:12	26012020	260120	081212	176.270	12.633948	-57.245010	176.200	0.030	-0.910	0.610	176.270	-2.300	1.100																			1580026332.0	8.75	16.21
26/01/2020 08:12:13	26012020	260120	081213	176.330	12.633907	-57.245008	176.280	-0.010	-0.930	0.390	176.330	-2.300	0.800																			1580026333.0	9.04	16.74
26/01/2020 08:12:14	26012020	260120	081214	176.510	12.633865	-57.245008	176.490	-0.200	-0.670	0.270	176.510	-2.100	0.700																			1580026334.0	9.11	16.87
26/01/2020 08:12:15	26012020	260120	081215	176.760	12.633823	-57.245008	176.720	-0.500	-0.220	0.280	176.760	-1.600	0.700																			1580026335.0	8.94	16.56
26/01/2020 08:12:16	26012020	260120	081216	176.800	12.633782	-57.245008	176.730	-0.650	0.060	0.460	176.800	-1.300	0.900																			1580026336.0	8.97	16.61
26/01/2020 08:12:17	26012020	260120	081217	176.740	12.633738	-57.245010	176.670	-0.550	0.150	0.680	176.740	-1.200	1.100																			1580026337.0	9.29	17.21
26/01/2020 08:12:18	26012020	260120	081218	176.690	12.633695	-57.245010	176.630	-0.320	0.270	0.860	176.690	-1.100	1.300																			1580026338.0	9.38	17.37
26/01/2020 08:12:19	26012020	260120	081219	176.680	12.633652	-57.245008	176.620	-0.140	0.400	0.990	176.680	-1.000	1.400																			1580026339.0	9.22	17.08
26/01/2020 08:12:20	26012020	260120	081220	176.670	12.633610	-57.245008	176.600	-0.040	0.460	1.020	176.670	-0.900	1.400																			1580026340.0	9.06	16.78
26/01/2020 08:12:21	26012020	260120	081221	176.600	12.633568	-57.245008	176.510	0.020	0.400	1.040	176.600	-1.000	1.500																			1580026341.0	8.93	16.54
26/01/2020 08:12:22	26012020	260120	081222	176.450	12.633527	-57.245008	176.350	0.160	0.140	1.020	176.450	-1.200	1.400																			1580026342.0	8.89	16.46
26/01/2020 08:12:23	26012020	260120	081223	176.260	12.633485	-57.245007	176.150	0.340	-0.260	0.980	176.260	-1.600	1.400																			1580026343.0	8.97	16.61
26/01/2020 08:12:24	26012020	260120	081224	176.070	12.633443	-57.245007	175.990	0.430	-0.540	0.970	176.070	-1.900	1.400																			1580026344.0	9.02	16.71
26/01/2020 08:12:25	26012020	260120	081225	176.090	12.633402	-57.245007	176.040	0.330	-0.520	0.970	176.090	-1.900	1.400																			1580026345.0	8.78	16.26
26/01/2020 08:12:26	26012020	260120	081226	176.190	12.633363	-57.245007	176.140	0.200	-0.350	0.870	176.190	-1.700	1.300																			1580026346.0	8.47	15.69
26/01/2020 08:12:27	26012020	260120	081227	176.300	12.633323	-57.245008	176.240	0.160	-0.390	0.640	176.300	-1.800	1.100																			1580026347.0	8.47	15.69
26/01/2020 08:12:28	26012020	260120	081228	176.300	12.633282	-57.245007	176.210	0.220	-0.690	0.570	176.300	-2.000	1.000																			1580026348.0	8.86	16.41
26/01/2020 08:12:29	26012020	260120	081229	176.170	12.633238	-57.245007	176.080	0.240	-0.910	0.710	176.170	-2.300	1.100																			1580026349.0	9.26	17.15
26/01/2020 08:12:30	26012020	260120	081230	176.110	12.633197	-57.245007	176.060	0.090	-0.710	0.860	176.110	-2.100	1.300																			1580026350.0	9.20	17.04
26/01/2020 08:12:31	26012020	260120	081231	176.220	12.633155	-57.245008	176.200	-0.220	-0.200	0.910	176.220	-1.600	1.300																			1580026351.0	8.87	16.43
26/01/2020 08:12:32	26012020	260120	081232	176.390	12.633115	-57.245008	176.360	-0.500	0.200	0.940	176.390	-1.200	1.400																			1580026352.0	8.73	16.17
26/01/2020 08:12:33	26012020	260120	081233	176.470	12.633073	-57.245008	176.430	-0.560	0.280	0.980	176.470	-1.100	1.400																			1580026353.0	8.96	16.59
26/01/2020 08:12:34	26012020	260120	081234	176.490	12.633030	-57.245007	176.440	-0.380	0.140	1.000	176.490	-1.200	1.400																			1580026354.0	9.23	17.09
26/01/2020 08:12:35	26012020	260120	081235	176.490	12.632987	-57.245007	176.430	-0.120	-0.080	1.030	176.490	-1.400	1.400																			1580026355.0	9.31	17.24
26/01/2020 08:12:36	26012020	260120	081236	176.430	12.632943	-57.245005	176.360	0.030	-0.300	1.120	176.430	-1.700	1.500																			1580026356.0	9.30	17.22
26/01/2020 08:12:37	26012020	260120	081237	176.270	12.632900	-57.245005	176.190	0.000	-0.380	1.330	176.270	-1.800	1.700																			1580026357.0	9.22	17.08
26/01/2020 08:12:38	26012020	260120	081238	176.110	12.632858	-57.245005	176.050	-0.110	-0.140	1.400	176.110	-1.600	1.800																			1580026358.0	8.98	16.63
26/01/2020 08:12:39	26012020	260120	081239	176.080	12.632818	-57.245007	176.040	-0.130	0.240	1.200	176.080	-1.200	1.600																			1580026359.0	8.60	15.93
26/01/2020 08:12:40	26012020	260120	081240	176.150	12.632778	-57.245007	176.110	0.050	0.350	0.840	176.150	-1.000	1.300																			1580026360.0	8.51	15.76
26/01/2020 08:12:41	26012020	260120	081241	176.260	12.632738	-57.245003	176.220	0.310	0.080	0.510	176.260	-1.300	1.000																			1580026361.0	8.84	16.37
26/01/2020 08:12:42	26012020	260120	081242	176.370	12.632695	-57.245002	176.350	0.400	-0.260	0.360	176.370	-1.600	0.800																			1580026362.0	9.10	16.85
26/01/2020 08:12:43	26012020	260120	081243	176.530	12.632653	-57.245000	176.520	0.260	-0.430	0.430	176.530	-1.800	0.800																			1580026363.0	9.00	16.67
26/01/2020 08:12:44	26012020	260120	081244	176.620	12.632613	-57.245002	176.570	0.090	-0.470	0.710	176.620	-1.900	1.100																			1580026364.0	8.77	16.24
26/01/2020 08:12:45	26012020	260120	081245	176.560	12.632572	-57.245003	176.500	0.080	-0.520	0.980	176.560	-1.900	1.400																			1580026365.0	8.74	16.19
26/01/2020 08:12:46	26012020	260120	081246	176.440	12.632532	-57.245005	176.390	0.170	-0.630	1.100	176.440	-2.000	1.500																			1580026366.0	8.89	16.46
26/01/2020 08:12:47	26012020	260120	081247	176.410	12.632488	-57.245003	176.370	0.150	-0.650	1.000	176.410	-2.000	1.400																			1580026367.0	9.06	16.78
26/01/2020 08:12:48	26012020	260120	081248	176.420	12.632447	-57.245002	176.370	-0.040	-0.500	0.860	176.420	-1.900	1.300																			1580026368.0	8.99	16.65
26/01/2020 08:12:49	26012020	260120	081249	176.400	12.632405	-57.245002	176.350	-0.260	-0.270	0.830	176.400	-1.700	1.300																			1580026369.0	8.92	16.52
26/01/2020 08:12:50	26012020	260120	081250	176.370	12.632363	-57.245002	176.320	-0.380	-0.060	0.900	176.370	-1.500	1.300																			1580026370.0	8.96	16.59
26/01/2020 08:12:51	26012020	260120	081251	176.330	12.632322	-57.245002	176.300	-0.390	0.080	1.040	176.330	-1.300	1.500																			1580026371.0	9.06	16.78
26/01/2020 08:12:52	26012020	260120	081252	176.340	12.632280	-57.245003	176.320	-0.330	0.150	1.090	176.340	-1.200	1.500																			1580026372.0	9.13	16.91
26/01/2020 08:12:53	26012020	260120	081253	176.340	12.632237	-57.245003	176.310	-0.190	0.160	1.030	176.340	-1.200	1.500																			1580026373.0	9.11	16.87
26/01/2020 08:12:54	26012020	260120	081254	176.340	12.632195	-57.245002	176.320	-0.020	0.160	0.900	176.340	-1.200	1.300																			1580026374.0	9.06	16.78
26/01/2020 08:12:55	26012020	260120	081255	176.410	12.632153	-57.245000	176.380	0.100	0.150	0.720	176.410	-1.200	1.200																			1580026375.0	8.92	16.52
26/01/2020 08:12:56	26012020	260120	081256	176.470	12.632113	-57.244998	176.450	0.140	0.030	0.590	176.470	-1.300	1.000																			1580026376.0	8.82	16.33
26/01/2020 08:12:57	26012020	260120	081257	176.520	12.632072	-57.244997	176.490	0.150	-0.230	0.540	176.520	-1.600	1.000																			1580026377.0	8.88	16.45
26/01/2020 08:12:58	26012020	260120	081258	176.550	12.632030	-57.244997	176.520	0.180	-0.500	0.600	176.550	-1.900	1.000																			1580026378.0	8.97	16.61
26/01/2020 08:12:59	26012020	260120	081259	176.580	12.631988	-57.244997	176.570	0.180	-0.680	0.840	176.580	-2.100	1.200																			1580026379.0	9.00	16.67
26/01/2020 08:13:00	26012020	260120	081300	176.640	12.631947	-57.244998	176.630	0.120	-0.650	1.130	176.640	-2.000	1.500	1013.60	25.60	25.60	19.90	20.00	-1.00	70.00	70.00	413.00	25.20	317.00	8.90	104.00	6.30	14	3334.00	27.40	27.40	1580026380.0	8.94	16.56
26/01/2020 08:13:01	26012020	260120	081301	176.660	12.631905	-57.245002	176.630	0.040	-0.450	1.330	176.660	-1.900	1.700																			1580026381.0	8.79	16.28
26/01/2020 08:13:02	26012020	260120	081302	176.580	12.631865	-57.245003	176.530	0.040	-0.260	1.290	176.580	-1.700	1.700																			1580026382.0	8.78	16.26
26/01/2020 08:13:03	26012020	260120	081303	176.490	12.631823	-57.245002	176.430	0.140	-0.150	1.010	176.490	-1.500	1.500																			1580026383.0	8.94	16.56
26/01/2020 08:13:04	26012020	260120	081304	176.400	12.631782	-57.244998	176.350	0.150	-0.060	0.810	176.400	-1.500	1.300																			1580026384.0	9.06	16.78
26/01/2020 08:13:05	26012020	260120	081305	176.320	12.631738	-57.244995	176.260	-0.040	0.030	0.850	176.320	-1.400	1.300																			1580026385.0	9.06	16.78
26/01/2020 08:13:06	26012020	260120	081306	176.200	12.631697	-57.244995	176.150	-0.310	0.090	1.030	176.200	-1.300	1.400																			1580026386.0	9.00	16.67
26/01/2020 08:13:07	26012020	260120	081307	176.110	12.631655	-57.244997	176.080	-0.420	0.070	1.240	176.110	-1.300	1.700																			1580026387.0	9.04	16.74
26/01/2020 08:13:08	26012020	260120	081308	176.210	12.631613	-57.244998	176.210	-0.280	-0.040	1.250	176.210	-1.400	1.700																			1580026388.0	9.09	16.83
26/01/2020 08:13:09	26012020	260120	081309	176.450	12.631572	-57.245000	176.460	-0.000	-0.150	0.970	176.450	-1.500	1.400																			1580026389.0	9.02	16.71
26/01/2020 08:13:10	26012020	260120	081310	176.770	12.631530	-57.244998	176.760	0.200	-0.260	0.520	176.770	-1.600	1.000																			1580026390.0	8.92	16.52
26/01/2020 08:13:11	26012020	260120	081311	177.060	12.631488	-57.244997	177.020	0.210	-0.450	0.230	177.060	-1.800	0.700																			1580026391.0	8.86	16.41
26/01/2020 08:13:12	26012020	260120	081312	177.120	12.631447	-57.244995	177.030	0.140	-0.700	0.290	177.120	-2.100	0.700																			1580026392.0	8.98	16.63
26/01/2020 08:13:13	26012020	260120	081313	176.940	12.631403	-57.244993	176.850	0.090	-0.830	0.570	176.940	-2.200	1.000																			1580026393.0	9.17	16.98
26/01/2020 08:13:14	26012020	260120	081314	176.830	12.631362	-57.244993	176.770	0.020	-0.530	0.740	176.830	-2.000	1.200																			1580026394.0	9.14	16.93
26/01/2020 08:13:15	26012020	260120	081315	176.940	12.631320	-57.244993	176.920	-0.150	0.170	0.770	176.940	-1.300	1.200																			1580026395.0	8.75	16.21
26/01/2020 08:13:16	26012020	260120	081316	177.140	12.631282	-57.244993	177.090	-0.300	0.700	0.780	177.140	-0.700	1.200																			1580026396.0	8.42	15.59
26/01/2020 08:13:17	26012020	260120	081317	177.160	12.631242	-57.244993	177.060	-0.200	0.570	0.810	177.160	-0.800	1.200																			1580026397.0	8.70	16.11
26/01/2020 08:13:18	26012020	260120	081318	176.970	12.631198	-57.244995	176.860	0.110	-0.020	0.940	176.970	-1.400	1.400																			1580026398.0	9.36	17.33
26/01/2020 08:13:19	26012020	260120	081319	176.730	12.631153	-57.244995	176.630	0.350	-0.450	1.070	176.730	-1.800	1.500																			1580026399.0	9.57	17.72
26/01/2020 08:13:20	26012020	260120	081320	176.610	12.631110	-57.244995	176.520	0.310	-0.450	1.020	176.610	-1.900	1.500																			1580026400.0	9.14	16.93
26/01/2020 08:13:21	26012020	260120	081321	176.560	12.631070	-57.244995	176.480	0.090	-0.290	0.870	176.560	-1.700	1.300																			1580026401.0	8.65	16.02
26/01/2020 08:13:22	26012020	260120	081322	176.610	12.631030	-57.244997	176.560	-0.090	-0.210	0.680	176.610	-1.600	1.100																			1580026402.0	8.60	15.93
26/01/2020 08:13:23	26012020	260120	081323	176.860	12.630990	-57.244997	176.840	-0.130	-0.250	0.430	176.860	-1.600	0.900																			1580026403.0	8.74	16.19
26/01/2020 08:13:24	26012020	260120	081324	177.180	12.630948	-57.244997	177.150	-0.070	-0.420	0.240	177.180	-1.800	0.700																			1580026404.0	8.89	16.46
26/01/2020 08:13:25	26012020	260120	081325	177.320	12.630907	-57.244997	177.250	-0.020	-0.630	0.300	177.330	-2.000	0.700																			1580026405.0	9.07	16.80
26/01/2020 08:13:26	26012020	260120	081326	177.270	12.630863	-57.244997	177.160	0.000	-0.700	0.600	177.270	-2.100	1.000																			1580026406.0	9.18	17.00
26/01/2020 08:13:27	26012020	260120	081327	177.120	12.630822	-57.244997	177.020	0.010	-0.530	0.880	177.120	-1.900	1.300																			1580026407.0	9.15	16.95
26/01/2020 08:13:28	26012020	260120	081328	177.060	12.630780	-57.244997	176.990	-0.050	-0.080	0.970	177.060	-1.500	1.400																			1580026408.0	9.01	16.69
26/01/2020 08:13:29	26012020	260120	081329	177.210	12.630738	-57.244997	177.170	-0.190	0.450	0.870	177.210	-1.000	1.300																			1580026409.0	8.73	16.17
26/01/2020 08:13:30	26012020	260120	081330	177.390	12.630698	-57.244997	177.300	-0.290	0.600	0.870	177.390	-0.800	1.300																			1580026410.0	8.67	16.06
26/01/2020 08:13:31	26012020	260120	081331	177.320	12.630657	-57.244997	177.190	-0.210	0.230	1.090	177.320	-1.100	1.500																			1580026411.0	9.07	16.80
26/01/2020 08:13:32	26012020	260120	081332	177.100	12.630612	-57.244998	176.960	0.050	-0.220	1.310	177.100	-1.600	1.700																			1580026412.0	9.43	17.46
26/01/2020 08:13:33	26012020	260120	081333	176.870	12.630570	-57.245000	176.740	0.300	-0.370	1.460	176.870	-1.800	1.900																			1580026413.0	9.28	17.19
26/01/2020 08:13:34	26012020	260120	081334	176.680	12.630528	-57.245000	176.560	0.340	-0.290	1.480	176.680	-1.700	1.900																			1580026414.0	8.85	16.39
26/01/2020 08:13:35	26012020	260120	081335	176.600	12.630488	-57.245000	176.500	0.200	-0.230	1.290	176.600	-1.600	1.700																			1580026415.0	8.68	16.08
26/01/2020 08:13:36	26012020	260120	081336	176.640	12.630447	-57.245000	176.550	0.030	-0.270	1.070	176.640	-1.600	1.500																			1580026416.0	8.74	16.19
26/01/2020 08:13:37	26012020	260120	081337	176.670	12.630405	-57.245000	176.580	-0.030	-0.340	0.860	176.670	-1.700	1.300																			1580026417.0	8.89	16.46
26/01/2020 08:13:38	26012020	260120	081338	176.740	12.630365	-57.245002	176.670	0.000	-0.300	0.670	176.740	-1.700	1.100																			1580026418.0	8.91	16.50
26/01/2020 08:13:39	26012020	260120	081339	176.880	12.630323	-57.245000	176.800	0.030	-0.230	0.550	176.880	-1.600	1.000																			1580026419.0	8.79	16.28
26/01/2020 08:13:40	26012020	260120	081340	176.940	12.630282	-57.245000	176.850	0.060	-0.330	0.510	176.940	-1.700	0.900																			1580026420.0	8.87	16.43
26/01/2020 08:13:41	26012020	260120	081341	176.910	12.630240	-57.245000	176.820	0.110	-0.490	0.580	176.910	-1.900	1.000																			1580026421.0	9.15	16.95
26/01/2020 08:13:42	26012020	260120	081342	176.940	12.630197	-57.245000	176.870	0.080	-0.390	0.700	176.940	-1.800	1.100																			1580026422.0	9.16	16.96
26/01/2020 08:13:43	26012020	260120	081343	177.050	12.630155	-57.244998	176.980	-0.070	-0.150	0.840	177.050	-1.600	1.300																			1580026423.0	8.86	16.41
26/01/2020 08:13:44	26012020	260120	081344	177.080	12.630115	-57.244998	176.990	-0.230	-0.040	1.110	177.080	-1.400	1.500																			1580026424.0	8.81	16.32
26/01/2020 08:13:45	26012020	260120	081345	177.000	12.630073	-57.245002	176.900	-0.280	-0.080	1.470	177.000	-1.500	1.900																			1580026425.0	9.04	16.74
26/01/2020 08:13:46	26012020	260120	081346	176.860	12.630030	-57.245003	176.760	-0.190	-0.110	1.670	176.860	-1.500	2.100																			1580026426.0	9.16	16.96
26/01/2020 08:13:47	26012020	260120	081347	176.770	12.629988	-57.245003	176.670	-0.050	-0.100	1.530	176.770	-1.500	2.000																			1580026427.0	9.10	16.85
26/01/2020 08:13:48	26012020	260120	081348	176.680	12.629947	-57.245002	176.580	0.030	-0.110	1.300	176.680	-1.500	1.700																			1580026428.0	9.02	16.71
26/01/2020 08:13:49	26012020	260120	081349	176.600	12.629905	-57.245000	176.490	0.030	-0.130	1.130	176.600	-1.500	1.600																			1580026429.0	9.01	16.69
26/01/2020 08:13:50	26012020	260120	081350	176.520	12.629863	-57.245000	176.420	-0.060	-0.110	1.090	176.520	-1.500	1.500																			1580026430.0	8.98	16.63
26/01/2020 08:13:51	26012020	260120	081351	176.510	12.629822	-57.245000	176.420	-0.130	-0.060	1.070	176.510	-1.400	1.500																			1580026431.0	8.88	16.45
26/01/2020 08:13:52	26012020	260120	081352	176.530	12.629780	-57.245002	176.450	-0.080	-0.100	1.020	176.530	-1.500	1.400																			1580026432.0	8.87	16.43
26/01/2020 08:13:53	26012020	260120	081353	176.560	12.629738	-57.245003	176.500	0.100	-0.200	0.960	176.560	-1.600	1.400																			1580026433.0	8.97	16.61
26/01/2020 08:13:54	26012020	260120	081354	176.720	12.629697	-57.245003	176.680	0.270	-0.210	0.760	176.720	-1.600	1.200																			1580026434.0	8.94	16.56
26/01/2020 08:13:55	26012020	260120	081355	176.930	12.629657	-57.245003	176.870	0.350	-0.190	0.510	176.930	-1.600	1.000																			1580026435.0	8.76	16.22
26/01/2020 08:13:56	26012020	260120	081356	177.020	12.629615	-57.245002	176.940	0.350	-0.300	0.460	177.020	-1.700	0.900																			1580026436.0	8.81	16.32
26/01/2020 08:13:57	26012020	260120	081357	177.080	12.629573	-57.245000	177.010	0.240	-0.400	0.570	177.080	-1.800	1.000																			1580026437.0	9.00	16.67
26/01/2020 08:13:58	26012020	260120	081358	177.140	12.629532	-57.245000	177.050	0.060	-0.330	0.860	177.140	-1.700	1.300																			1580026438.0	8.94	16.56
26/01/2020 08:13:59	26012020	260120	081359	177.130	12.629492	-57.245002	177.040	-0.090	-0.180	1.140	177.130	-1.600	1.500																			1580026439.0	8.80	16.30
26/01/2020 08:14:00	26012020	260120	081400	177.090	12.629450	-57.245002	176.970	-0.080	-0.170	1.270	177.090	-1.500	1.700	1013.60	25.60	25.70	19.90	20.00	-1.00	71.00	71.00	414.00	25.20	317.00	9.80	108.00	7.20	14	3278.00	27.40	27.40	1580026440.0	8.83	16.35
26/01/2020 08:14:01	26012020	260120	081401	176.980	12.629408	-57.245002	176.860	0.000	-0.300	1.310	176.980	-1.700	1.700																			1580026441.0	9.08	16.82
26/01/2020 08:14:02	26012020	260120	081402	176.910	12.629365	-57.245002	176.800	-0.040	-0.350	1.260	176.910	-1.700	1.700																			1580026442.0	9.22	17.08
26/01/2020 08:14:03	26012020	260120	081403	176.860	12.629323	-57.245002	176.750	-0.240	-0.270	1.170	176.860	-1.700	1.600																			1580026443.0	9.04	16.74
26/01/2020 08:14:04	26012020	260120	081404	176.820	12.629282	-57.245002	176.700	-0.460	-0.220	1.080	176.820	-1.600	1.500																			1580026444.0	8.96	16.59
26/01/2020 08:14:05	26012020	260120	081405	176.830	12.629238	-57.245003	176.740	-0.520	-0.170	0.970	176.830	-1.600	1.400																			1580026445.0	9.02	16.71
26/01/2020 08:14:06	26012020	260120	081406	176.920	12.629197	-57.245003	176.830	-0.350	-0.100	0.790	176.920	-1.500	1.200																			1580026446.0	8.99	16.65
26/01/2020 08:14:07	26012020	260120	081407	176.940	12.629155	-57.245005	176.830	-0.010	-0.140	0.550	176.940	-1.500	1.000																			1580026447.0	8.97	16.61
26/01/2020 08:14:08	26012020	260120	081408	176.910	12.629113	-57.245003	176.810	0.270	-0.260	0.350	176.910	-1.600	0.800																			1580026448.0	9.16	16.96
26/01/2020 08:14:09	26012020	260120	081409	176.980	12.629070	-57.245002	176.890	0.310	-0.220	0.340	176.980	-1.600	0.800																			1580026449.0	9.16	16.96
26/01/2020 08:14:10	26012020	260120	081410	177.080	12.629028	-57.245002	177.010	0.140	0.010	0.610	177.080	-1.400	1.000																			1580026450.0	8.92	16.52
26/01/2020 08:14:11	26012020	260120	081411	177.160	12.628988	-57.245003	177.070	-0.040	0.290	1.010	177.160	-1.100	1.400																			1580026451.0	8.71	16.13
26/01/2020 08:14:12	26012020	260120	081412	177.080	12.628948	-57.245007	176.950	-0.010	0.340	1.340	177.080	-1.000	1.700																			1580026452.0	8.70	16.11
26/01/2020 08:14:13	26012020	260120	081413	176.920	12.628907	-57.245008	176.800	0.240	0.120	1.400	176.920	-1.200	1.800																			1580026453.0	8.94	16.56
26/01/2020 08:14:14	26012020	260120	081414	176.800	12.628865	-57.245008	176.680	0.480	-0.180	1.220	176.800	-1.500	1.700																			1580026454.0	9.08	16.82
26/01/2020 08:14:15	26012020	260120	081415	176.760	12.628823	-57.245007	176.650	0.510	-0.350	0.940	176.760	-1.700	1.400																			1580026455.0	8.98	16.63
26/01/2020 08:14:16	26012020	260120	081416	176.750	12.628782	-57.245005	176.640	0.310	-0.440	0.740	176.750	-1.800	1.200																			1580026456.0	8.74	16.19
26/01/2020 08:14:17	26012020	260120	081417	176.710	12.628742	-57.245003	176.580	0.030	-0.580	0.760	176.690	-1.900	1.200																			1580026457.0	8.69	16.09
26/01/2020 08:14:18	26012020	260120	081418	176.620	12.628700	-57.245005	176.500	-0.140	-0.750	0.860	176.620	-2.100	1.300																			1580026458.0	8.87	16.43
26/01/2020 08:14:19	26012020	260120	081419	176.530	12.628658	-57.245005	176.420	-0.170	-0.900	0.990	176.530	-2.300	1.400																			1580026459.0	9.05	16.76
26/01/2020 08:14:20	26012020	260120	081420	176.500	12.628615	-57.245007	176.420	-0.150	-0.880	1.050	176.500	-2.300	1.500																			1580026460.0	9.19	17.02
26/01/2020 08:14:21	26012020	260120	081421	176.580	12.628573	-57.245007	176.510	-0.250	-0.620	1.090	176.580	-2.000	1.500																			1580026461.0	9.14	16.93
26/01/2020 08:14:22	26012020	260120	081422	176.630	12.628532	-57.245007	176.540	-0.480	-0.250	1.240	176.630	-1.700	1.600																			1580026462.0	9.04	16.74
26/01/2020 08:14:23	26012020	260120	081423	176.550	12.628488	-57.245008	176.450	-0.660	0.110	1.430	176.550	-1.300	1.800																			1580026463.0	9.09	16.83
26/01/2020 08:14:24	26012020	260120	081424	176.380	12.628447	-57.245010	176.270	-0.600	0.390	1.550	176.380	-1.000	2.000																			1580026464.0	9.18	17.00
26/01/2020 08:14:25	26012020	260120	081425	176.230	12.628403	-57.245012	176.140	-0.300	0.630	1.470	176.230	-0.800	1.900																			1580026465.0	9.22	17.08
26/01/2020 08:14:26	26012020	260120	081426	176.250	12.628362	-57.245012	176.200	0.050	0.840	1.110	176.250	-0.600	1.600																			1580026466.0	9.03	16.72
26/01/2020 08:14:27	26012020	260120	081427	176.500	12.628320	-57.245010	176.460	0.300	0.840	0.540	176.500	-0.500	1.000																			1580026467.0	8.77	16.24
26/01/2020 08:14:28	26012020	260120	081428	176.710	12.628280	-57.245007	176.630	0.440	0.410	0.130	176.710	-0.900	0.600																			1580026468.0	8.76	16.22
26/01/2020 08:14:29	26012020	260120	081429	176.650	12.628238	-57.245003	176.540	0.550	-0.380	0.190	176.650	-1.700	0.600																			1580026469.0	8.99	16.65
26/01/2020 08:14:30	26012020	260120	081430	176.470	12.628195	-57.245003	176.380	0.680	-0.980	0.500	176.470	-2.300	0.900																			1580026470.0	9.17	16.98
26/01/2020 08:14:31	26012020	260120	081431	176.360	12.628155	-57.245003	176.300	0.650	-1.030	0.840	176.360	-2.400	1.200																			1580026471.0	8.84	16.37
26/01/2020 08:14:32	26012020	260120	081432	176.330	12.628115	-57.245005	176.270	0.370	-0.810	1.100	176.330	-2.200	1.500																			1580026472.0	8.39	15.54
26/01/2020 08:14:33	26012020	260120	081433	176.280	12.628077	-57.245007	176.220	-0.000	-0.760	1.290	176.280	-2.100	1.700																			1580026473.0	8.44	15.63
26/01/2020 08:14:34	26012020	260120	081434	176.140	12.628035	-57.245008	176.080	-0.250	-0.920	1.480	176.140	-2.300	1.900																			1580026474.0	8.99	16.65
26/01/2020 08:14:35	26012020	260120	081435	176.110	12.627992	-57.245010	176.100	-0.380	-0.820	1.430	176.110	-2.200	1.900																			1580026475.0	9.35	17.32
26/01/2020 08:14:36	26012020	260120	081436	176.240	12.627948	-57.245010	176.220	-0.490	-0.380	1.250	176.240	-1.800	1.700																			1580026476.0	9.10	16.85
26/01/2020 08:14:37	26012020	260120	081437	176.320	12.627907	-57.245010	176.290	-0.560	0.080	1.050	176.320	-1.300	1.500																			1580026477.0	8.94	16.56
26/01/2020 08:14:38	26012020	260120	081438	176.370	12.627865	-57.245010	176.340	-0.520	0.340	0.780	176.370	-1.100	1.200																			1580026478.0	9.04	16.74
26/01/2020 08:14:39	26012020	260120	081439	176.400	12.627822	-57.245008	176.340	-0.340	0.400	0.660	176.390	-1.000	1.100																			1580026479.0	9.20	17.04
26/01/2020 08:14:40	26012020	260120	081440	176.310	12.627778	-57.245007	176.250	-0.110	0.370	0.720	176.310	-1.000	1.100																			1580026480.0	9.29	17.21
26/01/2020 08:14:41	26012020	260120	081441	176.230	12.627737	-57.245007	176.170	0.060	0.370	0.800	176.210	-1.000	1.200																			1580026481.0	9.17	16.98
26/01/2020 08:14:42	26012020	260120	081442	176.170	12.627695	-57.245007	176.140	0.170	0.350	0.880	176.170	-1.000	1.300																			1580026482.0	8.95	16.58
26/01/2020 08:14:43	26012020	260120	081443	176.180	12.627653	-57.245007	176.180	0.270	0.230	0.980	176.180	-1.100	1.400																			1580026483.0	8.84	16.37
26/01/2020 08:14:44	26012020	260120	081444	176.290	12.627613	-57.245007	176.300	0.360	0.050	1.050	176.290	-1.300	1.500																			1580026484.0	8.77	16.24
26/01/2020 08:14:45	26012020	260120	081445	176.460	12.627573	-57.245007	176.470	0.410	-0.190	1.130	176.460	-1.600	1.500																			1580026485.0	8.66	16.04
26/01/2020 08:14:46	26012020	260120	081446	176.560	12.627533	-57.245007	176.530	0.410	-0.550	1.220	176.560	-1.900	1.600																			1580026486.0	8.63	15.98
26/01/2020 08:14:47	26012020	260120	081447	176.400	12.627492	-57.245005	176.320	0.390	-1.060	1.410	176.400	-2.400	1.800																			1580026487.0	8.87	16.43
26/01/2020 08:14:48	26012020	260120	081448	176.080	12.627448	-57.245007	175.990	0.270	-1.340	1.670	176.080	-2.700	2.100																			1580026488.0	9.16	16.96
26/01/2020 08:14:49	26012020	260120	081449	175.840	12.627407	-57.245007	175.780	0.000	-1.050	1.700	175.840	-2.500	2.100																			1580026489.0	9.03	16.72
26/01/2020 08:14:50	26012020	260120	081450	175.730	12.627367	-57.245008	175.680	-0.290	-0.380	1.470	175.730	-1.800	1.900																			1580026490.0	8.61	15.95
26/01/2020 08:14:51	26012020	260120	081451	175.720	12.627327	-57.245008	175.700	-0.440	0.100	1.170	175.720	-1.300	1.600																			1580026491.0	8.54	15.82
26/01/2020 08:14:52	26012020	260120	081452	175.860	12.627285	-57.245007	175.850	-0.370	0.160	0.780	175.860	-1.200	1.200																			1580026492.0	8.96	16.59
26/01/2020 08:14:53	26012020	260120	081453	176.050	12.627242	-57.245005	176.100	-0.210	0.030	0.450	176.090	-1.300	0.900																			1580026493.0	9.38	17.37
26/01/2020 08:14:54	26012020	260120	081454	176.350	12.627198	-57.245003	176.350	-0.110	0.030	0.370	176.350	-1.400	0.800																			1580026494.0	9.40	17.41
26/01/2020 08:14:55	26012020	260120	081455	176.560	12.627155	-57.245002	176.540	-0.170	0.130	0.520	176.560	-1.300	0.900																			1580026495.0	9.10	16.85
26/01/2020 08:14:56	26012020	260120	081456	176.640	12.627113	-57.245002	176.620	-0.260	0.160	0.840	176.640	-1.200	1.200																			1580026496.0	8.95	16.58
26/01/2020 08:14:57	26012020	260120	081457	176.610	12.627072	-57.245003	176.560	-0.230	0.060	1.160	176.610	-1.300	1.600																			1580026497.0	8.99	16.65
26/01/2020 08:14:58	26012020	260120	081458	176.500	12.627030	-57.245005	176.440	-0.010	-0.030	1.250	176.500	-1.400	1.700																			1580026498.0	9.03	16.72
26/01/2020 08:14:59	26012020	260120	081459	176.420	12.626988	-57.245003	176.360	0.280	-0.010	1.040	176.420	-1.400	1.500																			1580026499.0	8.90	16.48
26/01/2020 08:15:00	26012020	260120	081500	176.420	12.626948	-57.245002	176.360	0.440	0.030	0.740	176.420	-1.400	1.200	1013.60	25.60	25.60	19.80	19.90	-1.00	70.00	70.00	415.00	25.20	315.00	9.90	105.00	7.40	14	3203.00	27.40	27.40	1580026500.0	8.69	16.09
26/01/2020 08:15:01	26012020	260120	081501	176.370	12.626908	-57.244998	176.280	0.400	-0.110	0.670	176.370	-1.500	1.100																			1580026501.0	8.63	15.98
26/01/2020 08:15:02	26012020	260120	081502	176.220	12.626868	-57.244997	176.130	0.230	-0.410	0.920	176.220	-1.800	1.300																			1580026502.0	8.81	16.32
26/01/2020 08:15:03	26012020	260120	081503	176.020	12.626825	-57.244998	175.940	0.050	-0.670	1.300	176.020	-2.000	1.700																			1580026503.0	8.99	16.65
26/01/2020 08:15:04	26012020	260120	081504	175.870	12.626785	-57.245002	175.820	-0.040	-0.690	1.520	175.870	-2.100	1.900																			1580026504.0	8.97	16.61
26/01/2020 08:15:05	26012020	260120	081505	175.820	12.626743	-57.245005	175.800	-0.060	-0.610	1.450	175.830	-2.000	1.900																			1580026505.0	8.84	16.37
26/01/2020 08:15:06	26012020	260120	081506	175.900	12.626702	-57.245005	175.890	-0.060	-0.480	1.150	175.900	-1.900	1.600																			1580026506.0	8.85	16.39
26/01/2020 08:15:07	26012020	260120	081507	176.040	12.626660	-57.245003	176.020	-0.100	-0.350	0.780	176.040	-1.700	1.200																			1580026507.0	8.89	16.46
26/01/2020 08:15:08	26012020	260120	081508	176.130	12.626618	-57.245002	176.110	-0.150	-0.260	0.480	176.130	-1.600	0.900																			1580026508.0	8.97	16.61
26/01/2020 08:15:09	26012020	260120	081509	176.190	12.626577	-57.244998	176.160	-0.190	-0.250	0.360	176.190	-1.600	0.800																			1580026509.0	9.11	16.87
26/01/2020 08:15:10	26012020	260120	081510	176.210	12.626533	-57.244997	176.180	-0.210	-0.210	0.510	176.210	-1.600	0.900																			1580026510.0	9.27	17.17
26/01/2020 08:15:11	26012020	260120	081511	176.280	12.626492	-57.244997	176.300	-0.290	0.040	0.740	176.280	-1.400	1.100																			1580026511.0	9.19	17.02
26/01/2020 08:15:12	26012020	260120	081512	176.520	12.626450	-57.244997	176.560	-0.420	0.400	0.950	176.520	-1.000	1.400																			1580026512.0	8.88	16.45
26/01/2020 08:15:13	26012020	260120	081513	176.720	12.626408	-57.244998	176.710	-0.410	0.450	1.140	176.720	-0.900	1.500																			1580026513.0	8.75	16.21
26/01/2020 08:15:14	26012020	260120	081514	176.660	12.626367	-57.244998	176.600	-0.110	0.130	1.300	176.660	-1.200	1.700																			1580026514.0	9.06	16.78
26/01/2020 08:15:15	26012020	260120	081515	176.430	12.626323	-57.244998	176.350	0.270	-0.150	1.390	176.430	-1.500	1.800																			1580026515.0	9.28	17.19
26/01/2020 08:15:16	26012020	260120	081516	176.190	12.626282	-57.244997	176.130	0.450	-0.140	1.280	176.190	-1.500	1.700																			1580026516.0	8.99	16.65
26/01/2020 08:15:17	26012020	260120	081517	176.130	12.626242	-57.244995	176.110	0.360	-0.010	0.990	176.130	-1.400	1.400																			1580026517.0	8.58	15.89
26/01/2020 08:15:18	26012020	260120	081518	176.200	12.626203	-57.244993	176.180	0.150	-0.100	0.810	176.200	-1.500	1.200																			1580026518.0	8.47	15.69
26/01/2020 08:15:19	26012020	260120	081519	176.260	12.626162	-57.244993	176.230	0.100	-0.510	0.780	176.260	-1.900	1.200																			1580026519.0	8.76	16.22
26/01/2020 08:15:20	26012020	260120	081520	176.210	12.626120	-57.244995	176.160	0.230	-0.950	0.940	176.210	-2.300	1.300																			1580026520.0	9.14	16.93
26/01/2020 08:15:21	26012020	260120	081521	176.160	12.626077	-57.244995	176.120	0.280	-1.060	1.050	176.160	-2.500	1.500																			1580026521.0	9.23	17.09
26/01/2020 08:15:22	26012020	260120	081522	176.190	12.626035	-57.244997	176.180	0.030	-0.720	1.050	176.190	-2.100	1.500																			1580026522.0	8.93	16.54
26/01/2020 08:15:23	26012020	260120	081523	176.300	12.625995	-57.244997	176.280	-0.350	-0.240	0.960	176.300	-1.700	1.400																			1580026523.0	8.67	16.06
26/01/2020 08:15:24	26012020	260120	081524	176.430	12.625953	-57.244997	176.400	-0.480	0.050	0.710	176.430	-1.400	1.200																			1580026524.0	8.78	16.26
26/01/2020 08:15:25	26012020	260120	081525	176.630	12.625912	-57.244995	176.630	-0.320	0.190	0.400	176.630	-1.200	0.800																			1580026525.0	9.08	16.82
26/01/2020 08:15:26	26012020	260120	081526	176.960	12.625870	-57.244992	176.940	-0.120	0.260	0.200	176.960	-1.100	0.600																			1580026526.0	9.16	16.96
26/01/2020 08:15:27	26012020	260120	081527	177.160	12.625827	-57.244990	177.100	-0.100	0.180	0.380	177.160	-1.200	0.800																			1580026527.0	9.09	16.83
26/01/2020 08:15:28	26012020	260120	081528	177.120	12.625785	-57.244990	177.030	-0.170	-0.080	0.840	177.120	-1.400	1.200																			1580026528.0	9.16	16.96
26/01/2020 08:15:29	26012020	260120	081529	176.910	12.625742	-57.244992	176.800	-0.180	-0.280	1.390	176.910	-1.700	1.800																			1580026529.0	9.26	17.15
26/01/2020 08:15:30	26012020	260120	081530	176.630	12.625698	-57.244995	176.510	-0.060	-0.240	1.830	176.630	-1.600	2.200																			1580026530.0	9.12	16.89
26/01/2020 08:15:31	26012020	260120	081531	176.440	12.625658	-57.244998	176.350	0.130	-0.000	1.840	176.440	-1.400	2.300																			1580026531.0	8.83	16.35
26/01/2020 08:15:32	26012020	260120	081532	176.430	12.625618	-57.244998	176.340	0.260	0.180	1.440	176.430	-1.200	1.900																			1580026532.0	8.57	15.87
26/01/2020 08:15:33	26012020	260120	081533	176.440	12.625578	-57.244997	176.340	0.310	0.040	0.930	176.440	-1.300	1.400																			1580026533.0	8.63	15.98
26/01/2020 08:15:34	26012020	260120	081534	176.470	12.625537	-57.244993	176.380	0.300	-0.310	0.530	176.470	-1.700	1.000																			1580026534.0	8.90	16.48
26/01/2020 08:15:35	26012020	260120	081535	176.550	12.625495	-57.244992	176.450	0.270	-0.620	0.380	176.550	-2.000	0.800																			1580026535.0	9.03	16.72
26/01/2020 08:15:36	26012020	260120	081536	176.600	12.625453	-57.244992	176.500	0.230	-0.740	0.450	176.600	-2.100	0.900																			1580026536.0	8.96	16.59
26/01/2020 08:15:37	26012020	260120	081537	176.550	12.625412	-57.244992	176.440	0.160	-0.730	0.650	176.550	-2.100	1.100																			1580026537.0	8.91	16.50
26/01/2020 08:15:38	26012020	260120	081538	176.530	12.625370	-57.244992	176.470	0.020	-0.530	0.830	176.530	-1.900	1.200																			1580026538.0	9.00	16.67
26/01/2020 08:15:39	26012020	260120	081539	176.770	12.625328	-57.244993	176.740	-0.200	-0.070	0.890	176.770	-1.500	1.300																			1580026539.0	8.85	16.39
26/01/2020 08:15:40	26012020	260120	081540	177.070	12.625288	-57.244995	177.020	-0.330	0.330	0.860	177.070	-1.100	1.300																			1580026540.0	8.59	15.91
26/01/2020 08:15:41	26012020	260120	081541	177.150	12.625248	-57.244995	177.040	-0.230	0.210	0.850	177.150	-1.200	1.300																			1580026541.0	8.79	16.28
26/01/2020 08:15:42	26012020	260120	081542	177.010	12.625205	-57.244995	176.880	-0.020	-0.200	0.960	177.010	-1.600	1.400																			1580026542.0	9.36	17.33
26/01/2020 08:15:43	26012020	260120	081543	176.860	12.625160	-57.244993	176.740	0.040	-0.380	1.090	176.860	-1.800	1.500																			1580026543.0	9.46	17.52
26/01/2020 08:15:44	26012020	260120	081544	176.740	12.625118	-57.244993	176.620	-0.110	-0.250	1.090	176.740	-1.700	1.500																			1580026544.0	9.04	16.74
26/01/2020 08:15:45	26012020	260120	081545	176.620	12.625078	-57.244993	176.500	-0.260	-0.100	1.020	176.620	-1.500	1.400																			1580026545.0	8.74	16.19
26/01/2020 08:15:46	26012020	260120	081546	176.580	12.625037	-57.244995	176.470	-0.250	-0.110	0.940	176.580	-1.500	1.400																			1580026546.0	8.81	16.32
26/01/2020 08:15:47	26012020	260120	081547	176.600	12.624995	-57.244995	176.490	-0.040	-0.240	0.760	176.600	-1.600	1.200																			1580026547.0	9.00	16.67
26/01/2020 08:15:48	26012020	260120	081548	176.630	12.624953	-57.244995	176.540	0.220	-0.340	0.540	176.630	-1.700	1.000																			1580026548.0	9.11	16.87
26/01/2020 08:15:49	26012020	260120	081549	176.770	12.624912	-57.244993	176.700	0.330	-0.230	0.380	176.770	-1.600	0.800																			1580026549.0	9.02	16.71
26/01/2020 08:15:50	26012020	260120	081550	176.990	12.624870	-57.244993	176.920	0.220	0.060	0.350	176.990	-1.400	0.800																			1580026550.0	8.75	16.21
26/01/2020 08:15:51	26012020	260120	081551	177.180	12.624830	-57.244993	177.110	0.040	0.290	0.440	177.180	-1.100	0.900																			1580026551.0	8.55	15.83
26/01/2020 08:15:52	26012020	260120	081552	177.290	12.624790	-57.244993	177.200	-0.050	0.200	0.710	177.290	-1.200	1.100																			1580026552.0	8.67	16.06
26/01/2020 08:15:53	26012020	260120	081553	177.250	12.624748	-57.244995	177.120	0.060	-0.150	1.130	177.250	-1.500	1.500																			1580026553.0	9.02	16.71
26/01/2020 08:15:54	26012020	260120	081554	177.080	12.624705	-57.244998	176.950	0.270	-0.440	1.430	177.080	-1.800	1.800																			1580026554.0	9.17	16.98
26/01/2020 08:15:55	26012020	260120	081555	176.950	12.624663	-57.244998	176.790	0.380	-0.560	1.480	176.920	-1.900	1.900																			1580026555.0	8.99	16.65
26/01/2020 08:15:56	26012020	260120	081556	176.790	12.624623	-57.244998	176.650	0.280	-0.600	1.440	176.790	-2.000	1.900																			1580026556.0	8.85	16.39
26/01/2020 08:15:57	26012020	260120	081557	176.640	12.624582	-57.244998	176.500	0.030	-0.670	1.290	176.640	-2.100	1.700																			1580026557.0	8.90	16.48
26/01/2020 08:15:58	26012020	260120	081558	176.500	12.624540	-57.244998	176.360	-0.220	-0.700	1.080	176.500	-2.100	1.500																			1580026558.0	9.04	16.74
26/01/2020 08:15:59	26012020	260120	081559	176.430	12.624497	-57.244998	176.310	-0.390	-0.560	0.850	176.430	-2.000	1.300																			1580026559.0	9.12	16.89
26/01/2020 08:16:00	26012020	260120	081600	176.520	12.624455	-57.244998	176.430	-0.470	-0.210	0.590	176.520	-1.600	1.000	1013.60	25.60	25.70	20.00	20.00	-1.00	71.00	71.00	417.00	25.20	313.00	9.40	101.00	7.10	14	3252.00	27.40	27.40	1580026560.0	9.02	16.71
26/01/2020 08:16:01	26012020	260120	081601	176.740	12.624413	-57.244998	176.680	-0.500	0.180	0.350	176.740	-1.200	0.800																			1580026561.0	8.86	16.41
26/01/2020 08:16:02	26012020	260120	081602	177.020	12.624373	-57.244997	176.970	-0.440	0.350	0.200	177.020	-1.000	0.600																			1580026562.0	8.90	16.48
26/01/2020 08:16:03	26012020	260120	081603	177.280	12.624330	-57.244997	177.210	-0.230	0.320	0.260	177.280	-1.100	0.700																			1580026563.0	9.09	16.83
26/01/2020 08:16:04	26012020	260120	081604	177.410	12.624288	-57.244997	177.320	0.090	0.250	0.510	177.410	-1.100	0.900																			1580026564.0	9.14	16.93
26/01/2020 08:16:05	26012020	260120	081605	177.390	12.624245	-57.244997	177.260	0.410	0.160	0.880	177.390	-1.200	1.300																			1580026565.0	9.00	16.67
26/01/2020 08:16:06	26012020	260120	081606	177.170	12.624205	-57.244998	177.020	0.600	0.020	1.240	177.170	-1.400	1.600																			1580026566.0	8.91	16.50
26/01/2020 08:16:07	26012020	260120	081607	176.890	12.624163	-57.244998	176.750	0.540	-0.120	1.470	176.890	-1.500	1.900																			1580026567.0	8.91	16.50
26/01/2020 08:16:08	26012020	260120	081608	176.650	12.624122	-57.244998	176.520	0.290	-0.240	1.650	176.650	-1.600	2.100																			1580026568.0	8.80	16.30
26/01/2020 08:16:09	26012020	260120	081609	176.430	12.624082	-57.245000	176.300	0.090	-0.370	1.640	176.430	-1.800	2.100																			1580026569.0	8.76	16.22
26/01/2020 08:16:10	26012020	260120	081610	176.280	12.624040	-57.245002	176.170	0.110	-0.540	1.290	176.280	-1.900	1.800																			1580026570.0	8.81	16.32
26/01/2020 08:16:11	26012020	260120	081611	176.290	12.623998	-57.245002	176.220	0.220	-0.650	0.790	176.290	-2.000	1.300																			1580026571.0	8.90	16.48
26/01/2020 08:16:12	26012020	260120	081612	176.500	12.623958	-57.245000	176.440	0.150	-0.640	0.410	176.500	-2.000	0.900																			1580026572.0	8.87	16.43
26/01/2020 08:16:13	26012020	260120	081613	176.750	12.623917	-57.244998	176.670	-0.130	-0.580	0.240	176.750	-2.000	0.700																			1580026573.0	8.81	16.32
26/01/2020 08:16:14	26012020	260120	081614	176.900	12.623875	-57.244998	176.820	-0.420	-0.540	0.360	176.900	-1.900	0.800																			1580026574.0	8.91	16.50
26/01/2020 08:16:15	26012020	260120	081615	176.950	12.623833	-57.245000	176.850	-0.470	-0.530	0.730	176.950	-1.900	1.100																			1580026575.0	9.12	16.89
26/01/2020 08:16:16	26012020	260120	081616	176.910	12.623790	-57.245002	176.830	-0.320	-0.380	1.030	176.910	-1.800	1.400																			1580026576.0	9.31	17.24
26/01/2020 08:16:17	26012020	260120	081617	176.970	12.623747	-57.245003	176.910	-0.230	0.040	1.050	176.970	-1.400	1.500																			1580026577.0	9.16	16.96
26/01/2020 08:16:18	26012020	260120	081618	177.050	12.623707	-57.245003	176.950	-0.240	0.470	1.000	177.050	-0.900	1.400																			1580026578.0	8.86	16.41
26/01/2020 08:16:19	26012020	260120	081619	176.970	12.623665	-57.245002	176.860	-0.200	0.580	0.970	176.970	-0.800	1.400																			1580026579.0	8.88	16.45
26/01/2020 08:16:20	26012020	260120	081620	176.830	12.623622	-57.245002	176.690	-0.010	0.430	0.940	176.830	-0.900	1.400																			1580026580.0	9.10	16.85
26/01/2020 08:16:21	26012020	260120	081621	176.640	12.623580	-57.245000	176.500	0.240	0.220	0.940	176.640	-1.200	1.400																			1580026581.0	9.15	16.95
26/01/2020 08:16:22	26012020	260120	081622	176.440	12.623538	-57.245000	176.310	0.400	0.050	0.990	176.440	-1.300	1.400																			1580026582.0	8.98	16.63
26/01/2020 08:16:23	26012020	260120	081623	176.340	12.623497	-57.245000	176.240	0.410	-0.080	1.010	176.340	-1.500	1.400																			1580026583.0	8.78	16.26
26/01/2020 08:16:24	26012020	260120	081624	176.350	12.623457	-57.245000	176.250	0.350	-0.300	1.040	176.350	-1.700	1.500																			1580026584.0	8.67	16.06
26/01/2020 08:16:25	26012020	260120	081625	176.340	12.623417	-57.245002	176.240	0.290	-0.670	1.160	176.340	-2.000	1.600																			1580026585.0	8.78	16.26
26/01/2020 08:16:26	26012020	260120	081626	176.290	12.623375	-57.245003	176.200	0.240	-1.000	1.310	176.290	-2.400	1.700																			1580026586.0	9.01	16.69
26/01/2020 08:16:27	26012020	260120	081627	176.280	12.623332	-57.245005	176.200	0.120	-0.990	1.360	176.280	-2.400	1.800																			1580026587.0	9.01	16.69
26/01/2020 08:16:28	26012020	260120	081628	176.350	12.623292	-57.245005	176.290	-0.090	-0.630	1.290	176.350	-2.000	1.700																			1580026588.0	8.76	16.22
26/01/2020 08:16:29	26012020	260120	081629	176.430	12.623252	-57.245007	176.340	-0.290	-0.290	1.150	176.430	-1.700	1.600																			1580026589.0	8.65	16.02
26/01/2020 08:16:30	26012020	260120	081630	176.400	12.623210	-57.245005	176.330	-0.400	-0.150	1.060	176.400	-1.500	1.500																			1580026590.0	8.92	16.52
26/01/2020 08:16:31	26012020	260120	081631	176.470	12.623167	-57.245005	176.420	-0.380	0.000	0.830	176.470	-1.400	1.300																			1580026591.0	9.19	17.02
26/01/2020 08:16:32	26012020	260120	081632	176.630	12.623125	-57.245003	176.570	-0.260	0.190	0.580	176.630	-1.200	1.000																			1580026592.0	9.07	16.80
26/01/2020 08:16:33	26012020	260120	081633	176.730	12.623083	-57.245002	176.680	-0.100	0.200	0.450	176.740	-1.200	0.900																			1580026593.0	9.06	16.78
26/01/2020 08:16:34	26012020	260120	081634	176.810	12.623040	-57.245000	176.730	-0.020	0.090	0.540	176.810	-1.300	0.900																			1580026594.0	9.16	16.96
26/01/2020 08:16:35	26012020	260120	081635	176.760	12.622998	-57.245000	176.670	-0.030	-0.080	0.910	176.760	-1.500	1.300																			1580026595.0	9.15	16.95
26/01/2020 08:16:36	26012020	260120	081636	176.600	12.622955	-57.245002	176.490	-0.010	-0.190	1.340	176.600	-1.600	1.700																			1580026596.0	9.12	16.89
26/01/2020 08:16:37	26012020	260120	081637	176.420	12.622913	-57.245003	176.320	0.110	-0.160	1.520	176.420	-1.600	1.900																			1580026597.0	9.00	16.67
26/01/2020 08:16:38	26012020	260120	081638	176.320	12.622873	-57.245005	176.220	0.260	-0.020	1.400	176.320	-1.400	1.800																			1580026598.0	8.78	16.26
26/01/2020 08:16:39	26012020	260120	081639	176.280	12.622833	-57.245003	176.190	0.310	0.040	1.130	176.280	-1.400	1.600																			1580026599.0	8.65	16.02
26/01/2020 08:16:40	26012020	260120	081640	176.230	12.622792	-57.245002	176.140	0.250	-0.150	0.900	176.230	-1.500	1.300																			1580026600.0	8.75	16.21
26/01/2020 08:16:41	26012020	260120	081641	176.200	12.622750	-57.245000	176.130	0.170	-0.430	0.750	176.200	-1.800	1.200																			1580026601.0	9.02	16.71
26/01/2020 08:16:42	26012020	260120	081642	176.260	12.622708	-57.245000	176.200	0.070	-0.540	0.680	176.260	-1.900	1.100																			1580026602.0	9.06	16.78
26/01/2020 08:16:43	26012020	260120	081643	176.360	12.622667	-57.245000	176.310	-0.060	-0.440	0.700	176.360	-1.800	1.100																			1580026603.0	8.86	16.41
26/01/2020 08:16:44	26012020	260120	081644	176.510	12.622627	-57.245002	176.480	-0.190	-0.290	0.740	176.510	-1.700	1.200																			1580026604.0	8.75	16.21
26/01/2020 08:16:45	26012020	260120	081645	176.690	12.622585	-57.245003	176.680	-0.220	-0.240	0.780	176.720	-1.600	1.200																			1580026605.0	8.79	16.28
26/01/2020 08:16:46	26012020	260120	081646	176.770	12.622543	-57.245003	176.680	-0.070	-0.380	0.900	176.770	-1.800	1.300																			1580026606.0	9.00	16.67
26/01/2020 08:16:47	26012020	260120	081647	176.680	12.622500	-57.245003	176.570	0.090	-0.480	1.010	176.660	-1.900	1.400																			1580026607.0	9.27	17.17
26/01/2020 08:16:48	26012020	260120	081648	176.620	12.622458	-57.245002	176.570	0.020	-0.250	1.070	176.620	-1.700	1.500																			1580026608.0	9.14	16.93
26/01/2020 08:16:49	26012020	260120	081649	176.690	12.622417	-57.245000	176.630	-0.250	0.110	1.110	176.690	-1.300	1.500																			1580026609.0	8.77	16.24
26/01/2020 08:16:50	26012020	260120	081650	176.670	12.622377	-57.245002	176.560	-0.440	0.170	1.180	176.670	-1.200	1.600																			1580026610.0	8.73	16.17
26/01/2020 08:16:51	26012020	260120	081651	176.450	12.622333	-57.245003	176.340	-0.280	-0.150	1.300	176.450	-1.500	1.700																			1580026611.0	9.18	17.00
26/01/2020 08:16:52	26012020	260120	081652	176.290	12.622290	-57.245003	176.210	0.100	-0.320	1.200	176.290	-1.700	1.600																			1580026612.0	9.50	17.59
26/01/2020 08:16:53	26012020	260120	081653	176.300	12.622247	-57.245003	176.250	0.350	-0.040	0.850	176.300	-1.500	1.300																			1580026613.0	9.08	16.82
26/01/2020 08:16:54	26012020	260120	081654	176.440	12.622208	-57.245000	176.380	0.300	0.270	0.430	176.440	-1.100	0.900																			1580026614.0	8.53	15.80
26/01/2020 08:16:55	26012020	260120	081655	176.550	12.622168	-57.244997	176.470	0.100	0.080	0.260	176.550	-1.300	0.700																			1580026615.0	8.61	15.95
26/01/2020 08:16:56	26012020	260120	081656	176.510	12.622125	-57.244997	176.420	0.000	-0.460	0.560	176.510	-1.800	0.900																			1580026616.0	9.15	16.95
26/01/2020 08:16:57	26012020	260120	081657	176.410	12.622082	-57.244998	176.340	0.020	-0.660	0.930	176.410	-2.000	1.300																			1580026617.0	9.40	17.41
26/01/2020 08:16:58	26012020	260120	081658	176.380	12.622040	-57.245000	176.330	0.070	-0.380	1.120	176.380	-1.800	1.500																			1580026618.0	8.95	16.58
26/01/2020 08:16:59	26012020	260120	081659	176.470	12.622000	-57.245002	176.430	0.070	-0.030	1.050	176.470	-1.400	1.500																			1580026619.0	8.54	15.82
26/01/2020 08:17:00	26012020	260120	081700	176.630	12.621960	-57.245002	176.580	-0.010	0.000	0.940	176.630	-1.400	1.400	1013.60	25.60	25.60	19.80	19.90	-1.00	70.00	70.00	419.00	25.20	312.00	9.30	100.00	7.00	14	3155.00	27.40	27.40	1580026620.0	8.62	15.96
26/01/2020 08:17:01	26012020	260120	081701	176.690	12.621918	-57.245002	176.620	-0.120	-0.230	0.970	176.690	-1.600	1.400																			1580026621.0	8.97	16.61
26/01/2020 08:17:02	26012020	260120	081702	176.610	12.621875	-57.245003	176.510	-0.140	-0.470	1.060	176.610	-1.800	1.500																			1580026622.0	9.21	17.06
26/01/2020 08:17:03	26012020	260120	081703	176.370	12.621833	-57.245003	176.260	-0.060	-0.480	1.170	176.370	-1.900	1.600																			1580026623.0	9.16	16.96
26/01/2020 08:17:04	26012020	260120	081704	176.140	12.621792	-57.245003	176.060	0.010	-0.230	1.180	176.140	-1.600	1.600																			1580026624.0	8.96	16.59
26/01/2020 08:17:05	26012020	260120	081705	176.160	12.621752	-57.245002	176.120	-0.010	0.090	0.950	176.160	-1.300	1.400																			1580026625.0	8.72	16.15
26/01/2020 08:17:06	26012020	260120	081706	176.340	12.621710	-57.245000	176.320	-0.060	0.150	0.710	176.340	-1.200	1.100																			1580026626.0	8.66	16.04
26/01/2020 08:17:07	26012020	260120	081707	176.470	12.621668	-57.244998	176.430	-0.030	-0.170	0.730	176.470	-1.500	1.200																			1580026627.0	8.98	16.63
26/01/2020 08:17:08	26012020	260120	081708	176.530	12.621625	-57.244998	176.480	0.080	-0.540	0.900	176.530	-1.900	1.300																			1580026628.0	9.32	17.26
26/01/2020 08:17:09	26012020	260120	081709	176.540	12.621582	-57.245000	176.480	0.150	-0.640	1.110	176.530	-2.000	1.500																			1580026629.0	9.27	17.17
26/01/2020 08:17:10	26012020	260120	081710	176.530	12.621540	-57.245000	176.480	0.090	-0.470	1.290	176.530	-1.900	1.700																			1580026630.0	9.05	16.76
26/01/2020 08:17:11	26012020	260120	081711	176.560	12.621500	-57.245002	176.510	-0.120	-0.120	1.290	176.560	-1.500	1.700																			1580026631.0	8.85	16.39
26/01/2020 08:17:12	26012020	260120	081712	176.620	12.621458	-57.245002	176.560	-0.330	0.180	1.140	176.620	-1.200	1.600																			1580026632.0	8.70	16.11
26/01/2020 08:17:13	26012020	260120	081713	176.580	12.621418	-57.245002	176.510	-0.350	0.160	1.010	176.580	-1.200	1.400																			1580026633.0	8.87	16.43
26/01/2020 08:17:14	26012020	260120	081714	176.490	12.621375	-57.245000	176.400	-0.120	-0.010	0.920	176.490	-1.400	1.300																			1580026634.0	9.20	17.04
26/01/2020 08:17:15	26012020	260120	081715	176.400	12.621332	-57.245000	176.320	0.120	-0.000	0.870	176.400	-1.400	1.300																			1580026635.0	9.18	17.00
26/01/2020 08:17:16	26012020	260120	081716	176.360	12.621292	-57.244998	176.290	0.170	0.100	0.850	176.360	-1.300	1.300																			1580026636.0	8.86	16.41
26/01/2020 08:17:17	26012020	260120	081717	176.360	12.621250	-57.244998	176.290	0.100	0.060	0.900	176.360	-1.300	1.300																			1580026637.0	8.70	16.11
26/01/2020 08:17:18	26012020	260120	081718	176.360	12.621210	-57.245000	176.300	0.090	-0.210	1.030	176.360	-1.600	1.400																			1580026638.0	8.87	16.43
26/01/2020 08:17:19	26012020	260120	081719	176.360	12.621167	-57.245002	176.290	0.200	-0.510	1.170	176.360	-1.900	1.600																			1580026639.0	9.05	16.76
26/01/2020 08:17:20	26012020	260120	081720	176.360	12.621125	-57.245003	176.280	0.290	-0.620	1.180	176.360	-2.000	1.600																			1580026640.0	9.01	16.69
26/01/2020 08:17:21	26012020	260120	081721	176.400	12.621085	-57.245003	176.340	0.250	-0.540	1.040	176.400	-1.900	1.500																			1580026641.0	8.81	16.32
26/01/2020 08:17:22	26012020	260120	081722	176.500	12.621043	-57.245002	176.450	0.140	-0.440	0.800	176.500	-1.800	1.200																			1580026642.0	8.69	16.09
26/01/2020 08:17:23	26012020	260120	081723	176.590	12.621002	-57.245000	176.520	0.040	-0.560	0.640	176.590	-1.900	1.100																			1580026643.0	8.91	16.50
26/01/2020 08:17:24	26012020	260120	081724	176.690	12.620958	-57.244997	176.640	-0.100	-0.690	0.690	176.690	-2.100	1.100																			1580026644.0	9.32	17.26
26/01/2020 08:17:25	26012020	260120	081725	176.760	12.620917	-57.244997	176.700	-0.320	-0.460	1.050	176.760	-1.900	1.400																			1580026645.0	9.31	17.24
26/01/2020 08:17:26	26012020	260120	081726	176.700	12.620875	-57.245000	176.610	-0.490	0.050	1.420	176.700	-1.400	1.800																			1580026646.0	8.95	16.58
26/01/2020 08:17:27	26012020	260120	081727	176.510	12.620833	-57.245002	176.410	-0.500	0.370	1.650	176.510	-1.000	2.000																			1580026647.0	8.85	16.39
26/01/2020 08:17:28	26012020	260120	081728	176.320	12.620790	-57.245002	176.230	-0.350	0.370	1.690	176.320	-1.000	2.100																			1580026648.0	9.14	16.93
26/01/2020 08:17:29	26012020	260120	081729	176.190	12.620748	-57.245003	176.090	-0.150	0.300	1.550	176.190	-1.100	2.000																			1580026649.0	9.27	17.17
26/01/2020 08:17:30	26012020	260120	081730	176.070	12.620705	-57.245002	175.960	0.080	0.230	1.230	176.070	-1.200	1.700																			1580026650.0	9.09	16.83
26/01/2020 08:17:31	26012020	260120	081731	175.960	12.620663	-57.245000	175.860	0.280	0.110	0.890	175.960	-1.300	1.300																			1580026651.0	8.91	16.50
26/01/2020 08:17:32	26012020	260120	081732	175.910	12.620623	-57.245000	175.820	0.390	-0.090	0.790	175.910	-1.500	1.200																			1580026652.0	8.84	16.37
26/01/2020 08:17:33	26012020	260120	081733	175.930	12.620582	-57.245000	175.850	0.360	-0.310	0.830	175.930	-1.700	1.300																			1580026653.0	8.83	16.35
26/01/2020 08:17:34	26012020	260120	081734	176.000	12.620540	-57.245002	175.930	0.270	-0.500	0.860	176.000	-1.900	1.300																			1580026654.0	8.83	16.35
26/01/2020 08:17:35	26012020	260120	081735	176.110	12.620500	-57.245002	176.050	0.210	-0.600	0.800	176.110	-2.000	1.200																			1580026655.0	8.81	16.32
26/01/2020 08:17:36	26012020	260120	081736	176.330	12.620458	-57.245002	176.280	0.230	-0.610	0.570	176.330	-2.000	1.000																			1580026656.0	8.77	16.24
26/01/2020 08:17:37	26012020	260120	081737	176.510	12.620418	-57.245000	176.490	0.240	-0.660	0.470	176.550	-2.000	0.900																			1580026657.0	8.82	16.33
26/01/2020 08:17:38	26012020	260120	081738	176.670	12.620377	-57.244997	176.590	0.110	-0.700	0.660	176.670	-2.100	1.100																			1580026658.0	9.02	16.71
26/01/2020 08:17:39	26012020	260120	081739	176.590	12.620333	-57.244997	176.500	-0.130	-0.590	1.100	176.590	-2.000	1.500																			1580026659.0	9.11	16.87
26/01/2020 08:17:40	26012020	260120	081740	176.450	12.620292	-57.244998	176.380	-0.370	-0.270	1.470	176.450	-1.700	1.900																			1580026660.0	9.09	16.83
26/01/2020 08:17:41	26012020	260120	081741	176.340	12.620250	-57.245000	176.250	-0.450	0.100	1.590	176.340	-1.300	2.000																			1580026661.0	8.97	16.61
26/01/2020 08:17:42	26012020	260120	081742	176.140	12.620208	-57.245000	176.030	-0.320	0.250	1.530	176.140	-1.100	2.000																			1580026662.0	9.00	16.67
26/01/2020 08:17:43	26012020	260120	081743	175.890	12.620165	-57.244998	175.790	-0.100	0.190	1.380	175.890	-1.200	1.800																			1580026663.0	9.24	17.11
26/01/2020 08:17:44	26012020	260120	081744	175.770	12.620122	-57.244997	175.690	-0.020	0.210	1.230	175.770	-1.200	1.700																			1580026664.0	9.28	17.19
26/01/2020 08:17:45	26012020	260120	081745	175.760	12.620080	-57.244997	175.690	-0.110	0.310	1.110	175.760	-1.100	1.500																			1580026665.0	8.94	16.56
26/01/2020 08:17:46	26012020	260120	081746	175.750	12.620040	-57.244997	175.680	-0.170	0.210	1.030	175.750	-1.200	1.500																			1580026666.0	8.76	16.22
26/01/2020 08:17:47	26012020	260120	081747	175.780	12.619998	-57.244997	175.710	-0.020	-0.170	0.910	175.780	-1.500	1.300																			1580026667.0	8.98	16.63
26/01/2020 08:17:48	26012020	260120	081748	175.900	12.619955	-57.244998	175.860	0.210	-0.510	0.730	175.900	-1.900	1.200																			1580026668.0	9.15	16.95
26/01/2020 08:17:49	26012020	260120	081749	176.170	12.619913	-57.244997	176.150	0.340	-0.560	0.500	176.170	-1.900	0.900																			1580026669.0	8.96	16.59
26/01/2020 08:17:50	26012020	260120	081750	176.520	12.619873	-57.244997	176.480	0.280	-0.440	0.240	176.520	-1.800	0.700																			1580026670.0	8.63	15.98
26/01/2020 08:17:51	26012020	260120	081751	176.740	12.619833	-57.244993	176.670	0.170	-0.460	0.160	176.740	-1.800	0.600																			1580026671.0	8.61	15.95
26/01/2020 08:17:52	26012020	260120	081752	176.850	12.619792	-57.244993	176.780	0.110	-0.580	0.390	176.850	-2.000	0.800																			1580026672.0	8.93	16.54
26/01/2020 08:17:53	26012020	260120	081753	176.880	12.619750	-57.244993	176.810	0.070	-0.520	0.730	176.880	-1.900	1.100																			1580026673.0	9.09	16.83
26/01/2020 08:17:54	26012020	260120	081754	176.770	12.619708	-57.244995	176.660	0.040	-0.300	0.990	176.770	-1.700	1.400																			1580026674.0	8.95	16.58
26/01/2020 08:17:55	26012020	260120	081755	176.470	12.619667	-57.244995	176.350	0.020	-0.130	1.270	176.470	-1.500	1.700																			1580026675.0	8.95	16.58
26/01/2020 08:17:56	26012020	260120	081756	176.210	12.619625	-57.244995	176.130	-0.020	0.030	1.430	176.210	-1.400	1.800																			1580026676.0	9.12	16.89
26/01/2020 08:17:57	26012020	260120	081757	176.170	12.619582	-57.244993	176.120	-0.130	0.270	1.370	176.170	-1.100	1.800																			1580026677.0	9.03	16.72
26/01/2020 08:17:58	26012020	260120	081758	176.270	12.619542	-57.244993	176.200	-0.220	0.400	1.200	176.270	-1.000	1.600																			1580026678.0	8.81	16.32
26/01/2020 08:17:59	26012020	260120	081759	176.320	12.619500	-57.244993	176.240	-0.190	0.170	1.060	176.330	-1.200	1.500																			1580026679.0	8.90	16.48
26/01/2020 08:18:00	26012020	260120	081800	176.330	12.619457	-57.244993	176.240	-0.060	-0.290	0.990	176.330	-1.600	1.400	1013.60	25.60	25.70	20.10	20.10	-1.00	71.00	71.00	421.00	25.30	310.00	9.80	99.00	7.70	14	3247.00	27.40	27.40	1580026680.0	9.23	17.09
26/01/2020 08:18:01	26012020	260120	081801	176.350	12.619413	-57.244995	176.280	0.050	-0.590	0.950	176.350	-2.000	1.400																			1580026681.0	9.30	17.22
26/01/2020 08:18:02	26012020	260120	081802	176.400	12.619372	-57.244995	176.340	0.060	-0.620	0.840	176.400	-2.000	1.300																			1580026682.0	9.05	16.76
26/01/2020 08:18:03	26012020	260120	081803	176.550	12.619332	-57.244995	176.500	-0.050	-0.390	0.670	176.550	-1.800	1.100																			1580026683.0	8.78	16.26
26/01/2020 08:18:04	26012020	260120	081804	176.770	12.619292	-57.244995	176.700	-0.180	-0.170	0.470	176.770	-1.600	0.900																			1580026684.0	8.60	15.93
26/01/2020 08:18:05	26012020	260120	081805	176.840	12.619250	-57.244993	176.720	-0.170	-0.230	0.500	176.840	-1.600	0.900																			1580026685.0	8.76	16.22
26/01/2020 08:18:06	26012020	260120	081806	176.740	12.619207	-57.244993	176.630	-0.010	-0.420	0.700	176.740	-1.800	1.100																			1580026686.0	9.19	17.02
26/01/2020 08:18:07	26012020	260120	081807	176.640	12.619165	-57.244993	176.540	0.170	-0.390	0.910	176.640	-1.800	1.300																			1580026687.0	9.28	17.19
26/01/2020 08:18:08	26012020	260120	081808	176.510	12.619122	-57.244993	176.410	0.210	-0.140	1.150	176.510	-1.500	1.500																			1580026688.0	9.01	16.69
26/01/2020 08:18:09	26012020	260120	081809	176.400	12.619082	-57.244993	176.310	0.100	0.130	1.300	176.400	-1.300	1.700																			1580026689.0	8.87	16.43
26/01/2020 08:18:10	26012020	260120	081810	176.400	12.619040	-57.244995	176.320	-0.060	0.310	1.340	176.400	-1.100	1.800																			1580026690.0	8.85	16.39
26/01/2020 08:18:11	26012020	260120	081811	176.490	12.618998	-57.244995	176.420	-0.120	0.310	1.210	176.490	-1.100	1.600																			1580026691.0	8.87	16.43
26/01/2020 08:18:12	26012020	260120	081812	176.670	12.618957	-57.244995	176.600	0.000	0.150	0.960	176.670	-1.200	1.400																			1580026692.0	8.94	16.56
26/01/2020 08:18:13	26012020	260120	081813	176.820	12.618915	-57.244995	176.770	0.230	-0.120	0.720	176.850	-1.500	1.100																			1580026693.0	8.95	16.58
26/01/2020 08:18:14	26012020	260120	081814	176.980	12.618873	-57.244993	176.890	0.430	-0.430	0.580	176.980	-1.800	1.000																			1580026694.0	8.98	16.63
26/01/2020 08:18:15	26012020	260120	081815	176.970	12.618832	-57.244992	176.860	0.510	-0.660	0.550	176.970	-2.000	1.000																			1580026695.0	8.98	16.63
26/01/2020 08:18:16	26012020	260120	081816	176.900	12.618790	-57.244990	176.800	0.360	-0.730	0.650	176.900	-2.100	1.000																			1580026696.0	8.93	16.54
26/01/2020 08:18:17	26012020	260120	081817	176.850	12.618750	-57.244990	176.760	-0.040	-0.710	0.960	176.850	-2.100	1.300																			1580026697.0	8.88	16.45
26/01/2020 08:18:18	26012020	260120	081818	176.770	12.618708	-57.244992	176.690	-0.480	-0.680	1.380	176.770	-2.100	1.800																			1580026698.0	9.03	16.72
26/01/2020 08:18:19	26012020	260120	081819	176.660	12.618665	-57.244997	176.590	-0.680	-0.520	1.620	176.660	-1.900	2.000																			1580026699.0	9.21	17.06
26/01/2020 08:18:20	26012020	260120	081820	176.610	12.618623	-57.245000	176.550	-0.560	-0.180	1.490	176.610	-1.600	1.900																			1580026700.0	9.13	16.91
26/01/2020 08:18:21	26012020	260120	081821	176.600	12.618580	-57.245000	176.530	-0.280	0.130	1.080	176.600	-1.300	1.500																			1580026701.0	9.00	16.67
26/01/2020 08:18:22	26012020	260120	081822	176.660	12.618538	-57.244998	176.590	-0.080	0.290	0.640	176.660	-1.100	1.100																			1580026702.0	9.09	16.83
26/01/2020 08:18:23	26012020	260120	081823	176.840	12.618497	-57.244997	176.780	-0.000	0.380	0.300	176.840	-1.000	0.700																			1580026703.0	9.11	16.87
26/01/2020 08:18:24	26012020	260120	081824	177.050	12.618455	-57.244993	176.960	0.040	0.370	0.150	177.050	-1.000	0.600																			1580026704.0	9.00	16.67
26/01/2020 08:18:25	26012020	260120	081825	177.110	12.618413	-57.244993	177.020	0.130	0.210	0.370	177.110	-1.200	0.800																			1580026705.0	8.98	16.63
26/01/2020 08:18:26	26012020	260120	081826	177.160	12.618372	-57.244993	177.100	0.230	0.040	0.720	177.160	-1.300	1.100																			1580026706.0	8.99	16.65
26/01/2020 08:18:27	26012020	260120	081827	177.300	12.618330	-57.244995	177.230	0.300	-0.090	0.940	177.300	-1.500	1.400																			1580026707.0	8.82	16.33
26/01/2020 08:18:28	26012020	260120	081828	177.300	12.618290	-57.244997	177.180	0.410	-0.360	1.110	177.300	-1.700	1.500																			1580026708.0	8.71	16.13
26/01/2020 08:18:29	26012020	260120	081829	177.010	12.618248	-57.244997	176.860	0.530	-0.770	1.310	177.010	-2.100	1.700																			1580026709.0	8.94	16.56
26/01/2020 08:18:30	26012020	260120	081830	176.700	12.618205	-57.244997	176.590	0.480	-0.940	1.450	176.700	-2.300	1.900																			1580026710.0	9.12	16.89
26/01/2020 08:18:31	26012020	260120	081831	176.600	12.618163	-57.244997	176.520	0.210	-0.700	1.350	176.600	-2.100	1.800																			1580026711.0	8.92	16.52
26/01/2020 08:18:32	26012020	260120	081832	176.640	12.618123	-57.244998	176.580	-0.140	-0.290	1.040	176.640	-1.700	1.500																			1580026712.0	8.61	15.95
26/01/2020 08:18:33	26012020	260120	081833	176.770	12.618083	-57.244998	176.710	-0.370	-0.100	0.700	176.770	-1.500	1.200																			1580026713.0	8.65	16.02
26/01/2020 08:18:34	26012020	260120	081834	176.930	12.618042	-57.244998	176.870	-0.370	-0.230	0.470	176.930	-1.600	0.900																			1580026714.0	9.05	16.76
26/01/2020 08:18:35	26012020	260120	081835	177.100	12.617998	-57.244998	177.040	-0.290	-0.410	0.370	177.100	-1.800	0.800																			1580026715.0	9.39	17.39
26/01/2020 08:18:36	26012020	260120	081836	177.220	12.617955	-57.244998	177.140	-0.300	-0.390	0.500	177.220	-1.800	0.900																			1580026716.0	9.38	17.37
26/01/2020 08:18:37	26012020	260120	081837	177.190	12.617912	-57.245000	177.120	-0.370	-0.180	0.820	177.190	-1.600	1.200																			1580026717.0	9.17	16.98
26/01/2020 08:18:38	26012020	260120	081838	177.100	12.617870	-57.245002	177.010	-0.370	0.120	1.100	177.100	-1.300	1.500																			1580026718.0	9.02	16.71
26/01/2020 08:18:39	26012020	260120	081839	176.980	12.617828	-57.245005	176.910	-0.230	0.450	1.300	176.980	-1.000	1.700																			1580026719.0	8.89	16.46
26/01/2020 08:18:40	26012020	260120	081840	176.920	12.617788	-57.245005	176.850	0.010	0.590	1.220	176.920	-0.800	1.700																			1580026720.0	8.78	16.26
26/01/2020 08:18:41	26012020	260120	081841	176.840	12.617747	-57.245005	176.740	0.270	0.290	0.980	176.840	-1.100	1.400																			1580026721.0	8.91	16.50
26/01/2020 08:18:42	26012020	260120	081842	176.660	12.617703	-57.245003	176.550	0.470	-0.230	0.870	176.660	-1.600	1.300																			1580026722.0	9.23	17.09
26/01/2020 08:18:43	26012020	260120	081843	176.510	12.617660	-57.245002	176.420	0.460	-0.550	0.920	176.510	-1.900	1.300																			1580026723.0	9.26	17.15
26/01/2020 08:18:44	26012020	260120	081844	176.510	12.617618	-57.245002	176.470	0.290	-0.480	0.960	176.510	-1.900	1.400																			1580026724.0	8.89	16.46
26/01/2020 08:18:45	26012020	260120	081845	176.660	12.617580	-57.245003	176.620	0.080	-0.280	0.920	176.660	-1.700	1.300																			1580026725.0	8.52	15.78
26/01/2020 08:18:46	26012020	260120	081846	176.760	12.617540	-57.245003	176.690	0.010	-0.290	0.980	176.760	-1.700	1.400																			1580026726.0	8.54	15.82
26/01/2020 08:18:47	26012020	260120	081847	176.730	12.617498	-57.245005	176.650	0.120	-0.530	1.150	176.730	-1.900	1.600																			1580026727.0	8.91	16.50
26/01/2020 08:18:48	26012020	260120	081848	176.630	12.617455	-57.245007	176.550	0.260	-0.660	1.280	176.630	-2.000	1.700																			1580026728.0	9.17	16.98
26/01/2020 08:18:49	26012020	260120	081849	176.570	12.617413	-57.245007	176.490	0.230	-0.530	1.220	176.560	-1.900	1.700																			1580026729.0	9.06	16.78
26/01/2020 08:18:50	26012020	260120	081850	176.500	12.617372	-57.245005	176.420	-0.010	-0.320	1.100	176.500	-1.700	1.500																			1580026730.0	8.91	16.50
26/01/2020 08:18:51	26012020	260120	081851	176.500	12.617330	-57.245005	176.440	-0.360	-0.090	0.970	176.500	-1.500	1.400																			1580026731.0	8.95	16.58
26/01/2020 08:18:52	26012020	260120	081852	176.560	12.617288	-57.245005	176.500	-0.600	0.090	0.920	176.560	-1.300	1.400																			1580026732.0	8.96	16.59
26/01/2020 08:18:53	26012020	260120	081853	176.560	12.617247	-57.245007	176.480	-0.520	0.050	0.920	176.560	-1.300	1.300																			1580026733.0	9.06	16.78
26/01/2020 08:18:54	26012020	260120	081854	176.490	12.617203	-57.245008	176.410	-0.210	-0.110	0.860	176.490	-1.500	1.300																			1580026734.0	9.30	17.22
26/01/2020 08:18:55	26012020	260120	081855	176.400	12.617160	-57.245008	176.300	0.030	-0.150	0.860	176.400	-1.500	1.300																			1580026735.0	9.26	17.15
26/01/2020 08:18:56	26012020	260120	081856	176.270	12.617118	-57.245008	176.160	0.080	-0.100	0.910	176.270	-1.500	1.300																			1580026736.0	9.03	16.72
26/01/2020 08:18:57	26012020	260120	081857	176.150	12.617077	-57.245008	176.050	0.060	-0.060	0.950	176.150	-1.400	1.400																			1580026737.0	8.95	16.58
26/01/2020 08:18:58	26012020	260120	081858	176.230	12.617035	-57.245008	176.170	0.040	0.040	0.880	176.230	-1.300	1.300																			1580026738.0	8.91	16.50
26/01/2020 08:18:59	26012020	260120	081859	176.530	12.616995	-57.245008	176.490	0.070	0.130	0.660	176.530	-1.300	1.100																			1580026739.0	8.74	16.19
26/01/2020 08:19:00	26012020	260120	081900	176.830	12.616955	-57.245007	176.760	0.170	-0.010	0.450	176.830	-1.400	0.900	1013.60	25.60	25.70	19.90	20.00	-1.00	70.00	71.00	421.00	25.30	314.00	9.50	103.00	7.10	14	3265.00	27.40	27.40	1580026740.0	8.71	16.13
26/01/2020 08:19:01	26012020	260120	081901	176.920	12.616913	-57.245007	176.820	0.330	-0.410	0.410	176.920	-1.800	0.800																			1580026741.0	8.96	16.59
26/01/2020 08:19:02	26012020	260120	081902	176.840	12.616870	-57.245005	176.740	0.400	-0.750	0.630	176.840	-2.100	1.000																			1580026742.0	9.25	17.13
26/01/2020 08:19:03	26012020	260120	081903	176.740	12.616827	-57.245005	176.640	0.220	-0.660	1.050	176.740	-2.100	1.400																			1580026743.0	9.09	16.83
26/01/2020 08:19:04	26012020	260120	081904	176.610	12.616787	-57.245007	176.510	-0.120	-0.310	1.420	176.610	-1.700	1.800																			1580026744.0	8.70	16.11
26/01/2020 08:19:05	26012020	260120	081905	176.400	12.616747	-57.245008	176.290	-0.340	-0.120	1.630	176.400	-1.500	2.000																			1580026745.0	8.69	16.09
26/01/2020 08:19:06	26012020	260120	081906	176.160	12.616705	-57.245012	176.060	-0.300	-0.180	1.700	176.160	-1.500	2.100																			1580026746.0	9.04	16.74
26/01/2020 08:19:07	26012020	260120	081907	176.000	12.616662	-57.245013	175.920	-0.110	-0.220	1.490	176.000	-1.600	1.900																			1580026747.0	9.27	17.17
26/01/2020 08:19:08	26012020	260120	081908	175.990	12.616618	-57.245013	175.910	0.020	-0.100	1.070	175.990	-1.500	1.500																			1580026748.0	9.09	16.83
26/01/2020 08:19:09	26012020	260120	081909	176.010	12.616578	-57.245012	175.920	0.010	-0.020	0.680	176.010	-1.400	1.100																			1580026749.0	8.90	16.48
26/01/2020 08:19:10	26012020	260120	081910	176.070	12.616537	-57.245010	175.980	-0.070	-0.020	0.400	176.070	-1.400	0.800																			1580026750.0	8.93	16.54
26/01/2020 08:19:11	26012020	260120	081911	176.180	12.616495	-57.245008	176.110	-0.100	-0.080	0.320	176.180	-1.500	0.800																			1580026751.0	8.95	16.58
26/01/2020 08:19:12	26012020	260120	081912	176.290	12.616453	-57.245008	176.210	-0.020	-0.200	0.400	176.290	-1.600	0.800																			1580026752.0	8.99	16.65
26/01/2020 08:19:13	26012020	260120	081913	176.410	12.616410	-57.245008	176.330	0.080	-0.340	0.490	176.410	-1.700	0.900																			1580026753.0	9.05	16.76
26/01/2020 08:19:14	26012020	260120	081914	176.520	12.616368	-57.245008	176.440	0.100	-0.400	0.650	176.520	-1.800	1.100																			1580026754.0	9.05	16.76
26/01/2020 08:19:15	26012020	260120	081915	176.530	12.616327	-57.245008	176.430	0.030	-0.370	0.900	176.520	-1.800	1.300																			1580026755.0	8.97	16.61
26/01/2020 08:19:16	26012020	260120	081916	176.390	12.616285	-57.245008	176.270	-0.040	-0.300	1.270	176.390	-1.700	1.700																			1580026756.0	8.93	16.54
26/01/2020 08:19:17	26012020	260120	081917	176.190	12.616243	-57.245010	176.040	-0.080	-0.250	1.590	176.150	-1.600	2.000																			1580026757.0	9.02	16.71
26/01/2020 08:19:18	26012020	260120	081918	175.970	12.616202	-57.245012	175.880	-0.100	-0.120	1.650	175.970	-1.500	2.100																			1580026758.0	9.08	16.82
26/01/2020 08:19:19	26012020	260120	081919	175.880	12.616160	-57.245012	175.800	-0.090	0.120	1.500	175.880	-1.300	1.900																			1580026759.0	8.93	16.54
26/01/2020 08:19:20	26012020	260120	081920	175.930	12.616118	-57.245012	175.860	-0.030	0.330	1.100	175.930	-1.100	1.600																			1580026760.0	8.75	16.21
26/01/2020 08:19:21	26012020	260120	081921	176.080	12.616078	-57.245010	175.990	0.050	0.280	0.620	176.080	-1.100	1.100																			1580026761.0	8.71	16.13
26/01/2020 08:19:22	26012020	260120	081922	176.100	12.616037	-57.245007	175.980	0.130	-0.150	0.420	176.100	-1.500	0.900																			1580026762.0	8.95	16.58
26/01/2020 08:19:23	26012020	260120	081923	175.970	12.615993	-57.245007	175.840	0.230	-0.650	0.520	175.970	-2.000	0.900																			1580026763.0	9.25	17.13
26/01/2020 08:19:24	26012020	260120	081924	175.860	12.615952	-57.245007	175.770	0.250	-0.790	0.650	175.860	-2.200	1.100																			1580026764.0	9.23	17.09
26/01/2020 08:19:25	26012020	260120	081925	175.920	12.615910	-57.245007	175.850	0.080	-0.550	0.740	175.920	-2.000	1.200																			1580026765.0	8.82	16.33
26/01/2020 08:19:26	26012020	260120	081926	175.930	12.615870	-57.245007	175.820	-0.170	-0.330	0.980	175.930	-1.700	1.400																			1580026766.0	8.60	15.93
26/01/2020 08:19:27	26012020	260120	081927	175.760	12.615828	-57.245010	175.660	-0.260	-0.330	1.260	175.760	-1.700	1.700																			1580026767.0	8.90	16.48
26/01/2020 08:19:28	26012020	260120	081928	175.640	12.615787	-57.245010	175.560	-0.200	-0.280	1.290	175.640	-1.700	1.700																			1580026768.0	9.20	17.04
26/01/2020 08:19:29	26012020	260120	081929	175.670	12.615743	-57.245010	175.610	-0.110	-0.090	1.120	175.670	-1.500	1.600																			1580026769.0	9.07	16.80
26/01/2020 08:19:30	26012020	260120	081930	175.820	12.615702	-57.245010	175.770	-0.090	0.060	0.900	175.820	-1.300	1.300																			1580026770.0	8.95	16.58
26/01/2020 08:19:31	26012020	260120	081931	175.960	12.615660	-57.245008	175.910	-0.100	0.080	0.780	175.960	-1.300	1.200																			1580026771.0	8.97	16.61
26/01/2020 08:19:32	26012020	260120	081932	176.030	12.615618	-57.245008	175.950	-0.070	-0.040	0.750	176.030	-1.400	1.200																			1580026772.0	9.06	16.78
26/01/2020 08:19:33	26012020	260120	081933	176.020	12.615577	-57.245007	175.950	0.010	-0.130	0.800	176.020	-1.500	1.200																			1580026773.0	9.12	16.89
26/01/2020 08:19:34	26012020	260120	081934	176.000	12.615535	-57.245005	175.910	0.050	-0.060	0.920	176.000	-1.500	1.300																			1580026774.0	8.98	16.63
26/01/2020 08:19:35	26012020	260120	081935	175.960	12.615493	-57.245005	175.880	0.040	0.020	1.070	175.960	-1.400	1.500																			1580026775.0	8.77	16.24
26/01/2020 08:19:36	26012020	260120	081936	175.890	12.615453	-57.245005	175.800	0.030	-0.110	1.290	175.890	-1.500	1.700																			1580026776.0	8.80	16.30
26/01/2020 08:19:37	26012020	260120	081937	175.740	12.615410	-57.245007	175.650	0.060	-0.360	1.580	175.740	-1.700	2.000																			1580026777.0	9.04	16.74
26/01/2020 08:19:38	26012020	260120	081938	175.560	12.615368	-57.245008	175.460	0.130	-0.450	1.750	175.560	-1.800	2.200																			1580026778.0	9.11	16.87
26/01/2020 08:19:39	26012020	260120	081939	175.410	12.615327	-57.245010	175.330	0.180	-0.280	1.580	175.410	-1.700	2.000																			1580026779.0	8.86	16.41
26/01/2020 08:19:40	26012020	260120	081940	175.380	12.615287	-57.245008	175.300	0.180	-0.160	1.190	175.380	-1.500	1.600																			1580026780.0	8.64	16.00
26/01/2020 08:19:41	26012020	260120	081941	175.410	12.615247	-57.245007	175.330	0.170	-0.300	0.840	175.410	-1.700	1.300																			1580026781.0	8.82	16.33
26/01/2020 08:19:42	26012020	260120	081942	175.520	12.615203	-57.245003	175.460	0.130	-0.460	0.510	175.520	-1.800	1.000																			1580026782.0	9.11	16.87
26/01/2020 08:19:43	26012020	260120	081943	175.760	12.615162	-57.245002	175.700	-0.040	-0.410	0.290	175.760	-1.800	0.700																			1580026783.0	9.06	16.78
26/01/2020 08:19:44	26012020	260120	081944	175.980	12.615120	-57.245000	175.930	-0.240	-0.290	0.320	175.980	-1.700	0.700																			1580026784.0	8.88	16.45
26/01/2020 08:19:45	26012020	260120	081945	176.130	12.615078	-57.245000	176.040	-0.330	-0.250	0.570	176.130	-1.600	1.000																			1580026785.0	8.94	16.56
26/01/2020 08:19:46	26012020	260120	081946	176.110	12.615037	-57.245002	176.020	-0.250	-0.290	0.930	176.110	-1.700	1.300																			1580026786.0	9.12	16.89
26/01/2020 08:19:47	26012020	260120	081947	175.990	12.614993	-57.245002	175.890	-0.090	-0.290	1.200	175.990	-1.700	1.600																			1580026787.0	9.19	17.02
26/01/2020 08:19:48	26012020	260120	081948	175.780	12.614952	-57.245002	175.690	-0.020	-0.190	1.350	175.780	-1.600	1.800																			1580026788.0	9.16	16.96
26/01/2020 08:19:49	26012020	260120	081949	175.720	12.614908	-57.245000	175.660	-0.150	0.020	1.350	175.720	-1.400	1.800																			1580026789.0	9.06	16.78
26/01/2020 08:19:50	26012020	260120	081950	175.820	12.614868	-57.245000	175.770	-0.350	0.230	1.290	175.820	-1.200	1.700																			1580026790.0	8.87	16.43
26/01/2020 08:19:51	26012020	260120	081951	175.870	12.614827	-57.245000	175.810	-0.320	0.230	1.200	175.870	-1.200	1.600																			1580026791.0	8.88	16.45
26/01/2020 08:19:52	26012020	260120	081952	175.940	12.614785	-57.245002	175.890	-0.040	0.210	0.990	175.940	-1.200	1.400																			1580026792.0	8.99	16.65
26/01/2020 08:19:53	26012020	260120	081953	176.000	12.614743	-57.245000	175.940	0.320	0.190	0.710	176.000	-1.200	1.200																			1580026793.0	8.81	16.32
26/01/2020 08:19:54	26012020	260120	081954	176.040	12.614703	-57.244998	175.960	0.570	-0.030	0.380	176.040	-1.400	0.800																			1580026794.0	8.75	16.21
26/01/2020 08:19:55	26012020	260120	081955	176.090	12.614662	-57.244995	176.020	0.630	-0.400	0.140	176.090	-1.800	0.600																			1580026795.0	8.91	16.50
26/01/2020 08:19:56	26012020	260120	081956	176.190	12.614620	-57.244993	176.130	0.470	-0.700	0.240	176.190	-2.100	0.700																			1580026796.0	9.00	16.67
26/01/2020 08:19:57	26012020	260120	081957	176.280	12.614578	-57.244993	176.230	0.170	-0.830	0.600	176.280	-2.200	1.000																			1580026797.0	8.94	16.56
26/01/2020 08:19:58	26012020	260120	081958	176.260	12.614537	-57.244995	176.200	-0.120	-0.790	1.050	176.260	-2.200	1.400																			1580026798.0	8.89	16.46
26/01/2020 08:19:59	26012020	260120	081959	176.130	12.614495	-57.244998	176.070	-0.250	-0.700	1.410	176.130	-2.100	1.800																			1580026799.0	8.97	16.61
26/01/2020 08:20:00	26012020	260120	082000	176.040	12.614453	-57.245000	175.990	-0.240	-0.500	1.460	176.040	-1.900	1.900	1013.60	25.60	25.60	19.70	19.80	-1.00	69.00	70.00	419.00	25.30	317.00	9.30	105.00	6.70	15	3220.00	27.40	27.40	1580026800.0	9.10	16.85
26/01/2020 08:20:01	26012020	260120	082001	176.060	12.614412	-57.245000	176.030	-0.230	-0.150	1.200	176.060	-1.600	1.700																			1580026801.0	9.03	16.72
26/01/2020 08:20:02	26012020	260120	082002	176.180	12.614370	-57.244998	176.150	-0.270	0.180	0.820	176.180	-1.200	1.300																			1580026802.0	8.90	16.48
26/01/2020 08:20:03	26012020	260120	082003	176.280	12.614328	-57.244995	176.240	-0.340	0.250	0.550	176.280	-1.100	1.000																			1580026803.0	8.98	16.63
26/01/2020 08:20:04	26012020	260120	082004	176.340	12.614285	-57.244992	176.280	-0.340	0.080	0.530	176.340	-1.300	1.000																			1580026804.0	9.24	17.11
26/01/2020 08:20:05	26012020	260120	082005	176.340	12.614242	-57.244992	176.270	-0.250	-0.060	0.760	176.330	-1.400	1.200																			1580026805.0	9.37	17.35
26/01/2020 08:20:06	26012020	260120	082006	176.280	12.614198	-57.244993	176.220	-0.100	-0.010	1.060	176.280	-1.400	1.500																			1580026806.0	9.21	17.06
26/01/2020 08:20:07	26012020	260120	082007	176.270	12.614157	-57.244995	176.220	0.040	0.170	1.160	176.270	-1.200	1.600																			1580026807.0	8.95	16.58
26/01/2020 08:20:08	26012020	260120	082008	176.320	12.614117	-57.244997	176.290	0.160	0.340	1.030	176.320	-1.100	1.500																			1580026808.0	8.69	16.09
26/01/2020 08:20:09	26012020	260120	082009	176.410	12.614077	-57.244995	176.370	0.290	0.260	0.720	176.410	-1.100	1.200																			1580026809.0	8.61	15.95
26/01/2020 08:20:10	26012020	260120	082010	176.490	12.614037	-57.244993	176.430	0.450	-0.150	0.380	176.490	-1.500	0.800																			1580026810.0	8.78	16.26
26/01/2020 08:20:11	26012020	260120	082011	176.490	12.613993	-57.244990	176.400	0.540	-0.740	0.280	176.490	-2.100	0.700																			1580026811.0	9.09	16.83
26/01/2020 08:20:12	26012020	260120	082012	176.460	12.613952	-57.244988	176.390	0.430	-1.090	0.410	176.460	-2.500	0.800																			1580026812.0	9.19	17.02
26/01/2020 08:20:13	26012020	260120	082013	176.450	12.613910	-57.244990	176.380	0.130	-1.060	0.640	176.450	-2.500	1.000																			1580026813.0	8.99	16.65
26/01/2020 08:20:14	26012020	260120	082014	176.470	12.613868	-57.244992	176.410	-0.150	-0.750	0.830	176.470	-2.200	1.200																			1580026814.0	8.81	16.32
26/01/2020 08:20:15	26012020	260120	082015	176.520	12.613828	-57.244993	176.480	-0.260	-0.390	0.900	176.520	-1.800	1.300																			1580026815.0	8.81	16.32
26/01/2020 08:20:16	26012020	260120	082016	176.620	12.613787	-57.244993	176.580	-0.240	-0.110	0.850	176.620	-1.500	1.300																			1580026816.0	8.99	16.65
26/01/2020 08:20:17	26012020	260120	082017	176.770	12.613743	-57.244992	176.730	-0.230	0.110	0.710	176.770	-1.300	1.100																			1580026817.0	9.17	16.98
26/01/2020 08:20:18	26012020	260120	082018	176.940	12.613700	-57.244992	176.890	-0.290	0.350	0.550	176.940	-1.100	1.000																			1580026818.0	9.15	16.95
26/01/2020 08:20:19	26012020	260120	082019	177.070	12.613658	-57.244990	177.010	-0.320	0.510	0.490	177.070	-0.900	0.900																			1580026819.0	9.01	16.69
26/01/2020 08:20:20	26012020	260120	082020	177.120	12.613617	-57.244990	177.040	-0.240	0.420	0.560	177.120	-0.900	1.000																			1580026820.0	8.97	16.61
26/01/2020 08:20:21	26012020	260120	082021	176.930	12.613575	-57.244990	176.810	-0.020	0.020	0.860	176.930	-1.300	1.300																			1580026821.0	9.12	16.89
26/01/2020 08:20:22	26012020	260120	082022	176.570	12.613532	-57.244993	176.460	0.260	-0.390	1.160	176.570	-1.800	1.600																			1580026822.0	9.36	17.33
26/01/2020 08:20:23	26012020	260120	082023	176.250	12.613488	-57.244993	176.170	0.430	-0.470	1.200	176.250	-1.900	1.600																			1580026823.0	9.20	17.04
26/01/2020 08:20:24	26012020	260120	082024	176.150	12.613448	-57.244993	176.110	0.360	-0.220	1.000	176.150	-1.600	1.400																			1580026824.0	8.71	16.13
26/01/2020 08:20:25	26012020	260120	082025	176.250	12.613408	-57.244992	176.220	0.130	-0.100	0.770	176.250	-1.500	1.200																			1580026825.0	8.42	15.59
26/01/2020 08:20:26	26012020	260120	082026	176.400	12.613368	-57.244992	176.380	-0.020	-0.350	0.560	176.400	-1.700	1.000																			1580026826.0	8.71	16.13
26/01/2020 08:20:27	26012020	260120	082027	176.550	12.613325	-57.244992	176.520	-0.020	-0.720	0.530	176.550	-2.100	1.000																			1580026827.0	9.15	16.95
26/01/2020 08:20:28	26012020	260120	082028	176.640	12.613283	-57.244993	176.590	0.030	-0.880	0.660	176.640	-2.300	1.100																			1580026828.0	9.28	17.19
26/01/2020 08:20:29	26012020	260120	082029	176.670	12.613240	-57.244993	176.650	0.040	-0.730	0.820	176.690	-2.100	1.200																			1580026829.0	9.17	16.98
26/01/2020 08:20:30	26012020	260120	082030	176.900	12.613198	-57.244993	176.910	-0.050	-0.280	0.810	176.900	-1.700	1.200																			1580026830.0	8.96	16.59
26/01/2020 08:20:31	26012020	260120	082031	177.250	12.613158	-57.244993	177.250	-0.240	0.180	0.750	177.250	-1.200	1.200																			1580026831.0	8.75	16.21
26/01/2020 08:20:32	26012020	260120	082032	177.450	12.613117	-57.244992	177.380	-0.350	0.290	0.820	177.450	-1.100	1.200																			1580026832.0	8.84	16.37
26/01/2020 08:20:33	26012020	260120	082033	177.410	12.613073	-57.244993	177.340	-0.270	0.140	1.010	177.410	-1.200	1.400																			1580026833.0	9.25	17.13
26/01/2020 08:20:34	26012020	260120	082034	177.250	12.613030	-57.244993	177.170	-0.060	0.130	1.210	177.250	-1.300	1.600																			1580026834.0	9.33	17.28
26/01/2020 08:20:35	26012020	260120	082035	177.070	12.612988	-57.244995	177.000	0.160	0.270	1.200	177.070	-1.100	1.600																			1580026835.0	9.01	16.69
26/01/2020 08:20:36	26012020	260120	082036	176.940	12.612947	-57.244993	176.870	0.300	0.230	0.990	176.940	-1.100	1.400																			1580026836.0	8.80	16.30
26/01/2020 08:20:37	26012020	260120	082037	176.830	12.612907	-57.244993	176.780	0.340	-0.020	0.770	176.830	-1.400	1.200																			1580026837.0	8.90	16.48
26/01/2020 08:20:38	26012020	260120	082038	176.810	12.612865	-57.244992	176.780	0.290	-0.330	0.580	176.810	-1.700	1.000																			1580026838.0	8.99	16.65
26/01/2020 08:20:39	26012020	260120	082039	176.850	12.612823	-57.244992	176.830	0.190	-0.580	0.540	176.850	-1.900	1.000																			1580026839.0	8.94	16.56
26/01/2020 08:20:40	26012020	260120	082040	176.910	12.612782	-57.244993	176.880	0.080	-0.780	0.640	176.910	-2.100	1.100																			1580026840.0	8.92	16.52
26/01/2020 08:20:41	26012020	260120	082041	177.020	12.612740	-57.244997	177.010	-0.020	-0.890	0.800	177.020	-2.300	1.200																			1580026841.0	9.00	16.67
26/01/2020 08:20:42	26012020	260120	082042	177.210	12.612697	-57.244998	177.190	-0.080	-0.850	0.970	177.210	-2.200	1.400																			1580026842.0	9.05	16.76
26/01/2020 08:20:43	26012020	260120	082043	177.340	12.612655	-57.245000	177.310	-0.150	-0.650	1.090	177.340	-2.100	1.500																			1580026843.0	9.11	16.87
26/01/2020 08:20:44	26012020	260120	082044	177.440	12.612613	-57.245000	177.410	-0.290	-0.220	1.080	177.440	-1.600	1.500																			1580026844.0	9.09	16.83
26/01/2020 08:20:45	26012020	260120	082045	177.620	12.612572	-57.245000	177.600	-0.460	0.360	0.940	177.620	-1.100	1.400																			1580026845.0	8.87	16.43
26/01/2020 08:20:46	26012020	260120	082046	177.780	12.612530	-57.245000	177.720	-0.470	0.660	0.690	177.780	-0.700	1.100																			1580026846.0	8.74	16.19
26/01/2020 08:20:47	26012020	260120	082047	177.670	12.612488	-57.245000	177.550	-0.180	0.390	0.550	177.670	-1.000	1.000																			1580026847.0	9.10	16.85
26/01/2020 08:20:48	26012020	260120	082048	177.390	12.612443	-57.244998	177.290	0.250	-0.050	0.600	177.390	-1.400	1.000																			1580026848.0	9.58	17.74
26/01/2020 08:20:49	26012020	260120	082049	177.190	12.612400	-57.244998	177.110	0.470	-0.130	0.760	177.190	-1.500	1.200																			1580026849.0	9.42	17.45
26/01/2020 08:20:50	26012020	260120	082050	177.050	12.612358	-57.244998	176.950	0.380	0.020	0.990	177.050	-1.400	1.400																			1580026850.0	8.85	16.39
26/01/2020 08:20:51	26012020	260120	082051	176.860	12.612318	-57.245000	176.780	0.200	0.030	1.250	176.860	-1.400	1.600																			1580026851.0	8.63	15.98
26/01/2020 08:20:52	26012020	260120	082052	176.730	12.612278	-57.245003	176.680	0.100	-0.210	1.440	176.730	-1.600	1.900																			1580026852.0	8.81	16.32
26/01/2020 08:20:53	26012020	260120	082053	176.620	12.612237	-57.245005	176.560	0.120	-0.570	1.510	176.620	-1.900	1.900																			1580026853.0	9.05	16.76
26/01/2020 08:20:54	26012020	260120	082054	176.440	12.612193	-57.245007	176.370	0.190	-0.890	1.460	176.440	-2.300	1.900																			1580026854.0	9.19	17.02
26/01/2020 08:20:55	26012020	260120	082055	176.310	12.612150	-57.245008	176.270	0.150	-0.870	1.260	176.310	-2.300	1.700																			1580026855.0	9.18	17.00
26/01/2020 08:20:56	26012020	260120	082056	176.400	12.612110	-57.245008	176.400	-0.030	-0.440	0.890	176.400	-1.900	1.300																			1580026856.0	8.87	16.43
26/01/2020 08:20:57	26012020	260120	082057	176.610	12.612070	-57.245008	176.680	-0.230	0.060	0.490	176.670	-1.400	0.900																			1580026857.0	8.57	15.87
26/01/2020 08:20:58	26012020	260120	082058	176.960	12.612028	-57.245007	176.960	-0.300	0.220	0.170	176.960	-1.200	0.600																			1580026858.0	8.69	16.09
26/01/2020 08:20:59	26012020	260120	082059	177.160	12.611987	-57.245005	177.130	-0.180	0.000	0.130	177.160	-1.400	0.500																			1580026859.0	9.10	16.85
26/01/2020 08:21:00	26012020	260120	082100	177.150	12.611943	-57.245005	177.100	-0.030	-0.350	0.500	177.150	-1.700	0.900	1013.60	25.60	25.70	19.90	20.00	-1.00	70.00	70.00	417.00	25.30	311.00	9.20	99.00	7.10	15	3275.00	27.40	27.40	1580026860.0	9.44	17.48
26/01/2020 08:21:01	26012020	260120	082101	176.930	12.611898	-57.245005	176.860	0.020	-0.500	1.070	176.930	-1.900	1.400																			1580026861.0	9.47	17.54
26/01/2020 08:21:02	26012020	260120	082102	176.570	12.611857	-57.245007	176.500	-0.090	-0.280	1.620	176.570	-1.700	2.000																			1580026862.0	9.23	17.09
26/01/2020 08:21:03	26012020	260120	082103	176.260	12.611815	-57.245010	176.210	-0.260	0.120	1.970	176.260	-1.300	2.400																			1580026863.0	8.85	16.39
26/01/2020 08:21:04	26012020	260120	082104	176.050	12.611775	-57.245013	176.010	-0.280	0.320	2.000	176.050	-1.100	2.400																			1580026864.0	8.72	16.15
26/01/2020 08:21:05	26012020	260120	082105	175.940	12.611733	-57.245015	175.910	-0.050	0.140	1.680	175.940	-1.200	2.100																			1580026865.0	9.00	16.67
26/01/2020 08:21:06	26012020	260120	082106	176.010	12.611690	-57.245013	175.990	0.230	-0.180	1.190	176.010	-1.600	1.700																			1580026866.0	9.24	17.11
26/01/2020 08:21:07	26012020	260120	082107	176.230	12.611647	-57.245012	176.220	0.330	-0.410	0.750	176.230	-1.800	1.200																			1580026867.0	9.19	17.02
26/01/2020 08:21:08	26012020	260120	082108	176.410	12.611605	-57.245010	176.380	0.220	-0.430	0.490	176.410	-1.800	0.900																			1580026868.0	8.96	16.59
26/01/2020 08:21:09	26012020	260120	082109	176.500	12.611565	-57.245010	176.450	0.100	-0.340	0.460	176.500	-1.700	0.900																			1580026869.0	8.77	16.24
26/01/2020 08:21:10	26012020	260120	082110	176.520	12.611523	-57.245010	176.480	0.100	-0.260	0.590	176.520	-1.700	1.000																			1580026870.0	8.78	16.26
26/01/2020 08:21:11	26012020	260120	082111	176.540	12.611482	-57.245010	176.520	0.150	-0.210	0.770	176.540	-1.600	1.200																			1580026871.0	8.91	16.50
26/01/2020 08:21:12	26012020	260120	082112	176.660	12.611440	-57.245010	176.660	0.090	-0.120	0.930	176.660	-1.500	1.300																			1580026872.0	8.95	16.58
26/01/2020 08:21:13	26012020	260120	082113	176.800	12.611400	-57.245010	176.790	-0.100	-0.090	1.070	176.800	-1.500	1.500																			1580026873.0	8.89	16.46
26/01/2020 08:21:14	26012020	260120	082114	176.840	12.611358	-57.245012	176.800	-0.240	-0.180	1.150	176.840	-1.600	1.600																			1580026874.0	8.97	16.61
26/01/2020 08:21:15	26012020	260120	082115	176.710	12.611315	-57.245013	176.640	-0.210	-0.320	1.250	176.710	-1.700	1.700																			1580026875.0	9.09	16.83
26/01/2020 08:21:16	26012020	260120	082116	176.400	12.611273	-57.245015	176.300	-0.020	-0.430	1.320	176.400	-1.800	1.700																			1580026876.0	9.14	16.93
26/01/2020 08:21:17	26012020	260120	082117	176.090	12.611230	-57.245015	176.000	0.110	-0.440	1.230	176.090	-1.800	1.700																			1580026877.0	9.15	16.95
26/01/2020 08:21:18	26012020	260120	082118	175.860	12.611188	-57.245013	175.790	0.000	-0.320	1.100	175.860	-1.700	1.500																			1580026878.0	9.06	16.78
26/01/2020 08:21:19	26012020	260120	082119	175.750	12.611147	-57.245013	175.710	-0.240	-0.120	1.010	175.750	-1.500	1.400																			1580026879.0	8.95	16.58
26/01/2020 08:21:20	26012020	260120	082120	175.790	12.611105	-57.245015	175.770	-0.390	0.090	0.840	175.790	-1.300	1.300																			1580026880.0	8.91	16.50
26/01/2020 08:21:21	26012020	260120	082121	175.960	12.611063	-57.245015	175.950	-0.290	0.190	0.600	175.960	-1.200	1.000																			1580026881.0	8.85	16.39
26/01/2020 08:21:22	26012020	260120	082122	176.120	12.611022	-57.245015	176.100	0.010	-0.010	0.430	176.120	-1.400	0.900																			1580026882.0	8.95	16.58
26/01/2020 08:21:23	26012020	260120	082123	176.180	12.610980	-57.245015	176.160	0.300	-0.390	0.410	176.180	-1.800	0.800																			1580026883.0	9.27	17.17
26/01/2020 08:21:24	26012020	260120	082124	176.210	12.610935	-57.245013	176.200	0.320	-0.550	0.630	176.210	-1.900	1.000																			1580026884.0	9.37	17.35
26/01/2020 08:21:25	26012020	260120	082125	176.240	12.610893	-57.245013	176.230	0.070	-0.310	1.080	176.240	-1.700	1.500																			1580026885.0	9.02	16.71
26/01/2020 08:21:26	26012020	260120	082126	176.210	12.610853	-57.245017	176.170	-0.180	0.060	1.440	176.210	-1.400	1.800																			1580026886.0	8.67	16.06
26/01/2020 08:21:27	26012020	260120	082127	176.070	12.610813	-57.245018	176.030	-0.140	0.180	1.610	176.070	-1.200	2.000																			1580026887.0	8.66	16.04
26/01/2020 08:21:28	26012020	260120	082128	175.870	12.610772	-57.245018	175.820	0.100	-0.000	1.550	175.870	-1.400	2.000																			1580026888.0	8.99	16.65
26/01/2020 08:21:29	26012020	260120	082129	175.730	12.610728	-57.245017	175.690	0.250	-0.190	1.310	175.730	-1.600	1.800																			1580026889.0	9.18	17.00
26/01/2020 08:21:30	26012020	260120	082130	175.660	12.610687	-57.245015	175.610	0.190	-0.280	1.110	175.660	-1.700	1.500																			1580026890.0	9.01	16.69
26/01/2020 08:21:31	26012020	260120	082131	175.550	12.610645	-57.245015	175.490	0.060	-0.370	1.030	175.550	-1.800	1.500																			1580026891.0	8.88	16.45
26/01/2020 08:21:32	26012020	260120	082132	175.410	12.610603	-57.245013	175.350	-0.010	-0.470	1.090	175.410	-1.900	1.500																			1580026892.0	8.95	16.58
26/01/2020 08:21:33	26012020	260120	082133	175.300	12.610562	-57.245015	175.250	-0.040	-0.510	1.270	175.300	-1.900	1.700																			1580026893.0	9.04	16.74
26/01/2020 08:21:34	26012020	260120	082134	175.240	12.610520	-57.245017	175.220	-0.130	-0.380	1.430	175.240	-1.800	1.800																			1580026894.0	9.03	16.72
26/01/2020 08:21:35	26012020	260120	082135	175.350	12.610478	-57.245018	175.350	-0.230	-0.130	1.340	175.350	-1.500	1.800																			1580026895.0	8.89	16.46
26/01/2020 08:21:36	26012020	260120	082136	175.530	12.610438	-57.245018	175.510	-0.200	-0.020	0.990	175.530	-1.400	1.400																			1580026896.0	8.80	16.30
26/01/2020 08:21:37	26012020	260120	082137	175.730	12.610395	-57.245015	175.710	-0.030	-0.160	0.600	175.730	-1.500	1.100																			1580026897.0	9.04	16.74
26/01/2020 08:21:38	26012020	260120	082138	175.900	12.610353	-57.245013	175.870	0.130	-0.350	0.450	175.900	-1.700	0.900																			1580026898.0	9.25	17.13
26/01/2020 08:21:39	26012020	260120	082139	175.900	12.610310	-57.245010	175.850	0.150	-0.420	0.590	175.900	-1.800	1.000																			1580026899.0	9.24	17.11
26/01/2020 08:21:40	26012020	260120	082140	175.740	12.610267	-57.245010	175.670	0.010	-0.250	0.960	175.740	-1.700	1.400																			1580026900.0	9.12	16.89
26/01/2020 08:21:41	26012020	260120	082141	175.530	12.610227	-57.245012	175.480	-0.170	0.010	1.370	175.530	-1.400	1.800																			1580026901.0	8.95	16.58
26/01/2020 08:21:42	26012020	260120	082142	175.430	12.610185	-57.245013	175.390	-0.250	0.250	1.510	175.430	-1.200	1.900																			1580026902.0	8.89	16.46
26/01/2020 08:21:43	26012020	260120	082143	175.430	12.610143	-57.245013	175.390	-0.150	0.330	1.400	175.430	-1.100	1.800																			1580026903.0	8.86	16.41
26/01/2020 08:21:44	26012020	260120	082144	175.450	12.610102	-57.245013	175.410	0.050	0.180	1.130	175.450	-1.200	1.600																			1580026904.0	8.94	16.56
26/01/2020 08:21:45	26012020	260120	082145	175.490	12.610060	-57.245010	175.450	0.220	-0.080	0.880	175.490	-1.500	1.300																			1580026905.0	9.00	16.67
26/01/2020 08:21:46	26012020	260120	082146	175.520	12.610018	-57.245008	175.480	0.280	-0.370	0.790	175.520	-1.800	1.200																			1580026906.0	9.01	16.69
26/01/2020 08:21:47	26012020	260120	082147	175.570	12.609977	-57.245008	175.540	0.240	-0.550	0.770	175.580	-1.900	1.200																			1580026907.0	8.97	16.61
26/01/2020 08:21:48	26012020	260120	082148	175.610	12.609935	-57.245007	175.560	0.150	-0.660	0.890	175.610	-2.000	1.300																			1580026908.0	8.89	16.46
26/01/2020 08:21:49	26012020	260120	082149	175.560	12.609893	-57.245008	175.500	0.100	-0.730	1.160	175.560	-2.100	1.600																			1580026909.0	8.99	16.65
26/01/2020 08:21:50	26012020	260120	082150	175.500	12.609852	-57.245010	175.450	0.060	-0.640	1.220	175.500	-2.000	1.600																			1580026910.0	9.09	16.83
26/01/2020 08:21:51	26012020	260120	082151	175.520	12.609810	-57.245008	175.480	-0.030	-0.310	1.070	175.520	-1.700	1.500																			1580026911.0	8.95	16.58
26/01/2020 08:21:52	26012020	260120	082152	175.580	12.609768	-57.245007	175.550	-0.190	-0.010	0.930	175.580	-1.400	1.400																			1580026912.0	8.85	16.39
26/01/2020 08:21:53	26012020	260120	082153	175.700	12.609727	-57.245007	175.660	-0.330	0.120	0.800	175.700	-1.300	1.200																			1580026913.0	8.97	16.61
26/01/2020 08:21:54	26012020	260120	082154	175.730	12.609683	-57.245005	175.690	-0.350	0.080	0.760	175.730	-1.300	1.200																			1580026914.0	9.17	16.98
26/01/2020 08:21:55	26012020	260120	082155	175.690	12.609642	-57.245005	175.640	-0.230	0.070	0.790	175.690	-1.300	1.200																			1580026915.0	9.25	17.13
26/01/2020 08:21:56	26012020	260120	082156	175.700	12.609598	-57.245003	175.650	-0.070	0.140	0.810	175.700	-1.300	1.200																			1580026916.0	9.07	16.80
26/01/2020 08:21:57	26012020	260120	082157	175.710	12.609557	-57.245003	175.640	0.100	0.080	0.820	175.710	-1.300	1.200																			1580026917.0	8.91	16.50
26/01/2020 08:21:58	26012020	260120	082158	175.640	12.609515	-57.245003	175.580	0.260	-0.160	0.920	175.640	-1.500	1.300																			1580026918.0	9.02	16.71
26/01/2020 08:21:59	26012020	260120	082159	175.580	12.609473	-57.245002	175.530	0.310	-0.400	1.060	175.580	-1.800	1.500																			1580026919.0	9.12	16.89
26/01/2020 08:22:00	26012020	260120	082200	175.520	12.609432	-57.245002	175.490	0.240	-0.560	1.270	175.520	-1.900	1.700	1013.60	25.60	25.70	19.80	19.90	-1.00	70.00	70.00	416.00	25.30	308.00	9.20	94.00	7.30	15	3193.00	27.40	27.40	1580026920.0	9.06	16.78
26/01/2020 08:22:01	26012020	260120	082201	175.490	12.609388	-57.245002	175.470	0.110	-0.600	1.430	175.490	-2.000	1.800																			1580026921.0	9.07	16.80
26/01/2020 08:22:02	26012020	260120	082202	175.550	12.609347	-57.245003	175.540	-0.050	-0.440	1.450	175.550	-1.800	1.900																			1580026922.0	9.00	16.67
26/01/2020 08:22:03	26012020	260120	082203	175.690	12.609307	-57.245003	175.670	-0.180	-0.110	1.290	175.690	-1.500	1.700																			1580026923.0	8.82	16.33
26/01/2020 08:22:04	26012020	260120	082204	175.830	12.609265	-57.245003	175.800	-0.210	0.120	0.970	175.830	-1.300	1.400																			1580026924.0	8.72	16.15
26/01/2020 08:22:05	26012020	260120	082205	175.970	12.609223	-57.245000	175.960	-0.110	0.080	0.630	175.970	-1.300	1.100																			1580026925.0	8.91	16.50
26/01/2020 08:22:06	26012020	260120	082206	176.050	12.609182	-57.244998	176.000	0.080	-0.120	0.550	176.050	-1.500	1.000																			1580026926.0	9.13	16.91
26/01/2020 08:22:07	26012020	260120	082207	175.950	12.609138	-57.244997	175.880	0.260	-0.350	0.730	175.950	-1.700	1.200																			1580026927.0	9.24	17.11
26/01/2020 08:22:08	26012020	260120	082208	175.820	12.609097	-57.244995	175.760	0.260	-0.400	0.870	175.820	-1.800	1.300																			1580026928.0	9.23	17.09
26/01/2020 08:22:09	26012020	260120	082209	175.770	12.609053	-57.244993	175.740	0.030	-0.270	1.080	175.770	-1.700	1.500																			1580026929.0	9.00	16.67
26/01/2020 08:22:10	26012020	260120	082210	175.770	12.609013	-57.244995	175.740	-0.240	-0.110	1.320	175.770	-1.500	1.700																			1580026930.0	8.84	16.37
26/01/2020 08:22:11	26012020	260120	082211	175.760	12.608972	-57.244998	175.710	-0.290	-0.100	1.360	175.750	-1.500	1.800																			1580026931.0	8.89	16.46
26/01/2020 08:22:12	26012020	260120	082212	175.690	12.608930	-57.244998	175.660	-0.120	-0.230	1.210	175.690	-1.600	1.600																			1580026932.0	9.10	16.85
26/01/2020 08:22:13	26012020	260120	082213	175.770	12.608887	-57.244998	175.770	0.070	-0.320	0.890	175.770	-1.700	1.300																			1580026933.0	9.21	17.06
26/01/2020 08:22:14	26012020	260120	082214	176.010	12.608843	-57.244995	176.010	0.110	-0.290	0.530	176.010	-1.700	1.000																			1580026934.0	9.12	16.89
26/01/2020 08:22:15	26012020	260120	082215	176.230	12.608803	-57.244993	176.220	0.040	-0.200	0.340	176.230	-1.600	0.800																			1580026935.0	8.96	16.59
26/01/2020 08:22:16	26012020	260120	082216	176.410	12.608762	-57.244992	176.410	-0.010	-0.130	0.320	176.410	-1.500	0.700																			1580026936.0	8.94	16.56
26/01/2020 08:22:17	26012020	260120	082217	176.590	12.608720	-57.244990	176.590	0.000	-0.050	0.410	176.590	-1.500	0.800																			1580026937.0	8.97	16.61
26/01/2020 08:22:18	26012020	260120	082218	176.670	12.608678	-57.244990	176.640	0.030	-0.000	0.650	176.670	-1.400	1.000																			1580026938.0	8.97	16.61
26/01/2020 08:22:19	26012020	260120	082219	176.550	12.608637	-57.244992	176.500	0.040	-0.040	0.970	176.550	-1.400	1.400																			1580026939.0	8.97	16.61
26/01/2020 08:22:20	26012020	260120	082220	176.340	12.608593	-57.244992	176.310	0.030	-0.130	1.200	176.340	-1.500	1.600																			1580026940.0	9.07	16.80
26/01/2020 08:22:21	26012020	260120	082221	176.160	12.608552	-57.244992	176.130	0.020	-0.220	1.330	176.160	-1.600	1.800																			1580026941.0	9.08	16.82
26/01/2020 08:22:22	26012020	260120	082222	176.010	12.608510	-57.244993	175.980	0.060	-0.300	1.280	176.010	-1.700	1.700																			1580026942.0	9.05	16.76
26/01/2020 08:22:23	26012020	260120	082223	175.980	12.608467	-57.244993	175.980	0.100	-0.290	1.000	175.980	-1.700	1.500																			1580026943.0	9.03	16.72
26/01/2020 08:22:24	26012020	260120	082224	176.160	12.608427	-57.244992	176.190	0.040	-0.210	0.680	176.160	-1.600	1.100																			1580026944.0	8.88	16.45
26/01/2020 08:22:25	26012020	260120	082225	176.430	12.608385	-57.244990	176.420	-0.060	-0.260	0.460	176.430	-1.600	0.900																			1580026945.0	8.83	16.35
26/01/2020 08:22:26	26012020	260120	082226	176.530	12.608343	-57.244990	176.510	-0.080	-0.490	0.500	176.530	-1.900	0.900																			1580026946.0	9.06	16.78
26/01/2020 08:22:27	26012020	260120	082227	176.510	12.608300	-57.244992	176.500	-0.040	-0.640	0.690	176.510	-2.000	1.100																			1580026947.0	9.32	17.26
26/01/2020 08:22:28	26012020	260120	082228	176.470	12.608257	-57.244992	176.460	-0.040	-0.500	0.790	176.470	-1.900	1.200																			1580026948.0	9.24	17.11
26/01/2020 08:22:29	26012020	260120	082229	176.490	12.608215	-57.244992	176.500	-0.110	-0.130	0.740	176.490	-1.500	1.200																			1580026949.0	9.01	16.69
26/01/2020 08:22:30	26012020	260120	082230	176.660	12.608173	-57.244992	176.680	-0.200	0.260	0.550	176.660	-1.100	1.000																			1580026950.0	8.84	16.37
26/01/2020 08:22:31	26012020	260120	082231	176.780	12.608133	-57.244990	176.760	-0.210	0.350	0.430	176.780	-1.000	0.900																			1580026951.0	8.84	16.37
26/01/2020 08:22:32	26012020	260120	082232	176.730	12.608090	-57.244988	176.690	-0.080	0.080	0.470	176.730	-1.300	0.900																			1580026952.0	9.18	17.00
26/01/2020 08:22:33	26012020	260120	082233	176.610	12.608047	-57.244988	176.570	0.100	-0.180	0.620	176.610	-1.600	1.000																			1580026953.0	9.39	17.39
26/01/2020 08:22:34	26012020	260120	082234	176.470	12.608003	-57.244988	176.430	0.240	-0.210	0.850	176.470	-1.600	1.300																			1580026954.0	9.19	17.02
26/01/2020 08:22:35	26012020	260120	082235	176.320	12.607962	-57.244990	176.230	0.290	-0.150	1.120	176.280	-1.500	1.500																			1580026955.0	8.90	16.48
26/01/2020 08:22:36	26012020	260120	082236	176.090	12.607920	-57.244990	176.070	0.280	-0.170	1.280	176.090	-1.600	1.700																			1580026956.0	8.87	16.43
26/01/2020 08:22:37	26012020	260120	082237	176.070	12.607878	-57.244992	176.090	0.220	-0.250	1.280	176.090	-1.600	1.700																			1580026957.0	8.97	16.61
26/01/2020 08:22:38	26012020	260120	082238	176.220	12.607837	-57.244992	176.230	0.120	-0.300	1.230	176.220	-1.700	1.700																			1580026958.0	8.99	16.65
26/01/2020 08:22:39	26012020	260120	082239	176.430	12.607795	-57.244992	176.450	-0.000	-0.300	1.070	176.430	-1.700	1.500																			1580026959.0	8.95	16.58
26/01/2020 08:22:40	26012020	260120	082240	176.580	12.607753	-57.244992	176.570	-0.110	-0.370	0.850	176.580	-1.700	1.300																			1580026960.0	8.92	16.52
26/01/2020 08:22:41	26012020	260120	082241	176.590	12.607712	-57.244992	176.550	-0.140	-0.530	0.700	176.590	-1.900	1.100																			1580026961.0	9.11	16.87
26/01/2020 08:22:42	26012020	260120	082242	176.520	12.607668	-57.244992	176.470	-0.080	-0.590	0.690	176.520	-2.000	1.100																			1580026962.0	9.24	17.11
26/01/2020 08:22:43	26012020	260120	082243	176.430	12.607627	-57.244990	176.410	-0.050	-0.450	0.760	176.430	-1.900	1.200																			1580026963.0	9.19	17.02
26/01/2020 08:22:44	26012020	260120	082244	176.530	12.607583	-57.244990	176.550	-0.170	-0.120	0.740	176.530	-1.500	1.200																			1580026964.0	9.03	16.72
26/01/2020 08:22:45	26012020	260120	082245	176.790	12.607543	-57.244990	176.800	-0.380	0.150	0.790	176.790	-1.200	1.200																			1580026965.0	8.85	16.39
26/01/2020 08:22:46	26012020	260120	082246	176.910	12.607502	-57.244992	176.870	-0.410	0.070	0.940	176.910	-1.300	1.400																			1580026966.0	9.01	16.69
26/01/2020 08:22:47	26012020	260120	082247	176.800	12.607457	-57.244993	176.760	-0.120	-0.220	1.110	176.800	-1.600	1.500																			1580026967.0	9.41	17.43
26/01/2020 08:22:48	26012020	260120	082248	176.750	12.607413	-57.244993	176.750	0.260	-0.270	1.140	176.750	-1.700	1.600																			1580026968.0	9.53	17.65
26/01/2020 08:22:49	26012020	260120	082249	176.920	12.607372	-57.244993	176.940	0.390	0.080	0.930	176.920	-1.300	1.400																			1580026969.0	9.06	16.78
26/01/2020 08:22:50	26012020	260120	082250	177.160	12.607332	-57.244990	177.160	0.220	0.370	0.640	177.160	-1.000	1.100																			1580026970.0	8.59	15.91
26/01/2020 08:22:51	26012020	260120	082251	177.270	12.607290	-57.244990	177.260	0.040	0.210	0.510	177.270	-1.200	0.900																			1580026971.0	8.72	16.15
26/01/2020 08:22:52	26012020	260120	082252	177.300	12.607248	-57.244988	177.280	0.040	-0.230	0.580	177.300	-1.600	1.000																			1580026972.0	9.16	16.96
26/01/2020 08:22:53	26012020	260120	082253	177.210	12.607205	-57.244990	177.170	0.190	-0.570	0.890	177.210	-1.900	1.300																			1580026973.0	9.32	17.26
26/01/2020 08:22:54	26012020	260120	082254	177.020	12.607162	-57.244992	176.990	0.280	-0.570	1.160	177.020	-2.000	1.600																			1580026974.0	9.15	16.95
26/01/2020 08:22:55	26012020	260120	082255	176.920	12.607122	-57.244993	176.910	0.120	-0.310	1.240	176.920	-1.700	1.700																			1580026975.0	8.81	16.32
26/01/2020 08:22:56	26012020	260120	082256	176.910	12.607080	-57.244995	176.890	-0.140	-0.190	1.170	176.910	-1.600	1.600																			1580026976.0	8.67	16.06
26/01/2020 08:22:57	26012020	260120	082257	176.880	12.607038	-57.244997	176.870	-0.260	-0.360	1.030	176.880	-1.700	1.500																			1580026977.0	8.99	16.65
26/01/2020 08:22:58	26012020	260120	082258	176.920	12.606995	-57.244998	176.920	-0.170	-0.500	0.830	176.920	-1.900	1.300																			1580026978.0	9.32	17.26
26/01/2020 08:22:59	26012020	260120	082259	177.090	12.606953	-57.244998	177.100	-0.050	-0.370	0.570	177.090	-1.800	1.000																			1580026979.0	9.17	16.98
26/01/2020 08:23:00	26012020	260120	082300	177.270	12.606912	-57.244998	177.250	0.000	-0.260	0.360	177.270	-1.700	0.800	1013.60	25.60	25.70	20.00	20.00	-1.00	70.00	70.00	415.00	25.30	309.00	9.20	96.00	7.20	15	3216.00	27.40	27.40	1580026980.0	8.95	16.58
26/01/2020 08:23:01	26012020	260120	082301	177.350	12.606868	-57.244997	177.320	-0.030	-0.350	0.250	177.350	-1.700	0.700																			1580026981.0	9.15	16.95
26/01/2020 08:23:02	26012020	260120	082302	177.420	12.606825	-57.244995	177.390	-0.140	-0.370	0.430	177.420	-1.800	0.800																			1580026982.0	9.38	17.37
26/01/2020 08:23:03	26012020	260120	082303	177.450	12.606782	-57.244997	177.410	-0.280	-0.140	0.780	177.450	-1.600	1.200																			1580026983.0	9.25	17.13
26/01/2020 08:23:04	26012020	260120	082304	177.410	12.606740	-57.244998	177.360	-0.320	0.210	1.070	177.410	-1.200	1.500																			1580026984.0	9.00	16.67
26/01/2020 08:23:05	26012020	260120	082305	177.290	12.606698	-57.245002	177.230	-0.180	0.370	1.330	177.290	-1.000	1.700																			1580026985.0	8.94	16.56
26/01/2020 08:23:06	26012020	260120	082306	177.120	12.606657	-57.245003	177.070	0.110	0.280	1.470	177.120	-1.100	1.900																			1580026986.0	9.14	16.93
26/01/2020 08:23:07	26012020	260120	082307	177.020	12.606613	-57.245003	176.990	0.330	0.160	1.370	177.020	-1.200	1.800																			1580026987.0	9.22	17.08
26/01/2020 08:23:08	26012020	260120	082308	177.060	12.606572	-57.245003	177.030	0.310	0.070	1.190	177.060	-1.300	1.600																			1580026988.0	9.01	16.69
26/01/2020 08:23:09	26012020	260120	082309	177.050	12.606530	-57.245003	176.990	0.180	-0.140	1.090	177.050	-1.500	1.500																			1580026989.0	8.86	16.41
26/01/2020 08:23:10	26012020	260120	082310	176.940	12.606488	-57.245005	176.870	0.150	-0.410	0.960	176.940	-1.800	1.400																			1580026990.0	8.95	16.58
26/01/2020 08:23:11	26012020	260120	082311	176.740	12.606447	-57.245007	176.650	0.290	-0.690	0.890	176.740	-2.100	1.300																			1580026991.0	8.98	16.63
26/01/2020 08:23:12	26012020	260120	082312	176.530	12.606405	-57.245007	176.460	0.360	-0.870	0.920	176.530	-2.300	1.300																			1580026992.0	9.08	16.82
26/01/2020 08:23:13	26012020	260120	082313	176.380	12.606363	-57.245008	176.330	0.200	-0.820	0.960	176.380	-2.200	1.400																			1580026993.0	9.06	16.78
26/01/2020 08:23:14	26012020	260120	082314	176.320	12.606322	-57.245008	176.300	-0.160	-0.570	0.970	176.320	-2.000	1.400																			1580026994.0	8.96	16.59
26/01/2020 08:23:15	26012020	260120	082315	176.390	12.606280	-57.245008	176.390	-0.490	-0.300	0.980	176.390	-1.700	1.400																			1580026995.0	8.96	16.59
26/01/2020 08:23:16	26012020	260120	082316	176.540	12.606237	-57.245010	176.540	-0.580	-0.080	0.970	176.540	-1.500	1.400																			1580026996.0	9.10	16.85
26/01/2020 08:23:17	26012020	260120	082317	176.720	12.606195	-57.245012	176.710	-0.400	0.120	0.970	176.720	-1.300	1.400																			1580026997.0	9.18	17.00
26/01/2020 08:23:18	26012020	260120	082318	176.810	12.606152	-57.245012	176.790	-0.090	0.260	0.980	176.810	-1.100	1.400																			1580026998.0	9.14	16.93
26/01/2020 08:23:19	26012020	260120	082319	176.730	12.606110	-57.245010	176.690	0.190	0.210	1.090	176.730	-1.200	1.500																			1580026999.0	9.14	16.93
26/01/2020 08:23:20	26012020	260120	082320	176.440	12.606067	-57.245010	176.360	0.290	-0.030	1.370	176.440	-1.400	1.800																			1580027000.0	9.29	17.21
26/01/2020 08:23:21	26012020	260120	082321	176.080	12.606023	-57.245010	176.010	0.200	-0.140	1.640	176.080	-1.500	2.000																			1580027001.0	9.35	17.32
26/01/2020 08:23:22	26012020	260120	082322	175.820	12.605980	-57.245012	175.760	0.030	-0.020	1.780	175.820	-1.400	2.200																			1580027002.0	9.06	16.78
26/01/2020 08:23:23	26012020	260120	082323	175.650	12.605940	-57.245013	175.620	-0.050	0.100	1.670	175.650	-1.300	2.100																			1580027003.0	8.79	16.28
26/01/2020 08:23:24	26012020	260120	082324	175.670	12.605898	-57.245013	175.670	-0.040	-0.000	1.330	175.670	-1.400	1.800																			1580027004.0	8.79	16.28
26/01/2020 08:23:25	26012020	260120	082325	175.770	12.605857	-57.245013	175.760	0.050	-0.330	1.000	175.780	-1.700	1.400																			1580027005.0	8.96	16.59
26/01/2020 08:23:26	26012020	260120	082326	175.790	12.605815	-57.245013	175.760	0.160	-0.730	0.840	175.790	-2.100	1.300																			1580027006.0	9.18	17.00
26/01/2020 08:23:27	26012020	260120	082327	175.790	12.605772	-57.245012	175.780	0.180	-0.850	0.750	175.800	-2.200	1.200																			1580027007.0	9.22	17.08
26/01/2020 08:23:28	26012020	260120	082328	175.900	12.605730	-57.245012	175.880	0.070	-0.640	0.700	175.900	-2.000	1.100																			1580027008.0	8.97	16.61
26/01/2020 08:23:29	26012020	260120	082329	176.040	12.605690	-57.245012	176.020	-0.110	-0.290	0.730	176.040	-1.700	1.200																			1580027009.0	8.75	16.21
26/01/2020 08:23:30	26012020	260120	082330	176.120	12.605648	-57.245012	176.080	-0.240	-0.110	0.930	176.120	-1.500	1.300																			1580027010.0	8.81	16.32
26/01/2020 08:23:31	26012020	260120	082331	176.080	12.605607	-57.245013	176.040	-0.210	-0.070	1.210	176.080	-1.500	1.600																			1580027011.0	9.12	16.89
26/01/2020 08:23:32	26012020	260120	082332	176.050	12.605563	-57.245013	176.010	-0.080	-0.000	1.350	176.050	-1.400	1.800																			1580027012.0	9.23	17.09
26/01/2020 08:23:33	26012020	260120	082333	176.000	12.605520	-57.245013	175.930	0.070	0.070	1.350	176.000	-1.300	1.800																			1580027013.0	9.16	16.96
26/01/2020 08:23:34	26012020	260120	082334	175.840	12.605478	-57.245013	175.760	0.170	0.070	1.270	175.840	-1.300	1.700																			1580027014.0	9.12	16.89
26/01/2020 08:23:35	26012020	260120	082335	175.670	12.605435	-57.245012	175.610	0.170	0.080	1.110	175.670	-1.300	1.500																			1580027015.0	9.11	16.87
26/01/2020 08:23:36	26012020	260120	082336	175.670	12.605393	-57.245010	175.640	0.080	0.130	0.860	175.670	-1.300	1.300																			1580027016.0	8.95	16.58
26/01/2020 08:23:37	26012020	260120	082337	175.790	12.605353	-57.245008	175.770	-0.030	0.030	0.700	175.790	-1.400	1.100																			1580027017.0	8.81	16.32
26/01/2020 08:23:38	26012020	260120	082338	175.820	12.605312	-57.245008	175.780	-0.060	-0.360	0.750	175.820	-1.700	1.200																			1580027018.0	8.98	16.63
26/01/2020 08:23:39	26012020	260120	082339	175.710	12.605268	-57.245008	175.690	0.040	-0.780	0.990	175.710	-2.100	1.400																			1580027019.0	9.31	17.24
26/01/2020 08:23:40	26012020	260120	082340	175.610	12.605225	-57.245010	175.600	0.110	-0.840	1.180	175.610	-2.200	1.600																			1580027020.0	9.28	17.19
26/01/2020 08:23:41	26012020	260120	082341	175.550	12.605183	-57.245010	175.540	-0.000	-0.570	1.210	175.550	-2.000	1.600																			1580027021.0	8.94	16.56
26/01/2020 08:23:42	26012020	260120	082342	175.550	12.605143	-57.245010	175.550	-0.250	-0.250	1.150	175.550	-1.700	1.600																			1580027022.0	8.75	16.21
26/01/2020 08:23:43	26012020	260120	082343	175.550	12.605102	-57.245010	175.540	-0.420	-0.120	1.170	175.550	-1.500	1.600																			1580027023.0	8.90	16.48
26/01/2020 08:23:44	26012020	260120	082344	175.540	12.605058	-57.245012	175.550	-0.340	-0.100	1.080	175.540	-1.500	1.500																			1580027024.0	9.20	17.04
26/01/2020 08:23:45	26012020	260120	082345	175.600	12.605015	-57.245012	175.600	-0.100	0.010	0.870	175.600	-1.400	1.300																			1580027025.0	9.25	17.13
26/01/2020 08:23:46	26012020	260120	082346	175.650	12.604973	-57.245010	175.630	0.110	0.180	0.720	175.650	-1.200	1.200																			1580027026.0	9.06	16.78
26/01/2020 08:23:47	26012020	260120	082347	175.630	12.604932	-57.245010	175.590	0.240	0.250	0.630	175.630	-1.100	1.100																			1580027027.0	8.95	16.58
26/01/2020 08:23:48	26012020	260120	082348	175.550	12.604890	-57.245007	175.500	0.320	0.190	0.670	175.550	-1.200	1.100																			1580027028.0	8.96	16.59
26/01/2020 08:23:49	26012020	260120	082349	175.480	12.604848	-57.245005	175.440	0.350	-0.050	0.920	175.480	-1.400	1.300																			1580027029.0	9.04	16.74
26/01/2020 08:23:50	26012020	260120	082350	175.390	12.604805	-57.245005	175.360	0.290	-0.310	1.250	175.390	-1.700	1.700																			1580027030.0	9.13	16.91
26/01/2020 08:23:51	26012020	260120	082351	175.300	12.604763	-57.245007	175.270	0.140	-0.430	1.500	175.300	-1.800	1.900																			1580027031.0	9.04	16.74
26/01/2020 08:23:52	26012020	260120	082352	175.190	12.604722	-57.245008	175.170	-0.020	-0.500	1.690	175.190	-1.900	2.100																			1580027032.0	8.92	16.52
26/01/2020 08:23:53	26012020	260120	082353	175.150	12.604680	-57.245008	175.140	-0.080	-0.560	1.630	175.150	-1.900	2.100																			1580027033.0	8.99	16.65
26/01/2020 08:23:54	26012020	260120	082354	175.190	12.604638	-57.245008	175.180	-0.060	-0.540	1.360	175.190	-1.900	1.800																			1580027034.0	9.03	16.72
26/01/2020 08:23:55	26012020	260120	082355	175.300	12.604597	-57.245007	175.310	-0.070	-0.420	1.040	175.300	-1.800	1.500																			1580027035.0	9.01	16.69
26/01/2020 08:23:56	26012020	260120	082356	175.520	12.604555	-57.245005	175.530	-0.210	-0.210	0.730	175.520	-1.600	1.200																			1580027036.0	8.93	16.54
26/01/2020 08:23:57	26012020	260120	082357	175.690	12.604513	-57.245002	175.680	-0.390	-0.150	0.660	175.690	-1.500	1.100																			1580027037.0	8.90	16.48
26/01/2020 08:23:58	26012020	260120	082358	175.610	12.604470	-57.245002	175.570	-0.420	-0.350	0.910	175.610	-1.700	1.300																			1580027038.0	9.21	17.06
26/01/2020 08:23:59	26012020	260120	082359	175.360	12.604427	-57.245003	175.320	-0.250	-0.440	1.230	175.360	-1.800	1.600																			1580027039.0	9.56	17.71
26/01/2020 08:24:00	26012020	260120	082400	175.210	12.604383	-57.245005	175.200	-0.060	-0.070	1.300	175.210	-1.500	1.700	1013.60	25.60	25.60	19.80	19.80	-1.00	70.00	70.00	416.00	25.30	309.00	9.70	97.00	7.60	15	3185.00	27.40	27.40	1580027040.0	9.30	17.22
26/01/2020 08:24:01	26012020	260120	082401	175.270	12.604342	-57.245005	175.290	0.030	0.420	1.010	175.270	-1.000	1.500																			1580027041.0	8.80	16.30
26/01/2020 08:24:02	26012020	260120	082402	175.420	12.604302	-57.245002	175.420	0.050	0.570	0.720	175.420	-0.800	1.200																			1580027042.0	8.68	16.08
26/01/2020 08:24:03	26012020	260120	082403	175.520	12.604260	-57.245000	175.540	0.100	0.280	0.670	175.540	-1.100	1.100																			1580027043.0	9.02	16.71
26/01/2020 08:24:04	26012020	260120	082404	175.630	12.604217	-57.244998	175.630	0.230	-0.130	0.780	175.630	-1.500	1.200																			1580027044.0	9.30	17.22
26/01/2020 08:24:05	26012020	260120	082405	175.730	12.604173	-57.244998	175.750	0.340	-0.290	0.910	175.730	-1.700	1.300																			1580027045.0	9.20	17.04
26/01/2020 08:24:06	26012020	260120	082406	175.850	12.604133	-57.244998	175.880	0.310	-0.210	1.000	175.850	-1.600	1.400																			1580027046.0	8.76	16.22
26/01/2020 08:24:07	26012020	260120	082407	175.890	12.604093	-57.244998	175.870	0.230	-0.300	1.050	175.890	-1.700	1.500																			1580027047.0	8.55	15.83
26/01/2020 08:24:08	26012020	260120	082408	175.730	12.604052	-57.244998	175.690	0.210	-0.690	1.140	175.730	-2.000	1.600																			1580027048.0	8.90	16.48
26/01/2020 08:24:09	26012020	260120	082409	175.510	12.604008	-57.244998	175.470	0.180	-0.980	1.250	175.510	-2.400	1.700																			1580027049.0	9.27	17.17
26/01/2020 08:24:10	26012020	260120	082410	175.380	12.603967	-57.244998	175.370	0.010	-0.910	1.300	175.380	-2.300	1.700																			1580027050.0	9.21	17.06
26/01/2020 08:24:11	26012020	260120	082411	175.380	12.603925	-57.244998	175.370	-0.300	-0.560	1.220	175.380	-2.000	1.700																			1580027051.0	8.99	16.65
26/01/2020 08:24:12	26012020	260120	082412	175.440	12.603883	-57.244998	175.440	-0.570	-0.120	1.070	175.440	-1.500	1.500																			1580027052.0	8.88	16.45
26/01/2020 08:24:13	26012020	260120	082413	175.580	12.603842	-57.244998	175.590	-0.620	0.230	0.830	175.580	-1.200	1.300																			1580027053.0	8.89	16.46
26/01/2020 08:24:14	26012020	260120	082414	175.760	12.603800	-57.244998	175.750	-0.410	0.220	0.530	175.760	-1.200	1.000																			1580027054.0	9.09	16.83
26/01/2020 08:24:15	26012020	260120	082415	175.880	12.603755	-57.244997	175.870	-0.100	-0.040	0.370	175.880	-1.400	0.800																			1580027055.0	9.47	17.54
26/01/2020 08:24:16	26012020	260120	082416	175.970	12.603712	-57.244995	175.970	0.090	-0.100	0.400	175.970	-1.500	0.800																			1580027056.0	9.53	17.65
26/01/2020 08:24:17	26012020	260120	082417	176.050	12.603668	-57.244993	176.050	0.050	0.190	0.550	176.060	-1.200	1.000																			1580027057.0	9.07	16.80
26/01/2020 08:24:18	26012020	260120	082418	176.030	12.603628	-57.244993	176.000	-0.060	0.410	0.840	176.030	-1.000	1.200																			1580027058.0	8.65	16.02
26/01/2020 08:24:19	26012020	260120	082419	175.850	12.603588	-57.244995	175.810	0.020	0.240	1.240	175.850	-1.100	1.600																			1580027059.0	8.79	16.28
26/01/2020 08:24:20	26012020	260120	082420	175.680	12.603545	-57.244997	175.660	0.310	-0.120	1.400	175.680	-1.500	1.800																			1580027060.0	9.15	16.95
26/01/2020 08:24:21	26012020	260120	082421	175.620	12.603503	-57.244995	175.610	0.600	-0.350	1.240	175.620	-1.700	1.700																			1580027061.0	9.14	16.93
26/01/2020 08:24:22	26012020	260120	082422	175.630	12.603462	-57.244993	175.620	0.640	-0.400	0.980	175.630	-1.800	1.400																			1580027062.0	8.84	16.37
26/01/2020 08:24:23	26012020	260120	082423	175.670	12.603422	-57.244992	175.640	0.400	-0.470	0.770	175.670	-1.900	1.200																			1580027063.0	8.67	16.06
26/01/2020 08:24:24	26012020	260120	082424	175.650	12.603380	-57.244990	175.610	0.050	-0.690	0.820	175.650	-2.100	1.200																			1580027064.0	8.80	16.30
26/01/2020 08:24:25	26012020	260120	082425	175.550	12.603338	-57.244990	175.510	-0.240	-0.910	1.150	175.550	-2.300	1.600																			1580027065.0	9.11	16.87
26/01/2020 08:24:26	26012020	260120	082426	175.470	12.603295	-57.244993	175.430	-0.370	-0.920	1.390	175.470	-2.300	1.800																			1580027066.0	9.30	17.22
26/01/2020 08:24:27	26012020	260120	082427	175.470	12.603252	-57.244995	175.460	-0.370	-0.580	1.320	175.470	-2.000	1.800																			1580027067.0	9.20	17.04
26/01/2020 08:24:28	26012020	260120	082428	175.630	12.603212	-57.244995	175.640	-0.340	-0.050	0.950	175.630	-1.500	1.400																			1580027068.0	8.94	16.56
26/01/2020 08:24:29	26012020	260120	082429	175.860	12.603170	-57.244993	175.880	-0.300	0.310	0.550	175.860	-1.100	1.000																			1580027069.0	8.85	16.39
26/01/2020 08:24:30	26012020	260120	082430	176.080	12.603128	-57.244990	176.090	-0.240	0.340	0.300	176.080	-1.000	0.700																			1580027070.0	9.09	16.83
26/01/2020 08:24:31	26012020	260120	082431	176.220	12.603085	-57.244987	176.220	-0.140	0.220	0.370	176.220	-1.200	0.800																			1580027071.0	9.32	17.26
26/01/2020 08:24:32	26012020	260120	082432	176.240	12.603042	-57.244987	176.210	-0.060	0.110	0.750	176.240	-1.300	1.200																			1580027072.0	9.29	17.21
26/01/2020 08:24:33	26012020	260120	082433	176.120	12.602998	-57.244987	176.080	0.040	0.030	1.160	176.120	-1.400	1.600																			1580027073.0	9.16	16.96
26/01/2020 08:24:34	26012020	260120	082434	175.960	12.602957	-57.244988	175.930	0.180	0.000	1.380	175.960	-1.400	1.800																			1580027074.0	9.04	16.74
26/01/2020 08:24:35	26012020	260120	082435	175.850	12.602915	-57.244988	175.830	0.300	0.000	1.400	175.850	-1.400	1.800																			1580027075.0	8.92	16.52
26/01/2020 08:24:36	26012020	260120	082436	175.860	12.602873	-57.244988	175.850	0.320	0.020	1.170	175.860	-1.400	1.600																			1580027076.0	8.78	16.26
26/01/2020 08:24:37	26012020	260120	082437	175.970	12.602833	-57.244988	175.940	0.250	-0.080	0.820	175.970	-1.500	1.300																			1580027077.0	8.67	16.06
26/01/2020 08:24:38	26012020	260120	082438	176.120	12.602793	-57.244987	176.110	0.200	-0.360	0.540	176.120	-1.700	1.000																			1580027078.0	8.78	16.26
26/01/2020 08:24:39	26012020	260120	082439	176.260	12.602752	-57.244985	176.250	0.240	-0.700	0.360	176.280	-2.100	0.800																			1580027079.0	8.92	16.52
26/01/2020 08:24:40	26012020	260120	082440	176.310	12.602710	-57.244983	176.260	0.320	-1.070	0.350	176.310	-2.400	0.800																			1580027080.0	9.11	16.87
26/01/2020 08:24:41	26012020	260120	082441	176.300	12.602667	-57.244982	176.280	0.230	-1.130	0.530	176.300	-2.500	0.900																			1580027081.0	9.30	17.22
26/01/2020 08:24:42	26012020	260120	082442	176.450	12.602623	-57.244983	176.450	-0.130	-0.650	0.820	176.450	-2.100	1.200																			1580027082.0	9.06	16.78
26/01/2020 08:24:43	26012020	260120	082443	176.740	12.602583	-57.244985	176.740	-0.540	0.030	0.960	176.740	-1.400	1.400																			1580027083.0	8.64	16.00
26/01/2020 08:24:44	26012020	260120	082444	176.900	12.602543	-57.244987	176.860	-0.650	0.250	1.040	176.900	-1.100	1.500																			1580027084.0	8.71	16.13
26/01/2020 08:24:45	26012020	260120	082445	176.840	12.602500	-57.244988	176.790	-0.380	0.010	1.070	176.840	-1.300	1.500																			1580027085.0	9.40	17.41
26/01/2020 08:24:46	26012020	260120	082446	176.740	12.602455	-57.244988	176.680	-0.010	-0.090	0.980	176.740	-1.500	1.400																			1580027086.0	9.73	18.02
26/01/2020 08:24:47	26012020	260120	082447	176.700	12.602412	-57.244985	176.660	0.150	0.180	0.710	176.700	-1.200	1.200																			1580027087.0	9.35	17.32
26/01/2020 08:24:48	26012020	260120	082448	176.780	12.602370	-57.244982	176.750	0.030	0.610	0.420	176.780	-0.800	0.900																			1580027088.0	8.78	16.26
26/01/2020 08:24:49	26012020	260120	082449	176.860	12.602330	-57.244980	176.810	-0.130	0.670	0.390	176.860	-0.700	0.800																			1580027089.0	8.54	15.82
26/01/2020 08:24:50	26012020	260120	082450	176.780	12.602290	-57.244982	176.680	-0.070	0.110	0.710	176.780	-1.200	1.100																			1580027090.0	8.90	16.48
26/01/2020 08:24:51	26012020	260120	082451	176.500	12.602245	-57.244983	176.410	0.230	-0.590	1.060	176.500	-1.900	1.500																			1580027091.0	9.43	17.46
26/01/2020 08:24:52	26012020	260120	082452	176.270	12.602202	-57.244987	176.210	0.450	-0.820	1.210	176.270	-2.200	1.600																			1580027092.0	9.34	17.30
26/01/2020 08:24:53	26012020	260120	082453	176.210	12.602162	-57.244987	176.170	0.410	-0.700	1.160	176.210	-2.100	1.600																			1580027093.0	8.76	16.22
26/01/2020 08:24:54	26012020	260120	082454	176.250	12.602122	-57.244988	176.230	0.210	-0.600	0.970	176.250	-2.000	1.400																			1580027094.0	8.61	15.95
26/01/2020 08:24:55	26012020	260120	082455	176.440	12.602080	-57.244988	176.450	-0.000	-0.490	0.680	176.440	-1.900	1.100																			1580027095.0	8.81	16.32
26/01/2020 08:24:56	26012020	260120	082456	176.720	12.602040	-57.244987	176.700	-0.140	-0.340	0.530	176.720	-1.700	1.000																			1580027096.0	8.84	16.37
26/01/2020 08:24:57	26012020	260120	082457	176.850	12.601998	-57.244988	176.810	-0.100	-0.340	0.570	176.850	-1.700	1.000																			1580027097.0	8.98	16.63
26/01/2020 08:24:58	26012020	260120	082458	176.840	12.601955	-57.244987	176.810	0.030	-0.350	0.600	176.840	-1.700	1.000																			1580027098.0	9.28	17.19
26/01/2020 08:24:59	26012020	260120	082459	176.900	12.601912	-57.244987	176.880	0.050	-0.130	0.650	176.900	-1.500	1.100																			1580027099.0	9.25	17.13
26/01/2020 08:25:00	26012020	260120	082500	177.000	12.601870	-57.244985	176.970	-0.080	0.170	0.780	177.000	-1.200	1.200	1013.60	25.60	25.60	19.60	19.70	-1.00	69.00	69.00	419.00	25.30	312.00	9.00	97.00	6.80	15	3297.00	27.40	27.40	1580027100.0	8.97	16.61
26/01/2020 08:25:01	26012020	260120	082501	176.980	12.601828	-57.244985	176.930	-0.240	0.270	1.010	176.980	-1.100	1.400																			1580027101.0	8.90	16.48
26/01/2020 08:25:02	26012020	260120	082502	176.760	12.601787	-57.244985	176.690	-0.270	0.090	1.330	176.760	-1.300	1.700																			1580027102.0	9.13	16.91
26/01/2020 08:25:03	26012020	260120	082503	176.550	12.601742	-57.244987	176.500	-0.190	-0.110	1.540	176.550	-1.500	2.000																			1580027103.0	9.35	17.32
26/01/2020 08:25:04	26012020	260120	082504	176.450	12.601700	-57.244988	176.410	-0.100	-0.090	1.590	176.450	-1.500	2.000																			1580027104.0	9.17	16.98
26/01/2020 08:25:05	26012020	260120	082505	176.400	12.601658	-57.244988	176.340	0.000	-0.020	1.390	176.390	-1.400	1.800																			1580027105.0	8.86	16.41
26/01/2020 08:25:06	26012020	260120	082506	176.380	12.601618	-57.244988	176.330	0.150	-0.090	1.030	176.380	-1.500	1.500																			1580027106.0	8.80	16.30
26/01/2020 08:25:07	26012020	260120	082507	176.410	12.601577	-57.244988	176.400	0.270	-0.270	0.740	176.440	-1.600	1.200																			1580027107.0	8.93	16.54
26/01/2020 08:25:08	26012020	260120	082508	176.580	12.601535	-57.244988	176.540	0.280	-0.380	0.520	176.580	-1.800	1.000																			1580027108.0	8.99	16.65
26/01/2020 08:25:09	26012020	260120	082509	176.710	12.601493	-57.244987	176.660	0.200	-0.420	0.340	176.710	-1.800	0.800																			1580027109.0	8.87	16.43
26/01/2020 08:25:10	26012020	260120	082510	176.780	12.601452	-57.244987	176.720	0.130	-0.480	0.340	176.780	-1.900	0.800																			1580027110.0	8.87	16.43
26/01/2020 08:25:11	26012020	260120	082511	176.840	12.601410	-57.244987	176.780	0.090	-0.550	0.490	176.840	-1.900	0.900																			1580027111.0	9.01	16.69
26/01/2020 08:25:12	26012020	260120	082512	176.940	12.601368	-57.244987	176.900	0.020	-0.550	0.640	176.940	-1.900	1.100																			1580027112.0	9.12	16.89
26/01/2020 08:25:13	26012020	260120	082513	177.050	12.601325	-57.244988	177.020	-0.130	-0.410	0.810	177.050	-1.800	1.200																			1580027113.0	9.14	16.93
26/01/2020 08:25:14	26012020	260120	082514	177.140	12.601283	-57.244988	177.090	-0.300	-0.140	0.960	177.140	-1.600	1.400																			1580027114.0	9.04	16.74
26/01/2020 08:25:15	26012020	260120	082515	177.140	12.601242	-57.244990	177.080	-0.350	0.120	1.010	177.140	-1.300	1.400																			1580027115.0	8.96	16.59
26/01/2020 08:25:16	26012020	260120	082516	177.090	12.601200	-57.244990	177.020	-0.240	0.220	1.010	177.090	-1.200	1.400																			1580027116.0	9.02	16.71
26/01/2020 08:25:17	26012020	260120	082517	177.020	12.601157	-57.244988	176.960	-0.040	0.190	0.910	177.020	-1.200	1.400																			1580027117.0	9.16	16.96
26/01/2020 08:25:18	26012020	260120	082518	177.000	12.601115	-57.244988	176.940	0.120	0.150	0.700	177.000	-1.200	1.200																			1580027118.0	9.14	16.93
26/01/2020 08:25:19	26012020	260120	082519	176.960	12.601073	-57.244987	176.890	0.160	0.080	0.570	176.960	-1.300	1.000																			1580027119.0	9.00	16.67
26/01/2020 08:25:20	26012020	260120	082520	176.940	12.601032	-57.244987	176.860	0.130	-0.080	0.540	176.940	-1.500	1.000																			1580027120.0	8.94	16.56
26/01/2020 08:25:21	26012020	260120	082521	176.890	12.600990	-57.244987	176.810	0.120	-0.340	0.660	176.890	-1.700	1.100																			1580027121.0	8.97	16.61
26/01/2020 08:25:22	26012020	260120	082522	176.780	12.600947	-57.244988	176.700	0.150	-0.600	0.880	176.780	-2.000	1.300																			1580027122.0	9.10	16.85
26/01/2020 08:25:23	26012020	260120	082523	176.690	12.600905	-57.244990	176.620	0.120	-0.610	1.070	176.690	-2.000	1.500																			1580027123.0	9.09	16.83
26/01/2020 08:25:24	26012020	260120	082524	176.650	12.600863	-57.244993	176.590	0.030	-0.420	1.080	176.650	-1.800	1.500																			1580027124.0	8.87	16.43
26/01/2020 08:25:25	26012020	260120	082525	176.710	12.600823	-57.244995	176.670	-0.040	-0.270	0.960	176.710	-1.700	1.400																			1580027125.0	8.79	16.28
26/01/2020 08:25:26	26012020	260120	082526	176.890	12.600782	-57.244995	176.850	-0.060	-0.250	0.720	176.890	-1.600	1.200																			1580027126.0	8.95	16.58
26/01/2020 08:25:27	26012020	260120	082527	177.020	12.600738	-57.244993	176.970	-0.040	-0.280	0.540	177.020	-1.700	1.000																			1580027127.0	9.10	16.85
26/01/2020 08:25:28	26012020	260120	082528	177.060	12.600697	-57.244993	177.000	-0.060	-0.300	0.560	177.060	-1.700	1.000																			1580027128.0	9.20	17.04
26/01/2020 08:25:29	26012020	260120	082529	177.070	12.600653	-57.244993	177.030	-0.110	-0.170	0.620	177.080	-1.600	1.100																			1580027129.0	9.18	17.00
26/01/2020 08:25:30	26012020	260120	082530	177.160	12.600612	-57.244993	177.100	-0.120	0.110	0.620	177.160	-1.300	1.100																			1580027130.0	8.97	16.61
26/01/2020 08:25:31	26012020	260120	082531	177.180	12.600570	-57.244993	177.120	-0.070	0.210	0.700	177.180	-1.200	1.100																			1580027131.0	8.84	16.37
26/01/2020 08:25:32	26012020	260120	082532	177.180	12.600528	-57.244993	177.110	0.010	0.020	0.840	177.180	-1.400	1.300																			1580027132.0	9.07	16.80
26/01/2020 08:25:33	26012020	260120	082533	177.160	12.600485	-57.244992	177.080	0.030	-0.240	1.110	177.160	-1.600	1.500																			1580027133.0	9.26	17.15
26/01/2020 08:25:34	26012020	260120	082534	177.030	12.600443	-57.244993	176.960	0.010	-0.410	1.460	177.030	-1.800	1.900																			1580027134.0	9.22	17.08
26/01/2020 08:25:35	26012020	260120	082535	176.830	12.600400	-57.244997	176.750	0.020	-0.450	1.700	176.830	-1.800	2.100																			1580027135.0	9.15	16.95
26/01/2020 08:25:36	26012020	260120	082536	176.680	12.600358	-57.244998	176.610	0.060	-0.350	1.680	176.680	-1.800	2.100																			1580027136.0	9.04	16.74
26/01/2020 08:25:37	26012020	260120	082537	176.590	12.600317	-57.244998	176.520	0.080	-0.180	1.440	176.590	-1.600	1.900																			1580027137.0	8.92	16.52
26/01/2020 08:25:38	26012020	260120	082538	176.530	12.600275	-57.244998	176.460	0.050	-0.060	1.080	176.530	-1.500	1.500																			1580027138.0	8.89	16.46
26/01/2020 08:25:39	26012020	260120	082539	176.500	12.600233	-57.244998	176.450	0.040	-0.030	0.640	176.500	-1.400	1.100																			1580027139.0	8.95	16.58
26/01/2020 08:25:40	26012020	260120	082540	176.560	12.600192	-57.244997	176.520	0.060	-0.050	0.250	176.560	-1.400	0.700																			1580027140.0	9.02	16.71
26/01/2020 08:25:41	26012020	260120	082541	176.730	12.600150	-57.244995	176.710	0.070	-0.120	0.120	176.730	-1.500	0.600																			1580027141.0	9.03	16.72
26/01/2020 08:25:42	26012020	260120	082542	176.960	12.600108	-57.244995	176.930	0.030	-0.200	0.230	176.960	-1.600	0.700																			1580027142.0	9.04	16.74
26/01/2020 08:25:43	26012020	260120	082543	177.110	12.600065	-57.244995	177.070	-0.020	-0.250	0.500	177.110	-1.600	0.900																			1580027143.0	9.02	16.71
26/01/2020 08:25:44	26012020	260120	082544	177.190	12.600023	-57.244998	177.150	-0.060	-0.260	0.730	177.190	-1.600	1.200																			1580027144.0	8.99	16.65
26/01/2020 08:25:45	26012020	260120	082545	177.290	12.599982	-57.245000	177.260	-0.030	-0.250	0.770	177.290	-1.600	1.200																			1580027145.0	8.94	16.56
26/01/2020 08:25:46	26012020	260120	082546	177.380	12.599940	-57.245000	177.340	0.060	-0.310	0.640	177.380	-1.700	1.100																			1580027146.0	8.94	16.56
26/01/2020 08:25:47	26012020	260120	082547	177.380	12.599898	-57.244998	177.330	0.130	-0.470	0.600	177.380	-1.800	1.000																			1580027147.0	9.08	16.82
26/01/2020 08:25:48	26012020	260120	082548	177.190	12.599855	-57.244997	177.110	0.110	-0.640	0.760	177.190	-2.000	1.200																			1580027148.0	9.23	17.09
26/01/2020 08:25:49	26012020	260120	082549	176.890	12.599812	-57.244997	176.800	-0.040	-0.580	1.090	176.890	-2.000	1.500																			1580027149.0	9.32	17.26
26/01/2020 08:25:50	26012020	260120	082550	176.570	12.599770	-57.244998	176.510	-0.240	-0.230	1.450	176.570	-1.700	1.900																			1580027150.0	9.14	16.93
26/01/2020 08:25:51	26012020	260120	082551	176.380	12.599728	-57.245002	176.340	-0.350	0.170	1.510	176.380	-1.200	2.000																			1580027151.0	8.92	16.52
26/01/2020 08:25:52	26012020	260120	082552	176.300	12.599687	-57.245003	176.280	-0.290	0.290	1.290	176.300	-1.100	1.700																			1580027152.0	8.94	16.56
26/01/2020 08:25:53	26012020	260120	082553	176.340	12.599643	-57.245002	176.330	-0.140	0.130	0.970	176.340	-1.200	1.400																			1580027153.0	9.25	17.13
26/01/2020 08:25:54	26012020	260120	082554	176.510	12.599600	-57.245002	176.500	-0.030	0.020	0.710	176.510	-1.400	1.200																			1580027154.0	9.30	17.22
26/01/2020 08:25:55	26012020	260120	082555	176.630	12.599558	-57.245002	176.620	0.060	0.020	0.530	176.650	-1.400	1.000																			1580027155.0	9.05	16.76
26/01/2020 08:25:56	26012020	260120	082556	176.680	12.599518	-57.245000	176.620	0.140	0.020	0.560	176.680	-1.400	1.000																			1580027156.0	8.85	16.39
26/01/2020 08:25:57	26012020	260120	082557	176.630	12.599477	-57.245002	176.550	0.230	-0.130	0.810	176.620	-1.500	1.200																			1580027157.0	8.87	16.43
26/01/2020 08:25:58	26012020	260120	082558	176.620	12.599435	-57.245003	176.570	0.270	-0.270	0.910	176.620	-1.700	1.300																			1580027158.0	9.01	16.69
26/01/2020 08:25:59	26012020	260120	082559	176.690	12.599393	-57.245003	176.640	0.220	-0.320	0.910	176.690	-1.700	1.300																			1580027159.0	8.89	16.46
26/01/2020 08:26:00	26012020	260120	082600	176.700	12.599352	-57.245003	176.630	0.170	-0.420	0.910	176.700	-1.800	1.300	1013.70	25.60	25.70	19.70	19.80	-1.00	69.00	69.00	423.00	25.30	314.00	9.00	101.00	6.70	14	3226.00	27.40	27.40	1580027160.0	8.81	16.32
26/01/2020 08:26:01	26012020	260120	082601	176.550	12.599310	-57.245003	176.460	0.190	-0.600	0.850	176.550	-2.000	1.300																			1580027161.0	8.95	16.58
26/01/2020 08:26:02	26012020	260120	082602	176.410	12.599268	-57.245002	176.320	0.170	-0.710	0.720	176.410	-2.100	1.200																			1580027162.0	9.15	16.95
26/01/2020 08:26:03	26012020	260120	082603	176.340	12.599225	-57.245002	176.250	0.000	-0.630	0.680	176.340	-2.000	1.100																			1580027163.0	9.11	16.87
26/01/2020 08:26:04	26012020	260120	082604	176.250	12.599183	-57.245000	176.180	-0.240	-0.450	0.720	176.250	-1.900	1.200																			1580027164.0	9.03	16.72
26/01/2020 08:26:05	26012020	260120	082605	176.170	12.599142	-57.245002	176.110	-0.420	-0.270	0.770	176.170	-1.700	1.200																			1580027165.0	9.09	16.83
26/01/2020 08:26:06	26012020	260120	082606	176.190	12.599098	-57.245002	176.140	-0.440	-0.080	0.820	176.190	-1.500	1.300																			1580027166.0	9.19	17.02
26/01/2020 08:26:07	26012020	260120	082607	176.320	12.599057	-57.245003	176.300	-0.310	0.140	0.750	176.320	-1.300	1.200																			1580027167.0	9.20	17.04
26/01/2020 08:26:08	26012020	260120	082608	176.530	12.599013	-57.245002	176.510	-0.160	0.320	0.550	176.530	-1.100	1.000																			1580027168.0	9.11	16.87
26/01/2020 08:26:09	26012020	260120	082609	176.740	12.598972	-57.245000	176.700	-0.070	0.380	0.490	176.740	-1.000	0.900																			1580027169.0	9.04	16.74
26/01/2020 08:26:10	26012020	260120	082610	176.880	12.598930	-57.245000	176.830	-0.000	0.250	0.630	176.880	-1.100	1.100																			1580027170.0	9.05	16.76
26/01/2020 08:26:11	26012020	260120	082611	176.860	12.598887	-57.245000	176.790	0.110	0.010	0.890	176.860	-1.400	1.300																			1580027171.0	9.08	16.82
26/01/2020 08:26:12	26012020	260120	082612	176.630	12.598845	-57.245002	176.530	0.270	-0.310	1.250	176.630	-1.700	1.700																			1580027172.0	9.11	16.87
26/01/2020 08:26:13	26012020	260120	082613	176.250	12.598802	-57.245003	176.140	0.370	-0.560	1.610	176.250	-1.900	2.000																			1580027173.0	9.16	16.96
26/01/2020 08:26:14	26012020	260120	082614	175.930	12.598760	-57.245007	175.830	0.280	-0.590	1.690	175.930	-2.000	2.100																			1580027174.0	9.09	16.83
26/01/2020 08:26:15	26012020	260120	082615	175.780	12.598718	-57.245007	175.710	0.060	-0.420	1.500	175.780	-1.800	2.000																			1580027175.0	8.89	16.46
26/01/2020 08:26:16	26012020	260120	082616	175.850	12.598678	-57.245008	175.820	-0.120	-0.130	1.050	175.850	-1.500	1.500																			1580027176.0	8.72	16.15
26/01/2020 08:26:17	26012020	260120	082617	176.180	12.598638	-57.245008	176.180	-0.140	0.020	0.370	176.180	-1.400	0.900																			1580027177.0	8.63	15.98
26/01/2020 08:26:18	26012020	260120	082618	176.660	12.598597	-57.245005	176.650	0.000	-0.150	-0.300	176.660	-1.500	0.200																			1580027178.0	8.84	16.37
26/01/2020 08:26:19	26012020	260120	082619	176.990	12.598555	-57.245000	177.010	0.150	-0.530	-0.500	177.050	-1.900	-0.100																			1580027179.0	9.20	17.04
26/01/2020 08:26:20	26012020	260120	082620	177.180	12.598512	-57.244998	177.100	0.190	-0.840	-0.170	177.180	-2.200	0.200																			1580027180.0	9.37	17.35
26/01/2020 08:26:21	26012020	260120	082621	177.070	12.598467	-57.244998	176.980	0.080	-0.860	0.430	177.070	-2.300	0.800																			1580027181.0	9.37	17.35
26/01/2020 08:26:22	26012020	260120	082622	176.910	12.598425	-57.245000	176.830	-0.140	-0.440	1.140	176.910	-1.900	1.500																			1580027182.0	9.16	16.96
26/01/2020 08:26:23	26012020	260120	082623	176.680	12.598383	-57.245003	176.590	-0.320	0.170	1.680	176.680	-1.300	2.100																			1580027183.0	8.87	16.43
26/01/2020 08:26:24	26012020	260120	082624	176.390	12.598343	-57.245007	176.290	-0.350	0.530	1.890	176.390	-0.900	2.300																			1580027184.0	8.83	16.35
26/01/2020 08:26:25	26012020	260120	082625	176.110	12.598300	-57.245008	176.030	-0.240	0.490	1.880	176.110	-0.900	2.300																			1580027185.0	9.14	16.93
26/01/2020 08:26:26	26012020	260120	082626	176.050	12.598257	-57.245008	175.980	-0.090	0.300	1.480	176.050	-1.100	1.900																			1580027186.0	9.37	17.35
26/01/2020 08:26:27	26012020	260120	082627	176.120	12.598213	-57.245008	176.060	0.030	0.080	0.930	176.120	-1.300	1.400																			1580027187.0	9.18	17.00
26/01/2020 08:26:28	26012020	260120	082628	176.200	12.598172	-57.245007	176.140	0.110	-0.220	0.560	176.200	-1.600	1.000																			1580027188.0	9.06	16.78
26/01/2020 08:26:29	26012020	260120	082629	176.210	12.598130	-57.245005	176.150	0.150	-0.490	0.440	176.210	-1.900	0.900																			1580027189.0	9.00	16.67
26/01/2020 08:26:30	26012020	260120	082630	176.210	12.598088	-57.245005	176.150	0.170	-0.620	0.460	176.210	-2.000	0.900																			1580027190.0	8.93	16.54
26/01/2020 08:26:31	26012020	260120	082631	176.270	12.598047	-57.245005	176.240	0.140	-0.640	0.540	176.270	-2.000	1.000																			1580027191.0	8.86	16.41
26/01/2020 08:26:32	26012020	260120	082632	176.420	12.598007	-57.245007	176.400	0.070	-0.560	0.680	176.420	-2.000	1.100																			1580027192.0	8.90	16.48
26/01/2020 08:26:33	26012020	260120	082633	176.580	12.597965	-57.245007	176.620	0.000	-0.280	0.720	176.620	-1.700	1.200																			1580027193.0	8.86	16.41
26/01/2020 08:26:34	26012020	260120	082634	176.780	12.597925	-57.245008	176.740	0.020	-0.030	0.700	176.780	-1.400	1.100																			1580027194.0	8.72	16.15
26/01/2020 08:26:35	26012020	260120	082635	176.850	12.597883	-57.245007	176.810	0.120	0.000	0.620	176.850	-1.400	1.100																			1580027195.0	8.91	16.50
26/01/2020 08:26:36	26012020	260120	082636	176.860	12.597840	-57.245005	176.820	0.170	-0.060	0.500	176.860	-1.400	0.900																			1580027196.0	9.14	16.93
26/01/2020 08:26:37	26012020	260120	082637	176.790	12.597798	-57.245003	176.730	0.110	-0.090	0.530	176.790	-1.500	1.000																			1580027197.0	9.15	16.95
26/01/2020 08:26:38	26012020	260120	082638	176.550	12.597757	-57.245003	176.450	0.020	-0.100	0.690	176.550	-1.500	1.100																			1580027198.0	9.04	16.74
26/01/2020 08:26:39	26012020	260120	082639	176.160	12.597713	-57.245002	176.060	-0.050	-0.200	1.000	176.160	-1.600	1.400																			1580027199.0	9.05	16.76
26/01/2020 08:26:40	26012020	260120	082640	175.750	12.597672	-57.245003	175.670	-0.150	-0.350	1.410	175.750	-1.700	1.800																			1580027200.0	9.20	17.04
26/01/2020 08:26:41	26012020	260120	082641	175.520	12.597628	-57.245007	175.470	-0.270	-0.370	1.640	175.520	-1.800	2.100																			1580027201.0	9.26	17.15
26/01/2020 08:26:42	26012020	260120	082642	175.490	12.597587	-57.245010	175.470	-0.350	-0.250	1.520	175.490	-1.600	2.000																			1580027202.0	9.07	16.80
26/01/2020 08:26:43	26012020	260120	082643	175.630	12.597545	-57.245012	175.620	-0.330	-0.150	1.140	175.630	-1.500	1.600																			1580027203.0	8.91	16.50
26/01/2020 08:26:44	26012020	260120	082644	175.900	12.597503	-57.245012	175.890	-0.190	-0.170	0.670	175.900	-1.600	1.100																			1580027204.0	8.95	16.58
26/01/2020 08:26:45	26012020	260120	082645	176.180	12.597462	-57.245010	176.220	0.030	-0.230	0.200	176.240	-1.600	0.700																			1580027205.0	9.02	16.71
26/01/2020 08:26:46	26012020	260120	082646	176.490	12.597418	-57.245007	176.430	0.250	-0.310	-0.080	176.490	-1.700	0.400																			1580027206.0	9.04	16.74
26/01/2020 08:26:47	26012020	260120	082647	176.570	12.597377	-57.245003	176.540	0.310	-0.350	0.080	176.590	-1.700	0.500																			1580027207.0	9.12	16.89
26/01/2020 08:26:48	26012020	260120	082648	176.630	12.597335	-57.245003	176.580	0.140	-0.220	0.550	176.630	-1.600	0.900																			1580027208.0	9.09	16.83
26/01/2020 08:26:49	26012020	260120	082649	176.660	12.597293	-57.245005	176.620	-0.090	0.110	0.940	176.660	-1.300	1.300																			1580027209.0	8.88	16.45
26/01/2020 08:26:50	26012020	260120	082650	176.600	12.597253	-57.245007	176.530	-0.140	0.300	1.230	176.600	-1.100	1.600																			1580027210.0	8.72	16.15
26/01/2020 08:26:51	26012020	260120	082651	176.430	12.597212	-57.245008	176.350	0.050	0.200	1.410	176.430	-1.200	1.800																			1580027211.0	8.92	16.52
26/01/2020 08:26:52	26012020	260120	082652	176.220	12.597168	-57.245008	176.140	0.290	-0.090	1.360	176.220	-1.500	1.800																			1580027212.0	9.14	16.93
26/01/2020 08:26:53	26012020	260120	082653	175.940	12.597127	-57.245008	175.840	0.390	-0.360	1.250	175.940	-1.700	1.700																			1580027213.0	9.18	17.00
26/01/2020 08:26:54	26012020	260120	082654	175.650	12.597083	-57.245007	175.560	0.270	-0.460	1.150	175.650	-1.900	1.600																			1580027214.0	9.07	16.80
26/01/2020 08:26:55	26012020	260120	082655	175.490	12.597043	-57.245007	175.430	-0.000	-0.410	1.030	175.490	-1.800	1.500																			1580027215.0	8.87	16.43
26/01/2020 08:26:56	26012020	260120	082656	175.570	12.597002	-57.245007	175.530	-0.270	-0.280	0.870	175.570	-1.700	1.300																			1580027216.0	8.73	16.17
26/01/2020 08:26:57	26012020	260120	082657	175.760	12.596962	-57.245008	175.730	-0.300	-0.310	0.700	175.760	-1.700	1.100																			1580027217.0	8.75	16.21
26/01/2020 08:26:58	26012020	260120	082658	176.000	12.596920	-57.245010	175.980	-0.080	-0.520	0.480	176.000	-1.900	0.900																			1580027218.0	9.06	16.78
26/01/2020 08:26:59	26012020	260120	082659	176.330	12.596877	-57.245008	176.320	0.120	-0.650	0.190	176.330	-2.000	0.600																			1580027219.0	9.26	17.15
26/01/2020 08:27:00	26012020	260120	082700	176.650	12.596833	-57.245007	176.620	0.060	-0.570	0.150	176.650	-2.000	0.600	1013.70	25.60	25.70	19.60	19.80	-1.00	69.00	69.00	426.00	25.30	313.00	9.00	100.00	6.70	15	3236.00	27.40	27.40	1580027220.0	9.14	16.93
26/01/2020 08:27:01	26012020	260120	082701	176.710	12.596792	-57.245007	176.630	-0.160	-0.470	0.470	176.710	-1.900	0.900																			1580027221.0	9.04	16.74
26/01/2020 08:27:02	26012020	260120	082702	176.490	12.596748	-57.245007	176.400	-0.350	-0.370	0.960	176.490	-1.800	1.400																			1580027222.0	9.25	17.13
26/01/2020 08:27:03	26012020	260120	082703	176.270	12.596705	-57.245008	176.200	-0.440	0.020	1.340	176.270	-1.400	1.700																			1580027223.0	9.32	17.26
26/01/2020 08:27:04	26012020	260120	082704	176.160	12.596663	-57.245010	176.100	-0.430	0.600	1.470	176.160	-0.800	1.900																			1580027224.0	8.94	16.56
26/01/2020 08:27:05	26012020	260120	082705	176.080	12.596623	-57.245010	176.020	-0.270	0.880	1.350	176.080	-0.500	1.800																			1580027225.0	8.72	16.15
26/01/2020 08:27:06	26012020	260120	082706	176.000	12.596582	-57.245012	175.920	0.060	0.640	1.140	176.000	-0.700	1.600																			1580027226.0	8.97	16.61
26/01/2020 08:27:07	26012020	260120	082707	175.880	12.596538	-57.245010	175.780	0.460	0.140	0.980	175.880	-1.200	1.400																			1580027227.0	9.24	17.11
26/01/2020 08:27:08	26012020	260120	082708	175.750	12.596497	-57.245008	175.670	0.740	-0.230	0.850	175.750	-1.600	1.300																			1580027228.0	9.20	17.04
26/01/2020 08:27:09	26012020	260120	082709	175.700	12.596455	-57.245007	175.650	0.720	-0.320	0.720	175.700	-1.700	1.200																			1580027229.0	8.80	16.30
26/01/2020 08:27:10	26012020	260120	082710	175.720	12.596415	-57.245005	175.670	0.480	-0.420	0.710	175.720	-1.800	1.100																			1580027230.0	8.48	15.70
26/01/2020 08:27:11	26012020	260120	082711	175.790	12.596375	-57.245007	175.770	0.250	-0.730	0.730	175.790	-2.100	1.200																			1580027231.0	8.64	16.00
26/01/2020 08:27:12	26012020	260120	082712	175.900	12.596333	-57.245007	175.870	0.110	-1.060	0.830	175.900	-2.400	1.300																			1580027232.0	9.00	16.67
26/01/2020 08:27:13	26012020	260120	082713	176.020	12.596292	-57.245008	176.020	-0.040	-1.090	0.930	176.020	-2.500	1.400																			1580027233.0	9.14	16.93
26/01/2020 08:27:14	26012020	260120	082714	176.190	12.596250	-57.245010	176.180	-0.250	-0.810	0.980	176.190	-2.200	1.400																			1580027234.0	8.94	16.56
26/01/2020 08:27:15	26012020	260120	082715	176.230	12.596208	-57.245012	176.190	-0.420	-0.560	1.090	176.230	-2.000	1.500																			1580027235.0	8.89	16.46
26/01/2020 08:27:16	26012020	260120	082716	176.100	12.596165	-57.245012	176.040	-0.500	-0.440	1.320	176.100	-1.800	1.700																			1580027236.0	9.24	17.11
26/01/2020 08:27:17	26012020	260120	082717	175.860	12.596122	-57.245012	175.790	-0.510	-0.240	1.560	175.860	-1.700	2.000																			1580027237.0	9.53	17.65
26/01/2020 08:27:18	26012020	260120	082718	175.670	12.596077	-57.245012	175.620	-0.510	0.260	1.620	175.670	-1.200	2.100																			1580027238.0	9.43	17.46
26/01/2020 08:27:19	26012020	260120	082719	175.660	12.596035	-57.245012	175.630	-0.490	0.930	1.360	175.660	-0.500	1.800																			1580027239.0	8.99	16.65
26/01/2020 08:27:20	26012020	260120	082720	175.760	12.595995	-57.245010	175.720	-0.320	1.220	1.030	175.760	-0.200	1.500																			1580027240.0	8.68	16.08
26/01/2020 08:27:21	26012020	260120	082721	175.740	12.595953	-57.245008	175.670	0.080	0.790	0.780	175.740	-0.600	1.200																			1580027241.0	9.00	16.67
26/01/2020 08:27:22	26012020	260120	082722	175.710	12.595910	-57.245007	175.660	0.550	0.130	0.590	175.710	-1.200	1.000																			1580027242.0	9.45	17.50
26/01/2020 08:27:23	26012020	260120	082723	175.740	12.595867	-57.245005	175.730	0.820	-0.250	0.530	175.760	-1.600	1.000																			1580027243.0	9.21	17.06
26/01/2020 08:27:24	26012020	260120	082724	175.900	12.595827	-57.245003	175.890	0.790	-0.340	0.570	175.900	-1.700	1.000																			1580027244.0	8.66	16.04
26/01/2020 08:27:25	26012020	260120	082725	176.100	12.595787	-57.245003	176.080	0.550	-0.500	0.740	176.100	-1.900	1.200																			1580027245.0	8.35	15.46
26/01/2020 08:27:26	26012020	260120	082726	176.140	12.595747	-57.245005	176.090	0.300	-0.920	1.080	176.140	-2.300	1.500																			1580027246.0	8.58	15.89
26/01/2020 08:27:27	26012020	260120	082727	176.000	12.595705	-57.245007	175.910	0.130	-1.420	1.410	176.000	-2.800	1.800																			1580027247.0	9.08	16.82
26/01/2020 08:27:28	26012020	260120	082728	175.750	12.595662	-57.245008	175.660	-0.020	-1.520	1.630	175.750	-2.900	2.000																			1580027248.0	9.35	17.32
26/01/2020 08:27:29	26012020	260120	082729	175.570	12.595620	-57.245010	175.510	-0.270	-0.990	1.690	175.570	-2.400	2.100																			1580027249.0	9.12	16.89
26/01/2020 08:27:30	26012020	260120	082730	175.570	12.595578	-57.245010	175.530	-0.580	-0.150	1.520	175.570	-1.600	2.000																			1580027250.0	8.75	16.21
26/01/2020 08:27:31	26012020	260120	082731	175.680	12.595538	-57.245010	175.630	-0.790	0.450	1.310	175.680	-1.000	1.800																			1580027251.0	8.69	16.09
26/01/2020 08:27:32	26012020	260120	082732	175.730	12.595495	-57.245010	175.680	-0.720	0.540	1.070	175.730	-0.800	1.500																			1580027252.0	9.15	16.95
26/01/2020 08:27:33	26012020	260120	082733	175.830	12.595452	-57.245010	175.790	-0.390	0.400	0.640	175.830	-1.000	1.100																			1580027253.0	9.56	17.71
26/01/2020 08:27:34	26012020	260120	082734	175.960	12.595407	-57.245008	175.920	-0.010	0.330	0.280	175.960	-1.100	0.700																			1580027254.0	9.50	17.59
26/01/2020 08:27:35	26012020	260120	082735	176.080	12.595365	-57.245005	176.050	0.220	0.400	0.160	176.110	-1.000	0.600																			1580027255.0	9.13	16.91
26/01/2020 08:27:36	26012020	260120	082736	176.170	12.595323	-57.245003	176.090	0.290	0.360	0.310	176.170	-1.000	0.700																			1580027256.0	8.76	16.22
26/01/2020 08:27:37	26012020	260120	082737	176.100	12.595283	-57.245003	175.980	0.340	-0.020	0.640	176.060	-1.400	1.000																			1580027257.0	8.85	16.39
26/01/2020 08:27:38	26012020	260120	082738	175.900	12.595240	-57.245003	175.830	0.390	-0.440	1.040	175.900	-1.800	1.400																			1580027258.0	9.12	16.89
26/01/2020 08:27:39	26012020	260120	082739	175.830	12.595198	-57.245005	175.770	0.350	-0.530	1.360	175.830	-1.900	1.800																			1580027259.0	9.02	16.71
26/01/2020 08:27:40	26012020	260120	082740	175.860	12.595158	-57.245007	175.820	0.200	-0.360	1.380	175.860	-1.800	1.800																			1580027260.0	8.59	15.91
26/01/2020 08:27:41	26012020	260120	082741	175.840	12.595120	-57.245007	175.760	0.080	-0.430	1.280	175.840	-1.800	1.700																			1580027261.0	8.47	15.69
26/01/2020 08:27:42	26012020	260120	082742	175.690	12.595078	-57.245007	175.620	0.070	-0.760	1.210	175.690	-2.100	1.600																			1580027262.0	8.96	16.59
26/01/2020 08:27:43	26012020	260120	082743	175.620	12.595035	-57.245005	175.550	0.050	-0.930	1.130	175.620	-2.300	1.600																			1580027263.0	9.25	17.13
26/01/2020 08:27:44	26012020	260120	082744	175.530	12.594992	-57.245005	175.450	-0.060	-0.800	1.090	175.530	-2.200	1.500																			1580027264.0	9.14	16.93
26/01/2020 08:27:45	26012020	260120	082745	175.400	12.594950	-57.245005	175.330	-0.250	-0.430	1.050	175.400	-1.800	1.500																			1580027265.0	9.01	16.69
26/01/2020 08:27:46	26012020	260120	082746	175.350	12.594908	-57.245005	175.300	-0.440	0.040	1.040	175.350	-1.400	1.500																			1580027266.0	8.90	16.48
26/01/2020 08:27:47	26012020	260120	082747	175.410	12.594867	-57.245007	175.380	-0.470	0.370	0.970	175.410	-1.000	1.400																			1580027267.0	8.92	16.52
26/01/2020 08:27:48	26012020	260120	082748	175.560	12.594825	-57.245005	175.540	-0.280	0.500	0.790	175.560	-0.900	1.200																			1580027268.0	9.03	16.72
26/01/2020 08:27:49	26012020	260120	082749	175.660	12.594783	-57.245005	175.610	0.030	0.350	0.760	175.660	-1.000	1.200																			1580027269.0	9.13	16.91
26/01/2020 08:27:50	26012020	260120	082750	175.680	12.594740	-57.245003	175.650	0.280	0.030	0.880	175.680	-1.300	1.300																			1580027270.0	9.30	17.22
26/01/2020 08:27:51	26012020	260120	082751	175.680	12.594697	-57.245002	175.650	0.260	-0.160	1.110	175.680	-1.500	1.500																			1580027271.0	9.26	17.15
26/01/2020 08:27:52	26012020	260120	082752	175.610	12.594655	-57.245003	175.560	0.070	-0.180	1.490	175.610	-1.600	1.900																			1580027272.0	8.94	16.56
26/01/2020 08:27:53	26012020	260120	082753	175.470	12.594613	-57.245005	175.420	-0.000	-0.220	1.650	175.470	-1.600	2.100																			1580027273.0	8.81	16.32
26/01/2020 08:27:54	26012020	260120	082754	175.440	12.594573	-57.245007	175.400	0.110	-0.230	1.460	175.440	-1.600	1.900																			1580027274.0	8.80	16.30
26/01/2020 08:27:55	26012020	260120	082755	175.500	12.594533	-57.245005	175.470	0.240	-0.230	1.140	175.500	-1.600	1.600																			1580027275.0	8.70	16.11
26/01/2020 08:27:56	26012020	260120	082756	175.580	12.594492	-57.245003	175.540	0.250	-0.370	0.750	175.580	-1.700	1.200																			1580027276.0	8.71	16.13
26/01/2020 08:27:57	26012020	260120	082757	175.610	12.594450	-57.245000	175.560	0.170	-0.630	0.420	175.610	-2.000	0.900																			1580027277.0	8.93	16.54
26/01/2020 08:27:58	26012020	260120	082758	175.650	12.594408	-57.244997	175.610	0.020	-0.770	0.370	175.650	-2.100	0.800																			1580027278.0	9.11	16.87
26/01/2020 08:27:59	26012020	260120	082759	175.720	12.594367	-57.244997	175.670	-0.120	-0.730	0.600	175.720	-2.100	1.000																			1580027279.0	9.05	16.76
26/01/2020 08:28:00	26012020	260120	082800	175.740	12.594325	-57.244997	175.690	-0.180	-0.620	0.830	175.740	-2.000	1.200	1013.70	25.60	25.70	19.70	19.80	-1.00	69.00	69.00	428.00	25.30	311.00	9.50	99.00	7.30	14	3292.00	27.40	27.40	1580027280.0	9.08	16.82
26/01/2020 08:28:01	26012020	260120	082801	175.780	12.594282	-57.244998	175.740	-0.190	-0.330	0.990	175.780	-1.700	1.400																			1580027281.0	9.14	16.93
26/01/2020 08:28:02	26012020	260120	082802	175.840	12.594240	-57.244998	175.800	-0.210	0.070	1.050	175.840	-1.300	1.500																			1580027282.0	9.01	16.69
26/01/2020 08:28:03	26012020	260120	082803	175.850	12.594198	-57.244998	175.810	-0.230	0.310	1.000	175.850	-1.100	1.400																			1580027283.0	9.00	16.67
26/01/2020 08:28:04	26012020	260120	082804	175.790	12.594155	-57.244997	175.750	-0.280	0.370	1.050	175.790	-1.000	1.500																			1580027284.0	9.17	16.98
26/01/2020 08:28:05	26012020	260120	082805	175.730	12.594113	-57.244997	175.700	-0.340	0.480	1.160	175.730	-0.900	1.600																			1580027285.0	9.16	16.96
26/01/2020 08:28:06	26012020	260120	082806	175.690	12.594072	-57.244998	175.650	-0.280	0.590	1.130	175.690	-0.800	1.600																			1580027286.0	8.87	16.43
26/01/2020 08:28:07	26012020	260120	082807	175.560	12.594030	-57.245000	175.490	0.010	0.340	1.040	175.560	-1.000	1.500																			1580027287.0	8.79	16.28
26/01/2020 08:28:08	26012020	260120	082808	175.370	12.593988	-57.245000	175.320	0.460	-0.180	0.880	175.370	-1.500	1.300																			1580027288.0	9.09	16.83
26/01/2020 08:28:09	26012020	260120	082809	175.390	12.593947	-57.244998	175.360	0.750	-0.480	0.530	175.390	-1.900	1.000																			1580027289.0	9.06	16.78
26/01/2020 08:28:10	26012020	260120	082810	175.580	12.593907	-57.244997	175.560	0.680	-0.610	0.230	175.580	-2.000	0.700																			1580027290.0	8.65	16.02
26/01/2020 08:28:11	26012020	260120	082811	175.720	12.593867	-57.244995	175.670	0.380	-0.880	0.220	175.720	-2.200	0.600																			1580027291.0	8.57	15.87
26/01/2020 08:28:12	26012020	260120	082812	175.730	12.593825	-57.244995	175.690	0.090	-1.230	0.490	175.730	-2.600	0.900																			1580027292.0	8.96	16.59
26/01/2020 08:28:13	26012020	260120	082813	175.710	12.593782	-57.244995	175.670	-0.080	-1.320	0.860	175.710	-2.700	1.300																			1580027293.0	9.23	17.09
26/01/2020 08:28:14	26012020	260120	082814	175.770	12.593738	-57.244997	175.770	-0.220	-0.950	1.000	175.770	-2.400	1.400																			1580027294.0	9.21	17.06
26/01/2020 08:28:15	26012020	260120	082815	176.050	12.593697	-57.244995	176.080	-0.510	-0.220	0.970	176.050	-1.700	1.400																			1580027295.0	8.95	16.58
26/01/2020 08:28:16	26012020	260120	082816	176.450	12.593657	-57.244995	176.470	-0.800	0.450	0.970	176.450	-1.000	1.400																			1580027296.0	8.75	16.21
26/01/2020 08:28:17	26012020	260120	082817	176.610	12.593615	-57.244995	176.560	-0.780	0.630	1.060	176.610	-0.700	1.500																			1580027297.0	8.97	16.61
26/01/2020 08:28:18	26012020	260120	082818	176.390	12.593570	-57.244995	176.290	-0.370	0.420	1.290	176.390	-0.900	1.700																			1580027298.0	9.50	17.59
26/01/2020 08:28:19	26012020	260120	082819	176.010	12.593525	-57.244995	175.930	0.090	0.350	1.550	176.010	-1.000	2.000																			1580027299.0	9.69	17.95
26/01/2020 08:28:20	26012020	260120	082820	175.740	12.593483	-57.244995	175.670	0.230	0.620	1.630	175.740	-0.800	2.100																			1580027300.0	9.17	16.98
26/01/2020 08:28:21	26012020	260120	082821	175.610	12.593443	-57.244997	175.560	0.100	0.830	1.530	175.610	-0.600	2.000																			1580027301.0	8.53	15.80
26/01/2020 08:28:22	26012020	260120	082822	175.550	12.593405	-57.244998	175.510	0.060	0.530	1.340	175.550	-0.800	1.800																			1580027302.0	8.46	15.67
26/01/2020 08:28:23	26012020	260120	082823	175.500	12.593363	-57.244998	175.470	0.360	-0.190	1.080	175.500	-1.500	1.500																			1580027303.0	8.81	16.32
26/01/2020 08:28:24	26012020	260120	082824	175.510	12.593322	-57.245000	175.480	0.820	-0.930	0.670	175.510	-2.300	1.100																			1580027304.0	9.05	16.76
26/01/2020 08:28:25	26012020	260120	082825	175.620	12.593280	-57.244997	175.640	1.020	-1.370	0.230	175.660	-2.700	0.700																			1580027305.0	8.96	16.59
26/01/2020 08:28:26	26012020	260120	082826	175.900	12.593238	-57.244993	175.890	0.680	-1.430	0.080	175.900	-2.800	0.500																			1580027306.0	8.74	16.19
26/01/2020 08:28:27	26012020	260120	082827	176.110	12.593198	-57.244993	176.150	-0.020	-1.230	0.300	176.160	-2.600	0.700																			1580027307.0	8.64	16.00
26/01/2020 08:28:28	26012020	260120	082828	176.350	12.593158	-57.244995	176.330	-0.620	-0.970	0.740	176.350	-2.400	1.100																			1580027308.0	8.79	16.28
26/01/2020 08:28:29	26012020	260120	082829	176.470	12.593115	-57.244998	176.470	-0.830	-0.660	1.160	176.470	-2.100	1.600																			1580027309.0	9.15	16.95
26/01/2020 08:28:30	26012020	260120	082830	176.610	12.593072	-57.245002	176.590	-0.740	-0.140	1.360	176.610	-1.600	1.800																			1580027310.0	9.29	17.21
26/01/2020 08:28:31	26012020	260120	082831	176.720	12.593030	-57.245000	176.680	-0.530	0.420	1.250	176.720	-1.000	1.700																			1580027311.0	9.15	16.95
26/01/2020 08:28:32	26012020	260120	082832	176.830	12.592987	-57.244998	176.770	-0.340	0.740	1.020	176.830	-0.700	1.500																			1580027312.0	9.17	16.98
26/01/2020 08:28:33	26012020	260120	082833	176.870	12.592945	-57.244995	176.800	-0.240	0.810	0.940	176.870	-0.600	1.400																			1580027313.0	9.27	17.17
26/01/2020 08:28:34	26012020	260120	082834	176.710	12.592902	-57.244995	176.590	-0.160	0.700	1.110	176.710	-0.700	1.500																			1580027314.0	9.20	17.04
26/01/2020 08:28:35	26012020	260120	082835	176.270	12.592858	-57.244995	176.130	0.060	0.410	1.450	176.270	-0.900	1.900																			1580027315.0	9.15	16.95
26/01/2020 08:28:36	26012020	260120	082836	175.840	12.592817	-57.244998	175.750	0.330	0.170	1.640	175.840	-1.200	2.100																			1580027316.0	9.14	16.93
26/01/2020 08:28:37	26012020	260120	082837	175.680	12.592775	-57.245000	175.630	0.500	0.050	1.550	175.680	-1.300	2.000																			1580027317.0	8.81	16.32
26/01/2020 08:28:38	26012020	260120	082838	175.700	12.592737	-57.245000	175.670	0.540	-0.150	1.250	175.700	-1.500	1.700																			1580027318.0	8.52	15.78
26/01/2020 08:28:39	26012020	260120	082839	175.830	12.592697	-57.245002	175.810	0.520	-0.490	0.820	175.830	-1.800	1.300																			1580027319.0	8.56	15.85
26/01/2020 08:28:40	26012020	260120	082840	176.050	12.592657	-57.245000	176.020	0.430	-0.800	0.400	176.050	-2.200	0.900																			1580027320.0	8.64	16.00
26/01/2020 08:28:41	26012020	260120	082841	176.220	12.592615	-57.245000	176.160	0.310	-1.090	0.210	176.220	-2.400	0.600																			1580027321.0	8.67	16.06
26/01/2020 08:28:42	26012020	260120	082842	176.340	12.592575	-57.245000	176.310	0.180	-1.330	0.120	176.340	-2.700	0.600																			1580027322.0	8.92	16.52
26/01/2020 08:28:43	26012020	260120	082843	176.530	12.592532	-57.245000	176.510	-0.020	-1.260	0.130	176.530	-2.600	0.600																			1580027323.0	9.08	16.82
26/01/2020 08:28:44	26012020	260120	082844	176.660	12.592490	-57.245000	176.620	-0.290	-0.870	0.390	176.660	-2.300	0.800																			1580027324.0	9.01	16.69
26/01/2020 08:28:45	26012020	260120	082845	176.600	12.592448	-57.245000	176.530	-0.500	-0.370	0.800	176.600	-1.800	1.200																			1580027325.0	8.99	16.65
26/01/2020 08:28:46	26012020	260120	082846	176.430	12.592405	-57.245000	176.390	-0.600	0.100	1.220	176.430	-1.300	1.600																			1580027326.0	9.17	16.98
26/01/2020 08:28:47	26012020	260120	082847	176.300	12.592363	-57.245002	176.250	-0.630	0.570	1.520	176.300	-0.800	1.900																			1580027327.0	9.27	17.17
26/01/2020 08:28:48	26012020	260120	082848	176.130	12.592320	-57.245002	176.060	-0.570	0.940	1.640	176.130	-0.400	2.100																			1580027328.0	9.15	16.95
26/01/2020 08:28:49	26012020	260120	082849	175.910	12.592278	-57.245002	175.840	-0.340	0.990	1.600	175.910	-0.400	2.000																			1580027329.0	9.07	16.80
26/01/2020 08:28:50	26012020	260120	082850	175.670	12.592235	-57.245003	175.590	0.080	0.640	1.490	175.670	-0.700	1.900																			1580027330.0	9.21	17.06
26/01/2020 08:28:51	26012020	260120	082851	175.410	12.592192	-57.245002	175.340	0.450	0.210	1.340	175.410	-1.100	1.800																			1580027331.0	9.28	17.19
26/01/2020 08:28:52	26012020	260120	082852	175.220	12.592150	-57.245002	175.190	0.610	-0.040	1.210	175.220	-1.400	1.700																			1580027332.0	8.98	16.63
26/01/2020 08:28:53	26012020	260120	082853	175.260	12.592110	-57.245002	175.260	0.550	-0.140	0.980	175.260	-1.500	1.400																			1580027333.0	8.58	15.89
26/01/2020 08:28:54	26012020	260120	082854	175.490	12.592072	-57.245002	175.480	0.420	-0.310	0.740	175.490	-1.700	1.200																			1580027334.0	8.33	15.43
26/01/2020 08:28:55	26012020	260120	082855	175.660	12.592032	-57.245003	175.620	0.370	-0.780	0.660	175.660	-2.100	1.100																			1580027335.0	8.49	15.72
26/01/2020 08:28:56	26012020	260120	082856	175.750	12.591990	-57.245003	175.720	0.400	-1.330	0.570	175.750	-2.700	1.000																			1580027336.0	8.94	16.56
26/01/2020 08:28:57	26012020	260120	082857	175.860	12.591948	-57.245003	175.840	0.330	-1.510	0.490	175.860	-2.900	0.900																			1580027337.0	9.12	16.89
26/01/2020 08:28:58	26012020	260120	082858	176.000	12.591907	-57.245002	175.970	0.040	-1.200	0.600	176.000	-2.600	1.000																			1580027338.0	8.90	16.48
26/01/2020 08:28:59	26012020	260120	082859	176.060	12.591865	-57.245002	176.030	-0.370	-0.680	0.940	176.060	-2.100	1.300																			1580027339.0	8.78	16.26
26/01/2020 08:29:00	26012020	260120	082900	176.050	12.591825	-57.245002	176.000	-0.680	-0.130	1.280	176.050	-1.500	1.700	1013.70	25.60	25.70	19.40	19.50	-1.00	68.00	68.00	429.00	25.30	308.00	9.70	96.00	7.70	15	3340.00	27.40	27.40	1580027340.0	8.92	16.52
26/01/2020 08:29:01	26012020	260120	082901	175.930	12.591782	-57.245003	175.870	-0.770	0.310	1.600	175.930	-1.100	2.000																			1580027341.0	9.07	16.80
26/01/2020 08:29:02	26012020	260120	082902	175.690	12.591738	-57.245005	175.620	-0.610	0.550	1.840	175.690	-0.800	2.300																			1580027342.0	9.30	17.22
26/01/2020 08:29:03	26012020	260120	082903	175.480	12.591695	-57.245005	175.430	-0.310	0.700	1.740	175.480	-0.700	2.200																			1580027343.0	9.39	17.39
26/01/2020 08:29:04	26012020	260120	082904	175.460	12.591653	-57.245003	175.440	-0.020	0.810	1.400	175.460	-0.600	1.900																			1580027344.0	9.18	17.00
26/01/2020 08:29:05	26012020	260120	082905	175.560	12.591612	-57.245002	175.550	0.200	0.720	0.960	175.560	-0.600	1.400																			1580027345.0	8.91	16.50
26/01/2020 08:29:06	26012020	260120	082906	175.670	12.591570	-57.244998	175.650	0.370	0.320	0.640	175.670	-1.000	1.100																			1580027346.0	8.86	16.41
26/01/2020 08:29:07	26012020	260120	082907	175.690	12.591528	-57.244997	175.650	0.480	-0.270	0.620	175.690	-1.600	1.000																			1580027347.0	8.92	16.52
26/01/2020 08:29:08	26012020	260120	082908	175.570	12.591487	-57.244998	175.510	0.500	-0.830	0.860	175.570	-2.200	1.300																			1580027348.0	8.96	16.59
26/01/2020 08:29:09	26012020	260120	082909	175.390	12.591445	-57.245000	175.320	0.410	-1.130	1.150	175.390	-2.500	1.600																			1580027349.0	8.93	16.54
26/01/2020 08:29:10	26012020	260120	082910	175.280	12.591405	-57.245002	175.240	0.240	-1.080	1.230	175.280	-2.500	1.700																			1580027350.0	8.79	16.28
26/01/2020 08:29:11	26012020	260120	082911	175.340	12.591365	-57.245002	175.330	0.010	-0.790	1.100	175.340	-2.200	1.500																			1580027351.0	8.62	15.96
26/01/2020 08:29:12	26012020	260120	082912	175.490	12.591325	-57.245002	175.480	-0.190	-0.450	0.910	175.490	-1.800	1.400																			1580027352.0	8.63	15.98
26/01/2020 08:29:13	26012020	260120	082913	175.630	12.591283	-57.245002	175.600	-0.320	-0.220	0.710	175.630	-1.600	1.200																			1580027353.0	8.82	16.33
26/01/2020 08:29:14	26012020	260120	082914	175.740	12.591242	-57.245000	175.700	-0.380	-0.060	0.600	175.740	-1.400	1.000																			1580027354.0	9.07	16.80
26/01/2020 08:29:15	26012020	260120	082915	175.870	12.591198	-57.244998	175.840	-0.410	0.150	0.590	175.870	-1.200	1.000																			1580027355.0	9.13	16.91
26/01/2020 08:29:16	26012020	260120	082916	175.970	12.591157	-57.244998	175.920	-0.350	0.340	0.620	175.970	-1.000	1.100																			1580027356.0	8.99	16.65
26/01/2020 08:29:17	26012020	260120	082917	175.980	12.591115	-57.244998	175.890	-0.140	0.340	0.750	175.960	-1.000	1.200																			1580027357.0	8.94	16.56
26/01/2020 08:29:18	26012020	260120	082918	175.820	12.591073	-57.244998	175.750	0.190	0.100	1.000	175.820	-1.300	1.400																			1580027358.0	9.09	16.83
26/01/2020 08:29:19	26012020	260120	082919	175.650	12.591030	-57.244997	175.570	0.410	-0.200	1.230	175.650	-1.600	1.700																			1580027359.0	9.23	17.09
26/01/2020 08:29:20	26012020	260120	082920	175.500	12.590988	-57.244997	175.430	0.350	-0.330	1.360	175.500	-1.700	1.800																			1580027360.0	9.10	16.85
26/01/2020 08:29:21	26012020	260120	082921	175.370	12.590947	-57.244997	175.310	0.080	-0.320	1.450	175.370	-1.700	1.900																			1580027361.0	8.84	16.37
26/01/2020 08:29:22	26012020	260120	082922	175.260	12.590907	-57.244997	175.200	-0.140	-0.360	1.390	175.260	-1.700	1.800																			1580027362.0	8.77	16.24
26/01/2020 08:29:23	26012020	260120	082923	175.240	12.590865	-57.244997	175.190	-0.180	-0.430	1.140	175.240	-1.800	1.600																			1580027363.0	8.89	16.46
26/01/2020 08:29:24	26012020	260120	082924	175.320	12.590823	-57.244997	175.290	-0.070	-0.480	0.800	175.320	-1.900	1.300																			1580027364.0	8.98	16.63
26/01/2020 08:29:25	26012020	260120	082925	175.510	12.590782	-57.244995	175.480	0.070	-0.390	0.490	175.510	-1.800	0.900																			1580027365.0	8.97	16.61
26/01/2020 08:29:26	26012020	260120	082926	175.660	12.590740	-57.244993	175.620	0.100	-0.200	0.340	175.660	-1.600	0.800																			1580027366.0	8.86	16.41
26/01/2020 08:29:27	26012020	260120	082927	175.790	12.590698	-57.244992	175.750	-0.020	0.010	0.410	175.790	-1.400	0.800																			1580027367.0	8.82	16.33
26/01/2020 08:29:28	26012020	260120	082928	175.900	12.590658	-57.244992	175.860	-0.190	0.150	0.660	175.900	-1.200	1.100																			1580027368.0	8.81	16.32
26/01/2020 08:29:29	26012020	260120	082929	175.950	12.590617	-57.244993	175.900	-0.230	0.090	0.880	175.950	-1.300	1.300																			1580027369.0	8.93	16.54
26/01/2020 08:29:30	26012020	260120	082930	175.930	12.590575	-57.244995	175.860	-0.060	-0.080	1.000	175.930	-1.400	1.400																			1580027370.0	9.08	16.82
26/01/2020 08:29:31	26012020	260120	082931	175.840	12.590532	-57.244995	175.790	0.170	-0.210	1.060	175.840	-1.600	1.500																			1580027371.0	9.11	16.87
26/01/2020 08:29:32	26012020	260120	082932	175.820	12.590490	-57.244993	175.750	0.240	-0.190	0.970	175.820	-1.600	1.400																			1580027372.0	8.92	16.52
26/01/2020 08:29:33	26012020	260120	082933	175.750	12.590450	-57.244992	175.660	0.130	-0.190	0.830	175.750	-1.600	1.300																			1580027373.0	8.72	16.15
26/01/2020 08:29:34	26012020	260120	082934	175.610	12.590408	-57.244992	175.510	-0.010	-0.380	0.720	175.610	-1.700	1.200																			1580027374.0	8.84	16.37
26/01/2020 08:29:35	26012020	260120	082935	175.480	12.590367	-57.244992	175.400	-0.020	-0.580	0.650	175.480	-1.900	1.100																			1580027375.0	9.09	16.83
26/01/2020 08:29:36	26012020	260120	082936	175.430	12.590325	-57.244992	175.360	0.060	-0.560	0.540	175.430	-1.900	1.000																			1580027376.0	9.07	16.80
26/01/2020 08:29:37	26012020	260120	082937	175.540	12.590283	-57.244990	175.510	0.040	-0.380	0.430	175.540	-1.800	0.900																			1580027377.0	8.92	16.52
26/01/2020 08:29:38	26012020	260120	082938	175.740	12.590242	-57.244988	175.700	-0.160	-0.260	0.480	175.740	-1.600	0.900																			1580027378.0	8.85	16.39
26/01/2020 08:29:39	26012020	260120	082939	175.910	12.590200	-57.244988	175.860	-0.370	-0.260	0.770	175.910	-1.600	1.200																			1580027379.0	9.03	16.72
26/01/2020 08:29:40	26012020	260120	082940	176.080	12.590157	-57.244990	176.030	-0.390	-0.170	1.080	176.080	-1.600	1.500																			1580027380.0	9.19	17.02
26/01/2020 08:29:41	26012020	260120	082941	176.220	12.590115	-57.244992	176.170	-0.190	0.060	1.190	176.220	-1.300	1.600																			1580027381.0	9.02	16.71
26/01/2020 08:29:42	26012020	260120	082942	176.330	12.590073	-57.244992	176.270	0.050	0.240	1.130	176.330	-1.100	1.600																			1580027382.0	8.87	16.43
26/01/2020 08:29:43	26012020	260120	082943	176.370	12.590033	-57.244990	176.300	0.200	0.270	1.020	176.370	-1.100	1.500																			1580027383.0	8.86	16.41
26/01/2020 08:29:44	26012020	260120	082944	176.340	12.589992	-57.244988	176.260	0.270	0.130	0.950	176.340	-1.200	1.400																			1580027384.0	8.93	16.54
26/01/2020 08:29:45	26012020	260120	082945	176.210	12.589950	-57.244987	176.110	0.300	-0.100	0.960	176.210	-1.500	1.400																			1580027385.0	9.02	16.71
26/01/2020 08:29:46	26012020	260120	082946	176.050	12.589907	-57.244987	175.970	0.240	-0.290	1.090	176.050	-1.700	1.500																			1580027386.0	9.04	16.74
26/01/2020 08:29:47	26012020	260120	082947	175.970	12.589865	-57.244987	175.910	0.090	-0.310	1.220	175.970	-1.700	1.700																			1580027387.0	8.90	16.48
26/01/2020 08:29:48	26012020	260120	082948	176.000	12.589825	-57.244990	175.930	-0.060	-0.260	1.160	176.000	-1.600	1.600																			1580027388.0	8.70	16.11
26/01/2020 08:29:49	26012020	260120	082949	176.030	12.589785	-57.244992	175.960	-0.070	-0.350	0.950	176.030	-1.700	1.400																			1580027389.0	8.68	16.08
26/01/2020 08:29:50	26012020	260120	082950	176.070	12.589743	-57.244992	176.000	0.090	-0.580	0.650	176.070	-1.900	1.100																			1580027390.0	8.91	16.50
26/01/2020 08:29:51	26012020	260120	082951	176.220	12.589702	-57.244990	176.170	0.220	-0.770	0.270	176.220	-2.100	0.700																			1580027391.0	9.13	16.91
26/01/2020 08:29:52	26012020	260120	082952	176.520	12.589658	-57.244987	176.490	0.150	-0.650	-0.040	176.520	-2.000	0.400																			1580027392.0	9.09	16.83
26/01/2020 08:29:53	26012020	260120	082953	176.790	12.589618	-57.244985	176.830	-0.110	-0.310	-0.100	176.850	-1.700	0.300																			1580027393.0	8.83	16.35
26/01/2020 08:29:54	26012020	260120	082954	177.110	12.589577	-57.244985	177.060	-0.360	-0.020	0.100	177.110	-1.400	0.500																			1580027394.0	8.73	16.17
26/01/2020 08:29:55	26012020	260120	082955	177.170	12.589537	-57.244987	177.090	-0.420	0.020	0.500	177.170	-1.400	0.900																			1580027395.0	8.92	16.52
26/01/2020 08:29:56	26012020	260120	082956	177.010	12.589493	-57.244987	176.920	-0.260	-0.180	0.960	177.010	-1.500	1.400																			1580027396.0	9.28	17.19
26/01/2020 08:29:57	26012020	260120	082957	176.710	12.589448	-57.244988	176.600	-0.050	-0.300	1.320	176.710	-1.700	1.700																			1580027397.0	9.52	17.63
26/01/2020 08:29:58	26012020	260120	082958	176.470	12.589405	-57.244988	176.380	-0.020	-0.010	1.480	176.470	-1.400	1.900																			1580027398.0	9.30	17.22
26/01/2020 08:29:59	26012020	260120	082959	176.390	12.589365	-57.244990	176.310	-0.140	0.470	1.470	176.390	-0.900	1.900																			1580027399.0	8.75	16.21
26/01/2020 08:30:00	26012020	260120	083000	176.370	12.589325	-57.244992	176.290	-0.170	0.630	1.330	176.370	-0.700	1.800	1013.70	25.70	25.80	19.90	20.00	-1.00	70.00	70.00	430.00	25.30	315.00	9.30	102.00	6.80	15	3173.00	27.40	27.40	1580027400.0	8.52	15.78
26/01/2020 08:30:01	26012020	260120	083001	176.300	12.589283	-57.244992	176.210	0.020	0.240	1.100	176.300	-1.100	1.600																			1580027401.0	8.83	16.35
26/01/2020 08:30:02	26012020	260120	083002	176.250	12.589242	-57.244992	176.190	0.310	-0.340	0.830	176.250	-1.700	1.300																			1580027402.0	9.25	17.13
26/01/2020 08:30:03	26012020	260120	083003	176.350	12.589198	-57.244990	176.300	0.450	-0.620	0.510	176.350	-2.000	1.000																			1580027403.0	9.19	17.02
26/01/2020 08:30:04	26012020	260120	083004	176.510	12.589158	-57.244990	176.450	0.380	-0.560	0.250	176.510	-1.900	0.700																			1580027404.0	8.73	16.17
26/01/2020 08:30:05	26012020	260120	083005	176.590	12.589118	-57.244988	176.540	0.200	-0.490	0.210	176.610	-1.900	0.600																			1580027405.0	8.51	15.76
26/01/2020 08:30:06	26012020	260120	083006	176.650	12.589077	-57.244990	176.580	0.030	-0.590	0.480	176.650	-2.000	0.900																			1580027406.0	8.73	16.17
26/01/2020 08:30:07	26012020	260120	083007	176.680	12.589035	-57.244992	176.630	-0.070	-0.640	0.800	176.690	-2.000	1.200																			1580027407.0	9.09	16.83
26/01/2020 08:30:08	26012020	260120	083008	176.730	12.588993	-57.244995	176.670	-0.090	-0.420	1.000	176.730	-1.800	1.400																			1580027408.0	9.04	16.74
26/01/2020 08:30:09	26012020	260120	083009	176.740	12.588952	-57.244997	176.670	-0.010	-0.160	1.060	176.740	-1.500	1.500																			1580027409.0	8.86	16.41
26/01/2020 08:30:10	26012020	260120	083010	176.780	12.588910	-57.244997	176.710	0.090	0.030	0.910	176.780	-1.400	1.400																			1580027410.0	8.95	16.58
26/01/2020 08:30:11	26012020	260120	083011	176.840	12.588868	-57.244993	176.780	0.050	0.130	0.770	176.840	-1.300	1.200																			1580027411.0	8.99	16.65
26/01/2020 08:30:12	26012020	260120	083012	176.870	12.588827	-57.244992	176.810	-0.130	0.040	0.810	176.870	-1.300	1.200																			1580027412.0	9.04	16.74
26/01/2020 08:30:13	26012020	260120	083013	176.840	12.588783	-57.244992	176.770	-0.320	-0.130	1.030	176.840	-1.500	1.400																			1580027413.0	9.18	17.00
26/01/2020 08:30:14	26012020	260120	083014	176.760	12.588742	-57.244995	176.690	-0.360	-0.230	1.290	176.760	-1.600	1.700																			1580027414.0	9.18	17.00
26/01/2020 08:30:15	26012020	260120	083015	176.670	12.588700	-57.244997	176.600	-0.210	-0.280	1.450	176.670	-1.700	1.900																			1580027415.0	9.08	16.82
26/01/2020 08:30:16	26012020	260120	083016	176.530	12.588657	-57.245000	176.470	0.040	-0.340	1.410	176.530	-1.700	1.800																			1580027416.0	9.04	16.74
26/01/2020 08:30:17	26012020	260120	083017	176.360	12.588615	-57.245000	176.290	0.220	-0.370	1.300	176.360	-1.700	1.700																			1580027417.0	9.05	16.76
26/01/2020 08:30:18	26012020	260120	083018	176.230	12.588573	-57.244998	176.170	0.170	-0.240	1.200	176.230	-1.600	1.600																			1580027418.0	9.00	16.67
26/01/2020 08:30:19	26012020	260120	083019	176.260	12.588532	-57.244998	176.220	-0.050	0.030	1.030	176.260	-1.400	1.500																			1580027419.0	8.83	16.35
26/01/2020 08:30:20	26012020	260120	083020	176.410	12.588492	-57.245000	176.390	-0.220	0.270	0.890	176.410	-1.100	1.300																			1580027420.0	8.72	16.15
26/01/2020 08:30:21	26012020	260120	083021	176.640	12.588452	-57.245002	176.640	-0.120	0.400	0.720	176.640	-1.000	1.200																			1580027421.0	8.73	16.17
26/01/2020 08:30:22	26012020	260120	083022	176.940	12.588410	-57.245002	176.930	0.220	0.280	0.470	176.940	-1.100	0.900																			1580027422.0	8.73	16.17
26/01/2020 08:30:23	26012020	260120	083023	177.150	12.588370	-57.245000	177.130	0.580	-0.190	0.290	177.150	-1.500	0.700																			1580027423.0	8.92	16.52
26/01/2020 08:30:24	26012020	260120	083024	177.210	12.588327	-57.244998	177.170	0.690	-0.730	0.350	177.210	-2.100	0.800																			1580027424.0	9.19	17.02
26/01/2020 08:30:25	26012020	260120	083025	177.110	12.588283	-57.244998	177.030	0.490	-0.990	0.730	177.110	-2.400	1.100																			1580027425.0	9.14	16.93
26/01/2020 08:30:26	26012020	260120	083026	176.860	12.588243	-57.245000	176.760	0.110	-0.920	1.220	176.860	-2.300	1.600																			1580027426.0	8.93	16.54
26/01/2020 08:30:27	26012020	260120	083027	176.600	12.588202	-57.245003	176.510	-0.230	-0.620	1.570	176.600	-2.000	2.000																			1580027427.0	8.81	16.32
26/01/2020 08:30:28	26012020	260120	083028	176.430	12.588160	-57.245007	176.380	-0.400	-0.290	1.620	176.430	-1.700	2.000																			1580027428.0	8.83	16.35
26/01/2020 08:30:29	26012020	260120	083029	176.370	12.588120	-57.245008	176.330	-0.430	-0.090	1.360	176.370	-1.500	1.800																			1580027429.0	8.93	16.54
26/01/2020 08:30:30	26012020	260120	083030	176.410	12.588077	-57.245007	176.380	-0.360	-0.050	1.040	176.410	-1.400	1.500																			1580027430.0	9.14	16.93
26/01/2020 08:30:31	26012020	260120	083031	176.460	12.588033	-57.245007	176.420	-0.280	-0.090	0.840	176.460	-1.500	1.300																			1580027431.0	9.29	17.21
26/01/2020 08:30:32	26012020	260120	083032	176.470	12.587990	-57.245007	176.420	-0.240	-0.010	0.760	176.470	-1.400	1.200																			1580027432.0	9.31	17.24
26/01/2020 08:30:33	26012020	260120	083033	176.500	12.587948	-57.245007	176.460	-0.270	0.300	0.850	176.500	-1.100	1.300																			1580027433.0	9.04	16.74
26/01/2020 08:30:34	26012020	260120	083034	176.580	12.587908	-57.245008	176.520	-0.230	0.520	0.950	176.580	-0.900	1.400																			1580027434.0	8.71	16.13
26/01/2020 08:30:35	26012020	260120	083035	176.580	12.587867	-57.245010	176.510	-0.000	0.350	0.980	176.580	-1.000	1.400																			1580027435.0	8.80	16.30
26/01/2020 08:30:36	26012020	260120	083036	176.480	12.587825	-57.245010	176.400	0.330	-0.080	1.060	176.480	-1.400	1.500																			1580027436.0	9.10	16.85
26/01/2020 08:30:37	26012020	260120	083037	176.390	12.587782	-57.245010	176.330	0.570	-0.380	1.060	176.390	-1.700	1.500																			1580027437.0	9.17	16.98
26/01/2020 08:30:38	26012020	260120	083038	176.400	12.587742	-57.245010	176.320	0.530	-0.370	0.940	176.400	-1.700	1.400																			1580027438.0	8.79	16.28
26/01/2020 08:30:39	26012020	260120	083039	176.350	12.587702	-57.245010	176.250	0.320	-0.400	0.900	176.350	-1.800	1.300																			1580027439.0	8.46	15.67
26/01/2020 08:30:40	26012020	260120	083040	176.160	12.587662	-57.245010	176.050	0.140	-0.690	0.970	176.160	-2.000	1.400																			1580027440.0	8.74	16.19
26/01/2020 08:30:41	26012020	260120	083041	175.890	12.587618	-57.245012	175.790	0.080	-0.920	1.120	175.890	-2.300	1.500																			1580027441.0	9.12	16.89
26/01/2020 08:30:42	26012020	260120	083042	175.730	12.587577	-57.245012	175.670	0.040	-0.800	1.120	175.730	-2.200	1.600																			1580027442.0	9.16	16.96
26/01/2020 08:30:43	26012020	260120	083043	175.810	12.587535	-57.245012	175.820	-0.110	-0.340	0.890	175.850	-1.800	1.300																			1580027443.0	8.88	16.45
26/01/2020 08:30:44	26012020	260120	083044	176.070	12.587495	-57.245012	176.020	-0.300	0.110	0.720	176.070	-1.300	1.200																			1580027444.0	8.63	15.98
26/01/2020 08:30:45	26012020	260120	083045	176.170	12.587453	-57.245012	176.100	-0.330	0.240	0.700	176.170	-1.100	1.100																			1580027445.0	8.78	16.26
26/01/2020 08:30:46	26012020	260120	083046	176.160	12.587412	-57.245012	176.090	-0.220	0.070	0.840	176.160	-1.300	1.300																			1580027446.0	9.16	16.96
26/01/2020 08:30:47	26012020	260120	083047	176.080	12.587368	-57.245012	176.010	-0.130	-0.150	1.150	176.080	-1.500	1.600																			1580027447.0	9.38	17.37
26/01/2020 08:30:48	26012020	260120	083048	176.000	12.587325	-57.245013	175.930	-0.160	-0.160	1.380	176.000	-1.500	1.800																			1580027448.0	9.30	17.22
26/01/2020 08:30:49	26012020	260120	083049	175.940	12.587283	-57.245015	175.880	-0.240	-0.010	1.390	175.940	-1.400	1.800																			1580027449.0	8.99	16.65
26/01/2020 08:30:50	26012020	260120	083050	175.880	12.587242	-57.245015	175.800	-0.240	0.110	1.300	175.880	-1.300	1.700																			1580027450.0	8.78	16.26
26/01/2020 08:30:51	26012020	260120	083051	175.740	12.587202	-57.245017	175.650	-0.070	0.070	1.180	175.740	-1.300	1.600																			1580027451.0	8.80	16.30
26/01/2020 08:30:52	26012020	260120	083052	175.600	12.587160	-57.245017	175.510	0.200	-0.090	0.900	175.600	-1.400	1.400																			1580027452.0	8.92	16.52
26/01/2020 08:30:53	26012020	260120	083053	175.610	12.587118	-57.245013	175.560	0.390	-0.240	0.500	175.610	-1.600	1.000																			1580027453.0	8.95	16.58
26/01/2020 08:30:54	26012020	260120	083054	175.820	12.587077	-57.245012	175.790	0.390	-0.350	0.260	175.820	-1.700	0.700																			1580027454.0	8.86	16.41
26/01/2020 08:30:55	26012020	260120	083055	175.990	12.587037	-57.245010	175.970	0.240	-0.390	0.290	176.020	-1.800	0.700																			1580027455.0	8.75	16.21
26/01/2020 08:30:56	26012020	260120	083056	176.010	12.586995	-57.245010	175.910	0.130	-0.490	0.680	176.010	-1.900	1.100																			1580027456.0	8.75	16.21
26/01/2020 08:30:57	26012020	260120	083057	175.810	12.586953	-57.245012	175.720	0.110	-0.600	1.180	175.810	-2.000	1.600																			1580027457.0	8.98	16.63
26/01/2020 08:30:58	26012020	260120	083058	175.650	12.586912	-57.245013	175.590	0.100	-0.490	1.510	175.650	-1.900	1.900																			1580027458.0	9.05	16.76
26/01/2020 08:30:59	26012020	260120	083059	175.540	12.586870	-57.245015	175.480	0.020	-0.220	1.570	175.540	-1.600	2.000																			1580027459.0	8.88	16.45
26/01/2020 08:31:00	26012020	260120	083100	175.470	12.586830	-57.245015	175.430	-0.100	0.020	1.410	175.470	-1.400	1.900	1013.70	25.70	25.70	20.20	20.20	-1.00	71.00	71.00	430.00	25.30	313.00	9.50	102.00	7.20	15	3277.00	27.40	27.40	1580027460.0	8.81	16.32
26/01/2020 08:31:01	26012020	260120	083101	175.450	12.586788	-57.245015	175.410	-0.170	0.100	1.240	175.450	-1.300	1.700																			1580027461.0	8.88	16.45
26/01/2020 08:31:02	26012020	260120	083102	175.480	12.586747	-57.245013	175.450	-0.200	0.000	1.140	175.480	-1.400	1.600																			1580027462.0	9.05	16.76
26/01/2020 08:31:03	26012020	260120	083103	175.570	12.586703	-57.245013	175.550	-0.240	-0.120	1.040	175.570	-1.500	1.500																			1580027463.0	9.14	16.93
26/01/2020 08:31:04	26012020	260120	083104	175.670	12.586662	-57.245013	175.630	-0.300	-0.180	0.970	175.670	-1.500	1.400																			1580027464.0	9.03	16.72
26/01/2020 08:31:05	26012020	260120	083105	175.670	12.586620	-57.245013	175.580	-0.250	-0.290	0.950	175.670	-1.600	1.400																			1580027465.0	8.94	16.56
26/01/2020 08:31:06	26012020	260120	083106	175.520	12.586578	-57.245015	175.430	-0.040	-0.420	0.950	175.520	-1.800	1.400																			1580027466.0	9.03	16.72
26/01/2020 08:31:07	26012020	260120	083107	175.520	12.586537	-57.245013	175.480	0.110	-0.340	0.820	175.520	-1.700	1.300																			1580027467.0	9.04	16.74
26/01/2020 08:31:08	26012020	260120	083108	175.690	12.586495	-57.245012	175.660	0.080	-0.080	0.720	175.690	-1.500	1.200																			1580027468.0	8.73	16.17
26/01/2020 08:31:09	26012020	260120	083109	175.880	12.586455	-57.245010	175.830	0.010	0.060	0.650	175.880	-1.300	1.100																			1580027469.0	8.60	15.93
26/01/2020 08:31:10	26012020	260120	083110	175.960	12.586415	-57.245010	175.900	0.040	-0.050	0.740	175.960	-1.400	1.200																			1580027470.0	8.81	16.32
26/01/2020 08:31:11	26012020	260120	083111	175.890	12.586372	-57.245010	175.820	0.160	-0.230	1.130	175.890	-1.600	1.500																			1580027471.0	9.08	16.82
26/01/2020 08:31:12	26012020	260120	083112	175.770	12.586330	-57.245012	175.720	0.200	-0.250	1.490	175.770	-1.600	1.900																			1580027472.0	9.11	16.87
26/01/2020 08:31:13	26012020	260120	083113	175.720	12.586288	-57.245013	175.670	0.100	-0.100	1.600	175.720	-1.500	2.000																			1580027473.0	8.91	16.50
26/01/2020 08:31:14	26012020	260120	083114	175.690	12.586248	-57.245013	175.630	-0.030	0.060	1.530	175.690	-1.300	2.000																			1580027474.0	8.68	16.08
26/01/2020 08:31:15	26012020	260120	083115	175.600	12.586208	-57.245015	175.540	-0.010	-0.030	1.390	175.600	-1.400	1.800																			1580027475.0	8.69	16.09
26/01/2020 08:31:16	26012020	260120	083116	175.490	12.586167	-57.245013	175.420	0.180	-0.290	1.100	175.490	-1.600	1.600																			1580027476.0	8.94	16.56
26/01/2020 08:31:17	26012020	260120	083117	175.390	12.586125	-57.245012	175.330	0.290	-0.480	0.740	175.390	-1.800	1.200																			1580027477.0	9.05	16.76
26/01/2020 08:31:18	26012020	260120	083118	175.360	12.586083	-57.245008	175.320	0.170	-0.520	0.470	175.360	-1.900	0.900																			1580027478.0	8.91	16.50
26/01/2020 08:31:19	26012020	260120	083119	175.480	12.586042	-57.245008	175.440	-0.120	-0.540	0.370	175.480	-1.900	0.800																			1580027479.0	8.82	16.33
26/01/2020 08:31:20	26012020	260120	083120	175.570	12.586000	-57.245008	175.520	-0.310	-0.600	0.540	175.570	-2.000	1.000																			1580027480.0	8.92	16.52
26/01/2020 08:31:21	26012020	260120	083121	175.570	12.585958	-57.245010	175.540	-0.240	-0.600	0.790	175.570	-2.000	1.200																			1580027481.0	9.14	16.93
26/01/2020 08:31:22	26012020	260120	083122	175.660	12.585915	-57.245010	175.650	-0.120	-0.350	0.880	175.660	-1.800	1.300																			1580027482.0	9.15	16.95
26/01/2020 08:31:23	26012020	260120	083123	175.930	12.585875	-57.245010	175.940	-0.220	0.130	0.850	175.930	-1.300	1.300																			1580027483.0	8.88	16.45
26/01/2020 08:31:24	26012020	260120	083124	176.110	12.585833	-57.245008	176.060	-0.460	0.470	0.920	176.110	-0.900	1.300																			1580027484.0	8.65	16.02
26/01/2020 08:31:25	26012020	260120	083125	175.930	12.585793	-57.245010	175.830	-0.480	0.330	1.210	175.930	-1.000	1.600																			1580027485.0	8.88	16.45
26/01/2020 08:31:26	26012020	260120	083126	175.520	12.585750	-57.245012	175.420	-0.140	0.020	1.520	175.520	-1.300	1.900																			1580027486.0	9.37	17.35
26/01/2020 08:31:27	26012020	260120	083127	175.220	12.585707	-57.245012	175.150	0.300	0.050	1.620	175.220	-1.300	2.000																			1580027487.0	9.28	17.19
26/01/2020 08:31:28	26012020	260120	083128	175.120	12.585667	-57.245012	175.060	0.510	0.340	1.420	175.120	-1.100	1.900																			1580027488.0	8.66	16.04
26/01/2020 08:31:29	26012020	260120	083129	175.110	12.585627	-57.245010	175.050	0.420	0.370	1.060	175.110	-1.000	1.500																			1580027489.0	8.30	15.37
26/01/2020 08:31:30	26012020	260120	083130	175.120	12.585588	-57.245008	175.060	0.270	-0.080	0.840	175.120	-1.400	1.300																			1580027490.0	8.52	15.78
26/01/2020 08:31:31	26012020	260120	083131	175.110	12.585547	-57.245008	175.050	0.270	-0.750	0.850	175.110	-2.100	1.300																			1580027491.0	8.94	16.56
26/01/2020 08:31:32	26012020	260120	083132	175.050	12.585503	-57.245010	174.980	0.420	-1.240	0.900	175.050	-2.600	1.300																			1580027492.0	9.12	16.89
26/01/2020 08:31:33	26012020	260120	083133	174.990	12.585462	-57.245010	174.940	0.490	-1.330	0.860	174.990	-2.700	1.300																			1580027493.0	9.01	16.69
26/01/2020 08:31:34	26012020	260120	083134	175.020	12.585422	-57.245008	174.990	0.280	-1.010	0.720	175.020	-2.400	1.200																			1580027494.0	8.79	16.28
26/01/2020 08:31:35	26012020	260120	083135	175.170	12.585382	-57.245005	175.160	-0.210	-0.440	0.630	175.170	-1.900	1.100																			1580027495.0	8.61	15.95
26/01/2020 08:31:36	26012020	260120	083136	175.390	12.585342	-57.245005	175.380	-0.710	0.060	0.720	175.390	-1.300	1.100																			1580027496.0	8.59	15.91
26/01/2020 08:31:37	26012020	260120	083137	175.460	12.585300	-57.245005	175.410	-0.870	0.140	1.020	175.460	-1.200	1.400																			1580027497.0	8.92	16.52
26/01/2020 08:31:38	26012020	260120	083138	175.340	12.585255	-57.245007	175.270	-0.640	0.030	1.340	175.340	-1.300	1.700																			1580027498.0	9.48	17.56
26/01/2020 08:31:39	26012020	260120	083139	175.190	12.585212	-57.245008	175.130	-0.310	0.180	1.490	175.190	-1.200	1.900																			1580027499.0	9.52	17.63
26/01/2020 08:31:40	26012020	260120	083140	175.170	12.585170	-57.245007	175.120	-0.160	0.620	1.370	175.170	-0.800	1.800																			1580027500.0	8.97	16.61
26/01/2020 08:31:41	26012020	260120	083141	175.160	12.585130	-57.245007	175.110	-0.110	0.880	1.210	175.160	-0.500	1.700																			1580027501.0	8.48	15.70
26/01/2020 08:31:42	26012020	260120	083142	175.060	12.585090	-57.245005	174.990	0.060	0.590	1.090	175.060	-0.800	1.500																			1580027502.0	8.59	15.91
26/01/2020 08:31:43	26012020	260120	083143	175.020	12.585048	-57.245003	174.970	0.370	-0.020	0.910	175.020	-1.400	1.400																			1580027503.0	8.95	16.58
26/01/2020 08:31:44	26012020	260120	083144	175.070	12.585007	-57.245002	175.030	0.610	-0.590	0.860	175.070	-1.900	1.300																			1580027504.0	8.99	16.65
26/01/2020 08:31:45	26012020	260120	083145	175.080	12.584967	-57.245002	175.030	0.650	-0.980	0.910	175.080	-2.300	1.300																			1580027505.0	8.82	16.33
26/01/2020 08:31:46	26012020	260120	083146	175.000	12.584925	-57.245002	174.940	0.530	-1.140	0.930	175.000	-2.500	1.400																			1580027506.0	8.70	16.11
26/01/2020 08:31:47	26012020	260120	083147	174.930	12.584885	-57.245002	174.880	0.290	-1.060	1.040	174.920	-2.400	1.500																			1580027507.0	8.66	16.04
26/01/2020 08:31:48	26012020	260120	083148	174.940	12.584845	-57.245002	174.930	0.010	-0.780	1.220	174.940	-2.200	1.600																			1580027508.0	8.70	16.11
26/01/2020 08:31:49	26012020	260120	083149	175.080	12.584803	-57.245002	175.080	-0.280	-0.340	1.330	175.080	-1.700	1.700																			1580027509.0	8.76	16.22
26/01/2020 08:31:50	26012020	260120	083150	175.280	12.584763	-57.245003	175.280	-0.480	0.100	1.320	175.280	-1.300	1.800																			1580027510.0	8.78	16.26
26/01/2020 08:31:51	26012020	260120	083151	175.540	12.584722	-57.245003	175.530	-0.500	0.390	1.230	175.540	-1.000	1.700																			1580027511.0	8.88	16.45
26/01/2020 08:31:52	26012020	260120	083152	175.780	12.584680	-57.245002	175.760	-0.350	0.460	1.100	175.780	-0.900	1.500																			1580027512.0	9.00	16.67
26/01/2020 08:31:53	26012020	260120	083153	175.930	12.584638	-57.245000	175.880	-0.130	0.340	0.960	175.930	-1.000	1.400																			1580027513.0	9.06	16.78
26/01/2020 08:31:54	26012020	260120	083154	175.900	12.584597	-57.244998	175.820	0.070	0.100	0.940	175.900	-1.300	1.400																			1580027514.0	9.05	16.76
26/01/2020 08:31:55	26012020	260120	083155	175.680	12.584553	-57.244997	175.590	0.210	-0.170	1.010	175.680	-1.500	1.400																			1580027515.0	9.00	16.67
26/01/2020 08:31:56	26012020	260120	083156	175.440	12.584513	-57.244995	175.350	0.200	-0.290	1.100	175.440	-1.700	1.500																			1580027516.0	8.91	16.50
26/01/2020 08:31:57	26012020	260120	083157	175.280	12.584472	-57.244995	175.220	0.090	-0.290	1.240	175.280	-1.700	1.700																			1580027517.0	8.69	16.09
26/01/2020 08:31:58	26012020	260120	083158	175.250	12.584432	-57.244997	175.200	-0.030	-0.380	1.410	175.250	-1.700	1.800																			1580027518.0	8.66	16.04
26/01/2020 08:31:59	26012020	260120	083159	175.230	12.584392	-57.244998	175.170	0.010	-0.580	1.530	175.230	-1.900	1.900																			1580027519.0	8.86	16.41
26/01/2020 08:32:00	26012020	260120	083200	175.180	12.584348	-57.245000	175.140	0.150	-0.640	1.440	175.180	-2.000	1.900	1013.70	25.60	25.70	20.10	20.20	-1.00	71.00	71.00	429.00	25.30	315.00	10.40	107.00	7.80	15	3326.00	27.40	27.40	1580027520.0	9.05	16.76
26/01/2020 08:32:01	26012020	260120	083201	175.300	12.584308	-57.245000	175.290	0.170	-0.340	1.140	175.300	-1.700	1.600																			1580027521.0	8.88	16.45
26/01/2020 08:32:02	26012020	260120	083202	175.590	12.584268	-57.244998	175.580	0.000	0.100	0.710	175.590	-1.300	1.200																			1580027522.0	8.50	15.74
26/01/2020 08:32:03	26012020	260120	083203	175.900	12.584228	-57.244997	175.840	-0.160	0.250	0.350	175.900	-1.100	0.800																			1580027523.0	8.43	15.61
26/01/2020 08:32:04	26012020	260120	083204	176.020	12.584188	-57.244995	175.940	-0.110	-0.030	0.280	176.020	-1.400	0.700																			1580027524.0	8.81	16.32
26/01/2020 08:32:05	26012020	260120	083205	176.000	12.584145	-57.244993	175.920	0.120	-0.410	0.440	176.000	-1.800	0.900																			1580027525.0	9.22	17.08
26/01/2020 08:32:06	26012020	260120	083206	175.900	12.584102	-57.244992	175.810	0.260	-0.540	0.720	175.900	-1.900	1.100																			1580027526.0	9.19	17.02
26/01/2020 08:32:07	26012020	260120	083207	175.730	12.584062	-57.244992	175.660	0.150	-0.390	1.030	175.730	-1.800	1.400																			1580027527.0	8.93	16.54
26/01/2020 08:32:08	26012020	260120	083208	175.660	12.584020	-57.244993	175.610	-0.140	-0.080	1.290	175.660	-1.500	1.700																			1580027528.0	8.69	16.09
26/01/2020 08:32:09	26012020	260120	083209	175.710	12.583980	-57.244995	175.660	-0.360	0.140	1.410	175.710	-1.200	1.800																			1580027529.0	8.60	15.93
26/01/2020 08:32:10	26012020	260120	083210	175.740	12.583940	-57.244997	175.690	-0.310	0.110	1.380	175.740	-1.300	1.800																			1580027530.0	8.71	16.13
26/01/2020 08:32:11	26012020	260120	083211	175.690	12.583898	-57.244997	175.620	-0.030	-0.150	1.280	175.690	-1.500	1.700																			1580027531.0	8.98	16.63
26/01/2020 08:32:12	26012020	260120	083212	175.600	12.583855	-57.244997	175.530	0.210	-0.350	1.070	175.600	-1.700	1.500																			1580027532.0	9.14	16.93
26/01/2020 08:32:13	26012020	260120	083213	175.470	12.583813	-57.244995	175.380	0.220	-0.330	0.860	175.470	-1.700	1.300																			1580027533.0	8.95	16.58
26/01/2020 08:32:14	26012020	260120	083214	175.380	12.583773	-57.244993	175.320	0.010	-0.140	0.700	175.380	-1.500	1.100																			1580027534.0	8.69	16.09
26/01/2020 08:32:15	26012020	260120	083215	175.490	12.583733	-57.244993	175.430	-0.220	0.010	0.640	175.490	-1.400	1.100																			1580027535.0	8.54	15.82
26/01/2020 08:32:16	26012020	260120	083216	175.600	12.583693	-57.244995	175.530	-0.190	-0.140	0.720	175.600	-1.500	1.100																			1580027536.0	8.67	16.06
26/01/2020 08:32:17	26012020	260120	083217	175.630	12.583652	-57.244995	175.570	0.110	-0.450	0.770	175.630	-1.800	1.200																			1580027537.0	9.04	16.74
26/01/2020 08:32:18	26012020	260120	083218	175.730	12.583610	-57.244995	175.700	0.360	-0.550	0.810	175.730	-1.900	1.200																			1580027538.0	9.12	16.89
26/01/2020 08:32:19	26012020	260120	083219	175.900	12.583568	-57.244995	175.880	0.330	-0.380	0.930	175.900	-1.800	1.400																			1580027539.0	8.84	16.37
26/01/2020 08:32:20	26012020	260120	083220	176.020	12.583528	-57.244995	175.970	0.100	-0.140	1.120	176.020	-1.500	1.500																			1580027540.0	8.62	15.96
26/01/2020 08:32:21	26012020	260120	083221	176.020	12.583488	-57.244993	175.960	-0.110	-0.040	1.380	176.020	-1.400	1.800																			1580027541.0	8.68	16.08
26/01/2020 08:32:22	26012020	260120	083222	176.020	12.583447	-57.244995	175.970	-0.190	-0.050	1.550	176.020	-1.400	2.000																			1580027542.0	8.88	16.45
26/01/2020 08:32:23	26012020	260120	083223	176.030	12.583405	-57.244995	175.940	-0.150	-0.120	1.630	176.020	-1.500	2.100																			1580027543.0	8.96	16.59
26/01/2020 08:32:24	26012020	260120	083224	175.860	12.583363	-57.244995	175.770	-0.060	-0.210	1.650	175.860	-1.600	2.100																			1580027544.0	9.00	16.67
26/01/2020 08:32:25	26012020	260120	083225	175.720	12.583320	-57.244993	175.660	-0.050	-0.200	1.460	175.720	-1.600	1.900																			1580027545.0	9.01	16.69
26/01/2020 08:32:26	26012020	260120	083226	175.760	12.583280	-57.244993	175.720	-0.100	-0.100	1.130	175.760	-1.500	1.600																			1580027546.0	8.84	16.37
26/01/2020 08:32:27	26012020	260120	083227	175.940	12.583240	-57.244993	175.910	-0.120	0.020	0.730	175.940	-1.400	1.200																			1580027547.0	8.69	16.09
26/01/2020 08:32:28	26012020	260120	083228	176.180	12.583198	-57.244992	176.150	-0.090	0.020	0.390	176.180	-1.400	0.800																			1580027548.0	8.64	16.00
26/01/2020 08:32:29	26012020	260120	083229	176.390	12.583158	-57.244990	176.330	-0.020	-0.210	0.340	176.390	-1.600	0.800																			1580027549.0	8.75	16.21
26/01/2020 08:32:30	26012020	260120	083230	176.410	12.583117	-57.244992	176.330	0.100	-0.580	0.610	176.410	-1.900	1.000																			1580027550.0	9.04	16.74
26/01/2020 08:32:31	26012020	260120	083231	176.420	12.583073	-57.244993	176.370	0.200	-0.650	0.830	176.420	-2.000	1.200																			1580027551.0	9.21	17.06
26/01/2020 08:32:32	26012020	260120	083232	176.550	12.583033	-57.244993	176.500	0.180	-0.250	0.880	176.550	-1.700	1.300																			1580027552.0	8.78	16.26
26/01/2020 08:32:33	26012020	260120	083233	176.690	12.582993	-57.244995	176.620	0.010	0.100	0.840	176.690	-1.300	1.300																			1580027553.0	8.37	15.50
26/01/2020 08:32:34	26012020	260120	083234	176.700	12.582953	-57.244993	176.600	-0.150	0.040	0.790	176.700	-1.300	1.200																			1580027554.0	8.63	15.98
26/01/2020 08:32:35	26012020	260120	083235	176.580	12.582912	-57.244995	176.440	-0.150	-0.250	0.910	176.550	-1.600	1.300																			1580027555.0	9.10	16.85
26/01/2020 08:32:36	26012020	260120	083236	176.410	12.582868	-57.244997	176.330	0.040	-0.320	0.890	176.410	-1.700	1.300																			1580027556.0	9.22	17.08
26/01/2020 08:32:37	26012020	260120	083237	176.380	12.582827	-57.244995	176.290	0.240	-0.090	0.620	176.380	-1.500	1.100																			1580027557.0	8.85	16.39
26/01/2020 08:32:38	26012020	260120	083238	176.370	12.582788	-57.244993	176.280	0.260	0.050	0.390	176.370	-1.300	0.800																			1580027558.0	8.58	15.89
26/01/2020 08:32:39	26012020	260120	083239	176.340	12.582747	-57.244990	176.240	0.100	-0.130	0.510	176.340	-1.500	0.900																			1580027559.0	8.71	16.13
26/01/2020 08:32:40	26012020	260120	083240	176.260	12.582705	-57.244992	176.170	-0.150	-0.460	1.000	176.260	-1.800	1.400																			1580027560.0	9.05	16.76
26/01/2020 08:32:41	26012020	260120	083241	176.080	12.582662	-57.244995	175.980	-0.290	-0.620	1.580	176.080	-2.000	2.000																			1580027561.0	9.20	17.04
26/01/2020 08:32:42	26012020	260120	083242	175.840	12.582620	-57.245000	175.750	-0.240	-0.470	1.930	175.840	-1.900	2.300																			1580027562.0	9.08	16.82
26/01/2020 08:32:43	26012020	260120	083243	175.650	12.582580	-57.245003	175.560	-0.080	-0.160	1.900	175.650	-1.600	2.300																			1580027563.0	8.78	16.26
26/01/2020 08:32:44	26012020	260120	083244	175.570	12.582540	-57.245003	175.530	0.030	0.080	1.570	175.570	-1.300	2.000																			1580027564.0	8.69	16.09
26/01/2020 08:32:45	26012020	260120	083245	175.670	12.582498	-57.245002	175.630	0.030	0.150	1.140	175.670	-1.200	1.600																			1580027565.0	8.76	16.22
26/01/2020 08:32:46	26012020	260120	083246	175.720	12.582457	-57.245000	175.660	-0.020	0.040	0.930	175.720	-1.300	1.400																			1580027566.0	8.86	16.41
26/01/2020 08:32:47	26012020	260120	083247	175.690	12.582415	-57.245000	175.630	-0.030	-0.110	0.970	175.690	-1.500	1.400																			1580027567.0	8.96	16.59
26/01/2020 08:32:48	26012020	260120	083248	175.630	12.582375	-57.245000	175.560	0.030	-0.170	1.150	175.630	-1.500	1.600																			1580027568.0	8.92	16.52
26/01/2020 08:32:49	26012020	260120	083249	175.500	12.582333	-57.245002	175.410	0.160	-0.170	1.300	175.500	-1.600	1.700																			1580027569.0	8.77	16.24
26/01/2020 08:32:50	26012020	260120	083250	175.350	12.582293	-57.245002	175.280	0.310	-0.240	1.300	175.350	-1.600	1.700																			1580027570.0	8.73	16.17
26/01/2020 08:32:51	26012020	260120	083251	175.360	12.582252	-57.245000	175.330	0.370	-0.350	1.120	175.360	-1.700	1.600																			1580027571.0	8.82	16.33
26/01/2020 08:32:52	26012020	260120	083252	175.610	12.582212	-57.244998	175.590	0.230	-0.340	0.900	175.610	-1.700	1.400																			1580027572.0	8.79	16.28
26/01/2020 08:32:53	26012020	260120	083253	175.940	12.582172	-57.244997	175.920	-0.040	-0.290	0.810	175.940	-1.700	1.200																			1580027573.0	8.61	15.95
26/01/2020 08:32:54	26012020	260120	083254	176.140	12.582130	-57.244998	176.080	-0.220	-0.460	0.900	176.140	-1.800	1.300																			1580027574.0	8.69	16.09
26/01/2020 08:32:55	26012020	260120	083255	176.150	12.582088	-57.244998	176.070	-0.190	-0.710	1.130	176.150	-2.100	1.500																			1580027575.0	9.09	16.83
26/01/2020 08:32:56	26012020	260120	083256	176.110	12.582045	-57.245000	176.030	-0.040	-0.640	1.270	176.110	-2.000	1.700																			1580027576.0	9.20	17.04
26/01/2020 08:32:57	26012020	260120	083257	176.120	12.582005	-57.244998	176.060	-0.020	-0.210	1.220	176.120	-1.600	1.700																			1580027577.0	8.90	16.48
26/01/2020 08:32:58	26012020	260120	083258	176.190	12.581965	-57.244998	176.140	-0.200	0.320	1.090	176.190	-1.100	1.500																			1580027578.0	8.60	15.93
26/01/2020 08:32:59	26012020	260120	083259	176.230	12.581925	-57.244997	176.150	-0.430	0.540	1.000	176.230	-0.900	1.400																			1580027579.0	8.57	15.87
26/01/2020 08:33:00	26012020	260120	083300	176.130	12.581883	-57.244998	176.030	-0.440	0.380	1.050	176.130	-1.000	1.500	1013.60	25.60	25.70	19.90	20.00	0.00	70.00	70.00	429.00	25.30	315.00	10.60	107.00	8.10	15	3267.00	27.40	27.40	1580027580.0	8.86	16.41
26/01/2020 08:33:01	26012020	260120	083301	175.970	12.581842	-57.244998	175.860	-0.150	0.080	1.080	175.970	-1.300	1.500																			1580027581.0	9.12	16.89
26/01/2020 08:33:02	26012020	260120	083302	175.820	12.581798	-57.245000	175.720	0.220	-0.130	1.050	175.820	-1.500	1.500																			1580027582.0	9.05	16.76
26/01/2020 08:33:03	26012020	260120	083303	175.710	12.581758	-57.245000	175.610	0.450	-0.240	0.940	175.710	-1.600	1.400																			1580027583.0	8.82	16.33
26/01/2020 08:33:04	26012020	260120	083304	175.580	12.581718	-57.245000	175.470	0.450	-0.340	0.840	175.580	-1.700	1.300																			1580027584.0	8.65	16.02
26/01/2020 08:33:05	26012020	260120	083305	175.530	12.581677	-57.245000	175.450	0.290	-0.390	0.680	175.530	-1.800	1.100																			1580027585.0	8.65	16.02
26/01/2020 08:33:06	26012020	260120	083306	175.690	12.581637	-57.245000	175.630	0.100	-0.410	0.420	175.690	-1.800	0.900																			1580027586.0	8.60	15.93
26/01/2020 08:33:07	26012020	260120	083307	175.920	12.581597	-57.244998	175.860	0.020	-0.530	0.250	175.920	-1.900	0.700																			1580027587.0	8.67	16.06
26/01/2020 08:33:08	26012020	260120	083308	176.160	12.581555	-57.244998	176.100	0.030	-0.680	0.220	176.160	-2.100	0.700																			1580027588.0	8.90	16.48
26/01/2020 08:33:09	26012020	260120	083309	176.290	12.581513	-57.244998	176.200	0.040	-0.740	0.440	176.290	-2.100	0.900																			1580027589.0	9.00	16.67
26/01/2020 08:33:10	26012020	260120	083310	176.190	12.581472	-57.244998	176.070	-0.020	-0.640	0.870	176.190	-2.000	1.300																			1580027590.0	9.05	16.76
26/01/2020 08:33:11	26012020	260120	083311	176.010	12.581430	-57.244998	175.910	-0.180	-0.290	1.320	176.010	-1.700	1.700																			1580027591.0	9.03	16.72
26/01/2020 08:33:12	26012020	260120	083312	175.900	12.581388	-57.244998	175.830	-0.400	0.220	1.740	175.900	-1.200	2.100																			1580027592.0	8.82	16.33
26/01/2020 08:33:13	26012020	260120	083313	175.800	12.581348	-57.245000	175.720	-0.550	0.540	2.020	175.800	-0.900	2.400																			1580027593.0	8.73	16.17
26/01/2020 08:33:14	26012020	260120	083314	175.570	12.581307	-57.245002	175.480	-0.510	0.500	2.130	175.570	-0.900	2.600																			1580027594.0	8.94	16.56
26/01/2020 08:33:15	26012020	260120	083315	175.280	12.581263	-57.245005	175.190	-0.260	0.270	2.060	175.280	-1.100	2.500																			1580027595.0	9.17	16.98
26/01/2020 08:33:16	26012020	260120	083316	175.060	12.581222	-57.245005	174.990	0.100	0.140	1.700	175.060	-1.200	2.200																			1580027596.0	9.10	16.85
26/01/2020 08:33:17	26012020	260120	083317	175.060	12.581182	-57.245003	175.020	0.380	0.180	1.070	175.060	-1.200	1.600																			1580027597.0	8.72	16.15
26/01/2020 08:33:18	26012020	260120	083318	175.270	12.581142	-57.245000	175.240	0.480	0.080	0.450	175.270	-1.300	0.900																			1580027598.0	8.39	15.54
26/01/2020 08:33:19	26012020	260120	083319	175.470	12.581103	-57.244998	175.420	0.500	-0.430	0.220	175.470	-1.800	0.700																			1580027599.0	8.53	15.80
26/01/2020 08:33:20	26012020	260120	083320	175.530	12.581062	-57.244998	175.440	0.500	-1.050	0.320	175.530	-2.400	0.800																			1580027600.0	8.97	16.61
26/01/2020 08:33:21	26012020	260120	083321	175.490	12.581018	-57.244998	175.400	0.410	-1.240	0.560	175.490	-2.600	1.000																			1580027601.0	9.08	16.82
26/01/2020 08:33:22	26012020	260120	083322	175.490	12.580978	-57.244998	175.440	0.140	-0.870	0.790	175.490	-2.300	1.200																			1580027602.0	8.72	16.15
26/01/2020 08:33:23	26012020	260120	083323	175.660	12.580940	-57.245000	175.620	-0.210	-0.300	0.910	175.660	-1.700	1.300																			1580027603.0	8.37	15.50
26/01/2020 08:33:24	26012020	260120	083324	175.850	12.580900	-57.245000	175.800	-0.420	-0.030	0.970	175.850	-1.400	1.400																			1580027604.0	8.45	15.65
26/01/2020 08:33:25	26012020	260120	083325	175.870	12.580858	-57.245000	175.790	-0.360	-0.170	1.020	175.870	-1.500	1.400																			1580027605.0	9.00	16.67
26/01/2020 08:33:26	26012020	260120	083326	175.830	12.580815	-57.244998	175.770	-0.220	-0.290	1.010	175.830	-1.700	1.400																			1580027606.0	9.42	17.45
26/01/2020 08:33:27	26012020	260120	083327	175.860	12.580772	-57.244997	175.820	-0.200	-0.050	1.000	175.870	-1.500	1.400																			1580027607.0	9.25	17.13
26/01/2020 08:33:28	26012020	260120	083328	175.880	12.580730	-57.244995	175.810	-0.340	0.340	1.050	175.880	-1.100	1.500																			1580027608.0	8.79	16.28
26/01/2020 08:33:29	26012020	260120	083329	175.770	12.580690	-57.244997	175.670	-0.450	0.490	1.210	175.770	-0.900	1.600																			1580027609.0	8.64	16.00
26/01/2020 08:33:30	26012020	260120	083330	175.540	12.580650	-57.244998	175.420	-0.310	0.320	1.380	175.540	-1.000	1.800																			1580027610.0	8.89	16.46
26/01/2020 08:33:31	26012020	260120	083331	175.280	12.580607	-57.245000	175.190	0.090	0.050	1.330	175.280	-1.300	1.800																			1580027611.0	9.09	16.83
26/01/2020 08:33:32	26012020	260120	083332	175.160	12.580565	-57.245000	175.100	0.440	-0.100	1.080	175.160	-1.500	1.500																			1580027612.0	8.95	16.58
26/01/2020 08:33:33	26012020	260120	083333	175.220	12.580525	-57.244998	175.180	0.500	-0.160	0.830	175.220	-1.500	1.300																			1580027613.0	8.65	16.02
26/01/2020 08:33:34	26012020	260120	083334	175.340	12.580485	-57.244998	175.280	0.350	-0.320	0.630	175.340	-1.700	1.100																			1580027614.0	8.52	15.78
26/01/2020 08:33:35	26012020	260120	083335	175.410	12.580445	-57.244998	175.350	0.230	-0.570	0.530	175.410	-1.900	1.000																			1580027615.0	8.66	16.04
26/01/2020 08:33:36	26012020	260120	083336	175.490	12.580405	-57.244998	175.430	0.220	-0.680	0.540	175.490	-2.100	1.000																			1580027616.0	8.78	16.26
26/01/2020 08:33:37	26012020	260120	083337	175.650	12.580363	-57.244998	175.600	0.220	-0.610	0.530	175.650	-2.000	1.000																			1580027617.0	8.72	16.15
26/01/2020 08:33:38	26012020	260120	083338	175.930	12.580323	-57.244997	175.880	0.100	-0.430	0.560	175.930	-1.800	1.000																			1580027618.0	8.59	15.91
26/01/2020 08:33:39	26012020	260120	083339	176.040	12.580283	-57.244997	175.940	-0.060	-0.470	0.920	176.040	-1.800	1.300																			1580027619.0	8.67	16.06
26/01/2020 08:33:40	26012020	260120	083340	175.890	12.580242	-57.244998	175.800	-0.130	-0.600	1.370	175.890	-2.000	1.800																			1580027620.0	9.11	16.87
26/01/2020 08:33:41	26012020	260120	083341	175.730	12.580198	-57.244998	175.660	-0.180	-0.410	1.650	175.730	-1.800	2.100																			1580027621.0	9.24	17.11
26/01/2020 08:33:42	26012020	260120	083342	175.630	12.580157	-57.244998	175.570	-0.330	0.080	1.810	175.630	-1.300	2.200																			1580027622.0	8.87	16.43
26/01/2020 08:33:43	26012020	260120	083343	175.550	12.580117	-57.245000	175.480	-0.440	0.460	1.730	175.550	-0.900	2.200																			1580027623.0	8.66	16.04
26/01/2020 08:33:44	26012020	260120	083344	175.450	12.580077	-57.244998	175.380	-0.380	0.540	1.400	175.450	-0.800	1.900																			1580027624.0	8.76	16.22
26/01/2020 08:33:45	26012020	260120	083345	175.400	12.580035	-57.244997	175.330	-0.160	0.310	1.120	175.400	-1.100	1.600																			1580027625.0	8.96	16.59
26/01/2020 08:33:46	26012020	260120	083346	175.340	12.579992	-57.244997	175.250	0.090	-0.060	0.960	175.340	-1.400	1.400																			1580027626.0	9.10	16.85
26/01/2020 08:33:47	26012020	260120	083347	175.270	12.579950	-57.244997	175.180	0.230	-0.280	0.840	175.270	-1.700	1.300																			1580027627.0	9.05	16.76
26/01/2020 08:33:48	26012020	260120	083348	175.300	12.579910	-57.244995	175.230	0.220	-0.300	0.800	175.300	-1.700	1.200																			1580027628.0	8.73	16.17
26/01/2020 08:33:49	26012020	260120	083349	175.490	12.579870	-57.244997	175.440	0.140	-0.280	0.760	175.490	-1.700	1.200																			1580027629.0	8.51	15.76
26/01/2020 08:33:50	26012020	260120	083350	175.680	12.579830	-57.244997	175.600	0.090	-0.390	0.750	175.680	-1.800	1.200																			1580027630.0	8.52	15.78
26/01/2020 08:33:51	26012020	260120	083351	175.690	12.579790	-57.244997	175.580	0.160	-0.720	0.890	175.690	-2.100	1.300																			1580027631.0	8.78	16.26
26/01/2020 08:33:52	26012020	260120	083352	175.570	12.579747	-57.244998	175.480	0.310	-0.910	1.020	175.570	-2.300	1.400																			1580027632.0	9.13	16.91
26/01/2020 08:33:53	26012020	260120	083353	175.560	12.579705	-57.244997	175.490	0.340	-0.570	1.020	175.560	-2.000	1.500																			1580027633.0	8.97	16.61
26/01/2020 08:33:54	26012020	260120	083354	175.630	12.579665	-57.244995	175.580	0.150	0.010	0.960	175.630	-1.400	1.400																			1580027634.0	8.48	15.70
26/01/2020 08:33:55	26012020	260120	083355	175.630	12.579627	-57.244993	175.550	-0.130	0.270	1.020	175.630	-1.100	1.400																			1580027635.0	8.47	15.69
26/01/2020 08:33:56	26012020	260120	083356	175.550	12.579585	-57.244993	175.460	-0.340	0.190	1.160	175.550	-1.200	1.600																			1580027636.0	8.94	16.56
26/01/2020 08:33:57	26012020	260120	083357	175.460	12.579542	-57.244993	175.380	-0.390	0.090	1.300	175.460	-1.300	1.700																			1580027637.0	9.16	16.96
26/01/2020 08:33:58	26012020	260120	083358	175.380	12.579500	-57.244995	175.300	-0.260	0.070	1.320	175.380	-1.300	1.800																			1580027638.0	9.01	16.69
26/01/2020 08:33:59	26012020	260120	083359	175.360	12.579458	-57.244995	175.310	-0.030	-0.010	1.190	175.360	-1.400	1.600																			1580027639.0	8.86	16.41
26/01/2020 08:34:00	26012020	260120	083400	175.430	12.579418	-57.244993	175.370	0.150	-0.200	0.980	175.430	-1.600	1.400	1013.60	25.60	25.60	19.70	19.80	0.00	69.00	70.00	430.00	25.30	314.00	10.10	105.00	7.70	15	3190.00	27.40	27.40	1580027640.0	8.86	16.41
26/01/2020 08:34:01	26012020	260120	083401	175.590	12.579377	-57.244993	175.540	0.200	-0.360	0.750	175.590	-1.800	1.200																			1580027641.0	8.85	16.39
26/01/2020 08:34:02	26012020	260120	083402	175.760	12.579337	-57.244992	175.690	0.140	-0.430	0.620	175.760	-1.800	1.100																			1580027642.0	8.73	16.17
26/01/2020 08:34:03	26012020	260120	083403	175.790	12.579297	-57.244992	175.690	0.070	-0.520	0.690	175.780	-1.900	1.100																			1580027643.0	8.69	16.09
26/01/2020 08:34:04	26012020	260120	083404	175.720	12.579255	-57.244992	175.650	0.010	-0.590	0.890	175.720	-2.000	1.300																			1580027644.0	8.86	16.41
26/01/2020 08:34:05	26012020	260120	083405	175.770	12.579213	-57.244992	175.720	-0.050	-0.450	1.040	175.770	-1.900	1.500																			1580027645.0	8.92	16.52
26/01/2020 08:34:06	26012020	260120	083406	175.880	12.579173	-57.244992	175.830	-0.120	-0.200	1.050	175.880	-1.600	1.500																			1580027646.0	8.76	16.22
26/01/2020 08:34:07	26012020	260120	083407	175.940	12.579132	-57.244992	175.880	-0.150	-0.040	1.000	175.940	-1.400	1.400																			1580027647.0	8.77	16.24
26/01/2020 08:34:08	26012020	260120	083408	176.020	12.579090	-57.244992	175.970	-0.160	0.040	0.970	176.020	-1.400	1.400																			1580027648.0	8.91	16.50
26/01/2020 08:34:09	26012020	260120	083409	176.150	12.579048	-57.244992	176.100	-0.170	0.080	1.030	176.150	-1.300	1.500																			1580027649.0	8.94	16.56
26/01/2020 08:34:10	26012020	260120	083410	176.220	12.579007	-57.244992	176.150	-0.120	0.080	1.020	176.220	-1.300	1.500																			1580027650.0	8.90	16.48
26/01/2020 08:34:11	26012020	260120	083411	176.210	12.578967	-57.244992	176.120	0.000	0.040	0.910	176.210	-1.400	1.400																			1580027651.0	8.87	16.43
26/01/2020 08:34:12	26012020	260120	083412	176.190	12.578925	-57.244992	176.100	0.150	-0.060	0.750	176.190	-1.400	1.200																			1580027652.0	8.85	16.39
26/01/2020 08:34:13	26012020	260120	083413	176.260	12.578883	-57.244990	176.190	0.240	-0.140	0.490	176.260	-1.500	0.900																			1580027653.0	8.80	16.30
26/01/2020 08:34:14	26012020	260120	083414	176.380	12.578843	-57.244988	176.290	0.210	-0.250	0.320	176.380	-1.600	0.800																			1580027654.0	8.71	16.13
26/01/2020 08:34:15	26012020	260120	083415	176.380	12.578803	-57.244988	176.260	0.160	-0.450	0.320	176.380	-1.800	0.800																			1580027655.0	8.77	16.24
26/01/2020 08:34:16	26012020	260120	083416	176.270	12.578762	-57.244988	176.150	0.100	-0.610	0.500	176.270	-2.000	0.900																			1580027656.0	8.91	16.50
26/01/2020 08:34:17	26012020	260120	083417	176.110	12.578720	-57.244988	176.000	0.020	-0.590	0.850	176.110	-2.000	1.300																			1580027657.0	8.96	16.59
26/01/2020 08:34:18	26012020	260120	083418	176.000	12.578678	-57.244992	175.910	-0.080	-0.340	1.060	176.000	-1.800	1.500																			1580027658.0	8.86	16.41
26/01/2020 08:34:19	26012020	260120	083419	176.020	12.578638	-57.244992	175.950	-0.200	0.020	0.990	176.020	-1.400	1.400																			1580027659.0	8.66	16.04
26/01/2020 08:34:20	26012020	260120	083420	176.160	12.578598	-57.244992	176.090	-0.260	0.130	0.790	176.160	-1.300	1.200																			1580027660.0	8.65	16.02
26/01/2020 08:34:21	26012020	260120	083421	176.280	12.578557	-57.244992	176.200	-0.210	-0.070	0.670	176.280	-1.400	1.100																			1580027661.0	8.92	16.52
26/01/2020 08:34:22	26012020	260120	083422	176.320	12.578513	-57.244990	176.250	-0.070	-0.330	0.650	176.320	-1.700	1.100																			1580027662.0	9.21	17.06
26/01/2020 08:34:23	26012020	260120	083423	176.400	12.578472	-57.244990	176.350	0.010	-0.300	0.710	176.400	-1.700	1.100																			1580027663.0	9.12	16.89
26/01/2020 08:34:24	26012020	260120	083424	176.480	12.578432	-57.244990	176.400	-0.030	-0.120	0.890	176.480	-1.500	1.300																			1580027664.0	8.73	16.17
26/01/2020 08:34:25	26012020	260120	083425	176.400	12.578390	-57.244992	176.300	-0.070	-0.150	1.150	176.400	-1.500	1.600																			1580027665.0	8.72	16.15
26/01/2020 08:34:26	26012020	260120	083426	176.250	12.578348	-57.244993	176.160	-0.030	-0.270	1.380	176.250	-1.700	1.800																			1580027666.0	9.01	16.69
26/01/2020 08:34:27	26012020	260120	083427	176.100	12.578307	-57.244995	176.000	0.060	-0.250	1.540	176.100	-1.600	2.000																			1580027667.0	9.06	16.78
26/01/2020 08:34:28	26012020	260120	083428	175.950	12.578265	-57.244995	175.880	0.130	-0.080	1.510	175.950	-1.500	1.900																			1580027668.0	8.90	16.48
26/01/2020 08:34:29	26012020	260120	083429	175.950	12.578225	-57.244995	175.910	0.130	0.150	1.190	175.950	-1.300	1.600																			1580027669.0	8.71	16.13
26/01/2020 08:34:30	26012020	260120	083430	176.120	12.578185	-57.244995	176.090	0.080	0.270	0.780	176.120	-1.100	1.200																			1580027670.0	8.59	15.91
26/01/2020 08:34:31	26012020	260120	083431	176.290	12.578145	-57.244992	176.230	0.100	0.050	0.450	176.290	-1.300	0.900																			1580027671.0	8.68	16.08
26/01/2020 08:34:32	26012020	260120	083432	176.360	12.578102	-57.244992	176.300	0.180	-0.390	0.360	176.360	-1.700	0.800																			1580027672.0	8.99	16.65
26/01/2020 08:34:33	26012020	260120	083433	176.430	12.578060	-57.244990	176.360	0.190	-0.630	0.490	176.430	-2.000	0.900																			1580027673.0	9.08	16.82
26/01/2020 08:34:34	26012020	260120	083434	176.430	12.578020	-57.244992	176.340	0.090	-0.620	0.720	176.430	-2.000	1.100																			1580027674.0	8.80	16.30
26/01/2020 08:34:35	26012020	260120	083435	176.340	12.577978	-57.244992	176.250	-0.070	-0.590	0.910	176.340	-2.000	1.300																			1580027675.0	8.70	16.11
26/01/2020 08:34:36	26012020	260120	083436	176.330	12.577937	-57.244993	176.260	-0.170	-0.560	0.970	176.330	-1.900	1.400																			1580027676.0	8.90	16.48
26/01/2020 08:34:37	26012020	260120	083437	176.470	12.577895	-57.244993	176.420	-0.210	-0.360	0.840	176.470	-1.800	1.300																			1580027677.0	8.96	16.59
26/01/2020 08:34:38	26012020	260120	083438	176.670	12.577855	-57.244993	176.620	-0.250	-0.080	0.630	176.670	-1.500	1.100																			1580027678.0	8.81	16.32
26/01/2020 08:34:39	26012020	260120	083439	176.740	12.577813	-57.244993	176.660	-0.240	-0.000	0.590	176.740	-1.400	1.000																			1580027679.0	8.83	16.35
26/01/2020 08:34:40	26012020	260120	083440	176.550	12.577772	-57.244993	176.430	-0.170	-0.140	0.890	176.550	-1.500	1.300																			1580027680.0	9.15	16.95
26/01/2020 08:34:41	26012020	260120	083441	176.230	12.577728	-57.244995	176.140	-0.120	-0.110	1.300	176.230	-1.500	1.700																			1580027681.0	9.34	17.30
26/01/2020 08:34:42	26012020	260120	083442	176.080	12.577685	-57.244997	176.030	-0.110	0.270	1.450	176.080	-1.100	1.900																			1580027682.0	9.02	16.71
26/01/2020 08:34:43	26012020	260120	083443	176.110	12.577647	-57.244998	176.070	-0.030	0.650	1.240	176.110	-0.800	1.700																			1580027683.0	8.51	15.76
26/01/2020 08:34:44	26012020	260120	083444	176.230	12.577607	-57.244998	176.180	0.210	0.550	0.850	176.230	-0.800	1.300																			1580027684.0	8.48	15.70
26/01/2020 08:34:45	26012020	260120	083445	176.330	12.577565	-57.244997	176.270	0.490	-0.040	0.550	176.330	-1.400	1.000																			1580027685.0	8.86	16.41
26/01/2020 08:34:46	26012020	260120	083446	176.380	12.577523	-57.244995	176.300	0.570	-0.700	0.430	176.380	-2.000	0.900																			1580027686.0	9.19	17.02
26/01/2020 08:34:47	26012020	260120	083447	176.400	12.577480	-57.244995	176.330	0.380	-1.020	0.590	176.400	-2.400	1.000																			1580027687.0	9.07	16.80
26/01/2020 08:34:48	26012020	260120	083448	176.390	12.577440	-57.244997	176.310	0.080	-0.960	0.900	176.390	-2.400	1.300																			1580027688.0	8.76	16.22
26/01/2020 08:34:49	26012020	260120	083449	176.360	12.577400	-57.244998	176.290	-0.130	-0.700	1.090	176.360	-2.100	1.500																			1580027689.0	8.59	15.91
26/01/2020 08:34:50	26012020	260120	083450	176.350	12.577360	-57.245000	176.280	-0.200	-0.490	1.200	176.350	-1.900	1.600																			1580027690.0	8.64	16.00
26/01/2020 08:34:51	26012020	260120	083451	176.280	12.577318	-57.245000	176.200	-0.200	-0.430	1.270	176.280	-1.800	1.700																			1580027691.0	8.94	16.56
26/01/2020 08:34:52	26012020	260120	083452	176.220	12.577275	-57.245000	176.150	-0.250	-0.290	1.170	176.220	-1.700	1.600																			1580027692.0	9.23	17.09
26/01/2020 08:34:53	26012020	260120	083453	176.320	12.577233	-57.245000	176.280	-0.400	0.110	0.970	176.320	-1.300	1.400																			1580027693.0	9.11	16.87
26/01/2020 08:34:54	26012020	260120	083454	176.550	12.577192	-57.245000	176.500	-0.510	0.550	0.830	176.550	-0.900	1.300																			1580027694.0	8.76	16.22
26/01/2020 08:34:55	26012020	260120	083455	176.700	12.577152	-57.245002	176.630	-0.380	0.610	0.740	176.700	-0.800	1.200																			1580027695.0	8.73	16.17
26/01/2020 08:34:56	26012020	260120	083456	176.730	12.577110	-57.245002	176.650	-0.020	0.310	0.660	176.730	-1.000	1.100																			1580027696.0	9.05	16.76
26/01/2020 08:34:57	26012020	260120	083457	176.700	12.577067	-57.245002	176.600	0.320	-0.050	0.690	176.700	-1.400	1.100																			1580027697.0	9.18	17.00
26/01/2020 08:34:58	26012020	260120	083458	176.560	12.577025	-57.245002	176.460	0.480	-0.290	0.770	176.560	-1.700	1.200																			1580027698.0	9.02	16.71
26/01/2020 08:34:59	26012020	260120	083459	176.360	12.576985	-57.245002	176.250	0.500	-0.370	0.810	176.360	-1.800	1.200																			1580027699.0	8.77	16.24
26/01/2020 08:35:00	26012020	260120	083500	176.160	12.576945	-57.245002	176.060	0.460	-0.430	0.920	176.160	-1.800	1.300	1013.70	25.60	25.70	19.80	19.90	0.00	70.00	70.00	430.00	25.30	316.00	9.70	106.00	7.10	15	3303.00	27.40	27.40	1580027700.0	8.62	15.96
26/01/2020 08:35:01	26012020	260120	083501	176.010	12.576903	-57.245002	175.920	0.370	-0.560	1.070	176.010	-1.900	1.500																			1580027701.0	8.72	16.15
26/01/2020 08:35:02	26012020	260120	083502	175.880	12.576862	-57.245003	175.790	0.190	-0.630	1.250	175.880	-2.000	1.700																			1580027702.0	8.89	16.46
26/01/2020 08:35:03	26012020	260120	083503	175.780	12.576822	-57.245003	175.730	-0.090	-0.510	1.400	175.780	-1.900	1.800																			1580027703.0	8.91	16.50
26/01/2020 08:35:04	26012020	260120	083504	175.800	12.576780	-57.245005	175.770	-0.380	-0.280	1.410	175.800	-1.700	1.800																			1580027704.0	8.81	16.32
26/01/2020 08:35:05	26012020	260120	083505	175.950	12.576738	-57.245007	175.920	-0.540	-0.130	1.310	175.950	-1.500	1.800																			1580027705.0	8.81	16.32
26/01/2020 08:35:06	26012020	260120	083506	176.090	12.576697	-57.245008	176.040	-0.480	-0.120	1.130	176.090	-1.500	1.600																			1580027706.0	8.98	16.63
26/01/2020 08:35:07	26012020	260120	083507	176.160	12.576655	-57.245010	176.110	-0.250	-0.130	0.820	176.170	-1.500	1.300																			1580027707.0	9.09	16.83
26/01/2020 08:35:08	26012020	260120	083508	176.180	12.576613	-57.245008	176.110	0.020	-0.090	0.490	176.180	-1.500	0.900																			1580027708.0	9.04	16.74
26/01/2020 08:35:09	26012020	260120	083509	176.120	12.576572	-57.245007	176.030	0.150	0.020	0.330	176.120	-1.400	0.800																			1580027709.0	8.92	16.52
26/01/2020 08:35:10	26012020	260120	083510	175.970	12.576532	-57.245003	175.860	0.130	0.120	0.430	175.970	-1.300	0.900																			1580027710.0	8.78	16.26
26/01/2020 08:35:11	26012020	260120	083511	175.780	12.576490	-57.245003	175.670	0.080	0.070	0.720	175.780	-1.300	1.100																			1580027711.0	8.77	16.24
26/01/2020 08:35:12	26012020	260120	083512	175.580	12.576448	-57.245003	175.490	0.100	-0.130	1.090	175.580	-1.500	1.500																			1580027712.0	8.95	16.58
26/01/2020 08:35:13	26012020	260120	083513	175.420	12.576407	-57.245007	175.350	0.190	-0.270	1.380	175.420	-1.700	1.800																			1580027713.0	9.05	16.76
26/01/2020 08:35:14	26012020	260120	083514	175.320	12.576365	-57.245008	175.260	0.240	-0.300	1.530	175.320	-1.700	2.000																			1580027714.0	8.92	16.52
26/01/2020 08:35:15	26012020	260120	083515	175.330	12.576325	-57.245008	175.280	0.200	-0.270	1.440	175.330	-1.700	1.900																			1580027715.0	8.78	16.26
26/01/2020 08:35:16	26012020	260120	083516	175.440	12.576283	-57.245008	175.390	0.090	-0.320	1.220	175.440	-1.700	1.700																			1580027716.0	8.75	16.21
26/01/2020 08:35:17	26012020	260120	083517	175.540	12.576242	-57.245007	175.480	-0.010	-0.440	1.040	175.540	-1.800	1.500																			1580027717.0	8.89	16.46
26/01/2020 08:35:18	26012020	260120	083518	175.620	12.576200	-57.245007	175.560	-0.090	-0.420	0.880	175.620	-1.800	1.300																			1580027718.0	8.93	16.54
26/01/2020 08:35:19	26012020	260120	083519	175.670	12.576160	-57.245007	175.590	-0.140	-0.290	0.830	175.670	-1.700	1.300																			1580027719.0	8.80	16.30
26/01/2020 08:35:20	26012020	260120	083520	175.690	12.576118	-57.245005	175.630	-0.200	-0.200	0.810	175.690	-1.600	1.200																			1580027720.0	8.82	16.33
26/01/2020 08:35:21	26012020	260120	083521	175.740	12.576077	-57.245005	175.670	-0.240	-0.130	0.920	175.740	-1.500	1.300																			1580027721.0	8.90	16.48
26/01/2020 08:35:22	26012020	260120	083522	175.710	12.576035	-57.245007	175.630	-0.190	-0.050	1.150	175.710	-1.400	1.600																			1580027722.0	8.93	16.54
26/01/2020 08:35:23	26012020	260120	083523	175.650	12.575995	-57.245007	175.570	-0.050	0.020	1.300	175.650	-1.400	1.700																			1580027723.0	8.91	16.50
26/01/2020 08:35:24	26012020	260120	083524	175.580	12.575953	-57.245007	175.520	0.090	0.050	1.350	175.580	-1.300	1.800																			1580027724.0	8.89	16.46
26/01/2020 08:35:25	26012020	260120	083525	175.560	12.575912	-57.245007	175.490	0.140	-0.040	1.340	175.560	-1.400	1.800																			1580027725.0	8.87	16.43
26/01/2020 08:35:26	26012020	260120	083526	175.520	12.575870	-57.245007	175.440	0.140	-0.220	1.280	175.520	-1.600	1.700																			1580027726.0	8.94	16.56
26/01/2020 08:35:27	26012020	260120	083527	175.470	12.575828	-57.245007	175.400	0.140	-0.340	1.180	175.470	-1.700	1.600																			1580027727.0	8.97	16.61
26/01/2020 08:35:28	26012020	260120	083528	175.420	12.575787	-57.245007	175.350	0.130	-0.350	1.070	175.420	-1.700	1.500																			1580027728.0	8.86	16.41
26/01/2020 08:35:29	26012020	260120	083529	175.380	12.575747	-57.245007	175.300	0.110	-0.310	0.880	175.380	-1.700	1.300																			1580027729.0	8.81	16.32
26/01/2020 08:35:30	26012020	260120	083530	175.360	12.575705	-57.245005	175.300	0.060	-0.260	0.710	175.360	-1.600	1.200																			1580027730.0	8.79	16.28
26/01/2020 08:35:31	26012020	260120	083531	175.410	12.575665	-57.245003	175.350	-0.020	-0.230	0.640	175.410	-1.600	1.100																			1580027731.0	8.81	16.32
26/01/2020 08:35:32	26012020	260120	083532	175.470	12.575623	-57.245002	175.400	-0.100	-0.220	0.650	175.470	-1.600	1.100																			1580027732.0	8.85	16.39
26/01/2020 08:35:33	26012020	260120	083533	175.470	12.575582	-57.245002	175.400	-0.140	-0.290	0.780	175.470	-1.700	1.200																			1580027733.0	8.90	16.48
26/01/2020 08:35:34	26012020	260120	083534	175.540	12.575540	-57.245002	175.490	-0.130	-0.340	0.910	175.540	-1.700	1.300																			1580027734.0	9.06	16.78
26/01/2020 08:35:35	26012020	260120	083535	175.770	12.575498	-57.245002	175.740	-0.160	-0.220	0.960	175.770	-1.600	1.400																			1580027735.0	8.98	16.63
26/01/2020 08:35:36	26012020	260120	083536	175.970	12.575457	-57.245003	175.910	-0.210	-0.100	1.080	175.970	-1.500	1.500																			1580027736.0	8.79	16.28
26/01/2020 08:35:37	26012020	260120	083537	175.930	12.575417	-57.245003	175.830	-0.190	-0.110	1.280	175.930	-1.500	1.700																			1580027737.0	8.84	16.37
26/01/2020 08:35:38	26012020	260120	083538	175.670	12.575373	-57.245005	175.550	-0.050	-0.170	1.460	175.670	-1.500	1.900																			1580027738.0	9.02	16.71
26/01/2020 08:35:39	26012020	260120	083539	175.350	12.575332	-57.245005	175.250	0.130	-0.140	1.480	175.350	-1.500	1.900																			1580027739.0	9.06	16.78
26/01/2020 08:35:40	26012020	260120	083540	175.220	12.575290	-57.245003	175.150	0.160	0.080	1.300	175.220	-1.300	1.700																			1580027740.0	8.88	16.45
26/01/2020 08:35:41	26012020	260120	083541	175.270	12.575250	-57.245002	175.190	0.030	0.210	1.050	175.270	-1.200	1.500																			1580027741.0	8.61	15.95
26/01/2020 08:35:42	26012020	260120	083542	175.280	12.575210	-57.245002	175.180	-0.020	-0.010	0.850	175.280	-1.400	1.300																			1580027742.0	8.69	16.09
26/01/2020 08:35:43	26012020	260120	083543	175.180	12.575168	-57.245002	175.050	0.120	-0.460	0.770	175.160	-1.800	1.200																			1580027743.0	9.06	16.78
26/01/2020 08:35:44	26012020	260120	083544	175.150	12.575125	-57.245002	175.080	0.280	-0.710	0.670	175.150	-2.100	1.100																			1580027744.0	9.23	17.09
26/01/2020 08:35:45	26012020	260120	083545	175.350	12.575083	-57.245000	175.330	0.220	-0.540	0.580	175.350	-1.900	1.000																			1580027745.0	8.92	16.52
26/01/2020 08:35:46	26012020	260120	083546	175.690	12.575043	-57.245000	175.660	-0.050	-0.180	0.530	175.690	-1.600	1.000																			1580027746.0	8.53	15.80
26/01/2020 08:35:47	26012020	260120	083547	176.010	12.575005	-57.245000	175.970	-0.280	-0.000	0.520	176.010	-1.400	1.000																			1580027747.0	8.48	15.70
26/01/2020 08:35:48	26012020	260120	083548	176.200	12.574963	-57.245000	176.130	-0.230	-0.130	0.590	176.200	-1.500	1.000																			1580027748.0	8.79	16.28
26/01/2020 08:35:49	26012020	260120	083549	176.260	12.574922	-57.244998	176.190	0.020	-0.340	0.670	176.260	-1.700	1.100																			1580027749.0	9.14	16.93
26/01/2020 08:35:50	26012020	260120	083550	176.220	12.574878	-57.244997	176.140	0.140	-0.350	0.900	176.220	-1.700	1.300																			1580027750.0	9.13	16.91
26/01/2020 08:35:51	26012020	260120	083551	176.020	12.574837	-57.244995	175.920	-0.030	-0.260	1.420	176.020	-1.700	1.800																			1580027751.0	8.91	16.50
26/01/2020 08:35:52	26012020	260120	083552	175.710	12.574797	-57.244997	175.600	-0.300	-0.210	1.930	175.710	-1.600	2.300																			1580027752.0	8.94	16.56
26/01/2020 08:35:53	26012020	260120	083553	175.350	12.574753	-57.245002	175.250	-0.380	-0.170	2.190	175.350	-1.600	2.600																			1580027753.0	9.05	16.76
26/01/2020 08:35:54	26012020	260120	083554	175.020	12.574712	-57.245003	174.930	-0.170	-0.140	2.030	175.020	-1.500	2.500																			1580027754.0	9.07	16.80
26/01/2020 08:35:55	26012020	260120	083555	174.870	12.574670	-57.245003	174.800	0.140	-0.030	1.470	174.870	-1.400	2.000																			1580027755.0	9.03	16.72
26/01/2020 08:35:56	26012020	260120	083556	175.000	12.574628	-57.245002	174.970	0.260	0.160	0.770	175.000	-1.200	1.300																			1580027756.0	8.80	16.30
26/01/2020 08:35:57	26012020	260120	083557	175.200	12.574590	-57.244998	175.180	0.180	0.200	0.240	175.240	-1.200	0.700																			1580027757.0	8.58	15.89
26/01/2020 08:35:58	26012020	260120	083558	175.380	12.574548	-57.244997	175.290	0.130	-0.120	0.090	175.380	-1.500	0.500																			1580027758.0	8.74	16.19
26/01/2020 08:35:59	26012020	260120	083559	175.450	12.574507	-57.244995	175.380	0.180	-0.470	0.200	175.450	-1.900	0.600																			1580027759.0	9.12	16.89
26/01/2020 08:36:00	26012020	260120	083600	175.680	12.574465	-57.244995	175.640	0.180	-0.400	0.300	175.680	-1.800	0.700	1013.60	25.60	25.70	19.90	20.00	0.00	70.00	70.00	431.00	25.40	315.00	9.90	105.00	7.40	15	3278.00	27.40	27.40	1580027760.0	8.99	16.65
26/01/2020 08:36:01	26012020	260120	083601	175.970	12.574425	-57.244995	175.930	0.040	-0.150	0.400	175.970	-1.600	0.800																			1580027761.0	8.49	15.72
26/01/2020 08:36:02	26012020	260120	083602	176.160	12.574385	-57.244995	176.100	-0.090	-0.210	0.550	176.160	-1.600	1.000																			1580027762.0	8.49	15.72
26/01/2020 08:36:03	26012020	260120	083603	176.210	12.574343	-57.244995	176.140	-0.070	-0.520	0.800	176.210	-1.900	1.200																			1580027763.0	8.95	16.58
26/01/2020 08:36:04	26012020	260120	083604	176.100	12.574302	-57.244995	176.000	0.060	-0.710	1.070	176.100	-2.100	1.500																			1580027764.0	9.20	17.04
26/01/2020 08:36:05	26012020	260120	083605	175.830	12.574258	-57.244993	175.730	0.090	-0.620	1.320	175.830	-2.000	1.700																			1580027765.0	9.08	16.82
26/01/2020 08:36:06	26012020	260120	083606	175.550	12.574218	-57.244993	175.470	-0.100	-0.300	1.530	175.550	-1.700	2.000																			1580027766.0	8.90	16.48
26/01/2020 08:36:07	26012020	260120	083607	175.370	12.574177	-57.244993	175.310	-0.390	0.090	1.630	175.370	-1.300	2.100																			1580027767.0	8.75	16.21
26/01/2020 08:36:08	26012020	260120	083608	175.270	12.574137	-57.244995	175.210	-0.510	0.310	1.590	175.270	-1.100	2.000																			1580027768.0	8.74	16.19
26/01/2020 08:36:09	26012020	260120	083609	175.160	12.574095	-57.244998	175.090	-0.280	0.240	1.350	175.160	-1.100	1.800																			1580027769.0	8.95	16.58
26/01/2020 08:36:10	26012020	260120	083610	175.100	12.574052	-57.244998	175.040	0.170	0.030	0.990	175.100	-1.300	1.500																			1580027770.0	9.14	16.93
26/01/2020 08:36:11	26012020	260120	083611	175.210	12.574010	-57.244995	175.180	0.450	-0.070	0.610	175.210	-1.500	1.100																			1580027771.0	9.08	16.82
26/01/2020 08:36:12	26012020	260120	083612	175.490	12.573968	-57.244993	175.460	0.370	-0.050	0.340	175.490	-1.400	0.800																			1580027772.0	8.80	16.30
26/01/2020 08:36:13	26012020	260120	083613	175.740	12.573928	-57.244992	175.700	0.140	-0.120	0.320	175.740	-1.500	0.800																			1580027773.0	8.61	15.95
26/01/2020 08:36:14	26012020	260120	083614	175.900	12.573888	-57.244992	175.860	0.020	-0.330	0.430	175.900	-1.700	0.900																			1580027774.0	8.77	16.24
26/01/2020 08:36:15	26012020	260120	083615	176.080	12.573847	-57.244993	176.050	0.040	-0.510	0.580	176.080	-1.900	1.000																			1580027775.0	8.92	16.52
26/01/2020 08:36:16	26012020	260120	083616	176.240	12.573805	-57.244993	176.200	0.100	-0.560	0.810	176.240	-1.900	1.200																			1580027776.0	8.88	16.45
26/01/2020 08:36:17	26012020	260120	083617	176.320	12.573765	-57.244993	176.260	0.110	-0.520	1.020	176.320	-1.900	1.500																			1580027777.0	8.81	16.32
26/01/2020 08:36:18	26012020	260120	083618	176.250	12.573723	-57.244992	176.180	0.020	-0.430	1.240	176.250	-1.800	1.700																			1580027778.0	8.79	16.28
26/01/2020 08:36:19	26012020	260120	083619	176.100	12.573683	-57.244992	176.020	-0.130	-0.320	1.460	176.100	-1.700	1.900																			1580027779.0	8.82	16.33
26/01/2020 08:36:20	26012020	260120	083620	175.930	12.573642	-57.244992	175.860	-0.250	-0.210	1.570	175.930	-1.600	2.000																			1580027780.0	8.95	16.58
26/01/2020 08:36:21	26012020	260120	083621	175.820	12.573600	-57.244992	175.750	-0.300	-0.050	1.430	175.820	-1.400	1.900																			1580027781.0	8.96	16.59
26/01/2020 08:36:22	26012020	260120	083622	175.770	12.573558	-57.244992	175.720	-0.250	0.100	1.120	175.770	-1.300	1.600																			1580027782.0	8.89	16.46
26/01/2020 08:36:23	26012020	260120	083623	175.860	12.573517	-57.244992	175.830	-0.120	0.140	0.750	175.860	-1.200	1.200																			1580027783.0	8.89	16.46
26/01/2020 08:36:24	26012020	260120	083624	176.010	12.573475	-57.244990	175.960	0.040	0.070	0.530	176.010	-1.300	1.000																			1580027784.0	8.93	16.54
26/01/2020 08:36:25	26012020	260120	083625	176.110	12.573433	-57.244990	176.060	0.190	-0.060	0.460	176.110	-1.400	0.900																			1580027785.0	8.95	16.58
26/01/2020 08:36:26	26012020	260120	083626	176.220	12.573392	-57.244990	176.180	0.240	-0.170	0.550	176.220	-1.500	1.000																			1580027786.0	8.92	16.52
26/01/2020 08:36:27	26012020	260120	083627	176.290	12.573352	-57.244990	176.240	0.210	-0.280	0.740	176.290	-1.700	1.200																			1580027787.0	8.85	16.39
26/01/2020 08:36:28	26012020	260120	083628	176.270	12.573310	-57.244992	176.220	0.150	-0.360	0.930	176.270	-1.700	1.400																			1580027788.0	8.87	16.43
26/01/2020 08:36:29	26012020	260120	083629	176.270	12.573268	-57.244993	176.230	0.110	-0.360	0.990	176.270	-1.700	1.400																			1580027789.0	8.84	16.37
26/01/2020 08:36:30	26012020	260120	083630	176.360	12.573228	-57.244993	176.320	0.070	-0.260	1.000	176.360	-1.600	1.400																			1580027790.0	8.75	16.21
26/01/2020 08:36:31	26012020	260120	083631	176.450	12.573187	-57.244992	176.400	0.040	-0.170	0.930	176.450	-1.600	1.400																			1580027791.0	8.69	16.09
26/01/2020 08:36:32	26012020	260120	083632	176.440	12.573147	-57.244990	176.370	0.020	-0.250	0.820	176.440	-1.600	1.300																			1580027792.0	8.79	16.28
26/01/2020 08:36:33	26012020	260120	083633	176.390	12.573105	-57.244990	176.310	-0.010	-0.420	0.730	176.380	-1.800	1.200																			1580027793.0	9.03	16.72
26/01/2020 08:36:34	26012020	260120	083634	176.390	12.573062	-57.244988	176.350	-0.120	-0.360	0.680	176.390	-1.800	1.100																			1580027794.0	9.09	16.83
26/01/2020 08:36:35	26012020	260120	083635	176.530	12.573022	-57.244988	176.480	-0.280	-0.040	0.670	176.530	-1.500	1.100																			1580027795.0	8.72	16.15
26/01/2020 08:36:36	26012020	260120	083636	176.580	12.572982	-57.244990	176.510	-0.310	0.020	0.700	176.580	-1.400	1.100																			1580027796.0	8.54	15.82
26/01/2020 08:36:37	26012020	260120	083637	176.480	12.572940	-57.244992	176.400	-0.110	-0.350	0.780	176.480	-1.700	1.200																			1580027797.0	9.00	16.67
26/01/2020 08:36:38	26012020	260120	083638	176.350	12.572897	-57.244992	176.290	0.160	-0.690	0.940	176.350	-2.100	1.400																			1580027798.0	9.48	17.56
26/01/2020 08:36:39	26012020	260120	083639	176.360	12.572853	-57.244992	176.330	0.200	-0.490	1.000	176.360	-1.900	1.400																			1580027799.0	9.29	17.21
26/01/2020 08:36:40	26012020	260120	083640	176.440	12.572813	-57.244993	176.410	-0.050	0.070	0.970	176.440	-1.400	1.400																			1580027800.0	8.66	16.04
26/01/2020 08:36:41	26012020	260120	083641	176.530	12.572773	-57.244993	176.490	-0.330	0.450	0.890	176.530	-0.900	1.300																			1580027801.0	8.42	15.59
26/01/2020 08:36:42	26012020	260120	083642	176.650	12.572733	-57.244995	176.600	-0.310	0.360	0.710	176.650	-1.000	1.200																			1580027802.0	8.65	16.02
26/01/2020 08:36:43	26012020	260120	083643	176.640	12.572690	-57.244995	176.560	0.020	-0.120	0.610	176.640	-1.500	1.100																			1580027803.0	9.15	16.95
26/01/2020 08:36:44	26012020	260120	083644	176.500	12.572647	-57.244995	176.420	0.350	-0.460	0.670	176.500	-1.800	1.100																			1580027804.0	9.40	17.41
26/01/2020 08:36:45	26012020	260120	083645	176.440	12.572605	-57.244995	176.380	0.370	-0.270	0.780	176.440	-1.700	1.200																			1580027805.0	9.02	16.71
26/01/2020 08:36:46	26012020	260120	083646	176.520	12.572567	-57.244995	176.480	0.130	0.130	0.830	176.520	-1.300	1.300																			1580027806.0	8.41	15.58
26/01/2020 08:36:47	26012020	260120	083647	176.630	12.572527	-57.244997	176.610	-0.050	0.190	0.870	176.650	-1.200	1.300																			1580027807.0	8.31	15.39
26/01/2020 08:36:48	26012020	260120	083648	176.730	12.572487	-57.244998	176.700	0.030	-0.180	0.940	176.730	-1.500	1.400																			1580027808.0	8.74	16.19
26/01/2020 08:36:49	26012020	260120	083649	176.860	12.572445	-57.244998	176.830	0.240	-0.580	0.880	176.860	-1.900	1.300																			1580027809.0	9.09	16.83
26/01/2020 08:36:50	26012020	260120	083650	176.950	12.572403	-57.244998	176.910	0.370	-0.760	0.780	176.950	-2.100	1.200																			1580027810.0	8.97	16.61
26/01/2020 08:36:51	26012020	260120	083651	176.930	12.572362	-57.244997	176.860	0.300	-0.820	0.750	176.930	-2.200	1.200																			1580027811.0	8.84	16.37
26/01/2020 08:36:52	26012020	260120	083652	176.790	12.572320	-57.244997	176.710	0.060	-0.840	0.930	176.790	-2.200	1.300																			1580027812.0	8.92	16.52
26/01/2020 08:36:53	26012020	260120	083653	176.590	12.572278	-57.244998	176.540	-0.280	-0.680	1.260	176.590	-2.100	1.700																			1580027813.0	9.08	16.82
26/01/2020 08:36:54	26012020	260120	083654	176.490	12.572237	-57.245000	176.450	-0.590	-0.240	1.540	176.490	-1.700	2.000																			1580027814.0	9.03	16.72
26/01/2020 08:36:55	26012020	260120	083655	176.400	12.572195	-57.245003	176.350	-0.730	0.200	1.710	176.400	-1.200	2.100																			1580027815.0	8.88	16.45
26/01/2020 08:36:56	26012020	260120	083656	176.240	12.572153	-57.245007	176.200	-0.590	0.370	1.730	176.240	-1.000	2.200																			1580027816.0	9.03	16.72
26/01/2020 08:36:57	26012020	260120	083657	176.180	12.572110	-57.245008	176.150	-0.280	0.410	1.510	176.180	-1.000	2.000																			1580027817.0	9.24	17.11
26/01/2020 08:36:58	26012020	260120	083658	176.210	12.572068	-57.245007	176.170	0.020	0.450	1.090	176.210	-0.900	1.600																			1580027818.0	9.10	16.85
26/01/2020 08:36:59	26012020	260120	083659	176.230	12.572027	-57.245005	176.180	0.200	0.380	0.680	176.230	-1.000	1.200																			1580027819.0	8.88	16.45
26/01/2020 08:37:00	26012020	260120	083700	176.280	12.571985	-57.245003	176.230	0.250	0.170	0.440	176.280	-1.200	0.900	1013.60	25.60	25.70	20.10	20.20	0.00	71.00	71.00	431.00	25.40	316.00	10.30	108.00	7.70	15	3235.00	27.40	27.40	1580027820.0	8.83	16.35
26/01/2020 08:37:01	26012020	260120	083701	176.370	12.571945	-57.245003	176.320	0.230	-0.030	0.450	176.370	-1.400	0.900																			1580027821.0	8.74	16.19
26/01/2020 08:37:02	26012020	260120	083702	176.420	12.571905	-57.245003	176.350	0.290	-0.290	0.630	176.420	-1.700	1.100																			1580027822.0	8.60	15.93
26/01/2020 08:37:03	26012020	260120	083703	176.370	12.571865	-57.245005	176.280	0.500	-0.640	0.790	176.370	-2.000	1.200																			1580027823.0	8.67	16.06
26/01/2020 08:37:04	26012020	260120	083704	176.230	12.571823	-57.245005	176.150	0.660	-0.900	0.940	176.230	-2.300	1.400																			1580027824.0	8.83	16.35
26/01/2020 08:37:05	26012020	260120	083705	176.130	12.571783	-57.245005	176.080	0.510	-0.860	1.140	176.130	-2.300	1.600																			1580027825.0	8.78	16.26
26/01/2020 08:37:06	26012020	260120	083706	176.160	12.571742	-57.245007	176.100	0.090	-0.660	1.290	176.160	-2.100	1.700																			1580027826.0	8.65	16.02
26/01/2020 08:37:07	26012020	260120	083707	176.120	12.571702	-57.245008	176.050	-0.260	-0.480	1.340	176.120	-1.900	1.800																			1580027827.0	8.71	16.13
26/01/2020 08:37:08	26012020	260120	083708	175.990	12.571660	-57.245010	175.920	-0.340	-0.390	1.330	175.990	-1.800	1.800																			1580027828.0	8.96	16.59
26/01/2020 08:37:09	26012020	260120	083709	175.870	12.571618	-57.245010	175.800	-0.270	-0.260	1.250	175.870	-1.600	1.700																			1580027829.0	9.14	16.93
26/01/2020 08:37:10	26012020	260120	083710	175.760	12.571575	-57.245008	175.690	-0.260	-0.050	1.130	175.760	-1.400	1.600																			1580027830.0	9.10	16.85
26/01/2020 08:37:11	26012020	260120	083711	175.710	12.571533	-57.245008	175.640	-0.380	0.170	0.950	175.710	-1.200	1.400																			1580027831.0	9.03	16.72
26/01/2020 08:37:12	26012020	260120	083712	175.750	12.571492	-57.245008	175.710	-0.490	0.320	0.800	175.750	-1.100	1.200																			1580027832.0	8.96	16.59
26/01/2020 08:37:13	26012020	260120	083713	175.850	12.571450	-57.245008	175.800	-0.400	0.310	0.770	175.850	-1.100	1.200																			1580027833.0	8.95	16.58
26/01/2020 08:37:14	26012020	260120	083714	175.890	12.571408	-57.245008	175.820	-0.140	0.180	0.870	175.890	-1.200	1.300																			1580027834.0	9.01	16.69
26/01/2020 08:37:15	26012020	260120	083715	175.830	12.571367	-57.245010	175.750	0.090	0.050	1.100	175.830	-1.300	1.500																			1580027835.0	8.97	16.61
26/01/2020 08:37:16	26012020	260120	083716	175.690	12.571325	-57.245012	175.610	0.190	-0.100	1.390	175.690	-1.500	1.800																			1580027836.0	8.85	16.39
26/01/2020 08:37:17	26012020	260120	083717	175.510	12.571285	-57.245013	175.420	0.240	-0.290	1.590	175.510	-1.700	2.000																			1580027837.0	8.81	16.32
26/01/2020 08:37:18	26012020	260120	083718	175.340	12.571243	-57.245015	175.280	0.310	-0.380	1.630	175.340	-1.800	2.100																			1580027838.0	8.81	16.32
26/01/2020 08:37:19	26012020	260120	083719	175.380	12.571203	-57.245015	175.330	0.390	-0.280	1.370	175.380	-1.700	1.800																			1580027839.0	8.63	15.98
26/01/2020 08:37:20	26012020	260120	083720	175.560	12.571165	-57.245013	175.520	0.410	-0.190	0.870	175.560	-1.600	1.300																			1580027840.0	8.43	15.61
26/01/2020 08:37:21	26012020	260120	083721	175.690	12.571125	-57.245012	175.610	0.360	-0.350	0.500	175.690	-1.700	1.000																			1580027841.0	8.52	15.78
26/01/2020 08:37:22	26012020	260120	083722	175.630	12.571083	-57.245008	175.560	0.300	-0.710	0.500	175.630	-2.100	0.900																			1580027842.0	8.90	16.48
26/01/2020 08:37:23	26012020	260120	083723	175.550	12.571040	-57.245008	175.480	0.160	-0.880	0.730	175.540	-2.300	1.200																			1580027843.0	9.19	17.02
26/01/2020 08:37:24	26012020	260120	083724	175.520	12.570998	-57.245008	175.470	-0.100	-0.630	1.070	175.520	-2.000	1.500																			1580027844.0	9.00	16.67
26/01/2020 08:37:25	26012020	260120	083725	175.450	12.570958	-57.245010	175.370	-0.360	-0.250	1.410	175.450	-1.600	1.800																			1580027845.0	8.73	16.17
26/01/2020 08:37:26	26012020	260120	083726	175.260	12.570917	-57.245012	175.180	-0.460	-0.050	1.600	175.260	-1.400	2.000																			1580027846.0	8.83	16.35
26/01/2020 08:37:27	26012020	260120	083727	175.090	12.570875	-57.245012	175.030	-0.380	0.060	1.540	175.090	-1.300	2.000																			1580027847.0	9.11	16.87
26/01/2020 08:37:28	26012020	260120	083728	175.060	12.570833	-57.245012	175.020	-0.290	0.280	1.250	175.060	-1.100	1.700																			1580027848.0	9.06	16.78
26/01/2020 08:37:29	26012020	260120	083729	175.150	12.570792	-57.245010	175.110	-0.270	0.430	0.940	175.150	-0.900	1.400																			1580027849.0	8.81	16.32
26/01/2020 08:37:30	26012020	260120	083730	175.230	12.570752	-57.245008	175.170	-0.220	0.280	0.790	175.230	-1.100	1.200																			1580027850.0	8.81	16.32
26/01/2020 08:37:31	26012020	260120	083731	175.230	12.570708	-57.245007	175.160	-0.050	-0.060	0.870	175.230	-1.400	1.300																			1580027851.0	9.02	16.71
26/01/2020 08:37:32	26012020	260120	083732	175.190	12.570667	-57.245008	175.120	0.200	-0.300	1.030	175.190	-1.700	1.500																			1580027852.0	9.05	16.76
26/01/2020 08:37:33	26012020	260120	083733	175.120	12.570627	-57.245008	175.050	0.400	-0.350	1.090	175.120	-1.700	1.500																			1580027853.0	8.82	16.33
26/01/2020 08:37:34	26012020	260120	083734	175.010	12.570587	-57.245008	174.930	0.410	-0.300	1.070	175.010	-1.700	1.500																			1580027854.0	8.59	15.91
26/01/2020 08:37:35	26012020	260120	083735	174.880	12.570547	-57.245007	174.770	0.260	-0.340	1.170	174.850	-1.700	1.600																			1580027855.0	8.55	15.83
26/01/2020 08:37:36	26012020	260120	083736	174.740	12.570505	-57.245008	174.690	0.090	-0.440	1.230	174.740	-1.800	1.700																			1580027856.0	8.77	16.24
26/01/2020 08:37:37	26012020	260120	083737	174.750	12.570465	-57.245008	174.730	-0.010	-0.430	1.070	174.770	-1.800	1.500																			1580027857.0	8.83	16.35
26/01/2020 08:37:38	26012020	260120	083738	174.930	12.570423	-57.245007	174.910	-0.040	-0.310	0.710	174.930	-1.700	1.200																			1580027858.0	8.73	16.17
26/01/2020 08:37:39	26012020	260120	083739	175.120	12.570383	-57.245005	175.080	-0.000	-0.290	0.460	175.120	-1.700	0.900																			1580027859.0	8.69	16.09
26/01/2020 08:37:40	26012020	260120	083740	175.160	12.570342	-57.245003	175.100	0.080	-0.430	0.480	175.160	-1.800	0.900																			1580027860.0	8.92	16.52
26/01/2020 08:37:41	26012020	260120	083741	175.150	12.570300	-57.245002	175.100	0.070	-0.440	0.670	175.150	-1.800	1.100																			1580027861.0	9.13	16.91
26/01/2020 08:37:42	26012020	260120	083742	175.150	12.570258	-57.245000	175.100	-0.110	-0.220	1.010	175.150	-1.600	1.400																			1580027862.0	8.98	16.63
26/01/2020 08:37:43	26012020	260120	083743	175.220	12.570217	-57.245002	175.190	-0.340	0.100	1.260	175.220	-1.300	1.700																			1580027863.0	8.79	16.28
26/01/2020 08:37:44	26012020	260120	083744	175.340	12.570177	-57.245002	175.280	-0.390	0.290	1.340	175.340	-1.100	1.800																			1580027864.0	8.67	16.06
26/01/2020 08:37:45	26012020	260120	083745	175.290	12.570135	-57.245003	175.190	-0.130	0.160	1.350	175.290	-1.200	1.800																			1580027865.0	8.83	16.35
26/01/2020 08:37:46	26012020	260120	083746	175.080	12.570093	-57.245002	174.980	0.190	-0.120	1.350	175.080	-1.500	1.800																			1580027866.0	9.12	16.89
26/01/2020 08:37:47	26012020	260120	083747	174.900	12.570052	-57.245000	174.810	0.240	-0.230	1.260	174.900	-1.600	1.700																			1580027867.0	9.11	16.87
26/01/2020 08:37:48	26012020	260120	083748	174.890	12.570010	-57.244998	174.810	-0.020	-0.130	1.140	174.890	-1.500	1.600																			1580027868.0	8.79	16.28
26/01/2020 08:37:49	26012020	260120	083749	174.940	12.569970	-57.245000	174.850	-0.270	-0.060	1.050	174.940	-1.400	1.500																			1580027869.0	8.55	15.83
26/01/2020 08:37:50	26012020	260120	083750	175.010	12.569930	-57.245002	174.930	-0.190	-0.160	0.870	175.010	-1.500	1.300																			1580027870.0	8.66	16.04
26/01/2020 08:37:51	26012020	260120	083751	175.130	12.569890	-57.245002	175.060	0.160	-0.370	0.500	175.130	-1.700	1.000																			1580027871.0	8.80	16.30
26/01/2020 08:37:52	26012020	260120	083752	175.280	12.569848	-57.244998	175.200	0.450	-0.620	0.170	175.280	-2.000	0.600																			1580027872.0	8.93	16.54
26/01/2020 08:37:53	26012020	260120	083753	175.430	12.569807	-57.244995	175.360	0.390	-0.730	0.130	175.430	-2.100	0.600																			1580027873.0	9.00	16.67
26/01/2020 08:37:54	26012020	260120	083754	175.570	12.569765	-57.244993	175.510	0.070	-0.600	0.300	175.570	-2.000	0.700																			1580027874.0	8.89	16.46
26/01/2020 08:37:55	26012020	260120	083755	175.760	12.569725	-57.244993	175.710	-0.250	-0.200	0.550	175.760	-1.600	1.000																			1580027875.0	8.71	16.13
26/01/2020 08:37:56	26012020	260120	083756	175.950	12.569685	-57.244995	175.900	-0.380	0.130	0.830	175.950	-1.300	1.300																			1580027876.0	8.57	15.87
26/01/2020 08:37:57	26012020	260120	083757	176.070	12.569643	-57.244995	176.000	-0.280	0.140	1.090	176.070	-1.200	1.500																			1580027877.0	8.80	16.30
26/01/2020 08:37:58	26012020	260120	083758	175.960	12.569602	-57.244997	175.850	-0.030	-0.040	1.350	175.960	-1.400	1.800																			1580027878.0	9.13	16.91
26/01/2020 08:37:59	26012020	260120	083759	175.670	12.569558	-57.244995	175.550	0.190	-0.110	1.550	175.670	-1.500	2.000																			1580027879.0	9.19	17.02
26/01/2020 08:38:00	26012020	260120	083800	175.360	12.569517	-57.244995	175.260	0.220	0.020	1.630	175.360	-1.400	2.100	1013.60	25.60	25.60	19.90	20.00	0.00	71.00	71.00	431.00	25.40	318.00	10.00	109.00	7.20	15	3235.00	27.40	27.40	1580027880.0	8.95	16.58
26/01/2020 08:38:01	26012020	260120	083801	175.120	12.569477	-57.244995	175.040	0.080	0.210	1.570	175.120	-1.200	2.000																			1580027881.0	8.67	16.06
26/01/2020 08:38:02	26012020	260120	083802	175.010	12.569437	-57.244995	174.950	-0.060	0.230	1.360	175.010	-1.100	1.800																			1580027882.0	8.59	15.91
26/01/2020 08:38:03	26012020	260120	083803	174.980	12.569397	-57.244997	174.920	-0.050	-0.020	1.070	174.980	-1.400	1.500																			1580027883.0	8.68	16.08
26/01/2020 08:38:04	26012020	260120	083804	175.060	12.569355	-57.244995	175.020	0.100	-0.470	0.670	175.060	-1.800	1.100																			1580027884.0	8.90	16.48
26/01/2020 08:38:05	26012020	260120	083805	175.220	12.569313	-57.244995	175.180	0.210	-0.870	0.370	175.220	-2.200	0.800																			1580027885.0	9.02	16.71
26/01/2020 08:38:06	26012020	260120	083806	175.390	12.569272	-57.244993	175.350	0.170	-1.000	0.200	175.390	-2.400	0.700																			1580027886.0	8.96	16.59
26/01/2020 08:38:07	26012020	260120	083807	175.610	12.569230	-57.244992	175.580	-0.040	-0.850	0.110	175.610	-2.200	0.600																			1580027887.0	8.80	16.30
26/01/2020 08:38:08	26012020	260120	083808	175.900	12.569190	-57.244990	175.880	-0.270	-0.510	0.150	175.900	-1.900	0.600																			1580027888.0	8.71	16.13
26/01/2020 08:38:09	26012020	260120	083809	176.190	12.569150	-57.244990	176.160	-0.390	-0.130	0.400	176.190	-1.500	0.800																			1580027889.0	8.69	16.09
26/01/2020 08:38:10	26012020	260120	083810	176.360	12.569108	-57.244992	176.280	-0.350	0.110	0.720	176.360	-1.300	1.100																			1580027890.0	8.80	16.30
26/01/2020 08:38:11	26012020	260120	083811	176.260	12.569067	-57.244992	176.160	-0.190	0.120	1.100	176.260	-1.200	1.500																			1580027891.0	9.06	16.78
26/01/2020 08:38:12	26012020	260120	083812	176.050	12.569023	-57.244992	175.960	-0.020	0.150	1.470	176.050	-1.200	1.900																			1580027892.0	9.27	17.17
26/01/2020 08:38:13	26012020	260120	083813	175.920	12.568982	-57.244992	175.830	0.090	0.460	1.590	175.900	-0.900	2.000																			1580027893.0	9.03	16.72
26/01/2020 08:38:14	26012020	260120	083814	175.750	12.568942	-57.244992	175.660	0.170	0.690	1.490	175.750	-0.700	1.900																			1580027894.0	8.55	15.83
26/01/2020 08:38:15	26012020	260120	083815	175.520	12.568902	-57.244990	175.440	0.290	0.470	1.330	175.520	-0.900	1.800																			1580027895.0	8.57	15.87
26/01/2020 08:38:16	26012020	260120	083816	175.350	12.568860	-57.244988	175.290	0.420	-0.060	1.110	175.350	-1.400	1.600																			1580027896.0	8.90	16.48
26/01/2020 08:38:17	26012020	260120	083817	175.320	12.568818	-57.244988	175.260	0.430	-0.510	0.920	175.320	-1.900	1.400																			1580027897.0	8.93	16.54
26/01/2020 08:38:18	26012020	260120	083818	175.280	12.568778	-57.244988	175.220	0.290	-0.810	0.860	175.280	-2.200	1.300																			1580027898.0	8.71	16.13
26/01/2020 08:38:19	26012020	260120	083819	175.320	12.568738	-57.244990	175.270	0.090	-0.980	0.840	175.320	-2.300	1.300																			1580027899.0	8.66	16.04
26/01/2020 08:38:20	26012020	260120	083820	175.480	12.568697	-57.244992	175.460	-0.050	-1.060	0.760	175.480	-2.400	1.200																			1580027900.0	8.71	16.13
26/01/2020 08:38:21	26012020	260120	083821	175.740	12.568657	-57.244992	175.730	-0.100	-1.030	0.620	175.740	-2.400	1.100																			1580027901.0	8.86	16.41
26/01/2020 08:38:22	26012020	260120	083822	176.070	12.568615	-57.244992	176.070	-0.150	-0.740	0.420	176.070	-2.100	0.900																			1580027902.0	8.95	16.58
26/01/2020 08:38:23	26012020	260120	083823	176.410	12.568573	-57.244990	176.390	-0.300	-0.220	0.330	176.410	-1.600	0.800																			1580027903.0	8.78	16.26
26/01/2020 08:38:24	26012020	260120	083824	176.600	12.568533	-57.244988	176.540	-0.450	0.120	0.480	176.600	-1.300	0.900																			1580027904.0	8.76	16.22
26/01/2020 08:38:25	26012020	260120	083825	176.570	12.568490	-57.244987	176.470	-0.490	0.170	0.910	176.550	-1.200	1.300																			1580027905.0	9.12	16.89
26/01/2020 08:38:26	26012020	260120	083826	176.390	12.568447	-57.244988	176.310	-0.380	0.300	1.280	176.390	-1.100	1.700																			1580027906.0	9.38	17.37
26/01/2020 08:38:27	26012020	260120	083827	176.300	12.568405	-57.244990	176.240	-0.180	0.650	1.380	176.290	-0.700	1.800																			1580027907.0	9.07	16.80
26/01/2020 08:38:28	26012020	260120	083828	176.270	12.568365	-57.244988	176.220	0.050	0.890	1.280	176.270	-0.500	1.700																			1580027908.0	8.61	15.95
26/01/2020 08:38:29	26012020	260120	083829	176.150	12.568325	-57.244988	176.070	0.310	0.580	1.190	176.150	-0.800	1.600																			1580027909.0	8.61	15.95
26/01/2020 08:38:30	26012020	260120	083830	175.890	12.568283	-57.244988	175.800	0.570	-0.070	1.160	175.890	-1.400	1.600																			1580027910.0	9.01	16.69
26/01/2020 08:38:31	26012020	260120	083831	175.730	12.568242	-57.244987	175.670	0.670	-0.490	1.010	175.730	-1.800	1.500																			1580027911.0	9.02	16.71
26/01/2020 08:38:32	26012020	260120	083832	175.790	12.568202	-57.244987	175.760	0.540	-0.600	0.730	175.790	-2.000	1.200																			1580027912.0	8.56	15.85
26/01/2020 08:38:33	26012020	260120	083833	175.970	12.568162	-57.244987	175.940	0.300	-0.750	0.490	175.970	-2.100	0.900																			1580027913.0	8.33	15.43
26/01/2020 08:38:34	26012020	260120	083834	176.110	12.568122	-57.244987	176.060	0.120	-1.100	0.510	176.110	-2.400	0.900																			1580027914.0	8.63	15.98
26/01/2020 08:38:35	26012020	260120	083835	176.130	12.568080	-57.244988	176.090	0.020	-1.320	0.780	176.130	-2.700	1.200																			1580027915.0	9.07	16.80
26/01/2020 08:38:36	26012020	260120	083836	176.160	12.568038	-57.244992	176.120	-0.150	-1.040	0.920	176.160	-2.400	1.400																			1580027916.0	9.08	16.82
26/01/2020 08:38:37	26012020	260120	083837	176.230	12.567997	-57.244992	176.200	-0.410	-0.330	0.910	176.230	-1.800	1.400																			1580027917.0	8.70	16.11
26/01/2020 08:38:38	26012020	260120	083838	176.330	12.567958	-57.244992	176.290	-0.610	0.280	0.810	176.330	-1.100	1.300																			1580027918.0	8.52	15.78
26/01/2020 08:38:39	26012020	260120	083839	176.360	12.567917	-57.244990	176.290	-0.570	0.450	0.810	176.360	-0.900	1.200																			1580027919.0	8.84	16.37
26/01/2020 08:38:40	26012020	260120	083840	176.300	12.567873	-57.244990	176.230	-0.310	0.340	0.900	176.300	-1.000	1.300																			1580027920.0	9.30	17.22
26/01/2020 08:38:41	26012020	260120	083841	176.280	12.567830	-57.244990	176.230	-0.050	0.340	0.990	176.280	-1.000	1.400																			1580027921.0	9.35	17.32
26/01/2020 08:38:42	26012020	260120	083842	176.430	12.567788	-57.244990	176.400	0.040	0.490	0.990	176.430	-0.900	1.400																			1580027922.0	8.93	16.54
26/01/2020 08:38:43	26012020	260120	083843	176.600	12.567748	-57.244990	176.540	0.050	0.480	1.030	176.600	-0.900	1.400																			1580027923.0	8.55	15.83
26/01/2020 08:38:44	26012020	260120	083844	176.490	12.567708	-57.244990	176.380	0.200	0.020	1.290	176.490	-1.300	1.700																			1580027924.0	8.64	16.00
26/01/2020 08:38:45	26012020	260120	083845	176.240	12.567667	-57.244992	176.160	0.420	-0.610	1.590	176.240	-1.900	2.000																			1580027925.0	9.07	16.80
26/01/2020 08:38:46	26012020	260120	083846	176.080	12.567623	-57.244993	176.020	0.500	-0.900	1.670	176.080	-2.300	2.100																			1580027926.0	9.10	16.85
26/01/2020 08:38:47	26012020	260120	083847	176.000	12.567583	-57.244995	175.960	0.360	-0.760	1.500	176.000	-2.100	1.900																			1580027927.0	8.68	16.08
26/01/2020 08:38:48	26012020	260120	083848	176.060	12.567545	-57.244995	176.040	0.100	-0.500	1.120	176.060	-1.900	1.600																			1580027928.0	8.44	15.63
26/01/2020 08:38:49	26012020	260120	083849	176.330	12.567505	-57.244993	176.340	-0.130	-0.240	0.710	176.330	-1.600	1.200																			1580027929.0	8.46	15.67
26/01/2020 08:38:50	26012020	260120	083850	176.640	12.567465	-57.244993	176.620	-0.210	-0.180	0.460	176.640	-1.500	0.900																			1580027930.0	8.58	15.89
26/01/2020 08:38:51	26012020	260120	083851	176.750	12.567423	-57.244993	176.690	-0.130	-0.330	0.450	176.750	-1.700	0.900																			1580027931.0	8.90	16.48
26/01/2020 08:38:52	26012020	260120	083852	176.700	12.567382	-57.244993	176.640	-0.060	-0.410	0.630	176.700	-1.800	1.100																			1580027932.0	9.17	16.98
26/01/2020 08:38:53	26012020	260120	083853	176.710	12.567338	-57.244995	176.670	-0.130	-0.200	0.830	176.710	-1.600	1.300																			1580027933.0	9.04	16.74
26/01/2020 08:38:54	26012020	260120	083854	176.720	12.567298	-57.244997	176.660	-0.280	0.100	1.050	176.720	-1.300	1.500																			1580027934.0	8.69	16.09
26/01/2020 08:38:55	26012020	260120	083855	176.470	12.567258	-57.244998	176.360	-0.270	0.050	1.390	176.470	-1.300	1.800																			1580027935.0	8.75	16.21
26/01/2020 08:38:56	26012020	260120	083856	176.200	12.567215	-57.245000	176.130	-0.070	-0.090	1.510	176.200	-1.500	1.900																			1580027936.0	9.20	17.04
26/01/2020 08:38:57	26012020	260120	083857	176.250	12.567173	-57.245002	176.220	0.080	0.090	1.250	176.250	-1.300	1.700																			1580027937.0	9.01	16.69
26/01/2020 08:38:58	26012020	260120	083858	176.510	12.567133	-57.245000	176.470	0.070	0.290	0.860	176.510	-1.100	1.300																			1580027938.0	8.49	15.72
26/01/2020 08:38:59	26012020	260120	083859	176.660	12.567095	-57.245000	176.590	0.040	0.030	0.660	176.660	-1.300	1.100																			1580027939.0	8.52	15.78
26/01/2020 08:39:00	26012020	260120	083900	176.630	12.567052	-57.244998	176.530	0.120	-0.530	0.750	176.630	-1.900	1.200	1013.60	25.60	25.70	20.10	20.20	0.00	71.00	71.00	431.00	25.40	317.00	10.50	110.00	7.80	15	3305.00	27.40	27.40	1580027940.0	9.01	16.69
26/01/2020 08:39:01	26012020	260120	083901	176.500	12.567010	-57.245000	176.430	0.240	-0.820	0.960	176.500	-2.200	1.400																			1580027941.0	9.21	17.06
26/01/2020 08:39:02	26012020	260120	083902	176.390	12.566968	-57.245002	176.320	0.260	-0.650	1.090	176.390	-2.000	1.500																			1580027942.0	8.89	16.46
26/01/2020 08:39:03	26012020	260120	083903	176.310	12.566928	-57.245002	176.250	0.130	-0.250	1.090	176.310	-1.700	1.500																			1580027943.0	8.50	15.74
26/01/2020 08:39:04	26012020	260120	083904	176.260	12.566890	-57.245002	176.190	-0.100	0.020	1.140	176.260	-1.400	1.600																			1580027944.0	8.45	15.65
26/01/2020 08:39:05	26012020	260120	083905	176.220	12.566848	-57.245003	176.150	-0.270	0.020	1.250	176.220	-1.300	1.700																			1580027945.0	8.70	16.11
26/01/2020 08:39:06	26012020	260120	083906	176.080	12.566807	-57.245005	175.990	-0.280	-0.120	1.320	176.080	-1.500	1.800																			1580027946.0	9.00	16.67
26/01/2020 08:39:07	26012020	260120	083907	175.860	12.566765	-57.245007	175.770	-0.130	-0.190	1.310	175.860	-1.600	1.800																			1580027947.0	9.09	16.83
26/01/2020 08:39:08	26012020	260120	083908	175.740	12.566723	-57.245008	175.690	0.030	-0.040	1.090	175.740	-1.400	1.500																			1580027948.0	8.93	16.54
26/01/2020 08:39:09	26012020	260120	083909	175.840	12.566683	-57.245007	175.810	0.060	0.200	0.690	175.840	-1.200	1.200																			1580027949.0	8.58	15.89
26/01/2020 08:39:10	26012020	260120	083910	175.990	12.566645	-57.245007	175.910	0.010	0.150	0.440	175.990	-1.200	0.900																			1580027950.0	8.46	15.67
26/01/2020 08:39:11	26012020	260120	083911	176.000	12.566603	-57.245007	175.910	0.030	-0.260	0.550	176.000	-1.600	1.000																			1580027951.0	8.76	16.22
26/01/2020 08:39:12	26012020	260120	083912	175.890	12.566562	-57.245007	175.810	0.160	-0.740	0.780	175.890	-2.100	1.200																			1580027952.0	9.13	16.91
26/01/2020 08:39:13	26012020	260120	083913	175.800	12.566518	-57.245008	175.730	0.220	-0.900	1.000	175.800	-2.300	1.400																			1580027953.0	9.14	16.93
26/01/2020 08:39:14	26012020	260120	083914	175.720	12.566478	-57.245010	175.650	0.130	-0.710	1.210	175.720	-2.100	1.600																			1580027954.0	8.85	16.39
26/01/2020 08:39:15	26012020	260120	083915	175.630	12.566437	-57.245010	175.570	-0.060	-0.380	1.310	175.630	-1.800	1.700																			1580027955.0	8.65	16.02
26/01/2020 08:39:16	26012020	260120	083916	175.550	12.566397	-57.245010	175.510	-0.240	-0.080	1.340	175.550	-1.500	1.800																			1580027956.0	8.68	16.08
26/01/2020 08:39:17	26012020	260120	083917	175.520	12.566357	-57.245010	175.490	-0.360	0.170	1.280	175.520	-1.200	1.700																			1580027957.0	8.77	16.24
26/01/2020 08:39:18	26012020	260120	083918	175.510	12.566315	-57.245010	175.460	-0.360	0.290	1.110	175.510	-1.100	1.600																			1580027958.0	8.81	16.32
26/01/2020 08:39:19	26012020	260120	083919	175.450	12.566273	-57.245008	175.390	-0.210	0.250	1.000	175.450	-1.100	1.400																			1580027959.0	8.92	16.52
26/01/2020 08:39:20	26012020	260120	083920	175.340	12.566232	-57.245008	175.260	0.020	0.140	1.040	175.340	-1.200	1.500																			1580027960.0	8.98	16.63
26/01/2020 08:39:21	26012020	260120	083921	175.210	12.566190	-57.245008	175.120	0.200	0.070	1.090	175.210	-1.300	1.500																			1580027961.0	8.86	16.41
26/01/2020 08:39:22	26012020	260120	083922	175.110	12.566150	-57.245008	175.030	0.270	-0.040	1.140	175.110	-1.400	1.600																			1580027962.0	8.72	16.15
26/01/2020 08:39:23	26012020	260120	083923	175.020	12.566110	-57.245010	174.930	0.220	-0.210	1.320	175.020	-1.600	1.700																			1580027963.0	8.69	16.09
26/01/2020 08:39:24	26012020	260120	083924	174.880	12.566070	-57.245012	174.780	0.170	-0.420	1.580	174.880	-1.800	2.000																			1580027964.0	8.73	16.17
26/01/2020 08:39:25	26012020	260120	083925	174.740	12.566028	-57.245013	174.680	0.190	-0.580	1.710	174.740	-1.900	2.100																			1580027965.0	8.79	16.28
26/01/2020 08:39:26	26012020	260120	083926	174.720	12.565988	-57.245015	174.690	0.190	-0.600	1.520	174.720	-2.000	2.000																			1580027966.0	8.75	16.21
26/01/2020 08:39:27	26012020	260120	083927	174.860	12.565948	-57.245013	174.840	0.080	-0.470	1.090	174.860	-1.900	1.600																			1580027967.0	8.62	15.96
26/01/2020 08:39:28	26012020	260120	083928	175.110	12.565908	-57.245012	175.070	-0.060	-0.380	0.640	175.110	-1.800	1.100																			1580027968.0	8.56	15.85
26/01/2020 08:39:29	26012020	260120	083929	175.290	12.565867	-57.245008	175.220	-0.080	-0.480	0.390	175.290	-1.800	0.800																			1580027969.0	8.76	16.22
26/01/2020 08:39:30	26012020	260120	083930	175.290	12.565825	-57.245005	175.220	-0.050	-0.600	0.530	175.290	-2.000	0.900																			1580027970.0	9.09	16.83
26/01/2020 08:39:31	26012020	260120	083931	175.220	12.565782	-57.245005	175.140	-0.160	-0.440	0.940	175.220	-1.800	1.300																			1580027971.0	9.15	16.95
26/01/2020 08:39:32	26012020	260120	083932	175.130	12.565742	-57.245005	175.070	-0.420	-0.040	1.400	175.130	-1.400	1.800																			1580027972.0	8.91	16.50
26/01/2020 08:39:33	26012020	260120	083933	175.040	12.565700	-57.245007	174.970	-0.610	0.370	1.700	175.040	-1.000	2.100																			1580027973.0	8.72	16.15
26/01/2020 08:39:34	26012020	260120	083934	174.880	12.565660	-57.245010	174.810	-0.510	0.500	1.840	174.880	-0.900	2.300																			1580027974.0	8.78	16.26
26/01/2020 08:39:35	26012020	260120	083935	174.770	12.565618	-57.245010	174.730	-0.180	0.430	1.740	174.770	-0.900	2.200																			1580027975.0	8.96	16.59
26/01/2020 08:39:36	26012020	260120	083936	174.770	12.565577	-57.245010	174.740	0.190	0.280	1.340	174.770	-1.100	1.800																			1580027976.0	8.89	16.46
26/01/2020 08:39:37	26012020	260120	083937	174.830	12.565537	-57.245007	174.790	0.440	-0.010	0.840	174.830	-1.400	1.300																			1580027977.0	8.78	16.26
26/01/2020 08:39:38	26012020	260120	083938	174.940	12.565495	-57.245005	174.890	0.540	-0.310	0.490	174.940	-1.700	0.900																			1580027978.0	8.76	16.22
26/01/2020 08:39:39	26012020	260120	083939	175.050	12.565455	-57.245002	174.980	0.500	-0.500	0.410	175.050	-1.900	0.900																			1580027979.0	8.65	16.02
26/01/2020 08:39:40	26012020	260120	083940	175.080	12.565415	-57.245002	174.990	0.350	-0.600	0.570	175.080	-2.000	1.000																			1580027980.0	8.54	15.82
26/01/2020 08:39:41	26012020	260120	083941	175.080	12.565375	-57.245002	175.030	0.180	-0.640	0.780	175.080	-2.000	1.200																			1580027981.0	8.60	15.93
26/01/2020 08:39:42	26012020	260120	083942	175.170	12.565335	-57.245003	175.110	0.020	-0.570	0.970	175.170	-2.000	1.400																			1580027982.0	8.71	16.13
26/01/2020 08:39:43	26012020	260120	083943	175.290	12.565295	-57.245003	175.260	-0.100	-0.360	1.060	175.290	-1.700	1.500																			1580027983.0	8.67	16.06
26/01/2020 08:39:44	26012020	260120	083944	175.430	12.565255	-57.245003	175.400	-0.180	-0.190	1.060	175.430	-1.600	1.500																			1580027984.0	8.63	15.98
26/01/2020 08:39:45	26012020	260120	083945	175.480	12.565213	-57.245003	175.430	-0.220	-0.150	1.030	175.480	-1.500	1.500																			1580027985.0	8.74	16.19
26/01/2020 08:39:46	26012020	260120	083946	175.400	12.565173	-57.245002	175.320	-0.240	-0.210	1.020	175.400	-1.600	1.500																			1580027986.0	8.92	16.52
26/01/2020 08:39:47	26012020	260120	083947	175.240	12.565130	-57.245002	175.160	-0.260	-0.250	0.960	175.240	-1.600	1.400																			1580027987.0	8.99	16.65
26/01/2020 08:39:48	26012020	260120	083948	175.050	12.565090	-57.245000	174.970	-0.260	-0.230	0.920	175.050	-1.600	1.400																			1580027988.0	8.96	16.59
26/01/2020 08:39:49	26012020	260120	083949	174.900	12.565048	-57.244998	174.830	-0.240	-0.150	0.950	174.900	-1.500	1.400																			1580027989.0	8.93	16.54
26/01/2020 08:39:50	26012020	260120	083950	174.900	12.565007	-57.244998	174.840	-0.210	-0.010	0.860	174.900	-1.400	1.300																			1580027990.0	8.83	16.35
26/01/2020 08:39:51	26012020	260120	083951	175.040	12.564967	-57.244998	175.000	-0.140	0.060	0.650	175.040	-1.300	1.100																			1580027991.0	8.77	16.24
26/01/2020 08:39:52	26012020	260120	083952	175.300	12.564925	-57.244998	175.250	-0.040	0.050	0.480	175.300	-1.300	0.900																			1580027992.0	8.79	16.28
26/01/2020 08:39:53	26012020	260120	083953	175.470	12.564883	-57.244997	175.430	0.070	-0.030	0.550	175.500	-1.400	1.000																			1580027993.0	8.80	16.30
26/01/2020 08:39:54	26012020	260120	083954	175.520	12.564843	-57.244998	175.430	0.170	-0.150	0.840	175.520	-1.500	1.200																			1580027994.0	8.83	16.35
26/01/2020 08:39:55	26012020	260120	083955	175.400	12.564802	-57.244998	175.300	0.240	-0.240	1.140	175.400	-1.600	1.600																			1580027995.0	8.87	16.43
26/01/2020 08:39:56	26012020	260120	083956	175.280	12.564762	-57.245000	175.210	0.250	-0.100	1.300	175.280	-1.500	1.700																			1580027996.0	8.80	16.30
26/01/2020 08:39:57	26012020	260120	083957	175.300	12.564722	-57.245000	175.240	0.200	0.190	1.180	175.300	-1.200	1.600																			1580027997.0	8.45	15.65
26/01/2020 08:39:58	26012020	260120	083958	175.350	12.564683	-57.244998	175.290	0.160	0.180	0.960	175.350	-1.200	1.400																			1580027998.0	8.30	15.37
26/01/2020 08:39:59	26012020	260120	083959	175.450	12.564643	-57.244997	175.390	0.180	-0.230	0.780	175.450	-1.600	1.200																			1580027999.0	8.66	16.04
26/01/2020 08:40:00	26012020	260120	084000	175.540	12.564602	-57.244995	175.460	0.210	-0.690	0.750	175.540	-2.000	1.200	1013.60	25.60	25.60	19.80	19.90	0.00	70.00	70.00	431.00	25.40	319.00	10.70	112.00	7.90	15	3281.00	27.40	27.40	1580028000.0	8.96	16.59
26/01/2020 08:40:01	26012020	260120	084001	175.580	12.564560	-57.244995	175.490	0.200	-0.920	0.830	175.580	-2.300	1.300																			1580028001.0	8.94	16.56
26/01/2020 08:40:02	26012020	260120	084002	175.500	12.564518	-57.244995	175.400	0.100	-0.920	0.990	175.500	-2.300	1.400																			1580028002.0	8.80	16.30
26/01/2020 08:40:03	26012020	260120	084003	175.390	12.564478	-57.244995	175.310	-0.100	-0.670	1.240	175.390	-2.100	1.700																			1580028003.0	8.73	16.17
26/01/2020 08:40:04	26012020	260120	084004	175.340	12.564438	-57.244995	175.270	-0.350	-0.330	1.450	175.340	-1.700	1.900																			1580028004.0	8.69	16.09
26/01/2020 08:40:05	26012020	260120	084005	175.330	12.564397	-57.244997	175.280	-0.530	-0.050	1.450	175.340	-1.400	1.900																			1580028005.0	8.83	16.35
26/01/2020 08:40:06	26012020	260120	084006	175.380	12.564355	-57.244998	175.310	-0.520	0.140	1.340	175.380	-1.200	1.800																			1580028006.0	8.95	16.58
26/01/2020 08:40:07	26012020	260120	084007	175.360	12.564313	-57.244998	175.290	-0.300	0.270	1.170	175.360	-1.100	1.600																			1580028007.0	9.00	16.67
26/01/2020 08:40:08	26012020	260120	084008	175.330	12.564272	-57.244997	175.270	-0.030	0.280	0.900	175.330	-1.100	1.400																			1580028008.0	8.98	16.63
26/01/2020 08:40:09	26012020	260120	084009	175.340	12.564230	-57.244995	175.280	0.110	0.220	0.570	175.340	-1.100	1.000																			1580028009.0	8.98	16.63
26/01/2020 08:40:10	26012020	260120	084010	175.440	12.564188	-57.244993	175.380	0.070	0.180	0.390	175.440	-1.200	0.800																			1580028010.0	8.85	16.39
26/01/2020 08:40:11	26012020	260120	084011	175.530	12.564148	-57.244992	175.450	0.030	0.060	0.430	175.530	-1.300	0.900																			1580028011.0	8.67	16.06
26/01/2020 08:40:12	26012020	260120	084012	175.620	12.564108	-57.244992	175.530	0.120	-0.180	0.560	175.620	-1.500	1.000																			1580028012.0	8.69	16.09
26/01/2020 08:40:13	26012020	260120	084013	175.620	12.564067	-57.244992	175.530	0.300	-0.480	0.860	175.620	-1.800	1.300																			1580028013.0	8.78	16.26
26/01/2020 08:40:14	26012020	260120	084014	175.580	12.564027	-57.244993	175.510	0.410	-0.590	1.090	175.580	-2.000	1.500																			1580028014.0	8.84	16.37
26/01/2020 08:40:15	26012020	260120	084015	175.660	12.563987	-57.244993	175.610	0.300	-0.400	1.080	175.660	-1.800	1.500																			1580028015.0	8.61	15.95
26/01/2020 08:40:16	26012020	260120	084016	175.770	12.563947	-57.244993	175.700	0.050	-0.210	1.070	175.770	-1.600	1.500																			1580028016.0	8.32	15.41
26/01/2020 08:40:17	26012020	260120	084017	175.740	12.563908	-57.244993	175.640	-0.080	-0.330	1.200	175.740	-1.700	1.600																			1580028017.0	8.55	15.83
26/01/2020 08:40:18	26012020	260120	084018	175.670	12.563865	-57.244995	175.590	0.010	-0.520	1.250	175.670	-1.900	1.700																			1580028018.0	9.00	16.67
26/01/2020 08:40:19	26012020	260120	084019	175.660	12.563823	-57.244995	175.560	0.140	-0.460	1.230	175.650	-1.800	1.700																			1580028019.0	9.01	16.69
26/01/2020 08:40:20	26012020	260120	084020	175.580	12.563783	-57.244993	175.500	0.120	-0.220	1.120	175.580	-1.600	1.600																			1580028020.0	8.78	16.26
26/01/2020 08:40:21	26012020	260120	084021	175.510	12.563743	-57.244992	175.420	-0.070	-0.030	1.010	175.510	-1.400	1.400																			1580028021.0	8.69	16.09
26/01/2020 08:40:22	26012020	260120	084022	175.480	12.563702	-57.244992	175.400	-0.300	0.020	0.940	175.480	-1.300	1.400																			1580028022.0	8.80	16.30
26/01/2020 08:40:23	26012020	260120	084023	175.600	12.563660	-57.244992	175.550	-0.420	-0.040	0.810	175.600	-1.400	1.300																			1580028023.0	8.90	16.48
26/01/2020 08:40:24	26012020	260120	084024	175.710	12.563618	-57.244992	175.640	-0.300	-0.230	0.760	175.710	-1.600	1.200																			1580028024.0	8.97	16.61
26/01/2020 08:40:25	26012020	260120	084025	175.680	12.563577	-57.244992	175.610	-0.050	-0.410	0.780	175.680	-1.800	1.200																			1580028025.0	9.12	16.89
26/01/2020 08:40:26	26012020	260120	084026	175.700	12.563535	-57.244992	175.640	0.050	-0.330	0.820	175.700	-1.700	1.200																			1580028026.0	9.02	16.71
26/01/2020 08:40:27	26012020	260120	084027	175.800	12.563493	-57.244992	175.760	-0.050	-0.100	0.910	175.800	-1.500	1.300																			1580028027.0	8.72	16.15
26/01/2020 08:40:28	26012020	260120	084028	175.970	12.563453	-57.244992	175.940	-0.180	0.040	1.000	175.970	-1.300	1.400																			1580028028.0	8.62	15.96
26/01/2020 08:40:29	26012020	260120	084029	176.110	12.563413	-57.244992	176.080	-0.120	0.010	1.070	176.110	-1.400	1.500																			1580028029.0	8.79	16.28
26/01/2020 08:40:30	26012020	260120	084030	176.230	12.563372	-57.244993	176.210	0.110	0.010	1.040	176.230	-1.400	1.500																			1580028030.0	8.92	16.52
26/01/2020 08:40:31	26012020	260120	084031	176.370	12.563330	-57.244992	176.330	0.320	0.130	0.870	176.370	-1.200	1.300																			1580028031.0	8.73	16.17
26/01/2020 08:40:32	26012020	260120	084032	176.450	12.563292	-57.244990	176.380	0.340	0.100	0.750	176.450	-1.300	1.200																			1580028032.0	8.56	15.85
26/01/2020 08:40:33	26012020	260120	084033	176.400	12.563250	-57.244990	176.310	0.240	-0.210	0.810	176.400	-1.500	1.200																			1580028033.0	8.71	16.13
26/01/2020 08:40:34	26012020	260120	084034	176.320	12.563208	-57.244990	176.250	0.160	-0.470	0.910	176.320	-1.800	1.300																			1580028034.0	8.94	16.56
26/01/2020 08:40:35	26012020	260120	084035	176.270	12.563168	-57.244990	176.200	0.150	-0.460	0.940	176.270	-1.800	1.400																			1580028035.0	8.75	16.21
26/01/2020 08:40:36	26012020	260120	084036	176.140	12.563128	-57.244992	176.060	0.200	-0.450	0.960	176.140	-1.800	1.400																			1580028036.0	8.55	15.83
26/01/2020 08:40:37	26012020	260120	084037	176.000	12.563088	-57.244990	175.940	0.200	-0.570	0.960	176.000	-1.900	1.400																			1580028037.0	8.75	16.21
26/01/2020 08:40:38	26012020	260120	084038	176.000	12.563047	-57.244990	175.960	0.060	-0.590	1.000	176.000	-2.000	1.400																			1580028038.0	8.95	16.58
26/01/2020 08:40:39	26012020	260120	084039	176.080	12.563005	-57.244992	176.050	-0.160	-0.450	1.100	176.080	-1.800	1.500																			1580028039.0	8.89	16.46
26/01/2020 08:40:40	26012020	260120	084040	176.220	12.562963	-57.244992	176.200	-0.330	-0.280	1.110	176.220	-1.700	1.500																			1580028040.0	8.82	16.33
26/01/2020 08:40:41	26012020	260120	084041	176.410	12.562923	-57.244993	176.390	-0.390	-0.150	1.060	176.410	-1.500	1.500																			1580028041.0	8.90	16.48
26/01/2020 08:40:42	26012020	260120	084042	176.620	12.562880	-57.244993	176.590	-0.380	-0.070	1.050	176.620	-1.400	1.500																			1580028042.0	8.99	16.65
26/01/2020 08:40:43	26012020	260120	084043	176.740	12.562838	-57.244995	176.710	-0.300	-0.010	1.020	176.750	-1.400	1.500																			1580028043.0	9.03	16.72
26/01/2020 08:40:44	26012020	260120	084044	176.790	12.562797	-57.244995	176.730	-0.190	0.110	0.970	176.790	-1.300	1.400																			1580028044.0	8.98	16.63
26/01/2020 08:40:45	26012020	260120	084045	176.810	12.562757	-57.244995	176.740	-0.110	0.250	0.860	176.810	-1.100	1.300																			1580028045.0	8.82	16.33
26/01/2020 08:40:46	26012020	260120	084046	176.790	12.562715	-57.244993	176.700	-0.020	0.220	0.780	176.790	-1.100	1.200																			1580028046.0	8.71	16.13
26/01/2020 08:40:47	26012020	260120	084047	176.640	12.562675	-57.244993	176.520	0.160	-0.040	0.810	176.640	-1.400	1.200																			1580028047.0	8.86	16.41
26/01/2020 08:40:48	26012020	260120	084048	176.330	12.562632	-57.244993	176.210	0.380	-0.290	0.970	176.330	-1.600	1.400																			1580028048.0	9.02	16.71
26/01/2020 08:40:49	26012020	260120	084049	176.100	12.562592	-57.244993	176.010	0.460	-0.230	1.040	176.100	-1.600	1.500																			1580028049.0	8.89	16.46
26/01/2020 08:40:50	26012020	260120	084050	176.110	12.562552	-57.244993	176.050	0.300	0.010	0.950	176.110	-1.400	1.400																			1580028050.0	8.44	15.63
26/01/2020 08:40:51	26012020	260120	084051	176.190	12.562513	-57.244993	176.130	0.090	-0.070	0.920	176.190	-1.400	1.400																			1580028051.0	8.34	15.45
26/01/2020 08:40:52	26012020	260120	084052	176.290	12.562472	-57.244995	176.240	0.020	-0.460	0.920	176.290	-1.800	1.400																			1580028052.0	8.78	16.26
26/01/2020 08:40:53	26012020	260120	084053	176.410	12.562430	-57.244997	176.380	0.130	-0.750	0.840	176.410	-2.100	1.300																			1580028053.0	9.07	16.80
26/01/2020 08:40:54	26012020	260120	084054	176.600	12.562388	-57.244997	176.560	0.240	-0.700	0.650	176.600	-2.100	1.100																			1580028054.0	8.87	16.43
26/01/2020 08:40:55	26012020	260120	084055	176.720	12.562348	-57.244997	176.640	0.220	-0.530	0.500	176.720	-1.900	0.900																			1580028055.0	8.62	15.96
26/01/2020 08:40:56	26012020	260120	084056	176.690	12.562308	-57.244995	176.600	0.070	-0.440	0.500	176.690	-1.800	0.900																			1580028056.0	8.73	16.17
26/01/2020 08:40:57	26012020	260120	084057	176.630	12.562267	-57.244995	176.530	-0.170	-0.360	0.750	176.610	-1.700	1.200																			1580028057.0	8.95	16.58
26/01/2020 08:40:58	26012020	260120	084058	176.500	12.562225	-57.244995	176.410	-0.420	-0.210	1.050	176.500	-1.600	1.500																			1580028058.0	9.06	16.78
26/01/2020 08:40:59	26012020	260120	084059	176.400	12.562182	-57.244998	176.320	-0.610	0.010	1.190	176.400	-1.400	1.600																			1580028059.0	9.03	16.72
26/01/2020 08:41:00	26012020	260120	084100	176.290	12.562142	-57.245000	176.190	-0.640	0.240	1.240	176.290	-1.100	1.700	1013.60	25.60	25.60	19.80	19.90	0.00	70.00	70.00	430.00	25.40	317.00	9.90	107.00	7.30	15	3299.00	27.40	27.40	1580028060.0	8.94	16.56
26/01/2020 08:41:01	26012020	260120	084101	176.120	12.562100	-57.245002	176.010	-0.440	0.320	1.170	176.120	-1.000	1.600																			1580028061.0	8.91	16.50
26/01/2020 08:41:02	26012020	260120	084102	175.930	12.562058	-57.245002	175.810	-0.080	0.200	0.990	175.930	-1.200	1.400																			1580028062.0	9.01	16.69
26/01/2020 08:41:03	26012020	260120	084103	175.780	12.562015	-57.245002	175.680	0.240	0.090	0.750	175.780	-1.300	1.200																			1580028063.0	9.02	16.71
26/01/2020 08:41:04	26012020	260120	084104	175.740	12.561975	-57.245000	175.670	0.390	0.060	0.520	175.740	-1.300	1.000																			1580028064.0	8.81	16.32
26/01/2020 08:41:05	26012020	260120	084105	175.830	12.561935	-57.244998	175.780	0.390	0.020	0.310	175.830	-1.300	0.800																			1580028065.0	8.57	15.87
26/01/2020 08:41:06	26012020	260120	084106	176.040	12.561895	-57.244998	175.970	0.340	-0.210	0.240	176.040	-1.500	0.700																			1580028066.0	8.54	15.82
26/01/2020 08:41:07	26012020	260120	084107	176.130	12.561855	-57.244998	176.040	0.370	-0.660	0.500	176.130	-2.000	0.900																			1580028067.0	8.75	16.21
26/01/2020 08:41:08	26012020	260120	084108	176.050	12.561812	-57.245000	175.990	0.420	-1.010	0.940	176.050	-2.400	1.300																			1580028068.0	9.08	16.82
26/01/2020 08:41:09	26012020	260120	084109	176.090	12.561770	-57.245000	176.080	0.290	-0.800	1.210	176.090	-2.200	1.600																			1580028069.0	8.97	16.61
26/01/2020 08:41:10	26012020	260120	084110	176.300	12.561732	-57.245002	176.280	-0.040	-0.220	1.270	176.300	-1.600	1.700																			1580028070.0	8.43	15.61
26/01/2020 08:41:11	26012020	260120	084111	176.410	12.561693	-57.245003	176.350	-0.300	0.060	1.230	176.410	-1.300	1.700																			1580028071.0	8.28	15.33
26/01/2020 08:41:12	26012020	260120	084112	176.280	12.561652	-57.245003	176.180	-0.320	-0.200	1.260	176.280	-1.500	1.700																			1580028072.0	8.87	16.43
26/01/2020 08:41:13	26012020	260120	084113	176.010	12.561608	-57.245003	175.890	-0.200	-0.490	1.380	176.010	-1.800	1.800																			1580028073.0	9.44	17.48
26/01/2020 08:41:14	26012020	260120	084114	175.760	12.561565	-57.245003	175.670	-0.140	-0.340	1.380	175.760	-1.700	1.800																			1580028074.0	9.32	17.26
26/01/2020 08:41:15	26012020	260120	084115	175.580	12.561523	-57.245003	175.490	-0.200	0.080	1.320	175.580	-1.300	1.800																			1580028075.0	8.78	16.26
26/01/2020 08:41:16	26012020	260120	084116	175.450	12.561483	-57.245005	175.350	-0.230	0.330	1.230	175.450	-1.000	1.700																			1580028076.0	8.59	15.91
26/01/2020 08:41:17	26012020	260120	084117	175.410	12.561443	-57.245005	175.340	-0.160	0.310	1.040	175.410	-1.100	1.500																			1580028077.0	8.79	16.28
26/01/2020 08:41:18	26012020	260120	084118	175.520	12.561402	-57.245003	175.470	-0.030	0.120	0.830	175.520	-1.200	1.300																			1580028078.0	8.95	16.58
26/01/2020 08:41:19	26012020	260120	084119	175.800	12.561360	-57.245005	175.750	0.120	-0.060	0.590	175.800	-1.400	1.000																			1580028079.0	8.95	16.58
26/01/2020 08:41:20	26012020	260120	084120	176.110	12.561318	-57.245005	176.060	0.260	-0.180	0.370	176.110	-1.500	0.800																			1580028080.0	8.75	16.21
26/01/2020 08:41:21	26012020	260120	084121	176.360	12.561278	-57.245003	176.300	0.370	-0.380	0.220	176.360	-1.700	0.700																			1580028081.0	8.67	16.06
26/01/2020 08:41:22	26012020	260120	084122	176.460	12.561238	-57.245002	176.370	0.380	-0.620	0.280	176.460	-2.000	0.700																			1580028082.0	8.77	16.24
26/01/2020 08:41:23	26012020	260120	084123	176.380	12.561197	-57.245002	176.280	0.260	-0.740	0.590	176.380	-2.100	1.000																			1580028083.0	8.88	16.45
26/01/2020 08:41:24	26012020	260120	084124	176.300	12.561155	-57.245002	176.230	0.000	-0.590	0.950	176.300	-2.000	1.400																			1580028084.0	8.84	16.37
26/01/2020 08:41:25	26012020	260120	084125	176.270	12.561115	-57.245003	176.180	-0.260	-0.310	1.310	176.270	-1.700	1.700																			1580028085.0	8.66	16.04
26/01/2020 08:41:26	26012020	260120	084126	176.140	12.561075	-57.245007	176.050	-0.300	-0.160	1.590	176.140	-1.500	2.000																			1580028086.0	8.75	16.21
26/01/2020 08:41:27	26012020	260120	084127	176.000	12.561033	-57.245008	175.920	-0.180	-0.070	1.640	176.000	-1.400	2.100																			1580028087.0	9.00	16.67
26/01/2020 08:41:28	26012020	260120	084128	175.940	12.560990	-57.245008	175.890	-0.080	0.060	1.440	175.940	-1.300	1.900																			1580028088.0	8.98	16.63
26/01/2020 08:41:29	26012020	260120	084129	175.940	12.560950	-57.245008	175.880	-0.070	0.130	1.120	175.940	-1.200	1.600																			1580028089.0	8.87	16.43
26/01/2020 08:41:30	26012020	260120	084130	176.020	12.560908	-57.245007	175.970	-0.080	0.110	0.660	176.020	-1.300	1.100																			1580028090.0	8.89	16.46
26/01/2020 08:41:31	26012020	260120	084131	176.180	12.560867	-57.245005	176.130	-0.060	0.030	0.300	176.180	-1.300	0.800																			1580028091.0	8.86	16.41
26/01/2020 08:41:32	26012020	260120	084132	176.250	12.560827	-57.245005	176.180	0.020	-0.130	0.190	176.250	-1.500	0.600																			1580028092.0	8.84	16.37
26/01/2020 08:41:33	26012020	260120	084133	176.240	12.560785	-57.245005	176.150	0.110	-0.310	0.300	176.240	-1.700	0.700																			1580028093.0	8.90	16.48
26/01/2020 08:41:34	26012020	260120	084134	176.180	12.560743	-57.245005	176.100	0.120	-0.400	0.600	176.180	-1.800	1.000																			1580028094.0	8.84	16.37
26/01/2020 08:41:35	26012020	260120	084135	176.070	12.560702	-57.245007	175.990	0.080	-0.450	0.930	176.070	-1.800	1.300																			1580028095.0	8.81	16.32
26/01/2020 08:41:36	26012020	260120	084136	175.880	12.560662	-57.245008	175.800	0.070	-0.500	1.240	175.880	-1.900	1.600																			1580028096.0	8.88	16.45
26/01/2020 08:41:37	26012020	260120	084137	175.720	12.560620	-57.245010	175.670	0.090	-0.310	1.350	175.720	-1.700	1.800																			1580028097.0	8.93	16.54
26/01/2020 08:41:38	26012020	260120	084138	175.800	12.560580	-57.245012	175.770	0.040	0.140	1.160	175.800	-1.300	1.600																			1580028098.0	8.60	15.93
26/01/2020 08:41:39	26012020	260120	084139	175.950	12.560542	-57.245010	175.900	-0.080	0.290	0.860	175.950	-1.100	1.300																			1580028099.0	8.36	15.48
26/01/2020 08:41:40	26012020	260120	084140	175.950	12.560500	-57.245008	175.860	-0.090	-0.140	0.730	175.950	-1.500	1.200																			1580028100.0	8.81	16.32
26/01/2020 08:41:41	26012020	260120	084141	175.780	12.560457	-57.245008	175.690	0.040	-0.690	0.800	175.780	-2.000	1.200																			1580028101.0	9.41	17.43
26/01/2020 08:41:42	26012020	260120	084142	175.720	12.560413	-57.245008	175.680	0.110	-0.710	0.850	175.720	-2.100	1.300																			1580028102.0	9.35	17.32
26/01/2020 08:41:43	26012020	260120	084143	175.810	12.560372	-57.245008	175.770	-0.080	-0.300	0.940	175.810	-1.700	1.400																			1580028103.0	8.71	16.13
26/01/2020 08:41:44	26012020	260120	084144	175.780	12.560333	-57.245008	175.690	-0.350	-0.030	1.190	175.780	-1.400	1.600																			1580028104.0	8.42	15.59
26/01/2020 08:41:45	26012020	260120	084145	175.560	12.560292	-57.245012	175.380	-0.390	-0.190	1.510	175.490	-1.500	1.900																			1580028105.0	8.84	16.37
26/01/2020 08:41:46	26012020	260120	084146	175.130	12.560248	-57.245013	175.060	-0.130	-0.370	1.660	175.130	-1.700	2.100																			1580028106.0	9.36	17.33
26/01/2020 08:41:47	26012020	260120	084147	175.010	12.560205	-57.245015	175.000	0.150	-0.100	1.450	175.020	-1.500	1.900																			1580028107.0	9.19	17.02
26/01/2020 08:41:48	26012020	260120	084148	175.210	12.560167	-57.245013	175.220	0.210	0.420	1.010	175.210	-1.000	1.500																			1580028108.0	8.57	15.87
26/01/2020 08:41:49	26012020	260120	084149	175.520	12.560127	-57.245010	175.490	0.110	0.630	0.620	175.520	-0.700	1.100																			1580028109.0	8.29	15.35
26/01/2020 08:41:50	26012020	260120	084150	175.720	12.560087	-57.245008	175.660	0.070	0.290	0.520	175.720	-1.000	0.900																			1580028110.0	8.62	15.96
26/01/2020 08:41:51	26012020	260120	084151	175.780	12.560045	-57.245008	175.710	0.150	-0.290	0.630	175.780	-1.600	1.100																			1580028111.0	9.05	16.76
26/01/2020 08:41:52	26012020	260120	084152	175.770	12.560003	-57.245008	175.700	0.270	-0.690	0.810	175.770	-2.000	1.200																			1580028112.0	9.10	16.85
26/01/2020 08:41:53	26012020	260120	084153	175.620	12.559962	-57.245008	175.520	0.320	-0.790	1.020	175.620	-2.200	1.400																			1580028113.0	8.84	16.37
26/01/2020 08:41:54	26012020	260120	084154	175.310	12.559922	-57.245008	175.200	0.230	-0.700	1.310	175.310	-2.100	1.700																			1580028114.0	8.62	15.96
26/01/2020 08:41:55	26012020	260120	084155	175.000	12.559882	-57.245010	174.920	0.010	-0.500	1.550	175.000	-1.900	2.000																			1580028115.0	8.63	15.98
26/01/2020 08:41:56	26012020	260120	084156	174.840	12.559842	-57.245010	174.790	-0.210	-0.320	1.530	174.840	-1.700	2.000																			1580028116.0	8.68	16.08
26/01/2020 08:41:57	26012020	260120	084157	174.900	12.559800	-57.245012	174.880	-0.350	-0.220	1.260	174.900	-1.600	1.700																			1580028117.0	8.84	16.37
26/01/2020 08:41:58	26012020	260120	084158	175.110	12.559758	-57.245012	175.090	-0.340	-0.180	0.950	175.110	-1.500	1.400																			1580028118.0	8.96	16.59
26/01/2020 08:41:59	26012020	260120	084159	175.340	12.559717	-57.245010	175.300	-0.210	-0.180	0.610	175.340	-1.500	1.100																			1580028119.0	9.01	16.69
26/01/2020 08:42:00	26012020	260120	084200	175.520	12.559675	-57.245008	175.460	-0.070	-0.200	0.370	175.520	-1.600	0.800	1013.60	25.60	25.60	19.80	19.90	0.00	70.00	70.00	430.00	25.40	318.00	9.50	108.00	6.80	15	3258.00	27.40	27.40	1580028120.0	9.05	16.76
26/01/2020 08:42:01	26012020	260120	084201	175.650	12.559633	-57.245007	175.570	-0.060	-0.120	0.350	175.650	-1.500	0.800																			1580028121.0	9.05	16.76
26/01/2020 08:42:02	26012020	260120	084202	175.720	12.559592	-57.245005	175.630	-0.150	0.100	0.510	175.720	-1.300	0.900																			1580028122.0	8.90	16.48
26/01/2020 08:42:03	26012020	260120	084203	175.730	12.559550	-57.245005	175.640	-0.230	0.340	0.800	175.730	-1.000	1.200																			1580028123.0	8.69	16.09
26/01/2020 08:42:04	26012020	260120	084204	175.730	12.559510	-57.245007	175.650	-0.150	0.410	1.080	175.730	-0.900	1.500																			1580028124.0	8.66	16.04
26/01/2020 08:42:05	26012020	260120	084205	175.620	12.559470	-57.245008	175.530	0.130	0.190	1.310	175.620	-1.100	1.700																			1580028125.0	8.77	16.24
26/01/2020 08:42:06	26012020	260120	084206	175.440	12.559428	-57.245008	175.350	0.470	-0.150	1.420	175.440	-1.500	1.800																			1580028126.0	8.94	16.56
26/01/2020 08:42:07	26012020	260120	084207	175.300	12.559387	-57.245008	175.230	0.620	-0.390	1.350	175.300	-1.700	1.800																			1580028127.0	8.92	16.52
26/01/2020 08:42:08	26012020	260120	084208	175.270	12.559347	-57.245007	175.210	0.490	-0.460	1.180	175.270	-1.800	1.600																			1580028128.0	8.70	16.11
26/01/2020 08:42:09	26012020	260120	084209	175.280	12.559307	-57.245007	175.200	0.230	-0.510	1.010	175.280	-1.900	1.400																			1580028129.0	8.53	15.80
26/01/2020 08:42:10	26012020	260120	084210	175.230	12.559267	-57.245007	175.160	0.040	-0.650	0.840	175.230	-2.000	1.300																			1580028130.0	8.64	16.00
26/01/2020 08:42:11	26012020	260120	084211	175.260	12.559225	-57.245007	175.220	-0.080	-0.730	0.720	175.270	-2.100	1.200																			1580028131.0	8.86	16.41
26/01/2020 08:42:12	26012020	260120	084212	175.380	12.559183	-57.245005	175.310	-0.200	-0.710	0.690	175.380	-2.100	1.100																			1580028132.0	8.89	16.46
26/01/2020 08:42:13	26012020	260120	084213	175.420	12.559142	-57.245005	175.320	-0.330	-0.620	0.770	175.420	-2.000	1.200																			1580028133.0	8.96	16.59
26/01/2020 08:42:14	26012020	260120	084214	175.320	12.559100	-57.245007	175.220	-0.410	-0.440	1.070	175.320	-1.800	1.500																			1580028134.0	9.08	16.82
26/01/2020 08:42:15	26012020	260120	084215	175.260	12.559058	-57.245007	175.180	-0.420	-0.040	1.290	175.260	-1.400	1.700																			1580028135.0	9.10	16.85
26/01/2020 08:42:16	26012020	260120	084216	175.370	12.559017	-57.245008	175.340	-0.410	0.490	1.290	175.370	-0.900	1.700																			1580028136.0	8.86	16.41
26/01/2020 08:42:17	26012020	260120	084217	175.590	12.558977	-57.245008	175.550	-0.330	0.810	1.170	175.590	-0.600	1.600																			1580028137.0	8.67	16.06
26/01/2020 08:42:18	26012020	260120	084218	175.690	12.558935	-57.245007	175.610	-0.130	0.690	1.030	175.690	-0.700	1.500																			1580028138.0	8.77	16.24
26/01/2020 08:42:19	26012020	260120	084219	175.560	12.558893	-57.245007	175.440	0.190	0.200	1.010	175.560	-1.100	1.400																			1580028139.0	9.03	16.72
26/01/2020 08:42:20	26012020	260120	084220	175.340	12.558850	-57.245007	175.230	0.520	-0.310	0.940	175.340	-1.700	1.400																			1580028140.0	9.19	17.02
26/01/2020 08:42:21	26012020	260120	084221	175.270	12.558808	-57.245005	175.180	0.690	-0.510	0.770	175.270	-1.900	1.200																			1580028141.0	9.00	16.67
26/01/2020 08:42:22	26012020	260120	084222	175.330	12.558770	-57.245003	175.260	0.580	-0.390	0.630	175.330	-1.800	1.100																			1580028142.0	8.53	15.80
26/01/2020 08:42:23	26012020	260120	084223	175.390	12.558732	-57.245002	175.290	0.260	-0.370	0.650	175.390	-1.700	1.100																			1580028143.0	8.26	15.30
26/01/2020 08:42:24	26012020	260120	084224	175.270	12.558690	-57.245002	175.160	-0.020	-0.710	0.920	175.270	-2.000	1.300																			1580028144.0	8.64	16.00
26/01/2020 08:42:25	26012020	260120	084225	175.120	12.558648	-57.245003	175.040	-0.180	-0.960	1.300	175.120	-2.300	1.700																			1580028145.0	9.17	16.98
26/01/2020 08:42:26	26012020	260120	084226	175.070	12.558605	-57.245005	175.010	-0.270	-0.770	1.580	175.070	-2.200	2.000																			1580028146.0	9.14	16.93
26/01/2020 08:42:27	26012020	260120	084227	175.160	12.558565	-57.245007	175.110	-0.350	-0.290	1.550	175.160	-1.700	2.000																			1580028147.0	8.81	16.32
26/01/2020 08:42:28	26012020	260120	084228	175.320	12.558525	-57.245008	175.270	-0.370	0.180	1.280	175.320	-1.200	1.700																			1580028148.0	8.60	15.93
26/01/2020 08:42:29	26012020	260120	084229	175.440	12.558485	-57.245007	175.370	-0.260	0.330	1.040	175.440	-1.000	1.500																			1580028149.0	8.71	16.13
26/01/2020 08:42:30	26012020	260120	084230	175.500	12.558442	-57.245005	175.410	-0.100	0.170	0.850	175.500	-1.200	1.300																			1580028150.0	9.01	16.69
26/01/2020 08:42:31	26012020	260120	084231	175.490	12.558400	-57.245003	175.370	-0.000	-0.070	0.790	175.490	-1.400	1.200																			1580028151.0	9.19	17.02
26/01/2020 08:42:32	26012020	260120	084232	175.350	12.558357	-57.245003	175.230	0.040	-0.190	0.940	175.350	-1.600	1.400																			1580028152.0	9.12	16.89
26/01/2020 08:42:33	26012020	260120	084233	175.200	12.558315	-57.245003	175.090	0.080	-0.130	1.130	175.200	-1.500	1.600																			1580028153.0	8.90	16.48
26/01/2020 08:42:34	26012020	260120	084234	175.110	12.558275	-57.245003	175.020	0.180	-0.040	1.210	175.110	-1.400	1.600																			1580028154.0	8.71	16.13
26/01/2020 08:42:35	26012020	260120	084235	175.020	12.558235	-57.245003	174.910	0.300	-0.100	1.270	175.020	-1.500	1.700																			1580028155.0	8.73	16.17
26/01/2020 08:42:36	26012020	260120	084236	174.970	12.558193	-57.245003	174.900	0.310	-0.210	1.310	174.970	-1.600	1.700																			1580028156.0	8.88	16.45
26/01/2020 08:42:37	26012020	260120	084237	175.070	12.558152	-57.245003	175.050	0.160	-0.240	1.240	175.110	-1.600	1.700																			1580028157.0	8.86	16.41
26/01/2020 08:42:38	26012020	260120	084238	175.350	12.558112	-57.245003	175.300	-0.030	-0.160	1.010	175.350	-1.500	1.500																			1580028158.0	8.70	16.11
26/01/2020 08:42:39	26012020	260120	084239	175.580	12.558072	-57.245003	175.500	-0.100	-0.110	0.740	175.580	-1.500	1.200																			1580028159.0	8.57	15.87
26/01/2020 08:42:40	26012020	260120	084240	175.690	12.558032	-57.245002	175.600	-0.030	-0.210	0.500	175.690	-1.600	0.900																			1580028160.0	8.66	16.04
26/01/2020 08:42:41	26012020	260120	084241	175.750	12.557990	-57.245000	175.660	0.030	-0.390	0.330	175.750	-1.700	0.800																			1580028161.0	8.86	16.41
26/01/2020 08:42:42	26012020	260120	084242	175.800	12.557950	-57.244998	175.700	-0.040	-0.490	0.430	175.800	-1.900	0.800																			1580028162.0	8.90	16.48
26/01/2020 08:42:43	26012020	260120	084243	175.730	12.557908	-57.244998	175.600	-0.170	-0.510	0.750	175.730	-1.900	1.200																			1580028163.0	8.83	16.35
26/01/2020 08:42:44	26012020	260120	084244	175.440	12.557867	-57.245000	175.270	-0.170	-0.600	1.220	175.440	-2.000	1.600																			1580028164.0	8.90	16.48
26/01/2020 08:42:45	26012020	260120	084245	175.040	12.557823	-57.245002	174.900	-0.010	-0.670	1.570	175.040	-2.000	2.000																			1580028165.0	9.22	17.08
26/01/2020 08:42:46	26012020	260120	084246	174.810	12.557782	-57.245003	174.740	0.080	-0.380	1.600	174.810	-1.800	2.000																			1580028166.0	9.22	17.08
26/01/2020 08:42:47	26012020	260120	084247	174.930	12.557740	-57.245003	174.900	-0.080	0.200	1.310	174.930	-1.200	1.800																			1580028167.0	8.78	16.26
26/01/2020 08:42:48	26012020	260120	084248	175.190	12.557700	-57.245002	175.150	-0.360	0.530	0.990	175.190	-0.800	1.400																			1580028168.0	8.49	15.72
26/01/2020 08:42:49	26012020	260120	084249	175.350	12.557660	-57.245002	175.280	-0.420	0.390	0.900	175.350	-1.000	1.300																			1580028169.0	8.81	16.32
26/01/2020 08:42:50	26012020	260120	084250	175.450	12.557617	-57.245003	175.380	-0.110	0.080	0.920	175.450	-1.300	1.400																			1580028170.0	9.19	17.02
26/01/2020 08:42:51	26012020	260120	084251	175.550	12.557575	-57.245002	175.480	0.330	-0.050	0.830	175.550	-1.400	1.300																			1580028171.0	9.12	16.89
26/01/2020 08:42:52	26012020	260120	084252	175.710	12.557533	-57.245000	175.650	0.530	-0.040	0.700	175.710	-1.400	1.100																			1580028172.0	8.77	16.24
26/01/2020 08:42:53	26012020	260120	084253	175.940	12.557495	-57.244998	175.880	0.370	-0.030	0.640	175.940	-1.400	1.100																			1580028173.0	8.54	15.82
26/01/2020 08:42:54	26012020	260120	084254	176.180	12.557455	-57.244997	176.110	0.060	-0.080	0.670	176.180	-1.400	1.100																			1580028174.0	8.45	15.65
26/01/2020 08:42:55	26012020	260120	084255	176.200	12.557415	-57.244998	176.070	-0.070	-0.340	0.970	176.200	-1.700	1.400																			1580028175.0	8.48	15.70
26/01/2020 08:42:56	26012020	260120	084256	175.900	12.557375	-57.245000	175.720	0.120	-0.820	1.350	175.900	-2.100	1.800																			1580028176.0	8.86	16.41
26/01/2020 08:42:57	26012020	260120	084257	175.400	12.557332	-57.245002	175.230	0.350	-1.170	1.620	175.400	-2.500	2.000																			1580028177.0	9.16	16.96
26/01/2020 08:42:58	26012020	260120	084258	174.960	12.557290	-57.245002	174.830	0.280	-1.090	1.730	174.960	-2.500	2.200																			1580028178.0	9.15	16.95
26/01/2020 08:42:59	26012020	260120	084259	174.750	12.557248	-57.245002	174.670	-0.160	-0.560	1.660	174.750	-2.000	2.100																			1580028179.0	8.83	16.35
26/01/2020 08:43:00	26012020	260120	084300	174.830	12.557208	-57.245003	174.800	-0.630	0.090	1.430	174.830	-1.300	1.900	1013.60	25.60	25.70	20.00	20.10	0.00	71.00	71.00	430.00	25.40	315.00	10.80	108.00	8.20	15	3252.00	27.40	27.40	1580028180.0	8.54	15.82
26/01/2020 08:43:01	26012020	260120	084301	175.080	12.557168	-57.245003	175.060	-0.790	0.480	1.090	175.080	-0.900	1.500																			1580028181.0	8.59	15.91
26/01/2020 08:43:02	26012020	260120	084302	175.400	12.557127	-57.245003	175.370	-0.530	0.450	0.730	175.400	-0.900	1.200																			1580028182.0	8.91	16.50
26/01/2020 08:43:03	26012020	260120	084303	175.680	12.557085	-57.245003	175.630	-0.060	0.170	0.470	175.680	-1.200	0.900																			1580028183.0	9.23	17.09
26/01/2020 08:43:04	26012020	260120	084304	175.950	12.557042	-57.245002	175.890	0.280	0.000	0.350	175.950	-1.400	0.800																			1580028184.0	9.23	17.09
26/01/2020 08:43:05	26012020	260120	084305	176.090	12.557000	-57.245000	175.980	0.320	0.000	0.480	176.090	-1.400	0.900																			1580028185.0	8.83	16.35
26/01/2020 08:43:06	26012020	260120	084306	175.930	12.556960	-57.245000	175.780	0.230	-0.110	0.940	175.930	-1.500	1.300																			1580028186.0	8.64	16.00
26/01/2020 08:43:07	26012020	260120	084307	175.560	12.556920	-57.245000	175.410	0.200	-0.270	1.460	175.560	-1.600	1.900																			1580028187.0	8.80	16.30
26/01/2020 08:43:08	26012020	260120	084308	175.230	12.556878	-57.245002	175.120	0.250	-0.260	1.740	175.230	-1.600	2.200																			1580028188.0	8.86	16.41
26/01/2020 08:43:09	26012020	260120	084309	175.170	12.556838	-57.245002	175.090	0.200	-0.060	1.640	175.170	-1.400	2.100																			1580028189.0	8.60	15.93
26/01/2020 08:43:10	26012020	260120	084310	175.280	12.556798	-57.245002	175.200	0.040	0.050	1.360	175.280	-1.300	1.800																			1580028190.0	8.36	15.48
26/01/2020 08:43:11	26012020	260120	084311	175.390	12.556760	-57.245002	175.290	-0.080	-0.180	1.120	175.390	-1.500	1.600																			1580028191.0	8.48	15.70
26/01/2020 08:43:12	26012020	260120	084312	175.410	12.556718	-57.245002	175.290	-0.020	-0.660	1.000	175.410	-2.000	1.400																			1580028192.0	8.86	16.41
26/01/2020 08:43:13	26012020	260120	084313	175.330	12.556677	-57.245002	175.170	0.170	-1.100	0.990	175.300	-2.400	1.400																			1580028193.0	9.14	16.93
26/01/2020 08:43:14	26012020	260120	084314	175.110	12.556633	-57.245002	174.990	0.260	-1.140	1.100	175.110	-2.500	1.500																			1580028194.0	9.17	16.98
26/01/2020 08:43:15	26012020	260120	084315	175.020	12.556592	-57.245002	174.940	0.060	-0.670	1.140	175.020	-2.100	1.600																			1580028195.0	8.91	16.50
26/01/2020 08:43:16	26012020	260120	084316	175.150	12.556552	-57.245002	175.110	-0.370	0.090	1.130	175.150	-1.300	1.600																			1580028196.0	8.53	15.80
26/01/2020 08:43:17	26012020	260120	084317	175.410	12.556513	-57.245003	175.360	-0.680	0.640	1.060	175.410	-0.800	1.500																			1580028197.0	8.40	15.56
26/01/2020 08:43:18	26012020	260120	084318	175.630	12.556473	-57.245003	175.550	-0.530	0.640	0.870	175.630	-0.700	1.300																			1580028198.0	8.69	16.09
26/01/2020 08:43:19	26012020	260120	084319	175.710	12.556430	-57.245002	175.620	-0.050	0.300	0.610	175.710	-1.000	1.100																			1580028199.0	9.19	17.02
26/01/2020 08:43:20	26012020	260120	084320	175.760	12.556387	-57.245000	175.670	0.350	0.040	0.440	175.760	-1.300	0.900																			1580028200.0	9.25	17.13
26/01/2020 08:43:21	26012020	260120	084321	175.780	12.556345	-57.244997	175.670	0.420	-0.030	0.420	175.780	-1.400	0.900																			1580028201.0	8.90	16.48
26/01/2020 08:43:22	26012020	260120	084322	175.750	12.556307	-57.244995	175.640	0.260	-0.040	0.560	175.750	-1.400	1.000																			1580028202.0	8.53	15.80
26/01/2020 08:43:23	26012020	260120	084323	175.640	12.556267	-57.244995	175.510	0.070	-0.230	0.950	175.640	-1.600	1.300																			1580028203.0	8.46	15.67
26/01/2020 08:43:24	26012020	260120	084324	175.340	12.556227	-57.244997	175.190	-0.020	-0.650	1.580	175.340	-2.000	2.000																			1580028204.0	8.77	16.24
26/01/2020 08:43:25	26012020	260120	084325	175.050	12.556183	-57.245000	174.850	-0.030	-0.950	2.010	174.990	-2.300	2.400																			1580028205.0	9.12	16.89
26/01/2020 08:43:26	26012020	260120	084326	174.730	12.556142	-57.245003	174.630	-0.000	-0.790	1.990	174.730	-2.200	2.400																			1580028206.0	8.98	16.63
26/01/2020 08:43:27	26012020	260120	084327	174.680	12.556102	-57.245005	174.640	0.010	-0.320	1.570	174.700	-1.700	2.000																			1580028207.0	8.54	15.82
26/01/2020 08:43:28	26012020	260120	084328	174.900	12.556063	-57.245003	174.850	0.040	0.050	0.880	174.900	-1.300	1.400																			1580028208.0	8.34	15.45
26/01/2020 08:43:29	26012020	260120	084329	175.130	12.556023	-57.245000	175.070	0.050	0.040	0.370	175.130	-1.300	0.800																			1580028209.0	8.58	15.89
26/01/2020 08:43:30	26012020	260120	084330	175.240	12.555982	-57.244997	175.140	-0.010	-0.280	0.330	175.240	-1.600	0.800																			1580028210.0	9.03	16.72
26/01/2020 08:43:31	26012020	260120	084331	175.270	12.555938	-57.244995	175.170	-0.150	-0.490	0.590	175.270	-1.900	1.000																			1580028211.0	9.31	17.24
26/01/2020 08:43:32	26012020	260120	084332	175.280	12.555897	-57.244997	175.200	-0.270	-0.280	0.890	175.280	-1.700	1.300																			1580028212.0	9.10	16.85
26/01/2020 08:43:33	26012020	260120	084333	175.360	12.555857	-57.244998	175.290	-0.300	0.170	0.980	175.360	-1.200	1.400																			1580028213.0	8.65	16.02
26/01/2020 08:43:34	26012020	260120	084334	175.450	12.555817	-57.244998	175.380	-0.200	0.410	0.870	175.450	-1.000	1.300																			1580028214.0	8.45	15.65
26/01/2020 08:43:35	26012020	260120	084335	175.500	12.555777	-57.244997	175.410	-0.010	0.250	0.740	175.500	-1.100	1.200																			1580028215.0	8.67	16.06
26/01/2020 08:43:36	26012020	260120	084336	175.440	12.555735	-57.244995	175.310	0.200	-0.150	0.720	175.440	-1.500	1.200																			1580028216.0	8.97	16.61
26/01/2020 08:43:37	26012020	260120	084337	175.300	12.555693	-57.244993	175.170	0.320	-0.450	0.830	175.300	-1.800	1.200																			1580028217.0	9.07	16.80
26/01/2020 08:43:38	26012020	260120	084338	175.180	12.555652	-57.244992	175.080	0.270	-0.450	1.020	175.180	-1.800	1.400																			1580028218.0	8.85	16.39
26/01/2020 08:43:39	26012020	260120	084339	175.080	12.555612	-57.244992	174.980	0.090	-0.310	1.270	175.080	-1.700	1.700																			1580028219.0	8.56	15.85
26/01/2020 08:43:40	26012020	260120	084340	174.920	12.555572	-57.244993	174.820	-0.050	-0.200	1.530	174.920	-1.600	1.900																			1580028220.0	8.55	15.83
26/01/2020 08:43:41	26012020	260120	084341	174.770	12.555532	-57.244995	174.690	-0.090	-0.140	1.650	174.770	-1.500	2.100																			1580028221.0	8.67	16.06
26/01/2020 08:43:42	26012020	260120	084342	174.730	12.555492	-57.244997	174.660	-0.030	-0.130	1.540	174.730	-1.500	2.000																			1580028222.0	8.73	16.17
26/01/2020 08:43:43	26012020	260120	084343	174.850	12.555450	-57.244997	174.800	0.080	-0.220	1.220	174.850	-1.600	1.700																			1580028223.0	8.77	16.24
26/01/2020 08:43:44	26012020	260120	084344	175.090	12.555410	-57.244995	175.040	0.170	-0.380	0.830	175.090	-1.700	1.300																			1580028224.0	8.84	16.37
26/01/2020 08:43:45	26012020	260120	084345	175.340	12.555368	-57.244993	175.270	0.150	-0.520	0.610	175.340	-1.900	1.100																			1580028225.0	8.91	16.50
26/01/2020 08:43:46	26012020	260120	084346	175.500	12.555327	-57.244992	175.400	-0.000	-0.530	0.640	175.500	-1.900	1.100																			1580028226.0	8.89	16.46
26/01/2020 08:43:47	26012020	260120	084347	175.580	12.555287	-57.244990	175.500	-0.240	-0.360	0.840	175.580	-1.800	1.300																			1580028227.0	8.81	16.32
26/01/2020 08:43:48	26012020	260120	084348	175.680	12.555245	-57.244992	175.580	-0.410	-0.130	1.030	175.680	-1.500	1.400																			1580028228.0	8.69	16.09
26/01/2020 08:43:49	26012020	260120	084349	175.730	12.555205	-57.244992	175.610	-0.360	-0.050	1.080	175.730	-1.400	1.500																			1580028229.0	8.77	16.24
26/01/2020 08:43:50	26012020	260120	084350	175.800	12.555163	-57.244992	175.710	-0.140	-0.020	0.970	175.800	-1.400	1.400																			1580028230.0	8.99	16.65
26/01/2020 08:43:51	26012020	260120	084351	176.000	12.555122	-57.244990	175.910	0.050	0.170	0.760	176.000	-1.200	1.200																			1580028231.0	8.88	16.45
26/01/2020 08:43:52	26012020	260120	084352	176.180	12.555082	-57.244987	176.060	0.070	0.330	0.620	176.180	-1.100	1.100																			1580028232.0	8.61	15.95
26/01/2020 08:43:53	26012020	260120	084353	176.140	12.555042	-57.244985	175.970	0.040	0.210	0.740	176.140	-1.200	1.200																			1580028233.0	8.61	15.95
26/01/2020 08:43:54	26012020	260120	084354	175.900	12.555000	-57.244987	175.720	0.090	-0.070	1.020	175.900	-1.400	1.400																			1580028234.0	8.87	16.43
26/01/2020 08:43:55	26012020	260120	084355	175.680	12.554958	-57.244988	175.530	0.210	-0.240	1.160	175.680	-1.600	1.600																			1580028235.0	8.91	16.50
26/01/2020 08:43:56	26012020	260120	084356	175.660	12.554918	-57.244988	175.550	0.290	-0.270	1.070	175.660	-1.600	1.500																			1580028236.0	8.69	16.09
26/01/2020 08:43:57	26012020	260120	084357	175.770	12.554880	-57.244990	175.670	0.270	-0.370	0.850	175.770	-1.700	1.300																			1580028237.0	8.53	15.80
26/01/2020 08:43:58	26012020	260120	084358	175.840	12.554838	-57.244990	175.710	0.190	-0.660	0.740	175.840	-2.000	1.200																			1580028238.0	8.69	16.09
26/01/2020 08:43:59	26012020	260120	084359	175.830	12.554797	-57.244990	175.690	0.130	-0.850	0.670	175.830	-2.200	1.100																			1580028239.0	8.96	16.59
26/01/2020 08:44:00	26012020	260120	084400	175.920	12.554757	-57.244990	175.810	0.010	-0.700	0.520	175.920	-2.100	1.000	1013.60	25.60	25.60	19.80	19.90	0.00	70.00	70.00	430.00	25.40	317.00	10.30	108.00	7.60	15	3286.00	27.40	27.40	1580028240.0	8.87	16.43
26/01/2020 08:44:01	26012020	260120	084401	176.100	12.554715	-57.244988	176.040	-0.210	-0.410	0.440	176.140	-1.800	0.900																			1580028241.0	8.64	16.00
26/01/2020 08:44:02	26012020	260120	084402	176.270	12.554675	-57.244988	176.150	-0.370	-0.260	0.610	176.270	-1.600	1.000																			1580028242.0	8.72	16.15
26/01/2020 08:44:03	26012020	260120	084403	176.220	12.554633	-57.244988	176.080	-0.360	-0.210	0.970	176.220	-1.600	1.400																			1580028243.0	9.04	16.74
26/01/2020 08:44:04	26012020	260120	084404	176.050	12.554590	-57.244990	175.900	-0.250	-0.000	1.340	176.050	-1.400	1.700																			1580028244.0	9.16	16.96
26/01/2020 08:44:05	26012020	260120	084405	175.930	12.554548	-57.244990	175.830	-0.220	0.450	1.510	175.930	-1.000	1.900																			1580028245.0	8.93	16.54
26/01/2020 08:44:06	26012020	260120	084406	176.010	12.554510	-57.244992	175.920	-0.280	0.860	1.370	176.010	-0.500	1.800																			1580028246.0	8.53	15.80
26/01/2020 08:44:07	26012020	260120	084407	176.070	12.554470	-57.244992	175.950	-0.200	0.750	1.110	176.070	-0.600	1.600																			1580028247.0	8.44	15.63
26/01/2020 08:44:08	26012020	260120	084408	175.910	12.554428	-57.244990	175.740	0.200	-0.020	1.040	175.910	-1.300	1.500																			1580028248.0	8.89	16.46
26/01/2020 08:44:09	26012020	260120	084409	175.630	12.554385	-57.244990	175.490	0.670	-0.820	1.050	175.630	-2.200	1.500																			1580028249.0	9.43	17.46
26/01/2020 08:44:10	26012020	260120	084410	175.560	12.554342	-57.244990	175.460	0.770	-0.910	0.960	175.560	-2.300	1.400																			1580028250.0	9.13	16.91
26/01/2020 08:44:11	26012020	260120	084411	175.690	12.554303	-57.244988	175.620	0.410	-0.480	0.740	175.690	-1.900	1.200																			1580028251.0	8.27	15.32
26/01/2020 08:44:12	26012020	260120	084412	175.930	12.554267	-57.244988	175.830	-0.050	-0.300	0.520	175.930	-1.700	1.000																			1580028252.0	8.00	14.82
26/01/2020 08:44:13	26012020	260120	084413	176.050	12.554227	-57.244988	175.940	-0.260	-0.610	0.580	176.050	-2.000	1.000																			1580028253.0	8.59	15.91
26/01/2020 08:44:14	26012020	260120	084414	175.960	12.554183	-57.244990	175.830	-0.180	-0.920	0.840	175.960	-2.300	1.300																			1580028254.0	9.26	17.15
26/01/2020 08:44:15	26012020	260120	084415	175.870	12.554140	-57.244992	175.750	-0.060	-0.650	0.940	175.860	-2.100	1.400																			1580028255.0	9.24	17.11
26/01/2020 08:44:16	26012020	260120	084416	175.900	12.554100	-57.244990	175.820	-0.100	0.020	0.800	175.900	-1.400	1.200																			1580028256.0	8.68	16.08
26/01/2020 08:44:17	26012020	260120	084417	175.970	12.554062	-57.244988	175.890	-0.280	0.530	0.710	175.990	-0.900	1.100																			1580028257.0	8.42	15.59
26/01/2020 08:44:18	26012020	260120	084418	175.990	12.554022	-57.244987	175.880	-0.370	0.550	0.910	175.990	-0.800	1.300																			1580028258.0	8.67	16.06
26/01/2020 08:44:19	26012020	260120	084419	175.920	12.553978	-57.244988	175.810	-0.220	0.280	1.190	175.920	-1.100	1.600																			1580028259.0	9.09	16.83
26/01/2020 08:44:20	26012020	260120	084420	175.820	12.553937	-57.244990	175.690	0.090	0.010	1.440	175.820	-1.300	1.900																			1580028260.0	9.16	16.96
26/01/2020 08:44:21	26012020	260120	084421	175.670	12.553895	-57.244990	175.530	0.310	-0.170	1.600	175.670	-1.500	2.000																			1580028261.0	8.94	16.56
26/01/2020 08:44:22	26012020	260120	084422	175.500	12.553853	-57.244992	175.350	0.330	-0.300	1.560	175.500	-1.700	2.000																			1580028262.0	8.77	16.24
26/01/2020 08:44:23	26012020	260120	084423	175.380	12.553813	-57.244992	175.250	0.190	-0.360	1.380	175.380	-1.700	1.800																			1580028263.0	8.65	16.02
26/01/2020 08:44:24	26012020	260120	084424	175.390	12.553773	-57.244992	175.280	0.080	-0.390	1.070	175.390	-1.800	1.500																			1580028264.0	8.58	15.89
26/01/2020 08:44:25	26012020	260120	084425	175.560	12.553733	-57.244992	175.490	0.070	-0.410	0.630	175.560	-1.800	1.100																			1580028265.0	8.58	15.89
26/01/2020 08:44:26	26012020	260120	084426	175.880	12.553693	-57.244988	175.810	0.080	-0.470	0.200	175.880	-1.800	0.700																			1580028266.0	8.64	16.00
26/01/2020 08:44:27	26012020	260120	084427	176.110	12.553653	-57.244987	176.010	0.060	-0.610	0.050	176.110	-2.000	0.500																			1580028267.0	8.80	16.30
26/01/2020 08:44:28	26012020	260120	084428	176.230	12.553612	-57.244985	176.130	-0.030	-0.630	0.190	176.230	-2.000	0.600																			1580028268.0	9.00	16.67
26/01/2020 08:44:29	26012020	260120	084429	176.340	12.553570	-57.244985	176.240	-0.170	-0.390	0.510	176.340	-1.800	0.900																			1580028269.0	8.93	16.54
26/01/2020 08:44:30	26012020	260120	084430	176.410	12.553528	-57.244987	176.300	-0.270	-0.090	0.880	176.410	-1.500	1.300																			1580028270.0	8.77	16.24
26/01/2020 08:44:31	26012020	260120	084431	176.360	12.553487	-57.244987	176.240	-0.280	0.090	1.290	176.360	-1.300	1.700																			1580028271.0	8.85	16.39
26/01/2020 08:44:32	26012020	260120	084432	176.190	12.553445	-57.244988	176.040	-0.210	0.230	1.650	176.190	-1.200	2.100																			1580028272.0	8.95	16.58
26/01/2020 08:44:33	26012020	260120	084433	175.920	12.553405	-57.244990	175.760	-0.080	0.330	1.800	175.920	-1.000	2.200																			1580028273.0	8.89	16.46
26/01/2020 08:44:34	26012020	260120	084434	175.660	12.553363	-57.244992	175.520	0.080	0.370	1.630	175.660	-1.000	2.100																			1580028274.0	8.78	16.26
26/01/2020 08:44:35	26012020	260120	084435	175.540	12.553323	-57.244990	175.400	0.170	0.270	1.340	175.540	-1.100	1.800																			1580028275.0	8.67	16.06
26/01/2020 08:44:36	26012020	260120	084436	175.540	12.553283	-57.244988	175.420	0.230	-0.050	1.000	175.540	-1.400	1.500																			1580028276.0	8.71	16.13
26/01/2020 08:44:37	26012020	260120	084437	175.670	12.553242	-57.244988	175.560	0.270	-0.460	0.680	175.670	-1.800	1.100																			1580028277.0	8.85	16.39
26/01/2020 08:44:38	26012020	260120	084438	175.890	12.553200	-57.244987	175.810	0.270	-0.690	0.480	175.890	-2.100	0.900																			1580028278.0	8.87	16.43
26/01/2020 08:44:39	26012020	260120	084439	176.170	12.553160	-57.244988	176.090	0.200	-0.660	0.390	176.170	-2.000	0.800																			1580028279.0	8.62	15.96
26/01/2020 08:44:40	26012020	260120	084440	176.320	12.553122	-57.244988	176.210	0.120	-0.660	0.500	176.320	-2.000	0.900																			1580028280.0	8.48	15.70
26/01/2020 08:44:41	26012020	260120	084441	176.280	12.553080	-57.244988	176.160	0.040	-0.810	0.770	176.280	-2.200	1.200																			1580028281.0	8.80	16.30
26/01/2020 08:44:42	26012020	260120	084442	176.190	12.553038	-57.244990	176.070	-0.080	-0.790	1.030	176.190	-2.200	1.400																			1580028282.0	9.15	16.95
26/01/2020 08:44:43	26012020	260120	084443	176.210	12.552995	-57.244990	176.110	-0.260	-0.330	1.110	176.210	-1.800	1.500																			1580028283.0	9.00	16.67
26/01/2020 08:44:44	26012020	260120	084444	176.320	12.552957	-57.244990	176.210	-0.420	0.310	0.960	176.320	-1.100	1.400																			1580028284.0	8.56	15.85
26/01/2020 08:44:45	26012020	260120	084445	176.290	12.552917	-57.244988	176.140	-0.440	0.550	0.930	176.290	-0.800	1.400																			1580028285.0	8.54	15.82
26/01/2020 08:44:46	26012020	260120	084446	176.130	12.552873	-57.244988	175.980	-0.280	0.320	1.070	176.130	-1.000	1.500																			1580028286.0	9.04	16.74
26/01/2020 08:44:47	26012020	260120	084447	175.970	12.552832	-57.244988	175.830	-0.040	0.080	1.260	175.970	-1.300	1.700																			1580028287.0	9.32	17.26
26/01/2020 08:44:48	26012020	260120	084448	175.870	12.552788	-57.244988	175.720	0.160	0.100	1.360	175.870	-1.300	1.800																			1580028288.0	9.04	16.74
26/01/2020 08:44:49	26012020	260120	084449	175.790	12.552748	-57.244988	175.660	0.250	0.170	1.300	175.790	-1.200	1.700																			1580028289.0	8.64	16.00
26/01/2020 08:44:50	26012020	260120	084450	175.790	12.552708	-57.244988	175.660	0.230	0.020	1.200	175.790	-1.300	1.600																			1580028290.0	8.54	15.82
26/01/2020 08:44:51	26012020	260120	084451	175.810	12.552668	-57.244988	175.690	0.210	-0.320	1.150	175.810	-1.700	1.600																			1580028291.0	8.75	16.21
26/01/2020 08:44:52	26012020	260120	084452	175.910	12.552627	-57.244990	175.800	0.200	-0.520	0.940	175.910	-1.900	1.400																			1580028292.0	8.82	16.33
26/01/2020 08:44:53	26012020	260120	084453	176.010	12.552587	-57.244990	175.890	0.210	-0.590	0.700	176.010	-2.000	1.100																			1580028293.0	8.62	15.96
26/01/2020 08:44:54	26012020	260120	084454	176.060	12.552547	-57.244988	175.940	0.200	-0.650	0.560	176.060	-2.000	1.000																			1580028294.0	8.63	15.98
26/01/2020 08:44:55	26012020	260120	084455	176.180	12.552507	-57.244988	176.080	0.110	-0.640	0.440	176.180	-2.000	0.900																			1580028295.0	8.71	16.13
26/01/2020 08:44:56	26012020	260120	084456	176.310	12.552465	-57.244987	176.200	-0.070	-0.610	0.570	176.310	-2.000	1.000																			1580028296.0	8.79	16.28
26/01/2020 08:44:57	26012020	260120	084457	176.310	12.552425	-57.244988	176.170	-0.270	-0.510	0.970	176.310	-1.900	1.400																			1580028297.0	8.90	16.48
26/01/2020 08:44:58	26012020	260120	084458	176.130	12.552383	-57.244990	175.980	-0.370	-0.330	1.390	176.130	-1.700	1.800																			1580028298.0	8.99	16.65
26/01/2020 08:44:59	26012020	260120	084459	175.890	12.552340	-57.244993	175.740	-0.320	-0.060	1.600	175.890	-1.500	2.000																			1580028299.0	9.05	16.76
26/01/2020 08:45:00	26012020	260120	084500	175.740	12.552298	-57.244993	175.610	-0.230	0.260	1.570	175.740	-1.100	2.000	1013.60	25.60	25.60	19.80	19.90	0.00	70.00	70.00	431.00	25.40	316.00	9.90	107.00	7.30	15	3303.00	27.40	27.40	1580028300.0	8.95	16.58
26/01/2020 08:45:01	26012020	260120	084501	175.780	12.552258	-57.244992	175.670	-0.170	0.480	1.310	175.780	-0.900	1.800																			1580028301.0	8.83	16.35
26/01/2020 08:45:02	26012020	260120	084502	175.950	12.552217	-57.244990	175.860	-0.100	0.500	0.880	175.950	-0.900	1.300																			1580028302.0	8.83	16.35
26/01/2020 08:45:03	26012020	260120	084503	176.170	12.552175	-57.244988	176.070	0.010	0.340	0.580	176.170	-1.000	1.000																			1580028303.0	8.82	16.33
26/01/2020 08:45:04	26012020	260120	084504	176.380	12.552135	-57.244988	176.270	0.140	0.050	0.460	176.380	-1.300	0.900																			1580028304.0	8.82	16.33
26/01/2020 08:45:05	26012020	260120	084505	176.520	12.552093	-57.244987	176.400	0.260	-0.290	0.520	176.520	-1.700	0.900																			1580028305.0	8.82	16.33
26/01/2020 08:45:06	26012020	260120	084506	176.520	12.552053	-57.244988	176.380	0.350	-0.540	0.810	176.520	-1.900	1.200																			1580028306.0	8.75	16.21
26/01/2020 08:45:07	26012020	260120	084507	176.430	12.552013	-57.244988	176.280	0.390	-0.670	1.070	176.400	-2.000	1.500																			1580028307.0	8.68	16.08
26/01/2020 08:45:08	26012020	260120	084508	176.330	12.551972	-57.244990	176.200	0.320	-0.690	1.170	176.330	-2.100	1.600																			1580028308.0	8.66	16.04
26/01/2020 08:45:09	26012020	260120	084509	176.240	12.551932	-57.244990	176.120	0.170	-0.670	1.210	176.240	-2.100	1.600																			1580028309.0	8.67	16.06
26/01/2020 08:45:10	26012020	260120	084510	176.140	12.551892	-57.244990	176.010	-0.040	-0.620	1.140	176.140	-2.000	1.600																			1580028310.0	8.81	16.32
26/01/2020 08:45:11	26012020	260120	084511	176.080	12.551850	-57.244990	175.960	-0.250	-0.470	0.950	176.080	-1.900	1.400																			1580028311.0	8.93	16.54
26/01/2020 08:45:12	26012020	260120	084512	176.120	12.551808	-57.244990	176.010	-0.430	-0.180	0.710	176.120	-1.600	1.200																			1580028312.0	8.90	16.48
26/01/2020 08:45:13	26012020	260120	084513	176.250	12.551767	-57.244992	176.140	-0.510	0.130	0.490	176.250	-1.300	0.900																			1580028313.0	8.80	16.30
26/01/2020 08:45:14	26012020	260120	084514	176.370	12.551727	-57.244990	176.270	-0.420	0.220	0.410	176.370	-1.100	0.800																			1580028314.0	8.85	16.39
26/01/2020 08:45:15	26012020	260120	084515	176.470	12.551683	-57.244990	176.370	-0.200	0.160	0.540	176.470	-1.200	0.900																			1580028315.0	9.08	16.82
26/01/2020 08:45:16	26012020	260120	084516	176.530	12.551642	-57.244992	176.430	0.010	0.180	0.800	176.530	-1.200	1.200																			1580028316.0	9.06	16.78
26/01/2020 08:45:17	26012020	260120	084517	176.560	12.551602	-57.244992	176.450	0.150	0.260	1.000	176.560	-1.100	1.400																			1580028317.0	8.79	16.28
26/01/2020 08:45:18	26012020	260120	084518	176.550	12.551562	-57.244992	176.420	0.250	0.210	1.090	176.550	-1.200	1.500																			1580028318.0	8.60	15.93
26/01/2020 08:45:19	26012020	260120	084519	176.380	12.551520	-57.244992	176.220	0.370	-0.100	1.190	176.380	-1.500	1.600																			1580028319.0	8.67	16.06
26/01/2020 08:45:20	26012020	260120	084520	176.080	12.551478	-57.244993	175.940	0.410	-0.530	1.380	176.080	-1.900	1.800																			1580028320.0	8.92	16.52
26/01/2020 08:45:21	26012020	260120	084521	175.870	12.551437	-57.244993	175.760	0.300	-0.770	1.500	175.870	-2.100	1.900																			1580028321.0	8.98	16.63
26/01/2020 08:45:22	26012020	260120	084522	175.800	12.551397	-57.244995	175.690	0.050	-0.700	1.470	175.800	-2.100	1.900																			1580028322.0	8.77	16.24
26/01/2020 08:45:23	26012020	260120	084523	175.850	12.551357	-57.244997	175.760	-0.160	-0.460	1.240	175.850	-1.900	1.700																			1580028323.0	8.55	15.83
26/01/2020 08:45:24	26012020	260120	084524	175.990	12.551317	-57.244997	175.890	-0.200	-0.320	0.930	175.990	-1.700	1.400																			1580028324.0	8.53	15.80
26/01/2020 08:45:25	26012020	260120	084525	176.130	12.551277	-57.244997	176.010	-0.080	-0.420	0.610	176.130	-1.800	1.100																			1580028325.0	8.81	16.32
26/01/2020 08:45:26	26012020	260120	084526	176.250	12.551233	-57.244993	176.140	0.010	-0.540	0.390	176.250	-1.900	0.800																			1580028326.0	9.17	16.98
26/01/2020 08:45:27	26012020	260120	084527	176.400	12.551192	-57.244992	176.310	-0.100	-0.420	0.420	176.400	-1.800	0.800																			1580028327.0	9.18	17.00
26/01/2020 08:45:28	26012020	260120	084528	176.490	12.551150	-57.244992	176.370	-0.360	-0.080	0.740	176.490	-1.500	1.100																			1580028328.0	8.94	16.56
26/01/2020 08:45:29	26012020	260120	084529	176.430	12.551108	-57.244993	176.300	-0.570	0.360	1.140	176.430	-1.000	1.500																			1580028329.0	8.79	16.28
26/01/2020 08:45:30	26012020	260120	084530	176.330	12.551068	-57.244997	176.220	-0.550	0.680	1.440	176.330	-0.700	1.800																			1580028330.0	8.67	16.06
26/01/2020 08:45:31	26012020	260120	084531	176.230	12.551028	-57.244998	176.050	-0.220	0.630	1.600	176.190	-0.700	2.000																			1580028331.0	8.73	16.17
26/01/2020 08:45:32	26012020	260120	084532	175.920	12.550987	-57.245000	175.750	0.310	0.230	1.570	175.920	-1.100	2.000																			1580028332.0	8.98	16.63
26/01/2020 08:45:33	26012020	260120	084533	175.650	12.550943	-57.244998	175.500	0.680	-0.220	1.380	175.650	-1.600	1.800																			1580028333.0	9.10	16.85
26/01/2020 08:45:34	26012020	260120	084534	175.580	12.550903	-57.244997	175.450	0.680	-0.450	1.110	175.580	-1.800	1.600																			1580028334.0	8.89	16.46
26/01/2020 08:45:35	26012020	260120	084535	175.680	12.550863	-57.244997	175.570	0.450	-0.510	0.850	175.680	-1.900	1.300																			1580028335.0	8.52	15.78
26/01/2020 08:45:36	26012020	260120	084536	175.840	12.550823	-57.244997	175.730	0.240	-0.640	0.620	175.840	-2.000	1.100																			1580028336.0	8.43	15.61
26/01/2020 08:45:37	26012020	260120	084537	176.020	12.550783	-57.244997	175.890	0.150	-0.930	0.490	176.020	-2.300	0.900																			1580028337.0	8.70	16.11
26/01/2020 08:45:38	26012020	260120	084538	176.130	12.550742	-57.244995	176.000	0.030	-1.100	0.570	176.130	-2.500	1.000																			1580028338.0	9.04	16.74
26/01/2020 08:45:39	26012020	260120	084539	176.210	12.550700	-57.244997	176.100	-0.270	-0.850	0.810	176.210	-2.300	1.200																			1580028339.0	9.06	16.78
26/01/2020 08:45:40	26012020	260120	084540	176.300	12.550658	-57.244998	176.180	-0.600	-0.290	1.110	176.300	-1.700	1.500																			1580028340.0	8.78	16.26
26/01/2020 08:45:41	26012020	260120	084541	176.290	12.550618	-57.245000	176.160	-0.730	0.220	1.360	176.290	-1.200	1.800																			1580028341.0	8.71	16.13
26/01/2020 08:45:42	26012020	260120	084542	176.230	12.550577	-57.245002	176.100	-0.530	0.530	1.430	176.230	-0.900	1.900																			1580028342.0	8.92	16.52
26/01/2020 08:45:43	26012020	260120	084543	176.220	12.550535	-57.245002	176.080	-0.180	0.690	1.230	176.220	-0.700	1.700																			1580028343.0	8.97	16.61
26/01/2020 08:45:44	26012020	260120	084544	176.110	12.550493	-57.244998	175.930	0.100	0.520	1.090	176.110	-0.800	1.500																			1580028344.0	8.96	16.59
26/01/2020 08:45:45	26012020	260120	084545	175.790	12.550452	-57.244997	175.600	0.250	0.070	1.190	175.790	-1.300	1.600																			1580028345.0	9.11	16.87
26/01/2020 08:45:46	26012020	260120	084546	175.480	12.550408	-57.244997	175.320	0.250	-0.280	1.400	175.480	-1.600	1.800																			1580028346.0	9.16	16.96
26/01/2020 08:45:47	26012020	260120	084547	175.270	12.550367	-57.244997	175.130	0.140	-0.340	1.680	175.270	-1.700	2.100																			1580028347.0	8.84	16.37
26/01/2020 08:45:48	26012020	260120	084548	175.210	12.550328	-57.245002	175.080	0.060	-0.350	1.810	175.210	-1.700	2.200																			1580028348.0	8.57	15.87
26/01/2020 08:45:49	26012020	260120	084549	175.270	12.550288	-57.245005	175.150	0.160	-0.490	1.640	175.270	-1.900	2.100																			1580028349.0	8.64	16.00
26/01/2020 08:45:50	26012020	260120	084550	175.360	12.550247	-57.245005	175.240	0.430	-0.620	1.270	175.360	-2.000	1.700																			1580028350.0	8.79	16.28
26/01/2020 08:45:51	26012020	260120	084551	175.620	12.550207	-57.245003	175.510	0.560	-0.510	0.710	175.620	-1.900	1.200																			1580028351.0	8.77	16.24
26/01/2020 08:45:52	26012020	260120	084552	176.040	12.550167	-57.245000	175.930	0.360	-0.260	0.190	176.040	-1.700	0.600																			1580028352.0	8.52	15.78
26/01/2020 08:45:53	26012020	260120	084553	176.370	12.550127	-57.244997	176.230	-0.040	-0.230	0.010	176.370	-1.600	0.400																			1580028353.0	8.53	15.80
26/01/2020 08:45:54	26012020	260120	084554	176.440	12.550085	-57.244995	176.270	-0.330	-0.420	0.330	176.440	-1.800	0.700																			1580028354.0	8.92	16.52
26/01/2020 08:45:55	26012020	260120	084555	176.320	12.550043	-57.244995	176.150	-0.400	-0.510	0.910	176.320	-1.900	1.300																			1580028355.0	9.22	17.08
26/01/2020 08:45:56	26012020	260120	084556	176.110	12.550000	-57.244997	175.960	-0.340	-0.280	1.410	176.110	-1.700	1.800																			1580028356.0	9.11	16.87
26/01/2020 08:45:57	26012020	260120	084557	175.950	12.549960	-57.244998	175.770	-0.290	0.120	1.660	175.900	-1.300	2.100																			1580028357.0	8.81	16.32
26/01/2020 08:45:58	26012020	260120	084558	175.690	12.549920	-57.245000	175.540	-0.250	0.370	1.650	175.690	-1.000	2.100																			1580028358.0	8.66	16.04
26/01/2020 08:45:59	26012020	260120	084559	175.470	12.549878	-57.245000	175.310	-0.130	0.310	1.490	175.470	-1.100	1.900																			1580028359.0	8.79	16.28
26/01/2020 08:46:00	26012020	260120	084600	175.260	12.549837	-57.244998	175.100	0.050	0.060	1.340	175.260	-1.300	1.800	1013.60	25.60	25.70	20.00	20.00	-1.00	71.00	71.00	431.00	25.40	311.00	10.80	104.00	8.60	15	3244.00	27.40	27.40	1580028360.0	8.97	16.61
26/01/2020 08:46:01	26012020	260120	084601	175.100	12.549795	-57.244998	174.950	0.200	-0.200	1.170	175.100	-1.600	1.600																			1580028361.0	9.00	16.67
26/01/2020 08:46:02	26012020	260120	084602	175.100	12.549753	-57.244998	174.990	0.230	-0.350	0.920	175.100	-1.700	1.400																			1580028362.0	8.90	16.48
26/01/2020 08:46:03	26012020	260120	084603	175.330	12.549713	-57.244998	175.230	0.140	-0.400	0.680	175.330	-1.800	1.100																			1580028363.0	8.72	16.15
26/01/2020 08:46:04	26012020	260120	084604	175.580	12.549673	-57.244998	175.450	0.030	-0.470	0.650	175.580	-1.800	1.100																			1580028364.0	8.62	15.96
26/01/2020 08:46:05	26012020	260120	084605	175.650	12.549632	-57.245000	175.500	0.050	-0.600	0.740	175.650	-2.000	1.100																			1580028365.0	8.78	16.26
26/01/2020 08:46:06	26012020	260120	084606	175.620	12.549590	-57.245000	175.470	0.120	-0.570	0.910	175.620	-2.000	1.300																			1580028366.0	8.93	16.54
26/01/2020 08:46:07	26012020	260120	084607	175.580	12.549550	-57.245000	175.450	0.080	-0.290	1.090	175.580	-1.700	1.500																			1580028367.0	8.82	16.33
26/01/2020 08:46:08	26012020	260120	084608	175.560	12.549508	-57.245000	175.430	-0.090	0.070	1.200	175.560	-1.300	1.600																			1580028368.0	8.64	16.00
26/01/2020 08:46:09	26012020	260120	084609	175.510	12.549468	-57.245000	175.390	-0.210	0.260	1.240	175.510	-1.100	1.700																			1580028369.0	8.63	15.98
26/01/2020 08:46:10	26012020	260120	084610	175.510	12.549428	-57.245000	175.370	-0.140	0.230	1.150	175.510	-1.100	1.600																			1580028370.0	8.78	16.26
26/01/2020 08:46:11	26012020	260120	084611	175.450	12.549387	-57.244998	175.300	0.090	0.040	1.040	175.450	-1.300	1.500																			1580028371.0	8.91	16.50
26/01/2020 08:46:12	26012020	260120	084612	175.330	12.549345	-57.244997	175.180	0.280	-0.210	1.010	175.330	-1.600	1.400																			1580028372.0	8.99	16.65
26/01/2020 08:46:13	26012020	260120	084613	175.280	12.549303	-57.244995	175.160	0.270	-0.320	0.940	175.280	-1.700	1.400																			1580028373.0	8.93	16.54
26/01/2020 08:46:14	26012020	260120	084614	175.360	12.549263	-57.244995	175.240	0.090	-0.270	0.840	175.360	-1.700	1.300																			1580028374.0	8.66	16.04
26/01/2020 08:46:15	26012020	260120	084615	175.360	12.549223	-57.244995	175.210	-0.030	-0.350	0.850	175.360	-1.700	1.300																			1580028375.0	8.56	15.85
26/01/2020 08:46:16	26012020	260120	084616	175.190	12.549182	-57.244995	175.020	0.010	-0.580	1.000	175.190	-1.900	1.400																			1580028376.0	8.85	16.39
26/01/2020 08:46:17	26012020	260120	084617	175.000	12.549140	-57.244995	174.860	0.050	-0.630	1.140	175.000	-2.000	1.500																			1580028377.0	9.07	16.80
26/01/2020 08:46:18	26012020	260120	084618	174.930	12.549098	-57.244997	174.820	-0.060	-0.380	1.270	174.930	-1.800	1.700																			1580028378.0	8.87	16.43
26/01/2020 08:46:19	26012020	260120	084619	174.940	12.549058	-57.244997	174.830	-0.270	-0.130	1.450	174.940	-1.500	1.900																			1580028379.0	8.68	16.08
26/01/2020 08:46:20	26012020	260120	084620	174.910	12.549017	-57.244998	174.790	-0.370	-0.110	1.630	174.910	-1.500	2.000																			1580028380.0	8.85	16.39
26/01/2020 08:46:21	26012020	260120	084621	174.880	12.548975	-57.245000	174.770	-0.250	-0.140	1.660	174.880	-1.500	2.100																			1580028381.0	9.14	16.93
26/01/2020 08:46:22	26012020	260120	084622	175.040	12.548933	-57.245002	174.970	-0.050	0.030	1.400	175.040	-1.400	1.900																			1580028382.0	9.06	16.78
26/01/2020 08:46:23	26012020	260120	084623	175.420	12.548892	-57.244998	175.360	0.100	0.310	0.920	175.420	-1.100	1.400																			1580028383.0	8.66	16.04
26/01/2020 08:46:24	26012020	260120	084624	175.760	12.548853	-57.244995	175.670	0.150	0.300	0.610	175.760	-1.100	1.000																			1580028384.0	8.50	15.74
26/01/2020 08:46:25	26012020	260120	084625	175.900	12.548812	-57.244993	175.770	0.180	-0.070	0.650	175.900	-1.400	1.100																			1580028385.0	8.78	16.26
26/01/2020 08:46:26	26012020	260120	084626	175.830	12.548770	-57.244992	175.690	0.220	-0.460	1.030	175.830	-1.800	1.400																			1580028386.0	9.03	16.72
26/01/2020 08:46:27	26012020	260120	084627	175.710	12.548728	-57.244993	175.580	0.240	-0.560	1.440	175.710	-1.900	1.800																			1580028387.0	8.97	16.61
26/01/2020 08:46:28	26012020	260120	084628	175.620	12.548688	-57.244995	175.490	0.220	-0.430	1.610	175.620	-1.800	2.000																			1580028388.0	8.69	16.09
26/01/2020 08:46:29	26012020	260120	084629	175.540	12.548648	-57.244995	175.420	0.170	-0.290	1.490	175.540	-1.700	1.900																			1580028389.0	8.58	15.89
26/01/2020 08:46:30	26012020	260120	084630	175.610	12.548608	-57.244993	175.510	0.130	-0.210	1.120	175.610	-1.600	1.600																			1580028390.0	8.68	16.08
26/01/2020 08:46:31	26012020	260120	084631	175.850	12.548568	-57.244992	175.770	0.060	-0.060	0.690	175.850	-1.400	1.100																			1580028391.0	8.69	16.09
26/01/2020 08:46:32	26012020	260120	084632	176.110	12.548528	-57.244990	176.000	-0.050	-0.020	0.490	176.110	-1.400	0.900																			1580028392.0	8.58	15.89
26/01/2020 08:46:33	26012020	260120	084633	176.160	12.548487	-57.244990	176.010	-0.110	-0.320	0.660	176.140	-1.700	1.100																			1580028393.0	8.78	16.26
26/01/2020 08:46:34	26012020	260120	084634	175.960	12.548443	-57.244990	175.830	-0.090	-0.710	1.060	175.960	-2.100	1.400																			1580028394.0	9.26	17.15
26/01/2020 08:46:35	26012020	260120	084635	175.830	12.548402	-57.244993	175.730	-0.120	-0.580	1.330	175.830	-2.000	1.700																			1580028395.0	9.27	17.17
26/01/2020 08:46:36	26012020	260120	084636	175.900	12.548362	-57.244995	175.820	-0.220	0.000	1.180	175.900	-1.400	1.600																			1580028396.0	8.63	15.98
26/01/2020 08:46:37	26012020	260120	084637	175.990	12.548322	-57.244995	175.870	-0.220	0.290	0.950	175.990	-1.100	1.400																			1580028397.0	8.25	15.28
26/01/2020 08:46:38	26012020	260120	084638	175.920	12.548282	-57.244995	175.790	-0.050	-0.020	0.890	175.920	-1.400	1.300																			1580028398.0	8.80	16.30
26/01/2020 08:46:39	26012020	260120	084639	175.930	12.548238	-57.244993	175.830	0.070	-0.350	0.830	175.930	-1.700	1.300																			1580028399.0	9.34	17.30
26/01/2020 08:46:40	26012020	260120	084640	176.080	12.548197	-57.244992	175.980	-0.010	-0.350	0.810	176.080	-1.700	1.200																			1580028400.0	9.09	16.83
26/01/2020 08:46:41	26012020	260120	084641	176.140	12.548155	-57.244992	176.030	-0.120	-0.220	0.940	176.140	-1.600	1.400																			1580028401.0	8.70	16.11
26/01/2020 08:46:42	26012020	260120	084642	176.050	12.548115	-57.244993	175.900	-0.070	-0.200	1.180	176.050	-1.600	1.600																			1580028402.0	8.69	16.09
26/01/2020 08:46:43	26012020	260120	084643	175.860	12.548073	-57.244993	175.730	0.070	-0.260	1.420	175.860	-1.600	1.800																			1580028403.0	8.91	16.50
26/01/2020 08:46:44	26012020	260120	084644	175.750	12.548032	-57.244995	175.640	0.110	-0.190	1.630	175.750	-1.600	2.000																			1580028404.0	8.99	16.65
26/01/2020 08:46:45	26012020	260120	084645	175.730	12.547992	-57.244997	175.620	0.050	0.110	1.640	175.730	-1.300	2.100																			1580028405.0	8.73	16.17
26/01/2020 08:46:46	26012020	260120	084646	175.780	12.547952	-57.244997	175.690	-0.010	0.380	1.420	175.780	-1.000	1.900																			1580028406.0	8.47	15.69
26/01/2020 08:46:47	26012020	260120	084647	175.890	12.547912	-57.244997	175.840	0.060	0.340	1.110	175.920	-1.000	1.600																			1580028407.0	8.49	15.72
26/01/2020 08:46:48	26012020	260120	084648	176.030	12.547872	-57.244997	175.910	0.250	-0.020	0.840	176.030	-1.400	1.300																			1580028408.0	8.69	16.09
26/01/2020 08:46:49	26012020	260120	084649	175.960	12.547830	-57.244995	175.810	0.440	-0.590	0.720	175.960	-1.900	1.100																			1580028409.0	8.96	16.59
26/01/2020 08:46:50	26012020	260120	084650	175.770	12.547788	-57.244993	175.630	0.470	-0.970	0.790	175.770	-2.300	1.200																			1580028410.0	9.11	16.87
26/01/2020 08:46:51	26012020	260120	084651	175.560	12.547747	-57.244993	175.430	0.250	-0.940	1.070	175.560	-2.300	1.500																			1580028411.0	8.92	16.52
26/01/2020 08:46:52	26012020	260120	084652	175.470	12.547707	-57.244993	175.380	-0.150	-0.580	1.290	175.470	-2.000	1.700																			1580028412.0	8.63	15.98
26/01/2020 08:46:53	26012020	260120	084653	175.490	12.547667	-57.244995	175.410	-0.480	-0.230	1.390	175.490	-1.600	1.800																			1580028413.0	8.52	15.78
26/01/2020 08:46:54	26012020	260120	084654	175.610	12.547627	-57.244997	175.530	-0.570	-0.070	1.290	175.610	-1.500	1.700																			1580028414.0	8.76	16.22
26/01/2020 08:46:55	26012020	260120	084655	175.910	12.547585	-57.244997	175.850	-0.490	-0.020	0.960	175.910	-1.400	1.400																			1580028415.0	8.96	16.59
26/01/2020 08:46:56	26012020	260120	084656	176.230	12.547543	-57.244995	176.140	-0.320	-0.060	0.650	176.230	-1.400	1.100																			1580028416.0	9.01	16.69
26/01/2020 08:46:57	26012020	260120	084657	176.390	12.547500	-57.244995	176.260	-0.090	-0.160	0.580	176.390	-1.500	1.000																			1580028417.0	9.07	16.80
26/01/2020 08:46:58	26012020	260120	084658	176.370	12.547458	-57.244993	176.240	0.110	-0.120	0.750	176.370	-1.500	1.200																			1580028418.0	9.06	16.78
26/01/2020 08:46:59	26012020	260120	084659	176.230	12.547417	-57.244993	176.090	0.170	0.070	1.070	176.230	-1.300	1.500																			1580028419.0	8.84	16.37
26/01/2020 08:47:00	26012020	260120	084700	175.960	12.547377	-57.244995	175.810	0.140	0.150	1.370	175.960	-1.200	1.800	1013.60	25.60	25.70	20.00	20.00	0.00	71.00	71.00	431.00	25.40	311.00	10.70	102.00	8.50	15	3285.00	27.40	27.40	1580028420.0	8.73	16.17
26/01/2020 08:47:01	26012020	260120	084701	175.690	12.547335	-57.244995	175.550	0.080	0.100	1.530	175.690	-1.300	1.900																			1580028421.0	8.87	16.43
26/01/2020 08:47:02	26012020	260120	084702	175.520	12.547293	-57.244997	175.410	0.030	0.080	1.610	175.520	-1.300	2.000																			1580028422.0	8.89	16.46
26/01/2020 08:47:03	26012020	260120	084703	175.510	12.547253	-57.244998	175.400	0.010	0.090	1.470	175.510	-1.300	1.900																			1580028423.0	8.71	16.13
26/01/2020 08:47:04	26012020	260120	084704	175.630	12.547213	-57.244998	175.540	0.060	0.020	1.030	175.630	-1.300	1.500																			1580028424.0	8.55	15.83
26/01/2020 08:47:05	26012020	260120	084705	175.870	12.547173	-57.244998	175.790	0.170	-0.280	0.600	175.870	-1.600	1.000																			1580028425.0	8.58	15.89
26/01/2020 08:47:06	26012020	260120	084706	176.070	12.547133	-57.244997	175.970	0.320	-0.770	0.450	176.070	-2.100	0.900																			1580028426.0	8.84	16.37
26/01/2020 08:47:07	26012020	260120	084707	176.200	12.547092	-57.244995	176.100	0.380	-1.070	0.460	176.200	-2.400	0.900																			1580028427.0	9.02	16.71
26/01/2020 08:47:08	26012020	260120	084708	176.290	12.547050	-57.244995	176.200	0.240	-0.910	0.600	176.290	-2.300	1.000																			1580028428.0	8.82	16.33
26/01/2020 08:47:09	26012020	260120	084709	176.380	12.547010	-57.244995	176.300	-0.060	-0.550	0.830	176.380	-1.900	1.200																			1580028429.0	8.56	15.85
26/01/2020 08:47:10	26012020	260120	084710	176.440	12.546970	-57.244997	176.350	-0.310	-0.280	1.050	176.440	-1.700	1.500																			1580028430.0	8.64	16.00
26/01/2020 08:47:11	26012020	260120	084711	176.390	12.546928	-57.244997	176.250	-0.410	-0.130	1.380	176.370	-1.500	1.800																			1580028431.0	8.94	16.56
26/01/2020 08:47:12	26012020	260120	084712	176.170	12.546887	-57.244998	176.050	-0.350	0.050	1.710	176.170	-1.300	2.100																			1580028432.0	9.12	16.89
26/01/2020 08:47:13	26012020	260120	084713	175.930	12.546843	-57.245000	175.800	-0.240	0.300	1.790	175.930	-1.100	2.200																			1580028433.0	9.05	16.76
26/01/2020 08:47:14	26012020	260120	084714	175.630	12.546802	-57.245000	175.500	-0.150	0.470	1.710	175.630	-0.900	2.100																			1580028434.0	8.91	16.50
26/01/2020 08:47:15	26012020	260120	084715	175.410	12.546762	-57.245000	175.300	-0.060	0.480	1.450	175.410	-0.900	1.900																			1580028435.0	8.88	16.45
26/01/2020 08:47:16	26012020	260120	084716	175.400	12.546720	-57.245000	175.300	0.000	0.330	1.030	175.400	-1.000	1.500																			1580028436.0	8.81	16.32
26/01/2020 08:47:17	26012020	260120	084717	175.420	12.546680	-57.244998	175.300	0.080	-0.070	0.670	175.420	-1.400	1.100																			1580028437.0	8.77	16.24
26/01/2020 08:47:18	26012020	260120	084718	175.430	12.546638	-57.244998	175.300	0.200	-0.610	0.490	175.430	-1.900	0.900																			1580028438.0	8.93	16.54
26/01/2020 08:47:19	26012020	260120	084719	175.420	12.546597	-57.244998	175.290	0.310	-0.970	0.570	175.420	-2.300	1.000																			1580028439.0	8.97	16.61
26/01/2020 08:47:20	26012020	260120	084720	175.400	12.546555	-57.244998	175.290	0.300	-1.020	0.780	175.400	-2.400	1.200																			1580028440.0	8.87	16.43
26/01/2020 08:47:21	26012020	260120	084721	175.520	12.546515	-57.245000	175.440	0.130	-0.670	0.950	175.520	-2.100	1.400																			1580028441.0	8.65	16.02
26/01/2020 08:47:22	26012020	260120	084722	175.750	12.546475	-57.245000	175.670	-0.110	-0.170	1.040	175.750	-1.600	1.500																			1580028442.0	8.41	15.58
26/01/2020 08:47:23	26012020	260120	084723	175.950	12.546437	-57.245000	175.860	-0.220	0.150	1.030	175.950	-1.200	1.500																			1580028443.0	8.46	15.67
26/01/2020 08:47:24	26012020	260120	084724	176.040	12.546395	-57.244998	175.920	-0.140	0.180	1.030	176.040	-1.200	1.400																			1580028444.0	8.77	16.24
26/01/2020 08:47:25	26012020	260120	084725	175.890	12.546353	-57.244997	175.740	0.010	-0.000	1.180	175.890	-1.400	1.600																			1580028445.0	9.07	16.80
26/01/2020 08:47:26	26012020	260120	084726	175.570	12.546310	-57.244997	175.420	0.070	-0.130	1.420	175.570	-1.500	1.800																			1580028446.0	9.18	17.00
26/01/2020 08:47:27	26012020	260120	084727	175.270	12.546268	-57.244997	175.130	-0.000	-0.080	1.540	175.270	-1.500	2.000																			1580028447.0	9.01	16.69
26/01/2020 08:47:28	26012020	260120	084728	175.020	12.546228	-57.244998	174.880	-0.100	0.030	1.560	175.020	-1.400	2.000																			1580028448.0	8.73	16.17
26/01/2020 08:47:29	26012020	260120	084729	174.870	12.546188	-57.244998	174.730	-0.100	0.020	1.390	174.870	-1.300	1.800																			1580028449.0	8.65	16.02
26/01/2020 08:47:30	26012020	260120	084730	174.850	12.546148	-57.244998	174.730	0.000	-0.150	1.030	174.850	-1.500	1.500																			1580028450.0	8.73	16.17
26/01/2020 08:47:31	26012020	260120	084731	174.970	12.546107	-57.244998	174.860	0.110	-0.400	0.640	174.970	-1.800	1.100																			1580028451.0	8.85	16.39
26/01/2020 08:47:32	26012020	260120	084732	175.150	12.546065	-57.244997	175.060	0.110	-0.590	0.410	175.150	-1.900	0.800																			1580028452.0	8.89	16.46
26/01/2020 08:47:33	26012020	260120	084733	175.420	12.546025	-57.244995	175.340	-0.030	-0.580	0.350	175.420	-2.000	0.800																			1580028453.0	8.82	16.33
26/01/2020 08:47:34	26012020	260120	084734	175.690	12.545983	-57.244995	175.590	-0.160	-0.490	0.530	175.690	-1.900	0.900																			1580028454.0	8.72	16.15
26/01/2020 08:47:35	26012020	260120	084735	175.830	12.545943	-57.244995	175.730	-0.180	-0.380	0.830	175.830	-1.800	1.200																			1580028455.0	8.82	16.33
26/01/2020 08:47:36	26012020	260120	084736	175.930	12.545902	-57.244995	175.840	-0.160	-0.130	1.050	175.930	-1.500	1.500																			1580028456.0	8.84	16.37
26/01/2020 08:47:37	26012020	260120	084737	176.010	12.545862	-57.244995	175.930	-0.150	0.090	1.200	176.030	-1.300	1.600																			1580028457.0	8.73	16.17
26/01/2020 08:47:38	26012020	260120	084738	176.020	12.545820	-57.244995	175.890	-0.090	0.130	1.340	176.020	-1.200	1.800																			1580028458.0	8.78	16.26
26/01/2020 08:47:39	26012020	260120	084739	175.840	12.545778	-57.244995	175.690	0.040	0.040	1.460	175.840	-1.300	1.900																			1580028459.0	8.96	16.59
26/01/2020 08:47:40	26012020	260120	084740	175.610	12.545737	-57.244995	175.470	0.170	0.010	1.460	175.610	-1.400	1.900																			1580028460.0	9.00	16.67
26/01/2020 08:47:41	26012020	260120	084741	175.490	12.545697	-57.244995	175.360	0.230	0.130	1.240	175.490	-1.300	1.700																			1580028461.0	8.76	16.22
26/01/2020 08:47:42	26012020	260120	084742	175.500	12.545657	-57.244993	175.380	0.230	0.120	0.870	175.500	-1.200	1.300																			1580028462.0	8.56	15.85
26/01/2020 08:47:43	26012020	260120	084743	175.610	12.545617	-57.244992	175.520	0.190	-0.110	0.560	175.610	-1.500	1.000																			1580028463.0	8.67	16.06
26/01/2020 08:47:44	26012020	260120	084744	175.770	12.545575	-57.244992	175.670	0.120	-0.480	0.480	175.770	-1.800	0.900																			1580028464.0	8.83	16.35
26/01/2020 08:47:45	26012020	260120	084745	175.890	12.545533	-57.244992	175.800	0.050	-0.740	0.600	175.890	-2.100	1.000																			1580028465.0	8.94	16.56
26/01/2020 08:47:46	26012020	260120	084746	175.950	12.545492	-57.244992	175.850	-0.040	-0.780	0.850	175.950	-2.200	1.300																			1580028466.0	8.84	16.37
26/01/2020 08:47:47	26012020	260120	084747	175.880	12.545452	-57.244995	175.750	-0.110	-0.720	1.190	175.880	-2.100	1.600																			1580028467.0	8.79	16.28
26/01/2020 08:47:48	26012020	260120	084748	175.820	12.545410	-57.244995	175.720	-0.180	-0.550	1.240	175.820	-1.900	1.700																			1580028468.0	8.92	16.52
26/01/2020 08:47:49	26012020	260120	084749	175.890	12.545368	-57.244995	175.810	-0.290	-0.200	1.170	175.890	-1.600	1.600																			1580028469.0	8.83	16.35
26/01/2020 08:47:50	26012020	260120	084750	176.040	12.545328	-57.244995	175.960	-0.360	0.110	1.050	176.040	-1.300	1.500																			1580028470.0	8.73	16.17
26/01/2020 08:47:51	26012020	260120	084751	176.180	12.545287	-57.244995	176.080	-0.330	0.220	0.820	176.180	-1.200	1.300																			1580028471.0	8.84	16.37
26/01/2020 08:47:52	26012020	260120	084752	176.220	12.545245	-57.244993	176.100	-0.180	0.210	0.740	176.220	-1.200	1.200																			1580028472.0	8.99	16.65
26/01/2020 08:47:53	26012020	260120	084753	176.240	12.545203	-57.244993	176.120	-0.000	0.200	0.820	176.240	-1.200	1.200																			1580028473.0	9.00	16.67
26/01/2020 08:47:54	26012020	260120	084754	176.260	12.545162	-57.244993	176.130	0.150	0.210	0.990	176.260	-1.200	1.400																			1580028474.0	8.84	16.37
26/01/2020 08:47:55	26012020	260120	084755	176.140	12.545122	-57.244993	175.990	0.280	0.140	1.250	176.140	-1.200	1.700																			1580028475.0	8.72	16.15
26/01/2020 08:47:56	26012020	260120	084756	175.930	12.545082	-57.244995	175.770	0.390	-0.050	1.390	175.930	-1.400	1.800																			1580028476.0	8.74	16.19
26/01/2020 08:47:57	26012020	260120	084757	175.720	12.545040	-57.244995	175.580	0.440	-0.340	1.400	175.720	-1.700	1.800																			1580028477.0	8.78	16.26
26/01/2020 08:47:58	26012020	260120	084758	175.600	12.544998	-57.244995	175.490	0.360	-0.640	1.300	175.600	-2.000	1.700																			1580028478.0	8.88	16.45
26/01/2020 08:47:59	26012020	260120	084759	175.630	12.544958	-57.244995	175.530	0.150	-0.740	1.090	175.630	-2.100	1.500																			1580028479.0	8.84	16.37
26/01/2020 08:48:00	26012020	260120	084800	175.770	12.544917	-57.244995	175.680	-0.080	-0.670	0.820	175.770	-2.100	1.300	1013.60	25.60	25.60	19.80	19.90	0.00	70.00	70.00	431.00	25.40	311.00	10.10	101.00	7.90	15	3230.00	27.40	27.40	1580028480.0	8.70	16.11
26/01/2020 08:48:01	26012020	260120	084801	175.880	12.544877	-57.244995	175.790	-0.210	-0.600	0.580	175.900	-2.000	1.000																			1580028481.0	8.70	16.11
26/01/2020 08:48:02	26012020	260120	084802	176.030	12.544835	-57.244993	175.930	-0.240	-0.500	0.430	176.030	-1.900	0.900																			1580028482.0	8.87	16.43
26/01/2020 08:48:03	26012020	260120	084803	176.190	12.544793	-57.244993	176.080	-0.270	-0.340	0.410	176.190	-1.700	0.800																			1580028483.0	8.95	16.58
26/01/2020 08:48:04	26012020	260120	084804	176.300	12.544752	-57.244992	176.180	-0.310	-0.110	0.460	176.300	-1.500	0.900																			1580028484.0	8.96	16.59
26/01/2020 08:48:05	26012020	260120	084805	176.410	12.544712	-57.244992	176.300	-0.350	0.190	0.600	176.410	-1.200	1.000																			1580028485.0	8.90	16.48
26/01/2020 08:48:06	26012020	260120	084806	176.500	12.544670	-57.244992	176.380	-0.350	0.410	0.880	176.500	-1.000	1.300																			1580028486.0	8.79	16.28
26/01/2020 08:48:07	26012020	260120	084807	176.410	12.544628	-57.244993	176.260	-0.180	0.320	1.310	176.410	-1.000	1.700																			1580028487.0	8.86	16.41
26/01/2020 08:48:08	26012020	260120	084808	176.110	12.544587	-57.244995	175.940	0.110	0.020	1.760	176.110	-1.300	2.100																			1580028488.0	9.13	16.91
26/01/2020 08:48:09	26012020	260120	084809	175.770	12.544543	-57.244997	175.620	0.320	-0.140	1.940	175.770	-1.500	2.400																			1580028489.0	9.18	17.00
26/01/2020 08:48:10	26012020	260120	084810	175.570	12.544503	-57.244997	175.450	0.330	-0.080	1.810	175.570	-1.500	2.200																			1580028490.0	8.84	16.37
26/01/2020 08:48:11	26012020	260120	084811	175.510	12.544463	-57.244997	175.380	0.250	-0.050	1.430	175.510	-1.400	1.900																			1580028491.0	8.53	15.80
26/01/2020 08:48:12	26012020	260120	084812	175.520	12.544423	-57.244997	175.410	0.210	-0.180	0.960	175.520	-1.600	1.400																			1580028492.0	8.56	15.85
26/01/2020 08:48:13	26012020	260120	084813	175.580	12.544383	-57.244995	175.480	0.250	-0.470	0.520	175.600	-1.800	1.000																			1580028493.0	8.71	16.13
26/01/2020 08:48:14	26012020	260120	084814	175.660	12.544342	-57.244993	175.540	0.310	-0.780	0.250	175.660	-2.100	0.700																			1580028494.0	8.90	16.48
26/01/2020 08:48:15	26012020	260120	084815	175.740	12.544300	-57.244992	175.630	0.290	-0.880	0.200	175.740	-2.300	0.600																			1580028495.0	8.97	16.61
26/01/2020 08:48:16	26012020	260120	084816	175.970	12.544258	-57.244990	175.880	0.070	-0.660	0.230	175.970	-2.100	0.600																			1580028496.0	8.87	16.43
26/01/2020 08:48:17	26012020	260120	084817	176.330	12.544218	-57.244990	176.250	-0.330	-0.300	0.510	176.330	-1.700	0.900																			1580028497.0	8.66	16.04
26/01/2020 08:48:18	26012020	260120	084818	176.580	12.544178	-57.244992	176.500	-0.640	-0.100	1.000	176.580	-1.500	1.400																			1580028498.0	8.72	16.15
26/01/2020 08:48:19	26012020	260120	084819	176.610	12.544137	-57.244993	176.500	-0.620	-0.070	1.490	176.610	-1.400	1.900																			1580028499.0	9.02	16.71
26/01/2020 08:48:20	26012020	260120	084820	176.430	12.544093	-57.244997	176.290	-0.330	0.000	1.880	176.430	-1.400	2.300																			1580028500.0	9.19	17.02
26/01/2020 08:48:21	26012020	260120	084821	176.110	12.544052	-57.244997	175.960	-0.030	0.170	1.990	176.110	-1.200	2.400																			1580028501.0	9.08	16.82
26/01/2020 08:48:22	26012020	260120	084822	175.770	12.544010	-57.244997	175.620	0.090	0.360	1.820	175.770	-1.000	2.300																			1580028502.0	8.89	16.46
26/01/2020 08:48:23	26012020	260120	084823	175.500	12.543968	-57.244997	175.350	0.090	0.400	1.540	175.500	-1.000	2.000																			1580028503.0	8.73	16.17
26/01/2020 08:48:24	26012020	260120	084824	175.280	12.543928	-57.244995	175.160	0.120	0.200	1.220	175.280	-1.200	1.700																			1580028504.0	8.79	16.28
26/01/2020 08:48:25	26012020	260120	084825	175.230	12.543887	-57.244995	175.130	0.200	-0.080	0.860	175.230	-1.400	1.300																			1580028505.0	8.85	16.39
26/01/2020 08:48:26	26012020	260120	084826	175.390	12.543847	-57.244995	175.320	0.290	-0.420	0.520	175.390	-1.800	1.000																			1580028506.0	8.80	16.30
26/01/2020 08:48:27	26012020	260120	084827	175.610	12.543805	-57.244993	175.590	0.370	-0.780	0.210	175.660	-2.100	0.700																			1580028507.0	8.80	16.30
26/01/2020 08:48:28	26012020	260120	084828	175.970	12.543763	-57.244993	175.900	0.410	-1.020	-0.020	175.970	-2.400	0.400																			1580028508.0	8.90	16.48
26/01/2020 08:48:29	26012020	260120	084829	176.370	12.543723	-57.244990	176.310	0.260	-0.890	-0.120	176.370	-2.300	0.300																			1580028509.0	8.85	16.39
26/01/2020 08:48:30	26012020	260120	084830	176.750	12.543683	-57.244988	176.680	-0.080	-0.470	0.070	176.750	-1.900	0.500																			1580028510.0	8.57	15.87
26/01/2020 08:48:31	26012020	260120	084831	176.900	12.543643	-57.244988	176.800	-0.390	-0.190	0.590	176.900	-1.600	1.000																			1580028511.0	8.56	15.85
26/01/2020 08:48:32	26012020	260120	084832	176.800	12.543602	-57.244990	176.670	-0.480	-0.120	1.210	176.800	-1.500	1.600																			1580028512.0	8.96	16.59
26/01/2020 08:48:33	26012020	260120	084833	176.490	12.543558	-57.244993	176.350	-0.380	-0.050	1.820	176.490	-1.400	2.200																			1580028513.0	9.27	17.17
26/01/2020 08:48:34	26012020	260120	084834	176.070	12.543515	-57.244997	175.920	-0.220	0.190	2.210	176.070	-1.200	2.600																			1580028514.0	9.24	17.11
26/01/2020 08:48:35	26012020	260120	084835	175.750	12.543475	-57.244998	175.640	-0.110	0.570	2.080	175.750	-0.800	2.500																			1580028515.0	8.91	16.50
26/01/2020 08:48:36	26012020	260120	084836	175.710	12.543435	-57.244997	175.620	-0.050	0.790	1.540	175.710	-0.600	2.000																			1580028516.0	8.54	15.82
26/01/2020 08:48:37	26012020	260120	084837	175.820	12.543395	-57.244995	175.720	0.030	0.480	0.950	175.820	-0.900	1.400																			1580028517.0	8.55	15.83
26/01/2020 08:48:38	26012020	260120	084838	175.890	12.543353	-57.244995	175.770	0.210	-0.300	0.530	175.890	-1.600	1.000																			1580028518.0	8.95	16.58
26/01/2020 08:48:39	26012020	260120	084839	175.900	12.543310	-57.244993	175.770	0.440	-1.040	0.300	175.900	-2.400	0.700																			1580028519.0	9.20	17.04
26/01/2020 08:48:40	26012020	260120	084840	175.890	12.543268	-57.244993	175.760	0.580	-1.370	0.230	175.890	-2.800	0.700																			1580028520.0	9.09	16.83
26/01/2020 08:48:41	26012020	260120	084841	176.050	12.543228	-57.244992	175.940	0.430	-1.140	0.160	176.050	-2.600	0.600																			1580028521.0	8.79	16.28
26/01/2020 08:48:42	26012020	260120	084842	176.350	12.543188	-57.244992	176.250	-0.020	-0.600	0.260	176.350	-2.000	0.700																			1580028522.0	8.45	15.65
26/01/2020 08:48:43	26012020	260120	084843	176.590	12.543148	-57.244992	176.460	-0.450	-0.150	0.520	176.590	-1.600	0.900																			1580028523.0	8.48	15.70
26/01/2020 08:48:44	26012020	260120	084844	176.620	12.543108	-57.244995	176.480	-0.550	0.020	0.900	176.620	-1.400	1.300																			1580028524.0	8.86	16.41
26/01/2020 08:48:45	26012020	260120	084845	176.530	12.543065	-57.244997	176.390	-0.330	0.200	1.220	176.530	-1.200	1.600																			1580028525.0	9.23	17.09
26/01/2020 08:48:46	26012020	260120	084846	176.460	12.543022	-57.244997	176.340	-0.080	0.560	1.260	176.460	-0.900	1.700																			1580028526.0	9.07	16.80
26/01/2020 08:48:47	26012020	260120	084847	176.440	12.542982	-57.244995	176.310	0.010	0.810	1.130	176.440	-0.600	1.600																			1580028527.0	8.71	16.13
26/01/2020 08:48:48	26012020	260120	084848	176.350	12.542942	-57.244993	176.180	0.010	0.660	1.090	176.350	-0.700	1.500																			1580028528.0	8.64	16.00
26/01/2020 08:48:49	26012020	260120	084849	176.100	12.542900	-57.244993	175.930	0.100	0.080	1.190	176.100	-1.300	1.600																			1580028529.0	8.84	16.37
26/01/2020 08:48:50	26012020	260120	084850	175.840	12.542858	-57.244993	175.680	0.280	-0.630	1.240	175.840	-2.000	1.700																			1580028530.0	9.12	16.89
26/01/2020 08:48:51	26012020	260120	084851	175.690	12.542817	-57.244995	175.530	0.410	-1.040	1.190	175.670	-2.400	1.600																			1580028531.0	9.07	16.80
26/01/2020 08:48:52	26012020	260120	084852	175.620	12.542775	-57.244997	175.490	0.390	-1.070	1.060	175.620	-2.500	1.500																			1580028532.0	8.72	16.15
26/01/2020 08:48:53	26012020	260120	084853	175.660	12.542737	-57.244997	175.540	0.220	-0.910	0.860	175.660	-2.300	1.300																			1580028533.0	8.51	15.76
26/01/2020 08:48:54	26012020	260120	084854	175.770	12.542697	-57.244997	175.670	-0.020	-0.750	0.670	175.770	-2.100	1.100																			1580028534.0	8.61	15.95
26/01/2020 08:48:55	26012020	260120	084855	175.990	12.542655	-57.244995	175.900	-0.230	-0.560	0.510	175.990	-2.000	0.900																			1580028535.0	8.87	16.43
26/01/2020 08:48:56	26012020	260120	084856	176.270	12.542613	-57.244995	176.190	-0.390	-0.210	0.460	176.270	-1.600	0.900																			1580028536.0	8.97	16.61
26/01/2020 08:48:57	26012020	260120	084857	176.420	12.542572	-57.244995	176.300	-0.440	0.120	0.580	176.420	-1.300	1.000																			1580028537.0	8.92	16.52
26/01/2020 08:48:58	26012020	260120	084858	176.360	12.542530	-57.244995	176.230	-0.360	0.330	0.830	176.360	-1.100	1.200																			1580028538.0	9.07	16.80
26/01/2020 08:48:59	26012020	260120	084859	176.360	12.542487	-57.244995	176.260	-0.220	0.600	1.030	176.360	-0.800	1.500																			1580028539.0	9.11	16.87
26/01/2020 08:49:00	26012020	260120	084900	176.520	12.542447	-57.244995	176.430	-0.140	0.900	1.050	176.520	-0.500	1.500	1013.70	25.60	25.60	19.70	19.70	0.00	69.00	70.00	431.00	25.40	312.00	9.40	100.00	7.20	15	3201.00	27.40	27.40	1580028540.0	8.77	16.24
26/01/2020 08:49:01	26012020	260120	084901	176.620	12.542407	-57.244995	176.490	-0.010	0.790	1.050	176.620	-0.600	1.500																			1580028541.0	8.48	15.70
26/01/2020 08:49:02	26012020	260120	084902	176.440	12.542365	-57.244995	176.250	0.290	0.090	1.160	176.440	-1.200	1.600																			1580028542.0	8.78	16.26
26/01/2020 08:49:03	26012020	260120	084903	176.140	12.542323	-57.244995	175.880	0.630	-0.690	1.290	176.070	-2.000	1.700																			1580028543.0	9.17	16.98
26/01/2020 08:49:04	26012020	260120	084904	175.720	12.542282	-57.244995	175.560	0.780	-1.080	1.350	175.720	-2.500	1.800																			1580028544.0	9.06	16.78
26/01/2020 08:49:05	26012020	260120	084905	175.540	12.542240	-57.244995	175.410	0.610	-0.990	1.200	175.540	-2.400	1.600																			1580028545.0	8.65	16.02
26/01/2020 08:49:06	26012020	260120	084906	175.630	12.542202	-57.244995	175.530	0.210	-0.620	0.870	175.630	-2.000	1.300																			1580028546.0	8.28	15.33
26/01/2020 08:49:07	26012020	260120	084907	175.920	12.542163	-57.244995	175.840	-0.160	-0.380	0.500	175.920	-1.800	1.000																			1580028547.0	8.27	15.32
26/01/2020 08:49:08	26012020	260120	084908	176.260	12.542123	-57.244995	176.170	-0.290	-0.450	0.230	176.260	-1.800	0.700																			1580028548.0	8.67	16.06
26/01/2020 08:49:09	26012020	260120	084909	176.500	12.542080	-57.244995	176.390	-0.230	-0.620	0.160	176.500	-2.000	0.600																			1580028549.0	9.16	16.96
26/01/2020 08:49:10	26012020	260120	084910	176.610	12.542038	-57.244995	176.470	-0.170	-0.590	0.310	176.610	-2.000	0.700																			1580028550.0	9.31	17.24
26/01/2020 08:49:11	26012020	260120	084911	176.630	12.541995	-57.244995	176.490	-0.290	-0.210	0.610	176.630	-1.600	1.000																			1580028551.0	9.14	16.93
26/01/2020 08:49:12	26012020	260120	084912	176.640	12.541953	-57.244995	176.500	-0.530	0.360	0.930	176.640	-1.100	1.300																			1580028552.0	8.80	16.30
26/01/2020 08:49:13	26012020	260120	084913	176.550	12.541913	-57.244997	176.390	-0.660	0.660	1.270	176.550	-0.700	1.700																			1580028553.0	8.66	16.04
26/01/2020 08:49:14	26012020	260120	084914	176.320	12.541872	-57.244998	176.140	-0.480	0.510	1.540	176.320	-0.900	2.000																			1580028554.0	8.97	16.61
26/01/2020 08:49:15	26012020	260120	084915	176.070	12.541830	-57.245000	175.910	-0.030	0.220	1.550	176.070	-1.200	2.000																			1580028555.0	9.24	17.11
26/01/2020 08:49:16	26012020	260120	084916	175.930	12.541787	-57.245000	175.780	0.400	0.060	1.150	175.930	-1.300	1.600																			1580028556.0	9.07	16.80
26/01/2020 08:49:17	26012020	260120	084917	175.900	12.541747	-57.244997	175.760	0.630	-0.050	0.660	175.900	-1.400	1.100																			1580028557.0	8.69	16.09
26/01/2020 08:49:18	26012020	260120	084918	175.880	12.541707	-57.244993	175.720	0.630	-0.320	0.480	175.880	-1.700	0.900																			1580028558.0	8.59	15.91
26/01/2020 08:49:19	26012020	260120	084919	175.770	12.541667	-57.244993	175.620	0.460	-0.590	0.670	175.770	-2.000	1.100																			1580028559.0	8.76	16.22
26/01/2020 08:49:20	26012020	260120	084920	175.780	12.541625	-57.244995	175.660	0.190	-0.550	0.990	175.780	-2.000	1.400																			1580028560.0	8.71	16.13
26/01/2020 08:49:21	26012020	260120	084921	175.880	12.541587	-57.244998	175.760	0.000	-0.370	1.240	175.880	-1.800	1.700																			1580028561.0	8.42	15.59
26/01/2020 08:49:22	26012020	260120	084922	175.880	12.541547	-57.245002	175.750	0.050	-0.490	1.320	175.880	-1.900	1.700																			1580028562.0	8.56	15.85
26/01/2020 08:49:23	26012020	260120	084923	175.860	12.541505	-57.245002	175.750	0.200	-0.680	1.140	175.860	-2.100	1.600																			1580028563.0	9.02	16.71
26/01/2020 08:49:24	26012020	260120	084924	175.990	12.541463	-57.245000	175.890	0.170	-0.550	0.840	175.990	-2.000	1.300																			1580028564.0	9.03	16.72
26/01/2020 08:49:25	26012020	260120	084925	176.210	12.541423	-57.244997	176.110	-0.130	-0.270	0.600	176.210	-1.700	1.000																			1580028565.0	8.72	16.15
26/01/2020 08:49:26	26012020	260120	084926	176.350	12.541382	-57.244997	176.230	-0.500	-0.140	0.610	176.350	-1.500	1.000																			1580028566.0	8.69	16.09
26/01/2020 08:49:27	26012020	260120	084927	176.240	12.541340	-57.244997	176.070	-0.610	-0.280	1.000	176.240	-1.700	1.400																			1580028567.0	9.02	16.71
26/01/2020 08:49:28	26012020	260120	084928	175.920	12.541297	-57.245000	175.740	-0.410	-0.380	1.450	175.920	-1.800	1.800																			1580028568.0	9.42	17.45
26/01/2020 08:49:29	26012020	260120	084929	175.730	12.541253	-57.245002	175.610	-0.190	-0.000	1.570	175.730	-1.400	2.000																			1580028569.0	9.25	17.13
26/01/2020 08:49:30	26012020	260120	084930	175.830	12.541213	-57.245002	175.740	-0.170	0.630	1.340	175.830	-0.800	1.800																			1580028570.0	8.60	15.93
26/01/2020 08:49:31	26012020	260120	084931	176.000	12.541175	-57.245000	175.890	-0.200	0.870	1.030	176.000	-0.500	1.500																			1580028571.0	8.27	15.32
26/01/2020 08:49:32	26012020	260120	084932	176.070	12.541135	-57.245000	175.940	-0.020	0.450	0.840	176.070	-0.900	1.300																			1580028572.0	8.65	16.02
26/01/2020 08:49:33	26012020	260120	084933	176.060	12.541092	-57.244998	175.930	0.370	-0.150	0.770	176.060	-1.500	1.200																			1580028573.0	9.15	16.95
26/01/2020 08:49:34	26012020	260120	084934	176.080	12.541050	-57.244998	175.960	0.660	-0.440	0.740	176.080	-1.800	1.200																			1580028574.0	9.00	16.67
26/01/2020 08:49:35	26012020	260120	084935	176.110	12.541010	-57.244998	175.980	0.660	-0.550	0.790	176.110	-1.900	1.200																			1580028575.0	8.56	15.85
26/01/2020 08:49:36	26012020	260120	084936	176.040	12.540972	-57.244998	175.890	0.450	-0.710	1.020	176.040	-2.100	1.400																			1580028576.0	8.46	15.67
26/01/2020 08:49:37	26012020	260120	084937	175.910	12.540932	-57.245000	175.770	0.160	-0.890	1.270	175.910	-2.300	1.700																			1580028577.0	8.72	16.15
26/01/2020 08:49:38	26012020	260120	084938	175.830	12.540890	-57.245002	175.700	-0.130	-0.900	1.480	175.830	-2.300	1.900																			1580028578.0	8.87	16.43
26/01/2020 08:49:39	26012020	260120	084939	175.740	12.540848	-57.245005	175.600	-0.310	-0.780	1.570	175.740	-2.200	2.000																			1580028579.0	8.88	16.45
26/01/2020 08:49:40	26012020	260120	084940	175.600	12.540807	-57.245007	175.450	-0.340	-0.570	1.430	175.600	-2.000	1.900																			1580028580.0	8.99	16.65
26/01/2020 08:49:41	26012020	260120	084941	175.520	12.540765	-57.245005	175.380	-0.310	-0.160	1.070	175.520	-1.600	1.500																			1580028581.0	9.01	16.69
26/01/2020 08:49:42	26012020	260120	084942	175.590	12.540723	-57.245003	175.470	-0.340	0.370	0.660	175.590	-1.100	1.100																			1580028582.0	8.83	16.35
26/01/2020 08:49:43	26012020	260120	084943	175.750	12.540683	-57.245000	175.630	-0.410	0.690	0.430	175.750	-0.700	0.900																			1580028583.0	8.72	16.15
26/01/2020 08:49:44	26012020	260120	084944	175.840	12.540642	-57.244998	175.690	-0.380	0.630	0.510	175.840	-0.800	0.900																			1580028584.0	8.86	16.41
26/01/2020 08:49:45	26012020	260120	084945	175.860	12.540600	-57.244998	175.710	-0.140	0.360	0.770	175.860	-1.000	1.200																			1580028585.0	9.08	16.82
26/01/2020 08:49:46	26012020	260120	084946	175.840	12.540558	-57.245000	175.700	0.160	0.130	0.980	175.840	-1.300	1.400																			1580028586.0	9.01	16.69
26/01/2020 08:49:47	26012020	260120	084947	175.760	12.540518	-57.245000	175.600	0.370	-0.060	1.170	175.760	-1.500	1.600																			1580028587.0	8.74	16.19
26/01/2020 08:49:48	26012020	260120	084948	175.650	12.540478	-57.245000	175.470	0.430	-0.310	1.310	175.650	-1.700	1.700																			1580028588.0	8.60	15.93
26/01/2020 08:49:49	26012020	260120	084949	175.520	12.540438	-57.245002	175.350	0.400	-0.590	1.380	175.520	-2.000	1.800																			1580028589.0	8.63	15.98
26/01/2020 08:49:50	26012020	260120	084950	175.320	12.540397	-57.245002	175.140	0.330	-0.830	1.430	175.320	-2.200	1.900																			1580028590.0	8.70	16.11
26/01/2020 08:49:51	26012020	260120	084951	175.100	12.540357	-57.245002	174.920	0.260	-1.000	1.400	175.100	-2.400	1.800																			1580028591.0	8.79	16.28
26/01/2020 08:49:52	26012020	260120	084952	174.940	12.540315	-57.245003	174.790	0.150	-0.990	1.270	174.940	-2.400	1.700																			1580028592.0	8.92	16.52
26/01/2020 08:49:53	26012020	260120	084953	174.960	12.540273	-57.245002	174.900	-0.070	-0.680	1.030	175.000	-2.100	1.500																			1580028593.0	8.91	16.50
26/01/2020 08:49:54	26012020	260120	084954	175.280	12.540233	-57.245002	175.190	-0.340	-0.170	0.700	175.280	-1.600	1.100																			1580028594.0	8.70	16.11
26/01/2020 08:49:55	26012020	260120	084955	175.630	12.540192	-57.245000	175.530	-0.520	0.150	0.470	175.630	-1.300	0.900																			1580028595.0	8.69	16.09
26/01/2020 08:49:56	26012020	260120	084956	175.870	12.540150	-57.244998	175.740	-0.490	0.180	0.470	175.870	-1.200	0.900																			1580028596.0	9.03	16.72
26/01/2020 08:49:57	26012020	260120	084957	175.980	12.540108	-57.244998	175.850	-0.340	0.260	0.660	175.980	-1.200	1.100																			1580028597.0	9.23	17.09
26/01/2020 08:49:58	26012020	260120	084958	176.050	12.540065	-57.245000	175.920	-0.170	0.540	0.890	176.050	-0.900	1.300																			1580028598.0	8.96	16.59
26/01/2020 08:49:59	26012020	260120	084959	176.050	12.540025	-57.244998	175.910	-0.040	0.680	1.040	176.050	-0.700	1.500																			1580028599.0	8.60	15.93
26/01/2020 08:50:00	26012020	260120	085000	175.950	12.539985	-57.244998	175.790	0.090	0.380	1.160	175.950	-1.000	1.600	1013.70	25.60	25.60	19.70	19.80	0.00	70.00	70.00	431.00	25.40	308.00	9.80	97.00	7.90	15	3278.00	27.40	27.40	1580028600.0	8.64	16.00
26/01/2020 08:50:01	26012020	260120	085001	175.650	12.539943	-57.244998	175.480	0.280	-0.230	1.380	175.650	-1.600	1.800																			1580028601.0	8.96	16.59
26/01/2020 08:50:02	26012020	260120	085002	175.360	12.539902	-57.244998	175.210	0.430	-0.610	1.480	175.360	-2.000	1.900																			1580028602.0	9.05	16.76
26/01/2020 08:50:03	26012020	260120	085003	175.230	12.539862	-57.244998	175.090	0.430	-0.680	1.360	175.230	-2.100	1.800																			1580028603.0	8.67	16.06
26/01/2020 08:50:04	26012020	260120	085004	175.170	12.539822	-57.244998	175.030	0.320	-0.700	1.130	175.170	-2.100	1.600																			1580028604.0	8.42	15.59
26/01/2020 08:50:05	26012020	260120	085005	175.190	12.539782	-57.244998	175.070	0.200	-0.830	0.890	175.190	-2.200	1.300																			1580028605.0	8.60	15.93
26/01/2020 08:50:06	26012020	260120	085006	175.320	12.539742	-57.244998	175.180	0.100	-0.920	0.720	175.320	-2.300	1.200																			1580028606.0	8.88	16.45
26/01/2020 08:50:07	26012020	260120	085007	175.400	12.539700	-57.244998	175.280	0.020	-0.770	0.690	175.420	-2.200	1.100																			1580028607.0	8.98	16.63
26/01/2020 08:50:08	26012020	260120	085008	175.600	12.539658	-57.244997	175.490	-0.150	-0.320	0.660	175.600	-1.800	1.100																			1580028608.0	8.88	16.45
26/01/2020 08:50:09	26012020	260120	085009	175.790	12.539618	-57.244997	175.680	-0.420	0.170	0.780	175.790	-1.300	1.200																			1580028609.0	8.70	16.11
26/01/2020 08:50:10	26012020	260120	085010	175.910	12.539577	-57.244997	175.780	-0.620	0.410	1.050	175.910	-1.000	1.500																			1580028610.0	8.79	16.28
26/01/2020 08:50:11	26012020	260120	085011	175.840	12.539535	-57.244998	175.670	-0.540	0.330	1.360	175.840	-1.100	1.800																			1580028611.0	9.08	16.82
26/01/2020 08:50:12	26012020	260120	085012	175.600	12.539492	-57.245000	175.440	-0.200	0.160	1.550	175.600	-1.300	2.000																			1580028612.0	9.34	17.30
26/01/2020 08:50:13	26012020	260120	085013	175.420	12.539448	-57.244998	175.280	0.060	0.230	1.550	175.420	-1.200	2.000																			1580028613.0	9.14	16.93
26/01/2020 08:50:14	26012020	260120	085014	175.320	12.539408	-57.244998	175.190	0.070	0.360	1.350	175.320	-1.100	1.800																			1580028614.0	8.66	16.04
26/01/2020 08:50:15	26012020	260120	085015	175.340	12.539368	-57.244997	175.220	-0.030	0.240	1.100	175.340	-1.200	1.500																			1580028615.0	8.47	15.69
26/01/2020 08:50:16	26012020	260120	085016	175.400	12.539328	-57.244997	175.280	0.030	-0.210	0.930	175.400	-1.600	1.400																			1580028616.0	8.67	16.06
26/01/2020 08:50:17	26012020	260120	085017	175.450	12.539287	-57.244997	175.340	0.310	-0.680	0.790	175.450	-2.100	1.200																			1580028617.0	8.93	16.54
26/01/2020 08:50:18	26012020	260120	085018	175.570	12.539247	-57.244997	175.460	0.560	-0.870	0.590	175.570	-2.300	1.000																			1580028618.0	8.84	16.37
26/01/2020 08:50:19	26012020	260120	085019	175.690	12.539207	-57.244995	175.560	0.600	-0.830	0.480	175.690	-2.300	0.900																			1580028619.0	8.59	15.91
26/01/2020 08:50:20	26012020	260120	085020	175.690	12.539167	-57.244993	175.540	0.410	-0.710	0.580	175.690	-2.100	1.000																			1580028620.0	8.58	15.89
26/01/2020 08:50:21	26012020	260120	085021	175.670	12.539125	-57.244993	175.530	0.080	-0.490	0.800	175.670	-1.900	1.200																			1580028621.0	8.71	16.13
26/01/2020 08:50:22	26012020	260120	085022	175.670	12.539085	-57.244993	175.520	-0.280	-0.240	1.130	175.670	-1.700	1.500																			1580028622.0	8.77	16.24
26/01/2020 08:50:23	26012020	260120	085023	175.560	12.539043	-57.244995	175.400	-0.510	-0.110	1.510	175.560	-1.500	1.900																			1580028623.0	8.92	16.52
26/01/2020 08:50:24	26012020	260120	085024	175.340	12.539000	-57.244997	175.170	-0.550	-0.110	1.830	175.340	-1.500	2.200																			1580028624.0	9.20	17.04
26/01/2020 08:50:25	26012020	260120	085025	175.170	12.538957	-57.244998	175.040	-0.490	-0.010	1.920	175.170	-1.400	2.300																			1580028625.0	9.32	17.26
26/01/2020 08:50:26	26012020	260120	085026	175.230	12.538915	-57.245000	175.150	-0.370	0.310	1.600	175.230	-1.100	2.100																			1580028626.0	9.03	16.72
26/01/2020 08:50:27	26012020	260120	085027	175.470	12.538875	-57.244998	175.390	-0.170	0.570	0.990	175.470	-0.900	1.500																			1580028627.0	8.63	15.98
26/01/2020 08:50:28	26012020	260120	085028	175.790	12.538835	-57.244995	175.710	0.070	0.460	0.440	175.790	-0.900	0.900																			1580028628.0	8.58	15.89
26/01/2020 08:50:29	26012020	260120	085029	176.050	12.538795	-57.244993	175.920	0.310	-0.040	0.260	176.050	-1.400	0.700																			1580028629.0	8.84	16.37
26/01/2020 08:50:30	26012020	260120	085030	176.060	12.538752	-57.244992	175.890	0.460	-0.590	0.490	176.060	-2.000	0.900																			1580028630.0	9.08	16.82
26/01/2020 08:50:31	26012020	260120	085031	175.990	12.538710	-57.244992	175.850	0.400	-0.730	0.870	175.990	-2.200	1.300																			1580028631.0	9.00	16.67
26/01/2020 08:50:32	26012020	260120	085032	176.030	12.538670	-57.244993	175.890	0.190	-0.440	1.190	176.030	-1.900	1.600																			1580028632.0	8.54	15.82
26/01/2020 08:50:33	26012020	260120	085033	176.020	12.538632	-57.244995	175.870	0.040	-0.210	1.290	176.020	-1.600	1.700																			1580028633.0	8.26	15.30
26/01/2020 08:50:34	26012020	260120	085034	175.940	12.538592	-57.244995	175.790	0.060	-0.310	1.230	175.940	-1.700	1.700																			1580028634.0	8.61	15.95
26/01/2020 08:50:35	26012020	260120	085035	175.950	12.538550	-57.244995	175.820	0.130	-0.420	1.060	175.950	-1.800	1.500																			1580028635.0	9.01	16.69
26/01/2020 08:50:36	26012020	260120	085036	176.070	12.538508	-57.244993	175.940	0.060	-0.300	0.780	176.070	-1.700	1.200																			1580028636.0	8.92	16.52
26/01/2020 08:50:37	26012020	260120	085037	176.230	12.538468	-57.244992	176.090	-0.160	-0.140	0.490	176.230	-1.600	0.900																			1580028637.0	8.64	16.00
26/01/2020 08:50:38	26012020	260120	085038	176.300	12.538428	-57.244992	176.140	-0.310	-0.260	0.500	176.300	-1.700	0.900																			1580028638.0	8.73	16.17
26/01/2020 08:50:39	26012020	260120	085039	176.230	12.538387	-57.244993	176.060	-0.240	-0.500	0.740	176.230	-1.900	1.100																			1580028639.0	9.11	16.87
26/01/2020 08:50:40	26012020	260120	085040	176.080	12.538343	-57.244995	175.910	-0.060	-0.490	0.880	176.080	-1.900	1.300																			1580028640.0	9.20	17.04
26/01/2020 08:50:41	26012020	260120	085041	175.990	12.538302	-57.244995	175.850	0.020	-0.190	0.880	175.990	-1.600	1.300																			1580028641.0	8.92	16.52
26/01/2020 08:50:42	26012020	260120	085042	175.990	12.538262	-57.244995	175.850	-0.080	0.160	0.850	175.990	-1.300	1.300																			1580028642.0	8.68	16.08
26/01/2020 08:50:43	26012020	260120	085043	176.000	12.538222	-57.244995	175.860	-0.220	0.340	0.860	176.010	-1.100	1.300																			1580028643.0	8.66	16.04
26/01/2020 08:50:44	26012020	260120	085044	175.990	12.538180	-57.244995	175.830	-0.220	0.290	0.980	175.990	-1.100	1.400																			1580028644.0	8.83	16.35
26/01/2020 08:50:45	26012020	260120	085045	175.820	12.538138	-57.244997	175.660	-0.040	0.080	1.190	175.820	-1.300	1.600																			1580028645.0	8.96	16.59
26/01/2020 08:50:46	26012020	260120	085046	175.610	12.538097	-57.244998	175.460	0.170	-0.110	1.330	175.610	-1.500	1.700																			1580028646.0	9.03	16.72
26/01/2020 08:50:47	26012020	260120	085047	175.480	12.538055	-57.244998	175.340	0.270	-0.140	1.310	175.480	-1.600	1.700																			1580028647.0	8.85	16.39
26/01/2020 08:50:48	26012020	260120	085048	175.480	12.538015	-57.244998	175.360	0.250	-0.120	1.150	175.480	-1.500	1.600																			1580028648.0	8.58	15.89
26/01/2020 08:50:49	26012020	260120	085049	175.590	12.537975	-57.244997	175.460	0.200	-0.190	0.970	175.590	-1.600	1.400																			1580028649.0	8.48	15.70
26/01/2020 08:50:50	26012020	260120	085050	175.690	12.537937	-57.244997	175.560	0.170	-0.410	0.820	175.690	-1.800	1.300																			1580028650.0	8.56	15.85
26/01/2020 08:50:51	26012020	260120	085051	175.720	12.537895	-57.244995	175.570	0.190	-0.700	0.840	175.720	-2.100	1.300																			1580028651.0	8.72	16.15
26/01/2020 08:50:52	26012020	260120	085052	175.710	12.537853	-57.244995	175.580	0.220	-0.960	0.910	175.710	-2.400	1.300																			1580028652.0	8.92	16.52
26/01/2020 08:50:53	26012020	260120	085053	175.760	12.537812	-57.244995	175.640	0.180	-1.010	1.010	175.760	-2.400	1.400																			1580028653.0	9.04	16.74
26/01/2020 08:50:54	26012020	260120	085054	175.840	12.537770	-57.244995	175.720	-0.000	-0.690	1.160	175.840	-2.100	1.600																			1580028654.0	8.96	16.59
26/01/2020 08:50:55	26012020	260120	085055	175.960	12.537730	-57.244995	175.830	-0.290	-0.140	1.280	175.960	-1.600	1.700																			1580028655.0	8.72	16.15
26/01/2020 08:50:56	26012020	260120	085056	176.040	12.537690	-57.244995	175.920	-0.510	0.240	1.320	176.040	-1.200	1.700																			1580028656.0	8.70	16.11
26/01/2020 08:50:57	26012020	260120	085057	176.070	12.537648	-57.244997	175.950	-0.530	0.330	1.290	176.070	-1.100	1.700																			1580028657.0	8.99	16.65
26/01/2020 08:50:58	26012020	260120	085058	176.080	12.537605	-57.244997	175.950	-0.390	0.320	1.250	176.080	-1.100	1.700																			1580028658.0	9.21	17.06
26/01/2020 08:50:59	26012020	260120	085059	176.060	12.537562	-57.244995	175.910	-0.200	0.340	1.190	176.060	-1.100	1.600																			1580028659.0	9.12	16.89
26/01/2020 08:51:00	26012020	260120	085100	175.950	12.537522	-57.244995	175.790	-0.050	0.360	1.140	175.950	-1.100	1.600	1013.70	25.60	25.60	19.50	19.60	0.00	69.00	69.00	431.00	25.40	309.00	9.90	98.00	7.80	15	3254.00	27.40	27.40	1580028660.0	8.89	16.46
26/01/2020 08:51:01	26012020	260120	085101	175.830	12.537480	-57.244995	175.690	0.060	0.330	1.140	175.830	-1.100	1.600																			1580028661.0	8.75	16.21
26/01/2020 08:51:02	26012020	260120	085102	175.820	12.537440	-57.244995	175.690	0.170	0.270	1.040	175.820	-1.100	1.500																			1580028662.0	8.57	15.87
26/01/2020 08:51:03	26012020	260120	085103	175.910	12.537402	-57.244995	175.780	0.350	-0.010	0.820	175.910	-1.400	1.300																			1580028663.0	8.47	15.69
26/01/2020 08:51:04	26012020	260120	085104	175.970	12.537362	-57.244995	175.830	0.580	-0.510	0.560	175.970	-1.900	1.000																			1580028664.0	8.62	15.96
26/01/2020 08:51:05	26012020	260120	085105	176.010	12.537320	-57.244993	175.870	0.680	-0.990	0.470	176.010	-2.400	0.900																			1580028665.0	8.83	16.35
26/01/2020 08:51:06	26012020	260120	085106	176.070	12.537278	-57.244993	175.930	0.550	-1.180	0.520	176.070	-2.600	0.900																			1580028666.0	8.82	16.33
26/01/2020 08:51:07	26012020	260120	085107	176.210	12.537238	-57.244993	176.090	0.220	-1.040	0.580	176.210	-2.500	1.000																			1580028667.0	8.67	16.06
26/01/2020 08:51:08	26012020	260120	085108	176.410	12.537198	-57.244993	176.310	-0.190	-0.750	0.700	176.410	-2.200	1.100																			1580028668.0	8.60	15.93
26/01/2020 08:51:09	26012020	260120	085109	176.580	12.537158	-57.244993	176.460	-0.500	-0.520	0.920	176.580	-1.900	1.300																			1580028669.0	8.74	16.19
26/01/2020 08:51:10	26012020	260120	085110	176.560	12.537115	-57.244995	176.410	-0.530	-0.430	1.180	176.560	-1.800	1.600																			1580028670.0	9.09	16.83
26/01/2020 08:51:11	26012020	260120	085111	176.280	12.537072	-57.244995	176.100	-0.370	-0.270	1.420	176.280	-1.700	1.800																			1580028671.0	9.39	17.39
26/01/2020 08:51:12	26012020	260120	085112	175.990	12.537028	-57.244995	175.840	-0.310	0.240	1.480	175.990	-1.200	1.900																			1580028672.0	9.30	17.22
26/01/2020 08:51:13	26012020	260120	085113	175.860	12.536988	-57.244995	175.740	-0.480	0.900	1.460	175.860	-0.600	1.900																			1580028673.0	8.81	16.32
26/01/2020 08:51:14	26012020	260120	085114	175.770	12.536948	-57.244995	175.620	-0.610	1.140	1.440	175.770	-0.300	1.900																			1580028674.0	8.57	15.87
26/01/2020 08:51:15	26012020	260120	085115	175.580	12.536907	-57.244997	175.420	-0.380	0.800	1.300	175.580	-0.600	1.700																			1580028675.0	8.91	16.50
26/01/2020 08:51:16	26012020	260120	085116	175.440	12.536863	-57.244998	175.290	0.190	0.240	1.040	175.440	-1.100	1.500																			1580028676.0	9.19	17.02
26/01/2020 08:51:17	26012020	260120	085117	175.440	12.536822	-57.244997	175.310	0.690	-0.160	0.680	175.440	-1.600	1.100																			1580028677.0	9.00	16.67
26/01/2020 08:51:18	26012020	260120	085118	175.620	12.536782	-57.244995	175.510	0.810	-0.380	0.300	175.620	-1.800	0.800																			1580028678.0	8.56	15.85
26/01/2020 08:51:19	26012020	260120	085119	175.820	12.536743	-57.244993	175.720	0.600	-0.670	0.210	175.860	-2.100	0.600																			1580028679.0	8.29	15.35
26/01/2020 08:51:20	26012020	260120	085120	175.950	12.536705	-57.244993	175.780	0.340	-1.100	0.560	175.950	-2.500	1.000																			1580028680.0	8.50	15.74
26/01/2020 08:51:21	26012020	260120	085121	175.910	12.536663	-57.244997	175.730	0.170	-1.340	0.970	175.900	-2.700	1.400																			1580028681.0	8.85	16.39
26/01/2020 08:51:22	26012020	260120	085122	175.850	12.536622	-57.244998	175.690	0.070	-1.170	1.240	175.850	-2.600	1.600																			1580028682.0	8.82	16.33
26/01/2020 08:51:23	26012020	260120	085123	175.820	12.536582	-57.244998	175.650	-0.040	-0.770	1.340	175.820	-2.200	1.800																			1580028683.0	8.69	16.09
26/01/2020 08:51:24	26012020	260120	085124	175.790	12.536542	-57.244998	175.620	-0.220	-0.320	1.360	175.790	-1.800	1.800																			1580028684.0	8.77	16.24
26/01/2020 08:51:25	26012020	260120	085125	175.770	12.536500	-57.244997	175.600	-0.440	0.090	1.380	175.770	-1.400	1.800																			1580028685.0	8.94	16.56
26/01/2020 08:51:26	26012020	260120	085126	175.770	12.536458	-57.244997	175.610	-0.600	0.440	1.320	175.770	-1.000	1.800																			1580028686.0	9.01	16.69
26/01/2020 08:51:27	26012020	260120	085127	175.810	12.536417	-57.244997	175.650	-0.560	0.670	1.170	175.810	-0.800	1.600																			1580028687.0	8.99	16.65
26/01/2020 08:51:28	26012020	260120	085128	175.750	12.536373	-57.244997	175.570	-0.250	0.610	1.080	175.750	-0.800	1.500																			1580028688.0	8.99	16.65
26/01/2020 08:51:29	26012020	260120	085129	175.630	12.536332	-57.244995	175.460	0.120	0.330	1.000	175.630	-1.100	1.400																			1580028689.0	9.16	16.96
26/01/2020 08:51:30	26012020	260120	085130	175.680	12.536290	-57.244993	175.560	0.240	0.140	0.990	175.680	-1.300	1.400																			1580028690.0	9.08	16.82
26/01/2020 08:51:31	26012020	260120	085131	175.930	12.536248	-57.244995	175.830	0.090	0.070	1.040	175.930	-1.300	1.500																			1580028691.0	8.67	16.06
26/01/2020 08:51:32	26012020	260120	085132	176.130	12.536210	-57.244997	176.010	-0.020	-0.110	1.100	176.130	-1.500	1.500																			1580028692.0	8.43	15.61
26/01/2020 08:51:33	26012020	260120	085133	176.190	12.536170	-57.244998	176.070	0.150	-0.490	1.070	176.210	-1.900	1.500																			1580028693.0	8.54	15.82
26/01/2020 08:51:34	26012020	260120	085134	176.210	12.536130	-57.245000	176.070	0.450	-0.900	0.990	176.210	-2.300	1.400																			1580028694.0	8.75	16.21
26/01/2020 08:51:35	26012020	260120	085135	176.170	12.536088	-57.244998	176.000	0.620	-1.130	0.950	176.170	-2.500	1.400																			1580028695.0	8.84	16.37
26/01/2020 08:51:36	26012020	260120	085136	176.010	12.536047	-57.244997	175.840	0.460	-1.030	1.040	176.010	-2.500	1.500																			1580028696.0	8.84	16.37
26/01/2020 08:51:37	26012020	260120	085137	175.880	12.536007	-57.244997	175.720	0.030	-0.520	1.210	175.880	-2.000	1.600																			1580028697.0	8.67	16.06
26/01/2020 08:51:38	26012020	260120	085138	175.880	12.535968	-57.244998	175.760	-0.450	0.120	1.420	175.880	-1.300	1.800																			1580028698.0	8.43	15.61
26/01/2020 08:51:39	26012020	260120	085139	175.950	12.535928	-57.245000	175.830	-0.640	0.370	1.520	175.950	-1.000	1.900																			1580028699.0	8.58	15.89
26/01/2020 08:51:40	26012020	260120	085140	175.950	12.535885	-57.245003	175.840	-0.390	0.170	1.450	175.950	-1.200	1.900																			1580028700.0	9.08	16.82
26/01/2020 08:51:41	26012020	260120	085141	176.010	12.535842	-57.245003	175.930	0.020	-0.080	1.180	176.010	-1.500	1.600																			1580028701.0	9.42	17.45
26/01/2020 08:51:42	26012020	260120	085142	176.300	12.535800	-57.245000	176.230	0.200	0.050	0.670	176.300	-1.400	1.100																			1580028702.0	9.17	16.98
26/01/2020 08:51:43	26012020	260120	085143	176.660	12.535760	-57.244997	176.550	0.060	0.340	0.260	176.660	-1.100	0.700																			1580028703.0	8.49	15.72
26/01/2020 08:51:44	26012020	260120	085144	176.720	12.535722	-57.244995	176.530	-0.080	0.160	0.290	176.720	-1.200	0.700																			1580028704.0	8.30	15.37
26/01/2020 08:51:45	26012020	260120	085145	176.490	12.535680	-57.244995	176.200	0.010	-0.510	0.690	176.410	-1.900	1.100																			1580028705.0	8.93	16.54
26/01/2020 08:51:46	26012020	260120	085146	176.020	12.535637	-57.244997	175.820	0.170	-0.960	1.170	176.020	-2.400	1.600																			1580028706.0	9.38	17.37
26/01/2020 08:51:47	26012020	260120	085147	175.780	12.535595	-57.244998	175.600	0.130	-0.720	1.510	175.740	-2.200	1.900																			1580028707.0	9.02	16.71
26/01/2020 08:51:48	26012020	260120	085148	175.660	12.535555	-57.245002	175.540	-0.090	-0.150	1.500	175.660	-1.600	1.900																			1580028708.0	8.41	15.58
26/01/2020 08:51:49	26012020	260120	085149	175.680	12.535517	-57.245003	175.560	-0.240	0.160	1.300	175.680	-1.300	1.700																			1580028709.0	8.27	15.32
26/01/2020 08:51:50	26012020	260120	085150	175.770	12.535477	-57.245003	175.670	-0.160	0.060	1.050	175.770	-1.300	1.500																			1580028710.0	8.69	16.09
26/01/2020 08:51:51	26012020	260120	085151	175.940	12.535435	-57.245002	175.830	0.020	-0.130	0.850	175.940	-1.500	1.300																			1580028711.0	9.04	16.74
26/01/2020 08:51:52	26012020	260120	085152	176.020	12.535393	-57.245002	175.880	0.150	-0.230	0.740	176.020	-1.600	1.200																			1580028712.0	8.99	16.65
26/01/2020 08:51:53	26012020	260120	085153	175.910	12.535352	-57.245002	175.740	0.160	-0.250	0.790	175.910	-1.700	1.200																			1580028713.0	8.84	16.37
26/01/2020 08:51:54	26012020	260120	085154	175.750	12.535312	-57.245003	175.600	0.110	-0.170	0.980	175.750	-1.600	1.400																			1580028714.0	8.76	16.22
26/01/2020 08:51:55	26012020	260120	085155	175.710	12.535270	-57.245003	175.580	0.040	0.020	1.090	175.710	-1.400	1.500																			1580028715.0	8.64	16.00
26/01/2020 08:51:56	26012020	260120	085156	175.730	12.535232	-57.245003	175.600	-0.000	0.040	1.140	175.730	-1.400	1.600																			1580028716.0	8.53	15.80
26/01/2020 08:51:57	26012020	260120	085157	175.770	12.535190	-57.245003	175.650	0.060	-0.170	1.100	175.770	-1.600	1.500																			1580028717.0	8.75	16.21
26/01/2020 08:51:58	26012020	260120	085158	175.840	12.535148	-57.245003	175.730	0.160	-0.400	1.010	175.840	-1.800	1.400																			1580028718.0	8.94	16.56
26/01/2020 08:51:59	26012020	260120	085159	175.900	12.535108	-57.245002	175.770	0.190	-0.480	1.050	175.900	-1.900	1.500																			1580028719.0	8.85	16.39
26/01/2020 08:52:00	26012020	260120	085200	175.840	12.535067	-57.245002	175.670	0.100	-0.490	1.170	175.840	-1.900	1.600	1013.70	25.60	25.70	19.70	19.80	0.00	69.00	69.00	431.00	25.40	307.00	9.70	96.00	7.80	15	3240.00	27.40	27.40	1580028720.0	8.72	16.15
26/01/2020 08:52:01	26012020	260120	085201	175.610	12.535027	-57.245002	175.430	-0.010	-0.520	1.310	175.610	-1.900	1.700																			1580028721.0	8.79	16.28
26/01/2020 08:52:02	26012020	260120	085202	175.340	12.534985	-57.245002	175.180	-0.120	-0.450	1.440	175.340	-1.900	1.900																			1580028722.0	8.94	16.56
26/01/2020 08:52:03	26012020	260120	085203	175.210	12.534943	-57.245002	175.070	-0.230	-0.170	1.440	175.210	-1.600	1.900																			1580028723.0	8.86	16.41
26/01/2020 08:52:04	26012020	260120	085204	175.270	12.534903	-57.245003	175.170	-0.360	0.110	1.210	175.270	-1.300	1.700																			1580028724.0	8.68	16.08
26/01/2020 08:52:05	26012020	260120	085205	175.460	12.534862	-57.245002	175.350	-0.430	0.170	0.980	175.460	-1.200	1.400																			1580028725.0	8.74	16.19
26/01/2020 08:52:06	26012020	260120	085206	175.560	12.534822	-57.245003	175.420	-0.310	0.040	0.920	175.560	-1.400	1.400																			1580028726.0	8.94	16.56
26/01/2020 08:52:07	26012020	260120	085207	175.520	12.534778	-57.245005	175.370	0.010	-0.040	0.890	175.520	-1.500	1.300																			1580028727.0	9.04	16.74
26/01/2020 08:52:08	26012020	260120	085208	175.540	12.534738	-57.245003	175.420	0.290	0.060	0.740	175.540	-1.400	1.200																			1580028728.0	8.80	16.30
26/01/2020 08:52:09	26012020	260120	085209	175.620	12.534698	-57.245002	175.500	0.350	0.100	0.620	175.630	-1.300	1.100																			1580028729.0	8.51	15.76
26/01/2020 08:52:10	26012020	260120	085210	175.660	12.534658	-57.245000	175.510	0.300	-0.160	0.620	175.660	-1.500	1.000																			1580028730.0	8.60	15.93
26/01/2020 08:52:11	26012020	260120	085211	175.600	12.534617	-57.245000	175.440	0.270	-0.510	0.820	175.580	-1.900	1.200																			1580028731.0	8.91	16.50
26/01/2020 08:52:12	26012020	260120	085212	175.600	12.534575	-57.245000	175.490	0.250	-0.560	1.010	175.600	-2.000	1.400																			1580028732.0	8.94	16.56
26/01/2020 08:52:13	26012020	260120	085213	175.750	12.534535	-57.245000	175.650	0.150	-0.380	1.100	175.750	-1.800	1.500																			1580028733.0	8.61	15.95
26/01/2020 08:52:14	26012020	260120	085214	175.850	12.534497	-57.245000	175.720	0.000	-0.260	1.150	175.850	-1.700	1.600																			1580028734.0	8.48	15.70
26/01/2020 08:52:15	26012020	260120	085215	175.860	12.534455	-57.245000	175.740	-0.110	-0.340	1.140	175.860	-1.700	1.600																			1580028735.0	8.71	16.13
26/01/2020 08:52:16	26012020	260120	085216	175.860	12.534413	-57.245000	175.720	-0.170	-0.440	1.140	175.860	-1.900	1.600																			1580028736.0	8.95	16.58
26/01/2020 08:52:17	26012020	260120	085217	175.790	12.534372	-57.245000	175.650	-0.180	-0.390	1.160	175.790	-1.800	1.600																			1580028737.0	8.98	16.63
26/01/2020 08:52:18	26012020	260120	085218	175.600	12.534332	-57.245000	175.430	-0.150	-0.250	1.120	175.600	-1.700	1.600																			1580028738.0	8.84	16.37
26/01/2020 08:52:19	26012020	260120	085219	175.350	12.534290	-57.244998	175.190	-0.120	-0.090	1.020	175.350	-1.500	1.500																			1580028739.0	8.85	16.39
26/01/2020 08:52:20	26012020	260120	085220	175.200	12.534248	-57.244998	175.050	-0.150	0.070	0.930	175.200	-1.400	1.400																			1580028740.0	8.86	16.41
26/01/2020 08:52:21	26012020	260120	085221	175.190	12.534208	-57.244998	175.040	-0.200	0.190	0.810	175.190	-1.200	1.200																			1580028741.0	8.82	16.33
26/01/2020 08:52:22	26012020	260120	085222	175.260	12.534167	-57.244998	175.120	-0.200	0.250	0.660	175.260	-1.200	1.100																			1580028742.0	8.77	16.24
26/01/2020 08:52:23	26012020	260120	085223	175.360	12.534127	-57.244998	175.250	-0.110	0.160	0.520	175.390	-1.200	0.900																			1580028743.0	8.74	16.19
26/01/2020 08:52:24	26012020	260120	085224	175.510	12.534085	-57.244998	175.360	0.090	-0.160	0.430	175.510	-1.600	0.900																			1580028744.0	8.82	16.33
26/01/2020 08:52:25	26012020	260120	085225	175.640	12.534043	-57.244998	175.500	0.310	-0.490	0.370	175.640	-1.900	0.800																			1580028745.0	9.00	16.67
26/01/2020 08:52:26	26012020	260120	085226	175.840	12.534002	-57.244997	175.710	0.360	-0.550	0.310	175.840	-2.000	0.700																			1580028746.0	8.88	16.45
26/01/2020 08:52:27	26012020	260120	085227	176.070	12.533962	-57.244995	175.940	0.180	-0.440	0.340	176.070	-1.900	0.800																			1580028747.0	8.57	15.87
26/01/2020 08:52:28	26012020	260120	085228	176.090	12.533922	-57.244995	175.900	-0.030	-0.490	0.650	176.090	-1.900	1.000																			1580028748.0	8.55	15.83
26/01/2020 08:52:29	26012020	260120	085229	175.800	12.533880	-57.244995	175.610	-0.100	-0.640	1.130	175.800	-2.000	1.500																			1580028749.0	8.94	16.56
26/01/2020 08:52:30	26012020	260120	085230	175.560	12.533838	-57.244997	175.390	-0.100	-0.500	1.480	175.560	-1.900	1.900																			1580028750.0	9.13	16.91
26/01/2020 08:52:31	26012020	260120	085231	175.460	12.533797	-57.244998	175.310	-0.120	-0.070	1.590	175.460	-1.500	2.000																			1580028751.0	8.82	16.33
26/01/2020 08:52:32	26012020	260120	085232	175.390	12.533757	-57.244998	175.240	-0.130	0.270	1.460	175.390	-1.200	1.900																			1580028752.0	8.62	15.96
26/01/2020 08:52:33	26012020	260120	085233	175.360	12.533717	-57.244997	175.220	-0.120	0.420	1.290	175.360	-1.000	1.700																			1580028753.0	8.77	16.24
26/01/2020 08:52:34	26012020	260120	085234	175.410	12.533675	-57.244997	175.280	-0.080	0.460	1.130	175.410	-0.900	1.600																			1580028754.0	8.78	16.26
26/01/2020 08:52:35	26012020	260120	085235	175.500	12.533635	-57.244997	175.360	0.020	0.240	0.900	175.500	-1.100	1.300																			1580028755.0	8.72	16.15
26/01/2020 08:52:36	26012020	260120	085236	175.560	12.533593	-57.244995	175.410	0.180	-0.250	0.660	175.560	-1.600	1.100																			1580028756.0	8.92	16.52
26/01/2020 08:52:37	26012020	260120	085237	175.570	12.533552	-57.244993	175.410	0.250	-0.710	0.630	175.570	-2.100	1.000																			1580028757.0	9.05	16.76
26/01/2020 08:52:38	26012020	260120	085238	175.550	12.533510	-57.244995	175.400	0.140	-0.910	0.820	175.550	-2.300	1.200																			1580028758.0	8.97	16.61
26/01/2020 08:52:39	26012020	260120	085239	175.580	12.533468	-57.244997	175.440	-0.060	-0.780	1.010	175.580	-2.200	1.400																			1580028759.0	8.76	16.22
26/01/2020 08:52:40	26012020	260120	085240	175.630	12.533428	-57.244997	175.510	-0.200	-0.520	1.110	175.630	-1.900	1.500																			1580028760.0	8.60	15.93
26/01/2020 08:52:41	26012020	260120	085241	175.730	12.533388	-57.244998	175.600	-0.220	-0.330	1.080	175.730	-1.700	1.500																			1580028761.0	8.70	16.11
26/01/2020 08:52:42	26012020	260120	085242	175.820	12.533347	-57.244998	175.700	-0.110	-0.160	0.910	175.820	-1.600	1.300																			1580028762.0	8.85	16.39
26/01/2020 08:52:43	26012020	260120	085243	175.870	12.533307	-57.244995	175.730	0.020	-0.010	0.780	175.870	-1.400	1.200																			1580028763.0	8.93	16.54
26/01/2020 08:52:44	26012020	260120	085244	175.840	12.533265	-57.244993	175.680	0.090	0.160	0.780	175.840	-1.300	1.200																			1580028764.0	8.95	16.58
26/01/2020 08:52:45	26012020	260120	085245	175.770	12.533223	-57.244992	175.610	0.070	0.310	0.900	175.770	-1.100	1.300																			1580028765.0	8.87	16.43
26/01/2020 08:52:46	26012020	260120	085246	175.730	12.533182	-57.244992	175.590	0.010	0.410	1.060	175.730	-1.000	1.500																			1580028766.0	8.80	16.30
26/01/2020 08:52:47	26012020	260120	085247	175.790	12.533142	-57.244992	175.660	-0.040	0.370	1.100	175.790	-1.000	1.500																			1580028767.0	8.69	16.09
26/01/2020 08:52:48	26012020	260120	085248	175.750	12.533102	-57.244992	175.600	-0.010	-0.000	1.180	175.750	-1.400	1.600																			1580028768.0	8.72	16.15
26/01/2020 08:52:49	26012020	260120	085249	175.570	12.533060	-57.244993	175.400	0.150	-0.650	1.270	175.570	-2.000	1.700																			1580028769.0	9.07	16.80
26/01/2020 08:52:50	26012020	260120	085250	175.390	12.533017	-57.244993	175.250	0.270	-1.030	1.210	175.390	-2.400	1.600																			1580028770.0	9.24	17.11
26/01/2020 08:52:51	26012020	260120	085251	175.390	12.532975	-57.244993	175.300	0.180	-0.840	1.000	175.390	-2.300	1.400																			1580028771.0	8.86	16.41
26/01/2020 08:52:52	26012020	260120	085252	175.630	12.532937	-57.244992	175.550	-0.090	-0.390	0.580	175.630	-1.800	1.000																			1580028772.0	8.37	15.50
26/01/2020 08:52:53	26012020	260120	085253	175.900	12.532897	-57.244992	175.790	-0.330	-0.170	0.250	175.900	-1.600	0.700																			1580028773.0	8.35	15.46
26/01/2020 08:52:54	26012020	260120	085254	176.050	12.532857	-57.244990	175.920	-0.350	-0.300	0.250	176.050	-1.700	0.700																			1580028774.0	8.84	16.37
26/01/2020 08:52:55	26012020	260120	085255	176.080	12.532813	-57.244992	175.950	-0.160	-0.410	0.440	176.080	-1.800	0.800																			1580028775.0	9.25	17.13
26/01/2020 08:52:56	26012020	260120	085256	176.100	12.532770	-57.244992	175.970	0.040	-0.180	0.610	176.100	-1.600	1.000																			1580028776.0	9.17	16.98
26/01/2020 08:52:57	26012020	260120	085257	176.110	12.532730	-57.244990	176.000	0.100	0.230	0.720	176.110	-1.200	1.100																			1580028777.0	8.79	16.28
26/01/2020 08:52:58	26012020	260120	085258	176.100	12.532690	-57.244990	175.970	0.070	0.450	0.830	176.100	-1.000	1.200																			1580028778.0	8.64	16.00
26/01/2020 08:52:59	26012020	260120	085259	176.050	12.532648	-57.244988	175.910	0.040	0.370	0.980	176.040	-1.000	1.400																			1580028779.0	8.81	16.32
26/01/2020 08:53:00	26012020	260120	085300	175.960	12.532607	-57.244990	175.830	0.070	0.170	1.140	175.960	-1.200	1.600	1013.70	25.60	25.70	19.90	19.90	0.00	70.00	70.00	431.00	25.40	308.00	9.20	94.00	7.30	15	3249.00	27.40	27.40	1580028780.0	8.96	16.59
26/01/2020 08:53:01	26012020	260120	085301	175.910	12.532565	-57.244990	175.780	0.120	-0.040	1.190	175.910	-1.400	1.600																			1580028781.0	8.90	16.48
26/01/2020 08:53:02	26012020	260120	085302	175.900	12.532525	-57.244992	175.780	0.160	-0.300	1.090	175.900	-1.700	1.500																			1580028782.0	8.78	16.26
26/01/2020 08:53:03	26012020	260120	085303	175.910	12.532483	-57.244992	175.790	0.140	-0.610	0.900	175.910	-2.000	1.300																			1580028783.0	8.80	16.30
26/01/2020 08:53:04	26012020	260120	085304	175.910	12.532443	-57.244992	175.800	0.060	-0.860	0.750	175.910	-2.200	1.200																			1580028784.0	8.84	16.37
26/01/2020 08:53:05	26012020	260120	085305	175.960	12.532402	-57.244992	175.860	-0.030	-0.910	0.560	175.960	-2.300	1.000																			1580028785.0	8.88	16.45
26/01/2020 08:53:06	26012020	260120	085306	176.070	12.532360	-57.244990	175.970	-0.100	-0.750	0.350	176.070	-2.200	0.800																			1580028786.0	8.81	16.32
26/01/2020 08:53:07	26012020	260120	085307	176.180	12.532320	-57.244990	176.090	-0.160	-0.490	0.250	176.180	-1.900	0.700																			1580028787.0	8.80	16.30
26/01/2020 08:53:08	26012020	260120	085308	176.330	12.532278	-57.244988	176.240	-0.210	-0.180	0.180	176.330	-1.600	0.600																			1580028788.0	8.89	16.46
26/01/2020 08:53:09	26012020	260120	085309	176.480	12.532237	-57.244988	176.370	-0.280	0.160	0.360	176.480	-1.300	0.800																			1580028789.0	8.89	16.46
26/01/2020 08:53:10	26012020	260120	085310	176.530	12.532195	-57.244988	176.420	-0.330	0.350	0.770	176.530	-1.100	1.200																			1580028790.0	8.94	16.56
26/01/2020 08:53:11	26012020	260120	085311	176.490	12.532153	-57.244990	176.370	-0.280	0.410	1.160	176.490	-1.000	1.600																			1580028791.0	9.04	16.74
26/01/2020 08:53:12	26012020	260120	085312	176.400	12.532112	-57.244992	176.280	-0.090	0.460	1.360	176.400	-0.900	1.800																			1580028792.0	8.99	16.65
26/01/2020 08:53:13	26012020	260120	085313	176.300	12.532070	-57.244993	176.120	0.180	0.400	1.400	176.270	-1.000	1.800																			1580028793.0	8.77	16.24
26/01/2020 08:53:14	26012020	260120	085314	176.010	12.532030	-57.244993	175.850	0.460	0.020	1.360	176.010	-1.400	1.800																			1580028794.0	8.79	16.28
26/01/2020 08:53:15	26012020	260120	085315	175.710	12.531988	-57.244992	175.550	0.620	-0.480	1.230	175.710	-1.900	1.700																			1580028795.0	9.05	16.76
26/01/2020 08:53:16	26012020	260120	085316	175.570	12.531947	-57.244992	175.460	0.540	-0.680	1.010	175.570	-2.100	1.500																			1580028796.0	8.99	16.65
26/01/2020 08:53:17	26012020	260120	085317	175.770	12.531907	-57.244990	175.700	0.220	-0.490	0.660	175.770	-1.900	1.100																			1580028797.0	8.55	15.83
26/01/2020 08:53:18	26012020	260120	085318	176.160	12.531868	-57.244990	176.090	-0.110	-0.380	0.330	176.160	-1.800	0.800																			1580028798.0	8.25	15.28
26/01/2020 08:53:19	26012020	260120	085319	176.450	12.531828	-57.244990	176.340	-0.200	-0.690	0.180	176.450	-2.100	0.600																			1580028799.0	8.59	15.91
26/01/2020 08:53:20	26012020	260120	085320	176.530	12.531785	-57.244992	176.400	-0.090	-1.130	0.320	176.530	-2.500	0.700																			1580028800.0	9.24	17.11
26/01/2020 08:53:21	26012020	260120	085321	176.560	12.531742	-57.244992	176.450	-0.020	-1.140	0.520	176.560	-2.600	0.900																			1580028801.0	9.46	17.52
26/01/2020 08:53:22	26012020	260120	085322	176.680	12.531698	-57.244992	176.580	-0.220	-0.500	0.610	176.680	-2.000	1.000																			1580028802.0	9.07	16.80
26/01/2020 08:53:23	26012020	260120	085323	176.810	12.531658	-57.244990	176.690	-0.580	0.310	0.790	176.810	-1.100	1.200																			1580028803.0	8.53	15.80
26/01/2020 08:53:24	26012020	260120	085324	176.780	12.531618	-57.244992	176.640	-0.760	0.670	1.120	176.780	-0.700	1.500																			1580028804.0	8.61	15.95
26/01/2020 08:53:25	26012020	260120	085325	176.630	12.531577	-57.244995	176.440	-0.570	0.590	1.430	176.590	-0.800	1.800																			1580028805.0	9.15	16.95
26/01/2020 08:53:26	26012020	260120	085326	176.320	12.531533	-57.244997	176.160	-0.120	0.430	1.590	176.320	-1.000	2.000																			1580028806.0	9.41	17.43
26/01/2020 08:53:27	26012020	260120	085327	176.130	12.531490	-57.244998	175.960	0.320	0.380	1.500	176.100	-1.000	1.900																			1580028807.0	9.17	16.98
26/01/2020 08:53:28	26012020	260120	085328	176.030	12.531450	-57.244997	175.890	0.540	0.390	1.150	176.020	-1.000	1.600																			1580028808.0	8.76	16.22
26/01/2020 08:53:29	26012020	260120	085329	176.060	12.531410	-57.244997	175.940	0.580	0.280	0.730	176.060	-1.100	1.200																			1580028809.0	8.48	15.70
26/01/2020 08:53:30	26012020	260120	085330	176.180	12.531370	-57.244995	176.060	0.560	-0.100	0.400	176.180	-1.500	0.900																			1580028810.0	8.47	15.69
26/01/2020 08:53:31	26012020	260120	085331	176.350	12.531330	-57.244993	176.240	0.520	-0.710	0.250	176.350	-2.100	0.700																			1580028811.0	8.67	16.06
26/01/2020 08:53:32	26012020	260120	085332	176.500	12.531288	-57.244993	176.380	0.440	-1.300	0.390	176.500	-2.700	0.800																			1580028812.0	8.90	16.48
26/01/2020 08:53:33	26012020	260120	085333	176.530	12.531247	-57.244995	176.410	0.290	-1.530	0.710	176.530	-2.900	1.100																			1580028813.0	8.99	16.65
26/01/2020 08:53:34	26012020	260120	085334	176.470	12.531207	-57.244997	176.350	0.020	-1.280	1.010	176.470	-2.700	1.400																			1580028814.0	8.81	16.32
26/01/2020 08:53:35	26012020	260120	085335	176.460	12.531165	-57.244998	176.370	-0.320	-0.800	1.250	176.460	-2.200	1.700																			1580028815.0	8.72	16.15
26/01/2020 08:53:36	26012020	260120	085336	176.520	12.531125	-57.245000	176.420	-0.650	-0.290	1.410	176.520	-1.700	1.800																			1580028816.0	8.83	16.35
26/01/2020 08:53:37	26012020	260120	085337	176.450	12.531083	-57.245002	176.320	-0.790	0.120	1.480	176.450	-1.300	1.900																			1580028817.0	8.99	16.65
26/01/2020 08:53:38	26012020	260120	085338	176.290	12.531040	-57.245003	176.150	-0.660	0.440	1.340	176.290	-1.000	1.800																			1580028818.0	9.21	17.06
26/01/2020 08:53:39	26012020	260120	085339	176.240	12.530998	-57.245002	176.120	-0.450	0.790	1.050	176.240	-0.600	1.500																			1580028819.0	9.18	17.00
26/01/2020 08:53:40	26012020	260120	085340	176.300	12.530957	-57.245000	176.160	-0.250	1.010	0.910	176.300	-0.400	1.300																			1580028820.0	8.90	16.48
26/01/2020 08:53:41	26012020	260120	085341	176.260	12.530915	-57.245000	176.050	0.020	0.780	0.950	176.230	-0.600	1.400																			1580028821.0	8.82	16.33
26/01/2020 08:53:42	26012020	260120	085342	176.070	12.530873	-57.245002	175.850	0.400	0.170	1.120	176.030	-1.200	1.500																			1580028822.0	9.08	16.82
26/01/2020 08:53:43	26012020	260120	085343	175.920	12.530830	-57.245002	175.780	0.670	-0.340	1.240	175.920	-1.700	1.700																			1580028823.0	9.14	16.93
26/01/2020 08:53:44	26012020	260120	085344	175.940	12.530790	-57.245003	175.820	0.660	-0.640	1.200	175.940	-2.000	1.600																			1580028824.0	8.78	16.26
26/01/2020 08:53:45	26012020	260120	085345	176.000	12.530750	-57.245003	175.910	0.470	-0.820	1.000	176.020	-2.200	1.400																			1580028825.0	8.52	15.78
26/01/2020 08:53:46	26012020	260120	085346	176.140	12.530710	-57.245005	176.020	0.310	-0.980	0.780	176.140	-2.400	1.200																			1580028826.0	8.54	15.82
26/01/2020 08:53:47	26012020	260120	085347	176.180	12.530670	-57.245003	176.060	0.220	-1.030	0.610	176.180	-2.400	1.000																			1580028827.0	8.72	16.15
26/01/2020 08:53:48	26012020	260120	085348	176.290	12.530628	-57.245003	176.200	0.040	-0.790	0.370	176.290	-2.200	0.800																			1580028828.0	8.83	16.35
26/01/2020 08:53:49	26012020	260120	085349	176.500	12.530588	-57.245002	176.470	-0.250	-0.270	0.190	176.560	-1.700	0.600																			1580028829.0	8.70	16.11
26/01/2020 08:53:50	26012020	260120	085350	176.800	12.530548	-57.245002	176.680	-0.470	0.200	0.260	176.800	-1.200	0.700																			1580028830.0	8.56	15.85
26/01/2020 08:53:51	26012020	260120	085351	176.850	12.530508	-57.245003	176.700	-0.440	0.280	0.600	176.850	-1.100	1.000																			1580028831.0	8.79	16.28
26/01/2020 08:53:52	26012020	260120	085352	176.720	12.530465	-57.245003	176.540	-0.220	0.060	1.080	176.720	-1.300	1.500																			1580028832.0	9.24	17.11
26/01/2020 08:53:53	26012020	260120	085353	176.430	12.530422	-57.245005	176.120	-0.010	-0.130	1.660	176.330	-1.500	2.000																			1580028833.0	9.43	17.46
26/01/2020 08:53:54	26012020	260120	085354	175.890	12.530378	-57.245008	175.590	0.020	-0.050	2.140	175.790	-1.500	2.500																			1580028834.0	9.24	17.11
26/01/2020 08:53:55	26012020	260120	085355	175.440	12.530337	-57.245012	175.210	-0.090	0.220	2.200	175.380	-1.200	2.600																			1580028835.0	8.85	16.39
26/01/2020 08:53:56	26012020	260120	085356	175.190	12.530297	-57.245013	175.050	-0.180	0.360	1.890	175.190	-1.000	2.300																			1580028836.0	8.53	15.80
26/01/2020 08:53:57	26012020	260120	085357	175.190	12.530257	-57.245015	175.070	-0.090	0.090	1.400	175.190	-1.300	1.900																			1580028837.0	8.63	15.98
26/01/2020 08:53:58	26012020	260120	085358	175.260	12.530215	-57.245013	175.150	0.170	-0.480	0.840	175.280	-1.800	1.300																			1580028838.0	8.99	16.65
26/01/2020 08:53:59	26012020	260120	085359	175.430	12.530173	-57.245012	175.310	0.430	-0.870	0.280	175.430	-2.300	0.800																			1580028839.0	9.19	17.02
26/01/2020 08:54:00	26012020	260120	085400	175.660	12.530132	-57.245010	175.660	0.450	-0.710	-0.110	175.740	-2.100	0.300	1013.70	25.60	25.70	19.70	19.80	0.00	69.00	69.00	431.00	25.40	309.00	9.80	99.00	7.70	15	3188.00	27.40	27.40	1580028840.0	8.92	16.52
26/01/2020 08:54:01	26012020	260120	085401	176.090	12.530092	-57.245008	176.060	0.190	-0.270	-0.080	176.170	-1.700	0.300																			1580028841.0	8.36	15.48
26/01/2020 08:54:02	26012020	260120	085402	176.360	12.530053	-57.245008	176.210	-0.060	-0.100	0.340	176.360	-1.500	0.700																			1580028842.0	8.29	15.35
26/01/2020 08:54:03	26012020	260120	085403	176.330	12.530013	-57.245010	176.150	-0.090	-0.240	0.900	176.310	-1.600	1.300																			1580028843.0	8.81	16.32
26/01/2020 08:54:04	26012020	260120	085404	176.210	12.529970	-57.245012	176.010	0.020	-0.300	1.370	176.180	-1.700	1.800																			1580028844.0	9.13	16.91
26/01/2020 08:54:05	26012020	260120	085405	176.000	12.529928	-57.245012	175.750	0.080	-0.230	1.730	175.940	-1.600	2.100																			1580028845.0	8.97	16.61
26/01/2020 08:54:06	26012020	260120	085406	175.640	12.529887	-57.245013	175.350	0.010	-0.170	1.960	175.560	-1.600	2.400																			1580028846.0	8.90	16.48
26/01/2020 08:54:07	26012020	260120	085407	175.230	12.529845	-57.245013	174.970	-0.180	-0.080	2.090	175.160	-1.500	2.500																			1580028847.0	8.96	16.59
26/01/2020 08:54:08	26012020	260120	085408	174.910	12.529805	-57.245017	174.690	-0.320	0.060	2.090	174.860	-1.400	2.500																			1580028848.0	8.88	16.45
26/01/2020 08:54:09	26012020	260120	085409	174.730	12.529763	-57.245018	174.570	-0.260	0.130	1.800	174.720	-1.300	2.300																			1580028849.0	8.78	16.26
26/01/2020 08:54:10	26012020	260120	085410	174.760	12.529723	-57.245018	174.690	-0.010	0.060	1.200	174.800	-1.300	1.700																			1580028850.0	8.79	16.28
26/01/2020 08:54:11	26012020	260120	085411	175.010	12.529682	-57.245015	174.960	0.200	-0.130	0.610	175.070	-1.500	1.100																			1580028851.0	8.83	16.35
26/01/2020 08:54:12	26012020	260120	085412	175.300	12.529642	-57.245013	175.200	0.210	-0.350	0.380	175.340	-1.700	0.800																			1580028852.0	8.80	16.30
26/01/2020 08:54:13	26012020	260120	085413	175.420	12.529600	-57.245013	175.260	0.100	-0.530	0.570	175.430	-1.900	1.000																			1580028853.0	8.82	16.33
26/01/2020 08:54:14	26012020	260120	085414	175.400	12.529558	-57.245015	175.240	-0.020	-0.510	0.890	175.390	-1.900	1.300																			1580028854.0	8.81	16.32
26/01/2020 08:54:15	26012020	260120	085415	175.390	12.529518	-57.245017	175.280	-0.050	-0.340	1.080	175.400	-1.800	1.500																			1580028855.0	8.69	16.09
26/01/2020 08:54:16	26012020	260120	085416	175.520	12.529478	-57.245017	175.440	0.030	-0.120	0.980	175.550	-1.500	1.400																			1580028856.0	8.59	15.91
26/01/2020 08:54:17	26012020	260120	085417	175.670	12.529438	-57.245017	175.560	0.200	-0.100	0.780	175.690	-1.500	1.200																			1580028857.0	8.60	15.93
26/01/2020 08:54:18	26012020	260120	085418	175.730	12.529397	-57.245013	175.580	0.280	-0.280	0.680	175.730	-1.700	1.100																			1580028858.0	8.91	16.50
26/01/2020 08:54:19	26012020	260120	085419	175.700	12.529355	-57.245012	175.510	0.140	-0.390	0.920	175.680	-1.800	1.300																			1580028859.0	9.06	16.78
26/01/2020 08:54:20	26012020	260120	085420	175.540	12.529313	-57.245012	175.300	-0.160	-0.340	1.400	175.490	-1.800	1.800																			1580028860.0	8.94	16.56
26/01/2020 08:54:21	26012020	260120	085421	175.200	12.529272	-57.245015	174.920	-0.420	-0.190	1.890	175.120	-1.600	2.300																			1580028861.0	8.89	16.46
26/01/2020 08:54:22	26012020	260120	085422	174.870	12.529232	-57.245018	174.670	-0.480	0.000	2.050	174.830	-1.400	2.500																			1580028862.0	8.90	16.48
26/01/2020 08:54:23	26012020	260120	085423	174.770	12.529190	-57.245020	174.650	-0.320	0.190	1.810	174.780	-1.200	2.300																			1580028863.0	8.79	16.28
26/01/2020 08:54:24	26012020	260120	085424	174.830	12.529150	-57.245022	174.720	-0.020	0.190	1.300	174.850	-1.200	1.800																			1580028864.0	8.73	16.17
26/01/2020 08:54:25	26012020	260120	085425	174.940	12.529108	-57.245018	174.850	0.260	0.010	0.680	174.970	-1.400	1.100																			1580028865.0	8.84	16.37
26/01/2020 08:54:26	26012020	260120	085426	175.110	12.529068	-57.245017	175.000	0.380	-0.140	0.350	175.130	-1.500	0.800																			1580028866.0	8.83	16.35
26/01/2020 08:54:27	26012020	260120	085427	175.180	12.529028	-57.245013	175.050	0.310	-0.200	0.310	175.190	-1.600	0.700																			1580028867.0	8.66	16.04
26/01/2020 08:54:28	26012020	260120	085428	175.230	12.528988	-57.245012	175.100	0.100	-0.270	0.420	175.240	-1.700	0.800																			1580028868.0	8.55	15.83
26/01/2020 08:54:29	26012020	260120	085429	175.220	12.528948	-57.245013	175.060	-0.070	-0.510	0.860	175.200	-1.900	1.300																			1580028869.0	8.67	16.06
26/01/2020 08:54:30	26012020	260120	085430	175.150	12.528907	-57.245015	175.020	-0.090	-0.680	1.220	175.150	-2.100	1.600																			1580028870.0	8.98	16.63
26/01/2020 08:54:31	26012020	260120	085431	175.180	12.528865	-57.245017	175.080	-0.030	-0.570	1.270	175.190	-2.000	1.700																			1580028871.0	8.87	16.43
26/01/2020 08:54:32	26012020	260120	085432	175.210	12.528825	-57.245018	175.040	0.040	-0.390	1.220	175.190	-1.800	1.700																			1580028872.0	8.64	16.00
26/01/2020 08:54:33	26012020	260120	085433	175.060	12.528783	-57.245017	174.860	0.080	-0.350	1.200	175.020	-1.800	1.600																			1580028873.0	8.77	16.24
26/01/2020 08:54:34	26012020	260120	085434	174.870	12.528742	-57.245017	174.690	0.030	-0.260	1.160	174.840	-1.700	1.600																			1580028874.0	9.00	16.67
26/01/2020 08:54:35	26012020	260120	085435	174.760	12.528700	-57.245015	174.610	-0.110	-0.030	1.090	174.750	-1.400	1.500																			1580028875.0	8.89	16.46
26/01/2020 08:54:36	26012020	260120	085436	174.680	12.528660	-57.245013	174.510	-0.260	0.100	1.090	174.660	-1.300	1.500																			1580028876.0	8.76	16.22
26/01/2020 08:54:37	26012020	260120	085437	174.560	12.528618	-57.245013	174.390	-0.350	0.070	1.200	174.540	-1.300	1.600																			1580028877.0	8.94	16.56
26/01/2020 08:54:38	26012020	260120	085438	174.450	12.528577	-57.245015	174.300	-0.350	0.070	1.420	174.430	-1.300	1.800																			1580028878.0	9.04	16.74
26/01/2020 08:54:39	26012020	260120	085439	174.440	12.528535	-57.245017	174.350	-0.240	0.220	1.490	174.450	-1.200	1.900																			1580028879.0	8.90	16.48
26/01/2020 08:54:40	26012020	260120	085440	174.550	12.528495	-57.245018	174.460	0.010	0.330	1.320	174.570	-1.100	1.800																			1580028880.0	8.59	15.91
26/01/2020 08:54:41	26012020	260120	085441	174.670	12.528455	-57.245018	174.580	0.340	0.190	0.950	174.690	-1.200	1.400																			1580028881.0	8.55	15.83
26/01/2020 08:54:42	26012020	260120	085442	174.860	12.528415	-57.245013	174.810	0.540	-0.100	0.550	174.910	-1.500	1.000																			1580028882.0	8.68	16.08
26/01/2020 08:54:43	26012020	260120	085443	175.070	12.528375	-57.245010	174.960	0.490	-0.520	0.470	175.080	-1.900	0.900																			1580028883.0	8.66	16.04
26/01/2020 08:54:44	26012020	260120	085444	175.040	12.528333	-57.245008	174.830	0.310	-1.030	0.800	175.000	-2.400	1.200																			1580028884.0	8.81	16.32
26/01/2020 08:54:45	26012020	260120	085445	174.770	12.528292	-57.245010	174.540	0.130	-1.310	1.280	174.710	-2.700	1.700																			1580028885.0	9.08	16.82
26/01/2020 08:54:46	26012020	260120	085446	174.520	12.528250	-57.245012	174.370	-0.050	-1.040	1.570	174.490	-2.500	2.000																			1580028886.0	8.98	16.63
26/01/2020 08:54:47	26012020	260120	085447	174.480	12.528210	-57.245013	174.380	-0.240	-0.410	1.520	174.490	-1.900	2.000																			1580028887.0	8.60	15.93
26/01/2020 08:54:48	26012020	260120	085448	174.550	12.528170	-57.245013	174.460	-0.350	0.110	1.280	174.560	-1.300	1.700																			1580028888.0	8.47	15.69
26/01/2020 08:54:49	26012020	260120	085449	174.630	12.528130	-57.245012	174.560	-0.340	0.310	0.950	174.660	-1.100	1.400																			1580028889.0	8.77	16.24
26/01/2020 08:54:50	26012020	260120	085450	174.780	12.528088	-57.245010	174.720	-0.250	0.350	0.670	174.820	-1.100	1.100																			1580028890.0	9.07	16.80
26/01/2020 08:54:51	26012020	260120	085451	174.930	12.528047	-57.245007	174.830	-0.170	0.330	0.580	174.940	-1.100	1.000																			1580028891.0	9.05	16.76
26/01/2020 08:54:52	26012020	260120	085452	174.950	12.528005	-57.245005	174.820	-0.130	0.270	0.730	174.950	-1.100	1.100																			1580028892.0	8.96	16.59
26/01/2020 08:54:53	26012020	260120	085453	174.890	12.527963	-57.245005	174.730	-0.110	0.140	1.100	174.870	-1.300	1.500																			1580028893.0	8.86	16.41
26/01/2020 08:54:54	26012020	260120	085454	174.770	12.527922	-57.245007	174.620	-0.030	-0.050	1.460	174.750	-1.400	1.900																			1580028894.0	8.83	16.35
26/01/2020 08:54:55	26012020	260120	085455	174.660	12.527882	-57.245008	174.540	0.140	-0.260	1.470	174.650	-1.600	1.900																			1580028895.0	8.82	16.33
26/01/2020 08:54:56	26012020	260120	085456	174.650	12.527840	-57.245008	174.570	0.310	-0.380	1.210	174.660	-1.800	1.700																			1580028896.0	8.72	16.15
26/01/2020 08:54:57	26012020	260120	085457	174.770	12.527800	-57.245007	174.710	0.390	-0.420	0.860	174.800	-1.800	1.300																			1580028897.0	8.55	15.83
26/01/2020 08:54:58	26012020	260120	085458	174.940	12.527762	-57.245005	174.850	0.360	-0.550	0.520	174.960	-1.900	1.000																			1580028898.0	8.51	15.76
26/01/2020 08:54:59	26012020	260120	085459	175.020	12.527720	-57.245002	174.870	0.260	-0.770	0.430	175.010	-2.200	0.900																			1580028899.0	8.73	16.17
26/01/2020 08:55:00	26012020	260120	085500	174.960	12.527678	-57.245000	174.810	0.100	-0.860	0.660	174.950	-2.300	1.100	1013.70	25.60	25.60	19.50	19.60	0.00	69.00	69.00	430.00	25.40	306.00	9.60	93.00	7.80	15	3165.00	27.40	27.40	1580028900.0	8.97	16.61
26/01/2020 08:55:01	26012020	260120	085501	174.870	12.527637	-57.245002	174.710	-0.130	-0.640	1.000	174.850	-2.100	1.400																			1580028901.0	8.96	16.59
26/01/2020 08:55:02	26012020	260120	085502	174.760	12.527597	-57.245002	174.630	-0.350	-0.130	1.220	174.740	-1.600	1.600																			1580028902.0	8.80	16.30
26/01/2020 08:55:03	26012020	260120	085503	174.780	12.527557	-57.245003	174.710	-0.490	0.380	1.230	174.800	-1.000	1.700																			1580028903.0	8.62	15.96
26/01/2020 08:55:04	26012020	260120	085504	174.940	12.527517	-57.245003	174.890	-0.470	0.550	1.070	174.970	-0.800	1.500																			1580028904.0	8.69	16.09
26/01/2020 08:55:05	26012020	260120	085505	175.150	12.527475	-57.245002	175.100	-0.260	0.370	0.830	175.180	-1.000	1.300																			1580028905.0	8.98	16.63
26/01/2020 08:55:06	26012020	260120	085506	175.320	12.527432	-57.245000	175.220	0.010	0.050	0.690	175.330	-1.300	1.100																			1580028906.0	9.09	16.83
26/01/2020 08:55:07	26012020	260120	085507	175.300	12.527390	-57.244998	175.140	0.220	-0.240	0.750	175.280	-1.600	1.200																			1580028907.0	9.05	16.76
26/01/2020 08:55:08	26012020	260120	085508	175.130	12.527348	-57.244998	174.940	0.300	-0.370	0.890	175.090	-1.800	1.300																			1580028908.0	8.89	16.46
26/01/2020 08:55:09	26012020	260120	085509	174.950	12.527308	-57.244997	174.800	0.260	-0.330	1.040	174.930	-1.700	1.500																			1580028909.0	8.66	16.04
26/01/2020 08:55:10	26012020	260120	085510	174.890	12.527268	-57.244997	174.790	0.190	-0.290	1.040	174.890	-1.700	1.500																			1580028910.0	8.53	15.80
26/01/2020 08:55:11	26012020	260120	085511	174.920	12.527228	-57.244997	174.820	0.110	-0.400	1.040	174.930	-1.800	1.500																			1580028911.0	8.64	16.00
26/01/2020 08:55:12	26012020	260120	085512	174.950	12.527187	-57.244997	174.860	0.020	-0.600	1.190	174.960	-2.000	1.600																			1580028912.0	8.89	16.46
26/01/2020 08:55:13	26012020	260120	085513	174.960	12.527145	-57.244998	174.840	-0.050	-0.650	1.350	174.950	-2.000	1.800																			1580028913.0	9.03	16.72
26/01/2020 08:55:14	26012020	260120	085514	174.930	12.527103	-57.244998	174.810	-0.080	-0.420	1.320	174.920	-1.800	1.800																			1580028914.0	8.94	16.56
26/01/2020 08:55:15	26012020	260120	085515	174.960	12.527063	-57.244998	174.890	-0.140	0.000	1.090	174.990	-1.400	1.500																			1580028915.0	8.70	16.11
26/01/2020 08:55:16	26012020	260120	085516	175.130	12.527023	-57.244997	175.100	-0.240	0.350	0.820	175.170	-1.100	1.300																			1580028916.0	8.56	15.85
26/01/2020 08:55:17	26012020	260120	085517	175.350	12.526983	-57.244995	175.290	-0.280	0.350	0.630	175.390	-1.000	1.100																			1580028917.0	8.63	15.98
26/01/2020 08:55:18	26012020	260120	085518	175.430	12.526942	-57.244993	175.280	-0.140	-0.050	0.650	175.420	-1.400	1.100																			1580028918.0	8.99	16.65
26/01/2020 08:55:19	26012020	260120	085519	175.330	12.526898	-57.244993	175.190	0.110	-0.410	0.800	175.320	-1.800	1.200																			1580028919.0	9.31	17.24
26/01/2020 08:55:20	26012020	260120	085520	175.290	12.526857	-57.244992	175.190	0.230	-0.310	0.900	175.300	-1.700	1.300																			1580028920.0	9.04	16.74
26/01/2020 08:55:21	26012020	260120	085521	175.380	12.526817	-57.244992	175.290	0.170	-0.010	0.870	175.400	-1.400	1.300																			1580028921.0	8.46	15.67
26/01/2020 08:55:22	26012020	260120	085522	175.470	12.526778	-57.244992	175.350	0.090	-0.010	0.760	175.470	-1.400	1.200																			1580028922.0	8.36	15.48
26/01/2020 08:55:23	26012020	260120	085523	175.440	12.526737	-57.244990	175.280	0.130	-0.390	0.800	175.420	-1.800	1.200																			1580028923.0	8.78	16.26
26/01/2020 08:55:24	26012020	260120	085524	175.350	12.526693	-57.244990	175.230	0.210	-0.770	0.980	175.350	-2.100	1.400																			1580028924.0	9.21	17.06
26/01/2020 08:55:25	26012020	260120	085525	175.350	12.526652	-57.244990	175.240	0.140	-0.740	1.120	175.350	-2.200	1.500																			1580028925.0	9.14	16.93
26/01/2020 08:55:26	26012020	260120	085526	175.380	12.526610	-57.244990	175.290	-0.080	-0.380	1.160	175.390	-1.800	1.600																			1580028926.0	8.77	16.24
26/01/2020 08:55:27	26012020	260120	085527	175.450	12.526572	-57.244990	175.370	-0.300	0.020	1.100	175.470	-1.400	1.500																			1580028927.0	8.57	15.87
26/01/2020 08:55:28	26012020	260120	085528	175.550	12.526530	-57.244990	175.460	-0.330	0.220	0.980	175.560	-1.200	1.400																			1580028928.0	8.66	16.04
26/01/2020 08:55:29	26012020	260120	085529	175.650	12.526490	-57.244990	175.550	-0.190	0.210	0.760	175.660	-1.200	1.200																			1580028929.0	8.87	16.43
26/01/2020 08:55:30	26012020	260120	085530	175.680	12.526447	-57.244988	175.530	-0.010	0.040	0.570	175.670	-1.300	1.000																			1580028930.0	9.03	16.72
26/01/2020 08:55:31	26012020	260120	085531	175.570	12.526405	-57.244987	175.430	0.080	-0.110	0.560	175.560	-1.500	1.000																			1580028931.0	9.09	16.83
26/01/2020 08:55:32	26012020	260120	085532	175.550	12.526363	-57.244987	175.480	-0.000	-0.070	0.640	175.570	-1.500	1.100																			1580028932.0	8.90	16.48
26/01/2020 08:55:33	26012020	260120	085533	175.710	12.526323	-57.244988	175.670	-0.100	-0.040	0.780	175.750	-1.400	1.200																			1580028933.0	8.61	15.95
26/01/2020 08:55:34	26012020	260120	085534	175.860	12.526283	-57.244990	175.750	-0.020	-0.330	1.010	175.880	-1.700	1.400																			1580028934.0	8.70	16.11
26/01/2020 08:55:35	26012020	260120	085535	175.850	12.526242	-57.244992	175.710	0.200	-0.720	1.210	175.840	-2.100	1.600																			1580028935.0	9.10	16.85
26/01/2020 08:55:36	26012020	260120	085536	175.830	12.526198	-57.244992	175.720	0.300	-0.770	1.270	175.840	-2.200	1.700																			1580028936.0	9.12	16.89
26/01/2020 08:55:37	26012020	260120	085537	175.870	12.526158	-57.244992	175.740	0.180	-0.460	1.170	175.880	-1.900	1.600																			1580028937.0	8.75	16.21
26/01/2020 08:55:38	26012020	260120	085538	175.860	12.526118	-57.244990	175.720	-0.050	-0.170	1.030	175.860	-1.600	1.500																			1580028938.0	8.59	15.91
26/01/2020 08:55:39	26012020	260120	085539	175.890	12.526077	-57.244990	175.790	-0.190	-0.010	0.890	175.910	-1.400	1.300																			1580028939.0	8.78	16.26
26/01/2020 08:55:40	26012020	260120	085540	176.060	12.526035	-57.244988	175.990	-0.140	0.150	0.650	176.100	-1.300	1.100																			1580028940.0	8.94	16.56
26/01/2020 08:55:41	26012020	260120	085541	176.230	12.525995	-57.244988	176.110	0.030	0.230	0.490	176.250	-1.200	0.900																			1580028941.0	8.84	16.37
26/01/2020 08:55:42	26012020	260120	085542	176.270	12.525953	-57.244987	176.120	0.160	0.100	0.570	176.270	-1.300	1.000																			1580028942.0	8.91	16.50
26/01/2020 08:55:43	26012020	260120	085543	176.280	12.525912	-57.244987	176.140	0.130	-0.090	0.810	176.280	-1.500	1.200																			1580028943.0	9.00	16.67
26/01/2020 08:55:44	26012020	260120	085544	176.250	12.525870	-57.244988	176.090	-0.030	-0.250	1.210	176.240	-1.600	1.600																			1580028944.0	8.95	16.58
26/01/2020 08:55:45	26012020	260120	085545	176.100	12.525828	-57.244992	175.890	-0.140	-0.420	1.570	176.060	-1.800	2.000																			1580028945.0	8.92	16.52
26/01/2020 08:55:46	26012020	260120	085546	175.870	12.525787	-57.244995	175.680	-0.080	-0.520	1.650	175.830	-1.900	2.100																			1580028946.0	8.97	16.61
26/01/2020 08:55:47	26012020	260120	085547	175.750	12.525745	-57.244995	175.640	0.050	-0.420	1.400	175.760	-1.800	1.900																			1580028947.0	8.91	16.50
26/01/2020 08:55:48	26012020	260120	085548	175.880	12.525705	-57.244995	175.810	0.100	-0.220	0.950	175.930	-1.600	1.400																			1580028948.0	8.71	16.13
26/01/2020 08:55:49	26012020	260120	085549	176.070	12.525665	-57.244993	175.960	0.050	-0.170	0.560	176.100	-1.600	1.000																			1580028949.0	8.67	16.06
26/01/2020 08:55:50	26012020	260120	085550	176.190	12.525623	-57.244992	176.040	-0.040	-0.270	0.420	176.200	-1.700	0.900																			1580028950.0	8.90	16.48
26/01/2020 08:55:51	26012020	260120	085551	176.170	12.525582	-57.244992	175.980	-0.120	-0.340	0.590	176.160	-1.700	1.000																			1580028951.0	9.04	16.74
26/01/2020 08:55:52	26012020	260120	085552	176.070	12.525540	-57.244992	175.880	-0.120	-0.320	0.810	176.060	-1.700	1.200																			1580028952.0	9.02	16.71
26/01/2020 08:55:53	26012020	260120	085553	176.000	12.525497	-57.244993	175.840	-0.060	-0.190	0.960	176.000	-1.600	1.400																			1580028953.0	9.01	16.69
26/01/2020 08:55:54	26012020	260120	085554	176.050	12.525457	-57.244993	175.950	-0.040	0.070	0.940	176.080	-1.300	1.400																			1580028954.0	8.85	16.39
26/01/2020 08:55:55	26012020	260120	085555	176.170	12.525417	-57.244993	176.020	-0.050	0.190	0.930	176.180	-1.200	1.400																			1580028955.0	8.66	16.04
26/01/2020 08:55:56	26012020	260120	085556	176.080	12.525375	-57.244993	175.850	0.050	0.000	0.980	176.040	-1.400	1.400																			1580028956.0	8.88	16.45
26/01/2020 08:55:57	26012020	260120	085557	175.890	12.525332	-57.244995	175.690	0.190	-0.170	1.030	175.850	-1.600	1.500																			1580028957.0	9.12	16.89
26/01/2020 08:55:58	26012020	260120	085558	175.780	12.525290	-57.244995	175.630	0.250	-0.150	1.030	175.770	-1.600	1.500																			1580028958.0	8.97	16.61
26/01/2020 08:55:59	26012020	260120	085559	175.810	12.525250	-57.244995	175.690	0.170	-0.070	0.910	175.830	-1.500	1.400																			1580028959.0	8.69	16.09
26/01/2020 08:56:00	26012020	260120	085600	175.830	12.525210	-57.244995	175.650	0.070	-0.200	0.870	175.820	-1.600	1.300	1013.70	25.60	25.70	19.60	19.70	0.00	69.00	69.00	429.00	25.40	304.00	9.50	91.00	8.00	15	3228.00	27.40	27.40	1580028960.0	8.65	16.02
26/01/2020 08:56:01	26012020	260120	085601	175.690	12.525168	-57.244995	175.470	0.060	-0.500	0.960	175.650	-1.900	1.400																			1580028961.0	8.95	16.58
26/01/2020 08:56:02	26012020	260120	085602	175.520	12.525127	-57.244997	175.360	0.100	-0.610	1.000	175.500	-2.000	1.400																			1580028962.0	9.14	16.93
26/01/2020 08:56:03	26012020	260120	085603	175.530	12.525085	-57.244997	175.430	0.040	-0.390	0.950	175.550	-1.800	1.400																			1580028963.0	8.85	16.39
26/01/2020 08:56:04	26012020	260120	085604	175.620	12.525045	-57.244997	175.510	-0.130	-0.210	0.910	175.630	-1.600	1.300																			1580028964.0	8.61	15.95
26/01/2020 08:56:05	26012020	260120	085605	175.700	12.525003	-57.244998	175.580	-0.290	-0.260	0.860	175.710	-1.600	1.300																			1580028965.0	8.81	16.32
26/01/2020 08:56:06	26012020	260120	085606	175.720	12.524962	-57.244998	175.580	-0.320	-0.380	0.900	175.720	-1.800	1.300																			1580028966.0	9.07	16.80
26/01/2020 08:56:07	26012020	260120	085607	175.710	12.524918	-57.244998	175.590	-0.210	-0.380	0.970	175.720	-1.800	1.400																			1580028967.0	9.19	17.02
26/01/2020 08:56:08	26012020	260120	085608	175.740	12.524877	-57.245000	175.610	-0.060	-0.170	0.990	175.740	-1.600	1.400																			1580028968.0	9.03	16.72
26/01/2020 08:56:09	26012020	260120	085609	175.710	12.524837	-57.244998	175.550	0.030	0.140	1.050	175.690	-1.300	1.500																			1580028969.0	8.81	16.32
26/01/2020 08:56:10	26012020	260120	085610	175.650	12.524795	-57.244998	175.520	0.020	0.320	1.110	175.650	-1.100	1.500																			1580028970.0	8.75	16.21
26/01/2020 08:56:11	26012020	260120	085611	175.660	12.524753	-57.244998	175.540	-0.010	0.280	1.160	175.670	-1.100	1.600																			1580028971.0	8.84	16.37
26/01/2020 08:56:12	26012020	260120	085612	175.670	12.524712	-57.245000	175.530	0.080	0.090	1.250	175.670	-1.300	1.700																			1580028972.0	8.97	16.61
26/01/2020 08:56:13	26012020	260120	085613	175.660	12.524670	-57.245000	175.510	0.260	-0.100	1.270	175.650	-1.500	1.700																			1580028973.0	8.99	16.65
26/01/2020 08:56:14	26012020	260120	085614	175.620	12.524630	-57.245000	175.470	0.380	-0.240	1.150	175.610	-1.600	1.600																			1580028974.0	8.87	16.43
26/01/2020 08:56:15	26012020	260120	085615	175.580	12.524588	-57.245000	175.420	0.320	-0.400	0.940	175.570	-1.800	1.400																			1580028975.0	8.72	16.15
26/01/2020 08:56:16	26012020	260120	085616	175.510	12.524548	-57.244998	175.360	0.160	-0.680	0.780	175.500	-2.000	1.200																			1580028976.0	8.79	16.28
26/01/2020 08:56:17	26012020	260120	085617	175.520	12.524507	-57.244998	175.420	0.000	-0.880	0.670	175.540	-2.300	1.100																			1580028977.0	9.01	16.69
26/01/2020 08:56:18	26012020	260120	085618	175.600	12.524465	-57.244998	175.490	-0.130	-0.880	0.750	175.610	-2.300	1.200																			1580028978.0	9.01	16.69
26/01/2020 08:56:19	26012020	260120	085619	175.600	12.524422	-57.244998	175.480	-0.230	-0.700	0.930	175.600	-2.100	1.300																			1580028979.0	8.99	16.65
26/01/2020 08:56:20	26012020	260120	085620	175.600	12.524380	-57.245000	175.520	-0.320	-0.310	1.100	175.610	-1.700	1.500																			1580028980.0	9.01	16.69
26/01/2020 08:56:21	26012020	260120	085621	175.730	12.524338	-57.245000	175.700	-0.420	0.200	1.210	175.770	-1.200	1.600																			1580028981.0	8.90	16.48
26/01/2020 08:56:22	26012020	260120	085622	175.960	12.524298	-57.245002	175.930	-0.420	0.590	1.240	176.010	-0.800	1.700																			1580028982.0	8.79	16.28
26/01/2020 08:56:23	26012020	260120	085623	176.100	12.524257	-57.245002	175.990	-0.240	0.660	1.260	176.110	-0.700	1.700																			1580028983.0	8.90	16.48
26/01/2020 08:56:24	26012020	260120	085624	176.060	12.524215	-57.245002	175.890	0.020	0.530	1.270	176.030	-0.900	1.700																			1580028984.0	9.07	16.80
26/01/2020 08:56:25	26012020	260120	085625	175.930	12.524173	-57.245002	175.740	0.250	0.280	1.250	175.890	-1.100	1.700																			1580028985.0	8.99	16.65
26/01/2020 08:56:26	26012020	260120	085626	175.720	12.524132	-57.245000	175.480	0.410	-0.120	1.280	175.660	-1.500	1.700																			1580028986.0	8.94	16.56
26/01/2020 08:56:27	26012020	260120	085627	175.380	12.524090	-57.245000	175.120	0.510	-0.540	1.340	175.300	-1.900	1.800																			1580028987.0	8.99	16.65
26/01/2020 08:56:28	26012020	260120	085628	175.050	12.524048	-57.245000	174.850	0.520	-0.760	1.230	175.010	-2.100	1.700																			1580028988.0	8.94	16.56
26/01/2020 08:56:29	26012020	260120	085629	174.910	12.524007	-57.245000	174.790	0.380	-0.730	0.940	174.910	-2.100	1.400																			1580028989.0	8.71	16.13
26/01/2020 08:56:30	26012020	260120	085630	175.000	12.523968	-57.244998	174.920	0.110	-0.660	0.620	175.020	-2.100	1.100																			1580028990.0	8.53	15.80
26/01/2020 08:56:31	26012020	260120	085631	175.110	12.523927	-57.244998	175.000	-0.150	-0.820	0.520	175.120	-2.200	1.000																			1580028991.0	8.72	16.15
26/01/2020 08:56:32	26012020	260120	085632	175.140	12.523883	-57.244998	175.030	-0.300	-1.050	0.640	175.150	-2.400	1.100																			1580028992.0	9.26	17.15
26/01/2020 08:56:33	26012020	260120	085633	175.220	12.523840	-57.244998	175.160	-0.420	-0.820	0.790	175.250	-2.300	1.200																			1580028993.0	9.46	17.52
26/01/2020 08:56:34	26012020	260120	085634	175.430	12.523798	-57.244998	175.410	-0.580	-0.070	0.830	175.480	-1.500	1.300																			1580028994.0	9.03	16.72
26/01/2020 08:56:35	26012020	260120	085635	175.710	12.523758	-57.244998	175.680	-0.690	0.690	0.720	175.760	-0.700	1.200																			1580028995.0	8.62	15.96
26/01/2020 08:56:36	26012020	260120	085636	175.910	12.523718	-57.244998	175.790	-0.600	0.950	0.650	175.920	-0.400	1.100																			1580028996.0	8.71	16.13
26/01/2020 08:56:37	26012020	260120	085637	175.890	12.523675	-57.244997	175.720	-0.280	0.700	0.790	175.870	-0.700	1.200																			1580028997.0	9.16	16.96
26/01/2020 08:56:38	26012020	260120	085638	175.710	12.523632	-57.244995	175.490	0.130	0.330	1.060	175.660	-1.000	1.500																			1580028998.0	9.37	17.35
26/01/2020 08:56:39	26012020	260120	085639	175.390	12.523588	-57.244995	175.140	0.410	0.060	1.380	175.310	-1.300	1.800																			1580028999.0	9.18	17.00
26/01/2020 08:56:40	26012020	260120	085640	174.990	12.523548	-57.244997	174.750	0.510	-0.090	1.690	174.910	-1.500	2.100																			1580029000.0	8.86	16.41
26/01/2020 08:56:41	26012020	260120	085641	174.640	12.523507	-57.244998	174.440	0.500	-0.210	1.820	174.580	-1.600	2.300																			1580029001.0	8.65	16.02
26/01/2020 08:56:42	26012020	260120	085642	174.440	12.523468	-57.245000	174.290	0.510	-0.410	1.590	174.410	-1.800	2.000																			1580029002.0	8.55	15.83
26/01/2020 08:56:43	26012020	260120	085643	174.390	12.523427	-57.245000	174.320	0.550	-0.770	1.100	174.410	-2.100	1.600																			1580029003.0	8.68	16.08
26/01/2020 08:56:44	26012020	260120	085644	174.590	12.523387	-57.244997	174.610	0.490	-1.020	0.500	174.660	-2.400	1.000																			1580029004.0	8.89	16.46
26/01/2020 08:56:45	26012020	260120	085645	175.010	12.523345	-57.244995	175.030	0.240	-1.040	0.080	175.080	-2.400	0.500																			1580029005.0	8.82	16.33
26/01/2020 08:56:46	26012020	260120	085646	175.410	12.523303	-57.244992	175.390	-0.130	-0.950	-0.010	175.470	-2.400	0.400																			1580029006.0	8.81	16.32
26/01/2020 08:56:47	26012020	260120	085647	175.690	12.523262	-57.244990	175.620	-0.450	-0.780	0.290	175.730	-2.200	0.700																			1580029007.0	8.99	16.65
26/01/2020 08:56:48	26012020	260120	085648	175.860	12.523220	-57.244992	175.800	-0.650	-0.390	0.700	175.890	-1.800	1.100																			1580029008.0	9.15	16.95
26/01/2020 08:56:49	26012020	260120	085649	176.020	12.523178	-57.244992	175.940	-0.760	0.200	1.070	176.050	-1.200	1.500																			1580029009.0	9.01	16.69
26/01/2020 08:56:50	26012020	260120	085650	176.040	12.523137	-57.244993	175.860	-0.720	0.520	1.460	176.000	-0.900	1.900																			1580029010.0	8.92	16.52
26/01/2020 08:56:51	26012020	260120	085651	175.820	12.523093	-57.244995	175.620	-0.510	0.480	1.750	175.770	-0.900	2.200																			1580029011.0	9.29	17.21
26/01/2020 08:56:52	26012020	260120	085652	175.590	12.523050	-57.244995	175.420	-0.190	0.470	1.780	175.560	-0.900	2.200																			1580029012.0	9.42	17.45
26/01/2020 08:56:53	26012020	260120	085653	175.490	12.523007	-57.244995	175.360	0.090	0.600	1.460	175.490	-0.800	1.900																			1580029013.0	9.05	16.76
26/01/2020 08:56:54	26012020	260120	085654	175.480	12.522967	-57.244993	175.320	0.260	0.600	1.020	175.470	-0.800	1.500																			1580029014.0	8.60	15.93
26/01/2020 08:56:55	26012020	260120	085655	175.390	12.522927	-57.244992	175.190	0.390	0.200	0.720	175.360	-1.200	1.200																			1580029015.0	8.60	15.93
26/01/2020 08:56:56	26012020	260120	085656	175.230	12.522885	-57.244990	175.040	0.550	-0.470	0.580	175.210	-1.800	1.000																			1580029016.0	8.95	16.58
26/01/2020 08:56:57	26012020	260120	085657	175.170	12.522843	-57.244990	175.060	0.640	-0.870	0.530	175.180	-2.300	1.000																			1580029017.0	9.04	16.74
26/01/2020 08:56:58	26012020	260120	085658	175.340	12.522803	-57.244992	175.300	0.570	-0.830	0.480	175.400	-2.200	0.900																			1580029018.0	8.64	16.00
26/01/2020 08:56:59	26012020	260120	085659	175.630	12.522765	-57.244992	175.590	0.410	-0.720	0.410	175.690	-2.100	0.800																			1580029019.0	8.32	15.41
26/01/2020 08:57:00	26012020	260120	085700	175.880	12.522725	-57.244990	175.800	0.230	-0.810	0.450	175.910	-2.200	0.900	1013.70	25.60	25.70	19.70	19.70	0.00	69.00	69.00	428.00	25.40	304.00	9.70	91.00	8.10	15	3237.00	27.40	27.40	1580029020.0	8.53	15.80
26/01/2020 08:57:01	26012020	260120	085701	176.020	12.522683	-57.244990	175.920	0.070	-0.960	0.630	176.040	-2.400	1.000																			1580029021.0	9.01	16.69
26/01/2020 08:57:02	26012020	260120	085702	176.070	12.522640	-57.244988	175.930	-0.100	-0.860	0.870	176.070	-2.300	1.300																			1580029022.0	9.20	17.04
26/01/2020 08:57:03	26012020	260120	085703	176.040	12.522598	-57.244988	175.890	-0.330	-0.450	1.170	176.020	-1.900	1.600																			1580029023.0	9.10	16.85
26/01/2020 08:57:04	26012020	260120	085704	175.990	12.522557	-57.244988	175.830	-0.590	0.110	1.490	175.970	-1.300	1.900																			1580029024.0	8.96	16.59
26/01/2020 08:57:05	26012020	260120	085705	175.870	12.522515	-57.244990	175.680	-0.740	0.550	1.770	175.840	-0.900	2.200																			1580029025.0	8.91	16.50
26/01/2020 08:57:06	26012020	260120	085706	175.670	12.522473	-57.244993	175.450	-0.660	0.620	1.850	175.620	-0.800	2.300																			1580029026.0	9.10	16.85
26/01/2020 08:57:07	26012020	260120	085707	175.440	12.522430	-57.244995	175.260	-0.370	0.460	1.670	175.410	-0.900	2.100																			1580029027.0	9.34	17.30
26/01/2020 08:57:08	26012020	260120	085708	175.360	12.522387	-57.244995	175.260	-0.060	0.340	1.210	175.380	-1.100	1.700																			1580029028.0	9.29	17.21
26/01/2020 08:57:09	26012020	260120	085709	175.530	12.522345	-57.244992	175.480	0.130	0.340	0.590	175.580	-1.100	1.100																			1580029029.0	8.86	16.41
26/01/2020 08:57:10	26012020	260120	085710	175.810	12.522305	-57.244990	175.740	0.230	0.200	0.130	175.850	-1.200	0.600																			1580029030.0	8.50	15.74
26/01/2020 08:57:11	26012020	260120	085711	176.000	12.522265	-57.244988	175.880	0.360	-0.310	0.000	176.020	-1.700	0.400																			1580029031.0	8.58	15.89
26/01/2020 08:57:12	26012020	260120	085712	176.040	12.522223	-57.244987	175.860	0.550	-1.010	0.210	176.030	-2.400	0.600																			1580029032.0	8.99	16.65
26/01/2020 08:57:13	26012020	260120	085713	175.950	12.522182	-57.244987	175.800	0.600	-1.330	0.610	175.940	-2.700	1.000																			1580029033.0	9.21	17.06
26/01/2020 08:57:14	26012020	260120	085714	175.980	12.522140	-57.244988	175.900	0.370	-0.930	0.950	176.000	-2.400	1.400																			1580029034.0	8.85	16.39
26/01/2020 08:57:15	26012020	260120	085715	176.150	12.522102	-57.244990	176.100	-0.010	-0.250	1.100	176.190	-1.700	1.500																			1580029035.0	8.32	15.41
26/01/2020 08:57:16	26012020	260120	085716	176.340	12.522063	-57.244992	176.260	-0.230	0.120	1.070	176.380	-1.300	1.500																			1580029036.0	8.33	15.43
26/01/2020 08:57:17	26012020	260120	085717	176.450	12.522022	-57.244992	176.340	-0.150	0.040	1.080	176.460	-1.400	1.500																			1580029037.0	8.87	16.43
26/01/2020 08:57:18	26012020	260120	085718	176.490	12.521978	-57.244992	176.360	0.080	-0.160	1.070	176.490	-1.500	1.500																			1580029038.0	9.32	17.26
26/01/2020 08:57:19	26012020	260120	085719	176.470	12.521935	-57.244992	176.310	0.200	-0.130	1.050	176.460	-1.500	1.500																			1580029039.0	9.26	17.15
26/01/2020 08:57:20	26012020	260120	085720	176.400	12.521893	-57.244990	176.190	0.100	-0.000	1.040	176.370	-1.400	1.500																			1580029040.0	8.93	16.54
26/01/2020 08:57:21	26012020	260120	085721	176.180	12.521852	-57.244990	175.910	-0.100	-0.040	1.190	176.110	-1.400	1.600																			1580029041.0	8.87	16.43
26/01/2020 08:57:22	26012020	260120	085722	175.890	12.521810	-57.244992	175.680	-0.290	-0.140	1.370	175.850	-1.500	1.800																			1580029042.0	9.08	16.82
26/01/2020 08:57:23	26012020	260120	085723	175.800	12.521768	-57.244993	175.680	-0.430	-0.050	1.440	175.820	-1.500	1.900																			1580029043.0	9.03	16.72
26/01/2020 08:57:24	26012020	260120	085724	175.920	12.521727	-57.244997	175.820	-0.420	0.060	1.360	175.950	-1.400	1.800																			1580029044.0	8.76	16.22
26/01/2020 08:57:25	26012020	260120	085725	176.070	12.521687	-57.244998	175.960	-0.190	-0.130	1.120	176.100	-1.500	1.600																			1580029045.0	8.76	16.22
26/01/2020 08:57:26	26012020	260120	085726	176.200	12.521645	-57.244998	176.100	0.140	-0.490	0.780	176.230	-1.900	1.200																			1580029046.0	9.09	16.83
26/01/2020 08:57:27	26012020	260120	085727	176.380	12.521602	-57.244997	176.300	0.310	-0.620	0.520	176.430	-2.000	1.000																			1580029047.0	9.16	16.96
26/01/2020 08:57:28	26012020	260120	085728	176.610	12.521560	-57.244997	176.510	0.190	-0.380	0.400	176.640	-1.800	0.800																			1580029048.0	8.83	16.35
26/01/2020 08:57:29	26012020	260120	085729	176.750	12.521522	-57.244995	176.600	-0.010	-0.110	0.490	176.760	-1.500	0.900																			1580029049.0	8.52	15.78
26/01/2020 08:57:30	26012020	260120	085730	176.730	12.521480	-57.244997	176.520	-0.030	-0.080	0.780	176.700	-1.500	1.200																			1580029050.0	8.68	16.08
26/01/2020 08:57:31	26012020	260120	085731	176.540	12.521438	-57.244998	176.310	0.150	-0.180	1.050	176.500	-1.600	1.500																			1580029051.0	9.02	16.71
26/01/2020 08:57:32	26012020	260120	085732	176.340	12.521397	-57.244998	176.140	0.310	-0.140	1.190	176.310	-1.600	1.600																			1580029052.0	9.12	16.89
26/01/2020 08:57:33	26012020	260120	085733	176.240	12.521355	-57.244998	176.070	0.260	0.040	1.190	176.230	-1.400	1.600																			1580029053.0	8.87	16.43
26/01/2020 08:57:34	26012020	260120	085734	176.170	12.521315	-57.244997	175.980	0.100	0.100	1.220	176.140	-1.300	1.600																			1580029054.0	8.70	16.11
26/01/2020 08:57:35	26012020	260120	085735	176.030	12.521273	-57.244998	175.840	-0.000	-0.070	1.310	176.000	-1.500	1.700																			1580029055.0	8.88	16.45
26/01/2020 08:57:36	26012020	260120	085736	175.930	12.521232	-57.245000	175.770	-0.000	-0.280	1.360	175.910	-1.700	1.800																			1580029056.0	9.08	16.82
26/01/2020 08:57:37	26012020	260120	085737	175.890	12.521190	-57.245002	175.750	0.000	-0.320	1.280	175.890	-1.700	1.700																			1580029057.0	8.99	16.65
26/01/2020 08:57:38	26012020	260120	085738	175.860	12.521148	-57.245002	175.690	-0.030	-0.330	1.060	175.850	-1.700	1.500																			1580029058.0	8.75	16.21
26/01/2020 08:57:39	26012020	260120	085739	175.740	12.521108	-57.245003	175.540	-0.040	-0.520	0.880	175.710	-1.900	1.300																			1580029059.0	8.84	16.37
26/01/2020 08:57:40	26012020	260120	085740	175.610	12.521065	-57.245003	175.450	-0.050	-0.690	0.810	175.600	-2.100	1.200																			1580029060.0	9.13	16.91
26/01/2020 08:57:41	26012020	260120	085741	175.610	12.521023	-57.245003	175.480	-0.150	-0.560	0.800	175.610	-2.000	1.200																			1580029061.0	9.10	16.85
26/01/2020 08:57:42	26012020	260120	085742	175.650	12.520982	-57.245003	175.520	-0.320	-0.230	0.850	175.660	-1.700	1.300																			1580029062.0	8.84	16.37
26/01/2020 08:57:43	26012020	260120	085743	175.720	12.520942	-57.245005	175.620	-0.380	0.060	0.910	175.740	-1.400	1.300																			1580029063.0	8.75	16.21
26/01/2020 08:57:44	26012020	260120	085744	175.840	12.520900	-57.245005	175.730	-0.240	0.180	0.960	175.850	-1.200	1.400																			1580029064.0	8.88	16.45
26/01/2020 08:57:45	26012020	260120	085745	175.910	12.520858	-57.245005	175.800	-0.020	0.160	1.060	175.930	-1.200	1.500																			1580029065.0	9.02	16.71
26/01/2020 08:57:46	26012020	260120	085746	175.950	12.520815	-57.245005	175.810	0.160	0.060	1.240	175.950	-1.300	1.700																			1580029066.0	9.09	16.83
26/01/2020 08:57:47	26012020	260120	085747	175.880	12.520773	-57.245005	175.690	0.280	-0.010	1.470	175.850	-1.400	1.900																			1580029067.0	9.03	16.72
26/01/2020 08:57:48	26012020	260120	085748	175.690	12.520732	-57.245005	175.480	0.330	-0.020	1.660	175.650	-1.400	2.100																			1580029068.0	8.90	16.48
26/01/2020 08:57:49	26012020	260120	085749	175.450	12.520692	-57.245005	175.220	0.330	-0.040	1.810	175.400	-1.400	2.200																			1580029069.0	8.76	16.22
26/01/2020 08:57:50	26012020	260120	085750	175.190	12.520652	-57.245005	174.980	0.300	-0.130	1.860	175.140	-1.500	2.300																			1580029070.0	8.76	16.22
26/01/2020 08:57:51	26012020	260120	085751	175.010	12.520610	-57.245005	174.820	0.280	-0.250	1.630	174.980	-1.600	2.100																			1580029071.0	8.78	16.26
26/01/2020 08:57:52	26012020	260120	085752	174.890	12.520570	-57.245005	174.720	0.270	-0.410	1.300	174.870	-1.800	1.800																			1580029072.0	8.74	16.19
26/01/2020 08:57:53	26012020	260120	085753	174.840	12.520528	-57.245003	174.720	0.190	-0.670	0.950	174.850	-2.000	1.400																			1580029073.0	8.88	16.45
26/01/2020 08:57:54	26012020	260120	085754	174.930	12.520487	-57.245002	174.810	-0.010	-0.870	0.680	174.940	-2.300	1.100																			1580029074.0	9.04	16.74
26/01/2020 08:57:55	26012020	260120	085755	175.010	12.520445	-57.245002	174.930	-0.290	-0.800	0.700	175.050	-2.200	1.100																			1580029075.0	9.05	16.76
26/01/2020 08:57:56	26012020	260120	085756	175.190	12.520403	-57.245003	175.150	-0.530	-0.430	0.860	175.240	-1.900	1.300																			1580029076.0	8.88	16.45
26/01/2020 08:57:57	26012020	260120	085757	175.440	12.520362	-57.245005	175.400	-0.560	-0.090	0.960	175.490	-1.500	1.400																			1580029077.0	8.75	16.21
26/01/2020 08:57:58	26012020	260120	085758	175.640	12.520320	-57.245007	175.550	-0.310	-0.020	1.020	175.660	-1.400	1.400																			1580029078.0	8.98	16.63
26/01/2020 08:57:59	26012020	260120	085759	175.740	12.520278	-57.245005	175.660	-0.040	0.050	0.970	175.770	-1.400	1.400																			1580029079.0	9.27	17.17
26/01/2020 08:58:00	26012020	260120	085800	175.920	12.520235	-57.245003	175.850	-0.040	0.290	0.860	175.960	-1.100	1.300	1013.70	25.60	25.70	19.80	19.80	0.00	70.00	70.00	427.00	25.40	305.00	9.80	93.00	8.10	15	3299.00	27.40	27.40	1580029080.0	9.09	16.83
26/01/2020 08:58:01	26012020	260120	085801	176.080	12.520195	-57.245000	175.940	-0.190	0.470	0.860	176.080	-0.900	1.300																			1580029081.0	8.75	16.21
26/01/2020 08:58:02	26012020	260120	085802	175.990	12.520153	-57.245000	175.750	-0.150	0.310	1.020	175.940	-1.100	1.400																			1580029082.0	8.80	16.30
26/01/2020 08:58:03	26012020	260120	085803	175.650	12.520112	-57.245002	175.370	0.180	-0.020	1.230	175.560	-1.400	1.700																			1580029083.0	9.08	16.82
26/01/2020 08:58:04	26012020	260120	085804	175.310	12.520070	-57.245000	175.110	0.510	-0.200	1.300	175.270	-1.600	1.700																			1580029084.0	9.08	16.82
26/01/2020 08:58:05	26012020	260120	085805	175.140	12.520028	-57.245000	174.970	0.540	-0.250	1.260	175.120	-1.700	1.700																			1580029085.0	8.75	16.21
26/01/2020 08:58:06	26012020	260120	085806	175.060	12.519988	-57.245000	174.900	0.320	-0.400	1.190	175.050	-1.800	1.600																			1580029086.0	8.60	15.93
26/01/2020 08:58:07	26012020	260120	085807	175.020	12.519948	-57.245000	174.880	0.110	-0.680	1.100	175.020	-2.100	1.500																			1580029087.0	8.80	16.30
26/01/2020 08:58:08	26012020	260120	085808	175.040	12.519907	-57.245002	174.940	0.060	-0.830	0.980	175.060	-2.200	1.400																			1580029088.0	8.99	16.65
26/01/2020 08:58:09	26012020	260120	085809	175.180	12.519865	-57.245002	175.110	0.050	-0.680	0.800	175.220	-2.100	1.200																			1580029089.0	8.88	16.45
26/01/2020 08:58:10	26012020	260120	085810	175.370	12.519823	-57.245002	175.270	-0.010	-0.430	0.680	175.400	-1.800	1.100																			1580029090.0	8.71	16.13
26/01/2020 08:58:11	26012020	260120	085811	175.480	12.519783	-57.245000	175.360	-0.110	-0.250	0.630	175.500	-1.700	1.100																			1580029091.0	8.84	16.37
26/01/2020 08:58:12	26012020	260120	085812	175.570	12.519742	-57.244998	175.460	-0.260	-0.060	0.660	175.590	-1.500	1.100																			1580029092.0	9.00	16.67
26/01/2020 08:58:13	26012020	260120	085813	175.660	12.519700	-57.244998	175.540	-0.420	0.140	0.850	175.680	-1.300	1.300																			1580029093.0	8.97	16.61
26/01/2020 08:58:14	26012020	260120	085814	175.690	12.519615	-57.245000	175.510	-0.480	0.220	1.170	175.670	-1.200	1.600																			1580029094.0	9.09	16.83
26/01/2020 08:58:15	26012020	260120	085815	175.540	12.519615	-57.245000	175.330	-0.330	0.100	1.460	175.500	-1.300	1.900																			1580029095.0	9.09	16.83
26/01/2020 08:58:16	26012020	260120	085816	175.330	12.519573	-57.245002	175.130	-0.080	-0.080	1.640	175.280	-1.500	2.100																			1580029096.0	9.22	17.08
26/01/2020 08:58:17	26012020	260120	085817	175.160	12.519530	-57.245002	175.020	0.110	-0.140	1.580	175.150	-1.500	2.000																			1580029097.0	9.09	16.83
26/01/2020 08:58:18	26012020	260120	085818	175.140	12.519490	-57.245000	175.020	0.170	-0.150	1.220	175.140	-1.600	1.700																			1580029098.0	8.84	16.37
26/01/2020 08:58:19	26012020	260120	085819	175.130	12.519448	-57.244998	174.980	0.140	-0.250	0.980	175.110	-1.600	1.400																			1580029099.0	8.72	16.15
26/01/2020 08:58:20	26012020	260120	085820	175.040	12.519408	-57.244997	174.860	0.110	-0.440	0.960	175.010	-1.800	1.400																			1580029100.0	8.83	16.35
26/01/2020 08:58:21	26012020	260120	085821	174.920	12.519367	-57.244997	174.760	0.150	-0.610	0.970	174.900	-2.000	1.400																			1580029101.0	9.02	16.71
26/01/2020 08:58:22	26012020	260120	085822	174.850	12.519323	-57.244997	174.720	0.180	-0.560	1.050	174.840	-2.000	1.500																			1580029102.0	9.05	16.76
26/01/2020 08:58:23	26012020	260120	085823	174.890	12.519282	-57.244997	174.820	0.130	-0.210	1.120	174.910	-1.600	1.600																			1580029103.0	8.88	16.45
26/01/2020 08:58:24	26012020	260120	085824	175.100	12.519242	-57.244997	175.100	-0.000	0.250	0.950	175.170	-1.200	1.400																			1580029104.0	8.61	15.95
26/01/2020 08:58:25	26012020	260120	085825	175.440	12.519203	-57.244997	175.420	-0.150	0.520	0.710	175.500	-0.900	1.200																			1580029105.0	8.48	15.70
26/01/2020 08:58:26	26012020	260120	085826	175.680	12.519163	-57.244995	175.590	-0.140	0.380	0.650	175.710	-1.000	1.100																			1580029106.0	8.63	15.98
26/01/2020 08:58:27	26012020	260120	085827	175.720	12.519122	-57.244993	175.550	0.050	-0.140	0.740	175.700	-1.500	1.200																			1580029107.0	8.99	16.65
26/01/2020 08:58:28	26012020	260120	085828	175.550	12.519078	-57.244992	175.340	0.270	-0.770	0.970	175.500	-2.100	1.400																			1580029108.0	9.31	17.24
26/01/2020 08:58:29	26012020	260120	085829	175.300	12.519035	-57.244992	175.120	0.260	-1.040	1.270	175.270	-2.400	1.700																			1580029109.0	9.36	17.33
26/01/2020 08:58:30	26012020	260120	085830	175.170	12.518993	-57.244993	175.050	-0.050	-0.700	1.420	175.170	-2.100	1.800																			1580029110.0	8.94	16.56
26/01/2020 08:58:31	26012020	260120	085831	175.170	12.518953	-57.244995	175.040	-0.400	-0.180	1.400	175.170	-1.600	1.800																			1580029111.0	8.39	15.54
26/01/2020 08:58:32	26012020	260120	085832	175.100	12.518915	-57.244995	174.940	-0.450	-0.110	1.220	175.080	-1.500	1.700																			1580029112.0	8.49	15.72
26/01/2020 08:58:33	26012020	260120	085833	175.020	12.518872	-57.244995	174.890	-0.230	-0.360	0.940	175.020	-1.700	1.400																			1580029113.0	9.16	16.96
26/01/2020 08:58:34	26012020	260120	085834	175.050	12.518828	-57.244992	174.940	-0.020	-0.440	0.720	175.060	-1.900	1.200																			1580029114.0	9.40	17.41
26/01/2020 08:58:35	26012020	260120	085835	175.170	12.518785	-57.244990	175.100	-0.020	-0.160	0.530	175.210	-1.600	1.000																			1580029115.0	9.13	16.91
26/01/2020 08:58:36	26012020	260120	085836	175.390	12.518745	-57.244988	175.330	-0.170	0.230	0.500	175.430	-1.200	0.900																			1580029116.0	8.75	16.21
26/01/2020 08:58:37	26012020	260120	085837	175.560	12.518705	-57.244990	175.460	-0.170	0.360	0.720	175.570	-1.000	1.100																			1580029117.0	8.70	16.11
26/01/2020 08:58:38	26012020	260120	085838	175.640	12.518662	-57.244990	175.570	0.040	0.240	0.950	175.660	-1.200	1.400																			1580029118.0	9.01	16.69
26/01/2020 08:58:39	26012020	260120	085839	175.810	12.518620	-57.244990	175.770	0.220	0.170	1.110	175.840	-1.200	1.500																			1580029119.0	9.06	16.78
26/01/2020 08:58:40	26012020	260120	085840	175.980	12.518580	-57.244990	175.900	0.230	0.130	1.220	176.000	-1.300	1.600																			1580029120.0	8.81	16.32
26/01/2020 08:58:41	26012020	260120	085841	176.000	12.518538	-57.244990	175.850	0.170	-0.030	1.270	175.980	-1.400	1.700																			1580029121.0	8.66	16.04
26/01/2020 08:58:42	26012020	260120	085842	175.870	12.518498	-57.244990	175.710	0.170	-0.300	1.240	175.840	-1.700	1.700																			1580029122.0	8.75	16.21
26/01/2020 08:58:43	26012020	260120	085843	175.720	12.518458	-57.244990	175.570	0.220	-0.540	1.090	175.690	-1.900	1.500																			1580029123.0	8.79	16.28
26/01/2020 08:58:44	26012020	260120	085844	175.580	12.518417	-57.244988	175.420	0.190	-0.790	0.920	175.550	-2.200	1.400																			1580029124.0	8.79	16.28
26/01/2020 08:58:45	26012020	260120	085845	175.460	12.518375	-57.244988	175.350	0.060	-0.970	0.810	175.460	-2.400	1.300																			1580029125.0	8.97	16.61
26/01/2020 08:58:46	26012020	260120	085846	175.510	12.518333	-57.244988	175.450	-0.140	-0.790	0.750	175.540	-2.200	1.200																			1580029126.0	8.93	16.54
26/01/2020 08:58:47	26012020	260120	085847	175.670	12.518293	-57.244990	175.600	-0.290	-0.480	0.730	175.690	-1.900	1.200																			1580029127.0	8.69	16.09
26/01/2020 08:58:48	26012020	260120	085848	175.800	12.518252	-57.244990	175.730	-0.270	-0.310	0.710	175.830	-1.700	1.100																			1580029128.0	8.82	16.33
26/01/2020 08:58:49	26012020	260120	085849	175.960	12.518210	-57.244990	175.910	-0.180	-0.210	0.660	176.000	-1.600	1.100																			1580029129.0	9.13	16.91
26/01/2020 08:58:50	26012020	260120	085850	176.140	12.518167	-57.244990	176.090	-0.130	-0.060	0.720	176.170	-1.500	1.100																			1580029130.0	9.22	17.08
26/01/2020 08:58:51	26012020	260120	085851	176.290	12.518125	-57.244990	176.230	-0.160	0.240	0.780	176.320	-1.200	1.200																			1580029131.0	9.13	16.91
26/01/2020 08:58:52	26012020	260120	085852	176.390	12.518083	-57.244988	176.310	-0.170	0.560	0.900	176.410	-0.900	1.300																			1580029132.0	8.88	16.45
26/01/2020 08:58:53	26012020	260120	085853	176.400	12.518042	-57.244988	176.270	-0.080	0.580	1.140	176.390	-0.800	1.600																			1580029133.0	8.81	16.32
26/01/2020 08:58:54	26012020	260120	085854	176.320	12.518000	-57.244988	176.170	0.080	0.330	1.400	176.290	-1.100	1.800																			1580029134.0	9.05	16.76
26/01/2020 08:58:55	26012020	260120	085855	176.190	12.517958	-57.244990	176.020	0.210	0.060	1.640	176.150	-1.300	2.100																			1580029135.0	9.05	16.76
26/01/2020 08:58:56	26012020	260120	085856	176.000	12.517917	-57.244990	175.820	0.280	-0.170	1.730	175.950	-1.600	2.200																			1580029136.0	8.86	16.41
26/01/2020 08:58:57	26012020	260120	085857	175.790	12.517877	-57.244992	175.610	0.270	-0.390	1.650	175.750	-1.800	2.100																			1580029137.0	8.71	16.13
26/01/2020 08:58:58	26012020	260120	085858	175.580	12.517835	-57.244992	175.390	0.210	-0.630	1.450	175.540	-2.000	1.900																			1580029138.0	8.68	16.08
26/01/2020 08:58:59	26012020	260120	085859	175.410	12.517795	-57.244992	175.250	0.170	-0.800	1.120	175.390	-2.200	1.600																			1580029139.0	8.76	16.22
26/01/2020 08:59:00	26012020	260120	085900	175.380	12.517755	-57.244990	175.290	0.130	-0.800	0.690	175.400	-2.200	1.200	1013.70	25.60	25.60	19.70	19.70	0.00	69.00	69.00	427.00	25.40	308.00	9.80	96.00	7.90	15	3207.00	27.40	27.40	1580029140.0	8.74	16.19
26/01/2020 08:59:01	26012020	260120	085901	175.560	12.517713	-57.244990	175.520	0.060	-0.730	0.250	175.620	-2.100	0.700																			1580029141.0	8.73	16.17
26/01/2020 08:59:02	26012020	260120	085902	175.850	12.517673	-57.244987	175.800	-0.050	-0.710	0.050	175.910	-2.100	0.500																			1580029142.0	8.86	16.41
26/01/2020 08:59:03	26012020	260120	085903	176.100	12.517630	-57.244987	176.030	-0.170	-0.680	0.190	176.140	-2.100	0.600																			1580029143.0	9.12	16.89
26/01/2020 08:59:04	26012020	260120	085904	176.260	12.517587	-57.244987	176.170	-0.270	-0.400	0.480	176.280	-1.800	0.900																			1580029144.0	9.23	17.09
26/01/2020 08:59:05	26012020	260120	085905	176.340	12.517545	-57.244988	176.210	-0.350	0.100	0.820	176.340	-1.300	1.200																			1580029145.0	9.01	16.69
26/01/2020 08:59:06	26012020	260120	085906	176.290	12.517503	-57.244988	176.130	-0.340	0.470	1.100	176.270	-1.000	1.500																			1580029146.0	8.90	16.48
26/01/2020 08:59:07	26012020	260120	085907	176.170	12.517462	-57.244988	176.040	-0.230	0.620	1.210	176.150	-0.800	1.600																			1580029147.0	9.08	16.82
26/01/2020 08:59:08	26012020	260120	085908	176.130	12.517420	-57.244987	176.040	-0.120	0.720	1.190	176.130	-0.700	1.600																			1580029148.0	9.08	16.82
26/01/2020 08:59:09	26012020	260120	085909	176.140	12.517378	-57.244987	176.000	-0.050	0.660	1.170	176.120	-0.700	1.600																			1580029149.0	8.83	16.35
26/01/2020 08:59:10	26012020	260120	085910	175.950	12.517338	-57.244987	175.730	0.130	0.190	1.250	175.890	-1.200	1.700																			1580029150.0	8.82	16.33
26/01/2020 08:59:11	26012020	260120	085911	175.610	12.517295	-57.244988	175.390	0.410	-0.390	1.330	175.550	-1.800	1.800																			1580029151.0	9.12	16.89
26/01/2020 08:59:12	26012020	260120	085912	175.390	12.517253	-57.244988	175.280	0.550	-0.590	1.220	175.380	-2.000	1.700																			1580029152.0	8.97	16.61
26/01/2020 08:59:13	26012020	260120	085913	175.430	12.517215	-57.244988	175.350	0.400	-0.590	0.960	175.450	-2.000	1.400																			1580029153.0	8.44	15.63
26/01/2020 08:59:14	26012020	260120	085914	175.500	12.517175	-57.244987	175.380	0.150	-0.820	0.800	175.500	-2.200	1.200																			1580029154.0	8.40	15.56
26/01/2020 08:59:15	26012020	260120	085915	175.500	12.517133	-57.244988	175.420	0.000	-1.160	0.790	175.510	-2.500	1.200																			1580029155.0	8.93	16.54
26/01/2020 08:59:16	26012020	260120	085916	175.660	12.517092	-57.244988	175.660	-0.080	-1.090	0.670	175.720	-2.500	1.100																			1580029156.0	9.13	16.91
26/01/2020 08:59:17	26012020	260120	085917	175.990	12.517050	-57.244988	176.020	-0.190	-0.620	0.530	176.070	-2.100	1.000																			1580029157.0	8.81	16.32
26/01/2020 08:59:18	26012020	260120	085918	176.350	12.517010	-57.244988	176.340	-0.340	-0.150	0.520	176.410	-1.600	0.900																			1580029158.0	8.67	16.06
26/01/2020 08:59:19	26012020	260120	085919	176.550	12.516968	-57.244987	176.440	-0.390	0.060	0.680	176.550	-1.300	1.100																			1580029159.0	8.88	16.45
26/01/2020 08:59:20	26012020	260120	085920	176.460	12.516927	-57.244987	176.300	-0.270	0.100	0.960	176.430	-1.300	1.400																			1580029160.0	9.24	17.11
26/01/2020 08:59:21	26012020	260120	085921	176.280	12.516882	-57.244987	176.120	-0.060	0.200	1.220	176.240	-1.200	1.600																			1580029161.0	9.38	17.37
26/01/2020 08:59:22	26012020	260120	085922	176.070	12.516840	-57.244987	175.910	0.030	0.470	1.480	176.030	-1.000	1.900																			1580029162.0	9.17	16.98
26/01/2020 08:59:23	26012020	260120	085923	175.890	12.516798	-57.244985	175.770	-0.060	0.780	1.570	175.860	-0.600	2.000																			1580029163.0	8.79	16.28
26/01/2020 08:59:24	26012020	260120	085924	175.790	12.516758	-57.244987	175.650	-0.170	0.790	1.490	175.770	-0.600	1.900																			1580029164.0	8.54	15.82
26/01/2020 08:59:25	26012020	260120	085925	175.630	12.516718	-57.244988	175.480	-0.030	0.250	1.350	175.600	-1.100	1.800																			1580029165.0	8.75	16.21
26/01/2020 08:59:26	26012020	260120	085926	175.560	12.516677	-57.244988	175.510	0.360	-0.420	0.960	175.570	-1.800	1.400																			1580029166.0	9.13	16.91
26/01/2020 08:59:27	26012020	260120	085927	175.750	12.516635	-57.244987	175.770	0.640	-0.820	0.440	175.820	-2.200	0.900																			1580029167.0	8.93	16.54
26/01/2020 08:59:28	26012020	260120	085928	176.060	12.516595	-57.244983	176.030	0.600	-1.040	0.150	176.100	-2.400	0.600																			1580029168.0	8.63	15.98
26/01/2020 08:59:29	26012020	260120	085929	176.250	12.516555	-57.244983	176.190	0.290	-1.110	0.200	176.280	-2.500	0.600																			1580029169.0	8.60	15.93
26/01/2020 08:59:30	26012020	260120	085930	176.330	12.516515	-57.244983	176.230	-0.120	-0.940	0.540	176.340	-2.400	0.900																			1580029170.0	8.64	16.00
26/01/2020 08:59:31	26012020	260120	085931	176.330	12.516473	-57.244985	176.230	-0.400	-0.690	0.920	176.320	-2.100	1.300																			1580029171.0	8.68	16.08
26/01/2020 08:59:32	26012020	260120	085932	176.310	12.516432	-57.244987	176.210	-0.460	-0.460	1.190	176.300	-1.900	1.600																			1580029172.0	8.94	16.56
26/01/2020 08:59:33	26012020	260120	085933	176.270	12.516390	-57.244988	176.180	-0.380	-0.180	1.340	176.270	-1.600	1.800																			1580029173.0	9.16	16.96
26/01/2020 08:59:34	26012020	260120	085934	176.300	12.516348	-57.244990	176.250	-0.300	0.270	1.280	176.320	-1.200	1.700																			1580029174.0	9.11	16.87
26/01/2020 08:59:35	26012020	260120	085935	176.410	12.516307	-57.244988	176.340	-0.290	0.670	1.140	176.430	-0.800	1.600																			1580029175.0	8.83	16.35
26/01/2020 08:59:36	26012020	260120	085936	176.460	12.516265	-57.244988	176.350	-0.200	0.720	0.950	176.460	-0.700	1.400																			1580029176.0	8.81	16.32
26/01/2020 08:59:37	26012020	260120	085937	176.430	12.516223	-57.244988	176.280	0.050	0.410	0.800	176.410	-1.000	1.200																			1580029177.0	9.03	16.72
26/01/2020 08:59:38	26012020	260120	085938	176.320	12.516182	-57.244987	176.150	0.360	-0.050	0.750	176.290	-1.400	1.200																			1580029178.0	9.18	17.00
26/01/2020 08:59:39	26012020	260120	085939	176.210	12.516138	-57.244985	176.080	0.470	-0.360	0.790	176.190	-1.800	1.200																			1580029179.0	9.12	16.89
26/01/2020 08:59:40	26012020	260120	085940	176.210	12.516098	-57.244985	176.140	0.280	-0.350	0.890	176.230	-1.800	1.300																			1580029180.0	8.78	16.26
26/01/2020 08:59:41	26012020	260120	085941	176.350	12.516058	-57.244987	176.280	0.050	-0.190	0.970	176.380	-1.600	1.400																			1580029181.0	8.39	15.54
26/01/2020 08:59:42	26012020	260120	085942	176.470	12.516020	-57.244990	176.360	0.020	-0.270	1.100	176.470	-1.700	1.500																			1580029182.0	8.33	15.43
26/01/2020 08:59:43	26012020	260120	085943	176.440	12.515978	-57.244990	176.280	0.200	-0.680	1.280	176.410	-2.100	1.700																			1580029183.0	8.78	16.26
26/01/2020 08:59:44	26012020	260120	085944	176.300	12.515937	-57.244992	176.160	0.260	-0.970	1.410	176.290	-2.400	1.800																			1580029184.0	9.20	17.04
26/01/2020 08:59:45	26012020	260120	085945	176.280	12.515893	-57.244992	176.200	-0.030	-0.730	1.420	176.290	-2.200	1.900																			1580029185.0	9.06	16.78
26/01/2020 08:59:46	26012020	260120	085946	176.410	12.515855	-57.244993	176.360	-0.460	-0.130	1.360	176.450	-1.600	1.800																			1580029186.0	8.53	15.80
26/01/2020 08:59:47	26012020	260120	085947	176.550	12.515815	-57.244997	176.440	-0.550	0.230	1.100	176.560	-1.200	1.600																			1580029187.0	8.35	15.46
26/01/2020 08:59:48	26012020	260120	085948	176.600	12.515775	-57.244995	176.480	-0.210	0.070	0.770	176.610	-1.300	1.200																			1580029188.0	8.81	16.32
26/01/2020 08:59:49	26012020	260120	085949	176.620	12.515732	-57.244993	176.480	0.200	-0.260	0.590	176.620	-1.600	1.000																			1580029189.0	9.31	17.24
26/01/2020 08:59:50	26012020	260120	085950	176.620	12.515688	-57.244990	176.470	0.300	-0.390	0.600	176.620	-1.800	1.000																			1580029190.0	9.33	17.28
26/01/2020 08:59:51	26012020	260120	085951	176.600	12.515647	-57.244990	176.440	0.100	-0.240	0.840	176.580	-1.700	1.300																			1580029191.0	9.01	16.69
26/01/2020 08:59:52	26012020	260120	085952	176.550	12.515605	-57.244992	176.400	-0.140	0.060	1.180	176.530	-1.400	1.600																			1580029192.0	8.72	16.15
26/01/2020 08:59:53	26012020	260120	085953	176.510	12.515565	-57.244995	176.380	-0.190	0.250	1.420	176.510	-1.200	1.800																			1580029193.0	8.64	16.00
26/01/2020 08:59:54	26012020	260120	085954	176.480	12.515525	-57.244997	176.340	-0.030	0.180	1.510	176.470	-1.200	1.900																			1580029194.0	8.77	16.24
26/01/2020 08:59:55	26012020	260120	085955	176.420	12.515483	-57.244998	176.300	0.170	-0.020	1.410	176.410	-1.400	1.900																			1580029195.0	8.97	16.61
26/01/2020 08:59:56	26012020	260120	085956	176.390	12.515442	-57.244998	176.270	0.230	-0.130	1.240	176.390	-1.500	1.700																			1580029196.0	8.91	16.50
26/01/2020 08:59:57	26012020	260120	085957	176.380	12.515402	-57.244997	176.250	0.150	-0.160	1.070	176.380	-1.600	1.500																			1580029197.0	8.68	16.08
26/01/2020 08:59:58	26012020	260120	085958	176.360	12.515362	-57.244997	176.220	0.030	-0.310	0.910	176.350	-1.700	1.400																			1580029198.0	8.62	15.96
26/01/2020 08:59:59	26012020	260120	085959	176.320	12.515320	-57.244997	176.160	-0.060	-0.550	0.850	176.300	-1.900	1.300																			1580029199.0	8.80	16.30
26/01/2020 09:00:00	26012020	260120	090000	176.250	12.515278	-57.244998	176.100	-0.080	-0.700	0.930	176.230	-2.100	1.400	1013.60	25.60	25.60	19.60	19.70	0.00	69.00	69.00	427.00	25.40	313.00	9.90	103.00	7.50	15	3209.00	27.50	27.40	1580029200.0	8.92	16.52
26/01/2020 09:00:01	26012020	260120	090001	176.200	12.515238	-57.245002	176.070	-0.040	-0.600	0.960	176.190	-2.000	1.400																			1580029201.0	8.84	16.37
26/01/2020 09:00:02	26012020	260120	090001	176.220	12.515198	-57.245002	176.130	0.010	-0.340	0.830	176.230	-1.800	1.300																			1580029201.0	8.67	16.06
26/01/2020 09:00:03	26012020	260120	090003	176.300	12.515157	-57.245002	176.200	0.040	-0.210	0.700	176.320	-1.600	1.100																			1580029203.0	8.63	15.98
26/01/2020 09:00:04	26012020	260120	090004	176.330	12.515117	-57.245000	176.200	0.090	-0.300	0.670	176.330	-1.700	1.100																			1580029204.0	8.94	16.56
26/01/2020 09:00:05	26012020	260120	090005	176.330	12.515073	-57.244998	176.240	0.050	-0.290	0.780	176.350	-1.700	1.200																			1580029205.0	9.20	17.04
26/01/2020 09:00:06	26012020	260120	090006	176.460	12.515032	-57.244998	176.400	-0.130	0.020	0.990	176.490	-1.400	1.400																			1580029206.0	8.98	16.63
26/01/2020 09:00:07	26012020	260120	090007	176.580	12.514992	-57.245000	176.470	-0.310	0.320	1.290	176.590	-1.100	1.700																			1580029207.0	8.64	16.00
26/01/2020 09:00:08	26012020	260120	090008	176.490	12.514950	-57.245002	176.290	-0.290	0.230	1.650	176.440	-1.200	2.100																			1580029208.0	8.75	16.21
26/01/2020 09:00:09	26012020	260120	090009	176.190	12.514908	-57.245005	175.960	-0.050	-0.090	1.960	176.120	-1.500	2.400																			1580029209.0	9.17	16.98
26/01/2020 09:00:10	26012020	260120	090010	175.840	12.514865	-57.245007	175.620	0.220	-0.230	2.000	175.770	-1.600	2.400																			1580029210.0	9.24	17.11
26/01/2020 09:00:11	26012020	260120	090011	175.590	12.514823	-57.245005	175.450	0.300	-0.060	1.630	175.560	-1.500	2.100																			1580029211.0	8.88	16.45
26/01/2020 09:00:12	26012020	260120	090012	175.560	12.514785	-57.245005	175.460	0.160	0.190	1.130	175.570	-1.200	1.600																			1580029212.0	8.43	15.61
26/01/2020 09:00:13	26012020	260120	090013	175.620	12.514747	-57.245003	175.520	-0.040	0.140	0.820	175.630	-1.200	1.300																			1580029213.0	8.31	15.39
26/01/2020 09:00:14	26012020	260120	090014	175.660	12.514705	-57.245003	175.540	-0.060	-0.300	0.680	175.660	-1.700	1.100																			1580029214.0	8.68	16.08
26/01/2020 09:00:15	26012020	260120	090015	175.640	12.514663	-57.245005	175.480	0.130	-0.810	0.700	175.620	-2.200	1.100																			1580029215.0	9.05	16.76
26/01/2020 09:00:16	26012020	260120	090016	175.530	12.514622	-57.245005	175.380	0.370	-1.030	0.740	175.520	-2.400	1.200																			1580029216.0	9.12	16.89
26/01/2020 09:00:17	26012020	260120	090017	175.550	12.514580	-57.245005	175.460	0.370	-0.730	0.630	175.570	-2.200	1.100																			1580029217.0	8.83	16.35
26/01/2020 09:00:18	26012020	260120	090018	175.670	12.514542	-57.245003	175.560	0.070	-0.260	0.600	175.680	-1.700	1.000																			1580029218.0	8.40	15.56
26/01/2020 09:00:19	26012020	260120	090019	175.720	12.514502	-57.245002	175.590	-0.310	-0.050	0.770	175.730	-1.500	1.200																			1580029219.0	8.49	15.72
26/01/2020 09:00:20	26012020	260120	090020	175.720	12.514460	-57.245003	175.550	-0.510	-0.160	1.110	175.700	-1.600	1.500																			1580029220.0	8.94	16.56
26/01/2020 09:00:21	26012020	260120	090021	175.570	12.514417	-57.245005	175.370	-0.400	-0.300	1.470	175.530	-1.700	1.900																			1580029221.0	9.29	17.21
26/01/2020 09:00:22	26012020	260120	090022	175.310	12.514373	-57.245007	175.090	-0.090	-0.260	1.650	175.250	-1.700	2.100																			1580029222.0	9.30	17.22
26/01/2020 09:00:23	26012020	260120	090023	175.040	12.514332	-57.245005	174.880	0.130	0.040	1.570	175.000	-1.400	2.000																			1580029223.0	9.03	16.72
26/01/2020 09:00:24	26012020	260120	090024	174.940	12.514292	-57.245003	174.840	0.090	0.410	1.390	174.940	-1.000	1.800																			1580029224.0	8.70	16.11
26/01/2020 09:00:25	26012020	260120	090025	174.970	12.514252	-57.245002	174.900	-0.060	0.580	1.190	174.990	-0.800	1.600																			1580029225.0	8.54	15.82
26/01/2020 09:00:26	26012020	260120	090026	175.070	12.514212	-57.245002	175.000	-0.150	0.450	1.050	175.090	-0.900	1.500																			1580029226.0	8.63	15.98
26/01/2020 09:00:27	26012020	260120	090027	175.180	12.514170	-57.245002	175.120	-0.060	0.060	1.000	175.210	-1.300	1.400																			1580029227.0	8.80	16.30
26/01/2020 09:00:28	26012020	260120	090028	175.280	12.514128	-57.245003	175.190	0.160	-0.440	0.960	175.290	-1.800	1.400																			1580029228.0	8.95	16.58
26/01/2020 09:00:29	26012020	260120	090029	175.320	12.514087	-57.245003	175.200	0.350	-0.800	0.920	175.320	-2.200	1.400																			1580029229.0	8.95	16.58
26/01/2020 09:00:30	26012020	260120	090030	175.290	12.514047	-57.245003	175.160	0.390	-0.870	0.970	175.280	-2.300	1.400																			1580029230.0	8.77	16.24
26/01/2020 09:00:31	26012020	260120	090031	175.250	12.514007	-57.245003	175.140	0.270	-0.660	1.000	175.240	-2.100	1.400																			1580029231.0	8.56	15.85
26/01/2020 09:00:32	26012020	260120	090032	175.260	12.513968	-57.245002	175.150	0.060	-0.380	0.980	175.260	-1.800	1.400																			1580029232.0	8.40	15.56
26/01/2020 09:00:33	26012020	260120	090033	175.230	12.513928	-57.245002	175.100	-0.120	-0.340	1.130	175.220	-1.700	1.500																			1580029233.0	8.59	15.91
26/01/2020 09:00:34	26012020	260120	090034	175.160	12.513885	-57.245002	175.060	-0.190	-0.420	1.350	175.150	-1.800	1.800																			1580029234.0	9.01	16.69
26/01/2020 09:00:35	26012020	260120	090035	175.160	12.513843	-57.245003	175.110	-0.180	-0.330	1.410	175.180	-1.800	1.800																			1580029235.0	9.15	16.95
26/01/2020 09:00:36	26012020	260120	090036	175.290	12.513802	-57.245003	175.280	-0.150	-0.030	1.150	175.340	-1.500	1.600																			1580029236.0	8.95	16.58
26/01/2020 09:00:37	26012020	260120	090037	175.510	12.513762	-57.245000	175.490	-0.120	0.240	0.830	175.550	-1.200	1.300																			1580029237.0	8.74	16.19
26/01/2020 09:00:38	26012020	260120	090038	175.710	12.513720	-57.244998	175.700	-0.080	0.250	0.640	175.750	-1.200	1.100																			1580029238.0	8.81	16.32
26/01/2020 09:00:39	26012020	260120	090039	175.870	12.513678	-57.244995	175.800	-0.050	0.080	0.620	175.880	-1.300	1.100																			1580029239.0	8.98	16.63
26/01/2020 09:00:40	26012020	260120	090040	175.830	12.513637	-57.244995	175.670	0.020	-0.120	0.810	175.790	-1.500	1.200																			1580029240.0	9.03	16.72
26/01/2020 09:00:41	26012020	260120	090041	175.570	12.513595	-57.244995	175.370	0.100	-0.270	1.180	175.510	-1.700	1.600																			1580029241.0	9.01	16.69
26/01/2020 09:00:42	26012020	260120	090042	175.260	12.513553	-57.244995	175.080	0.130	-0.220	1.500	175.190	-1.600	1.900																			1580029242.0	8.90	16.48
26/01/2020 09:00:43	26012020	260120	090043	175.020	12.513513	-57.244997	174.920	0.050	-0.050	1.590	175.000	-1.500	2.000																			1580029243.0	8.66	16.04
26/01/2020 09:00:44	26012020	260120	090044	174.990	12.513473	-57.244997	174.950	-0.100	0.060	1.390	175.000	-1.400	1.800																			1580029244.0	8.51	15.76
26/01/2020 09:00:45	26012020	260120	090045	175.100	12.513433	-57.244998	175.080	-0.150	-0.010	1.070	175.130	-1.400	1.500																			1580029245.0	8.57	15.87
26/01/2020 09:00:46	26012020	260120	090046	175.270	12.513393	-57.244998	175.250	0.000	-0.250	0.680	175.300	-1.600	1.100																			1580029246.0	8.69	16.09
26/01/2020 09:00:47	26012020	260120	090047	175.450	12.513352	-57.244997	175.420	0.270	-0.590	0.350	175.480	-2.000	0.800																			1580029247.0	8.87	16.43
26/01/2020 09:00:48	26012020	260120	090048	175.570	12.513310	-57.244993	175.490	0.440	-0.840	0.280	175.580	-2.200	0.700																			1580029248.0	9.00	16.67
26/01/2020 09:00:49	26012020	260120	090049	175.610	12.513268	-57.244992	175.520	0.330	-0.780	0.470	175.610	-2.200	0.900																			1580029249.0	8.94	16.56
26/01/2020 09:00:50	26012020	260120	090050	175.650	12.513228	-57.244992	175.570	-0.020	-0.450	0.690	175.660	-1.900	1.100																			1580029250.0	8.70	16.11
26/01/2020 09:00:51	26012020	260120	090051	175.680	12.513188	-57.244992	175.580	-0.330	-0.140	0.910	175.680	-1.600	1.300																			1580029251.0	8.61	15.95
26/01/2020 09:00:52	26012020	260120	090052	175.650	12.513147	-57.244993	175.540	-0.380	-0.070	1.060	175.630	-1.500	1.500																			1580029252.0	8.88	16.45
26/01/2020 09:00:53	26012020	260120	090053	175.640	12.513105	-57.244993	175.560	-0.220	0.000	1.040	175.650	-1.400	1.500																			1580029253.0	9.14	16.93
26/01/2020 09:00:54	26012020	260120	090054	175.680	12.513062	-57.244992	175.590	-0.080	0.170	0.910	175.680	-1.300	1.400																			1580029254.0	9.01	16.69
26/01/2020 09:00:55	26012020	260120	090055	175.720	12.513022	-57.244990	175.640	-0.080	0.250	0.690	175.730	-1.200	1.100																			1580029255.0	8.86	16.41
26/01/2020 09:00:56	26012020	260120	090056	175.800	12.512980	-57.244988	175.710	-0.150	0.200	0.620	175.810	-1.200	1.000																			1580029256.0	8.84	16.37
26/01/2020 09:00:57	26012020	260120	090057	175.780	12.512938	-57.244988	175.620	-0.160	0.030	0.860	175.750	-1.400	1.300																			1580029257.0	8.88	16.45
26/01/2020 09:00:58	26012020	260120	090058	175.590	12.512897	-57.244988	175.420	-0.010	-0.150	1.150	175.540	-1.500	1.600																			1580029258.0	8.94	16.56
26/01/2020 09:00:59	26012020	260120	090059	175.390	12.512857	-57.244990	175.250	0.210	-0.220	1.230	175.360	-1.600	1.700																			1580029259.0	8.86	16.41
26/01/2020 09:01:00	26012020	260120	090100	175.300	12.512817	-57.244992	175.210	0.370	-0.170	1.050	175.300	-1.600	1.500	1013.70	25.60	25.60	19.60	19.70	0.00	69.00	69.00	427.00	25.40	314.00	9.40	102.00	7.10	15	3240.00	27.50	27.40	1580029260.0	8.64	16.00
26/01/2020 09:01:01	26012020	260120	090101	175.340	12.512777	-57.244990	175.280	0.380	-0.180	0.780	175.360	-1.600	1.200																			1580029261.0	8.48	15.70
26/01/2020 09:01:02	26012020	260120	090102	175.450	12.512737	-57.244988	175.390	0.250	-0.430	0.650	175.470	-1.800	1.100																			1580029262.0	8.60	15.93
26/01/2020 09:01:03	26012020	260120	090103	175.550	12.512695	-57.244988	175.470	0.120	-0.790	0.740	175.560	-2.200	1.200																			1580029263.0	8.95	16.58
26/01/2020 09:01:04	26012020	260120	090104	175.610	12.512653	-57.244990	175.520	0.050	-0.910	0.920	175.620	-2.300	1.300																			1580029264.0	9.08	16.82
26/01/2020 09:01:05	26012020	260120	090105	175.630	12.512612	-57.244990	175.530	0.010	-0.750	1.070	175.630	-2.200	1.500																			1580029265.0	8.92	16.52
26/01/2020 09:01:06	26012020	260120	090106	175.620	12.512570	-57.244990	175.560	-0.060	-0.390	1.060	175.630	-1.800	1.500																			1580029266.0	8.84	16.37
26/01/2020 09:01:07	26012020	260120	090107	175.760	12.512530	-57.244988	175.760	-0.250	0.100	0.950	175.810	-1.300	1.400																			1580029267.0	8.75	16.21
26/01/2020 09:01:08	26012020	260120	090108	176.050	12.512490	-57.244987	176.080	-0.450	0.460	0.800	176.110	-1.000	1.200																			1580029268.0	8.65	16.02
26/01/2020 09:01:09	26012020	260120	090109	176.350	12.512448	-57.244987	176.330	-0.490	0.450	0.710	176.390	-0.900	1.100																			1580029269.0	8.78	16.26
26/01/2020 09:01:10	26012020	260120	090110	176.460	12.512407	-57.244987	176.370	-0.320	0.120	0.850	176.460	-1.300	1.300																			1580029270.0	9.09	16.83
26/01/2020 09:01:11	26012020	260120	090111	176.390	12.512363	-57.244987	176.250	0.030	-0.210	1.050	176.360	-1.600	1.500																			1580029271.0	9.29	17.21
26/01/2020 09:01:12	26012020	260120	090112	176.180	12.512320	-57.244987	176.010	0.380	-0.280	1.180	176.130	-1.700	1.600																			1580029272.0	9.11	16.87
26/01/2020 09:01:13	26012020	260120	090113	175.920	12.512280	-57.244987	175.770	0.480	-0.150	1.240	175.880	-1.600	1.700																			1580029273.0	8.76	16.22
26/01/2020 09:01:14	26012020	260120	090114	175.800	12.512240	-57.244985	175.710	0.280	0.000	1.160	175.790	-1.400	1.600																			1580029274.0	8.54	15.82
26/01/2020 09:01:15	26012020	260120	090115	175.820	12.512200	-57.244985	175.750	-0.050	0.010	1.040	175.830	-1.400	1.500																			1580029275.0	8.48	15.70
26/01/2020 09:01:16	26012020	260120	090116	175.850	12.512160	-57.244987	175.770	-0.180	-0.260	1.000	175.850	-1.600	1.400																			1580029276.0	8.68	16.08
26/01/2020 09:01:17	26012020	260120	090117	175.840	12.512118	-57.244990	175.760	0.010	-0.640	0.930	175.850	-2.000	1.400																			1580029277.0	9.02	16.71
26/01/2020 09:01:18	26012020	260120	090118	175.940	12.512077	-57.244990	175.930	0.310	-0.780	0.600	175.990	-2.200	1.100																			1580029278.0	9.13	16.91
26/01/2020 09:01:19	26012020	260120	090119	176.250	12.512035	-57.244988	176.300	0.350	-0.540	0.260	176.340	-2.000	0.700																			1580029279.0	8.85	16.39
26/01/2020 09:01:20	26012020	260120	090120	176.670	12.511995	-57.244987	176.700	0.040	-0.150	0.130	176.750	-1.600	0.600																			1580029280.0	8.49	15.72
26/01/2020 09:01:21	26012020	260120	090121	177.030	12.511957	-57.244985	177.000	-0.330	0.030	0.240	177.080	-1.400	0.700																			1580029281.0	8.45	15.65
26/01/2020 09:01:22	26012020	260120	090122	177.120	12.511915	-57.244987	176.950	-0.410	-0.240	0.710	177.100	-1.600	1.100																			1580029282.0	8.85	16.39
26/01/2020 09:01:23	26012020	260120	090123	176.850	12.511872	-57.244988	176.610	-0.200	-0.600	1.350	176.770	-2.000	1.700																			1580029283.0	9.43	17.46
26/01/2020 09:01:24	26012020	260120	090124	176.490	12.511827	-57.244990	176.300	0.020	-0.490	1.740	176.430	-1.900	2.100																			1580029284.0	9.46	17.52
26/01/2020 09:01:25	26012020	260120	090125	176.270	12.511787	-57.244992	176.120	0.030	0.060	1.820	176.230	-1.400	2.200																			1580029285.0	8.87	16.43
26/01/2020 09:01:26	26012020	260120	090126	176.100	12.511747	-57.244992	175.950	-0.130	0.560	1.700	176.060	-0.900	2.100																			1580029286.0	8.45	15.65
26/01/2020 09:01:27	26012020	260120	090127	175.960	12.511707	-57.244992	175.870	-0.240	0.630	1.440	175.960	-0.800	1.900																			1580029287.0	8.56	15.85
26/01/2020 09:01:28	26012020	260120	090128	175.970	12.511667	-57.244993	175.910	-0.140	0.310	1.120	175.990	-1.100	1.600																			1580029288.0	8.85	16.39
26/01/2020 09:01:29	26012020	260120	090129	176.060	12.511623	-57.244993	176.000	0.160	-0.170	0.800	176.080	-1.500	1.300																			1580029289.0	9.03	16.72
26/01/2020 09:01:30	26012020	260120	090130	176.120	12.511582	-57.244992	176.040	0.440	-0.610	0.540	176.130	-2.000	1.000																			1580029290.0	9.05	16.76
26/01/2020 09:01:31	26012020	260120	090131	176.180	12.511540	-57.244992	176.110	0.470	-0.780	0.470	176.200	-2.200	0.900																			1580029291.0	8.93	16.54
26/01/2020 09:01:32	26012020	260120	090132	176.290	12.511500	-57.244992	176.260	0.230	-0.670	0.510	176.330	-2.100	0.900																			1580029292.0	8.66	16.04
26/01/2020 09:01:33	26012020	260120	090133	176.480	12.511460	-57.244992	176.450	-0.080	-0.440	0.570	176.520	-1.900	1.000																			1580029293.0	8.49	15.72
26/01/2020 09:01:34	26012020	260120	090134	176.630	12.511420	-57.244993	176.540	-0.230	-0.390	0.830	176.630	-1.800	1.200																			1580029294.0	8.60	15.93
26/01/2020 09:01:35	26012020	260120	090135	176.610	12.511378	-57.244995	176.490	-0.170	-0.480	1.140	176.600	-1.900	1.500																			1580029295.0	8.97	16.61
26/01/2020 09:01:36	26012020	260120	090136	176.510	12.511337	-57.244995	176.370	-0.100	-0.460	1.390	176.490	-1.900	1.800																			1580029296.0	9.20	17.04
26/01/2020 09:01:37	26012020	260120	090137	176.340	12.511293	-57.244997	176.180	-0.150	-0.170	1.550	176.300	-1.600	2.000																			1580029297.0	9.06	16.78
26/01/2020 09:01:38	26012020	260120	090138	176.140	12.511253	-57.244997	175.980	-0.240	0.200	1.540	176.100	-1.200	2.000																			1580029298.0	8.81	16.32
26/01/2020 09:01:39	26012020	260120	090139	175.970	12.511212	-57.244997	175.860	-0.260	0.420	1.410	175.960	-1.000	1.900																			1580029299.0	8.76	16.22
26/01/2020 09:01:40	26012020	260120	090140	176.000	12.511172	-57.244997	175.970	-0.210	0.450	1.130	176.040	-0.900	1.600																			1580029300.0	8.83	16.35
26/01/2020 09:01:41	26012020	260120	090141	176.170	12.511130	-57.244997	176.120	-0.050	0.260	0.820	176.190	-1.100	1.300																			1580029301.0	8.85	16.39
26/01/2020 09:01:42	26012020	260120	090142	176.230	12.511088	-57.244995	176.120	0.210	-0.180	0.640	176.220	-1.600	1.100																			1580029302.0	8.97	16.61
26/01/2020 09:01:43	26012020	260120	090143	176.190	12.511047	-57.244995	176.100	0.450	-0.530	0.570	176.190	-1.900	1.000																			1580029303.0	9.12	16.89
26/01/2020 09:01:44	26012020	260120	090144	176.210	12.511005	-57.244993	176.130	0.460	-0.570	0.660	176.220	-2.000	1.100																			1580029304.0	8.89	16.46
26/01/2020 09:01:45	26012020	260120	090145	176.240	12.510965	-57.244993	176.170	0.210	-0.430	0.930	176.240	-1.800	1.300																			1580029305.0	8.56	15.85
26/01/2020 09:01:46	26012020	260120	090146	176.210	12.510925	-57.244997	176.110	-0.070	-0.370	1.290	176.190	-1.800	1.700																			1580029306.0	8.56	15.85
26/01/2020 09:01:47	26012020	260120	090147	176.090	12.510885	-57.244998	176.000	-0.160	-0.400	1.580	176.070	-1.800	2.000																			1580029307.0	8.83	16.35
26/01/2020 09:01:48	26012020	260120	090148	176.010	12.510843	-57.245002	175.960	-0.080	-0.360	1.610	176.010	-1.800	2.000																			1580029308.0	8.97	16.61
26/01/2020 09:01:49	26012020	260120	090149	176.060	12.510802	-57.245002	176.040	0.040	-0.200	1.310	176.080	-1.600	1.800																			1580029309.0	8.89	16.46
26/01/2020 09:01:50	26012020	260120	090150	176.190	12.510760	-57.245000	176.170	0.070	-0.060	0.900	176.220	-1.500	1.400																			1580029310.0	8.75	16.21
26/01/2020 09:01:51	26012020	260120	090151	176.310	12.510720	-57.244997	176.250	-0.030	-0.130	0.640	176.320	-1.500	1.100																			1580029311.0	8.83	16.35
26/01/2020 09:01:52	26012020	260120	090152	176.300	12.510677	-57.244997	176.210	-0.190	-0.320	0.720	176.300	-1.700	1.100																			1580029312.0	9.06	16.78
26/01/2020 09:01:53	26012020	260120	090153	176.280	12.510635	-57.244997	176.210	-0.290	-0.300	0.870	176.280	-1.700	1.300																			1580029313.0	9.15	16.95
26/01/2020 09:01:54	26012020	260120	090154	176.290	12.510593	-57.244998	176.240	-0.270	-0.100	0.930	176.300	-1.500	1.400																			1580029314.0	8.89	16.46
26/01/2020 09:01:55	26012020	260120	090155	176.380	12.510553	-57.245000	176.340	-0.170	0.060	0.850	176.400	-1.400	1.300																			1580029315.0	8.75	16.21
26/01/2020 09:01:56	26012020	260120	090156	176.460	12.510512	-57.245000	176.380	-0.050	0.010	0.820	176.460	-1.400	1.300																			1580029316.0	8.83	16.35
26/01/2020 09:01:57	26012020	260120	090157	176.410	12.510470	-57.245000	176.300	0.070	-0.140	0.840	176.390	-1.500	1.300																			1580029317.0	9.03	16.72
26/01/2020 09:01:58	26012020	260120	090158	176.340	12.510428	-57.244998	176.240	0.140	-0.120	0.840	176.330	-1.500	1.300																			1580029318.0	9.01	16.69
26/01/2020 09:01:59	26012020	260120	090159	176.300	12.510387	-57.244998	176.200	0.150	0.040	0.780	176.290	-1.400	1.200																			1580029319.0	8.72	16.15
26/01/2020 09:02:00	26012020	260120	090200	176.240	12.510348	-57.244998	176.120	0.160	0.050	0.710	176.220	-1.400	1.100	1013.70	25.60	25.60	19.80	19.90	-1.00	70.00	70.00	428.00	25.40	307.00	9.90	97.00	8.00	15	3207.00	27.40	27.40	1580029320.0	8.57	15.87
26/01/2020 09:02:01	26012020	260120	090201	176.130	12.510307	-57.244997	175.990	0.200	-0.190	0.710	176.100	-1.600	1.100																			1580029321.0	8.76	16.22
26/01/2020 09:02:02	26012020	260120	090202	176.010	12.510265	-57.244998	175.870	0.240	-0.500	0.810	175.980	-1.900	1.200																			1580029322.0	8.96	16.59
26/01/2020 09:02:03	26012020	260120	090203	175.860	12.510223	-57.245000	175.720	0.240	-0.710	0.940	175.830	-2.100	1.400																			1580029323.0	9.05	16.76
26/01/2020 09:02:04	26012020	260120	090204	175.730	12.510182	-57.245000	175.620	0.160	-0.660	1.000	175.710	-2.100	1.400																			1580029324.0	8.96	16.59
26/01/2020 09:02:05	26012020	260120	090205	175.690	12.510142	-57.245002	175.620	-0.020	-0.410	1.010	175.700	-1.800	1.400																			1580029325.0	8.77	16.24
26/01/2020 09:02:06	26012020	260120	090206	175.740	12.510100	-57.245002	175.670	-0.200	-0.190	1.010	175.750	-1.600	1.400																			1580029326.0	8.71	16.13
26/01/2020 09:02:07	26012020	260120	090207	175.720	12.510060	-57.245002	175.620	-0.260	-0.100	1.050	175.710	-1.500	1.500																			1580029327.0	8.87	16.43
26/01/2020 09:02:08	26012020	260120	090208	175.640	12.510017	-57.245002	175.560	-0.240	-0.030	1.130	175.630	-1.400	1.600																			1580029328.0	9.05	16.76
26/01/2020 09:02:09	26012020	260120	090209	175.620	12.509975	-57.245002	175.570	-0.230	0.080	1.120	175.630	-1.300	1.600																			1580029329.0	9.04	16.74
26/01/2020 09:02:10	26012020	260120	090210	175.680	12.509933	-57.245002	175.640	-0.290	0.160	1.010	175.690	-1.200	1.400																			1580029330.0	8.90	16.48
26/01/2020 09:02:11	26012020	260120	090211	175.690	12.509892	-57.245003	175.610	-0.280	0.040	0.990	175.680	-1.300	1.400																			1580029331.0	8.87	16.43
26/01/2020 09:02:12	26012020	260120	090212	175.610	12.509850	-57.245003	175.540	-0.110	-0.180	0.910	175.600	-1.600	1.400																			1580029332.0	9.01	16.69
26/01/2020 09:02:13	26012020	260120	090213	175.580	12.509808	-57.245003	175.550	0.140	-0.250	0.700	175.600	-1.700	1.100																			1580029333.0	8.98	16.63
26/01/2020 09:02:14	26012020	260120	090214	175.660	12.509768	-57.245002	175.620	0.300	-0.240	0.460	175.670	-1.600	0.900																			1580029334.0	8.75	16.21
26/01/2020 09:02:15	26012020	260120	090215	175.700	12.509728	-57.244998	175.630	0.310	-0.310	0.390	175.700	-1.700	0.800																			1580029335.0	8.68	16.08
26/01/2020 09:02:16	26012020	260120	090216	175.640	12.509687	-57.244997	175.540	0.240	-0.520	0.600	175.620	-1.900	1.000																			1580029336.0	8.84	16.37
26/01/2020 09:02:17	26012020	260120	090217	175.490	12.509643	-57.244998	175.370	0.170	-0.710	1.050	175.450	-2.100	1.400																			1580029337.0	9.12	16.89
26/01/2020 09:02:18	26012020	260120	090218	175.320	12.509602	-57.245000	175.260	0.070	-0.500	1.430	175.300	-1.900	1.800																			1580029338.0	9.14	16.93
26/01/2020 09:02:19	26012020	260120	090219	175.340	12.509562	-57.245002	175.360	-0.100	0.050	1.440	175.370	-1.400	1.900																			1580029339.0	8.74	16.19
26/01/2020 09:02:20	26012020	260120	090220	175.520	12.509522	-57.245002	175.550	-0.210	0.410	1.250	175.560	-1.000	1.700																			1580029340.0	8.44	15.63
26/01/2020 09:02:21	26012020	260120	090221	175.630	12.509482	-57.245002	175.570	-0.140	0.220	1.130	175.620	-1.200	1.600																			1580029341.0	8.75	16.21
26/01/2020 09:02:22	26012020	260120	090222	175.560	12.509438	-57.245002	175.470	0.030	-0.190	1.130	175.540	-1.600	1.600																			1580029342.0	9.27	17.17
26/01/2020 09:02:23	26012020	260120	090223	175.450	12.509395	-57.245002	175.360	0.100	-0.350	1.190	175.430	-1.700	1.600																			1580029343.0	9.28	17.19
26/01/2020 09:02:24	26012020	260120	090224	175.400	12.509353	-57.245000	175.360	-0.000	-0.150	1.100	175.400	-1.600	1.500																			1580029344.0	8.86	16.41
26/01/2020 09:02:25	26012020	260120	090225	175.440	12.509315	-57.245000	175.400	-0.160	0.010	1.000	175.450	-1.400	1.400																			1580029345.0	8.49	15.72
26/01/2020 09:02:26	26012020	260120	090226	175.460	12.509273	-57.245000	175.410	-0.190	-0.150	1.040	175.460	-1.500	1.500																			1580029346.0	8.62	15.96
26/01/2020 09:02:27	26012020	260120	090227	175.470	12.509232	-57.245000	175.440	-0.070	-0.470	1.010	175.490	-1.900	1.400																			1580029347.0	8.98	16.63
26/01/2020 09:02:28	26012020	260120	090228	175.530	12.509190	-57.245000	175.490	0.100	-0.710	0.910	175.540	-2.100	1.300																			1580029348.0	9.13	16.91
26/01/2020 09:02:29	26012020	260120	090229	175.600	12.509148	-57.245000	175.560	0.190	-0.700	0.840	175.610	-2.100	1.300																			1580029349.0	9.03	16.72
26/01/2020 09:02:30	26012020	260120	090230	175.700	12.509107	-57.244998	175.660	0.140	-0.440	0.730	175.720	-1.900	1.200																			1580029350.0	8.82	16.33
26/01/2020 09:02:31	26012020	260120	090231	175.770	12.509067	-57.244997	175.700	0.020	-0.140	0.740	175.770	-1.600	1.200																			1580029351.0	8.69	16.09
26/01/2020 09:02:32	26012020	260120	090232	175.760	12.509025	-57.244997	175.690	-0.080	0.020	0.920	175.760	-1.400	1.300																			1580029352.0	8.79	16.28
26/01/2020 09:02:33	26012020	260120	090233	175.730	12.508983	-57.244995	175.660	-0.130	0.020	1.140	175.720	-1.400	1.600																			1580029353.0	9.00	16.67
26/01/2020 09:02:34	26012020	260120	090234	175.630	12.508942	-57.244995	175.530	-0.120	-0.000	1.320	175.610	-1.400	1.700																			1580029354.0	9.17	16.98
26/01/2020 09:02:35	26012020	260120	090235	175.490	12.508898	-57.244997	175.380	-0.070	0.120	1.400	175.460	-1.300	1.800																			1580029355.0	9.07	16.80
26/01/2020 09:02:36	26012020	260120	090236	175.360	12.508858	-57.244997	175.300	-0.030	0.290	1.330	175.350	-1.100	1.800																			1580029356.0	8.82	16.33
26/01/2020 09:02:37	26012020	260120	090237	175.390	12.508818	-57.244995	175.380	-0.030	0.340	1.070	175.410	-1.100	1.500																			1580029357.0	8.69	16.09
26/01/2020 09:02:38	26012020	260120	090238	175.560	12.508777	-57.244995	175.530	-0.010	0.120	0.780	175.590	-1.300	1.200																			1580029358.0	8.67	16.06
26/01/2020 09:02:39	26012020	260120	090239	175.630	12.508737	-57.244993	175.540	0.130	-0.420	0.650	175.630	-1.800	1.100																			1580029359.0	8.90	16.48
26/01/2020 09:02:40	26012020	260120	090240	175.580	12.508693	-57.244993	175.510	0.290	-0.880	0.660	175.580	-2.300	1.100																			1580029360.0	9.17	16.98
26/01/2020 09:02:41	26012020	260120	090241	175.630	12.508652	-57.244993	175.630	0.260	-0.890	0.700	175.660	-2.300	1.100																			1580029361.0	9.00	16.67
26/01/2020 09:02:42	26012020	260120	090242	175.800	12.508612	-57.244993	175.810	0.000	-0.600	0.780	175.840	-2.000	1.200																			1580029362.0	8.59	15.91
26/01/2020 09:02:43	26012020	260120	090243	175.950	12.508572	-57.244995	175.900	-0.250	-0.440	0.900	175.960	-1.800	1.300																			1580029363.0	8.54	15.82
26/01/2020 09:02:44	26012020	260120	090244	175.930	12.508530	-57.244995	175.860	-0.300	-0.460	1.130	175.910	-1.900	1.500																			1580029364.0	8.93	16.54
26/01/2020 09:02:45	26012020	260120	090245	175.850	12.508488	-57.244997	175.790	-0.160	-0.330	1.260	175.840	-1.700	1.700																			1580029365.0	9.21	17.06
26/01/2020 09:02:46	26012020	260120	090246	175.840	12.508445	-57.244997	175.810	-0.000	0.050	1.140	175.840	-1.400	1.600																			1580029366.0	9.00	16.67
26/01/2020 09:02:47	26012020	260120	090247	175.890	12.508405	-57.244993	175.890	0.070	0.380	0.850	175.910	-1.000	1.300																			1580029367.0	8.78	16.26
26/01/2020 09:02:48	26012020	260120	090248	175.970	12.508363	-57.244992	175.920	0.060	0.420	0.740	175.970	-1.000	1.200																			1580029368.0	8.82	16.33
26/01/2020 09:02:49	26012020	260120	090249	175.930	12.508322	-57.244990	175.850	0.080	0.210	0.860	175.910	-1.200	1.300																			1580029369.0	9.03	16.72
26/01/2020 09:02:50	26012020	260120	090250	175.830	12.508280	-57.244990	175.750	0.130	-0.060	0.990	175.800	-1.400	1.400																			1580029370.0	9.14	16.93
26/01/2020 09:02:51	26012020	260120	090251	175.790	12.508238	-57.244990	175.770	0.140	-0.190	1.020	175.800	-1.600	1.500																			1580029371.0	9.04	16.74
26/01/2020 09:02:52	26012020	260120	090252	175.910	12.508197	-57.244992	175.910	0.100	-0.200	1.000	175.940	-1.600	1.400																			1580029372.0	8.75	16.21
26/01/2020 09:02:53	26012020	260120	090253	176.050	12.508157	-57.244992	176.040	0.060	-0.300	0.890	176.080	-1.700	1.300																			1580029373.0	8.62	15.96
26/01/2020 09:02:54	26012020	260120	090254	176.170	12.508117	-57.244992	176.160	0.040	-0.570	0.770	176.190	-1.900	1.200																			1580029374.0	8.78	16.26
26/01/2020 09:02:55	26012020	260120	090255	176.250	12.508073	-57.244990	176.210	0.020	-0.830	0.810	176.260	-2.200	1.200																			1580029375.0	9.00	16.67
26/01/2020 09:02:56	26012020	260120	090256	176.220	12.508032	-57.244992	176.110	-0.010	-0.840	0.950	176.200	-2.200	1.400																			1580029376.0	9.06	16.78
26/01/2020 09:02:57	26012020	260120	090257	176.080	12.507990	-57.244992	175.990	-0.100	-0.520	1.050	176.060	-1.900	1.500																			1580029377.0	8.94	16.56
26/01/2020 09:02:58	26012020	260120	090258	176.070	12.507950	-57.244992	176.060	-0.300	0.070	0.980	176.090	-1.400	1.400																			1580029378.0	8.70	16.11
26/01/2020 09:02:59	26012020	260120	090259	176.240	12.507910	-57.244992	176.250	-0.450	0.490	0.760	176.280	-0.900	1.200																			1580029379.0	8.50	15.74
26/01/2020 09:03:00	26012020	260120	090300	176.380	12.507870	-57.244992	176.330	-0.310	0.370	0.600	176.390	-1.000	1.000	1013.70	25.60	25.70	20.20	20.10	-1.00	71.00	71.00	428.00	25.40	314.00	9.70	103.00	7.30	15	3140.00	27.40	27.40	1580029380.0	8.78	16.26
26/01/2020 09:03:01	26012020	260120	090301	176.420	12.507827	-57.244992	176.370	0.080	-0.030	0.520	176.440	-1.400	0.900																			1580029381.0	9.30	17.22
26/01/2020 09:03:02	26012020	260120	090302	176.550	12.507783	-57.244992	176.530	0.390	-0.180	0.470	176.570	-1.600	0.900																			1580029382.0	9.28	17.19
26/01/2020 09:03:03	26012020	260120	090303	176.640	12.507742	-57.244992	176.550	0.450	-0.160	0.570	176.630	-1.600	1.000																			1580029383.0	8.80	16.30
26/01/2020 09:03:04	26012020	260120	090304	176.520	12.507702	-57.244992	176.370	0.370	-0.270	0.810	176.480	-1.700	1.200																			1580029384.0	8.68	16.08
26/01/2020 09:03:05	26012020	260120	090305	176.340	12.507660	-57.244992	176.240	0.230	-0.430	1.120	176.320	-1.800	1.500																			1580029385.0	8.89	16.46
26/01/2020 09:03:06	26012020	260120	090306	176.320	12.507618	-57.244993	176.290	0.060	-0.460	1.350	176.340	-1.900	1.800																			1580029386.0	8.97	16.61
26/01/2020 09:03:07	26012020	260120	090307	176.450	12.507578	-57.244995	176.450	-0.070	-0.330	1.370	176.490	-1.700	1.800																			1580029387.0	8.81	16.32
26/01/2020 09:03:08	26012020	260120	090308	176.620	12.507537	-57.244997	176.600	-0.160	-0.280	1.170	176.640	-1.700	1.600																			1580029388.0	8.74	16.19
26/01/2020 09:03:09	26012020	260120	090309	176.740	12.507497	-57.244995	176.680	-0.200	-0.350	0.960	176.750	-1.700	1.400																			1580029389.0	8.89	16.46
26/01/2020 09:03:10	26012020	260120	090310	176.770	12.507453	-57.244995	176.690	-0.210	-0.380	0.870	176.780	-1.800	1.300																			1580029390.0	9.10	16.85
26/01/2020 09:03:11	26012020	260120	090311	176.840	12.507412	-57.244997	176.780	-0.220	-0.170	0.830	176.850	-1.600	1.300																			1580029391.0	8.99	16.65
26/01/2020 09:03:12	26012020	260120	090312	176.920	12.507372	-57.244997	176.840	-0.170	0.170	0.760	176.930	-1.200	1.200																			1580029392.0	8.69	16.09
26/01/2020 09:03:13	26012020	260120	090313	176.900	12.507332	-57.244997	176.760	-0.050	0.280	0.740	176.880	-1.100	1.200																			1580029393.0	8.63	15.98
26/01/2020 09:03:14	26012020	260120	090314	176.730	12.507290	-57.244997	176.550	0.100	0.120	0.890	176.690	-1.300	1.300																			1580029394.0	8.85	16.39
26/01/2020 09:03:15	26012020	260120	090315	176.500	12.507248	-57.244998	176.320	0.200	-0.160	1.120	176.450	-1.500	1.500																			1580029395.0	9.05	16.76
26/01/2020 09:03:16	26012020	260120	090316	176.280	12.507205	-57.245000	176.130	0.230	-0.340	1.280	176.240	-1.700	1.700																			1580029396.0	9.07	16.80
26/01/2020 09:03:17	26012020	260120	090317	176.110	12.507165	-57.245000	175.980	0.210	-0.390	1.360	176.080	-1.800	1.800																			1580029397.0	8.91	16.50
26/01/2020 09:03:18	26012020	260120	090318	175.980	12.507123	-57.245002	175.880	0.150	-0.360	1.310	175.970	-1.800	1.800																			1580029398.0	8.80	16.30
26/01/2020 09:03:19	26012020	260120	090319	176.010	12.507083	-57.245003	175.990	0.040	-0.280	1.070	176.040	-1.700	1.500																			1580029399.0	8.71	16.13
26/01/2020 09:03:20	26012020	260120	090320	176.160	12.507042	-57.245003	176.130	-0.070	-0.330	0.760	176.180	-1.700	1.200																			1580029400.0	8.69	16.09
26/01/2020 09:03:21	26012020	260120	090321	176.220	12.507002	-57.245003	176.130	-0.080	-0.540	0.570	176.220	-1.900	1.000																			1580029401.0	8.93	16.54
26/01/2020 09:03:22	26012020	260120	090322	176.160	12.506958	-57.245002	176.050	-0.000	-0.620	0.510	176.130	-2.000	0.900																			1580029402.0	9.15	16.95
26/01/2020 09:03:23	26012020	260120	090323	176.060	12.506917	-57.245002	175.980	0.070	-0.400	0.560	176.050	-1.800	1.000																			1580029403.0	9.04	16.74
26/01/2020 09:03:24	26012020	260120	090324	176.060	12.506875	-57.245000	176.050	0.010	0.050	0.690	176.070	-1.400	1.100																			1580029404.0	8.78	16.26
26/01/2020 09:03:25	26012020	260120	090325	176.170	12.506835	-57.245000	176.170	-0.150	0.380	0.910	176.190	-1.000	1.300																			1580029405.0	8.58	15.89
26/01/2020 09:03:26	26012020	260120	090326	176.190	12.506795	-57.245002	176.120	-0.240	0.270	1.280	176.180	-1.100	1.700																			1580029406.0	8.76	16.22
26/01/2020 09:03:27	26012020	260120	090327	176.020	12.506752	-57.245003	175.910	-0.200	-0.080	1.680	175.970	-1.400	2.100																			1580029407.0	9.20	17.04
26/01/2020 09:03:28	26012020	260120	090328	175.820	12.506708	-57.245005	175.750	-0.060	-0.270	1.910	175.790	-1.700	2.300																			1580029408.0	9.27	17.17
26/01/2020 09:03:29	26012020	260120	090329	175.680	12.506668	-57.245007	175.590	0.060	-0.220	1.850	175.640	-1.600	2.300																			1580029409.0	8.94	16.56
26/01/2020 09:03:30	26012020	260120	090330	175.490	12.506627	-57.245007	175.400	0.110	-0.110	1.660	175.450	-1.500	2.100																			1580029410.0	8.66	16.04
26/01/2020 09:03:31	26012020	260120	090331	175.320	12.506587	-57.245007	175.230	0.150	-0.090	1.320	175.290	-1.500	1.800																			1580029411.0	8.61	15.95
26/01/2020 09:03:32	26012020	260120	090332	175.210	12.506547	-57.245005	175.150	0.250	-0.230	0.950	175.210	-1.600	1.400																			1580029412.0	8.71	16.13
26/01/2020 09:03:33	26012020	260120	090333	175.250	12.506505	-57.245003	175.260	0.290	-0.390	0.590	175.280	-1.800	1.100																			1580029413.0	8.89	16.46
26/01/2020 09:03:34	26012020	260120	090334	175.450	12.506465	-57.245002	175.500	0.160	-0.420	0.460	175.500	-1.800	0.900																			1580029414.0	8.84	16.37
26/01/2020 09:03:35	26012020	260120	090335	175.680	12.506423	-57.245002	175.720	-0.090	-0.390	0.570	175.720	-1.800	1.000																			1580029415.0	8.74	16.19
26/01/2020 09:03:36	26012020	260120	090336	175.870	12.506383	-57.245003	175.890	-0.240	-0.330	0.750	175.900	-1.700	1.200																			1580029416.0	8.76	16.22
26/01/2020 09:03:37	26012020	260120	090337	176.030	12.506342	-57.245005	176.040	-0.190	-0.300	0.900	176.060	-1.700	1.300																			1580029417.0	8.80	16.30
26/01/2020 09:03:38	26012020	260120	090338	176.130	12.506300	-57.245005	176.120	-0.060	-0.360	1.070	176.140	-1.700	1.500																			1580029418.0	8.88	16.45
26/01/2020 09:03:39	26012020	260120	090339	176.100	12.506258	-57.245005	176.020	0.020	-0.470	1.230	176.070	-1.800	1.600																			1580029419.0	9.05	16.76
26/01/2020 09:03:40	26012020	260120	090340	175.930	12.506217	-57.245003	175.840	-0.020	-0.430	1.290	175.890	-1.800	1.700																			1580029420.0	9.11	16.87
26/01/2020 09:03:41	26012020	260120	090341	175.760	12.506175	-57.245003	175.690	-0.110	-0.170	1.330	175.730	-1.600	1.800																			1580029421.0	8.97	16.61
26/01/2020 09:03:42	26012020	260120	090342	175.630	12.506133	-57.245003	175.580	-0.170	0.150	1.310	175.610	-1.300	1.700																			1580029422.0	8.79	16.28
26/01/2020 09:03:43	26012020	260120	090343	175.560	12.506093	-57.245003	175.520	-0.180	0.350	1.200	175.560	-1.000	1.600																			1580029423.0	8.76	16.22
26/01/2020 09:03:44	26012020	260120	090344	175.590	12.506052	-57.245003	175.590	-0.170	0.350	0.980	175.610	-1.000	1.400																			1580029424.0	8.84	16.37
26/01/2020 09:03:45	26012020	260120	090345	175.720	12.506010	-57.245003	175.700	-0.150	0.200	0.820	175.740	-1.200	1.300																			1580029425.0	8.90	16.48
26/01/2020 09:03:46	26012020	260120	090346	175.830	12.505970	-57.245003	175.800	-0.060	0.010	0.730	175.840	-1.400	1.200																			1580029426.0	8.88	16.45
26/01/2020 09:03:47	26012020	260120	090347	175.880	12.505928	-57.245003	175.830	0.140	-0.200	0.640	175.870	-1.600	1.100																			1580029427.0	8.78	16.26
26/01/2020 09:03:48	26012020	260120	090348	175.830	12.505888	-57.245003	175.770	0.340	-0.450	0.650	175.820	-1.800	1.100																			1580029428.0	8.76	16.22
26/01/2020 09:03:49	26012020	260120	090349	175.770	12.505847	-57.245003	175.710	0.370	-0.680	0.820	175.770	-2.100	1.200																			1580029429.0	8.83	16.35
26/01/2020 09:03:50	26012020	260120	090350	175.750	12.505805	-57.245003	175.720	0.220	-0.720	1.090	175.750	-2.100	1.500																			1580029430.0	8.83	16.35
26/01/2020 09:03:51	26012020	260120	090351	175.770	12.505765	-57.245005	175.740	-0.010	-0.590	1.350	175.770	-2.000	1.800																			1580029431.0	8.70	16.11
26/01/2020 09:03:52	26012020	260120	090352	175.730	12.505725	-57.245007	175.670	-0.150	-0.470	1.550	175.710	-1.900	2.000																			1580029432.0	8.72	16.15
26/01/2020 09:03:53	26012020	260120	090353	175.680	12.505683	-57.245008	175.660	-0.200	-0.330	1.550	175.680	-1.700	2.000																			1580029433.0	8.87	16.43
26/01/2020 09:03:54	26012020	260120	090354	175.680	12.505642	-57.245008	175.650	-0.180	-0.170	1.360	175.680	-1.600	1.800																			1580029434.0	8.90	16.48
26/01/2020 09:03:55	26012020	260120	090355	175.640	12.505600	-57.245008	175.590	-0.090	-0.020	1.110	175.630	-1.400	1.600																			1580029435.0	8.92	16.52
26/01/2020 09:03:56	26012020	260120	090356	175.620	12.505558	-57.245005	175.600	0.030	0.090	0.820	175.620	-1.300	1.300																			1580029436.0	8.97	16.61
26/01/2020 09:03:57	26012020	260120	090357	175.680	12.505517	-57.245003	175.670	0.070	0.140	0.620	175.690	-1.300	1.100																			1580029437.0	8.95	16.58
26/01/2020 09:03:58	26012020	260120	090358	175.750	12.505475	-57.245002	175.740	-0.030	0.110	0.610	175.760	-1.300	1.000																			1580029438.0	8.94	16.56
26/01/2020 09:03:59	26012020	260120	090359	175.780	12.505435	-57.245002	175.770	-0.210	0.050	0.850	175.780	-1.400	1.300																			1580029439.0	8.93	16.54
26/01/2020 09:04:00	26012020	260120	090400	175.750	12.505393	-57.245003	175.680	-0.300	-0.040	1.190	175.730	-1.400	1.600	1013.70	25.60	25.60	20.00	20.10	-1.00	71.00	71.00	428.00	25.40	316.00	10.10	107.00	7.60	15	3159.00	27.40	27.40	1580029440.0	8.86	16.41
26/01/2020 09:04:01	26012020	260120	090401	175.640	12.505352	-57.245005	175.590	-0.200	-0.210	1.370	175.620	-1.600	1.800																			1580029441.0	8.88	16.45
26/01/2020 09:04:02	26012020	260120	090402	175.590	12.505310	-57.245007	175.550	0.020	-0.370	1.310	175.580	-1.800	1.800																			1580029442.0	8.91	16.50
26/01/2020 09:04:03	26012020	260120	090403	175.600	12.505270	-57.245005	175.580	0.190	-0.410	1.130	175.610	-1.800	1.600																			1580029443.0	8.81	16.32
26/01/2020 09:04:04	26012020	260120	090404	175.620	12.505228	-57.245005	175.590	0.260	-0.400	0.920	175.620	-1.800	1.400																			1580029444.0	8.69	16.09
26/01/2020 09:04:05	26012020	260120	090405	175.560	12.505188	-57.245003	175.470	0.230	-0.440	0.850	175.540	-1.800	1.300																			1580029445.0	8.72	16.15
26/01/2020 09:04:06	26012020	260120	090406	175.420	12.505147	-57.245002	175.360	0.110	-0.490	0.950	175.400	-1.900	1.400																			1580029446.0	8.91	16.50
26/01/2020 09:04:07	26012020	260120	090407	175.400	12.505105	-57.245003	175.410	-0.070	-0.320	1.040	175.430	-1.700	1.500																			1580029447.0	8.95	16.58
26/01/2020 09:04:08	26012020	260120	090408	175.550	12.505065	-57.245005	175.580	-0.210	-0.020	1.080	175.580	-1.400	1.500																			1580029448.0	8.71	16.13
26/01/2020 09:04:09	26012020	260120	090409	175.670	12.505025	-57.245005	175.650	-0.170	0.100	1.010	175.670	-1.300	1.400																			1580029449.0	8.66	16.04
26/01/2020 09:04:10	26012020	260120	090410	175.650	12.504983	-57.245005	175.610	0.020	-0.060	0.960	175.640	-1.400	1.400																			1580029450.0	8.94	16.56
26/01/2020 09:04:11	26012020	260120	090411	175.650	12.504940	-57.245003	175.680	0.170	-0.160	0.920	175.670	-1.600	1.400																			1580029451.0	9.16	16.96
26/01/2020 09:04:12	26012020	260120	090412	175.780	12.504900	-57.245002	175.800	0.130	-0.040	0.950	175.800	-1.400	1.400																			1580029452.0	8.89	16.46
26/01/2020 09:04:13	26012020	260120	090413	175.780	12.504858	-57.245002	175.690	0.050	-0.070	1.140	175.740	-1.400	1.600																			1580029453.0	8.66	16.04
26/01/2020 09:04:14	26012020	260120	090414	175.610	12.504818	-57.245002	175.550	0.060	-0.240	1.310	175.590	-1.600	1.700																			1580029454.0	8.93	16.54
26/01/2020 09:04:15	26012020	260120	090415	175.570	12.504775	-57.245002	175.560	0.060	-0.250	1.370	175.580	-1.700	1.800																			1580029455.0	8.98	16.63
26/01/2020 09:04:16	26012020	260120	090416	175.690	12.504735	-57.245002	175.690	-0.020	-0.130	1.240	175.720	-1.500	1.700																			1580029456.0	8.69	16.09
26/01/2020 09:04:17	26012020	260120	090417	175.780	12.504695	-57.245002	175.720	-0.110	-0.210	1.030	175.780	-1.600	1.500																			1580029457.0	8.57	15.87
26/01/2020 09:04:18	26012020	260120	090418	175.690	12.504653	-57.245002	175.590	-0.090	-0.530	0.940	175.660	-1.900	1.400																			1580029458.0	8.89	16.46
26/01/2020 09:04:19	26012020	260120	090419	175.530	12.504612	-57.245002	175.440	-0.010	-0.710	0.890	175.510	-2.100	1.300																			1580029459.0	9.17	16.98
26/01/2020 09:04:20	26012020	260120	090420	175.520	12.504570	-57.245000	175.510	-0.000	-0.530	0.660	175.550	-2.000	1.100																			1580029460.0	9.02	16.71
26/01/2020 09:04:21	26012020	260120	090421	175.700	12.504528	-57.245000	175.700	-0.140	-0.190	0.490	175.740	-1.600	0.900																			1580029461.0	8.69	16.09
26/01/2020 09:04:22	26012020	260120	090422	175.840	12.504488	-57.245000	175.790	-0.300	-0.010	0.580	175.850	-1.400	1.000																			1580029462.0	8.68	16.08
26/01/2020 09:04:23	26012020	260120	090423	175.820	12.504447	-57.245000	175.740	-0.310	0.000	0.910	175.800	-1.400	1.300																			1580029463.0	8.97	16.61
26/01/2020 09:04:24	26012020	260120	090424	175.740	12.504405	-57.245003	175.680	-0.130	0.090	1.110	175.740	-1.300	1.500																			1580029464.0	9.09	16.83
26/01/2020 09:04:25	26012020	260120	090425	175.740	12.504363	-57.245003	175.700	0.140	0.270	1.110	175.750	-1.100	1.500																			1580029465.0	8.87	16.43
26/01/2020 09:04:26	26012020	260120	090426	175.750	12.504323	-57.245003	175.700	0.360	0.310	1.050	175.740	-1.100	1.500																			1580029466.0	8.70	16.11
26/01/2020 09:04:27	26012020	260120	090427	175.690	12.504282	-57.245002	175.650	0.400	0.140	0.960	175.680	-1.200	1.400																			1580029467.0	8.78	16.26
26/01/2020 09:04:28	26012020	260120	090428	175.700	12.504242	-57.245000	175.700	0.280	-0.110	0.880	175.720	-1.500	1.300																			1580029468.0	8.82	16.33
26/01/2020 09:04:29	26012020	260120	090429	175.800	12.504200	-57.245000	175.810	0.140	-0.400	0.880	175.820	-1.800	1.300																			1580029469.0	8.80	16.30
26/01/2020 09:04:30	26012020	260120	090430	175.880	12.504160	-57.245000	175.870	0.110	-0.650	0.860	175.880	-2.000	1.300																			1580029470.0	8.81	16.32
26/01/2020 09:04:31	26012020	260120	090431	175.890	12.504118	-57.245002	175.860	0.170	-0.820	0.880	175.890	-2.200	1.300																			1580029471.0	8.83	16.35
26/01/2020 09:04:32	26012020	260120	090432	175.890	12.504077	-57.245000	175.890	0.170	-0.820	0.870	175.900	-2.200	1.300																			1580029472.0	8.85	16.39
26/01/2020 09:04:33	26012020	260120	090433	175.960	12.504037	-57.245000	175.960	-0.020	-0.660	0.860	175.970	-2.100	1.300																			1580029473.0	8.78	16.26
26/01/2020 09:04:34	26012020	260120	090434	175.940	12.503995	-57.245000	175.870	-0.300	-0.530	1.090	175.910	-1.900	1.500																			1580029474.0	8.83	16.35
26/01/2020 09:04:35	26012020	260120	090435	175.760	12.503953	-57.245002	175.670	-0.500	-0.410	1.480	175.720	-1.800	1.900																			1580029475.0	9.08	16.82
26/01/2020 09:04:36	26012020	260120	090436	175.570	12.503910	-57.245003	175.500	-0.550	-0.150	1.770	175.550	-1.600	2.200																			1580029476.0	9.20	17.04
26/01/2020 09:04:37	26012020	260120	090437	175.490	12.503868	-57.245007	175.430	-0.440	0.230	1.810	175.470	-1.200	2.200																			1580029477.0	9.08	16.82
26/01/2020 09:04:38	26012020	260120	090438	175.440	12.503827	-57.245007	175.400	-0.220	0.580	1.570	175.450	-0.800	2.000																			1580029478.0	8.91	16.50
26/01/2020 09:04:39	26012020	260120	090439	175.510	12.503785	-57.245007	175.500	-0.030	0.790	1.060	175.540	-0.600	1.500																			1580029479.0	8.82	16.33
26/01/2020 09:04:40	26012020	260120	090440	175.690	12.503745	-57.245003	175.700	0.120	0.750	0.550	175.730	-0.600	1.000																			1580029480.0	8.71	16.13
26/01/2020 09:04:41	26012020	260120	090441	175.940	12.503705	-57.245000	175.940	0.300	0.320	0.180	175.980	-1.100	0.600																			1580029481.0	8.75	16.21
26/01/2020 09:04:42	26012020	260120	090442	176.080	12.503663	-57.244998	176.020	0.530	-0.370	0.150	176.100	-1.700	0.600																			1580029482.0	8.96	16.59
26/01/2020 09:04:43	26012020	260120	090443	176.170	12.503622	-57.244998	176.130	0.650	-0.840	0.390	176.190	-2.200	0.800																			1580029483.0	9.06	16.78
26/01/2020 09:04:44	26012020	260120	090444	176.280	12.503580	-57.245000	176.190	0.560	-0.900	0.740	176.280	-2.300	1.100																			1580029484.0	8.66	16.04
26/01/2020 09:04:45	26012020	260120	090445	176.180	12.503542	-57.245000	176.000	0.400	-0.900	1.110	176.120	-2.300	1.500																			1580029485.0	8.37	15.50
26/01/2020 09:04:46	26012020	260120	090446	175.850	12.503502	-57.245002	175.670	0.220	-1.030	1.510	175.780	-2.400	1.900																			1580029486.0	8.68	16.08
26/01/2020 09:04:47	26012020	260120	090447	175.490	12.503458	-57.245003	175.350	-0.050	-1.030	1.870	175.430	-2.400	2.300																			1580029487.0	9.13	16.91
26/01/2020 09:04:48	26012020	260120	090448	175.290	12.503417	-57.245005	175.250	-0.440	-0.550	1.930	175.290	-2.000	2.400																			1580029488.0	9.13	16.91
26/01/2020 09:04:49	26012020	260120	090449	175.360	12.503377	-57.245007	175.380	-0.780	0.180	1.670	175.390	-1.300	2.100																			1580029489.0	8.73	16.17
26/01/2020 09:04:50	26012020	260120	090450	175.540	12.503337	-57.245008	175.580	-0.800	0.620	1.280	175.580	-0.800	1.700																			1580029490.0	8.61	15.95
26/01/2020 09:04:51	26012020	260120	090451	175.740	12.503295	-57.245007	175.780	-0.470	0.610	0.810	175.780	-0.800	1.300																			1580029491.0	8.97	16.61
26/01/2020 09:04:52	26012020	260120	090452	175.930	12.503252	-57.245005	175.960	-0.000	0.380	0.410	175.970	-1.000	0.900																			1580029492.0	9.24	17.11
26/01/2020 09:04:53	26012020	260120	090453	176.120	12.503208	-57.245002	176.120	0.320	0.180	0.160	176.150	-1.200	0.600																			1580029493.0	9.17	16.98
26/01/2020 09:04:54	26012020	260120	090454	176.200	12.503168	-57.245000	176.140	0.370	0.030	0.300	176.190	-1.400	0.700																			1580029494.0	8.87	16.43
26/01/2020 09:04:55	26012020	260120	090455	176.110	12.503127	-57.245000	176.010	0.220	-0.170	0.750	176.080	-1.600	1.100																			1580029495.0	8.70	16.11
26/01/2020 09:04:56	26012020	260120	090456	175.940	12.503087	-57.245002	175.820	0.090	-0.420	1.260	175.890	-1.800	1.700																			1580029496.0	8.74	16.19
26/01/2020 09:04:57	26012020	260120	090457	175.710	12.503045	-57.245005	175.580	0.110	-0.600	1.580	175.660	-2.000	2.000																			1580029497.0	8.87	16.43
26/01/2020 09:04:58	26012020	260120	090458	175.460	12.503005	-57.245008	175.370	0.240	-0.590	1.570	175.430	-2.000	2.000																			1580029498.0	8.80	16.30
26/01/2020 09:04:59	26012020	260120	090459	175.330	12.502965	-57.245008	175.290	0.290	-0.410	1.330	175.330	-1.800	1.800																			1580029499.0	8.63	15.98
26/01/2020 09:05:00	26012020	260120	090500	175.350	12.502925	-57.245007	175.330	0.190	-0.230	0.960	175.360	-1.600	1.400	1013.70	25.60	25.60	19.80	19.90	-1.00	70.00	70.00	427.00	25.40	313.00	10.00	103.00	7.60	15	3273.00	27.40	27.40	1580029500.0	8.50	15.74
26/01/2020 09:05:01	26012020	260120	090501	175.400	12.502885	-57.245005	175.370	-0.010	-0.270	0.680	175.410	-1.700	1.100																			1580029501.0	8.61	15.95
26/01/2020 09:05:02	26012020	260120	090502	175.460	12.502843	-57.245003	175.420	-0.160	-0.450	0.590	175.470	-1.800	1.000																			1580029502.0	8.95	16.58
26/01/2020 09:05:03	26012020	260120	090503	175.520	12.502802	-57.245005	175.460	-0.150	-0.530	0.710	175.520	-1.900	1.100																			1580029503.0	9.12	16.89
26/01/2020 09:05:04	26012020	260120	090504	175.510	12.502758	-57.245005	175.470	-0.040	-0.320	0.880	175.510	-1.800	1.300																			1580029504.0	9.05	16.76
26/01/2020 09:05:05	26012020	260120	090505	175.560	12.502718	-57.245005	175.550	-0.030	0.100	0.900	175.580	-1.300	1.300																			1580029505.0	8.75	16.21
26/01/2020 09:05:06	26012020	260120	090506	175.670	12.502678	-57.245003	175.660	-0.160	0.380	0.850	175.680	-1.000	1.300																			1580029506.0	8.53	15.80
26/01/2020 09:05:07	26012020	260120	090507	175.680	12.502638	-57.245003	175.580	-0.260	0.260	0.910	175.660	-1.100	1.300																			1580029507.0	8.71	16.13
26/01/2020 09:05:08	26012020	260120	090508	175.490	12.502595	-57.245003	175.360	-0.160	-0.130	1.090	175.440	-1.500	1.500																			1580029508.0	9.10	16.85
26/01/2020 09:05:09	26012020	260120	090509	175.310	12.502553	-57.245003	175.220	0.020	-0.320	1.190	175.290	-1.700	1.600																			1580029509.0	9.25	17.13
26/01/2020 09:05:10	26012020	260120	090510	175.270	12.502512	-57.245005	175.200	0.120	-0.190	1.230	175.270	-1.600	1.700																			1580029510.0	8.86	16.41
26/01/2020 09:05:11	26012020	260120	090511	175.280	12.502472	-57.245005	175.220	0.120	-0.030	1.020	175.290	-1.400	1.500																			1580029511.0	8.49	15.72
26/01/2020 09:05:12	26012020	260120	090512	175.290	12.502432	-57.245005	175.220	0.170	-0.120	0.710	175.290	-1.500	1.200																			1580029512.0	8.51	15.76
26/01/2020 09:05:13	26012020	260120	090513	175.270	12.502392	-57.245003	175.180	0.260	-0.410	0.620	175.260	-1.800	1.100																			1580029513.0	8.80	16.30
26/01/2020 09:05:14	26012020	260120	090514	175.220	12.502350	-57.245002	175.120	0.260	-0.620	0.700	175.210	-2.000	1.100																			1580029514.0	8.95	16.58
26/01/2020 09:05:15	26012020	260120	090515	175.140	12.502308	-57.245002	175.030	0.110	-0.690	0.910	175.120	-2.100	1.300																			1580029515.0	8.92	16.52
26/01/2020 09:05:16	26012020	260120	090516	175.050	12.502267	-57.245003	174.960	-0.090	-0.550	1.080	175.050	-2.000	1.500																			1580029516.0	8.91	16.50
26/01/2020 09:05:17	26012020	260120	090517	175.070	12.502227	-57.245003	175.050	-0.250	-0.160	1.180	175.100	-1.600	1.600																			1580029517.0	8.76	16.22
26/01/2020 09:05:18	26012020	260120	090518	175.230	12.502187	-57.245005	175.210	-0.280	0.190	1.160	175.260	-1.200	1.600																			1580029518.0	8.55	15.83
26/01/2020 09:05:19	26012020	260120	090519	175.300	12.502147	-57.245005	175.230	-0.160	0.170	1.080	175.300	-1.200	1.500																			1580029519.0	8.70	16.11
26/01/2020 09:05:20	26012020	260120	090520	175.260	12.502103	-57.245003	175.180	-0.020	-0.020	1.020	175.250	-1.400	1.500																			1580029520.0	9.07	16.80
26/01/2020 09:05:21	26012020	260120	090521	175.240	12.502062	-57.245002	175.220	0.010	-0.050	0.910	175.270	-1.500	1.300																			1580029521.0	9.09	16.83
26/01/2020 09:05:22	26012020	260120	090522	175.370	12.502022	-57.245000	175.350	-0.050	0.010	0.810	175.400	-1.400	1.200																			1580029522.0	8.77	16.24
26/01/2020 09:05:23	26012020	260120	090523	175.430	12.501980	-57.245000	175.340	-0.040	-0.050	0.810	175.420	-1.400	1.200																			1580029523.0	8.66	16.04
26/01/2020 09:05:24	26012020	260120	090524	175.350	12.501940	-57.245000	175.250	0.110	-0.210	0.810	175.320	-1.600	1.200																			1580029524.0	8.80	16.30
26/01/2020 09:05:25	26012020	260120	090525	175.250	12.501898	-57.245000	175.180	0.250	-0.280	0.700	175.240	-1.700	1.100																			1580029525.0	8.82	16.33
26/01/2020 09:05:26	26012020	260120	090526	175.240	12.501858	-57.244998	175.170	0.290	-0.330	0.550	175.230	-1.700	1.000																			1580029526.0	8.64	16.00
26/01/2020 09:05:27	26012020	260120	090527	175.160	12.501818	-57.244998	175.030	0.250	-0.560	0.550	175.130	-2.000	1.000																			1580029527.0	8.74	16.19
26/01/2020 09:05:28	26012020	260120	090528	175.060	12.501777	-57.244997	174.980	0.130	-0.720	0.660	175.060	-2.100	1.100																			1580029528.0	9.05	16.76
26/01/2020 09:05:29	26012020	260120	090529	175.100	12.501735	-57.244997	175.070	-0.100	-0.510	0.890	175.120	-1.900	1.300																			1580029529.0	8.96	16.59
26/01/2020 09:05:30	26012020	260120	090530	175.230	12.501693	-57.244998	175.210	-0.330	-0.110	1.010	175.260	-1.500	1.400																			1580029530.0	8.65	16.02
26/01/2020 09:05:31	26012020	260120	090531	175.370	12.501653	-57.245000	175.340	-0.410	0.150	1.070	175.390	-1.300	1.500																			1580029531.0	8.58	15.89
26/01/2020 09:05:32	26012020	260120	090532	175.450	12.501613	-57.245000	175.400	-0.310	0.140	1.160	175.460	-1.300	1.600																			1580029532.0	8.82	16.33
26/01/2020 09:05:33	26012020	260120	090533	175.500	12.501572	-57.245002	175.410	-0.080	-0.050	1.170	175.500	-1.400	1.600																			1580029533.0	9.05	16.76
26/01/2020 09:05:34	26012020	260120	090534	175.430	12.501528	-57.245000	175.300	0.140	-0.190	1.100	175.400	-1.600	1.500																			1580029534.0	9.12	16.89
26/01/2020 09:05:35	26012020	260120	090535	175.280	12.501487	-57.245000	175.160	0.230	-0.120	0.930	175.260	-1.500	1.400																			1580029535.0	8.96	16.59
26/01/2020 09:05:36	26012020	260120	090536	175.220	12.501447	-57.244997	175.140	0.150	0.040	0.740	175.230	-1.400	1.200																			1580029536.0	8.64	16.00
26/01/2020 09:05:37	26012020	260120	090537	175.260	12.501407	-57.244995	175.180	-0.010	0.010	0.690	175.260	-1.400	1.100																			1580029537.0	8.56	15.85
26/01/2020 09:05:38	26012020	260120	090538	175.240	12.501367	-57.244995	175.130	-0.150	-0.260	0.860	175.220	-1.600	1.300																			1580029538.0	8.77	16.24
26/01/2020 09:05:39	26012020	260120	090539	175.110	12.501323	-57.244997	174.970	-0.140	-0.580	1.090	175.070	-2.000	1.500																			1580029539.0	9.08	16.82
26/01/2020 09:05:40	26012020	260120	090540	174.960	12.501282	-57.245000	174.880	0.020	-0.590	1.180	174.950	-2.000	1.600																			1580029540.0	9.09	16.83
26/01/2020 09:05:41	26012020	260120	090541	174.990	12.501242	-57.245000	174.970	0.170	-0.280	0.970	175.020	-1.700	1.400																			1580029541.0	8.71	16.13
26/01/2020 09:05:42	26012020	260120	090542	175.120	12.501202	-57.244997	175.090	0.220	-0.030	0.590	175.150	-1.400	1.000																			1580029542.0	8.43	15.61
26/01/2020 09:05:43	26012020	260120	090543	175.260	12.501162	-57.244993	175.230	0.150	-0.090	0.370	175.290	-1.500	0.800																			1580029543.0	8.65	16.02
26/01/2020 09:05:44	26012020	260120	090544	175.420	12.501120	-57.244992	175.370	-0.020	-0.280	0.560	175.440	-1.700	1.000																			1580029544.0	8.95	16.58
26/01/2020 09:05:45	26012020	260120	090545	175.460	12.501078	-57.244992	175.340	-0.160	-0.410	1.000	175.440	-1.800	1.400																			1580029545.0	9.02	16.71
26/01/2020 09:05:46	26012020	260120	090546	175.280	12.501037	-57.244993	175.130	-0.180	-0.440	1.400	175.230	-1.900	1.800																			1580029546.0	9.03	16.72
26/01/2020 09:05:47	26012020	260120	090547	175.040	12.500995	-57.244995	174.920	-0.080	-0.330	1.650	175.000	-1.800	2.100																			1580029547.0	9.01	16.69
26/01/2020 09:05:48	26012020	260120	090548	174.940	12.500953	-57.244997	174.900	-0.020	-0.070	1.580	174.940	-1.500	2.000																			1580029548.0	8.87	16.43
26/01/2020 09:05:49	26012020	260120	090549	174.990	12.500913	-57.244995	174.970	-0.050	0.180	1.320	175.010	-1.200	1.800																			1580029549.0	8.67	16.06
26/01/2020 09:05:50	26012020	260120	090550	175.050	12.500873	-57.244993	175.030	-0.100	0.260	1.060	175.060	-1.200	1.500																			1580029550.0	8.68	16.08
26/01/2020 09:05:51	26012020	260120	090551	175.120	12.500832	-57.244992	175.100	-0.070	0.210	0.850	175.150	-1.200	1.300																			1580029551.0	8.77	16.24
26/01/2020 09:05:52	26012020	260120	090552	175.220	12.500792	-57.244992	175.190	0.040	0.060	0.740	175.220	-1.300	1.200																			1580029552.0	8.78	16.26
26/01/2020 09:05:53	26012020	260120	090553	175.320	12.500750	-57.244990	175.280	0.180	-0.230	0.660	175.340	-1.600	1.100																			1580029553.0	8.83	16.35
26/01/2020 09:05:54	26012020	260120	090554	175.430	12.500708	-57.244990	175.410	0.240	-0.550	0.660	175.450	-1.900	1.100																			1580029554.0	8.90	16.48
26/01/2020 09:05:55	26012020	260120	090555	175.580	12.500668	-57.244990	175.570	0.180	-0.650	0.730	175.620	-2.100	1.200																			1580029555.0	8.86	16.41
26/01/2020 09:05:56	26012020	260120	090556	175.740	12.500628	-57.244990	175.720	0.050	-0.610	0.820	175.770	-2.000	1.300																			1580029556.0	8.67	16.06
26/01/2020 09:05:57	26012020	260120	090557	175.890	12.500587	-57.244990	175.870	-0.080	-0.540	0.860	175.920	-1.900	1.300																			1580029557.0	8.65	16.02
26/01/2020 09:05:58	26012020	260120	090558	176.020	12.500547	-57.244990	175.970	-0.140	-0.490	0.940	176.040	-1.900	1.400																			1580029558.0	8.78	16.26
26/01/2020 09:05:59	26012020	260120	090559	176.070	12.500505	-57.244988	175.980	-0.120	-0.400	1.010	176.060	-1.800	1.400																			1580029559.0	8.92	16.52
26/01/2020 09:06:00	26012020	260120	090600	176.000	12.500463	-57.244988	175.870	-0.060	-0.290	1.070	175.970	-1.700	1.500	1013.70	25.60	25.60	19.80	19.90	-1.00	70.00	70.00	427.00	25.40	314.00	10.10	104.00	7.70	15	3199.00	27.40	27.40	1580029560.0	8.99	16.65
26/01/2020 09:06:01	26012020	260120	090601	175.870	12.500422	-57.244987	175.770	-0.080	-0.080	1.100	175.850	-1.500	1.500																			1580029561.0	9.06	16.78
26/01/2020 09:06:02	26012020	260120	090602	175.840	12.500380	-57.244987	175.770	-0.190	0.270	1.080	175.850	-1.200	1.500																			1580029562.0	8.92	16.52
26/01/2020 09:06:03	26012020	260120	090603	175.910	12.500338	-57.244987	175.840	-0.280	0.600	0.920	175.940	-0.800	1.400																			1580029563.0	8.71	16.13
26/01/2020 09:06:04	26012020	260120	090604	176.020	12.500298	-57.244987	175.940	-0.220	0.720	0.700	176.040	-0.700	1.100																			1580029564.0	8.62	15.96
26/01/2020 09:06:05	26012020	260120	090605	176.110	12.500258	-57.244987	176.010	0.020	0.470	0.480	176.120	-0.900	0.900																			1580029565.0	8.71	16.13
26/01/2020 09:06:06	26012020	260120	090606	176.120	12.500217	-57.244987	175.990	0.330	-0.090	0.310	176.120	-1.500	0.800																			1580029566.0	8.89	16.46
26/01/2020 09:06:07	26012020	260120	090607	176.060	12.500175	-57.244985	175.910	0.510	-0.710	0.220	176.050	-2.100	0.700																			1580029567.0	9.05	16.76
26/01/2020 09:06:08	26012020	260120	090608	175.950	12.500133	-57.244983	175.790	0.430	-1.050	0.340	175.930	-2.500	0.800																			1580029568.0	8.98	16.63
26/01/2020 09:06:09	26012020	260120	090609	175.840	12.500093	-57.244985	175.720	0.150	-0.970	0.540	175.830	-2.400	1.000																			1580029569.0	8.72	16.15
26/01/2020 09:06:10	26012020	260120	090610	175.810	12.500053	-57.244987	175.710	-0.150	-0.700	0.720	175.800	-2.100	1.100																			1580029570.0	8.44	15.63
26/01/2020 09:06:11	26012020	260120	090611	175.780	12.500013	-57.244988	175.690	-0.260	-0.580	0.930	175.780	-2.000	1.400																			1580029571.0	8.60	15.93
26/01/2020 09:06:12	26012020	260120	090612	175.840	12.499972	-57.244990	175.820	-0.240	-0.480	0.980	175.880	-1.900	1.400																			1580029572.0	9.01	16.69
26/01/2020 09:06:13	26012020	260120	090613	176.060	12.499930	-57.244988	176.080	-0.260	-0.200	0.880	176.120	-1.600	1.300																			1580029573.0	9.07	16.80
26/01/2020 09:06:14	26012020	260120	090614	176.340	12.499888	-57.244988	176.330	-0.330	0.160	0.780	176.390	-1.300	1.200																			1580029574.0	8.90	16.48
26/01/2020 09:06:15	26012020	260120	090615	176.500	12.499847	-57.244988	176.410	-0.320	0.380	0.820	176.510	-1.000	1.200																			1580029575.0	8.82	16.33
26/01/2020 09:06:16	26012020	260120	090616	176.430	12.499805	-57.244990	176.260	-0.120	0.360	1.040	176.380	-1.000	1.400																			1580029576.0	8.95	16.58
26/01/2020 09:06:17	26012020	260120	090617	176.150	12.499763	-57.244990	175.950	0.190	0.230	1.270	176.080	-1.200	1.700																			1580029577.0	9.09	16.83
26/01/2020 09:06:18	26012020	260120	090618	175.840	12.499722	-57.244990	175.690	0.370	0.180	1.360	175.790	-1.200	1.800																			1580029578.0	9.02	16.71
26/01/2020 09:06:19	26012020	260120	090619	175.670	12.499682	-57.244988	175.570	0.330	0.180	1.360	175.650	-1.200	1.800																			1580029579.0	8.72	16.15
26/01/2020 09:06:20	26012020	260120	090620	175.620	12.499642	-57.244988	175.550	0.170	-0.010	1.320	175.620	-1.400	1.800																			1580029580.0	8.55	15.83
26/01/2020 09:06:21	26012020	260120	090621	175.630	12.499600	-57.244988	175.560	0.090	-0.440	1.260	175.630	-1.800	1.700																			1580029581.0	8.74	16.19
26/01/2020 09:06:22	26012020	260120	090622	175.670	12.499558	-57.244990	175.610	0.090	-0.800	1.200	175.680	-2.200	1.600																			1580029582.0	8.98	16.63
26/01/2020 09:06:23	26012020	260120	090623	175.770	12.499518	-57.244992	175.730	0.080	-0.850	1.080	175.790	-2.300	1.500																			1580029583.0	8.85	16.39
26/01/2020 09:06:24	26012020	260120	090624	175.900	12.499477	-57.244992	175.880	0.030	-0.680	0.880	175.930	-2.100	1.300																			1580029584.0	8.60	15.93
26/01/2020 09:06:25	26012020	260120	090625	176.030	12.499438	-57.244992	175.980	-0.060	-0.460	0.670	176.050	-1.900	1.100																			1580029585.0	8.57	15.87
26/01/2020 09:06:26	26012020	260120	090626	176.100	12.499397	-57.244990	176.040	-0.110	-0.250	0.540	176.110	-1.700	1.000																			1580029586.0	8.68	16.08
26/01/2020 09:06:27	26012020	260120	090627	176.180	12.499357	-57.244988	176.140	-0.090	-0.130	0.390	176.210	-1.500	0.800																			1580029587.0	8.79	16.28
26/01/2020 09:06:28	26012020	260120	090628	176.300	12.499315	-57.244988	176.250	-0.030	-0.130	0.410	176.320	-1.500	0.800																			1580029588.0	8.96	16.59
26/01/2020 09:06:29	26012020	260120	090629	176.320	12.499272	-57.244987	176.250	-0.030	-0.160	0.720	176.320	-1.600	1.100																			1580029589.0	9.13	16.91
26/01/2020 09:06:30	26012020	260120	090630	176.300	12.499230	-57.244988	176.240	-0.140	-0.040	1.040	176.300	-1.500	1.500																			1580029590.0	9.10	16.85
26/01/2020 09:06:31	26012020	260120	090631	176.280	12.499188	-57.244990	176.210	-0.250	0.140	1.350	176.270	-1.300	1.800																			1580029591.0	8.87	16.43
26/01/2020 09:06:32	26012020	260120	090632	176.180	12.499148	-57.244993	176.080	-0.150	0.210	1.520	176.160	-1.200	1.900																			1580029592.0	8.80	16.30
26/01/2020 09:06:33	26012020	260120	090633	176.060	12.499107	-57.244993	175.970	0.090	0.160	1.450	176.040	-1.200	1.900																			1580029593.0	8.86	16.41
26/01/2020 09:06:34	26012020	260120	090634	176.010	12.499065	-57.244993	175.940	0.240	0.050	1.240	176.010	-1.300	1.700																			1580029594.0	8.86	16.41
26/01/2020 09:06:35	26012020	260120	090635	176.010	12.499025	-57.244992	175.940	0.240	-0.080	0.930	176.020	-1.500	1.400																			1580029595.0	8.78	16.26
26/01/2020 09:06:36	26012020	260120	090636	176.080	12.498985	-57.244990	176.030	0.200	-0.240	0.520	176.110	-1.600	1.000																			1580029596.0	8.71	16.13
26/01/2020 09:06:37	26012020	260120	090637	176.210	12.498943	-57.244988	176.160	0.180	-0.410	0.320	176.240	-1.800	0.800																			1580029597.0	8.70	16.11
26/01/2020 09:06:38	26012020	260120	090638	176.350	12.498903	-57.244988	176.280	0.130	-0.560	0.480	176.360	-2.000	0.900																			1580029598.0	8.72	16.15
26/01/2020 09:06:39	26012020	260120	090639	176.390	12.498863	-57.244990	176.290	0.040	-0.690	0.780	176.380	-2.100	1.200																			1580029599.0	8.76	16.22
26/01/2020 09:06:40	26012020	260120	090640	176.310	12.498822	-57.244992	176.190	-0.060	-0.730	1.080	176.280	-2.100	1.500																			1580029600.0	8.89	16.46
26/01/2020 09:06:41	26012020	260120	090641	176.190	12.498780	-57.244993	176.110	-0.130	-0.550	1.240	176.180	-2.000	1.700																			1580029601.0	8.92	16.52
26/01/2020 09:06:42	26012020	260120	090642	176.190	12.498740	-57.244995	176.140	-0.170	-0.190	1.130	176.210	-1.600	1.600																			1580029602.0	8.74	16.19
26/01/2020 09:06:43	26012020	260120	090643	176.220	12.498698	-57.244995	176.110	-0.120	-0.030	0.960	176.210	-1.400	1.400																			1580029603.0	8.70	16.11
26/01/2020 09:06:44	26012020	260120	090644	176.130	12.498657	-57.244995	176.010	-0.030	-0.080	0.920	176.110	-1.500	1.400																			1580029604.0	9.04	16.74
26/01/2020 09:06:45	26012020	260120	090645	176.050	12.498613	-57.244993	175.940	-0.060	-0.030	0.950	176.040	-1.400	1.400																			1580029605.0	9.19	17.02
26/01/2020 09:06:46	26012020	260120	090646	175.970	12.498572	-57.244995	175.880	-0.180	0.140	1.060	175.960	-1.300	1.500																			1580029606.0	8.96	16.59
26/01/2020 09:06:47	26012020	260120	090647	175.920	12.498532	-57.244995	175.840	-0.210	0.220	1.150	175.910	-1.200	1.600																			1580029607.0	8.82	16.33
26/01/2020 09:06:48	26012020	260120	090648	175.910	12.498490	-57.244997	175.860	-0.070	0.140	1.150	175.920	-1.300	1.600																			1580029608.0	8.88	16.45
26/01/2020 09:06:49	26012020	260120	090649	175.980	12.498448	-57.244997	175.970	0.150	0.050	1.050	176.010	-1.400	1.500																			1580029609.0	8.91	16.50
26/01/2020 09:06:50	26012020	260120	090650	176.190	12.498408	-57.244997	176.220	0.270	0.080	0.780	176.240	-1.300	1.200																			1580029610.0	8.69	16.09
26/01/2020 09:06:51	26012020	260120	090651	176.460	12.498368	-57.244995	176.450	0.250	-0.040	0.480	176.510	-1.400	0.900																			1580029611.0	8.45	15.65
26/01/2020 09:06:52	26012020	260120	090652	176.560	12.498328	-57.244993	176.430	0.260	-0.510	0.470	176.530	-1.900	0.900																			1580029612.0	8.63	15.98
26/01/2020 09:06:53	26012020	260120	090653	176.380	12.498287	-57.244993	176.210	0.380	-1.010	0.750	176.330	-2.400	1.200																			1580029613.0	9.10	16.85
26/01/2020 09:06:54	26012020	260120	090654	176.140	12.498245	-57.244993	176.020	0.370	-1.010	1.060	176.110	-2.400	1.500																			1580029614.0	9.13	16.91
26/01/2020 09:06:55	26012020	260120	090655	176.040	12.498203	-57.244995	175.970	0.060	-0.480	1.330	176.040	-1.900	1.700																			1580029615.0	8.66	16.04
26/01/2020 09:06:56	26012020	260120	090656	176.010	12.498165	-57.244997	175.930	-0.350	0.030	1.480	176.000	-1.400	1.900																			1580029616.0	8.31	15.39
26/01/2020 09:06:57	26012020	260120	090657	175.900	12.498125	-57.244998	175.750	-0.540	0.020	1.540	175.850	-1.400	2.000																			1580029617.0	8.64	16.00
26/01/2020 09:06:58	26012020	260120	090658	175.680	12.498082	-57.245002	175.530	-0.390	-0.260	1.450	175.650	-1.600	1.900																			1580029618.0	9.27	17.17
26/01/2020 09:06:59	26012020	260120	090659	175.560	12.498038	-57.245002	175.460	-0.100	-0.290	1.110	175.560	-1.700	1.600																			1580029619.0	9.42	17.45
26/01/2020 09:07:00	26012020	260120	090700	175.610	12.497997	-57.245000	175.560	0.030	0.010	0.660	175.640	-1.400	1.100	1013.70	25.50	25.60	19.70	19.80	-1.00	70.00	70.00	426.00	25.40	315.00	10.20	107.00	7.70	15	3299.00	27.40	27.40	1580029620.0	8.98	16.63
26/01/2020 09:07:01	26012020	260120	090701	175.800	12.497957	-57.244998	175.770	-0.060	0.290	0.310	175.850	-1.100	0.800																			1580029621.0	8.59	15.91
26/01/2020 09:07:02	26012020	260120	090702	176.010	12.497917	-57.244997	175.970	-0.150	0.290	0.170	176.050	-1.100	0.600																			1580029622.0	8.59	15.91
26/01/2020 09:07:03	26012020	260120	090703	176.180	12.497875	-57.244997	176.160	-0.110	0.040	0.210	176.220	-1.300	0.600																			1580029623.0	8.85	16.39
26/01/2020 09:07:04	26012020	260120	090704	176.380	12.497833	-57.244997	176.350	0.030	-0.220	0.420	176.410	-1.600	0.800																			1580029624.0	8.97	16.61
26/01/2020 09:07:05	26012020	260120	090705	176.510	12.497793	-57.244997	176.450	0.160	-0.370	0.710	176.520	-1.800	1.100																			1580029625.0	8.84	16.37
26/01/2020 09:07:06	26012020	260120	090706	176.500	12.497752	-57.244998	176.380	0.230	-0.450	1.110	176.470	-1.900	1.500																			1580029626.0	8.71	16.13
26/01/2020 09:07:07	26012020	260120	090707	176.320	12.497712	-57.245000	176.170	0.240	-0.520	1.490	176.280	-1.900	1.900																			1580029627.0	8.77	16.24
26/01/2020 09:07:08	26012020	260120	090708	176.090	12.497670	-57.245002	175.940	0.220	-0.480	1.670	176.040	-1.900	2.100																			1580029628.0	8.86	16.41
26/01/2020 09:07:09	26012020	260120	090709	175.860	12.497630	-57.245002	175.740	0.190	-0.270	1.550	175.830	-1.700	2.000																			1580029629.0	8.77	16.24
26/01/2020 09:07:10	26012020	260120	090710	175.770	12.497590	-57.245002	175.700	0.070	0.060	1.240	175.770	-1.400	1.700																			1580029630.0	8.60	15.93
26/01/2020 09:07:11	26012020	260120	090711	175.840	12.497550	-57.245000	175.770	-0.110	0.190	0.920	175.850	-1.200	1.400																			1580029631.0	8.50	15.74
26/01/2020 09:07:12	26012020	260120	090712	175.850	12.497510	-57.245000	175.720	-0.170	-0.120	0.730	175.840	-1.500	1.200																			1580029632.0	8.76	16.22
26/01/2020 09:07:13	26012020	260120	090713	175.750	12.497467	-57.245002	175.620	-0.040	-0.560	0.730	175.730	-1.900	1.200																			1580029633.0	9.24	17.11
26/01/2020 09:07:14	26012020	260120	090714	175.710	12.497423	-57.245002	175.630	0.090	-0.600	0.790	175.720	-2.000	1.200																			1580029634.0	9.24	17.11
26/01/2020 09:07:15	26012020	260120	090715	175.800	12.497383	-57.245002	175.760	0.010	-0.290	0.740	175.830	-1.700	1.200																			1580029635.0	8.74	16.19
26/01/2020 09:07:16	26012020	260120	090716	175.980	12.497343	-57.245002	175.940	-0.230	-0.060	0.670	176.010	-1.500	1.100																			1580029636.0	8.49	15.72
26/01/2020 09:07:17	26012020	260120	090717	176.110	12.497303	-57.245002	176.040	-0.390	-0.110	0.860	176.120	-1.500	1.300																			1580029637.0	8.71	16.13
26/01/2020 09:07:18	26012020	260120	090718	176.120	12.497262	-57.245003	176.020	-0.330	-0.260	1.100	176.110	-1.600	1.500																			1580029638.0	9.06	16.78
26/01/2020 09:07:19	26012020	260120	090719	176.040	12.497218	-57.245007	175.940	-0.140	-0.230	1.240	176.020	-1.600	1.700																			1580029639.0	9.09	16.83
26/01/2020 09:07:20	26012020	260120	090720	175.960	12.497178	-57.245007	175.870	0.060	-0.030	1.240	175.950	-1.400	1.700																			1580029640.0	8.86	16.41
26/01/2020 09:07:21	26012020	260120	090721	175.910	12.497137	-57.245007	175.830	0.200	0.170	1.080	175.900	-1.200	1.500																			1580029641.0	8.65	16.02
26/01/2020 09:07:22	26012020	260120	090722	175.840	12.497097	-57.245005	175.740	0.260	0.190	0.860	175.830	-1.200	1.300																			1580029642.0	8.64	16.00
26/01/2020 09:07:23	26012020	260120	090723	175.740	12.497057	-57.245002	175.630	0.210	0.010	0.780	175.720	-1.400	1.200																			1580029643.0	8.79	16.28
26/01/2020 09:07:24	26012020	260120	090724	175.620	12.497015	-57.245002	175.530	0.100	-0.150	0.880	175.610	-1.500	1.300																			1580029644.0	8.86	16.41
26/01/2020 09:07:25	26012020	260120	090725	175.580	12.496975	-57.245003	175.520	0.040	-0.190	1.040	175.580	-1.600	1.500																			1580029645.0	8.74	16.19
26/01/2020 09:07:26	26012020	260120	090726	175.510	12.496935	-57.245007	175.400	0.140	-0.320	1.210	175.480	-1.700	1.600																			1580029646.0	8.60	15.93
26/01/2020 09:07:27	26012020	260120	090727	175.350	12.496893	-57.245008	175.240	0.330	-0.640	1.270	175.330	-2.000	1.700																			1580029647.0	8.83	16.35
26/01/2020 09:07:28	26012020	260120	090728	175.300	12.496852	-57.245007	175.260	0.370	-0.770	1.200	175.330	-2.200	1.700																			1580029648.0	9.01	16.69
26/01/2020 09:07:29	26012020	260120	090729	175.480	12.496812	-57.245007	175.490	0.130	-0.600	1.060	175.540	-2.000	1.500																			1580029649.0	8.76	16.22
26/01/2020 09:07:30	26012020	260120	090730	175.770	12.496772	-57.245005	175.760	-0.240	-0.460	0.970	175.820	-1.900	1.400																			1580029650.0	8.57	15.87
26/01/2020 09:07:31	26012020	260120	090731	175.890	12.496730	-57.245005	175.780	-0.470	-0.540	1.070	175.880	-1.900	1.500																			1580029651.0	8.88	16.45
26/01/2020 09:07:32	26012020	260120	090732	175.780	12.496687	-57.245007	175.650	-0.500	-0.540	1.290	175.740	-1.900	1.700																			1580029652.0	9.26	17.15
26/01/2020 09:07:33	26012020	260120	090733	175.660	12.496645	-57.245008	175.570	-0.420	-0.160	1.380	175.640	-1.600	1.800																			1580029653.0	9.19	17.02
26/01/2020 09:07:34	26012020	260120	090734	175.590	12.496603	-57.245008	175.510	-0.350	0.420	1.280	175.580	-1.000	1.700																			1580029654.0	8.80	16.30
26/01/2020 09:07:35	26012020	260120	090735	175.590	12.496563	-57.245008	175.530	-0.310	0.840	1.100	175.600	-0.600	1.500																			1580029655.0	8.59	15.91
26/01/2020 09:07:36	26012020	260120	090736	175.600	12.496523	-57.245008	175.520	-0.190	0.870	0.920	175.590	-0.500	1.400																			1580029656.0	8.64	16.00
26/01/2020 09:07:37	26012020	260120	090737	175.550	12.496482	-57.245007	175.440	0.120	0.520	0.730	175.540	-0.800	1.200																			1580029657.0	8.82	16.33
26/01/2020 09:07:38	26012020	260120	090738	175.410	12.496440	-57.245007	175.290	0.530	-0.030	0.640	175.380	-1.400	1.100																			1580029658.0	8.96	16.59
26/01/2020 09:07:39	26012020	260120	090739	175.320	12.496398	-57.245005	175.260	0.780	-0.430	0.590	175.320	-1.800	1.000																			1580029659.0	8.94	16.56
26/01/2020 09:07:40	26012020	260120	090740	175.380	12.496360	-57.245003	175.340	0.720	-0.560	0.560	175.390	-1.900	1.000																			1580029660.0	8.53	15.80
26/01/2020 09:07:41	26012020	260120	090741	175.450	12.496320	-57.245003	175.400	0.460	-0.690	0.640	175.460	-2.100	1.100																			1580029661.0	8.31	15.39
26/01/2020 09:07:42	26012020	260120	090742	175.500	12.496282	-57.245005	175.440	0.200	-0.920	0.850	175.500	-2.300	1.300																			1580029662.0	8.48	15.70
26/01/2020 09:07:43	26012020	260120	090743	175.480	12.496240	-57.245007	175.390	0.060	-1.180	1.160	175.460	-2.600	1.600																			1580029663.0	8.82	16.33
26/01/2020 09:07:44	26012020	260120	090744	175.320	12.496198	-57.245008	175.190	-0.010	-1.240	1.440	175.280	-2.600	1.900																			1580029664.0	9.09	16.83
26/01/2020 09:07:45	26012020	260120	090745	175.190	12.496155	-57.245008	175.130	-0.190	-0.860	1.500	175.180	-2.300	1.900																			1580029665.0	9.10	16.85
26/01/2020 09:07:46	26012020	260120	090746	175.260	12.496115	-57.245008	175.270	-0.570	-0.150	1.400	175.300	-1.600	1.800																			1580029666.0	8.81	16.32
26/01/2020 09:07:47	26012020	260120	090747	175.440	12.496075	-57.245008	175.430	-0.930	0.430	1.300	175.470	-1.000	1.700																			1580029667.0	8.64	16.00
26/01/2020 09:07:48	26012020	260120	090748	175.490	12.496033	-57.245008	175.400	-0.950	0.570	1.290	175.470	-0.800	1.700																			1580029668.0	8.90	16.48
26/01/2020 09:07:49	26012020	260120	090749	175.340	12.495990	-57.245008	175.240	-0.570	0.420	1.370	175.300	-1.000	1.800																			1580029669.0	9.35	17.32
26/01/2020 09:07:50	26012020	260120	090750	175.170	12.495947	-57.245010	175.090	-0.060	0.390	1.350	175.150	-1.000	1.800																			1580029670.0	9.40	17.41
26/01/2020 09:07:51	26012020	260120	090751	175.050	12.495905	-57.245008	174.960	0.300	0.510	1.300	175.020	-0.900	1.700																			1580029671.0	8.96	16.59
26/01/2020 09:07:52	26012020	260120	090752	174.920	12.495865	-57.245008	174.850	0.440	0.530	1.200	174.900	-0.900	1.700																			1580029672.0	8.57	15.87
26/01/2020 09:07:53	26012020	260120	090753	174.870	12.495825	-57.245007	174.860	0.440	0.380	1.020	174.880	-1.000	1.500																			1580029673.0	8.47	15.69
26/01/2020 09:07:54	26012020	260120	090754	174.970	12.495787	-57.245005	174.990	0.400	0.010	0.820	175.000	-1.300	1.300																			1580029674.0	8.42	15.59
26/01/2020 09:07:55	26012020	260120	090755	175.120	12.495747	-57.245005	175.100	0.450	-0.610	0.790	175.140	-1.900	1.200																			1580029675.0	8.57	15.87
26/01/2020 09:07:56	26012020	260120	090756	175.180	12.495705	-57.245007	175.130	0.560	-1.190	0.910	175.180	-2.500	1.300																			1580029676.0	8.83	16.35
26/01/2020 09:07:57	26012020	260120	090757	175.200	12.495663	-57.245007	175.130	0.590	-1.370	1.030	175.210	-2.800	1.500																			1580029677.0	8.81	16.32
26/01/2020 09:07:58	26012020	260120	090758	175.190	12.495623	-57.245007	175.120	0.440	-1.180	1.130	175.190	-2.600	1.600																			1580029678.0	8.57	15.87
26/01/2020 09:07:59	26012020	260120	090759	175.240	12.495585	-57.245007	175.210	0.080	-0.800	1.140	175.270	-2.200	1.600																			1580029679.0	8.53	15.80
26/01/2020 09:08:00	26012020	260120	090800	175.400	12.495545	-57.245007	175.390	-0.390	-0.350	1.190	175.430	-1.800	1.600	1013.70	25.60	25.60	19.80	19.80	-1.00	70.00	70.00	426.00	25.40	314.00	10.70	106.00	8.20	15	3243.00	27.40	27.40	1580029680.0	8.62	15.96
26/01/2020 09:08:01	26012020	260120	090801	175.570	12.495503	-57.245007	175.510	-0.730	-0.010	1.230	175.590	-1.400	1.700																			1580029681.0	8.74	16.19
26/01/2020 09:08:02	26012020	260120	090802	175.610	12.495462	-57.245007	175.490	-0.770	0.050	1.350	175.590	-1.300	1.800																			1580029682.0	9.03	16.72
26/01/2020 09:08:03	26012020	260120	090803	175.460	12.495418	-57.245007	175.300	-0.510	0.000	1.530	175.410	-1.400	2.000																			1580029683.0	9.40	17.41
26/01/2020 09:08:04	26012020	260120	090804	175.240	12.495375	-57.245007	175.110	-0.230	0.220	1.550	175.210	-1.200	2.000																			1580029684.0	9.37	17.35
26/01/2020 09:08:05	26012020	260120	090805	175.140	12.495333	-57.245005	175.060	-0.160	0.650	1.370	175.130	-0.800	1.800																			1580029685.0	8.84	16.37
26/01/2020 09:08:06	26012020	260120	090806	175.100	12.495293	-57.245003	175.000	-0.220	0.760	1.230	175.080	-0.600	1.700																			1580029686.0	8.49	15.72
26/01/2020 09:08:07	26012020	260120	090807	175.000	12.495253	-57.245003	174.900	-0.150	0.380	1.050	174.990	-1.000	1.500																			1580029687.0	8.77	16.24
26/01/2020 09:08:08	26012020	260120	090808	174.920	12.495212	-57.245005	174.840	0.130	-0.110	0.880	174.910	-1.500	1.300																			1580029688.0	9.04	16.74
26/01/2020 09:08:09	26012020	260120	090809	174.910	12.495170	-57.245005	174.880	0.440	-0.370	0.630	174.930	-1.800	1.100																			1580029689.0	8.87	16.43
26/01/2020 09:08:10	26012020	260120	090810	175.040	12.495130	-57.245003	175.050	0.560	-0.450	0.360	175.080	-1.900	0.800																			1580029690.0	8.50	15.74
26/01/2020 09:08:11	26012020	260120	090811	175.230	12.495092	-57.245002	175.230	0.460	-0.610	0.270	175.270	-2.000	0.700																			1580029691.0	8.37	15.50
26/01/2020 09:08:12	26012020	260120	090812	175.420	12.495052	-57.245002	175.410	0.280	-0.830	0.360	175.450	-2.200	0.800																			1580029692.0	8.57	15.87
26/01/2020 09:08:13	26012020	260120	090813	175.490	12.495010	-57.245003	175.400	0.180	-0.970	0.670	175.470	-2.400	1.100																			1580029693.0	8.76	16.22
26/01/2020 09:08:14	26012020	260120	090814	175.400	12.494970	-57.245005	175.300	0.200	-0.860	0.930	175.380	-2.300	1.400																			1580029694.0	8.91	16.50
26/01/2020 09:08:15	26012020	260120	090815	175.320	12.494928	-57.245005	175.220	0.130	-0.390	1.160	175.300	-1.800	1.600																			1580029695.0	8.76	16.22
26/01/2020 09:08:16	26012020	260120	090816	175.300	12.494888	-57.245003	175.250	-0.140	0.170	1.240	175.300	-1.300	1.700																			1580029696.0	8.55	15.83
26/01/2020 09:08:17	26012020	260120	090817	175.330	12.494848	-57.245003	175.270	-0.460	0.450	1.280	175.330	-1.000	1.700																			1580029697.0	8.56	15.85
26/01/2020 09:08:18	26012020	260120	090818	175.280	12.494808	-57.245003	175.180	-0.570	0.300	1.400	175.260	-1.100	1.800																			1580029698.0	8.90	16.48
26/01/2020 09:08:19	26012020	260120	090819	175.150	12.494765	-57.245003	175.050	-0.400	-0.060	1.490	175.130	-1.400	1.900																			1580029699.0	9.28	17.19
26/01/2020 09:08:20	26012020	260120	090820	175.070	12.494722	-57.245005	175.020	-0.170	-0.190	1.470	175.070	-1.600	1.900																			1580029700.0	9.28	17.19
26/01/2020 09:08:21	26012020	260120	090821	175.100	12.494680	-57.245005	175.050	-0.050	-0.070	1.230	175.100	-1.500	1.700																			1580029701.0	8.82	16.33
26/01/2020 09:08:22	26012020	260120	090822	175.060	12.494642	-57.245005	174.950	0.010	-0.040	0.990	175.040	-1.400	1.400																			1580029702.0	8.48	15.70
26/01/2020 09:08:23	26012020	260120	090823	174.880	12.494600	-57.245005	174.730	0.130	-0.320	0.930	174.830	-1.700	1.400																			1580029703.0	8.67	16.06
26/01/2020 09:08:24	26012020	260120	090824	174.680	12.494558	-57.245003	174.620	0.230	-0.540	0.950	174.670	-1.900	1.400																			1580029704.0	9.02	16.71
26/01/2020 09:08:25	26012020	260120	090825	174.770	12.494518	-57.245003	174.820	0.180	-0.370	0.950	174.820	-1.800	1.400																			1580029705.0	8.86	16.41
26/01/2020 09:08:26	26012020	260120	090826	175.080	12.494478	-57.245003	175.160	0.040	-0.000	0.910	175.150	-1.400	1.400																			1580029706.0	8.44	15.63
26/01/2020 09:08:27	26012020	260120	090827	175.400	12.494440	-57.245005	175.420	-0.030	0.090	0.900	175.440	-1.300	1.300																			1580029707.0	8.32	15.41
26/01/2020 09:08:28	26012020	260120	090828	175.550	12.494398	-57.245005	175.520	0.060	-0.190	1.050	175.560	-1.600	1.500																			1580029708.0	8.74	16.19
26/01/2020 09:08:29	26012020	260120	090829	175.550	12.494357	-57.245005	175.480	0.170	-0.430	1.310	175.540	-1.800	1.700																			1580029709.0	9.09	16.83
26/01/2020 09:08:30	26012020	260120	090830	175.450	12.494315	-57.245005	175.380	0.160	-0.300	1.460	175.430	-1.700	1.900																			1580029710.0	8.92	16.52
26/01/2020 09:08:31	26012020	260120	090831	175.360	12.494275	-57.245005	175.310	0.050	0.030	1.350	175.350	-1.400	1.800																			1580029711.0	8.48	15.70
26/01/2020 09:08:32	26012020	260120	090832	175.360	12.494237	-57.245003	175.340	-0.070	0.120	1.090	175.380	-1.300	1.500																			1580029712.0	8.39	15.54
26/01/2020 09:08:33	26012020	260120	090833	175.430	12.494197	-57.245003	175.380	-0.090	-0.110	0.920	175.430	-1.500	1.400																			1580029713.0	8.62	15.96
26/01/2020 09:08:34	26012020	260120	090834	175.400	12.494155	-57.245002	175.290	0.030	-0.520	0.850	175.370	-1.900	1.300																			1580029714.0	8.94	16.56
26/01/2020 09:08:35	26012020	260120	090835	175.240	12.494113	-57.245002	175.110	0.180	-0.790	0.840	175.200	-2.200	1.300																			1580029715.0	9.09	16.83
26/01/2020 09:08:36	26012020	260120	090836	175.070	12.494072	-57.245002	174.960	0.150	-0.730	0.950	175.050	-2.100	1.400																			1580029716.0	8.94	16.56
26/01/2020 09:08:37	26012020	260120	090837	174.950	12.494030	-57.245002	174.880	-0.080	-0.470	1.170	174.940	-1.900	1.600																			1580029717.0	8.73	16.17
26/01/2020 09:08:38	26012020	260120	090838	174.940	12.493990	-57.245002	174.920	-0.380	-0.230	1.320	174.950	-1.600	1.700																			1580029718.0	8.74	16.19
26/01/2020 09:08:39	26012020	260120	090839	175.050	12.493948	-57.245005	175.050	-0.540	-0.010	1.320	175.080	-1.400	1.800																			1580029719.0	8.90	16.48
26/01/2020 09:08:40	26012020	260120	090840	175.260	12.493908	-57.245005	175.270	-0.490	0.290	1.150	175.300	-1.100	1.600																			1580029720.0	8.84	16.37
26/01/2020 09:08:41	26012020	260120	090841	175.390	12.493867	-57.245005	175.330	-0.250	0.410	0.970	175.390	-1.000	1.400																			1580029721.0	8.69	16.09
26/01/2020 09:08:42	26012020	260120	090842	175.380	12.493827	-57.245005	175.300	0.050	0.280	0.780	175.360	-1.100	1.200																			1580029722.0	8.87	16.43
26/01/2020 09:08:43	26012020	260120	090843	175.290	12.493785	-57.245003	175.180	0.280	0.110	0.790	175.260	-1.300	1.200																			1580029723.0	8.91	16.50
26/01/2020 09:08:44	26012020	260120	090844	175.140	12.493743	-57.245002	175.060	0.410	0.050	0.810	175.120	-1.400	1.200																			1580029724.0	8.77	16.24
26/01/2020 09:08:45	26012020	260120	090845	175.130	12.493705	-57.245002	175.090	0.410	0.070	0.720	175.150	-1.300	1.200																			1580029725.0	8.49	15.72
26/01/2020 09:08:46	26012020	260120	090846	175.170	12.493665	-57.245000	175.090	0.340	-0.170	0.720	175.160	-1.500	1.200																			1580029726.0	8.37	15.50
26/01/2020 09:08:47	26012020	260120	090847	175.100	12.493625	-57.245002	175.030	0.330	-0.660	0.880	175.080	-2.000	1.300																			1580029727.0	8.73	16.17
26/01/2020 09:08:48	26012020	260120	090848	175.090	12.493583	-57.245002	175.070	0.320	-0.960	0.940	175.090	-2.300	1.400																			1580029728.0	8.93	16.54
26/01/2020 09:08:49	26012020	260120	090849	175.130	12.493543	-57.245002	175.090	0.190	-1.000	0.970	175.130	-2.400	1.400																			1580029729.0	8.76	16.22
26/01/2020 09:08:50	26012020	260120	090850	175.070	12.493502	-57.245002	175.010	-0.080	-0.880	1.100	175.050	-2.300	1.500																			1580029730.0	8.71	16.13
26/01/2020 09:08:51	26012020	260120	090851	174.990	12.493462	-57.245002	174.940	-0.390	-0.610	1.240	174.980	-2.000	1.700																			1580029731.0	8.79	16.28
26/01/2020 09:08:52	26012020	260120	090852	174.970	12.493420	-57.245003	174.960	-0.550	-0.240	1.280	174.980	-1.700	1.700																			1580029732.0	8.83	16.35
26/01/2020 09:08:53	26012020	260120	090853	175.040	12.493380	-57.245003	175.030	-0.530	0.080	1.160	175.050	-1.300	1.600																			1580029733.0	8.87	16.43
26/01/2020 09:08:54	26012020	260120	090854	175.100	12.493337	-57.245003	175.080	-0.390	0.320	0.960	175.110	-1.100	1.400																			1580029734.0	8.96	16.59
26/01/2020 09:08:55	26012020	260120	090855	175.160	12.493295	-57.245002	175.140	-0.250	0.460	0.760	175.170	-0.900	1.200																			1580029735.0	8.97	16.61
26/01/2020 09:08:56	26012020	260120	090856	175.200	12.493255	-57.245000	175.150	-0.130	0.490	0.680	175.190	-0.900	1.100																			1580029736.0	8.88	16.45
26/01/2020 09:08:57	26012020	260120	090857	175.160	12.493213	-57.245000	175.080	0.000	0.340	0.800	175.140	-1.000	1.200																			1580029737.0	8.85	16.39
26/01/2020 09:08:58	26012020	260120	090858	174.990	12.493172	-57.245000	174.870	0.170	0.040	1.190	174.930	-1.300	1.600																			1580029738.0	8.87	16.43
26/01/2020 09:08:59	26012020	260120	090859	174.710	12.493130	-57.245002	174.610	0.340	-0.240	1.510	174.660	-1.600	1.900																			1580029739.0	8.93	16.54
26/01/2020 09:09:00	26012020	260120	090900	174.560	12.493090	-57.245003	174.540	0.400	-0.310	1.540	174.560	-1.700	2.000	1013.70	25.60	25.60	19.60	19.70	-1.00	69.00	70.00	426.00	25.40	313.00	10.60	104.00	8.10	15	3184.00	27.40	27.40	1580029740.0	8.76	16.22
26/01/2020 09:09:01	26012020	260120	090901	174.600	12.493050	-57.245003	174.630	0.350	-0.300	1.380	174.620	-1.700	1.800																			1580029741.0	8.45	15.65
26/01/2020 09:09:02	26012020	260120	090902	174.730	12.493012	-57.245003	174.780	0.270	-0.410	1.150	174.770	-1.800	1.600																			1580029742.0	8.44	15.63
26/01/2020 09:09:03	26012020	260120	090903	174.900	12.492972	-57.245003	174.920	0.250	-0.550	0.830	174.930	-1.900	1.300																			1580029743.0	8.58	15.89
26/01/2020 09:09:04	26012020	260120	090904	175.050	12.492932	-57.245000	175.070	0.220	-0.660	0.550	175.090	-2.000	1.000																			1580029744.0	8.67	16.06
26/01/2020 09:09:05	26012020	260120	090905	175.250	12.492890	-57.244998	175.260	0.110	-0.700	0.400	175.290	-2.100	0.900																			1580029745.0	8.75	16.21
26/01/2020 09:09:06	26012020	260120	090906	175.400	12.492850	-57.244997	175.400	-0.040	-0.600	0.360	175.430	-2.000	0.800																			1580029746.0	8.80	16.30
26/01/2020 09:09:07	26012020	260120	090907	175.510	12.492808	-57.244997	175.510	-0.220	-0.380	0.490	175.520	-1.800	0.900																			1580029747.0	8.76	16.22
26/01/2020 09:09:08	26012020	260120	090908	175.560	12.492768	-57.244995	175.530	-0.370	-0.150	0.820	175.560	-1.600	1.200																			1580029748.0	8.76	16.22
26/01/2020 09:09:09	26012020	260120	090909	175.460	12.492727	-57.244997	175.350	-0.420	-0.040	1.280	175.410	-1.400	1.700																			1580029749.0	8.89	16.46
26/01/2020 09:09:10	26012020	260120	090910	175.190	12.492685	-57.244998	175.080	-0.360	-0.020	1.670	175.130	-1.400	2.100																			1580029750.0	9.11	16.87
26/01/2020 09:09:11	26012020	260120	090911	174.960	12.492642	-57.245000	174.910	-0.240	0.120	1.740	174.940	-1.300	2.200																			1580029751.0	9.16	16.96
26/01/2020 09:09:12	26012020	260120	090912	174.860	12.492600	-57.245000	174.830	-0.090	0.300	1.580	174.840	-1.100	2.000																			1580029752.0	8.88	16.45
26/01/2020 09:09:13	26012020	260120	090913	174.810	12.492560	-57.245000	174.760	0.060	0.290	1.300	174.800	-1.100	1.800																			1580029753.0	8.75	16.21
26/01/2020 09:09:14	26012020	260120	090914	174.730	12.492518	-57.244998	174.660	0.140	0.110	1.080	174.710	-1.300	1.500																			1580029754.0	8.83	16.35
26/01/2020 09:09:15	26012020	260120	090915	174.630	12.492478	-57.244998	174.600	0.130	-0.060	0.930	174.620	-1.400	1.400																			1580029755.0	8.83	16.35
26/01/2020 09:09:16	26012020	260120	090916	174.650	12.492438	-57.244997	174.660	0.090	-0.110	0.700	174.670	-1.500	1.200																			1580029756.0	8.66	16.04
26/01/2020 09:09:17	26012020	260120	090917	174.800	12.492398	-57.244997	174.850	0.160	-0.150	0.440	174.840	-1.500	0.900																			1580029757.0	8.48	15.70
26/01/2020 09:09:18	26012020	260120	090918	175.100	12.492358	-57.244997	175.170	0.320	-0.330	0.190	175.160	-1.700	0.600																			1580029758.0	8.49	15.72
26/01/2020 09:09:19	26012020	260120	090919	175.360	12.492318	-57.244995	175.390	0.460	-0.650	0.200	175.390	-2.000	0.600																			1580029759.0	8.66	16.04
26/01/2020 09:09:20	26012020	260120	090920	175.460	12.492277	-57.244993	175.460	0.480	-0.910	0.410	175.470	-2.300	0.800																			1580029760.0	8.89	16.46
26/01/2020 09:09:21	26012020	260120	090921	175.520	12.492237	-57.244993	175.540	0.260	-0.810	0.650	175.550	-2.200	1.100																			1580029761.0	8.87	16.43
26/01/2020 09:09:22	26012020	260120	090922	175.610	12.492197	-57.244993	175.610	-0.150	-0.470	0.950	175.620	-1.900	1.400																			1580029762.0	8.60	15.93
26/01/2020 09:09:23	26012020	260120	090923	175.620	12.492157	-57.244993	175.560	-0.470	-0.270	1.300	175.610	-1.700	1.700																			1580029763.0	8.59	15.91
26/01/2020 09:09:24	26012020	260120	090924	175.490	12.492115	-57.244995	175.410	-0.500	-0.290	1.590	175.450	-1.700	2.000																			1580029764.0	8.99	16.65
26/01/2020 09:09:25	26012020	260120	090925	175.330	12.492072	-57.244997	175.260	-0.340	-0.230	1.710	175.300	-1.600	2.100																			1580029765.0	9.28	17.19
26/01/2020 09:09:26	26012020	260120	090926	175.190	12.492028	-57.244997	175.120	-0.190	0.090	1.600	175.170	-1.300	2.000																			1580029766.0	9.08	16.82
26/01/2020 09:09:27	26012020	260120	090927	175.060	12.491988	-57.244997	175.000	-0.150	0.460	1.310	175.040	-1.000	1.800																			1580029767.0	8.76	16.22
26/01/2020 09:09:28	26012020	260120	090928	175.000	12.491948	-57.244995	174.970	-0.160	0.650	0.990	175.000	-0.800	1.400																			1580029768.0	8.63	15.98
26/01/2020 09:09:29	26012020	260120	090929	175.030	12.491908	-57.244993	174.990	-0.080	0.560	0.750	175.040	-0.800	1.200																			1580029769.0	8.66	16.04
26/01/2020 09:09:30	26012020	260120	090930	175.070	12.491867	-57.244992	175.040	0.140	0.130	0.610	175.070	-1.200	1.100																			1580029770.0	8.81	16.32
26/01/2020 09:09:31	26012020	260120	090931	175.100	12.491825	-57.244992	175.060	0.370	-0.440	0.730	175.100	-1.800	1.100																			1580029771.0	9.00	16.67
26/01/2020 09:09:32	26012020	260120	090932	175.130	12.491783	-57.244993	175.140	0.440	-0.760	0.940	175.150	-2.100	1.400																			1580029772.0	9.00	16.67
26/01/2020 09:09:33	26012020	260120	090933	175.300	12.491743	-57.244995	175.360	0.310	-0.710	1.010	175.350	-2.100	1.400																			1580029773.0	8.64	16.00
26/01/2020 09:09:34	26012020	260120	090934	175.550	12.491703	-57.244995	175.610	0.150	-0.550	0.880	175.610	-2.000	1.300																			1580029774.0	8.37	15.50
26/01/2020 09:09:35	26012020	260120	090935	175.850	12.491665	-57.244995	175.930	0.070	-0.480	0.580	175.910	-1.900	1.000																			1580029775.0	8.43	15.61
26/01/2020 09:09:36	26012020	260120	090936	176.150	12.491625	-57.244993	176.200	0.060	-0.530	0.310	176.200	-1.900	0.800																			1580029776.0	8.68	16.08
26/01/2020 09:09:37	26012020	260120	090937	176.330	12.491583	-57.244990	176.320	0.010	-0.610	0.290	176.340	-2.000	0.700																			1580029777.0	8.93	16.54
26/01/2020 09:09:38	26012020	260120	090938	176.320	12.491540	-57.244988	176.260	-0.130	-0.540	0.540	176.300	-1.900	1.000																			1580029778.0	9.05	16.76
26/01/2020 09:09:39	26012020	260120	090939	176.200	12.491498	-57.244988	176.110	-0.300	-0.250	0.950	176.160	-1.700	1.400																			1580029779.0	8.98	16.63
26/01/2020 09:09:40	26012020	260120	090940	175.970	12.491458	-57.244990	175.870	-0.400	0.090	1.380	175.930	-1.300	1.800																			1580029780.0	8.90	16.48
26/01/2020 09:09:41	26012020	260120	090941	175.730	12.491417	-57.244993	175.640	-0.370	0.350	1.630	175.690	-1.100	2.100																			1580029781.0	8.95	16.58
26/01/2020 09:09:42	26012020	260120	090942	175.570	12.491375	-57.244995	175.510	-0.250	0.520	1.590	175.550	-0.900	2.000																			1580029782.0	8.96	16.59
26/01/2020 09:09:43	26012020	260120	090943	175.490	12.491333	-57.244997	175.460	-0.070	0.540	1.230	175.490	-0.900	1.700																			1580029783.0	8.85	16.39
26/01/2020 09:09:44	26012020	260120	090944	175.550	12.491293	-57.244995	175.550	0.070	0.370	0.700	175.580	-1.000	1.200																			1580029784.0	8.78	16.26
26/01/2020 09:09:45	26012020	260120	090945	175.710	12.491252	-57.244993	175.720	0.170	0.020	0.280	175.740	-1.400	0.700																			1580029785.0	8.75	16.21
26/01/2020 09:09:46	26012020	260120	090946	175.850	12.491212	-57.244992	175.840	0.270	-0.500	0.090	175.870	-1.900	0.500																			1580029786.0	8.80	16.30
26/01/2020 09:09:47	26012020	260120	090947	175.950	12.491170	-57.244990	175.940	0.370	-0.920	0.160	175.970	-2.300	0.600																			1580029787.0	8.91	16.50
26/01/2020 09:09:48	26012020	260120	090948	176.070	12.491128	-57.244992	176.070	0.350	-0.920	0.410	176.100	-2.300	0.800																			1580029788.0	8.79	16.28
26/01/2020 09:09:49	26012020	260120	090949	176.210	12.491090	-57.244992	176.200	0.170	-0.650	0.690	176.230	-2.100	1.100																			1580029789.0	8.44	15.63
26/01/2020 09:09:50	26012020	260120	090950	176.240	12.491050	-57.244993	176.160	0.000	-0.530	0.960	176.230	-1.900	1.400																			1580029790.0	8.45	15.65
26/01/2020 09:09:51	26012020	260120	090951	176.110	12.491008	-57.244995	176.010	-0.040	-0.560	1.210	176.080	-2.000	1.600																			1580029791.0	8.91	16.50
26/01/2020 09:09:52	26012020	260120	090952	175.960	12.490967	-57.244997	175.900	-0.040	-0.430	1.340	175.950	-1.800	1.800																			1580029792.0	9.18	17.00
26/01/2020 09:09:53	26012020	260120	090953	175.930	12.490925	-57.244997	175.890	-0.130	-0.010	1.220	175.930	-1.400	1.700																			1580029793.0	8.99	16.65
26/01/2020 09:09:54	26012020	260120	090954	175.950	12.490883	-57.244995	175.900	-0.320	0.470	0.970	175.950	-0.900	1.400																			1580029794.0	8.67	16.06
26/01/2020 09:09:55	26012020	260120	090955	175.910	12.490843	-57.244995	175.830	-0.420	0.620	0.840	175.890	-0.800	1.300																			1580029795.0	8.62	15.96
26/01/2020 09:09:56	26012020	260120	090956	175.750	12.490802	-57.244995	175.620	-0.300	0.290	0.880	175.710	-1.100	1.300																			1580029796.0	8.93	16.54
26/01/2020 09:09:57	26012020	260120	090957	175.520	12.490758	-57.244995	175.410	-0.020	-0.180	0.990	175.480	-1.600	1.400																			1580029797.0	9.34	17.30
26/01/2020 09:09:58	26012020	260120	090958	175.410	12.490717	-57.244997	175.380	0.180	-0.270	1.070	175.410	-1.700	1.500																			1580029798.0	9.20	17.04
26/01/2020 09:09:59	26012020	260120	090959	175.490	12.490677	-57.244998	175.510	0.190	-0.080	1.060	175.530	-1.500	1.500																			1580029799.0	8.58	15.89
26/01/2020 09:10:00	26012020	260120	091000	175.710	12.490638	-57.244998	175.740	0.090	-0.040	0.890	175.760	-1.400	1.300	1013.70	25.50	25.60	19.50	19.60	-1.00	69.00	69.00	425.00	25.40	311.00	9.50	99.00	7.40	15	3106.00	27.40	27.40	1580029800.0	8.30	15.37
26/01/2020 09:10:01	26012020	260120	091001	175.890	12.490598	-57.244998	175.870	0.090	-0.390	0.780	175.910	-1.700	1.200																			1580029801.0	8.50	15.74
26/01/2020 09:10:02	26012020	260120	091002	175.940	12.490557	-57.244998	175.910	0.220	-0.940	0.740	175.950	-2.300	1.200																			1580029802.0	9.00	16.67
26/01/2020 09:10:03	26012020	260120	091003	175.960	12.490513	-57.244997	175.940	0.300	-1.150	0.730	175.970	-2.500	1.200																			1580029803.0	9.22	17.08
26/01/2020 09:10:04	26012020	260120	091004	175.980	12.490472	-57.244997	175.940	0.200	-0.830	0.850	175.980	-2.300	1.300																			1580029804.0	8.91	16.50
26/01/2020 09:10:05	26012020	260120	091005	175.960	12.490432	-57.244997	175.920	-0.080	-0.230	0.990	175.960	-1.700	1.400																			1580029805.0	8.59	15.91
26/01/2020 09:10:06	26012020	260120	091006	175.960	12.490392	-57.244997	175.910	-0.360	0.320	1.120	175.960	-1.100	1.500																			1580029806.0	8.51	15.76
26/01/2020 09:10:07	26012020	260120	091007	175.910	12.490352	-57.244998	175.840	-0.430	0.550	1.270	175.900	-0.900	1.700																			1580029807.0	8.69	16.09
26/01/2020 09:10:08	26012020	260120	091008	175.810	12.490310	-57.245000	175.720	-0.220	0.480	1.300	175.790	-0.900	1.700																			1580029808.0	8.99	16.65
26/01/2020 09:10:09	26012020	260120	091009	175.700	12.490268	-57.245000	175.630	0.110	0.260	1.140	175.690	-1.100	1.600																			1580029809.0	9.15	16.95
26/01/2020 09:10:10	26012020	260120	091010	175.720	12.490225	-57.244998	175.700	0.270	0.100	0.800	175.740	-1.300	1.300																			1580029810.0	9.05	16.76
26/01/2020 09:10:11	26012020	260120	091011	175.850	12.490185	-57.244997	175.840	0.160	-0.000	0.580	175.880	-1.400	1.000																			1580029811.0	8.72	16.15
26/01/2020 09:10:12	26012020	260120	091012	175.920	12.490145	-57.244997	175.860	-0.050	-0.210	0.600	175.930	-1.600	1.000																			1580029812.0	8.52	15.78
26/01/2020 09:10:13	26012020	260120	091013	175.890	12.490105	-57.244998	175.800	-0.050	-0.600	0.740	175.860	-2.000	1.200																			1580029813.0	8.68	16.08
26/01/2020 09:10:14	26012020	260120	091014	175.770	12.490063	-57.245002	175.680	0.180	-0.980	0.850	175.740	-2.400	1.300																			1580029814.0	8.96	16.59
26/01/2020 09:10:15	26012020	260120	091015	175.710	12.490022	-57.245002	175.700	0.350	-1.020	0.810	175.720	-2.400	1.200																			1580029815.0	8.97	16.61
26/01/2020 09:10:16	26012020	260120	091016	175.840	12.489982	-57.245002	175.850	0.230	-0.750	0.570	175.870	-2.200	1.000																			1580029816.0	8.71	16.13
26/01/2020 09:10:17	26012020	260120	091017	175.960	12.489942	-57.245000	175.920	-0.080	-0.470	0.400	175.960	-1.900	0.800																			1580029817.0	8.60	15.93
26/01/2020 09:10:18	26012020	260120	091018	175.940	12.489900	-57.244998	175.890	-0.350	-0.300	0.470	175.930	-1.700	0.900																			1580029818.0	8.86	16.41
26/01/2020 09:10:19	26012020	260120	091019	175.850	12.489858	-57.244998	175.770	-0.490	-0.110	0.820	175.820	-1.500	1.200																			1580029819.0	9.11	16.87
26/01/2020 09:10:20	26012020	260120	091020	175.690	12.489815	-57.245000	175.620	-0.470	0.260	1.240	175.660	-1.200	1.600																			1580029820.0	9.11	16.87
26/01/2020 09:10:21	26012020	260120	091021	175.570	12.489775	-57.245003	175.540	-0.340	0.680	1.400	175.550	-0.700	1.800																			1580029821.0	8.88	16.45
26/01/2020 09:10:22	26012020	260120	091022	175.510	12.489733	-57.245003	175.470	-0.130	0.840	1.290	175.500	-0.600	1.700																			1580029822.0	8.70	16.11
26/01/2020 09:10:23	26012020	260120	091023	175.470	12.489693	-57.245003	175.420	0.120	0.630	1.130	175.460	-0.700	1.600																			1580029823.0	8.79	16.28
26/01/2020 09:10:24	26012020	260120	091024	175.450	12.489652	-57.245002	175.400	0.370	0.180	0.950	175.440	-1.200	1.400																			1580029824.0	8.90	16.48
26/01/2020 09:10:25	26012020	260120	091025	175.440	12.489610	-57.245002	175.400	0.540	-0.230	0.840	175.440	-1.600	1.300																			1580029825.0	8.85	16.39
26/01/2020 09:10:26	26012020	260120	091026	175.430	12.489570	-57.245002	175.370	0.550	-0.530	0.890	175.410	-1.900	1.300																			1580029826.0	8.59	15.91
26/01/2020 09:10:27	26012020	260120	091027	175.340	12.489532	-57.245002	175.280	0.470	-0.830	0.970	175.320	-2.200	1.400																			1580029827.0	8.50	15.74
26/01/2020 09:10:28	26012020	260120	091028	175.230	12.489492	-57.245003	175.190	0.320	-1.160	0.990	175.220	-2.500	1.400																			1580029828.0	8.68	16.08
26/01/2020 09:10:29	26012020	260120	091029	175.230	12.489450	-57.245003	175.240	0.100	-1.330	0.990	175.250	-2.700	1.400																			1580029829.0	8.92	16.52
26/01/2020 09:10:30	26012020	260120	091030	175.360	12.489408	-57.245003	175.390	-0.220	-1.150	0.960	175.390	-2.600	1.400																			1580029830.0	8.95	16.58
26/01/2020 09:10:31	26012020	260120	091031	175.490	12.489367	-57.245005	175.500	-0.520	-0.700	0.980	175.510	-2.100	1.400																			1580029831.0	8.83	16.35
26/01/2020 09:10:32	26012020	260120	091032	175.620	12.489325	-57.245005	175.650	-0.670	-0.150	0.950	175.650	-1.600	1.400																			1580029832.0	8.85	16.39
26/01/2020 09:10:33	26012020	260120	091033	175.790	12.489285	-57.245005	175.820	-0.630	0.360	0.800	175.820	-1.100	1.200																			1580029833.0	8.90	16.48
26/01/2020 09:10:34	26012020	260120	091034	175.930	12.489243	-57.245003	175.940	-0.470	0.700	0.700	175.950	-0.700	1.100																			1580029834.0	8.95	16.58
26/01/2020 09:10:35	26012020	260120	091035	176.030	12.489200	-57.245002	176.020	-0.260	0.800	0.660	176.050	-0.600	1.100																			1580029835.0	9.05	16.76
26/01/2020 09:10:36	26012020	260120	091036	176.070	12.489158	-57.245000	176.020	-0.040	0.730	0.720	176.060	-0.700	1.200																			1580029836.0	9.03	16.72
26/01/2020 09:10:37	26012020	260120	091037	176.040	12.489117	-57.244998	175.980	0.180	0.520	0.890	176.020	-0.900	1.300																			1580029837.0	8.92	16.52
26/01/2020 09:10:38	26012020	260120	091038	175.950	12.489077	-57.245000	175.850	0.370	0.150	1.130	175.910	-1.200	1.500																			1580029838.0	8.82	16.33
26/01/2020 09:10:39	26012020	260120	091039	175.750	12.489035	-57.245002	175.610	0.510	-0.290	1.380	175.690	-1.700	1.800																			1580029839.0	8.79	16.28
26/01/2020 09:10:40	26012020	260120	091040	175.410	12.488995	-57.245003	175.250	0.610	-0.690	1.590	175.340	-2.100	2.000																			1580029840.0	8.79	16.28
26/01/2020 09:10:41	26012020	260120	091041	175.100	12.488953	-57.245005	175.030	0.580	-0.830	1.460	175.070	-2.200	1.900																			1580029841.0	8.73	16.17
26/01/2020 09:10:42	26012020	260120	091042	175.050	12.488915	-57.245005	175.060	0.410	-0.740	1.030	175.060	-2.100	1.500																			1580029842.0	8.47	15.69
26/01/2020 09:10:43	26012020	260120	091043	175.160	12.488875	-57.245003	175.180	0.140	-0.740	0.640	175.190	-2.100	1.100																			1580029843.0	8.40	15.56
26/01/2020 09:10:44	26012020	260120	091044	175.320	12.488835	-57.245002	175.350	-0.120	-0.840	0.350	175.350	-2.200	0.800																			1580029844.0	8.73	16.17
26/01/2020 09:10:45	26012020	260120	091045	175.490	12.488793	-57.245002	175.540	-0.360	-0.840	0.280	175.540	-2.200	0.700																			1580029845.0	9.01	16.69
26/01/2020 09:10:46	26012020	260120	091046	175.720	12.488752	-57.245002	175.780	-0.510	-0.580	0.390	175.770	-2.000	0.800																			1580029846.0	9.06	16.78
26/01/2020 09:10:47	26012020	260120	091047	175.960	12.488710	-57.245003	176.030	-0.540	-0.100	0.480	176.010	-1.500	0.900																			1580029847.0	8.92	16.52
26/01/2020 09:10:48	26012020	260120	091048	176.190	12.488668	-57.245002	176.230	-0.450	0.330	0.480	176.230	-1.100	0.900																			1580029848.0	8.80	16.30
26/01/2020 09:10:49	26012020	260120	091049	176.320	12.488627	-57.245002	176.290	-0.300	0.470	0.560	176.320	-0.900	1.000																			1580029849.0	8.89	16.46
26/01/2020 09:10:50	26012020	260120	091050	176.250	12.488585	-57.245000	176.150	-0.130	0.330	0.810	176.210	-1.000	1.200																			1580029850.0	9.14	16.93
26/01/2020 09:10:51	26012020	260120	091051	175.940	12.488542	-57.245000	175.750	0.030	0.130	1.220	175.850	-1.300	1.600																			1580029851.0	9.25	17.13
26/01/2020 09:10:52	26012020	260120	091052	175.460	12.488500	-57.245002	175.270	0.110	0.070	1.640	175.360	-1.300	2.100																			1580029852.0	9.18	17.00
26/01/2020 09:10:53	26012020	260120	091053	175.040	12.488458	-57.245003	174.940	0.130	0.230	1.780	174.990	-1.200	2.200																			1580029853.0	8.87	16.43
26/01/2020 09:10:54	26012020	260120	091054	174.920	12.488418	-57.245005	174.920	0.160	0.420	1.460	174.930	-1.000	1.900																			1580029854.0	8.45	15.65
26/01/2020 09:10:55	26012020	260120	091055	175.050	12.488380	-57.245005	175.070	0.280	0.250	0.980	175.080	-1.100	1.400																			1580029855.0	8.27	15.32
26/01/2020 09:10:56	26012020	260120	091056	175.210	12.488340	-57.245005	175.200	0.490	-0.430	0.500	175.230	-1.800	1.000																			1580029856.0	8.64	16.00
26/01/2020 09:10:57	26012020	260120	091057	175.330	12.488298	-57.245002	175.330	0.600	-1.170	0.270	175.350	-2.500	0.700																			1580029857.0	9.11	16.87
26/01/2020 09:10:58	26012020	260120	091058	175.460	12.488255	-57.245002	175.470	0.440	-1.400	0.380	175.490	-2.800	0.800																			1580029858.0	9.09	16.83
26/01/2020 09:10:59	26012020	260120	091059	175.620	12.488215	-57.245003	175.670	0.060	-0.950	0.580	175.670	-2.400	1.000																			1580029859.0	8.64	16.00
26/01/2020 09:11:00	26012020	260120	091100	175.840	12.488177	-57.245005	175.880	-0.310	-0.340	0.770	175.880	-1.800	1.200	1013.70	25.60	25.60	19.70	19.80	-1.00	70.00	70.00	424.00	25.30	311.00	9.40	98.00	7.30	15	3416.00	27.40	27.40	1580029860.0	8.22	15.22
26/01/2020 09:11:01	26012020	260120	091101	175.960	12.488138	-57.245005	175.960	-0.400	-0.100	0.910	175.960	-1.500	1.300																			1580029861.0	8.45	15.65
26/01/2020 09:11:02	26012020	260120	091102	175.980	12.488095	-57.245005	176.000	-0.250	-0.170	0.900	175.990	-1.600	1.300																			1580029862.0	9.10	16.85
26/01/2020 09:11:03	26012020	260120	091103	176.070	12.488052	-57.245003	176.110	-0.170	-0.140	0.870	176.100	-1.500	1.300																			1580029863.0	9.33	17.28
26/01/2020 09:11:04	26012020	260120	091104	176.140	12.488010	-57.245003	176.100	-0.290	0.060	0.960	176.130	-1.400	1.400																			1580029864.0	9.09	16.83
26/01/2020 09:11:05	26012020	260120	091105	176.020	12.487968	-57.245003	175.910	-0.430	0.200	1.130	175.970	-1.200	1.600																			1580029865.0	8.93	16.54
26/01/2020 09:11:06	26012020	260120	091106	175.730	12.487927	-57.245005	175.610	-0.400	0.270	1.360	175.670	-1.100	1.800																			1580029866.0	8.96	16.59
26/01/2020 09:11:07	26012020	260120	091107	175.450	12.487885	-57.245008	175.360	-0.130	0.310	1.410	175.400	-1.100	1.800																			1580029867.0	8.92	16.52
26/01/2020 09:11:08	26012020	260120	091108	175.290	12.487845	-57.245008	175.250	0.230	0.220	1.180	175.270	-1.200	1.600																			1580029868.0	8.80	16.30
26/01/2020 09:11:09	26012020	260120	091109	175.200	12.487803	-57.245008	175.170	0.470	-0.060	0.910	175.190	-1.400	1.400																			1580029869.0	8.83	16.35
26/01/2020 09:11:10	26012020	260120	091110	175.200	12.487762	-57.245007	175.210	0.500	-0.280	0.650	175.220	-1.700	1.100																			1580029870.0	8.87	16.43
26/01/2020 09:11:11	26012020	260120	091111	175.320	12.487722	-57.245007	175.370	0.330	-0.310	0.530	175.360	-1.700	1.000																			1580029871.0	8.66	16.04
26/01/2020 09:11:12	26012020	260120	091112	175.520	12.487682	-57.245007	175.580	0.120	-0.310	0.580	175.570	-1.700	1.000																			1580029872.0	8.44	15.63
26/01/2020 09:11:13	26012020	260120	091113	175.720	12.487643	-57.245007	175.760	0.010	-0.440	0.710	175.750	-1.800	1.100																			1580029873.0	8.52	15.78
26/01/2020 09:11:14	26012020	260120	091114	175.860	12.487602	-57.245008	175.870	-0.010	-0.690	0.900	175.880	-2.100	1.300																			1580029874.0	8.77	16.24
26/01/2020 09:11:15	26012020	260120	091115	175.880	12.487560	-57.245010	175.830	-0.010	-0.920	1.180	175.860	-2.300	1.600																			1580029875.0	9.03	16.72
26/01/2020 09:11:16	26012020	260120	091116	175.730	12.487518	-57.245012	175.650	-0.030	-0.840	1.390	175.690	-2.200	1.800																			1580029876.0	9.09	16.83
26/01/2020 09:11:17	26012020	260120	091117	175.560	12.487477	-57.245012	175.500	-0.090	-0.410	1.390	175.540	-1.800	1.800																			1580029877.0	8.85	16.39
26/01/2020 09:11:18	26012020	260120	091118	175.440	12.487437	-57.245012	175.380	-0.190	0.070	1.280	175.420	-1.300	1.700																			1580029878.0	8.64	16.00
26/01/2020 09:11:19	26012020	260120	091119	175.340	12.487397	-57.245012	175.270	-0.280	0.310	1.210	175.320	-1.100	1.700																			1580029879.0	8.74	16.19
26/01/2020 09:11:20	26012020	260120	091120	175.240	12.487353	-57.245010	175.180	-0.290	0.340	1.150	175.220	-1.000	1.600																			1580029880.0	8.97	16.61
26/01/2020 09:11:21	26012020	260120	091121	175.160	12.487312	-57.245010	175.090	-0.200	0.290	1.070	175.140	-1.100	1.500																			1580029881.0	9.05	16.76
26/01/2020 09:11:22	26012020	260120	091122	175.040	12.487270	-57.245012	174.940	-0.030	0.160	1.120	175.000	-1.200	1.500																			1580029882.0	8.96	16.59
26/01/2020 09:11:23	26012020	260120	091123	174.850	12.487228	-57.245012	174.780	0.170	-0.050	1.140	174.830	-1.400	1.600																			1580029883.0	8.99	16.65
26/01/2020 09:11:24	26012020	260120	091124	174.790	12.487187	-57.245012	174.800	0.240	-0.160	1.050	174.800	-1.500	1.500																			1580029884.0	8.93	16.54
26/01/2020 09:11:25	26012020	260120	091125	174.910	12.487147	-57.245012	174.960	0.160	-0.170	1.000	174.950	-1.600	1.400																			1580029885.0	8.68	16.08
26/01/2020 09:11:26	26012020	260120	091126	175.110	12.487107	-57.245012	175.150	0.030	-0.250	0.940	175.150	-1.600	1.400																			1580029886.0	8.56	15.85
26/01/2020 09:11:27	26012020	260120	091127	175.260	12.487067	-57.245013	175.260	0.010	-0.450	0.930	175.280	-1.800	1.400																			1580029887.0	8.67	16.06
26/01/2020 09:11:28	26012020	260120	091128	175.350	12.487025	-57.245013	175.350	0.090	-0.640	0.950	175.360	-2.000	1.400																			1580029888.0	8.82	16.33
26/01/2020 09:11:29	26012020	260120	091129	175.400	12.486985	-57.245013	175.390	0.160	-0.770	0.970	175.400	-2.100	1.400																			1580029889.0	8.87	16.43
26/01/2020 09:11:30	26012020	260120	091130	175.410	12.486943	-57.245013	175.390	0.130	-0.750	1.040	175.400	-2.100	1.500																			1580029890.0	8.93	16.54
26/01/2020 09:11:31	26012020	260120	091131	175.330	12.486902	-57.245013	175.260	0.030	-0.570	1.240	175.300	-2.000	1.700																			1580029891.0	8.90	16.48
26/01/2020 09:11:32	26012020	260120	091132	175.120	12.486860	-57.245013	175.050	-0.070	-0.190	1.400	175.080	-1.600	1.800																			1580029892.0	8.90	16.48
26/01/2020 09:11:33	26012020	260120	091133	174.970	12.486820	-57.245013	174.950	-0.190	0.300	1.440	174.960	-1.100	1.900																			1580029893.0	8.78	16.26
26/01/2020 09:11:34	26012020	260120	091134	175.000	12.486778	-57.245012	175.020	-0.310	0.660	1.400	175.010	-0.700	1.900																			1580029894.0	8.65	16.02
26/01/2020 09:11:35	26012020	260120	091135	175.080	12.486738	-57.245012	175.100	-0.330	0.610	1.350	175.100	-0.800	1.800																			1580029895.0	8.75	16.21
26/01/2020 09:11:36	26012020	260120	091136	175.130	12.486697	-57.245013	175.120	-0.180	0.180	1.330	175.130	-1.200	1.800																			1580029896.0	9.05	16.76
26/01/2020 09:11:37	26012020	260120	091137	175.080	12.486653	-57.245013	175.050	0.100	-0.310	1.290	175.070	-1.700	1.700																			1580029897.0	9.26	17.15
26/01/2020 09:11:38	26012020	260120	091138	174.990	12.486610	-57.245013	174.950	0.320	-0.540	1.180	174.970	-1.900	1.600																			1580029898.0	9.13	16.91
26/01/2020 09:11:39	26012020	260120	091139	174.900	12.486570	-57.245013	174.870	0.330	-0.430	0.970	174.890	-1.800	1.400																			1580029899.0	8.72	16.15
26/01/2020 09:11:40	26012020	260120	091140	174.890	12.486532	-57.245012	174.900	0.170	-0.270	0.690	174.910	-1.700	1.200																			1580029900.0	8.38	15.52
26/01/2020 09:11:41	26012020	260120	091141	174.960	12.486492	-57.245010	174.960	0.000	-0.350	0.440	174.970	-1.700	0.900																			1580029901.0	8.46	15.67
26/01/2020 09:11:42	26012020	260120	091142	175.000	12.486450	-57.245008	174.980	-0.090	-0.610	0.440	175.000	-2.000	0.900																			1580029902.0	8.86	16.41
26/01/2020 09:11:43	26012020	260120	091143	174.980	12.486408	-57.245008	174.960	-0.120	-0.770	0.630	174.970	-2.100	1.100																			1580029903.0	9.12	16.89
26/01/2020 09:11:44	26012020	260120	091144	174.970	12.486367	-57.245010	174.980	-0.160	-0.600	0.810	174.970	-2.000	1.200																			1580029904.0	9.08	16.82
26/01/2020 09:11:45	26012020	260120	091145	175.030	12.486325	-57.245010	175.080	-0.270	-0.220	1.010	175.050	-1.600	1.400																			1580029905.0	8.84	16.37
26/01/2020 09:11:46	26012020	260120	091146	175.120	12.486285	-57.245012	175.150	-0.340	0.120	1.160	175.130	-1.300	1.600																			1580029906.0	8.71	16.13
26/01/2020 09:11:47	26012020	260120	091147	175.160	12.486243	-57.245012	175.140	-0.220	0.200	1.210	175.160	-1.200	1.600																			1580029907.0	8.86	16.41
26/01/2020 09:11:48	26012020	260120	091148	175.100	12.486202	-57.245012	175.060	0.020	0.140	1.240	175.080	-1.200	1.700																			1580029908.0	9.12	16.89
26/01/2020 09:11:49	26012020	260120	091149	175.010	12.486158	-57.245012	174.970	0.180	0.160	1.240	175.000	-1.200	1.700																			1580029909.0	9.09	16.83
26/01/2020 09:11:50	26012020	260120	091150	174.880	12.486117	-57.245010	174.790	0.200	0.140	1.210	174.840	-1.200	1.600																			1580029910.0	8.87	16.43
26/01/2020 09:11:51	26012020	260120	091151	174.650	12.486077	-57.245008	174.570	0.160	0.030	1.170	174.610	-1.300	1.600																			1580029911.0	8.88	16.45
26/01/2020 09:11:52	26012020	260120	091152	174.550	12.486035	-57.245008	174.550	0.070	0.020	1.070	174.560	-1.400	1.500																			1580029912.0	8.83	16.35
26/01/2020 09:11:53	26012020	260120	091153	174.620	12.485995	-57.245008	174.620	0.000	0.020	0.830	174.640	-1.300	1.300																			1580029913.0	8.57	15.87
26/01/2020 09:11:54	26012020	260120	091154	174.680	12.485955	-57.245008	174.670	0.060	-0.270	0.580	174.690	-1.600	1.000																			1580029914.0	8.57	15.87
26/01/2020 09:11:55	26012020	260120	091155	174.760	12.485913	-57.245008	174.770	0.220	-0.730	0.430	174.790	-2.100	0.900																			1580029915.0	8.90	16.48
26/01/2020 09:11:56	26012020	260120	091156	174.850	12.485872	-57.245007	174.840	0.310	-1.030	0.500	174.860	-2.400	0.900																			1580029916.0	9.06	16.78
26/01/2020 09:11:57	26012020	260120	091157	174.870	12.485830	-57.245007	174.840	0.180	-1.040	0.760	174.860	-2.400	1.200																			1580029917.0	8.98	16.63
26/01/2020 09:11:58	26012020	260120	091158	174.850	12.485788	-57.245008	174.850	-0.140	-0.770	1.040	174.850	-2.200	1.500																			1580029918.0	8.87	16.43
26/01/2020 09:11:59	26012020	260120	091159	174.900	12.485748	-57.245010	174.930	-0.440	-0.290	1.240	174.930	-1.700	1.700																			1580029919.0	8.80	16.30
26/01/2020 09:12:00	26012020	260120	091200	175.030	12.485708	-57.245010	175.040	-0.540	0.190	1.220	175.050	-1.200	1.700	1013.70	25.60	25.60	19.70	19.80	-1.00	70.00	70.00	424.00	25.30	304.00	10.10	93.00	8.40	15	3261.00	27.40	27.40	1580029920.0	8.71	16.13
26/01/2020 09:12:01	26012020	260120	091201	175.100	12.485667	-57.245010	175.060	-0.370	0.370	1.100	175.100	-1.000	1.500																			1580029921.0	8.84	16.37
26/01/2020 09:12:02	26012020	260120	091202	175.060	12.485623	-57.245008	174.990	-0.090	0.270	1.010	175.040	-1.100	1.500																			1580029922.0	9.18	17.00
26/01/2020 09:12:03	26012020	260120	091203	174.960	12.485580	-57.245007	174.880	0.120	0.170	0.950	174.940	-1.200	1.400																			1580029923.0	9.31	17.24
26/01/2020 09:12:04	26012020	260120	091204	174.840	12.485538	-57.245007	174.750	0.170	0.220	0.940	174.820	-1.200	1.400																			1580029924.0	9.09	16.83
26/01/2020 09:12:05	26012020	260120	091205	174.720	12.485497	-57.245007	174.620	0.150	0.300	0.970	174.690	-1.100	1.400																			1580029925.0	8.80	16.30
26/01/2020 09:12:06	26012020	260120	091206	174.600	12.485457	-57.245007	174.510	0.160	0.240	1.020	174.600	-1.100	1.400																			1580029926.0	8.63	15.98
26/01/2020 09:12:07	26012020	260120	091207	174.490	12.485417	-57.245007	174.420	0.210	-0.090	0.980	174.480	-1.400	1.400																			1580029927.0	8.68	16.08
26/01/2020 09:12:08	26012020	260120	091208	174.450	12.485375	-57.245007	174.420	0.290	-0.580	0.860	174.460	-1.900	1.300																			1580029928.0	8.89	16.46
26/01/2020 09:12:09	26012020	260120	091209	174.510	12.485333	-57.245007	174.520	0.300	-0.970	0.750	174.540	-2.300	1.200																			1580029929.0	9.00	16.67
26/01/2020 09:12:10	26012020	260120	091210	174.600	12.485292	-57.245007	174.600	0.210	-1.090	0.670	174.610	-2.500	1.100																			1580029930.0	8.90	16.48
26/01/2020 09:12:11	26012020	260120	091211	174.670	12.485252	-57.245005	174.700	0.070	-0.880	0.520	174.690	-2.300	1.000																			1580029931.0	8.79	16.28
26/01/2020 09:12:12	26012020	260120	091212	174.850	12.485212	-57.245003	174.920	-0.140	-0.440	0.390	174.890	-1.800	0.800																			1580029932.0	8.65	16.02
26/01/2020 09:12:13	26012020	260120	091213	175.100	12.485172	-57.245003	175.140	-0.330	-0.090	0.450	175.140	-1.500	0.900																			1580029933.0	8.62	15.96
26/01/2020 09:12:14	26012020	260120	091214	175.230	12.485130	-57.245003	175.200	-0.370	-0.050	0.690	175.230	-1.400	1.100																			1580029934.0	8.97	16.61
26/01/2020 09:12:15	26012020	260120	091215	175.150	12.485087	-57.245003	175.080	-0.280	-0.090	1.120	175.120	-1.500	1.500																			1580029935.0	9.35	17.32
26/01/2020 09:12:16	26012020	260120	091216	174.980	12.485043	-57.245005	174.890	-0.160	0.100	1.500	174.940	-1.300	1.900																			1580029936.0	9.35	17.32
26/01/2020 09:12:17	26012020	260120	091217	174.800	12.485002	-57.245007	174.730	-0.100	0.430	1.640	174.770	-1.000	2.100																			1580029937.0	8.99	16.65
26/01/2020 09:12:18	26012020	260120	091218	174.630	12.484960	-57.245007	174.550	-0.090	0.590	1.570	174.600	-0.800	2.000																			1580029938.0	8.73	16.17
26/01/2020 09:12:19	26012020	260120	091219	174.480	12.484920	-57.245007	174.410	-0.030	0.420	1.380	174.450	-0.900	1.800																			1580029939.0	8.80	16.30
26/01/2020 09:12:20	26012020	260120	091220	174.400	12.484878	-57.245005	174.380	0.100	0.030	1.130	174.400	-1.300	1.600																			1580029940.0	8.96	16.59
26/01/2020 09:12:21	26012020	260120	091221	174.400	12.484837	-57.245005	174.370	0.300	-0.390	0.840	174.400	-1.700	1.300																			1580029941.0	8.97	16.61
26/01/2020 09:12:22	26012020	260120	091222	174.430	12.484795	-57.245003	174.420	0.480	-0.750	0.490	174.440	-2.100	0.900																			1580029942.0	8.90	16.48
26/01/2020 09:12:23	26012020	260120	091223	174.510	12.484753	-57.245002	174.540	0.480	-0.920	0.290	174.540	-2.300	0.700																			1580029943.0	8.85	16.39
26/01/2020 09:12:24	26012020	260120	091224	174.710	12.484713	-57.245000	174.810	0.220	-0.800	0.270	174.770	-2.200	0.700																			1580029944.0	8.75	16.21
26/01/2020 09:12:25	26012020	260120	091225	175.020	12.484673	-57.245000	175.120	-0.140	-0.510	0.390	175.080	-1.900	0.800																			1580029945.0	8.57	15.87
26/01/2020 09:12:26	26012020	260120	091226	175.260	12.484633	-57.245002	175.290	-0.310	-0.370	0.670	175.280	-1.700	1.100																			1580029946.0	8.67	16.06
26/01/2020 09:12:27	26012020	260120	091227	175.300	12.484590	-57.245002	175.290	-0.190	-0.390	1.020	175.290	-1.800	1.400																			1580029947.0	9.08	16.82
26/01/2020 09:12:28	26012020	260120	091228	175.300	12.484547	-57.245002	175.320	-0.060	-0.210	1.170	175.310	-1.600	1.600																			1580029948.0	9.28	17.19
26/01/2020 09:12:29	26012020	260120	091229	175.360	12.484505	-57.245000	175.350	-0.120	0.140	1.160	175.360	-1.300	1.600																			1580029949.0	8.96	16.59
26/01/2020 09:12:30	26012020	260120	091230	175.260	12.484465	-57.245000	175.130	-0.250	0.260	1.280	175.200	-1.100	1.700																			1580029950.0	8.83	16.35
26/01/2020 09:12:31	26012020	260120	091231	174.910	12.484422	-57.245000	174.750	-0.280	0.170	1.500	174.840	-1.200	1.900																			1580029951.0	9.11	16.87
26/01/2020 09:12:32	26012020	260120	091232	174.530	12.484380	-57.245000	174.400	-0.190	0.110	1.640	174.470	-1.300	2.100																			1580029952.0	9.22	17.08
26/01/2020 09:12:33	26012020	260120	091233	174.340	12.484338	-57.245002	174.320	-0.060	0.150	1.530	174.340	-1.200	2.000																			1580029953.0	9.04	16.74
26/01/2020 09:12:34	26012020	260120	091234	174.400	12.484297	-57.245003	174.440	0.070	0.180	1.220	174.430	-1.200	1.700																			1580029954.0	8.77	16.24
26/01/2020 09:12:35	26012020	260120	091235	174.590	12.484257	-57.245003	174.630	0.210	0.030	0.770	174.630	-1.300	1.200																			1580029955.0	8.65	16.02
26/01/2020 09:12:36	26012020	260120	091236	174.780	12.484215	-57.245002	174.780	0.350	-0.370	0.420	174.790	-1.700	0.900																			1580029956.0	8.76	16.22
26/01/2020 09:12:37	26012020	260120	091237	174.870	12.484173	-57.244998	174.880	0.430	-0.810	0.280	174.880	-2.200	0.700																			1580029957.0	9.04	16.74
26/01/2020 09:12:38	26012020	260120	091238	174.990	12.484132	-57.244997	175.040	0.330	-0.910	0.380	175.020	-2.300	0.800																			1580029958.0	9.03	16.72
26/01/2020 09:12:39	26012020	260120	091239	175.180	12.484092	-57.244997	175.240	0.080	-0.690	0.590	175.220	-2.100	1.000																			1580029959.0	8.73	16.17
26/01/2020 09:12:40	26012020	260120	091240	175.330	12.484052	-57.244998	175.360	-0.150	-0.400	0.820	175.340	-1.800	1.200																			1580029960.0	8.63	15.98
26/01/2020 09:12:41	26012020	260120	091241	175.340	12.484010	-57.244998	175.320	-0.210	-0.190	1.090	175.330	-1.600	1.500																			1580029961.0	8.77	16.24
26/01/2020 09:12:42	26012020	260120	091242	175.270	12.483968	-57.244998	175.250	-0.170	-0.020	1.260	175.260	-1.400	1.700																			1580029962.0	8.99	16.65
26/01/2020 09:12:43	26012020	260120	091243	175.250	12.483927	-57.244998	175.240	-0.130	0.170	1.280	175.250	-1.200	1.700																			1580029963.0	8.99	16.65
26/01/2020 09:12:44	26012020	260120	091244	175.210	12.483885	-57.244998	175.170	-0.090	0.210	1.210	175.210	-1.200	1.700																			1580029964.0	8.91	16.50
26/01/2020 09:12:45	26012020	260120	091245	175.110	12.483843	-57.244997	175.080	-0.070	0.020	1.040	175.090	-1.300	1.500																			1580029965.0	9.07	16.80
26/01/2020 09:12:46	26012020	260120	091246	175.060	12.483800	-57.244995	175.030	-0.080	-0.180	0.990	175.050	-1.500	1.400																			1580029966.0	9.17	16.98
26/01/2020 09:12:47	26012020	260120	091247	175.000	12.483758	-57.244995	174.940	-0.090	-0.300	1.110	174.970	-1.700	1.500																			1580029967.0	9.08	16.82
26/01/2020 09:12:48	26012020	260120	091248	174.900	12.483717	-57.244997	174.840	-0.060	-0.280	1.180	174.880	-1.700	1.600																			1580029968.0	8.97	16.61
26/01/2020 09:12:49	26012020	260120	091249	174.820	12.483675	-57.244998	174.770	0.010	-0.210	1.140	174.800	-1.600	1.600																			1580029969.0	8.83	16.35
26/01/2020 09:12:50	26012020	260120	091250	174.780	12.483635	-57.244998	174.760	0.070	-0.180	1.050	174.780	-1.600	1.500																			1580029970.0	8.80	16.30
26/01/2020 09:12:51	26012020	260120	091251	174.830	12.483593	-57.244998	174.870	0.070	-0.210	0.850	174.870	-1.600	1.300																			1580029971.0	8.88	16.45
26/01/2020 09:12:52	26012020	260120	091252	175.110	12.483552	-57.244998	175.220	-0.000	-0.160	0.510	175.190	-1.600	1.000																			1580029972.0	8.88	16.45
26/01/2020 09:12:53	26012020	260120	091253	175.490	12.483512	-57.244997	175.550	-0.060	-0.180	0.330	175.550	-1.600	0.800																			1580029973.0	8.74	16.19
26/01/2020 09:12:54	26012020	260120	091254	175.680	12.483470	-57.244997	175.660	-0.010	-0.380	0.460	175.690	-1.700	0.900																			1580029974.0	8.88	16.45
26/01/2020 09:12:55	26012020	260120	091255	175.670	12.483428	-57.244997	175.610	0.110	-0.550	0.710	175.660	-1.900	1.100																			1580029975.0	9.14	16.93
26/01/2020 09:12:56	26012020	260120	091256	175.560	12.483385	-57.244997	175.490	0.190	-0.430	0.950	175.540	-1.800	1.400																			1580029976.0	9.09	16.83
26/01/2020 09:12:57	26012020	260120	091257	175.460	12.483345	-57.244997	175.440	0.150	-0.040	1.060	175.460	-1.500	1.500																			1580029977.0	8.81	16.32
26/01/2020 09:12:58	26012020	260120	091258	175.470	12.483305	-57.244995	175.440	0.030	0.300	1.030	175.470	-1.100	1.500																			1580029978.0	8.56	15.85
26/01/2020 09:12:59	26012020	260120	091259	175.440	12.483265	-57.244993	175.380	-0.060	0.240	1.030	175.420	-1.100	1.500																			1580029979.0	8.70	16.11
26/01/2020 09:13:00	26012020	260120	091300	175.330	12.483222	-57.244993	175.250	-0.060	-0.140	1.160	175.290	-1.500	1.600	1013.70	25.60	25.60	19.60	19.70	-1.00	69.00	69.00	424.00	25.30	305.00	9.40	91.00	7.70	15	3293.00	27.40	27.40	1580029980.0	9.10	16.85
26/01/2020 09:13:01	26012020	260120	091301	175.120	12.483178	-57.244995	175.020	0.010	-0.510	1.340	175.070	-1.900	1.800																			1580029981.0	9.34	17.30
26/01/2020 09:13:02	26012020	260120	091302	174.900	12.483135	-57.244997	174.840	0.020	-0.580	1.370	174.870	-2.000	1.800																			1580029982.0	9.25	17.13
26/01/2020 09:13:03	26012020	260120	091303	174.840	12.483093	-57.244997	174.840	-0.110	-0.320	1.230	174.850	-1.700	1.700																			1580029983.0	8.90	16.48
26/01/2020 09:13:04	26012020	260120	091304	174.950	12.483053	-57.244998	174.990	-0.240	0.010	0.950	174.990	-1.400	1.400																			1580029984.0	8.58	15.89
26/01/2020 09:13:05	26012020	260120	091305	175.160	12.483015	-57.244998	175.190	-0.170	0.030	0.620	175.190	-1.300	1.100																			1580029985.0	8.58	15.89
26/01/2020 09:13:06	26012020	260120	091306	175.330	12.482972	-57.244998	175.360	0.060	-0.300	0.330	175.360	-1.700	0.800																			1580029986.0	9.01	16.69
26/01/2020 09:13:07	26012020	260120	091307	175.510	12.482930	-57.244997	175.540	0.230	-0.480	0.200	175.550	-1.900	0.600																			1580029987.0	9.27	17.17
26/01/2020 09:13:08	26012020	260120	091308	175.690	12.482888	-57.244995	175.680	0.190	-0.350	0.200	175.710	-1.800	0.600																			1580029988.0	8.99	16.65
26/01/2020 09:13:09	26012020	260120	091309	175.770	12.482847	-57.244993	175.720	0.040	-0.240	0.390	175.770	-1.600	0.800																			1580029989.0	8.76	16.22
26/01/2020 09:13:10	26012020	260120	091310	175.740	12.482805	-57.244993	175.710	-0.130	-0.220	0.840	175.740	-1.600	1.300																			1580029990.0	8.93	16.54
26/01/2020 09:13:11	26012020	260120	091311	175.740	12.482763	-57.244995	175.720	-0.280	-0.130	1.320	175.750	-1.500	1.700																			1580029991.0	9.07	16.80
26/01/2020 09:13:12	26012020	260120	091312	175.720	12.482722	-57.244998	175.670	-0.250	-0.020	1.650	175.710	-1.400	2.100																			1580029992.0	8.97	16.61
26/01/2020 09:13:13	26012020	260120	091313	175.600	12.482680	-57.245000	175.520	-0.020	0.000	1.670	175.570	-1.400	2.100																			1580029993.0	8.99	16.65
26/01/2020 09:13:14	26012020	260120	091314	175.450	12.482638	-57.244998	175.390	0.200	0.010	1.470	175.430	-1.400	1.900																			1580029994.0	9.04	16.74
26/01/2020 09:13:15	26012020	260120	091315	175.400	12.482597	-57.244998	175.380	0.240	0.080	1.180	175.410	-1.300	1.600																			1580029995.0	8.90	16.48
26/01/2020 09:13:16	26012020	260120	091316	175.430	12.482557	-57.244997	175.410	0.110	0.070	0.890	175.440	-1.300	1.300																			1580029996.0	8.72	16.15
26/01/2020 09:13:17	26012020	260120	091317	175.450	12.482515	-57.244997	175.400	0.040	-0.120	0.740	175.450	-1.500	1.200																			1580029997.0	8.75	16.21
26/01/2020 09:13:18	26012020	260120	091318	175.390	12.482473	-57.244997	175.320	0.150	-0.470	0.700	175.370	-1.800	1.100																			1580029998.0	8.99	16.65
26/01/2020 09:13:19	26012020	260120	091319	175.330	12.482432	-57.244998	175.300	0.290	-0.700	0.600	175.340	-2.100	1.000																			1580029999.0	9.14	16.93
26/01/2020 09:13:20	26012020	260120	091320	175.440	12.482388	-57.244997	175.480	0.240	-0.650	0.500	175.480	-2.000	0.900																			1580030000.0	8.99	16.65
26/01/2020 09:13:21	26012020	260120	091321	175.680	12.482348	-57.244997	175.740	-0.060	-0.410	0.520	175.730	-1.800	1.000																			1580030001.0	8.75	16.21
26/01/2020 09:13:22	26012020	260120	091322	175.890	12.482308	-57.244998	175.890	-0.370	-0.240	0.690	175.910	-1.600	1.100																			1580030002.0	8.70	16.11
26/01/2020 09:13:23	26012020	260120	091323	175.940	12.482267	-57.245000	175.910	-0.450	-0.260	0.900	175.940	-1.600	1.300																			1580030003.0	8.96	16.59
26/01/2020 09:13:24	26012020	260120	091324	175.920	12.482223	-57.245000	175.890	-0.260	-0.260	1.050	175.910	-1.600	1.500																			1580030004.0	9.21	17.06
26/01/2020 09:13:25	26012020	260120	091325	175.900	12.482182	-57.245000	175.860	0.020	-0.120	0.990	175.900	-1.500	1.400																			1580030005.0	9.15	16.95
26/01/2020 09:13:26	26012020	260120	091326	175.820	12.482140	-57.244998	175.740	0.170	0.040	0.830	175.800	-1.300	1.300																			1580030006.0	8.99	16.65
26/01/2020 09:13:27	26012020	260120	091327	175.640	12.482098	-57.244997	175.520	0.130	0.150	0.810	175.600	-1.200	1.200																			1580030007.0	8.95	16.58
26/01/2020 09:13:28	26012020	260120	091328	175.390	12.482057	-57.244995	175.280	-0.000	0.240	0.970	175.340	-1.100	1.400																			1580030008.0	8.93	16.54
26/01/2020 09:13:29	26012020	260120	091329	175.160	12.482015	-57.244997	175.070	-0.050	0.290	1.240	175.120	-1.100	1.700																			1580030009.0	8.84	16.37
26/01/2020 09:13:30	26012020	260120	091330	174.990	12.481973	-57.244998	174.920	0.090	0.120	1.380	174.960	-1.200	1.800																			1580030010.0	8.86	16.41
26/01/2020 09:13:31	26012020	260120	091331	174.910	12.481932	-57.245000	174.900	0.320	-0.190	1.240	174.930	-1.500	1.700																			1580030011.0	9.02	16.71
26/01/2020 09:13:32	26012020	260120	091332	175.010	12.481890	-57.245002	175.040	0.390	-0.440	1.020	175.050	-1.800	1.500																			1580030012.0	8.99	16.65
26/01/2020 09:13:33	26012020	260120	091333	175.180	12.481848	-57.245002	175.200	0.240	-0.610	0.820	175.210	-2.000	1.300																			1580030013.0	8.83	16.35
26/01/2020 09:13:34	26012020	260120	091334	175.350	12.481808	-57.245002	175.370	0.040	-0.740	0.630	175.390	-2.100	1.100																			1580030014.0	8.81	16.32
26/01/2020 09:13:35	26012020	260120	091335	175.510	12.481767	-57.245000	175.520	-0.080	-0.770	0.520	175.540	-2.200	1.000																			1580030015.0	8.90	16.48
26/01/2020 09:13:36	26012020	260120	091336	175.660	12.481725	-57.245000	175.650	-0.140	-0.630	0.460	175.680	-2.000	0.900																			1580030016.0	8.91	16.50
26/01/2020 09:13:37	26012020	260120	091337	175.740	12.481683	-57.245000	175.700	-0.170	-0.420	0.480	175.740	-1.800	0.900																			1580030017.0	8.89	16.46
26/01/2020 09:13:38	26012020	260120	091338	175.750	12.481642	-57.244998	175.690	-0.180	-0.230	0.600	175.740	-1.600	1.000																			1580030018.0	8.99	16.65
26/01/2020 09:13:39	26012020	260120	091339	175.660	12.481600	-57.244998	175.570	-0.200	-0.080	0.860	175.630	-1.500	1.300																			1580030019.0	9.11	16.87
26/01/2020 09:13:40	26012020	260120	091340	175.490	12.481557	-57.244998	175.390	-0.230	0.070	1.190	175.450	-1.300	1.600																			1580030020.0	9.21	17.06
26/01/2020 09:13:41	26012020	260120	091341	175.360	12.481515	-57.244998	175.340	-0.260	0.300	1.380	175.360	-1.100	1.800																			1580030021.0	9.16	16.96
26/01/2020 09:13:42	26012020	260120	091342	175.390	12.481473	-57.245000	175.400	-0.230	0.540	1.340	175.410	-0.800	1.800																			1580030022.0	8.93	16.54
26/01/2020 09:13:43	26012020	260120	091343	175.490	12.481432	-57.245000	175.470	-0.090	0.520	1.230	175.500	-0.800	1.700																			1580030023.0	8.78	16.26
26/01/2020 09:13:44	26012020	260120	091344	175.490	12.481390	-57.245000	175.420	0.150	0.090	1.200	175.470	-1.200	1.600																			1580030024.0	8.94	16.56
26/01/2020 09:13:45	26012020	260120	091345	175.360	12.481347	-57.245002	175.270	0.360	-0.470	1.150	175.340	-1.800	1.600																			1580030025.0	9.26	17.15
26/01/2020 09:13:46	26012020	260120	091346	175.220	12.481305	-57.245002	175.130	0.450	-0.710	1.040	175.190	-2.100	1.500																			1580030026.0	9.18	17.00
26/01/2020 09:13:47	26012020	260120	091347	175.140	12.481263	-57.245002	175.120	0.350	-0.550	0.800	175.150	-1.900	1.300																			1580030027.0	8.79	16.28
26/01/2020 09:13:48	26012020	260120	091348	175.280	12.481225	-57.245000	175.320	0.110	-0.230	0.540	175.330	-1.600	1.000																			1580030028.0	8.44	15.63
26/01/2020 09:13:49	26012020	260120	091349	175.510	12.481185	-57.245000	175.540	-0.050	-0.190	0.320	175.560	-1.600	0.800																			1580030029.0	8.46	15.67
26/01/2020 09:13:50	26012020	260120	091350	175.730	12.481143	-57.245000	175.710	-0.030	-0.480	0.210	175.750	-1.800	0.700																			1580030030.0	8.92	16.52
26/01/2020 09:13:51	26012020	260120	091351	175.870	12.481100	-57.245000	175.870	0.070	-0.720	0.280	175.900	-2.100	0.700																			1580030031.0	9.32	17.26
26/01/2020 09:13:52	26012020	260120	091352	176.040	12.481058	-57.245000	176.050	0.070	-0.550	0.470	176.070	-1.900	0.900																			1580030032.0	9.19	17.02
26/01/2020 09:13:53	26012020	260120	091353	176.150	12.481017	-57.245000	176.090	-0.080	-0.200	0.760	176.150	-1.600	1.200																			1580030033.0	8.77	16.24
26/01/2020 09:13:54	26012020	260120	091354	176.020	12.480977	-57.245000	175.860	-0.220	-0.120	1.160	175.950	-1.500	1.600																			1580030034.0	8.80	16.30
26/01/2020 09:13:55	26012020	260120	091355	175.640	12.480933	-57.245002	175.480	-0.260	-0.270	1.550	175.560	-1.600	2.000																			1580030035.0	9.32	17.26
26/01/2020 09:13:56	26012020	260120	091356	175.330	12.480888	-57.245003	175.250	-0.300	-0.130	1.720	175.300	-1.500	2.200																			1580030036.0	9.47	17.54
26/01/2020 09:13:57	26012020	260120	091357	175.220	12.480847	-57.245005	175.180	-0.380	0.310	1.660	175.210	-1.100	2.100																			1580030037.0	8.99	16.65
26/01/2020 09:13:58	26012020	260120	091358	175.170	12.480807	-57.245005	175.130	-0.350	0.510	1.430	175.160	-0.900	1.900																			1580030038.0	8.66	16.04
26/01/2020 09:13:59	26012020	260120	091359	175.130	12.480765	-57.245007	175.090	-0.140	0.230	1.160	175.130	-1.100	1.600																			1580030039.0	8.94	16.56
26/01/2020 09:14:00	26012020	260120	091400	175.140	12.480722	-57.245007	175.150	0.140	-0.190	0.890	175.160	-1.500	1.400	1013.80	25.50	25.60	19.40	19.50	-1.00	69.00	69.00	425.00	25.30	306.00	9.10	91.00	7.40	15	3255.00	27.40	27.40	1580030040.0	9.30	17.22
26/01/2020 09:14:01	26012020	260120	091401	175.310	12.480678	-57.245007	175.360	0.340	-0.330	0.590	175.360	-1.700	1.000																			1580030041.0	9.14	16.93
26/01/2020 09:14:02	26012020	260120	091402	175.540	12.480638	-57.245005	175.530	0.420	-0.310	0.360	175.570	-1.700	0.800																			1580030042.0	8.72	16.15
26/01/2020 09:14:03	26012020	260120	091403	175.580	12.480598	-57.245005	175.520	0.410	-0.360	0.410	175.570	-1.700	0.900																			1580030043.0	8.64	16.00
26/01/2020 09:14:04	26012020	260120	091404	175.540	12.480558	-57.245005	175.500	0.310	-0.390	0.670	175.540	-1.800	1.100																			1580030044.0	8.79	16.28
26/01/2020 09:14:05	26012020	260120	091405	175.580	12.480517	-57.245005	175.590	0.140	-0.310	0.820	175.610	-1.700	1.300																			1580030045.0	8.81	16.32
26/01/2020 09:14:06	26012020	260120	091406	175.720	12.480477	-57.245007	175.740	-0.000	-0.230	0.890	175.750	-1.600	1.300																			1580030046.0	8.75	16.21
26/01/2020 09:14:07	26012020	260120	091407	175.820	12.480435	-57.245008	175.770	-0.030	-0.310	1.000	175.820	-1.700	1.400																			1580030047.0	8.84	16.37
26/01/2020 09:14:08	26012020	260120	091408	175.730	12.480393	-57.245008	175.630	0.080	-0.480	1.070	175.690	-1.800	1.500																			1580030048.0	9.08	16.82
26/01/2020 09:14:09	26012020	260120	091409	175.530	12.480350	-57.245007	175.410	0.120	-0.540	1.110	175.490	-1.900	1.500																			1580030049.0	9.20	17.04
26/01/2020 09:14:10	26012020	260120	091410	175.320	12.480308	-57.245007	175.210	-0.060	-0.380	1.180	175.280	-1.800	1.600																			1580030050.0	9.09	16.83
26/01/2020 09:14:11	26012020	260120	091411	175.170	12.480267	-57.245007	175.100	-0.390	-0.150	1.220	175.150	-1.500	1.700																			1580030051.0	8.92	16.52
26/01/2020 09:14:12	26012020	260120	091412	175.100	12.480225	-57.245008	175.040	-0.600	-0.030	1.230	175.100	-1.400	1.700																			1580030052.0	8.96	16.59
26/01/2020 09:14:13	26012020	260120	091413	175.050	12.480182	-57.245010	175.000	-0.490	-0.010	1.170	175.040	-1.400	1.600																			1580030053.0	9.11	16.87
26/01/2020 09:14:14	26012020	260120	091414	175.020	12.480140	-57.245012	174.970	-0.130	0.010	0.940	175.020	-1.400	1.400																			1580030054.0	9.15	16.95
26/01/2020 09:14:15	26012020	260120	091415	175.040	12.480098	-57.245012	175.000	0.200	0.070	0.650	175.050	-1.300	1.100																			1580030055.0	9.02	16.71
26/01/2020 09:14:16	26012020	260120	091416	175.070	12.480057	-57.245008	175.030	0.300	0.080	0.520	175.080	-1.300	1.000																			1580030056.0	8.92	16.52
26/01/2020 09:14:17	26012020	260120	091417	175.120	12.480015	-57.245008	175.090	0.160	0.020	0.580	175.130	-1.400	1.000																			1580030057.0	8.92	16.52
26/01/2020 09:14:18	26012020	260120	091418	175.180	12.479973	-57.245008	175.160	-0.040	-0.070	0.890	175.190	-1.400	1.300																			1580030058.0	8.88	16.45
26/01/2020 09:14:19	26012020	260120	091419	175.220	12.479932	-57.245012	175.200	-0.080	-0.210	1.220	175.230	-1.600	1.600																			1580030059.0	8.91	16.50
26/01/2020 09:14:20	26012020	260120	091420	175.240	12.479890	-57.245013	175.200	0.080	-0.360	1.290	175.240	-1.700	1.700																			1580030060.0	8.94	16.56
26/01/2020 09:14:21	26012020	260120	091421	175.200	12.479848	-57.245013	175.120	0.290	-0.520	1.150	175.180	-1.900	1.600																			1580030061.0	8.93	16.54
26/01/2020 09:14:22	26012020	260120	091422	175.070	12.479807	-57.245012	174.980	0.370	-0.600	1.030	175.050	-2.000	1.500																			1580030062.0	8.96	16.59
26/01/2020 09:14:23	26012020	260120	091423	174.970	12.479767	-57.245010	174.920	0.240	-0.520	0.920	174.970	-1.900	1.400																			1580030063.0	8.94	16.56
26/01/2020 09:14:24	26012020	260120	091424	174.960	12.479725	-57.245008	174.900	-0.030	-0.370	0.840	174.950	-1.800	1.300																			1580030064.0	8.84	16.37
26/01/2020 09:14:25	26012020	260120	091425	174.930	12.479683	-57.245008	174.870	-0.260	-0.210	0.870	174.920	-1.600	1.300																			1580030065.0	8.89	16.46
26/01/2020 09:14:26	26012020	260120	091426	174.890	12.479642	-57.245010	174.860	-0.360	-0.040	0.980	174.890	-1.400	1.400																			1580030066.0	8.98	16.63
26/01/2020 09:14:27	26012020	260120	091427	174.940	12.479600	-57.245012	174.930	-0.330	0.130	1.070	174.950	-1.300	1.500																			1580030067.0	8.96	16.59
26/01/2020 09:14:28	26012020	260120	091428	175.000	12.479558	-57.245012	174.940	-0.170	0.120	1.100	175.000	-1.200	1.500																			1580030068.0	8.92	16.52
26/01/2020 09:14:29	26012020	260120	091429	174.890	12.479517	-57.245012	174.760	0.070	-0.170	1.220	174.840	-1.500	1.600																			1580030069.0	9.15	16.95
26/01/2020 09:14:30	26012020	260120	091430	174.670	12.479472	-57.245012	174.580	0.230	-0.340	1.300	174.640	-1.700	1.700																			1580030070.0	9.39	17.39
26/01/2020 09:14:31	26012020	260120	091431	174.580	12.479430	-57.245012	174.530	0.170	-0.110	1.310	174.580	-1.500	1.700																			1580030071.0	9.03	16.72
26/01/2020 09:14:32	26012020	260120	091432	174.610	12.479390	-57.245012	174.580	-0.010	0.160	1.240	174.620	-1.200	1.700																			1580030072.0	8.53	15.80
26/01/2020 09:14:33	26012020	260120	091433	174.630	12.479352	-57.245012	174.560	-0.090	0.030	1.150	174.620	-1.300	1.600																			1580030073.0	8.56	15.85
26/01/2020 09:14:34	26012020	260120	091434	174.500	12.479308	-57.245012	174.410	0.010	-0.490	1.160	174.480	-1.800	1.600																			1580030074.0	9.06	16.78
26/01/2020 09:14:35	26012020	260120	091435	174.410	12.479265	-57.245010	174.380	0.130	-0.870	1.120	174.410	-2.200	1.600																			1580030075.0	9.43	17.46
26/01/2020 09:14:36	26012020	260120	091436	174.540	12.479222	-57.245010	174.590	0.060	-0.750	0.960	174.590	-2.200	1.400																			1580030076.0	9.22	17.08
26/01/2020 09:14:37	26012020	260120	091437	174.820	12.479182	-57.245008	174.850	-0.160	-0.260	0.760	174.870	-1.700	1.200																			1580030077.0	8.70	16.11
26/01/2020 09:14:38	26012020	260120	091438	175.030	12.479142	-57.245008	175.010	-0.320	0.120	0.720	175.060	-1.300	1.200																			1580030078.0	8.49	15.72
26/01/2020 09:14:39	26012020	260120	091439	175.120	12.479102	-57.245008	175.060	-0.210	0.120	0.740	175.130	-1.200	1.200																			1580030079.0	8.78	16.26
26/01/2020 09:14:40	26012020	260120	091440	175.120	12.479058	-57.245007	175.040	0.030	-0.110	0.820	175.110	-1.500	1.200																			1580030080.0	9.19	17.02
26/01/2020 09:14:41	26012020	260120	091441	175.070	12.479015	-57.245007	175.000	0.150	-0.170	1.060	175.070	-1.600	1.500																			1580030081.0	9.35	17.32
26/01/2020 09:14:42	26012020	260120	091442	175.020	12.478973	-57.245007	174.930	0.090	0.070	1.390	175.000	-1.300	1.800																			1580030082.0	8.97	16.61
26/01/2020 09:14:43	26012020	260120	091443	174.880	12.478933	-57.245008	174.760	0.030	0.300	1.590	174.840	-1.100	2.000																			1580030083.0	8.61	15.95
26/01/2020 09:14:44	26012020	260120	091444	174.670	12.478893	-57.245010	174.540	0.120	0.250	1.600	174.620	-1.100	2.000																			1580030084.0	8.60	15.93
26/01/2020 09:14:45	26012020	260120	091445	174.430	12.478852	-57.245010	174.290	0.320	-0.170	1.470	174.380	-1.500	1.900																			1580030085.0	8.89	16.46
26/01/2020 09:14:46	26012020	260120	091446	174.220	12.478808	-57.245008	174.110	0.430	-0.690	1.260	174.190	-2.000	1.700																			1580030086.0	9.21	17.06
26/01/2020 09:14:47	26012020	260120	091447	174.150	12.478767	-57.245007	174.120	0.260	-0.880	1.000	174.170	-2.300	1.500																			1580030087.0	9.20	17.04
26/01/2020 09:14:48	26012020	260120	091448	174.340	12.478725	-57.245005	174.400	-0.110	-0.670	0.710	174.410	-2.100	1.200																			1580030088.0	8.85	16.39
26/01/2020 09:14:49	26012020	260120	091449	174.730	12.478685	-57.245005	174.810	-0.420	-0.370	0.430	174.820	-1.800	0.900																			1580030089.0	8.56	15.85
26/01/2020 09:14:50	26012020	260120	091450	175.130	12.478645	-57.245005	175.170	-0.460	-0.310	0.240	175.190	-1.700	0.700																			1580030090.0	8.66	16.04
26/01/2020 09:14:51	26012020	260120	091451	175.380	12.478603	-57.245005	175.360	-0.270	-0.480	0.270	175.410	-1.900	0.700																			1580030091.0	9.09	16.83
26/01/2020 09:14:52	26012020	260120	091452	175.500	12.478558	-57.245003	175.450	-0.080	-0.550	0.500	175.510	-1.900	0.900																			1580030092.0	9.38	17.37
26/01/2020 09:14:53	26012020	260120	091453	175.460	12.478517	-57.245003	175.350	-0.060	-0.320	0.850	175.440	-1.700	1.300																			1580030093.0	9.25	17.13
26/01/2020 09:14:54	26012020	260120	091454	175.210	12.478473	-57.245003	175.050	-0.140	0.090	1.310	175.150	-1.300	1.700																			1580030094.0	9.03	16.72
26/01/2020 09:14:55	26012020	260120	091455	174.880	12.478433	-57.245005	174.740	-0.190	0.570	1.550	174.820	-0.800	2.000																			1580030095.0	8.91	16.50
26/01/2020 09:14:56	26012020	260120	091456	174.630	12.478392	-57.245005	174.530	-0.140	0.850	1.560	174.600	-0.500	2.000																			1580030096.0	8.78	16.26
26/01/2020 09:14:57	26012020	260120	091457	174.460	12.478350	-57.245005	174.360	0.030	0.710	1.440	174.430	-0.700	1.900																			1580030097.0	8.87	16.43
26/01/2020 09:14:58	26012020	260120	091458	174.360	12.478308	-57.245005	174.300	0.240	0.300	1.190	174.350	-1.100	1.600																			1580030098.0	9.05	16.76
26/01/2020 09:14:59	26012020	260120	091459	174.350	12.478267	-57.245005	174.290	0.400	-0.140	0.960	174.350	-1.500	1.400																			1580030099.0	9.00	16.67
26/01/2020 09:15:00	26012020	260120	091500	174.350	12.478225	-57.245005	174.280	0.480	-0.590	0.830	174.340	-1.900	1.300	1013.80	25.60	25.60	19.30	19.40	-1.00	68.00	68.00	425.00	25.30	305.00	9.30	91.00	7.60	15	3298.00	27.40	27.40	1580030100.0	8.82	16.33
26/01/2020 09:15:01	26012020	260120	091501	174.370	12.478185	-57.245003	174.340	0.450	-0.960	0.650	174.390	-2.300	1.100																			1580030101.0	8.81	16.32
26/01/2020 09:15:02	26012020	260120	091502	174.550	12.478143	-57.245003	174.560	0.320	-1.110	0.460	174.600	-2.500	0.900																			1580030102.0	8.78	16.26
26/01/2020 09:15:03	26012020	260120	091503	174.810	12.478103	-57.245003	174.850	0.110	-1.040	0.300	174.870	-2.400	0.800																			1580030103.0	8.66	16.04
26/01/2020 09:15:04	26012020	260120	091504	175.080	12.478063	-57.245002	175.080	-0.100	-0.940	0.290	175.130	-2.300	0.700																			1580030104.0	8.73	16.17
26/01/2020 09:15:05	26012020	260120	091505	175.210	12.478022	-57.245000	175.150	-0.280	-0.840	0.590	175.220	-2.200	1.000																			1580030105.0	9.03	16.72
26/01/2020 09:15:06	26012020	260120	091506	175.170	12.477978	-57.245000	175.070	-0.430	-0.620	1.100	175.140	-2.000	1.500																			1580030106.0	9.31	17.24
26/01/2020 09:15:07	26012020	260120	091507	175.010	12.477935	-57.245002	174.920	-0.550	-0.130	1.530	174.970	-1.600	1.900																			1580030107.0	9.37	17.35
26/01/2020 09:15:08	26012020	260120	091508	174.840	12.477892	-57.245003	174.760	-0.620	0.520	1.790	174.800	-0.900	2.200																			1580030108.0	9.18	17.00
26/01/2020 09:15:09	26012020	260120	091509	174.670	12.477850	-57.245003	174.570	-0.560	1.050	1.800	174.630	-0.400	2.200																			1580030109.0	8.98	16.63
26/01/2020 09:15:10	26012020	260120	091510	174.490	12.477808	-57.245003	174.410	-0.330	1.210	1.610	174.460	-0.200	2.100																			1580030110.0	8.97	16.61
26/01/2020 09:15:11	26012020	260120	091511	174.400	12.477767	-57.245003	174.370	0.040	0.980	1.250	174.400	-0.400	1.700																			1580030111.0	9.04	16.74
26/01/2020 09:15:12	26012020	260120	091512	174.490	12.477723	-57.245002	174.500	0.430	0.520	0.750	174.520	-0.800	1.200																			1580030112.0	9.02	16.71
26/01/2020 09:15:13	26012020	260120	091513	174.660	12.477683	-57.245000	174.640	0.680	-0.060	0.370	174.680	-1.400	0.800																			1580030113.0	8.81	16.32
26/01/2020 09:15:14	26012020	260120	091514	174.740	12.477643	-57.244997	174.700	0.760	-0.780	0.280	174.750	-2.100	0.700																			1580030114.0	8.74	16.19
26/01/2020 09:15:15	26012020	260120	091515	174.780	12.477602	-57.244997	174.740	0.660	-1.400	0.420	174.790	-2.800	0.800																			1580030115.0	8.87	16.43
26/01/2020 09:15:16	26012020	260120	091516	174.800	12.477560	-57.244997	174.780	0.460	-1.610	0.640	174.810	-3.000	1.100																			1580030116.0	8.88	16.45
26/01/2020 09:15:17	26012020	260120	091517	174.890	12.477520	-57.244998	174.940	0.220	-1.300	0.720	174.930	-2.700	1.200																			1580030117.0	8.70	16.11
26/01/2020 09:15:18	26012020	260120	091518	175.160	12.477480	-57.244997	175.240	-0.080	-0.710	0.630	175.220	-2.100	1.100																			1580030118.0	8.50	15.74
26/01/2020 09:15:19	26012020	260120	091519	175.440	12.477440	-57.244997	175.480	-0.390	-0.260	0.610	175.480	-1.700	1.000																			1580030119.0	8.58	15.89
26/01/2020 09:15:20	26012020	260120	091520	175.560	12.477398	-57.244995	175.520	-0.620	-0.110	0.810	175.550	-1.500	1.200																			1580030120.0	9.04	16.74
26/01/2020 09:15:21	26012020	260120	091521	175.500	12.477355	-57.244997	175.430	-0.690	-0.020	1.140	175.470	-1.400	1.600																			1580030121.0	9.44	17.48
26/01/2020 09:15:22	26012020	260120	091522	175.350	12.477310	-57.244998	175.250	-0.580	0.250	1.380	175.310	-1.200	1.800																			1580030122.0	9.42	17.45
26/01/2020 09:15:23	26012020	260120	091523	175.080	12.477268	-57.245000	174.930	-0.340	0.490	1.520	175.010	-0.900	1.900																			1580030123.0	9.18	17.00
26/01/2020 09:15:24	26012020	260120	091524	174.730	12.477225	-57.245000	174.610	-0.070	0.550	1.510	174.670	-0.800	1.900																			1580030124.0	9.16	16.96
26/01/2020 09:15:25	26012020	260120	091525	174.570	12.477183	-57.245000	174.540	0.130	0.570	1.260	174.570	-0.800	1.700																			1580030125.0	9.08	16.82
26/01/2020 09:15:26	26012020	260120	091526	174.640	12.477142	-57.244998	174.640	0.230	0.490	0.850	174.660	-0.900	1.300																			1580030126.0	8.79	16.28
26/01/2020 09:15:27	26012020	260120	091527	174.750	12.477102	-57.244997	174.730	0.310	0.120	0.540	174.770	-1.200	1.000																			1580030127.0	8.71	16.13
26/01/2020 09:15:28	26012020	260120	091528	174.830	12.477060	-57.244995	174.800	0.400	-0.450	0.430	174.850	-1.800	0.900																			1580030128.0	8.87	16.43
26/01/2020 09:15:29	26012020	260120	091529	174.910	12.477018	-57.244995	174.910	0.470	-0.890	0.500	174.940	-2.300	0.900																			1580030129.0	8.99	16.65
26/01/2020 09:15:30	26012020	260120	091530	175.060	12.476978	-57.244995	175.070	0.420	-0.970	0.700	175.100	-2.400	1.100																			1580030130.0	8.80	16.30
26/01/2020 09:15:31	26012020	260120	091531	175.210	12.476938	-57.244997	175.210	0.230	-0.820	0.840	175.230	-2.200	1.300																			1580030131.0	8.60	15.93
26/01/2020 09:15:32	26012020	260120	091532	175.340	12.476898	-57.244997	175.360	-0.020	-0.620	0.910	175.380	-2.000	1.300																			1580030132.0	8.60	15.93
26/01/2020 09:15:33	26012020	260120	091533	175.480	12.476857	-57.244997	175.460	-0.220	-0.440	0.990	175.500	-1.800	1.400																			1580030133.0	8.75	16.21
26/01/2020 09:15:34	26012020	260120	091534	175.460	12.476815	-57.244998	175.370	-0.200	-0.300	1.010	175.440	-1.700	1.400																			1580030134.0	8.96	16.59
26/01/2020 09:15:35	26012020	260120	091535	175.340	12.476773	-57.244997	175.260	-0.040	-0.090	0.880	175.320	-1.500	1.300																			1580030135.0	9.07	16.80
26/01/2020 09:15:36	26012020	260120	091536	175.250	12.476732	-57.244993	175.190	0.000	0.090	0.830	175.240	-1.300	1.300																			1580030136.0	9.01	16.69
26/01/2020 09:15:37	26012020	260120	091537	175.190	12.476690	-57.244992	175.120	-0.160	0.080	0.910	175.180	-1.300	1.300																			1580030137.0	9.05	16.76
26/01/2020 09:15:38	26012020	260120	091538	175.070	12.476647	-57.244993	174.960	-0.400	-0.040	1.110	175.030	-1.400	1.500																			1580030138.0	9.20	17.04
26/01/2020 09:15:39	26012020	260120	091539	174.870	12.476603	-57.244995	174.760	-0.470	-0.110	1.350	174.830	-1.500	1.800																			1580030139.0	9.26	17.15
26/01/2020 09:15:40	26012020	260120	091540	174.690	12.476562	-57.244998	174.630	-0.290	-0.070	1.390	174.670	-1.500	1.800																			1580030140.0	9.14	16.93
26/01/2020 09:15:41	26012020	260120	091541	174.670	12.476520	-57.244998	174.680	0.000	0.080	1.060	174.690	-1.300	1.500																			1580030141.0	8.96	16.59
26/01/2020 09:15:42	26012020	260120	091542	174.870	12.476480	-57.244998	174.920	0.200	0.210	0.630	174.920	-1.200	1.100																			1580030142.0	8.72	16.15
26/01/2020 09:15:43	26012020	260120	091543	175.160	12.476440	-57.244995	175.200	0.230	0.140	0.330	175.210	-1.200	0.800																			1580030143.0	8.63	15.98
26/01/2020 09:15:44	26012020	260120	091544	175.400	12.476398	-57.244993	175.380	0.200	-0.160	0.360	175.420	-1.500	0.800																			1580030144.0	8.77	16.24
26/01/2020 09:15:45	26012020	260120	091545	175.450	12.476357	-57.244995	175.370	0.230	-0.540	0.730	175.440	-1.900	1.100																			1580030145.0	9.00	16.67
26/01/2020 09:15:46	26012020	260120	091546	175.340	12.476315	-57.244997	175.220	0.330	-0.750	1.150	175.300	-2.100	1.600																			1580030146.0	9.08	16.82
26/01/2020 09:15:47	26012020	260120	091547	175.160	12.476273	-57.244998	175.070	0.370	-0.610	1.380	175.130	-2.000	1.800																			1580030147.0	8.96	16.59
26/01/2020 09:15:48	26012020	260120	091548	175.130	12.476233	-57.244998	175.130	0.220	-0.220	1.250	175.160	-1.600	1.700																			1580030148.0	8.63	15.98
26/01/2020 09:15:49	26012020	260120	091549	175.290	12.476193	-57.244997	175.290	-0.040	0.040	1.010	175.330	-1.400	1.500																			1580030149.0	8.45	15.65
26/01/2020 09:15:50	26012020	260120	091550	175.410	12.476153	-57.244997	175.380	-0.230	-0.050	0.830	175.430	-1.400	1.300																			1580030150.0	8.69	16.09
26/01/2020 09:15:51	26012020	260120	091551	175.490	12.476112	-57.244995	175.460	-0.280	-0.280	0.660	175.510	-1.700	1.100																			1580030151.0	9.07	16.80
26/01/2020 09:15:52	26012020	260120	091552	175.570	12.476068	-57.244993	175.530	-0.190	-0.490	0.590	175.580	-1.900	1.000																			1580030152.0	9.18	17.00
26/01/2020 09:15:53	26012020	260120	091553	175.570	12.476025	-57.244993	175.510	-0.050	-0.640	0.710	175.570	-2.000	1.100																			1580030153.0	9.22	17.08
26/01/2020 09:15:54	26012020	260120	091554	175.540	12.475983	-57.244993	175.480	-0.020	-0.510	0.920	175.530	-1.900	1.300																			1580030154.0	9.21	17.06
26/01/2020 09:15:55	26012020	260120	091555	175.530	12.475942	-57.244995	175.470	-0.150	-0.130	1.180	175.520	-1.600	1.600																			1580030155.0	8.94	16.56
26/01/2020 09:15:56	26012020	260120	091556	175.460	12.475900	-57.244997	175.380	-0.340	0.190	1.470	175.440	-1.200	1.900																			1580030156.0	8.78	16.26
26/01/2020 09:15:57	26012020	260120	091557	175.360	12.475858	-57.245000	175.290	-0.390	0.330	1.580	175.340	-1.100	2.000																			1580030157.0	8.89	16.46
26/01/2020 09:15:58	26012020	260120	091558	175.240	12.475817	-57.245002	175.160	-0.170	0.250	1.470	175.220	-1.100	1.900																			1580030158.0	9.00	16.67
26/01/2020 09:15:59	26012020	260120	091559	175.090	12.475775	-57.245002	175.020	0.200	0.070	1.090	175.070	-1.300	1.500																			1580030159.0	9.13	16.91
26/01/2020 09:16:00	26012020	260120	091600	175.070	12.475733	-57.244998	175.060	0.470	0.030	0.590	175.090	-1.400	1.100	1013.80	25.60	25.60	19.40	19.50	-1.00	68.00	68.00	425.00	25.30	311.00	9.00	96.00	6.90	15	3244.00	27.40	27.40	1580030160.0	9.02	16.71
26/01/2020 09:16:01	26012020	260120	091601	175.210	12.475692	-57.244997	175.210	0.480	-0.010	0.220	175.240	-1.400	0.700																			1580030161.0	8.70	16.11
26/01/2020 09:16:02	26012020	260120	091602	175.360	12.475652	-57.244995	175.360	0.330	-0.210	0.110	175.400	-1.600	0.500																			1580030162.0	8.68	16.08
26/01/2020 09:16:03	26012020	260120	091603	175.520	12.475612	-57.244995	175.510	0.160	-0.480	0.360	175.550	-1.900	0.800																			1580030163.0	8.84	16.37
26/01/2020 09:16:04	26012020	260120	091604	175.630	12.475570	-57.244997	175.590	0.080	-0.600	0.760	175.650	-2.000	1.200																			1580030164.0	8.90	16.48
26/01/2020 09:16:05	26012020	260120	091605	175.640	12.475528	-57.244998	175.570	0.130	-0.650	1.060	175.630	-2.000	1.500																			1580030165.0	8.83	16.35
26/01/2020 09:16:06	26012020	260120	091606	175.570	12.475487	-57.245000	175.510	0.180	-0.650	1.100	175.560	-2.000	1.500																			1580030166.0	8.90	16.48
26/01/2020 09:16:07	26012020	260120	091607	175.520	12.475445	-57.244998	175.450	0.060	-0.540	1.120	175.510	-1.900	1.600																			1580030167.0	8.95	16.58
26/01/2020 09:16:08	26012020	260120	091608	175.450	12.475405	-57.244997	175.380	-0.230	-0.360	1.200	175.440	-1.800	1.600																			1580030168.0	8.91	16.50
26/01/2020 09:16:09	26012020	260120	091609	175.370	12.475363	-57.244997	175.290	-0.520	-0.180	1.210	175.350	-1.600	1.700																			1580030169.0	8.95	16.58
26/01/2020 09:16:10	26012020	260120	091610	175.270	12.475320	-57.244998	175.180	-0.620	-0.050	1.200	175.240	-1.500	1.600																			1580030170.0	9.04	16.74
26/01/2020 09:16:11	26012020	260120	091611	175.180	12.475278	-57.245000	175.110	-0.480	0.000	1.100	175.170	-1.400	1.500																			1580030171.0	9.17	16.98
26/01/2020 09:16:12	26012020	260120	091612	175.150	12.475235	-57.245002	175.110	-0.180	0.070	0.930	175.150	-1.300	1.400																			1580030172.0	9.21	17.06
26/01/2020 09:16:13	26012020	260120	091613	175.220	12.475193	-57.245000	175.200	0.060	0.240	0.630	175.240	-1.200	1.100																			1580030173.0	9.02	16.71
26/01/2020 09:16:14	26012020	260120	091614	175.330	12.475153	-57.244998	175.280	0.140	0.350	0.480	175.340	-1.000	0.900																			1580030174.0	8.74	16.19
26/01/2020 09:16:15	26012020	260120	091615	175.290	12.475112	-57.244998	175.160	0.160	0.060	0.680	175.260	-1.300	1.100																			1580030175.0	8.80	16.30
26/01/2020 09:16:16	26012020	260120	091616	175.040	12.475068	-57.245000	174.880	0.230	-0.420	1.060	174.970	-1.800	1.500																			1580030176.0	9.23	17.09
26/01/2020 09:16:17	26012020	260120	091617	174.800	12.475025	-57.245002	174.740	0.300	-0.530	1.310	174.780	-1.900	1.700																			1580030177.0	9.34	17.30
26/01/2020 09:16:18	26012020	260120	091618	174.840	12.474985	-57.245003	174.890	0.260	-0.120	1.200	174.890	-1.600	1.600																			1580030178.0	8.74	16.19
26/01/2020 09:16:19	26012020	260120	091619	175.130	12.474947	-57.245003	175.190	0.160	0.250	0.830	175.190	-1.200	1.300																			1580030179.0	8.18	15.15
26/01/2020 09:16:20	26012020	260120	091620	175.450	12.474908	-57.245002	175.460	0.120	0.070	0.520	175.490	-1.300	1.000																			1580030180.0	8.35	15.46
26/01/2020 09:16:21	26012020	260120	091621	175.630	12.474867	-57.245000	175.620	0.210	-0.490	0.410	175.660	-1.900	0.900																			1580030181.0	8.97	16.61
26/01/2020 09:16:22	26012020	260120	091622	175.780	12.474823	-57.244998	175.760	0.290	-0.810	0.430	175.800	-2.200	0.900																			1580030182.0	9.25	17.13
26/01/2020 09:16:23	26012020	260120	091623	175.890	12.474782	-57.244998	175.830	0.210	-0.790	0.620	175.890	-2.200	1.000																			1580030183.0	8.91	16.50
26/01/2020 09:16:24	26012020	260120	091624	175.810	12.474742	-57.244998	175.700	-0.040	-0.660	0.990	175.770	-2.100	1.400																			1580030184.0	8.76	16.22
26/01/2020 09:16:25	26012020	260120	091625	175.600	12.474700	-57.244998	175.490	-0.350	-0.510	1.470	175.560	-1.900	1.900																			1580030185.0	8.89	16.46
26/01/2020 09:16:26	26012020	260120	091626	175.390	12.474658	-57.245002	175.270	-0.540	-0.380	1.820	175.340	-1.800	2.200																			1580030186.0	9.08	16.82
26/01/2020 09:16:27	26012020	260120	091627	175.160	12.474615	-57.245005	175.050	-0.490	-0.250	1.870	175.120	-1.700	2.300																			1580030187.0	9.20	17.04
26/01/2020 09:16:28	26012020	260120	091628	174.970	12.474573	-57.245007	174.880	-0.320	-0.070	1.680	174.940	-1.500	2.100																			1580030188.0	9.24	17.11
26/01/2020 09:16:29	26012020	260120	091629	174.850	12.474530	-57.245007	174.790	-0.190	0.180	1.360	174.840	-1.200	1.800																			1580030189.0	9.14	16.93
26/01/2020 09:16:30	26012020	260120	091630	174.820	12.474488	-57.245005	174.790	-0.180	0.440	0.940	174.830	-1.000	1.400																			1580030190.0	8.98	16.63
26/01/2020 09:16:31	26012020	260120	091631	174.910	12.474447	-57.245003	174.940	-0.180	0.570	0.560	174.950	-0.800	1.000																			1580030191.0	8.85	16.39
26/01/2020 09:16:32	26012020	260120	091632	175.150	12.474407	-57.245003	175.200	-0.060	0.500	0.330	175.210	-0.900	0.800																			1580030192.0	8.82	16.33
26/01/2020 09:16:33	26012020	260120	091633	175.440	12.474365	-57.245003	175.470	0.250	0.230	0.230	175.480	-1.200	0.700																			1580030193.0	8.85	16.39
26/01/2020 09:16:34	26012020	260120	091634	175.650	12.474323	-57.245003	175.650	0.590	-0.120	0.270	175.680	-1.500	0.700																			1580030194.0	8.88	16.45
26/01/2020 09:16:35	26012020	260120	091635	175.830	12.474283	-57.245002	175.850	0.730	-0.350	0.390	175.880	-1.700	0.800																			1580030195.0	8.79	16.28
26/01/2020 09:16:36	26012020	260120	091636	176.040	12.474243	-57.245002	176.020	0.600	-0.480	0.530	176.060	-1.900	1.000																			1580030196.0	8.54	15.82
26/01/2020 09:16:37	26012020	260120	091637	176.100	12.474203	-57.245002	176.010	0.350	-0.690	0.860	176.080	-2.100	1.300																			1580030197.0	8.49	15.72
26/01/2020 09:16:38	26012020	260120	091638	175.930	12.474163	-57.245003	175.760	0.160	-1.060	1.370	175.860	-2.400	1.800																			1580030198.0	8.81	16.32
26/01/2020 09:16:39	26012020	260120	091639	175.520	12.474120	-57.245005	175.340	0.070	-1.240	1.870	175.430	-2.600	2.300																			1580030199.0	9.19	17.02
26/01/2020 09:16:40	26012020	260120	091640	175.150	12.474077	-57.245008	175.050	-0.090	-0.910	2.030	175.110	-2.300	2.500																			1580030200.0	9.16	16.96
26/01/2020 09:16:41	26012020	260120	091641	175.010	12.474037	-57.245008	174.960	-0.320	-0.290	1.850	175.000	-1.700	2.300																			1580030201.0	8.78	16.26
26/01/2020 09:16:42	26012020	260120	091642	174.990	12.473997	-57.245010	174.960	-0.530	0.180	1.480	174.990	-1.400	2.100																			1580030202.0	8.69	16.09
26/01/2020 09:16:43	26012020	260120	091643	175.040	12.473955	-57.245008	175.010	-0.600	0.250	1.060	175.050	-1.100	1.500																			1580030203.0	9.00	16.67
26/01/2020 09:16:44	26012020	260120	091644	175.120	12.473910	-57.245007	175.100	-0.510	0.090	0.720	175.140	-1.300	1.200																			1580030204.0	9.40	17.41
26/01/2020 09:16:45	26012020	260120	091645	175.280	12.473867	-57.245007	175.290	-0.390	0.020	0.530	175.320	-1.400	1.000																			1580030205.0	9.47	17.54
26/01/2020 09:16:46	26012020	260120	091646	175.490	12.473823	-57.245007	175.480	-0.310	0.160	0.500	175.520	-1.300	0.900																			1580030206.0	9.19	17.02
26/01/2020 09:16:47	26012020	260120	091647	175.660	12.473783	-57.245007	175.640	-0.200	0.380	0.570	175.690	-1.000	1.000																			1580030207.0	8.85	16.39
26/01/2020 09:16:48	26012020	260120	091648	175.800	12.473742	-57.245007	175.760	0.000	0.450	0.740	175.830	-0.900	1.200																			1580030208.0	8.68	16.08
26/01/2020 09:16:49	26012020	260120	091649	175.820	12.473702	-57.245008	175.700	0.270	0.220	1.020	175.800	-1.200	1.400																			1580030209.0	8.75	16.21
26/01/2020 09:16:50	26012020	260120	091650	175.650	12.473660	-57.245008	175.510	0.470	-0.170	1.290	175.610	-1.500	1.700																			1580030210.0	8.96	16.59
26/01/2020 09:16:51	26012020	260120	091651	175.470	12.473618	-57.245010	175.350	0.550	-0.420	1.410	175.440	-1.800	1.800																			1580030211.0	8.97	16.61
26/01/2020 09:16:52	26012020	260120	091652	175.340	12.473578	-57.245010	175.220	0.550	-0.410	1.340	175.320	-1.800	1.800																			1580030212.0	8.67	16.06
26/01/2020 09:16:53	26012020	260120	091653	175.190	12.473538	-57.245010	175.060	0.520	-0.440	1.130	175.160	-1.800	1.600																			1580030213.0	8.42	15.59
26/01/2020 09:16:54	26012020	260120	091654	175.000	12.473498	-57.245010	174.850	0.480	-0.680	0.990	174.960	-2.000	1.400																			1580030214.0	8.63	15.98
26/01/2020 09:16:55	26012020	260120	091655	174.830	12.473457	-57.245008	174.730	0.340	-0.900	0.920	174.810	-2.300	1.400																			1580030215.0	9.01	16.69
26/01/2020 09:16:56	26012020	260120	091656	174.820	12.473415	-57.245008	174.780	0.040	-0.760	0.850	174.830	-2.200	1.300																			1580030216.0	9.05	16.76
26/01/2020 09:16:57	26012020	260120	091657	174.960	12.473373	-57.245010	174.950	-0.310	-0.380	0.740	175.000	-1.800	1.200																			1580030217.0	8.80	16.30
26/01/2020 09:16:58	26012020	260120	091658	175.150	12.473333	-57.245010	175.110	-0.530	-0.110	0.680	175.170	-1.500	1.100																			1580030218.0	8.73	16.17
26/01/2020 09:16:59	26012020	260120	091659	175.270	12.473292	-57.245010	175.230	-0.590	-0.090	0.790	175.290	-1.500	1.200																			1580030219.0	9.03	16.72
26/01/2020 09:17:00	26012020	260120	091700	175.340	12.473248	-57.245010	175.300	-0.560	-0.160	1.020	175.350	-1.600	1.400	1013.80	25.60	25.60	19.50	19.50	-1.00	69.00	69.00	425.00	25.30	309.00	9.10	95.00	7.20	15	3229.00	27.40	27.40	1580030220.0	9.33	17.28
26/01/2020 09:17:01	26012020	260120	091701	175.390	12.473205	-57.245012	175.350	-0.510	-0.110	1.270	175.400	-1.500	1.700																			1580030221.0	9.35	17.32
26/01/2020 09:17:02	26012020	260120	091702	175.440	12.473162	-57.245012	175.400	-0.460	0.100	1.370	175.450	-1.300	1.800																			1580030222.0	9.14	16.93
26/01/2020 09:17:03	26012020	260120	091703	175.430	12.473120	-57.245013	175.330	-0.340	0.240	1.380	175.400	-1.200	1.800																			1580030223.0	8.90	16.48
26/01/2020 09:17:04	26012020	260120	091704	175.230	12.473078	-57.245013	175.080	-0.080	0.190	1.340	175.180	-1.200	1.800																			1580030224.0	8.92	16.52
26/01/2020 09:17:05	26012020	260120	091705	174.950	12.473037	-57.245013	174.780	0.260	0.060	1.190	174.890	-1.300	1.600																			1580030225.0	9.04	16.74
26/01/2020 09:17:06	26012020	260120	091706	174.710	12.472995	-57.245010	174.590	0.510	0.020	0.880	174.670	-1.400	1.400																			1580030226.0	8.97	16.61
26/01/2020 09:17:07	26012020	260120	091707	174.630	12.472955	-57.245008	174.590	0.490	0.070	0.580	174.650	-1.300	1.000																			1580030227.0	8.73	16.17
26/01/2020 09:17:08	26012020	260120	091708	174.720	12.472915	-57.245007	174.670	0.320	-0.010	0.490	174.730	-1.400	0.900																			1580030228.0	8.57	15.87
26/01/2020 09:17:09	26012020	260120	091709	174.740	12.472875	-57.245008	174.660	0.230	-0.300	0.740	174.730	-1.700	1.200																			1580030229.0	8.73	16.17
26/01/2020 09:17:10	26012020	260120	091710	174.690	12.472833	-57.245010	174.620	0.280	-0.560	1.040	174.680	-1.900	1.500																			1580030230.0	8.97	16.61
26/01/2020 09:17:11	26012020	260120	091711	174.730	12.472792	-57.245013	174.740	0.310	-0.590	1.130	174.760	-2.000	1.600																			1580030231.0	8.92	16.52
26/01/2020 09:17:12	26012020	260120	091712	174.950	12.472752	-57.245013	174.980	0.190	-0.510	0.990	175.000	-1.900	1.400																			1580030232.0	8.69	16.09
26/01/2020 09:17:13	26012020	260120	091713	175.160	12.472710	-57.245013	175.130	-0.020	-0.560	0.850	175.180	-1.900	1.300																			1580030233.0	8.67	16.06
26/01/2020 09:17:14	26012020	260120	091714	175.190	12.472668	-57.245013	175.100	-0.120	-0.760	0.820	175.170	-2.100	1.300																			1580030234.0	9.01	16.69
26/01/2020 09:17:15	26012020	260120	091715	175.110	12.472625	-57.245012	175.030	-0.170	-0.680	0.870	175.090	-2.100	1.300																			1580030235.0	9.28	17.19
26/01/2020 09:17:16	26012020	260120	091716	175.080	12.472583	-57.245012	175.050	-0.320	-0.140	0.910	175.100	-1.600	1.300																			1580030236.0	8.97	16.61
26/01/2020 09:17:17	26012020	260120	091717	175.150	12.472543	-57.245010	175.100	-0.540	0.350	0.890	175.160	-1.100	1.300																			1580030237.0	8.58	15.89
26/01/2020 09:17:18	26012020	260120	091718	175.160	12.472503	-57.245010	175.080	-0.600	0.320	1.020	175.150	-1.100	1.400																			1580030238.0	8.80	16.30
26/01/2020 09:17:19	26012020	260120	091719	175.080	12.472460	-57.245010	174.980	-0.370	-0.010	1.260	175.060	-1.400	1.700																			1580030239.0	9.36	17.33
26/01/2020 09:17:20	26012020	260120	091720	174.940	12.472415	-57.245012	174.840	-0.020	-0.170	1.520	174.910	-1.600	1.900																			1580030240.0	9.46	17.52
26/01/2020 09:17:21	26012020	260120	091721	174.780	12.472373	-57.245012	174.700	0.210	-0.110	1.630	174.760	-1.500	2.100																			1580030241.0	9.11	16.87
26/01/2020 09:17:22	26012020	260120	091722	174.680	12.472332	-57.245013	174.630	0.200	0.040	1.540	174.670	-1.400	2.000																			1580030242.0	8.80	16.30
26/01/2020 09:17:23	26012020	260120	091723	174.620	12.472292	-57.245013	174.530	0.090	0.070	1.380	174.600	-1.300	1.800																			1580030243.0	8.66	16.04
26/01/2020 09:17:24	26012020	260120	091724	174.490	12.472252	-57.245013	174.390	0.070	-0.130	1.250	174.460	-1.500	1.700																			1580030244.0	8.80	16.30
26/01/2020 09:17:25	26012020	260120	091725	174.410	12.472208	-57.245013	174.360	0.140	-0.400	1.010	174.410	-1.800	1.500																			1580030245.0	9.04	16.74
26/01/2020 09:17:26	26012020	260120	091726	174.450	12.472167	-57.245013	174.410	0.230	-0.470	0.750	174.460	-1.900	1.200																			1580030246.0	9.02	16.71
26/01/2020 09:17:27	26012020	260120	091727	174.550	12.472127	-57.245013	174.560	0.230	-0.300	0.550	174.590	-1.700	1.000																			1580030247.0	8.80	16.30
26/01/2020 09:17:28	26012020	260120	091728	174.830	12.472087	-57.245012	174.900	0.110	-0.040	0.310	174.910	-1.500	0.800																			1580030248.0	8.57	15.87
26/01/2020 09:17:29	26012020	260120	091729	175.200	12.472047	-57.245010	175.230	-0.040	0.050	0.210	175.260	-1.400	0.600																			1580030249.0	8.51	15.76
26/01/2020 09:17:30	26012020	260120	091730	175.440	12.472007	-57.245010	175.410	-0.050	-0.180	0.380	175.460	-1.600	0.800																			1580030250.0	8.75	16.21
26/01/2020 09:17:31	26012020	260120	091731	175.480	12.471963	-57.245010	175.400	0.090	-0.510	0.730	175.470	-1.900	1.100																			1580030251.0	9.11	16.87
26/01/2020 09:17:32	26012020	260120	091732	175.390	12.471922	-57.245012	175.280	0.180	-0.640	1.120	175.360	-2.000	1.500																			1580030252.0	9.19	17.02
26/01/2020 09:17:33	26012020	260120	091733	175.180	12.471880	-57.245012	175.020	0.120	-0.520	1.510	175.120	-1.900	1.900																			1580030253.0	8.97	16.61
26/01/2020 09:17:34	26012020	260120	091734	174.860	12.471838	-57.245013	174.720	-0.010	-0.250	1.670	174.800	-1.700	2.100																			1580030254.0	8.83	16.35
26/01/2020 09:17:35	26012020	260120	091735	174.640	12.471798	-57.245012	174.570	-0.160	0.030	1.520	174.620	-1.400	2.000																			1580030255.0	8.74	16.19
26/01/2020 09:17:36	26012020	260120	091736	174.580	12.471757	-57.245012	174.530	-0.240	0.070	1.320	174.570	-1.300	1.800																			1580030256.0	8.81	16.32
26/01/2020 09:17:37	26012020	260120	091737	174.550	12.471715	-57.245012	174.480	-0.210	-0.180	1.230	174.540	-1.500	1.700																			1580030257.0	9.07	16.80
26/01/2020 09:17:38	26012020	260120	091738	174.450	12.471672	-57.245012	174.380	-0.110	-0.410	1.180	174.430	-1.800	1.600																			1580030258.0	9.33	17.28
26/01/2020 09:17:39	26012020	260120	091739	174.390	12.471628	-57.245012	174.360	-0.060	-0.360	1.140	174.390	-1.800	1.600																			1580030259.0	9.21	17.06
26/01/2020 09:17:40	26012020	260120	091740	174.390	12.471587	-57.245012	174.370	-0.150	-0.170	1.260	174.400	-1.600	1.700																			1580030260.0	8.90	16.48
26/01/2020 09:17:41	26012020	260120	091741	174.400	12.471547	-57.245013	174.380	-0.230	-0.040	1.430	174.400	-1.400	1.900																			1580030261.0	8.85	16.39
26/01/2020 09:17:42	26012020	260120	091742	174.430	12.471505	-57.245015	174.420	-0.170	0.040	1.520	174.440	-1.400	2.000																			1580030262.0	8.95	16.58
26/01/2020 09:17:43	26012020	260120	091743	174.540	12.471463	-57.245017	174.580	-0.000	0.160	1.400	174.580	-1.200	1.900																			1580030263.0	8.92	16.52
26/01/2020 09:17:44	26012020	260120	091744	174.780	12.471422	-57.245017	174.850	0.140	0.240	1.050	174.840	-1.200	1.500																			1580030264.0	8.75	16.21
26/01/2020 09:17:45	26012020	260120	091745	175.080	12.471382	-57.245013	175.120	0.210	0.200	0.650	175.130	-1.200	1.100																			1580030265.0	8.66	16.04
26/01/2020 09:17:46	26012020	260120	091746	175.280	12.471342	-57.245012	175.230	0.270	-0.060	0.460	175.290	-1.400	0.900																			1580030266.0	8.67	16.06
26/01/2020 09:17:47	26012020	260120	091747	175.210	12.471300	-57.245010	175.060	0.420	-0.550	0.620	175.160	-1.900	1.000																			1580030267.0	8.89	16.46
26/01/2020 09:17:48	26012020	260120	091748	174.940	12.471258	-57.245008	174.790	0.540	-0.870	0.920	174.890	-2.300	1.300																			1580030268.0	9.15	16.95
26/01/2020 09:17:49	26012020	260120	091749	174.710	12.471217	-57.245007	174.600	0.390	-0.700	1.180	174.670	-2.100	1.600																			1580030269.0	8.94	16.56
26/01/2020 09:17:50	26012020	260120	091750	174.580	12.471177	-57.245008	174.540	-0.020	-0.280	1.330	174.570	-1.700	1.800																			1580030270.0	8.48	15.70
26/01/2020 09:17:51	26012020	260120	091751	174.570	12.471138	-57.245010	174.530	-0.370	-0.110	1.340	174.570	-1.500	1.800																			1580030271.0	8.42	15.59
26/01/2020 09:17:52	26012020	260120	091752	174.520	12.471097	-57.245012	174.440	-0.360	-0.360	1.240	174.500	-1.700	1.700																			1580030272.0	8.91	16.50
26/01/2020 09:17:53	26012020	260120	091753	174.400	12.471053	-57.245012	174.320	-0.120	-0.660	1.130	174.380	-2.000	1.600																			1580030273.0	9.41	17.43
26/01/2020 09:17:54	26012020	260120	091754	174.330	12.471008	-57.245010	174.290	-0.010	-0.640	1.030	174.330	-2.000	1.500																			1580030274.0	9.42	17.45
26/01/2020 09:17:55	26012020	260120	091755	174.390	12.470967	-57.245010	174.390	-0.180	-0.270	0.910	174.420	-1.700	1.400																			1580030275.0	9.09	16.83
26/01/2020 09:17:56	26012020	260120	091756	174.540	12.470925	-57.245010	174.550	-0.460	0.190	0.820	174.570	-1.200	1.300																			1580030276.0	8.79	16.28
26/01/2020 09:17:57	26012020	260120	091757	174.740	12.470885	-57.245010	174.780	-0.580	0.490	0.810	174.790	-0.900	1.200																			1580030277.0	8.74	16.19
26/01/2020 09:17:58	26012020	260120	091758	174.960	12.470843	-57.245010	174.990	-0.450	0.520	0.910	175.000	-0.900	1.300																			1580030278.0	8.85	16.39
26/01/2020 09:17:59	26012020	260120	091759	175.080	12.470802	-57.245010	175.040	-0.180	0.300	1.110	175.080	-1.100	1.500																			1580030279.0	8.99	16.65
26/01/2020 09:18:00	26012020	260120	091800	175.010	12.470760	-57.245012	174.910	0.160	-0.080	1.310	174.980	-1.400	1.700	1013.80	25.60	25.70	19.60	19.70	-1.00	69.00	69.00	426.00	25.30	310.00	9.50	97.00	7.40	15	3166.00	27.40	27.40	1580030280.0	9.14	16.93
26/01/2020 09:18:01	26012020	260120	091801	174.800	12.470717	-57.245013	174.680	0.440	-0.320	1.430	174.760	-1.700	1.900																			1580030281.0	9.14	16.93
26/01/2020 09:18:02	26012020	260120	091802	174.630	12.470677	-57.245012	174.580	0.560	-0.220	1.360	174.620	-1.600	1.800																			1580030282.0	8.82	16.33
26/01/2020 09:18:03	26012020	260120	091803	174.640	12.470637	-57.245012	174.610	0.460	-0.040	1.190	174.650	-1.400	1.600																			1580030283.0	8.38	15.52
26/01/2020 09:18:04	26012020	260120	091804	174.660	12.470598	-57.245012	174.570	0.350	-0.210	1.090	174.640	-1.600	1.500																			1580030284.0	8.39	15.54
26/01/2020 09:18:05	26012020	260120	091805	174.550	12.470557	-57.245012	174.470	0.360	-0.650	0.950	174.540	-2.000	1.400																			1580030285.0	8.86	16.41
26/01/2020 09:18:06	26012020	260120	091806	174.600	12.470515	-57.245010	174.610	0.330	-0.810	0.750	174.630	-2.200	1.200																			1580030286.0	9.10	16.85
26/01/2020 09:18:07	26012020	260120	091807	174.870	12.470473	-57.245008	174.890	0.110	-0.680	0.600	174.920	-2.100	1.000																			1580030287.0	8.75	16.21
26/01/2020 09:18:08	26012020	260120	091808	175.050	12.470433	-57.245008	174.970	-0.150	-0.690	0.590	175.050	-2.100	1.000																			1580030288.0	8.70	16.11
26/01/2020 09:18:09	26012020	260120	091809	175.040	12.470392	-57.245008	174.960	-0.320	-0.770	0.770	175.040	-2.200	1.200																			1580030289.0	9.15	16.95
26/01/2020 09:18:10	26012020	260120	091810	175.050	12.470348	-57.245008	175.000	-0.470	-0.440	1.050	175.060	-1.900	1.500																			1580030290.0	9.30	17.22
26/01/2020 09:18:11	26012020	260120	091811	175.130	12.470307	-57.245008	175.130	-0.640	0.240	1.270	175.170	-1.200	1.700																			1580030291.0	8.88	16.45
26/01/2020 09:18:12	26012020	260120	091812	175.240	12.470267	-57.245010	175.170	-0.700	0.680	1.430	175.230	-0.700	1.900																			1580030292.0	8.61	15.95
26/01/2020 09:18:13	26012020	260120	091813	175.100	12.470225	-57.245012	174.940	-0.450	0.520	1.620	175.050	-0.900	2.000																			1580030293.0	8.97	16.61
26/01/2020 09:18:14	26012020	260120	091814	174.760	12.470180	-57.245013	174.570	-0.010	0.150	1.730	174.680	-1.200	2.200																			1580030294.0	9.46	17.52
26/01/2020 09:18:15	26012020	260120	091815	174.440	12.470137	-57.245013	174.320	0.320	0.020	1.560	174.400	-1.400	2.000																			1580030295.0	9.36	17.33
26/01/2020 09:18:16	26012020	260120	091816	174.340	12.470097	-57.245012	174.280	0.390	0.120	1.120	174.350	-1.300	1.600																			1580030296.0	8.79	16.28
26/01/2020 09:18:17	26012020	260120	091817	174.380	12.470057	-57.245012	174.330	0.320	0.110	0.710	174.390	-1.300	1.200																			1580030297.0	8.43	15.61
26/01/2020 09:18:18	26012020	260120	091818	174.490	12.470018	-57.245010	174.470	0.240	-0.160	0.510	174.520	-1.500	1.000																			1580030298.0	8.52	15.78
26/01/2020 09:18:19	26012020	260120	091819	174.600	12.469977	-57.245010	174.520	0.260	-0.660	0.600	174.600	-2.000	1.000																			1580030299.0	8.78	16.26
26/01/2020 09:18:20	26012020	260120	091820	174.520	12.469935	-57.245012	174.420	0.360	-1.120	0.760	174.500	-2.500	1.200																			1580030300.0	9.11	16.87
26/01/2020 09:18:21	26012020	260120	091821	174.490	12.469892	-57.245012	174.470	0.340	-1.080	0.840	174.500	-2.500	1.300																			1580030301.0	9.11	16.87
26/01/2020 09:18:22	26012020	260120	091822	174.640	12.469852	-57.245012	174.660	0.090	-0.560	0.830	174.680	-2.000	1.300																			1580030302.0	8.68	16.08
26/01/2020 09:18:23	26012020	260120	091823	174.860	12.469812	-57.245012	174.880	-0.240	-0.020	0.810	174.900	-1.400	1.200																			1580030303.0	8.41	15.58
26/01/2020 09:18:24	26012020	260120	091824	175.100	12.469772	-57.245012	175.110	-0.430	0.240	0.770	175.140	-1.200	1.200																			1580030304.0	8.58	15.89
26/01/2020 09:18:25	26012020	260120	091825	175.260	12.469730	-57.245010	175.190	-0.370	0.130	0.770	175.260	-1.200	1.200																			1580030305.0	8.94	16.56
26/01/2020 09:18:26	26012020	260120	091826	175.210	12.469687	-57.245010	175.080	-0.160	-0.170	0.910	175.180	-1.500	1.300																			1580030306.0	9.31	17.24
26/01/2020 09:18:27	26012020	260120	091827	175.010	12.469643	-57.245010	174.850	0.020	-0.310	1.110	174.960	-1.700	1.500																			1580030307.0	9.38	17.37
26/01/2020 09:18:28	26012020	260120	091828	174.720	12.469602	-57.245010	174.560	0.060	-0.130	1.310	174.660	-1.500	1.700																			1580030308.0	9.13	16.91
26/01/2020 09:18:29	26012020	260120	091829	174.490	12.469562	-57.245010	174.360	-0.050	0.260	1.420	174.450	-1.200	1.900																			1580030309.0	8.72	16.15
26/01/2020 09:18:30	26012020	260120	091830	174.340	12.469522	-57.245012	174.250	-0.160	0.420	1.380	174.320	-1.000	1.800																			1580030310.0	8.47	15.69
26/01/2020 09:18:31	26012020	260120	091831	174.260	12.469482	-57.245012	174.160	-0.110	0.070	1.300	174.230	-1.300	1.700																			1580030311.0	8.73	16.17
26/01/2020 09:18:32	26012020	260120	091832	174.120	12.469438	-57.245013	174.000	0.150	-0.490	1.270	174.090	-1.900	1.700																			1580030312.0	9.19	17.02
26/01/2020 09:18:33	26012020	260120	091833	173.970	12.469395	-57.245013	173.890	0.380	-0.790	1.170	173.950	-2.200	1.600																			1580030313.0	9.26	17.15
26/01/2020 09:18:34	26012020	260120	091834	173.960	12.469353	-57.245013	173.950	0.350	-0.640	0.870	173.990	-2.100	1.300																			1580030314.0	8.89	16.46
26/01/2020 09:18:35	26012020	260120	091835	174.130	12.469313	-57.245013	174.170	0.090	-0.350	0.620	174.180	-1.800	1.100																			1580030315.0	8.54	15.82
26/01/2020 09:18:36	26012020	260120	091836	174.410	12.469275	-57.245013	174.480	-0.160	-0.130	0.510	174.480	-1.500	1.000																			1580030316.0	8.57	15.87
26/01/2020 09:18:37	26012020	260120	091837	174.760	12.469233	-57.245012	174.810	-0.250	-0.060	0.450	174.820	-1.500	0.900																			1580030317.0	8.73	16.17
26/01/2020 09:18:38	26012020	260120	091838	175.030	12.469192	-57.245012	175.020	-0.150	-0.180	0.540	175.060	-1.600	1.000																			1580030318.0	8.94	16.56
26/01/2020 09:18:39	26012020	260120	091839	175.120	12.469150	-57.245012	175.060	0.010	-0.300	0.820	175.120	-1.700	1.200																			1580030319.0	9.12	16.89
26/01/2020 09:18:40	26012020	260120	091840	175.040	12.469107	-57.245012	174.930	0.070	-0.260	1.240	175.010	-1.700	1.600																			1580030320.0	9.07	16.80
26/01/2020 09:18:41	26012020	260120	091841	174.800	12.469067	-57.245012	174.650	-0.000	-0.090	1.750	174.740	-1.500	2.100																			1580030321.0	8.93	16.54
26/01/2020 09:18:42	26012020	260120	091842	174.480	12.469025	-57.245013	174.330	-0.100	0.090	2.080	174.410	-1.300	2.500																			1580030322.0	8.82	16.33
26/01/2020 09:18:43	26012020	260120	091843	174.150	12.468983	-57.245017	174.000	-0.070	0.100	2.060	174.080	-1.300	2.500																			1580030323.0	8.83	16.35
26/01/2020 09:18:44	26012020	260120	091844	173.880	12.468942	-57.245017	173.800	0.110	-0.010	1.710	173.850	-1.400	2.200																			1580030324.0	8.98	16.63
26/01/2020 09:18:45	26012020	260120	091845	173.870	12.468902	-57.245015	173.880	0.260	-0.030	1.120	173.900	-1.400	1.600																			1580030325.0	8.91	16.50
26/01/2020 09:18:46	26012020	260120	091846	174.080	12.468860	-57.245012	174.090	0.220	-0.060	0.580	174.120	-1.400	1.000																			1580030326.0	8.63	15.98
26/01/2020 09:18:47	26012020	260120	091847	174.240	12.468820	-57.245008	174.210	0.100	-0.330	0.380	174.270	-1.700	0.800																			1580030327.0	8.65	16.02
26/01/2020 09:18:48	26012020	260120	091848	174.310	12.468778	-57.245008	174.260	0.030	-0.730	0.530	174.310	-2.000	0.900																			1580030328.0	8.98	16.63
26/01/2020 09:18:49	26012020	260120	091849	174.330	12.468737	-57.245010	174.270	0.010	-0.890	0.860	174.330	-2.300	1.300																			1580030329.0	9.15	16.95
26/01/2020 09:18:50	26012020	260120	091850	174.330	12.468695	-57.245010	174.280	-0.040	-0.680	1.110	174.330	-2.100	1.500																			1580030330.0	8.98	16.63
26/01/2020 09:18:51	26012020	260120	091851	174.370	12.468653	-57.245012	174.350	-0.180	-0.270	1.160	174.380	-1.700	1.600																			1580030331.0	8.75	16.21
26/01/2020 09:18:52	26012020	260120	091852	174.520	12.468613	-57.245012	174.550	-0.340	0.150	1.110	174.560	-1.300	1.500																			1580030332.0	8.64	16.00
26/01/2020 09:18:53	26012020	260120	091853	174.720	12.468573	-57.245012	174.710	-0.370	0.320	1.090	174.740	-1.100	1.500																			1580030333.0	8.67	16.06
26/01/2020 09:18:54	26012020	260120	091854	174.780	12.468532	-57.245012	174.700	-0.180	0.120	1.120	174.760	-1.200	1.600																			1580030334.0	8.97	16.61
26/01/2020 09:18:55	26012020	260120	091855	174.660	12.468488	-57.245012	174.550	0.110	-0.160	1.140	174.620	-1.500	1.600																			1580030335.0	9.28	17.19
26/01/2020 09:18:56	26012020	260120	091856	174.490	12.468447	-57.245010	174.390	0.260	-0.190	1.190	174.460	-1.600	1.600																			1580030336.0	9.18	17.00
26/01/2020 09:18:57	26012020	260120	091857	174.330	12.468405	-57.245010	174.230	0.180	-0.040	1.240	174.300	-1.400	1.700																			1580030337.0	8.80	16.30
26/01/2020 09:18:58	26012020	260120	091858	174.220	12.468365	-57.245010	174.160	0.030	0.070	1.200	174.210	-1.300	1.600																			1580030338.0	8.61	15.95
26/01/2020 09:18:59	26012020	260120	091859	174.200	12.468325	-57.245010	174.140	-0.010	-0.000	1.150	174.190	-1.400	1.600																			1580030339.0	8.66	16.04
26/01/2020 09:19:00	26012020	260120	091900	174.200	12.468283	-57.245010	174.160	0.110	-0.210	1.100	174.210	-1.600	1.500	1013.80	25.60	25.60	19.40	19.50	-1.00	68.00	68.00	426.00	25.30	310.00	9.70	97.00	7.70	15	3340.00	27.40	27.40	1580030340.0	8.84	16.37
26/01/2020 09:19:01	26012020	260120	091901	174.310	12.468242	-57.245010	174.310	0.210	-0.350	0.930	174.340	-1.700	1.400																			1580030341.0	8.90	16.48
26/01/2020 09:19:02	26012020	260120	091902	174.500	12.468202	-57.245008	174.480	0.170	-0.450	0.790	174.520	-1.800	1.200																			1580030342.0	8.75	16.21
26/01/2020 09:19:03	26012020	260120	091903	174.580	12.468160	-57.245008	174.510	0.070	-0.650	0.890	174.580	-2.000	1.300																			1580030343.0	8.81	16.32
26/01/2020 09:19:04	26012020	260120	091904	174.560	12.468118	-57.245008	174.490	-0.020	-0.730	1.030	174.560	-2.100	1.500																			1580030344.0	9.03	16.72
26/01/2020 09:19:05	26012020	260120	091905	174.530	12.468077	-57.245008	174.460	-0.120	-0.510	1.170	174.520	-1.900	1.600																			1580030345.0	8.93	16.54
26/01/2020 09:19:06	26012020	260120	091906	174.500	12.468037	-57.245008	174.420	-0.220	-0.210	1.290	174.490	-1.600	1.700																			1580030346.0	8.76	16.22
26/01/2020 09:19:07	26012020	260120	091907	174.470	12.467995	-57.245010	174.390	-0.260	-0.010	1.340	174.460	-1.400	1.800																			1580030347.0	8.85	16.39
26/01/2020 09:19:08	26012020	260120	091908	174.460	12.467953	-57.245010	174.400	-0.240	0.120	1.390	174.460	-1.300	1.800																			1580030348.0	8.97	16.61
26/01/2020 09:19:09	26012020	260120	091909	174.480	12.467912	-57.245010	174.410	-0.130	0.160	1.420	174.480	-1.200	1.900																			1580030349.0	8.98	16.63
26/01/2020 09:19:10	26012020	260120	091910	174.440	12.467870	-57.245010	174.350	0.030	0.100	1.370	174.430	-1.300	1.800																			1580030350.0	9.02	16.71
26/01/2020 09:19:11	26012020	260120	091911	174.330	12.467828	-57.245008	174.210	0.120	0.020	1.390	174.300	-1.400	1.800																			1580030351.0	9.00	16.67
26/01/2020 09:19:12	26012020	260120	091912	174.150	12.467787	-57.245008	174.030	0.130	-0.070	1.440	174.110	-1.500	1.900																			1580030352.0	8.93	16.54
26/01/2020 09:19:13	26012020	260120	091913	174.000	12.467745	-57.245008	173.930	0.100	-0.130	1.360	173.980	-1.500	1.800																			1580030353.0	8.90	16.48
26/01/2020 09:19:14	26012020	260120	091914	174.010	12.467705	-57.245007	174.020	0.090	-0.070	1.110	174.040	-1.500	1.600																			1580030354.0	8.76	16.22
26/01/2020 09:19:15	26012020	260120	091915	174.230	12.467665	-57.245005	174.270	0.080	-0.050	0.770	174.290	-1.400	1.200																			1580030355.0	8.56	15.85
26/01/2020 09:19:16	26012020	260120	091916	174.490	12.467625	-57.245003	174.470	0.100	-0.230	0.600	174.520	-1.600	1.000																			1580030356.0	8.57	15.87
26/01/2020 09:19:17	26012020	260120	091917	174.610	12.467583	-57.245003	174.530	0.180	-0.630	0.640	174.610	-2.000	1.100																			1580030357.0	8.82	16.33
26/01/2020 09:19:18	26012020	260120	091918	174.540	12.467542	-57.245003	174.380	0.280	-1.020	0.980	174.490	-2.400	1.400																			1580030358.0	9.11	16.87
26/01/2020 09:19:19	26012020	260120	091919	174.270	12.467498	-57.245003	174.140	0.240	-1.040	1.400	174.220	-2.400	1.800																			1580030359.0	9.27	17.17
26/01/2020 09:19:20	26012020	260120	091920	174.150	12.467457	-57.245003	174.120	-0.060	-0.460	1.560	174.160	-1.900	2.000																			1580030360.0	8.96	16.59
26/01/2020 09:19:21	26012020	260120	091921	174.260	12.467417	-57.245005	174.250	-0.480	0.280	1.490	174.290	-1.200	1.900																			1580030361.0	8.41	15.58
26/01/2020 09:19:22	26012020	260120	091922	174.370	12.467378	-57.245005	174.330	-0.680	0.500	1.460	174.370	-0.900	1.900																			1580030362.0	8.48	15.70
26/01/2020 09:19:23	26012020	260120	091923	174.400	12.467335	-57.245007	174.380	-0.500	0.240	1.310	174.410	-1.100	1.800																			1580030363.0	9.13	16.91
26/01/2020 09:19:24	26012020	260120	091924	174.480	12.467292	-57.245005	174.470	-0.110	-0.010	1.040	174.490	-1.400	1.500																			1580030364.0	9.42	17.45
26/01/2020 09:19:25	26012020	260120	091925	174.610	12.467250	-57.245003	174.620	0.170	-0.010	0.790	174.650	-1.400	1.200																			1580030365.0	9.11	16.87
26/01/2020 09:19:26	26012020	260120	091926	174.750	12.467208	-57.245002	174.700	0.210	-0.010	0.600	174.760	-1.400	1.000																			1580030366.0	8.72	16.15
26/01/2020 09:19:27	26012020	260120	091927	174.700	12.467168	-57.245000	174.580	0.140	-0.250	0.690	174.670	-1.600	1.100																			1580030367.0	8.74	16.19
26/01/2020 09:19:28	26012020	260120	091928	174.510	12.467127	-57.245000	174.400	0.140	-0.480	1.000	174.480	-1.900	1.400																			1580030368.0	9.02	16.71
26/01/2020 09:19:29	26012020	260120	091929	174.410	12.467085	-57.245002	174.370	0.200	-0.380	1.100	174.410	-1.800	1.500																			1580030369.0	8.93	16.54
26/01/2020 09:19:30	26012020	260120	091930	174.480	12.467045	-57.245002	174.460	0.220	-0.160	1.000	174.500	-1.600	1.400																			1580030370.0	8.54	15.82
26/01/2020 09:19:31	26012020	260120	091931	174.560	12.467005	-57.245000	174.540	0.170	-0.170	0.890	174.570	-1.600	1.300																			1580030371.0	8.54	15.82
26/01/2020 09:19:32	26012020	260120	091932	174.680	12.466965	-57.245000	174.680	0.070	-0.320	0.870	174.710	-1.700	1.300																			1580030372.0	8.86	16.41
26/01/2020 09:19:33	26012020	260120	091933	174.820	12.466922	-57.245000	174.790	-0.040	-0.430	0.930	174.840	-1.800	1.400																			1580030373.0	8.98	16.63
26/01/2020 09:19:34	26012020	260120	091934	174.830	12.466880	-57.245002	174.750	-0.060	-0.480	1.070	174.800	-1.900	1.500																			1580030374.0	9.02	16.71
26/01/2020 09:19:35	26012020	260120	091935	174.740	12.466838	-57.245002	174.710	-0.050	-0.320	1.140	174.740	-1.700	1.600																			1580030375.0	9.05	16.76
26/01/2020 09:19:36	26012020	260120	091936	174.780	12.466798	-57.245002	174.780	-0.100	0.010	1.140	174.800	-1.400	1.600																			1580030376.0	8.80	16.30
26/01/2020 09:19:37	26012020	260120	091937	174.850	12.466757	-57.245002	174.810	-0.170	0.180	1.140	174.850	-1.200	1.600																			1580030377.0	8.65	16.02
26/01/2020 09:19:38	26012020	260120	091938	174.770	12.466717	-57.245002	174.700	-0.180	0.020	1.170	174.770	-1.300	1.600																			1580030378.0	8.85	16.39
26/01/2020 09:19:39	26012020	260120	091939	174.610	12.466673	-57.245003	174.520	-0.130	-0.270	1.270	174.570	-1.600	1.700																			1580030379.0	9.15	16.95
26/01/2020 09:19:40	26012020	260120	091940	174.430	12.466632	-57.245003	174.380	-0.030	-0.370	1.320	174.410	-1.800	1.800																			1580030380.0	9.17	16.98
26/01/2020 09:19:41	26012020	260120	091941	174.380	12.466590	-57.245003	174.380	0.060	-0.210	1.190	174.390	-1.600	1.600																			1580030381.0	8.91	16.50
26/01/2020 09:19:42	26012020	260120	091942	174.450	12.466550	-57.245003	174.490	0.090	-0.030	0.990	174.480	-1.400	1.400																			1580030382.0	8.61	15.95
26/01/2020 09:19:43	26012020	260120	091943	174.610	12.466510	-57.245002	174.650	0.070	-0.080	0.860	174.650	-1.500	1.300																			1580030383.0	8.67	16.06
26/01/2020 09:19:44	26012020	260120	091944	174.770	12.466468	-57.245002	174.800	0.080	-0.340	0.830	174.800	-1.700	1.300																			1580030384.0	8.95	16.58
26/01/2020 09:19:45	26012020	260120	091945	174.920	12.466425	-57.245002	174.950	0.140	-0.450	0.850	174.950	-1.800	1.300																			1580030385.0	9.10	16.85
26/01/2020 09:19:46	26012020	260120	091946	175.040	12.466383	-57.245002	175.050	0.170	-0.290	0.910	175.060	-1.700	1.300																			1580030386.0	8.89	16.46
26/01/2020 09:19:47	26012020	260120	091947	175.110	12.466343	-57.245002	175.090	0.110	-0.100	0.990	175.120	-1.500	1.400																			1580030387.0	8.68	16.08
26/01/2020 09:19:48	26012020	260120	091948	175.110	12.466303	-57.245002	175.060	-0.010	-0.070	1.170	175.100	-1.400	1.600																			1580030388.0	8.73	16.17
26/01/2020 09:19:49	26012020	260120	091949	175.000	12.466262	-57.245002	174.920	-0.080	-0.180	1.430	174.970	-1.500	1.900																			1580030389.0	8.92	16.52
26/01/2020 09:19:50	26012020	260120	091950	174.830	12.466220	-57.245003	174.750	-0.060	-0.270	1.600	174.790	-1.700	2.000																			1580030390.0	9.08	16.82
26/01/2020 09:19:51	26012020	260120	091951	174.660	12.466177	-57.245003	174.580	0.010	-0.250	1.650	174.620	-1.600	2.100																			1580030391.0	9.01	16.69
26/01/2020 09:19:52	26012020	260120	091952	174.540	12.466137	-57.245003	174.500	0.040	-0.150	1.470	174.530	-1.500	1.900																			1580030392.0	8.87	16.43
26/01/2020 09:19:53	26012020	260120	091953	174.520	12.466095	-57.245002	174.480	-0.020	-0.090	1.210	174.520	-1.500	1.700																			1580030393.0	8.78	16.26
26/01/2020 09:19:54	26012020	260120	091954	174.490	12.466055	-57.245002	174.430	-0.100	-0.140	1.160	174.480	-1.500	1.600																			1580030394.0	8.82	16.33
26/01/2020 09:19:55	26012020	260120	091955	174.410	12.466013	-57.245003	174.360	-0.130	-0.230	1.170	174.400	-1.600	1.600																			1580030395.0	8.98	16.63
26/01/2020 09:19:56	26012020	260120	091956	174.430	12.465972	-57.245005	174.420	-0.080	-0.230	1.020	174.450	-1.600	1.500																			1580030396.0	8.96	16.59
26/01/2020 09:19:57	26012020	260120	091957	174.540	12.465930	-57.245005	174.550	-0.010	-0.210	0.780	174.570	-1.600	1.200																			1580030397.0	8.84	16.37
26/01/2020 09:19:58	26012020	260120	091958	174.730	12.465888	-57.245003	174.770	0.030	-0.230	0.540	174.780	-1.600	1.000																			1580030398.0	8.84	16.37
26/01/2020 09:19:59	26012020	260120	091959	174.960	12.465848	-57.245002	174.950	0.060	-0.300	0.420	174.990	-1.700	0.900																			1580030399.0	8.86	16.41
26/01/2020 09:20:00	26012020	260120	092000	175.040	12.465807	-57.245000	174.990	0.120	-0.410	0.570	175.040	-1.800	1.000	1013.80	25.60	25.60	19.40	19.50	-1.00	68.00	68.00	426.00	25.30	308.00	9.70	95.00	7.70	15	3329.00	27.40	27.40	1580030400.0	8.95	16.58
26/01/2020 09:20:01	26012020	260120	092001	175.040	12.465763	-57.245000	175.000	0.140	-0.400	0.880	175.040	-1.800	1.300																			1580030401.0	9.06	16.78
26/01/2020 09:20:02	26012020	260120	092002	175.040	12.465722	-57.245000	174.980	0.070	-0.230	1.210	175.040	-1.700	1.500																			1580030402.0	8.95	16.58
26/01/2020 09:20:03	26012020	260120	092003	174.950	12.465682	-57.245002	174.880	-0.050	-0.010	1.470	174.940	-1.400	1.900																			1580030403.0	8.82	16.33
26/01/2020 09:20:04	26012020	260120	092004	174.850	12.465640	-57.245003	174.790	-0.120	0.130	1.590	174.830	-1.300	2.000																			1580030404.0	8.80	16.30
26/01/2020 09:20:05	26012020	260120	092005	174.720	12.465598	-57.245003	174.630	-0.100	0.090	1.570	174.690	-1.300	2.000																			1580030405.0	8.86	16.41
26/01/2020 09:20:06	26012020	260120	092006	174.580	12.465557	-57.245003	174.520	-0.040	-0.060	1.430	174.560	-1.400	1.900																			1580030406.0	9.03	16.72
26/01/2020 09:20:07	26012020	260120	092007	174.550	12.465515	-57.245003	174.520	0.010	-0.160	1.190	174.560	-1.500	1.600																			1580030407.0	8.98	16.63
26/01/2020 09:20:08	26012020	260120	092008	174.600	12.465473	-57.245003	174.560	0.030	-0.250	0.960	174.610	-1.600	1.400																			1580030408.0	8.87	16.43
26/01/2020 09:20:09	26012020	260120	092009	174.620	12.465433	-57.245003	174.600	0.030	-0.380	0.850	174.630	-1.800	1.300																			1580030409.0	8.89	16.46
26/01/2020 09:20:10	26012020	260120	092010	174.670	12.465392	-57.245003	174.650	0.010	-0.460	0.880	174.680	-1.900	1.300																			1580030410.0	8.93	16.54
26/01/2020 09:20:11	26012020	260120	092011	174.730	12.465350	-57.245005	174.710	0.020	-0.420	0.850	174.740	-1.800	1.300																			1580030411.0	8.89	16.46
26/01/2020 09:20:12	26012020	260120	092012	174.790	12.465308	-57.245005	174.780	0.070	-0.290	0.770	174.800	-1.700	1.200																			1580030412.0	8.78	16.26
26/01/2020 09:20:13	26012020	260120	092013	174.850	12.465268	-57.245003	174.840	0.060	-0.190	0.800	174.860	-1.600	1.200																			1580030413.0	8.78	16.26
26/01/2020 09:20:14	26012020	260120	092014	174.910	12.465227	-57.245003	174.920	-0.060	-0.170	1.040	174.930	-1.600	1.500																			1580030414.0	8.89	16.46
26/01/2020 09:20:15	26012020	260120	092015	175.020	12.465185	-57.245005	175.030	-0.190	-0.140	1.320	175.040	-1.500	1.700																			1580030415.0	9.00	16.67
26/01/2020 09:20:16	26012020	260120	092016	175.060	12.465143	-57.245007	175.020	-0.180	-0.110	1.480	175.050	-1.500	1.900																			1580030416.0	8.96	16.59
26/01/2020 09:20:17	26012020	260120	092017	174.970	12.465102	-57.245007	174.900	0.010	-0.140	1.540	174.940	-1.500	2.000																			1580030417.0	9.00	16.67
26/01/2020 09:20:18	26012020	260120	092018	174.820	12.465060	-57.245007	174.760	0.190	-0.120	1.400	174.800	-1.500	1.900																			1580030418.0	9.00	16.67
26/01/2020 09:20:19	26012020	260120	092019	174.740	12.465018	-57.245005	174.710	0.200	-0.060	1.100	174.740	-1.400	1.600																			1580030419.0	8.90	16.48
26/01/2020 09:20:20	26012020	260120	092020	174.770	12.464978	-57.245003	174.730	0.040	-0.070	0.850	174.770	-1.500	1.300																			1580030420.0	8.80	16.30
26/01/2020 09:20:21	26012020	260120	092021	174.730	12.464937	-57.245002	174.660	-0.100	-0.230	0.840	174.720	-1.600	1.300																			1580030421.0	8.89	16.46
26/01/2020 09:20:22	26012020	260120	092022	174.670	12.464895	-57.245003	174.630	-0.110	-0.340	0.890	174.670	-1.700	1.300																			1580030422.0	9.03	16.72
26/01/2020 09:20:23	26012020	260120	092023	174.690	12.464853	-57.245005	174.640	-0.000	-0.290	0.910	174.690	-1.700	1.300																			1580030423.0	8.93	16.54
26/01/2020 09:20:24	26012020	260120	092024	174.670	12.464812	-57.245005	174.620	0.090	-0.240	0.970	174.670	-1.600	1.400																			1580030424.0	8.79	16.28
26/01/2020 09:20:25	26012020	260120	092025	174.650	12.464770	-57.245005	174.590	0.070	-0.290	1.120	174.640	-1.700	1.500																			1580030425.0	8.88	16.45
26/01/2020 09:20:26	26012020	260120	092026	174.600	12.464728	-57.245005	174.560	-0.060	-0.370	1.330	174.600	-1.800	1.800																			1580030426.0	9.04	16.74
26/01/2020 09:20:27	26012020	260120	092027	174.600	12.464687	-57.245007	174.560	-0.190	-0.270	1.480	174.600	-1.700	1.900																			1580030427.0	9.05	16.76
26/01/2020 09:20:28	26012020	260120	092028	174.610	12.464645	-57.245008	174.570	-0.230	-0.030	1.450	174.610	-1.400	1.900																			1580030428.0	8.85	16.39
26/01/2020 09:20:29	26012020	260120	092029	174.580	12.464605	-57.245008	174.530	-0.110	0.070	1.220	174.570	-1.300	1.700																			1580030429.0	8.73	16.17
26/01/2020 09:20:30	26012020	260120	092030	174.520	12.464563	-57.245007	174.480	0.100	0.000	0.910	174.520	-1.400	1.400																			1580030430.0	8.90	16.48
26/01/2020 09:20:31	26012020	260120	092031	174.570	12.464522	-57.245005	174.570	0.190	-0.070	0.620	174.600	-1.500	1.100																			1580030431.0	8.96	16.59
26/01/2020 09:20:32	26012020	260120	092032	174.670	12.464480	-57.245003	174.620	0.120	-0.190	0.580	174.680	-1.600	1.000																			1580030432.0	8.85	16.39
26/01/2020 09:20:33	26012020	260120	092033	174.610	12.464440	-57.245003	174.500	0.040	-0.370	0.840	174.580	-1.700	1.300																			1580030433.0	8.90	16.48
26/01/2020 09:20:34	26012020	260120	092034	174.400	12.464397	-57.245003	174.290	0.110	-0.510	1.120	174.370	-1.900	1.500																			1580030434.0	9.02	16.71
26/01/2020 09:20:35	26012020	260120	092035	174.280	12.464355	-57.245005	174.260	0.200	-0.500	1.280	174.290	-1.900	1.700																			1580030435.0	9.04	16.74
26/01/2020 09:20:36	26012020	260120	092036	174.380	12.464313	-57.245005	174.410	0.130	-0.280	1.230	174.410	-1.700	1.700																			1580030436.0	8.90	16.48
26/01/2020 09:20:37	26012020	260120	092037	174.590	12.464273	-57.245005	174.620	-0.100	-0.020	1.060	174.630	-1.400	1.500																			1580030437.0	8.68	16.08
26/01/2020 09:20:38	26012020	260120	092038	174.720	12.464233	-57.245005	174.680	-0.250	-0.050	1.000	174.720	-1.400	1.400																			1580030438.0	8.73	16.17
26/01/2020 09:20:39	26012020	260120	092039	174.680	12.464190	-57.245003	174.630	-0.200	-0.240	1.050	174.670	-1.600	1.500																			1580030439.0	9.08	16.82
26/01/2020 09:20:40	26012020	260120	092040	174.650	12.464148	-57.245003	174.600	-0.060	-0.290	1.150	174.640	-1.700	1.600																			1580030440.0	9.20	17.04
26/01/2020 09:20:41	26012020	260120	092041	174.600	12.464107	-57.245005	174.550	0.010	-0.170	1.340	174.580	-1.600	1.800																			1580030441.0	9.00	16.67
26/01/2020 09:20:42	26012020	260120	092042	174.520	12.464065	-57.245005	174.480	-0.050	-0.040	1.520	174.510	-1.400	1.900																			1580030442.0	8.86	16.41
26/01/2020 09:20:43	26012020	260120	092043	174.450	12.464023	-57.245005	174.400	-0.110	0.000	1.570	174.440	-1.400	2.000																			1580030443.0	8.87	16.43
26/01/2020 09:20:44	26012020	260120	092044	174.390	12.463982	-57.245005	174.390	-0.090	0.030	1.470	174.400	-1.400	1.900																			1580030444.0	8.93	16.54
26/01/2020 09:20:45	26012020	260120	092045	174.480	12.463942	-57.245005	174.510	-0.050	0.100	1.270	174.510	-1.300	1.700																			1580030445.0	8.79	16.28
26/01/2020 09:20:46	26012020	260120	092046	174.610	12.463902	-57.245005	174.610	0.020	-0.020	1.030	174.620	-1.400	1.500																			1580030446.0	8.67	16.06
26/01/2020 09:20:47	26012020	260120	092047	174.670	12.463860	-57.245005	174.640	0.180	-0.390	0.820	174.670	-1.700	1.300																			1580030447.0	8.88	16.45
26/01/2020 09:20:48	26012020	260120	092048	174.620	12.463817	-57.245003	174.550	0.370	-0.700	0.750	174.600	-2.100	1.200																			1580030448.0	9.13	16.91
26/01/2020 09:20:49	26012020	260120	092049	174.560	12.463775	-57.245002	174.540	0.410	-0.650	0.740	174.560	-2.100	1.200																			1580030449.0	9.05	16.76
26/01/2020 09:20:50	26012020	260120	092050	174.650	12.463735	-57.245002	174.680	0.210	-0.310	0.710	174.680	-1.700	1.200																			1580030450.0	8.70	16.11
26/01/2020 09:20:51	26012020	260120	092051	174.850	12.463695	-57.245000	174.910	-0.110	-0.060	0.760	174.900	-1.500	1.200																			1580030451.0	8.54	15.82
26/01/2020 09:20:52	26012020	260120	092052	175.030	12.463655	-57.245002	175.020	-0.300	-0.160	0.980	175.040	-1.500	1.400																			1580030452.0	8.76	16.22
26/01/2020 09:20:53	26012020	260120	092053	175.010	12.463612	-57.245002	174.960	-0.260	-0.460	1.290	175.000	-1.800	1.700																			1580030453.0	9.24	17.11
26/01/2020 09:20:54	26012020	260120	092054	174.890	12.463567	-57.245003	174.840	-0.140	-0.540	1.520	174.870	-1.900	1.900																			1580030454.0	9.42	17.45
26/01/2020 09:20:55	26012020	260120	092055	174.780	12.463525	-57.245003	174.770	-0.120	-0.240	1.560	174.780	-1.600	2.000																			1580030455.0	9.14	16.93
26/01/2020 09:20:56	26012020	260120	092056	174.780	12.463485	-57.245005	174.770	-0.190	0.180	1.430	174.780	-1.200	1.900																			1580030456.0	8.74	16.19
26/01/2020 09:20:57	26012020	260120	092057	174.740	12.463443	-57.245005	174.710	-0.190	0.330	1.250	174.730	-1.100	1.700																			1580030457.0	8.69	16.09
26/01/2020 09:20:58	26012020	260120	092058	174.670	12.463402	-57.245003	174.650	-0.010	0.230	0.990	174.660	-1.200	1.400																			1580030458.0	8.97	16.61
26/01/2020 09:20:59	26012020	260120	092059	174.690	12.463360	-57.245002	174.720	0.160	0.110	0.730	174.710	-1.300	1.200																			1580030459.0	9.07	16.80
26/01/2020 09:21:00	26012020	260120	092100	174.850	12.463318	-57.245000	174.900	0.150	0.020	0.560	174.890	-1.400	1.000	1013.80	25.60	25.60	19.10	19.30	-1.00	67.00	67.00	424.00	25.30	307.00	9.10	92.00	7.30	15	3298.00	27.40	27.40	1580030460.0	8.89	16.46
26/01/2020 09:21:01	26012020	260120	092101	175.040	12.463278	-57.245000	175.090	0.040	-0.120	0.570	175.070	-1.500	1.000																			1580030461.0	8.77	16.24
26/01/2020 09:21:02	26012020	260120	092102	175.170	12.463237	-57.245002	175.180	0.040	-0.360	0.740	175.180	-1.700	1.200																			1580030462.0	8.78	16.26
26/01/2020 09:21:03	26012020	260120	092103	175.160	12.463195	-57.245003	175.100	0.240	-0.660	0.990	175.130	-2.000	1.400																			1580030463.0	8.92	16.52
26/01/2020 09:21:04	26012020	260120	092104	175.010	12.463153	-57.245003	174.960	0.430	-0.820	1.110	174.980	-2.200	1.500																			1580030464.0	9.06	16.78
26/01/2020 09:21:05	26012020	260120	092105	174.970	12.463112	-57.245003	175.000	0.320	-0.640	1.020	174.990	-2.000	1.500																			1580030465.0	8.91	16.50
26/01/2020 09:21:06	26012020	260120	092106	175.080	12.463072	-57.245002	175.110	-0.090	-0.340	0.920	175.110	-1.700	1.400																			1580030466.0	8.65	16.02
26/01/2020 09:21:07	26012020	260120	092107	175.130	12.463032	-57.245002	175.120	-0.460	-0.270	1.050	175.120	-1.700	1.500																			1580030467.0	8.74	16.19
26/01/2020 09:21:08	26012020	260120	092108	175.020	12.462988	-57.245005	174.950	-0.470	-0.390	1.280	174.980	-1.800	1.700																			1580030468.0	9.20	17.04
26/01/2020 09:21:09	26012020	260120	092109	174.790	12.462945	-57.245007	174.750	-0.150	-0.300	1.290	174.760	-1.700	1.700																			1580030469.0	9.45	17.50
26/01/2020 09:21:10	26012020	260120	092110	174.690	12.462902	-57.245007	174.730	0.100	0.180	1.030	174.710	-1.300	1.500																			1580030470.0	9.11	16.87
26/01/2020 09:21:11	26012020	260120	092111	174.820	12.462862	-57.245003	174.900	0.060	0.620	0.680	174.860	-0.800	1.100																			1580030471.0	8.63	15.98
26/01/2020 09:21:12	26012020	260120	092112	175.010	12.462822	-57.245002	175.050	-0.130	0.600	0.570	175.040	-0.800	1.000																			1580030472.0	8.60	15.93
26/01/2020 09:21:13	26012020	260120	092113	175.060	12.462780	-57.245002	175.040	-0.160	0.110	0.800	175.050	-1.200	1.200																			1580030473.0	9.01	16.69
26/01/2020 09:21:14	26012020	260120	092114	174.930	12.462737	-57.245003	174.870	0.040	-0.440	1.200	174.890	-1.800	1.600																			1580030474.0	9.38	17.37
26/01/2020 09:21:15	26012020	260120	092115	174.740	12.462693	-57.245005	174.720	0.320	-0.600	1.370	174.720	-2.000	1.800																			1580030475.0	9.24	17.11
26/01/2020 09:21:16	26012020	260120	092116	174.690	12.462653	-57.245007	174.740	0.390	-0.410	1.200	174.710	-1.800	1.700																			1580030476.0	8.76	16.22
26/01/2020 09:21:17	26012020	260120	092117	174.800	12.462613	-57.245005	174.840	0.190	-0.240	0.940	174.820	-1.600	1.400																			1580030477.0	8.41	15.58
26/01/2020 09:21:18	26012020	260120	092118	174.840	12.462575	-57.245005	174.820	-0.060	-0.400	0.880	174.830	-1.800	1.300																			1580030478.0	8.59	15.91
26/01/2020 09:21:19	26012020	260120	092119	174.760	12.462532	-57.245005	174.720	-0.110	-0.700	0.930	174.740	-2.100	1.400																			1580030479.0	9.10	16.85
26/01/2020 09:21:20	26012020	260120	092120	174.680	12.462488	-57.245005	174.680	-0.020	-0.700	1.040	174.680	-2.100	1.500																			1580030480.0	9.26	17.15
26/01/2020 09:21:21	26012020	260120	092121	174.700	12.462447	-57.245007	174.740	0.020	-0.300	1.130	174.720	-1.700	1.600																			1580030481.0	8.97	16.61
26/01/2020 09:21:22	26012020	260120	092122	174.780	12.462407	-57.245007	174.800	-0.040	0.160	1.110	174.790	-1.300	1.600																			1580030482.0	8.61	15.95
26/01/2020 09:21:23	26012020	260120	092123	174.770	12.462367	-57.245007	174.740	-0.070	0.250	1.150	174.740	-1.100	1.600																			1580030483.0	8.68	16.08
26/01/2020 09:21:24	26012020	260120	092124	174.680	12.462325	-57.245007	174.680	-0.030	0.040	1.210	174.670	-1.300	1.700																			1580030484.0	9.10	16.85
26/01/2020 09:21:25	26012020	260120	092125	174.660	12.462282	-57.245005	174.670	0.010	-0.140	1.220	174.650	-1.500	1.700																			1580030485.0	9.25	17.13
26/01/2020 09:21:26	26012020	260120	092126	174.660	12.462238	-57.245005	174.670	0.050	-0.200	1.180	174.650	-1.600	1.600																			1580030486.0	9.09	16.83
26/01/2020 09:21:27	26012020	260120	092127	174.630	12.462197	-57.245005	174.650	0.110	-0.210	1.110	174.630	-1.600	1.600																			1580030487.0	8.95	16.58
26/01/2020 09:21:28	26012020	260120	092128	174.650	12.462157	-57.245005	174.700	0.120	-0.110	0.920	174.670	-1.500	1.400																			1580030488.0	8.86	16.41
26/01/2020 09:21:29	26012020	260120	092129	174.790	12.462115	-57.245003	174.880	0.030	0.020	0.660	174.830	-1.400	1.100																			1580030489.0	8.70	16.11
26/01/2020 09:21:30	26012020	260120	092130	174.990	12.462075	-57.245003	175.050	-0.100	-0.030	0.540	175.020	-1.400	1.000																			1580030490.0	8.64	16.00
26/01/2020 09:21:31	26012020	260120	092131	175.010	12.462035	-57.245003	174.940	-0.110	-0.360	0.740	174.970	-1.700	1.200																			1580030491.0	8.86	16.41
26/01/2020 09:21:32	26012020	260120	092132	174.710	12.461992	-57.245005	174.590	0.030	-0.720	1.120	174.630	-2.100	1.500																			1580030492.0	9.26	17.15
26/01/2020 09:21:33	26012020	260120	092133	174.390	12.461948	-57.245007	174.360	0.150	-0.660	1.290	174.360	-2.100	1.700																			1580030493.0	9.28	17.19
26/01/2020 09:21:34	26012020	260120	092134	174.310	12.461907	-57.245007	174.350	0.100	-0.180	1.170	174.320	-1.600	1.600																			1580030494.0	8.77	16.24
26/01/2020 09:21:35	26012020	260120	092135	174.380	12.461868	-57.245007	174.440	-0.050	0.220	0.950	174.400	-1.200	1.400																			1580030495.0	8.40	15.56
26/01/2020 09:21:36	26012020	260120	092136	174.500	12.461828	-57.245005	174.550	-0.150	0.190	0.740	174.530	-1.200	1.200																			1580030496.0	8.61	15.95
26/01/2020 09:21:37	26012020	260120	092137	174.650	12.461787	-57.245005	174.700	-0.110	-0.140	0.610	174.680	-1.500	1.100																			1580030497.0	9.06	16.78
26/01/2020 09:21:38	26012020	260120	092138	174.770	12.461743	-57.245005	174.800	0.020	-0.440	0.640	174.790	-1.800	1.100																			1580030498.0	9.25	17.13
26/01/2020 09:21:39	26012020	260120	092139	174.830	12.461700	-57.245005	174.830	0.140	-0.550	0.880	174.830	-1.900	1.300																			1580030499.0	9.16	16.96
26/01/2020 09:21:40	26012020	260120	092140	174.820	12.461658	-57.245005	174.820	0.160	-0.460	1.120	174.820	-1.900	1.500																			1580030500.0	8.99	16.65
26/01/2020 09:21:41	26012020	260120	092141	174.820	12.461618	-57.245007	174.820	0.070	-0.270	1.230	174.820	-1.700	1.700																			1580030501.0	8.84	16.37
26/01/2020 09:21:42	26012020	260120	092142	174.780	12.461577	-57.245007	174.760	-0.040	-0.150	1.340	174.760	-1.500	1.800																			1580030502.0	8.83	16.35
26/01/2020 09:21:43	26012020	260120	092143	174.710	12.461535	-57.245007	174.710	-0.110	-0.070	1.330	174.690	-1.500	1.800																			1580030503.0	9.00	16.67
26/01/2020 09:21:44	26012020	260120	092144	174.710	12.461493	-57.245007	174.750	-0.160	0.170	1.140	174.720	-1.200	1.600																			1580030504.0	8.93	16.54
26/01/2020 09:21:45	26012020	260120	092145	174.790	12.461453	-57.245005	174.810	-0.150	0.310	0.980	174.790	-1.100	1.400																			1580030505.0	8.69	16.09
26/01/2020 09:21:46	26012020	260120	092146	174.780	12.461412	-57.245005	174.760	-0.030	0.100	0.950	174.770	-1.300	1.400																			1580030506.0	8.84	16.37
26/01/2020 09:21:47	26012020	260120	092147	174.660	12.461370	-57.245005	174.620	0.140	-0.230	1.080	174.630	-1.600	1.500																			1580030507.0	9.14	16.93
26/01/2020 09:21:48	26012020	260120	092148	174.490	12.461327	-57.245007	174.460	0.240	-0.360	1.270	174.460	-1.700	1.700																			1580030508.0	9.11	16.87
26/01/2020 09:21:49	26012020	260120	092149	174.390	12.461285	-57.245007	174.410	0.210	-0.290	1.300	174.390	-1.700	1.700																			1580030509.0	8.83	16.35
26/01/2020 09:21:50	26012020	260120	092150	174.440	12.461245	-57.245008	174.520	0.080	-0.210	1.160	174.480	-1.600	1.600																			1580030510.0	8.63	15.98
26/01/2020 09:21:51	26012020	260120	092151	174.670	12.461205	-57.245008	174.800	-0.080	-0.300	0.960	174.740	-1.700	1.400																			1580030511.0	8.65	16.02
26/01/2020 09:21:52	26012020	260120	092152	174.950	12.461163	-57.245008	175.010	-0.140	-0.590	0.890	174.980	-1.900	1.300																			1580030512.0	8.86	16.41
26/01/2020 09:21:53	26012020	260120	092153	175.010	12.461122	-57.245008	174.990	-0.010	-0.910	0.920	174.990	-2.300	1.400																			1580030513.0	9.16	16.96
26/01/2020 09:21:54	26012020	260120	092154	174.910	12.461078	-57.245008	174.870	0.140	-0.890	0.980	174.890	-2.300	1.400																			1580030514.0	9.27	17.17
26/01/2020 09:21:55	26012020	260120	092155	174.830	12.461037	-57.245008	174.840	0.110	-0.430	0.990	174.830	-1.800	1.400																			1580030515.0	9.01	16.69
26/01/2020 09:21:56	26012020	260120	092156	174.870	12.460997	-57.245007	174.890	-0.100	0.150	0.920	174.880	-1.300	1.400																			1580030516.0	8.67	16.06
26/01/2020 09:21:57	26012020	260120	092157	174.900	12.460955	-57.245005	174.900	-0.320	0.410	0.930	174.900	-1.000	1.400																			1580030517.0	8.72	16.15
26/01/2020 09:21:58	26012020	260120	092158	174.830	12.460913	-57.245005	174.790	-0.370	0.330	1.100	174.800	-1.000	1.500																			1580030518.0	9.10	16.85
26/01/2020 09:21:59	26012020	260120	092159	174.650	12.460870	-57.245007	174.600	-0.220	0.160	1.390	174.610	-1.200	1.800																			1580030519.0	9.38	17.37
26/01/2020 09:22:00	26012020	260120	092200	174.460	12.460827	-57.245008	174.430	-0.030	0.140	1.510	174.430	-1.200	1.900	1013.90	25.60	25.70	19.40	19.50	-1.00	68.00	68.00	422.00	25.30	312.00	9.00	97.00	6.90	15	3198.00	27.40	27.40	1580030520.0	9.24	17.11
26/01/2020 09:22:01	26012020	260120	092201	174.330	12.460785	-57.245008	174.310	0.030	0.160	1.410	174.300	-1.200	1.900																			1580030521.0	8.88	16.45
26/01/2020 09:22:02	26012020	260120	092202	174.200	12.460745	-57.245008	174.180	0.020	0.020	1.230	174.170	-1.300	1.700																			1580030522.0	8.76	16.22
26/01/2020 09:22:03	26012020	260120	092203	174.090	12.460703	-57.245008	174.090	0.080	-0.210	1.090	174.070	-1.600	1.500																			1580030523.0	8.83	16.35
26/01/2020 09:22:04	26012020	260120	092204	174.050	12.460663	-57.245008	174.080	0.220	-0.400	0.860	174.060	-1.800	1.300																			1580030524.0	8.83	16.35
26/01/2020 09:22:05	26012020	260120	092205	174.110	12.460622	-57.245008	174.120	0.360	-0.520	0.630	174.120	-1.900	1.100																			1580030525.0	8.71	16.13
26/01/2020 09:22:06	26012020	260120	092206	174.150	12.460582	-57.245007	174.130	0.410	-0.650	0.570	174.140	-2.000	1.000																			1580030526.0	8.69	16.09
26/01/2020 09:22:07	26012020	260120	092207	174.120	12.460540	-57.245007	174.080	0.330	-0.790	0.750	174.110	-2.200	1.200																			1580030527.0	8.87	16.43
26/01/2020 09:22:08	26012020	260120	092208	174.000	12.460498	-57.245007	173.930	0.150	-0.800	1.130	173.970	-2.200	1.500																			1580030528.0	9.04	16.74
26/01/2020 09:22:09	26012020	260120	092209	173.860	12.460457	-57.245008	173.840	-0.050	-0.530	1.400	173.850	-1.900	1.800																			1580030529.0	9.07	16.80
26/01/2020 09:22:10	26012020	260120	092210	173.920	12.460415	-57.245010	173.980	-0.230	-0.010	1.350	173.950	-1.400	1.800																			1580030530.0	8.88	16.45
26/01/2020 09:22:11	26012020	260120	092211	174.120	12.460375	-57.245008	174.150	-0.360	0.330	1.290	174.150	-1.100	1.700																			1580030531.0	8.67	16.06
26/01/2020 09:22:12	26012020	260120	092212	174.190	12.460333	-57.245008	174.180	-0.370	0.250	1.330	174.190	-1.100	1.800																			1580030532.0	8.97	16.61
26/01/2020 09:22:13	26012020	260120	092213	174.180	12.460290	-57.245007	174.150	-0.280	0.070	1.320	174.170	-1.300	1.800																			1580030533.0	9.30	17.22
26/01/2020 09:22:14	26012020	260120	092214	174.110	12.460247	-57.245007	174.060	-0.150	-0.050	1.360	174.080	-1.400	1.800																			1580030534.0	9.21	17.06
26/01/2020 09:22:15	26012020	260120	092215	173.960	12.460205	-57.245007	173.920	-0.020	-0.140	1.390	173.940	-1.500	1.800																			1580030535.0	9.06	16.78
26/01/2020 09:22:16	26012020	260120	092216	173.870	12.460163	-57.245005	173.860	0.050	-0.140	1.330	173.870	-1.500	1.800																			1580030536.0	8.96	16.59
26/01/2020 09:22:17	26012020	260120	092217	173.900	12.460122	-57.245003	173.930	0.040	-0.120	1.180	173.920	-1.500	1.600																			1580030537.0	8.79	16.28
26/01/2020 09:22:18	26012020	260120	092218	174.010	12.460082	-57.245003	174.050	0.000	-0.200	1.120	174.040	-1.600	1.600																			1580030538.0	8.76	16.22
26/01/2020 09:22:19	26012020	260120	092219	174.120	12.460040	-57.245003	174.150	0.030	-0.340	1.100	174.150	-1.700	1.500																			1580030539.0	8.86	16.41
26/01/2020 09:22:20	26012020	260120	092220	174.210	12.459998	-57.245005	174.210	0.140	-0.450	1.040	174.220	-1.800	1.500																			1580030540.0	8.94	16.56
26/01/2020 09:22:21	26012020	260120	092221	174.200	12.459957	-57.245005	174.170	0.250	-0.470	1.050	174.190	-1.900	1.500																			1580030541.0	8.94	16.56
26/01/2020 09:22:22	26012020	260120	092222	174.170	12.459915	-57.245003	174.180	0.230	-0.340	1.070	174.170	-1.700	1.500																			1580030542.0	8.93	16.54
26/01/2020 09:22:23	26012020	260120	092223	174.300	12.459875	-57.245003	174.400	0.070	-0.020	0.950	174.360	-1.400	1.400																			1580030543.0	8.80	16.30
26/01/2020 09:22:24	26012020	260120	092224	174.650	12.459835	-57.245002	174.740	-0.130	0.260	0.810	174.710	-1.100	1.300																			1580030544.0	8.58	15.89
26/01/2020 09:22:25	26012020	260120	092225	174.850	12.459795	-57.245002	174.850	-0.190	0.130	0.940	174.860	-1.200	1.400																			1580030545.0	8.66	16.04
26/01/2020 09:22:26	26012020	260120	092226	174.790	12.459752	-57.245003	174.730	-0.030	-0.360	1.240	174.770	-1.700	1.700																			1580030546.0	9.15	16.95
26/01/2020 09:22:27	26012020	260120	092227	174.660	12.459708	-57.245003	174.620	0.170	-0.690	1.330	174.630	-2.100	1.800																			1580030547.0	9.47	17.54
26/01/2020 09:22:28	26012020	260120	092228	174.630	12.459665	-57.245003	174.660	0.190	-0.520	1.200	174.650	-1.900	1.700																			1580030548.0	9.14	16.93
26/01/2020 09:22:29	26012020	260120	092229	174.760	12.459625	-57.245002	174.800	0.020	-0.130	0.910	174.790	-1.500	1.400																			1580030549.0	8.60	15.93
26/01/2020 09:22:30	26012020	260120	092230	174.900	12.459587	-57.245000	174.930	-0.140	-0.010	0.670	174.930	-1.400	1.100																			1580030550.0	8.51	15.76
26/01/2020 09:22:31	26012020	260120	092231	174.990	12.459545	-57.244998	175.000	-0.160	-0.260	0.630	175.000	-1.600	1.100																			1580030551.0	8.93	16.54
26/01/2020 09:22:32	26012020	260120	092232	175.050	12.459502	-57.244998	175.060	-0.090	-0.470	0.730	175.060	-1.800	1.200																			1580030552.0	9.37	17.35
26/01/2020 09:22:33	26012020	260120	092233	175.110	12.459458	-57.245000	175.130	-0.060	-0.300	0.880	175.120	-1.700	1.300																			1580030553.0	9.21	17.06
26/01/2020 09:22:34	26012020	260120	092234	175.180	12.459417	-57.245000	175.190	-0.130	0.080	1.020	175.190	-1.300	1.400																			1580030554.0	8.76	16.22
26/01/2020 09:22:35	26012020	260120	092235	175.250	12.459377	-57.245000	175.260	-0.220	0.250	1.120	175.260	-1.100	1.500																			1580030555.0	8.65	16.02
26/01/2020 09:22:36	26012020	260120	092236	175.270	12.459335	-57.245002	175.270	-0.210	0.080	1.150	175.270	-1.300	1.600																			1580030556.0	8.94	16.56
26/01/2020 09:22:37	26012020	260120	092237	175.250	12.459293	-57.245002	175.260	-0.100	-0.160	1.140	175.250	-1.500	1.600																			1580030557.0	9.20	17.04
26/01/2020 09:22:38	26012020	260120	092238	175.280	12.459250	-57.245003	175.320	0.060	-0.210	0.900	175.300	-1.600	1.400																			1580030558.0	9.11	16.87
26/01/2020 09:22:39	26012020	260120	092239	175.410	12.459210	-57.245002	175.450	0.180	-0.110	0.510	175.440	-1.500	1.000																			1580030559.0	8.74	16.19
26/01/2020 09:22:40	26012020	260120	092240	175.510	12.459170	-57.245000	175.490	0.270	-0.250	0.330	175.510	-1.600	0.800																			1580030560.0	8.66	16.04
26/01/2020 09:22:41	26012020	260120	092241	175.470	12.459128	-57.245000	175.440	0.330	-0.550	0.420	175.460	-1.900	0.900																			1580030561.0	9.00	16.67
26/01/2020 09:22:42	26012020	260120	092242	175.450	12.459085	-57.245000	175.450	0.280	-0.570	0.550	175.460	-2.000	1.000																			1580030562.0	9.10	16.85
26/01/2020 09:22:43	26012020	260120	092243	175.470	12.459045	-57.245000	175.460	0.100	-0.380	0.700	175.470	-1.800	1.100																			1580030563.0	8.85	16.39
26/01/2020 09:22:44	26012020	260120	092244	175.460	12.459003	-57.245002	175.470	-0.110	-0.240	0.850	175.470	-1.600	1.300																			1580030564.0	8.81	16.32
26/01/2020 09:22:45	26012020	260120	092245	175.530	12.458962	-57.245003	175.560	-0.230	-0.120	0.950	175.550	-1.500	1.400																			1580030565.0	8.95	16.58
26/01/2020 09:22:46	26012020	260120	092246	175.670	12.458920	-57.245005	175.720	-0.250	0.040	0.980	175.710	-1.400	1.400																			1580030566.0	8.95	16.58
26/01/2020 09:22:47	26012020	260120	092247	175.800	12.458878	-57.245005	175.800	-0.160	0.040	0.970	175.810	-1.300	1.400																			1580030567.0	8.90	16.48
26/01/2020 09:22:48	26012020	260120	092248	175.800	12.458837	-57.245005	175.770	-0.000	-0.160	0.920	175.790	-1.500	1.400																			1580030568.0	9.13	16.91
26/01/2020 09:22:49	26012020	260120	092249	175.780	12.458793	-57.245005	175.790	0.120	-0.250	0.810	175.780	-1.600	1.300																			1580030569.0	9.25	17.13
26/01/2020 09:22:50	26012020	260120	092250	175.860	12.458752	-57.245005	175.880	0.120	-0.070	0.690	175.880	-1.500	1.100																			1580030570.0	8.94	16.56
26/01/2020 09:22:51	26012020	260120	092251	175.910	12.458712	-57.245003	175.880	-0.010	0.000	0.680	175.910	-1.400	1.100																			1580030571.0	8.65	16.02
26/01/2020 09:22:52	26012020	260120	092252	175.810	12.458670	-57.245005	175.730	-0.130	-0.200	0.780	175.780	-1.600	1.200																			1580030572.0	8.84	16.37
26/01/2020 09:22:53	26012020	260120	092253	175.640	12.458628	-57.245007	175.590	-0.170	-0.480	0.970	175.620	-1.800	1.400																			1580030573.0	9.19	17.02
26/01/2020 09:22:54	26012020	260120	092254	175.560	12.458585	-57.245010	175.550	-0.080	-0.450	1.060	175.560	-1.800	1.500																			1580030574.0	9.20	17.04
26/01/2020 09:22:55	26012020	260120	092255	175.600	12.458543	-57.245012	175.620	0.060	-0.210	0.950	175.610	-1.600	1.400																			1580030575.0	8.84	16.37
26/01/2020 09:22:56	26012020	260120	092256	175.710	12.458503	-57.245013	175.740	0.190	-0.080	0.700	175.740	-1.500	1.200																			1580030576.0	8.70	16.11
26/01/2020 09:22:57	26012020	260120	092257	175.860	12.458462	-57.245012	175.910	0.250	-0.140	0.480	175.890	-1.500	0.900																			1580030577.0	8.92	16.52
26/01/2020 09:22:58	26012020	260120	092258	176.020	12.458420	-57.245012	176.070	0.180	-0.200	0.480	176.060	-1.600	0.900																			1580030578.0	9.06	16.78
26/01/2020 09:22:59	26012020	260120	092259	176.190	12.458378	-57.245012	176.230	0.010	-0.180	0.670	176.220	-1.600	1.100																			1580030579.0	8.98	16.63
26/01/2020 09:23:00	26012020	260120	092300	176.280	12.458337	-57.245012	176.280	-0.120	-0.160	0.970	176.280	-1.500	1.400	1013.90	25.60	25.60	19.50	19.50	-1.00	68.00	68.00	420.00	25.30	309.00	8.80	92.00	6.90	15	3254.00	27.40	27.40	1580030580.0	8.90	16.48
26/01/2020 09:23:01	26012020	260120	092301	176.270	12.458295	-57.245015	176.260	-0.130	-0.240	1.220	176.260	-1.600	1.600																			1580030581.0	8.98	16.63
26/01/2020 09:23:02	26012020	260120	092302	176.240	12.458253	-57.245017	176.250	-0.050	-0.350	1.290	176.240	-1.700	1.700																			1580030582.0	9.11	16.87
26/01/2020 09:23:03	26012020	260120	092303	176.260	12.458210	-57.245018	176.280	0.020	-0.360	1.180	176.270	-1.700	1.600																			1580030583.0	9.09	16.83
26/01/2020 09:23:04	26012020	260120	092304	176.280	12.458168	-57.245018	176.290	0.020	-0.240	0.990	176.280	-1.600	1.400																			1580030584.0	8.96	16.59
26/01/2020 09:23:05	26012020	260120	092305	176.290	12.458128	-57.245018	176.310	-0.080	-0.090	0.850	176.300	-1.500	1.300																			1580030585.0	8.87	16.43
26/01/2020 09:23:06	26012020	260120	092306	176.330	12.458087	-57.245018	176.350	-0.190	-0.030	0.820	176.340	-1.400	1.300																			1580030586.0	8.86	16.41
26/01/2020 09:23:07	26012020	260120	092307	176.360	12.458045	-57.245020	176.350	-0.240	-0.090	0.930	176.360	-1.500	1.400																			1580030587.0	8.99	16.65
26/01/2020 09:23:08	26012020	260120	092308	176.250	12.458002	-57.245023	176.170	-0.140	-0.220	1.150	176.210	-1.600	1.600																			1580030588.0	9.11	16.87
26/01/2020 09:23:09	26012020	260120	092309	175.990	12.457960	-57.245027	175.880	0.040	-0.250	1.380	175.930	-1.600	1.800																			1580030589.0	9.19	17.02
26/01/2020 09:23:10	26012020	260120	092310	175.750	12.457918	-57.245028	175.700	0.190	-0.120	1.430	175.720	-1.500	1.900																			1580030590.0	9.04	16.74
26/01/2020 09:23:11	26012020	260120	092311	175.720	12.457877	-57.245030	175.770	0.220	0.070	1.210	175.740	-1.300	1.700																			1580030591.0	8.81	16.32
26/01/2020 09:23:12	26012020	260120	092312	175.910	12.457837	-57.245030	175.990	0.130	0.150	0.870	175.960	-1.200	1.300																			1580030592.0	8.67	16.06
26/01/2020 09:23:13	26012020	260120	092313	176.130	12.457795	-57.245030	176.170	0.050	-0.060	0.670	176.160	-1.400	1.100																			1580030593.0	8.73	16.17
26/01/2020 09:23:14	26012020	260120	092314	176.240	12.457753	-57.245030	176.240	0.090	-0.460	0.670	176.250	-1.800	1.100																			1580030594.0	9.03	16.72
26/01/2020 09:23:15	26012020	260120	092315	176.250	12.457712	-57.245032	176.250	0.260	-0.710	0.770	176.250	-2.100	1.200																			1580030595.0	9.21	17.06
26/01/2020 09:23:16	26012020	260120	092316	176.310	12.457668	-57.245032	176.330	0.340	-0.590	0.820	176.330	-2.000	1.300																			1580030596.0	9.03	16.72
26/01/2020 09:23:17	26012020	260120	092317	176.410	12.457628	-57.245032	176.430	0.190	-0.340	0.930	176.430	-1.700	1.400																			1580030597.0	8.71	16.13
26/01/2020 09:23:18	26012020	260120	092318	176.430	12.457588	-57.245032	176.410	-0.100	-0.270	1.220	176.410	-1.600	1.600																			1580030598.0	8.76	16.22
26/01/2020 09:23:19	26012020	260120	092319	176.330	12.457545	-57.245035	176.310	-0.340	-0.310	1.580	176.310	-1.700	2.000																			1580030599.0	9.09	16.83
26/01/2020 09:23:20	26012020	260120	092320	176.190	12.457503	-57.245037	176.140	-0.410	-0.260	1.870	176.160	-1.600	2.300																			1580030600.0	9.21	17.06
26/01/2020 09:23:21	26012020	260120	092321	175.960	12.457460	-57.245040	175.880	-0.300	-0.170	1.980	175.900	-1.500	2.400																			1580030601.0	9.15	16.95
26/01/2020 09:23:22	26012020	260120	092322	175.690	12.457418	-57.245042	175.650	-0.160	-0.090	1.850	175.660	-1.500	2.300																			1580030602.0	9.16	16.96
26/01/2020 09:23:23	26012020	260120	092323	175.600	12.457375	-57.245042	175.650	-0.130	0.090	1.490	175.610	-1.300	1.900																			1580030603.0	9.15	16.95
26/01/2020 09:23:24	26012020	260120	092324	175.750	12.457333	-57.245043	175.870	-0.190	0.380	1.030	175.810	-1.000	1.500																			1580030604.0	8.84	16.37
26/01/2020 09:23:25	26012020	260120	092325	176.080	12.457293	-57.245043	176.200	-0.180	0.510	0.590	176.150	-0.900	1.100																			1580030605.0	8.60	15.93
26/01/2020 09:23:26	26012020	260120	092326	176.400	12.457253	-57.245043	176.450	0.030	0.260	0.280	176.440	-1.100	0.700																			1580030606.0	8.67	16.06
26/01/2020 09:23:27	26012020	260120	092327	176.570	12.457212	-57.245043	176.590	0.400	-0.340	0.220	176.590	-1.700	0.700																			1580030607.0	9.02	16.71
26/01/2020 09:23:28	26012020	260120	092328	176.640	12.457168	-57.245043	176.640	0.700	-0.840	0.350	176.650	-2.200	0.800																			1580030608.0	9.28	17.19
26/01/2020 09:23:29	26012020	260120	092329	176.690	12.457127	-57.245043	176.710	0.640	-0.850	0.560	176.710	-2.200	1.000																			1580030609.0	9.07	16.80
26/01/2020 09:23:30	26012020	260120	092330	176.800	12.457087	-57.245045	176.840	0.230	-0.440	0.810	176.830	-1.900	1.200																			1580030610.0	8.56	15.85
26/01/2020 09:23:31	26012020	260120	092331	176.860	12.457048	-57.245048	176.820	-0.180	-0.200	1.160	176.840	-1.600	1.600																			1580030611.0	8.36	15.48
26/01/2020 09:23:32	26012020	260120	092332	176.680	12.457007	-57.245052	176.600	-0.260	-0.380	1.470	176.630	-1.700	1.900																			1580030612.0	8.85	16.39
26/01/2020 09:23:33	26012020	260120	092333	176.460	12.456963	-57.245053	176.420	-0.110	-0.590	1.590	176.440	-2.000	2.000																			1580030613.0	9.42	17.45
26/01/2020 09:23:34	26012020	260120	092334	176.350	12.456920	-57.245055	176.340	-0.040	-0.490	1.520	176.340	-1.900	2.000																			1580030614.0	9.37	17.35
26/01/2020 09:23:35	26012020	260120	092335	176.330	12.456878	-57.245057	176.350	-0.160	-0.080	1.330	176.340	-1.500	1.800																			1580030615.0	9.01	16.69
26/01/2020 09:23:36	26012020	260120	092336	176.410	12.456837	-57.245057	176.470	-0.380	0.320	1.090	176.440	-1.100	1.500																			1580030616.0	8.73	16.17
26/01/2020 09:23:37	26012020	260120	092337	176.580	12.456797	-57.245058	176.650	-0.460	0.430	0.900	176.620	-0.900	1.400																			1580030617.0	8.75	16.21
26/01/2020 09:23:38	26012020	260120	092338	176.760	12.456755	-57.245060	176.810	-0.280	0.260	0.690	176.790	-1.100	1.100																			1580030618.0	8.99	16.65
26/01/2020 09:23:39	26012020	260120	092339	176.880	12.456712	-57.245062	176.900	0.050	-0.080	0.480	176.890	-1.400	0.900																			1580030619.0	9.13	16.91
26/01/2020 09:23:40	26012020	260120	092340	176.940	12.456670	-57.245062	176.950	0.320	-0.390	0.430	176.950	-1.700	0.900																			1580030620.0	9.20	17.04
26/01/2020 09:23:41	26012020	260120	092341	177.020	12.456628	-57.245062	177.060	0.290	-0.430	0.600	177.040	-1.800	1.000																			1580030621.0	9.04	16.74
26/01/2020 09:23:42	26012020	260120	092342	177.120	12.456587	-57.245063	177.120	0.060	-0.290	0.960	177.120	-1.700	1.400																			1580030622.0	8.71	16.13
26/01/2020 09:23:43	26012020	260120	092343	177.020	12.456547	-57.245068	176.930	-0.070	-0.300	1.400	176.960	-1.700	1.800																			1580030623.0	8.66	16.04
26/01/2020 09:23:44	26012020	260120	092344	176.670	12.456505	-57.245072	176.560	0.040	-0.510	1.760	176.590	-1.900	2.200																			1580030624.0	9.01	16.69
26/01/2020 09:23:45	26012020	260120	092345	176.370	12.456462	-57.245075	176.370	0.180	-0.490	1.760	176.340	-1.900	2.200																			1580030625.0	9.25	17.13
26/01/2020 09:23:46	26012020	260120	092346	176.380	12.456422	-57.245077	176.460	0.140	-0.110	1.440	176.410	-1.500	1.900																			1580030626.0	8.91	16.50
26/01/2020 09:23:47	26012020	260120	092347	176.580	12.456382	-57.245077	176.680	-0.020	0.270	1.040	176.620	-1.100	1.500																			1580030627.0	8.48	15.70
26/01/2020 09:23:48	26012020	260120	092348	176.770	12.456342	-57.245078	176.820	-0.030	0.210	0.770	176.790	-1.200	1.200																			1580030628.0	8.59	15.91
26/01/2020 09:23:49	26012020	260120	092349	176.840	12.456300	-57.245078	176.880	0.160	-0.180	0.620	176.850	-1.500	1.100																			1580030629.0	9.07	16.80
26/01/2020 09:23:50	26012020	260120	092350	176.910	12.456257	-57.245078	176.970	0.350	-0.460	0.590	176.930	-1.800	1.000																			1580030630.0	9.28	17.19
26/01/2020 09:23:51	26012020	260120	092351	177.040	12.456215	-57.245078	177.110	0.280	-0.440	0.690	177.070	-1.800	1.100																			1580030631.0	9.05	16.76
26/01/2020 09:23:52	26012020	260120	092352	177.140	12.456173	-57.245080	177.180	-0.030	-0.230	0.930	177.140	-1.600	1.400																			1580030632.0	8.71	16.13
26/01/2020 09:23:53	26012020	260120	092353	177.110	12.456133	-57.245083	177.100	-0.340	-0.140	1.310	177.080	-1.500	1.700																			1580030633.0	8.64	16.00
26/01/2020 09:23:54	26012020	260120	092354	176.950	12.456093	-57.245088	176.930	-0.420	-0.280	1.640	176.910	-1.600	2.100																			1580030634.0	8.91	16.50
26/01/2020 09:23:55	26012020	260120	092355	176.750	12.456050	-57.245092	176.720	-0.250	-0.470	1.730	176.710	-1.800	2.200																			1580030635.0	9.19	17.02
26/01/2020 09:23:56	26012020	260120	092356	176.510	12.456007	-57.245093	176.470	-0.020	-0.530	1.580	176.460	-1.900	2.000																			1580030636.0	9.23	17.09
26/01/2020 09:23:57	26012020	260120	092357	176.310	12.455965	-57.245093	176.310	0.060	-0.410	1.320	176.280	-1.800	1.800																			1580030637.0	9.09	16.83
26/01/2020 09:23:58	26012020	260120	092358	176.240	12.455923	-57.245095	176.290	-0.080	-0.110	1.000	176.250	-1.500	1.500																			1580030638.0	8.93	16.54
26/01/2020 09:23:59	26012020	260120	092359	176.360	12.455883	-57.245095	176.450	-0.270	0.210	0.700	176.400	-1.200	1.200																			1580030639.0	8.74	16.19
26/01/2020 09:24:00	26012020	260120	092400	176.580	12.455842	-57.245097	176.700	-0.290	0.330	0.560	176.640	-1.100	1.000	1013.90	25.60	25.60	19.30	19.40	-1.00	68.00	68.00	416.00	25.30	313.00	8.90	99.00	6.60	15	3203.00	27.40	27.40	1580030640.0	8.73	16.17
26/01/2020 09:24:01	26012020	260120	092401	176.860	12.455800	-57.245098	176.960	-0.090	0.220	0.480	176.910	-1.200	0.900																			1580030641.0	8.92	16.52
26/01/2020 09:24:02	26012020	260120	092402	177.040	12.455758	-57.245100	177.090	0.220	-0.000	0.530	177.060	-1.400	1.000																			1580030642.0	9.02	16.71
26/01/2020 09:24:03	26012020	260120	092403	177.110	12.455717	-57.245102	177.130	0.440	-0.180	0.690	177.110	-1.600	1.100																			1580030643.0	9.02	16.71
26/01/2020 09:24:04	26012020	260120	092404	177.090	12.455675	-57.245103	177.080	0.450	-0.230	0.910	177.070	-1.600	1.300																			1580030644.0	8.86	16.41
26/01/2020 09:24:05	26012020	260120	092405	176.960	12.455635	-57.245105	176.930	0.330	-0.240	1.180	176.920	-1.600	1.600																			1580030645.0	8.69	16.09
26/01/2020 09:24:06	26012020	260120	092406	176.780	12.455595	-57.245107	176.750	0.210	-0.300	1.400	176.740	-1.700	1.800																			1580030646.0	8.70	16.11
26/01/2020 09:24:07	26012020	260120	092407	176.620	12.455553	-57.245108	176.630	0.120	-0.420	1.450	176.600	-1.800	1.900																			1580030647.0	8.82	16.33
26/01/2020 09:24:08	26012020	260120	092408	176.530	12.455512	-57.245110	176.530	0.020	-0.560	1.420	176.510	-1.900	1.900																			1580030648.0	8.93	16.54
26/01/2020 09:24:09	26012020	260120	092409	176.400	12.455470	-57.245112	176.390	-0.110	-0.640	1.330	176.380	-2.000	1.800																			1580030649.0	9.00	16.67
26/01/2020 09:24:10	26012020	260120	092410	176.290	12.455428	-57.245113	176.310	-0.230	-0.580	1.140	176.280	-2.000	1.600																			1580030650.0	9.00	16.67
26/01/2020 09:24:11	26012020	260120	092411	176.250	12.455387	-57.245113	176.280	-0.330	-0.440	0.970	176.250	-1.800	1.400																			1580030651.0	8.95	16.58
26/01/2020 09:24:12	26012020	260120	092412	176.240	12.455345	-57.245117	176.260	-0.370	-0.340	0.940	176.230	-1.700	1.400																			1580030652.0	9.01	16.69
26/01/2020 09:24:13	26012020	260120	092413	176.220	12.455303	-57.245118	176.240	-0.350	-0.250	0.970	176.220	-1.600	1.400																			1580030653.0	9.18	17.00
26/01/2020 09:24:14	26012020	260120	092414	176.290	12.455260	-57.245122	176.380	-0.320	0.020	0.910	176.330	-1.400	1.400																			1580030654.0	9.21	17.06
26/01/2020 09:24:15	26012020	260120	092415	176.550	12.455218	-57.245123	176.670	-0.290	0.440	0.800	176.610	-1.000	1.200																			1580030655.0	8.91	16.50
26/01/2020 09:24:16	26012020	260120	092416	176.850	12.455178	-57.245123	176.950	-0.180	0.650	0.630	176.900	-0.700	1.100																			1580030656.0	8.67	16.06
26/01/2020 09:24:17	26012020	260120	092417	177.060	12.455137	-57.245123	177.090	0.070	0.420	0.590	177.080	-0.900	1.000																			1580030657.0	8.82	16.33
26/01/2020 09:24:18	26012020	260120	092418	177.050	12.455095	-57.245123	177.000	0.360	-0.060	0.880	177.010	-1.400	1.300																			1580030658.0	9.15	16.95
26/01/2020 09:24:19	26012020	260120	092419	176.800	12.455052	-57.245127	176.720	0.520	-0.410	1.260	176.740	-1.800	1.700																			1580030659.0	9.23	17.09
26/01/2020 09:24:20	26012020	260120	092420	176.510	12.455010	-57.245128	176.470	0.480	-0.400	1.460	176.470	-1.800	1.900																			1580030660.0	8.95	16.58
26/01/2020 09:24:21	26012020	260120	092421	176.360	12.454970	-57.245130	176.370	0.300	-0.140	1.480	176.350	-1.500	1.900																			1580030661.0	8.51	15.76
26/01/2020 09:24:22	26012020	260120	092422	176.370	12.454932	-57.245132	176.390	0.160	-0.060	1.320	176.380	-1.400	1.800																			1580030662.0	8.28	15.33
26/01/2020 09:24:23	26012020	260120	092423	176.380	12.454892	-57.245133	176.370	0.190	-0.450	1.100	176.370	-1.800	1.500																			1580030663.0	8.59	15.91
26/01/2020 09:24:24	26012020	260120	092424	176.290	12.454850	-57.245133	176.240	0.290	-1.030	1.020	176.260	-2.400	1.500																			1580030664.0	9.17	16.98
26/01/2020 09:24:25	26012020	260120	092425	176.190	12.454805	-57.245135	176.190	0.210	-1.230	0.950	176.190	-2.600	1.400																			1580030665.0	9.41	17.43
26/01/2020 09:24:26	26012020	260120	092426	176.250	12.454763	-57.245135	176.300	-0.170	-0.870	0.950	176.280	-2.300	1.400																			1580030666.0	9.08	16.82
26/01/2020 09:24:27	26012020	260120	092427	176.410	12.454723	-57.245138	176.460	-0.650	-0.250	1.080	176.450	-1.700	1.500																			1580030667.0	8.69	16.09
26/01/2020 09:24:28	26012020	260120	092428	176.540	12.454683	-57.245142	176.570	-0.880	0.130	1.230	176.560	-1.300	1.700																			1580030668.0	8.75	16.21
26/01/2020 09:24:29	26012020	260120	092429	176.590	12.454640	-57.245145	176.600	-0.730	0.130	1.380	176.590	-1.200	1.800																			1580030669.0	9.17	16.98
26/01/2020 09:24:30	26012020	260120	092430	176.570	12.454597	-57.245147	176.590	-0.370	0.070	1.560	176.560	-1.300	2.000																			1580030670.0	9.55	17.69
26/01/2020 09:24:31	26012020	260120	092431	176.590	12.454552	-57.245150	176.640	-0.100	0.270	1.600	176.600	-1.100	2.000																			1580030671.0	9.38	17.37
26/01/2020 09:24:32	26012020	260120	092432	176.670	12.454512	-57.245150	176.710	0.020	0.580	1.440	176.680	-0.800	1.900																			1580030672.0	8.88	16.45
26/01/2020 09:24:33	26012020	260120	092433	176.650	12.454472	-57.245150	176.640	0.140	0.620	1.240	176.630	-0.800	1.700																			1580030673.0	8.63	15.98
26/01/2020 09:24:34	26012020	260120	092434	176.510	12.454430	-57.245150	176.470	0.360	0.320	1.140	176.470	-1.000	1.600																			1580030674.0	8.80	16.30
26/01/2020 09:24:35	26012020	260120	092435	176.330	12.454388	-57.245150	176.300	0.560	-0.080	1.100	176.300	-1.400	1.600																			1580030675.0	8.96	16.59
26/01/2020 09:24:36	26012020	260120	092436	176.220	12.454347	-57.245150	176.230	0.560	-0.370	1.090	176.220	-1.700	1.500																			1580030676.0	8.86	16.41
26/01/2020 09:24:37	26012020	260120	092437	176.220	12.454307	-57.245152	176.240	0.430	-0.580	1.080	176.220	-1.900	1.500																			1580030677.0	8.66	16.04
26/01/2020 09:24:38	26012020	260120	092438	176.230	12.454267	-57.245153	176.250	0.330	-0.770	1.060	176.230	-2.100	1.500																			1580030678.0	8.64	16.00
26/01/2020 09:24:39	26012020	260120	092439	176.230	12.454227	-57.245155	176.270	0.280	-0.930	1.080	176.230	-2.300	1.500																			1580030679.0	8.78	16.26
26/01/2020 09:24:40	26012020	260120	092440	176.300	12.454185	-57.245157	176.370	0.140	-0.960	1.120	176.330	-2.400	1.600																			1580030680.0	8.90	16.48
26/01/2020 09:24:41	26012020	260120	092441	176.400	12.454143	-57.245158	176.440	-0.100	-0.790	1.200	176.410	-2.200	1.600																			1580030681.0	8.90	16.48
26/01/2020 09:24:42	26012020	260120	092442	176.390	12.454102	-57.245160	176.390	-0.350	-0.530	1.340	176.380	-1.900	1.800																			1580030682.0	8.90	16.48
26/01/2020 09:24:43	26012020	260120	092443	176.310	12.454060	-57.245162	176.290	-0.560	-0.280	1.500	176.290	-1.700	1.900																			1580030683.0	9.06	16.78
26/01/2020 09:24:44	26012020	260120	092444	176.230	12.454017	-57.245163	176.220	-0.690	0.020	1.680	176.220	-1.400	2.100																			1580030684.0	9.19	17.02
26/01/2020 09:24:45	26012020	260120	092445	176.160	12.453975	-57.245167	176.150	-0.650	0.310	1.730	176.140	-1.100	2.200																			1580030685.0	9.17	16.98
26/01/2020 09:24:46	26012020	260120	092446	176.080	12.453932	-57.245170	176.080	-0.390	0.500	1.590	176.070	-0.900	2.000																			1580030686.0	9.12	16.89
26/01/2020 09:24:47	26012020	260120	092447	176.050	12.453890	-57.245168	176.070	-0.070	0.560	1.280	176.060	-0.800	1.700																			1580030687.0	9.09	16.83
26/01/2020 09:24:48	26012020	260120	092448	176.120	12.453848	-57.245168	176.150	0.140	0.490	0.950	176.140	-0.900	1.400																			1580030688.0	8.99	16.65
26/01/2020 09:24:49	26012020	260120	092449	176.180	12.453807	-57.245167	176.170	0.230	0.250	0.750	176.180	-1.100	1.200																			1580030689.0	8.87	16.43
26/01/2020 09:24:50	26012020	260120	092450	176.140	12.453765	-57.245167	176.110	0.320	-0.130	0.690	176.130	-1.500	1.100																			1580030690.0	8.89	16.46
26/01/2020 09:24:51	26012020	260120	092451	176.080	12.453723	-57.245168	176.050	0.440	-0.480	0.640	176.070	-1.900	1.100																			1580030691.0	8.92	16.52
26/01/2020 09:24:52	26012020	260120	092452	176.030	12.453683	-57.245168	176.000	0.500	-0.670	0.680	176.020	-2.100	1.100																			1580030692.0	8.83	16.35
26/01/2020 09:24:53	26012020	260120	092453	176.040	12.453643	-57.245170	176.050	0.400	-0.680	0.750	176.050	-2.100	1.200																			1580030693.0	8.70	16.11
26/01/2020 09:24:54	26012020	260120	092454	176.140	12.453603	-57.245172	176.160	0.180	-0.530	0.760	176.160	-1.900	1.200																			1580030694.0	8.60	15.93
26/01/2020 09:24:55	26012020	260120	092455	176.220	12.453563	-57.245173	176.200	-0.040	-0.480	0.930	176.220	-1.900	1.400																			1580030695.0	8.59	15.91
26/01/2020 09:24:56	26012020	260120	092456	176.140	12.453522	-57.245175	176.080	-0.110	-0.600	1.230	176.110	-2.000	1.600																			1580030696.0	8.93	16.54
26/01/2020 09:24:57	26012020	260120	092457	176.020	12.453478	-57.245177	176.000	-0.110	-0.580	1.540	176.000	-2.000	2.000																			1580030697.0	9.24	17.11
26/01/2020 09:24:58	26012020	260120	092458	176.000	12.453437	-57.245180	176.020	-0.200	-0.250	1.820	176.000	-1.700	2.200																			1580030698.0	9.09	16.83
26/01/2020 09:24:59	26012020	260120	092459	176.020	12.453395	-57.245183	176.030	-0.350	0.060	1.950	176.020	-1.300	2.400																			1580030699.0	8.84	16.37
26/01/2020 09:25:00	26012020	260120	092500	175.960	12.453353	-57.245185	175.920	-0.340	-0.010	1.900	175.940	-1.400	2.400	1013.90	25.60	25.60	19.30	19.30	-1.00	68.00	68.00	414.00	25.30	311.00	8.80	97.00	6.80	15	3280.00	27.40	27.40	1580030700.0	8.99	16.65
26/01/2020 09:25:01	26012020	260120	092501	175.820	12.453310	-57.245187	175.780	-0.140	-0.210	1.710	175.790	-1.600	2.200																			1580030701.0	9.44	17.48
26/01/2020 09:25:02	26012020	260120	092502	175.740	12.453267	-57.245187	175.770	-0.000	0.000	1.370	175.750	-1.400	1.900																			1580030702.0	9.36	17.33
26/01/2020 09:25:03	26012020	260120	092503	175.890	12.453225	-57.245185	175.970	-0.060	0.490	0.770	175.940	-0.900	1.300																			1580030703.0	8.74	16.19
26/01/2020 09:25:04	26012020	260120	092504	176.160	12.453187	-57.245183	176.220	-0.170	0.650	0.130	176.210	-0.700	0.600																			1580030704.0	8.40	15.56
26/01/2020 09:25:05	26012020	260120	092505	176.360	12.453145	-57.245182	176.380	-0.100	0.240	-0.200	176.390	-1.100	0.300																			1580030705.0	8.74	16.19
26/01/2020 09:25:06	26012020	260120	092506	176.490	12.453103	-57.245182	176.510	0.140	-0.330	-0.230	176.520	-1.700	0.200																			1580030706.0	9.19	17.02
26/01/2020 09:25:07	26012020	260120	092507	176.640	12.453060	-57.245182	176.640	0.350	-0.620	-0.030	176.660	-2.000	0.400																			1580030707.0	9.13	16.91
26/01/2020 09:25:08	26012020	260120	092508	176.690	12.453020	-57.245185	176.620	0.410	-0.610	0.430	176.670	-2.000	0.800																			1580030708.0	8.75	16.21
26/01/2020 09:25:09	26012020	260120	092509	176.470	12.452980	-57.245188	176.330	0.360	-0.660	1.140	176.400	-2.000	1.500																			1580030709.0	8.62	15.96
26/01/2020 09:25:10	26012020	260120	092510	176.060	12.452938	-57.245192	175.930	0.280	-0.790	1.900	175.980	-2.200	2.300																			1580030710.0	8.98	16.63
26/01/2020 09:25:11	26012020	260120	092511	175.730	12.452897	-57.245197	175.690	0.140	-0.680	2.460	175.690	-2.100	2.900																			1580030711.0	9.20	17.04
26/01/2020 09:25:12	26012020	260120	092512	175.640	12.452853	-57.245202	175.720	-0.070	-0.270	2.610	175.660	-1.700	3.000																			1580030712.0	9.02	16.71
26/01/2020 09:25:13	26012020	260120	092513	175.790	12.452813	-57.245205	175.910	-0.290	0.100	2.280	175.840	-1.300	2.700																			1580030713.0	8.78	16.26
26/01/2020 09:25:14	26012020	260120	092514	176.060	12.452772	-57.245205	176.190	-0.420	0.170	1.710	176.060	-1.200	2.400																			1580030714.0	8.86	16.41
26/01/2020 09:25:15	26012020	260120	092515	176.350	12.452730	-57.245205	176.440	-0.380	0.010	1.070	176.400	-1.400	1.500																			1580030715.0	9.11	16.87
26/01/2020 09:25:16	26012020	260120	092516	176.530	12.452687	-57.245203	176.560	-0.200	-0.170	0.430	176.560	-1.600	0.900																			1580030716.0	9.25	17.13
26/01/2020 09:25:17	26012020	260120	092517	176.640	12.452645	-57.245200	176.650	-0.000	-0.180	-0.130	176.660	-1.600	0.400																			1580030717.0	9.16	16.96
26/01/2020 09:25:18	26012020	260120	092518	176.710	12.452603	-57.245197	176.680	0.120	-0.100	-0.480	176.720	-1.500	-0.000																			1580030718.0	8.97	16.61
26/01/2020 09:25:19	26012020	260120	092519	176.750	12.452562	-57.245195	176.720	0.100	0.040	-0.510	176.750	-1.400	-0.100																			1580030719.0	8.86	16.41
26/01/2020 09:25:20	26012020	260120	092520	176.770	12.452522	-57.245197	176.730	-0.030	0.170	-0.110	176.770	-1.200	0.300																			1580030720.0	8.73	16.17
26/01/2020 09:25:21	26012020	260120	092521	176.690	12.452480	-57.245200	176.600	-0.080	0.130	0.610	176.650	-1.300	1.000																			1580030721.0	8.76	16.22
26/01/2020 09:25:22	26012020	260120	092522	176.460	12.452438	-57.245205	176.360	0.090	-0.150	1.400	176.400	-1.500	1.800																			1580030722.0	9.02	16.71
26/01/2020 09:25:23	26012020	260120	092523	176.200	12.452397	-57.245212	176.150	0.340	-0.450	2.090	176.160	-1.800	2.500																			1580030723.0	9.27	17.17
26/01/2020 09:25:24	26012020	260120	092524	176.100	12.452353	-57.245217	176.130	0.420	-0.480	2.410	176.100	-1.900	2.800																			1580030724.0	9.16	16.96
26/01/2020 09:25:25	26012020	260120	092525	176.160	12.452313	-57.245222	176.230	0.270	-0.310	2.340	176.180	-1.700	2.800																			1580030725.0	8.72	16.15
26/01/2020 09:25:26	26012020	260120	092526	176.250	12.452273	-57.245223	176.290	0.110	-0.310	1.970	176.270	-1.700	2.400																			1580030726.0	8.55	15.83
26/01/2020 09:25:27	26012020	260120	092527	176.290	12.452232	-57.245222	176.320	0.080	-0.590	1.450	176.300	-2.000	1.900																			1580030727.0	8.89	16.46
26/01/2020 09:25:28	26012020	260120	092528	176.360	12.452190	-57.245220	176.410	0.110	-0.830	0.860	176.360	-2.100	1.600																			1580030728.0	9.26	17.15
26/01/2020 09:25:29	26012020	260120	092529	176.490	12.452147	-57.245218	176.510	0.020	-0.700	0.260	176.510	-2.100	0.700																			1580030729.0	9.23	17.09
26/01/2020 09:25:30	26012020	260120	092530	176.620	12.452105	-57.245217	176.640	-0.250	-0.240	-0.130	176.640	-1.700	0.300																			1580030730.0	8.91	16.50
26/01/2020 09:25:31	26012020	260120	092531	176.770	12.452065	-57.245215	176.780	-0.550	0.200	-0.210	176.790	-1.200	0.200																			1580030731.0	8.70	16.11
26/01/2020 09:25:32	26012020	260120	092532	176.860	12.452023	-57.245217	176.840	-0.600	0.330	0.040	176.860	-1.100	0.500																			1580030732.0	8.88	16.45
26/01/2020 09:25:33	26012020	260120	092533	176.880	12.451980	-57.245220	176.870	-0.360	0.230	0.410	176.880	-1.200	0.800																			1580030733.0	9.25	17.13
26/01/2020 09:25:34	26012020	260120	092534	176.940	12.451937	-57.245223	176.940	-0.040	0.150	0.760	176.950	-1.200	1.200																			1580030734.0	9.31	17.24
26/01/2020 09:25:35	26012020	260120	092535	176.970	12.451895	-57.245227	176.950	0.130	0.140	1.150	176.960	-1.300	1.600																			1580030735.0	9.09	16.83
26/01/2020 09:25:36	26012020	260120	092536	176.910	12.451853	-57.245230	176.880	0.140	0.110	1.600	176.890	-1.300	2.000																			1580030736.0	8.89	16.46
26/01/2020 09:25:37	26012020	260120	092537	176.770	12.451813	-57.245235	176.710	0.160	-0.010	2.020	176.730	-1.400	2.400																			1580030737.0	8.81	16.32
26/01/2020 09:25:38	26012020	260120	092538	176.540	12.451772	-57.245240	176.500	0.320	-0.240	2.240	176.500	-1.600	2.700																			1580030738.0	8.90	16.48
26/01/2020 09:25:39	26012020	260120	092539	176.390	12.451730	-57.245242	176.430	0.500	-0.420	2.060	176.390	-1.800	2.500																			1580030739.0	8.93	16.54
26/01/2020 09:25:40	26012020	260120	092540	176.470	12.451690	-57.245242	176.580	0.480	-0.510	1.520	176.510	-1.900	2.000																			1580030740.0	8.79	16.28
26/01/2020 09:25:41	26012020	260120	092541	176.730	12.451648	-57.245242	176.840	0.250	-0.620	0.860	176.780	-2.000	1.300																			1580030741.0	8.70	16.11
26/01/2020 09:25:42	26012020	260120	092542	176.960	12.451608	-57.245240	177.000	0.020	-0.840	0.340	176.990	-2.200	0.800																			1580030742.0	8.84	16.37
26/01/2020 09:25:43	26012020	260120	092543	177.070	12.451565	-57.245240	177.080	-0.100	-0.970	-0.000	177.080	-2.400	0.500																			1580030743.0	9.15	16.95
26/01/2020 09:25:44	26012020	260120	092544	177.180	12.451523	-57.245240	177.200	-0.220	-0.700	-0.220	177.210	-2.100	0.200																			1580030744.0	9.17	16.98
26/01/2020 09:25:45	26012020	260120	092545	177.290	12.451482	-57.245240	177.260	-0.410	-0.140	-0.210	177.300	-1.600	0.200																			1580030745.0	8.86	16.41
26/01/2020 09:25:46	26012020	260120	092546	177.240	12.451440	-57.245242	177.170	-0.540	0.260	0.130	177.210	-1.200	0.500																			1580030746.0	8.80	16.30
26/01/2020 09:25:47	26012020	260120	092547	177.120	12.451398	-57.245245	177.090	-0.510	0.400	0.710	177.110	-1.000	1.100																			1580030747.0	9.15	16.95
26/01/2020 09:25:48	26012020	260120	092548	177.050	12.451355	-57.245250	177.050	-0.340	0.460	1.320	177.040	-0.900	1.700																			1580030748.0	9.34	17.30
26/01/2020 09:25:49	26012020	260120	092549	177.060	12.451313	-57.245255	177.090	-0.080	0.480	1.740	177.060	-0.900	2.100																			1580030749.0	9.22	17.08
26/01/2020 09:25:50	26012020	260120	092550	177.070	12.451270	-57.245260	177.090	0.170	0.340	1.950	177.060	-1.000	2.400																			1580030750.0	9.04	16.74
26/01/2020 09:25:51	26012020	260120	092551	177.000	12.451230	-57.245263	177.020	0.310	0.060	2.010	176.990	-1.300	2.400																			1580030751.0	8.96	16.59
26/01/2020 09:25:52	26012020	260120	092552	176.920	12.451188	-57.245265	176.950	0.340	-0.310	1.900	176.910	-1.700	2.400																			1580030752.0	8.94	16.56
26/01/2020 09:25:53	26012020	260120	092553	176.910	12.451147	-57.245267	176.980	0.320	-0.570	1.540	176.920	-2.000	2.000																			1580030753.0	8.93	16.54
26/01/2020 09:25:54	26012020	260120	092554	177.020	12.451105	-57.245268	177.100	0.300	-0.690	0.960	177.050	-2.100	1.400																			1580030754.0	8.74	16.19
26/01/2020 09:25:55	26012020	260120	092555	177.160	12.451065	-57.245267	177.210	0.280	-0.780	0.360	177.170	-2.200	0.800																			1580030755.0	8.69	16.09
26/01/2020 09:25:56	26012020	260120	092556	177.240	12.451023	-57.245265	177.250	0.210	-0.840	-0.130	177.240	-2.200	0.300																			1580030756.0	8.85	16.39
26/01/2020 09:25:57	26012020	260120	092557	177.280	12.450982	-57.245265	177.290	0.010	-0.730	-0.390	177.290	-2.100	0.100																			1580030757.0	9.00	16.67
26/01/2020 09:25:58	26012020	260120	092558	177.350	12.450940	-57.245265	177.360	-0.260	-0.440	-0.380	177.370	-1.900	0.100																			1580030758.0	8.95	16.58
26/01/2020 09:25:59	26012020	260120	092559	177.410	12.450898	-57.245267	177.410	-0.390	-0.120	-0.130	177.420	-1.500	0.300																			1580030759.0	8.96	16.59
26/01/2020 09:26:00	26012020	260120	092600	177.440	12.450857	-57.245270	177.410	-0.310	0.080	0.320	177.420	-1.300	0.700	1013.90	25.60	25.60	19.50	19.60	-1.00	69.00	69.00	411.00	25.30	313.00	9.00	99.00	6.80	15	3318.00	27.40	27.40	1580030760.0	9.11	16.87
26/01/2020 09:26:01	26012020	260120	092601	177.360	12.450813	-57.245275	177.330	-0.170	0.190	0.970	177.340	-1.200	1.300																			1580030761.0	9.29	17.21
26/01/2020 09:26:02	26012020	260120	092602	177.240	12.450770	-57.245278	177.220	-0.150	0.310	1.700	177.210	-1.100	2.100																			1580030762.0	9.32	17.26
26/01/2020 09:26:03	26012020	260120	092603	177.120	12.450728	-57.245285	177.120	-0.250	0.460	2.280	177.100	-1.000	2.700																			1580030763.0	9.14	16.93
26/01/2020 09:26:04	26012020	260120	092604	177.000	12.450687	-57.245290	177.000	-0.250	0.460	2.630	176.970	-0.900	3.000																			1580030764.0	8.94	16.56
26/01/2020 09:26:05	26012020	260120	092605	176.830	12.450645	-57.245295	176.830	-0.010	0.170	2.720	176.800	-1.200	3.100																			1580030765.0	8.97	16.61
26/01/2020 09:26:06	26012020	260120	092606	176.710	12.450603	-57.245298	176.740	0.360	-0.310	2.380	176.690	-1.700	2.800																			1580030766.0	9.11	16.87
26/01/2020 09:26:07	26012020	260120	092607	176.690	12.450562	-57.245298	176.760	0.640	-0.670	1.660	176.710	-2.000	2.100																			1580030767.0	9.08	16.82
26/01/2020 09:26:08	26012020	260120	092608	176.800	12.450520	-57.245297	176.870	0.620	-0.770	0.730	176.830	-2.200	1.200																			1580030768.0	8.84	16.37
26/01/2020 09:26:09	26012020	260120	092609	176.940	12.450480	-57.245293	177.000	0.320	-0.760	-0.100	176.970	-2.200	0.400																			1580030769.0	8.69	16.09
26/01/2020 09:26:10	26012020	260120	092610	177.090	12.450440	-57.245292	177.130	-0.070	-0.600	-0.670	177.130	-2.000	-0.200																			1580030770.0	8.72	16.15
26/01/2020 09:26:11	26012020	260120	092611	177.280	12.450398	-57.245292	177.330	-0.320	-0.340	-0.920	177.330	-1.800	-0.500																			1580030771.0	8.71	16.13
26/01/2020 09:26:12	26012020	260120	092612	177.500	12.450358	-57.245293	177.540	-0.310	-0.170	-0.890	177.540	-1.600	-0.500																			1580030772.0	8.82	16.33
26/01/2020 09:26:13	26012020	260120	092613	177.660	12.450315	-57.245295	177.650	-0.150	-0.150	-0.560	177.670	-1.500	-0.200																			1580030773.0	9.07	16.80
26/01/2020 09:26:14	26012020	260120	092614	177.670	12.450273	-57.245298	177.630	-0.010	-0.180	0.090	177.660	-1.600	0.500																			1580030774.0	9.26	17.15
26/01/2020 09:26:15	26012020	260120	092615	177.550	12.450230	-57.245302	177.510	0.010	-0.130	0.960	177.520	-1.500	1.300																			1580030775.0	9.29	17.21
26/01/2020 09:26:16	26012020	260120	092616	177.420	12.450187	-57.245307	177.420	-0.110	0.040	1.840	177.420	-1.400	1.900																			1580030776.0	9.20	17.04
26/01/2020 09:26:17	26012020	260120	092617	177.290	12.450145	-57.245313	177.290	-0.260	0.210	2.640	177.250	-1.200	3.000																			1580030777.0	9.04	16.74
26/01/2020 09:26:18	26012020	260120	092618	177.100	12.450105	-57.245320	177.080	-0.270	0.150	3.190	177.050	-1.200	3.600																			1580030778.0	9.03	16.72
26/01/2020 09:26:19	26012020	260120	092619	176.800	12.450062	-57.245327	176.750	-0.060	-0.170	3.360	176.730	-1.500	3.800																			1580030779.0	9.20	17.04
26/01/2020 09:26:20	26012020	260120	092620	176.460	12.450018	-57.245328	176.440	0.230	-0.400	3.140	176.410	-1.800	3.600																			1580030780.0	9.33	17.28
26/01/2020 09:26:21	26012020	260120	092621	176.330	12.449977	-57.245330	176.430	0.310	-0.260	2.390	176.350	-1.700	2.900																			1580030781.0	9.08	16.82
26/01/2020 09:26:22	26012020	260120	092622	176.510	12.449937	-57.245328	176.650	0.140	0.040	1.290	176.560	-1.400	1.800																			1580030782.0	8.57	15.87
26/01/2020 09:26:23	26012020	260120	092623	176.800	12.449897	-57.245325	176.920	-0.070	0.080	0.210	176.860	-1.300	0.700																			1580030783.0	8.43	15.61
26/01/2020 09:26:24	26012020	260120	092624	177.070	12.449857	-57.245323	177.160	-0.070	-0.240	-0.680	177.130	-1.600	-0.200																			1580030784.0	8.76	16.22
26/01/2020 09:26:25	26012020	260120	092625	177.290	12.449815	-57.245322	177.320	0.090	-0.640	-1.230	177.330	-2.000	-0.800																			1580030785.0	9.12	16.89
26/01/2020 09:26:26	26012020	260120	092626	177.440	12.449772	-57.245320	177.450	0.230	-0.800	-1.340	177.460	-2.200	-0.900																			1580030786.0	9.18	17.00
26/01/2020 09:26:27	26012020	260120	092627	177.560	12.449730	-57.245322	177.570	0.210	-0.630	-1.070	177.580	-2.100	-0.700																			1580030787.0	8.97	16.61
26/01/2020 09:26:28	26012020	260120	092628	177.670	12.449690	-57.245323	177.670	0.050	-0.320	-0.470	177.680	-1.700	-0.100																			1580030788.0	8.76	16.22
26/01/2020 09:26:29	26012020	260120	092629	177.680	12.449648	-57.245328	177.640	-0.080	-0.140	0.450	177.660	-1.500	0.800																			1580030789.0	8.86	16.41
26/01/2020 09:26:30	26012020	260120	092630	177.540	12.449607	-57.245333	177.490	-0.130	-0.050	1.490	177.500	-1.500	1.900																			1580030790.0	9.14	16.93
26/01/2020 09:26:31	26012020	260120	092631	177.330	12.449563	-57.245340	177.300	-0.160	0.050	2.420	177.290	-1.400	2.800																			1580030791.0	9.26	17.15
26/01/2020 09:26:32	26012020	260120	092632	177.110	12.449522	-57.245347	177.090	-0.230	0.160	3.110	177.060	-1.200	3.500																			1580030792.0	9.23	17.09
26/01/2020 09:26:33	26012020	260120	092633	176.890	12.449478	-57.245352	176.900	-0.250	0.220	3.440	176.850	-1.200	3.800																			1580030793.0	9.13	16.91
26/01/2020 09:26:34	26012020	260120	092634	176.750	12.449437	-57.245357	176.800	-0.120	0.170	3.310	176.730	-1.200	3.700																			1580030794.0	9.04	16.74
26/01/2020 09:26:35	26012020	260120	092635	176.730	12.449395	-57.245360	176.830	0.120	0.010	2.620	176.740	-1.400	3.100																			1580030795.0	8.98	16.63
26/01/2020 09:26:36	26012020	260120	092636	176.850	12.449355	-57.245358	176.970	0.300	-0.210	1.430	176.890	-1.600	2.000																			1580030796.0	8.91	16.50
26/01/2020 09:26:37	26012020	260120	092637	177.060	12.449313	-57.245353	177.160	0.350	-0.480	0.110	177.110	-1.900	0.600																			1580030797.0	8.87	16.43
26/01/2020 09:26:38	26012020	260120	092638	177.280	12.449272	-57.245348	177.340	0.230	-0.770	-0.950	177.320	-2.200	-0.400																			1580030798.0	8.97	16.61
26/01/2020 09:26:39	26012020	260120	092639	177.420	12.449230	-57.245345	177.410	0.010	-0.890	-1.460	177.420	-2.300	-1.000																			1580030799.0	9.01	16.69
26/01/2020 09:26:40	26012020	260120	092640	177.400	12.449188	-57.245345	177.330	-0.230	-0.730	-1.370	177.390	-2.100	-0.900																			1580030800.0	8.93	16.54
26/01/2020 09:26:41	26012020	260120	092641	177.300	12.449147	-57.245350	177.240	-0.360	-0.340	-0.900	177.290	-1.800	-0.500																			1580030801.0	8.86	16.41
26/01/2020 09:26:42	26012020	260120	092642	177.250	12.449107	-57.245355	177.230	-0.340	0.080	-0.200	177.250	-1.300	0.200																			1580030802.0	8.87	16.43
26/01/2020 09:26:43	26012020	260120	092643	177.280	12.449065	-57.245360	177.290	-0.200	0.330	0.600	177.290	-1.100	1.000																			1580030803.0	9.00	16.67
26/01/2020 09:26:44	26012020	260120	092644	177.320	12.449023	-57.245367	177.340	0.010	0.330	1.440	177.320	-1.100	1.800																			1580030804.0	9.18	17.00
26/01/2020 09:26:45	26012020	260120	092645	177.350	12.448980	-57.245372	177.420	0.200	0.240	2.150	177.360	-1.200	2.500																			1580030805.0	9.28	17.19
26/01/2020 09:26:46	26012020	260120	092646	177.440	12.448938	-57.245375	177.500	0.280	0.150	2.620	177.450	-1.200	3.000																			1580030806.0	9.13	16.91
26/01/2020 09:26:47	26012020	260120	092647	177.470	12.448897	-57.245378	177.520	0.240	-0.020	2.810	177.470	-1.400	3.200																			1580030807.0	8.92	16.52
26/01/2020 09:26:48	26012020	260120	092648	177.420	12.448855	-57.245382	177.430	0.140	-0.310	2.750	177.390	-1.700	3.200																			1580030808.0	8.92	16.52
26/01/2020 09:26:49	26012020	260120	092649	177.250	12.448813	-57.245385	177.230	0.090	-0.610	2.450	177.210	-2.000	2.900																			1580030809.0	8.97	16.61
26/01/2020 09:26:50	26012020	260120	092650	177.030	12.448772	-57.245387	177.020	0.130	-0.740	1.880	177.000	-2.100	2.400																			1580030810.0	8.98	16.63
26/01/2020 09:26:51	26012020	260120	092651	176.910	12.448730	-57.245385	176.950	0.160	-0.670	1.080	176.910	-2.100	1.600																			1580030811.0	8.88	16.45
26/01/2020 09:26:52	26012020	260120	092652	176.950	12.448690	-57.245383	177.010	0.080	-0.480	0.210	176.970	-1.900	0.700																			1580030812.0	8.79	16.28
26/01/2020 09:26:53	26012020	260120	092653	177.100	12.448648	-57.245382	177.170	-0.110	-0.220	-0.600	177.130	-1.600	-0.100																			1580030813.0	8.79	16.28
26/01/2020 09:26:54	26012020	260120	092654	177.250	12.448608	-57.245380	177.280	-0.330	-0.040	-1.030	177.280	-1.500	-0.600																			1580030814.0	8.80	16.30
26/01/2020 09:26:55	26012020	260120	092655	177.350	12.448567	-57.245380	177.350	-0.430	-0.060	-0.900	177.360	-1.400	-0.500																			1580030815.0	8.99	16.65
26/01/2020 09:26:56	26012020	260120	092656	177.360	12.448523	-57.245383	177.330	-0.350	-0.130	-0.310	177.350	-1.500	0.100																			1580030816.0	9.22	17.08
26/01/2020 09:26:57	26012020	260120	092657	177.240	12.448480	-57.245390	177.170	-0.160	-0.150	0.530	177.190	-1.500	0.900																			1580030817.0	9.30	17.22
26/01/2020 09:26:58	26012020	260120	092658	177.010	12.448438	-57.245395	176.990	0.000	-0.080	1.390	176.980	-1.500	1.800																			1580030818.0	9.27	17.17
26/01/2020 09:26:59	26012020	260120	092659	176.970	12.448395	-57.245402	177.080	0.060	0.140	1.950	177.000	-1.300	2.300																			1580030819.0	9.12	16.89
26/01/2020 09:27:00	26012020	260120	092700	177.210	12.448355	-57.245407	177.380	0.050	0.360	2.140	177.280	-1.100	2.600	1013.90	25.60	25.60	19.60	19.70	-1.00	69.00	69.00	409.00	25.30	316.00	9.10	105.00	6.60	15	3299.00	27.40	27.40	1580030820.0	8.76	16.22
26/01/2020 09:27:01	26012020	260120	092701	177.470	12.448315	-57.245410	177.560	0.130	0.220	2.050	177.500	-1.200	2.500																			1580030821.0	8.62	15.96
26/01/2020 09:27:02	26012020	260120	092702	177.450	12.448273	-57.245410	177.420	0.360	-0.350	1.910	177.400	-1.700	2.300																			1580030822.0	8.96	16.59
26/01/2020 09:27:03	26012020	260120	092703	177.190	12.448230	-57.245410	177.140	0.530	-0.920	1.740	177.130	-2.300	2.200																			1580030823.0	9.38	17.37
26/01/2020 09:27:04	26012020	260120	092704	176.900	12.448187	-57.245408	176.870	0.390	-1.050	1.660	176.840	-2.500	2.100																			1580030824.0	9.30	17.22
26/01/2020 09:27:05	26012020	260120	092705	176.720	12.448145	-57.245412	176.760	-0.050	-0.640	1.640	176.710	-2.100	2.100																			1580030825.0	8.94	16.56
26/01/2020 09:27:06	26012020	260120	092706	176.710	12.448105	-57.245415	176.770	-0.490	0.090	1.520	176.710	-1.600	2.000																			1580030826.0	8.50	15.74
26/01/2020 09:27:07	26012020	260120	092707	176.750	12.448067	-57.245418	176.800	-0.590	0.510	1.240	176.760	-0.900	1.700																			1580030827.0	8.37	15.50
26/01/2020 09:27:08	26012020	260120	092708	176.820	12.448027	-57.245422	176.910	-0.270	0.320	0.800	176.850	-1.100	1.300																			1580030828.0	8.83	16.35
26/01/2020 09:27:09	26012020	260120	092709	177.010	12.447982	-57.245422	177.120	0.200	-0.110	0.280	177.060	-1.500	0.700																			1580030829.0	9.34	17.30
26/01/2020 09:27:10	26012020	260120	092710	177.250	12.447938	-57.245420	177.340	0.440	-0.380	-0.170	177.290	-1.800	0.300																			1580030830.0	9.34	17.30
26/01/2020 09:27:11	26012020	260120	092711	177.430	12.447897	-57.245418	177.480	0.340	-0.450	-0.310	177.450	-1.900	0.100																			1580030831.0	9.04	16.74
26/01/2020 09:27:12	26012020	260120	092712	177.490	12.447857	-57.245420	177.500	0.050	-0.410	0.040	177.490	-1.800	0.400																			1580030832.0	8.85	16.39
26/01/2020 09:27:13	26012020	260120	092713	177.450	12.447815	-57.245423	177.430	-0.190	-0.270	0.670	177.420	-1.700	1.100																			1580030833.0	8.80	16.30
26/01/2020 09:27:14	26012020	260120	092714	177.300	12.447775	-57.245430	177.300	-0.270	-0.190	1.400	177.280	-1.600	1.800																			1580030834.0	8.83	16.35
26/01/2020 09:27:15	26012020	260120	092715	177.170	12.447733	-57.245435	177.190	-0.150	-0.290	2.030	177.150	-1.700	2.400																			1580030835.0	9.05	16.76
26/01/2020 09:27:16	26012020	260120	092716	177.070	12.447690	-57.245440	177.110	0.050	-0.400	2.440	177.050	-1.800	2.800																			1580030836.0	9.28	17.19
26/01/2020 09:27:17	26012020	260120	092717	176.990	12.447647	-57.245445	177.050	0.180	-0.330	2.540	176.980	-1.700	3.000																			1580030837.0	9.22	17.08
26/01/2020 09:27:18	26012020	260120	092718	176.990	12.447605	-57.245447	177.100	0.100	-0.020	2.290	177.010	-1.500	2.700																			1580030838.0	8.96	16.59
26/01/2020 09:27:19	26012020	260120	092719	177.120	12.447565	-57.245447	177.210	-0.110	0.280	1.800	177.140	-1.100	2.300																			1580030839.0	8.63	15.98
26/01/2020 09:27:20	26012020	260120	092720	177.200	12.447525	-57.245447	177.270	-0.240	0.260	1.320	177.220	-1.100	1.800																			1580030840.0	8.65	16.02
26/01/2020 09:27:21	26012020	260120	092721	177.250	12.447483	-57.245448	177.280	-0.130	-0.100	0.840	177.250	-1.500	1.300																			1580030841.0	9.00	16.67
26/01/2020 09:27:22	26012020	260120	092722	177.210	12.447440	-57.245448	177.210	0.110	-0.460	0.460	177.190	-1.900	0.900																			1580030842.0	9.26	17.15
26/01/2020 09:27:23	26012020	260120	092723	177.110	12.447398	-57.245448	177.100	0.220	-0.540	0.200	177.090	-2.000	0.700																			1580030843.0	9.16	16.96
26/01/2020 09:27:24	26012020	260120	092724	177.040	12.447357	-57.245448	177.050	0.120	-0.350	0.150	177.030	-1.800	0.600																			1580030844.0	8.83	16.35
26/01/2020 09:27:25	26012020	260120	092725	177.030	12.447317	-57.245452	177.060	-0.060	-0.080	0.240	177.030	-1.500	0.700																			1580030845.0	8.60	15.93
26/01/2020 09:27:26	26012020	260120	092726	177.100	12.447277	-57.245455	177.150	-0.100	0.040	0.390	177.110	-1.400	0.800																			1580030846.0	8.63	15.98
26/01/2020 09:27:27	26012020	260120	092727	177.210	12.447235	-57.245458	177.300	0.020	-0.090	0.630	177.240	-1.500	1.000																			1580030847.0	8.85	16.39
26/01/2020 09:27:28	26012020	260120	092728	177.380	12.447193	-57.245462	177.510	0.180	-0.330	0.870	177.420	-1.700	1.300																			1580030848.0	9.12	16.89
26/01/2020 09:27:29	26012020	260120	092729	177.570	12.447152	-57.245465	177.670	0.230	-0.460	1.150	177.600	-1.900	1.600																			1580030849.0	9.16	16.96
26/01/2020 09:27:30	26012020	260120	092730	177.600	12.447110	-57.245468	177.640	0.160	-0.420	1.510	177.580	-1.800	1.900																			1580030850.0	9.00	16.67
26/01/2020 09:27:31	26012020	260120	092731	177.500	12.447068	-57.245472	177.540	0.050	-0.260	1.770	177.480	-1.700	2.200																			1580030851.0	8.88	16.45
26/01/2020 09:27:32	26012020	260120	092732	177.410	12.447027	-57.245473	177.470	-0.050	-0.150	1.960	177.400	-1.600	2.400																			1580030852.0	8.83	16.35
26/01/2020 09:27:33	26012020	260120	092733	177.360	12.446985	-57.245475	177.440	-0.160	-0.160	2.000	177.360	-1.600	2.400																			1580030853.0	8.98	16.63
26/01/2020 09:27:34	26012020	260120	092734	177.350	12.446943	-57.245477	177.420	-0.260	-0.160	1.920	177.340	-1.600	2.400																			1580030854.0	9.05	16.76
26/01/2020 09:27:35	26012020	260120	092735	177.270	12.446902	-57.245480	177.310	-0.270	-0.100	1.740	177.250	-1.500	2.200																			1580030855.0	9.01	16.69
26/01/2020 09:27:36	26012020	260120	092736	177.140	12.446860	-57.245482	177.160	-0.180	-0.080	1.440	177.110	-1.500	1.900																			1580030856.0	8.93	16.54
26/01/2020 09:27:37	26012020	260120	092737	177.010	12.446818	-57.245483	177.050	-0.030	-0.180	1.090	177.000	-1.600	1.500																			1580030857.0	9.02	16.71
26/01/2020 09:27:38	26012020	260120	092738	177.000	12.446775	-57.245485	177.110	0.050	-0.200	0.700	177.020	-1.600	1.200																			1580030858.0	9.10	16.85
26/01/2020 09:27:39	26012020	260120	092739	177.230	12.446735	-57.245485	177.400	-0.000	-0.020	0.300	177.300	-1.400	0.800																			1580030859.0	8.86	16.41
26/01/2020 09:27:40	26012020	260120	092740	177.550	12.446695	-57.245487	177.670	-0.090	0.090	0.070	177.600	-1.300	0.500																			1580030860.0	8.58	15.89
26/01/2020 09:27:41	26012020	260120	092741	177.730	12.446653	-57.245488	177.790	-0.020	-0.130	0.090	177.750	-1.500	0.500																			1580030861.0	8.76	16.22
26/01/2020 09:27:42	26012020	260120	092742	177.740	12.446612	-57.245492	177.760	0.210	-0.490	0.320	177.730	-1.900	0.700																			1580030862.0	9.15	16.95
26/01/2020 09:27:43	26012020	260120	092743	177.680	12.446568	-57.245495	177.740	0.380	-0.550	0.590	177.680	-2.000	1.000																			1580030863.0	9.23	17.09
26/01/2020 09:27:44	26012020	260120	092744	177.720	12.446528	-57.245497	177.810	0.310	-0.250	0.790	177.720	-1.800	1.100																			1580030864.0	8.84	16.37
26/01/2020 09:27:45	26012020	260120	092745	177.800	12.446488	-57.245498	177.870	0.070	0.020	1.030	177.810	-1.400	1.400																			1580030865.0	8.55	15.83
26/01/2020 09:27:46	26012020	260120	092746	177.830	12.446447	-57.245502	177.910	-0.130	0.010	1.420	177.840	-1.400	1.800																			1580030866.0	8.74	16.19
26/01/2020 09:27:47	26012020	260120	092747	177.830	12.446405	-57.245507	177.890	-0.160	-0.140	1.850	177.820	-1.500	2.200																			1580030867.0	9.05	16.76
26/01/2020 09:27:48	26012020	260120	092748	177.720	12.446363	-57.245512	177.750	-0.020	-0.300	2.110	177.690	-1.700	2.500																			1580030868.0	9.14	16.93
26/01/2020 09:27:49	26012020	260120	092749	177.580	12.446322	-57.245517	177.630	0.160	-0.410	2.090	177.560	-1.800	2.500																			1580030869.0	9.11	16.87
26/01/2020 09:27:50	26012020	260120	092750	177.500	12.446278	-57.245518	177.560	0.210	-0.430	1.900	177.490	-1.800	2.300																			1580030870.0	9.04	16.74
26/01/2020 09:27:51	26012020	260120	092751	177.470	12.446238	-57.245518	177.550	0.080	-0.340	1.530	177.470	-1.800	2.000																			1580030871.0	8.93	16.54
26/01/2020 09:27:52	26012020	260120	092752	177.510	12.446197	-57.245518	177.600	-0.150	-0.220	1.030	177.520	-1.600	1.500																			1580030872.0	8.85	16.39
26/01/2020 09:27:53	26012020	260120	092753	177.600	12.446155	-57.245520	177.700	-0.350	-0.100	0.560	177.620	-1.500	1.000																			1580030873.0	8.84	16.37
26/01/2020 09:27:54	26012020	260120	092754	177.670	12.446113	-57.245520	177.710	-0.410	-0.100	0.240	177.670	-1.500	0.700																			1580030874.0	8.87	16.43
26/01/2020 09:27:55	26012020	260120	092755	177.600	12.446072	-57.245522	177.590	-0.300	-0.290	0.190	177.560	-1.700	0.600																			1580030875.0	9.12	16.89
26/01/2020 09:27:56	26012020	260120	092756	177.470	12.446028	-57.245525	177.510	-0.120	-0.320	0.350	177.460	-1.700	0.800																			1580030876.0	9.32	17.26
26/01/2020 09:27:57	26012020	260120	092757	177.490	12.445987	-57.245528	177.590	-0.030	-0.040	0.510	177.510	-1.500	0.900																			1580030877.0	9.08	16.82
26/01/2020 09:27:58	26012020	260120	092758	177.640	12.445947	-57.245533	177.760	0.010	0.290	0.600	177.680	-1.100	1.000																			1580030878.0	8.69	16.09
26/01/2020 09:27:59	26012020	260120	092759	177.830	12.445907	-57.245537	177.930	0.040	0.350	0.730	177.850	-1.100	1.100																			1580030879.0	8.62	15.96
26/01/2020 09:28:00	26012020	260120	092800	177.920	12.445865	-57.245540	177.980	0.150	0.070	1.010	177.920	-1.300	1.400	1013.90	25.60	25.60	19.50	19.70	-1.00	69.00	69.00	407.00	25.30	316.00	9.50	106.00	7.00	15	3222.00	27.40	27.40	1580030880.0	8.86	16.41
26/01/2020 09:28:01	26012020	260120	092801	177.890	12.445823	-57.245543	177.920	0.320	-0.360	1.300	177.880	-1.800	1.700																			1580030881.0	9.10	16.85
26/01/2020 09:28:02	26012020	260120	092802	177.770	12.445780	-57.245545	177.770	0.400	-0.700	1.620	177.730	-2.100	2.000																			1580030882.0	9.17	16.98
26/01/2020 09:28:03	26012020	260120	092803	177.580	12.445738	-57.245548	177.600	0.340	-0.750	1.830	177.550	-2.200	2.300																			1580030883.0	9.08	16.82
26/01/2020 09:28:04	26012020	260120	092804	177.490	12.445697	-57.245550	177.570	0.120	-0.490	1.750	177.490	-1.900	2.200																			1580030884.0	8.84	16.37
26/01/2020 09:28:05	26012020	260120	092805	177.530	12.445657	-57.245553	177.620	-0.140	-0.220	1.570	177.550	-1.600	2.000																			1580030885.0	8.61	15.95
26/01/2020 09:28:06	26012020	260120	092806	177.580	12.445617	-57.245555	177.660	-0.270	-0.180	1.340	177.590	-1.600	1.800																			1580030886.0	8.81	16.32
26/01/2020 09:28:07	26012020	260120	092807	177.640	12.445573	-57.245557	177.740	-0.240	-0.240	1.030	177.660	-1.700	1.500																			1580030887.0	9.10	16.85
26/01/2020 09:28:08	26012020	260120	092808	177.690	12.445532	-57.245558	177.750	-0.110	-0.230	0.790	177.700	-1.700	1.200																			1580030888.0	9.18	17.00
26/01/2020 09:28:09	26012020	260120	092809	177.720	12.445488	-57.245560	177.800	-0.060	-0.100	0.630	177.730	-1.500	1.100																			1580030889.0	9.08	16.82
26/01/2020 09:28:10	26012020	260120	092810	177.810	12.445448	-57.245560	177.910	-0.140	0.060	0.530	177.840	-1.400	1.000																			1580030890.0	8.91	16.50
26/01/2020 09:28:11	26012020	260120	092811	177.880	12.445407	-57.245562	177.910	-0.270	0.120	0.600	177.870	-1.300	1.000																			1580030891.0	8.86	16.41
26/01/2020 09:28:12	26012020	260120	092812	177.770	12.445365	-57.245567	177.740	-0.280	0.010	0.910	177.730	-1.400	1.300																			1580030892.0	8.96	16.59
26/01/2020 09:28:13	26012020	260120	092813	177.510	12.445323	-57.245572	177.470	-0.100	-0.170	1.280	177.460	-1.600	1.700																			1580030893.0	9.16	16.96
26/01/2020 09:28:14	26012020	260120	092814	177.280	12.445280	-57.245577	177.290	0.170	-0.210	1.500	177.250	-1.600	1.900																			1580030894.0	9.16	16.96
26/01/2020 09:28:15	26012020	260120	092815	177.210	12.445240	-57.245580	177.300	0.290	-0.080	1.400	177.220	-1.500	1.800																			1580030895.0	8.89	16.46
26/01/2020 09:28:16	26012020	260120	092816	177.340	12.445198	-57.245582	177.490	0.200	0.010	1.120	177.380	-1.400	1.600																			1580030896.0	8.64	16.00
26/01/2020 09:28:17	26012020	260120	092817	177.560	12.445158	-57.245583	177.680	0.050	-0.160	0.820	177.600	-1.600	1.300																			1580030897.0	8.66	16.04
26/01/2020 09:28:18	26012020	260120	092818	177.720	12.445117	-57.245585	177.830	0.050	-0.550	0.640	177.740	-1.900	1.100																			1580030898.0	8.97	16.61
26/01/2020 09:28:19	26012020	260120	092819	177.870	12.445075	-57.245587	177.970	0.160	-0.840	0.590	177.900	-2.200	1.000																			1580030899.0	9.19	17.02
26/01/2020 09:28:20	26012020	260120	092820	177.980	12.445032	-57.245588	178.050	0.220	-0.830	0.620	177.990	-2.300	1.100																			1580030900.0	9.12	16.89
26/01/2020 09:28:21	26012020	260120	092821	178.010	12.444990	-57.245590	178.050	0.100	-0.540	0.700	178.000	-2.000	1.100																			1580030901.0	8.94	16.56
26/01/2020 09:28:22	26012020	260120	092822	177.980	12.444950	-57.245592	178.020	-0.160	-0.140	0.810	177.970	-1.600	1.200																			1580030902.0	8.79	16.28
26/01/2020 09:28:23	26012020	260120	092823	177.910	12.444908	-57.245593	177.920	-0.390	0.150	1.000	177.880	-1.300	1.400																			1580030903.0	8.81	16.32
26/01/2020 09:28:24	26012020	260120	092824	177.730	12.444867	-57.245597	177.700	-0.420	0.220	1.250	177.680	-1.200	1.700																			1580030904.0	9.02	16.71
26/01/2020 09:28:25	26012020	260120	092825	177.450	12.444823	-57.245600	177.440	-0.270	0.120	1.510	177.410	-1.300	1.900																			1580030905.0	9.26	17.15
26/01/2020 09:28:26	26012020	260120	092826	177.280	12.444780	-57.245605	177.330	-0.060	0.090	1.710	177.260	-1.300	2.100																			1580030906.0	9.34	17.30
26/01/2020 09:28:27	26012020	260120	092827	177.280	12.444738	-57.245608	177.400	0.080	0.190	1.680	177.300	-1.200	2.100																			1580030907.0	9.05	16.76
26/01/2020 09:28:28	26012020	260120	092828	177.400	12.444698	-57.245612	177.510	0.110	0.210	1.540	177.420	-1.200	2.000																			1580030908.0	8.73	16.17
26/01/2020 09:28:29	26012020	260120	092829	177.490	12.444658	-57.245613	177.550	0.140	-0.020	1.420	177.490	-1.400	1.900																			1580030909.0	8.76	16.22
26/01/2020 09:28:30	26012020	260120	092830	177.460	12.444617	-57.245617	177.500	0.210	-0.350	1.310	177.450	-1.700	1.700																			1580030910.0	8.94	16.56
26/01/2020 09:28:31	26012020	260120	092831	177.390	12.444575	-57.245620	177.420	0.280	-0.570	1.140	177.380	-2.000	1.600																			1580030911.0	8.97	16.61
26/01/2020 09:28:32	26012020	260120	092832	177.350	12.444533	-57.245622	177.400	0.300	-0.580	0.880	177.360	-2.000	1.300																			1580030912.0	8.84	16.37
26/01/2020 09:28:33	26012020	260120	092833	177.410	12.444493	-57.245623	177.510	0.250	-0.450	0.480	177.450	-1.900	1.000																			1580030913.0	8.66	16.04
26/01/2020 09:28:34	26012020	260120	092834	177.600	12.444453	-57.245623	177.690	0.150	-0.360	0.060	177.630	-1.800	0.500																			1580030914.0	8.60	15.93
26/01/2020 09:28:35	26012020	260120	092835	177.740	12.444412	-57.245623	177.800	0.050	-0.470	-0.100	177.760	-1.900	0.300																			1580030915.0	8.80	16.30
26/01/2020 09:28:36	26012020	260120	092836	177.840	12.444370	-57.245623	177.890	-0.050	-0.630	-0.000	177.850	-2.000	0.400																			1580030916.0	9.12	16.89
26/01/2020 09:28:37	26012020	260120	092837	177.910	12.444327	-57.245625	177.950	-0.190	-0.630	0.330	177.920	-2.100	0.700																			1580030917.0	9.23	17.09
26/01/2020 09:28:38	26012020	260120	092838	177.950	12.444285	-57.245628	177.990	-0.380	-0.470	0.860	177.960	-1.900	1.300																			1580030918.0	9.20	17.04
26/01/2020 09:28:39	26012020	260120	092839	177.920	12.444242	-57.245633	177.940	-0.540	-0.210	1.520	177.900	-1.600	1.900																			1580030919.0	9.19	17.02
26/01/2020 09:28:40	26012020	260120	092840	177.770	12.444200	-57.245638	177.770	-0.550	0.050	2.190	177.730	-1.400	2.600																			1580030920.0	9.23	17.09
26/01/2020 09:28:41	26012020	260120	092841	177.630	12.444157	-57.245645	177.680	-0.420	0.330	2.630	177.610	-1.100	3.000																			1580030921.0	9.26	17.15
26/01/2020 09:28:42	26012020	260120	092842	177.600	12.444115	-57.245650	177.690	-0.220	0.610	2.640	177.610	-0.800	3.100																			1580030922.0	9.10	16.85
26/01/2020 09:28:43	26012020	260120	092843	177.670	12.444073	-57.245653	177.750	0.040	0.680	2.190	177.680	-0.700	2.700																			1580030923.0	8.87	16.43
26/01/2020 09:28:44	26012020	260120	092844	177.720	12.444032	-57.245653	177.770	0.320	0.430	1.440	177.730	-1.000	1.900																			1580030924.0	8.87	16.43
26/01/2020 09:28:45	26012020	260120	092845	177.760	12.443990	-57.245652	177.810	0.510	0.080	0.600	177.770	-1.300	1.100																			1580030925.0	8.96	16.59
26/01/2020 09:28:46	26012020	260120	092846	177.790	12.443950	-57.245650	177.820	0.550	-0.280	-0.070	177.790	-1.700	0.400																			1580030926.0	8.83	16.35
26/01/2020 09:28:47	26012020	260120	092847	177.800	12.443908	-57.245648	177.820	0.460	-0.600	-0.450	177.810	-2.000	0.000																			1580030927.0	8.76	16.22
26/01/2020 09:28:48	26012020	260120	092848	177.830	12.443868	-57.245650	177.830	0.300	-0.810	-0.490	177.830	-2.200	-0.100																			1580030928.0	8.73	16.17
26/01/2020 09:28:49	26012020	260120	092849	177.830	12.443828	-57.245653	177.820	0.150	-0.920	-0.170	177.820	-2.300	0.200																			1580030929.0	8.76	16.22
26/01/2020 09:28:50	26012020	260120	092850	177.790	12.443787	-57.245658	177.800	0.070	-0.920	0.310	177.790	-2.300	0.700																			1580030930.0	8.89	16.46
26/01/2020 09:28:51	26012020	260120	092851	177.810	12.443745	-57.245663	177.880	-0.000	-0.770	0.800	177.840	-2.200	1.200																			1580030931.0	9.02	16.71
26/01/2020 09:28:52	26012020	260120	092852	177.980	12.443703	-57.245668	178.090	-0.140	-0.490	1.170	178.030	-1.900	1.600																			1580030932.0	9.02	16.71
26/01/2020 09:28:53	26012020	260120	092853	178.270	12.443662	-57.245672	178.380	-0.320	-0.170	1.340	178.320	-1.600	1.800																			1580030933.0	8.99	16.65
26/01/2020 09:28:54	26012020	260120	092854	178.480	12.443620	-57.245675	178.540	-0.440	-0.010	1.510	178.500	-1.400	1.900																			1580030934.0	9.04	16.74
26/01/2020 09:28:55	26012020	260120	092855	178.470	12.443577	-57.245678	178.460	-0.410	-0.050	1.770	178.440	-1.400	2.200																			1580030935.0	9.28	17.19
26/01/2020 09:28:56	26012020	260120	092856	178.250	12.443533	-57.245682	178.190	-0.280	-0.100	2.130	178.190	-1.500	2.500																			1580030936.0	9.51	17.61
26/01/2020 09:28:57	26012020	260120	092857	177.950	12.443488	-57.245685	177.900	-0.180	0.100	2.350	177.890	-1.300	2.800																			1580030937.0	9.44	17.48
26/01/2020 09:28:58	26012020	260120	092858	177.750	12.443447	-57.245687	177.770	-0.160	0.540	2.230	177.740	-0.900	2.700																			1580030938.0	9.00	16.67
26/01/2020 09:28:59	26012020	260120	092859	177.740	12.443407	-57.245690	177.810	-0.160	0.770	1.770	177.760	-0.600	2.200																			1580030939.0	8.63	15.98
26/01/2020 09:29:00	26012020	260120	092900	177.880	12.443367	-57.245690	177.970	-0.030	0.520	1.100	177.910	-0.900	1.600	1013.90	25.50	25.60	19.40	19.50	-1.00	69.00	69.00	405.00	25.30	318.00	9.10	107.00	6.50	14	3299.00	27.40	27.40	1580030940.0	8.73	16.17
26/01/2020 09:29:01	26012020	260120	092901	178.060	12.443325	-57.245690	178.120	0.270	-0.050	0.420	178.080	-1.400	0.900																			1580030941.0	9.03	16.72
26/01/2020 09:29:02	26012020	260120	092902	178.170	12.443282	-57.245690	178.180	0.570	-0.560	-0.060	178.180	-1.900	0.400																			1580030942.0	9.13	16.91
26/01/2020 09:29:03	26012020	260120	092903	178.220	12.443240	-57.245692	178.250	0.680	-0.760	-0.400	178.240	-2.200	0.100																			1580030943.0	8.94	16.56
26/01/2020 09:29:04	26012020	260120	092904	178.350	12.443200	-57.245692	178.400	0.510	-0.710	-0.540	178.380	-2.100	-0.100																			1580030944.0	8.64	16.00
26/01/2020 09:29:05	26012020	260120	092905	178.500	12.443160	-57.245693	178.540	0.190	-0.600	-0.340	178.520	-2.000	0.100																			1580030945.0	8.53	15.80
26/01/2020 09:29:06	26012020	260120	092906	178.620	12.443120	-57.245697	178.650	-0.080	-0.550	0.090	178.640	-2.000	0.500																			1580030946.0	8.73	16.17
26/01/2020 09:29:07	26012020	260120	092907	178.690	12.443078	-57.245703	178.730	-0.210	-0.500	0.710	178.700	-1.900	1.100																			1580030947.0	8.98	16.63
26/01/2020 09:29:08	26012020	260120	092908	178.740	12.443037	-57.245710	178.800	-0.210	-0.430	1.400	178.760	-1.800	1.800																			1580030948.0	9.15	16.95
26/01/2020 09:29:09	26012020	260120	092909	178.810	12.442995	-57.245715	178.880	-0.150	-0.310	1.880	178.830	-1.700	2.300																			1580030949.0	9.19	17.02
26/01/2020 09:29:10	26012020	260120	092910	178.850	12.442952	-57.245720	178.900	-0.100	-0.250	2.130	178.850	-1.700	2.500																			1580030950.0	9.16	16.96
26/01/2020 09:29:11	26012020	260120	092911	178.830	12.442908	-57.245723	178.860	-0.170	-0.240	2.280	178.830	-1.700	2.700																			1580030951.0	9.26	17.15
26/01/2020 09:29:12	26012020	260120	092912	178.800	12.442867	-57.245727	178.840	-0.310	-0.090	2.230	178.790	-1.500	2.700																			1580030952.0	9.29	17.21
26/01/2020 09:29:13	26012020	260120	092913	178.780	12.442823	-57.245730	178.820	-0.380	0.150	1.940	178.780	-1.300	2.400																			1580030953.0	9.07	16.80
26/01/2020 09:29:14	26012020	260120	092914	178.790	12.442782	-57.245732	178.830	-0.290	0.260	1.450	178.800	-1.200	1.900																			1580030954.0	9.00	16.67
26/01/2020 09:29:15	26012020	260120	092915	178.860	12.442740	-57.245732	178.910	-0.080	0.260	0.820	178.890	-1.200	1.300																			1580030955.0	9.07	16.80
26/01/2020 09:29:16	26012020	260120	092916	178.980	12.442698	-57.245732	179.030	0.130	0.240	0.200	179.020	-1.200	0.700																			1580030956.0	9.03	16.72
26/01/2020 09:29:17	26012020	260120	092917	179.170	12.442657	-57.245732	179.210	0.270	0.170	-0.360	179.210	-1.200	0.100																			1580030957.0	8.91	16.50
26/01/2020 09:29:18	26012020	260120	092918	179.360	12.442615	-57.245732	179.360	0.290	0.000	-0.600	179.390	-1.400	-0.200																			1580030958.0	8.80	16.30
26/01/2020 09:29:19	26012020	260120	092919	179.450	12.442575	-57.245735	179.410	0.240	-0.350	-0.400	179.450	-1.700	0.000																			1580030959.0	8.85	16.39
26/01/2020 09:29:20	26012020	260120	092920	179.440	12.442532	-57.245740	179.400	0.170	-0.680	0.080	179.430	-2.100	0.500																			1580030960.0	9.07	16.80
26/01/2020 09:29:21	26012020	260120	092921	179.390	12.442490	-57.245747	179.350	0.140	-0.780	0.690	179.370	-2.200	1.100																			1580030961.0	9.07	16.80
26/01/2020 09:29:22	26012020	260120	092922	179.360	12.442450	-57.245753	179.380	0.120	-0.680	1.260	179.370	-2.100	1.600																			1580030962.0	8.96	16.59
26/01/2020 09:29:23	26012020	260120	092923	179.420	12.442408	-57.245760	179.470	0.030	-0.480	1.680	179.440	-1.900	2.100																			1580030963.0	8.87	16.43
26/01/2020 09:29:24	26012020	260120	092924	179.470	12.442368	-57.245765	179.520	-0.100	-0.360	1.940	179.480	-1.800	2.300																			1580030964.0	8.91	16.50
26/01/2020 09:29:25	26012020	260120	092925	179.510	12.442325	-57.245770	179.560	-0.170	-0.350	2.040	179.510	-1.800	2.500																			1580030965.0	9.15	16.95
26/01/2020 09:29:26	26012020	260120	092926	179.580	12.442283	-57.245775	179.680	-0.160	-0.200	1.840	179.610	-1.600	2.300																			1580030966.0	9.26	17.15
26/01/2020 09:29:27	26012020	260120	092927	179.740	12.442240	-57.245777	179.840	-0.130	0.080	1.430	179.780	-1.300	1.900																			1580030967.0	9.05	16.76
26/01/2020 09:29:28	26012020	260120	092928	179.870	12.442198	-57.245778	179.920	-0.090	0.180	0.930	179.890	-1.200	1.400																			1580030968.0	8.93	16.54
26/01/2020 09:29:29	26012020	260120	092929	179.940	12.442157	-57.245778	179.960	-0.020	0.060	0.410	179.950	-1.300	0.900																			1580030969.0	9.14	16.93
26/01/2020 09:29:30	26012020	260120	092930	179.960	12.442113	-57.245778	179.960	0.020	-0.040	0.040	179.960	-1.400	0.500																			1580030970.0	9.27	17.17
26/01/2020 09:29:31	26012020	260120	092931	179.950	12.442072	-57.245780	179.940	-0.030	-0.040	-0.040	179.940	-1.500	0.400																			1580030971.0	9.09	16.83
26/01/2020 09:29:32	26012020	260120	092932	179.870	12.442030	-57.245785	179.810	-0.050	-0.140	0.170	179.840	-1.500	0.600																			1580030972.0	8.96	16.59
26/01/2020 09:29:33	26012020	260120	092933	179.680	12.441988	-57.245790	179.600	0.030	-0.320	0.570	179.630	-1.700	1.000																			1580030973.0	9.14	16.93
26/01/2020 09:29:34	26012020	260120	092934	179.500	12.441945	-57.245795	179.490	0.120	-0.330	1.030	179.480	-1.700	1.400																			1580030974.0	9.24	17.11
26/01/2020 09:29:35	26012020	260120	092935	179.500	12.441903	-57.245802	179.560	0.100	-0.100	1.370	179.520	-1.500	1.800																			1580030975.0	8.96	16.59
26/01/2020 09:29:36	26012020	260120	092936	179.610	12.441863	-57.245808	179.680	-0.000	0.030	1.550	179.630	-1.400	2.000																			1580030976.0	8.74	16.19
26/01/2020 09:29:37	26012020	260120	092937	179.680	12.441823	-57.245815	179.740	-0.040	-0.110	1.660	179.690	-1.500	2.100																			1580030977.0	8.87	16.43
26/01/2020 09:29:38	26012020	260120	092938	179.740	12.441780	-57.245820	179.810	0.050	-0.380	1.600	179.760	-1.800	2.000																			1580030978.0	9.16	16.96
26/01/2020 09:29:39	26012020	260120	092939	179.890	12.441738	-57.245823	179.980	0.160	-0.510	1.310	179.920	-1.900	1.800																			1580030979.0	9.18	17.00
26/01/2020 09:29:40	26012020	260120	092940	180.100	12.441697	-57.245825	180.190	0.140	-0.490	0.890	180.140	-1.900	1.300																			1580030980.0	9.05	16.76
26/01/2020 09:29:41	26012020	260120	092941	180.290	12.441655	-57.245827	180.340	-0.010	-0.370	0.540	180.320	-1.800	1.000																			1580030981.0	8.90	16.48
26/01/2020 09:29:42	26012020	260120	092942	180.360	12.441613	-57.245828	180.340	-0.140	-0.270	0.410	180.350	-1.700	0.900																			1580030982.0	8.87	16.43
26/01/2020 09:29:43	26012020	260120	092943	180.260	12.441572	-57.245832	180.190	-0.130	-0.270	0.410	180.230	-1.700	0.800																			1580030983.0	9.01	16.69
26/01/2020 09:29:44	26012020	260120	092944	180.050	12.441528	-57.245835	179.960	-0.040	-0.330	0.580	179.990	-1.700	1.000																			1580030984.0	9.23	17.09
26/01/2020 09:29:45	26012020	260120	092945	179.800	12.441485	-57.245840	179.750	-0.010	-0.290	0.960	179.760	-1.700	1.400																			1580030985.0	9.35	17.32
26/01/2020 09:29:46	26012020	260120	092946	179.650	12.441443	-57.245845	179.650	-0.060	-0.040	1.280	179.630	-1.500	1.700																			1580030986.0	9.25	17.13
26/01/2020 09:29:47	26012020	260120	092947	179.610	12.441402	-57.245852	179.630	-0.090	0.280	1.430	179.600	-1.200	1.900																			1580030987.0	8.97	16.61
26/01/2020 09:29:48	26012020	260120	092948	179.660	12.441360	-57.245857	179.730	-0.040	0.370	1.460	179.680	-1.000	1.900																			1580030988.0	8.93	16.54
26/01/2020 09:29:49	26012020	260120	092949	179.810	12.441318	-57.245862	179.900	0.090	0.210	1.380	179.840	-1.200	1.800																			1580030989.0	9.04	16.74
26/01/2020 09:29:50	26012020	260120	092950	179.960	12.441277	-57.245867	180.040	0.210	-0.090	1.220	179.990	-1.500	1.700																			1580030990.0	9.17	16.98
26/01/2020 09:29:51	26012020	260120	092951	180.130	12.441233	-57.245868	180.210	0.220	-0.300	0.970	180.170	-1.700	1.400																			1580030991.0	9.13	16.91
26/01/2020 09:29:52	26012020	260120	092952	180.290	12.441192	-57.245872	180.300	0.080	-0.370	0.780	180.300	-1.800	1.200																			1580030992.0	8.90	16.48
26/01/2020 09:29:53	26012020	260120	092953	180.260	12.441152	-57.245873	180.200	-0.090	-0.480	0.730	180.230	-1.900	1.200																			1580030993.0	8.79	16.28
26/01/2020 09:29:54	26012020	260120	092954	180.090	12.441110	-57.245878	180.040	-0.170	-0.660	0.820	180.060	-2.100	1.200																			1580030994.0	9.01	16.69
26/01/2020 09:29:55	26012020	260120	092955	180.030	12.441068	-57.245883	180.050	-0.170	-0.640	0.830	180.050	-2.000	1.300																			1580030995.0	9.16	16.96
26/01/2020 09:29:56	26012020	260120	092956	180.120	12.441027	-57.245888	180.150	-0.130	-0.390	0.800	180.140	-1.800	1.200																			1580030996.0	8.97	16.61
26/01/2020 09:29:57	26012020	260120	092957	180.200	12.440985	-57.245893	180.210	-0.030	-0.220	0.740	180.210	-1.600	1.200																			1580030997.0	8.88	16.45
26/01/2020 09:29:58	26012020	260120	092958	180.250	12.440943	-57.245897	180.250	0.110	-0.200	0.680	180.250	-1.600	1.100																			1580030998.0	9.04	16.74
26/01/2020 09:29:59	26012020	260120	092959	180.260	12.440900	-57.245900	180.250	0.190	-0.230	0.700	180.260	-1.600	1.100																			1580030999.0	9.25	17.13
26/01/2020 09:30:00	26012020	260120	093000	180.260	12.440857	-57.245903	180.270	0.090	-0.190	0.820	180.270	-1.600	1.200	1013.90	25.50	25.60	19.50	19.60	-1.00	69.00	69.00	404.00	25.30	315.00	9.10	105.00	6.70	15	3229.00	27.40	27.40	1580031000.0	9.29	17.21
26/01/2020 09:30:01	26012020	260120	093001	180.290	12.440815	-57.245908	180.300	-0.130	-0.070	1.030	180.300	-1.500	1.400																			1580031001.0	9.19	17.02
26/01/2020 09:30:02	26012020	260120	093002	180.280	12.440773	-57.245913	180.250	-0.280	0.070	1.320	180.260	-1.400	1.700																			1580031002.0	9.14	16.93
26/01/2020 09:30:03	26012020	260120	093003	180.180	12.440730	-57.245920	180.170	-0.240	0.180	1.500	180.170	-1.200	1.900																			1580031003.0	9.14	16.93
26/01/2020 09:30:04	26012020	260120	093004	180.130	12.440688	-57.245927	180.160	-0.070	0.250	1.490	180.140	-1.200	1.900																			1580031004.0	9.08	16.82
26/01/2020 09:30:05	26012020	260120	093005	180.230	12.440647	-57.245930	180.290	0.100	0.200	1.220	180.250	-1.200	1.700																			1580031005.0	9.00	16.67
26/01/2020 09:30:06	26012020	260120	093006	180.350	12.440605	-57.245933	180.360	0.180	0.000	0.900	180.360	-1.400	1.400																			1580031006.0	8.95	16.58
26/01/2020 09:30:07	26012020	260120	093007	180.340	12.440563	-57.245935	180.290	0.190	-0.350	0.730	180.320	-1.700	1.200																			1580031007.0	9.00	16.67
26/01/2020 09:30:08	26012020	260120	093008	180.200	12.440522	-57.245938	180.140	0.170	-0.680	0.740	180.170	-2.100	1.200																			1580031008.0	9.13	16.91
26/01/2020 09:30:09	26012020	260120	093009	180.070	12.440480	-57.245943	180.050	0.110	-0.750	0.780	180.060	-2.200	1.200																			1580031009.0	9.11	16.87
26/01/2020 09:30:10	26012020	260120	093010	180.060	12.440438	-57.245948	180.060	0.010	-0.530	0.800	180.070	-2.000	1.200																			1580031010.0	8.89	16.46
26/01/2020 09:30:11	26012020	260120	093011	180.120	12.440398	-57.245953	180.130	-0.060	-0.350	0.740	180.130	-1.800	1.200																			1580031011.0	8.74	16.19
26/01/2020 09:30:12	26012020	260120	093012	180.150	12.440357	-57.245958	180.160	-0.040	-0.380	0.760	180.160	-1.800	1.200																			1580031012.0	8.98	16.63
26/01/2020 09:30:13	26012020	260120	093013	180.190	12.440313	-57.245962	180.210	-0.030	-0.440	0.820	180.210	-1.800	1.300																			1580031013.0	9.30	17.22
26/01/2020 09:30:14	26012020	260120	093014	180.280	12.440270	-57.245967	180.300	-0.110	-0.310	0.890	180.290	-1.700	1.300																			1580031014.0	9.31	17.24
26/01/2020 09:30:15	26012020	260120	093015	180.330	12.440228	-57.245970	180.340	-0.240	-0.030	0.980	180.330	-1.400	1.400																			1580031015.0	9.14	16.93
26/01/2020 09:30:16	26012020	260120	093016	180.290	12.440187	-57.245977	180.270	-0.300	0.210	1.200	180.280	-1.200	1.600																			1580031016.0	9.03	16.72
26/01/2020 09:30:17	26012020	260120	093017	180.190	12.440145	-57.245982	180.170	-0.170	0.250	1.470	180.170	-1.100	1.900																			1580031017.0	9.12	16.89
26/01/2020 09:30:18	26012020	260120	093018	180.080	12.440102	-57.245988	180.070	0.070	0.140	1.600	180.060	-1.200	2.000																			1580031018.0	9.29	17.21
26/01/2020 09:30:19	26012020	260120	093019	179.990	12.440058	-57.245992	180.020	0.210	0.060	1.570	179.990	-1.300	2.000																			1580031019.0	9.26	17.15
26/01/2020 09:30:20	26012020	260120	093020	180.070	12.440017	-57.245995	180.150	0.160	0.040	1.340	180.110	-1.400	1.800																			1580031020.0	9.05	16.76
26/01/2020 09:30:21	26012020	260120	093021	180.340	12.439977	-57.245998	180.440	0.010	-0.040	0.960	180.400	-1.400	1.400																			1580031021.0	8.79	16.28
26/01/2020 09:30:22	26012020	260120	093022	180.610	12.439935	-57.246002	180.630	-0.010	-0.430	0.730	180.630	-1.800	1.200																			1580031022.0	8.85	16.39
26/01/2020 09:30:23	26012020	260120	093023	180.630	12.439892	-57.246005	180.580	0.160	-0.920	0.650	180.610	-2.300	1.100																			1580031023.0	9.24	17.11
26/01/2020 09:30:24	26012020	260120	093024	180.540	12.439848	-57.246010	180.520	0.290	-0.970	0.570	180.530	-2.400	1.000																			1580031024.0	9.35	17.32
26/01/2020 09:30:25	26012020	260120	093025	180.530	12.439808	-57.246013	180.530	0.190	-0.500	0.480	180.530	-1.900	0.900																			1580031025.0	8.91	16.50
26/01/2020 09:30:26	26012020	260120	093026	180.560	12.439768	-57.246017	180.540	-0.080	0.070	0.450	180.560	-1.400	0.900																			1580031026.0	8.54	15.82
26/01/2020 09:30:27	26012020	260120	093027	180.570	12.439728	-57.246022	180.540	-0.300	0.270	0.570	180.560	-1.100	1.000																			1580031027.0	8.67	16.06
26/01/2020 09:30:28	26012020	260120	093028	180.530	12.439685	-57.246027	180.510	-0.290	0.030	0.890	180.520	-1.300	1.300																			1580031028.0	9.23	17.09
26/01/2020 09:30:29	26012020	260120	093029	180.520	12.439642	-57.246033	180.530	-0.140	-0.160	1.220	180.520	-1.600	1.600																			1580031029.0	9.60	17.78
26/01/2020 09:30:30	26012020	260120	093030	180.580	12.439598	-57.246042	180.610	-0.000	-0.110	1.450	180.600	-1.500	1.900																			1580031030.0	9.32	17.26
26/01/2020 09:30:31	26012020	260120	093031	180.660	12.439557	-57.246047	180.670	0.070	-0.020	1.490	180.670	-1.400	1.900																			1580031031.0	8.97	16.61
26/01/2020 09:30:32	26012020	260120	093032	180.670	12.439517	-57.246052	180.640	0.140	-0.140	1.420	180.670	-1.500	1.900																			1580031032.0	8.93	16.54
26/01/2020 09:30:33	26012020	260120	093033	180.650	12.439473	-57.246055	180.620	0.200	-0.410	1.230	180.650	-1.800	1.700																			1580031033.0	9.14	16.93
26/01/2020 09:30:34	26012020	260120	093034	180.610	12.439432	-57.246058	180.550	0.160	-0.620	1.040	180.590	-2.000	1.500																			1580031034.0	9.27	17.17
26/01/2020 09:30:35	26012020	260120	093035	180.550	12.439388	-57.246062	180.510	-0.010	-0.520	0.860	180.550	-1.900	1.300																			1580031035.0	9.20	17.04
26/01/2020 09:30:36	26012020	260120	093036	180.580	12.439347	-57.246067	180.580	-0.250	-0.190	0.690	180.590	-1.600	1.100																			1580031036.0	8.91	16.50
26/01/2020 09:30:37	26012020	260120	093037	180.660	12.439307	-57.246072	180.650	-0.330	0.030	0.550	180.680	-1.400	1.000																			1580031037.0	8.79	16.28
26/01/2020 09:30:38	26012020	260120	093038	180.750	12.439265	-57.246077	180.760	-0.170	0.040	0.410	180.780	-1.400	0.900																			1580031038.0	9.03	16.72
26/01/2020 09:30:39	26012020	260120	093039	180.900	12.439222	-57.246080	180.890	0.110	-0.010	0.270	180.920	-1.400	0.700																			1580031039.0	9.21	17.06
26/01/2020 09:30:40	26012020	260120	093040	180.970	12.439180	-57.246083	180.910	0.260	0.010	0.280	180.960	-1.400	0.700																			1580031040.0	9.11	16.87
26/01/2020 09:30:41	26012020	260120	093041	180.910	12.439138	-57.246087	180.830	0.210	0.040	0.500	180.900	-1.400	0.900																			1580031041.0	8.96	16.59
26/01/2020 09:30:42	26012020	260120	093042	180.840	12.439097	-57.246092	180.760	0.060	-0.020	0.900	180.810	-1.400	1.300																			1580031042.0	8.90	16.48
26/01/2020 09:30:43	26012020	260120	093043	180.700	12.439055	-57.246098	180.590	0.010	-0.270	1.440	180.660	-1.700	1.800																			1580031043.0	9.04	16.74
26/01/2020 09:30:44	26012020	260120	093044	180.440	12.439013	-57.246107	180.280	0.110	-0.570	2.000	180.370	-2.000	2.400																			1580031044.0	9.29	17.21
26/01/2020 09:30:45	26012020	260120	093045	180.120	12.438970	-57.246115	180.030	0.210	-0.660	2.290	180.080	-2.100	2.700																			1580031045.0	9.35	17.32
26/01/2020 09:30:46	26012020	260120	093046	179.980	12.438928	-57.246122	179.950	0.140	-0.500	2.210	179.980	-1.900	2.700																			1580031046.0	9.07	16.80
26/01/2020 09:30:47	26012020	260120	093047	179.970	12.438888	-57.246127	179.990	-0.060	-0.350	1.890	179.980	-1.800	2.400																			1580031047.0	8.91	16.50
26/01/2020 09:30:48	26012020	260120	093048	180.070	12.438847	-57.246130	180.120	-0.260	-0.220	1.350	180.110	-1.600	1.800																			1580031048.0	8.98	16.63
26/01/2020 09:30:49	26012020	260120	093049	180.310	12.438805	-57.246132	180.380	-0.350	-0.080	0.670	180.370	-1.500	1.200																			1580031049.0	9.00	16.67
26/01/2020 09:30:50	26012020	260120	093050	180.560	12.438763	-57.246133	180.580	-0.290	-0.100	0.110	180.590	-1.500	0.600																			1580031050.0	9.02	16.71
26/01/2020 09:30:51	26012020	260120	093051	180.680	12.438720	-57.246135	180.690	-0.130	-0.260	-0.170	180.700	-1.600	0.300																			1580031051.0	9.27	17.17
26/01/2020 09:30:52	26012020	260120	093052	180.760	12.438677	-57.246138	180.800	0.010	-0.220	-0.240	180.790	-1.600	0.200																			1580031052.0	9.36	17.33
26/01/2020 09:30:53	26012020	260120	093053	180.920	12.438633	-57.246142	180.950	0.040	0.100	-0.200	180.950	-1.300	0.200																			1580031053.0	9.03	16.72
26/01/2020 09:30:54	26012020	260120	093054	180.970	12.438593	-57.246147	180.930	0.050	0.250	0.130	180.950	-1.100	0.500																			1580031054.0	8.72	16.15
26/01/2020 09:30:55	26012020	260120	093055	180.790	12.438552	-57.246152	180.710	0.130	0.000	0.780	180.740	-1.400	1.200																			1580031055.0	9.03	16.72
26/01/2020 09:30:56	26012020	260120	093056	180.490	12.438508	-57.246158	180.420	0.200	-0.270	1.590	180.430	-1.700	2.000																			1580031056.0	9.44	17.48
26/01/2020 09:30:57	26012020	260120	093057	180.180	12.438467	-57.246167	180.130	0.160	-0.270	2.330	180.120	-1.700	2.700																			1580031057.0	9.34	17.30
26/01/2020 09:30:58	26012020	260120	093058	179.960	12.438425	-57.246177	179.970	0.060	-0.080	2.710	179.930	-1.500	3.100																			1580031058.0	9.00	16.67
26/01/2020 09:30:59	26012020	260120	093059	179.910	12.438385	-57.246183	179.990	0.030	-0.010	2.650	179.930	-1.400	3.100																			1580031059.0	8.79	16.28
26/01/2020 09:31:00	26012020	260120	093100	180.050	12.438343	-57.246188	180.140	0.120	-0.200	2.190	180.080	-1.600	2.700	1013.90	25.50	25.60	19.50	19.60	-1.00	69.00	69.00	402.00	25.30	313.00	8.70	102.00	6.50	14	3329.00	27.40	27.40	1580031060.0	8.88	16.45
26/01/2020 09:31:01	26012020	260120	093101	180.260	12.438302	-57.246192	180.350	0.220	-0.480	1.470	180.300	-1.900	2.000																			1580031061.0	9.10	16.85
26/01/2020 09:31:02	26012020	260120	093102	180.470	12.438260	-57.246193	180.550	0.220	-0.630	0.650	180.520	-2.000	1.200																			1580031062.0	9.11	16.87
26/01/2020 09:31:03	26012020	260120	093103	180.650	12.438218	-57.246193	180.680	0.100	-0.650	-0.050	180.680	-2.100	0.400																			1580031063.0	9.02	16.71
26/01/2020 09:31:04	26012020	260120	093104	180.750	12.438175	-57.246193	180.760	-0.030	-0.570	-0.510	180.760	-2.000	-0.000																			1580031064.0	9.02	16.71
26/01/2020 09:31:05	26012020	260120	093105	180.850	12.438133	-57.246195	180.850	-0.140	-0.320	-0.770	180.870	-1.700	-0.300																			1580031065.0	9.03	16.72
26/01/2020 09:31:06	26012020	260120	093106	180.900	12.438092	-57.246198	180.850	-0.220	-0.100	-0.670	180.890	-1.500	-0.200																			1580031066.0	8.95	16.58
26/01/2020 09:31:07	26012020	260120	093107	180.770	12.438050	-57.246203	180.670	-0.280	-0.100	-0.090	180.730	-1.500	0.300																			1580031067.0	9.12	16.89
26/01/2020 09:31:08	26012020	260120	093108	180.520	12.438007	-57.246210	180.450	-0.290	-0.180	0.740	180.470	-1.600	1.100																			1580031068.0	9.48	17.56
26/01/2020 09:31:09	26012020	260120	093109	180.310	12.437963	-57.246220	180.290	-0.250	-0.070	1.590	180.290	-1.500	2.000																			1580031069.0	9.60	17.78
26/01/2020 09:31:10	26012020	260120	093110	180.220	12.437920	-57.246230	180.240	-0.190	0.290	2.250	180.220	-1.100	2.700																			1580031070.0	9.28	17.19
26/01/2020 09:31:11	26012020	260120	093111	180.260	12.437880	-57.246238	180.300	-0.060	0.560	2.480	180.280	-0.800	2.900																			1580031071.0	8.91	16.50
26/01/2020 09:31:12	26012020	260120	093112	180.320	12.437840	-57.246243	180.330	0.160	0.420	2.360	180.330	-1.000	2.800																			1580031072.0	8.85	16.39
26/01/2020 09:31:13	26012020	260120	093113	180.350	12.437797	-57.246247	180.380	0.380	-0.030	2.010	180.370	-1.400	2.500																			1580031073.0	9.14	16.93
26/01/2020 09:31:14	26012020	260120	093114	180.450	12.437755	-57.246250	180.480	0.490	-0.410	1.440	180.480	-1.800	1.900																			1580031074.0	9.19	17.02
26/01/2020 09:31:15	26012020	260120	093115	180.580	12.437713	-57.246252	180.610	0.410	-0.600	0.800	180.610	-2.000	1.300																			1580031075.0	8.96	16.59
26/01/2020 09:31:16	26012020	260120	093116	180.730	12.437672	-57.246252	180.720	0.210	-0.690	0.250	180.750	-2.100	0.700																			1580031076.0	8.78	16.26
26/01/2020 09:31:17	26012020	260120	093117	180.780	12.437630	-57.246255	180.720	0.040	-0.820	-0.010	180.770	-2.200	0.400																			1580031077.0	8.83	16.35
26/01/2020 09:31:18	26012020	260120	093118	180.680	12.437588	-57.246260	180.580	0.020	-0.920	-0.010	180.640	-2.300	0.400																			1580031078.0	9.10	16.85
26/01/2020 09:31:19	26012020	260120	093119	180.510	12.437545	-57.246265	180.420	0.070	-0.810	0.110	180.470	-2.200	0.600																			1580031079.0	9.26	17.15
26/01/2020 09:31:20	26012020	260120	093120	180.380	12.437503	-57.246268	180.350	-0.020	-0.350	0.240	180.370	-1.800	0.700																			1580031080.0	9.18	17.00
26/01/2020 09:31:21	26012020	260120	093121	180.420	12.437462	-57.246273	180.460	-0.300	0.210	0.410	180.450	-1.200	0.800																			1580031081.0	8.94	16.56
26/01/2020 09:31:22	26012020	260120	093122	180.620	12.437420	-57.246278	180.660	-0.550	0.520	0.720	180.650	-0.900	1.100																			1580031082.0	8.94	16.56
26/01/2020 09:31:23	26012020	260120	093123	180.790	12.437378	-57.246285	180.820	-0.520	0.470	1.080	180.820	-0.900	1.500																			1580031083.0	9.20	17.04
26/01/2020 09:31:24	26012020	260120	093124	180.860	12.437335	-57.246293	180.830	-0.180	0.180	1.460	180.850	-1.200	1.900																			1580031084.0	9.47	17.54
26/01/2020 09:31:25	26012020	260120	093125	180.780	12.437292	-57.246298	180.740	0.170	-0.060	1.840	180.760	-1.500	2.300																			1580031085.0	9.52	17.63
26/01/2020 09:31:26	26012020	260120	093126	180.700	12.437248	-57.246305	180.670	0.280	-0.010	2.090	180.690	-1.400	2.500																			1580031086.0	9.21	17.06
26/01/2020 09:31:27	26012020	260120	093127	180.630	12.437208	-57.246310	180.560	0.190	0.030	2.170	180.590	-1.400	2.600																			1580031087.0	8.77	16.24
26/01/2020 09:31:28	26012020	260120	093128	180.410	12.437168	-57.246317	180.310	0.160	-0.210	2.060	180.360	-1.600	2.500																			1580031088.0	8.82	16.33
26/01/2020 09:31:29	26012020	260120	093129	180.210	12.437125	-57.246322	180.140	0.270	-0.510	1.630	180.190	-1.900	2.100																			1580031089.0	9.10	16.85
26/01/2020 09:31:30	26012020	260120	093130	180.180	12.437083	-57.246325	180.170	0.370	-0.590	0.910	180.200	-2.000	1.400																			1580031090.0	9.04	16.74
26/01/2020 09:31:31	26012020	260120	093131	180.340	12.437043	-57.246325	180.320	0.280	-0.600	0.150	180.370	-2.000	0.600																			1580031091.0	8.80	16.30
26/01/2020 09:31:32	26012020	260120	093132	180.480	12.437002	-57.246327	180.430	0.030	-0.750	-0.290	180.500	-2.100	0.200																			1580031092.0	8.93	16.54
26/01/2020 09:31:33	26012020	260120	093133	180.590	12.436958	-57.246330	180.590	-0.220	-0.800	-0.410	180.620	-2.200	0.000																			1580031093.0	9.25	17.13
26/01/2020 09:31:34	26012020	260120	093134	180.790	12.436917	-57.246335	180.800	-0.360	-0.510	-0.330	180.830	-1.900	0.100																			1580031094.0	9.22	17.08
26/01/2020 09:31:35	26012020	260120	093135	180.950	12.436875	-57.246340	180.920	-0.330	-0.050	-0.110	180.960	-1.500	0.300																			1580031095.0	9.01	16.69
26/01/2020 09:31:36	26012020	260120	093136	181.000	12.436833	-57.246347	180.970	-0.150	0.260	0.210	181.000	-1.200	0.600																			1580031096.0	9.00	16.67
26/01/2020 09:31:37	26012020	260120	093137	181.000	12.436790	-57.246352	180.980	0.020	0.360	0.660	181.000	-1.100	1.100																			1580031097.0	9.19	17.02
26/01/2020 09:31:38	26012020	260120	093138	180.940	12.436748	-57.246357	180.890	0.040	0.320	1.260	180.910	-1.100	1.700																			1580031098.0	9.29	17.21
26/01/2020 09:31:39	26012020	260120	093139	180.730	12.436705	-57.246363	180.650	-0.040	0.220	1.980	180.680	-1.200	2.400																			1580031099.0	9.30	17.22
26/01/2020 09:31:40	26012020	260120	093140	180.440	12.436663	-57.246372	180.350	-0.070	0.150	2.630	180.370	-1.300	3.000																			1580031100.0	9.24	17.11
26/01/2020 09:31:41	26012020	260120	093141	180.150	12.436622	-57.246380	180.100	0.030	0.080	2.920	180.120	-1.300	3.400																			1580031101.0	9.08	16.82
26/01/2020 09:31:42	26012020	260120	093142	180.050	12.436580	-57.246387	180.030	0.200	-0.110	2.730	180.050	-1.500	3.200																			1580031102.0	8.92	16.52
26/01/2020 09:31:43	26012020	260120	093143	180.050	12.436538	-57.246392	180.000	0.360	-0.510	2.220	180.050	-1.900	2.700																			1580031103.0	8.96	16.59
26/01/2020 09:31:44	26012020	260120	093144	180.050	12.436497	-57.246395	180.000	0.430	-0.840	1.440	180.060	-2.200	1.900																			1580031104.0	9.12	16.89
26/01/2020 09:31:45	26012020	260120	093145	180.140	12.436455	-57.246395	180.130	0.330	-0.850	0.570	180.180	-2.300	1.100																			1580031105.0	8.98	16.63
26/01/2020 09:31:46	26012020	260120	093146	180.300	12.436415	-57.246395	180.260	0.080	-0.700	-0.150	180.330	-2.100	0.400																			1580031106.0	8.76	16.22
26/01/2020 09:31:47	26012020	260120	093147	180.400	12.436373	-57.246397	180.320	-0.180	-0.550	-0.620	180.410	-2.000	-0.100																			1580031107.0	8.83	16.35
26/01/2020 09:31:48	26012020	260120	093148	180.440	12.436332	-57.246400	180.360	-0.320	-0.420	-0.840	180.460	-1.800	-0.400																			1580031108.0	9.04	16.74
26/01/2020 09:31:49	26012020	260120	093149	180.530	12.436288	-57.246403	180.480	-0.340	-0.260	-0.710	180.560	-1.700	-0.300																			1580031109.0	9.22	17.08
26/01/2020 09:31:50	26012020	260120	093150	180.700	12.436245	-57.246408	180.720	-0.310	0.020	-0.320	180.760	-1.400	0.100																			1580031110.0	9.29	17.21
26/01/2020 09:31:51	26012020	260120	093151	181.000	12.436203	-57.246415	181.010	-0.280	0.350	0.220	181.050	-1.100	0.600																			1580031111.0	9.17	16.98
26/01/2020 09:31:52	26012020	260120	093152	181.210	12.436162	-57.246422	181.200	-0.210	0.490	0.890	181.230	-0.900	1.300																			1580031112.0	9.06	16.78
26/01/2020 09:31:53	26012020	260120	093153	181.210	12.436120	-57.246430	181.160	-0.080	0.300	1.620	181.190	-1.100	2.000																			1580031113.0	9.20	17.04
26/01/2020 09:31:54	26012020	260120	093154	181.060	12.436077	-57.246437	180.990	0.070	-0.000	2.270	181.020	-1.400	2.700																			1580031114.0	9.35	17.32
26/01/2020 09:31:55	26012020	260120	093155	180.800	12.436035	-57.246445	180.670	0.190	-0.230	2.820	180.730	-1.600	3.200																			1580031115.0	9.29	17.21
26/01/2020 09:31:56	26012020	260120	093156	180.410	12.435992	-57.246452	180.270	0.270	-0.340	3.150	180.330	-1.700	3.600																			1580031116.0	9.14	16.93
26/01/2020 09:31:57	26012020	260120	093157	180.050	12.435952	-57.246458	179.970	0.330	-0.330	3.020	180.010	-1.700	3.500																			1580031117.0	8.98	16.63
26/01/2020 09:31:58	26012020	260120	093158	179.920	12.435910	-57.246462	179.910	0.320	-0.250	2.350	179.930	-1.700	2.800																			1580031118.0	8.80	16.30
26/01/2020 09:31:59	26012020	260120	093159	180.040	12.435870	-57.246463	180.060	0.200	-0.210	1.340	180.080	-1.600	1.900																			1580031119.0	8.70	16.11
26/01/2020 09:32:00	26012020	260120	093200	180.320	12.435828	-57.246463	180.340	0.040	-0.320	0.220	180.390	-1.700	0.700	1013.90	25.60	25.60	19.60	19.60	-1.00	69.00	69.00	399.00	25.30	315.00	9.00	106.00	6.50	14	3246.00	27.40	27.40	1580031120.0	8.77	16.24
26/01/2020 09:32:01	26012020	260120	093201	180.600	12.435787	-57.246465	180.570	-0.050	-0.560	-0.620	180.640	-2.000	-0.100																			1580031121.0	8.97	16.61
26/01/2020 09:32:02	26012020	260120	093202	180.740	12.435745	-57.246467	180.640	-0.080	-0.760	-0.960	180.750	-2.200	-0.500																			1580031122.0	9.17	16.98
26/01/2020 09:32:03	26012020	260120	093203	180.730	12.435702	-57.246470	180.650	-0.070	-0.740	-0.890	180.730	-2.200	-0.400																			1580031123.0	9.22	17.08
26/01/2020 09:32:04	26012020	260120	093204	180.780	12.435660	-57.246475	180.750	-0.140	-0.390	-0.650	180.800	-1.800	-0.200																			1580031124.0	9.12	16.89
26/01/2020 09:32:05	26012020	260120	093205	180.910	12.435618	-57.246480	180.920	-0.310	0.050	-0.170	180.940	-1.400	0.200																			1580031125.0	8.92	16.52
26/01/2020 09:32:06	26012020	260120	093206	181.030	12.435578	-57.246488	181.040	-0.430	0.260	0.480	181.040	-1.200	0.900																			1580031126.0	8.97	16.61
26/01/2020 09:32:07	26012020	260120	093207	181.050	12.435535	-57.246497	181.030	-0.340	0.150	1.210	181.030	-1.200	1.600																			1580031127.0	9.27	17.17
26/01/2020 09:32:08	26012020	260120	093208	180.950	12.435492	-57.246505	180.940	-0.080	-0.050	1.880	180.940	-1.400	2.300																			1580031128.0	9.52	17.63
26/01/2020 09:32:09	26012020	260120	093209	180.890	12.435448	-57.246512	180.920	0.130	-0.060	2.240	180.890	-1.500	2.700																			1580031129.0	9.43	17.46
26/01/2020 09:32:10	26012020	260120	093210	180.920	12.435407	-57.246517	180.930	0.150	0.080	2.320	180.920	-1.300	2.800																			1580031130.0	9.00	16.67
26/01/2020 09:32:11	26012020	260120	093211	180.840	12.435367	-57.246522	180.790	0.100	0.020	2.250	180.810	-1.400	2.700																			1580031131.0	8.81	16.32
26/01/2020 09:32:12	26012020	260120	093212	180.660	12.435325	-57.246525	180.590	0.130	-0.210	2.030	180.620	-1.600	2.500																			1580031132.0	9.02	16.71
26/01/2020 09:32:13	26012020	260120	093213	180.510	12.435282	-57.246528	180.490	0.250	-0.350	1.600	180.510	-1.800	2.100																			1580031133.0	9.13	16.91
26/01/2020 09:32:14	26012020	260120	093214	180.590	12.435240	-57.246532	180.640	0.310	-0.290	0.930	180.630	-1.700	1.400																			1580031134.0	8.96	16.59
26/01/2020 09:32:15	26012020	260120	093215	180.830	12.435200	-57.246533	180.850	0.200	-0.190	0.330	180.870	-1.600	0.800																			1580031135.0	8.73	16.17
26/01/2020 09:32:16	26012020	260120	093216	180.970	12.435160	-57.246537	180.960	0.020	-0.240	0.030	180.990	-1.600	0.500																			1580031136.0	8.75	16.21
26/01/2020 09:32:17	26012020	260120	093217	181.000	12.435118	-57.246542	180.950	-0.080	-0.380	-0.040	180.980	-1.800	0.400																			1580031137.0	8.97	16.61
26/01/2020 09:32:18	26012020	260120	093218	180.930	12.435077	-57.246547	180.880	-0.060	-0.450	-0.010	180.910	-1.900	0.400																			1580031138.0	9.08	16.82
26/01/2020 09:32:19	26012020	260120	093219	180.860	12.435035	-57.246552	180.830	-0.030	-0.440	0.100	180.850	-1.900	0.500																			1580031139.0	9.07	16.80
26/01/2020 09:32:20	26012020	260120	093220	180.810	12.434993	-57.246557	180.830	-0.100	-0.370	0.330	180.810	-1.800	0.800																			1580031140.0	9.07	16.80
26/01/2020 09:32:21	26012020	260120	093221	180.850	12.434952	-57.246563	180.890	-0.240	-0.230	0.590	180.870	-1.600	1.000																			1580031141.0	9.05	16.76
26/01/2020 09:32:22	26012020	260120	093222	180.920	12.434910	-57.246570	180.940	-0.310	-0.210	0.920	180.940	-1.600	1.300																			1580031142.0	9.04	16.74
26/01/2020 09:32:23	26012020	260120	093223	180.900	12.434867	-57.246577	180.870	-0.170	-0.410	1.360	180.890	-1.800	1.800																			1580031143.0	9.29	17.21
26/01/2020 09:32:24	26012020	260120	093224	180.800	12.434823	-57.246583	180.790	0.070	-0.560	1.740	180.790	-2.000	2.200																			1580031144.0	9.58	17.74
26/01/2020 09:32:25	26012020	260120	093225	180.800	12.434778	-57.246590	180.850	0.130	-0.270	1.900	180.830	-1.700	2.300																			1580031145.0	9.45	17.50
26/01/2020 09:32:26	26012020	260120	093226	180.970	12.434738	-57.246595	181.030	-0.080	0.310	1.810	181.020	-1.100	2.300																			1580031146.0	8.87	16.43
26/01/2020 09:32:27	26012020	260120	093227	181.180	12.434698	-57.246598	181.210	-0.330	0.670	1.580	181.210	-0.800	2.000																			1580031147.0	8.56	15.85
26/01/2020 09:32:28	26012020	260120	093228	181.260	12.434658	-57.246603	181.220	-0.280	0.530	1.350	181.250	-0.900	1.800																			1580031148.0	8.81	16.32
26/01/2020 09:32:29	26012020	260120	093229	181.160	12.434615	-57.246607	181.060	0.100	0.140	1.160	181.130	-1.300	1.600																			1580031149.0	9.20	17.04
26/01/2020 09:32:30	26012020	260120	093230	181.030	12.434572	-57.246610	180.980	0.510	-0.170	0.850	181.030	-1.600	1.300																			1580031150.0	9.26	17.15
26/01/2020 09:32:31	26012020	260120	093231	181.040	12.434530	-57.246613	181.000	0.670	-0.270	0.430	181.050	-1.700	0.900																			1580031151.0	8.96	16.59
26/01/2020 09:32:32	26012020	260120	093232	181.040	12.434490	-57.246615	180.960	0.550	-0.350	0.140	181.030	-1.800	0.600																			1580031152.0	8.65	16.02
26/01/2020 09:32:33	26012020	260120	093233	180.950	12.434450	-57.246618	180.850	0.310	-0.610	0.160	180.930	-2.000	0.600																			1580031153.0	8.74	16.19
26/01/2020 09:32:34	26012020	260120	093234	180.840	12.434408	-57.246623	180.770	0.040	-0.880	0.470	180.820	-2.300	0.900																			1580031154.0	9.04	16.74
26/01/2020 09:32:35	26012020	260120	093235	180.750	12.434367	-57.246632	180.680	-0.210	-0.970	0.920	180.740	-2.400	1.300																			1580031155.0	9.18	17.00
26/01/2020 09:32:36	26012020	260120	093236	180.650	12.434325	-57.246640	180.590	-0.370	-0.860	1.410	180.630	-2.300	1.800																			1580031156.0	9.24	17.11
26/01/2020 09:32:37	26012020	260120	093237	180.590	12.434282	-57.246650	180.600	-0.410	-0.530	1.740	180.590	-2.000	2.200																			1580031157.0	9.24	17.11
26/01/2020 09:32:38	26012020	260120	093238	180.700	12.434240	-57.246657	180.780	-0.360	-0.060	1.710	180.750	-1.500	2.200																			1580031158.0	9.11	16.87
26/01/2020 09:32:39	26012020	260120	093239	180.970	12.434198	-57.246662	181.070	-0.300	0.350	1.370	181.030	-1.100	1.800																			1580031159.0	8.99	16.65
26/01/2020 09:32:40	26012020	260120	093240	181.270	12.434157	-57.246663	181.320	-0.270	0.520	0.920	181.320	-0.900	1.400																			1580031160.0	8.99	16.65
26/01/2020 09:32:41	26012020	260120	093241	181.420	12.434115	-57.246665	181.390	-0.200	0.360	0.660	181.420	-1.000	1.100																			1580031161.0	9.15	16.95
26/01/2020 09:32:42	26012020	260120	093242	181.400	12.434072	-57.246668	181.350	-0.090	0.050	0.550	181.390	-1.400	1.000																			1580031162.0	9.36	17.33
26/01/2020 09:32:43	26012020	260120	093243	181.320	12.434028	-57.246673	181.250	0.050	-0.180	0.620	181.290	-1.600	1.100																			1580031163.0	9.34	17.30
26/01/2020 09:32:44	26012020	260120	093244	181.170	12.433985	-57.246678	181.090	0.190	-0.200	0.770	181.140	-1.600	1.200																			1580031164.0	9.14	16.93
26/01/2020 09:32:45	26012020	260120	093245	181.030	12.433945	-57.246685	180.970	0.270	-0.100	0.890	181.010	-1.500	1.300																			1580031165.0	8.87	16.43
26/01/2020 09:32:46	26012020	260120	093246	180.920	12.433905	-57.246692	180.890	0.300	-0.090	0.990	180.910	-1.500	1.400																			1580031166.0	8.75	16.21
26/01/2020 09:32:47	26012020	260120	093247	180.880	12.433863	-57.246697	180.860	0.310	-0.200	0.990	180.870	-1.600	1.400																			1580031167.0	8.84	16.37
26/01/2020 09:32:48	26012020	260120	093248	180.860	12.433823	-57.246702	180.840	0.290	-0.400	0.950	180.850	-1.800	1.400																			1580031168.0	8.94	16.56
26/01/2020 09:32:49	26012020	260120	093249	180.810	12.433780	-57.246705	180.780	0.210	-0.590	0.980	180.800	-2.000	1.400																			1580031169.0	9.05	16.76
26/01/2020 09:32:50	26012020	260120	093250	180.730	12.433738	-57.246710	180.720	0.100	-0.620	1.060	180.720	-2.000	1.500																			1580031170.0	9.10	16.85
26/01/2020 09:32:51	26012020	260120	093251	180.760	12.433697	-57.246717	180.830	-0.090	-0.450	1.100	180.800	-1.900	1.500																			1580031171.0	9.03	16.72
26/01/2020 09:32:52	26012020	260120	093252	180.990	12.433657	-57.246722	181.080	-0.320	-0.200	1.070	181.040	-1.600	1.500																			1580031172.0	8.88	16.45
26/01/2020 09:32:53	26012020	260120	093253	181.230	12.433615	-57.246727	181.290	-0.460	-0.120	1.070	181.260	-1.500	1.500																			1580031173.0	8.89	16.46
26/01/2020 09:32:54	26012020	260120	093254	181.310	12.433573	-57.246733	181.310	-0.370	-0.290	1.080	181.310	-1.700	1.500																			1580031174.0	9.16	16.96
26/01/2020 09:32:55	26012020	260120	093255	181.260	12.433530	-57.246738	181.250	-0.140	-0.460	1.070	181.240	-1.900	1.500																			1580031175.0	9.43	17.46
26/01/2020 09:32:56	26012020	260120	093256	181.140	12.433487	-57.246743	181.110	-0.000	-0.400	1.020	181.110	-1.800	1.500																			1580031176.0	9.38	17.37
26/01/2020 09:32:57	26012020	260120	093257	181.010	12.433443	-57.246747	180.970	-0.070	-0.120	1.020	180.980	-1.600	1.500																			1580031177.0	9.15	16.95
26/01/2020 09:32:58	26012020	260120	093258	180.870	12.433402	-57.246753	180.850	-0.190	0.200	1.050	180.850	-1.200	1.500																			1580031178.0	8.96	16.59
26/01/2020 09:32:59	26012020	260120	093259	180.790	12.433362	-57.246758	180.800	-0.190	0.340	1.070	180.790	-1.100	1.500																			1580031179.0	8.98	16.63
26/01/2020 09:33:00	26012020	260120	093300	180.850	12.433320	-57.246765	180.920	-0.060	0.330	0.990	180.870	-1.100	1.400	1013.90	25.50	25.60	19.60	19.70	-1.00	69.00	69.00	395.00	25.20	315.00	8.70	105.00	6.30	14	3260.00	27.40	27.40	1580031180.0	9.08	16.82
26/01/2020 09:33:01	26012020	260120	093301	181.000	12.433277	-57.246770	181.060	0.080	0.190	0.830	181.020	-1.200	1.300																			1580031181.0	9.06	16.78
26/01/2020 09:33:02	26012020	260120	093302	181.120	12.433235	-57.246773	181.140	0.200	-0.080	0.670	181.130	-1.500	1.100																			1580031182.0	9.04	16.74
26/01/2020 09:33:03	26012020	260120	093303	181.140	12.433193	-57.246778	181.130	0.310	-0.410	0.590	181.140	-1.800	1.000																			1580031183.0	9.09	16.83
26/01/2020 09:33:04	26012020	260120	093304	181.080	12.433152	-57.246782	181.060	0.380	-0.640	0.610	181.070	-2.100	1.000																			1580031184.0	9.12	16.89
26/01/2020 09:33:05	26012020	260120	093305	181.030	12.433110	-57.246787	181.050	0.310	-0.610	0.680	181.040	-2.000	1.100																			1580031185.0	8.99	16.65
26/01/2020 09:33:06	26012020	260120	093306	181.110	12.433070	-57.246790	181.140	0.120	-0.400	0.770	181.120	-1.800	1.200																			1580031186.0	8.74	16.19
26/01/2020 09:33:07	26012020	260120	093307	181.170	12.433028	-57.246795	181.170	-0.080	-0.320	0.960	181.170	-1.700	1.400																			1580031187.0	8.74	16.19
26/01/2020 09:33:08	26012020	260120	093308	181.100	12.432987	-57.246802	181.050	-0.150	-0.450	1.290	181.060	-1.900	1.700																			1580031188.0	9.08	16.82
26/01/2020 09:33:09	26012020	260120	093309	180.910	12.432943	-57.246810	180.860	-0.120	-0.520	1.610	180.870	-1.900	2.000																			1580031189.0	9.43	17.46
26/01/2020 09:33:10	26012020	260120	093310	180.790	12.432902	-57.246817	180.830	-0.120	-0.240	1.710	180.790	-1.700	2.100																			1580031190.0	9.33	17.28
26/01/2020 09:33:11	26012020	260120	093311	180.840	12.432860	-57.246823	180.890	-0.210	0.170	1.610	180.860	-1.300	2.100																			1580031191.0	8.90	16.48
26/01/2020 09:33:12	26012020	260120	093312	180.880	12.432820	-57.246828	180.870	-0.270	0.250	1.390	180.870	-1.200	1.900																			1580031192.0	8.84	16.37
26/01/2020 09:33:13	26012020	260120	093313	180.790	12.432777	-57.246832	180.760	-0.210	0.020	1.220	180.770	-1.400	1.700																			1580031193.0	9.21	17.06
26/01/2020 09:33:14	26012020	260120	093314	180.680	12.432733	-57.246837	180.640	-0.110	-0.190	1.000	180.660	-1.600	1.500																			1580031194.0	9.39	17.39
26/01/2020 09:33:15	26012020	260120	093315	180.610	12.432690	-57.246840	180.590	-0.030	-0.300	0.750	180.600	-1.700	1.200																			1580031195.0	9.21	17.06
26/01/2020 09:33:16	26012020	260120	093316	180.600	12.432648	-57.246843	180.600	0.010	-0.350	0.550	180.610	-1.800	1.000																			1580031196.0	9.10	16.85
26/01/2020 09:33:17	26012020	260120	093317	180.660	12.432607	-57.246848	180.660	0.020	-0.330	0.400	180.670	-1.800	0.900																			1580031197.0	9.04	16.74
26/01/2020 09:33:18	26012020	260120	093318	180.730	12.432565	-57.246853	180.730	0.020	-0.270	0.400	180.740	-1.700	0.800																			1580031198.0	8.99	16.65
26/01/2020 09:33:19	26012020	260120	093319	180.820	12.432523	-57.246858	180.830	0.050	-0.190	0.520	180.840	-1.600	1.000																			1580031199.0	8.99	16.65
26/01/2020 09:33:20	26012020	260120	093320	180.890	12.432482	-57.246863	180.860	0.130	-0.090	0.670	180.900	-1.500	1.100																			1580031200.0	9.03	16.72
26/01/2020 09:33:21	26012020	260120	093321	180.900	12.432440	-57.246868	180.880	0.190	0.070	0.850	180.900	-1.400	1.300																			1580031201.0	9.00	16.67
26/01/2020 09:33:22	26012020	260120	093322	180.950	12.432400	-57.246873	180.950	0.180	0.210	1.030	180.970	-1.200	1.500																			1580031202.0	8.87	16.43
26/01/2020 09:33:23	26012020	260120	093323	181.030	12.432358	-57.246878	181.020	0.140	0.170	1.170	181.040	-1.200	1.600																			1580031203.0	8.85	16.39
26/01/2020 09:33:24	26012020	260120	093324	181.040	12.432317	-57.246883	180.990	0.110	-0.140	1.380	181.030	-1.500	1.800																			1580031204.0	8.96	16.59
26/01/2020 09:33:25	26012020	260120	093325	180.920	12.432275	-57.246890	180.810	0.110	-0.640	1.700	180.870	-2.000	2.100																			1580031205.0	9.24	17.11
26/01/2020 09:33:26	26012020	260120	093326	180.670	12.432232	-57.246897	180.570	0.090	-0.960	1.970	180.620	-2.400	2.400																			1580031206.0	9.43	17.46
26/01/2020 09:33:27	26012020	260120	093327	180.460	12.432188	-57.246902	180.400	-0.060	-0.850	2.050	180.430	-2.300	2.500																			1580031207.0	9.23	17.09
26/01/2020 09:33:28	26012020	260120	093328	180.360	12.432148	-57.246908	180.330	-0.290	-0.550	1.950	180.350	-2.000	2.400																			1580031208.0	8.90	16.48
26/01/2020 09:33:29	26012020	260120	093329	180.310	12.432107	-57.246913	180.260	-0.410	-0.390	1.740	180.300	-1.800	2.200																			1580031209.0	8.94	16.56
26/01/2020 09:33:30	26012020	260120	093330	180.210	12.432063	-57.246920	180.160	-0.320	-0.290	1.430	180.200	-1.700	1.900																			1580031210.0	9.27	17.17
26/01/2020 09:33:31	26012020	260120	093331	180.240	12.432020	-57.246923	180.270	-0.200	0.020	0.870	180.280	-1.400	1.400																			1580031211.0	9.33	17.28
26/01/2020 09:33:32	26012020	260120	093332	180.500	12.431978	-57.246927	180.570	-0.150	0.450	0.140	180.570	-1.000	0.600																			1580031212.0	8.99	16.65
26/01/2020 09:33:33	26012020	260120	093333	180.890	12.431938	-57.246927	180.980	-0.130	0.620	-0.480	180.970	-0.800	0.000																			1580031213.0	8.83	16.35
26/01/2020 09:33:34	26012020	260120	093334	181.280	12.431897	-57.246928	181.350	-0.020	0.410	-0.830	181.350	-1.000	-0.400																			1580031214.0	9.02	16.71
26/01/2020 09:33:35	26012020	260120	093335	181.580	12.431853	-57.246932	181.610	0.180	0.050	-0.780	181.640	-1.300	-0.400																			1580031215.0	9.27	17.17
26/01/2020 09:33:36	26012020	260120	093336	181.810	12.431810	-57.246937	181.780	0.340	-0.170	-0.330	181.830	-1.600	0.100																			1580031216.0	9.19	17.02
26/01/2020 09:33:37	26012020	260120	093337	181.830	12.431770	-57.246942	181.700	0.370	-0.310	0.460	181.800	-1.700	0.800																			1580031217.0	8.90	16.48
26/01/2020 09:33:38	26012020	260120	093338	181.520	12.431728	-57.246950	181.310	0.360	-0.590	1.480	181.430	-2.000	1.900																			1580031218.0	8.92	16.52
26/01/2020 09:33:39	26012020	260120	093339	181.000	12.431687	-57.246960	180.790	0.310	-0.860	2.550	180.900	-2.300	2.900																			1580031219.0	9.27	17.17
26/01/2020 09:33:40	26012020	260120	093340	180.550	12.431645	-57.246970	180.460	0.150	-0.730	3.280	180.490	-2.200	3.700																			1580031220.0	9.32	17.26
26/01/2020 09:33:41	26012020	260120	093341	180.400	12.431603	-57.246978	180.390	-0.110	-0.320	3.420	180.400	-1.700	3.900																			1580031221.0	8.92	16.52
26/01/2020 09:33:42	26012020	260120	093342	180.410	12.431563	-57.246987	180.400	-0.260	-0.100	3.100	180.410	-1.500	3.600																			1580031222.0	8.72	16.15
26/01/2020 09:33:43	26012020	260120	093343	180.430	12.431522	-57.246992	180.460	-0.180	-0.240	2.310	180.450	-1.600	2.800																			1580031223.0	9.07	16.80
26/01/2020 09:33:44	26012020	260120	093344	180.640	12.431478	-57.246992	180.710	-0.030	-0.390	1.170	180.700	-1.800	1.700																			1580031224.0	9.38	17.37
26/01/2020 09:33:45	26012020	260120	093345	180.940	12.431435	-57.246992	180.990	-0.020	-0.400	0.030	181.000	-1.800	0.600																			1580031225.0	9.31	17.24
26/01/2020 09:33:46	26012020	260120	093346	181.180	12.431393	-57.246992	181.160	-0.160	-0.320	-0.860	181.210	-1.700	-0.400																			1580031226.0	9.17	16.98
26/01/2020 09:33:47	26012020	260120	093347	181.330	12.431350	-57.246992	181.310	-0.360	-0.130	-1.290	181.360	-1.600	-0.800																			1580031227.0	9.11	16.87
26/01/2020 09:33:48	26012020	260120	093348	181.460	12.431308	-57.246995	181.430	-0.480	0.130	-1.230	181.480	-1.300	-0.800																			1580031228.0	9.02	16.71
26/01/2020 09:33:49	26012020	260120	093349	181.530	12.431267	-57.247002	181.460	-0.380	0.300	-0.750	181.520	-1.100	-0.300																			1580031229.0	8.98	16.63
26/01/2020 09:33:50	26012020	260120	093350	181.440	12.431225	-57.247010	181.370	-0.060	0.270	0.030	181.420	-1.100	0.400																			1580031230.0	9.18	17.00
26/01/2020 09:33:51	26012020	260120	093351	181.330	12.431183	-57.247020	181.290	0.260	0.210	0.950	181.310	-1.200	1.300																			1580031231.0	9.31	17.24
26/01/2020 09:33:52	26012020	260120	093352	181.240	12.431142	-57.247028	181.190	0.410	0.160	1.860	181.210	-1.200	2.200																			1580031232.0	9.11	16.87
26/01/2020 09:33:53	26012020	260120	093353	181.080	12.431100	-57.247038	181.030	0.410	-0.040	2.570	181.040	-1.400	3.000																			1580031233.0	8.98	16.63
26/01/2020 09:33:54	26012020	260120	093354	180.920	12.431060	-57.247047	180.900	0.380	-0.340	2.910	180.900	-1.700	3.300																			1580031234.0	9.03	16.72
26/01/2020 09:33:55	26012020	260120	093355	180.840	12.431018	-57.247053	180.850	0.420	-0.640	2.870	180.830	-2.000	3.300																			1580031235.0	9.06	16.78
26/01/2020 09:33:56	26012020	260120	093356	180.820	12.430977	-57.247058	180.830	0.530	-0.810	2.400	180.820	-2.200	2.900																			1580031236.0	8.99	16.65
26/01/2020 09:33:57	26012020	260120	093357	180.850	12.430935	-57.247060	180.850	0.490	-0.770	1.630	180.850	-2.200	2.100																			1580031237.0	8.90	16.48
26/01/2020 09:33:58	26012020	260120	093358	180.900	12.430895	-57.247060	180.910	0.150	-0.610	0.850	180.910	-2.000	1.300																			1580031238.0	8.80	16.30
26/01/2020 09:33:59	26012020	260120	093359	181.010	12.430853	-57.247062	181.030	-0.390	-0.480	0.300	181.030	-1.900	0.800																			1580031239.0	8.86	16.41
26/01/2020 09:34:00	26012020	260120	093400	181.080	12.430812	-57.247065	181.060	-0.750	-0.440	0.070	181.080	-1.900	0.500	1013.90	25.50	25.60	19.60	19.60	-1.00	69.00	69.00	390.00	25.20	311.00	9.00	101.00	7.00	14	3353.00	27.40	27.40	1580031240.0	9.12	16.89
26/01/2020 09:34:01	26012020	260120	093401	181.060	12.430768	-57.247072	181.060	-0.720	-0.290	0.080	181.060	-1.700	0.500																			1580031241.0	9.34	17.30
26/01/2020 09:34:02	26012020	260120	093402	181.080	12.430725	-57.247078	181.090	-0.410	0.010	0.180	181.090	-1.400	0.600																			1580031242.0	9.29	17.21
26/01/2020 09:34:03	26012020	260120	093403	181.110	12.430683	-57.247083	181.120	-0.100	0.270	0.330	181.120	-1.100	0.800																			1580031243.0	9.15	16.95
26/01/2020 09:34:04	26012020	260120	093404	181.120	12.430642	-57.247090	181.110	0.010	0.340	0.630	181.110	-1.100	1.000																			1580031244.0	9.16	16.96
26/01/2020 09:34:05	26012020	260120	093405	181.040	12.430598	-57.247095	181.030	-0.060	0.230	1.120	181.020	-1.200	1.500																			1580031245.0	9.24	17.11
26/01/2020 09:34:06	26012020	260120	093406	180.940	12.430557	-57.247103	180.940	-0.140	0.160	1.550	180.920	-1.200	2.000																			1580031246.0	9.25	17.13
26/01/2020 09:34:07	26012020	260120	093407	180.840	12.430515	-57.247112	180.840	-0.040	0.100	1.880	180.820	-1.300	2.300																			1580031247.0	9.07	16.80
26/01/2020 09:34:08	26012020	260120	093408	180.730	12.430473	-57.247120	180.720	0.250	-0.040	2.100	180.700	-1.400	2.500																			1580031248.0	9.02	16.71
26/01/2020 09:34:09	26012020	260120	093409	180.640	12.430432	-57.247127	180.660	0.590	-0.160	1.980	180.640	-1.600	2.400																			1580031249.0	8.97	16.61
26/01/2020 09:34:10	26012020	260120	093410	180.690	12.430392	-57.247132	180.740	0.740	-0.250	1.550	180.710	-1.700	2.000																			1580031250.0	8.78	16.26
26/01/2020 09:34:11	26012020	260120	093411	180.830	12.430352	-57.247132	180.890	0.590	-0.420	1.030	180.870	-1.800	1.500																			1580031251.0	8.72	16.15
26/01/2020 09:34:12	26012020	260120	093412	181.020	12.430310	-57.247133	181.070	0.270	-0.670	0.620	181.060	-2.100	1.100																			1580031252.0	8.83	16.35
26/01/2020 09:34:13	26012020	260120	093413	181.150	12.430268	-57.247137	181.160	-0.000	-0.880	0.460	181.160	-2.300	0.900																			1580031253.0	8.98	16.63
26/01/2020 09:34:14	26012020	260120	093414	181.150	12.430227	-57.247142	181.140	-0.130	-0.870	0.440	181.140	-2.300	0.900																			1580031254.0	9.08	16.82
26/01/2020 09:34:15	26012020	260120	093415	181.090	12.430185	-57.247147	181.070	-0.190	-0.680	0.390	181.070	-2.100	0.800																			1580031255.0	9.04	16.74
26/01/2020 09:34:16	26012020	260120	093416	180.990	12.430143	-57.247152	180.940	-0.270	-0.460	0.470	180.960	-1.900	0.900																			1580031256.0	9.07	16.80
26/01/2020 09:34:17	26012020	260120	093417	180.850	12.430100	-57.247158	180.820	-0.370	-0.220	0.750	180.830	-1.600	1.200																			1580031257.0	9.24	17.11
26/01/2020 09:34:18	26012020	260120	093418	180.760	12.430058	-57.247163	180.740	-0.480	0.120	1.140	180.750	-1.300	1.500																			1580031258.0	9.27	17.17
26/01/2020 09:34:19	26012020	260120	093419	180.650	12.430015	-57.247172	180.630	-0.510	0.380	1.620	180.630	-1.000	2.000																			1580031259.0	9.22	17.08
26/01/2020 09:34:20	26012020	260120	093420	180.510	12.429973	-57.247180	180.500	-0.390	0.440	2.030	180.490	-1.000	2.400																			1580031260.0	9.33	17.28
26/01/2020 09:34:21	26012020	260120	093421	180.460	12.429930	-57.247188	180.500	-0.160	0.450	2.110	180.470	-1.000	2.500																			1580031261.0	9.38	17.37
26/01/2020 09:34:22	26012020	260120	093422	180.580	12.429888	-57.247195	180.660	0.050	0.480	1.890	180.630	-0.900	2.300																			1580031262.0	9.08	16.82
26/01/2020 09:34:23	26012020	260120	093423	180.810	12.429848	-57.247198	180.850	0.240	0.320	1.460	180.850	-1.100	1.900																			1580031263.0	8.77	16.24
26/01/2020 09:34:24	26012020	260120	093424	180.910	12.429807	-57.247202	180.870	0.500	-0.160	0.910	180.900	-1.500	1.400																			1580031264.0	8.84	16.37
26/01/2020 09:34:25	26012020	260120	093425	180.890	12.429765	-57.247203	180.860	0.740	-0.640	0.360	180.890	-2.000	0.800																			1580031265.0	9.09	16.83
26/01/2020 09:34:26	26012020	260120	093426	180.940	12.429723	-57.247205	180.940	0.730	-0.820	-0.130	180.960	-2.200	0.300																			1580031266.0	8.94	16.56
26/01/2020 09:34:27	26012020	260120	093427	181.020	12.429682	-57.247207	180.980	0.430	-0.860	-0.310	181.020	-2.300	0.100																			1580031267.0	8.69	16.09
26/01/2020 09:34:28	26012020	260120	093428	180.960	12.429642	-57.247210	180.880	0.040	-0.920	-0.020	180.940	-2.300	0.400																			1580031268.0	8.82	16.33
26/01/2020 09:34:29	26012020	260120	093429	180.790	12.429600	-57.247218	180.720	-0.280	-0.800	0.620	180.760	-2.200	1.000																			1580031269.0	9.16	16.96
26/01/2020 09:34:30	26012020	260120	093430	180.640	12.429558	-57.247228	180.610	-0.450	-0.400	1.320	180.610	-1.800	1.700																			1580031270.0	9.19	17.02
26/01/2020 09:34:31	26012020	260120	093431	180.550	12.429517	-57.247237	180.560	-0.480	-0.000	1.810	180.530	-1.400	2.200																			1580031271.0	9.10	16.85
26/01/2020 09:34:32	26012020	260120	093432	180.550	12.429475	-57.247245	180.590	-0.420	0.160	2.060	180.550	-1.300	2.500																			1580031272.0	9.21	17.06
26/01/2020 09:34:33	26012020	260120	093433	180.600	12.429432	-57.247252	180.660	-0.290	0.140	2.090	180.620	-1.300	2.500																			1580031273.0	9.38	17.37
26/01/2020 09:34:34	26012020	260120	093434	180.660	12.429388	-57.247257	180.680	-0.140	0.100	1.920	180.670	-1.300	2.400																			1580031274.0	9.38	17.37
26/01/2020 09:34:35	26012020	260120	093435	180.650	12.429345	-57.247260	180.640	-0.040	0.080	1.580	180.650	-1.300	2.000																			1580031275.0	9.25	17.13
26/01/2020 09:34:36	26012020	260120	093436	180.670	12.429303	-57.247263	180.680	-0.030	0.130	1.130	180.680	-1.300	1.600																			1580031276.0	9.09	16.83
26/01/2020 09:34:37	26012020	260120	093437	180.800	12.429262	-57.247267	180.840	-0.050	0.150	0.590	180.840	-1.300	1.100																			1580031277.0	8.85	16.39
26/01/2020 09:34:38	26012020	260120	093438	180.900	12.429222	-57.247270	180.840	0.060	-0.130	0.240	180.890	-1.500	0.700																			1580031278.0	8.85	16.39
26/01/2020 09:34:39	26012020	260120	093439	180.790	12.429178	-57.247273	180.710	0.270	-0.550	0.120	180.760	-1.900	0.600																			1580031279.0	9.22	17.08
26/01/2020 09:34:40	26012020	260120	093440	180.650	12.429135	-57.247277	180.610	0.340	-0.600	0.200	180.640	-2.000	0.600																			1580031280.0	9.30	17.22
26/01/2020 09:34:41	26012020	260120	093441	180.610	12.429095	-57.247282	180.600	0.150	-0.240	0.460	180.610	-1.700	0.900																			1580031281.0	8.85	16.39
26/01/2020 09:34:42	26012020	260120	093442	180.650	12.429055	-57.247288	180.670	-0.120	0.120	0.800	180.670	-1.300	1.200																			1580031282.0	8.56	15.85
26/01/2020 09:34:43	26012020	260120	093443	180.700	12.429015	-57.247297	180.700	-0.180	0.080	1.220	180.700	-1.300	1.600																			1580031283.0	8.74	16.19
26/01/2020 09:34:44	26012020	260120	093444	180.660	12.428973	-57.247307	180.630	0.110	-0.330	1.630	180.640	-1.700	2.000																			1580031284.0	9.24	17.11
26/01/2020 09:34:45	26012020	260120	093445	180.520	12.428930	-57.247313	180.510	0.490	-0.660	1.810	180.500	-2.100	2.200																			1580031285.0	9.53	17.65
26/01/2020 09:34:46	26012020	260120	093446	180.460	12.428887	-57.247318	180.490	0.550	-0.600	1.680	180.470	-2.000	2.100																			1580031286.0	9.30	17.22
26/01/2020 09:34:47	26012020	260120	093447	180.530	12.428847	-57.247322	180.580	0.180	-0.290	1.390	180.550	-1.700	1.900																			1580031287.0	8.84	16.37
26/01/2020 09:34:48	26012020	260120	093448	180.630	12.428805	-57.247325	180.650	-0.300	-0.120	1.110	180.650	-1.500	1.600																			1580031288.0	8.70	16.11
26/01/2020 09:34:49	26012020	260120	093449	180.690	12.428763	-57.247330	180.710	-0.530	-0.230	0.900	180.710	-1.600	1.400																			1580031289.0	9.02	16.71
26/01/2020 09:34:50	26012020	260120	093450	180.800	12.428720	-57.247333	180.840	-0.440	-0.340	0.690	180.830	-1.700	1.100																			1580031290.0	9.37	17.35
26/01/2020 09:34:51	26012020	260120	093451	180.960	12.428677	-57.247338	180.970	-0.280	-0.260	0.500	180.980	-1.700	1.000																			1580031291.0	9.29	17.21
26/01/2020 09:34:52	26012020	260120	093452	181.020	12.428635	-57.247342	180.980	-0.190	-0.110	0.430	181.010	-1.500	0.900																			1580031292.0	9.10	16.85
26/01/2020 09:34:53	26012020	260120	093453	180.950	12.428593	-57.247347	180.870	-0.190	0.040	0.510	180.920	-1.400	0.900																			1580031293.0	9.06	16.78
26/01/2020 09:34:54	26012020	260120	093454	180.770	12.428552	-57.247352	180.690	-0.190	0.150	0.750	180.740	-1.300	1.200																			1580031294.0	9.01	16.69
26/01/2020 09:34:55	26012020	260120	093455	180.590	12.428510	-57.247358	180.510	-0.110	0.120	1.090	180.560	-1.300	1.500																			1580031295.0	9.08	16.82
26/01/2020 09:34:56	26012020	260120	093456	180.430	12.428468	-57.247365	180.360	0.070	-0.040	1.380	180.400	-1.400	1.800																			1580031296.0	9.19	17.02
26/01/2020 09:34:57	26012020	260120	093457	180.290	12.428425	-57.247373	180.250	0.280	-0.200	1.590	180.270	-1.600	2.000																			1580031297.0	9.27	17.17
26/01/2020 09:34:58	26012020	260120	093458	180.290	12.428383	-57.247380	180.340	0.360	-0.160	1.610	180.320	-1.600	2.000																			1580031298.0	9.11	16.87
26/01/2020 09:34:59	26012020	260120	093459	180.420	12.428343	-57.247387	180.440	0.320	-0.100	1.490	180.440	-1.500	1.900																			1580031299.0	8.75	16.21
26/01/2020 09:35:00	26012020	260120	093500	180.400	12.428303	-57.247390	180.360	0.330	-0.310	1.340	180.380	-1.700	1.800	1013.90	25.50	25.60	19.30	19.40	-1.00	68.00	68.00	387.00	25.20	306.00	8.70	94.00	7.10	14	3233.00	27.40	27.40	1580031300.0	8.79	16.28
26/01/2020 09:35:01	26012020	260120	093501	180.310	12.428260	-57.247395	180.310	0.390	-0.560	1.090	180.310	-1.900	1.600																			1580031301.0	9.15	16.95
26/01/2020 09:35:02	26012020	260120	093502	180.410	12.428218	-57.247397	180.500	0.300	-0.470	0.710	180.470	-1.900	1.200																			1580031302.0	9.14	16.93
26/01/2020 09:35:03	26012020	260120	093503	180.710	12.428177	-57.247400	180.800	-0.010	-0.170	0.390	180.770	-1.600	0.800																			1580031303.0	8.72	16.15
26/01/2020 09:35:04	26012020	260120	093504	180.930	12.428137	-57.247403	180.940	-0.300	-0.110	0.320	180.950	-1.500	0.800																			1580031304.0	8.63	15.98
26/01/2020 09:35:05	26012020	260120	093505	180.940	12.428095	-57.247408	180.890	-0.350	-0.400	0.500	180.920	-1.800	0.900																			1580031305.0	9.09	16.83
26/01/2020 09:35:06	26012020	260120	093506	180.810	12.428052	-57.247415	180.770	-0.210	-0.680	0.840	180.790	-2.100	1.300																			1580031306.0	9.52	17.63
26/01/2020 09:35:07	26012020	260120	093507	180.720	12.428008	-57.247420	180.700	-0.170	-0.590	1.240	180.710	-2.000	1.700																			1580031307.0	9.47	17.54
26/01/2020 09:35:08	26012020	260120	093508	180.650	12.427967	-57.247428	180.630	-0.310	-0.230	1.610	180.630	-1.700	2.000																			1580031308.0	9.11	16.87
26/01/2020 09:35:09	26012020	260120	093509	180.570	12.427925	-57.247437	180.540	-0.430	0.060	1.860	180.550	-1.400	2.300																			1580031309.0	8.97	16.61
26/01/2020 09:35:10	26012020	260120	093510	180.440	12.427883	-57.247443	180.370	-0.280	0.080	1.920	180.400	-1.300	2.400																			1580031310.0	9.13	16.91
26/01/2020 09:35:11	26012020	260120	093511	180.250	12.427840	-57.247450	180.220	0.090	0.020	1.730	180.230	-1.400	2.200																			1580031311.0	9.36	17.33
26/01/2020 09:35:12	26012020	260120	093512	180.250	12.427797	-57.247453	180.300	0.310	0.120	1.260	180.280	-1.300	1.700																			1580031312.0	9.26	17.15
26/01/2020 09:35:13	26012020	260120	093513	180.440	12.427757	-57.247455	180.510	0.230	0.250	0.750	180.480	-1.200	1.200																			1580031313.0	8.90	16.48
26/01/2020 09:35:14	26012020	260120	093514	180.640	12.427715	-57.247457	180.680	0.050	0.220	0.460	180.680	-1.200	0.900																			1580031314.0	8.78	16.26
26/01/2020 09:35:15	26012020	260120	093515	180.730	12.427673	-57.247462	180.700	0.020	0.030	0.450	180.730	-1.400	0.900																			1580031315.0	8.90	16.48
26/01/2020 09:35:16	26012020	260120	093516	180.650	12.427632	-57.247468	180.600	0.220	-0.270	0.620	180.630	-1.700	1.100																			1580031316.0	9.05	16.76
26/01/2020 09:35:17	26012020	260120	093517	180.550	12.427590	-57.247475	180.510	0.450	-0.500	0.730	180.530	-1.900	1.200																			1580031317.0	9.13	16.91
26/01/2020 09:35:18	26012020	260120	093518	180.510	12.427548	-57.247480	180.500	0.490	-0.570	0.780	180.510	-2.000	1.200																			1580031318.0	9.01	16.69
26/01/2020 09:35:19	26012020	260120	093519	180.550	12.427508	-57.247485	180.560	0.300	-0.530	0.830	180.560	-1.900	1.300																			1580031319.0	8.89	16.46
26/01/2020 09:35:20	26012020	260120	093520	180.660	12.427467	-57.247490	180.680	0.010	-0.410	0.850	180.680	-1.800	1.300																			1580031320.0	8.81	16.32
26/01/2020 09:35:21	26012020	260120	093521	180.720	12.427427	-57.247493	180.680	-0.190	-0.440	0.970	180.700	-1.800	1.400																			1580031321.0	8.84	16.37
26/01/2020 09:35:22	26012020	260120	093522	180.580	12.427383	-57.247500	180.520	-0.250	-0.670	1.190	180.550	-2.100	1.600																			1580031322.0	9.22	17.08
26/01/2020 09:35:23	26012020	260120	093523	180.420	12.427340	-57.247505	180.370	-0.290	-0.810	1.430	180.390	-2.200	1.900																			1580031323.0	9.51	17.61
26/01/2020 09:35:24	26012020	260120	093524	180.290	12.427297	-57.247512	180.270	-0.380	-0.670	1.650	180.270	-2.100	2.100																			1580031324.0	9.53	17.65
26/01/2020 09:35:25	26012020	260120	093525	180.270	12.427253	-57.247518	180.310	-0.520	-0.160	1.730	180.290	-1.600	2.200																			1580031325.0	9.31	17.24
26/01/2020 09:35:26	26012020	260120	093526	180.390	12.427212	-57.247525	180.430	-0.600	0.420	1.650	180.410	-1.000	2.100																			1580031326.0	8.99	16.65
26/01/2020 09:35:27	26012020	260120	093527	180.470	12.427170	-57.247530	180.470	-0.430	0.710	1.460	180.470	-0.700	1.900																			1580031327.0	8.92	16.52
26/01/2020 09:35:28	26012020	260120	093528	180.440	12.427128	-57.247535	180.400	0.000	0.620	1.190	180.420	-0.800	1.700																			1580031328.0	9.17	16.98
26/01/2020 09:35:29	26012020	260120	093529	180.390	12.427085	-57.247538	180.360	0.450	0.370	0.870	180.390	-1.000	1.300																			1580031329.0	9.37	17.35
26/01/2020 09:35:30	26012020	260120	093530	180.390	12.427042	-57.247542	180.350	0.650	0.190	0.540	180.390	-1.200	1.000																			1580031330.0	9.20	17.04
26/01/2020 09:35:31	26012020	260120	093531	180.340	12.427002	-57.247543	180.270	0.590	0.010	0.330	180.330	-1.400	0.800																			1580031331.0	8.90	16.48
26/01/2020 09:35:32	26012020	260120	093532	180.250	12.426960	-57.247547	180.210	0.440	-0.250	0.250	180.250	-1.600	0.700																			1580031332.0	8.81	16.32
26/01/2020 09:35:33	26012020	260120	093533	180.270	12.426920	-57.247552	180.270	0.310	-0.550	0.340	180.290	-1.900	0.800																			1580031333.0	8.86	16.41
26/01/2020 09:35:34	26012020	260120	093534	180.350	12.426878	-57.247558	180.350	0.230	-0.830	0.550	180.360	-2.200	1.000																			1580031334.0	8.97	16.61
26/01/2020 09:35:35	26012020	260120	093535	180.400	12.426837	-57.247565	180.370	0.130	-0.980	0.800	180.400	-2.400	1.200																			1580031335.0	8.99	16.65
26/01/2020 09:35:36	26012020	260120	093536	180.390	12.426795	-57.247570	180.370	0.010	-1.030	1.070	180.390	-2.400	1.500																			1580031336.0	9.04	16.74
26/01/2020 09:35:37	26012020	260120	093537	180.400	12.426753	-57.247577	180.410	-0.130	-0.920	1.270	180.410	-2.300	1.700																			1580031337.0	9.17	16.98
26/01/2020 09:35:38	26012020	260120	093538	180.520	12.426710	-57.247582	180.570	-0.300	-0.580	1.340	180.560	-2.000	1.800																			1580031338.0	9.22	17.08
26/01/2020 09:35:39	26012020	260120	093539	180.730	12.426668	-57.247587	180.800	-0.490	-0.070	1.360	180.780	-1.500	1.800																			1580031339.0	9.11	16.87
26/01/2020 09:35:40	26012020	260120	093540	180.910	12.426627	-57.247592	180.910	-0.620	0.320	1.390	180.930	-1.100	1.800																			1580031340.0	9.04	16.74
26/01/2020 09:35:41	26012020	260120	093541	180.860	12.426583	-57.247597	180.720	-0.550	0.320	1.540	180.800	-1.100	2.000																			1580031341.0	9.25	17.13
26/01/2020 09:35:42	26012020	260120	093542	180.470	12.426538	-57.247603	180.290	-0.260	0.080	1.770	180.370	-1.300	2.200																			1580031342.0	9.68	17.93
26/01/2020 09:35:43	26012020	260120	093543	180.060	12.426493	-57.247608	179.940	0.030	0.080	1.820	179.990	-1.300	2.300																			1580031343.0	9.73	18.02
26/01/2020 09:35:44	26012020	260120	093544	179.830	12.426452	-57.247613	179.770	0.160	0.370	1.650	179.810	-1.100	2.100																			1580031344.0	9.21	17.06
26/01/2020 09:35:45	26012020	260120	093545	179.760	12.426412	-57.247618	179.740	0.150	0.580	1.290	179.760	-0.800	1.800																			1580031345.0	8.75	16.21
26/01/2020 09:35:46	26012020	260120	093546	179.820	12.426370	-57.247622	179.850	0.150	0.400	0.840	179.850	-1.000	1.300																			1580031346.0	8.75	16.21
26/01/2020 09:35:47	26012020	260120	093547	180.010	12.426328	-57.247627	180.060	0.310	-0.100	0.350	180.060	-1.500	0.800																			1580031347.0	9.00	16.67
26/01/2020 09:35:48	26012020	260120	093548	180.280	12.426287	-57.247630	180.340	0.560	-0.590	-0.110	180.340	-2.000	0.400																			1580031348.0	9.15	16.95
26/01/2020 09:35:49	26012020	260120	093549	180.590	12.426245	-57.247632	180.660	0.660	-0.850	-0.500	180.650	-2.300	-0.000																			1580031349.0	9.02	16.71
26/01/2020 09:35:50	26012020	260120	093550	180.900	12.426203	-57.247633	180.950	0.490	-0.960	-0.580	180.950	-2.400	-0.100																			1580031350.0	8.87	16.43
26/01/2020 09:35:51	26012020	260120	093551	181.080	12.426162	-57.247637	181.080	0.120	-0.930	-0.210	181.090	-2.300	0.200																			1580031351.0	8.89	16.46
26/01/2020 09:35:52	26012020	260120	093552	181.110	12.426120	-57.247643	181.070	-0.250	-0.720	0.530	181.090	-2.100	0.900																			1580031352.0	9.01	16.69
26/01/2020 09:35:53	26012020	260120	093553	180.960	12.426080	-57.247652	180.860	-0.430	-0.450	1.500	180.910	-1.900	1.900																			1580031353.0	9.09	16.83
26/01/2020 09:35:54	26012020	260120	093554	180.620	12.426037	-57.247662	180.500	-0.390	-0.230	2.420	180.540	-1.600	2.800																			1580031354.0	9.31	17.24
26/01/2020 09:35:55	26012020	260120	093555	180.270	12.425993	-57.247670	180.220	-0.260	0.060	2.950	180.230	-1.400	3.400																			1580031355.0	9.47	17.54
26/01/2020 09:35:56	26012020	260120	093556	180.120	12.425952	-57.247677	180.110	-0.210	0.420	3.060	180.110	-1.000	3.500																			1580031356.0	9.30	17.22
26/01/2020 09:35:57	26012020	260120	093557	180.080	12.425908	-57.247682	180.050	-0.210	0.530	2.800	180.070	-0.900	3.300																			1580031357.0	9.08	16.82
26/01/2020 09:35:58	26012020	260120	093558	180.040	12.425867	-57.247687	180.020	-0.150	0.270	2.260	180.040	-1.100	2.700																			1580031358.0	9.23	17.09
26/01/2020 09:35:59	26012020	260120	093559	180.060	12.425823	-57.247690	180.050	0.020	-0.120	1.460	180.070	-1.500	2.000																			1580031359.0	9.39	17.39
26/01/2020 09:36:00	26012020	260120	093600	180.140	12.425780	-57.247692	180.140	0.140	-0.410	0.560	180.170	-1.800	1.100	1013.90	25.50	25.60	19.40	19.50	-1.00	69.00	69.00	386.00	25.20	306.00	8.40	93.00	6.80	14	3233.00	27.40	27.30	1580031360.0	9.29	17.21
26/01/2020 09:36:01	26012020	260120	093601	180.270	12.425737	-57.247693	180.270	0.150	-0.540	-0.300	180.300	-2.000	0.200																			1580031361.0	9.13	16.91
26/01/2020 09:36:02	26012020	260120	093602	180.410	12.425695	-57.247695	180.400	0.090	-0.540	-0.920	180.440	-2.000	-0.400																			1580031362.0	8.98	16.63
26/01/2020 09:36:03	26012020	260120	093603	180.550	12.425653	-57.247697	180.560	0.040	-0.410	-1.200	180.590	-1.800	-0.700																			1580031363.0	8.94	16.56
26/01/2020 09:36:04	26012020	260120	093604	180.750	12.425613	-57.247700	180.760	0.020	-0.170	-1.170	180.790	-1.600	-0.700																			1580031364.0	8.92	16.52
26/01/2020 09:36:05	26012020	260120	093605	180.900	12.425572	-57.247703	180.870	-0.000	0.020	-0.760	180.910	-1.400	-0.400																			1580031365.0	8.90	16.48
26/01/2020 09:36:06	26012020	260120	093606	180.930	12.425530	-57.247710	180.890	-0.000	0.080	0.020	180.920	-1.300	0.400																			1580031366.0	9.06	16.78
26/01/2020 09:36:07	26012020	260120	093607	180.860	12.425488	-57.247718	180.790	0.060	0.080	1.050	180.840	-1.300	1.400																			1580031367.0	9.20	17.04
26/01/2020 09:36:08	26012020	260120	093608	180.650	12.425445	-57.247727	180.560	0.160	0.020	2.130	180.610	-1.400	2.500																			1580031368.0	9.19	17.02
26/01/2020 09:36:09	26012020	260120	093609	180.350	12.425403	-57.247737	180.250	0.230	-0.210	3.090	180.290	-1.600	3.500																			1580031369.0	9.27	17.17
26/01/2020 09:36:10	26012020	260120	093610	180.040	12.425362	-57.247747	179.980	0.210	-0.490	3.700	179.980	-1.900	4.100																			1580031370.0	9.43	17.46
26/01/2020 09:36:11	26012020	260120	093611	179.880	12.425318	-57.247755	179.900	0.100	-0.600	3.740	179.870	-2.000	4.200																			1580031371.0	9.35	17.32
26/01/2020 09:36:12	26012020	260120	093612	179.910	12.425277	-57.247762	179.950	-0.050	-0.570	3.210	179.940	-2.000	3.700																			1580031372.0	9.09	16.83
26/01/2020 09:36:13	26012020	260120	093613	180.040	12.425235	-57.247765	180.070	-0.150	-0.540	2.290	180.070	-2.000	2.800																			1580031373.0	9.00	16.67
26/01/2020 09:36:14	26012020	260120	093614	180.200	12.425192	-57.247767	180.240	-0.170	-0.480	1.130	180.240	-1.900	1.700																			1580031374.0	9.10	16.85
26/01/2020 09:36:15	26012020	260120	093615	180.420	12.425150	-57.247765	180.450	-0.190	-0.340	-0.100	180.480	-1.800	0.400																			1580031375.0	9.17	16.98
26/01/2020 09:36:16	26012020	260120	093616	180.680	12.425107	-57.247763	180.670	-0.240	-0.160	-1.130	180.720	-1.600	-0.600																			1580031376.0	9.18	17.00
26/01/2020 09:36:17	26012020	260120	093617	180.840	12.425065	-57.247762	180.780	-0.270	-0.000	-1.680	180.860	-1.400	-1.200																			1580031377.0	9.19	17.02
26/01/2020 09:36:18	26012020	260120	093618	180.920	12.425022	-57.247763	180.860	-0.250	0.170	-1.620	180.930	-1.200	-1.200																			1580031378.0	9.21	17.06
26/01/2020 09:36:19	26012020	260120	093619	180.950	12.424980	-57.247768	180.840	-0.190	0.320	-0.920	180.940	-1.100	-0.500																			1580031379.0	9.15	16.95
26/01/2020 09:36:20	26012020	260120	093620	180.780	12.424937	-57.247777	180.630	-0.070	0.320	0.360	180.720	-1.100	0.700																			1580031380.0	9.23	17.09
26/01/2020 09:36:21	26012020	260120	093621	180.500	12.424895	-57.247790	180.420	0.130	0.250	1.720	180.460	-1.200	2.100																			1580031381.0	9.44	17.48
26/01/2020 09:36:22	26012020	260120	093622	180.310	12.424853	-57.247802	180.270	0.340	0.140	2.800	180.280	-1.300	3.200																			1580031382.0	9.38	17.37
26/01/2020 09:36:23	26012020	260120	093623	180.220	12.424812	-57.247813	180.220	0.440	-0.060	3.340	180.210	-1.400	3.700																			1580031383.0	9.19	17.02
26/01/2020 09:36:24	26012020	260120	093624	180.240	12.424770	-57.247822	180.290	0.420	-0.360	3.280	180.270	-1.700	3.700																			1580031384.0	9.02	16.71
26/01/2020 09:36:25	26012020	260120	093625	180.420	12.424730	-57.247825	180.490	0.320	-0.720	2.670	180.470	-2.100	3.200																			1580031385.0	8.97	16.61
26/01/2020 09:36:26	26012020	260120	093626	180.680	12.424687	-57.247827	180.730	0.210	-1.110	1.720	180.730	-2.500	2.200																			1580031386.0	9.05	16.76
26/01/2020 09:36:27	26012020	260120	093627	180.860	12.424645	-57.247827	180.840	0.080	-1.360	0.790	180.870	-2.800	1.300																			1580031387.0	9.23	17.09
26/01/2020 09:36:28	26012020	260120	093628	180.890	12.424602	-57.247827	180.830	-0.090	-1.180	0.010	180.880	-2.600	0.500																			1580031388.0	9.30	17.22
26/01/2020 09:36:29	26012020	260120	093629	180.860	12.424558	-57.247827	180.810	-0.340	-0.550	-0.560	180.860	-2.000	-0.100																			1580031389.0	9.07	16.80
26/01/2020 09:36:30	26012020	260120	093630	180.890	12.424517	-57.247828	180.840	-0.610	0.110	-0.750	180.890	-1.300	-0.300																			1580031390.0	8.91	16.50
26/01/2020 09:36:31	26012020	260120	093631	180.850	12.424475	-57.247833	180.740	-0.730	0.430	-0.440	180.820	-1.000	-0.000																			1580031391.0	9.15	16.95
26/01/2020 09:36:32	26012020	260120	093632	180.660	12.424432	-57.247842	180.560	-0.610	0.530	0.200	180.620	-0.900	0.600																			1580031392.0	9.64	17.85
26/01/2020 09:36:33	26012020	260120	093633	180.510	12.424387	-57.247852	180.490	-0.310	0.760	0.890	180.500	-0.700	1.300																			1580031393.0	9.69	17.95
26/01/2020 09:36:34	26012020	260120	093634	180.570	12.424345	-57.247862	180.640	0.040	1.030	1.370	180.610	-0.400	1.800																			1580031394.0	9.21	17.06
26/01/2020 09:36:35	26012020	260120	093635	180.760	12.424305	-57.247868	180.830	0.350	0.870	1.670	180.800	-0.500	2.100																			1580031395.0	8.84	16.37
26/01/2020 09:36:36	26012020	260120	093636	180.840	12.424263	-57.247875	180.820	0.610	0.090	1.930	180.820	-1.200	2.400																			1580031396.0	9.00	16.67
26/01/2020 09:36:37	26012020	260120	093637	180.730	12.424220	-57.247882	180.700	0.780	-0.880	2.080	180.700	-2.200	2.500																			1580031397.0	9.39	17.39
26/01/2020 09:36:38	26012020	260120	093638	180.630	12.424177	-57.247887	180.620	0.750	-1.410	2.000	180.610	-2.800	2.500																			1580031398.0	9.30	17.22
26/01/2020 09:36:39	26012020	260120	093639	180.580	12.424137	-57.247892	180.590	0.460	-1.390	1.770	180.580	-2.800	2.200																			1580031399.0	8.84	16.37
26/01/2020 09:36:40	26012020	260120	093640	180.590	12.424097	-57.247895	180.610	0.010	-1.080	1.410	180.590	-2.500	1.900																			1580031400.0	8.53	15.80
26/01/2020 09:36:41	26012020	260120	093641	180.670	12.424057	-57.247898	180.710	-0.330	-0.740	0.930	180.690	-2.200	1.400																			1580031401.0	8.63	15.98
26/01/2020 09:36:42	26012020	260120	093642	180.800	12.424015	-57.247902	180.810	-0.450	-0.440	0.480	180.810	-1.900	1.000																			1580031402.0	8.87	16.43
26/01/2020 09:36:43	26012020	260120	093643	180.850	12.423973	-57.247905	180.820	-0.410	-0.220	0.200	180.850	-1.600	0.700																			1580031403.0	9.13	16.91
26/01/2020 09:36:44	26012020	260120	093644	180.800	12.423930	-57.247910	180.720	-0.360	-0.060	0.200	180.770	-1.500	0.600																			1580031404.0	9.31	17.24
26/01/2020 09:36:45	26012020	260120	093645	180.600	12.423887	-57.247915	180.500	-0.350	0.100	0.490	180.560	-1.300	0.900																			1580031405.0	9.43	17.46
26/01/2020 09:36:46	26012020	260120	093646	180.400	12.423843	-57.247922	180.360	-0.370	0.430	0.900	180.380	-1.000	1.300																			1580031406.0	9.36	17.33
26/01/2020 09:36:47	26012020	260120	093647	180.370	12.423803	-57.247928	180.410	-0.380	0.900	1.240	180.390	-0.500	1.700																			1580031407.0	8.98	16.63
26/01/2020 09:36:48	26012020	260120	093648	180.520	12.423763	-57.247937	180.580	-0.270	1.100	1.390	180.560	-0.300	1.800																			1580031408.0	8.60	15.93
26/01/2020 09:36:49	26012020	260120	093649	180.680	12.423723	-57.247943	180.670	0.050	0.650	1.430	180.690	-0.700	1.900																			1580031409.0	8.65	16.02
26/01/2020 09:36:50	26012020	260120	093650	180.640	12.423682	-57.247948	180.580	0.530	-0.300	1.430	180.620	-1.600	1.900																			1580031410.0	9.10	16.85
26/01/2020 09:36:51	26012020	260120	093651	180.520	12.423638	-57.247953	180.470	0.880	-1.050	1.330	180.500	-2.400	1.800																			1580031411.0	9.29	17.21
26/01/2020 09:36:52	26012020	260120	093652	180.420	12.423598	-57.247957	180.370	0.870	-1.250	1.200	180.400	-2.600	1.700																			1580031412.0	8.87	16.43
26/01/2020 09:36:53	26012020	260120	093653	180.280	12.423558	-57.247960	180.220	0.550	-1.100	1.090	180.250	-2.500	1.500																			1580031413.0	8.42	15.59
26/01/2020 09:36:54	26012020	260120	093654	180.170	12.423520	-57.247963	180.160	0.090	-0.830	0.970	180.160	-2.200	1.400																			1580031414.0	8.43	15.61
26/01/2020 09:36:55	26012020	260120	093655	180.210	12.423480	-57.247968	180.250	-0.330	-0.520	0.930	180.240	-1.900	1.400																			1580031415.0	8.60	15.93
26/01/2020 09:36:56	26012020	260120	093656	180.360	12.423440	-57.247975	180.420	-0.580	-0.210	0.920	180.400	-1.600	1.400																			1580031416.0	8.77	16.24
26/01/2020 09:36:57	26012020	260120	093657	180.510	12.423398	-57.247982	180.530	-0.610	0.060	0.960	180.530	-1.400	1.400																			1580031417.0	8.85	16.39
26/01/2020 09:36:58	26012020	260120	093658	180.510	12.423358	-57.247988	180.480	-0.440	0.210	1.110	180.500	-1.200	1.500																			1580031418.0	8.92	16.52
26/01/2020 09:36:59	26012020	260120	093659	180.440	12.423317	-57.247993	180.430	-0.230	0.310	1.210	180.430	-1.100	1.700																			1580031419.0	9.00	16.67
26/01/2020 09:37:00	26012020	260120	093700	180.460	12.423275	-57.247998	180.490	-0.060	0.420	1.140	180.470	-1.000	1.600	1013.90	25.50	25.60	19.50	19.60	-1.00	69.00	69.00	387.00	25.20	306.00	9.80	98.00	8.00	14	3246.00	27.40	27.30	1580031420.0	8.86	16.41
26/01/2020 09:37:01	26012020	260120	093701	180.510	12.423235	-57.248003	180.490	0.070	0.350	1.100	180.500	-1.000	1.500																			1580031421.0	8.64	16.00
26/01/2020 09:37:02	26012020	260120	093702	180.400	12.423195	-57.248008	180.330	0.230	-0.020	1.120	180.360	-1.400	1.600																			1580031422.0	8.71	16.13
26/01/2020 09:37:03	26012020	260120	093703	180.230	12.423155	-57.248013	180.170	0.350	-0.430	1.110	180.200	-1.800	1.600																			1580031423.0	8.89	16.46
26/01/2020 09:37:04	26012020	260120	093704	180.110	12.423113	-57.248017	180.070	0.330	-0.630	1.110	180.090	-2.000	1.600																			1580031424.0	8.77	16.24
26/01/2020 09:37:05	26012020	260120	093705	179.990	12.423075	-57.248022	179.940	0.190	-0.670	1.180	179.960	-2.100	1.600																			1580031425.0	8.58	15.89
26/01/2020 09:37:06	26012020	260120	093706	179.860	12.423035	-57.248028	179.850	0.010	-0.610	1.270	179.850	-2.000	1.700																			1580031426.0	8.56	15.85
26/01/2020 09:37:07	26012020	260120	093707	179.830	12.422995	-57.248035	179.850	-0.120	-0.430	1.300	179.830	-1.800	1.700																			1580031427.0	8.58	15.89
26/01/2020 09:37:08	26012020	260120	093708	179.910	12.422957	-57.248040	180.000	-0.160	-0.180	1.180	179.960	-1.600	1.600																			1580031428.0	8.54	15.82
26/01/2020 09:37:09	26012020	260120	093709	180.210	12.422917	-57.248043	180.340	-0.160	0.010	0.850	180.280	-1.400	1.300																			1580031429.0	8.51	15.76
26/01/2020 09:37:10	26012020	260120	093710	180.530	12.422877	-57.248048	180.590	-0.110	0.050	0.600	180.570	-1.400	1.100																			1580031430.0	8.52	15.78
26/01/2020 09:37:11	26012020	260120	093711	180.650	12.422837	-57.248052	180.640	-0.020	-0.080	0.570	180.650	-1.500	1.000																			1580031431.0	8.66	16.04
26/01/2020 09:37:12	26012020	260120	093712	180.600	12.422797	-57.248055	180.540	0.050	-0.160	0.710	180.570	-1.600	1.200																			1580031432.0	8.75	16.21
26/01/2020 09:37:13	26012020	260120	093713	180.450	12.422757	-57.248060	180.380	0.010	-0.140	1.000	180.410	-1.600	1.400																			1580031433.0	8.65	16.02
26/01/2020 09:37:14	26012020	260120	093714	180.230	12.422717	-57.248067	180.150	-0.090	-0.110	1.400	180.180	-1.500	1.800																			1580031434.0	8.56	15.85
26/01/2020 09:37:15	26012020	260120	093715	180.020	12.422678	-57.248073	179.990	-0.130	-0.050	1.700	179.990	-1.500	2.100																			1580031435.0	8.59	15.91
26/01/2020 09:37:16	26012020	260120	093716	179.930	12.422640	-57.248082	179.930	-0.010	0.000	1.810	179.920	-1.400	2.200																			1580031436.0	8.48	15.70
26/01/2020 09:37:17	26012020	260120	093717	179.850	12.422600	-57.248088	179.840	0.190	-0.130	1.780	179.840	-1.500	2.200																			1580031437.0	8.45	15.65
26/01/2020 09:37:18	26012020	260120	093718	179.780	12.422562	-57.248093	179.780	0.290	-0.360	1.570	179.770	-1.800	2.000																			1580031438.0	8.59	15.91
26/01/2020 09:37:19	26012020	260120	093719	179.810	12.422522	-57.248097	179.860	0.240	-0.460	1.160	179.840	-1.900	1.700																			1580031439.0	8.58	15.89
26/01/2020 09:37:20	26012020	260120	093720	179.960	12.422483	-57.248100	180.000	0.110	-0.400	0.680	180.000	-1.800	1.200																			1580031440.0	8.35	15.46
26/01/2020 09:37:21	26012020	260120	093721	180.110	12.422445	-57.248102	180.130	0.010	-0.360	0.250	180.140	-1.800	0.700																			1580031441.0	8.24	15.26
26/01/2020 09:37:22	26012020	260120	093722	180.270	12.422405	-57.248105	180.300	-0.030	-0.420	-0.050	180.300	-1.800	0.400																			1580031442.0	8.40	15.56
26/01/2020 09:37:23	26012020	260120	093723	180.450	12.422365	-57.248107	180.470	-0.080	-0.470	-0.090	180.480	-1.900	0.400																			1580031443.0	8.57	15.87
26/01/2020 09:37:24	26012020	260120	093724	180.590	12.422327	-57.248112	180.590	-0.150	-0.350	0.130	180.610	-1.800	0.600																			1580031444.0	8.58	15.89
26/01/2020 09:37:25	26012020	260120	093725	180.640	12.422287	-57.248117	180.610	-0.260	-0.100	0.570	180.640	-1.500	1.000																			1580031445.0	8.46	15.67
26/01/2020 09:37:26	26012020	260120	093726	180.610	12.422248	-57.248123	180.570	-0.360	0.170	1.190	180.590	-1.300	1.600																			1580031446.0	8.40	15.56
26/01/2020 09:37:27	26012020	260120	093727	180.490	12.422210	-57.248133	180.420	-0.330	0.220	1.890	180.450	-1.200	2.300																			1580031447.0	8.49	15.72
26/01/2020 09:37:28	26012020	260120	093728	180.250	12.422170	-57.248142	180.170	-0.130	0.070	2.460	180.200	-1.300	2.900																			1580031448.0	8.72	16.15
26/01/2020 09:37:29	26012020	260120	093729	179.990	12.422130	-57.248150	179.920	0.130	-0.000	2.710	179.940	-1.400	3.100																			1580031449.0	8.73	16.17
26/01/2020 09:37:30	26012020	260120	093730	179.780	12.422092	-57.248157	179.730	0.260	0.080	2.590	179.740	-1.300	3.100																			1580031450.0	8.42	15.59
26/01/2020 09:37:31	26012020	260120	093731	179.670	12.422055	-57.248160	179.650	0.250	0.180	2.050	179.660	-1.200	2.500																			1580031451.0	8.07	14.95
26/01/2020 09:37:32	26012020	260120	093732	179.670	12.422018	-57.248163	179.670	0.220	0.030	1.260	179.680	-1.400	1.800																			1580031452.0	7.98	14.78
26/01/2020 09:37:33	26012020	260120	093733	179.760	12.421980	-57.248165	179.770	0.290	-0.360	0.370	179.790	-1.700	0.900																			1580031453.0	8.16	15.11
26/01/2020 09:37:34	26012020	260120	093734	179.980	12.421940	-57.248165	180.030	0.370	-0.790	-0.440	180.050	-2.200	0.100																			1580031454.0	8.38	15.52
26/01/2020 09:37:35	26012020	260120	093735	180.260	12.421902	-57.248167	180.280	0.300	-1.070	-0.870	180.310	-2.500	-0.400																			1580031455.0	8.42	15.59
26/01/2020 09:37:36	26012020	260120	093736	180.470	12.421863	-57.248170	180.470	0.050	-1.060	-0.890	180.500	-2.500	-0.400																			1580031456.0	8.38	15.52
26/01/2020 09:37:37	26012020	260120	093737	180.610	12.421825	-57.248173	180.590	-0.290	-0.740	-0.570	180.630	-2.200	-0.100																			1580031457.0	8.26	15.30
26/01/2020 09:37:38	26012020	260120	093738	180.620	12.421787	-57.248180	180.550	-0.510	-0.360	0.050	180.600	-1.800	0.500																			1580031458.0	8.24	15.26
26/01/2020 09:37:39	26012020	260120	093739	180.510	12.421748	-57.248188	180.460	-0.550	0.030	0.800	180.490	-1.400	1.200																			1580031459.0	8.44	15.63
26/01/2020 09:37:40	26012020	260120	093740	180.400	12.421710	-57.248197	180.350	-0.450	0.350	1.600	180.370	-1.100	2.000																			1580031460.0	8.53	15.80
26/01/2020 09:37:41	26012020	260120	093741	180.220	12.421670	-57.248205	180.140	-0.290	0.530	2.400	180.170	-0.900	2.800																			1580031461.0	8.59	15.91
26/01/2020 09:37:42	26012020	260120	093742	179.950	12.421632	-57.248213	179.900	-0.120	0.620	3.050	179.900	-0.800	3.400																			1580031462.0	8.63	15.98
26/01/2020 09:37:43	26012020	260120	093743	179.760	12.421593	-57.248222	179.760	-0.000	0.670	3.300	179.750	-0.700	3.700																			1580031463.0	8.46	15.67
26/01/2020 09:37:44	26012020	260120	093744	179.750	12.421555	-57.248228	179.770	0.090	0.560	2.990	179.760	-0.800	3.500																			1580031464.0	8.14	15.08
26/01/2020 09:37:45	26012020	260120	093745	179.790	12.421518	-57.248233	179.760	0.270	0.120	2.270	179.790	-1.300	2.800																			1580031465.0	7.98	14.78
26/01/2020 09:37:46	26012020	260120	093746	179.720	12.421480	-57.248235	179.630	0.560	-0.580	1.290	179.690	-1.900	1.800																			1580031466.0	8.14	15.08
26/01/2020 09:37:47	26012020	260120	093747	179.600	12.421442	-57.248235	179.500	0.740	-1.100	0.130	179.580	-2.500	0.700																			1580031467.0	8.28	15.33
26/01/2020 09:37:48	26012020	260120	093748	179.520	12.421405	-57.248235	179.420	0.620	-1.190	-0.910	179.510	-2.600	-0.400																			1580031468.0	8.07	14.95
26/01/2020 09:37:49	26012020	260120	093749	179.470	12.421368	-57.248235	179.380	0.230	-0.970	-1.640	179.470	-2.400	-1.100																			1580031469.0	7.81	14.46
26/01/2020 09:37:50	26012020	260120	093750	179.480	12.421332	-57.248237	179.400	-0.190	-0.690	-1.990	179.480	-2.100	-1.500																			1580031470.0	7.77	14.39
26/01/2020 09:37:51	26012020	260120	093751	179.460	12.421295	-57.248240	179.350	-0.480	-0.550	-1.750	179.440	-2.000	-1.300																			1580031471.0	8.05	14.91
26/01/2020 09:37:52	26012020	260120	093752	179.300	12.421257	-57.248245	179.180	-0.580	-0.430	-1.030	179.250	-1.800	-0.600																			1580031472.0	8.48	15.70
26/01/2020 09:37:53	26012020	260120	093753	179.010	12.421217	-57.248255	178.860	-0.550	-0.150	-0.020	178.930	-1.600	0.400																			1580031473.0	8.64	16.00
26/01/2020 09:37:54	26012020	260120	093754	178.530	12.421178	-57.248265	178.330	-0.480	0.260	1.120	178.410	-1.200	1.500																			1580031474.0	8.55	15.83
26/01/2020 09:37:55	26012020	260120	093755	177.870	12.421140	-57.248275	177.650	-0.380	0.610	2.150	177.720	-0.800	2.500																			1580031475.0	8.43	15.61
26/01/2020 09:37:56	26012020	260120	093756	177.080	12.421103	-57.248283	176.810	-0.230	0.760	2.920	176.900	-0.600	3.300																			1580031476.0	8.35	15.46
26/01/2020 09:37:57	26012020	260120	093757	176.130	12.421065	-57.248292	175.820	0.010	0.670	3.340	175.930	-0.700	3.800																			1580031477.0	8.29	15.35
26/01/2020 09:37:58	26012020	260120	093758	175.080	12.421027	-57.248298	174.720	0.290	0.390	3.340	174.860	-1.000	3.800																			1580031478.0	8.19	15.17
26/01/2020 09:37:59	26012020	260120	093759	173.980	12.420990	-57.248303	173.620	0.540	0.020	2.880	173.760	-1.300	3.400																			1580031479.0	8.02	14.85
26/01/2020 09:38:00	26012020	260120	093800	172.990	12.420953	-57.248303	172.690	0.630	-0.310	1.990	172.810	-1.700	2.500	1014.00	25.50	25.60	19.50	19.50	-1.00	69.00	69.00	387.00	25.20	307.00	9.00	98.00	7.30	14	3222.00	27.40	27.40	1580031480.0	7.78	14.41
26/01/2020 09:38:01	26012020	260120	093801	172.180	12.420920	-57.248303	171.910	0.530	-0.560	0.920	172.040	-1.900	1.400																			1580031481.0	7.47	13.83
26/01/2020 09:38:02	26012020	260120	093802	171.440	12.420885	-57.248302	171.130	0.320	-0.810	-0.030	171.280	-2.200	0.500																			1580031482.0	7.29	13.50
26/01/2020 09:38:03	26012020	260120	093803	170.570	12.420852	-57.248300	170.190	0.160	-1.050	-0.610	170.370	-2.400	-0.100																			1580031483.0	7.37	13.65
26/01/2020 09:38:04	26012020	260120	093804	169.540	12.420817	-57.248300	169.120	0.060	-1.110	-0.770	169.320	-2.500	-0.300																			1580031484.0	7.54	13.96
26/01/2020 09:38:05	26012020	260120	093805	168.450	12.420782	-57.248302	168.020	0.000	-0.860	-0.630	168.230	-2.300	-0.200																			1580031485.0	7.54	13.96
26/01/2020 09:38:06	26012020	260120	093806	167.380	12.420747	-57.248303	166.960	-0.080	-0.410	-0.180	167.160	-1.800	0.200																			1580031486.0	7.45	13.80
26/01/2020 09:38:07	26012020	260120	093807	166.280	12.420712	-57.248305	165.850	-0.230	0.070	0.610	166.050	-1.300	1.000																			1580031487.0	7.49	13.87
26/01/2020 09:38:08	26012020	260120	093808	165.140	12.420677	-57.248308	164.690	-0.410	0.450	1.690	164.890	-0.900	2.000																			1580031488.0	7.67	14.20
26/01/2020 09:38:09	26012020	260120	093809	163.900	12.420640	-57.248313	163.410	-0.480	0.660	2.810	163.630	-0.700	3.200																			1580031489.0	7.89	14.61
26/01/2020 09:38:10	26012020	260120	093810	162.540	12.420603	-57.248318	162.060	-0.380	0.690	3.710	162.260	-0.700	4.100																			1580031490.0	7.95	14.72
26/01/2020 09:38:11	26012020	260120	093811	161.210	12.420567	-57.248323	160.760	-0.160	0.600	4.120	160.950	-0.800	4.500																			1580031491.0	7.76	14.37
26/01/2020 09:38:12	26012020	260120	093812	159.940	12.420533	-57.248323	159.470	0.100	0.340	3.980	159.680	-1.000	4.400																			1580031492.0	7.38	13.67
26/01/2020 09:38:13	26012020	260120	093813	158.610	12.420500	-57.248320	158.140	0.340	-0.060	3.420	158.360	-1.400	3.900																			1580031493.0	7.10	13.15
26/01/2020 09:38:14	26012020	260120	093814	157.310	12.420468	-57.248315	156.850	0.470	-0.430	2.550	157.080	-1.800	3.100																			1580031494.0	6.86	12.70
26/01/2020 09:38:15	26012020	260120	093815	156.140	12.420438	-57.248308	155.720	0.430	-0.590	1.450	155.930	-1.900	2.000																			1580031495.0	6.54	12.11
26/01/2020 09:38:16	26012020	260120	093816	155.110	12.420412	-57.248300	154.660	0.280	-0.580	0.390	154.900	-1.900	0.900																			1580031496.0	6.17	11.43
26/01/2020 09:38:17	26012020	260120	093817	154.040	12.420385	-57.248292	153.550	0.140	-0.590	-0.320	153.820	-1.900	0.200																			1580031497.0	6.04	11.19
26/01/2020 09:38:18	26012020	260120	093818	152.880	12.420357	-57.248285	152.330	0.050	-0.660	-0.510	152.620	-2.000	-0.000																			1580031498.0	6.25	11.58
26/01/2020 09:38:19	26012020	260120	093819	151.580	12.420327	-57.248278	151.020	0.010	-0.630	-0.190	151.310	-2.000	0.200																			1580031499.0	6.53	12.09
26/01/2020 09:38:20	26012020	260120	093820	150.260	12.420297	-57.248275	149.730	-0.080	-0.330	0.470	150.000	-1.700	0.900																			1580031500.0	6.62	12.26
26/01/2020 09:38:21	26012020	260120	093821	148.960	12.420267	-57.248272	148.420	-0.200	0.080	1.360	148.680	-1.300	1.800																			1580031501.0	6.51	12.06
26/01/2020 09:38:22	26012020	260120	093822	147.580	12.420235	-57.248270	147.060	-0.240	0.310	2.320	147.310	-1.100	2.700																			1580031502.0	6.64	12.30
26/01/2020 09:38:23	26012020	260120	093823	146.290	12.420203	-57.248267	145.850	-0.210	0.380	3.050	146.050	-1.000	3.500																			1580031503.0	6.81	12.61
26/01/2020 09:38:24	26012020	260120	093824	145.200	12.420173	-57.248262	144.840	-0.200	0.440	3.370	145.000	-0.900	3.800																			1580031504.0	6.64	12.30
26/01/2020 09:38:25	26012020	260120	093825	144.250	12.420145	-57.248257	143.890	-0.190	0.430	3.300	144.060	-0.900	3.800																			1580031505.0	6.21	11.50
26/01/2020 09:38:26	26012020	260120	093826	143.190	12.420118	-57.248250	142.750	-0.090	0.200	2.990	142.970	-1.100	3.500																			1580031506.0	5.89	10.91
26/01/2020 09:38:27	26012020	260120	093827	141.980	12.420093	-57.248240	141.510	0.110	-0.200	2.480	141.750	-1.500	3.000																			1580031507.0	5.81	10.76
26/01/2020 09:38:28	26012020	260120	093828	140.790	12.420068	-57.248228	140.340	0.290	-0.510	1.810	140.560	-1.800	2.300																			1580031508.0	5.71	10.57
26/01/2020 09:38:29	26012020	260120	093829	139.660	12.420047	-57.248217	139.180	0.320	-0.590	1.210	139.430	-1.900	1.700																			1580031509.0	5.44	10.07
26/01/2020 09:38:30	26012020	260120	093830	138.520	12.420025	-57.248207	138.030	0.190	-0.460	0.820	138.290	-1.800	1.300																			1580031510.0	5.22	9.67
26/01/2020 09:38:31	26012020	260120	093831	137.430	12.420003	-57.248197	136.970	-0.020	-0.210	0.640	137.220	-1.600	1.100																			1580031511.0	5.09	9.43
26/01/2020 09:38:32	26012020	260120	093832	136.400	12.419980	-57.248188	135.940	-0.170	-0.040	0.630	136.190	-1.400	1.100																			1580031512.0	5.14	9.52
26/01/2020 09:38:33	26012020	260120	093833	135.390	12.419957	-57.248178	134.950	-0.190	-0.040	0.760	135.180	-1.400	1.200																			1580031513.0	5.31	9.83
26/01/2020 09:38:34	26012020	260120	093834	134.370	12.419933	-57.248170	133.930	-0.100	-0.140	1.060	134.170	-1.500	1.500																			1580031514.0	5.47	10.13
26/01/2020 09:38:35	26012020	260120	093835	133.340	12.419910	-57.248160	132.920	0.010	-0.250	1.420	133.130	-1.600	1.900																			1580031515.0	5.55	10.28
26/01/2020 09:38:36	26012020	260120	093836	132.340	12.419887	-57.248150	131.940	0.060	-0.250	1.760	132.130	-1.600	2.200																			1580031516.0	5.46	10.11
26/01/2020 09:38:37	26012020	260120	093837	131.360	12.419863	-57.248140	130.990	0.010	-0.080	2.060	131.160	-1.400	2.500																			1580031517.0	5.22	9.67
26/01/2020 09:38:38	26012020	260120	093838	130.380	12.419843	-57.248130	130.030	-0.130	0.180	2.260	130.190	-1.200	2.700																			1580031518.0	4.99	9.24
26/01/2020 09:38:39	26012020	260120	093839	129.440	12.419823	-57.248120	129.100	-0.240	0.300	2.250	129.270	-1.000	2.700																			1580031519.0	4.84	8.96
26/01/2020 09:38:40	26012020	260120	093840	128.540	12.419803	-57.248110	128.200	-0.240	0.190	2.120	128.350	-1.100	2.600																			1580031520.0	4.83	8.95
26/01/2020 09:38:41	26012020	260120	093841	127.590	12.419783	-57.248098	127.220	-0.130	-0.080	1.980	127.390	-1.400	2.400																			1580031521.0	4.88	9.04
26/01/2020 09:38:42	26012020	260120	093842	126.560	12.419763	-57.248087	126.170	0.010	-0.390	1.800	126.340	-1.700	2.300																			1580031522.0	4.92	9.11
26/01/2020 09:38:43	26012020	260120	093843	125.530	12.419745	-57.248073	125.150	0.080	-0.530	1.530	125.330	-1.800	2.000																			1580031523.0	4.82	8.93
26/01/2020 09:38:44	26012020	260120	093844	124.600	12.419728	-57.248060	124.280	0.030	-0.320	1.200	124.440	-1.600	1.700																			1580031524.0	4.54	8.41
26/01/2020 09:38:45	26012020	260120	093845	123.830	12.419712	-57.248050	123.530	-0.060	0.100	0.850	123.680	-1.200	1.300																			1580031525.0	4.15	7.69
26/01/2020 09:38:46	26012020	260120	093846	123.100	12.419697	-57.248038	122.770	-0.090	0.300	0.500	122.940	-1.000	1.000																			1580031526.0	3.94	7.30
26/01/2020 09:38:47	26012020	260120	093847	122.280	12.419682	-57.248027	121.900	0.020	0.060	0.300	122.100	-1.200	0.800																			1580031527.0	4.13	7.65
26/01/2020 09:38:48	26012020	260120	093848	121.340	12.419665	-57.248013	120.920	0.190	-0.360	0.400	121.140	-1.600	0.800																			1580031528.0	4.52	8.37
26/01/2020 09:38:49	26012020	260120	093849	120.360	12.419650	-57.248000	119.950	0.250	-0.550	0.730	120.160	-1.900	1.200																			1580031529.0	4.61	8.54
26/01/2020 09:38:50	26012020	260120	093850	119.420	12.419633	-57.247987	119.070	0.120	-0.410	1.180	119.250	-1.700	1.600																			1580031530.0	4.39	8.13
26/01/2020 09:38:51	26012020	260120	093851	118.610	12.419617	-57.247977	118.320	-0.110	-0.120	1.660	118.470	-1.400	2.100																			1580031531.0	4.23	7.83
26/01/2020 09:38:52	26012020	260120	093852	117.790	12.419598	-57.247967	117.470	-0.270	0.080	2.180	117.610	-1.200	2.600																			1580031532.0	4.28	7.93
26/01/2020 09:38:53	26012020	260120	093853	116.860	12.419582	-57.247957	116.560	-0.270	0.120	2.530	116.680	-1.200	2.900																			1580031533.0	4.40	8.15
26/01/2020 09:38:54	26012020	260120	093854	116.010	12.419565	-57.247945	115.730	-0.190	0.050	2.490	115.850	-1.200	2.900																			1580031534.0	4.33	8.02
26/01/2020 09:38:55	26012020	260120	093855	115.250	12.419550	-57.247932	115.010	-0.110	-0.030	2.150	115.120	-1.300	2.600																			1580031535.0	4.15	7.69
26/01/2020 09:38:56	26012020	260120	093856	114.630	12.419537	-57.247918	114.400	-0.100	0.040	1.610	114.520	-1.300	2.100																			1580031536.0	3.91	7.24
26/01/2020 09:38:57	26012020	260120	093857	114.050	12.419527	-57.247907	113.770	-0.100	0.140	1.010	113.920	-1.200	1.500																			1580031537.0	3.53	6.54
26/01/2020 09:38:58	26012020	260120	093858	113.360	12.419517	-57.247893	113.000	0.030	-0.050	0.390	113.200	-1.300	0.900																			1580031538.0	3.37	6.24
26/01/2020 09:38:59	26012020	260120	093859	112.550	12.419507	-57.247878	112.150	0.270	-0.490	-0.090	112.380	-1.700	0.400																			1580031539.0	3.66	6.78
26/01/2020 09:39:00	26012020	260120	093900	111.680	12.419498	-57.247863	111.260	0.400	-0.710	-0.240	111.500	-2.000	0.200	1014.00	25.50	25.60	19.30	19.40	-1.00	68.00	68.00	386.00	25.10	331.00	8.70	97.00	6.60	14	3281.00	27.30	27.30	1580031540.0	3.89	7.20
26/01/2020 09:39:01	26012020	260120	093901	110.770	12.419487	-57.247850	110.350	0.220	-0.400	0.000	110.590	-1.700	0.400																			1580031541.0	3.66	6.78
26/01/2020 09:39:02	26012020	260120	093902	109.910	12.419475	-57.247840	109.520	-0.110	0.100	0.530	109.740	-1.200	0.900																			1580031542.0	3.41	6.32
26/01/2020 09:39:03	26012020	260120	093903	109.130	12.419460	-57.247830	108.790	-0.300	0.350	1.100	109.000	-0.900	1.500																			1580031543.0	3.56	6.59
26/01/2020 09:39:04	26012020	260120	093904	108.440	12.419447	-57.247820	108.110	-0.200	0.210	1.520	108.310	-1.100	1.900																			1580031544.0	3.82	7.07
26/01/2020 09:39:05	26012020	260120	093905	107.740	12.419433	-57.247807	107.410	0.070	-0.140	1.760	107.600	-1.400	2.200																			1580031545.0	3.98	7.37
26/01/2020 09:39:06	26012020	260120	093906	107.020	12.419420	-57.247793	106.680	0.260	-0.430	1.870	106.880	-1.700	2.300																			1580031546.0	3.92	7.26
26/01/2020 09:39:07	26012020	260120	093907	106.330	12.419410	-57.247780	106.000	0.210	-0.450	1.820	106.190	-1.700	2.300																			1580031547.0	3.65	6.76
26/01/2020 09:39:08	26012020	260120	093908	105.670	12.419402	-57.247767	105.330	-0.000	-0.200	1.630	105.540	-1.500	2.100																			1580031548.0	3.26	6.04
26/01/2020 09:39:09	26012020	260120	093909	104.990	12.419393	-57.247755	104.610	-0.230	0.160	1.350	104.850	-1.100	1.800																			1580031549.0	2.95	5.46
26/01/2020 09:39:10	26012020	260120	093910	104.280	12.419387	-57.247745	103.890	-0.370	0.390	1.070	104.140	-0.900	1.500																			1580031550.0	2.81	5.20
26/01/2020 09:39:11	26012020	260120	093911	103.580	12.419378	-57.247733	103.170	-0.370	0.210	0.870	103.440	-1.000	1.300																			1580031551.0	2.99	5.54
26/01/2020 09:39:12	26012020	260120	093912	102.870	12.419368	-57.247720	102.460	-0.220	-0.260	0.770	102.720	-1.500	1.200																			1580031552.0	3.44	6.37
26/01/2020 09:39:13	26012020	260120	093913	102.140	12.419358	-57.247705	101.750	0.020	-0.590	0.760	101.990	-1.900	1.200																			1580031553.0	3.68	6.82
26/01/2020 09:39:14	26012020	260120	093914	101.410	12.419350	-57.247692	101.070	0.260	-0.550	0.750	101.270	-1.800	1.200																			1580031554.0	3.47	6.43
26/01/2020 09:39:15	26012020	260120	093915	100.750	12.419342	-57.247680	100.460	0.380	-0.190	0.690	100.640	-1.500	1.100																			1580031555.0	2.99	5.54
26/01/2020 09:39:16	26012020	260120	093916	100.230	12.419337	-57.247668	100.020	0.340	0.190	0.580	100.160	-1.100	1.000																			1580031556.0	2.65	4.91
26/01/2020 09:39:17	26012020	260120	093917	99.890	12.419330	-57.247658	99.710	0.170	0.350	0.450	99.830	-0.900	0.900																			1580031557.0	2.60	4.82
26/01/2020 09:39:18	26012020	260120	093918	99.530	12.419325	-57.247647	99.290	-0.010	0.170	0.520	99.430	-1.100	0.900																			1580031558.0	2.80	5.19
26/01/2020 09:39:19	26012020	260120	093919	98.970	12.419317	-57.247633	98.690	-0.090	-0.280	0.920	98.830	-1.500	1.300																			1580031559.0	3.20	5.93
26/01/2020 09:39:20	26012020	260120	093920	98.310	12.419308	-57.247618	98.060	-0.040	-0.690	1.530	98.170	-1.900	1.900																			1580031560.0	3.57	6.61
26/01/2020 09:39:21	26012020	260120	093921	97.670	12.419298	-57.247605	97.460	0.070	-0.760	2.070	97.550	-2.000	2.500																			1580031561.0	3.60	6.67
26/01/2020 09:39:22	26012020	260120	093922	97.120	12.419288	-57.247593	96.940	0.080	-0.420	2.340	97.030	-1.700	2.800																			1580031562.0	3.33	6.17
26/01/2020 09:39:23	26012020	260120	093923	96.740	12.419282	-57.247582	96.670	-0.090	0.190	2.280	96.700	-1.100	2.700																			1580031563.0	2.87	5.32
26/01/2020 09:39:24	26012020	260120	093924	96.680	12.419275	-57.247572	96.710	-0.350	0.750	1.870	96.700	-0.600	2.300																			1580031564.0	2.44	4.52
26/01/2020 09:39:25	26012020	260120	093925	96.800	12.419272	-57.247562	96.790	-0.450	0.840	1.230	96.810	-0.400	1.700																			1580031565.0	2.31	4.28
26/01/2020 09:39:26	26012020	260120	093926	96.750	12.419268	-57.247548	96.630	-0.200	0.330	0.700	96.710	-0.900	1.200																			1580031566.0	2.65	4.91
26/01/2020 09:39:27	26012020	260120	093927	96.460	12.419265	-57.247535	96.280	0.250	-0.540	0.390	96.380	-1.800	0.900																			1580031567.0	3.20	5.93
26/01/2020 09:39:28	26012020	260120	093928	96.090	12.419262	-57.247518	95.940	0.540	-1.130	0.300	96.030	-2.400	0.800																			1580031568.0	3.46	6.41
26/01/2020 09:39:29	26012020	260120	093929	95.820	12.419257	-57.247505	95.700	0.450	-0.930	0.320	95.780	-2.200	0.800																			1580031569.0	3.01	5.57
26/01/2020 09:39:30	26012020	260120	093930	95.640	12.419253	-57.247495	95.510	0.110	-0.220	0.460	95.600	-1.500	0.900																			1580031570.0	2.27	4.20
26/01/2020 09:39:31	26012020	260120	093931	95.500	12.419248	-57.247487	95.420	-0.150	0.300	0.630	95.490	-1.000	1.100																			1580031571.0	2.05	3.80
26/01/2020 09:39:32	26012020	260120	093932	95.470	12.419243	-57.247475	95.420	-0.170	0.240	0.820	95.470	-1.000	1.300																			1580031572.0	2.48	4.59
26/01/2020 09:39:33	26012020	260120	093933	95.480	12.419238	-57.247462	95.440	-0.040	-0.180	1.110	95.480	-1.400	1.500																			1580031573.0	3.14	5.82
26/01/2020 09:39:34	26012020	260120	093934	95.480	12.419230	-57.247448	95.440	0.040	-0.380	1.440	95.470	-1.700	1.900																			1580031574.0	3.42	6.33
26/01/2020 09:39:35	26012020	260120	093935	95.450	12.419223	-57.247435	95.410	-0.010	-0.110	1.620	95.440	-1.400	2.000																			1580031575.0	3.07	5.69
26/01/2020 09:39:36	26012020	260120	093936	95.430	12.419218	-57.247425	95.420	-0.110	0.360	1.590	95.430	-0.900	2.000																			1580031576.0	2.43	4.50
26/01/2020 09:39:37	26012020	260120	093937	95.490	12.419215	-57.247415	95.510	-0.140	0.510	1.350	95.510	-0.800	1.800																			1580031577.0	2.12	3.93
26/01/2020 09:39:38	26012020	260120	093938	95.600	12.419213	-57.247403	95.610	-0.020	0.080	0.940	95.620	-1.200	1.400																			1580031578.0	2.42	4.48
26/01/2020 09:39:39	26012020	260120	093939	95.630	12.419212	-57.247390	95.560	0.170	-0.610	0.560	95.610	-1.800	1.000																			1580031579.0	2.99	5.54
26/01/2020 09:39:40	26012020	260120	093940	95.540	12.419208	-57.247375	95.450	0.220	-0.910	0.310	95.520	-2.200	0.800																			1580031580.0	3.13	5.80
26/01/2020 09:39:41	26012020	260120	093941	95.420	12.419205	-57.247363	95.320	0.080	-0.540	0.260	95.400	-1.800	0.700																			1580031581.0	2.64	4.89
26/01/2020 09:39:42	26012020	260120	093942	95.320	12.419202	-57.247355	95.210	-0.160	0.090	0.340	95.300	-1.200	0.800																			1580031582.0	2.06	3.82
26/01/2020 09:39:43	26012020	260120	093943	95.220	12.419197	-57.247347	95.120	-0.250	0.360	0.420	95.200	-0.900	0.900																			1580031583.0	2.01	3.72
26/01/2020 09:39:44	26012020	260120	093944	95.130	12.419193	-57.247335	94.990	-0.090	0.080	0.410	95.100	-1.200	0.900																			1580031584.0	2.49	4.61
26/01/2020 09:39:45	26012020	260120	093945	94.990	12.419190	-57.247322	94.860	0.170	-0.350	0.430	94.970	-1.600	0.900																			1580031585.0	2.96	5.48
26/01/2020 09:39:46	26012020	260120	093946	94.960	12.419185	-57.247308	94.870	0.330	-0.480	0.480	94.960	-1.800	0.900																			1580031586.0	2.97	5.50
26/01/2020 09:39:47	26012020	260120	093947	95.000	12.419182	-57.247297	94.900	0.270	-0.260	0.610	95.000	-1.600	1.000																			1580031587.0	2.60	4.82
26/01/2020 09:39:48	26012020	260120	093948	94.960	12.419178	-57.247287	94.800	0.060	0.030	0.820	94.930	-1.300	1.200																			1580031588.0	2.29	4.24
26/01/2020 09:39:49	26012020	260120	093949	94.770	12.419173	-57.247277	94.620	-0.130	0.170	1.010	94.740	-1.100	1.400																			1580031589.0	2.30	4.26
26/01/2020 09:39:50	26012020	260120	093950	94.660	12.419170	-57.247267	94.590	-0.230	0.200	1.070	94.660	-1.100	1.500																			1580031590.0	2.41	4.46
26/01/2020 09:39:51	26012020	260120	093951	94.680	12.419165	-57.247255	94.600	-0.240	0.140	1.060	94.680	-1.100	1.500																			1580031591.0	2.39	4.43
26/01/2020 09:39:52	26012020	260120	093952	94.660	12.419162	-57.247245	94.540	-0.180	-0.050	1.030	94.640	-1.300	1.500																			1580031592.0	2.43	4.50
26/01/2020 09:39:53	26012020	260120	093953	94.540	12.419157	-57.247233	94.380	-0.070	-0.310	0.930	94.510	-1.600	1.400																			1580031593.0	2.51	4.65
26/01/2020 09:39:54	26012020	260120	093954	94.310	12.419155	-57.247222	94.110	0.050	-0.470	0.810	94.260	-1.700	1.200																			1580031594.0	2.50	4.63
26/01/2020 09:39:55	26012020	260120	093955	94.040	12.419152	-57.247210	93.850	0.170	-0.530	0.750	93.990	-1.800	1.200																			1580031595.0	2.43	4.50
26/01/2020 09:39:56	26012020	260120	093956	93.820	12.419150	-57.247200	93.660	0.270	-0.540	0.680	93.790	-1.800	1.100																			1580031596.0	2.44	4.52
26/01/2020 09:39:57	26012020	260120	093957	93.700	12.419147	-57.247188	93.570	0.220	-0.360	0.470	93.680	-1.700	0.900																			1580031597.0	2.46	4.56
26/01/2020 09:39:58	26012020	260120	093958	93.630	12.419145	-57.247178	93.480	0.000	0.060	0.240	93.600	-1.200	0.700																			1580031598.0	2.22	4.11
26/01/2020 09:39:59	26012020	260120	093959	93.470	12.419143	-57.247168	93.280	-0.220	0.460	0.190	93.430	-0.800	0.600																			1580031599.0	1.94	3.59
26/01/2020 09:40:00	26012020	260120	094000	93.270	12.419142	-57.247160	93.090	-0.230	0.470	0.240	93.240	-0.800	0.700	1014.00	25.50	25.60	19.40	19.40	-1.00	68.00	69.00	385.00	25.10	357.00	8.50	94.00	7.10	14	3283.00	27.40	27.30	1580031600.0	2.05	3.80
26/01/2020 09:40:01	26012020	260120	094001	93.180	12.419138	-57.247148	93.060	-0.050	0.110	0.240	93.180	-1.100	0.700																			1580031601.0	2.44	4.52
26/01/2020 09:40:02	26012020	260120	094002	93.200	12.419135	-57.247137	93.100	0.130	-0.250	0.190	93.210	-1.500	0.600																			1580031602.0	2.65	4.91
26/01/2020 09:40:03	26012020	260120	094003	93.210	12.419133	-57.247125	93.060	0.150	-0.330	0.280	93.190	-1.600	0.700																			1580031603.0	2.43	4.50
26/01/2020 09:40:04	26012020	260120	094004	93.040	12.419130	-57.247115	92.810	0.070	-0.280	0.590	92.980	-1.600	1.000																			1580031604.0	2.16	4.00
26/01/2020 09:40:05	26012020	260120	094005	92.680	12.419125	-57.247107	92.410	0.060	-0.320	1.060	92.590	-1.600	1.500																			1580031605.0	2.19	4.06
26/01/2020 09:40:06	26012020	260120	094006	92.240	12.419122	-57.247095	92.010	0.130	-0.410	1.470	92.160	-1.700	1.900																			1580031606.0	2.40	4.44
26/01/2020 09:40:07	26012020	260120	094007	91.930	12.419118	-57.247085	91.780	0.130	-0.380	1.540	91.900	-1.700	2.000																			1580031607.0	2.43	4.50
26/01/2020 09:40:08	26012020	260120	094008	91.850	12.419115	-57.247075	91.760	-0.010	-0.160	1.300	91.850	-1.400	1.700																			1580031608.0	2.22	4.11
26/01/2020 09:40:09	26012020	260120	094009	91.870	12.419113	-57.247065	91.750	-0.230	0.100	0.990	91.860	-1.200	1.400																			1580031609.0	2.02	3.74
26/01/2020 09:40:10	26012020	260120	094010	91.800	12.419112	-57.247055	91.630	-0.380	0.240	0.760	91.770	-1.000	1.200																			1580031610.0	2.01	3.72
26/01/2020 09:40:11	26012020	260120	094011	91.630	12.419110	-57.247045	91.410	-0.320	0.190	0.530	91.580	-1.100	1.000																			1580031611.0	2.12	3.93
26/01/2020 09:40:12	26012020	260120	094012	91.400	12.419108	-57.247035	91.150	-0.040	-0.030	0.250	91.340	-1.300	0.700																			1580031612.0	2.24	4.15
26/01/2020 09:40:13	26012020	260120	094013	91.140	12.419107	-57.247025	90.890	0.280	-0.280	-0.050	91.100	-1.500	0.400																			1580031613.0	2.34	4.33
26/01/2020 09:40:14	26012020	260120	094014	90.950	12.419107	-57.247013	90.690	0.420	-0.390	-0.280	90.910	-1.700	0.200																			1580031614.0	2.29	4.24
26/01/2020 09:40:15	26012020	260120	094015	90.750	12.419108	-57.247003	90.480	0.330	-0.330	-0.260	90.700	-1.600	0.200																			1580031615.0	2.12	3.93
26/01/2020 09:40:16	26012020	260120	094016	90.530	12.419108	-57.246993	90.310	0.080	-0.180	-0.070	90.500	-1.500	0.300																			1580031616.0	2.00	3.70
26/01/2020 09:40:17	26012020	260120	094017	90.400	12.419105	-57.246985	90.200	-0.150	0.040	0.210	90.370	-1.300	0.600																			1580031617.0	1.94	3.59
26/01/2020 09:40:18	26012020	260120	094018	90.300	12.419102	-57.246977	90.110	-0.300	0.240	0.670	90.280	-1.100	1.100																			1580031618.0	1.97	3.65
26/01/2020 09:40:19	26012020	260120	094019	90.190	12.419097	-57.246968	90.000	-0.330	0.170	1.240	90.170	-1.100	1.600																			1580031619.0	2.20	4.07
26/01/2020 09:40:20	26012020	260120	094020	90.050	12.419090	-57.246958	89.850	-0.200	-0.210	1.720	90.020	-1.500	2.100																			1580031620.0	2.46	4.56
26/01/2020 09:40:21	26012020	260120	094021	89.840	12.419085	-57.246947	89.610	0.050	-0.660	1.950	89.790	-1.900	2.400																			1580031621.0	2.64	4.89
26/01/2020 09:40:22	26012020	260120	094022	89.540	12.419082	-57.246935	89.280	0.290	-0.820	1.920	89.470	-2.100	2.300																			1580031622.0	2.55	4.72
26/01/2020 09:40:23	26012020	260120	094023	89.200	12.419082	-57.246925	88.960	0.370	-0.490	1.630	89.140	-1.800	2.100																			1580031623.0	2.21	4.09
26/01/2020 09:40:24	26012020	260120	094024	88.970	12.419083	-57.246917	88.800	0.210	0.190	1.030	88.950	-1.100	1.500																			1580031624.0	1.73	3.20
26/01/2020 09:40:25	26012020	260120	094025	88.950	12.419087	-57.246910	88.830	-0.070	0.710	0.190	88.950	-0.600	0.700																			1580031625.0	1.54	2.85
26/01/2020 09:40:26	26012020	260120	094026	89.000	12.419090	-57.246902	88.870	-0.230	0.660	-0.640	89.010	-0.600	-0.200																			1580031626.0	1.79	3.32
26/01/2020 09:40:27	26012020	260120	094027	89.030	12.419093	-57.246893	88.900	-0.170	0.120	-1.170	89.040	-1.100	-0.700																			1580031627.0	2.18	4.04
26/01/2020 09:40:28	26012020	260120	094028	89.010	12.419093	-57.246882	88.840	-0.010	-0.460	-1.200	89.000	-1.700	-0.800																			1580031628.0	2.41	4.46
26/01/2020 09:40:29	26012020	260120	094029	88.850	12.419092	-57.246870	88.630	0.040	-0.660	-0.730	88.790	-1.900	-0.300																			1580031629.0	2.32	4.30
26/01/2020 09:40:30	26012020	260120	094030	88.490	12.419088	-57.246862	88.270	-0.050	-0.530	0.050	88.400	-1.800	0.400																			1580031630.0	2.03	3.76
26/01/2020 09:40:31	26012020	260120	094031	88.070	12.419083	-57.246853	87.920	-0.130	-0.330	0.870	88.010	-1.600	1.200																			1580031631.0	1.94	3.59
26/01/2020 09:40:32	26012020	260120	094032	87.810	12.419078	-57.246845	87.730	-0.110	-0.240	1.560	87.780	-1.500	1.900																			1580031632.0	2.09	3.87
26/01/2020 09:40:33	26012020	260120	094033	87.710	12.419073	-57.246837	87.690	-0.050	-0.170	2.010	87.700	-1.400	2.400																			1580031633.0	2.22	4.11
26/01/2020 09:40:34	26012020	260120	094034	87.680	12.419070	-57.246827	87.680	-0.060	0.010	2.070	87.680	-1.300	2.500																			1580031634.0	2.09	3.87
26/01/2020 09:40:35	26012020	260120	094035	87.660	12.419068	-57.246818	87.620	-0.110	0.270	1.780	87.650	-1.000	2.200																			1580031635.0	1.80	3.33
26/01/2020 09:40:36	26012020	260120	094036	87.580	12.419068	-57.246810	87.500	-0.080	0.350	1.300	87.560	-0.900	1.800																			1580031636.0	1.62	3.00
26/01/2020 09:40:37	26012020	260120	094037	87.430	12.419070	-57.246802	87.330	0.140	0.070	0.690	87.390	-1.200	1.200																			1580031637.0	1.80	3.33
26/01/2020 09:40:38	26012020	260120	094038	87.280	12.419073	-57.246792	87.190	0.450	-0.410	-0.070	87.260	-1.700	0.400																			1580031638.0	2.24	4.15
26/01/2020 09:40:39	26012020	260120	094039	87.200	12.419078	-57.246782	87.110	0.550	-0.580	-0.800	87.190	-1.900	-0.300																			1580031639.0	2.47	4.57
26/01/2020 09:40:40	26012020	260120	094040	87.090	12.419083	-57.246773	86.970	0.280	-0.280	-1.160	87.060	-1.600	-0.700																			1580031640.0	2.05	3.80
26/01/2020 09:40:41	26012020	260120	094041	86.890	12.419087	-57.246768	86.750	-0.190	0.090	-0.970	86.840	-1.200	-0.600																			1580031641.0	1.33	2.46
26/01/2020 09:40:42	26012020	260120	094042	86.640	12.419083	-57.246762	86.530	-0.520	0.100	-0.300	86.590	-1.200	0.100																			1580031642.0	1.47	2.72
26/01/2020 09:40:43	26012020	260120	094043	86.400	12.419078	-57.246752	86.340	-0.540	-0.160	0.520	86.360	-1.400	0.900																			1580031643.0	2.21	4.09
26/01/2020 09:40:44	26012020	260120	094044	86.250	12.419073	-57.246742	86.230	-0.370	-0.360	1.230	86.230	-1.600	1.600																			1580031644.0	2.50	4.63
26/01/2020 09:40:45	26012020	260120	094045	86.150	12.419067	-57.246732	86.140	-0.170	-0.320	1.790	86.120	-1.600	2.200																			1580031645.0	2.35	4.35
26/01/2020 09:40:46	26012020	260120	094046	86.020	12.419063	-57.246723	86.040	-0.040	-0.090	2.080	86.010	-1.400	2.500																			1580031646.0	2.00	3.70
26/01/2020 09:40:47	26012020	260120	094047	85.990	12.419062	-57.246717	86.040	0.040	0.220	1.880	86.000	-1.100	2.300																			1580031647.0	1.57	2.91
26/01/2020 09:40:48	26012020	260120	094048	86.040	12.419062	-57.246710	86.070	0.140	0.310	1.250	86.050	-1.000	1.700																			1580031648.0	1.37	2.54
26/01/2020 09:40:49	26012020	260120	094049	86.040	12.419065	-57.246703	86.000	0.290	0.020	0.480	86.020	-1.200	1.000																			1580031649.0	1.71	3.17
26/01/2020 09:40:50	26012020	260120	094050	85.900	12.419070	-57.246695	85.790	0.410	-0.450	-0.120	85.850	-1.700	0.400																			1580031650.0	2.12	3.93
26/01/2020 09:40:51	26012020	260120	094051	85.600	12.419075	-57.246685	85.460	0.420	-0.710	-0.490	85.530	-2.000	-0.000																			1580031651.0	2.18	4.04
26/01/2020 09:40:52	26012020	260120	094052	85.230	12.419078	-57.246677	85.100	0.250	-0.570	-0.600	85.160	-1.900	-0.200																			1580031652.0	1.88	3.48
26/01/2020 09:40:53	26012020	260120	094053	84.890	12.419078	-57.246670	84.820	-0.050	-0.160	-0.500	84.840	-1.500	-0.100																			1580031653.0	1.50	2.78
26/01/2020 09:40:54	26012020	260120	094054	84.730	12.419078	-57.246663	84.760	-0.310	0.200	-0.330	84.720	-1.100	0.100																			1580031654.0	1.31	2.43
26/01/2020 09:40:55	26012020	260120	094055	84.780	12.419078	-57.246657	84.890	-0.370	0.270	-0.080	84.820	-1.000	0.300																			1580031655.0	1.51	2.80
26/01/2020 09:40:56	26012020	260120	094056	84.930	12.419075	-57.246648	85.020	-0.270	0.130	0.270	84.950	-1.100	0.700																			1580031656.0	1.86	3.44
26/01/2020 09:40:57	26012020	260120	094057	84.980	12.419072	-57.246640	85.020	-0.150	-0.000	0.720	84.970	-1.300	1.100																			1580031657.0	2.01	3.72
26/01/2020 09:40:58	26012020	260120	094058	84.850	12.419068	-57.246632	84.810	-0.120	0.000	1.210	84.800	-1.300	1.600																			1580031658.0	1.83	3.39
26/01/2020 09:40:59	26012020	260120	094059	84.570	12.419067	-57.246625	84.530	-0.130	-0.030	1.600	84.510	-1.300	2.000																			1580031659.0	1.60	2.96
26/01/2020 09:41:00	26012020	260120	094100	84.330	12.419065	-57.246617	84.310	-0.050	-0.210	1.700	84.290	-1.500	2.100	1014.00	25.50	25.60	19.20	19.30	-1.00	68.00	68.00	383.00	25.10	7.00	8.10	97.00	7.10	14	3279.00	27.40	27.30	1580031660.0	1.56	2.89
26/01/2020 09:41:01	26012020	260120	094101	84.190	12.419065	-57.246608	84.200	0.140	-0.420	1.440	84.180	-1.700	1.900																			1580031661.0	1.68	3.11
26/01/2020 09:41:02	26012020	260120	094102	84.130	12.419067	-57.246602	84.120	0.310	-0.450	1.000	84.110	-1.700	1.500																			1580031662.0	1.71	3.17
26/01/2020 09:41:03	26012020	260120	094103	84.020	12.419070	-57.246595	83.990	0.330	-0.300	0.520	83.990	-1.600	1.000																			1580031663.0	1.56	2.89
26/01/2020 09:41:04	26012020	260120	094104	83.850	12.419073	-57.246588	83.790	0.220	-0.140	0.080	83.810	-1.400	0.500																			1580031664.0	1.48	2.74
26/01/2020 09:41:05	26012020	260120	094105	83.630	12.419075	-57.246582	83.550	0.080	-0.080	-0.280	83.580	-1.400	0.200																			1580031665.0	1.54	2.85
26/01/2020 09:41:06	26012020	260120	094106	83.390	12.419078	-57.246575	83.320	0.000	-0.100	-0.510	83.340	-1.400	-0.100																			1580031666.0	1.65	3.06
26/01/2020 09:41:07	26012020	260120	094107	83.220	12.419082	-57.246567	83.170	-0.040	-0.060	-0.560	83.190	-1.300	-0.100																			1580031667.0	1.67	3.09
26/01/2020 09:41:08	26012020	260120	094108	83.160	12.419082	-57.246560	83.140	-0.110	0.060	-0.430	83.160	-1.200	-0.000																			1580031668.0	1.53	2.83
26/01/2020 09:41:09	26012020	260120	094109	83.160	12.419082	-57.246553	83.140	-0.220	0.160	-0.190	83.160	-1.100	0.200																			1580031669.0	1.43	2.65
26/01/2020 09:41:10	26012020	260120	094110	83.130	12.419080	-57.246547	83.120	-0.300	0.120	0.200	83.120	-1.100	0.600																			1580031670.0	1.48	2.74
26/01/2020 09:41:11	26012020	260120	094111	83.060	12.419078	-57.246538	83.050	-0.320	0.010	0.750	83.040	-1.200	1.100																			1580031671.0	1.62	3.00
26/01/2020 09:41:12	26012020	260120	094112	82.950	12.419075	-57.246532	82.950	-0.240	-0.130	1.310	82.930	-1.400	1.700																			1580031672.0	1.71	3.17
26/01/2020 09:41:13	26012020	260120	094113	82.840	12.419072	-57.246525	82.850	-0.070	-0.330	1.630	82.820	-1.600	2.000																			1580031673.0	1.70	3.15
26/01/2020 09:41:14	26012020	260120	094114	82.710	12.419070	-57.246517	82.680	0.130	-0.500	1.680	82.670	-1.800	2.100																			1580031674.0	1.63	3.02
26/01/2020 09:41:15	26012020	260120	094115	82.460	12.419070	-57.246510	82.390	0.320	-0.520	1.560	82.400	-1.800	2.000																			1580031675.0	1.56	2.89
26/01/2020 09:41:16	26012020	260120	094116	82.150	12.419072	-57.246503	82.080	0.440	-0.360	1.210	82.080	-1.700	1.700																			1580031676.0	1.49	2.76
26/01/2020 09:41:17	26012020	260120	094117	81.860	12.419077	-57.246497	81.800	0.430	-0.160	0.660	81.800	-1.500	1.100																			1580031677.0	1.54	2.85
26/01/2020 09:41:18	26012020	260120	094118	81.660	12.419082	-57.246490	81.640	0.240	0.050	-0.040	81.650	-1.200	0.400																			1580031678.0	1.67	3.09
26/01/2020 09:41:19	26012020	260120	094119	81.660	12.419087	-57.246485	81.690	-0.020	0.230	-0.790	81.680	-1.100	-0.300																			1580031679.0	1.71	3.17
26/01/2020 09:41:20	26012020	260120	094120	81.790	12.419092	-57.246480	81.800	-0.240	0.290	-1.270	81.820	-1.000	-0.800																			1580031680.0	1.60	2.96
26/01/2020 09:41:21	26012020	260120	094121	81.910	12.419095	-57.246473	81.890	-0.370	0.210	-1.280	81.930	-1.100	-0.900																			1580031681.0	1.44	2.67
26/01/2020 09:41:22	26012020	260120	094122	81.930	12.419093	-57.246467	81.850	-0.440	0.100	-0.820	81.910	-1.200	-0.400																			1580031682.0	1.44	2.67
26/01/2020 09:41:23	26012020	260120	094123	81.750	12.419090	-57.246460	81.620	-0.410	-0.130	-0.020	81.690	-1.400	0.300																			1580031683.0	1.64	3.04
26/01/2020 09:41:24	26012020	260120	094124	81.440	12.419085	-57.246452	81.330	-0.220	-0.530	0.800	81.380	-1.800	1.200																			1580031684.0	1.92	3.56
26/01/2020 09:41:25	26012020	260120	094125	81.210	12.419082	-57.246443	81.180	0.100	-0.790	1.350	81.180	-2.100	1.700																			1580031685.0	1.97	3.65
26/01/2020 09:41:26	26012020	260120	094126	81.150	12.419080	-57.246437	81.150	0.380	-0.650	1.540	81.150	-1.900	2.000																			1580031686.0	1.63	3.02
26/01/2020 09:41:27	26012020	260120	094127	81.150	12.419080	-57.246430	81.160	0.470	-0.230	1.370	81.150	-1.500	1.800																			1580031687.0	1.15	2.13
26/01/2020 09:41:28	26012020	260120	094128	81.130	12.419083	-57.246427	81.130	0.330	0.180	0.920	81.120	-1.100	1.400																			1580031688.0	1.05	1.94
26/01/2020 09:41:29	26012020	260120	094129	81.120	12.419087	-57.246422	81.120	0.080	0.360	0.330	81.120	-0.900	0.800																			1580031689.0	1.19	2.20
26/01/2020 09:41:30	26012020	260120	094130	81.140	12.419090	-57.246417	81.140	-0.140	0.270	-0.230	81.150	-1.000	0.200																			1580031690.0	1.35	2.50
26/01/2020 09:41:31	26012020	260120	094131	81.160	12.419093	-57.246412	81.160	-0.250	0.020	-0.630	81.170	-1.300	-0.200																			1580031691.0	1.42	2.63
26/01/2020 09:41:32	26012020	260120	094132	81.210	12.419097	-57.246405	81.190	-0.210	-0.220	-0.870	81.230	-1.500	-0.400																			1580031692.0	1.36	2.52
26/01/2020 09:41:33	26012020	260120	094133	81.270	12.419097	-57.246400	81.200	-0.050	-0.430	-0.950	81.270	-1.700	-0.500																			1580031693.0	1.27	2.35
26/01/2020 09:41:34	26012020	260120	094134	81.240	12.419097	-57.246393	81.140	0.170	-0.560	-0.820	81.230	-1.800	-0.400																			1580031694.0	1.32	2.44
26/01/2020 09:41:35	26012020	260120	094135	81.170	12.419097	-57.246387	81.090	0.280	-0.440	-0.480	81.170	-1.700	-0.100																			1580031695.0	1.30	2.41
26/01/2020 09:41:36	26012020	260120	094136	81.220	12.419095	-57.246382	81.200	0.180	-0.050	-0.120	81.240	-1.400	0.300																			1580031696.0	1.05	1.94
26/01/2020 09:41:37	26012020	260120	094137	81.410	12.419093	-57.246378	81.450	-0.060	0.330	0.110	81.460	-1.000	0.500																			1580031697.0	0.74	1.37
26/01/2020 09:41:38	26012020	260120	094138	81.680	12.419093	-57.246375	81.720	-0.240	0.380	0.270	81.730	-0.900	0.700																			1580031698.0	0.73	1.35
26/01/2020 09:41:39	26012020	260120	094139	81.870	12.419092	-57.246372	81.870	-0.230	0.060	0.560	81.890	-1.200	0.900																			1580031699.0	1.05	1.94
26/01/2020 09:41:40	26012020	260120	094140	81.890	12.419090	-57.246365	81.870	-0.070	-0.420	0.970	81.890	-1.700	1.400																			1580031700.0	1.45	2.69
26/01/2020 09:41:41	26012020	260120	094141	81.890	12.419088	-57.246358	81.910	0.060	-0.730	1.130	81.900	-2.000	1.500																			1580031701.0	1.54	2.85
26/01/2020 09:41:42	26012020	260120	094142	82.010	12.419087	-57.246352	82.060	0.070	-0.620	1.010	82.010	-2.000	1.500																			1580031702.0	1.23	2.28
26/01/2020 09:41:43	26012020	260120	094143	82.170	12.419087	-57.246348	82.220	-0.040	-0.140	0.720	82.210	-1.500	1.200																			1580031703.0	0.74	1.37
26/01/2020 09:41:44	26012020	260120	094144	82.380	12.419087	-57.246347	82.460	-0.150	0.350	0.220	82.380	-1.100	0.900																			1580031704.0	0.44	0.81
26/01/2020 09:41:45	26012020	260120	094145	82.710	12.419088	-57.246345	82.810	-0.130	0.500	-0.480	82.790	-0.800	-0.000																			1580031705.0	0.61	1.13
26/01/2020 09:41:46	26012020	260120	094146	83.100	12.419092	-57.246342	83.190	0.070	0.190	-1.150	83.170	-1.100	-0.700																			1580031706.0	0.98	1.81
26/01/2020 09:41:47	26012020	260120	094147	83.450	12.419095	-57.246335	83.530	0.350	-0.350	-1.560	83.500	-1.600	-1.100																			1580031707.0	1.30	2.41
26/01/2020 09:41:48	26012020	260120	094148	83.710	12.419097	-57.246330	83.740	0.520	-0.680	-1.610	83.740	-2.000	-1.200																			1580031708.0	1.35	2.50
26/01/2020 09:41:49	26012020	260120	094149	83.830	12.419097	-57.246325	83.850	0.480	-0.610	-1.280	83.850	-1.900	-0.900																			1580031709.0	1.04	1.93
26/01/2020 09:41:50	26012020	260120	094150	83.910	12.419097	-57.246322	83.980	0.230	-0.300	-0.660	83.940	-1.600	-0.300																			1580031710.0	0.79	1.46
26/01/2020 09:41:51	26012020	260120	094151	84.130	12.419093	-57.246318	84.310	-0.120	0.040	0.040	84.210	-1.300	0.400																			1580031711.0	0.89	1.65
26/01/2020 09:41:52	26012020	260120	094152	84.580	12.419090	-57.246315	84.820	-0.450	0.240	0.710	84.690	-1.100	1.100																			1580031712.0	1.20	2.22
26/01/2020 09:41:53	26012020	260120	094153	85.080	12.419083	-57.246310	85.330	-0.650	0.280	1.310	85.180	-1.000	1.700																			1580031713.0	1.54	2.85
26/01/2020 09:41:54	26012020	260120	094154	85.580	12.419077	-57.246305	85.830	-0.630	0.110	1.700	85.680	-1.200	2.100																			1580031714.0	1.72	3.19
26/01/2020 09:41:55	26012020	260120	094155	86.060	12.419072	-57.246300	86.270	-0.390	-0.140	1.790	86.140	-1.400	2.200																			1580031715.0	1.64	3.04
26/01/2020 09:41:56	26012020	260120	094156	86.440	12.419067	-57.246295	86.600	-0.040	-0.290	1.540	86.440	-1.500	2.100																			1580031716.0	1.31	2.43
26/01/2020 09:41:57	26012020	260120	094157	86.720	12.419067	-57.246292	86.840	0.290	-0.310	0.940	86.770	-1.600	1.400																			1580031717.0	0.83	1.54
26/01/2020 09:41:58	26012020	260120	094158	86.940	12.419068	-57.246288	87.040	0.520	-0.310	0.130	86.940	-1.600	0.900																			1580031718.0	0.83	1.54
26/01/2020 09:41:59	26012020	260120	094159	87.170	12.419073	-57.246285	87.310	0.600	-0.380	-0.760	87.230	-1.700	-0.300																			1580031719.0	1.28	2.37
26/01/2020 09:42:00	26012020	260120	094200	87.560	12.419080	-57.246282	87.730	0.550	-0.430	-1.530	87.650	-1.700	-1.100	1014.00	25.50	25.60	19.30	19.30	-1.00	68.00	68.00	382.00	25.10	15.00	7.50	99.00	6.80	14	3340.00	27.40	27.40	1580031720.0	1.51	2.80
26/01/2020 09:42:01	26012020	260120	094201	88.030	12.419083	-57.246278	88.170	0.360	-0.290	-1.820	88.120	-1.600	-1.400																			1580031721.0	1.29	2.39
26/01/2020 09:42:02	26012020	260120	094202	88.400	12.419085	-57.246275	88.500	0.030	0.080	-1.420	88.470	-1.300	-1.000																			1580031722.0	0.71	1.31
26/01/2020 09:42:03	26012020	260120	094203	88.690	12.419080	-57.246272	88.770	-0.300	0.450	-0.490	88.740	-0.900	-0.100																			1580031723.0	1.02	1.89
26/01/2020 09:42:04	26012020	260120	094204	88.940	12.419073	-57.246270	89.030	-0.480	0.460	0.640	88.990	-0.800	1.000																			1580031724.0	1.67	3.09
26/01/2020 09:42:05	26012020	260120	094205	89.220	12.419063	-57.246267	89.350	-0.410	0.070	1.670	89.280	-1.200	2.000																			1580031725.0	2.00	3.70
26/01/2020 09:42:06	26012020	260120	094206	89.560	12.419057	-57.246260	89.710	-0.190	-0.410	2.370	89.630	-1.700	2.700																			1580031726.0	2.01	3.72
26/01/2020 09:42:07	26012020	260120	094207	89.890	12.419050	-57.246255	90.000	0.020	-0.580	2.690	89.940	-1.900	3.100																			1580031727.0	1.62	3.00
26/01/2020 09:42:08	26012020	260120	094208	90.140	12.419048	-57.246252	90.210	0.130	-0.450	2.570	90.180	-1.800	3.000																			1580031728.0	0.96	1.78
26/01/2020 09:42:09	26012020	260120	094209	90.350	12.419047	-57.246250	90.380	0.130	-0.270	2.030	90.390	-1.600	2.500																			1580031729.0	0.49	0.91
26/01/2020 09:42:10	26012020	260120	094210	90.540	12.419048	-57.246247	90.520	0.110	-0.190	1.220	90.570	-1.500	1.700																			1580031730.0	0.71	1.31
26/01/2020 09:42:11	26012020	260120	094211	90.680	12.419052	-57.246243	90.590	0.100	-0.150	0.310	90.690	-1.500	0.800																			1580031731.0	1.06	1.96
26/01/2020 09:42:12	26012020	260120	094212	90.740	12.419057	-57.246240	90.620	0.070	-0.050	-0.540	90.750	-1.400	-0.100																			1580031732.0	1.20	2.22
26/01/2020 09:42:13	26012020	260120	094213	90.820	12.419060	-57.246237	90.740	-0.010	0.100	-1.220	90.860	-1.200	-0.800																			1580031733.0	1.05	1.94
26/01/2020 09:42:14	26012020	260120	094214	91.060	12.419062	-57.246233	91.030	-0.110	0.180	-1.660	91.120	-1.100	-1.200																			1580031734.0	0.80	1.48
26/01/2020 09:42:15	26012020	260120	094215	91.400	12.419063	-57.246230	91.390	-0.110	0.100	-1.730	91.470	-1.200	-1.300																			1580031735.0	0.70	1.30
26/01/2020 09:42:16	26012020	260120	094216	91.760	12.419062	-57.246227	91.750	0.020	-0.040	-1.430	91.840	-1.300	-1.000																			1580031736.0	0.86	1.59
26/01/2020 09:42:17	26012020	260120	094217	92.070	12.419058	-57.246222	92.030	0.190	-0.140	-0.770	92.120	-1.400	-0.400																			1580031737.0	1.01	1.87
26/01/2020 09:42:18	26012020	260120	094218	92.270	12.419053	-57.246220	92.230	0.270	-0.230	0.230	92.310	-1.500	0.600																			1580031738.0	1.28	2.37
26/01/2020 09:42:19	26012020	260120	094219	92.420	12.419047	-57.246217	92.360	0.140	-0.300	1.360	92.440	-1.600	1.700																			1580031739.0	1.53	2.83
26/01/2020 09:42:20	26012020	260120	094220	92.470	12.419040	-57.246213	92.380	-0.150	-0.290	2.390	92.470	-1.600	2.700																			1580031740.0	1.57	2.91
26/01/2020 09:42:21	26012020	260120	094221	92.400	12.419033	-57.246212	92.270	-0.400	-0.220	3.150	92.370	-1.500	3.500																			1580031741.0	1.41	2.61
26/01/2020 09:42:22	26012020	260120	094222	92.270	12.419028	-57.246208	92.160	-0.400	-0.310	3.430	92.250	-1.600	3.800																			1580031742.0	1.20	2.22
26/01/2020 09:42:23	26012020	260120	094223	92.260	12.419025	-57.246205	92.210	-0.120	-0.520	3.100	92.290	-1.800	3.600																			1580031743.0	1.10	2.04
26/01/2020 09:42:24	26012020	260120	094224	92.450	12.419025	-57.246198	92.400	0.180	-0.520	2.220	92.490	-1.800	2.700																			1580031744.0	1.14	2.11
26/01/2020 09:42:25	26012020	260120	094225	92.710	12.419027	-57.246195	92.640	0.240	-0.020	0.900	92.760	-1.400	1.400																			1580031745.0	1.00	1.85
26/01/2020 09:42:26	26012020	260120	094226	92.960	12.419033	-57.246193	92.840	0.070	0.730	-0.650	92.990	-0.600	-0.100																			1580031746.0	1.25	2.31
26/01/2020 09:42:27	26012020	260120	094227	93.130	12.419042	-57.246193	92.980	-0.090	1.030	-2.050	93.150	-0.300	-1.500																			1580031747.0	1.73	3.20
26/01/2020 09:42:28	26012020	260120	094228	93.230	12.419048	-57.246192	93.070	-0.010	0.460	-2.950	93.250	-0.800	-2.500																			1580031748.0	1.66	3.07
26/01/2020 09:42:29	26012020	260120	094229	93.360	12.419053	-57.246185	93.240	0.230	-0.580	-3.180	93.400	-1.800	-2.700																			1580031749.0	1.60	2.96
26/01/2020 09:42:30	26012020	260120	094230	93.570	12.419053	-57.246178	93.470	0.300	-1.220	-2.580	93.600	-2.500	-2.200																			1580031750.0	1.46	2.70
26/01/2020 09:42:31	26012020	260120	094231	93.660	12.419048	-57.246175	93.510	0.060	-1.050	-1.200	93.650	-2.400	-0.900																			1580031751.0	1.40	2.59
26/01/2020 09:42:32	26012020	260120	094232	93.490	12.419038	-57.246175	93.310	-0.280	-0.440	0.650	93.490	-2.000	0.300																			1580031752.0	2.05	3.80
26/01/2020 09:42:33	26012020	260120	094233	93.160	12.419027	-57.246175	93.010	-0.430	0.040	2.430	93.100	-1.300	2.800																			1580031753.0	2.53	4.69
26/01/2020 09:42:34	26012020	260120	094234	92.910	12.419015	-57.246173	92.840	-0.290	0.220	3.600	92.880	-1.100	4.000																			1580031754.0	2.35	4.35
26/01/2020 09:42:35	26012020	260120	094235	92.910	12.419008	-57.246170	92.930	-0.070	0.240	3.930	92.940	-1.100	4.300																			1580031755.0	1.68	3.11
26/01/2020 09:42:36	26012020	260120	094236	93.200	12.419007	-57.246167	93.280	0.040	0.280	3.410	93.270	-1.000	3.900																			1580031756.0	0.88	1.63
26/01/2020 09:42:37	26012020	260120	094237	93.640	12.419008	-57.246163	93.690	0.030	0.330	2.130	93.720	-1.000	2.600																			1580031757.0	0.80	1.48
26/01/2020 09:42:38	26012020	260120	094238	94.020	12.419015	-57.246162	93.950	0.040	0.210	0.560	94.070	-1.100	1.100																			1580031758.0	1.39	2.57
26/01/2020 09:42:39	26012020	260120	094239	94.130	12.419022	-57.246158	93.930	0.120	-0.170	-0.720	94.120	-1.500	-0.200																			1580031759.0	1.56	2.89
26/01/2020 09:42:40	26012020	260120	094240	94.020	12.419027	-57.246153	93.760	0.210	-0.590	-1.540	93.980	-1.900	-1.100																			1580031760.0	1.39	2.57
26/01/2020 09:42:41	26012020	260120	094241	93.820	12.419030	-57.246150	93.550	0.270	-0.770	-1.920	93.770	-2.100	-1.500																			1580031761.0	1.11	2.06
26/01/2020 09:42:42	26012020	260120	094242	93.600	12.419032	-57.246147	93.330	0.240	-0.610	-1.900	93.550	-1.900	-1.500																			1580031762.0	0.73	1.35
26/01/2020 09:42:43	26012020	260120	094243	93.400	12.419030	-57.246145	93.190	0.100	-0.280	-1.440	93.370	-1.600	-1.100																			1580031763.0	0.45	0.83
26/01/2020 09:42:44	26012020	260120	094244	93.260	12.419028	-57.246143	93.100	-0.090	-0.050	-0.650	93.240	-1.400	-0.300																			1580031764.0	0.76	1.41
26/01/2020 09:42:45	26012020	260120	094245	93.210	12.419023	-57.246140	93.130	-0.250	0.070	0.260	93.210	-1.300	0.600																			1580031765.0	1.26	2.33
26/01/2020 09:42:46	26012020	260120	094246	93.260	12.419017	-57.246137	93.200	-0.330	0.240	1.150	93.260	-1.200	1.200																			1580031766.0	1.47	2.72
26/01/2020 09:42:47	26012020	260120	094247	93.310	12.419010	-57.246135	93.250	-0.330	0.430	1.980	93.320	-0.900	2.300																			1580031767.0	1.47	2.72
26/01/2020 09:42:48	26012020	260120	094248	93.300	12.419003	-57.246133	93.220	-0.210	0.380	2.560	93.300	-0.900	2.800																			1580031768.0	1.40	2.59
26/01/2020 09:42:49	26012020	260120	094249	93.240	12.418998	-57.246130	93.120	0.060	-0.000	2.630	93.210	-1.300	3.000																			1580031769.0	1.17	2.17
26/01/2020 09:42:50	26012020	260120	094250	93.090	12.418997	-57.246127	92.920	0.380	-0.480	2.250	93.050	-1.800	2.700																			1580031770.0	0.93	1.72
26/01/2020 09:42:51	26012020	260120	094251	92.820	12.419000	-57.246122	92.590	0.600	-0.740	1.570	92.760	-2.000	2.000																			1580031771.0	1.03	1.91
26/01/2020 09:42:52	26012020	260120	094252	92.530	12.419003	-57.246118	92.310	0.560	-0.570	0.630	92.480	-1.900	1.100																			1580031772.0	1.27	2.35
26/01/2020 09:42:53	26012020	260120	094253	92.320	12.419010	-57.246117	92.110	0.210	-0.120	-0.350	92.290	-1.500	0.100																			1580031773.0	1.44	2.67
26/01/2020 09:42:54	26012020	260120	094254	92.190	12.419017	-57.246117	92.010	-0.280	0.220	-1.100	92.180	-1.100	-0.600																			1580031774.0	1.23	2.28
26/01/2020 09:42:55	26012020	260120	094255	92.150	12.419020	-57.246115	92.000	-0.660	0.240	-1.510	92.150	-1.100	-1.100																			1580031775.0	0.70	1.30
26/01/2020 09:42:56	26012020	260120	094256	92.130	12.419018	-57.246112	91.950	-0.760	0.040	-1.450	92.110	-1.300	-1.100																			1580031776.0	0.61	1.13
26/01/2020 09:42:57	26012020	260120	094257	91.990	12.419015	-57.246108	91.800	-0.540	-0.220	-0.960	91.960	-1.500	-0.600																			1580031777.0	1.17	2.17
26/01/2020 09:42:58	26012020	260120	094258	91.760	12.419008	-57.246105	91.560	-0.140	-0.440	-0.270	91.700	-1.700	0.100																			1580031778.0	1.57	2.91
26/01/2020 09:42:59	26012020	260120	094259	91.480	12.419002	-57.246102	91.310	0.290	-0.520	0.330	91.430	-1.800	0.700																			1580031779.0	1.47	2.72
26/01/2020 09:43:00	26012020	260120	094300	91.330	12.418998	-57.246098	91.250	0.550	-0.340	0.680	91.330	-1.700	1.100	1014.10	25.50	25.60	19.30	19.30	-1.00	68.00	68.00	381.00	25.10	5.00	6.60	98.00	5.90	14	3325.00	27.40	27.40	1580031780.0	0.98	1.81
26/01/2020 09:43:01	26012020	260120	094301	91.440	12.418998	-57.246097	91.430	0.520	0.080	0.770	91.480	-1.300	1.200																			1580031781.0	0.44	0.81
26/01/2020 09:43:02	26012020	260120	094302	91.670	12.418998	-57.246095	91.650	0.300	0.430	0.740	91.700	-0.900	1.200																			1580031782.0	0.11	0.20
26/01/2020 09:43:03	26012020	260120	094303	91.760	12.418998	-57.246095	91.650	0.090	0.380	0.780	91.750	-0.900	1.200																			1580031783.0	0.21	0.39
26/01/2020 09:43:04	26012020	260120	094304	91.650	12.418998	-57.246092	91.510	-0.020	-0.010	0.910	91.620	-1.300	1.300																			1580031784.0	0.61	1.13
26/01/2020 09:43:05	26012020	260120	094305	91.500	12.418997	-57.246088	91.360	-0.090	-0.390	1.090	91.470	-1.700	1.500																			1580031785.0	0.89	1.65
26/01/2020 09:43:06	26012020	260120	094306	91.380	12.418993	-57.246085	91.250	-0.190	-0.500	1.210	91.370	-1.800	1.600																			1580031786.0	0.86	1.59
26/01/2020 09:43:07	26012020	260120	094307	91.370	12.418992	-57.246082	91.250	-0.260	-0.390	1.140	91.380	-1.700	1.600																			1580031787.0	0.60	1.11
26/01/2020 09:43:08	26012020	260120	094308	91.420	12.418992	-57.246080	91.290	-0.220	-0.220	0.910	91.430	-1.500	1.400																			1580031788.0	0.40	0.74
26/01/2020 09:43:09	26012020	260120	094309	91.490	12.418992	-57.246078	91.370	-0.080	-0.070	0.610	91.510	-1.400	1.100																			1580031789.0	0.39	0.72
26/01/2020 09:43:10	26012020	260120	094310	91.590	12.418992	-57.246077	91.470	0.030	0.040	0.360	91.620	-1.300	0.800																			1580031790.0	0.44	0.81
26/01/2020 09:43:11	26012020	260120	094311	91.730	12.418992	-57.246075	91.620	0.020	0.080	0.120	91.760	-1.200	0.600																			1580031791.0	0.48	0.89
26/01/2020 09:43:12	26012020	260120	094312	91.950	12.418992	-57.246072	91.890	-0.090	0.070	-0.100	92.010	-1.200	0.300																			1580031792.0	0.49	0.91
26/01/2020 09:43:13	26012020	260120	094313	92.240	12.418992	-57.246070	92.170	-0.190	0.010	-0.070	92.290	-1.300	0.300																			1580031793.0	0.46	0.85
26/01/2020 09:43:14	26012020	260120	094314	92.420	12.418990	-57.246068	92.310	-0.160	-0.130	0.310	92.440	-1.400	0.700																			1580031794.0	0.59	1.09
26/01/2020 09:43:15	26012020	260120	094315	92.490	12.418987	-57.246065	92.380	0.040	-0.340	0.760	92.500	-1.600	1.100																			1580031795.0	0.84	1.56
26/01/2020 09:43:16	26012020	260120	094316	92.520	12.418983	-57.246062	92.390	0.320	-0.530	1.170	92.510	-1.800	1.600																			1580031796.0	0.89	1.65
26/01/2020 09:43:17	26012020	260120	094317	92.480	12.418982	-57.246058	92.360	0.490	-0.520	1.590	92.470	-1.800	2.000																			1580031797.0	0.88	1.63
26/01/2020 09:43:18	26012020	260120	094318	92.490	12.418980	-57.246057	92.450	0.410	-0.200	1.820	92.520	-1.500	2.200																			1580031798.0	0.65	1.20
26/01/2020 09:43:19	26012020	260120	094319	92.710	12.418980	-57.246055	92.710	0.160	0.210	1.780	92.770	-1.100	2.200																			1580031799.0	0.28	0.52
26/01/2020 09:43:20	26012020	260120	094320	93.050	12.418982	-57.246053	93.050	-0.120	0.460	1.610	93.120	-0.900	2.100																			1580031800.0	0.29	0.54
26/01/2020 09:43:21	26012020	260120	094321	93.420	12.418982	-57.246052	93.410	-0.320	0.450	1.430	93.480	-0.900	1.900																			1580031801.0	0.37	0.69
26/01/2020 09:43:22	26012020	260120	094322	93.710	12.418982	-57.246050	93.640	-0.330	0.200	1.340	93.710	-1.000	1.800																			1580031802.0	0.48	0.89
26/01/2020 09:43:23	26012020	260120	094323	93.800	12.418982	-57.246047	93.650	-0.140	-0.250	1.440	93.790	-1.500	1.900																			1580031803.0	0.68	1.26
26/01/2020 09:43:24	26012020	260120	094324	93.690	12.418980	-57.246043	93.500	0.100	-0.690	1.760	93.690	-1.800	2.000																			1580031804.0	0.90	1.67
26/01/2020 09:43:25	26012020	260120	094325	93.530	12.418978	-57.246038	93.390	0.220	-0.830	2.090	93.510	-2.100	2.500																			1580031805.0	0.94	1.74
26/01/2020 09:43:26	26012020	260120	094326	93.470	12.418977	-57.246037	93.380	0.150	-0.580	2.170	93.470	-1.900	2.600																			1580031806.0	0.62	1.15
26/01/2020 09:43:27	26012020	260120	094327	93.490	12.418977	-57.246035	93.370	0.010	-0.140	2.020	93.480	-1.500	2.500																			1580031807.0	0.31	0.57
26/01/2020 09:43:28	26012020	260120	094328	93.440	12.418980	-57.246033	93.320	-0.100	0.210	1.730	93.430	-1.100	2.200																			1580031808.0	0.50	0.93
26/01/2020 09:43:29	26012020	260120	094329	93.380	12.418983	-57.246032	93.260	-0.150	0.300	1.370	93.370	-1.000	1.800																			1580031809.0	0.78	1.44
26/01/2020 09:43:30	26012020	260120	094330	93.340	12.418985	-57.246028	93.230	-0.120	0.160	1.030	93.330	-1.200	1.500																			1580031810.0	0.91	1.69
26/01/2020 09:43:31	26012020	260120	094331	93.350	12.418988	-57.246025	93.250	-0.040	-0.060	0.670	93.360	-1.400	1.100																			1580031811.0	0.99	1.83
26/01/2020 09:43:32	26012020	260120	094332	93.390	12.418992	-57.246022	93.270	0.070	-0.180	0.380	93.390	-1.500	0.800																			1580031812.0	0.96	1.78
26/01/2020 09:43:33	26012020	260120	094333	93.370	12.418995	-57.246020	93.220	0.130	-0.160	0.260	93.360	-1.500	0.700																			1580031813.0	0.80	1.48
26/01/2020 09:43:34	26012020	260120	094334	93.320	12.418997	-57.246018	93.190	0.160	-0.130	0.250	93.310	-1.500	0.700																			1580031814.0	0.61	1.13
26/01/2020 09:43:35	26012020	260120	094335	93.290	12.418998	-57.246017	93.180	0.180	-0.190	0.380	93.290	-1.500	0.800																			1580031815.0	0.57	1.06
26/01/2020 09:43:36	26012020	260120	094336	93.260	12.419000	-57.246013	93.160	0.160	-0.260	0.670	93.260	-1.600	1.000																			1580031816.0	0.56	1.04
26/01/2020 09:43:37	26012020	260120	094337	93.190	12.419000	-57.246012	93.060	0.050	-0.280	1.000	93.170	-1.600	1.400																			1580031817.0	0.49	0.91
26/01/2020 09:43:38	26012020	260120	094338	93.080	12.419000	-57.246010	92.940	-0.140	-0.200	1.280	93.080	-1.600	1.600																			1580031818.0	0.40	0.74
26/01/2020 09:43:39	26012020	260120	094339	92.980	12.419002	-57.246008	92.870	-0.300	-0.090	1.460	92.970	-1.400	1.900																			1580031819.0	0.32	0.59
26/01/2020 09:43:40	26012020	260120	094340	92.970	12.419002	-57.246007	92.890	-0.350	-0.010	1.400	92.980	-1.400	1.900																			1580031820.0	0.34	0.63
26/01/2020 09:43:41	26012020	260120	094341	93.080	12.419003	-57.246005	93.010	-0.270	0.020	1.100	93.120	-1.300	1.600																			1580031821.0	0.50	0.93
26/01/2020 09:43:42	26012020	260120	094342	93.250	12.419005	-57.246003	93.160	-0.100	0.010	0.720	93.270	-1.300	1.200																			1580031822.0	0.66	1.22
26/01/2020 09:43:43	26012020	260120	094343	93.350	12.419008	-57.246002	93.190	0.070	-0.100	0.350	93.350	-1.400	0.800																			1580031823.0	0.77	1.43
26/01/2020 09:43:44	26012020	260120	094344	93.350	12.419012	-57.245998	93.160	0.150	-0.310	-0.050	93.350	-1.600	0.400																			1580031824.0	0.97	1.80
26/01/2020 09:43:45	26012020	260120	094345	93.360	12.419017	-57.245995	93.210	0.130	-0.420	-0.430	93.380	-1.800	0.000																			1580031825.0	1.19	2.20
26/01/2020 09:43:46	26012020	260120	094346	93.460	12.419022	-57.245993	93.390	-0.000	-0.240	-0.550	93.500	-1.700	-0.100																			1580031826.0	1.09	2.02
26/01/2020 09:43:47	26012020	260120	094347	93.700	12.419023	-57.245993	93.590	-0.180	0.120	-0.350	93.740	-1.200	0.100																			1580031827.0	0.50	0.93
26/01/2020 09:43:48	26012020	260120	094348	93.860	12.419023	-57.245993	93.700	-0.290	0.340	0.020	93.880	-1.000	0.400																			1580031828.0	0.12	0.22
26/01/2020 09:43:49	26012020	260120	094349	93.890	12.419022	-57.245993	93.700	-0.200	0.170	0.470	93.880	-1.200	0.900																			1580031829.0	0.30	0.56
26/01/2020 09:43:50	26012020	260120	094350	93.890	12.419022	-57.245990	93.760	0.060	-0.250	0.850	93.910	-1.600	1.300																			1580031830.0	0.62	1.15
26/01/2020 09:43:51	26012020	260120	094351	94.050	12.419022	-57.245987	93.990	0.290	-0.500	1.060	94.100	-1.800	1.500																			1580031831.0	0.73	1.35
26/01/2020 09:43:52	26012020	260120	094352	94.320	12.419022	-57.245985	94.270	0.350	-0.370	1.070	94.370	-1.700	1.500																			1580031832.0	0.52	0.96
26/01/2020 09:43:53	26012020	260120	094353	94.500	12.419025	-57.245983	94.400	0.210	-0.060	1.050	94.520	-1.400	1.500																			1580031833.0	0.54	1.00
26/01/2020 09:43:54	26012020	260120	094354	94.530	12.419027	-57.245983	94.410	-0.010	0.060	1.040	94.530	-1.300	1.500																			1580031834.0	0.60	1.11
26/01/2020 09:43:55	26012020	260120	094355	94.550	12.419030	-57.245982	94.450	-0.180	-0.130	0.900	94.560	-1.400	1.400																			1580031835.0	0.62	1.15
26/01/2020 09:43:56	26012020	260120	094356	94.610	12.419032	-57.245978	94.540	-0.240	-0.360	0.630	94.640	-1.700	1.100																			1580031836.0	0.80	1.48
26/01/2020 09:43:57	26012020	260120	094357	94.740	12.419033	-57.245977	94.690	-0.220	-0.370	0.360	94.770	-1.700	0.800																			1580031837.0	0.77	1.43
26/01/2020 09:43:58	26012020	260120	094358	94.930	12.419035	-57.245973	94.910	-0.200	-0.100	0.120	94.980	-1.500	0.600																			1580031838.0	0.50	0.93
26/01/2020 09:43:59	26012020	260120	094359	95.220	12.419037	-57.245973	95.220	-0.180	0.250	-0.210	95.290	-1.100	0.300																			1580031839.0	0.35	0.65
26/01/2020 09:44:00	26012020	260120	094400	95.530	12.419038	-57.245973	95.490	-0.100	0.390	-0.570	95.530	-1.000	0.000	1014.10	25.50	25.60	19.50	19.50	-1.00	69.00	69.00	381.00	25.10	2.00	7.20	96.00	6.90	14	3378.00	27.40	27.40	1580031840.0	0.57	1.06
26/01/2020 09:44:01	26012020	260120	094401	95.710	12.419042	-57.245972	95.630	0.060	0.230	-0.780	95.740	-1.100	-0.300																			1580031841.0	0.82	1.52
26/01/2020 09:44:02	26012020	260120	094402	95.780	12.419045	-57.245968	95.690	0.210	-0.050	-0.710	95.780	-1.300	-0.300																			1580031842.0	0.85	1.57
26/01/2020 09:44:03	26012020	260120	094403	95.840	12.419047	-57.245967	95.770	0.220	-0.320	-0.350	95.850	-1.600	0.100																			1580031843.0	0.66	1.22
26/01/2020 09:44:04	26012020	260120	094404	95.880	12.419047	-57.245963	95.810	0.120	-0.550	0.280	95.890	-1.900	0.700																			1580031844.0	0.46	0.85
26/01/2020 09:44:05	26012020	260120	094405	95.880	12.419045	-57.245962	95.800	0.030	-0.620	0.990	95.870	-2.000	1.400																			1580031845.0	0.60	1.11
26/01/2020 09:44:06	26012020	260120	094406	95.780	12.419042	-57.245960	95.670	-0.010	-0.480	1.600	95.750	-1.800	2.000																			1580031846.0	0.69	1.28
26/01/2020 09:44:07	26012020	260120	094407	95.600	12.419040	-57.245958	95.520	-0.020	-0.160	1.940	95.570	-1.500	2.400																			1580031847.0	0.59	1.09
26/01/2020 09:44:08	26012020	260120	094408	95.530	12.419038	-57.245958	95.530	-0.060	0.210	1.890	95.540	-1.100	2.400																			1580031848.0	0.28	0.52
26/01/2020 09:44:09	26012020	260120	094409	95.670	12.419040	-57.245958	95.730	-0.060	0.400	1.400	95.710	-0.900	1.900																			1580031849.0	0.29	0.54
26/01/2020 09:44:10	26012020	260120	094410	95.920	12.419043	-57.245955	95.950	0.060	0.220	0.560	95.970	-1.100	1.100																			1580031850.0	0.91	1.69
26/01/2020 09:44:11	26012020	260120	094411	96.100	12.419050	-57.245952	96.060	0.230	-0.180	-0.340	96.120	-1.500	0.200																			1580031851.0	1.44	2.67
26/01/2020 09:44:12	26012020	260120	094412	96.130	12.419055	-57.245948	96.010	0.300	-0.450	-0.950	96.130	-1.700	-0.300																			1580031852.0	1.48	2.74
26/01/2020 09:44:13	26012020	260120	094413	96.000	12.419060	-57.245947	95.830	0.190	-0.420	-1.160	95.970	-1.800	-0.700																			1580031853.0	1.08	2.00
26/01/2020 09:44:14	26012020	260120	094414	95.820	12.419062	-57.245945	95.650	-0.040	-0.230	-1.000	95.820	-1.700	-0.700																			1580031854.0	0.54	1.00
26/01/2020 09:44:15	26012020	260120	094415	95.660	12.419062	-57.245945	95.530	-0.290	-0.060	-0.530	95.640	-1.400	-0.100																			1580031855.0	0.09	0.17
26/01/2020 09:44:16	26012020	260120	094416	95.600	12.419060	-57.245943	95.540	-0.470	0.030	0.000	95.610	-1.300	0.400																			1580031856.0	0.43	0.80
26/01/2020 09:44:17	26012020	260120	094417	95.670	12.419057	-57.245943	95.630	-0.500	0.090	0.490	95.690	-1.300	0.900																			1580031857.0	0.66	1.22
26/01/2020 09:44:18	26012020	260120	094418	95.770	12.419053	-57.245942	95.770	-0.340	0.160	0.860	95.800	-1.200	1.300																			1580031858.0	0.71	1.31
26/01/2020 09:44:19	26012020	260120	094419	95.920	12.419052	-57.245942	95.920	-0.020	0.120	1.050	95.940	-1.200	1.500																			1580031859.0	0.59	1.09
26/01/2020 09:44:20	26012020	260120	094420	96.020	12.419050	-57.245942	95.980	0.370	-0.050	1.050	96.030	-1.400	1.500																			1580031860.0	0.33	0.61
26/01/2020 09:44:21	26012020	260120	094421	96.020	12.419052	-57.245940	95.940	0.680	-0.330	0.870	96.000	-1.700	1.300																			1580031861.0	0.44	0.81
26/01/2020 09:44:22	26012020	260120	094422	95.940	12.419055	-57.245937	95.850	0.800	-0.630	0.560	95.920	-2.000	1.000																			1580031862.0	0.94	1.74
26/01/2020 09:44:23	26012020	260120	094423	95.830	12.419060	-57.245933	95.730	0.650	-0.750	0.330	95.810	-2.100	0.800																			1580031863.0	1.13	2.09
26/01/2020 09:44:24	26012020	260120	094424	95.730	12.419063	-57.245932	95.630	0.240	-0.530	0.280	95.710	-1.900	0.700																			1580031864.0	0.85	1.57
26/01/2020 09:44:25	26012020	260120	094425	95.650	12.419063	-57.245932	95.570	-0.290	-0.070	0.420	95.640	-1.400	0.900																			1580031865.0	0.25	0.46
26/01/2020 09:44:26	26012020	260120	094426	95.550	12.419063	-57.245932	95.440	-0.720	0.350	0.670	95.550	-1.100	1.000																			1580031866.0	0.29	0.54
26/01/2020 09:44:27	26012020	260120	094427	95.390	12.419060	-57.245933	95.310	-0.840	0.500	0.880	95.370	-0.900	1.300																			1580031867.0	0.55	1.02
26/01/2020 09:44:28	26012020	260120	094428	95.330	12.419057	-57.245932	95.320	-0.630	0.420	0.900	95.330	-0.900	1.400																			1580031868.0	0.60	1.11
26/01/2020 09:44:29	26012020	260120	094429	95.420	12.419057	-57.245930	95.430	-0.220	0.190	0.700	95.440	-1.100	1.200																			1580031869.0	0.44	0.81
26/01/2020 09:44:30	26012020	260120	094430	95.540	12.419057	-57.245928	95.530	0.210	-0.110	0.290	95.560	-1.400	0.800																			1580031870.0	0.40	0.74
26/01/2020 09:44:31	26012020	260120	094431	95.610	12.419060	-57.245927	95.550	0.530	-0.350	-0.180	95.610	-1.700	0.300																			1580031871.0	0.76	1.41
26/01/2020 09:44:32	26012020	260120	094432	95.600	12.419063	-57.245925	95.520	0.620	-0.430	-0.440	95.590	-1.800	0.000																			1580031872.0	0.96	1.78
26/01/2020 09:44:33	26012020	260120	094433	95.530	12.419067	-57.245925	95.410	0.500	-0.350	-0.410	95.500	-1.700	0.000																			1580031873.0	0.77	1.43
26/01/2020 09:44:34	26012020	260120	094434	95.360	12.419070	-57.245925	95.190	0.240	-0.230	-0.080	95.310	-1.600	0.300																			1580031874.0	0.43	0.80
26/01/2020 09:44:35	26012020	260120	094435	95.100	12.419068	-57.245925	94.940	-0.040	-0.220	0.480	95.050	-1.600	0.900																			1580031875.0	0.09	0.17
26/01/2020 09:44:36	26012020	260120	094436	94.870	12.419067	-57.245925	94.760	-0.230	-0.390	1.080	94.830	-1.700	1.500																			1580031876.0	0.61	1.13
26/01/2020 09:44:37	26012020	260120	094437	94.720	12.419062	-57.245923	94.670	-0.260	-0.590	1.510	94.700	-1.900	1.900																			1580031877.0	0.96	1.78
26/01/2020 09:44:38	26012020	260120	094438	94.680	12.419058	-57.245920	94.660	-0.190	-0.470	1.620	94.680	-1.900	2.000																			1580031878.0	0.85	1.57
26/01/2020 09:44:39	26012020	260120	094439	94.710	12.419058	-57.245920	94.670	-0.070	0.040	1.410	94.720	-1.300	1.900																			1580031879.0	0.33	0.61
26/01/2020 09:44:40	26012020	260120	094440	94.710	12.419058	-57.245920	94.660	0.030	0.580	0.920	94.720	-0.800	1.400																			1580031880.0	0.28	0.52
26/01/2020 09:44:41	26012020	260120	094441	94.760	12.419062	-57.245920	94.740	0.050	0.760	0.240	94.790	-0.600	0.700																			1580031881.0	0.73	1.35
26/01/2020 09:44:42	26012020	260120	094442	94.920	12.419067	-57.245920	94.900	-0.000	0.530	-0.470	94.920	-0.700	0.300																			1580031882.0	1.00	1.85
26/01/2020 09:44:43	26012020	260120	094443	95.090	12.419072	-57.245918	95.050	-0.070	0.080	-1.020	95.120	-1.200	-0.500																			1580031883.0	1.05	1.94
26/01/2020 09:44:44	26012020	260120	094444	95.190	12.419075	-57.245917	95.090	-0.090	-0.340	-1.170	95.190	-1.700	-0.700																			1580031884.0	0.79	1.46
26/01/2020 09:44:45	26012020	260120	094445	95.130	12.419075	-57.245917	94.990	-0.010	-0.610	-0.760	95.100	-1.900	-0.400																			1580031885.0	0.20	0.37
26/01/2020 09:44:46	26012020	260120	094446	94.960	12.419072	-57.245917	94.830	0.140	-0.750	0.060	94.920	-2.100	0.400																			1580031886.0	0.61	1.13
26/01/2020 09:44:47	26012020	260120	094447	94.760	12.419068	-57.245915	94.650	0.240	-0.770	0.950	94.730	-2.100	1.300																			1580031887.0	1.02	1.89
26/01/2020 09:44:48	26012020	260120	094448	94.580	12.419063	-57.245915	94.470	0.210	-0.610	1.690	94.530	-2.000	2.100																			1580031888.0	0.93	1.72
26/01/2020 09:44:49	26012020	260120	094449	94.370	12.419062	-57.245915	94.290	0.090	-0.300	2.130	94.330	-1.700	2.600																			1580031889.0	0.54	1.00
26/01/2020 09:44:50	26012020	260120	094450	94.240	12.419060	-57.245915	94.210	0.030	0.040	2.170	94.240	-1.400	2.600																			1580031890.0	0.15	0.28
26/01/2020 09:44:51	26012020	260120	094451	94.300	12.419062	-57.245915	94.360	0.050	0.310	1.780	94.340	-1.100	2.300																			1580031891.0	0.23	0.43
26/01/2020 09:44:52	26012020	260120	094452	94.570	12.419063	-57.245913	94.650	0.050	0.460	1.140	94.570	-0.900	1.900																			1580031892.0	0.49	0.91
26/01/2020 09:44:53	26012020	260120	094453	94.850	12.419067	-57.245913	94.870	-0.060	0.420	0.400	94.900	-0.900	0.900																			1580031893.0	0.67	1.24
26/01/2020 09:44:54	26012020	260120	094454	95.030	12.419070	-57.245912	94.970	-0.230	0.190	-0.340	95.050	-1.100	0.200																			1580031894.0	0.82	1.52
26/01/2020 09:44:55	26012020	260120	094455	95.060	12.419073	-57.245910	94.950	-0.330	-0.070	-0.820	95.050	-1.400	-0.400																			1580031895.0	0.84	1.56
26/01/2020 09:44:56	26012020	260120	094456	94.990	12.419075	-57.245910	94.870	-0.290	-0.210	-0.880	94.970	-1.600	-0.400																			1580031896.0	0.46	0.85
26/01/2020 09:44:57	26012020	260120	094457	94.910	12.419075	-57.245910	94.800	-0.150	-0.260	-0.610	94.890	-1.600	-0.200																			1580031897.0	0.07	0.13
26/01/2020 09:44:58	26012020	260120	094458	94.880	12.419075	-57.245912	94.820	0.030	-0.350	-0.210	94.900	-1.700	0.200																			1580031898.0	0.30	0.56
26/01/2020 09:44:59	26012020	260120	094459	94.940	12.419073	-57.245910	94.900	0.190	-0.540	0.240	94.950	-1.900	0.600																			1580031899.0	0.35	0.65
26/01/2020 09:45:00	26012020	260120	094500	94.980	12.419072	-57.245910	94.940	0.280	-0.580	0.650	94.990	-1.900	1.100	1014.10	25.50	25.60	19.20	19.30	-1.00	68.00	68.00	380.00	25.10	349.00	7.30	84.00	7.00	14	3393.00	27.40	27.40	1580031900.0	0.47	0.87
26/01/2020 09:45:01	26012020	260120	094501	95.020	12.419068	-57.245908	94.990	0.290	-0.320	1.020	95.030	-1.700	1.400																			1580031901.0	0.42	0.78
26/01/2020 09:45:02	26012020	260120	094502	95.090	12.419068	-57.245910	95.090	0.230	0.100	1.270	95.090	-1.400	1.600																			1580031902.0	0.34	0.63
26/01/2020 09:45:03	26012020	260120	094503	95.210	12.419067	-57.245912	95.210	0.110	0.390	1.340	95.240	-1.000	1.800																			1580031903.0	0.29	0.54
26/01/2020 09:45:04	26012020	260120	094504	95.320	12.419068	-57.245912	95.290	-0.020	0.250	1.250	95.320	-1.000	1.700																			1580031904.0	0.22	0.41
26/01/2020 09:45:05	26012020	260120	094505	95.400	12.419070	-57.245910	95.370	-0.120	-0.210	1.030	95.420	-1.500	1.500																			1580031905.0	0.45	0.83
26/01/2020 09:45:06	26012020	260120	094506	95.510	12.419070	-57.245907	95.480	-0.180	-0.540	0.790	95.530	-1.900	1.200																			1580031906.0	0.62	1.15
26/01/2020 09:45:07	26012020	260120	094507	95.580	12.419070	-57.245905	95.530	-0.230	-0.500	0.680	95.590	-1.900	1.100																			1580031907.0	0.38	0.70
26/01/2020 09:45:08	26012020	260120	094508	95.600	12.419070	-57.245905	95.560	-0.270	-0.160	0.580	95.610	-1.500	1.000																			1580031908.0	0.15	0.28
26/01/2020 09:45:09	26012020	260120	094509	95.670	12.419070	-57.245907	95.640	-0.260	0.240	0.310	95.690	-1.100	0.800																			1580031909.0	0.22	0.41
26/01/2020 09:45:10	26012020	260120	094510	95.770	12.419070	-57.245907	95.730	-0.150	0.410	0.010	95.800	-0.900	0.500																			1580031910.0	0.29	0.54
26/01/2020 09:45:11	26012020	260120	094511	95.880	12.419073	-57.245907	95.840	0.030	0.310	-0.200	95.910	-1.000	0.300																			1580031911.0	0.38	0.70
26/01/2020 09:45:12	26012020	260120	094512	96.050	12.419073	-57.245905	96.030	0.170	0.070	-0.330	96.090	-1.300	0.100																			1580031912.0	0.40	0.74
26/01/2020 09:45:13	26012020	260120	094513	96.240	12.419075	-57.245905	96.190	0.220	-0.190	-0.330	96.260	-1.500	0.100																			1580031913.0	0.36	0.67
26/01/2020 09:45:14	26012020	260120	094514	96.320	12.419077	-57.245903	96.230	0.180	-0.460	-0.070	96.330	-1.800	0.400																			1580031914.0	0.24	0.44
26/01/2020 09:45:15	26012020	260120	094515	96.280	12.419075	-57.245903	96.150	0.140	-0.640	0.450	96.260	-2.000	0.900																			1580031915.0	0.19	0.35
26/01/2020 09:45:16	26012020	260120	094516	96.110	12.419073	-57.245903	95.970	0.130	-0.690	1.130	96.110	-2.000	1.300																			1580031916.0	0.47	0.87
26/01/2020 09:45:17	26012020	260120	094517	95.870	12.419070	-57.245902	95.750	0.120	-0.530	1.750	95.820	-1.900	2.200																			1580031917.0	0.70	1.30
26/01/2020 09:45:18	26012020	260120	094518	95.720	12.419067	-57.245902	95.690	0.040	-0.160	2.070	95.720	-1.700	2.400																			1580031918.0	0.67	1.24
26/01/2020 09:45:19	26012020	260120	094519	95.760	12.419065	-57.245902	95.790	-0.110	0.300	1.940	95.780	-1.100	2.400																			1580031919.0	0.40	0.74
26/01/2020 09:45:20	26012020	260120	094520	95.940	12.419067	-57.245903	95.980	-0.250	0.600	1.330	95.980	-0.800	1.800																			1580031920.0	0.23	0.43
26/01/2020 09:45:21	26012020	260120	094521	96.120	12.419070	-57.245903	96.100	-0.280	0.490	0.490	96.140	-0.900	1.000																			1580031921.0	0.68	1.26
26/01/2020 09:45:22	26012020	260120	094522	96.200	12.419073	-57.245902	96.140	-0.170	-0.010	-0.330	96.210	-1.300	0.200																			1580031922.0	0.96	1.78
26/01/2020 09:45:23	26012020	260120	094523	96.250	12.419077	-57.245900	96.160	-0.010	-0.530	-0.980	96.250	-1.900	-0.500																			1580031923.0	1.02	1.89
26/01/2020 09:45:24	26012020	260120	094524	96.260	12.419080	-57.245897	96.150	0.050	-0.660	-1.290	96.250	-2.000	-0.800																			1580031924.0	0.76	1.41
26/01/2020 09:45:25	26012020	260120	094525	96.250	12.419082	-57.245897	96.150	-0.060	-0.360	-1.170	96.250	-1.700	-0.800																			1580031925.0	0.23	0.43
26/01/2020 09:45:26	26012020	260120	094526	96.260	12.419080	-57.245900	96.170	-0.220	0.090	-0.750	96.270	-1.300	-0.300																			1580031926.0	0.55	1.02
26/01/2020 09:45:27	26012020	260120	094527	96.260	12.419077	-57.245902	96.150	-0.220	0.310	-0.180	96.260	-1.100	0.200																			1580031927.0	0.85	1.57
26/01/2020 09:45:28	26012020	260120	094528	96.190	12.419073	-57.245903	96.090	0.010	0.110	0.390	96.190	-1.100	0.600																			1580031928.0	0.74	1.37
26/01/2020 09:45:29	26012020	260120	094529	96.130	12.419072	-57.245902	96.080	0.360	-0.310	0.840	96.130	-1.600	1.300																			1580031929.0	0.60	1.11
26/01/2020 09:45:30	26012020	260120	094530	96.180	12.419070	-57.245900	96.180	0.610	-0.580	1.160	96.180	-1.900	1.500																			1580031930.0	0.50	0.93
26/01/2020 09:45:31	26012020	260120	094531	96.270	12.419068	-57.245900	96.270	0.570	-0.440	1.410	96.280	-1.800	1.800																			1580031931.0	0.21	0.39
26/01/2020 09:45:32	26012020	260120	094532	96.310	12.419068	-57.245900	96.300	0.240	-0.030	1.480	96.310	-1.400	1.900																			1580031932.0	0.28	0.52
26/01/2020 09:45:33	26012020	260120	094533	96.300	12.419068	-57.245903	96.260	-0.220	0.270	1.380	96.280	-1.100	1.800																			1580031933.0	0.50	0.93
26/01/2020 09:45:34	26012020	260120	094534	96.240	12.419070	-57.245905	96.190	-0.570	0.170	1.220	96.220	-1.200	1.700																			1580031934.0	0.28	0.52
26/01/2020 09:45:35	26012020	260120	094535	96.170	12.419068	-57.245903	96.130	-0.650	-0.180	1.020	96.160	-1.500	1.500																			1580031935.0	0.16	0.30
26/01/2020 09:45:36	26012020	260120	094536	96.110	12.419068	-57.245902	96.050	-0.500	-0.430	0.830	96.090	-1.800	1.300																			1580031936.0	0.39	0.72
26/01/2020 09:45:37	26012020	260120	094537	96.040	12.419067	-57.245902	96.000	-0.210	-0.400	0.500	96.030	-1.800	1.000																			1580031937.0	0.34	0.63
26/01/2020 09:45:38	26012020	260120	094538	96.070	12.419067	-57.245902	96.060	0.080	-0.110	-0.120	96.090	-1.500	0.400																			1580031938.0	0.11	0.20
26/01/2020 09:45:39	26012020	260120	094539	96.190	12.419070	-57.245903	96.140	0.280	0.230	-0.770	96.210	-1.200	-0.300																			1580031939.0	0.67	1.24
26/01/2020 09:45:40	26012020	260120	094540	96.250	12.419073	-57.245905	96.130	0.400	0.330	-1.120	96.250	-1.000	-0.600																			1580031940.0	0.86	1.59
26/01/2020 09:45:41	26012020	260120	094541	96.180	12.419077	-57.245905	96.040	0.430	0.140	-1.030	96.150	-1.200	-0.600																			1580031941.0	0.60	1.11
26/01/2020 09:45:42	26012020	260120	094542	96.040	12.419077	-57.245905	95.900	0.350	-0.190	-0.620	96.040	-1.400	-0.400																			1580031942.0	0.21	0.39
26/01/2020 09:45:43	26012020	260120	094543	95.930	12.419077	-57.245903	95.830	0.210	-0.440	-0.060	95.920	-1.800	0.300																			1580031943.0	0.17	0.31
26/01/2020 09:45:44	26012020	260120	094544	95.910	12.419075	-57.245903	95.820	0.010	-0.490	0.690	95.900	-1.800	1.100																			1580031944.0	0.44	0.81
26/01/2020 09:45:45	26012020	260120	094545	95.820	12.419070	-57.245905	95.730	-0.240	-0.360	1.700	95.800	-1.700	2.100																			1580031945.0	1.02	1.89
26/01/2020 09:45:46	26012020	260120	094546	95.640	12.419063	-57.245907	95.570	-0.440	-0.180	2.670	95.600	-1.500	3.000																			1580031946.0	1.56	2.89
26/01/2020 09:45:47	26012020	260120	094547	95.460	12.419055	-57.245908	95.420	-0.450	-0.120	3.140	95.430	-1.500	3.500																			1580031947.0	1.55	2.87
26/01/2020 09:45:48	26012020	260120	094548	95.320	12.419052	-57.245908	95.260	-0.210	-0.210	2.950	95.290	-1.600	3.400																			1580031948.0	0.89	1.65
26/01/2020 09:45:49	26012020	260120	094549	95.200	12.419052	-57.245907	95.170	0.120	-0.240	2.170	95.190	-1.600	2.700																			1580031949.0	0.30	0.56
26/01/2020 09:45:50	26012020	260120	094550	95.190	12.419057	-57.245907	95.180	0.290	0.010	0.970	95.210	-1.400	1.500																			1580031950.0	0.96	1.78
26/01/2020 09:45:51	26012020	260120	094551	95.310	12.419063	-57.245907	95.290	0.240	0.400	-0.410	95.340	-1.000	0.100																			1580031951.0	1.51	2.80
26/01/2020 09:45:52	26012020	260120	094552	95.460	12.419072	-57.245908	95.390	0.090	0.520	-1.640	95.460	-0.800	-0.700																			1580031952.0	1.72	3.19
26/01/2020 09:45:53	26012020	260120	094553	95.550	12.419078	-57.245908	95.440	0.030	0.210	-2.410	95.550	-1.100	-1.900																			1580031953.0	1.42	2.63
26/01/2020 09:45:54	26012020	260120	094554	95.550	12.419082	-57.245907	95.390	0.050	-0.310	-2.470	95.550	-1.400	-2.100																			1580031954.0	0.81	1.50
26/01/2020 09:45:55	26012020	260120	094555	95.470	12.419080	-57.245907	95.310	0.040	-0.660	-1.840	95.440	-2.000	-1.500																			1580031955.0	0.30	0.56
26/01/2020 09:45:56	26012020	260120	094556	95.350	12.419077	-57.245907	95.220	-0.060	-0.680	-0.720	95.320	-2.000	-0.400																			1580031956.0	0.94	1.74
26/01/2020 09:45:57	26012020	260120	094557	95.220	12.419070	-57.245907	95.130	-0.180	-0.460	0.560	95.210	-1.800	0.900																			1580031957.0	1.53	2.83
26/01/2020 09:45:58	26012020	260120	094558	95.150	12.419062	-57.245910	95.110	-0.170	-0.180	1.700	95.150	-1.500	2.100																			1580031958.0	1.71	3.17
26/01/2020 09:45:59	26012020	260120	094559	95.180	12.419055	-57.245910	95.190	-0.040	-0.010	2.540	95.190	-1.400	2.900																			1580031959.0	1.51	2.80
26/01/2020 09:46:00	26012020	260120	094600	95.300	12.419050	-57.245912	95.370	0.110	0.060	2.850	95.350	-1.300	3.300	1014.10	25.50	25.60	19.10	19.20	-1.00	67.00	67.00	379.00	25.10	348.00	6.60	83.00	6.40	15	3280.00	27.40	27.40	1580031960.0	1.04	1.93
26/01/2020 09:46:01	26012020	260120	094601	95.530	12.419048	-57.245912	95.590	0.150	0.160	2.560	95.570	-1.200	3.000																			1580031961.0	0.33	0.61
26/01/2020 09:46:02	26012020	260120	094602	95.720	12.419050	-57.245912	95.740	0.070	0.250	1.880	95.750	-1.100	2.400																			1580031962.0	0.42	0.78
26/01/2020 09:46:03	26012020	260120	094603	95.780	12.419053	-57.245913	95.720	-0.010	0.120	1.080	95.780	-1.200	1.600																			1580031963.0	0.81	1.50
26/01/2020 09:46:04	26012020	260120	094604	95.720	12.419058	-57.245912	95.630	0.010	-0.280	0.310	95.710	-1.600	0.800																			1580031964.0	0.84	1.56
26/01/2020 09:46:05	26012020	260120	094605	95.660	12.419062	-57.245910	95.590	0.100	-0.650	-0.360	95.660	-2.000	0.100																			1580031965.0	0.77	1.43
26/01/2020 09:46:06	26012020	260120	094606	95.680	12.419063	-57.245910	95.590	0.140	-0.660	-0.840	95.680	-2.100	-0.200																			1580031966.0	0.62	1.15
26/01/2020 09:46:07	26012020	260120	094607	95.710	12.419065	-57.245910	95.630	0.040	-0.280	-1.020	95.720	-1.700	-0.600																			1580031967.0	0.40	0.74
26/01/2020 09:46:08	26012020	260120	094608	95.760	12.419067	-57.245912	95.710	-0.140	0.250	-0.950	95.760	-1.300	-0.600																			1580031968.0	0.49	0.91
26/01/2020 09:46:09	26012020	260120	094609	95.890	12.419065	-57.245915	95.870	-0.230	0.530	-0.710	95.920	-0.800	-0.300																			1580031969.0	0.59	1.09
26/01/2020 09:46:10	26012020	260120	094610	96.060	12.419063	-57.245917	96.040	-0.190	0.430	-0.220	96.080	-0.900	0.200																			1580031970.0	0.56	1.04
26/01/2020 09:46:11	26012020	260120	094611	96.150	12.419060	-57.245917	96.110	-0.080	0.060	0.570	96.150	-1.300	0.900																			1580031971.0	0.82	1.52
26/01/2020 09:46:12	26012020	260120	094612	96.100	12.419055	-57.245917	96.050	0.050	-0.410	1.420	96.080	-1.700	1.800																			1580031972.0	1.01	1.87
26/01/2020 09:46:13	26012020	260120	094613	95.980	12.419052	-57.245917	95.920	0.160	-0.750	2.050	95.960	-2.100	2.400																			1580031973.0	0.87	1.61
26/01/2020 09:46:14	26012020	260120	094614	95.850	12.419048	-57.245915	95.810	0.190	-0.700	2.410	95.830	-2.100	2.800																			1580031974.0	0.56	1.04
26/01/2020 09:46:15	26012020	260120	094615	95.750	12.419047	-57.245917	95.730	0.080	-0.330	2.490	95.730	-1.700	2.900																			1580031975.0	0.47	0.87
26/01/2020 09:46:16	26012020	260120	094616	95.700	12.419045	-57.245918	95.720	-0.070	0.050	2.170	95.710	-1.300	2.600																			1580031976.0	0.49	0.91
26/01/2020 09:46:17	26012020	260120	094617	95.750	12.419047	-57.245920	95.780	-0.130	0.240	1.430	95.770	-1.100	1.900																			1580031977.0	0.32	0.59
26/01/2020 09:46:18	26012020	260120	094618	95.880	12.419050	-57.245920	95.890	-0.070	0.230	0.370	95.910	-1.100	0.900																			1580031978.0	0.71	1.31
26/01/2020 09:46:19	26012020	260120	094619	96.030	12.419055	-57.245920	96.020	0.090	0.050	-0.790	96.070	-1.300	-0.300																			1580031979.0	1.17	2.17
26/01/2020 09:46:20	26012020	260120	094620	96.210	12.419060	-57.245918	96.180	0.210	-0.120	-1.700	96.210	-1.400	-0.900																			1580031980.0	1.31	2.43
26/01/2020 09:46:21	26012020	260120	094621	96.370	12.419065	-57.245917	96.280	0.200	-0.150	-2.010	96.380	-1.500	-1.600																			1580031981.0	0.98	1.81
26/01/2020 09:46:22	26012020	260120	094622	96.360	12.419067	-57.245918	96.200	0.060	-0.140	-1.590	96.330	-1.500	-1.200																			1580031982.0	0.33	0.61
26/01/2020 09:46:23	26012020	260120	094623	96.200	12.419063	-57.245920	96.060	-0.060	-0.250	-0.680	96.160	-1.600	-0.300																			1580031983.0	0.57	1.06
26/01/2020 09:46:24	26012020	260120	094624	96.070	12.419058	-57.245920	95.980	-0.120	-0.350	0.400	96.050	-1.700	0.800																			1580031984.0	1.10	2.04
26/01/2020 09:46:25	26012020	260120	094625	96.020	12.419052	-57.245920	96.000	-0.150	-0.320	1.490	96.020	-1.700	1.800																			1580031985.0	1.42	2.63
26/01/2020 09:46:26	26012020	260120	094626	96.090	12.419045	-57.245922	96.170	-0.220	-0.080	2.350	96.130	-1.400	2.700																			1580031986.0	1.52	2.82
26/01/2020 09:46:27	26012020	260120	094627	96.330	12.419040	-57.245923	96.450	-0.290	0.230	2.790	96.400	-1.100	3.200																			1580031987.0	1.35	2.50
26/01/2020 09:46:28	26012020	260120	094628	96.640	12.419037	-57.245927	96.720	-0.240	0.320	2.700	96.700	-1.000	3.100																			1580031988.0	0.91	1.69
26/01/2020 09:46:29	26012020	260120	094629	96.830	12.419035	-57.245928	96.820	-0.000	0.070	2.180	96.840	-1.300	2.600																			1580031989.0	0.23	0.43
26/01/2020 09:46:30	26012020	260120	094630	96.780	12.419038	-57.245927	96.690	0.320	-0.330	1.460	96.780	-1.500	2.200																			1580031990.0	0.55	1.02
26/01/2020 09:46:31	26012020	260120	094631	96.600	12.419042	-57.245925	96.490	0.520	-0.570	0.690	96.560	-1.900	1.200																			1580031991.0	0.95	1.76
26/01/2020 09:46:32	26012020	260120	094632	96.440	12.419048	-57.245925	96.370	0.480	-0.580	-0.050	96.440	-1.900	0.700																			1580031992.0	1.13	2.09
26/01/2020 09:46:33	26012020	260120	094633	96.440	12.419053	-57.245925	96.420	0.270	-0.420	-0.680	96.460	-1.800	-0.200																			1580031993.0	1.08	2.00
26/01/2020 09:46:34	26012020	260120	094634	96.560	12.419057	-57.245925	96.560	-0.010	-0.100	-0.980	96.580	-1.500	-0.500																			1580031994.0	0.74	1.37
26/01/2020 09:46:35	26012020	260120	094635	96.630	12.419057	-57.245927	96.580	-0.230	0.240	-0.830	96.630	-1.100	-0.400																			1580031995.0	0.35	0.65
26/01/2020 09:46:36	26012020	260120	094636	96.640	12.419055	-57.245928	96.610	-0.350	0.360	-0.370	96.650	-1.000	0.000																			1580031996.0	0.61	1.13
26/01/2020 09:46:37	26012020	260120	094637	96.700	12.419050	-57.245930	96.680	-0.320	0.240	0.250	96.710	-1.100	0.600																			1580031997.0	0.91	1.69
26/01/2020 09:46:38	26012020	260120	094638	96.750	12.419045	-57.245930	96.720	-0.170	0.020	0.970	96.750	-1.300	1.300																			1580031998.0	1.08	2.00
26/01/2020 09:46:39	26012020	260120	094639	96.740	12.419040	-57.245930	96.720	0.010	-0.140	1.640	96.740	-1.500	2.000																			1580031999.0	1.06	1.96
26/01/2020 09:46:40	26012020	260120	094640	96.720	12.419037	-57.245932	96.710	0.090	-0.210	2.050	96.720	-1.600	2.400																			1580032000.0	0.79	1.46
26/01/2020 09:46:41	26012020	260120	094641	96.690	12.419035	-57.245932	96.650	0.080	-0.240	2.180	96.670	-1.600	2.600																			1580032001.0	0.39	0.72
26/01/2020 09:46:42	26012020	260120	094642	96.570	12.419035	-57.245933	96.510	0.080	-0.300	2.080	96.540	-1.600	2.500																			1580032002.0	0.18	0.33
26/01/2020 09:46:43	26012020	260120	094643	96.430	12.419037	-57.245933	96.370	0.130	-0.360	1.740	96.410	-1.700	2.200																			1580032003.0	0.25	0.46
26/01/2020 09:46:44	26012020	260120	094644	96.380	12.419038	-57.245933	96.350	0.130	-0.350	1.190	96.380	-1.700	1.900																			1580032004.0	0.38	0.70
26/01/2020 09:46:45	26012020	260120	094645	96.430	12.419040	-57.245933	96.430	0.030	-0.220	0.510	96.450	-1.600	1.000																			1580032005.0	0.49	0.91
26/01/2020 09:46:46	26012020	260120	094646	96.540	12.419043	-57.245933	96.520	-0.110	-0.030	-0.170	96.560	-1.400	0.300																			1580032006.0	0.60	1.11
26/01/2020 09:46:47	26012020	260120	094647	96.650	12.419047	-57.245935	96.600	-0.130	0.060	-0.670	96.670	-1.300	-0.200																			1580032007.0	0.57	1.06
26/01/2020 09:46:48	26012020	260120	094648	96.730	12.419048	-57.245933	96.670	0.020	0.000	-0.900	96.740	-1.300	-0.500																			1580032008.0	0.35	0.65
26/01/2020 09:46:49	26012020	260120	094649	96.810	12.419048	-57.245933	96.740	0.190	-0.080	-0.870	96.820	-1.400	-0.500																			1580032009.0	0.16	0.30
26/01/2020 09:46:50	26012020	260120	094650	96.910	12.419048	-57.245933	96.850	0.230	-0.120	-0.560	96.930	-1.500	-0.200																			1580032010.0	0.13	0.24
26/01/2020 09:46:51	26012020	260120	094651	96.950	12.419045	-57.245933	96.870	0.130	-0.120	0.140	96.940	-1.500	0.500																			1580032011.0	0.45	0.83
26/01/2020 09:46:52	26012020	260120	094652	96.890	12.419042	-57.245935	96.820	-0.050	-0.030	1.000	96.880	-1.400	1.400																			1580032012.0	0.82	1.52
26/01/2020 09:46:53	26012020	260120	094653	96.870	12.419038	-57.245937	96.850	-0.210	0.070	1.720	96.870	-1.300	2.100																			1580032013.0	0.95	1.76
26/01/2020 09:46:54	26012020	260120	094654	96.920	12.419033	-57.245938	96.920	-0.310	0.070	2.240	96.930	-1.300	2.600																			1580032014.0	0.92	1.70
26/01/2020 09:46:55	26012020	260120	094655	96.990	12.419030	-57.245938	97.000	-0.300	-0.040	2.550	97.000	-1.400	2.900																			1580032015.0	0.84	1.56
26/01/2020 09:46:56	26012020	260120	094656	97.060	12.419027	-57.245940	97.050	-0.180	-0.160	2.520	97.060	-1.500	3.000																			1580032016.0	0.61	1.13
26/01/2020 09:46:57	26012020	260120	094657	97.110	12.419027	-57.245940	97.080	-0.000	-0.270	2.070	97.110	-1.600	2.500																			1580032017.0	0.14	0.26
26/01/2020 09:46:58	26012020	260120	094658	97.140	12.419030	-57.245940	97.090	0.170	-0.410	1.340	97.140	-1.700	2.100																			1580032018.0	0.53	0.98
26/01/2020 09:46:59	26012020	260120	094659	97.110	12.419033	-57.245940	97.030	0.280	-0.530	0.630	97.100	-1.900	1.100																			1580032019.0	0.80	1.48
26/01/2020 09:47:00	26012020	260120	094700	96.980	12.419037	-57.245938	96.850	0.300	-0.490	0.090	96.940	-1.900	0.500	1014.00	25.50	25.60	19.30	19.30	-1.00	68.00	68.00	379.00	25.10	355.00	5.90	91.00	5.60	15	3269.00	27.40	27.40	1580032020.0	0.78	1.44
26/01/2020 09:47:01	26012020	260120	094701	96.800	12.419040	-57.245938	96.690	0.260	-0.300	-0.370	96.780	-1.700	0.100																			1580032021.0	0.67	1.24
26/01/2020 09:47:02	26012020	260120	094702	96.790	12.419042	-57.245938	96.750	0.160	-0.010	-0.820	96.820	-1.400	-0.400																			1580032022.0	0.59	1.09
26/01/2020 09:47:03	26012020	260120	094703	96.960	12.419045	-57.245940	96.940	0.020	0.340	-1.070	97.000	-1.000	-0.600																			1580032023.0	0.50	0.93
26/01/2020 09:47:04	26012020	260120	094704	97.130	12.419045	-57.245942	97.070	-0.170	0.580	-0.910	97.150	-0.800	-0.500																			1580032024.0	0.37	0.69
26/01/2020 09:47:05	26012020	260120	094705	97.200	12.419043	-57.245943	97.130	-0.290	0.480	-0.350	97.210	-0.900	0.000																			1580032025.0	0.48	0.89
26/01/2020 09:47:06	26012020	260120	094706	97.240	12.419040	-57.245943	97.180	-0.250	0.020	0.390	97.240	-1.100	0.500																			1580032026.0	0.76	1.41
26/01/2020 09:47:07	26012020	260120	094707	97.280	12.419037	-57.245943	97.230	-0.080	-0.540	1.250	97.280	-1.900	1.600																			1580032027.0	1.00	1.85
26/01/2020 09:47:08	26012020	260120	094708	97.220	12.419030	-57.245943	97.140	0.050	-0.830	2.110	97.190	-2.200	2.500																			1580032028.0	1.17	2.17
26/01/2020 09:47:09	26012020	260120	094709	97.020	12.419025	-57.245943	96.930	0.010	-0.650	2.760	96.980	-2.000	3.100																			1580032029.0	1.09	2.02
26/01/2020 09:47:10	26012020	260120	094710	96.810	12.419022	-57.245947	96.750	-0.150	-0.160	2.950	96.770	-1.500	3.400																			1580032030.0	0.88	1.63
26/01/2020 09:47:11	26012020	260120	094711	96.690	12.419022	-57.245948	96.660	-0.210	0.220	2.590	96.680	-1.100	3.000																			1580032031.0	0.60	1.11
26/01/2020 09:47:12	26012020	260120	094712	96.700	12.419023	-57.245950	96.700	-0.060	0.280	1.700	96.720	-1.100	2.200																			1580032032.0	0.51	0.94
26/01/2020 09:47:13	26012020	260120	094713	96.880	12.419028	-57.245950	96.900	0.180	0.090	0.430	96.930	-1.200	0.900																			1580032033.0	1.04	1.93
26/01/2020 09:47:14	26012020	260120	094714	97.120	12.419035	-57.245948	97.070	0.300	-0.130	-0.820	97.150	-1.500	-0.300																			1580032034.0	1.42	2.63
26/01/2020 09:47:15	26012020	260120	094715	97.190	12.419040	-57.245947	97.050	0.250	-0.280	-1.600	97.170	-1.600	-1.100																			1580032035.0	1.31	2.43
26/01/2020 09:47:16	26012020	260120	094716	97.030	12.419045	-57.245947	96.820	0.130	-0.390	-1.750	96.980	-1.700	-1.300																			1580032036.0	0.82	1.52
26/01/2020 09:47:17	26012020	260120	094717	96.810	12.419045	-57.245947	96.660	0.030	-0.410	-1.400	96.780	-1.800	-1.000																			1580032037.0	0.20	0.37
26/01/2020 09:47:18	26012020	260120	094718	96.750	12.419043	-57.245947	96.670	-0.070	-0.250	-0.720	96.750	-1.600	-0.400																			1580032038.0	0.42	0.78
26/01/2020 09:47:19	26012020	260120	094719	96.810	12.419038	-57.245948	96.760	-0.150	-0.020	0.210	96.820	-1.400	0.500																			1580032039.0	1.01	1.87
26/01/2020 09:47:20	26012020	260120	094720	96.860	12.419033	-57.245950	96.810	-0.200	0.180	1.200	96.860	-1.200	1.200																			1580032040.0	1.40	2.59
26/01/2020 09:47:21	26012020	260120	094721	96.860	12.419027	-57.245952	96.800	-0.190	0.250	2.010	96.850	-1.100	2.400																			1580032041.0	1.42	2.63
26/01/2020 09:47:22	26012020	260120	094722	96.870	12.419022	-57.245953	96.860	-0.140	0.200	2.430	96.870	-1.100	2.700																			1580032042.0	1.05	1.94
26/01/2020 09:47:23	26012020	260120	094723	96.970	12.419018	-57.245953	96.970	-0.090	0.020	2.430	96.990	-1.300	2.800																			1580032043.0	0.50	0.93
26/01/2020 09:47:24	26012020	260120	094724	97.090	12.419018	-57.245953	97.060	-0.050	-0.240	2.140	97.100	-1.600	2.600																			1580032044.0	0.01	0.02
26/01/2020 09:47:25	26012020	260120	094725	97.110	12.419020	-57.245953	97.010	-0.040	-0.420	1.730	97.100	-1.800	2.200																			1580032045.0	0.20	0.37
26/01/2020 09:47:26	26012020	260120	094726	96.970	12.419022	-57.245953	96.800	0.010	-0.460	1.270	96.920	-1.800	1.700																			1580032046.0	0.27	0.50
26/01/2020 09:47:27	26012020	260120	094727	96.700	12.419023	-57.245953	96.500	0.120	-0.420	0.720	96.640	-1.800	1.200																			1580032047.0	0.40	0.74
26/01/2020 09:47:28	26012020	260120	094728	96.470	12.419027	-57.245953	96.320	0.230	-0.330	0.060	96.440	-1.700	0.500																			1580032048.0	0.62	1.15
26/01/2020 09:47:29	26012020	260120	094729	96.370	12.419030	-57.245953	96.230	0.250	-0.090	-0.520	96.360	-1.500	-0.100																			1580032049.0	0.77	1.43
26/01/2020 09:47:30	26012020	260120	094730	96.350	12.419033	-57.245953	96.210	0.170	0.200	-0.900	96.350	-1.200	-0.500																			1580032050.0	0.74	1.37
26/01/2020 09:47:31	26012020	260120	094731	96.360	12.419035	-57.245955	96.260	0.060	0.320	-1.050	96.370	-1.000	-0.600																			1580032051.0	0.61	1.13
26/01/2020 09:47:32	26012020	260120	094732	96.440	12.419037	-57.245955	96.350	-0.020	0.110	-0.860	96.440	-1.100	-0.600																			1580032052.0	0.23	0.43
26/01/2020 09:47:33	26012020	260120	094733	96.480	12.419035	-57.245955	96.380	-0.060	-0.250	-0.250	96.480	-1.600	0.100																			1580032053.0	0.44	0.81
26/01/2020 09:47:34	26012020	260120	094734	96.430	12.419030	-57.245955	96.310	-0.130	-0.390	0.630	96.430	-1.700	0.700																			1580032054.0	1.03	1.91
26/01/2020 09:47:35	26012020	260120	094735	96.310	12.419023	-57.245957	96.170	-0.230	-0.220	1.570	96.270	-1.600	1.900																			1580032055.0	1.34	2.48
26/01/2020 09:47:36	26012020	260120	094736	96.050	12.419018	-57.245958	95.900	-0.290	-0.010	2.370	95.990	-1.400	2.800																			1580032056.0	1.31	2.43
26/01/2020 09:47:37	26012020	260120	094737	95.780	12.419013	-57.245960	95.690	-0.220	-0.020	2.710	95.750	-1.400	3.100																			1580032057.0	0.94	1.74
26/01/2020 09:47:38	26012020	260120	094738	95.710	12.419013	-57.245962	95.670	-0.070	-0.140	2.440	95.720	-1.500	2.900																			1580032058.0	0.33	0.61
26/01/2020 09:47:39	26012020	260120	094739	95.760	12.419013	-57.245960	95.690	0.040	-0.180	1.770	95.770	-1.500	2.300																			1580032059.0	0.21	0.39
26/01/2020 09:47:40	26012020	260120	094740	95.780	12.419017	-57.245962	95.680	0.070	-0.090	0.850	95.780	-1.500	1.400																			1580032060.0	0.68	1.26
26/01/2020 09:47:41	26012020	260120	094741	95.820	12.419022	-57.245962	95.720	0.060	-0.020	-0.140	95.830	-1.400	0.400																			1580032061.0	1.03	1.91
26/01/2020 09:47:42	26012020	260120	094742	95.880	12.419027	-57.245962	95.760	0.100	-0.080	-0.950	95.880	-1.400	-0.500																			1580032062.0	1.09	2.02
26/01/2020 09:47:43	26012020	260120	094743	95.880	12.419030	-57.245962	95.730	0.190	-0.280	-1.400	95.870	-1.600	-1.000																			1580032063.0	0.77	1.43
26/01/2020 09:47:44	26012020	260120	094744	95.840	12.419032	-57.245962	95.690	0.260	-0.420	-1.450	95.830	-1.800	-1.000																			1580032064.0	0.36	0.67
26/01/2020 09:47:45	26012020	260120	094745	95.780	12.419030	-57.245962	95.630	0.220	-0.330	-1.020	95.760	-1.700	-0.600																			1580032065.0	0.17	0.31
26/01/2020 09:47:46	26012020	260120	094746	95.680	12.419028	-57.245962	95.540	0.030	-0.060	-0.220	95.680	-1.500	-0.200																			1580032066.0	0.64	1.19
26/01/2020 09:47:47	26012020	260120	094747	95.600	12.419023	-57.245963	95.520	-0.170	0.160	0.690	95.600	-1.200	1.100																			1580032067.0	0.99	1.83
26/01/2020 09:47:48	26012020	260120	094748	95.660	12.419018	-57.245965	95.660	-0.280	0.250	1.450	95.660	-1.100	1.600																			1580032068.0	1.05	1.94
26/01/2020 09:47:49	26012020	260120	094749	95.850	12.419015	-57.245967	95.880	-0.330	0.210	2.060	95.890	-1.100	2.400																			1580032069.0	0.98	1.81
26/01/2020 09:47:50	26012020	260120	094750	96.050	12.419010	-57.245967	96.070	-0.330	0.050	2.510	96.080	-1.300	2.900																			1580032070.0	0.92	1.70
26/01/2020 09:47:51	26012020	260120	094751	96.170	12.419007	-57.245967	96.160	-0.250	-0.180	2.740	96.180	-1.500	3.100																			1580032071.0	0.82	1.52
26/01/2020 09:47:52	26012020	260120	094752	96.150	12.419003	-57.245967	96.070	-0.040	-0.400	2.700	96.130	-1.700	3.100																			1580032072.0	0.56	1.04
26/01/2020 09:47:53	26012020	260120	094753	96.000	12.419003	-57.245967	95.900	0.240	-0.530	2.290	95.970	-1.900	2.700																			1580032073.0	0.16	0.30
26/01/2020 09:47:54	26012020	260120	094754	95.870	12.419005	-57.245965	95.780	0.450	-0.510	1.550	95.850	-1.900	2.000																			1580032074.0	0.51	0.94
26/01/2020 09:47:55	26012020	260120	094755	95.820	12.419010	-57.245965	95.750	0.460	-0.300	0.620	95.820	-1.700	1.100																			1580032075.0	0.97	1.80
26/01/2020 09:47:56	26012020	260120	094756	95.870	12.419015	-57.245965	95.840	0.280	-0.000	-0.310	95.890	-1.400	0.200																			1580032076.0	1.21	2.24
26/01/2020 09:47:57	26012020	260120	094757	96.020	12.419022	-57.245965	96.010	0.040	0.260	-1.000	96.060	-1.100	-0.500																			1580032077.0	1.13	2.09
26/01/2020 09:47:58	26012020	260120	094758	96.220	12.419025	-57.245967	96.200	-0.150	0.400	-1.350	96.220	-1.000	-0.800																			1580032078.0	0.81	1.50
26/01/2020 09:47:59	26012020	260120	094759	96.380	12.419027	-57.245967	96.330	-0.210	0.270	-1.150	96.410	-1.100	-0.800																			1580032079.0	0.32	0.59
26/01/2020 09:48:00	26012020	260120	094800	96.410	12.419025	-57.245967	96.300	-0.180	-0.090	-0.430	96.390	-1.400	-0.100	1014.10	25.50	25.60	19.50	19.50	-1.00	69.00	69.00	379.00	25.00	359.00	6.00	96.00	5.60	15	3385.00	27.40	27.40	1580032080.0	0.37	0.69
26/01/2020 09:48:01	26012020	260120	094801	96.270	12.419020	-57.245965	96.150	-0.150	-0.410	0.640	96.240	-1.800	1.000																			1580032081.0	0.99	1.83
26/01/2020 09:48:02	26012020	260120	094802	96.120	12.419013	-57.245965	96.070	-0.140	-0.510	1.760	96.110	-1.900	2.100																			1580032082.0	1.31	2.43
26/01/2020 09:48:03	26012020	260120	094803	96.090	12.419007	-57.245967	96.070	-0.130	-0.440	2.700	96.090	-1.800	3.000																			1580032083.0	1.43	2.65
26/01/2020 09:48:04	26012020	260120	094804	96.040	12.419002	-57.245968	95.970	-0.040	-0.380	3.310	96.010	-1.700	3.700																			1580032084.0	1.29	2.39
26/01/2020 09:48:05	26012020	260120	094805	95.890	12.418997	-57.245968	95.830	0.090	-0.320	3.370	95.870	-1.700	3.800																			1580032085.0	0.81	1.50
26/01/2020 09:48:06	26012020	260120	094806	95.860	12.418997	-57.245967	95.870	0.180	-0.100	2.710	95.880	-1.500	3.200																			1580032086.0	0.10	0.19
26/01/2020 09:48:07	26012020	260120	094807	96.020	12.419002	-57.245967	96.020	0.190	0.230	1.530	96.050	-1.100	2.000																			1580032087.0	0.86	1.59
26/01/2020 09:48:08	26012020	260120	094808	96.170	12.419008	-57.245968	96.100	0.180	0.430	0.220	96.190	-0.900	0.700																			1580032088.0	1.47	2.72
26/01/2020 09:48:09	26012020	260120	094809	96.210	12.419017	-57.245968	96.100	0.180	0.330	-0.960	96.210	-1.000	-0.500																			1580032089.0	1.70	3.15
26/01/2020 09:48:10	26012020	260120	094810	96.260	12.419023	-57.245967	96.190	0.140	0.040	-1.810	96.290	-1.300	-1.400																			1580032090.0	1.64	3.04
26/01/2020 09:48:11	26012020	260120	094811	96.410	12.419028	-57.245965	96.360	0.030	-0.280	-2.130	96.440	-1.600	-1.700																			1580032091.0	1.19	2.20
26/01/2020 09:48:12	26012020	260120	094812	96.520	12.419030	-57.245965	96.430	-0.100	-0.530	-1.730	96.520	-1.800	-1.600																			1580032092.0	0.33	0.61
26/01/2020 09:48:13	26012020	260120	094813	96.470	12.419027	-57.245963	96.360	-0.190	-0.620	-0.630	96.450	-2.000	-0.300																			1580032093.0	0.76	1.41
26/01/2020 09:48:14	26012020	260120	094814	96.330	12.419020	-57.245965	96.240	-0.250	-0.470	0.780	96.300	-1.800	1.100																			1580032094.0	1.59	2.94
26/01/2020 09:48:15	26012020	260120	094815	96.210	12.419012	-57.245967	96.170	-0.300	-0.130	2.050	96.200	-1.500	2.400																			1580032095.0	1.83	3.39
26/01/2020 09:48:16	26012020	260120	094816	96.210	12.419003	-57.245968	96.220	-0.280	0.170	2.900	96.230	-1.200	3.300																			1580032096.0	1.56	2.89
26/01/2020 09:48:17	26012020	260120	094817	96.310	12.419000	-57.245970	96.300	-0.170	0.180	3.290	96.320	-1.200	3.700																			1580032097.0	1.05	1.94
26/01/2020 09:48:18	26012020	260120	094818	96.360	12.418997	-57.245970	96.310	0.040	-0.080	3.180	96.360	-1.400	3.600																			1580032098.0	0.53	0.98
26/01/2020 09:48:19	26012020	260120	094819	96.380	12.418998	-57.245968	96.340	0.250	-0.310	2.510	96.390	-1.700	3.000																			1580032099.0	0.43	0.80
26/01/2020 09:48:20	26012020	260120	094820	96.430	12.419002	-57.245967	96.410	0.390	-0.260	1.460	96.440	-1.600	1.900																			1580032100.0	0.99	1.83
26/01/2020 09:48:21	26012020	260120	094821	96.520	12.419008	-57.245967	96.480	0.390	-0.010	0.290	96.540	-1.400	0.800																			1580032101.0	1.44	2.67
26/01/2020 09:48:22	26012020	260120	094822	96.660	12.419015	-57.245967	96.620	0.270	0.230	-0.730	96.690	-1.100	-0.300																			1580032102.0	1.55	2.87
26/01/2020 09:48:23	26012020	260120	094823	96.830	12.419022	-57.245967	96.790	0.080	0.280	-1.460	96.870	-1.100	-1.000																			1580032103.0	1.32	2.44
26/01/2020 09:48:24	26012020	260120	094824	97.010	12.419027	-57.245967	96.940	-0.110	0.100	-1.720	97.010	-1.200	-1.300																			1580032104.0	0.89	1.65
26/01/2020 09:48:25	26012020	260120	094825	97.070	12.419027	-57.245967	96.930	-0.220	-0.250	-1.290	97.050	-1.600	-0.900																			1580032105.0	0.17	0.31
26/01/2020 09:48:26	26012020	260120	094826	96.920	12.419023	-57.245967	96.730	-0.200	-0.610	-0.310	96.870	-1.900	0.000																			1580032106.0	0.70	1.30
26/01/2020 09:48:27	26012020	260120	094827	96.670	12.419017	-57.245965	96.530	-0.120	-0.800	0.920	96.640	-2.100	1.300																			1580032107.0	1.31	2.43
26/01/2020 09:48:28	26012020	260120	094828	96.500	12.419010	-57.245965	96.420	-0.070	-0.690	2.020	96.480	-2.100	2.400																			1580032108.0	1.54	2.85
26/01/2020 09:48:29	26012020	260120	094829	96.480	12.419005	-57.245967	96.460	-0.120	-0.240	2.680	96.500	-1.600	3.100																			1580032109.0	1.31	2.43
26/01/2020 09:48:30	26012020	260120	094830	96.600	12.419000	-57.245968	96.610	-0.230	0.360	2.820	96.640	-1.000	3.200																			1580032110.0	0.85	1.57
26/01/2020 09:48:31	26012020	260120	094831	96.770	12.419000	-57.245970	96.740	-0.260	0.720	2.500	96.800	-0.700	2.900																			1580032111.0	0.47	0.87
26/01/2020 09:48:32	26012020	260120	094832	96.880	12.419002	-57.245970	96.820	-0.130	0.650	1.760	96.900	-0.700	2.200																			1580032112.0	0.38	0.70
26/01/2020 09:48:33	26012020	260120	094833	96.940	12.419005	-57.245970	96.820	0.130	0.200	0.740	96.940	-1.100	1.200																			1580032113.0	0.92	1.70
26/01/2020 09:48:34	26012020	260120	094834	96.930	12.419012	-57.245967	96.780	0.370	-0.340	-0.260	96.920	-1.700	0.200																			1580032114.0	1.36	2.52
26/01/2020 09:48:35	26012020	260120	094835	96.880	12.419018	-57.245965	96.720	0.470	-0.680	-1.010	96.870	-2.000	-0.500																			1580032115.0	1.39	2.57
26/01/2020 09:48:36	26012020	260120	094836	96.810	12.419022	-57.245963	96.640	0.390	-0.780	-1.300	96.810	-2.100	-0.800																			1580032116.0	1.03	1.91
26/01/2020 09:48:37	26012020	260120	094837	96.720	12.419025	-57.245963	96.570	0.170	-0.700	-1.110	96.710	-2.100	-0.700																			1580032117.0	0.43	0.80
26/01/2020 09:48:38	26012020	260120	094838	96.630	12.419023	-57.245963	96.490	-0.110	-0.380	-0.490	96.630	-1.900	-0.400																			1580032118.0	0.26	0.48
26/01/2020 09:48:39	26012020	260120	094839	96.560	12.419018	-57.245965	96.470	-0.370	0.140	0.350	96.560	-1.200	0.700																			1580032119.0	0.90	1.67
26/01/2020 09:48:40	26012020	260120	094840	96.530	12.419013	-57.245967	96.450	-0.530	0.560	1.250	96.530	-0.800	1.600																			1580032120.0	1.29	2.39
26/01/2020 09:48:41	26012020	260120	094841	96.510	12.419008	-57.245968	96.460	-0.510	0.610	1.980	96.520	-0.700	2.300																			1580032121.0	1.32	2.44
26/01/2020 09:48:42	26012020	260120	094842	96.540	12.419003	-57.245968	96.480	-0.300	0.270	2.360	96.540	-1.100	2.800																			1580032122.0	1.01	1.87
26/01/2020 09:48:43	26012020	260120	094843	96.500	12.419000	-57.245967	96.410	0.020	-0.230	2.400	96.480	-1.500	2.800																			1580032123.0	0.58	1.07
26/01/2020 09:48:44	26012020	260120	094844	96.420	12.419002	-57.245965	96.330	0.290	-0.580	2.080	96.410	-1.900	2.500																			1580032124.0	0.41	0.76
26/01/2020 09:48:45	26012020	260120	094845	96.360	12.419003	-57.245963	96.270	0.410	-0.710	1.490	96.340	-2.100	2.000																			1580032125.0	0.68	1.26
26/01/2020 09:48:46	26012020	260120	094846	96.270	12.419008	-57.245963	96.180	0.370	-0.590	0.800	96.260	-2.000	1.300																			1580032126.0	0.94	1.74
26/01/2020 09:48:47	26012020	260120	094847	96.240	12.419012	-57.245963	96.170	0.210	-0.180	0.150	96.240	-1.600	0.600																			1580032127.0	0.95	1.76
26/01/2020 09:48:48	26012020	260120	094848	96.300	12.419017	-57.245963	96.240	-0.020	0.330	-0.330	96.300	-1.200	0.300																			1580032128.0	0.82	1.52
26/01/2020 09:48:49	26012020	260120	094849	96.380	12.419018	-57.245965	96.310	-0.220	0.560	-0.570	96.390	-0.800	-0.100																			1580032129.0	0.57	1.06
26/01/2020 09:48:50	26012020	260120	094850	96.410	12.419018	-57.245967	96.290	-0.240	0.250	-0.570	96.410	-0.900	-0.200																			1580032130.0	0.12	0.22
26/01/2020 09:48:51	26012020	260120	094851	96.290	12.419017	-57.245963	96.140	-0.020	-0.350	-0.260	96.250	-1.700	0.100																			1580032131.0	0.48	0.89
26/01/2020 09:48:52	26012020	260120	094852	96.090	12.419015	-57.245962	95.970	0.250	-0.710	0.210	96.060	-2.100	0.600																			1580032132.0	0.74	1.37
26/01/2020 09:48:53	26012020	260120	094853	96.000	12.419013	-57.245960	95.980	0.280	-0.520	0.750	96.000	-1.900	1.100																			1580032133.0	0.49	0.91
26/01/2020 09:48:54	26012020	260120	094854	96.110	12.419012	-57.245962	96.160	-0.020	0.010	1.270	96.150	-1.400	1.600																			1580032134.0	0.57	1.06
26/01/2020 09:48:55	26012020	260120	094855	96.330	12.419008	-57.245965	96.380	-0.410	0.360	1.610	96.370	-1.000	2.000																			1580032135.0	0.81	1.50
26/01/2020 09:48:56	26012020	260120	094856	96.460	12.419007	-57.245967	96.410	-0.520	0.240	1.810	96.450	-1.100	2.200																			1580032136.0	0.61	1.13
26/01/2020 09:48:57	26012020	260120	094857	96.370	12.419005	-57.245965	96.290	-0.290	-0.140	1.920	96.330	-1.500	2.300																			1580032137.0	0.50	0.93
26/01/2020 09:48:58	26012020	260120	094858	96.260	12.419003	-57.245963	96.210	0.060	-0.370	1.850	96.250	-1.700	2.300																			1580032138.0	0.47	0.87
26/01/2020 09:48:59	26012020	260120	094859	96.250	12.419003	-57.245962	96.200	0.290	-0.400	1.530	96.250	-1.800	2.000																			1580032139.0	0.18	0.33
26/01/2020 09:49:00	26012020	260120	094900	96.260	12.419005	-57.245962	96.190	0.360	-0.340	0.960	96.260	-1.700	1.600	1014.10	25.50	25.60	19.40	19.40	-1.00	68.00	68.00	378.00	25.00	0.00	6.20	97.00	5.80	15	3319.00	27.40	27.40	1580032140.0	0.49	0.91
26/01/2020 09:49:01	26012020	260120	094901	96.270	12.419010	-57.245962	96.200	0.340	-0.160	0.280	96.280	-1.500	0.700																			1580032141.0	0.92	1.70
26/01/2020 09:49:02	26012020	260120	094902	96.350	12.419015	-57.245962	96.280	0.260	0.070	-0.320	96.350	-1.400	0.300																			1580032142.0	1.06	1.96
26/01/2020 09:49:03	26012020	260120	094903	96.480	12.419018	-57.245962	96.420	0.130	0.150	-0.650	96.500	-1.200	-0.200																			1580032143.0	0.81	1.50
26/01/2020 09:49:04	26012020	260120	094904	96.600	12.419020	-57.245962	96.520	-0.030	0.040	-0.590	96.620	-1.300	-0.200																			1580032144.0	0.26	0.48
26/01/2020 09:49:05	26012020	260120	094905	96.660	12.419018	-57.245962	96.570	-0.180	-0.090	-0.180	96.670	-1.400	0.200																			1580032145.0	0.25	0.46
26/01/2020 09:49:06	26012020	260120	094906	96.710	12.419015	-57.245962	96.630	-0.300	-0.130	0.450	96.710	-1.500	0.800																			1580032146.0	0.57	1.06
26/01/2020 09:49:07	26012020	260120	094907	96.730	12.419012	-57.245962	96.650	-0.370	-0.140	1.160	96.730	-1.500	1.500																			1580032147.0	0.85	1.57
26/01/2020 09:49:08	26012020	260120	094908	96.670	12.419007	-57.245962	96.570	-0.310	-0.230	1.840	96.650	-1.600	2.200																			1580032148.0	0.98	1.81
26/01/2020 09:49:09	26012020	260120	094909	96.540	12.419003	-57.245962	96.450	-0.100	-0.330	2.320	96.520	-1.700	2.700																			1580032149.0	0.93	1.72
26/01/2020 09:49:10	26012020	260120	094910	96.490	12.419000	-57.245962	96.450	0.140	-0.270	2.420	96.490	-1.600	2.800																			1580032150.0	0.63	1.17
26/01/2020 09:49:11	26012020	260120	094911	96.570	12.419000	-57.245962	96.560	0.310	-0.000	2.040	96.600	-1.400	2.500																			1580032151.0	0.04	0.07
26/01/2020 09:49:12	26012020	260120	094912	96.710	12.419003	-57.245962	96.690	0.320	0.280	1.240	96.710	-1.200	2.000																			1580032152.0	0.67	1.24
26/01/2020 09:49:13	26012020	260120	094913	96.810	12.419008	-57.245962	96.740	0.270	0.210	0.250	96.820	-1.100	0.700																			1580032153.0	1.25	2.31
26/01/2020 09:49:14	26012020	260120	094914	96.830	12.419015	-57.245960	96.710	0.260	-0.320	-0.510	96.830	-1.400	0.200																			1580032154.0	1.44	2.67
26/01/2020 09:49:15	26012020	260120	094915	96.740	12.419020	-57.245957	96.620	0.280	-0.830	-0.820	96.720	-2.200	-0.400																			1580032155.0	1.31	2.43
26/01/2020 09:49:16	26012020	260120	094916	96.670	12.419022	-57.245953	96.570	0.140	-0.710	-0.760	96.660	-2.100	-0.400																			1580032156.0	0.81	1.50
26/01/2020 09:49:17	26012020	260120	094917	96.630	12.419020	-57.245953	96.520	-0.260	-0.020	-0.350	96.630	-1.400	0.000																			1580032157.0	0.17	0.31
26/01/2020 09:49:18	26012020	260120	094918	96.590	12.419018	-57.245955	96.490	-0.700	0.620	0.280	96.590	-0.800	0.700																			1580032158.0	0.88	1.63
26/01/2020 09:49:19	26012020	260120	094919	96.580	12.419013	-57.245958	96.490	-0.850	0.720	0.900	96.590	-0.600	1.300																			1580032159.0	1.09	2.02
26/01/2020 09:49:20	26012020	260120	094920	96.610	12.419008	-57.245957	96.540	-0.560	0.330	1.350	96.630	-1.000	1.700																			1580032160.0	1.06	1.96
26/01/2020 09:49:21	26012020	260120	094921	96.650	12.419003	-57.245955	96.580	0.020	-0.260	1.620	96.660	-1.600	2.000																			1580032161.0	1.00	1.85
26/01/2020 09:49:22	26012020	260120	094922	96.670	12.419002	-57.245952	96.590	0.530	-0.650	1.640	96.670	-2.000	2.100																			1580032162.0	0.79	1.46
26/01/2020 09:49:23	26012020	260120	094923	96.640	12.419003	-57.245948	96.540	0.740	-0.620	1.400	96.630	-2.000	1.800																			1580032163.0	0.52	0.96
26/01/2020 09:49:24	26012020	260120	094924	96.590	12.419007	-57.245948	96.490	0.660	-0.300	0.940	96.580	-1.700	1.400																			1580032164.0	0.71	1.31
26/01/2020 09:49:25	26012020	260120	094925	96.580	12.419012	-57.245948	96.490	0.420	-0.030	0.450	96.580	-1.400	0.900																			1580032165.0	0.99	1.83
26/01/2020 09:49:26	26012020	260120	094926	96.560	12.419015	-57.245947	96.440	0.130	-0.020	0.150	96.560	-1.300	0.700																			1580032166.0	0.90	1.67
26/01/2020 09:49:27	26012020	260120	094927	96.480	12.419017	-57.245945	96.340	-0.130	-0.210	0.130	96.460	-1.500	0.500																			1580032167.0	0.70	1.30
26/01/2020 09:49:28	26012020	260120	094928	96.350	12.419017	-57.245942	96.190	-0.320	-0.360	0.310	96.350	-1.700	0.600																			1580032168.0	0.64	1.19
26/01/2020 09:49:29	26012020	260120	094929	96.190	12.419015	-57.245938	96.060	-0.420	-0.270	0.600	96.160	-1.600	1.000																			1580032169.0	0.70	1.30
26/01/2020 09:49:30	26012020	260120	094930	96.080	12.419012	-57.245938	96.000	-0.410	0.020	0.870	96.080	-1.400	1.300																			1580032170.0	0.78	1.44
26/01/2020 09:49:31	26012020	260120	094931	96.120	12.419008	-57.245937	96.100	-0.290	0.320	0.950	96.150	-1.000	1.400																			1580032171.0	0.72	1.33
26/01/2020 09:49:32	26012020	260120	094932	96.310	12.419007	-57.245937	96.320	-0.130	0.480	0.770	96.360	-0.900	1.200																			1580032172.0	0.37	0.69
26/01/2020 09:49:33	26012020	260120	094933	96.540	12.419008	-57.245935	96.490	0.000	0.400	0.440	96.580	-0.900	0.900																			1580032173.0	0.28	0.52
26/01/2020 09:49:34	26012020	260120	094934	96.660	12.419010	-57.245933	96.550	0.140	0.080	0.110	96.660	-1.200	0.500																			1580032174.0	0.61	1.13
26/01/2020 09:49:35	26012020	260120	094935	96.640	12.419012	-57.245930	96.490	0.270	-0.390	-0.050	96.630	-1.700	0.400																			1580032175.0	0.77	1.43
26/01/2020 09:49:36	26012020	260120	094936	96.530	12.419013	-57.245928	96.390	0.340	-0.760	0.080	96.500	-2.100	0.500																			1580032176.0	0.74	1.37
26/01/2020 09:49:37	26012020	260120	094937	96.390	12.419015	-57.245925	96.250	0.260	-0.840	0.440	96.360	-2.200	0.800																			1580032177.0	0.55	1.02
26/01/2020 09:49:38	26012020	260120	094938	96.260	12.419013	-57.245923	96.150	0.050	-0.640	0.890	96.240	-2.000	1.300																			1580032178.0	0.45	0.83
26/01/2020 09:49:39	26012020	260120	094939	96.150	12.419010	-57.245922	96.070	-0.160	-0.270	1.310	96.140	-1.600	1.700																			1580032179.0	0.62	1.15
26/01/2020 09:49:40	26012020	260120	094940	96.070	12.419007	-57.245922	95.980	-0.210	0.100	1.550	96.070	-1.400	1.900																			1580032180.0	0.68	1.26
26/01/2020 09:49:41	26012020	260120	094941	96.020	12.419005	-57.245920	95.930	-0.060	0.320	1.480	96.010	-1.000	1.900																			1580032181.0	0.52	0.96
26/01/2020 09:49:42	26012020	260120	094942	96.050	12.419005	-57.245918	96.000	0.170	0.360	1.080	96.070	-1.000	1.500																			1580032182.0	0.53	0.98
26/01/2020 09:49:43	26012020	260120	094943	96.220	12.419008	-57.245915	96.200	0.280	0.320	0.510	96.260	-1.000	1.000																			1580032183.0	0.80	1.48
26/01/2020 09:49:44	26012020	260120	094944	96.460	12.419012	-57.245912	96.430	0.150	0.240	-0.050	96.500	-1.100	0.400																			1580032184.0	0.89	1.65
26/01/2020 09:49:45	26012020	260120	094945	96.650	12.419015	-57.245910	96.580	-0.120	0.030	-0.440	96.670	-1.300	-0.000																			1580032185.0	0.81	1.50
26/01/2020 09:49:46	26012020	260120	094946	96.670	12.419017	-57.245908	96.540	-0.320	-0.340	-0.430	96.650	-1.700	-0.000																			1580032186.0	0.56	1.04
26/01/2020 09:49:47	26012020	260120	094947	96.510	12.419015	-57.245905	96.330	-0.270	-0.680	-0.030	96.470	-2.000	0.300																			1580032187.0	0.61	1.13
26/01/2020 09:49:48	26012020	260120	094948	96.290	12.419012	-57.245903	96.140	-0.050	-0.720	0.570	96.250	-2.100	0.900																			1580032188.0	0.87	1.61
26/01/2020 09:49:49	26012020	260120	094949	96.100	12.419008	-57.245902	95.990	0.130	-0.430	1.130	96.080	-1.800	1.500																			1580032189.0	0.84	1.56
26/01/2020 09:49:50	26012020	260120	094950	95.990	12.419005	-57.245902	95.910	0.130	-0.080	1.410	95.990	-1.600	1.700																			1580032190.0	0.56	1.04
26/01/2020 09:49:51	26012020	260120	094951	95.940	12.419005	-57.245900	95.870	0.030	0.120	1.380	95.940	-1.200	1.800																			1580032191.0	0.28	0.52
26/01/2020 09:49:52	26012020	260120	094952	95.960	12.419007	-57.245897	95.920	-0.040	0.170	1.170	95.960	-1.200	1.700																			1580032192.0	0.52	0.96
26/01/2020 09:49:53	26012020	260120	094953	96.050	12.419007	-57.245895	96.030	-0.020	0.140	0.850	96.080	-1.200	1.300																			1580032193.0	0.65	1.20
26/01/2020 09:49:54	26012020	260120	094954	96.210	12.419008	-57.245892	96.180	0.030	0.090	0.510	96.240	-1.300	0.900																			1580032194.0	0.63	1.17
26/01/2020 09:49:55	26012020	260120	094955	96.350	12.419010	-57.245890	96.290	0.020	0.000	0.280	96.360	-1.300	0.700																			1580032195.0	0.52	0.96
26/01/2020 09:49:56	26012020	260120	094956	96.360	12.419010	-57.245887	96.240	0.030	-0.140	0.210	96.330	-1.500	0.600																			1580032196.0	0.45	0.83
26/01/2020 09:49:57	26012020	260120	094957	96.210	12.419010	-57.245885	96.070	0.080	-0.210	0.230	96.170	-1.600	0.600																			1580032197.0	0.49	0.91
26/01/2020 09:49:58	26012020	260120	094958	96.050	12.419010	-57.245883	95.930	0.150	-0.190	0.280	96.030	-1.500	0.700																			1580032198.0	0.43	0.80
26/01/2020 09:49:59	26012020	260120	094959	95.960	12.419012	-57.245882	95.850	0.160	-0.270	0.440	95.940	-1.600	0.800																			1580032199.0	0.42	0.78
26/01/2020 09:50:00	26012020	260120	095000	95.930	12.419012	-57.245878	95.860	0.090	-0.470	0.680	95.930	-1.800	1.100	1014.10	25.50	25.60	19.60	19.60	-1.00	69.00	69.00	379.00	25.00	2.00	7.10	98.00	6.80	16	3378.00	27.40	27.40	1580032200.0	0.60	1.11
26/01/2020 09:50:01	26012020	260120	095001	95.970	12.419010	-57.245875	95.920	-0.070	-0.510	0.910	95.980	-1.900	1.300																			1580032201.0	0.81	1.50
26/01/2020 09:50:02	26012020	260120	095002	96.010	12.419007	-57.245873	95.940	-0.280	-0.180	1.170	96.010	-1.600	1.600																			1580032202.0	0.71	1.31
26/01/2020 09:50:03	26012020	260120	095003	95.960	12.419005	-57.245872	95.880	-0.400	0.310	1.450	95.940	-1.100	1.800																			1580032203.0	0.64	1.19
26/01/2020 09:50:04	26012020	260120	095004	95.900	12.419002	-57.245872	95.840	-0.320	0.560	1.490	95.900	-0.900	1.900																			1580032204.0	0.61	1.13
26/01/2020 09:50:05	26012020	260120	095005	95.910	12.419000	-57.245870	95.850	-0.040	0.330	1.160	95.910	-1.000	1.600																			1580032205.0	0.40	0.74
26/01/2020 09:50:06	26012020	260120	095006	95.920	12.419003	-57.245867	95.860	0.300	-0.190	0.630	95.930	-1.500	1.100																			1580032206.0	0.95	1.76
26/01/2020 09:50:07	26012020	260120	095007	95.940	12.419007	-57.245862	95.870	0.480	-0.590	0.060	95.950	-1.900	0.500																			1580032207.0	1.41	2.61
26/01/2020 09:50:08	26012020	260120	095008	95.990	12.419012	-57.245857	95.940	0.410	-0.610	-0.300	96.010	-2.000	0.100																			1580032208.0	1.33	2.46
26/01/2020 09:50:09	26012020	260120	095009	96.050	12.419013	-57.245855	96.010	0.130	-0.310	-0.260	96.050	-1.700	0.100																			1580032209.0	0.75	1.39
26/01/2020 09:50:10	26012020	260120	095010	96.040	12.419013	-57.245855	95.960	-0.230	0.040	0.140	96.030	-1.300	0.500																			1580032210.0	0.19	0.35
26/01/2020 09:50:11	26012020	260120	095011	95.950	12.419010	-57.245853	95.860	-0.530	0.240	0.710	95.930	-1.100	1.100																			1580032211.0	0.75	1.39
26/01/2020 09:50:12	26012020	260120	095012	95.860	12.419005	-57.245852	95.820	-0.580	0.190	1.270	95.860	-1.200	1.600																			1580032212.0	1.06	1.96
26/01/2020 09:50:13	26012020	260120	095013	95.870	12.419002	-57.245850	95.860	-0.350	-0.040	1.660	95.880	-1.400	2.000																			1580032213.0	1.13	2.09
26/01/2020 09:50:14	26012020	260120	095014	95.920	12.418997	-57.245847	95.880	0.040	-0.320	1.760	95.920	-1.700	2.200																			1580032214.0	1.03	1.91
26/01/2020 09:50:15	26012020	260120	095015	95.920	12.418997	-57.245842	95.880	0.410	-0.430	1.470	95.920	-1.800	1.900																			1580032215.0	0.84	1.56
26/01/2020 09:50:16	26012020	260120	095016	95.930	12.418998	-57.245840	95.890	0.580	-0.280	0.900	95.930	-1.700	1.600																			1580032216.0	0.81	1.50
26/01/2020 09:50:17	26012020	260120	095017	95.970	12.419003	-57.245837	95.890	0.500	-0.070	0.340	95.970	-1.400	0.800																			1580032217.0	1.05	1.94
26/01/2020 09:50:18	26012020	260120	095018	95.970	12.419007	-57.245835	95.880	0.280	0.000	-0.040	95.970	-1.400	0.500																			1580032218.0	1.04	1.93
26/01/2020 09:50:19	26012020	260120	095019	95.950	12.419010	-57.245832	95.850	0.030	-0.040	-0.180	95.940	-1.400	0.200																			1580032219.0	0.90	1.67
26/01/2020 09:50:20	26012020	260120	095020	95.880	12.419012	-57.245828	95.780	-0.200	-0.100	-0.100	95.860	-1.500	0.300																			1580032220.0	0.72	1.33
26/01/2020 09:50:21	26012020	260120	095021	95.810	12.419010	-57.245825	95.730	-0.360	-0.110	0.150	95.800	-1.500	0.500																			1580032221.0	0.66	1.22
26/01/2020 09:50:22	26012020	260120	095022	95.770	12.419007	-57.245823	95.710	-0.440	-0.060	0.580	95.770	-1.400	0.900																			1580032222.0	0.80	1.48
26/01/2020 09:50:23	26012020	260120	095023	95.750	12.419003	-57.245820	95.690	-0.410	-0.010	1.050	95.740	-1.400	1.400																			1580032223.0	0.98	1.81
26/01/2020 09:50:24	26012020	260120	095024	95.740	12.419000	-57.245818	95.710	-0.270	-0.010	1.350	95.750	-1.400	1.700																			1580032224.0	0.92	1.70
26/01/2020 09:50:25	26012020	260120	095025	95.800	12.418997	-57.245817	95.780	-0.070	-0.090	1.390	95.820	-1.400	1.800																			1580032225.0	0.76	1.41
26/01/2020 09:50:26	26012020	260120	095026	95.900	12.418997	-57.245813	95.870	0.150	-0.220	1.150	95.920	-1.600	1.600																			1580032226.0	0.69	1.28
26/01/2020 09:50:27	26012020	260120	095027	95.920	12.418998	-57.245808	95.830	0.330	-0.270	0.850	95.910	-1.600	1.300																			1580032227.0	0.79	1.46
26/01/2020 09:50:28	26012020	260120	095028	95.840	12.419000	-57.245807	95.740	0.380	-0.110	0.580	95.840	-1.600	1.100																			1580032228.0	0.81	1.50
26/01/2020 09:50:29	26012020	260120	095029	95.800	12.419002	-57.245803	95.710	0.300	0.080	0.340	95.800	-1.300	0.800																			1580032229.0	0.67	1.24
26/01/2020 09:50:30	26012020	260120	095030	95.810	12.419005	-57.245802	95.710	0.160	0.000	0.130	95.800	-1.300	0.500																			1580032230.0	0.61	1.13
26/01/2020 09:50:31	26012020	260120	095031	95.740	12.419005	-57.245798	95.600	0.050	-0.400	0.130	95.710	-1.700	0.500																			1580032231.0	0.82	1.52
26/01/2020 09:50:32	26012020	260120	095032	95.550	12.419003	-57.245793	95.410	0.010	-0.750	0.340	95.520	-2.100	0.700																			1580032232.0	1.17	2.17
26/01/2020 09:50:33	26012020	260120	095033	95.400	12.419002	-57.245788	95.310	-0.030	-0.560	0.600	95.380	-1.900	1.000																			1580032233.0	1.11	2.06
26/01/2020 09:50:34	26012020	260120	095034	95.390	12.419000	-57.245787	95.350	-0.150	0.070	0.750	95.410	-1.300	1.100																			1580032234.0	0.56	1.04
26/01/2020 09:50:35	26012020	260120	095035	95.510	12.418998	-57.245785	95.500	-0.310	0.600	0.770	95.530	-0.800	1.200																			1580032235.0	0.25	0.46
26/01/2020 09:50:36	26012020	260120	095036	95.610	12.418998	-57.245785	95.580	-0.360	0.670	0.730	95.630	-0.700	1.100																			1580032236.0	0.32	0.59
26/01/2020 09:50:37	26012020	260120	095037	95.670	12.418997	-57.245782	95.610	-0.230	0.330	0.640	95.680	-1.000	1.000																			1580032237.0	0.67	1.24
26/01/2020 09:50:38	26012020	260120	095038	95.680	12.418997	-57.245777	95.600	0.030	-0.170	0.530	95.680	-1.500	0.900																			1580032238.0	0.92	1.70
26/01/2020 09:50:39	26012020	260120	095039	95.650	12.418997	-57.245773	95.560	0.270	-0.570	0.440	95.650	-1.900	0.800																			1580032239.0	1.00	1.85
26/01/2020 09:50:40	26012020	260120	095040	95.630	12.418998	-57.245768	95.540	0.350	-0.670	0.390	95.630	-2.000	0.800																			1580032240.0	0.88	1.63
26/01/2020 09:50:41	26012020	260120	095041	95.580	12.418998	-57.245767	95.480	0.200	-0.460	0.520	95.570	-1.800	0.900																			1580032241.0	0.56	1.04
26/01/2020 09:50:42	26012020	260120	095042	95.500	12.418998	-57.245765	95.390	-0.090	-0.140	0.770	95.500	-1.600	1.100																			1580032242.0	0.32	0.59
26/01/2020 09:50:43	26012020	260120	095043	95.420	12.418995	-57.245763	95.320	-0.330	0.040	1.030	95.400	-1.300	1.400																			1580032243.0	0.54	1.00
26/01/2020 09:50:44	26012020	260120	095044	95.360	12.418993	-57.245762	95.280	-0.340	0.010	1.210	95.360	-1.300	1.600																			1580032244.0	0.79	1.46
26/01/2020 09:50:45	26012020	260120	095045	95.310	12.418990	-57.245758	95.200	-0.130	-0.150	1.290	95.290	-1.500	1.700																			1580032245.0	0.95	1.76
26/01/2020 09:50:46	26012020	260120	095046	95.210	12.418988	-57.245753	95.120	0.160	-0.280	1.150	95.200	-1.600	1.600																			1580032246.0	0.96	1.78
26/01/2020 09:50:47	26012020	260120	095047	95.190	12.418988	-57.245750	95.140	0.350	-0.260	0.740	95.200	-1.600	1.200																			1580032247.0	0.85	1.57
26/01/2020 09:50:48	26012020	260120	095048	95.250	12.418992	-57.245747	95.190	0.380	-0.050	0.210	95.260	-1.400	0.600																			1580032248.0	0.88	1.63
26/01/2020 09:50:49	26012020	260120	095049	95.330	12.418995	-57.245745	95.260	0.300	0.180	-0.210	95.340	-1.200	0.200																			1580032249.0	0.87	1.61
26/01/2020 09:50:50	26012020	260120	095050	95.350	12.418997	-57.245742	95.230	0.170	0.210	-0.370	95.330	-1.200	0.000																			1580032250.0	0.77	1.43
26/01/2020 09:50:51	26012020	260120	095051	95.290	12.418998	-57.245740	95.170	-0.030	0.100	-0.280	95.270	-1.300	0.100																			1580032251.0	0.68	1.26
26/01/2020 09:50:52	26012020	260120	095052	95.220	12.418998	-57.245737	95.120	-0.280	0.020	0.040	95.210	-1.300	0.400																			1580032252.0	0.62	1.15
26/01/2020 09:50:53	26012020	260120	095053	95.180	12.418995	-57.245735	95.060	-0.460	-0.090	0.590	95.160	-1.400	0.900																			1580032253.0	0.78	1.44
26/01/2020 09:50:54	26012020	260120	095054	95.100	12.418990	-57.245733	94.990	-0.420	-0.290	1.210	95.100	-1.600	1.400																			1580032254.0	1.13	2.09
26/01/2020 09:50:55	26012020	260120	095055	95.020	12.418985	-57.245730	94.940	-0.180	-0.470	1.650	95.010	-1.800	2.000																			1580032255.0	1.27	2.35
26/01/2020 09:50:56	26012020	260120	095056	94.970	12.418982	-57.245727	94.900	0.070	-0.440	1.780	94.960	-1.800	2.200																			1580032256.0	1.03	1.91
26/01/2020 09:50:57	26012020	260120	095057	94.940	12.418980	-57.245725	94.880	0.180	-0.250	1.610	94.940	-1.600	2.000																			1580032257.0	0.57	1.06
26/01/2020 09:50:58	26012020	260120	095058	94.960	12.418980	-57.245723	94.920	0.130	-0.080	1.160	94.960	-1.400	1.600																			1580032258.0	0.43	0.80
26/01/2020 09:50:59	26012020	260120	095059	94.960	12.418983	-57.245720	94.890	0.070	-0.050	0.570	94.960	-1.400	1.000																			1580032259.0	0.78	1.44
26/01/2020 09:51:00	26012020	260120	095100	94.900	12.418987	-57.245717	94.790	0.060	-0.060	0.050	94.880	-1.400	0.500	1014.10	25.50	25.50	19.40	19.40	-1.00	68.00	68.00	378.00	25.00	357.00	7.40	92.00	7.00	16	3299.00	27.40	27.40	1580032260.0	1.02	1.89
26/01/2020 09:51:01	26012020	260120	095101	94.760	12.418988	-57.245713	94.640	0.090	-0.090	-0.230	94.730	-1.400	0.200																			1580032261.0	0.94	1.74
26/01/2020 09:51:02	26012020	260120	095102	94.610	12.418990	-57.245710	94.520	0.120	-0.120	-0.340	94.600	-1.500	0.100																			1580032262.0	0.77	1.43
26/01/2020 09:51:03	26012020	260120	095103	94.610	12.418990	-57.245707	94.580	0.080	-0.050	-0.340	94.630	-1.400	0.100																			1580032263.0	0.71	1.31
26/01/2020 09:51:04	26012020	260120	095104	94.760	12.418988	-57.245705	94.760	-0.020	0.140	-0.180	94.760	-1.300	0.100																			1580032264.0	0.59	1.09
26/01/2020 09:51:05	26012020	260120	095105	94.930	12.418987	-57.245703	94.900	-0.120	0.280	0.180	94.960	-1.100	0.600																			1580032265.0	0.58	1.07
26/01/2020 09:51:06	26012020	260120	095106	95.020	12.418983	-57.245702	94.960	-0.110	0.190	0.570	95.020	-1.100	0.800																			1580032266.0	0.66	1.22
26/01/2020 09:51:07	26012020	260120	095107	95.020	12.418982	-57.245698	94.920	0.020	-0.130	0.930	95.010	-1.500	1.300																			1580032267.0	0.74	1.37
26/01/2020 09:51:08	26012020	260120	095108	94.930	12.418978	-57.245695	94.830	0.160	-0.480	1.290	94.930	-1.700	1.500																			1580032268.0	0.87	1.61
26/01/2020 09:51:09	26012020	260120	095109	94.820	12.418977	-57.245692	94.730	0.180	-0.660	1.590	94.810	-2.000	2.000																			1580032269.0	0.89	1.65
26/01/2020 09:51:10	26012020	260120	095110	94.760	12.418975	-57.245688	94.710	0.040	-0.550	1.750	94.760	-1.900	2.100																			1580032270.0	0.73	1.35
26/01/2020 09:51:11	26012020	260120	095111	94.790	12.418975	-57.245687	94.760	-0.180	-0.240	1.680	94.800	-1.600	2.100																			1580032271.0	0.48	0.89
26/01/2020 09:51:12	26012020	260120	095112	94.820	12.418975	-57.245685	94.770	-0.330	0.090	1.410	94.820	-1.300	1.800																			1580032272.0	0.36	0.67
26/01/2020 09:51:13	26012020	260120	095113	94.810	12.418973	-57.245683	94.760	-0.310	0.290	0.970	94.800	-1.100	1.400																			1580032273.0	0.41	0.76
26/01/2020 09:51:14	26012020	260120	095114	94.800	12.418975	-57.245680	94.750	-0.140	0.290	0.480	94.800	-1.100	0.900																			1580032274.0	0.55	1.02
26/01/2020 09:51:15	26012020	260120	095115	94.840	12.418975	-57.245677	94.790	0.090	0.130	-0.010	94.850	-1.200	0.400																			1580032275.0	0.73	1.35
26/01/2020 09:51:16	26012020	260120	095116	94.920	12.418978	-57.245673	94.870	0.270	-0.130	-0.480	94.940	-1.500	-0.100																			1580032276.0	0.91	1.69
26/01/2020 09:51:17	26012020	260120	095117	94.990	12.418980	-57.245670	94.900	0.370	-0.360	-0.840	94.990	-1.700	-0.400																			1580032277.0	1.04	1.93
26/01/2020 09:51:18	26012020	260120	095118	94.980	12.418983	-57.245667	94.870	0.380	-0.460	-0.850	94.970	-1.800	-0.500																			1580032278.0	0.92	1.70
26/01/2020 09:51:19	26012020	260120	095119	94.950	12.418983	-57.245663	94.870	0.250	-0.360	-0.450	94.960	-1.700	-0.100																			1580032279.0	0.64	1.19
26/01/2020 09:51:20	26012020	260120	095120	95.030	12.418980	-57.245662	94.970	-0.030	-0.090	0.230	95.050	-1.500	0.600																			1580032280.0	0.70	1.30
26/01/2020 09:51:21	26012020	260120	095121	95.110	12.418975	-57.245660	95.060	-0.320	0.150	1.070	95.110	-1.200	1.400																			1580032281.0	1.06	1.96
26/01/2020 09:51:22	26012020	260120	095122	95.100	12.418970	-57.245658	95.020	-0.430	0.170	1.850	95.090	-1.200	2.200																			1580032282.0	1.29	2.39
26/01/2020 09:51:23	26012020	260120	095123	95.040	12.418965	-57.245657	94.960	-0.250	-0.020	2.340	95.030	-1.400	2.700																			1580032283.0	1.26	2.33
26/01/2020 09:51:24	26012020	260120	095124	94.960	12.418962	-57.245653	94.870	0.070	-0.270	2.460	94.930	-1.600	2.900																			1580032284.0	1.08	2.00
26/01/2020 09:51:25	26012020	260120	095125	94.870	12.418960	-57.245648	94.800	0.250	-0.390	2.180	94.860	-1.800	2.600																			1580032285.0	0.90	1.67
26/01/2020 09:51:26	26012020	260120	095126	94.890	12.418962	-57.245645	94.870	0.180	-0.240	1.570	94.910	-1.600	2.000																			1580032286.0	0.76	1.41
26/01/2020 09:51:27	26012020	260120	095127	95.030	12.418963	-57.245643	95.020	-0.050	0.080	0.750	95.060	-1.300	1.200																			1580032287.0	0.78	1.44
26/01/2020 09:51:28	26012020	260120	095128	95.190	12.418968	-57.245642	95.140	-0.210	0.280	-0.120	95.210	-1.100	0.300																			1580032288.0	0.90	1.67
26/01/2020 09:51:29	26012020	260120	095129	95.260	12.418972	-57.245640	95.160	-0.160	0.160	-0.840	95.260	-1.200	-0.400																			1580032289.0	0.95	1.76
26/01/2020 09:51:30	26012020	260120	095130	95.210	12.418975	-57.245637	95.050	0.050	-0.260	-1.150	95.180	-1.600	-0.700																			1580032290.0	0.94	1.74
26/01/2020 09:51:31	26012020	260120	095131	95.040	12.418975	-57.245632	94.870	0.280	-0.660	-1.010	95.000	-2.000	-0.600																			1580032291.0	1.04	1.93
26/01/2020 09:51:32	26012020	260120	095132	94.920	12.418973	-57.245627	94.800	0.350	-0.630	-0.600	94.920	-2.100	-0.400																			1580032292.0	0.98	1.81
26/01/2020 09:51:33	26012020	260120	095133	94.910	12.418970	-57.245625	94.840	0.210	-0.190	-0.060	94.920	-1.600	0.300																			1580032293.0	0.66	1.22
26/01/2020 09:51:34	26012020	260120	095134	94.990	12.418968	-57.245623	94.940	-0.040	0.300	0.490	95.010	-1.100	0.900																			1580032294.0	0.55	1.02
26/01/2020 09:51:35	26012020	260120	095135	95.080	12.418965	-57.245623	95.010	-0.240	0.500	1.070	95.090	-0.900	1.400																			1580032295.0	0.63	1.17
26/01/2020 09:51:36	26012020	260120	095136	95.080	12.418962	-57.245622	95.000	-0.300	0.240	1.700	95.070	-1.100	2.000																			1580032296.0	0.94	1.74
26/01/2020 09:51:37	26012020	260120	095137	95.020	12.418957	-57.245618	94.960	-0.240	-0.260	2.180	95.020	-1.600	2.500																			1580032297.0	1.31	2.43
26/01/2020 09:51:38	26012020	260120	095138	95.030	12.418953	-57.245613	95.010	-0.170	-0.550	2.300	95.040	-1.900	2.700																			1580032298.0	1.32	2.44
26/01/2020 09:51:39	26012020	260120	095139	95.080	12.418950	-57.245610	95.040	-0.160	-0.350	2.090	95.080	-1.700	2.500																			1580032299.0	0.82	1.52
26/01/2020 09:51:40	26012020	260120	095140	95.090	12.418950	-57.245608	95.030	-0.110	0.010	1.580	95.090	-1.400	2.000																			1580032300.0	0.20	0.37
26/01/2020 09:51:41	26012020	260120	095141	95.050	12.418952	-57.245608	94.950	0.100	0.060	0.810	95.040	-1.300	1.300																			1580032301.0	0.52	0.96
26/01/2020 09:51:42	26012020	260120	095142	95.000	12.418957	-57.245605	94.890	0.380	-0.220	-0.080	95.000	-1.500	0.700																			1580032302.0	1.11	2.06
26/01/2020 09:51:43	26012020	260120	095143	94.970	12.418960	-57.245600	94.850	0.490	-0.390	-0.840	94.970	-1.800	-0.400																			1580032303.0	1.44	2.67
26/01/2020 09:51:44	26012020	260120	095144	95.000	12.418965	-57.245595	94.900	0.320	-0.230	-1.270	95.000	-1.700	-0.700																			1580032304.0	1.21	2.24
26/01/2020 09:51:45	26012020	260120	095145	95.070	12.418967	-57.245593	94.950	-0.010	0.060	-1.210	95.070	-1.300	-0.800																			1580032305.0	0.63	1.17
26/01/2020 09:51:46	26012020	260120	095146	95.070	12.418967	-57.245593	94.940	-0.270	0.170	-0.670	95.060	-1.200	-0.300																			1580032306.0	0.31	0.57
26/01/2020 09:51:47	26012020	260120	095147	95.030	12.418962	-57.245590	94.940	-0.330	0.020	0.150	95.030	-1.300	0.500																			1580032307.0	0.94	1.74
26/01/2020 09:51:48	26012020	260120	095148	95.020	12.418957	-57.245587	94.940	-0.210	-0.220	1.070	95.010	-1.600	1.400																			1580032308.0	1.49	2.76
26/01/2020 09:51:49	26012020	260120	095149	95.020	12.418950	-57.245583	94.970	-0.040	-0.310	1.880	95.020	-1.700	2.200																			1580032309.0	1.60	2.96
26/01/2020 09:51:50	26012020	260120	095150	95.040	12.418945	-57.245582	95.020	0.090	-0.190	2.360	95.050	-1.600	2.700																			1580032310.0	1.27	2.35
26/01/2020 09:51:51	26012020	260120	095151	95.090	12.418942	-57.245580	95.070	0.110	0.050	2.350	95.100	-1.300	2.800																			1580032311.0	0.70	1.30
26/01/2020 09:51:52	26012020	260120	095152	95.180	12.418942	-57.245578	95.180	0.050	0.220	1.850	95.200	-1.200	2.300																			1580032312.0	0.28	0.52
26/01/2020 09:51:53	26012020	260120	095153	95.290	12.418945	-57.245577	95.260	0.000	0.120	1.130	95.310	-1.200	1.600																			1580032313.0	0.70	1.30
26/01/2020 09:51:54	26012020	260120	095154	95.360	12.418948	-57.245573	95.290	0.030	-0.300	0.430	95.370	-1.600	0.900																			1580032314.0	1.03	1.91
26/01/2020 09:51:55	26012020	260120	095155	95.350	12.418952	-57.245568	95.230	0.080	-0.700	-0.090	95.330	-2.100	0.300																			1580032315.0	1.21	2.24
26/01/2020 09:51:56	26012020	260120	095156	95.230	12.418952	-57.245565	95.090	0.050	-0.660	-0.370	95.230	-2.100	0.100																			1580032316.0	1.00	1.85
26/01/2020 09:51:57	26012020	260120	095157	95.120	12.418953	-57.245562	95.000	-0.050	-0.170	-0.460	95.110	-1.600	-0.100																			1580032317.0	0.45	0.83
26/01/2020 09:51:58	26012020	260120	095158	95.140	12.418952	-57.245562	95.080	-0.120	0.320	-0.430	95.140	-1.200	-0.100																			1580032318.0	0.16	0.30
26/01/2020 09:51:59	26012020	260120	095159	95.290	12.418952	-57.245562	95.260	-0.080	0.370	-0.290	95.320	-1.000	0.100																			1580032319.0	0.30	0.56
26/01/2020 09:52:00	26012020	260120	095200	95.420	12.418950	-57.245558	95.360	0.020	0.050	0.040	95.440	-1.300	0.400	1014.10	25.50	25.50	19.20	19.30	-1.00	68.00	68.00	378.00	25.00	3.00	7.00	99.00	6.60	17	3291.00	27.40	27.40	1580032320.0	0.74	1.37
26/01/2020 09:52:01	26012020	260120	095201	95.440	12.418947	-57.245553	95.340	0.050	-0.190	0.520	95.430	-1.600	0.900																			1580032321.0	1.02	1.89
26/01/2020 09:52:02	26012020	260120	095202	95.390	12.418943	-57.245550	95.310	-0.030	-0.110	1.020	95.390	-1.500	1.400																			1580032322.0	0.87	1.61
26/01/2020 09:52:03	26012020	260120	095203	95.400	12.418940	-57.245550	95.340	-0.120	0.040	1.480	95.410	-1.300	1.800																			1580032323.0	0.74	1.37
26/01/2020 09:52:04	26012020	260120	095204	95.420	12.418937	-57.245548	95.340	-0.080	-0.080	1.810	95.420	-1.400	2.200																			1580032324.0	0.76	1.41
26/01/2020 09:52:05	26012020	260120	095205	95.380	12.418935	-57.245547	95.290	0.110	-0.380	1.900	95.370	-1.700	2.300																			1580032325.0	0.81	1.50
26/01/2020 09:52:06	26012020	260120	095206	95.300	12.418933	-57.245542	95.190	0.330	-0.560	1.690	95.280	-1.900	2.100																			1580032326.0	0.81	1.50
26/01/2020 09:52:07	26012020	260120	095207	95.210	12.418935	-57.245538	95.120	0.390	-0.460	1.250	95.200	-1.800	1.700																			1580032327.0	0.76	1.41
26/01/2020 09:52:08	26012020	260120	095208	95.180	12.418938	-57.245537	95.120	0.260	-0.180	0.650	95.180	-1.700	1.300																			1580032328.0	0.80	1.48
26/01/2020 09:52:09	26012020	260120	095209	95.250	12.418942	-57.245535	95.220	-0.010	0.080	0.070	95.280	-1.300	0.500																			1580032329.0	0.84	1.56
26/01/2020 09:52:10	26012020	260120	095210	95.380	12.418943	-57.245532	95.320	-0.270	0.220	-0.280	95.400	-1.200	0.100																			1580032330.0	0.68	1.26
26/01/2020 09:52:11	26012020	260120	095211	95.460	12.418943	-57.245530	95.360	-0.440	0.270	-0.330	95.460	-1.100	0.100																			1580032331.0	0.47	0.87
26/01/2020 09:52:12	26012020	260120	095212	95.450	12.418942	-57.245528	95.360	-0.490	0.200	-0.160	95.440	-1.200	0.200																			1580032332.0	0.59	1.09
26/01/2020 09:52:13	26012020	260120	095213	95.410	12.418938	-57.245525	95.310	-0.370	-0.020	0.100	95.400	-1.400	0.500																			1580032333.0	0.82	1.52
26/01/2020 09:52:14	26012020	260120	095214	95.370	12.418935	-57.245523	95.280	-0.070	-0.330	0.420	95.360	-1.700	0.800																			1580032334.0	0.97	1.80
26/01/2020 09:52:15	26012020	260120	095215	95.370	12.418933	-57.245520	95.320	0.280	-0.500	0.710	95.380	-1.900	1.100																			1580032335.0	0.96	1.78
26/01/2020 09:52:16	26012020	260120	095216	95.480	12.418932	-57.245517	95.460	0.450	-0.360	0.860	95.510	-1.700	1.200																			1580032336.0	0.68	1.26
26/01/2020 09:52:17	26012020	260120	095217	95.630	12.418930	-57.245515	95.590	0.360	-0.060	0.860	95.650	-1.400	1.300																			1580032337.0	0.27	0.50
26/01/2020 09:52:18	26012020	260120	095218	95.660	12.418932	-57.245515	95.570	0.140	0.080	0.860	95.650	-1.300	1.300																			1580032338.0	0.20	0.37
26/01/2020 09:52:19	26012020	260120	095219	95.500	12.418932	-57.245513	95.360	-0.020	-0.110	0.990	95.460	-1.500	1.400																			1580032339.0	0.43	0.80
26/01/2020 09:52:20	26012020	260120	095220	95.270	12.418930	-57.245508	95.150	-0.060	-0.440	1.140	95.270	-1.700	1.500																			1580032340.0	0.84	1.56
26/01/2020 09:52:21	26012020	260120	095221	95.160	12.418928	-57.245505	95.110	-0.050	-0.530	1.170	95.160	-1.900	1.600																			1580032341.0	0.98	1.81
26/01/2020 09:52:22	26012020	260120	095222	95.210	12.418928	-57.245502	95.210	-0.120	-0.200	1.070	95.210	-1.800	1.500																			1580032342.0	0.73	1.35
26/01/2020 09:52:23	26012020	260120	095223	95.380	12.418927	-57.245500	95.400	-0.220	0.350	0.820	95.420	-1.100	1.200																			1580032343.0	0.34	0.63
26/01/2020 09:52:24	26012020	260120	095224	95.600	12.418927	-57.245500	95.620	-0.250	0.690	0.400	95.640	-0.700	0.800																			1580032344.0	0.11	0.20
26/01/2020 09:52:25	26012020	260120	095225	95.790	12.418927	-57.245498	95.750	-0.110	0.510	-0.050	95.810	-0.800	0.400																			1580032345.0	0.32	0.59
26/01/2020 09:52:26	26012020	260120	095226	95.850	12.418928	-57.245495	95.760	0.130	-0.090	-0.300	95.850	-1.400	0.100																			1580032346.0	0.79	1.46
26/01/2020 09:52:27	26012020	260120	095227	95.810	12.418928	-57.245490	95.710	0.300	-0.680	-0.210	95.800	-2.000	0.200																			1580032347.0	1.03	1.91
26/01/2020 09:52:28	26012020	260120	095228	95.710	12.418928	-57.245485	95.590	0.290	-0.880	0.150	95.680	-2.300	0.500																			1580032348.0	0.90	1.67
26/01/2020 09:52:29	26012020	260120	095229	95.570	12.418927	-57.245483	95.480	0.110	-0.620	0.570	95.550	-2.000	0.900																			1580032349.0	0.64	1.19
26/01/2020 09:52:30	26012020	260120	095230	95.480	12.418923	-57.245482	95.420	-0.160	-0.120	0.940	95.480	-1.500	1.300																			1580032350.0	0.48	0.89
26/01/2020 09:52:31	26012020	260120	095231	95.440	12.418922	-57.245482	95.390	-0.350	0.230	1.280	95.440	-1.200	1.600																			1580032351.0	0.59	1.09
26/01/2020 09:52:32	26012020	260120	095232	95.420	12.418918	-57.245480	95.370	-0.350	0.220	1.590	95.410	-1.100	2.000																			1580032352.0	0.83	1.54
26/01/2020 09:52:33	26012020	260120	095233	95.420	12.418915	-57.245477	95.400	-0.170	0.040	1.660	95.420	-1.300	2.100																			1580032353.0	1.02	1.89
26/01/2020 09:52:34	26012020	260120	095234	95.490	12.418913	-57.245472	95.500	0.060	-0.100	1.370	95.490	-1.400	1.900																			1580032354.0	0.92	1.70
26/01/2020 09:52:35	26012020	260120	095235	95.610	12.418913	-57.245468	95.600	0.210	-0.120	0.880	95.630	-1.500	1.300																			1580032355.0	0.78	1.44
26/01/2020 09:52:36	26012020	260120	095236	95.690	12.418915	-57.245465	95.640	0.220	-0.080	0.420	95.700	-1.500	0.800																			1580032356.0	0.71	1.31
26/01/2020 09:52:37	26012020	260120	095237	95.730	12.418917	-57.245463	95.670	0.160	-0.030	0.070	95.740	-1.400	0.500																			1580032357.0	0.63	1.17
26/01/2020 09:52:38	26012020	260120	095238	95.760	12.418918	-57.245460	95.690	0.110	-0.060	-0.160	95.770	-1.400	0.300																			1580032358.0	0.58	1.07
26/01/2020 09:52:39	26012020	260120	095239	95.760	12.418920	-57.245458	95.670	0.130	-0.170	-0.260	95.760	-1.500	0.100																			1580032359.0	0.66	1.22
26/01/2020 09:52:40	26012020	260120	095240	95.750	12.418920	-57.245455	95.630	0.150	-0.230	-0.190	95.740	-1.600	0.200																			1580032360.0	0.72	1.33
26/01/2020 09:52:41	26012020	260120	095241	95.710	12.418918	-57.245452	95.600	0.040	-0.160	0.170	95.710	-1.500	0.500																			1580032361.0	0.67	1.24
26/01/2020 09:52:42	26012020	260120	095242	95.690	12.418915	-57.245450	95.600	-0.180	-0.030	0.700	95.690	-1.400	1.100																			1580032362.0	0.79	1.46
26/01/2020 09:52:43	26012020	260120	095243	95.730	12.418912	-57.245448	95.680	-0.390	-0.020	1.170	95.750	-1.400	1.500																			1580032363.0	0.91	1.69
26/01/2020 09:52:44	26012020	260120	095244	95.780	12.418908	-57.245445	95.720	-0.430	-0.210	1.560	95.780	-1.600	1.900																			1580032364.0	0.97	1.80
26/01/2020 09:52:45	26012020	260120	095245	95.700	12.418905	-57.245442	95.580	-0.290	-0.390	1.860	95.660	-1.800	2.200																			1580032365.0	1.13	2.09
26/01/2020 09:52:46	26012020	260120	095246	95.500	12.418902	-57.245438	95.380	-0.070	-0.370	1.940	95.500	-1.800	2.300																			1580032366.0	1.06	1.96
26/01/2020 09:52:47	26012020	260120	095247	95.390	12.418898	-57.245435	95.330	0.100	-0.180	1.700	95.390	-1.600	2.100																			1580032367.0	0.78	1.44
26/01/2020 09:52:48	26012020	260120	095248	95.500	12.418900	-57.245432	95.510	0.210	0.070	1.090	95.500	-1.400	1.800																			1580032368.0	0.55	1.02
26/01/2020 09:52:49	26012020	260120	095249	95.770	12.418902	-57.245430	95.770	0.280	0.240	0.190	95.820	-1.100	0.600																			1580032369.0	0.84	1.56
26/01/2020 09:52:50	26012020	260120	095250	95.990	12.418907	-57.245427	95.920	0.350	0.230	-0.630	96.020	-1.100	-0.200																			1580032370.0	1.20	2.22
26/01/2020 09:52:51	26012020	260120	095251	96.050	12.418912	-57.245423	95.920	0.400	0.050	-1.070	96.050	-1.300	-0.700																			1580032371.0	1.24	2.30
26/01/2020 09:52:52	26012020	260120	095252	96.020	12.418913	-57.245418	95.870	0.310	-0.180	-1.020	96.000	-1.500	-0.600																			1580032372.0	1.06	1.96
26/01/2020 09:52:53	26012020	260120	095253	95.960	12.418913	-57.245415	95.820	0.030	-0.360	-0.500	95.940	-1.700	-0.100																			1580032373.0	0.79	1.46
26/01/2020 09:52:54	26012020	260120	095254	95.940	12.418910	-57.245412	95.860	-0.360	-0.370	0.370	95.940	-1.800	0.700																			1580032374.0	0.99	1.83
26/01/2020 09:52:55	26012020	260120	095255	95.960	12.418903	-57.245410	95.900	-0.700	-0.190	1.410	95.960	-1.600	1.700																			1580032375.0	1.47	2.72
26/01/2020 09:52:56	26012020	260120	095256	95.940	12.418895	-57.245408	95.880	-0.820	-0.010	2.390	95.920	-1.400	2.700																			1580032376.0	1.88	3.48
26/01/2020 09:52:57	26012020	260120	095257	95.860	12.418887	-57.245408	95.830	-0.600	-0.020	2.980	95.850	-1.400	3.300																			1580032377.0	1.87	3.46
26/01/2020 09:52:58	26012020	260120	095258	95.810	12.418882	-57.245405	95.790	-0.120	-0.220	2.950	95.800	-1.600	3.400																			1580032378.0	1.40	2.59
26/01/2020 09:52:59	26012020	260120	095259	95.800	12.418880	-57.245400	95.790	0.420	-0.390	2.320	95.800	-1.800	2.800																			1580032379.0	1.00	1.85
26/01/2020 09:53:00	26012020	260120	095300	95.870	12.418883	-57.245395	95.880	0.780	-0.320	1.180	95.900	-1.700	1.600	1014.10	25.50	25.60	19.40	19.40	-1.00	68.00	68.00	378.00	25.00	356.00	7.20	92.00	6.70	18	3214.00	27.40	27.40	1580032380.0	1.29	2.39
26/01/2020 09:53:01	26012020	260120	095301	96.070	12.418892	-57.245392	96.070	0.810	-0.000	-0.170	96.110	-1.400	0.300																			1580032381.0	1.81	3.35
26/01/2020 09:53:02	26012020	260120	095302	96.290	12.418900	-57.245390	96.240	0.550	0.290	-1.310	96.320	-1.100	-0.900																			1580032382.0	2.00	3.70
26/01/2020 09:53:03	26012020	260120	095303	96.400	12.418907	-57.245387	96.270	0.190	0.220	-1.800	96.390	-1.100	-1.400																			1580032383.0	1.60	2.96
26/01/2020 09:53:04	26012020	260120	095304	96.320	12.418908	-57.245382	96.140	-0.080	-0.190	-1.500	96.280	-1.500	-1.100																			1580032384.0	0.98	1.81
26/01/2020 09:53:05	26012020	260120	095305	96.110	12.418907	-57.245377	95.930	-0.310	-0.540	-0.590	96.080	-1.900	-0.300																			1580032385.0	1.21	2.24
26/01/2020 09:53:06	26012020	260120	095306	95.940	12.418898	-57.245373	95.820	-0.550	-0.460	0.630	95.920	-1.900	0.900																			1580032386.0	1.69	3.13
26/01/2020 09:53:07	26012020	260120	095307	95.860	12.418890	-57.245373	95.820	-0.720	-0.070	1.870	95.860	-1.500	2.200																			1580032387.0	2.01	3.72
26/01/2020 09:53:08	26012020	260120	095308	95.880	12.418880	-57.245373	95.910	-0.680	0.230	2.750	95.900	-1.200	3.100																			1580032388.0	2.03	3.76
26/01/2020 09:53:09	26012020	260120	095309	96.010	12.418873	-57.245372	96.050	-0.410	0.270	3.000	96.040	-1.100	3.400																			1580032389.0	1.56	2.89
26/01/2020 09:53:10	26012020	260120	095310	96.200	12.418870	-57.245368	96.260	-0.040	0.130	2.590	96.200	-1.200	3.200																			1580032390.0	0.89	1.65
26/01/2020 09:53:11	26012020	260120	095311	96.360	12.418872	-57.245365	96.370	0.310	-0.080	1.720	96.380	-1.400	2.200																			1580032391.0	0.80	1.48
26/01/2020 09:53:12	26012020	260120	095312	96.440	12.418875	-57.245362	96.380	0.570	-0.280	0.660	96.440	-1.600	1.500																			1580032392.0	1.29	2.39
26/01/2020 09:53:13	26012020	260120	095313	96.450	12.418882	-57.245357	96.350	0.690	-0.400	-0.360	96.440	-1.800	0.100																			1580032393.0	1.61	2.98
26/01/2020 09:53:14	26012020	260120	095314	96.430	12.418888	-57.245353	96.280	0.650	-0.500	-1.160	96.420	-1.900	-0.700																			1580032394.0	1.63	3.02
26/01/2020 09:53:15	26012020	260120	095315	96.340	12.418893	-57.245350	96.150	0.470	-0.570	-1.470	96.310	-1.900	-1.100																			1580032395.0	1.39	2.57
26/01/2020 09:53:16	26012020	260120	095316	96.170	12.418897	-57.245345	96.000	0.180	-0.470	-1.180	96.140	-1.900	-0.800																			1580032396.0	0.95	1.76
26/01/2020 09:53:17	26012020	260120	095317	96.080	12.418893	-57.245342	96.000	-0.200	-0.110	-0.470	96.090	-1.500	-0.100																			1580032397.0	0.77	1.43
26/01/2020 09:53:18	26012020	260120	095318	96.150	12.418888	-57.245340	96.110	-0.610	0.300	0.480	96.170	-1.100	0.800																			1580032398.0	1.22	2.26
26/01/2020 09:53:19	26012020	260120	095319	96.270	12.418880	-57.245340	96.260	-0.860	0.430	1.430	96.300	-0.900	1.800																			1580032399.0	1.69	3.13
26/01/2020 09:53:20	26012020	260120	095320	96.410	12.418872	-57.245337	96.410	-0.830	0.310	2.190	96.440	-1.100	2.500																			1580032400.0	1.85	3.43
26/01/2020 09:53:21	26012020	260120	095321	96.530	12.418865	-57.245335	96.530	-0.530	0.190	2.600	96.550	-1.200	3.000																			1580032401.0	1.64	3.04
26/01/2020 09:53:22	26012020	260120	095322	96.620	12.418860	-57.245332	96.630	-0.110	0.130	2.550	96.620	-1.200	3.000																			1580032402.0	1.08	2.00
26/01/2020 09:53:23	26012020	260120	095323	96.730	12.418860	-57.245330	96.730	0.300	-0.040	2.010	96.750	-1.400	2.400																			1580032403.0	0.47	0.87
26/01/2020 09:53:24	26012020	260120	095324	96.780	12.418863	-57.245327	96.720	0.590	-0.370	1.160	96.780	-1.600	1.900																			1580032404.0	0.91	1.69
26/01/2020 09:53:25	26012020	260120	095325	96.720	12.418868	-57.245323	96.590	0.680	-0.600	0.250	96.690	-2.000	0.700																			1580032405.0	1.49	2.76
26/01/2020 09:53:26	26012020	260120	095326	96.580	12.418875	-57.245320	96.420	0.580	-0.600	-0.480	96.580	-2.000	0.200																			1580032406.0	1.54	2.85
26/01/2020 09:53:27	26012020	260120	095327	96.460	12.418880	-57.245317	96.280	0.340	-0.480	-0.830	96.430	-1.900	-0.400																			1580032407.0	1.11	2.06
26/01/2020 09:53:28	26012020	260120	095328	96.300	12.418880	-57.245315	96.120	0.060	-0.370	-0.770	96.270	-1.800	-0.400																			1580032408.0	0.61	1.13
26/01/2020 09:53:29	26012020	260120	095329	96.140	12.418880	-57.245312	95.990	-0.180	-0.290	-0.400	96.110	-1.700	-0.000																			1580032409.0	0.68	1.26
26/01/2020 09:53:30	26012020	260120	095330	96.050	12.418875	-57.245308	95.960	-0.270	-0.140	0.120	96.050	-1.500	0.500																			1580032410.0	1.02	1.89
26/01/2020 09:53:31	26012020	260120	095331	96.090	12.418872	-57.245305	96.050	-0.250	0.120	0.670	96.100	-1.300	1.000																			1580032411.0	1.17	2.17
26/01/2020 09:53:32	26012020	260120	095332	96.170	12.418867	-57.245303	96.160	-0.240	0.460	1.150	96.190	-0.900	1.500																			1580032412.0	1.09	2.02
26/01/2020 09:53:33	26012020	260120	095333	96.280	12.418863	-57.245302	96.290	-0.310	0.690	1.460	96.310	-0.700	1.800																			1580032413.0	0.85	1.57
26/01/2020 09:53:34	26012020	260120	095334	96.420	12.418860	-57.245302	96.430	-0.390	0.630	1.550	96.420	-0.700	1.900																			1580032414.0	0.59	1.09
26/01/2020 09:53:35	26012020	260120	095335	96.530	12.418858	-57.245300	96.500	-0.310	0.180	1.480	96.540	-1.200	1.900																			1580032415.0	0.51	0.94
26/01/2020 09:53:36	26012020	260120	095336	96.530	12.418858	-57.245295	96.440	-0.060	-0.490	1.330	96.530	-1.600	1.800																			1580032416.0	0.74	1.37
26/01/2020 09:53:37	26012020	260120	095337	96.390	12.418858	-57.245292	96.250	0.250	-1.010	1.160	96.350	-2.400	1.600																			1580032417.0	0.94	1.74
26/01/2020 09:53:38	26012020	260120	095338	96.180	12.418858	-57.245288	96.060	0.440	-1.050	0.940	96.180	-2.500	1.400																			1580032418.0	0.80	1.48
26/01/2020 09:53:39	26012020	260120	095339	95.990	12.418858	-57.245285	95.860	0.450	-0.690	0.640	95.950	-2.100	1.100																			1580032419.0	0.57	1.06
26/01/2020 09:53:40	26012020	260120	095340	95.820	12.418862	-57.245283	95.730	0.320	-0.190	0.220	95.810	-1.600	0.600																			1580032420.0	0.61	1.13
26/01/2020 09:53:41	26012020	260120	095341	95.800	12.418863	-57.245282	95.750	0.150	0.230	-0.240	95.820	-1.200	0.200																			1580032421.0	0.68	1.26
26/01/2020 09:53:42	26012020	260120	095342	95.960	12.418865	-57.245280	95.940	-0.010	0.460	-0.590	96.000	-0.900	-0.200																			1580032422.0	0.62	1.15
26/01/2020 09:53:43	26012020	260120	095343	96.180	12.418867	-57.245277	96.160	-0.140	0.450	-0.720	96.220	-0.900	-0.300																			1580032423.0	0.56	1.04
26/01/2020 09:53:44	26012020	260120	095344	96.300	12.418865	-57.245273	96.200	-0.180	0.150	-0.430	96.300	-1.200	-0.100																			1580032424.0	0.70	1.30
26/01/2020 09:53:45	26012020	260120	095345	96.210	12.418862	-57.245270	96.060	-0.090	-0.290	0.190	96.180	-1.600	0.500																			1580032425.0	1.08	2.00
26/01/2020 09:53:46	26012020	260120	095346	96.060	12.418857	-57.245267	95.930	0.000	-0.470	0.870	96.040	-1.900	1.200																			1580032426.0	1.25	2.31
26/01/2020 09:53:47	26012020	260120	095347	95.990	12.418853	-57.245263	95.910	-0.040	-0.280	1.450	95.990	-1.700	1.800																			1580032427.0	1.05	1.94
26/01/2020 09:53:48	26012020	260120	095348	96.030	12.418848	-57.245263	95.980	-0.200	0.030	1.880	96.050	-1.400	2.200																			1580032428.0	0.87	1.61
26/01/2020 09:53:49	26012020	260120	095349	96.100	12.418845	-57.245262	96.060	-0.330	0.190	2.090	96.110	-1.200	2.500																			1580032429.0	0.79	1.46
26/01/2020 09:53:50	26012020	260120	095350	96.180	12.418843	-57.245262	96.130	-0.280	0.140	1.940	96.180	-1.200	2.400																			1580032430.0	0.60	1.11
26/01/2020 09:53:51	26012020	260120	095351	96.220	12.418842	-57.245258	96.120	-0.040	-0.130	1.500	96.210	-1.500	1.900																			1580032431.0	0.51	0.94
26/01/2020 09:53:52	26012020	260120	095352	96.130	12.418843	-57.245255	95.980	0.290	-0.530	0.980	96.130	-1.700	1.600																			1580032432.0	0.84	1.56
26/01/2020 09:53:53	26012020	260120	095353	95.940	12.418845	-57.245250	95.750	0.490	-0.710	0.520	95.890	-2.100	0.900																			1580032433.0	1.06	1.96
26/01/2020 09:53:54	26012020	260120	095354	95.700	12.418848	-57.245247	95.520	0.430	-0.510	0.130	95.650	-1.900	0.600																			1580032434.0	0.90	1.67
26/01/2020 09:53:55	26012020	260120	095355	95.520	12.418850	-57.245245	95.400	0.220	-0.090	-0.250	95.500	-1.500	0.200																			1580032435.0	0.69	1.28
26/01/2020 09:53:56	26012020	260120	095356	95.530	12.418853	-57.245243	95.460	-0.010	0.240	-0.570	95.550	-1.200	-0.200																			1580032436.0	0.59	1.09
26/01/2020 09:53:57	26012020	260120	095357	95.610	12.418853	-57.245242	95.520	-0.170	0.290	-0.570	95.620	-1.100	-0.200																			1580032437.0	0.44	0.81
26/01/2020 09:53:58	26012020	260120	095358	95.600	12.418852	-57.245238	95.480	-0.230	0.130	-0.170	95.580	-1.200	0.200																			1580032438.0	0.77	1.43
26/01/2020 09:53:59	26012020	260120	095359	95.530	12.418847	-57.245235	95.430	-0.220	0.010	0.370	95.520	-1.400	0.700																			1580032439.0	1.16	2.15
26/01/2020 09:54:00	26012020	260120	095400	95.500	12.418842	-57.245233	95.420	-0.150	-0.020	0.900	95.500	-1.400	1.100	1014.10	25.50	25.60	19.60	19.60	-1.00	69.00	69.00	378.00	25.00	359.00	6.90	95.00	6.30	19	3350.00	27.40	27.40	1580032440.0	1.17	2.17
26/01/2020 09:54:01	26012020	260120	095401	95.470	12.418838	-57.245232	95.360	0.010	-0.110	1.380	95.450	-1.500	1.700																			1580032441.0	1.03	1.91
26/01/2020 09:54:02	26012020	260120	095402	95.370	12.418835	-57.245230	95.270	0.180	-0.280	1.660	95.370	-1.600	2.000																			1580032442.0	0.83	1.54
26/01/2020 09:54:03	26012020	260120	095403	95.300	12.418833	-57.245227	95.230	0.250	-0.320	1.650	95.290	-1.700	2.100																			1580032443.0	0.65	1.20
26/01/2020 09:54:04	26012020	260120	095404	95.310	12.418835	-57.245225	95.260	0.140	-0.150	1.420	95.320	-1.500	1.800																			1580032444.0	0.52	0.96
26/01/2020 09:54:05	26012020	260120	095405	95.360	12.418837	-57.245223	95.310	-0.070	0.050	1.140	95.370	-1.300	1.600																			1580032445.0	0.44	0.81
26/01/2020 09:54:06	26012020	260120	095406	95.410	12.418837	-57.245222	95.360	-0.230	-0.000	0.880	95.420	-1.400	1.300																			1580032446.0	0.37	0.69
26/01/2020 09:54:07	26012020	260120	095407	95.450	12.418837	-57.245218	95.390	-0.240	-0.330	0.700	95.460	-1.700	1.100																			1580032447.0	0.63	1.17
26/01/2020 09:54:08	26012020	260120	095408	95.460	12.418835	-57.245215	95.380	-0.130	-0.600	0.600	95.450	-2.000	1.000																			1580032448.0	0.96	1.78
26/01/2020 09:54:09	26012020	260120	095409	95.390	12.418833	-57.245212	95.290	0.010	-0.440	0.580	95.380	-1.800	1.000																			1580032449.0	0.86	1.59
26/01/2020 09:54:10	26012020	260120	095410	95.300	12.418832	-57.245210	95.230	0.130	-0.000	0.500	95.290	-1.400	0.900																			1580032450.0	0.42	0.78
26/01/2020 09:54:11	26012020	260120	095411	95.260	12.418832	-57.245208	95.210	0.210	0.280	0.310	95.260	-1.100	0.700																			1580032451.0	0.23	0.43
26/01/2020 09:54:12	26012020	260120	095412	95.300	12.418833	-57.245207	95.250	0.280	0.160	0.090	95.300	-1.100	0.600																			1580032452.0	0.55	1.02
26/01/2020 09:54:13	26012020	260120	095413	95.390	12.418835	-57.245202	95.350	0.290	-0.070	-0.000	95.410	-1.400	0.400																			1580032453.0	0.88	1.63
26/01/2020 09:54:14	26012020	260120	095414	95.520	12.418835	-57.245198	95.500	0.140	-0.030	0.100	95.520	-1.500	0.400																			1580032454.0	0.75	1.39
26/01/2020 09:54:15	26012020	260120	095415	95.650	12.418835	-57.245197	95.600	-0.120	0.160	0.400	95.660	-1.200	0.800																			1580032455.0	0.32	0.59
26/01/2020 09:54:16	26012020	260120	095416	95.710	12.418832	-57.245197	95.650	-0.320	0.120	0.820	95.720	-1.300	1.200																			1580032456.0	0.47	0.87
26/01/2020 09:54:17	26012020	260120	095417	95.720	12.418828	-57.245195	95.640	-0.320	-0.240	1.260	95.710	-1.600	1.600																			1580032457.0	0.81	1.50
26/01/2020 09:54:18	26012020	260120	095418	95.640	12.418825	-57.245192	95.560	-0.150	-0.610	1.660	95.630	-2.000	2.000																			1580032458.0	1.08	2.00
26/01/2020 09:54:19	26012020	260120	095419	95.590	12.418822	-57.245188	95.530	0.010	-0.640	1.870	95.590	-2.000	2.300																			1580032459.0	1.00	1.85
26/01/2020 09:54:20	26012020	260120	095420	95.640	12.418820	-57.245187	95.610	0.040	-0.320	1.780	95.650	-1.700	2.200																			1580032460.0	0.53	0.98
26/01/2020 09:54:21	26012020	260120	095421	95.700	12.418820	-57.245187	95.650	-0.000	0.000	1.460	95.700	-1.400	1.900																			1580032461.0	0.16	0.30
26/01/2020 09:54:22	26012020	260120	095422	95.740	12.418822	-57.245185	95.680	0.000	0.100	0.920	95.750	-1.300	1.400																			1580032462.0	0.42	0.78
26/01/2020 09:54:23	26012020	260120	095423	95.800	12.418823	-57.245182	95.740	0.080	0.030	0.280	95.820	-1.300	0.700																			1580032463.0	0.80	1.48
26/01/2020 09:54:24	26012020	260120	095424	95.910	12.418827	-57.245178	95.830	0.160	-0.040	-0.310	95.910	-1.400	0.300																			1580032464.0	0.99	1.83
26/01/2020 09:54:25	26012020	260120	095425	96.030	12.418828	-57.245175	95.940	0.180	0.010	-0.700	96.060	-1.400	-0.300																			1580032465.0	0.86	1.59
26/01/2020 09:54:26	26012020	260120	095426	96.170	12.418830	-57.245173	96.070	0.140	0.120	-0.790	96.170	-1.300	-0.400																			1580032466.0	0.55	1.02
26/01/2020 09:54:27	26012020	260120	095427	96.290	12.418830	-57.245172	96.180	0.040	0.130	-0.530	96.310	-1.200	-0.100																			1580032467.0	0.26	0.48
26/01/2020 09:54:28	26012020	260120	095428	96.340	12.418828	-57.245170	96.210	-0.040	-0.080	-0.000	96.340	-1.300	0.200																			1580032468.0	0.48	0.89
26/01/2020 09:54:29	26012020	260120	095429	96.310	12.418827	-57.245168	96.180	-0.050	-0.440	0.700	96.300	-1.800	1.000																			1580032469.0	0.87	1.61
26/01/2020 09:54:30	26012020	260120	095430	96.230	12.418822	-57.245165	96.140	-0.050	-0.730	1.460	96.220	-2.100	1.800																			1580032470.0	1.21	2.24
26/01/2020 09:54:31	26012020	260120	095431	96.190	12.418817	-57.245162	96.140	-0.090	-0.670	2.100	96.190	-2.100	2.400																			1580032471.0	1.27	2.35
26/01/2020 09:54:32	26012020	260120	095432	96.240	12.418812	-57.245160	96.250	-0.180	-0.220	2.390	96.260	-1.600	2.800																			1580032472.0	0.95	1.76
26/01/2020 09:54:33	26012020	260120	095433	96.390	12.418810	-57.245160	96.410	-0.300	0.400	2.230	96.430	-1.000	2.600																			1580032473.0	0.43	0.80
26/01/2020 09:54:34	26012020	260120	095434	96.580	12.418810	-57.245160	96.590	-0.360	0.830	1.640	96.610	-0.600	2.100																			1580032474.0	0.12	0.22
26/01/2020 09:54:35	26012020	260120	095435	96.730	12.418812	-57.245160	96.720	-0.270	0.690	0.840	96.750	-0.700	1.300																			1580032475.0	0.46	0.85
26/01/2020 09:54:36	26012020	260120	095436	96.820	12.418815	-57.245157	96.730	-0.010	0.020	0.020	96.820	-1.000	0.700																			1580032476.0	0.92	1.70
26/01/2020 09:54:37	26012020	260120	095437	96.790	12.418818	-57.245152	96.670	0.350	-0.790	-0.610	96.770	-2.100	-0.200																			1580032477.0	1.31	2.43
26/01/2020 09:54:38	26012020	260120	095438	96.680	12.418822	-57.245147	96.540	0.620	-1.230	-0.930	96.660	-2.600	-0.500																			1580032478.0	1.34	2.48
26/01/2020 09:54:39	26012020	260120	095439	96.550	12.418823	-57.245143	96.410	0.620	-0.970	-0.880	96.520	-2.400	-0.500																			1580032479.0	0.86	1.59
26/01/2020 09:54:40	26012020	260120	095440	96.410	12.418823	-57.245142	96.260	0.360	-0.220	-0.500	96.380	-1.600	-0.100																			1580032480.0	0.11	0.20
26/01/2020 09:54:41	26012020	260120	095441	96.310	12.418822	-57.245143	96.210	-0.040	0.510	0.030	96.300	-0.900	0.400																			1580032481.0	0.46	0.85
26/01/2020 09:54:42	26012020	260120	095442	96.310	12.418818	-57.245143	96.250	-0.340	0.730	0.630	96.320	-0.700	1.000																			1580032482.0	0.64	1.19
26/01/2020 09:54:43	26012020	260120	095443	96.390	12.418815	-57.245142	96.360	-0.430	0.390	1.220	96.410	-1.000	1.600																			1580032483.0	0.87	1.61
26/01/2020 09:54:44	26012020	260120	095444	96.500	12.418812	-57.245138	96.470	-0.350	-0.160	1.690	96.520	-1.500	2.000																			1580032484.0	1.22	2.26
26/01/2020 09:54:45	26012020	260120	095445	96.580	12.418807	-57.245135	96.540	-0.220	-0.460	2.000	96.580	-1.800	2.400																			1580032485.0	1.23	2.28
26/01/2020 09:54:46	26012020	260120	095446	96.530	12.418803	-57.245133	96.430	-0.140	-0.410	2.140	96.500	-1.800	2.500																			1580032486.0	0.93	1.72
26/01/2020 09:54:47	26012020	260120	095447	96.380	12.418802	-57.245132	96.310	-0.100	-0.140	1.980	96.360	-1.500	2.400																			1580032487.0	0.41	0.76
26/01/2020 09:54:48	26012020	260120	095448	96.280	12.418802	-57.245132	96.210	-0.090	0.090	1.500	96.260	-1.300	1.900																			1580032488.0	0.22	0.41
26/01/2020 09:54:49	26012020	260120	095449	96.210	12.418805	-57.245130	96.130	-0.030	0.090	0.800	96.200	-1.300	1.200																			1580032489.0	0.67	1.24
26/01/2020 09:54:50	26012020	260120	095450	96.160	12.418808	-57.245128	96.060	0.090	-0.100	0.020	96.160	-1.400	0.700																			1580032490.0	0.93	1.72
26/01/2020 09:54:51	26012020	260120	095451	96.110	12.418812	-57.245125	96.000	0.250	-0.280	-0.620	96.100	-1.700	-0.200																			1580032491.0	0.98	1.81
26/01/2020 09:54:52	26012020	260120	095452	96.070	12.418815	-57.245122	95.950	0.350	-0.300	-0.970	96.070	-1.700	-0.500																			1580032492.0	0.79	1.46
26/01/2020 09:54:53	26012020	260120	095453	96.030	12.418815	-57.245120	95.920	0.330	-0.160	-1.020	96.030	-1.600	-0.600																			1580032493.0	0.48	0.89
26/01/2020 09:54:54	26012020	260120	095454	96.020	12.418815	-57.245118	95.920	0.240	-0.080	-0.750	96.020	-1.500	-0.400																			1580032494.0	0.25	0.46
26/01/2020 09:54:55	26012020	260120	095455	95.980	12.418815	-57.245117	95.870	0.110	-0.150	-0.190	95.970	-1.500	0.200																			1580032495.0	0.41	0.76
26/01/2020 09:54:56	26012020	260120	095456	95.880	12.418812	-57.245115	95.780	-0.020	-0.260	0.570	95.860	-1.600	0.900																			1580032496.0	0.79	1.46
26/01/2020 09:54:57	26012020	260120	095457	95.760	12.418807	-57.245113	95.680	-0.100	-0.360	1.410	95.740	-1.700	1.700																			1580032497.0	1.04	1.93
26/01/2020 09:54:58	26012020	260120	095458	95.650	12.418802	-57.245110	95.580	-0.150	-0.360	2.200	95.630	-1.700	2.500																			1580032498.0	1.23	2.28
26/01/2020 09:54:59	26012020	260120	095459	95.550	12.418797	-57.245108	95.520	-0.210	-0.150	2.710	95.540	-1.600	3.100																			1580032499.0	1.22	2.26
26/01/2020 09:55:00	26012020	260120	095500	95.580	12.418793	-57.245108	95.600	-0.310	0.220	2.680	95.600	-1.200	3.100	1014.10	25.60	25.60	19.60	19.70	-1.00	69.00	69.00	378.00	25.00	1.00	6.80	97.00	6.40	21	3347.00	27.40	27.40	1580032500.0	0.86	1.59
26/01/2020 09:55:01	26012020	260120	095501	95.730	12.418792	-57.245107	95.770	-0.350	0.490	2.090	95.770	-0.900	2.500																			1580032501.0	0.18	0.33
26/01/2020 09:55:02	26012020	260120	095502	95.940	12.418795	-57.245107	95.980	-0.260	0.530	1.140	95.940	-0.800	1.900																			1580032502.0	0.59	1.09
26/01/2020 09:55:03	26012020	260120	095503	96.150	12.418798	-57.245105	96.130	-0.040	0.300	0.120	96.180	-1.100	0.600																			1580032503.0	0.99	1.83
26/01/2020 09:55:04	26012020	260120	095504	96.240	12.418803	-57.245102	96.140	0.180	-0.130	-0.750	96.240	-1.300	-0.000																			1580032504.0	1.12	2.07
26/01/2020 09:55:05	26012020	260120	095505	96.250	12.418808	-57.245098	96.120	0.280	-0.590	-1.340	96.250	-1.900	-0.900																			1580032505.0	1.10	2.04
26/01/2020 09:55:06	26012020	260120	095506	96.250	12.418810	-57.245097	96.120	0.280	-0.870	-1.470	96.260	-2.200	-1.100																			1580032506.0	0.80	1.48
26/01/2020 09:55:07	26012020	260120	095507	96.260	12.418810	-57.245093	96.130	0.240	-0.890	-1.080	96.260	-2.300	-0.700																			1580032507.0	0.41	0.76
26/01/2020 09:55:08	26012020	260120	095508	96.240	12.418807	-57.245093	96.080	0.190	-0.660	-0.290	96.220	-2.100	0.000																			1580032508.0	0.69	1.28
26/01/2020 09:55:09	26012020	260120	095509	96.140	12.418802	-57.245092	96.000	0.110	-0.270	0.640	96.110	-1.700	1.000																			1580032509.0	1.02	1.89
26/01/2020 09:55:10	26012020	260120	095510	96.060	12.418798	-57.245092	95.980	0.020	0.110	1.480	96.060	-1.300	1.800																			1580032510.0	1.08	2.00
26/01/2020 09:55:11	26012020	260120	095511	96.130	12.418793	-57.245092	96.150	-0.040	0.380	2.070	96.170	-1.000	2.400																			1580032511.0	1.05	1.94
26/01/2020 09:55:12	26012020	260120	095512	96.350	12.418788	-57.245090	96.400	-0.020	0.480	2.310	96.390	-0.900	2.700																			1580032512.0	0.82	1.52
26/01/2020 09:55:13	26012020	260120	095513	96.590	12.418788	-57.245088	96.650	0.010	0.420	2.180	96.640	-1.000	2.600																			1580032513.0	0.43	0.80
26/01/2020 09:55:14	26012020	260120	095514	96.850	12.418788	-57.245087	96.900	-0.040	0.260	1.760	96.850	-1.100	2.300																			1580032514.0	0.44	0.81
26/01/2020 09:55:15	26012020	260120	095515	97.060	12.418792	-57.245085	97.090	-0.200	-0.030	1.230	97.090	-1.400	1.700																			1580032515.0	0.64	1.19
26/01/2020 09:55:16	26012020	260120	095516	97.190	12.418793	-57.245083	97.140	-0.310	-0.420	0.810	97.190	-1.600	1.300																			1580032516.0	0.59	1.09
26/01/2020 09:55:17	26012020	260120	095517	97.160	12.418793	-57.245082	97.050	-0.290	-0.680	0.620	97.140	-2.100	1.000																			1580032517.0	0.48	0.89
26/01/2020 09:55:18	26012020	260120	095518	97.020	12.418792	-57.245080	96.890	-0.140	-0.580	0.560	97.020	-2.100	1.000																			1580032518.0	0.46	0.85
26/01/2020 09:55:19	26012020	260120	095519	96.870	12.418790	-57.245078	96.760	0.030	-0.230	0.460	96.850	-1.600	0.900																			1580032519.0	0.31	0.57
26/01/2020 09:55:20	26012020	260120	095520	96.800	12.418790	-57.245078	96.720	0.170	0.080	0.160	96.800	-1.400	0.700																			1580032520.0	0.02	0.04
26/01/2020 09:55:21	26012020	260120	095521	96.870	12.418793	-57.245078	96.830	0.250	0.190	-0.330	96.900	-1.200	0.100																			1580032521.0	0.60	1.11
26/01/2020 09:55:22	26012020	260120	095522	97.050	12.418797	-57.245077	97.020	0.330	0.030	-0.720	97.090	-1.300	-0.300																			1580032522.0	0.92	1.70
26/01/2020 09:55:23	26012020	260120	095523	97.210	12.418800	-57.245073	97.150	0.410	-0.320	-0.720	97.220	-1.700	-0.300																			1580032523.0	0.84	1.56
26/01/2020 09:55:24	26012020	260120	095524	97.250	12.418800	-57.245070	97.170	0.410	-0.540	-0.310	97.240	-1.900	0.000																			1580032524.0	0.76	1.41
26/01/2020 09:55:25	26012020	260120	095525	97.190	12.418797	-57.245067	97.100	0.230	-0.430	0.440	97.170	-1.800	0.800																			1580032525.0	0.75	1.39
26/01/2020 09:55:26	26012020	260120	095526	97.130	12.418793	-57.245067	97.090	-0.100	-0.110	1.290	97.120	-1.500	1.600																			1580032526.0	0.91	1.69
26/01/2020 09:55:27	26012020	260120	095527	97.140	12.418788	-57.245067	97.150	-0.450	0.210	1.940	97.160	-1.200	2.300																			1580032527.0	1.01	1.87
26/01/2020 09:55:28	26012020	260120	095528	97.240	12.418783	-57.245067	97.280	-0.640	0.360	2.260	97.240	-1.100	2.500																			1580032528.0	0.92	1.70
26/01/2020 09:55:29	26012020	260120	095529	97.360	12.418780	-57.245065	97.390	-0.550	0.260	2.240	97.370	-1.100	2.600																			1580032529.0	0.73	1.35
26/01/2020 09:55:30	26012020	260120	095530	97.410	12.418778	-57.245063	97.420	-0.260	0.000	1.930	97.410	-1.300	2.500																			1580032530.0	0.57	1.06
26/01/2020 09:55:31	26012020	260120	095531	97.420	12.418778	-57.245060	97.430	0.050	-0.260	1.390	97.430	-1.600	1.800																			1580032531.0	0.59	1.09
26/01/2020 09:55:32	26012020	260120	095532	97.450	12.418782	-57.245058	97.460	0.230	-0.370	0.670	97.470	-1.700	1.100																			1580032532.0	0.76	1.41
26/01/2020 09:55:33	26012020	260120	095533	97.540	12.418785	-57.245057	97.530	0.260	-0.270	-0.190	97.560	-1.700	0.300																			1580032533.0	0.95	1.76
26/01/2020 09:55:34	26012020	260120	095534	97.630	12.418790	-57.245055	97.570	0.200	-0.110	-0.880	97.640	-1.500	-0.500																			1580032534.0	1.10	2.04
26/01/2020 09:55:35	26012020	260120	095535	97.640	12.418793	-57.245053	97.550	0.140	-0.050	-1.120	97.640	-1.400	-0.700																			1580032535.0	0.83	1.54
26/01/2020 09:55:36	26012020	260120	095536	97.590	12.418795	-57.245052	97.480	0.140	-0.120	-0.920	97.580	-1.500	-0.600																			1580032536.0	0.32	0.59
26/01/2020 09:55:37	26012020	260120	095537	97.450	12.418793	-57.245050	97.330	0.220	-0.290	-0.350	97.420	-1.700	-0.000																			1580032537.0	0.46	0.85
26/01/2020 09:55:38	26012020	260120	095538	97.270	12.418792	-57.245048	97.180	0.260	-0.420	0.390	97.240	-1.800	0.700																			1580032538.0	0.72	1.33
26/01/2020 09:55:39	26012020	260120	095539	97.190	12.418788	-57.245047	97.170	0.130	-0.380	1.060	97.200	-1.800	1.400																			1580032539.0	0.79	1.46
26/01/2020 09:55:40	26012020	260120	095540	97.250	12.418783	-57.245047	97.240	-0.130	-0.170	1.710	97.250	-1.600	1.800																			1580032540.0	0.81	1.50
26/01/2020 09:55:41	26012020	260120	095541	97.260	12.418780	-57.245045	97.240	-0.360	-0.020	2.280	97.250	-1.400	2.600																			1580032541.0	0.98	1.81
26/01/2020 09:55:42	26012020	260120	095542	97.170	12.418775	-57.245045	97.130	-0.410	-0.020	2.550	97.170	-1.400	2.900																			1580032542.0	1.00	1.85
26/01/2020 09:55:43	26012020	260120	095543	97.060	12.418772	-57.245043	97.030	-0.310	-0.020	2.370	97.040	-1.400	2.800																			1580032543.0	0.71	1.31
26/01/2020 09:55:44	26012020	260120	095544	97.020	12.418772	-57.245042	97.020	-0.140	0.110	1.710	97.030	-1.300	2.100																			1580032544.0	0.37	0.69
26/01/2020 09:55:45	26012020	260120	095545	97.090	12.418775	-57.245040	97.100	0.010	0.310	0.740	97.110	-1.100	1.200																			1580032545.0	0.65	1.20
26/01/2020 09:55:46	26012020	260120	095546	97.210	12.418780	-57.245040	97.200	0.100	0.380	-0.320	97.240	-1.000	0.100																			1580032546.0	1.03	1.91
26/01/2020 09:55:47	26012020	260120	095547	97.310	12.418785	-57.245038	97.240	0.190	0.170	-1.240	97.320	-1.200	-0.800																			1580032547.0	1.21	2.24
26/01/2020 09:55:48	26012020	260120	095548	97.280	12.418790	-57.245037	97.130	0.300	-0.340	-1.760	97.260	-1.700	-1.400																			1580032548.0	1.18	2.19
26/01/2020 09:55:49	26012020	260120	095549	97.130	12.418793	-57.245033	96.950	0.330	-0.780	-1.720	97.100	-2.100	-1.400																			1580032549.0	0.96	1.78
26/01/2020 09:55:50	26012020	260120	095550	96.970	12.418793	-57.245032	96.790	0.180	-0.800	-1.070	96.940	-2.200	-0.700																			1580032550.0	0.45	0.83
26/01/2020 09:55:51	26012020	260120	095551	96.850	12.418790	-57.245032	96.700	-0.130	-0.430	0.020	96.830	-1.800	0.300																			1580032551.0	0.80	1.48
26/01/2020 09:55:52	26012020	260120	095552	96.740	12.418783	-57.245033	96.610	-0.400	-0.050	1.310	96.710	-1.500	1.600																			1580032552.0	1.51	2.80
26/01/2020 09:55:53	26012020	260120	095553	96.560	12.418775	-57.245035	96.440	-0.430	-0.030	2.480	96.520	-1.400	2.800																			1580032553.0	1.82	3.37
26/01/2020 09:55:54	26012020	260120	095554	96.350	12.418767	-57.245033	96.260	-0.190	-0.290	3.240	96.350	-1.600	3.400																			1580032554.0	1.73	3.20
26/01/2020 09:55:55	26012020	260120	095555	96.200	12.418762	-57.245030	96.190	0.130	-0.340	3.370	96.200	-1.700	3.800																			1580032555.0	1.27	2.35
26/01/2020 09:55:56	26012020	260120	095556	96.250	12.418762	-57.245028	96.280	0.290	0.080	2.810	96.270	-1.300	3.200																			1580032556.0	0.47	0.87
26/01/2020 09:55:57	26012020	260120	095557	96.410	12.418765	-57.245028	96.430	0.210	0.680	1.720	96.440	-0.700	2.200																			1580032557.0	0.81	1.50
26/01/2020 09:55:58	26012020	260120	095558	96.560	12.418772	-57.245030	96.530	0.040	0.870	0.390	96.580	-0.500	0.900																			1580032558.0	1.38	2.56
26/01/2020 09:55:59	26012020	260120	095559	96.590	12.418778	-57.245028	96.470	-0.010	0.390	-0.740	96.570	-1.000	-0.300																			1580032559.0	1.44	2.67
26/01/2020 09:56:00	26012020	260120	095600	96.420	12.418783	-57.245025	96.210	0.090	-0.390	-1.410	96.370	-1.700	-1.000	1014.10	25.50	25.50	19.20	19.30	-1.00	68.00	68.00	378.00	25.00	2.00	6.70	98.00	6.30	23	3306.00	27.40	27.40	1580032560.0	1.30	2.41
26/01/2020 09:56:01	26012020	260120	095601	96.150	12.418787	-57.245022	95.940	0.190	-0.910	-1.650	96.100	-2.300	-1.300																			1580032561.0	1.02	1.89
26/01/2020 09:56:02	26012020	260120	095602	95.960	12.418788	-57.245020	95.770	0.180	-0.980	-1.490	95.930	-2.400	-1.100																			1580032562.0	0.53	0.98
26/01/2020 09:56:03	26012020	260120	095603	95.810	12.418787	-57.245020	95.640	0.020	-0.730	-0.900	95.780	-2.100	-0.600																			1580032563.0	0.21	0.39
26/01/2020 09:56:04	26012020	260120	095604	95.700	12.418783	-57.245020	95.580	-0.230	-0.280	0.030	95.690	-1.700	0.300																			1580032564.0	0.78	1.44
26/01/2020 09:56:05	26012020	260120	095605	95.660	12.418777	-57.245022	95.610	-0.470	0.160	1.050	95.670	-1.300	1.400																			1580032565.0	1.33	2.46
26/01/2020 09:56:06	26012020	260120	095606	95.710	12.418770	-57.245022	95.700	-0.560	0.400	1.890	95.710	-1.100	1.900																			1580032566.0	1.53	2.83
26/01/2020 09:56:07	26012020	260120	095607	95.860	12.418763	-57.245022	95.910	-0.440	0.430	2.330	95.900	-1.000	2.700																			1580032567.0	1.30	2.41
26/01/2020 09:56:08	26012020	260120	095608	96.100	12.418760	-57.245020	96.160	-0.140	0.310	2.350	96.100	-1.000	2.700																			1580032568.0	0.81	1.50
26/01/2020 09:56:09	26012020	260120	095609	96.250	12.418760	-57.245018	96.230	0.240	0.040	2.060	96.260	-1.300	2.500																			1580032569.0	0.40	0.74
26/01/2020 09:56:10	26012020	260120	095610	96.260	12.418760	-57.245017	96.230	0.590	-0.360	1.480	96.260	-1.700	1.900																			1580032570.0	0.53	0.98
26/01/2020 09:56:11	26012020	260120	095611	96.250	12.418763	-57.245013	96.200	0.770	-0.650	0.710	96.250	-2.000	1.100																			1580032571.0	0.94	1.74
26/01/2020 09:56:12	26012020	260120	095612	96.240	12.418768	-57.245012	96.160	0.710	-0.580	-0.050	96.240	-2.000	0.400																			1580032572.0	1.19	2.20
26/01/2020 09:56:13	26012020	260120	095613	96.280	12.418775	-57.245010	96.250	0.390	-0.180	-0.670	96.310	-1.600	-0.300																			1580032573.0	1.15	2.13
26/01/2020 09:56:14	26012020	260120	095614	96.440	12.418778	-57.245012	96.410	-0.050	0.230	-1.000	96.490	-1.200	-0.600																			1580032574.0	0.89	1.65
26/01/2020 09:56:15	26012020	260120	095615	96.650	12.418780	-57.245012	96.620	-0.420	0.300	-0.860	96.690	-1.100	-0.500																			1580032575.0	0.36	0.67
26/01/2020 09:56:16	26012020	260120	095616	96.810	12.418778	-57.245012	96.750	-0.560	-0.030	-0.300	96.830	-1.400	0.000																			1580032576.0	0.45	0.83
26/01/2020 09:56:17	26012020	260120	095617	96.830	12.418773	-57.245010	96.730	-0.450	-0.450	0.540	96.820	-1.800	0.900																			1580032577.0	1.20	2.22
26/01/2020 09:56:18	26012020	260120	095618	96.720	12.418765	-57.245008	96.630	-0.220	-0.570	1.470	96.700	-2.000	1.800																			1580032578.0	1.57	2.91
26/01/2020 09:56:19	26012020	260120	095619	96.640	12.418758	-57.245007	96.610	-0.050	-0.290	2.220	96.640	-1.700	2.600																			1580032579.0	1.44	2.67
26/01/2020 09:56:20	26012020	260120	095620	96.710	12.418755	-57.245008	96.770	-0.010	0.160	2.550	96.710	-1.400	2.800																			1580032580.0	0.94	1.74
26/01/2020 09:56:21	26012020	260120	095621	96.950	12.418753	-57.245010	97.060	-0.070	0.460	2.330	97.010	-0.900	2.700																			1580032581.0	0.41	0.76
26/01/2020 09:56:22	26012020	260120	095622	97.240	12.418755	-57.245010	97.300	-0.080	0.410	1.730	97.280	-1.000	2.200																			1580032582.0	0.39	0.72
26/01/2020 09:56:23	26012020	260120	095623	97.340	12.418758	-57.245010	97.290	0.060	0.020	1.090	97.330	-1.300	1.500																			1580032583.0	0.61	1.13
26/01/2020 09:56:24	26012020	260120	095624	97.260	12.418762	-57.245008	97.190	0.280	-0.410	0.510	97.240	-1.800	0.900																			1580032584.0	0.77	1.43
26/01/2020 09:56:25	26012020	260120	095625	97.170	12.418765	-57.245007	97.090	0.450	-0.710	0.060	97.160	-2.100	0.500																			1580032585.0	0.82	1.52
26/01/2020 09:56:26	26012020	260120	095626	97.110	12.418767	-57.245005	97.010	0.460	-0.810	-0.170	97.090	-2.200	0.200																			1580032586.0	0.72	1.33
26/01/2020 09:56:27	26012020	260120	095627	96.990	12.418768	-57.245003	96.850	0.320	-0.660	-0.140	96.960	-2.100	0.200																			1580032587.0	0.47	0.87
26/01/2020 09:56:28	26012020	260120	095628	96.820	12.418770	-57.245003	96.700	0.100	-0.230	0.110	96.800	-1.700	0.500																			1580032588.0	0.08	0.15
26/01/2020 09:56:29	26012020	260120	095629	96.740	12.418768	-57.245003	96.670	-0.090	0.290	0.410	96.750	-1.100	0.800																			1580032589.0	0.29	0.54
26/01/2020 09:56:30	26012020	260120	095630	96.830	12.418767	-57.245005	96.830	-0.210	0.620	0.640	96.830	-0.900	0.900																			1580032590.0	0.40	0.74
26/01/2020 09:56:31	26012020	260120	095631	97.050	12.418765	-57.245005	97.080	-0.310	0.670	0.850	97.090	-0.700	1.200																			1580032591.0	0.38	0.70
26/01/2020 09:56:32	26012020	260120	095632	97.270	12.418763	-57.245007	97.290	-0.390	0.460	1.080	97.270	-0.800	1.400																			1580032592.0	0.38	0.70
26/01/2020 09:56:33	26012020	260120	095633	97.410	12.418762	-57.245007	97.380	-0.380	0.000	1.290	97.420	-1.400	1.700																			1580032593.0	0.37	0.69
26/01/2020 09:56:34	26012020	260120	095634	97.420	12.418760	-57.245005	97.370	-0.210	-0.510	1.430	97.410	-1.900	1.800																			1580032594.0	0.37	0.69
26/01/2020 09:56:35	26012020	260120	095635	97.320	12.418760	-57.245003	97.220	0.060	-0.820	1.560	97.280	-2.200	1.900																			1580032595.0	0.31	0.57
26/01/2020 09:56:36	26012020	260120	095636	97.060	12.418758	-57.245003	96.930	0.300	-0.860	1.710	96.990	-2.300	2.100																			1580032596.0	0.17	0.31
26/01/2020 09:56:37	26012020	260120	095637	96.720	12.418758	-57.245003	96.620	0.360	-0.680	1.680	96.670	-2.100	2.100																			1580032597.0	0.03	0.06
26/01/2020 09:56:38	26012020	260120	095638	96.560	12.418760	-57.245003	96.550	0.230	-0.260	1.210	96.570	-1.700	1.600																			1580032598.0	0.39	0.72
26/01/2020 09:56:39	26012020	260120	095639	96.670	12.418763	-57.245005	96.690	-0.000	0.270	0.510	96.710	-1.200	0.900																			1580032599.0	0.79	1.46
26/01/2020 09:56:40	26012020	260120	095640	96.890	12.418768	-57.245005	96.890	-0.170	0.600	-0.100	96.930	-0.800	0.300																			1580032600.0	0.82	1.52
26/01/2020 09:56:41	26012020	260120	095641	97.070	12.418770	-57.245005	97.020	-0.190	0.500	-0.490	97.100	-0.900	-0.100																			1580032601.0	0.55	1.02
26/01/2020 09:56:42	26012020	260120	095642	97.160	12.418772	-57.245005	97.080	-0.080	0.080	-0.650	97.170	-1.300	-0.300																			1580032602.0	0.38	0.70
26/01/2020 09:56:43	26012020	260120	095643	97.190	12.418772	-57.245003	97.080	0.090	-0.350	-0.570	97.180	-1.700	-0.200																			1580032603.0	0.40	0.74
26/01/2020 09:56:44	26012020	260120	095644	97.140	12.418772	-57.245002	97.020	0.260	-0.560	-0.160	97.140	-1.900	0.000																			1580032604.0	0.27	0.50
26/01/2020 09:56:45	26012020	260120	095645	97.020	12.418770	-57.245002	96.900	0.340	-0.490	0.450	96.990	-1.900	0.800																			1580032605.0	0.31	0.57
26/01/2020 09:56:46	26012020	260120	095646	96.930	12.418768	-57.245002	96.860	0.240	-0.190	1.080	96.920	-1.600	1.400																			1580032606.0	0.49	0.91
26/01/2020 09:56:47	26012020	260120	095647	96.910	12.418767	-57.245003	96.880	0.020	0.120	1.570	96.910	-1.300	1.900																			1580032607.0	0.56	1.04
26/01/2020 09:56:48	26012020	260120	095648	96.960	12.418765	-57.245005	96.970	-0.190	0.220	1.800	96.980	-1.200	2.200																			1580032608.0	0.42	0.78
26/01/2020 09:56:49	26012020	260120	095649	97.080	12.418765	-57.245005	97.100	-0.340	0.100	1.780	97.100	-1.300	2.200																			1580032609.0	0.14	0.26
26/01/2020 09:56:50	26012020	260120	095650	97.180	12.418763	-57.245005	97.170	-0.410	-0.140	1.710	97.190	-1.500	2.100																			1580032610.0	0.11	0.20
26/01/2020 09:56:51	26012020	260120	095651	97.200	12.418763	-57.245005	97.160	-0.380	-0.350	1.590	97.200	-1.700	2.000																			1580032611.0	0.22	0.41
26/01/2020 09:56:52	26012020	260120	095652	97.150	12.418762	-57.245005	97.090	-0.230	-0.420	1.300	97.140	-1.800	1.700																			1580032612.0	0.17	0.31
26/01/2020 09:56:53	26012020	260120	095653	97.100	12.418763	-57.245003	97.030	-0.010	-0.370	0.790	97.090	-1.800	1.200																			1580032613.0	0.13	0.24
26/01/2020 09:56:54	26012020	260120	095654	97.080	12.418765	-57.245003	97.020	0.170	-0.220	0.160	97.080	-1.700	0.800																			1580032614.0	0.50	0.93
26/01/2020 09:56:55	26012020	260120	095655	97.140	12.418770	-57.245003	97.100	0.220	0.010	-0.530	97.170	-1.400	-0.100																			1580032615.0	0.87	1.61
26/01/2020 09:56:56	26012020	260120	095656	97.330	12.418775	-57.245003	97.310	0.190	0.230	-1.130	97.330	-1.200	-0.500																			1580032616.0	1.05	1.94
26/01/2020 09:56:57	26012020	260120	095657	97.540	12.418778	-57.245003	97.490	0.200	0.230	-1.380	97.580	-1.200	-1.000																			1580032617.0	0.87	1.61
26/01/2020 09:56:58	26012020	260120	095658	97.680	12.418780	-57.245003	97.580	0.280	-0.020	-1.180	97.680	-1.300	-0.900																			1580032618.0	0.39	0.72
26/01/2020 09:56:59	26012020	260120	095659	97.750	12.418780	-57.245003	97.660	0.300	-0.290	-0.600	97.760	-1.700	-0.300																			1580032619.0	0.25	0.46
26/01/2020 09:57:00	26012020	260120	095700	97.820	12.418777	-57.245003	97.770	0.170	-0.390	0.220	97.840	-1.800	0.500	1014.10	25.50	25.50	19.20	19.30	-1.00	68.00	68.00	377.00	24.90	2.00	6.60	99.00	6.40	25	3309.00	27.40	27.40	1580032620.0	0.58	1.07
26/01/2020 09:57:01	26012020	260120	095701	97.860	12.418773	-57.245003	97.800	-0.050	-0.330	1.200	97.840	-1.700	1.500																			1580032621.0	0.92	1.70
26/01/2020 09:57:02	26012020	260120	095702	97.780	12.418767	-57.245005	97.740	-0.210	-0.230	2.150	97.770	-1.600	2.500																			1580032622.0	1.17	2.17
26/01/2020 09:57:03	26012020	260120	095703	97.740	12.418762	-57.245005	97.740	-0.270	-0.130	2.780	97.740	-1.500	3.100																			1580032623.0	1.12	2.07
26/01/2020 09:57:04	26012020	260120	095704	97.790	12.418758	-57.245007	97.820	-0.280	-0.030	2.890	97.810	-1.400	3.300																			1580032624.0	0.78	1.44
26/01/2020 09:57:05	26012020	260120	095705	97.890	12.418758	-57.245007	97.920	-0.320	0.120	2.480	97.920	-1.300	2.900																			1580032625.0	0.27	0.50
26/01/2020 09:57:06	26012020	260120	095706	98.030	12.418758	-57.245008	98.030	-0.350	0.230	1.720	98.050	-1.200	2.200																			1580032626.0	0.36	0.67
26/01/2020 09:57:07	26012020	260120	095707	98.140	12.418762	-57.245008	98.100	-0.270	0.140	0.820	98.150	-1.200	1.300																			1580032627.0	0.72	1.33
26/01/2020 09:57:08	26012020	260120	095708	98.110	12.418767	-57.245008	97.970	-0.040	-0.180	-0.030	98.110	-1.400	0.700																			1580032628.0	0.93	1.72
26/01/2020 09:57:09	26012020	260120	095709	97.920	12.418772	-57.245007	97.750	0.250	-0.520	-0.710	97.870	-1.900	-0.300																			1580032629.0	0.98	1.81
26/01/2020 09:57:10	26012020	260120	095710	97.700	12.418775	-57.245005	97.550	0.460	-0.640	-1.120	97.700	-2.000	-0.600																			1580032630.0	0.87	1.61
26/01/2020 09:57:11	26012020	260120	095711	97.590	12.418777	-57.245005	97.480	0.490	-0.480	-1.230	97.580	-1.900	-0.800																			1580032631.0	0.63	1.17
26/01/2020 09:57:12	26012020	260120	095712	97.590	12.418778	-57.245005	97.510	0.360	-0.150	-1.050	97.600	-1.600	-0.700																			1580032632.0	0.36	0.67
26/01/2020 09:57:13	26012020	260120	095713	97.610	12.418778	-57.245007	97.530	0.130	0.180	-0.510	97.610	-1.200	-0.200																			1580032633.0	0.26	0.48
26/01/2020 09:57:14	26012020	260120	095714	97.590	12.418777	-57.245008	97.530	-0.100	0.320	0.340	97.580	-1.100	0.700																			1580032634.0	0.55	1.02
26/01/2020 09:57:15	26012020	260120	095715	97.520	12.418772	-57.245008	97.470	-0.230	0.230	1.330	97.500	-1.200	1.600																			1580032635.0	1.02	1.89
26/01/2020 09:57:16	26012020	260120	095716	97.420	12.418767	-57.245008	97.380	-0.230	0.020	2.210	97.390	-1.400	2.500																			1580032636.0	1.27	2.35
26/01/2020 09:57:17	26012020	260120	095717	97.270	12.418762	-57.245008	97.220	-0.190	-0.170	2.830	97.240	-1.500	3.200																			1580032637.0	1.16	2.15
26/01/2020 09:57:18	26012020	260120	095718	97.110	12.418757	-57.245010	97.080	-0.160	-0.290	3.020	97.080	-1.700	3.400																			1580032638.0	0.77	1.43
26/01/2020 09:57:19	26012020	260120	095719	97.000	12.418757	-57.245010	96.980	-0.140	-0.350	2.650	96.990	-1.700	3.100																			1580032639.0	0.12	0.22
26/01/2020 09:57:20	26012020	260120	095720	96.970	12.418760	-57.245008	96.950	-0.090	-0.350	1.830	96.970	-1.700	2.300																			1580032640.0	0.54	1.00
26/01/2020 09:57:21	26012020	260120	095721	96.980	12.418763	-57.245008	96.930	-0.020	-0.240	0.800	96.980	-1.600	1.200																			1580032641.0	0.94	1.74
26/01/2020 09:57:22	26012020	260120	095722	96.980	12.418768	-57.245008	96.910	0.020	-0.040	-0.230	96.980	-1.500	0.600																			1580032642.0	1.12	2.07
26/01/2020 09:57:23	26012020	260120	095723	96.990	12.418773	-57.245008	96.900	-0.030	0.190	-1.110	97.000	-1.200	-0.700																			1580032643.0	1.15	2.13
26/01/2020 09:57:24	26012020	260120	095724	97.030	12.418778	-57.245010	96.920	-0.100	0.260	-1.650	97.040	-1.100	-1.200																			1580032644.0	0.92	1.70
26/01/2020 09:57:25	26012020	260120	095725	97.060	12.418782	-57.245010	96.930	-0.010	0.010	-1.750	97.060	-1.400	-1.400																			1580032645.0	0.54	1.00
26/01/2020 09:57:26	26012020	260120	095726	97.030	12.418782	-57.245008	96.890	0.230	-0.460	-1.410	97.020	-1.800	-1.100																			1580032646.0	0.29	0.54
26/01/2020 09:57:27	26012020	260120	095727	97.020	12.418780	-57.245007	96.940	0.460	-0.780	-0.770	97.040	-2.200	-0.400																			1580032647.0	0.51	0.94
26/01/2020 09:57:28	26012020	260120	095728	97.150	12.418777	-57.245005	97.110	0.430	-0.610	0.120	97.180	-2.000	0.400																			1580032648.0	0.66	1.22
26/01/2020 09:57:29	26012020	260120	095729	97.280	12.418773	-57.245007	97.240	0.090	-0.060	1.220	97.290	-1.500	1.500																			1580032649.0	1.03	1.91
26/01/2020 09:57:30	26012020	260120	095730	97.270	12.418767	-57.245010	97.220	-0.330	0.400	2.350	97.250	-1.000	2.600																			1580032650.0	1.44	2.67
26/01/2020 09:57:31	26012020	260120	095731	97.170	12.418762	-57.245013	97.160	-0.550	0.470	3.140	97.160	-0.900	3.500																			1580032651.0	1.42	2.63
26/01/2020 09:57:32	26012020	260120	095732	97.160	12.418757	-57.245013	97.190	-0.480	0.170	3.300	97.170	-1.200	3.700																			1580032652.0	0.99	1.83
26/01/2020 09:57:33	26012020	260120	095733	97.260	12.418755	-57.245013	97.310	-0.230	-0.210	2.960	97.290	-1.600	3.400																			1580032653.0	0.43	0.80
26/01/2020 09:57:34	26012020	260120	095734	97.420	12.418755	-57.245012	97.470	-0.030	-0.360	2.280	97.420	-1.700	3.000																			1580032654.0	0.25	0.46
26/01/2020 09:57:35	26012020	260120	095735	97.600	12.418758	-57.245013	97.630	0.080	-0.220	1.290	97.640	-1.600	1.700																			1580032655.0	0.63	1.17
26/01/2020 09:57:36	26012020	260120	095736	97.760	12.418763	-57.245013	97.730	0.190	-0.010	0.100	97.780	-1.400	0.600																			1580032656.0	1.20	2.22
26/01/2020 09:57:37	26012020	260120	095737	97.800	12.418772	-57.245015	97.680	0.350	0.040	-0.960	97.780	-1.300	-0.500																			1580032657.0	1.57	2.91
26/01/2020 09:57:38	26012020	260120	095738	97.670	12.418778	-57.245015	97.520	0.470	-0.190	-1.540	97.640	-1.600	-1.100																			1580032658.0	1.48	2.74
26/01/2020 09:57:39	26012020	260120	095739	97.490	12.418782	-57.245013	97.320	0.440	-0.510	-1.530	97.450	-1.900	-1.200																			1580032659.0	1.01	1.87
26/01/2020 09:57:40	26012020	260120	095740	97.350	12.418783	-57.245013	97.210	0.190	-0.660	-1.070	97.330	-2.000	-0.700																			1580032660.0	0.40	0.74
26/01/2020 09:57:41	26012020	260120	095741	97.300	12.418782	-57.245013	97.210	-0.170	-0.550	-0.310	97.300	-1.900	0.000																			1580032661.0	0.40	0.74
26/01/2020 09:57:42	26012020	260120	095742	97.320	12.418777	-57.245013	97.250	-0.460	-0.210	0.760	97.320	-1.600	1.100																			1580032662.0	1.14	2.11
26/01/2020 09:57:43	26012020	260120	095743	97.300	12.418768	-57.245015	97.250	-0.540	0.220	1.900	97.280	-1.200	2.200																			1580032663.0	1.71	3.17
26/01/2020 09:57:44	26012020	260120	095744	97.230	12.418762	-57.245018	97.200	-0.380	0.530	2.700	97.220	-0.900	3.000																			1580032664.0	1.69	3.13
26/01/2020 09:57:45	26012020	260120	095745	97.220	12.418757	-57.245018	97.240	-0.110	0.540	2.860	97.230	-0.800	3.200																			1580032665.0	1.05	1.94
26/01/2020 09:57:46	26012020	260120	095746	97.320	12.418757	-57.245018	97.360	0.160	0.280	2.390	97.320	-1.000	3.000																			1580032666.0	0.12	0.22
26/01/2020 09:57:47	26012020	260120	095747	97.470	12.418760	-57.245018	97.490	0.320	-0.090	1.530	97.490	-1.500	2.000																			1580032667.0	0.83	1.54
26/01/2020 09:57:48	26012020	260120	095748	97.550	12.418767	-57.245017	97.500	0.300	-0.400	0.620	97.550	-1.700	1.400																			1580032668.0	1.34	2.48
26/01/2020 09:57:49	26012020	260120	095749	97.500	12.418772	-57.245015	97.400	0.130	-0.520	-0.080	97.480	-1.900	0.300																			1580032669.0	1.35	2.50
26/01/2020 09:57:50	26012020	260120	095750	97.370	12.418777	-57.245015	97.240	-0.100	-0.450	-0.470	97.340	-1.800	-0.100																			1580032670.0	0.96	1.78
26/01/2020 09:57:51	26012020	260120	095751	97.210	12.418778	-57.245017	97.060	-0.260	-0.320	-0.510	97.180	-1.700	-0.100																			1580032671.0	0.46	0.85
26/01/2020 09:57:52	26012020	260120	095752	97.050	12.418778	-57.245017	96.940	-0.250	-0.240	-0.260	97.030	-1.600	0.100																			1580032672.0	0.25	0.46
26/01/2020 09:57:53	26012020	260120	095753	96.970	12.418775	-57.245018	96.880	-0.080	-0.180	0.070	96.960	-1.600	0.400																			1580032673.0	0.55	1.02
26/01/2020 09:57:54	26012020	260120	095754	96.940	12.418773	-57.245018	96.870	0.140	-0.120	0.310	96.940	-1.500	0.700																			1580032674.0	0.45	0.83
26/01/2020 09:57:55	26012020	260120	095755	96.960	12.418773	-57.245017	96.920	0.300	-0.050	0.500	96.980	-1.400	0.900																			1580032675.0	0.17	0.31
26/01/2020 09:57:56	26012020	260120	095756	97.090	12.418773	-57.245017	97.120	0.310	0.010	0.660	97.130	-1.400	1.000																			1580032676.0	0.04	0.07
26/01/2020 09:57:57	26012020	260120	095757	97.280	12.418773	-57.245017	97.290	0.180	0.020	0.830	97.310	-1.400	1.200																			1580032677.0	0.02	0.04
26/01/2020 09:57:58	26012020	260120	095758	97.350	12.418773	-57.245017	97.280	0.020	-0.060	1.050	97.350	-1.400	1.300																			1580032678.0	0.01	0.02
26/01/2020 09:57:59	26012020	260120	095759	97.220	12.418772	-57.245017	97.110	-0.120	-0.150	1.370	97.190	-1.500	1.700																			1580032679.0	0.11	0.20
26/01/2020 09:58:00	26012020	260120	095800	97.060	12.418770	-57.245017	97.000	-0.260	-0.120	1.650	97.040	-1.500	2.000	1014.10	25.50	25.50	19.20	19.30	-1.00	68.00	68.00	377.00	24.90	360.00	5.90	97.00	5.60	28	3375.00	27.40	27.40	1580032680.0	0.30	0.56
26/01/2020 09:58:01	26012020	260120	095801	97.040	12.418768	-57.245017	97.040	-0.390	0.060	1.680	97.050	-1.300	2.100																			1580032681.0	0.39	0.72
26/01/2020 09:58:02	26012020	260120	095802	97.180	12.418768	-57.245018	97.210	-0.420	0.220	1.410	97.220	-1.200	1.800																			1580032682.0	0.37	0.69
26/01/2020 09:58:03	26012020	260120	095803	97.400	12.418768	-57.245020	97.420	-0.270	0.200	0.910	97.440	-1.200	1.300																			1580032683.0	0.28	0.52
26/01/2020 09:58:04	26012020	260120	095804	97.570	12.418770	-57.245020	97.520	0.030	-0.040	0.350	97.590	-1.400	0.800																			1580032684.0	0.39	0.72
26/01/2020 09:58:05	26012020	260120	095805	97.560	12.418773	-57.245020	97.440	0.320	-0.420	-0.080	97.540	-1.800	0.300																			1580032685.0	0.60	1.11
26/01/2020 09:58:06	26012020	260120	095806	97.360	12.418775	-57.245018	97.190	0.440	-0.730	-0.280	97.300	-2.100	0.100																			1580032686.0	0.67	1.24
26/01/2020 09:58:07	26012020	260120	095807	97.080	12.418778	-57.245017	96.930	0.380	-0.770	-0.260	97.030	-2.200	0.100																			1580032687.0	0.56	1.04
26/01/2020 09:58:08	26012020	260120	095808	96.900	12.418780	-57.245017	96.800	0.240	-0.510	-0.090	96.880	-1.900	0.300																			1580032688.0	0.31	0.57
26/01/2020 09:58:09	26012020	260120	095809	96.910	12.418780	-57.245018	96.880	0.070	-0.090	0.120	96.930	-1.500	0.500																			1580032689.0	0.17	0.31
26/01/2020 09:58:10	26012020	260120	095810	97.030	12.418778	-57.245018	96.980	-0.100	0.300	0.420	97.030	-1.200	0.700																			1580032690.0	0.32	0.59
26/01/2020 09:58:11	26012020	260120	095811	97.040	12.418777	-57.245020	96.980	-0.280	0.530	0.860	97.030	-0.900	1.200																			1580032691.0	0.61	1.13
26/01/2020 09:58:12	26012020	260120	095812	97.000	12.418773	-57.245022	96.970	-0.380	0.560	1.190	97.000	-0.800	1.500																			1580032692.0	0.72	1.33
26/01/2020 09:58:13	26012020	260120	095813	97.030	12.418772	-57.245022	97.010	-0.290	0.340	1.280	97.040	-1.000	1.700																			1580032693.0	0.43	0.80
26/01/2020 09:58:14	26012020	260120	095814	97.060	12.418772	-57.245022	97.030	0.030	-0.110	1.190	97.060	-1.500	1.600																			1580032694.0	0.03	0.06
26/01/2020 09:58:15	26012020	260120	095815	97.040	12.418772	-57.245020	96.980	0.370	-0.590	0.980	97.030	-1.900	1.400																			1580032695.0	0.33	0.61
26/01/2020 09:58:16	26012020	260120	095816	96.960	12.418773	-57.245020	96.880	0.470	-0.780	0.750	96.940	-2.200	1.200																			1580032696.0	0.42	0.78
26/01/2020 09:58:17	26012020	260120	095817	96.860	12.418775	-57.245020	96.750	0.240	-0.610	0.580	96.830	-2.000	1.000																			1580032697.0	0.40	0.74
26/01/2020 09:58:18	26012020	260120	095818	96.750	12.418777	-57.245022	96.630	-0.160	-0.310	0.510	96.720	-1.700	0.900																			1580032698.0	0.44	0.81
26/01/2020 09:58:19	26012020	260120	095819	96.610	12.418777	-57.245022	96.490	-0.460	-0.070	0.530	96.590	-1.500	0.900																			1580032699.0	0.30	0.56
26/01/2020 09:58:20	26012020	260120	095820	96.530	12.418777	-57.245023	96.440	-0.530	0.140	0.440	96.520	-1.300	0.800																			1580032700.0	0.33	0.61
26/01/2020 09:58:21	26012020	260120	095821	96.490	12.418775	-57.245025	96.400	-0.380	0.270	0.280	96.480	-1.100	0.700																			1580032701.0	0.37	0.69
26/01/2020 09:58:22	26012020	260120	095822	96.430	12.418773	-57.245025	96.350	-0.090	0.210	0.060	96.430	-1.100	0.500																			1580032702.0	0.20	0.37
26/01/2020 09:58:23	26012020	260120	095823	96.460	12.418775	-57.245025	96.400	0.260	-0.030	-0.260	96.470	-1.400	0.100																			1580032703.0	0.22	0.41
26/01/2020 09:58:24	26012020	260120	095824	96.550	12.418777	-57.245023	96.490	0.540	-0.250	-0.580	96.550	-1.600	-0.100																			1580032704.0	0.60	1.11
26/01/2020 09:58:25	26012020	260120	095825	96.670	12.418782	-57.245022	96.610	0.630	-0.240	-0.740	96.700	-1.600	-0.300																			1580032705.0	0.79	1.46
26/01/2020 09:58:26	26012020	260120	095826	96.790	12.418783	-57.245022	96.690	0.450	-0.100	-0.550	96.790	-1.500	-0.300																			1580032706.0	0.63	1.17
26/01/2020 09:58:27	26012020	260120	095827	96.800	12.418783	-57.245023	96.680	0.110	-0.050	0.100	96.780	-1.400	0.400																			1580032707.0	0.27	0.50
26/01/2020 09:58:28	26012020	260120	095828	96.660	12.418780	-57.245025	96.530	-0.220	-0.150	1.140	96.630	-1.500	1.400																			1580032708.0	0.84	1.56
26/01/2020 09:58:29	26012020	260120	095829	96.450	12.418773	-57.245025	96.350	-0.430	-0.280	2.250	96.410	-1.700	2.600																			1580032709.0	1.46	2.70
26/01/2020 09:58:30	26012020	260120	095830	96.260	12.418767	-57.245025	96.190	-0.460	-0.340	3.030	96.220	-1.700	3.400																			1580032710.0	1.58	2.93
26/01/2020 09:58:31	26012020	260120	095831	96.130	12.418760	-57.245025	96.090	-0.320	-0.330	3.250	96.110	-1.700	3.600																			1580032711.0	1.14	2.11
26/01/2020 09:58:32	26012020	260120	095832	96.100	12.418758	-57.245025	96.090	-0.090	-0.230	2.800	96.110	-1.600	3.200																			1580032712.0	0.38	0.70
26/01/2020 09:58:33	26012020	260120	095833	96.190	12.418762	-57.245025	96.170	0.130	-0.060	1.850	96.220	-1.500	2.300																			1580032713.0	0.44	0.81
26/01/2020 09:58:34	26012020	260120	095834	96.330	12.418767	-57.245025	96.300	0.230	0.170	0.640	96.360	-1.200	1.100																			1580032714.0	1.13	2.09
26/01/2020 09:58:35	26012020	260120	095835	96.430	12.418773	-57.245025	96.340	0.180	0.330	-0.480	96.440	-1.100	-0.000																			1580032715.0	1.50	2.78
26/01/2020 09:58:36	26012020	260120	095836	96.410	12.418780	-57.245025	96.250	0.070	0.270	-1.220	96.410	-1.100	-0.600																			1580032716.0	1.42	2.63
26/01/2020 09:58:37	26012020	260120	095837	96.230	12.418785	-57.245025	96.040	0.030	-0.060	-1.490	96.180	-1.400	-1.100																			1580032717.0	1.00	1.85
26/01/2020 09:58:38	26012020	260120	095838	96.020	12.418787	-57.245023	95.880	0.050	-0.470	-1.290	96.020	-1.700	-1.000																			1580032718.0	0.52	0.96
26/01/2020 09:58:39	26012020	260120	095839	95.920	12.418785	-57.245022	95.800	0.050	-0.640	-0.640	95.900	-2.000	-0.300																			1580032719.0	0.35	0.65
26/01/2020 09:58:40	26012020	260120	095840	95.830	12.418780	-57.245022	95.700	-0.020	-0.510	0.390	95.810	-1.900	0.700																			1580032720.0	0.94	1.74
26/01/2020 09:58:41	26012020	260120	095841	95.680	12.418775	-57.245023	95.560	-0.060	-0.230	1.440	95.640	-1.600	1.800																			1580032721.0	1.37	2.54
26/01/2020 09:58:42	26012020	260120	095842	95.500	12.418768	-57.245025	95.420	-0.010	-0.020	2.190	95.480	-1.400	2.500																			1580032722.0	1.24	2.30
26/01/2020 09:58:43	26012020	260120	095843	95.400	12.418765	-57.245025	95.380	0.120	0.030	2.480	95.390	-1.300	2.900																			1580032723.0	0.73	1.35
26/01/2020 09:58:44	26012020	260120	095844	95.430	12.418765	-57.245025	95.460	0.180	0.040	2.310	95.460	-1.300	2.700																			1580032724.0	0.16	0.30
26/01/2020 09:58:45	26012020	260120	095845	95.570	12.418767	-57.245025	95.580	0.050	0.120	1.820	95.590	-1.300	2.300																			1580032725.0	0.49	0.91
26/01/2020 09:58:46	26012020	260120	095846	95.690	12.418772	-57.245025	95.700	-0.180	0.200	1.160	95.720	-1.200	1.600																			1580032726.0	0.80	1.48
26/01/2020 09:58:47	26012020	260120	095847	95.810	12.418775	-57.245025	95.760	-0.320	0.140	0.510	95.820	-1.200	0.900																			1580032727.0	0.83	1.54
26/01/2020 09:58:48	26012020	260120	095848	95.830	12.418778	-57.245025	95.730	-0.250	-0.150	0.020	95.820	-1.500	0.400																			1580032728.0	0.63	1.17
26/01/2020 09:58:49	26012020	260120	095849	95.740	12.418780	-57.245023	95.610	-0.050	-0.480	-0.280	95.720	-1.800	0.100																			1580032729.0	0.45	0.83
26/01/2020 09:58:50	26012020	260120	095850	95.660	12.418780	-57.245022	95.540	0.110	-0.560	-0.440	95.660	-1.900	0.000																			1580032730.0	0.35	0.65
26/01/2020 09:58:51	26012020	260120	095851	95.640	12.418780	-57.245022	95.550	0.140	-0.350	-0.370	95.640	-1.700	0.000																			1580032731.0	0.05	0.09
26/01/2020 09:58:52	26012020	260120	095852	95.680	12.418780	-57.245023	95.620	0.110	-0.060	-0.160	95.690	-1.400	0.200																			1580032732.0	0.29	0.54
26/01/2020 09:58:53	26012020	260120	095853	95.800	12.418780	-57.245025	95.750	0.110	0.080	0.060	95.820	-1.300	0.400																			1580032733.0	0.31	0.57
26/01/2020 09:58:54	26012020	260120	095854	95.910	12.418780	-57.245025	95.860	0.130	-0.030	0.290	95.930	-1.400	0.700																			1580032734.0	0.04	0.07
26/01/2020 09:58:55	26012020	260120	095855	95.940	12.418780	-57.245023	95.870	0.110	-0.190	0.640	95.930	-1.600	1.000																			1580032735.0	0.20	0.37
26/01/2020 09:58:56	26012020	260120	095856	95.930	12.418778	-57.245023	95.900	0.050	-0.180	1.060	95.940	-1.600	1.400																			1580032736.0	0.30	0.56
26/01/2020 09:58:57	26012020	260120	095857	95.990	12.418777	-57.245023	95.990	-0.030	-0.040	1.460	96.000	-1.400	1.800																			1580032737.0	0.45	0.83
26/01/2020 09:58:58	26012020	260120	095858	96.040	12.418773	-57.245025	96.050	-0.120	0.050	1.720	96.060	-1.300	2.100																			1580032738.0	0.47	0.87
26/01/2020 09:58:59	26012020	260120	095859	96.150	12.418772	-57.245025	96.190	-0.220	0.040	1.690	96.180	-1.300	2.100																			1580032739.0	0.32	0.59
26/01/2020 09:59:00	26012020	260120	095900	96.370	12.418772	-57.245025	96.450	-0.300	0.010	1.350	96.430	-1.400	1.800	1014.10	25.50	25.50	19.30	19.40	-1.00	68.00	68.00	377.00	24.90	0.00	7.30	97.00	7.10	32	3207.00	27.40	27.40	1580032740.0	0.09	0.17
26/01/2020 09:59:01	26012020	260120	095901	96.690	12.418773	-57.245027	96.770	-0.270	-0.030	0.850	96.760	-1.400	1.300																			1580032741.0	0.25	0.46
26/01/2020 09:59:02	26012020	260120	095902	96.980	12.418775	-57.245027	97.000	-0.070	-0.170	0.380	96.980	-1.500	0.900																			1580032742.0	0.40	0.74
26/01/2020 09:59:03	26012020	260120	095903	97.070	12.418777	-57.245027	97.020	0.200	-0.380	0.080	97.070	-1.700	0.500																			1580032743.0	0.40	0.74
26/01/2020 09:59:04	26012020	260120	095904	97.010	12.418778	-57.245027	96.910	0.360	-0.460	-0.020	96.990	-1.800	0.400																			1580032744.0	0.39	0.72
26/01/2020 09:59:05	26012020	260120	095905	96.880	12.418780	-57.245025	96.770	0.290	-0.300	0.040	96.860	-1.700	0.400																			1580032745.0	0.33	0.61
26/01/2020 09:59:06	26012020	260120	095906	96.800	12.418782	-57.245027	96.720	0.050	-0.000	0.250	96.790	-1.400	0.600																			1580032746.0	0.33	0.61
26/01/2020 09:59:07	26012020	260120	095907	96.830	12.418782	-57.245028	96.830	-0.190	0.190	0.550	96.860	-1.200	0.900																			1580032747.0	0.34	0.63
26/01/2020 09:59:08	26012020	260120	095908	97.010	12.418780	-57.245030	97.050	-0.240	0.120	0.810	97.050	-1.300	1.200																			1580032748.0	0.39	0.72
26/01/2020 09:59:09	26012020	260120	095909	97.220	12.418777	-57.245030	97.220	-0.120	-0.100	1.000	97.250	-1.500	1.400																			1580032749.0	0.54	1.00
26/01/2020 09:59:10	26012020	260120	095910	97.330	12.418775	-57.245028	97.290	0.050	-0.290	1.170	97.340	-1.700	1.500																			1580032750.0	0.56	1.04
26/01/2020 09:59:11	26012020	260120	095911	97.320	12.418773	-57.245028	97.280	0.140	-0.330	1.260	97.320	-1.700	1.600																			1580032751.0	0.34	0.63
26/01/2020 09:59:12	26012020	260120	095912	97.330	12.418773	-57.245028	97.300	0.130	-0.230	1.140	97.330	-1.600	1.500																			1580032752.0	0.03	0.06
26/01/2020 09:59:13	26012020	260120	095913	97.340	12.418775	-57.245028	97.300	0.040	-0.040	0.910	97.340	-1.400	1.300																			1580032753.0	0.36	0.67
26/01/2020 09:59:14	26012020	260120	095914	97.280	12.418777	-57.245030	97.200	-0.030	0.070	0.710	97.280	-1.300	1.200																			1580032754.0	0.48	0.89
26/01/2020 09:59:15	26012020	260120	095915	97.160	12.418778	-57.245030	97.090	-0.090	0.010	0.520	97.150	-1.400	0.900																			1580032755.0	0.37	0.69
26/01/2020 09:59:16	26012020	260120	095916	97.140	12.418780	-57.245028	97.120	-0.190	-0.010	0.280	97.150	-1.400	0.700																			1580032756.0	0.34	0.63
26/01/2020 09:59:17	26012020	260120	095917	97.230	12.418782	-57.245028	97.210	-0.310	0.130	0.100	97.250	-1.300	0.500																			1580032757.0	0.24	0.44
26/01/2020 09:59:18	26012020	260120	095918	97.300	12.418782	-57.245030	97.250	-0.350	0.210	0.100	97.300	-1.200	0.500																			1580032758.0	0.28	0.52
26/01/2020 09:59:19	26012020	260120	095919	97.300	12.418780	-57.245032	97.230	-0.170	0.010	0.230	97.290	-1.400	0.600																			1580032759.0	0.33	0.61
26/01/2020 09:59:20	26012020	260120	095920	97.240	12.418778	-57.245030	97.160	0.170	-0.440	0.430	97.220	-1.800	0.800																			1580032760.0	0.40	0.74
26/01/2020 09:59:21	26012020	260120	095921	97.140	12.418777	-57.245028	97.040	0.500	-0.890	0.590	97.110	-2.200	1.000																			1580032761.0	0.50	0.93
26/01/2020 09:59:22	26012020	260120	095922	97.010	12.418777	-57.245027	96.890	0.600	-0.940	0.690	96.990	-2.300	1.100																			1580032762.0	0.45	0.83
26/01/2020 09:59:23	26012020	260120	095923	96.910	12.418778	-57.245027	96.820	0.400	-0.490	0.780	96.890	-1.900	1.200																			1580032763.0	0.25	0.46
26/01/2020 09:59:24	26012020	260120	095924	96.870	12.418778	-57.245027	96.810	0.020	0.180	0.900	96.870	-1.300	1.300																			1580032764.0	0.31	0.57
26/01/2020 09:59:25	26012020	260120	095925	96.880	12.418778	-57.245030	96.830	-0.350	0.680	1.030	96.880	-0.700	1.400																			1580032765.0	0.43	0.80
26/01/2020 09:59:26	26012020	260120	095926	96.880	12.418777	-57.245030	96.820	-0.530	0.720	1.130	96.880	-0.600	1.500																			1580032766.0	0.38	0.70
26/01/2020 09:59:27	26012020	260120	095927	96.850	12.418775	-57.245030	96.800	-0.430	0.320	1.110	96.850	-1.000	1.500																			1580032767.0	0.40	0.74
26/01/2020 09:59:28	26012020	260120	095928	96.850	12.418775	-57.245028	96.810	-0.190	-0.130	0.930	96.850	-1.300	1.400																			1580032768.0	0.49	0.91
26/01/2020 09:59:29	26012020	260120	095929	96.880	12.418775	-57.245027	96.850	0.050	-0.340	0.670	96.880	-1.700	1.100																			1580032769.0	0.32	0.59
26/01/2020 09:59:30	26012020	260120	095930	96.900	12.418777	-57.245027	96.850	0.200	-0.270	0.420	96.900	-1.700	0.800																			1580032770.0	0.30	0.56
26/01/2020 09:59:31	26012020	260120	095931	96.910	12.418778	-57.245028	96.840	0.230	-0.120	0.170	96.910	-1.500	0.600																			1580032771.0	0.57	1.06
26/01/2020 09:59:32	26012020	260120	095932	96.900	12.418780	-57.245028	96.830	0.140	-0.110	0.040	96.890	-1.500	0.400																			1580032772.0	0.58	1.07
26/01/2020 09:59:33	26012020	260120	095933	96.820	12.418782	-57.245030	96.720	0.020	-0.340	0.210	96.790	-1.700	0.600																			1580032773.0	0.23	0.43
26/01/2020 09:59:34	26012020	260120	095934	96.670	12.418780	-57.245028	96.580	-0.050	-0.700	0.610	96.640	-2.000	1.000																			1580032774.0	0.28	0.52
26/01/2020 09:59:35	26012020	260120	095935	96.540	12.418778	-57.245027	96.460	-0.070	-0.870	1.070	96.520	-2.200	1.400																			1580032775.0	0.64	1.19
26/01/2020 09:59:36	26012020	260120	095936	96.350	12.418775	-57.245027	96.220	-0.050	-0.640	1.580	96.290	-2.000	1.900																			1580032776.0	0.85	1.57
26/01/2020 09:59:37	26012020	260120	095937	96.030	12.418770	-57.245027	95.890	0.020	-0.090	1.940	95.960	-1.500	2.300																			1580032777.0	0.91	1.69
26/01/2020 09:59:38	26012020	260120	095938	95.780	12.418768	-57.245027	95.740	0.140	0.490	1.760	95.780	-1.100	2.300																			1580032778.0	0.51	0.94
26/01/2020 09:59:39	26012020	260120	095939	95.880	12.418770	-57.245028	95.950	0.240	0.830	0.950	95.940	-0.600	1.400																			1580032779.0	0.45	0.83
26/01/2020 09:59:40	26012020	260120	095940	96.270	12.418775	-57.245028	96.340	0.270	0.790	-0.110	96.360	-0.600	0.300																			1580032780.0	1.27	2.35
26/01/2020 09:59:41	26012020	260120	095941	96.630	12.418783	-57.245027	96.610	0.190	0.370	-0.920	96.670	-1.000	-0.500																			1580032781.0	1.52	2.82
26/01/2020 09:59:42	26012020	260120	095942	96.760	12.418787	-57.245025	96.650	0.010	-0.170	-1.140	96.760	-1.300	-0.700																			1580032782.0	1.08	2.00
26/01/2020 09:59:43	26012020	260120	095943	96.660	12.418788	-57.245023	96.500	-0.210	-0.590	-0.700	96.630	-1.900	-0.400																			1580032783.0	0.24	0.44
26/01/2020 09:59:44	26012020	260120	095944	96.420	12.418785	-57.245025	96.250	-0.380	-0.820	0.270	96.360	-2.200	0.600																			1580032784.0	0.74	1.37
26/01/2020 09:59:45	26012020	260120	095945	96.140	12.418778	-57.245025	96.000	-0.410	-0.850	1.450	96.090	-2.200	1.800																			1580032785.0	1.40	2.59
26/01/2020 09:59:46	26012020	260120	095946	95.870	12.418770	-57.245027	95.750	-0.320	-0.640	2.490	95.820	-2.000	2.800																			1580032786.0	1.67	3.09
26/01/2020 09:59:47	26012020	260120	095947	95.640	12.418763	-57.245028	95.560	-0.160	-0.280	3.070	95.600	-1.700	3.400																			1580032787.0	1.47	2.72
26/01/2020 09:59:48	26012020	260120	095948	95.500	12.418760	-57.245028	95.480	0.010	0.070	2.950	95.490	-1.300	3.400																			1580032788.0	0.76	1.41
26/01/2020 09:59:49	26012020	260120	095949	95.530	12.418762	-57.245028	95.560	0.200	0.220	2.140	95.560	-1.200	2.600																			1580032789.0	0.26	0.48
26/01/2020 09:59:50	26012020	260120	095950	95.700	12.418767	-57.245027	95.720	0.430	0.190	0.910	95.700	-1.200	1.800																			1580032790.0	1.20	2.22
26/01/2020 09:59:51	26012020	260120	095951	95.870	12.418775	-57.245025	95.850	0.590	0.100	-0.350	95.910	-1.300	0.100																			1580032791.0	1.75	3.24
26/01/2020 09:59:52	26012020	260120	095952	96.020	12.418783	-57.245023	95.980	0.550	0.060	-1.330	96.020	-1.300	-0.600																			1580032792.0	1.77	3.28
26/01/2020 09:59:53	26012020	260120	095953	96.160	12.418788	-57.245023	96.080	0.270	0.030	-1.770	96.170	-1.400	-1.400																			1580032793.0	1.28	2.37
26/01/2020 09:59:54	26012020	260120	095954	96.200	12.418792	-57.245023	96.060	-0.070	-0.070	-1.490	96.190	-1.400	-1.100																			1580032794.0	0.46	0.85
26/01/2020 09:59:55	26012020	260120	095955	96.100	12.418788	-57.245023	95.950	-0.310	-0.220	-0.570	96.070	-1.600	-0.300																			1580032795.0	0.48	0.89
26/01/2020 09:59:56	26012020	260120	095956	95.930	12.418783	-57.245023	95.790	-0.390	-0.340	0.660	95.890	-1.700	1.000																			1580032796.0	1.20	2.22
26/01/2020 09:59:57	26012020	260120	095957	95.760	12.418777	-57.245025	95.650	-0.370	-0.370	1.870	95.720	-1.700	2.200																			1580032797.0	1.59	2.94
26/01/2020 09:59:58	26012020	260120	095958	95.640	12.418768	-57.245025	95.610	-0.320	-0.270	2.770	95.640	-1.700	3.100																			1580032798.0	1.53	2.83
26/01/2020 09:59:59	26012020	260120	095959	95.650	12.418763	-57.245025	95.670	-0.280	-0.100	3.190	95.660	-1.500	3.600																			1580032799.0	1.12	2.07
26/01/2020 10:00:00	26012020	260120	100000	95.780	12.418762	-57.245027	95.860	-0.220	0.040	3.060	95.820	-1.300	3.500	1014.10	25.50	25.50	19.20	19.20	-1.00	68.00	68.00	377.00	24.90	356.00	7.00	92.00	6.70	37	3275.00	27.40	27.40	1580032800.0	0.51	0.94
26/01/2020 10:00:01	26012020	260120	100001	95.990	12.418762	-57.245027	96.040	-0.060	0.090	2.390	96.040	-1.300	2.800																			1580032801.0	0.17	0.31
26/01/2020 10:00:02	26012020	260120	100001	96.130	12.418765	-57.245027	96.090	0.160	0.030	1.410	96.130	-1.300	2.200																			1580032801.0	0.72	1.33
26/01/2020 10:00:03	26012020	260120	100003	96.080	12.418770	-57.245025	95.960	0.350	-0.120	0.320	96.060	-1.500	0.800																			1580032803.0	1.12	2.07
26/01/2020 10:00:04	26012020	260120	100004	95.960	12.418777	-57.245023	95.820	0.420	-0.280	-0.690	95.960	-1.600	0.100																			1580032804.0	1.41	2.61
26/01/2020 10:00:05	26012020	260120	100005	95.890	12.418783	-57.245023	95.780	0.400	-0.420	-1.400	95.890	-1.800	-1.000																			1580032805.0	1.45	2.69
26/01/2020 10:00:06	26012020	260120	100006	95.910	12.418788	-57.245022	95.800	0.350	-0.500	-1.630	95.910	-1.900	-1.200																			1580032806.0	1.12	2.07
26/01/2020 10:00:07	26012020	260120	100007	95.910	12.418790	-57.245020	95.780	0.240	-0.390	-1.330	95.900	-1.800	-1.000																			1580032807.0	0.44	0.81
26/01/2020 10:00:08	26012020	260120	100008	95.870	12.418788	-57.245020	95.770	0.010	-0.030	-0.660	95.860	-1.400	-0.300																			1580032808.0	0.32	0.59
26/01/2020 10:00:09	26012020	260120	100009	95.910	12.418785	-57.245022	95.880	-0.270	0.420	0.220	95.940	-1.000	0.500																			1580032809.0	0.85	1.57
26/01/2020 10:00:10	26012020	260120	100010	96.090	12.418780	-57.245023	96.110	-0.470	0.670	1.190	96.130	-0.700	1.500																			1580032810.0	1.16	2.15
26/01/2020 10:00:11	26012020	260120	100011	96.250	12.418775	-57.245025	96.250	-0.500	0.470	2.140	96.260	-0.900	2.500																			1580032811.0	1.25	2.31
26/01/2020 10:00:12	26012020	260120	100012	96.270	12.418770	-57.245025	96.260	-0.360	-0.090	2.810	96.260	-1.400	3.200																			1580032812.0	1.19	2.20
26/01/2020 10:00:13	26012020	260120	100013	96.240	12.418765	-57.245023	96.200	-0.170	-0.640	3.090	96.220	-2.000	3.500																			1580032813.0	0.93	1.72
26/01/2020 10:00:14	26012020	260120	100014	96.150	12.418763	-57.245023	96.090	-0.020	-0.880	2.990	96.150	-2.200	3.400																			1580032814.0	0.47	0.87
26/01/2020 10:00:15	26012020	260120	100015	96.010	12.418763	-57.245022	95.910	0.090	-0.760	2.510	95.980	-2.100	2.900																			1580032815.0	0.13	0.24
26/01/2020 10:00:16	26012020	260120	100016	95.850	12.418767	-57.245023	95.730	0.190	-0.420	1.690	95.850	-1.900	2.500																			1580032816.0	0.56	1.04
26/01/2020 10:00:17	26012020	260120	100017	95.700	12.418772	-57.245023	95.580	0.310	-0.040	0.580	95.680	-1.400	1.000																			1580032817.0	1.04	1.93
26/01/2020 10:00:18	26012020	260120	100018	95.640	12.418778	-57.245022	95.550	0.360	0.270	-0.700	95.640	-1.200	0.200																			1580032818.0	1.50	2.78
26/01/2020 10:00:19	26012020	260120	100019	95.780	12.418787	-57.245022	95.720	0.310	0.480	-1.840	95.830	-0.900	-1.400																			1580032819.0	1.75	3.24
26/01/2020 10:00:20	26012020	260120	100020	96.050	12.418793	-57.245022	95.980	0.190	0.470	-2.410	96.100	-0.900	-2.000																			1580032820.0	1.45	2.69
26/01/2020 10:00:21	26012020	260120	100021	96.250	12.418797	-57.245020	96.140	0.080	0.100	-2.210	96.270	-1.200	-1.800																			1580032821.0	0.65	1.20
26/01/2020 10:00:22	26012020	260120	100022	96.260	12.418795	-57.245018	96.090	-0.030	-0.380	-1.240	96.230	-1.700	-0.900																			1580032822.0	0.41	0.76
26/01/2020 10:00:23	26012020	260120	100023	96.060	12.418790	-57.245018	95.890	-0.180	-0.650	0.240	96.000	-2.000	0.500																			1580032823.0	1.13	2.09
26/01/2020 10:00:24	26012020	260120	100024	95.820	12.418782	-57.245018	95.720	-0.360	-0.610	1.840	95.780	-2.000	2.100																			1580032824.0	1.67	3.09
26/01/2020 10:00:25	26012020	260120	100025	95.680	12.418773	-57.245020	95.650	-0.470	-0.360	3.200	95.660	-1.800	3.500																			1580032825.0	1.91	3.54
26/01/2020 10:00:26	26012020	260120	100026	95.640	12.418765	-57.245022	95.660	-0.480	-0.030	4.100	95.640	-1.400	4.400																			1580032826.0	1.78	3.30
26/01/2020 10:00:27	26012020	260120	100027	95.660	12.418760	-57.245023	95.720	-0.420	0.200	4.230	95.680	-1.200	4.600																			1580032827.0	1.27	2.35
26/01/2020 10:00:28	26012020	260120	100028	95.780	12.418758	-57.245023	95.820	-0.270	0.230	3.530	95.810	-1.100	4.000																			1580032828.0	0.33	0.61
26/01/2020 10:00:29	26012020	260120	100029	95.910	12.418762	-57.245023	95.890	0.040	0.070	2.140	95.930	-1.300	2.600																			1580032829.0	0.73	1.35
26/01/2020 10:00:30	26012020	260120	100030	95.990	12.418768	-57.245022	95.930	0.480	-0.130	0.370	95.990	-1.400	1.500																			1580032830.0	1.68	3.11
26/01/2020 10:00:31	26012020	260120	100031	96.040	12.418780	-57.245018	95.930	0.810	-0.270	-1.360	96.050	-1.600	-0.900																			1580032831.0	2.32	4.30
26/01/2020 10:00:32	26012020	260120	100032	96.060	12.418790	-57.245017	95.900	0.810	-0.330	-2.570	96.060	-1.700	-2.100																			1580032832.0	2.34	4.33
26/01/2020 10:00:33	26012020	260120	100033	96.080	12.418798	-57.245017	95.930	0.470	-0.330	-2.990	96.080	-1.700	-2.600																			1580032833.0	1.69	3.13
26/01/2020 10:00:34	26012020	260120	100034	96.130	12.418800	-57.245017	96.000	-0.030	-0.260	-2.600	96.140	-1.600	-2.200																			1580032834.0	0.60	1.11
26/01/2020 10:00:35	26012020	260120	100035	96.170	12.418798	-57.245017	96.050	-0.520	-0.080	-1.490	96.170	-1.500	-1.200																			1580032835.0	0.61	1.13
26/01/2020 10:00:36	26012020	260120	100036	96.150	12.418790	-57.245018	96.040	-0.810	0.120	0.110	96.140	-1.300	0.400																			1580032836.0	1.66	3.07
26/01/2020 10:00:37	26012020	260120	100037	96.110	12.418780	-57.245022	96.070	-0.750	0.130	1.800	96.110	-1.200	2.100																			1580032837.0	2.32	4.30
26/01/2020 10:00:38	26012020	260120	100038	96.110	12.418768	-57.245022	96.120	-0.380	-0.140	3.180	96.120	-1.500	3.500																			1580032838.0	2.35	4.35
26/01/2020 10:00:39	26012020	260120	100039	96.160	12.418760	-57.245022	96.200	0.010	-0.390	3.930	96.170	-1.800	4.300																			1580032839.0	1.82	3.37
26/01/2020 10:00:40	26012020	260120	100040	96.240	12.418757	-57.245020	96.260	0.210	-0.290	3.890	96.260	-1.700	4.300																			1580032840.0	0.92	1.70
26/01/2020 10:00:41	26012020	260120	100041	96.350	12.418757	-57.245022	96.360	0.240	0.060	3.030	96.380	-1.300	3.500																			1580032841.0	0.33	0.61
26/01/2020 10:00:42	26012020	260120	100042	96.520	12.418763	-57.245023	96.510	0.240	0.250	1.610	96.520	-1.200	2.600																			1580032842.0	1.36	2.52
26/01/2020 10:00:43	26012020	260120	100043	96.660	12.418772	-57.245023	96.580	0.300	0.050	0.130	96.670	-1.300	0.600																			1580032843.0	1.90	3.52
26/01/2020 10:00:44	26012020	260120	100044	96.640	12.418780	-57.245022	96.480	0.320	-0.330	-0.990	96.610	-1.700	-0.500																			1580032844.0	1.85	3.43
26/01/2020 10:00:45	26012020	260120	100045	96.440	12.418787	-57.245020	96.220	0.190	-0.490	-1.560	96.380	-1.900	-1.100																			1580032845.0	1.30	2.41
26/01/2020 10:00:46	26012020	260120	100046	96.130	12.418790	-57.245020	95.880	-0.040	-0.390	-1.560	96.060	-1.800	-1.200																			1580032846.0	0.57	1.06
26/01/2020 10:00:47	26012020	260120	100047	95.820	12.418788	-57.245022	95.630	-0.200	-0.250	-1.120	95.780	-1.600	-0.800																			1580032847.0	0.23	0.43
26/01/2020 10:00:48	26012020	260120	100048	95.710	12.418787	-57.245022	95.610	-0.180	-0.150	-0.520	95.710	-1.500	-0.200																			1580032848.0	0.61	1.13
26/01/2020 10:00:49	26012020	260120	100049	95.830	12.418782	-57.245022	95.800	-0.110	0.030	0.160	95.870	-1.400	0.500																			1580032849.0	0.84	1.56
26/01/2020 10:00:50	26012020	260120	100050	96.010	12.418778	-57.245023	95.980	-0.090	0.250	0.860	96.040	-1.100	1.200																			1580032850.0	0.93	1.72
26/01/2020 10:00:51	26012020	260120	100051	96.110	12.418773	-57.245025	96.070	-0.120	0.340	1.520	96.120	-1.000	1.900																			1580032851.0	0.90	1.67
26/01/2020 10:00:52	26012020	260120	100052	96.090	12.418770	-57.245025	96.000	-0.110	0.170	2.040	96.090	-1.100	2.200																			1580032852.0	0.70	1.30
26/01/2020 10:00:53	26012020	260120	100053	95.950	12.418768	-57.245025	95.850	-0.010	-0.190	2.380	95.920	-1.500	2.800																			1580032853.0	0.44	0.81
26/01/2020 10:00:54	26012020	260120	100054	95.810	12.418768	-57.245023	95.740	0.080	-0.510	2.450	95.810	-1.800	2.800																			1580032854.0	0.34	0.63
26/01/2020 10:00:55	26012020	260120	100055	95.770	12.418768	-57.245023	95.740	0.060	-0.520	2.180	95.770	-1.900	2.600																			1580032855.0	0.21	0.39
26/01/2020 10:00:56	26012020	260120	100056	95.780	12.418768	-57.245023	95.750	-0.080	-0.280	1.710	95.780	-1.800	2.300																			1580032856.0	0.27	0.50
26/01/2020 10:00:57	26012020	260120	100057	95.780	12.418770	-57.245025	95.720	-0.160	-0.060	1.060	95.780	-1.400	1.500																			1580032857.0	0.43	0.80
26/01/2020 10:00:58	26012020	260120	100058	95.770	12.418773	-57.245025	95.670	-0.040	-0.060	0.270	95.760	-1.400	0.700																			1580032858.0	0.55	1.02
26/01/2020 10:00:59	26012020	260120	100059	95.750	12.418777	-57.245023	95.640	0.220	-0.150	-0.520	95.750	-1.500	-0.100																			1580032859.0	0.83	1.54
26/01/2020 10:01:00	26012020	260120	100100	95.820	12.418782	-57.245022	95.750	0.370	-0.090	-1.150	95.850	-1.500	-0.700	1014.10	25.50	25.50	19.20	19.30	-1.00	68.00	68.00	377.00	24.90	357.00	6.40	93.00	5.90	44	3310.00	27.40	27.40	1580032860.0	0.98	1.81
26/01/2020 10:01:01	26012020	260120	100101	96.000	12.418785	-57.245022	95.950	0.290	0.120	-1.420	96.040	-1.300	-1.000																			1580032861.0	0.89	1.65
26/01/2020 10:01:02	26012020	260120	100102	96.190	12.418788	-57.245023	96.130	0.080	0.170	-1.190	96.210	-1.200	-0.800																			1580032862.0	0.57	1.06
26/01/2020 10:01:03	26012020	260120	100103	96.250	12.418787	-57.245023	96.160	-0.070	-0.100	-0.430	96.240	-1.400	-0.100																			1580032863.0	0.22	0.41
26/01/2020 10:01:04	26012020	260120	100104	96.120	12.418782	-57.245022	96.010	-0.110	-0.440	0.710	96.080	-1.800	1.000																			1580032864.0	0.99	1.83
26/01/2020 10:01:05	26012020	260120	100105	95.930	12.418777	-57.245022	95.880	-0.140	-0.490	1.870	95.910	-1.900	2.200																			1580032865.0	1.36	2.52
26/01/2020 10:01:06	26012020	260120	100106	95.870	12.418770	-57.245022	95.860	-0.230	-0.200	2.820	95.870	-1.700	2.900																			1580032866.0	1.34	2.48
26/01/2020 10:01:07	26012020	260120	100107	95.890	12.418765	-57.245025	95.920	-0.280	0.100	3.350	95.910	-1.300	3.700																			1580032867.0	1.23	2.28
26/01/2020 10:01:08	26012020	260120	100108	95.990	12.418762	-57.245027	96.050	-0.180	0.130	3.220	95.990	-1.200	3.800																			1580032868.0	0.75	1.39
26/01/2020 10:01:09	26012020	260120	100109	96.170	12.418762	-57.245027	96.220	0.070	-0.090	2.450	96.200	-1.400	2.900																			1580032869.0	0.08	0.15
26/01/2020 10:01:10	26012020	260120	100110	96.340	12.418765	-57.245025	96.340	0.310	-0.240	1.310	96.370	-1.600	1.800																			1580032870.0	0.88	1.63
26/01/2020 10:01:11	26012020	260120	100111	96.450	12.418772	-57.245023	96.390	0.370	-0.160	0.130	96.460	-1.500	0.600																			1580032871.0	1.35	2.50
26/01/2020 10:01:12	26012020	260120	100112	96.460	12.418778	-57.245023	96.350	0.220	0.070	-0.880	96.450	-1.300	-0.400																			1580032872.0	1.53	2.83
26/01/2020 10:01:13	26012020	260120	100113	96.440	12.418785	-57.245025	96.340	0.000	0.150	-1.550	96.440	-1.200	-1.100																			1580032873.0	1.45	2.69
26/01/2020 10:01:14	26012020	260120	100114	96.420	12.418790	-57.245025	96.320	-0.150	-0.050	-1.700	96.410	-1.400	-1.300																			1580032874.0	0.94	1.74
26/01/2020 10:01:15	26012020	260120	100115	96.370	12.418790	-57.245025	96.270	-0.180	-0.390	-1.330	96.360	-1.700	-1.000																			1580032875.0	0.17	0.31
26/01/2020 10:01:16	26012020	260120	100116	96.330	12.418788	-57.245025	96.270	-0.120	-0.620	-0.600	96.330	-2.000	-0.300																			1580032876.0	0.64	1.19
26/01/2020 10:01:17	26012020	260120	100117	96.370	12.418783	-57.245023	96.350	-0.040	-0.580	0.280	96.390	-2.000	0.600																			1580032877.0	1.10	2.04
26/01/2020 10:01:18	26012020	260120	100118	96.460	12.418777	-57.245025	96.470	0.030	-0.320	1.150	96.480	-1.700	1.500																			1580032878.0	1.28	2.37
26/01/2020 10:01:19	26012020	260120	100119	96.580	12.418772	-57.245027	96.610	0.090	0.030	1.820	96.600	-1.400	2.200																			1580032879.0	1.16	2.15
26/01/2020 10:01:20	26012020	260120	100120	96.690	12.418768	-57.245027	96.730	0.160	0.320	2.120	96.720	-1.100	2.500																			1580032880.0	0.77	1.43
26/01/2020 10:01:21	26012020	260120	100121	96.860	12.418768	-57.245028	96.910	0.170	0.500	1.920	96.900	-0.900	2.300																			1580032881.0	0.22	0.41
26/01/2020 10:01:22	26012020	260120	100122	97.110	12.418770	-57.245028	97.130	0.040	0.450	1.360	97.160	-0.900	1.800																			1580032882.0	0.54	1.00
26/01/2020 10:01:23	26012020	260120	100123	97.330	12.418773	-57.245028	97.280	-0.160	0.090	0.810	97.360	-1.300	1.200																			1580032883.0	0.76	1.41
26/01/2020 10:01:24	26012020	260120	100124	97.370	12.418775	-57.245028	97.240	-0.260	-0.480	0.490	97.350	-1.800	0.900																			1580032884.0	0.53	0.98
26/01/2020 10:01:25	26012020	260120	100125	97.210	12.418777	-57.245025	97.040	-0.180	-0.900	0.370	97.170	-2.300	0.800																			1580032885.0	0.43	0.80
26/01/2020 10:01:26	26012020	260120	100126	96.980	12.418775	-57.245025	96.820	-0.020	-0.830	0.340	96.930	-2.200	0.700																			1580032886.0	0.32	0.59
26/01/2020 10:01:27	26012020	260120	100127	96.810	12.418775	-57.245025	96.700	0.070	-0.340	0.250	96.790	-1.700	0.700																			1580032887.0	0.18	0.33
26/01/2020 10:01:28	26012020	260120	100128	96.800	12.418775	-57.245027	96.760	0.040	0.200	0.050	96.820	-1.200	0.500																			1580032888.0	0.38	0.70
26/01/2020 10:01:29	26012020	260120	100129	96.980	12.418775	-57.245028	96.990	-0.020	0.500	-0.200	97.030	-0.900	0.200																			1580032889.0	0.38	0.70
26/01/2020 10:01:30	26012020	260120	100130	97.220	12.418777	-57.245028	97.230	-0.010	0.440	-0.300	97.220	-0.900	0.100																			1580032890.0	0.20	0.37
26/01/2020 10:01:31	26012020	260120	100131	97.390	12.418777	-57.245028	97.360	0.120	0.160	-0.140	97.410	-1.200	0.200																			1580032891.0	0.11	0.20
26/01/2020 10:01:32	26012020	260120	100132	97.390	12.418775	-57.245028	97.280	0.260	-0.210	0.310	97.390	-1.400	0.500																			1580032892.0	0.30	0.56
26/01/2020 10:01:33	26012020	260120	100133	97.170	12.418773	-57.245027	97.020	0.330	-0.570	1.000	97.110	-1.900	1.400																			1580032893.0	0.51	0.94
26/01/2020 10:01:34	26012020	260120	100134	96.830	12.418770	-57.245027	96.690	0.260	-0.780	1.750	96.770	-2.100	2.100																			1580032894.0	0.66	1.22
26/01/2020 10:01:35	26012020	260120	100135	96.520	12.418767	-57.245025	96.400	0.100	-0.730	2.340	96.470	-2.100	2.700																			1580032895.0	0.65	1.20
26/01/2020 10:01:36	26012020	260120	100136	96.330	12.418765	-57.245025	96.270	-0.100	-0.430	2.630	96.310	-1.800	3.000																			1580032896.0	0.56	1.04
26/01/2020 10:01:37	26012020	260120	100137	96.280	12.418763	-57.245027	96.260	-0.260	0.010	2.500	96.280	-1.400	2.900																			1580032897.0	0.40	0.74
26/01/2020 10:01:38	26012020	260120	100138	96.320	12.418762	-57.245027	96.310	-0.340	0.420	1.910	96.350	-1.000	2.400																			1580032898.0	0.18	0.33
26/01/2020 10:01:39	26012020	260120	100139	96.430	12.418763	-57.245027	96.410	-0.320	0.660	0.990	96.450	-0.700	1.400																			1580032899.0	0.38	0.70
26/01/2020 10:01:40	26012020	260120	100140	96.520	12.418768	-57.245027	96.450	-0.250	0.670	-0.030	96.530	-0.700	0.400																			1580032900.0	0.81	1.50
26/01/2020 10:01:41	26012020	260120	100141	96.580	12.418773	-57.245027	96.490	-0.150	0.430	-0.900	96.590	-0.900	-0.400																			1580032901.0	1.04	1.93
26/01/2020 10:01:42	26012020	260120	100142	96.630	12.418777	-57.245027	96.500	-0.010	-0.030	-1.410	96.630	-1.200	-0.900																			1580032902.0	0.92	1.70
26/01/2020 10:01:43	26012020	260120	100143	96.590	12.418780	-57.245027	96.430	0.210	-0.570	-1.490	96.560	-1.900	-1.100																			1580032903.0	0.61	1.13
26/01/2020 10:01:44	26012020	260120	100144	96.420	12.418780	-57.245025	96.210	0.430	-1.000	-1.090	96.420	-2.200	-0.900																			1580032904.0	0.27	0.50
26/01/2020 10:01:45	26012020	260120	100145	96.120	12.418778	-57.245023	95.910	0.540	-1.090	-0.230	96.050	-2.500	0.100																			1580032905.0	0.48	0.89
26/01/2020 10:01:46	26012020	260120	100146	95.790	12.418773	-57.245023	95.650	0.440	-0.800	0.890	95.790	-2.300	0.800																			1580032906.0	0.95	1.76
26/01/2020 10:01:47	26012020	260120	100147	95.570	12.418768	-57.245025	95.510	0.150	-0.240	1.960	95.540	-1.600	2.300																			1580032907.0	1.17	2.17
26/01/2020 10:01:48	26012020	260120	100148	95.530	12.418763	-57.245027	95.540	-0.210	0.340	2.650	95.530	-1.200	2.800																			1580032908.0	1.14	2.11
26/01/2020 10:01:49	26012020	260120	100149	95.660	12.418760	-57.245028	95.720	-0.420	0.630	2.770	95.710	-0.700	3.200																			1580032909.0	0.85	1.57
26/01/2020 10:01:50	26012020	260120	100150	95.870	12.418758	-57.245028	95.900	-0.370	0.480	2.430	95.910	-0.900	2.800																			1580032910.0	0.31	0.57
26/01/2020 10:01:51	26012020	260120	100151	95.990	12.418758	-57.245027	95.950	-0.160	0.120	1.930	95.990	-1.200	2.400																			1580032911.0	0.40	0.74
26/01/2020 10:01:52	26012020	260120	100152	95.980	12.418760	-57.245025	95.900	0.010	-0.140	1.310	95.970	-1.500	1.800																			1580032912.0	0.62	1.15
26/01/2020 10:01:53	26012020	260120	100153	95.970	12.418765	-57.245023	95.900	0.040	-0.150	0.560	95.980	-1.500	1.000																			1580032913.0	0.80	1.48
26/01/2020 10:01:54	26012020	260120	100154	96.020	12.418768	-57.245023	95.940	-0.010	-0.050	-0.150	96.030	-1.400	0.300																			1580032914.0	0.95	1.76
26/01/2020 10:01:55	26012020	260120	100155	96.050	12.418772	-57.245025	95.960	-0.010	-0.060	-0.560	96.050	-1.400	-0.100																			1580032915.0	0.79	1.46
26/01/2020 10:01:56	26012020	260120	100156	96.050	12.418773	-57.245025	95.960	0.080	-0.270	-0.670	96.050	-1.500	-0.300																			1580032916.0	0.34	0.63
26/01/2020 10:01:57	26012020	260120	100157	96.080	12.418773	-57.245023	96.010	0.170	-0.430	-0.570	96.090	-1.800	-0.200																			1580032917.0	0.19	0.35
26/01/2020 10:01:58	26012020	260120	100158	96.140	12.418773	-57.245023	96.060	0.120	-0.310	-0.260	96.140	-1.800	-0.000																			1580032918.0	0.13	0.24
26/01/2020 10:01:59	26012020	260120	100159	96.140	12.418772	-57.245025	96.030	-0.010	-0.120	0.300	96.130	-1.500	0.600																			1580032919.0	0.41	0.76
26/01/2020 10:02:00	26012020	260120	100200	96.040	12.418768	-57.245027	95.940	-0.060	-0.150	1.040	96.020	-1.500	1.400	1014.10	25.50	25.60	19.30	19.40	-1.00	68.00	68.00	377.00	24.90	358.00	6.10	95.00	5.80	52	3417.00	27.40	27.40	1580032920.0	0.68	1.26
26/01/2020 10:02:01	26012020	260120	100201	95.930	12.418765	-57.245025	95.880	0.040	-0.350	1.700	95.920	-1.700	2.000																			1580032921.0	0.85	1.57
26/01/2020 10:02:02	26012020	260120	100202	95.890	12.418762	-57.245025	95.870	0.160	-0.390	2.070	95.890	-1.800	2.400																			1580032922.0	0.73	1.35
26/01/2020 10:02:03	26012020	260120	100203	95.940	12.418760	-57.245023	95.950	0.150	-0.130	2.150	95.970	-1.500	2.500																			1580032923.0	0.34	0.63
26/01/2020 10:02:04	26012020	260120	100204	96.090	12.418760	-57.245025	96.120	-0.020	0.200	1.950	96.130	-1.200	2.400																			1580032924.0	0.14	0.26
26/01/2020 10:02:05	26012020	260120	100205	96.250	12.418762	-57.245025	96.240	-0.180	0.310	1.530	96.270	-1.100	2.000																			1580032925.0	0.29	0.54
26/01/2020 10:02:06	26012020	260120	100206	96.320	12.418763	-57.245025	96.260	-0.190	0.160	0.970	96.320	-1.200	1.400																			1580032926.0	0.39	0.72
26/01/2020 10:02:07	26012020	260120	100207	96.330	12.418765	-57.245023	96.260	-0.110	-0.040	0.400	96.330	-1.400	0.800																			1580032927.0	0.49	0.91
26/01/2020 10:02:08	26012020	260120	100208	96.350	12.418768	-57.245023	96.270	0.020	-0.180	-0.100	96.350	-1.500	0.300																			1580032928.0	0.51	0.94
26/01/2020 10:02:09	26012020	260120	100209	96.390	12.418770	-57.245023	96.300	0.100	-0.170	-0.450	96.400	-1.500	-0.000																			1580032929.0	0.56	1.04
26/01/2020 10:02:10	26012020	260120	100210	96.420	12.418773	-57.245023	96.300	0.100	-0.140	-0.580	96.420	-1.500	-0.200																			1580032930.0	0.52	0.96
26/01/2020 10:02:11	26012020	260120	100211	96.360	12.418773	-57.245023	96.230	0.030	-0.190	-0.420	96.350	-1.600	-0.000																			1580032931.0	0.28	0.52
26/01/2020 10:02:12	26012020	260120	100212	96.260	12.418773	-57.245023	96.140	-0.110	-0.260	0.050	96.240	-1.600	0.400																			1580032932.0	0.12	0.22
26/01/2020 10:02:13	26012020	260120	100213	96.200	12.418770	-57.245023	96.120	-0.260	-0.230	0.760	96.190	-1.600	1.100																			1580032933.0	0.65	1.20
26/01/2020 10:02:14	26012020	260120	100214	96.170	12.418765	-57.245025	96.110	-0.300	-0.180	1.510	96.160	-1.500	1.900																			1580032934.0	1.05	1.94
26/01/2020 10:02:15	26012020	260120	100215	96.110	12.418762	-57.245025	96.020	-0.130	-0.230	2.080	96.080	-1.600	2.400																			1580032935.0	1.03	1.91
26/01/2020 10:02:16	26012020	260120	100216	95.970	12.418758	-57.245025	95.890	0.190	-0.340	2.280	95.940	-1.700	2.700																			1580032936.0	0.63	1.17
26/01/2020 10:02:17	26012020	260120	100217	95.860	12.418758	-57.245025	95.810	0.460	-0.290	2.060	95.850	-1.700	2.500																			1580032937.0	0.26	0.48
26/01/2020 10:02:18	26012020	260120	100218	95.860	12.418760	-57.245023	95.830	0.490	-0.070	1.540	95.870	-1.500	2.000																			1580032938.0	0.58	1.07
26/01/2020 10:02:19	26012020	260120	100219	95.920	12.418765	-57.245023	95.880	0.250	0.180	0.940	95.940	-1.200	1.400																			1580032939.0	0.88	1.63
26/01/2020 10:02:20	26012020	260120	100220	95.990	12.418768	-57.245023	95.940	-0.120	0.370	0.390	95.990	-1.100	1.000																			1580032940.0	0.87	1.61
26/01/2020 10:02:21	26012020	260120	100221	96.090	12.418772	-57.245025	96.030	-0.400	0.430	-0.050	96.110	-0.900	0.400																			1580032941.0	0.64	1.19
26/01/2020 10:02:22	26012020	260120	100222	96.130	12.418772	-57.245025	95.990	-0.460	0.180	-0.230	96.130	-1.100	0.200																			1580032942.0	0.25	0.46
26/01/2020 10:02:23	26012020	260120	100223	95.960	12.418772	-57.245025	95.760	-0.270	-0.370	-0.080	95.910	-1.700	0.300																			1580032943.0	0.28	0.52
26/01/2020 10:02:24	26012020	260120	100224	95.650	12.418768	-57.245023	95.440	0.030	-0.860	0.280	95.590	-2.200	0.600																			1580032944.0	0.62	1.15
26/01/2020 10:02:25	26012020	260120	100225	95.350	12.418767	-57.245022	95.180	0.210	-0.910	0.670	95.310	-2.300	1.000																			1580032945.0	0.56	1.04
26/01/2020 10:02:26	26012020	260120	100226	95.210	12.418767	-57.245022	95.130	0.150	-0.500	0.900	95.210	-1.900	1.300																			1580032946.0	0.23	0.43
26/01/2020 10:02:27	26012020	260120	100227	95.220	12.418765	-57.245023	95.150	-0.050	0.100	1.020	95.220	-1.300	1.400																			1580032947.0	0.37	0.69
26/01/2020 10:02:28	26012020	260120	100228	95.210	12.418765	-57.245025	95.140	-0.220	0.530	1.130	95.210	-0.900	1.500																			1580032948.0	0.42	0.78
26/01/2020 10:02:29	26012020	260120	100229	95.200	12.418765	-57.245027	95.140	-0.200	0.560	1.150	95.200	-0.800	1.500																			1580032949.0	0.21	0.39
26/01/2020 10:02:30	26012020	260120	100230	95.220	12.418765	-57.245025	95.150	0.020	0.220	1.050	95.220	-1.100	1.500																			1580032950.0	0.16	0.30
26/01/2020 10:02:31	26012020	260120	100231	95.240	12.418767	-57.245023	95.180	0.320	-0.210	0.860	95.250	-1.600	1.300																			1580032951.0	0.46	0.85
26/01/2020 10:02:32	26012020	260120	100232	95.330	12.418768	-57.245022	95.290	0.500	-0.440	0.570	95.360	-1.800	1.000																			1580032952.0	0.53	0.98
26/01/2020 10:02:33	26012020	260120	100233	95.470	12.418770	-57.245022	95.400	0.420	-0.380	0.380	95.480	-1.800	0.800																			1580032953.0	0.46	0.85
26/01/2020 10:02:34	26012020	260120	100234	95.490	12.418772	-57.245022	95.390	0.150	-0.190	0.470	95.490	-1.600	0.800																			1580032954.0	0.35	0.65
26/01/2020 10:02:35	26012020	260120	100235	95.400	12.418772	-57.245023	95.300	-0.140	-0.080	0.720	95.380	-1.500	1.100																			1580032955.0	0.29	0.54
26/01/2020 10:02:36	26012020	260120	100236	95.260	12.418770	-57.245025	95.150	-0.330	-0.120	0.980	95.230	-1.500	1.400																			1580032956.0	0.29	0.54
26/01/2020 10:02:37	26012020	260120	100237	95.080	12.418768	-57.245023	94.960	-0.380	-0.270	1.240	95.040	-1.600	1.600																			1580032957.0	0.33	0.61
26/01/2020 10:02:38	26012020	260120	100238	94.890	12.418767	-57.245023	94.780	-0.370	-0.380	1.450	94.860	-1.700	1.800																			1580032958.0	0.43	0.80
26/01/2020 10:02:39	26012020	260120	100239	94.760	12.418765	-57.245022	94.680	-0.360	-0.280	1.570	94.740	-1.700	2.000																			1580032959.0	0.45	0.83
26/01/2020 10:02:40	26012020	260120	100240	94.740	12.418763	-57.245022	94.730	-0.310	-0.000	1.420	94.750	-1.400	1.800																			1580032960.0	0.28	0.52
26/01/2020 10:02:41	26012020	260120	100241	94.860	12.418763	-57.245023	94.880	-0.140	0.300	0.940	94.900	-1.100	1.400																			1580032961.0	0.19	0.35
26/01/2020 10:02:42	26012020	260120	100242	95.070	12.418767	-57.245023	95.090	0.140	0.390	0.220	95.120	-1.000	0.700																			1580032962.0	0.57	1.06
26/01/2020 10:02:43	26012020	260120	100243	95.300	12.418770	-57.245023	95.280	0.490	0.150	-0.490	95.340	-1.200	-0.000																			1580032963.0	0.87	1.61
26/01/2020 10:02:44	26012020	260120	100244	95.440	12.418775	-57.245022	95.360	0.770	-0.200	-0.940	95.460	-1.500	-0.500																			1580032964.0	1.08	2.00
26/01/2020 10:02:45	26012020	260120	100245	95.470	12.418780	-57.245020	95.360	0.830	-0.440	-0.970	95.470	-1.800	-0.600																			1580032965.0	1.03	1.91
26/01/2020 10:02:46	26012020	260120	100246	95.440	12.418783	-57.245020	95.300	0.590	-0.530	-0.530	95.440	-1.900	-0.400																			1580032966.0	0.63	1.17
26/01/2020 10:02:47	26012020	260120	100247	95.350	12.418783	-57.245020	95.200	0.100	-0.480	0.350	95.320	-1.900	0.700																			1580032967.0	0.09	0.17
26/01/2020 10:02:48	26012020	260120	100248	95.140	12.418778	-57.245020	94.990	-0.470	-0.270	1.500	95.140	-1.800	1.400																			1580032968.0	0.87	1.61
26/01/2020 10:02:49	26012020	260120	100249	94.900	12.418772	-57.245022	94.810	-0.890	0.010	2.600	94.870	-1.400	2.900																			1580032969.0	1.46	2.70
26/01/2020 10:02:50	26012020	260120	100250	94.800	12.418765	-57.245023	94.810	-1.020	0.170	3.320	94.800	-1.200	3.700																			1580032970.0	1.64	3.04
26/01/2020 10:02:51	26012020	260120	100251	94.900	12.418758	-57.245023	94.970	-0.860	0.130	3.390	94.930	-1.200	3.800																			1580032971.0	1.30	2.41
26/01/2020 10:02:52	26012020	260120	100252	95.150	12.418757	-57.245023	95.250	-0.500	0.030	2.710	95.220	-1.300	3.200																			1580032972.0	0.53	0.98
26/01/2020 10:02:53	26012020	260120	100253	95.450	12.418758	-57.245022	95.470	-0.020	-0.000	1.520	95.500	-1.400	2.000																			1580032973.0	0.42	0.78
26/01/2020 10:02:54	26012020	260120	100254	95.590	12.418763	-57.245022	95.500	0.490	0.050	0.150	95.590	-1.300	0.600																			1580032974.0	1.25	2.31
26/01/2020 10:02:55	26012020	260120	100255	95.570	12.418772	-57.245022	95.450	0.890	0.030	-1.170	95.560	-1.300	-0.700																			1580032975.0	1.91	3.54
26/01/2020 10:02:56	26012020	260120	100256	95.550	12.418783	-57.245022	95.450	1.000	-0.210	-2.130	95.550	-1.600	-1.700																			1580032976.0	2.20	4.07
26/01/2020 10:02:57	26012020	260120	100257	95.580	12.418790	-57.245020	95.460	0.790	-0.540	-2.430	95.580	-1.900	-2.000																			1580032977.0	1.82	3.37
26/01/2020 10:02:58	26012020	260120	100258	95.580	12.418795	-57.245018	95.430	0.390	-0.730	-1.900	95.570	-2.100	-1.500																			1580032978.0	0.90	1.67
26/01/2020 10:02:59	26012020	260120	100259	95.460	12.418793	-57.245017	95.320	-0.050	-0.650	-0.560	95.420	-2.000	-0.200																			1580032979.0	0.46	0.85
26/01/2020 10:03:00	26012020	260120	100300	95.250	12.418785	-57.245018	95.150	-0.430	-0.320	1.180	95.210	-1.700	1.500	1014.10	25.50	25.60	19.50	19.60	0.00	69.00	69.00	378.00	24.90	358.00	6.90	94.00	6.60	61	3260.00	27.40	27.40	1580032980.0	1.65	3.06
26/01/2020 10:03:01	26012020	260120	100301	95.080	12.418775	-57.245020	95.050	-0.690	0.160	2.800	95.060	-1.200	3.100																			1580032981.0	2.27	4.20
26/01/2020 10:03:02	26012020	260120	100302	95.050	12.418765	-57.245022	95.110	-0.770	0.560	3.840	95.050	-1.000	3.900																			1580032982.0	2.18	4.04
26/01/2020 10:03:03	26012020	260120	100303	95.260	12.418758	-57.245023	95.410	-0.660	0.670	3.970	95.330	-0.700	4.400																			1580032983.0	1.43	2.65
26/01/2020 10:03:04	26012020	260120	100304	95.610	12.418757	-57.245023	95.740	-0.370	0.460	3.310	95.680	-0.900	3.800																			1580032984.0	0.35	0.65
26/01/2020 10:03:05	26012020	260120	100305	95.880	12.418760	-57.245022	95.930	-0.020	0.070	2.080	95.920	-1.300	2.600																			1580032985.0	0.69	1.28
26/01/2020 10:03:06	26012020	260120	100306	96.010	12.418767	-57.245020	95.970	0.300	-0.260	0.570	96.020	-1.600	1.100																			1580032986.0	1.46	2.70
26/01/2020 10:03:07	26012020	260120	100307	96.040	12.418775	-57.245020	95.950	0.530	-0.480	-0.880	96.040	-1.800	-0.400																			1580032987.0	1.95	3.61
26/01/2020 10:03:08	26012020	260120	100308	96.000	12.418785	-57.245020	95.860	0.620	-0.730	-1.940	95.980	-2.100	-1.500																			1580032988.0	2.02	3.74
26/01/2020 10:03:09	26012020	260120	100309	95.870	12.418792	-57.245018	95.670	0.540	-0.950	-2.350	95.820	-2.300	-1.900																			1580032989.0	1.58	2.93
26/01/2020 10:03:10	26012020	260120	100310	95.630	12.418795	-57.245017	95.440	0.290	-0.870	-2.000	95.630	-2.300	-1.800																			1580032990.0	0.74	1.37
26/01/2020 10:03:11	26012020	260120	100311	95.380	12.418793	-57.245017	95.240	-0.060	-0.370	-1.040	95.350	-1.800	-0.700																			1580032991.0	0.32	0.59
26/01/2020 10:03:12	26012020	260120	100312	95.290	12.418788	-57.245018	95.230	-0.390	0.320	0.150	95.290	-1.300	0.100																			1580032992.0	1.16	2.15
26/01/2020 10:03:13	26012020	260120	100313	95.380	12.418782	-57.245020	95.400	-0.530	0.750	1.270	95.410	-0.600	1.600																			1580032993.0	1.56	2.89
26/01/2020 10:03:14	26012020	260120	100314	95.540	12.418775	-57.245022	95.590	-0.380	0.680	2.160	95.580	-0.700	2.500																			1580032994.0	1.51	2.80
26/01/2020 10:03:15	26012020	260120	100315	95.700	12.418768	-57.245020	95.730	-0.070	0.290	2.690	95.730	-1.100	3.100																			1580032995.0	1.23	2.28
26/01/2020 10:03:16	26012020	260120	100316	95.860	12.418767	-57.245018	95.870	0.200	-0.090	2.740	95.890	-1.400	3.100																			1580032996.0	0.70	1.30
26/01/2020 10:03:17	26012020	260120	100317	95.970	12.418767	-57.245018	95.940	0.300	-0.270	2.400	95.980	-1.600	2.800																			1580032997.0	0.19	0.35
26/01/2020 10:03:18	26012020	260120	100318	95.980	12.418768	-57.245018	95.880	0.250	-0.260	1.810	95.960	-1.600	2.300																			1580032998.0	0.60	1.11
26/01/2020 10:03:19	26012020	260120	100319	95.870	12.418773	-57.245020	95.720	0.120	-0.190	1.080	95.840	-1.600	1.500																			1580032999.0	0.97	1.80
26/01/2020 10:03:20	26012020	260120	100320	95.710	12.418778	-57.245020	95.540	-0.040	-0.260	0.340	95.680	-1.600	0.800																			1580033000.0	1.09	2.02
26/01/2020 10:03:21	26012020	260120	100321	95.500	12.418783	-57.245020	95.310	-0.170	-0.470	-0.250	95.460	-1.800	0.200																			1580033001.0	0.94	1.74
26/01/2020 10:03:22	26012020	260120	100322	95.300	12.418787	-57.245020	95.140	-0.260	-0.590	-0.650	95.300	-1.900	-0.100																			1580033002.0	0.72	1.33
26/01/2020 10:03:23	26012020	260120	100323	95.190	12.418787	-57.245018	95.060	-0.260	-0.480	-0.780	95.170	-1.900	-0.400																			1580033003.0	0.34	0.63
26/01/2020 10:03:24	26012020	260120	100324	95.130	12.418787	-57.245018	95.040	-0.170	-0.220	-0.720	95.130	-1.700	-0.400																			1580033004.0	0.12	0.22
26/01/2020 10:03:25	26012020	260120	100325	95.150	12.418785	-57.245020	95.100	-0.030	0.070	-0.590	95.160	-1.300	-0.200																			1580033005.0	0.30	0.56
26/01/2020 10:03:26	26012020	260120	100326	95.240	12.418785	-57.245020	95.200	0.130	0.250	-0.410	95.240	-1.200	-0.100																			1580033006.0	0.23	0.43
26/01/2020 10:03:27	26012020	260120	100327	95.330	12.418785	-57.245020	95.290	0.260	0.360	-0.100	95.340	-1.000	0.300																			1580033007.0	0.11	0.20
26/01/2020 10:03:28	26012020	260120	100328	95.420	12.418783	-57.245020	95.400	0.300	0.370	0.260	95.430	-1.000	0.600																			1580033008.0	0.13	0.24
26/01/2020 10:03:29	26012020	260120	100329	95.510	12.418783	-57.245022	95.490	0.230	0.200	0.700	95.520	-1.200	1.100																			1580033009.0	0.22	0.41
26/01/2020 10:03:30	26012020	260120	100330	95.540	12.418782	-57.245022	95.480	0.100	-0.210	1.240	95.530	-1.600	1.600																			1580033010.0	0.40	0.74
26/01/2020 10:03:31	26012020	260120	100331	95.480	12.418778	-57.245020	95.400	-0.010	-0.610	1.790	95.460	-2.000	2.200																			1580033011.0	0.68	1.26
26/01/2020 10:03:32	26012020	260120	100332	95.410	12.418775	-57.245020	95.330	-0.110	-0.620	2.170	95.400	-2.000	2.500																			1580033012.0	0.72	1.33
26/01/2020 10:03:33	26012020	260120	100333	95.360	12.418773	-57.245022	95.260	-0.220	-0.330	2.250	95.350	-1.700	2.600																			1580033013.0	0.59	1.09
26/01/2020 10:03:34	26012020	260120	100334	95.280	12.418772	-57.245023	95.170	-0.290	-0.080	2.000	95.280	-1.500	2.500																			1580033014.0	0.42	0.78
26/01/2020 10:03:35	26012020	260120	100335	95.190	12.418772	-57.245023	95.080	-0.290	-0.020	1.520	95.180	-1.400	1.900																			1580033015.0	0.18	0.33
26/01/2020 10:03:36	26012020	260120	100336	95.160	12.418773	-57.245023	95.080	-0.190	-0.060	0.860	95.160	-1.400	1.500																			1580033016.0	0.33	0.61
26/01/2020 10:03:37	26012020	260120	100337	95.210	12.418777	-57.245022	95.130	-0.040	-0.090	0.140	95.220	-1.500	0.600																			1580033017.0	0.59	1.09
26/01/2020 10:03:38	26012020	260120	100338	95.250	12.418780	-57.245022	95.150	0.130	-0.060	-0.550	95.250	-1.500	0.100																			1580033018.0	0.80	1.48
26/01/2020 10:03:39	26012020	260120	100339	95.270	12.418783	-57.245020	95.150	0.250	0.020	-1.050	95.270	-1.400	-0.600																			1580033019.0	0.94	1.74
26/01/2020 10:03:40	26012020	260120	100340	95.260	12.418787	-57.245020	95.160	0.320	0.050	-1.150	95.260	-1.300	-0.700																			1580033020.0	0.75	1.39
26/01/2020 10:03:41	26012020	260120	100341	95.300	12.418788	-57.245020	95.230	0.350	-0.000	-0.820	95.310	-1.400	-0.400																			1580033021.0	0.26	0.48
26/01/2020 10:03:42	26012020	260120	100342	95.370	12.418787	-57.245020	95.310	0.300	-0.100	-0.080	95.380	-1.500	0.300																			1580033022.0	0.26	0.48
26/01/2020 10:03:43	26012020	260120	100343	95.390	12.418785	-57.245020	95.310	0.150	-0.240	0.890	95.380	-1.600	1.200																			1580033023.0	0.71	1.31
26/01/2020 10:03:44	26012020	260120	100344	95.290	12.418780	-57.245020	95.170	-0.080	-0.390	1.930	95.240	-1.700	2.300																			1580033024.0	1.01	1.87
26/01/2020 10:03:45	26012020	260120	100345	95.060	12.418773	-57.245020	94.960	-0.270	-0.450	2.830	95.020	-1.800	3.200																			1580033025.0	1.18	2.19
26/01/2020 10:03:46	26012020	260120	100346	94.880	12.418768	-57.245020	94.850	-0.360	-0.330	3.350	94.870	-1.700	3.700																			1580033026.0	1.14	2.11
26/01/2020 10:03:47	26012020	260120	100347	94.890	12.418765	-57.245022	94.930	-0.350	-0.000	3.310	94.920	-1.400	3.700																			1580033027.0	0.78	1.44
26/01/2020 10:03:48	26012020	260120	100348	95.060	12.418765	-57.245022	95.110	-0.280	0.330	2.670	95.060	-1.200	3.400																			1580033028.0	0.30	0.56
26/01/2020 10:03:49	26012020	260120	100349	95.250	12.418767	-57.245023	95.250	-0.160	0.420	1.510	95.270	-1.000	2.000																			1580033029.0	0.65	1.20
26/01/2020 10:03:50	26012020	260120	100350	95.370	12.418773	-57.245023	95.340	0.010	0.140	0.120	95.370	-1.100	1.100																			1580033030.0	1.25	2.31
26/01/2020 10:03:51	26012020	260120	100351	95.500	12.418780	-57.245022	95.430	0.210	-0.270	-1.160	95.520	-1.600	-0.700																			1580033031.0	1.63	3.02
26/01/2020 10:03:52	26012020	260120	100352	95.540	12.418788	-57.245018	95.390	0.350	-0.580	-1.940	95.530	-1.900	-1.500																			1580033032.0	1.57	2.91
26/01/2020 10:03:53	26012020	260120	100353	95.410	12.418792	-57.245018	95.210	0.360	-0.630	-2.050	95.370	-2.000	-1.700																			1580033033.0	1.06	1.96
26/01/2020 10:03:54	26012020	260120	100354	95.190	12.418793	-57.245018	95.010	0.260	-0.460	-1.570	95.150	-1.800	-1.200																			1580033034.0	0.32	0.59
26/01/2020 10:03:55	26012020	260120	100355	95.020	12.418792	-57.245018	94.930	0.110	-0.210	-0.690	95.000	-1.600	-0.400																			1580033035.0	0.41	0.76
26/01/2020 10:03:56	26012020	260120	100356	95.040	12.418788	-57.245020	95.080	-0.060	0.050	0.260	95.080	-1.300	0.600																			1580033036.0	0.94	1.74
26/01/2020 10:03:57	26012020	260120	100357	95.310	12.418782	-57.245020	95.420	-0.230	0.270	1.160	95.380	-1.100	1.500																			1580033037.0	1.17	2.17
26/01/2020 10:03:58	26012020	260120	100358	95.640	12.418777	-57.245022	95.730	-0.360	0.360	1.980	95.690	-1.000	2.300																			1580033038.0	1.25	2.31
26/01/2020 10:03:59	26012020	260120	100359	95.840	12.418772	-57.245022	95.890	-0.380	0.220	2.570	95.870	-1.100	2.900																			1580033039.0	1.12	2.07
26/01/2020 10:04:00	26012020	260120	100400	95.940	12.418768	-57.245022	95.970	-0.240	-0.060	2.770	95.940	-1.300	3.100	1014.10	25.50	25.60	19.60	19.70	0.00	69.00	70.00	378.00	24.90	356.00	6.60	91.00	6.20	73	3296.00	27.40	27.40	1580033040.0	0.74	1.37
26/01/2020 10:04:01	26012020	260120	100401	96.020	12.418767	-57.245022	96.040	-0.010	-0.300	2.570	96.030	-1.700	3.000																			1580033041.0	0.29	0.54
26/01/2020 10:04:02	26012020	260120	100402	96.100	12.418768	-57.245022	96.090	0.160	-0.420	2.070	96.100	-1.700	2.700																			1580033042.0	0.19	0.35
26/01/2020 10:04:03	26012020	260120	100403	96.130	12.418770	-57.245022	96.090	0.180	-0.380	1.370	96.140	-1.800	1.800																			1580033043.0	0.60	1.11
26/01/2020 10:04:04	26012020	260120	100404	96.150	12.418775	-57.245022	96.070	0.090	-0.210	0.510	96.150	-1.600	1.000																			1580033044.0	0.94	1.74
26/01/2020 10:04:05	26012020	260120	100405	96.170	12.418780	-57.245023	96.090	-0.010	-0.020	-0.350	96.190	-1.400	0.100																			1580033045.0	1.13	2.09
26/01/2020 10:04:06	26012020	260120	100406	96.250	12.418785	-57.245023	96.180	-0.010	0.020	-0.980	96.260	-1.300	-0.500																			1580033046.0	1.05	1.94
26/01/2020 10:04:07	26012020	260120	100407	96.350	12.418788	-57.245023	96.290	0.040	-0.120	-1.190	96.380	-1.500	-0.800																			1580033047.0	0.66	1.22
26/01/2020 10:04:08	26012020	260120	100408	96.440	12.418788	-57.245023	96.360	0.100	-0.380	-0.950	96.450	-1.700	-0.600																			1580033048.0	0.14	0.26
26/01/2020 10:04:09	26012020	260120	100409	96.440	12.418787	-57.245022	96.340	0.120	-0.510	-0.370	96.430	-1.900	-0.000																			1580033049.0	0.52	0.96
26/01/2020 10:04:10	26012020	260120	100410	96.380	12.418782	-57.245022	96.290	0.070	-0.300	0.410	96.370	-1.700	0.800																			1580033050.0	0.77	1.43
26/01/2020 10:04:11	26012020	260120	100411	96.350	12.418778	-57.245023	96.300	-0.010	0.120	1.210	96.360	-1.300	1.600																			1580033051.0	0.89	1.65
26/01/2020 10:04:12	26012020	260120	100412	96.410	12.418775	-57.245025	96.410	-0.070	0.400	1.830	96.410	-1.000	2.000																			1580033052.0	0.88	1.63
26/01/2020 10:04:13	26012020	260120	100413	96.580	12.418772	-57.245027	96.610	-0.110	0.420	2.080	96.630	-0.900	2.500																			1580033053.0	0.62	1.15
26/01/2020 10:04:14	26012020	260120	100414	96.780	12.418772	-57.245027	96.770	-0.120	0.220	2.010	96.780	-1.000	2.500																			1580033054.0	0.24	0.44
26/01/2020 10:04:15	26012020	260120	100415	96.860	12.418772	-57.245027	96.790	-0.100	-0.080	1.800	96.860	-1.400	2.200																			1580033055.0	0.11	0.20
26/01/2020 10:04:16	26012020	260120	100416	96.820	12.418773	-57.245027	96.720	-0.030	-0.370	1.510	96.820	-1.600	2.100																			1580033056.0	0.31	0.57
26/01/2020 10:04:17	26012020	260120	100417	96.760	12.418775	-57.245025	96.630	0.030	-0.560	1.150	96.740	-1.900	1.600																			1580033057.0	0.37	0.69
26/01/2020 10:04:18	26012020	260120	100418	96.640	12.418777	-57.245025	96.490	0.040	-0.640	0.810	96.610	-2.000	1.200																			1580033058.0	0.35	0.65
26/01/2020 10:04:19	26012020	260120	100419	96.510	12.418778	-57.245025	96.360	-0.010	-0.520	0.420	96.490	-1.900	0.900																			1580033059.0	0.32	0.59
26/01/2020 10:04:20	26012020	260120	100420	96.410	12.418780	-57.245025	96.250	-0.090	-0.170	0.070	96.380	-1.600	0.500																			1580033060.0	0.36	0.67
26/01/2020 10:04:21	26012020	260120	100421	96.320	12.418782	-57.245025	96.180	-0.170	0.210	-0.200	96.310	-1.200	0.200																			1580033061.0	0.39	0.72
26/01/2020 10:04:22	26012020	260120	100422	96.330	12.418782	-57.245027	96.250	-0.140	0.340	-0.410	96.350	-1.000	0.000																			1580033062.0	0.30	0.56
26/01/2020 10:04:23	26012020	260120	100423	96.450	12.418783	-57.245025	96.390	0.020	0.120	-0.530	96.480	-1.200	-0.100																			1580033063.0	0.17	0.31
26/01/2020 10:04:24	26012020	260120	100424	96.600	12.418783	-57.245023	96.560	0.240	-0.210	-0.520	96.600	-1.400	-0.100																			1580033064.0	0.42	0.78
26/01/2020 10:04:25	26012020	260120	100425	96.730	12.418783	-57.245022	96.680	0.340	-0.300	-0.330	96.750	-1.700	0.100																			1580033065.0	0.41	0.76
26/01/2020 10:04:26	26012020	260120	100426	96.830	12.418783	-57.245022	96.790	0.260	-0.090	0.110	96.830	-1.600	0.300																			1580033066.0	0.05	0.09
26/01/2020 10:04:27	26012020	260120	100427	96.920	12.418782	-57.245023	96.890	0.050	0.190	0.750	96.940	-1.200	1.100																			1580033067.0	0.46	0.85
26/01/2020 10:04:28	26012020	260120	100428	96.980	12.418778	-57.245025	96.940	-0.150	0.250	1.490	96.980	-1.100	1.600																			1580033068.0	0.77	1.43
26/01/2020 10:04:29	26012020	260120	100429	96.940	12.418775	-57.245027	96.850	-0.260	-0.030	2.190	96.910	-1.400	2.500																			1580033069.0	0.86	1.59
26/01/2020 10:04:30	26012020	260120	100430	96.750	12.418770	-57.245027	96.640	-0.240	-0.560	2.700	96.750	-1.700	2.900																			1580033070.0	0.92	1.70
26/01/2020 10:04:31	26012020	260120	100431	96.540	12.418767	-57.245023	96.440	-0.150	-0.940	2.870	96.500	-2.300	3.300																			1580033071.0	0.89	1.65
26/01/2020 10:04:32	26012020	260120	100432	96.400	12.418765	-57.245022	96.310	-0.030	-0.850	2.620	96.380	-2.200	3.000																			1580033072.0	0.58	1.07
26/01/2020 10:04:33	26012020	260120	100433	96.320	12.418765	-57.245022	96.250	0.070	-0.260	1.900	96.320	-1.700	2.400																			1580033073.0	0.12	0.22
26/01/2020 10:04:34	26012020	260120	100434	96.330	12.418770	-57.245023	96.260	0.100	0.470	0.750	96.350	-0.900	1.200																			1580033074.0	0.93	1.72
26/01/2020 10:04:35	26012020	260120	100435	96.430	12.418777	-57.245025	96.370	0.090	0.810	-0.610	96.470	-0.600	-0.100																			1580033075.0	1.53	2.83
26/01/2020 10:04:36	26012020	260120	100436	96.590	12.418785	-57.245025	96.500	0.100	0.580	-1.770	96.590	-0.600	-0.900																			1580033076.0	1.70	3.15
26/01/2020 10:04:37	26012020	260120	100437	96.710	12.418790	-57.245022	96.610	0.100	0.030	-2.350	96.730	-1.300	-1.900																			1580033077.0	1.46	2.70
26/01/2020 10:04:38	26012020	260120	100438	96.770	12.418793	-57.245020	96.660	0.050	-0.440	-2.140	96.770	-1.800	-1.800																			1580033078.0	0.80	1.48
26/01/2020 10:04:39	26012020	260120	100439	96.730	12.418792	-57.245020	96.590	-0.080	-0.580	-1.230	96.710	-1.900	-0.900																			1580033079.0	0.32	0.59
26/01/2020 10:04:40	26012020	260120	100440	96.560	12.418787	-57.245020	96.420	-0.160	-0.540	0.130	96.520	-1.900	0.400																			1580033080.0	1.23	2.28
26/01/2020 10:04:41	26012020	260120	100441	96.310	12.418778	-57.245022	96.170	-0.100	-0.530	1.660	96.250	-1.900	2.000																			1580033081.0	1.82	3.37
26/01/2020 10:04:42	26012020	260120	100442	95.990	12.418770	-57.245023	95.900	0.060	-0.540	2.990	95.940	-1.900	3.300																			1580033082.0	1.90	3.52
26/01/2020 10:04:43	26012020	260120	100443	95.780	12.418763	-57.245022	95.760	0.150	-0.330	3.670	95.760	-1.700	4.000																			1580033083.0	1.46	2.70
26/01/2020 10:04:44	26012020	260120	100444	95.770	12.418760	-57.245023	95.800	0.060	0.220	3.480	95.780	-1.200	3.900																			1580033084.0	0.53	0.98
26/01/2020 10:04:45	26012020	260120	100445	95.920	12.418763	-57.245025	95.970	-0.160	0.770	2.560	95.960	-0.600	3.000																			1580033085.0	0.62	1.15
26/01/2020 10:04:46	26012020	260120	100446	96.100	12.418768	-57.245027	96.090	-0.260	0.770	1.300	96.120	-0.600	1.800																			1580033086.0	1.19	2.20
26/01/2020 10:04:47	26012020	260120	100447	96.190	12.418775	-57.245025	96.120	-0.120	0.120	-0.010	96.200	-1.200	0.500																			1580033087.0	1.40	2.59
26/01/2020 10:04:48	26012020	260120	100448	96.220	12.418780	-57.245022	96.120	0.170	-0.690	-1.160	96.220	-2.000	-0.700																			1580033088.0	1.55	2.87
26/01/2020 10:04:49	26012020	260120	100449	96.160	12.418785	-57.245018	96.000	0.380	-1.020	-1.870	96.140	-2.400	-1.400																			1580033089.0	1.33	2.46
26/01/2020 10:04:50	26012020	260120	100450	95.970	12.418788	-57.245018	95.780	0.340	-0.730	-2.000	95.970	-2.300	-1.600																			1580033090.0	0.72	1.33
26/01/2020 10:04:51	26012020	260120	100451	95.750	12.418790	-57.245020	95.610	0.080	-0.160	-1.620	95.720	-1.600	-1.200																			1580033091.0	0.42	0.78
26/01/2020 10:04:52	26012020	260120	100452	95.640	12.418788	-57.245022	95.570	-0.270	0.300	-0.890	95.640	-1.200	-0.800																			1580033092.0	0.67	1.24
26/01/2020 10:04:53	26012020	260120	100453	95.670	12.418783	-57.245025	95.680	-0.500	0.490	0.010	95.690	-0.900	0.400																			1580033093.0	0.93	1.72
26/01/2020 10:04:54	26012020	260120	100454	95.830	12.418778	-57.245025	95.880	-0.470	0.310	0.960	95.860	-1.000	1.300																			1580033094.0	1.15	2.13
26/01/2020 10:04:55	26012020	260120	100455	95.990	12.418773	-57.245025	96.010	-0.190	-0.140	1.890	96.010	-1.500	2.200																			1580033095.0	1.33	2.46
26/01/2020 10:04:56	26012020	260120	100456	96.010	12.418767	-57.245023	95.970	0.140	-0.540	2.680	95.990	-1.900	3.000																			1580033096.0	1.38	2.56
26/01/2020 10:04:57	26012020	260120	100457	95.860	12.418762	-57.245023	95.790	0.350	-0.580	3.150	95.820	-2.000	3.500																			1580033097.0	1.10	2.04
26/01/2020 10:04:58	26012020	260120	100458	95.700	12.418760	-57.245023	95.670	0.400	-0.240	3.030	95.690	-1.600	3.400																			1580033098.0	0.45	0.83
26/01/2020 10:04:59	26012020	260120	100459	95.680	12.418762	-57.245025	95.680	0.350	0.200	2.280	95.690	-1.200	2.700																			1580033099.0	0.65	1.20
26/01/2020 10:05:00	26012020	260120	100500	95.760	12.418767	-57.245027	95.740	0.270	0.350	1.130	95.770	-1.000	1.600	1014.10	25.50	25.60	19.60	19.60	1.00	69.00	69.00	378.00	24.90	3.00	6.40	100.00	6.00	88	3387.00	27.40	27.40	1580033100.0	1.31	2.43
26/01/2020 10:05:01	26012020	260120	100501	95.820	12.418775	-57.245027	95.760	0.140	0.090	-0.020	95.820	-1.300	0.500																			1580033101.0	1.54	2.85
26/01/2020 10:05:02	26012020	260120	100502	95.820	12.418780	-57.245027	95.730	-0.050	-0.340	-0.870	95.810	-1.700	-0.400																			1580033102.0	1.36	2.52
26/01/2020 10:05:03	26012020	260120	100503	95.750	12.418785	-57.245025	95.630	-0.260	-0.630	-1.200	95.730	-2.000	-0.800																			1580033103.0	0.86	1.59
26/01/2020 10:05:04	26012020	260120	100504	95.600	12.418785	-57.245023	95.490	-0.370	-0.630	-1.020	95.600	-2.000	-0.700																			1580033104.0	0.16	0.30
26/01/2020 10:05:05	26012020	260120	100505	95.470	12.418782	-57.245025	95.400	-0.370	-0.350	-0.500	95.460	-1.700	-0.100																			1580033105.0	0.53	0.98
26/01/2020 10:05:06	26012020	260120	100506	95.400	12.418778	-57.245025	95.360	-0.300	0.070	0.210	95.400	-1.500	0.300																			1580033106.0	0.97	1.80
26/01/2020 10:05:07	26012020	260120	100507	95.370	12.418773	-57.245028	95.360	-0.170	0.410	0.890	95.370	-1.000	1.200																			1580033107.0	1.14	2.11
26/01/2020 10:05:08	26012020	260120	100508	95.390	12.418770	-57.245028	95.410	0.020	0.520	1.330	95.410	-0.900	1.700																			1580033108.0	0.87	1.61
26/01/2020 10:05:09	26012020	260120	100509	95.480	12.418768	-57.245030	95.520	0.260	0.330	1.450	95.500	-1.000	1.800																			1580033109.0	0.27	0.50
26/01/2020 10:05:10	26012020	260120	100510	95.590	12.418770	-57.245028	95.620	0.480	-0.070	1.360	95.600	-1.400	1.800																			1580033110.0	0.31	0.57
26/01/2020 10:05:11	26012020	260120	100511	95.660	12.418772	-57.245027	95.670	0.550	-0.470	1.250	95.660	-1.800	1.700																			1580033111.0	0.57	1.06
26/01/2020 10:05:12	26012020	260120	100512	95.680	12.418773	-57.245027	95.650	0.410	-0.660	1.150	95.670	-2.000	1.600																			1580033112.0	0.49	0.91
26/01/2020 10:05:13	26012020	260120	100513	95.610	12.418775	-57.245025	95.560	0.100	-0.610	1.110	95.590	-2.000	1.500																			1580033113.0	0.29	0.54
26/01/2020 10:05:14	26012020	260120	100514	95.480	12.418775	-57.245027	95.430	-0.200	-0.400	1.100	95.480	-1.900	1.500																			1580033114.0	0.10	0.19
26/01/2020 10:05:15	26012020	260120	100515	95.400	12.418775	-57.245027	95.400	-0.400	-0.110	1.010	95.400	-1.500	1.400																			1580033115.0	0.16	0.30
26/01/2020 10:05:16	26012020	260120	100516	95.450	12.418773	-57.245027	95.490	-0.490	0.170	0.810	95.450	-1.300	1.300																			1580033116.0	0.23	0.43
26/01/2020 10:05:17	26012020	260120	100517	95.600	12.418773	-57.245028	95.640	-0.450	0.270	0.530	95.630	-1.100	0.900																			1580033117.0	0.15	0.28
26/01/2020 10:05:18	26012020	260120	100518	95.760	12.418773	-57.245027	95.800	-0.270	0.160	0.210	95.760	-1.200	0.700																			1580033118.0	0.10	0.19
26/01/2020 10:05:19	26012020	260120	100519	95.880	12.418773	-57.245027	95.860	0.000	-0.070	-0.070	95.880	-1.400	0.300																			1580033119.0	0.32	0.59
26/01/2020 10:05:20	26012020	260120	100520	95.880	12.418775	-57.245025	95.850	0.270	-0.220	-0.260	95.880	-1.600	0.100																			1580033120.0	0.46	0.85
26/01/2020 10:05:21	26012020	260120	100521	95.890	12.418777	-57.245023	95.890	0.400	-0.160	-0.320	95.910	-1.600	0.100																			1580033121.0	0.42	0.78
26/01/2020 10:05:22	26012020	260120	100522	95.970	12.418778	-57.245023	95.980	0.340	-0.050	-0.140	95.980	-1.400	0.200																			1580033122.0	0.30	0.56
26/01/2020 10:05:23	26012020	260120	100523	96.090	12.418778	-57.245025	96.120	0.210	-0.010	0.210	96.110	-1.400	0.600																			1580033123.0	0.16	0.30
26/01/2020 10:05:24	26012020	260120	100524	96.230	12.418778	-57.245025	96.250	0.090	-0.080	0.630	96.250	-1.500	1.000																			1580033124.0	0.13	0.24
26/01/2020 10:05:25	26012020	260120	100525	96.290	12.418777	-57.245025	96.280	0.020	-0.210	1.150	96.290	-1.600	1.500																			1580033125.0	0.28	0.52
26/01/2020 10:05:26	26012020	260120	100526	96.240	12.418775	-57.245025	96.180	-0.040	-0.290	1.730	96.210	-1.700	2.100																			1580033126.0	0.56	1.04
26/01/2020 10:05:27	26012020	260120	100527	96.070	12.418772	-57.245025	96.000	-0.110	-0.320	2.220	96.030	-1.700	2.600																			1580033127.0	0.74	1.37
26/01/2020 10:05:28	26012020	260120	100528	95.890	12.418768	-57.245025	95.860	-0.140	-0.350	2.410	95.870	-1.700	2.800																			1580033128.0	0.61	1.13
26/01/2020 10:05:29	26012020	260120	100529	95.880	12.418767	-57.245025	95.920	-0.130	-0.300	2.120	95.910	-1.700	2.500																			1580033129.0	0.25	0.46
26/01/2020 10:05:30	26012020	260120	100530	96.030	12.418768	-57.245025	96.070	-0.140	-0.100	1.460	96.030	-1.600	2.200																			1580033130.0	0.24	0.44
26/01/2020 10:05:31	26012020	260120	100531	96.200	12.418772	-57.245025	96.200	-0.190	0.180	0.590	96.230	-1.200	1.000																			1580033131.0	0.60	1.11
26/01/2020 10:05:32	26012020	260120	100532	96.330	12.418775	-57.245025	96.300	-0.200	0.300	-0.280	96.350	-1.100	0.200																			1580033132.0	0.82	1.52
26/01/2020 10:05:33	26012020	260120	100533	96.380	12.418778	-57.245025	96.290	-0.110	0.140	-0.970	96.380	-1.200	-0.500																			1580033133.0	0.82	1.52
26/01/2020 10:05:34	26012020	260120	100534	96.350	12.418782	-57.245023	96.250	0.020	-0.130	-1.350	96.330	-1.500	-0.900																			1580033134.0	0.76	1.41
26/01/2020 10:05:35	26012020	260120	100535	96.300	12.418783	-57.245023	96.200	0.140	-0.290	-1.330	96.280	-1.700	-0.900																			1580033135.0	0.50	0.93
26/01/2020 10:05:36	26012020	260120	100536	96.210	12.418785	-57.245022	96.130	0.250	-0.310	-0.960	96.200	-1.700	-0.600																			1580033136.0	0.08	0.15
26/01/2020 10:05:37	26012020	260120	100537	96.170	12.418783	-57.245023	96.150	0.310	-0.220	-0.470	96.180	-1.600	-0.100																			1580033137.0	0.21	0.39
26/01/2020 10:05:38	26012020	260120	100538	96.240	12.418782	-57.245023	96.260	0.310	-0.140	0.100	96.260	-1.500	0.400																			1580033138.0	0.35	0.65
26/01/2020 10:05:39	26012020	260120	100539	96.320	12.418780	-57.245023	96.330	0.250	-0.130	0.800	96.330	-1.500	1.100																			1580033139.0	0.51	0.94
26/01/2020 10:05:40	26012020	260120	100540	96.390	12.418777	-57.245025	96.440	0.090	-0.120	1.500	96.390	-1.500	1.600																			1580033140.0	0.64	1.19
26/01/2020 10:05:41	26012020	260120	100541	96.500	12.418773	-57.245025	96.520	-0.140	-0.070	2.120	96.510	-1.400	2.500																			1580033141.0	0.75	1.39
26/01/2020 10:05:42	26012020	260120	100542	96.490	12.418770	-57.245025	96.460	-0.360	-0.060	2.620	96.490	-1.400	2.800																			1580033142.0	0.86	1.59
26/01/2020 10:05:43	26012020	260120	100543	96.370	12.418765	-57.245027	96.350	-0.500	-0.120	2.730	96.350	-1.500	3.100																			1580033143.0	0.78	1.44
26/01/2020 10:05:44	26012020	260120	100544	96.290	12.418763	-57.245025	96.280	-0.480	-0.200	2.420	96.280	-1.600	2.800																			1580033144.0	0.46	0.85
26/01/2020 10:05:45	26012020	260120	100545	96.260	12.418763	-57.245025	96.220	-0.290	-0.230	1.800	96.260	-1.600	2.200																			1580033145.0	0.14	0.26
26/01/2020 10:05:46	26012020	260120	100546	96.230	12.418765	-57.245025	96.170	-0.030	-0.180	0.930	96.220	-1.600	1.400																			1580033146.0	0.42	0.78
26/01/2020 10:05:47	26012020	260120	100547	96.210	12.418770	-57.245023	96.130	0.190	-0.100	-0.160	96.210	-1.500	0.300																			1580033147.0	0.95	1.76
26/01/2020 10:05:48	26012020	260120	100548	96.230	12.418775	-57.245023	96.160	0.290	-0.010	-1.240	96.250	-1.400	-0.800																			1580033148.0	1.37	2.54
26/01/2020 10:05:49	26012020	260120	100549	96.320	12.418782	-57.245022	96.250	0.310	0.090	-1.890	96.340	-1.300	-1.500																			1580033149.0	1.36	2.52
26/01/2020 10:05:50	26012020	260120	100550	96.410	12.418787	-57.245022	96.320	0.310	0.120	-1.890	96.420	-1.300	-1.500																			1580033150.0	0.82	1.52
26/01/2020 10:05:51	26012020	260120	100551	96.420	12.418787	-57.245022	96.310	0.280	0.010	-1.320	96.410	-1.400	-1.000																			1580033151.0	0.13	0.24
26/01/2020 10:05:52	26012020	260120	100552	96.320	12.418785	-57.245022	96.210	0.180	-0.190	-0.290	96.290	-1.500	0.000																			1580033152.0	0.47	0.87
26/01/2020 10:05:53	26012020	260120	100553	96.140	12.418780	-57.245022	96.040	0.020	-0.380	1.080	96.100	-1.700	1.400																			1580033153.0	1.06	1.96
26/01/2020 10:05:54	26012020	260120	100554	95.920	12.418772	-57.245022	95.860	-0.110	-0.520	2.480	95.920	-1.800	2.300																			1580033154.0	1.53	2.83
26/01/2020 10:05:55	26012020	260120	100555	95.740	12.418765	-57.245022	95.720	-0.160	-0.580	3.570	95.710	-2.000	3.900																			1580033155.0	1.65	3.06
26/01/2020 10:05:56	26012020	260120	100556	95.640	12.418758	-57.245022	95.640	-0.170	-0.430	4.070	95.630	-1.800	4.400																			1580033156.0	1.38	2.56
26/01/2020 10:05:57	26012020	260120	100557	95.630	12.418755	-57.245022	95.670	-0.210	-0.030	3.810	95.640	-1.400	4.200																			1580033157.0	0.73	1.35
26/01/2020 10:05:58	26012020	260120	100558	95.720	12.418755	-57.245023	95.770	-0.270	0.410	2.830	95.750	-1.000	3.300																			1580033158.0	0.30	0.56
26/01/2020 10:05:59	26012020	260120	100559	95.880	12.418760	-57.245023	95.900	-0.290	0.600	1.310	95.910	-0.800	1.800																			1580033159.0	1.04	1.93
26/01/2020 10:06:00	26012020	260120	100600	96.040	12.418768	-57.245023	96.010	-0.210	0.410	-0.400	96.070	-1.000	0.100	1014.10	25.50	25.50	19.30	19.40	1.00	68.00	68.00	377.00	24.90	7.00	6.50	103.00	6.20	105	3303.00	27.40	27.40	1580033160.0	1.71	3.17
26/01/2020 10:06:01	26012020	260120	100601	96.110	12.418777	-57.245022	96.010	0.010	-0.050	-1.790	96.110	-1.400	-1.300																			1580033161.0	1.94	3.59
26/01/2020 10:06:02	26012020	260120	100602	96.070	12.418785	-57.245020	95.950	0.260	-0.510	-2.640	96.070	-1.900	-2.200																			1580033162.0	1.64	3.04
26/01/2020 10:06:03	26012020	260120	100603	96.040	12.418788	-57.245018	95.930	0.430	-0.690	-2.900	96.040	-2.100	-2.500																			1580033163.0	1.09	2.02
26/01/2020 10:06:04	26012020	260120	100604	96.040	12.418792	-57.245018	95.950	0.450	-0.560	-2.530	96.040	-2.000	-2.200																			1580033164.0	0.40	0.74
26/01/2020 10:06:05	26012020	260120	100605	96.070	12.418790	-57.245018	96.030	0.330	-0.300	-1.490	96.080	-1.700	-1.200																			1580033165.0	0.40	0.74
26/01/2020 10:06:06	26012020	260120	100606	96.170	12.418785	-57.245020	96.200	0.100	-0.030	-0.040	96.170	-1.500	-0.300																			1580033166.0	1.14	2.11
26/01/2020 10:06:07	26012020	260120	100607	96.360	12.418777	-57.245022	96.420	-0.150	0.150	1.520	96.390	-1.200	1.800																			1580033167.0	1.66	3.07
26/01/2020 10:06:08	26012020	260120	100608	96.480	12.418768	-57.245023	96.530	-0.330	0.150	2.920	96.480	-1.200	2.700																			1580033168.0	1.87	3.46
26/01/2020 10:06:09	26012020	260120	100609	96.510	12.418760	-57.245023	96.560	-0.330	-0.080	3.940	96.520	-1.400	4.300																			1580033169.0	1.76	3.26
26/01/2020 10:06:10	26012020	260120	100610	96.540	12.418753	-57.245023	96.610	-0.200	-0.330	4.360	96.550	-1.700	4.700																			1580033170.0	1.34	2.48
26/01/2020 10:06:11	26012020	260120	100611	96.640	12.418752	-57.245022	96.720	-0.030	-0.390	4.080	96.670	-1.800	4.500																			1580033171.0	0.65	1.20
26/01/2020 10:06:12	26012020	260120	100612	96.790	12.418752	-57.245022	96.850	0.070	-0.200	3.160	96.820	-1.600	3.600																			1580033172.0	0.30	0.56
26/01/2020 10:06:13	26012020	260120	100613	96.930	12.418757	-57.245022	96.950	0.060	0.110	1.680	96.960	-1.300	2.200																			1580033173.0	1.05	1.94
26/01/2020 10:06:14	26012020	260120	100614	97.090	12.418765	-57.245022	97.090	0.000	0.380	-0.080	97.130	-1.000	0.400																			1580033174.0	1.69	3.13
26/01/2020 10:06:15	26012020	260120	100615	97.280	12.418775	-57.245022	97.250	-0.050	0.470	-1.660	97.320	-0.900	-1.200																			1580033175.0	2.00	3.70
26/01/2020 10:06:16	26012020	260120	100616	97.480	12.418783	-57.245020	97.430	0.020	0.220	-2.710	97.520	-1.100	-2.300																			1580033176.0	1.84	3.41
26/01/2020 10:06:17	26012020	260120	100617	97.680	12.418788	-57.245018	97.610	0.200	-0.360	-3.090	97.720	-1.700	-2.700																			1580033177.0	1.34	2.48
26/01/2020 10:06:18	26012020	260120	100618	97.790	12.418792	-57.245017	97.670	0.370	-0.920	-2.640	97.780	-2.300	-2.300																			1580033178.0	0.70	1.30
26/01/2020 10:06:19	26012020	260120	100619	97.660	12.418788	-57.245015	97.480	0.360	-1.070	-1.280	97.600	-2.500	-1.000																			1580033179.0	0.70	1.30
26/01/2020 10:06:20	26012020	260120	100620	97.340	12.418780	-57.245015	97.190	0.130	-0.690	0.690	97.340	-2.300	0.200																			1580033180.0	1.63	3.02
26/01/2020 10:06:21	26012020	260120	100621	97.080	12.418770	-57.245018	97.050	-0.210	-0.060	2.640	97.050	-1.500	2.900																			1580033181.0	2.29	4.24
26/01/2020 10:06:22	26012020	260120	100622	97.060	12.418760	-57.245022	97.140	-0.460	0.430	3.990	97.090	-1.000	4.300																			1580033182.0	2.25	4.17
26/01/2020 10:06:23	26012020	260120	100623	97.220	12.418753	-57.245023	97.330	-0.510	0.610	4.520	97.260	-0.800	4.900																			1580033183.0	1.65	3.06
26/01/2020 10:06:24	26012020	260120	100624	97.410	12.418750	-57.245023	97.510	-0.330	0.490	4.170	97.440	-0.900	4.600																			1580033184.0	0.74	1.37
26/01/2020 10:06:25	26012020	260120	100625	97.580	12.418752	-57.245022	97.630	0.020	0.130	3.040	97.600	-1.200	3.500																			1580033185.0	0.37	0.69
26/01/2020 10:06:26	26012020	260120	100626	97.640	12.418757	-57.245020	97.610	0.400	-0.340	1.530	97.640	-1.700	2.000																			1580033186.0	1.36	2.52
26/01/2020 10:06:27	26012020	260120	100627	97.600	12.418765	-57.245017	97.540	0.600	-0.680	-0.030	97.590	-2.100	0.500																			1580033187.0	1.96	3.63
26/01/2020 10:06:28	26012020	260120	100628	97.560	12.418775	-57.245015	97.460	0.520	-0.680	-1.370	97.550	-2.100	-0.900																			1580033188.0	2.11	3.91
26/01/2020 10:06:29	26012020	260120	100629	97.480	12.418783	-57.245015	97.330	0.180	-0.290	-2.160	97.450	-1.700	-1.700																			1580033189.0	1.73	3.20
26/01/2020 10:06:30	26012020	260120	100630	97.330	12.418788	-57.245017	97.170	-0.230	0.150	-2.300	97.300	-1.300	-1.900																			1580033190.0	1.07	1.98
26/01/2020 10:06:31	26012020	260120	100631	97.170	12.418788	-57.245018	97.030	-0.500	0.280	-1.830	97.140	-1.100	-1.500																			1580033191.0	0.41	0.76
26/01/2020 10:06:32	26012020	260120	100632	97.060	12.418785	-57.245018	96.970	-0.540	0.080	-0.970	97.060	-1.200	-1.000																			1580033192.0	0.77	1.43
26/01/2020 10:06:33	26012020	260120	100633	97.060	12.418778	-57.245018	97.060	-0.380	-0.130	0.070	97.080	-1.500	0.400																			1580033193.0	1.26	2.33
26/01/2020 10:06:34	26012020	260120	100634	97.190	12.418772	-57.245018	97.230	-0.130	-0.160	1.150	97.220	-1.500	1.500																			1580033194.0	1.46	2.70
26/01/2020 10:06:35	26012020	260120	100635	97.350	12.418765	-57.245020	97.380	0.100	-0.110	2.020	97.370	-1.500	2.400																			1580033195.0	1.42	2.63
26/01/2020 10:06:36	26012020	260120	100636	97.440	12.418762	-57.245022	97.440	0.270	-0.170	2.520	97.440	-1.500	2.900																			1580033196.0	1.00	1.85
26/01/2020 10:06:37	26012020	260120	100637	97.390	12.418760	-57.245022	97.330	0.390	-0.320	2.620	97.360	-1.700	3.000																			1580033197.0	0.36	0.67
26/01/2020 10:06:38	26012020	260120	100638	97.220	12.418760	-57.245020	97.150	0.420	-0.370	2.410	97.190	-1.700	2.800																			1580033198.0	0.26	0.48
26/01/2020 10:06:39	26012020	260120	100639	97.100	12.418763	-57.245020	97.060	0.300	-0.240	1.890	97.090	-1.600	2.300																			1580033199.0	0.62	1.15
26/01/2020 10:06:40	26012020	260120	100640	97.100	12.418767	-57.245020	97.080	0.030	-0.130	1.110	97.110	-1.500	1.600																			1580033200.0	0.82	1.52
26/01/2020 10:06:41	26012020	260120	100641	97.190	12.418770	-57.245018	97.150	-0.260	-0.150	0.240	97.210	-1.500	0.700																			1580033201.0	0.84	1.56
26/01/2020 10:06:42	26012020	260120	100642	97.320	12.418773	-57.245018	97.290	-0.440	-0.110	-0.510	97.350	-1.500	-0.100																			1580033202.0	0.71	1.31
26/01/2020 10:06:43	26012020	260120	100643	97.520	12.418775	-57.245018	97.510	-0.460	0.170	-1.000	97.560	-1.200	-0.600																			1580033203.0	0.40	0.74
26/01/2020 10:06:44	26012020	260120	100644	97.740	12.418777	-57.245018	97.700	-0.350	0.480	-1.200	97.740	-1.000	-0.800																			1580033204.0	0.34	0.63
26/01/2020 10:06:45	26012020	260120	100645	97.860	12.418777	-57.245022	97.770	-0.130	0.470	-1.060	97.860	-0.900	-0.700																			1580033205.0	0.41	0.76
26/01/2020 10:06:46	26012020	260120	100646	97.850	12.418775	-57.245022	97.760	0.170	0.050	-0.620	97.850	-1.100	-0.400																			1580033206.0	0.35	0.65
26/01/2020 10:06:47	26012020	260120	100647	97.840	12.418773	-57.245022	97.790	0.440	-0.490	-0.070	97.860	-1.800	0.300																			1580033207.0	0.44	0.81
26/01/2020 10:06:48	26012020	260120	100648	97.920	12.418772	-57.245020	97.880	0.560	-0.860	0.600	97.930	-2.200	0.900																			1580033208.0	0.39	0.72
26/01/2020 10:06:49	26012020	260120	100649	97.950	12.418768	-57.245020	97.900	0.480	-0.950	1.470	97.950	-2.300	1.800																			1580033209.0	0.47	0.87
26/01/2020 10:06:50	26012020	260120	100650	97.920	12.418765	-57.245020	97.880	0.220	-0.680	2.350	97.920	-2.100	2.700																			1580033210.0	0.83	1.54
26/01/2020 10:06:51	26012020	260120	100651	97.910	12.418760	-57.245022	97.890	-0.140	-0.140	2.960	97.910	-1.600	3.300																			1580033211.0	1.04	1.93
26/01/2020 10:06:52	26012020	260120	100652	97.930	12.418757	-57.245025	97.920	-0.480	0.400	3.160	97.930	-1.000	3.500																			1580033212.0	0.95	1.76
26/01/2020 10:06:53	26012020	260120	100653	97.980	12.418755	-57.245027	97.990	-0.630	0.660	2.910	98.000	-0.700	3.300																			1580033213.0	0.61	1.13
26/01/2020 10:06:54	26012020	260120	100654	98.080	12.418755	-57.245027	98.080	-0.490	0.580	2.200	98.080	-0.700	2.900																			1580033214.0	0.12	0.22
26/01/2020 10:06:55	26012020	260120	100655	98.250	12.418758	-57.245027	98.270	-0.160	0.330	1.100	98.300	-1.000	1.500																			1580033215.0	0.56	1.04
26/01/2020 10:06:56	26012020	260120	100656	98.510	12.418763	-57.245025	98.490	0.190	-0.010	-0.170	98.510	-1.200	0.700																			1580033216.0	1.12	2.07
26/01/2020 10:06:57	26012020	260120	100657	98.670	12.418770	-57.245023	98.560	0.420	-0.420	-1.200	98.680	-1.800	-0.800																			1580033217.0	1.42	2.63
26/01/2020 10:06:58	26012020	260120	100658	98.670	12.418775	-57.245023	98.520	0.490	-0.760	-1.700	98.670	-2.000	-1.200																			1580033218.0	1.34	2.48
26/01/2020 10:06:59	26012020	260120	100659	98.620	12.418778	-57.245022	98.480	0.360	-0.820	-1.540	98.610	-2.200	-1.200																			1580033219.0	0.83	1.54
26/01/2020 10:07:00	26012020	260120	100700	98.580	12.418778	-57.245022	98.450	0.070	-0.540	-0.740	98.560	-1.900	-0.400	1014.20	25.50	25.50	19.40	19.40	2.00	69.00	69.00	377.00	24.90	358.00	7.10	95.00	6.60	126	3324.00	27.40	27.40	1580033220.0	0.13	0.24
26/01/2020 10:07:01	26012020	260120	100701	98.500	12.418775	-57.245025	98.380	-0.250	-0.120	0.470	98.480	-1.500	0.800																			1580033221.0	1.07	1.98
26/01/2020 10:07:02	26012020	260120	100702	98.410	12.418767	-57.245027	98.320	-0.420	0.190	1.680	98.390	-1.200	2.000																			1580033222.0	1.66	3.07
26/01/2020 10:07:03	26012020	260120	100703	98.370	12.418760	-57.245028	98.330	-0.370	0.270	2.540	98.370	-1.100	2.900																			1580033223.0	1.65	3.06
26/01/2020 10:07:04	26012020	260120	100704	98.440	12.418753	-57.245028	98.450	-0.090	0.180	2.880	98.470	-1.200	3.300																			1580033224.0	1.15	2.13
26/01/2020 10:07:05	26012020	260120	100705	98.660	12.418752	-57.245027	98.750	0.240	0.050	2.620	98.730	-1.300	3.000																			1580033225.0	0.41	0.76
26/01/2020 10:07:06	26012020	260120	100706	99.060	12.418755	-57.245025	99.160	0.420	-0.010	1.870	99.150	-1.400	2.300																			1580033226.0	0.54	1.00
26/01/2020 10:07:07	26012020	260120	100707	99.400	12.418760	-57.245025	99.400	0.370	-0.020	0.990	99.450	-1.400	1.400																			1580033227.0	1.06	1.96
26/01/2020 10:07:08	26012020	260120	100708	99.500	12.418765	-57.245025	99.390	0.180	-0.130	0.280	99.490	-1.500	0.700																			1580033228.0	1.17	2.17
26/01/2020 10:07:09	26012020	260120	100709	99.410	12.418768	-57.245025	99.280	-0.050	-0.310	-0.160	99.380	-1.700	0.300																			1580033229.0	0.90	1.67
26/01/2020 10:07:10	26012020	260120	100710	99.300	12.418772	-57.245023	99.190	-0.220	-0.450	-0.300	99.280	-1.800	0.100																			1580033230.0	0.49	0.91
26/01/2020 10:07:11	26012020	260120	100711	99.250	12.418772	-57.245023	99.180	-0.300	-0.430	-0.200	99.260	-1.800	0.200																			1580033231.0	0.11	0.20
26/01/2020 10:07:12	26012020	260120	100712	99.340	12.418770	-57.245023	99.330	-0.310	-0.200	0.000	99.380	-1.600	0.400																			1580033232.0	0.30	0.56
26/01/2020 10:07:13	26012020	260120	100713	99.570	12.418768	-57.245025	99.590	-0.260	0.120	0.250	99.620	-1.300	0.600																			1580033233.0	0.50	0.93
26/01/2020 10:07:14	26012020	260120	100714	99.840	12.418765	-57.245027	99.860	-0.140	0.250	0.520	99.890	-1.100	0.900																			1580033234.0	0.60	1.11
26/01/2020 10:07:15	26012020	260120	100715	100.070	12.418763	-57.245027	100.070	0.070	0.120	0.840	100.100	-1.200	1.200																			1580033235.0	0.60	1.11
26/01/2020 10:07:16	26012020	260120	100716	100.180	12.418760	-57.245027	100.130	0.330	-0.190	1.130	100.180	-1.500	1.500																			1580033236.0	0.46	0.85
26/01/2020 10:07:17	26012020	260120	100717	100.160	12.418760	-57.245025	100.100	0.530	-0.500	1.340	100.150	-1.900	1.700																			1580033237.0	0.34	0.63
26/01/2020 10:07:18	26012020	260120	100718	100.130	12.418760	-57.245023	100.090	0.540	-0.580	1.400	100.140	-2.000	1.800																			1580033238.0	0.39	0.72
26/01/2020 10:07:19	26012020	260120	100719	100.180	12.418762	-57.245022	100.190	0.280	-0.330	1.430	100.210	-1.700	1.800																			1580033239.0	0.37	0.69
26/01/2020 10:07:20	26012020	260120	100720	100.350	12.418763	-57.245023	100.400	-0.170	0.110	1.440	100.350	-1.400	1.800																			1580033240.0	0.28	0.52
26/01/2020 10:07:21	26012020	260120	100721	100.620	12.418763	-57.245025	100.690	-0.540	0.480	1.320	100.690	-0.900	1.700																			1580033241.0	0.44	0.81
26/01/2020 10:07:22	26012020	260120	100722	100.910	12.418762	-57.245027	100.940	-0.610	0.500	1.100	100.910	-0.800	1.600																			1580033242.0	0.42	0.78
26/01/2020 10:07:23	26012020	260120	100723	101.050	12.418762	-57.245027	101.000	-0.350	0.130	0.860	101.050	-1.200	1.200																			1580033243.0	0.12	0.22
26/01/2020 10:07:24	26012020	260120	100724	101.020	12.418762	-57.245027	100.960	0.010	-0.370	0.660	101.010	-1.700	1.100																			1580033244.0	0.33	0.61
26/01/2020 10:07:25	26012020	260120	100725	101.010	12.418762	-57.245023	101.010	0.220	-0.610	0.480	101.030	-2.000	0.900																			1580033245.0	0.39	0.72
26/01/2020 10:07:26	26012020	260120	100726	101.180	12.418763	-57.245023	101.210	0.210	-0.500	0.250	101.220	-1.900	0.700																			1580033246.0	0.33	0.61
26/01/2020 10:07:27	26012020	260120	100727	101.430	12.418767	-57.245025	101.460	0.110	-0.290	0.080	101.480	-1.700	0.500																			1580033247.0	0.50	0.93
26/01/2020 10:07:28	26012020	260120	100728	101.660	12.418767	-57.245025	101.670	0.030	-0.150	0.160	101.700	-1.500	0.500																			1580033248.0	0.31	0.57
26/01/2020 10:07:29	26012020	260120	100729	101.770	12.418767	-57.245027	101.720	0.010	-0.080	0.550	101.760	-1.500	0.900																			1580033249.0	0.27	0.50
26/01/2020 10:07:30	26012020	260120	100730	101.650	12.418763	-57.245027	101.540	0.020	-0.040	1.140	101.600	-1.400	1.500																			1580033250.0	0.66	1.22
26/01/2020 10:07:31	26012020	260120	100731	101.430	12.418760	-57.245027	101.370	0.050	-0.020	1.570	101.400	-1.400	1.900																			1580033251.0	0.64	1.19
26/01/2020 10:07:32	26012020	260120	100732	101.360	12.418758	-57.245027	101.380	0.090	-0.020	1.690	101.370	-1.400	2.100																			1580033252.0	0.28	0.52
26/01/2020 10:07:33	26012020	260120	100733	101.510	12.418758	-57.245027	101.610	0.110	0.030	1.580	101.560	-1.300	2.000																			1580033253.0	0.09	0.17
26/01/2020 10:07:34	26012020	260120	100734	101.860	12.418760	-57.245027	102.000	0.060	0.150	1.250	101.860	-1.300	1.800																			1580033254.0	0.32	0.59
26/01/2020 10:07:35	26012020	260120	100735	102.240	12.418763	-57.245028	102.310	-0.040	0.120	0.810	102.290	-1.200	1.200																			1580033255.0	0.51	0.94
26/01/2020 10:07:36	26012020	260120	100736	102.400	12.418765	-57.245028	102.350	-0.140	-0.180	0.500	102.390	-1.500	0.900																			1580033256.0	0.45	0.83
26/01/2020 10:07:37	26012020	260120	100737	102.260	12.418765	-57.245027	102.130	-0.190	-0.470	0.550	102.210	-1.800	0.900																			1580033257.0	0.27	0.50
26/01/2020 10:07:38	26012020	260120	100738	101.950	12.418765	-57.245027	101.820	-0.190	-0.510	0.910	101.880	-1.900	1.300																			1580033258.0	0.23	0.43
26/01/2020 10:07:39	26012020	260120	100739	101.680	12.418763	-57.245027	101.620	-0.190	-0.330	1.260	101.650	-1.700	1.600																			1580033259.0	0.43	0.80
26/01/2020 10:07:40	26012020	260120	100740	101.630	12.418762	-57.245028	101.670	-0.180	-0.110	1.270	101.660	-1.500	1.700																			1580033260.0	0.41	0.76
26/01/2020 10:07:41	26012020	260120	100741	101.840	12.418762	-57.245028	101.920	-0.120	0.090	0.910	101.900	-1.300	1.300																			1580033261.0	0.17	0.31
26/01/2020 10:07:42	26012020	260120	100742	102.100	12.418762	-57.245028	102.130	0.030	0.170	0.500	102.140	-1.200	0.900																			1580033262.0	0.29	0.54
26/01/2020 10:07:43	26012020	260120	100743	102.180	12.418763	-57.245028	102.120	0.240	0.050	0.310	102.170	-1.300	0.700																			1580033263.0	0.34	0.63
26/01/2020 10:07:44	26012020	260120	100744	102.050	12.418765	-57.245028	101.950	0.410	-0.140	0.280	102.020	-1.500	0.700																			1580033264.0	0.40	0.74
26/01/2020 10:07:45	26012020	260120	100745	101.920	12.418768	-57.245027	101.860	0.410	-0.230	0.320	101.900	-1.600	0.700																			1580033265.0	0.51	0.94
26/01/2020 10:07:46	26012020	260120	100746	101.900	12.418770	-57.245027	101.890	0.210	-0.220	0.500	101.900	-1.600	0.800																			1580033266.0	0.39	0.72
26/01/2020 10:07:47	26012020	260120	100747	101.980	12.418770	-57.245027	101.990	-0.090	-0.170	0.810	101.990	-1.500	1.200																			1580033267.0	0.10	0.19
26/01/2020 10:07:48	26012020	260120	100748	102.070	12.418768	-57.245028	102.090	-0.330	-0.100	1.140	102.070	-1.500	1.400																			1580033268.0	0.38	0.70
26/01/2020 10:07:49	26012020	260120	100749	102.130	12.418765	-57.245028	102.110	-0.400	-0.100	1.490	102.130	-1.500	1.900																			1580033269.0	0.62	1.15
26/01/2020 10:07:50	26012020	260120	100750	102.060	12.418762	-57.245028	102.000	-0.290	-0.160	1.830	102.040	-1.500	2.200																			1580033270.0	0.76	1.41
26/01/2020 10:07:51	26012020	260120	100751	101.890	12.418758	-57.245030	101.830	-0.110	-0.130	1.980	101.860	-1.500	2.400																			1580033271.0	0.63	1.17
26/01/2020 10:07:52	26012020	260120	100752	101.770	12.418758	-57.245030	101.760	0.040	-0.000	1.770	101.770	-1.400	2.200																			1580033272.0	0.14	0.26
26/01/2020 10:07:53	26012020	260120	100753	101.820	12.418762	-57.245030	101.850	0.100	0.080	1.200	101.850	-1.300	1.600																			1580033273.0	0.54	1.00
26/01/2020 10:07:54	26012020	260120	100754	101.960	12.418765	-57.245030	101.950	0.120	-0.080	0.540	101.980	-1.400	1.000																			1580033274.0	0.93	1.72
26/01/2020 10:07:55	26012020	260120	100755	101.980	12.418768	-57.245028	101.910	0.140	-0.430	0.090	101.960	-1.800	0.500																			1580033275.0	0.94	1.74
26/01/2020 10:07:56	26012020	260120	100756	101.870	12.418772	-57.245025	101.760	0.120	-0.610	-0.070	101.830	-2.000	0.300																			1580033276.0	0.70	1.30
26/01/2020 10:07:57	26012020	260120	100757	101.750	12.418772	-57.245025	101.680	0.030	-0.320	0.040	101.730	-1.700	0.400																			1580033277.0	0.20	0.37
26/01/2020 10:07:58	26012020	260120	100758	101.740	12.418772	-57.245027	101.750	-0.120	0.270	0.270	101.760	-1.100	0.600																			1580033278.0	0.43	0.80
26/01/2020 10:07:59	26012020	260120	100759	101.920	12.418770	-57.245030	101.970	-0.240	0.620	0.410	101.960	-0.800	0.800																			1580033279.0	0.67	1.24
26/01/2020 10:08:00	26012020	260120	100800	102.140	12.418770	-57.245032	102.140	-0.210	0.380	0.570	102.160	-1.000	0.900	1014.20	25.50	25.50	19.30	19.40	2.00	68.00	68.00	377.00	24.90	347.00	7.00	87.00	6.90	150	3402.00	27.40	27.40	1580033280.0	0.37	0.69
26/01/2020 10:08:01	26012020	260120	100801	102.170	12.418768	-57.245030	102.100	0.020	-0.240	0.900	102.150	-1.600	1.300																			1580033281.0	0.32	0.59
26/01/2020 10:08:02	26012020	260120	100802	102.020	12.418767	-57.245028	101.940	0.320	-0.690	1.310	101.990	-2.000	1.700																			1580033282.0	0.61	1.13
26/01/2020 10:08:03	26012020	260120	100803	101.870	12.418767	-57.245027	101.840	0.420	-0.610	1.650	101.850	-2.000	2.000																			1580033283.0	0.34	0.63
26/01/2020 10:08:04	26012020	260120	100804	101.880	12.418767	-57.245028	101.930	0.210	-0.170	1.760	101.900	-1.600	2.100																			1580033284.0	0.24	0.44
26/01/2020 10:08:05	26012020	260120	100805	102.050	12.418767	-57.245030	102.090	-0.130	0.170	1.640	102.090	-1.200	2.000																			1580033285.0	0.52	0.96
26/01/2020 10:08:06	26012020	260120	100806	102.130	12.418767	-57.245032	102.080	-0.330	0.110	1.520	102.120	-1.300	1.900																			1580033286.0	0.31	0.57
26/01/2020 10:08:07	26012020	260120	100807	101.990	12.418767	-57.245032	101.900	-0.270	-0.220	1.480	101.950	-1.600	1.900																			1580033287.0	0.16	0.30
26/01/2020 10:08:08	26012020	260120	100808	101.810	12.418767	-57.245028	101.750	-0.120	-0.450	1.270	101.790	-1.800	1.700																			1580033288.0	0.41	0.76
26/01/2020 10:08:09	26012020	260120	100809	101.820	12.418767	-57.245028	101.850	-0.060	-0.330	0.820	101.850	-1.700	1.200																			1580033289.0	0.31	0.57
26/01/2020 10:08:10	26012020	260120	100810	102.040	12.418770	-57.245028	102.090	-0.110	0.070	0.270	102.090	-1.300	0.700																			1580033290.0	0.45	0.83
26/01/2020 10:08:11	26012020	260120	100811	102.240	12.418772	-57.245030	102.240	-0.120	0.330	-0.090	102.270	-1.100	0.300																			1580033291.0	0.62	1.15
26/01/2020 10:08:12	26012020	260120	100812	102.330	12.418773	-57.245030	102.300	0.020	0.250	-0.230	102.330	-1.100	0.200																			1580033292.0	0.45	0.83
26/01/2020 10:08:13	26012020	260120	100813	102.420	12.418775	-57.245028	102.410	0.230	0.010	-0.230	102.440	-1.400	0.200																			1580033293.0	0.37	0.69
26/01/2020 10:08:14	26012020	260120	100814	102.520	12.418777	-57.245028	102.490	0.350	-0.180	-0.040	102.530	-1.500	0.300																			1580033294.0	0.28	0.52
26/01/2020 10:08:15	26012020	260120	100815	102.500	12.418777	-57.245028	102.440	0.290	-0.290	0.440	102.490	-1.700	0.800																			1580033295.0	0.03	0.06
26/01/2020 10:08:16	26012020	260120	100816	102.370	12.418775	-57.245028	102.300	0.090	-0.400	1.180	102.340	-1.800	1.500																			1580033296.0	0.34	0.63
26/01/2020 10:08:17	26012020	260120	100817	102.260	12.418772	-57.245028	102.260	-0.110	-0.490	1.900	102.260	-1.900	2.200																			1580033297.0	0.72	1.33
26/01/2020 10:08:18	26012020	260120	100818	102.280	12.418768	-57.245028	102.320	-0.210	-0.460	2.350	102.290	-1.800	2.700																			1580033298.0	0.80	1.48
26/01/2020 10:08:19	26012020	260120	100819	102.320	12.418765	-57.245030	102.340	-0.240	-0.220	2.540	102.320	-1.600	2.900																			1580033299.0	0.60	1.11
26/01/2020 10:08:20	26012020	260120	100820	102.320	12.418763	-57.245030	102.330	-0.230	0.130	2.460	102.320	-1.300	2.900																			1580033300.0	0.36	0.67
26/01/2020 10:08:21	26012020	260120	100821	102.340	12.418763	-57.245032	102.340	-0.170	0.340	2.010	102.350	-1.000	2.400																			1580033301.0	0.19	0.35
26/01/2020 10:08:22	26012020	260120	100822	102.400	12.418767	-57.245032	102.380	-0.010	0.250	1.190	102.410	-1.100	1.600																			1580033302.0	0.44	0.81
26/01/2020 10:08:23	26012020	260120	100823	102.480	12.418770	-57.245030	102.450	0.260	-0.020	0.170	102.500	-1.400	0.600																			1580033303.0	1.04	1.93
26/01/2020 10:08:24	26012020	260120	100824	102.580	12.418777	-57.245027	102.540	0.430	-0.180	-0.720	102.580	-1.500	0.000																			1580033304.0	1.45	2.69
26/01/2020 10:08:25	26012020	260120	100825	102.690	12.418783	-57.245025	102.630	0.350	-0.160	-1.200	102.710	-1.500	-0.800																			1580033305.0	1.31	2.43
26/01/2020 10:08:26	26012020	260120	100826	102.770	12.418787	-57.245025	102.690	0.040	-0.130	-1.160	102.780	-1.500	-0.800																			1580033306.0	0.79	1.46
26/01/2020 10:08:27	26012020	260120	100827	102.770	12.418787	-57.245027	102.660	-0.280	-0.270	-0.590	102.750	-1.600	-0.200																			1580033307.0	0.14	0.26
26/01/2020 10:08:28	26012020	260120	100828	102.660	12.418783	-57.245027	102.560	-0.430	-0.430	0.370	102.620	-1.800	0.700																			1580033308.0	0.78	1.44
26/01/2020 10:08:29	26012020	260120	100829	102.510	12.418777	-57.245027	102.440	-0.390	-0.410	1.500	102.480	-1.800	1.800																			1580033309.0	1.34	2.48
26/01/2020 10:08:30	26012020	260120	100830	102.380	12.418770	-57.245028	102.360	-0.260	-0.240	2.520	102.370	-1.600	2.800																			1580033310.0	1.51	2.80
26/01/2020 10:08:31	26012020	260120	100831	102.310	12.418763	-57.245030	102.320	-0.120	-0.050	3.150	102.290	-1.400	3.500																			1580033311.0	1.34	2.48
26/01/2020 10:08:32	26012020	260120	100832	102.300	12.418760	-57.245032	102.330	0.050	0.100	3.080	102.310	-1.300	3.500																			1580033312.0	0.76	1.41
26/01/2020 10:08:33	26012020	260120	100833	102.370	12.418762	-57.245030	102.390	0.290	0.150	2.310	102.390	-1.200	2.800																			1580033313.0	0.20	0.37
26/01/2020 10:08:34	26012020	260120	100834	102.470	12.418767	-57.245030	102.480	0.580	0.050	1.130	102.490	-1.300	1.600																			1580033314.0	1.23	2.28
26/01/2020 10:08:35	26012020	260120	100835	102.570	12.418775	-57.245027	102.560	0.760	-0.140	-0.060	102.600	-1.500	0.400																			1580033315.0	1.82	3.37
26/01/2020 10:08:36	26012020	260120	100836	102.670	12.418783	-57.245023	102.620	0.640	-0.210	-0.970	102.670	-1.600	-0.200																			1580033316.0	1.83	3.39
26/01/2020 10:08:37	26012020	260120	100837	102.760	12.418788	-57.245022	102.690	0.170	-0.110	-1.380	102.770	-1.500	-1.000																			1580033317.0	1.39	2.57
26/01/2020 10:08:38	26012020	260120	100838	102.800	12.418792	-57.245023	102.690	-0.450	0.030	-1.120	102.800	-1.400	-0.900																			1580033318.0	0.60	1.11
26/01/2020 10:08:39	26012020	260120	100839	102.710	12.418790	-57.245025	102.580	-0.860	-0.040	-0.220	102.670	-1.400	0.100																			1580033319.0	0.58	1.07
26/01/2020 10:08:40	26012020	260120	100840	102.520	12.418783	-57.245027	102.420	-0.860	-0.340	0.980	102.480	-1.700	1.300																			1580033320.0	1.42	2.63
26/01/2020 10:08:41	26012020	260120	100841	102.340	12.418775	-57.245027	102.280	-0.540	-0.610	2.090	102.310	-2.000	2.400																			1580033321.0	1.85	3.43
26/01/2020 10:08:42	26012020	260120	100842	102.200	12.418767	-57.245027	102.200	-0.150	-0.550	2.830	102.180	-1.900	3.200																			1580033322.0	1.66	3.07
26/01/2020 10:08:43	26012020	260120	100843	102.200	12.418763	-57.245027	102.260	0.100	-0.140	2.960	102.210	-1.500	3.400																			1580033323.0	0.94	1.74
26/01/2020 10:08:44	26012020	260120	100844	102.330	12.418763	-57.245028	102.430	0.210	0.310	2.470	102.380	-1.100	2.900																			1580033324.0	0.31	0.57
26/01/2020 10:08:45	26012020	260120	100845	102.540	12.418767	-57.245030	102.590	0.300	0.480	1.560	102.570	-0.900	2.000																			1580033325.0	0.83	1.54
26/01/2020 10:08:46	26012020	260120	100846	102.710	12.418773	-57.245028	102.710	0.450	0.250	0.460	102.730	-1.100	0.900																			1580033326.0	1.30	2.41
26/01/2020 10:08:47	26012020	260120	100847	102.810	12.418780	-57.245025	102.740	0.560	-0.170	-0.530	102.810	-1.500	-0.100																			1580033327.0	1.58	2.93
26/01/2020 10:08:48	26012020	260120	100848	102.770	12.418785	-57.245023	102.640	0.530	-0.490	-1.070	102.740	-1.900	-0.600																			1580033328.0	1.44	2.67
26/01/2020 10:08:49	26012020	260120	100849	102.620	12.418788	-57.245022	102.480	0.330	-0.530	-1.060	102.600	-1.900	-0.700																			1580033329.0	0.84	1.56
26/01/2020 10:08:50	26012020	260120	100850	102.500	12.418790	-57.245022	102.400	0.050	-0.330	-0.690	102.490	-1.700	-0.300																			1580033330.0	0.24	0.44
26/01/2020 10:08:51	26012020	260120	100851	102.450	12.418788	-57.245023	102.370	-0.240	-0.120	-0.050	102.440	-1.500	0.300																			1580033331.0	0.37	0.69
26/01/2020 10:08:52	26012020	260120	100852	102.430	12.418785	-57.245023	102.380	-0.470	-0.030	0.780	102.430	-1.400	1.100																			1580033332.0	0.79	1.46
26/01/2020 10:08:53	26012020	260120	100853	102.430	12.418780	-57.245025	102.440	-0.580	-0.040	1.680	102.440	-1.400	2.000																			1580033333.0	1.19	2.20
26/01/2020 10:08:54	26012020	260120	100854	102.500	12.418775	-57.245025	102.550	-0.540	0.010	2.350	102.520	-1.400	2.700																			1580033334.0	1.29	2.39
26/01/2020 10:08:55	26012020	260120	100855	102.660	12.418770	-57.245027	102.730	-0.390	0.120	2.590	102.700	-1.300	3.000																			1580033335.0	0.98	1.81
26/01/2020 10:08:56	26012020	260120	100856	102.830	12.418768	-57.245028	102.860	-0.170	0.160	2.420	102.850	-1.200	2.800																			1580033336.0	0.49	0.91
26/01/2020 10:08:57	26012020	260120	100857	102.880	12.418768	-57.245028	102.850	0.100	0.020	1.940	102.870	-1.300	2.400																			1580033337.0	0.06	0.11
26/01/2020 10:08:58	26012020	260120	100858	102.840	12.418770	-57.245027	102.790	0.350	-0.220	1.180	102.830	-1.600	1.600																			1580033338.0	0.55	1.02
26/01/2020 10:08:59	26012020	260120	100859	102.810	12.418775	-57.245025	102.750	0.520	-0.450	0.270	102.810	-1.800	0.700																			1580033339.0	1.17	2.17
26/01/2020 10:09:00	26012020	260120	100900	102.770	12.418782	-57.245023	102.670	0.560	-0.560	-0.510	102.770	-1.900	0.200	1014.20	25.50	25.50	19.30	19.40	2.00	68.00	68.00	378.00	24.90	342.00	7.30	84.00	7.00	178	3320.00	27.40	27.40	1580033340.0	1.47	2.72
26/01/2020 10:09:01	26012020	260120	100901	102.680	12.418788	-57.245022	102.550	0.430	-0.490	-0.980	102.660	-1.900	-0.600																			1580033341.0	1.28	2.37
26/01/2020 10:09:02	26012020	260120	100902	102.580	12.418790	-57.245020	102.470	0.150	-0.230	-1.020	102.580	-1.700	-0.700																			1580033342.0	0.71	1.31
26/01/2020 10:09:03	26012020	260120	100903	102.570	12.418790	-57.245022	102.510	-0.150	0.070	-0.670	102.580	-1.300	-0.300																			1580033343.0	0.14	0.26
26/01/2020 10:09:04	26012020	260120	100904	102.670	12.418788	-57.245023	102.670	-0.320	0.290	-0.060	102.710	-1.100	0.300																			1580033344.0	0.64	1.19
26/01/2020 10:09:05	26012020	260120	100905	102.850	12.418783	-57.245023	102.850	-0.300	0.430	0.630	102.880	-1.000	1.000																			1580033345.0	0.98	1.81
26/01/2020 10:09:06	26012020	260120	100906	103.010	12.418780	-57.245025	103.010	-0.160	0.370	1.230	103.030	-1.000	1.600																			1580033346.0	0.93	1.72
26/01/2020 10:09:07	26012020	260120	100907	103.070	12.418777	-57.245027	103.040	0.000	0.030	1.710	103.070	-1.300	2.100																			1580033347.0	0.68	1.26
26/01/2020 10:09:08	26012020	260120	100908	103.020	12.418775	-57.245027	102.970	0.120	-0.410	2.040	103.000	-1.800	2.400																			1580033348.0	0.48	0.89
26/01/2020 10:09:09	26012020	260120	100909	102.940	12.418773	-57.245025	102.900	0.110	-0.730	2.210	102.930	-2.100	2.600																			1580033349.0	0.32	0.59
26/01/2020 10:09:10	26012020	260120	100910	102.840	12.418773	-57.245025	102.770	-0.030	-0.790	2.270	102.810	-2.200	2.700																			1580033350.0	0.16	0.30
26/01/2020 10:09:11	26012020	260120	100911	102.670	12.418773	-57.245023	102.610	-0.210	-0.560	2.100	102.650	-2.000	2.500																			1580033351.0	0.04	0.07
26/01/2020 10:09:12	26012020	260120	100912	102.580	12.418773	-57.245025	102.540	-0.330	-0.100	1.590	102.570	-1.500	2.000																			1580033352.0	0.20	0.37
26/01/2020 10:09:13	26012020	260120	100913	102.600	12.418775	-57.245025	102.580	-0.300	0.350	0.830	102.610	-1.000	1.300																			1580033353.0	0.44	0.81
26/01/2020 10:09:14	26012020	260120	100914	102.700	12.418778	-57.245027	102.670	-0.080	0.560	-0.020	102.700	-0.900	0.700																			1580033354.0	0.61	1.13
26/01/2020 10:09:15	26012020	260120	100915	102.840	12.418782	-57.245025	102.800	0.220	0.450	-0.800	102.870	-0.900	-0.400																			1580033355.0	0.79	1.46
26/01/2020 10:09:16	26012020	260120	100916	102.980	12.418785	-57.245023	102.930	0.460	0.100	-1.350	103.000	-1.300	-0.900																			1580033356.0	0.93	1.72
26/01/2020 10:09:17	26012020	260120	100917	103.080	12.418790	-57.245022	102.990	0.550	-0.310	-1.510	103.090	-1.700	-1.100																			1580033357.0	0.89	1.65
26/01/2020 10:09:18	26012020	260120	100918	103.040	12.418792	-57.245020	102.910	0.470	-0.670	-1.100	103.010	-2.000	-0.700																			1580033358.0	0.51	0.94
26/01/2020 10:09:19	26012020	260120	100919	102.870	12.418790	-57.245020	102.740	0.270	-0.770	-0.130	102.830	-2.100	0.200																			1580033359.0	0.28	0.52
26/01/2020 10:09:20	26012020	260120	100920	102.700	12.418785	-57.245022	102.630	-0.040	-0.500	1.150	102.680	-1.900	1.500																			1580033360.0	1.00	1.85
26/01/2020 10:09:21	26012020	260120	100921	102.620	12.418780	-57.245023	102.620	-0.390	-0.020	2.340	102.620	-1.400	2.700																			1580033361.0	1.46	2.70
26/01/2020 10:09:22	26012020	260120	100922	102.640	12.418773	-57.245027	102.660	-0.660	0.350	3.190	102.650	-1.000	3.500																			1580033362.0	1.55	2.87
26/01/2020 10:09:23	26012020	260120	100923	102.660	12.418767	-57.245030	102.680	-0.680	0.430	3.560	102.660	-0.900	3.900																			1580033363.0	1.33	2.46
26/01/2020 10:09:24	26012020	260120	100924	102.660	12.418763	-57.245030	102.670	-0.390	0.190	3.300	102.660	-1.200	3.700																			1580033364.0	0.75	1.39
26/01/2020 10:09:25	26012020	260120	100925	102.680	12.418765	-57.245028	102.690	0.080	-0.250	2.370	102.700	-1.600	2.800																			1580033365.0	0.33	0.61
26/01/2020 10:09:26	26012020	260120	100926	102.740	12.418768	-57.245027	102.720	0.470	-0.580	1.020	102.740	-1.900	2.000																			1580033366.0	1.18	2.19
26/01/2020 10:09:27	26012020	260120	100927	102.780	12.418777	-57.245023	102.700	0.560	-0.520	-0.290	102.780	-1.900	0.200																			1580033367.0	1.68	3.11
26/01/2020 10:09:28	26012020	260120	100928	102.760	12.418783	-57.245022	102.630	0.330	-0.160	-1.270	102.760	-1.700	-0.500																			1580033368.0	1.62	3.00
26/01/2020 10:09:29	26012020	260120	100929	102.700	12.418790	-57.245023	102.570	-0.000	0.190	-1.830	102.680	-1.200	-1.400																			1580033369.0	1.25	2.31
26/01/2020 10:09:30	26012020	260120	100930	102.670	12.418793	-57.245023	102.560	-0.180	0.310	-1.940	102.670	-1.100	-1.500																			1580033370.0	0.78	1.44
26/01/2020 10:09:31	26012020	260120	100931	102.680	12.418793	-57.245025	102.600	-0.140	0.150	-1.460	102.680	-1.200	-1.100																			1580033371.0	0.13	0.24
26/01/2020 10:09:32	26012020	260120	100932	102.720	12.418790	-57.245025	102.670	0.010	-0.130	-0.530	102.730	-1.500	-0.200																			1580033372.0	0.66	1.22
26/01/2020 10:09:33	26012020	260120	100933	102.760	12.418785	-57.245025	102.710	0.110	-0.360	0.660	102.760	-1.700	1.000																			1580033373.0	1.15	2.13
26/01/2020 10:09:34	26012020	260120	100934	102.730	12.418778	-57.245025	102.690	0.060	-0.480	1.890	102.720	-1.900	2.200																			1580033374.0	1.36	2.52
26/01/2020 10:09:35	26012020	260120	100935	102.630	12.418772	-57.245027	102.600	-0.090	-0.480	2.960	102.610	-1.900	3.300																			1580033375.0	1.48	2.74
26/01/2020 10:09:36	26012020	260120	100936	102.510	12.418767	-57.245028	102.490	-0.210	-0.320	3.600	102.490	-1.700	4.000																			1580033376.0	1.34	2.48
26/01/2020 10:09:37	26012020	260120	100937	102.410	12.418762	-57.245030	102.400	-0.200	-0.080	3.640	102.390	-1.500	4.000																			1580033377.0	0.85	1.57
26/01/2020 10:09:38	26012020	260120	100938	102.350	12.418762	-57.245030	102.340	-0.070	0.130	3.090	102.340	-1.300	3.500																			1580033378.0	0.19	0.35
26/01/2020 10:09:39	26012020	260120	100939	102.340	12.418765	-57.245030	102.330	0.110	0.220	2.010	102.340	-1.200	2.500																			1580033379.0	0.68	1.26
26/01/2020 10:09:40	26012020	260120	100940	102.420	12.418772	-57.245028	102.420	0.260	0.170	0.560	102.450	-1.200	1.000																			1580033380.0	1.45	2.69
26/01/2020 10:09:41	26012020	260120	100941	102.600	12.418780	-57.245027	102.590	0.300	0.070	-0.930	102.650	-1.300	-0.400																			1580033381.0	1.91	3.54
26/01/2020 10:09:42	26012020	260120	100942	102.830	12.418788	-57.245025	102.780	0.200	-0.030	-1.980	102.870	-1.400	-1.500																			1580033382.0	1.81	3.35
26/01/2020 10:09:43	26012020	260120	100943	102.980	12.418793	-57.245023	102.880	0.030	-0.180	-2.230	102.990	-1.600	-1.800																			1580033383.0	1.12	2.07
26/01/2020 10:09:44	26012020	260120	100944	102.950	12.418793	-57.245023	102.790	-0.160	-0.400	-1.570	102.930	-1.800	-1.200																			1580033384.0	0.05	0.09
26/01/2020 10:09:45	26012020	260120	100945	102.760	12.418788	-57.245025	102.610	-0.300	-0.540	-0.280	102.710	-1.900	0.000																			1580033385.0	1.07	1.98
26/01/2020 10:09:46	26012020	260120	100946	102.530	12.418782	-57.245027	102.440	-0.310	-0.540	1.160	102.490	-1.900	1.500																			1580033386.0	1.74	3.22
26/01/2020 10:09:47	26012020	260120	100947	102.370	12.418773	-57.245028	102.350	-0.190	-0.370	2.400	102.350	-1.800	2.700																			1580033387.0	1.86	3.44
26/01/2020 10:09:48	26012020	260120	100948	102.330	12.418765	-57.245032	102.380	-0.010	-0.100	3.220	102.340	-1.500	3.600																			1580033388.0	1.61	2.98
26/01/2020 10:09:49	26012020	260120	100949	102.420	12.418762	-57.245032	102.500	0.180	0.140	3.410	102.440	-1.300	3.800																			1580033389.0	1.00	1.85
26/01/2020 10:09:50	26012020	260120	100950	102.560	12.418762	-57.245032	102.640	0.330	0.270	2.890	102.600	-1.100	3.300																			1580033390.0	0.04	0.07
26/01/2020 10:09:51	26012020	260120	100951	102.760	12.418765	-57.245032	102.820	0.350	0.330	1.820	102.810	-1.100	2.300																			1580033391.0	1.04	1.93
26/01/2020 10:09:52	26012020	260120	100952	102.980	12.418773	-57.245030	102.990	0.180	0.290	0.610	102.980	-1.100	1.500																			1580033392.0	1.60	2.96
26/01/2020 10:09:53	26012020	260120	100953	103.130	12.418780	-57.245030	103.080	-0.110	0.050	-0.330	103.140	-1.300	0.100																			1580033393.0	1.52	2.82
26/01/2020 10:09:54	26012020	260120	100954	103.150	12.418785	-57.245028	103.050	-0.300	-0.420	-0.790	103.130	-1.800	-0.400																			1580033394.0	0.93	1.72
26/01/2020 10:09:55	26012020	260120	100955	103.040	12.418785	-57.245027	102.890	-0.250	-0.860	-0.800	103.010	-2.200	-0.400																			1580033395.0	0.34	0.63
26/01/2020 10:09:56	26012020	260120	100956	102.840	12.418783	-57.245027	102.700	-0.090	-0.830	-0.450	102.790	-2.200	-0.100																			1580033396.0	0.49	0.91
26/01/2020 10:09:57	26012020	260120	100957	102.690	12.418780	-57.245027	102.620	-0.010	-0.270	0.030	102.680	-1.700	0.400																			1580033397.0	0.73	1.35
26/01/2020 10:09:58	26012020	260120	100958	102.720	12.418777	-57.245032	102.720	-0.030	0.340	0.500	102.740	-1.100	0.900																			1580033398.0	1.01	1.87
26/01/2020 10:09:59	26012020	260120	100959	102.880	12.418775	-57.245033	102.920	0.020	0.500	0.800	102.930	-0.900	1.200																			1580033399.0	0.82	1.52
26/01/2020 10:10:00	26012020	260120	101000	103.090	12.418773	-57.245035	103.110	0.200	0.150	0.970	103.120	-1.200	1.400	1014.20	25.50	25.50	19.40	19.50	2.00	69.00	69.00	378.00	24.90	348.00	7.60	90.00	7.10	210	3403.00	27.40	27.40	1580033400.0	0.23	0.43
26/01/2020 10:10:01	26012020	260120	101001	103.210	12.418773	-57.245032	103.200	0.350	-0.340	1.150	103.220	-1.700	1.500																			1580033401.0	0.43	0.80
26/01/2020 10:10:02	26012020	260120	101002	103.230	12.418773	-57.245030	103.210	0.270	-0.510	1.390	103.230	-1.900	1.700																			1580033402.0	0.40	0.74
26/01/2020 10:10:03	26012020	260120	101003	103.190	12.418772	-57.245030	103.150	0.010	-0.290	1.680	103.170	-1.700	2.100																			1580033403.0	0.18	0.33
26/01/2020 10:10:04	26012020	260120	101004	103.110	12.418772	-57.245033	103.080	-0.230	-0.010	1.850	103.110	-1.500	2.200																			1580033404.0	0.44	0.81
26/01/2020 10:10:05	26012020	260120	101005	103.070	12.418770	-57.245033	103.070	-0.290	0.070	1.770	103.070	-1.300	2.200																			1580033405.0	0.32	0.59
26/01/2020 10:10:06	26012020	260120	101006	103.100	12.418770	-57.245033	103.090	-0.180	-0.020	1.460	103.110	-1.400	1.900																			1580033406.0	0.02	0.04
26/01/2020 10:10:07	26012020	260120	101007	103.120	12.418772	-57.245033	103.090	-0.030	-0.080	1.070	103.120	-1.500	1.500																			1580033407.0	0.21	0.39
26/01/2020 10:10:08	26012020	260120	101008	103.120	12.418772	-57.245033	103.090	0.010	-0.020	0.610	103.120	-1.400	1.000																			1580033408.0	0.25	0.46
26/01/2020 10:10:09	26012020	260120	101009	103.180	12.418773	-57.245033	103.170	-0.030	0.080	0.150	103.200	-1.300	0.600																			1580033409.0	0.37	0.69
26/01/2020 10:10:10	26012020	260120	101010	103.300	12.418775	-57.245033	103.260	-0.030	0.010	-0.190	103.320	-1.400	0.200																			1580033410.0	0.43	0.80
26/01/2020 10:10:11	26012020	260120	101011	103.350	12.418777	-57.245033	103.280	0.110	-0.270	-0.330	103.340	-1.600	0.100																			1580033411.0	0.31	0.57
26/01/2020 10:10:12	26012020	260120	101012	103.300	12.418778	-57.245033	103.210	0.300	-0.550	-0.270	103.280	-1.900	0.100																			1580033412.0	0.32	0.59
26/01/2020 10:10:13	26012020	260120	101013	103.210	12.418778	-57.245032	103.110	0.370	-0.550	0.070	103.180	-1.900	0.400																			1580033413.0	0.23	0.43
26/01/2020 10:10:14	26012020	260120	101014	103.080	12.418777	-57.245032	102.980	0.230	-0.280	0.670	103.050	-1.700	1.000																			1580033414.0	0.26	0.48
26/01/2020 10:10:15	26012020	260120	101015	102.930	12.418775	-57.245033	102.860	-0.060	0.010	1.320	102.900	-1.400	1.700																			1580033415.0	0.56	1.04
26/01/2020 10:10:16	26012020	260120	101016	102.850	12.418772	-57.245035	102.830	-0.350	0.160	1.800	102.850	-1.300	2.000																			1580033416.0	0.66	1.22
26/01/2020 10:10:17	26012020	260120	101017	102.870	12.418770	-57.245037	102.890	-0.490	0.170	2.060	102.890	-1.200	2.400																			1580033417.0	0.64	1.19
26/01/2020 10:10:18	26012020	260120	101018	102.940	12.418767	-57.245037	102.940	-0.410	0.070	2.100	102.940	-1.300	2.500																			1580033418.0	0.53	0.98
26/01/2020 10:10:19	26012020	260120	101019	102.960	12.418765	-57.245037	102.940	-0.150	-0.060	1.930	102.960	-1.400	2.300																			1580033419.0	0.36	0.67
26/01/2020 10:10:20	26012020	260120	101020	102.950	12.418765	-57.245035	102.900	0.140	-0.170	1.490	102.940	-1.500	1.900																			1580033420.0	0.13	0.24
26/01/2020 10:10:21	26012020	260120	101021	102.930	12.418767	-57.245035	102.880	0.330	-0.230	0.830	102.930	-1.600	1.300																			1580033421.0	0.51	0.94
26/01/2020 10:10:22	26012020	260120	101022	102.940	12.418772	-57.245033	102.890	0.360	-0.180	0.140	102.950	-1.600	0.600																			1580033422.0	0.94	1.74
26/01/2020 10:10:23	26012020	260120	101023	103.000	12.418777	-57.245033	102.970	0.270	0.010	-0.380	103.020	-1.400	0.100																			1580033423.0	1.01	1.87
26/01/2020 10:10:24	26012020	260120	101024	103.100	12.418780	-57.245033	103.050	0.150	0.120	-0.600	103.110	-1.300	-0.200																			1580033424.0	0.80	1.48
26/01/2020 10:10:25	26012020	260120	101025	103.130	12.418782	-57.245033	103.050	0.080	-0.090	-0.490	103.120	-1.400	-0.100																			1580033425.0	0.37	0.69
26/01/2020 10:10:26	26012020	260120	101026	103.020	12.418780	-57.245033	102.880	0.020	-0.470	-0.010	102.980	-1.800	0.300																			1580033426.0	0.28	0.52
26/01/2020 10:10:27	26012020	260120	101027	102.780	12.418777	-57.245032	102.630	-0.040	-0.680	0.740	102.720	-2.000	1.100																			1580033427.0	0.73	1.35
26/01/2020 10:10:28	26012020	260120	101028	102.540	12.418773	-57.245032	102.470	-0.140	-0.510	1.490	102.520	-1.900	1.800																			1580033428.0	0.88	1.63
26/01/2020 10:10:29	26012020	260120	101029	102.500	12.418770	-57.245033	102.530	-0.280	-0.080	2.000	102.520	-1.500	2.400																			1580033429.0	0.83	1.54
26/01/2020 10:10:30	26012020	260120	101030	102.660	12.418767	-57.245035	102.730	-0.390	0.270	2.150	102.710	-1.100	2.500																			1580033430.0	0.71	1.31
26/01/2020 10:10:31	26012020	260120	101031	102.880	12.418765	-57.245037	102.900	-0.350	0.310	1.960	102.900	-1.100	2.400																			1580033431.0	0.38	0.70
26/01/2020 10:10:32	26012020	260120	101032	102.980	12.418765	-57.245035	102.930	-0.190	0.170	1.600	102.980	-1.200	2.000																			1580033432.0	0.18	0.33
26/01/2020 10:10:33	26012020	260120	101033	102.940	12.418767	-57.245033	102.850	0.040	0.060	1.110	102.920	-1.300	1.500																			1580033433.0	0.32	0.59
26/01/2020 10:10:34	26012020	260120	101034	102.870	12.418768	-57.245033	102.780	0.260	-0.040	0.490	102.850	-1.400	0.900																			1580033434.0	0.66	1.22
26/01/2020 10:10:35	26012020	260120	101035	102.830	12.418773	-57.245032	102.760	0.390	-0.170	-0.120	102.830	-1.500	0.300																			1580033435.0	0.97	1.80
26/01/2020 10:10:36	26012020	260120	101036	102.830	12.418778	-57.245032	102.770	0.400	-0.320	-0.580	102.840	-1.700	-0.200																			1580033436.0	1.00	1.85
26/01/2020 10:10:37	26012020	260120	101037	102.850	12.418782	-57.245030	102.780	0.300	-0.430	-0.780	102.850	-1.800	-0.400																			1580033437.0	0.73	1.35
26/01/2020 10:10:38	26012020	260120	101038	102.820	12.418782	-57.245028	102.760	0.130	-0.400	-0.620	102.820	-1.800	-0.300																			1580033438.0	0.33	0.61
26/01/2020 10:10:39	26012020	260120	101039	102.820	12.418782	-57.245030	102.810	-0.060	-0.220	-0.110	102.830	-1.600	0.200																			1580033439.0	0.21	0.39
26/01/2020 10:10:40	26012020	260120	101040	102.870	12.418778	-57.245032	102.850	-0.190	0.010	0.600	102.870	-1.400	0.700																			1580033440.0	0.66	1.22
26/01/2020 10:10:41	26012020	260120	101041	102.830	12.418775	-57.245032	102.800	-0.240	0.050	1.330	102.820	-1.300	1.700																			1580033441.0	0.83	1.54
26/01/2020 10:10:42	26012020	260120	101042	102.720	12.418772	-57.245032	102.680	-0.220	-0.130	1.980	102.720	-1.400	2.100																			1580033442.0	0.84	1.56
26/01/2020 10:10:43	26012020	260120	101043	102.620	12.418767	-57.245032	102.630	-0.190	-0.270	2.400	102.620	-1.600	2.800																			1580033443.0	0.83	1.54
26/01/2020 10:10:44	26012020	260120	101044	102.660	12.418765	-57.245032	102.720	-0.240	-0.120	2.440	102.680	-1.500	2.800																			1580033444.0	0.60	1.11
26/01/2020 10:10:45	26012020	260120	101045	102.810	12.418763	-57.245032	102.860	-0.320	0.180	2.080	102.840	-1.200	2.500																			1580033445.0	0.31	0.57
26/01/2020 10:10:46	26012020	260120	101046	102.930	12.418765	-57.245033	102.940	-0.250	0.250	1.430	102.940	-1.100	1.900																			1580033446.0	0.34	0.63
26/01/2020 10:10:47	26012020	260120	101047	102.970	12.418767	-57.245033	102.930	0.060	-0.000	0.600	102.980	-1.300	1.000																			1580033447.0	0.61	1.13
26/01/2020 10:10:48	26012020	260120	101048	102.970	12.418772	-57.245030	102.910	0.470	-0.330	-0.210	102.970	-1.700	0.200																			1580033448.0	1.01	1.87
26/01/2020 10:10:49	26012020	260120	101049	102.930	12.418777	-57.245028	102.810	0.740	-0.420	-0.840	102.900	-1.800	-0.400																			1580033449.0	1.15	2.13
26/01/2020 10:10:50	26012020	260120	101050	102.810	12.418782	-57.245027	102.660	0.690	-0.260	-1.130	102.770	-1.600	-0.700																			1580033450.0	1.07	1.98
26/01/2020 10:10:51	26012020	260120	101051	102.670	12.418785	-57.245027	102.560	0.380	-0.100	-1.020	102.660	-1.500	-0.600																			1580033451.0	0.84	1.56
26/01/2020 10:10:52	26012020	260120	101052	102.630	12.418787	-57.245027	102.590	-0.040	-0.070	-0.530	102.640	-1.400	-0.200																			1580033452.0	0.33	0.61
26/01/2020 10:10:53	26012020	260120	101053	102.710	12.418785	-57.245027	102.690	-0.450	-0.080	0.310	102.730	-1.400	0.600																			1580033453.0	0.44	0.81
26/01/2020 10:10:54	26012020	260120	101054	102.800	12.418778	-57.245028	102.780	-0.720	-0.090	1.340	102.800	-1.400	1.300																			1580033454.0	1.24	2.30
26/01/2020 10:10:55	26012020	260120	101055	102.820	12.418772	-57.245030	102.780	-0.740	-0.150	2.330	102.810	-1.500	2.700																			1580033455.0	1.68	3.11
26/01/2020 10:10:56	26012020	260120	101056	102.770	12.418763	-57.245032	102.740	-0.540	-0.230	3.010	102.760	-1.600	3.400																			1580033456.0	1.64	3.04
26/01/2020 10:10:57	26012020	260120	101057	102.720	12.418758	-57.245032	102.700	-0.200	-0.280	3.170	102.720	-1.600	3.600																			1580033457.0	1.15	2.13
26/01/2020 10:10:58	26012020	260120	101058	102.670	12.418757	-57.245032	102.630	0.180	-0.210	2.760	102.660	-1.600	3.200																			1580033458.0	0.38	0.70
26/01/2020 10:10:59	26012020	260120	101059	102.620	12.418758	-57.245030	102.580	0.500	-0.030	1.820	102.620	-1.400	2.300																			1580033459.0	0.59	1.09
26/01/2020 10:11:00	26012020	260120	101100	102.640	12.418765	-57.245030	102.600	0.640	0.180	0.500	102.650	-1.200	1.000	1014.20	25.50	25.50	19.60	19.60	1.00	69.00	69.00	378.00	24.90	354.00	7.00	97.00	6.70	246	3316.00	27.40	27.40	1580033460.0	1.43	2.65
26/01/2020 10:11:01	26012020	260120	101101	102.730	12.418775	-57.245028	102.670	0.570	0.260	-0.870	102.740	-1.100	-0.400																			1580033461.0	1.98	3.67
26/01/2020 10:11:02	26012020	260120	101102	102.830	12.418783	-57.245027	102.770	0.330	0.130	-1.850	102.840	-1.200	-1.400																			1580033462.0	1.96	3.63
26/01/2020 10:11:03	26012020	260120	101103	102.920	12.418790	-57.245025	102.840	0.060	-0.200	-2.130	102.920	-1.500	-1.700																			1580033463.0	1.28	2.37
26/01/2020 10:11:04	26012020	260120	101104	102.920	12.418790	-57.245023	102.790	-0.120	-0.520	-1.660	102.890	-1.900	-1.300																			1580033464.0	0.35	0.65
26/01/2020 10:11:05	26012020	260120	101105	102.780	12.418787	-57.245023	102.640	-0.230	-0.610	-0.570	102.740	-2.000	-0.300																			1580033465.0	0.74	1.37
26/01/2020 10:11:06	26012020	260120	101106	102.590	12.418780	-57.245025	102.490	-0.260	-0.420	0.800	102.590	-1.900	0.600																			1580033466.0	1.48	2.74
26/01/2020 10:11:07	26012020	260120	101107	102.420	12.418773	-57.245028	102.370	-0.230	-0.180	2.030	102.400	-1.500	2.400																			1580033467.0	1.75	3.24
26/01/2020 10:11:08	26012020	260120	101108	102.340	12.418767	-57.245030	102.350	-0.170	-0.040	2.850	102.340	-1.400	3.000																			1580033468.0	1.46	2.70
26/01/2020 10:11:09	26012020	260120	101109	102.420	12.418762	-57.245030	102.480	-0.150	0.110	3.080	102.450	-1.300	3.500																			1580033469.0	0.82	1.52
26/01/2020 10:11:10	26012020	260120	101110	102.680	12.418762	-57.245030	102.780	-0.190	0.260	2.710	102.740	-1.100	3.100																			1580033470.0	0.16	0.30
26/01/2020 10:11:11	26012020	260120	101111	102.980	12.418763	-57.245030	103.010	-0.160	0.230	1.940	103.020	-1.100	2.400																			1580033471.0	0.37	0.69
26/01/2020 10:11:12	26012020	260120	101112	103.100	12.418767	-57.245030	103.050	0.010	-0.060	1.040	103.100	-1.400	1.500																			1580033472.0	0.71	1.31
26/01/2020 10:11:13	26012020	260120	101113	103.060	12.418770	-57.245028	102.980	0.230	-0.370	0.200	103.040	-1.700	0.600																			1580033473.0	0.93	1.72
26/01/2020 10:11:14	26012020	260120	101114	103.000	12.418775	-57.245025	102.930	0.340	-0.450	-0.570	102.990	-1.800	-0.100																			1580033474.0	1.04	1.93
26/01/2020 10:11:15	26012020	260120	101115	102.990	12.418780	-57.245025	102.930	0.300	-0.300	-1.180	102.990	-1.700	-0.700																			1580033475.0	1.07	1.98
26/01/2020 10:11:16	26012020	260120	101116	102.980	12.418783	-57.245025	102.900	0.190	-0.120	-1.380	102.970	-1.500	-1.000																			1580033476.0	0.85	1.57
26/01/2020 10:11:17	26012020	260120	101117	102.930	12.418785	-57.245025	102.850	0.120	-0.010	-1.090	102.920	-1.400	-0.700																			1580033477.0	0.29	0.54
26/01/2020 10:11:18	26012020	260120	101118	102.900	12.418783	-57.245025	102.880	0.060	0.040	-0.480	102.910	-1.300	-0.100																			1580033478.0	0.30	0.56
26/01/2020 10:11:19	26012020	260120	101119	103.040	12.418780	-57.245027	103.090	-0.030	0.110	0.240	103.080	-1.300	0.600																			1580033479.0	0.61	1.13
26/01/2020 10:11:20	26012020	260120	101120	103.290	12.418777	-57.245028	103.340	-0.160	0.060	1.030	103.340	-1.300	1.400																			1580033480.0	0.82	1.52
26/01/2020 10:11:21	26012020	260120	101121	103.420	12.418773	-57.245028	103.380	-0.240	-0.220	1.900	103.410	-1.600	2.200																			1580033481.0	1.02	1.89
26/01/2020 10:11:22	26012020	260120	101122	103.310	12.418767	-57.245028	103.220	-0.230	-0.530	2.720	103.270	-1.900	3.100																			1580033482.0	1.20	2.22
26/01/2020 10:11:23	26012020	260120	101123	103.100	12.418762	-57.245028	103.040	-0.160	-0.520	3.190	103.060	-1.900	3.600																			1580033483.0	1.09	2.02
26/01/2020 10:11:24	26012020	260120	101124	102.960	12.418760	-57.245030	102.950	-0.100	-0.210	3.100	102.950	-1.600	3.500																			1580033484.0	0.53	0.98
26/01/2020 10:11:25	26012020	260120	101125	102.950	12.418762	-57.245032	102.970	-0.070	0.090	2.450	102.960	-1.300	2.900																			1580033485.0	0.36	0.67
26/01/2020 10:11:26	26012020	260120	101126	103.090	12.418765	-57.245032	103.140	-0.070	0.200	1.350	103.130	-1.200	1.800																			1580033486.0	0.88	1.63
26/01/2020 10:11:27	26012020	260120	101127	103.310	12.418770	-57.245030	103.330	-0.050	0.140	0.080	103.350	-1.200	0.600																			1580033487.0	1.20	2.22
26/01/2020 10:11:28	26012020	260120	101128	103.490	12.418777	-57.245028	103.450	0.010	-0.020	-1.060	103.510	-1.400	-0.600																			1580033488.0	1.27	2.35
26/01/2020 10:11:29	26012020	260120	101129	103.550	12.418780	-57.245027	103.450	0.150	-0.170	-1.730	103.540	-1.500	-1.300																			1580033489.0	1.05	1.94
26/01/2020 10:11:30	26012020	260120	101130	103.450	12.418783	-57.245027	103.300	0.310	-0.230	-1.790	103.450	-1.600	-1.400																			1580033490.0	0.63	1.17
26/01/2020 10:11:31	26012020	260120	101131	103.280	12.418785	-57.245027	103.170	0.380	-0.190	-1.420	103.260	-1.600	-1.100																			1580033491.0	0.26	0.48
26/01/2020 10:11:32	26012020	260120	101132	103.220	12.418785	-57.245027	103.190	0.310	-0.190	-0.830	103.220	-1.500	-0.700																			1580033492.0	0.17	0.31
26/01/2020 10:11:33	26012020	260120	101133	103.280	12.418783	-57.245028	103.250	0.160	-0.260	-0.010	103.290	-1.600	0.300																			1580033493.0	0.41	0.76
26/01/2020 10:11:34	26012020	260120	101134	103.280	12.418778	-57.245028	103.250	-0.030	-0.290	1.060	103.270	-1.700	1.400																			1580033494.0	0.84	1.56
26/01/2020 10:11:35	26012020	260120	101135	103.250	12.418773	-57.245030	103.250	-0.280	-0.170	2.120	103.240	-1.500	2.400																			1580033495.0	1.23	2.28
26/01/2020 10:11:36	26012020	260120	101136	103.260	12.418767	-57.245032	103.280	-0.520	0.020	2.910	103.260	-1.400	3.200																			1580033496.0	1.36	2.52
26/01/2020 10:11:37	26012020	260120	101137	103.290	12.418762	-57.245033	103.340	-0.610	0.100	3.220	103.310	-1.300	3.600																			1580033497.0	1.17	2.17
26/01/2020 10:11:38	26012020	260120	101138	103.360	12.418760	-57.245035	103.400	-0.500	0.030	3.040	103.380	-1.300	3.400																			1580033498.0	0.71	1.31
26/01/2020 10:11:39	26012020	260120	101139	103.390	12.418758	-57.245035	103.400	-0.240	-0.110	2.400	103.390	-1.500	2.800																			1580033499.0	0.18	0.33
26/01/2020 10:11:40	26012020	260120	101140	103.380	12.418760	-57.245033	103.360	0.070	-0.180	1.280	103.380	-1.500	1.700																			1580033500.0	0.55	1.02
26/01/2020 10:11:41	26012020	260120	101141	103.380	12.418767	-57.245032	103.330	0.340	-0.130	-0.060	103.380	-1.500	0.400																			1580033501.0	1.22	2.26
26/01/2020 10:11:42	26012020	260120	101142	103.380	12.418773	-57.245030	103.300	0.490	-0.040	-1.270	103.390	-1.400	-0.800																			1580033502.0	1.61	2.98
26/01/2020 10:11:43	26012020	260120	101143	103.420	12.418780	-57.245030	103.350	0.450	-0.010	-2.030	103.430	-1.400	-1.600																			1580033503.0	1.53	2.83
26/01/2020 10:11:44	26012020	260120	101144	103.450	12.418785	-57.245028	103.350	0.300	-0.150	-2.210	103.450	-1.400	-1.800																			1580033504.0	1.05	1.94
26/01/2020 10:11:45	26012020	260120	101145	103.410	12.418787	-57.245028	103.310	0.130	-0.390	-1.810	103.390	-1.700	-1.500																			1580033505.0	0.41	0.76
26/01/2020 10:11:46	26012020	260120	101146	103.320	12.418785	-57.245028	103.210	-0.020	-0.530	-0.810	103.290	-1.900	-0.500																			1580033506.0	0.46	0.85
26/01/2020 10:11:47	26012020	260120	101147	103.180	12.418780	-57.245028	103.090	-0.160	-0.360	0.640	103.150	-1.700	0.900																			1580033507.0	1.32	2.44
26/01/2020 10:11:48	26012020	260120	101148	103.040	12.418770	-57.245032	103.010	-0.290	0.030	2.140	103.020	-1.400	2.400																			1580033508.0	1.91	3.54
26/01/2020 10:11:49	26012020	260120	101149	103.020	12.418763	-57.245035	103.050	-0.360	0.300	3.200	103.030	-1.100	3.500																			1580033509.0	1.91	3.54
26/01/2020 10:11:50	26012020	260120	101150	103.110	12.418757	-57.245037	103.140	-0.300	0.250	3.610	103.120	-1.100	4.000																			1580033510.0	1.37	2.54
26/01/2020 10:11:51	26012020	260120	101151	103.100	12.418753	-57.245038	103.050	-0.110	-0.070	3.490	103.070	-1.400	3.900																			1580033511.0	0.61	1.13
26/01/2020 10:11:52	26012020	260120	101152	102.930	12.418753	-57.245037	102.880	0.100	-0.350	2.890	102.890	-1.700	3.300																			1580033512.0	0.37	0.69
26/01/2020 10:11:53	26012020	260120	101153	102.800	12.418758	-57.245035	102.780	0.180	-0.320	1.840	102.790	-1.700	2.300																			1580033513.0	0.82	1.52
26/01/2020 10:11:54	26012020	260120	101154	102.810	12.418763	-57.245033	102.820	0.090	0.010	0.520	102.820	-1.400	1.000																			1580033514.0	1.31	2.43
26/01/2020 10:11:55	26012020	260120	101155	102.920	12.418772	-57.245035	102.920	-0.080	0.230	-0.780	102.950	-1.200	-0.300																			1580033515.0	1.61	2.98
26/01/2020 10:11:56	26012020	260120	101156	103.040	12.418777	-57.245035	102.990	-0.160	0.050	-1.720	103.040	-1.200	-1.000																			1580033516.0	1.39	2.57
26/01/2020 10:11:57	26012020	260120	101157	102.990	12.418782	-57.245033	102.850	-0.090	-0.380	-2.040	102.940	-1.700	-1.600																			1580033517.0	0.76	1.41
26/01/2020 10:11:58	26012020	260120	101158	102.700	12.418780	-57.245032	102.530	0.050	-0.660	-1.760	102.700	-2.000	-1.500																			1580033518.0	0.36	0.67
26/01/2020 10:11:59	26012020	260120	101159	102.390	12.418778	-57.245032	102.300	0.140	-0.530	-1.050	102.350	-1.900	-0.700																			1580033519.0	0.52	0.96
26/01/2020 10:12:00	26012020	260120	101200	102.260	12.418775	-57.245033	102.250	0.140	-0.130	-0.160	102.260	-1.500	0.200	1014.20	25.50	25.50	19.50	19.50	2.00	69.00	69.00	378.00	24.90	353.00	6.70	96.00	6.20	287	3394.00	27.40	27.40	1580033520.0	0.85	1.57
26/01/2020 10:12:01	26012020	260120	101201	102.310	12.418772	-57.245037	102.340	0.110	0.190	0.660	102.320	-1.200	1.000																			1580033521.0	0.99	1.83
26/01/2020 10:12:02	26012020	260120	101202	102.390	12.418767	-57.245038	102.420	0.090	0.210	1.400	102.400	-1.200	1.700																			1580033522.0	0.86	1.59
26/01/2020 10:12:03	26012020	260120	101203	102.370	12.418763	-57.245038	102.370	0.100	0.000	2.110	102.350	-1.400	2.400																			1580033523.0	0.79	1.46
26/01/2020 10:12:04	26012020	260120	101204	102.290	12.418760	-57.245038	102.310	0.030	-0.120	2.630	102.280	-1.500	3.000																			1580033524.0	0.81	1.50
26/01/2020 10:12:05	26012020	260120	101205	102.310	12.418757	-57.245038	102.370	-0.150	0.030	2.750	102.330	-1.400	3.100																			1580033525.0	0.61	1.13
26/01/2020 10:12:06	26012020	260120	101206	102.440	12.418757	-57.245040	102.510	-0.310	0.230	2.470	102.470	-1.200	2.900																			1580033526.0	0.44	0.81
26/01/2020 10:12:07	26012020	260120	101207	102.540	12.418757	-57.245042	102.550	-0.320	0.150	1.950	102.550	-1.200	2.400																			1580033527.0	0.37	0.69
26/01/2020 10:12:08	26012020	260120	101208	102.550	12.418758	-57.245042	102.510	-0.160	-0.180	1.230	102.540	-1.500	1.700																			1580033528.0	0.40	0.74
26/01/2020 10:12:09	26012020	260120	101209	102.500	12.418762	-57.245040	102.420	0.070	-0.550	0.480	102.480	-1.900	0.900																			1580033529.0	0.64	1.19
26/01/2020 10:12:10	26012020	260120	101210	102.400	12.418765	-57.245038	102.320	0.270	-0.780	-0.160	102.380	-2.100	0.300																			1580033530.0	0.76	1.41
26/01/2020 10:12:11	26012020	260120	101211	102.290	12.418767	-57.245037	102.230	0.320	-0.710	-0.600	102.280	-2.100	-0.200																			1580033531.0	0.70	1.30
26/01/2020 10:12:12	26012020	260120	101212	102.250	12.418770	-57.245037	102.210	0.180	-0.260	-0.750	102.250	-1.900	-0.300																			1580033532.0	0.44	0.81
26/01/2020 10:12:13	26012020	260120	101213	102.240	12.418770	-57.245038	102.210	-0.080	0.310	-0.580	102.240	-1.100	-0.200																			1580033533.0	0.38	0.70
26/01/2020 10:12:14	26012020	260120	101214	102.260	12.418770	-57.245040	102.240	-0.250	0.600	-0.170	102.270	-0.800	0.200																			1580033534.0	0.51	0.94
26/01/2020 10:12:15	26012020	260120	101215	102.350	12.418767	-57.245042	102.370	-0.200	0.450	0.340	102.390	-0.900	0.700																			1580033535.0	0.51	0.94
26/01/2020 10:12:16	26012020	260120	101216	102.530	12.418765	-57.245040	102.550	-0.000	0.020	0.900	102.560	-1.300	1.200																			1580033536.0	0.64	1.19
26/01/2020 10:12:17	26012020	260120	101217	102.630	12.418762	-57.245040	102.620	0.170	-0.380	1.510	102.630	-1.700	1.900																			1580033537.0	0.74	1.37
26/01/2020 10:12:18	26012020	260120	101218	102.600	12.418757	-57.245040	102.580	0.190	-0.500	2.130	102.590	-1.900	2.500																			1580033538.0	0.77	1.43
26/01/2020 10:12:19	26012020	260120	101219	102.510	12.418755	-57.245040	102.490	0.070	-0.360	2.580	102.490	-1.700	2.900																			1580033539.0	0.72	1.33
26/01/2020 10:12:20	26012020	260120	101220	102.450	12.418752	-57.245042	102.460	-0.060	-0.120	2.680	102.450	-1.600	3.100																			1580033540.0	0.57	1.06
26/01/2020 10:12:21	26012020	260120	101221	102.420	12.418752	-57.245043	102.410	-0.100	0.040	2.360	102.420	-1.300	2.800																			1580033541.0	0.33	0.61
26/01/2020 10:12:22	26012020	260120	101222	102.430	12.418755	-57.245045	102.420	-0.090	0.060	1.670	102.430	-1.300	2.400																			1580033542.0	0.45	0.83
26/01/2020 10:12:23	26012020	260120	101223	102.500	12.418758	-57.245043	102.470	-0.050	-0.080	0.810	102.510	-1.400	1.300																			1580033543.0	0.75	1.39
26/01/2020 10:12:24	26012020	260120	101224	102.550	12.418762	-57.245042	102.510	0.030	-0.290	-0.010	102.550	-1.700	0.400																			1580033544.0	0.89	1.65
26/01/2020 10:12:25	26012020	260120	101225	102.600	12.418765	-57.245040	102.560	0.120	-0.380	-0.640	102.610	-1.800	-0.200																			1580033545.0	0.88	1.63
26/01/2020 10:12:26	26012020	260120	101226	102.650	12.418768	-57.245040	102.610	0.130	-0.250	-0.970	102.660	-1.600	-0.600																			1580033546.0	0.64	1.19
26/01/2020 10:12:27	26012020	260120	101227	102.650	12.418770	-57.245040	102.560	0.060	-0.030	-0.870	102.630	-1.400	-0.500																			1580033547.0	0.33	0.61
26/01/2020 10:12:28	26012020	260120	101228	102.560	12.418770	-57.245042	102.500	-0.030	0.100	-0.420	102.550	-1.300	-0.100																			1580033548.0	0.23	0.43
26/01/2020 10:12:29	26012020	260120	101229	102.530	12.418768	-57.245042	102.510	-0.110	0.100	0.240	102.530	-1.300	0.600																			1580033549.0	0.44	0.81
26/01/2020 10:12:30	26012020	260120	101230	102.570	12.418765	-57.245043	102.600	-0.140	0.040	0.950	102.590	-1.300	1.300																			1580033550.0	0.75	1.39
26/01/2020 10:12:31	26012020	260120	101231	102.660	12.418760	-57.245045	102.690	-0.090	-0.020	1.590	102.680	-1.400	1.900																			1580033551.0	0.91	1.69
26/01/2020 10:12:32	26012020	260120	101232	102.720	12.418757	-57.245045	102.720	0.040	-0.090	2.100	102.730	-1.500	2.400																			1580033552.0	0.79	1.46
26/01/2020 10:12:33	26012020	260120	101233	102.740	12.418755	-57.245047	102.760	0.150	-0.200	2.360	102.750	-1.600	2.700																			1580033553.0	0.50	0.93
26/01/2020 10:12:34	26012020	260120	101234	102.770	12.418753	-57.245047	102.800	0.190	-0.300	2.340	102.770	-1.600	2.800																			1580033554.0	0.18	0.33
26/01/2020 10:12:35	26012020	260120	101235	102.800	12.418753	-57.245045	102.790	0.140	-0.370	2.050	102.790	-1.700	2.500																			1580033555.0	0.11	0.20
26/01/2020 10:12:36	26012020	260120	101236	102.720	12.418755	-57.245045	102.650	0.050	-0.380	1.610	102.690	-1.800	2.000																			1580033556.0	0.39	0.72
26/01/2020 10:12:37	26012020	260120	101237	102.520	12.418758	-57.245045	102.420	-0.060	-0.320	1.160	102.480	-1.700	1.600																			1580033557.0	0.55	1.02
26/01/2020 10:12:38	26012020	260120	101238	102.340	12.418760	-57.245043	102.260	-0.140	-0.140	0.660	102.320	-1.500	1.100																			1580033558.0	0.53	0.98
26/01/2020 10:12:39	26012020	260120	101239	102.290	12.418763	-57.245043	102.270	-0.160	0.130	0.040	102.310	-1.300	0.500																			1580033559.0	0.57	1.06
26/01/2020 10:12:40	26012020	260120	101240	102.400	12.418767	-57.245043	102.420	-0.120	0.360	-0.540	102.440	-1.000	-0.100																			1580033560.0	0.69	1.28
26/01/2020 10:12:41	26012020	260120	101241	102.590	12.418768	-57.245043	102.620	-0.040	0.420	-0.890	102.630	-1.000	-0.500																			1580033561.0	0.58	1.07
26/01/2020 10:12:42	26012020	260120	101242	102.790	12.418770	-57.245043	102.790	0.040	0.250	-0.910	102.820	-1.100	-0.500																			1580033562.0	0.27	0.50
26/01/2020 10:12:43	26012020	260120	101243	102.860	12.418770	-57.245043	102.800	0.170	-0.130	-0.510	102.840	-1.500	-0.200																			1580033563.0	0.10	0.19
26/01/2020 10:12:44	26012020	260120	101244	102.740	12.418768	-57.245042	102.670	0.290	-0.560	0.280	102.740	-1.800	0.300																			1580033564.0	0.37	0.69
26/01/2020 10:12:45	26012020	260120	101245	102.570	12.418765	-57.245042	102.510	0.270	-0.730	1.220	102.540	-2.100	1.500																			1580033565.0	0.62	1.15
26/01/2020 10:12:46	26012020	260120	101246	102.380	12.418762	-57.245042	102.340	0.080	-0.570	2.180	102.380	-2.000	2.200																			1580033566.0	0.83	1.54
26/01/2020 10:12:47	26012020	260120	101247	102.180	12.418758	-57.245043	102.160	-0.210	-0.230	2.950	102.140	-1.600	3.300																			1580033567.0	1.04	1.93
26/01/2020 10:12:48	26012020	260120	101248	102.060	12.418753	-57.245045	102.090	-0.440	0.080	3.280	102.060	-1.400	3.600																			1580033568.0	0.99	1.83
26/01/2020 10:12:49	26012020	260120	101249	102.080	12.418752	-57.245047	102.130	-0.450	0.080	3.030	102.100	-1.300	3.400																			1580033569.0	0.55	1.02
26/01/2020 10:12:50	26012020	260120	101250	102.160	12.418752	-57.245045	102.180	-0.180	-0.180	2.270	102.170	-1.500	2.700																			1580033570.0	0.32	0.59
26/01/2020 10:12:51	26012020	260120	101251	102.230	12.418753	-57.245042	102.230	0.240	-0.340	1.150	102.250	-1.700	1.600																			1580033571.0	0.98	1.81
26/01/2020 10:12:52	26012020	260120	101252	102.300	12.418760	-57.245038	102.250	0.490	-0.160	-0.090	102.310	-1.500	0.400																			1580033572.0	1.45	2.69
26/01/2020 10:12:53	26012020	260120	101253	102.330	12.418768	-57.245037	102.250	0.410	0.250	-1.090	102.330	-1.200	-0.600																			1580033573.0	1.67	3.09
26/01/2020 10:12:54	26012020	260120	101254	102.360	12.418775	-57.245037	102.310	0.100	0.590	-1.650	102.380	-0.800	-1.200																			1580033574.0	1.45	2.69
26/01/2020 10:12:55	26012020	260120	101255	102.450	12.418778	-57.245038	102.400	-0.170	0.610	-1.680	102.470	-0.800	-1.300																			1580033575.0	0.91	1.69
26/01/2020 10:12:56	26012020	260120	101256	102.490	12.418780	-57.245038	102.390	-0.240	0.160	-1.130	102.470	-1.200	-0.800																			1580033576.0	0.19	0.35
26/01/2020 10:12:57	26012020	260120	101257	102.340	12.418777	-57.245037	102.240	-0.160	-0.530	-0.060	102.310	-1.900	0.200																			1580033577.0	0.68	1.26
26/01/2020 10:12:58	26012020	260120	101258	102.180	12.418770	-57.245037	102.140	-0.060	-0.970	1.170	102.160	-2.300	1.500																			1580033578.0	1.40	2.59
26/01/2020 10:12:59	26012020	260120	101259	102.140	12.418763	-57.245037	102.190	-0.030	-0.840	2.220	102.150	-2.200	2.500																			1580033579.0	1.57	2.91
26/01/2020 10:13:00	26012020	260120	101300	102.230	12.418757	-57.245040	102.290	-0.050	-0.370	2.900	102.230	-1.900	3.000	1014.20	25.50	25.50	19.40	19.50	2.00	69.00	69.00	378.00	24.90	352.00	7.80	94.00	7.50	333	3351.00	27.40	27.40	1580033580.0	1.37	2.54
26/01/2020 10:13:01	26012020	260120	101301	102.280	12.418753	-57.245042	102.280	-0.030	-0.110	3.180	102.260	-1.500	3.600																			1580033581.0	0.91	1.69
26/01/2020 10:13:02	26012020	260120	101302	102.130	12.418753	-57.245042	102.070	0.070	-0.250	2.990	102.090	-1.600	3.400																			1580033582.0	0.19	0.35
26/01/2020 10:13:03	26012020	260120	101303	101.880	12.418755	-57.245038	101.810	0.180	-0.450	2.390	101.840	-1.800	2.800																			1580033583.0	0.72	1.33
26/01/2020 10:13:04	26012020	260120	101304	101.720	12.418758	-57.245035	101.700	0.150	-0.230	1.470	101.720	-1.600	1.900																			1580033584.0	1.10	2.04
26/01/2020 10:13:05	26012020	260120	101305	101.820	12.418763	-57.245033	101.860	-0.020	0.340	0.320	101.860	-1.100	0.800																			1580033585.0	1.28	2.37
26/01/2020 10:13:06	26012020	260120	101306	102.070	12.418770	-57.245033	102.100	-0.180	0.780	-0.800	102.140	-0.600	-0.300																			1580033586.0	1.41	2.61
26/01/2020 10:13:07	26012020	260120	101307	102.370	12.418777	-57.245033	102.370	-0.160	0.760	-1.630	102.420	-0.600	-1.200																			1580033587.0	1.20	2.22
26/01/2020 10:13:08	26012020	260120	101308	102.610	12.418780	-57.245032	102.580	0.050	0.320	-1.920	102.650	-1.000	-1.500																			1580033588.0	0.82	1.52
26/01/2020 10:13:09	26012020	260120	101309	102.730	12.418780	-57.245030	102.660	0.280	-0.190	-1.570	102.740	-1.500	-1.200																			1580033589.0	0.46	0.85
26/01/2020 10:13:10	26012020	260120	101310	102.720	12.418780	-57.245030	102.630	0.330	-0.520	-0.670	102.720	-1.800	-0.700																			1580033590.0	0.31	0.57
26/01/2020 10:13:11	26012020	260120	101311	102.580	12.418777	-57.245030	102.510	0.120	-0.650	0.580	102.550	-2.000	0.900																			1580033591.0	0.76	1.41
26/01/2020 10:13:12	26012020	260120	101312	102.440	12.418770	-57.245033	102.430	-0.200	-0.620	1.930	102.440	-2.000	1.800																			1580033592.0	1.28	2.37
26/01/2020 10:13:13	26012020	260120	101313	102.340	12.418763	-57.245035	102.350	-0.410	-0.570	3.150	102.330	-1.900	3.500																			1580033593.0	1.54	2.85
26/01/2020 10:13:14	26012020	260120	101314	102.220	12.418757	-57.245037	102.230	-0.390	-0.540	4.020	102.190	-1.900	4.400																			1580033594.0	1.50	2.78
26/01/2020 10:13:15	26012020	260120	101315	102.070	12.418752	-57.245037	102.100	-0.210	-0.450	4.240	102.050	-1.800	4.600																			1580033595.0	1.19	2.20
26/01/2020 10:13:16	26012020	260120	101316	102.000	12.418748	-57.245035	102.030	0.020	-0.260	3.680	101.990	-1.600	4.100																			1580033596.0	0.49	0.91
26/01/2020 10:13:17	26012020	260120	101317	102.020	12.418752	-57.245033	102.080	0.240	0.080	2.370	102.050	-1.300	2.900																			1580033597.0	0.72	1.33
26/01/2020 10:13:18	26012020	260120	101318	102.220	12.418760	-57.245032	102.320	0.380	0.510	0.510	102.290	-0.900	1.000																			1580033598.0	1.76	3.26
26/01/2020 10:13:19	26012020	260120	101319	102.590	12.418772	-57.245030	102.650	0.360	0.800	-1.350	102.670	-0.600	-0.900																			1580033599.0	2.42	4.48
26/01/2020 10:13:20	26012020	260120	101320	102.900	12.418782	-57.245028	102.850	0.230	0.640	-2.630	102.940	-0.700	-2.200																			1580033600.0	2.34	4.33
26/01/2020 10:13:21	26012020	260120	101321	102.980	12.418788	-57.245027	102.840	0.090	0.060	-3.020	102.970	-1.300	-2.600																			1580033601.0	1.52	2.82
26/01/2020 10:13:22	26012020	260120	101322	102.860	12.418790	-57.245025	102.700	0.040	-0.620	-2.550	102.820	-1.900	-2.200																			1580033602.0	0.60	1.11
26/01/2020 10:13:23	26012020	260120	101323	102.650	12.418787	-57.245023	102.530	0.060	-1.020	-1.340	102.600	-2.400	-1.000																			1580033603.0	0.66	1.22
26/01/2020 10:13:24	26012020	260120	101324	102.450	12.418782	-57.245023	102.400	0.020	-0.920	0.300	102.450	-2.400	-0.000																			1580033604.0	1.26	2.33
26/01/2020 10:13:25	26012020	260120	101325	102.370	12.418773	-57.245027	102.440	-0.180	-0.330	1.950	102.380	-1.700	2.200																			1580033605.0	1.80	3.33
26/01/2020 10:13:26	26012020	260120	101326	102.470	12.418765	-57.245030	102.590	-0.470	0.350	3.240	102.500	-1.000	3.500																			1580033606.0	2.02	3.74
26/01/2020 10:13:27	26012020	260120	101327	102.580	12.418758	-57.245035	102.640	-0.640	0.610	4.020	102.580	-0.800	4.400																			1580033607.0	1.74	3.22
26/01/2020 10:13:28	26012020	260120	101328	102.530	12.418753	-57.245037	102.540	-0.500	0.260	4.150	102.510	-1.100	4.500																			1580033608.0	1.06	1.96
26/01/2020 10:13:29	26012020	260120	101329	102.440	12.418752	-57.245033	102.470	-0.120	-0.300	3.510	102.440	-1.600	3.900																			1580033609.0	0.52	0.96
26/01/2020 10:13:30	26012020	260120	101330	102.480	12.418755	-57.245030	102.510	0.270	-0.630	2.270	102.500	-2.000	2.700																			1580033610.0	0.98	1.81
26/01/2020 10:13:31	26012020	260120	101331	102.590	12.418762	-57.245028	102.590	0.480	-0.530	0.750	102.600	-1.900	1.200																			1580033611.0	1.44	2.67
26/01/2020 10:13:32	26012020	260120	101332	102.640	12.418770	-57.245027	102.600	0.510	-0.250	-0.790	102.650	-1.600	-0.300																			1580033612.0	1.86	3.44
26/01/2020 10:13:33	26012020	260120	101333	102.640	12.418780	-57.245025	102.560	0.440	-0.050	-2.030	102.630	-1.400	-1.600																			1580033613.0	2.00	3.70
26/01/2020 10:13:34	26012020	260120	101334	102.610	12.418787	-57.245023	102.520	0.330	0.010	-2.660	102.600	-1.400	-2.200																			1580033614.0	1.65	3.06
26/01/2020 10:13:35	26012020	260120	101335	102.570	12.418790	-57.245022	102.500	0.180	0.030	-2.530	102.570	-1.300	-2.200																			1580033615.0	0.91	1.69
26/01/2020 10:13:36	26012020	260120	101336	102.510	12.418790	-57.245022	102.450	-0.030	0.070	-1.610	102.510	-1.300	-1.700																			1580033616.0	0.11	0.20
26/01/2020 10:13:37	26012020	260120	101337	102.430	12.418785	-57.245023	102.420	-0.250	0.130	-0.200	102.420	-1.200	0.100																			1580033617.0	1.02	1.89
26/01/2020 10:13:38	26012020	260120	101338	102.420	12.418778	-57.245025	102.470	-0.450	0.140	1.310	102.420	-1.200	1.100																			1580033618.0	1.60	2.96
26/01/2020 10:13:39	26012020	260120	101339	102.480	12.418770	-57.245027	102.550	-0.500	0.020	2.650	102.500	-1.300	3.000																			1580033619.0	1.89	3.50
26/01/2020 10:13:40	26012020	260120	101340	102.540	12.418762	-57.245028	102.600	-0.360	-0.200	3.560	102.550	-1.600	3.900																			1580033620.0	1.83	3.39
26/01/2020 10:13:41	26012020	260120	101341	102.540	12.418755	-57.245030	102.580	-0.080	-0.430	3.910	102.530	-1.800	4.300																			1580033621.0	1.28	2.37
26/01/2020 10:13:42	26012020	260120	101342	102.500	12.418753	-57.245028	102.520	0.160	-0.500	3.600	102.490	-1.900	4.000																			1580033622.0	0.44	0.81
26/01/2020 10:13:43	26012020	260120	101343	102.470	12.418757	-57.245028	102.470	0.230	-0.370	2.650	102.460	-1.800	3.100																			1580033623.0	0.58	1.07
26/01/2020 10:13:44	26012020	260120	101344	102.450	12.418763	-57.245028	102.410	0.150	-0.170	1.310	102.440	-1.600	1.800																			1580033624.0	1.38	2.56
26/01/2020 10:13:45	26012020	260120	101345	102.380	12.418770	-57.245027	102.300	0.060	-0.060	-0.040	102.360	-1.400	0.400																			1580033625.0	1.68	3.11
26/01/2020 10:13:46	26012020	260120	101346	102.310	12.418777	-57.245025	102.230	0.000	-0.030	-1.200	102.310	-1.400	-0.700																			1580033626.0	1.56	2.89
26/01/2020 10:13:47	26012020	260120	101347	102.320	12.418783	-57.245023	102.240	-0.000	-0.020	-1.980	102.330	-1.400	-1.500																			1580033627.0	1.21	2.24
26/01/2020 10:13:48	26012020	260120	101348	102.360	12.418785	-57.245022	102.280	0.050	-0.000	-2.210	102.370	-1.400	-1.800																			1580033628.0	0.69	1.28
26/01/2020 10:13:49	26012020	260120	101349	102.370	12.418787	-57.245022	102.300	0.160	-0.030	-1.890	102.370	-1.400	-1.500																			1580033629.0	0.18	0.33
26/01/2020 10:13:50	26012020	260120	101350	102.380	12.418785	-57.245022	102.360	0.240	-0.060	-1.140	102.390	-1.400	-0.800																			1580033630.0	0.33	0.61
26/01/2020 10:13:51	26012020	260120	101351	102.460	12.418782	-57.245022	102.480	0.170	-0.030	-0.070	102.480	-1.400	0.200																			1580033631.0	0.79	1.46
26/01/2020 10:13:52	26012020	260120	101352	102.540	12.418777	-57.245023	102.560	-0.050	0.050	1.180	102.550	-1.300	1.500																			1580033632.0	1.20	2.22
26/01/2020 10:13:53	26012020	260120	101353	102.510	12.418770	-57.245027	102.500	-0.270	-0.020	2.450	102.490	-1.400	2.700																			1580033633.0	1.41	2.61
26/01/2020 10:13:54	26012020	260120	101354	102.390	12.418763	-57.245028	102.390	-0.310	-0.310	3.470	102.360	-1.700	3.800																			1580033634.0	1.40	2.59
26/01/2020 10:13:55	26012020	260120	101355	102.260	12.418758	-57.245027	102.280	-0.150	-0.610	4.000	102.240	-2.000	4.300																			1580033635.0	1.17	2.17
26/01/2020 10:13:56	26012020	260120	101356	102.200	12.418755	-57.245027	102.220	0.030	-0.620	3.880	102.200	-2.000	4.300																			1580033636.0	0.70	1.30
26/01/2020 10:13:57	26012020	260120	101357	102.220	12.418755	-57.245027	102.270	0.070	-0.310	3.070	102.240	-1.700	3.500																			1580033637.0	0.15	0.28
26/01/2020 10:13:58	26012020	260120	101358	102.350	12.418760	-57.245027	102.410	-0.020	0.170	1.810	102.390	-1.200	2.300																			1580033638.0	0.86	1.59
26/01/2020 10:13:59	26012020	260120	101359	102.530	12.418765	-57.245027	102.540	-0.130	0.610	0.380	102.550	-0.800	0.900																			1580033639.0	1.33	2.46
26/01/2020 10:14:00	26012020	260120	101400	102.620	12.418773	-57.245027	102.590	-0.090	0.700	-1.040	102.620	-0.700	-0.100	1014.20	25.50	25.50	19.30	19.30	3.00	68.00	68.00	378.00	24.90	349.00	7.30	91.00	6.70	383	3342.00	27.40	27.40	1580033640.0	1.62	3.00
26/01/2020 10:14:01	26012020	260120	101401	102.730	12.418782	-57.245027	102.690	0.100	0.270	-2.240	102.760	-1.100	-1.800																			1580033641.0	1.71	3.17
26/01/2020 10:14:02	26012020	260120	101402	102.810	12.418787	-57.245023	102.720	0.310	-0.480	-2.780	102.810	-1.500	-2.300																			1580033642.0	1.45	2.69
26/01/2020 10:14:03	26012020	260120	101403	102.740	12.418790	-57.245020	102.630	0.400	-1.080	-2.470	102.720	-2.400	-2.100																			1580033643.0	0.83	1.54
26/01/2020 10:14:04	26012020	260120	101404	102.600	12.418787	-57.245018	102.510	0.250	-1.120	-1.380	102.570	-2.500	-1.100																			1580033644.0	0.56	1.04
26/01/2020 10:14:05	26012020	260120	101405	102.480	12.418782	-57.245020	102.440	-0.070	-0.590	0.100	102.460	-2.000	0.400																			1580033645.0	1.29	2.39
26/01/2020 10:14:06	26012020	260120	101406	102.440	12.418773	-57.245025	102.480	-0.380	0.120	1.610	102.450	-1.300	1.900																			1580033646.0	1.83	3.39
26/01/2020 10:14:07	26012020	260120	101407	102.500	12.418767	-57.245028	102.590	-0.500	0.550	2.870	102.530	-0.800	3.200																			1580033647.0	1.93	3.57
26/01/2020 10:14:08	26012020	260120	101408	102.630	12.418758	-57.245032	102.760	-0.400	0.560	3.650	102.670	-0.800	4.000																			1580033648.0	1.71	3.17
26/01/2020 10:14:09	26012020	260120	101409	102.810	12.418753	-57.245032	102.920	-0.130	0.300	3.820	102.840	-1.100	4.200																			1580033649.0	1.17	2.17
26/01/2020 10:14:10	26012020	260120	101410	102.960	12.418752	-57.245030	103.020	0.130	0.040	3.340	102.980	-1.300	3.800																			1580033650.0	0.34	0.63
26/01/2020 10:14:11	26012020	260120	101411	103.060	12.418755	-57.245030	103.090	0.290	-0.120	2.280	103.070	-1.500	2.700																			1580033651.0	0.78	1.44
26/01/2020 10:14:12	26012020	260120	101412	103.120	12.418762	-57.245028	103.110	0.340	-0.240	0.900	103.120	-1.600	1.400																			1580033652.0	1.56	2.89
26/01/2020 10:14:13	26012020	260120	101413	103.150	12.418770	-57.245027	103.090	0.250	-0.360	-0.350	103.150	-1.700	0.100																			1580033653.0	1.81	3.35
26/01/2020 10:14:14	26012020	260120	101414	103.140	12.418777	-57.245027	103.060	0.070	-0.410	-1.130	103.140	-1.800	-0.500																			1580033654.0	1.39	2.57
26/01/2020 10:14:15	26012020	260120	101415	103.040	12.418780	-57.245027	102.940	-0.110	-0.400	-1.400	103.010	-1.800	-1.000																			1580033655.0	0.69	1.28
26/01/2020 10:14:16	26012020	260120	101416	102.900	12.418782	-57.245027	102.830	-0.180	-0.390	-1.310	102.900	-1.800	-1.000																			1580033656.0	0.16	0.30
26/01/2020 10:14:17	26012020	260120	101417	102.840	12.418780	-57.245027	102.810	-0.120	-0.400	-0.950	102.840	-1.800	-0.600																			1580033657.0	0.25	0.46
26/01/2020 10:14:18	26012020	260120	101418	102.840	12.418777	-57.245027	102.840	-0.030	-0.350	-0.320	102.840	-1.700	-0.000																			1580033658.0	0.62	1.15
26/01/2020 10:14:19	26012020	260120	101419	102.850	12.418773	-57.245027	102.850	-0.010	-0.080	0.490	102.850	-1.500	0.800																			1580033659.0	0.93	1.72
26/01/2020 10:14:20	26012020	260120	101420	102.860	12.418768	-57.245028	102.910	-0.090	0.360	1.320	102.870	-1.000	1.600																			1580033660.0	1.07	1.98
26/01/2020 10:14:21	26012020	260120	101421	102.950	12.418765	-57.245032	103.060	-0.190	0.660	1.870	102.990	-0.700	2.200																			1580033661.0	0.98	1.81
26/01/2020 10:14:22	26012020	260120	101422	103.170	12.418762	-57.245033	103.270	-0.150	0.550	2.000	103.210	-0.800	2.400																			1580033662.0	0.59	1.09
26/01/2020 10:14:23	26012020	260120	101423	103.340	12.418762	-57.245033	103.380	0.070	0.030	1.900	103.360	-1.300	2.300																			1580033663.0	0.07	0.13
26/01/2020 10:14:24	26012020	260120	101424	103.350	12.418762	-57.245032	103.320	0.300	-0.560	1.770	103.340	-1.900	2.100																			1580033664.0	0.39	0.72
26/01/2020 10:14:25	26012020	260120	101425	103.230	12.418762	-57.245030	103.180	0.320	-0.790	1.620	103.200	-2.200	2.000																			1580033665.0	0.36	0.67
26/01/2020 10:14:26	26012020	260120	101426	103.030	12.418763	-57.245030	102.970	0.110	-0.600	1.390	103.030	-2.100	1.900																			1580033666.0	0.18	0.33
26/01/2020 10:14:27	26012020	260120	101427	102.880	12.418765	-57.245032	102.870	-0.160	-0.250	1.000	102.870	-1.600	1.400																			1580033667.0	0.47	0.87
26/01/2020 10:14:28	26012020	260120	101428	102.900	12.418767	-57.245033	102.920	-0.300	-0.030	0.470	102.900	-1.500	1.100																			1580033668.0	0.54	1.00
26/01/2020 10:14:29	26012020	260120	101429	102.960	12.418768	-57.245033	102.950	-0.240	0.040	-0.000	102.960	-1.300	0.400																			1580033669.0	0.40	0.74
26/01/2020 10:14:30	26012020	260120	101430	102.960	12.418770	-57.245033	102.930	-0.080	0.030	-0.320	102.960	-1.300	0.100																			1580033670.0	0.26	0.48
26/01/2020 10:14:31	26012020	260120	101431	102.930	12.418770	-57.245032	102.870	0.050	-0.000	-0.420	102.920	-1.400	-0.100																			1580033671.0	0.12	0.22
26/01/2020 10:14:32	26012020	260120	101432	102.890	12.418770	-57.245032	102.860	0.120	0.020	-0.340	102.890	-1.400	0.000																			1580033672.0	0.06	0.11
26/01/2020 10:14:33	26012020	260120	101433	102.920	12.418770	-57.245033	102.910	0.140	0.100	-0.140	102.940	-1.300	0.200																			1580033673.0	0.10	0.19
26/01/2020 10:14:34	26012020	260120	101434	102.980	12.418770	-57.245033	102.950	0.170	0.040	0.200	102.990	-1.300	0.500																			1580033674.0	0.20	0.37
26/01/2020 10:14:35	26012020	260120	101435	102.970	12.418770	-57.245033	102.920	0.220	-0.280	0.720	102.960	-1.600	1.100																			1580033675.0	0.23	0.43
26/01/2020 10:14:36	26012020	260120	101436	102.890	12.418767	-57.245033	102.860	0.190	-0.610	1.370	102.870	-2.000	1.700																			1580033676.0	0.56	1.04
26/01/2020 10:14:37	26012020	260120	101437	102.790	12.418763	-57.245033	102.800	0.010	-0.590	2.010	102.780	-2.000	2.300																			1580033677.0	0.75	1.39
26/01/2020 10:14:38	26012020	260120	101438	102.690	12.418760	-57.245033	102.700	-0.260	-0.220	2.520	102.670	-1.600	2.900																			1580033678.0	0.88	1.63
26/01/2020 10:14:39	26012020	260120	101439	102.610	12.418757	-57.245037	102.650	-0.430	0.300	2.620	102.610	-1.100	3.000																			1580033679.0	0.85	1.57
26/01/2020 10:14:40	26012020	260120	101440	102.630	12.418757	-57.245038	102.690	-0.390	0.580	2.180	102.650	-0.800	2.600																			1580033680.0	0.53	0.98
26/01/2020 10:14:41	26012020	260120	101441	102.700	12.418758	-57.245040	102.720	-0.120	0.310	1.420	102.710	-1.000	1.800																			1580033681.0	0.42	0.78
26/01/2020 10:14:42	26012020	260120	101442	102.740	12.418762	-57.245037	102.730	0.240	-0.320	0.610	102.740	-1.700	1.000																			1580033682.0	0.88	1.63
26/01/2020 10:14:43	26012020	260120	101443	102.720	12.418765	-57.245033	102.680	0.430	-0.750	-0.120	102.710	-2.100	0.300																			1580033683.0	1.17	2.17
26/01/2020 10:14:44	26012020	260120	101444	102.670	12.418768	-57.245032	102.610	0.360	-0.630	-0.650	102.650	-2.000	-0.200																			1580033684.0	0.97	1.80
26/01/2020 10:14:45	26012020	260120	101445	102.610	12.418772	-57.245032	102.550	0.090	-0.140	-0.870	102.600	-1.500	-0.500																			1580033685.0	0.70	1.30
26/01/2020 10:14:46	26012020	260120	101446	102.590	12.418773	-57.245035	102.540	-0.200	0.310	-0.660	102.580	-1.100	-0.300																			1580033686.0	0.58	1.07
26/01/2020 10:14:47	26012020	260120	101447	102.570	12.418773	-57.245037	102.530	-0.320	0.390	-0.080	102.560	-1.000	0.200																			1580033687.0	0.54	1.00
26/01/2020 10:14:48	26012020	260120	101448	102.540	12.418770	-57.245037	102.510	-0.210	0.030	0.630	102.530	-1.300	1.000																			1580033688.0	0.70	1.30
26/01/2020 10:14:49	26012020	260120	101449	102.460	12.418765	-57.245037	102.430	0.030	-0.430	1.370	102.440	-1.800	1.700																			1580033689.0	0.94	1.74
26/01/2020 10:14:50	26012020	260120	101450	102.320	12.418762	-57.245035	102.280	0.210	-0.630	2.020	102.320	-2.000	2.100																			1580033690.0	0.95	1.76
26/01/2020 10:14:51	26012020	260120	101451	102.200	12.418758	-57.245035	102.220	0.220	-0.420	2.380	102.190	-1.800	2.700																			1580033691.0	0.60	1.11
26/01/2020 10:14:52	26012020	260120	101452	102.240	12.418758	-57.245037	102.320	0.130	0.000	2.340	102.240	-1.500	2.800																			1580033692.0	0.31	0.57
26/01/2020 10:14:53	26012020	260120	101453	102.370	12.418758	-57.245037	102.420	0.050	0.270	2.000	102.390	-1.100	2.400																			1580033693.0	0.40	0.74
26/01/2020 10:14:54	26012020	260120	101454	102.440	12.418762	-57.245037	102.460	0.030	0.220	1.430	102.440	-1.100	1.800																			1580033694.0	0.48	0.89
26/01/2020 10:14:55	26012020	260120	101455	102.420	12.418763	-57.245037	102.410	0.020	-0.030	0.820	102.410	-1.400	1.200																			1580033695.0	0.72	1.33
26/01/2020 10:14:56	26012020	260120	101456	102.380	12.418767	-57.245033	102.370	-0.080	-0.180	0.310	102.380	-1.500	0.700																			1580033696.0	0.78	1.44
26/01/2020 10:14:57	26012020	260120	101457	102.390	12.418770	-57.245033	102.370	-0.280	-0.120	-0.020	102.390	-1.500	0.400																			1580033697.0	0.54	1.00
26/01/2020 10:14:58	26012020	260120	101458	102.390	12.418770	-57.245035	102.350	-0.410	-0.060	-0.110	102.380	-1.400	0.300																			1580033698.0	0.28	0.52
26/01/2020 10:14:59	26012020	260120	101459	102.320	12.418770	-57.245035	102.240	-0.300	-0.220	0.000	102.290	-1.600	0.400																			1580033699.0	0.22	0.41
26/01/2020 10:15:00	26012020	260120	101500	102.160	12.418768	-57.245035	102.080	0.020	-0.560	0.250	102.120	-1.900	0.600	1014.20	25.50	25.50	19.20	19.30	3.00	68.00	68.00	378.00	24.90	351.00	6.90	93.00	6.50	437	3259.00	27.40	27.40	1580033700.0	0.42	0.78
26/01/2020 10:15:01	26012020	260120	101501	102.010	12.418767	-57.245032	101.980	0.320	-0.620	0.510	102.000	-2.000	0.900																			1580033701.0	0.54	1.00
26/01/2020 10:15:02	26012020	260120	101502	102.010	12.418765	-57.245032	102.060	0.370	-0.170	0.700	102.010	-1.800	1.000																			1580033702.0	0.14	0.26
26/01/2020 10:15:03	26012020	260120	101503	102.160	12.418767	-57.245033	102.240	0.200	0.450	0.790	102.200	-1.000	1.200																			1580033703.0	0.46	0.85
26/01/2020 10:15:04	26012020	260120	101504	102.340	12.418768	-57.245037	102.390	0.040	0.600	0.860	102.340	-0.800	1.200																			1580033704.0	0.55	1.02
26/01/2020 10:15:05	26012020	260120	101505	102.420	12.418768	-57.245037	102.430	0.050	0.130	1.010	102.430	-1.200	1.400																			1580033705.0	0.07	0.13
26/01/2020 10:15:06	26012020	260120	101506	102.370	12.418767	-57.245033	102.340	0.190	-0.490	1.240	102.370	-1.600	1.500																			1580033706.0	0.56	1.04
26/01/2020 10:15:07	26012020	260120	101507	102.220	12.418767	-57.245032	102.200	0.250	-0.760	1.550	102.180	-2.100	1.900																			1580033707.0	0.61	1.13
26/01/2020 10:15:08	26012020	260120	101508	102.110	12.418765	-57.245030	102.150	0.100	-0.540	1.750	102.100	-1.900	2.100																			1580033708.0	0.30	0.56
26/01/2020 10:15:09	26012020	260120	101509	102.150	12.418765	-57.245032	102.230	-0.180	-0.080	1.690	102.170	-1.500	2.100																			1580033709.0	0.33	0.61
26/01/2020 10:15:10	26012020	260120	101510	102.220	12.418765	-57.245033	102.260	-0.370	0.180	1.480	102.220	-1.200	1.900																			1580033710.0	0.37	0.69
26/01/2020 10:15:11	26012020	260120	101511	102.210	12.418765	-57.245033	102.220	-0.340	0.170	1.120	102.210	-1.200	1.500																			1580033711.0	0.13	0.24
26/01/2020 10:15:12	26012020	260120	101512	102.210	12.418767	-57.245033	102.240	-0.220	0.110	0.660	102.220	-1.300	1.100																			1580033712.0	0.35	0.65
26/01/2020 10:15:13	26012020	260120	101513	102.270	12.418768	-57.245032	102.310	-0.150	0.100	0.260	102.290	-1.300	0.700																			1580033713.0	0.37	0.69
26/01/2020 10:15:14	26012020	260120	101514	102.370	12.418770	-57.245032	102.400	-0.110	0.030	-0.060	102.390	-1.300	0.300																			1580033714.0	0.32	0.59
26/01/2020 10:15:15	26012020	260120	101515	102.460	12.418772	-57.245032	102.460	-0.000	-0.200	-0.310	102.480	-1.600	0.100																			1580033715.0	0.39	0.72
26/01/2020 10:15:16	26012020	260120	101516	102.480	12.418773	-57.245030	102.430	0.210	-0.490	-0.320	102.480	-1.800	0.000																			1580033716.0	0.44	0.81
26/01/2020 10:15:17	26012020	260120	101517	102.370	12.418773	-57.245028	102.330	0.360	-0.540	-0.010	102.340	-1.900	0.400																			1580033717.0	0.30	0.56
26/01/2020 10:15:18	26012020	260120	101518	102.260	12.418772	-57.245028	102.240	0.340	-0.290	0.490	102.260	-1.800	0.700																			1580033718.0	0.19	0.35
26/01/2020 10:15:19	26012020	260120	101519	102.220	12.418772	-57.245030	102.240	0.180	0.040	0.970	102.220	-1.400	1.300																			1580033719.0	0.41	0.76
26/01/2020 10:15:20	26012020	260120	101520	102.270	12.418770	-57.245032	102.320	0.080	0.100	1.300	102.280	-1.300	1.700																			1580033720.0	0.31	0.57
26/01/2020 10:15:21	26012020	260120	101521	102.350	12.418770	-57.245032	102.410	0.110	-0.140	1.540	102.360	-1.500	1.900																			1580033721.0	0.22	0.41
26/01/2020 10:15:22	26012020	260120	101522	102.390	12.418768	-57.245030	102.440	0.150	-0.330	1.730	102.390	-1.700	2.100																			1580033722.0	0.50	0.93
26/01/2020 10:15:23	26012020	260120	101523	102.400	12.418767	-57.245028	102.460	0.050	-0.190	1.830	102.410	-1.600	2.200																			1580033723.0	0.42	0.78
26/01/2020 10:15:24	26012020	260120	101524	102.440	12.418765	-57.245028	102.490	-0.210	0.240	1.700	102.450	-1.200	2.100																			1580033724.0	0.23	0.43
26/01/2020 10:15:25	26012020	260120	101525	102.510	12.418767	-57.245032	102.550	-0.430	0.500	1.320	102.520	-0.900	1.700																			1580033725.0	0.47	0.87
26/01/2020 10:15:26	26012020	260120	101526	102.540	12.418768	-57.245032	102.550	-0.480	0.260	0.840	102.540	-1.100	1.200																			1580033726.0	0.45	0.83
26/01/2020 10:15:27	26012020	260120	101527	102.490	12.418770	-57.245030	102.440	-0.340	-0.310	0.440	102.460	-1.700	0.800																			1580033727.0	0.48	0.89
26/01/2020 10:15:28	26012020	260120	101528	102.380	12.418772	-57.245028	102.330	-0.130	-0.810	0.180	102.350	-2.200	0.600																			1580033728.0	0.60	1.11
26/01/2020 10:15:29	26012020	260120	101529	102.320	12.418772	-57.245025	102.300	0.060	-0.810	-0.010	102.320	-2.200	0.400																			1580033729.0	0.44	0.81
26/01/2020 10:15:30	26012020	260120	101530	102.330	12.418772	-57.245025	102.290	0.200	-0.290	-0.180	102.330	-1.700	0.200																			1580033730.0	0.15	0.28
26/01/2020 10:15:31	26012020	260120	101531	102.310	12.418773	-57.245027	102.250	0.270	0.290	-0.250	102.290	-1.100	0.100																			1580033731.0	0.52	0.96
26/01/2020 10:15:32	26012020	260120	101532	102.260	12.418775	-57.245028	102.230	0.300	0.510	-0.120	102.260	-0.900	0.300																			1580033732.0	0.50	0.93
26/01/2020 10:15:33	26012020	260120	101533	102.290	12.418777	-57.245028	102.280	0.310	0.300	0.160	102.300	-1.100	0.500																			1580033733.0	0.24	0.44
26/01/2020 10:15:34	26012020	260120	101534	102.340	12.418777	-57.245028	102.310	0.310	-0.240	0.550	102.340	-1.600	0.900																			1580033734.0	0.30	0.56
26/01/2020 10:15:35	26012020	260120	101535	102.300	12.418775	-57.245025	102.250	0.260	-0.790	1.080	102.280	-2.100	1.400																			1580033735.0	0.60	1.11
26/01/2020 10:15:36	26012020	260120	101536	102.170	12.418772	-57.245023	102.120	0.110	-0.900	1.720	102.140	-2.300	2.100																			1580033736.0	0.80	1.48
26/01/2020 10:15:37	26012020	260120	101537	102.040	12.418768	-57.245023	102.010	-0.160	-0.410	2.300	102.010	-1.800	2.600																			1580033737.0	0.88	1.63
26/01/2020 10:15:38	26012020	260120	101538	101.950	12.418765	-57.245027	101.970	-0.450	0.340	2.550	101.940	-1.100	2.900																			1580033738.0	0.96	1.78
26/01/2020 10:15:39	26012020	260120	101539	101.970	12.418763	-57.245030	102.030	-0.610	0.810	2.260	101.990	-0.600	2.700																			1580033739.0	0.76	1.41
26/01/2020 10:15:40	26012020	260120	101540	102.120	12.418765	-57.245030	102.190	-0.530	0.670	1.470	102.150	-0.700	1.900																			1580033740.0	0.35	0.65
26/01/2020 10:15:41	26012020	260120	101541	102.280	12.418768	-57.245028	102.310	-0.230	0.040	0.530	102.310	-1.300	1.000																			1580033741.0	0.74	1.37
26/01/2020 10:15:42	26012020	260120	101542	102.340	12.418772	-57.245025	102.320	0.180	-0.610	-0.280	102.340	-1.700	0.400																			1580033742.0	1.14	2.11
26/01/2020 10:15:43	26012020	260120	101543	102.280	12.418775	-57.245022	102.210	0.450	-0.900	-0.800	102.260	-2.300	-0.400																			1580033743.0	1.12	2.07
26/01/2020 10:15:44	26012020	260120	101544	102.150	12.418778	-57.245020	102.070	0.480	-0.730	-0.920	102.120	-2.100	-0.500																			1580033744.0	0.74	1.37
26/01/2020 10:15:45	26012020	260120	101545	102.010	12.418780	-57.245022	101.950	0.280	-0.240	-0.770	101.990	-1.600	-0.400																			1580033745.0	0.42	0.78
26/01/2020 10:15:46	26012020	260120	101546	101.950	12.418782	-57.245023	101.920	-0.020	0.290	-0.330	101.940	-1.100	0.000																			1580033746.0	0.45	0.83
26/01/2020 10:15:47	26012020	260120	101547	101.930	12.418780	-57.245027	101.930	-0.240	0.490	0.400	101.930	-0.900	0.700																			1580033747.0	0.59	1.09
26/01/2020 10:15:48	26012020	260120	101548	101.970	12.418775	-57.245027	102.030	-0.240	0.260	1.180	101.990	-1.100	1.500																			1580033748.0	0.85	1.57
26/01/2020 10:15:49	26012020	260120	101549	102.050	12.418772	-57.245027	102.130	-0.060	-0.210	1.830	102.060	-1.600	2.200																			1580033749.0	1.02	1.89
26/01/2020 10:15:50	26012020	260120	101550	102.100	12.418767	-57.245025	102.160	0.160	-0.640	2.250	102.100	-2.000	2.600																			1580033750.0	0.97	1.80
26/01/2020 10:15:51	26012020	260120	101551	102.050	12.418763	-57.245023	102.070	0.260	-0.730	2.410	102.040	-2.100	2.800																			1580033751.0	0.67	1.24
26/01/2020 10:15:52	26012020	260120	101552	101.980	12.418763	-57.245023	102.020	0.150	-0.350	2.240	101.980	-1.800	2.600																			1580033752.0	0.11	0.20
26/01/2020 10:15:53	26012020	260120	101553	102.040	12.418765	-57.245023	102.100	-0.120	0.290	1.760	102.060	-1.100	2.200																			1580033753.0	0.51	0.94
26/01/2020 10:15:54	26012020	260120	101554	102.180	12.418768	-57.245027	102.260	-0.360	0.740	1.080	102.180	-0.800	1.800																			1580033754.0	0.88	1.63
26/01/2020 10:15:55	26012020	260120	101555	102.310	12.418773	-57.245027	102.360	-0.430	0.600	0.340	102.330	-0.800	0.800																			1580033755.0	0.87	1.61
26/01/2020 10:15:56	26012020	260120	101556	102.390	12.418777	-57.245025	102.370	-0.320	-0.050	-0.280	102.390	-1.100	0.300																			1580033756.0	0.71	1.31
26/01/2020 10:15:57	26012020	260120	101557	102.360	12.418777	-57.245023	102.310	-0.110	-0.700	-0.580	102.340	-2.000	-0.200																			1580033757.0	0.66	1.22
26/01/2020 10:15:58	26012020	260120	101558	102.270	12.418777	-57.245020	102.220	0.140	-0.890	-0.570	102.260	-2.300	-0.200																			1580033758.0	0.44	0.81
26/01/2020 10:15:59	26012020	260120	101559	102.170	12.418777	-57.245020	102.110	0.340	-0.650	-0.350	102.150	-2.100	0.000																			1580033759.0	0.10	0.19
26/01/2020 10:16:00	26012020	260120	101600	102.050	12.418777	-57.245022	102.000	0.410	-0.260	0.010	102.020	-1.700	0.400	1014.20	25.50	25.50	19.20	19.30	4.00	68.00	68.00	378.00	24.90	350.00	6.80	92.00	6.60	496	3346.00	27.40	27.40	1580033760.0	0.29	0.54
26/01/2020 10:16:01	26012020	260120	101601	101.980	12.418775	-57.245023	101.980	0.310	0.110	0.410	101.980	-1.300	0.800																			1580033761.0	0.29	0.54
26/01/2020 10:16:02	26012020	260120	101602	102.030	12.418775	-57.245025	102.070	0.120	0.360	0.840	102.050	-1.000	1.200																			1580033762.0	0.28	0.52
26/01/2020 10:16:03	26012020	260120	101603	102.140	12.418773	-57.245025	102.200	-0.020	0.340	1.220	102.160	-1.000	1.600																			1580033763.0	0.30	0.56
26/01/2020 10:16:04	26012020	260120	101604	102.260	12.418772	-57.245025	102.340	-0.080	0.080	1.480	102.280	-1.300	1.800																			1580033764.0	0.36	0.67
26/01/2020 10:16:05	26012020	260120	101605	102.400	12.418770	-57.245023	102.480	-0.060	-0.160	1.650	102.430	-1.500	2.000																			1580033765.0	0.44	0.81
26/01/2020 10:16:06	26012020	260120	101606	102.530	12.418768	-57.245023	102.590	-0.030	-0.210	1.740	102.530	-1.600	2.100																			1580033766.0	0.37	0.69
26/01/2020 10:16:07	26012020	260120	101607	102.560	12.418768	-57.245025	102.590	-0.010	-0.230	1.700	102.560	-1.600	2.100																			1580033767.0	0.26	0.48
26/01/2020 10:16:08	26012020	260120	101608	102.510	12.418768	-57.245025	102.500	-0.030	-0.360	1.510	102.510	-1.700	2.000																			1580033768.0	0.07	0.13
26/01/2020 10:16:09	26012020	260120	101609	102.390	12.418768	-57.245025	102.340	-0.100	-0.520	1.260	102.350	-1.900	1.700																			1580033769.0	0.23	0.43
26/01/2020 10:16:10	26012020	260120	101610	102.180	12.418770	-57.245023	102.110	-0.200	-0.440	1.020	102.150	-1.800	1.400																			1580033770.0	0.31	0.57
26/01/2020 10:16:11	26012020	260120	101611	102.010	12.418770	-57.245023	101.980	-0.310	-0.040	0.700	102.000	-1.500	1.100																			1580033771.0	0.22	0.41
26/01/2020 10:16:12	26012020	260120	101612	101.990	12.418772	-57.245025	102.010	-0.330	0.390	0.290	102.000	-1.000	0.700																			1580033772.0	0.38	0.70
26/01/2020 10:16:13	26012020	260120	101613	102.100	12.418773	-57.245025	102.150	-0.170	0.510	-0.200	102.140	-0.900	0.200																			1580033773.0	0.40	0.74
26/01/2020 10:16:14	26012020	260120	101614	102.340	12.418775	-57.245025	102.410	0.130	0.270	-0.630	102.390	-1.100	-0.200																			1580033774.0	0.46	0.85
26/01/2020 10:16:15	26012020	260120	101615	102.600	12.418777	-57.245023	102.620	0.420	-0.120	-0.800	102.640	-1.500	-0.400																			1580033775.0	0.55	1.02
26/01/2020 10:16:16	26012020	260120	101616	102.710	12.418778	-57.245022	102.670	0.560	-0.440	-0.610	102.710	-1.800	-0.200																			1580033776.0	0.38	0.70
26/01/2020 10:16:17	26012020	260120	101617	102.630	12.418778	-57.245022	102.550	0.520	-0.570	0.010	102.600	-1.900	0.300																			1580033777.0	0.09	0.17
26/01/2020 10:16:18	26012020	260120	101618	102.420	12.418777	-57.245023	102.320	0.370	-0.540	0.930	102.370	-1.900	1.300																			1580033778.0	0.45	0.83
26/01/2020 10:16:19	26012020	260120	101619	102.140	12.418773	-57.245023	102.060	0.150	-0.410	1.960	102.080	-1.800	2.300																			1580033779.0	0.76	1.41
26/01/2020 10:16:20	26012020	260120	101620	101.890	12.418768	-57.245025	101.880	-0.100	-0.200	2.780	101.890	-1.700	2.900																			1580033780.0	0.90	1.67
26/01/2020 10:16:21	26012020	260120	101621	101.840	12.418765	-57.245025	101.930	-0.320	0.030	3.070	101.870	-1.400	3.400																			1580033781.0	0.80	1.48
26/01/2020 10:16:22	26012020	260120	101622	102.010	12.418763	-57.245027	102.120	-0.460	0.190	2.790	102.050	-1.200	3.200																			1580033782.0	0.43	0.80
26/01/2020 10:16:23	26012020	260120	101623	102.250	12.418763	-57.245027	102.350	-0.450	0.230	2.120	102.290	-1.200	2.500																			1580033783.0	0.02	0.04
26/01/2020 10:16:24	26012020	260120	101624	102.440	12.418765	-57.245025	102.490	-0.340	0.210	1.230	102.470	-1.200	1.700																			1580033784.0	0.37	0.69
26/01/2020 10:16:25	26012020	260120	101625	102.510	12.418768	-57.245025	102.500	-0.160	0.110	0.320	102.510	-1.300	0.800																			1580033785.0	0.67	1.24
26/01/2020 10:16:26	26012020	260120	101626	102.480	12.418772	-57.245023	102.440	0.010	-0.090	-0.510	102.460	-1.500	-0.100																			1580033786.0	0.95	1.76
26/01/2020 10:16:27	26012020	260120	101627	102.420	12.418777	-57.245022	102.360	0.090	-0.310	-1.110	102.410	-1.700	-0.700																			1580033787.0	1.05	1.94
26/01/2020 10:16:28	26012020	260120	101628	102.350	12.418780	-57.245022	102.280	0.100	-0.410	-1.260	102.330	-1.800	-0.900																			1580033788.0	0.79	1.46
26/01/2020 10:16:29	26012020	260120	101629	102.220	12.418782	-57.245022	102.150	0.120	-0.400	-0.930	102.180	-1.800	-0.600																			1580033789.0	0.23	0.43
26/01/2020 10:16:30	26012020	260120	101630	102.100	12.418780	-57.245022	102.090	0.180	-0.320	-0.340	102.100	-1.700	-0.200																			1580033790.0	0.31	0.57
26/01/2020 10:16:31	26012020	260120	101631	102.100	12.418778	-57.245022	102.150	0.260	-0.240	0.330	102.110	-1.600	0.700																			1580033791.0	0.57	1.06
26/01/2020 10:16:32	26012020	260120	101632	102.150	12.418775	-57.245022	102.210	0.280	-0.140	1.040	102.160	-1.500	1.400																			1580033792.0	0.71	1.31
26/01/2020 10:16:33	26012020	260120	101633	102.230	12.418772	-57.245023	102.320	0.180	0.120	1.660	102.240	-1.300	2.000																			1580033793.0	0.72	1.33
26/01/2020 10:16:34	26012020	260120	101634	102.330	12.418768	-57.245025	102.400	0.050	0.350	2.110	102.340	-1.000	2.500																			1580033794.0	0.60	1.11
26/01/2020 10:16:35	26012020	260120	101635	102.370	12.418768	-57.245025	102.420	0.020	0.220	2.260	102.370	-1.200	2.600																			1580033795.0	0.34	0.63
26/01/2020 10:16:36	26012020	260120	101636	102.340	12.418768	-57.245025	102.350	0.050	-0.220	2.140	102.320	-1.600	2.500																			1580033796.0	0.23	0.43
26/01/2020 10:16:37	26012020	260120	101637	102.240	12.418768	-57.245022	102.240	0.020	-0.540	1.920	102.220	-1.900	2.300																			1580033797.0	0.55	1.02
26/01/2020 10:16:38	26012020	260120	101638	102.170	12.418770	-57.245022	102.210	-0.190	-0.450	1.630	102.170	-1.900	2.000																			1580033798.0	0.36	0.67
26/01/2020 10:16:39	26012020	260120	101639	102.220	12.418770	-57.245022	102.280	-0.510	-0.080	1.170	102.240	-1.500	1.600																			1580033799.0	0.28	0.52
26/01/2020 10:16:40	26012020	260120	101640	102.320	12.418772	-57.245023	102.360	-0.730	0.130	0.570	102.330	-1.300	1.000																			1580033800.0	0.46	0.85
26/01/2020 10:16:41	26012020	260120	101641	102.340	12.418773	-57.245023	102.330	-0.620	-0.010	-0.010	102.340	-1.400	0.400																			1580033801.0	0.26	0.48
26/01/2020 10:16:42	26012020	260120	101642	102.280	12.418773	-57.245022	102.250	-0.200	-0.260	-0.410	102.260	-1.600	0.000																			1580033802.0	0.34	0.63
26/01/2020 10:16:43	26012020	260120	101643	102.250	12.418775	-57.245022	102.260	0.290	-0.290	-0.700	102.260	-1.700	-0.300																			1580033803.0	0.40	0.74
26/01/2020 10:16:44	26012020	260120	101644	102.350	12.418777	-57.245020	102.380	0.580	-0.010	-0.940	102.350	-1.500	-0.500																			1580033804.0	0.46	0.85
26/01/2020 10:16:45	26012020	260120	101645	102.500	12.418780	-57.245022	102.490	0.620	0.300	-0.970	102.530	-1.100	-0.600																			1580033805.0	0.72	1.33
26/01/2020 10:16:46	26012020	260120	101646	102.560	12.418782	-57.245022	102.490	0.550	0.230	-0.600	102.560	-1.100	-0.400																			1580033806.0	0.56	1.04
26/01/2020 10:16:47	26012020	260120	101647	102.490	12.418782	-57.245022	102.410	0.490	-0.240	0.160	102.460	-1.600	0.500																			1580033807.0	0.11	0.20
26/01/2020 10:16:48	26012020	260120	101648	102.340	12.418780	-57.245020	102.270	0.330	-0.710	1.180	102.310	-2.100	1.500																			1580033808.0	0.69	1.28
26/01/2020 10:16:49	26012020	260120	101649	102.210	12.418775	-57.245020	102.200	-0.010	-0.760	2.230	102.190	-2.100	2.500																			1580033809.0	1.07	1.98
26/01/2020 10:16:50	26012020	260120	101650	102.200	12.418768	-57.245020	102.250	-0.440	-0.310	3.010	102.210	-1.700	3.400																			1580033810.0	1.25	2.31
26/01/2020 10:16:51	26012020	260120	101651	102.280	12.418765	-57.245023	102.320	-0.750	0.250	3.310	102.290	-1.200	3.700																			1580033811.0	1.20	2.22
26/01/2020 10:16:52	26012020	260120	101652	102.320	12.418762	-57.245027	102.320	-0.750	0.400	3.080	102.320	-1.000	3.500																			1580033812.0	0.73	1.35
26/01/2020 10:16:53	26012020	260120	101653	102.310	12.418762	-57.245027	102.300	-0.460	0.120	2.350	102.310	-1.200	2.800																			1580033813.0	0.11	0.20
26/01/2020 10:16:54	26012020	260120	101654	102.380	12.418763	-57.245023	102.390	-0.070	-0.140	1.230	102.400	-1.500	1.700																			1580033814.0	0.76	1.41
26/01/2020 10:16:55	26012020	260120	101655	102.500	12.418770	-57.245022	102.490	0.230	-0.140	-0.080	102.530	-1.500	0.400																			1580033815.0	1.22	2.26
26/01/2020 10:16:56	26012020	260120	101656	102.590	12.418777	-57.245020	102.530	0.380	-0.030	-1.250	102.590	-1.400	-0.400																			1580033816.0	1.53	2.83
26/01/2020 10:16:57	26012020	260120	101657	102.630	12.418783	-57.245020	102.570	0.400	-0.010	-2.050	102.650	-1.400	-1.600																			1580033817.0	1.47	2.72
26/01/2020 10:16:58	26012020	260120	101658	102.690	12.418788	-57.245018	102.620	0.330	-0.080	-2.310	102.700	-1.400	-1.900																			1580033818.0	1.10	2.04
26/01/2020 10:16:59	26012020	260120	101659	102.690	12.418792	-57.245018	102.580	0.210	-0.260	-1.850	102.670	-1.600	-1.500																			1580033819.0	0.50	0.93
26/01/2020 10:17:00	26012020	260120	101700	102.530	12.418788	-57.245018	102.400	0.070	-0.540	-0.710	102.480	-1.900	-0.400	1014.30	25.50	25.50	19.30	19.40	5.00	68.00	68.00	378.00	24.90	355.00	5.90	97.00	5.60	560	3405.00	27.40	27.40	1580033820.0	0.37	0.69
26/01/2020 10:17:01	26012020	260120	101701	102.280	12.418783	-57.245018	102.210	-0.090	-0.670	0.770	102.240	-2.000	1.100																			1580033821.0	1.27	2.35
26/01/2020 10:17:02	26012020	260120	101702	102.140	12.418775	-57.245020	102.170	-0.220	-0.450	2.180	102.130	-1.800	2.500																			1580033822.0	1.78	3.30
26/01/2020 10:17:03	26012020	260120	101703	102.180	12.418767	-57.245022	102.290	-0.280	0.000	3.180	102.210	-1.400	3.500																			1580033823.0	1.77	3.28
26/01/2020 10:17:04	26012020	260120	101704	102.320	12.418762	-57.245025	102.410	-0.270	0.330	3.560	102.340	-1.100	3.900																			1580033824.0	1.28	2.37
26/01/2020 10:17:05	26012020	260120	101705	102.410	12.418758	-57.245025	102.460	-0.150	0.330	3.270	102.420	-1.000	3.700																			1580033825.0	0.55	1.02
26/01/2020 10:17:06	26012020	260120	101706	102.480	12.418760	-57.245025	102.510	0.050	0.160	2.350	102.500	-1.200	2.800																			1580033826.0	0.36	0.67
26/01/2020 10:17:07	26012020	260120	101707	102.570	12.418765	-57.245022	102.580	0.210	-0.010	1.030	102.590	-1.400	1.500																			1580033827.0	1.21	2.24
26/01/2020 10:17:08	26012020	260120	101708	102.650	12.418773	-57.245020	102.650	0.230	-0.090	-0.360	102.670	-1.500	0.100																			1580033828.0	1.76	3.26
26/01/2020 10:17:09	26012020	260120	101709	102.720	12.418782	-57.245018	102.680	0.120	-0.080	-1.450	102.720	-1.500	-1.000																			1580033829.0	1.82	3.37
26/01/2020 10:17:10	26012020	260120	101710	102.740	12.418788	-57.245018	102.700	-0.070	-0.100	-1.980	102.740	-1.400	-1.400																			1580033830.0	1.33	2.46
26/01/2020 10:17:11	26012020	260120	101711	102.760	12.418790	-57.245018	102.720	-0.230	-0.290	-1.940	102.770	-1.600	-1.600																			1580033831.0	0.50	0.93
26/01/2020 10:17:12	26012020	260120	101712	102.770	12.418788	-57.245018	102.700	-0.280	-0.600	-1.360	102.760	-2.000	-1.000																			1580033832.0	0.39	0.72
26/01/2020 10:17:13	26012020	260120	101713	102.670	12.418783	-57.245018	102.580	-0.180	-0.770	-0.320	102.630	-2.100	0.000																			1580033833.0	1.11	2.06
26/01/2020 10:17:14	26012020	260120	101714	102.490	12.418777	-57.245018	102.430	0.010	-0.580	0.940	102.450	-2.000	1.300																			1580033834.0	1.57	2.91
26/01/2020 10:17:15	26012020	260120	101715	102.350	12.418768	-57.245020	102.350	0.170	-0.080	2.080	102.330	-1.500	2.400																			1580033835.0	1.66	3.07
26/01/2020 10:17:16	26012020	260120	101716	102.300	12.418763	-57.245023	102.350	0.250	0.410	2.740	102.310	-1.000	3.100																			1580033836.0	1.25	2.31
26/01/2020 10:17:17	26012020	260120	101717	102.380	12.418762	-57.245025	102.470	0.250	0.570	2.700	102.420	-0.800	3.100																			1580033837.0	0.43	0.80
26/01/2020 10:17:18	26012020	260120	101718	102.560	12.418765	-57.245025	102.620	0.220	0.400	2.150	102.590	-1.000	2.600																			1580033838.0	0.53	0.98
26/01/2020 10:17:19	26012020	260120	101719	102.690	12.418768	-57.245023	102.690	0.120	0.140	1.460	102.700	-1.200	1.900																			1580033839.0	0.99	1.83
26/01/2020 10:17:20	26012020	260120	101720	102.740	12.418773	-57.245022	102.730	-0.050	-0.050	0.830	102.750	-1.400	1.300																			1580033840.0	0.97	1.80
26/01/2020 10:17:21	26012020	260120	101721	102.780	12.418777	-57.245022	102.760	-0.240	-0.260	0.310	102.780	-1.600	0.700																			1580033841.0	0.69	1.28
26/01/2020 10:17:22	26012020	260120	101722	102.770	12.418778	-57.245022	102.710	-0.320	-0.610	-0.020	102.770	-1.800	0.500																			1580033842.0	0.33	0.61
26/01/2020 10:17:23	26012020	260120	101723	102.650	12.418778	-57.245020	102.550	-0.280	-0.920	-0.130	102.610	-2.300	0.300																			1580033843.0	0.16	0.30
26/01/2020 10:17:24	26012020	260120	101724	102.420	12.418777	-57.245020	102.300	-0.190	-0.860	-0.020	102.370	-2.300	0.400																			1580033844.0	0.33	0.61
26/01/2020 10:17:25	26012020	260120	101725	102.140	12.418775	-57.245020	102.040	-0.090	-0.400	0.150	102.100	-1.800	0.500																			1580033845.0	0.43	0.80
26/01/2020 10:17:26	26012020	260120	101726	101.940	12.418773	-57.245022	101.880	0.040	0.140	0.260	101.920	-1.300	0.600																			1580033846.0	0.41	0.76
26/01/2020 10:17:27	26012020	260120	101727	101.930	12.418773	-57.245023	101.970	0.150	0.520	0.200	101.960	-0.900	0.600																			1580033847.0	0.21	0.39
26/01/2020 10:17:28	26012020	260120	101728	102.200	12.418775	-57.245023	102.330	0.170	0.720	-0.070	102.280	-0.700	0.300																			1580033848.0	0.36	0.67
26/01/2020 10:17:29	26012020	260120	101729	102.650	12.418778	-57.245023	102.800	0.100	0.730	-0.310	102.740	-0.700	0.100																			1580033849.0	0.45	0.83
26/01/2020 10:17:30	26012020	260120	101730	103.050	12.418778	-57.245023	103.130	0.050	0.420	-0.270	103.100	-0.900	0.100																			1580033850.0	0.25	0.46
26/01/2020 10:17:31	26012020	260120	101731	103.200	12.418777	-57.245025	103.180	0.130	-0.210	0.150	103.200	-1.600	0.500																			1580033851.0	0.23	0.43
26/01/2020 10:17:32	26012020	260120	101732	103.100	12.418775	-57.245023	103.030	0.300	-0.940	0.840	103.060	-2.300	1.200																			1580033852.0	0.55	1.02
26/01/2020 10:17:33	26012020	260120	101733	102.870	12.418772	-57.245023	102.780	0.350	-1.330	1.630	102.820	-2.700	2.000																			1580033853.0	0.72	1.33
26/01/2020 10:17:34	26012020	260120	101734	102.600	12.418768	-57.245023	102.530	0.180	-1.160	2.320	102.600	-2.700	2.400																			1580033854.0	0.75	1.39
26/01/2020 10:17:35	26012020	260120	101735	102.390	12.418765	-57.245023	102.390	-0.160	-0.550	2.630	102.370	-2.000	3.000																			1580033855.0	0.71	1.31
26/01/2020 10:17:36	26012020	260120	101736	102.360	12.418763	-57.245025	102.410	-0.490	0.160	2.440	102.360	-1.500	2.900																			1580033856.0	0.56	1.04
26/01/2020 10:17:37	26012020	260120	101737	102.480	12.418763	-57.245027	102.560	-0.620	0.670	1.840	102.510	-0.700	2.300																			1580033857.0	0.28	0.52
26/01/2020 10:17:38	26012020	260120	101738	102.720	12.418765	-57.245027	102.840	-0.510	0.860	0.880	102.790	-0.500	1.300																			1580033858.0	0.28	0.52
26/01/2020 10:17:39	26012020	260120	101739	103.110	12.418768	-57.245027	103.240	-0.240	0.780	-0.290	103.200	-0.600	0.200																			1580033859.0	0.75	1.39
26/01/2020 10:17:40	26012020	260120	101740	103.520	12.418773	-57.245025	103.580	0.080	0.460	-1.330	103.590	-0.900	-0.900																			1580033860.0	1.08	2.00
26/01/2020 10:17:41	26012020	260120	101741	103.760	12.418777	-57.245023	103.730	0.370	-0.040	-1.860	103.780	-1.400	-1.500																			1580033861.0	0.99	1.83
26/01/2020 10:17:42	26012020	260120	101742	103.770	12.418780	-57.245022	103.680	0.570	-0.570	-1.740	103.740	-1.900	-1.400																			1580033862.0	0.62	1.15
26/01/2020 10:17:43	26012020	260120	101743	103.590	12.418780	-57.245020	103.480	0.600	-0.930	-1.040	103.550	-2.300	-0.700																			1580033863.0	0.19	0.35
26/01/2020 10:17:44	26012020	260120	101744	103.370	12.418778	-57.245020	103.290	0.410	-1.010	0.160	103.320	-2.400	0.400																			1580033864.0	0.44	0.81
26/01/2020 10:17:45	26012020	260120	101745	103.160	12.418773	-57.245022	103.120	0.060	-0.820	1.620	103.120	-2.200	1.900																			1580033865.0	1.14	2.11
26/01/2020 10:17:46	26012020	260120	101746	102.990	12.418765	-57.245025	102.960	-0.310	-0.420	3.010	102.990	-2.000	2.800																			1580033866.0	1.72	3.19
26/01/2020 10:17:47	26012020	260120	101747	102.840	12.418757	-57.245027	102.860	-0.550	0.050	3.980	102.820	-1.300	4.300																			1580033867.0	1.91	3.54
26/01/2020 10:17:48	26012020	260120	101748	102.800	12.418750	-57.245028	102.850	-0.550	0.410	4.200	102.810	-1.000	4.600																			1580033868.0	1.54	2.85
26/01/2020 10:17:49	26012020	260120	101749	102.900	12.418747	-57.245030	102.990	-0.280	0.540	3.590	102.940	-0.800	4.000																			1580033869.0	0.63	1.17
26/01/2020 10:17:50	26012020	260120	101750	103.120	12.418748	-57.245028	103.210	0.130	0.430	2.220	103.170	-0.900	2.700																			1580033870.0	0.64	1.19
26/01/2020 10:17:51	26012020	260120	101751	103.400	12.418757	-57.245025	103.450	0.480	0.210	0.400	103.450	-1.200	0.900																			1580033871.0	1.80	3.33
26/01/2020 10:17:52	26012020	260120	101752	103.630	12.418767	-57.245022	103.600	0.580	0.020	-1.260	103.660	-1.400	-0.800																			1580033872.0	2.32	4.30
26/01/2020 10:17:53	26012020	260120	101753	103.710	12.418777	-57.245020	103.600	0.420	-0.130	-2.240	103.710	-1.500	-1.800																			1580033873.0	2.05	3.80
26/01/2020 10:17:54	26012020	260120	101754	103.620	12.418783	-57.245020	103.470	0.110	-0.340	-2.360	103.580	-1.700	-2.000																			1580033874.0	1.25	2.31
26/01/2020 10:17:55	26012020	260120	101755	103.400	12.418783	-57.245020	103.250	-0.220	-0.590	-1.700	103.340	-1.900	-1.400																			1580033875.0	0.21	0.39
26/01/2020 10:17:56	26012020	260120	101756	103.140	12.418780	-57.245020	103.050	-0.440	-0.810	-0.500	103.100	-2.200	-0.200																			1580033876.0	0.82	1.52
26/01/2020 10:17:57	26012020	260120	101757	103.010	12.418772	-57.245022	103.020	-0.490	-0.790	0.870	103.010	-2.200	1.200																			1580033877.0	1.66	3.07
26/01/2020 10:17:58	26012020	260120	101758	103.060	12.418762	-57.245023	103.120	-0.420	-0.380	2.140	103.080	-1.800	2.500																			1580033878.0	2.09	3.87
26/01/2020 10:17:59	26012020	260120	101759	103.160	12.418753	-57.245027	103.220	-0.290	0.270	3.040	103.170	-1.100	3.400																			1580033879.0	2.04	3.78
26/01/2020 10:18:00	26012020	260120	101800	103.240	12.418748	-57.245030	103.310	-0.070	0.710	3.260	103.260	-0.700	3.600	1014.30	25.50	25.60	19.60	19.60	6.00	69.00	69.00	378.00	24.90	360.00	6.70	103.00	6.30	629	3279.00	27.40	27.40	1580033880.0	1.37	2.54
26/01/2020 10:18:01	26012020	260120	101801	103.370	12.418748	-57.245030	103.430	0.260	0.650	2.660	103.400	-0.700	3.100																			1580033881.0	0.22	0.41
26/01/2020 10:18:02	26012020	260120	101802	103.580	12.418753	-57.245028	103.630	0.560	0.250	1.460	103.630	-1.100	1.900																			1580033882.0	1.14	2.11
26/01/2020 10:18:03	26012020	260120	101803	103.810	12.418760	-57.245025	103.790	0.670	-0.270	0.190	103.840	-1.600	0.700																			1580033883.0	1.85	3.43
26/01/2020 10:18:04	26012020	260120	101804	103.870	12.418768	-57.245022	103.760	0.500	-0.720	-0.710	103.850	-2.100	-0.300																			1580033884.0	1.78	3.30
26/01/2020 10:18:05	26012020	260120	101805	103.750	12.418773	-57.245020	103.620	0.140	-0.880	-1.100	103.720	-2.300	-0.700																			1580033885.0	1.19	2.20
26/01/2020 10:18:06	26012020	260120	101806	103.590	12.418775	-57.245018	103.490	-0.250	-0.600	-1.010	103.560	-2.000	-0.600																			1580033886.0	0.39	0.72
26/01/2020 10:18:07	26012020	260120	101807	103.520	12.418773	-57.245020	103.510	-0.500	-0.030	-0.580	103.540	-1.400	-0.200																			1580033887.0	0.47	0.87
26/01/2020 10:18:08	26012020	260120	101808	103.650	12.418770	-57.245023	103.700	-0.560	0.470	-0.030	103.700	-0.900	0.300																			1580033888.0	1.02	1.89
26/01/2020 10:18:09	26012020	260120	101809	103.870	12.418765	-57.245027	103.900	-0.410	0.520	0.580	103.890	-0.900	0.900																			1580033889.0	1.16	2.15
26/01/2020 10:18:10	26012020	260120	101810	103.940	12.418762	-57.245027	103.930	-0.100	0.080	1.220	103.940	-1.100	1.300																			1580033890.0	1.04	1.93
26/01/2020 10:18:11	26012020	260120	101811	103.940	12.418757	-57.245025	103.940	0.190	-0.390	1.660	103.950	-1.700	2.000																			1580033891.0	0.91	1.69
26/01/2020 10:18:12	26012020	260120	101812	104.040	12.418755	-57.245025	104.070	0.280	-0.490	1.830	104.040	-1.900	2.200																			1580033892.0	0.49	0.91
26/01/2020 10:18:13	26012020	260120	101813	104.210	12.418755	-57.245025	104.210	0.200	-0.290	1.790	104.230	-1.700	2.200																			1580033893.0	0.12	0.22
26/01/2020 10:18:14	26012020	260120	101814	104.300	12.418755	-57.245027	104.270	0.110	-0.070	1.640	104.300	-1.400	2.000																			1580033894.0	0.36	0.67
26/01/2020 10:18:15	26012020	260120	101815	104.300	12.418757	-57.245028	104.250	0.100	0.020	1.390	104.300	-1.400	1.800																			1580033895.0	0.31	0.57
26/01/2020 10:18:16	26012020	260120	101816	104.280	12.418758	-57.245028	104.210	0.160	-0.030	1.020	104.270	-1.400	1.400																			1580033896.0	0.29	0.54
26/01/2020 10:18:17	26012020	260120	101817	104.230	12.418760	-57.245027	104.150	0.210	-0.150	0.560	104.220	-1.500	1.000																			1580033897.0	0.50	0.93
26/01/2020 10:18:18	26012020	260120	101818	104.200	12.418763	-57.245025	104.120	0.150	-0.200	0.140	104.200	-1.600	0.600																			1580033898.0	0.66	1.22
26/01/2020 10:18:19	26012020	260120	101819	104.240	12.418765	-57.245025	104.200	-0.010	-0.140	-0.140	104.260	-1.500	0.300																			1580033899.0	0.55	1.02
26/01/2020 10:18:20	26012020	260120	101820	104.350	12.418767	-57.245025	104.320	-0.180	-0.090	-0.210	104.370	-1.500	0.200																			1580033900.0	0.26	0.48
26/01/2020 10:18:21	26012020	260120	101821	104.460	12.418767	-57.245025	104.420	-0.300	-0.090	-0.050	104.480	-1.500	0.300																			1580033901.0	0.16	0.30
26/01/2020 10:18:22	26012020	260120	101822	104.520	12.418763	-57.245027	104.460	-0.340	-0.130	0.320	104.520	-1.500	0.700																			1580033902.0	0.52	0.96
26/01/2020 10:18:23	26012020	260120	101823	104.480	12.418760	-57.245027	104.380	-0.250	-0.180	0.860	104.450	-1.600	1.200																			1580033903.0	0.80	1.48
26/01/2020 10:18:24	26012020	260120	101824	104.330	12.418757	-57.245028	104.230	-0.050	-0.180	1.370	104.330	-1.600	1.600																			1580033904.0	0.85	1.57
26/01/2020 10:18:25	26012020	260120	101825	104.210	12.418753	-57.245028	104.150	0.200	-0.080	1.610	104.200	-1.500	2.000																			1580033905.0	0.62	1.15
26/01/2020 10:18:26	26012020	260120	101826	104.220	12.418753	-57.245030	104.200	0.370	0.050	1.540	104.230	-1.300	1.900																			1580033906.0	0.17	0.31
26/01/2020 10:18:27	26012020	260120	101827	104.280	12.418755	-57.245030	104.240	0.400	0.060	1.280	104.280	-1.300	1.700																			1580033907.0	0.34	0.63
26/01/2020 10:18:28	26012020	260120	101828	104.260	12.418757	-57.245030	104.210	0.290	-0.070	1.010	104.250	-1.400	1.400																			1580033908.0	0.53	0.98
26/01/2020 10:18:29	26012020	260120	101829	104.170	12.418758	-57.245028	104.090	0.100	-0.190	0.810	104.150	-1.600	1.200																			1580033909.0	0.50	0.93
26/01/2020 10:18:30	26012020	260120	101830	104.020	12.418760	-57.245028	103.940	-0.100	-0.220	0.720	103.990	-1.600	1.100																			1580033910.0	0.31	0.57
26/01/2020 10:18:31	26012020	260120	101831	103.900	12.418762	-57.245028	103.850	-0.250	-0.230	0.670	103.880	-1.600	1.100																			1580033911.0	0.11	0.20
26/01/2020 10:18:32	26012020	260120	101832	103.800	12.418760	-57.245028	103.730	-0.300	-0.270	0.740	103.770	-1.600	1.100																			1580033912.0	0.16	0.30
26/01/2020 10:18:33	26012020	260120	101833	103.610	12.418758	-57.245028	103.550	-0.260	-0.280	0.880	103.570	-1.700	1.300																			1580033913.0	0.38	0.70
26/01/2020 10:18:34	26012020	260120	101834	103.460	12.418757	-57.245030	103.450	-0.190	-0.160	0.900	103.450	-1.500	1.300																			1580033914.0	0.37	0.69
26/01/2020 10:18:35	26012020	260120	101835	103.450	12.418757	-57.245030	103.440	-0.090	0.010	0.770	103.450	-1.400	1.200																			1580033915.0	0.18	0.33
26/01/2020 10:18:36	26012020	260120	101836	103.490	12.418757	-57.245030	103.480	0.050	0.070	0.660	103.490	-1.300	1.100																			1580033916.0	0.15	0.28
26/01/2020 10:18:37	26012020	260120	101837	103.480	12.418757	-57.245030	103.440	0.210	-0.040	0.590	103.470	-1.400	1.000																			1580033917.0	0.16	0.30
26/01/2020 10:18:38	26012020	260120	101838	103.370	12.418758	-57.245030	103.280	0.310	-0.150	0.580	103.330	-1.500	1.000																			1580033918.0	0.32	0.59
26/01/2020 10:18:39	26012020	260120	101839	103.160	12.418758	-57.245028	103.070	0.270	-0.140	0.710	103.110	-1.500	1.100																			1580033919.0	0.27	0.50
26/01/2020 10:18:40	26012020	260120	101840	102.960	12.418760	-57.245028	102.930	0.120	-0.020	0.980	102.940	-1.400	1.400																			1580033920.0	0.04	0.07
26/01/2020 10:18:41	26012020	260120	101841	102.900	12.418758	-57.245030	102.930	-0.080	0.110	1.200	102.920	-1.300	1.600																			1580033921.0	0.26	0.48
26/01/2020 10:18:42	26012020	260120	101842	102.980	12.418758	-57.245030	103.040	-0.210	0.130	1.280	103.000	-1.200	1.700																			1580033922.0	0.33	0.61
26/01/2020 10:18:43	26012020	260120	101843	103.080	12.418757	-57.245032	103.090	-0.210	-0.130	1.290	103.090	-1.500	1.700																			1580033923.0	0.21	0.39
26/01/2020 10:18:44	26012020	260120	101844	103.020	12.418757	-57.245030	102.970	-0.050	-0.580	1.360	102.980	-1.900	1.700																			1580033924.0	0.29	0.54
26/01/2020 10:18:45	26012020	260120	101845	102.790	12.418755	-57.245028	102.730	0.120	-0.810	1.440	102.740	-2.200	1.800																			1580033925.0	0.51	0.94
26/01/2020 10:18:46	26012020	260120	101846	102.570	12.418753	-57.245028	102.550	0.140	-0.510	1.500	102.540	-1.900	1.900																			1580033926.0	0.27	0.50
26/01/2020 10:18:47	26012020	260120	101847	102.480	12.418753	-57.245028	102.510	0.000	0.080	1.380	102.480	-1.500	1.900																			1580033927.0	0.26	0.48
26/01/2020 10:18:48	26012020	260120	101848	102.550	12.418755	-57.245030	102.620	-0.130	0.480	0.980	102.550	-0.900	1.400																			1580033928.0	0.55	1.02
26/01/2020 10:18:49	26012020	260120	101849	102.680	12.418758	-57.245030	102.730	-0.110	0.460	0.460	102.700	-0.900	0.900																			1580033929.0	0.68	1.26
26/01/2020 10:18:50	26012020	260120	101850	102.760	12.418762	-57.245028	102.770	0.040	0.120	0.040	102.760	-1.200	0.500																			1580033930.0	0.79	1.46
26/01/2020 10:18:51	26012020	260120	101851	102.780	12.418765	-57.245027	102.800	0.130	-0.190	-0.100	102.790	-1.500	0.300																			1580033931.0	0.66	1.22
26/01/2020 10:18:52	26012020	260120	101852	102.830	12.418765	-57.245027	102.900	0.040	-0.280	0.020	102.850	-1.600	0.400																			1580033932.0	0.28	0.52
26/01/2020 10:18:53	26012020	260120	101853	102.980	12.418765	-57.245027	103.060	-0.150	-0.270	0.330	103.000	-1.600	0.700																			1580033933.0	0.20	0.37
26/01/2020 10:18:54	26012020	260120	101854	103.060	12.418762	-57.245028	103.100	-0.270	-0.290	0.860	103.060	-1.700	1.200																			1580033934.0	0.59	1.09
26/01/2020 10:18:55	26012020	260120	101855	102.970	12.418758	-57.245030	102.970	-0.220	-0.340	1.500	102.940	-1.700	1.900																			1580033935.0	0.88	1.63
26/01/2020 10:18:56	26012020	260120	101856	102.790	12.418755	-57.245030	102.780	-0.050	-0.340	1.960	102.760	-1.700	2.300																			1580033936.0	0.83	1.54
26/01/2020 10:18:57	26012020	260120	101857	102.620	12.418752	-57.245030	102.610	0.130	-0.310	2.160	102.590	-1.700	2.500																			1580033937.0	0.47	0.87
26/01/2020 10:18:58	26012020	260120	101858	102.510	12.418752	-57.245030	102.540	0.220	-0.230	2.060	102.510	-1.600	2.500																			1580033938.0	0.13	0.24
26/01/2020 10:18:59	26012020	260120	101859	102.530	12.418753	-57.245028	102.630	0.190	-0.040	1.600	102.530	-1.500	2.200																			1580033939.0	0.36	0.67
26/01/2020 10:19:00	26012020	260120	101900	102.750	12.418757	-57.245028	102.850	0.090	0.300	0.900	102.750	-1.200	1.600	1014.30	25.60	25.60	19.30	19.40	7.00	68.00	68.00	377.00	24.90	342.00	7.20	85.00	7.00	704	3324.00	27.40	27.40	1580033940.0	0.77	1.43
26/01/2020 10:19:01	26012020	260120	101901	103.020	12.418762	-57.245028	103.110	-0.010	0.540	0.170	103.020	-0.900	0.900																			1580033941.0	1.08	2.00
26/01/2020 10:19:02	26012020	260120	101902	103.240	12.418767	-57.245028	103.260	-0.010	0.350	-0.340	103.240	-0.900	0.200																			1580033942.0	0.95	1.76
26/01/2020 10:19:03	26012020	260120	101903	103.270	12.418768	-57.245027	103.230	0.080	-0.210	-0.430	103.270	-1.300	-0.000																			1580033943.0	0.61	1.13
26/01/2020 10:19:04	26012020	260120	101904	103.150	12.418768	-57.245025	103.110	0.130	-0.690	-0.090	103.120	-2.000	0.300																			1580033944.0	0.47	0.87
26/01/2020 10:19:05	26012020	260120	101905	102.990	12.418767	-57.245025	102.970	0.020	-0.770	0.590	102.960	-2.200	0.900																			1580033945.0	0.46	0.85
26/01/2020 10:19:06	26012020	260120	101906	102.850	12.418763	-57.245025	102.850	-0.190	-0.520	1.320	102.830	-1.900	1.700																			1580033946.0	0.73	1.35
26/01/2020 10:19:07	26012020	260120	101907	102.740	12.418760	-57.245028	102.760	-0.340	-0.180	1.920	102.720	-1.600	2.300																			1580033947.0	0.89	1.65
26/01/2020 10:19:08	26012020	260120	101908	102.690	12.418757	-57.245030	102.740	-0.340	0.100	2.230	102.690	-1.400	2.500																			1580033948.0	0.79	1.46
26/01/2020 10:19:09	26012020	260120	101909	102.760	12.418755	-57.245030	102.850	-0.210	0.300	2.160	102.790	-1.100	2.600																			1580033949.0	0.50	0.93
26/01/2020 10:19:10	26012020	260120	101910	102.960	12.418755	-57.245030	103.050	-0.050	0.440	1.730	103.010	-0.900	2.200																			1580033950.0	0.07	0.13
26/01/2020 10:19:11	26012020	260120	101911	103.190	12.418757	-57.245030	103.230	0.100	0.370	1.100	103.190	-0.900	1.800																			1580033951.0	0.57	1.06
26/01/2020 10:19:12	26012020	260120	101912	103.340	12.418762	-57.245030	103.330	0.240	-0.010	0.400	103.340	-1.200	1.100																			1580033952.0	1.01	1.87
26/01/2020 10:19:13	26012020	260120	101913	103.380	12.418767	-57.245027	103.310	0.350	-0.520	-0.110	103.380	-1.700	0.500																			1580033953.0	1.12	2.07
26/01/2020 10:19:14	26012020	260120	101914	103.260	12.418768	-57.245025	103.150	0.350	-0.870	-0.210	103.260	-2.100	0.200																			1580033954.0	0.81	1.50
26/01/2020 10:19:15	26012020	260120	101915	102.990	12.418770	-57.245023	102.850	0.210	-0.920	0.150	102.990	-2.300	0.300																			1580033955.0	0.27	0.50
26/01/2020 10:19:16	26012020	260120	101916	102.650	12.418768	-57.245023	102.550	0.000	-0.600	0.750	102.650	-2.100	0.900																			1580033956.0	0.41	0.76
26/01/2020 10:19:17	26012020	260120	101917	102.430	12.418765	-57.245025	102.410	-0.200	0.070	1.180	102.430	-1.600	1.400																			1580033957.0	0.65	1.20
26/01/2020 10:19:18	26012020	260120	101918	102.460	12.418763	-57.245027	102.540	-0.310	0.760	1.240	102.460	-0.600	1.600																			1580033958.0	0.61	1.13
26/01/2020 10:19:19	26012020	260120	101919	102.720	12.418763	-57.245030	102.840	-0.270	1.000	1.040	102.790	-0.400	1.400																			1580033959.0	0.46	0.85
26/01/2020 10:19:20	26012020	260120	101920	103.060	12.418765	-57.245030	103.140	-0.100	0.580	0.840	103.060	-0.800	1.200																			1580033960.0	0.21	0.39
26/01/2020 10:19:21	26012020	260120	101921	103.290	12.418765	-57.245027	103.320	0.080	-0.140	0.720	103.320	-1.500	1.100																			1580033961.0	0.50	0.93
26/01/2020 10:19:22	26012020	260120	101922	103.340	12.418767	-57.245025	103.300	0.150	-0.690	0.730	103.340	-2.000	1.100																			1580033962.0	0.53	0.98
26/01/2020 10:19:23	26012020	260120	101923	103.230	12.418767	-57.245025	103.080	0.090	-0.870	0.940	103.230	-2.200	1.200																			1580033963.0	0.18	0.33
26/01/2020 10:19:24	26012020	260120	101924	102.880	12.418765	-57.245025	102.760	-0.000	-0.810	1.320	102.880	-2.200	1.500																			1580033964.0	0.25	0.46
26/01/2020 10:19:25	26012020	260120	101925	102.560	12.418763	-57.245025	102.480	-0.060	-0.600	1.670	102.560	-2.100	1.900																			1580033965.0	0.40	0.74
26/01/2020 10:19:26	26012020	260120	101926	102.380	12.418762	-57.245027	102.380	-0.080	-0.300	1.740	102.380	-1.800	2.100																			1580033966.0	0.27	0.50
26/01/2020 10:19:27	26012020	260120	101927	102.390	12.418763	-57.245027	102.420	-0.110	0.040	1.480	102.390	-1.500	2.000																			1580033967.0	0.09	0.17
26/01/2020 10:19:28	26012020	260120	101928	102.490	12.418765	-57.245027	102.520	-0.150	0.410	1.020	102.490	-1.100	1.600																			1580033968.0	0.35	0.65
26/01/2020 10:19:29	26012020	260120	101929	102.590	12.418767	-57.245027	102.600	-0.170	0.700	0.540	102.590	-0.800	1.100																			1580033969.0	0.49	0.91
26/01/2020 10:19:30	26012020	260120	101930	102.680	12.418768	-57.245027	102.680	-0.090	0.660	0.140	102.680	-0.600	0.700																			1580033970.0	0.48	0.89
26/01/2020 10:19:31	26012020	260120	101931	102.770	12.418770	-57.245025	102.780	0.090	0.200	-0.150	102.770	-0.900	0.400																			1580033971.0	0.39	0.72
26/01/2020 10:19:32	26012020	260120	101932	102.900	12.418772	-57.245023	102.910	0.310	-0.430	-0.340	102.900	-1.800	0.100																			1580033972.0	0.49	0.91
26/01/2020 10:19:33	26012020	260120	101933	102.980	12.418773	-57.245022	102.940	0.510	-0.890	-0.300	102.980	-2.100	0.000																			1580033973.0	0.53	0.98
26/01/2020 10:19:34	26012020	260120	101934	102.890	12.418773	-57.245020	102.810	0.580	-0.930	0.090	102.890	-2.300	0.300																			1580033974.0	0.32	0.59
26/01/2020 10:19:35	26012020	260120	101935	102.710	12.418773	-57.245022	102.640	0.380	-0.530	0.710	102.710	-2.100	0.800																			1580033975.0	0.11	0.20
26/01/2020 10:19:36	26012020	260120	101936	102.540	12.418773	-57.245023	102.510	-0.050	-0.010	1.410	102.540	-1.600	1.500																			1580033976.0	0.51	0.94
26/01/2020 10:19:37	26012020	260120	101937	102.450	12.418770	-57.245025	102.440	-0.500	0.300	2.020	102.450	-1.200	2.200																			1580033977.0	0.71	1.31
26/01/2020 10:19:38	26012020	260120	101938	102.430	12.418767	-57.245027	102.460	-0.730	0.320	2.390	102.430	-1.000	2.700																			1580033978.0	0.78	1.44
26/01/2020 10:19:39	26012020	260120	101939	102.520	12.418763	-57.245025	102.570	-0.670	0.190	2.420	102.520	-1.100	2.800																			1580033979.0	0.76	1.41
26/01/2020 10:19:40	26012020	260120	101940	102.670	12.418762	-57.245025	102.700	-0.410	0.030	2.060	102.670	-1.300	2.600																			1580033980.0	0.44	0.81
26/01/2020 10:19:41	26012020	260120	101941	102.760	12.418762	-57.245025	102.720	-0.040	-0.160	1.430	102.760	-1.500	2.100																			1580033981.0	0.22	0.41
26/01/2020 10:19:42	26012020	260120	101942	102.740	12.418765	-57.245023	102.660	0.310	-0.260	0.600	102.740	-1.600	1.400																			1580033982.0	0.70	1.30
26/01/2020 10:19:43	26012020	260120	101943	102.690	12.418770	-57.245022	102.620	0.520	-0.220	-0.300	102.690	-1.600	0.500																			1580033983.0	1.17	2.17
26/01/2020 10:19:44	26012020	260120	101944	102.740	12.418777	-57.245022	102.720	0.510	-0.130	-1.020	102.740	-1.500	-0.400																			1580033984.0	1.40	2.59
26/01/2020 10:19:45	26012020	260120	101945	102.900	12.418782	-57.245020	102.870	0.320	-0.120	-1.290	102.900	-1.500	-0.900																			1580033985.0	1.09	2.02
26/01/2020 10:19:46	26012020	260120	101946	102.940	12.418783	-57.245020	102.830	0.120	-0.230	-0.950	102.940	-1.500	-0.800																			1580033986.0	0.36	0.67
26/01/2020 10:19:47	26012020	260120	101947	102.730	12.418782	-57.245020	102.590	-0.000	-0.390	-0.140	102.730	-1.700	-0.100																			1580033987.0	0.40	0.74
26/01/2020 10:19:48	26012020	260120	101948	102.400	12.418777	-57.245020	102.300	-0.040	-0.420	0.860	102.400	-1.800	0.800																			1580033988.0	0.90	1.67
26/01/2020 10:19:49	26012020	260120	101949	102.220	12.418772	-57.245020	102.210	-0.060	-0.210	1.760	102.220	-1.700	1.800																			1580033989.0	1.07	1.98
26/01/2020 10:19:50	26012020	260120	101950	102.260	12.418768	-57.245022	102.340	-0.070	0.100	2.300	102.260	-1.400	2.500																			1580033990.0	0.91	1.69
26/01/2020 10:19:51	26012020	260120	101951	102.460	12.418767	-57.245023	102.540	-0.100	0.260	2.450	102.460	-1.100	2.800																			1580033991.0	0.52	0.96
26/01/2020 10:19:52	26012020	260120	101952	102.670	12.418765	-57.245023	102.690	-0.170	0.210	2.270	102.670	-1.100	2.800																			1580033992.0	0.09	0.17
26/01/2020 10:19:53	26012020	260120	101953	102.770	12.418767	-57.245023	102.710	-0.250	0.060	1.890	102.770	-1.300	2.500																			1580033993.0	0.21	0.39
26/01/2020 10:19:54	26012020	260120	101954	102.730	12.418768	-57.245022	102.620	-0.290	-0.060	1.400	102.730	-1.400	2.000																			1580033994.0	0.35	0.65
26/01/2020 10:19:55	26012020	260120	101955	102.600	12.418770	-57.245022	102.470	-0.200	-0.170	0.850	102.600	-1.500	1.500																			1580033995.0	0.40	0.74
26/01/2020 10:19:56	26012020	260120	101956	102.460	12.418772	-57.245022	102.340	0.000	-0.310	0.260	102.460	-1.600	0.900																			1580033996.0	0.51	0.94
26/01/2020 10:19:57	26012020	260120	101957	102.380	12.418775	-57.245020	102.260	0.240	-0.450	-0.270	102.380	-1.800	0.300																			1580033997.0	0.61	1.13
26/01/2020 10:19:58	26012020	260120	101958	102.310	12.418778	-57.245018	102.210	0.410	-0.450	-0.680	102.310	-1.800	-0.100																			1580033998.0	0.70	1.30
26/01/2020 10:19:59	26012020	260120	101959	102.320	12.418782	-57.245018	102.250	0.410	-0.240	-0.950	102.320	-1.700	-0.500																			1580033999.0	0.75	1.39
26/01/2020 10:20:00	26012020	260120	102000	102.390	12.418783	-57.245018	102.330	0.250	0.060	-0.900	102.390	-1.400	-0.600	1014.30	25.60	25.60	19.10	19.20	8.00	67.00	67.00	377.00	24.90	344.00	7.00	86.00	6.80	785	3370.00	27.40	27.40	1580034000.0	0.61	1.13
26/01/2020 10:20:01	26012020	260120	102001	102.430	12.418785	-57.245018	102.360	0.020	0.230	-0.410	102.430	-1.200	-0.300																			1580034001.0	0.21	0.39
26/01/2020 10:20:02	26012020	260120	102002	102.440	12.418782	-57.245020	102.390	-0.190	0.190	0.380	102.440	-1.100	0.400																			1580034002.0	0.56	1.04
26/01/2020 10:20:03	26012020	260120	102003	102.430	12.418778	-57.245020	102.380	-0.260	-0.090	1.290	102.430	-1.300	1.300																			1580034003.0	0.97	1.80
26/01/2020 10:20:04	26012020	260120	102004	102.370	12.418772	-57.245020	102.320	-0.180	-0.480	2.110	102.370	-1.700	2.200																			1580034004.0	1.10	2.04
26/01/2020 10:20:05	26012020	260120	102005	102.290	12.418768	-57.245020	102.250	-0.070	-0.680	2.670	102.290	-2.000	2.900																			1580034005.0	1.04	1.93
26/01/2020 10:20:06	26012020	260120	102006	102.210	12.418763	-57.245018	102.180	-0.030	-0.460	2.920	102.210	-2.000	3.300																			1580034006.0	0.77	1.43
26/01/2020 10:20:07	26012020	260120	102007	102.150	12.418763	-57.245020	102.140	-0.100	0.100	2.710	102.150	-1.500	3.300																			1580034007.0	0.40	0.74
26/01/2020 10:20:08	26012020	260120	102008	102.180	12.418763	-57.245022	102.180	-0.200	0.630	1.920	102.180	-0.900	2.700																			1580034008.0	0.52	0.96
26/01/2020 10:20:09	26012020	260120	102009	102.330	12.418768	-57.245023	102.340	-0.190	0.780	0.680	102.330	-0.600	1.600																			1580034009.0	1.06	1.96
26/01/2020 10:20:10	26012020	260120	102010	102.550	12.418775	-57.245022	102.520	0.030	0.410	-0.600	102.550	-0.800	0.300																			1580034010.0	1.42	2.63
26/01/2020 10:20:11	26012020	260120	102011	102.680	12.418782	-57.245020	102.600	0.370	-0.310	-1.570	102.680	-1.400	-0.800																			1580034011.0	1.51	2.80
26/01/2020 10:20:12	26012020	260120	102012	102.690	12.418787	-57.245017	102.570	0.600	-0.970	-2.010	102.690	-2.100	-1.500																			1580034012.0	1.36	2.52
26/01/2020 10:20:13	26012020	260120	102013	102.570	12.418790	-57.245013	102.440	0.510	-1.150	-1.720	102.570	-2.500	-1.500																			1580034013.0	0.80	1.48
26/01/2020 10:20:14	26012020	260120	102014	102.380	12.418790	-57.245013	102.270	0.090	-0.790	-0.770	102.380	-2.400	-0.800																			1580034014.0	0.16	0.30
26/01/2020 10:20:15	26012020	260120	102015	102.220	12.418785	-57.245017	102.130	-0.430	-0.180	0.540	102.220	-1.800	0.400																			1580034015.0	1.13	2.09
26/01/2020 10:20:16	26012020	260120	102016	102.070	12.418777	-57.245020	102.080	-0.740	0.310	1.840	102.070	-1.200	1.700																			1580034016.0	1.80	3.33
26/01/2020 10:20:17	26012020	260120	102017	102.070	12.418768	-57.245023	102.130	-0.710	0.520	2.850	102.070	-0.900	2.900																			1580034017.0	1.94	3.59
26/01/2020 10:20:18	26012020	260120	102018	102.180	12.418762	-57.245025	102.280	-0.410	0.480	3.280	102.180	-0.900	3.600																			1580034018.0	1.58	2.93
26/01/2020 10:20:19	26012020	260120	102019	102.400	12.418758	-57.245023	102.490	0.010	0.250	2.980	102.400	-1.000	3.600																			1580034019.0	0.75	1.39
26/01/2020 10:20:20	26012020	260120	102020	102.640	12.418760	-57.245023	102.680	0.430	-0.030	2.040	102.640	-1.300	2.900																			1580034020.0	0.41	0.76
26/01/2020 10:20:21	26012020	260120	102021	102.800	12.418765	-57.245022	102.750	0.720	-0.270	0.820	102.800	-1.600	1.700																			1580034021.0	1.34	2.48
26/01/2020 10:20:22	26012020	260120	102022	102.770	12.418773	-57.245020	102.640	0.770	-0.420	-0.250	102.770	-1.700	0.600																			1580034022.0	1.80	3.33
26/01/2020 10:20:23	26012020	260120	102023	102.630	12.418782	-57.245018	102.500	0.550	-0.420	-1.010	102.630	-1.800	-0.300																			1580034023.0	1.73	3.20
26/01/2020 10:20:24	26012020	260120	102024	102.550	12.418787	-57.245017	102.460	0.100	-0.270	-1.360	102.550	-1.700	-0.900																			1580034024.0	1.29	2.39
26/01/2020 10:20:25	26012020	260120	102025	102.590	12.418790	-57.245018	102.550	-0.420	-0.070	-1.260	102.590	-1.500	-1.000																			1580034025.0	0.57	1.06
26/01/2020 10:20:26	26012020	260120	102026	102.660	12.418788	-57.245020	102.620	-0.780	-0.030	-0.710	102.660	-1.400	-0.600																			1580034026.0	0.57	1.06
26/01/2020 10:20:27	26012020	260120	102027	102.660	12.418782	-57.245022	102.630	-0.830	-0.150	0.190	102.660	-1.500	0.200																			1580034027.0	1.36	2.52
26/01/2020 10:20:28	26012020	260120	102028	102.630	12.418773	-57.245023	102.640	-0.580	-0.260	1.100	102.630	-1.600	1.100																			1580034028.0	1.76	3.26
26/01/2020 10:20:29	26012020	260120	102029	102.650	12.418767	-57.245023	102.660	-0.160	-0.270	1.710	102.650	-1.700	1.900																			1580034029.0	1.55	2.87
26/01/2020 10:20:30	26012020	260120	102030	102.680	12.418763	-57.245025	102.720	0.270	-0.160	1.850	102.680	-1.600	2.300																			1580034030.0	0.88	1.63
26/01/2020 10:20:31	26012020	260120	102031	102.790	12.418762	-57.245025	102.840	0.550	0.040	1.520	102.790	-1.400	2.100																			1580034031.0	0.06	0.11
26/01/2020 10:20:32	26012020	260120	102032	102.980	12.418765	-57.245025	103.010	0.620	0.210	0.860	102.980	-1.200	1.500																			1580034032.0	0.74	1.37
26/01/2020 10:20:33	26012020	260120	102033	103.120	12.418772	-57.245023	103.110	0.460	0.180	0.200	103.120	-1.200	0.900																			1580034033.0	1.17	2.17
26/01/2020 10:20:34	26012020	260120	102034	103.190	12.418777	-57.245022	103.160	0.170	-0.010	-0.200	103.190	-1.300	0.300																			1580034034.0	1.05	1.94
26/01/2020 10:20:35	26012020	260120	102035	103.240	12.418778	-57.245022	103.200	-0.130	-0.240	-0.230	103.240	-1.500	0.100																			1580034035.0	0.51	0.94
26/01/2020 10:20:36	26012020	260120	102036	103.230	12.418777	-57.245022	103.160	-0.320	-0.360	0.110	103.230	-1.700	0.300																			1580034036.0	0.25	0.46
26/01/2020 10:20:37	26012020	260120	102037	103.120	12.418773	-57.245022	103.050	-0.370	-0.320	0.640	103.120	-1.700	0.800																			1580034037.0	0.79	1.46
26/01/2020 10:20:38	26012020	260120	102038	102.980	12.418768	-57.245023	102.940	-0.270	-0.200	1.170	102.980	-1.600	1.400																			1580034038.0	1.05	1.94
26/01/2020 10:20:39	26012020	260120	102039	102.920	12.418765	-57.245025	102.910	-0.080	-0.090	1.510	102.920	-1.500	1.800																			1580034039.0	1.01	1.87
26/01/2020 10:20:40	26012020	260120	102040	102.960	12.418762	-57.245025	102.960	0.120	-0.000	1.500	102.960	-1.400	1.900																			1580034040.0	0.61	1.13
26/01/2020 10:20:41	26012020	260120	102041	103.030	12.418762	-57.245025	103.040	0.270	0.000	1.190	103.030	-1.400	1.700																			1580034041.0	0.07	0.13
26/01/2020 10:20:42	26012020	260120	102042	103.120	12.418765	-57.245025	103.070	0.310	-0.150	0.790	103.120	-1.400	1.300																			1580034042.0	0.60	1.11
26/01/2020 10:20:43	26012020	260120	102043	103.110	12.418767	-57.245023	103.040	0.210	-0.290	0.550	103.110	-1.600	1.000																			1580034043.0	0.68	1.26
26/01/2020 10:20:44	26012020	260120	102044	103.060	12.418768	-57.245022	102.980	-0.030	-0.250	0.530	103.060	-1.700	0.900																			1580034044.0	0.36	0.67
26/01/2020 10:20:45	26012020	260120	102045	102.950	12.418768	-57.245023	102.840	-0.270	-0.140	0.710	102.950	-1.500	1.000																			1580034045.0	0.12	0.22
26/01/2020 10:20:46	26012020	260120	102046	102.760	12.418767	-57.245023	102.660	-0.350	-0.120	0.960	102.760	-1.500	1.300																			1580034046.0	0.43	0.80
26/01/2020 10:20:47	26012020	260120	102047	102.630	12.418763	-57.245023	102.580	-0.180	-0.100	1.090	102.630	-1.500	1.500																			1580034047.0	0.56	1.04
26/01/2020 10:20:48	26012020	260120	102048	102.640	12.418762	-57.245023	102.630	0.100	0.010	1.030	102.640	-1.400	1.500																			1580034048.0	0.34	0.63
26/01/2020 10:20:49	26012020	260120	102049	102.740	12.418762	-57.245023	102.740	0.290	0.170	0.810	102.740	-1.300	1.300																			1580034049.0	0.07	0.13
26/01/2020 10:20:50	26012020	260120	102050	102.890	12.418765	-57.245025	102.880	0.280	0.220	0.510	102.890	-1.200	1.000																			1580034050.0	0.42	0.78
26/01/2020 10:20:51	26012020	260120	102051	103.000	12.418767	-57.245025	102.960	0.160	0.040	0.310	103.000	-1.200	0.800																			1580034051.0	0.55	1.02
26/01/2020 10:20:52	26012020	260120	102052	103.040	12.418768	-57.245023	102.970	0.020	-0.310	0.340	103.040	-1.500	0.700																			1580034052.0	0.36	0.67
26/01/2020 10:20:53	26012020	260120	102053	102.980	12.418768	-57.245022	102.890	-0.100	-0.600	0.660	102.980	-1.900	0.900																			1580034053.0	0.26	0.48
26/01/2020 10:20:54	26012020	260120	102054	102.820	12.418765	-57.245022	102.740	-0.230	-0.620	1.140	102.820	-2.000	1.300																			1580034054.0	0.66	1.22
26/01/2020 10:20:55	26012020	260120	102055	102.700	12.418762	-57.245023	102.670	-0.300	-0.340	1.480	102.700	-1.900	1.800																			1580034055.0	0.80	1.48
26/01/2020 10:20:56	26012020	260120	102056	102.710	12.418758	-57.245025	102.710	-0.240	-0.000	1.570	102.710	-1.500	2.000																			1580034056.0	0.61	1.13
26/01/2020 10:20:57	26012020	260120	102057	102.780	12.418758	-57.245027	102.800	-0.040	0.180	1.380	102.780	-1.300	1.900																			1580034057.0	0.24	0.44
26/01/2020 10:20:58	26012020	260120	102058	102.940	12.418758	-57.245027	102.950	0.200	0.190	0.940	102.940	-1.200	1.500																			1580034058.0	0.22	0.41
26/01/2020 10:20:59	26012020	260120	102059	103.090	12.418762	-57.245025	103.070	0.370	0.080	0.460	103.090	-1.200	1.000																			1580034059.0	0.59	1.09
26/01/2020 10:21:00	26012020	260120	102100	103.190	12.418765	-57.245023	103.160	0.360	-0.010	0.070	103.190	-1.400	0.600	1014.30	25.60	25.60	19.30	19.30	9.00	68.00	68.00	377.00	24.90	353.00	6.50	95.00	6.10	870	3407.00	27.40	27.40	1580034060.0	0.79	1.46
26/01/2020 10:21:01	26012020	260120	102101	103.320	12.418768	-57.245022	103.300	0.150	-0.040	-0.120	103.320	-1.400	0.300																			1580034061.0	0.69	1.28
26/01/2020 10:21:02	26012020	260120	102102	103.450	12.418770	-57.245023	103.420	-0.100	-0.090	-0.030	103.450	-1.400	0.300																			1580034062.0	0.32	0.59
26/01/2020 10:21:03	26012020	260120	102103	103.500	12.418768	-57.245023	103.460	-0.230	-0.240	0.360	103.500	-1.500	0.600																			1580034063.0	0.27	0.50
26/01/2020 10:21:04	26012020	260120	102104	103.460	12.418765	-57.245023	103.380	-0.190	-0.450	0.970	103.460	-1.700	1.100																			1580034064.0	0.72	1.33
26/01/2020 10:21:05	26012020	260120	102105	103.330	12.418760	-57.245025	103.250	-0.080	-0.570	1.570	103.330	-1.900	1.700																			1580034065.0	0.96	1.78
26/01/2020 10:21:06	26012020	260120	102106	103.210	12.418757	-57.245025	103.160	-0.030	-0.470	1.940	103.210	-1.900	2.200																			1580034066.0	0.84	1.56
26/01/2020 10:21:07	26012020	260120	102107	103.160	12.418755	-57.245025	103.140	-0.060	-0.100	1.970	103.160	-1.700	2.400																			1580034067.0	0.45	0.83
26/01/2020 10:21:08	26012020	260120	102108	103.280	12.418755	-57.245027	103.320	-0.100	0.340	1.600	103.280	-1.200	2.200																			1580034068.0	0.27	0.50
26/01/2020 10:21:09	26012020	260120	102109	103.570	12.418758	-57.245027	103.610	-0.100	0.530	0.990	103.570	-0.900	1.700																			1580034069.0	0.56	1.04
26/01/2020 10:21:10	26012020	260120	102110	103.810	12.418760	-57.245027	103.770	-0.010	0.290	0.380	103.810	-0.900	1.000																			1580034070.0	0.64	1.19
26/01/2020 10:21:11	26012020	260120	102111	103.900	12.418763	-57.245025	103.810	0.110	-0.160	-0.100	103.900	-1.400	0.500																			1580034071.0	0.69	1.28
26/01/2020 10:21:12	26012020	260120	102112	103.890	12.418765	-57.245023	103.760	0.190	-0.390	-0.340	103.890	-1.700	0.100																			1580034072.0	0.63	1.17
26/01/2020 10:21:13	26012020	260120	102113	103.790	12.418767	-57.245023	103.670	0.160	-0.360	-0.270	103.790	-1.800	0.100																			1580034073.0	0.37	0.69
26/01/2020 10:21:14	26012020	260120	102114	103.690	12.418767	-57.245023	103.580	0.080	-0.310	0.120	103.690	-1.700	0.400																			1580034074.0	0.24	0.44
26/01/2020 10:21:15	26012020	260120	102115	103.560	12.418765	-57.245025	103.450	0.040	-0.360	0.640	103.560	-1.700	0.800																			1580034075.0	0.44	0.81
26/01/2020 10:21:16	26012020	260120	102116	103.390	12.418762	-57.245025	103.290	0.040	-0.450	1.160	103.390	-1.800	1.400																			1580034076.0	0.61	1.13
26/01/2020 10:21:17	26012020	260120	102117	103.290	12.418760	-57.245025	103.230	-0.030	-0.340	1.550	103.290	-1.800	1.800																			1580034077.0	0.65	1.20
26/01/2020 10:21:18	26012020	260120	102118	103.310	12.418757	-57.245025	103.300	-0.210	0.070	1.720	103.310	-1.500	2.100																			1580034078.0	0.53	0.98
26/01/2020 10:21:19	26012020	260120	102119	103.460	12.418755	-57.245027	103.480	-0.410	0.550	1.630	103.460	-1.000	2.100																			1580034079.0	0.54	1.00
26/01/2020 10:21:20	26012020	260120	102120	103.630	12.418755	-57.245030	103.630	-0.420	0.650	1.350	103.630	-0.700	1.900																			1580034080.0	0.51	0.94
26/01/2020 10:21:21	26012020	260120	102121	103.720	12.418757	-57.245030	103.650	-0.140	0.190	0.950	103.720	-0.900	1.500																			1580034081.0	0.13	0.24
26/01/2020 10:21:22	26012020	260120	102122	103.640	12.418757	-57.245028	103.480	0.280	-0.530	0.600	103.640	-1.600	1.100																			1580034082.0	0.52	0.96
26/01/2020 10:21:23	26012020	260120	102123	103.370	12.418758	-57.245025	103.180	0.570	-0.970	0.350	103.370	-2.200	0.900																			1580034083.0	0.78	1.44
26/01/2020 10:21:24	26012020	260120	102124	103.090	12.418762	-57.245022	102.940	0.540	-0.820	0.160	103.090	-2.300	0.600																			1580034084.0	0.64	1.19
26/01/2020 10:21:25	26012020	260120	102125	102.920	12.418763	-57.245023	102.840	0.260	-0.190	0.060	102.920	-1.800	0.500																			1580034085.0	0.62	1.15
26/01/2020 10:21:26	26012020	260120	102126	102.890	12.418767	-57.245025	102.860	-0.110	0.440	0.070	102.890	-1.200	0.500																			1580034086.0	0.72	1.33
26/01/2020 10:21:27	26012020	260120	102127	102.950	12.418767	-57.245028	102.940	-0.390	0.630	0.210	102.950	-0.800	0.500																			1580034087.0	0.49	0.91
26/01/2020 10:21:28	26012020	260120	102128	103.010	12.418765	-57.245028	102.970	-0.470	0.340	0.480	103.010	-0.900	0.800																			1580034088.0	0.43	0.80
26/01/2020 10:21:29	26012020	260120	102129	102.980	12.418762	-57.245028	102.910	-0.330	-0.190	0.850	102.980	-1.300	1.100																			1580034089.0	0.69	1.28
26/01/2020 10:21:30	26012020	260120	102130	102.880	12.418758	-57.245027	102.830	-0.110	-0.580	1.240	102.880	-1.800	1.500																			1580034090.0	0.80	1.48
26/01/2020 10:21:31	26012020	260120	102131	102.810	12.418755	-57.245027	102.730	0.040	-0.620	1.540	102.810	-2.000	1.800																			1580034091.0	0.68	1.26
26/01/2020 10:21:32	26012020	260120	102132	102.680	12.418753	-57.245027	102.600	0.090	-0.380	1.640	102.680	-1.900	2.000																			1580034092.0	0.47	0.87
26/01/2020 10:21:33	26012020	260120	102133	102.510	12.418753	-57.245028	102.400	0.100	-0.110	1.560	102.510	-1.600	2.000																			1580034093.0	0.28	0.52
26/01/2020 10:21:34	26012020	260120	102134	102.300	12.418753	-57.245028	102.210	0.120	0.030	1.290	102.300	-1.400	1.800																			1580034094.0	0.28	0.52
26/01/2020 10:21:35	26012020	260120	102135	102.220	12.418757	-57.245028	102.190	0.110	0.160	0.780	102.220	-1.300	1.400																			1580034095.0	0.51	0.94
26/01/2020 10:21:36	26012020	260120	102136	102.350	12.418760	-57.245028	102.360	0.030	0.310	0.150	102.350	-1.100	0.800																			1580034096.0	0.78	1.44
26/01/2020 10:21:37	26012020	260120	102137	102.550	12.418763	-57.245028	102.540	-0.070	0.350	-0.340	102.550	-1.000	0.200																			1580034097.0	0.78	1.44
26/01/2020 10:21:38	26012020	260120	102138	102.690	12.418765	-57.245028	102.640	-0.050	0.090	-0.540	102.690	-1.100	-0.100																			1580034098.0	0.49	0.91
26/01/2020 10:21:39	26012020	260120	102139	102.680	12.418767	-57.245028	102.580	0.120	-0.480	-0.410	102.680	-1.600	-0.100																			1580034099.0	0.19	0.35
26/01/2020 10:21:40	26012020	260120	102140	102.490	12.418765	-57.245025	102.340	0.320	-1.000	0.070	102.490	-2.200	0.300																			1580034100.0	0.53	0.98
26/01/2020 10:21:41	26012020	260120	102141	102.180	12.418762	-57.245023	102.060	0.360	-1.010	0.750	102.180	-2.500	0.900																			1580034101.0	0.64	1.19
26/01/2020 10:21:42	26012020	260120	102142	101.950	12.418760	-57.245025	101.910	0.130	-0.400	1.350	101.950	-2.100	1.500																			1580034102.0	0.57	1.06
26/01/2020 10:21:43	26012020	260120	102143	101.950	12.418758	-57.245027	101.980	-0.280	0.420	1.670	101.950	-1.300	2.000																			1580034103.0	0.74	1.37
26/01/2020 10:21:44	26012020	260120	102144	102.110	12.418757	-57.245030	102.160	-0.620	0.910	1.710	102.110	-0.600	2.100																			1580034104.0	0.73	1.35
26/01/2020 10:21:45	26012020	260120	102145	102.320	12.418757	-57.245032	102.350	-0.720	0.820	1.490	102.320	-0.500	2.000																			1580034105.0	0.39	0.72
26/01/2020 10:21:46	26012020	260120	102146	102.500	12.418755	-57.245032	102.490	-0.510	0.290	1.100	102.500	-0.800	1.700																			1580034106.0	0.17	0.31
26/01/2020 10:21:47	26012020	260120	102147	102.600	12.418757	-57.245030	102.540	-0.100	-0.340	0.650	102.600	-1.500	1.200																			1580034107.0	0.39	0.72
26/01/2020 10:21:48	26012020	260120	102148	102.630	12.418757	-57.245028	102.570	0.310	-0.720	0.200	102.630	-2.000	0.800																			1580034108.0	0.55	1.02
26/01/2020 10:21:49	26012020	260120	102149	102.660	12.418760	-57.245027	102.590	0.540	-0.750	-0.170	102.660	-2.100	0.400																			1580034109.0	0.62	1.15
26/01/2020 10:21:50	26012020	260120	102150	102.620	12.418763	-57.245027	102.510	0.550	-0.550	-0.310	102.620	-2.000	0.100																			1580034110.0	0.63	1.17
26/01/2020 10:21:51	26012020	260120	102151	102.450	12.418765	-57.245028	102.310	0.440	-0.310	-0.220	102.450	-1.800	0.100																			1580034111.0	0.50	0.93
26/01/2020 10:21:52	26012020	260120	102152	102.240	12.418767	-57.245028	102.140	0.270	-0.140	-0.030	102.240	-1.600	0.300																			1580034112.0	0.30	0.56
26/01/2020 10:21:53	26012020	260120	102153	102.120	12.418767	-57.245028	102.060	0.100	-0.040	0.270	102.120	-1.400	0.500																			1580034113.0	0.06	0.11
26/01/2020 10:21:54	26012020	260120	102154	102.140	12.418765	-57.245028	102.140	-0.060	0.060	0.640	102.140	-1.400	0.900																			1580034114.0	0.29	0.54
26/01/2020 10:21:55	26012020	260120	102155	102.240	12.418763	-57.245028	102.310	-0.220	0.170	0.950	102.240	-1.200	1.200																			1580034115.0	0.48	0.89
26/01/2020 10:21:56	26012020	260120	102156	102.450	12.418762	-57.245028	102.460	-0.340	0.260	1.170	102.450	-1.100	1.500																			1580034116.0	0.47	0.87
26/01/2020 10:21:57	26012020	260120	102157	102.550	12.418760	-57.245030	102.530	-0.380	0.250	1.300	102.550	-1.100	1.700																			1580034117.0	0.33	0.61
26/01/2020 10:21:58	26012020	260120	102158	102.600	12.418758	-57.245030	102.570	-0.340	0.130	1.330	102.600	-1.200	1.700																			1580034118.0	0.20	0.37
26/01/2020 10:21:59	26012020	260120	102159	102.600	12.418758	-57.245030	102.530	-0.220	-0.080	1.290	102.600	-1.400	1.700																			1580034119.0	0.13	0.24
26/01/2020 10:22:00	26012020	260120	102200	102.530	12.418758	-57.245030	102.420	-0.040	-0.320	1.140	102.530	-1.600	1.600	1014.30	25.50	25.60	19.20	19.20	10.00	67.00	68.00	377.00	24.90	347.00	7.70	89.00	7.50	961	3421.00	27.40	27.40	1580034120.0	0.04	0.07
26/01/2020 10:22:01	26012020	260120	102201	102.400	12.418758	-57.245030	102.280	0.150	-0.520	0.910	102.400	-1.800	1.400																			1580034121.0	0.20	0.37
26/01/2020 10:22:02	26012020	260120	102202	102.290	12.418762	-57.245028	102.200	0.280	-0.510	0.520	102.290	-1.900	1.100																			1580034122.0	0.42	0.78
26/01/2020 10:22:03	26012020	260120	102203	102.350	12.418763	-57.245028	102.320	0.280	-0.240	-0.010	102.350	-1.700	0.600																			1580034123.0	0.66	1.22
26/01/2020 10:22:04	26012020	260120	102204	102.510	12.418768	-57.245030	102.450	0.210	0.020	-0.380	102.510	-1.400	0.100																			1580034124.0	0.78	1.44
26/01/2020 10:22:05	26012020	260120	102205	102.550	12.418770	-57.245030	102.450	0.160	0.030	-0.420	102.550	-1.300	-0.000																			1580034125.0	0.54	1.00
26/01/2020 10:22:06	26012020	260120	102206	102.460	12.418770	-57.245028	102.320	0.120	-0.190	-0.160	102.460	-1.400	0.100																			1580034126.0	0.22	0.41
26/01/2020 10:22:07	26012020	260120	102207	102.310	12.418770	-57.245027	102.140	0.050	-0.390	0.340	102.310	-1.700	0.500																			1580034127.0	0.37	0.69
26/01/2020 10:22:08	26012020	260120	102208	102.120	12.418767	-57.245027	102.040	-0.040	-0.340	0.860	102.120	-1.800	1.100																			1580034128.0	0.52	0.96
26/01/2020 10:22:09	26012020	260120	102209	102.050	12.418765	-57.245027	101.980	-0.110	-0.120	1.290	102.050	-1.600	1.500																			1580034129.0	0.56	1.04
26/01/2020 10:22:10	26012020	260120	102210	101.980	12.418762	-57.245028	101.950	-0.130	0.090	1.550	101.980	-1.400	1.900																			1580034130.0	0.54	1.00
26/01/2020 10:22:11	26012020	260120	102211	102.030	12.418762	-57.245028	102.050	-0.140	0.280	1.500	102.030	-1.200	2.000																			1580034131.0	0.30	0.56
26/01/2020 10:22:12	26012020	260120	102212	102.240	12.418762	-57.245028	102.300	-0.170	0.430	1.130	102.240	-1.000	1.700																			1580034132.0	0.17	0.31
26/01/2020 10:22:13	26012020	260120	102213	102.570	12.418765	-57.245030	102.630	-0.200	0.470	0.530	102.570	-0.900	1.200																			1580034133.0	0.54	1.00
26/01/2020 10:22:14	26012020	260120	102214	102.850	12.418768	-57.245030	102.810	-0.170	0.230	-0.010	102.850	-1.000	0.600																			1580034134.0	0.71	1.31
26/01/2020 10:22:15	26012020	260120	102215	102.850	12.418770	-57.245028	102.710	-0.040	-0.340	-0.240	102.850	-1.500	0.200																			1580034135.0	0.53	0.98
26/01/2020 10:22:16	26012020	260120	102216	102.620	12.418770	-57.245027	102.450	0.150	-0.960	-0.110	102.620	-2.100	0.200																			1580034136.0	0.41	0.76
26/01/2020 10:22:17	26012020	260120	102217	102.330	12.418770	-57.245025	102.180	0.320	-1.200	0.240	102.330	-2.500	0.500																			1580034137.0	0.42	0.78
26/01/2020 10:22:18	26012020	260120	102218	102.120	12.418770	-57.245025	102.030	0.370	-0.910	0.540	102.120	-2.400	0.800																			1580034138.0	0.20	0.37
26/01/2020 10:22:19	26012020	260120	102219	102.060	12.418768	-57.245025	102.000	0.270	-0.320	0.730	102.060	-1.900	1.100																			1580034139.0	0.16	0.30
26/01/2020 10:22:20	26012020	260120	102220	102.060	12.418768	-57.245027	102.020	0.040	0.280	0.850	102.060	-1.300	1.200																			1580034140.0	0.26	0.48
26/01/2020 10:22:21	26012020	260120	102221	102.090	12.418768	-57.245028	102.110	-0.190	0.740	0.870	102.090	-0.800	1.300																			1580034141.0	0.27	0.50
26/01/2020 10:22:22	26012020	260120	102222	102.280	12.418768	-57.245028	102.330	-0.300	0.940	0.680	102.280	-0.500	1.200																			1580034142.0	0.20	0.37
26/01/2020 10:22:23	26012020	260120	102223	102.620	12.418768	-57.245028	102.690	-0.240	0.730	0.310	102.620	-0.500	0.900																			1580034143.0	0.22	0.41
26/01/2020 10:22:24	26012020	260120	102224	102.950	12.418770	-57.245028	102.950	-0.050	0.070	0.010	102.950	-1.000	0.500																			1580034144.0	0.41	0.76
26/01/2020 10:22:25	26012020	260120	102225	103.020	12.418772	-57.245025	102.920	0.160	-0.740	-0.030	103.020	-1.800	0.400																			1580034145.0	0.55	1.02
26/01/2020 10:22:26	26012020	260120	102226	102.850	12.418772	-57.245023	102.710	0.260	-1.240	0.190	102.850	-2.500	0.500																			1580034146.0	0.57	1.06
26/01/2020 10:22:27	26012020	260120	102227	102.600	12.418772	-57.245022	102.480	0.140	-1.080	0.590	102.600	-2.600	0.800																			1580034147.0	0.24	0.44
26/01/2020 10:22:28	26012020	260120	102228	102.380	12.418770	-57.245023	102.270	-0.110	-0.450	1.070	102.380	-2.100	1.300																			1580034148.0	0.42	0.78
26/01/2020 10:22:29	26012020	260120	102229	102.210	12.418768	-57.245027	102.160	-0.320	0.270	1.390	102.210	-1.400	1.700																			1580034149.0	0.72	1.33
26/01/2020 10:22:30	26012020	260120	102230	102.260	12.418767	-57.245028	102.320	-0.360	0.760	1.260	102.260	-0.800	1.800																			1580034150.0	0.54	1.00
26/01/2020 10:22:31	26012020	260120	102231	102.570	12.418767	-57.245028	102.650	-0.250	0.820	0.710	102.570	-0.500	1.400																			1580034151.0	0.26	0.48
26/01/2020 10:22:32	26012020	260120	102232	102.890	12.418770	-57.245028	102.900	-0.060	0.390	0.080	102.890	-0.700	0.700																			1580034152.0	0.52	0.96
26/01/2020 10:22:33	26012020	260120	102233	103.010	12.418772	-57.245027	102.920	0.170	-0.300	-0.340	103.010	-1.400	0.200																			1580034153.0	0.69	1.28
26/01/2020 10:22:34	26012020	260120	102234	102.930	12.418773	-57.245023	102.790	0.400	-0.860	-0.440	102.930	-2.000	-0.000																			1580034154.0	0.66	1.22
26/01/2020 10:22:35	26012020	260120	102235	102.760	12.418773	-57.245022	102.620	0.520	-1.060	-0.310	102.760	-2.400	0.000																			1580034155.0	0.42	0.78
26/01/2020 10:22:36	26012020	260120	102236	102.530	12.418775	-57.245020	102.390	0.440	-0.890	-0.030	102.530	-2.400	0.300																			1580034156.0	0.16	0.30
26/01/2020 10:22:37	26012020	260120	102237	102.310	12.418775	-57.245022	102.210	0.160	-0.360	0.310	102.310	-2.000	0.600																			1580034157.0	0.06	0.11
26/01/2020 10:22:38	26012020	260120	102238	102.220	12.418773	-57.245022	102.200	-0.220	0.350	0.600	102.220	-1.300	0.900																			1580034158.0	0.31	0.57
26/01/2020 10:22:39	26012020	260120	102239	102.350	12.418773	-57.245025	102.400	-0.540	0.920	0.750	102.350	-0.600	1.100																			1580034159.0	0.51	0.94
26/01/2020 10:22:40	26012020	260120	102240	102.590	12.418772	-57.245027	102.610	-0.640	0.970	0.780	102.590	-0.300	1.200																			1580034160.0	0.48	0.89
26/01/2020 10:22:41	26012020	260120	102241	102.760	12.418770	-57.245027	102.740	-0.450	0.460	0.760	102.760	-0.600	1.200																			1580034161.0	0.33	0.61
26/01/2020 10:22:42	26012020	260120	102242	102.840	12.418768	-57.245025	102.800	-0.070	-0.260	0.670	102.840	-1.300	1.100																			1580034162.0	0.52	0.96
26/01/2020 10:22:43	26012020	260120	102243	102.870	12.418768	-57.245023	102.790	0.300	-0.790	0.560	102.870	-2.000	1.000																			1580034163.0	0.46	0.85
26/01/2020 10:22:44	26012020	260120	102244	102.780	12.418768	-57.245022	102.660	0.520	-0.960	0.500	102.780	-2.300	0.900																			1580034164.0	0.23	0.43
26/01/2020 10:22:45	26012020	260120	102245	102.590	12.418770	-57.245022	102.440	0.530	-0.770	0.460	102.590	-2.200	0.900																			1580034165.0	0.30	0.56
26/01/2020 10:22:46	26012020	260120	102246	102.350	12.418772	-57.245022	102.210	0.340	-0.400	0.390	102.350	-1.900	0.800																			1580034166.0	0.46	0.85
26/01/2020 10:22:47	26012020	260120	102247	102.150	12.418773	-57.245023	102.040	0.050	0.000	0.280	102.150	-1.500	0.700																			1580034167.0	0.47	0.87
26/01/2020 10:22:48	26012020	260120	102248	102.070	12.418775	-57.245023	102.020	-0.230	0.300	0.170	102.070	-1.200	0.600																			1580034168.0	0.31	0.57
26/01/2020 10:22:49	26012020	260120	102249	102.160	12.418775	-57.245023	102.140	-0.420	0.390	0.110	102.160	-1.000	0.500																			1580034169.0	0.07	0.13
26/01/2020 10:22:50	26012020	260120	102250	102.310	12.418775	-57.245023	102.290	-0.460	0.260	0.130	102.310	-1.000	0.500																			1580034170.0	0.25	0.46
26/01/2020 10:22:51	26012020	260120	102251	102.430	12.418773	-57.245023	102.400	-0.300	-0.010	0.160	102.430	-1.300	0.500																			1580034171.0	0.41	0.76
26/01/2020 10:22:52	26012020	260120	102252	102.480	12.418772	-57.245022	102.400	0.010	-0.260	0.230	102.480	-1.500	0.600																			1580034172.0	0.37	0.69
26/01/2020 10:22:53	26012020	260120	102253	102.400	12.418770	-57.245022	102.290	0.320	-0.300	0.350	102.400	-1.700	0.700																			1580034173.0	0.25	0.46
26/01/2020 10:22:54	26012020	260120	102254	102.260	12.418770	-57.245022	102.150	0.450	-0.120	0.450	102.260	-1.600	0.800																			1580034174.0	0.10	0.19
26/01/2020 10:22:55	26012020	260120	102255	102.180	12.418772	-57.245023	102.110	0.380	0.050	0.440	102.180	-1.400	0.900																			1580034175.0	0.36	0.67
26/01/2020 10:22:56	26012020	260120	102256	102.220	12.418773	-57.245023	102.170	0.190	-0.020	0.380	102.220	-1.300	0.800																			1580034176.0	0.45	0.83
26/01/2020 10:22:57	26012020	260120	102257	102.270	12.418775	-57.245023	102.220	-0.020	-0.240	0.420	102.270	-1.500	0.800																			1580034177.0	0.30	0.56
26/01/2020 10:22:58	26012020	260120	102258	102.280	12.418775	-57.245022	102.190	-0.180	-0.350	0.570	102.280	-1.700	0.900																			1580034178.0	0.13	0.24
26/01/2020 10:22:59	26012020	260120	102259	102.220	12.418773	-57.245023	102.140	-0.260	-0.320	0.720	102.220	-1.700	1.100																			1580034179.0	0.36	0.67
26/01/2020 10:23:00	26012020	260120	102300	102.190	12.418770	-57.245023	102.120	-0.250	-0.270	0.840	102.190	-1.600	1.200	1014.30	25.50	25.60	19.30	19.30	12.00	68.00	68.00	377.00	24.90	354.00	6.90	96.00	6.80	1058	3399.00	27.40	27.40	1580034180.0	0.48	0.89
26/01/2020 10:23:01	26012020	260120	102301	102.160	12.418768	-57.245023	102.070	-0.140	-0.270	0.950	102.160	-1.600	1.300																			1580034181.0	0.48	0.89
26/01/2020 10:23:02	26012020	260120	102302	102.090	12.418767	-57.245023	101.980	0.030	-0.240	0.900	102.090	-1.600	1.300																			1580034182.0	0.33	0.61
26/01/2020 10:23:03	26012020	260120	102303	102.040	12.418767	-57.245023	101.960	0.180	-0.120	0.560	102.040	-1.500	1.100																			1580034183.0	0.17	0.31
26/01/2020 10:23:04	26012020	260120	102304	102.140	12.418770	-57.245023	102.100	0.190	0.140	-0.010	102.140	-1.300	0.600																			1580034184.0	0.55	1.02
26/01/2020 10:23:05	26012020	260120	102305	102.350	12.418773	-57.245023	102.300	0.070	0.400	-0.530	102.350	-1.100	0.100																			1580034185.0	0.75	1.39
26/01/2020 10:23:06	26012020	260120	102306	102.570	12.418777	-57.245023	102.530	-0.060	0.450	-0.820	102.570	-0.900	-0.300																			1580034186.0	0.67	1.24
26/01/2020 10:23:07	26012020	260120	102307	102.790	12.418778	-57.245025	102.740	-0.070	0.160	-0.810	102.790	-1.000	-0.500																			1580034187.0	0.34	0.63
26/01/2020 10:23:08	26012020	260120	102308	102.900	12.418777	-57.245023	102.820	0.050	-0.360	-0.460	102.900	-1.500	-0.200																			1580034188.0	0.14	0.26
26/01/2020 10:23:09	26012020	260120	102309	102.880	12.418775	-57.245023	102.760	0.170	-0.750	0.170	102.880	-2.000	0.300																			1580034189.0	0.56	1.04
26/01/2020 10:23:10	26012020	260120	102310	102.760	12.418772	-57.245023	102.670	0.180	-0.710	0.920	102.760	-2.100	1.000																			1580034190.0	0.75	1.39
26/01/2020 10:23:11	26012020	260120	102311	102.670	12.418768	-57.245025	102.590	0.070	-0.400	1.650	102.670	-1.900	1.800																			1580034191.0	0.91	1.69
26/01/2020 10:23:12	26012020	260120	102312	102.620	12.418763	-57.245028	102.600	-0.060	-0.080	2.130	102.620	-1.600	2.400																			1580034192.0	0.91	1.69
26/01/2020 10:23:13	26012020	260120	102313	102.690	12.418762	-57.245030	102.700	-0.150	0.140	2.170	102.690	-1.300	2.600																			1580034193.0	0.60	1.11
26/01/2020 10:23:14	26012020	260120	102314	102.860	12.418762	-57.245030	102.890	-0.160	0.240	1.790	102.860	-1.200	2.400																			1580034194.0	0.18	0.33
26/01/2020 10:23:15	26012020	260120	102315	103.090	12.418763	-57.245030	103.100	-0.080	0.180	1.170	103.090	-1.100	1.800																			1580034195.0	0.35	0.65
26/01/2020 10:23:16	26012020	260120	102316	103.280	12.418767	-57.245030	103.230	0.020	0.020	0.560	103.280	-1.300	1.200																			1580034196.0	0.62	1.15
26/01/2020 10:23:17	26012020	260120	102317	103.330	12.418768	-57.245028	103.230	0.040	-0.120	0.040	103.330	-1.400	0.600																			1580034197.0	0.67	1.24
26/01/2020 10:23:18	26012020	260120	102318	103.290	12.418772	-57.245028	103.180	-0.010	-0.200	-0.340	103.290	-1.500	0.200																			1580034198.0	0.55	1.02
26/01/2020 10:23:19	26012020	260120	102319	103.270	12.418773	-57.245028	103.180	-0.020	-0.240	-0.560	103.270	-1.600	-0.100																			1580034199.0	0.36	0.67
26/01/2020 10:23:20	26012020	260120	102320	103.290	12.418773	-57.245028	103.220	0.060	-0.300	-0.590	103.290	-1.600	-0.200																			1580034200.0	0.16	0.30
26/01/2020 10:23:21	26012020	260120	102321	103.340	12.418773	-57.245028	103.270	0.160	-0.300	-0.470	103.340	-1.700	-0.100																			1580034201.0	0.03	0.06
26/01/2020 10:23:22	26012020	260120	102322	103.360	12.418773	-57.245028	103.280	0.170	-0.220	-0.200	103.360	-1.600	0.100																			1580034202.0	0.06	0.11
26/01/2020 10:23:23	26012020	260120	102323	103.290	12.418773	-57.245028	103.200	0.080	-0.120	0.280	103.290	-1.500	0.500																			1580034203.0	0.21	0.39
26/01/2020 10:23:24	26012020	260120	102324	103.220	12.418770	-57.245028	103.170	-0.050	0.000	0.810	103.220	-1.400	1.000																			1580034204.0	0.42	0.78
26/01/2020 10:23:25	26012020	260120	102325	103.260	12.418768	-57.245030	103.250	-0.170	0.120	1.220	103.260	-1.300	1.500																			1580034205.0	0.59	1.09
26/01/2020 10:23:26	26012020	260120	102326	103.390	12.418765	-57.245030	103.390	-0.210	0.140	1.400	103.390	-1.200	1.700																			1580034206.0	0.58	1.07
26/01/2020 10:23:27	26012020	260120	102327	103.510	12.418763	-57.245030	103.460	-0.130	0.000	1.420	103.510	-1.300	1.800																			1580034207.0	0.35	0.65
26/01/2020 10:23:28	26012020	260120	102328	103.500	12.418763	-57.245030	103.400	0.020	-0.190	1.310	103.500	-1.500	1.800																			1580034208.0	0.19	0.35
26/01/2020 10:23:29	26012020	260120	102329	103.440	12.418763	-57.245028	103.360	0.140	-0.260	1.000	103.440	-1.600	1.500																			1580034209.0	0.25	0.46
26/01/2020 10:23:30	26012020	260120	102330	103.490	12.418765	-57.245028	103.420	0.140	-0.110	0.530	103.490	-1.500	1.100																			1580034210.0	0.37	0.69
26/01/2020 10:23:31	26012020	260120	102331	103.600	12.418768	-57.245028	103.510	0.030	0.050	0.080	103.600	-1.400	0.600																			1580034211.0	0.61	1.13
26/01/2020 10:23:32	26012020	260120	102332	103.630	12.418772	-57.245030	103.510	-0.080	-0.070	-0.210	103.630	-1.300	0.300																			1580034212.0	0.60	1.11
26/01/2020 10:23:33	26012020	260120	102333	103.600	12.418772	-57.245028	103.450	-0.110	-0.410	-0.280	103.600	-1.600	0.100																			1580034213.0	0.38	0.70
26/01/2020 10:23:34	26012020	260120	102334	103.490	12.418772	-57.245027	103.360	-0.060	-0.670	-0.110	103.490	-2.000	0.200																			1580034214.0	0.44	0.81
26/01/2020 10:23:35	26012020	260120	102335	103.400	12.418768	-57.245025	103.270	0.000	-0.550	0.230	103.400	-2.000	0.500																			1580034215.0	0.58	1.07
26/01/2020 10:23:36	26012020	260120	102336	103.350	12.418767	-57.245025	103.290	0.000	-0.090	0.530	103.350	-1.700	0.800																			1580034216.0	0.62	1.15
26/01/2020 10:23:37	26012020	260120	102337	103.430	12.418765	-57.245027	103.390	-0.020	0.310	0.650	103.430	-1.200	1.000																			1580034217.0	0.54	1.00
26/01/2020 10:23:38	26012020	260120	102338	103.510	12.418765	-57.245028	103.440	0.010	0.350	0.660	103.510	-1.000	1.100																			1580034218.0	0.15	0.28
26/01/2020 10:23:39	26012020	260120	102339	103.510	12.418765	-57.245027	103.430	0.110	0.140	0.630	103.510	-1.100	1.000																			1580034219.0	0.28	0.52
26/01/2020 10:23:40	26012020	260120	102340	103.520	12.418765	-57.245025	103.470	0.150	0.010	0.560	103.520	-1.300	1.000																			1580034220.0	0.44	0.81
26/01/2020 10:23:41	26012020	260120	102341	103.630	12.418767	-57.245025	103.610	0.030	0.050	0.520	103.630	-1.300	0.900																			1580034221.0	0.25	0.46
26/01/2020 10:23:42	26012020	260120	102342	103.770	12.418767	-57.245025	103.720	-0.170	0.090	0.590	103.770	-1.300	0.900																			1580034222.0	0.19	0.35
26/01/2020 10:23:43	26012020	260120	102343	103.820	12.418765	-57.245027	103.730	-0.280	-0.080	0.750	103.820	-1.300	1.100																			1580034223.0	0.35	0.65
26/01/2020 10:23:44	26012020	260120	102344	103.760	12.418763	-57.245027	103.650	-0.160	-0.460	0.880	103.760	-1.700	1.200																			1580034224.0	0.39	0.72
26/01/2020 10:23:45	26012020	260120	102345	103.680	12.418763	-57.245025	103.550	0.090	-0.780	0.920	103.680	-2.000	1.300																			1580034225.0	0.40	0.74
26/01/2020 10:23:46	26012020	260120	102346	103.560	12.418762	-57.245025	103.430	0.250	-0.810	0.940	103.560	-2.200	1.300																			1580034226.0	0.30	0.56
26/01/2020 10:23:47	26012020	260120	102347	103.480	12.418762	-57.245023	103.350	0.190	-0.450	0.910	103.480	-2.000	1.300																			1580034227.0	0.11	0.20
26/01/2020 10:23:48	26012020	260120	102348	103.450	12.418762	-57.245025	103.370	-0.010	0.130	0.710	103.450	-1.500	1.200																			1580034228.0	0.18	0.33
26/01/2020 10:23:49	26012020	260120	102349	103.540	12.418763	-57.245027	103.470	-0.190	0.600	0.360	103.540	-0.900	0.900																			1580034229.0	0.42	0.78
26/01/2020 10:23:50	26012020	260120	102350	103.650	12.418765	-57.245027	103.580	-0.230	0.620	0.000	103.650	-0.700	0.500																			1580034230.0	0.53	0.98
26/01/2020 10:23:51	26012020	260120	102351	103.740	12.418767	-57.245025	103.640	-0.150	0.170	-0.160	103.740	-1.000	0.300																			1580034231.0	0.41	0.76
26/01/2020 10:23:52	26012020	260120	102352	103.720	12.418767	-57.245023	103.590	-0.020	-0.430	-0.030	103.720	-1.600	0.300																			1580034232.0	0.50	0.93
26/01/2020 10:23:53	26012020	260120	102353	103.620	12.418765	-57.245022	103.480	0.100	-0.740	0.290	103.620	-2.000	0.500																			1580034233.0	0.62	1.15
26/01/2020 10:23:54	26012020	260120	102354	103.500	12.418762	-57.245022	103.370	0.190	-0.590	0.620	103.500	-2.100	0.900																			1580034234.0	0.53	0.98
26/01/2020 10:23:55	26012020	260120	102355	103.410	12.418760	-57.245022	103.300	0.240	-0.140	0.770	103.410	-1.700	1.100																			1580034235.0	0.37	0.69
26/01/2020 10:23:56	26012020	260120	102356	103.390	12.418762	-57.245023	103.300	0.210	0.280	0.780	103.390	-1.200	1.200																			1580034236.0	0.37	0.69
26/01/2020 10:23:57	26012020	260120	102357	103.430	12.418763	-57.245025	103.360	0.070	0.450	0.750	103.430	-1.000	1.200																			1580034237.0	0.43	0.80
26/01/2020 10:23:58	26012020	260120	102358	103.540	12.418765	-57.245025	103.480	-0.150	0.290	0.710	103.540	-1.000	1.100																			1580034238.0	0.30	0.56
26/01/2020 10:23:59	26012020	260120	102359	103.650	12.418765	-57.245025	103.600	-0.320	-0.080	0.710	103.650	-1.300	1.100																			1580034239.0	0.10	0.19
26/01/2020 10:24:00	26012020	260120	102400	103.680	12.418763	-57.245023	103.540	-0.340	-0.450	0.840	103.680	-1.700	1.200	1014.30	25.50	25.60	19.20	19.20	13.00	68.00	68.00	377.00	24.90	350.00	7.00	93.00	6.90	1161	3351.00	27.40	27.40	1580034240.0	0.33	0.61
26/01/2020 10:24:01	26012020	260120	102401	103.560	12.418762	-57.245023	103.350	-0.240	-0.630	1.050	103.560	-2.000	1.400																			1580034241.0	0.47	0.87
26/01/2020 10:24:02	26012020	260120	102402	103.320	12.418758	-57.245023	103.180	-0.110	-0.580	1.210	103.320	-2.000	1.500																			1580034242.0	0.44	0.81
26/01/2020 10:24:03	26012020	260120	102403	103.180	12.418758	-57.245023	103.060	0.000	-0.390	1.190	103.180	-1.800	1.600																			1580034243.0	0.29	0.54
26/01/2020 10:24:04	26012020	260120	102404	103.100	12.418757	-57.245025	103.000	0.120	-0.220	0.940	103.100	-1.700	1.500																			1580034244.0	0.06	0.11
26/01/2020 10:24:05	26012020	260120	102405	103.050	12.418758	-57.245023	102.940	0.230	-0.060	0.540	103.050	-1.500	1.100																			1580034245.0	0.25	0.46
26/01/2020 10:24:06	26012020	260120	102406	103.030	12.418760	-57.245023	102.920	0.250	0.170	0.060	103.030	-1.300	0.700																			1580034246.0	0.54	1.00
26/01/2020 10:24:07	26012020	260120	102407	103.090	12.418765	-57.245022	103.010	0.170	0.340	-0.420	103.090	-1.100	0.200																			1580034247.0	0.78	1.44
26/01/2020 10:24:08	26012020	260120	102408	103.230	12.418768	-57.245022	103.170	0.070	0.310	-0.780	103.230	-1.000	-0.300																			1580034248.0	0.79	1.46
26/01/2020 10:24:09	26012020	260120	102409	103.380	12.418770	-57.245022	103.270	0.050	0.060	-0.800	103.380	-1.200	-0.400																			1580034249.0	0.54	1.00
26/01/2020 10:24:10	26012020	260120	102410	103.340	12.418770	-57.245020	103.200	0.080	-0.230	-0.360	103.340	-1.500	-0.200																			1580034250.0	0.22	0.41
26/01/2020 10:24:11	26012020	260120	102411	103.220	12.418768	-57.245020	103.110	-0.010	-0.280	0.310	103.220	-1.700	0.400																			1580034251.0	0.43	0.80
26/01/2020 10:24:12	26012020	260120	102412	103.200	12.418765	-57.245022	103.140	-0.230	-0.120	1.000	103.200	-1.600	1.100																			1580034252.0	0.75	1.39
26/01/2020 10:24:13	26012020	260120	102413	103.240	12.418762	-57.245023	103.190	-0.410	-0.080	1.640	103.240	-1.400	1.800																			1580034253.0	0.98	1.81
26/01/2020 10:24:14	26012020	260120	102414	103.260	12.418757	-57.245025	103.210	-0.390	-0.220	2.110	103.260	-1.500	2.300																			1580034254.0	1.00	1.85
26/01/2020 10:24:15	26012020	260120	102415	103.210	12.418753	-57.245027	103.130	-0.180	-0.390	2.250	103.210	-1.700	2.600																			1580034255.0	0.73	1.35
26/01/2020 10:24:16	26012020	260120	102416	103.070	12.418753	-57.245025	102.960	0.080	-0.540	2.000	103.070	-1.900	2.500																			1580034256.0	0.26	0.48
26/01/2020 10:24:17	26012020	260120	102417	102.880	12.418755	-57.245025	102.750	0.250	-0.590	1.450	102.880	-2.000	2.100																			1580034257.0	0.42	0.78
26/01/2020 10:24:18	26012020	260120	102418	102.730	12.418758	-57.245023	102.630	0.300	-0.440	0.710	102.730	-1.900	1.400																			1580034258.0	0.84	1.56
26/01/2020 10:24:19	26012020	260120	102419	102.740	12.418763	-57.245022	102.700	0.250	-0.040	-0.160	102.740	-1.600	0.600																			1580034259.0	1.12	2.07
26/01/2020 10:24:20	26012020	260120	102420	102.940	12.418768	-57.245022	102.920	0.100	0.480	-0.960	102.940	-1.100	-0.300																			1580034260.0	1.17	2.17
26/01/2020 10:24:21	26012020	260120	102421	103.180	12.418773	-57.245022	103.140	-0.080	0.810	-1.460	103.180	-0.700	-0.900																			1580034261.0	0.92	1.70
26/01/2020 10:24:22	26012020	260120	102422	103.360	12.418775	-57.245022	103.290	-0.180	0.680	-1.550	103.360	-0.600	-1.200																			1580034262.0	0.54	1.00
26/01/2020 10:24:23	26012020	260120	102423	103.430	12.418775	-57.245022	103.320	-0.110	0.120	-1.160	103.430	-1.000	-1.000																			1580034263.0	0.03	0.06
26/01/2020 10:24:24	26012020	260120	102424	103.380	12.418773	-57.245022	103.260	0.050	-0.530	-0.310	103.380	-1.700	-0.300																			1580034264.0	0.57	1.06
26/01/2020 10:24:25	26012020	260120	102425	103.220	12.418768	-57.245020	103.100	0.180	-0.880	0.780	103.220	-2.200	0.700																			1580034265.0	0.93	1.72
26/01/2020 10:24:26	26012020	260120	102426	103.050	12.418763	-57.245022	102.980	0.180	-0.840	1.780	103.050	-2.300	1.800																			1580034266.0	1.08	2.00
26/01/2020 10:24:27	26012020	260120	102427	102.990	12.418760	-57.245023	102.960	0.050	-0.490	2.420	102.990	-2.000	2.600																			1580034267.0	0.94	1.74
26/01/2020 10:24:28	26012020	260120	102428	103.000	12.418757	-57.245025	102.980	-0.130	-0.110	2.670	103.000	-1.600	3.000																			1580034268.0	0.66	1.22
26/01/2020 10:24:29	26012020	260120	102429	103.010	12.418757	-57.245027	102.980	-0.270	0.090	2.580	103.010	-1.400	3.000																			1580034269.0	0.34	0.63
26/01/2020 10:24:30	26012020	260120	102430	103.020	12.418757	-57.245027	102.980	-0.330	0.110	2.110	103.020	-1.300	2.700																			1580034270.0	0.03	0.06
26/01/2020 10:24:31	26012020	260120	102431	103.050	12.418758	-57.245025	102.980	-0.280	0.060	1.290	103.050	-1.300	2.000																			1580034271.0	0.39	0.72
26/01/2020 10:24:32	26012020	260120	102432	103.070	12.418762	-57.245025	102.990	-0.150	0.060	0.260	103.070	-1.300	1.100																			1580034272.0	0.78	1.44
26/01/2020 10:24:33	26012020	260120	102433	103.130	12.418767	-57.245023	103.040	0.080	0.070	-0.780	103.130	-1.300	0.000																			1580034273.0	1.10	2.04
26/01/2020 10:24:34	26012020	260120	102434	103.170	12.418772	-57.245022	103.040	0.360	-0.020	-1.580	103.170	-1.300	-0.900																			1580034274.0	1.20	2.22
26/01/2020 10:24:35	26012020	260120	102435	103.150	12.418777	-57.245020	103.010	0.560	-0.140	-2.050	103.150	-1.500	-1.500																			1580034275.0	1.14	2.11
26/01/2020 10:24:36	26012020	260120	102436	103.180	12.418780	-57.245020	103.100	0.540	-0.170	-2.130	103.180	-1.500	-1.700																			1580034276.0	0.96	1.78
26/01/2020 10:24:37	26012020	260120	102437	103.290	12.418783	-57.245018	103.280	0.320	-0.140	-1.690	103.290	-1.500	-1.500																			1580034277.0	0.52	0.96
26/01/2020 10:24:38	26012020	260120	102438	103.450	12.418782	-57.245020	103.400	-0.020	-0.090	-0.640	103.450	-1.500	-0.700																			1580034278.0	0.31	0.57
26/01/2020 10:24:39	26012020	260120	102439	103.480	12.418777	-57.245022	103.430	-0.380	-0.110	0.920	103.480	-1.500	0.600																			1580034279.0	1.24	2.30
26/01/2020 10:24:40	26012020	260120	102440	103.370	12.418768	-57.245025	103.290	-0.590	-0.270	2.610	103.370	-1.600	2.300																			1580034280.0	2.03	3.76
26/01/2020 10:24:41	26012020	260120	102441	103.100	12.418757	-57.245027	103.020	-0.590	-0.480	3.990	103.100	-1.800	3.900																			1580034281.0	2.24	4.15
26/01/2020 10:24:42	26012020	260120	102442	102.840	12.418748	-57.245028	102.820	-0.410	-0.530	4.620	102.840	-1.900	4.900																			1580034282.0	1.84	3.41
26/01/2020 10:24:43	26012020	260120	102443	102.740	12.418745	-57.245028	102.780	-0.190	-0.320	4.250	102.740	-1.800	4.900																			1580034283.0	0.90	1.67
26/01/2020 10:24:44	26012020	260120	102444	102.820	12.418747	-57.245028	102.860	0.040	0.070	2.970	102.820	-1.500	4.000																			1580034284.0	0.32	0.59
26/01/2020 10:24:45	26012020	260120	102445	102.990	12.418753	-57.245028	103.000	0.310	0.360	1.060	102.990	-1.100	2.300																			1580034285.0	1.50	2.78
26/01/2020 10:24:46	26012020	260120	102446	103.170	12.418763	-57.245025	103.110	0.620	0.350	-1.060	103.170	-1.000	0.200																			1580034286.0	2.36	4.37
26/01/2020 10:24:47	26012020	260120	102447	103.270	12.418777	-57.245022	103.150	0.830	0.080	-2.900	103.270	-1.200	-1.800																			1580034287.0	2.85	5.28
26/01/2020 10:24:48	26012020	260120	102448	103.330	12.418788	-57.245018	103.200	0.700	-0.170	-3.960	103.330	-1.400	-3.200																			1580034288.0	2.67	4.94
26/01/2020 10:24:49	26012020	260120	102449	103.340	12.418795	-57.245017	103.180	0.270	-0.320	-3.810	103.340	-1.600	-3.600																			1580034289.0	1.54	2.85
26/01/2020 10:24:50	26012020	260120	102450	103.210	12.418795	-57.245017	103.020	-0.230	-0.460	-2.530	103.210	-1.800	-2.800																			1580034290.0	0.11	0.20
26/01/2020 10:24:51	26012020	260120	102451	102.960	12.418788	-57.245018	102.720	-0.570	-0.600	-0.550	102.960	-1.900	-1.000																			1580034291.0	1.54	2.85
26/01/2020 10:24:52	26012020	260120	102452	102.550	12.418777	-57.245020	102.470	-0.680	-0.550	1.560	102.550	-2.000	1.100																			1580034292.0	2.52	4.67
26/01/2020 10:24:53	26012020	260120	102453	102.400	12.418763	-57.245023	102.450	-0.610	-0.200	3.310	102.400	-1.800	3.100																			1580034293.0	2.77	5.13
26/01/2020 10:24:54	26012020	260120	102454	102.520	12.418753	-57.245027	102.670	-0.480	0.350	4.280	102.520	-1.300	4.400																			1580034294.0	2.36	4.37
26/01/2020 10:24:55	26012020	260120	102455	102.840	12.418748	-57.245030	102.990	-0.380	0.730	4.260	102.840	-0.800	4.800																			1580034295.0	1.47	2.72
26/01/2020 10:24:56	26012020	260120	102456	103.100	12.418747	-57.245032	103.160	-0.220	0.650	3.390	103.100	-0.600	4.200																			1580034296.0	0.41	0.76
26/01/2020 10:24:57	26012020	260120	102457	103.160	12.418752	-57.245030	103.130	0.090	0.080	1.890	103.160	-1.000	2.900																			1580034297.0	0.97	1.80
26/01/2020 10:24:58	26012020	260120	102458	103.130	12.418760	-57.245027	103.050	0.530	-0.640	0.100	103.130	-1.700	1.200																			1580034298.0	1.94	3.59
26/01/2020 10:24:59	26012020	260120	102459	103.040	12.418770	-57.245022	102.890	0.910	-1.120	-1.530	103.040	-2.400	-0.500																			1580034299.0	2.41	4.46
26/01/2020 10:25:00	26012020	260120	102500	102.840	12.418780	-57.245018	102.650	0.970	-1.050	-2.620	102.840	-2.500	-1.800	1014.30	25.50	25.60	19.10	19.20	15.00	67.00	68.00	377.00	24.90	351.00	6.70	93.00	6.30	1268	3223.00	27.40	27.40	1580034300.0	2.24	4.15
26/01/2020 10:25:01	26012020	260120	102501	102.630	12.418787	-57.245017	102.480	0.620	-0.480	-3.080	102.630	-2.100	-2.600																			1580034301.0	1.68	3.11
26/01/2020 10:25:02	26012020	260120	102502	102.570	12.418792	-57.245018	102.500	0.020	0.210	-2.840	102.570	-1.400	-2.600																			1580034302.0	0.93	1.72
26/01/2020 10:25:03	26012020	260120	102503	102.670	12.418790	-57.245020	102.660	-0.490	0.590	-1.920	102.670	-0.900	-2.000																			1580034303.0	0.52	0.96
26/01/2020 10:25:04	26012020	260120	102504	102.790	12.418785	-57.245022	102.780	-0.700	0.510	-0.440	102.790	-0.800	-0.700																			1580034304.0	1.33	2.46
26/01/2020 10:25:05	26012020	260120	102505	102.830	12.418775	-57.245022	102.830	-0.630	0.170	1.270	102.830	-1.100	1.000																			1580034305.0	2.09	3.87
26/01/2020 10:25:06	26012020	260120	102506	102.830	12.418765	-57.245023	102.870	-0.430	-0.120	2.770	102.830	-1.400	2.600																			1580034306.0	2.32	4.30
26/01/2020 10:25:07	26012020	260120	102507	102.880	12.418755	-57.245023	102.960	-0.270	-0.110	3.760	102.880	-1.500	3.800																			1580034307.0	1.94	3.59
26/01/2020 10:25:08	26012020	260120	102508	103.000	12.418750	-57.245027	103.080	-0.210	0.100	4.060	103.000	-1.400	4.400																			1580034308.0	1.29	2.39
26/01/2020 10:25:09	26012020	260120	102509	103.110	12.418748	-57.245030	103.150	-0.100	0.110	3.600	103.110	-1.200	4.300																			1580034309.0	0.64	1.19
26/01/2020 10:25:10	26012020	260120	102510	103.130	12.418752	-57.245030	103.110	0.180	-0.210	2.440	103.130	-1.400	3.400																			1580034310.0	0.59	1.09
26/01/2020 10:25:11	26012020	260120	102511	103.080	12.418758	-57.245028	102.990	0.520	-0.590	0.890	103.080	-1.800	1.900																			1580034311.0	1.50	2.78
26/01/2020 10:25:12	26012020	260120	102512	102.940	12.418767	-57.245025	102.810	0.720	-0.790	-0.640	102.940	-2.100	0.400																			1580034312.0	1.99	3.69
26/01/2020 10:25:13	26012020	260120	102513	102.830	12.418775	-57.245022	102.680	0.660	-0.730	-1.870	102.830	-2.200	-1.000																			1580034313.0	2.02	3.74
26/01/2020 10:25:14	26012020	260120	102514	102.740	12.418783	-57.245020	102.630	0.380	-0.460	-2.660	102.740	-2.000	-2.000																			1580034314.0	1.70	3.15
26/01/2020 10:25:15	26012020	260120	102515	102.760	12.418788	-57.245020	102.700	-0.000	-0.040	-2.880	102.760	-1.600	-2.500																			1580034315.0	1.12	2.07
26/01/2020 10:25:16	26012020	260120	102516	102.870	12.418790	-57.245020	102.830	-0.370	0.350	-2.390	102.870	-1.200	-2.300																			1580034316.0	0.30	0.56
26/01/2020 10:25:17	26012020	260120	102517	102.990	12.418787	-57.245022	103.000	-0.600	0.560	-1.250	102.990	-0.900	-1.400																			1580034317.0	0.87	1.61
26/01/2020 10:25:18	26012020	260120	102518	103.170	12.418778	-57.245025	103.200	-0.620	0.540	0.230	103.170	-0.800	0.000																			1580034318.0	1.70	3.15
26/01/2020 10:25:19	26012020	260120	102519	103.320	12.418768	-57.245027	103.360	-0.450	0.360	1.740	103.320	-0.900	1.500																			1580034319.0	2.07	3.83
26/01/2020 10:25:20	26012020	260120	102520	103.370	12.418760	-57.245028	103.370	-0.150	0.020	3.040	103.370	-1.200	2.900																			1580034320.0	2.05	3.80
26/01/2020 10:25:21	26012020	260120	102521	103.270	12.418752	-57.245030	103.230	0.170	-0.410	3.860	103.270	-1.600	4.000																			1580034321.0	1.63	3.02
26/01/2020 10:25:22	26012020	260120	102522	103.110	12.418748	-57.245030	103.100	0.400	-0.690	3.880	103.110	-2.000	4.400																			1580034322.0	0.75	1.39
26/01/2020 10:25:23	26012020	260120	102523	103.070	12.418750	-57.245030	103.110	0.410	-0.640	3.090	103.070	-2.100	3.900																			1580034323.0	0.38	0.70
26/01/2020 10:25:24	26012020	260120	102524	103.170	12.418757	-57.245028	103.190	0.230	-0.290	1.820	103.170	-1.800	2.800																			1580034324.0	1.21	2.24
26/01/2020 10:25:25	26012020	260120	102525	103.240	12.418763	-57.245030	103.210	-0.010	0.080	0.360	103.240	-1.400	1.400																			1580034325.0	1.61	2.98
26/01/2020 10:25:26	26012020	260120	102526	103.260	12.418772	-57.245030	103.160	-0.110	0.130	-1.040	103.260	-1.200	-0.100																			1580034326.0	1.61	2.98
26/01/2020 10:25:27	26012020	260120	102527	103.230	12.418777	-57.245028	103.080	-0.020	-0.160	-2.170	103.230	-1.400	-1.300																			1580034327.0	1.43	2.65
26/01/2020 10:25:28	26012020	260120	102528	103.150	12.418782	-57.245025	103.020	0.150	-0.480	-2.780	103.150	-1.800	-2.200																			1580034328.0	1.18	2.19
26/01/2020 10:25:29	26012020	260120	102529	103.100	12.418783	-57.245022	102.980	0.220	-0.440	-2.760	103.100	-1.900	-2.400																			1580034329.0	0.69	1.28
26/01/2020 10:25:30	26012020	260120	102530	103.090	12.418783	-57.245022	103.020	0.110	-0.020	-2.200	103.090	-1.600	-2.100																			1580034330.0	0.02	0.04
26/01/2020 10:25:31	26012020	260120	102531	103.180	12.418782	-57.245025	103.170	-0.120	0.420	-1.250	103.180	-1.100	-1.300																			1580034331.0	0.63	1.17
26/01/2020 10:25:32	26012020	260120	102532	103.350	12.418778	-57.245027	103.350	-0.330	0.490	0.060	103.350	-0.900	-0.100																			1580034332.0	1.11	2.06
26/01/2020 10:25:33	26012020	260120	102533	103.460	12.418770	-57.245028	103.420	-0.380	0.160	1.600	103.460	-1.000	1.300																			1580034333.0	1.69	3.13
26/01/2020 10:25:34	26012020	260120	102534	103.370	12.418760	-57.245030	103.300	-0.280	-0.260	3.060	103.370	-1.500	2.900																			1580034334.0	2.09	3.87
26/01/2020 10:25:35	26012020	260120	102535	103.170	12.418752	-57.245032	103.130	-0.150	-0.450	3.990	103.170	-1.800	4.100																			1580034335.0	1.88	3.48
26/01/2020 10:25:36	26012020	260120	102536	103.050	12.418747	-57.245032	103.050	-0.070	-0.410	4.110	103.050	-1.800	4.500																			1580034336.0	1.17	2.17
26/01/2020 10:25:37	26012020	260120	102537	103.040	12.418747	-57.245033	103.050	0.010	-0.320	3.390	103.040	-1.700	4.200																			1580034337.0	0.29	0.54
26/01/2020 10:25:38	26012020	260120	102538	103.090	12.418750	-57.245033	103.070	0.160	-0.230	2.010	103.090	-1.600	3.000																			1580034338.0	0.75	1.39
26/01/2020 10:25:39	26012020	260120	102539	103.150	12.418757	-57.245032	103.100	0.360	-0.070	0.280	103.150	-1.500	1.400																			1580034339.0	1.53	2.83
26/01/2020 10:25:40	26012020	260120	102540	103.210	12.418767	-57.245030	103.090	0.500	0.040	-1.480	103.210	-1.400	-0.400																			1580034340.0	2.06	3.82
26/01/2020 10:25:41	26012020	260120	102541	103.210	12.418775	-57.245028	103.040	0.480	-0.010	-2.860	103.210	-1.400	-2.000																			1580034341.0	2.17	4.02
26/01/2020 10:25:42	26012020	260120	102542	103.150	12.418783	-57.245027	102.960	0.340	-0.230	-3.500	103.150	-1.500	-2.900																			1580034342.0	1.76	3.26
26/01/2020 10:25:43	26012020	260120	102543	103.050	12.418787	-57.245025	102.880	0.150	-0.440	-3.200	103.050	-1.800	-3.000																			1580034343.0	0.90	1.67
26/01/2020 10:25:44	26012020	260120	102544	102.920	12.418785	-57.245023	102.780	-0.130	-0.320	-1.990	102.920	-1.800	-2.200																			1580034344.0	0.46	0.85
26/01/2020 10:25:45	26012020	260120	102545	102.790	12.418778	-57.245027	102.720	-0.480	0.150	-0.290	102.790	-1.400	-0.600																			1580034345.0	1.55	2.87
26/01/2020 10:25:46	26012020	260120	102546	102.760	12.418768	-57.245032	102.740	-0.750	0.500	1.480	102.760	-1.000	1.200																			1580034346.0	2.25	4.17
26/01/2020 10:25:47	26012020	260120	102547	102.780	12.418758	-57.245035	102.800	-0.740	0.340	3.020	102.780	-0.900	2.800																			1580034347.0	2.48	4.59
26/01/2020 10:25:48	26012020	260120	102548	102.770	12.418748	-57.245037	102.790	-0.410	-0.160	4.050	102.770	-1.300	4.100																			1580034348.0	2.26	4.19
26/01/2020 10:25:49	26012020	260120	102549	102.700	12.418740	-57.245037	102.700	0.070	-0.570	4.330	102.700	-1.800	4.700																			1580034349.0	1.57	2.91
26/01/2020 10:25:50	26012020	260120	102550	102.610	12.418738	-57.245037	102.590	0.420	-0.620	3.750	102.610	-2.000	4.500																			1580034350.0	0.44	0.81
26/01/2020 10:25:51	26012020	260120	102551	102.540	12.418742	-57.245037	102.490	0.560	-0.370	2.440	102.540	-1.900	3.400																			1580034351.0	0.81	1.50
26/01/2020 10:25:52	26012020	260120	102552	102.450	12.418752	-57.245037	102.370	0.550	-0.100	0.690	102.450	-1.600	1.800																			1580034352.0	1.81	3.35
26/01/2020 10:25:53	26012020	260120	102553	102.380	12.418762	-57.245035	102.270	0.480	-0.020	-1.120	102.380	-1.400	0.000																			1580034353.0	2.35	4.35
26/01/2020 10:25:54	26012020	260120	102554	102.340	12.418773	-57.245033	102.250	0.320	0.020	-2.610	102.340	-1.400	-1.700																			1580034354.0	2.42	4.48
26/01/2020 10:25:55	26012020	260120	102555	102.400	12.418782	-57.245032	102.320	0.030	0.160	-3.360	102.400	-1.300	-2.700																			1580034355.0	1.84	3.41
26/01/2020 10:25:56	26012020	260120	102556	102.460	12.418785	-57.245032	102.350	-0.280	0.200	-3.130	102.460	-1.200	-2.900																			1580034356.0	0.73	1.35
26/01/2020 10:25:57	26012020	260120	102557	102.420	12.418782	-57.245033	102.300	-0.420	-0.020	-2.050	102.420	-1.300	-2.200																			1580034357.0	0.63	1.17
26/01/2020 10:25:58	26012020	260120	102558	102.280	12.418775	-57.245035	102.170	-0.360	-0.390	-0.420	102.280	-1.600	-0.700																			1580034358.0	1.65	3.06
26/01/2020 10:25:59	26012020	260120	102559	102.050	12.418763	-57.245035	101.970	-0.220	-0.650	1.410	102.050	-2.000	1.100																			1580034359.0	2.28	4.22
26/01/2020 10:26:00	26012020	260120	102600	101.870	12.418753	-57.245037	101.890	-0.140	-0.500	2.920	101.870	-2.000	2.800	1014.30	25.50	25.60	19.20	19.30	17.00	68.00	68.00	377.00	24.90	351.00	7.40	93.00	6.70	1381	3318.00	27.40	27.40	1580034360.0	2.32	4.30
26/01/2020 10:26:01	26012020	260120	102601	101.920	12.418745	-57.245040	102.030	-0.110	-0.020	3.660	101.920	-1.600	3.900																			1580034361.0	1.78	3.30
26/01/2020 10:26:02	26012020	260120	102602	102.200	12.418742	-57.245043	102.350	-0.070	0.430	3.520	102.200	-1.100	4.100																			1580034362.0	0.93	1.72
26/01/2020 10:26:03	26012020	260120	102603	102.490	12.418743	-57.245045	102.660	0.030	0.480	2.700	102.490	-0.900	3.500																			1580034363.0	0.52	0.96
26/01/2020 10:26:04	26012020	260120	102604	102.760	12.418748	-57.245043	102.730	0.180	0.080	1.670	102.760	-1.100	2.500																			1580034364.0	0.95	1.76
26/01/2020 10:26:05	26012020	260120	102605	102.710	12.418753	-57.245042	102.620	0.280	-0.390	0.630	102.710	-1.600	1.500																			1580034365.0	1.25	2.31
26/01/2020 10:26:06	26012020	260120	102606	102.620	12.418758	-57.245038	102.510	0.260	-0.550	-0.350	102.620	-1.900	0.400																			1580034366.0	1.28	2.37
26/01/2020 10:26:07	26012020	260120	102607	102.530	12.418763	-57.245038	102.380	0.140	-0.430	-1.030	102.530	-1.900	-0.400																			1580034367.0	1.14	2.11
26/01/2020 10:26:08	26012020	260120	102608	102.380	12.418768	-57.245038	102.240	0.060	-0.300	-1.370	102.380	-1.700	-0.900																			1580034368.0	0.81	1.50
26/01/2020 10:26:09	26012020	260120	102609	102.290	12.418770	-57.245038	102.210	0.040	-0.220	-1.450	102.290	-1.600	-1.000																			1580034369.0	0.44	0.81
26/01/2020 10:26:10	26012020	260120	102610	102.350	12.418770	-57.245038	102.310	-0.010	-0.110	-1.200	102.350	-1.500	-1.000																			1580034370.0	0.09	0.17
26/01/2020 10:26:11	26012020	260120	102611	102.460	12.418768	-57.245038	102.450	-0.140	0.060	-0.550	102.460	-1.400	-0.500																			1580034371.0	0.46	0.85
26/01/2020 10:26:12	26012020	260120	102612	102.600	12.418763	-57.245040	102.620	-0.280	0.250	0.270	102.600	-1.200	0.300																			1580034372.0	1.02	1.89
26/01/2020 10:26:13	26012020	260120	102613	102.790	12.418758	-57.245043	102.830	-0.300	0.290	0.990	102.790	-1.100	1.100																			1580034373.0	1.15	2.13
26/01/2020 10:26:14	26012020	260120	102614	102.950	12.418755	-57.245045	102.960	-0.160	0.070	1.630	102.950	-1.200	1.800																			1580034374.0	1.00	1.85
26/01/2020 10:26:15	26012020	260120	102615	102.970	12.418750	-57.245045	102.910	0.060	-0.250	2.200	102.970	-1.500	2.400																			1580034375.0	0.81	1.50
26/01/2020 10:26:16	26012020	260120	102616	102.830	12.418748	-57.245045	102.740	0.260	-0.480	2.540	102.830	-1.800	2.800																			1580034376.0	0.54	1.00
26/01/2020 10:26:17	26012020	260120	102617	102.680	12.418748	-57.245043	102.570	0.300	-0.520	2.480	102.680	-1.900	3.000																			1580034377.0	0.13	0.24
26/01/2020 10:26:18	26012020	260120	102618	102.570	12.418748	-57.245043	102.540	0.140	-0.310	1.960	102.570	-1.800	2.600																			1580034378.0	0.34	0.63
26/01/2020 10:26:19	26012020	260120	102619	102.680	12.418752	-57.245045	102.670	-0.110	0.060	1.120	102.680	-1.500	1.900																			1580034379.0	0.68	1.26
26/01/2020 10:26:20	26012020	260120	102620	102.830	12.418757	-57.245045	102.780	-0.250	0.310	0.270	102.830	-1.100	1.000																			1580034380.0	0.90	1.67
26/01/2020 10:26:21	26012020	260120	102621	102.920	12.418760	-57.245045	102.850	-0.220	0.280	-0.470	102.920	-1.100	0.200																			1580034381.0	0.85	1.57
26/01/2020 10:26:22	26012020	260120	102622	102.990	12.418763	-57.245045	102.860	-0.100	-0.010	-1.010	102.990	-1.300	-0.400																			1580034382.0	0.70	1.30
26/01/2020 10:26:23	26012020	260120	102623	102.950	12.418765	-57.245043	102.790	0.040	-0.400	-1.210	102.950	-1.600	-0.800																			1580034383.0	0.45	0.83
26/01/2020 10:26:24	26012020	260120	102624	102.830	12.418765	-57.245042	102.670	0.160	-0.660	-1.050	102.830	-2.000	-0.800																			1580034384.0	0.32	0.59
26/01/2020 10:26:25	26012020	260120	102625	102.680	12.418765	-57.245042	102.540	0.220	-0.590	-0.560	102.680	-2.000	-0.400																			1580034385.0	0.23	0.43
26/01/2020 10:26:26	26012020	260120	102626	102.540	12.418763	-57.245042	102.430	0.180	-0.200	0.110	102.540	-1.800	0.200																			1580034386.0	0.31	0.57
26/01/2020 10:26:27	26012020	260120	102627	102.490	12.418762	-57.245043	102.450	0.050	0.250	0.740	102.490	-1.300	0.900																			1580034387.0	0.50	0.93
26/01/2020 10:26:28	26012020	260120	102628	102.590	12.418760	-57.245045	102.600	-0.080	0.400	1.270	102.590	-1.000	1.500																			1580034388.0	0.59	1.09
26/01/2020 10:26:29	26012020	260120	102629	102.720	12.418757	-57.245047	102.760	-0.190	0.270	1.690	102.720	-1.000	1.900																			1580034389.0	0.67	1.24
26/01/2020 10:26:30	26012020	260120	102630	102.820	12.418753	-57.245047	102.760	-0.250	0.060	2.030	102.820	-1.200	2.300																			1580034390.0	0.74	1.37
26/01/2020 10:26:31	26012020	260120	102631	102.760	12.418750	-57.245047	102.670	-0.240	-0.150	2.120	102.760	-1.400	2.500																			1580034391.0	0.61	1.13
26/01/2020 10:26:32	26012020	260120	102632	102.650	12.418750	-57.245047	102.570	-0.080	-0.350	1.840	102.650	-1.600	2.400																			1580034392.0	0.20	0.37
26/01/2020 10:26:33	26012020	260120	102633	102.550	12.418752	-57.245045	102.430	0.170	-0.530	1.260	102.550	-1.800	1.900																			1580034393.0	0.42	0.78
26/01/2020 10:26:34	26012020	260120	102634	102.400	12.418755	-57.245043	102.270	0.350	-0.550	0.560	102.400	-1.900	1.300																			1580034394.0	0.92	1.70
26/01/2020 10:26:35	26012020	260120	102635	102.260	12.418760	-57.245042	102.130	0.290	-0.330	-0.130	102.260	-1.800	0.500																			1580034395.0	1.16	2.15
26/01/2020 10:26:36	26012020	260120	102636	102.190	12.418765	-57.245042	102.100	0.020	0.030	-0.690	102.190	-1.500	-0.100																			1580034396.0	1.09	2.02
26/01/2020 10:26:37	26012020	260120	102637	102.200	12.418768	-57.245042	102.130	-0.270	0.320	-0.990	102.200	-1.200	-0.500																			1580034397.0	0.71	1.31
26/01/2020 10:26:38	26012020	260120	102638	102.230	12.418770	-57.245042	102.170	-0.360	0.350	-0.990	102.230	-1.000	-0.600																			1580034398.0	0.24	0.44
26/01/2020 10:26:39	26012020	260120	102639	102.280	12.418768	-57.245042	102.240	-0.250	0.150	-0.760	102.280	-1.100	-0.500																			1580034399.0	0.16	0.30
26/01/2020 10:26:40	26012020	260120	102640	102.340	12.418767	-57.245040	102.310	-0.070	-0.130	-0.290	102.340	-1.400	-0.100																			1580034400.0	0.41	0.76
26/01/2020 10:26:41	26012020	260120	102641	102.380	12.418765	-57.245040	102.330	0.060	-0.390	0.380	102.380	-1.700	0.500																			1580034401.0	0.59	1.09
26/01/2020 10:26:42	26012020	260120	102642	102.350	12.418762	-57.245040	102.300	0.150	-0.530	1.120	102.350	-1.900	1.200																			1580034402.0	0.78	1.44
26/01/2020 10:26:43	26012020	260120	102643	102.240	12.418757	-57.245040	102.180	0.240	-0.470	1.710	102.240	-1.900	1.900																			1580034403.0	0.79	1.46
26/01/2020 10:26:44	26012020	260120	102644	102.090	12.418755	-57.245040	102.040	0.290	-0.280	1.990	102.090	-1.700	2.300																			1580034404.0	0.43	0.80
26/01/2020 10:26:45	26012020	260120	102645	101.990	12.418755	-57.245040	101.960	0.210	-0.060	1.950	101.990	-1.500	2.400																			1580034405.0	0.00	0.00
26/01/2020 10:26:46	26012020	260120	102646	101.970	12.418757	-57.245040	101.960	0.020	0.120	1.610	101.970	-1.300	2.200																			1580034406.0	0.29	0.54
26/01/2020 10:26:47	26012020	260120	102647	102.050	12.418758	-57.245040	102.060	-0.180	0.290	1.010	102.050	-1.200	1.700																			1580034407.0	0.54	1.00
26/01/2020 10:26:48	26012020	260120	102648	102.190	12.418763	-57.245038	102.170	-0.280	0.390	0.320	102.190	-1.000	1.000																			1580034408.0	0.72	1.33
26/01/2020 10:26:49	26012020	260120	102649	102.250	12.418767	-57.245038	102.170	-0.230	0.250	-0.260	102.250	-1.000	0.400																			1580034409.0	0.78	1.44
26/01/2020 10:26:50	26012020	260120	102650	102.210	12.418770	-57.245037	102.100	-0.040	-0.190	-0.710	102.210	-1.400	-0.200																			1580034410.0	0.75	1.39
26/01/2020 10:26:51	26012020	260120	102651	102.160	12.418772	-57.245035	102.060	0.170	-0.640	-0.970	102.160	-1.800	-0.500																			1580034411.0	0.78	1.44
26/01/2020 10:26:52	26012020	260120	102652	102.150	12.418773	-57.245032	102.070	0.250	-0.830	-0.870	102.150	-2.200	-0.600																			1580034412.0	0.62	1.15
26/01/2020 10:26:53	26012020	260120	102653	102.110	12.418773	-57.245032	102.010	0.110	-0.650	-0.370	102.110	-2.100	-0.200																			1580034413.0	0.23	0.43
26/01/2020 10:26:54	26012020	260120	102654	102.010	12.418770	-57.245032	101.960	-0.160	-0.170	0.290	102.010	-1.800	0.400																			1580034414.0	0.61	1.13
26/01/2020 10:26:55	26012020	260120	102655	102.000	12.418767	-57.245035	101.990	-0.390	0.340	0.850	102.000	-1.200	1.000																			1580034415.0	0.85	1.57
26/01/2020 10:26:56	26012020	260120	102656	102.060	12.418765	-57.245037	102.080	-0.420	0.550	1.230	102.060	-0.900	1.500																			1580034416.0	0.72	1.33
26/01/2020 10:26:57	26012020	260120	102657	102.180	12.418762	-57.245037	102.220	-0.200	0.400	1.370	102.180	-0.900	1.700																			1580034417.0	0.46	0.85
26/01/2020 10:26:58	26012020	260120	102658	102.320	12.418762	-57.245035	102.320	0.140	-0.010	1.290	102.320	-1.200	1.700																			1580034418.0	0.32	0.59
26/01/2020 10:26:59	26012020	260120	102659	102.350	12.418762	-57.245033	102.300	0.420	-0.420	1.090	102.350	-1.600	1.600																			1580034419.0	0.54	1.00
26/01/2020 10:27:00	26012020	260120	102700	102.310	12.418765	-57.245030	102.240	0.520	-0.590	0.760	102.310	-1.900	1.300	1014.30	25.50	25.50	19.20	19.20	18.00	68.00	68.00	377.00	24.90	358.00	6.90	100.00	6.60	1500	3281.00	27.40	27.40	1580034420.0	0.70	1.30
26/01/2020 10:27:01	26012020	260120	102701	102.270	12.418768	-57.245028	102.190	0.420	-0.470	0.420	102.270	-1.900	0.900																			1580034421.0	0.77	1.43
26/01/2020 10:27:02	26012020	260120	102702	102.220	12.418772	-57.245028	102.120	0.190	-0.190	0.200	102.220	-1.700	0.700																			1580034422.0	0.65	1.20
26/01/2020 10:27:03	26012020	260120	102703	102.120	12.418773	-57.245030	102.010	-0.090	0.030	0.140	102.120	-1.400	0.500																			1580034423.0	0.36	0.67
26/01/2020 10:27:04	26012020	260120	102704	102.010	12.418773	-57.245030	101.920	-0.330	0.100	0.130	102.010	-1.300	0.500																			1580034424.0	0.07	0.13
26/01/2020 10:27:05	26012020	260120	102705	101.970	12.418773	-57.245028	101.920	-0.410	0.020	0.050	101.970	-1.300	0.500																			1580034425.0	0.10	0.19
26/01/2020 10:27:06	26012020	260120	102706	102.030	12.418773	-57.245028	102.000	-0.310	-0.140	-0.040	102.030	-1.400	0.400																			1580034426.0	0.20	0.37
26/01/2020 10:27:07	26012020	260120	102707	102.110	12.418772	-57.245027	102.100	-0.090	-0.250	-0.060	102.110	-1.600	0.300																			1580034427.0	0.27	0.50
26/01/2020 10:27:08	26012020	260120	102708	102.190	12.418772	-57.245027	102.150	0.070	-0.140	-0.000	102.190	-1.600	0.300																			1580034428.0	0.19	0.35
26/01/2020 10:27:09	26012020	260120	102709	102.180	12.418772	-57.245027	102.100	0.060	0.070	0.170	102.180	-1.400	0.500																			1580034429.0	0.07	0.13
26/01/2020 10:27:10	26012020	260120	102710	102.090	12.418772	-57.245027	102.010	-0.040	0.140	0.380	102.090	-1.200	0.700																			1580034430.0	0.17	0.31
26/01/2020 10:27:11	26012020	260120	102711	102.010	12.418772	-57.245027	101.950	-0.070	-0.040	0.550	102.010	-1.300	0.900																			1580034431.0	0.07	0.13
26/01/2020 10:27:12	26012020	260120	102712	101.970	12.418772	-57.245027	101.930	0.060	-0.310	0.660	101.970	-1.600	1.000																			1580034432.0	0.27	0.50
26/01/2020 10:27:13	26012020	260120	102713	101.960	12.418770	-57.245025	101.920	0.210	-0.380	0.740	101.960	-1.800	1.100																			1580034433.0	0.29	0.54
26/01/2020 10:27:14	26012020	260120	102714	101.920	12.418770	-57.245025	101.850	0.250	-0.270	0.790	101.920	-1.700	1.200																			1580034434.0	0.07	0.13
26/01/2020 10:27:15	26012020	260120	102715	101.780	12.418770	-57.245025	101.670	0.170	-0.180	0.780	101.780	-1.600	1.200																			1580034435.0	0.09	0.17
26/01/2020 10:27:16	26012020	260120	102716	101.610	12.418772	-57.245025	101.530	0.070	-0.170	0.610	101.610	-1.500	1.100																			1580034436.0	0.20	0.37
26/01/2020 10:27:17	26012020	260120	102717	101.560	12.418773	-57.245023	101.510	0.040	-0.150	0.280	101.560	-1.500	0.800																			1580034437.0	0.37	0.69
26/01/2020 10:27:18	26012020	260120	102718	101.640	12.418775	-57.245023	101.620	0.060	-0.030	-0.110	101.640	-1.500	0.400																			1580034438.0	0.49	0.91
26/01/2020 10:27:19	26012020	260120	102719	101.770	12.418778	-57.245022	101.740	0.030	0.100	-0.410	101.770	-1.300	0.100																			1580034439.0	0.54	1.00
26/01/2020 10:27:20	26012020	260120	102720	101.870	12.418780	-57.245022	101.810	-0.130	0.180	-0.480	101.870	-1.200	-0.100																			1580034440.0	0.38	0.70
26/01/2020 10:27:21	26012020	260120	102721	101.880	12.418780	-57.245022	101.790	-0.360	0.130	-0.270	101.880	-1.200	0.000																			1580034441.0	0.06	0.11
26/01/2020 10:27:22	26012020	260120	102722	101.780	12.418778	-57.245022	101.660	-0.480	-0.070	0.150	101.780	-1.300	0.300																			1580034442.0	0.34	0.63
26/01/2020 10:27:23	26012020	260120	102723	101.630	12.418775	-57.245022	101.550	-0.350	-0.320	0.600	101.630	-1.600	0.800																			1580034443.0	0.64	1.19
26/01/2020 10:27:24	26012020	260120	102724	101.510	12.418772	-57.245022	101.430	-0.030	-0.470	0.960	101.510	-1.800	1.200																			1580034444.0	0.72	1.33
26/01/2020 10:27:25	26012020	260120	102725	101.380	12.418768	-57.245022	101.290	0.310	-0.480	1.210	101.380	-1.900	1.500																			1580034445.0	0.59	1.09
26/01/2020 10:27:26	26012020	260120	102726	101.250	12.418768	-57.245022	101.200	0.510	-0.350	1.180	101.250	-1.800	1.600																			1580034446.0	0.27	0.50
26/01/2020 10:27:27	26012020	260120	102727	101.270	12.418770	-57.245022	101.270	0.500	-0.070	0.750	101.270	-1.600	1.300																			1580034447.0	0.36	0.67
26/01/2020 10:27:28	26012020	260120	102728	101.420	12.418773	-57.245022	101.420	0.320	0.280	0.140	101.420	-1.200	0.800																			1580034448.0	0.95	1.76
26/01/2020 10:27:29	26012020	260120	102729	101.550	12.418778	-57.245022	101.500	0.090	0.450	-0.340	101.550	-1.000	0.200																			1580034449.0	1.07	1.98
26/01/2020 10:27:30	26012020	260120	102730	101.580	12.418782	-57.245022	101.510	-0.110	0.300	-0.510	101.580	-1.000	-0.100																			1580034450.0	0.76	1.41
26/01/2020 10:27:31	26012020	260120	102731	101.510	12.418783	-57.245022	101.400	-0.230	-0.150	-0.310	101.510	-1.300	-0.000																			1580034451.0	0.21	0.39
26/01/2020 10:27:32	26012020	260120	102732	101.370	12.418780	-57.245020	101.270	-0.240	-0.660	0.140	101.370	-1.800	0.300																			1580034452.0	0.54	1.00
26/01/2020 10:27:33	26012020	260120	102733	101.220	12.418777	-57.245018	101.130	-0.170	-0.910	0.670	101.220	-2.200	0.800																			1580034453.0	0.88	1.63
26/01/2020 10:27:34	26012020	260120	102734	101.050	12.418773	-57.245018	100.960	-0.100	-0.690	1.150	101.050	-2.200	1.300																			1580034454.0	0.89	1.65
26/01/2020 10:27:35	26012020	260120	102735	100.890	12.418770	-57.245020	100.850	-0.100	-0.030	1.370	100.890	-1.700	1.700																			1580034455.0	0.73	1.35
26/01/2020 10:27:36	26012020	260120	102736	100.890	12.418770	-57.245023	100.920	-0.140	0.610	1.160	100.890	-1.000	1.700																			1580034456.0	0.60	1.11
26/01/2020 10:27:37	26012020	260120	102737	101.060	12.418772	-57.245025	101.100	-0.110	0.760	0.640	101.060	-0.600	1.300																			1580034457.0	0.60	1.11
26/01/2020 10:27:38	26012020	260120	102738	101.290	12.418775	-57.245023	101.310	0.060	0.340	-0.010	101.290	-0.800	0.600																			1580034458.0	0.73	1.35
26/01/2020 10:27:39	26012020	260120	102739	101.460	12.418778	-57.245022	101.410	0.290	-0.320	-0.490	101.460	-1.400	0.100																			1580034459.0	0.92	1.70
26/01/2020 10:27:40	26012020	260120	102740	101.420	12.418780	-57.245018	101.290	0.430	-0.830	-0.620	101.420	-2.000	-0.200																			1580034460.0	0.81	1.50
26/01/2020 10:27:41	26012020	260120	102741	101.200	12.418782	-57.245017	101.050	0.370	-0.820	-0.360	101.200	-2.300	-0.100																			1580034461.0	0.38	0.70
26/01/2020 10:27:42	26012020	260120	102742	100.920	12.418780	-57.245018	100.800	0.150	-0.370	0.110	100.920	-1.900	0.300																			1580034462.0	0.21	0.39
26/01/2020 10:27:43	26012020	260120	102743	100.770	12.418780	-57.245020	100.720	-0.100	0.120	0.490	100.770	-1.400	0.700																			1580034463.0	0.55	1.02
26/01/2020 10:27:44	26012020	260120	102744	100.840	12.418778	-57.245022	100.900	-0.250	0.340	0.640	100.840	-1.100	1.000																			1580034464.0	0.43	0.80
26/01/2020 10:27:45	26012020	260120	102745	101.060	12.418778	-57.245022	101.220	-0.290	0.300	0.670	101.060	-1.000	1.000																			1580034465.0	0.24	0.44
26/01/2020 10:27:46	26012020	260120	102746	101.440	12.418777	-57.245022	101.490	-0.280	0.110	0.690	101.440	-1.200	1.000																			1580034466.0	0.33	0.61
26/01/2020 10:27:47	26012020	260120	102747	101.600	12.418775	-57.245022	101.590	-0.230	-0.090	0.750	101.600	-1.400	1.100																			1580034467.0	0.45	0.83
26/01/2020 10:27:48	26012020	260120	102748	101.600	12.418773	-57.245023	101.530	-0.100	-0.250	0.820	101.600	-1.500	1.200																			1580034468.0	0.38	0.70
26/01/2020 10:27:49	26012020	260120	102749	101.480	12.418772	-57.245023	101.400	0.130	-0.430	0.800	101.480	-1.700	1.200																			1580034469.0	0.11	0.20
26/01/2020 10:27:50	26012020	260120	102750	101.350	12.418773	-57.245022	101.300	0.340	-0.550	0.590	101.350	-1.900	1.100																			1580034470.0	0.30	0.56
26/01/2020 10:27:51	26012020	260120	102751	101.330	12.418777	-57.245022	101.320	0.400	-0.450	0.240	101.330	-1.900	0.800																			1580034471.0	0.60	1.11
26/01/2020 10:27:52	26012020	260120	102752	101.400	12.418778	-57.245022	101.360	0.240	-0.120	-0.060	101.400	-1.600	0.400																			1580034472.0	0.67	1.24
26/01/2020 10:27:53	26012020	260120	102753	101.450	12.418782	-57.245022	101.430	-0.040	0.250	-0.190	101.450	-1.300	0.200																			1580034473.0	0.56	1.04
26/01/2020 10:27:54	26012020	260120	102754	101.560	12.418782	-57.245023	101.570	-0.280	0.430	-0.190	101.560	-1.000	0.200																			1580034474.0	0.38	0.70
26/01/2020 10:27:55	26012020	260120	102755	101.740	12.418782	-57.245025	101.750	-0.340	0.310	-0.110	101.740	-1.000	0.200																			1580034475.0	0.28	0.52
26/01/2020 10:27:56	26012020	260120	102756	101.890	12.418780	-57.245025	101.880	-0.170	-0.140	0.080	101.890	-1.300	0.400																			1580034476.0	0.32	0.59
26/01/2020 10:27:57	26012020	260120	102757	101.960	12.418778	-57.245023	101.940	0.080	-0.580	0.450	101.960	-1.800	0.600																			1580034477.0	0.52	0.96
26/01/2020 10:27:58	26012020	260120	102758	101.940	12.418775	-57.245023	101.890	0.240	-0.640	0.910	101.940	-2.000	1.100																			1580034478.0	0.57	1.06
26/01/2020 10:27:59	26012020	260120	102759	101.860	12.418773	-57.245025	101.810	0.210	-0.320	1.250	101.860	-1.800	1.500																			1580034479.0	0.55	1.02
26/01/2020 10:28:00	26012020	260120	102800	101.810	12.418772	-57.245027	101.770	0.050	0.040	1.360	101.810	-1.500	1.700	1014.30	25.50	25.60	19.20	19.30	19.00	68.00	68.00	377.00	25.00	359.00	7.40	100.00	7.30	1624	3343.00	27.40	27.40	1580034480.0	0.50	0.93
26/01/2020 10:28:01	26012020	260120	102801	101.820	12.418773	-57.245028	101.800	-0.080	0.220	1.280	101.820	-1.200	1.700																			1580034481.0	0.35	0.65
26/01/2020 10:28:02	26012020	260120	102802	101.890	12.418775	-57.245028	101.900	-0.120	0.220	0.940	101.890	-1.100	1.500																			1580034482.0	0.39	0.72
26/01/2020 10:28:03	26012020	260120	102803	102.050	12.418777	-57.245028	102.050	-0.110	0.120	0.470	102.050	-1.200	1.000																			1580034483.0	0.50	0.93
26/01/2020 10:28:04	26012020	260120	102804	102.150	12.418780	-57.245028	102.080	-0.110	-0.050	0.150	102.150	-1.300	0.600																			1580034484.0	0.43	0.80
26/01/2020 10:28:05	26012020	260120	102805	102.090	12.418780	-57.245027	101.980	-0.110	-0.270	0.100	102.090	-1.500	0.500																			1580034485.0	0.17	0.31
26/01/2020 10:28:06	26012020	260120	102806	101.970	12.418780	-57.245027	101.880	-0.080	-0.490	0.080	101.970	-1.800	0.500																			1580034486.0	0.10	0.19
26/01/2020 10:28:07	26012020	260120	102807	101.970	12.418780	-57.245027	101.920	0.020	-0.590	-0.000	101.970	-1.900	0.400																			1580034487.0	0.15	0.28
26/01/2020 10:28:08	26012020	260120	102808	102.040	12.418780	-57.245025	101.980	0.190	-0.530	-0.060	102.040	-1.900	0.300																			1580034488.0	0.14	0.26
26/01/2020 10:28:09	26012020	260120	102809	102.040	12.418778	-57.245025	101.950	0.360	-0.280	-0.070	102.040	-1.800	0.300																			1580034489.0	0.10	0.19
26/01/2020 10:28:10	26012020	260120	102810	102.010	12.418780	-57.245025	101.920	0.370	0.180	-0.080	102.010	-1.400	0.300																			1580034490.0	0.12	0.22
26/01/2020 10:28:11	26012020	260120	102811	102.040	12.418782	-57.245027	101.990	0.140	0.610	-0.020	102.040	-0.900	0.300																			1580034491.0	0.37	0.69
26/01/2020 10:28:12	26012020	260120	102812	102.180	12.418782	-57.245028	102.170	-0.190	0.680	0.070	102.180	-0.600	0.400																			1580034492.0	0.39	0.72
26/01/2020 10:28:13	26012020	260120	102813	102.400	12.418783	-57.245028	102.390	-0.400	0.310	0.200	102.400	-0.900	0.500																			1580034493.0	0.05	0.09
26/01/2020 10:28:14	26012020	260120	102814	102.590	12.418780	-57.245027	102.540	-0.410	-0.240	0.470	102.590	-1.400	0.700																			1580034494.0	0.42	0.78
26/01/2020 10:28:15	26012020	260120	102815	102.650	12.418777	-57.245027	102.570	-0.260	-0.730	0.890	102.650	-1.900	1.100																			1580034495.0	0.78	1.44
26/01/2020 10:28:16	26012020	260120	102816	102.590	12.418773	-57.245025	102.480	-0.080	-0.940	1.330	102.590	-2.200	1.500																			1580034496.0	0.93	1.72
26/01/2020 10:28:17	26012020	260120	102817	102.430	12.418770	-57.245025	102.320	0.050	-0.720	1.590	102.430	-2.200	1.900																			1580034497.0	0.76	1.41
26/01/2020 10:28:18	26012020	260120	102818	102.270	12.418768	-57.245027	102.180	0.120	-0.180	1.510	102.270	-1.800	2.000																			1580034498.0	0.42	0.78
26/01/2020 10:28:19	26012020	260120	102819	102.160	12.418770	-57.245028	102.070	0.200	0.260	1.090	102.160	-1.200	1.700																			1580034499.0	0.45	0.83
26/01/2020 10:28:20	26012020	260120	102820	102.100	12.418773	-57.245028	102.040	0.290	0.290	0.390	102.100	-1.000	1.100																			1580034500.0	0.72	1.33
26/01/2020 10:28:21	26012020	260120	102821	102.200	12.418777	-57.245027	102.180	0.270	0.130	-0.400	102.200	-1.200	0.300																			1580034501.0	1.10	2.04
26/01/2020 10:28:22	26012020	260120	102822	102.400	12.418782	-57.245023	102.400	0.120	0.080	-0.950	102.400	-1.300	-0.400																			1580034502.0	1.05	1.94
26/01/2020 10:28:23	26012020	260120	102823	102.560	12.418785	-57.245023	102.500	-0.050	0.110	-1.110	102.560	-1.200	-0.700																			1580034503.0	0.56	1.04
26/01/2020 10:28:24	26012020	260120	102824	102.560	12.418785	-57.245025	102.450	-0.100	-0.020	-0.860	102.560	-1.300	-0.600																			1580034504.0	0.17	0.31
26/01/2020 10:28:25	26012020	260120	102825	102.460	12.418782	-57.245025	102.350	-0.040	-0.360	-0.340	102.460	-1.600	-0.200																			1580034505.0	0.41	0.76
26/01/2020 10:28:26	26012020	260120	102826	102.360	12.418778	-57.245023	102.280	-0.000	-0.620	0.400	102.360	-1.900	0.400																			1580034506.0	0.73	1.35
26/01/2020 10:28:27	26012020	260120	102827	102.310	12.418775	-57.245023	102.260	-0.100	-0.520	1.210	102.310	-2.000	1.200																			1580034507.0	0.98	1.81
26/01/2020 10:28:28	26012020	260120	102828	102.270	12.418770	-57.245027	102.210	-0.290	-0.140	1.820	102.270	-1.700	2.000																			1580034508.0	1.11	2.06
26/01/2020 10:28:29	26012020	260120	102829	102.170	12.418767	-57.245028	102.100	-0.390	0.150	2.070	102.170	-1.300	2.400																			1580034509.0	0.95	1.76
26/01/2020 10:28:30	26012020	260120	102830	102.060	12.418763	-57.245030	102.030	-0.300	0.190	1.930	102.060	-1.200	2.400																			1580034510.0	0.46	0.85
26/01/2020 10:28:31	26012020	260120	102831	102.100	12.418765	-57.245028	102.110	-0.080	0.130	1.420	102.100	-1.200	2.000																			1580034511.0	0.10	0.19
26/01/2020 10:28:32	26012020	260120	102832	102.280	12.418767	-57.245028	102.310	0.140	0.080	0.580	102.280	-1.300	1.300																			1580034512.0	0.57	1.06
26/01/2020 10:28:33	26012020	260120	102833	102.480	12.418772	-57.245028	102.470	0.300	0.020	-0.360	102.480	-1.300	0.400																			1580034513.0	0.94	1.74
26/01/2020 10:28:34	26012020	260120	102834	102.560	12.418777	-57.245027	102.410	0.420	-0.200	-0.990	102.560	-1.400	-0.400																			1580034514.0	1.04	1.93
26/01/2020 10:28:35	26012020	260120	102835	102.420	12.418780	-57.245025	102.170	0.480	-0.560	-1.180	102.420	-1.800	-0.800																			1580034515.0	0.82	1.52
26/01/2020 10:28:36	26012020	260120	102836	102.110	12.418780	-57.245023	101.980	0.400	-0.720	-0.990	102.110	-2.100	-0.700																			1580034516.0	0.51	0.94
26/01/2020 10:28:37	26012020	260120	102837	102.030	12.418780	-57.245023	101.980	0.140	-0.420	-0.570	102.030	-1.900	-0.400																			1580034517.0	0.12	0.22
26/01/2020 10:28:38	26012020	260120	102838	102.110	12.418778	-57.245025	102.090	-0.220	0.060	0.080	102.110	-1.500	0.200																			1580034518.0	0.54	1.00
26/01/2020 10:28:39	26012020	260120	102839	102.210	12.418775	-57.245028	102.190	-0.500	0.320	0.900	102.210	-1.100	0.900																			1580034519.0	0.99	1.83
26/01/2020 10:28:40	26012020	260120	102840	102.270	12.418768	-57.245030	102.260	-0.630	0.320	1.660	102.270	-1.000	1.700																			1580034520.0	1.33	2.46
26/01/2020 10:28:41	26012020	260120	102841	102.340	12.418763	-57.245030	102.340	-0.600	0.180	2.160	102.340	-1.100	2.400																			1580034521.0	1.37	2.54
26/01/2020 10:28:42	26012020	260120	102842	102.440	12.418758	-57.245032	102.440	-0.390	-0.000	2.300	102.440	-1.300	2.600																			1580034522.0	1.02	1.89
26/01/2020 10:28:43	26012020	260120	102843	102.500	12.418757	-57.245032	102.460	-0.040	-0.220	2.070	102.500	-1.500	2.600																			1580034523.0	0.46	0.85
26/01/2020 10:28:44	26012020	260120	102844	102.480	12.418757	-57.245032	102.400	0.330	-0.390	1.470	102.480	-1.700	2.100																			1580034524.0	0.26	0.48
26/01/2020 10:28:45	26012020	260120	102845	102.430	12.418762	-57.245030	102.350	0.530	-0.350	0.620	102.430	-1.700	1.400																			1580034525.0	0.84	1.56
26/01/2020 10:28:46	26012020	260120	102846	102.450	12.418767	-57.245030	102.380	0.480	-0.150	-0.240	102.450	-1.600	0.500																			1580034526.0	1.18	2.19
26/01/2020 10:28:47	26012020	260120	102847	102.480	12.418772	-57.245030	102.380	0.280	-0.020	-0.860	102.480	-1.400	-0.300																			1580034527.0	1.21	2.24
26/01/2020 10:28:48	26012020	260120	102848	102.500	12.418777	-57.245030	102.400	0.090	-0.090	-1.210	102.500	-1.400	-0.700																			1580034528.0	0.92	1.70
26/01/2020 10:28:49	26012020	260120	102849	102.510	12.418778	-57.245030	102.410	-0.000	-0.270	-1.240	102.510	-1.600	-0.900																			1580034529.0	0.48	0.89
26/01/2020 10:28:50	26012020	260120	102850	102.520	12.418777	-57.245028	102.430	-0.020	-0.330	-0.850	102.520	-1.700	-0.700																			1580034530.0	0.24	0.44
26/01/2020 10:28:51	26012020	260120	102851	102.590	12.418773	-57.245028	102.530	-0.050	-0.200	-0.120	102.590	-1.600	-0.100																			1580034531.0	0.71	1.31
26/01/2020 10:28:52	26012020	260120	102852	102.670	12.418768	-57.245030	102.620	-0.100	-0.010	0.780	102.670	-1.400	0.800																			1580034532.0	1.14	2.11
26/01/2020 10:28:53	26012020	260120	102853	102.720	12.418763	-57.245033	102.670	-0.170	0.110	1.590	102.720	-1.300	1.600																			1580034533.0	1.25	2.31
26/01/2020 10:28:54	26012020	260120	102854	102.760	12.418760	-57.245035	102.740	-0.230	0.110	2.080	102.760	-1.200	2.300																			1580034534.0	0.96	1.78
26/01/2020 10:28:55	26012020	260120	102855	102.830	12.418757	-57.245035	102.830	-0.250	0.010	2.220	102.830	-1.300	2.600																			1580034535.0	0.55	1.02
26/01/2020 10:28:56	26012020	260120	102856	102.900	12.418755	-57.245035	102.890	-0.190	-0.120	2.150	102.900	-1.400	2.600																			1580034536.0	0.33	0.61
26/01/2020 10:28:57	26012020	260120	102857	102.900	12.418755	-57.245035	102.840	-0.070	-0.250	1.870	102.900	-1.600	2.400																			1580034537.0	0.14	0.26
26/01/2020 10:28:58	26012020	260120	102858	102.840	12.418757	-57.245035	102.760	0.060	-0.320	1.350	102.840	-1.700	2.000																			1580034538.0	0.25	0.46
26/01/2020 10:28:59	26012020	260120	102859	102.820	12.418758	-57.245033	102.770	0.120	-0.230	0.570	102.820	-1.600	1.300																			1580034539.0	0.66	1.22
26/01/2020 10:29:00	26012020	260120	102900	102.900	12.418763	-57.245033	102.860	0.140	0.020	-0.280	102.900	-1.400	0.400	1014.40	25.60	25.70	19.50	19.60	21.00	69.00	69.00	377.00	25.00	347.00	7.50	89.00	7.20	1752	3288.00	27.40	27.40	1580034540.0	0.93	1.72
26/01/2020 10:29:01	26012020	260120	102901	103.000	12.418768	-57.245035	102.930	0.180	0.230	-0.920	103.000	-1.200	-0.300																			1580034541.0	0.96	1.78
26/01/2020 10:29:02	26012020	260120	102902	103.050	12.418772	-57.245035	102.910	0.250	0.130	-1.220	103.050	-1.100	-0.800																			1580034542.0	0.73	1.35
26/01/2020 10:29:03	26012020	260120	102903	103.020	12.418773	-57.245033	102.900	0.330	-0.220	-1.150	103.020	-1.400	-0.800																			1580034543.0	0.43	0.80
26/01/2020 10:29:04	26012020	260120	102904	103.040	12.418773	-57.245032	102.940	0.320	-0.500	-0.740	103.040	-1.800	-0.600																			1580034544.0	0.30	0.56
26/01/2020 10:29:05	26012020	260120	102905	103.070	12.418772	-57.245032	102.960	0.170	-0.540	-0.000	103.070	-1.900	0.000																			1580034545.0	0.37	0.69
26/01/2020 10:29:06	26012020	260120	102906	102.990	12.418768	-57.245033	102.850	-0.110	-0.390	1.000	102.990	-1.800	0.900																			1580034546.0	0.74	1.37
26/01/2020 10:29:07	26012020	260120	102907	102.790	12.418763	-57.245035	102.660	-0.420	-0.220	2.030	102.790	-1.600	2.000																			1580034547.0	1.17	2.17
26/01/2020 10:29:08	26012020	260120	102908	102.610	12.418757	-57.245037	102.530	-0.620	-0.020	2.810	102.610	-1.500	2.900																			1580034548.0	1.43	2.65
26/01/2020 10:29:09	26012020	260120	102909	102.540	12.418750	-57.245037	102.500	-0.630	0.190	3.110	102.540	-1.300	3.400																			1580034549.0	1.25	2.31
26/01/2020 10:29:10	26012020	260120	102910	102.560	12.418748	-57.245038	102.550	-0.420	0.320	2.810	102.560	-1.100	3.400																			1580034550.0	0.63	1.17
26/01/2020 10:29:11	26012020	260120	102911	102.640	12.418748	-57.245038	102.640	-0.060	0.310	1.920	102.640	-1.000	2.700																			1580034551.0	0.21	0.39
26/01/2020 10:29:12	26012020	260120	102912	102.770	12.418753	-57.245037	102.740	0.330	0.170	0.600	102.770	-1.100	1.500																			1580034552.0	1.06	1.96
26/01/2020 10:29:13	26012020	260120	102913	102.890	12.418760	-57.245035	102.820	0.580	-0.040	-0.750	102.890	-1.300	0.200																			1580034553.0	1.66	3.07
26/01/2020 10:29:14	26012020	260120	102914	103.000	12.418768	-57.245032	102.890	0.570	-0.240	-1.720	103.000	-1.500	-1.000																			1580034554.0	1.77	3.28
26/01/2020 10:29:15	26012020	260120	102915	102.990	12.418775	-57.245032	102.810	0.380	-0.430	-2.020	102.990	-1.700	-1.600																			1580034555.0	1.32	2.44
26/01/2020 10:29:16	26012020	260120	102916	102.800	12.418777	-57.245030	102.590	0.160	-0.630	-1.630	102.800	-1.900	-1.500																			1580034556.0	0.54	1.00
26/01/2020 10:29:17	26012020	260120	102917	102.530	12.418775	-57.245030	102.330	0.010	-0.750	-0.730	102.530	-2.100	-0.800																			1580034557.0	0.33	0.61
26/01/2020 10:29:18	26012020	260120	102918	102.260	12.418772	-57.245030	102.120	-0.120	-0.650	0.430	102.260	-2.100	0.300																			1580034558.0	0.99	1.83
26/01/2020 10:29:19	26012020	260120	102919	102.100	12.418765	-57.245032	102.040	-0.300	-0.230	1.580	102.100	-1.800	1.500																			1580034559.0	1.35	2.50
26/01/2020 10:29:20	26012020	260120	102920	102.080	12.418758	-57.245033	102.090	-0.470	0.340	2.430	102.080	-1.200	2.500																			1580034560.0	1.46	2.70
26/01/2020 10:29:21	26012020	260120	102921	102.200	12.418753	-57.245035	102.250	-0.530	0.710	2.810	102.200	-0.800	3.100																			1580034561.0	1.22	2.26
26/01/2020 10:29:22	26012020	260120	102922	102.390	12.418750	-57.245037	102.430	-0.410	0.660	2.600	102.390	-0.600	3.100																			1580034562.0	0.59	1.09
26/01/2020 10:29:23	26012020	260120	102923	102.570	12.418752	-57.245035	102.600	-0.150	0.210	1.890	102.570	-0.900	2.600																			1580034563.0	0.24	0.44
26/01/2020 10:29:24	26012020	260120	102924	102.710	12.418755	-57.245033	102.690	0.150	-0.320	0.930	102.710	-1.500	1.700																			1580034564.0	0.87	1.61
26/01/2020 10:29:25	26012020	260120	102925	102.760	12.418758	-57.245030	102.690	0.370	-0.510	-0.020	102.760	-1.800	0.700																			1580034565.0	1.17	2.17
26/01/2020 10:29:26	26012020	260120	102926	102.710	12.418765	-57.245028	102.570	0.450	-0.420	-0.800	102.710	-1.800	-0.100																			1580034566.0	1.26	2.33
26/01/2020 10:29:27	26012020	260120	102927	102.590	12.418770	-57.245028	102.420	0.410	-0.320	-1.290	102.590	-1.700	-0.800																			1580034567.0	1.18	2.19
26/01/2020 10:29:28	26012020	260120	102928	102.430	12.418775	-57.245028	102.270	0.300	-0.330	-1.340	102.430	-1.700	-1.000																			1580034568.0	0.88	1.63
26/01/2020 10:29:29	26012020	260120	102929	102.330	12.418777	-57.245027	102.240	0.110	-0.230	-1.020	102.330	-1.700	-0.800																			1580034569.0	0.40	0.74
26/01/2020 10:29:30	26012020	260120	102930	102.400	12.418775	-57.245028	102.360	-0.150	-0.020	-0.410	102.400	-1.500	-0.300																			1580034570.0	0.18	0.33
26/01/2020 10:29:31	26012020	260120	102931	102.520	12.418772	-57.245028	102.490	-0.340	0.090	0.420	102.520	-1.300	0.400																			1580034571.0	0.80	1.48
26/01/2020 10:29:32	26012020	260120	102932	102.570	12.418765	-57.245030	102.530	-0.370	0.000	1.360	102.570	-1.300	1.400																			1580034572.0	1.27	2.35
26/01/2020 10:29:33	26012020	260120	102933	102.550	12.418760	-57.245030	102.500	-0.230	-0.190	2.100	102.550	-1.500	2.200																			1580034573.0	1.38	2.56
26/01/2020 10:29:34	26012020	260120	102934	102.540	12.418755	-57.245030	102.510	-0.010	-0.320	2.420	102.540	-1.600	2.700																			1580034574.0	0.99	1.83
26/01/2020 10:29:35	26012020	260120	102935	102.560	12.418753	-57.245030	102.540	0.160	-0.260	2.290	102.560	-1.700	2.800																			1580034575.0	0.31	0.57
26/01/2020 10:29:36	26012020	260120	102936	102.580	12.418755	-57.245028	102.550	0.170	-0.030	1.840	102.580	-1.500	2.400																			1580034576.0	0.41	0.76
26/01/2020 10:29:37	26012020	260120	102937	102.600	12.418760	-57.245028	102.570	0.050	0.190	1.110	102.600	-1.200	1.800																			1580034577.0	0.80	1.48
26/01/2020 10:29:38	26012020	260120	102938	102.660	12.418763	-57.245028	102.610	-0.080	0.230	0.270	102.660	-1.100	1.000																			1580034578.0	0.99	1.83
26/01/2020 10:29:39	26012020	260120	102939	102.700	12.418768	-57.245028	102.610	-0.110	0.030	-0.500	102.700	-1.200	0.200																			1580034579.0	0.99	1.83
26/01/2020 10:29:40	26012020	260120	102940	102.750	12.418772	-57.245025	102.690	-0.050	-0.200	-1.080	102.750	-1.500	-0.500																			1580034580.0	0.87	1.61
26/01/2020 10:29:41	26012020	260120	102941	102.880	12.418775	-57.245025	102.820	0.030	-0.210	-1.350	102.880	-1.600	-0.900																			1580034581.0	0.55	1.02
26/01/2020 10:29:42	26012020	260120	102942	103.010	12.418775	-57.245025	102.930	0.140	-0.090	-1.260	103.010	-1.500	-1.000																			1580034582.0	0.24	0.44
26/01/2020 10:29:43	26012020	260120	102943	103.080	12.418775	-57.245027	102.980	0.250	-0.020	-0.820	103.080	-1.400	-0.700																			1580034583.0	0.26	0.48
26/01/2020 10:29:44	26012020	260120	102944	103.070	12.418773	-57.245027	102.950	0.310	-0.120	-0.130	103.070	-1.400	-0.100																			1580034584.0	0.36	0.67
26/01/2020 10:29:45	26012020	260120	102945	102.950	12.418772	-57.245027	102.790	0.280	-0.480	0.740	102.950	-1.700	0.700																			1580034585.0	0.47	0.87
26/01/2020 10:29:46	26012020	260120	102946	102.720	12.418768	-57.245027	102.580	0.160	-0.880	1.670	102.720	-2.100	1.700																			1580034586.0	0.76	1.41
26/01/2020 10:29:47	26012020	260120	102947	102.550	12.418763	-57.245025	102.470	-0.030	-0.910	2.430	102.550	-2.300	2.500																			1580034587.0	0.95	1.76
26/01/2020 10:29:48	26012020	260120	102948	102.510	12.418760	-57.245025	102.490	-0.280	-0.390	2.860	102.510	-2.000	3.100																			1580034588.0	0.85	1.57
26/01/2020 10:29:49	26012020	260120	102949	102.540	12.418757	-57.245027	102.550	-0.520	0.350	2.810	102.540	-1.300	3.300																			1580034589.0	0.74	1.37
26/01/2020 10:29:50	26012020	260120	102950	102.660	12.418757	-57.245028	102.680	-0.610	0.880	2.170	102.660	-0.700	2.900																			1580034590.0	0.47	0.87
26/01/2020 10:29:51	26012020	260120	102951	102.820	12.418758	-57.245028	102.870	-0.420	0.950	0.990	102.820	-0.400	1.900																			1580034591.0	0.56	1.04
26/01/2020 10:29:52	26012020	260120	102952	103.100	12.418765	-57.245027	103.090	-0.030	0.620	-0.370	103.100	-0.600	0.600																			1580034592.0	1.25	2.31
26/01/2020 10:29:53	26012020	260120	102953	103.320	12.418772	-57.245025	103.270	0.370	0.200	-1.560	103.320	-1.000	-0.700																			1580034593.0	1.52	2.82
26/01/2020 10:29:54	26012020	260120	102954	103.490	12.418778	-57.245023	103.380	0.630	-0.160	-2.350	103.490	-1.400	-1.700																			1580034594.0	1.44	2.67
26/01/2020 10:29:55	26012020	260120	102955	103.500	12.418783	-57.245022	103.320	0.690	-0.580	-2.460	103.500	-1.800	-2.100																			1580034595.0	1.19	2.20
26/01/2020 10:29:56	26012020	260120	102956	103.290	12.418785	-57.245022	103.080	0.550	-1.060	-1.770	103.290	-2.200	-1.800																			1580034596.0	0.54	1.00
26/01/2020 10:29:57	26012020	260120	102957	102.990	12.418783	-57.245020	102.800	0.320	-1.390	-0.460	102.990	-2.700	-0.700																			1580034597.0	0.47	0.87
26/01/2020 10:29:58	26012020	260120	102958	102.670	12.418777	-57.245020	102.510	0.040	-1.290	1.140	102.670	-2.800	0.900																			1580034598.0	1.37	2.54
26/01/2020 10:29:59	26012020	260120	102959	102.390	12.418768	-57.245022	102.300	-0.280	-0.650	2.650	102.390	-2.300	2.400																			1580034599.0	1.83	3.39
26/01/2020 10:30:00	26012020	260120	103000	102.230	12.418760	-57.245025	102.210	-0.600	0.270	3.690	102.230	-1.500	3.700	1014.30	25.60	25.60	19.00	19.10	23.00	67.00	67.00	376.00	25.00	349.00	7.60	91.00	7.10	1885	3318.00	27.40	27.40	1580034600.0	1.88	3.48
26/01/2020 10:30:01	26012020	260120	103001	102.240	12.418755	-57.245028	102.310	-0.810	1.020	3.890	102.240	-0.600	4.300																			1580034601.0	1.40	2.59
26/01/2020 10:30:02	26012020	260120	103002	102.470	12.418753	-57.245030	102.600	-0.750	1.240	3.150	102.470	-0.100	3.900																			1580034602.0	0.44	0.81
26/01/2020 10:30:03	26012020	260120	103003	102.820	12.418755	-57.245028	102.920	-0.390	0.940	1.740	102.820	-0.300	2.700																			1580034603.0	0.65	1.20
26/01/2020 10:30:04	26012020	260120	103004	103.130	12.418762	-57.245025	103.180	0.110	0.400	0.080	103.130	-0.700	1.100																			1580034604.0	1.46	2.70
26/01/2020 10:30:05	26012020	260120	103005	103.370	12.418770	-57.245022	103.340	0.540	-0.090	-1.470	103.370	-1.300	-0.500																			1580034605.0	1.80	3.33
26/01/2020 10:30:06	26012020	260120	103006	103.450	12.418777	-57.245020	103.330	0.790	-0.480	-2.550	103.450	-1.700	-1.800																			1580034606.0	1.81	3.35
26/01/2020 10:30:07	26012020	260120	103007	103.320	12.418785	-57.245018	103.130	0.840	-0.850	-2.960	103.320	-2.100	-2.500																			1580034607.0	1.56	2.89
26/01/2020 10:30:08	26012020	260120	103008	103.010	12.418788	-57.245017	102.780	0.680	-1.150	-2.530	103.010	-2.400	-2.400																			1580034608.0	1.00	1.85
26/01/2020 10:30:09	26012020	260120	103009	102.630	12.418788	-57.245017	102.440	0.280	-1.090	-1.290	102.630	-2.500	-1.500																			1580034609.0	0.14	0.26
26/01/2020 10:30:10	26012020	260120	103010	102.350	12.418783	-57.245018	102.250	-0.280	-0.550	0.400	102.350	-2.200	0.100																			1580034610.0	1.20	2.22
26/01/2020 10:30:11	26012020	260120	103011	102.230	12.418775	-57.245022	102.210	-0.800	0.150	2.050	102.230	-1.500	1.800																			1580034611.0	2.05	3.80
26/01/2020 10:30:12	26012020	260120	103012	102.260	12.418765	-57.245025	102.310	-1.050	0.560	3.260	102.260	-0.900	3.200																			1580034612.0	2.32	4.30
26/01/2020 10:30:13	26012020	260120	103013	102.360	12.418755	-57.245027	102.450	-0.860	0.550	3.770	102.360	-0.800	4.000																			1580034613.0	1.97	3.65
26/01/2020 10:30:14	26012020	260120	103014	102.520	12.418750	-57.245027	102.560	-0.320	0.280	3.460	102.520	-1.000	4.000																			1580034614.0	1.11	2.06
26/01/2020 10:30:15	26012020	260120	103015	102.610	12.418752	-57.245025	102.650	0.290	0.010	2.440	102.610	-1.300	3.300																			1580034615.0	0.48	0.89
26/01/2020 10:30:16	26012020	260120	103016	102.780	12.418757	-57.245022	102.770	0.690	-0.160	0.940	102.780	-1.500	2.000																			1580034616.0	1.38	2.56
26/01/2020 10:30:17	26012020	260120	103017	102.940	12.418767	-57.245020	102.880	0.760	-0.180	-0.690	102.940	-1.600	0.300																			1580034617.0	2.10	3.89
26/01/2020 10:30:18	26012020	260120	103018	103.020	12.418777	-57.245018	102.890	0.560	-0.070	-1.990	103.020	-1.500	-1.100																			1580034618.0	2.35	4.35
26/01/2020 10:30:19	26012020	260120	103019	102.960	12.418785	-57.245017	102.780	0.210	-0.000	-2.570	102.960	-1.400	-2.100																			1580034619.0	1.91	3.54
26/01/2020 10:30:20	26012020	260120	103020	102.830	12.418790	-57.245017	102.660	-0.120	-0.090	-2.350	102.830	-1.400	-2.200																			1580034620.0	0.85	1.57
26/01/2020 10:30:21	26012020	260120	103021	102.680	12.418788	-57.245018	102.530	-0.330	-0.350	-1.460	102.680	-1.600	-1.500																			1580034621.0	0.40	0.74
26/01/2020 10:30:22	26012020	260120	103022	102.570	12.418782	-57.245018	102.460	-0.380	-0.580	-0.240	102.570	-1.900	-0.400																			1580034622.0	1.34	2.48
26/01/2020 10:30:23	26012020	260120	103023	102.520	12.418773	-57.245018	102.460	-0.310	-0.580	1.030	102.520	-2.000	0.900																			1580034623.0	1.78	3.30
26/01/2020 10:30:24	26012020	260120	103024	102.500	12.418765	-57.245020	102.440	-0.130	-0.400	2.080	102.500	-1.900	2.100																			1580034624.0	1.75	3.24
26/01/2020 10:30:25	26012020	260120	103025	102.460	12.418760	-57.245022	102.430	0.070	-0.110	2.670	102.460	-1.600	2.900																			1580034625.0	1.26	2.33
26/01/2020 10:30:26	26012020	260120	103026	102.510	12.418758	-57.245023	102.540	0.170	0.240	2.630	102.510	-1.300	3.100																			1580034626.0	0.48	0.89
26/01/2020 10:30:27	26012020	260120	103027	102.660	12.418760	-57.245023	102.730	0.140	0.520	2.020	102.660	-0.900	2.700																			1580034627.0	0.40	0.74
26/01/2020 10:30:28	26012020	260120	103028	102.860	12.418763	-57.245023	102.820	0.080	0.450	1.110	102.860	-0.800	1.900																			1580034628.0	0.96	1.78
26/01/2020 10:30:29	26012020	260120	103029	102.900	12.418770	-57.245022	102.820	0.070	-0.050	0.190	102.900	-1.200	0.900																			1580034629.0	1.25	2.31
26/01/2020 10:30:30	26012020	260120	103030	102.890	12.418775	-57.245018	102.800	0.070	-0.580	-0.540	102.890	-1.800	0.100																			1580034630.0	1.30	2.41
26/01/2020 10:30:31	26012020	260120	103031	102.920	12.418778	-57.245017	102.860	-0.020	-0.630	-0.990	102.920	-2.000	-0.500																			1580034631.0	0.92	1.70
26/01/2020 10:30:32	26012020	260120	103032	103.010	12.418780	-57.245017	102.960	-0.170	-0.220	-1.140	103.010	-1.800	-0.700																			1580034632.0	0.37	0.69
26/01/2020 10:30:33	26012020	260120	103033	103.100	12.418780	-57.245020	103.010	-0.230	0.110	-0.950	103.100	-1.400	-0.700																			1580034633.0	0.59	1.09
26/01/2020 10:30:34	26012020	260120	103034	103.100	12.418777	-57.245022	102.990	-0.080	0.010	-0.470	103.100	-1.300	-0.300																			1580034634.0	0.62	1.15
26/01/2020 10:30:35	26012020	260120	103035	103.020	12.418773	-57.245022	102.930	0.200	-0.320	0.130	103.020	-1.600	0.300																			1580034635.0	0.73	1.35
26/01/2020 10:30:36	26012020	260120	103036	103.020	12.418770	-57.245020	103.010	0.340	-0.350	0.620	103.020	-1.800	0.800																			1580034636.0	0.70	1.30
26/01/2020 10:30:37	26012020	260120	103037	103.230	12.418768	-57.245020	103.260	0.200	0.050	0.970	103.230	-1.500	1.200																			1580034637.0	0.40	0.74
26/01/2020 10:30:38	26012020	260120	103038	103.500	12.418768	-57.245023	103.520	-0.070	0.450	1.250	103.500	-1.000	1.500																			1580034638.0	0.63	1.17
26/01/2020 10:30:39	26012020	260120	103039	103.640	12.418768	-57.245025	103.600	-0.240	0.370	1.500	103.640	-0.900	1.800																			1580034639.0	0.58	1.07
26/01/2020 10:30:40	26012020	260120	103040	103.610	12.418767	-57.245027	103.520	-0.180	-0.180	1.660	103.610	-1.300	2.000																			1580034640.0	0.15	0.28
26/01/2020 10:30:41	26012020	260120	103041	103.500	12.418767	-57.245023	103.400	0.030	-0.780	1.650	103.500	-1.900	2.000																			1580034641.0	0.48	0.89
26/01/2020 10:30:42	26012020	260120	103042	103.390	12.418765	-57.245022	103.320	0.160	-0.950	1.510	103.390	-2.300	2.000																			1580034642.0	0.48	0.89
26/01/2020 10:30:43	26012020	260120	103043	103.350	12.418765	-57.245022	103.290	0.090	-0.570	1.210	103.350	-2.100	1.700																			1580034643.0	0.09	0.17
26/01/2020 10:30:44	26012020	260120	103044	103.370	12.418767	-57.245023	103.310	-0.150	0.100	0.670	103.370	-1.600	1.300																			1580034644.0	0.47	0.87
26/01/2020 10:30:45	26012020	260120	103045	103.500	12.418770	-57.245025	103.480	-0.350	0.650	-0.080	103.500	-0.900	0.600																			1580034645.0	0.83	1.54
26/01/2020 10:30:46	26012020	260120	103046	103.730	12.418775	-57.245027	103.690	-0.310	0.720	-0.850	103.730	-0.600	-0.200																			1580034646.0	0.88	1.63
26/01/2020 10:30:47	26012020	260120	103047	103.910	12.418778	-57.245025	103.850	-0.040	0.310	-1.360	103.910	-0.900	-0.800																			1580034647.0	0.75	1.39
26/01/2020 10:30:48	26012020	260120	103048	104.050	12.418780	-57.245023	103.980	0.240	-0.210	-1.450	104.050	-1.400	-1.100																			1580034648.0	0.57	1.06
26/01/2020 10:30:49	26012020	260120	103049	104.130	12.418778	-57.245022	104.030	0.320	-0.510	-1.120	104.130	-1.800	-0.900																			1580034649.0	0.25	0.46
26/01/2020 10:30:50	26012020	260120	103050	104.070	12.418777	-57.245023	103.940	0.220	-0.560	-0.440	104.070	-1.900	-0.400																			1580034650.0	0.44	0.81
26/01/2020 10:30:51	26012020	260120	103051	103.900	12.418773	-57.245025	103.780	0.060	-0.480	0.460	103.900	-1.900	0.400																			1580034651.0	0.77	1.43
26/01/2020 10:30:52	26012020	260120	103052	103.710	12.418770	-57.245027	103.610	-0.090	-0.380	1.450	103.710	-1.800	1.400																			1580034652.0	0.97	1.80
26/01/2020 10:30:53	26012020	260120	103053	103.550	12.418765	-57.245028	103.490	-0.190	-0.250	2.250	103.550	-1.700	2.300																			1580034653.0	1.13	2.09
26/01/2020 10:30:54	26012020	260120	103054	103.490	12.418760	-57.245030	103.480	-0.240	-0.130	2.530	103.490	-1.600	2.800																			1580034654.0	0.95	1.76
26/01/2020 10:30:55	26012020	260120	103055	103.540	12.418758	-57.245030	103.540	-0.200	0.010	2.270	103.540	-1.400	2.800																			1580034655.0	0.42	0.78
26/01/2020 10:30:56	26012020	260120	103056	103.650	12.418760	-57.245030	103.650	-0.100	0.250	1.640	103.650	-1.200	2.300																			1580034656.0	0.16	0.30
26/01/2020 10:30:57	26012020	260120	103057	103.780	12.418762	-57.245030	103.780	0.020	0.460	0.800	103.780	-1.000	1.500																			1580034657.0	0.62	1.15
26/01/2020 10:30:58	26012020	260120	103058	103.910	12.418767	-57.245030	103.890	0.150	0.340	-0.120	103.910	-0.900	0.600																			1580034658.0	0.91	1.69
26/01/2020 10:30:59	26012020	260120	103059	103.990	12.418772	-57.245030	103.920	0.270	-0.130	-0.960	103.990	-1.300	-0.300																			1580034659.0	1.08	2.00
26/01/2020 10:31:00	26012020	260120	103100	103.960	12.418777	-57.245027	103.830	0.280	-0.590	-1.430	103.960	-1.800	-0.900	1014.40	25.50	25.60	19.00	19.00	25.00	67.00	67.00	377.00	25.00	347.00	7.40	89.00	6.90	2022	3255.00	27.40	27.40	1580034660.0	1.10	2.04
26/01/2020 10:31:01	26012020	260120	103101	103.810	12.418778	-57.245025	103.640	0.150	-0.710	-1.330	103.810	-2.100	-1.100																			1580034661.0	0.61	1.13
26/01/2020 10:31:02	26012020	260120	103102	103.550	12.418778	-57.245027	103.390	-0.090	-0.490	-0.720	103.550	-2.000	-0.600																			1580034662.0	0.21	0.39
26/01/2020 10:31:03	26012020	260120	103103	103.340	12.418775	-57.245028	103.240	-0.340	-0.110	0.090	103.340	-1.600	0.100																			1580034663.0	0.91	1.69
26/01/2020 10:31:04	26012020	260120	103104	103.310	12.418770	-57.245032	103.280	-0.500	0.190	0.850	103.310	-1.300	0.900																			1580034664.0	1.25	2.31
26/01/2020 10:31:05	26012020	260120	103105	103.420	12.418763	-57.245033	103.420	-0.470	0.310	1.440	103.420	-1.100	1.600																			1580034665.0	1.28	2.37
26/01/2020 10:31:06	26012020	260120	103106	103.510	12.418760	-57.245035	103.470	-0.230	0.210	1.790	103.510	-1.100	2.000																			1580034666.0	1.06	1.96
26/01/2020 10:31:07	26012020	260120	103107	103.440	12.418757	-57.245035	103.350	0.130	-0.070	1.860	103.440	-1.300	2.200																			1580034667.0	0.59	1.09
26/01/2020 10:31:08	26012020	260120	103108	103.320	12.418757	-57.245035	103.250	0.420	-0.290	1.590	103.320	-1.600	2.100																			1580034668.0	0.23	0.43
26/01/2020 10:31:09	26012020	260120	103109	103.280	12.418758	-57.245033	103.230	0.530	-0.310	1.050	103.280	-1.700	1.700																			1580034669.0	0.56	1.04
26/01/2020 10:31:10	26012020	260120	103110	103.290	12.418763	-57.245033	103.230	0.440	-0.230	0.440	103.290	-1.600	1.100																			1580034670.0	0.95	1.76
26/01/2020 10:31:11	26012020	260120	103111	103.240	12.418768	-57.245033	103.120	0.200	-0.190	-0.010	103.240	-1.600	0.500																			1580034671.0	0.98	1.81
26/01/2020 10:31:12	26012020	260120	103112	103.070	12.418770	-57.245033	102.900	-0.070	-0.220	-0.160	103.070	-1.600	0.200																			1580034672.0	0.61	1.13
26/01/2020 10:31:13	26012020	260120	103113	102.810	12.418770	-57.245032	102.640	-0.260	-0.270	-0.000	102.810	-1.600	0.300																			1580034673.0	0.10	0.19
26/01/2020 10:31:14	26012020	260120	103114	102.550	12.418768	-57.245032	102.420	-0.340	-0.230	0.330	102.550	-1.600	0.600																			1580034674.0	0.50	0.93
26/01/2020 10:31:15	26012020	260120	103115	102.410	12.418765	-57.245033	102.350	-0.330	-0.090	0.610	102.410	-1.500	0.900																			1580034675.0	0.76	1.41
26/01/2020 10:31:16	26012020	260120	103116	102.480	12.418762	-57.245033	102.480	-0.280	0.140	0.680	102.480	-1.300	1.000																			1580034676.0	0.65	1.20
26/01/2020 10:31:17	26012020	260120	103117	102.620	12.418760	-57.245035	102.650	-0.170	0.330	0.640	102.620	-1.100	1.000																			1580034677.0	0.39	0.72
26/01/2020 10:31:18	26012020	260120	103118	102.780	12.418760	-57.245035	102.730	0.010	0.320	0.570	102.780	-1.000	1.000																			1580034678.0	0.18	0.33
26/01/2020 10:31:19	26012020	260120	103119	102.780	12.418762	-57.245035	102.690	0.190	0.050	0.500	102.780	-1.200	0.900																			1580034679.0	0.18	0.33
26/01/2020 10:31:20	26012020	260120	103120	102.710	12.418762	-57.245035	102.600	0.270	-0.310	0.500	102.710	-1.500	0.900																			1580034680.0	0.34	0.63
26/01/2020 10:31:21	26012020	260120	103121	102.590	12.418763	-57.245033	102.480	0.250	-0.500	0.640	102.590	-1.800	1.000																			1580034681.0	0.28	0.52
26/01/2020 10:31:22	26012020	260120	103122	102.450	12.418763	-57.245033	102.330	0.150	-0.430	0.880	102.450	-1.900	1.200																			1580034682.0	0.04	0.07
26/01/2020 10:31:23	26012020	260120	103123	102.270	12.418763	-57.245033	102.170	-0.000	-0.300	1.130	102.270	-1.700	1.400																			1580034683.0	0.16	0.30
26/01/2020 10:31:24	26012020	260120	103124	102.150	12.418762	-57.245035	102.090	-0.180	-0.200	1.280	102.150	-1.600	1.600																			1580034684.0	0.26	0.48
26/01/2020 10:31:25	26012020	260120	103125	102.160	12.418760	-57.245035	102.120	-0.280	-0.100	1.220	102.160	-1.500	1.600																			1580034685.0	0.34	0.63
26/01/2020 10:31:26	26012020	260120	103126	102.200	12.418758	-57.245035	102.120	-0.210	-0.040	1.050	102.200	-1.400	1.500																			1580034686.0	0.23	0.43
26/01/2020 10:31:27	26012020	260120	103127	102.160	12.418758	-57.245035	102.060	0.000	-0.120	0.790	102.160	-1.400	1.300																			1580034687.0	0.11	0.20
26/01/2020 10:31:28	26012020	260120	103128	102.100	12.418760	-57.245033	102.000	0.230	-0.220	0.440	102.100	-1.600	1.000																			1580034688.0	0.36	0.67
26/01/2020 10:31:29	26012020	260120	103129	102.080	12.418762	-57.245032	101.990	0.340	-0.160	0.030	102.080	-1.600	0.600																			1580034689.0	0.60	1.11
26/01/2020 10:31:30	26012020	260120	103130	102.150	12.418765	-57.245030	102.100	0.240	0.130	-0.340	102.150	-1.400	0.200																			1580034690.0	0.79	1.46
26/01/2020 10:31:31	26012020	260120	103131	102.310	12.418768	-57.245030	102.320	-0.010	0.470	-0.550	102.310	-1.000	-0.100																			1580034691.0	0.76	1.41
26/01/2020 10:31:32	26012020	260120	103132	102.530	12.418770	-57.245032	102.440	-0.220	0.520	-0.400	102.530	-0.800	-0.100																			1580034692.0	0.50	0.93
26/01/2020 10:31:33	26012020	260120	103133	102.480	12.418768	-57.245033	102.320	-0.280	0.110	0.140	102.480	-1.100	0.300																			1580034693.0	0.29	0.54
26/01/2020 10:31:34	26012020	260120	103134	102.270	12.418765	-57.245032	102.130	-0.180	-0.500	0.830	102.270	-1.600	0.900																			1580034694.0	0.81	1.50
26/01/2020 10:31:35	26012020	260120	103135	102.100	12.418762	-57.245032	102.000	-0.020	-0.930	1.450	102.100	-2.200	1.600																			1580034695.0	0.98	1.81
26/01/2020 10:31:36	26012020	260120	103136	101.990	12.418757	-57.245030	101.910	0.090	-0.940	1.870	101.990	-2.400	2.100																			1580034696.0	0.81	1.50
26/01/2020 10:31:37	26012020	260120	103137	101.930	12.418755	-57.245032	101.860	0.070	-0.530	1.930	101.930	-2.100	2.300																			1580034697.0	0.41	0.76
26/01/2020 10:31:38	26012020	260120	103138	101.920	12.418757	-57.245032	101.880	-0.070	0.120	1.600	101.920	-1.500	2.200																			1580034698.0	0.30	0.56
26/01/2020 10:31:39	26012020	260120	103139	101.990	12.418758	-57.245033	101.930	-0.170	0.560	1.000	101.990	-0.900	1.600																			1580034699.0	0.66	1.22
26/01/2020 10:31:40	26012020	260120	103140	102.060	12.418762	-57.245033	101.990	-0.120	0.520	0.370	102.060	-0.800	1.000																			1580034700.0	0.73	1.35
26/01/2020 10:31:41	26012020	260120	103141	102.140	12.418765	-57.245032	102.070	0.050	0.140	-0.280	102.140	-1.100	0.400																			1580034701.0	0.79	1.46
26/01/2020 10:31:42	26012020	260120	103142	102.240	12.418768	-57.245028	102.130	0.220	-0.210	-0.850	102.240	-1.500	-0.300																			1580034702.0	0.88	1.63
26/01/2020 10:31:43	26012020	260120	103143	102.240	12.418772	-57.245027	102.090	0.320	-0.390	-1.110	102.240	-1.700	-0.700																			1580034703.0	0.78	1.44
26/01/2020 10:31:44	26012020	260120	103144	102.160	12.418773	-57.245025	102.010	0.330	-0.400	-0.940	102.160	-1.800	-0.700																			1580034704.0	0.51	0.94
26/01/2020 10:31:45	26012020	260120	103145	102.100	12.418773	-57.245025	102.000	0.200	-0.280	-0.450	102.100	-1.700	-0.300																			1580034705.0	0.07	0.13
26/01/2020 10:31:46	26012020	260120	103146	102.130	12.418772	-57.245027	102.060	-0.070	-0.060	0.220	102.130	-1.500	0.300																			1580034706.0	0.44	0.81
26/01/2020 10:31:47	26012020	260120	103147	102.150	12.418768	-57.245028	102.090	-0.370	0.110	0.960	102.150	-1.300	1.000																			1580034707.0	0.79	1.46
26/01/2020 10:31:48	26012020	260120	103148	102.150	12.418765	-57.245030	102.090	-0.510	0.090	1.620	102.150	-1.200	1.700																			1580034708.0	0.94	1.74
26/01/2020 10:31:49	26012020	260120	103149	102.160	12.418760	-57.245030	102.100	-0.390	-0.110	2.060	102.160	-1.400	2.300																			1580034709.0	0.92	1.70
26/01/2020 10:31:50	26012020	260120	103150	102.160	12.418757	-57.245030	102.100	-0.060	-0.310	2.140	102.160	-1.600	2.500																			1580034710.0	0.77	1.43
26/01/2020 10:31:51	26012020	260120	103151	102.170	12.418755	-57.245028	102.090	0.270	-0.310	1.790	102.170	-1.700	2.400																			1580034711.0	0.31	0.57
26/01/2020 10:31:52	26012020	260120	103152	102.160	12.418758	-57.245028	102.070	0.370	-0.110	1.120	102.160	-1.600	1.800																			1580034712.0	0.60	1.11
26/01/2020 10:31:53	26012020	260120	103153	102.150	12.418763	-57.245028	102.060	0.240	0.080	0.290	102.150	-1.400	1.000																			1580034713.0	1.16	2.15
26/01/2020 10:31:54	26012020	260120	103154	102.180	12.418770	-57.245027	102.070	0.030	0.040	-0.470	102.180	-1.300	0.200																			1580034714.0	1.27	2.35
26/01/2020 10:31:55	26012020	260120	103155	102.180	12.418773	-57.245025	102.060	-0.080	-0.240	-0.990	102.180	-1.500	-0.400																			1580034715.0	1.01	1.87
26/01/2020 10:31:56	26012020	260120	103156	102.180	12.418777	-57.245023	102.070	-0.070	-0.450	-1.170	102.180	-1.800	-0.800																			1580034716.0	0.64	1.19
26/01/2020 10:31:57	26012020	260120	103157	102.180	12.418777	-57.245022	102.080	-0.040	-0.360	-1.020	102.180	-1.800	-0.700																			1580034717.0	0.24	0.44
26/01/2020 10:31:58	26012020	260120	103158	102.160	12.418775	-57.245023	102.060	-0.040	-0.070	-0.630	102.160	-1.600	-0.400																			1580034718.0	0.36	0.67
26/01/2020 10:31:59	26012020	260120	103159	102.150	12.418772	-57.245023	102.070	-0.020	0.210	-0.160	102.150	-1.300	0.000																			1580034719.0	0.50	0.93
26/01/2020 10:32:00	26012020	260120	103200	102.200	12.418770	-57.245025	102.150	0.060	0.360	0.290	102.200	-1.100	0.500	1014.40	25.50	25.60	19.20	19.20	27.00	67.00	67.00	377.00	25.00	355.00	7.30	97.00	7.10	2164	3205.00	27.40	27.40	1580034720.0	0.39	0.72
26/01/2020 10:32:01	26012020	260120	103201	102.290	12.418770	-57.245025	102.270	0.150	0.310	0.690	102.290	-1.000	0.900																			1580034721.0	0.20	0.37
26/01/2020 10:32:02	26012020	260120	103202	102.420	12.418768	-57.245025	102.390	0.140	0.050	1.060	102.420	-1.200	1.300																			1580034722.0	0.18	0.33
26/01/2020 10:32:03	26012020	260120	103203	102.500	12.418768	-57.245025	102.430	0.020	-0.360	1.390	102.500	-1.600	1.600																			1580034723.0	0.32	0.59
26/01/2020 10:32:04	26012020	260120	103204	102.420	12.418765	-57.245025	102.280	-0.120	-0.730	1.680	102.420	-2.000	1.900																			1580034724.0	0.47	0.87
26/01/2020 10:32:05	26012020	260120	103205	102.170	12.418763	-57.245023	102.010	-0.180	-0.860	1.880	102.170	-2.200	2.200																			1580034725.0	0.53	0.98
26/01/2020 10:32:06	26012020	260120	103206	101.920	12.418762	-57.245023	101.800	-0.150	-0.610	1.800	101.920	-2.100	2.200																			1580034726.0	0.36	0.67
26/01/2020 10:32:07	26012020	260120	103207	101.840	12.418762	-57.245023	101.810	-0.110	-0.040	1.260	101.840	-1.700	1.900																			1580034727.0	0.09	0.17
26/01/2020 10:32:08	26012020	260120	103208	102.000	12.418765	-57.245025	102.000	-0.120	0.530	0.310	102.000	-1.100	1.100																			1580034728.0	0.65	1.20
26/01/2020 10:32:09	26012020	260120	103209	102.260	12.418770	-57.245025	102.230	-0.120	0.760	-0.760	102.260	-0.700	0.000																			1580034729.0	1.12	2.07
26/01/2020 10:32:10	26012020	260120	103210	102.410	12.418775	-57.245023	102.310	-0.000	0.450	-1.560	102.410	-0.700	-0.900																			1580034730.0	1.22	2.26
26/01/2020 10:32:11	26012020	260120	103211	102.420	12.418780	-57.245022	102.280	0.210	-0.150	-1.920	102.420	-1.300	-1.400																			1580034731.0	1.03	1.91
26/01/2020 10:32:12	26012020	260120	103212	102.340	12.418782	-57.245018	102.210	0.400	-0.610	-1.760	102.340	-1.800	-1.500																			1580034732.0	0.72	1.33
26/01/2020 10:32:13	26012020	260120	103213	102.270	12.418782	-57.245017	102.160	0.440	-0.690	-1.170	102.270	-2.100	-1.100																			1580034733.0	0.24	0.44
26/01/2020 10:32:14	26012020	260120	103214	102.200	12.418780	-57.245018	102.100	0.300	-0.470	-0.330	102.200	-2.000	-0.300																			1580034734.0	0.43	0.80
26/01/2020 10:32:15	26012020	260120	103215	102.090	12.418777	-57.245020	102.000	0.050	-0.180	0.660	102.090	-1.700	0.600																			1580034735.0	0.81	1.50
26/01/2020 10:32:16	26012020	260120	103216	102.000	12.418772	-57.245022	101.980	-0.210	0.030	1.610	102.000	-1.400	1.600																			1580034736.0	1.06	1.96
26/01/2020 10:32:17	26012020	260120	103217	102.060	12.418767	-57.245023	102.080	-0.380	0.140	2.230	102.060	-1.300	2.400																			1580034737.0	1.12	2.07
26/01/2020 10:32:18	26012020	260120	103218	102.160	12.418763	-57.245023	102.140	-0.410	0.110	2.440	102.160	-1.200	2.800																			1580034738.0	0.88	1.63
26/01/2020 10:32:19	26012020	260120	103219	102.170	12.418760	-57.245023	102.110	-0.330	-0.020	2.250	102.170	-1.300	2.700																			1580034739.0	0.44	0.81
26/01/2020 10:32:20	26012020	260120	103220	102.100	12.418762	-57.245023	102.010	-0.170	-0.180	1.690	102.100	-1.500	2.300																			1580034740.0	0.21	0.39
26/01/2020 10:32:21	26012020	260120	103221	102.030	12.418763	-57.245022	101.940	-0.020	-0.280	0.840	102.030	-1.600	1.600																			1580034741.0	0.66	1.22
26/01/2020 10:32:22	26012020	260120	103222	102.070	12.418768	-57.245020	102.030	0.030	-0.170	-0.190	102.070	-1.600	0.600																			1580034742.0	1.03	1.91
26/01/2020 10:32:23	26012020	260120	103223	102.230	12.418773	-57.245018	102.170	0.030	0.060	-1.130	102.230	-1.400	-0.400																			1580034743.0	1.11	2.06
26/01/2020 10:32:24	26012020	260120	103224	102.370	12.418778	-57.245020	102.270	0.090	0.180	-1.780	102.370	-1.200	-1.200																			1580034744.0	0.93	1.72
26/01/2020 10:32:25	26012020	260120	103225	102.390	12.418780	-57.245020	102.250	0.250	0.000	-1.970	102.390	-1.300	-1.600																			1580034745.0	0.62	1.15
26/01/2020 10:32:26	26012020	260120	103226	102.270	12.418782	-57.245018	102.120	0.430	-0.350	-1.660	102.270	-1.600	-1.500																			1580034746.0	0.32	0.59
26/01/2020 10:32:27	26012020	260120	103227	102.110	12.418780	-57.245017	101.980	0.480	-0.550	-1.010	102.110	-1.900	-0.900																			1580034747.0	0.36	0.67
26/01/2020 10:32:28	26012020	260120	103228	101.990	12.418778	-57.245017	101.910	0.330	-0.420	-0.100	101.990	-1.900	-0.100																			1580034748.0	0.42	0.78
26/01/2020 10:32:29	26012020	260120	103229	101.950	12.418775	-57.245018	101.940	0.040	-0.100	0.940	101.950	-1.600	0.900																			1580034749.0	0.82	1.52
26/01/2020 10:32:30	26012020	260120	103230	102.040	12.418770	-57.245020	102.060	-0.240	0.160	1.850	102.040	-1.300	1.900																			1580034750.0	1.14	2.11
26/01/2020 10:32:31	26012020	260120	103231	102.130	12.418765	-57.245022	102.120	-0.410	0.180	2.510	102.130	-1.200	2.600																			1580034751.0	1.09	2.02
26/01/2020 10:32:32	26012020	260120	103232	102.110	12.418762	-57.245022	102.060	-0.470	0.030	2.840	102.110	-1.300	3.100																			1580034752.0	0.94	1.74
26/01/2020 10:32:33	26012020	260120	103233	102.010	12.418758	-57.245022	101.950	-0.450	-0.110	2.740	102.010	-1.400	3.200																			1580034753.0	0.65	1.20
26/01/2020 10:32:34	26012020	260120	103234	101.920	12.418758	-57.245022	101.840	-0.340	-0.190	2.180	101.920	-1.500	2.800																			1580034754.0	0.12	0.22
26/01/2020 10:32:35	26012020	260120	103235	101.840	12.418760	-57.245022	101.760	-0.160	-0.180	1.250	101.840	-1.600	2.000																			1580034755.0	0.51	0.94
26/01/2020 10:32:36	26012020	260120	103236	101.850	12.418765	-57.245020	101.770	0.070	-0.130	0.050	101.850	-1.500	0.900																			1580034756.0	0.95	1.76
26/01/2020 10:32:37	26012020	260120	103237	101.920	12.418770	-57.245020	101.820	0.310	-0.110	-1.230	101.920	-1.500	-0.300																			1580034757.0	1.29	2.39
26/01/2020 10:32:38	26012020	260120	103238	101.990	12.418777	-57.245018	101.860	0.500	-0.210	-2.300	101.990	-1.500	-1.500																			1580034758.0	1.50	2.78
26/01/2020 10:32:39	26012020	260120	103239	102.010	12.418783	-57.245017	101.860	0.590	-0.400	-2.810	102.010	-1.700	-2.300																			1580034759.0	1.40	2.59
26/01/2020 10:32:40	26012020	260120	103240	101.950	12.418787	-57.245015	101.810	0.540	-0.420	-2.620	101.950	-1.800	-2.400																			1580034760.0	0.85	1.57
26/01/2020 10:32:41	26012020	260120	103241	101.940	12.418787	-57.245015	101.860	0.310	-0.050	-1.820	101.940	-1.600	-1.800																			1580034761.0	0.05	0.09
26/01/2020 10:32:42	26012020	260120	103242	102.060	12.418783	-57.245017	102.030	-0.070	0.450	-0.620	102.060	-1.100	-0.800																			1580034762.0	0.94	1.74
26/01/2020 10:32:43	26012020	260120	103243	102.220	12.418778	-57.245022	102.220	-0.430	0.570	0.740	102.220	-0.800	0.500																			1580034763.0	1.50	2.78
26/01/2020 10:32:44	26012020	260120	103244	102.340	12.418770	-57.245023	102.340	-0.590	0.180	2.040	102.340	-1.000	1.900																			1580034764.0	1.67	3.09
26/01/2020 10:32:45	26012020	260120	103245	102.340	12.418762	-57.245023	102.300	-0.490	-0.400	3.120	102.340	-1.500	3.100																			1580034765.0	1.72	3.19
26/01/2020 10:32:46	26012020	260120	103246	102.220	12.418755	-57.245023	102.170	-0.230	-0.810	3.750	102.220	-2.100	3.900																			1580034766.0	1.53	2.83
26/01/2020 10:32:47	26012020	260120	103247	102.090	12.418750	-57.245023	102.060	0.000	-0.820	3.690	102.090	-2.200	4.200																			1580034767.0	0.98	1.81
26/01/2020 10:32:48	26012020	260120	103248	102.090	12.418750	-57.245023	102.100	0.150	-0.470	2.820	102.090	-2.000	3.600																			1580034768.0	0.03	0.06
26/01/2020 10:32:49	26012020	260120	103249	102.290	12.418755	-57.245023	102.350	0.190	0.030	1.260	102.290	-1.500	2.300																			1580034769.0	1.10	2.04
26/01/2020 10:32:50	26012020	260120	103250	102.670	12.418765	-57.245023	102.690	0.140	0.450	-0.580	102.670	-1.100	0.600																			1580034770.0	1.90	3.52
26/01/2020 10:32:51	26012020	260120	103251	102.980	12.418773	-57.245022	102.890	0.080	0.530	-2.130	102.980	-0.800	-1.200																			1580034771.0	2.11	3.91
26/01/2020 10:32:52	26012020	260120	103252	103.020	12.418782	-57.245020	102.840	0.110	0.210	-3.010	103.020	-1.000	-2.400																			1580034772.0	1.62	3.00
26/01/2020 10:32:53	26012020	260120	103253	102.920	12.418785	-57.245017	102.730	0.240	-0.280	-3.190	102.920	-1.500	-2.800																			1580034773.0	0.94	1.74
26/01/2020 10:32:54	26012020	260120	103254	102.830	12.418785	-57.245015	102.680	0.380	-0.550	-2.710	102.830	-1.900	-2.600																			1580034774.0	0.48	0.89
26/01/2020 10:32:55	26012020	260120	103255	102.820	12.418783	-57.245015	102.760	0.380	-0.430	-1.700	102.820	-1.900	-1.800																			1580034775.0	0.46	0.85
26/01/2020 10:32:56	26012020	260120	103256	102.950	12.418778	-57.245017	102.920	0.160	-0.120	-0.280	102.950	-1.600	-0.500																			1580034776.0	1.02	1.89
26/01/2020 10:32:57	26012020	260120	103257	103.040	12.418772	-57.245020	103.010	-0.190	0.140	1.280	103.040	-1.300	1.000																			1580034777.0	1.58	2.93
26/01/2020 10:32:58	26012020	260120	103258	103.050	12.418765	-57.245023	103.020	-0.460	0.160	2.670	103.050	-1.200	2.500																			1580034778.0	1.81	3.35
26/01/2020 10:32:59	26012020	260120	103259	103.000	12.418757	-57.245025	102.970	-0.520	-0.110	3.730	103.000	-1.400	3.700																			1580034779.0	1.75	3.24
26/01/2020 10:33:00	26012020	260120	103300	102.920	12.418750	-57.245025	102.890	-0.380	-0.410	4.300	102.920	-1.700	4.500	1014.40	25.50	25.60	19.30	19.30	29.00	68.00	68.00	377.00	25.00	1.00	6.90	104.00	6.50	2309	3150.00	27.40	27.40	1580034780.0	1.55	2.87
26/01/2020 10:33:01	26012020	260120	103301	102.850	12.418745	-57.245025	102.860	-0.210	-0.460	4.150	102.850	-1.900	4.700																			1580034781.0	0.95	1.76
26/01/2020 10:33:02	26012020	260120	103302	102.840	12.418745	-57.245025	102.800	-0.060	-0.270	3.180	102.840	-1.700	4.000																			1580034782.0	0.07	0.13
26/01/2020 10:33:03	26012020	260120	103303	102.790	12.418750	-57.245025	102.720	0.060	-0.100	1.510	102.790	-1.500	2.600																			1580034783.0	1.18	2.19
26/01/2020 10:33:04	26012020	260120	103304	102.770	12.418760	-57.245023	102.680	0.210	-0.040	-0.450	102.770	-1.400	0.700																			1580034784.0	1.99	3.69
26/01/2020 10:33:05	26012020	260120	103305	102.790	12.418770	-57.245020	102.680	0.380	-0.030	-2.180	102.790	-1.400	-1.200																			1580034785.0	2.23	4.13
26/01/2020 10:33:06	26012020	260120	103306	102.830	12.418778	-57.245018	102.730	0.500	0.020	-3.400	102.830	-1.400	-2.600																			1580034786.0	1.96	3.63
26/01/2020 10:33:07	26012020	260120	103307	102.950	12.418785	-57.245017	102.880	0.480	0.130	-4.000	102.950	-1.300	-3.500																			1580034787.0	1.50	2.78
26/01/2020 10:33:08	26012020	260120	103308	103.110	12.418788	-57.245017	103.010	0.290	0.190	-3.730	103.110	-1.200	-3.600																			1580034788.0	0.84	1.56
26/01/2020 10:33:09	26012020	260120	103309	103.150	12.418788	-57.245017	103.030	0.050	0.050	-2.440	103.150	-1.200	-2.700																			1580034789.0	0.23	0.43
26/01/2020 10:33:10	26012020	260120	103310	103.110	12.418783	-57.245018	103.040	-0.130	-0.230	-0.430	103.110	-1.500	-0.900																			1580034790.0	1.32	2.44
26/01/2020 10:33:11	26012020	260120	103311	103.060	12.418772	-57.245020	103.020	-0.250	-0.500	1.850	103.060	-1.800	1.300																			1580034791.0	2.28	4.22
26/01/2020 10:33:12	26012020	260120	103312	102.960	12.418758	-57.245022	102.940	-0.370	-0.560	3.980	102.960	-1.900	3.500																			1580034792.0	2.84	5.26
26/01/2020 10:33:13	26012020	260120	103313	102.790	12.418747	-57.245025	102.800	-0.500	-0.390	5.400	102.790	-1.900	5.300																			1580034793.0	2.79	5.17
26/01/2020 10:33:14	26012020	260120	103314	102.690	12.418738	-57.245028	102.770	-0.550	-0.090	5.640	102.690	-1.600	6.000																			1580034794.0	1.91	3.54
26/01/2020 10:33:15	26012020	260120	103315	102.770	12.418737	-57.245030	102.860	-0.410	0.120	4.660	102.770	-1.300	5.500																			1580034795.0	0.51	0.94
26/01/2020 10:33:16	26012020	260120	103316	102.930	12.418742	-57.245030	103.000	-0.060	0.120	2.800	102.930	-1.200	4.000																			1580034796.0	1.02	1.89
26/01/2020 10:33:17	26012020	260120	103317	103.120	12.418750	-57.245027	103.130	0.350	-0.040	0.430	103.120	-1.300	1.800																			1580034797.0	2.13	3.94
26/01/2020 10:33:18	26012020	260120	103318	103.300	12.418763	-57.245023	103.240	0.630	-0.220	-2.000	103.300	-1.500	-0.700																			1580034798.0	2.83	5.24
26/01/2020 10:33:19	26012020	260120	103319	103.390	12.418777	-57.245018	103.260	0.670	-0.240	-3.860	103.390	-1.600	-2.800																			1580034799.0	2.97	5.50
26/01/2020 10:33:20	26012020	260120	103320	103.440	12.418787	-57.245017	103.320	0.440	-0.030	-4.710	103.440	-1.500	-4.100																			1580034800.0	2.37	4.39
26/01/2020 10:33:21	26012020	260120	103321	103.480	12.418792	-57.245017	103.360	0.100	0.140	-4.260	103.480	-1.300	-4.200																			1580034801.0	1.15	2.13
26/01/2020 10:33:22	26012020	260120	103322	103.460	12.418790	-57.245018	103.340	-0.170	0.040	-2.720	103.460	-1.300	-3.100																			1580034802.0	0.60	1.11
26/01/2020 10:33:23	26012020	260120	103323	103.380	12.418782	-57.245020	103.280	-0.300	-0.260	-0.580	103.380	-1.500	-1.100																			1580034803.0	1.87	3.46
26/01/2020 10:33:24	26012020	260120	103324	103.280	12.418770	-57.245022	103.240	-0.320	-0.490	1.670	103.280	-1.800	1.100																			1580034804.0	2.63	4.87
26/01/2020 10:33:25	26012020	260120	103325	103.260	12.418757	-57.245025	103.300	-0.300	-0.450	3.610	103.260	-1.900	3.200																			1580034805.0	2.83	5.24
26/01/2020 10:33:26	26012020	260120	103326	103.390	12.418745	-57.245028	103.500	-0.250	-0.150	4.800	103.390	-1.700	4.800																			1580034806.0	2.47	4.57
26/01/2020 10:33:27	26012020	260120	103327	103.590	12.418740	-57.245032	103.700	-0.160	0.150	5.000	103.590	-1.300	5.400																			1580034807.0	1.55	2.87
26/01/2020 10:33:28	26012020	260120	103328	103.730	12.418738	-57.245033	103.790	-0.050	0.210	4.280	103.730	-1.200	5.000																			1580034808.0	0.38	0.70
26/01/2020 10:33:29	26012020	260120	103329	103.770	12.418743	-57.245032	103.780	0.070	-0.000	2.860	103.770	-1.300	3.800																			1580034809.0	0.89	1.65
26/01/2020 10:33:30	26012020	260120	103330	103.750	12.418750	-57.245028	103.720	0.170	-0.280	1.010	103.750	-1.600	2.200																			1580034810.0	1.73	3.20
26/01/2020 10:33:31	26012020	260120	103331	103.760	12.418760	-57.245025	103.700	0.210	-0.350	-0.990	103.760	-1.700	0.200																			1580034811.0	2.25	4.17
26/01/2020 10:33:32	26012020	260120	103332	103.780	12.418770	-57.245023	103.670	0.180	-0.200	-2.630	103.780	-1.600	-1.700																			1580034812.0	2.36	4.37
26/01/2020 10:33:33	26012020	260120	103333	103.770	12.418780	-57.245022	103.630	0.080	-0.080	-3.550	103.770	-1.500	-2.900																			1580034813.0	1.88	3.48
26/01/2020 10:33:34	26012020	260120	103334	103.760	12.418783	-57.245022	103.630	-0.030	-0.070	-3.660	103.760	-1.400	-3.300																			1580034814.0	1.00	1.85
26/01/2020 10:33:35	26012020	260120	103335	103.770	12.418783	-57.245022	103.670	-0.100	-0.120	-2.920	103.770	-1.500	-2.900																			1580034815.0	0.04	0.07
26/01/2020 10:33:36	26012020	260120	103336	103.780	12.418780	-57.245023	103.680	-0.110	-0.180	-1.480	103.780	-1.500	-1.800																			1580034816.0	1.00	1.85
26/01/2020 10:33:37	26012020	260120	103337	103.780	12.418772	-57.245025	103.730	-0.100	-0.150	0.280	103.780	-1.600	-0.100																			1580034817.0	1.77	3.28
26/01/2020 10:33:38	26012020	260120	103338	103.810	12.418762	-57.245027	103.810	-0.140	0.020	1.970	103.810	-1.400	1.600																			1580034818.0	2.09	3.87
26/01/2020 10:33:39	26012020	260120	103339	103.860	12.418753	-57.245030	103.890	-0.170	0.170	3.300	103.860	-1.200	3.100																			1580034819.0	2.03	3.76
26/01/2020 10:33:40	26012020	260120	103340	103.900	12.418747	-57.245033	103.920	-0.110	0.110	4.060	103.900	-1.200	4.200																			1580034820.0	1.62	3.00
26/01/2020 10:33:41	26012020	260120	103341	103.860	12.418742	-57.245035	103.870	0.060	-0.210	4.070	103.860	-1.400	4.500																			1580034821.0	0.87	1.61
26/01/2020 10:33:42	26012020	260120	103342	103.780	12.418742	-57.245033	103.750	0.210	-0.570	3.400	103.780	-1.800	4.100																			1580034822.0	0.29	0.54
26/01/2020 10:33:43	26012020	260120	103343	103.650	12.418747	-57.245032	103.580	0.200	-0.600	2.210	103.650	-2.000	3.100																			1580034823.0	0.93	1.72
26/01/2020 10:33:44	26012020	260120	103344	103.490	12.418753	-57.245030	103.390	0.030	-0.310	0.710	103.490	-1.800	1.700																			1580034824.0	1.54	2.85
26/01/2020 10:33:45	26012020	260120	103345	103.370	12.418762	-57.245028	103.230	-0.140	-0.000	-0.810	103.370	-1.500	0.200																			1580034825.0	1.85	3.43
26/01/2020 10:33:46	26012020	260120	103346	103.240	12.418770	-57.245028	103.110	-0.230	0.140	-2.060	103.240	-1.300	-1.200																			1580034826.0	1.67	3.09
26/01/2020 10:33:47	26012020	260120	103347	103.210	12.418775	-57.245027	103.140	-0.250	0.250	-2.860	103.210	-1.200	-2.200																			1580034827.0	1.18	2.19
26/01/2020 10:33:48	26012020	260120	103348	103.340	12.418777	-57.245027	103.270	-0.210	0.310	-3.050	103.340	-1.100	-2.700																			1580034828.0	0.54	1.00
26/01/2020 10:33:49	26012020	260120	103349	103.440	12.418777	-57.245028	103.330	-0.050	0.200	-2.570	103.440	-1.100	-2.500																			1580034829.0	0.22	0.41
26/01/2020 10:33:50	26012020	260120	103350	103.410	12.418773	-57.245028	103.280	0.180	-0.100	-1.550	103.410	-1.400	-1.700																			1580034830.0	0.64	1.19
26/01/2020 10:33:51	26012020	260120	103351	103.260	12.418770	-57.245028	103.130	0.340	-0.440	-0.130	103.260	-1.700	-0.400																			1580034831.0	0.94	1.74
26/01/2020 10:33:52	26012020	260120	103352	103.020	12.418763	-57.245030	102.910	0.320	-0.670	1.560	103.020	-2.000	1.200																			1580034832.0	1.31	2.43
26/01/2020 10:33:53	26012020	260120	103353	102.770	12.418755	-57.245032	102.680	0.120	-0.660	3.170	102.770	-2.100	2.900																			1580034833.0	1.69	3.13
26/01/2020 10:33:54	26012020	260120	103354	102.510	12.418747	-57.245033	102.460	-0.150	-0.460	4.330	102.510	-1.900	4.300																			1580034834.0	1.74	3.22
26/01/2020 10:33:55	26012020	260120	103355	102.330	12.418742	-57.245035	102.350	-0.400	-0.120	4.650	102.330	-1.600	5.000																			1580034835.0	1.35	2.50
26/01/2020 10:33:56	26012020	260120	103356	102.360	12.418740	-57.245035	102.430	-0.500	0.280	4.000	102.360	-1.300	4.700																			1580034836.0	0.55	1.02
26/01/2020 10:33:57	26012020	260120	103357	102.570	12.418742	-57.245037	102.630	-0.390	0.580	2.590	102.570	-0.900	3.600																			1580034837.0	0.51	0.94
26/01/2020 10:33:58	26012020	260120	103358	102.790	12.418747	-57.245037	102.770	-0.050	0.500	0.730	102.790	-0.800	1.900																			1580034838.0	1.26	2.33
26/01/2020 10:33:59	26012020	260120	103359	102.870	12.418757	-57.245033	102.780	0.380	0.040	-1.170	102.870	-1.100	-0.100																			1580034839.0	1.93	3.57
26/01/2020 10:34:00	26012020	260120	103400	102.860	12.418765	-57.245030	102.710	0.660	-0.440	-2.680	102.860	-1.700	-1.800	1014.40	25.50	25.60	19.20	19.20	32.00	67.00	68.00	377.00	25.00	349.00	8.00	91.00	7.20	2457	3212.00	27.40	27.40	1580034840.0	2.32	4.30
26/01/2020 10:34:01	26012020	260120	103401	102.810	12.418775	-57.245027	102.650	0.610	-0.600	-3.510	102.810	-2.000	-2.900																			1580034841.0	2.18	4.04
26/01/2020 10:34:02	26012020	260120	103402	102.750	12.418782	-57.245025	102.610	0.250	-0.450	-3.420	102.750	-1.900	-3.200																			1580034842.0	1.40	2.59
26/01/2020 10:34:03	26012020	260120	103403	102.700	12.418782	-57.245027	102.570	-0.200	-0.260	-2.330	102.700	-1.700	-2.500																			1580034843.0	0.31	0.57
26/01/2020 10:34:04	26012020	260120	103404	102.590	12.418775	-57.245030	102.470	-0.490	-0.150	-0.470	102.590	-1.600	-0.900																			1580034844.0	1.53	2.83
26/01/2020 10:34:05	26012020	260120	103405	102.440	12.418763	-57.245032	102.360	-0.540	-0.120	1.610	102.440	-1.500	1.100																			1580034845.0	2.59	4.80
26/01/2020 10:34:06	26012020	260120	103406	102.310	12.418752	-57.245035	102.290	-0.360	-0.150	3.330	102.310	-1.500	3.100																			1580034846.0	2.79	5.17
26/01/2020 10:34:07	26012020	260120	103407	102.270	12.418742	-57.245037	102.300	-0.080	-0.180	4.290	102.270	-1.600	4.400																			1580034847.0	2.16	4.00
26/01/2020 10:34:08	26012020	260120	103408	102.380	12.418737	-57.245037	102.480	0.160	-0.080	4.250	102.380	-1.500	4.700																			1580034848.0	1.03	1.91
26/01/2020 10:34:09	26012020	260120	103409	102.650	12.418738	-57.245037	102.740	0.290	0.190	3.340	102.650	-1.300	4.100																			1580034849.0	0.29	0.54
26/01/2020 10:34:10	26012020	260120	103410	102.900	12.418743	-57.245037	102.930	0.350	0.410	1.900	102.900	-1.000	2.900																			1580034850.0	1.35	2.50
26/01/2020 10:34:11	26012020	260120	103411	103.020	12.418753	-57.245035	102.990	0.360	0.300	0.300	103.020	-1.000	1.300																			1580034851.0	1.99	3.69
26/01/2020 10:34:12	26012020	260120	103412	103.040	12.418763	-57.245033	102.940	0.290	-0.110	-1.060	103.040	-1.300	-0.200																			1580034852.0	2.15	3.98
26/01/2020 10:34:13	26012020	260120	103413	102.990	12.418770	-57.245030	102.880	0.110	-0.530	-1.940	102.990	-1.800	-1.300																			1580034853.0	1.73	3.20
26/01/2020 10:34:14	26012020	260120	103414	102.930	12.418775	-57.245028	102.800	-0.130	-0.760	-2.170	102.930	-2.100	-1.800																			1580034854.0	0.92	1.70
26/01/2020 10:34:15	26012020	260120	103415	102.800	12.418773	-57.245028	102.660	-0.310	-0.770	-1.730	102.800	-2.200	-1.600																			1580034855.0	0.09	0.17
26/01/2020 10:34:16	26012020	260120	103416	102.650	12.418770	-57.245030	102.550	-0.370	-0.510	-0.860	102.650	-2.000	-0.900																			1580034856.0	0.84	1.56
26/01/2020 10:34:17	26012020	260120	103417	102.580	12.418765	-57.245032	102.530	-0.320	-0.040	0.180	102.580	-1.600	0.100																			1580034857.0	1.30	2.41
26/01/2020 10:34:18	26012020	260120	103418	102.570	12.418758	-57.245035	102.550	-0.200	0.430	1.150	102.570	-1.100	1.100																			1580034858.0	1.45	2.69
26/01/2020 10:34:19	26012020	260120	103419	102.620	12.418753	-57.245037	102.640	-0.020	0.700	1.770	102.620	-0.800	1.900																			1580034859.0	1.15	2.13
26/01/2020 10:34:20	26012020	260120	103420	102.740	12.418752	-57.245038	102.800	0.180	0.550	1.920	102.740	-0.700	2.300																			1580034860.0	0.47	0.87
26/01/2020 10:34:21	26012020	260120	103421	102.940	12.418752	-57.245037	102.990	0.380	0.030	1.690	102.940	-1.100	2.200																			1580034861.0	0.28	0.52
26/01/2020 10:34:22	26012020	260120	103422	103.130	12.418755	-57.245033	103.150	0.480	-0.500	1.310	103.130	-1.700	1.800																			1580034862.0	0.75	1.39
26/01/2020 10:34:23	26012020	260120	103423	103.210	12.418758	-57.245032	103.180	0.380	-0.730	0.980	103.210	-2.100	1.500																			1580034863.0	0.78	1.44
26/01/2020 10:34:24	26012020	260120	103424	103.150	12.418760	-57.245032	103.040	0.110	-0.610	0.750	103.150	-2.100	1.200																			1580034864.0	0.57	1.06
26/01/2020 10:34:25	26012020	260120	103425	102.900	12.418762	-57.245033	102.730	-0.210	-0.340	0.660	102.900	-1.800	1.000																			1580034865.0	0.41	0.76
26/01/2020 10:34:26	26012020	260120	103426	102.560	12.418763	-57.245033	102.420	-0.410	-0.110	0.610	102.560	-1.600	1.000																			1580034866.0	0.23	0.43
26/01/2020 10:34:27	26012020	260120	103427	102.350	12.418762	-57.245033	102.290	-0.410	0.000	0.480	102.350	-1.400	0.900																			1580034867.0	0.12	0.22
26/01/2020 10:34:28	26012020	260120	103428	102.370	12.418762	-57.245033	102.400	-0.240	0.080	0.130	102.370	-1.300	0.700																			1580034868.0	0.12	0.22
26/01/2020 10:34:29	26012020	260120	103429	102.610	12.418763	-57.245033	102.670	-0.010	0.170	-0.390	102.610	-1.300	0.200																			1580034869.0	0.28	0.52
26/01/2020 10:34:30	26012020	260120	103430	102.900	12.418765	-57.245033	102.920	0.160	0.210	-0.840	102.900	-1.200	-0.300																			1580034870.0	0.59	1.09
26/01/2020 10:34:31	26012020	260120	103431	103.080	12.418768	-57.245032	103.030	0.200	0.100	-0.930	103.080	-1.200	-0.600																			1580034871.0	0.56	1.04
26/01/2020 10:34:32	26012020	260120	103432	103.050	12.418768	-57.245032	102.930	0.150	-0.120	-0.540	103.050	-1.400	-0.400																			1580034872.0	0.16	0.30
26/01/2020 10:34:33	26012020	260120	103433	102.840	12.418767	-57.245032	102.710	0.090	-0.340	0.200	102.840	-1.600	0.200																			1580034873.0	0.37	0.69
26/01/2020 10:34:34	26012020	260120	103434	102.610	12.418763	-57.245032	102.510	0.070	-0.510	0.960	102.610	-1.800	1.000																			1580034874.0	0.68	1.26
26/01/2020 10:34:35	26012020	260120	103435	102.470	12.418762	-57.245032	102.380	0.090	-0.520	1.570	102.470	-1.900	1.700																			1580034875.0	0.68	1.26
26/01/2020 10:34:36	26012020	260120	103436	102.330	12.418758	-57.245032	102.300	0.090	-0.290	1.900	102.330	-1.800	2.100																			1580034876.0	0.49	0.91
26/01/2020 10:34:37	26012020	260120	103437	102.290	12.418758	-57.245033	102.280	0.050	0.080	1.900	102.290	-1.500	2.300																			1580034877.0	0.25	0.46
26/01/2020 10:34:38	26012020	260120	103438	102.320	12.418758	-57.245033	102.340	-0.030	0.350	1.550	102.320	-1.100	2.100																			1580034878.0	0.32	0.59
26/01/2020 10:34:39	26012020	260120	103439	102.460	12.418762	-57.245035	102.510	-0.100	0.290	0.880	102.460	-1.000	1.500																			1580034879.0	0.63	1.17
26/01/2020 10:34:40	26012020	260120	103440	102.650	12.418765	-57.245033	102.650	-0.130	-0.070	0.170	102.650	-1.300	0.800																			1580034880.0	0.86	1.59
26/01/2020 10:34:41	26012020	260120	103441	102.700	12.418768	-57.245030	102.630	-0.130	-0.380	-0.310	102.700	-1.700	0.200																			1580034881.0	0.84	1.56
26/01/2020 10:34:42	26012020	260120	103442	102.610	12.418770	-57.245028	102.520	-0.120	-0.430	-0.480	102.610	-1.800	-0.100																			1580034882.0	0.53	0.98
26/01/2020 10:34:43	26012020	260120	103443	102.510	12.418772	-57.245028	102.450	-0.120	-0.250	-0.420	102.510	-1.700	-0.100																			1580034883.0	0.10	0.19
26/01/2020 10:34:44	26012020	260120	103444	102.480	12.418770	-57.245030	102.440	-0.100	-0.080	-0.260	102.480	-1.500	0.000																			1580034884.0	0.27	0.50
26/01/2020 10:34:45	26012020	260120	103445	102.460	12.418768	-57.245030	102.410	0.010	-0.020	-0.010	102.460	-1.400	0.200																			1580034885.0	0.35	0.65
26/01/2020 10:34:46	26012020	260120	103446	102.410	12.418767	-57.245030	102.360	0.150	0.010	0.310	102.410	-1.400	0.500																			1580034886.0	0.30	0.56
26/01/2020 10:34:47	26012020	260120	103447	102.380	12.418767	-57.245030	102.360	0.240	0.070	0.550	102.380	-1.300	0.800																			1580034887.0	0.17	0.31
26/01/2020 10:34:48	26012020	260120	103448	102.410	12.418767	-57.245030	102.400	0.260	0.070	0.680	102.410	-1.300	1.000																			1580034888.0	0.04	0.07
26/01/2020 10:34:49	26012020	260120	103449	102.440	12.418767	-57.245030	102.450	0.220	-0.080	0.720	102.440	-1.400	1.100																			1580034889.0	0.17	0.31
26/01/2020 10:34:50	26012020	260120	103450	102.540	12.418768	-57.245030	102.530	0.150	-0.270	0.760	102.540	-1.600	1.100																			1580034890.0	0.20	0.37
26/01/2020 10:34:51	26012020	260120	103451	102.570	12.418768	-57.245028	102.490	0.110	-0.470	0.910	102.570	-1.800	1.200																			1580034891.0	0.19	0.35
26/01/2020 10:34:52	26012020	260120	103452	102.390	12.418768	-57.245027	102.300	0.080	-0.550	1.080	102.390	-1.900	1.400																			1580034892.0	0.25	0.46
26/01/2020 10:34:53	26012020	260120	103453	102.230	12.418768	-57.245027	102.200	-0.060	-0.290	1.090	102.230	-1.800	1.500																			1580034893.0	0.17	0.31
26/01/2020 10:34:54	26012020	260120	103454	102.260	12.418768	-57.245027	102.280	-0.320	0.180	0.950	102.260	-1.400	1.400																			1580034894.0	0.17	0.31
26/01/2020 10:34:55	26012020	260120	103455	102.430	12.418770	-57.245028	102.480	-0.560	0.490	0.670	102.430	-1.000	1.100																			1580034895.0	0.34	0.63
26/01/2020 10:34:56	26012020	260120	103456	102.590	12.418770	-57.245030	102.590	-0.590	0.370	0.420	102.590	-0.900	0.900																			1580034896.0	0.17	0.31
26/01/2020 10:34:57	26012020	260120	103457	102.600	12.418770	-57.245028	102.550	-0.340	-0.030	0.300	102.600	-1.200	0.700																			1580034897.0	0.23	0.43
26/01/2020 10:34:58	26012020	260120	103458	102.540	12.418768	-57.245027	102.510	0.040	-0.340	0.140	102.540	-1.600	0.600																			1580034898.0	0.39	0.72
26/01/2020 10:34:59	26012020	260120	103459	102.570	12.418770	-57.245025	102.580	0.340	-0.390	-0.120	102.570	-1.800	0.400																			1580034899.0	0.25	0.46
26/01/2020 10:35:00	26012020	260120	103500	102.670	12.418772	-57.245025	102.650	0.470	-0.300	-0.330	102.670	-1.700	0.100	1014.40	25.50	25.60	18.90	19.00	35.00	67.00	67.00	376.00	25.00	350.00	7.80	92.00	7.50	2610	3283.00	27.40	27.40	1580034900.0	0.31	0.57
26/01/2020 10:35:01	26012020	260120	103501	102.640	12.418773	-57.245025	102.540	0.510	-0.290	-0.300	102.640	-1.700	0.000																			1580034901.0	0.38	0.70
26/01/2020 10:35:02	26012020	260120	103502	102.440	12.418773	-57.245025	102.320	0.520	-0.330	-0.070	102.440	-1.700	0.200																			1580034902.0	0.33	0.61
26/01/2020 10:35:03	26012020	260120	103503	102.260	12.418775	-57.245023	102.200	0.430	-0.280	0.200	102.260	-1.700	0.500																			1580034903.0	0.33	0.61
26/01/2020 10:35:04	26012020	260120	103504	102.230	12.418775	-57.245023	102.230	0.170	-0.100	0.480	102.230	-1.600	0.700																			1580034904.0	0.17	0.31
26/01/2020 10:35:05	26012020	260120	103505	102.320	12.418775	-57.245023	102.320	-0.230	0.090	0.800	102.320	-1.400	1.000																			1580034905.0	0.16	0.30
26/01/2020 10:35:06	26012020	260120	103506	102.390	12.418773	-57.245023	102.370	-0.570	0.180	1.130	102.390	-1.200	1.400																			1580034906.0	0.47	0.87
26/01/2020 10:35:07	26012020	260120	103507	102.370	12.418770	-57.245025	102.330	-0.680	0.110	1.400	102.370	-1.200	1.700																			1580034907.0	0.64	1.19
26/01/2020 10:35:08	26012020	260120	103508	102.310	12.418767	-57.245025	102.270	-0.520	-0.040	1.430	102.310	-1.400	1.800																			1580034908.0	0.60	1.11
26/01/2020 10:35:09	26012020	260120	103509	102.280	12.418765	-57.245023	102.260	-0.240	-0.110	1.220	102.280	-1.500	1.700																			1580034909.0	0.39	0.72
26/01/2020 10:35:10	26012020	260120	103510	102.310	12.418765	-57.245023	102.290	-0.000	-0.020	0.760	102.310	-1.500	1.300																			1580034910.0	0.09	0.17
26/01/2020 10:35:11	26012020	260120	103511	102.370	12.418768	-57.245023	102.350	0.120	0.130	0.150	102.370	-1.300	0.800																			1580034911.0	0.64	1.19
26/01/2020 10:35:12	26012020	260120	103512	102.450	12.418773	-57.245023	102.410	0.160	0.070	-0.440	102.450	-1.300	0.200																			1580034912.0	1.03	1.91
26/01/2020 10:35:13	26012020	260120	103513	102.480	12.418778	-57.245023	102.410	0.210	-0.270	-0.800	102.480	-1.500	-0.300																			1580034913.0	0.99	1.83
26/01/2020 10:35:14	26012020	260120	103514	102.410	12.418780	-57.245020	102.290	0.320	-0.650	-0.790	102.410	-1.900	-0.500																			1580034914.0	0.62	1.15
26/01/2020 10:35:15	26012020	260120	103515	102.270	12.418780	-57.245018	102.100	0.410	-0.780	-0.390	102.270	-2.200	-0.200																			1580034915.0	0.36	0.67
26/01/2020 10:35:16	26012020	260120	103516	102.040	12.418777	-57.245018	101.950	0.350	-0.590	0.240	102.040	-2.100	0.300																			1580034916.0	0.52	0.96
26/01/2020 10:35:17	26012020	260120	103517	101.950	12.418773	-57.245020	101.910	0.120	-0.150	0.810	101.950	-1.700	0.900																			1580034917.0	0.70	1.30
26/01/2020 10:35:18	26012020	260120	103518	101.950	12.418772	-57.245022	101.940	-0.140	0.270	1.160	101.950	-1.300	1.400																			1580034918.0	0.65	1.20
26/01/2020 10:35:19	26012020	260120	103519	102.020	12.418770	-57.245022	102.040	-0.270	0.450	1.210	102.020	-1.000	1.600																			1580034919.0	0.35	0.65
26/01/2020 10:35:20	26012020	260120	103520	102.160	12.418770	-57.245022	102.180	-0.270	0.380	1.060	102.160	-1.000	1.500																			1580034920.0	0.05	0.09
26/01/2020 10:35:21	26012020	260120	103521	102.220	12.418772	-57.245022	102.190	-0.160	0.120	0.900	102.220	-1.200	1.300																			1580034921.0	0.30	0.56
26/01/2020 10:35:22	26012020	260120	103522	102.180	12.418772	-57.245020	102.140	-0.040	-0.110	0.690	102.180	-1.400	1.200																			1580034922.0	0.40	0.74
26/01/2020 10:35:23	26012020	260120	103523	102.210	12.418773	-57.245018	102.220	-0.010	-0.170	0.390	102.210	-1.600	0.900																			1580034923.0	0.41	0.76
26/01/2020 10:35:24	26012020	260120	103524	102.360	12.418775	-57.245018	102.370	-0.100	-0.120	0.140	102.360	-1.500	0.600																			1580034924.0	0.36	0.67
26/01/2020 10:35:25	26012020	260120	103525	102.460	12.418777	-57.245020	102.450	-0.170	-0.130	0.090	102.460	-1.500	0.400																			1580034925.0	0.24	0.44
26/01/2020 10:35:26	26012020	260120	103526	102.460	12.418777	-57.245020	102.400	-0.130	-0.260	0.160	102.460	-1.600	0.500																			1580034926.0	0.16	0.30
26/01/2020 10:35:27	26012020	260120	103527	102.390	12.418775	-57.245020	102.280	0.020	-0.390	0.250	102.390	-1.700	0.600																			1580034927.0	0.22	0.41
26/01/2020 10:35:28	26012020	260120	103528	102.220	12.418773	-57.245020	102.140	0.220	-0.460	0.340	102.220	-1.800	0.700																			1580034928.0	0.24	0.44
26/01/2020 10:35:29	26012020	260120	103529	102.100	12.418773	-57.245020	102.050	0.370	-0.410	0.370	102.100	-1.800	0.700																			1580034929.0	0.11	0.20
26/01/2020 10:35:30	26012020	260120	103530	102.060	12.418775	-57.245018	102.060	0.400	-0.260	0.320	102.060	-1.700	0.700																			1580034930.0	0.27	0.50
26/01/2020 10:35:31	26012020	260120	103531	102.150	12.418777	-57.245018	102.170	0.270	-0.040	0.230	102.150	-1.500	0.600																			1580034931.0	0.40	0.74
26/01/2020 10:35:32	26012020	260120	103532	102.290	12.418778	-57.245018	102.320	0.040	0.180	0.170	102.290	-1.300	0.600																			1580034932.0	0.33	0.61
26/01/2020 10:35:33	26012020	260120	103533	102.390	12.418778	-57.245018	102.400	-0.170	0.280	0.230	102.390	-1.100	0.600																			1580034933.0	0.10	0.19
26/01/2020 10:35:34	26012020	260120	103534	102.400	12.418777	-57.245018	102.380	-0.290	0.200	0.420	102.400	-1.100	0.700																			1580034934.0	0.23	0.43
26/01/2020 10:35:35	26012020	260120	103535	102.370	12.418775	-57.245018	102.350	-0.270	0.030	0.650	102.370	-1.300	0.900																			1580034935.0	0.40	0.74
26/01/2020 10:35:36	26012020	260120	103536	102.380	12.418773	-57.245018	102.390	-0.160	-0.060	0.800	102.380	-1.400	1.100																			1580034936.0	0.35	0.65
26/01/2020 10:35:37	26012020	260120	103537	102.440	12.418773	-57.245018	102.440	-0.030	-0.140	0.830	102.440	-1.500	1.200																			1580034937.0	0.21	0.39
26/01/2020 10:35:38	26012020	260120	103538	102.470	12.418773	-57.245018	102.450	0.050	-0.270	0.740	102.470	-1.600	1.200																			1580034938.0	0.04	0.07
26/01/2020 10:35:39	26012020	260120	103539	102.450	12.418773	-57.245018	102.410	0.050	-0.360	0.590	102.450	-1.700	1.000																			1580034939.0	0.17	0.31
26/01/2020 10:35:40	26012020	260120	103540	102.390	12.418775	-57.245018	102.360	-0.010	-0.300	0.500	102.390	-1.700	0.900																			1580034940.0	0.17	0.31
26/01/2020 10:35:41	26012020	260120	103541	102.360	12.418775	-57.245020	102.300	-0.050	-0.200	0.480	102.360	-1.600	0.800																			1580034941.0	0.14	0.26
26/01/2020 10:35:42	26012020	260120	103542	102.240	12.418775	-57.245020	102.160	-0.040	-0.200	0.450	102.240	-1.600	0.800																			1580034942.0	0.09	0.17
26/01/2020 10:35:43	26012020	260120	103543	102.120	12.418775	-57.245020	102.070	-0.010	-0.220	0.380	102.120	-1.600	0.800																			1580034943.0	0.12	0.22
26/01/2020 10:35:44	26012020	260120	103544	102.130	12.418775	-57.245018	102.140	0.060	-0.130	0.240	102.130	-1.600	0.700																			1580034944.0	0.11	0.20
26/01/2020 10:35:45	26012020	260120	103545	102.260	12.418775	-57.245018	102.250	0.170	0.020	0.050	102.260	-1.400	0.500																			1580034945.0	0.13	0.24
26/01/2020 10:35:46	26012020	260120	103546	102.330	12.418777	-57.245018	102.280	0.290	0.090	-0.070	102.330	-1.300	0.300																			1580034946.0	0.25	0.46
26/01/2020 10:35:47	26012020	260120	103547	102.290	12.418778	-57.245018	102.220	0.310	0.100	-0.060	102.290	-1.300	0.300																			1580034947.0	0.29	0.54
26/01/2020 10:35:48	26012020	260120	103548	102.270	12.418778	-57.245018	102.260	0.170	0.130	0.040	102.270	-1.300	0.400																			1580034948.0	0.21	0.39
26/01/2020 10:35:49	26012020	260120	103549	102.380	12.418778	-57.245018	102.400	-0.100	0.120	0.240	102.380	-1.300	0.500																			1580034949.0	0.13	0.24
26/01/2020 10:35:50	26012020	260120	103550	102.510	12.418778	-57.245020	102.510	-0.310	-0.020	0.550	102.510	-1.300	0.800																			1580034950.0	0.31	0.57
26/01/2020 10:35:51	26012020	260120	103551	102.510	12.418777	-57.245020	102.460	-0.340	-0.310	0.960	102.510	-1.600	1.200																			1580034951.0	0.49	0.91
26/01/2020 10:35:52	26012020	260120	103552	102.350	12.418773	-57.245020	102.270	-0.240	-0.580	1.400	102.350	-1.900	1.600																			1580034952.0	0.67	1.24
26/01/2020 10:35:53	26012020	260120	103553	102.170	12.418770	-57.245020	102.110	-0.140	-0.650	1.650	102.170	-2.000	1.900																			1580034953.0	0.70	1.30
26/01/2020 10:35:54	26012020	260120	103554	102.060	12.418768	-57.245020	102.030	-0.080	-0.430	1.580	102.060	-1.900	2.000																			1580034954.0	0.42	0.78
26/01/2020 10:35:55	26012020	260120	103555	102.040	12.418768	-57.245020	102.030	-0.020	-0.130	1.150	102.040	-1.600	1.700																			1580034955.0	0.14	0.26
26/01/2020 10:35:56	26012020	260120	103556	102.090	12.418770	-57.245020	102.080	0.070	0.090	0.490	102.090	-1.400	1.100																			1580034956.0	0.50	0.93
26/01/2020 10:35:57	26012020	260120	103557	102.180	12.418773	-57.245020	102.180	0.160	0.260	-0.200	102.180	-1.200	0.400																			1580034957.0	0.74	1.37
26/01/2020 10:35:58	26012020	260120	103558	102.320	12.418777	-57.245018	102.300	0.210	0.370	-0.780	102.320	-1.000	-0.200																			1580034958.0	0.77	1.43
26/01/2020 10:35:59	26012020	260120	103559	102.440	12.418780	-57.245018	102.390	0.210	0.350	-1.150	102.440	-1.000	-0.700																			1580034959.0	0.71	1.31
26/01/2020 10:36:00	26012020	260120	103600	102.450	12.418783	-57.245018	102.370	0.220	0.130	-1.220	102.450	-1.100	-0.900	1014.40	25.50	25.60	18.80	18.90	39.00	66.00	66.00	376.00	25.00	350.00	7.80	93.00	7.80	2765	3321.00	27.40	27.40	1580034960.0	0.57	1.06
26/01/2020 10:36:01	26012020	260120	103601	102.390	12.418785	-57.245017	102.310	0.230	-0.240	-0.920	102.390	-1.500	-0.700																			1580034961.0	0.29	0.54
26/01/2020 10:36:02	26012020	260120	103602	102.360	12.418783	-57.245017	102.330	0.190	-0.540	-0.240	102.360	-1.800	-0.200																			1580034962.0	0.27	0.50
26/01/2020 10:36:03	26012020	260120	103603	102.380	12.418780	-57.245017	102.380	0.010	-0.570	0.660	102.380	-2.000	0.600																			1580034963.0	0.71	1.31
26/01/2020 10:36:04	26012020	260120	103604	102.430	12.418775	-57.245018	102.420	-0.270	-0.440	1.550	102.430	-1.900	1.600																			1580034964.0	1.06	1.96
26/01/2020 10:36:05	26012020	260120	103605	102.380	12.418770	-57.245020	102.330	-0.500	-0.330	2.290	102.380	-1.800	2.400																			1580034965.0	1.25	2.31
26/01/2020 10:36:06	26012020	260120	103606	102.240	12.418765	-57.245022	102.120	-0.490	-0.330	2.750	102.200	-1.700	3.000																			1580034966.0	1.21	2.24
26/01/2020 10:36:07	26012020	260120	103607	101.940	12.418760	-57.245022	101.850	-0.250	-0.310	2.820	101.940	-1.700	3.200																			1580034967.0	0.89	1.65
26/01/2020 10:36:08	26012020	260120	103608	101.760	12.418760	-57.245020	101.740	0.060	-0.050	2.280	101.750	-1.600	2.900																			1580034968.0	0.32	0.59
26/01/2020 10:36:09	26012020	260120	103609	101.820	12.418763	-57.245020	101.980	0.190	0.470	1.030	101.880	-1.100	2.000																			1580034969.0	0.81	1.50
26/01/2020 10:36:10	26012020	260120	103610	102.220	12.418772	-57.245020	102.420	0.110	0.910	-0.540	102.320	-0.600	0.500																			1580034970.0	1.68	3.11
26/01/2020 10:36:11	26012020	260120	103611	102.660	12.418780	-57.245022	102.730	0.030	0.820	-1.820	102.730	-0.400	-1.000																			1580034971.0	1.88	3.48
26/01/2020 10:36:12	26012020	260120	103612	102.890	12.418787	-57.245020	102.840	0.140	0.080	-2.470	102.920	-0.900	-1.900																			1580034972.0	1.42	2.63
26/01/2020 10:36:13	26012020	260120	103613	102.910	12.418790	-57.245017	102.780	0.380	-0.920	-2.370	102.910	-1.900	-2.100																			1580034973.0	0.97	1.80
26/01/2020 10:36:14	26012020	260120	103614	102.780	12.418788	-57.245013	102.560	0.480	-1.490	-1.490	102.730	-2.700	-1.600																			1580034974.0	0.67	1.24
26/01/2020 10:36:15	26012020	260120	103615	102.390	12.418783	-57.245013	102.200	0.290	-1.290	-0.080	102.390	-2.800	-0.300																			1580034975.0	0.97	1.80
26/01/2020 10:36:16	26012020	260120	103616	102.060	12.418777	-57.245017	101.840	-0.120	-0.560	1.470	101.980	-2.300	1.200																			1580034976.0	1.60	2.96
26/01/2020 10:36:17	26012020	260120	103617	101.790	12.418768	-57.245020	101.720	-0.510	0.260	2.670	101.760	-1.400	2.600																			1580034977.0	1.89	3.50
26/01/2020 10:36:18	26012020	260120	103618	101.780	12.418763	-57.245023	101.950	-0.700	0.850	3.090	101.830	-0.700	3.400																			1580034978.0	1.58	2.93
26/01/2020 10:36:19	26012020	260120	103619	102.130	12.418760	-57.245025	102.370	-0.600	0.990	2.740	102.210	-0.400	3.300																			1580034979.0	0.75	1.39
26/01/2020 10:36:20	26012020	260120	103620	102.590	12.418760	-57.245025	102.790	-0.270	0.640	1.830	102.670	-0.600	2.600																			1580034980.0	0.18	0.33
26/01/2020 10:36:21	26012020	260120	103621	103.050	12.418763	-57.245022	103.070	0.120	0.020	0.660	103.050	-1.100	1.500																			1580034981.0	0.90	1.67
26/01/2020 10:36:22	26012020	260120	103622	103.180	12.418768	-57.245020	103.090	0.430	-0.500	-0.360	103.180	-1.700	0.400																			1580034982.0	1.28	2.37
26/01/2020 10:36:23	26012020	260120	103623	103.100	12.418775	-57.245017	102.900	0.540	-0.710	-1.030	103.060	-2.000	-0.400																			1580034983.0	1.28	2.37
26/01/2020 10:36:24	26012020	260120	103624	102.880	12.418780	-57.245017	102.640	0.460	-0.660	-1.310	102.820	-2.100	-0.900																			1580034984.0	1.11	2.06
26/01/2020 10:36:25	26012020	260120	103625	102.610	12.418783	-57.245017	102.410	0.260	-0.480	-1.180	102.560	-1.900	-0.900																			1580034985.0	0.70	1.30
26/01/2020 10:36:26	26012020	260120	103626	102.410	12.418783	-57.245018	102.290	0.020	-0.310	-0.770	102.390	-1.700	-0.600																			1580034986.0	0.22	0.41
26/01/2020 10:36:27	26012020	260120	103627	102.380	12.418782	-57.245018	102.350	-0.180	-0.190	-0.190	102.380	-1.600	-0.100																			1580034987.0	0.44	0.81
26/01/2020 10:36:28	26012020	260120	103628	102.460	12.418777	-57.245018	102.500	-0.330	-0.070	0.510	102.490	-1.500	0.600																			1580034988.0	0.86	1.59
26/01/2020 10:36:29	26012020	260120	103629	102.610	12.418772	-57.245020	102.670	-0.430	0.130	1.180	102.610	-1.300	1.300																			1580034989.0	1.13	2.09
26/01/2020 10:36:30	26012020	260120	103630	102.770	12.418767	-57.245020	102.850	-0.450	0.370	1.580	102.810	-1.100	1.800																			1580034990.0	1.09	2.02
26/01/2020 10:36:31	26012020	260120	103631	102.920	12.418765	-57.245022	103.020	-0.330	0.470	1.630	102.950	-0.900	2.000																			1580034991.0	0.71	1.31
26/01/2020 10:36:32	26012020	260120	103632	103.070	12.418763	-57.245023	103.060	-0.060	0.270	1.480	103.080	-1.000	1.900																			1580034992.0	0.22	0.41
26/01/2020 10:36:33	26012020	260120	103633	103.060	12.418765	-57.245022	103.020	0.240	-0.170	1.170	103.060	-1.400	1.700																			1580034993.0	0.25	0.46
26/01/2020 10:36:34	26012020	260120	103634	103.020	12.418767	-57.245020	102.960	0.430	-0.530	0.730	103.010	-1.800	1.300																			1580034994.0	0.58	1.07
26/01/2020 10:36:35	26012020	260120	103635	102.960	12.418770	-57.245018	102.880	0.440	-0.610	0.240	102.940	-2.000	0.800																			1580034995.0	0.70	1.30
26/01/2020 10:36:36	26012020	260120	103636	102.890	12.418773	-57.245018	102.820	0.290	-0.430	-0.230	102.880	-1.900	0.300																			1580034996.0	0.75	1.39
26/01/2020 10:36:37	26012020	260120	103637	102.850	12.418777	-57.245018	102.810	0.070	-0.150	-0.570	102.850	-1.600	-0.100																			1580034997.0	0.72	1.33
26/01/2020 10:36:38	26012020	260120	103638	102.840	12.418778	-57.245020	102.800	-0.130	0.060	-0.650	102.840	-1.400	-0.300																			1580034998.0	0.47	0.87
26/01/2020 10:36:39	26012020	260120	103639	102.840	12.418778	-57.245022	102.830	-0.200	0.110	-0.480	102.850	-1.300	-0.200																			1580034999.0	0.17	0.31
26/01/2020 10:36:40	26012020	260120	103640	102.880	12.418777	-57.245022	102.890	-0.120	-0.020	-0.140	102.890	-1.300	0.100																			1580035000.0	0.31	0.57
26/01/2020 10:36:41	26012020	260120	103641	102.920	12.418775	-57.245020	102.920	0.000	-0.220	0.260	102.920	-1.500	0.500																			1580035001.0	0.56	1.04
26/01/2020 10:36:42	26012020	260120	103642	102.920	12.418772	-57.245020	102.890	0.070	-0.330	0.610	102.910	-1.700	0.800																			1580035002.0	0.56	1.04
26/01/2020 10:36:43	26012020	260120	103643	102.870	12.418770	-57.245020	102.830	0.020	-0.320	0.950	102.850	-1.700	1.200																			1580035003.0	0.45	0.83
26/01/2020 10:36:44	26012020	260120	103644	102.800	12.418768	-57.245020	102.800	-0.110	-0.150	1.240	102.790	-1.600	1.500																			1580035004.0	0.40	0.74
26/01/2020 10:36:45	26012020	260120	103645	102.810	12.418767	-57.245022	102.860	-0.220	0.170	1.330	102.820	-1.400	1.700																			1580035005.0	0.40	0.74
26/01/2020 10:36:46	26012020	260120	103646	102.920	12.418767	-57.245023	102.990	-0.250	0.460	1.170	102.950	-1.000	1.600																			1580035006.0	0.41	0.76
26/01/2020 10:36:47	26012020	260120	103647	103.040	12.418767	-57.245025	103.040	-0.170	0.440	0.840	103.050	-0.900	1.400																			1580035007.0	0.34	0.63
26/01/2020 10:36:48	26012020	260120	103648	103.050	12.418768	-57.245025	103.020	-0.010	0.050	0.410	103.050	-1.100	1.000																			1580035008.0	0.25	0.46
26/01/2020 10:36:49	26012020	260120	103649	103.050	12.418770	-57.245023	103.040	0.180	-0.410	-0.050	103.060	-1.600	0.500																			1580035009.0	0.52	0.96
26/01/2020 10:36:50	26012020	260120	103650	103.120	12.418772	-57.245022	103.110	0.350	-0.650	-0.390	103.140	-2.000	0.100																			1580035010.0	0.58	1.07
26/01/2020 10:36:51	26012020	260120	103651	103.160	12.418773	-57.245022	103.050	0.440	-0.650	-0.420	103.150	-2.000	-0.100																			1580035011.0	0.44	0.81
26/01/2020 10:36:52	26012020	260120	103652	103.010	12.418775	-57.245022	102.810	0.350	-0.550	-0.140	102.950	-2.000	0.100																			1580035012.0	0.19	0.35
26/01/2020 10:36:53	26012020	260120	103653	102.720	12.418773	-57.245022	102.570	0.090	-0.390	0.250	102.670	-1.800	0.500																			1580035013.0	0.15	0.28
26/01/2020 10:36:54	26012020	260120	103654	102.530	12.418773	-57.245022	102.470	-0.210	-0.130	0.600	102.510	-1.600	0.800																			1580035014.0	0.34	0.63
26/01/2020 10:36:55	26012020	260120	103655	102.490	12.418770	-57.245023	102.570	-0.350	0.160	0.820	102.500	-1.300	1.100																			1580035015.0	0.50	0.93
26/01/2020 10:36:56	26012020	260120	103656	102.680	12.418768	-57.245023	102.800	-0.290	0.380	0.890	102.730	-1.100	1.200																			1580035016.0	0.56	1.04
26/01/2020 10:36:57	26012020	260120	103657	102.930	12.418767	-57.245025	103.010	-0.120	0.500	0.840	102.960	-0.900	1.200																			1580035017.0	0.44	0.81
26/01/2020 10:36:58	26012020	260120	103658	103.090	12.418765	-57.245025	103.100	0.040	0.450	0.650	103.110	-0.900	1.100																			1580035018.0	0.13	0.24
26/01/2020 10:36:59	26012020	260120	103659	103.130	12.418767	-57.245025	103.110	0.100	0.180	0.410	103.130	-1.100	0.900																			1580035019.0	0.32	0.59
26/01/2020 10:37:00	26012020	260120	103700	103.140	12.418770	-57.245025	103.110	0.090	-0.220	0.210	103.140	-1.400	0.600	1014.40	25.50	25.60	18.60	18.70	44.00	65.00	65.00	376.00	25.10	351.00	7.50	94.00	7.20	2922	3298.00	27.40	27.40	1580035020.0	0.50	0.93
26/01/2020 10:37:01	26012020	260120	103701	103.150	12.418772	-57.245023	103.090	0.070	-0.610	0.180	103.140	-1.800	0.500																			1580035021.0	0.41	0.76
26/01/2020 10:37:02	26012020	260120	103702	103.070	12.418772	-57.245023	102.940	0.030	-0.840	0.450	103.030	-2.100	0.700																			1580035022.0	0.09	0.17
26/01/2020 10:37:03	26012020	260120	103703	102.830	12.418768	-57.245023	102.670	-0.050	-0.780	0.860	102.770	-2.200	1.100																			1580035023.0	0.46	0.85
26/01/2020 10:37:04	26012020	260120	103704	102.550	12.418767	-57.245025	102.450	-0.170	-0.410	1.160	102.510	-1.900	1.400																			1580035024.0	0.65	1.20
26/01/2020 10:37:05	26012020	260120	103705	102.400	12.418763	-57.245027	102.400	-0.260	0.080	1.190	102.390	-1.500	1.600																			1580035025.0	0.59	1.09
26/01/2020 10:37:06	26012020	260120	103706	102.430	12.418763	-57.245028	102.510	-0.190	0.420	0.870	102.460	-1.100	1.400																			1580035026.0	0.35	0.65
26/01/2020 10:37:07	26012020	260120	103707	102.570	12.418765	-57.245028	102.710	0.040	0.440	0.320	102.610	-0.900	0.900																			1580035027.0	0.33	0.61
26/01/2020 10:37:08	26012020	260120	103708	102.820	12.418768	-57.245027	102.860	0.320	0.130	-0.220	102.850	-1.100	0.400																			1580035028.0	0.66	1.22
26/01/2020 10:37:09	26012020	260120	103709	102.930	12.418770	-57.245025	102.900	0.470	-0.220	-0.560	102.940	-1.500	-0.100																			1580035029.0	0.76	1.41
26/01/2020 10:37:10	26012020	260120	103710	102.940	12.418773	-57.245023	102.870	0.420	-0.350	-0.610	102.940	-1.700	-0.300																			1580035030.0	0.62	1.15
26/01/2020 10:37:11	26012020	260120	103711	102.880	12.418773	-57.245023	102.770	0.230	-0.270	-0.320	102.850	-1.700	-0.100																			1580035031.0	0.29	0.54
26/01/2020 10:37:12	26012020	260120	103712	102.760	12.418773	-57.245023	102.670	0.000	-0.140	0.200	102.730	-1.600	0.300																			1580035032.0	0.23	0.43
26/01/2020 10:37:13	26012020	260120	103713	102.650	12.418772	-57.245025	102.610	-0.210	-0.050	0.810	102.630	-1.400	0.900																			1580035033.0	0.51	0.94
26/01/2020 10:37:14	26012020	260120	103714	102.610	12.418768	-57.245027	102.620	-0.400	-0.020	1.390	102.610	-1.400	1.500																			1580035034.0	0.76	1.41
26/01/2020 10:37:15	26012020	260120	103715	102.620	12.418763	-57.245027	102.660	-0.530	-0.030	1.860	102.630	-1.400	2.000																			1580035035.0	0.96	1.78
26/01/2020 10:37:16	26012020	260120	103716	102.670	12.418760	-57.245028	102.700	-0.530	-0.010	2.030	102.680	-1.400	2.400																			1580035036.0	0.92	1.70
26/01/2020 10:37:17	26012020	260120	103717	102.730	12.418758	-57.245028	102.770	-0.320	-0.000	1.800	102.740	-1.400	2.300																			1580035037.0	0.56	1.04
26/01/2020 10:37:18	26012020	260120	103718	102.800	12.418758	-57.245030	102.780	0.060	-0.070	1.230	102.810	-1.400	1.900																			1580035038.0	0.09	0.17
26/01/2020 10:37:19	26012020	260120	103719	102.790	12.418760	-57.245028	102.700	0.430	-0.310	0.460	102.780	-1.600	1.100																			1580035039.0	0.63	1.17
26/01/2020 10:37:20	26012020	260120	103720	102.690	12.418765	-57.245027	102.610	0.640	-0.570	-0.370	102.670	-1.800	0.300																			1580035040.0	1.18	2.19
26/01/2020 10:37:21	26012020	260120	103721	102.640	12.418772	-57.245023	102.590	0.600	-0.650	-0.990	102.640	-2.000	-0.400																			1580035041.0	1.40	2.59
26/01/2020 10:37:22	26012020	260120	103722	102.660	12.418777	-57.245022	102.600	0.350	-0.450	-1.210	102.660	-1.900	-0.800																			1580035042.0	1.09	2.02
26/01/2020 10:37:23	26012020	260120	103723	102.650	12.418778	-57.245022	102.580	-0.020	0.030	-1.000	102.640	-1.600	-0.800																			1580035043.0	0.40	0.74
26/01/2020 10:37:24	26012020	260120	103724	102.610	12.418777	-57.245023	102.560	-0.360	0.580	-0.490	102.600	-1.000	-0.400																			1580035044.0	0.43	0.80
26/01/2020 10:37:25	26012020	260120	103725	102.620	12.418773	-57.245027	102.640	-0.520	0.880	0.200	102.630	-0.600	0.300																			1580035045.0	0.89	1.65
26/01/2020 10:37:26	26012020	260120	103726	102.720	12.418770	-57.245028	102.780	-0.410	0.660	0.920	102.740	-0.600	1.000																			1580035046.0	1.01	1.87
26/01/2020 10:37:27	26012020	260120	103727	102.860	12.418765	-57.245028	102.940	-0.110	0.020	1.480	102.890	-1.100	1.600																			1580035047.0	0.97	1.80
26/01/2020 10:37:28	26012020	260120	103728	103.030	12.418762	-57.245027	103.100	0.170	-0.610	1.730	103.060	-1.800	2.000																			1580035048.0	0.82	1.52
26/01/2020 10:37:29	26012020	260120	103729	103.130	12.418760	-57.245027	103.100	0.270	-0.900	1.780	103.130	-2.200	2.100																			1580035049.0	0.39	0.72
26/01/2020 10:37:30	26012020	260120	103730	103.040	12.418760	-57.245025	102.910	0.170	-0.850	1.760	103.000	-2.300	2.100																			1580035050.0	0.09	0.17
26/01/2020 10:37:31	26012020	260120	103731	102.810	12.418762	-57.245027	102.670	-0.010	-0.590	1.640	102.760	-2.100	2.100																			1580035051.0	0.20	0.37
26/01/2020 10:37:32	26012020	260120	103732	102.610	12.418762	-57.245027	102.530	-0.160	-0.220	1.280	102.590	-1.700	1.800																			1580035052.0	0.26	0.48
26/01/2020 10:37:33	26012020	260120	103733	102.520	12.418765	-57.245027	102.470	-0.260	0.110	0.670	102.510	-1.400	1.300																			1580035053.0	0.45	0.83
26/01/2020 10:37:34	26012020	260120	103734	102.510	12.418767	-57.245027	102.460	-0.250	0.240	-0.040	102.510	-1.200	0.600																			1580035054.0	0.60	1.11
26/01/2020 10:37:35	26012020	260120	103735	102.530	12.418770	-57.245025	102.500	-0.120	0.220	-0.740	102.530	-1.100	-0.100																			1580035055.0	0.68	1.26
26/01/2020 10:37:36	26012020	260120	103736	102.620	12.418773	-57.245023	102.650	0.110	0.210	-1.330	102.660	-1.200	-0.700																			1580035056.0	0.73	1.35
26/01/2020 10:37:37	26012020	260120	103737	102.820	12.418777	-57.245023	102.860	0.310	0.250	-1.640	102.870	-1.100	-1.200																			1580035057.0	0.71	1.31
26/01/2020 10:37:38	26012020	260120	103738	103.010	12.418778	-57.245023	103.030	0.390	0.240	-1.530	103.050	-1.100	-1.200																			1580035058.0	0.52	0.96
26/01/2020 10:37:39	26012020	260120	103739	103.150	12.418778	-57.245023	103.130	0.350	0.070	-0.990	103.160	-1.200	-0.900																			1580035059.0	0.20	0.37
26/01/2020 10:37:40	26012020	260120	103740	103.180	12.418778	-57.245023	103.130	0.200	-0.270	-0.010	103.180	-1.500	-0.100																			1580035060.0	0.34	0.63
26/01/2020 10:37:41	26012020	260120	103741	103.100	12.418773	-57.245023	103.000	-0.020	-0.660	1.310	103.070	-1.900	1.100																			1580035061.0	0.91	1.69
26/01/2020 10:37:42	26012020	260120	103742	102.900	12.418767	-57.245025	102.790	-0.260	-0.930	2.630	102.850	-2.200	2.500																			1580035062.0	1.48	2.74
26/01/2020 10:37:43	26012020	260120	103743	102.710	12.418758	-57.245025	102.550	-0.410	-0.890	3.610	102.650	-2.300	3.600																			1580035063.0	1.71	3.17
26/01/2020 10:37:44	26012020	260120	103744	102.410	12.418752	-57.245027	102.350	-0.430	-0.460	4.020	102.370	-2.000	4.300																			1580035064.0	1.47	2.72
26/01/2020 10:37:45	26012020	260120	103745	102.280	12.418748	-57.245028	102.300	-0.340	0.240	3.570	102.260	-1.400	4.200																			1580035065.0	0.77	1.43
26/01/2020 10:37:46	26012020	260120	103746	102.350	12.418750	-57.245030	102.510	-0.180	0.810	2.180	102.390	-0.800	3.200																			1580035066.0	0.52	0.96
26/01/2020 10:37:47	26012020	260120	103747	102.710	12.418758	-57.245028	102.940	0.040	0.950	0.120	102.810	-0.400	1.400																			1580035067.0	1.62	3.00
26/01/2020 10:37:48	26012020	260120	103748	103.200	12.418770	-57.245027	103.310	0.280	0.550	-1.930	103.280	-0.600	-0.800																			1580035068.0	2.42	4.48
26/01/2020 10:37:49	26012020	260120	103749	103.460	12.418780	-57.245023	103.370	0.500	-0.260	-3.310	103.480	-1.300	-2.500																			1580035069.0	2.50	4.63
26/01/2020 10:37:50	26012020	260120	103750	103.430	12.418788	-57.245018	103.230	0.590	-1.000	-3.760	103.400	-2.100	-3.300																			1580035070.0	2.00	3.70
26/01/2020 10:37:51	26012020	260120	103751	103.270	12.418792	-57.245015	103.040	0.460	-1.240	-3.160	103.220	-2.600	-3.200																			1580035071.0	0.96	1.78
26/01/2020 10:37:52	26012020	260120	103752	103.010	12.418788	-57.245015	102.770	0.120	-0.900	-1.570	102.950	-2.500	-1.900																			1580035072.0	0.58	1.07
26/01/2020 10:37:53	26012020	260120	103753	102.690	12.418780	-57.245018	102.530	-0.280	-0.200	0.470	102.630	-1.900	0.000																			1580035073.0	1.89	3.50
26/01/2020 10:37:54	26012020	260120	103754	102.500	12.418770	-57.245023	102.500	-0.570	0.430	2.260	102.490	-1.200	2.000																			1580035074.0	2.48	4.59
26/01/2020 10:37:55	26012020	260120	103755	102.540	12.418760	-57.245027	102.690	-0.630	0.710	3.440	102.570	-0.700	3.400																			1580035075.0	2.26	4.19
26/01/2020 10:37:56	26012020	260120	103756	102.780	12.418753	-57.245028	103.000	-0.450	0.620	3.820	102.840	-0.700	4.100																			1580035076.0	1.60	2.96
26/01/2020 10:37:57	26012020	260120	103757	103.060	12.418750	-57.245028	103.320	-0.100	0.340	3.370	103.120	-0.900	4.000																			1580035077.0	0.68	1.26
26/01/2020 10:37:58	26012020	260120	103758	103.430	12.418752	-57.245027	103.530	0.240	-0.020	2.290	103.480	-1.200	3.100																			1580035078.0	0.48	0.89
26/01/2020 10:37:59	26012020	260120	103759	103.600	12.418758	-57.245025	103.560	0.390	-0.400	0.920	103.600	-1.600	1.800																			1580035079.0	1.39	2.57
26/01/2020 10:38:00	26012020	260120	103800	103.570	12.418765	-57.245023	103.410	0.330	-0.770	-0.330	103.540	-2.000	0.500	1014.40	25.60	25.60	18.60	18.70	45.00	65.00	65.00	375.00	25.10	353.00	7.50	95.00	7.10	3082	3323.00	27.40	27.40	1580035080.0	1.79	3.32
26/01/2020 10:38:01	26012020	260120	103801	103.380	12.418773	-57.245020	103.140	0.190	-0.980	-1.260	103.330	-2.300	-0.600																			1580035081.0	1.62	3.00
26/01/2020 10:38:02	26012020	260120	103802	103.090	12.418778	-57.245018	102.820	0.080	-0.830	-1.770	103.020	-2.300	-1.200																			1580035082.0	1.15	2.13
26/01/2020 10:38:03	26012020	260120	103803	102.800	12.418780	-57.245018	102.640	-0.010	-0.270	-1.920	102.770	-1.900	-1.500																			1580035083.0	0.56	1.04
26/01/2020 10:38:04	26012020	260120	103804	102.720	12.418782	-57.245020	102.690	-0.110	0.430	-1.760	102.730	-1.200	-1.500																			1580035084.0	0.35	0.65
26/01/2020 10:38:05	26012020	260120	103805	102.860	12.418780	-57.245022	102.940	-0.180	0.830	-1.370	102.910	-0.600	-1.200																			1580035085.0	0.51	0.94
26/01/2020 10:38:06	26012020	260120	103806	103.130	12.418778	-57.245023	103.230	-0.150	0.680	-0.750	103.200	-0.600	-0.700																			1580035086.0	0.50	0.93
26/01/2020 10:38:07	26012020	260120	103807	103.370	12.418775	-57.245022	103.400	-0.010	0.100	0.090	103.400	-1.000	0.100																			1580035087.0	0.70	1.30
26/01/2020 10:38:08	26012020	260120	103808	103.460	12.418770	-57.245020	103.450	0.150	-0.500	1.080	103.460	-1.700	1.000																			1580035088.0	1.03	1.91
26/01/2020 10:38:09	26012020	260120	103809	103.460	12.418765	-57.245020	103.430	0.200	-0.670	2.030	103.460	-2.000	2.000																			1580035089.0	1.15	2.13
26/01/2020 10:38:10	26012020	260120	103810	103.400	12.418760	-57.245022	103.350	0.100	-0.460	2.780	103.380	-1.900	2.900																			1580035090.0	1.11	2.06
26/01/2020 10:38:11	26012020	260120	103811	103.320	12.418757	-57.245025	103.230	-0.090	-0.190	3.090	103.290	-1.600	3.400																			1580035091.0	0.99	1.83
26/01/2020 10:38:12	26012020	260120	103812	103.160	12.418755	-57.245027	103.060	-0.210	-0.100	2.850	103.130	-1.500	3.400																			1580035092.0	0.50	0.93
26/01/2020 10:38:13	26012020	260120	103813	102.980	12.418755	-57.245027	102.880	-0.140	-0.130	2.040	102.950	-1.500	2.800																			1580035093.0	0.26	0.48
26/01/2020 10:38:14	26012020	260120	103814	102.900	12.418760	-57.245025	102.890	0.040	-0.100	0.730	102.910	-1.500	1.700																			1580035094.0	0.99	1.83
26/01/2020 10:38:15	26012020	260120	103815	103.040	12.418767	-57.245022	103.090	0.190	0.010	-0.740	103.090	-1.400	0.200																			1580035095.0	1.52	2.82
26/01/2020 10:38:16	26012020	260120	103816	103.280	12.418775	-57.245022	103.310	0.210	0.100	-1.980	103.330	-1.300	-1.200																			1580035096.0	1.73	3.20
26/01/2020 10:38:17	26012020	260120	103817	103.480	12.418782	-57.245020	103.430	0.090	0.020	-2.670	103.500	-1.300	-2.100																			1580035097.0	1.42	2.63
26/01/2020 10:38:18	26012020	260120	103818	103.540	12.418783	-57.245018	103.400	-0.020	-0.230	-2.570	103.540	-1.500	-2.300																			1580035098.0	0.66	1.22
26/01/2020 10:38:19	26012020	260120	103819	103.430	12.418783	-57.245018	103.220	-0.020	-0.470	-1.720	103.380	-1.800	-1.800																			1580035099.0	0.34	0.63
26/01/2020 10:38:20	26012020	260120	103820	103.180	12.418777	-57.245018	103.000	0.050	-0.440	-0.420	103.130	-1.900	-0.600																			1580035100.0	1.09	2.02
26/01/2020 10:38:21	26012020	260120	103821	102.940	12.418772	-57.245020	102.820	0.030	-0.140	0.950	102.890	-1.600	0.800																			1580035101.0	1.46	2.70
26/01/2020 10:38:22	26012020	260120	103822	102.780	12.418765	-57.245023	102.790	-0.120	0.210	2.050	102.770	-1.300	2.000																			1580035102.0	1.46	2.70
26/01/2020 10:38:23	26012020	260120	103823	102.840	12.418760	-57.245025	102.980	-0.290	0.370	2.640	102.880	-1.000	2.800																			1580035103.0	1.21	2.24
26/01/2020 10:38:24	26012020	260120	103824	103.070	12.418757	-57.245027	103.220	-0.270	0.250	2.720	103.120	-1.000	3.100																			1580035104.0	0.78	1.44
26/01/2020 10:38:25	26012020	260120	103825	103.320	12.418755	-57.245027	103.420	-0.020	-0.040	2.370	103.360	-1.300	2.900																			1580035105.0	0.30	0.56
26/01/2020 10:38:26	26012020	260120	103826	103.470	12.418755	-57.245027	103.460	0.240	-0.340	1.710	103.480	-1.600	2.400																			1580035106.0	0.25	0.46
26/01/2020 10:38:27	26012020	260120	103827	103.450	12.418758	-57.245025	103.350	0.300	-0.460	0.900	103.430	-1.800	1.600																			1580035107.0	0.59	1.09
26/01/2020 10:38:28	26012020	260120	103828	103.330	12.418763	-57.245025	103.190	0.180	-0.360	0.010	103.300	-1.800	0.800																			1580035108.0	0.94	1.74
26/01/2020 10:38:29	26012020	260120	103829	103.170	12.418768	-57.245025	102.990	0.050	-0.280	-0.820	103.130	-1.700	-0.100																			1580035109.0	1.25	2.31
26/01/2020 10:38:30	26012020	260120	103830	102.970	12.418773	-57.245025	102.780	0.050	-0.320	-1.380	102.930	-1.700	-0.800																			1580035110.0	1.14	2.11
26/01/2020 10:38:31	26012020	260120	103831	102.780	12.418777	-57.245023	102.650	0.110	-0.350	-1.600	102.760	-1.700	-1.200																			1580035111.0	0.74	1.37
26/01/2020 10:38:32	26012020	260120	103832	102.690	12.418778	-57.245022	102.650	0.090	-0.240	-1.450	102.690	-1.700	-1.200																			1580035112.0	0.31	0.57
26/01/2020 10:38:33	26012020	260120	103833	102.730	12.418777	-57.245022	102.750	-0.070	0.000	-1.010	102.750	-1.500	-0.900																			1580035113.0	0.25	0.46
26/01/2020 10:38:34	26012020	260120	103834	102.860	12.418773	-57.245023	102.940	-0.260	0.340	-0.380	102.900	-1.200	-0.300																			1580035114.0	0.66	1.22
26/01/2020 10:38:35	26012020	260120	103835	103.030	12.418770	-57.245025	103.230	-0.360	0.620	0.370	103.070	-0.800	0.400																			1580035115.0	1.03	1.91
26/01/2020 10:38:36	26012020	260120	103836	103.350	12.418765	-57.245028	103.470	-0.270	0.620	1.120	103.400	-0.700	1.200																			1580035116.0	1.23	2.28
26/01/2020 10:38:37	26012020	260120	103837	103.510	12.418760	-57.245030	103.520	-0.020	0.140	1.820	103.510	-1.000	1.900																			1580035117.0	1.08	2.00
26/01/2020 10:38:38	26012020	260120	103838	103.450	12.418757	-57.245030	103.370	0.220	-0.570	2.360	103.430	-1.600	2.500																			1580035118.0	0.89	1.65
26/01/2020 10:38:39	26012020	260120	103839	103.270	12.418753	-57.245028	103.170	0.290	-0.980	2.570	103.230	-2.200	2.900																			1580035119.0	0.65	1.20
26/01/2020 10:38:40	26012020	260120	103840	103.080	12.418753	-57.245028	103.010	0.150	-0.850	2.340	103.050	-2.300	2.800																			1580035120.0	0.04	0.07
26/01/2020 10:38:41	26012020	260120	103841	102.950	12.418755	-57.245030	102.890	-0.070	-0.430	1.740	102.930	-2.000	2.400																			1580035121.0	0.58	1.07
26/01/2020 10:38:42	26012020	260120	103842	102.870	12.418758	-57.245032	102.800	-0.190	-0.130	0.940	102.850	-1.600	1.600																			1580035122.0	0.78	1.44
26/01/2020 10:38:43	26012020	260120	103843	102.810	12.418762	-57.245032	102.740	-0.150	-0.020	0.110	102.790	-1.400	0.800																			1580035123.0	0.69	1.28
26/01/2020 10:38:44	26012020	260120	103844	102.800	12.418765	-57.245030	102.790	0.010	0.110	-0.800	102.810	-1.300	-0.100																			1580035124.0	0.76	1.41
26/01/2020 10:38:45	26012020	260120	103845	102.920	12.418770	-57.245028	102.950	0.180	0.310	-1.680	102.950	-1.100	-1.000																			1580035125.0	0.96	1.78
26/01/2020 10:38:46	26012020	260120	103846	103.120	12.418775	-57.245028	103.170	0.280	0.410	-2.250	103.170	-1.000	-1.700																			1580035126.0	1.06	1.96
26/01/2020 10:38:47	26012020	260120	103847	103.330	12.418778	-57.245028	103.400	0.280	0.260	-2.180	103.370	-1.000	-1.900																			1580035127.0	0.75	1.39
26/01/2020 10:38:48	26012020	260120	103848	103.550	12.418777	-57.245028	103.500	0.170	-0.060	-1.400	103.560	-1.300	-1.400																			1580035128.0	0.05	0.09
26/01/2020 10:38:49	26012020	260120	103849	103.550	12.418773	-57.245028	103.420	-0.050	-0.320	-0.060	103.530	-1.600	-0.300																			1580035129.0	0.91	1.69
26/01/2020 10:38:50	26012020	260120	103850	103.370	12.418767	-57.245032	103.210	-0.310	-0.450	1.550	103.320	-1.800	1.200																			1580035130.0	1.58	2.93
26/01/2020 10:38:51	26012020	260120	103851	103.100	12.418758	-57.245035	102.990	-0.500	-0.510	3.000	103.050	-1.800	2.800																			1580035131.0	1.97	3.65
26/01/2020 10:38:52	26012020	260120	103852	102.920	12.418750	-57.245037	102.920	-0.470	-0.510	3.870	102.900	-1.900	3.900																			1580035132.0	1.87	3.46
26/01/2020 10:38:53	26012020	260120	103853	102.920	12.418743	-57.245038	103.030	-0.250	-0.370	3.960	102.940	-1.800	4.400																			1580035133.0	1.27	2.35
26/01/2020 10:38:54	26012020	260120	103854	103.070	12.418742	-57.245038	103.200	0.010	-0.100	3.270	103.110	-1.600	4.000																			1580035134.0	0.35	0.65
26/01/2020 10:38:55	26012020	260120	103855	103.240	12.418745	-57.245038	103.300	0.210	0.190	1.970	103.270	-1.300	2.900																			1580035135.0	0.69	1.28
26/01/2020 10:38:56	26012020	260120	103856	103.330	12.418753	-57.245038	103.280	0.350	0.290	0.320	103.330	-1.100	1.400																			1580035136.0	1.57	2.91
26/01/2020 10:38:57	26012020	260120	103857	103.290	12.418762	-57.245037	103.180	0.430	0.160	-1.290	103.270	-1.100	-0.300																			1580035137.0	2.12	3.93
26/01/2020 10:38:58	26012020	260120	103858	103.210	12.418772	-57.245033	103.100	0.410	-0.050	-2.490	103.200	-1.300	-1.700																			1580035138.0	2.17	4.02
26/01/2020 10:38:59	26012020	260120	103859	103.180	12.418780	-57.245032	103.120	0.300	-0.210	-3.010	103.190	-1.500	-2.500																			1580035139.0	1.66	3.07
26/01/2020 10:39:00	26012020	260120	103900	103.220	12.418783	-57.245030	103.140	0.120	-0.360	-2.750	103.220	-1.700	-2.600	1014.40	25.60	25.70	19.00	19.10	45.00	67.00	67.00	375.00	25.10	353.00	6.80	96.00	6.30	3243	3335.00	27.40	27.40	1580035140.0	0.73	1.35
26/01/2020 10:39:01	26012020	260120	103901	103.210	12.418780	-57.245030	103.080	-0.080	-0.430	-1.720	103.200	-1.800	-1.900																			1580035141.0	0.41	0.76
26/01/2020 10:39:02	26012020	260120	103902	103.070	12.418775	-57.245032	102.960	-0.290	-0.300	-0.190	103.040	-1.700	-0.500																			1580035142.0	1.39	2.57
26/01/2020 10:39:03	26012020	260120	103903	102.930	12.418765	-57.245035	102.910	-0.510	0.010	1.470	102.920	-1.500	1.200																			1580035143.0	2.02	3.74
26/01/2020 10:39:04	26012020	260120	103904	102.890	12.418757	-57.245038	102.950	-0.630	0.280	2.860	102.890	-1.200	2.700																			1580035144.0	2.19	4.06
26/01/2020 10:39:05	26012020	260120	103905	102.950	12.418748	-57.245042	103.080	-0.550	0.300	3.680	102.980	-1.000	3.800																			1580035145.0	1.87	3.46
26/01/2020 10:39:06	26012020	260120	103906	103.110	12.418743	-57.245043	103.220	-0.250	0.010	3.730	103.140	-1.200	4.200																			1580035146.0	1.11	2.06
26/01/2020 10:39:07	26012020	260120	103907	103.230	12.418742	-57.245042	103.240	0.180	-0.410	3.150	103.230	-1.600	3.800																			1580035147.0	0.30	0.56
26/01/2020 10:39:08	26012020	260120	103908	103.160	12.418745	-57.245040	103.010	0.530	-0.670	2.180	103.110	-1.900	3.000																			1580035148.0	0.89	1.65
26/01/2020 10:39:09	26012020	260120	103909	102.890	12.418752	-57.245037	102.690	0.650	-0.590	0.990	102.830	-2.000	1.900																			1580035149.0	1.45	2.69
26/01/2020 10:39:10	26012020	260120	103910	102.620	12.418760	-57.245035	102.480	0.510	-0.210	-0.250	102.590	-1.700	0.600																			1580035150.0	1.74	3.22
26/01/2020 10:39:11	26012020	260120	103911	102.530	12.418768	-57.245035	102.480	0.230	0.210	-1.390	102.530	-1.300	-0.600																			1580035151.0	1.78	3.30
26/01/2020 10:39:12	26012020	260120	103912	102.620	12.418775	-57.245035	102.620	-0.010	0.410	-2.220	102.660	-1.000	-1.600																			1580035152.0	1.51	2.80
26/01/2020 10:39:13	26012020	260120	103913	102.790	12.418778	-57.245033	102.780	-0.130	0.260	-2.520	102.830	-1.000	-2.100																			1580035153.0	0.95	1.76
26/01/2020 10:39:14	26012020	260120	103914	102.920	12.418780	-57.245033	102.860	-0.160	-0.110	-2.130	102.930	-1.300	-2.000																			1580035154.0	0.31	0.57
26/01/2020 10:39:15	26012020	260120	103915	102.970	12.418775	-57.245032	102.920	-0.200	-0.300	-1.130	102.980	-1.600	-1.200																			1580035155.0	0.83	1.54
26/01/2020 10:39:16	26012020	260120	103916	102.980	12.418770	-57.245033	102.920	-0.290	-0.180	0.260	102.970	-1.600	0.000																			1580035156.0	1.42	2.63
26/01/2020 10:39:17	26012020	260120	103917	102.890	12.418762	-57.245037	102.810	-0.350	-0.040	1.730	102.860	-1.400	1.500																			1580035157.0	1.75	3.24
26/01/2020 10:39:18	26012020	260120	103918	102.730	12.418755	-57.245038	102.680	-0.280	-0.120	2.900	102.700	-1.400	2.800																			1580035158.0	1.69	3.13
26/01/2020 10:39:19	26012020	260120	103919	102.610	12.418748	-57.245040	102.610	-0.070	-0.370	3.500	102.600	-1.600	3.700																			1580035159.0	1.25	2.31
26/01/2020 10:39:20	26012020	260120	103920	102.570	12.418745	-57.245038	102.610	0.150	-0.530	3.440	102.570	-1.800	3.900																			1580035160.0	0.65	1.20
26/01/2020 10:39:21	26012020	260120	103921	102.590	12.418747	-57.245037	102.650	0.230	-0.430	2.760	102.600	-1.800	3.400																			1580035161.0	0.30	0.56
26/01/2020 10:39:22	26012020	260120	103922	102.650	12.418750	-57.245037	102.660	0.160	-0.160	1.680	102.660	-1.600	2.500																			1580035162.0	0.84	1.56
26/01/2020 10:39:23	26012020	260120	103923	102.660	12.418757	-57.245035	102.630	0.020	0.140	0.390	102.660	-1.300	1.300																			1580035163.0	1.31	2.43
26/01/2020 10:39:24	26012020	260120	103924	102.680	12.418763	-57.245035	102.680	-0.070	0.370	-0.980	102.700	-1.100	-0.100																			1580035164.0	1.60	2.96
26/01/2020 10:39:25	26012020	260120	103925	102.770	12.418772	-57.245033	102.830	-0.050	0.440	-2.160	102.800	-0.900	-1.300																			1580035165.0	1.64	3.04
26/01/2020 10:39:26	26012020	260120	103926	103.000	12.418777	-57.245033	102.960	0.090	0.220	-2.790	103.020	-1.000	-2.200																			1580035166.0	1.33	2.46
26/01/2020 10:39:27	26012020	260120	103927	103.070	12.418780	-57.245032	102.920	0.280	-0.310	-2.660	103.060	-1.400	-2.400																			1580035167.0	0.73	1.35
26/01/2020 10:39:28	26012020	260120	103928	102.960	12.418778	-57.245028	102.810	0.370	-0.720	-1.870	102.930	-1.900	-1.900																			1580035168.0	0.50	0.93
26/01/2020 10:39:29	26012020	260120	103929	102.870	12.418775	-57.245028	102.830	0.220	-0.600	-0.650	102.870	-2.100	-0.800																			1580035169.0	0.78	1.44
26/01/2020 10:39:30	26012020	260120	103930	102.940	12.418770	-57.245032	102.990	-0.140	-0.120	0.800	102.960	-1.700	0.600																			1580035170.0	1.28	2.37
26/01/2020 10:39:31	26012020	260120	103931	103.050	12.418763	-57.245035	103.080	-0.490	0.200	2.210	103.060	-1.200	2.000																			1580035171.0	1.77	3.28
26/01/2020 10:39:32	26012020	260120	103932	103.050	12.418755	-57.245038	103.010	-0.600	0.070	3.330	103.040	-1.200	3.300																			1580035172.0	1.85	3.43
26/01/2020 10:39:33	26012020	260120	103933	102.930	12.418747	-57.245038	102.860	-0.420	-0.310	3.970	102.890	-1.500	4.100																			1580035173.0	1.64	3.04
26/01/2020 10:39:34	26012020	260120	103934	102.780	12.418743	-57.245037	102.780	-0.100	-0.510	3.890	102.770	-1.800	4.400																			1580035174.0	1.07	1.98
26/01/2020 10:39:35	26012020	260120	103935	102.760	12.418743	-57.245037	102.840	0.130	-0.300	2.960	102.770	-1.800	3.800																			1580035175.0	0.26	0.48
26/01/2020 10:39:36	26012020	260120	103936	102.910	12.418748	-57.245035	102.990	0.210	0.120	1.430	102.950	-1.400	2.500																			1580035176.0	1.17	2.17
26/01/2020 10:39:37	26012020	260120	103937	103.070	12.418757	-57.245035	103.180	0.250	0.410	-0.390	103.110	-1.000	0.700																			1580035177.0	1.97	3.65
26/01/2020 10:39:38	26012020	260120	103938	103.340	12.418768	-57.245033	103.340	0.300	0.360	-2.010	103.380	-0.900	-1.000																			1580035178.0	2.30	4.26
26/01/2020 10:39:39	26012020	260120	103939	103.500	12.418777	-57.245032	103.400	0.360	0.020	-2.970	103.520	-1.200	-2.300																			1580035179.0	2.00	3.70
26/01/2020 10:39:40	26012020	260120	103940	103.510	12.418782	-57.245028	103.320	0.360	-0.400	-3.110	103.490	-1.600	-2.800																			1580035180.0	1.26	2.33
26/01/2020 10:39:41	26012020	260120	103941	103.370	12.418783	-57.245027	103.180	0.220	-0.650	-2.480	103.340	-1.900	-2.500																			1580035181.0	0.43	0.80
26/01/2020 10:39:42	26012020	260120	103942	103.210	12.418780	-57.245027	103.090	-0.020	-0.610	-1.250	103.190	-2.000	-1.400																			1580035182.0	0.61	1.13
26/01/2020 10:39:43	26012020	260120	103943	103.130	12.418773	-57.245030	103.080	-0.280	-0.310	0.350	103.120	-1.800	0.000																			1580035183.0	1.48	2.74
26/01/2020 10:39:44	26012020	260120	103944	103.110	12.418765	-57.245033	103.120	-0.480	0.140	1.950	103.110	-1.400	1.700																			1580035184.0	2.08	3.85
26/01/2020 10:39:45	26012020	260120	103945	103.160	12.418757	-57.245037	103.250	-0.580	0.510	3.100	103.180	-0.900	3.100																			1580035185.0	2.12	3.93
26/01/2020 10:39:46	26012020	260120	103946	103.290	12.418750	-57.245040	103.400	-0.490	0.450	3.570	103.330	-0.800	3.800																			1580035186.0	1.52	2.82
26/01/2020 10:39:47	26012020	260120	103947	103.420	12.418747	-57.245040	103.440	-0.170	-0.120	3.440	103.430	-1.200	3.900																			1580035187.0	0.63	1.17
26/01/2020 10:39:48	26012020	260120	103948	103.380	12.418747	-57.245037	103.270	0.280	-0.810	2.840	103.350	-1.900	3.500																			1580035188.0	0.67	1.24
26/01/2020 10:39:49	26012020	260120	103949	103.220	12.418750	-57.245032	103.010	0.600	-1.010	1.840	103.170	-2.400	2.700																			1580035189.0	1.07	1.98
26/01/2020 10:39:50	26012020	260120	103950	102.990	12.418755	-57.245030	102.900	0.570	-0.480	0.490	102.970	-2.100	1.400																			1580035190.0	1.39	2.57
26/01/2020 10:39:51	26012020	260120	103951	102.980	12.418765	-57.245032	102.990	0.230	0.370	-0.950	103.000	-1.300	-0.000																			1580035191.0	1.88	3.48
26/01/2020 10:39:52	26012020	260120	103952	103.160	12.418773	-57.245033	103.130	-0.130	0.840	-2.120	103.180	-0.600	-1.300																			1580035192.0	1.93	3.57
26/01/2020 10:39:53	26012020	260120	103953	103.290	12.418780	-57.245033	103.220	-0.240	0.620	-2.770	103.310	-0.600	-2.200																			1580035193.0	1.40	2.59
26/01/2020 10:39:54	26012020	260120	103954	103.340	12.418783	-57.245030	103.210	-0.140	-0.020	-2.790	103.330	-1.100	-2.500																			1580035194.0	0.75	1.39
26/01/2020 10:39:55	26012020	260120	103955	103.260	12.418782	-57.245028	103.080	0.040	-0.640	-2.090	103.220	-1.800	-2.100																			1580035195.0	0.56	1.04
26/01/2020 10:39:56	26012020	260120	103956	103.050	12.418777	-57.245027	102.890	0.130	-0.890	-0.770	103.010	-2.200	-1.000																			1580035196.0	1.05	1.94
26/01/2020 10:39:57	26012020	260120	103957	102.860	12.418770	-57.245028	102.810	0.080	-0.680	0.760	102.840	-2.100	0.500																			1580035197.0	1.53	2.83
26/01/2020 10:39:58	26012020	260120	103958	102.790	12.418762	-57.245032	102.800	-0.090	-0.180	2.090	102.780	-1.700	1.900																			1580035198.0	1.75	3.24
26/01/2020 10:39:59	26012020	260120	103959	102.770	12.418755	-57.245035	102.810	-0.240	0.310	2.910	102.770	-1.200	3.000																			1580035199.0	1.57	2.91
26/01/2020 10:40:00	26012020	260120	104000	102.770	12.418752	-57.245038	102.820	-0.250	0.480	3.100	102.770	-0.900	3.400	1014.40	25.60	25.60	18.90	19.00	49.00	66.00	66.00	375.00	25.10	356.00	7.70	98.00	7.10	3409	3213.00	27.40	27.40	1580035200.0	0.96	1.78
26/01/2020 10:40:01	26012020	260120	104001	102.790	12.418752	-57.245038	102.810	-0.160	0.270	2.770	102.790	-1.000	3.300																			1580035201.0	0.19	0.35
26/01/2020 10:40:02	26012020	260120	104002	102.780	12.418753	-57.245037	102.780	-0.020	-0.140	2.100	102.780	-1.300	2.800																			1580035202.0	0.46	0.85
26/01/2020 10:40:03	26012020	260120	104003	102.760	12.418757	-57.245035	102.750	0.110	-0.470	1.170	102.760	-1.700	1.900																			1580035203.0	0.87	1.61
26/01/2020 10:40:04	26012020	260120	104004	102.780	12.418762	-57.245032	102.790	0.250	-0.560	0.030	102.790	-1.900	0.900																			1580035204.0	1.15	2.13
26/01/2020 10:40:05	26012020	260120	104005	102.870	12.418767	-57.245030	102.850	0.320	-0.390	-1.070	102.880	-1.800	-0.300																			1580035205.0	1.33	2.46
26/01/2020 10:40:06	26012020	260120	104006	102.900	12.418773	-57.245030	102.810	0.240	-0.110	-1.720	102.890	-1.600	-1.200																			1580035206.0	1.23	2.28
26/01/2020 10:40:07	26012020	260120	104007	102.820	12.418777	-57.245030	102.690	-0.010	0.140	-1.740	102.790	-1.300	-1.400																			1580035207.0	0.73	1.35
26/01/2020 10:40:08	26012020	260120	104008	102.670	12.418777	-57.245032	102.550	-0.250	0.220	-1.290	102.650	-1.100	-1.100																			1580035208.0	0.22	0.41
26/01/2020 10:40:09	26012020	260120	104009	102.550	12.418773	-57.245032	102.460	-0.300	0.050	-0.590	102.530	-1.200	-0.500																			1580035209.0	0.54	1.00
26/01/2020 10:40:10	26012020	260120	104010	102.490	12.418770	-57.245032	102.500	-0.190	-0.200	0.170	102.490	-1.500	0.200																			1580035210.0	0.85	1.57
26/01/2020 10:40:11	26012020	260120	104011	102.570	12.418765	-57.245032	102.670	-0.080	-0.230	0.940	102.610	-1.600	1.000																			1580035211.0	0.99	1.83
26/01/2020 10:40:12	26012020	260120	104012	102.730	12.418760	-57.245033	102.820	-0.020	-0.070	1.610	102.760	-1.500	1.700																			1580035212.0	1.00	1.85
26/01/2020 10:40:13	26012020	260120	104013	102.830	12.418757	-57.245035	102.850	0.070	0.010	2.040	102.830	-1.300	2.200																			1580035213.0	0.82	1.52
26/01/2020 10:40:14	26012020	260120	104014	102.810	12.418755	-57.245037	102.790	0.210	-0.060	2.170	102.790	-1.400	2.500																			1580035214.0	0.37	0.69
26/01/2020 10:40:15	26012020	260120	104015	102.760	12.418757	-57.245037	102.760	0.280	-0.090	1.950	102.740	-1.400	2.400																			1580035215.0	0.07	0.13
26/01/2020 10:40:16	26012020	260120	104016	102.740	12.418758	-57.245037	102.760	0.180	-0.030	1.460	102.750	-1.400	2.000																			1580035216.0	0.43	0.80
26/01/2020 10:40:17	26012020	260120	104017	102.760	12.418762	-57.245037	102.740	0.010	-0.120	0.830	102.760	-1.400	1.500																			1580035217.0	0.72	1.33
26/01/2020 10:40:18	26012020	260120	104018	102.720	12.418765	-57.245035	102.670	-0.050	-0.490	0.160	102.710	-1.700	0.800																			1580035218.0	0.80	1.48
26/01/2020 10:40:19	26012020	260120	104019	102.660	12.418768	-57.245033	102.590	0.030	-0.860	-0.390	102.650	-2.100	0.200																			1580035219.0	0.82	1.52
26/01/2020 10:40:20	26012020	260120	104020	102.590	12.418768	-57.245030	102.520	0.070	-0.740	-0.680	102.570	-2.200	-0.200																			1580035220.0	0.60	1.11
26/01/2020 10:40:21	26012020	260120	104021	102.520	12.418770	-57.245032	102.460	-0.060	-0.130	-0.670	102.500	-1.800	-0.300																			1580035221.0	0.11	0.20
26/01/2020 10:40:22	26012020	260120	104022	102.480	12.418770	-57.245033	102.470	-0.300	0.530	-0.530	102.480	-1.100	-0.200																			1580035222.0	0.47	0.87
26/01/2020 10:40:23	26012020	260120	104023	102.540	12.418770	-57.245035	102.610	-0.440	0.830	-0.390	102.570	-0.600	-0.100																			1580035223.0	0.48	0.89
26/01/2020 10:40:24	26012020	260120	104024	102.730	12.418768	-57.245037	102.820	-0.340	0.690	-0.230	102.780	-0.600	0.000																			1580035224.0	0.18	0.33
26/01/2020 10:40:25	26012020	260120	104025	102.910	12.418767	-57.245037	102.940	-0.050	0.210	0.150	102.930	-0.900	0.300																			1580035225.0	0.34	0.63
26/01/2020 10:40:26	26012020	260120	104026	102.980	12.418765	-57.245035	102.980	0.270	-0.210	0.680	102.980	-1.400	0.800																			1580035226.0	0.66	1.22
26/01/2020 10:40:27	26012020	260120	104027	103.000	12.418762	-57.245035	103.030	0.440	-0.380	1.110	103.010	-1.700	1.300																			1580035227.0	0.55	1.02
26/01/2020 10:40:28	26012020	260120	104028	103.030	12.418760	-57.245037	102.980	0.430	-0.450	1.430	103.020	-1.800	1.700																			1580035228.0	0.44	0.81
26/01/2020 10:40:29	26012020	260120	104029	102.900	12.418760	-57.245038	102.760	0.310	-0.660	1.690	102.860	-1.900	2.000																			1580035229.0	0.31	0.57
26/01/2020 10:40:30	26012020	260120	104030	102.610	12.418760	-57.245038	102.420	0.170	-0.900	1.820	102.550	-2.200	2.200																			1580035230.0	0.12	0.22
26/01/2020 10:40:31	26012020	260120	104031	102.270	12.418760	-57.245037	102.110	0.030	-0.890	1.740	102.210	-2.300	2.200																			1580035231.0	0.29	0.54
26/01/2020 10:40:32	26012020	260120	104032	102.030	12.418760	-57.245035	101.960	-0.150	-0.480	1.390	102.000	-2.100	1.900																			1580035232.0	0.22	0.41
26/01/2020 10:40:33	26012020	260120	104033	101.980	12.418762	-57.245037	102.010	-0.340	0.230	0.750	101.990	-1.400	1.400																			1580035233.0	0.30	0.56
26/01/2020 10:40:34	26012020	260120	104034	102.120	12.418765	-57.245037	102.210	-0.410	0.900	-0.120	102.170	-0.700	0.600																			1580035234.0	0.69	1.28
26/01/2020 10:40:35	26012020	260120	104035	102.370	12.418768	-57.245038	102.430	-0.290	1.140	-1.000	102.420	-0.200	-0.300																			1580035235.0	0.94	1.74
26/01/2020 10:40:36	26012020	260120	104036	102.570	12.418773	-57.245038	102.540	-0.010	0.750	-1.580	102.600	-0.400	-1.000																			1580035236.0	0.92	1.70
26/01/2020 10:40:37	26012020	260120	104037	102.630	12.418775	-57.245035	102.520	0.250	-0.050	-1.650	102.620	-1.100	-1.300																			1580035237.0	0.77	1.43
26/01/2020 10:40:38	26012020	260120	104038	102.550	12.418777	-57.245032	102.400	0.310	-0.760	-1.170	102.520	-1.900	-1.100																			1580035238.0	0.60	1.11
26/01/2020 10:40:39	26012020	260120	104039	102.370	12.418773	-57.245032	102.210	0.120	-1.050	-0.230	102.330	-2.300	-0.300																			1580035239.0	0.48	0.89
26/01/2020 10:40:40	26012020	260120	104040	102.140	12.418770	-57.245033	101.990	-0.160	-0.870	1.000	102.090	-2.300	0.900																			1580035240.0	1.06	1.96
26/01/2020 10:40:41	26012020	260120	104041	101.950	12.418762	-57.245035	101.820	-0.360	-0.390	2.230	101.910	-1.900	2.100																			1580035241.0	1.67	3.09
26/01/2020 10:40:42	26012020	260120	104042	101.760	12.418755	-57.245040	101.740	-0.370	0.090	2.990	101.740	-1.400	3.100																			1580035242.0	1.78	3.30
26/01/2020 10:40:43	26012020	260120	104043	101.700	12.418750	-57.245042	101.720	-0.150	0.290	3.000	101.700	-1.100	3.400																			1580035243.0	1.17	2.17
26/01/2020 10:40:44	26012020	260120	104044	101.720	12.418748	-57.245042	101.750	0.220	0.120	2.340	101.720	-1.100	3.000																			1580035244.0	0.15	0.28
26/01/2020 10:40:45	26012020	260120	104045	101.770	12.418753	-57.245038	101.790	0.590	-0.160	1.220	101.780	-1.400	2.100																			1580035245.0	1.02	1.89
26/01/2020 10:40:46	26012020	260120	104046	101.840	12.418760	-57.245035	101.830	0.740	-0.260	-0.080	101.850	-1.600	0.800																			1580035246.0	1.77	3.28
26/01/2020 10:40:47	26012020	260120	104047	101.880	12.418770	-57.245032	101.840	0.590	-0.120	-1.210	101.880	-1.500	-0.400																			1580035247.0	2.08	3.85
26/01/2020 10:40:48	26012020	260120	104048	101.930	12.418778	-57.245032	101.890	0.180	0.080	-1.870	101.940	-1.300	-1.300																			1580035248.0	1.83	3.39
26/01/2020 10:40:49	26012020	260120	104049	101.990	12.418783	-57.245030	101.910	-0.280	0.130	-1.830	101.990	-1.200	-1.600																			1580035249.0	0.97	1.80
26/01/2020 10:40:50	26012020	260120	104050	101.940	12.418782	-57.245032	101.790	-0.620	0.020	-1.050	101.900	-1.300	-1.100																			1580035250.0	0.25	0.46
26/01/2020 10:40:51	26012020	260120	104051	101.780	12.418775	-57.245032	101.690	-0.750	-0.100	0.100	101.750	-1.400	0.000																			1580035251.0	1.31	2.43
26/01/2020 10:40:52	26012020	260120	104052	101.710	12.418767	-57.245033	101.730	-0.680	-0.150	1.180	101.710	-1.500	1.100																			1580035252.0	1.77	3.28
26/01/2020 10:40:53	26012020	260120	104053	101.790	12.418760	-57.245035	101.870	-0.450	-0.160	1.950	101.820	-1.500	2.000																			1580035253.0	1.64	3.04
26/01/2020 10:40:54	26012020	260120	104054	101.910	12.418755	-57.245037	101.950	-0.140	-0.220	2.360	101.930	-1.500	2.600																			1580035254.0	1.20	2.22
26/01/2020 10:40:55	26012020	260120	104055	101.930	12.418752	-57.245037	101.890	0.200	-0.350	2.420	101.910	-1.600	2.800																			1580035255.0	0.59	1.09
26/01/2020 10:40:56	26012020	260120	104056	101.830	12.418752	-57.245035	101.800	0.490	-0.410	2.040	101.820	-1.800	2.600																			1580035256.0	0.27	0.50
26/01/2020 10:40:57	26012020	260120	104057	101.780	12.418755	-57.245033	101.780	0.640	-0.290	1.210	101.780	-1.700	2.000																			1580035257.0	0.87	1.61
26/01/2020 10:40:58	26012020	260120	104058	101.830	12.418762	-57.245032	101.860	0.590	-0.050	0.180	101.850	-1.500	1.000																			1580035258.0	1.41	2.61
26/01/2020 10:40:59	26012020	260120	104059	101.940	12.418770	-57.245032	101.940	0.370	0.130	-0.700	101.960	-1.300	-0.000																			1580035259.0	1.59	2.94
26/01/2020 10:41:00	26012020	260120	104100	102.020	12.418775	-57.245030	101.970	0.080	0.150	-1.210	102.030	-1.200	-0.700	1014.40	25.60	25.60	18.80	18.80	54.00	66.00	66.00	376.00	25.20	354.00	7.70	96.00	7.30	3578	3246.00	27.40	27.40	1580035260.0	1.28	2.37
26/01/2020 10:41:01	26012020	260120	104101	102.040	12.418778	-57.245028	101.970	-0.150	0.000	-1.290	102.040	-1.300	-0.900																			1580035261.0	0.71	1.31
26/01/2020 10:41:02	26012020	260120	104102	102.030	12.418778	-57.245028	101.950	-0.280	-0.200	-0.990	102.020	-1.500	-0.800																			1580035262.0	0.26	0.48
26/01/2020 10:41:03	26012020	260120	104103	102.000	12.418775	-57.245027	101.930	-0.330	-0.250	-0.360	101.990	-1.600	-0.300																			1580035263.0	0.59	1.09
26/01/2020 10:41:04	26012020	260120	104104	101.950	12.418772	-57.245028	101.930	-0.360	-0.090	0.460	101.950	-1.500	0.500																			1580035264.0	0.98	1.81
26/01/2020 10:41:05	26012020	260120	104105	101.950	12.418767	-57.245030	102.000	-0.360	0.110	1.230	101.960	-1.300	1.300																			1580035265.0	1.16	2.15
26/01/2020 10:41:06	26012020	260120	104106	102.050	12.418762	-57.245032	102.160	-0.280	0.150	1.690	102.080	-1.200	1.900																			1580035266.0	0.98	1.81
26/01/2020 10:41:07	26012020	260120	104107	102.220	12.418760	-57.245032	102.320	-0.140	-0.040	1.760	102.250	-1.300	2.100																			1580035267.0	0.48	0.89
26/01/2020 10:41:08	26012020	260120	104108	102.340	12.418760	-57.245032	102.360	0.050	-0.340	1.590	102.340	-1.600	2.000																			1580035268.0	0.19	0.35
26/01/2020 10:41:09	26012020	260120	104109	102.320	12.418760	-57.245030	102.290	0.220	-0.570	1.300	102.310	-1.800	1.800																			1580035269.0	0.36	0.67
26/01/2020 10:41:10	26012020	260120	104110	102.250	12.418762	-57.245028	102.210	0.320	-0.560	0.920	102.230	-1.900	1.500																			1580035270.0	0.46	0.85
26/01/2020 10:41:11	26012020	260120	104111	102.180	12.418763	-57.245027	102.140	0.310	-0.310	0.450	102.170	-1.800	1.000																			1580035271.0	0.56	1.04
26/01/2020 10:41:12	26012020	260120	104112	102.150	12.418768	-57.245027	102.150	0.220	0.090	-0.190	102.160	-1.400	0.500																			1580035272.0	0.83	1.54
26/01/2020 10:41:13	26012020	260120	104113	102.190	12.418773	-57.245027	102.190	0.080	0.410	-0.810	102.200	-1.000	-0.200																			1580035273.0	1.06	1.96
26/01/2020 10:41:14	26012020	260120	104114	102.250	12.418777	-57.245027	102.250	-0.040	0.400	-1.110	102.270	-0.900	-0.700																			1580035274.0	0.86	1.59
26/01/2020 10:41:15	26012020	260120	104115	102.320	12.418778	-57.245027	102.360	-0.110	0.080	-0.990	102.350	-1.100	-0.700																			1580035275.0	0.35	0.65
26/01/2020 10:41:16	26012020	260120	104116	102.440	12.418777	-57.245025	102.400	-0.150	-0.300	-0.560	102.440	-1.500	-0.400																			1580035276.0	0.38	0.70
26/01/2020 10:41:17	26012020	260120	104117	102.410	12.418775	-57.245023	102.290	-0.140	-0.530	0.100	102.390	-1.800	0.200																			1580035277.0	0.62	1.15
26/01/2020 10:41:18	26012020	260120	104118	102.220	12.418770	-57.245023	102.110	-0.120	-0.540	0.890	102.170	-1.900	0.900																			1580035278.0	0.81	1.50
26/01/2020 10:41:19	26012020	260120	104119	102.040	12.418767	-57.245025	102.010	-0.090	-0.320	1.560	102.010	-1.800	1.700																			1580035279.0	0.99	1.83
26/01/2020 10:41:20	26012020	260120	104120	102.020	12.418762	-57.245027	102.110	-0.080	0.030	1.880	102.040	-1.500	2.200																			1580035280.0	0.90	1.67
26/01/2020 10:41:21	26012020	260120	104121	102.160	12.418760	-57.245028	102.260	-0.070	0.270	1.730	102.200	-1.200	2.200																			1580035281.0	0.47	0.87
26/01/2020 10:41:22	26012020	260120	104122	102.290	12.418762	-57.245028	102.330	-0.030	0.300	1.190	102.310	-1.000	1.800																			1580035282.0	0.28	0.52
26/01/2020 10:41:23	26012020	260120	104123	102.310	12.418765	-57.245027	102.240	0.030	0.100	0.570	102.290	-1.100	1.200																			1580035283.0	0.72	1.33
26/01/2020 10:41:24	26012020	260120	104124	102.200	12.418768	-57.245025	102.110	0.110	-0.220	0.010	102.170	-1.400	0.600																			1580035284.0	0.82	1.52
26/01/2020 10:41:25	26012020	260120	104125	102.100	12.418772	-57.245023	102.030	0.180	-0.520	-0.460	102.090	-1.800	0.100																			1580035285.0	0.81	1.50
26/01/2020 10:41:26	26012020	260120	104126	102.060	12.418775	-57.245022	101.990	0.160	-0.600	-0.770	102.050	-1.900	-0.300																			1580035286.0	0.72	1.33
26/01/2020 10:41:27	26012020	260120	104127	102.000	12.418777	-57.245020	101.880	0.070	-0.430	-0.830	101.980	-1.900	-0.500																			1580035287.0	0.48	0.89
26/01/2020 10:41:28	26012020	260120	104128	101.850	12.418777	-57.245022	101.690	-0.030	-0.130	-0.560	101.820	-1.600	-0.300																			1580035288.0	0.14	0.26
26/01/2020 10:41:29	26012020	260120	104129	101.680	12.418775	-57.245022	101.500	-0.080	0.140	-0.050	101.650	-1.300	0.100																			1580035289.0	0.39	0.72
26/01/2020 10:41:30	26012020	260120	104130	101.500	12.418772	-57.245023	101.460	-0.110	0.340	0.440	101.490	-1.100	0.600																			1580035290.0	0.65	1.20
26/01/2020 10:41:31	26012020	260120	104131	101.510	12.418770	-57.245023	101.600	-0.150	0.340	0.730	101.530	-1.000	1.000																			1580035291.0	0.55	1.02
26/01/2020 10:41:32	26012020	260120	104132	101.700	12.418768	-57.245023	101.770	-0.150	0.090	0.880	101.730	-1.100	1.200																			1580035292.0	0.33	0.61
26/01/2020 10:41:33	26012020	260120	104133	101.840	12.418768	-57.245023	101.880	-0.080	-0.200	0.980	101.870	-1.400	1.300																			1580035293.0	0.28	0.52
26/01/2020 10:41:34	26012020	260120	104134	101.920	12.418767	-57.245022	101.910	-0.010	-0.350	1.050	101.920	-1.700	1.400																			1580035294.0	0.23	0.43
26/01/2020 10:41:35	26012020	260120	104135	101.900	12.418767	-57.245022	101.820	0.030	-0.380	1.120	101.880	-1.700	1.500																			1580035295.0	0.17	0.31
26/01/2020 10:41:36	26012020	260120	104136	101.750	12.418765	-57.245023	101.630	0.040	-0.370	1.120	101.710	-1.700	1.500																			1580035296.0	0.09	0.17
26/01/2020 10:41:37	26012020	260120	104137	101.530	12.418767	-57.245023	101.400	0.060	-0.340	1.040	101.480	-1.700	1.500																			1580035297.0	0.11	0.20
26/01/2020 10:41:38	26012020	260120	104138	101.310	12.418767	-57.245022	101.210	0.100	-0.250	0.820	101.270	-1.600	1.300																			1580035298.0	0.26	0.48
26/01/2020 10:41:39	26012020	260120	104139	101.170	12.418768	-57.245022	101.120	0.150	-0.130	0.430	101.160	-1.500	1.000																			1580035299.0	0.40	0.74
26/01/2020 10:41:40	26012020	260120	104140	101.150	12.418772	-57.245020	101.140	0.150	-0.010	-0.080	101.160	-1.400	0.500																			1580035300.0	0.59	1.09
26/01/2020 10:41:41	26012020	260120	104141	101.250	12.418775	-57.245020	101.300	0.050	0.140	-0.580	101.280	-1.300	-0.000																			1580035301.0	0.76	1.41
26/01/2020 10:41:42	26012020	260120	104142	101.450	12.418778	-57.245018	101.520	-0.140	0.240	-0.850	101.500	-1.100	-0.400																			1580035302.0	0.62	1.15
26/01/2020 10:41:43	26012020	260120	104143	101.670	12.418778	-57.245018	101.680	-0.310	0.300	-0.730	101.710	-1.100	-0.400																			1580035303.0	0.20	0.37
26/01/2020 10:41:44	26012020	260120	104144	101.790	12.418777	-57.245020	101.730	-0.340	0.200	-0.240	101.790	-1.100	-0.100																			1580035304.0	0.42	0.78
26/01/2020 10:41:45	26012020	260120	104145	101.760	12.418773	-57.245022	101.630	-0.190	-0.150	0.460	101.740	-1.300	0.500																			1580035305.0	0.82	1.52
26/01/2020 10:41:46	26012020	260120	104146	101.600	12.418768	-57.245020	101.460	0.050	-0.620	1.130	101.560	-1.800	1.300																			1580035306.0	0.93	1.72
26/01/2020 10:41:47	26012020	260120	104147	101.410	12.418765	-57.245020	101.300	0.240	-0.850	1.610	101.370	-2.200	1.800																			1580035307.0	0.73	1.35
26/01/2020 10:41:48	26012020	260120	104148	101.260	12.418765	-57.245018	101.220	0.300	-0.630	1.840	101.250	-2.100	2.200																			1580035308.0	0.34	0.63
26/01/2020 10:41:49	26012020	260120	104149	101.250	12.418765	-57.245020	101.330	0.250	-0.130	1.660	101.280	-1.700	2.200																			1580035309.0	0.20	0.37
26/01/2020 10:41:50	26012020	260120	104150	101.430	12.418767	-57.245022	101.540	0.100	0.270	1.160	101.470	-1.200	1.800																			1580035310.0	0.55	1.02
26/01/2020 10:41:51	26012020	260120	104151	101.640	12.418770	-57.245022	101.710	-0.100	0.380	0.550	101.680	-1.000	1.200																			1580035311.0	0.66	1.22
26/01/2020 10:41:52	26012020	260120	104152	101.780	12.418773	-57.245020	101.790	-0.250	0.270	0.010	101.800	-1.000	0.600																			1580035312.0	0.60	1.11
26/01/2020 10:41:53	26012020	260120	104153	101.840	12.418775	-57.245020	101.810	-0.250	0.090	-0.380	101.850	-1.200	0.100																			1580035313.0	0.47	0.87
26/01/2020 10:41:54	26012020	260120	104154	101.850	12.418777	-57.245018	101.800	-0.100	-0.140	-0.550	101.850	-1.400	-0.100																			1580035314.0	0.30	0.56
26/01/2020 10:41:55	26012020	260120	104155	101.840	12.418777	-57.245018	101.780	0.100	-0.370	-0.550	101.830	-1.600	-0.200																			1580035315.0	0.17	0.31
26/01/2020 10:41:56	26012020	260120	104156	101.820	12.418777	-57.245017	101.750	0.220	-0.480	-0.390	101.810	-1.800	-0.100																			1580035316.0	0.14	0.26
26/01/2020 10:41:57	26012020	260120	104157	101.780	12.418775	-57.245017	101.710	0.200	-0.440	-0.090	101.770	-1.800	0.200																			1580035317.0	0.11	0.20
26/01/2020 10:41:58	26012020	260120	104158	101.750	12.418775	-57.245018	101.740	0.090	-0.210	0.270	101.760	-1.700	0.500																			1580035318.0	0.19	0.35
26/01/2020 10:41:59	26012020	260120	104159	101.830	12.418773	-57.245018	101.870	-0.060	0.140	0.620	101.850	-1.400	0.900																			1580035319.0	0.37	0.69
26/01/2020 10:42:00	26012020	260120	104200	101.950	12.418772	-57.245020	101.990	-0.160	0.340	0.950	101.980	-1.100	1.200	1014.50	25.60	25.60	18.80	18.90	56.00	66.00	66.00	376.00	25.20	354.00	7.10	95.00	6.90	3748	3350.00	27.40	27.40	1580035320.0	0.49	0.91
26/01/2020 10:42:01	26012020	260120	104201	102.040	12.418772	-57.245022	102.070	-0.210	0.220	1.240	102.060	-1.100	1.500																			1580035321.0	0.38	0.70
26/01/2020 10:42:02	26012020	260120	104202	102.110	12.418770	-57.245022	102.130	-0.230	-0.110	1.430	102.120	-1.300	1.700																			1580035322.0	0.38	0.70
26/01/2020 10:42:03	26012020	260120	104203	102.160	12.418767	-57.245022	102.190	-0.180	-0.400	1.460	102.170	-1.700	1.800																			1580035323.0	0.43	0.80
26/01/2020 10:42:04	26012020	260120	104204	102.210	12.418767	-57.245020	102.190	-0.070	-0.510	1.310	102.210	-1.800	1.800																			1580035324.0	0.29	0.54
26/01/2020 10:42:05	26012020	260120	104205	102.200	12.418767	-57.245020	102.100	0.110	-0.420	1.030	102.180	-1.800	1.500																			1580035325.0	0.03	0.06
26/01/2020 10:42:06	26012020	260120	104206	102.060	12.418768	-57.245020	101.970	0.310	-0.220	0.570	102.040	-1.700	1.200																			1580035326.0	0.33	0.61
26/01/2020 10:42:07	26012020	260120	104207	101.980	12.418772	-57.245020	101.950	0.430	-0.010	-0.090	101.980	-1.500	0.600																			1580035327.0	0.79	1.46
26/01/2020 10:42:08	26012020	260120	104208	102.040	12.418777	-57.245020	102.070	0.380	0.150	-0.760	102.070	-1.300	-0.100																			1580035328.0	1.12	2.07
26/01/2020 10:42:09	26012020	260120	104209	102.200	12.418782	-57.245020	102.180	0.190	0.150	-1.120	102.220	-1.200	-0.600																			1580035329.0	1.02	1.89
26/01/2020 10:42:10	26012020	260120	104210	102.270	12.418783	-57.245018	102.210	-0.070	0.050	-1.100	102.280	-1.300	-0.800																			1580035330.0	0.52	0.96
26/01/2020 10:42:11	26012020	260120	104211	102.300	12.418783	-57.245018	102.260	-0.300	-0.080	-0.720	102.310	-1.400	-0.500																			1580035331.0	0.08	0.15
26/01/2020 10:42:12	26012020	260120	104212	102.350	12.418780	-57.245018	102.310	-0.380	-0.190	0.000	102.360	-1.500	0.000																			1580035332.0	0.67	1.24
26/01/2020 10:42:13	26012020	260120	104213	102.350	12.418775	-57.245020	102.260	-0.300	-0.270	0.940	102.330	-1.600	0.900																			1580035333.0	1.19	2.20
26/01/2020 10:42:14	26012020	260120	104214	102.230	12.418768	-57.245022	102.140	-0.180	-0.260	1.760	102.200	-1.600	1.800																			1580035334.0	1.38	2.56
26/01/2020 10:42:15	26012020	260120	104215	102.100	12.418763	-57.245023	102.040	-0.100	-0.110	2.180	102.080	-1.500	2.400																			1580035335.0	1.13	2.09
26/01/2020 10:42:16	26012020	260120	104216	102.020	12.418762	-57.245025	101.980	-0.010	0.050	2.040	102.010	-1.400	2.500																			1580035336.0	0.55	1.02
26/01/2020 10:42:17	26012020	260120	104217	102.020	12.418763	-57.245025	102.040	0.130	0.020	1.400	102.040	-1.300	2.100																			1580035337.0	0.34	0.63
26/01/2020 10:42:18	26012020	260120	104218	102.140	12.418767	-57.245023	102.160	0.270	-0.210	0.560	102.170	-1.500	1.300																			1580035338.0	0.94	1.74
26/01/2020 10:42:19	26012020	260120	104219	102.250	12.418772	-57.245022	102.240	0.290	-0.380	-0.210	102.270	-1.700	0.500																			1580035339.0	1.16	2.15
26/01/2020 10:42:20	26012020	260120	104220	102.310	12.418777	-57.245020	102.210	0.170	-0.330	-0.740	102.310	-1.700	-0.200																			1580035340.0	1.01	1.87
26/01/2020 10:42:21	26012020	260120	104221	102.280	12.418780	-57.245020	102.100	-0.000	-0.190	-0.960	102.260	-1.600	-0.500																			1580035341.0	0.62	1.15
26/01/2020 10:42:22	26012020	260120	104222	102.110	12.418780	-57.245020	101.920	-0.120	-0.070	-0.750	102.070	-1.500	-0.500																			1580035342.0	0.09	0.17
26/01/2020 10:42:23	26012020	260120	104223	101.900	12.418777	-57.245022	101.730	-0.130	0.030	-0.280	101.860	-1.400	-0.100																			1580035343.0	0.50	0.93
26/01/2020 10:42:24	26012020	260120	104224	101.760	12.418773	-57.245022	101.700	-0.050	0.100	0.150	101.750	-1.300	0.400																			1580035344.0	0.67	1.24
26/01/2020 10:42:25	26012020	260120	104225	101.810	12.418772	-57.245023	101.850	0.040	0.110	0.450	101.840	-1.300	0.700																			1580035345.0	0.53	0.98
26/01/2020 10:42:26	26012020	260120	104226	101.980	12.418770	-57.245023	102.040	0.090	0.070	0.680	102.020	-1.300	1.000																			1580035346.0	0.34	0.63
26/01/2020 10:42:27	26012020	260120	104227	102.150	12.418770	-57.245023	102.180	0.100	-0.010	0.890	102.180	-1.300	1.200																			1580035347.0	0.26	0.48
26/01/2020 10:42:28	26012020	260120	104228	102.230	12.418768	-57.245025	102.170	0.070	-0.160	1.120	102.220	-1.400	1.400																			1580035348.0	0.24	0.44
26/01/2020 10:42:29	26012020	260120	104229	102.120	12.418767	-57.245025	101.990	0.050	-0.400	1.390	102.090	-1.700	1.700																			1580035349.0	0.25	0.46
26/01/2020 10:42:30	26012020	260120	104230	101.890	12.418765	-57.245025	101.750	0.010	-0.550	1.590	101.840	-1.900	1.900																			1580035350.0	0.36	0.67
26/01/2020 10:42:31	26012020	260120	104231	101.680	12.418765	-57.245025	101.610	-0.100	-0.420	1.610	101.650	-1.900	2.000																			1580035351.0	0.26	0.48
26/01/2020 10:42:32	26012020	260120	104232	101.600	12.418765	-57.245025	101.620	-0.240	-0.070	1.340	101.610	-1.600	1.900																			1580035352.0	0.19	0.35
26/01/2020 10:42:33	26012020	260120	104233	101.680	12.418765	-57.245027	101.750	-0.320	0.190	0.770	101.720	-1.300	1.400																			1580035353.0	0.37	0.69
26/01/2020 10:42:34	26012020	260120	104234	101.860	12.418767	-57.245027	101.900	-0.220	0.140	0.070	101.890	-1.200	0.700																			1580035354.0	0.40	0.74
26/01/2020 10:42:35	26012020	260120	104235	101.980	12.418770	-57.245027	101.940	0.050	-0.080	-0.520	101.990	-1.400	0.100																			1580035355.0	0.50	0.93
26/01/2020 10:42:36	26012020	260120	104236	102.000	12.418772	-57.245025	101.920	0.330	-0.160	-0.880	102.000	-1.500	-0.400																			1580035356.0	0.55	1.02
26/01/2020 10:42:37	26012020	260120	104237	101.990	12.418773	-57.245023	101.910	0.470	-0.070	-1.010	101.980	-1.500	-0.600																			1580035357.0	0.48	0.89
26/01/2020 10:42:38	26012020	260120	104238	102.000	12.418775	-57.245025	101.980	0.430	0.030	-0.900	102.020	-1.400	-0.600																			1580035358.0	0.50	0.93
26/01/2020 10:42:39	26012020	260120	104239	102.100	12.418777	-57.245025	102.090	0.230	-0.010	-0.450	102.120	-1.300	-0.300																			1580035359.0	0.28	0.52
26/01/2020 10:42:40	26012020	260120	104240	102.180	12.418775	-57.245027	102.140	-0.040	-0.180	0.360	102.180	-1.500	0.400																			1580035360.0	0.41	0.76
26/01/2020 10:42:41	26012020	260120	104241	102.170	12.418770	-57.245027	102.120	-0.310	-0.310	1.340	102.160	-1.600	1.300																			1580035361.0	1.02	1.89
26/01/2020 10:42:42	26012020	260120	104242	102.100	12.418763	-57.245028	102.030	-0.480	-0.300	2.280	102.070	-1.700	2.300																			1580035362.0	1.41	2.61
26/01/2020 10:42:43	26012020	260120	104243	102.000	12.418757	-57.245030	101.960	-0.470	-0.180	2.880	101.990	-1.600	3.100																			1580035363.0	1.46	2.70
26/01/2020 10:42:44	26012020	260120	104244	101.950	12.418753	-57.245032	101.980	-0.230	-0.060	2.900	101.950	-1.500	3.400																			1580035364.0	1.05	1.94
26/01/2020 10:42:45	26012020	260120	104245	102.000	12.418752	-57.245033	102.070	0.130	-0.030	2.250	102.020	-1.400	3.000																			1580035365.0	0.26	0.48
26/01/2020 10:42:46	26012020	260120	104246	102.150	12.418755	-57.245032	102.170	0.440	-0.120	1.180	102.180	-1.400	2.000																			1580035366.0	0.75	1.39
26/01/2020 10:42:47	26012020	260120	104247	102.240	12.418762	-57.245030	102.200	0.570	-0.280	0.050	102.240	-1.600	0.900																			1580035367.0	1.46	2.70
26/01/2020 10:42:48	26012020	260120	104248	102.270	12.418770	-57.245028	102.210	0.420	-0.340	-0.920	102.270	-1.700	-0.200																			1580035368.0	1.68	3.11
26/01/2020 10:42:49	26012020	260120	104249	102.330	12.418775	-57.245027	102.290	0.070	-0.160	-1.520	102.350	-1.600	-0.900																			1580035369.0	1.38	2.56
26/01/2020 10:42:50	26012020	260120	104250	102.400	12.418778	-57.245027	102.310	-0.310	0.150	-1.500	102.400	-1.400	-1.200																			1580035370.0	0.68	1.26
26/01/2020 10:42:51	26012020	260120	104251	102.380	12.418778	-57.245028	102.260	-0.550	0.340	-0.890	102.370	-1.100	-0.800																			1580035371.0	0.52	0.96
26/01/2020 10:42:52	26012020	260120	104252	102.300	12.418773	-57.245032	102.220	-0.530	0.240	0.010	102.280	-1.100	0.000																			1580035372.0	1.17	2.17
26/01/2020 10:42:53	26012020	260120	104253	102.280	12.418767	-57.245033	102.290	-0.270	-0.070	0.810	102.290	-1.300	0.900																			1580035373.0	1.40	2.59
26/01/2020 10:42:54	26012020	260120	104254	102.380	12.418762	-57.245033	102.420	0.110	-0.360	1.410	102.400	-1.600	1.600																			1580035374.0	1.13	2.09
26/01/2020 10:42:55	26012020	260120	104255	102.460	12.418758	-57.245033	102.520	0.380	-0.420	1.800	102.490	-1.800	2.000																			1580035375.0	0.65	1.20
26/01/2020 10:42:56	26012020	260120	104256	102.540	12.418757	-57.245033	102.520	0.410	-0.290	1.960	102.540	-1.700	2.300																			1580035376.0	0.23	0.43
26/01/2020 10:42:57	26012020	260120	104257	102.510	12.418758	-57.245035	102.400	0.270	-0.190	1.930	102.490	-1.600	2.300																			1580035377.0	0.31	0.57
26/01/2020 10:42:58	26012020	260120	104258	102.350	12.418760	-57.245035	102.270	0.090	-0.230	1.740	102.330	-1.600	2.200																			1580035378.0	0.33	0.61
26/01/2020 10:42:59	26012020	260120	104259	102.250	12.418762	-57.245035	102.200	-0.050	-0.330	1.470	102.240	-1.700	2.000																			1580035379.0	0.31	0.57
26/01/2020 10:43:00	26012020	260120	104300	102.190	12.418762	-57.245033	102.140	-0.170	-0.340	1.090	102.180	-1.700	1.600	1014.50	25.60	25.60	18.80	18.90	59.00	66.00	66.00	376.00	25.20	353.00	7.00	94.00	6.70	3919	3139.00	27.40	27.40	1580035380.0	0.28	0.52
26/01/2020 10:43:01	26012020	260120	104301	102.140	12.418762	-57.245032	102.070	-0.250	-0.120	0.570	102.120	-1.600	1.200																			1580035381.0	0.23	0.43
26/01/2020 10:43:02	26012020	260120	104302	102.080	12.418763	-57.245033	102.030	-0.270	0.270	0.060	102.070	-1.300	0.700																			1580035382.0	0.36	0.67
26/01/2020 10:43:03	26012020	260120	104303	102.090	12.418767	-57.245033	102.090	-0.220	0.590	-0.400	102.110	-0.900	0.200																			1580035383.0	0.57	1.06
26/01/2020 10:43:04	26012020	260120	104304	102.220	12.418768	-57.245035	102.230	-0.060	0.520	-0.760	102.250	-0.800	-0.200																			1580035384.0	0.60	1.11
26/01/2020 10:43:05	26012020	260120	104305	102.370	12.418772	-57.245035	102.360	0.170	0.010	-0.920	102.400	-1.100	-0.500																			1580035385.0	0.50	0.93
26/01/2020 10:43:06	26012020	260120	104306	102.460	12.418772	-57.245032	102.380	0.340	-0.590	-0.750	102.460	-1.700	-0.500																			1580035386.0	0.50	0.93
26/01/2020 10:43:07	26012020	260120	104307	102.400	12.418772	-57.245030	102.230	0.360	-0.920	-0.090	102.360	-2.200	-0.000																			1580035387.0	0.42	0.78
26/01/2020 10:43:08	26012020	260120	104308	102.160	12.418768	-57.245030	101.980	0.220	-0.830	0.930	102.100	-2.300	0.900																			1580035388.0	0.70	1.30
26/01/2020 10:43:09	26012020	260120	104309	101.940	12.418763	-57.245032	101.800	-0.030	-0.350	1.890	101.890	-1.900	1.900																			1580035389.0	1.04	1.93
26/01/2020 10:43:10	26012020	260120	104310	101.770	12.418760	-57.245035	101.790	-0.280	0.220	2.460	101.770	-1.400	2.700																			1580035390.0	1.02	1.89
26/01/2020 10:43:11	26012020	260120	104311	101.800	12.418757	-57.245037	101.890	-0.390	0.510	2.540	101.820	-0.900	2.900																			1580035391.0	0.69	1.28
26/01/2020 10:43:12	26012020	260120	104312	101.950	12.418757	-57.245038	102.030	-0.320	0.370	2.230	101.980	-0.900	2.800																			1580035392.0	0.19	0.35
26/01/2020 10:43:13	26012020	260120	104313	102.080	12.418757	-57.245037	102.100	-0.100	-0.060	1.670	102.090	-1.200	2.300																			1580035393.0	0.35	0.65
26/01/2020 10:43:14	26012020	260120	104314	102.100	12.418758	-57.245033	102.070	0.140	-0.400	0.970	102.100	-1.700	1.700																			1580035394.0	0.71	1.31
26/01/2020 10:43:15	26012020	260120	104315	102.080	12.418762	-57.245030	102.060	0.230	-0.380	0.140	102.090	-1.800	0.900																			1580035395.0	0.91	1.69
26/01/2020 10:43:16	26012020	260120	104316	102.140	12.418768	-57.245030	102.130	0.160	-0.050	-0.600	102.160	-1.600	0.100																			1580035396.0	1.12	2.07
26/01/2020 10:43:17	26012020	260120	104317	102.220	12.418773	-57.245032	102.180	0.040	0.190	-1.000	102.230	-1.200	-0.500																			1580035397.0	1.07	1.98
26/01/2020 10:43:18	26012020	260120	104318	102.240	12.418775	-57.245032	102.150	-0.030	0.100	-0.980	102.230	-1.200	-0.600																			1580035398.0	0.59	1.09
26/01/2020 10:43:19	26012020	260120	104319	102.190	12.418775	-57.245032	102.090	-0.030	-0.260	-0.640	102.180	-1.500	-0.400																			1580035399.0	0.12	0.22
26/01/2020 10:43:20	26012020	260120	104320	102.140	12.418773	-57.245030	102.060	-0.010	-0.550	-0.070	102.120	-1.800	0.100																			1580035400.0	0.53	0.98
26/01/2020 10:43:21	26012020	260120	104321	102.080	12.418770	-57.245030	102.010	0.030	-0.560	0.690	102.070	-2.000	0.700																			1580035401.0	0.69	1.28
26/01/2020 10:43:22	26012020	260120	104322	102.000	12.418767	-57.245030	101.950	0.050	-0.320	1.490	101.990	-1.800	1.600																			1580035402.0	0.79	1.46
26/01/2020 10:43:23	26012020	260120	104323	101.950	12.418763	-57.245032	101.970	0.030	0.020	2.050	101.950	-1.500	2.200																			1580035403.0	0.80	1.48
26/01/2020 10:43:24	26012020	260120	104324	102.020	12.418760	-57.245033	102.070	-0.050	0.310	2.210	102.040	-1.200	2.600																			1580035404.0	0.57	1.06
26/01/2020 10:43:25	26012020	260120	104325	102.150	12.418760	-57.245033	102.200	-0.140	0.380	2.000	102.170	-1.000	2.500																			1580035405.0	0.21	0.39
26/01/2020 10:43:26	26012020	260120	104326	102.290	12.418762	-57.245033	102.340	-0.140	0.200	1.490	102.330	-1.100	2.100																			1580035406.0	0.29	0.54
26/01/2020 10:43:27	26012020	260120	104327	102.440	12.418763	-57.245032	102.430	-0.030	-0.150	0.840	102.460	-1.400	1.500																			1580035407.0	0.65	1.20
26/01/2020 10:43:28	26012020	260120	104328	102.500	12.418767	-57.245030	102.430	0.150	-0.530	0.260	102.500	-1.800	0.900																			1580035408.0	0.82	1.52
26/01/2020 10:43:29	26012020	260120	104329	102.450	12.418770	-57.245027	102.310	0.250	-0.700	-0.100	102.420	-2.000	0.400																			1580035409.0	0.78	1.44
26/01/2020 10:43:30	26012020	260120	104330	102.300	12.418772	-57.245027	102.160	0.150	-0.450	-0.260	102.270	-2.000	0.200																			1580035410.0	0.52	0.96
26/01/2020 10:43:31	26012020	260120	104331	102.200	12.418773	-57.245027	102.150	-0.110	0.170	-0.350	102.200	-1.500	0.100																			1580035411.0	0.38	0.70
26/01/2020 10:43:32	26012020	260120	104332	102.260	12.418775	-57.245030	102.300	-0.330	0.670	-0.380	102.290	-0.900	0.000																			1580035412.0	0.65	1.20
26/01/2020 10:43:33	26012020	260120	104333	102.420	12.418775	-57.245032	102.440	-0.300	0.510	-0.180	102.450	-0.700	0.100																			1580035413.0	0.42	0.78
26/01/2020 10:43:34	26012020	260120	104334	102.500	12.418773	-57.245030	102.440	-0.030	-0.240	0.260	102.490	-1.300	0.500																			1580035414.0	0.41	0.76
26/01/2020 10:43:35	26012020	260120	104335	102.450	12.418770	-57.245027	102.370	0.250	-0.910	0.740	102.440	-2.100	0.900																			1580035415.0	0.95	1.76
26/01/2020 10:43:36	26012020	260120	104336	102.370	12.418768	-57.245025	102.320	0.340	-0.980	1.190	102.360	-2.400	1.400																			1580035416.0	0.78	1.44
26/01/2020 10:43:37	26012020	260120	104337	102.320	12.418765	-57.245025	102.280	0.210	-0.500	1.590	102.310	-2.100	1.800																			1580035417.0	0.48	0.89
26/01/2020 10:43:38	26012020	260120	104338	102.270	12.418763	-57.245028	102.230	-0.010	0.120	1.780	102.260	-1.500	2.100																			1580035418.0	0.58	1.07
26/01/2020 10:43:39	26012020	260120	104339	102.220	12.418763	-57.245030	102.190	-0.170	0.500	1.620	102.220	-1.000	2.100																			1580035419.0	0.41	0.76
26/01/2020 10:43:40	26012020	260120	104340	102.220	12.418765	-57.245030	102.230	-0.210	0.560	1.120	102.230	-0.800	1.800																			1580035420.0	0.40	0.74
26/01/2020 10:43:41	26012020	260120	104341	102.300	12.418768	-57.245028	102.310	-0.130	0.340	0.430	102.320	-0.900	1.100																			1580035421.0	0.74	1.37
26/01/2020 10:43:42	26012020	260120	104342	102.400	12.418773	-57.245027	102.410	0.010	0.000	-0.210	102.430	-1.200	0.400																			1580035422.0	0.91	1.69
26/01/2020 10:43:43	26012020	260120	104343	102.520	12.418777	-57.245025	102.520	0.130	-0.240	-0.640	102.550	-1.500	-0.100																			1580035423.0	0.84	1.56
26/01/2020 10:43:44	26012020	260120	104344	102.630	12.418778	-57.245023	102.570	0.170	-0.350	-0.680	102.630	-1.700	-0.300																			1580035424.0	0.51	0.94
26/01/2020 10:43:45	26012020	260120	104345	102.610	12.418778	-57.245023	102.480	0.130	-0.440	-0.380	102.590	-1.800	-0.100																			1580035425.0	0.05	0.09
26/01/2020 10:43:46	26012020	260120	104346	102.480	12.418777	-57.245025	102.300	0.040	-0.540	0.190	102.440	-1.900	0.300																			1580035426.0	0.36	0.67
26/01/2020 10:43:47	26012020	260120	104347	102.290	12.418773	-57.245025	102.030	-0.090	-0.560	1.000	102.230	-1.900	1.000																			1580035427.0	0.74	1.37
26/01/2020 10:43:48	26012020	260120	104348	101.950	12.418768	-57.245025	101.800	-0.200	-0.430	1.770	101.900	-1.900	1.900																			1580035428.0	1.03	1.91
26/01/2020 10:43:49	26012020	260120	104349	101.760	12.418765	-57.245025	101.700	-0.210	-0.170	2.130	101.740	-1.700	2.400																			1580035429.0	0.90	1.67
26/01/2020 10:43:50	26012020	260120	104350	101.720	12.418763	-57.245027	101.730	-0.130	0.160	1.980	101.730	-1.400	2.500																			1580035430.0	0.40	0.74
26/01/2020 10:43:51	26012020	260120	104351	101.810	12.418763	-57.245027	101.860	-0.000	0.430	1.410	101.840	-1.000	2.100																			1580035431.0	0.27	0.50
26/01/2020 10:43:52	26012020	260120	104352	102.000	12.418768	-57.245025	102.070	0.100	0.510	0.590	102.040	-0.900	1.300																			1580035432.0	0.84	1.56
26/01/2020 10:43:53	26012020	260120	104353	102.230	12.418773	-57.245025	102.260	0.170	0.360	-0.200	102.280	-0.900	0.500																			1580035433.0	1.14	2.11
26/01/2020 10:43:54	26012020	260120	104354	102.400	12.418778	-57.245023	102.360	0.210	0.050	-0.740	102.420	-1.200	-0.200																			1580035434.0	1.07	1.98
26/01/2020 10:43:55	26012020	260120	104355	102.440	12.418782	-57.245022	102.310	0.210	-0.350	-0.860	102.430	-1.600	-0.500																			1580035435.0	0.72	1.33
26/01/2020 10:43:56	26012020	260120	104356	102.320	12.418782	-57.245020	102.120	0.170	-0.610	-0.490	102.270	-1.900	-0.300																			1580035436.0	0.22	0.41
26/01/2020 10:43:57	26012020	260120	104357	102.070	12.418780	-57.245020	101.880	0.070	-0.630	0.150	102.010	-2.000	0.300																			1580035437.0	0.40	0.74
26/01/2020 10:43:58	26012020	260120	104358	101.840	12.418777	-57.245022	101.720	-0.080	-0.470	0.840	101.810	-1.900	0.900																			1580035438.0	0.66	1.22
26/01/2020 10:43:59	26012020	260120	104359	101.730	12.418773	-57.245022	101.620	-0.210	-0.250	1.430	101.710	-1.700	1.600																			1580035439.0	0.80	1.48
26/01/2020 10:44:00	26012020	260120	104400	101.620	12.418770	-57.245023	101.590	-0.270	-0.050	1.780	101.620	-1.500	2.000	1014.50	25.60	25.70	19.20	19.20	64.00	67.00	67.00	376.00	25.20	356.00	7.00	98.00	6.80	4092	3154.00	27.40	27.40	1580035440.0	0.76	1.41
26/01/2020 10:44:01	26012020	260120	104401	101.630	12.418767	-57.245023	101.680	-0.200	0.080	1.820	101.650	-1.300	2.200																			1580035441.0	0.52	0.96
26/01/2020 10:44:02	26012020	260120	104402	101.780	12.418767	-57.245023	101.830	-0.050	0.050	1.530	101.810	-1.300	2.100																			1580035442.0	0.18	0.33
26/01/2020 10:44:03	26012020	260120	104403	101.920	12.418768	-57.245022	101.920	0.090	-0.030	0.970	101.940	-1.400	1.600																			1580035443.0	0.43	0.80
26/01/2020 10:44:04	26012020	260120	104404	101.980	12.418772	-57.245020	101.880	0.130	-0.050	0.400	101.970	-1.400	1.000																			1580035444.0	0.78	1.44
26/01/2020 10:44:05	26012020	260120	104405	101.900	12.418775	-57.245018	101.770	0.080	0.050	-0.000	101.880	-1.400	0.500																			1580035445.0	0.77	1.43
26/01/2020 10:44:06	26012020	260120	104406	101.820	12.418778	-57.245018	101.740	0.030	0.180	-0.340	101.810	-1.200	0.200																			1580035446.0	0.66	1.22
26/01/2020 10:44:07	26012020	260120	104407	101.850	12.418780	-57.245018	101.830	0.020	0.170	-0.610	101.880	-1.200	-0.100																			1580035447.0	0.62	1.15
26/01/2020 10:44:08	26012020	260120	104408	101.960	12.418783	-57.245018	101.940	0.020	-0.030	-0.620	101.980	-1.300	-0.300																			1580035448.0	0.44	0.81
26/01/2020 10:44:09	26012020	260120	104409	102.050	12.418783	-57.245018	101.990	-0.010	-0.280	-0.280	102.050	-1.600	-0.100																			1580035449.0	0.12	0.22
26/01/2020 10:44:10	26012020	260120	104410	102.050	12.418780	-57.245018	101.960	-0.060	-0.450	0.330	102.050	-1.800	0.400																			1580035450.0	0.52	0.96
26/01/2020 10:44:11	26012020	260120	104411	101.960	12.418777	-57.245018	101.840	-0.040	-0.530	1.080	101.940	-1.900	1.200																			1580035451.0	0.86	1.59
26/01/2020 10:44:12	26012020	260120	104412	101.820	12.418772	-57.245018	101.730	0.050	-0.510	1.670	101.790	-1.900	1.800																			1580035452.0	0.91	1.69
26/01/2020 10:44:13	26012020	260120	104413	101.750	12.418768	-57.245020	101.750	0.100	-0.270	1.940	101.750	-1.800	2.300																			1580035453.0	0.62	1.15
26/01/2020 10:44:14	26012020	260120	104414	101.810	12.418768	-57.245020	101.840	0.030	0.060	1.880	101.830	-1.400	2.300																			1580035454.0	0.29	0.54
26/01/2020 10:44:15	26012020	260120	104415	101.920	12.418768	-57.245022	101.930	-0.080	0.260	1.540	101.930	-1.200	2.100																			1580035455.0	0.25	0.46
26/01/2020 10:44:16	26012020	260120	104416	101.990	12.418770	-57.245022	101.970	-0.130	0.150	1.000	102.000	-1.100	1.600																			1580035456.0	0.38	0.70
26/01/2020 10:44:17	26012020	260120	104417	102.040	12.418773	-57.245020	101.950	-0.050	-0.150	0.410	102.030	-1.400	1.000																			1580035457.0	0.67	1.24
26/01/2020 10:44:18	26012020	260120	104418	101.970	12.418777	-57.245017	101.830	0.100	-0.360	-0.080	101.950	-1.700	0.500																			1580035458.0	0.84	1.56
26/01/2020 10:44:19	26012020	260120	104419	101.880	12.418780	-57.245015	101.820	0.220	-0.270	-0.510	101.880	-1.700	0.100																			1580035459.0	0.80	1.48
26/01/2020 10:44:20	26012020	260120	104420	101.970	12.418782	-57.245015	102.030	0.160	0.080	-0.810	102.020	-1.400	-0.300																			1580035460.0	0.66	1.22
26/01/2020 10:44:21	26012020	260120	104421	102.240	12.418785	-57.245017	102.340	-0.080	0.460	-0.820	102.310	-1.000	-0.500																			1580035461.0	0.55	1.02
26/01/2020 10:44:22	26012020	260120	104422	102.540	12.418785	-57.245018	102.600	-0.330	0.540	-0.450	102.590	-0.800	-0.200																			1580035462.0	0.51	0.94
26/01/2020 10:44:23	26012020	260120	104423	102.740	12.418783	-57.245020	102.720	-0.380	0.130	0.210	102.770	-1.000	0.300																			1580035463.0	0.58	1.07
26/01/2020 10:44:24	26012020	260120	104424	102.760	12.418778	-57.245020	102.610	-0.170	-0.590	1.110	102.730	-1.600	1.100																			1580035464.0	1.04	1.93
26/01/2020 10:44:25	26012020	260120	104425	102.540	12.418772	-57.245020	102.350	0.130	-1.150	2.080	102.480	-2.300	2.100																			1580035465.0	1.45	2.69
26/01/2020 10:44:26	26012020	260120	104426	102.250	12.418765	-57.245018	102.150	0.330	-1.090	2.760	102.210	-2.600	2.900																			1580035466.0	1.29	2.39
26/01/2020 10:44:27	26012020	260120	104427	102.120	12.418763	-57.245020	102.150	0.310	-0.450	2.790	102.120	-2.100	3.300																			1580035467.0	0.67	1.24
26/01/2020 10:44:28	26012020	260120	104428	102.220	12.418765	-57.245023	102.300	0.170	0.300	2.110	102.260	-1.300	2.800																			1580035468.0	0.65	1.20
26/01/2020 10:44:29	26012020	260120	104429	102.420	12.418770	-57.245025	102.470	0.050	0.660	1.020	102.460	-0.800	1.900																			1580035469.0	1.21	2.24
26/01/2020 10:44:30	26012020	260120	104430	102.610	12.418777	-57.245023	102.630	-0.020	0.510	-0.140	102.650	-0.700	0.700																			1580035470.0	1.53	2.83
26/01/2020 10:44:31	26012020	260120	104431	102.770	12.418783	-57.245020	102.740	-0.090	0.070	-1.020	102.790	-1.100	-0.300																			1580035471.0	1.45	2.69
26/01/2020 10:44:32	26012020	260120	104432	102.860	12.418787	-57.245018	102.810	-0.180	-0.320	-1.420	102.880	-1.600	-0.900																			1580035472.0	0.98	1.81
26/01/2020 10:44:33	26012020	260120	104433	102.910	12.418787	-57.245017	102.850	-0.250	-0.400	-1.300	102.920	-1.800	-1.000																			1580035473.0	0.27	0.50
26/01/2020 10:44:34	26012020	260120	104434	102.940	12.418785	-57.245018	102.890	-0.240	-0.210	-0.850	102.940	-1.700	-0.700																			1580035474.0	0.50	0.93
26/01/2020 10:44:35	26012020	260120	104435	102.950	12.418782	-57.245020	102.930	-0.090	0.040	-0.290	102.950	-1.400	-0.100																			1580035475.0	0.85	1.57
26/01/2020 10:44:36	26012020	260120	104436	103.000	12.418780	-57.245023	103.000	0.130	0.120	0.310	103.010	-1.300	0.400																			1580035476.0	0.79	1.46
26/01/2020 10:44:37	26012020	260120	104437	103.040	12.418777	-57.245025	103.020	0.290	-0.080	1.000	103.050	-1.300	1.100																			1580035477.0	0.61	1.13
26/01/2020 10:44:38	26012020	260120	104438	103.010	12.418775	-57.245025	102.950	0.280	-0.390	1.650	102.990	-1.600	1.800																			1580035478.0	0.54	1.00
26/01/2020 10:44:39	26012020	260120	104439	102.900	12.418772	-57.245023	102.830	0.100	-0.510	2.080	102.880	-1.900	2.300																			1580035479.0	0.45	0.83
26/01/2020 10:44:40	26012020	260120	104440	102.800	12.418770	-57.245023	102.800	-0.130	-0.330	2.220	102.790	-1.800	2.600																			1580035480.0	0.31	0.57
26/01/2020 10:44:41	26012020	260120	104441	102.840	12.418770	-57.245025	102.900	-0.310	0.000	2.050	102.870	-1.500	2.500																			1580035481.0	0.39	0.72
26/01/2020 10:44:42	26012020	260120	104442	102.980	12.418768	-57.245027	103.010	-0.340	0.210	1.670	103.010	-1.200	2.200																			1580035482.0	0.38	0.70
26/01/2020 10:44:43	26012020	260120	104443	103.090	12.418768	-57.245028	103.060	-0.230	0.200	1.060	103.100	-1.100	1.700																			1580035483.0	0.13	0.24
26/01/2020 10:44:44	26012020	260120	104444	103.120	12.418772	-57.245027	103.030	0.020	-0.020	0.230	103.110	-1.300	1.000																			1580035484.0	0.49	0.91
26/01/2020 10:44:45	26012020	260120	104445	103.060	12.418775	-57.245025	102.920	0.310	-0.280	-0.570	103.040	-1.500	0.100																			1580035485.0	1.01	1.87
26/01/2020 10:44:46	26012020	260120	104446	102.960	12.418780	-57.245023	102.830	0.460	-0.390	-1.140	102.940	-1.700	-0.600																			1580035486.0	1.13	2.09
26/01/2020 10:44:47	26012020	260120	104447	102.920	12.418785	-57.245022	102.850	0.380	-0.240	-1.360	102.920	-1.700	-0.900																			1580035487.0	0.89	1.65
26/01/2020 10:44:48	26012020	260120	104448	102.960	12.418787	-57.245022	102.930	0.140	0.000	-1.150	102.980	-1.400	-0.900																			1580035488.0	0.50	0.93
26/01/2020 10:44:49	26012020	260120	104449	103.020	12.418787	-57.245023	102.990	-0.130	0.100	-0.500	103.030	-1.300	-0.400																			1580035489.0	0.36	0.67
26/01/2020 10:44:50	26012020	260120	104450	103.050	12.418782	-57.245025	102.990	-0.290	0.010	0.430	103.040	-1.300	0.400																			1580035490.0	0.95	1.76
26/01/2020 10:44:51	26012020	260120	104451	103.010	12.418775	-57.245027	102.890	-0.300	-0.160	1.460	102.990	-1.400	1.400																			1580035491.0	1.35	2.50
26/01/2020 10:44:52	26012020	260120	104452	102.810	12.418770	-57.245028	102.700	-0.200	-0.280	2.380	102.770	-1.600	2.400																			1580035492.0	1.38	2.56
26/01/2020 10:44:53	26012020	260120	104453	102.620	12.418763	-57.245028	102.590	-0.120	-0.250	2.920	102.600	-1.600	3.100																			1580035493.0	1.13	2.09
26/01/2020 10:44:54	26012020	260120	104454	102.570	12.418762	-57.245030	102.610	-0.060	-0.120	2.950	102.590	-1.500	3.400																			1580035494.0	0.72	1.33
26/01/2020 10:44:55	26012020	260120	104455	102.630	12.418760	-57.245032	102.640	0.030	-0.050	2.490	102.630	-1.400	3.100																			1580035495.0	0.25	0.46
26/01/2020 10:44:56	26012020	260120	104456	102.650	12.418763	-57.245032	102.590	0.150	-0.100	1.600	102.640	-1.400	2.400																			1580035496.0	0.50	0.93
26/01/2020 10:44:57	26012020	260120	104457	102.610	12.418767	-57.245030	102.530	0.220	-0.120	0.470	102.600	-1.500	1.300																			1580035497.0	1.04	1.93
26/01/2020 10:44:58	26012020	260120	104458	102.580	12.418773	-57.245028	102.490	0.200	0.010	-0.610	102.570	-1.400	0.200																			1580035498.0	1.33	2.46
26/01/2020 10:44:59	26012020	260120	104459	102.550	12.418780	-57.245028	102.420	0.110	0.130	-1.370	102.540	-1.300	-0.700																			1580035499.0	1.28	2.37
26/01/2020 10:45:00	26012020	260120	104500	102.500	12.418783	-57.245028	102.390	0.040	0.070	-1.760	102.490	-1.200	-1.200	1014.50	25.60	25.70	19.00	19.10	69.00	67.00	67.00	376.00	25.30	354.00	7.60	96.00	7.30	4270	3244.00	27.40	27.40	1580035500.0	0.95	1.76
26/01/2020 10:45:01	26012020	260120	104501	102.510	12.418787	-57.245028	102.440	0.020	-0.190	-1.760	102.520	-1.400	-1.400																			1580035501.0	0.53	0.98
26/01/2020 10:45:02	26012020	260120	104502	102.540	12.418787	-57.245028	102.420	0.030	-0.520	-1.180	102.530	-1.800	-1.100																			1580035502.0	0.17	0.31
26/01/2020 10:45:03	26012020	260120	104503	102.420	12.418782	-57.245028	102.230	-0.030	-0.650	-0.040	102.370	-2.000	-0.200																			1580035503.0	0.87	1.61
26/01/2020 10:45:04	26012020	260120	104504	102.140	12.418775	-57.245028	101.970	-0.190	-0.400	1.320	102.090	-1.900	1.200																			1580035504.0	1.52	2.82
26/01/2020 10:45:05	26012020	260120	104505	101.880	12.418767	-57.245032	101.810	-0.350	0.020	2.470	101.840	-1.500	2.400																			1580035505.0	1.82	3.37
26/01/2020 10:45:06	26012020	260120	104506	101.780	12.418760	-57.245035	101.830	-0.330	0.260	3.050	101.790	-1.200	3.300																			1580035506.0	1.59	2.94
26/01/2020 10:45:07	26012020	260120	104507	101.870	12.418757	-57.245037	101.940	-0.090	0.240	2.990	101.890	-1.100	3.500																			1580035507.0	0.86	1.59
26/01/2020 10:45:08	26012020	260120	104508	101.990	12.418757	-57.245037	102.020	0.180	0.170	2.420	102.000	-1.200	3.100																			1580035508.0	0.09	0.17
26/01/2020 10:45:09	26012020	260120	104509	102.060	12.418760	-57.245035	102.030	0.280	0.140	1.510	102.060	-1.200	2.300																			1580035509.0	0.73	1.35
26/01/2020 10:45:10	26012020	260120	104510	102.080	12.418765	-57.245035	102.010	0.210	0.050	0.490	102.080	-1.300	1.300																			1580035510.0	1.21	2.24
26/01/2020 10:45:11	26012020	260120	104511	102.090	12.418772	-57.245033	102.000	0.090	-0.140	-0.430	102.090	-1.400	0.300																			1580035511.0	1.29	2.39
26/01/2020 10:45:12	26012020	260120	104512	102.090	12.418777	-57.245033	101.990	0.040	-0.350	-1.030	102.090	-1.600	-0.400																			1580035512.0	1.08	2.00
26/01/2020 10:45:13	26012020	260120	104513	102.080	12.418778	-57.245032	101.940	0.020	-0.560	-1.130	102.070	-1.800	-0.800																			1580035513.0	0.60	1.11
26/01/2020 10:45:14	26012020	260120	104514	101.980	12.418778	-57.245032	101.810	-0.050	-0.660	-0.710	101.940	-2.000	-0.500																			1580035514.0	0.12	0.22
26/01/2020 10:45:15	26012020	260120	104515	101.830	12.418775	-57.245033	101.600	-0.160	-0.550	0.080	101.790	-2.000	0.100																			1580035515.0	0.74	1.37
26/01/2020 10:45:16	26012020	260120	104516	101.570	12.418770	-57.245033	101.460	-0.190	-0.270	0.900	101.540	-1.800	1.000																			1580035516.0	1.08	2.00
26/01/2020 10:45:17	26012020	260120	104517	101.480	12.418765	-57.245035	101.450	-0.110	0.120	1.530	101.480	-1.400	1.700																			1580035517.0	1.05	1.94
26/01/2020 10:45:18	26012020	260120	104518	101.520	12.418762	-57.245037	101.540	0.030	0.460	1.910	101.530	-1.000	2.200																			1580035518.0	0.84	1.56
26/01/2020 10:45:19	26012020	260120	104519	101.620	12.418760	-57.245038	101.680	0.180	0.540	1.930	101.650	-0.800	2.400																			1580035519.0	0.40	0.74
26/01/2020 10:45:20	26012020	260120	104520	101.810	12.418762	-57.245038	101.920	0.270	0.330	1.540	101.860	-0.900	2.100																			1580035520.0	0.19	0.35
26/01/2020 10:45:21	26012020	260120	104521	102.120	12.418763	-57.245037	102.230	0.230	0.010	0.950	102.180	-1.200	1.600																			1580035521.0	0.63	1.17
26/01/2020 10:45:22	26012020	260120	104522	102.400	12.418767	-57.245037	102.380	0.060	-0.270	0.560	102.430	-1.500	1.100																			1580035522.0	0.72	1.33
26/01/2020 10:45:23	26012020	260120	104523	102.420	12.418768	-57.245037	102.240	-0.160	-0.480	0.550	102.380	-1.800	0.900																			1580035523.0	0.40	0.74
26/01/2020 10:45:24	26012020	260120	104524	102.170	12.418768	-57.245037	101.930	-0.310	-0.670	0.750	102.100	-1.900	1.000																			1580035524.0	0.12	0.22
26/01/2020 10:45:25	26012020	260120	104525	101.840	12.418767	-57.245037	101.640	-0.320	-0.760	0.970	101.780	-2.100	1.300																			1580035525.0	0.43	0.80
26/01/2020 10:45:26	26012020	260120	104526	101.600	12.418763	-57.245037	101.500	-0.210	-0.590	1.090	101.570	-2.000	1.400																			1580035526.0	0.55	1.02
26/01/2020 10:45:27	26012020	260120	104527	101.540	12.418762	-57.245037	101.590	-0.070	-0.070	0.940	101.550	-1.700	1.400																			1580035527.0	0.37	0.69
26/01/2020 10:45:28	26012020	260120	104528	101.770	12.418763	-57.245038	101.910	0.020	0.560	0.470	101.840	-1.000	1.100																			1580035528.0	0.35	0.65
26/01/2020 10:45:29	26012020	260120	104529	102.130	12.418765	-57.245040	102.240	0.110	0.870	-0.120	102.190	-0.500	0.500																			1580035529.0	0.72	1.33
26/01/2020 10:45:30	26012020	260120	104530	102.430	12.418770	-57.245040	102.470	0.240	0.610	-0.570	102.480	-0.600	-0.000																			1580035530.0	0.92	1.70
26/01/2020 10:45:31	26012020	260120	104531	102.610	12.418773	-57.245038	102.550	0.360	-0.090	-0.600	102.620	-1.100	-0.300																			1580035531.0	0.83	1.54
26/01/2020 10:45:32	26012020	260120	104532	102.620	12.418773	-57.245037	102.510	0.360	-0.740	-0.150	102.610	-1.900	0.000																			1580035532.0	0.52	0.96
26/01/2020 10:45:33	26012020	260120	104533	102.510	12.418772	-57.245035	102.380	0.180	-0.990	0.680	102.490	-2.300	0.700																			1580035533.0	0.53	0.98
26/01/2020 10:45:34	26012020	260120	104534	102.340	12.418768	-57.245037	102.210	-0.150	-0.760	1.690	102.300	-2.200	1.700																			1580035534.0	0.98	1.81
26/01/2020 10:45:35	26012020	260120	104535	102.140	12.418762	-57.245038	102.060	-0.460	-0.250	2.520	102.110	-1.800	2.600																			1580035535.0	1.37	2.54
26/01/2020 10:45:36	26012020	260120	104536	102.030	12.418757	-57.245042	102.030	-0.560	0.190	2.850	102.030	-1.300	3.200																			1580035536.0	1.31	2.43
26/01/2020 10:45:37	26012020	260120	104537	102.070	12.418753	-57.245043	102.120	-0.390	0.340	2.600	102.100	-1.000	3.100																			1580035537.0	0.73	1.35
26/01/2020 10:45:38	26012020	260120	104538	102.180	12.418753	-57.245043	102.200	-0.030	0.210	1.920	102.200	-1.100	2.600																			1580035538.0	0.09	0.17
26/01/2020 10:45:39	26012020	260120	104539	102.260	12.418757	-57.245042	102.290	0.320	0.040	0.880	102.280	-1.200	1.700																			1580035539.0	0.84	1.56
26/01/2020 10:45:40	26012020	260120	104540	102.420	12.418763	-57.245038	102.420	0.460	-0.000	-0.280	102.450	-1.300	0.600																			1580035540.0	1.48	2.74
26/01/2020 10:45:41	26012020	260120	104541	102.550	12.418772	-57.245037	102.530	0.330	-0.020	-1.150	102.570	-1.300	-0.500																			1580035541.0	1.69	3.13
26/01/2020 10:45:42	26012020	260120	104542	102.660	12.418777	-57.245037	102.570	0.060	-0.110	-1.440	102.670	-1.400	-1.000																			1580035542.0	1.18	2.19
26/01/2020 10:45:43	26012020	260120	104543	102.650	12.418777	-57.245037	102.480	-0.130	-0.310	-1.020	102.630	-1.600	-0.900																			1580035543.0	0.20	0.37
26/01/2020 10:45:44	26012020	260120	104544	102.480	12.418775	-57.245037	102.270	-0.120	-0.490	-0.130	102.430	-1.800	-0.100																			1580035544.0	0.68	1.26
26/01/2020 10:45:45	26012020	260120	104545	102.220	12.418770	-57.245037	102.050	0.020	-0.510	0.910	102.170	-1.900	0.900																			1580035545.0	1.11	2.06
26/01/2020 10:45:46	26012020	260120	104546	102.040	12.418763	-57.245038	101.970	0.110	-0.310	1.820	102.010	-1.800	1.900																			1580035546.0	1.18	2.19
26/01/2020 10:45:47	26012020	260120	104547	101.980	12.418760	-57.245038	101.970	0.080	0.010	2.420	101.980	-1.500	2.600																			1580035547.0	0.98	1.81
26/01/2020 10:45:48	26012020	260120	104548	102.030	12.418757	-57.245040	102.090	-0.030	0.210	2.570	102.050	-1.200	2.900																			1580035548.0	0.52	0.96
26/01/2020 10:45:49	26012020	260120	104549	102.210	12.418757	-57.245040	102.290	-0.160	0.270	2.340	102.250	-1.100	2.900																			1580035549.0	0.07	0.13
26/01/2020 10:45:50	26012020	260120	104550	102.380	12.418758	-57.245040	102.360	-0.220	0.170	1.920	102.390	-1.100	2.500																			1580035550.0	0.20	0.37
26/01/2020 10:45:51	26012020	260120	104551	102.390	12.418760	-57.245040	102.310	-0.190	-0.030	1.370	102.380	-1.300	2.000																			1580035551.0	0.37	0.69
26/01/2020 10:45:52	26012020	260120	104552	102.330	12.418762	-57.245038	102.230	-0.110	-0.290	0.770	102.320	-1.500	1.400																			1580035552.0	0.53	0.98
26/01/2020 10:45:53	26012020	260120	104553	102.260	12.418763	-57.245037	102.150	0.010	-0.460	0.230	102.240	-1.800	0.800																			1580035553.0	0.66	1.22
26/01/2020 10:45:54	26012020	260120	104554	102.180	12.418767	-57.245035	102.070	0.130	-0.480	-0.230	102.170	-1.800	0.400																			1580035554.0	0.73	1.35
26/01/2020 10:45:55	26012020	260120	104555	102.150	12.418770	-57.245033	102.060	0.200	-0.350	-0.570	102.150	-1.800	-0.100																			1580035555.0	0.70	1.30
26/01/2020 10:45:56	26012020	260120	104556	102.150	12.418772	-57.245033	102.030	0.210	-0.110	-0.610	102.140	-1.600	-0.200																			1580035556.0	0.46	0.85
26/01/2020 10:45:57	26012020	260120	104557	102.100	12.418773	-57.245033	102.010	0.130	0.170	-0.340	102.090	-1.300	-0.100																			1580035557.0	0.13	0.24
26/01/2020 10:45:58	26012020	260120	104558	102.130	12.418772	-57.245033	102.150	-0.040	0.350	0.140	102.150	-1.000	0.300																			1580035558.0	0.22	0.41
26/01/2020 10:45:59	26012020	260120	104559	102.290	12.418770	-57.245035	102.340	-0.190	0.320	0.740	102.330	-1.000	0.900																			1580035559.0	0.58	1.07
26/01/2020 10:46:00	26012020	260120	104600	102.450	12.418767	-57.245035	102.470	-0.170	0.080	1.330	102.480	-1.200	1.500	1014.50	25.60	25.60	18.80	18.90	75.00	66.00	66.00	376.00	25.30	351.00	7.60	93.00	7.30	4450	3287.00	27.40	27.40	1580035560.0	0.77	1.43
26/01/2020 10:46:01	26012020	260120	104601	102.510	12.418762	-57.245035	102.460	0.000	-0.270	1.840	102.500	-1.500	2.000																			1580035561.0	0.72	1.33
26/01/2020 10:46:02	26012020	260120	104602	102.430	12.418760	-57.245035	102.330	0.190	-0.620	2.250	102.400	-1.800	2.500																			1580035562.0	0.59	1.09
26/01/2020 10:46:03	26012020	260120	104603	102.320	12.418758	-57.245033	102.220	0.240	-0.740	2.430	102.290	-2.100	2.800																			1580035563.0	0.46	0.85
26/01/2020 10:46:04	26012020	260120	104604	102.200	12.418758	-57.245032	102.140	0.100	-0.480	2.320	102.190	-2.000	2.800																			1580035564.0	0.18	0.33
26/01/2020 10:46:05	26012020	260120	104605	102.160	12.418760	-57.245032	102.110	-0.150	-0.030	1.920	102.150	-1.600	2.500																			1580035565.0	0.33	0.61
26/01/2020 10:46:06	26012020	260120	104606	102.170	12.418762	-57.245033	102.160	-0.340	0.280	1.230	102.180	-1.200	1.900																			1580035566.0	0.54	1.00
26/01/2020 10:46:07	26012020	260120	104607	102.270	12.418765	-57.245032	102.260	-0.390	0.330	0.450	102.290	-1.000	1.200																			1580035567.0	0.61	1.13
26/01/2020 10:46:08	26012020	260120	104608	102.380	12.418767	-57.245032	102.340	-0.270	0.200	-0.200	102.390	-1.100	0.400																			1580035568.0	0.55	1.02
26/01/2020 10:46:09	26012020	260120	104609	102.450	12.418768	-57.245030	102.410	-0.020	0.030	-0.690	102.470	-1.300	-0.100																			1580035569.0	0.53	0.98
26/01/2020 10:46:10	26012020	260120	104610	102.530	12.418772	-57.245028	102.470	0.280	-0.110	-1.030	102.540	-1.400	-0.500																			1580035570.0	0.58	1.07
26/01/2020 10:46:11	26012020	260120	104611	102.570	12.418773	-57.245027	102.500	0.510	-0.210	-1.100	102.590	-1.500	-0.700																			1580035571.0	0.64	1.19
26/01/2020 10:46:12	26012020	260120	104612	102.600	12.418777	-57.245025	102.510	0.530	-0.280	-0.790	102.600	-1.600	-0.600																			1580035572.0	0.50	0.93
26/01/2020 10:46:13	26012020	260120	104613	102.560	12.418777	-57.245025	102.470	0.280	-0.310	-0.000	102.550	-1.600	0.000																			1580035573.0	0.07	0.13
26/01/2020 10:46:14	26012020	260120	104614	102.490	12.418773	-57.245027	102.420	-0.120	-0.270	1.120	102.470	-1.600	1.100																			1580035574.0	0.61	1.13
26/01/2020 10:46:15	26012020	260120	104615	102.440	12.418768	-57.245027	102.420	-0.450	-0.250	2.240	102.430	-1.600	2.200																			1580035575.0	1.23	2.28
26/01/2020 10:46:16	26012020	260120	104616	102.410	12.418762	-57.245028	102.360	-0.530	-0.280	3.110	102.390	-1.600	3.200																			1580035576.0	1.51	2.80
26/01/2020 10:46:17	26012020	260120	104617	102.320	12.418755	-57.245028	102.200	-0.380	-0.290	3.570	102.290	-1.600	3.800																			1580035577.0	1.39	2.57
26/01/2020 10:46:18	26012020	260120	104618	102.110	12.418750	-57.245028	102.060	-0.130	-0.180	3.410	102.090	-1.600	3.900																			1580035578.0	0.83	1.54
26/01/2020 10:46:19	26012020	260120	104619	102.040	12.418752	-57.245028	102.050	0.110	0.040	2.570	102.050	-1.400	3.400																			1580035579.0	0.20	0.37
26/01/2020 10:46:20	26012020	260120	104620	102.140	12.418757	-57.245027	102.190	0.230	0.240	1.170	102.170	-1.200	2.200																			1580035580.0	1.17	2.17
26/01/2020 10:46:21	26012020	260120	104621	102.350	12.418765	-57.245025	102.390	0.260	0.350	-0.430	102.400	-1.000	0.600																			1580035581.0	1.88	3.48
26/01/2020 10:46:22	26012020	260120	104622	102.580	12.418775	-57.245023	102.530	0.280	0.230	-1.740	102.610	-1.000	-0.900																			1580035582.0	2.09	3.87
26/01/2020 10:46:23	26012020	260120	104623	102.660	12.418782	-57.245020	102.510	0.310	-0.120	-2.340	102.650	-1.300	-1.800																			1580035583.0	1.69	3.13
26/01/2020 10:46:24	26012020	260120	104624	102.610	12.418785	-57.245018	102.450	0.250	-0.430	-2.150	102.600	-1.700	-1.900																			1580035584.0	0.87	1.61
26/01/2020 10:46:25	26012020	260120	104625	102.530	12.418785	-57.245017	102.360	0.070	-0.520	-1.230	102.500	-1.900	-1.300																			1580035585.0	0.27	0.50
26/01/2020 10:46:26	26012020	260120	104626	102.380	12.418780	-57.245018	102.220	-0.180	-0.430	0.170	102.340	-1.800	-0.000																			1580035586.0	1.06	1.96
26/01/2020 10:46:27	26012020	260120	104627	102.170	12.418773	-57.245020	102.020	-0.380	-0.310	1.630	102.130	-1.700	1.500																			1580035587.0	1.62	3.00
26/01/2020 10:46:28	26012020	260120	104628	101.960	12.418765	-57.245022	101.860	-0.460	-0.230	2.840	101.920	-1.600	2.800																			1580035588.0	1.80	3.33
26/01/2020 10:46:29	26012020	260120	104629	101.830	12.418757	-57.245023	101.770	-0.350	-0.150	3.610	101.810	-1.500	3.800																			1580035589.0	1.62	3.00
26/01/2020 10:46:30	26012020	260120	104630	101.760	12.418752	-57.245023	101.800	-0.110	-0.040	3.680	101.770	-1.400	4.100																			1580035590.0	1.01	1.87
26/01/2020 10:46:31	26012020	260120	104631	101.830	12.418752	-57.245023	101.950	0.130	0.090	2.980	101.850	-1.300	3.700																			1580035591.0	0.12	0.22
26/01/2020 10:46:32	26012020	260120	104632	102.060	12.418757	-57.245022	102.120	0.310	0.190	1.690	102.100	-1.200	2.700																			1580035592.0	1.03	1.91
26/01/2020 10:46:33	26012020	260120	104633	102.230	12.418765	-57.245020	102.180	0.420	0.130	0.260	102.240	-1.200	1.200																			1580035593.0	1.72	3.19
26/01/2020 10:46:34	26012020	260120	104634	102.270	12.418773	-57.245017	102.140	0.470	-0.030	-0.950	102.260	-1.300	-0.100																			1580035594.0	1.90	3.52
26/01/2020 10:46:35	26012020	260120	104635	102.210	12.418780	-57.245015	102.050	0.400	-0.140	-1.690	102.200	-1.500	-1.000																			1580035595.0	1.63	3.02
26/01/2020 10:46:36	26012020	260120	104636	102.130	12.418785	-57.245013	101.970	0.150	-0.110	-1.850	102.110	-1.500	-1.400																			1580035596.0	1.10	2.04
26/01/2020 10:46:37	26012020	260120	104637	102.080	12.418787	-57.245013	101.980	-0.220	-0.050	-1.470	102.080	-1.400	-1.300																			1580035597.0	0.39	0.72
26/01/2020 10:46:38	26012020	260120	104638	102.090	12.418785	-57.245015	102.010	-0.520	-0.180	-0.610	102.090	-1.400	-0.600																			1580035598.0	0.49	0.91
26/01/2020 10:46:39	26012020	260120	104639	102.040	12.418778	-57.245017	101.940	-0.600	-0.520	0.640	102.010	-1.700	0.500																			1580035599.0	1.29	2.39
26/01/2020 10:46:40	26012020	260120	104640	101.920	12.418770	-57.245017	101.840	-0.440	-0.720	1.920	101.890	-2.000	1.800																			1580035600.0	1.90	3.52
26/01/2020 10:46:41	26012020	260120	104641	101.800	12.418762	-57.245017	101.720	-0.190	-0.550	2.930	101.770	-2.000	3.000																			1580035601.0	1.84	3.41
26/01/2020 10:46:42	26012020	260120	104642	101.670	12.418755	-57.245018	101.620	0.020	-0.120	3.400	101.650	-1.700	3.700																			1580035602.0	1.31	2.43
26/01/2020 10:46:43	26012020	260120	104643	101.610	12.418753	-57.245018	101.660	0.170	0.350	3.050	101.620	-1.200	3.700																			1580035603.0	0.49	0.91
26/01/2020 10:46:44	26012020	260120	104644	101.770	12.418757	-57.245020	101.900	0.280	0.700	1.920	101.820	-0.800	2.800																			1580035604.0	0.69	1.28
26/01/2020 10:46:45	26012020	260120	104645	102.080	12.418765	-57.245020	102.170	0.390	0.660	0.470	102.140	-0.600	1.500																			1580035605.0	1.66	3.07
26/01/2020 10:46:46	26012020	260120	104646	102.330	12.418773	-57.245017	102.290	0.500	0.080	-0.820	102.350	-1.000	0.100																			1580035606.0	2.09	3.87
26/01/2020 10:46:47	26012020	260120	104647	102.400	12.418782	-57.245013	102.280	0.520	-0.690	-1.650	102.400	-1.700	-1.000																			1580035607.0	1.93	3.57
26/01/2020 10:46:48	26012020	260120	104648	102.350	12.418787	-57.245008	102.160	0.350	-1.080	-1.780	102.320	-2.300	-1.400																			1580035608.0	1.29	2.39
26/01/2020 10:46:49	26012020	260120	104649	102.170	12.418787	-57.245008	101.960	-0.020	-0.860	-1.170	102.130	-2.400	-1.100																			1580035609.0	0.21	0.39
26/01/2020 10:46:50	26012020	260120	104650	101.970	12.418783	-57.245010	101.850	-0.470	-0.240	-0.140	101.940	-1.900	-0.200																			1580035610.0	0.95	1.76
26/01/2020 10:46:51	26012020	260120	104651	101.920	12.418777	-57.245013	101.970	-0.780	0.340	0.860	101.940	-1.200	0.900																			1580035611.0	1.53	2.83
26/01/2020 10:46:52	26012020	260120	104652	102.140	12.418770	-57.245017	102.310	-0.810	0.510	1.550	102.210	-0.900	1.700																			1580035612.0	1.50	2.78
26/01/2020 10:46:53	26012020	260120	104653	102.430	12.418765	-57.245018	102.660	-0.560	0.310	1.960	102.500	-0.900	2.200																			1580035613.0	1.19	2.20
26/01/2020 10:46:54	26012020	260120	104654	102.790	12.418762	-57.245017	102.880	-0.170	-0.010	2.150	102.830	-1.200	2.500																			1580035614.0	0.89	1.65
26/01/2020 10:46:55	26012020	260120	104655	102.960	12.418758	-57.245017	103.000	0.220	-0.200	2.100	102.980	-1.500	2.500																			1580035615.0	0.52	0.96
26/01/2020 10:46:56	26012020	260120	104656	103.060	12.418758	-57.245017	103.070	0.510	-0.210	1.750	103.080	-1.600	2.300																			1580035616.0	0.05	0.09
26/01/2020 10:46:57	26012020	260120	104657	103.140	12.418762	-57.245017	103.140	0.680	-0.170	1.120	103.160	-1.500	1.800																			1580035617.0	0.63	1.17
26/01/2020 10:46:58	26012020	260120	104658	103.240	12.418767	-57.245017	103.250	0.710	-0.210	0.330	103.270	-1.500	1.100																			1580035618.0	1.13	2.09
26/01/2020 10:46:59	26012020	260120	104659	103.390	12.418773	-57.245015	103.370	0.570	-0.360	-0.310	103.410	-1.600	0.300																			1580035619.0	1.28	2.37
26/01/2020 10:47:00	26012020	260120	104700	103.490	12.418777	-57.245013	103.410	0.260	-0.490	-0.600	103.490	-1.800	-0.100	1014.50	25.60	25.70	18.70	18.80	78.00	65.00	66.00	375.00	25.30	348.00	7.60	90.00	7.10	4630	3243.00	27.40	27.40	1580035620.0	0.98	1.81
26/01/2020 10:47:01	26012020	260120	104701	103.500	12.418778	-57.245013	103.420	-0.160	-0.400	-0.470	103.500	-1.800	-0.200																			1580035621.0	0.37	0.69
26/01/2020 10:47:02	26012020	260120	104702	103.500	12.418777	-57.245013	103.440	-0.550	-0.050	0.040	103.500	-1.600	0.200																			1580035622.0	0.40	0.74
26/01/2020 10:47:03	26012020	260120	104703	103.510	12.418773	-57.245017	103.460	-0.720	0.310	0.750	103.510	-1.200	0.900																			1580035623.0	1.05	1.94
26/01/2020 10:47:04	26012020	260120	104704	103.540	12.418768	-57.245018	103.560	-0.630	0.370	1.320	103.560	-1.000	1.500																			1580035624.0	1.24	2.30
26/01/2020 10:47:05	26012020	260120	104705	103.680	12.418763	-57.245020	103.760	-0.340	0.150	1.600	103.720	-1.100	1.900																			1580035625.0	0.94	1.74
26/01/2020 10:47:06	26012020	260120	104706	103.890	12.418762	-57.245020	103.960	-0.030	-0.110	1.680	103.930	-1.400	2.100																			1580035626.0	0.58	1.07
26/01/2020 10:47:07	26012020	260120	104707	104.030	12.418760	-57.245020	104.060	0.180	-0.210	1.630	104.050	-1.500	2.100																			1580035627.0	0.27	0.50
26/01/2020 10:47:08	26012020	260120	104708	104.100	12.418760	-57.245020	104.010	0.250	-0.180	1.540	104.090	-1.600	2.000																			1580035628.0	0.12	0.22
26/01/2020 10:47:09	26012020	260120	104709	103.970	12.418760	-57.245022	103.810	0.270	-0.240	1.400	103.930	-1.500	1.900																			1580035629.0	0.22	0.41
26/01/2020 10:47:10	26012020	260120	104710	103.760	12.418762	-57.245020	103.630	0.340	-0.430	1.070	103.720	-1.700	1.600																			1580035630.0	0.32	0.59
26/01/2020 10:47:11	26012020	260120	104711	103.650	12.418765	-57.245018	103.610	0.450	-0.520	0.530	103.650	-1.900	1.200																			1580035631.0	0.72	1.33
26/01/2020 10:47:12	26012020	260120	104712	103.710	12.418768	-57.245017	103.700	0.460	-0.290	0.070	103.730	-1.800	0.700																			1580035632.0	0.83	1.54
26/01/2020 10:47:13	26012020	260120	104713	103.810	12.418772	-57.245017	103.770	0.250	0.130	-0.120	103.820	-1.400	0.300																			1580035633.0	0.58	1.07
26/01/2020 10:47:14	26012020	260120	104714	103.850	12.418772	-57.245018	103.800	-0.100	0.420	-0.050	103.870	-1.000	0.300																			1580035634.0	0.42	0.78
26/01/2020 10:47:15	26012020	260120	104715	103.870	12.418772	-57.245020	103.810	-0.410	0.330	0.210	103.870	-0.900	0.500																			1580035635.0	0.22	0.41
26/01/2020 10:47:16	26012020	260120	104716	103.870	12.418770	-57.245020	103.800	-0.490	-0.060	0.630	103.860	-1.200	0.900																			1580035636.0	0.43	0.80
26/01/2020 10:47:17	26012020	260120	104717	103.830	12.418767	-57.245018	103.770	-0.340	-0.430	1.150	103.820	-1.700	1.300																			1580035637.0	0.78	1.44
26/01/2020 10:47:18	26012020	260120	104718	103.790	12.418763	-57.245018	103.760	-0.170	-0.470	1.720	103.790	-1.800	1.900																			1580035638.0	0.91	1.69
26/01/2020 10:47:19	26012020	260120	104719	103.790	12.418758	-57.245020	103.810	-0.150	-0.250	2.120	103.800	-1.700	2.400																			1580035639.0	0.88	1.63
26/01/2020 10:47:20	26012020	260120	104720	103.850	12.418757	-57.245022	103.870	-0.220	0.020	2.150	103.870	-1.400	2.600																			1580035640.0	0.70	1.30
26/01/2020 10:47:21	26012020	260120	104721	103.900	12.418755	-57.245023	103.920	-0.190	0.120	1.820	103.910	-1.300	2.400																			1580035641.0	0.30	0.56
26/01/2020 10:47:22	26012020	260120	104722	103.970	12.418757	-57.245023	103.950	0.040	0.050	1.290	103.980	-1.300	1.900																			1580035642.0	0.30	0.56
26/01/2020 10:47:23	26012020	260120	104723	103.990	12.418760	-57.245022	103.930	0.370	-0.130	0.730	103.990	-1.400	1.400																			1580035643.0	0.56	1.04
26/01/2020 10:47:24	26012020	260120	104724	103.970	12.418762	-57.245020	103.870	0.610	-0.350	0.210	103.960	-1.600	0.800																			1580035644.0	0.72	1.33
26/01/2020 10:47:25	26012020	260120	104725	103.890	12.418765	-57.245018	103.780	0.650	-0.490	-0.210	103.880	-1.800	0.400																			1580035645.0	0.86	1.59
26/01/2020 10:47:26	26012020	260120	104726	103.850	12.418770	-57.245015	103.810	0.440	-0.370	-0.490	103.860	-1.800	0.000																			1580035646.0	0.89	1.65
26/01/2020 10:47:27	26012020	260120	104727	103.930	12.418773	-57.245015	103.920	0.080	-0.060	-0.480	103.950	-1.500	-0.100																			1580035647.0	0.67	1.24
26/01/2020 10:47:28	26012020	260120	104728	104.050	12.418773	-57.245017	104.030	-0.260	0.200	-0.060	104.070	-1.200	0.100																			1580035648.0	0.28	0.52
26/01/2020 10:47:29	26012020	260120	104729	104.130	12.418770	-57.245018	104.090	-0.470	0.300	0.690	104.130	-1.100	0.800																			1580035649.0	0.68	1.26
26/01/2020 10:47:30	26012020	260120	104730	104.140	12.418765	-57.245020	104.080	-0.530	0.170	1.570	104.130	-1.100	1.600																			1580035650.0	1.18	2.19
26/01/2020 10:47:31	26012020	260120	104731	104.070	12.418758	-57.245020	103.970	-0.450	-0.160	2.380	104.050	-1.400	2.500																			1580035651.0	1.37	2.54
26/01/2020 10:47:32	26012020	260120	104732	103.930	12.418753	-57.245020	103.850	-0.280	-0.450	2.890	103.900	-1.700	3.100																			1580035652.0	1.26	2.33
26/01/2020 10:47:33	26012020	260120	104733	103.840	12.418750	-57.245020	103.860	-0.110	-0.410	2.870	103.850	-1.800	3.300																			1580035653.0	0.79	1.46
26/01/2020 10:47:34	26012020	260120	104734	103.920	12.418748	-57.245022	103.970	0.000	-0.030	2.290	103.950	-1.600	3.000																			1580035654.0	0.20	0.37
26/01/2020 10:47:35	26012020	260120	104735	104.050	12.418753	-57.245023	104.040	0.090	0.310	1.390	104.060	-1.200	2.200																			1580035655.0	0.82	1.52
26/01/2020 10:47:36	26012020	260120	104736	104.090	12.418758	-57.245023	104.000	0.200	0.220	0.380	104.080	-1.000	1.200																			1580035656.0	1.19	2.20
26/01/2020 10:47:37	26012020	260120	104737	104.030	12.418763	-57.245022	103.900	0.350	-0.210	-0.520	104.010	-1.400	0.200																			1580035657.0	1.36	2.52
26/01/2020 10:47:38	26012020	260120	104738	103.940	12.418770	-57.245018	103.810	0.450	-0.680	-1.070	103.930	-1.900	-0.500																			1580035658.0	1.30	2.41
26/01/2020 10:47:39	26012020	260120	104739	103.870	12.418772	-57.245015	103.740	0.430	-0.830	-1.170	103.850	-2.200	-0.800																			1580035659.0	0.89	1.65
26/01/2020 10:47:40	26012020	260120	104740	103.810	12.418773	-57.245015	103.690	0.250	-0.530	-0.780	103.800	-2.000	-0.600																			1580035660.0	0.28	0.52
26/01/2020 10:47:41	26012020	260120	104741	103.740	12.418772	-57.245017	103.610	-0.040	-0.100	0.000	103.720	-1.600	0.100																			1580035661.0	0.40	0.74
26/01/2020 10:47:42	26012020	260120	104742	103.640	12.418768	-57.245018	103.510	-0.320	0.220	1.010	103.610	-1.200	1.000																			1580035662.0	1.00	1.85
26/01/2020 10:47:43	26012020	260120	104743	103.510	12.418762	-57.245020	103.410	-0.510	0.410	2.030	103.490	-1.000	2.000																			1580035663.0	1.41	2.61
26/01/2020 10:47:44	26012020	260120	104744	103.410	12.418755	-57.245022	103.390	-0.560	0.520	2.710	103.400	-0.900	2.900																			1580035664.0	1.40	2.59
26/01/2020 10:47:45	26012020	260120	104745	103.410	12.418752	-57.245023	103.500	-0.450	0.500	2.860	103.430	-0.800	3.300																			1580035665.0	0.94	1.74
26/01/2020 10:47:46	26012020	260120	104746	103.610	12.418750	-57.245023	103.700	-0.200	0.260	2.450	103.650	-1.000	3.100																			1580035666.0	0.32	0.59
26/01/2020 10:47:47	26012020	260120	104747	103.810	12.418752	-57.245023	103.830	0.120	-0.180	1.740	103.830	-1.300	2.400																			1580035667.0	0.36	0.67
26/01/2020 10:47:48	26012020	260120	104748	103.870	12.418755	-57.245022	103.770	0.410	-0.660	1.000	103.860	-1.800	1.700																			1580035668.0	0.81	1.50
26/01/2020 10:47:49	26012020	260120	104749	103.760	12.418760	-57.245020	103.570	0.560	-0.920	0.280	103.720	-2.200	1.000																			1580035669.0	1.08	2.00
26/01/2020 10:47:50	26012020	260120	104750	103.560	12.418765	-57.245018	103.340	0.470	-0.810	-0.270	103.510	-2.200	0.400																			1580035670.0	1.17	2.17
26/01/2020 10:47:51	26012020	260120	104751	103.310	12.418770	-57.245018	103.050	0.220	-0.470	-0.450	103.250	-2.000	0.000																			1580035671.0	0.94	1.74
26/01/2020 10:47:52	26012020	260120	104752	103.020	12.418772	-57.245018	102.830	-0.080	-0.160	-0.280	102.970	-1.600	0.000																			1580035672.0	0.44	0.81
26/01/2020 10:47:53	26012020	260120	104753	102.860	12.418770	-57.245018	102.770	-0.310	0.030	0.090	102.850	-1.400	0.300																			1580035673.0	0.14	0.26
26/01/2020 10:47:54	26012020	260120	104754	102.860	12.418768	-57.245018	102.850	-0.450	0.190	0.520	102.880	-1.200	0.800																			1580035674.0	0.61	1.13
26/01/2020 10:47:55	26012020	260120	104755	102.970	12.418763	-57.245018	102.990	-0.450	0.370	0.870	103.000	-1.100	1.200																			1580035675.0	0.83	1.54
26/01/2020 10:47:56	26012020	260120	104756	103.100	12.418760	-57.245020	103.120	-0.300	0.550	1.110	103.120	-0.900	1.400																			1580035676.0	0.76	1.41
26/01/2020 10:47:57	26012020	260120	104757	103.200	12.418758	-57.245022	103.250	-0.030	0.580	1.230	103.230	-0.800	1.600																			1580035677.0	0.53	0.98
26/01/2020 10:47:58	26012020	260120	104758	103.340	12.418758	-57.245022	103.300	0.290	0.230	1.290	103.340	-0.900	1.700																			1580035678.0	0.18	0.33
26/01/2020 10:47:59	26012020	260120	104759	103.300	12.418760	-57.245022	103.210	0.510	-0.410	1.260	103.280	-1.500	1.700																			1580035679.0	0.34	0.63
26/01/2020 10:48:00	26012020	260120	104800	103.220	12.418762	-57.245018	103.160	0.470	-0.850	1.120	103.210	-2.100	1.600	1014.50	25.60	25.70	18.70	18.80	81.00	65.00	65.00	376.00	25.40	345.00	7.90	88.00	7.60	4810	3182.00	27.40	27.40	1580035680.0	0.66	1.22
26/01/2020 10:48:01	26012020	260120	104801	103.180	12.418763	-57.245018	103.100	0.180	-0.820	1.120	103.170	-2.200	1.500																			1580035681.0	0.45	0.83
26/01/2020 10:48:02	26012020	260120	104802	103.070	12.418763	-57.245018	102.910	-0.180	-0.520	1.360	103.040	-2.000	1.700																			1580035682.0	0.29	0.54
26/01/2020 10:48:03	26012020	260120	104803	102.840	12.418762	-57.245022	102.660	-0.400	-0.210	1.570	102.790	-1.700	1.900																			1580035683.0	0.53	0.98
26/01/2020 10:48:04	26012020	260120	104804	102.600	12.418760	-57.245022	102.460	-0.390	-0.030	1.500	102.560	-1.400	2.000																			1580035684.0	0.41	0.76
26/01/2020 10:48:05	26012020	260120	104805	102.460	12.418760	-57.245022	102.410	-0.210	0.070	1.180	102.450	-1.300	1.700																			1580035685.0	0.06	0.11
26/01/2020 10:48:06	26012020	260120	104806	102.480	12.418762	-57.245022	102.480	0.040	0.090	0.680	102.500	-1.300	1.300																			1580035686.0	0.37	0.69
26/01/2020 10:48:07	26012020	260120	104807	102.600	12.418765	-57.245020	102.620	0.250	0.060	0.090	102.630	-1.300	0.800																			1580035687.0	0.69	1.28
26/01/2020 10:48:08	26012020	260120	104808	102.780	12.418768	-57.245018	102.790	0.330	0.070	-0.440	102.810	-1.300	0.200																			1580035688.0	0.84	1.56
26/01/2020 10:48:09	26012020	260120	104809	102.910	12.418772	-57.245017	102.910	0.280	0.130	-0.680	102.930	-1.300	-0.200																			1580035689.0	0.73	1.35
26/01/2020 10:48:10	26012020	260120	104810	103.040	12.418773	-57.245017	102.990	0.120	0.180	-0.480	103.050	-1.200	-0.200																			1580035690.0	0.42	0.78
26/01/2020 10:48:11	26012020	260120	104811	103.080	12.418773	-57.245018	103.010	-0.070	0.100	0.110	103.090	-1.200	0.200																			1580035691.0	0.28	0.52
26/01/2020 10:48:12	26012020	260120	104812	103.030	12.418770	-57.245020	102.910	-0.220	-0.190	0.950	103.010	-1.400	1.000																			1580035692.0	0.66	1.22
26/01/2020 10:48:13	26012020	260120	104813	102.860	12.418765	-57.245020	102.700	-0.270	-0.560	1.820	102.820	-1.800	1.900																			1580035693.0	1.03	1.91
26/01/2020 10:48:14	26012020	260120	104814	102.610	12.418760	-57.245022	102.460	-0.180	-0.770	2.500	102.560	-2.100	2.700																			1580035694.0	1.14	2.11
26/01/2020 10:48:15	26012020	260120	104815	102.390	12.418757	-57.245022	102.330	-0.030	-0.640	2.790	102.370	-2.100	3.100																			1580035695.0	0.84	1.56
26/01/2020 10:48:16	26012020	260120	104816	102.340	12.418755	-57.245022	102.360	0.100	-0.240	2.570	102.350	-1.800	3.100																			1580035696.0	0.25	0.46
26/01/2020 10:48:17	26012020	260120	104817	102.430	12.418758	-57.245022	102.470	0.140	0.140	1.890	102.450	-1.300	2.600																			1580035697.0	0.53	0.98
26/01/2020 10:48:18	26012020	260120	104818	102.560	12.418762	-57.245022	102.550	0.120	0.320	0.920	102.580	-1.100	1.700																			1580035698.0	0.98	1.81
26/01/2020 10:48:19	26012020	260120	104819	102.630	12.418768	-57.245022	102.570	0.100	0.320	-0.080	102.650	-1.000	0.700																			1580035699.0	1.24	2.30
26/01/2020 10:48:20	26012020	260120	104820	102.660	12.418773	-57.245020	102.570	0.090	0.250	-0.890	102.660	-1.100	-0.200																			1580035700.0	1.25	2.31
26/01/2020 10:48:21	26012020	260120	104821	102.700	12.418778	-57.245018	102.620	0.050	0.090	-1.290	102.710	-1.200	-0.800																			1580035701.0	0.98	1.81
26/01/2020 10:48:22	26012020	260120	104822	102.740	12.418780	-57.245018	102.660	0.010	-0.190	-1.190	102.740	-1.400	-0.900																			1580035702.0	0.43	0.80
26/01/2020 10:48:23	26012020	260120	104823	102.760	12.418778	-57.245017	102.690	0.010	-0.480	-0.710	102.770	-1.700	-0.500																			1580035703.0	0.15	0.28
26/01/2020 10:48:24	26012020	260120	104824	102.750	12.418777	-57.245017	102.640	0.050	-0.640	0.050	102.740	-1.900	0.100																			1580035704.0	0.54	1.00
26/01/2020 10:48:25	26012020	260120	104825	102.620	12.418773	-57.245018	102.460	0.040	-0.550	1.010	102.590	-2.000	1.000																			1580035705.0	0.87	1.61
26/01/2020 10:48:26	26012020	260120	104826	102.390	12.418768	-57.245020	102.260	-0.110	-0.210	1.960	102.350	-1.700	2.000																			1580035706.0	1.05	1.94
26/01/2020 10:48:27	26012020	260120	104827	102.230	12.418763	-57.245022	102.210	-0.280	0.120	2.550	102.220	-1.400	2.800																			1580035707.0	0.97	1.80
26/01/2020 10:48:28	26012020	260120	104828	102.230	12.418762	-57.245023	102.260	-0.280	0.220	2.680	102.240	-1.100	3.100																			1580035708.0	0.57	1.06
26/01/2020 10:48:29	26012020	260120	104829	102.320	12.418762	-57.245023	102.360	-0.110	0.130	2.390	102.340	-1.200	2.900																			1580035709.0	0.09	0.17
26/01/2020 10:48:30	26012020	260120	104830	102.450	12.418763	-57.245022	102.480	0.070	0.060	1.720	102.480	-1.300	2.400																			1580035710.0	0.48	0.89
26/01/2020 10:48:31	26012020	260120	104831	102.570	12.418767	-57.245020	102.530	0.130	0.090	0.860	102.590	-1.300	1.600																			1580035711.0	0.75	1.39
26/01/2020 10:48:32	26012020	260120	104832	102.580	12.418772	-57.245020	102.440	0.140	0.060	0.040	102.560	-1.300	0.800																			1580035712.0	0.93	1.72
26/01/2020 10:48:33	26012020	260120	104833	102.480	12.418775	-57.245020	102.350	0.180	-0.140	-0.620	102.460	-1.400	0.000																			1580035713.0	1.03	1.91
26/01/2020 10:48:34	26012020	260120	104834	102.420	12.418780	-57.245018	102.310	0.230	-0.500	-0.940	102.410	-1.700	-0.400																			1580035714.0	0.93	1.72
26/01/2020 10:48:35	26012020	260120	104835	102.390	12.418782	-57.245017	102.270	0.190	-0.740	-0.840	102.390	-2.000	-0.500																			1580035715.0	0.54	1.00
26/01/2020 10:48:36	26012020	260120	104836	102.320	12.418782	-57.245015	102.150	0.020	-0.630	-0.420	102.290	-2.100	-0.200																			1580035716.0	0.18	0.33
26/01/2020 10:48:37	26012020	260120	104837	102.140	12.418780	-57.245017	101.950	-0.230	-0.260	0.220	102.090	-1.800	0.400																			1580035717.0	0.47	0.87
26/01/2020 10:48:38	26012020	260120	104838	101.900	12.418777	-57.245018	101.750	-0.420	0.160	0.930	101.860	-1.400	1.000																			1580035718.0	0.78	1.44
26/01/2020 10:48:39	26012020	260120	104839	101.720	12.418772	-57.245020	101.660	-0.410	0.430	1.550	101.700	-1.000	1.700																			1580035719.0	0.86	1.59
26/01/2020 10:48:40	26012020	260120	104840	101.720	12.418768	-57.245020	101.810	-0.200	0.470	1.810	101.760	-0.900	2.200																			1580035720.0	0.72	1.33
26/01/2020 10:48:41	26012020	260120	104841	101.980	12.418767	-57.245020	102.150	0.080	0.380	1.610	102.050	-0.900	2.100																			1580035721.0	0.34	0.63
26/01/2020 10:48:42	26012020	260120	104842	102.350	12.418768	-57.245020	102.470	0.270	0.230	1.120	102.420	-1.100	1.700																			1580035722.0	0.22	0.41
26/01/2020 10:48:43	26012020	260120	104843	102.580	12.418772	-57.245020	102.500	0.340	-0.110	0.620	102.590	-1.300	1.200																			1580035723.0	0.65	1.20
26/01/2020 10:48:44	26012020	260120	104844	102.470	12.418775	-57.245018	102.240	0.350	-0.610	0.310	102.420	-1.800	0.800																			1580035724.0	0.80	1.48
26/01/2020 10:48:45	26012020	260120	104845	102.170	12.418778	-57.245017	101.960	0.290	-0.900	0.210	102.120	-2.200	0.600																			1580035725.0	0.77	1.43
26/01/2020 10:48:46	26012020	260120	104846	101.930	12.418780	-57.245015	101.760	0.100	-0.810	0.300	101.890	-2.200	0.700																			1580035726.0	0.44	0.81
26/01/2020 10:48:47	26012020	260120	104847	101.790	12.418780	-57.245017	101.650	-0.190	-0.460	0.510	101.770	-2.000	0.800																			1580035727.0	0.15	0.28
26/01/2020 10:48:48	26012020	260120	104848	101.690	12.418778	-57.245018	101.630	-0.450	-0.110	0.730	101.680	-1.600	1.100																			1580035728.0	0.48	0.89
26/01/2020 10:48:49	26012020	260120	104849	101.680	12.418775	-57.245018	101.630	-0.520	0.090	0.900	101.680	-1.300	1.200																			1580035729.0	0.63	1.17
26/01/2020 10:48:50	26012020	260120	104850	101.670	12.418772	-57.245018	101.620	-0.370	0.230	0.980	101.660	-1.200	1.400																			1580035730.0	0.62	1.15
26/01/2020 10:48:51	26012020	260120	104851	101.670	12.418770	-57.245018	101.660	-0.110	0.450	0.850	101.680	-1.000	1.300																			1580035731.0	0.34	0.63
26/01/2020 10:48:52	26012020	260120	104852	101.780	12.418772	-57.245018	101.830	0.150	0.580	0.450	101.820	-0.800	1.000																			1580035732.0	0.19	0.35
26/01/2020 10:48:53	26012020	260120	104853	101.990	12.418775	-57.245018	102.040	0.330	0.440	-0.040	102.040	-0.800	0.600																			1580035733.0	0.65	1.20
26/01/2020 10:48:54	26012020	260120	104854	102.170	12.418778	-57.245018	102.140	0.450	-0.020	-0.320	102.190	-1.200	0.200																			1580035734.0	0.81	1.50
26/01/2020 10:48:55	26012020	260120	104855	102.210	12.418780	-57.245017	102.100	0.470	-0.540	-0.250	102.200	-1.700	0.100																			1580035735.0	0.67	1.24
26/01/2020 10:48:56	26012020	260120	104856	102.110	12.418782	-57.245015	101.960	0.380	-0.780	0.110	102.080	-2.100	0.300																			1580035736.0	0.33	0.61
26/01/2020 10:48:57	26012020	260120	104857	101.930	12.418782	-57.245017	101.770	0.160	-0.640	0.730	101.890	-2.100	0.900																			1580035737.0	0.22	0.41
26/01/2020 10:48:58	26012020	260120	104858	101.730	12.418778	-57.245018	101.610	-0.120	-0.370	1.430	101.700	-1.800	1.600																			1580035738.0	0.72	1.33
26/01/2020 10:48:59	26012020	260120	104859	101.610	12.418775	-57.245020	101.550	-0.340	-0.180	1.980	101.590	-1.600	2.200																			1580035739.0	0.89	1.65
26/01/2020 10:49:00	26012020	260120	104900	101.550	12.418772	-57.245022	101.550	-0.460	-0.100	2.230	101.550	-1.500	2.600	1014.50	25.60	25.70	18.60	18.70	83.00	65.00	65.00	376.00	25.40	354.00	7.70	97.00	7.50	4992	3189.00	27.40	27.40	1580035740.0	0.79	1.46
26/01/2020 10:49:01	26012020	260120	104901	101.560	12.418768	-57.245022	101.550	-0.450	-0.150	2.140	101.560	-1.500	2.600																			1580035741.0	0.53	0.98
26/01/2020 10:49:02	26012020	260120	104902	101.560	12.418768	-57.245022	101.540	-0.330	-0.200	1.780	101.560	-1.500	2.400																			1580035742.0	0.31	0.57
26/01/2020 10:49:03	26012020	260120	104903	101.560	12.418768	-57.245020	101.510	-0.160	-0.110	1.180	101.560	-1.500	1.900																			1580035743.0	0.23	0.43
26/01/2020 10:49:04	26012020	260120	104904	101.570	12.418770	-57.245020	101.540	0.010	0.180	0.290	101.580	-1.300	1.100																			1580035744.0	0.54	1.00
26/01/2020 10:49:05	26012020	260120	104905	101.670	12.418775	-57.245020	101.680	0.160	0.480	-0.720	101.700	-1.000	0.100																			1580035745.0	1.06	1.96
26/01/2020 10:49:06	26012020	260120	104906	101.880	12.418782	-57.245020	101.930	0.300	0.570	-1.560	101.930	-0.800	-0.900																			1580035746.0	1.30	2.41
26/01/2020 10:49:07	26012020	260120	104907	102.170	12.418787	-57.245020	102.240	0.470	0.320	-2.030	102.240	-0.900	-1.500																			1580035747.0	1.17	2.17
26/01/2020 10:49:08	26012020	260120	104908	102.470	12.418790	-57.245018	102.480	0.610	-0.250	-1.970	102.520	-1.400	-1.700																			1580035748.0	0.80	1.48
26/01/2020 10:49:09	26012020	260120	104909	102.610	12.418792	-57.245018	102.490	0.560	-0.800	-1.190	102.610	-2.000	-1.200																			1580035749.0	0.38	0.70
26/01/2020 10:49:10	26012020	260120	104910	102.480	12.418788	-57.245017	102.280	0.250	-0.970	0.260	102.420	-2.300	0.000																			1580035750.0	0.69	1.28
26/01/2020 10:49:11	26012020	260120	104911	102.190	12.418780	-57.245018	102.030	-0.250	-0.750	2.000	102.130	-2.200	1.700																			1580035751.0	1.62	3.00
26/01/2020 10:49:12	26012020	260120	104912	101.950	12.418772	-57.245023	101.900	-0.670	-0.360	3.530	101.920	-1.900	3.400																			1580035752.0	2.23	4.13
26/01/2020 10:49:13	26012020	260120	104913	101.860	12.418762	-57.245027	101.910	-0.860	0.010	4.410	101.860	-1.500	4.500																			1580035753.0	2.16	4.00
26/01/2020 10:49:14	26012020	260120	104914	101.930	12.418755	-57.245028	102.060	-0.760	0.290	4.430	101.960	-1.200	4.900																			1580035754.0	1.52	2.82
26/01/2020 10:49:15	26012020	260120	104915	102.130	12.418753	-57.245028	102.270	-0.430	0.420	3.540	102.170	-1.000	4.400																			1580035755.0	0.47	0.87
26/01/2020 10:49:16	26012020	260120	104916	102.380	12.418757	-57.245027	102.480	0.050	0.330	1.960	102.430	-1.000	3.100																			1580035756.0	0.75	1.39
26/01/2020 10:49:17	26012020	260120	104917	102.600	12.418763	-57.245025	102.630	0.500	0.070	0.100	102.640	-1.200	1.300																			1580035757.0	1.80	3.33
26/01/2020 10:49:18	26012020	260120	104918	102.770	12.418773	-57.245022	102.740	0.750	-0.130	-1.590	102.810	-1.400	-0.500																			1580035758.0	2.34	4.33
26/01/2020 10:49:19	26012020	260120	104919	102.890	12.418783	-57.245018	102.770	0.740	-0.220	-2.670	102.900	-1.500	-1.900																			1580035759.0	2.21	4.09
26/01/2020 10:49:20	26012020	260120	104920	102.880	12.418792	-57.245017	102.660	0.540	-0.300	-2.880	102.850	-1.600	-2.500																			1580035760.0	1.50	2.78
26/01/2020 10:49:21	26012020	260120	104921	102.690	12.418793	-57.245018	102.430	0.240	-0.410	-2.180	102.630	-1.700	-2.100																			1580035761.0	0.48	0.89
26/01/2020 10:49:22	26012020	260120	104922	102.430	12.418790	-57.245018	102.230	-0.110	-0.450	-0.820	102.380	-1.800	-1.000																			1580035762.0	0.67	1.24
26/01/2020 10:49:23	26012020	260120	104923	102.240	12.418783	-57.245020	102.120	-0.440	-0.350	0.890	102.210	-1.800	0.600																			1580035763.0	1.67	3.09
26/01/2020 10:49:24	26012020	260120	104924	102.120	12.418772	-57.245023	102.070	-0.630	-0.180	2.600	102.110	-1.600	2.300																			1580035764.0	2.29	4.24
26/01/2020 10:49:25	26012020	260120	104925	102.060	12.418762	-57.245025	102.060	-0.600	-0.040	3.850	102.060	-1.400	3.800																			1580035765.0	2.30	4.26
26/01/2020 10:49:26	26012020	260120	104926	102.060	12.418753	-57.245027	102.110	-0.350	0.060	4.340	102.070	-1.300	4.600																			1580035766.0	1.69	3.13
26/01/2020 10:49:27	26012020	260120	104927	102.120	12.418750	-57.245027	102.190	-0.020	0.130	4.000	102.150	-1.300	4.600																			1580035767.0	0.73	1.35
26/01/2020 10:49:28	26012020	260120	104928	102.240	12.418752	-57.245027	102.300	0.220	0.240	2.940	102.260	-1.200	3.800																			1580035768.0	0.36	0.67
26/01/2020 10:49:29	26012020	260120	104929	102.370	12.418758	-57.245027	102.390	0.320	0.290	1.380	102.390	-1.100	2.500																			1580035769.0	1.36	2.52
26/01/2020 10:49:30	26012020	260120	104930	102.470	12.418768	-57.245025	102.420	0.320	0.070	-0.310	102.490	-1.100	0.800																			1580035770.0	2.00	3.70
26/01/2020 10:49:31	26012020	260120	104931	102.510	12.418777	-57.245023	102.400	0.330	-0.400	-1.720	102.520	-1.600	-0.800																			1580035771.0	2.12	3.93
26/01/2020 10:49:32	26012020	260120	104932	102.500	12.418785	-57.245020	102.330	0.320	-0.790	-2.520	102.490	-2.000	-1.900																			1580035772.0	1.77	3.28
26/01/2020 10:49:33	26012020	260120	104933	102.400	12.418790	-57.245017	102.180	0.210	-0.800	-2.520	102.370	-2.200	-2.200																			1580035773.0	1.00	1.85
26/01/2020 10:49:34	26012020	260120	104934	102.220	12.418790	-57.245017	102.050	-0.050	-0.450	-1.810	102.200	-2.000	-1.700																			1580035774.0	0.06	0.11
26/01/2020 10:49:35	26012020	260120	104935	102.130	12.418785	-57.245020	102.070	-0.350	-0.000	-0.710	102.130	-1.500	-0.800																			1580035775.0	0.97	1.80
26/01/2020 10:49:36	26012020	260120	104936	102.190	12.418778	-57.245022	102.230	-0.490	0.240	0.480	102.220	-1.200	0.400																			1580035776.0	1.49	2.76
26/01/2020 10:49:37	26012020	260120	104937	102.340	12.418772	-57.245023	102.500	-0.400	0.260	1.550	102.380	-1.100	1.500																			1580035777.0	1.58	2.93
26/01/2020 10:49:38	26012020	260120	104938	102.650	12.418765	-57.245025	102.780	-0.200	0.260	2.390	102.700	-1.100	2.500																			1580035778.0	1.49	2.76
26/01/2020 10:49:39	26012020	260120	104939	102.880	12.418760	-57.245025	102.950	0.010	0.320	2.860	102.910	-1.100	3.100																			1580035779.0	1.16	2.15
26/01/2020 10:49:40	26012020	260120	104940	103.000	12.418757	-57.245027	103.040	0.140	0.280	2.850	103.020	-1.000	3.300																			1580035780.0	0.57	1.06
26/01/2020 10:49:41	26012020	260120	104941	103.100	12.418758	-57.245028	103.150	0.170	-0.010	2.340	103.120	-1.200	3.000																			1580035781.0	0.28	0.52
26/01/2020 10:49:42	26012020	260120	104942	103.240	12.418762	-57.245027	103.270	0.150	-0.430	1.460	103.270	-1.600	2.300																			1580035782.0	0.87	1.61
26/01/2020 10:49:43	26012020	260120	104943	103.380	12.418767	-57.245025	103.350	0.130	-0.790	0.560	103.400	-2.000	1.300																			1580035783.0	1.12	2.07
26/01/2020 10:49:44	26012020	260120	104944	103.420	12.418772	-57.245023	103.310	0.160	-0.910	-0.100	103.410	-2.300	0.500																			1580035784.0	0.87	1.61
26/01/2020 10:49:45	26012020	260120	104945	103.360	12.418773	-57.245023	103.220	0.170	-0.700	-0.510	103.340	-2.200	0.000																			1580035785.0	0.49	0.91
26/01/2020 10:49:46	26012020	260120	104946	103.300	12.418775	-57.245023	103.200	0.100	-0.270	-0.750	103.300	-1.800	-0.300																			1580035786.0	0.35	0.65
26/01/2020 10:49:47	26012020	260120	104947	103.340	12.418777	-57.245023	103.320	-0.060	0.200	-0.870	103.370	-1.300	-0.400																			1580035787.0	0.36	0.67
26/01/2020 10:49:48	26012020	260120	104948	103.510	12.418777	-57.245025	103.550	-0.200	0.560	-0.820	103.560	-0.900	-0.500																			1580035788.0	0.33	0.61
26/01/2020 10:49:49	26012020	260120	104949	103.710	12.418777	-57.245027	103.790	-0.270	0.660	-0.440	103.760	-0.700	-0.200																			1580035789.0	0.26	0.48
26/01/2020 10:49:50	26012020	260120	104950	103.960	12.418775	-57.245027	104.010	-0.220	0.430	0.240	104.000	-0.800	0.300																			1580035790.0	0.60	1.11
26/01/2020 10:49:51	26012020	260120	104951	104.120	12.418770	-57.245028	104.220	-0.080	0.050	0.980	104.170	-1.200	1.100																			1580035791.0	0.96	1.78
26/01/2020 10:49:52	26012020	260120	104952	104.350	12.418765	-57.245028	104.360	0.110	-0.350	1.580	104.370	-1.600	1.700																			1580035792.0	0.95	1.76
26/01/2020 10:49:53	26012020	260120	104953	104.410	12.418762	-57.245028	104.350	0.260	-0.630	2.070	104.400	-1.900	2.300																			1580035793.0	0.69	1.28
26/01/2020 10:49:54	26012020	260120	104954	104.300	12.418760	-57.245030	104.180	0.270	-0.720	2.460	104.270	-2.100	2.700																			1580035794.0	0.50	0.93
26/01/2020 10:49:55	26012020	260120	104955	104.100	12.418758	-57.245030	103.980	0.120	-0.540	2.600	104.060	-2.000	3.000																			1580035795.0	0.36	0.67
26/01/2020 10:49:56	26012020	260120	104956	103.930	12.418758	-57.245032	103.850	-0.090	-0.220	2.310	103.900	-1.700	2.900																			1580035796.0	0.23	0.43
26/01/2020 10:49:57	26012020	260120	104957	103.840	12.418760	-57.245032	103.800	-0.230	0.060	1.650	103.840	-1.400	2.400																			1580035797.0	0.42	0.78
26/01/2020 10:49:58	26012020	260120	104958	103.830	12.418763	-57.245032	103.760	-0.220	0.150	0.840	103.830	-1.200	1.600																			1580035798.0	0.60	1.11
26/01/2020 10:49:59	26012020	260120	104959	103.810	12.418767	-57.245030	103.780	-0.100	0.130	-0.000	103.820	-1.200	0.800																			1580035799.0	0.74	1.37
26/01/2020 10:50:00	26012020	260120	105000	103.940	12.418770	-57.245028	103.990	0.040	0.180	-0.910	103.990	-1.200	-0.100	1014.50	25.70	25.70	18.80	18.80	86.00	65.00	65.00	375.00	25.40	355.00	7.60	97.00	7.10	5176	3121.00	27.40	27.40	1580035800.0	0.89	1.65
26/01/2020 10:50:01	26012020	260120	105001	104.220	12.418775	-57.245027	104.270	0.130	0.270	-1.570	104.280	-1.100	-0.900																			1580035801.0	0.98	1.81
26/01/2020 10:50:02	26012020	260120	105002	104.470	12.418778	-57.245027	104.420	0.150	0.160	-1.600	104.500	-1.100	-1.300																			1580035802.0	0.71	1.31
26/01/2020 10:50:03	26012020	260120	105003	104.510	12.418778	-57.245027	104.340	0.140	-0.240	-0.940	104.490	-1.400	-0.900																			1580035803.0	0.02	0.04
26/01/2020 10:50:04	26012020	260120	105004	104.330	12.418775	-57.245027	104.100	0.100	-0.700	0.160	104.280	-1.900	0.100																			1580035804.0	0.79	1.46
26/01/2020 10:50:05	26012020	260120	105005	104.020	12.418768	-57.245027	103.820	0.040	-0.890	1.460	103.960	-2.200	1.300																			1580035805.0	1.28	2.37
26/01/2020 10:50:06	26012020	260120	105006	103.740	12.418762	-57.245028	103.640	-0.030	-0.650	2.640	103.710	-2.100	2.600																			1580035806.0	1.48	2.74
26/01/2020 10:50:07	26012020	260120	105007	103.630	12.418755	-57.245030	103.650	-0.090	-0.180	3.340	103.630	-1.700	3.500																			1580035807.0	1.34	2.48
26/01/2020 10:50:08	26012020	260120	105008	103.680	12.418752	-57.245032	103.730	-0.110	0.210	3.380	103.700	-1.300	3.800																			1580035808.0	0.88	1.63
26/01/2020 10:50:09	26012020	260120	105009	103.790	12.418752	-57.245032	103.870	-0.080	0.420	2.770	103.820	-1.000	3.500																			1580035809.0	0.14	0.26
26/01/2020 10:50:10	26012020	260120	105010	103.980	12.418753	-57.245030	104.060	-0.060	0.580	1.680	104.020	-0.800	2.600																			1580035810.0	0.64	1.19
26/01/2020 10:50:11	26012020	260120	105011	104.200	12.418760	-57.245030	104.220	-0.070	0.580	0.430	104.230	-0.700	1.300																			1580035811.0	1.22	2.26
26/01/2020 10:50:12	26012020	260120	105012	104.320	12.418767	-57.245028	104.240	-0.040	0.190	-0.680	104.330	-0.900	0.200																			1580035812.0	1.48	2.74
26/01/2020 10:50:13	26012020	260120	105013	104.310	12.418772	-57.245025	104.140	0.070	-0.510	-1.440	104.300	-1.600	-0.800																			1580035813.0	1.43	2.65
26/01/2020 10:50:14	26012020	260120	105014	104.180	12.418777	-57.245022	103.990	0.140	-1.060	-1.650	104.150	-2.200	-1.200																			1580035814.0	1.08	2.00
26/01/2020 10:50:15	26012020	260120	105015	104.050	12.418777	-57.245020	103.840	0.100	-1.020	-1.280	104.020	-2.500	-1.100																			1580035815.0	0.40	0.74
26/01/2020 10:50:16	26012020	260120	105016	103.860	12.418773	-57.245022	103.720	-0.040	-0.470	-0.470	103.840	-2.100	-0.400																			1580035816.0	0.64	1.19
26/01/2020 10:50:17	26012020	260120	105017	103.750	12.418768	-57.245025	103.680	-0.170	0.130	0.510	103.740	-1.400	0.500																			1580035817.0	1.17	2.17
26/01/2020 10:50:18	26012020	260120	105018	103.770	12.418763	-57.245027	103.810	-0.230	0.430	1.330	103.780	-1.000	1.400																			1580035818.0	1.23	2.28
26/01/2020 10:50:19	26012020	260120	105019	103.910	12.418760	-57.245028	103.990	-0.160	0.350	1.860	103.950	-0.900	2.100																			1580035819.0	0.94	1.74
26/01/2020 10:50:20	26012020	260120	105020	104.070	12.418757	-57.245028	104.090	0.010	0.060	2.170	104.090	-1.100	2.500																			1580035820.0	0.67	1.24
26/01/2020 10:50:21	26012020	260120	105021	104.090	12.418755	-57.245027	104.030	0.170	-0.270	2.400	104.070	-1.500	2.700																			1580035821.0	0.62	1.15
26/01/2020 10:50:22	26012020	260120	105022	103.970	12.418752	-57.245025	103.890	0.230	-0.400	2.390	103.940	-1.700	2.800																			1580035822.0	0.50	0.93
26/01/2020 10:50:23	26012020	260120	105023	103.830	12.418753	-57.245023	103.780	0.160	-0.260	1.960	103.820	-1.700	2.600																			1580035823.0	0.17	0.31
26/01/2020 10:50:24	26012020	260120	105024	103.770	12.418757	-57.245023	103.730	0.060	0.020	1.180	103.770	-1.400	1.900																			1580035824.0	0.73	1.35
26/01/2020 10:50:25	26012020	260120	105025	103.790	12.418762	-57.245023	103.780	-0.000	0.190	0.240	103.810	-1.200	1.000																			1580035825.0	1.15	2.13
26/01/2020 10:50:26	26012020	260120	105026	103.910	12.418767	-57.245023	103.920	-0.030	0.160	-0.600	103.940	-1.200	0.100																			1580035826.0	1.18	2.19
26/01/2020 10:50:27	26012020	260120	105027	104.040	12.418770	-57.245022	104.050	-0.080	-0.020	-1.110	104.070	-1.300	-0.500																			1580035827.0	0.90	1.67
26/01/2020 10:50:28	26012020	260120	105028	104.160	12.418773	-57.245020	104.050	-0.170	-0.250	-1.140	104.160	-1.500	-0.800																			1580035828.0	0.46	0.85
26/01/2020 10:50:29	26012020	260120	105029	104.090	12.418772	-57.245020	103.910	-0.270	-0.440	-0.640	104.060	-1.700	-0.500																			1580035829.0	0.18	0.33
26/01/2020 10:50:30	26012020	260120	105030	103.890	12.418768	-57.245020	103.700	-0.270	-0.530	0.220	103.840	-1.900	0.300																			1580035830.0	0.78	1.44
26/01/2020 10:50:31	26012020	260120	105031	103.670	12.418763	-57.245022	103.540	-0.100	-0.480	1.140	103.630	-1.900	1.200																			1580035831.0	1.18	2.19
26/01/2020 10:50:32	26012020	260120	105032	103.510	12.418758	-57.245022	103.430	0.150	-0.280	1.850	103.490	-1.700	2.000																			1580035832.0	1.14	2.11
26/01/2020 10:50:33	26012020	260120	105033	103.420	12.418755	-57.245023	103.370	0.320	-0.010	2.210	103.410	-1.500	2.500																			1580035833.0	0.70	1.30
26/01/2020 10:50:34	26012020	260120	105034	103.400	12.418753	-57.245023	103.410	0.320	0.200	2.150	103.410	-1.200	2.600																			1580035834.0	0.18	0.33
26/01/2020 10:50:35	26012020	260120	105035	103.500	12.418755	-57.245023	103.530	0.170	0.270	1.750	103.520	-1.100	2.400																			1580035835.0	0.26	0.48
26/01/2020 10:50:36	26012020	260120	105036	103.620	12.418757	-57.245022	103.610	0.000	0.180	1.190	103.640	-1.100	1.800																			1580035836.0	0.56	1.04
26/01/2020 10:50:37	26012020	260120	105037	103.700	12.418760	-57.245022	103.660	-0.110	0.030	0.560	103.710	-1.300	1.200																			1580035837.0	0.74	1.37
26/01/2020 10:50:38	26012020	260120	105038	103.740	12.418763	-57.245020	103.640	-0.160	-0.090	0.070	103.730	-1.400	0.700																			1580035838.0	0.70	1.30
26/01/2020 10:50:39	26012020	260120	105039	103.700	12.418765	-57.245020	103.520	-0.130	-0.230	-0.120	103.680	-1.500	0.300																			1580035839.0	0.44	0.81
26/01/2020 10:50:40	26012020	260120	105040	103.520	12.418767	-57.245020	103.330	-0.040	-0.420	-0.090	103.490	-1.700	0.300																			1580035840.0	0.15	0.28
26/01/2020 10:50:41	26012020	260120	105041	103.380	12.418767	-57.245018	103.210	0.000	-0.470	0.000	103.350	-1.800	0.400																			1580035841.0	0.17	0.31
26/01/2020 10:50:42	26012020	260120	105042	103.260	12.418767	-57.245018	103.160	-0.050	-0.260	0.170	103.260	-1.700	0.500																			1580035842.0	0.02	0.04
26/01/2020 10:50:43	26012020	260120	105043	103.230	12.418765	-57.245020	103.160	-0.180	0.070	0.520	103.230	-1.400	0.800																			1580035843.0	0.29	0.54
26/01/2020 10:50:44	26012020	260120	105044	103.210	12.418763	-57.245022	103.130	-0.220	0.250	0.980	103.200	-1.100	1.200																			1580035844.0	0.57	1.06
26/01/2020 10:50:45	26012020	260120	105045	103.160	12.418762	-57.245022	103.090	-0.050	0.070	1.330	103.150	-1.200	1.600																			1580035845.0	0.57	1.06
26/01/2020 10:50:46	26012020	260120	105046	103.120	12.418760	-57.245022	103.090	0.250	-0.320	1.390	103.120	-1.500	1.800																			1580035846.0	0.42	0.78
26/01/2020 10:50:47	26012020	260120	105047	103.150	12.418760	-57.245018	103.140	0.470	-0.540	1.250	103.160	-1.800	1.700																			1580035847.0	0.47	0.87
26/01/2020 10:50:48	26012020	260120	105048	103.210	12.418760	-57.245018	103.180	0.440	-0.410	1.090	103.220	-1.800	1.600																			1580035848.0	0.35	0.65
26/01/2020 10:50:49	26012020	260120	105049	103.230	12.418762	-57.245018	103.140	0.160	-0.090	1.020	103.220	-1.600	1.500																			1580035849.0	0.28	0.52
26/01/2020 10:50:50	26012020	260120	105050	103.160	12.418763	-57.245020	103.030	-0.190	0.180	0.900	103.130	-1.300	1.400																			1580035850.0	0.33	0.61
26/01/2020 10:50:51	26012020	260120	105051	103.040	12.418763	-57.245020	102.910	-0.430	0.230	0.730	103.010	-1.100	1.200																			1580035851.0	0.30	0.56
26/01/2020 10:50:52	26012020	260120	105052	102.920	12.418765	-57.245020	102.800	-0.430	0.060	0.620	102.900	-1.200	1.100																			1580035852.0	0.22	0.41
26/01/2020 10:50:53	26012020	260120	105053	102.840	12.418765	-57.245018	102.800	-0.230	-0.160	0.510	102.840	-1.400	1.000																			1580035853.0	0.25	0.46
26/01/2020 10:50:54	26012020	260120	105054	102.910	12.418765	-57.245017	102.920	0.000	-0.200	0.340	102.940	-1.600	0.800																			1580035854.0	0.22	0.41
26/01/2020 10:50:55	26012020	260120	105055	103.040	12.418765	-57.245018	103.010	0.130	-0.030	0.180	103.060	-1.500	0.600																			1580035855.0	0.07	0.13
26/01/2020 10:50:56	26012020	260120	105056	103.070	12.418767	-57.245018	102.960	0.160	0.130	0.160	103.060	-1.300	0.600																			1580035856.0	0.33	0.61
26/01/2020 10:50:57	26012020	260120	105057	103.010	12.418768	-57.245020	102.950	0.100	0.130	0.220	103.010	-1.200	0.600																			1580035857.0	0.39	0.72
26/01/2020 10:50:58	26012020	260120	105058	103.050	12.418768	-57.245020	103.020	0.050	-0.100	0.400	103.060	-1.300	0.700																			1580035858.0	0.22	0.41
26/01/2020 10:50:59	26012020	260120	105059	103.100	12.418768	-57.245020	102.980	0.100	-0.530	0.790	103.090	-1.700	1.000																			1580035859.0	0.21	0.39
26/01/2020 10:51:00	26012020	260120	105100	102.930	12.418765	-57.245018	102.710	0.190	-0.930	1.320	102.870	-2.100	1.500	1014.60	25.70	25.70	18.50	18.60	89.00	64.00	64.00	375.00	25.50	357.00	7.90	100.00	7.60	5361	3218.00	27.40	27.40	1580035860.0	0.58	1.07
26/01/2020 10:51:01	26012020	260120	105101	102.610	12.418763	-57.245017	102.430	0.180	-0.940	1.740	102.550	-2.300	2.000																			1580035861.0	0.65	1.20
26/01/2020 10:51:02	26012020	260120	105102	102.380	12.418760	-57.245017	102.300	0.020	-0.470	1.910	102.350	-2.000	2.300																			1580035862.0	0.44	0.81
26/01/2020 10:51:03	26012020	260120	105103	102.320	12.418760	-57.245018	102.320	-0.190	0.220	1.750	102.330	-1.400	2.300																			1580035863.0	0.30	0.56
26/01/2020 10:51:04	26012020	260120	105104	102.400	12.418762	-57.245020	102.470	-0.340	0.790	1.260	102.440	-0.800	1.900																			1580035864.0	0.43	0.80
26/01/2020 10:51:05	26012020	260120	105105	102.570	12.418763	-57.245022	102.730	-0.320	0.990	0.490	102.620	-0.400	1.200																			1580035865.0	0.57	1.06
26/01/2020 10:51:06	26012020	260120	105106	102.920	12.418768	-57.245020	103.000	-0.130	0.740	-0.340	102.980	-0.400	0.400																			1580035866.0	0.89	1.65
26/01/2020 10:51:07	26012020	260120	105107	103.170	12.418772	-57.245018	103.160	0.160	0.090	-0.940	103.200	-1.000	-0.300																			1580035867.0	1.05	1.94
26/01/2020 10:51:08	26012020	260120	105108	103.240	12.418775	-57.245017	103.100	0.410	-0.610	-1.060	103.230	-1.700	-0.700																			1580035868.0	0.90	1.67
26/01/2020 10:51:09	26012020	260120	105109	103.090	12.418777	-57.245015	102.860	0.450	-1.010	-0.600	103.030	-2.200	-0.400																			1580035869.0	0.44	0.81
26/01/2020 10:51:10	26012020	260120	105110	102.790	12.418775	-57.245015	102.580	0.240	-0.950	0.290	102.730	-2.400	0.300																			1580035870.0	0.34	0.63
26/01/2020 10:51:11	26012020	260120	105111	102.540	12.418772	-57.245017	102.420	-0.110	-0.540	1.290	102.500	-2.100	1.300																			1580035871.0	0.89	1.65
26/01/2020 10:51:12	26012020	260120	105112	102.420	12.418767	-57.245020	102.370	-0.390	-0.110	2.070	102.400	-1.600	2.200																			1580035872.0	1.18	2.19
26/01/2020 10:51:13	26012020	260120	105113	102.390	12.418762	-57.245022	102.410	-0.440	0.040	2.460	102.400	-1.300	2.800																			1580035873.0	1.05	1.94
26/01/2020 10:51:14	26012020	260120	105114	102.430	12.418758	-57.245022	102.430	-0.290	-0.010	2.510	102.440	-1.300	2.900																			1580035874.0	0.70	1.30
26/01/2020 10:51:15	26012020	260120	105115	102.430	12.418757	-57.245020	102.400	-0.090	0.010	2.260	102.420	-1.400	2.800																			1580035875.0	0.44	0.81
26/01/2020 10:51:16	26012020	260120	105116	102.410	12.418758	-57.245020	102.420	0.050	0.210	1.600	102.420	-1.200	2.300																			1580035876.0	0.31	0.57
26/01/2020 10:51:17	26012020	260120	105117	102.480	12.418762	-57.245018	102.600	0.150	0.440	0.540	102.510	-1.000	1.400																			1580035877.0	0.86	1.59
26/01/2020 10:51:18	26012020	260120	105118	102.800	12.418768	-57.245018	102.910	0.240	0.480	-0.640	102.870	-0.900	0.200																			1580035878.0	1.39	2.57
26/01/2020 10:51:19	26012020	260120	105119	103.070	12.418775	-57.245018	103.130	0.340	0.180	-1.510	103.130	-1.000	-0.800																			1580035879.0	1.52	2.82
26/01/2020 10:51:20	26012020	260120	105120	103.250	12.418780	-57.245017	103.110	0.390	-0.370	-1.740	103.240	-1.500	-1.300																			1580035880.0	1.18	2.19
26/01/2020 10:51:21	26012020	260120	105121	103.150	12.418782	-57.245015	102.940	0.280	-0.770	-1.270	103.100	-2.000	-1.100																			1580035881.0	0.54	1.00
26/01/2020 10:51:22	26012020	260120	105122	102.900	12.418780	-57.245015	102.680	0.030	-0.790	-0.270	102.850	-2.200	-0.300																			1580035882.0	0.42	0.78
26/01/2020 10:51:23	26012020	260120	105123	102.600	12.418775	-57.245017	102.400	-0.200	-0.590	0.990	102.540	-2.000	0.900																			1580035883.0	1.13	2.09
26/01/2020 10:51:24	26012020	260120	105124	102.330	12.418770	-57.245018	102.200	-0.260	-0.410	2.170	102.280	-1.800	2.100																			1580035884.0	1.46	2.70
26/01/2020 10:51:25	26012020	260120	105125	102.170	12.418763	-57.245020	102.150	-0.230	-0.190	2.920	102.160	-1.600	3.100																			1580035885.0	1.41	2.61
26/01/2020 10:51:26	26012020	260120	105126	102.190	12.418758	-57.245020	102.300	-0.250	0.160	3.000	102.220	-1.300	3.400																			1580035886.0	0.95	1.76
26/01/2020 10:51:27	26012020	260120	105127	102.430	12.418757	-57.245020	102.610	-0.290	0.550	2.440	102.500	-0.900	3.100																			1580035887.0	0.26	0.48
26/01/2020 10:51:28	26012020	260120	105128	102.790	12.418760	-57.245022	102.920	-0.230	0.650	1.460	102.850	-0.700	2.300																			1580035888.0	0.58	1.07
26/01/2020 10:51:29	26012020	260120	105129	103.010	12.418765	-57.245020	103.070	0.000	0.380	0.340	103.050	-0.800	1.200																			1580035889.0	1.10	2.04
26/01/2020 10:51:30	26012020	260120	105130	103.180	12.418772	-57.245018	103.130	0.250	-0.010	-0.660	103.200	-1.200	0.100																			1580035890.0	1.35	2.50
26/01/2020 10:51:31	26012020	260120	105131	103.230	12.418777	-57.245017	103.090	0.360	-0.390	-1.280	103.230	-1.600	-0.700																			1580035891.0	1.19	2.20
26/01/2020 10:51:32	26012020	260120	105132	103.130	12.418780	-57.245015	102.910	0.310	-0.680	-1.420	103.100	-1.900	-1.000																			1580035892.0	0.72	1.33
26/01/2020 10:51:33	26012020	260120	105133	102.910	12.418780	-57.245015	102.680	0.200	-0.780	-1.140	102.870	-2.100	-0.900																			1580035893.0	0.26	0.48
26/01/2020 10:51:34	26012020	260120	105134	102.680	12.418780	-57.245015	102.520	0.090	-0.580	-0.540	102.650	-2.000	-0.400																			1580035894.0	0.08	0.15
26/01/2020 10:51:35	26012020	260120	105135	102.590	12.418778	-57.245017	102.540	-0.030	-0.150	0.260	102.590	-1.700	0.300																			1580035895.0	0.47	0.87
26/01/2020 10:51:36	26012020	260120	105136	102.660	12.418775	-57.245018	102.700	-0.140	0.210	1.050	102.690	-1.200	1.100																			1580035896.0	0.89	1.65
26/01/2020 10:51:37	26012020	260120	105137	102.820	12.418770	-57.245022	102.850	-0.210	0.280	1.730	102.850	-1.100	1.900																			1580035897.0	1.11	2.06
26/01/2020 10:51:38	26012020	260120	105138	102.910	12.418765	-57.245022	102.890	-0.190	0.110	2.220	102.920	-1.200	2.400																			1580035898.0	1.10	2.04
26/01/2020 10:51:39	26012020	260120	105139	102.890	12.418762	-57.245022	102.820	-0.110	-0.080	2.420	102.870	-1.400	2.800																			1580035899.0	0.84	1.56
26/01/2020 10:51:40	26012020	260120	105140	102.790	12.418760	-57.245022	102.730	-0.020	-0.170	2.230	102.770	-1.500	2.800																			1580035900.0	0.31	0.57
26/01/2020 10:51:41	26012020	260120	105141	102.720	12.418762	-57.245020	102.670	0.050	-0.160	1.610	102.710	-1.500	2.300																			1580035901.0	0.42	0.78
26/01/2020 10:51:42	26012020	260120	105142	102.710	12.418767	-57.245020	102.670	0.110	-0.140	0.760	102.710	-1.500	1.500																			1580035902.0	0.97	1.80
26/01/2020 10:51:43	26012020	260120	105143	102.720	12.418772	-57.245018	102.650	0.150	-0.200	-0.060	102.720	-1.500	0.700																			1580035903.0	1.13	2.09
26/01/2020 10:51:44	26012020	260120	105144	102.710	12.418777	-57.245018	102.640	0.110	-0.200	-0.690	102.710	-1.600	-0.000																			1580035904.0	0.95	1.76
26/01/2020 10:51:45	26012020	260120	105145	102.730	12.418778	-57.245017	102.700	-0.030	-0.000	-1.100	102.750	-1.400	-0.600																			1580035905.0	0.61	1.13
26/01/2020 10:51:46	26012020	260120	105146	102.840	12.418780	-57.245018	102.820	-0.150	0.270	-1.210	102.870	-1.200	-0.800																			1580035906.0	0.42	0.78
26/01/2020 10:51:47	26012020	260120	105147	102.960	12.418780	-57.245020	102.920	-0.120	0.310	-0.960	102.980	-1.000	-0.700																			1580035907.0	0.42	0.78
26/01/2020 10:51:48	26012020	260120	105148	103.020	12.418780	-57.245022	102.930	0.040	-0.020	-0.360	103.010	-1.200	-0.200																			1580035908.0	0.36	0.67
26/01/2020 10:51:49	26012020	260120	105149	102.940	12.418777	-57.245022	102.820	0.180	-0.470	0.480	102.910	-1.600	0.500																			1580035909.0	0.63	1.17
26/01/2020 10:51:50	26012020	260120	105150	102.780	12.418772	-57.245022	102.670	0.170	-0.730	1.380	102.740	-2.000	1.400																			1580035910.0	0.87	1.61
26/01/2020 10:51:51	26012020	260120	105151	102.620	12.418768	-57.245022	102.530	0.020	-0.750	2.170	102.590	-2.100	2.300																			1580035911.0	0.96	1.78
26/01/2020 10:51:52	26012020	260120	105152	102.480	12.418763	-57.245022	102.450	-0.170	-0.550	2.700	102.460	-2.000	2.900																			1580035912.0	0.97	1.80
26/01/2020 10:51:53	26012020	260120	105153	102.440	12.418760	-57.245023	102.490	-0.320	-0.100	2.780	102.440	-1.600	3.200																			1580035913.0	0.74	1.37
26/01/2020 10:51:54	26012020	260120	105154	102.530	12.418758	-57.245025	102.590	-0.380	0.400	2.380	102.550	-1.100	3.000																			1580035914.0	0.47	0.87
26/01/2020 10:51:55	26012020	260120	105155	102.610	12.418760	-57.245027	102.640	-0.250	0.640	1.600	102.630	-0.800	2.300																			1580035915.0	0.39	0.72
26/01/2020 10:51:56	26012020	260120	105156	102.670	12.418763	-57.245027	102.650	0.100	0.460	0.530	102.680	-0.800	1.400																			1580035916.0	0.72	1.33
26/01/2020 10:51:57	26012020	260120	105157	102.720	12.418768	-57.245025	102.700	0.500	0.060	-0.610	102.740	-1.100	0.200																			1580035917.0	1.24	2.30
26/01/2020 10:51:58	26012020	260120	105158	102.810	12.418775	-57.245022	102.750	0.690	-0.230	-1.470	102.820	-1.500	-0.800																			1580035918.0	1.46	2.70
26/01/2020 10:51:59	26012020	260120	105159	102.850	12.418780	-57.245022	102.750	0.590	-0.330	-1.820	102.850	-1.600	-1.300																			1580035919.0	1.22	2.26
26/01/2020 10:52:00	26012020	260120	105200	102.820	12.418783	-57.245022	102.690	0.330	-0.430	-1.600	102.800	-1.700	-1.400	1014.60	25.60	25.70	18.40	18.50	90.00	64.00	64.00	376.00	25.50	356.00	7.60	98.00	7.20	5540	3276.00	27.40	27.40	1580035920.0	0.75	1.39
26/01/2020 10:52:01	26012020	260120	105201	102.720	12.418785	-57.245022	102.590	0.000	-0.540	-0.800	102.700	-1.800	-0.800																			1580035921.0	0.14	0.26
26/01/2020 10:52:02	26012020	260120	105202	102.600	12.418780	-57.245023	102.480	-0.400	-0.430	0.490	102.570	-1.800	0.300																			1580035922.0	0.85	1.57
26/01/2020 10:52:03	26012020	260120	105203	102.440	12.418773	-57.245027	102.320	-0.810	-0.090	2.020	102.400	-1.600	1.800																			1580035923.0	1.76	3.26
26/01/2020 10:52:04	26012020	260120	105204	102.210	12.418763	-57.245030	102.090	-1.010	0.130	3.340	102.160	-1.300	3.300																			1580035924.0	2.27	4.20
26/01/2020 10:52:05	26012020	260120	105205	101.960	12.418753	-57.245033	101.900	-0.810	-0.000	4.020	101.930	-1.200	4.200																			1580035925.0	2.04	3.78
26/01/2020 10:52:06	26012020	260120	105206	101.830	12.418748	-57.245033	101.860	-0.230	-0.280	3.890	101.820	-1.500	4.400																			1580035926.0	1.32	2.44
26/01/2020 10:52:07	26012020	260120	105207	101.860	12.418747	-57.245032	101.980	0.390	-0.250	2.920	101.880	-1.700	3.800																			1580035927.0	0.40	0.74
26/01/2020 10:52:08	26012020	260120	105208	102.070	12.418752	-57.245032	102.160	0.740	0.120	1.220	102.120	-1.400	2.400																			1580035928.0	1.07	1.98
26/01/2020 10:52:09	26012020	260120	105209	102.250	12.418762	-57.245032	102.290	0.780	0.400	-0.760	102.290	-1.000	0.400																			1580035929.0	2.28	4.22
26/01/2020 10:52:10	26012020	260120	105210	102.420	12.418775	-57.245030	102.310	0.670	0.200	-2.370	102.430	-1.000	-1.400																			1580035930.0	2.78	5.15
26/01/2020 10:52:11	26012020	260120	105211	102.430	12.418785	-57.245027	102.280	0.500	-0.320	-3.160	102.420	-1.400	-2.500																			1580035931.0	2.29	4.24
26/01/2020 10:52:12	26012020	260120	105212	102.390	12.418790	-57.245025	102.250	0.260	-0.670	-3.020	102.390	-1.900	-2.800																			1580035932.0	1.23	2.28
26/01/2020 10:52:13	26012020	260120	105213	102.330	12.418790	-57.245025	102.150	-0.070	-0.590	-1.920	102.290	-2.000	-2.100																			1580035933.0	0.17	0.31
26/01/2020 10:52:14	26012020	260120	105214	102.120	12.418783	-57.245027	101.940	-0.430	-0.240	-0.160	102.070	-1.700	-0.500																			1580035934.0	1.51	2.80
26/01/2020 10:52:15	26012020	260120	105215	101.870	12.418773	-57.245032	101.780	-0.700	0.070	1.660	101.830	-1.400	1.400																			1580035935.0	2.36	4.37
26/01/2020 10:52:16	26012020	260120	105216	101.760	12.418762	-57.245035	101.820	-0.730	0.150	3.060	101.770	-1.200	3.000																			1580035936.0	2.43	4.50
26/01/2020 10:52:17	26012020	260120	105217	101.870	12.418753	-57.245037	102.040	-0.510	-0.010	3.860	101.920	-1.300	4.000																			1580035937.0	1.93	3.57
26/01/2020 10:52:18	26012020	260120	105218	102.120	12.418748	-57.245037	102.330	-0.190	-0.130	3.930	102.180	-1.400	4.400																			1580035938.0	1.18	2.19
26/01/2020 10:52:19	26012020	260120	105219	102.370	12.418747	-57.245037	102.590	0.060	0.010	3.280	102.420	-1.400	4.000																			1580035939.0	0.26	0.48
26/01/2020 10:52:20	26012020	260120	105220	102.660	12.418750	-57.245037	102.710	0.180	0.250	2.130	102.690	-1.200	3.000																			1580035940.0	0.73	1.35
26/01/2020 10:52:21	26012020	260120	105221	102.720	12.418757	-57.245038	102.620	0.230	0.210	0.840	102.720	-1.100	1.800																			1580035941.0	1.38	2.56
26/01/2020 10:52:22	26012020	260120	105222	102.580	12.418763	-57.245037	102.420	0.280	-0.190	-0.390	102.550	-1.300	0.500																			1580035942.0	1.61	2.98
26/01/2020 10:52:23	26012020	260120	105223	102.390	12.418772	-57.245035	102.220	0.370	-0.640	-1.370	102.360	-1.800	-0.600																			1580035943.0	1.62	3.00
26/01/2020 10:52:24	26012020	260120	105224	102.240	12.418777	-57.245032	102.090	0.450	-0.810	-1.900	102.220	-2.100	-1.300																			1580035944.0	1.36	2.52
26/01/2020 10:52:25	26012020	260120	105225	102.170	12.418780	-57.245032	102.080	0.430	-0.620	-1.910	102.160	-2.100	-1.500																			1580035945.0	0.73	1.35
26/01/2020 10:52:26	26012020	260120	105226	102.210	12.418780	-57.245032	102.190	0.290	-0.190	-1.490	102.230	-1.700	-1.300																			1580035946.0	0.22	0.41
26/01/2020 10:52:27	26012020	260120	105227	102.330	12.418778	-57.245033	102.310	0.050	0.220	-0.680	102.340	-1.300	-0.600																			1580035947.0	0.53	0.98
26/01/2020 10:52:28	26012020	260120	105228	102.400	12.418775	-57.245037	102.390	-0.200	0.440	0.480	102.400	-1.000	0.400																			1580035948.0	0.96	1.78
26/01/2020 10:52:29	26012020	260120	105229	102.460	12.418768	-57.245038	102.530	-0.400	0.470	1.720	102.490	-0.900	1.600																			1580035949.0	1.38	2.56
26/01/2020 10:52:30	26012020	260120	105230	102.610	12.418762	-57.245040	102.690	-0.530	0.340	2.820	102.630	-0.900	2.800																			1580035950.0	1.58	2.93
26/01/2020 10:52:31	26012020	260120	105231	102.700	12.418755	-57.245042	102.730	-0.550	0.020	3.560	102.700	-1.200	3.700																			1580035951.0	1.48	2.74
26/01/2020 10:52:32	26012020	260120	105232	102.680	12.418750	-57.245043	102.680	-0.430	-0.370	3.750	102.670	-1.600	4.100																			1580035952.0	1.08	2.00
26/01/2020 10:52:33	26012020	260120	105233	102.610	12.418748	-57.245043	102.580	-0.170	-0.610	3.380	102.590	-1.900	4.000																			1580035953.0	0.45	0.83
26/01/2020 10:52:34	26012020	260120	105234	102.520	12.418750	-57.245042	102.500	0.150	-0.640	2.490	102.500	-2.000	3.300																			1580035954.0	0.34	0.63
26/01/2020 10:52:35	26012020	260120	105235	102.500	12.418755	-57.245042	102.510	0.400	-0.430	1.200	102.500	-1.900	2.200																			1580035955.0	1.05	1.94
26/01/2020 10:52:36	26012020	260120	105236	102.570	12.418762	-57.245040	102.560	0.480	-0.160	-0.220	102.590	-1.600	0.800																			1580035956.0	1.59	2.94
26/01/2020 10:52:37	26012020	260120	105237	102.660	12.418770	-57.245040	102.610	0.400	0.070	-1.490	102.670	-1.400	-0.600																			1580035957.0	1.78	3.30
26/01/2020 10:52:38	26012020	260120	105238	102.730	12.418778	-57.245038	102.660	0.210	0.200	-2.320	102.740	-1.200	-1.600																			1580035958.0	1.62	3.00
26/01/2020 10:52:39	26012020	260120	105239	102.790	12.418782	-57.245038	102.710	0.010	0.170	-2.430	102.800	-1.100	-2.100																			1580035959.0	1.05	1.94
26/01/2020 10:52:40	26012020	260120	105240	102.850	12.418783	-57.245038	102.800	-0.110	-0.040	-1.850	102.870	-1.300	-1.700																			1580035960.0	0.14	0.26
26/01/2020 10:52:41	26012020	260120	105241	102.900	12.418780	-57.245038	102.840	-0.100	-0.300	-0.720	102.910	-1.600	-0.800																			1580035961.0	0.77	1.43
26/01/2020 10:52:42	26012020	260120	105242	102.880	12.418773	-57.245038	102.810	-0.030	-0.400	0.720	102.870	-1.700	0.500																			1580035962.0	1.46	2.70
26/01/2020 10:52:43	26012020	260120	105243	102.820	12.418765	-57.245040	102.780	0.020	-0.250	2.100	102.810	-1.700	2.000																			1580035963.0	1.73	3.20
26/01/2020 10:52:44	26012020	260120	105244	102.780	12.418758	-57.245043	102.790	-0.020	0.030	3.120	102.770	-1.400	3.200																			1580035964.0	1.55	2.87
26/01/2020 10:52:45	26012020	260120	105245	102.790	12.418753	-57.245045	102.860	-0.150	0.270	3.590	102.800	-1.200	3.900																			1580035965.0	1.04	1.93
26/01/2020 10:52:46	26012020	260120	105246	102.910	12.418752	-57.245047	103.050	-0.310	0.330	3.420	102.950	-1.000	4.000																			1580035966.0	0.50	0.93
26/01/2020 10:52:47	26012020	260120	105247	103.130	12.418753	-57.245048	103.260	-0.380	0.130	2.700	103.180	-1.100	3.400																			1580035967.0	0.22	0.41
26/01/2020 10:52:48	26012020	260120	105248	103.340	12.418755	-57.245047	103.360	-0.290	-0.300	1.720	103.360	-1.400	2.500																			1580035968.0	0.54	1.00
26/01/2020 10:52:49	26012020	260120	105249	103.360	12.418758	-57.245045	103.230	-0.050	-0.780	0.770	103.330	-1.900	1.600																			1580035969.0	0.80	1.48
26/01/2020 10:52:50	26012020	260120	105250	103.160	12.418762	-57.245042	102.950	0.200	-0.970	-0.130	103.100	-2.300	0.700																			1580035970.0	0.97	1.80
26/01/2020 10:52:51	26012020	260120	105251	102.910	12.418767	-57.245040	102.730	0.320	-0.660	-0.950	102.870	-2.200	-0.200																			1580035971.0	1.07	1.98
26/01/2020 10:52:52	26012020	260120	105252	102.760	12.418772	-57.245040	102.620	0.290	-0.070	-1.540	102.740	-1.700	-0.900																			1580035972.0	1.09	2.02
26/01/2020 10:52:53	26012020	260120	105253	102.710	12.418777	-57.245042	102.650	0.190	0.460	-1.770	102.720	-1.100	-1.300																			1580035973.0	0.91	1.69
26/01/2020 10:52:54	26012020	260120	105254	102.830	12.418778	-57.245042	102.880	0.100	0.720	-1.650	102.880	-0.700	-1.300																			1580035974.0	0.53	0.98
26/01/2020 10:52:55	26012020	260120	105255	103.040	12.418778	-57.245042	103.190	0.040	0.660	-1.110	103.100	-0.600	-1.000																			1580035975.0	0.08	0.15
26/01/2020 10:52:56	26012020	260120	105256	103.390	12.418775	-57.245043	103.440	0.020	0.320	-0.150	103.440	-0.900	-0.200																			1580035976.0	0.64	1.19
26/01/2020 10:52:57	26012020	260120	105257	103.540	12.418770	-57.245043	103.520	0.040	-0.150	1.110	103.550	-1.300	1.000																			1580035977.0	1.21	2.24
26/01/2020 10:52:58	26012020	260120	105258	103.510	12.418763	-57.245043	103.410	0.030	-0.590	2.420	103.480	-1.800	2.300																			1580035978.0	1.52	2.82
26/01/2020 10:52:59	26012020	260120	105259	103.320	12.418755	-57.245045	103.220	-0.040	-0.840	3.490	103.280	-2.100	3.500																			1580035979.0	1.50	2.78
26/01/2020 10:53:00	26012020	260120	105300	103.110	12.418750	-57.245047	103.020	-0.160	-0.810	4.100	103.060	-2.200	4.300	1014.60	25.70	25.80	19.00	19.10	92.00	66.00	66.00	376.00	25.50	348.00	7.50	90.00	7.00	5720	3171.00	27.40	27.40	1580035980.0	1.21	2.24
26/01/2020 10:53:01	26012020	260120	105301	102.880	12.418747	-57.245047	102.800	-0.290	-0.530	4.090	102.840	-2.000	4.600																			1580035981.0	0.73	1.35
26/01/2020 10:53:02	26012020	260120	105302	102.690	12.418747	-57.245048	102.630	-0.340	-0.220	3.430	102.660	-1.700	4.200																			1580035982.0	0.14	0.26
26/01/2020 10:53:03	26012020	260120	105303	102.570	12.418750	-57.245047	102.510	-0.270	-0.070	2.240	102.550	-1.400	3.200																			1580035983.0	0.65	1.20
26/01/2020 10:53:04	26012020	260120	105304	102.490	12.418755	-57.245045	102.440	-0.140	0.000	0.680	102.490	-1.400	1.700																			1580035984.0	1.26	2.33
26/01/2020 10:53:05	26012020	260120	105305	102.540	12.418762	-57.245042	102.560	-0.020	0.280	-1.000	102.570	-1.200	0.100																			1580035985.0	1.66	3.07
26/01/2020 10:53:06	26012020	260120	105306	102.760	12.418770	-57.245040	102.790	0.060	0.670	-2.380	102.810	-0.800	-1.500																			1580035986.0	1.73	3.20
26/01/2020 10:53:07	26012020	260120	105307	103.020	12.418777	-57.245040	103.000	0.180	0.780	-3.110	103.060	-0.500	-2.500																			1580035987.0	1.49	2.76
26/01/2020 10:53:08	26012020	260120	105308	103.200	12.418782	-57.245040	103.100	0.420	0.340	-3.070	103.210	-0.800	-2.800																			1580035988.0	0.88	1.63
26/01/2020 10:53:09	26012020	260120	105309	103.230	12.418782	-57.245038	103.080	0.650	-0.430	-2.270	103.230	-1.500	-2.300																			1580035989.0	0.39	0.72
26/01/2020 10:53:10	26012020	260120	105310	103.110	12.418778	-57.245037	102.900	0.630	-1.000	-0.720	103.060	-2.200	-1.000																			1580035990.0	0.83	1.54
26/01/2020 10:53:11	26012020	260120	105311	102.890	12.418772	-57.245037	102.620	0.310	-1.070	1.400	102.820	-2.400	0.900																			1580035991.0	1.60	2.96
26/01/2020 10:53:12	26012020	260120	105312	102.510	12.418760	-57.245040	102.430	-0.140	-0.710	3.440	102.470	-2.200	3.100																			1580035992.0	2.24	4.15
26/01/2020 10:53:13	26012020	260120	105313	102.360	12.418750	-57.245043	102.410	-0.520	-0.250	4.820	102.350	-1.800	4.700																			1580035993.0	2.27	4.20
26/01/2020 10:53:14	26012020	260120	105314	102.350	12.418743	-57.245047	102.430	-0.700	-0.010	5.400	102.360	-1.400	5.600																			1580035994.0	1.75	3.24
26/01/2020 10:53:15	26012020	260120	105315	102.330	12.418738	-57.245047	102.340	-0.670	0.030	5.240	102.310	-1.300	5.800																			1580035995.0	1.07	1.98
26/01/2020 10:53:16	26012020	260120	105316	102.220	12.418737	-57.245045	102.240	-0.500	0.110	4.250	102.210	-1.300	5.100																			1580035996.0	0.47	0.87
26/01/2020 10:53:17	26012020	260120	105317	102.240	12.418740	-57.245043	102.370	-0.250	0.360	2.390	102.280	-1.100	3.600																			1580035997.0	0.86	1.59
26/01/2020 10:53:18	26012020	260120	105318	102.530	12.418748	-57.245042	102.690	0.000	0.640	0.020	102.610	-0.800	1.400																			1580035998.0	1.94	3.59
26/01/2020 10:53:19	26012020	260120	105319	102.920	12.418762	-57.245040	102.980	0.250	0.570	-2.210	102.980	-0.700	-1.000																			1580035999.0	2.66	4.93
26/01/2020 10:53:20	26012020	260120	105320	103.180	12.418773	-57.245037	103.120	0.480	0.050	-3.730	103.220	-1.100	-2.800																			1580036000.0	2.63	4.87
26/01/2020 10:53:21	26012020	260120	105321	103.260	12.418782	-57.245033	103.050	0.600	-0.600	-4.170	103.240	-1.700	-3.700																			1580036001.0	1.96	3.63
26/01/2020 10:53:22	26012020	260120	105322	103.090	12.418785	-57.245030	102.790	0.570	-1.030	-3.450	103.020	-2.200	-3.500																			1580036002.0	0.84	1.56
26/01/2020 10:53:23	26012020	260120	105323	102.750	12.418782	-57.245030	102.490	0.370	-1.040	-1.770	102.680	-2.400	-2.100																			1580036003.0	0.65	1.20
26/01/2020 10:53:24	26012020	260120	105324	102.450	12.418773	-57.245032	102.350	0.090	-0.630	0.420	102.420	-2.200	-0.100																			1580036004.0	1.82	3.37
26/01/2020 10:53:25	26012020	260120	105325	102.380	12.418762	-57.245037	102.450	-0.160	-0.050	2.550	102.390	-1.600	2.100																			1580036005.0	2.55	4.72
26/01/2020 10:53:26	26012020	260120	105326	102.520	12.418750	-57.245040	102.710	-0.350	0.420	4.140	102.570	-1.100	4.000																			1580036006.0	2.59	4.80
26/01/2020 10:53:27	26012020	260120	105327	102.770	12.418742	-57.245042	102.940	-0.430	0.540	4.970	102.810	-0.800	5.100																			1580036007.0	2.02	3.74
26/01/2020 10:53:28	26012020	260120	105328	102.900	12.418737	-57.245043	102.960	-0.370	0.280	4.980	102.900	-0.900	5.500																			1580036008.0	1.08	2.00
26/01/2020 10:53:29	26012020	260120	105329	102.880	12.418737	-57.245042	102.910	-0.200	-0.140	4.200	102.870	-1.300	5.000																			1580036009.0	0.44	0.81
26/01/2020 10:53:30	26012020	260120	105330	102.850	12.418740	-57.245038	102.870	-0.010	-0.410	2.800	102.850	-1.700	3.800																			1580036010.0	1.02	1.89
26/01/2020 10:53:31	26012020	260120	105331	102.870	12.418747	-57.245035	102.870	0.140	-0.420	1.060	102.870	-1.800	2.200																			1580036011.0	1.61	2.98
26/01/2020 10:53:32	26012020	260120	105332	102.920	12.418755	-57.245033	102.900	0.180	-0.250	-0.730	102.930	-1.700	0.400																			1580036012.0	2.05	3.80
26/01/2020 10:53:33	26012020	260120	105333	102.990	12.418765	-57.245030	102.940	0.100	-0.010	-2.190	103.010	-1.500	-1.200																			1580036013.0	2.10	3.89
26/01/2020 10:53:34	26012020	260120	105334	103.050	12.418773	-57.245030	102.970	-0.050	0.220	-3.020	103.060	-1.200	-2.300																			1580036014.0	1.63	3.02
26/01/2020 10:53:35	26012020	260120	105335	103.100	12.418777	-57.245030	103.030	-0.110	0.370	-3.050	103.110	-1.000	-2.700																			1580036015.0	0.85	1.57
26/01/2020 10:53:36	26012020	260120	105336	103.140	12.418777	-57.245030	103.070	-0.030	0.250	-2.280	103.150	-1.000	-2.300																			1580036016.0	0.20	0.37
26/01/2020 10:53:37	26012020	260120	105337	103.160	12.418773	-57.245032	103.120	0.140	-0.210	-0.920	103.160	-1.300	-1.100																			1580036017.0	0.86	1.59
26/01/2020 10:53:38	26012020	260120	105338	103.170	12.418765	-57.245032	103.130	0.240	-0.710	0.780	103.160	-1.900	0.500																			1580036018.0	1.52	2.82
26/01/2020 10:53:39	26012020	260120	105339	103.100	12.418757	-57.245032	103.050	0.170	-0.920	2.530	103.070	-2.200	2.200																			1580036019.0	1.88	3.48
26/01/2020 10:53:40	26012020	260120	105340	102.940	12.418748	-57.245033	102.890	-0.000	-0.740	4.010	102.900	-2.200	3.800																			1580036020.0	1.96	3.63
26/01/2020 10:53:41	26012020	260120	105341	102.720	12.418740	-57.245035	102.670	-0.110	-0.370	4.860	102.680	-1.900	5.000																			1580036021.0	1.65	3.06
26/01/2020 10:53:42	26012020	260120	105342	102.510	12.418737	-57.245035	102.510	-0.080	0.000	4.840	102.480	-1.500	5.300																			1580036022.0	0.82	1.52
26/01/2020 10:53:43	26012020	260120	105343	102.430	12.418738	-57.245035	102.530	-0.040	0.310	3.880	102.440	-1.200	4.800																			1580036023.0	0.26	0.48
26/01/2020 10:53:44	26012020	260120	105344	102.590	12.418743	-57.245033	102.760	-0.100	0.500	2.220	102.650	-0.900	3.300																			1580036024.0	1.24	2.30
26/01/2020 10:53:45	26012020	260120	105345	102.920	12.418752	-57.245032	103.050	-0.210	0.520	0.330	102.990	-0.800	1.500																			1580036025.0	1.84	3.41
26/01/2020 10:53:46	26012020	260120	105346	103.220	12.418762	-57.245030	103.230	-0.210	0.360	-1.380	103.260	-0.900	-0.300																			1580036026.0	1.98	3.67
26/01/2020 10:53:47	26012020	260120	105347	103.340	12.418768	-57.245027	103.210	-0.040	0.030	-2.570	103.350	-1.200	-1.800																			1580036027.0	1.78	3.30
26/01/2020 10:53:48	26012020	260120	105348	103.250	12.418775	-57.245025	103.030	0.200	-0.320	-2.970	103.210	-1.500	-2.500																			1580036028.0	1.28	2.37
26/01/2020 10:53:49	26012020	260120	105349	103.090	12.418777	-57.245025	102.860	0.330	-0.520	-2.560	103.050	-1.800	-2.400																			1580036029.0	0.51	0.94
26/01/2020 10:53:50	26012020	260120	105350	102.880	12.418775	-57.245025	102.720	0.320	-0.660	-1.430	102.840	-2.000	-1.600																			1580036030.0	0.29	0.54
26/01/2020 10:53:51	26012020	260120	105351	102.710	12.418772	-57.245025	102.600	0.200	-0.770	0.050	102.680	-2.100	-0.200																			1580036031.0	0.98	1.81
26/01/2020 10:53:52	26012020	260120	105352	102.590	12.418765	-57.245027	102.550	-0.060	-0.610	1.550	102.570	-2.100	1.300																			1580036032.0	1.41	2.61
26/01/2020 10:53:53	26012020	260120	105353	102.530	12.418757	-57.245028	102.550	-0.400	-0.140	2.910	102.530	-1.700	2.800																			1580036033.0	1.63	3.02
26/01/2020 10:53:54	26012020	260120	105354	102.520	12.418750	-57.245030	102.580	-0.630	0.350	3.970	102.530	-1.200	4.000																			1580036034.0	1.78	3.30
26/01/2020 10:53:55	26012020	260120	105355	102.550	12.418743	-57.245033	102.620	-0.570	0.480	4.470	102.550	-0.900	4.700																			1580036035.0	1.57	2.91
26/01/2020 10:53:56	26012020	260120	105356	102.590	12.418738	-57.245033	102.650	-0.190	0.200	4.120	102.600	-1.000	4.700																			1580036036.0	0.86	1.59
26/01/2020 10:53:57	26012020	260120	105357	102.620	12.418740	-57.245032	102.650	0.300	-0.140	2.930	102.630	-1.400	3.900																			1580036037.0	0.61	1.13
26/01/2020 10:53:58	26012020	260120	105358	102.660	12.418747	-57.245028	102.640	0.650	-0.230	1.180	102.670	-1.600	2.300																			1580036038.0	1.67	3.09
26/01/2020 10:53:59	26012020	260120	105359	102.680	12.418758	-57.245025	102.640	0.720	-0.090	-0.600	102.680	-1.500	0.500																			1580036039.0	2.50	4.63
26/01/2020 10:54:00	26012020	260120	105400	102.770	12.418770	-57.245023	102.750	0.530	0.090	-2.010	102.800	-1.300	-1.100	1014.60	25.60	25.70	18.60	18.70	96.00	65.00	65.00	376.00	25.50	346.00	7.80	88.00	7.10	5908	3172.00	27.40	27.40	1580036040.0	2.59	4.80
26/01/2020 10:54:01	26012020	260120	105401	102.940	12.418778	-57.245022	102.890	0.200	0.100	-2.730	102.970	-1.200	-2.100																			1580036041.0	1.98	3.67
26/01/2020 10:54:02	26012020	260120	105402	103.020	12.418783	-57.245022	102.850	-0.160	-0.180	-2.530	103.010	-1.400	-2.300																			1580036042.0	0.88	1.63
26/01/2020 10:54:03	26012020	260120	105403	102.860	12.418782	-57.245022	102.590	-0.440	-0.560	-1.370	102.810	-1.800	-1.500																			1580036043.0	0.48	0.89
26/01/2020 10:54:04	26012020	260120	105404	102.510	12.418773	-57.245022	102.260	-0.590	-0.710	0.390	102.430	-2.000	0.000																			1580036044.0	1.64	3.04
26/01/2020 10:54:05	26012020	260120	105405	102.160	12.418763	-57.245023	102.070	-0.570	-0.520	2.120	102.120	-2.000	1.800																			1580036045.0	2.33	4.32
26/01/2020 10:54:06	26012020	260120	105406	102.050	12.418752	-57.245027	102.120	-0.360	-0.210	3.310	102.060	-1.700	3.300																			1580036046.0	2.27	4.20
26/01/2020 10:54:07	26012020	260120	105407	102.150	12.418745	-57.245028	102.260	-0.020	-0.000	3.790	102.180	-1.400	4.100																			1580036047.0	1.56	2.89
26/01/2020 10:54:08	26012020	260120	105408	102.270	12.418743	-57.245028	102.340	0.300	0.170	3.530	102.290	-1.300	4.100																			1580036048.0	0.55	1.02
26/01/2020 10:54:09	26012020	260120	105409	102.350	12.418745	-57.245027	102.410	0.420	0.390	2.590	102.370	-1.100	3.400																			1580036049.0	0.64	1.19
26/01/2020 10:54:10	26012020	260120	105410	102.460	12.418753	-57.245027	102.510	0.340	0.530	1.200	102.490	-0.900	2.200																			1580036050.0	1.70	3.15
26/01/2020 10:54:11	26012020	260120	105411	102.620	12.418763	-57.245025	102.650	0.210	0.360	-0.230	102.650	-0.900	0.700																			1580036051.0	2.20	4.07
26/01/2020 10:54:12	26012020	260120	105412	102.760	12.418772	-57.245023	102.700	0.130	-0.210	-1.290	102.770	-1.300	-0.500																			1580036052.0	1.92	3.56
26/01/2020 10:54:13	26012020	260120	105413	102.760	12.418777	-57.245020	102.560	0.120	-0.870	-1.670	102.730	-2.000	-1.200																			1580036053.0	1.19	2.20
26/01/2020 10:54:14	26012020	260120	105414	102.510	12.418777	-57.245017	102.220	0.080	-1.170	-1.330	102.450	-2.500	-1.100																			1580036054.0	0.54	1.00
26/01/2020 10:54:15	26012020	260120	105415	102.150	12.418775	-57.245017	101.930	-0.020	-0.820	-0.610	102.090	-2.400	-0.500																			1580036055.0	0.55	1.02
26/01/2020 10:54:16	26012020	260120	105416	101.950	12.418772	-57.245020	101.930	-0.170	-0.050	0.130	101.960	-1.700	0.200																			1580036056.0	0.85	1.57
26/01/2020 10:54:17	26012020	260120	105417	102.070	12.418768	-57.245023	102.170	-0.290	0.610	0.800	102.110	-1.000	0.900																			1580036057.0	1.05	1.94
26/01/2020 10:54:18	26012020	260120	105418	102.330	12.418765	-57.245025	102.470	-0.320	0.810	1.310	102.390	-0.600	1.500																			1580036058.0	0.94	1.74
26/01/2020 10:54:19	26012020	260120	105419	102.610	12.418762	-57.245027	102.690	-0.260	0.490	1.690	102.650	-0.700	1.900																			1580036059.0	0.69	1.28
26/01/2020 10:54:20	26012020	260120	105420	102.720	12.418758	-57.245025	102.670	-0.100	-0.140	2.030	102.710	-1.300	2.300																			1580036060.0	0.61	1.13
26/01/2020 10:54:21	26012020	260120	105421	102.620	12.418757	-57.245023	102.550	0.070	-0.560	2.200	102.600	-1.800	2.500																			1580036061.0	0.57	1.06
26/01/2020 10:54:22	26012020	260120	105422	102.520	12.418757	-57.245022	102.490	0.170	-0.570	2.070	102.510	-2.000	2.500																			1580036062.0	0.16	0.30
26/01/2020 10:54:23	26012020	260120	105423	102.500	12.418758	-57.245023	102.460	0.220	-0.400	1.660	102.490	-1.800	2.200																			1580036063.0	0.36	0.67
26/01/2020 10:54:24	26012020	260120	105424	102.440	12.418762	-57.245023	102.370	0.260	-0.310	1.100	102.430	-1.700	1.700																			1580036064.0	0.64	1.19
26/01/2020 10:54:25	26012020	260120	105425	102.380	12.418765	-57.245022	102.310	0.280	-0.270	0.450	102.370	-1.700	1.100																			1580036065.0	0.87	1.61
26/01/2020 10:54:26	26012020	260120	105426	102.360	12.418770	-57.245020	102.350	0.220	-0.130	-0.180	102.370	-1.600	0.500																			1580036066.0	0.98	1.81
26/01/2020 10:54:27	26012020	260120	105427	102.480	12.418773	-57.245020	102.520	0.040	0.170	-0.690	102.510	-1.300	-0.100																			1580036067.0	0.86	1.59
26/01/2020 10:54:28	26012020	260120	105428	102.680	12.418777	-57.245020	102.710	-0.200	0.430	-0.870	102.720	-1.000	-0.400																			1580036068.0	0.58	1.07
26/01/2020 10:54:29	26012020	260120	105429	102.820	12.418777	-57.245022	102.780	-0.340	0.340	-0.610	102.830	-0.900	-0.400																			1580036069.0	0.25	0.46
26/01/2020 10:54:30	26012020	260120	105430	102.820	12.418775	-57.245022	102.740	-0.290	-0.070	0.020	102.810	-1.200	0.100																			1580036070.0	0.49	0.91
26/01/2020 10:54:31	26012020	260120	105431	102.740	12.418770	-57.245022	102.660	-0.110	-0.500	0.790	102.720	-1.700	0.900																			1580036071.0	0.91	1.69
26/01/2020 10:54:32	26012020	260120	105432	102.630	12.418765	-57.245022	102.590	0.050	-0.650	1.480	102.620	-2.000	1.600																			1580036072.0	0.97	1.80
26/01/2020 10:54:33	26012020	260120	105433	102.570	12.418762	-57.245022	102.560	0.080	-0.440	2.020	102.560	-1.900	2.200																			1580036073.0	0.80	1.48
26/01/2020 10:54:34	26012020	260120	105434	102.530	12.418760	-57.245023	102.520	0.020	-0.110	2.290	102.520	-1.600	2.600																			1580036074.0	0.61	1.13
26/01/2020 10:54:35	26012020	260120	105435	102.500	12.418760	-57.245025	102.520	-0.030	0.110	2.110	102.500	-1.300	2.600																			1580036075.0	0.29	0.54
26/01/2020 10:54:36	26012020	260120	105436	102.550	12.418762	-57.245025	102.600	-0.020	0.150	1.580	102.570	-1.200	2.200																			1580036076.0	0.36	0.67
26/01/2020 10:54:37	26012020	260120	105437	102.630	12.418763	-57.245023	102.660	0.020	0.060	0.940	102.650	-1.300	1.600																			1580036077.0	0.63	1.17
26/01/2020 10:54:38	26012020	260120	105438	102.700	12.418767	-57.245023	102.670	0.090	-0.040	0.330	102.710	-1.400	1.000																			1580036078.0	0.69	1.28
26/01/2020 10:54:39	26012020	260120	105439	102.700	12.418770	-57.245022	102.610	0.150	-0.140	-0.140	102.690	-1.500	0.400																			1580036079.0	0.66	1.22
26/01/2020 10:54:40	26012020	260120	105440	102.620	12.418772	-57.245020	102.530	0.180	-0.120	-0.480	102.610	-1.500	0.100																			1580036080.0	0.58	1.07
26/01/2020 10:54:41	26012020	260120	105441	102.560	12.418775	-57.245022	102.470	0.170	-0.040	-0.630	102.550	-1.400	-0.200																			1580036081.0	0.56	1.04
26/01/2020 10:54:42	26012020	260120	105442	102.530	12.418777	-57.245022	102.460	0.090	-0.090	-0.460	102.530	-1.400	-0.200																			1580036082.0	0.38	0.70
26/01/2020 10:54:43	26012020	260120	105443	102.530	12.418777	-57.245022	102.470	-0.020	-0.360	0.000	102.530	-1.600	0.200																			1580036083.0	0.12	0.22
26/01/2020 10:54:44	26012020	260120	105444	102.490	12.418773	-57.245020	102.370	-0.130	-0.640	0.740	102.460	-1.900	0.800																			1580036084.0	0.69	1.28
26/01/2020 10:54:45	26012020	260120	105445	102.320	12.418768	-57.245020	102.210	-0.260	-0.580	1.560	102.280	-2.000	1.600																			1580036085.0	1.04	1.93
26/01/2020 10:54:46	26012020	260120	105446	102.150	12.418763	-57.245022	102.080	-0.400	-0.110	2.230	102.110	-1.700	2.400																			1580036086.0	1.15	2.13
26/01/2020 10:54:47	26012020	260120	105447	102.040	12.418758	-57.245025	102.040	-0.400	0.420	2.480	102.040	-1.100	2.800																			1580036087.0	1.04	1.93
26/01/2020 10:54:48	26012020	260120	105448	102.050	12.418758	-57.245027	102.090	-0.190	0.640	2.180	102.060	-0.800	2.800																			1580036088.0	0.49	0.91
26/01/2020 10:54:49	26012020	260120	105449	102.140	12.418760	-57.245027	102.240	0.110	0.440	1.450	102.160	-0.800	2.200																			1580036089.0	0.44	0.81
26/01/2020 10:54:50	26012020	260120	105450	102.350	12.418763	-57.245023	102.420	0.330	0.030	0.560	102.400	-1.200	1.300																			1580036090.0	0.99	1.83
26/01/2020 10:54:51	26012020	260120	105451	102.540	12.418768	-57.245022	102.520	0.420	-0.340	-0.250	102.560	-1.600	0.500																			1580036091.0	1.19	2.20
26/01/2020 10:54:52	26012020	260120	105452	102.590	12.418773	-57.245020	102.450	0.430	-0.580	-0.700	102.580	-1.900	-0.200																			1580036092.0	1.08	2.00
26/01/2020 10:54:53	26012020	260120	105453	102.440	12.418777	-57.245020	102.220	0.390	-0.750	-0.630	102.390	-2.100	-0.300																			1580036093.0	0.73	1.35
26/01/2020 10:54:54	26012020	260120	105454	102.140	12.418777	-57.245018	101.900	0.230	-0.780	-0.060	102.070	-2.200	0.100																			1580036094.0	0.16	0.30
26/01/2020 10:54:55	26012020	260120	105455	101.810	12.418775	-57.245018	101.640	-0.060	-0.540	0.710	101.760	-2.000	0.800																			1580036095.0	0.56	1.04
26/01/2020 10:54:56	26012020	260120	105456	101.610	12.418770	-57.245020	101.600	-0.420	-0.030	1.360	101.600	-1.600	1.500																			1580036096.0	0.99	1.83
26/01/2020 10:54:57	26012020	260120	105457	101.680	12.418767	-57.245022	101.810	-0.670	0.540	1.730	101.730	-1.000	2.000																			1580036097.0	1.08	2.00
26/01/2020 10:54:58	26012020	260120	105458	101.950	12.418762	-57.245025	102.100	-0.680	0.810	1.770	102.010	-0.600	2.200																			1580036098.0	0.91	1.69
26/01/2020 10:54:59	26012020	260120	105459	102.240	12.418762	-57.245025	102.360	-0.440	0.650	1.490	102.290	-0.600	2.000																			1580036099.0	0.36	0.67
26/01/2020 10:55:00	26012020	260120	105500	102.470	12.418762	-57.245025	102.500	-0.020	0.100	1.030	102.500	-1.000	1.600	1014.60	25.70	25.70	18.70	18.80	98.00	65.00	65.00	376.00	25.60	347.00	8.10	89.00	7.70	6095	3260.00	27.40	27.40	1580036100.0	0.30	0.56
26/01/2020 10:55:01	26012020	260120	105501	102.540	12.418763	-57.245022	102.470	0.390	-0.530	0.620	102.540	-1.700	1.200																			1580036101.0	0.75	1.39
26/01/2020 10:55:02	26012020	260120	105502	102.460	12.418767	-57.245020	102.340	0.580	-0.830	0.370	102.430	-2.100	0.900																			1580036102.0	0.79	1.46
26/01/2020 10:55:03	26012020	260120	105503	102.320	12.418768	-57.245018	102.190	0.490	-0.660	0.310	102.280	-2.100	0.700																			1580036103.0	0.54	1.00
26/01/2020 10:55:04	26012020	260120	105504	102.150	12.418772	-57.245020	102.040	0.240	-0.260	0.410	102.120	-1.800	0.800																			1580036104.0	0.46	0.85
26/01/2020 10:55:05	26012020	260120	105505	102.030	12.418772	-57.245022	101.980	0.030	0.080	0.500	102.010	-1.400	0.900																			1580036105.0	0.38	0.70
26/01/2020 10:55:06	26012020	260120	105506	102.040	12.418772	-57.245022	102.070	-0.020	0.190	0.500	102.060	-1.200	0.900																			1580036106.0	0.22	0.41
26/01/2020 10:55:07	26012020	260120	105507	102.160	12.418772	-57.245022	102.200	0.020	0.050	0.500	102.190	-1.200	0.900																			1580036107.0	0.06	0.11
26/01/2020 10:55:08	26012020	260120	105508	102.270	12.418772	-57.245020	102.290	0.000	-0.210	0.640	102.290	-1.500	1.000																			1580036108.0	0.30	0.56
26/01/2020 10:55:09	26012020	260120	105509	102.340	12.418770	-57.245020	102.370	-0.130	-0.290	0.890	102.350	-1.700	1.200																			1580036109.0	0.35	0.65
26/01/2020 10:55:10	26012020	260120	105510	102.430	12.418768	-57.245020	102.460	-0.300	-0.130	1.190	102.440	-1.600	1.500																			1580036110.0	0.42	0.78
26/01/2020 10:55:11	26012020	260120	105511	102.480	12.418767	-57.245022	102.480	-0.360	0.040	1.430	102.490	-1.400	1.700																			1580036111.0	0.62	1.15
26/01/2020 10:55:12	26012020	260120	105512	102.450	12.418763	-57.245022	102.410	-0.230	0.000	1.530	102.430	-1.300	1.900																			1580036112.0	0.52	0.96
26/01/2020 10:55:13	26012020	260120	105513	102.380	12.418762	-57.245022	102.320	-0.020	-0.150	1.440	102.360	-1.500	1.900																			1580036113.0	0.27	0.50
26/01/2020 10:55:14	26012020	260120	105514	102.310	12.418763	-57.245022	102.290	0.160	-0.200	1.150	102.300	-1.600	1.700																			1580036114.0	0.26	0.48
26/01/2020 10:55:15	26012020	260120	105515	102.310	12.418765	-57.245020	102.330	0.220	-0.080	0.740	102.320	-1.500	1.300																			1580036115.0	0.48	0.89
26/01/2020 10:55:16	26012020	260120	105516	102.380	12.418768	-57.245020	102.400	0.190	0.110	0.270	102.390	-1.300	0.900																			1580036116.0	0.71	1.31
26/01/2020 10:55:17	26012020	260120	105517	102.470	12.418772	-57.245020	102.470	0.120	0.100	-0.150	102.490	-1.200	0.400																			1580036117.0	0.82	1.52
26/01/2020 10:55:18	26012020	260120	105518	102.520	12.418775	-57.245020	102.480	0.100	-0.150	-0.330	102.520	-1.400	0.100																			1580036118.0	0.65	1.20
26/01/2020 10:55:19	26012020	260120	105519	102.520	12.418777	-57.245018	102.490	0.100	-0.380	-0.190	102.520	-1.700	0.100																			1580036119.0	0.33	0.61
26/01/2020 10:55:20	26012020	260120	105520	102.530	12.418775	-57.245018	102.500	0.050	-0.340	0.230	102.530	-1.800	0.400																			1580036120.0	0.26	0.48
26/01/2020 10:55:21	26012020	260120	105521	102.500	12.418772	-57.245020	102.430	-0.090	-0.150	0.830	102.480	-1.600	1.000																			1580036121.0	0.58	1.07
26/01/2020 10:55:22	26012020	260120	105522	102.390	12.418768	-57.245022	102.330	-0.200	-0.060	1.420	102.360	-1.400	1.600																			1580036122.0	0.80	1.48
26/01/2020 10:55:23	26012020	260120	105523	102.300	12.418767	-57.245022	102.300	-0.190	-0.120	1.760	102.290	-1.500	2.100																			1580036123.0	0.70	1.30
26/01/2020 10:55:24	26012020	260120	105524	102.300	12.418763	-57.245022	102.350	-0.070	-0.190	1.800	102.310	-1.500	2.200																			1580036124.0	0.41	0.76
26/01/2020 10:55:25	26012020	260120	105525	102.390	12.418763	-57.245022	102.460	0.020	-0.190	1.620	102.420	-1.600	2.100																			1580036125.0	0.14	0.26
26/01/2020 10:55:26	26012020	260120	105526	102.500	12.418763	-57.245022	102.510	0.040	-0.120	1.330	102.510	-1.500	1.900																			1580036126.0	0.13	0.24
26/01/2020 10:55:27	26012020	260120	105527	102.510	12.418765	-57.245020	102.420	0.050	-0.080	0.990	102.500	-1.500	1.500																			1580036127.0	0.22	0.41
26/01/2020 10:55:28	26012020	260120	105528	102.390	12.418767	-57.245020	102.310	0.100	-0.030	0.560	102.370	-1.400	1.200																			1580036128.0	0.38	0.70
26/01/2020 10:55:29	26012020	260120	105529	102.320	12.418770	-57.245020	102.260	0.150	0.100	0.100	102.310	-1.300	0.700																			1580036129.0	0.62	1.15
26/01/2020 10:55:30	26012020	260120	105530	102.320	12.418773	-57.245020	102.290	0.150	0.180	-0.270	102.330	-1.200	0.300																			1580036130.0	0.75	1.39
26/01/2020 10:55:31	26012020	260120	105531	102.390	12.418777	-57.245018	102.380	0.070	0.100	-0.460	102.410	-1.200	0.000																			1580036131.0	0.70	1.30
26/01/2020 10:55:32	26012020	260120	105532	102.480	12.418778	-57.245018	102.460	-0.080	-0.110	-0.340	102.500	-1.400	-0.000																			1580036132.0	0.39	0.72
26/01/2020 10:55:33	26012020	260120	105533	102.510	12.418777	-57.245018	102.440	-0.210	-0.340	0.150	102.510	-1.600	0.300																			1580036133.0	0.23	0.43
26/01/2020 10:55:34	26012020	260120	105534	102.430	12.418773	-57.245018	102.320	-0.250	-0.490	0.860	102.390	-1.800	1.000																			1580036134.0	0.82	1.52
26/01/2020 10:55:35	26012020	260120	105535	102.260	12.418768	-57.245020	102.170	-0.170	-0.490	1.540	102.220	-1.900	1.700																			1580036135.0	1.11	2.06
26/01/2020 10:55:36	26012020	260120	105536	102.110	12.418765	-57.245020	102.090	-0.030	-0.310	1.960	102.100	-1.800	2.200																			1580036136.0	0.91	1.69
26/01/2020 10:55:37	26012020	260120	105537	102.080	12.418762	-57.245022	102.140	0.070	-0.060	2.040	102.090	-1.500	2.500																			1580036137.0	0.47	0.87
26/01/2020 10:55:38	26012020	260120	105538	102.180	12.418762	-57.245022	102.290	0.100	0.210	1.700	102.220	-1.300	2.300																			1580036138.0	0.15	0.28
26/01/2020 10:55:39	26012020	260120	105539	102.320	12.418765	-57.245022	102.410	0.060	0.350	1.130	102.350	-1.100	1.800																			1580036139.0	0.55	1.02
26/01/2020 10:55:40	26012020	260120	105540	102.450	12.418768	-57.245022	102.420	0.020	0.210	0.550	102.450	-1.100	1.200																			1580036140.0	0.78	1.44
26/01/2020 10:55:41	26012020	260120	105541	102.400	12.418772	-57.245020	102.280	0.040	-0.180	0.170	102.370	-1.400	0.700																			1580036141.0	0.76	1.41
26/01/2020 10:55:42	26012020	260120	105542	102.220	12.418773	-57.245018	102.110	0.120	-0.500	-0.040	102.190	-1.800	0.400																			1580036142.0	0.66	1.22
26/01/2020 10:55:43	26012020	260120	105543	102.100	12.418775	-57.245017	102.030	0.170	-0.530	-0.090	102.090	-1.900	0.300																			1580036143.0	0.43	0.80
26/01/2020 10:55:44	26012020	260120	105544	102.060	12.418775	-57.245017	102.030	0.110	-0.360	0.080	102.060	-1.800	0.400																			1580036144.0	0.06	0.11
26/01/2020 10:55:45	26012020	260120	105545	102.060	12.418775	-57.245018	102.040	-0.030	-0.140	0.370	102.060	-1.600	0.700																			1580036145.0	0.33	0.61
26/01/2020 10:55:46	26012020	260120	105546	102.050	12.418772	-57.245018	102.040	-0.140	0.040	0.670	102.050	-1.400	1.000																			1580036146.0	0.46	0.85
26/01/2020 10:55:47	26012020	260120	105547	102.050	12.418770	-57.245018	102.050	-0.180	0.120	0.900	102.050	-1.300	1.200																			1580036147.0	0.39	0.72
26/01/2020 10:55:48	26012020	260120	105548	102.070	12.418770	-57.245018	102.100	-0.160	0.180	1.040	102.080	-1.200	1.400																			1580036148.0	0.28	0.52
26/01/2020 10:55:49	26012020	260120	105549	102.150	12.418768	-57.245020	102.210	-0.140	0.310	1.120	102.170	-1.100	1.500																			1580036149.0	0.16	0.30
26/01/2020 10:55:50	26012020	260120	105550	102.260	12.418768	-57.245020	102.300	-0.110	0.330	1.170	102.280	-1.000	1.600																			1580036150.0	0.25	0.46
26/01/2020 10:55:51	26012020	260120	105551	102.310	12.418768	-57.245022	102.320	-0.030	0.050	1.130	102.320	-1.200	1.600																			1580036151.0	0.17	0.31
26/01/2020 10:55:52	26012020	260120	105552	102.320	12.418770	-57.245020	102.300	0.120	-0.510	0.950	102.320	-1.600	1.400																			1580036152.0	0.22	0.41
26/01/2020 10:55:53	26012020	260120	105553	102.290	12.418770	-57.245018	102.250	0.260	-0.960	0.810	102.280	-2.200	1.300																			1580036153.0	0.50	0.93
26/01/2020 10:55:54	26012020	260120	105554	102.210	12.418770	-57.245017	102.150	0.290	-0.900	0.800	102.200	-2.400	1.200																			1580036154.0	0.38	0.70
26/01/2020 10:55:55	26012020	260120	105555	102.080	12.418772	-57.245017	101.970	0.160	-0.420	0.880	102.050	-2.000	1.300																			1580036155.0	0.15	0.28
26/01/2020 10:55:56	26012020	260120	105556	101.900	12.418772	-57.245018	101.810	-0.050	0.060	0.880	101.870	-1.500	1.300																			1580036156.0	0.35	0.65
26/01/2020 10:55:57	26012020	260120	105557	101.780	12.418772	-57.245020	101.780	-0.220	0.310	0.690	101.780	-1.100	1.200																			1580036157.0	0.17	0.31
26/01/2020 10:55:58	26012020	260120	105558	101.840	12.418773	-57.245018	101.920	-0.270	0.370	0.470	101.880	-1.000	1.000																			1580036158.0	0.14	0.26
26/01/2020 10:55:59	26012020	260120	105559	102.030	12.418773	-57.245018	102.130	-0.210	0.330	0.300	102.070	-1.000	0.800																			1580036159.0	0.19	0.35
26/01/2020 10:56:00	26012020	260120	105600	102.260	12.418773	-57.245018	102.340	-0.110	0.250	0.170	102.300	-1.100	0.600	1014.60	25.70	25.70	18.30	18.40	106.00	63.00	64.00	375.00	25.60	349.00	8.00	91.00	7.80	6302	3121.00	27.40	27.40	1580036160.0	0.13	0.24
26/01/2020 10:56:01	26012020	260120	105601	102.430	12.418773	-57.245017	102.430	-0.000	0.140	0.150	102.440	-1.200	0.500																			1580036161.0	0.01	0.02
26/01/2020 10:56:02	26012020	260120	105602	102.450	12.418773	-57.245018	102.410	0.100	-0.040	0.290	102.450	-1.300	0.600																			1580036162.0	0.08	0.15
26/01/2020 10:56:03	26012020	260120	105603	102.420	12.418773	-57.245018	102.370	0.210	-0.260	0.530	102.400	-1.500	0.800																			1580036163.0	0.10	0.19
26/01/2020 10:56:04	26012020	260120	105604	102.370	12.418773	-57.245018	102.320	0.290	-0.490	0.840	102.350	-1.800	1.100																			1580036164.0	0.06	0.11
26/01/2020 10:56:05	26012020	260120	105605	102.330	12.418772	-57.245018	102.250	0.270	-0.680	1.200	102.320	-2.000	1.500																			1580036165.0	0.03	0.06
26/01/2020 10:56:06	26012020	260120	105606	102.200	12.418772	-57.245018	102.090	0.150	-0.760	1.580	102.160	-2.100	1.800																			1580036166.0	0.20	0.37
26/01/2020 10:56:07	26012020	260120	105607	102.000	12.418770	-57.245017	101.900	-0.080	-0.610	1.860	101.960	-2.100	2.200																			1580036167.0	0.38	0.70
26/01/2020 10:56:08	26012020	260120	105608	101.850	12.418768	-57.245017	101.840	-0.370	-0.130	1.940	101.840	-1.700	2.300																			1580036168.0	0.41	0.76
26/01/2020 10:56:09	26012020	260120	105609	101.890	12.418767	-57.245018	101.990	-0.580	0.490	1.720	101.920	-1.100	2.300																			1580036169.0	0.46	0.85
26/01/2020 10:56:10	26012020	260120	105610	102.110	12.418767	-57.245022	102.250	-0.530	0.830	1.150	102.170	-0.600	1.800																			1580036170.0	0.44	0.81
26/01/2020 10:56:11	26012020	260120	105611	102.400	12.418768	-57.245022	102.510	-0.190	0.610	0.380	102.460	-0.600	1.100																			1580036171.0	0.39	0.72
26/01/2020 10:56:12	26012020	260120	105612	102.630	12.418772	-57.245020	102.640	0.250	0.070	-0.360	102.660	-1.100	0.300																			1580036172.0	0.76	1.41
26/01/2020 10:56:13	26012020	260120	105613	102.680	12.418775	-57.245017	102.580	0.570	-0.430	-0.830	102.670	-1.600	-0.300																			1580036173.0	0.94	1.74
26/01/2020 10:56:14	26012020	260120	105614	102.600	12.418778	-57.245015	102.490	0.620	-0.640	-0.930	102.580	-2.000	-0.500																			1580036174.0	0.84	1.56
26/01/2020 10:56:15	26012020	260120	105615	102.520	12.418780	-57.245015	102.420	0.430	-0.540	-0.620	102.500	-2.000	-0.400																			1580036175.0	0.46	0.85
26/01/2020 10:56:16	26012020	260120	105616	102.440	12.418780	-57.245015	102.350	0.120	-0.340	0.030	102.420	-1.800	0.200																			1580036176.0	0.27	0.50
26/01/2020 10:56:17	26012020	260120	105617	102.380	12.418778	-57.245017	102.320	-0.170	-0.140	0.840	102.370	-1.600	0.900																			1580036177.0	0.65	1.20
26/01/2020 10:56:18	26012020	260120	105618	102.340	12.418773	-57.245018	102.320	-0.380	-0.020	1.690	102.330	-1.400	1.700																			1580036178.0	1.02	1.89
26/01/2020 10:56:19	26012020	260120	105619	102.310	12.418768	-57.245020	102.310	-0.480	-0.010	2.400	102.310	-1.400	2.500																			1580036179.0	1.21	2.24
26/01/2020 10:56:20	26012020	260120	105620	102.310	12.418763	-57.245022	102.350	-0.430	-0.080	2.700	102.310	-1.400	3.000																			1580036180.0	1.06	1.96
26/01/2020 10:56:21	26012020	260120	105621	102.340	12.418760	-57.245022	102.360	-0.220	-0.160	2.590	102.340	-1.500	3.100																			1580036181.0	0.62	1.15
26/01/2020 10:56:22	26012020	260120	105622	102.340	12.418760	-57.245020	102.340	0.100	-0.160	2.120	102.330	-1.500	2.800																			1580036182.0	0.17	0.31
26/01/2020 10:56:23	26012020	260120	105623	102.360	12.418762	-57.245020	102.390	0.360	-0.060	1.260	102.380	-1.500	2.100																			1580036183.0	0.55	1.02
26/01/2020 10:56:24	26012020	260120	105624	102.480	12.418767	-57.245018	102.510	0.430	0.140	0.150	102.510	-1.300	1.000																			1580036184.0	1.14	2.11
26/01/2020 10:56:25	26012020	260120	105625	102.620	12.418773	-57.245018	102.600	0.310	0.280	-0.810	102.640	-1.100	-0.100																			1580036185.0	1.52	2.82
26/01/2020 10:56:26	26012020	260120	105626	102.680	12.418780	-57.245018	102.610	0.130	0.170	-1.330	102.690	-1.100	-0.800																			1580036186.0	1.36	2.52
26/01/2020 10:56:27	26012020	260120	105627	102.680	12.418783	-57.245017	102.580	-0.010	-0.200	-1.340	102.680	-1.400	-1.000																			1580036187.0	0.73	1.35
26/01/2020 10:56:28	26012020	260120	105628	102.630	12.418783	-57.245015	102.510	-0.070	-0.560	-0.830	102.620	-1.800	-0.700																			1580036188.0	0.23	0.43
26/01/2020 10:56:29	26012020	260120	105629	102.560	12.418780	-57.245015	102.450	-0.140	-0.620	0.040	102.550	-2.000	0.100																			1580036189.0	0.75	1.39
26/01/2020 10:56:30	26012020	260120	105630	102.480	12.418775	-57.245017	102.390	-0.270	-0.360	1.110	102.460	-1.900	1.100																			1580036190.0	1.20	2.22
26/01/2020 10:56:31	26012020	260120	105631	102.350	12.418768	-57.245020	102.280	-0.370	-0.070	2.160	102.330	-1.500	2.200																			1580036191.0	1.48	2.74
26/01/2020 10:56:32	26012020	260120	105632	102.230	12.418762	-57.245022	102.240	-0.330	0.040	2.780	102.220	-1.300	3.000																			1580036192.0	1.34	2.48
26/01/2020 10:56:33	26012020	260120	105633	102.230	12.418758	-57.245023	102.260	-0.100	-0.030	2.840	102.230	-1.300	3.300																			1580036193.0	0.78	1.44
26/01/2020 10:56:34	26012020	260120	105634	102.260	12.418758	-57.245022	102.270	0.220	-0.160	2.420	102.270	-1.500	3.000																			1580036194.0	0.27	0.50
26/01/2020 10:56:35	26012020	260120	105635	102.280	12.418760	-57.245020	102.290	0.450	-0.160	1.670	102.280	-1.500	2.400																			1580036195.0	0.60	1.11
26/01/2020 10:56:36	26012020	260120	105636	102.350	12.418765	-57.245018	102.400	0.450	0.030	0.650	102.380	-1.400	1.500																			1580036196.0	1.08	2.00
26/01/2020 10:56:37	26012020	260120	105637	102.510	12.418772	-57.245018	102.550	0.250	0.250	-0.410	102.550	-1.200	0.400																			1580036197.0	1.45	2.69
26/01/2020 10:56:38	26012020	260120	105638	102.660	12.418778	-57.245018	102.620	0.030	0.270	-1.140	102.680	-1.100	-0.500																			1580036198.0	1.39	2.57
26/01/2020 10:56:39	26012020	260120	105639	102.700	12.418783	-57.245018	102.600	-0.070	-0.020	-1.310	102.690	-1.200	-0.900																			1580036199.0	0.87	1.61
26/01/2020 10:56:40	26012020	260120	105640	102.650	12.418783	-57.245017	102.530	-0.080	-0.390	-0.920	102.630	-1.600	-0.700																			1580036200.0	0.25	0.46
26/01/2020 10:56:41	26012020	260120	105641	102.570	12.418780	-57.245017	102.480	-0.110	-0.520	-0.180	102.560	-1.900	-0.100																			1580036201.0	0.60	1.11
26/01/2020 10:56:42	26012020	260120	105642	102.520	12.418775	-57.245018	102.460	-0.200	-0.400	0.710	102.510	-1.800	0.700																			1580036202.0	1.03	1.91
26/01/2020 10:56:43	26012020	260120	105643	102.470	12.418770	-57.245020	102.380	-0.260	-0.230	1.660	102.450	-1.600	1.700																			1580036203.0	1.28	2.37
26/01/2020 10:56:44	26012020	260120	105644	102.330	12.418765	-57.245022	102.270	-0.200	-0.180	2.410	102.310	-1.500	2.500																			1580036204.0	1.22	2.26
26/01/2020 10:56:45	26012020	260120	105645	102.230	12.418762	-57.245022	102.240	-0.060	-0.190	2.700	102.230	-1.500	3.000																			1580036205.0	0.82	1.52
26/01/2020 10:56:46	26012020	260120	105646	102.270	12.418760	-57.245022	102.360	0.030	-0.080	2.440	102.290	-1.500	3.000																			1580036206.0	0.27	0.50
26/01/2020 10:56:47	26012020	260120	105647	102.460	12.418762	-57.245022	102.570	0.060	0.120	1.790	102.500	-1.300	2.500																			1580036207.0	0.34	0.63
26/01/2020 10:56:48	26012020	260120	105648	102.660	12.418765	-57.245022	102.690	0.120	0.190	1.010	102.680	-1.200	1.700																			1580036208.0	0.75	1.39
26/01/2020 10:56:49	26012020	260120	105649	102.730	12.418768	-57.245020	102.670	0.210	0.030	0.280	102.730	-1.200	1.000																			1580036209.0	0.91	1.69
26/01/2020 10:56:50	26012020	260120	105650	102.700	12.418773	-57.245018	102.630	0.290	-0.170	-0.300	102.690	-1.500	0.300																			1580036210.0	0.89	1.65
26/01/2020 10:56:51	26012020	260120	105651	102.710	12.418777	-57.245017	102.700	0.260	-0.180	-0.750	102.730	-1.600	-0.200																			1580036211.0	0.77	1.43
26/01/2020 10:56:52	26012020	260120	105652	102.840	12.418778	-57.245018	102.840	0.110	-0.070	-0.920	102.870	-1.500	-0.500																			1580036212.0	0.64	1.19
26/01/2020 10:56:53	26012020	260120	105653	102.950	12.418780	-57.245018	102.880	-0.050	-0.110	-0.580	102.960	-1.400	-0.400																			1580036213.0	0.30	0.56
26/01/2020 10:56:54	26012020	260120	105654	102.900	12.418778	-57.245018	102.740	-0.120	-0.330	0.220	102.870	-1.600	0.300																			1580036214.0	0.48	0.89
26/01/2020 10:56:55	26012020	260120	105655	102.730	12.418773	-57.245018	102.560	-0.130	-0.470	1.140	102.690	-1.800	1.200																			1580036215.0	1.00	1.85
26/01/2020 10:56:56	26012020	260120	105656	102.540	12.418768	-57.245020	102.540	-0.160	-0.270	1.810	102.540	-1.800	2.000																			1580036216.0	1.03	1.91
26/01/2020 10:56:57	26012020	260120	105657	102.620	12.418765	-57.245022	102.750	-0.240	0.150	2.180	102.660	-1.400	2.500																			1580036217.0	0.89	1.65
26/01/2020 10:56:58	26012020	260120	105658	102.870	12.418762	-57.245025	103.000	-0.230	0.350	2.270	102.920	-1.000	2.700																			1580036218.0	0.78	1.44
26/01/2020 10:56:59	26012020	260120	105659	103.070	12.418762	-57.245025	103.130	-0.030	0.120	2.060	103.100	-1.100	2.600																			1580036219.0	0.32	0.59
26/01/2020 10:57:00	26012020	260120	105700	103.150	12.418762	-57.245023	103.120	0.250	-0.340	1.600	103.150	-1.500	2.200	1014.60	25.70	25.70	18.20	18.30	109.00	63.00	63.00	375.00	25.60	349.00	7.70	91.00	7.30	6491	3232.00	27.40	27.40	1580036220.0	0.44	0.81
26/01/2020 10:57:01	26012020	260120	105701	103.110	12.418765	-57.245020	103.050	0.360	-0.560	0.990	103.100	-1.900	1.600																			1580036221.0	0.88	1.63
26/01/2020 10:57:02	26012020	260120	105702	103.070	12.418768	-57.245020	103.020	0.190	-0.340	0.350	103.060	-1.800	1.000																			1580036222.0	0.93	1.72
26/01/2020 10:57:03	26012020	260120	105703	103.060	12.418773	-57.245020	103.000	-0.120	0.010	-0.060	103.060	-1.500	0.500																			1580036223.0	0.81	1.50
26/01/2020 10:57:04	26012020	260120	105704	103.040	12.418775	-57.245022	102.950	-0.300	0.140	-0.160	103.020	-1.200	0.300																			1580036224.0	0.45	0.83
26/01/2020 10:57:05	26012020	260120	105705	102.990	12.418773	-57.245022	102.920	-0.230	0.010	-0.130	102.980	-1.300	0.300																			1580036225.0	0.13	0.24
26/01/2020 10:57:06	26012020	260120	105706	102.980	12.418773	-57.245020	102.960	0.000	-0.160	-0.110	102.990	-1.500	0.300																			1580036226.0	0.29	0.54
26/01/2020 10:57:07	26012020	260120	105707	103.040	12.418772	-57.245020	103.080	0.190	-0.170	-0.070	103.050	-1.500	0.300																			1580036227.0	0.22	0.41
26/01/2020 10:57:08	26012020	260120	105708	103.200	12.418772	-57.245020	103.230	0.250	-0.030	0.070	103.230	-1.400	0.400																			1580036228.0	0.06	0.11
26/01/2020 10:57:09	26012020	260120	105709	103.290	12.418772	-57.245022	103.260	0.210	0.030	0.480	103.310	-1.300	0.700																			1580036229.0	0.24	0.44
26/01/2020 10:57:10	26012020	260120	105710	103.250	12.418770	-57.245022	103.160	0.110	-0.100	1.100	103.230	-1.400	1.200																			1580036230.0	0.33	0.61
26/01/2020 10:57:11	26012020	260120	105711	103.140	12.418768	-57.245022	103.120	-0.040	-0.210	1.630	103.130	-1.500	1.800																			1580036231.0	0.56	1.04
26/01/2020 10:57:12	26012020	260120	105712	103.120	12.418765	-57.245023	103.120	-0.170	-0.200	1.960	103.120	-1.600	2.200																			1580036232.0	0.58	1.07
26/01/2020 10:57:13	26012020	260120	105713	103.100	12.418763	-57.245023	103.070	-0.190	-0.200	2.130	103.090	-1.500	2.500																			1580036233.0	0.51	0.94
26/01/2020 10:57:14	26012020	260120	105714	103.020	12.418762	-57.245025	102.980	-0.100	-0.230	2.020	103.010	-1.600	2.500																			1580036234.0	0.29	0.54
26/01/2020 10:57:15	26012020	260120	105715	102.970	12.418762	-57.245023	102.970	-0.010	-0.210	1.640	102.960	-1.600	2.200																			1580036235.0	0.12	0.22
26/01/2020 10:57:16	26012020	260120	105716	102.980	12.418763	-57.245023	102.980	-0.010	-0.110	1.090	102.980	-1.500	1.700																			1580036236.0	0.38	0.70
26/01/2020 10:57:17	26012020	260120	105717	103.000	12.418767	-57.245023	102.980	-0.080	-0.030	0.480	103.000	-1.400	1.100																			1580036237.0	0.61	1.13
26/01/2020 10:57:18	26012020	260120	105718	103.010	12.418770	-57.245023	102.970	-0.110	-0.010	-0.060	103.010	-1.400	0.500																			1580036238.0	0.61	1.13
26/01/2020 10:57:19	26012020	260120	105719	103.020	12.418772	-57.245022	102.950	-0.030	-0.040	-0.440	103.020	-1.400	0.100																			1580036239.0	0.43	0.80
26/01/2020 10:57:20	26012020	260120	105720	102.960	12.418773	-57.245022	102.860	0.140	-0.140	-0.620	102.950	-1.500	-0.200																			1580036240.0	0.31	0.57
26/01/2020 10:57:21	26012020	260120	105721	102.870	12.418773	-57.245020	102.790	0.290	-0.200	-0.590	102.850	-1.600	-0.200																			1580036241.0	0.31	0.57
26/01/2020 10:57:22	26012020	260120	105722	102.850	12.418775	-57.245020	102.850	0.290	-0.090	-0.370	102.860	-1.500	-0.100																			1580036242.0	0.17	0.31
26/01/2020 10:57:23	26012020	260120	105723	102.950	12.418773	-57.245022	103.010	0.110	0.120	0.070	102.980	-1.300	0.300																			1580036243.0	0.18	0.33
26/01/2020 10:57:24	26012020	260120	105724	103.110	12.418773	-57.245023	103.150	-0.140	0.200	0.690	103.130	-1.200	0.800																			1580036244.0	0.52	0.96
26/01/2020 10:57:25	26012020	260120	105725	103.200	12.418770	-57.245025	103.170	-0.300	-0.010	1.450	103.200	-1.200	1.500																			1580036245.0	0.78	1.44
26/01/2020 10:57:26	26012020	260120	105726	103.090	12.418765	-57.245025	102.970	-0.290	-0.430	2.290	103.040	-1.600	2.400																			1580036246.0	1.04	1.93
26/01/2020 10:57:27	26012020	260120	105727	102.800	12.418758	-57.245025	102.690	-0.150	-0.730	2.960	102.730	-2.000	3.100																			1580036247.0	1.23	2.28
26/01/2020 10:57:28	26012020	260120	105728	102.550	12.418755	-57.245025	102.540	0.000	-0.620	3.050	102.520	-2.100	3.500																			1580036248.0	0.93	1.72
26/01/2020 10:57:29	26012020	260120	105729	102.490	12.418753	-57.245025	102.560	0.140	-0.140	2.500	102.500	-1.700	3.200																			1580036249.0	0.16	0.30
26/01/2020 10:57:30	26012020	260120	105730	102.580	12.418758	-57.245025	102.690	0.230	0.370	1.500	102.610	-1.200	2.300																			1580036250.0	0.84	1.56
26/01/2020 10:57:31	26012020	260120	105731	102.780	12.418765	-57.245027	102.910	0.230	0.570	0.270	102.830	-0.800	1.200																			1580036251.0	1.41	2.61
26/01/2020 10:57:32	26012020	260120	105732	103.020	12.418772	-57.245025	103.080	0.140	0.350	-0.850	103.070	-0.900	-0.000																			1580036252.0	1.61	2.98
26/01/2020 10:57:33	26012020	260120	105733	103.150	12.418778	-57.245023	103.070	0.020	-0.200	-1.480	103.150	-1.300	-0.900																			1580036253.0	1.40	2.59
26/01/2020 10:57:34	26012020	260120	105734	103.050	12.418780	-57.245020	102.860	-0.050	-0.780	-1.420	103.010	-1.900	-1.100																			1580036254.0	0.79	1.46
26/01/2020 10:57:35	26012020	260120	105735	102.790	12.418778	-57.245018	102.580	-0.060	-0.980	-0.770	102.730	-2.300	-0.700																			1580036255.0	0.51	0.94
26/01/2020 10:57:36	26012020	260120	105736	102.510	12.418775	-57.245018	102.400	-0.100	-0.640	0.160	102.480	-2.200	0.200																			1580036256.0	0.88	1.63
26/01/2020 10:57:37	26012020	260120	105737	102.400	12.418770	-57.245020	102.410	-0.210	0.050	1.050	102.400	-1.600	1.100																			1580036257.0	1.20	2.22
26/01/2020 10:57:38	26012020	260120	105738	102.480	12.418765	-57.245025	102.570	-0.330	0.660	1.670	102.510	-0.900	1.900																			1580036258.0	1.23	2.28
26/01/2020 10:57:39	26012020	260120	105739	102.670	12.418762	-57.245027	102.780	-0.290	0.830	1.940	102.710	-0.500	2.300																			1580036259.0	0.90	1.67
26/01/2020 10:57:40	26012020	260120	105740	102.870	12.418760	-57.245028	102.970	-0.040	0.490	1.870	102.900	-0.700	2.300																			1580036260.0	0.33	0.61
26/01/2020 10:57:41	26012020	260120	105741	103.050	12.418762	-57.245027	103.140	0.270	-0.070	1.550	103.090	-1.200	2.100																			1580036261.0	0.35	0.65
26/01/2020 10:57:42	26012020	260120	105742	103.200	12.418763	-57.245023	103.220	0.420	-0.510	1.160	103.210	-1.700	1.700																			1580036262.0	0.63	1.17
26/01/2020 10:57:43	26012020	260120	105743	103.210	12.418765	-57.245023	103.130	0.350	-0.730	0.890	103.180	-2.000	1.400																			1580036263.0	0.61	1.13
26/01/2020 10:57:44	26012020	260120	105744	103.060	12.418768	-57.245023	102.930	0.210	-0.780	0.720	103.020	-2.100	1.200																			1580036264.0	0.53	0.98
26/01/2020 10:57:45	26012020	260120	105745	102.890	12.418770	-57.245022	102.700	0.080	-0.740	0.560	102.840	-2.100	1.000																			1580036265.0	0.42	0.78
26/01/2020 10:57:46	26012020	260120	105746	102.630	12.418772	-57.245022	102.530	-0.050	-0.570	0.430	102.600	-2.000	0.900																			1580036266.0	0.28	0.52
26/01/2020 10:57:47	26012020	260120	105747	102.510	12.418772	-57.245022	102.490	-0.240	-0.190	0.400	102.510	-1.700	0.800																			1580036267.0	0.13	0.24
26/01/2020 10:57:48	26012020	260120	105748	102.530	12.418770	-57.245022	102.580	-0.450	0.390	0.430	102.550	-1.200	0.800																			1580036268.0	0.20	0.37
26/01/2020 10:57:49	26012020	260120	105749	102.680	12.418770	-57.245023	102.790	-0.580	0.950	0.350	102.730	-0.600	0.800																			1580036269.0	0.43	0.80
26/01/2020 10:57:50	26012020	260120	105750	102.940	12.418768	-57.245025	103.070	-0.450	1.100	0.130	102.990	-0.300	0.600																			1580036270.0	0.46	0.85
26/01/2020 10:57:51	26012020	260120	105751	103.220	12.418770	-57.245027	103.340	-0.050	0.640	-0.130	103.280	-0.500	0.400																			1580036271.0	0.20	0.37
26/01/2020 10:57:52	26012020	260120	105752	103.460	12.418772	-57.245025	103.500	0.450	-0.280	-0.240	103.500	-1.300	0.200																			1580036272.0	0.47	0.87
26/01/2020 10:57:53	26012020	260120	105753	103.540	12.418772	-57.245022	103.470	0.770	-1.090	-0.030	103.530	-2.200	0.200																			1580036273.0	0.69	1.28
26/01/2020 10:57:54	26012020	260120	105754	103.450	12.418772	-57.245018	103.330	0.680	-1.300	0.500	103.410	-2.700	0.700																			1580036274.0	0.42	0.78
26/01/2020 10:57:55	26012020	260120	105755	103.270	12.418770	-57.245020	103.140	0.230	-0.900	1.230	103.230	-2.500	1.300																			1580036275.0	0.31	0.57
26/01/2020 10:57:56	26012020	260120	105756	103.040	12.418768	-57.245023	102.920	-0.320	-0.250	1.980	102.990	-1.900	2.100																			1580036276.0	0.86	1.59
26/01/2020 10:57:57	26012020	260120	105757	102.850	12.418765	-57.245027	102.780	-0.670	0.300	2.440	102.820	-1.300	2.700																			1580036277.0	1.03	1.91
26/01/2020 10:57:58	26012020	260120	105758	102.760	12.418762	-57.245028	102.850	-0.660	0.570	2.400	102.770	-0.900	2.900																			1580036278.0	0.78	1.44
26/01/2020 10:57:59	26012020	260120	105759	102.930	12.418760	-57.245028	103.100	-0.340	0.500	1.880	102.980	-0.800	2.500																			1580036279.0	0.22	0.41
26/01/2020 10:58:00	26012020	260120	105800	103.210	12.418762	-57.245027	103.370	0.090	0.150	1.060	103.270	-1.000	1.800	1014.60	25.70	25.70	18.30	18.40	110.00	63.00	63.00	375.00	25.60	353.00	7.20	96.00	7.00	6670	3183.00	27.40	27.40	1580036280.0	0.43	0.80
26/01/2020 10:58:01	26012020	260120	105801	103.470	12.418765	-57.245025	103.570	0.420	-0.260	0.090	103.510	-1.500	0.900																			1580036281.0	0.99	1.83
26/01/2020 10:58:02	26012020	260120	105802	103.650	12.418772	-57.245022	103.640	0.500	-0.430	-0.700	103.660	-1.800	-0.000																			1580036282.0	1.28	2.37
26/01/2020 10:58:03	26012020	260120	105803	103.660	12.418777	-57.245022	103.570	0.320	-0.290	-1.000	103.650	-1.700	-0.500																			1580036283.0	1.06	1.96
26/01/2020 10:58:04	26012020	260120	105804	103.540	12.418778	-57.245022	103.410	0.030	-0.120	-0.790	103.500	-1.500	-0.500																			1580036284.0	0.61	1.13
26/01/2020 10:58:05	26012020	260120	105805	103.390	12.418778	-57.245023	103.310	-0.210	-0.160	-0.280	103.370	-1.500	-0.100																			1580036285.0	0.34	0.63
26/01/2020 10:58:06	26012020	260120	105806	103.290	12.418775	-57.245025	103.220	-0.290	-0.330	0.450	103.270	-1.600	0.500																			1580036286.0	0.68	1.26
26/01/2020 10:58:07	26012020	260120	105807	103.170	12.418770	-57.245025	103.110	-0.230	-0.370	1.200	103.150	-1.700	1.300																			1580036287.0	1.04	1.93
26/01/2020 10:58:08	26012020	260120	105808	103.060	12.418765	-57.245025	103.080	-0.100	-0.110	1.700	103.060	-1.600	1.900																			1580036288.0	0.98	1.81
26/01/2020 10:58:09	26012020	260120	105809	103.110	12.418763	-57.245027	103.250	-0.030	0.350	1.810	103.150	-1.200	2.200																			1580036289.0	0.63	1.17
26/01/2020 10:58:10	26012020	260120	105810	103.340	12.418763	-57.245030	103.500	0.010	0.610	1.610	103.400	-0.800	2.100																			1580036290.0	0.50	0.93
26/01/2020 10:58:11	26012020	260120	105811	103.580	12.418765	-57.245032	103.660	0.090	0.360	1.220	103.620	-0.800	1.800																			1580036291.0	0.45	0.83
26/01/2020 10:58:12	26012020	260120	105812	103.700	12.418768	-57.245030	103.670	0.230	-0.260	0.750	103.700	-1.400	1.300																			1580036292.0	0.55	1.02
26/01/2020 10:58:13	26012020	260120	105813	103.620	12.418770	-57.245027	103.480	0.350	-0.830	0.440	103.590	-2.000	0.900																			1580036293.0	0.70	1.30
26/01/2020 10:58:14	26012020	260120	105814	103.380	12.418772	-57.245025	103.190	0.320	-0.990	0.320	103.320	-2.400	0.800																			1580036294.0	0.57	1.06
26/01/2020 10:58:15	26012020	260120	105815	103.100	12.418773	-57.245025	102.970	0.070	-0.650	0.340	103.060	-2.200	0.700																			1580036295.0	0.27	0.50
26/01/2020 10:58:16	26012020	260120	105816	102.930	12.418773	-57.245027	102.860	-0.270	-0.130	0.440	102.900	-1.700	0.800																			1580036296.0	0.37	0.69
26/01/2020 10:58:17	26012020	260120	105817	102.870	12.418772	-57.245028	102.860	-0.460	0.290	0.500	102.870	-1.200	0.900																			1580036297.0	0.48	0.89
26/01/2020 10:58:18	26012020	260120	105818	102.920	12.418772	-57.245030	102.950	-0.370	0.460	0.400	102.930	-0.900	0.900																			1580036298.0	0.35	0.65
26/01/2020 10:58:19	26012020	260120	105819	103.020	12.418770	-57.245030	103.030	-0.070	0.350	0.270	103.040	-0.900	0.700																			1580036299.0	0.18	0.33
26/01/2020 10:58:20	26012020	260120	105820	103.100	12.418770	-57.245028	103.080	0.210	0.090	0.210	103.100	-1.200	0.600																			1580036300.0	0.23	0.43
26/01/2020 10:58:21	26012020	260120	105821	103.120	12.418770	-57.245028	103.100	0.320	-0.070	0.230	103.120	-1.400	0.600																			1580036301.0	0.26	0.48
26/01/2020 10:58:22	26012020	260120	105822	103.150	12.418772	-57.245028	103.140	0.220	-0.070	0.340	103.150	-1.400	0.700																			1580036302.0	0.27	0.50
26/01/2020 10:58:23	26012020	260120	105823	103.190	12.418772	-57.245028	103.200	0.030	-0.050	0.540	103.200	-1.400	0.900																			1580036303.0	0.33	0.61
26/01/2020 10:58:24	26012020	260120	105824	103.220	12.418772	-57.245030	103.170	-0.110	-0.210	0.900	103.210	-1.500	1.100																			1580036304.0	0.30	0.56
26/01/2020 10:58:25	26012020	260120	105825	103.100	12.418770	-57.245032	103.000	-0.170	-0.470	1.390	103.070	-1.700	1.600																			1580036305.0	0.50	0.93
26/01/2020 10:58:26	26012020	260120	105826	102.890	12.418767	-57.245032	102.800	-0.160	-0.570	1.850	102.850	-1.900	2.100																			1580036306.0	0.75	1.39
26/01/2020 10:58:27	26012020	260120	105827	102.720	12.418763	-57.245032	102.700	-0.110	-0.390	2.080	102.700	-1.900	2.400																			1580036307.0	0.74	1.37
26/01/2020 10:58:28	26012020	260120	105828	102.670	12.418762	-57.245033	102.710	-0.010	-0.070	1.890	102.670	-1.600	2.400																			1580036308.0	0.48	0.89
26/01/2020 10:58:29	26012020	260120	105829	102.730	12.418762	-57.245033	102.800	0.190	0.130	1.230	102.760	-1.300	1.900																			1580036309.0	0.26	0.48
26/01/2020 10:58:30	26012020	260120	105830	102.850	12.418767	-57.245033	102.890	0.390	0.100	0.360	102.880	-1.200	1.100																			1580036310.0	0.92	1.70
26/01/2020 10:58:31	26012020	260120	105831	102.930	12.418772	-57.245032	102.890	0.400	-0.060	-0.310	102.930	-1.400	0.300																			1580036311.0	1.30	2.41
26/01/2020 10:58:32	26012020	260120	105832	102.880	12.418777	-57.245028	102.780	0.150	-0.200	-0.650	102.860	-1.500	-0.200																			1580036312.0	1.09	2.02
26/01/2020 10:58:33	26012020	260120	105833	102.780	12.418778	-57.245028	102.670	-0.240	-0.240	-0.650	102.760	-1.600	-0.300																			1580036313.0	0.53	0.98
26/01/2020 10:58:34	26012020	260120	105834	102.690	12.418778	-57.245028	102.620	-0.540	-0.240	-0.250	102.680	-1.600	-0.100																			1580036314.0	0.20	0.37
26/01/2020 10:58:35	26012020	260120	105835	102.640	12.418773	-57.245028	102.620	-0.570	-0.170	0.390	102.640	-1.600	0.500																			1580036315.0	0.89	1.65
26/01/2020 10:58:36	26012020	260120	105836	102.660	12.418768	-57.245030	102.680	-0.350	0.080	0.990	102.670	-1.400	1.200																			1580036316.0	1.14	2.11
26/01/2020 10:58:37	26012020	260120	105837	102.700	12.418765	-57.245032	102.720	-0.030	0.360	1.320	102.700	-1.100	1.600																			1580036317.0	0.94	1.74
26/01/2020 10:58:38	26012020	260120	105838	102.740	12.418763	-57.245033	102.810	0.280	0.460	1.290	102.760	-0.900	1.700																			1580036318.0	0.43	0.80
26/01/2020 10:58:39	26012020	260120	105839	102.870	12.418765	-57.245033	102.990	0.450	0.280	0.990	102.910	-1.000	1.500																			1580036319.0	0.35	0.65
26/01/2020 10:58:40	26012020	260120	105840	103.100	12.418768	-57.245033	103.200	0.420	-0.090	0.680	103.150	-1.300	1.200																			1580036320.0	0.70	1.30
26/01/2020 10:58:41	26012020	260120	105841	103.260	12.418772	-57.245032	103.220	0.250	-0.600	0.630	103.260	-1.800	1.000																			1580036321.0	0.65	1.20
26/01/2020 10:58:42	26012020	260120	105842	103.130	12.418772	-57.245030	102.960	0.050	-1.070	0.900	103.070	-2.300	1.200																			1580036322.0	0.33	0.61
26/01/2020 10:58:43	26012020	260120	105843	102.770	12.418770	-57.245028	102.560	-0.110	-1.230	1.350	102.680	-2.600	1.600																			1580036323.0	0.47	0.87
26/01/2020 10:58:44	26012020	260120	105844	102.350	12.418767	-57.245028	102.200	-0.210	-0.940	1.780	102.280	-2.500	2.000																			1580036324.0	0.71	1.31
26/01/2020 10:58:45	26012020	260120	105845	102.090	12.418763	-57.245030	102.090	-0.240	-0.240	1.870	102.070	-1.900	2.300																			1580036325.0	0.73	1.35
26/01/2020 10:58:46	26012020	260120	105846	102.110	12.418762	-57.245030	102.250	-0.230	0.570	1.440	102.150	-1.100	2.100																			1580036326.0	0.36	0.67
26/01/2020 10:58:47	26012020	260120	105847	102.290	12.418765	-57.245032	102.540	-0.220	1.140	0.610	102.350	-0.400	1.400																			1580036327.0	0.49	0.91
26/01/2020 10:58:48	26012020	260120	105848	102.710	12.418768	-57.245032	102.890	-0.120	1.160	-0.330	102.780	-0.100	0.400																			1580036328.0	0.89	1.65
26/01/2020 10:58:49	26012020	260120	105849	103.070	12.418773	-57.245030	103.160	0.080	0.650	-1.110	103.120	-0.500	-0.400																			1580036329.0	1.10	2.04
26/01/2020 10:58:50	26012020	260120	105850	103.270	12.418778	-57.245027	103.240	0.320	-0.070	-1.440	103.280	-1.100	-1.000																			1580036330.0	1.10	2.04
26/01/2020 10:58:51	26012020	260120	105851	103.280	12.418780	-57.245025	103.180	0.400	-0.690	-1.150	103.260	-1.800	-0.900																			1580036331.0	0.72	1.33
26/01/2020 10:58:52	26012020	260120	105852	103.150	12.418780	-57.245025	103.030	0.270	-1.020	-0.260	103.120	-2.300	-0.300																			1580036332.0	0.17	0.31
26/01/2020 10:58:53	26012020	260120	105853	102.970	12.418775	-57.245025	102.880	0.010	-1.050	1.000	102.930	-2.400	0.900																			1580036333.0	0.90	1.67
26/01/2020 10:58:54	26012020	260120	105854	102.800	12.418768	-57.245028	102.770	-0.230	-0.800	2.240	102.770	-2.300	2.200																			1580036334.0	1.52	2.82
26/01/2020 10:58:55	26012020	260120	105855	102.680	12.418762	-57.245030	102.670	-0.340	-0.390	3.140	102.660	-1.900	3.200																			1580036335.0	1.70	3.15
26/01/2020 10:58:56	26012020	260120	105856	102.570	12.418755	-57.245032	102.580	-0.290	0.050	3.530	102.550	-1.500	3.800																			1580036336.0	1.31	2.43
26/01/2020 10:58:57	26012020	260120	105857	102.480	12.418753	-57.245033	102.530	-0.130	0.380	3.280	102.480	-1.100	3.900																			1580036337.0	0.58	1.07
26/01/2020 10:58:58	26012020	260120	105858	102.540	12.418755	-57.245032	102.700	0.080	0.490	2.270	102.570	-0.900	3.100																			1580036338.0	0.39	0.72
26/01/2020 10:58:59	26012020	260120	105859	102.810	12.418760	-57.245030	103.040	0.240	0.440	0.740	102.890	-0.900	1.800																			1580036339.0	1.37	2.54
26/01/2020 10:59:00	26012020	260120	105900	103.210	12.418768	-57.245027	103.350	0.280	0.210	-0.780	103.280	-1.000	0.200	1014.60	25.70	25.70	18.40	18.40	109.00	64.00	64.00	376.00	25.70	358.00	7.10	100.00	6.80	6843	3230.00	27.40	27.40	1580036340.0	1.93	3.57
26/01/2020 10:59:01	26012020	260120	105901	103.480	12.418777	-57.245025	103.450	0.200	-0.110	-1.790	103.500	-1.300	-1.100																			1580036341.0	1.80	3.33
26/01/2020 10:59:02	26012020	260120	105902	103.490	12.418782	-57.245023	103.340	0.070	-0.400	-2.070	103.470	-1.700	-1.600																			1580036342.0	1.15	2.13
26/01/2020 10:59:03	26012020	260120	105903	103.340	12.418783	-57.245022	103.160	-0.090	-0.530	-1.700	103.300	-1.900	-1.500																			1580036343.0	0.36	0.67
26/01/2020 10:59:04	26012020	260120	105904	103.160	12.418782	-57.245022	103.030	-0.230	-0.460	-0.810	103.130	-1.900	-0.800																			1580036344.0	0.42	0.78
26/01/2020 10:59:05	26012020	260120	105905	103.050	12.418777	-57.245025	102.990	-0.330	-0.260	0.360	103.040	-1.700	0.300																			1580036345.0	1.14	2.11
26/01/2020 10:59:06	26012020	260120	105906	103.010	12.418770	-57.245027	103.020	-0.300	-0.050	1.560	103.010	-1.500	1.500																			1580036346.0	1.58	2.93
26/01/2020 10:59:07	26012020	260120	105907	103.050	12.418763	-57.245028	103.130	-0.110	0.090	2.450	103.070	-1.300	2.500																			1580036347.0	1.54	2.85
26/01/2020 10:59:08	26012020	260120	105908	103.170	12.418758	-57.245030	103.280	0.140	0.080	2.800	103.200	-1.300	3.100																			1580036348.0	1.01	1.87
26/01/2020 10:59:09	26012020	260120	105909	103.280	12.418757	-57.245030	103.310	0.330	-0.110	2.740	103.280	-1.400	3.200																			1580036349.0	0.34	0.63
26/01/2020 10:59:10	26012020	260120	105910	103.260	12.418757	-57.245028	103.220	0.350	-0.310	2.380	103.240	-1.600	3.000																			1580036350.0	0.38	0.70
26/01/2020 10:59:11	26012020	260120	105911	103.180	12.418760	-57.245027	103.170	0.180	-0.270	1.710	103.170	-1.700	2.400																			1580036351.0	0.71	1.31
26/01/2020 10:59:12	26012020	260120	105912	103.170	12.418765	-57.245025	103.180	-0.070	-0.040	0.830	103.180	-1.500	1.600																			1580036352.0	1.00	1.85
26/01/2020 10:59:13	26012020	260120	105913	103.220	12.418770	-57.245025	103.200	-0.250	0.050	-0.020	103.220	-1.300	0.700																			1580036353.0	1.07	1.98
26/01/2020 10:59:14	26012020	260120	105914	103.230	12.418773	-57.245025	103.170	-0.240	-0.100	-0.620	103.230	-1.400	-0.000																			1580036354.0	0.79	1.46
26/01/2020 10:59:15	26012020	260120	105915	103.200	12.418775	-57.245023	103.130	-0.140	-0.200	-0.920	103.200	-1.600	-0.400																			1580036355.0	0.48	0.89
26/01/2020 10:59:16	26012020	260120	105916	103.170	12.418775	-57.245023	103.090	-0.070	-0.020	-0.950	103.160	-1.500	-0.600																			1580036356.0	0.15	0.28
26/01/2020 10:59:17	26012020	260120	105917	103.160	12.418775	-57.245023	103.100	-0.030	0.200	-0.740	103.160	-1.200	-0.400																			1580036357.0	0.27	0.50
26/01/2020 10:59:18	26012020	260120	105918	103.170	12.418775	-57.245025	103.110	0.110	0.110	-0.340	103.170	-1.200	-0.100																			1580036358.0	0.33	0.61
26/01/2020 10:59:19	26012020	260120	105919	103.150	12.418773	-57.245025	103.060	0.300	-0.240	0.300	103.130	-1.500	0.400																			1580036359.0	0.33	0.61
26/01/2020 10:59:20	26012020	260120	105920	103.040	12.418770	-57.245023	102.960	0.340	-0.530	1.060	103.020	-1.800	1.100																			1580036360.0	0.57	1.06
26/01/2020 10:59:21	26012020	260120	105921	102.940	12.418768	-57.245023	102.920	0.150	-0.540	1.800	102.930	-1.900	1.900																			1580036361.0	0.64	1.19
26/01/2020 10:59:22	26012020	260120	105922	102.910	12.418765	-57.245025	102.960	-0.160	-0.340	2.360	102.920	-1.800	2.500																			1580036362.0	0.74	1.37
26/01/2020 10:59:23	26012020	260120	105923	102.920	12.418760	-57.245027	102.930	-0.390	-0.070	2.650	102.920	-1.500	2.900																			1580036363.0	0.81	1.50
26/01/2020 10:59:24	26012020	260120	105924	102.830	12.418758	-57.245027	102.780	-0.400	0.100	2.680	102.790	-1.300	3.100																			1580036364.0	0.69	1.28
26/01/2020 10:59:25	26012020	260120	105925	102.670	12.418757	-57.245027	102.590	-0.220	0.140	2.310	102.630	-1.300	2.900																			1580036365.0	0.36	0.67
26/01/2020 10:59:26	26012020	260120	105926	102.510	12.418758	-57.245027	102.560	0.050	0.200	1.410	102.500	-1.200	2.200																			1580036366.0	0.37	0.69
26/01/2020 10:59:27	26012020	260120	105927	102.580	12.418763	-57.245025	102.720	0.260	0.250	0.130	102.620	-1.100	1.100																			1580036367.0	1.23	2.28
26/01/2020 10:59:28	26012020	260120	105928	102.830	12.418772	-57.245023	102.960	0.320	0.120	-1.130	102.890	-1.200	-0.300																			1580036368.0	1.73	3.20
26/01/2020 10:59:29	26012020	260120	105929	103.090	12.418778	-57.245022	103.080	0.270	-0.220	-1.850	103.110	-1.400	-1.200																			1580036369.0	1.55	2.87
26/01/2020 10:59:30	26012020	260120	105930	103.110	12.418782	-57.245020	102.960	0.170	-0.570	-1.810	103.080	-1.800	-1.500																			1580036370.0	0.88	1.63
26/01/2020 10:59:31	26012020	260120	105931	102.930	12.418782	-57.245018	102.750	0.020	-0.660	-1.080	102.880	-2.000	-1.000																			1580036371.0	0.22	0.41
26/01/2020 10:59:32	26012020	260120	105932	102.710	12.418777	-57.245020	102.610	-0.190	-0.440	0.140	102.680	-1.900	0.000																			1580036372.0	0.95	1.76
26/01/2020 10:59:33	26012020	260120	105933	102.590	12.418770	-57.245023	102.540	-0.370	-0.050	1.490	102.570	-1.600	1.400																			1580036373.0	1.66	3.07
26/01/2020 10:59:34	26012020	260120	105934	102.500	12.418762	-57.245027	102.480	-0.400	0.180	2.560	102.490	-1.300	2.600																			1580036374.0	1.82	3.37
26/01/2020 10:59:35	26012020	260120	105935	102.430	12.418757	-57.245028	102.470	-0.190	0.090	3.060	102.430	-1.200	3.300																			1580036375.0	1.39	2.57
26/01/2020 10:59:36	26012020	260120	105936	102.440	12.418753	-57.245027	102.550	0.140	-0.140	2.900	102.450	-1.400	3.400																			1580036376.0	0.65	1.20
26/01/2020 10:59:37	26012020	260120	105937	102.520	12.418753	-57.245025	102.680	0.380	-0.200	2.280	102.540	-1.600	3.000																			1580036377.0	0.41	0.76
26/01/2020 10:59:38	26012020	260120	105938	102.700	12.418758	-57.245023	102.830	0.400	-0.020	1.340	102.740	-1.500	2.100																			1580036378.0	0.90	1.67
26/01/2020 10:59:39	26012020	260120	105939	102.840	12.418763	-57.245023	102.960	0.230	0.170	0.280	102.880	-1.300	1.100																			1580036379.0	1.36	2.52
26/01/2020 10:59:40	26012020	260120	105940	102.970	12.418772	-57.245023	102.980	0.030	0.120	-0.660	102.980	-1.200	0.100																			1580036380.0	1.46	2.70
26/01/2020 10:59:41	26012020	260120	105941	102.980	12.418777	-57.245022	102.950	-0.120	-0.120	-1.260	102.980	-1.400	-0.700																			1580036381.0	1.13	2.09
26/01/2020 10:59:42	26012020	260120	105942	102.980	12.418778	-57.245022	102.950	-0.180	-0.330	-1.360	102.980	-1.600	-1.000																			1580036382.0	0.58	1.07
26/01/2020 10:59:43	26012020	260120	105943	102.980	12.418778	-57.245022	102.970	-0.230	-0.350	-1.010	102.990	-1.700	-0.800																			1580036383.0	0.14	0.26
26/01/2020 10:59:44	26012020	260120	105944	103.040	12.418775	-57.245022	103.050	-0.310	-0.190	-0.380	103.050	-1.600	-0.300																			1580036384.0	0.72	1.33
26/01/2020 10:59:45	26012020	260120	105945	103.110	12.418770	-57.245025	103.130	-0.330	-0.060	0.370	103.120	-1.500	0.500																			1580036385.0	1.09	2.02
26/01/2020 10:59:46	26012020	260120	105946	103.170	12.418765	-57.245027	103.190	-0.180	-0.090	1.070	103.180	-1.400	1.200																			1580036386.0	1.14	2.11
26/01/2020 10:59:47	26012020	260120	105947	103.210	12.418762	-57.245027	103.240	0.080	-0.220	1.590	103.220	-1.500	1.800																			1580036387.0	0.96	1.78
26/01/2020 10:59:48	26012020	260120	105948	103.260	12.418758	-57.245027	103.300	0.310	-0.250	1.870	103.270	-1.600	2.200																			1580036388.0	0.62	1.15
26/01/2020 10:59:49	26012020	260120	105949	103.330	12.418757	-57.245027	103.430	0.360	-0.110	1.860	103.360	-1.600	2.300																			1580036389.0	0.20	0.37
26/01/2020 10:59:50	26012020	260120	105950	103.510	12.418758	-57.245027	103.650	0.270	0.070	1.590	103.550	-1.400	2.100																			1580036390.0	0.15	0.28
26/01/2020 10:59:51	26012020	260120	105951	103.740	12.418760	-57.245027	103.850	0.180	0.070	1.120	103.780	-1.300	1.700																			1580036391.0	0.31	0.57
26/01/2020 10:59:52	26012020	260120	105952	103.880	12.418762	-57.245025	103.880	0.180	-0.090	0.590	103.890	-1.400	1.200																			1580036392.0	0.50	0.93
26/01/2020 10:59:53	26012020	260120	105953	103.890	12.418763	-57.245023	103.840	0.200	-0.220	0.160	103.880	-1.600	0.700																			1580036393.0	0.67	1.24
26/01/2020 10:59:54	26012020	260120	105954	103.820	12.418767	-57.245022	103.770	0.100	-0.140	-0.090	103.810	-1.600	0.400																			1580036394.0	0.59	1.09
26/01/2020 10:59:55	26012020	260120	105955	103.780	12.418768	-57.245022	103.770	-0.130	0.020	-0.110	103.780	-1.400	0.300																			1580036395.0	0.36	0.67
26/01/2020 10:59:56	26012020	260120	105956	103.810	12.418768	-57.245023	103.800	-0.390	0.010	0.120	103.810	-1.300	0.400																			1580036396.0	0.17	0.31
26/01/2020 10:59:57	26012020	260120	105957	103.840	12.418765	-57.245023	103.840	-0.540	-0.150	0.490	103.850	-1.500	0.700																			1580036397.0	0.51	0.94
26/01/2020 10:59:58	26012020	260120	105958	103.870	12.418762	-57.245023	103.880	-0.510	-0.250	0.920	103.880	-1.600	1.100																			1580036398.0	0.88	1.63
26/01/2020 10:59:59	26012020	260120	105959	103.880	12.418757	-57.245025	103.890	-0.330	-0.190	1.350	103.880	-1.600	1.600																			1580036399.0	1.03	1.91
26/01/2020 11:00:00	26012020	260120	110000	103.880	12.418753	-57.245027	103.890	-0.050	-0.020	1.660	103.880	-1.500	2.000	1014.60	25.80	25.80	19.00	19.00	109.00	66.00	66.00	376.00	25.70	355.00	7.10	98.00	6.80	7020	3167.00	27.40	27.40	1580036400.0	0.93	1.72
26/01/2020 11:00:01	26012020	260120	110001	103.880	12.418750	-57.245028	103.890	0.230	0.100	1.670	103.880	-1.300	2.100																			1580036401.0	0.57	1.06
26/01/2020 11:00:02	26012020	260120	110002	103.880	12.418752	-57.245028	103.870	0.460	0.000	1.400	103.880	-1.300	1.900																			1580036402.0	0.17	0.31
26/01/2020 11:00:03	26012020	260120	110003	103.840	12.418753	-57.245027	103.750	0.600	-0.310	1.000	103.830	-1.500	1.600																			1580036403.0	0.65	1.20
26/01/2020 11:00:04	26012020	260120	110004	103.700	12.418758	-57.245025	103.610	0.580	-0.580	0.620	103.670	-1.900	1.200																			1580036404.0	0.97	1.80
26/01/2020 11:00:05	26012020	260120	110005	103.590	12.418762	-57.245023	103.550	0.360	-0.610	0.370	103.580	-2.000	0.800																			1580036405.0	0.87	1.61
26/01/2020 11:00:06	26012020	260120	110006	103.560	12.418763	-57.245022	103.540	0.030	-0.400	0.350	103.560	-1.900	0.700																			1580036406.0	0.39	0.72
26/01/2020 11:00:07	26012020	260120	110007	103.560	12.418762	-57.245022	103.560	-0.260	-0.010	0.500	103.560	-1.600	0.800																			1580036407.0	0.19	0.35
26/01/2020 11:00:08	26012020	260120	110008	103.590	12.418760	-57.245023	103.610	-0.410	0.430	0.710	103.600	-1.100	1.000																			1580036408.0	0.58	1.07
26/01/2020 11:00:09	26012020	260120	110009	103.630	12.418758	-57.245025	103.650	-0.400	0.690	0.910	103.630	-0.800	1.200																			1580036409.0	0.64	1.19
26/01/2020 11:00:10	26012020	260120	110010	103.660	12.418757	-57.245027	103.700	-0.280	0.560	1.000	103.670	-0.700	1.400																			1580036410.0	0.39	0.72
26/01/2020 11:00:11	26012020	260120	110011	103.730	12.418757	-57.245027	103.810	-0.110	0.090	0.940	103.760	-1.100	1.400																			1580036411.0	0.14	0.26
26/01/2020 11:00:12	26012020	260120	110012	103.850	12.418755	-57.245025	103.910	0.070	-0.470	0.870	103.870	-1.600	1.300																			1580036412.0	0.31	0.57
26/01/2020 11:00:13	26012020	260120	110013	103.930	12.418755	-57.245023	103.950	0.200	-0.780	0.860	103.940	-2.100	1.300																			1580036413.0	0.31	0.57
26/01/2020 11:00:14	26012020	260120	110014	103.950	12.418755	-57.245023	103.920	0.190	-0.710	0.900	103.940	-2.200	1.300																			1580036414.0	0.07	0.13
26/01/2020 11:00:15	26012020	260120	110015	103.920	12.418755	-57.245025	103.860	0.080	-0.370	0.950	103.910	-1.900	1.300																			1580036415.0	0.26	0.48
26/01/2020 11:00:16	26012020	260120	110016	103.830	12.418755	-57.245027	103.770	-0.040	-0.050	1.010	103.810	-1.500	1.400																			1580036416.0	0.39	0.72
26/01/2020 11:00:17	26012020	260120	110017	103.730	12.418757	-57.245028	103.710	-0.090	0.060	1.000	103.720	-1.300	1.400																			1580036417.0	0.25	0.46
26/01/2020 11:00:18	26012020	260120	110018	103.710	12.418757	-57.245028	103.730	-0.030	-0.050	0.880	103.710	-1.400	1.300																			1580036418.0	0.09	0.17
26/01/2020 11:00:19	26012020	260120	110019	103.730	12.418757	-57.245027	103.740	0.080	-0.210	0.760	103.730	-1.500	1.200																			1580036419.0	0.31	0.57
26/01/2020 11:00:20	26012020	260120	110020	103.730	12.418757	-57.245025	103.730	0.180	-0.220	0.660	103.730	-1.600	1.100																			1580036420.0	0.35	0.65
26/01/2020 11:00:21	26012020	260120	110021	103.750	12.418757	-57.245023	103.810	0.180	0.040	0.540	103.770	-1.500	1.000																			1580036421.0	0.17	0.31
26/01/2020 11:00:22	26012020	260120	110022	103.900	12.418758	-57.245025	104.030	0.070	0.440	0.410	103.940	-1.100	0.900																			1580036422.0	0.25	0.46
26/01/2020 11:00:23	26012020	260120	110023	104.160	12.418758	-57.245027	104.300	-0.040	0.640	0.300	104.210	-0.800	0.700																			1580036423.0	0.51	0.94
26/01/2020 11:00:24	26012020	260120	110024	104.380	12.418760	-57.245028	104.460	-0.070	0.350	0.340	104.410	-0.900	0.700																			1580036424.0	0.38	0.70
26/01/2020 11:00:25	26012020	260120	110025	104.480	12.418760	-57.245028	104.480	-0.010	-0.300	0.600	104.480	-1.400	0.900																			1580036425.0	0.06	0.11
26/01/2020 11:00:26	26012020	260120	110026	104.430	12.418758	-57.245027	104.350	0.030	-0.880	1.030	104.400	-2.100	1.200																			1580036426.0	0.45	0.83
26/01/2020 11:00:27	26012020	260120	110027	104.220	12.418755	-57.245027	104.060	-0.010	-1.080	1.600	104.160	-2.400	1.800																			1580036427.0	0.64	1.19
26/01/2020 11:00:28	26012020	260120	110028	103.890	12.418752	-57.245027	103.740	-0.120	-0.830	2.150	103.820	-2.400	2.400																			1580036428.0	0.75	1.39
26/01/2020 11:00:29	26012020	260120	110029	103.600	12.418750	-57.245028	103.560	-0.230	-0.270	2.380	103.570	-1.900	2.700																			1580036429.0	0.67	1.24
26/01/2020 11:00:30	26012020	260120	110030	103.540	12.418748	-57.245030	103.630	-0.260	0.300	2.030	103.550	-1.300	2.600																			1580036430.0	0.39	0.72
26/01/2020 11:00:31	26012020	260120	110031	103.710	12.418750	-57.245032	103.860	-0.160	0.580	1.210	103.770	-0.900	2.000																			1580036431.0	0.44	0.81
26/01/2020 11:00:32	26012020	260120	110032	103.960	12.418755	-57.245030	104.030	0.060	0.490	0.260	104.000	-0.800	1.000																			1580036432.0	0.88	1.63
26/01/2020 11:00:33	26012020	260120	110033	104.090	12.418760	-57.245028	104.080	0.260	0.190	-0.500	104.100	-1.100	0.200																			1580036433.0	1.11	2.06
26/01/2020 11:00:34	26012020	260120	110034	104.090	12.418763	-57.245027	104.020	0.330	-0.070	-0.890	104.080	-1.400	-0.400																			1580036434.0	1.01	1.87
26/01/2020 11:00:35	26012020	260120	110035	104.020	12.418767	-57.245025	103.940	0.260	-0.220	-0.870	104.000	-1.500	-0.500																			1580036435.0	0.62	1.15
26/01/2020 11:00:36	26012020	260120	110036	103.940	12.418767	-57.245025	103.870	0.120	-0.350	-0.460	103.920	-1.700	-0.300																			1580036436.0	0.13	0.24
26/01/2020 11:00:37	26012020	260120	110037	103.830	12.418765	-57.245025	103.730	0.010	-0.460	0.250	103.800	-1.800	0.300																			1580036437.0	0.44	0.81
26/01/2020 11:00:38	26012020	260120	110038	103.660	12.418762	-57.245027	103.560	-0.080	-0.430	1.140	103.620	-1.800	1.200																			1580036438.0	0.84	1.56
26/01/2020 11:00:39	26012020	260120	110039	103.470	12.418757	-57.245028	103.400	-0.180	-0.220	2.010	103.440	-1.700	2.100																			1580036439.0	1.07	1.98
26/01/2020 11:00:40	26012020	260120	110040	103.310	12.418752	-57.245030	103.290	-0.260	0.040	2.600	103.280	-1.400	2.800																			1580036440.0	1.06	1.96
26/01/2020 11:00:41	26012020	260120	110041	103.230	12.418748	-57.245032	103.280	-0.260	0.200	2.730	103.230	-1.200	3.100																			1580036441.0	0.69	1.28
26/01/2020 11:00:42	26012020	260120	110042	103.260	12.418748	-57.245032	103.330	-0.180	0.130	2.430	103.270	-1.200	3.000																			1580036442.0	0.14	0.26
26/01/2020 11:00:43	26012020	260120	110043	103.300	12.418750	-57.245032	103.320	-0.020	-0.190	1.900	103.300	-1.400	2.500																			1580036443.0	0.37	0.69
26/01/2020 11:00:44	26012020	260120	110044	103.240	12.418752	-57.245028	103.210	0.170	-0.530	1.210	103.230	-1.800	1.900																			1580036444.0	0.74	1.37
26/01/2020 11:00:45	26012020	260120	110045	103.150	12.418755	-57.245027	103.080	0.280	-0.520	0.440	103.120	-2.000	1.200																			1580036445.0	0.91	1.69
26/01/2020 11:00:46	26012020	260120	110046	103.030	12.418760	-57.245025	102.950	0.260	-0.100	-0.260	103.000	-1.700	0.400																			1580036446.0	0.96	1.78
26/01/2020 11:00:47	26012020	260120	110047	102.930	12.418765	-57.245025	102.880	0.120	0.320	-0.720	102.920	-1.200	-0.200																			1580036447.0	1.06	1.96
26/01/2020 11:00:48	26012020	260120	110048	102.900	12.418768	-57.245027	102.880	-0.050	0.360	-0.880	102.900	-1.000	-0.400																			1580036448.0	0.80	1.48
26/01/2020 11:00:49	26012020	260120	110049	102.920	12.418770	-57.245027	102.910	-0.150	0.070	-0.750	102.930	-1.200	-0.400																			1580036449.0	0.32	0.59
26/01/2020 11:00:50	26012020	260120	110050	102.940	12.418768	-57.245025	102.930	-0.140	-0.260	-0.320	102.950	-1.500	-0.100																			1580036450.0	0.33	0.61
26/01/2020 11:00:51	26012020	260120	110051	102.940	12.418765	-57.245023	102.900	-0.090	-0.380	0.420	102.930	-1.700	0.500																			1580036451.0	0.66	1.22
26/01/2020 11:00:52	26012020	260120	110052	102.880	12.418762	-57.245025	102.850	-0.080	-0.230	1.350	102.860	-1.700	1.400																			1580036452.0	1.00	1.85
26/01/2020 11:00:53	26012020	260120	110053	102.790	12.418757	-57.245027	102.770	-0.130	0.000	2.170	102.770	-1.400	2.300																			1580036453.0	1.18	2.19
26/01/2020 11:00:54	26012020	260120	110054	102.700	12.418753	-57.245030	102.730	-0.150	0.100	2.550	102.690	-1.300	2.900																			1580036454.0	0.91	1.69
26/01/2020 11:00:55	26012020	260120	110055	102.700	12.418752	-57.245030	102.780	-0.070	-0.010	2.450	102.710	-1.300	2.900																			1580036455.0	0.29	0.54
26/01/2020 11:00:56	26012020	260120	110056	102.780	12.418753	-57.245030	102.880	0.080	-0.280	1.990	102.810	-1.500	2.600																			1580036456.0	0.30	0.56
26/01/2020 11:00:57	26012020	260120	110057	102.850	12.418755	-57.245028	102.860	0.220	-0.550	1.400	102.850	-1.800	2.000																			1580036457.0	0.70	1.30
26/01/2020 11:00:58	26012020	260120	110058	102.770	12.418758	-57.245025	102.690	0.220	-0.610	0.880	102.740	-2.000	1.500																			1580036458.0	0.81	1.50
26/01/2020 11:00:59	26012020	260120	110059	102.580	12.418762	-57.245023	102.480	0.060	-0.380	0.430	102.540	-1.900	1.000																			1580036459.0	0.67	1.24
26/01/2020 11:01:00	26012020	260120	110100	102.410	12.418763	-57.245023	102.350	-0.120	0.020	0.030	102.390	-1.500	0.600	1014.60	25.70	25.70	18.60	18.70	113.00	64.00	65.00	375.00	25.70	350.00	7.90	93.00	7.60	7217	3169.00	27.40	27.40	1580036460.0	0.55	1.02
26/01/2020 11:01:01	26012020	260120	110101	102.350	12.418767	-57.245025	102.350	-0.200	0.340	-0.360	102.360	-1.100	0.200																			1580036461.0	0.51	0.94
26/01/2020 11:01:02	26012020	260120	110102	102.430	12.418768	-57.245025	102.460	-0.130	0.450	-0.670	102.450	-0.900	-0.200																			1580036462.0	0.44	0.81
26/01/2020 11:01:03	26012020	260120	110103	102.580	12.418770	-57.245023	102.630	0.000	0.370	-0.770	102.620	-0.900	-0.400																			1580036463.0	0.31	0.57
26/01/2020 11:01:04	26012020	260120	110104	102.760	12.418770	-57.245023	102.820	0.110	0.180	-0.600	102.790	-1.100	-0.300																			1580036464.0	0.17	0.31
26/01/2020 11:01:05	26012020	260120	110105	102.920	12.418770	-57.245023	103.020	0.110	-0.040	-0.200	102.950	-1.300	0.000																			1580036465.0	0.06	0.11
26/01/2020 11:01:06	26012020	260120	110106	103.130	12.418768	-57.245023	103.120	0.010	-0.230	0.480	103.150	-1.500	0.600																			1580036466.0	0.31	0.57
26/01/2020 11:01:07	26012020	260120	110107	103.100	12.418765	-57.245025	102.960	-0.080	-0.470	1.440	103.060	-1.700	1.400																			1580036467.0	0.66	1.22
26/01/2020 11:01:08	26012020	260120	110108	102.830	12.418762	-57.245025	102.670	-0.120	-0.710	2.480	102.770	-2.000	2.500																			1580036468.0	1.01	1.87
26/01/2020 11:01:09	26012020	260120	110109	102.510	12.418755	-57.245027	102.390	-0.100	-0.860	3.240	102.450	-2.200	3.400																			1580036469.0	1.21	2.24
26/01/2020 11:01:10	26012020	260120	110110	102.230	12.418752	-57.245027	102.180	-0.040	-0.790	3.460	102.190	-2.200	3.800																			1580036470.0	0.96	1.78
26/01/2020 11:01:11	26012020	260120	110111	102.070	12.418750	-57.245025	102.110	-0.010	-0.390	3.020	102.050	-1.900	3.700																			1580036471.0	0.33	0.61
26/01/2020 11:01:12	26012020	260120	110112	102.090	12.418752	-57.245025	102.250	-0.030	0.260	1.940	102.110	-1.400	2.800																			1580036472.0	0.54	1.00
26/01/2020 11:01:13	26012020	260120	110113	102.330	12.418758	-57.245025	102.530	-0.040	0.820	0.400	102.390	-0.700	1.400																			1580036473.0	1.34	2.48
26/01/2020 11:01:14	26012020	260120	110114	102.670	12.418767	-57.245025	102.840	0.040	0.940	-1.150	102.740	-0.400	-0.200																			1580036474.0	1.81	3.35
26/01/2020 11:01:15	26012020	260120	110115	102.980	12.418775	-57.245023	103.080	0.200	0.570	-2.270	103.040	-0.600	-1.500																			1580036475.0	1.83	3.39
26/01/2020 11:01:16	26012020	260120	110116	103.180	12.418782	-57.245020	103.170	0.300	0.020	-2.660	103.200	-1.100	-2.200																			1580036476.0	1.42	2.63
26/01/2020 11:01:17	26012020	260120	110117	103.210	12.418783	-57.245018	103.100	0.280	-0.440	-2.160	103.200	-1.600	-2.100																			1580036477.0	0.64	1.19
26/01/2020 11:01:18	26012020	260120	110118	103.020	12.418782	-57.245018	102.820	0.150	-0.770	-0.860	102.960	-2.000	-1.100																			1580036478.0	0.34	0.63
26/01/2020 11:01:19	26012020	260120	110119	102.650	12.418777	-57.245020	102.440	-0.030	-0.990	0.910	102.570	-2.300	0.600																			1580036479.0	1.25	2.31
26/01/2020 11:01:20	26012020	260120	110120	102.250	12.418768	-57.245022	102.170	-0.240	-0.980	2.630	102.200	-2.400	2.400																			1580036480.0	1.89	3.50
26/01/2020 11:01:21	26012020	260120	110121	102.060	12.418758	-57.245023	102.140	-0.450	-0.590	3.900	102.050	-2.100	3.800																			1580036481.0	2.09	3.87
26/01/2020 11:01:22	26012020	260120	110122	102.060	12.418750	-57.245025	102.220	-0.560	0.010	4.480	102.070	-1.600	4.700																			1580036482.0	1.83	3.39
26/01/2020 11:01:23	26012020	260120	110123	102.160	12.418745	-57.245028	102.370	-0.440	0.530	4.170	102.190	-1.000	4.800																			1580036483.0	1.07	1.98
26/01/2020 11:01:24	26012020	260120	110124	102.340	12.418747	-57.245028	102.560	-0.110	0.740	2.920	102.390	-0.700	3.900																			1580036484.0	0.22	0.41
26/01/2020 11:01:25	26012020	260120	110125	102.610	12.418753	-57.245027	102.810	0.300	0.630	1.010	102.670	-0.600	2.200																			1580036485.0	1.50	2.78
26/01/2020 11:01:26	26012020	260120	110126	102.880	12.418763	-57.245023	102.960	0.650	0.180	-0.980	102.920	-1.000	0.200																			1580036486.0	2.46	4.56
26/01/2020 11:01:27	26012020	260120	110127	102.980	12.418777	-57.245018	102.910	0.800	-0.370	-2.470	102.980	-1.500	-1.600																			1580036487.0	2.74	5.07
26/01/2020 11:01:28	26012020	260120	110128	102.890	12.418785	-57.245015	102.730	0.620	-0.680	-3.020	102.850	-2.000	-2.500																			1580036488.0	2.17	4.02
26/01/2020 11:01:29	26012020	260120	110129	102.700	12.418790	-57.245013	102.540	0.150	-0.600	-2.600	102.670	-2.000	-2.500																			1580036489.0	0.89	1.65
26/01/2020 11:01:30	26012020	260120	110130	102.540	12.418788	-57.245015	102.420	-0.350	-0.320	-1.450	102.510	-1.800	-1.600																			1580036490.0	0.52	0.96
26/01/2020 11:01:31	26012020	260120	110131	102.420	12.418782	-57.245018	102.340	-0.650	-0.140	0.150	102.390	-1.600	-0.100																			1580036491.0	1.53	2.83
26/01/2020 11:01:32	26012020	260120	110132	102.320	12.418772	-57.245022	102.340	-0.660	-0.120	1.800	102.320	-1.500	1.500																			1580036492.0	2.23	4.13
26/01/2020 11:01:33	26012020	260120	110133	102.310	12.418760	-57.245023	102.380	-0.450	-0.060	3.110	102.320	-1.500	3.000																			1580036493.0	2.38	4.41
26/01/2020 11:01:34	26012020	260120	110134	102.320	12.418752	-57.245025	102.420	-0.170	0.020	3.790	102.330	-1.400	4.000																			1580036494.0	1.78	3.30
26/01/2020 11:01:35	26012020	260120	110135	102.380	12.418748	-57.245025	102.520	0.080	-0.010	3.680	102.400	-1.300	4.200																			1580036495.0	0.69	1.28
26/01/2020 11:01:36	26012020	260120	110136	102.500	12.418750	-57.245025	102.590	0.270	-0.170	2.980	102.510	-1.500	3.700																			1580036496.0	0.41	0.76
26/01/2020 11:01:37	26012020	260120	110137	102.550	12.418755	-57.245022	102.600	0.380	-0.210	1.880	102.550	-1.600	2.700																			1580036497.0	1.15	2.13
26/01/2020 11:01:38	26012020	260120	110138	102.600	12.418762	-57.245020	102.680	0.350	0.020	0.560	102.620	-1.500	1.500																			1580036498.0	1.54	2.85
26/01/2020 11:01:39	26012020	260120	110139	102.720	12.418770	-57.245020	102.770	0.190	0.320	-0.660	102.740	-1.100	0.200																			1580036499.0	1.60	2.96
26/01/2020 11:01:40	26012020	260120	110140	102.810	12.418777	-57.245020	102.760	0.070	0.310	-1.540	102.810	-1.000	-0.800																			1580036500.0	1.40	2.59
26/01/2020 11:01:41	26012020	260120	110141	102.770	12.418780	-57.245018	102.630	0.080	-0.120	-1.890	102.750	-1.300	-1.400																			1580036501.0	1.00	1.85
26/01/2020 11:01:42	26012020	260120	110142	102.590	12.418783	-57.245017	102.460	0.150	-0.660	-1.670	102.550	-1.800	-1.400																			1580036502.0	0.62	1.15
26/01/2020 11:01:43	26012020	260120	110143	102.460	12.418782	-57.245015	102.390	0.130	-0.880	-1.030	102.440	-2.200	-0.900																			1580036503.0	0.46	0.85
26/01/2020 11:01:44	26012020	260120	110144	102.430	12.418778	-57.245015	102.450	-0.040	-0.610	-0.110	102.440	-2.100	-0.100																			1580036504.0	0.75	1.39
26/01/2020 11:01:45	26012020	260120	110145	102.510	12.418773	-57.245017	102.570	-0.320	-0.030	0.990	102.530	-1.600	0.900																			1580036505.0	1.22	2.26
26/01/2020 11:01:46	26012020	260120	110146	102.600	12.418767	-57.245022	102.670	-0.540	0.500	2.040	102.620	-1.000	2.000																			1580036506.0	1.54	2.85
26/01/2020 11:01:47	26012020	260120	110147	102.650	12.418762	-57.245025	102.710	-0.560	0.660	2.780	102.650	-0.700	2.900																			1580036507.0	1.44	2.67
26/01/2020 11:01:48	26012020	260120	110148	102.650	12.418757	-57.245025	102.710	-0.320	0.340	3.070	102.640	-0.800	3.400																			1580036508.0	0.96	1.78
26/01/2020 11:01:49	26012020	260120	110149	102.620	12.418755	-57.245025	102.690	0.080	-0.260	2.850	102.610	-1.400	3.400																			1580036509.0	0.50	0.93
26/01/2020 11:01:50	26012020	260120	110150	102.610	12.418755	-57.245022	102.700	0.410	-0.720	2.190	102.620	-1.900	2.900																			1580036510.0	0.57	1.06
26/01/2020 11:01:51	26012020	260120	110151	102.630	12.418758	-57.245020	102.670	0.540	-0.750	1.260	102.630	-2.200	2.000																			1580036511.0	0.86	1.59
26/01/2020 11:01:52	26012020	260120	110152	102.600	12.418765	-57.245020	102.590	0.430	-0.350	0.170	102.590	-1.900	1.000																			1580036512.0	1.29	2.39
26/01/2020 11:01:53	26012020	260120	110153	102.570	12.418772	-57.245020	102.590	0.180	0.160	-0.880	102.570	-1.400	-0.100																			1580036513.0	1.61	2.98
26/01/2020 11:01:54	26012020	260120	110154	102.630	12.418778	-57.245020	102.650	-0.060	0.410	-1.630	102.660	-1.000	-1.000																			1580036514.0	1.45	2.69
26/01/2020 11:01:55	26012020	260120	110155	102.720	12.418782	-57.245020	102.750	-0.170	0.270	-1.890	102.740	-1.000	-1.400																			1580036515.0	0.82	1.52
26/01/2020 11:01:56	26012020	260120	110156	102.840	12.418783	-57.245020	102.860	-0.130	-0.090	-1.640	102.860	-1.300	-1.400																			1580036516.0	0.19	0.35
26/01/2020 11:01:57	26012020	260120	110157	102.910	12.418780	-57.245020	102.910	-0.060	-0.380	-0.920	102.920	-1.600	-0.900																			1580036517.0	0.57	1.06
26/01/2020 11:01:58	26012020	260120	110158	102.930	12.418775	-57.245020	102.910	-0.030	-0.410	0.100	102.920	-1.800	0.100																			1580036518.0	1.00	1.85
26/01/2020 11:01:59	26012020	260120	110159	102.880	12.418770	-57.245022	102.890	-0.050	-0.240	1.230	102.870	-1.700	1.200																			1580036519.0	1.31	2.43
26/01/2020 11:02:00	26012020	260120	110200	102.850	12.418763	-57.245023	102.930	-0.050	-0.050	2.180	102.850	-1.500	2.200	1014.70	25.70	25.70	18.60	18.70	119.00	64.00	65.00	375.00	25.70	350.00	7.10	92.00	6.60	7432	3146.00	27.40	27.40	1580036520.0	1.40	2.59
26/01/2020 11:02:01	26012020	260120	110201	102.890	12.418758	-57.245025	103.030	-0.030	-0.000	2.650	102.910	-1.400	2.900																			1580036521.0	1.11	2.06
26/01/2020 11:02:02	26012020	260120	110202	103.000	12.418757	-57.245027	103.120	-0.000	-0.070	2.650	103.020	-1.400	3.100																			1580036522.0	0.57	1.06
26/01/2020 11:02:03	26012020	260120	110203	103.060	12.418757	-57.245027	103.120	0.000	-0.130	2.330	103.060	-1.500	2.900																			1580036523.0	0.12	0.22
26/01/2020 11:02:04	26012020	260120	110204	103.040	12.418758	-57.245025	103.130	-0.010	-0.140	1.680	103.050	-1.500	2.400																			1580036524.0	0.35	0.65
26/01/2020 11:02:05	26012020	260120	110205	103.110	12.418760	-57.245025	103.250	-0.010	-0.080	0.760	103.130	-1.500	1.500																			1580036525.0	0.69	1.28
26/01/2020 11:02:06	26012020	260120	110206	103.290	12.418765	-57.245023	103.420	-0.010	-0.000	-0.190	103.330	-1.400	0.600																			1580036526.0	0.91	1.69
26/01/2020 11:02:07	26012020	260120	110207	103.430	12.418770	-57.245023	103.490	0.030	-0.030	-0.880	103.450	-1.400	-0.200																			1580036527.0	0.93	1.72
26/01/2020 11:02:08	26012020	260120	110208	103.460	12.418772	-57.245022	103.400	0.090	-0.140	-1.150	103.440	-1.500	-0.700																			1580036528.0	0.68	1.26
26/01/2020 11:02:09	26012020	260120	110209	103.370	12.418773	-57.245022	103.270	0.160	-0.230	-1.020	103.340	-1.600	-0.700																			1580036529.0	0.29	0.54
26/01/2020 11:02:10	26012020	260120	110210	103.230	12.418772	-57.245022	103.210	0.170	-0.210	-0.550	103.220	-1.600	-0.400																			1580036530.0	0.19	0.35
26/01/2020 11:02:11	26012020	260120	110211	103.230	12.418770	-57.245022	103.290	0.080	-0.030	0.170	103.240	-1.500	0.300																			1580036531.0	0.50	0.93
26/01/2020 11:02:12	26012020	260120	110212	103.350	12.418767	-57.245023	103.450	-0.090	0.120	1.000	103.390	-1.300	1.000																			1580036532.0	0.87	1.61
26/01/2020 11:02:13	26012020	260120	110213	103.490	12.418762	-57.245025	103.520	-0.200	0.040	1.870	103.490	-1.300	1.900																			1580036533.0	1.14	2.11
26/01/2020 11:02:14	26012020	260120	110214	103.440	12.418757	-57.245027	103.400	-0.150	-0.220	2.640	103.410	-1.500	2.700																			1580036534.0	1.21	2.24
26/01/2020 11:02:15	26012020	260120	110215	103.260	12.418752	-57.245027	103.210	0.010	-0.450	3.040	103.220	-1.700	3.300																			1580036535.0	1.00	1.85
26/01/2020 11:02:16	26012020	260120	110216	103.120	12.418750	-57.245027	103.170	0.140	-0.440	2.960	103.110	-1.800	3.400																			1580036536.0	0.48	0.89
26/01/2020 11:02:17	26012020	260120	110217	103.160	12.418750	-57.245027	103.240	0.150	-0.220	2.460	103.170	-1.700	3.100																			1580036537.0	0.18	0.33
26/01/2020 11:02:18	26012020	260120	110218	103.260	12.418753	-57.245027	103.280	0.100	-0.030	1.710	103.270	-1.500	2.400																			1580036538.0	0.62	1.15
26/01/2020 11:02:19	26012020	260120	110219	103.270	12.418757	-57.245025	103.220	0.070	0.010	0.800	103.260	-1.400	1.600																			1580036539.0	0.87	1.61
26/01/2020 11:02:20	26012020	260120	110220	103.180	12.418762	-57.245023	103.110	0.060	-0.020	-0.150	103.170	-1.400	0.600																			1580036540.0	1.09	2.02
26/01/2020 11:02:21	26012020	260120	110221	103.150	12.418767	-57.245022	103.130	0.020	0.030	-0.940	103.160	-1.400	-0.200																			1580036541.0	1.18	2.19
26/01/2020 11:02:22	26012020	260120	110222	103.260	12.418772	-57.245022	103.300	-0.070	0.150	-1.330	103.290	-1.300	-0.800																			1580036542.0	0.92	1.70
26/01/2020 11:02:23	26012020	260120	110223	103.440	12.418773	-57.245022	103.460	-0.210	0.200	-1.190	103.470	-1.200	-0.900																			1580036543.0	0.39	0.72
26/01/2020 11:02:24	26012020	260120	110224	103.570	12.418772	-57.245023	103.550	-0.310	0.070	-0.620	103.590	-1.200	-0.500																			1580036544.0	0.41	0.76
26/01/2020 11:02:25	26012020	260120	110225	103.600	12.418767	-57.245025	103.510	-0.270	-0.270	0.290	103.580	-1.500	0.300																			1580036545.0	0.92	1.70
26/01/2020 11:02:26	26012020	260120	110226	103.450	12.418762	-57.245025	103.330	-0.050	-0.680	1.370	103.400	-1.900	1.300																			1580036546.0	1.29	2.39
26/01/2020 11:02:27	26012020	260120	110227	103.230	12.418755	-57.245025	103.170	0.170	-0.810	2.290	103.200	-2.200	2.400																			1580036547.0	1.35	2.50
26/01/2020 11:02:28	26012020	260120	110228	103.150	12.418750	-57.245025	103.200	0.240	-0.430	2.800	103.150	-2.000	3.000																			1580036548.0	1.01	1.87
26/01/2020 11:02:29	26012020	260120	110229	103.230	12.418748	-57.245027	103.340	0.150	0.220	2.790	103.260	-1.400	3.200																			1580036549.0	0.59	1.09
26/01/2020 11:02:30	26012020	260120	110230	103.370	12.418750	-57.245030	103.460	0.020	0.670	2.260	103.390	-0.800	2.900																			1580036550.0	0.66	1.22
26/01/2020 11:02:31	26012020	260120	110231	103.480	12.418755	-57.245030	103.630	0.010	0.570	1.320	103.510	-0.700	2.100																			1580036551.0	0.97	1.80
26/01/2020 11:02:32	26012020	260120	110232	103.700	12.418760	-57.245028	103.810	0.120	-0.010	0.260	103.740	-1.100	1.100																			1580036552.0	1.28	2.37
26/01/2020 11:02:33	26012020	260120	110233	103.840	12.418765	-57.245025	103.830	0.260	-0.690	-0.450	103.850	-1.800	0.200																			1580036553.0	1.29	2.39
26/01/2020 11:02:34	26012020	260120	110234	103.790	12.418768	-57.245022	103.700	0.240	-1.000	-0.690	103.770	-2.300	-0.200																			1580036554.0	0.92	1.70
26/01/2020 11:02:35	26012020	260120	110235	103.660	12.418768	-57.245020	103.570	-0.020	-0.630	-0.540	103.630	-2.200	-0.200																			1580036555.0	0.24	0.44
26/01/2020 11:02:36	26012020	260120	110236	103.550	12.418768	-57.245023	103.510	-0.380	0.050	-0.150	103.540	-1.600	0.100																			1580036556.0	0.57	1.06
26/01/2020 11:02:37	26012020	260120	110237	103.520	12.418767	-57.245027	103.520	-0.600	0.460	0.370	103.520	-1.000	0.500																			1580036557.0	0.88	1.63
26/01/2020 11:02:38	26012020	260120	110238	103.550	12.418763	-57.245028	103.600	-0.540	0.410	0.880	103.560	-0.900	1.100																			1580036558.0	0.81	1.50
26/01/2020 11:02:39	26012020	260120	110239	103.620	12.418758	-57.245028	103.680	-0.290	0.090	1.340	103.630	-1.200	1.600																			1580036559.0	0.84	1.56
26/01/2020 11:02:40	26012020	260120	110240	103.710	12.418755	-57.245028	103.810	0.000	-0.120	1.660	103.730	-1.400	1.900																			1580036560.0	0.81	1.50
26/01/2020 11:02:41	26012020	260120	110241	103.850	12.418753	-57.245028	103.970	0.220	-0.100	1.710	103.880	-1.500	2.100																			1580036561.0	0.45	0.83
26/01/2020 11:02:42	26012020	260120	110242	104.000	12.418753	-57.245030	104.090	0.360	0.060	1.480	104.020	-1.400	2.000																			1580036562.0	0.24	0.44
26/01/2020 11:02:43	26012020	260120	110243	104.090	12.418757	-57.245032	104.160	0.440	0.120	1.070	104.110	-1.300	1.600																			1580036563.0	0.64	1.19
26/01/2020 11:02:44	26012020	260120	110244	104.120	12.418760	-57.245032	104.080	0.490	-0.150	0.700	104.110	-1.400	1.200																			1580036564.0	0.80	1.48
26/01/2020 11:02:45	26012020	260120	110245	104.020	12.418763	-57.245030	103.850	0.450	-0.640	0.470	103.980	-1.800	0.900																			1580036565.0	0.80	1.48
26/01/2020 11:02:46	26012020	260120	110246	103.740	12.418765	-57.245027	103.620	0.250	-0.910	0.400	103.700	-2.200	0.800																			1580036566.0	0.75	1.39
26/01/2020 11:02:47	26012020	260120	110247	103.530	12.418767	-57.245027	103.440	-0.100	-0.770	0.520	103.500	-2.300	0.900																			1580036567.0	0.37	0.69
26/01/2020 11:02:48	26012020	260120	110248	103.360	12.418767	-57.245027	103.300	-0.470	-0.350	0.840	103.330	-1.900	1.100																			1580036568.0	0.23	0.43
26/01/2020 11:02:49	26012020	260120	110249	103.260	12.418763	-57.245028	103.280	-0.730	0.160	1.130	103.250	-1.400	1.400																			1580036569.0	0.72	1.33
26/01/2020 11:02:50	26012020	260120	110250	103.310	12.418760	-57.245030	103.410	-0.780	0.620	1.230	103.330	-0.900	1.600																			1580036570.0	0.88	1.63
26/01/2020 11:02:51	26012020	260120	110251	103.450	12.418757	-57.245032	103.550	-0.550	0.780	1.150	103.480	-0.600	1.600																			1580036571.0	0.72	1.33
26/01/2020 11:02:52	26012020	260120	110252	103.550	12.418755	-57.245032	103.590	-0.090	0.530	0.900	103.550	-0.700	1.400																			1580036572.0	0.30	0.56
26/01/2020 11:02:53	26012020	260120	110253	103.540	12.418757	-57.245032	103.530	0.400	0.080	0.530	103.530	-1.100	1.100																			1580036573.0	0.35	0.65
26/01/2020 11:02:54	26012020	260120	110254	103.520	12.418758	-57.245028	103.560	0.700	-0.230	0.040	103.530	-1.500	0.600																			1580036574.0	0.78	1.44
26/01/2020 11:02:55	26012020	260120	110255	103.610	12.418763	-57.245028	103.670	0.760	-0.360	-0.360	103.630	-1.700	0.200																			1580036575.0	1.06	1.96
26/01/2020 11:02:56	26012020	260120	110256	103.680	12.418768	-57.245028	103.630	0.610	-0.500	-0.330	103.680	-1.800	-0.000																			1580036576.0	0.99	1.83
26/01/2020 11:02:57	26012020	260120	110257	103.590	12.418770	-57.245028	103.370	0.340	-0.740	0.230	103.540	-2.000	0.400																			1580036577.0	0.45	0.83
26/01/2020 11:02:58	26012020	260120	110258	103.210	12.418768	-57.245027	103.040	-0.040	-0.870	1.100	103.140	-2.200	1.100																			1580036578.0	0.36	0.67
26/01/2020 11:02:59	26012020	260120	110259	102.890	12.418765	-57.245027	102.820	-0.470	-0.610	1.970	102.850	-2.100	2.000																			1580036579.0	1.01	1.87
26/01/2020 11:03:00	26012020	260120	110300	102.710	12.418758	-57.245030	102.710	-0.820	0.010	2.680	102.680	-1.600	2.800	1014.70	25.70	25.80	18.80	18.90	127.00	65.00	65.00	376.00	25.80	349.00	7.30	92.00	7.00	7653	3264.00	27.40	27.40	1580036580.0	1.42	2.63
26/01/2020 11:03:01	26012020	260120	110301	102.630	12.418752	-57.245032	102.720	-0.910	0.600	2.940	102.630	-1.000	3.300																			1580036581.0	1.44	2.67
26/01/2020 11:03:02	26012020	260120	110302	102.710	12.418748	-57.245035	102.850	-0.650	0.780	2.500	102.740	-0.600	3.200																			1580036582.0	0.84	1.56
26/01/2020 11:03:03	26012020	260120	110303	102.890	12.418750	-57.245035	103.000	-0.080	0.400	1.450	102.930	-0.800	2.300																			1580036583.0	0.26	0.48
26/01/2020 11:03:04	26012020	260120	110304	103.040	12.418755	-57.245030	103.080	0.560	-0.230	0.190	103.060	-1.400	1.100																			1580036584.0	1.33	2.46
26/01/2020 11:03:05	26012020	260120	110305	103.130	12.418762	-57.245027	103.140	0.880	-0.540	-0.850	103.150	-1.900	-0.100																			1580036585.0	1.79	3.32
26/01/2020 11:03:06	26012020	260120	110306	103.210	12.418768	-57.245023	103.200	0.720	-0.250	-1.380	103.220	-1.800	-0.800																			1580036586.0	1.48	2.74
26/01/2020 11:03:07	26012020	260120	110307	103.260	12.418773	-57.245027	103.200	0.290	0.230	-1.360	103.260	-1.300	-1.000																			1580036587.0	1.08	2.00
26/01/2020 11:03:08	26012020	260120	110308	103.210	12.418775	-57.245030	103.120	-0.090	0.270	-0.840	103.190	-1.100	-0.700																			1580036588.0	0.76	1.41
26/01/2020 11:03:09	26012020	260120	110309	103.100	12.418773	-57.245030	102.990	-0.210	-0.320	0.070	103.070	-1.400	0.100																			1580036589.0	0.44	0.81
26/01/2020 11:03:10	26012020	260120	110310	102.930	12.418768	-57.245028	102.820	-0.130	-1.060	1.270	102.890	-2.200	1.200																			1580036590.0	1.13	2.09
26/01/2020 11:03:11	26012020	260120	110311	102.710	12.418762	-57.245027	102.630	-0.050	-1.220	2.490	102.660	-2.600	2.400																			1580036591.0	1.60	2.96
26/01/2020 11:03:12	26012020	260120	110312	102.520	12.418753	-57.245027	102.520	-0.130	-0.570	3.400	102.500	-2.300	3.500																			1580036592.0	1.60	2.96
26/01/2020 11:03:13	26012020	260120	110313	102.450	12.418748	-57.245032	102.520	-0.290	0.410	3.660	102.450	-1.400	4.000																			1580036593.0	1.32	2.44
26/01/2020 11:03:14	26012020	260120	110314	102.520	12.418748	-57.245035	102.660	-0.350	1.030	3.120	102.560	-0.500	3.800																			1580036594.0	0.77	1.43
26/01/2020 11:03:15	26012020	260120	110315	102.740	12.418750	-57.245035	102.880	-0.210	0.980	1.910	102.790	-0.300	2.900																			1580036595.0	0.68	1.26
26/01/2020 11:03:16	26012020	260120	110316	102.970	12.418757	-57.245033	103.050	0.090	0.400	0.370	103.000	-0.700	1.400																			1580036596.0	1.48	2.74
26/01/2020 11:03:17	26012020	260120	110317	103.130	12.418765	-57.245028	103.170	0.360	-0.260	-1.070	103.160	-1.400	-0.100																			1580036597.0	1.95	3.61
26/01/2020 11:03:18	26012020	260120	110318	103.260	12.418773	-57.245025	103.240	0.440	-0.660	-2.000	103.280	-1.900	-1.300																			1580036598.0	1.79	3.32
26/01/2020 11:03:19	26012020	260120	110319	103.280	12.418778	-57.245023	103.170	0.320	-0.750	-2.160	103.270	-2.100	-1.800																			1580036599.0	1.11	2.06
26/01/2020 11:03:20	26012020	260120	110320	103.150	12.418778	-57.245025	102.990	0.110	-0.640	-1.650	103.110	-2.100	-1.500																			1580036600.0	0.33	0.61
26/01/2020 11:03:21	26012020	260120	110321	102.990	12.418777	-57.245027	102.830	-0.070	-0.460	-0.700	102.950	-1.900	-0.700																			1580036601.0	0.48	0.89
26/01/2020 11:03:22	26012020	260120	110322	102.810	12.418773	-57.245028	102.770	-0.170	-0.260	0.520	102.790	-1.700	0.400																			1580036602.0	0.98	1.81
26/01/2020 11:03:23	26012020	260120	110323	102.730	12.418767	-57.245028	102.760	-0.220	-0.040	1.840	102.720	-1.500	1.700																			1580036603.0	1.41	2.61
26/01/2020 11:03:24	26012020	260120	110324	102.720	12.418760	-57.245030	102.810	-0.240	0.220	2.890	102.730	-1.300	2.900																			1580036604.0	1.60	2.96
26/01/2020 11:03:25	26012020	260120	110325	102.810	12.418753	-57.245032	102.920	-0.200	0.360	3.370	102.820	-1.000	3.600																			1580036605.0	1.29	2.39
26/01/2020 11:03:26	26012020	260120	110326	102.910	12.418752	-57.245033	103.020	-0.040	0.240	3.190	102.930	-1.100	3.700																			1580036606.0	0.57	1.06
26/01/2020 11:03:27	26012020	260120	110327	103.000	12.418752	-57.245032	103.070	0.180	0.020	2.470	103.020	-1.300	3.200																			1580036607.0	0.35	0.65
26/01/2020 11:03:28	26012020	260120	110328	103.070	12.418757	-57.245030	103.120	0.340	-0.140	1.410	103.090	-1.500	2.300																			1580036608.0	1.05	1.94
26/01/2020 11:03:29	26012020	260120	110329	103.160	12.418763	-57.245028	103.200	0.310	-0.190	0.230	103.180	-1.500	1.100																			1580036609.0	1.48	2.74
26/01/2020 11:03:30	26012020	260120	110330	103.260	12.418770	-57.245027	103.250	0.110	-0.200	-0.770	103.270	-1.600	-0.000																			1580036610.0	1.55	2.87
26/01/2020 11:03:31	26012020	260120	110331	103.270	12.418775	-57.245027	103.180	-0.120	-0.260	-1.290	103.260	-1.600	-0.800																			1580036611.0	1.16	2.15
26/01/2020 11:03:32	26012020	260120	110332	103.150	12.418778	-57.245025	103.000	-0.280	-0.300	-1.250	103.120	-1.700	-0.900																			1580036612.0	0.48	0.89
26/01/2020 11:03:33	26012020	260120	110333	102.960	12.418777	-57.245027	102.810	-0.310	-0.290	-0.830	102.920	-1.700	-0.600																			1580036613.0	0.13	0.24
26/01/2020 11:03:34	26012020	260120	110334	102.790	12.418775	-57.245027	102.690	-0.210	-0.250	-0.210	102.760	-1.600	-0.100																			1580036614.0	0.53	0.98
26/01/2020 11:03:35	26012020	260120	110335	102.680	12.418772	-57.245027	102.650	-0.030	-0.190	0.450	102.670	-1.600	0.600																			1580036615.0	0.69	1.28
26/01/2020 11:03:36	26012020	260120	110336	102.650	12.418768	-57.245027	102.710	0.140	-0.090	1.050	102.660	-1.500	1.200																			1580036616.0	0.70	1.30
26/01/2020 11:03:37	26012020	260120	110337	102.740	12.418765	-57.245027	102.890	0.240	0.080	1.470	102.780	-1.400	1.700																			1580036617.0	0.59	1.09
26/01/2020 11:03:38	26012020	260120	110338	102.940	12.418765	-57.245028	103.070	0.240	0.210	1.620	102.980	-1.200	2.000																			1580036618.0	0.31	0.57
26/01/2020 11:03:39	26012020	260120	110339	103.090	12.418765	-57.245028	103.140	0.150	0.210	1.590	103.100	-1.100	2.000																			1580036619.0	0.09	0.17
26/01/2020 11:03:40	26012020	260120	110340	103.060	12.418765	-57.245028	103.000	0.000	0.020	1.580	103.020	-1.300	2.000																			1580036620.0	0.16	0.30
26/01/2020 11:03:41	26012020	260120	110341	102.820	12.418765	-57.245027	102.700	-0.080	-0.320	1.550	102.760	-1.500	2.000																			1580036621.0	0.17	0.31
26/01/2020 11:03:42	26012020	260120	110342	102.540	12.418767	-57.245025	102.500	-0.080	-0.590	1.330	102.500	-1.900	1.800																			1580036622.0	0.35	0.65
26/01/2020 11:03:43	26012020	260120	110343	102.450	12.418767	-57.245023	102.500	-0.090	-0.550	0.930	102.450	-2.000	1.500																			1580036623.0	0.39	0.72
26/01/2020 11:03:44	26012020	260120	110344	102.530	12.418768	-57.245023	102.590	-0.140	-0.160	0.420	102.550	-1.700	1.000																			1580036624.0	0.34	0.63
26/01/2020 11:03:45	26012020	260120	110345	102.610	12.418770	-57.245025	102.640	-0.210	0.290	-0.060	102.620	-1.300	0.500																			1580036625.0	0.50	0.93
26/01/2020 11:03:46	26012020	260120	110346	102.660	12.418773	-57.245027	102.710	-0.230	0.520	-0.430	102.680	-0.900	0.100																			1580036626.0	0.55	1.02
26/01/2020 11:03:47	26012020	260120	110347	102.730	12.418775	-57.245027	102.800	-0.120	0.400	-0.620	102.740	-0.900	-0.200																			1580036627.0	0.45	0.83
26/01/2020 11:03:48	26012020	260120	110348	102.810	12.418777	-57.245027	102.810	0.140	-0.090	-0.580	102.810	-1.200	-0.200																			1580036628.0	0.38	0.70
26/01/2020 11:03:49	26012020	260120	110349	102.740	12.418777	-57.245023	102.680	0.410	-0.700	-0.230	102.720	-1.800	-0.000																			1580036629.0	0.48	0.89
26/01/2020 11:03:50	26012020	260120	110350	102.540	12.418777	-57.245022	102.460	0.480	-1.000	0.440	102.500	-2.300	0.500																			1580036630.0	0.56	1.04
26/01/2020 11:03:51	26012020	260120	110351	102.330	12.418773	-57.245022	102.340	0.290	-0.770	1.190	102.310	-2.300	1.300																			1580036631.0	0.62	1.15
26/01/2020 11:03:52	26012020	260120	110352	102.260	12.418770	-57.245023	102.350	-0.070	-0.180	1.820	102.260	-1.800	2.000																			1580036632.0	0.82	1.52
26/01/2020 11:03:53	26012020	260120	110353	102.310	12.418767	-57.245025	102.440	-0.380	0.380	2.170	102.320	-1.200	2.400																			1580036633.0	0.89	1.65
26/01/2020 11:03:54	26012020	260120	110354	102.400	12.418763	-57.245027	102.540	-0.480	0.580	2.240	102.420	-0.800	2.600																			1580036634.0	0.72	1.33
26/01/2020 11:03:55	26012020	260120	110355	102.480	12.418762	-57.245028	102.620	-0.350	0.430	1.930	102.490	-0.900	2.500																			1580036635.0	0.36	0.67
26/01/2020 11:03:56	26012020	260120	110356	102.560	12.418763	-57.245027	102.710	-0.060	0.120	1.250	102.590	-1.100	1.900																			1580036636.0	0.33	0.61
26/01/2020 11:03:57	26012020	260120	110357	102.700	12.418767	-57.245025	102.850	0.210	-0.100	0.400	102.720	-1.400	1.100																			1580036637.0	0.83	1.54
26/01/2020 11:03:58	26012020	260120	110358	102.840	12.418772	-57.245023	102.960	0.340	-0.110	-0.300	102.870	-1.500	0.300																			1580036638.0	1.04	1.93
26/01/2020 11:03:59	26012020	260120	110359	102.960	12.418775	-57.245023	103.030	0.300	-0.070	-0.700	102.980	-1.400	-0.200																			1580036639.0	0.98	1.81
26/01/2020 11:04:00	26012020	260120	110400	103.000	12.418778	-57.245025	102.980	0.210	-0.240	-0.740	103.000	-1.500	-0.400	1014.60	25.80	25.80	18.60	18.80	131.00	64.00	65.00	376.00	25.80	351.00	7.70	93.00	7.30	7846	3172.00	27.40	27.40	1580036640.0	0.70	1.30
26/01/2020 11:04:01	26012020	260120	110401	102.890	12.418780	-57.245023	102.780	0.120	-0.610	-0.370	102.840	-1.800	-0.200																			1580036641.0	0.23	0.43
26/01/2020 11:04:02	26012020	260120	110402	102.630	12.418778	-57.245023	102.530	0.020	-0.880	0.360	102.580	-2.200	0.400																			1580036642.0	0.44	0.81
26/01/2020 11:04:03	26012020	260120	110403	102.360	12.418773	-57.245023	102.300	-0.100	-0.830	1.270	102.310	-2.300	1.300																			1580036643.0	0.92	1.70
26/01/2020 11:04:04	26012020	260120	110404	102.170	12.418768	-57.245023	102.220	-0.230	-0.410	2.030	102.150	-2.000	2.100																			1580036644.0	1.15	2.13
26/01/2020 11:04:05	26012020	260120	110405	102.190	12.418765	-57.245025	102.380	-0.360	0.260	2.360	102.230	-1.400	2.700																			1580036645.0	1.03	1.91
26/01/2020 11:04:06	26012020	260120	110406	102.440	12.418762	-57.245028	102.670	-0.410	0.850	2.210	102.500	-0.700	2.700																			1580036646.0	0.72	1.33
26/01/2020 11:04:07	26012020	260120	110407	102.710	12.418762	-57.245030	102.860	-0.280	0.950	1.700	102.750	-0.400	2.300																			1580036647.0	0.38	0.70
26/01/2020 11:04:08	26012020	260120	110408	102.840	12.418763	-57.245028	102.890	0.050	0.460	1.020	102.840	-0.700	1.700																			1580036648.0	0.39	0.72
26/01/2020 11:04:09	26012020	260120	110409	102.840	12.418767	-57.245027	102.880	0.420	-0.260	0.270	102.840	-1.400	1.000																			1580036649.0	0.96	1.78
26/01/2020 11:04:10	26012020	260120	110410	102.850	12.418772	-57.245023	102.900	0.650	-0.660	-0.430	102.870	-1.900	0.200																			1580036650.0	1.23	2.28
26/01/2020 11:04:11	26012020	260120	110411	102.900	12.418777	-57.245022	102.950	0.600	-0.640	-0.870	102.920	-2.100	-0.400																			1580036651.0	1.12	2.07
26/01/2020 11:04:12	26012020	260120	110412	102.940	12.418780	-57.245022	102.920	0.290	-0.460	-0.830	102.940	-1.900	-0.500																			1580036652.0	0.77	1.43
26/01/2020 11:04:13	26012020	260120	110413	102.850	12.418780	-57.245023	102.790	-0.120	-0.330	-0.270	102.820	-1.700	-0.200																			1580036653.0	0.31	0.57
26/01/2020 11:04:14	26012020	260120	110414	102.670	12.418778	-57.245025	102.610	-0.450	-0.260	0.620	102.630	-1.700	0.600																			1580036654.0	0.73	1.35
26/01/2020 11:04:15	26012020	260120	110415	102.460	12.418772	-57.245027	102.430	-0.560	-0.180	1.570	102.420	-1.600	1.600																			1580036655.0	1.24	2.30
26/01/2020 11:04:16	26012020	260120	110416	102.300	12.418765	-57.245027	102.370	-0.480	-0.030	2.270	102.280	-1.500	2.400																			1580036656.0	1.37	2.54
26/01/2020 11:04:17	26012020	260120	110417	102.290	12.418760	-57.245028	102.460	-0.290	0.130	2.510	102.320	-1.300	2.800																			1580036657.0	1.07	1.98
26/01/2020 11:04:18	26012020	260120	110418	102.430	12.418758	-57.245028	102.610	-0.050	0.190	2.280	102.460	-1.200	2.800																			1580036658.0	0.47	0.87
26/01/2020 11:04:19	26012020	260120	110419	102.590	12.418760	-57.245028	102.740	0.190	0.100	1.660	102.620	-1.200	2.300																			1580036659.0	0.24	0.44
26/01/2020 11:04:20	26012020	260120	110420	102.700	12.418763	-57.245027	102.780	0.370	-0.070	0.850	102.710	-1.400	1.600																			1580036660.0	0.81	1.50
26/01/2020 11:04:21	26012020	260120	110421	102.710	12.418768	-57.245025	102.730	0.390	-0.130	0.110	102.710	-1.500	0.800																			1580036661.0	1.10	2.04
26/01/2020 11:04:22	26012020	260120	110422	102.670	12.418773	-57.245025	102.680	0.220	-0.030	-0.390	102.660	-1.500	0.200																			1580036662.0	1.05	1.94
26/01/2020 11:04:23	26012020	260120	110423	102.640	12.418777	-57.245025	102.680	-0.030	0.030	-0.600	102.640	-1.300	-0.200																			1580036663.0	0.80	1.48
26/01/2020 11:04:24	26012020	260120	110424	102.660	12.418778	-57.245027	102.710	-0.170	-0.130	-0.460	102.660	-1.400	-0.200																			1580036664.0	0.33	0.61
26/01/2020 11:04:25	26012020	260120	110425	102.660	12.418777	-57.245027	102.670	-0.140	-0.450	0.040	102.660	-1.700	0.200																			1580036665.0	0.39	0.72
26/01/2020 11:04:26	26012020	260120	110426	102.560	12.418772	-57.245027	102.530	-0.010	-0.670	0.740	102.530	-2.000	0.800																			1580036666.0	0.94	1.74
26/01/2020 11:04:27	26012020	260120	110427	102.350	12.418767	-57.245027	102.310	0.100	-0.580	1.380	102.310	-2.000	1.500																			1580036667.0	1.03	1.91
26/01/2020 11:04:28	26012020	260120	110428	102.150	12.418763	-57.245027	102.170	0.180	-0.190	1.750	102.120	-1.700	2.000																			1580036668.0	0.64	1.19
26/01/2020 11:04:29	26012020	260120	110429	102.080	12.418763	-57.245028	102.220	0.160	0.270	1.810	102.090	-1.300	2.200																			1580036669.0	0.26	0.48
26/01/2020 11:04:30	26012020	260120	110430	102.200	12.418765	-57.245028	102.380	0.020	0.480	1.650	102.230	-0.900	2.100																			1580036670.0	0.32	0.59
26/01/2020 11:04:31	26012020	260120	110431	102.370	12.418767	-57.245028	102.500	-0.210	0.380	1.390	102.390	-0.900	1.900																			1580036671.0	0.27	0.50
26/01/2020 11:04:32	26012020	260120	110432	102.430	12.418767	-57.245028	102.520	-0.400	0.090	1.080	102.440	-1.200	1.600																			1580036672.0	0.22	0.41
26/01/2020 11:04:33	26012020	260120	110433	102.440	12.418767	-57.245027	102.510	-0.430	-0.220	0.760	102.440	-1.500	1.300																			1580036673.0	0.18	0.33
26/01/2020 11:04:34	26012020	260120	110434	102.410	12.418767	-57.245027	102.440	-0.250	-0.440	0.580	102.400	-1.700	1.000																			1580036674.0	0.15	0.28
26/01/2020 11:04:35	26012020	260120	110435	102.320	12.418767	-57.245027	102.320	0.050	-0.480	0.500	102.290	-1.900	0.900																			1580036675.0	0.16	0.30
26/01/2020 11:04:36	26012020	260120	110436	102.200	12.418767	-57.245027	102.230	0.330	-0.280	0.360	102.180	-1.800	0.800																			1580036676.0	0.06	0.11
26/01/2020 11:04:37	26012020	260120	110437	102.160	12.418768	-57.245028	102.240	0.480	-0.020	0.060	102.160	-1.500	0.600																			1580036677.0	0.43	0.80
26/01/2020 11:04:38	26012020	260120	110438	102.230	12.418772	-57.245028	102.320	0.490	0.050	-0.190	102.240	-1.300	0.300																			1580036678.0	0.75	1.39
26/01/2020 11:04:39	26012020	260120	110439	102.280	12.418775	-57.245027	102.340	0.390	-0.160	-0.160	102.280	-1.400	0.200																			1580036679.0	0.67	1.24
26/01/2020 11:04:40	26012020	260120	110440	102.290	12.418775	-57.245025	102.360	0.160	-0.370	0.230	102.300	-1.700	0.400																			1580036680.0	0.42	0.78
26/01/2020 11:04:41	26012020	260120	110441	102.290	12.418773	-57.245025	102.350	-0.170	-0.350	0.920	102.280	-1.800	1.000																			1580036681.0	0.45	0.83
26/01/2020 11:04:42	26012020	260120	110442	102.230	12.418768	-57.245025	102.280	-0.490	-0.090	1.720	102.220	-1.600	1.800																			1580036682.0	0.98	1.81
26/01/2020 11:04:43	26012020	260120	110443	102.120	12.418763	-57.245028	102.140	-0.620	0.210	2.350	102.100	-1.300	2.500																			1580036683.0	1.24	2.30
26/01/2020 11:04:44	26012020	260120	110444	101.980	12.418758	-57.245030	102.010	-0.480	0.300	2.600	101.950	-1.100	2.900																			1580036684.0	1.05	1.94
26/01/2020 11:04:45	26012020	260120	110445	101.900	12.418757	-57.245030	102.030	-0.190	0.150	2.320	101.910	-1.100	2.900																			1580036685.0	0.46	0.85
26/01/2020 11:04:46	26012020	260120	110446	102.050	12.418758	-57.245028	102.290	0.080	-0.040	1.540	102.110	-1.300	2.300																			1580036686.0	0.37	0.69
26/01/2020 11:04:47	26012020	260120	110447	102.400	12.418762	-57.245027	102.640	0.240	-0.170	0.570	102.480	-1.500	1.300																			1580036687.0	0.96	1.78
26/01/2020 11:04:48	26012020	260120	110448	102.710	12.418768	-57.245027	102.800	0.290	-0.220	-0.230	102.740	-1.600	0.400																			1580036688.0	1.15	2.13
26/01/2020 11:04:49	26012020	260120	110449	102.750	12.418772	-57.245027	102.660	0.260	-0.200	-0.640	102.720	-1.600	-0.100																			1580036689.0	0.97	1.80
26/01/2020 11:04:50	26012020	260120	110450	102.520	12.418775	-57.245027	102.360	0.230	-0.350	-0.600	102.450	-1.600	-0.300																			1580036690.0	0.65	1.20
26/01/2020 11:04:51	26012020	260120	110451	102.180	12.418777	-57.245025	102.060	0.220	-0.610	-0.210	102.120	-1.900	0.000																			1580036691.0	0.24	0.44
26/01/2020 11:04:52	26012020	260120	110452	101.930	12.418775	-57.245023	101.930	0.190	-0.670	0.310	101.900	-2.100	0.500																			1580036692.0	0.44	0.81
26/01/2020 11:04:53	26012020	260120	110453	101.870	12.418772	-57.245023	101.970	0.080	-0.320	0.850	101.880	-1.900	1.000																			1580036693.0	0.56	1.04
26/01/2020 11:04:54	26012020	260120	110454	101.960	12.418770	-57.245025	102.130	-0.140	0.250	1.260	102.000	-1.400	1.500																			1580036694.0	0.65	1.20
26/01/2020 11:04:55	26012020	260120	110455	102.160	12.418767	-57.245027	102.340	-0.350	0.660	1.450	102.210	-0.800	1.800																			1580036695.0	0.67	1.24
26/01/2020 11:04:56	26012020	260120	110456	102.390	12.418767	-57.245028	102.550	-0.400	0.690	1.420	102.430	-0.600	1.800																			1580036696.0	0.41	0.76
26/01/2020 11:04:57	26012020	260120	110457	102.570	12.418765	-57.245028	102.670	-0.260	0.350	1.360	102.600	-0.900	1.800																			1580036697.0	0.08	0.15
26/01/2020 11:04:58	26012020	260120	110458	102.630	12.418765	-57.245027	102.630	-0.010	-0.180	1.320	102.620	-1.300	1.700																			1580036698.0	0.23	0.43
26/01/2020 11:04:59	26012020	260120	110459	102.550	12.418765	-57.245025	102.530	0.180	-0.670	1.250	102.530	-1.900	1.700																			1580036699.0	0.35	0.65
26/01/2020 11:05:00	26012020	260120	110500	102.430	12.418767	-57.245023	102.410	0.200	-0.890	1.070	102.410	-2.200	1.500	1014.70	25.70	25.80	18.60	18.70	131.00	64.00	64.00	375.00	25.80	349.00	7.70	91.00	7.50	8024	3155.00	27.40	27.40	1580036700.0	0.42	0.78
26/01/2020 11:05:01	26012020	260120	110501	102.350	12.418768	-57.245023	102.310	0.030	-0.690	0.850	102.330	-2.200	1.300																			1580036701.0	0.38	0.70
26/01/2020 11:05:02	26012020	260120	110502	102.240	12.418770	-57.245023	102.250	-0.180	-0.210	0.690	102.230	-1.800	1.200																			1580036702.0	0.37	0.69
26/01/2020 11:05:03	26012020	260120	110503	102.210	12.418770	-57.245027	102.280	-0.260	0.280	0.510	102.220	-1.300	1.000																			1580036703.0	0.40	0.74
26/01/2020 11:05:04	26012020	260120	110504	102.300	12.418772	-57.245027	102.410	-0.130	0.490	0.240	102.330	-0.900	0.800																			1580036704.0	0.32	0.59
26/01/2020 11:05:05	26012020	260120	110505	102.460	12.418772	-57.245027	102.570	0.160	0.300	-0.070	102.490	-1.000	0.400																			1580036705.0	0.22	0.41
26/01/2020 11:05:06	26012020	260120	110506	102.590	12.418773	-57.245025	102.660	0.440	-0.110	-0.280	102.610	-1.300	0.200																			1580036706.0	0.53	0.98
26/01/2020 11:05:07	26012020	260120	110507	102.670	12.418775	-57.245023	102.750	0.570	-0.430	-0.270	102.680	-1.700	0.100																			1580036707.0	0.64	1.19
26/01/2020 11:05:08	26012020	260120	110508	102.770	12.418777	-57.245022	102.850	0.490	-0.430	-0.030	102.790	-1.800	0.200																			1580036708.0	0.37	0.69
26/01/2020 11:05:09	26012020	260120	110509	102.840	12.418777	-57.245022	102.860	0.230	-0.230	0.510	102.840	-1.700	0.700																			1580036709.0	0.13	0.24
26/01/2020 11:05:10	26012020	260120	110510	102.780	12.418775	-57.245023	102.770	-0.140	-0.090	1.260	102.760	-1.500	1.300																			1580036710.0	0.50	0.93
26/01/2020 11:05:11	26012020	260120	110511	102.650	12.418772	-57.245025	102.660	-0.500	-0.050	1.970	102.630	-1.400	2.100																			1580036711.0	0.82	1.52
26/01/2020 11:05:12	26012020	260120	110512	102.550	12.418767	-57.245027	102.580	-0.700	-0.120	2.490	102.540	-1.400	2.700																			1580036712.0	1.00	1.85
26/01/2020 11:05:13	26012020	260120	110513	102.490	12.418762	-57.245027	102.540	-0.660	-0.200	2.680	102.480	-1.500	3.000																			1580036713.0	0.96	1.78
26/01/2020 11:05:14	26012020	260120	110514	102.490	12.418760	-57.245027	102.620	-0.470	-0.080	2.390	102.510	-1.500	2.900																			1580036714.0	0.63	1.17
26/01/2020 11:05:15	26012020	260120	110515	102.650	12.418760	-57.245027	102.790	-0.190	0.200	1.580	102.690	-1.300	2.300																			1580036715.0	0.11	0.20
26/01/2020 11:05:16	26012020	260120	110516	102.870	12.418763	-57.245027	102.960	0.170	0.320	0.450	102.900	-1.100	1.300																			1580036716.0	0.85	1.57
26/01/2020 11:05:17	26012020	260120	110517	103.030	12.418770	-57.245027	103.070	0.530	0.160	-0.710	103.050	-1.100	0.100																			1580036717.0	1.47	2.72
26/01/2020 11:05:18	26012020	260120	110518	103.130	12.418778	-57.245023	103.130	0.740	-0.150	-1.570	103.140	-1.400	-0.900																			1580036718.0	1.69	3.13
26/01/2020 11:05:19	26012020	260120	110519	103.170	12.418783	-57.245022	103.110	0.670	-0.430	-1.810	103.170	-1.700	-1.400																			1580036719.0	1.33	2.46
26/01/2020 11:05:20	26012020	260120	110520	103.120	12.418787	-57.245020	103.040	0.370	-0.620	-1.370	103.100	-1.900	-1.200																			1580036720.0	0.58	1.07
26/01/2020 11:05:21	26012020	260120	110521	103.040	12.418785	-57.245022	102.990	-0.010	-0.650	-0.450	103.030	-2.000	-0.500																			1580036721.0	0.33	0.61
26/01/2020 11:05:22	26012020	260120	110522	102.950	12.418780	-57.245022	102.860	-0.270	-0.530	0.850	102.920	-2.000	0.700																			1580036722.0	1.16	2.15
26/01/2020 11:05:23	26012020	260120	110523	102.730	12.418772	-57.245023	102.610	-0.340	-0.290	2.210	102.670	-1.800	2.100																			1580036723.0	1.74	3.22
26/01/2020 11:05:24	26012020	260120	110524	102.440	12.418763	-57.245025	102.390	-0.340	0.060	3.210	102.400	-1.400	3.300																			1580036724.0	1.76	3.26
26/01/2020 11:05:25	26012020	260120	110525	102.320	12.418758	-57.245027	102.380	-0.360	0.390	3.510	102.310	-1.100	3.900																			1580036725.0	1.24	2.30
26/01/2020 11:05:26	26012020	260120	110526	102.410	12.418755	-57.245028	102.590	-0.360	0.580	3.010	102.460	-0.900	3.700																			1580036726.0	0.45	0.83
26/01/2020 11:05:27	26012020	260120	110527	102.660	12.418758	-57.245028	102.950	-0.250	0.590	1.830	102.730	-0.800	2.800																			1580036727.0	0.48	0.89
26/01/2020 11:05:28	26012020	260120	110528	103.120	12.418763	-57.245027	103.270	-0.010	0.360	0.340	103.200	-0.900	1.300																			1580036728.0	1.29	2.39
26/01/2020 11:05:29	26012020	260120	110529	103.430	12.418772	-57.245025	103.450	0.240	-0.050	-0.970	103.460	-1.200	-0.100																			1580036729.0	1.67	3.09
26/01/2020 11:05:30	26012020	260120	110530	103.520	12.418778	-57.245023	103.390	0.390	-0.540	-1.680	103.510	-1.700	-1.100																			1580036730.0	1.45	2.69
26/01/2020 11:05:31	26012020	260120	110531	103.350	12.418782	-57.245022	103.070	0.420	-0.950	-1.660	103.280	-2.200	-1.400																			1580036731.0	0.83	1.54
26/01/2020 11:05:32	26012020	260120	110532	102.940	12.418782	-57.245020	102.630	0.320	-1.080	-1.090	102.840	-2.400	-1.000																			1580036732.0	0.24	0.44
26/01/2020 11:05:33	26012020	260120	110533	102.490	12.418780	-57.245020	102.290	0.070	-0.740	-0.210	102.420	-2.300	-0.200																			1580036733.0	0.40	0.74
26/01/2020 11:05:34	26012020	260120	110534	102.230	12.418777	-57.245022	102.180	-0.220	-0.080	0.770	102.200	-1.700	0.800																			1580036734.0	0.93	1.72
26/01/2020 11:05:35	26012020	260120	110535	102.190	12.418772	-57.245025	102.260	-0.390	0.450	1.600	102.200	-1.100	1.700																			1580036735.0	1.28	2.37
26/01/2020 11:05:36	26012020	260120	110536	102.310	12.418765	-57.245027	102.440	-0.330	0.540	2.080	102.350	-0.800	2.300																			1580036736.0	1.21	2.24
26/01/2020 11:05:37	26012020	260120	110537	102.530	12.418762	-57.245027	102.680	-0.120	0.310	2.150	102.570	-0.900	2.500																			1580036737.0	0.85	1.57
26/01/2020 11:05:38	26012020	260120	110538	102.770	12.418760	-57.245025	102.880	0.080	0.080	1.880	102.810	-1.200	2.400																			1580036738.0	0.47	0.87
26/01/2020 11:05:39	26012020	260120	110539	102.920	12.418762	-57.245025	102.920	0.170	0.050	1.410	102.920	-1.300	2.000																			1580036739.0	0.25	0.46
26/01/2020 11:05:40	26012020	260120	110540	102.890	12.418763	-57.245025	102.820	0.200	0.070	0.880	102.870	-1.300	1.500																			1580036740.0	0.65	1.20
26/01/2020 11:05:41	26012020	260120	110541	102.770	12.418768	-57.245025	102.660	0.220	-0.140	0.350	102.730	-1.400	0.900																			1580036741.0	0.86	1.59
26/01/2020 11:05:42	26012020	260120	110542	102.590	12.418772	-57.245023	102.490	0.210	-0.500	-0.040	102.550	-1.700	0.500																			1580036742.0	0.80	1.48
26/01/2020 11:05:43	26012020	260120	110543	102.440	12.418773	-57.245022	102.420	0.120	-0.650	-0.300	102.430	-2.000	0.200																			1580036743.0	0.62	1.15
26/01/2020 11:05:44	26012020	260120	110544	102.400	12.418775	-57.245022	102.410	-0.070	-0.430	-0.380	102.400	-1.900	0.000																			1580036744.0	0.30	0.56
26/01/2020 11:05:45	26012020	260120	110545	102.410	12.418775	-57.245023	102.430	-0.260	-0.050	-0.200	102.420	-1.600	0.100																			1580036745.0	0.29	0.54
26/01/2020 11:05:46	26012020	260120	110546	102.420	12.418773	-57.245025	102.430	-0.330	0.180	0.230	102.420	-1.200	0.400																			1580036746.0	0.56	1.04
26/01/2020 11:05:47	26012020	260120	110547	102.380	12.418770	-57.245027	102.360	-0.290	0.130	0.800	102.350	-1.200	1.000																			1580036747.0	0.75	1.39
26/01/2020 11:05:48	26012020	260120	110548	102.260	12.418767	-57.245027	102.250	-0.150	-0.140	1.360	102.240	-1.400	1.500																			1580036748.0	0.84	1.56
26/01/2020 11:05:49	26012020	260120	110549	102.150	12.418763	-57.245025	102.150	0.020	-0.410	1.740	102.120	-1.700	2.000																			1580036749.0	0.79	1.46
26/01/2020 11:05:50	26012020	260120	110550	102.080	12.418760	-57.245025	102.130	0.170	-0.450	1.780	102.080	-1.800	2.200																			1580036750.0	0.56	1.04
26/01/2020 11:05:51	26012020	260120	110551	102.100	12.418760	-57.245023	102.170	0.270	-0.170	1.540	102.110	-1.700	2.000																			1580036751.0	0.09	0.17
26/01/2020 11:05:52	26012020	260120	110552	102.160	12.418762	-57.245025	102.220	0.270	0.270	1.170	102.170	-1.300	1.700																			1580036752.0	0.42	0.78
26/01/2020 11:05:53	26012020	260120	110553	102.250	12.418765	-57.245027	102.370	0.200	0.570	0.630	102.280	-0.900	1.300																			1580036753.0	0.70	1.30
26/01/2020 11:05:54	26012020	260120	110554	102.450	12.418768	-57.245027	102.580	0.140	0.510	0.000	102.500	-0.800	0.700																			1580036754.0	0.85	1.57
26/01/2020 11:05:55	26012020	260120	110555	102.670	12.418773	-57.245027	102.730	0.130	0.020	-0.460	102.710	-1.100	0.100																			1580036755.0	0.85	1.57
26/01/2020 11:05:56	26012020	260120	110556	102.730	12.418775	-57.245023	102.660	0.130	-0.630	-0.490	102.720	-1.700	-0.100																			1580036756.0	0.66	1.22
26/01/2020 11:05:57	26012020	260120	110557	102.560	12.418775	-57.245022	102.400	0.020	-0.950	-0.030	102.500	-2.200	0.100																			1580036757.0	0.40	0.74
26/01/2020 11:05:58	26012020	260120	110558	102.250	12.418772	-57.245023	102.110	-0.230	-0.780	0.720	102.190	-2.300	0.800																			1580036758.0	0.55	1.02
26/01/2020 11:05:59	26012020	260120	110559	101.990	12.418768	-57.245025	101.980	-0.500	-0.340	1.450	101.960	-1.900	1.600																			1580036759.0	1.02	1.89
26/01/2020 11:06:00	26012020	260120	110600	101.950	12.418763	-57.245027	102.060	-0.590	0.110	1.870	101.980	-1.400	2.100	1014.70	25.80	25.80	19.30	19.30	131.00	67.00	67.00	376.00	25.90	358.00	7.30	101.00	6.90	8204	3139.00	27.40	27.40	1580036760.0	1.18	2.19
26/01/2020 11:06:01	26012020	260120	110601	102.110	12.418760	-57.245030	102.260	-0.430	0.410	1.880	102.160	-1.000	2.300																			1580036761.0	0.92	1.70
26/01/2020 11:06:02	26012020	260120	110602	102.340	12.418758	-57.245030	102.470	-0.080	0.420	1.540	102.390	-0.900	2.100																			1580036762.0	0.36	0.67
26/01/2020 11:06:03	26012020	260120	110603	102.550	12.418758	-57.245030	102.610	0.280	0.170	0.970	102.580	-1.100	1.600																			1580036763.0	0.29	0.54
26/01/2020 11:06:04	26012020	260120	110604	102.650	12.418762	-57.245027	102.650	0.540	-0.160	0.330	102.660	-1.400	1.000																			1580036764.0	0.79	1.46
26/01/2020 11:06:05	26012020	260120	110605	102.680	12.418767	-57.245025	102.710	0.610	-0.340	-0.260	102.700	-1.700	0.400																			1580036765.0	1.09	2.02
26/01/2020 11:06:06	26012020	260120	110606	102.770	12.418772	-57.245025	102.750	0.490	-0.320	-0.570	102.780	-1.700	-0.100																			1580036766.0	1.10	2.04
26/01/2020 11:06:07	26012020	260120	110607	102.760	12.418775	-57.245025	102.680	0.230	-0.240	-0.430	102.740	-1.700	-0.100																			1580036767.0	0.68	1.26
26/01/2020 11:06:08	26012020	260120	110608	102.640	12.418775	-57.245025	102.570	-0.120	-0.110	0.020	102.610	-1.500	0.200																			1580036768.0	0.19	0.35
26/01/2020 11:06:09	26012020	260120	110609	102.550	12.418773	-57.245027	102.570	-0.430	0.020	0.610	102.550	-1.400	0.700																			1580036769.0	0.61	1.13
26/01/2020 11:06:10	26012020	260120	110610	102.580	12.418768	-57.245028	102.640	-0.590	-0.010	1.240	102.590	-1.400	1.400																			1580036770.0	0.94	1.74
26/01/2020 11:06:11	26012020	260120	110611	102.650	12.418763	-57.245030	102.690	-0.570	-0.140	1.800	102.650	-1.500	2.000																			1580036771.0	1.12	2.07
26/01/2020 11:06:12	26012020	260120	110612	102.650	12.418758	-57.245030	102.640	-0.400	-0.210	2.160	102.640	-1.600	2.400																			1580036772.0	1.09	2.02
26/01/2020 11:06:13	26012020	260120	110613	102.600	12.418755	-57.245032	102.590	-0.140	-0.150	2.160	102.590	-1.600	2.600																			1580036773.0	0.74	1.37
26/01/2020 11:06:14	26012020	260120	110614	102.560	12.418755	-57.245032	102.570	0.170	-0.120	1.760	102.560	-1.500	2.300																			1580036774.0	0.17	0.31
26/01/2020 11:06:15	26012020	260120	110615	102.540	12.418757	-57.245032	102.540	0.450	-0.180	1.030	102.530	-1.500	1.700																			1580036775.0	0.56	1.04
26/01/2020 11:06:16	26012020	260120	110616	102.540	12.418762	-57.245030	102.580	0.580	-0.230	0.110	102.550	-1.600	0.900																			1580036776.0	1.15	2.13
26/01/2020 11:06:17	26012020	260120	110617	102.610	12.418768	-57.245028	102.670	0.500	-0.120	-0.690	102.630	-1.600	-0.000																			1580036777.0	1.40	2.59
26/01/2020 11:06:18	26012020	260120	110618	102.720	12.418773	-57.245028	102.720	0.280	0.080	-1.040	102.720	-1.400	-0.600																			1580036778.0	1.12	2.07
26/01/2020 11:06:19	26012020	260120	110619	102.730	12.418777	-57.245028	102.690	0.050	0.150	-0.890	102.720	-1.200	-0.600																			1580036779.0	0.56	1.04
26/01/2020 11:06:20	26012020	260120	110620	102.670	12.418777	-57.245028	102.640	-0.120	0.050	-0.330	102.660	-1.300	-0.200																			1580036780.0	0.17	0.31
26/01/2020 11:06:21	26012020	260120	110621	102.580	12.418773	-57.245030	102.550	-0.230	-0.130	0.520	102.560	-1.400	0.500																			1580036781.0	0.65	1.20
26/01/2020 11:06:22	26012020	260120	110622	102.450	12.418768	-57.245030	102.430	-0.280	-0.320	1.490	102.430	-1.600	1.500																			1580036782.0	1.09	2.02
26/01/2020 11:06:23	26012020	260120	110623	102.320	12.418762	-57.245032	102.310	-0.280	-0.450	2.370	102.290	-1.800	2.400																			1580036783.0	1.31	2.43
26/01/2020 11:06:24	26012020	260120	110624	102.190	12.418757	-57.245032	102.190	-0.230	-0.440	2.930	102.160	-1.800	3.100																			1580036784.0	1.22	2.26
26/01/2020 11:06:25	26012020	260120	110625	102.090	12.418753	-57.245032	102.140	-0.170	-0.200	2.920	102.070	-1.700	3.400																			1580036785.0	0.79	1.46
26/01/2020 11:06:26	26012020	260120	110626	102.110	12.418753	-57.245033	102.260	-0.130	0.220	2.240	102.150	-1.300	3.000																			1580036786.0	0.21	0.39
26/01/2020 11:06:27	26012020	260120	110627	102.340	12.418757	-57.245035	102.530	-0.130	0.580	1.160	102.400	-0.900	2.000																			1580036787.0	0.85	1.57
26/01/2020 11:06:28	26012020	260120	110628	102.630	12.418762	-57.245035	102.720	-0.070	0.490	0.100	102.680	-0.800	0.900																			1580036788.0	1.23	2.28
26/01/2020 11:06:29	26012020	260120	110629	102.730	12.418767	-57.245033	102.650	0.160	-0.170	-0.680	102.720	-1.200	-0.000																			1580036789.0	1.16	2.15
26/01/2020 11:06:30	26012020	260120	110630	102.550	12.418772	-57.245030	102.370	0.480	-0.910	-1.060	102.490	-2.000	-0.600																			1580036790.0	1.15	2.13
26/01/2020 11:06:31	26012020	260120	110631	102.250	12.418773	-57.245027	102.110	0.640	-1.090	-1.030	102.200	-2.500	-0.700																			1580036791.0	0.94	1.74
26/01/2020 11:06:32	26012020	260120	110632	102.040	12.418775	-57.245025	102.030	0.460	-0.540	-0.590	102.030	-2.200	-0.400																			1580036792.0	0.24	0.44
26/01/2020 11:06:33	26012020	260120	110633	102.030	12.418773	-57.245028	102.120	0.020	0.280	0.070	102.050	-1.400	0.200																			1580036793.0	0.65	1.20
26/01/2020 11:06:34	26012020	260120	110634	102.140	12.418772	-57.245033	102.270	-0.380	0.720	0.800	102.170	-0.800	0.900																			1580036794.0	0.99	1.83
26/01/2020 11:06:35	26012020	260120	110635	102.280	12.418767	-57.245035	102.410	-0.480	0.520	1.480	102.310	-0.700	1.600																			1580036795.0	0.93	1.72
26/01/2020 11:06:36	26012020	260120	110636	102.400	12.418763	-57.245033	102.530	-0.310	-0.030	2.040	102.430	-1.200	2.200																			1580036796.0	0.99	1.83
26/01/2020 11:06:37	26012020	260120	110637	102.510	12.418758	-57.245032	102.640	-0.120	-0.410	2.440	102.530	-1.700	2.700																			1580036797.0	0.99	1.83
26/01/2020 11:06:38	26012020	260120	110638	102.610	12.418755	-57.245032	102.730	-0.110	-0.410	2.580	102.630	-1.800	2.900																			1580036798.0	0.63	1.17
26/01/2020 11:06:39	26012020	260120	110639	102.690	12.418755	-57.245033	102.770	-0.250	-0.160	2.440	102.700	-1.600	2.900																			1580036799.0	0.40	0.74
26/01/2020 11:06:40	26012020	260120	110640	102.710	12.418755	-57.245035	102.710	-0.330	-0.020	2.020	102.700	-1.400	2.600																			1580036800.0	0.44	0.81
26/01/2020 11:06:41	26012020	260120	110641	102.630	12.418757	-57.245035	102.530	-0.150	-0.180	1.410	102.600	-1.500	2.100																			1580036801.0	0.37	0.69
26/01/2020 11:06:42	26012020	260120	110642	102.410	12.418760	-57.245033	102.350	0.220	-0.450	0.610	102.370	-1.700	1.400																			1580036802.0	0.71	1.31
26/01/2020 11:06:43	26012020	260120	110643	102.330	12.418763	-57.245032	102.400	0.550	-0.390	-0.310	102.340	-1.800	0.500																			1580036803.0	1.13	2.09
26/01/2020 11:06:44	26012020	260120	110644	102.500	12.418770	-57.245030	102.660	0.640	0.070	-1.060	102.560	-1.500	-0.400																			1580036804.0	1.31	2.43
26/01/2020 11:06:45	26012020	260120	110645	102.820	12.418775	-57.245032	102.960	0.450	0.440	-1.390	102.870	-1.100	-0.900																			1580036805.0	1.20	2.22
26/01/2020 11:06:46	26012020	260120	110646	103.090	12.418778	-57.245032	103.180	0.140	0.380	-1.200	103.120	-0.900	-0.900																			1580036806.0	0.68	1.26
26/01/2020 11:06:47	26012020	260120	110647	103.220	12.418778	-57.245032	103.220	-0.110	-0.130	-0.440	103.220	-1.300	-0.400																			1580036807.0	0.16	0.30
26/01/2020 11:06:48	26012020	260120	110648	103.130	12.418773	-57.245032	103.030	-0.230	-0.690	0.910	103.090	-1.900	0.700																			1580036808.0	1.03	1.91
26/01/2020 11:06:49	26012020	260120	110649	102.840	12.418765	-57.245032	102.750	-0.290	-0.880	2.460	102.780	-2.200	2.200																			1580036809.0	1.73	3.20
26/01/2020 11:06:50	26012020	260120	110650	102.580	12.418755	-57.245033	102.600	-0.370	-0.590	3.670	102.550	-2.100	3.600																			1580036810.0	1.95	3.61
26/01/2020 11:06:51	26012020	260120	110651	102.510	12.418748	-57.245035	102.650	-0.450	-0.050	4.200	102.520	-1.700	4.500																			1580036811.0	1.68	3.11
26/01/2020 11:06:52	26012020	260120	110652	102.630	12.418745	-57.245038	102.840	-0.420	0.430	3.820	102.680	-1.100	4.500																			1580036812.0	0.91	1.69
26/01/2020 11:06:53	26012020	260120	110653	102.840	12.418747	-57.245038	103.090	-0.220	0.660	2.630	102.890	-0.800	3.600																			1580036813.0	0.41	0.76
26/01/2020 11:06:54	26012020	260120	110654	103.180	12.418753	-57.245038	103.310	0.120	0.540	1.030	103.230	-0.800	2.100																			1580036814.0	1.39	2.57
26/01/2020 11:06:55	26012020	260120	110655	103.360	12.418762	-57.245035	103.420	0.450	0.090	-0.530	103.390	-1.100	0.500																			1580036815.0	2.02	3.74
26/01/2020 11:06:56	26012020	260120	110656	103.480	12.418772	-57.245032	103.420	0.610	-0.420	-1.690	103.490	-1.600	-0.900																			1580036816.0	2.06	3.82
26/01/2020 11:06:57	26012020	260120	110657	103.450	12.418778	-57.245030	103.320	0.530	-0.730	-2.220	103.430	-2.000	-1.700																			1580036817.0	1.53	2.83
26/01/2020 11:06:58	26012020	260120	110658	103.310	12.418780	-57.245028	103.160	0.270	-0.760	-2.000	103.280	-2.200	-1.800																			1580036818.0	0.65	1.20
26/01/2020 11:06:59	26012020	260120	110659	103.150	12.418780	-57.245028	103.030	-0.030	-0.540	-1.110	103.120	-2.000	-1.100																			1580036819.0	0.29	0.54
26/01/2020 11:07:00	26012020	260120	110700	103.030	12.418775	-57.245032	102.970	-0.240	-0.230	0.160	103.010	-1.700	0.000	1014.70	25.80	25.80	19.30	19.30	129.00	67.00	67.00	376.00	25.90	350.00	8.10	92.00	7.60	8366	3198.00	27.40	27.40	1580036820.0	1.04	1.93
26/01/2020 11:07:01	26012020	260120	110701	102.950	12.418768	-57.245033	102.940	-0.300	0.000	1.450	102.940	-1.500	1.300																			1580036821.0	1.48	2.74
26/01/2020 11:07:02	26012020	260120	110702	102.900	12.418762	-57.245035	102.940	-0.210	0.070	2.510	102.900	-1.300	2.500																			1580036822.0	1.57	2.91
26/01/2020 11:07:03	26012020	260120	110703	102.920	12.418755	-57.245035	102.990	-0.130	0.110	3.220	102.920	-1.300	3.400																			1580036823.0	1.37	2.54
26/01/2020 11:07:04	26012020	260120	110704	102.980	12.418750	-57.245035	103.110	-0.170	0.250	3.460	103.010	-1.200	3.800																			1580036824.0	0.92	1.70
26/01/2020 11:07:05	26012020	260120	110705	103.120	12.418750	-57.245037	103.270	-0.270	0.410	3.040	103.160	-1.000	3.700																			1580036825.0	0.28	0.52
26/01/2020 11:07:06	26012020	260120	110706	103.300	12.418752	-57.245037	103.410	-0.250	0.350	2.060	103.330	-1.000	2.900																			1580036826.0	0.56	1.04
26/01/2020 11:07:07	26012020	260120	110707	103.400	12.418757	-57.245035	103.420	-0.040	0.040	0.850	103.410	-1.200	1.700																			1580036827.0	1.09	2.02
26/01/2020 11:07:08	26012020	260120	110708	103.380	12.418763	-57.245033	103.280	0.270	-0.430	-0.190	103.360	-1.600	0.600																			1580036828.0	1.34	2.48
26/01/2020 11:07:09	26012020	260120	110709	103.260	12.418768	-57.245032	103.110	0.460	-0.790	-0.910	103.220	-2.100	-0.300																			1580036829.0	1.28	2.37
26/01/2020 11:07:10	26012020	260120	110710	103.110	12.418773	-57.245028	103.030	0.410	-0.750	-1.320	103.090	-2.200	-0.800																			1580036830.0	1.05	1.94
26/01/2020 11:07:11	26012020	260120	110711	103.020	12.418777	-57.245028	102.920	0.160	-0.430	-1.270	103.000	-2.000	-1.000																			1580036831.0	0.71	1.31
26/01/2020 11:07:12	26012020	260120	110712	102.880	12.418777	-57.245030	102.780	-0.090	-0.150	-0.700	102.840	-1.700	-0.600																			1580036832.0	0.24	0.44
26/01/2020 11:07:13	26012020	260120	110713	102.740	12.418773	-57.245030	102.720	-0.250	0.030	0.150	102.720	-1.400	0.200																			1580036833.0	0.67	1.24
26/01/2020 11:07:14	26012020	260120	110714	102.700	12.418768	-57.245032	102.740	-0.320	0.180	1.100	102.700	-1.300	1.100																			1580036834.0	1.16	2.15
26/01/2020 11:07:15	26012020	260120	110715	102.720	12.418763	-57.245033	102.790	-0.320	0.320	1.940	102.730	-1.100	2.000																			1580036835.0	1.27	2.35
26/01/2020 11:07:16	26012020	260120	110716	102.790	12.418758	-57.245033	102.900	-0.250	0.380	2.430	102.810	-1.000	2.700																			1580036836.0	1.07	1.98
26/01/2020 11:07:17	26012020	260120	110717	102.920	12.418755	-57.245035	103.040	-0.060	0.280	2.460	102.950	-1.100	2.900																			1580036837.0	0.59	1.09
26/01/2020 11:07:18	26012020	260120	110718	103.050	12.418755	-57.245035	103.110	0.230	-0.040	2.150	103.070	-1.300	2.700																			1580036838.0	0.04	0.07
26/01/2020 11:07:19	26012020	260120	110719	103.090	12.418758	-57.245033	103.080	0.510	-0.470	1.640	103.090	-1.700	2.200																			1580036839.0	0.58	1.07
26/01/2020 11:07:20	26012020	260120	110720	103.030	12.418762	-57.245032	102.960	0.580	-0.730	1.090	103.000	-2.100	1.700																			1580036840.0	0.90	1.67
26/01/2020 11:07:21	26012020	260120	110721	102.920	12.418765	-57.245028	102.860	0.350	-0.620	0.570	102.890	-2.100	1.200																			1580036841.0	0.98	1.81
26/01/2020 11:07:22	26012020	260120	110722	102.850	12.418768	-57.245028	102.820	-0.070	-0.220	0.190	102.840	-1.800	0.700																			1580036842.0	0.83	1.54
26/01/2020 11:07:23	26012020	260120	110723	102.840	12.418772	-57.245030	102.810	-0.460	0.120	0.030	102.830	-1.400	0.500																			1580036843.0	0.57	1.06
26/01/2020 11:07:24	26012020	260120	110724	102.820	12.418772	-57.245032	102.780	-0.620	0.150	0.080	102.810	-1.200	0.400																			1580036844.0	0.22	0.41
26/01/2020 11:07:25	26012020	260120	110725	102.760	12.418768	-57.245032	102.690	-0.500	-0.020	0.320	102.730	-1.300	0.600																			1580036845.0	0.46	0.85
26/01/2020 11:07:26	26012020	260120	110726	102.670	12.418767	-57.245030	102.650	-0.190	-0.140	0.550	102.660	-1.500	0.900																			1580036846.0	0.64	1.19
26/01/2020 11:07:27	26012020	260120	110727	102.670	12.418765	-57.245030	102.730	0.150	-0.100	0.620	102.700	-1.500	1.000																			1580036847.0	0.43	0.80
26/01/2020 11:07:28	26012020	260120	110728	102.810	12.418765	-57.245030	102.900	0.380	0.060	0.560	102.850	-1.400	1.000																			1580036848.0	0.03	0.06
26/01/2020 11:07:29	26012020	260120	110729	103.010	12.418767	-57.245030	103.110	0.450	0.220	0.470	103.050	-1.200	0.900																			1580036849.0	0.36	0.67
26/01/2020 11:07:30	26012020	260120	110730	103.200	12.418768	-57.245030	103.270	0.350	0.220	0.480	103.230	-1.100	0.900																			1580036850.0	0.53	0.98
26/01/2020 11:07:31	26012020	260120	110731	103.290	12.418770	-57.245032	103.270	0.170	-0.040	0.740	103.290	-1.300	1.000																			1580036851.0	0.32	0.59
26/01/2020 11:07:32	26012020	260120	110732	103.210	12.418770	-57.245030	103.110	0.050	-0.480	1.210	103.170	-1.700	1.400																			1580036852.0	0.16	0.30
26/01/2020 11:07:33	26012020	260120	110733	103.040	12.418767	-57.245030	102.890	0.000	-0.850	1.720	102.990	-2.100	1.900																			1580036853.0	0.50	0.93
26/01/2020 11:07:34	26012020	260120	110734	102.780	12.418765	-57.245028	102.750	-0.120	-0.830	2.120	102.750	-2.300	2.400																			1580036854.0	0.63	1.17
26/01/2020 11:07:35	26012020	260120	110735	102.700	12.418762	-57.245028	102.760	-0.340	-0.320	2.250	102.700	-2.000	2.600																			1580036855.0	0.65	1.20
26/01/2020 11:07:36	26012020	260120	110736	102.760	12.418760	-57.245032	102.880	-0.510	0.370	2.020	102.790	-1.300	2.500																			1580036856.0	0.69	1.28
26/01/2020 11:07:37	26012020	260120	110737	102.930	12.418760	-57.245033	103.060	-0.450	0.770	1.380	102.970	-0.700	2.100																			1580036857.0	0.54	1.00
26/01/2020 11:07:38	26012020	260120	110738	103.130	12.418762	-57.245035	103.220	-0.110	0.560	0.460	103.170	-0.700	1.200																			1580036858.0	0.58	1.07
26/01/2020 11:07:39	26012020	260120	110739	103.270	12.418767	-57.245032	103.260	0.350	-0.100	-0.410	103.280	-1.200	0.300																			1580036859.0	1.12	2.07
26/01/2020 11:07:40	26012020	260120	110740	103.290	12.418772	-57.245027	103.230	0.660	-0.650	-1.020	103.290	-1.900	-0.400																			1580036860.0	1.38	2.56
26/01/2020 11:07:41	26012020	260120	110741	103.230	12.418775	-57.245025	103.110	0.620	-0.790	-1.170	103.210	-2.200	-0.800																			1580036861.0	1.10	2.04
26/01/2020 11:07:42	26012020	260120	110742	103.060	12.418778	-57.245023	102.920	0.260	-0.540	-0.720	103.020	-2.100	-0.600																			1580036862.0	0.48	0.89
26/01/2020 11:07:43	26012020	260120	110743	102.850	12.418777	-57.245025	102.780	-0.210	-0.020	0.140	102.820	-1.600	0.200																			1580036863.0	0.41	0.76
26/01/2020 11:07:44	26012020	260120	110744	102.750	12.418773	-57.245028	102.760	-0.550	0.450	1.080	102.740	-1.100	1.100																			1580036864.0	1.05	1.94
26/01/2020 11:07:45	26012020	260120	110745	102.760	12.418768	-57.245032	102.840	-0.620	0.530	1.830	102.770	-0.800	1.900																			1580036865.0	1.30	2.41
26/01/2020 11:07:46	26012020	260120	110746	102.880	12.418762	-57.245033	102.980	-0.420	0.200	2.290	102.900	-1.000	2.500																			1580036866.0	1.19	2.20
26/01/2020 11:07:47	26012020	260120	110747	103.060	12.418758	-57.245032	103.180	-0.080	-0.240	2.370	103.100	-1.500	2.800																			1580036867.0	0.91	1.69
26/01/2020 11:07:48	26012020	260120	110748	103.250	12.418757	-57.245030	103.310	0.240	-0.510	2.100	103.280	-1.800	2.600																			1580036868.0	0.44	0.81
26/01/2020 11:07:49	26012020	260120	110749	103.330	12.418758	-57.245030	103.290	0.420	-0.480	1.630	103.330	-1.900	2.200																			1580036869.0	0.32	0.59
26/01/2020 11:07:50	26012020	260120	110750	103.220	12.418762	-57.245030	103.080	0.420	-0.270	1.100	103.180	-1.800	1.700																			1580036870.0	0.77	1.43
26/01/2020 11:07:51	26012020	260120	110751	102.990	12.418767	-57.245030	102.820	0.270	-0.110	0.530	102.940	-1.500	1.100																			1580036871.0	1.06	1.96
26/01/2020 11:07:52	26012020	260120	110752	102.740	12.418772	-57.245028	102.590	0.090	-0.210	0.080	102.700	-1.500	0.600																			1580036872.0	1.05	1.94
26/01/2020 11:07:53	26012020	260120	110753	102.540	12.418773	-57.245027	102.440	-0.070	-0.390	-0.200	102.510	-1.700	0.300																			1580036873.0	0.76	1.41
26/01/2020 11:07:54	26012020	260120	110754	102.450	12.418775	-57.245025	102.440	-0.190	-0.320	-0.340	102.450	-1.800	0.100																			1580036874.0	0.43	0.80
26/01/2020 11:07:55	26012020	260120	110755	102.500	12.418773	-57.245025	102.530	-0.270	0.080	-0.300	102.520	-1.500	0.000																			1580036875.0	0.19	0.35
26/01/2020 11:07:56	26012020	260120	110756	102.620	12.418772	-57.245027	102.700	-0.300	0.500	-0.090	102.660	-1.000	0.200																			1580036876.0	0.48	0.89
26/01/2020 11:07:57	26012020	260120	110757	102.770	12.418770	-57.245028	102.860	-0.260	0.610	0.200	102.800	-0.800	0.500																			1580036877.0	0.58	1.07
26/01/2020 11:07:58	26012020	260120	110758	102.940	12.418768	-57.245030	102.960	-0.090	0.310	0.500	102.960	-0.900	0.800																			1580036878.0	0.40	0.74
26/01/2020 11:07:59	26012020	260120	110759	103.000	12.418767	-57.245028	102.960	0.200	-0.210	0.810	103.000	-1.400	1.100																			1580036879.0	0.30	0.56
26/01/2020 11:08:00	26012020	260120	110800	102.930	12.418767	-57.245028	102.820	0.470	-0.640	1.210	102.900	-1.900	1.400	1014.70	25.70	25.70	18.50	18.60	130.00	64.00	64.00	375.00	25.90	350.00	8.30	92.00	7.90	8547	3141.00	27.40	27.40	1580036880.0	0.38	0.70
26/01/2020 11:08:01	26012020	260120	110801	102.750	12.418765	-57.245027	102.640	0.520	-0.740	1.650	102.710	-2.100	1.900																			1580036881.0	0.30	0.56
26/01/2020 11:08:02	26012020	260120	110802	102.590	12.418765	-57.245027	102.530	0.250	-0.540	1.920	102.560	-2.000	2.200																			1580036882.0	0.10	0.19
26/01/2020 11:08:03	26012020	260120	110803	102.530	12.418765	-57.245028	102.520	-0.180	-0.250	1.930	102.530	-1.800	2.300																			1580036883.0	0.21	0.39
26/01/2020 11:08:04	26012020	260120	110804	102.560	12.418765	-57.245028	102.560	-0.500	0.000	1.750	102.560	-1.500	2.200																			1580036884.0	0.22	0.41
26/01/2020 11:08:05	26012020	260120	110805	102.580	12.418765	-57.245030	102.550	-0.540	0.130	1.470	102.580	-1.300	2.000																			1580036885.0	0.18	0.33
26/01/2020 11:08:06	26012020	260120	110806	102.570	12.418763	-57.245030	102.520	-0.280	0.100	1.130	102.560	-1.300	1.700																			1580036886.0	0.16	0.30
26/01/2020 11:08:07	26012020	260120	110807	102.550	12.418765	-57.245028	102.520	0.070	0.040	0.570	102.550	-1.300	1.200																			1580036887.0	0.24	0.44
26/01/2020 11:08:08	26012020	260120	110808	102.620	12.418767	-57.245027	102.650	0.290	0.080	-0.250	102.650	-1.300	0.500																			1580036888.0	0.65	1.20
26/01/2020 11:08:09	26012020	260120	110809	102.790	12.418772	-57.245027	102.790	0.330	0.080	-0.970	102.830	-1.300	-0.300																			1580036889.0	1.12	2.07
26/01/2020 11:08:10	26012020	260120	110810	102.900	12.418777	-57.245025	102.820	0.280	-0.090	-1.180	102.900	-1.400	-0.800																			1580036890.0	1.04	1.93
26/01/2020 11:08:11	26012020	260120	110811	102.890	12.418778	-57.245025	102.810	0.220	-0.290	-0.900	102.880	-1.600	-0.700																			1580036891.0	0.48	0.89
26/01/2020 11:08:12	26012020	260120	110812	102.870	12.418778	-57.245025	102.810	0.120	-0.330	-0.300	102.870	-1.700	-0.200																			1580036892.0	0.11	0.20
26/01/2020 11:08:13	26012020	260120	110813	102.840	12.418777	-57.245025	102.780	-0.030	-0.260	0.590	102.840	-1.700	0.600																			1580036893.0	0.59	1.09
26/01/2020 11:08:14	26012020	260120	110814	102.770	12.418772	-57.245028	102.680	-0.180	-0.220	1.660	102.740	-1.600	1.600																			1580036894.0	1.07	1.98
26/01/2020 11:08:15	26012020	260120	110815	102.620	12.418765	-57.245028	102.570	-0.280	-0.240	2.530	102.600	-1.600	2.600																			1580036895.0	1.31	2.43
26/01/2020 11:08:16	26012020	260120	110816	102.560	12.418760	-57.245030	102.620	-0.300	-0.130	2.850	102.570	-1.600	3.200																			1580036896.0	1.07	1.98
26/01/2020 11:08:17	26012020	260120	110817	102.680	12.418758	-57.245030	102.770	-0.270	0.130	2.690	102.720	-1.400	3.200																			1580036897.0	0.50	0.93
26/01/2020 11:08:18	26012020	260120	110818	102.840	12.418758	-57.245032	102.900	-0.190	0.310	2.210	102.870	-1.100	2.800																			1580036898.0	0.28	0.52
26/01/2020 11:08:19	26012020	260120	110819	102.960	12.418760	-57.245032	102.990	-0.030	0.210	1.390	102.990	-1.100	2.100																			1580036899.0	0.46	0.85
26/01/2020 11:08:20	26012020	260120	110820	103.050	12.418765	-57.245032	103.030	0.180	-0.170	0.360	103.060	-1.400	1.200																			1580036900.0	0.90	1.67
26/01/2020 11:08:21	26012020	260120	110821	103.080	12.418770	-57.245028	102.990	0.380	-0.580	-0.590	103.080	-1.800	0.200																			1580036901.0	1.29	2.39
26/01/2020 11:08:22	26012020	260120	110822	103.010	12.418777	-57.245025	102.880	0.450	-0.720	-1.200	102.990	-2.100	-0.600																			1580036902.0	1.34	2.48
26/01/2020 11:08:23	26012020	260120	110823	102.920	12.418780	-57.245025	102.760	0.320	-0.530	-1.320	102.890	-2.000	-0.900																			1580036903.0	0.97	1.80
26/01/2020 11:08:24	26012020	260120	110824	102.760	12.418782	-57.245025	102.630	0.060	-0.170	-0.930	102.730	-1.700	-0.700																			1580036904.0	0.32	0.59
26/01/2020 11:08:25	26012020	260120	110825	102.630	12.418780	-57.245027	102.560	-0.170	0.240	-0.260	102.610	-1.300	-0.200																			1580036905.0	0.49	0.91
26/01/2020 11:08:26	26012020	260120	110826	102.600	12.418777	-57.245028	102.620	-0.310	0.600	0.430	102.610	-0.900	0.600																			1580036906.0	0.86	1.59
26/01/2020 11:08:27	26012020	260120	110827	102.720	12.418773	-57.245030	102.840	-0.340	0.720	0.990	102.760	-0.700	1.200																			1580036907.0	0.90	1.67
26/01/2020 11:08:28	26012020	260120	110828	102.990	12.418768	-57.245032	103.160	-0.210	0.460	1.430	103.060	-0.800	1.600																			1580036908.0	0.81	1.50
26/01/2020 11:08:29	26012020	260120	110829	103.270	12.418767	-57.245032	103.310	0.080	-0.120	1.790	103.290	-1.300	2.000																			1580036909.0	0.68	1.26
26/01/2020 11:08:30	26012020	260120	110830	103.280	12.418763	-57.245030	103.180	0.350	-0.750	2.030	103.260	-1.900	2.300																			1580036910.0	0.55	1.02
26/01/2020 11:08:31	26012020	260120	110831	103.070	12.418763	-57.245030	102.880	0.410	-1.120	2.110	103.010	-2.400	2.500																			1580036911.0	0.37	0.69
26/01/2020 11:08:32	26012020	260120	110832	102.720	12.418763	-57.245028	102.490	0.250	-1.070	2.110	102.640	-2.500	2.500																			1580036912.0	0.22	0.41
26/01/2020 11:08:33	26012020	260120	110833	102.330	12.418765	-57.245028	102.170	-0.030	-0.630	1.930	102.270	-2.200	2.400																			1580036913.0	0.25	0.46
26/01/2020 11:08:34	26012020	260120	110834	102.120	12.418767	-57.245028	102.090	-0.340	0.030	1.420	102.110	-1.600	2.100																			1580036914.0	0.39	0.72
26/01/2020 11:08:35	26012020	260120	110835	102.130	12.418768	-57.245030	102.160	-0.570	0.620	0.630	102.140	-1.000	1.400																			1580036915.0	0.52	0.96
26/01/2020 11:08:36	26012020	260120	110836	102.280	12.418770	-57.245030	102.330	-0.590	0.870	-0.280	102.320	-0.600	0.500																			1580036916.0	0.58	1.07
26/01/2020 11:08:37	26012020	260120	110837	102.500	12.418773	-57.245030	102.520	-0.300	0.680	-1.090	102.540	-0.600	-0.400																			1580036917.0	0.63	1.17
26/01/2020 11:08:38	26012020	260120	110838	102.680	12.418777	-57.245028	102.650	0.220	0.190	-1.540	102.700	-1.000	-1.000																			1580036918.0	0.70	1.30
26/01/2020 11:08:39	26012020	260120	110839	102.770	12.418778	-57.245025	102.720	0.690	-0.310	-1.570	102.780	-1.500	-1.200																			1580036919.0	0.67	1.24
26/01/2020 11:08:40	26012020	260120	110840	102.820	12.418780	-57.245023	102.760	0.820	-0.530	-1.260	102.830	-1.900	-1.000																			1580036920.0	0.43	0.80
26/01/2020 11:08:41	26012020	260120	110841	102.820	12.418780	-57.245025	102.740	0.590	-0.500	-0.530	102.810	-1.900	-0.500																			1580036921.0	0.14	0.26
26/01/2020 11:08:42	26012020	260120	110842	102.720	12.418778	-57.245027	102.610	0.190	-0.420	0.670	102.690	-1.800	0.500																			1580036922.0	0.53	0.98
26/01/2020 11:08:43	26012020	260120	110843	102.540	12.418773	-57.245028	102.450	-0.210	-0.370	2.060	102.500	-1.800	1.900																			1580036923.0	1.09	2.02
26/01/2020 11:08:44	26012020	260120	110844	102.390	12.418767	-57.245030	102.370	-0.530	-0.310	3.190	102.370	-1.700	3.200																			1580036924.0	1.49	2.76
26/01/2020 11:08:45	26012020	260120	110845	102.340	12.418760	-57.245032	102.380	-0.710	-0.230	3.880	102.340	-1.700	4.000																			1580036925.0	1.60	2.96
26/01/2020 11:08:46	26012020	260120	110846	102.340	12.418753	-57.245032	102.380	-0.660	-0.090	4.040	102.350	-1.500	4.400																			1580036926.0	1.43	2.65
26/01/2020 11:08:47	26012020	260120	110847	102.350	12.418748	-57.245033	102.390	-0.350	0.080	3.500	102.360	-1.400	4.200																			1580036927.0	0.85	1.57
26/01/2020 11:08:48	26012020	260120	110848	102.390	12.418750	-57.245032	102.410	0.100	0.180	2.200	102.400	-1.200	3.200																			1580036928.0	0.27	0.50
26/01/2020 11:08:49	26012020	260120	110849	102.460	12.418757	-57.245030	102.520	0.480	0.210	0.360	102.490	-1.200	1.500																			1580036929.0	1.57	2.91
26/01/2020 11:08:50	26012020	260120	110850	102.680	12.418768	-57.245028	102.740	0.640	0.150	-1.560	102.730	-1.200	-0.400																			1580036930.0	2.46	4.56
26/01/2020 11:08:51	26012020	260120	110851	102.930	12.418780	-57.245025	102.880	0.580	-0.010	-2.870	102.950	-1.300	-2.000																			1580036931.0	2.53	4.69
26/01/2020 11:08:52	26012020	260120	110852	102.980	12.418788	-57.245023	102.830	0.390	-0.270	-3.170	102.960	-1.600	-2.800																			1580036932.0	1.73	3.20
26/01/2020 11:08:53	26012020	260120	110853	102.880	12.418790	-57.245023	102.770	0.130	-0.460	-2.620	102.870	-1.800	-2.500																			1580036933.0	0.57	1.06
26/01/2020 11:08:54	26012020	260120	110854	102.840	12.418788	-57.245023	102.800	-0.170	-0.430	-1.410	102.840	-1.900	-1.600																			1580036934.0	0.59	1.09
26/01/2020 11:08:55	26012020	260120	110855	102.830	12.418780	-57.245027	102.760	-0.410	-0.240	0.310	102.810	-1.700	-0.000																			1580036935.0	1.62	3.00
26/01/2020 11:08:56	26012020	260120	110856	102.700	12.418770	-57.245030	102.630	-0.480	-0.100	2.210	102.670	-1.500	1.900																			1580036936.0	2.30	4.26
26/01/2020 11:08:57	26012020	260120	110857	102.530	12.418760	-57.245032	102.500	-0.350	-0.110	3.730	102.500	-1.500	3.600																			1580036937.0	2.45	4.54
26/01/2020 11:08:58	26012020	260120	110858	102.430	12.418750	-57.245033	102.500	-0.140	-0.090	4.450	102.430	-1.500	4.700																			1580036938.0	1.91	3.54
26/01/2020 11:08:59	26012020	260120	110859	102.490	12.418747	-57.245035	102.640	0.010	0.050	4.220	102.520	-1.400	4.800																			1580036939.0	0.81	1.50
26/01/2020 11:09:00	26012020	260120	110900	102.680	12.418748	-57.245035	102.870	0.070	0.190	3.200	102.740	-1.300	4.100	1014.70	25.70	25.70	18.60	18.70	129.00	65.00	65.00	375.00	25.90	355.00	7.90	98.00	7.50	8726	3105.00	27.40	27.40	1580036940.0	0.41	0.76
26/01/2020 11:09:01	26012020	260120	110901	102.950	12.418755	-57.245035	103.050	0.100	0.130	1.750	102.990	-1.200	2.700																			1580036941.0	1.28	2.37
26/01/2020 11:09:02	26012020	260120	110902	103.110	12.418762	-57.245033	103.110	0.180	-0.100	0.220	103.120	-1.400	1.200																			1580036942.0	1.71	3.17
26/01/2020 11:09:03	26012020	260120	110903	103.160	12.418770	-57.245030	103.120	0.290	-0.320	-1.120	103.170	-1.600	-0.200																			1580036943.0	1.75	3.24
26/01/2020 11:09:04	26012020	260120	110904	103.180	12.418777	-57.245028	103.080	0.320	-0.430	-2.000	103.180	-1.800	-1.300																			1580036944.0	1.54	2.85
26/01/2020 11:09:05	26012020	260120	110905	103.100	12.418782	-57.245027	102.920	0.260	-0.520	-2.230	103.060	-1.900	-1.800																			1580036945.0	1.06	1.96
26/01/2020 11:09:06	26012020	260120	110906	102.890	12.418783	-57.245027	102.730	0.120	-0.530	-1.830	102.850	-1.900	-1.700																			1580036946.0	0.37	0.69
26/01/2020 11:09:07	26012020	260120	110907	102.740	12.418782	-57.245027	102.700	-0.070	-0.230	-0.940	102.730	-1.800	-0.900																			1580036947.0	0.47	0.87
26/01/2020 11:09:08	26012020	260120	110908	102.790	12.418777	-57.245028	102.880	-0.280	0.310	0.170	102.820	-1.300	0.100																			1580036948.0	1.21	2.24
26/01/2020 11:09:09	26012020	260120	110909	103.000	12.418770	-57.245033	103.130	-0.420	0.710	1.240	103.050	-0.800	1.200																			1580036949.0	1.64	3.04
26/01/2020 11:09:10	26012020	260120	110910	103.220	12.418763	-57.245037	103.300	-0.360	0.630	2.120	103.250	-0.700	2.200																			1580036950.0	1.56	2.89
26/01/2020 11:09:11	26012020	260120	110911	103.320	12.418758	-57.245037	103.360	-0.060	0.070	2.680	103.330	-1.100	2.900																			1580036951.0	1.12	2.07
26/01/2020 11:09:12	26012020	260120	110912	103.360	12.418755	-57.245037	103.410	0.310	-0.520	2.820	103.370	-1.700	3.200																			1580036952.0	0.65	1.20
26/01/2020 11:09:13	26012020	260120	110913	103.420	12.418755	-57.245035	103.450	0.440	-0.730	2.590	103.430	-2.100	3.100																			1580036953.0	0.29	0.54
26/01/2020 11:09:14	26012020	260120	110914	103.420	12.418758	-57.245035	103.380	0.210	-0.580	2.120	103.400	-2.100	2.700																			1580036954.0	0.48	0.89
26/01/2020 11:09:15	26012020	260120	110915	103.330	12.418762	-57.245035	103.290	-0.210	-0.290	1.410	103.320	-1.800	2.100																			1580036955.0	0.75	1.39
26/01/2020 11:09:16	26012020	260120	110916	103.310	12.418765	-57.245037	103.280	-0.510	-0.070	0.580	103.310	-1.500	1.300																			1580036956.0	0.75	1.39
26/01/2020 11:09:17	26012020	260120	110917	103.310	12.418767	-57.245037	103.220	-0.490	-0.020	-0.120	103.290	-1.400	0.500																			1580036957.0	0.56	1.04
26/01/2020 11:09:18	26012020	260120	110918	103.220	12.418768	-57.245035	103.090	-0.190	-0.070	-0.620	103.190	-1.500	-0.000																			1580036958.0	0.37	0.69
26/01/2020 11:09:19	26012020	260120	110919	103.100	12.418770	-57.245035	103.000	0.190	-0.050	-1.010	103.080	-1.500	-0.500																			1580036959.0	0.34	0.63
26/01/2020 11:09:20	26012020	260120	110920	103.060	12.418772	-57.245033	103.040	0.460	0.050	-1.300	103.070	-1.400	-0.800																			1580036960.0	0.46	0.85
26/01/2020 11:09:21	26012020	260120	110921	103.180	12.418773	-57.245033	103.270	0.530	0.110	-1.350	103.230	-1.300	-1.000																			1580036961.0	0.55	1.02
26/01/2020 11:09:22	26012020	260120	110922	103.470	12.418775	-57.245033	103.580	0.440	0.080	-1.090	103.530	-1.300	-0.800																			1580036962.0	0.36	0.67
26/01/2020 11:09:23	26012020	260120	110923	103.720	12.418775	-57.245033	103.720	0.230	-0.040	-0.310	103.740	-1.400	-0.300																			1580036963.0	0.11	0.20
26/01/2020 11:09:24	26012020	260120	110924	103.710	12.418772	-57.245035	103.600	-0.060	-0.120	0.990	103.680	-1.500	0.800																			1580036964.0	0.84	1.56
26/01/2020 11:09:25	26012020	260120	110925	103.500	12.418765	-57.245038	103.380	-0.380	-0.120	2.490	103.440	-1.500	2.300																			1580036965.0	1.60	2.96
26/01/2020 11:09:26	26012020	260120	110926	103.260	12.418757	-57.245040	103.220	-0.580	-0.120	3.580	103.230	-1.500	3.600																			1580036966.0	1.92	3.56
26/01/2020 11:09:27	26012020	260120	110927	103.140	12.418750	-57.245043	103.150	-0.540	-0.280	3.980	103.130	-1.600	4.300																			1580036967.0	1.50	2.78
26/01/2020 11:09:28	26012020	260120	110928	103.090	12.418747	-57.245043	103.090	-0.270	-0.520	3.730	103.090	-1.800	4.300																			1580036968.0	0.73	1.35
26/01/2020 11:09:29	26012020	260120	110929	103.040	12.418747	-57.245042	103.010	0.030	-0.550	2.920	103.030	-2.000	3.700																			1580036969.0	0.26	0.48
26/01/2020 11:09:30	26012020	260120	110930	102.980	12.418750	-57.245042	102.940	0.180	-0.260	1.660	102.960	-1.800	2.600																			1580036970.0	0.81	1.50
26/01/2020 11:09:31	26012020	260120	110931	102.970	12.418757	-57.245040	102.980	0.190	0.160	0.040	102.990	-1.400	1.100																			1580036971.0	1.47	2.72
26/01/2020 11:09:32	26012020	260120	110932	103.120	12.418767	-57.245040	103.130	0.190	0.380	-1.590	103.160	-1.100	-0.600																			1580036972.0	1.96	3.63
26/01/2020 11:09:33	26012020	260120	110933	103.280	12.418775	-57.245038	103.210	0.220	0.270	-2.650	103.300	-1.000	-1.900																			1580036973.0	1.94	3.59
26/01/2020 11:09:34	26012020	260120	110934	103.290	12.418780	-57.245037	103.120	0.230	-0.020	-2.840	103.270	-1.300	-2.500																			1580036974.0	1.29	2.39
26/01/2020 11:09:35	26012020	260120	110935	103.130	12.418782	-57.245035	102.930	0.190	-0.300	-2.230	103.090	-1.600	-2.100																			1580036975.0	0.34	0.63
26/01/2020 11:09:36	26012020	260120	110936	102.900	12.418778	-57.245035	102.720	0.140	-0.490	-1.050	102.850	-1.800	-1.200																			1580036976.0	0.67	1.24
26/01/2020 11:09:37	26012020	260120	110937	102.710	12.418772	-57.245037	102.660	0.060	-0.450	0.400	102.690	-1.900	0.200																			1580036977.0	1.34	2.48
26/01/2020 11:09:38	26012020	260120	110938	102.700	12.418765	-57.245038	102.760	-0.140	-0.100	1.880	102.720	-1.600	1.700																			1580036978.0	1.70	3.15
26/01/2020 11:09:39	26012020	260120	110939	102.790	12.418757	-57.245042	102.890	-0.420	0.280	3.130	102.810	-1.200	3.100																			1580036979.0	1.90	3.52
26/01/2020 11:09:40	26012020	260120	110940	102.900	12.418750	-57.245047	102.920	-0.610	0.370	3.870	102.900	-1.000	4.000																			1580036980.0	1.78	3.30
26/01/2020 11:09:41	26012020	260120	110941	102.870	12.418745	-57.245048	102.820	-0.520	0.090	3.940	102.850	-1.100	4.400																			1580036981.0	1.13	2.09
26/01/2020 11:09:42	26012020	260120	110942	102.750	12.418743	-57.245047	102.660	-0.150	-0.390	3.420	102.720	-1.600	4.100																			1580036982.0	0.33	0.61
26/01/2020 11:09:43	26012020	260120	110943	102.620	12.418745	-57.245045	102.550	0.300	-0.720	2.480	102.600	-2.000	3.300																			1580036983.0	0.77	1.43
26/01/2020 11:09:44	26012020	260120	110944	102.580	12.418750	-57.245042	102.580	0.540	-0.610	1.220	102.600	-2.100	2.100																			1580036984.0	1.22	2.26
26/01/2020 11:09:45	26012020	260120	110945	102.700	12.418758	-57.245040	102.710	0.470	-0.120	-0.200	102.730	-1.700	0.800																			1580036985.0	1.53	2.83
26/01/2020 11:09:46	26012020	260120	110946	102.840	12.418767	-57.245042	102.780	0.240	0.350	-1.430	102.870	-1.200	-0.600																			1580036986.0	1.77	3.28
26/01/2020 11:09:47	26012020	260120	110947	102.890	12.418773	-57.245042	102.750	0.070	0.380	-2.130	102.890	-0.900	-1.500																			1580036987.0	1.61	2.98
26/01/2020 11:09:48	26012020	260120	110948	102.820	12.418778	-57.245040	102.660	0.060	-0.010	-2.130	102.800	-1.200	-1.800																			1580036988.0	0.95	1.76
26/01/2020 11:09:49	26012020	260120	110949	102.730	12.418777	-57.245038	102.630	0.050	-0.360	-1.510	102.720	-1.600	-1.400																			1580036989.0	0.44	0.81
26/01/2020 11:09:50	26012020	260120	110950	102.700	12.418773	-57.245037	102.640	-0.110	-0.350	-0.410	102.700	-1.800	-0.500																			1580036990.0	0.83	1.54
26/01/2020 11:09:51	26012020	260120	110951	102.700	12.418767	-57.245040	102.680	-0.410	-0.080	0.920	102.700	-1.600	0.800																			1580036991.0	1.48	2.74
26/01/2020 11:09:52	26012020	260120	110952	102.750	12.418760	-57.245043	102.810	-0.600	0.180	2.100	102.770	-1.300	2.100																			1580036992.0	1.82	3.37
26/01/2020 11:09:53	26012020	260120	110953	102.880	12.418753	-57.245047	102.930	-0.460	0.120	2.900	102.900	-1.200	3.000																			1580036993.0	1.60	2.96
26/01/2020 11:09:54	26012020	260120	110954	102.940	12.418748	-57.245047	102.910	-0.030	-0.270	3.310	102.930	-1.500	3.600																			1580036994.0	1.03	1.91
26/01/2020 11:09:55	26012020	260120	110955	102.870	12.418745	-57.245045	102.810	0.390	-0.610	3.290	102.840	-1.900	3.700																			1580036995.0	0.64	1.19
26/01/2020 11:09:56	26012020	260120	110956	102.780	12.418747	-57.245043	102.760	0.510	-0.500	2.790	102.780	-2.000	3.400																			1580036996.0	0.42	0.78
26/01/2020 11:09:57	26012020	260120	110957	102.780	12.418750	-57.245043	102.780	0.330	-0.010	1.890	102.790	-1.600	2.700																			1580036997.0	0.85	1.57
26/01/2020 11:09:58	26012020	260120	110958	102.870	12.418757	-57.245045	102.900	0.040	0.450	0.690	102.900	-1.100	1.600																			1580036998.0	1.42	2.63
26/01/2020 11:09:59	26012020	260120	110959	103.040	12.418763	-57.245045	103.040	-0.150	0.450	-0.460	103.070	-0.900	0.400																			1580036999.0	1.56	2.89
26/01/2020 11:10:00	26012020	260120	111000	103.150	12.418768	-57.245043	103.060	-0.160	0.000	-1.180	103.150	-1.200	-0.500	1014.70	25.70	25.70	18.50	18.60	129.00	64.00	64.00	375.00	25.90	354.00	7.60	97.00	7.10	8900	3103.00	27.40	27.40	1580037000.0	1.16	2.15
26/01/2020 11:10:01	26012020	260120	111001	103.140	12.418772	-57.245040	103.020	-0.040	-0.560	-1.480	103.130	-1.700	-1.000																			1580037001.0	0.73	1.35
26/01/2020 11:10:02	26012020	260120	111002	103.090	12.418772	-57.245038	102.970	0.110	-0.810	-1.390	103.080	-2.100	-1.100																			1580037002.0	0.54	1.00
26/01/2020 11:10:03	26012020	260120	111003	103.010	12.418770	-57.245037	102.900	0.180	-0.600	-0.860	102.990	-2.100	-0.700																			1580037003.0	0.27	0.50
26/01/2020 11:10:04	26012020	260120	111004	102.930	12.418768	-57.245038	102.900	0.120	-0.040	-0.040	102.930	-1.700	0.000																			1580037004.0	0.58	1.07
26/01/2020 11:10:05	26012020	260120	111005	103.000	12.418765	-57.245042	103.030	-0.010	0.470	0.800	103.020	-1.100	0.900																			1580037005.0	0.90	1.67
26/01/2020 11:10:06	26012020	260120	111006	103.130	12.418762	-57.245045	103.150	-0.160	0.570	1.570	103.160	-0.800	1.600																			1580037006.0	0.86	1.59
26/01/2020 11:10:07	26012020	260120	111007	103.190	12.418758	-57.245045	103.140	-0.280	0.240	2.270	103.180	-1.000	2.400																			1580037007.0	0.78	1.44
26/01/2020 11:10:08	26012020	260120	111008	103.110	12.418753	-57.245045	103.030	-0.340	-0.240	2.820	103.090	-1.400	3.000																			1580037008.0	0.89	1.65
26/01/2020 11:10:09	26012020	260120	111009	102.980	12.418750	-57.245043	102.900	-0.310	-0.570	3.070	102.950	-1.800	3.400																			1580037009.0	0.85	1.57
26/01/2020 11:10:10	26012020	260120	111010	102.880	12.418748	-57.245043	102.850	-0.160	-0.570	2.820	102.880	-2.000	3.400																			1580037010.0	0.54	1.00
26/01/2020 11:10:11	26012020	260120	111011	102.900	12.418748	-57.245043	102.900	0.040	-0.270	2.030	102.920	-1.800	2.800																			1580037011.0	0.13	0.24
26/01/2020 11:10:12	26012020	260120	111012	102.990	12.418753	-57.245043	102.950	0.210	0.090	0.870	103.000	-1.400	1.800																			1580037012.0	0.91	1.69
26/01/2020 11:10:13	26012020	260120	111013	103.020	12.418760	-57.245043	102.930	0.350	0.170	-0.370	103.030	-1.200	0.500																			1580037013.0	1.49	2.76
26/01/2020 11:10:14	26012020	260120	111014	102.990	12.418767	-57.245042	102.820	0.470	-0.110	-1.370	102.970	-1.300	-0.600																			1580037014.0	1.69	3.13
26/01/2020 11:10:15	26012020	260120	111015	102.860	12.418773	-57.245038	102.670	0.520	-0.470	-1.840	102.830	-1.700	-1.300																			1580037015.0	1.53	2.83
26/01/2020 11:10:16	26012020	260120	111016	102.710	12.418777	-57.245035	102.600	0.380	-0.510	-1.710	102.700	-1.900	-1.400																			1580037016.0	0.98	1.81
26/01/2020 11:10:17	26012020	260120	111017	102.710	12.418777	-57.245035	102.680	0.010	-0.160	-1.010	102.720	-1.700	-1.000																			1580037017.0	0.10	0.19
26/01/2020 11:10:18	26012020	260120	111018	102.790	12.418773	-57.245037	102.770	-0.420	0.310	0.070	102.810	-1.200	-0.000																			1580037018.0	0.92	1.70
26/01/2020 11:10:19	26012020	260120	111019	102.830	12.418767	-57.245040	102.780	-0.660	0.460	1.300	102.830	-0.900	1.200																			1580037019.0	1.55	2.87
26/01/2020 11:10:20	26012020	260120	111020	102.740	12.418758	-57.245042	102.650	-0.580	0.110	2.480	102.710	-1.100	2.400																			1580037020.0	1.79	3.32
26/01/2020 11:10:21	26012020	260120	111021	102.570	12.418750	-57.245040	102.530	-0.300	-0.390	3.250	102.550	-1.600	3.400																			1580037021.0	1.68	3.11
26/01/2020 11:10:22	26012020	260120	111022	102.500	12.418747	-57.245040	102.530	-0.010	-0.540	3.390	102.500	-1.900	3.800																			1580037022.0	1.06	1.96
26/01/2020 11:10:23	26012020	260120	111023	102.550	12.418745	-57.245038	102.590	0.150	-0.270	2.890	102.570	-1.800	3.500																			1580037023.0	0.08	0.15
26/01/2020 11:10:24	26012020	260120	111024	102.630	12.418750	-57.245040	102.600	0.190	0.070	1.940	102.630	-1.400	2.700																			1580037024.0	0.84	1.56
26/01/2020 11:10:25	26012020	260120	111025	102.640	12.418757	-57.245038	102.570	0.180	0.150	0.780	102.630	-1.200	1.600																			1580037025.0	1.40	2.59
26/01/2020 11:10:26	26012020	260120	111026	102.630	12.418763	-57.245037	102.550	0.170	-0.020	-0.310	102.630	-1.300	0.500																			1580037026.0	1.59	2.94
26/01/2020 11:10:27	26012020	260120	111027	102.650	12.418770	-57.245035	102.520	0.170	-0.230	-1.100	102.650	-1.500	-0.400																			1580037027.0	1.41	2.61
26/01/2020 11:10:28	26012020	260120	111028	102.590	12.418773	-57.245032	102.430	0.160	-0.350	-1.410	102.570	-1.700	-0.900																			1580037028.0	0.97	1.80
26/01/2020 11:10:29	26012020	260120	111029	102.500	12.418775	-57.245032	102.360	0.100	-0.310	-1.270	102.480	-1.700	-1.000																			1580037029.0	0.39	0.72
26/01/2020 11:10:30	26012020	260120	111030	102.450	12.418773	-57.245032	102.350	0.010	-0.130	-0.770	102.450	-1.600	-0.600																			1580037030.0	0.19	0.35
26/01/2020 11:10:31	26012020	260120	111031	102.440	12.418772	-57.245032	102.360	-0.080	-0.010	-0.040	102.440	-1.400	0.000																			1580037031.0	0.59	1.09
26/01/2020 11:10:32	26012020	260120	111032	102.440	12.418767	-57.245033	102.380	-0.110	-0.090	0.820	102.440	-1.400	0.900																			1580037032.0	0.83	1.54
26/01/2020 11:10:33	26012020	260120	111033	102.460	12.418763	-57.245033	102.430	-0.100	-0.280	1.650	102.470	-1.600	1.700																			1580037033.0	1.01	1.87
26/01/2020 11:10:34	26012020	260120	111034	102.500	12.418758	-57.245032	102.470	-0.110	-0.300	2.310	102.500	-1.700	2.400																			1580037034.0	1.00	1.85
26/01/2020 11:10:35	26012020	260120	111035	102.500	12.418755	-57.245032	102.460	-0.210	-0.040	2.690	102.500	-1.600	2.900																			1580037035.0	0.77	1.43
26/01/2020 11:10:36	26012020	260120	111036	102.500	12.418753	-57.245033	102.460	-0.320	0.350	2.700	102.500	-1.200	3.100																			1580037036.0	0.52	0.96
26/01/2020 11:10:37	26012020	260120	111037	102.500	12.418753	-57.245035	102.430	-0.290	0.430	2.270	102.500	-0.900	2.900																			1580037037.0	0.31	0.57
26/01/2020 11:10:38	26012020	260120	111038	102.480	12.418755	-57.245035	102.400	-0.050	0.090	1.430	102.480	-1.100	2.200																			1580037038.0	0.54	1.00
26/01/2020 11:10:39	26012020	260120	111039	102.500	12.418760	-57.245032	102.450	0.260	-0.330	0.350	102.510	-1.600	1.200																			1580037039.0	1.15	2.13
26/01/2020 11:10:40	26012020	260120	111040	102.620	12.418765	-57.245028	102.600	0.450	-0.480	-0.710	102.660	-1.800	0.100																			1580037040.0	1.45	2.69
26/01/2020 11:10:41	26012020	260120	111041	102.810	12.418772	-57.245027	102.740	0.420	-0.390	-1.400	102.840	-1.800	-0.800																			1580037041.0	1.36	2.52
26/01/2020 11:10:42	26012020	260120	111042	102.890	12.418777	-57.245027	102.740	0.240	-0.250	-1.510	102.890	-1.700	-1.100																			1580037042.0	0.93	1.72
26/01/2020 11:10:43	26012020	260120	111043	102.810	12.418777	-57.245027	102.580	0.020	-0.180	-1.010	102.770	-1.600	-0.900																			1580037043.0	0.27	0.50
26/01/2020 11:10:44	26012020	260120	111044	102.590	12.418775	-57.245027	102.390	-0.120	-0.220	-0.080	102.540	-1.600	-0.100																			1580037044.0	0.45	0.83
26/01/2020 11:10:45	26012020	260120	111045	102.400	12.418770	-57.245027	102.280	-0.160	-0.350	0.980	102.380	-1.700	0.900																			1580037045.0	1.01	1.87
26/01/2020 11:10:46	26012020	260120	111046	102.310	12.418765	-57.245027	102.250	-0.180	-0.370	1.980	102.290	-1.800	2.000																			1580037046.0	1.29	2.39
26/01/2020 11:10:47	26012020	260120	111047	102.310	12.418758	-57.245027	102.350	-0.270	-0.100	2.710	102.330	-1.600	2.800																			1580037047.0	1.31	2.43
26/01/2020 11:10:48	26012020	260120	111048	102.430	12.418753	-57.245028	102.490	-0.350	0.320	2.920	102.460	-1.200	3.300																			1580037048.0	1.04	1.93
26/01/2020 11:10:49	26012020	260120	111049	102.590	12.418752	-57.245030	102.650	-0.320	0.610	2.520	102.620	-0.900	3.100																			1580037049.0	0.51	0.94
26/01/2020 11:10:50	26012020	260120	111050	102.770	12.418755	-57.245032	102.810	-0.150	0.580	1.640	102.810	-0.800	2.400																			1580037050.0	0.45	0.83
26/01/2020 11:10:51	26012020	260120	111051	102.900	12.418758	-57.245030	102.870	0.110	0.200	0.630	102.920	-1.000	1.400																			1580037051.0	0.99	1.83
26/01/2020 11:10:52	26012020	260120	111052	102.980	12.418765	-57.245028	102.840	0.360	-0.360	-0.290	102.970	-1.500	0.500																			1580037052.0	1.34	2.48
26/01/2020 11:10:53	26012020	260120	111053	102.880	12.418770	-57.245025	102.670	0.530	-0.840	-0.970	102.850	-2.100	-0.300																			1580037053.0	1.40	2.59
26/01/2020 11:10:54	26012020	260120	111054	102.680	12.418775	-57.245022	102.470	0.530	-0.970	-1.300	102.640	-2.300	-0.800																			1580037054.0	1.17	2.17
26/01/2020 11:10:55	26012020	260120	111055	102.500	12.418778	-57.245022	102.340	0.360	-0.710	-1.150	102.480	-2.200	-0.900																			1580037055.0	0.67	1.24
26/01/2020 11:10:56	26012020	260120	111056	102.430	12.418778	-57.245022	102.350	0.040	-0.210	-0.570	102.430	-1.800	-0.500																			1580037056.0	0.21	0.39
26/01/2020 11:10:57	26012020	260120	111057	102.460	12.418775	-57.245025	102.400	-0.300	0.230	0.240	102.470	-1.300	0.300																			1580037057.0	0.71	1.31
26/01/2020 11:10:58	26012020	260120	111058	102.480	12.418772	-57.245027	102.390	-0.500	0.400	1.120	102.470	-1.000	1.100																			1580037058.0	1.08	2.00
26/01/2020 11:10:59	26012020	260120	111059	102.410	12.418765	-57.245027	102.310	-0.470	0.240	1.930	102.390	-1.100	2.000																			1580037059.0	1.25	2.31
26/01/2020 11:11:00	26012020	260120	111100	102.320	12.418760	-57.245027	102.280	-0.310	0.020	2.420	102.320	-1.300	2.700	1014.80	25.70	25.70	18.70	18.80	133.00	65.00	65.00	375.00	25.90	358.00	7.10	100.00	6.70	9122	3211.00	27.40	27.30	1580037060.0	1.19	2.20
26/01/2020 11:11:01	26012020	260120	111101	102.380	12.418757	-57.245025	102.450	-0.170	0.040	2.410	102.420	-1.400	2.900																			1580037061.0	0.73	1.35
26/01/2020 11:11:02	26012020	260120	111102	102.590	12.418757	-57.245027	102.660	-0.090	0.210	1.980	102.630	-1.200	2.600																			1580037062.0	0.18	0.33
26/01/2020 11:11:03	26012020	260120	111103	102.770	12.418758	-57.245027	102.740	0.020	0.180	1.300	102.780	-1.200	2.000																			1580037063.0	0.57	1.06
26/01/2020 11:11:04	26012020	260120	111104	102.780	12.418763	-57.245027	102.640	0.190	-0.170	0.550	102.770	-1.400	1.200																			1580037064.0	0.81	1.50
26/01/2020 11:11:05	26012020	260120	111105	102.620	12.418767	-57.245025	102.400	0.350	-0.590	-0.070	102.570	-1.800	0.600																			1580037065.0	0.96	1.78
26/01/2020 11:11:06	26012020	260120	111106	102.360	12.418770	-57.245023	102.120	0.390	-0.780	-0.500	102.310	-2.100	0.000																			1580037066.0	0.94	1.74
26/01/2020 11:11:07	26012020	260120	111107	102.140	12.418773	-57.245022	101.970	0.270	-0.640	-0.740	102.110	-2.100	-0.300																			1580037067.0	0.73	1.35
26/01/2020 11:11:08	26012020	260120	111108	102.040	12.418775	-57.245022	101.910	0.110	-0.330	-0.740	102.030	-1.900	-0.400																			1580037068.0	0.49	0.91
26/01/2020 11:11:09	26012020	260120	111109	102.000	12.418777	-57.245022	101.890	-0.010	0.020	-0.470	102.000	-1.500	-0.200																			1580037069.0	0.20	0.37
26/01/2020 11:11:10	26012020	260120	111110	102.000	12.418775	-57.245023	101.940	-0.100	0.350	0.010	102.010	-1.200	0.200																			1580037070.0	0.31	0.57
26/01/2020 11:11:11	26012020	260120	111111	102.080	12.418773	-57.245025	102.050	-0.170	0.560	0.560	102.100	-0.900	0.700																			1580037071.0	0.66	1.22
26/01/2020 11:11:12	26012020	260120	111112	102.160	12.418768	-57.245025	102.090	-0.190	0.420	1.190	102.160	-0.900	1.300																			1580037072.0	0.79	1.46
26/01/2020 11:11:13	26012020	260120	111113	102.160	12.418765	-57.245025	102.130	-0.160	0.020	1.710	102.170	-1.200	1.900																			1580037073.0	0.82	1.52
26/01/2020 11:11:14	26012020	260120	111114	102.210	12.418762	-57.245025	102.180	-0.120	-0.310	1.980	102.220	-1.600	2.300																			1580037074.0	0.64	1.19
26/01/2020 11:11:15	26012020	260120	111115	102.220	12.418760	-57.245025	102.130	-0.110	-0.460	2.100	102.210	-1.800	2.400																			1580037075.0	0.36	0.67
26/01/2020 11:11:16	26012020	260120	111116	102.110	12.418760	-57.245025	101.950	-0.110	-0.500	2.070	102.070	-1.900	2.500																			1580037076.0	0.26	0.48
26/01/2020 11:11:17	26012020	260120	111117	101.960	12.418760	-57.245025	101.760	-0.060	-0.490	1.790	101.930	-1.900	2.300																			1580037077.0	0.10	0.19
26/01/2020 11:11:18	26012020	260120	111118	101.760	12.418760	-57.245025	101.620	0.070	-0.410	1.250	101.740	-1.900	1.900																			1580037078.0	0.25	0.46
26/01/2020 11:11:19	26012020	260120	111119	101.680	12.418763	-57.245025	101.590	0.240	-0.190	0.500	101.680	-1.700	1.200																			1580037079.0	0.65	1.20
26/01/2020 11:11:20	26012020	260120	111120	101.710	12.418768	-57.245023	101.640	0.330	0.140	-0.300	101.720	-1.400	0.400																			1580037080.0	0.99	1.83
26/01/2020 11:11:21	26012020	260120	111121	101.830	12.418773	-57.245023	101.800	0.290	0.460	-0.950	101.870	-1.000	-0.300																			1580037081.0	1.13	2.09
26/01/2020 11:11:22	26012020	260120	111122	102.040	12.418778	-57.245023	102.010	0.120	0.600	-1.240	102.080	-0.800	-0.800																			1580037082.0	0.97	1.80
26/01/2020 11:11:23	26012020	260120	111123	102.200	12.418780	-57.245025	102.090	-0.040	0.290	-0.980	102.210	-0.900	-0.800																			1580037083.0	0.46	0.85
26/01/2020 11:11:24	26012020	260120	111124	102.180	12.418778	-57.245023	102.000	-0.090	-0.420	-0.180	102.150	-1.500	-0.200																			1580037084.0	0.36	0.67
26/01/2020 11:11:25	26012020	260120	111125	102.010	12.418773	-57.245022	101.810	-0.060	-1.020	0.930	101.970	-2.200	0.900																			1580037085.0	1.07	1.98
26/01/2020 11:11:26	26012020	260120	111126	101.780	12.418767	-57.245022	101.600	-0.050	-1.050	2.040	101.730	-2.500	2.000																			1580037086.0	1.39	2.57
26/01/2020 11:11:27	26012020	260120	111127	101.570	12.418762	-57.245023	101.470	-0.130	-0.500	2.860	101.550	-2.200	3.000																			1580037087.0	1.32	2.44
26/01/2020 11:11:28	26012020	260120	111128	101.500	12.418757	-57.245027	101.510	-0.260	0.230	3.140	101.510	-1.400	3.500																			1580037088.0	1.09	2.02
26/01/2020 11:11:29	26012020	260120	111129	101.620	12.418755	-57.245030	101.700	-0.350	0.700	2.810	101.660	-0.800	3.400																			1580037089.0	0.68	1.26
26/01/2020 11:11:30	26012020	260120	111130	101.830	12.418757	-57.245030	101.890	-0.300	0.720	1.980	101.880	-0.600	2.700																			1580037090.0	0.40	0.74
26/01/2020 11:11:31	26012020	260120	111131	102.010	12.418762	-57.245030	102.010	-0.100	0.330	0.870	102.040	-0.900	1.700																			1580037091.0	0.86	1.59
26/01/2020 11:11:32	26012020	260120	111132	102.130	12.418767	-57.245027	102.070	0.210	-0.210	-0.270	102.150	-1.400	0.600																			1580037092.0	1.27	2.35
26/01/2020 11:11:33	26012020	260120	111133	102.170	12.418772	-57.245023	102.040	0.500	-0.690	-1.140	102.160	-1.900	-0.400																			1580037093.0	1.38	2.56
26/01/2020 11:11:34	26012020	260120	111134	102.110	12.418777	-57.245022	101.950	0.640	-0.920	-1.580	102.090	-2.300	-1.100																			1580037094.0	1.18	2.19
26/01/2020 11:11:35	26012020	260120	111135	102.000	12.418780	-57.245020	101.860	0.490	-0.700	-1.540	101.990	-2.200	-1.200																			1580037095.0	0.69	1.28
26/01/2020 11:11:36	26012020	260120	111136	101.930	12.418782	-57.245022	101.820	0.090	-0.090	-1.010	101.920	-1.700	-0.900																			1580037096.0	0.34	0.63
26/01/2020 11:11:37	26012020	260120	111137	101.910	12.418780	-57.245025	101.850	-0.360	0.480	-0.100	101.910	-1.100	-0.100																			1580037097.0	0.77	1.43
26/01/2020 11:11:38	26012020	260120	111138	101.920	12.418775	-57.245028	101.870	-0.610	0.580	1.000	101.920	-0.800	0.900																			1580037098.0	1.15	2.13
26/01/2020 11:11:39	26012020	260120	111139	101.910	12.418768	-57.245030	101.880	-0.570	0.230	2.060	101.900	-1.000	2.000																			1580037099.0	1.44	2.67
26/01/2020 11:11:40	26012020	260120	111140	101.930	12.418762	-57.245030	101.980	-0.330	-0.220	2.790	101.950	-1.400	2.900																			1580037100.0	1.51	2.80
26/01/2020 11:11:41	26012020	260120	111141	102.030	12.418757	-57.245028	102.160	-0.070	-0.410	3.020	102.070	-1.800	3.400																			1580037101.0	1.11	2.06
26/01/2020 11:11:42	26012020	260120	111142	102.230	12.418755	-57.245030	102.240	0.120	-0.350	2.760	102.240	-1.800	3.300																			1580037102.0	0.41	0.76
26/01/2020 11:11:43	26012020	260120	111143	102.280	12.418757	-57.245030	102.240	0.290	-0.220	2.080	102.280	-1.700	2.800																			1580037103.0	0.39	0.72
26/01/2020 11:11:44	26012020	260120	111144	102.280	12.418762	-57.245030	102.200	0.420	-0.150	1.110	102.280	-1.600	1.900																			1580037104.0	1.01	1.87
26/01/2020 11:11:45	26012020	260120	111145	102.260	12.418767	-57.245030	102.140	0.460	-0.160	0.120	102.250	-1.500	0.900																			1580037105.0	1.37	2.54
26/01/2020 11:11:46	26012020	260120	111146	102.210	12.418773	-57.245028	102.070	0.300	-0.170	-0.660	102.200	-1.600	0.000																			1580037106.0	1.36	2.52
26/01/2020 11:11:47	26012020	260120	111147	102.140	12.418778	-57.245027	102.020	-0.020	-0.090	-1.080	102.140	-1.500	-0.600																			1580037107.0	0.99	1.83
26/01/2020 11:11:48	26012020	260120	111148	102.120	12.418780	-57.245027	102.010	-0.330	0.030	-1.090	102.120	-1.400	-0.700																			1580037108.0	0.38	0.70
26/01/2020 11:11:49	26012020	260120	111149	102.100	12.418778	-57.245028	102.010	-0.430	0.060	-0.790	102.100	-1.300	-0.500																			1580037109.0	0.28	0.52
26/01/2020 11:11:50	26012020	260120	111150	102.110	12.418777	-57.245028	102.060	-0.310	-0.040	-0.320	102.120	-1.400	-0.100																			1580037110.0	0.55	1.02
26/01/2020 11:11:51	26012020	260120	111151	102.170	12.418773	-57.245030	102.130	-0.090	-0.150	0.350	102.170	-1.500	0.400																			1580037111.0	0.72	1.33
26/01/2020 11:11:52	26012020	260120	111152	102.200	12.418770	-57.245030	102.180	0.100	-0.150	1.110	102.210	-1.600	1.200																			1580037112.0	0.87	1.61
26/01/2020 11:11:53	26012020	260120	111153	102.230	12.418765	-57.245032	102.230	0.210	-0.040	1.690	102.240	-1.500	1.900																			1580037113.0	0.82	1.52
26/01/2020 11:11:54	26012020	260120	111154	102.260	12.418763	-57.245033	102.230	0.240	0.010	2.020	102.260	-1.400	2.300																			1580037114.0	0.58	1.07
26/01/2020 11:11:55	26012020	260120	111155	102.230	12.418763	-57.245033	102.190	0.180	-0.050	2.080	102.220	-1.400	2.500																			1580037115.0	0.20	0.37
26/01/2020 11:11:56	26012020	260120	111156	102.210	12.418763	-57.245033	102.200	0.070	-0.190	1.940	102.210	-1.500	2.400																			1580037116.0	0.14	0.26
26/01/2020 11:11:57	26012020	260120	111157	102.230	12.418765	-57.245033	102.210	-0.030	-0.270	1.650	102.230	-1.600	2.200																			1580037117.0	0.24	0.44
26/01/2020 11:11:58	26012020	260120	111158	102.230	12.418765	-57.245033	102.180	-0.110	-0.290	1.310	102.230	-1.700	1.800																			1580037118.0	0.25	0.46
26/01/2020 11:11:59	26012020	260120	111159	102.170	12.418767	-57.245033	102.050	-0.140	-0.320	0.910	102.150	-1.700	1.500																			1580037119.0	0.22	0.41
26/01/2020 11:12:00	26012020	260120	111200	102.010	12.418768	-57.245033	101.840	-0.130	-0.400	0.480	101.980	-1.800	1.100	1014.80	25.70	25.80	19.00	19.00	134.00	66.00	66.00	376.00	26.00	353.00	7.50	94.00	7.20	9314	3170.00	27.40	27.40	1580037120.0	0.32	0.59
26/01/2020 11:12:01	26012020	260120	111201	101.830	12.418770	-57.245032	101.680	-0.080	-0.340	0.150	101.800	-1.800	0.700																			1580037121.0	0.44	0.81
26/01/2020 11:12:02	26012020	260120	111202	101.720	12.418770	-57.245030	101.640	-0.040	-0.050	-0.060	101.720	-1.600	0.400																			1580037122.0	0.25	0.46
26/01/2020 11:12:03	26012020	260120	111203	101.770	12.418772	-57.245032	101.760	-0.020	0.290	-0.240	101.790	-1.200	0.200																			1580037123.0	0.17	0.31
26/01/2020 11:12:04	26012020	260120	111204	101.950	12.418772	-57.245032	102.010	-0.010	0.500	-0.450	102.010	-1.000	0.000																			1580037124.0	0.27	0.50
26/01/2020 11:12:05	26012020	260120	111205	102.240	12.418773	-57.245033	102.290	0.040	0.550	-0.590	102.300	-0.800	-0.200																			1580037125.0	0.36	0.67
26/01/2020 11:12:06	26012020	260120	111206	102.490	12.418775	-57.245033	102.480	0.160	0.330	-0.370	102.530	-0.900	-0.100																			1580037126.0	0.31	0.57
26/01/2020 11:12:07	26012020	260120	111207	102.580	12.418773	-57.245033	102.490	0.320	-0.210	0.280	102.590	-1.400	0.400																			1580037127.0	0.17	0.31
26/01/2020 11:12:08	26012020	260120	111208	102.490	12.418772	-57.245033	102.330	0.410	-0.780	1.210	102.450	-1.900	1.200																			1580037128.0	0.68	1.26
26/01/2020 11:12:09	26012020	260120	111209	102.290	12.418767	-57.245033	102.080	0.320	-1.050	2.130	102.240	-2.400	2.200																			1580037129.0	0.93	1.72
26/01/2020 11:12:10	26012020	260120	111210	102.000	12.418763	-57.245033	101.910	0.040	-0.880	2.770	101.960	-2.400	2.900																			1580037130.0	0.81	1.50
26/01/2020 11:12:11	26012020	260120	111211	101.880	12.418760	-57.245035	101.850	-0.350	-0.380	3.070	101.860	-2.000	3.400																			1580037131.0	0.64	1.19
26/01/2020 11:12:12	26012020	260120	111212	101.820	12.418758	-57.245037	101.820	-0.670	0.180	2.970	101.810	-1.400	3.400																			1580037132.0	0.60	1.11
26/01/2020 11:12:13	26012020	260120	111213	101.820	12.418758	-57.245038	101.860	-0.720	0.480	2.350	101.830	-1.000	3.000																			1580037133.0	0.37	0.69
26/01/2020 11:12:14	26012020	260120	111214	101.900	12.418758	-57.245038	101.930	-0.420	0.440	1.340	101.930	-0.900	2.200																			1580037134.0	0.20	0.37
26/01/2020 11:12:15	26012020	260120	111215	102.030	12.418762	-57.245035	102.070	0.030	0.270	0.100	102.060	-1.000	1.000																			1580037135.0	0.80	1.48
26/01/2020 11:12:16	26012020	260120	111216	102.230	12.418768	-57.245033	102.310	0.380	0.160	-1.210	102.280	-1.200	-0.300																			1580037136.0	1.39	2.57
26/01/2020 11:12:17	26012020	260120	111217	102.510	12.418775	-57.245032	102.530	0.510	0.070	-2.140	102.550	-1.300	-1.400																			1580037137.0	1.68	3.11
26/01/2020 11:12:18	26012020	260120	111218	102.660	12.418782	-57.245030	102.550	0.510	-0.160	-2.320	102.660	-1.400	-1.900																			1580037138.0	1.38	2.56
26/01/2020 11:12:19	26012020	260120	111219	102.590	12.418783	-57.245030	102.400	0.420	-0.550	-1.620	102.550	-1.800	-1.600																			1580037139.0	0.53	0.98
26/01/2020 11:12:20	26012020	260120	111220	102.370	12.418782	-57.245030	102.180	0.190	-0.780	-0.230	102.320	-2.100	-0.400																			1580037140.0	0.63	1.17
26/01/2020 11:12:21	26012020	260120	111221	102.110	12.418773	-57.245032	101.970	-0.130	-0.630	1.450	102.060	-2.100	1.200																			1580037141.0	1.53	2.83
26/01/2020 11:12:22	26012020	260120	111222	101.900	12.418765	-57.245033	101.880	-0.400	-0.240	3.020	101.880	-1.800	2.800																			1580037142.0	1.99	3.69
26/01/2020 11:12:23	26012020	260120	111223	101.860	12.418757	-57.245037	101.920	-0.450	0.020	4.140	101.860	-1.400	4.100																			1580037143.0	1.99	3.69
26/01/2020 11:12:24	26012020	260120	111224	101.880	12.418748	-57.245038	101.950	-0.280	0.090	4.590	101.880	-1.300	4.900																			1580037144.0	1.60	2.96
26/01/2020 11:12:25	26012020	260120	111225	101.900	12.418745	-57.245038	102.000	-0.020	0.160	4.160	101.920	-1.300	4.800																			1580037145.0	0.83	1.54
26/01/2020 11:12:26	26012020	260120	111226	102.030	12.418747	-57.245037	102.170	0.200	0.310	2.760	102.070	-1.100	3.800																			1580037146.0	0.48	0.89
26/01/2020 11:12:27	26012020	260120	111227	102.270	12.418755	-57.245035	102.370	0.290	0.400	0.810	102.320	-1.000	2.000																			1580037147.0	1.77	3.28
26/01/2020 11:12:28	26012020	260120	111228	102.470	12.418767	-57.245033	102.440	0.250	0.190	-0.980	102.490	-1.100	0.100																			1580037148.0	2.51	4.65
26/01/2020 11:12:29	26012020	260120	111229	102.510	12.418778	-57.245032	102.370	0.140	-0.340	-2.160	102.500	-1.500	-1.400																			1580037149.0	2.33	4.32
26/01/2020 11:12:30	26012020	260120	111230	102.390	12.418785	-57.245028	102.190	-0.000	-0.870	-2.680	102.350	-2.100	-2.200																			1580037150.0	1.62	3.00
26/01/2020 11:12:31	26012020	260120	111231	102.230	12.418787	-57.245025	101.990	-0.170	-1.030	-2.460	102.180	-2.400	-2.200																			1580037151.0	0.72	1.33
26/01/2020 11:12:32	26012020	260120	111232	101.990	12.418783	-57.245025	101.840	-0.370	-0.670	-1.450	101.960	-2.200	-1.500																			1580037152.0	0.57	1.06
26/01/2020 11:12:33	26012020	260120	111233	101.870	12.418777	-57.245028	101.760	-0.550	0.050	0.050	101.850	-1.600	-0.200																			1580037153.0	1.66	3.07
26/01/2020 11:12:34	26012020	260120	111234	101.820	12.418767	-57.245033	101.840	-0.570	0.720	1.480	101.830	-0.900	1.300																			1580037154.0	2.22	4.11
26/01/2020 11:12:35	26012020	260120	111235	101.920	12.418758	-57.245037	101.980	-0.300	0.880	2.510	101.940	-0.500	2.500																			1580037155.0	1.97	3.65
26/01/2020 11:12:36	26012020	260120	111236	102.030	12.418753	-57.245037	102.110	0.220	0.440	2.930	102.050	-0.700	3.200																			1580037156.0	1.17	2.17
26/01/2020 11:12:37	26012020	260120	111237	102.180	12.418752	-57.245035	102.290	0.740	-0.210	2.780	102.220	-1.300	3.300																			1580037157.0	0.53	0.98
26/01/2020 11:12:38	26012020	260120	111238	102.370	12.418755	-57.245033	102.430	0.960	-0.650	2.330	102.390	-1.900	2.900																			1580037158.0	0.77	1.43
26/01/2020 11:12:39	26012020	260120	111239	102.440	12.418758	-57.245030	102.400	0.770	-0.730	1.800	102.430	-2.100	2.400																			1580037159.0	1.03	1.91
26/01/2020 11:12:40	26012020	260120	111240	102.370	12.418763	-57.245030	102.270	0.260	-0.530	1.290	102.340	-2.000	1.900																			1580037160.0	1.07	1.98
26/01/2020 11:12:41	26012020	260120	111241	102.210	12.418768	-57.245030	102.060	-0.300	-0.220	0.900	102.170	-1.700	1.400																			1580037161.0	0.86	1.59
26/01/2020 11:12:42	26012020	260120	111242	102.000	12.418770	-57.245032	101.840	-0.650	-0.010	0.600	101.950	-1.400	1.100																			1580037162.0	0.42	0.78
26/01/2020 11:12:43	26012020	260120	111243	101.820	12.418770	-57.245032	101.690	-0.680	-0.010	0.320	101.790	-1.400	0.800																			1580037163.0	0.03	0.06
26/01/2020 11:12:44	26012020	260120	111244	101.730	12.418768	-57.245030	101.690	-0.490	-0.120	0.040	101.730	-1.500	0.500																			1580037164.0	0.28	0.52
26/01/2020 11:12:45	26012020	260120	111245	101.790	12.418768	-57.245028	101.860	-0.240	-0.100	-0.260	101.820	-1.500	0.300																			1580037165.0	0.36	0.67
26/01/2020 11:12:46	26012020	260120	111246	102.050	12.418768	-57.245028	102.130	-0.050	0.150	-0.510	102.110	-1.300	-0.000																			1580037166.0	0.17	0.31
26/01/2020 11:12:47	26012020	260120	111247	102.330	12.418770	-57.245028	102.390	0.090	0.380	-0.570	102.380	-1.100	-0.200																			1580037167.0	0.34	0.63
26/01/2020 11:12:48	26012020	260120	111248	102.550	12.418772	-57.245030	102.510	0.200	0.320	-0.320	102.560	-1.000	-0.100																			1580037168.0	0.26	0.48
26/01/2020 11:12:49	26012020	260120	111249	102.570	12.418770	-57.245030	102.450	0.290	-0.040	0.260	102.550	-1.300	0.400																			1580037169.0	0.19	0.35
26/01/2020 11:12:50	26012020	260120	111250	102.440	12.418768	-57.245028	102.310	0.320	-0.410	1.060	102.400	-1.600	1.100																			1580037170.0	0.55	1.02
26/01/2020 11:12:51	26012020	260120	111251	102.260	12.418765	-57.245028	102.150	0.290	-0.620	1.860	102.230	-1.900	1.900																			1580037171.0	0.70	1.30
26/01/2020 11:12:52	26012020	260120	111252	102.120	12.418762	-57.245028	102.080	0.220	-0.530	2.400	102.110	-2.000	2.600																			1580037172.0	0.62	1.15
26/01/2020 11:12:53	26012020	260120	111253	102.110	12.418760	-57.245030	102.130	0.090	-0.250	2.550	102.120	-1.700	2.900																			1580037173.0	0.45	0.83
26/01/2020 11:12:54	26012020	260120	111254	102.180	12.418760	-57.245032	102.200	-0.060	-0.010	2.340	102.200	-1.400	2.800																			1580037174.0	0.28	0.52
26/01/2020 11:12:55	26012020	260120	111255	102.240	12.418762	-57.245032	102.230	-0.160	0.010	1.840	102.250	-1.400	2.500																			1580037175.0	0.24	0.44
26/01/2020 11:12:56	26012020	260120	111256	102.300	12.418763	-57.245030	102.300	-0.190	-0.050	1.140	102.320	-1.400	1.800																			1580037176.0	0.55	1.02
26/01/2020 11:12:57	26012020	260120	111257	102.380	12.418767	-57.245028	102.430	-0.180	-0.010	0.380	102.410	-1.400	1.100																			1580037177.0	0.71	1.31
26/01/2020 11:12:58	26012020	260120	111258	102.550	12.418770	-57.245028	102.530	-0.160	0.060	-0.280	102.570	-1.300	0.400																			1580037178.0	0.77	1.43
26/01/2020 11:12:59	26012020	260120	111259	102.620	12.418773	-57.245027	102.520	-0.110	0.020	-0.670	102.620	-1.300	-0.100																			1580037179.0	0.69	1.28
26/01/2020 11:13:00	26012020	260120	111300	102.560	12.418775	-57.245027	102.410	-0.040	-0.100	-0.700	102.540	-1.400	-0.300	1014.80	25.70	25.80	18.90	19.00	140.00	66.00	66.00	376.00	26.00	351.00	8.00	92.00	7.60	9548	3281.00	27.40	27.40	1580037180.0	0.40	0.74
26/01/2020 11:13:01	26012020	260120	111301	102.440	12.418775	-57.245025	102.330	0.020	-0.170	-0.470	102.430	-1.500	-0.200																			1580037181.0	0.12	0.22
26/01/2020 11:13:02	26012020	260120	111302	102.400	12.418773	-57.245025	102.370	0.070	-0.180	-0.100	102.420	-1.600	0.100																			1580037182.0	0.28	0.52
26/01/2020 11:13:03	26012020	260120	111303	102.500	12.418772	-57.245027	102.500	0.110	-0.160	0.350	102.520	-1.500	0.600																			1580037183.0	0.42	0.78
26/01/2020 11:13:04	26012020	260120	111304	102.610	12.418768	-57.245027	102.580	0.160	-0.140	0.880	102.620	-1.500	1.100																			1580037184.0	0.48	0.89
26/01/2020 11:13:05	26012020	260120	111305	102.620	12.418767	-57.245027	102.520	0.210	-0.160	1.430	102.600	-1.500	1.600																			1580037185.0	0.49	0.91
26/01/2020 11:13:06	26012020	260120	111306	102.490	12.418765	-57.245027	102.360	0.220	-0.160	1.900	102.460	-1.500	2.100																			1580037186.0	0.47	0.87
26/01/2020 11:13:07	26012020	260120	111307	102.330	12.418763	-57.245028	102.230	0.140	-0.090	2.120	102.310	-1.500	2.500																			1580037187.0	0.34	0.63
26/01/2020 11:13:08	26012020	260120	111308	102.250	12.418763	-57.245028	102.200	-0.030	0.030	2.010	102.240	-1.400	2.500																			1580037188.0	0.10	0.19
26/01/2020 11:13:09	26012020	260120	111309	102.270	12.418763	-57.245028	102.250	-0.210	0.100	1.660	102.280	-1.300	2.200																			1580037189.0	0.19	0.35
26/01/2020 11:13:10	26012020	260120	111310	102.330	12.418765	-57.245028	102.300	-0.240	0.010	1.130	102.350	-1.300	1.800																			1580037190.0	0.42	0.78
26/01/2020 11:13:11	26012020	260120	111311	102.380	12.418768	-57.245027	102.300	-0.090	-0.270	0.500	102.380	-1.500	1.100																			1580037191.0	0.71	1.31
26/01/2020 11:13:12	26012020	260120	111312	102.350	12.418772	-57.245025	102.220	0.130	-0.550	0.010	102.340	-1.800	0.600																			1580037192.0	0.87	1.61
26/01/2020 11:13:13	26012020	260120	111313	102.250	12.418773	-57.245022	102.080	0.190	-0.540	-0.220	102.220	-2.000	0.200																			1580037193.0	0.69	1.28
26/01/2020 11:13:14	26012020	260120	111314	102.090	12.418775	-57.245022	101.900	0.010	-0.180	-0.170	102.050	-1.700	0.200																			1580037194.0	0.24	0.44
26/01/2020 11:13:15	26012020	260120	111315	101.900	12.418775	-57.245023	101.760	-0.310	0.300	0.120	101.880	-1.300	0.400																			1580037195.0	0.32	0.59
26/01/2020 11:13:16	26012020	260120	111316	101.820	12.418773	-57.245025	101.790	-0.530	0.610	0.420	101.820	-0.900	0.700																			1580037196.0	0.59	1.09
26/01/2020 11:13:17	26012020	260120	111317	101.920	12.418772	-57.245027	101.980	-0.440	0.480	0.530	101.960	-0.800	0.900																			1580037197.0	0.51	0.94
26/01/2020 11:13:18	26012020	260120	111318	102.110	12.418770	-57.245027	102.080	-0.000	-0.140	0.650	102.130	-1.200	1.000																			1580037198.0	0.37	0.69
26/01/2020 11:13:19	26012020	260120	111319	102.110	12.418768	-57.245023	101.970	0.520	-0.800	0.930	102.090	-1.900	1.200																			1580037199.0	0.70	1.30
26/01/2020 11:13:20	26012020	260120	111320	101.920	12.418767	-57.245022	101.720	0.760	-0.950	1.270	101.860	-2.300	1.500																			1580037200.0	0.65	1.20
26/01/2020 11:13:21	26012020	260120	111321	101.720	12.418767	-57.245022	101.550	0.550	-0.430	1.440	101.680	-2.100	1.800																			1580037201.0	0.09	0.17
26/01/2020 11:13:22	26012020	260120	111322	101.580	12.418768	-57.245023	101.560	0.080	0.360	1.350	101.590	-1.300	1.800																			1580037202.0	0.66	1.22
26/01/2020 11:13:23	26012020	260120	111323	101.660	12.418772	-57.245027	101.670	-0.320	0.740	1.140	101.690	-0.700	1.600																			1580037203.0	0.83	1.54
26/01/2020 11:13:24	26012020	260120	111324	101.790	12.418773	-57.245027	101.750	-0.420	0.410	0.930	101.810	-0.800	1.400																			1580037204.0	0.36	0.67
26/01/2020 11:13:25	26012020	260120	111325	101.840	12.418773	-57.245025	101.740	-0.250	-0.310	0.770	101.840	-1.400	1.200																			1580037205.0	0.46	0.85
26/01/2020 11:13:26	26012020	260120	111326	101.810	12.418772	-57.245022	101.680	-0.020	-0.780	0.670	101.790	-2.000	1.100																			1580037206.0	0.72	1.33
26/01/2020 11:13:27	26012020	260120	111327	101.730	12.418772	-57.245020	101.610	0.050	-0.660	0.630	101.720	-2.200	1.000																			1580037207.0	0.37	0.69
26/01/2020 11:13:28	26012020	260120	111328	101.710	12.418772	-57.245020	101.620	-0.080	-0.150	0.600	101.710	-1.800	1.000																			1580037208.0	0.22	0.41
26/01/2020 11:13:29	26012020	260120	111329	101.720	12.418772	-57.245023	101.620	-0.250	0.220	0.590	101.720	-1.300	1.000																			1580037209.0	0.49	0.91
26/01/2020 11:13:30	26012020	260120	111330	101.690	12.418772	-57.245023	101.570	-0.280	0.220	0.620	101.680	-1.100	1.000																			1580037210.0	0.24	0.44
26/01/2020 11:13:31	26012020	260120	111331	101.650	12.418772	-57.245023	101.570	-0.140	0.010	0.630	101.650	-1.300	1.000																			1580037211.0	0.17	0.31
26/01/2020 11:13:32	26012020	260120	111332	101.680	12.418772	-57.245022	101.640	0.060	-0.150	0.580	101.700	-1.500	1.000																			1580037212.0	0.30	0.56
26/01/2020 11:13:33	26012020	260120	111333	101.780	12.418772	-57.245022	101.730	0.240	-0.150	0.480	101.790	-1.600	0.900																			1580037213.0	0.17	0.31
26/01/2020 11:13:34	26012020	260120	111334	101.840	12.418772	-57.245022	101.770	0.350	-0.030	0.350	101.850	-1.500	0.800																			1580037214.0	0.12	0.22
26/01/2020 11:13:35	26012020	260120	111335	101.870	12.418773	-57.245022	101.800	0.350	0.050	0.270	101.870	-1.400	0.700																			1580037215.0	0.44	0.81
26/01/2020 11:13:36	26012020	260120	111336	101.890	12.418775	-57.245023	101.820	0.260	-0.070	0.310	101.890	-1.400	0.700																			1580037216.0	0.50	0.93
26/01/2020 11:13:37	26012020	260120	111337	101.900	12.418777	-57.245022	101.810	0.120	-0.360	0.470	101.900	-1.600	0.800																			1580037217.0	0.34	0.63
26/01/2020 11:13:38	26012020	260120	111338	101.870	12.418777	-57.245020	101.750	-0.030	-0.560	0.800	101.850	-1.900	1.000																			1580037218.0	0.26	0.48
26/01/2020 11:13:39	26012020	260120	111339	101.750	12.418775	-57.245020	101.610	-0.180	-0.440	1.280	101.720	-1.900	1.500																			1580037219.0	0.44	0.81
26/01/2020 11:13:40	26012020	260120	111340	101.590	12.418772	-57.245022	101.500	-0.290	-0.090	1.650	101.570	-1.600	1.900																			1580037220.0	0.65	1.20
26/01/2020 11:13:41	26012020	260120	111341	101.540	12.418770	-57.245023	101.540	-0.300	0.230	1.670	101.550	-1.300	2.100																			1580037221.0	0.60	1.11
26/01/2020 11:13:42	26012020	260120	111342	101.640	12.418768	-57.245023	101.670	-0.220	0.330	1.400	101.670	-1.100	1.900																			1580037222.0	0.30	0.56
26/01/2020 11:13:43	26012020	260120	111343	101.820	12.418770	-57.245023	101.860	-0.100	0.290	0.900	101.860	-1.100	1.500																			1580037223.0	0.10	0.19
26/01/2020 11:13:44	26012020	260120	111344	102.010	12.418772	-57.245023	101.990	-0.040	0.160	0.320	102.040	-1.200	0.900																			1580037224.0	0.51	0.94
26/01/2020 11:13:45	26012020	260120	111345	102.090	12.418775	-57.245022	101.950	-0.020	-0.090	-0.140	102.080	-1.400	0.400																			1580037225.0	0.69	1.28
26/01/2020 11:13:46	26012020	260120	111346	102.000	12.418777	-57.245022	101.810	0.040	-0.420	-0.350	101.970	-1.700	0.100																			1580037226.0	0.56	1.04
26/01/2020 11:13:47	26012020	260120	111347	101.870	12.418778	-57.245020	101.620	0.180	-0.710	-0.250	101.830	-2.000	0.100																			1580037227.0	0.30	0.56
26/01/2020 11:13:48	26012020	260120	111348	101.610	12.418778	-57.245020	101.430	0.290	-0.790	0.080	101.570	-2.200	0.300																			1580037228.0	0.22	0.41
26/01/2020 11:13:49	26012020	260120	111349	101.480	12.418777	-57.245020	101.350	0.270	-0.490	0.410	101.460	-2.000	0.700																			1580037229.0	0.21	0.39
26/01/2020 11:13:50	26012020	260120	111350	101.420	12.418777	-57.245020	101.350	0.090	0.090	0.710	101.420	-1.500	1.000																			1580037230.0	0.26	0.48
26/01/2020 11:13:51	26012020	260120	111351	101.430	12.418777	-57.245022	101.370	-0.090	0.540	0.970	101.430	-1.000	1.300																			1580037231.0	0.44	0.81
26/01/2020 11:13:52	26012020	260120	111352	101.440	12.418775	-57.245023	101.400	-0.170	0.480	1.150	101.450	-0.800	1.500																			1580037232.0	0.28	0.52
26/01/2020 11:13:53	26012020	260120	111353	101.480	12.418773	-57.245022	101.450	-0.120	0.060	1.260	101.490	-1.100	1.600																			1580037233.0	0.34	0.63
26/01/2020 11:13:54	26012020	260120	111354	101.510	12.418773	-57.245020	101.500	-0.030	-0.250	1.270	101.530	-1.600	1.700																			1580037234.0	0.51	0.94
26/01/2020 11:13:55	26012020	260120	111355	101.610	12.418772	-57.245020	101.640	-0.000	-0.150	1.140	101.640	-1.600	1.600																			1580037235.0	0.18	0.33
26/01/2020 11:13:56	26012020	260120	111356	101.760	12.418773	-57.245022	101.760	-0.030	0.060	0.950	101.790	-1.400	1.400																			1580037236.0	0.32	0.59
26/01/2020 11:13:57	26012020	260120	111357	101.820	12.418773	-57.245023	101.730	-0.000	-0.020	0.800	101.810	-1.300	1.200																			1580037237.0	0.37	0.69
26/01/2020 11:13:58	26012020	260120	111358	101.730	12.418775	-57.245022	101.590	0.060	-0.360	0.650	101.710	-1.600	1.100																			1580037238.0	0.20	0.37
26/01/2020 11:13:59	26012020	260120	111359	101.570	12.418775	-57.245020	101.370	0.060	-0.610	0.580	101.530	-1.900	1.000																			1580037239.0	0.41	0.76
26/01/2020 11:14:00	26012020	260120	111400	101.340	12.418775	-57.245020	101.160	-0.030	-0.530	0.630	101.310	-2.000	1.000	1014.80	25.70	25.70	18.80	18.80	142.00	65.00	65.00	376.00	26.00	353.00	7.50	95.00	7.40	9760	3100.00	27.40	27.40	1580037240.0	0.25	0.46
26/01/2020 11:14:01	26012020	260120	111401	101.200	12.418775	-57.245020	101.130	-0.140	-0.210	0.640	101.190	-1.700	1.000																			1580037241.0	0.09	0.17
26/01/2020 11:14:02	26012020	260120	111402	101.260	12.418777	-57.245022	101.270	-0.170	0.120	0.530	101.290	-1.400	1.000																			1580037242.0	0.24	0.44
26/01/2020 11:14:03	26012020	260120	111403	101.440	12.418777	-57.245022	101.430	-0.090	0.270	0.320	101.480	-1.100	0.800																			1580037243.0	0.20	0.37
26/01/2020 11:14:04	26012020	260120	111404	101.590	12.418777	-57.245022	101.520	0.110	0.140	0.140	101.600	-1.200	0.600																			1580037244.0	0.16	0.30
26/01/2020 11:14:05	26012020	260120	111405	101.640	12.418778	-57.245020	101.550	0.300	-0.150	0.130	101.650	-1.400	0.500																			1580037245.0	0.36	0.67
26/01/2020 11:14:06	26012020	260120	111406	101.660	12.418778	-57.245018	101.590	0.360	-0.310	0.290	101.660	-1.700	0.600																			1580037246.0	0.40	0.74
26/01/2020 11:14:07	26012020	260120	111407	101.730	12.418778	-57.245017	101.720	0.230	-0.130	0.470	101.760	-1.600	0.800																			1580037247.0	0.13	0.24
26/01/2020 11:14:08	26012020	260120	111408	101.850	12.418778	-57.245018	101.810	-0.010	0.170	0.710	101.870	-1.300	1.000																			1580037248.0	0.31	0.57
26/01/2020 11:14:09	26012020	260120	111409	101.890	12.418778	-57.245022	101.810	-0.230	0.220	1.040	101.890	-1.100	1.300																			1580037249.0	0.44	0.81
26/01/2020 11:14:10	26012020	260120	111410	101.850	12.418775	-57.245022	101.780	-0.340	-0.060	1.420	101.850	-1.300	1.700																			1580037250.0	0.48	0.89
26/01/2020 11:14:11	26012020	260120	111411	101.830	12.418772	-57.245022	101.770	-0.300	-0.430	1.740	101.820	-1.700	2.000																			1580037251.0	0.74	1.37
26/01/2020 11:14:12	26012020	260120	111412	101.790	12.418768	-57.245020	101.750	-0.150	-0.610	1.840	101.790	-1.900	2.200																			1580037252.0	0.78	1.44
26/01/2020 11:14:13	26012020	260120	111413	101.780	12.418767	-57.245020	101.760	0.060	-0.430	1.580	101.790	-1.900	2.100																			1580037253.0	0.41	0.76
26/01/2020 11:14:14	26012020	260120	111414	101.850	12.418768	-57.245022	101.880	0.230	-0.000	0.940	101.880	-1.600	1.600																			1580037254.0	0.32	0.59
26/01/2020 11:14:15	26012020	260120	111415	102.020	12.418773	-57.245022	102.050	0.310	0.290	0.110	102.060	-1.200	0.800																			1580037255.0	1.04	1.93
26/01/2020 11:14:16	26012020	260120	111416	102.210	12.418778	-57.245022	102.190	0.270	0.170	-0.580	102.230	-1.100	0.100																			1580037256.0	1.32	2.44
26/01/2020 11:14:17	26012020	260120	111417	102.280	12.418783	-57.245020	102.170	0.150	-0.220	-0.800	102.280	-1.400	-0.400																			1580037257.0	1.00	1.85
26/01/2020 11:14:18	26012020	260120	111418	102.200	12.418783	-57.245018	102.030	0.020	-0.510	-0.530	102.160	-1.800	-0.300																			1580037258.0	0.46	0.85
26/01/2020 11:14:19	26012020	260120	111419	102.030	12.418782	-57.245017	101.890	-0.100	-0.430	0.000	102.000	-1.900	0.200																			1580037259.0	0.47	0.87
26/01/2020 11:14:20	26012020	260120	111420	101.910	12.418778	-57.245018	101.820	-0.190	-0.070	0.610	101.890	-1.600	0.800																			1580037260.0	0.75	1.39
26/01/2020 11:14:21	26012020	260120	111421	101.870	12.418775	-57.245020	101.870	-0.250	0.310	1.080	101.880	-1.200	1.300																			1580037261.0	0.84	1.56
26/01/2020 11:14:22	26012020	260120	111422	101.970	12.418773	-57.245023	102.050	-0.260	0.410	1.350	102.000	-1.000	1.700																			1580037262.0	0.67	1.24
26/01/2020 11:14:23	26012020	260120	111423	102.180	12.418772	-57.245023	102.270	-0.200	0.180	1.440	102.230	-1.100	1.800																			1580037263.0	0.41	0.76
26/01/2020 11:14:24	26012020	260120	111424	102.380	12.418770	-57.245023	102.400	-0.090	-0.210	1.440	102.400	-1.400	1.800																			1580037264.0	0.30	0.56
26/01/2020 11:14:25	26012020	260120	111425	102.440	12.418770	-57.245022	102.380	0.020	-0.500	1.380	102.440	-1.800	1.800																			1580037265.0	0.30	0.56
26/01/2020 11:14:26	26012020	260120	111426	102.380	12.418768	-57.245022	102.310	0.080	-0.450	1.240	102.370	-1.900	1.700																			1580037266.0	0.11	0.20
26/01/2020 11:14:27	26012020	260120	111427	102.310	12.418770	-57.245023	102.200	0.120	-0.240	1.010	102.290	-1.700	1.500																			1580037267.0	0.24	0.44
26/01/2020 11:14:28	26012020	260120	111428	102.170	12.418772	-57.245023	102.020	0.220	-0.220	0.740	102.140	-1.600	1.300																			1580037268.0	0.34	0.63
26/01/2020 11:14:29	26012020	260120	111429	101.980	12.418773	-57.245023	101.840	0.350	-0.310	0.390	101.940	-1.700	0.900																			1580037269.0	0.50	0.93
26/01/2020 11:14:30	26012020	260120	111430	101.880	12.418775	-57.245020	101.830	0.330	-0.180	-0.020	101.880	-1.700	0.500																			1580037270.0	0.72	1.33
26/01/2020 11:14:31	26012020	260120	111431	101.950	12.418778	-57.245020	101.980	0.100	0.150	-0.310	101.990	-1.400	0.200																			1580037271.0	0.64	1.19
26/01/2020 11:14:32	26012020	260120	111432	102.140	12.418780	-57.245022	102.160	-0.210	0.380	-0.350	102.170	-1.100	0.000																			1580037272.0	0.42	0.78
26/01/2020 11:14:33	26012020	260120	111433	102.290	12.418780	-57.245023	102.240	-0.400	0.300	-0.070	102.310	-1.000	0.200																			1580037273.0	0.27	0.50
26/01/2020 11:14:34	26012020	260120	111434	102.290	12.418777	-57.245023	102.160	-0.380	-0.080	0.490	102.270	-1.300	0.600																			1580037274.0	0.60	1.11
26/01/2020 11:14:35	26012020	260120	111435	102.150	12.418773	-57.245023	102.020	-0.190	-0.440	1.140	102.110	-1.700	1.300																			1580037275.0	0.96	1.78
26/01/2020 11:14:36	26012020	260120	111436	102.030	12.418768	-57.245022	101.980	0.030	-0.480	1.610	102.010	-1.900	1.800																			1580037276.0	0.90	1.67
26/01/2020 11:14:37	26012020	260120	111437	102.030	12.418767	-57.245023	102.080	0.140	-0.220	1.760	102.050	-1.700	2.100																			1580037277.0	0.56	1.04
26/01/2020 11:14:38	26012020	260120	111438	102.180	12.418765	-57.245025	102.190	0.110	0.080	1.620	102.210	-1.400	2.100																			1580037278.0	0.38	0.70
26/01/2020 11:14:39	26012020	260120	111439	102.260	12.418767	-57.245027	102.210	0.030	0.110	1.310	102.260	-1.200	1.800																			1580037279.0	0.37	0.69
26/01/2020 11:14:40	26012020	260120	111440	102.240	12.418770	-57.245025	102.170	0.030	-0.120	0.930	102.240	-1.400	1.500																			1580037280.0	0.51	0.94
26/01/2020 11:14:41	26012020	260120	111441	102.200	12.418772	-57.245023	102.100	0.070	-0.350	0.650	102.180	-1.700	1.100																			1580037281.0	0.64	1.19
26/01/2020 11:14:42	26012020	260120	111442	102.120	12.418773	-57.245022	102.020	0.030	-0.390	0.510	102.110	-1.800	1.000																			1580037282.0	0.35	0.65
26/01/2020 11:14:43	26012020	260120	111443	102.080	12.418772	-57.245022	102.040	-0.070	-0.230	0.360	102.090	-1.700	0.800																			1580037283.0	0.10	0.19
26/01/2020 11:14:44	26012020	260120	111444	102.140	12.418772	-57.245023	102.130	-0.160	0.010	0.170	102.160	-1.500	0.600																			1580037284.0	0.24	0.44
26/01/2020 11:14:45	26012020	260120	111445	102.230	12.418772	-57.245025	102.180	-0.100	0.160	0.090	102.230	-1.300	0.500																			1580037285.0	0.22	0.41
26/01/2020 11:14:46	26012020	260120	111446	102.240	12.418772	-57.245025	102.160	0.130	0.130	0.100	102.230	-1.200	0.500																			1580037286.0	0.08	0.15
26/01/2020 11:14:47	26012020	260120	111447	102.240	12.418773	-57.245023	102.210	0.370	0.010	0.080	102.260	-1.300	0.500																			1580037287.0	0.23	0.43
26/01/2020 11:14:48	26012020	260120	111448	102.340	12.418773	-57.245023	102.350	0.400	-0.090	0.140	102.370	-1.400	0.500																			1580037288.0	0.32	0.59
26/01/2020 11:14:49	26012020	260120	111449	102.470	12.418775	-57.245023	102.440	0.180	-0.150	0.420	102.490	-1.500	0.700																			1580037289.0	0.11	0.20
26/01/2020 11:14:50	26012020	260120	111450	102.510	12.418773	-57.245023	102.480	-0.180	-0.160	0.890	102.510	-1.500	1.100																			1580037290.0	0.23	0.43
26/01/2020 11:14:51	26012020	260120	111451	102.550	12.418772	-57.245025	102.560	-0.490	-0.150	1.410	102.570	-1.500	1.600																			1580037291.0	0.60	1.11
26/01/2020 11:14:52	26012020	260120	111452	102.630	12.418767	-57.245027	102.610	-0.590	-0.220	1.940	102.640	-1.600	2.100																			1580037292.0	0.97	1.80
26/01/2020 11:14:53	26012020	260120	111453	102.620	12.418762	-57.245028	102.540	-0.400	-0.390	2.290	102.600	-1.700	2.600																			1580037293.0	1.12	2.07
26/01/2020 11:14:54	26012020	260120	111454	102.500	12.418758	-57.245027	102.400	-0.040	-0.510	2.260	102.480	-1.900	2.700																			1580037294.0	0.81	1.50
26/01/2020 11:14:55	26012020	260120	111455	102.370	12.418757	-57.245027	102.290	0.290	-0.400	1.840	102.340	-1.900	2.500																			1580037295.0	0.28	0.52
26/01/2020 11:14:56	26012020	260120	111456	102.340	12.418760	-57.245027	102.350	0.460	0.020	1.020	102.350	-1.600	1.800																			1580037296.0	0.58	1.07
26/01/2020 11:14:57	26012020	260120	111457	102.500	12.418765	-57.245027	102.570	0.420	0.530	-0.020	102.550	-1.000	0.800																			1580037297.0	1.28	2.37
26/01/2020 11:14:58	26012020	260120	111458	102.760	12.418773	-57.245027	102.790	0.270	0.700	-0.930	102.810	-0.700	-0.200																			1580037298.0	1.62	3.00
26/01/2020 11:14:59	26012020	260120	111459	102.940	12.418780	-57.245027	102.880	0.120	0.320	-1.360	102.960	-0.900	-0.900																			1580037299.0	1.31	2.43
26/01/2020 11:15:00	26012020	260120	111500	102.960	12.418782	-57.245025	102.850	-0.010	-0.280	-1.180	102.960	-1.400	-0.900	1014.80	25.70	25.80	18.60	18.70	143.00	64.00	64.00	376.00	26.00	354.00	7.90	96.00	7.70	9945	3148.00	27.40	27.40	1580037300.0	0.60	1.11
26/01/2020 11:15:01	26012020	260120	111501	102.920	12.418778	-57.245023	102.830	-0.170	-0.620	-0.450	102.910	-1.900	-0.400																			1580037301.0	0.51	0.94
26/01/2020 11:15:02	26012020	260120	111502	102.880	12.418773	-57.245025	102.790	-0.320	-0.660	0.640	102.870	-2.000	0.600																			1580037302.0	1.17	2.17
26/01/2020 11:15:03	26012020	260120	111503	102.820	12.418767	-57.245027	102.690	-0.330	-0.640	1.800	102.800	-2.000	1.700																			1580037303.0	1.66	3.07
26/01/2020 11:15:04	26012020	260120	111504	102.630	12.418758	-57.245028	102.500	-0.180	-0.580	2.710	102.590	-2.000	2.800																			1580037304.0	1.62	3.00
26/01/2020 11:15:05	26012020	260120	111505	102.430	12.418753	-57.245028	102.360	-0.020	-0.280	3.190	102.400	-1.800	3.400																			1580037305.0	1.16	2.15
26/01/2020 11:15:06	26012020	260120	111506	102.350	12.418752	-57.245030	102.360	0.000	0.240	3.050	102.350	-1.400	3.600																			1580037306.0	0.53	0.98
26/01/2020 11:15:07	26012020	260120	111507	102.430	12.418753	-57.245032	102.500	-0.060	0.650	2.250	102.460	-0.900	3.000																			1580037307.0	0.42	0.78
26/01/2020 11:15:08	26012020	260120	111508	102.650	12.418758	-57.245032	102.740	-0.020	0.650	1.000	102.710	-0.700	1.900																			1580037308.0	1.07	1.98
26/01/2020 11:15:09	26012020	260120	111509	102.890	12.418765	-57.245030	102.880	0.210	0.230	-0.220	102.920	-1.000	0.600																			1580037309.0	1.45	2.69
26/01/2020 11:15:10	26012020	260120	111510	102.960	12.418770	-57.245027	102.850	0.470	-0.300	-1.100	102.960	-1.500	-0.400																			1580037310.0	1.52	2.82
26/01/2020 11:15:11	26012020	260120	111511	102.930	12.418775	-57.245023	102.830	0.510	-0.600	-1.550	102.930	-1.900	-1.000																			1580037311.0	1.28	2.37
26/01/2020 11:15:12	26012020	260120	111512	102.930	12.418778	-57.245022	102.830	0.270	-0.590	-1.420	102.930	-2.000	-1.200																			1580037312.0	0.64	1.19
26/01/2020 11:15:13	26012020	260120	111513	102.880	12.418778	-57.245023	102.710	-0.100	-0.420	-0.630	102.850	-1.900	-0.600																			1580037313.0	0.30	0.56
26/01/2020 11:15:14	26012020	260120	111514	102.680	12.418773	-57.245025	102.530	-0.420	-0.170	0.550	102.650	-1.700	0.500																			1580037314.0	1.11	2.06
26/01/2020 11:15:15	26012020	260120	111515	102.530	12.418767	-57.245028	102.430	-0.570	0.060	1.670	102.510	-1.400	1.600																			1580037315.0	1.53	2.83
26/01/2020 11:15:16	26012020	260120	111516	102.460	12.418760	-57.245030	102.480	-0.520	0.070	2.470	102.460	-1.300	2.600																			1580037316.0	1.45	2.69
26/01/2020 11:15:17	26012020	260120	111517	102.540	12.418755	-57.245030	102.590	-0.290	-0.070	2.880	102.560	-1.400	3.200																			1580037317.0	1.11	2.06
26/01/2020 11:15:18	26012020	260120	111518	102.680	12.418752	-57.245030	102.740	-0.030	-0.120	2.840	102.710	-1.500	3.300																			1580037318.0	0.72	1.33
26/01/2020 11:15:19	26012020	260120	111519	102.790	12.418752	-57.245030	102.800	0.180	0.020	2.380	102.810	-1.400	3.000																			1580037319.0	0.14	0.26
26/01/2020 11:15:20	26012020	260120	111520	102.840	12.418753	-57.245030	102.800	0.320	0.160	1.560	102.840	-1.300	2.300																			1580037320.0	0.56	1.04
26/01/2020 11:15:21	26012020	260120	111521	102.830	12.418758	-57.245028	102.740	0.420	0.050	0.580	102.820	-1.300	1.400																			1580037321.0	1.15	2.13
26/01/2020 11:15:22	26012020	260120	111522	102.770	12.418765	-57.245027	102.660	0.480	-0.260	-0.360	102.750	-1.500	0.400																			1580037322.0	1.49	2.76
26/01/2020 11:15:23	26012020	260120	111523	102.710	12.418772	-57.245025	102.590	0.410	-0.480	-1.060	102.700	-1.800	-0.400																			1580037323.0	1.48	2.74
26/01/2020 11:15:24	26012020	260120	111524	102.670	12.418777	-57.245022	102.570	0.180	-0.470	-1.300	102.660	-1.900	-0.900																			1580037324.0	1.01	1.87
26/01/2020 11:15:25	26012020	260120	111525	102.650	12.418777	-57.245022	102.570	-0.140	-0.270	-1.060	102.650	-1.700	-0.800																			1580037325.0	0.25	0.46
26/01/2020 11:15:26	26012020	260120	111526	102.660	12.418775	-57.245023	102.600	-0.410	-0.010	-0.350	102.670	-1.500	-0.300																			1580037326.0	0.51	0.94
26/01/2020 11:15:27	26012020	260120	111527	102.670	12.418770	-57.245025	102.620	-0.510	0.180	0.600	102.680	-1.300	0.600																			1580037327.0	1.10	2.04
26/01/2020 11:15:28	26012020	260120	111528	102.670	12.418765	-57.245027	102.610	-0.420	0.190	1.550	102.660	-1.200	1.600																			1580037328.0	1.36	2.52
26/01/2020 11:15:29	26012020	260120	111529	102.620	12.418758	-57.245028	102.580	-0.180	0.000	2.240	102.620	-1.300	2.400																			1580037329.0	1.23	2.28
26/01/2020 11:15:30	26012020	260120	111530	102.570	12.418755	-57.245027	102.540	0.080	-0.200	2.570	102.560	-1.500	2.900																			1580037330.0	0.81	1.50
26/01/2020 11:15:31	26012020	260120	111531	102.550	12.418753	-57.245027	102.570	0.210	-0.190	2.470	102.550	-1.600	2.900																			1580037331.0	0.29	0.54
26/01/2020 11:15:32	26012020	260120	111532	102.650	12.418755	-57.245027	102.730	0.200	-0.000	1.970	102.680	-1.500	2.600																			1580037332.0	0.35	0.65
26/01/2020 11:15:33	26012020	260120	111533	102.840	12.418758	-57.245027	102.910	0.120	0.100	1.220	102.880	-1.300	1.900																			1580037333.0	0.77	1.43
26/01/2020 11:15:34	26012020	260120	111534	102.980	12.418763	-57.245027	102.930	0.060	-0.040	0.500	102.990	-1.300	1.200																			1580037334.0	0.94	1.74
26/01/2020 11:15:35	26012020	260120	111535	102.930	12.418767	-57.245025	102.800	0.020	-0.350	-0.010	102.900	-1.600	0.600																			1580037335.0	0.84	1.56
26/01/2020 11:15:36	26012020	260120	111536	102.780	12.418770	-57.245023	102.630	-0.020	-0.500	-0.290	102.740	-1.900	0.200																			1580037336.0	0.61	1.13
26/01/2020 11:15:37	26012020	260120	111537	102.630	12.418770	-57.245023	102.510	-0.030	-0.400	-0.350	102.610	-1.900	0.100																			1580037337.0	0.27	0.50
26/01/2020 11:15:38	26012020	260120	111538	102.530	12.418770	-57.245023	102.420	0.060	-0.290	-0.250	102.510	-1.700	0.100																			1580037338.0	0.08	0.15
26/01/2020 11:15:39	26012020	260120	111539	102.450	12.418770	-57.245023	102.390	0.220	-0.230	-0.030	102.450	-1.600	0.300																			1580037339.0	0.16	0.30
26/01/2020 11:15:40	26012020	260120	111540	102.490	12.418768	-57.245022	102.520	0.250	-0.040	0.180	102.510	-1.500	0.500																			1580037340.0	0.26	0.48
26/01/2020 11:15:41	26012020	260120	111541	102.660	12.418768	-57.245022	102.710	0.050	0.270	0.480	102.700	-1.200	0.700																			1580037341.0	0.15	0.28
26/01/2020 11:15:42	26012020	260120	111542	102.840	12.418767	-57.245023	102.840	-0.240	0.500	0.860	102.860	-1.000	1.100																			1580037342.0	0.38	0.70
26/01/2020 11:15:43	26012020	260120	111543	102.940	12.418765	-57.245025	102.900	-0.420	0.400	1.260	102.950	-0.900	1.500																			1580037343.0	0.51	0.94
26/01/2020 11:15:44	26012020	260120	111544	102.940	12.418763	-57.245025	102.850	-0.330	-0.060	1.640	102.930	-1.200	1.900																			1580037344.0	0.51	0.94
26/01/2020 11:15:45	26012020	260120	111545	102.830	12.418760	-57.245023	102.710	-0.110	-0.540	1.930	102.790	-1.800	2.200																			1580037345.0	0.59	1.09
26/01/2020 11:15:46	26012020	260120	111546	102.660	12.418758	-57.245022	102.550	0.050	-0.670	1.970	102.630	-2.100	2.400																			1580037346.0	0.44	0.81
26/01/2020 11:15:47	26012020	260120	111547	102.530	12.418758	-57.245022	102.460	0.110	-0.480	1.720	102.510	-2.000	2.200																			1580037347.0	0.05	0.09
26/01/2020 11:15:48	26012020	260120	111548	102.500	12.418762	-57.245023	102.520	0.110	-0.180	1.190	102.520	-1.700	1.800																			1580037348.0	0.48	0.89
26/01/2020 11:15:49	26012020	260120	111549	102.670	12.418765	-57.245023	102.760	0.060	0.170	0.520	102.720	-1.400	1.200																			1580037349.0	0.75	1.39
26/01/2020 11:15:50	26012020	260120	111550	102.940	12.418768	-57.245023	103.010	-0.030	0.460	-0.120	103.000	-1.000	0.500																			1580037350.0	0.77	1.43
26/01/2020 11:15:51	26012020	260120	111551	103.120	12.418772	-57.245023	103.080	-0.070	0.410	-0.560	103.140	-0.900	-0.000																			1580037351.0	0.62	1.15
26/01/2020 11:15:52	26012020	260120	111552	103.090	12.418773	-57.245023	102.870	0.080	-0.110	-0.590	103.050	-1.300	-0.200																			1580037352.0	0.34	0.63
26/01/2020 11:15:53	26012020	260120	111553	102.810	12.418772	-57.245020	102.570	0.360	-0.830	-0.260	102.740	-1.900	-0.000																			1580037353.0	0.53	0.98
26/01/2020 11:15:54	26012020	260120	111554	102.540	12.418772	-57.245018	102.410	0.500	-1.140	0.180	102.510	-2.500	0.400																			1580037354.0	0.74	1.37
26/01/2020 11:15:55	26012020	260120	111555	102.480	12.418770	-57.245017	102.450	0.300	-0.710	0.620	102.490	-2.300	0.800																			1580037355.0	0.38	0.70
26/01/2020 11:15:56	26012020	260120	111556	102.550	12.418768	-57.245018	102.530	-0.170	0.130	1.050	102.560	-1.600	1.300																			1580037356.0	0.49	0.91
26/01/2020 11:15:57	26012020	260120	111557	102.610	12.418767	-57.245022	102.590	-0.630	0.750	1.390	102.620	-0.800	1.700																			1580037357.0	0.75	1.39
26/01/2020 11:15:58	26012020	260120	111558	102.660	12.418765	-57.245023	102.650	-0.840	0.810	1.570	102.670	-0.500	1.900																			1580037358.0	0.57	1.06
26/01/2020 11:15:59	26012020	260120	111559	102.750	12.418763	-57.245023	102.770	-0.670	0.410	1.570	102.770	-0.800	2.000																			1580037359.0	0.50	0.93
26/01/2020 11:16:00	26012020	260120	111600	102.850	12.418762	-57.245022	102.850	-0.230	-0.080	1.460	102.870	-1.300	1.900	1014.80	25.70	25.80	18.30	18.40	146.00	63.00	63.00	376.00	26.00	355.00	7.50	98.00	7.10	10150	3150.00	27.40	27.40	1580037360.0	0.59	1.09
26/01/2020 11:16:01	26012020	260120	111601	102.920	12.418760	-57.245020	102.910	0.240	-0.310	1.150	102.930	-1.600	1.700																			1580037361.0	0.36	0.67
26/01/2020 11:16:02	26012020	260120	111602	103.000	12.418762	-57.245020	102.980	0.520	-0.270	0.630	103.020	-1.700	1.200																			1580037362.0	0.37	0.69
26/01/2020 11:16:03	26012020	260120	111603	103.060	12.418767	-57.245022	102.960	0.600	-0.260	0.060	103.060	-1.600	0.700																			1580037363.0	0.83	1.54
26/01/2020 11:16:04	26012020	260120	111604	103.000	12.418770	-57.245022	102.840	0.580	-0.410	-0.350	102.970	-1.700	0.200																			1580037364.0	0.97	1.80
26/01/2020 11:16:05	26012020	260120	111605	102.880	12.418775	-57.245020	102.670	0.510	-0.650	-0.450	102.850	-1.900	-0.100																			1580037365.0	0.89	1.65
26/01/2020 11:16:06	26012020	260120	111606	102.650	12.418777	-57.245018	102.430	0.350	-0.780	-0.170	102.600	-2.100	0.100																			1580037366.0	0.61	1.13
26/01/2020 11:16:07	26012020	260120	111607	102.400	12.418777	-57.245017	102.280	0.020	-0.610	0.330	102.370	-2.100	0.500																			1580037367.0	0.29	0.54
26/01/2020 11:16:08	26012020	260120	111608	102.320	12.418773	-57.245017	102.310	-0.500	-0.080	0.880	102.330	-1.700	1.000																			1580037368.0	0.51	0.94
26/01/2020 11:16:09	26012020	260120	111609	102.440	12.418770	-57.245018	102.490	-0.990	0.550	1.410	102.480	-1.100	1.600																			1580037369.0	1.02	1.89
26/01/2020 11:16:10	26012020	260120	111610	102.650	12.418763	-57.245022	102.710	-1.150	0.940	1.780	102.690	-0.600	2.000																			1580037370.0	1.39	2.57
26/01/2020 11:16:11	26012020	260120	111611	102.840	12.418758	-57.245025	102.850	-0.780	0.830	1.820	102.870	-0.400	2.200																			1580037371.0	1.24	2.30
26/01/2020 11:16:12	26012020	260120	111612	102.940	12.418757	-57.245023	102.890	0.000	0.280	1.490	102.950	-0.900	2.000																			1580037372.0	0.59	1.09
26/01/2020 11:16:13	26012020	260120	111613	102.990	12.418757	-57.245022	102.940	0.790	-0.380	0.830	103.000	-1.500	1.500																			1580037373.0	0.62	1.15
26/01/2020 11:16:14	26012020	260120	111614	103.070	12.418762	-57.245018	103.010	1.180	-0.720	0.020	103.080	-2.000	0.700																			1580037374.0	1.29	2.39
26/01/2020 11:16:15	26012020	260120	111615	103.090	12.418770	-57.245017	102.950	1.060	-0.650	-0.560	103.080	-2.100	0.000																			1580037375.0	1.60	2.96
26/01/2020 11:16:16	26012020	260120	111616	102.980	12.418777	-57.245017	102.790	0.580	-0.420	-0.700	102.940	-1.900	-0.300																			1580037376.0	1.36	2.52
26/01/2020 11:16:17	26012020	260120	111617	102.830	12.418778	-57.245018	102.630	0.030	-0.260	-0.390	102.800	-1.700	-0.200																			1580037377.0	0.67	1.24
26/01/2020 11:16:18	26012020	260120	111618	102.640	12.418778	-57.245018	102.490	-0.400	-0.210	0.300	102.610	-1.600	0.400																			1580037378.0	0.33	0.61
26/01/2020 11:16:19	26012020	260120	111619	102.520	12.418773	-57.245020	102.400	-0.600	-0.170	1.160	102.500	-1.600	1.200																			1580037379.0	1.03	1.91
26/01/2020 11:16:20	26012020	260120	111620	102.440	12.418767	-57.245020	102.410	-0.630	-0.090	1.830	102.450	-1.500	2.000																			1580037380.0	1.37	2.54
26/01/2020 11:16:21	26012020	260120	111621	102.490	12.418760	-57.245022	102.480	-0.510	0.020	2.140	102.500	-1.400	2.400																			1580037381.0	1.29	2.39
26/01/2020 11:16:22	26012020	260120	111622	102.580	12.418757	-57.245022	102.600	-0.260	0.110	2.050	102.600	-1.300	2.500																			1580037382.0	0.85	1.57
26/01/2020 11:16:23	26012020	260120	111623	102.710	12.418755	-57.245022	102.740	0.030	0.170	1.560	102.740	-1.200	2.200																			1580037383.0	0.19	0.35
26/01/2020 11:16:24	26012020	260120	111624	102.880	12.418758	-57.245022	102.890	0.280	0.220	0.770	102.910	-1.200	1.500																			1580037384.0	0.58	1.07
26/01/2020 11:16:25	26012020	260120	111625	103.020	12.418763	-57.245020	102.970	0.390	0.190	-0.110	103.040	-1.200	0.600																			1580037385.0	1.17	2.17
26/01/2020 11:16:26	26012020	260120	111626	103.070	12.418770	-57.245020	102.950	0.370	0.050	-0.810	103.060	-1.300	-0.200																			1580037386.0	1.35	2.50
26/01/2020 11:16:27	26012020	260120	111627	103.020	12.418775	-57.245018	102.900	0.250	-0.210	-1.060	103.020	-1.500	-0.600																			1580037387.0	1.09	2.02
26/01/2020 11:16:28	26012020	260120	111628	102.980	12.418777	-57.245018	102.880	0.120	-0.490	-0.790	102.980	-1.800	-0.600																			1580037388.0	0.43	0.80
26/01/2020 11:16:29	26012020	260120	111629	102.960	12.418775	-57.245018	102.870	0.000	-0.640	-0.140	102.960	-2.000	-0.000																			1580037389.0	0.33	0.61
26/01/2020 11:16:30	26012020	260120	111630	102.890	12.418772	-57.245018	102.730	-0.090	-0.600	0.790	102.860	-2.000	0.800																			1580037390.0	0.86	1.59
26/01/2020 11:16:31	26012020	260120	111631	102.670	12.418767	-57.245020	102.510	-0.150	-0.410	1.720	102.620	-1.900	1.800																			1580037391.0	1.24	2.30
26/01/2020 11:16:32	26012020	260120	111632	102.480	12.418760	-57.245022	102.440	-0.150	-0.070	2.280	102.460	-1.600	2.500																			1580037392.0	1.22	2.26
26/01/2020 11:16:33	26012020	260120	111633	102.480	12.418757	-57.245023	102.520	-0.040	0.210	2.370	102.490	-1.300	2.800																			1580037393.0	0.78	1.44
26/01/2020 11:16:34	26012020	260120	111634	102.600	12.418757	-57.245023	102.690	0.130	0.230	2.030	102.630	-1.100	2.600																			1580037394.0	0.13	0.24
26/01/2020 11:16:35	26012020	260120	111635	102.780	12.418758	-57.245022	102.840	0.220	0.100	1.350	102.810	-1.200	2.000																			1580037395.0	0.54	1.00
26/01/2020 11:16:36	26012020	260120	111636	102.940	12.418763	-57.245020	102.990	0.130	0.110	0.540	102.980	-1.300	1.300																			1580037396.0	0.94	1.74
26/01/2020 11:16:37	26012020	260120	111637	103.090	12.418768	-57.245020	103.110	-0.120	0.240	-0.190	103.120	-1.200	0.500																			1580037397.0	1.03	1.91
26/01/2020 11:16:38	26012020	260120	111638	103.220	12.418772	-57.245022	103.190	-0.320	0.240	-0.650	103.230	-1.100	-0.100																			1580037398.0	0.82	1.52
26/01/2020 11:16:39	26012020	260120	111639	103.280	12.418773	-57.245022	103.190	-0.300	-0.060	-0.700	103.280	-1.300	-0.300																			1580037399.0	0.33	0.61
26/01/2020 11:16:40	26012020	260120	111640	103.210	12.418772	-57.245022	103.070	-0.060	-0.510	-0.410	103.180	-1.700	-0.200																			1580037400.0	0.21	0.39
26/01/2020 11:16:41	26012020	260120	111641	103.050	12.418770	-57.245020	102.910	0.180	-0.800	0.070	103.010	-2.100	0.300																			1580037401.0	0.52	0.96
26/01/2020 11:16:42	26012020	260120	111642	102.920	12.418767	-57.245020	102.840	0.250	-0.690	0.600	102.900	-2.200	0.800																			1580037402.0	0.48	0.89
26/01/2020 11:16:43	26012020	260120	111643	102.880	12.418765	-57.245022	102.860	0.160	-0.290	1.110	102.880	-1.900	1.300																			1580037403.0	0.51	0.94
26/01/2020 11:16:44	26012020	260120	111644	102.920	12.418763	-57.245025	102.930	0.050	0.070	1.460	102.930	-1.400	1.700																			1580037404.0	0.59	1.09
26/01/2020 11:16:45	26012020	260120	111645	102.980	12.418762	-57.245025	102.960	0.040	0.170	1.700	102.980	-1.200	2.000																			1580037405.0	0.46	0.85
26/01/2020 11:16:46	26012020	260120	111646	102.950	12.418760	-57.245025	102.900	0.110	0.110	1.830	102.940	-1.200	2.200																			1580037406.0	0.33	0.61
26/01/2020 11:16:47	26012020	260120	111647	102.890	12.418760	-57.245025	102.880	0.120	0.070	1.720	102.880	-1.300	2.200																			1580037407.0	0.21	0.39
26/01/2020 11:16:48	26012020	260120	111648	102.930	12.418760	-57.245023	102.980	0.020	0.080	1.320	102.950	-1.300	1.900																			1580037408.0	0.24	0.44
26/01/2020 11:16:49	26012020	260120	111649	103.070	12.418763	-57.245023	103.130	-0.150	0.110	0.780	103.100	-1.300	1.400																			1580037409.0	0.50	0.93
26/01/2020 11:16:50	26012020	260120	111650	103.220	12.418767	-57.245023	103.250	-0.260	0.070	0.280	103.250	-1.300	0.900																			1580037410.0	0.60	1.11
26/01/2020 11:16:51	26012020	260120	111651	103.340	12.418768	-57.245025	103.310	-0.230	-0.040	-0.020	103.350	-1.400	0.500																			1580037411.0	0.46	0.85
26/01/2020 11:16:52	26012020	260120	111652	103.350	12.418768	-57.245025	103.240	-0.090	-0.220	-0.080	103.330	-1.500	0.300																			1580037412.0	0.19	0.35
26/01/2020 11:16:53	26012020	260120	111653	103.230	12.418768	-57.245025	103.060	0.090	-0.450	0.070	103.190	-1.700	0.400																			1580037413.0	0.03	0.06
26/01/2020 11:16:54	26012020	260120	111654	103.020	12.418768	-57.245023	102.870	0.190	-0.640	0.370	102.980	-2.000	0.600																			1580037414.0	0.20	0.37
26/01/2020 11:16:55	26012020	260120	111655	102.880	12.418767	-57.245023	102.770	0.140	-0.570	0.700	102.850	-2.000	1.000																			1580037415.0	0.27	0.50
26/01/2020 11:16:56	26012020	260120	111656	102.790	12.418767	-57.245023	102.760	-0.050	-0.190	1.060	102.790	-1.700	1.300																			1580037416.0	0.24	0.44
26/01/2020 11:16:57	26012020	260120	111657	102.820	12.418765	-57.245025	102.840	-0.270	0.270	1.360	102.830	-1.300	1.600																			1580037417.0	0.50	0.93
26/01/2020 11:16:58	26012020	260120	111658	102.920	12.418762	-57.245027	102.960	-0.360	0.530	1.460	102.940	-0.900	1.800																			1580037418.0	0.63	1.17
26/01/2020 11:16:59	26012020	260120	111659	103.020	12.418760	-57.245028	103.020	-0.210	0.380	1.400	103.020	-0.900	1.800																			1580037419.0	0.43	0.80
26/01/2020 11:17:00	26012020	260120	111700	103.020	12.418760	-57.245028	102.980	0.130	-0.060	1.230	103.010	-1.200	1.700	1014.80	25.80	25.80	18.70	18.80	147.00	65.00	65.00	375.00	26.00	351.00	7.60	94.00	7.30	10341	3106.00	27.40	27.40	1580037420.0	0.26	0.48
26/01/2020 11:17:01	26012020	260120	111701	102.960	12.418760	-57.245025	102.910	0.460	-0.430	0.930	102.950	-1.700	1.500																			1580037421.0	0.48	0.89
26/01/2020 11:17:02	26012020	260120	111702	102.910	12.418763	-57.245023	102.860	0.570	-0.500	0.580	102.900	-1.900	1.100																			1580037422.0	0.69	1.28
26/01/2020 11:17:03	26012020	260120	111703	102.870	12.418767	-57.245023	102.790	0.420	-0.320	0.250	102.850	-1.800	0.800																			1580037423.0	0.84	1.56
26/01/2020 11:17:04	26012020	260120	111704	102.820	12.418770	-57.245023	102.760	0.130	-0.080	0.090	102.820	-1.500	0.500																			1580037424.0	0.83	1.54
26/01/2020 11:17:05	26012020	260120	111705	102.820	12.418773	-57.245023	102.760	-0.160	0.020	0.190	102.820	-1.400	0.500																			1580037425.0	0.49	0.91
26/01/2020 11:17:06	26012020	260120	111706	102.820	12.418773	-57.245023	102.790	-0.430	-0.000	0.480	102.830	-1.400	0.700																			1580037426.0	0.07	0.13
26/01/2020 11:17:07	26012020	260120	111707	102.850	12.418770	-57.245023	102.840	-0.660	-0.000	0.920	102.860	-1.400	1.100																			1580037427.0	0.58	1.07
26/01/2020 11:17:08	26012020	260120	111708	102.890	12.418765	-57.245025	102.850	-0.750	0.040	1.430	102.880	-1.300	1.600																			1580037428.0	1.02	1.89
26/01/2020 11:17:09	26012020	260120	111709	102.870	12.418760	-57.245027	102.810	-0.520	-0.010	1.760	102.850	-1.300	2.100																			1580037429.0	1.11	2.06
26/01/2020 11:17:10	26012020	260120	111710	102.790	12.418758	-57.245027	102.750	-0.010	-0.220	1.700	102.790	-1.500	2.200																			1580037430.0	0.65	1.20
26/01/2020 11:17:11	26012020	260120	111711	102.770	12.418758	-57.245025	102.750	0.490	-0.420	1.310	102.770	-1.700	1.900																			1580037431.0	0.29	0.54
26/01/2020 11:17:12	26012020	260120	111712	102.770	12.418760	-57.245023	102.750	0.720	-0.460	0.790	102.770	-1.800	1.400																			1580037432.0	0.75	1.39
26/01/2020 11:17:13	26012020	260120	111713	102.780	12.418765	-57.245022	102.760	0.630	-0.310	0.280	102.790	-1.800	0.900																			1580037433.0	1.01	1.87
26/01/2020 11:17:14	26012020	260120	111714	102.800	12.418770	-57.245022	102.750	0.330	-0.010	-0.110	102.800	-1.500	0.400																			1580037434.0	1.01	1.87
26/01/2020 11:17:15	26012020	260120	111715	102.810	12.418773	-57.245022	102.770	-0.030	0.300	-0.260	102.810	-1.200	0.200																			1580037435.0	0.75	1.39
26/01/2020 11:17:16	26012020	260120	111716	102.840	12.418775	-57.245023	102.830	-0.330	0.450	-0.110	102.850	-1.000	0.200																			1580037436.0	0.31	0.57
26/01/2020 11:17:17	26012020	260120	111717	102.920	12.418773	-57.245023	102.920	-0.480	0.340	0.230	102.930	-1.000	0.500																			1580037437.0	0.36	0.67
26/01/2020 11:17:18	26012020	260120	111718	102.990	12.418770	-57.245023	102.980	-0.390	-0.070	0.660	103.000	-1.300	0.900																			1580037438.0	0.59	1.09
26/01/2020 11:17:19	26012020	260120	111719	102.980	12.418767	-57.245023	102.910	-0.130	-0.580	1.150	102.960	-1.800	1.300																			1580037439.0	0.71	1.31
26/01/2020 11:17:20	26012020	260120	111720	102.860	12.418765	-57.245022	102.790	0.140	-0.850	1.590	102.830	-2.200	1.800																			1580037440.0	0.73	1.35
26/01/2020 11:17:21	26012020	260120	111721	102.750	12.418762	-57.245022	102.740	0.220	-0.640	1.770	102.740	-2.200	2.100																			1580037441.0	0.40	0.74
26/01/2020 11:17:22	26012020	260120	111722	102.770	12.418763	-57.245022	102.830	0.070	-0.090	1.700	102.790	-1.700	2.100																			1580037442.0	0.19	0.35
26/01/2020 11:17:23	26012020	260120	111723	102.880	12.418763	-57.245023	102.920	-0.180	0.380	1.490	102.900	-1.200	2.000																			1580037443.0	0.47	0.87
26/01/2020 11:17:24	26012020	260120	111724	102.960	12.418765	-57.245025	102.950	-0.320	0.460	1.200	102.960	-0.900	1.700																			1580037444.0	0.34	0.63
26/01/2020 11:17:25	26012020	260120	111725	102.970	12.418765	-57.245025	102.930	-0.230	0.190	0.770	102.960	-1.000	1.400																			1580037445.0	0.17	0.31
26/01/2020 11:17:26	26012020	260120	111726	102.950	12.418767	-57.245023	102.890	0.040	-0.190	0.280	102.950	-1.400	0.900																			1580037446.0	0.47	0.87
26/01/2020 11:17:27	26012020	260120	111727	102.930	12.418768	-57.245020	102.870	0.340	-0.460	-0.140	102.920	-1.800	0.400																			1580037447.0	0.63	1.17
26/01/2020 11:17:28	26012020	260120	111728	102.920	12.418772	-57.245018	102.880	0.490	-0.480	-0.400	102.930	-1.900	0.100																			1580037448.0	0.62	1.15
26/01/2020 11:17:29	26012020	260120	111729	102.960	12.418773	-57.245018	102.940	0.400	-0.280	-0.480	102.980	-1.700	-0.100																			1580037449.0	0.53	0.98
26/01/2020 11:17:30	26012020	260120	111730	103.010	12.418775	-57.245018	102.970	0.120	-0.030	-0.310	103.010	-1.500	-0.000																			1580037450.0	0.39	0.72
26/01/2020 11:17:31	26012020	260120	111731	103.020	12.418775	-57.245020	102.970	-0.190	0.160	0.120	103.010	-1.300	0.300																			1580037451.0	0.21	0.39
26/01/2020 11:17:32	26012020	260120	111732	103.000	12.418773	-57.245020	102.960	-0.390	0.190	0.760	102.990	-1.200	0.900																			1580037452.0	0.43	0.80
26/01/2020 11:17:33	26012020	260120	111733	102.960	12.418770	-57.245022	102.920	-0.440	0.050	1.450	102.950	-1.300	1.600																			1580037453.0	0.77	1.43
26/01/2020 11:17:34	26012020	260120	111734	102.910	12.418765	-57.245022	102.880	-0.360	-0.130	2.040	102.900	-1.400	2.200																			1580037454.0	0.98	1.81
26/01/2020 11:17:35	26012020	260120	111735	102.860	12.418762	-57.245022	102.850	-0.170	-0.290	2.330	102.850	-1.600	2.600																			1580037455.0	0.91	1.69
26/01/2020 11:17:36	26012020	260120	111736	102.840	12.418758	-57.245022	102.870	0.090	-0.350	2.230	102.840	-1.700	2.700																			1580037456.0	0.54	1.00
26/01/2020 11:17:37	26012020	260120	111737	102.870	12.418758	-57.245022	102.890	0.320	-0.230	1.730	102.870	-1.700	2.400																			1580037457.0	0.06	0.11
26/01/2020 11:17:38	26012020	260120	111738	102.900	12.418762	-57.245022	102.920	0.430	-0.010	0.890	102.920	-1.500	1.600																			1580037458.0	0.70	1.30
26/01/2020 11:17:39	26012020	260120	111739	102.940	12.418768	-57.245022	102.900	0.420	0.080	-0.080	102.940	-1.300	0.700																			1580037459.0	1.25	2.31
26/01/2020 11:17:40	26012020	260120	111740	102.920	12.418775	-57.245020	102.800	0.330	-0.100	-0.820	102.900	-1.400	-0.200																			1580037460.0	1.43	2.65
26/01/2020 11:17:41	26012020	260120	111741	102.790	12.418780	-57.245018	102.640	0.170	-0.380	-1.030	102.770	-1.700	-0.600																			1580037461.0	1.12	2.07
26/01/2020 11:17:42	26012020	260120	111742	102.650	12.418780	-57.245017	102.540	-0.050	-0.490	-0.790	102.630	-1.900	-0.500																			1580037462.0	0.50	0.93
26/01/2020 11:17:43	26012020	260120	111743	102.590	12.418780	-57.245015	102.530	-0.330	-0.320	-0.320	102.590	-1.800	-0.100																			1580037463.0	0.33	0.61
26/01/2020 11:17:44	26012020	260120	111744	102.600	12.418775	-57.245017	102.560	-0.550	0.010	0.340	102.600	-1.500	0.400																			1580037464.0	0.79	1.46
26/01/2020 11:17:45	26012020	260120	111745	102.600	12.418770	-57.245018	102.530	-0.570	0.280	1.150	102.590	-1.200	1.200																			1580037465.0	1.19	2.20
26/01/2020 11:17:46	26012020	260120	111746	102.540	12.418765	-57.245020	102.520	-0.340	0.360	1.800	102.530	-1.000	2.000																			1580037466.0	1.31	2.43
26/01/2020 11:17:47	26012020	260120	111747	102.560	12.418760	-57.245022	102.620	0.020	0.280	2.000	102.580	-1.100	2.400																			1580037467.0	0.91	1.69
26/01/2020 11:17:48	26012020	260120	111748	102.710	12.418760	-57.245022	102.820	0.340	0.100	1.730	102.760	-1.200	2.300																			1580037468.0	0.15	0.28
26/01/2020 11:17:49	26012020	260120	111749	102.920	12.418763	-57.245020	102.960	0.510	-0.200	1.220	102.940	-1.400	1.800																			1580037469.0	0.55	1.02
26/01/2020 11:17:50	26012020	260120	111750	102.960	12.418767	-57.245020	102.870	0.540	-0.490	0.790	102.940	-1.800	1.300																			1580037470.0	0.82	1.52
26/01/2020 11:17:51	26012020	260120	111751	102.780	12.418770	-57.245018	102.600	0.440	-0.640	0.580	102.730	-2.000	1.000																			1580037471.0	0.73	1.35
26/01/2020 11:17:52	26012020	260120	111752	102.530	12.418772	-57.245017	102.380	0.250	-0.560	0.450	102.490	-2.000	0.900																			1580037472.0	0.51	0.94
26/01/2020 11:17:53	26012020	260120	111753	102.370	12.418773	-57.245017	102.300	-0.010	-0.330	0.320	102.350	-1.800	0.800																			1580037473.0	0.36	0.67
26/01/2020 11:17:54	26012020	260120	111754	102.340	12.418775	-57.245018	102.330	-0.270	-0.060	0.220	102.350	-1.500	0.600																			1580037474.0	0.25	0.46
26/01/2020 11:17:55	26012020	260120	111755	102.420	12.418775	-57.245018	102.440	-0.410	0.090	0.210	102.440	-1.300	0.600																			1580037475.0	0.09	0.17
26/01/2020 11:17:56	26012020	260120	111756	102.550	12.418773	-57.245018	102.580	-0.390	0.070	0.320	102.590	-1.300	0.700																			1580037476.0	0.32	0.59
26/01/2020 11:17:57	26012020	260120	111757	102.650	12.418770	-57.245018	102.620	-0.300	0.010	0.540	102.650	-1.400	0.800																			1580037477.0	0.52	0.96
26/01/2020 11:17:58	26012020	260120	111758	102.660	12.418768	-57.245017	102.610	-0.210	0.080	0.750	102.650	-1.400	1.100																			1580037478.0	0.49	0.91
26/01/2020 11:17:59	26012020	260120	111759	102.650	12.418767	-57.245018	102.650	-0.120	0.260	0.850	102.660	-1.200	1.200																			1580037479.0	0.32	0.59
26/01/2020 11:18:00	26012020	260120	111800	102.730	12.418767	-57.245020	102.740	0.010	0.320	0.860	102.740	-1.100	1.300	1014.90	25.80	25.80	18.60	18.70	139.00	64.00	64.00	375.00	26.00	349.00	7.40	92.00	7.20	10405	3113.00	27.40	27.40	1580037480.0	0.28	0.52
26/01/2020 11:18:01	26012020	260120	111801	102.820	12.418767	-57.245020	102.820	0.200	0.060	0.780	102.830	-1.200	1.200																			1580037481.0	0.14	0.26
26/01/2020 11:18:02	26012020	260120	111802	102.890	12.418768	-57.245018	102.890	0.370	-0.320	0.700	102.910	-1.500	1.100																			1580037482.0	0.27	0.50
26/01/2020 11:18:03	26012020	260120	111803	102.950	12.418768	-57.245018	102.930	0.420	-0.550	0.680	102.950	-1.900	1.100																			1580037483.0	0.35	0.65
26/01/2020 11:18:04	26012020	260120	111804	102.970	12.418770	-57.245018	102.930	0.300	-0.530	0.720	102.980	-1.900	1.100																			1580037484.0	0.23	0.43
26/01/2020 11:18:05	26012020	260120	111805	102.960	12.418770	-57.245018	102.890	0.080	-0.380	0.830	102.960	-1.800	1.200																			1580037485.0	0.19	0.35
26/01/2020 11:18:06	26012020	260120	111806	102.880	12.418770	-57.245020	102.740	-0.110	-0.270	1.050	102.840	-1.700	1.300																			1580037486.0	0.31	0.57
26/01/2020 11:18:07	26012020	260120	111807	102.680	12.418767	-57.245020	102.550	-0.180	-0.250	1.310	102.640	-1.600	1.600																			1580037487.0	0.47	0.87
26/01/2020 11:18:08	26012020	260120	111808	102.510	12.418765	-57.245020	102.450	-0.130	-0.230	1.340	102.490	-1.600	1.800																			1580037488.0	0.45	0.83
26/01/2020 11:18:09	26012020	260120	111809	102.500	12.418765	-57.245018	102.550	-0.070	-0.020	1.050	102.530	-1.500	1.600																			1580037489.0	0.18	0.33
26/01/2020 11:18:10	26012020	260120	111810	102.670	12.418767	-57.245018	102.770	-0.090	0.300	0.530	102.720	-1.200	1.100																			1580037490.0	0.38	0.70
26/01/2020 11:18:11	26012020	260120	111811	102.920	12.418770	-57.245020	103.000	-0.150	0.470	-0.010	102.960	-0.900	0.600																			1580037491.0	0.67	1.24
26/01/2020 11:18:12	26012020	260120	111812	103.110	12.418772	-57.245020	103.140	-0.180	0.370	-0.330	103.140	-0.900	0.200																			1580037492.0	0.60	1.11
26/01/2020 11:18:13	26012020	260120	111813	103.180	12.418773	-57.245020	103.100	-0.120	0.090	-0.260	103.170	-1.200	0.100																			1580037493.0	0.25	0.46
26/01/2020 11:18:14	26012020	260120	111814	103.070	12.418773	-57.245018	102.940	0.040	-0.250	0.110	103.040	-1.500	0.300																			1580037494.0	0.18	0.33
26/01/2020 11:18:15	26012020	260120	111815	102.900	12.418770	-57.245018	102.800	0.230	-0.560	0.550	102.870	-1.800	0.800																			1580037495.0	0.42	0.78
26/01/2020 11:18:16	26012020	260120	111816	102.820	12.418768	-57.245018	102.810	0.330	-0.650	0.920	102.820	-2.000	1.200																			1580037496.0	0.46	0.85
26/01/2020 11:18:17	26012020	260120	111817	102.870	12.418767	-57.245020	102.890	0.270	-0.420	1.230	102.890	-1.900	1.500																			1580037497.0	0.45	0.83
26/01/2020 11:18:18	26012020	260120	111818	102.940	12.418765	-57.245022	102.940	0.060	-0.040	1.450	102.950	-1.600	1.800																			1580037498.0	0.55	1.02
26/01/2020 11:18:19	26012020	260120	111819	102.970	12.418763	-57.245023	102.930	-0.140	0.160	1.540	102.970	-1.300	1.900																			1580037499.0	0.52	0.96
26/01/2020 11:18:20	26012020	260120	111820	102.930	12.418763	-57.245025	102.860	-0.210	0.030	1.510	102.910	-1.300	1.900																			1580037500.0	0.21	0.39
26/01/2020 11:18:21	26012020	260120	111821	102.820	12.418763	-57.245023	102.730	-0.140	-0.250	1.360	102.790	-1.500	1.800																			1580037501.0	0.21	0.39
26/01/2020 11:18:22	26012020	260120	111822	102.680	12.418763	-57.245022	102.600	-0.020	-0.370	1.160	102.660	-1.700	1.600																			1580037502.0	0.33	0.61
26/01/2020 11:18:23	26012020	260120	111823	102.570	12.418763	-57.245020	102.490	0.060	-0.240	0.900	102.550	-1.700	1.400																			1580037503.0	0.24	0.44
26/01/2020 11:18:24	26012020	260120	111824	102.480	12.418767	-57.245020	102.480	0.080	0.030	0.500	102.480	-1.500	1.100																			1580037504.0	0.36	0.67
26/01/2020 11:18:25	26012020	260120	111825	102.570	12.418768	-57.245020	102.650	0.050	0.260	-0.040	102.610	-1.200	0.600																			1580037505.0	0.64	1.19
26/01/2020 11:18:26	26012020	260120	111826	102.830	12.418772	-57.245022	102.920	0.010	0.310	-0.440	102.880	-1.100	0.100																			1580037506.0	0.74	1.37
26/01/2020 11:18:27	26012020	260120	111827	103.050	12.418773	-57.245020	103.020	-0.000	0.100	-0.380	103.060	-1.200	-0.100																			1580037507.0	0.39	0.72
26/01/2020 11:18:28	26012020	260120	111828	103.040	12.418773	-57.245020	102.930	-0.020	-0.220	0.080	103.020	-1.500	0.300																			1580037508.0	0.24	0.44
26/01/2020 11:18:29	26012020	260120	111829	102.900	12.418770	-57.245020	102.770	-0.060	-0.380	0.770	102.860	-1.700	0.900																			1580037509.0	0.66	1.22
26/01/2020 11:18:30	26012020	260120	111830	102.710	12.418767	-57.245022	102.620	-0.100	-0.330	1.470	102.680	-1.700	1.600																			1580037510.0	0.88	1.63
26/01/2020 11:18:31	26012020	260120	111831	102.560	12.418763	-57.245023	102.550	-0.080	-0.250	1.960	102.550	-1.700	2.200																			1580037511.0	0.86	1.59
26/01/2020 11:18:32	26012020	260120	111832	102.510	12.418760	-57.245025	102.530	0.020	-0.260	2.150	102.510	-1.600	2.500																			1580037512.0	0.54	1.00
26/01/2020 11:18:33	26012020	260120	111833	102.520	12.418760	-57.245023	102.550	0.130	-0.290	2.020	102.530	-1.700	2.500																			1580037513.0	0.16	0.30
26/01/2020 11:18:34	26012020	260120	111834	102.600	12.418760	-57.245023	102.680	0.140	-0.190	1.560	102.620	-1.600	2.200																			1580037514.0	0.31	0.57
26/01/2020 11:18:35	26012020	260120	111835	102.730	12.418763	-57.245023	102.840	0.060	0.090	0.960	102.760	-1.400	1.600																			1580037515.0	0.53	0.98
26/01/2020 11:18:36	26012020	260120	111836	102.900	12.418767	-57.245023	102.890	-0.070	0.310	0.410	102.920	-1.100	1.000																			1580037516.0	0.68	1.26
26/01/2020 11:18:37	26012020	260120	111837	102.890	12.418768	-57.245023	102.780	-0.170	0.230	0.100	102.870	-1.100	0.600																			1580037517.0	0.61	1.13
26/01/2020 11:18:38	26012020	260120	111838	102.740	12.418770	-57.245023	102.620	-0.200	-0.120	-0.010	102.710	-1.300	0.400																			1580037518.0	0.31	0.57
26/01/2020 11:18:39	26012020	260120	111839	102.600	12.418770	-57.245022	102.510	-0.110	-0.460	0.010	102.580	-1.700	0.400																			1580037519.0	0.31	0.57
26/01/2020 11:18:40	26012020	260120	111840	102.510	12.418770	-57.245020	102.450	0.070	-0.590	0.120	102.500	-1.900	0.500																			1580037520.0	0.28	0.52
26/01/2020 11:18:41	26012020	260120	111841	102.480	12.418770	-57.245020	102.450	0.230	-0.410	0.300	102.490	-1.900	0.600																			1580037521.0	0.15	0.28
26/01/2020 11:18:42	26012020	260120	111842	102.510	12.418768	-57.245020	102.500	0.220	0.010	0.570	102.510	-1.600	0.800																			1580037522.0	0.17	0.31
26/01/2020 11:18:43	26012020	260120	111843	102.560	12.418768	-57.245022	102.570	0.040	0.440	0.920	102.570	-1.100	1.200																			1580037523.0	0.45	0.83
26/01/2020 11:18:44	26012020	260120	111844	102.630	12.418767	-57.245023	102.670	-0.160	0.520	1.180	102.650	-0.800	1.500																			1580037524.0	0.50	0.93
26/01/2020 11:18:45	26012020	260120	111845	102.710	12.418767	-57.245025	102.780	-0.230	0.110	1.290	102.730	-1.100	1.600																			1580037525.0	0.19	0.35
26/01/2020 11:18:46	26012020	260120	111846	102.830	12.418765	-57.245023	102.840	-0.130	-0.450	1.340	102.840	-1.600	1.700																			1580037526.0	0.39	0.72
26/01/2020 11:18:47	26012020	260120	111847	102.850	12.418763	-57.245022	102.810	0.010	-0.660	1.430	102.840	-2.000	1.800																			1580037527.0	0.47	0.87
26/01/2020 11:18:48	26012020	260120	111848	102.770	12.418762	-57.245022	102.670	0.070	-0.520	1.550	102.740	-2.000	1.900																			1580037528.0	0.31	0.57
26/01/2020 11:18:49	26012020	260120	111849	102.620	12.418762	-57.245022	102.470	0.020	-0.270	1.570	102.580	-1.700	2.000																			1580037529.0	0.27	0.50
26/01/2020 11:18:50	26012020	260120	111850	102.400	12.418763	-57.245023	102.360	-0.030	-0.090	1.220	102.380	-1.500	1.800																			1580037530.0	0.23	0.43
26/01/2020 11:18:51	26012020	260120	111851	102.380	12.418765	-57.245022	102.410	-0.020	0.070	0.580	102.400	-1.400	1.300																			1580037531.0	0.66	1.22
26/01/2020 11:18:52	26012020	260120	111852	102.490	12.418770	-57.245022	102.520	0.010	0.160	0.010	102.520	-1.200	0.600																			1580037532.0	0.83	1.54
26/01/2020 11:18:53	26012020	260120	111853	102.580	12.418772	-57.245020	102.580	-0.020	0.180	-0.240	102.590	-1.200	0.200																			1580037533.0	0.58	1.07
26/01/2020 11:18:54	26012020	260120	111854	102.620	12.418773	-57.245020	102.630	-0.100	0.090	-0.260	102.640	-1.200	0.100																			1580037534.0	0.18	0.33
26/01/2020 11:18:55	26012020	260120	111855	102.680	12.418772	-57.245020	102.660	-0.100	-0.100	-0.150	102.680	-1.400	0.200																			1580037535.0	0.11	0.20
26/01/2020 11:18:56	26012020	260120	111856	102.670	12.418772	-57.245020	102.630	0.060	-0.280	0.080	102.670	-1.600	0.400																			1580037536.0	0.21	0.39
26/01/2020 11:18:57	26012020	260120	111857	102.650	12.418770	-57.245020	102.640	0.270	-0.370	0.410	102.650	-1.700	0.700																			1580037537.0	0.24	0.44
26/01/2020 11:18:58	26012020	260120	111858	102.650	12.418770	-57.245020	102.620	0.360	-0.360	0.850	102.640	-1.800	1.000																			1580037538.0	0.24	0.44
26/01/2020 11:18:59	26012020	260120	111859	102.590	12.418768	-57.245020	102.530	0.210	-0.300	1.360	102.560	-1.700	1.600																			1580037539.0	0.29	0.54
26/01/2020 11:19:00	26012020	260120	111900	102.460	12.418767	-57.245020	102.410	-0.130	-0.190	1.720	102.440	-1.600	2.000	1014.80	25.80	25.80	18.60	18.70	134.00	64.00	64.00	375.00	26.00	347.00	7.20	89.00	7.10	10504	3203.00	27.40	27.40	1580037540.0	0.28	0.52
26/01/2020 11:19:01	26012020	260120	111901	102.370	12.418765	-57.245020	102.390	-0.440	-0.050	1.860	102.360	-1.500	2.200																			1580037541.0	0.25	0.46
26/01/2020 11:19:02	26012020	260120	111902	102.390	12.418763	-57.245020	102.490	-0.560	0.110	1.820	102.410	-1.300	2.200																			1580037542.0	0.29	0.54
26/01/2020 11:19:03	26012020	260120	111903	102.500	12.418763	-57.245022	102.570	-0.490	0.230	1.620	102.510	-1.200	2.100																			1580037543.0	0.35	0.65
26/01/2020 11:19:04	26012020	260120	111904	102.580	12.418762	-57.245022	102.630	-0.260	0.250	1.200	102.600	-1.100	1.800																			1580037544.0	0.22	0.41
26/01/2020 11:19:05	26012020	260120	111905	102.670	12.418763	-57.245022	102.740	0.040	0.160	0.460	102.700	-1.200	1.200																			1580037545.0	0.27	0.50
26/01/2020 11:19:06	26012020	260120	111906	102.830	12.418767	-57.245020	102.850	0.310	-0.020	-0.390	102.850	-1.300	0.300																			1580037546.0	0.95	1.76
26/01/2020 11:19:07	26012020	260120	111907	102.920	12.418773	-57.245018	102.840	0.520	-0.290	-0.910	102.910	-1.600	-0.400																			1580037547.0	1.21	2.24
26/01/2020 11:19:08	26012020	260120	111908	102.840	12.418777	-57.245018	102.700	0.600	-0.560	-0.980	102.820	-1.800	-0.600																			1580037548.0	0.95	1.76
26/01/2020 11:19:09	26012020	260120	111909	102.680	12.418778	-57.245017	102.500	0.470	-0.720	-0.670	102.630	-2.000	-0.400																			1580037549.0	0.51	0.94
26/01/2020 11:19:10	26012020	260120	111910	102.450	12.418778	-57.245015	102.290	0.170	-0.690	-0.000	102.410	-2.100	0.100																			1580037550.0	0.18	0.33
26/01/2020 11:19:11	26012020	260120	111911	102.280	12.418775	-57.245015	102.170	-0.170	-0.450	0.810	102.250	-1.900	0.900																			1580037551.0	0.61	1.13
26/01/2020 11:19:12	26012020	260120	111912	102.180	12.418772	-57.245017	102.230	-0.450	-0.020	1.540	102.190	-1.600	1.600																			1580037552.0	0.91	1.69
26/01/2020 11:19:13	26012020	260120	111913	102.270	12.418767	-57.245018	102.470	-0.640	0.480	2.010	102.310	-1.100	2.200																			1580037553.0	1.02	1.89
26/01/2020 11:19:14	26012020	260120	111914	102.580	12.418763	-57.245020	102.750	-0.680	0.750	2.220	102.630	-0.700	2.500																			1580037554.0	0.98	1.81
26/01/2020 11:19:15	26012020	260120	111915	102.810	12.418760	-57.245022	102.920	-0.460	0.600	2.140	102.830	-0.700	2.600																			1580037555.0	0.69	1.28
26/01/2020 11:19:16	26012020	260120	111916	102.910	12.418758	-57.245022	102.980	-0.050	0.170	1.680	102.920	-1.000	2.300																			1580037556.0	0.28	0.52
26/01/2020 11:19:17	26012020	260120	111917	102.950	12.418760	-57.245020	102.960	0.380	-0.260	0.940	102.950	-1.500	1.600																			1580037557.0	0.59	1.09
26/01/2020 11:19:18	26012020	260120	111918	102.930	12.418765	-57.245017	102.910	0.620	-0.490	0.140	102.930	-1.800	0.800																			1580037558.0	1.09	2.02
26/01/2020 11:19:19	26012020	260120	111919	102.940	12.418772	-57.245017	102.940	0.570	-0.510	-0.520	102.940	-1.900	0.100																			1580037559.0	1.30	2.41
26/01/2020 11:19:20	26012020	260120	111920	102.990	12.418777	-57.245017	102.980	0.310	-0.390	-0.800	103.000	-1.800	-0.400																			1580037560.0	1.09	2.02
26/01/2020 11:19:21	26012020	260120	111921	102.990	12.418778	-57.245017	102.890	0.010	-0.300	-0.600	102.980	-1.700	-0.300																			1580037561.0	0.56	1.04
26/01/2020 11:19:22	26012020	260120	111922	102.830	12.418778	-57.245018	102.660	-0.180	-0.390	-0.060	102.780	-1.700	0.100																			1580037562.0	0.21	0.39
26/01/2020 11:19:23	26012020	260120	111923	102.590	12.418775	-57.245017	102.450	-0.200	-0.560	0.580	102.540	-1.900	0.700																			1580037563.0	0.66	1.22
26/01/2020 11:19:24	26012020	260120	111924	102.400	12.418770	-57.245017	102.330	-0.100	-0.600	1.240	102.380	-2.000	1.400																			1580037564.0	0.96	1.78
26/01/2020 11:19:25	26012020	260120	111925	102.320	12.418767	-57.245015	102.350	-0.010	-0.280	1.750	102.310	-1.800	2.000																			1580037565.0	1.01	1.87
26/01/2020 11:19:26	26012020	260120	111926	102.390	12.418763	-57.245017	102.560	-0.060	0.420	1.860	102.440	-1.300	2.200																			1580037566.0	0.68	1.26
26/01/2020 11:19:27	26012020	260120	111927	102.670	12.418763	-57.245018	102.860	-0.190	1.070	1.500	102.730	-0.500	2.100																			1580037567.0	0.53	0.98
26/01/2020 11:19:28	26012020	260120	111928	102.990	12.418765	-57.245020	103.160	-0.220	1.120	0.790	103.040	-0.200	1.500																			1580037568.0	0.68	1.26
26/01/2020 11:19:29	26012020	260120	111929	103.280	12.418770	-57.245020	103.410	-0.030	0.520	-0.010	103.340	-0.600	0.700																			1580037569.0	0.90	1.67
26/01/2020 11:19:30	26012020	260120	111930	103.500	12.418773	-57.245017	103.510	0.210	-0.330	-0.490	103.520	-1.400	0.000																			1580037570.0	1.06	1.96
26/01/2020 11:19:31	26012020	260120	111931	103.510	12.418775	-57.245015	103.420	0.300	-0.970	-0.410	103.490	-2.100	-0.100																			1580037571.0	0.69	1.28
26/01/2020 11:19:32	26012020	260120	111932	103.340	12.418775	-57.245015	103.200	0.160	-1.110	0.040	103.290	-2.500	0.200																			1580037572.0	0.17	0.31
26/01/2020 11:19:33	26012020	260120	111933	103.080	12.418773	-57.245017	102.930	-0.080	-0.870	0.620	103.020	-2.400	0.800																			1580037573.0	0.60	1.11
26/01/2020 11:19:34	26012020	260120	111934	102.820	12.418770	-57.245018	102.700	-0.200	-0.590	1.190	102.780	-2.100	1.400																			1580037574.0	0.81	1.50
26/01/2020 11:19:35	26012020	260120	111935	102.630	12.418767	-57.245020	102.590	-0.120	-0.340	1.650	102.610	-1.800	1.900																			1580037575.0	0.82	1.52
26/01/2020 11:19:36	26012020	260120	111936	102.560	12.418763	-57.245020	102.600	0.070	-0.050	1.740	102.570	-1.600	2.100																			1580037576.0	0.67	1.24
26/01/2020 11:19:37	26012020	260120	111937	102.620	12.418763	-57.245020	102.750	0.200	0.330	1.380	102.650	-1.200	1.900																			1580037577.0	0.15	0.28
26/01/2020 11:19:38	26012020	260120	111938	102.820	12.418765	-57.245020	102.910	0.190	0.640	0.790	102.850	-0.800	1.400																			1580037578.0	0.46	0.85
26/01/2020 11:19:39	26012020	260120	111939	102.940	12.418768	-57.245020	103.070	0.110	0.700	0.140	102.980	-0.700	0.800																			1580037579.0	0.80	1.48
26/01/2020 11:19:40	26012020	260120	111940	103.200	12.418773	-57.245018	103.310	0.080	0.460	-0.490	103.240	-0.800	0.100																			1580037580.0	0.96	1.78
26/01/2020 11:19:41	26012020	260120	111941	103.440	12.418777	-57.245017	103.490	0.090	0.000	-0.830	103.460	-1.200	-0.400																			1580037581.0	0.93	1.72
26/01/2020 11:19:42	26012020	260120	111942	103.530	12.418778	-57.245017	103.480	0.040	-0.470	-0.640	103.530	-1.700	-0.400																			1580037582.0	0.49	0.91
26/01/2020 11:19:43	26012020	260120	111943	103.460	12.418777	-57.245017	103.350	-0.090	-0.770	0.050	103.430	-2.000	0.100																			1580037583.0	0.33	0.61
26/01/2020 11:19:44	26012020	260120	111944	103.240	12.418773	-57.245018	103.100	-0.240	-0.860	0.980	103.190	-2.200	1.000																			1580037584.0	1.05	1.94
26/01/2020 11:19:45	26012020	260120	111945	102.980	12.418767	-57.245020	102.900	-0.300	-0.680	1.860	102.930	-2.200	1.900																			1580037585.0	1.38	2.56
26/01/2020 11:19:46	26012020	260120	111946	102.820	12.418762	-57.245022	102.850	-0.250	-0.210	2.360	102.810	-1.800	2.600																			1580037586.0	1.26	2.33
26/01/2020 11:19:47	26012020	260120	111947	102.830	12.418758	-57.245023	102.920	-0.200	0.340	2.350	102.840	-1.300	2.800																			1580037587.0	0.82	1.52
26/01/2020 11:19:48	26012020	260120	111948	102.930	12.418758	-57.245025	103.040	-0.130	0.660	1.810	102.950	-0.800	2.500																			1580037588.0	0.44	0.81
26/01/2020 11:19:49	26012020	260120	111949	103.090	12.418760	-57.245027	103.190	0.010	0.500	0.860	103.120	-0.800	1.600																			1580037589.0	0.62	1.15
26/01/2020 11:19:50	26012020	260120	111950	103.260	12.418765	-57.245025	103.320	0.280	-0.100	-0.140	103.290	-1.200	0.600																			1580037590.0	1.07	1.98
26/01/2020 11:19:51	26012020	260120	111951	103.350	12.418770	-57.245022	103.280	0.580	-0.740	-0.810	103.350	-1.900	-0.200																			1580037591.0	1.28	2.37
26/01/2020 11:19:52	26012020	260120	111952	103.220	12.418773	-57.245018	103.010	0.710	-0.970	-0.970	103.160	-2.300	-0.600																			1580037592.0	1.04	1.93
26/01/2020 11:19:53	26012020	260120	111953	102.930	12.418775	-57.245017	102.790	0.510	-0.600	-0.800	102.890	-2.200	-0.500																			1580037593.0	0.47	0.87
26/01/2020 11:19:54	26012020	260120	111954	102.790	12.418777	-57.245018	102.770	0.060	0.110	-0.420	102.790	-1.600	-0.200																			1580037594.0	0.43	0.80
26/01/2020 11:19:55	26012020	260120	111955	102.820	12.418775	-57.245022	102.850	-0.380	0.590	0.120	102.840	-0.900	0.300																			1580037595.0	0.75	1.39
26/01/2020 11:19:56	26012020	260120	111956	102.930	12.418772	-57.245025	103.020	-0.600	0.570	0.800	102.960	-0.800	0.900																			1580037596.0	0.75	1.39
26/01/2020 11:19:57	26012020	260120	111957	103.080	12.418768	-57.245025	103.190	-0.600	0.290	1.540	103.110	-1.000	1.600																			1580037597.0	1.03	1.91
26/01/2020 11:19:58	26012020	260120	111958	103.210	12.418762	-57.245025	103.290	-0.450	0.010	2.190	103.230	-1.300	2.300																			1580037598.0	1.35	2.50
26/01/2020 11:19:59	26012020	260120	111959	103.270	12.418755	-57.245027	103.300	-0.220	-0.230	2.530	103.270	-1.500	2.800																			1580037599.0	1.27	2.35
26/01/2020 11:20:00	26012020	260120	112000	103.240	12.418752	-57.245028	103.220	0.050	-0.490	2.450	103.220	-1.800	2.900	1014.90	25.80	25.80	18.60	18.70	131.00	64.00	64.00	375.00	26.00	349.00	7.70	91.00	7.40	10648	3148.00	27.40	27.40	1580037600.0	0.73	1.35
26/01/2020 11:20:01	26012020	260120	112001	103.100	12.418753	-57.245028	103.030	0.330	-0.660	1.990	103.060	-2.000	2.600																			1580037601.0	0.09	0.17
26/01/2020 11:20:02	26012020	260120	112002	102.940	12.418757	-57.245027	102.910	0.510	-0.590	1.270	102.920	-2.000	2.000																			1580037602.0	0.82	1.52
26/01/2020 11:20:03	26012020	260120	112003	102.870	12.418762	-57.245025	102.830	0.520	-0.320	0.460	102.850	-1.800	1.200																			1580037603.0	1.20	2.22
26/01/2020 11:20:04	26012020	260120	112004	102.810	12.418767	-57.245025	102.750	0.330	-0.000	-0.220	102.800	-1.500	0.400																			1580037604.0	1.20	2.22
26/01/2020 11:20:05	26012020	260120	112005	102.760	12.418772	-57.245025	102.730	0.020	0.250	-0.700	102.760	-1.200	-0.200																			1580037605.0	0.96	1.78
26/01/2020 11:20:06	26012020	260120	112006	102.800	12.418775	-57.245025	102.810	-0.310	0.380	-0.850	102.820	-1.000	-0.500																			1580037606.0	0.53	0.98
26/01/2020 11:20:07	26012020	260120	112007	102.920	12.418773	-57.245027	102.950	-0.450	0.280	-0.600	102.940	-1.000	-0.400																			1580037607.0	0.18	0.33
26/01/2020 11:20:08	26012020	260120	112008	103.010	12.418770	-57.245027	103.000	-0.280	-0.110	0.010	103.020	-1.300	0.100																			1580037608.0	0.75	1.39
26/01/2020 11:20:09	26012020	260120	112009	102.980	12.418765	-57.245027	102.910	0.090	-0.530	0.720	102.950	-1.800	0.800																			1580037609.0	1.10	2.04
26/01/2020 11:20:10	26012020	260120	112010	102.840	12.418762	-57.245025	102.810	0.380	-0.640	1.310	102.820	-2.000	1.500																			1580037610.0	0.94	1.74
26/01/2020 11:20:11	26012020	260120	112011	102.770	12.418758	-57.245025	102.820	0.370	-0.350	1.710	102.770	-1.900	1.900																			1580037611.0	0.47	0.87
26/01/2020 11:20:12	26012020	260120	112012	102.830	12.418758	-57.245027	102.970	0.040	0.140	1.940	102.860	-1.400	2.200																			1580037612.0	0.36	0.67
26/01/2020 11:20:13	26012020	260120	112013	103.010	12.418758	-57.245030	103.140	-0.370	0.520	2.000	103.050	-1.000	2.400																			1580037613.0	0.53	0.98
26/01/2020 11:20:14	26012020	260120	112014	103.120	12.418758	-57.245032	103.150	-0.560	0.460	1.940	103.120	-0.800	2.400																			1580037614.0	0.41	0.76
26/01/2020 11:20:15	26012020	260120	112015	103.070	12.418758	-57.245032	103.050	-0.350	0.040	1.690	103.050	-1.100	2.200																			1580037615.0	0.12	0.22
26/01/2020 11:20:16	26012020	260120	112016	102.960	12.418758	-57.245030	102.970	0.090	-0.430	1.240	102.950	-1.600	1.800																			1580037616.0	0.36	0.67
26/01/2020 11:20:17	26012020	260120	112017	102.920	12.418758	-57.245028	102.910	0.450	-0.680	0.720	102.900	-2.000	1.300																			1580037617.0	0.45	0.83
26/01/2020 11:20:18	26012020	260120	112018	102.860	12.418762	-57.245027	102.850	0.520	-0.610	0.230	102.850	-2.000	0.800																			1580037618.0	0.58	1.07
26/01/2020 11:20:19	26012020	260120	112019	102.830	12.418765	-57.245027	102.830	0.340	-0.340	-0.260	102.830	-1.800	0.300																			1580037619.0	0.87	1.61
26/01/2020 11:20:20	26012020	260120	112020	102.830	12.418770	-57.245027	102.800	0.090	-0.140	-0.610	102.820	-1.600	-0.100																			1580037620.0	1.01	1.87
26/01/2020 11:20:21	26012020	260120	112021	102.820	12.418773	-57.245027	102.800	-0.100	-0.050	-0.590	102.820	-1.500	-0.300																			1580037621.0	0.61	1.13
26/01/2020 11:20:22	26012020	260120	112022	102.830	12.418772	-57.245027	102.840	-0.290	0.130	-0.100	102.830	-1.300	0.000																			1580037622.0	0.22	0.41
26/01/2020 11:20:23	26012020	260120	112023	102.840	12.418768	-57.245028	102.860	-0.440	0.340	0.640	102.840	-1.100	0.700																			1580037623.0	0.93	1.72
26/01/2020 11:20:24	26012020	260120	112024	102.850	12.418763	-57.245030	102.900	-0.430	0.300	1.250	102.850	-1.000	1.400																			1580037624.0	1.10	2.04
26/01/2020 11:20:25	26012020	260120	112025	102.870	12.418758	-57.245030	102.940	-0.180	-0.010	1.580	102.880	-1.200	1.900																			1580037625.0	0.80	1.48
26/01/2020 11:20:26	26012020	260120	112026	102.910	12.418757	-57.245028	102.990	0.220	-0.290	1.660	102.920	-1.600	2.000																			1580037626.0	0.51	0.94
26/01/2020 11:20:27	26012020	260120	112027	102.980	12.418757	-57.245028	103.130	0.500	-0.230	1.580	103.000	-1.700	2.000																			1580037627.0	0.20	0.37
26/01/2020 11:20:28	26012020	260120	112028	103.150	12.418758	-57.245028	103.220	0.460	-0.000	1.340	103.170	-1.500	1.800																			1580037628.0	0.37	0.69
26/01/2020 11:20:29	26012020	260120	112029	103.210	12.418762	-57.245030	103.210	0.160	0.040	0.940	103.220	-1.300	1.500																			1580037629.0	0.72	1.33
26/01/2020 11:20:30	26012020	260120	112030	103.150	12.418765	-57.245030	103.110	-0.140	-0.200	0.530	103.130	-1.500	1.100																			1580037630.0	0.81	1.50
26/01/2020 11:20:31	26012020	260120	112031	103.020	12.418768	-57.245028	102.970	-0.240	-0.520	0.340	103.000	-1.800	0.800																			1580037631.0	0.65	1.20
26/01/2020 11:20:32	26012020	260120	112032	102.880	12.418768	-57.245027	102.800	-0.180	-0.720	0.440	102.840	-2.000	0.800																			1580037632.0	0.29	0.54
26/01/2020 11:20:33	26012020	260120	112033	102.710	12.418767	-57.245027	102.650	-0.110	-0.640	0.640	102.680	-2.100	0.900																			1580037633.0	0.42	0.78
26/01/2020 11:20:34	26012020	260120	112034	102.600	12.418765	-57.245027	102.590	-0.150	-0.280	0.730	102.590	-1.800	1.100																			1580037634.0	0.45	0.83
26/01/2020 11:20:35	26012020	260120	112035	102.570	12.418763	-57.245027	102.610	-0.190	0.190	0.620	102.580	-1.400	1.100																			1580037635.0	0.24	0.44
26/01/2020 11:20:36	26012020	260120	112036	102.640	12.418765	-57.245027	102.730	-0.110	0.580	0.370	102.670	-0.900	0.900																			1580037636.0	0.22	0.41
26/01/2020 11:20:37	26012020	260120	112037	102.820	12.418767	-57.245027	102.960	0.050	0.780	0.110	102.870	-0.600	0.600																			1580037637.0	0.39	0.72
26/01/2020 11:20:38	26012020	260120	112038	103.090	12.418768	-57.245028	103.240	0.220	0.670	-0.090	103.150	-0.600	0.400																			1580037638.0	0.38	0.70
26/01/2020 11:20:39	26012020	260120	112039	103.370	12.418770	-57.245027	103.470	0.310	0.180	-0.140	103.420	-1.000	0.200																			1580037639.0	0.36	0.67
26/01/2020 11:20:40	26012020	260120	112040	103.520	12.418770	-57.245027	103.500	0.280	-0.550	0.100	103.520	-1.600	0.400																			1580037640.0	0.34	0.63
26/01/2020 11:20:41	26012020	260120	112041	103.430	12.418770	-57.245025	103.290	0.170	-1.150	0.720	103.380	-2.300	0.800																			1580037641.0	0.39	0.72
26/01/2020 11:20:42	26012020	260120	112042	103.110	12.418767	-57.245023	102.950	0.010	-1.270	1.550	103.040	-2.700	1.600																			1580037642.0	0.64	1.19
26/01/2020 11:20:43	26012020	260120	112043	102.760	12.418763	-57.245025	102.640	-0.190	-0.880	2.290	102.700	-2.500	2.400																			1580037643.0	0.89	1.65
26/01/2020 11:20:44	26012020	260120	112044	102.510	12.418758	-57.245027	102.500	-0.360	-0.230	2.690	102.480	-1.900	3.000																			1580037644.0	0.98	1.81
26/01/2020 11:20:45	26012020	260120	112045	102.430	12.418757	-57.245028	102.500	-0.420	0.390	2.570	102.430	-1.200	3.100																			1580037645.0	0.72	1.33
26/01/2020 11:20:46	26012020	260120	112046	102.510	12.418757	-57.245028	102.670	-0.280	0.760	1.810	102.550	-0.700	2.600																			1580037646.0	0.19	0.35
26/01/2020 11:20:47	26012020	260120	112047	102.750	12.418762	-57.245028	102.940	-0.000	0.780	0.570	102.820	-0.600	1.500																			1580037647.0	0.98	1.81
26/01/2020 11:20:48	26012020	260120	112048	103.070	12.418768	-57.245025	103.220	0.280	0.490	-0.730	103.130	-0.700	0.100																			1580037648.0	1.64	3.04
26/01/2020 11:20:49	26012020	260120	112049	103.330	12.418775	-57.245023	103.370	0.410	-0.010	-1.560	103.360	-1.200	-0.900																			1580037649.0	1.68	3.11
26/01/2020 11:20:50	26012020	260120	112050	103.440	12.418780	-57.245020	103.430	0.320	-0.460	-1.660	103.450	-1.700	-1.300																			1580037650.0	1.05	1.94
26/01/2020 11:20:51	26012020	260120	112051	103.450	12.418780	-57.245020	103.350	0.060	-0.650	-1.110	103.440	-2.000	-1.000																			1580037651.0	0.11	0.20
26/01/2020 11:20:52	26012020	260120	112052	103.280	12.418777	-57.245022	103.090	-0.150	-0.670	-0.080	103.220	-2.000	-0.200																			1580037652.0	0.69	1.28
26/01/2020 11:20:53	26012020	260120	112053	103.000	12.418772	-57.245023	102.710	-0.190	-0.710	1.180	102.920	-2.100	1.100																			1580037653.0	1.17	2.17
26/01/2020 11:20:54	26012020	260120	112054	102.550	12.418765	-57.245023	102.460	-0.110	-0.700	2.260	102.500	-2.100	2.300																			1580037654.0	1.45	2.69
26/01/2020 11:20:55	26012020	260120	112055	102.400	12.418760	-57.245023	102.470	-0.020	-0.400	2.820	102.400	-1.900	3.000																			1580037655.0	1.29	2.39
26/01/2020 11:20:56	26012020	260120	112056	102.480	12.418757	-57.245025	102.610	-0.020	0.240	2.740	102.510	-1.400	3.200																			1580037656.0	0.60	1.11
26/01/2020 11:20:57	26012020	260120	112057	102.680	12.418758	-57.245027	102.810	-0.060	0.890	2.130	102.730	-0.700	2.800																			1580037657.0	0.44	0.81
26/01/2020 11:20:58	26012020	260120	112058	102.900	12.418762	-57.245027	103.000	-0.020	0.980	1.150	102.940	-0.400	2.000																			1580037658.0	0.97	1.80
26/01/2020 11:20:59	26012020	260120	112059	103.070	12.418768	-57.245025	103.120	0.100	0.430	0.070	103.100	-0.700	0.900																			1580037659.0	1.33	2.46
26/01/2020 11:21:00	26012020	260120	112100	103.170	12.418773	-57.245022	103.140	0.150	-0.300	-0.760	103.170	-1.400	-0.100	1014.90	25.80	25.80	18.40	18.50	130.00	63.00	64.00	375.00	26.00	351.00	7.50	94.00	7.20	10799	3151.00	27.40	27.40	1580037660.0	1.46	2.70
26/01/2020 11:21:01	26012020	260120	112101	103.150	12.418778	-57.245018	103.030	0.050	-0.780	-1.050	103.120	-2.000	-0.600																			1580037661.0	1.05	1.94
26/01/2020 11:21:02	26012020	260120	112102	102.960	12.418778	-57.245018	102.780	-0.090	-0.850	-0.790	102.900	-2.200	-0.600																			1580037662.0	0.25	0.46
26/01/2020 11:21:03	26012020	260120	112103	102.650	12.418777	-57.245018	102.470	-0.120	-0.680	-0.240	102.590	-2.100	-0.100																			1580037663.0	0.45	0.83
26/01/2020 11:21:04	26012020	260120	112104	102.390	12.418773	-57.245020	102.330	-0.020	-0.420	0.310	102.360	-1.900	0.500																			1580037664.0	0.71	1.31
26/01/2020 11:21:05	26012020	260120	112105	102.330	12.418772	-57.245022	102.410	0.080	-0.150	0.720	102.340	-1.600	0.900																			1580037665.0	0.65	1.20
26/01/2020 11:21:06	26012020	260120	112106	102.460	12.418768	-57.245022	102.560	0.070	0.130	0.980	102.490	-1.400	1.300																			1580037666.0	0.46	0.85
26/01/2020 11:21:07	26012020	260120	112107	102.600	12.418768	-57.245022	102.660	-0.020	0.330	1.140	102.610	-1.100	1.500																			1580037667.0	0.25	0.46
26/01/2020 11:21:08	26012020	260120	112108	102.650	12.418768	-57.245022	102.680	-0.090	0.350	1.210	102.660	-1.000	1.600																			1580037668.0	0.06	0.11
26/01/2020 11:21:09	26012020	260120	112109	102.650	12.418768	-57.245022	102.640	-0.070	0.220	1.220	102.630	-1.100	1.600																			1580037669.0	0.12	0.22
26/01/2020 11:21:10	26012020	260120	112110	102.570	12.418768	-57.245022	102.540	-0.010	-0.030	1.190	102.550	-1.300	1.600																			1580037670.0	0.23	0.43
26/01/2020 11:21:11	26012020	260120	112111	102.470	12.418770	-57.245020	102.440	0.040	-0.340	1.100	102.450	-1.600	1.500																			1580037671.0	0.26	0.48
26/01/2020 11:21:12	26012020	260120	112112	102.380	12.418770	-57.245018	102.370	0.030	-0.510	0.930	102.360	-1.900	1.400																			1580037672.0	0.25	0.46
26/01/2020 11:21:13	26012020	260120	112113	102.330	12.418770	-57.245018	102.360	0.000	-0.430	0.690	102.330	-1.900	1.200																			1580037673.0	0.12	0.22
26/01/2020 11:21:14	26012020	260120	112114	102.350	12.418770	-57.245018	102.410	-0.030	-0.140	0.400	102.370	-1.700	0.900																			1580037674.0	0.15	0.28
26/01/2020 11:21:15	26012020	260120	112115	102.420	12.418772	-57.245020	102.480	-0.050	0.230	0.100	102.440	-1.300	0.600																			1580037675.0	0.39	0.72
26/01/2020 11:21:16	26012020	260120	112116	102.500	12.418773	-57.245022	102.500	-0.040	0.370	-0.090	102.500	-1.000	0.400																			1580037676.0	0.48	0.89
26/01/2020 11:21:17	26012020	260120	112117	102.490	12.418775	-57.245022	102.440	0.040	0.090	-0.190	102.480	-1.100	0.200																			1580037677.0	0.34	0.63
26/01/2020 11:21:18	26012020	260120	112118	102.410	12.418775	-57.245020	102.370	0.150	-0.470	-0.150	102.390	-1.600	0.200																			1580037678.0	0.38	0.70
26/01/2020 11:21:19	26012020	260120	112119	102.340	12.418775	-57.245017	102.280	0.220	-0.870	0.110	102.320	-2.100	0.400																			1580037679.0	0.57	1.06
26/01/2020 11:21:20	26012020	260120	112120	102.250	12.418773	-57.245017	102.250	0.160	-0.730	0.480	102.240	-2.200	0.700																			1580037680.0	0.45	0.83
26/01/2020 11:21:21	26012020	260120	112121	102.230	12.418773	-57.245017	102.300	0.000	-0.150	0.810	102.240	-1.800	1.100																			1580037681.0	0.34	0.63
26/01/2020 11:21:22	26012020	260120	112122	102.300	12.418772	-57.245020	102.410	-0.180	0.430	1.030	102.320	-1.200	1.300																			1580037682.0	0.54	1.00
26/01/2020 11:21:23	26012020	260120	112123	102.410	12.418772	-57.245022	102.510	-0.280	0.630	1.190	102.430	-0.800	1.500																			1580037683.0	0.48	0.89
26/01/2020 11:21:24	26012020	260120	112124	102.490	12.418770	-57.245022	102.550	-0.260	0.430	1.270	102.490	-0.800	1.600																			1580037684.0	0.31	0.57
26/01/2020 11:21:25	26012020	260120	112125	102.490	12.418768	-57.245022	102.540	-0.150	0.050	1.240	102.490	-1.200	1.600																			1580037685.0	0.29	0.54
26/01/2020 11:21:26	26012020	260120	112126	102.490	12.418768	-57.245020	102.560	-0.030	-0.300	1.070	102.500	-1.600	1.500																			1580037686.0	0.23	0.43
26/01/2020 11:21:27	26012020	260120	112127	102.530	12.418768	-57.245020	102.580	0.090	-0.500	0.850	102.540	-1.800	1.300																			1580037687.0	0.18	0.33
26/01/2020 11:21:28	26012020	260120	112128	102.540	12.418770	-57.245020	102.560	0.200	-0.550	0.590	102.530	-1.900	1.100																			1580037688.0	0.23	0.43
26/01/2020 11:21:29	26012020	260120	112129	102.520	12.418772	-57.245018	102.570	0.260	-0.460	0.270	102.530	-1.900	0.800																			1580037689.0	0.35	0.65
26/01/2020 11:21:30	26012020	260120	112130	102.560	12.418773	-57.245018	102.610	0.210	-0.220	0.030	102.570	-1.700	0.500																			1580037690.0	0.41	0.76
26/01/2020 11:21:31	26012020	260120	112131	102.590	12.418775	-57.245020	102.590	0.040	0.090	-0.010	102.590	-1.400	0.400																			1580037691.0	0.37	0.69
26/01/2020 11:21:32	26012020	260120	112132	102.540	12.418775	-57.245022	102.530	-0.140	0.240	0.110	102.530	-1.200	0.400																			1580037692.0	0.31	0.57
26/01/2020 11:21:33	26012020	260120	112133	102.490	12.418777	-57.245022	102.510	-0.230	0.130	0.260	102.490	-1.200	0.600																			1580037693.0	0.11	0.20
26/01/2020 11:21:34	26012020	260120	112134	102.500	12.418775	-57.245022	102.540	-0.160	-0.200	0.450	102.500	-1.400	0.800																			1580037694.0	0.23	0.43
26/01/2020 11:21:35	26012020	260120	112135	102.510	12.418773	-57.245020	102.520	0.010	-0.470	0.740	102.500	-1.800	1.000																			1580037695.0	0.53	0.98
26/01/2020 11:21:36	26012020	260120	112136	102.470	12.418770	-57.245018	102.510	0.150	-0.390	1.010	102.460	-1.800	1.300																			1580037696.0	0.54	1.00
26/01/2020 11:21:37	26012020	260120	112137	102.490	12.418770	-57.245020	102.590	0.110	0.060	1.100	102.500	-1.500	1.500																			1580037697.0	0.33	0.61
26/01/2020 11:21:38	26012020	260120	112138	102.610	12.418770	-57.245022	102.730	-0.070	0.520	1.030	102.640	-1.000	1.500																			1580037698.0	0.53	0.98
26/01/2020 11:21:39	26012020	260120	112139	102.730	12.418770	-57.245025	102.780	-0.190	0.520	0.910	102.750	-0.800	1.300																			1580037699.0	0.55	1.02
26/01/2020 11:21:40	26012020	260120	112140	102.730	12.418772	-57.245025	102.680	-0.130	-0.050	0.850	102.710	-1.200	1.300																			1580037700.0	0.11	0.20
26/01/2020 11:21:41	26012020	260120	112141	102.610	12.418770	-57.245022	102.490	0.040	-0.720	0.870	102.570	-1.900	1.200																			1580037701.0	0.50	0.93
26/01/2020 11:21:42	26012020	260120	112142	102.370	12.418770	-57.245020	102.300	0.150	-0.890	0.850	102.330	-2.300	1.300																			1580037702.0	0.49	0.91
26/01/2020 11:21:43	26012020	260120	112143	102.240	12.418770	-57.245020	102.250	0.120	-0.480	0.640	102.230	-2.100	1.100																			1580037703.0	0.10	0.19
26/01/2020 11:21:44	26012020	260120	112144	102.290	12.418772	-57.245022	102.380	0.000	0.080	0.300	102.320	-1.500	0.800																			1580037704.0	0.60	1.11
26/01/2020 11:21:45	26012020	260120	112145	102.460	12.418775	-57.245023	102.550	-0.060	0.300	0.020	102.500	-1.100	0.500																			1580037705.0	0.62	1.15
26/01/2020 11:21:46	26012020	260120	112146	102.610	12.418775	-57.245023	102.640	-0.040	0.120	-0.060	102.620	-1.200	0.300																			1580037706.0	0.25	0.46
26/01/2020 11:21:47	26012020	260120	112147	102.650	12.418775	-57.245022	102.590	0.010	-0.170	0.090	102.630	-1.400	0.400																			1580037707.0	0.31	0.57
26/01/2020 11:21:48	26012020	260120	112148	102.530	12.418775	-57.245022	102.410	-0.010	-0.270	0.430	102.490	-1.600	0.700																			1580037708.0	0.35	0.65
26/01/2020 11:21:49	26012020	260120	112149	102.330	12.418773	-57.245022	102.270	-0.080	-0.140	0.870	102.290	-1.600	1.100																			1580037709.0	0.39	0.72
26/01/2020 11:21:50	26012020	260120	112150	102.210	12.418770	-57.245023	102.260	-0.120	0.090	1.200	102.200	-1.400	1.500																			1580037710.0	0.53	0.98
26/01/2020 11:21:51	26012020	260120	112151	102.240	12.418768	-57.245023	102.360	-0.100	0.170	1.290	102.260	-1.200	1.700																			1580037711.0	0.46	0.85
26/01/2020 11:21:52	26012020	260120	112152	102.380	12.418768	-57.245025	102.500	-0.030	0.070	1.170	102.420	-1.300	1.600																			1580037712.0	0.23	0.43
26/01/2020 11:21:53	26012020	260120	112153	102.480	12.418768	-57.245025	102.560	0.030	-0.160	0.960	102.500	-1.400	1.400																			1580037713.0	0.07	0.13
26/01/2020 11:21:54	26012020	260120	112154	102.540	12.418768	-57.245023	102.580	0.100	-0.280	0.700	102.540	-1.600	1.200																			1580037714.0	0.21	0.39
26/01/2020 11:21:55	26012020	260120	112155	102.550	12.418770	-57.245023	102.550	0.170	-0.250	0.480	102.550	-1.600	0.900																			1580037715.0	0.36	0.67
26/01/2020 11:21:56	26012020	260120	112156	102.470	12.418772	-57.245023	102.430	0.240	-0.260	0.360	102.440	-1.600	0.800																			1580037716.0	0.40	0.74
26/01/2020 11:21:57	26012020	260120	112157	102.350	12.418773	-57.245023	102.320	0.260	-0.380	0.240	102.330	-1.700	0.700																			1580037717.0	0.32	0.59
26/01/2020 11:21:58	26012020	260120	112158	102.280	12.418775	-57.245022	102.260	0.160	-0.480	0.190	102.270	-1.800	0.600																			1580037718.0	0.39	0.72
26/01/2020 11:21:59	26012020	260120	112159	102.210	12.418775	-57.245022	102.230	-0.060	-0.360	0.320	102.200	-1.800	0.600																			1580037719.0	0.32	0.59
26/01/2020 11:22:00	26012020	260120	112200	102.230	12.418775	-57.245022	102.330	-0.350	0.100	0.530	102.250	-1.500	0.800	1014.90	25.80	25.80	18.70	18.70	131.00	65.00	65.00	376.00	26.10	355.00	7.00	98.00	6.90	10992	3140.00	27.40	27.40	1580037720.0	0.20	0.37
26/01/2020 11:22:01	26012020	260120	112201	102.380	12.418772	-57.245023	102.490	-0.580	0.590	0.750	102.400	-0.900	1.100																			1580037721.0	0.66	1.22
26/01/2020 11:22:02	26012020	260120	112202	102.510	12.418770	-57.245025	102.580	-0.590	0.690	0.880	102.530	-0.700	1.200																			1580037722.0	0.76	1.41
26/01/2020 11:22:03	26012020	260120	112203	102.600	12.418768	-57.245027	102.670	-0.310	0.270	0.820	102.620	-0.900	1.200																			1580037723.0	0.43	0.80
26/01/2020 11:22:04	26012020	260120	112204	102.640	12.418767	-57.245025	102.650	0.140	-0.410	0.730	102.640	-1.500	1.200																			1580037724.0	0.39	0.72
26/01/2020 11:22:05	26012020	260120	112205	102.620	12.418767	-57.245022	102.660	0.530	-0.830	0.630	102.620	-2.100	1.100																			1580037725.0	0.57	1.06
26/01/2020 11:22:06	26012020	260120	112206	102.630	12.418768	-57.245020	102.680	0.660	-0.710	0.510	102.640	-2.200	1.000																			1580037726.0	0.37	0.69
26/01/2020 11:22:07	26012020	260120	112207	102.640	12.418770	-57.245022	102.640	0.510	-0.250	0.420	102.630	-1.800	0.900																			1580037727.0	0.48	0.89
26/01/2020 11:22:08	26012020	260120	112208	102.590	12.418773	-57.245023	102.590	0.220	0.130	0.290	102.570	-1.400	0.700																			1580037728.0	0.61	1.13
26/01/2020 11:22:09	26012020	260120	112209	102.530	12.418775	-57.245023	102.510	-0.060	0.220	0.290	102.510	-1.100	0.700																			1580037729.0	0.45	0.83
26/01/2020 11:22:10	26012020	260120	112210	102.470	12.418775	-57.245023	102.530	-0.210	0.070	0.420	102.470	-1.200	0.800																			1580037730.0	0.10	0.19
26/01/2020 11:22:11	26012020	260120	112211	102.520	12.418773	-57.245023	102.620	-0.240	-0.170	0.580	102.540	-1.400	0.900																			1580037731.0	0.34	0.63
26/01/2020 11:22:12	26012020	260120	112212	102.620	12.418772	-57.245022	102.720	-0.210	-0.310	0.710	102.640	-1.600	1.100																			1580037732.0	0.49	0.91
26/01/2020 11:22:13	26012020	260120	112213	102.720	12.418770	-57.245022	102.790	-0.190	-0.270	0.810	102.730	-1.700	1.200																			1580037733.0	0.44	0.81
26/01/2020 11:22:14	26012020	260120	112214	102.780	12.418768	-57.245022	102.830	-0.210	-0.080	0.860	102.780	-1.500	1.200																			1580037734.0	0.31	0.57
26/01/2020 11:22:15	26012020	260120	112215	102.770	12.418768	-57.245023	102.790	-0.220	0.090	0.870	102.760	-1.300	1.300																			1580037735.0	0.23	0.43
26/01/2020 11:22:16	26012020	260120	112216	102.720	12.418768	-57.245023	102.730	-0.220	0.090	0.840	102.710	-1.300	1.300																			1580037736.0	0.14	0.26
26/01/2020 11:22:17	26012020	260120	112217	102.690	12.418768	-57.245023	102.710	-0.170	-0.030	0.730	102.680	-1.400	1.200																			1580037737.0	0.04	0.07
26/01/2020 11:22:18	26012020	260120	112218	102.700	12.418768	-57.245023	102.720	-0.070	-0.140	0.570	102.700	-1.500	1.000																			1580037738.0	0.12	0.22
26/01/2020 11:22:19	26012020	260120	112219	102.720	12.418768	-57.245023	102.760	0.080	-0.120	0.350	102.730	-1.500	0.800																			1580037739.0	0.10	0.19
26/01/2020 11:22:20	26012020	260120	112220	102.810	12.418770	-57.245023	102.890	0.270	-0.010	0.100	102.840	-1.400	0.600																			1580037740.0	0.19	0.35
26/01/2020 11:22:21	26012020	260120	112221	102.930	12.418770	-57.245023	103.000	0.510	-0.020	-0.150	102.950	-1.400	0.300																			1580037741.0	0.36	0.67
26/01/2020 11:22:22	26012020	260120	112222	103.010	12.418773	-57.245023	103.000	0.730	-0.270	-0.260	103.010	-1.500	0.200																			1580037742.0	0.49	0.91
26/01/2020 11:22:23	26012020	260120	112223	102.950	12.418775	-57.245022	102.920	0.740	-0.550	-0.130	102.940	-1.800	0.200																			1580037743.0	0.58	1.07
26/01/2020 11:22:24	26012020	260120	112224	102.870	12.418777	-57.245020	102.880	0.400	-0.560	0.240	102.860	-2.000	0.500																			1580037744.0	0.40	0.74
26/01/2020 11:22:25	26012020	260120	112225	102.850	12.418775	-57.245020	102.910	-0.230	-0.260	0.800	102.850	-1.800	0.900																			1580037745.0	0.17	0.31
26/01/2020 11:22:26	26012020	260120	112226	102.870	12.418772	-57.245022	102.920	-0.860	0.090	1.490	102.870	-1.400	1.600																			1580037746.0	0.83	1.54
26/01/2020 11:22:27	26012020	260120	112227	102.840	12.418767	-57.245025	102.860	-1.190	0.260	2.110	102.830	-1.100	2.300																			1580037747.0	1.29	2.39
26/01/2020 11:22:28	26012020	260120	112228	102.760	12.418760	-57.245027	102.790	-1.050	0.220	2.400	102.740	-1.100	2.700																			1580037748.0	1.33	2.46
26/01/2020 11:22:29	26012020	260120	112229	102.710	12.418757	-57.245027	102.780	-0.510	0.100	2.220	102.720	-1.200	2.700																			1580037749.0	0.98	1.81
26/01/2020 11:22:30	26012020	260120	112230	102.770	12.418755	-57.245027	102.880	0.160	0.020	1.560	102.790	-1.300	2.300																			1580037750.0	0.29	0.54
26/01/2020 11:22:31	26012020	260120	112231	102.930	12.418758	-57.245025	103.050	0.640	-0.020	0.520	102.960	-1.400	1.400																			1580037751.0	0.69	1.28
26/01/2020 11:22:32	26012020	260120	112232	103.130	12.418765	-57.245023	103.220	0.770	-0.090	-0.630	103.170	-1.400	0.200																			1580037752.0	1.47	2.72
26/01/2020 11:22:33	26012020	260120	112233	103.280	12.418773	-57.245023	103.320	0.670	-0.180	-1.480	103.300	-1.500	-0.800																			1580037753.0	1.71	3.17
26/01/2020 11:22:34	26012020	260120	112234	103.350	12.418778	-57.245022	103.270	0.530	-0.290	-1.710	103.340	-1.600	-1.300																			1580037754.0	1.31	2.43
26/01/2020 11:22:35	26012020	260120	112235	103.240	12.418782	-57.245022	103.090	0.410	-0.450	-1.240	103.200	-1.700	-1.100																			1580037755.0	0.50	0.93
26/01/2020 11:22:36	26012020	260120	112236	102.990	12.418780	-57.245022	102.830	0.220	-0.550	-0.290	102.940	-1.900	-0.300																			1580037756.0	0.36	0.67
26/01/2020 11:22:37	26012020	260120	112237	102.710	12.418775	-57.245022	102.640	-0.110	-0.470	0.860	102.670	-1.900	0.800																			1580037757.0	0.98	1.81
26/01/2020 11:22:38	26012020	260120	112238	102.540	12.418768	-57.245023	102.560	-0.470	-0.220	1.980	102.520	-1.700	1.900																			1580037758.0	1.38	2.56
26/01/2020 11:22:39	26012020	260120	112239	102.480	12.418762	-57.245025	102.560	-0.670	0.080	2.800	102.470	-1.400	2.900																			1580037759.0	1.55	2.87
26/01/2020 11:22:40	26012020	260120	112240	102.490	12.418757	-57.245027	102.610	-0.620	0.310	3.050	102.510	-1.100	3.400																			1580037760.0	1.28	2.37
26/01/2020 11:22:41	26012020	260120	112241	102.600	12.418753	-57.245028	102.740	-0.400	0.390	2.700	102.630	-1.000	3.300																			1580037761.0	0.60	1.11
26/01/2020 11:22:42	26012020	260120	112242	102.770	12.418753	-57.245028	102.900	-0.150	0.340	1.840	102.810	-1.000	2.600																			1580037762.0	0.16	0.30
26/01/2020 11:22:43	26012020	260120	112243	102.900	12.418758	-57.245027	103.020	0.060	0.220	0.690	102.940	-1.100	1.600																			1580037763.0	0.84	1.56
26/01/2020 11:22:44	26012020	260120	112244	103.070	12.418763	-57.245027	103.100	0.250	-0.040	-0.490	103.090	-1.300	0.400																			1580037764.0	1.34	2.48
26/01/2020 11:22:45	26012020	260120	112245	103.100	12.418770	-57.245025	102.990	0.420	-0.480	-1.290	103.090	-1.700	-0.600																			1580037765.0	1.45	2.69
26/01/2020 11:22:46	26012020	260120	112246	102.930	12.418775	-57.245022	102.760	0.500	-0.830	-1.530	102.870	-2.100	-1.100																			1580037766.0	1.10	2.04
26/01/2020 11:22:47	26012020	260120	112247	102.650	12.418777	-57.245022	102.480	0.390	-0.810	-1.300	102.600	-2.200	-1.000																			1580037767.0	0.54	1.00
26/01/2020 11:22:48	26012020	260120	112248	102.390	12.418777	-57.245022	102.290	0.120	-0.500	-0.660	102.350	-2.000	-0.600																			1580037768.0	0.13	0.24
26/01/2020 11:22:49	26012020	260120	112249	102.260	12.418773	-57.245023	102.280	-0.140	-0.050	0.200	102.250	-1.600	0.200																			1580037769.0	0.75	1.39
26/01/2020 11:22:50	26012020	260120	112250	102.320	12.418768	-57.245025	102.460	-0.230	0.350	1.000	102.350	-1.200	1.100																			1580037770.0	1.08	2.00
26/01/2020 11:22:51	26012020	260120	112251	102.510	12.418765	-57.245027	102.640	-0.140	0.430	1.690	102.540	-0.900	1.800																			1580037771.0	1.09	2.02
26/01/2020 11:22:52	26012020	260120	112252	102.600	12.418760	-57.245027	102.660	0.030	0.190	2.170	102.600	-1.100	2.400																			1580037772.0	0.93	1.72
26/01/2020 11:22:53	26012020	260120	112253	102.590	12.418757	-57.245027	102.660	0.100	-0.040	2.290	102.590	-1.300	2.700																			1580037773.0	0.65	1.20
26/01/2020 11:22:54	26012020	260120	112254	102.630	12.418757	-57.245025	102.750	0.040	-0.020	2.040	102.660	-1.400	2.600																			1580037774.0	0.17	0.31
26/01/2020 11:22:55	26012020	260120	112255	102.740	12.418758	-57.245027	102.860	-0.080	0.110	1.590	102.760	-1.300	2.200																			1580037775.0	0.42	0.78
26/01/2020 11:22:56	26012020	260120	112256	102.850	12.418762	-57.245027	102.880	-0.140	-0.030	1.070	102.860	-1.300	1.700																			1580037776.0	0.69	1.28
26/01/2020 11:22:57	26012020	260120	112257	102.840	12.418765	-57.245027	102.760	-0.100	-0.450	0.550	102.820	-1.600	1.200																			1580037777.0	0.63	1.17
26/01/2020 11:22:58	26012020	260120	112258	102.680	12.418767	-57.245025	102.600	-0.070	-0.750	0.090	102.650	-2.000	0.700																			1580037778.0	0.61	1.13
26/01/2020 11:22:59	26012020	260120	112259	102.560	12.418767	-57.245023	102.510	-0.080	-0.640	-0.220	102.540	-2.100	0.300																			1580037779.0	0.36	0.67
26/01/2020 11:23:00	26012020	260120	112300	102.510	12.418768	-57.245023	102.570	-0.120	-0.190	-0.440	102.530	-1.800	0.000	1014.90	25.70	25.80	18.70	18.70	130.00	65.00	65.00	376.00	26.10	359.00	7.10	102.00	6.80	11156	3196.00	27.40	27.40	1580037780.0	0.19	0.35
26/01/2020 11:23:01	26012020	260120	112301	102.630	12.418768	-57.245025	102.710	-0.060	0.230	-0.590	102.660	-1.300	-0.100																			1580037781.0	0.38	0.70
26/01/2020 11:23:02	26012020	260120	112302	102.740	12.418768	-57.245027	102.760	0.140	0.270	-0.510	102.750	-1.100	-0.200																			1580037782.0	0.24	0.44
26/01/2020 11:23:03	26012020	260120	112303	102.750	12.418768	-57.245025	102.750	0.360	0.000	-0.260	102.740	-1.200	0.000																			1580037783.0	0.18	0.33
26/01/2020 11:23:04	26012020	260120	112304	102.750	12.418768	-57.245023	102.790	0.450	-0.180	0.090	102.760	-1.500	0.400																			1580037784.0	0.39	0.72
26/01/2020 11:23:05	26012020	260120	112305	102.810	12.418768	-57.245023	102.880	0.340	-0.110	0.520	102.820	-1.500	0.700																			1580037785.0	0.15	0.28
26/01/2020 11:23:06	26012020	260120	112306	102.880	12.418767	-57.245025	102.950	0.080	0.040	1.040	102.890	-1.400	1.200																			1580037786.0	0.26	0.48
26/01/2020 11:23:07	26012020	260120	112307	102.920	12.418765	-57.245025	103.000	-0.210	0.070	1.600	102.930	-1.300	1.800																			1580037787.0	0.50	0.93
26/01/2020 11:23:08	26012020	260120	112308	102.950	12.418762	-57.245027	103.030	-0.390	-0.010	2.050	102.950	-1.300	2.300																			1580037788.0	0.73	1.35
26/01/2020 11:23:09	26012020	260120	112309	102.980	12.418758	-57.245028	103.070	-0.440	-0.130	2.290	102.980	-1.500	2.600																			1580037789.0	0.83	1.54
26/01/2020 11:23:10	26012020	260120	112310	103.000	12.418755	-57.245028	103.070	-0.380	-0.220	2.240	103.000	-1.600	2.700																			1580037790.0	0.69	1.28
26/01/2020 11:23:11	26012020	260120	112311	103.000	12.418755	-57.245030	103.050	-0.220	-0.280	1.810	103.000	-1.600	2.400																			1580037791.0	0.30	0.56
26/01/2020 11:23:12	26012020	260120	112312	103.000	12.418755	-57.245028	103.040	0.030	-0.310	1.050	103.010	-1.700	1.800																			1580037792.0	0.29	0.54
26/01/2020 11:23:13	26012020	260120	112313	103.030	12.418760	-57.245028	103.050	0.270	-0.250	0.100	103.040	-1.700	0.900																			1580037793.0	0.84	1.56
26/01/2020 11:23:14	26012020	260120	112314	103.090	12.418765	-57.245027	103.080	0.400	-0.140	-0.830	103.100	-1.600	-0.100																			1580037794.0	1.20	2.22
26/01/2020 11:23:15	26012020	260120	112315	103.120	12.418772	-57.245027	103.090	0.380	-0.080	-1.470	103.130	-1.500	-0.900																			1580037795.0	1.36	2.52
26/01/2020 11:23:16	26012020	260120	112316	103.120	12.418777	-57.245025	103.070	0.250	-0.170	-1.640	103.120	-1.500	-1.200																			1580037796.0	1.11	2.06
26/01/2020 11:23:17	26012020	260120	112317	103.090	12.418778	-57.245023	103.060	0.050	-0.260	-1.270	103.090	-1.600	-1.100																			1580037797.0	0.47	0.87
26/01/2020 11:23:18	26012020	260120	112318	103.060	12.418775	-57.245023	103.030	-0.160	-0.180	-0.390	103.050	-1.600	-0.400																			1580037798.0	0.51	0.94
26/01/2020 11:23:19	26012020	260120	112319	103.000	12.418770	-57.245025	102.990	-0.350	0.070	0.810	102.990	-1.400	0.700																			1580037799.0	1.28	2.37
26/01/2020 11:23:20	26012020	260120	112320	102.950	12.418762	-57.245028	103.010	-0.430	0.340	1.870	102.960	-1.100	1.900																			1580037800.0	1.70	3.15
26/01/2020 11:23:21	26012020	260120	112321	102.990	12.418757	-57.245032	103.120	-0.310	0.400	2.460	103.010	-1.000	2.700																			1580037801.0	1.47	2.72
26/01/2020 11:23:22	26012020	260120	112322	103.110	12.418753	-57.245032	103.220	-0.030	0.160	2.610	103.130	-1.100	3.000																			1580037802.0	0.82	1.52
26/01/2020 11:23:23	26012020	260120	112323	103.170	12.418752	-57.245032	103.220	0.270	-0.260	2.370	103.170	-1.500	2.900																			1580037803.0	0.23	0.43
26/01/2020 11:23:24	26012020	260120	112324	103.160	12.418753	-57.245030	103.180	0.420	-0.590	1.830	103.150	-1.900	2.500																			1580037804.0	0.48	0.89
26/01/2020 11:23:25	26012020	260120	112325	103.100	12.418757	-57.245028	103.070	0.340	-0.680	1.140	103.080	-2.000	1.800																			1580037805.0	0.86	1.59
26/01/2020 11:23:26	26012020	260120	112326	103.000	12.418762	-57.245028	102.960	0.120	-0.490	0.420	102.980	-2.000	1.100																			1580037806.0	0.97	1.80
26/01/2020 11:23:27	26012020	260120	112327	102.930	12.418765	-57.245028	102.880	-0.110	-0.120	-0.220	102.920	-1.600	0.400																			1580037807.0	0.91	1.69
26/01/2020 11:23:28	26012020	260120	112328	102.830	12.418768	-57.245028	102.740	-0.240	0.140	-0.590	102.800	-1.300	-0.100																			1580037808.0	0.69	1.28
26/01/2020 11:23:29	26012020	260120	112329	102.680	12.418770	-57.245028	102.620	-0.240	0.190	-0.700	102.660	-1.200	-0.300																			1580037809.0	0.28	0.52
26/01/2020 11:23:30	26012020	260120	112330	102.600	12.418770	-57.245028	102.600	-0.150	0.170	-0.610	102.590	-1.200	-0.300																			1580037810.0	0.10	0.19
26/01/2020 11:23:31	26012020	260120	112331	102.620	12.418768	-57.245028	102.680	-0.040	0.150	-0.410	102.640	-1.200	-0.100																			1580037811.0	0.19	0.35
26/01/2020 11:23:32	26012020	260120	112332	102.730	12.418768	-57.245028	102.820	0.080	0.000	-0.100	102.760	-1.300	0.200																			1580037812.0	0.24	0.44
26/01/2020 11:23:33	26012020	260120	112333	102.810	12.418767	-57.245028	102.850	0.220	-0.300	0.400	102.820	-1.500	0.600																			1580037813.0	0.32	0.59
26/01/2020 11:23:34	26012020	260120	112334	102.800	12.418763	-57.245027	102.800	0.320	-0.540	1.080	102.780	-1.800	1.200																			1580037814.0	0.54	1.00
26/01/2020 11:23:35	26012020	260120	112335	102.710	12.418762	-57.245027	102.640	0.280	-0.550	1.760	102.680	-1.900	1.900																			1580037815.0	0.65	1.20
26/01/2020 11:23:36	26012020	260120	112336	102.530	12.418758	-57.245028	102.530	0.050	-0.330	2.300	102.500	-1.800	2.500																			1580037816.0	0.70	1.30
26/01/2020 11:23:37	26012020	260120	112337	102.420	12.418755	-57.245028	102.460	-0.250	-0.010	2.490	102.410	-1.500	2.900																			1580037817.0	0.62	1.15
26/01/2020 11:23:38	26012020	260120	112338	102.390	12.418753	-57.245030	102.470	-0.420	0.270	2.250	102.400	-1.200	2.800																			1580037818.0	0.37	0.69
26/01/2020 11:23:39	26012020	260120	112339	102.450	12.418755	-57.245032	102.550	-0.340	0.380	1.660	102.470	-1.000	2.300																			1580037819.0	0.20	0.37
26/01/2020 11:23:40	26012020	260120	112340	102.560	12.418757	-57.245030	102.670	-0.070	0.260	0.850	102.590	-1.000	1.600																			1580037820.0	0.50	0.93
26/01/2020 11:23:41	26012020	260120	112341	102.710	12.418760	-57.245028	102.780	0.190	0.010	-0.050	102.730	-1.300	0.700																			1580037821.0	0.83	1.54
26/01/2020 11:23:42	26012020	260120	112342	102.840	12.418765	-57.245027	102.890	0.300	-0.180	-0.900	102.870	-1.500	-0.200																			1580037822.0	1.13	2.09
26/01/2020 11:23:43	26012020	260120	112343	102.950	12.418772	-57.245027	102.960	0.230	-0.280	-1.390	102.960	-1.600	-0.900																			1580037823.0	1.24	2.30
26/01/2020 11:23:44	26012020	260120	112344	102.960	12.418775	-57.245025	102.860	0.060	-0.410	-1.190	102.940	-1.700	-1.000																			1580037824.0	0.81	1.50
26/01/2020 11:23:45	26012020	260120	112345	102.830	12.418773	-57.245027	102.640	-0.090	-0.600	-0.310	102.780	-1.900	-0.300																			1580037825.0	0.19	0.35
26/01/2020 11:23:46	26012020	260120	112346	102.510	12.418768	-57.245027	102.420	-0.140	-0.680	0.810	102.460	-2.000	0.800																			1580037826.0	1.10	2.04
26/01/2020 11:23:47	26012020	260120	112347	102.340	12.418762	-57.245027	102.350	-0.120	-0.500	1.760	102.320	-2.000	1.800																			1580037827.0	1.45	2.69
26/01/2020 11:23:48	26012020	260120	112348	102.310	12.418757	-57.245028	102.450	-0.070	-0.090	2.280	102.320	-1.600	2.500																			1580037828.0	1.26	2.33
26/01/2020 11:23:49	26012020	260120	112349	102.430	12.418753	-57.245030	102.680	-0.020	0.400	2.310	102.480	-1.200	2.700																			1580037829.0	0.76	1.41
26/01/2020 11:23:50	26012020	260120	112350	102.730	12.418753	-57.245030	102.900	0.030	0.690	1.920	102.770	-0.800	2.500																			1580037830.0	0.28	0.52
26/01/2020 11:23:51	26012020	260120	112351	102.950	12.418757	-57.245032	103.080	0.080	0.610	1.200	102.980	-0.700	1.900																			1580037831.0	0.60	1.11
26/01/2020 11:23:52	26012020	260120	112352	103.130	12.418760	-57.245030	103.230	0.100	0.210	0.430	103.160	-1.000	1.100																			1580037832.0	1.01	1.87
26/01/2020 11:23:53	26012020	260120	112353	103.240	12.418765	-57.245027	103.250	0.080	-0.270	-0.140	103.240	-1.500	0.500																			1580037833.0	1.06	1.96
26/01/2020 11:23:54	26012020	260120	112354	103.210	12.418768	-57.245027	103.130	0.030	-0.600	-0.350	103.180	-1.900	0.100																			1580037834.0	0.73	1.35
26/01/2020 11:23:55	26012020	260120	112355	103.030	12.418768	-57.245025	102.910	-0.030	-0.750	-0.240	102.980	-2.100	0.100																			1580037835.0	0.20	0.37
26/01/2020 11:23:56	26012020	260120	112356	102.810	12.418768	-57.245025	102.750	-0.050	-0.730	0.030	102.770	-2.100	0.300																			1580037836.0	0.20	0.37
26/01/2020 11:23:57	26012020	260120	112357	102.700	12.418767	-57.245025	102.750	-0.060	-0.500	0.360	102.710	-2.000	0.600																			1580037837.0	0.42	0.78
26/01/2020 11:23:58	26012020	260120	112358	102.760	12.418763	-57.245027	102.850	-0.100	-0.050	0.680	102.780	-1.600	1.000																			1580037838.0	0.50	0.93
26/01/2020 11:23:59	26012020	260120	112359	102.850	12.418762	-57.245028	102.920	-0.170	0.390	0.930	102.870	-1.100	1.200																			1580037839.0	0.48	0.89
26/01/2020 11:24:00	26012020	260120	112400	102.870	12.418762	-57.245030	102.890	-0.170	0.510	1.060	102.860	-0.900	1.400	1015.00	25.70	25.80	18.60	18.60	129.00	64.00	64.00	376.00	26.10	351.00	7.30	94.00	7.00	11316	3252.00	27.40	27.40	1580037840.0	0.33	0.61
26/01/2020 11:24:01	26012020	260120	112401	102.830	12.418762	-57.245030	102.840	-0.080	0.290	1.070	102.820	-1.000	1.500																			1580037841.0	0.11	0.20
26/01/2020 11:24:02	26012020	260120	112402	102.830	12.418762	-57.245028	102.910	0.070	-0.060	1.020	102.840	-1.300	1.400																			1580037842.0	0.29	0.54
26/01/2020 11:24:03	26012020	260120	112403	102.930	12.418762	-57.245027	103.000	0.200	-0.320	0.940	102.950	-1.600	1.400																			1580037843.0	0.29	0.54
26/01/2020 11:24:04	26012020	260120	112404	102.980	12.418762	-57.245027	103.010	0.300	-0.410	0.840	102.980	-1.800	1.300																			1580037844.0	0.20	0.37
26/01/2020 11:24:05	26012020	260120	112405	102.970	12.418763	-57.245025	103.000	0.290	-0.350	0.640	102.970	-1.800	1.100																			1580037845.0	0.31	0.57
26/01/2020 11:24:06	26012020	260120	112406	102.980	12.418765	-57.245025	103.030	0.120	-0.190	0.500	102.980	-1.600	0.900																			1580037846.0	0.37	0.69
26/01/2020 11:24:07	26012020	260120	112407	102.990	12.418765	-57.245027	103.010	-0.130	-0.010	0.490	102.990	-1.400	0.900																			1580037847.0	0.28	0.52
26/01/2020 11:24:08	26012020	260120	112408	102.960	12.418765	-57.245028	102.940	-0.310	0.020	0.630	102.950	-1.300	1.000																			1580037848.0	0.22	0.41
26/01/2020 11:24:09	26012020	260120	112409	102.830	12.418765	-57.245028	102.760	-0.330	-0.160	0.860	102.790	-1.500	1.200																			1580037849.0	0.24	0.44
26/01/2020 11:24:10	26012020	260120	112410	102.630	12.418763	-57.245027	102.600	-0.240	-0.310	1.060	102.600	-1.700	1.400																			1580037850.0	0.49	0.91
26/01/2020 11:24:11	26012020	260120	112411	102.550	12.418760	-57.245027	102.620	-0.140	-0.180	1.100	102.540	-1.600	1.500																			1580037851.0	0.43	0.80
26/01/2020 11:24:12	26012020	260120	112412	102.640	12.418760	-57.245027	102.780	-0.050	0.100	0.900	102.670	-1.400	1.400																			1580037852.0	0.19	0.35
26/01/2020 11:24:13	26012020	260120	112413	102.790	12.418762	-57.245028	102.940	0.070	0.190	0.530	102.830	-1.200	1.100																			1580037853.0	0.31	0.57
26/01/2020 11:24:14	26012020	260120	112414	102.950	12.418763	-57.245027	102.960	0.230	0.010	0.210	102.950	-1.300	0.700																			1580037854.0	0.46	0.85
26/01/2020 11:24:15	26012020	260120	112415	102.930	12.418765	-57.245027	102.910	0.360	-0.210	0.060	102.910	-1.500	0.500																			1580037855.0	0.50	0.93
26/01/2020 11:24:16	26012020	260120	112416	102.860	12.418767	-57.245025	102.850	0.370	-0.290	0.070	102.850	-1.700	0.500																			1580037856.0	0.39	0.72
26/01/2020 11:24:17	26012020	260120	112417	102.820	12.418768	-57.245025	102.810	0.260	-0.280	0.200	102.810	-1.700	0.500																			1580037857.0	0.27	0.50
26/01/2020 11:24:18	26012020	260120	112418	102.770	12.418768	-57.245025	102.760	0.070	-0.270	0.390	102.760	-1.700	0.700																			1580037858.0	0.15	0.28
26/01/2020 11:24:19	26012020	260120	112419	102.710	12.418768	-57.245025	102.700	-0.130	-0.280	0.700	102.700	-1.700	1.000																			1580037859.0	0.07	0.13
26/01/2020 11:24:20	26012020	260120	112420	102.650	12.418767	-57.245025	102.670	-0.300	-0.200	1.130	102.630	-1.600	1.400																			1580037860.0	0.43	0.80
26/01/2020 11:24:21	26012020	260120	112421	102.620	12.418763	-57.245025	102.680	-0.420	0.050	1.550	102.620	-1.400	1.800																			1580037861.0	0.74	1.37
26/01/2020 11:24:22	26012020	260120	112422	102.640	12.418760	-57.245027	102.710	-0.450	0.320	1.740	102.650	-1.200	2.100																			1580037862.0	0.83	1.54
26/01/2020 11:24:23	26012020	260120	112423	102.700	12.418758	-57.245028	102.770	-0.330	0.370	1.590	102.710	-1.000	2.100																			1580037863.0	0.55	1.02
26/01/2020 11:24:24	26012020	260120	112424	102.760	12.418758	-57.245028	102.820	-0.050	0.100	1.140	102.770	-1.100	1.700																			1580037864.0	0.06	0.11
26/01/2020 11:24:25	26012020	260120	112425	102.800	12.418760	-57.245027	102.830	0.300	-0.330	0.520	102.810	-1.500	1.200																			1580037865.0	0.65	1.20
26/01/2020 11:24:26	26012020	260120	112426	102.820	12.418765	-57.245023	102.820	0.530	-0.620	-0.040	102.820	-1.900	0.600																			1580037866.0	0.98	1.81
26/01/2020 11:24:27	26012020	260120	112427	102.790	12.418768	-57.245022	102.740	0.500	-0.610	-0.330	102.770	-2.000	0.200																			1580037867.0	0.91	1.69
26/01/2020 11:24:28	26012020	260120	112428	102.700	12.418770	-57.245022	102.670	0.230	-0.310	-0.320	102.680	-1.800	0.100																			1580037868.0	0.52	0.96
26/01/2020 11:24:29	26012020	260120	112429	102.650	12.418772	-57.245023	102.650	-0.120	0.070	-0.140	102.650	-1.400	0.200																			1580037869.0	0.31	0.57
26/01/2020 11:24:30	26012020	260120	112430	102.650	12.418770	-57.245025	102.620	-0.330	0.210	0.230	102.640	-1.200	0.500																			1580037870.0	0.34	0.63
26/01/2020 11:24:31	26012020	260120	112431	102.550	12.418768	-57.245025	102.490	-0.320	0.050	0.780	102.520	-1.200	0.900																			1580037871.0	0.50	0.93
26/01/2020 11:24:32	26012020	260120	112432	102.400	12.418765	-57.245025	102.410	-0.160	-0.100	1.230	102.390	-1.400	1.500																			1580037872.0	0.76	1.41
26/01/2020 11:24:33	26012020	260120	112433	102.380	12.418762	-57.245023	102.480	-0.010	-0.090	1.440	102.400	-1.500	1.800																			1580037873.0	0.59	1.09
26/01/2020 11:24:34	26012020	260120	112434	102.520	12.418762	-57.245025	102.680	0.050	0.020	1.420	102.560	-1.400	1.900																			1580037874.0	0.24	0.44
26/01/2020 11:24:35	26012020	260120	112435	102.700	12.418762	-57.245025	102.890	0.040	0.040	1.200	102.750	-1.300	1.700																			1580037875.0	0.16	0.30
26/01/2020 11:24:36	26012020	260120	112436	102.930	12.418763	-57.245025	102.970	0.020	-0.090	0.900	102.950	-1.400	1.400																			1580037876.0	0.33	0.61
26/01/2020 11:24:37	26012020	260120	112437	102.960	12.418765	-57.245023	102.870	0.020	-0.280	0.700	102.940	-1.600	1.200																			1580037877.0	0.31	0.57
26/01/2020 11:24:38	26012020	260120	112438	102.770	12.418765	-57.245023	102.620	0.040	-0.420	0.670	102.710	-1.800	1.100																			1580037878.0	0.21	0.39
26/01/2020 11:24:39	26012020	260120	112439	102.550	12.418765	-57.245023	102.370	0.070	-0.450	0.690	102.490	-1.800	1.100																			1580037879.0	0.13	0.24
26/01/2020 11:24:40	26012020	260120	112440	102.300	12.418765	-57.245023	102.270	0.060	-0.300	0.610	102.280	-1.800	1.100																			1580037880.0	0.08	0.15
26/01/2020 11:24:41	26012020	260120	112441	102.290	12.418767	-57.245022	102.360	-0.020	-0.030	0.370	102.310	-1.500	0.900																			1580037881.0	0.23	0.43
26/01/2020 11:24:42	26012020	260120	112442	102.420	12.418768	-57.245023	102.480	-0.110	0.190	0.100	102.450	-1.300	0.600																			1580037882.0	0.39	0.72
26/01/2020 11:24:43	26012020	260120	112443	102.540	12.418770	-57.245023	102.600	-0.160	0.270	-0.030	102.570	-1.100	0.400																			1580037883.0	0.30	0.56
26/01/2020 11:24:44	26012020	260120	112444	102.650	12.418770	-57.245023	102.680	-0.130	0.230	0.000	102.670	-1.100	0.400																			1580037884.0	0.07	0.13
26/01/2020 11:24:45	26012020	260120	112445	102.720	12.418770	-57.245023	102.710	-0.010	0.030	0.210	102.720	-1.200	0.500																			1580037885.0	0.14	0.26
26/01/2020 11:24:46	26012020	260120	112446	102.700	12.418768	-57.245022	102.680	0.150	-0.270	0.520	102.690	-1.500	0.800																			1580037886.0	0.28	0.52
26/01/2020 11:24:47	26012020	260120	112447	102.660	12.418767	-57.245022	102.650	0.230	-0.460	0.820	102.660	-1.800	1.100																			1580037887.0	0.28	0.52
26/01/2020 11:24:48	26012020	260120	112448	102.640	12.418767	-57.245022	102.640	0.150	-0.430	1.150	102.630	-1.800	1.400																			1580037888.0	0.15	0.28
26/01/2020 11:24:49	26012020	260120	112449	102.600	12.418765	-57.245022	102.580	-0.060	-0.290	1.450	102.590	-1.700	1.700																			1580037889.0	0.26	0.48
26/01/2020 11:24:50	26012020	260120	112450	102.500	12.418765	-57.245023	102.440	-0.220	-0.180	1.620	102.470	-1.600	2.000																			1580037890.0	0.38	0.70
26/01/2020 11:24:51	26012020	260120	112451	102.340	12.418763	-57.245023	102.300	-0.200	-0.150	1.590	102.310	-1.500	2.000																			1580037891.0	0.31	0.57
26/01/2020 11:24:52	26012020	260120	112452	102.240	12.418763	-57.245022	102.280	-0.030	-0.050	1.290	102.240	-1.500	1.800																			1580037892.0	0.17	0.31
26/01/2020 11:24:53	26012020	260120	112453	102.320	12.418765	-57.245022	102.440	0.110	0.170	0.750	102.350	-1.300	1.400																			1580037893.0	0.36	0.67
26/01/2020 11:24:54	26012020	260120	112454	102.510	12.418767	-57.245022	102.620	0.170	0.250	0.090	102.550	-1.100	0.800																			1580037894.0	0.67	1.24
26/01/2020 11:24:55	26012020	260120	112455	102.670	12.418772	-57.245022	102.740	0.150	0.080	-0.500	102.700	-1.200	0.100																			1580037895.0	0.83	1.54
26/01/2020 11:24:56	26012020	260120	112456	102.760	12.418775	-57.245020	102.750	0.050	-0.150	-0.760	102.760	-1.400	-0.300																			1580037896.0	0.76	1.41
26/01/2020 11:24:57	26012020	260120	112457	102.710	12.418775	-57.245018	102.620	-0.080	-0.300	-0.530	102.680	-1.600	-0.300																			1580037897.0	0.33	0.61
26/01/2020 11:24:58	26012020	260120	112458	102.550	12.418775	-57.245020	102.490	-0.170	-0.350	0.010	102.520	-1.700	0.200																			1580037898.0	0.19	0.35
26/01/2020 11:24:59	26012020	260120	112459	102.420	12.418772	-57.245020	102.400	-0.180	-0.370	0.660	102.400	-1.700	0.800																			1580037899.0	0.64	1.19
26/01/2020 11:25:00	26012020	260120	112500	102.350	12.418768	-57.245020	102.380	-0.080	-0.360	1.190	102.350	-1.800	1.400	1015.00	25.70	25.80	18.40	18.50	134.00	64.00	64.00	376.00	26.00	350.00	7.30	93.00	7.20	11585	3149.00	27.40	27.40	1580037900.0	0.85	1.57
26/01/2020 11:25:01	26012020	260120	112501	102.340	12.418765	-57.245020	102.370	0.050	-0.200	1.480	102.340	-1.700	1.800																			1580037901.0	0.67	1.24
26/01/2020 11:25:02	26012020	260120	112502	102.360	12.418763	-57.245022	102.430	0.070	0.150	1.520	102.370	-1.400	1.900																			1580037902.0	0.27	0.50
26/01/2020 11:25:03	26012020	260120	112503	102.430	12.418765	-57.245022	102.530	0.030	0.430	1.380	102.450	-1.000	1.900																			1580037903.0	0.30	0.56
26/01/2020 11:25:04	26012020	260120	112504	102.560	12.418767	-57.245023	102.620	0.010	0.330	1.050	102.580	-1.000	1.600																			1580037904.0	0.40	0.74
26/01/2020 11:25:05	26012020	260120	112505	102.640	12.418768	-57.245022	102.640	0.080	-0.120	0.610	102.640	-1.300	1.200																			1580037905.0	0.50	0.93
26/01/2020 11:25:06	26012020	260120	112506	102.610	12.418770	-57.245020	102.550	0.180	-0.580	0.280	102.590	-1.800	0.800																			1580037906.0	0.68	1.26
26/01/2020 11:25:07	26012020	260120	112507	102.490	12.418772	-57.245018	102.400	0.210	-0.710	0.160	102.450	-2.100	0.600																			1580037907.0	0.54	1.00
26/01/2020 11:25:08	26012020	260120	112508	102.340	12.418772	-57.245017	102.300	0.070	-0.450	0.130	102.320	-2.000	0.600																			1580037908.0	0.22	0.41
26/01/2020 11:25:09	26012020	260120	112509	102.290	12.418773	-57.245018	102.330	-0.190	0.030	0.100	102.290	-1.500	0.500																			1580037909.0	0.29	0.54
26/01/2020 11:25:10	26012020	260120	112510	102.360	12.418773	-57.245020	102.440	-0.380	0.370	0.070	102.380	-1.100	0.500																			1580037910.0	0.44	0.81
26/01/2020 11:25:11	26012020	260120	112511	102.490	12.418773	-57.245022	102.550	-0.330	0.240	0.120	102.510	-1.000	0.500																			1580037911.0	0.23	0.43
26/01/2020 11:25:12	26012020	260120	112512	102.570	12.418772	-57.245020	102.600	-0.090	-0.190	0.310	102.580	-1.400	0.600																			1580037912.0	0.39	0.72
26/01/2020 11:25:13	26012020	260120	112513	102.580	12.418770	-57.245018	102.600	0.100	-0.400	0.590	102.580	-1.800	0.900																			1580037913.0	0.63	1.17
26/01/2020 11:25:14	26012020	260120	112514	102.570	12.418768	-57.245018	102.610	0.080	-0.130	0.830	102.570	-1.700	1.100																			1580037914.0	0.34	0.63
26/01/2020 11:25:15	26012020	260120	112515	102.570	12.418768	-57.245020	102.630	-0.050	0.250	0.930	102.580	-1.300	1.300																			1580037915.0	0.49	0.91
26/01/2020 11:25:16	26012020	260120	112516	102.610	12.418768	-57.245022	102.660	-0.030	0.240	0.860	102.610	-1.100	1.300																			1580037916.0	0.47	0.87
26/01/2020 11:25:17	26012020	260120	112517	102.620	12.418770	-57.245022	102.600	0.210	-0.160	0.730	102.620	-1.400	1.200																			1580037917.0	0.23	0.43
26/01/2020 11:25:18	26012020	260120	112518	102.530	12.418772	-57.245020	102.460	0.450	-0.540	0.650	102.500	-1.800	1.100																			1580037918.0	0.56	1.04
26/01/2020 11:25:19	26012020	260120	112519	102.400	12.418772	-57.245018	102.400	0.410	-0.590	0.590	102.390	-2.000	1.000																			1580037919.0	0.53	0.98
26/01/2020 11:25:20	26012020	260120	112520	102.380	12.418773	-57.245018	102.450	0.050	-0.340	0.540	102.390	-1.800	1.000																			1580037920.0	0.26	0.48
26/01/2020 11:25:21	26012020	260120	112521	102.480	12.418773	-57.245018	102.590	-0.380	-0.030	0.470	102.510	-1.500	0.900																			1580037921.0	0.25	0.46
26/01/2020 11:25:22	26012020	260120	112522	102.640	12.418773	-57.245020	102.750	-0.610	0.180	0.430	102.670	-1.300	0.800																			1580037922.0	0.27	0.50
26/01/2020 11:25:23	26012020	260120	112523	102.770	12.418772	-57.245022	102.820	-0.500	0.200	0.500	102.780	-1.200	0.900																			1580037923.0	0.36	0.67
26/01/2020 11:25:24	26012020	260120	112524	102.790	12.418770	-57.245022	102.800	-0.130	0.030	0.620	102.790	-1.300	1.000																			1580037924.0	0.48	0.89
26/01/2020 11:25:25	26012020	260120	112525	102.750	12.418768	-57.245020	102.760	0.230	-0.160	0.650	102.740	-1.500	1.100																			1580037925.0	0.41	0.76
26/01/2020 11:25:26	26012020	260120	112526	102.720	12.418768	-57.245020	102.750	0.390	-0.190	0.530	102.720	-1.600	1.000																			1580037926.0	0.19	0.35
26/01/2020 11:25:27	26012020	260120	112527	102.730	12.418770	-57.245020	102.750	0.370	-0.100	0.380	102.730	-1.500	0.800																			1580037927.0	0.37	0.69
26/01/2020 11:25:28	26012020	260120	112528	102.730	12.418772	-57.245020	102.750	0.280	-0.010	0.260	102.730	-1.400	0.700																			1580037928.0	0.51	0.94
26/01/2020 11:25:29	26012020	260120	112529	102.740	12.418775	-57.245020	102.800	0.160	0.020	0.180	102.750	-1.400	0.600																			1580037929.0	0.50	0.93
26/01/2020 11:25:30	26012020	260120	112530	102.810	12.418777	-57.245020	102.850	-0.030	-0.030	0.220	102.820	-1.400	0.600																			1580037930.0	0.33	0.61
26/01/2020 11:25:31	26012020	260120	112531	102.830	12.418775	-57.245020	102.820	-0.250	-0.220	0.520	102.820	-1.500	0.800																			1580037931.0	0.11	0.20
26/01/2020 11:25:32	26012020	260120	112532	102.760	12.418773	-57.245020	102.730	-0.350	-0.460	0.910	102.730	-1.700	1.200																			1580037932.0	0.53	0.98
26/01/2020 11:25:33	26012020	260120	112533	102.670	12.418770	-57.245020	102.680	-0.300	-0.530	1.190	102.660	-1.900	1.500																			1580037933.0	0.70	1.30
26/01/2020 11:25:34	26012020	260120	112534	102.650	12.418767	-57.245020	102.680	-0.120	-0.340	1.270	102.650	-1.800	1.700																			1580037934.0	0.57	1.06
26/01/2020 11:25:35	26012020	260120	112535	102.650	12.418767	-57.245020	102.670	0.080	-0.010	1.130	102.650	-1.500	1.600																			1580037935.0	0.30	0.56
26/01/2020 11:25:36	26012020	260120	112536	102.640	12.418767	-57.245022	102.660	0.220	0.240	0.820	102.640	-1.200	1.400																			1580037936.0	0.20	0.37
26/01/2020 11:25:37	26012020	260120	112537	102.650	12.418770	-57.245022	102.700	0.250	0.330	0.330	102.660	-1.100	0.900																			1580037937.0	0.57	1.06
26/01/2020 11:25:38	26012020	260120	112538	102.740	12.418773	-57.245020	102.810	0.190	0.250	-0.180	102.760	-1.100	0.400																			1580037938.0	0.83	1.54
26/01/2020 11:25:39	26012020	260120	112539	102.850	12.418777	-57.245020	102.880	0.120	0.040	-0.490	102.870	-1.200	0.000																			1580037939.0	0.77	1.43
26/01/2020 11:25:40	26012020	260120	112540	102.900	12.418778	-57.245020	102.870	0.070	-0.200	-0.450	102.900	-1.500	-0.100																			1580037940.0	0.41	0.76
26/01/2020 11:25:41	26012020	260120	112541	102.840	12.418778	-57.245018	102.770	0.040	-0.470	-0.060	102.820	-1.700	0.100																			1580037941.0	0.14	0.26
26/01/2020 11:25:42	26012020	260120	112542	102.690	12.418775	-57.245018	102.620	-0.020	-0.660	0.500	102.660	-2.000	0.700																			1580037942.0	0.58	1.07
26/01/2020 11:25:43	26012020	260120	112543	102.550	12.418772	-57.245018	102.530	-0.120	-0.580	1.040	102.540	-2.000	1.200																			1580037943.0	0.74	1.37
26/01/2020 11:25:44	26012020	260120	112544	102.480	12.418768	-57.245020	102.510	-0.240	-0.240	1.430	102.480	-1.800	1.700																			1580037944.0	0.67	1.24
26/01/2020 11:25:45	26012020	260120	112545	102.490	12.418767	-57.245022	102.540	-0.300	0.180	1.610	102.490	-1.400	1.900																			1580037945.0	0.61	1.13
26/01/2020 11:25:46	26012020	260120	112546	102.510	12.418765	-57.245023	102.550	-0.240	0.390	1.590	102.520	-1.000	2.000																			1580037946.0	0.47	0.87
26/01/2020 11:25:47	26012020	260120	112547	102.540	12.418765	-57.245023	102.590	-0.060	0.380	1.250	102.550	-1.000	1.800																			1580037947.0	0.11	0.20
26/01/2020 11:25:48	26012020	260120	112548	102.610	12.418767	-57.245023	102.640	0.200	0.140	0.600	102.620	-1.100	1.300																			1580037948.0	0.47	0.87
26/01/2020 11:25:49	26012020	260120	112549	102.680	12.418772	-57.245022	102.700	0.420	-0.220	-0.070	102.700	-1.400	0.600																			1580037949.0	0.92	1.70
26/01/2020 11:25:50	26012020	260120	112550	102.750	12.418775	-57.245018	102.750	0.520	-0.490	-0.540	102.760	-1.800	0.000																			1580037950.0	1.04	1.93
26/01/2020 11:25:51	26012020	260120	112551	102.820	12.418778	-57.245017	102.820	0.400	-0.480	-0.680	102.830	-1.900	-0.300																			1580037951.0	0.84	1.56
26/01/2020 11:25:52	26012020	260120	112552	102.870	12.418780	-57.245017	102.840	0.090	-0.270	-0.360	102.870	-1.700	-0.100																			1580037952.0	0.35	0.65
26/01/2020 11:25:53	26012020	260120	112553	102.850	12.418778	-57.245020	102.800	-0.290	-0.040	0.310	102.840	-1.500	0.400																			1580037953.0	0.55	1.02
26/01/2020 11:25:54	26012020	260120	112554	102.770	12.418773	-57.245022	102.730	-0.520	0.020	1.110	102.750	-1.400	1.200																			1580037954.0	1.12	2.07
26/01/2020 11:25:55	26012020	260120	112555	102.630	12.418768	-57.245023	102.580	-0.490	-0.130	1.830	102.610	-1.400	1.900																			1580037955.0	1.30	2.41
26/01/2020 11:25:56	26012020	260120	112556	102.460	12.418763	-57.245023	102.430	-0.260	-0.360	2.270	102.430	-1.600	2.500																			1580037956.0	1.11	2.06
26/01/2020 11:25:57	26012020	260120	112557	102.350	12.418760	-57.245022	102.410	0.020	-0.370	2.220	102.350	-1.800	2.700																			1580037957.0	0.67	1.24
26/01/2020 11:25:58	26012020	260120	112558	102.440	12.418760	-57.245022	102.600	0.220	0.030	1.620	102.480	-1.500	2.300																			1580037958.0	0.20	0.37
26/01/2020 11:25:59	26012020	260120	112559	102.720	12.418765	-57.245022	102.890	0.290	0.570	0.730	102.790	-1.000	1.500																			1580037959.0	0.98	1.81
26/01/2020 11:26:00	26012020	260120	112600	103.020	12.418772	-57.245023	103.090	0.240	0.630	-0.080	103.070	-0.700	0.600	1015.00	25.80	25.80	18.70	18.80	145.00	65.00	65.00	376.00	26.10	353.00	7.60	95.00	7.40	11968	3241.00	27.40	27.40	1580037960.0	1.32	2.44
26/01/2020 11:26:01	26012020	260120	112601	103.140	12.418777	-57.245023	103.070	0.160	0.080	-0.580	103.130	-1.000	-0.000																			1580037961.0	1.05	1.94
26/01/2020 11:26:02	26012020	260120	112602	103.050	12.418778	-57.245020	102.940	0.130	-0.640	-0.690	103.020	-1.800	-0.300																			1580037962.0	0.77	1.43
26/01/2020 11:26:03	26012020	260120	112603	102.920	12.418778	-57.245018	102.830	0.120	-0.970	-0.460	102.890	-2.300	-0.200																			1580037963.0	0.51	0.94
26/01/2020 11:26:04	26012020	260120	112604	102.810	12.418777	-57.245018	102.730	0.040	-0.800	0.100	102.790	-2.300	0.200																			1580037964.0	0.40	0.74
26/01/2020 11:26:05	26012020	260120	112605	102.690	12.418773	-57.245020	102.560	-0.080	-0.470	0.850	102.660	-2.000	0.900																			1580037965.0	0.89	1.65
26/01/2020 11:26:06	26012020	260120	112606	102.460	12.418768	-57.245022	102.430	-0.150	-0.210	1.480	102.440	-1.700	1.700																			1580037966.0	0.98	1.81
26/01/2020 11:26:07	26012020	260120	112607	102.390	12.418765	-57.245022	102.470	-0.180	0.090	1.730	102.390	-1.400	2.100																			1580037967.0	0.70	1.30
26/01/2020 11:26:08	26012020	260120	112608	102.500	12.418765	-57.245022	102.630	-0.200	0.530	1.630	102.530	-1.000	2.100																			1580037968.0	0.28	0.52
26/01/2020 11:26:09	26012020	260120	112609	102.700	12.418765	-57.245023	102.840	-0.210	0.880	1.280	102.730	-0.600	1.800																			1580037969.0	0.30	0.56
26/01/2020 11:26:10	26012020	260120	112610	102.900	12.418767	-57.245023	103.040	-0.150	0.770	0.760	102.940	-0.500	1.400																			1580037970.0	0.49	0.91
26/01/2020 11:26:11	26012020	260120	112611	103.120	12.418770	-57.245023	103.230	-0.000	0.180	0.190	103.160	-0.900	0.800																			1580037971.0	0.63	1.17
26/01/2020 11:26:12	26012020	260120	112612	103.280	12.418773	-57.245022	103.300	0.180	-0.610	-0.110	103.290	-1.700	0.400																			1580037972.0	0.75	1.39
26/01/2020 11:26:13	26012020	260120	112613	103.260	12.418773	-57.245018	103.170	0.290	-1.150	-0.020	103.230	-2.400	0.300																			1580037973.0	0.52	0.96
26/01/2020 11:26:14	26012020	260120	112614	103.040	12.418773	-57.245018	102.870	0.240	-1.150	0.300	102.980	-2.600	0.600																			1580037974.0	0.23	0.43
26/01/2020 11:26:15	26012020	260120	112615	102.720	12.418772	-57.245018	102.570	0.080	-0.740	0.690	102.650	-2.300	0.900																			1580037975.0	0.39	0.72
26/01/2020 11:26:16	26012020	260120	112616	102.450	12.418770	-57.245022	102.400	-0.090	-0.210	1.030	102.410	-1.800	1.300																			1580037976.0	0.55	1.02
26/01/2020 11:26:17	26012020	260120	112617	102.360	12.418768	-57.245022	102.440	-0.140	0.280	1.140	102.360	-1.300	1.500																			1580037977.0	0.47	0.87
26/01/2020 11:26:18	26012020	260120	112618	102.490	12.418767	-57.245023	102.660	-0.050	0.590	0.960	102.540	-0.900	1.500																			1580037978.0	0.15	0.28
26/01/2020 11:26:19	26012020	260120	112619	102.720	12.418768	-57.245023	102.950	0.090	0.660	0.550	102.780	-0.700	1.100																			1580037979.0	0.27	0.50
26/01/2020 11:26:20	26012020	260120	112620	103.050	12.418772	-57.245022	103.150	0.190	0.400	0.110	103.090	-0.800	0.700																			1580037980.0	0.58	1.07
26/01/2020 11:26:21	26012020	260120	112621	103.200	12.418773	-57.245020	103.190	0.170	-0.070	-0.030	103.200	-1.200	0.400																			1580037981.0	0.63	1.17
26/01/2020 11:26:22	26012020	260120	112622	103.170	12.418773	-57.245018	103.080	0.020	-0.510	0.250	103.140	-1.700	0.500																			1580037982.0	0.37	0.69
26/01/2020 11:26:23	26012020	260120	112623	103.010	12.418772	-57.245018	102.910	-0.190	-0.630	0.690	102.970	-2.000	0.900																			1580037983.0	0.39	0.72
26/01/2020 11:26:24	26012020	260120	112624	102.840	12.418770	-57.245018	102.800	-0.340	-0.440	1.060	102.820	-1.900	1.300																			1580037984.0	0.60	1.11
26/01/2020 11:26:25	26012020	260120	112625	102.760	12.418767	-57.245022	102.770	-0.350	-0.170	1.330	102.760	-1.600	1.600																			1580037985.0	0.68	1.26
26/01/2020 11:26:26	26012020	260120	112626	102.740	12.418765	-57.245023	102.770	-0.240	-0.050	1.480	102.740	-1.400	1.800																			1580037986.0	0.57	1.06
26/01/2020 11:26:27	26012020	260120	112627	102.760	12.418763	-57.245023	102.820	-0.060	-0.040	1.310	102.770	-1.400	1.800																			1580037987.0	0.25	0.46
26/01/2020 11:26:28	26012020	260120	112628	102.830	12.418765	-57.245022	102.890	0.110	0.000	0.880	102.840	-1.400	1.500																			1580037988.0	0.24	0.44
26/01/2020 11:26:29	26012020	260120	112629	102.930	12.418768	-57.245022	103.010	0.220	0.100	0.360	102.960	-1.300	1.000																			1580037989.0	0.58	1.07
26/01/2020 11:26:30	26012020	260120	112630	103.050	12.418770	-57.245022	103.090	0.260	0.110	-0.030	103.070	-1.200	0.500																			1580037990.0	0.68	1.26
26/01/2020 11:26:31	26012020	260120	112631	103.100	12.418773	-57.245022	103.050	0.300	-0.120	-0.180	103.090	-1.400	0.200																			1580037991.0	0.52	0.96
26/01/2020 11:26:32	26012020	260120	112632	103.000	12.418773	-57.245020	102.890	0.350	-0.470	-0.080	102.960	-1.700	0.300																			1580037992.0	0.33	0.61
26/01/2020 11:26:33	26012020	260120	112633	102.820	12.418773	-57.245018	102.750	0.330	-0.620	0.150	102.790	-2.000	0.500																			1580037993.0	0.34	0.63
26/01/2020 11:26:34	26012020	260120	112634	102.730	12.418773	-57.245018	102.740	0.170	-0.420	0.400	102.730	-1.900	0.700																			1580037994.0	0.16	0.30
26/01/2020 11:26:35	26012020	260120	112635	102.740	12.418773	-57.245018	102.760	-0.100	-0.080	0.700	102.750	-1.600	1.000																			1580037995.0	0.22	0.41
26/01/2020 11:26:36	26012020	260120	112636	102.770	12.418772	-57.245020	102.800	-0.380	0.210	1.030	102.770	-1.300	1.300																			1580037996.0	0.41	0.76
26/01/2020 11:26:37	26012020	260120	112637	102.820	12.418768	-57.245022	102.890	-0.570	0.350	1.300	102.840	-1.100	1.600																			1580037997.0	0.56	1.04
26/01/2020 11:26:38	26012020	260120	112638	102.930	12.418767	-57.245022	103.010	-0.600	0.330	1.400	102.950	-1.000	1.800																			1580037998.0	0.59	1.09
26/01/2020 11:26:39	26012020	260120	112639	103.050	12.418765	-57.245022	103.120	-0.460	0.200	1.290	103.080	-1.100	1.700																			1580037999.0	0.42	0.78
26/01/2020 11:26:40	26012020	260120	112640	103.150	12.418763	-57.245022	103.170	-0.180	-0.010	1.030	103.160	-1.300	1.500																			1580038000.0	0.11	0.20
26/01/2020 11:26:41	26012020	260120	112641	103.180	12.418765	-57.245022	103.140	0.170	-0.260	0.710	103.170	-1.500	1.200																			1580038001.0	0.21	0.39
26/01/2020 11:26:42	26012020	260120	112642	103.120	12.418767	-57.245022	103.070	0.490	-0.460	0.320	103.110	-1.800	0.900																			1580038002.0	0.46	0.85
26/01/2020 11:26:43	26012020	260120	112643	103.070	12.418770	-57.245020	103.020	0.680	-0.600	-0.080	103.060	-1.900	0.500																			1580038003.0	0.69	1.28
26/01/2020 11:26:44	26012020	260120	112644	103.020	12.418773	-57.245018	102.950	0.660	-0.650	-0.270	103.010	-2.000	0.200																			1580038004.0	0.75	1.39
26/01/2020 11:26:45	26012020	260120	112645	102.930	12.418775	-57.245018	102.830	0.420	-0.460	-0.130	102.900	-1.900	0.200																			1580038005.0	0.47	0.87
26/01/2020 11:26:46	26012020	260120	112646	102.800	12.418775	-57.245018	102.710	0.050	-0.040	0.190	102.780	-1.600	0.400																			1580038006.0	0.12	0.22
26/01/2020 11:26:47	26012020	260120	112647	102.680	12.418775	-57.245020	102.630	-0.310	0.340	0.630	102.660	-1.200	0.800																			1580038007.0	0.40	0.74
26/01/2020 11:26:48	26012020	260120	112648	102.600	12.418772	-57.245022	102.630	-0.530	0.440	1.000	102.600	-0.900	1.300																			1580038008.0	0.54	1.00
26/01/2020 11:26:49	26012020	260120	112649	102.700	12.418770	-57.245022	102.840	-0.600	0.280	1.180	102.740	-1.000	1.500																			1580038009.0	0.57	1.06
26/01/2020 11:26:50	26012020	260120	112650	102.940	12.418767	-57.245022	103.050	-0.520	0.010	1.260	102.980	-1.200	1.600																			1580038010.0	0.64	1.19
26/01/2020 11:26:51	26012020	260120	112651	103.100	12.418763	-57.245022	103.120	-0.240	-0.270	1.270	103.100	-1.500	1.700																			1580038011.0	0.58	1.07
26/01/2020 11:26:52	26012020	260120	112652	103.090	12.418763	-57.245020	103.060	0.150	-0.420	1.130	103.070	-1.800	1.600																			1580038012.0	0.33	0.61
26/01/2020 11:26:53	26012020	260120	112653	103.040	12.418763	-57.245020	103.020	0.470	-0.310	0.800	103.030	-1.800	1.300																			1580038013.0	0.26	0.48
26/01/2020 11:26:54	26012020	260120	112654	103.010	12.418767	-57.245020	103.020	0.540	0.000	0.390	103.010	-1.500	0.900																			1580038014.0	0.70	1.30
26/01/2020 11:26:55	26012020	260120	112655	103.010	12.418772	-57.245020	102.990	0.370	0.170	0.020	103.010	-1.200	0.500																			1580038015.0	0.95	1.76
26/01/2020 11:26:56	26012020	260120	112656	102.990	12.418775	-57.245020	102.940	0.120	0.010	-0.190	102.980	-1.300	0.300																			1580038016.0	0.78	1.44
26/01/2020 11:26:57	26012020	260120	112657	102.940	12.418777	-57.245020	102.880	-0.050	-0.370	-0.170	102.930	-1.600	0.200																			1580038017.0	0.43	0.80
26/01/2020 11:26:58	26012020	260120	112658	102.880	12.418775	-57.245018	102.830	-0.100	-0.600	0.080	102.870	-1.900	0.400																			1580038018.0	0.39	0.72
26/01/2020 11:26:59	26012020	260120	112659	102.830	12.418773	-57.245018	102.800	-0.150	-0.420	0.490	102.830	-1.900	0.700																			1580038019.0	0.55	1.02
26/01/2020 11:27:00	26012020	260120	112700	102.800	12.418770	-57.245020	102.770	-0.230	-0.050	0.950	102.790	-1.600	1.200	1015.00	25.80	25.80	18.60	18.70	153.00	64.00	64.00	376.00	26.10	350.00	7.70	92.00	7.50	12284	3144.00	27.40	27.40	1580038020.0	0.77	1.43
26/01/2020 11:27:01	26012020	260120	112701	102.760	12.418767	-57.245022	102.760	-0.260	0.170	1.260	102.750	-1.300	1.600																			1580038021.0	0.81	1.50
26/01/2020 11:27:02	26012020	260120	112702	102.760	12.418765	-57.245022	102.810	-0.150	0.120	1.240	102.770	-1.200	1.700																			1580038022.0	0.41	0.76
26/01/2020 11:27:03	26012020	260120	112703	102.850	12.418765	-57.245022	102.930	0.030	-0.060	0.960	102.880	-1.400	1.500																			1580038023.0	0.20	0.37
26/01/2020 11:27:04	26012020	260120	112704	102.990	12.418767	-57.245020	103.040	0.180	-0.180	0.570	103.010	-1.500	1.100																			1580038024.0	0.45	0.83
26/01/2020 11:27:05	26012020	260120	112705	103.070	12.418768	-57.245018	103.090	0.220	-0.100	0.230	103.090	-1.500	0.700																			1580038025.0	0.52	0.96
26/01/2020 11:27:06	26012020	260120	112706	103.140	12.418772	-57.245018	103.120	0.170	0.110	-0.020	103.150	-1.400	0.500																			1580038026.0	0.56	1.04
26/01/2020 11:27:07	26012020	260120	112707	103.170	12.418773	-57.245020	103.150	0.100	0.210	-0.170	103.170	-1.200	0.300																			1580038027.0	0.59	1.09
26/01/2020 11:27:08	26012020	260120	112708	103.210	12.418775	-57.245020	103.180	0.010	0.030	-0.160	103.210	-1.200	0.200																			1580038028.0	0.42	0.78
26/01/2020 11:27:09	26012020	260120	112709	103.220	12.418777	-57.245020	103.150	-0.090	-0.270	0.100	103.210	-1.500	0.400																			1580038029.0	0.11	0.20
26/01/2020 11:27:10	26012020	260120	112710	103.140	12.418773	-57.245020	103.060	-0.200	-0.480	0.610	103.120	-1.800	0.800																			1580038030.0	0.46	0.85
26/01/2020 11:27:11	26012020	260120	112711	103.020	12.418770	-57.245020	102.960	-0.240	-0.520	1.190	103.000	-1.900	1.400																			1580038031.0	0.87	1.61
26/01/2020 11:27:12	26012020	260120	112712	102.940	12.418765	-57.245022	102.970	-0.150	-0.410	1.470	102.950	-1.800	1.800																			1580038032.0	0.89	1.65
26/01/2020 11:27:13	26012020	260120	112713	103.020	12.418763	-57.245022	103.110	0.010	-0.170	1.350	103.060	-1.700	1.800																			1580038033.0	0.52	0.96
26/01/2020 11:27:14	26012020	260120	112714	103.170	12.418763	-57.245023	103.210	0.170	0.090	1.030	103.200	-1.400	1.600																			1580038034.0	0.19	0.35
26/01/2020 11:27:15	26012020	260120	112715	103.230	12.418765	-57.245023	103.200	0.270	0.150	0.630	103.230	-1.200	1.200																			1580038035.0	0.39	0.72
26/01/2020 11:27:16	26012020	260120	112716	103.180	12.418768	-57.245022	103.120	0.260	-0.030	0.230	103.170	-1.300	0.800																			1580038036.0	0.68	1.26
26/01/2020 11:27:17	26012020	260120	112717	103.120	12.418772	-57.245020	103.090	0.130	-0.170	-0.150	103.120	-1.500	0.400																			1580038037.0	0.85	1.57
26/01/2020 11:27:18	26012020	260120	112718	103.150	12.418775	-57.245018	103.180	-0.060	-0.070	-0.420	103.170	-1.500	0.100																			1580038038.0	0.68	1.26
26/01/2020 11:27:19	26012020	260120	112719	103.240	12.418777	-57.245018	103.300	-0.200	0.140	-0.450	103.270	-1.300	-0.100																			1580038039.0	0.38	0.70
26/01/2020 11:27:20	26012020	260120	112720	103.370	12.418777	-57.245020	103.370	-0.260	0.220	-0.170	103.380	-1.200	0.100																			1580038040.0	0.32	0.59
26/01/2020 11:27:21	26012020	260120	112721	103.400	12.418773	-57.245022	103.390	-0.210	0.090	0.270	103.400	-1.200	0.500																			1580038041.0	0.57	1.06
26/01/2020 11:27:22	26012020	260120	112722	103.390	12.418770	-57.245022	103.360	-0.100	-0.160	0.690	103.390	-1.400	0.900																			1580038042.0	0.67	1.24
26/01/2020 11:27:23	26012020	260120	112723	103.340	12.418768	-57.245023	103.300	0.030	-0.400	1.070	103.320	-1.700	1.300																			1580038043.0	0.56	1.04
26/01/2020 11:27:24	26012020	260120	112724	103.270	12.418767	-57.245023	103.260	0.100	-0.470	1.310	103.260	-1.800	1.600																			1580038044.0	0.41	0.76
26/01/2020 11:27:25	26012020	260120	112725	103.230	12.418765	-57.245023	103.210	0.070	-0.410	1.460	103.220	-1.800	1.800																			1580038045.0	0.28	0.52
26/01/2020 11:27:26	26012020	260120	112726	103.150	12.418763	-57.245023	103.080	0.030	-0.360	1.520	103.120	-1.700	1.900																			1580038046.0	0.25	0.46
26/01/2020 11:27:27	26012020	260120	112727	103.000	12.418763	-57.245023	102.950	0.070	-0.340	1.300	102.980	-1.700	1.800																			1580038047.0	0.08	0.15
26/01/2020 11:27:28	26012020	260120	112728	102.900	12.418765	-57.245023	102.880	0.140	-0.190	0.840	102.900	-1.600	1.400																			1580038048.0	0.32	0.59
26/01/2020 11:27:29	26012020	260120	112729	102.890	12.418768	-57.245022	102.880	0.150	0.140	0.300	102.890	-1.400	0.900																			1580038049.0	0.56	1.04
26/01/2020 11:27:30	26012020	260120	112730	102.930	12.418770	-57.245023	102.920	0.090	0.400	-0.190	102.940	-1.000	0.400																			1580038050.0	0.70	1.30
26/01/2020 11:27:31	26012020	260120	112731	102.990	12.418773	-57.245022	103.000	0.030	0.380	-0.640	103.010	-0.900	-0.100																			1580038051.0	0.69	1.28
26/01/2020 11:27:32	26012020	260120	112732	103.070	12.418777	-57.245022	103.060	0.020	0.080	-0.880	103.090	-1.200	-0.400																			1580038052.0	0.58	1.07
26/01/2020 11:27:33	26012020	260120	112733	103.120	12.418777	-57.245020	103.100	0.010	-0.230	-0.730	103.120	-1.500	-0.400																			1580038053.0	0.34	0.63
26/01/2020 11:27:34	26012020	260120	112734	103.110	12.418777	-57.245020	103.020	-0.070	-0.320	-0.160	103.100	-1.700	-0.000																			1580038054.0	0.28	0.52
26/01/2020 11:27:35	26012020	260120	112735	102.950	12.418773	-57.245022	102.830	-0.190	-0.240	0.700	102.910	-1.700	0.700																			1580038055.0	0.72	1.33
26/01/2020 11:27:36	26012020	260120	112736	102.740	12.418768	-57.245023	102.680	-0.300	-0.190	1.490	102.710	-1.600	1.600																			1580038056.0	1.02	1.89
26/01/2020 11:27:37	26012020	260120	112737	102.630	12.418765	-57.245025	102.630	-0.320	-0.220	1.980	102.620	-1.600	2.200																			1580038057.0	0.96	1.78
26/01/2020 11:27:38	26012020	260120	112738	102.610	12.418762	-57.245025	102.610	-0.230	-0.270	2.150	102.600	-1.600	2.500																			1580038058.0	0.67	1.24
26/01/2020 11:27:39	26012020	260120	112739	102.570	12.418760	-57.245025	102.570	-0.050	-0.270	2.050	102.570	-1.700	2.500																			1580038059.0	0.34	0.63
26/01/2020 11:27:40	26012020	260120	112740	102.550	12.418760	-57.245025	102.560	0.150	-0.180	1.670	102.540	-1.600	2.200																			1580038060.0	0.08	0.15
26/01/2020 11:27:41	26012020	260120	112741	102.550	12.418762	-57.245025	102.580	0.260	-0.060	0.990	102.560	-1.500	1.700																			1580038061.0	0.44	0.81
26/01/2020 11:27:42	26012020	260120	112742	102.600	12.418767	-57.245023	102.620	0.240	0.010	0.090	102.620	-1.400	0.900																			1580038062.0	0.92	1.70
26/01/2020 11:27:43	26012020	260120	112743	102.660	12.418772	-57.245022	102.670	0.160	0.000	-0.730	102.680	-1.400	-0.000																			1580038063.0	1.17	2.17
26/01/2020 11:27:44	26012020	260120	112744	102.720	12.418777	-57.245022	102.630	0.130	-0.100	-1.150	102.710	-1.400	-0.600																			1580038064.0	1.01	1.87
26/01/2020 11:27:45	26012020	260120	112745	102.640	12.418778	-57.245020	102.560	0.110	-0.160	-1.130	102.620	-1.500	-0.800																			1580038065.0	0.54	1.00
26/01/2020 11:27:46	26012020	260120	112746	102.580	12.418778	-57.245020	102.530	0.010	-0.020	-0.780	102.570	-1.500	-0.600																			1580038066.0	0.03	0.06
26/01/2020 11:27:47	26012020	260120	112747	102.560	12.418777	-57.245022	102.530	-0.120	0.090	-0.200	102.550	-1.300	-0.000																			1580038067.0	0.48	0.89
26/01/2020 11:27:48	26012020	260120	112748	102.550	12.418773	-57.245022	102.570	-0.160	-0.000	0.400	102.560	-1.300	0.600																			1580038068.0	0.68	1.26
26/01/2020 11:27:49	26012020	260120	112749	102.580	12.418770	-57.245023	102.600	-0.090	-0.210	1.040	102.580	-1.500	1.200																			1580038069.0	0.70	1.30
26/01/2020 11:27:50	26012020	260120	112750	102.590	12.418767	-57.245022	102.630	0.010	-0.290	1.650	102.590	-1.700	1.800																			1580038070.0	0.71	1.31
26/01/2020 11:27:51	26012020	260120	112751	102.630	12.418763	-57.245023	102.710	-0.020	-0.150	2.010	102.650	-1.600	2.300																			1580038071.0	0.60	1.11
26/01/2020 11:27:52	26012020	260120	112752	102.710	12.418763	-57.245025	102.760	-0.140	-0.040	2.020	102.720	-1.400	2.400																			1580038072.0	0.44	0.81
26/01/2020 11:27:53	26012020	260120	112753	102.710	12.418762	-57.245025	102.690	-0.200	-0.190	1.830	102.700	-1.500	2.300																			1580038073.0	0.17	0.31
26/01/2020 11:27:54	26012020	260120	112754	102.590	12.418762	-57.245023	102.550	-0.130	-0.450	1.470	102.560	-1.700	2.000																			1580038074.0	0.27	0.50
26/01/2020 11:27:55	26012020	260120	112755	102.500	12.418763	-57.245022	102.490	-0.020	-0.430	0.940	102.490	-1.900	1.600																			1580038075.0	0.48	0.89
26/01/2020 11:27:56	26012020	260120	112756	102.500	12.418767	-57.245022	102.550	-0.000	-0.050	0.240	102.530	-1.600	0.900																			1580038076.0	0.52	0.96
26/01/2020 11:27:57	26012020	260120	112757	102.590	12.418770	-57.245022	102.650	-0.040	0.370	-0.500	102.610	-1.100	0.200																			1580038077.0	0.80	1.48
26/01/2020 11:27:58	26012020	260120	112758	102.720	12.418773	-57.245023	102.710	0.020	0.440	-1.090	102.740	-0.900	-0.500																			1580038078.0	0.90	1.67
26/01/2020 11:27:59	26012020	260120	112759	102.760	12.418777	-57.245022	102.730	0.220	0.100	-1.410	102.770	-1.100	-0.900																			1580038079.0	0.76	1.41
26/01/2020 11:28:00	26012020	260120	112800	102.810	12.418778	-57.245020	102.790	0.440	-0.360	-1.360	102.820	-1.500	-1.000	1015.10	25.80	25.80	18.60	18.70	157.00	64.00	64.00	376.00	26.10	354.00	7.30	96.00	7.10	12511	3230.00	27.40	27.40	1580038080.0	0.64	1.19
26/01/2020 11:28:01	26012020	260120	112801	102.880	12.418780	-57.245018	102.860	0.490	-0.540	-0.850	102.890	-1.900	-0.700																			1580038081.0	0.40	0.74
26/01/2020 11:28:02	26012020	260120	112802	102.900	12.418778	-57.245018	102.870	0.270	-0.360	0.010	102.900	-1.800	0.000																			1580038082.0	0.33	0.61
26/01/2020 11:28:03	26012020	260120	112803	102.870	12.418775	-57.245022	102.850	-0.120	-0.090	0.990	102.850	-1.600	1.000																			1580038083.0	0.78	1.44
26/01/2020 11:28:04	26012020	260120	112804	102.820	12.418770	-57.245023	102.840	-0.470	-0.010	1.940	102.820	-1.400	2.000																			1580038084.0	1.06	1.96
26/01/2020 11:28:05	26012020	260120	112805	102.800	12.418765	-57.245025	102.820	-0.630	-0.110	2.750	102.790	-1.400	2.800																			1580038085.0	1.30	2.41
26/01/2020 11:28:06	26012020	260120	112806	102.740	12.418758	-57.245025	102.760	-0.550	-0.260	3.220	102.730	-1.600	3.500																			1580038086.0	1.36	2.52
26/01/2020 11:28:07	26012020	260120	112807	102.670	12.418753	-57.245025	102.720	-0.280	-0.300	3.100	102.670	-1.700	3.600																			1580038087.0	1.04	1.93
26/01/2020 11:28:08	26012020	260120	112808	102.710	12.418753	-57.245025	102.810	0.050	-0.110	2.250	102.730	-1.600	3.100																			1580038088.0	0.22	0.41
26/01/2020 11:28:09	26012020	260120	112809	102.870	12.418757	-57.245025	102.950	0.320	0.160	0.880	102.900	-1.300	1.900																			1580038089.0	0.90	1.67
26/01/2020 11:28:10	26012020	260120	112810	103.000	12.418765	-57.245023	102.990	0.460	0.280	-0.610	103.010	-1.100	0.400																			1580038090.0	1.76	3.26
26/01/2020 11:28:11	26012020	260120	112811	103.020	12.418775	-57.245022	102.950	0.450	0.160	-1.840	103.020	-1.100	-1.000																			1580038091.0	2.09	3.87
26/01/2020 11:28:12	26012020	260120	112812	103.010	12.418783	-57.245020	102.960	0.320	-0.080	-2.560	103.010	-1.400	-1.900																			1580038092.0	1.82	3.37
26/01/2020 11:28:13	26012020	260120	112813	103.090	12.418788	-57.245018	103.090	0.090	-0.240	-2.600	103.110	-1.600	-2.300																			1580038093.0	1.11	2.06
26/01/2020 11:28:14	26012020	260120	112814	103.240	12.418788	-57.245018	103.240	-0.150	-0.330	-1.890	103.270	-1.700	-1.900																			1580038094.0	0.13	0.24
26/01/2020 11:28:15	26012020	260120	112815	103.290	12.418783	-57.245020	103.190	-0.290	-0.480	-0.490	103.270	-1.800	-0.700																			1580038095.0	1.05	1.94
26/01/2020 11:28:16	26012020	260120	112816	103.100	12.418775	-57.245022	102.910	-0.270	-0.640	1.310	103.030	-1.900	1.000																			1580038096.0	2.00	3.70
26/01/2020 11:28:17	26012020	260120	112817	102.730	12.418763	-57.245023	102.600	-0.160	-0.590	2.920	102.660	-2.000	2.700																			1580038097.0	2.36	4.37
26/01/2020 11:28:18	26012020	260120	112818	102.460	12.418755	-57.245025	102.490	-0.040	-0.250	3.800	102.430	-1.800	4.000																			1580038098.0	1.98	3.67
26/01/2020 11:28:19	26012020	260120	112819	102.450	12.418750	-57.245027	102.650	0.010	0.320	3.670	102.490	-1.300	4.200																			1580038099.0	0.98	1.81
26/01/2020 11:28:20	26012020	260120	112820	102.740	12.418752	-57.245028	103.010	-0.000	0.770	2.640	102.820	-0.700	3.500																			1580038100.0	0.52	0.96
26/01/2020 11:28:21	26012020	260120	112821	103.070	12.418758	-57.245030	103.340	-0.010	0.690	1.160	103.150	-0.600	2.200																			1580038101.0	1.33	2.46
26/01/2020 11:28:22	26012020	260120	112822	103.440	12.418765	-57.245027	103.480	0.050	0.080	-0.260	103.470	-1.000	0.700																			1580038102.0	1.70	3.15
26/01/2020 11:28:23	26012020	260120	112823	103.510	12.418772	-57.245023	103.430	0.130	-0.600	-1.340	103.510	-1.700	-0.600																			1580038103.0	1.63	3.02
26/01/2020 11:28:24	26012020	260120	112824	103.410	12.418777	-57.245020	103.260	0.170	-0.890	-1.920	103.380	-2.200	-1.400																			1580038104.0	1.22	2.26
26/01/2020 11:28:25	26012020	260120	112825	103.210	12.418780	-57.245020	103.030	0.150	-0.740	-1.900	103.170	-2.200	-1.600																			1580038105.0	0.59	1.09
26/01/2020 11:28:26	26012020	260120	112826	102.970	12.418780	-57.245022	102.800	0.090	-0.350	-1.390	102.930	-1.900	-1.200																			1580038106.0	0.29	0.54
26/01/2020 11:28:27	26012020	260120	112827	102.790	12.418777	-57.245023	102.720	0.010	0.080	-0.620	102.770	-1.500	-0.600																			1580038107.0	0.66	1.22
26/01/2020 11:28:28	26012020	260120	112828	102.770	12.418773	-57.245025	102.810	-0.100	0.380	0.250	102.790	-1.100	0.300																			1580038108.0	0.86	1.59
26/01/2020 11:28:29	26012020	260120	112829	102.890	12.418770	-57.245027	103.010	-0.180	0.360	1.060	102.930	-1.000	1.200																			1580038109.0	0.98	1.81
26/01/2020 11:28:30	26012020	260120	112830	103.120	12.418765	-57.245028	103.260	-0.180	0.080	1.650	103.170	-1.200	1.800																			1580038110.0	0.98	1.81
26/01/2020 11:28:31	26012020	260120	112831	103.340	12.418762	-57.245028	103.430	-0.090	-0.150	2.070	103.370	-1.400	2.300																			1580038111.0	0.87	1.61
26/01/2020 11:28:32	26012020	260120	112832	103.420	12.418758	-57.245028	103.420	0.030	-0.250	2.340	103.410	-1.600	2.600																			1580038112.0	0.71	1.31
26/01/2020 11:28:33	26012020	260120	112833	103.370	12.418757	-57.245028	103.270	0.110	-0.320	2.340	103.340	-1.600	2.800																			1580038113.0	0.44	0.81
26/01/2020 11:28:34	26012020	260120	112834	103.170	12.418757	-57.245030	103.100	0.140	-0.420	2.030	103.140	-1.700	2.600																			1580038114.0	0.06	0.11
26/01/2020 11:28:35	26012020	260120	112835	103.040	12.418758	-57.245028	102.960	0.140	-0.480	1.420	103.020	-1.800	2.100																			1580038115.0	0.39	0.72
26/01/2020 11:28:36	26012020	260120	112836	102.920	12.418762	-57.245027	102.890	0.140	-0.410	0.530	102.910	-1.800	1.300																			1580038116.0	0.84	1.56
26/01/2020 11:28:37	26012020	260120	112837	102.910	12.418767	-57.245027	102.890	0.120	-0.160	-0.470	102.910	-1.600	0.300																			1580038117.0	1.15	2.13
26/01/2020 11:28:38	26012020	260120	112838	102.960	12.418772	-57.245025	102.940	0.040	0.210	-1.270	102.970	-1.300	-0.600																			1580038118.0	1.19	2.20
26/01/2020 11:28:39	26012020	260120	112839	103.040	12.418777	-57.245027	103.060	-0.130	0.530	-1.600	103.070	-0.900	-1.100																			1580038119.0	0.89	1.65
26/01/2020 11:28:40	26012020	260120	112840	103.200	12.418778	-57.245027	103.250	-0.320	0.600	-1.430	103.240	-0.800	-1.200																			1580038120.0	0.39	0.72
26/01/2020 11:28:41	26012020	260120	112841	103.400	12.418777	-57.245028	103.460	-0.350	0.290	-0.900	103.440	-0.900	-0.800																			1580038121.0	0.49	0.91
26/01/2020 11:28:42	26012020	260120	112842	103.550	12.418772	-57.245028	103.560	-0.120	-0.300	-0.120	103.570	-1.400	-0.100																			1580038122.0	0.86	1.59
26/01/2020 11:28:43	26012020	260120	112843	103.560	12.418767	-57.245028	103.500	0.220	-0.790	0.860	103.540	-2.000	0.800																			1580038123.0	1.17	2.17
26/01/2020 11:28:44	26012020	260120	112844	103.410	12.418760	-57.245028	103.350	0.410	-0.790	1.850	103.380	-2.200	1.900																			1580038124.0	1.30	2.41
26/01/2020 11:28:45	26012020	260120	112845	103.240	12.418755	-57.245032	103.230	0.330	-0.370	2.530	103.210	-1.900	2.700																			1580038125.0	1.15	2.13
26/01/2020 11:28:46	26012020	260120	112846	103.150	12.418753	-57.245035	103.210	0.110	0.030	2.680	103.150	-1.500	3.100																			1580038126.0	0.80	1.48
26/01/2020 11:28:47	26012020	260120	112847	103.170	12.418755	-57.245037	103.260	-0.050	-0.000	2.300	103.180	-1.300	2.900																			1580038127.0	0.41	0.76
26/01/2020 11:28:48	26012020	260120	112848	103.250	12.418758	-57.245035	103.300	-0.100	-0.290	1.620	103.260	-1.500	2.300																			1580038128.0	0.67	1.24
26/01/2020 11:28:49	26012020	260120	112849	103.280	12.418760	-57.245032	103.250	-0.190	-0.390	0.930	103.280	-1.800	1.600																			1580038129.0	0.77	1.43
26/01/2020 11:28:50	26012020	260120	112850	103.210	12.418762	-57.245030	103.120	-0.320	-0.150	0.350	103.180	-1.600	1.000																			1580038130.0	0.47	0.87
26/01/2020 11:28:51	26012020	260120	112851	103.110	12.418763	-57.245032	103.090	-0.360	0.260	-0.220	103.100	-1.300	0.400																			1580038131.0	0.31	0.57
26/01/2020 11:28:52	26012020	260120	112852	103.180	12.418765	-57.245033	103.270	-0.170	0.580	-0.910	103.220	-0.900	-0.200																			1580038132.0	0.50	0.93
26/01/2020 11:28:53	26012020	260120	112853	103.460	12.418768	-57.245033	103.580	0.150	0.580	-1.530	103.520	-0.700	-0.900																			1580038133.0	0.73	1.35
26/01/2020 11:28:54	26012020	260120	112854	103.760	12.418772	-57.245033	103.810	0.380	0.220	-1.720	103.810	-1.000	-1.300																			1580038134.0	0.69	1.28
26/01/2020 11:28:55	26012020	260120	112855	103.900	12.418773	-57.245032	103.820	0.400	-0.340	-1.270	103.900	-1.500	-1.100																			1580038135.0	0.28	0.52
26/01/2020 11:28:56	26012020	260120	112856	103.780	12.418772	-57.245032	103.610	0.250	-0.810	-0.250	103.720	-2.000	-0.300																			1580038136.0	0.43	0.80
26/01/2020 11:28:57	26012020	260120	112857	103.490	12.418767	-57.245032	103.360	0.020	-0.910	1.020	103.430	-2.300	0.900																			1580038137.0	0.98	1.81
26/01/2020 11:28:58	26012020	260120	112858	103.260	12.418762	-57.245033	103.220	-0.160	-0.670	2.210	103.230	-2.200	2.100																			1580038138.0	1.34	2.48
26/01/2020 11:28:59	26012020	260120	112859	103.150	12.418755	-57.245037	103.170	-0.280	-0.260	3.130	103.130	-1.800	3.200																			1580038139.0	1.50	2.78
26/01/2020 11:29:00	26012020	260120	112900	103.120	12.418748	-57.245040	103.200	-0.340	0.140	3.540	103.120	-1.400	3.800	1015.10	25.80	25.80	18.50	18.60	155.00	64.00	64.00	376.00	26.10	355.00	7.40	98.00	7.00	12633	3180.00	27.40	27.40	1580038140.0	1.36	2.52
26/01/2020 11:29:01	26012020	260120	112901	103.180	12.418745	-57.245042	103.290	-0.280	0.410	3.240	103.200	-1.000	3.800																			1580038141.0	0.82	1.52
26/01/2020 11:29:02	26012020	260120	112902	103.270	12.418747	-57.245042	103.330	-0.070	0.420	2.210	103.280	-0.900	3.100																			1580038142.0	0.22	0.41
26/01/2020 11:29:03	26012020	260120	112903	103.330	12.418752	-57.245040	103.370	0.220	0.180	0.690	103.340	-1.100	1.700																			1580038143.0	1.32	2.44
26/01/2020 11:29:04	26012020	260120	112904	103.410	12.418762	-57.245037	103.420	0.390	-0.120	-0.810	103.430	-1.400	0.100																			1580038144.0	1.99	3.69
26/01/2020 11:29:05	26012020	260120	112905	103.480	12.418768	-57.245033	103.420	0.340	-0.370	-1.800	103.480	-1.700	-1.100																			1580038145.0	1.83	3.39
26/01/2020 11:29:06	26012020	260120	112906	103.440	12.418773	-57.245032	103.300	0.110	-0.460	-2.160	103.420	-1.800	-1.700																			1580038146.0	1.12	2.07
26/01/2020 11:29:07	26012020	260120	112907	103.290	12.418775	-57.245032	103.130	-0.180	-0.330	-1.910	103.250	-1.800	-1.700																			1580038147.0	0.32	0.59
26/01/2020 11:29:08	26012020	260120	112908	103.100	12.418773	-57.245033	102.970	-0.370	-0.070	-1.190	103.070	-1.500	-1.100																			1580038148.0	0.51	0.94
26/01/2020 11:29:09	26012020	260120	112909	102.950	12.418768	-57.245035	102.890	-0.360	0.100	-0.150	102.940	-1.300	-0.200																			1580038149.0	1.13	2.09
26/01/2020 11:29:10	26012020	260120	112910	102.900	12.418762	-57.245038	102.930	-0.140	0.050	0.910	102.900	-1.300	0.900																			1580038150.0	1.39	2.57
26/01/2020 11:29:11	26012020	260120	112911	102.940	12.418757	-57.245038	103.000	0.120	-0.110	1.770	102.960	-1.400	1.800																			1580038151.0	1.26	2.33
26/01/2020 11:29:12	26012020	260120	112912	102.990	12.418753	-57.245038	103.040	0.280	-0.210	2.350	103.000	-1.600	2.500																			1580038152.0	0.84	1.56
26/01/2020 11:29:13	26012020	260120	112913	103.000	12.418752	-57.245038	103.050	0.270	-0.200	2.570	103.000	-1.600	2.900																			1580038153.0	0.39	0.72
26/01/2020 11:29:14	26012020	260120	112914	103.020	12.418752	-57.245038	103.050	0.140	-0.090	2.440	103.020	-1.500	2.900																			1580038154.0	0.05	0.09
26/01/2020 11:29:15	26012020	260120	112915	103.000	12.418752	-57.245038	102.980	0.020	-0.070	2.060	102.990	-1.400	2.600																			1580038155.0	0.28	0.52
26/01/2020 11:29:16	26012020	260120	112916	102.910	12.418753	-57.245038	102.850	-0.040	-0.160	1.560	102.880	-1.500	2.200																			1580038156.0	0.42	0.78
26/01/2020 11:29:17	26012020	260120	112917	102.760	12.418757	-57.245037	102.690	-0.040	-0.230	0.900	102.730	-1.600	1.600																			1580038157.0	0.59	1.09
26/01/2020 11:29:18	26012020	260120	112918	102.630	12.418760	-57.245035	102.600	-0.060	-0.160	0.150	102.620	-1.600	0.900																			1580038158.0	0.74	1.37
26/01/2020 11:29:19	26012020	260120	112919	102.600	12.418763	-57.245035	102.570	-0.100	-0.030	-0.510	102.590	-1.400	0.100																			1580038159.0	0.73	1.35
26/01/2020 11:29:20	26012020	260120	112920	102.600	12.418767	-57.245035	102.560	-0.110	-0.070	-0.990	102.600	-1.400	-0.400																			1580038160.0	0.65	1.20
26/01/2020 11:29:21	26012020	260120	112921	102.620	12.418768	-57.245033	102.600	-0.060	-0.280	-1.250	102.630	-1.600	-0.800																			1580038161.0	0.55	1.02
26/01/2020 11:29:22	26012020	260120	112922	102.680	12.418768	-57.245032	102.670	-0.000	-0.350	-1.180	102.700	-1.700	-0.900																			1580038162.0	0.45	0.83
26/01/2020 11:29:23	26012020	260120	112923	102.730	12.418768	-57.245030	102.760	-0.010	-0.050	-0.710	102.740	-1.600	-0.500																			1580038163.0	0.18	0.33
26/01/2020 11:29:24	26012020	260120	112924	102.830	12.418767	-57.245032	102.890	-0.090	0.440	0.030	102.850	-1.100	0.100																			1580038164.0	0.61	1.13
26/01/2020 11:29:25	26012020	260120	112925	102.940	12.418763	-57.245035	103.040	-0.130	0.590	0.830	102.970	-0.800	0.900																			1580038165.0	0.97	1.80
26/01/2020 11:29:26	26012020	260120	112926	103.020	12.418758	-57.245037	102.990	0.010	0.130	1.600	103.010	-1.000	1.700																			1580038166.0	0.91	1.69
26/01/2020 11:29:27	26012020	260120	112927	102.920	12.418755	-57.245035	102.820	0.270	-0.590	2.170	102.880	-1.700	2.400																			1580038167.0	0.83	1.54
26/01/2020 11:29:28	26012020	260120	112928	102.710	12.418753	-57.245033	102.700	0.450	-0.950	2.460	102.680	-2.200	2.800																			1580038168.0	0.72	1.33
26/01/2020 11:29:29	26012020	260120	112929	102.650	12.418753	-57.245032	102.690	0.380	-0.740	2.410	102.650	-2.200	2.900																			1580038169.0	0.24	0.44
26/01/2020 11:29:30	26012020	260120	112930	102.690	12.418755	-57.245033	102.760	0.060	-0.230	2.070	102.710	-1.800	2.600																			1580038170.0	0.34	0.63
26/01/2020 11:29:31	26012020	260120	112931	102.770	12.418757	-57.245033	102.790	-0.310	0.200	1.510	102.780	-1.300	2.200																			1580038171.0	0.48	0.89
26/01/2020 11:29:32	26012020	260120	112932	102.790	12.418758	-57.245035	102.790	-0.470	0.310	0.730	102.790	-1.000	1.500																			1580038172.0	0.43	0.80
26/01/2020 11:29:33	26012020	260120	112933	102.820	12.418762	-57.245033	102.840	-0.370	0.130	-0.150	102.840	-1.100	0.600																			1580038173.0	0.64	1.19
26/01/2020 11:29:34	26012020	260120	112934	102.920	12.418765	-57.245030	102.940	-0.140	-0.080	-0.900	102.940	-1.400	-0.200																			1580038174.0	0.86	1.59
26/01/2020 11:29:35	26012020	260120	112935	103.020	12.418767	-57.245028	103.090	0.030	-0.120	-1.360	103.050	-1.500	-0.800																			1580038175.0	0.80	1.48
26/01/2020 11:29:36	26012020	260120	112936	103.200	12.418770	-57.245028	103.200	0.080	-0.040	-1.490	103.220	-1.400	-1.100																			1580038176.0	0.56	1.04
26/01/2020 11:29:37	26012020	260120	112937	103.270	12.418772	-57.245028	103.230	0.070	0.020	-1.210	103.270	-1.400	-1.000																			1580038177.0	0.23	0.43
26/01/2020 11:29:38	26012020	260120	112938	103.250	12.418770	-57.245028	103.180	0.110	-0.020	-0.550	103.240	-1.400	-0.500																			1580038178.0	0.25	0.46
26/01/2020 11:29:39	26012020	260120	112939	103.180	12.418767	-57.245030	103.140	0.210	-0.090	0.350	103.170	-1.400	0.400																			1580038179.0	0.60	1.11
26/01/2020 11:29:40	26012020	260120	112940	103.130	12.418763	-57.245030	103.160	0.270	-0.160	1.260	103.130	-1.500	1.300																			1580038180.0	0.80	1.48
26/01/2020 11:29:41	26012020	260120	112941	103.150	12.418760	-57.245032	103.180	0.250	-0.310	2.050	103.150	-1.600	2.100																			1580038181.0	0.87	1.61
26/01/2020 11:29:42	26012020	260120	112942	103.110	12.418757	-57.245032	103.120	0.170	-0.490	2.530	103.100	-1.800	2.800																			1580038182.0	0.72	1.33
26/01/2020 11:29:43	26012020	260120	112943	103.040	12.418755	-57.245030	103.050	-0.020	-0.480	2.640	103.020	-1.900	3.000																			1580038183.0	0.42	0.78
26/01/2020 11:29:44	26012020	260120	112944	102.990	12.418753	-57.245030	103.020	-0.290	-0.230	2.450	102.980	-1.700	2.900																			1580038184.0	0.05	0.09
26/01/2020 11:29:45	26012020	260120	112945	102.980	12.418755	-57.245032	103.060	-0.510	0.060	1.890	102.990	-1.400	2.500																			1580038185.0	0.22	0.41
26/01/2020 11:29:46	26012020	260120	112946	103.080	12.418757	-57.245032	103.170	-0.550	0.180	0.990	103.110	-1.200	1.800																			1580038186.0	0.44	0.81
26/01/2020 11:29:47	26012020	260120	112947	103.210	12.418760	-57.245030	103.250	-0.360	0.110	0.050	103.220	-1.200	0.800																			1580038187.0	0.63	1.17
26/01/2020 11:29:48	26012020	260120	112948	103.250	12.418763	-57.245028	103.230	-0.030	-0.000	-0.770	103.250	-1.300	-0.100																			1580038188.0	0.77	1.43
26/01/2020 11:29:49	26012020	260120	112949	103.240	12.418767	-57.245027	103.230	0.260	0.030	-1.410	103.240	-1.400	-0.800																			1580038189.0	0.83	1.54
26/01/2020 11:29:50	26012020	260120	112950	103.280	12.418770	-57.245025	103.290	0.420	0.130	-1.800	103.290	-1.300	-1.300																			1580038190.0	0.84	1.56
26/01/2020 11:29:51	26012020	260120	112951	103.370	12.418773	-57.245025	103.370	0.480	0.130	-1.810	103.380	-1.200	-1.500																			1580038191.0	0.74	1.37
26/01/2020 11:29:52	26012020	260120	112952	103.390	12.418775	-57.245025	103.340	0.490	-0.070	-1.270	103.380	-1.300	-1.200																			1580038192.0	0.36	0.67
26/01/2020 11:29:53	26012020	260120	112953	103.290	12.418773	-57.245025	103.220	0.380	-0.400	-0.180	103.260	-1.600	-0.300																			1580038193.0	0.30	0.56
26/01/2020 11:29:54	26012020	260120	112954	103.130	12.418768	-57.245025	103.080	0.130	-0.640	1.190	103.100	-1.900	1.000																			1580038194.0	1.01	1.87
26/01/2020 11:29:55	26012020	260120	112955	102.950	12.418762	-57.245027	102.910	-0.190	-0.710	2.540	102.910	-2.100	2.400																			1580038195.0	1.45	2.69
26/01/2020 11:29:56	26012020	260120	112956	102.730	12.418755	-57.245028	102.700	-0.440	-0.660	3.590	102.690	-2.100	3.600																			1580038196.0	1.60	2.96
26/01/2020 11:29:57	26012020	260120	112957	102.540	12.418748	-57.245028	102.560	-0.540	-0.410	4.090	102.510	-1.900	4.400																			1580038197.0	1.49	2.76
26/01/2020 11:29:58	26012020	260120	112958	102.430	12.418743	-57.245028	102.480	-0.490	0.040	3.830	102.420	-1.500	4.400																			1580038198.0	0.96	1.78
26/01/2020 11:29:59	26012020	260120	112959	102.430	12.418743	-57.245028	102.550	-0.330	0.600	2.650	102.450	-1.000	3.600																			1580038199.0	0.11	0.20
26/01/2020 11:30:00	26012020	260120	113000	102.650	12.418750	-57.245028	102.870	-0.120	1.030	0.680	102.730	-0.500	1.900	1015.10	25.80	25.80	18.60	18.70	163.00	64.00	64.00	376.00	26.10	355.00	7.40	98.00	7.10	12947	3116.00	27.40	27.40	1580038200.0	1.39	2.57
26/01/2020 11:30:01	26012020	260120	113001	103.000	12.418762	-57.245028	103.230	0.120	0.960	-1.390	103.090	-0.300	-0.200																			1580038201.0	2.34	4.33
26/01/2020 11:30:02	26012020	260120	113002	103.370	12.418772	-57.245025	103.240	0.400	0.190	-2.800	103.370	-0.800	-1.900																			1580038202.0	2.33	4.32
26/01/2020 11:30:03	26012020	260120	113003	103.220	12.418778	-57.245022	102.890	0.630	-0.810	-3.290	103.150	-1.800	-2.800																			1580038203.0	1.74	3.22
26/01/2020 11:30:04	26012020	260120	113004	102.800	12.418782	-57.245017	102.480	0.710	-1.410	-3.030	102.720	-2.600	-2.800																			1580038204.0	1.13	2.09
26/01/2020 11:30:05	26012020	260120	113005	102.420	12.418783	-57.245015	102.220	0.530	-1.270	-2.110	102.370	-2.800	-2.200																			1580038205.0	0.36	0.67
26/01/2020 11:30:06	26012020	260120	113006	102.230	12.418780	-57.245018	102.160	0.140	-0.580	-0.600	102.220	-2.300	-0.900																			1580038206.0	0.74	1.37
26/01/2020 11:30:07	26012020	260120	113007	102.200	12.418773	-57.245022	102.230	-0.340	0.200	1.180	102.210	-1.500	0.900																			1580038207.0	1.76	3.26
26/01/2020 11:30:08	26012020	260120	113008	102.270	12.418763	-57.245027	102.350	-0.730	0.580	2.790	102.280	-0.900	2.600																			1580038208.0	2.31	4.28
26/01/2020 11:30:09	26012020	260120	113009	102.330	12.418753	-57.245028	102.400	-0.850	0.490	3.920	102.340	-0.800	3.900																			1580038209.0	2.28	4.22
26/01/2020 11:30:10	26012020	260120	113010	102.320	12.418743	-57.245028	102.360	-0.630	0.100	4.390	102.310	-1.100	4.700																			1580038210.0	1.88	3.48
26/01/2020 11:30:11	26012020	260120	113011	102.270	12.418738	-57.245027	102.320	-0.140	-0.250	3.990	102.270	-1.500	4.600																			1580038211.0	1.11	2.06
26/01/2020 11:30:12	26012020	260120	113012	102.280	12.418740	-57.245025	102.330	0.340	-0.280	2.760	102.280	-1.700	3.700																			1580038212.0	0.52	0.96
26/01/2020 11:30:13	26012020	260120	113013	102.340	12.418748	-57.245023	102.370	0.560	-0.000	0.960	102.360	-1.500	2.100																			1580038213.0	1.62	3.00
26/01/2020 11:30:14	26012020	260120	113014	102.450	12.418760	-57.245022	102.440	0.500	0.230	-1.000	102.470	-1.200	0.200																			1580038214.0	2.59	4.80
26/01/2020 11:30:15	26012020	260120	113015	102.530	12.418773	-57.245020	102.470	0.310	0.160	-2.620	102.540	-1.100	-1.700																			1580038215.0	2.80	5.19
26/01/2020 11:30:16	26012020	260120	113016	102.570	12.418782	-57.245018	102.480	0.120	-0.110	-3.420	102.580	-1.400	-2.800																			1580038216.0	2.16	4.00
26/01/2020 11:30:17	26012020	260120	113017	102.590	12.418787	-57.245017	102.500	-0.040	-0.350	-3.300	102.600	-1.600	-3.100																			1580038217.0	0.99	1.83
26/01/2020 11:30:18	26012020	260120	113018	102.600	12.418785	-57.245017	102.460	-0.160	-0.500	-2.330	102.590	-1.800	-2.400																			1580038218.0	0.29	0.54
26/01/2020 11:30:19	26012020	260120	113019	102.460	12.418778	-57.245018	102.310	-0.200	-0.630	-0.690	102.420	-1.900	-1.000																			1580038219.0	1.37	2.54
26/01/2020 11:30:20	26012020	260120	113020	102.270	12.418768	-57.245018	102.200	-0.170	-0.630	1.210	102.230	-2.000	0.800																			1580038220.0	2.15	3.98
26/01/2020 11:30:21	26012020	260120	113021	102.140	12.418758	-57.245020	102.180	-0.100	-0.400	2.860	102.140	-1.900	2.600																			1580038221.0	2.37	4.39
26/01/2020 11:30:22	26012020	260120	113022	102.140	12.418750	-57.245023	102.250	-0.060	0.020	3.880	102.150	-1.500	3.900																			1580038222.0	1.99	3.69
26/01/2020 11:30:23	26012020	260120	113023	102.220	12.418745	-57.245025	102.340	-0.040	0.370	4.120	102.240	-1.100	4.500																			1580038223.0	1.17	2.17
26/01/2020 11:30:24	26012020	260120	113024	102.290	12.418743	-57.245025	102.330	-0.010	0.380	3.630	102.290	-1.000	4.300																			1580038224.0	0.19	0.35
26/01/2020 11:30:25	26012020	260120	113025	102.260	12.418747	-57.245023	102.280	0.050	0.120	2.530	102.250	-1.100	3.400																			1580038225.0	0.80	1.48
26/01/2020 11:30:26	26012020	260120	113026	102.270	12.418753	-57.245022	102.350	0.080	-0.080	1.050	102.290	-1.400	2.100																			1580038226.0	1.48	2.74
26/01/2020 11:30:27	26012020	260120	113027	102.400	12.418762	-57.245018	102.570	0.080	0.000	-0.550	102.450	-1.400	0.500																			1580038227.0	1.77	3.28
26/01/2020 11:30:28	26012020	260120	113028	102.720	12.418770	-57.245018	102.770	0.070	0.130	-1.930	102.770	-1.300	-1.000																			1580038228.0	1.87	3.46
26/01/2020 11:30:29	26012020	260120	113029	102.870	12.418778	-57.245018	102.810	0.060	-0.010	-2.730	102.880	-1.300	-2.100																			1580038229.0	1.69	3.13
26/01/2020 11:30:30	26012020	260120	113030	102.850	12.418782	-57.245017	102.710	0.040	-0.380	-2.730	102.840	-1.600	-2.400																			1580038230.0	0.96	1.78
26/01/2020 11:30:31	26012020	260120	113031	102.740	12.418782	-57.245017	102.610	0.020	-0.630	-2.010	102.720	-1.900	-2.000																			1580038231.0	0.21	0.39
26/01/2020 11:30:32	26012020	260120	113032	102.610	12.418777	-57.245017	102.490	0.010	-0.590	-0.700	102.590	-2.000	-0.900																			1580038232.0	1.04	1.93
26/01/2020 11:30:33	26012020	260120	113033	102.450	12.418770	-57.245020	102.370	0.010	-0.370	0.830	102.420	-1.800	0.600																			1580038233.0	1.64	3.04
26/01/2020 11:30:34	26012020	260120	113034	102.320	12.418762	-57.245022	102.360	-0.010	-0.150	2.090	102.320	-1.600	2.000																			1580038234.0	1.66	3.07
26/01/2020 11:30:35	26012020	260120	113035	102.350	12.418757	-57.245023	102.470	-0.040	-0.040	2.870	102.380	-1.400	3.000																			1580038235.0	1.22	2.26
26/01/2020 11:30:36	26012020	260120	113036	102.480	12.418753	-57.245023	102.610	-0.090	-0.010	3.230	102.500	-1.400	3.500																			1580038236.0	0.79	1.46
26/01/2020 11:30:37	26012020	260120	113037	102.620	12.418752	-57.245023	102.760	-0.170	0.090	3.120	102.650	-1.300	3.600																			1580038237.0	0.44	0.81
26/01/2020 11:30:38	26012020	260120	113038	102.780	12.418752	-57.245025	102.900	-0.230	0.240	2.580	102.810	-1.200	3.200																			1580038238.0	0.05	0.09
26/01/2020 11:30:39	26012020	260120	113039	102.940	12.418753	-57.245025	103.040	-0.190	0.320	1.620	102.970	-1.100	2.400																			1580038239.0	0.50	0.93
26/01/2020 11:30:40	26012020	260120	113040	103.120	12.418758	-57.245025	103.200	0.010	0.250	0.360	103.160	-1.100	1.300																			1580038240.0	0.97	1.80
26/01/2020 11:30:41	26012020	260120	113041	103.300	12.418765	-57.245023	103.320	0.300	-0.030	-0.950	103.330	-1.300	-0.000																			1580038241.0	1.51	2.80
26/01/2020 11:30:42	26012020	260120	113042	103.410	12.418772	-57.245020	103.350	0.480	-0.420	-1.850	103.410	-1.600	-1.100																			1580038242.0	1.73	3.20
26/01/2020 11:30:43	26012020	260120	113043	103.390	12.418778	-57.245018	103.290	0.410	-0.670	-2.110	103.380	-2.000	-1.700																			1580038243.0	1.36	2.52
26/01/2020 11:30:44	26012020	260120	113044	103.330	12.418780	-57.245017	103.270	0.090	-0.560	-1.790	103.330	-2.000	-1.600																			1580038244.0	0.55	1.02
26/01/2020 11:30:45	26012020	260120	113045	103.320	12.418778	-57.245018	103.300	-0.300	-0.230	-0.960	103.330	-1.700	-0.900																			1580038245.0	0.43	0.80
26/01/2020 11:30:46	26012020	260120	113046	103.320	12.418773	-57.245020	103.280	-0.530	-0.000	0.250	103.310	-1.400	0.100																			1580038246.0	1.30	2.41
26/01/2020 11:30:47	26012020	260120	113047	103.260	12.418765	-57.245023	103.270	-0.500	0.020	1.460	103.240	-1.300	1.400																			1580038247.0	1.81	3.35
26/01/2020 11:30:48	26012020	260120	113048	103.240	12.418758	-57.245023	103.330	-0.280	-0.040	2.330	103.260	-1.400	2.400																			1580038248.0	1.74	3.22
26/01/2020 11:30:49	26012020	260120	113049	103.330	12.418752	-57.245025	103.460	-0.010	-0.040	2.700	103.350	-1.400	3.000																			1580038249.0	1.20	2.22
26/01/2020 11:30:50	26012020	260120	113050	103.460	12.418750	-57.245025	103.590	0.210	-0.010	2.490	103.490	-1.400	3.000																			1580038250.0	0.38	0.70
26/01/2020 11:30:51	26012020	260120	113051	103.590	12.418752	-57.245023	103.720	0.330	0.010	1.770	103.610	-1.400	2.500																			1580038251.0	0.49	0.91
26/01/2020 11:30:52	26012020	260120	113052	103.730	12.418757	-57.245023	103.760	0.340	-0.010	0.870	103.740	-1.400	1.600																			1580038252.0	1.11	2.06
26/01/2020 11:30:53	26012020	260120	113053	103.740	12.418763	-57.245022	103.680	0.220	-0.090	0.100	103.720	-1.400	0.800																			1580038253.0	1.26	2.33
26/01/2020 11:30:54	26012020	260120	113054	103.610	12.418768	-57.245020	103.490	-0.000	-0.200	-0.410	103.570	-1.500	0.200																			1580038254.0	1.01	1.87
26/01/2020 11:30:55	26012020	260120	113055	103.420	12.418770	-57.245018	103.340	-0.230	-0.220	-0.740	103.390	-1.600	-0.200																			1580038255.0	0.60	1.11
26/01/2020 11:30:56	26012020	260120	113056	103.340	12.418772	-57.245018	103.330	-0.350	-0.130	-0.910	103.340	-1.500	-0.500																			1580038256.0	0.27	0.50
26/01/2020 11:30:57	26012020	260120	113057	103.390	12.418772	-57.245020	103.390	-0.340	-0.050	-0.840	103.400	-1.400	-0.500																			1580038257.0	0.17	0.31
26/01/2020 11:30:58	26012020	260120	113058	103.440	12.418770	-57.245020	103.440	-0.230	-0.050	-0.520	103.450	-1.400	-0.300																			1580038258.0	0.47	0.87
26/01/2020 11:30:59	26012020	260120	113059	103.470	12.418767	-57.245022	103.460	-0.110	-0.100	-0.040	103.470	-1.400	0.200																			1580038259.0	0.70	1.30
26/01/2020 11:31:00	26012020	260120	113100	103.450	12.418763	-57.245022	103.400	0.040	-0.220	0.550	103.440	-1.500	0.700	1015.10	25.80	25.90	18.90	19.00	170.00	65.00	65.00	376.00	26.10	352.00	7.40	94.00	6.80	13174	3222.00	27.40	27.40	1580038260.0	0.72	1.33
26/01/2020 11:31:01	26012020	260120	113101	103.330	12.418760	-57.245023	103.270	0.210	-0.390	1.120	103.300	-1.700	1.300																			1580038261.0	0.63	1.17
26/01/2020 11:31:02	26012020	260120	113102	103.160	12.418758	-57.245022	103.100	0.340	-0.450	1.540	103.130	-1.800	1.800																			1580038262.0	0.53	0.98
26/01/2020 11:31:03	26012020	260120	113103	102.980	12.418757	-57.245022	102.940	0.350	-0.200	1.770	102.950	-1.700	2.100																			1580038263.0	0.34	0.63
26/01/2020 11:31:04	26012020	260120	113104	102.880	12.418757	-57.245023	102.920	0.200	0.250	1.630	102.880	-1.300	2.100																			1580038264.0	0.20	0.37
26/01/2020 11:31:05	26012020	260120	113105	102.920	12.418758	-57.245025	103.030	-0.020	0.500	1.150	102.940	-0.900	1.800																			1580038265.0	0.52	0.96
26/01/2020 11:31:06	26012020	260120	113106	103.060	12.418760	-57.245025	103.090	-0.140	0.280	0.540	103.070	-0.900	1.200																			1580038266.0	0.62	1.15
26/01/2020 11:31:07	26012020	260120	113107	103.110	12.418763	-57.245023	103.120	-0.180	-0.190	0.050	103.120	-1.400	0.600																			1580038267.0	0.60	1.11
26/01/2020 11:31:08	26012020	260120	113108	103.120	12.418763	-57.245022	103.080	-0.190	-0.500	-0.260	103.120	-1.800	0.200																			1580038268.0	0.47	0.87
26/01/2020 11:31:09	26012020	260120	113109	103.030	12.418763	-57.245020	102.900	-0.220	-0.550	-0.290	102.990	-1.900	0.100																			1580038269.0	0.13	0.24
26/01/2020 11:31:10	26012020	260120	113110	102.780	12.418763	-57.245022	102.620	-0.200	-0.430	-0.110	102.720	-1.900	0.200																			1580038270.0	0.24	0.44
26/01/2020 11:31:11	26012020	260120	113111	102.510	12.418762	-57.245022	102.430	-0.120	-0.200	0.070	102.470	-1.700	0.400																			1580038271.0	0.36	0.67
26/01/2020 11:31:12	26012020	260120	113112	102.400	12.418760	-57.245023	102.430	-0.010	0.100	0.170	102.410	-1.400	0.500																			1580038272.0	0.34	0.63
26/01/2020 11:31:13	26012020	260120	113113	102.480	12.418760	-57.245023	102.540	0.110	0.290	0.180	102.500	-1.100	0.600																			1580038273.0	0.26	0.48
26/01/2020 11:31:14	26012020	260120	113114	102.590	12.418760	-57.245025	102.610	0.250	0.210	0.250	102.600	-1.100	0.600																			1580038274.0	0.10	0.19
26/01/2020 11:31:15	26012020	260120	113115	102.590	12.418760	-57.245023	102.580	0.390	-0.050	0.410	102.580	-1.300	0.700																			1580038275.0	0.16	0.30
26/01/2020 11:31:16	26012020	260120	113116	102.560	12.418760	-57.245022	102.580	0.420	-0.260	0.590	102.560	-1.600	0.900																			1580038276.0	0.28	0.52
26/01/2020 11:31:17	26012020	260120	113117	102.570	12.418760	-57.245022	102.590	0.260	-0.320	0.860	102.580	-1.700	1.100																			1580038277.0	0.11	0.20
26/01/2020 11:31:18	26012020	260120	113118	102.530	12.418758	-57.245022	102.470	-0.040	-0.310	1.300	102.500	-1.700	1.500																			1580038278.0	0.29	0.54
26/01/2020 11:31:19	26012020	260120	113119	102.400	12.418755	-57.245023	102.300	-0.330	-0.300	1.720	102.360	-1.700	2.000																			1580038279.0	0.60	1.11
26/01/2020 11:31:20	26012020	260120	113120	102.210	12.418752	-57.245025	102.190	-0.480	-0.260	1.920	102.180	-1.700	2.300																			1580038280.0	0.70	1.30
26/01/2020 11:31:21	26012020	260120	113121	102.140	12.418750	-57.245025	102.160	-0.420	-0.150	1.840	102.130	-1.600	2.300																			1580038281.0	0.55	1.02
26/01/2020 11:31:22	26012020	260120	113122	102.140	12.418748	-57.245025	102.180	-0.230	0.040	1.460	102.150	-1.400	2.000																			1580038282.0	0.29	0.54
26/01/2020 11:31:23	26012020	260120	113123	102.180	12.418750	-57.245025	102.220	-0.000	0.180	0.800	102.200	-1.200	1.500																			1580038283.0	0.17	0.31
26/01/2020 11:31:24	26012020	260120	113124	102.250	12.418753	-57.245025	102.290	0.210	0.220	0.000	102.270	-1.100	0.700																			1580038284.0	0.71	1.31
26/01/2020 11:31:25	26012020	260120	113125	102.350	12.418758	-57.245023	102.380	0.350	0.160	-0.720	102.370	-1.200	-0.100																			1580038285.0	1.11	2.06
26/01/2020 11:31:26	26012020	260120	113126	102.460	12.418763	-57.245023	102.490	0.420	-0.020	-1.220	102.490	-1.300	-0.600																			1580038286.0	1.17	2.17
26/01/2020 11:31:27	26012020	260120	113127	102.560	12.418767	-57.245022	102.520	0.380	-0.360	-1.260	102.560	-1.600	-0.900																			1580038287.0	0.82	1.52
26/01/2020 11:31:28	26012020	260120	113128	102.510	12.418767	-57.245022	102.390	0.220	-0.710	-0.670	102.480	-2.000	-0.600																			1580038288.0	0.23	0.43
26/01/2020 11:31:29	26012020	260120	113129	102.310	12.418763	-57.245020	102.210	-0.050	-0.770	0.380	102.270	-2.200	0.300																			1580038289.0	0.82	1.52
26/01/2020 11:31:30	26012020	260120	113130	102.140	12.418757	-57.245022	102.120	-0.350	-0.390	1.470	102.110	-2.000	1.400																			1580038290.0	1.39	2.57
26/01/2020 11:31:31	26012020	260120	113131	102.090	12.418750	-57.245025	102.170	-0.550	0.230	2.230	102.100	-1.400	2.400																			1580038291.0	1.55	2.87
26/01/2020 11:31:32	26012020	260120	113132	102.170	12.418747	-57.245028	102.280	-0.500	0.610	2.480	102.190	-0.900	2.800																			1580038292.0	1.22	2.26
26/01/2020 11:31:33	26012020	260120	113133	102.290	12.418743	-57.245030	102.410	-0.220	0.490	2.240	102.320	-0.800	2.800																			1580038293.0	0.50	0.93
26/01/2020 11:31:34	26012020	260120	113134	102.440	12.418745	-57.245028	102.550	0.160	0.060	1.620	102.470	-1.100	2.300																			1580038294.0	0.29	0.54
26/01/2020 11:31:35	26012020	260120	113135	102.630	12.418748	-57.245027	102.750	0.430	-0.310	0.760	102.670	-1.600	1.500																			1580038295.0	0.89	1.65
26/01/2020 11:31:36	26012020	260120	113136	102.830	12.418753	-57.245025	102.870	0.440	-0.430	-0.090	102.850	-1.800	0.600																			1580038296.0	1.20	2.22
26/01/2020 11:31:37	26012020	260120	113137	102.880	12.418758	-57.245023	102.780	0.210	-0.370	-0.570	102.850	-1.800	-0.000																			1580038297.0	1.11	2.06
26/01/2020 11:31:38	26012020	260120	113138	102.700	12.418762	-57.245025	102.510	-0.060	-0.330	-0.540	102.640	-1.700	-0.200																			1580038298.0	0.63	1.17
26/01/2020 11:31:39	26012020	260120	113139	102.420	12.418762	-57.245025	102.290	-0.210	-0.290	-0.220	102.370	-1.700	0.000																			1580038299.0	0.12	0.22
26/01/2020 11:31:40	26012020	260120	113140	102.260	12.418760	-57.245025	102.250	-0.190	-0.170	0.080	102.260	-1.600	0.400																			1580038300.0	0.45	0.83
26/01/2020 11:31:41	26012020	260120	113141	102.260	12.418757	-57.245027	102.320	-0.070	-0.030	0.400	102.270	-1.500	0.700																			1580038301.0	0.56	1.04
26/01/2020 11:31:42	26012020	260120	113142	102.350	12.418755	-57.245027	102.400	0.040	0.070	0.700	102.370	-1.300	1.000																			1580038302.0	0.54	1.00
26/01/2020 11:31:43	26012020	260120	113143	102.410	12.418753	-57.245028	102.480	0.080	0.070	0.920	102.420	-1.300	1.200																			1580038303.0	0.36	0.67
26/01/2020 11:31:44	26012020	260120	113144	102.480	12.418752	-57.245028	102.510	0.110	-0.060	1.040	102.490	-1.400	1.400																			1580038304.0	0.13	0.24
26/01/2020 11:31:45	26012020	260120	113145	102.490	12.418752	-57.245027	102.480	0.150	-0.180	1.140	102.480	-1.500	1.500																			1580038305.0	0.14	0.26
26/01/2020 11:31:46	26012020	260120	113146	102.450	12.418753	-57.245027	102.440	0.130	-0.150	1.220	102.440	-1.600	1.600																			1580038306.0	0.13	0.24
26/01/2020 11:31:47	26012020	260120	113147	102.420	12.418753	-57.245027	102.420	0.000	-0.010	1.240	102.420	-1.400	1.600																			1580038307.0	0.13	0.24
26/01/2020 11:31:48	26012020	260120	113148	102.400	12.418753	-57.245028	102.380	-0.190	0.090	1.160	102.390	-1.300	1.600																			1580038308.0	0.24	0.44
26/01/2020 11:31:49	26012020	260120	113149	102.370	12.418753	-57.245028	102.340	-0.300	0.070	1.050	102.350	-1.300	1.500																			1580038309.0	0.19	0.35
26/01/2020 11:31:50	26012020	260120	113150	102.310	12.418753	-57.245028	102.240	-0.240	-0.070	0.960	102.280	-1.400	1.400																			1580038310.0	0.09	0.17
26/01/2020 11:31:51	26012020	260120	113151	102.180	12.418753	-57.245028	102.110	-0.030	-0.250	0.850	102.160	-1.500	1.300																			1580038311.0	0.11	0.20
26/01/2020 11:31:52	26012020	260120	113152	102.040	12.418753	-57.245028	101.980	0.200	-0.420	0.590	102.010	-1.700	1.100																			1580038312.0	0.13	0.24
26/01/2020 11:31:53	26012020	260120	113153	101.950	12.418755	-57.245027	101.930	0.320	-0.520	0.190	101.940	-1.900	0.800																			1580038313.0	0.47	0.87
26/01/2020 11:31:54	26012020	260120	113154	101.920	12.418758	-57.245027	101.900	0.330	-0.440	-0.180	101.920	-1.900	0.400																			1580038314.0	0.77	1.43
26/01/2020 11:31:55	26012020	260120	113155	101.900	12.418762	-57.245025	101.880	0.250	-0.190	-0.330	101.890	-1.700	0.100																			1580038315.0	0.80	1.48
26/01/2020 11:31:56	26012020	260120	113156	101.900	12.418765	-57.245025	101.920	0.060	0.140	-0.190	101.910	-1.400	0.100																			1580038316.0	0.48	0.89
26/01/2020 11:31:57	26012020	260120	113157	101.960	12.418765	-57.245027	101.970	-0.210	0.350	0.170	101.960	-1.100	0.400																			1580038317.0	0.24	0.44
26/01/2020 11:31:58	26012020	260120	113158	101.950	12.418762	-57.245028	101.910	-0.420	0.290	0.680	101.940	-1.000	0.900																			1580038318.0	0.60	1.11
26/01/2020 11:31:59	26012020	260120	113159	101.860	12.418758	-57.245028	101.830	-0.410	0.040	1.190	101.840	-1.200	1.400																			1580038319.0	0.76	1.41
26/01/2020 11:32:00	26012020	260120	113200	101.770	12.418755	-57.245028	101.750	-0.110	-0.240	1.580	101.750	-1.500	1.800	1015.10	25.80	25.80	18.60	18.70	168.00	64.00	64.00	376.00	26.20	353.00	7.80	95.00	7.60	13354	3151.00	27.40	27.40	1580038320.0	0.72	1.33
26/01/2020 11:32:01	26012020	260120	113201	101.670	12.418752	-57.245027	101.640	0.280	-0.470	1.770	101.650	-1.800	2.100																			1580038321.0	0.50	0.93
26/01/2020 11:32:02	26012020	260120	113202	101.560	12.418752	-57.245027	101.570	0.480	-0.470	1.620	101.550	-1.900	2.100																			1580038322.0	0.24	0.44
26/01/2020 11:32:03	26012020	260120	113203	101.590	12.418755	-57.245025	101.690	0.310	-0.080	1.130	101.610	-1.600	1.800																			1580038323.0	0.47	0.87
26/01/2020 11:32:04	26012020	260120	113204	101.750	12.418758	-57.245028	101.830	-0.070	0.450	0.530	101.780	-1.100	1.200																			1580038324.0	0.99	1.83
26/01/2020 11:32:05	26012020	260120	113205	101.870	12.418763	-57.245030	101.890	-0.340	0.550	0.050	101.880	-0.800	0.600																			1580038325.0	1.08	2.00
26/01/2020 11:32:06	26012020	260120	113206	101.890	12.418767	-57.245030	101.830	-0.260	-0.010	-0.230	101.880	-1.100	0.300																			1580038326.0	0.62	1.15
26/01/2020 11:32:07	26012020	260120	113207	101.810	12.418767	-57.245027	101.640	0.070	-0.830	-0.240	101.780	-1.900	0.100																			1580038327.0	0.63	1.17
26/01/2020 11:32:08	26012020	260120	113208	101.540	12.418767	-57.245023	101.400	0.300	-1.160	0.000	101.490	-2.500	0.300																			1580038328.0	0.76	1.41
26/01/2020 11:32:09	26012020	260120	113209	101.360	12.418765	-57.245022	101.250	0.240	-0.760	0.370	101.320	-2.400	0.600																			1580038329.0	0.30	0.56
26/01/2020 11:32:10	26012020	260120	113210	101.230	12.418765	-57.245023	101.260	-0.030	0.000	0.670	101.230	-1.700	1.000																			1580038330.0	0.43	0.80
26/01/2020 11:32:11	26012020	260120	113211	101.290	12.418765	-57.245027	101.410	-0.290	0.600	0.800	101.330	-1.000	1.200																			1580038331.0	0.59	1.09
26/01/2020 11:32:12	26012020	260120	113212	101.500	12.418765	-57.245028	101.630	-0.380	0.710	0.800	101.550	-0.600	1.200																			1580038332.0	0.35	0.65
26/01/2020 11:32:13	26012020	260120	113213	101.720	12.418763	-57.245028	101.800	-0.300	0.410	0.760	101.750	-0.800	1.200																			1580038333.0	0.09	0.17
26/01/2020 11:32:14	26012020	260120	113214	101.830	12.418763	-57.245027	101.840	-0.110	-0.040	0.770	101.840	-1.200	1.200																			1580038334.0	0.31	0.57
26/01/2020 11:32:15	26012020	260120	113215	101.810	12.418763	-57.245025	101.770	0.110	-0.400	0.800	101.790	-1.700	1.200																			1580038335.0	0.30	0.56
26/01/2020 11:32:16	26012020	260120	113216	101.750	12.418763	-57.245025	101.760	0.300	-0.520	0.730	101.750	-1.900	1.200																			1580038336.0	0.18	0.33
26/01/2020 11:32:17	26012020	260120	113217	101.760	12.418765	-57.245025	101.770	0.390	-0.410	0.580	101.770	-1.800	1.000																			1580038337.0	0.31	0.57
26/01/2020 11:32:18	26012020	260120	113218	101.780	12.418767	-57.245025	101.770	0.340	-0.210	0.450	101.780	-1.700	0.900																			1580038338.0	0.52	0.96
26/01/2020 11:32:19	26012020	260120	113219	101.750	12.418770	-57.245025	101.690	0.200	-0.060	0.380	101.730	-1.500	0.800																			1580038339.0	0.55	1.02
26/01/2020 11:32:20	26012020	260120	113220	101.670	12.418772	-57.245025	101.610	0.020	0.040	0.370	101.650	-1.400	0.800																			1580038340.0	0.44	0.81
26/01/2020 11:32:21	26012020	260120	113221	101.560	12.418772	-57.245027	101.500	-0.120	0.020	0.480	101.540	-1.300	0.800																			1580038341.0	0.24	0.44
26/01/2020 11:32:22	26012020	260120	113222	101.460	12.418772	-57.245025	101.450	-0.200	-0.160	0.650	101.450	-1.500	1.000																			1580038342.0	0.09	0.17
26/01/2020 11:32:23	26012020	260120	113223	101.480	12.418770	-57.245025	101.540	-0.220	-0.350	0.730	101.500	-1.700	1.100																			1580038343.0	0.34	0.63
26/01/2020 11:32:24	26012020	260120	113224	101.590	12.418770	-57.245023	101.640	-0.240	-0.370	0.710	101.600	-1.800	1.100																			1580038344.0	0.32	0.59
26/01/2020 11:32:25	26012020	260120	113225	101.660	12.418768	-57.245023	101.710	-0.260	-0.170	0.640	101.680	-1.600	1.100																			1580038345.0	0.12	0.22
26/01/2020 11:32:26	26012020	260120	113226	101.730	12.418770	-57.245025	101.760	-0.210	0.110	0.530	101.740	-1.400	1.000																			1580038346.0	0.17	0.31
26/01/2020 11:32:27	26012020	260120	113227	101.770	12.418770	-57.245025	101.740	-0.040	0.160	0.430	101.760	-1.200	0.900																			1580038347.0	0.21	0.39
26/01/2020 11:32:28	26012020	260120	113228	101.700	12.418770	-57.245025	101.650	0.150	0.010	0.350	101.680	-1.300	0.800																			1580038348.0	0.17	0.31
26/01/2020 11:32:29	26012020	260120	113229	101.630	12.418772	-57.245023	101.620	0.230	-0.040	0.200	101.620	-1.400	0.700																			1580038349.0	0.31	0.57
26/01/2020 11:32:30	26012020	260120	113230	101.640	12.418773	-57.245023	101.630	0.220	0.010	0.050	101.640	-1.400	0.500																			1580038350.0	0.42	0.78
26/01/2020 11:32:31	26012020	260120	113231	101.650	12.418775	-57.245023	101.640	0.210	0.020	-0.040	101.650	-1.300	0.400																			1580038351.0	0.54	1.00
26/01/2020 11:32:32	26012020	260120	113232	101.680	12.418778	-57.245023	101.700	0.170	-0.080	-0.020	101.690	-1.400	0.400																			1580038352.0	0.46	0.85
26/01/2020 11:32:33	26012020	260120	113233	101.730	12.418778	-57.245023	101.760	0.060	-0.240	0.170	101.740	-1.500	0.500																			1580038353.0	0.15	0.28
26/01/2020 11:32:34	26012020	260120	113234	101.770	12.418778	-57.245023	101.770	-0.070	-0.400	0.500	101.770	-1.700	0.800																			1580038354.0	0.18	0.33
26/01/2020 11:32:35	26012020	260120	113235	101.750	12.418777	-57.245023	101.720	-0.120	-0.550	0.890	101.740	-1.900	1.100																			1580038355.0	0.37	0.69
26/01/2020 11:32:36	26012020	260120	113236	101.640	12.418773	-57.245022	101.550	-0.050	-0.620	1.370	101.600	-2.000	1.600																			1580038356.0	0.60	1.11
26/01/2020 11:32:37	26012020	260120	113237	101.430	12.418770	-57.245022	101.360	0.020	-0.410	1.680	101.390	-1.900	2.000																			1580038357.0	0.70	1.30
26/01/2020 11:32:38	26012020	260120	113238	101.310	12.418768	-57.245022	101.330	-0.040	0.070	1.540	101.300	-1.500	2.000																			1580038358.0	0.35	0.65
26/01/2020 11:32:39	26012020	260120	113239	101.380	12.418770	-57.245023	101.460	-0.230	0.530	0.970	101.400	-1.000	1.600																			1580038359.0	0.39	0.72
26/01/2020 11:32:40	26012020	260120	113240	101.560	12.418773	-57.245025	101.640	-0.380	0.720	0.250	101.600	-0.700	0.900																			1580038360.0	0.80	1.48
26/01/2020 11:32:41	26012020	260120	113241	101.760	12.418777	-57.245025	101.820	-0.340	0.540	-0.420	101.790	-0.700	0.200																			1580038361.0	0.84	1.56
26/01/2020 11:32:42	26012020	260120	113242	101.940	12.418780	-57.245023	101.950	-0.130	0.050	-0.870	101.960	-1.100	-0.300																			1580038362.0	0.65	1.20
26/01/2020 11:32:43	26012020	260120	113243	102.010	12.418782	-57.245022	101.930	0.170	-0.530	-1.010	102.000	-1.700	-0.600																			1580038363.0	0.45	0.83
26/01/2020 11:32:44	26012020	260120	113244	101.930	12.418782	-57.245020	101.800	0.420	-0.930	-0.810	101.900	-2.200	-0.500																			1580038364.0	0.34	0.63
26/01/2020 11:32:45	26012020	260120	113245	101.790	12.418782	-57.245020	101.610	0.550	-0.960	-0.290	101.760	-2.400	-0.100																			1580038365.0	0.21	0.39
26/01/2020 11:32:46	26012020	260120	113246	101.540	12.418780	-57.245020	101.430	0.490	-0.590	0.360	101.500	-2.200	0.500																			1580038366.0	0.28	0.52
26/01/2020 11:32:47	26012020	260120	113247	101.380	12.418778	-57.245022	101.350	0.190	0.040	0.950	101.360	-1.600	1.100																			1580038367.0	0.48	0.89
26/01/2020 11:32:48	26012020	260120	113248	101.330	12.418777	-57.245025	101.390	-0.240	0.560	1.370	101.340	-1.000	1.600																			1580038368.0	0.65	1.20
26/01/2020 11:32:49	26012020	260120	113249	101.430	12.418775	-57.245027	101.540	-0.580	0.660	1.560	101.460	-0.700	1.900																			1580038369.0	0.61	1.13
26/01/2020 11:32:50	26012020	260120	113250	101.580	12.418773	-57.245027	101.670	-0.590	0.310	1.590	101.610	-0.900	2.000																			1580038370.0	0.50	0.93
26/01/2020 11:32:51	26012020	260120	113251	101.680	12.418772	-57.245025	101.720	-0.240	-0.270	1.420	101.690	-1.400	1.900																			1580038371.0	0.51	0.94
26/01/2020 11:32:52	26012020	260120	113252	101.740	12.418772	-57.245023	101.780	0.180	-0.600	0.960	101.760	-1.900	1.600																			1580038372.0	0.47	0.87
26/01/2020 11:32:53	26012020	260120	113253	101.800	12.418773	-57.245022	101.790	0.360	-0.500	0.390	101.810	-2.000	1.000																			1580038373.0	0.54	1.00
26/01/2020 11:32:54	26012020	260120	113254	101.770	12.418777	-57.245023	101.700	0.230	-0.140	-0.090	101.760	-1.700	0.500																			1580038374.0	0.84	1.56
26/01/2020 11:32:55	26012020	260120	113255	101.660	12.418782	-57.245025	101.570	-0.010	0.160	-0.380	101.640	-1.300	0.100																			1580038375.0	0.93	1.72
26/01/2020 11:32:56	26012020	260120	113256	101.560	12.418783	-57.245025	101.510	-0.190	0.160	-0.460	101.550	-1.200	-0.100																			1580038376.0	0.59	1.09
26/01/2020 11:32:57	26012020	260120	113257	101.530	12.418783	-57.245025	101.500	-0.220	-0.050	-0.380	101.530	-1.300	-0.000																			1580038377.0	0.06	0.11
26/01/2020 11:32:58	26012020	260120	113258	101.520	12.418783	-57.245025	101.520	-0.160	-0.230	-0.160	101.530	-1.500	0.100																			1580038378.0	0.33	0.61
26/01/2020 11:32:59	26012020	260120	113259	101.550	12.418780	-57.245025	101.570	-0.030	-0.270	0.120	101.560	-1.600	0.400																			1580038379.0	0.46	0.85
26/01/2020 11:33:00	26012020	260120	113300	101.590	12.418778	-57.245025	101.590	0.150	-0.260	0.500	101.590	-1.600	0.700	1015.10	25.80	25.80	18.50	18.60	162.00	64.00	64.00	376.00	26.10	353.00	7.50	94.00	7.30	13203	3154.00	27.40	27.40	1580038380.0	0.50	0.93
26/01/2020 11:33:01	26012020	260120	113301	101.560	12.418777	-57.245027	101.530	0.330	-0.270	0.880	101.550	-1.600	1.100																			1580038381.0	0.44	0.81
26/01/2020 11:33:02	26012020	260120	113302	101.480	12.418775	-57.245027	101.420	0.390	-0.270	1.130	101.450	-1.600	1.400																			1580038382.0	0.24	0.44
26/01/2020 11:33:03	26012020	260120	113303	101.330	12.418775	-57.245027	101.260	0.260	-0.160	1.260	101.300	-1.600	1.600																			1580038383.0	0.04	0.07
26/01/2020 11:33:04	26012020	260120	113304	101.180	12.418775	-57.245027	101.170	-0.010	0.040	1.240	101.170	-1.400	1.700																			1580038384.0	0.14	0.26
26/01/2020 11:33:05	26012020	260120	113305	101.170	12.418777	-57.245027	101.240	-0.260	0.180	1.090	101.190	-1.200	1.600																			1580038385.0	0.24	0.44
26/01/2020 11:33:06	26012020	260120	113306	101.300	12.418777	-57.245028	101.410	-0.360	0.130	0.820	101.340	-1.200	1.300																			1580038386.0	0.11	0.20
26/01/2020 11:33:07	26012020	260120	113307	101.510	12.418777	-57.245027	101.630	-0.290	0.060	0.370	101.560	-1.300	1.000																			1580038387.0	0.07	0.13
26/01/2020 11:33:08	26012020	260120	113308	101.730	12.418778	-57.245027	101.790	-0.150	0.040	-0.130	101.760	-1.300	0.400																			1580038388.0	0.31	0.57
26/01/2020 11:33:09	26012020	260120	113309	101.820	12.418780	-57.245028	101.770	-0.020	-0.010	-0.360	101.820	-1.400	0.100																			1580038389.0	0.47	0.87
26/01/2020 11:33:10	26012020	260120	113310	101.730	12.418782	-57.245028	101.640	0.080	-0.150	-0.240	101.700	-1.500	0.100																			1580038390.0	0.30	0.56
26/01/2020 11:33:11	26012020	260120	113311	101.600	12.418782	-57.245028	101.540	0.180	-0.390	0.010	101.580	-1.700	0.300																			1580038391.0	0.09	0.17
26/01/2020 11:33:12	26012020	260120	113312	101.510	12.418782	-57.245028	101.470	0.260	-0.640	0.290	101.500	-1.900	0.600																			1580038392.0	0.16	0.30
26/01/2020 11:33:13	26012020	260120	113313	101.430	12.418780	-57.245028	101.380	0.240	-0.710	0.640	101.400	-2.100	0.900																			1580038393.0	0.31	0.57
26/01/2020 11:33:14	26012020	260120	113314	101.320	12.418778	-57.245028	101.290	0.100	-0.430	1.080	101.300	-2.000	1.300																			1580038394.0	0.48	0.89
26/01/2020 11:33:15	26012020	260120	113315	101.230	12.418775	-57.245028	101.250	-0.050	0.080	1.360	101.220	-1.500	1.700																			1580038395.0	0.64	1.19
26/01/2020 11:33:16	26012020	260120	113316	101.250	12.418773	-57.245032	101.350	-0.120	0.510	1.250	101.270	-1.000	1.700																			1580038396.0	0.50	0.93
26/01/2020 11:33:17	26012020	260120	113317	101.450	12.418775	-57.245033	101.630	-0.080	0.640	0.790	101.510	-0.700	1.400																			1580038397.0	0.37	0.69
26/01/2020 11:33:18	26012020	260120	113318	101.760	12.418777	-57.245033	101.870	0.070	0.340	0.260	101.810	-0.900	0.800																			1580038398.0	0.54	1.00
26/01/2020 11:33:19	26012020	260120	113319	101.920	12.418780	-57.245032	101.920	0.210	-0.230	-0.090	101.930	-1.400	0.400																			1580038399.0	0.74	1.37
26/01/2020 11:33:20	26012020	260120	113320	101.890	12.418782	-57.245028	101.830	0.200	-0.660	-0.190	101.870	-1.900	0.200																			1580038400.0	0.70	1.30
26/01/2020 11:33:21	26012020	260120	113321	101.790	12.418783	-57.245027	101.690	0.010	-0.640	-0.050	101.770	-2.100	0.300																			1580038401.0	0.29	0.54
26/01/2020 11:33:22	26012020	260120	113322	101.660	12.418783	-57.245028	101.650	-0.260	-0.210	0.250	101.650	-1.800	0.500																			1580038402.0	0.30	0.56
26/01/2020 11:33:23	26012020	260120	113323	101.680	12.418782	-57.245032	101.760	-0.430	0.260	0.540	101.700	-1.300	0.800																			1580038403.0	0.76	1.41
26/01/2020 11:33:24	26012020	260120	113324	101.800	12.418778	-57.245035	101.890	-0.410	0.370	0.820	101.830	-1.000	1.100																			1580038404.0	0.78	1.44
26/01/2020 11:33:25	26012020	260120	113325	101.900	12.418777	-57.245037	101.960	-0.200	0.120	0.980	101.920	-1.100	1.300																			1580038405.0	0.60	1.11
26/01/2020 11:33:26	26012020	260120	113326	101.960	12.418775	-57.245035	101.990	0.140	-0.320	0.920	101.970	-1.500	1.400																			1580038406.0	0.37	0.69
26/01/2020 11:33:27	26012020	260120	113327	101.960	12.418775	-57.245033	101.950	0.450	-0.750	0.760	101.950	-2.000	1.200																			1580038407.0	0.35	0.65
26/01/2020 11:33:28	26012020	260120	113328	101.890	12.418777	-57.245032	101.870	0.550	-0.870	0.630	101.880	-2.200	1.100																			1580038408.0	0.54	1.00
26/01/2020 11:33:29	26012020	260120	113329	101.840	12.418778	-57.245030	101.870	0.350	-0.520	0.550	101.840	-2.100	1.000																			1580038409.0	0.42	0.78
26/01/2020 11:33:30	26012020	260120	113330	101.870	12.418780	-57.245032	101.900	-0.030	0.100	0.510	101.880	-1.500	0.900																			1580038410.0	0.37	0.69
26/01/2020 11:33:31	26012020	260120	113331	101.900	12.418780	-57.245033	101.920	-0.330	0.580	0.450	101.910	-0.900	0.900																			1580038411.0	0.48	0.89
26/01/2020 11:33:32	26012020	260120	113332	101.940	12.418780	-57.245035	101.980	-0.380	0.700	0.290	101.950	-0.700	0.800																			1580038412.0	0.30	0.56
26/01/2020 11:33:33	26012020	260120	113333	102.050	12.418780	-57.245035	102.140	-0.210	0.560	0.070	102.080	-0.700	0.500																			1580038413.0	0.04	0.07
26/01/2020 11:33:34	26012020	260120	113334	102.230	12.418780	-57.245035	102.300	0.060	0.220	-0.100	102.260	-1.000	0.300																			1580038414.0	0.14	0.26
26/01/2020 11:33:35	26012020	260120	113335	102.340	12.418782	-57.245035	102.400	0.240	-0.300	-0.110	102.370	-1.500	0.300																			1580038415.0	0.26	0.48
26/01/2020 11:33:36	26012020	260120	113336	102.440	12.418782	-57.245033	102.470	0.180	-0.760	0.050	102.450	-2.000	0.400																			1580038416.0	0.27	0.50
26/01/2020 11:33:37	26012020	260120	113337	102.480	12.418780	-57.245033	102.490	-0.060	-0.840	0.440	102.490	-2.200	0.600																			1580038417.0	0.20	0.37
26/01/2020 11:33:38	26012020	260120	113338	102.400	12.418778	-57.245035	102.320	-0.260	-0.550	1.060	102.370	-2.100	1.200																			1580038418.0	0.61	1.13
26/01/2020 11:33:39	26012020	260120	113339	102.160	12.418775	-57.245037	102.040	-0.250	-0.240	1.660	102.090	-1.700	1.800																			1580038419.0	0.92	1.70
26/01/2020 11:33:40	26012020	260120	113340	101.850	12.418772	-57.245038	101.790	-0.060	-0.140	1.970	101.800	-1.500	2.300																			1580038420.0	0.81	1.50
26/01/2020 11:33:41	26012020	260120	113341	101.670	12.418770	-57.245038	101.730	0.150	-0.110	1.780	101.670	-1.500	2.300																			1580038421.0	0.44	0.81
26/01/2020 11:33:42	26012020	260120	113342	101.760	12.418770	-57.245037	101.930	0.220	0.090	1.130	101.810	-1.400	1.800																			1580038422.0	0.31	0.57
26/01/2020 11:33:43	26012020	260120	113343	102.040	12.418773	-57.245037	102.220	0.160	0.400	0.250	102.100	-1.100	1.000																			1580038423.0	0.72	1.33
26/01/2020 11:33:44	26012020	260120	113344	102.340	12.418778	-57.245037	102.470	0.100	0.490	-0.600	102.400	-0.900	0.100																			1580038424.0	1.08	2.00
26/01/2020 11:33:45	26012020	260120	113345	102.560	12.418783	-57.245037	102.580	0.110	0.200	-1.110	102.580	-1.000	-0.600																			1580038425.0	1.06	1.96
26/01/2020 11:33:46	26012020	260120	113346	102.600	12.418787	-57.245035	102.540	0.150	-0.320	-1.100	102.590	-1.500	-0.800																			1580038426.0	0.71	1.31
26/01/2020 11:33:47	26012020	260120	113347	102.530	12.418787	-57.245033	102.390	0.060	-0.680	-0.630	102.490	-2.000	-0.500																			1580038427.0	0.37	0.69
26/01/2020 11:33:48	26012020	260120	113348	102.310	12.418783	-57.245033	102.190	-0.170	-0.610	0.220	102.260	-2.100	0.200																			1580038428.0	0.64	1.19
26/01/2020 11:33:49	26012020	260120	113349	102.080	12.418778	-57.245035	102.010	-0.410	-0.200	1.220	102.040	-1.800	1.200																			1580038429.0	1.23	2.28
26/01/2020 11:33:50	26012020	260120	113350	101.910	12.418772	-57.245038	101.940	-0.470	0.200	1.950	101.900	-1.300	2.100																			1580038430.0	1.47	2.72
26/01/2020 11:33:51	26012020	260120	113351	101.920	12.418768	-57.245042	102.050	-0.260	0.300	2.110	101.940	-1.100	2.500																			1580038431.0	1.05	1.94
26/01/2020 11:33:52	26012020	260120	113352	102.060	12.418767	-57.245042	102.190	0.120	0.050	1.790	102.100	-1.200	2.300																			1580038432.0	0.19	0.35
26/01/2020 11:33:53	26012020	260120	113353	102.200	12.418768	-57.245038	102.270	0.440	-0.340	1.220	102.220	-1.600	1.800																			1580038433.0	0.64	1.19
26/01/2020 11:33:54	26012020	260120	113354	102.260	12.418772	-57.245037	102.280	0.490	-0.580	0.680	102.260	-1.900	1.300																			1580038434.0	0.94	1.74
26/01/2020 11:33:55	26012020	260120	113355	102.270	12.418775	-57.245035	102.290	0.260	-0.410	0.230	102.280	-1.900	0.800																			1580038435.0	0.72	1.33
26/01/2020 11:33:56	26012020	260120	113356	102.310	12.418777	-57.245035	102.320	-0.090	0.030	-0.040	102.320	-1.500	0.400																			1580038436.0	0.48	0.89
26/01/2020 11:33:57	26012020	260120	113357	102.310	12.418778	-57.245037	102.250	-0.300	0.280	-0.090	102.290	-1.200	0.300																			1580038437.0	0.43	0.80
26/01/2020 11:33:58	26012020	260120	113358	102.200	12.418778	-57.245037	102.120	-0.260	0.170	-0.090	102.170	-1.100	0.300																			1580038438.0	0.12	0.22
26/01/2020 11:33:59	26012020	260120	113359	102.100	12.418778	-57.245037	102.110	-0.050	-0.110	-0.130	102.100	-1.400	0.300																			1580038439.0	0.25	0.46
26/01/2020 11:34:00	26012020	260120	113400	102.160	12.418778	-57.245035	102.230	0.170	-0.280	-0.090	102.190	-1.600	0.300	1015.10	25.80	25.80	18.40	18.50	167.00	63.00	63.00	376.00	26.20	354.00	7.30	96.00	7.10	13546	3109.00	27.40	27.40	1580038440.0	0.33	0.61
26/01/2020 11:34:01	26012020	260120	113401	102.260	12.418778	-57.245033	102.330	0.270	-0.270	0.120	102.280	-1.700	0.400																			1580038441.0	0.17	0.31
26/01/2020 11:34:02	26012020	260120	113402	102.340	12.418777	-57.245033	102.360	0.160	-0.150	0.460	102.340	-1.600	0.700																			1580038442.0	0.09	0.17
26/01/2020 11:34:03	26012020	260120	113403	102.350	12.418777	-57.245033	102.390	-0.110	-0.010	0.830	102.350	-1.400	1.100																			1580038443.0	0.24	0.44
26/01/2020 11:34:04	26012020	260120	113404	102.390	12.418775	-57.245035	102.450	-0.350	0.090	1.180	102.400	-1.300	1.400																			1580038444.0	0.48	0.89
26/01/2020 11:34:05	26012020	260120	113405	102.450	12.418772	-57.245037	102.510	-0.400	0.070	1.460	102.450	-1.300	1.700																			1580038445.0	0.67	1.24
26/01/2020 11:34:06	26012020	260120	113406	102.460	12.418768	-57.245037	102.510	-0.210	-0.150	1.610	102.460	-1.400	1.900																			1580038446.0	0.65	1.20
26/01/2020 11:34:07	26012020	260120	113407	102.430	12.418767	-57.245035	102.470	0.080	-0.410	1.500	102.430	-1.700	2.000																			1580038447.0	0.46	0.85
26/01/2020 11:34:08	26012020	260120	113408	102.420	12.418767	-57.245035	102.450	0.310	-0.470	1.150	102.420	-1.800	1.700																			1580038448.0	0.32	0.59
26/01/2020 11:34:09	26012020	260120	113409	102.410	12.418768	-57.245033	102.430	0.390	-0.290	0.650	102.410	-1.800	1.200																			1580038449.0	0.50	0.93
26/01/2020 11:34:10	26012020	260120	113410	102.420	12.418772	-57.245032	102.450	0.330	-0.030	0.050	102.420	-1.500	0.700																			1580038450.0	0.77	1.43
26/01/2020 11:34:11	26012020	260120	113411	102.490	12.418777	-57.245032	102.570	0.170	0.200	-0.470	102.520	-1.300	0.100																			1580038451.0	0.95	1.76
26/01/2020 11:34:12	26012020	260120	113412	102.650	12.418780	-57.245032	102.710	-0.060	0.240	-0.700	102.670	-1.100	-0.300																			1580038452.0	0.81	1.50
26/01/2020 11:34:13	26012020	260120	113413	102.760	12.418782	-57.245032	102.800	-0.270	0.060	-0.530	102.780	-1.200	-0.200																			1580038453.0	0.30	0.56
26/01/2020 11:34:14	26012020	260120	113414	102.810	12.418780	-57.245030	102.780	-0.390	-0.200	0.010	102.800	-1.500	0.200																			1580038454.0	0.37	0.69
26/01/2020 11:34:15	26012020	260120	113415	102.720	12.418775	-57.245030	102.680	-0.360	-0.360	0.720	102.700	-1.700	0.800																			1580038455.0	0.89	1.65
26/01/2020 11:34:16	26012020	260120	113416	102.620	12.418770	-57.245030	102.630	-0.210	-0.390	1.370	102.610	-1.800	1.500																			1580038456.0	1.16	2.15
26/01/2020 11:34:17	26012020	260120	113417	102.590	12.418765	-57.245032	102.660	0.010	-0.290	1.760	102.600	-1.700	2.000																			1580038457.0	1.06	1.96
26/01/2020 11:34:18	26012020	260120	113418	102.670	12.418763	-57.245032	102.800	0.180	0.010	1.760	102.700	-1.500	2.200																			1580038458.0	0.61	1.13
26/01/2020 11:34:19	26012020	260120	113419	102.850	12.418763	-57.245033	103.000	0.260	0.320	1.330	102.900	-1.200	1.900																			1580038459.0	0.24	0.44
26/01/2020 11:34:20	26012020	260120	113420	103.040	12.418767	-57.245033	103.110	0.300	0.300	0.670	103.070	-1.000	1.300																			1580038460.0	0.75	1.39
26/01/2020 11:34:21	26012020	260120	113421	103.110	12.418772	-57.245032	103.090	0.310	-0.120	0.110	103.110	-1.300	0.700																			1580038461.0	1.04	1.93
26/01/2020 11:34:22	26012020	260120	113422	103.050	12.418775	-57.245028	102.980	0.220	-0.640	-0.190	103.030	-1.800	0.300																			1580038462.0	1.00	1.85
26/01/2020 11:34:23	26012020	260120	113423	102.930	12.418777	-57.245027	102.820	-0.010	-0.900	-0.130	102.890	-2.200	0.200																			1580038463.0	0.64	1.19
26/01/2020 11:34:24	26012020	260120	113424	102.760	12.418775	-57.245025	102.650	-0.260	-0.700	0.210	102.720	-2.200	0.400																			1580038464.0	0.39	0.72
26/01/2020 11:34:25	26012020	260120	113425	102.610	12.418772	-57.245027	102.540	-0.350	-0.170	0.540	102.590	-1.800	0.800																			1580038465.0	0.64	1.19
26/01/2020 11:34:26	26012020	260120	113426	102.540	12.418770	-57.245027	102.590	-0.270	0.400	0.630	102.550	-1.200	1.000																			1580038466.0	0.59	1.09
26/01/2020 11:34:27	26012020	260120	113427	102.670	12.418768	-57.245028	102.790	-0.140	0.790	0.510	102.710	-0.700	1.000																			1580038467.0	0.33	0.61
26/01/2020 11:34:28	26012020	260120	113428	102.910	12.418768	-57.245030	103.050	-0.040	0.820	0.280	102.960	-0.500	0.800																			1580038468.0	0.16	0.30
26/01/2020 11:34:29	26012020	260120	113429	103.160	12.418770	-57.245030	103.240	0.040	0.420	0.120	103.200	-0.700	0.500																			1580038469.0	0.26	0.48
26/01/2020 11:34:30	26012020	260120	113430	103.280	12.418772	-57.245028	103.270	0.150	-0.280	0.190	103.290	-1.400	0.500																			1580038470.0	0.38	0.70
26/01/2020 11:34:31	26012020	260120	113431	103.240	12.418772	-57.245025	103.150	0.250	-0.920	0.480	103.220	-2.100	0.700																			1580038471.0	0.47	0.87
26/01/2020 11:34:32	26012020	260120	113432	103.040	12.418770	-57.245023	102.880	0.290	-1.180	0.940	102.980	-2.500	1.100																			1580038472.0	0.48	0.89
26/01/2020 11:34:33	26012020	260120	113433	102.730	12.418767	-57.245023	102.600	0.190	-0.940	1.410	102.670	-2.500	1.600																			1580038473.0	0.52	0.96
26/01/2020 11:34:34	26012020	260120	113434	102.490	12.418765	-57.245025	102.450	-0.020	-0.390	1.700	102.460	-2.000	2.000																			1580038474.0	0.55	1.02
26/01/2020 11:34:35	26012020	260120	113435	102.400	12.418763	-57.245027	102.450	-0.210	0.150	1.690	102.410	-1.400	2.100																			1580038475.0	0.49	0.91
26/01/2020 11:34:36	26012020	260120	113436	102.480	12.418763	-57.245027	102.580	-0.260	0.480	1.290	102.500	-1.000	1.900																			1580038476.0	0.17	0.31
26/01/2020 11:34:37	26012020	260120	113437	102.620	12.418765	-57.245027	102.760	-0.180	0.600	0.570	102.660	-0.800	1.300																			1580038477.0	0.32	0.59
26/01/2020 11:34:38	26012020	260120	113438	102.830	12.418767	-57.245025	102.860	-0.030	0.510	-0.110	102.850	-0.800	0.500																			1580038478.0	0.69	1.28
26/01/2020 11:34:39	26012020	260120	113439	102.920	12.418770	-57.245023	102.920	0.130	0.160	-0.620	102.930	-1.100	-0.000																			1580038479.0	0.83	1.54
26/01/2020 11:34:40	26012020	260120	113440	102.970	12.418773	-57.245022	102.940	0.230	-0.280	-0.850	102.970	-1.500	-0.400																			1580038480.0	0.82	1.52
26/01/2020 11:34:41	26012020	260120	113441	102.960	12.418775	-57.245020	102.890	0.210	-0.570	-0.660	102.940	-1.900	-0.400																			1580038481.0	0.52	0.96
26/01/2020 11:34:42	26012020	260120	113442	102.870	12.418775	-57.245020	102.780	0.060	-0.580	-0.080	102.840	-2.000	0.000																			1580038482.0	0.19	0.35
26/01/2020 11:34:43	26012020	260120	113443	102.720	12.418772	-57.245020	102.620	-0.140	-0.400	0.710	102.680	-1.900	0.800																			1580038483.0	0.68	1.26
26/01/2020 11:34:44	26012020	260120	113444	102.540	12.418767	-57.245023	102.490	-0.240	-0.230	1.480	102.500	-1.700	1.600																			1580038484.0	1.00	1.85
26/01/2020 11:34:45	26012020	260120	113445	102.430	12.418763	-57.245023	102.470	-0.200	-0.130	2.010	102.430	-1.500	2.200																			1580038485.0	1.04	1.93
26/01/2020 11:34:46	26012020	260120	113446	102.460	12.418758	-57.245023	102.570	-0.090	0.010	2.120	102.490	-1.400	2.500																			1580038486.0	0.80	1.48
26/01/2020 11:34:47	26012020	260120	113447	102.620	12.418758	-57.245023	102.750	-0.010	0.210	1.770	102.660	-1.200	2.300																			1580038487.0	0.24	0.44
26/01/2020 11:34:48	26012020	260120	113448	102.800	12.418760	-57.245025	102.880	0.060	0.320	1.140	102.830	-1.100	1.800																			1580038488.0	0.39	0.72
26/01/2020 11:34:49	26012020	260120	113449	102.890	12.418763	-57.245023	102.890	0.150	0.170	0.440	102.900	-1.100	1.100																			1580038489.0	0.84	1.56
26/01/2020 11:34:50	26012020	260120	113450	102.880	12.418768	-57.245022	102.800	0.260	-0.260	-0.160	102.870	-1.400	0.400																			1580038490.0	1.05	1.94
26/01/2020 11:34:51	26012020	260120	113451	102.760	12.418772	-57.245018	102.650	0.290	-0.680	-0.490	102.730	-1.900	0.000																			1580038491.0	1.00	1.85
26/01/2020 11:34:52	26012020	260120	113452	102.620	12.418773	-57.245017	102.550	0.140	-0.680	-0.530	102.600	-2.100	-0.200																			1580038492.0	0.68	1.26
26/01/2020 11:34:53	26012020	260120	113453	102.560	12.418775	-57.245017	102.540	-0.150	-0.280	-0.280	102.560	-1.800	-0.000																			1580038493.0	0.07	0.13
26/01/2020 11:34:54	26012020	260120	113454	102.590	12.418772	-57.245018	102.610	-0.380	0.160	0.160	102.590	-1.400	0.400																			1580038494.0	0.63	1.17
26/01/2020 11:34:55	26012020	260120	113455	102.650	12.418768	-57.245022	102.690	-0.370	0.330	0.620	102.660	-1.100	0.800																			1580038495.0	0.88	1.63
26/01/2020 11:34:56	26012020	260120	113456	102.700	12.418765	-57.245022	102.740	-0.120	0.200	0.960	102.700	-1.100	1.200																			1580038496.0	0.73	1.35
26/01/2020 11:34:57	26012020	260120	113457	102.730	12.418763	-57.245022	102.770	0.150	-0.020	1.110	102.730	-1.300	1.500																			1580038497.0	0.44	0.81
26/01/2020 11:34:58	26012020	260120	113458	102.760	12.418763	-57.245020	102.800	0.300	-0.150	1.140	102.770	-1.500	1.500																			1580038498.0	0.20	0.37
26/01/2020 11:34:59	26012020	260120	113459	102.770	12.418765	-57.245020	102.780	0.310	-0.240	1.130	102.760	-1.600	1.500																			1580038499.0	0.20	0.37
26/01/2020 11:35:00	26012020	260120	113500	102.740	12.418765	-57.245020	102.770	0.210	-0.310	1.050	102.740	-1.700	1.500	1015.10	25.80	25.90	18.40	18.50	182.00	63.00	63.00	376.00	26.20	352.00	7.00	95.00	6.70	14107	3227.00	27.50	27.40	1580038500.0	0.28	0.52
26/01/2020 11:35:01	26012020	260120	113501	102.760	12.418767	-57.245018	102.810	0.010	-0.280	0.870	102.770	-1.700	1.300																			1580038501.0	0.28	0.52
26/01/2020 11:35:02	26012020	260120	113502	102.810	12.418767	-57.245018	102.850	-0.220	-0.170	0.720	102.820	-1.600	1.200																			1580038502.0	0.18	0.33
26/01/2020 11:35:03	26012020	260120	113503	102.820	12.418767	-57.245020	102.820	-0.410	-0.080	0.680	102.810	-1.500	1.100																			1580038503.0	0.11	0.20
26/01/2020 11:35:04	26012020	260120	113504	102.770	12.418767	-57.245020	102.730	-0.480	0.000	0.680	102.750	-1.400	1.100																			1580038504.0	0.19	0.35
26/01/2020 11:35:05	26012020	260120	113505	102.660	12.418767	-57.245020	102.590	-0.350	0.000	0.640	102.630	-1.400	1.100																			1580038505.0	0.16	0.30
26/01/2020 11:35:06	26012020	260120	113506	102.510	12.418767	-57.245020	102.490	-0.050	-0.120	0.440	102.500	-1.400	0.900																			1580038506.0	0.09	0.17
26/01/2020 11:35:07	26012020	260120	113507	102.490	12.418767	-57.245018	102.540	0.230	-0.240	0.130	102.500	-1.600	0.700																			1580038507.0	0.33	0.61
26/01/2020 11:35:08	26012020	260120	113508	102.610	12.418768	-57.245018	102.710	0.370	-0.120	-0.120	102.650	-1.600	0.400																			1580038508.0	0.36	0.67
26/01/2020 11:35:09	26012020	260120	113509	102.780	12.418770	-57.245018	102.850	0.350	0.160	-0.260	102.820	-1.300	0.200																			1580038509.0	0.40	0.74
26/01/2020 11:35:10	26012020	260120	113510	102.890	12.418772	-57.245020	102.900	0.280	0.220	-0.250	102.900	-1.100	0.100																			1580038510.0	0.54	1.00
26/01/2020 11:35:11	26012020	260120	113511	102.890	12.418773	-57.245020	102.840	0.240	-0.110	-0.070	102.870	-1.300	0.200																			1580038511.0	0.33	0.61
26/01/2020 11:35:12	26012020	260120	113512	102.780	12.418773	-57.245018	102.680	0.230	-0.670	0.360	102.740	-1.800	0.600																			1580038512.0	0.30	0.56
26/01/2020 11:35:13	26012020	260120	113513	102.550	12.418772	-57.245017	102.440	0.130	-0.950	1.040	102.500	-2.300	1.100																			1580038513.0	0.69	1.28
26/01/2020 11:35:14	26012020	260120	113514	102.310	12.418767	-57.245015	102.290	-0.150	-0.620	1.740	102.280	-2.200	1.900																			1580038514.0	0.80	1.48
26/01/2020 11:35:15	26012020	260120	113515	102.230	12.418763	-57.245018	102.330	-0.540	0.130	2.060	102.230	-1.600	2.400																			1580038515.0	0.86	1.59
26/01/2020 11:35:16	26012020	260120	113516	102.350	12.418762	-57.245022	102.490	-0.790	0.760	1.880	102.390	-0.800	2.400																			1580038516.0	0.81	1.50
26/01/2020 11:35:17	26012020	260120	113517	102.500	12.418762	-57.245023	102.650	-0.730	0.890	1.380	102.540	-0.500	2.000																			1580038517.0	0.47	0.87
26/01/2020 11:35:18	26012020	260120	113518	102.670	12.418763	-57.245023	102.720	-0.360	0.540	0.750	102.690	-0.700	1.400																			1580038518.0	0.19	0.35
26/01/2020 11:35:19	26012020	260120	113519	102.730	12.418765	-57.245022	102.740	0.120	-0.070	0.060	102.740	-1.200	0.700																			1580038519.0	0.56	1.04
26/01/2020 11:35:20	26012020	260120	113520	102.770	12.418768	-57.245018	102.760	0.550	-0.650	-0.610	102.780	-1.800	0.100																			1580038520.0	0.91	1.69
26/01/2020 11:35:21	26012020	260120	113521	102.790	12.418773	-57.245017	102.730	0.800	-0.970	-1.100	102.790	-2.300	-0.500																			1580038521.0	1.05	1.94
26/01/2020 11:35:22	26012020	260120	113522	102.720	12.418777	-57.245015	102.610	0.780	-0.930	-1.210	102.700	-2.400	-0.800																			1580038522.0	0.97	1.80
26/01/2020 11:35:23	26012020	260120	113523	102.560	12.418780	-57.245015	102.440	0.490	-0.530	-0.770	102.520	-2.100	-0.600																			1580038523.0	0.55	1.02
26/01/2020 11:35:24	26012020	260120	113524	102.380	12.418778	-57.245017	102.310	0.020	0.010	0.050	102.350	-1.600	0.100																			1580038524.0	0.41	0.76
26/01/2020 11:35:25	26012020	260120	113525	102.290	12.418775	-57.245020	102.310	-0.400	0.380	0.920	102.280	-1.100	1.000																			1580038525.0	0.89	1.65
26/01/2020 11:35:26	26012020	260120	113526	102.320	12.418772	-57.245022	102.400	-0.590	0.440	1.610	102.340	-0.900	1.800																			1580038526.0	1.07	1.98
26/01/2020 11:35:27	26012020	260120	113527	102.400	12.418767	-57.245022	102.520	-0.530	0.240	2.080	102.420	-1.000	2.300																			1580038527.0	1.01	1.87
26/01/2020 11:35:28	26012020	260120	113528	102.520	12.418762	-57.245022	102.580	-0.320	-0.060	2.330	102.530	-1.300	2.600																			1580038528.0	0.87	1.61
26/01/2020 11:35:29	26012020	260120	113529	102.530	12.418760	-57.245020	102.520	-0.060	-0.290	2.270	102.510	-1.600	2.700																			1580038529.0	0.62	1.15
26/01/2020 11:35:30	26012020	260120	113530	102.440	12.418760	-57.245020	102.440	0.120	-0.300	1.750	102.430	-1.700	2.400																			1580038530.0	0.18	0.33
26/01/2020 11:35:31	26012020	260120	113531	102.440	12.418763	-57.245018	102.500	0.160	-0.050	0.800	102.460	-1.600	1.600																			1580038531.0	0.75	1.39
26/01/2020 11:35:32	26012020	260120	113532	102.590	12.418768	-57.245020	102.640	0.130	0.200	-0.220	102.620	-1.300	0.600																			1580038532.0	1.27	2.35
26/01/2020 11:35:33	26012020	260120	113533	102.720	12.418775	-57.245020	102.690	0.130	0.170	-0.970	102.730	-1.200	-0.300																			1580038533.0	1.31	2.43
26/01/2020 11:35:34	26012020	260120	113534	102.730	12.418780	-57.245020	102.650	0.170	-0.110	-1.330	102.720	-1.400	-0.800																			1580038534.0	1.01	1.87
26/01/2020 11:35:35	26012020	260120	113535	102.680	12.418782	-57.245018	102.600	0.180	-0.400	-1.320	102.670	-1.700	-1.000																			1580038535.0	0.61	1.13
26/01/2020 11:35:36	26012020	260120	113536	102.620	12.418782	-57.245018	102.550	0.140	-0.540	-0.900	102.610	-1.900	-0.700																			1580038536.0	0.15	0.28
26/01/2020 11:35:37	26012020	260120	113537	102.560	12.418780	-57.245018	102.510	0.050	-0.540	-0.150	102.540	-1.900	-0.100																			1580038537.0	0.47	0.87
26/01/2020 11:35:38	26012020	260120	113538	102.490	12.418777	-57.245018	102.450	-0.050	-0.480	0.770	102.480	-1.900	0.800																			1580038538.0	0.87	1.61
26/01/2020 11:35:39	26012020	260120	113539	102.390	12.418770	-57.245020	102.360	-0.130	-0.340	1.700	102.370	-1.800	1.700																			1580038539.0	1.16	2.15
26/01/2020 11:35:40	26012020	260120	113540	102.300	12.418765	-57.245020	102.330	-0.170	-0.020	2.300	102.290	-1.500	2.500																			1580038540.0	1.19	2.20
26/01/2020 11:35:41	26012020	260120	113541	102.300	12.418762	-57.245022	102.370	-0.140	0.310	2.400	102.310	-1.200	2.800																			1580038541.0	0.72	1.33
26/01/2020 11:35:42	26012020	260120	113542	102.390	12.418762	-57.245022	102.500	-0.030	0.440	2.010	102.420	-1.000	2.600																			1580038542.0	0.13	0.24
26/01/2020 11:35:43	26012020	260120	113543	102.550	12.418765	-57.245022	102.660	0.080	0.340	1.210	102.590	-1.000	2.000																			1580038543.0	0.58	1.07
26/01/2020 11:35:44	26012020	260120	113544	102.740	12.418770	-57.245020	102.840	0.130	0.210	0.270	102.780	-1.100	1.000																			1580038544.0	1.04	1.93
26/01/2020 11:35:45	26012020	260120	113545	102.950	12.418775	-57.245018	103.030	0.100	0.090	-0.560	103.000	-1.200	0.200																			1580038545.0	1.17	2.17
26/01/2020 11:35:46	26012020	260120	113546	103.150	12.418780	-57.245018	103.170	0.030	-0.110	-1.020	103.170	-1.400	-0.500																			1580038546.0	0.98	1.81
26/01/2020 11:35:47	26012020	260120	113547	103.220	12.418782	-57.245018	103.150	-0.030	-0.420	-1.030	103.210	-1.700	-0.700																			1580038547.0	0.50	0.93
26/01/2020 11:35:48	26012020	260120	113548	103.110	12.418782	-57.245018	102.970	-0.030	-0.660	-0.610	103.070	-2.000	-0.400																			1580038548.0	0.13	0.24
26/01/2020 11:35:49	26012020	260120	113549	102.890	12.418778	-57.245020	102.780	-0.000	-0.720	0.070	102.850	-2.100	0.200																			1580038549.0	0.60	1.11
26/01/2020 11:35:50	26012020	260120	113550	102.710	12.418775	-57.245020	102.670	0.000	-0.550	0.800	102.680	-2.000	0.900																			1580038550.0	0.84	1.56
26/01/2020 11:35:51	26012020	260120	113551	102.620	12.418772	-57.245022	102.650	-0.030	-0.280	1.360	102.620	-1.800	1.600																			1580038551.0	0.83	1.54
26/01/2020 11:35:52	26012020	260120	113552	102.610	12.418768	-57.245023	102.660	-0.050	-0.040	1.630	102.620	-1.500	1.900																			1580038552.0	0.62	1.15
26/01/2020 11:35:53	26012020	260120	113553	102.640	12.418767	-57.245023	102.750	-0.040	0.150	1.610	102.660	-1.300	2.000																			1580038553.0	0.33	0.61
26/01/2020 11:35:54	26012020	260120	113554	102.790	12.418767	-57.245023	102.920	-0.010	0.290	1.280	102.830	-1.100	1.800																			1580038554.0	0.04	0.07
26/01/2020 11:35:55	26012020	260120	113555	102.960	12.418768	-57.245023	103.030	0.040	0.300	0.820	102.990	-1.100	1.400																			1580038555.0	0.41	0.76
26/01/2020 11:35:56	26012020	260120	113556	103.060	12.418772	-57.245022	103.080	0.060	0.190	0.320	103.070	-1.200	0.900																			1580038556.0	0.61	1.13
26/01/2020 11:35:57	26012020	260120	113557	103.110	12.418775	-57.245020	103.100	0.040	0.120	-0.120	103.110	-1.300	0.400																			1580038557.0	0.62	1.15
26/01/2020 11:35:58	26012020	260120	113558	103.150	12.418777	-57.245020	103.150	-0.010	0.160	-0.420	103.160	-1.300	0.100																			1580038558.0	0.52	0.96
26/01/2020 11:35:59	26012020	260120	113559	103.220	12.418778	-57.245022	103.250	-0.020	0.120	-0.550	103.240	-1.200	-0.100																			1580038559.0	0.51	0.94
26/01/2020 11:36:00	26012020	260120	113600	103.320	12.418780	-57.245023	103.310	0.020	-0.220	-0.450	103.320	-1.400	-0.100	1015.10	25.90	25.90	18.70	18.80	199.00	64.00	64.00	376.00	26.20	353.00	7.00	95.00	6.80	14557	2974.00	27.40	27.40	1580038560.0	0.30	0.56
26/01/2020 11:36:01	26012020	260120	113601	103.320	12.418778	-57.245023	103.250	0.070	-0.720	-0.080	103.310	-1.900	0.100																			1580038561.0	0.23	0.43
26/01/2020 11:36:02	26012020	260120	113602	103.200	12.418777	-57.245022	103.090	0.030	-1.040	0.540	103.160	-2.300	0.700																			1580038562.0	0.57	1.06
26/01/2020 11:36:03	26012020	260120	113603	102.960	12.418772	-57.245022	102.840	-0.090	-0.950	1.210	102.910	-2.400	1.300																			1580038563.0	0.74	1.37
26/01/2020 11:36:04	26012020	260120	113604	102.700	12.418768	-57.245023	102.630	-0.180	-0.480	1.710	102.660	-2.100	1.900																			1580038564.0	0.79	1.46
26/01/2020 11:36:05	26012020	260120	113605	102.560	12.418767	-57.245025	102.570	-0.190	0.070	1.840	102.540	-1.500	2.200																			1580038565.0	0.71	1.31
26/01/2020 11:36:06	26012020	260120	113606	102.570	12.418765	-57.245027	102.700	-0.130	0.520	1.500	102.600	-1.000	2.100																			1580038566.0	0.36	0.67
26/01/2020 11:36:07	26012020	260120	113607	102.740	12.418767	-57.245027	102.960	-0.090	0.820	0.780	102.800	-0.700	1.500																			1580038567.0	0.24	0.44
26/01/2020 11:36:08	26012020	260120	113608	103.090	12.418770	-57.245027	103.200	-0.050	0.880	-0.050	103.140	-0.500	0.700																			1580038568.0	0.71	1.31
26/01/2020 11:36:09	26012020	260120	113609	103.320	12.418773	-57.245027	103.380	0.050	0.610	-0.760	103.370	-0.600	-0.100																			1580038569.0	0.89	1.65
26/01/2020 11:36:10	26012020	260120	113610	103.490	12.418777	-57.245025	103.460	0.260	0.000	-1.210	103.500	-1.100	-0.700																			1580038570.0	0.85	1.57
26/01/2020 11:36:11	26012020	260120	113611	103.490	12.418780	-57.245023	103.340	0.500	-0.800	-1.190	103.460	-1.900	-0.900																			1580038571.0	0.66	1.22
26/01/2020 11:36:12	26012020	260120	113612	103.290	12.418780	-57.245022	103.090	0.580	-1.370	-0.660	103.230	-2.600	-0.500																			1580038572.0	0.43	0.80
26/01/2020 11:36:13	26012020	260120	113613	102.980	12.418778	-57.245022	102.790	0.350	-1.330	0.280	102.920	-2.800	0.300																			1580038573.0	0.45	0.83
26/01/2020 11:36:14	26012020	260120	113614	102.680	12.418775	-57.245023	102.570	-0.140	-0.710	1.350	102.630	-2.400	1.300																			1580038574.0	0.96	1.78
26/01/2020 11:36:15	26012020	260120	113615	102.490	12.418768	-57.245027	102.470	-0.660	0.110	2.190	102.460	-1.600	2.300																			1580038575.0	1.44	2.67
26/01/2020 11:36:16	26012020	260120	113616	102.430	12.418763	-57.245032	102.490	-0.930	0.740	2.580	102.430	-0.800	2.900																			1580038576.0	1.44	2.67
26/01/2020 11:36:17	26012020	260120	113617	102.470	12.418760	-57.245033	102.600	-0.840	0.950	2.450	102.490	-0.500	2.900																			1580038577.0	1.02	1.89
26/01/2020 11:36:18	26012020	260120	113618	102.630	12.418758	-57.245033	102.750	-0.430	0.670	1.800	102.670	-0.600	2.500																			1580038578.0	0.37	0.69
26/01/2020 11:36:19	26012020	260120	113619	102.840	12.418758	-57.245032	102.950	0.120	0.140	0.730	102.880	-1.000	1.600																			1580038579.0	0.48	0.89
26/01/2020 11:36:20	26012020	260120	113620	103.070	12.418763	-57.245030	103.120	0.580	-0.300	-0.510	103.100	-1.500	0.400																			1580038580.0	1.18	2.19
26/01/2020 11:36:21	26012020	260120	113621	103.180	12.418772	-57.245027	103.110	0.840	-0.570	-1.490	103.180	-1.900	-0.800																			1580038581.0	1.59	2.94
26/01/2020 11:36:22	26012020	260120	113622	103.100	12.418778	-57.245027	102.920	0.850	-0.710	-1.900	103.060	-2.100	-1.400																			1580038582.0	1.45	2.69
26/01/2020 11:36:23	26012020	260120	113623	102.880	12.418782	-57.245027	102.670	0.650	-0.670	-1.660	102.820	-2.100	-1.400																			1580038583.0	0.81	1.50
26/01/2020 11:36:24	26012020	260120	113624	102.610	12.418782	-57.245027	102.450	0.270	-0.430	-0.860	102.560	-1.900	-0.800																			1580038584.0	0.15	0.28
26/01/2020 11:36:25	26012020	260120	113625	102.390	12.418778	-57.245028	102.290	-0.270	-0.040	0.300	102.350	-1.600	0.200																			1580038585.0	0.78	1.44
26/01/2020 11:36:26	26012020	260120	113626	102.250	12.418773	-57.245032	102.220	-0.820	0.300	1.510	102.230	-1.200	1.400																			1580038586.0	1.45	2.69
26/01/2020 11:36:27	26012020	260120	113627	102.170	12.418765	-57.245035	102.180	-1.070	0.320	2.560	102.160	-1.000	2.600																			1580038587.0	1.81	3.35
26/01/2020 11:36:28	26012020	260120	113628	102.110	12.418757	-57.245037	102.140	-0.840	0.010	3.210	102.100	-1.200	3.400																			1580038588.0	1.81	3.35
26/01/2020 11:36:29	26012020	260120	113629	102.070	12.418750	-57.245035	102.150	-0.250	-0.260	3.260	102.070	-1.600	3.700																			1580038589.0	1.43	2.65
26/01/2020 11:36:30	26012020	260120	113630	102.140	12.418748	-57.245035	102.270	0.340	-0.200	2.600	102.170	-1.600	3.300																			1580038590.0	0.54	1.00
26/01/2020 11:36:31	26012020	260120	113631	102.320	12.418750	-57.245035	102.460	0.670	0.080	1.320	102.360	-1.400	2.300																			1580038591.0	0.70	1.30
26/01/2020 11:36:32	26012020	260120	113632	102.550	12.418760	-57.245035	102.660	0.640	0.310	-0.240	102.600	-1.200	0.800																			1580038592.0	1.85	3.43
26/01/2020 11:36:33	26012020	260120	113633	102.790	12.418770	-57.245035	102.830	0.370	0.300	-1.540	102.830	-1.000	-0.700																			1580038593.0	2.36	4.37
26/01/2020 11:36:34	26012020	260120	113634	102.900	12.418778	-57.245033	102.790	0.080	-0.110	-2.070	102.900	-1.300	-1.600																			1580038594.0	1.78	3.30
26/01/2020 11:36:35	26012020	260120	113635	102.740	12.418780	-57.245033	102.470	-0.040	-0.740	-1.720	102.670	-1.900	-1.600																			1580038595.0	0.52	0.96
26/01/2020 11:36:36	26012020	260120	113636	102.310	12.418777	-57.245032	102.010	-0.010	-1.190	-0.740	102.200	-2.400	-0.800																			1580038596.0	0.81	1.50
26/01/2020 11:36:37	26012020	260120	113637	101.850	12.418772	-57.245032	101.700	0.020	-1.090	0.370	101.780	-2.600	0.300																			1580038597.0	1.39	2.57
26/01/2020 11:36:38	26012020	260120	113638	101.660	12.418765	-57.245033	101.720	-0.030	-0.390	1.250	101.660	-2.100	1.300																			1580038598.0	1.38	2.56
26/01/2020 11:36:39	26012020	260120	113639	101.800	12.418760	-57.245037	102.000	-0.130	0.500	1.710	101.860	-1.200	2.000																			1580038599.0	1.16	2.15
26/01/2020 11:36:40	26012020	260120	113640	102.150	12.418758	-57.245040	102.410	-0.180	1.070	1.710	102.240	-0.500	2.200																			1580038600.0	0.82	1.52
26/01/2020 11:36:41	26012020	260120	113641	102.580	12.418758	-57.245042	102.790	-0.170	1.090	1.380	102.660	-0.200	1.900																			1580038601.0	0.40	0.74
26/01/2020 11:36:42	26012020	260120	113642	102.900	12.418760	-57.245042	102.950	-0.100	0.550	1.060	102.930	-0.600	1.600																			1580038602.0	0.34	0.63
26/01/2020 11:36:43	26012020	260120	113643	102.950	12.418762	-57.245040	102.870	-0.020	-0.320	0.870	102.940	-1.400	1.300																			1580038603.0	0.46	0.85
26/01/2020 11:36:44	26012020	260120	113644	102.830	12.418762	-57.245037	102.760	0.030	-1.020	0.730	102.810	-2.200	1.200																			1580038604.0	0.54	1.00
26/01/2020 11:36:45	26012020	260120	113645	102.740	12.418763	-57.245035	102.710	0.040	-1.140	0.630	102.740	-2.500	1.100																			1580038605.0	0.27	0.50
26/01/2020 11:36:46	26012020	260120	113646	102.690	12.418763	-57.245037	102.620	0.020	-0.750	0.610	102.670	-2.300	1.000																			1580038606.0	0.23	0.43
26/01/2020 11:36:47	26012020	260120	113647	102.580	12.418762	-57.245038	102.520	0.010	-0.230	0.560	102.560	-1.800	1.000																			1580038607.0	0.52	0.96
26/01/2020 11:36:48	26012020	260120	113648	102.510	12.418762	-57.245042	102.510	0.000	0.130	0.350	102.510	-1.400	0.800																			1580038608.0	0.38	0.70
26/01/2020 11:36:49	26012020	260120	113649	102.560	12.418763	-57.245042	102.600	0.010	0.280	0.140	102.570	-1.100	0.600																			1580038609.0	0.22	0.41
26/01/2020 11:36:50	26012020	260120	113650	102.680	12.418765	-57.245042	102.780	0.040	0.260	-0.040	102.720	-1.100	0.400																			1580038610.0	0.26	0.48
26/01/2020 11:36:51	26012020	260120	113651	102.900	12.418765	-57.245040	102.990	0.140	0.140	-0.230	102.940	-1.200	0.200																			1580038611.0	0.32	0.59
26/01/2020 11:36:52	26012020	260120	113652	103.090	12.418767	-57.245038	103.130	0.290	-0.030	-0.290	103.110	-1.300	0.100																			1580038612.0	0.36	0.67
26/01/2020 11:36:53	26012020	260120	113653	103.170	12.418768	-57.245038	103.200	0.370	-0.130	-0.070	103.180	-1.500	0.200																			1580038613.0	0.20	0.37
26/01/2020 11:36:54	26012020	260120	113654	103.230	12.418767	-57.245038	103.260	0.260	-0.060	0.390	103.240	-1.500	0.600																			1580038614.0	0.16	0.30
26/01/2020 11:36:55	26012020	260120	113655	103.280	12.418765	-57.245040	103.330	-0.030	0.020	0.930	103.290	-1.400	1.100																			1580038615.0	0.55	1.02
26/01/2020 11:36:56	26012020	260120	113656	103.330	12.418763	-57.245042	103.340	-0.280	-0.100	1.420	103.320	-1.400	1.600																			1580038616.0	0.67	1.24
26/01/2020 11:36:57	26012020	260120	113657	103.300	12.418760	-57.245043	103.270	-0.350	-0.360	1.780	103.290	-1.600	2.000																			1580038617.0	0.57	1.06
26/01/2020 11:36:58	26012020	260120	113658	103.210	12.418758	-57.245043	103.190	-0.280	-0.520	1.990	103.190	-1.900	2.300																			1580038618.0	0.54	1.00
26/01/2020 11:36:59	26012020	260120	113659	103.120	12.418755	-57.245043	103.100	-0.210	-0.450	2.010	103.100	-1.900	2.400																			1580038619.0	0.45	0.83
26/01/2020 11:37:00	26012020	260120	113700	103.040	12.418755	-57.245043	103.030	-0.220	-0.200	1.770	103.020	-1.700	2.300	1015.10	25.90	25.90	18.60	18.70	218.00	64.00	64.00	376.00	26.20	353.00	6.80	96.00	6.50	14919	3183.00	27.50	27.40	1580038620.0	0.26	0.48
26/01/2020 11:37:01	26012020	260120	113701	103.010	12.418755	-57.245043	103.050	-0.260	0.080	1.160	103.020	-1.400	1.900																			1580038621.0	0.20	0.37
26/01/2020 11:37:02	26012020	260120	113702	103.110	12.418758	-57.245045	103.140	-0.190	0.220	0.290	103.130	-1.200	1.000																			1580038622.0	0.55	1.02
26/01/2020 11:37:03	26012020	260120	113703	103.210	12.418762	-57.245043	103.150	0.100	0.130	-0.500	103.210	-1.200	0.200																			1580038623.0	0.76	1.41
26/01/2020 11:37:04	26012020	260120	113704	103.180	12.418765	-57.245042	103.060	0.510	-0.120	-1.010	103.160	-1.400	-0.400																			1580038624.0	0.84	1.56
26/01/2020 11:37:05	26012020	260120	113705	103.090	12.418768	-57.245040	102.990	0.750	-0.240	-1.290	103.080	-1.600	-0.800																			1580038625.0	0.89	1.65
26/01/2020 11:37:06	26012020	260120	113706	103.060	12.418772	-57.245038	103.020	0.650	-0.130	-1.300	103.060	-1.600	-0.900																			1580038626.0	0.77	1.43
26/01/2020 11:37:07	26012020	260120	113707	103.110	12.418773	-57.245038	103.110	0.300	0.050	-0.890	103.120	-1.400	-0.700																			1580038627.0	0.47	0.87
26/01/2020 11:37:08	26012020	260120	113708	103.180	12.418773	-57.245040	103.180	-0.090	0.090	-0.030	103.200	-1.300	-0.000																			1580038628.0	0.30	0.56
26/01/2020 11:37:09	26012020	260120	113709	103.210	12.418770	-57.245042	103.160	-0.330	-0.110	1.140	103.200	-1.400	1.000																			1580038629.0	0.83	1.54
26/01/2020 11:37:10	26012020	260120	113710	103.080	12.418762	-57.245042	102.990	-0.430	-0.410	2.420	103.040	-1.700	2.300																			1580038630.0	1.50	2.78
26/01/2020 11:37:11	26012020	260120	113711	102.860	12.418753	-57.245042	102.810	-0.490	-0.500	3.430	102.820	-1.900	3.500																			1580038631.0	1.84	3.41
26/01/2020 11:37:12	26012020	260120	113712	102.700	12.418747	-57.245043	102.720	-0.530	-0.250	3.770	102.680	-1.700	4.100																			1580038632.0	1.53	2.83
26/01/2020 11:37:13	26012020	260120	113713	102.660	12.418743	-57.245045	102.730	-0.440	0.110	3.290	102.670	-1.400	4.000																			1580038633.0	0.73	1.35
26/01/2020 11:37:14	26012020	260120	113714	102.730	12.418747	-57.245045	102.810	-0.180	0.250	2.090	102.760	-1.100	3.000																			1580038634.0	0.48	0.89
26/01/2020 11:37:15	26012020	260120	113715	102.870	12.418752	-57.245043	102.900	0.160	0.090	0.500	102.890	-1.200	1.500																			1580038635.0	1.31	2.43
26/01/2020 11:37:16	26012020	260120	113716	102.950	12.418760	-57.245042	102.880	0.450	-0.200	-1.060	102.950	-1.500	-0.100																			1580038636.0	1.87	3.46
26/01/2020 11:37:17	26012020	260120	113717	102.920	12.418768	-57.245037	102.790	0.570	-0.390	-2.260	102.900	-1.700	-1.400																			1580038637.0	2.05	3.80
26/01/2020 11:37:18	26012020	260120	113718	102.870	12.418777	-57.245035	102.750	0.470	-0.380	-2.840	102.870	-1.800	-2.300																			1580038638.0	1.71	3.17
26/01/2020 11:37:19	26012020	260120	113719	102.850	12.418780	-57.245033	102.720	0.200	-0.230	-2.600	102.840	-1.700	-2.400																			1580038639.0	0.92	1.70
26/01/2020 11:37:20	26012020	260120	113720	102.770	12.418780	-57.245033	102.640	-0.060	-0.130	-1.610	102.750	-1.500	-1.700																			1580038640.0	0.15	0.28
26/01/2020 11:37:21	26012020	260120	113721	102.660	12.418775	-57.245035	102.580	-0.210	-0.070	-0.140	102.650	-1.500	-0.400																			1580038641.0	1.13	2.09
26/01/2020 11:37:22	26012020	260120	113722	102.610	12.418767	-57.245037	102.620	-0.250	0.050	1.440	102.610	-1.400	1.200																			1580038642.0	1.77	3.28
26/01/2020 11:37:23	26012020	260120	113723	102.650	12.418758	-57.245038	102.710	-0.260	0.190	2.770	102.660	-1.200	2.700																			1580038643.0	1.94	3.59
26/01/2020 11:37:24	26012020	260120	113724	102.720	12.418750	-57.245040	102.800	-0.250	0.230	3.580	102.740	-1.100	3.700																			1580038644.0	1.67	3.09
26/01/2020 11:37:25	26012020	260120	113725	102.790	12.418745	-57.245040	102.860	-0.130	0.070	3.680	102.800	-1.200	4.100																			1580038645.0	0.97	1.80
26/01/2020 11:37:26	26012020	260120	113726	102.840	12.418745	-57.245040	102.900	0.090	-0.210	3.110	102.860	-1.500	3.800																			1580038646.0	0.16	0.30
26/01/2020 11:37:27	26012020	260120	113727	102.910	12.418748	-57.245038	102.930	0.260	-0.450	2.080	102.920	-1.700	2.900																			1580038647.0	0.86	1.59
26/01/2020 11:37:28	26012020	260120	113728	102.940	12.418755	-57.245035	102.900	0.250	-0.540	0.880	102.930	-1.900	1.800																			1580038648.0	1.40	2.59
26/01/2020 11:37:29	26012020	260120	113729	102.900	12.418762	-57.245033	102.820	0.060	-0.450	-0.270	102.890	-1.900	0.600																			1580038649.0	1.54	2.85
26/01/2020 11:37:30	26012020	260120	113730	102.840	12.418768	-57.245032	102.750	-0.230	-0.200	-1.160	102.830	-1.700	-0.500																			1580038650.0	1.33	2.46
26/01/2020 11:37:31	26012020	260120	113731	102.810	12.418772	-57.245032	102.690	-0.400	0.030	-1.600	102.790	-1.400	-1.100																			1580038651.0	0.80	1.48
26/01/2020 11:37:32	26012020	260120	113732	102.720	12.418773	-57.245032	102.580	-0.300	0.070	-1.610	102.700	-1.300	-1.200																			1580038652.0	0.19	0.35
26/01/2020 11:37:33	26012020	260120	113733	102.600	12.418772	-57.245032	102.500	0.040	-0.030	-1.350	102.590	-1.400	-1.100																			1580038653.0	0.24	0.44
26/01/2020 11:37:34	26012020	260120	113734	102.570	12.418770	-57.245030	102.580	0.360	-0.070	-0.920	102.590	-1.400	-0.700																			1580038654.0	0.42	0.78
26/01/2020 11:37:35	26012020	260120	113735	102.730	12.418768	-57.245028	102.840	0.440	0.040	-0.360	102.780	-1.400	-0.200																			1580038655.0	0.34	0.63
26/01/2020 11:37:36	26012020	260120	113736	103.010	12.418768	-57.245030	103.120	0.310	0.130	0.350	103.060	-1.300	0.400																			1580038656.0	0.34	0.63
26/01/2020 11:37:37	26012020	260120	113737	103.230	12.418765	-57.245030	103.280	0.090	0.100	1.190	103.260	-1.200	1.200																			1580038657.0	0.53	0.98
26/01/2020 11:37:38	26012020	260120	113738	103.290	12.418762	-57.245032	103.270	-0.120	-0.020	2.060	103.290	-1.300	2.100																			1580038658.0	0.79	1.46
26/01/2020 11:37:39	26012020	260120	113739	103.180	12.418757	-57.245032	103.090	-0.250	-0.200	2.860	103.150	-1.500	2.900																			1580038659.0	1.00	1.85
26/01/2020 11:37:40	26012020	260120	113740	102.940	12.418753	-57.245033	102.850	-0.270	-0.390	3.320	102.890	-1.700	3.600																			1580038660.0	0.97	1.80
26/01/2020 11:37:41	26012020	260120	113741	102.740	12.418750	-57.245033	102.750	-0.220	-0.510	3.190	102.730	-1.800	3.700																			1580038661.0	0.59	1.09
26/01/2020 11:37:42	26012020	260120	113742	102.750	12.418750	-57.245032	102.800	-0.170	-0.500	2.470	102.770	-1.900	3.200																			1580038662.0	0.15	0.28
26/01/2020 11:37:43	26012020	260120	113743	102.820	12.418753	-57.245032	102.800	-0.080	-0.400	1.320	102.820	-1.800	2.200																			1580038663.0	0.69	1.28
26/01/2020 11:37:44	26012020	260120	113744	102.820	12.418758	-57.245028	102.780	0.040	-0.190	-0.040	102.820	-1.700	0.900																			1580038664.0	1.30	2.41
26/01/2020 11:37:45	26012020	260120	113745	102.830	12.418767	-57.245027	102.800	0.120	0.130	-1.260	102.840	-1.400	-0.400																			1580038665.0	1.61	2.98
26/01/2020 11:37:46	26012020	260120	113746	102.920	12.418773	-57.245027	102.910	0.130	0.420	-2.120	102.950	-1.000	-1.400																			1580038666.0	1.52	2.82
26/01/2020 11:37:47	26012020	260120	113747	103.090	12.418778	-57.245025	103.080	0.080	0.490	-2.470	103.110	-0.900	-2.000																			1580038667.0	1.16	2.15
26/01/2020 11:37:48	26012020	260120	113748	103.230	12.418780	-57.245025	103.190	0.010	0.190	-2.180	103.250	-1.000	-2.000																			1580038668.0	0.51	0.94
26/01/2020 11:37:49	26012020	260120	113749	103.280	12.418778	-57.245023	103.180	0.020	-0.290	-1.190	103.270	-1.500	-1.300																			1580038669.0	0.47	0.87
26/01/2020 11:37:50	26012020	260120	113750	103.160	12.418773	-57.245023	103.000	0.100	-0.640	0.280	103.110	-1.900	0.000																			1580038670.0	1.28	2.37
26/01/2020 11:37:51	26012020	260120	113751	102.900	12.418765	-57.245023	102.780	0.160	-0.680	1.820	102.850	-2.100	1.600																			1580038671.0	1.68	3.11
26/01/2020 11:37:52	26012020	260120	113752	102.690	12.418758	-57.245025	102.680	0.100	-0.400	2.970	102.660	-1.900	3.000																			1580038672.0	1.61	2.98
26/01/2020 11:37:53	26012020	260120	113753	102.650	12.418752	-57.245028	102.730	-0.040	-0.010	3.530	102.660	-1.500	3.800																			1580038673.0	1.20	2.22
26/01/2020 11:37:54	26012020	260120	113754	102.740	12.418750	-57.245030	102.850	-0.120	0.210	3.470	102.770	-1.200	3.900																			1580038674.0	0.65	1.20
26/01/2020 11:37:55	26012020	260120	113755	102.860	12.418750	-57.245030	102.900	-0.120	0.170	2.850	102.880	-1.200	3.500																			1580038675.0	0.07	0.13
26/01/2020 11:37:56	26012020	260120	113756	102.880	12.418753	-57.245028	102.850	-0.050	0.050	1.820	102.870	-1.300	2.700																			1580038676.0	0.75	1.39
26/01/2020 11:37:57	26012020	260120	113757	102.850	12.418760	-57.245027	102.840	0.000	0.030	0.510	102.850	-1.400	1.400																			1580038677.0	1.35	2.50
26/01/2020 11:37:58	26012020	260120	113758	102.910	12.418767	-57.245025	102.910	-0.020	0.040	-0.810	102.930	-1.300	0.100																			1580038678.0	1.72	3.19
26/01/2020 11:37:59	26012020	260120	113759	102.990	12.418775	-57.245023	102.920	-0.070	-0.170	-1.710	103.000	-1.400	-1.000																			1580038679.0	1.56	2.89
26/01/2020 11:38:00	26012020	260120	113800	102.940	12.418778	-57.245022	102.790	-0.050	-0.590	-1.890	102.920	-1.800	-1.500	1015.20	25.90	25.90	18.60	18.70	208.00	64.00	64.00	377.00	26.30	348.00	7.00	91.00	6.50	14755	3180.00	27.50	27.40	1580038680.0	0.92	1.70
26/01/2020 11:38:01	26012020	260120	113801	102.740	12.418778	-57.245018	102.540	0.000	-0.870	-1.420	102.690	-2.200	-1.300																			1580038681.0	0.46	0.85
26/01/2020 11:38:02	26012020	260120	113802	102.460	12.418775	-57.245018	102.320	0.020	-0.700	-0.590	102.420	-2.200	-0.600																			1580038682.0	0.74	1.37
26/01/2020 11:38:03	26012020	260120	113803	102.280	12.418770	-57.245018	102.230	-0.040	-0.100	0.310	102.270	-1.700	0.300																			1580038683.0	1.03	1.91
26/01/2020 11:38:04	26012020	260120	113804	102.240	12.418765	-57.245022	102.280	-0.120	0.610	1.100	102.260	-1.000	1.200																			1580038684.0	1.18	2.19
26/01/2020 11:38:05	26012020	260120	113805	102.360	12.418762	-57.245025	102.490	-0.130	1.010	1.610	102.400	-0.500	1.800																			1580038685.0	1.04	1.93
26/01/2020 11:38:06	26012020	260120	113806	102.640	12.418760	-57.245027	102.820	-0.020	0.900	1.740	102.710	-0.400	2.100																			1580038686.0	0.59	1.09
26/01/2020 11:38:07	26012020	260120	113807	102.960	12.418760	-57.245027	103.030	0.190	0.250	1.620	103.000	-0.800	2.100																			1580038687.0	0.02	0.04
26/01/2020 11:38:08	26012020	260120	113808	103.050	12.418762	-57.245023	102.990	0.420	-0.710	1.440	103.040	-1.700	1.900																			1580038688.0	0.61	1.13
26/01/2020 11:38:09	26012020	260120	113809	102.900	12.418763	-57.245020	102.720	0.480	-1.400	1.350	102.850	-2.600	1.800																			1580038689.0	0.87	1.61
26/01/2020 11:38:10	26012020	260120	113810	102.560	12.418763	-57.245018	102.340	0.280	-1.430	1.420	102.480	-2.900	1.800																			1580038690.0	0.59	1.09
26/01/2020 11:38:11	26012020	260120	113811	102.160	12.418763	-57.245018	102.010	-0.090	-0.810	1.470	102.100	-2.500	1.900																			1580038691.0	0.03	0.06
26/01/2020 11:38:12	26012020	260120	113812	101.920	12.418763	-57.245020	101.890	-0.460	0.070	1.260	101.900	-1.600	1.800																			1580038692.0	0.43	0.80
26/01/2020 11:38:13	26012020	260120	113813	101.900	12.418765	-57.245022	101.960	-0.640	0.720	0.770	101.920	-0.900	1.400																			1580038693.0	0.46	0.85
26/01/2020 11:38:14	26012020	260120	113814	102.070	12.418765	-57.245023	102.210	-0.570	0.930	-0.000	102.140	-0.500	0.700																			1580038694.0	0.29	0.54
26/01/2020 11:38:15	26012020	260120	113815	102.410	12.418768	-57.245022	102.530	-0.310	0.770	-0.850	102.480	-0.500	-0.100																			1580038695.0	0.55	1.02
26/01/2020 11:38:16	26012020	260120	113816	102.720	12.418772	-57.245020	102.770	0.030	0.330	-1.400	102.770	-0.800	-0.800																			1580038696.0	0.77	1.43
26/01/2020 11:38:17	26012020	260120	113817	102.920	12.418773	-57.245018	102.880	0.320	-0.200	-1.460	102.940	-1.400	-1.100																			1580038697.0	0.68	1.26
26/01/2020 11:38:18	26012020	260120	113818	102.950	12.418775	-57.245017	102.820	0.510	-0.640	-1.000	102.930	-1.900	-0.800																			1580038698.0	0.36	0.67
26/01/2020 11:38:19	26012020	260120	113819	102.790	12.418773	-57.245017	102.630	0.530	-0.850	-0.150	102.750	-2.200	-0.100																			1580038699.0	0.21	0.39
26/01/2020 11:38:20	26012020	260120	113820	102.560	12.418772	-57.245017	102.420	0.380	-0.780	0.900	102.510	-2.200	0.900																			1580038700.0	0.58	1.07
26/01/2020 11:38:21	26012020	260120	113821	102.340	12.418767	-57.245018	102.230	0.100	-0.490	2.000	102.290	-2.000	2.000																			1580038701.0	0.98	1.81
26/01/2020 11:38:22	26012020	260120	113822	102.170	12.418762	-57.245020	102.180	-0.170	-0.070	2.790	102.160	-1.600	2.900																			1580038702.0	1.20	2.22
26/01/2020 11:38:23	26012020	260120	113823	102.200	12.418757	-57.245022	102.290	-0.350	0.330	3.030	102.220	-1.200	3.400																			1580038703.0	0.99	1.83
26/01/2020 11:38:24	26012020	260120	113824	102.330	12.418755	-57.245023	102.380	-0.380	0.440	2.750	102.350	-0.900	3.300																			1580038704.0	0.50	0.93
26/01/2020 11:38:25	26012020	260120	113825	102.410	12.418757	-57.245023	102.420	-0.240	0.220	2.030	102.420	-1.000	2.700																			1580038705.0	0.17	0.31
26/01/2020 11:38:26	26012020	260120	113826	102.490	12.418760	-57.245022	102.550	-0.060	-0.050	0.930	102.520	-1.300	1.800																			1580038706.0	0.85	1.57
26/01/2020 11:38:27	26012020	260120	113827	102.670	12.418765	-57.245018	102.700	0.060	-0.190	-0.240	102.710	-1.500	0.600																			1580038707.0	1.27	2.35
26/01/2020 11:38:28	26012020	260120	113828	102.790	12.418772	-57.245017	102.700	0.120	-0.250	-1.100	102.780	-1.600	-0.400																			1580038708.0	1.34	2.48
26/01/2020 11:38:29	26012020	260120	113829	102.720	12.418777	-57.245017	102.600	0.110	-0.250	-1.520	102.700	-1.600	-1.000																			1580038709.0	1.09	2.02
26/01/2020 11:38:30	26012020	260120	113830	102.630	12.418778	-57.245017	102.550	0.050	-0.150	-1.460	102.630	-1.600	-1.200																			1580038710.0	0.61	1.13
26/01/2020 11:38:31	26012020	260120	113831	102.630	12.418778	-57.245017	102.590	-0.020	-0.110	-0.930	102.630	-1.500	-0.800																			1580038711.0	0.21	0.39
26/01/2020 11:38:32	26012020	260120	113832	102.640	12.418777	-57.245018	102.590	-0.010	-0.260	-0.080	102.630	-1.500	-0.100																			1580038712.0	0.65	1.20
26/01/2020 11:38:33	26012020	260120	113833	102.580	12.418772	-57.245018	102.530	0.070	-0.420	0.870	102.560	-1.700	0.900																			1580038713.0	1.02	1.89
26/01/2020 11:38:34	26012020	260120	113834	102.510	12.418767	-57.245018	102.490	0.110	-0.270	1.760	102.500	-1.700	1.800																			1580038714.0	1.14	2.11
26/01/2020 11:38:35	26012020	260120	113835	102.490	12.418762	-57.245020	102.550	0.070	0.180	2.390	102.490	-1.400	2.600																			1580038715.0	1.10	2.04
26/01/2020 11:38:36	26012020	260120	113836	102.590	12.418758	-57.245022	102.700	0.030	0.510	2.510	102.620	-0.900	2.900																			1580038716.0	0.88	1.63
26/01/2020 11:38:37	26012020	260120	113837	102.710	12.418758	-57.245023	102.820	0.070	0.360	2.120	102.740	-0.900	2.700																			1580038717.0	0.34	0.63
26/01/2020 11:38:38	26012020	260120	113838	102.850	12.418762	-57.245023	102.870	0.180	-0.220	1.430	102.870	-1.300	2.100																			1580038718.0	0.76	1.41
26/01/2020 11:38:39	26012020	260120	113839	102.850	12.418767	-57.245018	102.780	0.220	-0.830	0.710	102.840	-2.000	1.400																			1580038719.0	1.25	2.31
26/01/2020 11:38:40	26012020	260120	113840	102.710	12.418770	-57.245015	102.590	0.090	-0.980	0.200	102.670	-2.400	0.800																			1580038720.0	1.15	2.13
26/01/2020 11:38:41	26012020	260120	113841	102.540	12.418773	-57.245015	102.470	-0.250	-0.470	-0.040	102.510	-2.100	0.400																			1580038721.0	0.53	0.98
26/01/2020 11:38:42	26012020	260120	113842	102.480	12.418773	-57.245017	102.470	-0.620	0.360	-0.140	102.480	-1.300	0.300																			1580038722.0	0.51	0.94
26/01/2020 11:38:43	26012020	260120	113843	102.530	12.418773	-57.245020	102.550	-0.740	0.850	-0.270	102.550	-0.600	0.200																			1580038723.0	0.78	1.44
26/01/2020 11:38:44	26012020	260120	113844	102.620	12.418772	-57.245022	102.650	-0.430	0.640	-0.420	102.650	-0.600	0.000																			1580038724.0	0.36	0.67
26/01/2020 11:38:45	26012020	260120	113845	102.750	12.418772	-57.245020	102.820	0.150	0.000	-0.510	102.790	-1.100	-0.100																			1580038725.0	0.33	0.61
26/01/2020 11:38:46	26012020	260120	113846	102.940	12.418772	-57.245018	102.980	0.580	-0.530	-0.390	102.970	-1.700	-0.100																			1580038726.0	0.57	1.06
26/01/2020 11:38:47	26012020	260120	113847	103.030	12.418772	-57.245017	102.990	0.650	-0.640	0.070	103.030	-2.000	0.200																			1580038727.0	0.29	0.54
26/01/2020 11:38:48	26012020	260120	113848	102.950	12.418770	-57.245018	102.850	0.450	-0.510	0.670	102.930	-1.900	0.800																			1580038728.0	0.33	0.61
26/01/2020 11:38:49	26012020	260120	113849	102.770	12.418768	-57.245020	102.640	0.240	-0.360	1.300	102.720	-1.800	1.400																			1580038729.0	0.44	0.81
26/01/2020 11:38:50	26012020	260120	113850	102.550	12.418767	-57.245020	102.460	0.110	-0.210	1.760	102.510	-1.600	2.000																			1580038730.0	0.38	0.70
26/01/2020 11:38:51	26012020	260120	113851	102.410	12.418767	-57.245020	102.410	0.020	-0.030	1.930	102.400	-1.500	2.300																			1580038731.0	0.27	0.50
26/01/2020 11:38:52	26012020	260120	113852	102.420	12.418765	-57.245022	102.470	-0.120	0.140	1.850	102.430	-1.300	2.300																			1580038732.0	0.12	0.22
26/01/2020 11:38:53	26012020	260120	113853	102.510	12.418765	-57.245022	102.570	-0.290	0.170	1.570	102.530	-1.200	2.100																			1580038733.0	0.05	0.09
26/01/2020 11:38:54	26012020	260120	113854	102.610	12.418767	-57.245020	102.620	-0.370	0.000	1.100	102.620	-1.300	1.700																			1580038734.0	0.23	0.43
26/01/2020 11:38:55	26012020	260120	113855	102.650	12.418768	-57.245018	102.620	-0.300	-0.200	0.580	102.650	-1.500	1.200																			1580038735.0	0.45	0.83
26/01/2020 11:38:56	26012020	260120	113856	102.630	12.418770	-57.245018	102.600	-0.160	-0.170	0.110	102.630	-1.600	0.700																			1580038736.0	0.45	0.83
26/01/2020 11:38:57	26012020	260120	113857	102.640	12.418772	-57.245018	102.640	-0.040	0.090	-0.270	102.650	-1.400	0.300																			1580038737.0	0.31	0.57
26/01/2020 11:38:58	26012020	260120	113858	102.700	12.418773	-57.245020	102.690	0.020	0.330	-0.500	102.710	-1.100	-0.000																			1580038738.0	0.44	0.81
26/01/2020 11:38:59	26012020	260120	113859	102.720	12.418775	-57.245020	102.680	0.100	0.270	-0.590	102.720	-1.000	-0.200																			1580038739.0	0.46	0.85
26/01/2020 11:39:00	26012020	260120	113900	102.710	12.418777	-57.245022	102.670	0.220	-0.130	-0.550	102.710	-1.300	-0.200	1015.20	25.90	26.00	18.90	19.00	201.00	65.00	65.00	377.00	26.30	346.00	7.20	88.00	6.90	14749	3255.00	27.50	27.40	1580038740.0	0.35	0.65
26/01/2020 11:39:01	26012020	260120	113901	102.710	12.418777	-57.245020	102.660	0.350	-0.670	-0.270	102.700	-1.800	-0.000																			1580038741.0	0.35	0.65
26/01/2020 11:39:02	26012020	260120	113902	102.630	12.418777	-57.245018	102.530	0.400	-1.030	0.360	102.610	-2.300	0.500																			1580038742.0	0.43	0.80
26/01/2020 11:39:03	26012020	260120	113903	102.430	12.418773	-57.245017	102.300	0.220	-0.950	1.230	102.380	-2.400	1.300																			1580038743.0	0.65	1.20
26/01/2020 11:39:04	26012020	260120	113904	102.200	12.418768	-57.245018	102.160	-0.140	-0.400	1.970	102.170	-2.000	2.100																			1580038744.0	0.88	1.63
26/01/2020 11:39:05	26012020	260120	113905	102.140	12.418765	-57.245020	102.210	-0.460	0.320	2.280	102.150	-1.300	2.600																			1580038745.0	0.96	1.78
26/01/2020 11:39:06	26012020	260120	113906	102.260	12.418763	-57.245023	102.370	-0.510	0.840	2.120	102.300	-0.700	2.600																			1580038746.0	0.74	1.37
26/01/2020 11:39:07	26012020	260120	113907	102.430	12.418763	-57.245023	102.480	-0.270	0.840	1.640	102.450	-0.400	2.200																			1580038747.0	0.27	0.50
26/01/2020 11:39:08	26012020	260120	113908	102.530	12.418765	-57.245023	102.590	0.070	0.380	0.880	102.560	-0.800	1.600																			1580038748.0	0.50	0.93
26/01/2020 11:39:09	26012020	260120	113909	102.700	12.418768	-57.245020	102.750	0.290	-0.170	-0.020	102.730	-1.300	0.700																			1580038749.0	1.05	1.94
26/01/2020 11:39:10	26012020	260120	113910	102.860	12.418775	-57.245018	102.840	0.360	-0.550	-0.750	102.880	-1.800	-0.100																			1580038750.0	1.24	2.30
26/01/2020 11:39:11	26012020	260120	113911	102.880	12.418778	-57.245017	102.770	0.340	-0.680	-1.030	102.870	-2.000	-0.600																			1580038751.0	1.01	1.87
26/01/2020 11:39:12	26012020	260120	113912	102.760	12.418782	-57.245017	102.600	0.250	-0.610	-0.820	102.720	-2.000	-0.600																			1580038752.0	0.48	0.89
26/01/2020 11:39:13	26012020	260120	113913	102.610	12.418782	-57.245017	102.460	0.060	-0.350	-0.260	102.570	-1.800	-0.100																			1580038753.0	0.21	0.39
26/01/2020 11:39:14	26012020	260120	113914	102.450	12.418778	-57.245018	102.400	-0.210	-0.050	0.450	102.430	-1.500	0.500																			1580038754.0	0.59	1.09
26/01/2020 11:39:15	26012020	260120	113915	102.420	12.418775	-57.245020	102.430	-0.450	0.110	1.190	102.420	-1.300	1.300																			1580038755.0	0.85	1.57
26/01/2020 11:39:16	26012020	260120	113916	102.450	12.418770	-57.245022	102.510	-0.520	0.070	1.760	102.460	-1.300	1.900																			1580038756.0	1.02	1.89
26/01/2020 11:39:17	26012020	260120	113917	102.550	12.418767	-57.245022	102.620	-0.390	-0.060	2.050	102.570	-1.400	2.300																			1580038757.0	0.97	1.80
26/01/2020 11:39:18	26012020	260120	113918	102.650	12.418763	-57.245022	102.700	-0.110	-0.110	2.030	102.660	-1.500	2.400																			1580038758.0	0.68	1.26
26/01/2020 11:39:19	26012020	260120	113919	102.720	12.418762	-57.245022	102.760	0.160	0.010	1.650	102.730	-1.400	2.200																			1580038759.0	0.18	0.33
26/01/2020 11:39:20	26012020	260120	113920	102.790	12.418765	-57.245022	102.780	0.340	0.180	0.940	102.790	-1.200	1.600																			1580038760.0	0.52	0.96
26/01/2020 11:39:21	26012020	260120	113921	102.780	12.418770	-57.245022	102.720	0.450	0.110	0.140	102.770	-1.200	0.800																			1580038761.0	1.11	2.06
26/01/2020 11:39:22	26012020	260120	113922	102.730	12.418777	-57.245020	102.670	0.470	-0.210	-0.620	102.730	-1.400	0.100																			1580038762.0	1.41	2.61
26/01/2020 11:39:23	26012020	260120	113923	102.730	12.418782	-57.245018	102.690	0.360	-0.550	-1.100	102.740	-1.800	-0.600																			1580038763.0	1.35	2.50
26/01/2020 11:39:24	26012020	260120	113924	102.750	12.418785	-57.245015	102.690	0.110	-0.670	-1.050	102.760	-2.000	-0.700																			1580038764.0	0.78	1.44
26/01/2020 11:39:25	26012020	260120	113925	102.740	12.418783	-57.245015	102.640	-0.200	-0.410	-0.550	102.730	-1.900	-0.400																			1580038765.0	0.16	0.30
26/01/2020 11:39:26	26012020	260120	113926	102.640	12.418780	-57.245017	102.570	-0.440	0.090	0.180	102.620	-1.500	0.300																			1580038766.0	0.83	1.54
26/01/2020 11:39:27	26012020	260120	113927	102.580	12.418777	-57.245020	102.550	-0.490	0.480	0.970	102.570	-1.000	1.000																			1580038767.0	1.20	2.22
26/01/2020 11:39:28	26012020	260120	113928	102.550	12.418772	-57.245023	102.580	-0.340	0.490	1.590	102.560	-0.800	1.800																			1580038768.0	1.19	2.20
26/01/2020 11:39:29	26012020	260120	113929	102.610	12.418767	-57.245023	102.680	-0.100	0.150	1.810	102.630	-1.000	2.200																			1580038769.0	0.80	1.48
26/01/2020 11:39:30	26012020	260120	113930	102.730	12.418767	-57.245022	102.810	0.090	-0.300	1.630	102.760	-1.500	2.100																			1580038770.0	0.36	0.67
26/01/2020 11:39:31	26012020	260120	113931	102.850	12.418767	-57.245020	102.870	0.220	-0.590	1.310	102.860	-1.900	1.800																			1580038771.0	0.39	0.72
26/01/2020 11:39:32	26012020	260120	113932	102.830	12.418768	-57.245020	102.770	0.270	-0.600	1.040	102.810	-2.000	1.500																			1580038772.0	0.51	0.94
26/01/2020 11:39:33	26012020	260120	113933	102.700	12.418772	-57.245020	102.610	0.210	-0.360	0.720	102.670	-1.800	1.200																			1580038773.0	0.49	0.91
26/01/2020 11:39:34	26012020	260120	113934	102.570	12.418773	-57.245020	102.500	0.050	-0.050	0.360	102.550	-1.500	0.900																			1580038774.0	0.52	0.96
26/01/2020 11:39:35	26012020	260120	113935	102.490	12.418777	-57.245020	102.430	-0.100	0.170	0.070	102.470	-1.300	0.600																			1580038775.0	0.48	0.89
26/01/2020 11:39:36	26012020	260120	113936	102.460	12.418777	-57.245020	102.470	-0.140	0.230	-0.190	102.470	-1.100	0.300																			1580038776.0	0.30	0.56
26/01/2020 11:39:37	26012020	260120	113937	102.530	12.418778	-57.245020	102.610	-0.020	0.160	-0.410	102.550	-1.200	0.100																			1580038777.0	0.21	0.39
26/01/2020 11:39:38	26012020	260120	113938	102.720	12.418778	-57.245020	102.790	0.190	-0.000	-0.500	102.760	-1.300	-0.100																			1580038778.0	0.19	0.35
26/01/2020 11:39:39	26012020	260120	113939	102.880	12.418780	-57.245018	102.910	0.330	-0.240	-0.380	102.910	-1.500	-0.100																			1580038779.0	0.16	0.30
26/01/2020 11:39:40	26012020	260120	113940	102.930	12.418778	-57.245018	102.860	0.280	-0.480	0.080	102.920	-1.800	0.200																			1580038780.0	0.21	0.39
26/01/2020 11:39:41	26012020	260120	113941	102.780	12.418777	-57.245018	102.660	0.070	-0.500	0.740	102.740	-1.900	0.800																			1580038781.0	0.43	0.80
26/01/2020 11:39:42	26012020	260120	113942	102.550	12.418773	-57.245018	102.500	-0.200	-0.210	1.380	102.520	-1.700	1.500																			1580038782.0	0.57	1.06
26/01/2020 11:39:43	26012020	260120	113943	102.460	12.418772	-57.245022	102.530	-0.420	0.160	1.840	102.470	-1.300	2.100																			1580038783.0	0.74	1.37
26/01/2020 11:39:44	26012020	260120	113944	102.570	12.418768	-57.245023	102.710	-0.480	0.340	1.980	102.610	-1.100	2.300																			1580038784.0	0.76	1.41
26/01/2020 11:39:45	26012020	260120	113945	102.770	12.418767	-57.245025	102.870	-0.370	0.200	1.830	102.810	-1.100	2.300																			1580038785.0	0.55	1.02
26/01/2020 11:39:46	26012020	260120	113946	102.900	12.418765	-57.245023	102.900	-0.110	-0.110	1.430	102.900	-1.300	2.000																			1580038786.0	0.30	0.56
26/01/2020 11:39:47	26012020	260120	113947	102.880	12.418765	-57.245022	102.810	0.180	-0.310	0.880	102.860	-1.600	1.500																			1580038787.0	0.35	0.65
26/01/2020 11:39:48	26012020	260120	113948	102.790	12.418768	-57.245022	102.750	0.360	-0.220	0.190	102.790	-1.600	0.900																			1580038788.0	0.64	1.19
26/01/2020 11:39:49	26012020	260120	113949	102.780	12.418773	-57.245022	102.780	0.400	-0.060	-0.520	102.790	-1.500	0.100																			1580038789.0	1.05	1.94
26/01/2020 11:39:50	26012020	260120	113950	102.850	12.418778	-57.245022	102.830	0.360	-0.140	-1.030	102.870	-1.400	-0.500																			1580038790.0	1.11	2.06
26/01/2020 11:39:51	26012020	260120	113951	102.870	12.418782	-57.245020	102.770	0.270	-0.420	-1.120	102.860	-1.700	-0.800																			1580038791.0	0.77	1.43
26/01/2020 11:39:52	26012020	260120	113952	102.740	12.418783	-57.245018	102.590	0.130	-0.610	-0.710	102.710	-1.900	-0.500																			1580038792.0	0.40	0.74
26/01/2020 11:39:53	26012020	260120	113953	102.540	12.418780	-57.245018	102.430	-0.080	-0.420	0.070	102.500	-1.900	0.100																			1580038793.0	0.47	0.87
26/01/2020 11:39:54	26012020	260120	113954	102.420	12.418777	-57.245020	102.440	-0.330	0.090	0.920	102.420	-1.500	1.000																			1580038794.0	1.03	1.91
26/01/2020 11:39:55	26012020	260120	113955	102.510	12.418772	-57.245023	102.640	-0.500	0.520	1.560	102.560	-1.000	1.700																			1580038795.0	1.33	2.46
26/01/2020 11:39:56	26012020	260120	113956	102.740	12.418767	-57.245025	102.870	-0.490	0.540	1.930	102.790	-0.800	2.200																			1580038796.0	1.13	2.09
26/01/2020 11:39:57	26012020	260120	113957	102.940	12.418763	-57.245027	103.000	-0.290	0.190	2.030	102.960	-1.000	2.400																			1580038797.0	0.72	1.33
26/01/2020 11:39:58	26012020	260120	113958	103.000	12.418762	-57.245025	102.980	-0.010	-0.240	1.870	103.000	-1.400	2.300																			1580038798.0	0.43	0.80
26/01/2020 11:39:59	26012020	260120	113959	102.900	12.418762	-57.245023	102.780	0.260	-0.480	1.520	102.860	-1.800	2.000																			1580038799.0	0.28	0.52
26/01/2020 11:40:00	26012020	260120	114000	102.700	12.418763	-57.245023	102.620	0.380	-0.410	1.020	102.670	-1.800	1.600	1015.20	25.90	25.90	18.50	18.60	192.00	63.00	63.00	376.00	26.30	346.00	7.70	88.00	7.40	14656	3084.00	27.50	27.40	1580038800.0	0.53	0.98
26/01/2020 11:40:01	26012020	260120	114001	102.620	12.418767	-57.245023	102.610	0.310	-0.140	0.410	102.620	-1.600	1.000																			1580038801.0	0.76	1.41
26/01/2020 11:40:02	26012020	260120	114002	102.670	12.418772	-57.245025	102.670	0.160	-0.020	-0.240	102.690	-1.400	0.400																			1580038802.0	0.88	1.63
26/01/2020 11:40:03	26012020	260120	114003	102.740	12.418775	-57.245025	102.720	0.100	-0.200	-0.700	102.750	-1.500	-0.200																			1580038803.0	0.81	1.50
26/01/2020 11:40:04	26012020	260120	114004	102.770	12.418778	-57.245023	102.690	0.140	-0.440	-0.800	102.760	-1.700	-0.400																			1580038804.0	0.62	1.15
26/01/2020 11:40:05	26012020	260120	114005	102.710	12.418778	-57.245022	102.620	0.140	-0.420	-0.510	102.690	-1.800	-0.300																			1580038805.0	0.28	0.52
26/01/2020 11:40:06	26012020	260120	114006	102.620	12.418775	-57.245022	102.560	0.010	-0.100	0.060	102.600	-1.600	0.200																			1580038806.0	0.45	0.83
26/01/2020 11:40:07	26012020	260120	114007	102.560	12.418772	-57.245023	102.570	-0.200	0.220	0.710	102.570	-1.300	0.800																			1580038807.0	0.84	1.56
26/01/2020 11:40:08	26012020	260120	114008	102.610	12.418768	-57.245025	102.670	-0.320	0.220	1.210	102.630	-1.100	1.400																			1580038808.0	0.84	1.56
26/01/2020 11:40:09	26012020	260120	114009	102.710	12.418767	-57.245025	102.750	-0.270	-0.060	1.620	102.720	-1.300	1.800																			1580038809.0	0.66	1.22
26/01/2020 11:40:10	26012020	260120	114010	102.740	12.418763	-57.245025	102.750	-0.100	-0.290	1.880	102.740	-1.600	2.200																			1580038810.0	0.63	1.17
26/01/2020 11:40:11	26012020	260120	114011	102.720	12.418762	-57.245023	102.730	0.010	-0.190	1.910	102.720	-1.600	2.300																			1580038811.0	0.42	0.78
26/01/2020 11:40:12	26012020	260120	114012	102.730	12.418760	-57.245025	102.760	-0.050	0.200	1.710	102.730	-1.300	2.200																			1580038812.0	0.25	0.46
26/01/2020 11:40:13	26012020	260120	114013	102.770	12.418762	-57.245027	102.760	-0.160	0.420	1.330	102.770	-1.000	1.900																			1580038813.0	0.52	0.96
26/01/2020 11:40:14	26012020	260120	114014	102.780	12.418763	-57.245028	102.780	-0.120	0.230	0.750	102.790	-1.000	1.400																			1580038814.0	0.48	0.89
26/01/2020 11:40:15	26012020	260120	114015	102.840	12.418767	-57.245027	102.900	0.090	-0.210	0.010	102.870	-1.400	0.700																			1580038815.0	0.70	1.30
26/01/2020 11:40:16	26012020	260120	114016	103.000	12.418770	-57.245025	102.950	0.350	-0.660	-0.530	103.010	-1.900	0.000																			1580038816.0	0.87	1.61
26/01/2020 11:40:17	26012020	260120	114017	102.960	12.418773	-57.245023	102.810	0.510	-0.930	-0.620	102.930	-2.200	-0.200																			1580038817.0	0.65	1.20
26/01/2020 11:40:18	26012020	260120	114018	102.770	12.418773	-57.245022	102.640	0.440	-0.790	-0.380	102.740	-2.300	-0.100																			1580038818.0	0.26	0.48
26/01/2020 11:40:19	26012020	260120	114019	102.610	12.418772	-57.245023	102.530	0.150	-0.310	0.020	102.590	-1.900	0.200																			1580038819.0	0.20	0.37
26/01/2020 11:40:20	26012020	260120	114020	102.550	12.418772	-57.245025	102.540	-0.150	0.200	0.450	102.550	-1.400	0.700																			1580038820.0	0.46	0.85
26/01/2020 11:40:21	26012020	260120	114021	102.610	12.418770	-57.245027	102.670	-0.340	0.450	0.850	102.630	-1.000	1.100																			1580038821.0	0.44	0.81
26/01/2020 11:40:22	26012020	260120	114022	102.740	12.418767	-57.245027	102.800	-0.390	0.400	1.270	102.760	-0.900	1.500																			1580038822.0	0.51	0.94
26/01/2020 11:40:23	26012020	260120	114023	102.840	12.418763	-57.245027	102.880	-0.350	0.180	1.630	102.850	-1.100	1.900																			1580038823.0	0.73	1.35
26/01/2020 11:40:24	26012020	260120	114024	102.870	12.418762	-57.245025	102.890	-0.250	0.010	1.800	102.880	-1.300	2.100																			1580038824.0	0.69	1.28
26/01/2020 11:40:25	26012020	260120	114025	102.890	12.418760	-57.245025	102.930	-0.120	0.020	1.740	102.900	-1.400	2.200																			1580038825.0	0.34	0.63
26/01/2020 11:40:26	26012020	260120	114026	102.950	12.418760	-57.245027	102.980	0.030	0.030	1.420	102.960	-1.300	2.000																			1580038826.0	0.20	0.37
26/01/2020 11:40:27	26012020	260120	114027	103.000	12.418762	-57.245027	103.000	0.170	-0.100	0.940	103.000	-1.400	1.500																			1580038827.0	0.35	0.65
26/01/2020 11:40:28	26012020	260120	114028	103.010	12.418763	-57.245027	102.970	0.220	-0.350	0.440	103.010	-1.600	1.000																			1580038828.0	0.52	0.96
26/01/2020 11:40:29	26012020	260120	114029	102.970	12.418765	-57.245027	102.900	0.190	-0.530	0.050	102.950	-1.800	0.600																			1580038829.0	0.55	1.02
26/01/2020 11:40:30	26012020	260120	114030	102.900	12.418768	-57.245025	102.840	0.130	-0.520	-0.250	102.890	-1.900	0.300																			1580038830.0	0.51	0.94
26/01/2020 11:40:31	26012020	260120	114031	102.850	12.418770	-57.245025	102.790	0.090	-0.390	-0.370	102.840	-1.800	0.000																			1580038831.0	0.45	0.83
26/01/2020 11:40:32	26012020	260120	114032	102.780	12.418772	-57.245025	102.690	0.070	-0.290	-0.220	102.760	-1.700	0.100																			1580038832.0	0.25	0.46
26/01/2020 11:40:33	26012020	260120	114033	102.660	12.418770	-57.245025	102.590	0.040	-0.230	0.160	102.640	-1.600	0.400																			1580038833.0	0.15	0.28
26/01/2020 11:40:34	26012020	260120	114034	102.590	12.418768	-57.245023	102.570	-0.020	-0.090	0.580	102.580	-1.500	0.800																			1580038834.0	0.42	0.78
26/01/2020 11:40:35	26012020	260120	114035	102.610	12.418767	-57.245023	102.660	-0.090	0.110	0.970	102.630	-1.300	1.200																			1580038835.0	0.50	0.93
26/01/2020 11:40:36	26012020	260120	114036	102.710	12.418763	-57.245025	102.740	-0.150	0.270	1.320	102.720	-1.200	1.600																			1580038836.0	0.55	1.02
26/01/2020 11:40:37	26012020	260120	114037	102.770	12.418762	-57.245025	102.800	-0.150	0.330	1.540	102.780	-1.100	1.900																			1580038837.0	0.58	1.07
26/01/2020 11:40:38	26012020	260120	114038	102.820	12.418760	-57.245025	102.850	-0.120	0.370	1.570	102.840	-1.000	2.000																			1580038838.0	0.38	0.70
26/01/2020 11:40:39	26012020	260120	114039	102.880	12.418760	-57.245027	102.960	-0.080	0.340	1.330	102.900	-1.000	1.800																			1580038839.0	0.16	0.30
26/01/2020 11:40:40	26012020	260120	114040	103.050	12.418762	-57.245027	103.110	-0.040	0.160	0.810	103.080	-1.100	1.400																			1580038840.0	0.37	0.69
26/01/2020 11:40:41	26012020	260120	114041	103.210	12.418765	-57.245027	103.200	0.000	-0.230	0.320	103.220	-1.400	0.900																			1580038841.0	0.66	1.22
26/01/2020 11:40:42	26012020	260120	114042	103.220	12.418767	-57.245025	103.090	0.040	-0.780	0.160	103.200	-1.900	0.600																			1580038842.0	0.59	1.09
26/01/2020 11:40:43	26012020	260120	114043	103.020	12.418767	-57.245023	102.830	0.060	-1.160	0.300	102.970	-2.400	0.600																			1580038843.0	0.40	0.74
26/01/2020 11:40:44	26012020	260120	114044	102.720	12.418767	-57.245022	102.550	0.020	-1.040	0.560	102.670	-2.500	0.800																			1580038844.0	0.33	0.61
26/01/2020 11:40:45	26012020	260120	114045	102.470	12.418765	-57.245023	102.370	-0.090	-0.450	0.810	102.430	-2.100	1.100																			1580038845.0	0.33	0.61
26/01/2020 11:40:46	26012020	260120	114046	102.350	12.418763	-57.245025	102.340	-0.170	0.230	0.910	102.340	-1.400	1.300																			1580038846.0	0.51	0.94
26/01/2020 11:40:47	26012020	260120	114047	102.400	12.418763	-57.245027	102.480	-0.120	0.620	0.730	102.440	-0.900	1.200																			1580038847.0	0.35	0.65
26/01/2020 11:40:48	26012020	260120	114048	102.600	12.418763	-57.245025	102.710	0.040	0.640	0.370	102.650	-0.700	0.900																			1580038848.0	0.16	0.30
26/01/2020 11:40:49	26012020	260120	114049	102.850	12.418765	-57.245025	102.940	0.210	0.440	0.000	102.900	-0.800	0.500																			1580038849.0	0.55	1.02
26/01/2020 11:40:50	26012020	260120	114050	103.060	12.418768	-57.245023	103.080	0.270	0.100	-0.140	103.090	-1.100	0.300																			1580038850.0	0.62	1.15
26/01/2020 11:40:51	26012020	260120	114051	103.130	12.418770	-57.245022	103.080	0.230	-0.260	0.000	103.130	-1.500	0.300																			1580038851.0	0.37	0.69
26/01/2020 11:40:52	26012020	260120	114052	103.060	12.418768	-57.245022	102.960	0.140	-0.490	0.430	103.030	-1.800	0.600																			1580038852.0	0.16	0.30
26/01/2020 11:40:53	26012020	260120	114053	102.890	12.418767	-57.245022	102.800	0.030	-0.550	1.050	102.850	-1.900	1.200																			1580038853.0	0.45	0.83
26/01/2020 11:40:54	26012020	260120	114054	102.720	12.418763	-57.245022	102.690	-0.090	-0.460	1.540	102.700	-1.900	1.800																			1580038854.0	0.64	1.19
26/01/2020 11:40:55	26012020	260120	114055	102.670	12.418762	-57.245023	102.710	-0.240	-0.210	1.790	102.680	-1.700	2.100																			1580038855.0	0.57	1.06
26/01/2020 11:40:56	26012020	260120	114056	102.730	12.418760	-57.245025	102.780	-0.380	0.110	1.800	102.740	-1.400	2.200																			1580038856.0	0.49	0.91
26/01/2020 11:40:57	26012020	260120	114057	102.790	12.418758	-57.245027	102.820	-0.430	0.280	1.550	102.800	-1.100	2.100																			1580038857.0	0.34	0.63
26/01/2020 11:40:58	26012020	260120	114058	102.820	12.418760	-57.245027	102.820	-0.310	0.160	1.060	102.820	-1.100	1.700																			1580038858.0	0.16	0.30
26/01/2020 11:40:59	26012020	260120	114059	102.830	12.418762	-57.245025	102.830	-0.050	-0.190	0.450	102.840	-1.400	1.100																			1580038859.0	0.48	0.89
26/01/2020 11:41:00	26012020	260120	114100	102.870	12.418765	-57.245023	102.830	0.220	-0.500	-0.120	102.870	-1.800	0.500	1015.20	25.90	25.90	18.50	18.60	178.00	63.00	63.00	376.00	26.30	344.00	7.60	86.00	7.40	14537	3048.00	27.50	27.40	1580038860.0	0.77	1.43
26/01/2020 11:41:01	26012020	260120	114101	102.850	12.418767	-57.245020	102.790	0.390	-0.560	-0.520	102.840	-1.900	0.000																			1580038861.0	0.85	1.57
26/01/2020 11:41:02	26012020	260120	114102	102.800	12.418770	-57.245020	102.740	0.390	-0.320	-0.690	102.790	-1.800	-0.300																			1580038862.0	0.67	1.24
26/01/2020 11:41:03	26012020	260120	114103	102.770	12.418772	-57.245020	102.730	0.280	0.030	-0.580	102.760	-1.500	-0.300																			1580038863.0	0.41	0.76
26/01/2020 11:41:04	26012020	260120	114104	102.770	12.418773	-57.245020	102.770	0.150	0.240	-0.260	102.770	-1.200	-0.000																			1580038864.0	0.21	0.39
26/01/2020 11:41:05	26012020	260120	114105	102.810	12.418772	-57.245022	102.890	0.000	0.250	0.170	102.830	-1.100	0.400																			1580038865.0	0.16	0.30
26/01/2020 11:41:06	26012020	260120	114106	102.940	12.418770	-57.245022	103.030	-0.170	0.140	0.750	102.970	-1.200	0.900																			1580038866.0	0.42	0.78
26/01/2020 11:41:07	26012020	260120	114107	103.030	12.418767	-57.245022	103.110	-0.340	0.050	1.410	103.050	-1.300	1.500																			1580038867.0	0.79	1.46
26/01/2020 11:41:08	26012020	260120	114108	103.090	12.418762	-57.245023	103.100	-0.410	-0.110	1.990	103.090	-1.400	2.200																			1580038868.0	0.99	1.83
26/01/2020 11:41:09	26012020	260120	114109	103.030	12.418758	-57.245023	103.000	-0.320	-0.410	2.360	103.010	-1.600	2.600																			1580038869.0	0.91	1.69
26/01/2020 11:41:10	26012020	260120	114110	102.890	12.418755	-57.245023	102.830	-0.110	-0.660	2.400	102.850	-1.900	2.800																			1580038870.0	0.62	1.15
26/01/2020 11:41:11	26012020	260120	114111	102.720	12.418755	-57.245022	102.670	0.100	-0.590	2.060	102.690	-2.000	2.600																			1580038871.0	0.25	0.46
26/01/2020 11:41:12	26012020	260120	114112	102.600	12.418757	-57.245022	102.600	0.190	-0.170	1.350	102.600	-1.700	2.100																			1580038872.0	0.43	0.80
26/01/2020 11:41:13	26012020	260120	114113	102.640	12.418762	-57.245023	102.700	0.190	0.290	0.310	102.670	-1.200	1.100																			1580038873.0	1.02	1.89
26/01/2020 11:41:14	26012020	260120	114114	102.810	12.418768	-57.245023	102.840	0.190	0.420	-0.740	102.830	-0.900	0.000																			1580038874.0	1.43	2.65
26/01/2020 11:41:15	26012020	260120	114115	102.920	12.418775	-57.245022	102.910	0.250	0.160	-1.460	102.940	-1.100	-0.800																			1580038875.0	1.46	2.70
26/01/2020 11:41:16	26012020	260120	114116	102.990	12.418780	-57.245018	102.960	0.260	-0.190	-1.690	103.000	-1.400	-1.300																			1580038876.0	1.16	2.15
26/01/2020 11:41:17	26012020	260120	114117	103.000	12.418782	-57.245017	102.890	0.080	-0.410	-1.270	102.980	-1.700	-1.100																			1580038877.0	0.50	0.93
26/01/2020 11:41:18	26012020	260120	114118	102.850	12.418778	-57.245017	102.730	-0.240	-0.470	-0.240	102.820	-1.800	-0.300																			1580038878.0	0.58	1.07
26/01/2020 11:41:19	26012020	260120	114119	102.680	12.418772	-57.245018	102.610	-0.530	-0.350	1.050	102.650	-1.800	0.900																			1580038879.0	1.42	2.63
26/01/2020 11:41:20	26012020	260120	114120	102.550	12.418763	-57.245020	102.540	-0.560	-0.170	2.210	102.540	-1.600	2.200																			1580038880.0	1.80	3.33
26/01/2020 11:41:21	26012020	260120	114121	102.510	12.418757	-57.245022	102.570	-0.310	-0.020	2.880	102.520	-1.400	3.100																			1580038881.0	1.61	2.98
26/01/2020 11:41:22	26012020	260120	114122	102.540	12.418752	-57.245023	102.600	0.090	0.100	2.970	102.540	-1.300	3.400																			1580038882.0	0.92	1.70
26/01/2020 11:41:23	26012020	260120	114123	102.590	12.418752	-57.245023	102.690	0.400	0.200	2.480	102.610	-1.200	3.100																			1580038883.0	0.07	0.13
26/01/2020 11:41:24	26012020	260120	114124	102.740	12.418755	-57.245023	102.850	0.460	0.220	1.500	102.780	-1.100	2.300																			1580038884.0	0.80	1.48
26/01/2020 11:41:25	26012020	260120	114125	102.900	12.418762	-57.245022	102.910	0.310	0.040	0.390	102.920	-1.200	1.200																			1580038885.0	1.41	2.61
26/01/2020 11:41:26	26012020	260120	114126	102.910	12.418770	-57.245020	102.830	0.130	-0.310	-0.480	102.900	-1.500	0.200																			1580038886.0	1.56	2.89
26/01/2020 11:41:27	26012020	260120	114127	102.810	12.418775	-57.245017	102.680	0.010	-0.620	-0.930	102.780	-1.900	-0.400																			1580038887.0	1.22	2.26
26/01/2020 11:41:28	26012020	260120	114128	102.660	12.418777	-57.245017	102.540	-0.070	-0.650	-0.970	102.630	-2.000	-0.600																			1580038888.0	0.58	1.07
26/01/2020 11:41:29	26012020	260120	114129	102.560	12.418777	-57.245017	102.440	-0.140	-0.430	-0.750	102.540	-1.900	-0.500																			1580038889.0	0.03	0.06
26/01/2020 11:41:30	26012020	260120	114130	102.430	12.418775	-57.245017	102.380	-0.210	-0.050	-0.330	102.420	-1.600	-0.100																			1580038890.0	0.41	0.76
26/01/2020 11:41:31	26012020	260120	114131	102.410	12.418772	-57.245018	102.430	-0.230	0.310	0.220	102.420	-1.200	0.400																			1580038891.0	0.68	1.26
26/01/2020 11:41:32	26012020	260120	114132	102.490	12.418768	-57.245020	102.540	-0.140	0.440	0.780	102.510	-0.900	0.900																			1580038892.0	0.78	1.44
26/01/2020 11:41:33	26012020	260120	114133	102.600	12.418767	-57.245020	102.680	-0.010	0.280	1.180	102.620	-1.000	1.400																			1580038893.0	0.62	1.15
26/01/2020 11:41:34	26012020	260120	114134	102.760	12.418765	-57.245020	102.870	0.040	0.010	1.400	102.800	-1.300	1.700																			1580038894.0	0.39	0.72
26/01/2020 11:41:35	26012020	260120	114135	102.950	12.418763	-57.245020	103.020	-0.030	-0.230	1.540	102.980	-1.500	1.900																			1580038895.0	0.30	0.56
26/01/2020 11:41:36	26012020	260120	114136	103.020	12.418762	-57.245020	102.990	-0.080	-0.430	1.650	103.010	-1.700	2.000																			1580038896.0	0.29	0.54
26/01/2020 11:41:37	26012020	260120	114137	102.900	12.418760	-57.245020	102.790	-0.010	-0.580	1.670	102.850	-1.900	2.100																			1580038897.0	0.21	0.39
26/01/2020 11:41:38	26012020	260120	114138	102.670	12.418760	-57.245020	102.580	0.130	-0.580	1.490	102.630	-2.000	2.000																			1580038898.0	0.12	0.22
26/01/2020 11:41:39	26012020	260120	114139	102.520	12.418762	-57.245018	102.510	0.230	-0.340	1.020	102.510	-1.800	1.600																			1580038899.0	0.32	0.59
26/01/2020 11:41:40	26012020	260120	114140	102.540	12.418765	-57.245018	102.580	0.230	0.060	0.370	102.560	-1.500	1.000																			1580038900.0	0.70	1.30
26/01/2020 11:41:41	26012020	260120	114141	102.670	12.418770	-57.245018	102.710	0.160	0.370	-0.260	102.700	-1.100	0.400																			1580038901.0	0.92	1.70
26/01/2020 11:41:42	26012020	260120	114142	102.800	12.418773	-57.245018	102.800	0.090	0.370	-0.680	102.810	-1.000	-0.200																			1580038902.0	0.82	1.52
26/01/2020 11:41:43	26012020	260120	114143	102.850	12.418775	-57.245018	102.860	0.030	0.150	-0.830	102.850	-1.100	-0.400																			1580038903.0	0.57	1.06
26/01/2020 11:41:44	26012020	260120	114144	102.950	12.418777	-57.245017	102.990	-0.080	-0.010	-0.700	102.980	-1.300	-0.400																			1580038904.0	0.28	0.52
26/01/2020 11:41:45	26012020	260120	114145	103.090	12.418775	-57.245017	103.090	-0.200	-0.130	-0.210	103.100	-1.400	-0.100																			1580038905.0	0.18	0.33
26/01/2020 11:41:46	26012020	260120	114146	103.090	12.418773	-57.245018	103.040	-0.210	-0.410	0.610	103.070	-1.700	0.600																			1580038906.0	0.67	1.24
26/01/2020 11:41:47	26012020	260120	114147	102.970	12.418768	-57.245018	102.920	-0.120	-0.740	1.530	102.940	-2.000	1.500																			1580038907.0	1.11	2.06
26/01/2020 11:41:48	26012020	260120	114148	102.850	12.418762	-57.245018	102.830	-0.060	-0.720	2.270	102.830	-2.200	2.400																			1580038908.0	1.27	2.35
26/01/2020 11:41:49	26012020	260120	114149	102.750	12.418757	-57.245020	102.720	-0.090	-0.300	2.650	102.730	-1.900	2.900																			1580038909.0	1.01	1.87
26/01/2020 11:41:50	26012020	260120	114150	102.650	12.418755	-57.245022	102.650	-0.160	0.230	2.530	102.630	-1.300	3.000																			1580038910.0	0.59	1.09
26/01/2020 11:41:51	26012020	260120	114151	102.650	12.418757	-57.245023	102.730	-0.150	0.530	1.860	102.670	-0.900	2.600																			1580038911.0	0.36	0.67
26/01/2020 11:41:52	26012020	260120	114152	102.820	12.418760	-57.245023	102.940	0.030	0.480	0.760	102.870	-0.800	1.600																			1580038912.0	0.78	1.44
26/01/2020 11:41:53	26012020	260120	114153	103.060	12.418767	-57.245022	103.120	0.320	0.180	-0.380	103.100	-1.100	0.400																			1580038913.0	1.33	2.46
26/01/2020 11:41:54	26012020	260120	114154	103.210	12.418772	-57.245018	103.190	0.510	-0.230	-1.270	103.220	-1.400	-0.600																			1580038914.0	1.51	2.80
26/01/2020 11:41:55	26012020	260120	114155	103.240	12.418778	-57.245017	103.170	0.460	-0.600	-1.700	103.240	-1.800	-1.200																			1580038915.0	1.25	2.31
26/01/2020 11:41:56	26012020	260120	114156	103.180	12.418780	-57.245015	103.050	0.240	-0.730	-1.540	103.150	-2.100	-1.300																			1580038916.0	0.64	1.19
26/01/2020 11:41:57	26012020	260120	114157	103.050	12.418780	-57.245015	102.870	-0.040	-0.510	-0.790	103.010	-2.000	-0.800																			1580038917.0	0.15	0.28
26/01/2020 11:41:58	26012020	260120	114158	102.820	12.418777	-57.245017	102.720	-0.300	-0.040	0.330	102.780	-1.600	0.200																			1580038918.0	0.91	1.69
26/01/2020 11:41:59	26012020	260120	114159	102.670	12.418770	-57.245020	102.640	-0.460	0.290	1.450	102.650	-1.200	1.400																			1580038919.0	1.40	2.59
26/01/2020 11:42:00	26012020	260120	114200	102.620	12.418765	-57.245023	102.690	-0.450	0.280	2.210	102.630	-1.000	2.300	1015.20	25.90	26.00	18.40	18.50	184.00	63.00	63.00	376.00	26.30	345.00	7.50	87.00	7.10	14659	3081.00	27.50	27.50	1580038920.0	1.37	2.54
26/01/2020 11:42:01	26012020	260120	114201	102.700	12.418760	-57.245023	102.810	-0.270	0.040	2.560	102.730	-1.200	2.800																			1580038921.0	1.05	1.94
26/01/2020 11:42:02	26012020	260120	114202	102.820	12.418757	-57.245022	102.900	-0.040	-0.170	2.570	102.830	-1.500	3.000																			1580038922.0	0.74	1.37
26/01/2020 11:42:03	26012020	260120	114203	102.890	12.418755	-57.245022	102.930	0.100	-0.230	2.180	102.890	-1.600	2.800																			1580038923.0	0.27	0.50
26/01/2020 11:42:04	26012020	260120	114204	102.920	12.418757	-57.245022	102.930	0.120	-0.110	1.380	102.920	-1.500	2.100																			1580038924.0	0.44	0.81
26/01/2020 11:42:05	26012020	260120	114205	102.930	12.418762	-57.245022	102.910	0.090	-0.010	0.370	102.930	-1.400	1.200																			1580038925.0	1.08	2.00
26/01/2020 11:42:06	26012020	260120	114206	102.920	12.418768	-57.245022	102.860	0.120	-0.090	-0.540	102.910	-1.400	0.200																			1580038926.0	1.31	2.43
26/01/2020 11:42:07	26012020	260120	114207	102.870	12.418773	-57.245020	102.780	0.210	-0.320	-1.120	102.860	-1.600	-0.500																			1580038927.0	1.15	2.13
26/01/2020 11:42:08	26012020	260120	114208	102.780	12.418777	-57.245018	102.670	0.270	-0.510	-1.290	102.760	-1.800	-0.900																			1580038928.0	0.81	1.50
26/01/2020 11:42:09	26012020	260120	114209	102.660	12.418778	-57.245017	102.550	0.220	-0.490	-1.070	102.630	-1.900	-0.800																			1580038929.0	0.40	0.74
26/01/2020 11:42:10	26012020	260120	114210	102.540	12.418777	-57.245017	102.460	0.030	-0.180	-0.490	102.510	-1.700	-0.400																			1580038930.0	0.18	0.33
26/01/2020 11:42:11	26012020	260120	114211	102.440	12.418775	-57.245018	102.410	-0.190	0.220	0.350	102.430	-1.300	0.400																			1580038931.0	0.72	1.33
26/01/2020 11:42:12	26012020	260120	114212	102.400	12.418770	-57.245022	102.440	-0.290	0.400	1.190	102.400	-1.000	1.200																			1580038932.0	1.08	2.00
26/01/2020 11:42:13	26012020	260120	114213	102.460	12.418765	-57.245022	102.550	-0.250	0.260	1.810	102.480	-1.000	2.000																			1580038933.0	1.07	1.98
26/01/2020 11:42:14	26012020	260120	114214	102.570	12.418762	-57.245022	102.680	-0.110	0.020	2.150	102.600	-1.300	2.400																			1580038934.0	0.87	1.61
26/01/2020 11:42:15	26012020	260120	114215	102.690	12.418758	-57.245022	102.790	0.000	-0.140	2.140	102.720	-1.500	2.600																			1580038935.0	0.50	0.93
26/01/2020 11:42:16	26012020	260120	114216	102.810	12.418758	-57.245022	102.870	0.060	-0.220	1.840	102.830	-1.600	2.400																			1580038936.0	0.06	0.11
26/01/2020 11:42:17	26012020	260120	114217	102.840	12.418760	-57.245023	102.780	0.100	-0.320	1.450	102.820	-1.600	2.000																			1580038937.0	0.34	0.63
26/01/2020 11:42:18	26012020	260120	114218	102.670	12.418763	-57.245022	102.560	0.180	-0.440	0.990	102.630	-1.800	1.600																			1580038938.0	0.55	1.02
26/01/2020 11:42:19	26012020	260120	114219	102.510	12.418767	-57.245022	102.400	0.240	-0.420	0.390	102.480	-1.800	1.000																			1580038939.0	0.79	1.46
26/01/2020 11:42:20	26012020	260120	114220	102.400	12.418770	-57.245020	102.400	0.180	-0.200	-0.180	102.400	-1.700	0.400																			1580038940.0	0.93	1.72
26/01/2020 11:42:21	26012020	260120	114221	102.450	12.418775	-57.245020	102.470	0.000	0.020	-0.590	102.470	-1.400	-0.100																			1580038941.0	0.86	1.59
26/01/2020 11:42:22	26012020	260120	114222	102.550	12.418777	-57.245020	102.570	-0.150	0.010	-0.710	102.570	-1.300	-0.300																			1580038942.0	0.53	0.98
26/01/2020 11:42:23	26012020	260120	114223	102.650	12.418777	-57.245020	102.690	-0.210	-0.160	-0.470	102.670	-1.500	-0.200																			1580038943.0	0.16	0.30
26/01/2020 11:42:24	26012020	260120	114224	102.740	12.418773	-57.245018	102.790	-0.180	-0.230	0.030	102.760	-1.600	0.200																			1580038944.0	0.64	1.19
26/01/2020 11:42:25	26012020	260120	114225	102.770	12.418770	-57.245020	102.730	-0.130	-0.110	0.770	102.760	-1.500	0.800																			1580038945.0	0.97	1.80
26/01/2020 11:42:26	26012020	260120	114226	102.610	12.418765	-57.245022	102.550	-0.070	0.120	1.490	102.570	-1.300	1.600																			1580038946.0	1.08	2.00
26/01/2020 11:42:27	26012020	260120	114227	102.450	12.418762	-57.245023	102.490	-0.010	0.300	1.820	102.440	-1.100	2.100																			1580038947.0	0.81	1.50
26/01/2020 11:42:28	26012020	260120	114228	102.510	12.418760	-57.245025	102.680	0.050	0.320	1.670	102.550	-1.000	2.200																			1580038948.0	0.30	0.56
26/01/2020 11:42:29	26012020	260120	114229	102.780	12.418762	-57.245025	102.990	0.150	0.110	1.220	102.850	-1.100	1.800																			1580038949.0	0.40	0.74
26/01/2020 11:42:30	26012020	260120	114230	103.090	12.418765	-57.245023	103.190	0.280	-0.260	0.770	103.130	-1.500	1.300																			1580038950.0	0.71	1.31
26/01/2020 11:42:31	26012020	260120	114231	103.200	12.418768	-57.245022	103.190	0.330	-0.520	0.520	103.200	-1.800	1.000																			1580038951.0	0.68	1.26
26/01/2020 11:42:32	26012020	260120	114232	103.130	12.418770	-57.245022	103.050	0.240	-0.560	0.480	103.100	-1.900	0.900																			1580038952.0	0.32	0.59
26/01/2020 11:42:33	26012020	260120	114233	102.980	12.418770	-57.245022	102.790	0.070	-0.520	0.620	102.930	-1.900	0.900																			1580038953.0	0.12	0.22
26/01/2020 11:42:34	26012020	260120	114234	102.650	12.418770	-57.245023	102.520	-0.080	-0.530	0.780	102.590	-1.900	1.100																			1580038954.0	0.13	0.24
26/01/2020 11:42:35	26012020	260120	114235	102.440	12.418768	-57.245022	102.420	-0.200	-0.480	0.850	102.430	-1.900	1.200																			1580038955.0	0.17	0.31
26/01/2020 11:42:36	26012020	260120	114236	102.420	12.418768	-57.245022	102.470	-0.310	-0.200	0.850	102.430	-1.700	1.200																			1580038956.0	0.18	0.33
26/01/2020 11:42:37	26012020	260120	114237	102.530	12.418768	-57.245022	102.640	-0.430	0.290	0.710	102.570	-1.300	1.200																			1580038957.0	0.19	0.35
26/01/2020 11:42:38	26012020	260120	114238	102.730	12.418767	-57.245023	102.830	-0.490	0.710	0.510	102.770	-0.800	1.000																			1580038958.0	0.32	0.59
26/01/2020 11:42:39	26012020	260120	114239	102.920	12.418767	-57.245025	102.990	-0.370	0.800	0.320	102.950	-0.600	0.800																			1580038959.0	0.28	0.52
26/01/2020 11:42:40	26012020	260120	114240	103.070	12.418767	-57.245025	103.130	-0.040	0.500	0.170	103.110	-0.700	0.600																			1580038960.0	0.06	0.11
26/01/2020 11:42:41	26012020	260120	114241	103.200	12.418768	-57.245023	103.210	0.390	0.010	0.080	103.220	-1.200	0.500																			1580038961.0	0.21	0.39
26/01/2020 11:42:42	26012020	260120	114242	103.260	12.418768	-57.245023	103.220	0.700	-0.450	0.110	103.260	-1.700	0.500																			1580038962.0	0.30	0.56
26/01/2020 11:42:43	26012020	260120	114243	103.230	12.418770	-57.245022	103.180	0.730	-0.770	0.300	103.220	-2.000	0.600																			1580038963.0	0.27	0.50
26/01/2020 11:42:44	26012020	260120	114244	103.190	12.418770	-57.245022	103.130	0.490	-0.930	0.610	103.180	-2.200	0.900																			1580038964.0	0.18	0.33
26/01/2020 11:42:45	26012020	260120	114245	103.110	12.418770	-57.245022	102.920	0.170	-0.930	1.140	103.070	-2.300	1.300																			1580038965.0	0.12	0.22
26/01/2020 11:42:46	26012020	260120	114246	102.770	12.418767	-57.245022	102.610	-0.150	-0.640	1.820	102.710	-2.200	1.900																			1580038966.0	0.58	1.07
26/01/2020 11:42:47	26012020	260120	114247	102.490	12.418763	-57.245023	102.440	-0.450	-0.010	2.260	102.450	-1.600	2.500																			1580038967.0	0.88	1.63
26/01/2020 11:42:48	26012020	260120	114248	102.420	12.418760	-57.245027	102.490	-0.660	0.610	2.180	102.430	-1.000	2.700																			1580038968.0	0.78	1.44
26/01/2020 11:42:49	26012020	260120	114249	102.570	12.418760	-57.245028	102.730	-0.670	0.840	1.580	102.630	-0.500	2.300																			1580038969.0	0.36	0.67
26/01/2020 11:42:50	26012020	260120	114250	102.860	12.418762	-57.245027	102.990	-0.410	0.610	0.680	102.920	-0.600	1.400																			1580038970.0	0.46	0.85
26/01/2020 11:42:51	26012020	260120	114251	103.100	12.418767	-57.245025	103.140	0.010	0.110	-0.160	103.130	-1.000	0.500																			1580038971.0	0.90	1.67
26/01/2020 11:42:52	26012020	260120	114252	103.210	12.418770	-57.245022	103.160	0.390	-0.350	-0.780	103.220	-1.500	-0.200																			1580038972.0	0.99	1.83
26/01/2020 11:42:53	26012020	260120	114253	103.190	12.418773	-57.245020	103.090	0.530	-0.610	-1.030	103.170	-1.900	-0.600																			1580038973.0	0.79	1.46
26/01/2020 11:42:54	26012020	260120	114254	103.070	12.418775	-57.245020	102.960	0.400	-0.580	-0.850	103.040	-2.000	-0.600																			1580038974.0	0.41	0.76
26/01/2020 11:42:55	26012020	260120	114255	102.930	12.418775	-57.245020	102.860	0.170	-0.410	-0.320	102.910	-1.800	-0.200																			1580038975.0	0.21	0.39
26/01/2020 11:42:56	26012020	260120	114256	102.840	12.418772	-57.245022	102.800	-0.020	-0.190	0.400	102.820	-1.600	0.500																			1580038976.0	0.56	1.04
26/01/2020 11:42:57	26012020	260120	114257	102.770	12.418768	-57.245025	102.770	-0.120	0.020	1.170	102.760	-1.400	1.300																			1580038977.0	0.87	1.61
26/01/2020 11:42:58	26012020	260120	114258	102.740	12.418765	-57.245027	102.810	-0.140	0.140	1.790	102.750	-1.300	2.000																			1580038978.0	0.94	1.74
26/01/2020 11:42:59	26012020	260120	114259	102.810	12.418762	-57.245027	102.900	-0.100	0.090	2.150	102.830	-1.200	2.400																			1580038979.0	0.76	1.41
26/01/2020 11:43:00	26012020	260120	114300	102.870	12.418760	-57.245027	102.900	-0.030	-0.100	2.220	102.870	-1.400	2.600	1015.20	26.00	26.10	18.60	18.70	186.00	63.00	63.00	376.00	26.30	341.00	7.60	83.00	7.40	14843	3113.00	27.50	27.40	1580038980.0	0.43	0.80
26/01/2020 11:43:01	26012020	260120	114301	102.840	12.418758	-57.245025	102.840	0.030	-0.260	2.050	102.830	-1.600	2.500																			1580038981.0	0.26	0.48
26/01/2020 11:43:02	26012020	260120	114302	102.790	12.418760	-57.245025	102.790	0.050	-0.220	1.660	102.780	-1.600	2.200																			1580038982.0	0.25	0.46
26/01/2020 11:43:03	26012020	260120	114303	102.770	12.418762	-57.245025	102.770	0.020	-0.020	1.080	102.770	-1.500	1.700																			1580038983.0	0.44	0.81
26/01/2020 11:43:04	26012020	260120	114304	102.780	12.418765	-57.245025	102.750	-0.030	0.050	0.420	102.780	-1.300	1.100																			1580038984.0	0.70	1.30
26/01/2020 11:43:05	26012020	260120	114305	102.760	12.418768	-57.245025	102.700	-0.040	-0.180	-0.230	102.740	-1.400	0.400																			1580038985.0	0.75	1.39
26/01/2020 11:43:06	26012020	260120	114306	102.720	12.418772	-57.245023	102.670	0.000	-0.500	-0.730	102.720	-1.800	-0.200																			1580038986.0	0.73	1.35
26/01/2020 11:43:07	26012020	260120	114307	102.710	12.418773	-57.245020	102.670	0.060	-0.510	-0.950	102.710	-1.900	-0.500																			1580038987.0	0.58	1.07
26/01/2020 11:43:08	26012020	260120	114308	102.730	12.418773	-57.245020	102.730	0.040	-0.020	-0.860	102.740	-1.600	-0.500																			1580038988.0	0.15	0.28
26/01/2020 11:43:09	26012020	260120	114309	102.790	12.418773	-57.245022	102.880	-0.080	0.580	-0.570	102.820	-1.000	-0.300																			1580038989.0	0.49	0.91
26/01/2020 11:43:10	26012020	260120	114310	102.990	12.418773	-57.245025	103.060	-0.210	0.720	-0.080	103.030	-0.600	0.100																			1580038990.0	0.66	1.22
26/01/2020 11:43:11	26012020	260120	114311	103.120	12.418772	-57.245027	103.130	-0.200	0.190	0.690	103.130	-0.900	0.700																			1580038991.0	0.49	0.91
26/01/2020 11:43:12	26012020	260120	114312	103.110	12.418767	-57.245025	103.030	-0.060	-0.620	1.600	103.090	-1.700	1.600																			1580038992.0	1.02	1.89
26/01/2020 11:43:13	26012020	260120	114313	102.920	12.418762	-57.245023	102.810	0.120	-1.080	2.440	102.870	-2.300	2.500																			1580038993.0	1.33	2.46
26/01/2020 11:43:14	26012020	260120	114314	102.670	12.418755	-57.245023	102.590	0.220	-0.900	3.000	102.630	-2.400	3.200																			1580038994.0	1.16	2.15
26/01/2020 11:43:15	26012020	260120	114315	102.460	12.418752	-57.245025	102.420	0.210	-0.290	3.050	102.430	-1.900	3.500																			1580038995.0	0.77	1.43
26/01/2020 11:43:16	26012020	260120	114316	102.370	12.418753	-57.245027	102.420	0.160	0.280	2.400	102.380	-1.300	3.100																			1580038996.0	0.47	0.87
26/01/2020 11:43:17	26012020	260120	114317	102.500	12.418758	-57.245028	102.620	0.090	0.560	1.150	102.550	-0.900	2.100																			1580038997.0	1.07	1.98
26/01/2020 11:43:18	26012020	260120	114318	102.760	12.418765	-57.245027	102.840	0.040	0.490	-0.270	102.810	-0.800	0.700																			1580038998.0	1.62	3.00
26/01/2020 11:43:19	26012020	260120	114319	102.970	12.418773	-57.245025	102.960	0.020	0.120	-1.370	103.000	-1.100	-0.600																			1580038999.0	1.72	3.19
26/01/2020 11:43:20	26012020	260120	114320	103.060	12.418778	-57.245022	102.990	-0.030	-0.300	-1.840	103.060	-1.500	-1.300																			1580039000.0	1.26	2.33
26/01/2020 11:43:21	26012020	260120	114321	103.040	12.418780	-57.245020	102.920	-0.140	-0.570	-1.630	103.020	-1.900	-1.400																			1580039001.0	0.52	0.96
26/01/2020 11:43:22	26012020	260120	114322	102.920	12.418778	-57.245020	102.780	-0.280	-0.630	-0.860	102.890	-2.000	-0.800																			1580039002.0	0.41	0.76
26/01/2020 11:43:23	26012020	260120	114323	102.770	12.418773	-57.245022	102.600	-0.360	-0.480	0.280	102.730	-1.900	0.200																			1580039003.0	1.12	2.07
26/01/2020 11:43:24	26012020	260120	114324	102.510	12.418767	-57.245023	102.420	-0.310	-0.130	1.430	102.480	-1.700	1.400																			1580039004.0	1.54	2.85
26/01/2020 11:43:25	26012020	260120	114325	102.370	12.418760	-57.245025	102.380	-0.190	0.320	2.230	102.350	-1.200	2.300																			1580039005.0	1.48	2.74
26/01/2020 11:43:26	26012020	260120	114326	102.420	12.418757	-57.245028	102.540	-0.040	0.580	2.430	102.450	-0.900	2.800																			1580039006.0	0.94	1.74
26/01/2020 11:43:27	26012020	260120	114327	102.620	12.418757	-57.245028	102.750	0.150	0.420	2.100	102.670	-0.800	2.700																			1580039007.0	0.21	0.39
26/01/2020 11:43:28	26012020	260120	114328	102.850	12.418758	-57.245028	102.940	0.390	-0.050	1.450	102.890	-1.200	2.100																			1580039008.0	0.59	1.09
26/01/2020 11:43:29	26012020	260120	114329	103.020	12.418762	-57.245025	103.030	0.610	-0.540	0.770	103.050	-1.700	1.400																			1580039009.0	0.98	1.81
26/01/2020 11:43:30	26012020	260120	114330	103.040	12.418767	-57.245023	102.910	0.650	-0.810	0.280	103.010	-2.100	0.800																			1580039010.0	1.04	1.93
26/01/2020 11:43:31	26012020	260120	114331	102.870	12.418770	-57.245022	102.730	0.400	-0.690	-0.050	102.840	-2.200	0.500																			1580039011.0	0.85	1.57
26/01/2020 11:43:32	26012020	260120	114332	102.720	12.418773	-57.245022	102.600	-0.070	-0.330	-0.160	102.700	-1.900	0.200																			1580039012.0	0.57	1.06
26/01/2020 11:43:33	26012020	260120	114333	102.580	12.418773	-57.245023	102.450	-0.500	-0.020	-0.010	102.550	-1.500	0.300																			1580039013.0	0.29	0.54
26/01/2020 11:43:34	26012020	260120	114334	102.440	12.418772	-57.245023	102.390	-0.720	0.160	0.300	102.420	-1.300	0.600																			1580039014.0	0.35	0.65
26/01/2020 11:43:35	26012020	260120	114335	102.430	12.418768	-57.245023	102.540	-0.690	0.330	0.560	102.450	-1.100	0.900																			1580039015.0	0.66	1.22
26/01/2020 11:43:36	26012020	260120	114336	102.680	12.418767	-57.245025	102.830	-0.480	0.510	0.640	102.740	-0.900	1.000																			1580039016.0	0.66	1.22
26/01/2020 11:43:37	26012020	260120	114337	102.960	12.418765	-57.245025	103.050	-0.160	0.440	0.620	103.000	-0.900	1.000																			1580039017.0	0.45	0.83
26/01/2020 11:43:38	26012020	260120	114338	103.120	12.418763	-57.245025	103.130	0.180	0.030	0.570	103.130	-1.100	1.000																			1580039018.0	0.12	0.22
26/01/2020 11:43:39	26012020	260120	114339	103.130	12.418763	-57.245025	103.070	0.450	-0.440	0.610	103.120	-1.600	1.000																			1580039019.0	0.29	0.54
26/01/2020 11:43:40	26012020	260120	114340	103.020	12.418765	-57.245023	102.910	0.570	-0.750	0.810	102.980	-2.000	1.100																			1580039020.0	0.30	0.56
26/01/2020 11:43:41	26012020	260120	114341	102.830	12.418765	-57.245022	102.750	0.550	-0.780	1.010	102.800	-2.200	1.300																			1580039021.0	0.18	0.33
26/01/2020 11:43:42	26012020	260120	114342	102.730	12.418767	-57.245022	102.740	0.380	-0.470	1.010	102.730	-2.000	1.400																			1580039022.0	0.24	0.44
26/01/2020 11:43:43	26012020	260120	114343	102.770	12.418768	-57.245023	102.810	0.060	0.000	0.900	102.780	-1.500	1.300																			1580039023.0	0.39	0.72
26/01/2020 11:43:44	26012020	260120	114344	102.830	12.418768	-57.245025	102.840	-0.280	0.300	0.880	102.830	-1.200	1.300																			1580039024.0	0.33	0.61
26/01/2020 11:43:45	26012020	260120	114345	102.840	12.418767	-57.245025	102.870	-0.480	0.290	0.880	102.850	-1.000	1.300																			1580039025.0	0.27	0.50
26/01/2020 11:43:46	26012020	260120	114346	102.900	12.418767	-57.245025	102.920	-0.440	0.060	0.800	102.910	-1.200	1.200																			1580039026.0	0.32	0.59
26/01/2020 11:43:47	26012020	260120	114347	102.940	12.418765	-57.245023	102.950	-0.220	-0.150	0.640	102.950	-1.500	1.100																			1580039027.0	0.32	0.59
26/01/2020 11:43:48	26012020	260120	114348	102.960	12.418765	-57.245023	102.930	0.040	-0.140	0.440	102.960	-1.500	0.900																			1580039028.0	0.18	0.33
26/01/2020 11:43:49	26012020	260120	114349	102.930	12.418767	-57.245023	102.880	0.170	-0.060	0.290	102.930	-1.500	0.700																			1580039029.0	0.27	0.50
26/01/2020 11:43:50	26012020	260120	114350	102.880	12.418768	-57.245023	102.830	0.160	-0.110	0.220	102.870	-1.500	0.600																			1580039030.0	0.33	0.61
26/01/2020 11:43:51	26012020	260120	114351	102.850	12.418770	-57.245023	102.860	0.090	-0.190	0.170	102.850	-1.500	0.600																			1580039031.0	0.28	0.52
26/01/2020 11:43:52	26012020	260120	114352	102.910	12.418770	-57.245022	102.960	0.030	-0.160	0.180	102.930	-1.600	0.600																			1580039032.0	0.18	0.33
26/01/2020 11:43:53	26012020	260120	114353	103.010	12.418770	-57.245023	103.030	0.010	-0.110	0.360	103.020	-1.500	0.700																			1580039033.0	0.15	0.28
26/01/2020 11:43:54	26012020	260120	114354	103.050	12.418768	-57.245023	103.030	-0.000	-0.100	0.680	103.050	-1.500	0.900																			1580039034.0	0.40	0.74
26/01/2020 11:43:55	26012020	260120	114355	103.000	12.418767	-57.245025	102.940	-0.020	-0.210	1.020	102.980	-1.500	1.300																			1580039035.0	0.44	0.81
26/01/2020 11:43:56	26012020	260120	114356	102.870	12.418765	-57.245025	102.790	-0.010	-0.320	1.280	102.830	-1.700	1.600																			1580039036.0	0.37	0.69
26/01/2020 11:43:57	26012020	260120	114357	102.730	12.418763	-57.245023	102.710	0.020	-0.250	1.340	102.710	-1.700	1.700																			1580039037.0	0.20	0.37
26/01/2020 11:43:58	26012020	260120	114358	102.690	12.418763	-57.245023	102.730	0.030	-0.020	1.240	102.700	-1.500	1.700																			1580039038.0	0.08	0.15
26/01/2020 11:43:59	26012020	260120	114359	102.720	12.418765	-57.245025	102.790	0.020	0.170	1.030	102.730	-1.300	1.500																			1580039039.0	0.24	0.44
26/01/2020 11:44:00	26012020	260120	114400	102.810	12.418767	-57.245025	102.850	-0.020	0.160	0.740	102.830	-1.200	1.300	1015.20	26.00	26.00	17.70	17.90	192.00	60.00	60.00	376.00	26.40	345.00	7.90	88.00	7.70	15070	3186.00	27.50	27.50	1580039040.0	0.26	0.48
26/01/2020 11:44:01	26012020	260120	114401	102.880	12.418767	-57.245025	102.880	-0.050	-0.060	0.440	102.880	-1.300	0.900																			1580039041.0	0.30	0.56
26/01/2020 11:44:02	26012020	260120	114402	102.880	12.418768	-57.245023	102.840	-0.020	-0.340	0.220	102.870	-1.600	0.700																			1580039042.0	0.38	0.70
26/01/2020 11:44:03	26012020	260120	114403	102.810	12.418768	-57.245022	102.750	0.050	-0.510	0.160	102.790	-1.800	0.600																			1580039043.0	0.32	0.59
26/01/2020 11:44:04	26012020	260120	114404	102.720	12.418768	-57.245020	102.680	0.090	-0.400	0.260	102.710	-1.900	0.600																			1580039044.0	0.16	0.30
26/01/2020 11:44:05	26012020	260120	114405	102.670	12.418768	-57.245022	102.670	0.060	-0.060	0.380	102.670	-1.600	0.700																			1580039045.0	0.24	0.44
26/01/2020 11:44:06	26012020	260120	114406	102.680	12.418768	-57.245023	102.690	-0.010	0.290	0.400	102.690	-1.200	0.800																			1580039046.0	0.31	0.57
26/01/2020 11:44:07	26012020	260120	114407	102.720	12.418768	-57.245023	102.730	-0.070	0.450	0.380	102.720	-1.000	0.800																			1580039047.0	0.29	0.54
26/01/2020 11:44:08	26012020	260120	114408	102.770	12.418770	-57.245025	102.820	-0.070	0.320	0.380	102.790	-1.000	0.800																			1580039048.0	0.29	0.54
26/01/2020 11:44:09	26012020	260120	114409	102.890	12.418770	-57.245023	102.950	0.010	-0.070	0.440	102.920	-1.300	0.800																			1580039049.0	0.22	0.41
26/01/2020 11:44:10	26012020	260120	114410	103.010	12.418770	-57.245023	103.010	0.090	-0.500	0.640	103.020	-1.700	0.900																			1580039050.0	0.26	0.48
26/01/2020 11:44:11	26012020	260120	114411	102.990	12.418768	-57.245022	102.920	0.090	-0.790	1.040	102.970	-2.100	1.300																			1580039051.0	0.42	0.78
26/01/2020 11:44:12	26012020	260120	114412	102.820	12.418765	-57.245022	102.690	0.000	-0.810	1.530	102.770	-2.200	1.700																			1580039052.0	0.65	1.20
26/01/2020 11:44:13	26012020	260120	114413	102.600	12.418762	-57.245022	102.420	-0.120	-0.570	1.920	102.550	-2.000	2.200																			1580039053.0	0.75	1.39
26/01/2020 11:44:14	26012020	260120	114414	102.290	12.418760	-57.245023	102.230	-0.170	-0.160	1.910	102.250	-1.700	2.400																			1580039054.0	0.53	0.98
26/01/2020 11:44:15	26012020	260120	114415	102.190	12.418760	-57.245023	102.250	-0.140	0.300	1.360	102.200	-1.300	2.000																			1580039055.0	0.10	0.19
26/01/2020 11:44:16	26012020	260120	114416	102.340	12.418763	-57.245023	102.490	-0.080	0.730	0.470	102.400	-0.800	1.200																			1580039056.0	0.67	1.24
26/01/2020 11:44:17	26012020	260120	114417	102.650	12.418768	-57.245023	102.780	-0.020	0.840	-0.430	102.710	-0.500	0.300																			1580039057.0	1.12	2.07
26/01/2020 11:44:18	26012020	260120	114418	102.930	12.418773	-57.245023	103.020	0.060	0.450	-1.120	102.980	-0.700	-0.500																			1580039058.0	1.21	2.24
26/01/2020 11:44:19	26012020	260120	114419	103.150	12.418778	-57.245020	103.160	0.190	-0.250	-1.390	103.180	-1.300	-1.000																			1580039059.0	1.02	1.89
26/01/2020 11:44:20	26012020	260120	114420	103.220	12.418780	-57.245018	103.130	0.270	-0.780	-1.030	103.210	-2.000	-0.900																			1580039060.0	0.58	1.07
26/01/2020 11:44:21	26012020	260120	114421	103.070	12.418777	-57.245017	102.890	0.220	-0.920	-0.020	103.010	-2.300	-0.100																			1580039061.0	0.53	0.98
26/01/2020 11:44:22	26012020	260120	114422	102.740	12.418772	-57.245018	102.550	0.050	-0.730	1.230	102.660	-2.200	1.100																			1580039062.0	1.20	2.22
26/01/2020 11:44:23	26012020	260120	114423	102.460	12.418765	-57.245022	102.300	-0.120	-0.470	2.260	102.400	-1.900	2.300																			1580039063.0	1.45	2.69
26/01/2020 11:44:24	26012020	260120	114424	102.200	12.418760	-57.245023	102.260	-0.210	-0.240	2.770	102.200	-1.700	3.000																			1580039064.0	1.18	2.19
26/01/2020 11:44:25	26012020	260120	114425	102.240	12.418757	-57.245023	102.450	-0.230	0.090	2.680	102.280	-1.400	3.200																			1580039065.0	0.63	1.17
26/01/2020 11:44:26	26012020	260120	114426	102.540	12.418757	-57.245023	102.710	-0.210	0.490	2.070	102.600	-1.000	2.800																			1580039066.0	0.09	0.17
26/01/2020 11:44:27	26012020	260120	114427	102.760	12.418760	-57.245025	102.890	-0.150	0.660	1.060	102.810	-0.700	1.900																			1580039067.0	0.70	1.30
26/01/2020 11:44:28	26012020	260120	114428	102.950	12.418765	-57.245023	102.960	-0.030	0.400	-0.060	102.960	-0.800	0.800																			1580039068.0	1.22	2.26
26/01/2020 11:44:29	26012020	260120	114429	103.010	12.418772	-57.245022	102.990	0.120	-0.120	-0.960	103.010	-1.300	-0.200																			1580039069.0	1.40	2.59
26/01/2020 11:44:30	26012020	260120	114430	103.060	12.418777	-57.245018	103.040	0.220	-0.580	-1.430	103.080	-1.800	-0.900																			1580039070.0	1.18	2.19
26/01/2020 11:44:31	26012020	260120	114431	103.110	12.418780	-57.245017	103.030	0.230	-0.790	-1.420	103.100	-2.100	-1.100																			1580039071.0	0.69	1.28
26/01/2020 11:44:32	26012020	260120	114432	103.050	12.418780	-57.245017	102.930	0.100	-0.670	-0.980	103.020	-2.100	-0.800																			1580039072.0	0.07	0.13
26/01/2020 11:44:33	26012020	260120	114433	102.920	12.418777	-57.245018	102.830	-0.130	-0.240	-0.180	102.900	-1.800	-0.100																			1580039073.0	0.69	1.28
26/01/2020 11:44:34	26012020	260120	114434	102.850	12.418772	-57.245020	102.840	-0.330	0.280	0.710	102.850	-1.300	0.800																			1580039074.0	1.30	2.41
26/01/2020 11:44:35	26012020	260120	114435	102.900	12.418765	-57.245025	102.990	-0.340	0.560	1.420	102.930	-0.900	1.600																			1580039075.0	1.41	2.61
26/01/2020 11:44:36	26012020	260120	114436	103.070	12.418762	-57.245027	103.190	-0.150	0.430	1.790	103.110	-0.800	2.100																			1580039076.0	1.04	1.93
26/01/2020 11:44:37	26012020	260120	114437	103.270	12.418758	-57.245027	103.370	0.140	0.030	1.810	103.310	-1.200	2.200																			1580039077.0	0.51	0.94
26/01/2020 11:44:38	26012020	260120	114438	103.420	12.418758	-57.245025	103.450	0.370	-0.470	1.570	103.440	-1.600	2.100																			1580039078.0	0.29	0.54
26/01/2020 11:44:39	26012020	260120	114439	103.460	12.418760	-57.245023	103.440	0.410	-0.790	1.230	103.460	-2.100	1.800																			1580039079.0	0.55	1.02
26/01/2020 11:44:40	26012020	260120	114440	103.440	12.418763	-57.245022	103.390	0.270	-0.750	0.880	103.430	-2.200	1.400																			1580039080.0	0.61	1.13
26/01/2020 11:44:41	26012020	260120	114441	103.380	12.418765	-57.245022	103.290	0.040	-0.410	0.540	103.360	-1.900	1.100																			1580039081.0	0.52	0.96
26/01/2020 11:44:42	26012020	260120	114442	103.280	12.418768	-57.245022	103.210	-0.160	0.010	0.250	103.260	-1.500	0.800																			1580039082.0	0.47	0.87
26/01/2020 11:44:43	26012020	260120	114443	103.240	12.418768	-57.245023	103.230	-0.310	0.360	0.010	103.240	-1.100	0.500																			1580039083.0	0.34	0.63
26/01/2020 11:44:44	26012020	260120	114444	103.310	12.418770	-57.245023	103.340	-0.420	0.510	-0.210	103.330	-0.900	0.300																			1580039084.0	0.13	0.24
26/01/2020 11:44:45	26012020	260120	114445	103.440	12.418770	-57.245023	103.500	-0.400	0.470	-0.390	103.480	-0.900	0.100																			1580039085.0	0.05	0.09
26/01/2020 11:44:46	26012020	260120	114446	103.640	12.418768	-57.245023	103.720	-0.210	0.260	-0.490	103.690	-1.000	-0.100																			1580039086.0	0.16	0.30
26/01/2020 11:44:47	26012020	260120	114447	103.900	12.418768	-57.245022	103.980	0.080	-0.090	-0.410	103.950	-1.300	-0.100																			1580039087.0	0.27	0.50
26/01/2020 11:44:48	26012020	260120	114448	104.140	12.418767	-57.245022	104.160	0.300	-0.450	-0.150	104.170	-1.700	0.100																			1580039088.0	0.42	0.78
26/01/2020 11:44:49	26012020	260120	114449	104.240	12.418763	-57.245020	104.210	0.340	-0.610	0.260	104.260	-1.900	0.500																			1580039089.0	0.46	0.85
26/01/2020 11:44:50	26012020	260120	114450	104.220	12.418762	-57.245022	104.090	0.230	-0.540	0.820	104.190	-2.000	1.000																			1580039090.0	0.47	0.87
26/01/2020 11:44:51	26012020	260120	114451	104.040	12.418758	-57.245022	103.900	0.140	-0.410	1.420	104.000	-1.800	1.600																			1580039091.0	0.60	1.11
26/01/2020 11:44:52	26012020	260120	114452	103.830	12.418757	-57.245022	103.740	0.100	-0.300	1.840	103.800	-1.700	2.100																			1580039092.0	0.65	1.20
26/01/2020 11:44:53	26012020	260120	114453	103.720	12.418753	-57.245020	103.700	0.050	-0.190	1.930	103.710	-1.600	2.300																			1580039093.0	0.53	0.98
26/01/2020 11:44:54	26012020	260120	114454	103.730	12.418753	-57.245018	103.790	-0.050	-0.020	1.640	103.760	-1.500	2.200																			1580039094.0	0.40	0.74
26/01/2020 11:44:55	26012020	260120	114455	103.880	12.418753	-57.245017	103.950	-0.120	0.160	1.030	103.910	-1.300	1.700																			1580039095.0	0.43	0.80
26/01/2020 11:44:56	26012020	260120	114456	104.060	12.418755	-57.245015	104.100	-0.100	0.270	0.310	104.090	-1.100	1.000																			1580039096.0	0.66	1.22
26/01/2020 11:44:57	26012020	260120	114457	104.220	12.418758	-57.245013	104.250	-0.080	0.330	-0.350	104.250	-1.100	0.300																			1580039097.0	0.81	1.50
26/01/2020 11:44:58	26012020	260120	114458	104.380	12.418762	-57.245010	104.420	-0.150	0.320	-0.800	104.420	-1.000	-0.300																			1580039098.0	0.68	1.26
26/01/2020 11:44:59	26012020	260120	114459	104.560	12.418762	-57.245008	104.580	-0.250	0.150	-0.940	104.600	-1.100	-0.500																			1580039099.0	0.34	0.63
26/01/2020 11:45:00	26012020	260120	114500	104.680	12.418760	-57.245008	104.600	-0.190	-0.250	-0.720	104.680	-1.400	-0.500	1015.20	26.00	26.00	18.00	18.10	184.00	61.00	61.00	376.00	26.40	343.00	7.40	86.00	7.20	15072	3145.00	27.50	27.40	1580039100.0	0.45	0.83
26/01/2020 11:45:01	26012020	260120	114501	104.630	12.418757	-57.245005	104.460	0.040	-0.700	-0.180	104.600	-1.900	-0.000																			1580039101.0	0.91	1.69
26/01/2020 11:45:02	26012020	260120	114502	104.440	12.418752	-57.245002	104.330	0.250	-0.780	0.430	104.410	-2.200	0.600																			1580039102.0	1.13	2.09
26/01/2020 11:45:03	26012020	260120	114503	104.350	12.418748	-57.245002	104.310	0.270	-0.390	0.950	104.340	-1.900	1.100																			1580039103.0	0.98	1.81
26/01/2020 11:45:04	26012020	260120	114504	104.340	12.418745	-57.245002	104.350	0.130	0.100	1.270	104.350	-1.400	1.600																			1580039104.0	0.72	1.33
26/01/2020 11:45:05	26012020	260120	114505	104.390	12.418742	-57.245002	104.390	0.010	0.290	1.350	104.390	-1.100	1.700																			1580039105.0	0.43	0.80
26/01/2020 11:45:06	26012020	260120	114506	104.430	12.418742	-57.245000	104.400	-0.010	0.150	1.240	104.430	-1.100	1.700																			1580039106.0	0.51	0.94
26/01/2020 11:45:07	26012020	260120	114507	104.430	12.418742	-57.244995	104.380	0.040	-0.150	1.050	104.430	-1.400	1.500																			1580039107.0	0.83	1.54
26/01/2020 11:45:08	26012020	260120	114508	104.410	12.418740	-57.244992	104.330	0.080	-0.400	0.800	104.400	-1.700	1.300																			1580039108.0	0.95	1.76
26/01/2020 11:45:09	26012020	260120	114509	104.330	12.418740	-57.244987	104.200	0.070	-0.430	0.580	104.300	-1.800	1.100																			1580039109.0	0.90	1.67
26/01/2020 11:45:10	26012020	260120	114510	104.170	12.418738	-57.244983	104.030	0.000	-0.190	0.400	104.140	-1.700	0.900																			1580039110.0	0.72	1.33
26/01/2020 11:45:11	26012020	260120	114511	104.040	12.418738	-57.244982	103.950	-0.090	0.130	0.190	104.020	-1.400	0.700																			1580039111.0	0.49	0.91
26/01/2020 11:45:12	26012020	260120	114512	104.010	12.418738	-57.244980	103.970	-0.150	0.300	-0.060	104.020	-1.100	0.400																			1580039112.0	0.42	0.78
26/01/2020 11:45:13	26012020	260120	114513	104.050	12.418737	-57.244977	104.050	-0.160	0.200	-0.240	104.070	-1.100	0.200																			1580039113.0	0.62	1.15
26/01/2020 11:45:14	26012020	260120	114514	104.160	12.418737	-57.244973	104.160	-0.080	-0.060	-0.280	104.180	-1.300	0.100																			1580039114.0	0.88	1.63
26/01/2020 11:45:15	26012020	260120	114515	104.260	12.418733	-57.244968	104.280	0.040	-0.200	-0.230	104.280	-1.500	0.100																			1580039115.0	1.01	1.87
26/01/2020 11:45:16	26012020	260120	114516	104.360	12.418730	-57.244965	104.260	0.100	-0.140	0.020	104.350	-1.500	0.300																			1580039116.0	0.86	1.59
26/01/2020 11:45:17	26012020	260120	114517	104.270	12.418727	-57.244963	104.020	0.090	-0.120	0.540	104.220	-1.500	0.700																			1580039117.0	0.82	1.52
26/01/2020 11:45:18	26012020	260120	114518	103.920	12.418723	-57.244962	103.730	0.080	-0.270	1.090	103.860	-1.600	1.300																			1580039118.0	0.97	1.80
26/01/2020 11:45:19	26012020	260120	114519	103.660	12.418720	-57.244958	103.580	0.110	-0.430	1.390	103.630	-1.700	1.700																			1580039119.0	1.09	2.02
26/01/2020 11:45:20	26012020	260120	114520	103.590	12.418717	-57.244953	103.570	0.140	-0.440	1.430	103.590	-1.800	1.800																			1580039120.0	1.09	2.02
26/01/2020 11:45:21	26012020	260120	114521	103.590	12.418715	-57.244950	103.520	0.080	-0.230	1.360	103.580	-1.700	1.800																			1580039121.0	0.94	1.74
26/01/2020 11:45:22	26012020	260120	114522	103.490	12.418713	-57.244947	103.360	-0.040	0.030	1.260	103.460	-1.400	1.700																			1580039122.0	0.81	1.50
26/01/2020 11:45:23	26012020	260120	114523	103.310	12.418712	-57.244943	103.170	-0.150	0.180	1.070	103.280	-1.200	1.600																			1580039123.0	0.80	1.48
26/01/2020 11:45:24	26012020	260120	114524	103.160	12.418710	-57.244938	103.090	-0.130	0.120	0.660	103.150	-1.200	1.200																			1580039124.0	0.94	1.74
26/01/2020 11:45:25	26012020	260120	114525	103.160	12.418710	-57.244933	103.180	0.020	-0.040	0.080	103.180	-1.300	0.700																			1580039125.0	1.17	2.17
26/01/2020 11:45:26	26012020	260120	114526	103.320	12.418710	-57.244927	103.330	0.140	-0.090	-0.440	103.350	-1.400	0.100																			1580039126.0	1.21	2.24
26/01/2020 11:45:27	26012020	260120	114527	103.430	12.418710	-57.244923	103.350	0.150	-0.030	-0.690	103.440	-1.400	-0.200																			1580039127.0	1.02	1.89
26/01/2020 11:45:28	26012020	260120	114528	103.380	12.418710	-57.244918	103.210	0.090	0.020	-0.590	103.340	-1.400	-0.300																			1580039128.0	0.85	1.57
26/01/2020 11:45:29	26012020	260120	114529	103.200	12.418708	-57.244915	103.030	0.030	-0.050	-0.210	103.160	-1.400	0.000																			1580039129.0	0.91	1.69
26/01/2020 11:45:30	26012020	260120	114530	103.010	12.418705	-57.244910	102.910	-0.020	-0.210	0.330	102.990	-1.500	0.500																			1580039130.0	1.15	2.13
26/01/2020 11:45:31	26012020	260120	114531	102.920	12.418700	-57.244907	102.880	-0.100	-0.320	0.940	102.910	-1.700	1.100																			1580039131.0	1.40	2.59
26/01/2020 11:45:32	26012020	260120	114532	102.870	12.418695	-57.244902	102.850	-0.200	-0.360	1.500	102.860	-1.700	1.700																			1580039132.0	1.53	2.83
26/01/2020 11:45:33	26012020	260120	114533	102.790	12.418688	-57.244898	102.750	-0.280	-0.310	1.930	102.770	-1.700	2.200																			1580039133.0	1.57	2.91
26/01/2020 11:45:34	26012020	260120	114534	102.670	12.418683	-57.244893	102.620	-0.290	-0.160	2.100	102.640	-1.600	2.500																			1580039134.0	1.50	2.78
26/01/2020 11:45:35	26012020	260120	114535	102.530	12.418678	-57.244890	102.490	-0.150	0.010	1.900	102.510	-1.400	2.400																			1580039135.0	1.23	2.28
26/01/2020 11:45:36	26012020	260120	114536	102.440	12.418677	-57.244883	102.420	0.170	0.050	1.310	102.430	-1.300	2.000																			1580039136.0	1.13	2.09
26/01/2020 11:45:37	26012020	260120	114537	102.430	12.418678	-57.244877	102.410	0.480	-0.010	0.470	102.430	-1.400	1.200																			1580039137.0	1.47	2.72
26/01/2020 11:45:38	26012020	260120	114538	102.460	12.418682	-57.244870	102.450	0.540	0.030	-0.400	102.480	-1.400	0.300																			1580039138.0	1.70	3.15
26/01/2020 11:45:39	26012020	260120	114539	102.520	12.418685	-57.244863	102.510	0.300	0.150	-1.070	102.530	-1.300	-0.400																			1580039139.0	1.56	2.89
26/01/2020 11:45:40	26012020	260120	114540	102.590	12.418687	-57.244858	102.540	-0.020	0.210	-1.330	102.600	-1.200	-0.900																			1580039140.0	1.24	2.30
26/01/2020 11:45:41	26012020	260120	114541	102.610	12.418687	-57.244852	102.540	-0.190	0.030	-1.060	102.610	-1.200	-0.900																			1580039141.0	1.09	2.02
26/01/2020 11:45:42	26012020	260120	114542	102.570	12.418682	-57.244847	102.480	-0.150	-0.410	-0.270	102.560	-1.600	-0.300																			1580039142.0	1.47	2.72
26/01/2020 11:45:43	26012020	260120	114543	102.430	12.418675	-57.244840	102.320	-0.030	-0.890	0.820	102.390	-2.100	0.800																			1580039143.0	2.11	3.91
26/01/2020 11:45:44	26012020	260120	114544	102.220	12.418667	-57.244833	102.160	-0.010	-0.990	1.880	102.180	-2.400	1.900																			1580039144.0	2.46	4.56
26/01/2020 11:45:45	26012020	260120	114545	102.040	12.418657	-57.244827	102.030	-0.150	-0.570	2.720	102.000	-2.200	2.800																			1580039145.0	2.32	4.30
26/01/2020 11:45:46	26012020	260120	114546	101.920	12.418650	-57.244823	102.010	-0.360	0.180	3.070	101.910	-1.500	3.400																			1580039146.0	1.84	3.41
26/01/2020 11:45:47	26012020	260120	114547	101.990	12.418645	-57.244820	102.190	-0.470	0.860	2.700	102.040	-0.700	3.300																			1580039147.0	1.20	2.22
26/01/2020 11:45:48	26012020	260120	114548	102.270	12.418645	-57.244815	102.490	-0.370	1.060	1.740	102.340	-0.300	2.500																			1580039148.0	1.00	1.85
26/01/2020 11:45:49	26012020	260120	114549	102.590	12.418647	-57.244808	102.740	-0.080	0.690	0.520	102.650	-0.500	1.400																			1580039149.0	1.58	2.93
26/01/2020 11:45:50	26012020	260120	114550	102.830	12.418650	-57.244798	102.900	0.280	-0.030	-0.680	102.870	-1.100	0.200																			1580039150.0	2.14	3.96
26/01/2020 11:45:51	26012020	260120	114551	102.980	12.418653	-57.244788	102.970	0.590	-0.760	-1.530	103.000	-1.900	-0.900																			1580039151.0	2.35	4.35
26/01/2020 11:45:52	26012020	260120	114552	102.990	12.418655	-57.244777	102.870	0.730	-1.170	-1.750	102.960	-2.400	-1.300																			1580039152.0	2.19	4.06
26/01/2020 11:45:53	26012020	260120	114553	102.870	12.418655	-57.244770	102.700	0.630	-1.060	-1.390	102.830	-2.500	-1.200																			1580039153.0	1.74	3.22
26/01/2020 11:45:54	26012020	260120	114554	102.680	12.418652	-57.244763	102.630	0.330	-0.600	-0.660	102.660	-2.200	-0.600																			1580039154.0	1.44	2.67
26/01/2020 11:45:55	26012020	260120	114555	102.650	12.418647	-57.244758	102.670	-0.100	-0.030	0.320	102.660	-1.600	0.300																			1580039155.0	1.60	2.96
26/01/2020 11:45:56	26012020	260120	114556	102.680	12.418638	-57.244753	102.730	-0.510	0.370	1.400	102.690	-1.100	1.400																			1580039156.0	2.06	3.82
26/01/2020 11:45:57	26012020	260120	114557	102.710	12.418628	-57.244747	102.780	-0.720	0.470	2.330	102.720	-0.900	2.400																			1580039157.0	2.49	4.61
26/01/2020 11:45:58	26012020	260120	114558	102.770	12.418618	-57.244740	102.910	-0.660	0.410	2.860	102.800	-0.900	3.100																			1580039158.0	2.59	4.80
26/01/2020 11:45:59	26012020	260120	114559	102.940	12.418612	-57.244733	103.120	-0.400	0.370	2.850	102.990	-1.000	3.300																			1580039159.0	2.24	4.15
26/01/2020 11:46:00	26012020	260120	114600	103.210	12.418608	-57.244725	103.410	-0.070	0.280	2.260	103.270	-1.000	2.900	1015.30	26.00	26.00	18.30	18.40	180.00	62.00	62.00	376.00	26.40	347.00	7.90	89.00	7.30	15019	3114.00	27.40	27.40	1580039160.0	1.78	3.30
26/01/2020 11:46:01	26012020	260120	114601	103.560	12.418608	-57.244717	103.760	0.250	-0.030	1.180	103.630	-1.200	2.000																			1580039161.0	1.78	3.30
26/01/2020 11:46:02	26012020	260120	114602	103.910	12.418610	-57.244707	104.000	0.500	-0.510	0.020	103.970	-1.700	0.800																			1580039162.0	2.22	4.11
26/01/2020 11:46:03	26012020	260120	114603	104.050	12.418615	-57.244695	103.950	0.600	-0.830	-0.730	104.040	-2.100	-0.100																			1580039163.0	2.45	4.54
26/01/2020 11:46:04	26012020	260120	114604	103.910	12.418617	-57.244685	103.760	0.490	-0.760	-0.980	103.880	-2.200	-0.500																			1580039164.0	2.19	4.06
26/01/2020 11:46:05	26012020	260120	114605	103.780	12.418615	-57.244677	103.700	0.210	-0.360	-0.880	103.760	-1.900	-0.600																			1580039165.0	1.73	3.20
26/01/2020 11:46:06	26012020	260120	114606	103.790	12.418613	-57.244670	103.840	-0.140	0.080	-0.580	103.820	-1.400	-0.300																			1580039166.0	1.53	2.83
26/01/2020 11:46:07	26012020	260120	114607	104.000	12.418608	-57.244663	104.090	-0.400	0.280	-0.090	104.050	-1.100	0.100																			1580039167.0	1.75	3.24
26/01/2020 11:46:08	26012020	260120	114608	104.220	12.418602	-57.244655	104.280	-0.430	0.110	0.600	104.250	-1.100	0.700																			1580039168.0	2.24	4.15
26/01/2020 11:46:09	26012020	260120	114609	104.350	12.418593	-57.244647	104.410	-0.250	-0.190	1.310	104.380	-1.400	1.400																			1580039169.0	2.75	5.09
26/01/2020 11:46:10	26012020	260120	114610	104.490	12.418585	-57.244637	104.590	-0.050	-0.230	1.770	104.520	-1.600	2.000																			1580039170.0	2.75	5.09
26/01/2020 11:46:11	26012020	260120	114611	104.700	12.418578	-57.244628	104.850	0.010	0.030	1.880	104.760	-1.500	2.300																			1580039171.0	2.25	4.17
26/01/2020 11:46:12	26012020	260120	114612	104.990	12.418575	-57.244620	105.140	-0.040	0.330	1.670	105.050	-1.100	2.200																			1580039172.0	1.76	3.26
26/01/2020 11:46:13	26012020	260120	114613	105.300	12.418572	-57.244613	105.400	-0.050	0.370	1.230	105.350	-1.000	1.800																			1580039173.0	1.67	3.09
26/01/2020 11:46:14	26012020	260120	114614	105.520	12.418572	-57.244603	105.540	0.050	0.090	0.700	105.550	-1.100	1.300																			1580039174.0	1.93	3.57
26/01/2020 11:46:15	26012020	260120	114615	105.600	12.418570	-57.244593	105.520	0.220	-0.390	0.260	105.600	-1.600	0.800																			1580039175.0	2.28	4.22
26/01/2020 11:46:16	26012020	260120	114616	105.560	12.418568	-57.244582	105.450	0.370	-0.820	0.010	105.540	-2.000	0.500																			1580039176.0	2.52	4.67
26/01/2020 11:46:17	26012020	260120	114617	105.520	12.418567	-57.244570	105.480	0.370	-0.860	-0.120	105.520	-2.300	0.300																			1580039177.0	2.51	4.65
26/01/2020 11:46:18	26012020	260120	114618	105.610	12.418563	-57.244560	105.650	0.210	-0.430	-0.140	105.650	-2.000	0.200																			1580039178.0	2.18	4.04
26/01/2020 11:46:19	26012020	260120	114619	105.800	12.418560	-57.244552	105.840	-0.010	0.150	-0.030	105.840	-1.400	0.300																			1580039179.0	1.82	3.37
26/01/2020 11:46:20	26012020	260120	114620	106.010	12.418557	-57.244543	106.050	-0.180	0.410	0.190	106.050	-1.000	0.500																			1580039180.0	1.86	3.44
26/01/2020 11:46:21	26012020	260120	114621	106.180	12.418552	-57.244535	106.180	-0.200	0.210	0.470	106.210	-1.000	0.700																			1580039181.0	2.30	4.26
26/01/2020 11:46:22	26012020	260120	114622	106.290	12.418545	-57.244523	106.300	-0.160	-0.110	0.810	106.300	-1.400	1.000																			1580039182.0	2.79	5.17
26/01/2020 11:46:23	26012020	260120	114623	106.410	12.418538	-57.244512	106.460	-0.210	-0.140	1.210	106.440	-1.500	1.400																			1580039183.0	2.76	5.11
26/01/2020 11:46:24	26012020	260120	114624	106.570	12.418532	-57.244503	106.630	-0.330	0.070	1.490	106.600	-1.400	1.800																			1580039184.0	2.39	4.43
26/01/2020 11:46:25	26012020	260120	114625	106.750	12.418525	-57.244495	106.820	-0.340	0.180	1.500	106.790	-1.200	1.900																			1580039185.0	2.09	3.87
26/01/2020 11:46:26	26012020	260120	114626	106.940	12.418520	-57.244485	106.980	-0.140	-0.040	1.340	106.970	-1.300	1.800																			1580039186.0	2.22	4.11
26/01/2020 11:46:27	26012020	260120	114627	107.080	12.418517	-57.244475	107.100	0.180	-0.380	1.140	107.100	-1.600	1.600																			1580039187.0	2.60	4.82
26/01/2020 11:46:28	26012020	260120	114628	107.190	12.418512	-57.244462	107.210	0.390	-0.480	0.780	107.220	-1.900	1.300																			1580039188.0	2.70	5.00
26/01/2020 11:46:29	26012020	260120	114629	107.320	12.418510	-57.244452	107.380	0.370	-0.240	0.270	107.350	-1.700	0.900																			1580039189.0	2.40	4.44
26/01/2020 11:46:30	26012020	260120	114630	107.540	12.418508	-57.244442	107.540	0.250	0.020	-0.160	107.570	-1.400	0.400																			1580039190.0	2.11	3.91
26/01/2020 11:46:31	26012020	260120	114631	107.670	12.418507	-57.244432	107.610	0.190	-0.000	-0.350	107.680	-1.300	0.100																			1580039191.0	2.20	4.07
26/01/2020 11:46:32	26012020	260120	114632	107.720	12.418505	-57.244418	107.650	0.180	-0.250	-0.320	107.720	-1.500	0.000																			1580039192.0	2.60	4.82
26/01/2020 11:46:33	26012020	260120	114633	107.750	12.418500	-57.244407	107.720	0.100	-0.410	-0.030	107.770	-1.700	0.200																			1580039193.0	2.85	5.28
26/01/2020 11:46:34	26012020	260120	114634	107.840	12.418493	-57.244395	107.830	-0.070	-0.350	0.450	107.850	-1.800	0.600																			1580039194.0	2.80	5.19
26/01/2020 11:46:35	26012020	260120	114635	107.930	12.418485	-57.244385	107.930	-0.220	-0.140	0.960	107.950	-1.600	1.100																			1580039195.0	2.69	4.98
26/01/2020 11:46:36	26012020	260120	114636	108.030	12.418477	-57.244375	108.060	-0.270	0.130	1.380	108.060	-1.300	1.600																			1580039196.0	2.66	4.93
26/01/2020 11:46:37	26012020	260120	114637	108.170	12.418470	-57.244365	108.240	-0.250	0.350	1.620	108.210	-1.100	1.900																			1580039197.0	2.63	4.87
26/01/2020 11:46:38	26012020	260120	114638	108.390	12.418463	-57.244355	108.510	-0.250	0.400	1.610	108.440	-1.000	2.000																			1580039198.0	2.57	4.76
26/01/2020 11:46:39	26012020	260120	114639	108.700	12.418457	-57.244345	108.840	-0.260	0.200	1.340	108.770	-1.100	1.800																			1580039199.0	2.56	4.74
26/01/2020 11:46:40	26012020	260120	114640	108.990	12.418452	-57.244333	109.000	-0.160	-0.250	0.980	109.020	-1.400	1.500																			1580039200.0	2.73	5.06
26/01/2020 11:46:41	26012020	260120	114641	109.050	12.418448	-57.244320	108.980	0.080	-0.660	0.690	109.040	-1.900	1.200																			1580039201.0	2.98	5.52
26/01/2020 11:46:42	26012020	260120	114642	109.000	12.418443	-57.244307	108.940	0.290	-0.690	0.420	109.000	-2.100	0.900																			1580039202.0	2.95	5.46
26/01/2020 11:46:43	26012020	260120	114643	109.010	12.418440	-57.244295	109.030	0.360	-0.390	0.080	109.030	-1.900	0.600																			1580039203.0	2.66	4.93
26/01/2020 11:46:44	26012020	260120	114644	109.160	12.418437	-57.244283	109.190	0.280	-0.030	-0.290	109.200	-1.500	0.200																			1580039204.0	2.44	4.52
26/01/2020 11:46:45	26012020	260120	114645	109.350	12.418435	-57.244272	109.380	0.140	0.190	-0.510	109.390	-1.200	-0.100																			1580039205.0	2.51	4.65
26/01/2020 11:46:46	26012020	260120	114646	109.520	12.418432	-57.244260	109.500	0.040	0.170	-0.370	109.540	-1.200	-0.100																			1580039206.0	2.67	4.94
26/01/2020 11:46:47	26012020	260120	114647	109.590	12.418425	-57.244247	109.530	0.030	-0.020	0.100	109.590	-1.300	0.300																			1580039207.0	2.97	5.50
26/01/2020 11:46:48	26012020	260120	114648	109.600	12.418415	-57.244235	109.570	0.030	-0.180	0.680	109.610	-1.500	0.800																			1580039208.0	3.21	5.94
26/01/2020 11:46:49	26012020	260120	114649	109.670	12.418407	-57.244223	109.740	-0.060	-0.150	1.130	109.700	-1.500	1.400																			1580039209.0	3.14	5.82
26/01/2020 11:46:50	26012020	260120	114650	109.900	12.418398	-57.244212	110.010	-0.230	-0.030	1.400	109.950	-1.400	1.700																			1580039210.0	2.86	5.30
26/01/2020 11:46:51	26012020	260120	114651	110.150	12.418392	-57.244202	110.180	-0.350	-0.050	1.630	110.180	-1.400	1.900																			1580039211.0	2.79	5.17
26/01/2020 11:46:52	26012020	260120	114652	110.210	12.418382	-57.244190	110.140	-0.300	-0.230	1.850	110.200	-1.500	2.200																			1580039212.0	3.02	5.59
26/01/2020 11:46:53	26012020	260120	114653	110.140	12.418373	-57.244178	110.100	-0.120	-0.410	1.800	110.130	-1.700	2.200																			1580039213.0	3.21	5.94
26/01/2020 11:46:54	26012020	260120	114654	110.140	12.418367	-57.244165	110.170	0.060	-0.410	1.370	110.160	-1.800	2.000																			1580039214.0	3.16	5.85
26/01/2020 11:46:55	26012020	260120	114655	110.240	12.418363	-57.244152	110.310	0.170	-0.150	0.650	110.270	-1.600	1.300																			1580039215.0	2.97	5.50
26/01/2020 11:46:56	26012020	260120	114656	110.440	12.418362	-57.244138	110.410	0.170	0.200	-0.130	110.460	-1.300	0.600																			1580039216.0	2.79	5.17
26/01/2020 11:46:57	26012020	260120	114657	110.480	12.418360	-57.244125	110.370	0.140	0.350	-0.730	110.480	-1.000	-0.100																			1580039217.0	2.77	5.13
26/01/2020 11:46:58	26012020	260120	114658	110.430	12.418357	-57.244112	110.320	0.170	0.130	-1.100	110.420	-1.100	-0.600																			1580039218.0	3.02	5.59
26/01/2020 11:46:59	26012020	260120	114659	110.420	12.418353	-57.244097	110.350	0.190	-0.170	-1.120	110.420	-1.400	-0.800																			1580039219.0	3.30	6.11
26/01/2020 11:47:00	26012020	260120	114700	110.470	12.418347	-57.244082	110.430	0.080	-0.270	-0.770	110.490	-1.600	-0.600	1015.30	26.00	26.00	18.40	18.40	180.00	62.00	62.00	377.00	26.40	342.00	8.80	86.00	7.60	15399	3064.00	27.40	27.40	1580039220.0	3.29	6.09
26/01/2020 11:47:01	26012020	260120	114701	110.520	12.418338	-57.244070	110.440	-0.130	-0.200	-0.120	110.510	-1.600	-0.000																			1580039221.0	3.09	5.72
26/01/2020 11:47:02	26012020	260120	114702	110.450	12.418327	-57.244060	110.310	-0.280	-0.210	0.760	110.420	-1.500	0.800																			1580039222.0	3.12	5.78
26/01/2020 11:47:03	26012020	260120	114703	110.260	12.418315	-57.244050	110.080	-0.220	-0.420	1.710	110.210	-1.700	1.700																			1580039223.0	3.44	6.37
26/01/2020 11:47:04	26012020	260120	114704	109.970	12.418303	-57.244037	109.760	-0.020	-0.620	2.470	109.900	-1.900	2.600																			1580039224.0	3.74	6.93
26/01/2020 11:47:05	26012020	260120	114705	109.690	12.418292	-57.244023	109.430	0.100	-0.520	2.810	109.620	-2.000	3.100																			1580039225.0	3.67	6.80
26/01/2020 11:47:06	26012020	260120	114706	109.340	12.418283	-57.244012	109.280	0.020	-0.060	2.580	109.310	-1.600	3.100																			1580039226.0	3.25	6.02
26/01/2020 11:47:07	26012020	260120	114707	109.320	12.418278	-57.243998	109.380	-0.190	0.450	1.890	109.350	-1.100	2.600																			1580039227.0	2.84	5.26
26/01/2020 11:47:08	26012020	260120	114708	109.490	12.418277	-57.243985	109.520	-0.280	0.590	0.970	109.530	-0.800	1.700																			1580039228.0	2.84	5.26
26/01/2020 11:47:09	26012020	260120	114709	109.630	12.418273	-57.243970	109.560	-0.080	0.250	0.090	109.640	-0.900	0.800																			1580039229.0	3.23	5.98
26/01/2020 11:47:10	26012020	260120	114710	109.610	12.418270	-57.243953	109.470	0.310	-0.260	-0.500	109.590	-1.400	0.100																			1580039230.0	3.67	6.80
26/01/2020 11:47:11	26012020	260120	114711	109.520	12.418265	-57.243937	109.410	0.560	-0.450	-0.850	109.510	-1.800	-0.300																			1580039231.0	3.71	6.87
26/01/2020 11:47:12	26012020	260120	114712	109.520	12.418262	-57.243922	109.480	0.440	-0.140	-0.910	109.540	-1.700	-0.500																			1580039232.0	3.21	5.94
26/01/2020 11:47:13	26012020	260120	114713	109.600	12.418257	-57.243910	109.530	0.050	0.200	-0.620	109.610	-1.300	-0.400																			1580039233.0	2.69	4.98
26/01/2020 11:47:14	26012020	260120	114714	109.610	12.418248	-57.243900	109.500	-0.300	0.180	0.020	109.590	-1.100	0.100																			1580039234.0	2.80	5.19
26/01/2020 11:47:15	26012020	260120	114715	109.510	12.418238	-57.243887	109.390	-0.390	-0.240	0.910	109.480	-1.400	0.900																			1580039235.0	3.40	6.30
26/01/2020 11:47:16	26012020	260120	114716	109.350	12.418225	-57.243873	109.210	-0.260	-0.720	1.840	109.310	-1.900	1.900																			1580039236.0	3.98	7.37
26/01/2020 11:47:17	26012020	260120	114717	109.110	12.418212	-57.243860	108.960	-0.080	-0.950	2.610	109.060	-2.300	2.700																			1580039237.0	4.12	7.63
26/01/2020 11:47:18	26012020	260120	114718	108.870	12.418200	-57.243845	108.780	0.010	-0.760	2.930	108.830	-2.200	3.200																			1580039238.0	3.87	7.17
26/01/2020 11:47:19	26012020	260120	114719	108.740	12.418192	-57.243832	108.700	-0.010	-0.240	2.670	108.730	-1.800	3.200																			1580039239.0	3.43	6.35
26/01/2020 11:47:20	26012020	260120	114720	108.700	12.418187	-57.243818	108.690	-0.080	0.340	1.980	108.700	-1.200	2.700																			1580039240.0	3.08	5.70
26/01/2020 11:47:21	26012020	260120	114721	108.730	12.418183	-57.243803	108.730	-0.080	0.620	1.000	108.740	-0.800	1.800																			1580039241.0	3.14	5.82
26/01/2020 11:47:22	26012020	260120	114722	108.820	12.418182	-57.243788	108.830	0.010	0.580	-0.110	108.850	-0.700	0.700																			1580039242.0	3.47	6.43
26/01/2020 11:47:23	26012020	260120	114723	108.970	12.418180	-57.243770	108.980	0.150	0.340	-1.090	109.010	-0.900	-0.400																			1580039243.0	3.68	6.82
26/01/2020 11:47:24	26012020	260120	114724	109.130	12.418178	-57.243753	109.060	0.250	0.020	-1.540	109.140	-1.200	-1.000																			1580039244.0	3.68	6.82
26/01/2020 11:47:25	26012020	260120	114725	109.140	12.418173	-57.243737	109.010	0.220	-0.230	-1.310	109.130	-1.500	-1.100																			1580039245.0	3.53	6.54
26/01/2020 11:47:26	26012020	260120	114726	109.060	12.418165	-57.243723	108.950	0.100	-0.360	-0.710	109.050	-1.700	-0.600																			1580039246.0	3.45	6.39
26/01/2020 11:47:27	26012020	260120	114727	109.000	12.418155	-57.243710	108.890	-0.080	-0.390	0.100	108.980	-1.700	0.100																			1580039247.0	3.47	6.43
26/01/2020 11:47:28	26012020	260120	114728	108.880	12.418143	-57.243698	108.720	-0.220	-0.420	1.130	108.840	-1.800	1.100																			1580039248.0	3.58	6.63
26/01/2020 11:47:29	26012020	260120	114729	108.630	12.418130	-57.243687	108.450	-0.250	-0.540	2.160	108.570	-1.800	2.200																			1580039249.0	3.83	7.09
26/01/2020 11:47:30	26012020	260120	114730	108.330	12.418117	-57.243672	108.170	-0.160	-0.650	2.860	108.270	-2.000	3.000																			1580039250.0	4.03	7.46
26/01/2020 11:47:31	26012020	260120	114731	108.050	12.418105	-57.243658	107.910	-0.010	-0.590	3.110	108.000	-2.000	3.400																			1580039251.0	4.00	7.41
26/01/2020 11:47:32	26012020	260120	114732	107.780	12.418097	-57.243642	107.620	0.140	-0.310	2.880	107.720	-1.800	3.400																			1580039252.0	3.79	7.02
26/01/2020 11:47:33	26012020	260120	114733	107.560	12.418090	-57.243627	107.410	0.220	0.100	2.190	107.510	-1.400	2.900																			1580039253.0	3.61	6.69
26/01/2020 11:47:34	26012020	260120	114734	107.400	12.418088	-57.243610	107.420	0.180	0.500	1.130	107.410	-1.000	2.000																			1580039254.0	3.58	6.63
26/01/2020 11:47:35	26012020	260120	114735	107.550	12.418088	-57.243592	107.650	0.040	0.720	-0.020	107.600	-0.700	0.800																			1580039255.0	3.60	6.67
26/01/2020 11:47:36	26012020	260120	114736	107.870	12.418087	-57.243575	107.980	-0.080	0.680	-0.900	107.940	-0.600	-0.200																			1580039256.0	3.58	6.63
26/01/2020 11:47:37	26012020	260120	114737	108.200	12.418083	-57.243558	108.260	-0.120	0.400	-1.330	108.250	-0.800	-0.800																			1580039257.0	3.57	6.61
26/01/2020 11:47:38	26012020	260120	114738	108.420	12.418078	-57.243543	108.370	-0.090	-0.110	-1.150	108.440	-1.200	-0.900																			1580039258.0	3.63	6.72
26/01/2020 11:47:39	26012020	260120	114739	108.400	12.418068	-57.243527	108.230	-0.010	-0.730	-0.350	108.360	-1.900	-0.300																			1580039259.0	3.86	7.15
26/01/2020 11:47:40	26012020	260120	114740	108.140	12.418057	-57.243512	107.910	0.060	-1.150	0.780	108.070	-2.400	0.700																			1580039260.0	4.18	7.74
26/01/2020 11:47:41	26012020	260120	114741	107.770	12.418043	-57.243497	107.540	0.090	-1.160	1.880	107.690	-2.600	1.900																			1580039261.0	4.21	7.80
26/01/2020 11:47:42	26012020	260120	114742	107.380	12.418032	-57.243482	107.190	0.050	-0.790	2.640	107.310	-2.300	2.800																			1580039262.0	4.04	7.48
26/01/2020 11:47:43	26012020	260120	114743	107.120	12.418020	-57.243468	107.000	-0.070	-0.150	2.820	107.070	-1.800	3.200																			1580039263.0	3.79	7.02
26/01/2020 11:47:44	26012020	260120	114744	107.010	12.418013	-57.243453	107.040	-0.220	0.510	2.410	107.030	-1.100	3.000																			1580039264.0	3.51	6.50
26/01/2020 11:47:45	26012020	260120	114745	107.080	12.418008	-57.243438	107.100	-0.290	0.810	1.540	107.100	-0.600	2.300																			1580039265.0	3.47	6.43
26/01/2020 11:47:46	26012020	260120	114746	107.150	12.418003	-57.243420	107.090	-0.170	0.570	0.470	107.160	-0.600	1.300																			1580039266.0	3.84	7.11
26/01/2020 11:47:47	26012020	260120	114747	107.130	12.418002	-57.243400	107.010	0.080	0.050	-0.470	107.120	-1.100	0.300																			1580039267.0	4.31	7.98
26/01/2020 11:47:48	26012020	260120	114748	107.070	12.417998	-57.243380	106.940	0.290	-0.260	-1.090	107.070	-1.500	-0.500																			1580039268.0	4.35	8.06
26/01/2020 11:47:49	26012020	260120	114749	107.030	12.417993	-57.243362	106.850	0.360	-0.240	-1.310	107.010	-1.600	-0.900																			1580039269.0	3.93	7.28
26/01/2020 11:47:50	26012020	260120	114750	106.890	12.417988	-57.243345	106.630	0.300	-0.210	-1.060	106.840	-1.600	-0.800																			1580039270.0	3.59	6.65
26/01/2020 11:47:51	26012020	260120	114751	106.610	12.417982	-57.243330	106.320	0.160	-0.340	-0.380	106.540	-1.600	-0.300																			1580039271.0	3.75	6.95
26/01/2020 11:47:52	26012020	260120	114752	106.280	12.417970	-57.243313	106.040	-0.010	-0.480	0.560	106.220	-1.800	0.600																			1580039272.0	4.12	7.63
26/01/2020 11:47:53	26012020	260120	114753	106.010	12.417958	-57.243297	105.830	-0.180	-0.450	1.570	105.960	-1.800	1.600																			1580039273.0	4.31	7.98
26/01/2020 11:47:54	26012020	260120	114754	105.740	12.417945	-57.243282	105.530	-0.300	-0.260	2.570	105.680	-1.700	2.600																			1580039274.0	4.34	8.04
26/01/2020 11:47:55	26012020	260120	114755	105.460	12.417932	-57.243267	105.230	-0.360	-0.010	3.250	105.390	-1.400	3.400																			1580039275.0	4.28	7.93
26/01/2020 11:47:56	26012020	260120	114756	105.150	12.417922	-57.243250	105.110	-0.300	0.150	3.250	105.130	-1.200	3.700																			1580039276.0	4.10	7.59
26/01/2020 11:47:57	26012020	260120	114757	105.110	12.417913	-57.243233	105.090	-0.090	0.070	2.730	105.110	-1.200	3.400																			1580039277.0	4.05	7.50
26/01/2020 11:47:58	26012020	260120	114758	105.100	12.417908	-57.243213	105.090	0.200	-0.130	1.910	105.110	-1.400	2.700																			1580039278.0	4.26	7.89
26/01/2020 11:47:59	26012020	260120	114759	105.180	12.417905	-57.243193	105.220	0.340	-0.190	0.860	105.220	-1.500	1.700																			1580039279.0	4.37	8.09
26/01/2020 11:48:00	26012020	260120	114800	105.360	12.417903	-57.243173	105.350	0.260	-0.020	-0.150	105.390	-1.400	0.600	1015.30	26.00	26.00	18.40	18.40	190.00	63.00	63.00	376.00	26.40	343.00	9.40	87.00	7.60	15787	3264.00	27.40	27.40	1580039280.0	4.11	7.61
26/01/2020 11:48:01	26012020	260120	114801	105.460	12.417903	-57.243155	105.380	0.080	0.090	-0.870	105.470	-1.300	-0.200																			1580039281.0	3.88	7.19
26/01/2020 11:48:02	26012020	260120	114802	105.440	12.417900	-57.243137	105.270	-0.040	-0.010	-1.090	105.420	-1.300	-0.700																			1580039282.0	3.88	7.19
26/01/2020 11:48:03	26012020	260120	114803	105.250	12.417893	-57.243118	105.010	-0.060	-0.290	-0.880	105.190	-1.500	-0.600																			1580039283.0	4.14	7.67
26/01/2020 11:48:04	26012020	260120	114804	104.960	12.417885	-57.243100	104.730	-0.040	-0.530	-0.360	104.890	-1.800	-0.200																			1580039284.0	4.41	8.17
26/01/2020 11:48:05	26012020	260120	114805	104.670	12.417877	-57.243080	104.470	-0.050	-0.550	0.310	104.610	-1.900	0.400																			1580039285.0	4.49	8.32
26/01/2020 11:48:06	26012020	260120	114806	104.410	12.417865	-57.243063	104.270	-0.080	-0.300	0.930	104.370	-1.800	1.100																			1580039286.0	4.40	8.15
26/01/2020 11:48:07	26012020	260120	114807	104.260	12.417855	-57.243047	104.190	-0.110	0.120	1.380	104.240	-1.400	1.600																			1580039287.0	4.23	7.83
26/01/2020 11:48:08	26012020	260120	114808	104.190	12.417845	-57.243030	104.120	-0.110	0.430	1.670	104.170	-1.000	2.000																			1580039288.0	4.09	7.57
26/01/2020 11:48:09	26012020	260120	114809	104.120	12.417835	-57.243013	104.030	0.010	0.400	1.650	104.100	-0.900	2.100																			1580039289.0	4.11	7.61
26/01/2020 11:48:10	26012020	260120	114810	104.040	12.417828	-57.242993	103.980	0.220	0.010	1.270	104.030	-1.200	1.800																			1580039290.0	4.33	8.02
26/01/2020 11:48:11	26012020	260120	114811	104.010	12.417825	-57.242972	103.890	0.360	-0.420	0.790	103.990	-1.600	1.400																			1580039291.0	4.61	8.54
26/01/2020 11:48:12	26012020	260120	114812	103.840	12.417820	-57.242952	103.610	0.290	-0.510	0.470	103.790	-1.900	0.900																			1580039292.0	4.55	8.43
26/01/2020 11:48:13	26012020	260120	114813	103.460	12.417815	-57.242932	103.140	-0.020	-0.260	0.440	103.370	-1.700	0.800																			1580039293.0	4.12	7.63
26/01/2020 11:48:14	26012020	260120	114814	102.940	12.417810	-57.242915	102.610	-0.320	-0.140	0.610	102.830	-1.500	0.900																			1580039294.0	3.90	7.22
26/01/2020 11:48:15	26012020	260120	114815	102.430	12.417802	-57.242895	102.160	-0.390	-0.360	0.800	102.330	-1.600	1.100																			1580039295.0	4.30	7.96
26/01/2020 11:48:16	26012020	260120	114816	102.000	12.417793	-57.242875	101.780	-0.220	-0.570	1.040	101.920	-1.900	1.300																			1580039296.0	4.83	8.95
26/01/2020 11:48:17	26012020	260120	114817	101.640	12.417783	-57.242853	101.500	-0.030	-0.340	1.160	101.590	-1.800	1.500																			1580039297.0	4.83	8.95
26/01/2020 11:48:18	26012020	260120	114818	101.460	12.417775	-57.242835	101.420	0.030	0.200	1.040	101.450	-1.300	1.500																			1580039298.0	4.33	8.02
26/01/2020 11:48:19	26012020	260120	114819	101.450	12.417770	-57.242817	101.450	0.020	0.600	0.790	101.460	-0.800	1.300																			1580039299.0	3.96	7.33
26/01/2020 11:48:20	26012020	260120	114820	101.500	12.417765	-57.242798	101.500	0.040	0.590	0.600	101.510	-0.700	1.000																			1580039300.0	4.06	7.52
26/01/2020 11:48:21	26012020	260120	114821	101.540	12.417762	-57.242778	101.550	0.130	0.210	0.540	101.550	-0.900	0.900																			1580039301.0	4.37	8.09
26/01/2020 11:48:22	26012020	260120	114822	101.590	12.417757	-57.242757	101.590	0.200	-0.310	0.660	101.590	-1.400	1.000																			1580039302.0	4.62	8.56
26/01/2020 11:48:23	26012020	260120	114823	101.590	12.417750	-57.242737	101.540	0.200	-0.690	1.070	101.570	-1.900	1.300																			1580039303.0	4.66	8.63
26/01/2020 11:48:24	26012020	260120	114824	101.470	12.417742	-57.242717	101.420	0.150	-0.790	1.670	101.440	-2.100	1.800																			1580039304.0	4.58	8.48
26/01/2020 11:48:25	26012020	260120	114825	101.320	12.417733	-57.242697	101.280	0.100	-0.660	2.210	101.290	-2.100	2.400																			1580039305.0	4.48	8.30
26/01/2020 11:48:26	26012020	260120	114826	101.170	12.417725	-57.242678	101.180	0.070	-0.420	2.490	101.160	-1.800	2.800																			1580039306.0	4.43	8.20
26/01/2020 11:48:27	26012020	260120	114827	101.120	12.417717	-57.242658	101.220	0.040	-0.140	2.300	101.140	-1.600	2.800																			1580039307.0	4.45	8.24
26/01/2020 11:48:28	26012020	260120	114828	101.280	12.417713	-57.242638	101.490	-0.080	0.300	1.630	101.350	-1.200	2.300																			1580039308.0	4.38	8.11
26/01/2020 11:48:29	26012020	260120	114829	101.650	12.417712	-57.242618	101.850	-0.260	0.720	0.680	101.730	-0.700	1.400																			1580039309.0	4.12	7.63
26/01/2020 11:48:30	26012020	260120	114830	102.010	12.417710	-57.242598	102.100	-0.330	0.640	-0.210	102.060	-0.600	0.500																			1580039310.0	4.11	7.61
26/01/2020 11:48:31	26012020	260120	114831	102.170	12.417708	-57.242577	102.130	-0.150	-0.130	-0.780	102.180	-1.100	-0.200																			1580039311.0	4.63	8.57
26/01/2020 11:48:32	26012020	260120	114832	102.160	12.417705	-57.242553	102.090	0.100	-0.940	-0.910	102.150	-2.000	-0.500																			1580039312.0	5.29	9.80
26/01/2020 11:48:33	26012020	260120	114833	102.120	12.417698	-57.242528	102.060	0.150	-1.050	-0.710	102.110	-2.400	-0.400																			1580039313.0	5.21	9.65
26/01/2020 11:48:34	26012020	260120	114834	102.080	12.417692	-57.242508	102.000	-0.040	-0.450	-0.320	102.060	-2.100	-0.100																			1580039314.0	4.46	8.26
26/01/2020 11:48:35	26012020	260120	114835	102.000	12.417683	-57.242492	101.900	-0.310	0.270	0.170	101.990	-1.300	0.400																			1580039315.0	3.93	7.28
26/01/2020 11:48:36	26012020	260120	114836	101.850	12.417675	-57.242475	101.740	-0.440	0.570	0.740	101.820	-0.800	0.900																			1580039316.0	4.02	7.45
26/01/2020 11:48:37	26012020	260120	114837	101.680	12.417665	-57.242455	101.510	-0.280	0.290	1.190	101.640	-0.900	1.400																			1580039317.0	4.58	8.48
26/01/2020 11:48:38	26012020	260120	114838	101.390	12.417655	-57.242433	101.300	0.090	-0.230	1.370	101.360	-1.400	1.700																			1580039318.0	5.11	9.46
26/01/2020 11:48:39	26012020	260120	114839	101.220	12.417648	-57.242410	101.180	0.480	-0.530	1.290	101.200	-1.800	1.700																			1580039319.0	5.18	9.59
26/01/2020 11:48:40	26012020	260120	114840	101.160	12.417642	-57.242388	101.150	0.670	-0.370	0.970	101.160	-1.800	1.500																			1580039320.0	4.82	8.93
26/01/2020 11:48:41	26012020	260120	114841	101.140	12.417640	-57.242368	101.080	0.600	0.090	0.550	101.120	-1.400	1.100																			1580039321.0	4.28	7.93
26/01/2020 11:48:42	26012020	260120	114842	101.040	12.417638	-57.242350	100.930	0.340	0.340	0.280	101.010	-1.000	0.700																			1580039322.0	4.04	7.48
26/01/2020 11:48:43	26012020	260120	114843	100.830	12.417635	-57.242330	100.630	0.020	0.090	0.340	100.770	-1.100	0.700																			1580039323.0	4.29	7.95
26/01/2020 11:48:44	26012020	260120	114844	100.480	12.417630	-57.242307	100.220	-0.240	-0.490	0.680	100.390	-1.600	0.900																			1580039324.0	4.81	8.91
26/01/2020 11:48:45	26012020	260120	114845	100.010	12.417622	-57.242283	99.710	-0.370	-1.010	1.300	99.900	-2.200	1.400																			1580039325.0	5.24	9.70
26/01/2020 11:48:46	26012020	260120	114846	99.470	12.417612	-57.242260	99.200	-0.430	-0.990	2.010	99.350	-2.400	2.100																			1580039326.0	5.35	9.91
26/01/2020 11:48:47	26012020	260120	114847	98.990	12.417600	-57.242240	98.840	-0.520	-0.340	2.500	98.920	-2.000	2.700																			1580039327.0	4.98	9.22
26/01/2020 11:48:48	26012020	260120	114848	98.740	12.417592	-57.242222	98.730	-0.560	0.410	2.550	98.720	-1.200	3.000																			1580039328.0	4.47	8.28
26/01/2020 11:48:49	26012020	260120	114849	98.730	12.417583	-57.242202	98.860	-0.420	0.770	2.070	98.760	-0.600	2.700																			1580039329.0	4.36	8.07
26/01/2020 11:48:50	26012020	260120	114850	98.990	12.417580	-57.242180	99.210	-0.080	0.680	1.160	99.060	-0.600	1.900																			1580039330.0	4.61	8.54
26/01/2020 11:48:51	26012020	260120	114851	99.390	12.417578	-57.242158	99.560	0.370	0.340	0.120	99.470	-0.800	0.900																			1580039331.0	4.86	9.00
26/01/2020 11:48:52	26012020	260120	114852	99.720	12.417578	-57.242133	99.750	0.740	-0.060	-0.660	99.760	-1.200	-0.000																			1580039332.0	4.97	9.20
26/01/2020 11:48:53	26012020	260120	114853	99.830	12.417578	-57.242112	99.730	0.880	-0.360	-0.940	99.820	-1.600	-0.500																			1580039333.0	4.87	9.02
26/01/2020 11:48:54	26012020	260120	114854	99.750	12.417578	-57.242088	99.580	0.750	-0.600	-0.720	99.720	-1.800	-0.500																			1580039334.0	4.67	8.65
26/01/2020 11:48:55	26012020	260120	114855	99.580	12.417575	-57.242067	99.400	0.430	-0.820	-0.150	99.530	-2.100	-0.000																			1580039335.0	4.67	8.65
26/01/2020 11:48:56	26012020	260120	114856	99.380	12.417568	-57.242045	99.210	0.060	-0.950	0.730	99.330	-2.200	0.700																			1580039336.0	4.86	9.00
26/01/2020 11:48:57	26012020	260120	114857	99.130	12.417558	-57.242023	98.950	-0.290	-0.850	1.770	99.070	-2.300	1.800																			1580039337.0	5.11	9.46
26/01/2020 11:48:58	26012020	260120	114858	98.860	12.417548	-57.242002	98.740	-0.610	-0.390	2.580	98.800	-1.900	2.700																			1580039338.0	5.22	9.67
26/01/2020 11:48:59	26012020	260120	114859	98.670	12.417537	-57.241980	98.670	-0.890	0.320	2.890	98.650	-1.300	3.200																			1580039339.0	5.00	9.26
26/01/2020 11:49:00	26012020	260120	114900	98.700	12.417527	-57.241960	98.820	-1.010	0.880	2.550	98.740	-0.600	3.100	1015.30	25.90	26.00	18.20	18.30	200.00	62.00	62.00	376.00	26.40	348.00	9.60	86.00	7.30	15707	3141.00	27.40	27.40	1580039340.0	4.68	8.67
26/01/2020 11:49:01	26012020	260120	114901	98.920	12.417520	-57.241940	99.040	-0.810	0.980	1.650	98.970	-0.300	2.400																			1580039341.0	4.56	8.45
26/01/2020 11:49:02	26012020	260120	114902	99.130	12.417517	-57.241917	99.150	-0.240	0.540	0.440	99.160	-0.600	1.300																			1580039342.0	4.89	9.06
26/01/2020 11:49:03	26012020	260120	114903	99.190	12.417518	-57.241892	99.100	0.460	-0.120	-0.740	99.190	-1.200	0.100																			1580039343.0	5.34	9.89
26/01/2020 11:49:04	26012020	260120	114904	99.120	12.417520	-57.241867	98.970	0.980	-0.620	-1.580	99.100	-1.800	-0.900																			1580039344.0	5.48	10.15
26/01/2020 11:49:05	26012020	260120	114905	98.980	12.417522	-57.241842	98.790	1.140	-0.740	-1.910	98.950	-2.100	-1.400																			1580039345.0	5.16	9.56
26/01/2020 11:49:06	26012020	260120	114906	98.780	12.417522	-57.241820	98.530	0.930	-0.550	-1.650	98.720	-2.000	-1.400																			1580039346.0	4.72	8.74
26/01/2020 11:49:07	26012020	260120	114907	98.460	12.417517	-57.241798	98.180	0.460	-0.310	-0.760	98.380	-1.700	-0.800																			1580039347.0	4.53	8.39
26/01/2020 11:49:08	26012020	260120	114908	98.060	12.417508	-57.241777	97.790	-0.090	-0.130	0.590	97.980	-1.500	0.400																			1580039348.0	4.74	8.78
26/01/2020 11:49:09	26012020	260120	114909	97.650	12.417497	-57.241757	97.430	-0.510	-0.140	2.000	97.560	-1.400	1.900																			1580039349.0	5.16	9.56
26/01/2020 11:49:10	26012020	260120	114910	97.280	12.417483	-57.241733	97.160	-0.680	-0.320	3.090	97.220	-1.600	3.100																			1580039350.0	5.56	10.30
26/01/2020 11:49:11	26012020	260120	114911	97.030	12.417472	-57.241710	96.970	-0.640	-0.380	3.620	96.990	-1.700	3.900																			1580039351.0	5.71	10.57
26/01/2020 11:49:12	26012020	260120	114912	96.840	12.417462	-57.241687	96.760	-0.550	-0.140	3.550	96.800	-1.600	4.000																			1580039352.0	5.40	10.00
26/01/2020 11:49:13	26012020	260120	114913	96.600	12.417455	-57.241663	96.460	-0.430	0.220	3.020	96.540	-1.200	3.700																			1580039353.0	4.93	9.13
26/01/2020 11:49:14	26012020	260120	114914	96.270	12.417452	-57.241642	96.100	-0.220	0.350	2.050	96.200	-1.000	2.900																			1580039354.0	4.78	8.85
26/01/2020 11:49:15	26012020	260120	114915	95.970	12.417452	-57.241618	95.850	0.090	0.180	0.690	95.930	-1.100	1.600																			1580039355.0	5.03	9.32
26/01/2020 11:49:16	26012020	260120	114916	95.820	12.417455	-57.241593	95.750	0.400	-0.070	-0.760	95.820	-1.300	0.200																			1580039356.0	5.38	9.96
26/01/2020 11:49:17	26012020	260120	114917	95.800	12.417460	-57.241568	95.680	0.610	-0.170	-1.870	95.780	-1.500	-1.100																			1580039357.0	5.39	9.98
26/01/2020 11:49:18	26012020	260120	114918	95.690	12.417463	-57.241543	95.480	0.660	-0.120	-2.250	95.640	-1.500	-1.800																			1580039358.0	5.06	9.37
26/01/2020 11:49:19	26012020	260120	114919	95.400	12.417463	-57.241522	95.170	0.550	-0.200	-1.890	95.330	-1.500	-1.700																			1580039359.0	4.80	8.89
26/01/2020 11:49:20	26012020	260120	114920	95.050	12.417458	-57.241498	94.840	0.380	-0.510	-0.950	94.970	-1.700	-1.000																			1580039360.0	5.06	9.37
26/01/2020 11:49:21	26012020	260120	114921	94.700	12.417452	-57.241473	94.560	0.150	-0.680	0.310	94.640	-2.000	0.200																			1580039361.0	5.48	10.15
26/01/2020 11:49:22	26012020	260120	114922	94.410	12.417442	-57.241448	94.340	-0.130	-0.420	1.570	94.360	-1.900	1.500																			1580039362.0	5.45	10.09
26/01/2020 11:49:23	26012020	260120	114923	94.180	12.417432	-57.241427	94.180	-0.410	0.000	2.620	94.140	-1.500	2.600																			1580039363.0	5.17	9.57
26/01/2020 11:49:24	26012020	260120	114924	94.060	12.417422	-57.241405	94.120	-0.590	0.210	3.260	94.050	-1.200	3.400																			1580039364.0	5.11	9.46
26/01/2020 11:49:25	26012020	260120	114925	94.010	12.417412	-57.241382	94.020	-0.610	0.080	3.370	93.990	-1.200	3.800																			1580039365.0	5.27	9.76
26/01/2020 11:49:26	26012020	260120	114926	93.860	12.417407	-57.241357	93.860	-0.470	-0.150	2.990	93.830	-1.400	3.600																			1580039366.0	5.42	10.04
26/01/2020 11:49:27	26012020	260120	114927	93.710	12.417403	-57.241332	93.740	-0.240	-0.200	2.280	93.690	-1.500	3.000																			1580039367.0	5.39	9.98
26/01/2020 11:49:28	26012020	260120	114928	93.630	12.417403	-57.241307	93.680	0.040	-0.100	1.330	93.630	-1.500	2.100																			1580039368.0	5.14	9.52
26/01/2020 11:49:29	26012020	260120	114929	93.630	12.417407	-57.241283	93.720	0.330	-0.100	0.250	93.650	-1.400	1.100																			1580039369.0	5.11	9.46
26/01/2020 11:49:30	26012020	260120	114930	93.710	12.417410	-57.241258	93.810	0.560	-0.150	-0.650	93.740	-1.500	0.100																			1580039370.0	5.30	9.82
26/01/2020 11:49:31	26012020	260120	114931	93.860	12.417412	-57.241233	93.970	0.580	-0.010	-1.130	93.890	-1.400	-0.600																			1580039371.0	5.24	9.70
26/01/2020 11:49:32	26012020	260120	114932	94.020	12.417413	-57.241210	94.090	0.410	0.230	-1.160	94.040	-1.200	-0.800																			1580039372.0	4.86	9.00
26/01/2020 11:49:33	26012020	260120	114933	94.100	12.417413	-57.241188	94.130	0.230	0.110	-0.800	94.100	-1.100	-0.600																			1580039373.0	4.76	8.82
26/01/2020 11:49:34	26012020	260120	114934	94.070	12.417410	-57.241163	94.060	0.160	-0.400	-0.090	94.050	-1.500	-0.000																			1580039374.0	5.23	9.69
26/01/2020 11:49:35	26012020	260120	114935	93.940	12.417403	-57.241137	93.900	0.080	-0.830	0.880	93.900	-2.000	0.900																			1580039375.0	5.70	10.56
26/01/2020 11:49:36	26012020	260120	114936	93.730	12.417397	-57.241112	93.700	-0.140	-0.840	1.840	93.690	-2.200	1.900																			1580039376.0	5.69	10.54
26/01/2020 11:49:37	26012020	260120	114937	93.520	12.417388	-57.241088	93.490	-0.450	-0.490	2.490	93.470	-2.000	2.700																			1580039377.0	5.39	9.98
26/01/2020 11:49:38	26012020	260120	114938	93.290	12.417380	-57.241065	93.290	-0.680	-0.040	2.760	93.240	-1.500	3.100																			1580039378.0	5.17	9.57
26/01/2020 11:49:39	26012020	260120	114939	93.130	12.417375	-57.241042	93.230	-0.710	0.340	2.490	93.120	-1.100	3.000																			1580039379.0	5.14	9.52
26/01/2020 11:49:40	26012020	260120	114940	93.180	12.417372	-57.241017	93.370	-0.540	0.550	1.730	93.210	-0.800	2.500																			1580039380.0	5.12	9.48
26/01/2020 11:49:41	26012020	260120	114941	93.380	12.417370	-57.240993	93.570	-0.210	0.540	0.700	93.430	-0.800	1.500																			1580039381.0	5.15	9.54
26/01/2020 11:49:42	26012020	260120	114942	93.620	12.417372	-57.240968	93.740	0.230	0.210	-0.390	93.660	-0.900	0.400																			1580039382.0	5.29	9.80
26/01/2020 11:49:43	26012020	260120	114943	93.760	12.417377	-57.240942	93.770	0.690	-0.370	-1.170	93.770	-1.400	-0.500																			1580039383.0	5.59	10.35
26/01/2020 11:49:44	26012020	260120	114944	93.740	12.417380	-57.240915	93.700	0.980	-0.830	-1.380	93.730	-2.000	-1.000																			1580039384.0	5.82	10.78
26/01/2020 11:49:45	26012020	260120	114945	93.690	12.417382	-57.240888	93.650	0.890	-0.790	-1.040	93.680	-2.200	-0.800																			1580039385.0	5.58	10.33
26/01/2020 11:49:46	26012020	260120	114946	93.570	12.417380	-57.240863	93.490	0.390	-0.320	-0.220	93.540	-1.900	-0.200																			1580039386.0	5.05	9.35
26/01/2020 11:49:47	26012020	260120	114947	93.380	12.417375	-57.240842	93.330	-0.260	0.100	0.770	93.350	-1.300	0.800																			1580039387.0	4.80	8.89
26/01/2020 11:49:48	26012020	260120	114948	93.240	12.417368	-57.240818	93.240	-0.700	0.100	1.770	93.210	-1.200	1.800																			1580039388.0	5.15	9.54
26/01/2020 11:49:49	26012020	260120	114949	93.160	12.417358	-57.240793	93.200	-0.800	-0.130	2.530	93.140	-1.400	2.700																			1580039389.0	5.76	10.67
26/01/2020 11:49:50	26012020	260120	114950	93.080	12.417350	-57.240767	93.160	-0.660	-0.270	2.810	93.070	-1.500	3.100																			1580039390.0	5.93	10.98
26/01/2020 11:49:51	26012020	260120	114951	93.050	12.417343	-57.240740	93.160	-0.410	-0.250	2.530	93.050	-1.600	3.100																			1580039391.0	5.68	10.52
26/01/2020 11:49:52	26012020	260120	114952	93.100	12.417340	-57.240715	93.230	-0.140	-0.080	1.800	93.120	-1.500	2.500																			1580039392.0	5.39	9.98
26/01/2020 11:49:53	26012020	260120	114953	93.210	12.417342	-57.240690	93.320	0.100	0.130	0.790	93.230	-1.300	1.600																			1580039393.0	5.24	9.70
26/01/2020 11:49:54	26012020	260120	114954	93.300	12.417345	-57.240667	93.370	0.330	0.210	-0.200	93.320	-1.100	0.600																			1580039394.0	5.25	9.72
26/01/2020 11:49:55	26012020	260120	114955	93.370	12.417350	-57.240640	93.420	0.500	-0.030	-0.940	93.380	-1.200	-0.300																			1580039395.0	5.44	10.07
26/01/2020 11:49:56	26012020	260120	114956	93.470	12.417352	-57.240613	93.530	0.540	-0.360	-1.250	93.490	-1.600	-0.800																			1580039396.0	5.69	10.54
26/01/2020 11:49:57	26012020	260120	114957	93.570	12.417353	-57.240587	93.570	0.400	-0.460	-1.060	93.570	-1.800	-0.800																			1580039397.0	5.63	10.43
26/01/2020 11:49:58	26012020	260120	114958	93.520	12.417350	-57.240562	93.430	0.140	-0.280	-0.430	93.490	-1.700	-0.300																			1580039398.0	5.34	9.89
26/01/2020 11:49:59	26012020	260120	114959	93.310	12.417347	-57.240538	93.180	-0.130	-0.040	0.410	93.250	-1.400	0.500																			1580039399.0	5.18	9.59
26/01/2020 11:50:00	26012020	260120	115000	93.060	12.417340	-57.240513	93.010	-0.320	-0.010	1.170	93.020	-1.300	1.300	1015.30	26.00	26.00	18.30	18.40	198.00	62.00	62.00	376.00	26.40	354.00	9.80	86.00	7.10	16267	3210.00	27.40	27.40	1580039400.0	5.28	9.78
26/01/2020 11:50:01	26012020	260120	115001	92.920	12.417333	-57.240488	92.940	-0.370	-0.200	1.660	92.910	-1.400	1.900																			1580039401.0	5.58	10.33
26/01/2020 11:50:02	26012020	260120	115002	92.860	12.417328	-57.240462	92.860	-0.310	-0.310	1.910	92.840	-1.600	2.200																			1580039402.0	5.79	10.72
26/01/2020 11:50:03	26012020	260120	115003	92.780	12.417323	-57.240435	92.720	-0.270	-0.140	1.840	92.760	-1.600	2.300																			1580039403.0	5.59	10.35
26/01/2020 11:50:04	26012020	260120	115004	92.600	12.417320	-57.240412	92.540	-0.230	0.030	1.470	92.560	-1.300	2.000																			1580039404.0	5.26	9.74
26/01/2020 11:50:05	26012020	260120	115005	92.430	12.417320	-57.240385	92.420	-0.070	-0.090	0.970	92.410	-1.300	1.600																			1580039405.0	5.33	9.87
26/01/2020 11:50:06	26012020	260120	115006	92.380	12.417320	-57.240358	92.420	0.200	-0.390	0.370	92.390	-1.600	1.000																			1580039406.0	5.74	10.63
26/01/2020 11:50:07	26012020	260120	115007	92.430	12.417322	-57.240330	92.460	0.360	-0.420	-0.100	92.440	-1.800	0.400																			1580039407.0	5.90	10.93
26/01/2020 11:50:08	26012020	260120	115008	92.430	12.417323	-57.240305	92.420	0.280	-0.070	-0.220	92.430	-1.600	0.200																			1580039408.0	5.53	10.24
26/01/2020 11:50:09	26012020	260120	115009	92.390	12.417322	-57.240280	92.350	0.060	0.260	-0.020	92.380	-1.200	0.300																			1580039409.0	5.10	9.45
26/01/2020 11:50:10	26012020	260120	115010	92.310	12.417320	-57.240255	92.280	-0.120	0.230	0.340	92.290	-1.000	0.600																			1580039410.0	5.22	9.67
26/01/2020 11:50:11	26012020	260120	115011	92.250	12.417317	-57.240230	92.260	-0.130	-0.130	0.610	92.240	-1.300	0.900																			1580039411.0	5.62	10.41
26/01/2020 11:50:12	26012020	260120	115012	92.230	12.417313	-57.240202	92.220	0.000	-0.410	0.860	92.220	-1.700	1.100																			1580039412.0	5.89	10.91
26/01/2020 11:50:13	26012020	260120	115013	92.150	12.417312	-57.240175	92.130	0.070	-0.340	1.160	92.130	-1.700	1.400																			1580039413.0	5.75	10.65
26/01/2020 11:50:14	26012020	260120	115014	92.090	12.417308	-57.240150	92.150	-0.020	-0.080	1.350	92.100	-1.500	1.700																			1580039414.0	5.37	9.95
26/01/2020 11:50:15	26012020	260120	115015	92.140	12.417305	-57.240125	92.220	-0.150	0.050	1.330	92.150	-1.300	1.700																			1580039415.0	5.22	9.67
26/01/2020 11:50:16	26012020	260120	115016	92.220	12.417303	-57.240100	92.260	-0.100	-0.150	1.180	92.230	-1.400	1.600																			1580039416.0	5.43	10.06
26/01/2020 11:50:17	26012020	260120	115017	92.240	12.417302	-57.240072	92.240	0.110	-0.470	0.930	92.240	-1.700	1.400																			1580039417.0	5.83	10.80
26/01/2020 11:50:18	26012020	260120	115018	92.190	12.417302	-57.240043	92.140	0.280	-0.490	0.640	92.170	-1.900	1.100																			1580039418.0	5.94	11.00
26/01/2020 11:50:19	26012020	260120	115019	92.100	12.417302	-57.240017	92.090	0.260	-0.200	0.390	92.090	-1.700	0.900																			1580039419.0	5.61	10.39
26/01/2020 11:50:20	26012020	260120	115020	92.130	12.417303	-57.239992	92.220	0.110	0.030	0.180	92.160	-1.400	0.700																			1580039420.0	5.35	9.91
26/01/2020 11:50:21	26012020	260120	115021	92.320	12.417303	-57.239967	92.430	-0.070	-0.000	0.020	92.360	-1.300	0.500																			1580039421.0	5.51	10.20
26/01/2020 11:50:22	26012020	260120	115022	92.490	12.417303	-57.239938	92.530	-0.230	-0.130	0.150	92.520	-1.400	0.400																			1580039422.0	5.78	10.70
26/01/2020 11:50:23	26012020	260120	115023	92.520	12.417300	-57.239912	92.520	-0.390	-0.090	0.630	92.510	-1.500	0.800																			1580039423.0	5.84	10.82
26/01/2020 11:50:24	26012020	260120	115024	92.480	12.417293	-57.239885	92.480	-0.510	0.060	1.150	92.470	-1.300	1.300																			1580039424.0	5.64	10.45
26/01/2020 11:50:25	26012020	260120	115025	92.410	12.417288	-57.239860	92.410	-0.420	0.030	1.410	92.400	-1.300	1.700																			1580039425.0	5.55	10.28
26/01/2020 11:50:26	26012020	260120	115026	92.330	12.417285	-57.239832	92.350	-0.080	-0.150	1.280	92.320	-1.400	1.800																			1580039426.0	5.75	10.65
26/01/2020 11:50:27	26012020	260120	115027	92.320	12.417283	-57.239805	92.430	0.350	-0.300	0.870	92.340	-1.600	1.400																			1580039427.0	5.84	10.82
26/01/2020 11:50:28	26012020	260120	115028	92.470	12.417285	-57.239777	92.620	0.650	-0.330	0.350	92.520	-1.700	0.900																			1580039428.0	5.85	10.83
26/01/2020 11:50:29	26012020	260120	115029	92.720	12.417287	-57.239750	92.880	0.620	-0.120	-0.120	92.770	-1.600	0.400																			1580039429.0	5.73	10.61
26/01/2020 11:50:30	26012020	260120	115030	92.970	12.417288	-57.239725	93.060	0.340	0.130	-0.250	93.010	-1.300	0.100																			1580039430.0	5.41	10.02
26/01/2020 11:50:31	26012020	260120	115031	93.090	12.417288	-57.239700	93.090	0.040	0.120	-0.040	93.090	-1.200	0.200																			1580039431.0	5.36	9.93
26/01/2020 11:50:32	26012020	260120	115032	93.050	12.417287	-57.239672	93.000	-0.120	-0.230	0.370	93.030	-1.400	0.600																			1580039432.0	5.67	10.50
26/01/2020 11:50:33	26012020	260120	115033	92.920	12.417283	-57.239643	92.840	-0.150	-0.660	0.880	92.880	-1.800	1.000																			1580039433.0	6.07	11.24
26/01/2020 11:50:34	26012020	260120	115034	92.710	12.417278	-57.239615	92.610	-0.190	-0.830	1.400	92.650	-2.100	1.600																			1580039434.0	6.23	11.54
26/01/2020 11:50:35	26012020	260120	115035	92.470	12.417275	-57.239587	92.430	-0.280	-0.620	1.690	92.430	-2.100	2.000																			1580039435.0	6.09	11.28
26/01/2020 11:50:36	26012020	260120	115036	92.360	12.417270	-57.239560	92.430	-0.390	-0.140	1.640	92.360	-1.700	2.100																			1580039436.0	5.83	10.80
26/01/2020 11:50:37	26012020	260120	115037	92.420	12.417267	-57.239533	92.570	-0.440	0.370	1.320	92.450	-1.100	1.800																			1580039437.0	5.67	10.50
26/01/2020 11:50:38	26012020	260120	115038	92.600	12.417265	-57.239507	92.800	-0.400	0.690	0.740	92.650	-0.700	1.400																			1580039438.0	5.62	10.41
26/01/2020 11:50:39	26012020	260120	115039	92.880	12.417265	-57.239480	93.090	-0.190	0.640	0.010	92.950	-0.600	0.700																			1580039439.0	5.68	10.52
26/01/2020 11:50:40	26012020	260120	115040	93.200	12.417267	-57.239452	93.360	0.180	0.190	-0.520	93.260	-0.900	0.000																			1580039440.0	5.96	11.04
26/01/2020 11:50:41	26012020	260120	115041	93.440	12.417268	-57.239422	93.510	0.560	-0.420	-0.730	93.480	-1.500	-0.300																			1580039441.0	6.28	11.63
26/01/2020 11:50:42	26012020	260120	115042	93.520	12.417268	-57.239392	93.470	0.720	-0.770	-0.620	93.510	-2.000	-0.300																			1580039442.0	6.33	11.72
26/01/2020 11:50:43	26012020	260120	115043	93.400	12.417268	-57.239363	93.310	0.570	-0.660	-0.150	93.360	-2.100	0.000																			1580039443.0	6.01	11.13
26/01/2020 11:50:44	26012020	260120	115044	93.230	12.417267	-57.239337	93.210	0.250	-0.350	0.460	93.210	-1.800	0.600																			1580039444.0	5.66	10.48
26/01/2020 11:50:45	26012020	260120	115045	93.160	12.417262	-57.239310	93.190	-0.050	-0.110	0.960	93.160	-1.500	1.200																			1580039445.0	5.64	10.45
26/01/2020 11:50:46	26012020	260120	115046	93.120	12.417258	-57.239283	93.110	-0.220	-0.070	1.330	93.090	-1.400	1.600																			1580039446.0	5.90	10.93
26/01/2020 11:50:47	26012020	260120	115047	93.000	12.417253	-57.239253	93.060	-0.320	-0.110	1.520	92.990	-1.400	1.800																			1580039447.0	6.16	11.41
26/01/2020 11:50:48	26012020	260120	115048	93.030	12.417250	-57.239225	93.200	-0.400	-0.120	1.440	93.060	-1.400	1.900																			1580039448.0	6.23	11.54
26/01/2020 11:50:49	26012020	260120	115049	93.210	12.417247	-57.239195	93.370	-0.480	-0.090	1.220	93.250	-1.400	1.700																			1580039449.0	6.14	11.37
26/01/2020 11:50:50	26012020	260120	115050	93.370	12.417243	-57.239167	93.490	-0.480	-0.080	0.860	93.390	-1.400	1.400																			1580039450.0	6.12	11.33
26/01/2020 11:50:51	26012020	260120	115051	93.470	12.417242	-57.239138	93.520	-0.320	-0.040	0.420	93.470	-1.400	1.000																			1580039451.0	6.08	11.26
26/01/2020 11:50:52	26012020	260120	115052	93.450	12.417240	-57.239110	93.450	0.030	-0.100	0.060	93.430	-1.400	0.600																			1580039452.0	6.09	11.28
26/01/2020 11:50:53	26012020	260120	115053	93.410	12.417242	-57.239080	93.460	0.430	-0.240	-0.270	93.410	-1.500	0.200																			1580039453.0	6.24	11.56
26/01/2020 11:50:54	26012020	260120	115054	93.470	12.417242	-57.239050	93.510	0.670	-0.300	-0.440	93.480	-1.600	-0.000																			1580039454.0	6.35	11.76
26/01/2020 11:50:55	26012020	260120	115055	93.490	12.417242	-57.239020	93.460	0.620	-0.190	-0.340	93.480	-1.600	-0.000																			1580039455.0	6.26	11.59
26/01/2020 11:50:56	26012020	260120	115056	93.420	12.417242	-57.238992	93.400	0.320	0.090	-0.060	93.410	-1.400	0.200																			1580039456.0	6.06	11.22
26/01/2020 11:50:57	26012020	260120	115057	93.420	12.417240	-57.238963	93.510	-0.070	0.310	0.320	93.440	-1.100	0.500																			1580039457.0	5.87	10.87
26/01/2020 11:50:58	26012020	260120	115058	93.610	12.417237	-57.238937	93.780	-0.350	0.180	0.750	93.660	-1.000	0.900																			1580039458.0	5.93	10.98
26/01/2020 11:50:59	26012020	260120	115059	93.870	12.417232	-57.238907	94.020	-0.440	-0.180	1.180	93.920	-1.400	1.400																			1580039459.0	6.31	11.69
26/01/2020 11:51:00	26012020	260120	115100	94.030	12.417225	-57.238877	94.030	-0.370	-0.530	1.510	94.030	-1.700	1.800	1015.30	26.00	26.10	18.20	18.30	205.00	62.00	62.00	376.00	26.40	355.00	10.10	85.00	7.10	16621	3088.00	27.40	27.40	1580039460.0	6.53	12.09
26/01/2020 11:51:01	26012020	260120	115101	93.860	12.417218	-57.238847	93.680	-0.150	-0.790	1.800	93.770	-2.000	2.100																			1580039461.0	6.54	12.11
26/01/2020 11:51:02	26012020	260120	115102	93.440	12.417215	-57.238815	93.340	0.120	-0.850	1.700	93.370	-2.200	2.200																			1580039462.0	6.58	12.19
26/01/2020 11:51:03	26012020	260120	115103	93.250	12.417213	-57.238785	93.340	0.300	-0.530	1.010	93.260	-2.000	1.700																			1580039463.0	6.46	11.96
26/01/2020 11:51:04	26012020	260120	115104	93.420	12.417215	-57.238755	93.590	0.250	0.120	0.150	93.480	-1.500	0.800																			1580039464.0	6.18	11.45
26/01/2020 11:51:05	26012020	260120	115105	93.650	12.417217	-57.238728	93.780	-0.000	0.680	-0.410	93.700	-0.800	0.100																			1580039465.0	5.86	10.85
26/01/2020 11:51:06	26012020	260120	115106	93.810	12.417218	-57.238700	93.740	-0.220	0.630	-0.540	93.800	-0.600	-0.200																			1580039466.0	5.94	11.00
26/01/2020 11:51:07	26012020	260120	115107	93.700	12.417217	-57.238668	93.620	-0.150	0.020	-0.380	93.670	-1.000	-0.100																			1580039467.0	6.54	12.11
26/01/2020 11:51:08	26012020	260120	115108	93.630	12.417213	-57.238637	93.640	0.150	-0.530	-0.090	93.640	-1.700	0.200																			1580039468.0	7.00	12.96
26/01/2020 11:51:09	26012020	260120	115109	93.690	12.417210	-57.238603	93.730	0.350	-0.600	0.250	93.710	-1.900	0.500																			1580039469.0	6.82	12.63
26/01/2020 11:51:10	26012020	260120	115110	93.770	12.417207	-57.238575	93.820	0.220	-0.280	0.510	93.790	-1.800	0.800																			1580039470.0	6.29	11.65
26/01/2020 11:51:11	26012020	260120	115111	93.870	12.417203	-57.238547	93.930	-0.090	0.070	0.780	93.890	-1.400	1.000																			1580039471.0	5.93	10.98
26/01/2020 11:51:12	26012020	260120	115112	93.940	12.417200	-57.238518	93.980	-0.290	0.180	1.090	93.960	-1.200	1.300																			1580039472.0	5.98	11.07
26/01/2020 11:51:13	26012020	260120	115113	93.970	12.417195	-57.238490	93.990	-0.230	-0.030	1.280	93.980	-1.200	1.600																			1580039473.0	6.26	11.59
26/01/2020 11:51:14	26012020	260120	115114	93.970	12.417192	-57.238458	93.960	0.010	-0.460	1.250	93.970	-1.600	1.700																			1580039474.0	6.63	12.28
26/01/2020 11:51:15	26012020	260120	115115	93.930	12.417190	-57.238425	93.870	0.200	-0.760	1.060	93.910	-2.000	1.500																			1580039475.0	6.88	12.74
26/01/2020 11:51:16	26012020	260120	115116	93.800	12.417188	-57.238393	93.710	0.210	-0.680	0.880	93.770	-2.100	1.300																			1580039476.0	6.78	12.56
26/01/2020 11:51:17	26012020	260120	115117	93.670	12.417187	-57.238363	93.660	0.070	-0.300	0.680	93.660	-1.800	1.100																			1580039477.0	6.46	11.96
26/01/2020 11:51:18	26012020	260120	115118	93.690	12.417185	-57.238333	93.750	-0.080	0.140	0.420	93.710	-1.300	0.900																			1580039478.0	6.27	11.61
26/01/2020 11:51:19	26012020	260120	115119	93.830	12.417183	-57.238303	93.920	-0.170	0.480	0.180	93.860	-1.000	0.600																			1580039479.0	6.26	11.59
26/01/2020 11:51:20	26012020	260120	115120	94.020	12.417182	-57.238273	94.090	-0.220	0.580	0.030	94.050	-0.800	0.400																			1580039480.0	6.33	11.72
26/01/2020 11:51:21	26012020	260120	115121	94.190	12.417180	-57.238243	94.240	-0.190	0.330	0.020	94.220	-0.900	0.400																			1580039481.0	6.43	11.91
26/01/2020 11:51:22	26012020	260120	115122	94.310	12.417177	-57.238212	94.360	0.010	-0.190	0.190	94.330	-1.300	0.500																			1580039482.0	6.69	12.39
26/01/2020 11:51:23	26012020	260120	115123	94.410	12.417173	-57.238180	94.430	0.280	-0.650	0.460	94.420	-1.800	0.700																			1580039483.0	6.91	12.80
26/01/2020 11:51:24	26012020	260120	115124	94.460	12.417170	-57.238148	94.460	0.420	-0.710	0.650	94.460	-2.100	1.000																			1580039484.0	6.80	12.59
26/01/2020 11:51:25	26012020	260120	115125	94.450	12.417168	-57.238117	94.430	0.330	-0.430	0.770	94.440	-1.900	1.100																			1580039485.0	6.37	11.80
26/01/2020 11:51:26	26012020	260120	115126	94.390	12.417165	-57.238088	94.350	0.180	-0.240	0.900	94.370	-1.600	1.200																			1580039486.0	6.19	11.46
26/01/2020 11:51:27	26012020	260120	115127	94.270	12.417163	-57.238057	94.230	0.050	-0.300	1.000	94.250	-1.600	1.300																			1580039487.0	6.51	12.06
26/01/2020 11:51:28	26012020	260120	115128	94.150	12.417162	-57.238025	94.120	-0.090	-0.370	1.040	94.130	-1.700	1.400																			1580039488.0	6.85	12.69
26/01/2020 11:51:29	26012020	260120	115129	94.090	12.417158	-57.237993	94.110	-0.270	-0.220	0.940	94.090	-1.600	1.400																			1580039489.0	6.88	12.74
26/01/2020 11:51:30	26012020	260120	115130	94.140	12.417155	-57.237962	94.240	-0.430	0.070	0.750	94.170	-1.400	1.200																			1580039490.0	6.64	12.30
26/01/2020 11:51:31	26012020	260120	115131	94.320	12.417152	-57.237930	94.460	-0.480	0.270	0.590	94.360	-1.100	1.000																			1580039491.0	6.54	12.11
26/01/2020 11:51:32	26012020	260120	115132	94.540	12.417148	-57.237900	94.690	-0.370	0.290	0.340	94.590	-1.000	0.800																			1580039492.0	6.61	12.24
26/01/2020 11:51:33	26012020	260120	115133	94.790	12.417145	-57.237868	94.930	-0.140	0.150	0.070	94.830	-1.100	0.500																			1580039493.0	6.71	12.43
26/01/2020 11:51:34	26012020	260120	115134	95.000	12.417143	-57.237837	95.090	0.130	-0.070	0.010	95.040	-1.300	0.400																			1580039494.0	6.78	12.56
26/01/2020 11:51:35	26012020	260120	115135	95.130	12.417140	-57.237805	95.160	0.340	-0.280	0.110	95.140	-1.500	0.400																			1580039495.0	6.77	12.54
26/01/2020 11:51:36	26012020	260120	115136	95.180	12.417138	-57.237773	95.220	0.440	-0.400	0.130	95.190	-1.700	0.500																			1580039496.0	6.71	12.43
26/01/2020 11:51:37	26012020	260120	115137	95.240	12.417137	-57.237742	95.280	0.410	-0.430	0.220	95.250	-1.800	0.500																			1580039497.0	6.66	12.33
26/01/2020 11:51:38	26012020	260120	115138	95.280	12.417135	-57.237710	95.270	0.310	-0.430	0.470	95.280	-1.800	0.700																			1580039498.0	6.67	12.35
26/01/2020 11:51:39	26012020	260120	115139	95.230	12.417132	-57.237678	95.180	0.140	-0.400	0.820	95.210	-1.700	1.000																			1580039499.0	6.74	12.48
26/01/2020 11:51:40	26012020	260120	115140	95.100	12.417127	-57.237647	95.050	-0.030	-0.370	1.130	95.080	-1.700	1.400																			1580039500.0	6.81	12.61
26/01/2020 11:51:41	26012020	260120	115141	95.020	12.417122	-57.237613	95.050	-0.170	-0.320	1.240	95.020	-1.700	1.600																			1580039501.0	6.96	12.89
26/01/2020 11:51:42	26012020	260120	115142	95.090	12.417117	-57.237582	95.210	-0.320	-0.080	1.120	95.130	-1.500	1.600																			1580039502.0	6.96	12.89
26/01/2020 11:51:43	26012020	260120	115143	95.300	12.417113	-57.237550	95.430	-0.470	0.290	0.870	95.350	-1.200	1.300																			1580039503.0	6.70	12.41
26/01/2020 11:51:44	26012020	260120	115144	95.510	12.417110	-57.237518	95.580	-0.490	0.540	0.570	95.540	-0.900	1.100																			1580039504.0	6.51	12.06
26/01/2020 11:51:45	26012020	260120	115145	95.620	12.417107	-57.237488	95.640	-0.260	0.350	0.270	95.630	-0.900	0.800																			1580039505.0	6.60	12.22
26/01/2020 11:51:46	26012020	260120	115146	95.680	12.417105	-57.237455	95.730	0.130	-0.270	0.000	95.700	-1.300	0.500																			1580039506.0	7.08	13.11
26/01/2020 11:51:47	26012020	260120	115147	95.820	12.417103	-57.237420	95.900	0.460	-0.790	-0.270	95.860	-2.000	0.200																			1580039507.0	7.44	13.78
26/01/2020 11:51:48	26012020	260120	115148	95.990	12.417102	-57.237385	96.020	0.510	-0.670	-0.330	96.020	-2.100	0.000																			1580039508.0	7.23	13.39
26/01/2020 11:51:49	26012020	260120	115149	96.060	12.417098	-57.237355	96.040	0.290	-0.110	-0.080	96.060	-1.700	0.200																			1580039509.0	6.52	12.08
26/01/2020 11:51:50	26012020	260120	115150	96.030	12.417095	-57.237325	96.020	-0.030	0.210	0.340	96.030	-1.200	0.500																			1580039510.0	6.20	11.48
26/01/2020 11:51:51	26012020	260120	115151	96.020	12.417090	-57.237295	96.020	-0.190	-0.070	0.780	96.020	-1.200	1.000																			1580039511.0	6.65	12.32
26/01/2020 11:51:52	26012020	260120	115152	95.980	12.417083	-57.237260	95.960	-0.150	-0.550	1.150	95.960	-1.700	1.400																			1580039512.0	7.37	13.65
26/01/2020 11:51:53	26012020	260120	115153	95.920	12.417077	-57.237225	95.950	-0.120	-0.530	1.360	95.910	-1.900	1.700																			1580039513.0	7.49	13.87
26/01/2020 11:51:54	26012020	260120	115154	95.910	12.417072	-57.237193	95.970	-0.200	-0.050	1.340	95.920	-1.600	1.700																			1580039514.0	6.87	12.72
26/01/2020 11:51:55	26012020	260120	115155	95.960	12.417067	-57.237163	96.070	-0.210	0.280	1.000	95.980	-1.100	1.500																			1580039515.0	6.42	11.89
26/01/2020 11:51:56	26012020	260120	115156	96.110	12.417065	-57.237132	96.190	0.030	0.080	0.500	96.130	-1.100	1.100																			1580039516.0	6.73	12.46
26/01/2020 11:51:57	26012020	260120	115157	96.190	12.417063	-57.237097	96.230	0.340	-0.300	0.100	96.210	-1.500	0.600																			1580039517.0	7.34	13.59
26/01/2020 11:51:58	26012020	260120	115158	96.250	12.417063	-57.237062	96.310	0.370	-0.360	-0.040	96.270	-1.700	0.400																			1580039518.0	7.43	13.76
26/01/2020 11:51:59	26012020	260120	115159	96.370	12.417060	-57.237028	96.510	0.060	-0.070	0.070	96.420	-1.500	0.400																			1580039519.0	6.91	12.80
26/01/2020 11:52:00	26012020	260120	115200	96.630	12.417057	-57.236998	96.800	-0.310	0.180	0.330	96.690	-1.200	0.600	1015.30	26.00	26.10	18.10	18.20	217.00	61.00	62.00	376.00	26.40	352.00	11.00	83.00	7.60	17093	3220.00	27.40	27.40	1580039520.0	6.50	12.04
26/01/2020 11:52:01	26012020	260120	115201	96.890	12.417050	-57.236968	96.990	-0.420	0.030	0.670	96.930	-1.200	0.900																			1580039521.0	6.63	12.28
26/01/2020 11:52:02	26012020	260120	115202	96.960	12.417043	-57.236935	96.900	-0.200	-0.490	1.080	96.940	-1.600	1.300																			1580039522.0	7.17	13.28
26/01/2020 11:52:03	26012020	260120	115203	96.790	12.417035	-57.236900	96.710	0.120	-0.820	1.320	96.750	-2.100	1.600																			1580039523.0	7.60	14.08
26/01/2020 11:52:04	26012020	260120	115204	96.670	12.417028	-57.236865	96.700	0.230	-0.540	1.210	96.670	-2.000	1.700																			1580039524.0	7.32	13.56
26/01/2020 11:52:05	26012020	260120	115205	96.750	12.417025	-57.236835	96.820	0.110	0.100	0.850	96.770	-1.500	1.400																			1580039525.0	6.66	12.33
26/01/2020 11:52:06	26012020	260120	115206	96.900	12.417023	-57.236805	96.960	-0.030	0.480	0.360	96.930	-0.900	0.900																			1580039526.0	6.38	11.82
26/01/2020 11:52:07	26012020	260120	115207	97.040	12.417023	-57.236772	97.060	-0.030	0.230	-0.030	97.060	-0.900	0.500																			1580039527.0	6.78	12.56
26/01/2020 11:52:08	26012020	260120	115208	97.130	12.417020	-57.236737	97.140	0.140	-0.380	-0.120	97.140	-1.500	0.300																			1580039528.0	7.42	13.74
26/01/2020 11:52:09	26012020	260120	115209	97.190	12.417017	-57.236702	97.190	0.260	-0.660	0.010	97.200	-2.000	0.300																			1580039529.0	7.68	14.22
26/01/2020 11:52:10	26012020	260120	115210	97.230	12.417012	-57.236668	97.240	0.150	-0.290	0.210	97.240	-1.800	0.500																			1580039530.0	7.19	13.32
26/01/2020 11:52:11	26012020	260120	115211	97.300	12.417007	-57.236637	97.320	-0.110	0.230	0.510	97.310	-1.300	0.800																			1580039531.0	6.50	12.04
26/01/2020 11:52:12	26012020	260120	115212	97.370	12.417000	-57.236607	97.380	-0.260	0.240	0.790	97.380	-1.000	1.000																			1580039532.0	6.49	12.02
26/01/2020 11:52:13	26012020	260120	115213	97.390	12.416993	-57.236575	97.420	-0.190	-0.270	0.940	97.400	-1.400	1.300																			1580039533.0	7.15	13.24
26/01/2020 11:52:14	26012020	260120	115214	97.440	12.416987	-57.236538	97.480	-0.020	-0.710	1.030	97.450	-1.900	1.400																			1580039534.0	7.64	14.15
26/01/2020 11:52:15	26012020	260120	115215	97.470	12.416980	-57.236503	97.450	0.070	-0.620	1.110	97.470	-2.000	1.500																			1580039535.0	7.45	13.80
26/01/2020 11:52:16	26012020	260120	115216	97.420	12.416975	-57.236472	97.390	0.050	-0.190	0.990	97.410	-1.700	1.400																			1580039536.0	6.92	12.82
26/01/2020 11:52:17	26012020	260120	115217	97.370	12.416970	-57.236440	97.370	-0.030	0.190	0.690	97.370	-1.300	1.200																			1580039537.0	6.67	12.35
26/01/2020 11:52:18	26012020	260120	115218	97.420	12.416968	-57.236408	97.490	-0.100	0.280	0.420	97.440	-1.000	0.900																			1580039538.0	6.81	12.61
26/01/2020 11:52:19	26012020	260120	115219	97.550	12.416965	-57.236375	97.730	-0.090	0.050	0.170	97.610	-1.200	0.600																			1580039539.0	7.10	13.15
26/01/2020 11:52:20	26012020	260120	115220	97.870	12.416960	-57.236340	97.910	0.040	-0.360	0.060	97.920	-1.500	0.400																			1580039540.0	7.37	13.65
26/01/2020 11:52:21	26012020	260120	115221	97.980	12.416955	-57.236305	97.920	0.190	-0.520	0.270	97.970	-1.900	0.500																			1580039541.0	7.53	13.95
26/01/2020 11:52:22	26012020	260120	115222	97.950	12.416950	-57.236272	97.940	0.200	-0.200	0.580	97.950	-1.700	0.800																			1580039542.0	7.16	13.26
26/01/2020 11:52:23	26012020	260120	115223	98.020	12.416943	-57.236240	98.070	0.060	0.110	0.740	98.040	-1.300	1.100																			1580039543.0	6.66	12.33
26/01/2020 11:52:24	26012020	260120	115224	98.130	12.416938	-57.236208	98.110	-0.030	-0.090	0.820	98.130	-1.300	1.200																			1580039544.0	6.85	12.69
26/01/2020 11:52:25	26012020	260120	115225	98.090	12.416933	-57.236173	98.030	0.010	-0.510	0.920	98.080	-1.700	1.200																			1580039545.0	7.48	13.85
26/01/2020 11:52:26	26012020	260120	115226	98.030	12.416927	-57.236138	98.060	0.020	-0.540	1.000	98.030	-1.900	1.400																			1580039546.0	7.65	14.17
26/01/2020 11:52:27	26012020	260120	115227	98.130	12.416920	-57.236105	98.240	-0.110	-0.100	0.940	98.170	-1.600	1.400																			1580039547.0	7.10	13.15
26/01/2020 11:52:28	26012020	260120	115228	98.350	12.416913	-57.236075	98.440	-0.240	0.280	0.690	98.390	-1.100	1.200																			1580039548.0	6.64	12.30
26/01/2020 11:52:29	26012020	260120	115229	98.520	12.416908	-57.236043	98.540	-0.170	0.150	0.410	98.540	-1.100	0.900																			1580039549.0	6.83	12.65
26/01/2020 11:52:30	26012020	260120	115230	98.600	12.416903	-57.236008	98.640	0.080	-0.280	0.200	98.620	-1.400	0.600																			1580039550.0	7.43	13.76
26/01/2020 11:52:31	26012020	260120	115231	98.760	12.416900	-57.235972	98.870	0.280	-0.430	0.130	98.810	-1.800	0.500																			1580039551.0	7.63	14.13
26/01/2020 11:52:32	26012020	260120	115232	99.000	12.416895	-57.235938	99.100	0.250	-0.160	0.170	99.050	-1.600	0.500																			1580039552.0	7.14	13.22
26/01/2020 11:52:33	26012020	260120	115233	99.170	12.416890	-57.235907	99.150	0.090	0.010	0.320	99.180	-1.300	0.600																			1580039553.0	6.72	12.45
26/01/2020 11:52:34	26012020	260120	115234	99.130	12.416883	-57.235875	99.030	-0.020	-0.280	0.720	99.100	-1.400	0.900																			1580039554.0	7.03	13.02
26/01/2020 11:52:35	26012020	260120	115235	98.950	12.416877	-57.235840	98.880	-0.040	-0.700	1.140	98.920	-1.900	1.400																			1580039555.0	7.64	14.15
26/01/2020 11:52:36	26012020	260120	115236	98.850	12.416868	-57.235803	98.860	-0.080	-0.640	1.320	98.840	-2.100	1.700																			1580039556.0	7.72	14.30
26/01/2020 11:52:37	26012020	260120	115237	98.910	12.416862	-57.235770	98.990	-0.170	-0.100	1.290	98.930	-1.700	1.700																			1580039557.0	7.19	13.32
26/01/2020 11:52:38	26012020	260120	115238	99.070	12.416855	-57.235738	99.180	-0.230	0.350	1.130	99.110	-1.100	1.600																			1580039558.0	6.77	12.54
26/01/2020 11:52:39	26012020	260120	115239	99.280	12.416847	-57.235707	99.410	-0.200	0.370	0.870	99.320	-0.900	1.400																			1580039559.0	6.97	12.91
26/01/2020 11:52:40	26012020	260120	115240	99.510	12.416842	-57.235673	99.640	-0.060	0.110	0.510	99.560	-1.100	1.000																			1580039560.0	7.33	13.58
26/01/2020 11:52:41	26012020	260120	115241	99.730	12.416837	-57.235638	99.820	0.110	-0.130	0.180	99.770	-1.400	0.700																			1580039561.0	7.44	13.78
26/01/2020 11:52:42	26012020	260120	115242	99.880	12.416832	-57.235603	99.900	0.200	-0.270	0.070	99.890	-1.600	0.500																			1580039562.0	7.32	13.56
26/01/2020 11:52:43	26012020	260120	115243	99.940	12.416827	-57.235570	99.940	0.180	-0.360	0.150	99.950	-1.700	0.500																			1580039563.0	7.19	13.32
26/01/2020 11:52:44	26012020	260120	115244	99.980	12.416822	-57.235537	99.960	0.110	-0.500	0.390	99.990	-1.800	0.700																			1580039564.0	7.22	13.37
26/01/2020 11:52:45	26012020	260120	115245	99.970	12.416813	-57.235502	99.880	0.060	-0.610	0.700	99.950	-1.900	0.900																			1580039565.0	7.38	13.67
26/01/2020 11:52:46	26012020	260120	115246	99.830	12.416805	-57.235468	99.780	0.020	-0.490	0.990	99.810	-1.900	1.300																			1580039566.0	7.42	13.74
26/01/2020 11:52:47	26012020	260120	115247	99.770	12.416798	-57.235435	99.810	-0.010	-0.160	1.080	99.770	-1.600	1.400																			1580039567.0	7.24	13.41
26/01/2020 11:52:48	26012020	260120	115248	99.840	12.416790	-57.235402	99.910	-0.090	0.140	0.990	99.860	-1.300	1.400																			1580039568.0	7.13	13.20
26/01/2020 11:52:49	26012020	260120	115249	99.980	12.416783	-57.235368	100.060	-0.210	0.310	0.780	100.010	-1.100	1.200																			1580039569.0	7.12	13.19
26/01/2020 11:52:50	26012020	260120	115250	100.140	12.416777	-57.235335	100.170	-0.250	0.150	0.550	100.160	-1.100	1.000																			1580039570.0	7.22	13.37
26/01/2020 11:52:51	26012020	260120	115251	100.220	12.416770	-57.235300	100.210	-0.080	-0.280	0.410	100.220	-1.400	0.800																			1580039571.0	7.55	13.98
26/01/2020 11:52:52	26012020	260120	115252	100.220	12.416763	-57.235263	100.210	0.160	-0.510	0.350	100.220	-1.800	0.700																			1580039572.0	7.82	14.48
26/01/2020 11:52:53	26012020	260120	115253	100.250	12.416757	-57.235230	100.270	0.200	-0.220	0.370	100.260	-1.700	0.700																			1580039573.0	7.44	13.78
26/01/2020 11:52:54	26012020	260120	115254	100.320	12.416750	-57.235198	100.350	0.050	0.130	0.460	100.330	-1.300	0.800																			1580039574.0	6.86	12.70
26/01/2020 11:52:55	26012020	260120	115255	100.380	12.416743	-57.235165	100.380	-0.030	0.010	0.600	100.390	-1.200	0.900																			1580039575.0	6.95	12.87
26/01/2020 11:52:56	26012020	260120	115256	100.360	12.416737	-57.235130	100.270	0.060	-0.480	0.820	100.330	-1.600	1.100																			1580039576.0	7.58	14.04
26/01/2020 11:52:57	26012020	260120	115257	100.210	12.416728	-57.235093	100.120	0.110	-0.730	1.090	100.170	-2.000	1.300																			1580039577.0	7.96	14.74
26/01/2020 11:52:58	26012020	260120	115258	100.060	12.416720	-57.235058	100.040	-0.010	-0.460	1.310	100.040	-2.000	1.600																			1580039578.0	7.65	14.17
26/01/2020 11:52:59	26012020	260120	115259	100.040	12.416712	-57.235025	100.110	-0.230	-0.070	1.300	100.060	-1.500	1.700																			1580039579.0	7.20	13.33
26/01/2020 11:53:00	26012020	260120	115300	100.180	12.416705	-57.234992	100.250	-0.340	0.080	1.130	100.210	-1.300	1.600	1015.30	26.00	26.00	18.00	18.10	233.00	61.00	61.00	376.00	26.40	349.00	11.50	82.00	7.90	17684	3041.00	27.40	27.40	1580039580.0	7.24	13.41
26/01/2020 11:53:01	26012020	260120	115301	100.280	12.416695	-57.234957	100.270	-0.290	0.040	0.940	100.290	-1.300	1.400																			1580039581.0	7.60	14.08
26/01/2020 11:53:02	26012020	260120	115302	100.260	12.416688	-57.234922	100.210	-0.110	0.070	0.680	100.250	-1.300	1.100																			1580039582.0	7.68	14.22
26/01/2020 11:53:03	26012020	260120	115303	100.250	12.416682	-57.234887	100.310	0.080	0.230	0.340	100.270	-1.200	0.900																			1580039583.0	7.50	13.89
26/01/2020 11:53:04	26012020	260120	115304	100.430	12.416677	-57.234853	100.500	0.210	0.300	-0.010	100.480	-1.000	0.500																			1580039584.0	7.27	13.46
26/01/2020 11:53:05	26012020	260120	115305	100.610	12.416672	-57.234818	100.620	0.340	-0.040	-0.230	100.640	-1.200	0.200																			1580039585.0	7.36	13.63
26/01/2020 11:53:06	26012020	260120	115306	100.680	12.416667	-57.234782	100.620	0.510	-0.660	-0.130	100.680	-1.800	0.100																			1580039586.0	7.82	14.48
26/01/2020 11:53:07	26012020	260120	115307	100.620	12.416660	-57.234743	100.490	0.580	-1.040	0.420	100.590	-2.300	0.500																			1580039587.0	8.11	15.02
26/01/2020 11:53:08	26012020	260120	115308	100.440	12.416652	-57.234708	100.320	0.380	-0.820	1.000	100.390	-2.300	1.200																			1580039588.0	7.89	14.61
26/01/2020 11:53:09	26012020	260120	115309	100.300	12.416642	-57.234673	100.270	-0.080	-0.200	1.380	100.280	-1.800	1.600																			1580039589.0	7.36	13.63
26/01/2020 11:53:10	26012020	260120	115310	100.280	12.416633	-57.234642	100.350	-0.540	0.220	1.530	100.310	-1.200	1.900																			1580039590.0	7.13	13.20
26/01/2020 11:53:11	26012020	260120	115311	100.390	12.416623	-57.234607	100.430	-0.770	0.120	1.520	100.400	-1.100	1.900																			1580039591.0	7.56	14.00
26/01/2020 11:53:12	26012020	260120	115312	100.400	12.416613	-57.234570	100.370	-0.700	-0.230	1.450	100.390	-1.400	1.800																			1580039592.0	8.13	15.06
26/01/2020 11:53:13	26012020	260120	115313	100.330	12.416603	-57.234532	100.320	-0.460	-0.280	1.210	100.320	-1.700	1.700																			1580039593.0	8.28	15.33
26/01/2020 11:53:14	26012020	260120	115314	100.330	12.416595	-57.234497	100.410	-0.190	0.090	0.760	100.360	-1.400	1.300																			1580039594.0	7.81	14.46
26/01/2020 11:53:15	26012020	260120	115315	100.500	12.416590	-57.234462	100.580	0.030	0.360	0.230	100.540	-1.000	0.800																			1580039595.0	7.37	13.65
26/01/2020 11:53:16	26012020	260120	115316	100.700	12.416585	-57.234427	100.760	0.260	0.180	-0.200	100.740	-1.000	0.300																			1580039596.0	7.51	13.91
26/01/2020 11:53:17	26012020	260120	115317	100.870	12.416580	-57.234390	100.850	0.510	-0.260	-0.380	100.890	-1.400	0.000																			1580039597.0	7.98	14.78
26/01/2020 11:53:18	26012020	260120	115318	100.890	12.416573	-57.234352	100.810	0.670	-0.500	-0.190	100.880	-1.800	0.100																			1580039598.0	8.12	15.04
26/01/2020 11:53:19	26012020	260120	115319	100.840	12.416567	-57.234315	100.770	0.610	-0.390	0.190	100.830	-1.800	0.400																			1580039599.0	7.82	14.48
26/01/2020 11:53:20	26012020	260120	115320	100.790	12.416560	-57.234280	100.710	0.370	-0.310	0.610	100.780	-1.600	0.800																			1580039600.0	7.51	13.91
26/01/2020 11:53:21	26012020	260120	115321	100.680	12.416552	-57.234245	100.590	0.090	-0.400	1.030	100.660	-1.700	1.200																			1580039601.0	7.73	14.32
26/01/2020 11:53:22	26012020	260120	115322	100.530	12.416540	-57.234208	100.440	-0.160	-0.430	1.440	100.500	-1.800	1.600																			1580039602.0	8.02	14.85
26/01/2020 11:53:23	26012020	260120	115323	100.400	12.416530	-57.234172	100.280	-0.340	-0.330	1.680	100.370	-1.700	2.000																			1580039603.0	8.02	14.85
26/01/2020 11:53:24	26012020	260120	115324	100.180	12.416520	-57.234135	100.100	-0.440	-0.170	1.640	100.150	-1.600	2.000																			1580039604.0	7.96	14.74
26/01/2020 11:53:25	26012020	260120	115325	100.040	12.416512	-57.234100	100.010	-0.480	-0.020	1.370	100.030	-1.400	1.900																			1580039605.0	7.92	14.67
26/01/2020 11:53:26	26012020	260120	115326	100.040	12.416503	-57.234063	100.080	-0.450	0.080	0.990	100.050	-1.300	1.500																			1580039606.0	7.88	14.59
26/01/2020 11:53:27	26012020	260120	115327	100.150	12.416495	-57.234027	100.180	-0.280	-0.010	0.580	100.170	-1.300	1.100																			1580039607.0	7.96	14.74
26/01/2020 11:53:28	26012020	260120	115328	100.260	12.416488	-57.233988	100.290	-0.030	-0.110	0.230	100.280	-1.400	0.700																			1580039608.0	8.13	15.06
26/01/2020 11:53:29	26012020	260120	115329	100.380	12.416482	-57.233952	100.400	0.190	-0.080	0.120	100.400	-1.400	0.500																			1580039609.0	8.04	14.89
26/01/2020 11:53:30	26012020	260120	115330	100.470	12.416475	-57.233915	100.410	0.360	-0.100	0.150	100.470	-1.400	0.500																			1580039610.0	7.86	14.56
26/01/2020 11:53:31	26012020	260120	115331	100.430	12.416468	-57.233877	100.350	0.460	-0.240	0.290	100.420	-1.500	0.600																			1580039611.0	7.98	14.78
26/01/2020 11:53:32	26012020	260120	115332	100.360	12.416460	-57.233840	100.250	0.420	-0.340	0.600	100.330	-1.700	0.900																			1580039612.0	8.11	15.02
26/01/2020 11:53:33	26012020	260120	115333	100.230	12.416453	-57.233802	100.150	0.260	-0.350	0.890	100.210	-1.700	1.200																			1580039613.0	8.05	14.91
26/01/2020 11:53:34	26012020	260120	115334	100.110	12.416445	-57.233765	100.070	0.080	-0.290	1.100	100.100	-1.700	1.400																			1580039614.0	8.02	14.85
26/01/2020 11:53:35	26012020	260120	115335	100.060	12.416437	-57.233728	100.050	-0.050	-0.190	1.210	100.060	-1.600	1.600																			1580039615.0	8.03	14.87
26/01/2020 11:53:36	26012020	260120	115336	100.080	12.416428	-57.233692	100.080	-0.160	-0.140	1.190	100.080	-1.500	1.600																			1580039616.0	8.05	14.91
26/01/2020 11:53:37	26012020	260120	115337	100.080	12.416418	-57.233653	100.020	-0.280	-0.140	1.090	100.070	-1.500	1.500																			1580039617.0	8.11	15.02
26/01/2020 11:53:38	26012020	260120	115338	99.980	12.416410	-57.233617	99.920	-0.390	-0.110	0.990	99.970	-1.500	1.400																			1580039618.0	8.16	15.11
26/01/2020 11:53:39	26012020	260120	115339	99.900	12.416403	-57.233578	99.890	-0.390	-0.090	0.820	99.900	-1.400	1.300																			1580039619.0	8.08	14.96
26/01/2020 11:53:40	26012020	260120	115340	99.910	12.416395	-57.233542	99.890	-0.190	-0.260	0.660	99.920	-1.500	1.100																			1580039620.0	8.14	15.08
26/01/2020 11:53:41	26012020	260120	115341	99.900	12.416387	-57.233502	99.840	0.100	-0.490	0.540	99.890	-1.700	1.000																			1580039621.0	8.41	15.58
26/01/2020 11:53:42	26012020	260120	115342	99.840	12.416378	-57.233463	99.760	0.270	-0.440	0.450	99.820	-1.800	0.900																			1580039622.0	8.47	15.69
26/01/2020 11:53:43	26012020	260120	115343	99.770	12.416370	-57.233425	99.730	0.240	-0.060	0.450	99.770	-1.600	0.800																			1580039623.0	8.14	15.08
26/01/2020 11:53:44	26012020	260120	115344	99.770	12.416363	-57.233390	99.750	0.100	0.300	0.510	99.780	-1.100	0.900																			1580039624.0	7.78	14.41
26/01/2020 11:53:45	26012020	260120	115345	99.820	12.416357	-57.233353	99.830	0.000	0.290	0.480	99.830	-1.000	0.900																			1580039625.0	7.85	14.54
26/01/2020 11:53:46	26012020	260120	115346	99.910	12.416350	-57.233315	99.880	0.060	-0.070	0.550	99.920	-1.200	0.900																			1580039626.0	8.21	15.20
26/01/2020 11:53:47	26012020	260120	115347	99.890	12.416343	-57.233275	99.770	0.260	-0.600	0.980	99.860	-1.700	1.200																			1580039627.0	8.55	15.83
26/01/2020 11:53:48	26012020	260120	115348	99.710	12.416333	-57.233235	99.630	0.370	-0.870	1.370	99.690	-2.200	1.600																			1580039628.0	8.77	16.24
26/01/2020 11:53:49	26012020	260120	115349	99.620	12.416325	-57.233195	99.630	0.180	-0.600	1.470	99.620	-2.100	1.800																			1580039629.0	8.51	15.76
26/01/2020 11:53:50	26012020	260120	115350	99.670	12.416317	-57.233158	99.700	-0.240	-0.050	1.440	99.690	-1.600	1.800																			1580039630.0	7.96	14.74
26/01/2020 11:53:51	26012020	260120	115351	99.730	12.416310	-57.233123	99.720	-0.580	0.320	1.380	99.730	-1.100	1.800																			1580039631.0	7.75	14.35
26/01/2020 11:53:52	26012020	260120	115352	99.700	12.416300	-57.233085	99.650	-0.600	0.200	1.280	99.690	-1.000	1.700																			1580039632.0	8.06	14.93
26/01/2020 11:53:53	26012020	260120	115353	99.620	12.416292	-57.233045	99.580	-0.330	-0.270	1.020	99.610	-1.400	1.500																			1580039633.0	8.59	15.91
26/01/2020 11:53:54	26012020	260120	115354	99.620	12.416285	-57.233005	99.640	0.010	-0.590	0.660	99.640	-1.900	1.200																			1580039634.0	8.89	16.46
26/01/2020 11:53:55	26012020	260120	115355	99.720	12.416277	-57.232965	99.750	0.160	-0.430	0.410	99.750	-1.900	0.900																			1580039635.0	8.61	15.95
26/01/2020 11:53:56	26012020	260120	115356	99.860	12.416270	-57.232927	99.900	0.110	0.020	0.220	99.890	-1.500	0.700																			1580039636.0	8.08	14.96
26/01/2020 11:53:57	26012020	260120	115357	99.990	12.416265	-57.232890	99.990	0.050	0.280	0.140	100.010	-1.100	0.500																			1580039637.0	7.85	14.54
26/01/2020 11:53:58	26012020	260120	115358	100.040	12.416258	-57.232852	99.980	0.120	0.190	0.240	100.030	-1.100	0.600																			1580039638.0	8.09	14.98
26/01/2020 11:53:59	26012020	260120	115359	100.010	12.416250	-57.232813	99.970	0.300	-0.190	0.400	100.010	-1.400	0.700																			1580039639.0	8.43	15.61
26/01/2020 11:54:00	26012020	260120	115400	100.010	12.416243	-57.232773	99.980	0.500	-0.610	0.500	100.010	-1.800	0.800	1015.30	26.00	26.10	18.00	18.10	231.00	61.00	61.00	377.00	26.50	348.00	12.00	83.00	8.00	17752	3154.00	27.40	27.40	1580039640.0	8.69	16.09
26/01/2020 11:54:01	26012020	260120	115401	99.990	12.416237	-57.232732	99.930	0.560	-0.780	0.690	99.980	-2.100	1.000																			1580039641.0	8.75	16.21
26/01/2020 11:54:02	26012020	260120	115402	99.890	12.416230	-57.232692	99.840	0.390	-0.560	1.040	99.870	-2.000	1.300																			1580039642.0	8.54	15.82
26/01/2020 11:54:03	26012020	260120	115403	99.790	12.416222	-57.232655	99.760	-0.020	-0.160	1.320	99.770	-1.700	1.600																			1580039643.0	8.23	15.24
26/01/2020 11:54:04	26012020	260120	115404	99.760	12.416212	-57.232617	99.790	-0.510	0.180	1.310	99.770	-1.300	1.700																			1580039644.0	8.15	15.09
26/01/2020 11:54:05	26012020	260120	115405	99.810	12.416203	-57.232578	99.840	-0.840	0.230	1.210	99.820	-1.100	1.600																			1580039645.0	8.25	15.28
26/01/2020 11:54:06	26012020	260120	115406	99.860	12.416193	-57.232540	99.900	-0.830	0.000	1.150	99.880	-1.200	1.500																			1580039646.0	8.57	15.87
26/01/2020 11:54:07	26012020	260120	115407	99.900	12.416183	-57.232498	99.870	-0.560	-0.280	1.060	99.890	-1.500	1.500																			1580039647.0	8.86	16.41
26/01/2020 11:54:08	26012020	260120	115408	99.820	12.416173	-57.232458	99.740	-0.220	-0.390	0.800	99.790	-1.700	1.300																			1580039648.0	8.81	16.32
26/01/2020 11:54:09	26012020	260120	115409	99.690	12.416165	-57.232418	99.640	0.130	-0.400	0.450	99.670	-1.700	1.000																			1580039649.0	8.63	15.98
26/01/2020 11:54:10	26012020	260120	115410	99.650	12.416160	-57.232378	99.670	0.440	-0.310	0.160	99.660	-1.700	0.600																			1580039650.0	8.62	15.96
26/01/2020 11:54:11	26012020	260120	115411	99.700	12.416155	-57.232338	99.710	0.570	-0.100	-0.090	99.700	-1.500	0.400																			1580039651.0	8.55	15.83
26/01/2020 11:54:12	26012020	260120	115412	99.750	12.416150	-57.232298	99.810	0.470	0.090	-0.120	99.770	-1.300	0.200																			1580039652.0	8.44	15.63
26/01/2020 11:54:13	26012020	260120	115413	99.840	12.416143	-57.232258	99.930	0.250	0.140	0.270	99.860	-1.200	0.500																			1580039653.0	8.41	15.58
26/01/2020 11:54:14	26012020	260120	115414	99.940	12.416135	-57.232220	99.960	0.090	-0.100	0.720	99.950	-1.300	0.900																			1580039654.0	8.56	15.85
26/01/2020 11:54:15	26012020	260120	115415	99.920	12.416125	-57.232178	99.870	0.110	-0.550	1.140	99.900	-1.700	1.300																			1580039655.0	8.91	16.50
26/01/2020 11:54:16	26012020	260120	115416	99.760	12.416115	-57.232137	99.680	0.220	-0.810	1.530	99.720	-2.100	1.800																			1580039656.0	9.21	17.06
26/01/2020 11:54:17	26012020	260120	115417	99.590	12.416105	-57.232095	99.600	0.150	-0.540	1.600	99.580	-2.100	2.000																			1580039657.0	9.02	16.71
26/01/2020 11:54:18	26012020	260120	115418	99.610	12.416098	-57.232055	99.690	-0.200	0.090	1.290	99.640	-1.500	1.800																			1580039658.0	8.45	15.65
26/01/2020 11:54:19	26012020	260120	115419	99.760	12.416092	-57.232018	99.860	-0.550	0.470	0.960	99.790	-1.000	1.500																			1580039659.0	8.13	15.06
26/01/2020 11:54:20	26012020	260120	115420	99.950	12.416085	-57.231978	100.070	-0.560	0.290	0.670	100.000	-0.900	1.100																			1580039660.0	8.45	15.65
26/01/2020 11:54:21	26012020	260120	115421	100.150	12.416077	-57.231937	100.160	-0.210	-0.310	0.500	100.170	-1.400	0.900																			1580039661.0	9.04	16.74
26/01/2020 11:54:22	26012020	260120	115422	100.180	12.416067	-57.231893	100.130	0.180	-0.790	0.480	100.180	-2.000	0.800																			1580039662.0	9.46	17.52
26/01/2020 11:54:23	26012020	260120	115423	100.110	12.416058	-57.231850	100.030	0.310	-0.720	0.540	100.090	-2.100	0.900																			1580039663.0	9.21	17.06
26/01/2020 11:54:24	26012020	260120	115424	100.010	12.416052	-57.231810	99.990	0.170	-0.280	0.570	100.000	-1.800	0.900																			1580039664.0	8.67	16.06
26/01/2020 11:54:25	26012020	260120	115425	100.000	12.416045	-57.231770	100.050	-0.060	0.090	0.630	100.010	-1.400	1.000																			1580039665.0	8.42	15.59
26/01/2020 11:54:26	26012020	260120	115426	100.060	12.416037	-57.231730	100.080	-0.190	0.130	0.710	100.060	-1.200	1.100																			1580039666.0	8.63	15.98
26/01/2020 11:54:27	26012020	260120	115427	100.080	12.416028	-57.231688	100.100	-0.190	-0.050	0.780	100.080	-1.300	1.100																			1580039667.0	9.03	16.72
26/01/2020 11:54:28	26012020	260120	115428	100.100	12.416018	-57.231647	100.130	-0.130	-0.180	0.810	100.100	-1.500	1.200																			1580039668.0	9.17	16.98
26/01/2020 11:54:29	26012020	260120	115429	100.140	12.416008	-57.231605	100.190	-0.020	-0.210	0.640	100.150	-1.500	1.100																			1580039669.0	9.04	16.74
26/01/2020 11:54:30	26012020	260120	115430	100.230	12.416002	-57.231563	100.280	0.200	-0.240	0.450	100.250	-1.600	0.900																			1580039670.0	8.94	16.56
26/01/2020 11:54:31	26012020	260120	115431	100.310	12.415993	-57.231520	100.310	0.440	-0.260	0.310	100.320	-1.600	0.700																			1580039671.0	9.03	16.72
26/01/2020 11:54:32	26012020	260120	115432	100.340	12.415988	-57.231478	100.340	0.500	-0.130	0.110	100.360	-1.500	0.600																			1580039672.0	8.99	16.65
26/01/2020 11:54:33	26012020	260120	115433	100.410	12.415983	-57.231437	100.420	0.360	-0.010	-0.040	100.430	-1.400	0.400																			1580039673.0	8.80	16.30
26/01/2020 11:54:34	26012020	260120	115434	100.510	12.415977	-57.231397	100.540	0.160	-0.130	0.020	100.540	-1.400	0.300																			1580039674.0	8.85	16.39
26/01/2020 11:54:35	26012020	260120	115435	100.610	12.415968	-57.231353	100.580	-0.050	-0.410	0.330	100.610	-1.600	0.600																			1580039675.0	9.14	16.93
26/01/2020 11:54:36	26012020	260120	115436	100.550	12.415958	-57.231312	100.410	-0.270	-0.610	0.820	100.520	-1.900	1.000																			1580039676.0	9.31	17.24
26/01/2020 11:54:37	26012020	260120	115437	100.330	12.415945	-57.231268	100.170	-0.430	-0.560	1.310	100.280	-1.900	1.500																			1580039677.0	9.26	17.15
26/01/2020 11:54:38	26012020	260120	115438	100.090	12.415933	-57.231228	100.000	-0.490	-0.290	1.520	100.050	-1.700	1.900																			1580039678.0	9.11	16.87
26/01/2020 11:54:39	26012020	260120	115439	99.960	12.415922	-57.231187	99.920	-0.440	-0.050	1.370	99.940	-1.500	1.800																			1580039679.0	8.96	16.59
26/01/2020 11:54:40	26012020	260120	115440	99.930	12.415913	-57.231145	99.910	-0.270	-0.040	1.030	99.930	-1.400	1.500																			1580039680.0	9.09	16.83
26/01/2020 11:54:41	26012020	260120	115441	99.990	12.415905	-57.231102	100.030	-0.060	-0.080	0.600	100.020	-1.400	1.100																			1580039681.0	9.37	17.35
26/01/2020 11:54:42	26012020	260120	115442	100.170	12.415898	-57.231058	100.230	0.090	0.110	0.250	100.220	-1.300	0.800																			1580039682.0	9.22	17.08
26/01/2020 11:54:43	26012020	260120	115443	100.390	12.415892	-57.231017	100.430	0.240	0.160	0.100	100.430	-1.100	0.500																			1580039683.0	8.90	16.48
26/01/2020 11:54:44	26012020	260120	115444	100.550	12.415885	-57.230973	100.530	0.470	-0.210	0.180	100.560	-1.400	0.500																			1580039684.0	9.14	16.93
26/01/2020 11:54:45	26012020	260120	115445	100.580	12.415877	-57.230930	100.520	0.620	-0.560	0.480	100.570	-1.800	0.700																			1580039685.0	9.60	17.78
26/01/2020 11:54:46	26012020	260120	115446	100.560	12.415868	-57.230885	100.510	0.520	-0.430	0.740	100.560	-1.900	1.000																			1580039686.0	9.41	17.43
26/01/2020 11:54:47	26012020	260120	115447	100.570	12.415860	-57.230845	100.540	0.220	-0.100	0.860	100.580	-1.600	1.200																			1580039687.0	8.87	16.43
26/01/2020 11:54:48	26012020	260120	115448	100.600	12.415852	-57.230803	100.570	-0.070	-0.090	0.920	100.600	-1.400	1.300																			1580039688.0	8.81	16.32
26/01/2020 11:54:49	26012020	260120	115449	100.610	12.415843	-57.230760	100.550	-0.230	-0.420	0.990	100.610	-1.600	1.300																			1580039689.0	9.32	17.26
26/01/2020 11:54:50	26012020	260120	115450	100.570	12.415833	-57.230715	100.470	-0.270	-0.630	1.100	100.550	-1.900	1.400																			1580039690.0	9.69	17.95
26/01/2020 11:54:51	26012020	260120	115451	100.490	12.415822	-57.230672	100.440	-0.310	-0.390	1.170	100.480	-1.900	1.500																			1580039691.0	9.51	17.61
26/01/2020 11:54:52	26012020	260120	115452	100.490	12.415812	-57.230630	100.480	-0.380	0.030	0.980	100.490	-1.500	1.500																			1580039692.0	9.07	16.80
26/01/2020 11:54:53	26012020	260120	115453	100.510	12.415802	-57.230590	100.480	-0.350	0.180	0.690	100.510	-1.200	1.200																			1580039693.0	8.95	16.58
26/01/2020 11:54:54	26012020	260120	115454	100.520	12.415793	-57.230547	100.530	-0.210	0.060	0.380	100.530	-1.200	0.900																			1580039694.0	9.31	17.24
26/01/2020 11:54:55	26012020	260120	115455	100.620	12.415787	-57.230502	100.650	-0.070	-0.050	0.140	100.650	-1.400	0.600																			1580039695.0	9.49	17.58
26/01/2020 11:54:56	26012020	260120	115456	100.750	12.415778	-57.230458	100.730	0.060	-0.160	0.050	100.760	-1.400	0.400																			1580039696.0	9.34	17.30
26/01/2020 11:54:57	26012020	260120	115457	100.800	12.415770	-57.230415	100.750	0.240	-0.410	0.190	100.800	-1.600	0.500																			1580039697.0	9.36	17.33
26/01/2020 11:54:58	26012020	260120	115458	100.770	12.415762	-57.230370	100.710	0.440	-0.690	0.480	100.760	-1.900	0.700																			1580039698.0	9.58	17.74
26/01/2020 11:54:59	26012020	260120	115459	100.700	12.415752	-57.230327	100.620	0.490	-0.710	0.830	100.680	-2.100	1.100																			1580039699.0	9.68	17.93
26/01/2020 11:55:00	26012020	260120	115500	100.590	12.415742	-57.230283	100.530	0.330	-0.330	1.120	100.570	-1.900	1.400	1015.40	26.00	26.10	17.90	18.00	232.00	61.00	61.00	377.00	26.50	350.00	12.10	84.00	7.60	17950	3199.00	27.40	27.40	1580039700.0	9.42	17.45
26/01/2020 11:55:01	26012020	260120	115501	100.520	12.415732	-57.230240	100.490	0.080	0.150	1.170	100.510	-1.400	1.600																			1580039701.0	9.09	16.83
26/01/2020 11:55:02	26012020	260120	115502	100.530	12.415723	-57.230198	100.530	-0.170	0.340	1.010	100.540	-1.000	1.500																			1580039702.0	9.07	16.80
26/01/2020 11:55:03	26012020	260120	115503	100.600	12.415715	-57.230155	100.630	-0.340	0.210	0.810	100.630	-1.000	1.300																			1580039703.0	9.35	17.32
26/01/2020 11:55:04	26012020	260120	115504	100.730	12.415707	-57.230110	100.670	-0.350	-0.110	0.730	100.750	-1.300	1.100																			1580039704.0	9.58	17.74
26/01/2020 11:55:05	26012020	260120	115505	100.730	12.415697	-57.230067	100.640	-0.210	-0.440	0.800	100.720	-1.700	1.100																			1580039705.0	9.71	17.98
26/01/2020 11:55:06	26012020	260120	115506	100.680	12.415685	-57.230022	100.620	-0.050	-0.580	0.880	100.670	-1.900	1.200																			1580039706.0	9.72	18.00
26/01/2020 11:55:07	26012020	260120	115507	100.670	12.415675	-57.229978	100.650	0.020	-0.400	0.930	100.670	-1.800	1.300																			1580039707.0	9.50	17.59
26/01/2020 11:55:08	26012020	260120	115508	100.710	12.415667	-57.229935	100.680	0.020	-0.140	0.890	100.720	-1.600	1.300																			1580039708.0	9.15	16.95
26/01/2020 11:55:09	26012020	260120	115509	100.710	12.415657	-57.229892	100.620	0.100	-0.200	0.830	100.700	-1.500	1.200																			1580039709.0	9.22	17.08
26/01/2020 11:55:10	26012020	260120	115510	100.650	12.415648	-57.229847	100.570	0.210	-0.450	0.840	100.630	-1.700	1.200																			1580039710.0	9.70	17.96
26/01/2020 11:55:11	26012020	260120	115511	100.590	12.415640	-57.229802	100.520	0.210	-0.520	0.900	100.580	-1.900	1.300																			1580039711.0	9.87	18.28
26/01/2020 11:55:12	26012020	260120	115512	100.550	12.415630	-57.229757	100.540	0.070	-0.260	0.960	100.550	-1.700	1.300																			1580039712.0	9.65	17.87
26/01/2020 11:55:13	26012020	260120	115513	100.610	12.415622	-57.229713	100.640	-0.120	0.090	1.010	100.620	-1.400	1.400																			1580039713.0	9.31	17.24
26/01/2020 11:55:14	26012020	260120	115514	100.700	12.415612	-57.229672	100.680	-0.230	0.160	1.070	100.710	-1.200	1.400																			1580039714.0	9.27	17.17
26/01/2020 11:55:15	26012020	260120	115515	100.720	12.415602	-57.229627	100.650	-0.180	-0.100	1.130	100.710	-1.300	1.500																			1580039715.0	9.65	17.87
26/01/2020 11:55:16	26012020	260120	115516	100.660	12.415592	-57.229580	100.580	-0.060	-0.320	1.190	100.650	-1.600	1.600																			1580039716.0	9.93	18.39
26/01/2020 11:55:17	26012020	260120	115517	100.620	12.415582	-57.229535	100.620	-0.010	-0.280	1.190	100.630	-1.700	1.600																			1580039717.0	9.78	18.11
26/01/2020 11:55:18	26012020	260120	115518	100.740	12.415573	-57.229492	100.750	-0.030	-0.100	0.960	100.770	-1.500	1.500																			1580039718.0	9.48	17.56
26/01/2020 11:55:19	26012020	260120	115519	100.890	12.415565	-57.229448	100.870	-0.040	-0.010	0.680	100.910	-1.400	1.200																			1580039719.0	9.36	17.33
26/01/2020 11:55:20	26012020	260120	115520	100.970	12.415557	-57.229405	100.890	0.000	-0.100	0.520	100.980	-1.400	1.000																			1580039720.0	9.45	17.50
26/01/2020 11:55:21	26012020	260120	115521	100.970	12.415548	-57.229360	100.860	0.130	-0.340	0.390	100.950	-1.600	0.800																			1580039721.0	9.63	17.83
26/01/2020 11:55:22	26012020	260120	115522	100.910	12.415540	-57.229313	100.810	0.270	-0.600	0.310	100.890	-1.900	0.700																			1580039722.0	9.80	18.15
26/01/2020 11:55:23	26012020	260120	115523	100.840	12.415532	-57.229268	100.730	0.290	-0.720	0.390	100.830	-2.000	0.700																			1580039723.0	9.90	18.33
26/01/2020 11:55:24	26012020	260120	115524	100.760	12.415522	-57.229222	100.660	0.110	-0.520	0.620	100.750	-2.000	0.900																			1580039724.0	9.81	18.17
26/01/2020 11:55:25	26012020	260120	115525	100.710	12.415512	-57.229178	100.650	-0.210	-0.130	0.860	100.710	-1.600	1.100																			1580039725.0	9.53	17.65
26/01/2020 11:55:26	26012020	260120	115526	100.700	12.415500	-57.229135	100.620	-0.420	0.120	1.080	100.700	-1.300	1.400																			1580039726.0	9.39	17.39
26/01/2020 11:55:27	26012020	260120	115527	100.670	12.415488	-57.229092	100.540	-0.340	-0.030	1.150	100.650	-1.300	1.500																			1580039727.0	9.65	17.87
26/01/2020 11:55:28	26012020	260120	115528	100.550	12.415478	-57.229045	100.390	-0.100	-0.340	1.050	100.510	-1.600	1.500																			1580039728.0	10.12	18.74
26/01/2020 11:55:29	26012020	260120	115529	100.360	12.415468	-57.228997	100.230	0.000	-0.270	0.920	100.330	-1.700	1.400																			1580039729.0	10.21	18.91
26/01/2020 11:55:30	26012020	260120	115530	100.280	12.415460	-57.228953	100.270	-0.160	0.180	0.680	100.290	-1.300	1.200																			1580039730.0	9.62	17.82
26/01/2020 11:55:31	26012020	260120	115531	100.400	12.415452	-57.228910	100.480	-0.340	0.380	0.460	100.450	-1.000	0.900																			1580039731.0	9.16	16.96
26/01/2020 11:55:32	26012020	260120	115532	100.650	12.415443	-57.228867	100.700	-0.200	-0.020	0.310	100.700	-1.100	0.700																			1580039732.0	9.53	17.65
26/01/2020 11:55:33	26012020	260120	115533	100.810	12.415433	-57.228820	100.740	0.180	-0.590	0.410	100.810	-1.700	0.700																			1580039733.0	10.13	18.76
26/01/2020 11:55:34	26012020	260120	115534	100.740	12.415422	-57.228772	100.640	0.480	-0.730	0.660	100.720	-2.100	1.000																			1580039734.0	10.19	18.87
26/01/2020 11:55:35	26012020	260120	115535	100.640	12.415412	-57.228728	100.580	0.510	-0.460	0.790	100.630	-1.900	1.100																			1580039735.0	9.65	17.87
26/01/2020 11:55:36	26012020	260120	115536	100.560	12.415403	-57.228685	100.480	0.400	-0.290	0.770	100.550	-1.700	1.200																			1580039736.0	9.36	17.33
26/01/2020 11:55:37	26012020	260120	115537	100.470	12.415397	-57.228638	100.380	0.240	-0.330	0.710	100.450	-1.600	1.100																			1580039737.0	9.68	17.93
26/01/2020 11:55:38	26012020	260120	115538	100.380	12.415388	-57.228593	100.300	-0.020	-0.300	0.690	100.360	-1.700	1.100																			1580039738.0	9.93	18.39
26/01/2020 11:55:39	26012020	260120	115539	100.330	12.415378	-57.228547	100.270	-0.320	-0.120	0.740	100.330	-1.500	1.100																			1580039739.0	9.81	18.17
26/01/2020 11:55:40	26012020	260120	115540	100.280	12.415368	-57.228503	100.200	-0.520	0.020	0.830	100.270	-1.300	1.200																			1580039740.0	9.64	17.85
26/01/2020 11:55:41	26012020	260120	115541	100.180	12.415357	-57.228458	100.050	-0.460	-0.140	0.930	100.150	-1.400	1.300																			1580039741.0	9.81	18.17
26/01/2020 11:55:42	26012020	260120	115542	100.030	12.415345	-57.228412	99.940	-0.270	-0.380	0.990	100.000	-1.600	1.400																			1580039742.0	10.18	18.85
26/01/2020 11:55:43	26012020	260120	115543	99.990	12.415335	-57.228365	99.970	-0.140	-0.310	0.890	100.000	-1.700	1.300																			1580039743.0	10.16	18.82
26/01/2020 11:55:44	26012020	260120	115544	100.080	12.415325	-57.228320	100.070	-0.100	0.040	0.700	100.100	-1.400	1.200																			1580039744.0	9.67	17.91
26/01/2020 11:55:45	26012020	260120	115545	100.170	12.415317	-57.228277	100.130	0.040	0.130	0.570	100.190	-1.200	1.000																			1580039745.0	9.41	17.43
26/01/2020 11:55:46	26012020	260120	115546	100.210	12.415308	-57.228230	100.110	0.350	-0.300	0.570	100.200	-1.400	0.900																			1580039746.0	9.81	18.17
26/01/2020 11:55:47	26012020	260120	115547	100.160	12.415300	-57.228182	100.040	0.640	-0.770	0.700	100.140	-2.000	1.000																			1580039747.0	10.40	19.26
26/01/2020 11:55:48	26012020	260120	115548	100.110	12.415290	-57.228135	100.080	0.620	-0.610	0.820	100.120	-2.100	1.200																			1580039748.0	10.33	19.13
26/01/2020 11:55:49	26012020	260120	115549	100.210	12.415282	-57.228090	100.220	0.220	0.080	0.840	100.240	-1.600	1.200																			1580039749.0	9.54	17.67
26/01/2020 11:55:50	26012020	260120	115550	100.370	12.415275	-57.228048	100.360	-0.290	0.560	0.950	100.390	-0.900	1.300																			1580039750.0	9.03	16.72
26/01/2020 11:55:51	26012020	260120	115551	100.450	12.415265	-57.228005	100.400	-0.500	0.320	1.180	100.460	-0.800	1.500																			1580039751.0	9.34	17.30
26/01/2020 11:55:52	26012020	260120	115552	100.450	12.415253	-57.227958	100.380	-0.300	-0.400	1.330	100.440	-1.400	1.700																			1580039752.0	10.16	18.82
26/01/2020 11:55:53	26012020	260120	115553	100.440	12.415242	-57.227910	100.350	-0.000	-0.910	1.300	100.440	-2.100	1.700																			1580039753.0	10.54	19.52
26/01/2020 11:55:54	26012020	260120	115554	100.360	12.415232	-57.227863	100.230	0.120	-0.860	1.090	100.330	-2.300	1.600																			1580039754.0	10.21	18.91
26/01/2020 11:55:55	26012020	260120	115555	100.210	12.415223	-57.227817	100.060	0.090	-0.470	0.770	100.180	-2.000	1.300																			1580039755.0	9.70	17.96
26/01/2020 11:55:56	26012020	260120	115556	100.050	12.415217	-57.227773	99.910	0.090	-0.240	0.600	100.030	-1.600	1.000																			1580039756.0	9.56	17.71
26/01/2020 11:55:57	26012020	260120	115557	99.910	12.415208	-57.227727	99.790	0.120	-0.270	0.570	99.890	-1.600	1.000																			1580039757.0	9.94	18.41
26/01/2020 11:55:58	26012020	260120	115558	99.830	12.415198	-57.227678	99.760	0.020	-0.210	0.600	99.830	-1.600	1.000																			1580039758.0	10.24	18.96
26/01/2020 11:55:59	26012020	260120	115559	99.860	12.415188	-57.227633	99.820	-0.210	0.140	0.690	99.870	-1.400	1.000																			1580039759.0	9.98	18.48
26/01/2020 11:56:00	26012020	260120	115600	99.910	12.415178	-57.227588	99.850	-0.320	0.440	0.830	99.910	-1.000	1.200	1015.40	26.00	26.10	18.10	18.20	242.00	61.00	61.00	377.00	26.50	350.00	12.10	84.00	7.20	18385	3105.00	27.40	27.40	1580039760.0	9.58	17.74
26/01/2020 11:56:01	26012020	260120	115601	99.920	12.415168	-57.227545	99.910	-0.120	0.270	0.910	99.930	-0.900	1.300																			1580039761.0	9.65	17.87
26/01/2020 11:56:02	26012020	260120	115602	100.030	12.415158	-57.227497	100.060	0.310	-0.290	0.790	100.060	-1.400	1.200																			1580039762.0	10.16	18.82
26/01/2020 11:56:03	26012020	260120	115603	100.180	12.415152	-57.227448	100.160	0.540	-0.620	0.610	100.200	-1.900	1.100																			1580039763.0	10.47	19.39
26/01/2020 11:56:04	26012020	260120	115604	100.220	12.415143	-57.227402	100.110	0.340	-0.350	0.510	100.210	-1.900	0.900																			1580039764.0	10.02	18.56
26/01/2020 11:56:05	26012020	260120	115605	100.160	12.415137	-57.227358	100.010	-0.070	0.050	0.590	100.140	-1.400	0.900																			1580039765.0	9.33	17.28
26/01/2020 11:56:06	26012020	260120	115606	100.040	12.415128	-57.227315	99.930	-0.290	-0.040	0.690	100.030	-1.300	1.000																			1580039766.0	9.34	17.30
26/01/2020 11:56:07	26012020	260120	115607	99.980	12.415118	-57.227268	99.770	-0.180	-0.660	0.830	99.950	-1.700	1.200																			1580039767.0	10.04	18.59
26/01/2020 11:56:08	26012020	260120	115608	99.730	12.415108	-57.227218	99.530	0.030	-1.130	0.970	99.690	-2.400	1.300																			1580039768.0	10.67	19.76
26/01/2020 11:56:09	26012020	260120	115609	99.490	12.415097	-57.227170	99.340	0.060	-0.880	1.090	99.460	-2.400	1.400																			1580039769.0	10.46	19.37
26/01/2020 11:56:10	26012020	260120	115610	99.360	12.415087	-57.227125	99.280	-0.130	-0.170	1.090	99.340	-1.800	1.500																			1580039770.0	9.75	18.06
26/01/2020 11:56:11	26012020	260120	115611	99.360	12.415078	-57.227082	99.380	-0.320	0.410	0.830	99.380	-1.100	1.400																			1580039771.0	9.40	17.41
26/01/2020 11:56:12	26012020	260120	115612	99.510	12.415070	-57.227037	99.550	-0.330	0.460	0.500	99.550	-0.800	1.000																			1580039772.0	9.64	17.85
26/01/2020 11:56:13	26012020	260120	115613	99.660	12.415062	-57.226990	99.620	-0.100	0.050	0.390	99.670	-1.100	0.800																			1580039773.0	10.16	18.82
26/01/2020 11:56:14	26012020	260120	115614	99.690	12.415053	-57.226940	99.650	0.200	-0.330	0.420	99.700	-1.600	0.800																			1580039774.0	10.51	19.46
26/01/2020 11:56:15	26012020	260120	115615	99.780	12.415045	-57.226893	99.820	0.340	-0.270	0.510	99.810	-1.700	0.900																			1580039775.0	10.31	19.09
26/01/2020 11:56:16	26012020	260120	115616	99.990	12.415037	-57.226848	100.040	0.230	0.030	0.650	100.030	-1.400	1.000																			1580039776.0	9.71	17.98
26/01/2020 11:56:17	26012020	260120	115617	100.180	12.415028	-57.226803	100.150	0.110	0.040	0.690	100.200	-1.200	1.100																			1580039777.0	9.48	17.56
26/01/2020 11:56:18	26012020	260120	115618	100.200	12.415020	-57.226758	100.080	0.170	-0.340	0.860	100.180	-1.500	1.200																			1580039778.0	9.88	18.30
26/01/2020 11:56:19	26012020	260120	115619	100.070	12.415010	-57.226710	99.950	0.330	-0.760	1.000	100.050	-2.000	1.400																			1580039779.0	10.32	19.11
26/01/2020 11:56:20	26012020	260120	115620	100.000	12.415002	-57.226662	99.930	0.350	-0.810	0.920	100.000	-2.200	1.400																			1580039780.0	10.36	19.19
26/01/2020 11:56:21	26012020	260120	115621	100.000	12.414993	-57.226615	99.950	0.090	-0.420	0.820	100.010	-1.900	1.300																			1580039781.0	9.98	18.48
26/01/2020 11:56:22	26012020	260120	115622	100.030	12.414985	-57.226570	100.010	-0.340	0.050	0.730	100.050	-1.500	1.200																			1580039782.0	9.59	17.76
26/01/2020 11:56:23	26012020	260120	115623	100.140	12.414975	-57.226527	100.150	-0.650	0.220	0.650	100.170	-1.100	1.100																			1580039783.0	9.57	17.72
26/01/2020 11:56:24	26012020	260120	115624	100.260	12.414965	-57.226480	100.200	-0.600	-0.060	0.550	100.270	-1.200	1.000																			1580039784.0	9.94	18.41
26/01/2020 11:56:25	26012020	260120	115625	100.230	12.414955	-57.226433	100.050	-0.230	-0.570	0.570	100.200	-1.700	0.900																			1580039785.0	10.41	19.28
26/01/2020 11:56:26	26012020	260120	115626	100.030	12.414943	-57.226383	99.900	0.140	-0.830	0.660	100.000	-2.100	1.000																			1580039786.0	10.70	19.82
26/01/2020 11:56:27	26012020	260120	115627	99.960	12.414933	-57.226335	99.940	0.210	-0.480	0.670	99.980	-2.000	1.100																			1580039787.0	10.35	19.17
26/01/2020 11:56:28	26012020	260120	115628	100.070	12.414925	-57.226290	100.060	0.070	0.120	0.680	100.090	-1.400	1.100																			1580039788.0	9.69	17.95
26/01/2020 11:56:29	26012020	260120	115629	100.150	12.414917	-57.226245	100.110	0.010	0.350	0.690	100.160	-1.000	1.100																			1580039789.0	9.57	17.72
26/01/2020 11:56:30	26012020	260120	115630	100.220	12.414907	-57.226200	100.190	0.140	0.180	0.670	100.230	-1.100	1.100																			1580039790.0	10.03	18.58
26/01/2020 11:56:31	26012020	260120	115631	100.330	12.414898	-57.226152	100.360	0.320	-0.030	0.610	100.370	-1.300	1.000																			1580039791.0	10.34	19.15
26/01/2020 11:56:32	26012020	260120	115632	100.550	12.414890	-57.226103	100.590	0.370	-0.070	0.600	100.590	-1.400	1.000																			1580039792.0	10.17	18.83
26/01/2020 11:56:33	26012020	260120	115633	100.780	12.414882	-57.226058	100.770	0.280	-0.140	0.600	100.810	-1.400	1.000																			1580039793.0	9.86	18.26
26/01/2020 11:56:34	26012020	260120	115634	100.880	12.414873	-57.226012	100.820	0.160	-0.390	0.670	100.880	-1.600	1.000																			1580039794.0	9.93	18.39
26/01/2020 11:56:35	26012020	260120	115635	100.890	12.414863	-57.225965	100.820	-0.000	-0.570	0.880	100.890	-1.900	1.200																			1580039795.0	10.12	18.74
26/01/2020 11:56:36	26012020	260120	115636	100.850	12.414853	-57.225918	100.730	-0.200	-0.560	1.140	100.830	-1.900	1.400																			1580039796.0	9.99	18.50
26/01/2020 11:56:37	26012020	260120	115637	100.700	12.414842	-57.225873	100.520	-0.290	-0.620	1.370	100.650	-1.900	1.700																			1580039797.0	9.91	18.35
26/01/2020 11:56:38	26012020	260120	115638	100.440	12.414830	-57.225827	100.240	-0.190	-0.800	1.460	100.380	-2.100	1.800																			1580039798.0	10.22	18.93
26/01/2020 11:56:39	26012020	260120	115639	100.150	12.414820	-57.225778	99.950	-0.070	-0.780	1.400	100.080	-2.200	1.800																			1580039799.0	10.52	19.48
26/01/2020 11:56:40	26012020	260120	115640	99.870	12.414810	-57.225730	99.740	-0.150	-0.280	1.090	99.830	-1.900	1.600																			1580039800.0	10.32	19.11
26/01/2020 11:56:41	26012020	260120	115641	99.750	12.414802	-57.225685	99.710	-0.320	0.330	0.700	99.750	-1.200	1.200																			1580039801.0	9.83	18.21
26/01/2020 11:56:42	26012020	260120	115642	99.810	12.414793	-57.225638	99.870	-0.310	0.500	0.400	99.850	-0.800	0.900																			1580039802.0	9.84	18.22
26/01/2020 11:56:43	26012020	260120	115643	100.000	12.414785	-57.225592	100.170	-0.080	0.290	0.180	100.060	-0.900	0.700																			1580039803.0	10.27	19.02
26/01/2020 11:56:44	26012020	260120	115644	100.380	12.414775	-57.225542	100.460	0.210	0.050	0.080	100.440	-1.200	0.500																			1580039804.0	10.48	19.41
26/01/2020 11:56:45	26012020	260120	115645	100.640	12.414767	-57.225495	100.690	0.370	0.060	0.220	100.680	-1.300	0.500																			1580039805.0	10.24	18.96
26/01/2020 11:56:46	26012020	260120	115646	100.870	12.414757	-57.225450	100.930	0.390	0.080	0.420	100.920	-1.200	0.700																			1580039806.0	9.79	18.13
26/01/2020 11:56:47	26012020	260120	115647	101.100	12.414748	-57.225403	101.140	0.380	-0.230	0.570	101.140	-1.400	0.900																			1580039807.0	9.76	18.08
26/01/2020 11:56:48	26012020	260120	115648	101.210	12.414740	-57.225357	101.140	0.370	-0.710	0.760	101.200	-1.900	1.100																			1580039808.0	10.13	18.76
26/01/2020 11:56:49	26012020	260120	115649	101.100	12.414732	-57.225310	100.940	0.230	-0.910	1.080	101.060	-2.200	1.300																			1580039809.0	10.27	19.02
26/01/2020 11:56:50	26012020	260120	115650	100.810	12.414720	-57.225263	100.590	-0.030	-0.860	1.460	100.740	-2.200	1.700																			1580039810.0	10.01	18.54
26/01/2020 11:56:51	26012020	260120	115651	100.440	12.414708	-57.225217	100.260	-0.210	-0.840	1.590	100.370	-2.200	2.000																			1580039811.0	10.03	18.58
26/01/2020 11:56:52	26012020	260120	115652	100.190	12.414698	-57.225170	100.100	-0.220	-0.790	1.360	100.160	-2.200	1.900																			1580039812.0	10.36	19.19
26/01/2020 11:56:53	26012020	260120	115653	100.050	12.414688	-57.225120	99.960	-0.260	-0.400	1.100	100.030	-1.900	1.600																			1580039813.0	10.47	19.39
26/01/2020 11:56:54	26012020	260120	115654	99.950	12.414678	-57.225073	99.930	-0.440	0.290	0.920	99.950	-1.300	1.400																			1580039814.0	10.10	18.71
26/01/2020 11:56:55	26012020	260120	115655	100.000	12.414668	-57.225028	100.100	-0.590	0.790	0.680	100.030	-0.700	1.200																			1580039815.0	9.76	18.08
26/01/2020 11:56:56	26012020	260120	115656	100.290	12.414658	-57.224983	100.420	-0.470	0.680	0.400	100.360	-0.500	0.900																			1580039816.0	9.93	18.39
26/01/2020 11:56:57	26012020	260120	115657	100.560	12.414650	-57.224935	100.740	-0.100	0.090	0.170	100.630	-1.000	0.600																			1580039817.0	10.47	19.39
26/01/2020 11:56:58	26012020	260120	115658	100.940	12.414640	-57.224885	101.030	0.300	-0.370	0.120	100.980	-1.600	0.500																			1580039818.0	10.69	19.80
26/01/2020 11:56:59	26012020	260120	115659	101.170	12.414632	-57.224837	101.230	0.520	-0.410	0.270	101.210	-1.800	0.600																			1580039819.0	10.30	19.08
26/01/2020 11:57:00	26012020	260120	115700	101.360	12.414623	-57.224792	101.400	0.520	-0.280	0.460	101.390	-1.700	0.800	1015.40	26.00	26.10	18.30	18.30	252.00	62.00	62.00	376.00	26.50	351.00	12.50	85.00	7.40	18857	3029.00	27.40	27.40	1580039820.0	9.79	18.13
26/01/2020 11:57:01	26012020	260120	115701	101.490	12.414615	-57.224747	101.490	0.370	-0.340	0.700	101.510	-1.600	1.000																			1580039821.0	9.73	18.02
26/01/2020 11:57:02	26012020	260120	115702	101.490	12.414605	-57.224700	101.350	0.130	-0.530	1.060	101.450	-1.800	1.300																			1580039822.0	10.02	18.56
26/01/2020 11:57:03	26012020	260120	115703	101.230	12.414593	-57.224653	101.030	-0.090	-0.590	1.320	101.150	-1.900	1.600																			1580039823.0	10.16	18.82
26/01/2020 11:57:04	26012020	260120	115704	100.890	12.414582	-57.224607	100.760	-0.130	-0.600	1.250	100.840	-1.900	1.700																			1580039824.0	10.12	18.74
26/01/2020 11:57:05	26012020	260120	115705	100.680	12.414572	-57.224558	100.590	0.010	-0.640	0.970	100.650	-2.000	1.500																			1580039825.0	10.29	19.06
26/01/2020 11:57:06	26012020	260120	115706	100.550	12.414563	-57.224510	100.470	0.060	-0.480	0.690	100.530	-1.900	1.200																			1580039826.0	10.45	19.35
26/01/2020 11:57:07	26012020	260120	115707	100.470	12.414553	-57.224463	100.420	-0.110	-0.030	0.530	100.460	-1.600	1.000																			1580039827.0	10.19	18.87
26/01/2020 11:57:08	26012020	260120	115708	100.500	12.414545	-57.224417	100.550	-0.350	0.350	0.440	100.540	-1.100	0.900																			1580039828.0	9.87	18.28
26/01/2020 11:57:09	26012020	260120	115709	100.700	12.414535	-57.224372	100.730	-0.380	0.300	0.420	100.740	-1.000	0.800																			1580039829.0	9.95	18.43
26/01/2020 11:57:10	26012020	260120	115710	100.840	12.414523	-57.224323	100.830	-0.210	-0.080	0.610	100.860	-1.300	0.900																			1580039830.0	10.43	19.32
26/01/2020 11:57:11	26012020	260120	115711	100.910	12.414512	-57.224275	100.920	-0.050	-0.270	0.880	100.930	-1.600	1.200																			1580039831.0	10.57	19.58
26/01/2020 11:57:12	26012020	260120	115712	100.980	12.414500	-57.224228	100.980	0.010	-0.250	0.990	101.000	-1.600	1.400																			1580039832.0	10.19	18.87
26/01/2020 11:57:13	26012020	260120	115713	101.040	12.414490	-57.224182	101.020	0.040	-0.270	0.830	101.050	-1.600	1.300																			1580039833.0	9.96	18.45
26/01/2020 11:57:14	26012020	260120	115714	101.040	12.414482	-57.224135	100.970	0.120	-0.350	0.730	101.030	-1.700	1.100																			1580039834.0	10.09	18.69
26/01/2020 11:57:15	26012020	260120	115715	100.940	12.414473	-57.224088	100.830	0.210	-0.360	0.700	100.900	-1.700	1.100																			1580039835.0	10.14	18.78
26/01/2020 11:57:16	26012020	260120	115716	100.780	12.414463	-57.224042	100.690	0.220	-0.330	0.740	100.750	-1.700	1.100																			1580039836.0	10.11	18.72
26/01/2020 11:57:17	26012020	260120	115717	100.660	12.414453	-57.223993	100.600	0.140	-0.370	0.820	100.640	-1.700	1.200																			1580039837.0	10.16	18.82
26/01/2020 11:57:18	26012020	260120	115718	100.600	12.414445	-57.223947	100.540	0.050	-0.400	0.880	100.590	-1.700	1.300																			1580039838.0	10.24	18.96
26/01/2020 11:57:19	26012020	260120	115719	100.550	12.414433	-57.223898	100.470	0.050	-0.400	1.020	100.530	-1.800	1.400																			1580039839.0	10.29	19.06
26/01/2020 11:57:20	26012020	260120	115720	100.480	12.414423	-57.223852	100.460	0.090	-0.220	1.140	100.480	-1.700	1.500																			1580039840.0	10.30	19.08
26/01/2020 11:57:21	26012020	260120	115721	100.520	12.414413	-57.223805	100.520	0.050	0.050	1.150	100.530	-1.400	1.600																			1580039841.0	10.09	18.69
26/01/2020 11:57:22	26012020	260120	115722	100.570	12.414403	-57.223758	100.570	-0.060	0.100	1.060	100.590	-1.200	1.500																			1580039842.0	10.01	18.54
26/01/2020 11:57:23	26012020	260120	115723	100.620	12.414393	-57.223712	100.620	-0.160	-0.040	0.950	100.630	-1.300	1.400																			1580039843.0	10.21	18.91
26/01/2020 11:57:24	26012020	260120	115724	100.710	12.414385	-57.223663	100.730	-0.220	-0.180	0.780	100.730	-1.500	1.300																			1580039844.0	10.30	19.08
26/01/2020 11:57:25	26012020	260120	115725	100.830	12.414375	-57.223617	100.810	-0.220	-0.310	0.660	100.850	-1.600	1.100																			1580039845.0	10.19	18.87
26/01/2020 11:57:26	26012020	260120	115726	100.840	12.414365	-57.223568	100.710	-0.080	-0.530	0.720	100.820	-1.800	1.100																			1580039846.0	10.24	18.96
26/01/2020 11:57:27	26012020	260120	115727	100.680	12.414355	-57.223520	100.510	0.120	-0.700	0.950	100.640	-2.000	1.300																			1580039847.0	10.40	19.26
26/01/2020 11:57:28	26012020	260120	115728	100.480	12.414345	-57.223472	100.350	0.210	-0.650	1.080	100.440	-2.000	1.500																			1580039848.0	10.44	19.33
26/01/2020 11:57:29	26012020	260120	115729	100.380	12.414335	-57.223425	100.320	0.130	-0.340	1.030	100.370	-1.800	1.500																			1580039849.0	10.26	19.00
26/01/2020 11:57:30	26012020	260120	115730	100.390	12.414325	-57.223378	100.370	-0.050	0.070	0.910	100.400	-1.400	1.400																			1580039850.0	10.03	18.58
26/01/2020 11:57:31	26012020	260120	115731	100.470	12.414317	-57.223332	100.430	-0.100	0.190	0.710	100.480	-1.200	1.200																			1580039851.0	10.00	18.52
26/01/2020 11:57:32	26012020	260120	115732	100.500	12.414307	-57.223283	100.410	0.020	-0.010	0.500	100.500	-1.300	1.000																			1580039852.0	10.36	19.19
26/01/2020 11:57:33	26012020	260120	115733	100.460	12.414298	-57.223235	100.370	0.130	-0.160	0.460	100.450	-1.500	0.900																			1580039853.0	10.58	19.59
26/01/2020 11:57:34	26012020	260120	115734	100.490	12.414290	-57.223187	100.500	0.040	-0.070	0.450	100.530	-1.500	0.900																			1580039854.0	10.38	19.22
26/01/2020 11:57:35	26012020	260120	115735	100.700	12.414280	-57.223140	100.720	-0.180	0.030	0.480	100.740	-1.300	0.800																			1580039855.0	9.99	18.50
26/01/2020 11:57:36	26012020	260120	115736	100.890	12.414270	-57.223093	100.860	-0.290	-0.080	0.610	100.910	-1.400	0.900																			1580039856.0	9.97	18.46
26/01/2020 11:57:37	26012020	260120	115737	100.940	12.414258	-57.223047	100.840	-0.160	-0.410	0.780	100.930	-1.600	1.100																			1580039857.0	10.21	18.91
26/01/2020 11:57:38	26012020	260120	115738	100.860	12.414247	-57.222998	100.710	0.190	-0.840	0.940	100.830	-2.000	1.300																			1580039858.0	10.49	19.43
26/01/2020 11:57:39	26012020	260120	115739	100.710	12.414237	-57.222948	100.570	0.480	-1.030	0.980	100.680	-2.400	1.400																			1580039859.0	10.72	19.85
26/01/2020 11:57:40	26012020	260120	115740	100.610	12.414227	-57.222900	100.530	0.390	-0.660	0.800	100.610	-2.200	1.300																			1580039860.0	10.51	19.46
26/01/2020 11:57:41	26012020	260120	115741	100.600	12.414218	-57.222853	100.490	-0.040	0.090	0.640	100.590	-1.500	1.100																			1580039861.0	9.92	18.37
26/01/2020 11:57:42	26012020	260120	115742	100.550	12.414210	-57.222810	100.450	-0.430	0.520	0.590	100.550	-0.900	1.000																			1580039862.0	9.59	17.76
26/01/2020 11:57:43	26012020	260120	115743	100.520	12.414200	-57.222763	100.420	-0.420	0.130	0.680	100.510	-1.000	1.000																			1580039863.0	10.09	18.69
26/01/2020 11:57:44	26012020	260120	115744	100.470	12.414188	-57.222712	100.370	-0.080	-0.640	0.870	100.450	-1.700	1.200																			1580039864.0	11.00	20.37
26/01/2020 11:57:45	26012020	260120	115745	100.440	12.414177	-57.222660	100.380	0.110	-0.710	1.050	100.440	-2.200	1.400																			1580039865.0	11.25	20.84
26/01/2020 11:57:46	26012020	260120	115746	100.480	12.414165	-57.222613	100.480	-0.140	0.090	1.160	100.500	-1.600	1.500																			1580039866.0	10.22	18.93
26/01/2020 11:57:47	26012020	260120	115747	100.590	12.414155	-57.222572	100.620	-0.460	0.680	1.040	100.610	-0.800	1.500																			1580039867.0	9.24	17.11
26/01/2020 11:57:48	26012020	260120	115748	100.730	12.414145	-57.222527	100.680	-0.310	0.240	0.750	100.750	-0.800	1.300																			1580039868.0	9.66	17.89
26/01/2020 11:57:49	26012020	260120	115749	100.750	12.414137	-57.222477	100.660	0.260	-0.650	0.560	100.740	-1.700	1.000																			1580039869.0	10.78	19.96
26/01/2020 11:57:50	26012020	260120	115750	100.710	12.414127	-57.222425	100.630	0.710	-0.960	0.510	100.700	-2.300	0.900																			1580039870.0	11.08	20.52
26/01/2020 11:57:51	26012020	260120	115751	100.710	12.414118	-57.222377	100.670	0.630	-0.500	0.500	100.720	-2.100	0.900																			1580039871.0	10.32	19.11
26/01/2020 11:57:52	26012020	260120	115752	100.770	12.414110	-57.222332	100.710	0.200	0.010	0.570	100.770	-1.500	0.900																			1580039872.0	9.53	17.65
26/01/2020 11:57:53	26012020	260120	115753	100.790	12.414102	-57.222287	100.750	-0.150	-0.030	0.780	100.800	-1.300	1.100																			1580039873.0	9.74	18.04
26/01/2020 11:57:54	26012020	260120	115754	100.820	12.414090	-57.222240	100.770	-0.240	-0.330	1.130	100.830	-1.600	1.400																			1580039874.0	10.41	19.28
26/01/2020 11:57:55	26012020	260120	115755	100.790	12.414077	-57.222192	100.690	-0.210	-0.490	1.350	100.780	-1.800	1.700																			1580039875.0	10.58	19.59
26/01/2020 11:57:56	26012020	260120	115756	100.660	12.414065	-57.222143	100.510	-0.140	-0.550	1.350	100.620	-1.900	1.800																			1580039876.0	10.45	19.35
26/01/2020 11:57:57	26012020	260120	115757	100.500	12.414055	-57.222095	100.410	-0.080	-0.530	1.200	100.480	-1.900	1.700																			1580039877.0	10.45	19.35
26/01/2020 11:57:58	26012020	260120	115758	100.480	12.414045	-57.222047	100.440	-0.120	-0.260	0.950	100.490	-1.800	1.500																			1580039878.0	10.41	19.28
26/01/2020 11:57:59	26012020	260120	115759	100.540	12.414035	-57.222000	100.520	-0.240	0.200	0.630	100.560	-1.300	1.100																			1580039879.0	10.08	18.67
26/01/2020 11:58:00	26012020	260120	115800	100.620	12.414027	-57.221955	100.570	-0.310	0.460	0.450	100.630	-0.900	0.900	1015.40	26.00	26.10	18.40	18.50	261.00	62.00	63.00	376.00	26.50	350.00	12.30	83.00	7.20	19276	3110.00	27.40	27.40	1580039880.0	9.82	18.19
26/01/2020 11:58:01	26012020	260120	115801	100.640	12.414017	-57.221908	100.570	-0.160	0.150	0.470	100.640	-1.000	0.800																			1580039881.0	10.08	18.67
26/01/2020 11:58:02	26012020	260120	115802	100.610	12.414007	-57.221858	100.560	0.160	-0.380	0.570	100.610	-1.500	0.900																			1580039882.0	10.65	19.72
26/01/2020 11:58:03	26012020	260120	115803	100.600	12.413997	-57.221808	100.570	0.400	-0.590	0.680	100.600	-1.900	1.000																			1580039883.0	10.72	19.85
26/01/2020 11:58:04	26012020	260120	115804	100.620	12.413987	-57.221762	100.590	0.400	-0.360	0.830	100.620	-1.800	1.200																			1580039884.0	10.24	18.96
26/01/2020 11:58:05	26012020	260120	115805	100.630	12.413977	-57.221715	100.580	0.250	-0.160	0.920	100.630	-1.600	1.300																			1580039885.0	9.81	18.17
26/01/2020 11:58:06	26012020	260120	115806	100.580	12.413967	-57.221670	100.490	0.130	-0.320	0.970	100.560	-1.600	1.400																			1580039886.0	10.01	18.54
26/01/2020 11:58:07	26012020	260120	115807	100.480	12.413958	-57.221622	100.400	0.060	-0.550	0.990	100.460	-1.800	1.400																			1580039887.0	10.48	19.41
26/01/2020 11:58:08	26012020	260120	115808	100.400	12.413947	-57.221572	100.310	-0.040	-0.490	1.060	100.380	-1.900	1.400																			1580039888.0	10.49	19.43
26/01/2020 11:58:09	26012020	260120	115809	100.330	12.413937	-57.221525	100.200	-0.170	-0.220	1.120	100.310	-1.700	1.500																			1580039889.0	10.17	18.83
26/01/2020 11:58:10	26012020	260120	115810	100.210	12.413925	-57.221480	100.140	-0.250	-0.050	0.950	100.200	-1.400	1.400																			1580039890.0	10.05	18.61
26/01/2020 11:58:11	26012020	260120	115811	100.190	12.413917	-57.221432	100.100	-0.260	-0.070	0.680	100.180	-1.400	1.200																			1580039891.0	10.20	18.89
26/01/2020 11:58:12	26012020	260120	115812	100.150	12.413907	-57.221383	100.070	-0.180	-0.220	0.630	100.140	-1.500	1.000																			1580039892.0	10.39	19.24
26/01/2020 11:58:13	26012020	260120	115813	100.150	12.413897	-57.221335	100.110	-0.080	-0.330	0.700	100.160	-1.600	1.100																			1580039893.0	10.52	19.48
26/01/2020 11:58:14	26012020	260120	115814	100.210	12.413887	-57.221287	100.210	-0.030	-0.280	0.810	100.230	-1.700	1.200																			1580039894.0	10.41	19.28
26/01/2020 11:58:15	26012020	260120	115815	100.330	12.413875	-57.221240	100.350	0.000	-0.060	0.920	100.360	-1.500	1.300																			1580039895.0	10.23	18.95
26/01/2020 11:58:16	26012020	260120	115816	100.470	12.413865	-57.221193	100.450	0.010	0.170	1.030	100.480	-1.200	1.400																			1580039896.0	10.00	18.52
26/01/2020 11:58:17	26012020	260120	115817	100.530	12.413855	-57.221148	100.470	0.110	0.020	1.070	100.540	-1.200	1.500																			1580039897.0	9.98	18.48
26/01/2020 11:58:18	26012020	260120	115818	100.500	12.413845	-57.221100	100.390	0.350	-0.490	1.080	100.490	-1.600	1.500																			1580039898.0	10.39	19.24
26/01/2020 11:58:19	26012020	260120	115819	100.390	12.413837	-57.221050	100.260	0.580	-0.880	1.110	100.360	-2.100	1.500																			1580039899.0	10.77	19.95
26/01/2020 11:58:20	26012020	260120	115820	100.260	12.413828	-57.221000	100.160	0.480	-0.770	1.150	100.240	-2.200	1.500																			1580039900.0	10.62	19.67
26/01/2020 11:58:21	26012020	260120	115821	100.210	12.413820	-57.220953	100.150	-0.010	-0.220	1.250	100.210	-1.800	1.600																			1580039901.0	10.09	18.69
26/01/2020 11:58:22	26012020	260120	115822	100.200	12.413810	-57.220908	100.100	-0.570	0.190	1.460	100.190	-1.300	1.800																			1580039902.0	9.69	17.95
26/01/2020 11:58:23	26012020	260120	115823	100.100	12.413798	-57.220862	99.970	-0.770	0.060	1.550	100.070	-1.200	1.900																			1580039903.0	10.03	18.58
26/01/2020 11:58:24	26012020	260120	115824	99.950	12.413785	-57.220813	99.840	-0.530	-0.350	1.410	99.930	-1.500	1.900																			1580039904.0	10.67	19.76
26/01/2020 11:58:25	26012020	260120	115825	99.860	12.413775	-57.220763	99.770	-0.100	-0.500	1.050	99.840	-1.800	1.600																			1580039905.0	10.83	20.06
26/01/2020 11:58:26	26012020	260120	115826	99.850	12.413765	-57.220715	99.830	0.230	-0.280	0.530	99.870	-1.700	1.100																			1580039906.0	10.48	19.41
26/01/2020 11:58:27	26012020	260120	115827	100.000	12.413758	-57.220668	100.030	0.310	0.120	0.120	100.050	-1.400	0.600																			1580039907.0	10.07	18.65
26/01/2020 11:58:28	26012020	260120	115828	100.230	12.413752	-57.220622	100.270	0.180	0.360	0.060	100.280	-1.000	0.400																			1580039908.0	9.86	18.26
26/01/2020 11:58:29	26012020	260120	115829	100.480	12.413743	-57.220575	100.500	0.050	0.200	0.240	100.520	-1.000	0.500																			1580039909.0	9.94	18.41
26/01/2020 11:58:30	26012020	260120	115830	100.620	12.413733	-57.220528	100.550	0.100	-0.290	0.510	100.630	-1.400	0.800																			1580039910.0	10.28	19.04
26/01/2020 11:58:31	26012020	260120	115831	100.590	12.413723	-57.220478	100.450	0.270	-0.760	0.780	100.570	-1.900	1.100																			1580039911.0	10.58	19.59
26/01/2020 11:58:32	26012020	260120	115832	100.440	12.413713	-57.220430	100.260	0.320	-0.950	1.030	100.400	-2.200	1.300																			1580039912.0	10.52	19.48
26/01/2020 11:58:33	26012020	260120	115833	100.180	12.413703	-57.220382	99.960	0.170	-0.880	1.210	100.120	-2.300	1.500																			1580039913.0	10.33	19.13
26/01/2020 11:58:34	26012020	260120	115834	99.880	12.413693	-57.220335	99.670	-0.120	-0.590	1.220	99.830	-2.100	1.600																			1580039914.0	10.24	18.96
26/01/2020 11:58:35	26012020	260120	115835	99.660	12.413683	-57.220288	99.470	-0.400	-0.170	1.160	99.620	-1.700	1.600																			1580039915.0	10.16	18.82
26/01/2020 11:58:36	26012020	260120	115836	99.490	12.413673	-57.220240	99.440	-0.540	0.110	1.040	99.490	-1.300	1.500																			1580039916.0	10.14	18.78
26/01/2020 11:58:37	26012020	260120	115837	99.510	12.413663	-57.220193	99.520	-0.450	0.130	0.900	99.540	-1.200	1.300																			1580039917.0	10.32	19.11
26/01/2020 11:58:38	26012020	260120	115838	99.610	12.413652	-57.220143	99.570	-0.170	-0.040	0.860	99.620	-1.300	1.300																			1580039918.0	10.60	19.63
26/01/2020 11:58:39	26012020	260120	115839	99.660	12.413642	-57.220095	99.660	0.110	-0.140	0.770	99.680	-1.500	1.200																			1580039919.0	10.71	19.83
26/01/2020 11:58:40	26012020	260120	115840	99.810	12.413633	-57.220047	99.910	0.240	0.030	0.560	99.860	-1.400	1.000																			1580039920.0	10.46	19.37
26/01/2020 11:58:41	26012020	260120	115841	100.140	12.413625	-57.220000	100.250	0.190	0.300	0.450	100.200	-1.100	0.900																			1580039921.0	10.03	18.58
26/01/2020 11:58:42	26012020	260120	115842	100.440	12.413617	-57.219953	100.470	0.070	0.310	0.540	100.480	-1.000	0.900																			1580039922.0	9.82	18.19
26/01/2020 11:58:43	26012020	260120	115843	100.560	12.413607	-57.219907	100.500	0.070	-0.130	0.760	100.570	-1.300	1.100																			1580039923.0	10.03	18.58
26/01/2020 11:58:44	26012020	260120	115844	100.510	12.413597	-57.219858	100.400	0.190	-0.760	1.020	100.490	-1.900	1.300																			1580039924.0	10.49	19.43
26/01/2020 11:58:45	26012020	260120	115845	100.390	12.413587	-57.219810	100.320	0.240	-1.030	1.120	100.380	-2.300	1.500																			1580039925.0	10.63	19.69
26/01/2020 11:58:46	26012020	260120	115846	100.360	12.413577	-57.219762	100.280	0.130	-0.840	0.940	100.350	-2.300	1.400																			1580039926.0	10.25	18.98
26/01/2020 11:58:47	26012020	260120	115847	100.300	12.413568	-57.219715	100.150	0.010	-0.550	0.850	100.270	-2.000	1.300																			1580039927.0	9.93	18.39
26/01/2020 11:58:48	26012020	260120	115848	100.140	12.413560	-57.219668	99.970	0.040	-0.490	0.900	100.100	-1.800	1.300																			1580039928.0	10.11	18.72
26/01/2020 11:58:49	26012020	260120	115849	99.940	12.413550	-57.219620	99.760	0.140	-0.590	1.040	99.900	-1.900	1.400																			1580039929.0	10.59	19.61
26/01/2020 11:58:50	26012020	260120	115850	99.720	12.413540	-57.219570	99.560	0.100	-0.470	1.110	99.690	-1.900	1.500																			1580039930.0	10.86	20.11
26/01/2020 11:58:51	26012020	260120	115851	99.580	12.413530	-57.219520	99.520	-0.220	0.140	1.040	99.570	-1.500	1.500																			1580039931.0	10.53	19.50
26/01/2020 11:58:52	26012020	260120	115852	99.630	12.413520	-57.219475	99.690	-0.620	0.720	0.950	99.670	-0.800	1.400																			1580039932.0	9.93	18.39
26/01/2020 11:58:53	26012020	260120	115853	99.890	12.413510	-57.219428	100.000	-0.730	0.700	0.790	99.950	-0.600	1.300																			1580039933.0	9.94	18.41
26/01/2020 11:58:54	26012020	260120	115854	100.170	12.413500	-57.219380	100.210	-0.380	0.120	0.610	100.210	-1.000	1.100																			1580039934.0	10.54	19.52
26/01/2020 11:58:55	26012020	260120	115855	100.320	12.413488	-57.219330	100.340	0.110	-0.380	0.520	100.340	-1.600	0.900																			1580039935.0	10.93	20.24
26/01/2020 11:58:56	26012020	260120	115856	100.470	12.413478	-57.219280	100.540	0.340	-0.230	0.310	100.510	-1.700	0.800																			1580039936.0	10.50	19.45
26/01/2020 11:58:57	26012020	260120	115857	100.710	12.413472	-57.219235	100.750	0.260	0.100	0.110	100.750	-1.300	0.600																			1580039937.0	9.63	17.83
26/01/2020 11:58:58	26012020	260120	115858	100.860	12.413465	-57.219192	100.800	0.200	-0.210	0.110	100.870	-1.300	0.500																			1580039938.0	9.56	17.71
26/01/2020 11:58:59	26012020	260120	115859	100.840	12.413455	-57.219143	100.590	0.390	-1.030	0.400	100.800	-2.000	0.600																			1580039939.0	10.40	19.26
26/01/2020 11:59:00	26012020	260120	115900	100.480	12.413445	-57.219092	100.220	0.600	-1.460	0.770	100.400	-2.700	1.000	1015.50	26.00	26.10	18.10	18.20	261.00	61.00	61.00	376.00	26.50	350.00	12.70	83.00	7.50	19440	3132.00	27.40	27.30	1580039940.0	10.98	20.33
26/01/2020 11:59:01	26012020	260120	115901	100.130	12.413435	-57.219043	99.940	0.510	-1.010	0.970	100.080	-2.600	1.300																			1580039941.0	10.57	19.58
26/01/2020 11:59:02	26012020	260120	115902	99.880	12.413425	-57.218997	99.740	0.120	-0.230	1.020	99.840	-1.900	1.400																			1580039942.0	9.83	18.21
26/01/2020 11:59:03	26012020	260120	115903	99.710	12.413417	-57.218952	99.640	-0.340	0.220	0.960	99.690	-1.200	1.400																			1580039943.0	9.79	18.13
26/01/2020 11:59:04	26012020	260120	115904	99.650	12.413407	-57.218905	99.610	-0.610	0.190	1.010	99.650	-1.100	1.400																			1580039944.0	10.27	19.02
26/01/2020 11:59:05	26012020	260120	115905	99.620	12.413395	-57.218855	99.590	-0.560	-0.070	1.100	99.610	-1.300	1.500																			1580039945.0	10.78	19.96
26/01/2020 11:59:06	26012020	260120	115906	99.620	12.413383	-57.218805	99.630	-0.350	-0.220	1.110	99.630	-1.500	1.500																			1580039946.0	10.92	20.22
26/01/2020 11:59:07	26012020	260120	115907	99.700	12.413372	-57.218755	99.740	-0.160	-0.070	1.030	99.720	-1.500	1.500																			1580039947.0	10.65	19.72
26/01/2020 11:59:08	26012020	260120	115908	99.870	12.413362	-57.218708	100.020	-0.110	0.270	0.840	99.930	-1.200	1.300																			1580039948.0	10.21	18.91
26/01/2020 11:59:09	26012020	260120	115909	100.230	12.413353	-57.218663	100.410	-0.110	0.490	0.610	100.310	-0.900	1.100																			1580039949.0	9.86	18.26
26/01/2020 11:59:10	26012020	260120	115910	100.610	12.413345	-57.218617	100.710	-0.040	0.310	0.380	100.670	-0.900	0.900																			1580039950.0	9.87	18.28
26/01/2020 11:59:11	26012020	260120	115911	100.820	12.413337	-57.218570	100.770	0.190	-0.220	0.330	100.830	-1.300	0.700																			1580039951.0	10.18	18.85
26/01/2020 11:59:12	26012020	260120	115912	100.760	12.413327	-57.218520	100.590	0.520	-0.850	0.500	100.720	-1.900	0.800																			1580039952.0	10.45	19.35
26/01/2020 11:59:13	26012020	260120	115913	100.570	12.413318	-57.218472	100.340	0.760	-1.270	0.690	100.520	-2.500	1.000																			1580039953.0	10.62	19.67
26/01/2020 11:59:14	26012020	260120	115914	100.280	12.413310	-57.218422	100.140	0.670	-1.140	0.780	100.250	-2.600	1.200																			1580039954.0	10.50	19.45
26/01/2020 11:59:15	26012020	260120	115915	100.140	12.413302	-57.218375	100.040	0.300	-0.570	0.870	100.130	-2.200	1.200																			1580039955.0	10.04	18.59
26/01/2020 11:59:16	26012020	260120	115916	100.080	12.413293	-57.218330	99.960	-0.140	-0.040	1.050	100.060	-1.600	1.400																			1580039956.0	9.84	18.22
26/01/2020 11:59:17	26012020	260120	115917	99.970	12.413282	-57.218283	99.870	-0.460	0.150	1.100	99.950	-1.200	1.500																			1580039957.0	10.12	18.74
26/01/2020 11:59:18	26012020	260120	115918	99.890	12.413272	-57.218235	99.840	-0.540	-0.020	0.890	99.890	-1.300	1.400																			1580039958.0	10.52	19.48
26/01/2020 11:59:19	26012020	260120	115919	99.890	12.413262	-57.218185	99.880	-0.390	-0.240	0.640	99.900	-1.500	1.100																			1580039959.0	10.84	20.08
26/01/2020 11:59:20	26012020	260120	115920	99.970	12.413252	-57.218135	100.000	-0.230	-0.140	0.460	100.000	-1.600	0.900																			1580039960.0	10.77	19.95
26/01/2020 11:59:21	26012020	260120	115921	100.120	12.413242	-57.218087	100.170	-0.200	0.240	0.360	100.160	-1.300	0.800																			1580039961.0	10.25	18.98
26/01/2020 11:59:22	26012020	260120	115922	100.290	12.413232	-57.218042	100.310	-0.230	0.450	0.300	100.330	-0.900	0.700																			1580039962.0	9.88	18.30
26/01/2020 11:59:23	26012020	260120	115923	100.440	12.413223	-57.217995	100.460	-0.090	0.150	0.320	100.470	-1.000	0.700																			1580039963.0	10.00	18.52
26/01/2020 11:59:24	26012020	260120	115924	100.570	12.413213	-57.217947	100.580	0.200	-0.490	0.430	100.600	-1.600	0.800																			1580039964.0	10.52	19.48
26/01/2020 11:59:25	26012020	260120	115925	100.650	12.413203	-57.217897	100.590	0.400	-0.900	0.670	100.660	-2.100	1.000																			1580039965.0	10.78	19.96
26/01/2020 11:59:26	26012020	260120	115926	100.620	12.413193	-57.217848	100.490	0.370	-0.770	0.960	100.600	-2.200	1.200																			1580039966.0	10.44	19.33
26/01/2020 11:59:27	26012020	260120	115927	100.510	12.413183	-57.217802	100.360	0.210	-0.410	1.100	100.490	-1.900	1.500																			1580039967.0	9.97	18.46
26/01/2020 11:59:28	26012020	260120	115928	100.390	12.413173	-57.217757	100.310	0.090	-0.220	0.990	100.380	-1.600	1.400																			1580039968.0	9.93	18.39
26/01/2020 11:59:29	26012020	260120	115929	100.370	12.413165	-57.217708	100.300	0.060	-0.150	0.770	100.360	-1.500	1.300																			1580039969.0	10.25	18.98
26/01/2020 11:59:30	26012020	260120	115930	100.340	12.413157	-57.217660	100.270	0.040	-0.070	0.560	100.340	-1.400	1.000																			1580039970.0	10.32	19.11
26/01/2020 11:59:31	26012020	260120	115931	100.320	12.413148	-57.217612	100.250	0.040	-0.190	0.470	100.310	-1.400	0.900																			1580039971.0	10.32	19.11
26/01/2020 11:59:32	26012020	260120	115932	100.300	12.413138	-57.217563	100.250	0.070	-0.440	0.560	100.300	-1.700	0.900																			1580039972.0	10.60	19.63
26/01/2020 11:59:33	26012020	260120	115933	100.320	12.413128	-57.217513	100.260	0.020	-0.400	0.780	100.320	-1.800	1.100																			1580039973.0	10.69	19.80
26/01/2020 11:59:34	26012020	260120	115934	100.310	12.413117	-57.217467	100.260	-0.130	-0.110	0.910	100.310	-1.600	1.300																			1580039974.0	10.32	19.11
26/01/2020 11:59:35	26012020	260120	115935	100.340	12.413107	-57.217420	100.340	-0.310	0.170	0.950	100.370	-1.300	1.300																			1580039975.0	10.03	18.58
26/01/2020 11:59:36	26012020	260120	115936	100.470	12.413097	-57.217373	100.490	-0.360	0.180	0.840	100.500	-1.100	1.300																			1580039976.0	10.02	18.56
26/01/2020 11:59:37	26012020	260120	115937	100.600	12.413087	-57.217327	100.550	-0.210	-0.160	0.610	100.610	-1.300	1.100																			1580039977.0	10.28	19.04
26/01/2020 11:59:38	26012020	260120	115938	100.590	12.413078	-57.217277	100.450	0.100	-0.680	0.510	100.570	-1.800	0.900																			1580039978.0	10.65	19.72
26/01/2020 11:59:39	26012020	260120	115939	100.430	12.413068	-57.217227	100.270	0.350	-0.920	0.480	100.390	-2.200	0.900																			1580039979.0	10.85	20.09
26/01/2020 11:59:40	26012020	260120	115940	100.310	12.413058	-57.217177	100.230	0.360	-0.590	0.370	100.310	-2.100	0.800																			1580039980.0	10.52	19.48
26/01/2020 11:59:41	26012020	260120	115941	100.340	12.413050	-57.217132	100.290	0.130	0.080	0.270	100.360	-1.500	0.700																			1580039981.0	9.94	18.41
26/01/2020 11:59:42	26012020	260120	115942	100.400	12.413042	-57.217087	100.310	-0.150	0.420	0.240	100.400	-1.000	0.600																			1580039982.0	9.69	17.95
26/01/2020 11:59:43	26012020	260120	115943	100.390	12.413033	-57.217038	100.310	-0.270	0.100	0.400	100.390	-1.100	0.700																			1580039983.0	10.11	18.72
26/01/2020 11:59:44	26012020	260120	115944	100.390	12.413022	-57.216990	100.300	-0.140	-0.510	0.730	100.390	-1.600	1.000																			1580039984.0	10.80	20.00
26/01/2020 11:59:45	26012020	260120	115945	100.330	12.413010	-57.216938	100.190	0.050	-0.790	1.030	100.300	-2.100	1.300																			1580039985.0	10.99	20.35
26/01/2020 11:59:46	26012020	260120	115946	100.200	12.412998	-57.216890	100.110	0.110	-0.520	1.070	100.180	-2.000	1.500																			1580039986.0	10.57	19.58
26/01/2020 11:59:47	26012020	260120	115947	100.150	12.412988	-57.216843	100.110	0.080	0.010	0.940	100.150	-1.500	1.400																			1580039987.0	10.00	18.52
26/01/2020 11:59:48	26012020	260120	115948	100.180	12.412980	-57.216798	100.180	0.070	0.280	0.660	100.200	-1.100	1.200																			1580039988.0	9.82	18.19
26/01/2020 11:59:49	26012020	260120	115949	100.260	12.412973	-57.216750	100.270	0.100	0.060	0.400	100.280	-1.200	0.900																			1580039989.0	10.18	18.85
26/01/2020 11:59:50	26012020	260120	115950	100.330	12.412965	-57.216702	100.300	0.160	-0.370	0.480	100.340	-1.600	0.800																			1580039990.0	10.64	19.71
26/01/2020 11:59:51	26012020	260120	115951	100.370	12.412953	-57.216652	100.380	0.140	-0.520	0.650	100.380	-1.900	1.000																			1580039991.0	10.73	19.87
26/01/2020 11:59:52	26012020	260120	115952	100.490	12.412943	-57.216603	100.500	0.010	-0.380	0.760	100.510	-1.800	1.100																			1580039992.0	10.33	19.13
26/01/2020 11:59:53	26012020	260120	115953	100.610	12.412933	-57.216557	100.600	-0.130	-0.200	0.900	100.620	-1.600	1.200																			1580039993.0	10.07	18.65
26/01/2020 11:59:54	26012020	260120	115954	100.680	12.412923	-57.216510	100.640	-0.150	-0.210	1.040	100.680	-1.500	1.400																			1580039994.0	10.10	18.71
26/01/2020 11:59:55	26012020	260120	115955	100.670	12.412912	-57.216463	100.610	-0.030	-0.480	0.940	100.660	-1.700	1.400																			1580039995.0	10.38	19.22
26/01/2020 11:59:56	26012020	260120	115956	100.650	12.412903	-57.216413	100.580	0.080	-0.650	0.720	100.640	-2.000	1.200																			1580039996.0	10.72	19.85
26/01/2020 11:59:57	26012020	260120	115957	100.610	12.412895	-57.216363	100.520	0.020	-0.420	0.620	100.600	-1.900	1.000																			1580039997.0	10.57	19.58
26/01/2020 11:59:58	26012020	260120	115958	100.560	12.412885	-57.216317	100.510	-0.180	-0.030	0.550	100.560	-1.500	1.000																			1580039998.0	10.17	18.83
26/01/2020 11:59:59	26012020	260120	115959	100.550	12.412877	-57.216270	100.520	-0.330	0.090	0.590	100.550	-1.300	1.000																			1580039999.0	10.10	18.71
26/01/2020 12:00:00	26012020	260120	120000	100.590	12.412865	-57.216222	100.610	-0.300	-0.050	0.670	100.610	-1.300	1.000	1015.50	26.00	26.10	18.20	18.20	259.00	61.00	62.00	376.00	26.50	352.00	12.20	86.00	7.00	19585	3062.00	27.40	27.30	1580040000.0	10.45	19.35
26/01/2020 12:00:01	26012020	260120	120001	100.710	12.412853	-57.216173	100.750	-0.150	-0.120	0.740	100.730	-1.500	1.100																			1580040001.0	10.64	19.71
26/01/2020 12:00:02	26012020	260120	120001	100.860	12.412842	-57.216125	100.910	0.010	-0.030	0.740	100.890	-1.400	1.100																			1580040001.0	10.44	19.33
26/01/2020 12:00:03	26012020	260120	120003	101.000	12.412832	-57.216078	101.000	0.150	0.030	0.670	101.010	-1.300	1.100																			1580040003.0	10.18	18.85
26/01/2020 12:00:04	26012020	260120	120004	101.060	12.412823	-57.216030	101.040	0.270	-0.160	0.580	101.070	-1.400	1.000																			1580040004.0	10.21	18.91
26/01/2020 12:00:05	26012020	260120	120005	101.100	12.412813	-57.215982	101.060	0.350	-0.430	0.550	101.100	-1.700	1.000																			1580040005.0	10.43	19.32
26/01/2020 12:00:06	26012020	260120	120006	101.140	12.412805	-57.215933	101.110	0.350	-0.540	0.570	101.150	-1.900	0.900																			1580040006.0	10.47	19.39
26/01/2020 12:00:07	26012020	260120	120007	101.180	12.412797	-57.215885	101.090	0.260	-0.500	0.730	101.170	-1.900	1.000																			1580040007.0	10.28	19.04
26/01/2020 12:00:08	26012020	260120	120008	101.080	12.412787	-57.215838	100.920	0.160	-0.530	0.980	101.040	-1.900	1.300																			1580040008.0	10.22	18.93
26/01/2020 12:00:09	26012020	260120	120009	100.880	12.412777	-57.215790	100.770	0.050	-0.610	1.170	100.850	-1.900	1.500																			1580040009.0	10.51	19.46
26/01/2020 12:00:10	26012020	260120	120010	100.800	12.412765	-57.215740	100.770	-0.190	-0.380	1.290	100.800	-1.900	1.700																			1580040010.0	10.58	19.59
26/01/2020 12:00:11	26012020	260120	120011	100.820	12.412753	-57.215693	100.780	-0.520	-0.000	1.240	100.830	-1.500	1.700																			1580040011.0	10.22	18.93
26/01/2020 12:00:12	26012020	260120	120012	100.790	12.412742	-57.215647	100.680	-0.660	0.140	0.970	100.770	-1.200	1.500																			1580040012.0	10.12	18.74
26/01/2020 12:00:13	26012020	260120	120013	100.670	12.412732	-57.215598	100.600	-0.470	-0.100	0.640	100.650	-1.300	1.200																			1580040013.0	10.47	19.39
26/01/2020 12:00:14	26012020	260120	120014	100.670	12.412722	-57.215548	100.750	-0.140	-0.370	0.320	100.710	-1.600	0.800																			1580040014.0	10.85	20.09
26/01/2020 12:00:15	26012020	260120	120015	100.880	12.412712	-57.215498	101.070	0.080	-0.210	0.080	100.940	-1.700	0.600																			1580040015.0	10.72	19.85
26/01/2020 12:00:16	26012020	260120	120016	101.240	12.412702	-57.215452	101.250	0.080	0.250	-0.010	101.270	-1.300	0.400																			1580040016.0	10.08	18.67
26/01/2020 12:00:17	26012020	260120	120017	101.330	12.412693	-57.215407	101.260	0.080	0.340	0.130	101.340	-1.000	0.400																			1580040017.0	9.74	18.04
26/01/2020 12:00:18	26012020	260120	120018	101.310	12.412683	-57.215360	101.210	0.290	-0.190	0.420	101.300	-1.300	0.700																			1580040018.0	10.21	18.91
26/01/2020 12:00:19	26012020	260120	120019	101.250	12.412673	-57.215310	101.130	0.580	-0.820	0.530	101.230	-2.000	0.900																			1580040019.0	10.81	20.02
26/01/2020 12:00:20	26012020	260120	120020	101.170	12.412663	-57.215260	101.050	0.640	-1.010	0.580	101.160	-2.400	0.900																			1580040020.0	10.83	20.06
26/01/2020 12:00:21	26012020	260120	120021	101.050	12.412655	-57.215212	100.890	0.360	-0.630	0.740	101.010	-2.200	1.100																			1580040021.0	10.38	19.22
26/01/2020 12:00:22	26012020	260120	120022	100.890	12.412645	-57.215165	100.760	-0.140	-0.020	0.920	100.860	-1.600	1.200																			1580040022.0	9.90	18.33
26/01/2020 12:00:23	26012020	260120	120023	100.750	12.412633	-57.215120	100.630	-0.590	0.290	1.070	100.720	-1.100	1.400																			1580040023.0	9.78	18.11
26/01/2020 12:00:24	26012020	260120	120024	100.620	12.412622	-57.215073	100.520	-0.690	0.010	1.030	100.600	-1.200	1.500																			1580040024.0	10.21	18.91
26/01/2020 12:00:25	26012020	260120	120025	100.520	12.412610	-57.215023	100.400	-0.380	-0.590	0.940	100.490	-1.700	1.400																			1580040025.0	10.88	20.15
26/01/2020 12:00:26	26012020	260120	120026	100.400	12.412597	-57.214973	100.330	-0.030	-0.760	0.830	100.390	-2.100	1.300																			1580040026.0	11.14	20.63
26/01/2020 12:00:27	26012020	260120	120027	100.400	12.412587	-57.214923	100.440	0.020	-0.240	0.640	100.430	-1.800	1.100																			1580040027.0	10.53	19.50
26/01/2020 12:00:28	26012020	260120	120028	100.610	12.412577	-57.214878	100.730	-0.120	0.380	0.420	100.670	-1.200	0.900																			1580040028.0	9.76	18.08
26/01/2020 12:00:29	26012020	260120	120029	100.900	12.412568	-57.214833	100.970	-0.140	0.440	0.380	100.950	-0.900	0.800																			1580040029.0	9.73	18.02
26/01/2020 12:00:30	26012020	260120	120030	101.080	12.412557	-57.214787	101.070	0.110	-0.040	0.420	101.100	-1.200	0.800																			1580040030.0	10.32	19.11
26/01/2020 12:00:31	26012020	260120	120031	101.120	12.412547	-57.214737	101.060	0.490	-0.590	0.480	101.110	-1.800	0.900																			1580040031.0	10.79	19.98
26/01/2020 12:00:32	26012020	260120	120032	101.090	12.412537	-57.214687	101.030	0.680	-0.730	0.590	101.090	-2.100	0.900																			1580040032.0	10.74	19.89
26/01/2020 12:00:33	26012020	260120	120033	101.060	12.412528	-57.214638	100.990	0.480	-0.400	0.790	101.050	-1.900	1.100																			1580040033.0	10.23	18.95
26/01/2020 12:00:34	26012020	260120	120034	101.020	12.412520	-57.214593	100.970	0.060	-0.030	0.910	101.010	-1.500	1.300																			1580040034.0	9.78	18.11
26/01/2020 12:00:35	26012020	260120	120035	100.980	12.412510	-57.214547	100.870	-0.250	-0.130	1.000	100.950	-1.400	1.400																			1580040035.0	9.92	18.37
26/01/2020 12:00:36	26012020	260120	120036	100.820	12.412498	-57.214498	100.700	-0.310	-0.600	1.200	100.780	-1.800	1.500																			1580040036.0	10.57	19.58
26/01/2020 12:00:37	26012020	260120	120037	100.650	12.412487	-57.214448	100.540	-0.270	-0.830	1.370	100.620	-2.100	1.700																			1580040037.0	10.96	20.30
26/01/2020 12:00:38	26012020	260120	120038	100.480	12.412473	-57.214400	100.360	-0.280	-0.550	1.390	100.440	-2.100	1.800																			1580040038.0	10.66	19.74
26/01/2020 12:00:39	26012020	260120	120039	100.360	12.412462	-57.214353	100.280	-0.330	-0.060	1.280	100.330	-1.600	1.700																			1580040039.0	10.18	18.85
26/01/2020 12:00:40	26012020	260120	120040	100.320	12.412452	-57.214307	100.370	-0.340	0.230	0.990	100.340	-1.200	1.500																			1580040040.0	10.10	18.71
26/01/2020 12:00:41	26012020	260120	120041	100.450	12.412440	-57.214258	100.620	-0.240	0.280	0.540	100.490	-1.100	1.100																			1580040041.0	10.29	19.06
26/01/2020 12:00:42	26012020	260120	120042	100.770	12.412430	-57.214212	100.860	-0.030	0.230	0.170	100.810	-1.100	0.700																			1580040042.0	10.37	19.21
26/01/2020 12:00:43	26012020	260120	120043	100.970	12.412422	-57.214163	101.010	0.270	0.100	0.020	100.990	-1.200	0.400																			1580040043.0	10.30	19.08
26/01/2020 12:00:44	26012020	260120	120044	101.060	12.412413	-57.214115	101.080	0.520	-0.150	0.070	101.080	-1.400	0.400																			1580040044.0	10.29	19.06
26/01/2020 12:00:45	26012020	260120	120045	101.120	12.412405	-57.214067	101.130	0.580	-0.420	0.270	101.130	-1.700	0.600																			1580040045.0	10.36	19.19
26/01/2020 12:00:46	26012020	260120	120046	101.160	12.412395	-57.214018	101.130	0.440	-0.610	0.540	101.160	-1.900	0.800																			1580040046.0	10.31	19.09
26/01/2020 12:00:47	26012020	260120	120047	101.090	12.412385	-57.213972	100.970	0.280	-0.720	0.870	101.060	-2.000	1.100																			1580040047.0	10.23	18.95
26/01/2020 12:00:48	26012020	260120	120048	100.840	12.412375	-57.213923	100.650	0.140	-0.730	1.220	100.780	-2.100	1.500																			1580040048.0	10.33	19.13
26/01/2020 12:00:49	26012020	260120	120049	100.530	12.412363	-57.213877	100.390	-0.060	-0.550	1.510	100.480	-2.000	1.800																			1580040049.0	10.37	19.21
26/01/2020 12:00:50	26012020	260120	120050	100.330	12.412352	-57.213830	100.270	-0.360	-0.270	1.530	100.310	-1.700	2.000																			1580040050.0	10.26	19.00
26/01/2020 12:00:51	26012020	260120	120051	100.250	12.412340	-57.213782	100.190	-0.610	-0.120	1.270	100.240	-1.500	1.800																			1580040051.0	10.24	18.96
26/01/2020 12:00:52	26012020	260120	120052	100.110	12.412328	-57.213733	99.970	-0.610	-0.230	1.130	100.060	-1.500	1.500																			1580040052.0	10.48	19.41
26/01/2020 12:00:53	26012020	260120	120053	99.870	12.412317	-57.213685	99.800	-0.320	-0.300	1.080	99.830	-1.700	1.500																			1580040053.0	10.80	20.00
26/01/2020 12:00:54	26012020	260120	120054	99.790	12.412305	-57.213635	99.870	0.010	-0.040	0.880	99.820	-1.500	1.400																			1580040054.0	10.64	19.71
26/01/2020 12:00:55	26012020	260120	120055	99.940	12.412297	-57.213588	100.000	0.210	0.300	0.670	99.970	-1.200	1.100																			1580040055.0	10.18	18.85
26/01/2020 12:00:56	26012020	260120	120056	100.030	12.412288	-57.213542	100.020	0.290	0.350	0.600	100.040	-1.000	1.000																			1580040056.0	10.08	18.67
26/01/2020 12:00:57	26012020	260120	120057	100.060	12.412280	-57.213493	100.130	0.260	0.140	0.570	100.090	-1.100	1.000																			1580040057.0	10.30	19.08
26/01/2020 12:00:58	26012020	260120	120058	100.280	12.412272	-57.213445	100.450	0.160	-0.110	0.730	100.350	-1.400	1.000																			1580040058.0	10.35	19.17
26/01/2020 12:00:59	26012020	260120	120059	100.590	12.412262	-57.213398	100.680	0.050	-0.310	1.080	100.630	-1.600	1.300																			1580040059.0	10.20	18.89
26/01/2020 12:01:00	26012020	260120	120100	100.670	12.412250	-57.213352	100.580	0.020	-0.610	1.400	100.640	-1.800	1.700	1015.50	26.10	26.10	18.10	18.20	264.00	61.00	61.00	377.00	26.60	349.00	12.70	81.00	7.60	19906	3215.00	27.40	27.30	1580040060.0	10.17	18.83
26/01/2020 12:01:01	26012020	260120	120101	100.450	12.412238	-57.213303	100.270	0.110	-1.010	1.510	100.380	-2.200	1.900																			1580040061.0	10.41	19.28
26/01/2020 12:01:02	26012020	260120	120102	100.130	12.412228	-57.213253	99.970	0.240	-1.130	1.390	100.060	-2.500	1.900																			1580040062.0	10.65	19.72
26/01/2020 12:01:03	26012020	260120	120103	99.860	12.412220	-57.213205	99.700	0.240	-0.760	1.120	99.810	-2.300	1.600																			1580040063.0	10.45	19.35
26/01/2020 12:01:04	26012020	260120	120104	99.620	12.412212	-57.213158	99.500	0.090	-0.240	0.900	99.580	-1.800	1.400																			1580040064.0	10.12	18.74
26/01/2020 12:01:05	26012020	260120	120105	99.510	12.412203	-57.213110	99.490	-0.140	0.090	0.770	99.500	-1.400	1.200																			1580040065.0	10.18	18.85
26/01/2020 12:01:06	26012020	260120	120106	99.580	12.412195	-57.213062	99.660	-0.340	0.240	0.670	99.610	-1.200	1.100																			1580040066.0	10.43	19.32
26/01/2020 12:01:07	26012020	260120	120107	99.730	12.412185	-57.213013	99.880	-0.460	0.440	0.680	99.780	-1.000	1.100																			1580040067.0	10.46	19.37
26/01/2020 12:01:08	26012020	260120	120108	100.010	12.412173	-57.212967	100.150	-0.460	0.560	0.770	100.060	-0.800	1.100																			1580040068.0	10.21	18.91
26/01/2020 12:01:09	26012020	260120	120109	100.290	12.412163	-57.212920	100.390	-0.260	0.260	0.900	100.340	-0.900	1.200																			1580040069.0	10.14	18.78
26/01/2020 12:01:10	26012020	260120	120110	100.450	12.412152	-57.212872	100.430	0.160	-0.530	1.010	100.450	-1.500	1.400																			1580040070.0	10.53	19.50
26/01/2020 12:01:11	26012020	260120	120111	100.400	12.412142	-57.212820	100.320	0.570	-1.190	0.970	100.390	-2.400	1.400																			1580040071.0	11.02	20.41
26/01/2020 12:01:12	26012020	260120	120112	100.300	12.412133	-57.212770	100.250	0.620	-0.990	0.870	100.290	-2.500	1.300																			1580040072.0	10.78	19.96
26/01/2020 12:01:13	26012020	260120	120113	100.270	12.412127	-57.212725	100.270	0.220	-0.160	0.700	100.280	-1.900	1.200																			1580040073.0	9.82	18.19
26/01/2020 12:01:14	26012020	260120	120114	100.310	12.412118	-57.212682	100.290	-0.290	0.350	0.580	100.310	-1.100	1.000																			1580040074.0	9.34	17.30
26/01/2020 12:01:15	26012020	260120	120115	100.300	12.412108	-57.212635	100.240	-0.520	0.130	0.610	100.280	-1.100	1.000																			1580040075.0	9.90	18.33
26/01/2020 12:01:16	26012020	260120	120116	100.210	12.412097	-57.212587	100.100	-0.380	-0.430	0.750	100.170	-1.600	1.100																			1580040076.0	10.67	19.76
26/01/2020 12:01:17	26012020	260120	120117	100.020	12.412085	-57.212535	99.900	-0.010	-0.830	0.890	99.980	-2.100	1.200																			1580040077.0	10.96	20.30
26/01/2020 12:01:18	26012020	260120	120118	99.860	12.412073	-57.212487	99.820	0.320	-0.750	0.860	99.840	-2.200	1.300																			1580040078.0	10.77	19.95
26/01/2020 12:01:19	26012020	260120	120119	99.830	12.412065	-57.212438	99.830	0.370	-0.280	0.610	99.840	-1.800	1.100																			1580040079.0	10.30	19.08
26/01/2020 12:01:20	26012020	260120	120120	99.900	12.412058	-57.212392	99.970	0.160	0.200	0.320	99.930	-1.300	0.800																			1580040080.0	9.98	18.48
26/01/2020 12:01:21	26012020	260120	120121	100.100	12.412052	-57.212345	100.190	-0.130	0.430	0.300	100.140	-1.000	0.700																			1580040081.0	9.98	18.48
26/01/2020 12:01:22	26012020	260120	120122	100.290	12.412042	-57.212298	100.330	-0.350	0.280	0.620	100.310	-1.000	0.900																			1580040082.0	10.16	18.82
26/01/2020 12:01:23	26012020	260120	120123	100.310	12.412030	-57.212250	100.280	-0.370	-0.250	1.080	100.290	-1.400	1.300																			1580040083.0	10.50	19.45
26/01/2020 12:01:24	26012020	260120	120124	100.210	12.412017	-57.212200	100.200	-0.170	-0.720	1.390	100.190	-1.900	1.700																			1580040084.0	10.81	20.02
26/01/2020 12:01:25	26012020	260120	120125	100.110	12.412003	-57.212152	100.040	0.100	-0.760	1.420	100.080	-2.200	1.900																			1580040085.0	10.70	19.82
26/01/2020 12:01:26	26012020	260120	120126	99.940	12.411993	-57.212103	99.860	0.240	-0.410	1.040	99.900	-1.900	1.600																			1580040086.0	10.23	18.95
26/01/2020 12:01:27	26012020	260120	120127	99.790	12.411987	-57.212058	99.760	0.220	0.000	0.670	99.780	-1.500	1.200																			1580040087.0	9.91	18.35
26/01/2020 12:01:28	26012020	260120	120128	99.770	12.411978	-57.212012	99.790	0.120	0.140	0.450	99.780	-1.200	0.900																			1580040088.0	9.90	18.33
26/01/2020 12:01:29	26012020	260120	120129	99.830	12.411972	-57.211963	99.890	0.130	-0.110	0.320	99.860	-1.300	0.700																			1580040089.0	10.21	18.91
26/01/2020 12:01:30	26012020	260120	120130	99.950	12.411963	-57.211915	99.970	0.220	-0.500	0.500	99.960	-1.700	0.800																			1580040090.0	10.63	19.69
26/01/2020 12:01:31	26012020	260120	120131	100.010	12.411952	-57.211865	100.040	0.150	-0.580	0.830	100.030	-2.000	1.100																			1580040091.0	10.70	19.82
26/01/2020 12:01:32	26012020	260120	120132	100.090	12.411942	-57.211818	100.100	-0.130	-0.280	1.150	100.100	-1.800	1.400																			1580040092.0	10.24	18.96
26/01/2020 12:01:33	26012020	260120	120133	100.120	12.411930	-57.211772	100.080	-0.400	-0.050	1.320	100.110	-1.500	1.700																			1580040093.0	9.89	18.32
26/01/2020 12:01:34	26012020	260120	120134	100.060	12.411920	-57.211725	100.010	-0.440	-0.240	1.280	100.050	-1.500	1.700																			1580040094.0	10.16	18.82
26/01/2020 12:01:35	26012020	260120	120135	99.970	12.411910	-57.211677	99.900	-0.270	-0.510	1.130	99.950	-1.800	1.600																			1580040095.0	10.67	19.76
26/01/2020 12:01:36	26012020	260120	120136	99.880	12.411900	-57.211627	99.830	-0.050	-0.530	0.850	99.870	-1.900	1.400																			1580040096.0	10.70	19.82
26/01/2020 12:01:37	26012020	260120	120137	99.840	12.411890	-57.211578	99.820	0.150	-0.350	0.560	99.840	-1.800	1.100																			1580040097.0	10.45	19.35
26/01/2020 12:01:38	26012020	260120	120138	99.890	12.411882	-57.211530	99.940	0.280	-0.030	0.350	99.920	-1.500	0.800																			1580040098.0	10.28	19.04
26/01/2020 12:01:39	26012020	260120	120139	100.050	12.411873	-57.211483	100.120	0.280	0.340	0.170	100.090	-1.200	0.600																			1580040099.0	10.13	18.76
26/01/2020 12:01:40	26012020	260120	120140	100.230	12.411867	-57.211437	100.250	0.140	0.550	0.100	100.260	-0.800	0.500																			1580040100.0	9.93	18.39
26/01/2020 12:01:41	26012020	260120	120141	100.330	12.411858	-57.211390	100.310	0.010	0.340	0.330	100.340	-0.900	0.600																			1580040101.0	9.97	18.46
26/01/2020 12:01:42	26012020	260120	120142	100.320	12.411847	-57.211343	100.260	0.020	-0.290	0.720	100.310	-1.400	1.000																			1580040102.0	10.31	19.09
26/01/2020 12:01:43	26012020	260120	120143	100.260	12.411837	-57.211293	100.160	0.150	-1.010	1.030	100.240	-2.100	1.300																			1580040103.0	10.70	19.82
26/01/2020 12:01:44	26012020	260120	120144	100.090	12.411827	-57.211243	99.970	0.250	-1.330	1.170	100.050	-2.600	1.500																			1580040104.0	10.79	19.98
26/01/2020 12:01:45	26012020	260120	120145	99.880	12.411817	-57.211195	99.770	0.120	-0.990	1.240	99.840	-2.500	1.600																			1580040105.0	10.48	19.41
26/01/2020 12:01:46	26012020	260120	120146	99.720	12.411807	-57.211148	99.670	-0.260	-0.260	1.270	99.700	-1.900	1.700																			1580040106.0	9.92	18.37
26/01/2020 12:01:47	26012020	260120	120147	99.670	12.411797	-57.211103	99.630	-0.630	0.180	1.200	99.660	-1.300	1.600																			1580040107.0	9.73	18.02
26/01/2020 12:01:48	26012020	260120	120148	99.630	12.411785	-57.211057	99.570	-0.680	0.060	1.100	99.610	-1.200	1.500																			1580040108.0	10.22	18.93
26/01/2020 12:01:49	26012020	260120	120149	99.530	12.411773	-57.211007	99.450	-0.390	-0.270	1.050	99.500	-1.500	1.500																			1580040109.0	10.83	20.06
26/01/2020 12:01:50	26012020	260120	120150	99.430	12.411763	-57.210957	99.430	0.050	-0.330	0.850	99.430	-1.700	1.300																			1580040110.0	10.95	20.28
26/01/2020 12:01:51	26012020	260120	120151	99.500	12.411753	-57.210908	99.560	0.330	-0.030	0.500	99.530	-1.500	1.000																			1580040111.0	10.53	19.50
26/01/2020 12:01:52	26012020	260120	120152	99.700	12.411747	-57.210860	99.800	0.360	0.400	0.160	99.750	-1.100	0.700																			1580040112.0	10.05	18.61
26/01/2020 12:01:53	26012020	260120	120153	99.940	12.411740	-57.210815	100.010	0.250	0.570	-0.060	99.990	-0.800	0.400																			1580040113.0	9.80	18.15
26/01/2020 12:01:54	26012020	260120	120154	100.120	12.411733	-57.210768	100.160	0.240	0.210	-0.030	100.150	-0.900	0.300																			1580040114.0	9.98	18.48
26/01/2020 12:01:55	26012020	260120	120155	100.230	12.411727	-57.210718	100.310	0.360	-0.490	0.290	100.260	-1.600	0.500																			1580040115.0	10.44	19.33
26/01/2020 12:01:56	26012020	260120	120156	100.380	12.411717	-57.210670	100.350	0.400	-1.050	0.810	100.390	-2.200	1.000																			1580040116.0	10.71	19.83
26/01/2020 12:01:57	26012020	260120	120157	100.340	12.411705	-57.210620	100.220	0.210	-1.100	1.260	100.320	-2.500	1.500																			1580040117.0	10.53	19.50
26/01/2020 12:01:58	26012020	260120	120158	100.120	12.411695	-57.210573	99.990	-0.170	-0.730	1.560	100.080	-2.300	1.800																			1580040118.0	10.12	18.74
26/01/2020 12:01:59	26012020	260120	120159	99.880	12.411683	-57.210528	99.750	-0.540	-0.340	1.710	99.830	-1.800	2.100																			1580040119.0	9.94	18.41
26/01/2020 12:02:00	26012020	260120	120200	99.660	12.411672	-57.210482	99.580	-0.660	-0.220	1.530	99.630	-1.600	2.000	1015.60	26.10	26.10	17.90	18.00	270.00	60.00	61.00	377.00	26.60	349.00	12.60	82.00	7.50	20268	3138.00	27.40	27.30	1580040120.0	10.13	18.76
26/01/2020 12:02:01	26012020	260120	120201	99.530	12.411660	-57.210433	99.470	-0.420	-0.390	1.190	99.500	-1.700	1.700																			1580040121.0	10.54	19.52
26/01/2020 12:02:02	26012020	260120	120202	99.430	12.411650	-57.210383	99.420	-0.000	-0.470	0.800	99.430	-1.800	1.400																			1580040122.0	10.92	20.22
26/01/2020 12:02:03	26012020	260120	120203	99.490	12.411642	-57.210333	99.610	0.180	-0.060	0.350	99.530	-1.600	0.900																			1580040123.0	10.75	19.91
26/01/2020 12:02:04	26012020	260120	120204	99.770	12.411635	-57.210287	99.960	0.020	0.650	0.050	99.840	-1.000	0.500																			1580040124.0	10.02	18.56
26/01/2020 12:02:05	26012020	260120	120205	100.140	12.411627	-57.210242	100.300	-0.150	0.950	-0.020	100.210	-0.400	0.400																			1580040125.0	9.60	17.78
26/01/2020 12:02:06	26012020	260120	120206	100.470	12.411620	-57.210195	100.600	-0.050	0.470	0.130	100.530	-0.600	0.400																			1580040126.0	9.95	18.43
26/01/2020 12:02:07	26012020	260120	120207	100.710	12.411610	-57.210145	100.790	0.300	-0.500	0.390	100.750	-1.500	0.700																			1580040127.0	10.65	19.72
26/01/2020 12:02:08	26012020	260120	120208	100.870	12.411600	-57.210095	100.920	0.600	-1.130	0.580	100.900	-2.300	0.900																			1580040128.0	10.99	20.35
26/01/2020 12:02:09	26012020	260120	120209	100.970	12.411590	-57.210047	100.960	0.520	-0.870	0.750	100.980	-2.400	1.100																			1580040129.0	10.46	19.37
26/01/2020 12:02:10	26012020	260120	120210	100.960	12.411580	-57.210002	100.850	0.110	-0.230	0.880	100.940	-1.800	1.200																			1580040130.0	9.52	17.63
26/01/2020 12:02:11	26012020	260120	120211	100.770	12.411572	-57.209958	100.610	-0.230	-0.140	0.910	100.720	-1.400	1.300																			1580040131.0	9.42	17.45
26/01/2020 12:02:12	26012020	260120	120212	100.540	12.411562	-57.209910	100.450	-0.270	-0.630	0.780	100.510	-1.800	1.200																			1580040132.0	10.30	19.08
26/01/2020 12:02:13	26012020	260120	120213	100.400	12.411552	-57.209860	100.280	-0.090	-1.010	0.710	100.370	-2.300	1.100																			1580040133.0	10.96	20.30
26/01/2020 12:02:14	26012020	260120	120214	100.180	12.411540	-57.209810	100.030	0.030	-0.790	0.730	100.130	-2.300	1.100																			1580040134.0	10.88	20.15
26/01/2020 12:02:15	26012020	260120	120215	99.950	12.411530	-57.209762	99.880	-0.100	-0.110	0.700	99.920	-1.800	1.100																			1580040135.0	10.32	19.11
26/01/2020 12:02:16	26012020	260120	120216	99.900	12.411520	-57.209717	99.970	-0.350	0.540	0.630	99.920	-1.000	1.100																			1580040136.0	9.90	18.33
26/01/2020 12:02:17	26012020	260120	120217	100.070	12.411510	-57.209670	100.200	-0.480	0.770	0.500	100.120	-0.600	0.900																			1580040137.0	9.89	18.32
26/01/2020 12:02:18	26012020	260120	120218	100.330	12.411500	-57.209623	100.450	-0.330	0.440	0.410	100.380	-0.700	0.800																			1580040138.0	10.24	18.96
26/01/2020 12:02:19	26012020	260120	120219	100.520	12.411488	-57.209573	100.670	-0.040	-0.040	0.400	100.570	-1.200	0.800																			1580040139.0	10.65	19.72
26/01/2020 12:02:20	26012020	260120	120220	100.770	12.411478	-57.209525	100.810	0.230	-0.280	0.430	100.800	-1.600	0.800																			1580040140.0	10.48	19.41
26/01/2020 12:02:21	26012020	260120	120221	100.860	12.411470	-57.209478	100.850	0.460	-0.420	0.450	100.870	-1.700	0.800																			1580040141.0	10.09	18.69
26/01/2020 12:02:22	26012020	260120	120222	100.850	12.411462	-57.209432	100.780	0.620	-0.660	0.520	100.840	-1.900	0.900																			1580040142.0	10.07	18.65
26/01/2020 12:02:23	26012020	260120	120223	100.760	12.411453	-57.209383	100.650	0.590	-0.840	0.720	100.740	-2.200	1.000																			1580040143.0	10.31	19.09
26/01/2020 12:02:24	26012020	260120	120224	100.610	12.411443	-57.209337	100.470	0.330	-0.730	1.040	100.570	-2.200	1.300																			1580040144.0	10.28	19.04
26/01/2020 12:02:25	26012020	260120	120225	100.430	12.411433	-57.209290	100.310	-0.000	-0.460	1.310	100.390	-1.900	1.600																			1580040145.0	10.09	18.69
26/01/2020 12:02:26	26012020	260120	120226	100.260	12.411423	-57.209243	100.130	-0.240	-0.300	1.500	100.210	-1.700	1.800																			1580040146.0	10.13	18.76
26/01/2020 12:02:27	26012020	260120	120227	100.050	12.411412	-57.209195	99.950	-0.340	-0.290	1.550	100.010	-1.600	1.900																			1580040147.0	10.42	19.30
26/01/2020 12:02:28	26012020	260120	120228	99.890	12.411400	-57.209147	99.850	-0.350	-0.230	1.350	99.870	-1.600	1.800																			1580040148.0	10.61	19.65
26/01/2020 12:02:29	26012020	260120	120229	99.830	12.411390	-57.209097	99.850	-0.330	-0.040	1.020	99.830	-1.500	1.500																			1580040149.0	10.52	19.48
26/01/2020 12:02:30	26012020	260120	120230	99.910	12.411380	-57.209050	100.030	-0.310	0.280	0.630	99.950	-1.200	1.200																			1580040150.0	10.30	19.08
26/01/2020 12:02:31	26012020	260120	120231	100.160	12.411372	-57.209003	100.330	-0.280	0.510	0.240	100.230	-0.900	0.800																			1580040151.0	10.03	18.58
26/01/2020 12:02:32	26012020	260120	120232	100.490	12.411363	-57.208957	100.620	-0.160	0.360	0.060	100.550	-0.900	0.500																			1580040152.0	10.01	18.54
26/01/2020 12:02:33	26012020	260120	120233	100.720	12.411355	-57.208908	100.840	0.110	-0.190	0.150	100.760	-1.300	0.500																			1580040153.0	10.30	19.08
26/01/2020 12:02:34	26012020	260120	120234	100.930	12.411345	-57.208860	100.940	0.400	-0.720	0.340	100.950	-1.900	0.700																			1580040154.0	10.62	19.67
26/01/2020 12:02:35	26012020	260120	120235	100.980	12.411335	-57.208810	100.920	0.530	-0.880	0.530	100.980	-2.200	0.900																			1580040155.0	10.50	19.45
26/01/2020 12:02:36	26012020	260120	120236	100.900	12.411325	-57.208763	100.790	0.520	-0.750	0.660	100.880	-2.200	1.000																			1580040156.0	10.12	18.74
26/01/2020 12:02:37	26012020	260120	120237	100.730	12.411317	-57.208717	100.620	0.480	-0.610	0.730	100.700	-2.000	1.100																			1580040157.0	10.05	18.61
26/01/2020 12:02:38	26012020	260120	120238	100.590	12.411308	-57.208670	100.500	0.350	-0.450	0.720	100.570	-1.900	1.100																			1580040158.0	10.25	18.98
26/01/2020 12:02:39	26012020	260120	120239	100.500	12.411298	-57.208622	100.420	0.050	-0.220	0.640	100.480	-1.700	1.100																			1580040159.0	10.32	19.11
26/01/2020 12:02:40	26012020	260120	120240	100.420	12.411288	-57.208573	100.330	-0.340	0.020	0.650	100.390	-1.400	1.000																			1580040160.0	10.26	19.00
26/01/2020 12:02:41	26012020	260120	120241	100.320	12.411278	-57.208527	100.270	-0.570	0.080	0.700	100.300	-1.300	1.100																			1580040161.0	10.27	19.02
26/01/2020 12:02:42	26012020	260120	120242	100.320	12.411267	-57.208478	100.350	-0.590	0.020	0.650	100.330	-1.300	1.100																			1580040162.0	10.52	19.48
26/01/2020 12:02:43	26012020	260120	120243	100.440	12.411255	-57.208430	100.540	-0.480	0.110	0.560	100.490	-1.300	1.000																			1580040163.0	10.50	19.45
26/01/2020 12:02:44	26012020	260120	120244	100.700	12.411243	-57.208383	100.840	-0.360	0.290	0.370	100.760	-1.100	0.800																			1580040164.0	10.15	18.80
26/01/2020 12:02:45	26012020	260120	120245	100.940	12.411233	-57.208337	101.070	-0.180	0.180	0.210	100.990	-1.100	0.600																			1580040165.0	9.95	18.43
26/01/2020 12:02:46	26012020	260120	120246	101.160	12.411225	-57.208290	101.170	0.140	-0.380	0.090	101.170	-1.500	0.500																			1580040166.0	10.24	18.96
26/01/2020 12:02:47	26012020	260120	120247	101.220	12.411215	-57.208240	101.170	0.580	-0.950	0.080	101.220	-2.100	0.400																			1580040167.0	10.68	19.78
26/01/2020 12:02:48	26012020	260120	120248	101.150	12.411207	-57.208190	101.000	0.860	-1.070	0.330	101.120	-2.400	0.600																			1580040168.0	10.67	19.76
26/01/2020 12:02:49	26012020	260120	120249	100.920	12.411198	-57.208143	100.720	0.760	-0.730	0.670	100.860	-2.300	0.900																			1580040169.0	10.28	19.04
26/01/2020 12:02:50	26012020	260120	120250	100.630	12.411188	-57.208097	100.500	0.290	-0.270	1.010	100.580	-1.800	1.300																			1580040170.0	9.98	18.48
26/01/2020 12:02:51	26012020	260120	120251	100.470	12.411178	-57.208050	100.390	-0.250	0.040	1.210	100.450	-1.400	1.500																			1580040171.0	10.01	18.54
26/01/2020 12:02:52	26012020	260120	120252	100.400	12.411165	-57.208003	100.330	-0.510	0.040	1.240	100.380	-1.300	1.600																			1580040172.0	10.26	19.00
26/01/2020 12:02:53	26012020	260120	120253	100.340	12.411153	-57.207955	100.290	-0.450	-0.080	1.150	100.330	-1.400	1.600																			1580040173.0	10.63	19.69
26/01/2020 12:02:54	26012020	260120	120254	100.320	12.411142	-57.207905	100.310	-0.290	0.000	0.980	100.320	-1.400	1.400																			1580040174.0	10.65	19.72
26/01/2020 12:02:55	26012020	260120	120255	100.390	12.411132	-57.207858	100.450	-0.240	0.190	0.710	100.430	-1.200	1.200																			1580040175.0	10.27	19.02
26/01/2020 12:02:56	26012020	260120	120256	100.590	12.411122	-57.207812	100.650	-0.230	0.170	0.430	100.630	-1.100	0.900																			1580040176.0	10.07	18.65
26/01/2020 12:02:57	26012020	260120	120257	100.780	12.411113	-57.207763	100.820	-0.140	-0.120	0.290	100.820	-1.300	0.700																			1580040177.0	10.21	18.91
26/01/2020 12:02:58	26012020	260120	120258	100.950	12.411105	-57.207715	101.010	0.050	-0.500	0.300	100.990	-1.700	0.700																			1580040178.0	10.45	19.35
26/01/2020 12:02:59	26012020	260120	120259	101.110	12.411093	-57.207667	101.110	0.240	-0.650	0.520	101.130	-2.000	0.800																			1580040179.0	10.49	19.43
26/01/2020 12:03:00	26012020	260120	120300	101.150	12.411083	-57.207620	101.060	0.300	-0.500	0.750	101.140	-1.900	1.100	1015.60	26.10	26.10	17.80	17.90	267.00	60.00	60.00	377.00	26.60	350.00	12.30	83.00	7.10	20374	3104.00	27.40	27.30	1580040180.0	10.20	18.89
26/01/2020 12:03:01	26012020	260120	120301	101.020	12.411072	-57.207575	100.860	0.340	-0.450	0.840	100.980	-1.800	1.200																			1580040181.0	9.96	18.45
26/01/2020 12:03:02	26012020	260120	120302	100.810	12.411063	-57.207527	100.680	0.450	-0.660	0.810	100.770	-1.900	1.200																			1580040182.0	10.33	19.13
26/01/2020 12:03:03	26012020	260120	120303	100.690	12.411055	-57.207477	100.600	0.470	-0.660	0.690	100.670	-2.100	1.100																			1580040183.0	10.72	19.85
26/01/2020 12:03:04	26012020	260120	120304	100.640	12.411045	-57.207428	100.550	0.210	-0.220	0.600	100.620	-1.800	1.000																			1580040184.0	10.46	19.37
26/01/2020 12:03:05	26012020	260120	120305	100.590	12.411037	-57.207382	100.530	-0.200	0.330	0.700	100.580	-1.200	1.000																			1580040185.0	10.00	18.52
26/01/2020 12:03:06	26012020	260120	120306	100.570	12.411025	-57.207335	100.560	-0.540	0.520	0.830	100.570	-0.900	1.200																			1580040186.0	9.91	18.35
26/01/2020 12:03:07	26012020	260120	120307	100.650	12.411013	-57.207288	100.670	-0.590	0.200	0.870	100.670	-1.000	1.300																			1580040187.0	10.29	19.06
26/01/2020 12:03:08	26012020	260120	120308	100.780	12.411002	-57.207240	100.780	-0.410	-0.240	0.790	100.810	-1.400	1.200																			1580040188.0	10.71	19.83
26/01/2020 12:03:09	26012020	260120	120309	100.850	12.410990	-57.207190	100.790	-0.190	-0.400	0.760	100.860	-1.700	1.100																			1580040189.0	10.62	19.67
26/01/2020 12:03:10	26012020	260120	120310	100.830	12.410980	-57.207143	100.730	-0.010	-0.450	0.790	100.810	-1.800	1.200																			1580040190.0	10.21	18.91
26/01/2020 12:03:11	26012020	260120	120311	100.750	12.410970	-57.207097	100.640	0.140	-0.600	0.840	100.730	-1.900	1.200																			1580040191.0	10.24	18.96
26/01/2020 12:03:12	26012020	260120	120312	100.660	12.410960	-57.207048	100.520	0.250	-0.700	0.910	100.630	-2.000	1.300																			1580040192.0	10.43	19.32
26/01/2020 12:03:13	26012020	260120	120313	100.480	12.410948	-57.207000	100.330	0.280	-0.540	0.970	100.440	-2.000	1.300																			1580040193.0	10.43	19.32
26/01/2020 12:03:14	26012020	260120	120314	100.320	12.410938	-57.206952	100.210	0.200	-0.180	1.000	100.290	-1.700	1.400																			1580040194.0	10.22	18.93
26/01/2020 12:03:15	26012020	260120	120315	100.260	12.410928	-57.206905	100.240	0.050	0.150	0.970	100.270	-1.300	1.400																			1580040195.0	10.07	18.65
26/01/2020 12:03:16	26012020	260120	120316	100.330	12.410920	-57.206858	100.350	-0.060	0.160	0.830	100.360	-1.200	1.300																			1580040196.0	10.14	18.78
26/01/2020 12:03:17	26012020	260120	120317	100.480	12.410910	-57.206810	100.470	-0.030	-0.070	0.770	100.500	-1.300	1.200																			1580040197.0	10.43	19.32
26/01/2020 12:03:18	26012020	260120	120318	100.540	12.410900	-57.206762	100.430	0.110	-0.240	0.900	100.520	-1.500	1.200																			1580040198.0	10.59	19.61
26/01/2020 12:03:19	26012020	260120	120319	100.410	12.410888	-57.206713	100.280	0.200	-0.160	0.980	100.380	-1.600	1.400																			1580040199.0	10.41	19.28
26/01/2020 12:03:20	26012020	260120	120320	100.310	12.410880	-57.206667	100.250	0.090	-0.050	0.910	100.300	-1.400	1.300																			1580040200.0	10.08	18.67
26/01/2020 12:03:21	26012020	260120	120321	100.310	12.410872	-57.206620	100.270	-0.070	-0.270	0.770	100.320	-1.500	1.200																			1580040201.0	10.06	18.63
26/01/2020 12:03:22	26012020	260120	120322	100.330	12.410865	-57.206570	100.240	-0.080	-0.750	0.720	100.330	-1.900	1.100																			1580040202.0	10.49	19.43
26/01/2020 12:03:23	26012020	260120	120323	100.270	12.410855	-57.206520	100.070	0.020	-1.020	0.960	100.250	-2.300	1.200																			1580040203.0	10.81	20.02
26/01/2020 12:03:24	26012020	260120	120324	100.020	12.410842	-57.206472	99.890	-0.010	-0.780	1.270	99.980	-2.300	1.600																			1580040204.0	10.65	19.72
26/01/2020 12:03:25	26012020	260120	120325	99.900	12.410830	-57.206425	99.860	-0.240	-0.170	1.380	99.900	-1.800	1.800																			1580040205.0	10.19	18.87
26/01/2020 12:03:26	26012020	260120	120326	99.940	12.410818	-57.206380	99.900	-0.470	0.310	1.250	99.940	-1.200	1.700																			1580040206.0	9.85	18.24
26/01/2020 12:03:27	26012020	260120	120327	99.930	12.410808	-57.206333	99.840	-0.460	0.270	1.010	99.910	-1.000	1.500																			1580040207.0	10.12	18.74
26/01/2020 12:03:28	26012020	260120	120328	99.860	12.410798	-57.206283	99.800	-0.220	-0.040	0.700	99.850	-1.300	1.200																			1580040208.0	10.64	19.71
26/01/2020 12:03:29	26012020	260120	120329	99.870	12.410790	-57.206233	99.900	0.060	-0.220	0.410	99.900	-1.500	0.900																			1580040209.0	10.79	19.98
26/01/2020 12:03:30	26012020	260120	120330	100.080	12.410782	-57.206185	100.190	0.200	-0.080	0.280	100.140	-1.500	0.700																			1580040210.0	10.47	19.39
26/01/2020 12:03:31	26012020	260120	120331	100.370	12.410773	-57.206138	100.400	0.180	0.130	0.290	100.410	-1.300	0.700																			1580040211.0	10.02	18.56
26/01/2020 12:03:32	26012020	260120	120332	100.490	12.410763	-57.206092	100.390	0.140	0.080	0.460	100.490	-1.200	0.800																			1580040212.0	9.92	18.37
26/01/2020 12:03:33	26012020	260120	120333	100.440	12.410755	-57.206045	100.350	0.250	-0.310	0.680	100.430	-1.500	1.000																			1580040213.0	10.19	18.87
26/01/2020 12:03:34	26012020	260120	120334	100.420	12.410745	-57.205997	100.310	0.510	-0.840	0.770	100.410	-2.000	1.100																			1580040214.0	10.51	19.46
26/01/2020 12:03:35	26012020	260120	120335	100.350	12.410737	-57.205947	100.160	0.700	-1.170	0.840	100.320	-2.400	1.200																			1580040215.0	10.75	19.91
26/01/2020 12:03:36	26012020	260120	120336	100.140	12.410728	-57.205897	100.000	0.460	-0.890	0.920	100.110	-2.400	1.300																			1580040216.0	10.61	19.65
26/01/2020 12:03:37	26012020	260120	120337	100.030	12.410718	-57.205850	99.880	-0.190	-0.150	1.110	100.010	-1.800	1.400																			1580040217.0	10.02	18.56
26/01/2020 12:03:38	26012020	260120	120338	99.910	12.410708	-57.205805	99.790	-0.850	0.390	1.240	99.890	-1.100	1.600																			1580040218.0	9.66	17.89
26/01/2020 12:03:39	26012020	260120	120339	99.810	12.410697	-57.205760	99.740	-1.080	0.260	1.190	99.790	-1.000	1.600																			1580040219.0	10.07	18.65
26/01/2020 12:03:40	26012020	260120	120340	99.770	12.410683	-57.205710	99.740	-0.830	-0.270	1.010	99.780	-1.400	1.500																			1580040220.0	10.80	20.00
26/01/2020 12:03:41	26012020	260120	120341	99.810	12.410672	-57.205658	99.810	-0.360	-0.580	0.820	99.830	-1.900	1.300																			1580040221.0	11.08	20.52
26/01/2020 12:03:42	26012020	260120	120342	99.910	12.410660	-57.205610	99.920	0.060	-0.410	0.610	99.930	-1.900	1.100																			1580040222.0	10.71	19.83
26/01/2020 12:03:43	26012020	260120	120343	99.990	12.410652	-57.205563	99.980	0.270	0.050	0.420	99.990	-1.500	0.900																			1580040223.0	10.16	18.82
26/01/2020 12:03:44	26012020	260120	120344	100.050	12.410643	-57.205517	100.090	0.290	0.370	0.240	100.070	-1.100	0.700																			1580040224.0	9.85	18.24
26/01/2020 12:03:45	26012020	260120	120345	100.200	12.410637	-57.205470	100.250	0.290	0.250	0.110	100.230	-1.000	0.600																			1580040225.0	9.98	18.48
26/01/2020 12:03:46	26012020	260120	120346	100.340	12.410628	-57.205422	100.350	0.380	-0.180	0.120	100.360	-1.400	0.500																			1580040226.0	10.37	19.21
26/01/2020 12:03:47	26012020	260120	120347	100.430	12.410620	-57.205372	100.400	0.460	-0.540	0.340	100.440	-1.800	0.600																			1580040227.0	10.56	19.56
26/01/2020 12:03:48	26012020	260120	120348	100.440	12.410610	-57.205325	100.360	0.430	-0.660	0.780	100.430	-2.000	1.000																			1580040228.0	10.41	19.28
26/01/2020 12:03:49	26012020	260120	120349	100.330	12.410598	-57.205277	100.180	0.300	-0.640	1.160	100.290	-2.000	1.400																			1580040229.0	10.21	18.91
26/01/2020 12:03:50	26012020	260120	120350	100.120	12.410588	-57.205230	99.990	0.130	-0.560	1.370	100.090	-1.900	1.700																			1580040230.0	10.21	18.91
26/01/2020 12:03:51	26012020	260120	120351	99.990	12.410580	-57.205182	99.880	-0.050	-0.440	1.340	99.970	-1.800	1.800																			1580040231.0	10.27	19.02
26/01/2020 12:03:52	26012020	260120	120352	99.900	12.410570	-57.205133	99.840	-0.290	-0.330	1.200	99.900	-1.700	1.600																			1580040232.0	10.37	19.21
26/01/2020 12:03:53	26012020	260120	120353	99.920	12.410560	-57.205087	99.920	-0.610	-0.150	1.150	99.930	-1.600	1.500																			1580040233.0	10.42	19.30
26/01/2020 12:03:54	26012020	260120	120354	100.010	12.410548	-57.205038	100.030	-0.870	0.090	1.180	100.040	-1.400	1.600																			1580040234.0	10.30	19.08
26/01/2020 12:03:55	26012020	260120	120355	100.110	12.410535	-57.204992	100.110	-0.810	0.180	1.120	100.130	-1.200	1.500																			1580040235.0	10.20	18.89
26/01/2020 12:03:56	26012020	260120	120356	100.150	12.410523	-57.204945	100.130	-0.340	-0.100	0.900	100.160	-1.300	1.400																			1580040236.0	10.37	19.21
26/01/2020 12:03:57	26012020	260120	120357	100.180	12.410512	-57.204895	100.140	0.290	-0.500	0.600	100.180	-1.700	1.100																			1580040237.0	10.75	19.91
26/01/2020 12:03:58	26012020	260120	120358	100.190	12.410505	-57.204845	100.130	0.700	-0.610	0.270	100.190	-2.000	0.800																			1580040238.0	10.80	20.00
26/01/2020 12:03:59	26012020	260120	120359	100.190	12.410498	-57.204797	100.140	0.680	-0.260	0.050	100.200	-1.800	0.500																			1580040239.0	10.40	19.26
26/01/2020 12:04:00	26012020	260120	120400	100.220	12.410492	-57.204750	100.180	0.350	0.240	0.150	100.240	-1.300	0.500	1015.60	26.10	26.10	18.20	18.20	255.00	61.00	61.00	377.00	26.60	347.00	12.40	78.00	7.30	20183	3149.00	27.40	27.30	1580040240.0	9.87	18.28
26/01/2020 12:04:01	26012020	260120	120401	100.290	12.410483	-57.204705	100.270	0.020	0.400	0.450	100.310	-1.000	0.700																			1580040241.0	9.73	18.02
26/01/2020 12:04:02	26012020	260120	120402	100.370	12.410473	-57.204658	100.340	-0.060	-0.020	0.740	100.380	-1.200	1.000																			1580040242.0	10.12	18.74
26/01/2020 12:04:03	26012020	260120	120403	100.400	12.410462	-57.204608	100.350	0.100	-0.590	0.940	100.400	-1.800	1.300																			1580040243.0	10.73	19.87
26/01/2020 12:04:04	26012020	260120	120404	100.380	12.410450	-57.204558	100.320	0.230	-0.720	1.010	100.370	-2.100	1.400																			1580040244.0	10.75	19.91
26/01/2020 12:04:05	26012020	260120	120405	100.310	12.410440	-57.204512	100.210	0.150	-0.450	0.980	100.280	-1.900	1.400																			1580040245.0	10.23	18.95
26/01/2020 12:04:06	26012020	260120	120406	100.200	12.410432	-57.204465	100.110	-0.020	-0.250	0.790	100.190	-1.700	1.300																			1580040246.0	9.92	18.37
26/01/2020 12:04:07	26012020	260120	120407	100.150	12.410423	-57.204418	100.090	-0.120	-0.350	0.630	100.150	-1.600	1.100																			1580040247.0	10.15	18.80
26/01/2020 12:04:08	26012020	260120	120408	100.140	12.410413	-57.204368	100.060	-0.150	-0.450	0.590	100.140	-1.800	1.000																			1580040248.0	10.54	19.52
26/01/2020 12:04:09	26012020	260120	120409	100.080	12.410403	-57.204320	99.980	-0.280	-0.300	0.710	100.060	-1.700	1.000																			1580040249.0	10.46	19.37
26/01/2020 12:04:10	26012020	260120	120410	99.970	12.410392	-57.204273	99.880	-0.460	-0.170	0.990	99.950	-1.600	1.300																			1580040250.0	10.19	18.87
26/01/2020 12:04:11	26012020	260120	120411	99.870	12.410380	-57.204227	99.800	-0.480	-0.310	1.260	99.850	-1.600	1.600																			1580040251.0	10.36	19.19
26/01/2020 12:04:12	26012020	260120	120412	99.790	12.410367	-57.204177	99.730	-0.270	-0.530	1.330	99.770	-1.800	1.700																			1580040252.0	10.71	19.83
26/01/2020 12:04:13	26012020	260120	120413	99.720	12.410355	-57.204128	99.620	0.050	-0.400	1.220	99.700	-1.900	1.700																			1580040253.0	10.78	19.96
26/01/2020 12:04:14	26012020	260120	120414	99.620	12.410345	-57.204080	99.600	0.250	0.150	0.830	99.610	-1.400	1.400																			1580040254.0	10.31	19.09
26/01/2020 12:04:15	26012020	260120	120415	99.650	12.410338	-57.204033	99.700	0.330	0.550	0.250	99.670	-0.900	0.900																			1580040255.0	9.82	18.19
26/01/2020 12:04:16	26012020	260120	120416	99.820	12.410335	-57.203987	99.900	0.450	0.290	-0.130	99.870	-0.900	0.400																			1580040256.0	10.05	18.61
26/01/2020 12:04:17	26012020	260120	120417	100.090	12.410328	-57.203937	100.220	0.520	-0.200	-0.170	100.150	-1.400	0.200																			1580040257.0	10.67	19.76
26/01/2020 12:04:18	26012020	260120	120418	100.400	12.410322	-57.203887	100.500	0.330	-0.320	0.150	100.460	-1.700	0.400																			1580040258.0	10.60	19.63
26/01/2020 12:04:19	26012020	260120	120419	100.610	12.410310	-57.203842	100.610	-0.040	-0.270	0.770	100.630	-1.600	0.900																			1580040259.0	10.01	18.54
26/01/2020 12:04:20	26012020	260120	120420	100.630	12.410298	-57.203795	100.550	-0.230	-0.480	1.230	100.610	-1.700	1.500																			1580040260.0	9.94	18.41
26/01/2020 12:04:21	26012020	260120	120421	100.510	12.410285	-57.203748	100.360	-0.100	-0.920	1.380	100.470	-2.100	1.700																			1580040261.0	10.40	19.26
26/01/2020 12:04:22	26012020	260120	120422	100.260	12.410275	-57.203698	100.050	0.080	-1.060	1.330	100.200	-2.400	1.800																			1580040262.0	10.72	19.85
26/01/2020 12:04:23	26012020	260120	120423	99.940	12.410265	-57.203650	99.740	0.030	-0.720	1.090	99.880	-2.200	1.600																			1580040263.0	10.45	19.35
26/01/2020 12:04:24	26012020	260120	120424	99.670	12.410257	-57.203603	99.580	-0.230	-0.190	0.870	99.640	-1.700	1.300																			1580040264.0	10.08	18.67
26/01/2020 12:04:25	26012020	260120	120425	99.620	12.410248	-57.203557	99.680	-0.480	0.130	0.680	99.640	-1.300	1.200																			1580040265.0	10.03	18.58
26/01/2020 12:04:26	26012020	260120	120426	99.810	12.410238	-57.203508	99.840	-0.510	0.150	0.510	99.850	-1.200	0.900																			1580040266.0	10.33	19.13
26/01/2020 12:04:27	26012020	260120	120427	99.940	12.410227	-57.203460	99.940	-0.340	0.070	0.540	99.960	-1.300	0.900																			1580040267.0	10.61	19.65
26/01/2020 12:04:28	26012020	260120	120428	100.030	12.410215	-57.203412	100.020	-0.070	-0.020	0.570	100.040	-1.300	1.000																			1580040268.0	10.58	19.59
26/01/2020 12:04:29	26012020	260120	120429	100.150	12.410205	-57.203363	100.240	0.210	-0.080	0.440	100.190	-1.400	0.900																			1580040269.0	10.50	19.45
26/01/2020 12:04:30	26012020	260120	120430	100.470	12.410197	-57.203315	100.620	0.390	-0.030	0.270	100.550	-1.400	0.700																			1580040270.0	10.35	19.17
26/01/2020 12:04:31	26012020	260120	120431	100.860	12.410188	-57.203267	100.940	0.430	0.070	0.100	100.930	-1.300	0.600																			1580040271.0	10.09	18.69
26/01/2020 12:04:32	26012020	260120	120432	101.110	12.410182	-57.203220	101.070	0.360	-0.000	0.130	101.140	-1.300	0.500																			1580040272.0	10.00	18.52
26/01/2020 12:04:33	26012020	260120	120433	101.140	12.410173	-57.203173	101.020	0.270	-0.290	0.420	101.130	-1.500	0.700																			1580040273.0	10.14	18.78
26/01/2020 12:04:34	26012020	260120	120434	101.040	12.410163	-57.203127	100.890	0.210	-0.660	0.660	101.010	-1.900	1.000																			1580040274.0	10.35	19.17
26/01/2020 12:04:35	26012020	260120	120435	100.880	12.410153	-57.203077	100.680	0.120	-0.860	0.810	100.830	-2.200	1.100																			1580040275.0	10.47	19.39
26/01/2020 12:04:36	26012020	260120	120436	100.640	12.410143	-57.203030	100.420	-0.090	-0.780	0.970	100.590	-2.200	1.300																			1580040276.0	10.36	19.19
26/01/2020 12:04:37	26012020	260120	120437	100.380	12.410132	-57.202982	100.180	-0.340	-0.590	1.050	100.330	-2.000	1.400																			1580040277.0	10.21	18.91
26/01/2020 12:04:38	26012020	260120	120438	100.150	12.410120	-57.202935	99.950	-0.480	-0.420	1.070	100.100	-1.800	1.400																			1580040278.0	10.31	19.09
26/01/2020 12:04:39	26012020	260120	120439	99.940	12.410108	-57.202887	99.790	-0.460	-0.350	1.000	99.900	-1.700	1.400																			1580040279.0	10.51	19.46
26/01/2020 12:04:40	26012020	260120	120440	99.820	12.410095	-57.202838	99.770	-0.310	-0.240	0.790	99.810	-1.700	1.300																			1580040280.0	10.68	19.78
26/01/2020 12:04:41	26012020	260120	120441	99.870	12.410085	-57.202788	99.910	-0.180	0.170	0.480	99.890	-1.400	1.000																			1580040281.0	10.56	19.56
26/01/2020 12:04:42	26012020	260120	120442	100.050	12.410075	-57.202743	100.160	-0.100	0.620	0.230	100.110	-0.900	0.700																			1580040282.0	10.08	18.67
26/01/2020 12:04:43	26012020	260120	120443	100.380	12.410067	-57.202697	100.520	0.060	0.580	0.090	100.450	-0.700	0.500																			1580040283.0	9.97	18.46
26/01/2020 12:04:44	26012020	260120	120444	100.710	12.410057	-57.202648	100.770	0.350	0.090	0.080	100.770	-1.000	0.500																			1580040284.0	10.39	19.24
26/01/2020 12:04:45	26012020	260120	120445	100.920	12.410048	-57.202598	100.920	0.570	-0.420	0.250	100.940	-1.600	0.500																			1580040285.0	10.66	19.74
26/01/2020 12:04:46	26012020	260120	120446	101.040	12.410040	-57.202550	101.040	0.550	-0.640	0.600	101.060	-1.900	0.800																			1580040286.0	10.49	19.43
26/01/2020 12:04:47	26012020	260120	120447	101.140	12.410030	-57.202503	101.110	0.270	-0.540	0.940	101.150	-2.000	1.200																			1580040287.0	10.11	18.72
26/01/2020 12:04:48	26012020	260120	120448	101.120	12.410020	-57.202457	101.000	-0.110	-0.430	1.180	101.100	-1.800	1.500																			1580040288.0	9.87	18.28
26/01/2020 12:04:49	26012020	260120	120449	100.930	12.410008	-57.202412	100.700	-0.280	-0.630	1.300	100.870	-1.900	1.600																			1580040289.0	10.01	18.54
26/01/2020 12:04:50	26012020	260120	120450	100.560	12.409997	-57.202363	100.290	-0.180	-1.000	1.400	100.480	-2.200	1.700																			1580040290.0	10.59	19.61
26/01/2020 12:04:51	26012020	260120	120451	100.230	12.409985	-57.202312	99.940	-0.060	-0.990	1.360	100.170	-2.400	1.800																			1580040291.0	10.92	20.22
26/01/2020 12:04:52	26012020	260120	120452	99.880	12.409973	-57.202263	99.740	-0.110	-0.510	1.080	99.840	-2.100	1.600																			1580040292.0	10.56	19.56
26/01/2020 12:04:53	26012020	260120	120453	99.730	12.409963	-57.202217	99.640	-0.230	0.130	0.790	99.720	-1.500	1.300																			1580040293.0	10.18	18.85
26/01/2020 12:04:54	26012020	260120	120454	99.710	12.409955	-57.202170	99.710	-0.290	0.620	0.500	99.720	-0.900	1.000																			1580040294.0	10.11	18.72
26/01/2020 12:04:55	26012020	260120	120455	99.880	12.409945	-57.202123	99.980	-0.260	0.770	0.250	99.940	-0.600	0.700																			1580040295.0	10.19	18.87
26/01/2020 12:04:56	26012020	260120	120456	100.240	12.409935	-57.202075	100.400	-0.110	0.570	0.090	100.330	-0.700	0.500																			1580040296.0	10.31	19.09
26/01/2020 12:04:57	26012020	260120	120457	100.670	12.409927	-57.202027	100.780	0.110	0.100	0.100	100.750	-1.100	0.400																			1580040297.0	10.45	19.35
26/01/2020 12:04:58	26012020	260120	120458	100.980	12.409917	-57.201978	100.970	0.300	-0.370	0.370	101.010	-1.600	0.600																			1580040298.0	10.50	19.45
26/01/2020 12:04:59	26012020	260120	120459	101.110	12.409905	-57.201930	101.040	0.390	-0.640	0.660	101.120	-1.900	0.900																			1580040299.0	10.34	19.15
26/01/2020 12:05:00	26012020	260120	120500	101.150	12.409895	-57.201883	101.030	0.380	-0.810	0.870	101.150	-2.100	1.200	1015.60	26.10	26.10	18.30	18.30	250.00	62.00	62.00	377.00	26.60	348.00	12.20	78.00	7.10	20255	3202.00	27.30	27.30	1580040300.0	10.11	18.72
26/01/2020 12:05:01	26012020	260120	120501	101.090	12.409885	-57.201837	100.880	0.340	-0.990	0.980	101.060	-2.300	1.300																			1580040301.0	10.19	18.87
26/01/2020 12:05:02	26012020	260120	120502	100.860	12.409875	-57.201788	100.600	0.240	-0.990	1.020	100.790	-2.400	1.400																			1580040302.0	10.40	19.26
26/01/2020 12:05:03	26012020	260120	120503	100.610	12.409865	-57.201740	100.340	0.010	-0.640	1.030	100.560	-2.200	1.400																			1580040303.0	10.36	19.19
26/01/2020 12:05:04	26012020	260120	120504	100.300	12.409855	-57.201693	100.110	-0.310	-0.120	0.950	100.260	-1.700	1.400																			1580040304.0	10.12	18.74
26/01/2020 12:05:05	26012020	260120	120505	100.070	12.409845	-57.201647	99.900	-0.520	0.140	0.830	100.030	-1.300	1.300																			1580040305.0	10.09	18.69
26/01/2020 12:05:06	26012020	260120	120506	99.870	12.409835	-57.201598	99.780	-0.510	0.010	0.680	99.850	-1.300	1.100																			1580040306.0	10.50	19.45
26/01/2020 12:05:07	26012020	260120	120507	99.830	12.409823	-57.201548	99.800	-0.320	-0.140	0.590	99.840	-1.500	1.000																			1580040307.0	10.87	20.13
26/01/2020 12:05:08	26012020	260120	120508	99.900	12.409812	-57.201498	99.900	-0.100	0.000	0.600	99.920	-1.400	1.000																			1580040308.0	10.73	19.87
26/01/2020 12:05:09	26012020	260120	120509	100.020	12.409802	-57.201452	100.030	0.010	0.260	0.640	100.050	-1.200	1.000																			1580040309.0	10.31	19.09
26/01/2020 12:05:10	26012020	260120	120510	100.170	12.409790	-57.201405	100.210	0.000	0.370	0.610	100.210	-1.000	1.000																			1580040310.0	10.07	18.65
26/01/2020 12:05:11	26012020	260120	120511	100.370	12.409782	-57.201358	100.440	0.020	0.220	0.560	100.420	-1.000	1.000																			1580040311.0	10.06	18.63
26/01/2020 12:05:12	26012020	260120	120512	100.620	12.409772	-57.201310	100.660	0.200	-0.170	0.550	100.670	-1.400	0.900																			1580040312.0	10.20	18.89
26/01/2020 12:05:13	26012020	260120	120513	100.810	12.409762	-57.201262	100.730	0.460	-0.590	0.680	100.820	-1.800	1.000																			1580040313.0	10.37	19.21
26/01/2020 12:05:14	26012020	260120	120514	100.770	12.409753	-57.201215	100.570	0.600	-0.870	0.930	100.740	-2.100	1.200																			1580040314.0	10.39	19.24
26/01/2020 12:05:15	26012020	260120	120515	100.610	12.409742	-57.201167	100.330	0.550	-0.950	1.120	100.560	-2.300	1.400																			1580040315.0	10.32	19.11
26/01/2020 12:05:16	26012020	260120	120516	100.290	12.409733	-57.201118	100.070	0.320	-0.760	1.220	100.240	-2.200	1.600																			1580040316.0	10.25	18.98
26/01/2020 12:05:17	26012020	260120	120517	100.100	12.409725	-57.201072	99.910	-0.010	-0.490	1.110	100.060	-1.900	1.600																			1580040317.0	10.15	18.80
26/01/2020 12:05:18	26012020	260120	120518	99.900	12.409715	-57.201023	99.740	-0.280	-0.340	0.980	99.880	-1.700	1.400																			1580040318.0	10.27	19.02
26/01/2020 12:05:19	26012020	260120	120519	99.770	12.409705	-57.200975	99.660	-0.460	-0.210	1.020	99.750	-1.600	1.400																			1580040319.0	10.54	19.52
26/01/2020 12:05:20	26012020	260120	120520	99.730	12.409693	-57.200927	99.710	-0.630	0.070	1.100	99.740	-1.400	1.500																			1580040320.0	10.57	19.58
26/01/2020 12:05:21	26012020	260120	120521	99.820	12.409682	-57.200880	99.820	-0.730	0.310	1.090	99.840	-1.100	1.500																			1580040321.0	10.33	19.13
26/01/2020 12:05:22	26012020	260120	120522	99.900	12.409668	-57.200832	99.860	-0.600	0.250	1.050	99.910	-1.000	1.500																			1580040322.0	10.34	19.15
26/01/2020 12:05:23	26012020	260120	120523	99.950	12.409658	-57.200783	99.910	-0.240	0.040	0.880	99.960	-1.200	1.300																			1580040323.0	10.55	19.54
26/01/2020 12:05:24	26012020	260120	120524	100.010	12.409648	-57.200735	99.990	0.230	-0.150	0.620	100.030	-1.400	1.100																			1580040324.0	10.54	19.52
26/01/2020 12:05:25	26012020	260120	120525	100.100	12.409640	-57.200687	100.080	0.610	-0.290	0.370	100.120	-1.600	0.800																			1580040325.0	10.42	19.30
26/01/2020 12:05:26	26012020	260120	120526	100.210	12.409633	-57.200638	100.160	0.770	-0.390	0.200	100.230	-1.700	0.600																			1580040326.0	10.35	19.17
26/01/2020 12:05:27	26012020	260120	120527	100.280	12.409627	-57.200590	100.200	0.680	-0.420	0.190	100.280	-1.800	0.600																			1580040327.0	10.31	19.09
26/01/2020 12:05:28	26012020	260120	120528	100.310	12.409618	-57.200542	100.270	0.390	-0.190	0.390	100.320	-1.700	0.700																			1580040328.0	10.18	18.85
26/01/2020 12:05:29	26012020	260120	120529	100.390	12.409608	-57.200497	100.370	0.010	0.050	0.720	100.410	-1.400	1.000																			1580040329.0	9.82	18.19
26/01/2020 12:05:30	26012020	260120	120530	100.470	12.409598	-57.200452	100.400	-0.200	-0.170	1.040	100.480	-1.400	1.300																			1580040330.0	9.89	18.32
26/01/2020 12:05:31	26012020	260120	120531	100.440	12.409587	-57.200403	100.290	-0.180	-0.720	1.330	100.420	-1.900	1.600																			1580040331.0	10.54	19.52
26/01/2020 12:05:32	26012020	260120	120532	100.200	12.409573	-57.200353	99.950	-0.100	-1.090	1.500	100.140	-2.400	1.900																			1580040332.0	10.92	20.22
26/01/2020 12:05:33	26012020	260120	120533	99.890	12.409562	-57.200303	99.720	-0.120	-0.880	1.300	99.850	-2.400	1.800																			1580040333.0	10.72	19.85
26/01/2020 12:05:34	26012020	260120	120534	99.730	12.409553	-57.200255	99.640	-0.240	-0.310	1.010	99.710	-1.900	1.500																			1580040334.0	10.21	18.91
26/01/2020 12:05:35	26012020	260120	120535	99.690	12.409545	-57.200208	99.650	-0.390	0.130	0.790	99.690	-1.400	1.300																			1580040335.0	10.03	18.58
26/01/2020 12:05:36	26012020	260120	120536	99.750	12.409535	-57.200162	99.740	-0.480	0.260	0.600	99.760	-1.100	1.000																			1580040336.0	10.28	19.04
26/01/2020 12:05:37	26012020	260120	120537	99.850	12.409525	-57.200113	99.830	-0.430	0.190	0.570	99.870	-1.100	0.900																			1580040337.0	10.52	19.48
26/01/2020 12:05:38	26012020	260120	120538	99.920	12.409513	-57.200063	99.850	-0.160	0.080	0.630	99.920	-1.200	1.000																			1580040338.0	10.58	19.59
26/01/2020 12:05:39	26012020	260120	120539	99.900	12.409502	-57.200015	99.830	0.230	-0.040	0.690	99.900	-1.400	1.100																			1580040339.0	10.49	19.43
26/01/2020 12:05:40	26012020	260120	120540	99.880	12.409493	-57.199967	99.860	0.570	-0.260	0.640	99.880	-1.500	1.100																			1580040340.0	10.46	19.37
26/01/2020 12:05:41	26012020	260120	120541	99.930	12.409485	-57.199918	100.020	0.640	-0.320	0.460	99.950	-1.700	0.900																			1580040341.0	10.52	19.48
26/01/2020 12:05:42	26012020	260120	120542	100.180	12.409478	-57.199870	100.290	0.320	0.020	0.350	100.240	-1.500	0.800																			1580040342.0	10.18	18.85
26/01/2020 12:05:43	26012020	260120	120543	100.460	12.409472	-57.199825	100.490	-0.150	0.330	0.470	100.500	-1.100	0.800																			1580040343.0	9.56	17.71
26/01/2020 12:05:44	26012020	260120	120544	100.570	12.409462	-57.199782	100.470	-0.270	-0.120	0.700	100.560	-1.200	1.000																			1580040344.0	9.69	17.95
26/01/2020 12:05:45	26012020	260120	120545	100.430	12.409448	-57.199732	100.220	0.040	-1.130	0.970	100.370	-2.100	1.200																			1580040345.0	10.70	19.82
26/01/2020 12:05:46	26012020	260120	120546	100.110	12.409437	-57.199680	99.890	0.330	-1.600	1.120	100.040	-2.900	1.500																			1580040346.0	11.29	20.91
26/01/2020 12:05:47	26012020	260120	120547	99.790	12.409427	-57.199630	99.610	0.220	-0.990	0.990	99.750	-2.700	1.400																			1580040347.0	10.67	19.76
26/01/2020 12:05:48	26012020	260120	120548	99.590	12.409418	-57.199585	99.470	-0.190	0.010	0.900	99.560	-1.700	1.300																			1580040348.0	9.64	17.85
26/01/2020 12:05:49	26012020	260120	120549	99.470	12.409408	-57.199542	99.400	-0.490	0.410	0.840	99.450	-1.000	1.300																			1580040349.0	9.61	17.80
26/01/2020 12:05:50	26012020	260120	120550	99.450	12.409398	-57.199493	99.460	-0.460	0.120	0.650	99.470	-1.100	1.100																			1580040350.0	10.42	19.30
26/01/2020 12:05:51	26012020	260120	120551	99.560	12.409388	-57.199442	99.580	-0.190	-0.220	0.510	99.590	-1.500	0.900																			1580040351.0	11.04	20.45
26/01/2020 12:05:52	26012020	260120	120552	99.650	12.409378	-57.199392	99.670	0.020	-0.110	0.520	99.670	-1.600	0.900																			1580040352.0	10.88	20.15
26/01/2020 12:05:53	26012020	260120	120553	99.740	12.409368	-57.199343	99.850	0.010	0.280	0.540	99.770	-1.200	0.900																			1580040353.0	10.22	18.93
26/01/2020 12:05:54	26012020	260120	120554	100.010	12.409358	-57.199298	100.090	-0.070	0.450	0.550	100.060	-0.900	0.900																			1580040354.0	9.81	18.17
26/01/2020 12:05:55	26012020	260120	120555	100.210	12.409350	-57.199252	100.250	0.020	0.100	0.590	100.230	-1.100	1.000																			1580040355.0	10.01	18.54
26/01/2020 12:05:56	26012020	260120	120556	100.330	12.409340	-57.199203	100.340	0.230	-0.460	0.660	100.340	-1.600	1.000																			1580040356.0	10.51	19.46
26/01/2020 12:05:57	26012020	260120	120557	100.380	12.409330	-57.199155	100.300	0.320	-0.690	0.850	100.370	-2.000	1.100																			1580040357.0	10.54	19.52
26/01/2020 12:05:58	26012020	260120	120558	100.290	12.409322	-57.199108	100.140	0.230	-0.650	1.100	100.250	-2.000	1.400																			1580040358.0	10.11	18.72
26/01/2020 12:05:59	26012020	260120	120559	100.050	12.409312	-57.199062	99.860	0.130	-0.670	1.250	100.000	-2.000	1.600																			1580040359.0	10.01	18.54
26/01/2020 12:06:00	26012020	260120	120600	99.780	12.409302	-57.199013	99.590	0.120	-0.800	1.240	99.720	-2.100	1.700	1015.60	26.00	26.10	18.30	18.40	249.00	62.00	62.00	377.00	26.60	350.00	12.20	83.00	7.00	20415	3093.00	27.30	27.30	1580040360.0	10.33	19.13
26/01/2020 12:06:01	26012020	260120	120601	99.500	12.409292	-57.198965	99.330	0.090	-0.740	1.020	99.450	-2.200	1.500																			1580040361.0	10.59	19.61
26/01/2020 12:06:02	26012020	260120	120602	99.250	12.409283	-57.198915	99.090	-0.020	-0.390	0.810	99.200	-1.900	1.300																			1580040362.0	10.46	19.37
26/01/2020 12:06:03	26012020	260120	120603	99.060	12.409275	-57.198868	99.020	-0.170	0.090	0.680	99.040	-1.500	1.100																			1580040363.0	10.25	18.98
26/01/2020 12:06:04	26012020	260120	120604	99.080	12.409265	-57.198822	99.140	-0.280	0.450	0.570	99.100	-1.000	1.000																			1580040364.0	10.14	18.78
26/01/2020 12:06:05	26012020	260120	120605	99.200	12.409255	-57.198773	99.370	-0.350	0.510	0.450	99.240	-0.800	0.900																			1580040365.0	10.21	18.91
26/01/2020 12:06:06	26012020	260120	120606	99.500	12.409247	-57.198725	99.630	-0.340	0.250	0.490	99.550	-1.000	0.800																			1580040366.0	10.36	19.19
26/01/2020 12:06:07	26012020	260120	120607	99.710	12.409235	-57.198677	99.880	-0.180	-0.160	0.680	99.760	-1.400	1.000																			1580040367.0	10.51	19.46
26/01/2020 12:06:08	26012020	260120	120608	99.980	12.409225	-57.198628	100.050	0.100	-0.470	0.800	100.010	-1.700	1.100																			1580040368.0	10.50	19.45
26/01/2020 12:06:09	26012020	260120	120609	100.100	12.409215	-57.198582	100.070	0.350	-0.570	0.950	100.100	-1.900	1.300																			1580040369.0	10.33	19.13
26/01/2020 12:06:10	26012020	260120	120610	100.080	12.409205	-57.198533	100.000	0.400	-0.470	1.040	100.060	-1.900	1.400																			1580040370.0	10.14	18.78
26/01/2020 12:06:11	26012020	260120	120611	99.980	12.409197	-57.198488	99.840	0.260	-0.400	1.020	99.950	-1.800	1.400																			1580040371.0	9.95	18.43
26/01/2020 12:06:12	26012020	260120	120612	99.770	12.409190	-57.198440	99.580	0.170	-0.590	1.050	99.720	-1.900	1.400																			1580040372.0	10.17	18.83
26/01/2020 12:06:13	26012020	260120	120613	99.530	12.409180	-57.198390	99.360	0.170	-0.760	1.110	99.490	-2.100	1.500																			1580040373.0	10.60	19.63
26/01/2020 12:06:14	26012020	260120	120614	99.360	12.409172	-57.198342	99.240	0.090	-0.550	1.020	99.330	-2.000	1.500																			1580040374.0	10.64	19.71
26/01/2020 12:06:15	26012020	260120	120615	99.300	12.409163	-57.198293	99.240	-0.150	0.010	0.860	99.300	-1.600	1.300																			1580040375.0	10.23	18.95
26/01/2020 12:06:16	26012020	260120	120616	99.330	12.409153	-57.198248	99.310	-0.390	0.440	0.800	99.350	-1.000	1.200																			1580040376.0	9.91	18.35
26/01/2020 12:06:17	26012020	260120	120617	99.410	12.409143	-57.198202	99.410	-0.400	0.320	0.710	99.430	-0.900	1.100																			1580040377.0	10.08	18.67
26/01/2020 12:06:18	26012020	260120	120618	99.550	12.409133	-57.198152	99.620	-0.180	-0.180	0.510	99.600	-1.300	1.000																			1580040378.0	10.66	19.74
26/01/2020 12:06:19	26012020	260120	120619	99.810	12.409125	-57.198102	99.870	0.070	-0.380	0.300	99.860	-1.700	0.800																			1580040379.0	10.84	20.08
26/01/2020 12:06:20	26012020	260120	120620	100.020	12.409117	-57.198053	100.000	0.180	-0.210	0.200	100.040	-1.600	0.600																			1580040380.0	10.30	19.08
26/01/2020 12:06:21	26012020	260120	120621	100.120	12.409108	-57.198007	100.100	0.190	-0.120	0.190	100.140	-1.500	0.600																			1580040381.0	9.93	18.39
26/01/2020 12:06:22	26012020	260120	120622	100.180	12.409100	-57.197960	100.150	0.170	-0.270	0.360	100.200	-1.500	0.700																			1580040382.0	10.09	18.69
26/01/2020 12:06:23	26012020	260120	120623	100.200	12.409090	-57.197912	100.120	0.100	-0.500	0.640	100.190	-1.800	0.900																			1580040383.0	10.38	19.22
26/01/2020 12:06:24	26012020	260120	120624	100.100	12.409078	-57.197863	99.950	-0.020	-0.530	0.830	100.060	-1.900	1.200																			1580040384.0	10.44	19.33
26/01/2020 12:06:25	26012020	260120	120625	99.890	12.409068	-57.197817	99.740	-0.130	-0.350	0.910	99.850	-1.800	1.300																			1580040385.0	10.22	18.93
26/01/2020 12:06:26	26012020	260120	120626	99.710	12.409060	-57.197770	99.620	-0.160	-0.220	0.840	99.690	-1.600	1.300																			1580040386.0	10.10	18.71
26/01/2020 12:06:27	26012020	260120	120627	99.690	12.409050	-57.197722	99.680	-0.100	-0.240	0.600	99.710	-1.600	1.100																			1580040387.0	10.28	19.04
26/01/2020 12:06:28	26012020	260120	120628	99.730	12.409042	-57.197673	99.630	-0.010	-0.340	0.470	99.720	-1.700	0.900																			1580040388.0	10.45	19.35
26/01/2020 12:06:29	26012020	260120	120629	99.660	12.409032	-57.197625	99.530	0.090	-0.420	0.560	99.640	-1.800	0.900																			1580040389.0	10.56	19.56
26/01/2020 12:06:30	26012020	260120	120630	99.560	12.409022	-57.197575	99.520	0.190	-0.350	0.670	99.570	-1.800	1.000																			1580040390.0	10.54	19.52
26/01/2020 12:06:31	26012020	260120	120631	99.610	12.409013	-57.197527	99.650	0.220	-0.160	0.740	99.640	-1.600	1.100																			1580040391.0	10.38	19.22
26/01/2020 12:06:32	26012020	260120	120632	99.770	12.409003	-57.197480	99.760	0.120	0.050	0.820	99.780	-1.400	1.200																			1580040392.0	10.26	19.00
26/01/2020 12:06:33	26012020	260120	120633	99.860	12.408993	-57.197433	99.850	-0.110	0.200	0.920	99.870	-1.200	1.300																			1580040393.0	10.19	18.87
26/01/2020 12:06:34	26012020	260120	120634	99.940	12.408983	-57.197385	99.950	-0.320	0.140	1.060	99.950	-1.200	1.400																			1580040394.0	10.16	18.82
26/01/2020 12:06:35	26012020	260120	120635	100.050	12.408973	-57.197338	100.070	-0.340	-0.090	1.100	100.070	-1.400	1.500																			1580040395.0	10.30	19.08
26/01/2020 12:06:36	26012020	260120	120636	100.160	12.408963	-57.197290	100.150	-0.190	-0.360	0.980	100.180	-1.600	1.400																			1580040396.0	10.40	19.26
26/01/2020 12:06:37	26012020	260120	120637	100.250	12.408953	-57.197242	100.200	0.060	-0.600	0.790	100.250	-1.900	1.200																			1580040397.0	10.42	19.30
26/01/2020 12:06:38	26012020	260120	120638	100.230	12.408945	-57.197193	100.130	0.260	-0.670	0.630	100.220	-2.000	1.100																			1580040398.0	10.45	19.35
26/01/2020 12:06:39	26012020	260120	120639	100.150	12.408937	-57.197145	100.020	0.220	-0.430	0.420	100.130	-1.900	0.900																			1580040399.0	10.30	19.08
26/01/2020 12:06:40	26012020	260120	120640	100.030	12.408928	-57.197098	99.880	0.040	-0.150	0.270	100.000	-1.600	0.700																			1580040400.0	9.98	18.48
26/01/2020 12:06:41	26012020	260120	120641	99.880	12.408920	-57.197052	99.760	0.060	-0.340	0.160	99.860	-1.600	0.600																			1580040401.0	10.13	18.76
26/01/2020 12:06:42	26012020	260120	120642	99.820	12.408913	-57.197000	99.740	0.310	-0.710	0.070	99.820	-2.000	0.500																			1580040402.0	10.81	20.02
26/01/2020 12:06:43	26012020	260120	120643	99.830	12.408903	-57.196950	99.800	0.360	-0.540	0.210	99.840	-2.000	0.500																			1580040403.0	10.94	20.26
26/01/2020 12:06:44	26012020	260120	120644	99.900	12.408893	-57.196903	99.920	-0.010	0.130	0.470	99.930	-1.500	0.800																			1580040404.0	10.24	18.96
26/01/2020 12:06:45	26012020	260120	120645	100.010	12.408882	-57.196858	100.010	-0.470	0.620	0.680	100.040	-0.900	1.000																			1580040405.0	9.69	17.95
26/01/2020 12:06:46	26012020	260120	120646	100.120	12.408872	-57.196813	100.110	-0.600	0.470	0.760	100.140	-0.800	1.100																			1580040406.0	9.91	18.35
26/01/2020 12:06:47	26012020	260120	120647	100.200	12.408860	-57.196763	100.140	-0.310	-0.200	0.750	100.210	-1.300	1.100																			1580040407.0	10.57	19.58
26/01/2020 12:06:48	26012020	260120	120648	100.230	12.408850	-57.196713	100.170	0.100	-0.780	0.730	100.230	-2.000	1.100																			1580040408.0	11.00	20.37
26/01/2020 12:06:49	26012020	260120	120649	100.290	12.408840	-57.196663	100.320	0.200	-0.750	0.670	100.320	-2.200	1.100																			1580040409.0	10.76	19.93
26/01/2020 12:06:50	26012020	260120	120650	100.500	12.408830	-57.196617	100.530	-0.060	-0.220	0.530	100.540	-1.800	1.000																			1580040410.0	10.02	18.56
26/01/2020 12:06:51	26012020	260120	120651	100.700	12.408822	-57.196572	100.660	-0.340	0.200	0.450	100.720	-1.300	0.900																			1580040411.0	9.56	17.71
26/01/2020 12:06:52	26012020	260120	120652	100.730	12.408812	-57.196527	100.590	-0.280	0.000	0.480	100.710	-1.200	0.800																			1580040412.0	9.82	18.19
26/01/2020 12:06:53	26012020	260120	120653	100.580	12.408800	-57.196478	100.420	0.160	-0.680	0.560	100.540	-1.800	0.900																			1580040413.0	10.62	19.67
26/01/2020 12:06:54	26012020	260120	120654	100.430	12.408790	-57.196427	100.330	0.610	-1.030	0.610	100.420	-2.400	1.000																			1580040414.0	11.13	20.61
26/01/2020 12:06:55	26012020	260120	120655	100.390	12.408780	-57.196377	100.310	0.680	-0.580	0.560	100.380	-2.200	1.000																			1580040415.0	10.63	19.69
26/01/2020 12:06:56	26012020	260120	120656	100.390	12.408772	-57.196332	100.300	0.380	0.160	0.410	100.390	-1.500	0.900																			1580040416.0	9.79	18.13
26/01/2020 12:06:57	26012020	260120	120657	100.400	12.408765	-57.196287	100.310	0.060	0.410	0.420	100.410	-1.000	0.800																			1580040417.0	9.68	17.93
26/01/2020 12:06:58	26012020	260120	120658	100.400	12.408755	-57.196238	100.320	-0.060	0.090	0.600	100.400	-1.100	0.900																			1580040418.0	10.28	19.04
26/01/2020 12:06:59	26012020	260120	120659	100.440	12.408745	-57.196188	100.420	-0.100	-0.310	0.730	100.460	-1.500	1.100																			1580040419.0	10.77	19.95
26/01/2020 12:07:00	26012020	260120	120700	100.590	12.408733	-57.196140	100.590	-0.270	-0.330	0.970	100.620	-1.700	1.200	1015.70	26.00	26.00	18.20	18.30	252.00	62.00	62.00	377.00	26.60	351.00	12.20	85.00	7.00	20751	3160.00	27.30	27.30	1580040420.0	10.67	19.76
26/01/2020 12:07:01	26012020	260120	120701	100.730	12.408722	-57.196093	100.730	-0.560	-0.040	1.230	100.760	-1.500	1.500																			1580040421.0	10.10	18.71
26/01/2020 12:07:02	26012020	260120	120702	100.840	12.408708	-57.196048	100.770	-0.650	-0.060	1.320	100.850	-1.300	1.700																			1580040422.0	9.84	18.22
26/01/2020 12:07:03	26012020	260120	120703	100.820	12.408697	-57.196002	100.660	-0.380	-0.520	1.240	100.790	-1.700	1.700																			1580040423.0	10.31	19.09
26/01/2020 12:07:04	26012020	260120	120704	100.690	12.408685	-57.195952	100.520	0.010	-0.850	0.980	100.660	-2.100	1.500																			1580040424.0	10.79	19.98
26/01/2020 12:07:05	26012020	260120	120705	100.590	12.408677	-57.195902	100.480	0.250	-0.680	0.600	100.580	-2.200	1.100																			1580040425.0	10.58	19.59
26/01/2020 12:07:06	26012020	260120	120706	100.590	12.408668	-57.195855	100.520	0.300	-0.260	0.270	100.590	-1.800	0.800																			1580040426.0	10.11	18.72
26/01/2020 12:07:07	26012020	260120	120707	100.620	12.408660	-57.195808	100.530	0.300	0.030	0.160	100.620	-1.400	0.600																			1580040427.0	9.98	18.48
26/01/2020 12:07:08	26012020	260120	120708	100.600	12.408652	-57.195762	100.500	0.360	0.080	0.220	100.590	-1.300	0.600																			1580040428.0	10.22	18.93
26/01/2020 12:07:09	26012020	260120	120709	100.600	12.408642	-57.195713	100.590	0.400	0.050	0.330	100.620	-1.300	0.700																			1580040429.0	10.43	19.32
26/01/2020 12:07:10	26012020	260120	120710	100.750	12.408633	-57.195665	100.820	0.300	0.070	0.410	100.790	-1.300	0.800																			1580040430.0	10.37	19.21
26/01/2020 12:07:11	26012020	260120	120711	100.990	12.408623	-57.195617	101.020	0.070	-0.010	0.530	101.030	-1.300	0.900																			1580040431.0	10.20	18.89
26/01/2020 12:07:12	26012020	260120	120712	101.100	12.408613	-57.195570	101.030	-0.120	-0.300	0.720	101.100	-1.500	1.000																			1580040432.0	10.26	19.00
26/01/2020 12:07:13	26012020	260120	120713	101.010	12.408602	-57.195522	100.890	-0.160	-0.630	0.940	100.980	-1.900	1.200																			1580040433.0	10.49	19.43
26/01/2020 12:07:14	26012020	260120	120714	100.870	12.408590	-57.195473	100.780	-0.170	-0.700	1.000	100.850	-2.100	1.400																			1580040434.0	10.55	19.54
26/01/2020 12:07:15	26012020	260120	120715	100.810	12.408580	-57.195427	100.750	-0.240	-0.520	0.890	100.810	-2.000	1.300																			1580040435.0	10.29	19.06
26/01/2020 12:07:16	26012020	260120	120716	100.800	12.408568	-57.195380	100.710	-0.320	-0.290	0.780	100.790	-1.700	1.200																			1580040436.0	10.13	18.76
26/01/2020 12:07:17	26012020	260120	120717	100.730	12.408558	-57.195332	100.580	-0.320	-0.150	0.710	100.710	-1.500	1.100																			1580040437.0	10.18	18.85
26/01/2020 12:07:18	26012020	260120	120718	100.570	12.408547	-57.195285	100.410	-0.200	-0.220	0.580	100.540	-1.500	1.000																			1580040438.0	10.35	19.17
26/01/2020 12:07:19	26012020	260120	120719	100.430	12.408537	-57.195235	100.310	0.010	-0.340	0.410	100.400	-1.700	0.900																			1580040439.0	10.62	19.67
26/01/2020 12:07:20	26012020	260120	120720	100.390	12.408525	-57.195187	100.330	0.170	-0.200	0.240	100.390	-1.600	0.700																			1580040440.0	10.60	19.63
26/01/2020 12:07:21	26012020	260120	120721	100.470	12.408517	-57.195138	100.430	0.260	0.060	0.100	100.480	-1.400	0.500																			1580040441.0	10.25	18.98
26/01/2020 12:07:22	26012020	260120	120722	100.580	12.408508	-57.195092	100.590	0.290	0.190	0.010	100.610	-1.200	0.400																			1580040442.0	10.13	18.76
26/01/2020 12:07:23	26012020	260120	120723	100.780	12.408500	-57.195045	100.810	0.270	0.120	0.110	100.830	-1.200	0.400																			1580040443.0	10.20	18.89
26/01/2020 12:07:24	26012020	260120	120724	100.960	12.408490	-57.194997	100.920	0.200	-0.120	0.490	100.980	-1.400	0.700																			1580040444.0	10.33	19.13
26/01/2020 12:07:25	26012020	260120	120725	100.980	12.408478	-57.194948	100.860	0.060	-0.420	0.930	100.960	-1.700	1.200																			1580040445.0	10.43	19.32
26/01/2020 12:07:26	26012020	260120	120726	100.860	12.408467	-57.194902	100.700	-0.020	-0.690	1.210	100.820	-2.000	1.500																			1580040446.0	10.44	19.33
26/01/2020 12:07:27	26012020	260120	120727	100.640	12.408455	-57.194853	100.440	-0.030	-0.780	1.360	100.580	-2.100	1.700																			1580040447.0	10.49	19.43
26/01/2020 12:07:28	26012020	260120	120728	100.380	12.408445	-57.194805	100.240	-0.070	-0.590	1.240	100.350	-2.000	1.700																			1580040448.0	10.38	19.22
26/01/2020 12:07:29	26012020	260120	120729	100.260	12.408435	-57.194757	100.170	-0.140	-0.320	1.060	100.250	-1.800	1.500																			1580040449.0	10.21	18.91
26/01/2020 12:07:30	26012020	260120	120730	100.220	12.408423	-57.194710	100.150	-0.170	-0.090	0.920	100.220	-1.500	1.400																			1580040450.0	10.22	18.93
26/01/2020 12:07:31	26012020	260120	120731	100.210	12.408413	-57.194663	100.150	-0.100	0.000	0.690	100.210	-1.400	1.200																			1580040451.0	10.32	19.11
26/01/2020 12:07:32	26012020	260120	120732	100.220	12.408403	-57.194615	100.160	0.050	-0.080	0.470	100.220	-1.400	0.900																			1580040452.0	10.47	19.39
26/01/2020 12:07:33	26012020	260120	120733	100.250	12.408393	-57.194565	100.210	0.180	-0.120	0.300	100.260	-1.500	0.800																			1580040453.0	10.59	19.61
26/01/2020 12:07:34	26012020	260120	120734	100.310	12.408385	-57.194517	100.270	0.160	-0.010	0.220	100.330	-1.400	0.600																			1580040454.0	10.44	19.33
26/01/2020 12:07:35	26012020	260120	120735	100.430	12.408377	-57.194470	100.460	-0.070	0.130	0.380	100.470	-1.300	0.700																			1580040455.0	10.14	18.78
26/01/2020 12:07:36	26012020	260120	120736	100.660	12.408365	-57.194423	100.690	-0.310	-0.050	0.710	100.700	-1.300	1.000																			1580040456.0	10.06	18.63
26/01/2020 12:07:37	26012020	260120	120737	100.790	12.408353	-57.194375	100.690	-0.290	-0.570	1.060	100.780	-1.700	1.300																			1580040457.0	10.43	19.32
26/01/2020 12:07:38	26012020	260120	120738	100.620	12.408340	-57.194325	100.400	-0.020	-0.970	1.300	100.560	-2.200	1.600																			1580040458.0	10.83	20.06
26/01/2020 12:07:39	26012020	260120	120739	100.320	12.408328	-57.194277	100.140	0.210	-0.840	1.270	100.270	-2.300	1.700																			1580040459.0	10.71	19.83
26/01/2020 12:07:40	26012020	260120	120740	100.160	12.408320	-57.194228	100.090	0.190	-0.300	0.930	100.160	-1.900	1.500																			1580040460.0	10.22	18.93
26/01/2020 12:07:41	26012020	260120	120741	100.210	12.408312	-57.194183	100.180	-0.040	0.210	0.560	100.230	-1.300	1.100																			1580040461.0	9.90	18.33
26/01/2020 12:07:42	26012020	260120	120742	100.320	12.408303	-57.194137	100.260	-0.240	0.310	0.400	100.330	-1.000	0.800																			1580040462.0	9.99	18.50
26/01/2020 12:07:43	26012020	260120	120743	100.380	12.408293	-57.194088	100.290	-0.110	-0.010	0.480	100.380	-1.200	0.800																			1580040463.0	10.44	19.33
26/01/2020 12:07:44	26012020	260120	120744	100.360	12.408282	-57.194038	100.250	0.260	-0.310	0.560	100.350	-1.600	0.900																			1580040464.0	10.78	19.96
26/01/2020 12:07:45	26012020	260120	120745	100.320	12.408272	-57.193988	100.210	0.500	-0.370	0.450	100.310	-1.700	0.900																			1580040465.0	10.63	19.69
26/01/2020 12:07:46	26012020	260120	120746	100.290	12.408263	-57.193942	100.250	0.400	-0.300	0.310	100.310	-1.700	0.700																			1580040466.0	10.34	19.15
26/01/2020 12:07:47	26012020	260120	120747	100.360	12.408257	-57.193893	100.360	0.080	-0.200	0.330	100.380	-1.600	0.700																			1580040467.0	10.16	18.82
26/01/2020 12:07:48	26012020	260120	120748	100.440	12.408247	-57.193847	100.300	-0.230	-0.230	0.540	100.430	-1.600	0.800																			1580040468.0	10.14	18.78
26/01/2020 12:07:49	26012020	260120	120749	100.310	12.408235	-57.193798	100.130	-0.400	-0.400	0.800	100.270	-1.700	1.100																			1580040469.0	10.34	19.15
26/01/2020 12:07:50	26012020	260120	120750	100.120	12.408222	-57.193750	99.980	-0.400	-0.540	0.980	100.090	-1.900	1.300																			1580040470.0	10.54	19.52
26/01/2020 12:07:51	26012020	260120	120751	100.010	12.408210	-57.193702	99.930	-0.320	-0.520	1.030	100.000	-1.900	1.400																			1580040471.0	10.55	19.54
26/01/2020 12:07:52	26012020	260120	120752	99.990	12.408198	-57.193655	99.910	-0.250	-0.400	0.920	99.990	-1.800	1.400																			1580040472.0	10.44	19.33
26/01/2020 12:07:53	26012020	260120	120753	99.970	12.408187	-57.193607	99.850	-0.170	-0.210	0.680	99.960	-1.700	1.200																			1580040473.0	10.42	19.30
26/01/2020 12:07:54	26012020	260120	120754	99.930	12.408177	-57.193558	99.830	-0.060	0.090	0.400	99.920	-1.400	0.900																			1580040474.0	10.32	19.11
26/01/2020 12:07:55	26012020	260120	120755	99.980	12.408168	-57.193512	99.920	0.100	0.270	0.110	100.000	-1.100	0.600																			1580040475.0	10.15	18.80
26/01/2020 12:07:56	26012020	260120	120756	100.090	12.408160	-57.193463	100.000	0.370	0.050	-0.050	100.100	-1.200	0.400																			1580040476.0	10.27	19.02
26/01/2020 12:07:57	26012020	260120	120757	100.140	12.408153	-57.193413	100.050	0.640	-0.360	0.000	100.140	-1.600	0.300																			1580040477.0	10.68	19.78
26/01/2020 12:07:58	26012020	260120	120758	100.170	12.408143	-57.193363	100.060	0.660	-0.460	0.370	100.170	-1.800	0.600																			1580040478.0	10.75	19.91
26/01/2020 12:07:59	26012020	260120	120759	100.150	12.408133	-57.193317	100.040	0.320	-0.170	0.800	100.140	-1.700	1.000																			1580040479.0	10.23	18.95
26/01/2020 12:08:00	26012020	260120	120800	100.070	12.408123	-57.193272	99.910	-0.130	-0.030	1.180	100.040	-1.400	1.400	1015.70	26.00	26.00	18.40	18.50	263.00	63.00	63.00	377.00	26.60	352.00	11.90	85.00	6.60	21312	3139.00	27.40	27.30	1580040480.0	9.81	18.17
26/01/2020 12:08:01	26012020	260120	120801	99.930	12.408113	-57.193225	99.790	-0.370	-0.420	1.440	99.900	-1.600	1.700																			1580040481.0	10.14	18.78
26/01/2020 12:08:02	26012020	260120	120802	99.820	12.408100	-57.193175	99.680	-0.420	-0.880	1.580	99.790	-2.100	1.900																			1580040482.0	10.83	20.06
26/01/2020 12:08:03	26012020	260120	120803	99.670	12.408088	-57.193125	99.510	-0.430	-0.820	1.480	99.640	-2.300	1.900																			1580040483.0	10.83	20.06
26/01/2020 12:08:04	26012020	260120	120804	99.480	12.408077	-57.193078	99.310	-0.390	-0.320	1.190	99.440	-1.900	1.700																			1580040484.0	10.28	19.04
26/01/2020 12:08:05	26012020	260120	120805	99.320	12.408067	-57.193032	99.200	-0.240	0.020	0.890	99.300	-1.400	1.400																			1580040485.0	10.00	18.52
26/01/2020 12:08:06	26012020	260120	120806	99.260	12.408057	-57.192983	99.230	0.020	-0.040	0.460	99.270	-1.300	1.000																			1580040486.0	10.33	19.13
26/01/2020 12:08:07	26012020	260120	120807	99.400	12.408048	-57.192933	99.430	0.240	-0.050	-0.050	99.440	-1.400	0.500																			1580040487.0	10.70	19.82
26/01/2020 12:08:08	26012020	260120	120808	99.620	12.408043	-57.192885	99.630	0.280	0.210	-0.160	99.660	-1.300	0.200																			1580040488.0	10.42	19.30
26/01/2020 12:08:09	26012020	260120	120809	99.760	12.408035	-57.192838	99.770	0.210	0.290	0.030	99.790	-1.000	0.300																			1580040489.0	9.99	18.50
26/01/2020 12:08:10	26012020	260120	120810	99.910	12.408025	-57.192792	99.890	0.190	-0.100	0.250	99.930	-1.300	0.600																			1580040490.0	10.19	18.87
26/01/2020 12:08:11	26012020	260120	120811	99.980	12.408017	-57.192742	99.970	0.230	-0.690	0.600	100.000	-1.800	0.800																			1580040491.0	10.66	19.74
26/01/2020 12:08:12	26012020	260120	120812	100.050	12.408005	-57.192692	99.940	0.170	-0.920	1.000	100.040	-2.200	1.200																			1580040492.0	10.80	20.00
26/01/2020 12:08:13	26012020	260120	120813	99.960	12.407993	-57.192643	99.800	-0.090	-0.540	1.340	99.930	-2.100	1.600																			1580040493.0	10.39	19.24
26/01/2020 12:08:14	26012020	260120	120814	99.760	12.407982	-57.192600	99.580	-0.420	0.040	1.450	99.720	-1.500	1.800																			1580040494.0	9.79	18.13
26/01/2020 12:08:15	26012020	260120	120815	99.580	12.407972	-57.192555	99.460	-0.470	0.020	1.220	99.550	-1.200	1.700																			1580040495.0	9.77	18.09
26/01/2020 12:08:16	26012020	260120	120816	99.510	12.407962	-57.192505	99.430	-0.090	-0.630	0.750	99.510	-1.700	1.300																			1580040496.0	10.62	19.67
26/01/2020 12:08:17	26012020	260120	120817	99.480	12.407953	-57.192453	99.340	0.330	-0.920	0.390	99.460	-2.300	0.900																			1580040497.0	11.27	20.87
26/01/2020 12:08:18	26012020	260120	120818	99.400	12.407945	-57.192403	99.280	0.360	-0.320	0.160	99.390	-2.000	0.600																			1580040498.0	10.67	19.76
26/01/2020 12:08:19	26012020	260120	120819	99.390	12.407938	-57.192357	99.320	0.060	0.490	0.200	99.400	-1.100	0.500																			1580040499.0	9.69	17.95
26/01/2020 12:08:20	26012020	260120	120820	99.460	12.407928	-57.192313	99.440	-0.180	0.610	0.410	99.480	-0.700	0.700																			1580040500.0	9.61	17.80
26/01/2020 12:08:21	26012020	260120	120821	99.590	12.407918	-57.192265	99.580	-0.190	0.040	0.570	99.620	-1.100	0.900																			1580040501.0	10.40	19.26
26/01/2020 12:08:22	26012020	260120	120822	99.720	12.407908	-57.192215	99.680	-0.090	-0.470	0.690	99.730	-1.700	1.000																			1580040502.0	10.91	20.21
26/01/2020 12:08:23	26012020	260120	120823	99.770	12.407898	-57.192165	99.700	-0.020	-0.500	0.830	99.780	-1.900	1.200																			1580040503.0	10.58	19.59
26/01/2020 12:08:24	26012020	260120	120824	99.780	12.407888	-57.192118	99.710	-0.000	-0.390	0.920	99.780	-1.800	1.300																			1580040504.0	10.10	18.71
26/01/2020 12:08:25	26012020	260120	120825	99.790	12.407878	-57.192072	99.720	0.020	-0.400	0.910	99.800	-1.700	1.300																			1580040505.0	10.10	18.71
26/01/2020 12:08:26	26012020	260120	120826	99.790	12.407868	-57.192023	99.650	0.080	-0.490	0.790	99.780	-1.800	1.200																			1580040506.0	10.29	19.06
26/01/2020 12:08:27	26012020	260120	120827	99.720	12.407860	-57.191975	99.580	0.130	-0.470	0.570	99.710	-1.900	1.000																			1580040507.0	10.41	19.28
26/01/2020 12:08:28	26012020	260120	120828	99.660	12.407852	-57.191928	99.520	0.130	-0.340	0.490	99.650	-1.800	0.900																			1580040508.0	10.32	19.11
26/01/2020 12:08:29	26012020	260120	120829	99.610	12.407843	-57.191880	99.470	0.050	-0.260	0.580	99.600	-1.600	0.900																			1580040509.0	10.29	19.06
26/01/2020 12:08:30	26012020	260120	120830	99.550	12.407833	-57.191832	99.380	-0.070	-0.240	0.760	99.530	-1.600	1.100																			1580040510.0	10.39	19.24
26/01/2020 12:08:31	26012020	260120	120831	99.430	12.407822	-57.191783	99.280	-0.140	-0.180	0.880	99.400	-1.600	1.200																			1580040511.0	10.49	19.43
26/01/2020 12:08:32	26012020	260120	120832	99.380	12.407812	-57.191735	99.330	-0.160	-0.020	0.910	99.390	-1.400	1.300																			1580040512.0	10.40	19.26
26/01/2020 12:08:33	26012020	260120	120833	99.510	12.407802	-57.191688	99.520	-0.160	0.070	0.820	99.550	-1.300	1.300																			1580040513.0	10.27	19.02
26/01/2020 12:08:34	26012020	260120	120834	99.690	12.407793	-57.191640	99.650	-0.110	0.000	0.630	99.710	-1.300	1.100																			1580040514.0	10.31	19.09
26/01/2020 12:08:35	26012020	260120	120835	99.760	12.407783	-57.191592	99.730	0.020	-0.080	0.500	99.770	-1.400	0.900																			1580040515.0	10.39	19.24
26/01/2020 12:08:36	26012020	260120	120836	99.900	12.407775	-57.191543	99.920	0.200	-0.180	0.290	99.940	-1.500	0.800																			1580040516.0	10.30	19.08
26/01/2020 12:08:37	26012020	260120	120837	100.080	12.407767	-57.191495	100.090	0.350	-0.330	0.100	100.110	-1.600	0.600																			1580040517.0	10.31	19.09
26/01/2020 12:08:38	26012020	260120	120838	100.210	12.407758	-57.191447	100.080	0.360	-0.460	0.140	100.200	-1.800	0.500																			1580040518.0	10.34	19.15
26/01/2020 12:08:39	26012020	260120	120839	100.120	12.407750	-57.191398	99.970	0.250	-0.550	0.450	100.090	-1.900	0.700																			1580040519.0	10.32	19.11
26/01/2020 12:08:40	26012020	260120	120840	100.030	12.407740	-57.191352	99.910	0.070	-0.590	0.840	100.010	-2.000	1.100																			1580040520.0	10.35	19.17
26/01/2020 12:08:41	26012020	260120	120841	99.980	12.407730	-57.191303	99.850	-0.160	-0.550	1.090	99.970	-1.900	1.400																			1580040521.0	10.38	19.22
26/01/2020 12:08:42	26012020	260120	120842	99.850	12.407718	-57.191255	99.670	-0.370	-0.450	1.180	99.810	-1.900	1.500																			1580040522.0	10.42	19.30
26/01/2020 12:08:43	26012020	260120	120843	99.640	12.407707	-57.191207	99.520	-0.510	-0.260	1.150	99.600	-1.700	1.600																			1580040523.0	10.46	19.37
26/01/2020 12:08:44	26012020	260120	120844	99.560	12.407695	-57.191160	99.540	-0.500	-0.070	0.950	99.580	-1.500	1.400																			1580040524.0	10.39	19.24
26/01/2020 12:08:45	26012020	260120	120845	99.650	12.407685	-57.191112	99.650	-0.330	0.040	0.610	99.670	-1.400	1.100																			1580040525.0	10.43	19.32
26/01/2020 12:08:46	26012020	260120	120846	99.770	12.407675	-57.191063	99.770	-0.080	0.100	0.260	99.800	-1.300	0.800																			1580040526.0	10.45	19.35
26/01/2020 12:08:47	26012020	260120	120847	99.940	12.407667	-57.191015	99.960	0.150	0.110	-0.040	99.980	-1.300	0.500																			1580040527.0	10.44	19.33
26/01/2020 12:08:48	26012020	260120	120848	100.170	12.407658	-57.190967	100.230	0.310	0.100	-0.190	100.230	-1.300	0.200																			1580040528.0	10.34	19.15
26/01/2020 12:08:49	26012020	260120	120849	100.450	12.407652	-57.190918	100.470	0.410	-0.010	-0.090	100.500	-1.300	0.200																			1580040529.0	10.24	18.96
26/01/2020 12:08:50	26012020	260120	120850	100.640	12.407643	-57.190870	100.560	0.470	-0.290	0.230	100.660	-1.500	0.500																			1580040530.0	10.28	19.04
26/01/2020 12:08:51	26012020	260120	120851	100.670	12.407633	-57.190822	100.530	0.450	-0.610	0.580	100.660	-1.900	0.800																			1580040531.0	10.44	19.33
26/01/2020 12:08:52	26012020	260120	120852	100.600	12.407622	-57.190773	100.420	0.320	-0.760	0.940	100.570	-2.100	1.200																			1580040532.0	10.49	19.43
26/01/2020 12:08:53	26012020	260120	120853	100.440	12.407612	-57.190725	100.250	0.100	-0.700	1.100	100.400	-2.100	1.500																			1580040533.0	10.36	19.19
26/01/2020 12:08:54	26012020	260120	120854	100.260	12.407602	-57.190678	100.050	-0.160	-0.580	1.100	100.220	-2.000	1.500																			1580040534.0	10.29	19.06
26/01/2020 12:08:55	26012020	260120	120855	100.040	12.407590	-57.190630	99.870	-0.400	-0.410	1.100	100.000	-1.900	1.500																			1580040535.0	10.37	19.21
26/01/2020 12:08:56	26012020	260120	120856	99.920	12.407580	-57.190582	99.860	-0.560	-0.230	0.980	99.930	-1.700	1.400																			1580040536.0	10.42	19.30
26/01/2020 12:08:57	26012020	260120	120857	99.990	12.407568	-57.190533	99.960	-0.630	-0.040	0.830	100.010	-1.500	1.300																			1580040537.0	10.49	19.43
26/01/2020 12:08:58	26012020	260120	120858	100.090	12.407555	-57.190487	100.060	-0.600	0.170	0.670	100.110	-1.300	1.100																			1580040538.0	10.45	19.35
26/01/2020 12:08:59	26012020	260120	120859	100.150	12.407543	-57.190438	100.150	-0.440	0.320	0.430	100.170	-1.100	0.900																			1580040539.0	10.33	19.13
26/01/2020 12:09:00	26012020	260120	120900	100.310	12.407533	-57.190392	100.320	-0.040	0.180	0.080	100.340	-1.100	0.600	1015.70	26.00	26.00	18.60	18.70	268.00	63.00	64.00	378.00	26.60	350.00	11.80	81.00	6.60	21688	3202.00	27.30	27.30	1580040540.0	10.29	19.06
26/01/2020 12:09:01	26012020	260120	120901	100.470	12.407527	-57.190342	100.490	0.520	-0.260	-0.230	100.500	-1.400	0.300																			1580040541.0	10.56	19.56
26/01/2020 12:09:02	26012020	260120	120902	100.650	12.407518	-57.190292	100.570	0.930	-0.600	-0.290	100.660	-1.900	0.100																			1580040542.0	10.82	20.04
26/01/2020 12:09:03	26012020	260120	120903	100.700	12.407512	-57.190242	100.640	0.890	-0.520	-0.040	100.710	-2.000	0.200																			1580040543.0	10.57	19.58
26/01/2020 12:09:04	26012020	260120	120904	100.780	12.407503	-57.190195	100.740	0.490	-0.270	0.390	100.790	-1.700	0.600																			1580040544.0	10.07	18.65
26/01/2020 12:09:05	26012020	260120	120905	100.810	12.407492	-57.190148	100.660	0.060	-0.280	0.870	100.790	-1.600	1.100																			1580040545.0	10.02	18.56
26/01/2020 12:09:06	26012020	260120	120906	100.640	12.407480	-57.190102	100.450	-0.210	-0.470	1.240	100.590	-1.800	1.500																			1580040546.0	10.47	19.39
26/01/2020 12:09:07	26012020	260120	120907	100.450	12.407467	-57.190052	100.370	-0.400	-0.420	1.400	100.440	-1.800	1.800																			1580040547.0	10.64	19.71
26/01/2020 12:09:08	26012020	260120	120908	100.430	12.407455	-57.190005	100.390	-0.520	-0.190	1.270	100.440	-1.600	1.700																			1580040548.0	10.33	19.13
26/01/2020 12:09:09	26012020	260120	120909	100.490	12.407443	-57.189958	100.440	-0.530	-0.080	0.950	100.500	-1.500	1.500																			1580040549.0	10.23	18.95
26/01/2020 12:09:10	26012020	260120	120910	100.540	12.407432	-57.189910	100.480	-0.410	-0.140	0.660	100.540	-1.500	1.100																			1580040550.0	10.42	19.30
26/01/2020 12:09:11	26012020	260120	120911	100.560	12.407422	-57.189862	100.490	-0.180	-0.220	0.430	100.560	-1.600	0.900																			1580040551.0	10.56	19.56
26/01/2020 12:09:12	26012020	260120	120912	100.600	12.407412	-57.189813	100.530	0.100	-0.200	0.220	100.620	-1.600	0.700																			1580040552.0	10.49	19.43
26/01/2020 12:09:13	26012020	260120	120913	100.650	12.407402	-57.189765	100.540	0.350	-0.230	0.160	100.660	-1.600	0.500																			1580040553.0	10.36	19.19
26/01/2020 12:09:14	26012020	260120	120914	100.640	12.407392	-57.189717	100.480	0.480	-0.340	0.310	100.620	-1.700	0.600																			1580040554.0	10.46	19.37
26/01/2020 12:09:15	26012020	260120	120915	100.550	12.407382	-57.189667	100.390	0.420	-0.420	0.600	100.530	-1.800	0.900																			1580040555.0	10.54	19.52
26/01/2020 12:09:16	26012020	260120	120916	100.450	12.407372	-57.189618	100.290	0.240	-0.370	0.950	100.430	-1.800	1.200																			1580040556.0	10.48	19.41
26/01/2020 12:09:17	26012020	260120	120917	100.340	12.407360	-57.189572	100.210	0.050	-0.190	1.140	100.320	-1.600	1.500																			1580040557.0	10.37	19.21
26/01/2020 12:09:18	26012020	260120	120918	100.280	12.407350	-57.189523	100.200	-0.130	-0.020	1.110	100.280	-1.400	1.500																			1580040558.0	10.27	19.02
26/01/2020 12:09:19	26012020	260120	120919	100.290	12.407338	-57.189477	100.230	-0.300	0.020	1.040	100.290	-1.400	1.400																			1580040559.0	10.31	19.09
26/01/2020 12:09:20	26012020	260120	120920	100.320	12.407327	-57.189428	100.280	-0.420	-0.040	0.900	100.330	-1.400	1.400																			1580040560.0	10.39	19.24
26/01/2020 12:09:21	26012020	260120	120921	100.390	12.407317	-57.189382	100.340	-0.370	-0.160	0.660	100.400	-1.500	1.100																			1580040561.0	10.37	19.21
26/01/2020 12:09:22	26012020	260120	120922	100.410	12.407305	-57.189333	100.270	-0.070	-0.370	0.520	100.400	-1.600	0.900																			1580040562.0	10.40	19.26
26/01/2020 12:09:23	26012020	260120	120923	100.310	12.407295	-57.189285	100.140	0.310	-0.630	0.480	100.280	-1.900	0.900																			1580040563.0	10.57	19.58
26/01/2020 12:09:24	26012020	260120	120924	100.170	12.407285	-57.189235	100.020	0.500	-0.720	0.500	100.150	-2.100	0.900																			1580040564.0	10.64	19.71
26/01/2020 12:09:25	26012020	260120	120925	100.090	12.407277	-57.189187	99.950	0.420	-0.470	0.600	100.070	-2.000	0.900																			1580040565.0	10.49	19.43
26/01/2020 12:09:26	26012020	260120	120926	100.040	12.407267	-57.189138	99.940	0.160	-0.040	0.880	100.040	-1.600	1.100																			1580040566.0	10.14	18.78
26/01/2020 12:09:27	26012020	260120	120927	100.030	12.407257	-57.189093	99.860	-0.110	0.130	1.190	100.010	-1.200	1.500																			1580040567.0	10.06	18.63
26/01/2020 12:09:28	26012020	260120	120928	99.890	12.407243	-57.189045	99.720	-0.190	-0.110	1.350	99.860	-1.400	1.700																			1580040568.0	10.44	19.33
26/01/2020 12:09:29	26012020	260120	120929	99.710	12.407232	-57.188995	99.580	-0.100	-0.380	1.300	99.690	-1.700	1.700																			1580040569.0	10.84	20.08
26/01/2020 12:09:30	26012020	260120	120930	99.630	12.407222	-57.188945	99.570	-0.020	-0.290	1.070	99.640	-1.700	1.600																			1580040570.0	10.76	19.93
26/01/2020 12:09:31	26012020	260120	120931	99.700	12.407212	-57.188898	99.680	-0.120	0.050	0.850	99.720	-1.500	1.300																			1580040571.0	10.26	19.00
26/01/2020 12:09:32	26012020	260120	120932	99.810	12.407203	-57.188852	99.730	-0.270	0.180	0.690	99.820	-1.200	1.100																			1580040572.0	9.96	18.45
26/01/2020 12:09:33	26012020	260120	120933	99.820	12.407193	-57.188805	99.700	-0.280	-0.100	0.640	99.820	-1.300	1.000																			1580040573.0	10.20	18.89
26/01/2020 12:09:34	26012020	260120	120934	99.780	12.407183	-57.188755	99.680	-0.120	-0.490	0.720	99.770	-1.700	1.100																			1580040574.0	10.60	19.63
26/01/2020 12:09:35	26012020	260120	120935	99.750	12.407172	-57.188707	99.650	0.070	-0.710	0.810	99.740	-2.000	1.200																			1580040575.0	10.64	19.71
26/01/2020 12:09:36	26012020	260120	120936	99.710	12.407162	-57.188658	99.570	0.170	-0.700	0.960	99.690	-2.100	1.300																			1580040576.0	10.47	19.39
26/01/2020 12:09:37	26012020	260120	120937	99.580	12.407152	-57.188610	99.380	0.240	-0.640	1.230	99.540	-2.000	1.500																			1580040577.0	10.34	19.15
26/01/2020 12:09:38	26012020	260120	120938	99.330	12.407140	-57.188562	99.120	0.360	-0.610	1.430	99.270	-2.000	1.800																			1580040578.0	10.51	19.46
26/01/2020 12:09:39	26012020	260120	120939	99.120	12.407130	-57.188512	99.040	0.410	-0.340	1.280	99.110	-1.900	1.800																			1580040579.0	10.67	19.76
26/01/2020 12:09:40	26012020	260120	120940	99.190	12.407122	-57.188463	99.220	0.230	0.200	0.840	99.220	-1.400	1.400																			1580040580.0	10.38	19.22
26/01/2020 12:09:41	26012020	260120	120941	99.410	12.407115	-57.188417	99.430	-0.130	0.660	0.640	99.450	-0.900	1.100																			1580040581.0	10.03	18.58
26/01/2020 12:09:42	26012020	260120	120942	99.560	12.407107	-57.188370	99.550	-0.420	0.670	0.720	99.580	-0.600	1.100																			1580040582.0	10.05	18.61
26/01/2020 12:09:43	26012020	260120	120943	99.680	12.407095	-57.188322	99.700	-0.460	0.240	0.780	99.710	-0.900	1.200																			1580040583.0	10.39	19.24
26/01/2020 12:09:44	26012020	260120	120944	99.860	12.407085	-57.188273	99.880	-0.290	-0.330	0.780	99.890	-1.500	1.200																			1580040584.0	10.66	19.74
26/01/2020 12:09:45	26012020	260120	120945	100.010	12.407075	-57.188223	99.930	-0.080	-0.760	0.730	100.020	-2.000	1.100																			1580040585.0	10.62	19.67
26/01/2020 12:09:46	26012020	260120	120946	99.950	12.407065	-57.188175	99.730	0.110	-1.000	0.780	99.910	-2.300	1.100																			1580040586.0	10.47	19.39
26/01/2020 12:09:47	26012020	260120	120947	99.670	12.407053	-57.188127	99.420	0.200	-1.030	0.920	99.600	-2.400	1.300																			1580040587.0	10.44	19.33
26/01/2020 12:09:48	26012020	260120	120948	99.370	12.407043	-57.188078	99.170	0.140	-0.760	0.840	99.320	-2.300	1.300																			1580040588.0	10.38	19.22
26/01/2020 12:09:49	26012020	260120	120949	99.200	12.407035	-57.188032	99.050	0.010	-0.330	0.600	99.170	-1.900	1.100																			1580040589.0	10.16	18.82
26/01/2020 12:09:50	26012020	260120	120950	99.080	12.407027	-57.187985	98.910	-0.020	-0.110	0.610	99.040	-1.500	1.000																			1580040590.0	10.18	18.85
26/01/2020 12:09:51	26012020	260120	120951	98.930	12.407017	-57.187935	98.710	0.060	-0.150	0.770	98.890	-1.500	1.100																			1580040591.0	10.59	19.61
26/01/2020 12:09:52	26012020	260120	120952	98.730	12.407005	-57.187885	98.660	0.110	-0.110	0.850	98.720	-1.500	1.200																			1580040592.0	10.90	20.19
26/01/2020 12:09:53	26012020	260120	120953	98.760	12.406995	-57.187837	98.830	-0.050	0.270	0.840	98.800	-1.300	1.300																			1580040593.0	10.62	19.67
26/01/2020 12:09:54	26012020	260120	120954	99.020	12.406987	-57.187790	99.160	-0.310	0.620	0.670	99.080	-0.800	1.100																			1580040594.0	10.06	18.63
26/01/2020 12:09:55	26012020	260120	120955	99.330	12.406978	-57.187743	99.420	-0.410	0.470	0.580	99.390	-0.800	1.000																			1580040595.0	10.03	18.58
26/01/2020 12:09:56	26012020	260120	120956	99.550	12.406968	-57.187693	99.580	-0.240	-0.060	0.610	99.580	-1.200	1.000																			1580040596.0	10.45	19.35
26/01/2020 12:09:57	26012020	260120	120957	99.660	12.406958	-57.187645	99.670	0.060	-0.540	0.640	99.680	-1.800	1.000																			1580040597.0	10.70	19.82
26/01/2020 12:09:58	26012020	260120	120958	99.770	12.406948	-57.187597	99.760	0.300	-0.670	0.610	99.790	-2.000	1.000																			1580040598.0	10.50	19.45
26/01/2020 12:09:59	26012020	260120	120959	99.820	12.406938	-57.187548	99.680	0.400	-0.710	0.580	99.810	-2.000	1.000																			1580040599.0	10.13	18.76
26/01/2020 12:10:00	26012020	260120	121000	99.630	12.406930	-57.187502	99.380	0.420	-0.920	0.670	99.560	-2.200	1.000	1015.80	26.00	26.10	18.40	18.50	292.00	63.00	63.00	378.00	26.60	347.00	12.20	76.00	7.10	22687	3125.00	27.30	27.30	1580040600.0	10.27	19.02
26/01/2020 12:10:01	26012020	260120	121001	99.280	12.406922	-57.187452	99.050	0.340	-0.920	0.910	99.220	-2.300	1.200																			1580040601.0	10.62	19.67
26/01/2020 12:10:02	26012020	260120	121002	99.010	12.406912	-57.187403	98.850	0.080	-0.460	1.140	98.970	-2.000	1.500																			1580040602.0	10.45	19.35
26/01/2020 12:10:03	26012020	260120	121003	98.860	12.406902	-57.187357	98.730	-0.260	0.010	1.220	98.830	-1.500	1.600																			1580040603.0	10.12	18.74
26/01/2020 12:10:04	26012020	260120	121004	98.730	12.406890	-57.187310	98.690	-0.510	0.150	1.170	98.720	-1.200	1.600																			1580040604.0	10.26	19.00
26/01/2020 12:10:05	26012020	260120	121005	98.720	12.406880	-57.187260	98.720	-0.550	0.010	1.050	98.730	-1.300	1.500																			1580040605.0	10.64	19.71
26/01/2020 12:10:06	26012020	260120	121006	98.790	12.406868	-57.187210	98.810	-0.380	-0.100	0.840	98.810	-1.400	1.300																			1580040606.0	10.82	20.04
26/01/2020 12:10:07	26012020	260120	121007	98.900	12.406858	-57.187160	98.950	-0.120	0.010	0.600	98.930	-1.400	1.100																			1580040607.0	10.67	19.76
26/01/2020 12:10:08	26012020	260120	121008	99.080	12.406850	-57.187113	99.160	0.030	0.280	0.380	99.120	-1.200	0.900																			1580040608.0	10.31	19.09
26/01/2020 12:10:09	26012020	260120	121009	99.310	12.406842	-57.187067	99.350	0.060	0.350	0.140	99.350	-1.000	0.600																			1580040609.0	10.01	18.54
26/01/2020 12:10:10	26012020	260120	121010	99.500	12.406835	-57.187018	99.530	0.180	-0.060	0.060	99.540	-1.200	0.500																			1580040610.0	10.15	18.80
26/01/2020 12:10:11	26012020	260120	121011	99.670	12.406827	-57.186968	99.670	0.450	-0.700	0.170	99.700	-1.800	0.500																			1580040611.0	10.64	19.71
26/01/2020 12:10:12	26012020	260120	121012	99.780	12.406818	-57.186918	99.750	0.600	-1.000	0.510	99.800	-2.300	0.700																			1580040612.0	10.82	20.04
26/01/2020 12:10:13	26012020	260120	121013	99.760	12.406808	-57.186870	99.590	0.420	-0.800	1.030	99.730	-2.300	1.200																			1580040613.0	10.42	19.30
26/01/2020 12:10:14	26012020	260120	121014	99.500	12.406797	-57.186823	99.260	0.050	-0.510	1.440	99.430	-2.000	1.700																			1580040614.0	10.07	18.65
26/01/2020 12:10:15	26012020	260120	121015	99.230	12.406785	-57.186777	99.030	-0.290	-0.340	1.480	99.190	-1.800	1.900																			1580040615.0	10.18	18.85
26/01/2020 12:10:16	26012020	260120	121016	99.010	12.406775	-57.186728	98.910	-0.430	-0.300	1.350	98.990	-1.700	1.800																			1580040616.0	10.43	19.32
26/01/2020 12:10:17	26012020	260120	121017	98.940	12.406765	-57.186680	98.890	-0.370	-0.260	1.140	98.940	-1.600	1.600																			1580040617.0	10.63	19.69
26/01/2020 12:10:18	26012020	260120	121018	98.920	12.406755	-57.186630	98.870	-0.230	-0.100	0.930	98.920	-1.500	1.400																			1580040618.0	10.64	19.71
26/01/2020 12:10:19	26012020	260120	121019	98.910	12.406745	-57.186582	98.910	-0.170	0.180	0.730	98.920	-1.300	1.200																			1580040619.0	10.48	19.41
26/01/2020 12:10:20	26012020	260120	121020	99.030	12.406735	-57.186535	99.080	-0.190	0.410	0.520	99.060	-1.000	1.000																			1580040620.0	10.22	18.93
26/01/2020 12:10:21	26012020	260120	121021	99.230	12.406727	-57.186487	99.310	-0.130	0.280	0.360	99.270	-1.000	0.800																			1580040621.0	10.18	18.85
26/01/2020 12:10:22	26012020	260120	121022	99.440	12.406718	-57.186438	99.530	0.140	-0.130	0.190	99.490	-1.300	0.700																			1580040622.0	10.47	19.39
26/01/2020 12:10:23	26012020	260120	121023	99.660	12.406712	-57.186388	99.720	0.470	-0.540	0.200	99.700	-1.800	0.600																			1580040623.0	10.68	19.78
26/01/2020 12:10:24	26012020	260120	121024	99.830	12.406702	-57.186340	99.820	0.600	-0.690	0.480	99.860	-2.000	0.700																			1580040624.0	10.58	19.59
26/01/2020 12:10:25	26012020	260120	121025	99.890	12.406693	-57.186292	99.840	0.470	-0.600	0.830	99.890	-2.000	1.100																			1580040625.0	10.26	19.00
26/01/2020 12:10:26	26012020	260120	121026	99.820	12.406683	-57.186245	99.700	0.210	-0.520	1.050	99.780	-1.900	1.400																			1580040626.0	10.13	18.76
26/01/2020 12:10:27	26012020	260120	121027	99.610	12.406673	-57.186197	99.450	0.000	-0.580	1.200	99.560	-1.900	1.500																			1580040627.0	10.33	19.13
26/01/2020 12:10:28	26012020	260120	121028	99.390	12.406663	-57.186148	99.260	-0.150	-0.590	1.260	99.350	-2.000	1.600																			1580040628.0	10.60	19.63
26/01/2020 12:10:29	26012020	260120	121029	99.230	12.406653	-57.186098	99.130	-0.360	-0.340	1.180	99.210	-1.800	1.600																			1580040629.0	10.61	19.65
26/01/2020 12:10:30	26012020	260120	121030	99.140	12.406642	-57.186052	99.100	-0.640	0.080	0.970	99.140	-1.400	1.400																			1580040630.0	10.36	19.19
26/01/2020 12:10:31	26012020	260120	121031	99.150	12.406632	-57.186003	99.150	-0.800	0.310	0.800	99.160	-1.100	1.200																			1580040631.0	10.20	18.89
26/01/2020 12:10:32	26012020	260120	121032	99.230	12.406620	-57.185957	99.270	-0.640	0.250	0.640	99.260	-1.100	1.100																			1580040632.0	10.39	19.24
26/01/2020 12:10:33	26012020	260120	121033	99.380	12.406608	-57.185907	99.440	-0.190	0.030	0.370	99.420	-1.200	0.900																			1580040633.0	10.59	19.61
26/01/2020 12:10:34	26012020	260120	121034	99.580	12.406600	-57.185858	99.640	0.310	-0.180	0.080	99.620	-1.500	0.600																			1580040634.0	10.62	19.67
26/01/2020 12:10:35	26012020	260120	121035	99.790	12.406593	-57.185808	99.840	0.660	-0.290	-0.050	99.840	-1.600	0.400																			1580040635.0	10.49	19.43
26/01/2020 12:10:36	26012020	260120	121036	99.980	12.406585	-57.185760	99.960	0.840	-0.400	0.030	100.000	-1.700	0.400																			1580040636.0	10.34	19.15
26/01/2020 12:10:37	26012020	260120	121037	100.020	12.406577	-57.185712	99.930	0.830	-0.460	0.320	100.010	-1.800	0.600																			1580040637.0	10.36	19.19
26/01/2020 12:10:38	26012020	260120	121038	99.950	12.406568	-57.185665	99.870	0.570	-0.360	0.700	99.940	-1.800	0.900																			1580040638.0	10.30	19.08
26/01/2020 12:10:39	26012020	260120	121039	99.920	12.406558	-57.185617	99.840	0.150	-0.320	0.990	99.920	-1.700	1.300																			1580040639.0	10.12	18.74
26/01/2020 12:10:40	26012020	260120	121040	99.820	12.406548	-57.185570	99.640	-0.150	-0.600	1.240	99.780	-1.800	1.500																			1580040640.0	10.30	19.08
26/01/2020 12:10:41	26012020	260120	121041	99.590	12.406538	-57.185520	99.330	-0.290	-0.830	1.490	99.530	-2.100	1.800																			1580040641.0	10.83	20.06
26/01/2020 12:10:42	26012020	260120	121042	99.240	12.406525	-57.185470	99.140	-0.450	-0.580	1.490	99.210	-2.100	1.900																			1580040642.0	10.79	19.98
26/01/2020 12:10:43	26012020	260120	121043	99.160	12.406513	-57.185423	99.130	-0.710	-0.020	1.250	99.160	-1.600	1.700																			1580040643.0	10.31	19.09
26/01/2020 12:10:44	26012020	260120	121044	99.190	12.406503	-57.185377	99.170	-0.890	0.350	0.970	99.200	-1.100	1.500																			1580040644.0	10.06	18.63
26/01/2020 12:10:45	26012020	260120	121045	99.240	12.406492	-57.185330	99.220	-0.780	0.220	0.720	99.250	-1.000	1.200																			1580040645.0	10.31	19.09
26/01/2020 12:10:46	26012020	260120	121046	99.330	12.406482	-57.185280	99.340	-0.320	-0.130	0.480	99.360	-1.400	1.000																			1580040646.0	10.79	19.98
26/01/2020 12:10:47	26012020	260120	121047	99.490	12.406472	-57.185230	99.550	0.280	-0.260	0.250	99.540	-1.600	0.700																			1580040647.0	10.83	20.06
26/01/2020 12:10:48	26012020	260120	121048	99.720	12.406463	-57.185180	99.790	0.700	-0.190	0.100	99.770	-1.600	0.500																			1580040648.0	10.48	19.41
26/01/2020 12:10:49	26012020	260120	121049	99.960	12.406455	-57.185133	100.010	0.790	-0.020	0.020	100.000	-1.500	0.400																			1580040649.0	10.19	18.87
26/01/2020 12:10:50	26012020	260120	121050	100.150	12.406448	-57.185087	100.110	0.690	0.040	0.050	100.170	-1.300	0.400																			1580040650.0	10.00	18.52
26/01/2020 12:10:51	26012020	260120	121051	100.180	12.406440	-57.185038	100.070	0.650	-0.210	0.360	100.170	-1.400	0.600																			1580040651.0	10.12	18.74
26/01/2020 12:10:52	26012020	260120	121052	100.080	12.406432	-57.184990	99.940	0.630	-0.650	0.720	100.050	-1.800	1.000																			1580040652.0	10.48	19.41
26/01/2020 12:10:53	26012020	260120	121053	99.950	12.406423	-57.184940	99.810	0.420	-0.940	1.080	99.930	-2.200	1.300																			1580040653.0	10.72	19.85
26/01/2020 12:10:54	26012020	260120	121054	99.820	12.406412	-57.184892	99.720	-0.070	-0.730	1.410	99.810	-2.200	1.700																			1580040654.0	10.57	19.58
26/01/2020 12:10:55	26012020	260120	121055	99.750	12.406400	-57.184845	99.540	-0.690	-0.240	1.590	99.710	-1.800	1.900																			1580040655.0	10.12	18.74
26/01/2020 12:10:56	26012020	260120	121056	99.480	12.406388	-57.184800	99.300	-1.060	-0.050	1.550	99.430	-1.400	2.000																			1580040656.0	10.03	18.58
26/01/2020 12:10:57	26012020	260120	121057	99.260	12.406375	-57.184750	99.140	-0.950	-0.260	1.350	99.230	-1.500	1.800																			1580040657.0	10.57	19.58
26/01/2020 12:10:58	26012020	260120	121058	99.200	12.406363	-57.184700	99.150	-0.580	-0.380	0.980	99.200	-1.700	1.500																			1580040658.0	10.96	20.30
26/01/2020 12:10:59	26012020	260120	121059	99.260	12.406353	-57.184652	99.230	-0.260	-0.180	0.490	99.270	-1.700	1.100																			1580040659.0	10.73	19.87
26/01/2020 12:11:00	26012020	260120	121100	99.340	12.406343	-57.184603	99.320	0.000	0.160	0.190	99.370	-1.300	0.700	1015.80	26.00	26.10	18.80	18.80	321.00	64.00	64.00	378.00	26.70	350.00	11.90	82.00	6.70	23793	3176.00	27.30	27.30	1580040660.0	10.25	18.98
26/01/2020 12:11:01	26012020	260120	121101	99.480	12.406335	-57.184557	99.500	0.320	0.220	0.030	99.510	-1.100	0.500																			1580040661.0	10.13	18.76
26/01/2020 12:11:02	26012020	260120	121102	99.690	12.406327	-57.184507	99.740	0.640	-0.070	-0.010	99.730	-1.300	0.400																			1580040662.0	10.45	19.35
26/01/2020 12:11:03	26012020	260120	121103	99.930	12.406320	-57.184458	99.990	0.770	-0.210	0.100	99.980	-1.600	0.400																			1580040663.0	10.65	19.72
26/01/2020 12:11:04	26012020	260120	121104	100.160	12.406312	-57.184410	100.210	0.580	-0.050	0.280	100.210	-1.500	0.600																			1580040664.0	10.24	18.96
26/01/2020 12:11:05	26012020	260120	121105	100.320	12.406303	-57.184363	100.310	0.260	0.020	0.500	100.340	-1.300	0.800																			1580040665.0	9.82	18.19
26/01/2020 12:11:06	26012020	260120	121106	100.350	12.406293	-57.184318	100.230	0.080	-0.350	0.750	100.330	-1.500	1.000																			1580040666.0	10.02	18.56
26/01/2020 12:11:07	26012020	260120	121107	100.230	12.406283	-57.184268	100.010	0.090	-0.930	1.090	100.180	-2.100	1.400																			1580040667.0	10.60	19.63
26/01/2020 12:11:08	26012020	260120	121108	99.940	12.406272	-57.184218	99.780	0.070	-1.130	1.240	99.890	-2.500	1.600																			1580040668.0	10.87	20.13
26/01/2020 12:11:09	26012020	260120	121109	99.730	12.406262	-57.184170	99.570	-0.150	-0.790	1.220	99.690	-2.300	1.600																			1580040669.0	10.52	19.48
26/01/2020 12:11:10	26012020	260120	121110	99.530	12.406252	-57.184123	99.370	-0.440	-0.260	1.200	99.490	-1.800	1.600																			1580040670.0	10.13	18.76
26/01/2020 12:11:11	26012020	260120	121111	99.350	12.406240	-57.184077	99.290	-0.620	0.120	0.970	99.340	-1.400	1.500																			1580040671.0	10.14	18.78
26/01/2020 12:11:12	26012020	260120	121112	99.380	12.406230	-57.184028	99.420	-0.630	0.240	0.660	99.410	-1.100	1.100																			1580040672.0	10.36	19.19
26/01/2020 12:11:13	26012020	260120	121113	99.540	12.406220	-57.183980	99.560	-0.480	0.180	0.530	99.560	-1.200	0.900																			1580040673.0	10.55	19.54
26/01/2020 12:11:14	26012020	260120	121114	99.660	12.406208	-57.183932	99.680	-0.230	0.060	0.430	99.690	-1.300	0.900																			1580040674.0	10.58	19.59
26/01/2020 12:11:15	26012020	260120	121115	99.830	12.406198	-57.183883	99.930	0.090	-0.070	0.310	99.880	-1.400	0.700																			1580040675.0	10.49	19.43
26/01/2020 12:11:16	26012020	260120	121116	100.100	12.406188	-57.183835	100.150	0.420	-0.240	0.340	100.150	-1.500	0.700																			1580040676.0	10.40	19.26
26/01/2020 12:11:17	26012020	260120	121117	100.280	12.406178	-57.183787	100.260	0.630	-0.360	0.410	100.290	-1.700	0.800																			1580040677.0	10.41	19.28
26/01/2020 12:11:18	26012020	260120	121118	100.360	12.406170	-57.183738	100.320	0.580	-0.260	0.440	100.360	-1.700	0.800																			1580040678.0	10.27	19.02
26/01/2020 12:11:19	26012020	260120	121119	100.370	12.406163	-57.183692	100.270	0.380	-0.170	0.540	100.360	-1.500	0.900																			1580040679.0	9.96	18.45
26/01/2020 12:11:20	26012020	260120	121120	100.260	12.406155	-57.183645	100.150	0.250	-0.440	0.620	100.240	-1.700	1.000																			1580040680.0	10.12	18.74
26/01/2020 12:11:21	26012020	260120	121121	100.180	12.406145	-57.183595	100.110	0.180	-0.760	0.670	100.170	-2.000	1.000																			1580040681.0	10.65	19.72
26/01/2020 12:11:22	26012020	260120	121122	100.120	12.406135	-57.183545	100.010	-0.030	-0.630	0.790	100.100	-2.100	1.100																			1580040682.0	10.68	19.78
26/01/2020 12:11:23	26012020	260120	121123	99.980	12.406123	-57.183498	99.850	-0.410	-0.140	0.860	99.940	-1.700	1.200																			1580040683.0	10.19	18.87
26/01/2020 12:11:24	26012020	260120	121124	99.830	12.406113	-57.183453	99.750	-0.650	0.120	0.830	99.810	-1.300	1.200																			1580040684.0	9.91	18.35
26/01/2020 12:11:25	26012020	260120	121125	99.750	12.406102	-57.183407	99.720	-0.480	-0.180	0.700	99.750	-1.400	1.100																			1580040685.0	10.33	19.13
26/01/2020 12:11:26	26012020	260120	121126	99.730	12.406090	-57.183355	99.660	-0.050	-0.600	0.520	99.720	-1.800	1.000																			1580040686.0	10.98	20.33
26/01/2020 12:11:27	26012020	260120	121127	99.670	12.406080	-57.183305	99.580	0.210	-0.480	0.350	99.660	-2.000	0.800																			1580040687.0	10.96	20.30
26/01/2020 12:11:28	26012020	260120	121128	99.620	12.406072	-57.183257	99.600	0.100	0.100	0.280	99.630	-1.500	0.700																			1580040688.0	10.22	18.93
26/01/2020 12:11:29	26012020	260120	121129	99.680	12.406062	-57.183212	99.780	-0.170	0.470	0.260	99.710	-1.000	0.700																			1580040689.0	9.73	18.02
26/01/2020 12:11:30	26012020	260120	121130	99.930	12.406053	-57.183165	100.040	-0.260	0.250	0.350	99.990	-1.000	0.700																			1580040690.0	10.01	18.54
26/01/2020 12:11:31	26012020	260120	121131	100.110	12.406042	-57.183117	100.150	-0.130	-0.260	0.610	100.140	-1.400	0.900																			1580040691.0	10.56	19.56
26/01/2020 12:11:32	26012020	260120	121132	100.150	12.406030	-57.183068	100.050	0.160	-0.610	0.850	100.130	-1.900	1.100																			1580040692.0	10.67	19.76
26/01/2020 12:11:33	26012020	260120	121133	100.000	12.406018	-57.183020	99.890	0.470	-0.690	0.990	99.970	-2.000	1.400																			1580040693.0	10.47	19.39
26/01/2020 12:11:34	26012020	260120	121134	99.850	12.406008	-57.182972	99.790	0.630	-0.570	0.850	99.830	-2.000	1.300																			1580040694.0	10.29	19.06
26/01/2020 12:11:35	26012020	260120	121135	99.810	12.406002	-57.182923	99.770	0.480	-0.380	0.560	99.810	-1.800	1.100																			1580040695.0	10.23	18.95
26/01/2020 12:11:36	26012020	260120	121136	99.800	12.405995	-57.182877	99.740	0.120	-0.090	0.490	99.790	-1.600	0.900																			1580040696.0	10.16	18.82
26/01/2020 12:11:37	26012020	260120	121137	99.750	12.405987	-57.182830	99.690	-0.260	0.100	0.670	99.740	-1.300	1.000																			1580040697.0	10.07	18.65
26/01/2020 12:11:38	26012020	260120	121138	99.710	12.405975	-57.182782	99.670	-0.450	-0.050	0.960	99.710	-1.300	1.200																			1580040698.0	10.26	19.00
26/01/2020 12:11:39	26012020	260120	121139	99.710	12.405963	-57.182733	99.680	-0.390	-0.420	1.170	99.720	-1.600	1.500																			1580040699.0	10.64	19.71
26/01/2020 12:11:40	26012020	260120	121140	99.720	12.405950	-57.182683	99.660	-0.150	-0.690	1.170	99.710	-2.000	1.600																			1580040700.0	10.84	20.08
26/01/2020 12:11:41	26012020	260120	121141	99.660	12.405940	-57.182635	99.580	0.080	-0.570	0.990	99.640	-2.000	1.500																			1580040701.0	10.71	19.83
26/01/2020 12:11:42	26012020	260120	121142	99.600	12.405930	-57.182587	99.570	0.090	-0.100	0.730	99.600	-1.700	1.200																			1580040702.0	10.29	19.06
26/01/2020 12:11:43	26012020	260120	121143	99.640	12.405922	-57.182540	99.720	-0.110	0.320	0.450	99.670	-1.200	0.900																			1580040703.0	9.92	18.37
26/01/2020 12:11:44	26012020	260120	121144	99.840	12.405913	-57.182495	99.890	-0.310	0.290	0.360	99.880	-1.000	0.800																			1580040704.0	9.97	18.46
26/01/2020 12:11:45	26012020	260120	121145	99.930	12.405903	-57.182447	99.880	-0.280	-0.130	0.500	99.930	-1.300	0.800																			1580040705.0	10.38	19.22
26/01/2020 12:11:46	26012020	260120	121146	99.870	12.405892	-57.182397	99.820	0.010	-0.560	0.660	99.860	-1.800	1.000																			1580040706.0	10.75	19.91
26/01/2020 12:11:47	26012020	260120	121147	99.820	12.405882	-57.182347	99.800	0.370	-0.730	0.730	99.810	-2.100	1.100																			1580040707.0	10.71	19.83
26/01/2020 12:11:48	26012020	260120	121148	99.840	12.405872	-57.182298	99.880	0.540	-0.550	0.650	99.860	-2.000	1.100																			1580040708.0	10.47	19.39
26/01/2020 12:11:49	26012020	260120	121149	99.940	12.405863	-57.182252	99.940	0.410	-0.120	0.470	99.950	-1.700	0.900																			1580040709.0	10.14	18.78
26/01/2020 12:11:50	26012020	260120	121150	99.970	12.405855	-57.182205	99.960	0.070	0.320	0.310	99.970	-1.200	0.800																			1580040710.0	9.87	18.28
26/01/2020 12:11:51	26012020	260120	121151	100.000	12.405848	-57.182160	100.010	-0.200	0.320	0.250	100.010	-1.000	0.600																			1580040711.0	9.85	18.24
26/01/2020 12:11:52	26012020	260120	121152	100.040	12.405838	-57.182112	99.990	-0.210	-0.320	0.450	100.030	-1.400	0.700																			1580040712.0	10.37	19.21
26/01/2020 12:11:53	26012020	260120	121153	99.960	12.405827	-57.182060	99.870	-0.050	-1.000	0.810	99.930	-2.100	1.100																			1580040713.0	11.06	20.48
26/01/2020 12:11:54	26012020	260120	121154	99.800	12.405813	-57.182010	99.690	0.040	-1.090	1.110	99.760	-2.500	1.400																			1580040714.0	11.04	20.45
26/01/2020 12:11:55	26012020	260120	121155	99.650	12.405802	-57.181962	99.520	0.000	-0.560	1.230	99.610	-2.200	1.600																			1580040715.0	10.43	19.32
26/01/2020 12:11:56	26012020	260120	121156	99.480	12.405792	-57.181917	99.440	-0.130	0.150	1.060	99.460	-1.500	1.600																			1580040716.0	9.91	18.35
26/01/2020 12:11:57	26012020	260120	121157	99.450	12.405783	-57.181872	99.500	-0.270	0.500	0.660	99.470	-0.900	1.200																			1580040717.0	9.84	18.22
26/01/2020 12:11:58	26012020	260120	121158	99.600	12.405775	-57.181823	99.670	-0.310	0.320	0.390	99.640	-0.900	0.900																			1580040718.0	10.21	18.91
26/01/2020 12:11:59	26012020	260120	121159	99.800	12.405765	-57.181773	99.870	-0.210	-0.130	0.350	99.840	-1.300	0.700																			1580040719.0	10.64	19.71
26/01/2020 12:12:00	26012020	260120	121200	99.960	12.405755	-57.181723	99.970	-0.000	-0.480	0.510	99.980	-1.700	0.800	1015.80	26.00	26.00	18.50	18.60	337.00	63.00	63.00	378.00	26.70	351.00	12.10	83.00	6.90	24492	3172.00	27.30	27.30	1580040720.0	10.76	19.93
26/01/2020 12:12:01	26012020	260120	121201	100.020	12.405743	-57.181675	99.990	0.190	-0.520	0.740	100.020	-1.900	1.000																			1580040721.0	10.59	19.61
26/01/2020 12:12:02	26012020	260120	121202	100.010	12.405733	-57.181628	99.990	0.250	-0.320	0.810	100.010	-1.800	1.200																			1580040722.0	10.23	18.95
26/01/2020 12:12:03	26012020	260120	121203	100.020	12.405723	-57.181582	100.010	0.200	-0.130	0.620	100.020	-1.500	1.100																			1580040723.0	10.02	18.56
26/01/2020 12:12:04	26012020	260120	121204	100.040	12.405715	-57.181535	100.030	0.170	-0.190	0.390	100.050	-1.500	0.900																			1580040724.0	10.12	18.74
26/01/2020 12:12:05	26012020	260120	121205	100.060	12.405708	-57.181485	100.010	0.190	-0.400	0.400	100.050	-1.700	0.800																			1580040725.0	10.44	19.33
26/01/2020 12:12:06	26012020	260120	121206	100.010	12.405698	-57.181437	99.940	0.160	-0.470	0.610	100.000	-1.800	0.900																			1580040726.0	10.58	19.59
26/01/2020 12:12:07	26012020	260120	121207	99.920	12.405688	-57.181388	99.840	0.040	-0.430	0.800	99.900	-1.800	1.100																			1580040727.0	10.43	19.32
26/01/2020 12:12:08	26012020	260120	121208	99.830	12.405677	-57.181340	99.780	-0.090	-0.370	0.840	99.820	-1.800	1.200																			1580040728.0	10.41	19.28
26/01/2020 12:12:09	26012020	260120	121209	99.790	12.405667	-57.181292	99.770	-0.230	-0.250	0.840	99.790	-1.700	1.200																			1580040729.0	10.46	19.37
26/01/2020 12:12:10	26012020	260120	121210	99.800	12.405655	-57.181245	99.800	-0.380	-0.010	0.770	99.810	-1.500	1.200																			1580040730.0	10.35	19.17
26/01/2020 12:12:11	26012020	260120	121211	99.820	12.405645	-57.181197	99.790	-0.440	0.070	0.660	99.820	-1.300	1.100																			1580040731.0	10.20	18.89
26/01/2020 12:12:12	26012020	260120	121212	99.790	12.405635	-57.181150	99.770	-0.300	-0.140	0.530	99.780	-1.400	1.000																			1580040732.0	10.42	19.30
26/01/2020 12:12:13	26012020	260120	121213	99.820	12.405623	-57.181100	99.850	-0.060	-0.330	0.300	99.830	-1.600	0.800																			1580040733.0	10.68	19.78
26/01/2020 12:12:14	26012020	260120	121214	99.900	12.405613	-57.181052	99.910	0.120	-0.260	0.130	99.910	-1.700	0.600																			1580040734.0	10.55	19.54
26/01/2020 12:12:15	26012020	260120	121215	99.930	12.405605	-57.181003	99.920	0.190	-0.030	-0.000	99.940	-1.500	0.400																			1580040735.0	10.19	18.87
26/01/2020 12:12:16	26012020	260120	121216	99.980	12.405597	-57.180957	100.010	0.260	-0.030	0.070	99.990	-1.300	0.400																			1580040736.0	10.02	18.56
26/01/2020 12:12:17	26012020	260120	121217	100.070	12.405587	-57.180908	100.110	0.420	-0.300	0.330	100.090	-1.500	0.600																			1580040737.0	10.34	19.15
26/01/2020 12:12:18	26012020	260120	121218	100.140	12.405577	-57.180860	100.120	0.490	-0.450	0.550	100.140	-1.800	0.900																			1580040738.0	10.60	19.63
26/01/2020 12:12:19	26012020	260120	121219	100.110	12.405567	-57.180812	99.970	0.300	-0.360	0.750	100.090	-1.800	1.100																			1580040739.0	10.38	19.22
26/01/2020 12:12:20	26012020	260120	121220	99.900	12.405558	-57.180765	99.790	-0.030	-0.340	1.020	99.860	-1.700	1.300																			1580040740.0	10.16	18.82
26/01/2020 12:12:21	26012020	260120	121221	99.770	12.405548	-57.180717	99.650	-0.250	-0.570	1.270	99.740	-1.800	1.600																			1580040741.0	10.38	19.22
26/01/2020 12:12:22	26012020	260120	121222	99.560	12.405537	-57.180667	99.430	-0.310	-0.770	1.460	99.510	-2.100	1.800																			1580040742.0	10.79	19.98
26/01/2020 12:12:23	26012020	260120	121223	99.300	12.405523	-57.180618	99.190	-0.350	-0.590	1.510	99.260	-2.100	1.900																			1580040743.0	10.79	19.98
26/01/2020 12:12:24	26012020	260120	121224	99.120	12.405512	-57.180570	99.120	-0.420	-0.110	1.280	99.110	-1.700	1.800																			1580040744.0	10.42	19.30
26/01/2020 12:12:25	26012020	260120	121225	99.150	12.405502	-57.180523	99.220	-0.450	0.260	0.860	99.170	-1.200	1.400																			1580040745.0	10.15	18.80
26/01/2020 12:12:26	26012020	260120	121226	99.310	12.405493	-57.180475	99.380	-0.360	0.310	0.480	99.340	-1.000	1.000																			1580040746.0	10.30	19.08
26/01/2020 12:12:27	26012020	260120	121227	99.480	12.405483	-57.180427	99.550	-0.150	0.220	0.290	99.510	-1.100	0.800																			1580040747.0	10.49	19.43
26/01/2020 12:12:28	26012020	260120	121228	99.700	12.405473	-57.180378	99.810	0.140	0.110	0.180	99.750	-1.200	0.600																			1580040748.0	10.44	19.33
26/01/2020 12:12:29	26012020	260120	121229	99.950	12.405465	-57.180330	100.000	0.440	-0.060	0.200	99.990	-1.300	0.600																			1580040749.0	10.31	19.09
26/01/2020 12:12:30	26012020	260120	121230	100.080	12.405457	-57.180282	100.060	0.660	-0.380	0.290	100.090	-1.600	0.700																			1580040750.0	10.33	19.13
26/01/2020 12:12:31	26012020	260120	121231	100.120	12.405448	-57.180233	100.090	0.720	-0.670	0.380	100.120	-1.900	0.800																			1580040751.0	10.48	19.41
26/01/2020 12:12:32	26012020	260120	121232	100.150	12.405442	-57.180183	100.090	0.560	-0.690	0.540	100.150	-2.100	0.900																			1580040752.0	10.45	19.35
26/01/2020 12:12:33	26012020	260120	121233	100.100	12.405432	-57.180137	100.000	0.210	-0.510	0.820	100.080	-1.900	1.100																			1580040753.0	10.16	18.82
26/01/2020 12:12:34	26012020	260120	121234	99.970	12.405422	-57.180090	99.840	-0.170	-0.430	1.110	99.930	-1.800	1.400																			1580040754.0	10.16	18.82
26/01/2020 12:12:35	26012020	260120	121235	99.800	12.405410	-57.180042	99.700	-0.440	-0.510	1.200	99.770	-1.800	1.600																			1580040755.0	10.46	19.37
26/01/2020 12:12:36	26012020	260120	121236	99.650	12.405398	-57.179993	99.530	-0.570	-0.550	1.180	99.610	-1.900	1.600																			1580040756.0	10.72	19.85
26/01/2020 12:12:37	26012020	260120	121237	99.490	12.405387	-57.179943	99.360	-0.570	-0.400	1.130	99.450	-1.800	1.600																			1580040757.0	10.70	19.82
26/01/2020 12:12:38	26012020	260120	121238	99.310	12.405375	-57.179895	99.190	-0.470	-0.110	0.970	99.270	-1.600	1.500																			1580040758.0	10.55	19.54
26/01/2020 12:12:39	26012020	260120	121239	99.210	12.405363	-57.179847	99.220	-0.340	0.140	0.590	99.220	-1.300	1.200																			1580040759.0	10.44	19.33
26/01/2020 12:12:40	26012020	260120	121240	99.340	12.405355	-57.179798	99.380	-0.190	0.270	0.140	99.370	-1.100	0.700																			1580040760.0	10.39	19.24
26/01/2020 12:12:41	26012020	260120	121241	99.510	12.405345	-57.179750	99.540	0.040	0.250	-0.070	99.540	-1.100	0.400																			1580040761.0	10.40	19.26
26/01/2020 12:12:42	26012020	260120	121242	99.690	12.405337	-57.179702	99.730	0.360	0.100	-0.010	99.720	-1.200	0.400																			1580040762.0	10.44	19.33
26/01/2020 12:12:43	26012020	260120	121243	99.870	12.405328	-57.179653	99.890	0.590	-0.040	0.190	99.900	-1.400	0.500																			1580040763.0	10.43	19.32
26/01/2020 12:12:44	26012020	260120	121244	99.990	12.405318	-57.179605	99.980	0.580	-0.080	0.400	100.010	-1.400	0.700																			1580040764.0	10.26	19.00
26/01/2020 12:12:45	26012020	260120	121245	100.070	12.405310	-57.179558	100.070	0.340	-0.170	0.600	100.090	-1.500	0.900																			1580040765.0	10.03	18.58
26/01/2020 12:12:46	26012020	260120	121246	100.150	12.405302	-57.179512	100.070	0.130	-0.570	0.790	100.150	-1.700	1.100																			1580040766.0	10.09	18.69
26/01/2020 12:12:47	26012020	260120	121247	100.090	12.405292	-57.179463	99.850	0.130	-1.180	1.120	100.050	-2.300	1.400																			1580040767.0	10.56	19.56
26/01/2020 12:12:48	26012020	260120	121248	99.720	12.405280	-57.179413	99.450	0.210	-1.420	1.470	99.650	-2.800	1.700																			1580040768.0	10.94	20.26
26/01/2020 12:12:49	26012020	260120	121249	99.310	12.405268	-57.179363	99.080	0.060	-1.000	1.700	99.230	-2.600	2.000																			1580040769.0	10.72	19.85
26/01/2020 12:12:50	26012020	260120	121250	99.030	12.405257	-57.179317	98.920	-0.340	-0.290	1.580	99.000	-1.900	2.100																			1580040770.0	10.23	18.95
26/01/2020 12:12:51	26012020	260120	121251	98.950	12.405247	-57.179270	98.880	-0.720	0.240	1.330	98.940	-1.300	1.800																			1580040771.0	10.13	18.76
26/01/2020 12:12:52	26012020	260120	121252	98.960	12.405235	-57.179222	98.960	-0.820	0.490	1.070	98.980	-0.900	1.600																			1580040772.0	10.41	19.28
26/01/2020 12:12:53	26012020	260120	121253	99.110	12.405225	-57.179173	99.180	-0.630	0.540	0.770	99.160	-0.800	1.300																			1580040773.0	10.58	19.59
26/01/2020 12:12:54	26012020	260120	121254	99.400	12.405213	-57.179123	99.520	-0.290	0.380	0.390	99.480	-0.900	0.900																			1580040774.0	10.58	19.59
26/01/2020 12:12:55	26012020	260120	121255	99.750	12.405205	-57.179075	99.800	0.120	0.100	0.130	99.810	-1.100	0.600																			1580040775.0	10.55	19.54
26/01/2020 12:12:56	26012020	260120	121256	99.940	12.405197	-57.179025	99.890	0.550	-0.230	0.110	99.950	-1.500	0.500																			1580040776.0	10.52	19.48
26/01/2020 12:12:57	26012020	260120	121257	100.000	12.405188	-57.178977	99.960	0.850	-0.450	0.180	100.010	-1.700	0.500																			1580040777.0	10.49	19.43
26/01/2020 12:12:58	26012020	260120	121258	100.090	12.405182	-57.178928	100.070	0.820	-0.420	0.360	100.110	-1.800	0.700																			1580040778.0	10.29	19.06
26/01/2020 12:12:59	26012020	260120	121259	100.180	12.405173	-57.178882	100.140	0.510	-0.320	0.590	100.200	-1.700	0.900																			1580040779.0	10.00	18.52
26/01/2020 12:13:00	26012020	260120	121300	100.210	12.405163	-57.178835	100.100	0.130	-0.420	0.940	100.200	-1.700	1.200	1015.80	26.00	26.10	18.40	18.50	339.00	63.00	63.00	378.00	26.70	348.00	12.20	79.00	7.00	24687	3222.00	27.30	27.20	1580040780.0	10.00	18.52
26/01/2020 12:13:01	26012020	260120	121301	100.060	12.405153	-57.178788	99.860	-0.120	-0.690	1.340	100.000	-1.900	1.600																			1580040781.0	10.36	19.19
26/01/2020 12:13:02	26012020	260120	121302	99.770	12.405142	-57.178738	99.590	-0.200	-0.900	1.440	99.710	-2.200	1.800																			1580040782.0	10.69	19.80
26/01/2020 12:13:03	26012020	260120	121303	99.530	12.405130	-57.178690	99.400	-0.270	-0.800	1.370	99.490	-2.200	1.800																			1580040783.0	10.68	19.78
26/01/2020 12:13:04	26012020	260120	121304	99.360	12.405118	-57.178642	99.230	-0.370	-0.490	1.310	99.330	-2.000	1.700																			1580040784.0	10.50	19.45
26/01/2020 12:13:05	26012020	260120	121305	99.220	12.405107	-57.178593	99.130	-0.450	-0.150	1.150	99.200	-1.600	1.600																			1580040785.0	10.43	19.32
26/01/2020 12:13:06	26012020	260120	121306	99.150	12.405097	-57.178545	99.110	-0.510	0.210	0.930	99.150	-1.300	1.400																			1580040786.0	10.45	19.35
26/01/2020 12:13:07	26012020	260120	121307	99.210	12.405085	-57.178497	99.220	-0.470	0.440	0.710	99.230	-1.000	1.200																			1580040787.0	10.36	19.19
26/01/2020 12:13:08	26012020	260120	121308	99.380	12.405075	-57.178450	99.410	-0.280	0.400	0.460	99.420	-0.900	1.000																			1580040788.0	10.37	19.21
26/01/2020 12:13:09	26012020	260120	121309	99.580	12.405067	-57.178400	99.570	0.050	0.150	0.260	99.610	-1.100	0.700																			1580040789.0	10.50	19.45
26/01/2020 12:13:10	26012020	260120	121310	99.690	12.405057	-57.178352	99.610	0.410	-0.220	0.250	99.700	-1.400	0.600																			1580040790.0	10.57	19.58
26/01/2020 12:13:11	26012020	260120	121311	99.710	12.405048	-57.178302	99.670	0.640	-0.450	0.400	99.710	-1.800	0.700																			1580040791.0	10.61	19.65
26/01/2020 12:13:12	26012020	260120	121312	99.820	12.405040	-57.178253	99.820	0.660	-0.370	0.610	99.840	-1.800	0.900																			1580040792.0	10.30	19.08
26/01/2020 12:13:13	26012020	260120	121313	99.940	12.405032	-57.178207	99.870	0.530	-0.370	0.890	99.950	-1.700	1.200																			1580040793.0	10.04	18.59
26/01/2020 12:13:14	26012020	260120	121314	99.880	12.405022	-57.178160	99.720	0.310	-0.550	1.220	99.850	-1.800	1.500																			1580040794.0	10.26	19.00
26/01/2020 12:13:15	26012020	260120	121315	99.720	12.405012	-57.178112	99.630	0.030	-0.590	1.390	99.700	-2.000	1.800																			1580040795.0	10.50	19.45
26/01/2020 12:13:16	26012020	260120	121316	99.670	12.405002	-57.178063	99.600	-0.260	-0.390	1.450	99.660	-1.800	1.800																			1580040796.0	10.32	19.11
26/01/2020 12:13:17	26012020	260120	121317	99.610	12.404990	-57.178017	99.500	-0.440	-0.290	1.430	99.590	-1.600	1.900																			1580040797.0	10.21	18.91
26/01/2020 12:13:18	26012020	260120	121318	99.510	12.404980	-57.177968	99.400	-0.470	-0.400	1.260	99.490	-1.700	1.700																			1580040798.0	10.48	19.41
26/01/2020 12:13:19	26012020	260120	121319	99.400	12.404968	-57.177918	99.300	-0.370	-0.450	1.030	99.380	-1.800	1.500																			1580040799.0	10.75	19.91
26/01/2020 12:13:20	26012020	260120	121320	99.360	12.404958	-57.177870	99.340	-0.280	-0.170	0.730	99.370	-1.700	1.300																			1580040800.0	10.63	19.69
26/01/2020 12:13:21	26012020	260120	121321	99.450	12.404948	-57.177822	99.440	-0.210	0.190	0.430	99.470	-1.300	0.900																			1580040801.0	10.21	18.91
26/01/2020 12:13:22	26012020	260120	121322	99.540	12.404940	-57.177775	99.510	-0.080	0.140	0.270	99.560	-1.100	0.700																			1580040802.0	10.18	18.85
26/01/2020 12:13:23	26012020	260120	121323	99.590	12.404930	-57.177725	99.590	0.130	-0.170	0.380	99.600	-1.400	0.700																			1580040803.0	10.61	19.65
26/01/2020 12:13:24	26012020	260120	121324	99.700	12.404920	-57.177675	99.730	0.240	-0.350	0.610	99.730	-1.700	0.900																			1580040804.0	10.75	19.91
26/01/2020 12:13:25	26012020	260120	121325	99.860	12.404910	-57.177627	99.870	0.210	-0.280	0.800	99.890	-1.700	1.100																			1580040805.0	10.46	19.37
26/01/2020 12:13:26	26012020	260120	121326	99.940	12.404900	-57.177580	99.880	0.130	-0.140	0.900	99.940	-1.500	1.300																			1580040806.0	10.20	18.89
26/01/2020 12:13:27	26012020	260120	121327	99.920	12.404890	-57.177533	99.850	0.130	-0.060	0.850	99.920	-1.400	1.300																			1580040807.0	10.11	18.72
26/01/2020 12:13:28	26012020	260120	121328	99.890	12.404882	-57.177487	99.790	0.240	-0.250	0.710	99.880	-1.500	1.200																			1580040808.0	10.20	18.89
26/01/2020 12:13:29	26012020	260120	121329	99.810	12.404873	-57.177437	99.690	0.370	-0.630	0.560	99.780	-1.800	1.000																			1580040809.0	10.59	19.61
26/01/2020 12:13:30	26012020	260120	121330	99.710	12.404865	-57.177387	99.590	0.320	-0.720	0.560	99.690	-2.100	0.900																			1580040810.0	10.81	20.02
26/01/2020 12:13:31	26012020	260120	121331	99.600	12.404855	-57.177338	99.510	-0.040	-0.310	0.840	99.580	-1.900	1.100																			1580040811.0	10.44	19.33
26/01/2020 12:13:32	26012020	260120	121332	99.540	12.404843	-57.177292	99.510	-0.520	0.160	1.140	99.540	-1.300	1.400																			1580040812.0	9.94	18.41
26/01/2020 12:13:33	26012020	260120	121333	99.540	12.404832	-57.177247	99.480	-0.660	0.040	1.280	99.530	-1.200	1.600																			1580040813.0	10.01	18.54
26/01/2020 12:13:34	26012020	260120	121334	99.460	12.404820	-57.177197	99.390	-0.340	-0.530	1.300	99.440	-1.700	1.700																			1580040814.0	10.82	20.04
26/01/2020 12:13:35	26012020	260120	121335	99.420	12.404807	-57.177145	99.420	-0.050	-0.550	1.170	99.420	-2.000	1.600																			1580040815.0	11.15	20.65
26/01/2020 12:13:36	26012020	260120	121336	99.530	12.404797	-57.177098	99.570	-0.100	0.070	0.930	99.560	-1.500	1.400																			1580040816.0	10.27	19.02
26/01/2020 12:13:37	26012020	260120	121337	99.690	12.404787	-57.177053	99.670	-0.210	0.390	0.630	99.710	-1.000	1.200																			1580040817.0	9.57	17.72
26/01/2020 12:13:38	26012020	260120	121338	99.710	12.404778	-57.177007	99.600	-0.030	-0.080	0.400	99.690	-1.200	0.900																			1580040818.0	10.04	18.59
26/01/2020 12:13:39	26012020	260120	121339	99.580	12.404770	-57.176957	99.410	0.400	-0.790	0.410	99.540	-1.900	0.800																			1580040819.0	10.90	20.19
26/01/2020 12:13:40	26012020	260120	121340	99.340	12.404762	-57.176905	99.180	0.660	-0.920	0.630	99.300	-2.300	1.000																			1580040820.0	11.03	20.43
26/01/2020 12:13:41	26012020	260120	121341	99.150	12.404753	-57.176857	99.070	0.490	-0.430	0.730	99.140	-2.000	1.100																			1580040821.0	10.35	19.17
26/01/2020 12:13:42	26012020	260120	121342	99.140	12.404745	-57.176812	99.140	0.120	0.050	0.760	99.150	-1.400	1.200																			1580040822.0	9.82	18.19
26/01/2020 12:13:43	26012020	260120	121343	99.240	12.404735	-57.176765	99.260	-0.190	0.160	0.860	99.260	-1.200	1.200																			1580040823.0	10.03	18.58
26/01/2020 12:13:44	26012020	260120	121344	99.330	12.404725	-57.176717	99.300	-0.310	0.050	0.930	99.340	-1.200	1.300																			1580040824.0	10.41	19.28
26/01/2020 12:13:45	26012020	260120	121345	99.340	12.404713	-57.176668	99.310	-0.250	-0.160	1.020	99.340	-1.400	1.400																			1580040825.0	10.56	19.56
26/01/2020 12:13:46	26012020	260120	121346	99.370	12.404702	-57.176618	99.360	-0.070	-0.310	0.990	99.380	-1.600	1.400																			1580040826.0	10.59	19.61
26/01/2020 12:13:47	26012020	260120	121347	99.440	12.404692	-57.176570	99.440	-0.000	-0.270	0.760	99.450	-1.700	1.300																			1580040827.0	10.46	19.37
26/01/2020 12:13:48	26012020	260120	121348	99.530	12.404683	-57.176523	99.520	-0.120	-0.090	0.510	99.540	-1.500	1.000																			1580040828.0	10.19	18.87
26/01/2020 12:13:49	26012020	260120	121349	99.600	12.404675	-57.176477	99.570	-0.250	-0.060	0.460	99.600	-1.400	0.800																			1580040829.0	9.99	18.50
26/01/2020 12:13:50	26012020	260120	121350	99.610	12.404665	-57.176430	99.540	-0.170	-0.400	0.690	99.600	-1.600	1.000																			1580040830.0	10.22	18.93
26/01/2020 12:13:51	26012020	260120	121351	99.510	12.404653	-57.176380	99.370	0.080	-0.820	0.910	99.470	-2.000	1.200																			1580040831.0	10.69	19.80
26/01/2020 12:13:52	26012020	260120	121352	99.290	12.404642	-57.176330	99.150	0.230	-0.780	0.990	99.250	-2.200	1.400																			1580040832.0	10.77	19.95
26/01/2020 12:13:53	26012020	260120	121353	99.100	12.404633	-57.176283	99.010	0.160	-0.330	0.860	99.080	-1.900	1.300																			1580040833.0	10.26	19.00
26/01/2020 12:13:54	26012020	260120	121354	99.000	12.404625	-57.176237	98.970	0.030	-0.040	0.700	99.000	-1.500	1.200																			1580040834.0	9.97	18.46
26/01/2020 12:13:55	26012020	260120	121355	99.040	12.404617	-57.176188	99.050	0.050	-0.120	0.550	99.060	-1.400	1.000																			1580040835.0	10.29	19.06
26/01/2020 12:13:56	26012020	260120	121356	99.120	12.404608	-57.176138	99.110	0.170	-0.240	0.500	99.140	-1.600	0.900																			1580040836.0	10.70	19.82
26/01/2020 12:13:57	26012020	260120	121357	99.190	12.404598	-57.176090	99.250	0.140	-0.020	0.570	99.220	-1.500	0.900																			1580040837.0	10.64	19.71
26/01/2020 12:13:58	26012020	260120	121358	99.370	12.404590	-57.176042	99.450	-0.080	0.340	0.760	99.410	-1.100	1.100																			1580040838.0	10.11	18.72
26/01/2020 12:13:59	26012020	260120	121359	99.530	12.404578	-57.175997	99.610	-0.260	0.290	1.030	99.560	-1.000	1.300																			1580040839.0	9.93	18.39
26/01/2020 12:14:00	26012020	260120	121400	99.670	12.404568	-57.175948	99.670	-0.210	-0.220	1.260	99.680	-1.300	1.600	1015.80	26.10	26.10	18.20	18.30	344.00	61.00	62.00	378.00	26.70	348.00	12.50	79.00	7.40	24983	3198.00	27.30	27.30	1580040840.0	10.41	19.28
26/01/2020 12:14:01	26012020	260120	121401	99.680	12.404557	-57.175898	99.650	-0.040	-0.670	1.310	99.670	-1.900	1.700																			1580040841.0	10.78	19.96
26/01/2020 12:14:02	26012020	260120	121402	99.660	12.404547	-57.175850	99.660	0.070	-0.670	1.130	99.670	-2.100	1.600																			1580040842.0	10.61	19.65
26/01/2020 12:14:03	26012020	260120	121403	99.690	12.404537	-57.175803	99.630	0.070	-0.410	0.840	99.680	-1.900	1.400																			1580040843.0	10.12	18.74
26/01/2020 12:14:04	26012020	260120	121404	99.590	12.404530	-57.175757	99.410	0.130	-0.360	0.680	99.540	-1.700	1.100																			1580040844.0	10.00	18.52
26/01/2020 12:14:05	26012020	260120	121405	99.300	12.404522	-57.175708	99.120	0.270	-0.510	0.610	99.240	-1.800	1.000																			1580040845.0	10.42	19.30
26/01/2020 12:14:06	26012020	260120	121406	99.110	12.404513	-57.175658	99.070	0.290	-0.530	0.630	99.100	-1.900	1.000																			1580040846.0	10.67	19.76
26/01/2020 12:14:07	26012020	260120	121407	99.150	12.404505	-57.175608	99.180	0.090	-0.330	0.670	99.180	-1.800	1.100																			1580040847.0	10.51	19.46
26/01/2020 12:14:08	26012020	260120	121408	99.270	12.404495	-57.175562	99.280	-0.270	0.000	0.790	99.290	-1.500	1.100																			1580040848.0	10.32	19.11
26/01/2020 12:14:09	26012020	260120	121409	99.340	12.404483	-57.175515	99.330	-0.590	0.310	1.170	99.340	-1.100	1.400																			1580040849.0	10.16	18.82
26/01/2020 12:14:10	26012020	260120	121410	99.380	12.404470	-57.175468	99.360	-0.620	0.240	1.380	99.380	-1.000	1.700																			1580040850.0	10.19	18.87
26/01/2020 12:14:11	26012020	260120	121411	99.390	12.404457	-57.175420	99.370	-0.250	-0.190	1.190	99.390	-1.400	1.700																			1580040851.0	10.54	19.52
26/01/2020 12:14:12	26012020	260120	121412	99.420	12.404448	-57.175370	99.440	0.300	-0.560	0.710	99.440	-1.800	1.300																			1580040852.0	10.84	20.08
26/01/2020 12:14:13	26012020	260120	121413	99.510	12.404442	-57.175320	99.550	0.610	-0.490	0.310	99.530	-1.900	0.800																			1580040853.0	10.68	19.78
26/01/2020 12:14:14	26012020	260120	121414	99.660	12.404435	-57.175272	99.660	0.510	-0.110	0.250	99.690	-1.600	0.600																			1580040854.0	10.16	18.82
26/01/2020 12:14:15	26012020	260120	121415	99.750	12.404428	-57.175227	99.720	0.230	0.100	0.390	99.760	-1.300	0.700																			1580040855.0	9.82	18.19
26/01/2020 12:14:16	26012020	260120	121416	99.780	12.404420	-57.175180	99.710	0.130	-0.160	0.580	99.770	-1.400	0.900																			1580040856.0	10.09	18.69
26/01/2020 12:14:17	26012020	260120	121417	99.730	12.404410	-57.175130	99.650	0.200	-0.580	0.810	99.710	-1.800	1.100																			1580040857.0	10.66	19.74
26/01/2020 12:14:18	26012020	260120	121418	99.660	12.404400	-57.175080	99.600	0.120	-0.650	0.960	99.650	-2.000	1.300																			1580040858.0	10.73	19.87
26/01/2020 12:14:19	26012020	260120	121419	99.620	12.404388	-57.175033	99.540	-0.180	-0.340	1.020	99.610	-1.800	1.400																			1580040859.0	10.26	19.00
26/01/2020 12:14:20	26012020	260120	121420	99.490	12.404380	-57.174987	99.330	-0.430	-0.210	1.090	99.450	-1.600	1.500																			1580040860.0	9.98	18.48
26/01/2020 12:14:21	26012020	260120	121421	99.230	12.404368	-57.174938	99.070	-0.450	-0.470	1.140	99.180	-1.700	1.500																			1580040861.0	10.41	19.28
26/01/2020 12:14:22	26012020	260120	121422	99.010	12.404357	-57.174888	98.920	-0.320	-0.690	1.150	98.980	-2.000	1.600																			1580040862.0	10.92	20.22
26/01/2020 12:14:23	26012020	260120	121423	98.950	12.404345	-57.174838	98.970	-0.250	-0.390	0.980	98.970	-1.900	1.500																			1580040863.0	10.80	20.00
26/01/2020 12:14:24	26012020	260120	121424	99.100	12.404335	-57.174792	99.220	-0.290	0.320	0.680	99.150	-1.300	1.200																			1580040864.0	10.17	18.83
26/01/2020 12:14:25	26012020	260120	121425	99.350	12.404327	-57.174747	99.540	-0.250	0.730	0.440	99.420	-0.700	0.900																			1580040865.0	9.70	17.96
26/01/2020 12:14:26	26012020	260120	121426	99.730	12.404318	-57.174700	99.820	0.080	0.330	0.270	99.790	-0.800	0.700																			1580040866.0	10.07	18.65
26/01/2020 12:14:27	26012020	260120	121427	99.980	12.404310	-57.174650	99.990	0.550	-0.380	0.240	100.010	-1.500	0.600																			1580040867.0	10.85	20.09
26/01/2020 12:14:28	26012020	260120	121428	100.100	12.404302	-57.174598	100.100	0.800	-0.670	0.310	100.120	-2.000	0.700																			1580040868.0	10.92	20.22
26/01/2020 12:14:29	26012020	260120	121429	100.210	12.404293	-57.174550	100.190	0.670	-0.510	0.470	100.220	-1.900	0.800																			1580040869.0	10.34	19.15
26/01/2020 12:14:30	26012020	260120	121430	100.250	12.404285	-57.174503	100.190	0.310	-0.310	0.720	100.250	-1.700	1.000																			1580040870.0	9.92	18.37
26/01/2020 12:14:31	26012020	260120	121431	100.210	12.404277	-57.174457	100.100	-0.050	-0.310	0.990	100.180	-1.600	1.300																			1580040871.0	10.04	18.59
26/01/2020 12:14:32	26012020	260120	121432	100.090	12.404265	-57.174410	99.990	-0.270	-0.430	1.190	100.060	-1.700	1.500																			1580040872.0	10.37	19.21
26/01/2020 12:14:33	26012020	260120	121433	99.970	12.404253	-57.174362	99.880	-0.360	-0.440	1.300	99.940	-1.800	1.700																			1580040873.0	10.50	19.45
26/01/2020 12:14:34	26012020	260120	121434	99.870	12.404242	-57.174313	99.810	-0.320	-0.420	1.120	99.860	-1.800	1.600																			1580040874.0	10.46	19.37
26/01/2020 12:14:35	26012020	260120	121435	99.830	12.404232	-57.174265	99.780	-0.200	-0.420	0.840	99.820	-1.800	1.300																			1580040875.0	10.52	19.48
26/01/2020 12:14:36	26012020	260120	121436	99.840	12.404222	-57.174215	99.850	-0.130	-0.250	0.560	99.860	-1.700	1.100																			1580040876.0	10.58	19.59
26/01/2020 12:14:37	26012020	260120	121437	99.950	12.404212	-57.174168	99.970	-0.210	0.100	0.320	99.980	-1.400	0.800																			1580040877.0	10.32	19.11
26/01/2020 12:14:38	26012020	260120	121438	100.100	12.404203	-57.174122	100.100	-0.290	0.260	0.260	100.120	-1.100	0.700																			1580040878.0	10.08	18.67
26/01/2020 12:14:39	26012020	260120	121439	100.190	12.404192	-57.174073	100.170	-0.190	0.010	0.310	100.210	-1.200	0.700																			1580040879.0	10.30	19.08
26/01/2020 12:14:40	26012020	260120	121440	100.250	12.404182	-57.174025	100.180	0.070	-0.390	0.440	100.250	-1.600	0.800																			1580040880.0	10.68	19.78
26/01/2020 12:14:41	26012020	260120	121441	100.200	12.404170	-57.173975	100.090	0.320	-0.540	0.600	100.180	-1.900	1.000																			1580040881.0	10.75	19.91
26/01/2020 12:14:42	26012020	260120	121442	100.090	12.404160	-57.173927	99.980	0.420	-0.440	0.740	100.060	-1.800	1.100																			1580040882.0	10.42	19.30
26/01/2020 12:14:43	26012020	260120	121443	99.980	12.404152	-57.173878	99.900	0.370	-0.260	0.790	99.970	-1.700	1.200																			1580040883.0	10.25	18.98
26/01/2020 12:14:44	26012020	260120	121444	99.920	12.404142	-57.173832	99.830	0.170	-0.110	0.750	99.900	-1.500	1.200																			1580040884.0	10.19	18.87
26/01/2020 12:14:45	26012020	260120	121445	99.840	12.404133	-57.173783	99.780	-0.070	-0.010	0.700	99.830	-1.400	1.100																			1580040885.0	10.26	19.00
26/01/2020 12:14:46	26012020	260120	121446	99.860	12.404123	-57.173737	99.860	-0.190	-0.030	0.640	99.870	-1.300	1.100																			1580040886.0	10.25	18.98
26/01/2020 12:14:47	26012020	260120	121447	99.960	12.404113	-57.173688	99.970	-0.120	-0.240	0.640	99.980	-1.500	1.000																			1580040887.0	10.40	19.26
26/01/2020 12:14:48	26012020	260120	121448	100.040	12.404103	-57.173638	99.980	0.030	-0.410	0.620	100.040	-1.700	1.000																			1580040888.0	10.57	19.58
26/01/2020 12:14:49	26012020	260120	121449	99.970	12.404093	-57.173590	99.830	0.100	-0.450	0.650	99.940	-1.800	1.000																			1580040889.0	10.47	19.39
26/01/2020 12:14:50	26012020	260120	121450	99.770	12.404082	-57.173543	99.630	0.100	-0.480	0.730	99.730	-1.800	1.100																			1580040890.0	10.36	19.19
26/01/2020 12:14:51	26012020	260120	121451	99.630	12.404072	-57.173495	99.530	0.090	-0.550	0.730	99.610	-1.900	1.100																			1580040891.0	10.48	19.41
26/01/2020 12:14:52	26012020	260120	121452	99.550	12.404063	-57.173445	99.510	0.050	-0.460	0.760	99.550	-1.900	1.100																			1580040892.0	10.56	19.56
26/01/2020 12:14:53	26012020	260120	121453	99.550	12.404052	-57.173397	99.520	-0.090	-0.170	0.880	99.550	-1.600	1.200																			1580040893.0	10.42	19.30
26/01/2020 12:14:54	26012020	260120	121454	99.570	12.404042	-57.173350	99.570	-0.270	0.070	0.950	99.580	-1.400	1.300																			1580040894.0	10.24	18.96
26/01/2020 12:14:55	26012020	260120	121455	99.660	12.404030	-57.173303	99.700	-0.350	0.120	0.900	99.690	-1.200	1.300																			1580040895.0	10.33	19.13
26/01/2020 12:14:56	26012020	260120	121456	99.810	12.404018	-57.173255	99.840	-0.290	0.040	0.780	99.840	-1.300	1.200																			1580040896.0	10.46	19.37
26/01/2020 12:14:57	26012020	260120	121457	99.950	12.404008	-57.173205	99.970	-0.140	-0.090	0.520	99.980	-1.400	1.000																			1580040897.0	10.48	19.41
26/01/2020 12:14:58	26012020	260120	121458	100.100	12.404000	-57.173157	100.130	0.070	-0.210	0.350	100.130	-1.500	0.800																			1580040898.0	10.44	19.33
26/01/2020 12:14:59	26012020	260120	121459	100.260	12.403992	-57.173108	100.280	0.300	-0.430	0.340	100.280	-1.700	0.700																			1580040899.0	10.40	19.26
26/01/2020 12:15:00	26012020	260120	121500	100.400	12.403982	-57.173060	100.410	0.470	-0.620	0.350	100.430	-1.900	0.800	1015.90	26.10	26.10	18.40	18.50	357.00	62.00	62.00	378.00	26.80	348.00	12.10	78.00	7.00	25555	3077.00	27.30	27.30	1580040900.0	10.56	19.56
26/01/2020 12:15:01	26012020	260120	121501	100.480	12.403972	-57.173012	100.400	0.430	-0.490	0.510	100.470	-1.900	0.800																			1580040901.0	10.53	19.50
26/01/2020 12:15:02	26012020	260120	121502	100.400	12.403963	-57.172963	100.320	0.210	-0.160	0.870	100.380	-1.600	1.100																			1580040902.0	10.15	18.80
26/01/2020 12:15:03	26012020	260120	121503	100.330	12.403952	-57.172918	100.280	0.010	-0.150	1.140	100.320	-1.400	1.500																			1580040903.0	10.06	18.63
26/01/2020 12:15:04	26012020	260120	121504	100.290	12.403942	-57.172868	100.270	-0.070	-0.470	1.200	100.290	-1.700	1.600																			1580040904.0	10.54	19.52
26/01/2020 12:15:05	26012020	260120	121505	100.280	12.403930	-57.172818	100.250	-0.150	-0.610	1.140	100.270	-2.000	1.600																			1580040905.0	10.89	20.17
26/01/2020 12:15:06	26012020	260120	121506	100.250	12.403918	-57.172770	100.210	-0.330	-0.330	1.200	100.250	-1.800	1.600																			1580040906.0	10.63	19.69
26/01/2020 12:15:07	26012020	260120	121507	100.180	12.403907	-57.172723	100.130	-0.510	0.090	1.250	100.170	-1.400	1.700																			1580040907.0	10.22	18.93
26/01/2020 12:15:08	26012020	260120	121508	100.130	12.403895	-57.172677	100.120	-0.520	0.310	1.010	100.140	-1.100	1.500																			1580040908.0	10.13	18.76
26/01/2020 12:15:09	26012020	260120	121509	100.170	12.403885	-57.172630	100.160	-0.280	0.210	0.640	100.180	-1.100	1.200																			1580040909.0	10.27	19.02
26/01/2020 12:15:10	26012020	260120	121510	100.220	12.403875	-57.172580	100.220	0.120	-0.180	0.290	100.240	-1.400	0.800																			1580040910.0	10.54	19.52
26/01/2020 12:15:11	26012020	260120	121511	100.310	12.403867	-57.172530	100.330	0.490	-0.570	0.110	100.340	-1.800	0.500																			1580040911.0	10.79	19.98
26/01/2020 12:15:12	26012020	260120	121512	100.420	12.403858	-57.172480	100.400	0.610	-0.540	0.300	100.430	-2.000	0.600																			1580040912.0	10.67	19.76
26/01/2020 12:15:13	26012020	260120	121513	100.440	12.403848	-57.172433	100.400	0.430	-0.230	0.570	100.440	-1.700	0.900																			1580040913.0	10.16	18.82
26/01/2020 12:15:14	26012020	260120	121514	100.420	12.403838	-57.172387	100.370	0.180	-0.120	0.740	100.410	-1.500	1.100																			1580040914.0	9.95	18.43
26/01/2020 12:15:15	26012020	260120	121515	100.370	12.403827	-57.172340	100.290	0.070	-0.390	0.940	100.370	-1.600	1.300																			1580040915.0	10.29	19.06
26/01/2020 12:15:16	26012020	260120	121516	100.270	12.403817	-57.172290	100.230	0.050	-0.670	1.010	100.260	-1.900	1.400																			1580040916.0	10.77	19.95
26/01/2020 12:15:17	26012020	260120	121517	100.250	12.403805	-57.172240	100.250	-0.080	-0.510	0.980	100.250	-2.000	1.400																			1580040917.0	10.72	19.85
26/01/2020 12:15:18	26012020	260120	121518	100.270	12.403795	-57.172193	100.240	-0.350	-0.090	0.920	100.260	-1.600	1.300																			1580040918.0	10.21	18.91
26/01/2020 12:15:19	26012020	260120	121519	100.200	12.403783	-57.172147	100.100	-0.570	0.080	0.900	100.170	-1.300	1.300																			1580040919.0	10.04	18.59
26/01/2020 12:15:20	26012020	260120	121520	100.010	12.403772	-57.172100	99.890	-0.500	-0.140	0.920	99.980	-1.400	1.300																			1580040920.0	10.40	19.26
26/01/2020 12:15:21	26012020	260120	121521	99.830	12.403760	-57.172050	99.750	-0.160	-0.470	0.930	99.810	-1.700	1.300																			1580040921.0	10.83	20.06
26/01/2020 12:15:22	26012020	260120	121522	99.720	12.403750	-57.172000	99.650	0.220	-0.560	0.810	99.710	-1.900	1.300																			1580040922.0	10.89	20.17
26/01/2020 12:15:23	26012020	260120	121523	99.610	12.403740	-57.171950	99.530	0.360	-0.290	0.690	99.590	-1.800	1.100																			1580040923.0	10.63	19.69
26/01/2020 12:15:24	26012020	260120	121524	99.510	12.403730	-57.171903	99.470	0.200	0.160	0.600	99.500	-1.400	1.000																			1580040924.0	10.17	18.83
26/01/2020 12:15:25	26012020	260120	121525	99.530	12.403722	-57.171857	99.580	-0.010	0.350	0.500	99.550	-1.000	0.900																			1580040925.0	9.99	18.50
26/01/2020 12:15:26	26012020	260120	121526	99.720	12.403713	-57.171808	99.840	-0.070	0.200	0.500	99.770	-1.100	0.900																			1580040926.0	10.25	18.98
26/01/2020 12:15:27	26012020	260120	121527	99.990	12.403703	-57.171760	100.050	-0.040	-0.090	0.660	100.030	-1.300	1.000																			1580040927.0	10.45	19.35
26/01/2020 12:15:28	26012020	260120	121528	100.090	12.403692	-57.171712	100.020	0.030	-0.460	0.960	100.080	-1.700	1.200																			1580040928.0	10.47	19.39
26/01/2020 12:15:29	26012020	260120	121529	99.970	12.403680	-57.171663	99.890	0.180	-0.840	1.270	99.940	-2.100	1.600																			1580040929.0	10.56	19.56
26/01/2020 12:15:30	26012020	260120	121530	99.840	12.403668	-57.171615	99.780	0.290	-0.930	1.370	99.830	-2.300	1.800																			1580040930.0	10.65	19.72
26/01/2020 12:15:31	26012020	260120	121531	99.720	12.403658	-57.171567	99.610	0.230	-0.610	1.160	99.690	-2.100	1.700																			1580040931.0	10.40	19.26
26/01/2020 12:15:32	26012020	260120	121532	99.530	12.403652	-57.171520	99.400	0.030	-0.160	0.950	99.490	-1.700	1.400																			1580040932.0	10.07	18.65
26/01/2020 12:15:33	26012020	260120	121533	99.370	12.403643	-57.171473	99.330	-0.140	0.050	0.910	99.350	-1.400	1.300																			1580040933.0	10.10	18.71
26/01/2020 12:15:34	26012020	260120	121534	99.380	12.403632	-57.171425	99.430	-0.230	-0.010	0.920	99.400	-1.300	1.300																			1580040934.0	10.43	19.32
26/01/2020 12:15:35	26012020	260120	121535	99.500	12.403622	-57.171375	99.510	-0.250	-0.140	0.950	99.510	-1.500	1.300																			1580040935.0	10.67	19.76
26/01/2020 12:15:36	26012020	260120	121536	99.520	12.403610	-57.171327	99.490	-0.200	-0.180	1.080	99.510	-1.500	1.400																			1580040936.0	10.66	19.74
26/01/2020 12:15:37	26012020	260120	121537	99.500	12.403600	-57.171278	99.510	-0.070	-0.120	1.220	99.510	-1.500	1.600																			1580040937.0	10.47	19.39
26/01/2020 12:15:38	26012020	260120	121538	99.560	12.403590	-57.171230	99.590	0.100	-0.170	1.120	99.580	-1.500	1.600																			1580040938.0	10.36	19.19
26/01/2020 12:15:39	26012020	260120	121539	99.640	12.403580	-57.171182	99.720	0.220	-0.280	0.850	99.660	-1.600	1.400																			1580040939.0	10.50	19.45
26/01/2020 12:15:40	26012020	260120	121540	99.830	12.403573	-57.171132	99.890	0.110	-0.150	0.610	99.870	-1.600	1.100																			1580040940.0	10.43	19.32
26/01/2020 12:15:41	26012020	260120	121541	99.980	12.403565	-57.171085	99.950	-0.110	-0.010	0.450	99.990	-1.400	0.900																			1580040941.0	10.03	18.58
26/01/2020 12:15:42	26012020	260120	121542	99.970	12.403555	-57.171038	99.890	-0.140	-0.270	0.420	99.950	-1.500	0.800																			1580040942.0	10.13	18.76
26/01/2020 12:15:43	26012020	260120	121543	99.910	12.403547	-57.170988	99.840	0.050	-0.730	0.530	99.900	-1.900	0.900																			1580040943.0	10.67	19.76
26/01/2020 12:15:44	26012020	260120	121544	99.860	12.403535	-57.170938	99.810	0.180	-0.800	0.690	99.850	-2.200	1.000																			1580040944.0	10.88	20.15
26/01/2020 12:15:45	26012020	260120	121545	99.820	12.403523	-57.170890	99.780	0.120	-0.370	0.810	99.820	-1.900	1.200																			1580040945.0	10.41	19.28
26/01/2020 12:15:46	26012020	260120	121546	99.790	12.403513	-57.170845	99.760	-0.000	0.070	0.790	99.790	-1.400	1.200																			1580040946.0	9.97	18.46
26/01/2020 12:15:47	26012020	260120	121547	99.790	12.403505	-57.170798	99.780	-0.090	0.110	0.630	99.800	-1.200	1.100																			1580040947.0	10.12	18.74
26/01/2020 12:15:48	26012020	260120	121548	99.840	12.403495	-57.170748	99.830	-0.120	-0.080	0.520	99.850	-1.400	0.900																			1580040948.0	10.55	19.54
26/01/2020 12:15:49	26012020	260120	121549	99.890	12.403485	-57.170700	99.860	-0.140	-0.130	0.560	99.890	-1.500	0.900																			1580040949.0	10.64	19.71
26/01/2020 12:15:50	26012020	260120	121550	99.900	12.403475	-57.170652	99.860	-0.150	-0.050	0.650	99.890	-1.400	1.000																			1580040950.0	10.39	19.24
26/01/2020 12:15:51	26012020	260120	121551	99.900	12.403465	-57.170605	99.900	-0.090	-0.090	0.620	99.920	-1.400	1.000																			1580040951.0	10.23	18.95
26/01/2020 12:15:52	26012020	260120	121552	99.990	12.403455	-57.170557	100.000	0.030	-0.270	0.530	100.000	-1.600	1.000																			1580040952.0	10.34	19.15
26/01/2020 12:15:53	26012020	260120	121553	100.050	12.403445	-57.170508	99.980	0.200	-0.510	0.550	100.050	-1.800	0.900																			1580040953.0	10.45	19.35
26/01/2020 12:15:54	26012020	260120	121554	99.970	12.403435	-57.170460	99.850	0.310	-0.710	0.750	99.940	-2.000	1.100																			1580040954.0	10.55	19.54
26/01/2020 12:15:55	26012020	260120	121555	99.810	12.403425	-57.170410	99.660	0.280	-0.700	0.970	99.770	-2.100	1.300																			1580040955.0	10.58	19.59
26/01/2020 12:15:56	26012020	260120	121556	99.620	12.403415	-57.170362	99.520	0.070	-0.350	1.130	99.600	-1.900	1.500																			1580040956.0	10.37	19.21
26/01/2020 12:15:57	26012020	260120	121557	99.540	12.403403	-57.170315	99.510	-0.240	-0.010	1.290	99.540	-1.500	1.600																			1580040957.0	10.10	18.71
26/01/2020 12:15:58	26012020	260120	121558	99.560	12.403392	-57.170268	99.550	-0.420	-0.030	1.380	99.570	-1.300	1.800																			1580040958.0	10.23	18.95
26/01/2020 12:15:59	26012020	260120	121559	99.560	12.403380	-57.170220	99.490	-0.350	-0.290	1.350	99.550	-1.500	1.800																			1580040959.0	10.67	19.76
26/01/2020 12:16:00	26012020	260120	121600	99.480	12.403370	-57.170170	99.400	-0.070	-0.370	1.250	99.460	-1.700	1.700	1015.80	26.00	26.10	18.20	18.30	360.00	62.00	62.00	378.00	26.80	346.00	12.40	77.00	7.30	25799	3114.00	27.30	27.30	1580040960.0	10.86	20.11
26/01/2020 12:16:01	26012020	260120	121601	99.420	12.403360	-57.170120	99.420	0.180	-0.150	1.040	99.430	-1.600	1.500																			1580040961.0	10.62	19.67
26/01/2020 12:16:02	26012020	260120	121602	99.530	12.403352	-57.170073	99.590	0.160	0.200	0.700	99.560	-1.300	1.200																			1580040962.0	10.25	18.98
26/01/2020 12:16:03	26012020	260120	121603	99.740	12.403343	-57.170025	99.790	-0.070	0.340	0.470	99.780	-1.000	0.900																			1580040963.0	10.03	18.58
26/01/2020 12:16:04	26012020	260120	121604	99.900	12.403335	-57.169978	99.890	-0.210	0.120	0.500	99.920	-1.100	0.900																			1580040964.0	10.14	18.78
26/01/2020 12:16:05	26012020	260120	121605	99.950	12.403325	-57.169930	99.890	-0.050	-0.370	0.620	99.950	-1.500	1.000																			1580040965.0	10.47	19.39
26/01/2020 12:16:06	26012020	260120	121606	99.930	12.403313	-57.169880	99.850	0.220	-0.760	0.840	99.920	-2.000	1.200																			1580040966.0	10.72	19.85
26/01/2020 12:16:07	26012020	260120	121607	99.870	12.403303	-57.169832	99.750	0.330	-0.750	0.920	99.840	-2.200	1.300																			1580040967.0	10.57	19.58
26/01/2020 12:16:08	26012020	260120	121608	99.730	12.403293	-57.169785	99.580	0.230	-0.530	0.850	99.700	-2.000	1.300																			1580040968.0	10.16	18.82
26/01/2020 12:16:09	26012020	260120	121609	99.560	12.403285	-57.169738	99.460	0.140	-0.510	0.790	99.540	-1.900	1.200																			1580040969.0	10.15	18.80
26/01/2020 12:16:10	26012020	260120	121610	99.470	12.403277	-57.169688	99.400	0.100	-0.570	0.800	99.460	-1.900	1.200																			1580040970.0	10.57	19.58
26/01/2020 12:16:11	26012020	260120	121611	99.420	12.403265	-57.169638	99.360	0.020	-0.350	0.800	99.400	-1.900	1.200																			1580040971.0	10.69	19.80
26/01/2020 12:16:12	26012020	260120	121612	99.410	12.403255	-57.169592	99.420	-0.190	0.120	0.790	99.430	-1.400	1.200																			1580040972.0	10.35	19.17
26/01/2020 12:16:13	26012020	260120	121613	99.540	12.403245	-57.169545	99.580	-0.380	0.380	0.820	99.580	-1.000	1.200																			1580040973.0	10.12	18.74
26/01/2020 12:16:14	26012020	260120	121614	99.700	12.403235	-57.169497	99.730	-0.410	0.190	0.850	99.730	-1.100	1.200																			1580040974.0	10.35	19.17
26/01/2020 12:16:15	26012020	260120	121615	99.830	12.403223	-57.169447	99.830	-0.260	-0.170	0.830	99.850	-1.400	1.200																			1580040975.0	10.74	19.89
26/01/2020 12:16:16	26012020	260120	121616	99.910	12.403212	-57.169397	99.890	-0.050	-0.340	0.800	99.920	-1.700	1.200																			1580040976.0	10.74	19.89
26/01/2020 12:16:17	26012020	260120	121617	99.910	12.403202	-57.169350	99.800	0.080	-0.320	0.820	99.890	-1.700	1.200																			1580040977.0	10.43	19.32
26/01/2020 12:16:18	26012020	260120	121618	99.780	12.403192	-57.169302	99.660	0.130	-0.270	0.720	99.760	-1.700	1.200																			1580040978.0	10.25	18.98
26/01/2020 12:16:19	26012020	260120	121619	99.700	12.403185	-57.169253	99.620	0.140	-0.290	0.540	99.690	-1.600	1.000																			1580040979.0	10.27	19.02
26/01/2020 12:16:20	26012020	260120	121620	99.680	12.403177	-57.169205	99.610	0.160	-0.410	0.570	99.680	-1.700	0.900																			1580040980.0	10.37	19.21
26/01/2020 12:16:21	26012020	260120	121621	99.650	12.403167	-57.169157	99.580	0.170	-0.490	0.750	99.650	-1.800	1.100																			1580040981.0	10.51	19.46
26/01/2020 12:16:22	26012020	260120	121622	99.570	12.403155	-57.169108	99.450	0.170	-0.480	1.050	99.540	-1.900	1.300																			1580040982.0	10.51	19.46
26/01/2020 12:16:23	26012020	260120	121623	99.410	12.403143	-57.169060	99.300	0.160	-0.380	1.220	99.380	-1.800	1.600																			1580040983.0	10.49	19.43
26/01/2020 12:16:24	26012020	260120	121624	99.310	12.403133	-57.169012	99.300	0.110	-0.210	1.100	99.310	-1.700	1.600																			1580040984.0	10.45	19.35
26/01/2020 12:16:25	26012020	260120	121625	99.390	12.403123	-57.168963	99.420	0.040	-0.050	0.850	99.420	-1.500	1.300																			1580040985.0	10.34	19.15
26/01/2020 12:16:26	26012020	260120	121626	99.510	12.403115	-57.168915	99.480	-0.020	0.010	0.740	99.520	-1.400	1.200																			1580040986.0	10.35	19.17
26/01/2020 12:16:27	26012020	260120	121627	99.550	12.403107	-57.168867	99.520	-0.150	0.010	0.770	99.550	-1.400	1.200																			1580040987.0	10.43	19.32
26/01/2020 12:16:28	26012020	260120	121628	99.570	12.403097	-57.168818	99.540	-0.320	-0.120	0.920	99.580	-1.400	1.300																			1580040988.0	10.43	19.32
26/01/2020 12:16:29	26012020	260120	121629	99.570	12.403085	-57.168770	99.500	-0.400	-0.310	1.130	99.560	-1.600	1.500																			1580040989.0	10.53	19.50
26/01/2020 12:16:30	26012020	260120	121630	99.490	12.403073	-57.168722	99.400	-0.290	-0.450	1.280	99.470	-1.800	1.600																			1580040990.0	10.56	19.56
26/01/2020 12:16:31	26012020	260120	121631	99.390	12.403063	-57.168673	99.260	-0.040	-0.530	1.360	99.370	-1.900	1.700																			1580040991.0	10.54	19.52
26/01/2020 12:16:32	26012020	260120	121632	99.230	12.403052	-57.168625	99.120	0.180	-0.500	1.230	99.200	-1.900	1.700																			1580040992.0	10.56	19.56
26/01/2020 12:16:33	26012020	260120	121633	99.100	12.403043	-57.168575	99.010	0.250	-0.370	0.880	99.080	-1.800	1.400																			1580040993.0	10.49	19.43
26/01/2020 12:16:34	26012020	260120	121634	99.030	12.403037	-57.168527	98.970	0.200	-0.160	0.590	99.030	-1.600	1.100																			1580040994.0	10.40	19.26
26/01/2020 12:16:35	26012020	260120	121635	99.040	12.403028	-57.168478	99.070	0.140	-0.010	0.500	99.060	-1.400	0.900																			1580040995.0	10.33	19.13
26/01/2020 12:16:36	26012020	260120	121636	99.190	12.403020	-57.168430	99.260	0.100	0.040	0.550	99.220	-1.300	0.900																			1580040996.0	10.38	19.22
26/01/2020 12:16:37	26012020	260120	121637	99.390	12.403010	-57.168382	99.450	0.050	-0.030	0.670	99.430	-1.400	1.000																			1580040997.0	10.43	19.32
26/01/2020 12:16:38	26012020	260120	121638	99.540	12.402998	-57.168333	99.500	0.020	-0.140	0.880	99.550	-1.500	1.200																			1580040998.0	10.46	19.37
26/01/2020 12:16:39	26012020	260120	121639	99.490	12.402988	-57.168285	99.380	-0.010	-0.320	1.040	99.460	-1.600	1.400																			1580040999.0	10.51	19.46
26/01/2020 12:16:40	26012020	260120	121640	99.360	12.402978	-57.168237	99.320	-0.070	-0.390	1.080	99.340	-1.800	1.500																			1580041000.0	10.53	19.50
26/01/2020 12:16:41	26012020	260120	121641	99.390	12.402970	-57.168188	99.490	-0.170	-0.270	0.940	99.430	-1.700	1.400																			1580041001.0	10.38	19.22
26/01/2020 12:16:42	26012020	260120	121642	99.620	12.402960	-57.168142	99.700	-0.250	-0.200	0.690	99.670	-1.600	1.200																			1580041002.0	10.17	18.83
26/01/2020 12:16:43	26012020	260120	121643	99.780	12.402952	-57.168093	99.730	-0.210	-0.380	0.550	99.780	-1.700	1.000																			1580041003.0	10.34	19.15
26/01/2020 12:16:44	26012020	260120	121644	99.690	12.402942	-57.168043	99.530	-0.090	-0.560	0.710	99.650	-1.900	1.000																			1580041004.0	10.66	19.74
26/01/2020 12:16:45	26012020	260120	121645	99.450	12.402930	-57.167995	99.320	0.050	-0.540	0.850	99.420	-1.900	1.200																			1580041005.0	10.64	19.71
26/01/2020 12:16:46	26012020	260120	121646	99.280	12.402920	-57.167947	99.190	0.190	-0.460	0.740	99.260	-1.900	1.200																			1580041006.0	10.46	19.37
26/01/2020 12:16:47	26012020	260120	121647	99.190	12.402912	-57.167897	99.100	0.300	-0.450	0.560	99.170	-1.800	1.000																			1580041007.0	10.56	19.56
26/01/2020 12:16:48	26012020	260120	121648	99.100	12.402903	-57.167847	99.010	0.270	-0.390	0.480	99.080	-1.800	0.900																			1580041008.0	10.74	19.89
26/01/2020 12:16:49	26012020	260120	121649	99.030	12.402895	-57.167797	99.000	0.050	0.030	0.550	99.030	-1.600	0.900																			1580041009.0	10.63	19.69
26/01/2020 12:16:50	26012020	260120	121650	99.060	12.402885	-57.167750	99.110	-0.260	0.560	0.760	99.090	-1.000	1.100																			1580041010.0	10.14	18.78
26/01/2020 12:16:51	26012020	260120	121651	99.250	12.402875	-57.167705	99.400	-0.460	0.590	0.940	99.310	-0.700	1.300																			1580041011.0	10.01	18.54
26/01/2020 12:16:52	26012020	260120	121652	99.570	12.402863	-57.167657	99.710	-0.410	0.070	1.030	99.630	-1.100	1.400																			1580041012.0	10.49	19.43
26/01/2020 12:16:53	26012020	260120	121653	99.810	12.402850	-57.167607	99.850	-0.190	-0.430	1.150	99.830	-1.700	1.500																			1580041013.0	10.89	20.17
26/01/2020 12:16:54	26012020	260120	121654	99.860	12.402838	-57.167557	99.810	0.040	-0.540	1.250	99.840	-1.900	1.600																			1580041014.0	10.64	19.71
26/01/2020 12:16:55	26012020	260120	121655	99.780	12.402828	-57.167510	99.670	0.250	-0.550	1.160	99.760	-1.900	1.600																			1580041015.0	10.20	18.89
26/01/2020 12:16:56	26012020	260120	121656	99.640	12.402822	-57.167462	99.570	0.410	-0.710	0.830	99.620	-2.000	1.400																			1580041016.0	10.27	19.02
26/01/2020 12:16:57	26012020	260120	121657	99.580	12.402815	-57.167413	99.540	0.450	-0.810	0.570	99.580	-2.200	1.100																			1580041017.0	10.56	19.56
26/01/2020 12:16:58	26012020	260120	121658	99.570	12.402807	-57.167363	99.510	0.280	-0.580	0.610	99.560	-2.100	1.000																			1580041018.0	10.55	19.54
26/01/2020 12:16:59	26012020	260120	121659	99.480	12.402798	-57.167315	99.360	0.020	-0.210	0.830	99.440	-1.700	1.100																			1580041019.0	10.27	19.02
26/01/2020 12:17:00	26012020	260120	121700	99.290	12.402788	-57.167268	99.210	-0.170	-0.040	1.000	99.260	-1.400	1.300	1015.90	26.00	26.10	18.40	18.50	367.00	62.00	63.00	378.00	26.80	348.00	11.80	77.00	6.70	26172	3091.00	27.30	27.30	1580041020.0	10.30	19.08
26/01/2020 12:17:01	26012020	260120	121701	99.200	12.402777	-57.167218	99.230	-0.230	-0.060	1.010	99.210	-1.400	1.400																			1580041021.0	10.60	19.63
26/01/2020 12:17:02	26012020	260120	121702	99.320	12.402767	-57.167170	99.440	-0.230	-0.100	0.720	99.370	-1.500	1.300																			1580041022.0	10.73	19.87
26/01/2020 12:17:03	26012020	260120	121703	99.580	12.402757	-57.167120	99.670	-0.160	-0.040	0.490	99.620	-1.400	0.900																			1580041023.0	10.62	19.67
26/01/2020 12:17:04	26012020	260120	121704	99.740	12.402747	-57.167072	99.750	-0.070	0.020	0.520	99.750	-1.400	0.900																			1580041024.0	10.48	19.41
26/01/2020 12:17:05	26012020	260120	121705	99.780	12.402737	-57.167023	99.800	-0.050	0.070	0.540	99.790	-1.300	0.900																			1580041025.0	10.41	19.28
26/01/2020 12:17:06	26012020	260120	121706	99.880	12.402728	-57.166975	99.960	-0.130	0.010	0.460	99.920	-1.300	0.900																			1580041026.0	10.31	19.09
26/01/2020 12:17:07	26012020	260120	121707	100.080	12.402718	-57.166927	100.140	-0.170	-0.210	0.470	100.120	-1.500	0.800																			1580041027.0	10.32	19.11
26/01/2020 12:17:08	26012020	260120	121708	100.190	12.402708	-57.166878	100.110	-0.060	-0.610	0.690	100.180	-1.800	1.000																			1580041028.0	10.49	19.43
26/01/2020 12:17:09	26012020	260120	121709	100.040	12.402697	-57.166830	99.870	0.140	-0.900	0.930	99.990	-2.200	1.300																			1580041029.0	10.77	19.95
26/01/2020 12:17:10	26012020	260120	121710	99.780	12.402687	-57.166780	99.650	0.240	-0.690	1.010	99.740	-2.200	1.400																			1580041030.0	10.68	19.78
26/01/2020 12:17:11	26012020	260120	121711	99.640	12.402677	-57.166733	99.600	0.170	-0.230	0.800	99.640	-1.800	1.300																			1580041031.0	10.17	18.83
26/01/2020 12:17:12	26012020	260120	121712	99.660	12.402668	-57.166687	99.610	0.110	-0.070	0.510	99.670	-1.500	1.000																			1580041032.0	10.07	18.65
26/01/2020 12:17:13	26012020	260120	121713	99.640	12.402658	-57.166637	99.540	0.160	-0.260	0.430	99.620	-1.600	0.800																			1580041033.0	10.56	19.56
26/01/2020 12:17:14	26012020	260120	121714	99.590	12.402650	-57.166587	99.570	0.180	-0.270	0.500	99.600	-1.700	0.900																			1580041034.0	10.90	20.19
26/01/2020 12:17:15	26012020	260120	121715	99.710	12.402640	-57.166538	99.800	0.020	0.090	0.580	99.750	-1.400	1.000																			1580041035.0	10.53	19.50
26/01/2020 12:17:16	26012020	260120	121716	99.970	12.402630	-57.166492	100.030	-0.200	0.360	0.670	100.010	-1.100	1.000																			1580041036.0	10.06	18.63
26/01/2020 12:17:17	26012020	260120	121717	100.110	12.402618	-57.166445	100.080	-0.290	0.170	0.840	100.110	-1.100	1.200																			1580041037.0	10.15	18.80
26/01/2020 12:17:18	26012020	260120	121718	100.080	12.402607	-57.166395	100.010	-0.150	-0.370	1.060	100.060	-1.500	1.400																			1580041038.0	10.64	19.71
26/01/2020 12:17:19	26012020	260120	121719	100.010	12.402595	-57.166345	99.940	0.070	-0.830	1.110	100.000	-2.100	1.500																			1580041039.0	10.92	20.22
26/01/2020 12:17:20	26012020	260120	121720	99.970	12.402587	-57.166295	99.950	0.160	-0.830	0.920	99.970	-2.300	1.400																			1580041040.0	10.79	19.98
26/01/2020 12:17:21	26012020	260120	121721	100.000	12.402577	-57.166247	99.950	0.010	-0.370	0.790	100.000	-2.000	1.200																			1580041041.0	10.29	19.06
26/01/2020 12:17:22	26012020	260120	121722	99.950	12.402567	-57.166202	99.840	-0.220	0.060	0.800	99.930	-1.400	1.200																			1580041042.0	9.90	18.33
26/01/2020 12:17:23	26012020	260120	121723	99.800	12.402557	-57.166155	99.700	-0.250	0.030	0.850	99.770	-1.300	1.200																			1580041043.0	10.07	18.65
26/01/2020 12:17:24	26012020	260120	121724	99.690	12.402545	-57.166105	99.640	0.060	-0.460	0.840	99.670	-1.600	1.300																			1580041044.0	10.66	19.74
26/01/2020 12:17:25	26012020	260120	121725	99.690	12.402535	-57.166053	99.680	0.450	-0.780	0.850	99.690	-2.100	1.200																			1580041045.0	11.17	20.69
26/01/2020 12:17:26	26012020	260120	121726	99.730	12.402525	-57.166003	99.720	0.530	-0.460	0.860	99.730	-2.000	1.300																			1580041046.0	10.87	20.13
26/01/2020 12:17:27	26012020	260120	121727	99.790	12.402517	-57.165957	99.820	0.220	0.210	0.880	99.810	-1.400	1.300																			1580041047.0	10.15	18.80
26/01/2020 12:17:28	26012020	260120	121728	99.910	12.402507	-57.165912	100.010	-0.240	0.620	0.980	99.950	-0.900	1.300																			1580041048.0	9.81	18.17
26/01/2020 12:17:29	26012020	260120	121729	100.160	12.402498	-57.165865	100.330	-0.530	0.480	0.980	100.230	-0.800	1.400																			1580041049.0	10.02	18.56
26/01/2020 12:17:30	26012020	260120	121730	100.470	12.402487	-57.165817	100.530	-0.480	-0.100	1.030	100.500	-1.200	1.400																			1580041050.0	10.47	19.39
26/01/2020 12:17:31	26012020	260120	121731	100.510	12.402475	-57.165767	100.390	-0.150	-0.770	1.220	100.470	-1.900	1.500																			1580041051.0	10.85	20.09
26/01/2020 12:17:32	26012020	260120	121732	100.280	12.402463	-57.165717	100.150	0.210	-1.200	1.190	100.230	-2.500	1.600																			1580041052.0	10.96	20.30
26/01/2020 12:17:33	26012020	260120	121733	100.140	12.402453	-57.165667	100.080	0.370	-1.050	0.860	100.130	-2.600	1.400																			1580041053.0	10.75	19.91
26/01/2020 12:17:34	26012020	260120	121734	100.110	12.402445	-57.165618	100.070	0.260	-0.320	0.570	100.110	-2.000	1.100																			1580041054.0	10.20	18.89
26/01/2020 12:17:35	26012020	260120	121735	100.110	12.402438	-57.165573	100.050	0.030	0.300	0.360	100.110	-1.300	0.800																			1580041055.0	9.73	18.02
26/01/2020 12:17:36	26012020	260120	121736	100.090	12.402430	-57.165527	100.010	-0.070	0.260	0.370	100.080	-1.000	0.700																			1580041056.0	10.02	18.56
26/01/2020 12:17:37	26012020	260120	121737	100.030	12.402418	-57.165477	99.960	0.020	-0.210	0.550	100.020	-1.400	0.900																			1580041057.0	10.79	19.98
26/01/2020 12:17:38	26012020	260120	121738	100.010	12.402407	-57.165425	100.010	0.080	-0.410	0.590	100.030	-1.800	1.000																			1580041058.0	11.11	20.58
26/01/2020 12:17:39	26012020	260120	121739	100.120	12.402397	-57.165377	100.160	0.020	-0.140	0.550	100.150	-1.700	1.000																			1580041059.0	10.59	19.61
26/01/2020 12:17:40	26012020	260120	121740	100.280	12.402387	-57.165330	100.300	-0.050	0.150	0.520	100.310	-1.300	0.900																			1580041060.0	10.00	18.52
26/01/2020 12:17:41	26012020	260120	121741	100.360	12.402377	-57.165283	100.320	-0.020	0.040	0.420	100.370	-1.300	0.900																			1580041061.0	10.09	18.69
26/01/2020 12:17:42	26012020	260120	121742	100.380	12.402367	-57.165235	100.330	-0.050	-0.220	0.270	100.380	-1.500	0.700																			1580041062.0	10.48	19.41
26/01/2020 12:17:43	26012020	260120	121743	100.390	12.402358	-57.165187	100.320	-0.200	-0.400	0.370	100.380	-1.700	0.700																			1580041063.0	10.49	19.43
26/01/2020 12:17:44	26012020	260120	121744	100.340	12.402348	-57.165138	100.220	-0.280	-0.610	0.650	100.320	-1.900	0.900																			1580041064.0	10.38	19.22
26/01/2020 12:17:45	26012020	260120	121745	100.210	12.402335	-57.165090	99.950	-0.120	-0.890	0.980	100.160	-2.200	1.300																			1580041065.0	10.60	19.63
26/01/2020 12:17:46	26012020	260120	121746	99.830	12.402322	-57.165040	99.640	0.160	-0.960	1.170	99.770	-2.400	1.500																			1580041066.0	10.86	20.11
26/01/2020 12:17:47	26012020	260120	121747	99.580	12.402310	-57.164992	99.490	0.280	-0.510	1.000	99.550	-2.100	1.500																			1580041067.0	10.73	19.87
26/01/2020 12:17:48	26012020	260120	121748	99.550	12.402300	-57.164943	99.610	0.130	0.300	0.650	99.580	-1.400	1.200																			1580041068.0	10.14	18.78
26/01/2020 12:17:49	26012020	260120	121749	99.780	12.402293	-57.164898	99.880	-0.070	0.770	0.350	99.830	-0.700	0.900																			1580041069.0	9.77	18.09
26/01/2020 12:17:50	26012020	260120	121750	100.040	12.402283	-57.164852	100.080	-0.060	0.520	0.300	100.080	-0.700	0.700																			1580041070.0	10.14	18.78
26/01/2020 12:17:51	26012020	260120	121751	100.170	12.402273	-57.164802	100.160	0.120	-0.070	0.480	100.180	-1.200	0.800																			1580041071.0	10.77	19.95
26/01/2020 12:17:52	26012020	260120	121752	100.230	12.402263	-57.164752	100.220	0.250	-0.440	0.600	100.240	-1.700	1.000																			1580041072.0	10.86	20.11
26/01/2020 12:17:53	26012020	260120	121753	100.290	12.402253	-57.164703	100.300	0.210	-0.520	0.690	100.300	-1.900	1.100																			1580041073.0	10.46	19.37
26/01/2020 12:17:54	26012020	260120	121754	100.360	12.402243	-57.164655	100.340	0.080	-0.470	0.750	100.370	-1.900	1.100																			1580041074.0	10.18	18.85
26/01/2020 12:17:55	26012020	260120	121755	100.340	12.402233	-57.164608	100.210	-0.100	-0.440	0.880	100.310	-1.800	1.200																			1580041075.0	10.14	18.78
26/01/2020 12:17:56	26012020	260120	121756	100.120	12.402222	-57.164562	99.920	-0.240	-0.540	1.060	100.060	-1.900	1.400																			1580041076.0	10.27	19.02
26/01/2020 12:17:57	26012020	260120	121757	99.800	12.402210	-57.164513	99.610	-0.180	-0.730	1.110	99.740	-2.000	1.500																			1580041077.0	10.53	19.50
26/01/2020 12:17:58	26012020	260120	121758	99.510	12.402198	-57.164463	99.370	0.010	-0.790	1.040	99.470	-2.200	1.500																			1580041078.0	10.80	20.00
26/01/2020 12:17:59	26012020	260120	121759	99.330	12.402188	-57.164413	99.260	0.060	-0.490	0.790	99.320	-2.000	1.300																			1580041079.0	10.73	19.87
26/01/2020 12:18:00	26012020	260120	121800	99.300	12.402180	-57.164365	99.250	-0.080	0.040	0.610	99.300	-1.600	1.000	1015.90	26.10	26.10	18.20	18.30	361.00	62.00	62.00	378.00	26.80	348.00	12.20	78.00	7.00	26121	3051.00	27.30	27.30	1580041080.0	10.37	19.21
26/01/2020 12:18:01	26012020	260120	121801	99.310	12.402170	-57.164318	99.290	-0.220	0.480	0.670	99.320	-1.000	1.000																			1580041081.0	10.12	18.74
26/01/2020 12:18:02	26012020	260120	121802	99.360	12.402158	-57.164272	99.370	-0.130	0.440	0.690	99.380	-0.900	1.100																			1580041082.0	10.23	18.95
26/01/2020 12:18:03	26012020	260120	121803	99.500	12.402148	-57.164222	99.610	0.100	0.170	0.650	99.550	-1.100	1.100																			1580041083.0	10.68	19.78
26/01/2020 12:18:04	26012020	260120	121804	99.810	12.402138	-57.164173	99.960	0.220	0.080	0.630	99.880	-1.300	1.000																			1580041084.0	10.61	19.65
26/01/2020 12:18:05	26012020	260120	121805	100.130	12.402130	-57.164127	100.190	0.160	0.080	0.760	100.170	-1.300	1.100																			1580041085.0	10.16	18.82
26/01/2020 12:18:06	26012020	260120	121806	100.230	12.402120	-57.164080	100.160	0.100	-0.180	1.000	100.220	-1.400	1.300																			1580041086.0	9.98	18.48
26/01/2020 12:18:07	26012020	260120	121807	100.140	12.402110	-57.164032	100.070	0.200	-0.790	1.130	100.120	-1.900	1.500																			1580041087.0	10.33	19.13
26/01/2020 12:18:08	26012020	260120	121808	100.050	12.402100	-57.163982	99.940	0.350	-1.290	1.160	100.030	-2.500	1.600																			1580041088.0	10.78	19.96
26/01/2020 12:18:09	26012020	260120	121809	99.880	12.402090	-57.163932	99.710	0.300	-1.170	1.130	99.840	-2.700	1.500																			1580041089.0	10.72	19.85
26/01/2020 12:18:10	26012020	260120	121810	99.600	12.402080	-57.163885	99.390	-0.030	-0.570	1.200	99.530	-2.200	1.600																			1580041090.0	10.21	18.91
26/01/2020 12:18:11	26012020	260120	121811	99.310	12.402070	-57.163838	99.200	-0.420	-0.040	1.130	99.310	-1.600	1.600																			1580041091.0	9.97	18.46
26/01/2020 12:18:12	26012020	260120	121812	99.200	12.402060	-57.163792	99.200	-0.590	0.090	0.890	99.200	-1.300	1.400																			1580041092.0	10.22	18.93
26/01/2020 12:18:13	26012020	260120	121813	99.230	12.402048	-57.163742	99.190	-0.430	-0.100	0.720	99.230	-1.400	1.200																			1580041093.0	10.69	19.80
26/01/2020 12:18:14	26012020	260120	121814	99.190	12.402037	-57.163692	99.150	-0.100	-0.160	0.660	99.170	-1.600	1.100																			1580041094.0	11.01	20.39
26/01/2020 12:18:15	26012020	260120	121815	99.190	12.402027	-57.163642	99.270	0.090	0.170	0.560	99.210	-1.400	1.000																			1580041095.0	10.69	19.80
26/01/2020 12:18:16	26012020	260120	121816	99.390	12.402018	-57.163595	99.570	0.080	0.570	0.480	99.460	-0.900	0.900																			1580041096.0	10.08	18.67
26/01/2020 12:18:17	26012020	260120	121817	99.760	12.402010	-57.163550	99.940	0.030	0.540	0.430	99.840	-0.800	0.800																			1580041097.0	9.89	18.32
26/01/2020 12:18:18	26012020	260120	121818	100.070	12.402000	-57.163502	100.140	0.120	-0.040	0.550	100.110	-1.200	0.900																			1580041098.0	10.27	19.02
26/01/2020 12:18:19	26012020	260120	121819	100.170	12.401990	-57.163452	100.140	0.300	-0.670	0.830	100.170	-1.800	1.100																			1580041099.0	10.70	19.82
26/01/2020 12:18:20	26012020	260120	121820	100.090	12.401980	-57.163403	99.980	0.380	-0.930	1.120	100.050	-2.200	1.400																			1580041100.0	10.61	19.65
26/01/2020 12:18:21	26012020	260120	121821	99.860	12.401970	-57.163355	99.700	0.370	-0.990	1.290	99.800	-2.300	1.700																			1580041101.0	10.29	19.06
26/01/2020 12:18:22	26012020	260120	121822	99.580	12.401962	-57.163307	99.420	0.250	-0.910	1.260	99.520	-2.300	1.700																			1580041102.0	10.36	19.19
26/01/2020 12:18:23	26012020	260120	121823	99.370	12.401952	-57.163258	99.240	-0.040	-0.560	1.150	99.330	-2.100	1.600																			1580041103.0	10.38	19.22
26/01/2020 12:18:24	26012020	260120	121824	99.210	12.401942	-57.163212	99.190	-0.410	-0.090	0.990	99.200	-1.600	1.500																			1580041104.0	10.18	18.85
26/01/2020 12:18:25	26012020	260120	121825	99.220	12.401932	-57.163165	99.230	-0.590	0.200	0.840	99.230	-1.300	1.300																			1580041105.0	10.15	18.80
26/01/2020 12:18:26	26012020	260120	121826	99.270	12.401920	-57.163117	99.270	-0.440	0.150	0.650	99.280	-1.200	1.100																			1580041106.0	10.42	19.30
26/01/2020 12:18:27	26012020	260120	121827	99.310	12.401910	-57.163067	99.300	-0.100	-0.060	0.550	99.310	-1.400	1.000																			1580041107.0	10.75	19.91
26/01/2020 12:18:28	26012020	260120	121828	99.360	12.401898	-57.163018	99.400	0.130	-0.080	0.460	99.380	-1.500	0.900																			1580041108.0	10.75	19.91
26/01/2020 12:18:29	26012020	260120	121829	99.490	12.401890	-57.162970	99.570	0.170	0.000	0.310	99.530	-1.400	0.800																			1580041109.0	10.38	19.22
26/01/2020 12:18:30	26012020	260120	121830	99.670	12.401883	-57.162922	99.710	0.140	-0.010	0.330	99.700	-1.400	0.700																			1580041110.0	10.20	18.89
26/01/2020 12:18:31	26012020	260120	121831	99.740	12.401873	-57.162873	99.700	0.130	-0.180	0.670	99.730	-1.500	0.900																			1580041111.0	10.29	19.06
26/01/2020 12:18:32	26012020	260120	121832	99.670	12.401863	-57.162825	99.630	0.140	-0.440	1.000	99.660	-1.700	1.300																			1580041112.0	10.44	19.33
26/01/2020 12:18:33	26012020	260120	121833	99.610	12.401852	-57.162777	99.570	0.140	-0.670	1.160	99.600	-2.000	1.500																			1580041113.0	10.53	19.50
26/01/2020 12:18:34	26012020	260120	121834	99.510	12.401842	-57.162728	99.410	0.130	-0.710	1.160	99.480	-2.100	1.600																			1580041114.0	10.55	19.54
26/01/2020 12:18:35	26012020	260120	121835	99.360	12.401832	-57.162680	99.270	0.030	-0.390	0.990	99.330	-1.900	1.500																			1580041115.0	10.42	19.30
26/01/2020 12:18:36	26012020	260120	121836	99.270	12.401823	-57.162633	99.280	-0.140	0.050	0.860	99.270	-1.500	1.300																			1580041116.0	10.05	18.61
26/01/2020 12:18:37	26012020	260120	121837	99.300	12.401813	-57.162587	99.300	-0.240	0.140	0.730	99.310	-1.200	1.200																			1580041117.0	10.02	18.56
26/01/2020 12:18:38	26012020	260120	121838	99.310	12.401803	-57.162538	99.290	-0.120	-0.210	0.640	99.300	-1.400	1.100																			1580041118.0	10.46	19.37
26/01/2020 12:18:39	26012020	260120	121839	99.310	12.401793	-57.162488	99.320	0.120	-0.510	0.570	99.320	-1.800	1.000																			1580041119.0	10.87	20.13
26/01/2020 12:18:40	26012020	260120	121840	99.360	12.401785	-57.162438	99.370	0.250	-0.420	0.550	99.370	-1.900	0.900																			1580041120.0	10.71	19.83
26/01/2020 12:18:41	26012020	260120	121841	99.410	12.401775	-57.162392	99.430	0.130	-0.040	0.620	99.420	-1.600	1.000																			1580041121.0	10.24	18.96
26/01/2020 12:18:42	26012020	260120	121842	99.480	12.401767	-57.162345	99.530	-0.140	0.210	0.800	99.500	-1.200	1.100																			1580041122.0	9.93	18.39
26/01/2020 12:18:43	26012020	260120	121843	99.590	12.401757	-57.162298	99.630	-0.280	-0.020	1.060	99.610	-1.300	1.400																			1580041123.0	10.12	18.74
26/01/2020 12:18:44	26012020	260120	121844	99.610	12.401745	-57.162248	99.540	-0.120	-0.560	1.300	99.600	-1.700	1.600																			1580041124.0	10.68	19.78
26/01/2020 12:18:45	26012020	260120	121845	99.450	12.401733	-57.162198	99.350	0.130	-0.820	1.310	99.420	-2.100	1.700																			1580041125.0	10.96	20.30
26/01/2020 12:18:46	26012020	260120	121846	99.320	12.401725	-57.162148	99.320	0.220	-0.600	1.110	99.320	-2.100	1.600																			1580041126.0	10.64	19.71
26/01/2020 12:18:47	26012020	260120	121847	99.390	12.401717	-57.162102	99.430	0.060	-0.130	0.820	99.420	-1.700	1.300																			1580041127.0	10.17	18.83
26/01/2020 12:18:48	26012020	260120	121848	99.480	12.401708	-57.162055	99.440	-0.200	0.230	0.650	99.480	-1.300	1.100																			1580041128.0	9.95	18.43
26/01/2020 12:18:49	26012020	260120	121849	99.450	12.401698	-57.162008	99.370	-0.290	0.160	0.600	99.430	-1.100	1.000																			1580041129.0	10.11	18.72
26/01/2020 12:18:50	26012020	260120	121850	99.370	12.401688	-57.161960	99.340	-0.030	-0.300	0.650	99.370	-1.500	1.000																			1580041130.0	10.58	19.59
26/01/2020 12:18:51	26012020	260120	121851	99.350	12.401678	-57.161908	99.320	0.320	-0.650	0.710	99.350	-1.900	1.100																			1580041131.0	10.97	20.32
26/01/2020 12:18:52	26012020	260120	121852	99.350	12.401668	-57.161858	99.340	0.360	-0.460	0.690	99.350	-2.000	1.100																			1580041132.0	10.73	19.87
26/01/2020 12:18:53	26012020	260120	121853	99.370	12.401660	-57.161812	99.370	0.030	0.030	0.720	99.380	-1.500	1.100																			1580041133.0	10.07	18.65
26/01/2020 12:18:54	26012020	260120	121854	99.400	12.401650	-57.161767	99.400	-0.290	0.270	0.910	99.400	-1.100	1.200																			1580041134.0	9.79	18.13
26/01/2020 12:18:55	26012020	260120	121855	99.410	12.401640	-57.161720	99.370	-0.300	-0.010	0.990	99.400	-1.200	1.400																			1580041135.0	10.20	18.89
26/01/2020 12:18:56	26012020	260120	121856	99.370	12.401630	-57.161670	99.360	-0.100	-0.440	0.810	99.370	-1.700	1.300																			1580041136.0	10.71	19.83
26/01/2020 12:18:57	26012020	260120	121857	99.430	12.401620	-57.161620	99.480	0.040	-0.550	0.620	99.460	-1.900	1.100																			1580041137.0	10.75	19.91
26/01/2020 12:18:58	26012020	260120	121858	99.570	12.401612	-57.161572	99.570	0.030	-0.350	0.560	99.590	-1.800	1.000																			1580041138.0	10.29	19.06
26/01/2020 12:18:59	26012020	260120	121859	99.610	12.401603	-57.161525	99.510	0.020	-0.330	0.630	99.600	-1.700	1.000																			1580041139.0	10.07	18.65
26/01/2020 12:19:00	26012020	260120	121900	99.470	12.401593	-57.161477	99.350	0.170	-0.610	0.910	99.440	-1.900	1.200	1015.90	26.10	26.20	18.40	18.50	356.00	62.00	62.00	378.00	26.90	348.00	11.90	77.00	6.70	26118	3030.00	27.30	27.30	1580041140.0	10.46	19.37
26/01/2020 12:19:01	26012020	260120	121901	99.350	12.401582	-57.161427	99.290	0.270	-0.580	1.060	99.330	-2.000	1.400																			1580041141.0	10.84	20.08
26/01/2020 12:19:02	26012020	260120	121902	99.360	12.401573	-57.161378	99.370	0.100	-0.070	0.920	99.370	-1.700	1.400																			1580041142.0	10.38	19.22
26/01/2020 12:19:03	26012020	260120	121903	99.450	12.401565	-57.161332	99.430	-0.200	0.240	0.830	99.450	-1.200	1.200																			1580041143.0	9.89	18.32
26/01/2020 12:19:04	26012020	260120	121904	99.450	12.401555	-57.161285	99.410	-0.320	-0.040	0.940	99.450	-1.300	1.300																			1580041144.0	10.27	19.02
26/01/2020 12:19:05	26012020	260120	121905	99.400	12.401543	-57.161235	99.390	-0.200	-0.400	1.100	99.400	-1.700	1.500																			1580041145.0	10.89	20.17
26/01/2020 12:19:06	26012020	260120	121906	99.430	12.401532	-57.161185	99.450	-0.090	-0.260	1.040	99.440	-1.800	1.500																			1580041146.0	10.83	20.06
26/01/2020 12:19:07	26012020	260120	121907	99.530	12.401522	-57.161138	99.540	-0.150	0.180	0.890	99.550	-1.400	1.400																			1580041147.0	10.10	18.71
26/01/2020 12:19:08	26012020	260120	121908	99.610	12.401513	-57.161092	99.600	-0.200	0.230	0.750	99.620	-1.100	1.200																			1580041148.0	9.82	18.19
26/01/2020 12:19:09	26012020	260120	121909	99.640	12.401503	-57.161045	99.640	-0.060	-0.180	0.610	99.650	-1.400	1.100																			1580041149.0	10.30	19.08
26/01/2020 12:19:10	26012020	260120	121910	99.700	12.401495	-57.160995	99.720	0.150	-0.560	0.470	99.720	-1.800	0.900																			1580041150.0	10.69	19.80
26/01/2020 12:19:11	26012020	260120	121911	99.780	12.401485	-57.160947	99.770	0.300	-0.620	0.330	99.790	-2.000	0.800																			1580041151.0	10.55	19.54
26/01/2020 12:19:12	26012020	260120	121912	99.780	12.401477	-57.160898	99.670	0.330	-0.440	0.330	99.760	-1.900	0.700																			1580041152.0	10.20	18.89
26/01/2020 12:19:13	26012020	260120	121913	99.660	12.401468	-57.160852	99.470	0.320	-0.380	0.520	99.620	-1.700	0.800																			1580041153.0	10.06	18.63
26/01/2020 12:19:14	26012020	260120	121914	99.420	12.401458	-57.160803	99.330	0.340	-0.620	0.710	99.390	-1.900	1.100																			1580041154.0	10.41	19.28
26/01/2020 12:19:15	26012020	260120	121915	99.330	12.401448	-57.160753	99.300	0.300	-0.670	0.820	99.330	-2.100	1.200																			1580041155.0	10.82	20.04
26/01/2020 12:19:16	26012020	260120	121916	99.320	12.401440	-57.160703	99.290	0.000	-0.220	0.850	99.320	-1.800	1.200																			1580041156.0	10.58	19.59
26/01/2020 12:19:17	26012020	260120	121917	99.310	12.401430	-57.160658	99.300	-0.460	0.330	0.900	99.310	-1.200	1.300																			1580041157.0	10.01	18.54
26/01/2020 12:19:18	26012020	260120	121918	99.380	12.401420	-57.160612	99.450	-0.750	0.410	0.980	99.420	-0.900	1.400																			1580041158.0	9.99	18.50
26/01/2020 12:19:19	26012020	260120	121919	99.550	12.401407	-57.160563	99.580	-0.720	0.060	0.990	99.580	-1.200	1.400																			1580041159.0	10.51	19.46
26/01/2020 12:19:20	26012020	260120	121920	99.600	12.401395	-57.160513	99.530	-0.400	-0.350	0.790	99.590	-1.600	1.300																			1580041160.0	10.80	20.00
26/01/2020 12:19:21	26012020	260120	121921	99.510	12.401385	-57.160463	99.400	0.010	-0.520	0.610	99.480	-1.900	1.100																			1580041161.0	10.76	19.93
26/01/2020 12:19:22	26012020	260120	121922	99.390	12.401375	-57.160415	99.350	0.250	-0.340	0.490	99.380	-1.800	0.900																			1580041162.0	10.44	19.33
26/01/2020 12:19:23	26012020	260120	121923	99.400	12.401367	-57.160368	99.400	0.260	-0.060	0.350	99.420	-1.500	0.800																			1580041163.0	10.04	18.59
26/01/2020 12:19:24	26012020	260120	121924	99.470	12.401360	-57.160322	99.440	0.200	-0.030	0.360	99.470	-1.400	0.700																			1580041164.0	9.97	18.46
26/01/2020 12:19:25	26012020	260120	121925	99.450	12.401350	-57.160275	99.370	0.230	-0.310	0.590	99.440	-1.500	0.900																			1580041165.0	10.30	19.08
26/01/2020 12:19:26	26012020	260120	121926	99.340	12.401340	-57.160225	99.270	0.330	-0.590	0.850	99.320	-1.900	1.200																			1580041166.0	10.68	19.78
26/01/2020 12:19:27	26012020	260120	121927	99.270	12.401330	-57.160177	99.260	0.340	-0.540	1.070	99.270	-2.000	1.400																			1580041167.0	10.60	19.63
26/01/2020 12:19:28	26012020	260120	121928	99.280	12.401320	-57.160128	99.300	0.230	-0.230	1.190	99.280	-1.700	1.600																			1580041168.0	10.21	18.91
26/01/2020 12:19:29	26012020	260120	121929	99.330	12.401310	-57.160082	99.370	0.090	-0.040	1.060	99.350	-1.400	1.500																			1580041169.0	10.01	18.54
26/01/2020 12:19:30	26012020	260120	121930	99.420	12.401303	-57.160035	99.420	0.030	-0.200	0.860	99.430	-1.500	1.300																			1580041170.0	10.28	19.04
26/01/2020 12:19:31	26012020	260120	121931	99.430	12.401293	-57.159985	99.410	-0.070	-0.400	0.790	99.430	-1.700	1.200																			1580041171.0	10.67	19.76
26/01/2020 12:19:32	26012020	260120	121932	99.420	12.401285	-57.159935	99.410	-0.290	-0.360	1.000	99.420	-1.800	1.300																			1580041172.0	10.61	19.65
26/01/2020 12:19:33	26012020	260120	121933	99.450	12.401273	-57.159888	99.480	-0.530	-0.170	1.270	99.470	-1.600	1.600																			1580041173.0	10.30	19.08
26/01/2020 12:19:34	26012020	260120	121934	99.530	12.401262	-57.159842	99.550	-0.590	-0.120	1.370	99.540	-1.500	1.800																			1580041174.0	10.21	18.91
26/01/2020 12:19:35	26012020	260120	121935	99.530	12.401250	-57.159793	99.470	-0.390	-0.290	1.340	99.500	-1.600	1.800																			1580041175.0	10.47	19.39
26/01/2020 12:19:36	26012020	260120	121936	99.430	12.401238	-57.159743	99.390	-0.090	-0.390	1.110	99.410	-1.800	1.600																			1580041176.0	10.72	19.85
26/01/2020 12:19:37	26012020	260120	121937	99.400	12.401228	-57.159695	99.460	0.140	-0.210	0.660	99.420	-1.700	1.200																			1580041177.0	10.52	19.48
26/01/2020 12:19:38	26012020	260120	121938	99.550	12.401222	-57.159648	99.630	0.260	0.070	0.280	99.590	-1.400	0.800																			1580041178.0	10.15	18.80
26/01/2020 12:19:39	26012020	260120	121939	99.730	12.401215	-57.159600	99.760	0.390	0.090	0.080	99.760	-1.300	0.500																			1580041179.0	10.07	18.65
26/01/2020 12:19:40	26012020	260120	121940	99.810	12.401207	-57.159552	99.810	0.540	-0.140	0.120	99.820	-1.400	0.500																			1580041180.0	10.36	19.19
26/01/2020 12:19:41	26012020	260120	121941	99.860	12.401200	-57.159503	99.870	0.560	-0.330	0.260	99.870	-1.700	0.600																			1580041181.0	10.56	19.56
26/01/2020 12:19:42	26012020	260120	121942	99.920	12.401190	-57.159455	99.960	0.340	-0.360	0.540	99.940	-1.700	0.800																			1580041182.0	10.42	19.30
26/01/2020 12:19:43	26012020	260120	121943	99.980	12.401180	-57.159407	100.010	-0.000	-0.330	0.930	99.990	-1.700	1.200																			1580041183.0	10.21	18.91
26/01/2020 12:19:44	26012020	260120	121944	99.990	12.401170	-57.159360	100.000	-0.260	-0.390	1.160	99.990	-1.700	1.500																			1580041184.0	10.24	18.96
26/01/2020 12:19:45	26012020	260120	121945	99.960	12.401158	-57.159312	99.940	-0.380	-0.500	1.240	99.950	-1.800	1.600																			1580041185.0	10.41	19.28
26/01/2020 12:19:46	26012020	260120	121946	99.880	12.401147	-57.159263	99.850	-0.380	-0.570	1.270	99.870	-1.900	1.700																			1580041186.0	10.54	19.52
26/01/2020 12:19:47	26012020	260120	121947	99.810	12.401133	-57.159215	99.800	-0.340	-0.480	1.040	99.800	-1.900	1.600																			1580041187.0	10.56	19.56
26/01/2020 12:19:48	26012020	260120	121948	99.800	12.401123	-57.159167	99.810	-0.320	-0.200	0.700	99.810	-1.700	1.200																			1580041188.0	10.39	19.24
26/01/2020 12:19:49	26012020	260120	121949	99.820	12.401113	-57.159120	99.810	-0.240	0.050	0.460	99.830	-1.400	0.900																			1580041189.0	10.19	18.87
26/01/2020 12:19:50	26012020	260120	121950	99.820	12.401105	-57.159072	99.780	0.040	-0.050	0.370	99.820	-1.300	0.800																			1580041190.0	10.29	19.06
26/01/2020 12:19:51	26012020	260120	121951	99.790	12.401095	-57.159023	99.790	0.420	-0.290	0.370	99.790	-1.600	0.800																			1580041191.0	10.71	19.83
26/01/2020 12:19:52	26012020	260120	121952	99.860	12.401087	-57.158973	99.930	0.530	-0.180	0.480	99.890	-1.600	0.800																			1580041192.0	10.74	19.89
26/01/2020 12:19:53	26012020	260120	121953	100.030	12.401078	-57.158925	100.100	0.250	0.170	0.690	100.060	-1.300	1.000																			1580041193.0	10.19	18.87
26/01/2020 12:19:54	26012020	260120	121954	100.150	12.401068	-57.158880	100.170	-0.120	0.270	0.950	100.160	-1.100	1.300																			1580041194.0	9.88	18.30
26/01/2020 12:19:55	26012020	260120	121955	100.180	12.401057	-57.158833	100.190	-0.220	-0.090	1.090	100.180	-1.300	1.500																			1580041195.0	10.18	18.85
26/01/2020 12:19:56	26012020	260120	121956	100.200	12.401047	-57.158783	100.180	-0.010	-0.610	1.050	100.200	-1.800	1.500																			1580041196.0	10.65	19.72
26/01/2020 12:19:57	26012020	260120	121957	100.190	12.401037	-57.158733	100.170	0.250	-0.810	0.880	100.180	-2.200	1.400																			1580041197.0	10.76	19.93
26/01/2020 12:19:58	26012020	260120	121958	100.170	12.401027	-57.158685	100.140	0.300	-0.640	0.720	100.170	-2.100	1.200																			1580041198.0	10.42	19.30
26/01/2020 12:19:59	26012020	260120	121959	100.120	12.401017	-57.158638	100.040	0.140	-0.410	0.720	100.100	-1.900	1.100																			1580041199.0	10.14	18.78
26/01/2020 12:20:00	26012020	260120	122000	100.020	12.401008	-57.158592	99.970	-0.100	-0.160	0.680	100.000	-1.600	1.100	1016.00	26.10	26.20	17.90	18.00	355.00	60.00	61.00	377.00	26.90	347.00	12.40	77.00	7.30	26242	3171.00	27.30	27.30	1580041200.0	10.21	18.91
26/01/2020 12:20:01	26012020	260120	122001	99.970	12.400998	-57.158543	99.970	-0.320	0.080	0.630	99.970	-1.400	1.000																			1580041201.0	10.16	18.82
26/01/2020 12:20:02	26012020	260120	122002	100.000	12.400988	-57.158497	100.030	-0.390	-0.030	0.710	100.020	-1.300	1.100																			1580041202.0	10.19	18.87
26/01/2020 12:20:03	26012020	260120	122003	100.050	12.400977	-57.158448	100.050	-0.210	-0.430	0.900	100.060	-1.600	1.200																			1580041203.0	10.63	19.69
26/01/2020 12:20:04	26012020	260120	122004	100.030	12.400963	-57.158398	99.970	0.070	-0.680	1.130	100.000	-2.000	1.500																			1580041204.0	10.93	20.24
26/01/2020 12:20:05	26012020	260120	122005	99.900	12.400952	-57.158348	99.850	0.210	-0.430	1.190	99.880	-2.000	1.600																			1580041205.0	10.71	19.83
26/01/2020 12:20:06	26012020	260120	122006	99.830	12.400942	-57.158302	99.860	0.130	0.100	0.940	99.830	-1.500	1.500																			1580041206.0	10.14	18.78
26/01/2020 12:20:07	26012020	260120	122007	99.900	12.400935	-57.158255	99.970	0.020	0.300	0.510	99.930	-1.100	1.100																			1580041207.0	9.91	18.35
26/01/2020 12:20:08	26012020	260120	122008	100.030	12.400928	-57.158207	100.050	0.070	-0.020	0.350	100.040	-1.200	0.800																			1580041208.0	10.35	19.17
26/01/2020 12:20:09	26012020	260120	122009	100.060	12.400918	-57.158157	100.050	0.170	-0.390	0.520	100.050	-1.700	0.900																			1580041209.0	10.80	20.00
26/01/2020 12:20:10	26012020	260120	122010	100.060	12.400908	-57.158107	100.100	0.080	-0.330	0.700	100.080	-1.800	1.000																			1580041210.0	10.67	19.76
26/01/2020 12:20:11	26012020	260120	122011	100.120	12.400898	-57.158062	100.150	-0.170	-0.060	0.970	100.140	-1.500	1.300																			1580041211.0	10.10	18.71
26/01/2020 12:20:12	26012020	260120	122012	100.100	12.400887	-57.158015	100.020	-0.320	-0.120	1.250	100.060	-1.400	1.600																			1580041212.0	9.96	18.45
26/01/2020 12:20:13	26012020	260120	122013	99.890	12.400873	-57.157968	99.780	-0.180	-0.540	1.310	99.840	-1.700	1.700																			1580041213.0	10.45	19.35
26/01/2020 12:20:14	26012020	260120	122014	99.660	12.400863	-57.157917	99.610	0.150	-0.870	1.170	99.620	-2.200	1.600																			1580041214.0	10.84	20.08
26/01/2020 12:20:15	26012020	260120	122015	99.560	12.400853	-57.157868	99.610	0.350	-0.640	0.880	99.560	-2.200	1.400																			1580041215.0	10.72	19.85
26/01/2020 12:20:16	26012020	260120	122016	99.650	12.400845	-57.157820	99.740	0.250	-0.030	0.490	99.680	-1.600	1.100																			1580041216.0	10.11	18.72
26/01/2020 12:20:17	26012020	260120	122017	99.810	12.400838	-57.157775	99.890	0.020	0.350	0.250	99.830	-1.100	0.700																			1580041217.0	9.77	18.09
26/01/2020 12:20:18	26012020	260120	122018	99.940	12.400830	-57.157728	100.010	-0.100	0.190	0.360	99.970	-1.100	0.700																			1580041218.0	10.11	18.72
26/01/2020 12:20:19	26012020	260120	122019	100.040	12.400818	-57.157678	100.060	-0.110	-0.230	0.670	100.050	-1.400	0.900																			1580041219.0	10.61	19.65
26/01/2020 12:20:20	26012020	260120	122020	100.020	12.400807	-57.157630	99.980	-0.060	-0.580	0.930	100.000	-1.800	1.300																			1580041220.0	10.76	19.93
26/01/2020 12:20:21	26012020	260120	122021	99.900	12.400797	-57.157580	99.890	-0.010	-0.660	1.080	99.880	-2.000	1.400																			1580041221.0	10.65	19.72
26/01/2020 12:20:22	26012020	260120	122022	99.830	12.400787	-57.157532	99.860	-0.010	-0.480	1.040	99.830	-1.900	1.500																			1580041222.0	10.42	19.30
26/01/2020 12:20:23	26012020	260120	122023	99.860	12.400777	-57.157485	99.890	-0.120	-0.240	0.840	99.860	-1.700	1.300																			1580041223.0	10.23	18.95
26/01/2020 12:20:24	26012020	260120	122024	99.850	12.400767	-57.157437	99.810	-0.230	-0.070	0.720	99.830	-1.500	1.100																			1580041224.0	10.22	18.93
26/01/2020 12:20:25	26012020	260120	122025	99.720	12.400757	-57.157390	99.670	-0.240	-0.040	0.750	99.700	-1.400	1.100																			1580041225.0	10.34	19.15
26/01/2020 12:20:26	26012020	260120	122026	99.640	12.400747	-57.157340	99.680	-0.150	-0.100	0.710	99.640	-1.500	1.100																			1580041226.0	10.50	19.45
26/01/2020 12:20:27	26012020	260120	122027	99.700	12.400737	-57.157292	99.860	-0.030	-0.110	0.660	99.730	-1.500	1.100																			1580041227.0	10.52	19.48
26/01/2020 12:20:28	26012020	260120	122028	99.930	12.400727	-57.157245	100.040	0.060	-0.050	0.660	99.970	-1.500	1.100																			1580041228.0	10.35	19.17
26/01/2020 12:20:29	26012020	260120	122029	100.060	12.400715	-57.157197	100.070	0.160	-0.030	0.760	100.060	-1.400	1.100																			1580041229.0	10.21	18.91
26/01/2020 12:20:30	26012020	260120	122030	100.000	12.400705	-57.157150	99.970	0.270	-0.160	0.860	99.980	-1.500	1.200																			1580041230.0	10.24	18.96
26/01/2020 12:20:31	26012020	260120	122031	99.930	12.400697	-57.157102	99.940	0.370	-0.450	0.840	99.920	-1.700	1.300																			1580041231.0	10.38	19.22
26/01/2020 12:20:32	26012020	260120	122032	99.910	12.400690	-57.157052	99.930	0.440	-0.730	0.830	99.910	-2.000	1.200																			1580041232.0	10.58	19.59
26/01/2020 12:20:33	26012020	260120	122033	99.920	12.400680	-57.157003	99.930	0.320	-0.660	0.890	99.920	-2.100	1.300																			1580041233.0	10.59	19.61
26/01/2020 12:20:34	26012020	260120	122034	99.870	12.400672	-57.156955	99.830	-0.030	-0.260	1.030	99.840	-1.800	1.400																			1580041234.0	10.24	18.96
26/01/2020 12:20:35	26012020	260120	122035	99.730	12.400660	-57.156910	99.700	-0.400	0.060	1.140	99.700	-1.400	1.500																			1580041235.0	9.98	18.48
26/01/2020 12:20:36	26012020	260120	122036	99.660	12.400650	-57.156862	99.710	-0.570	-0.010	1.100	99.660	-1.300	1.500																			1580041236.0	10.20	18.89
26/01/2020 12:20:37	26012020	260120	122037	99.700	12.400638	-57.156813	99.730	-0.530	-0.240	0.970	99.700	-1.500	1.400																			1580041237.0	10.64	19.71
26/01/2020 12:20:38	26012020	260120	122038	99.720	12.400628	-57.156763	99.750	-0.380	-0.330	0.730	99.720	-1.700	1.200																			1580041238.0	10.67	19.76
26/01/2020 12:20:39	26012020	260120	122039	99.730	12.400617	-57.156715	99.740	-0.100	-0.350	0.510	99.730	-1.700	1.000																			1580041239.0	10.48	19.41
26/01/2020 12:20:40	26012020	260120	122040	99.740	12.400608	-57.156667	99.770	0.230	-0.380	0.280	99.750	-1.800	0.800																			1580041240.0	10.49	19.43
26/01/2020 12:20:41	26012020	260120	122041	99.780	12.400600	-57.156618	99.840	0.360	-0.200	0.010	99.790	-1.700	0.500																			1580041241.0	10.47	19.39
26/01/2020 12:20:42	26012020	260120	122042	99.870	12.400593	-57.156570	99.910	0.250	0.060	-0.040	99.890	-1.400	0.400																			1580041242.0	10.14	18.78
26/01/2020 12:20:43	26012020	260120	122043	99.930	12.400585	-57.156523	99.950	0.100	0.040	0.240	99.930	-1.300	0.500																			1580041243.0	10.06	18.63
26/01/2020 12:20:44	26012020	260120	122044	99.880	12.400575	-57.156475	99.840	0.060	-0.300	0.670	99.860	-1.500	0.900																			1580041244.0	10.40	19.26
26/01/2020 12:20:45	26012020	260120	122045	99.740	12.400563	-57.156427	99.720	0.130	-0.610	0.970	99.720	-1.900	1.300																			1580041245.0	10.76	19.93
26/01/2020 12:20:46	26012020	260120	122046	99.660	12.400552	-57.156377	99.690	0.090	-0.490	1.100	99.660	-2.000	1.500																			1580041246.0	10.68	19.78
26/01/2020 12:20:47	26012020	260120	122047	99.650	12.400542	-57.156330	99.710	-0.150	-0.010	1.080	99.660	-1.600	1.500																			1580041247.0	10.16	18.82
26/01/2020 12:20:48	26012020	260120	122048	99.730	12.400532	-57.156285	99.830	-0.370	0.240	0.880	99.750	-1.200	1.400																			1580041248.0	9.80	18.15
26/01/2020 12:20:49	26012020	260120	122049	99.850	12.400522	-57.156238	99.940	-0.260	-0.080	0.670	99.870	-1.300	1.100																			1580041249.0	10.14	18.78
26/01/2020 12:20:50	26012020	260120	122050	99.930	12.400512	-57.156188	100.020	0.060	-0.500	0.480	99.950	-1.700	1.000																			1580041250.0	10.77	19.95
26/01/2020 12:20:51	26012020	260120	122051	100.030	12.400502	-57.156138	100.150	0.240	-0.450	0.320	100.060	-1.900	0.800																			1580041251.0	10.69	19.80
26/01/2020 12:20:52	26012020	260120	122052	100.200	12.400493	-57.156092	100.320	0.200	-0.140	0.280	100.230	-1.600	0.700																			1580041252.0	10.07	18.65
26/01/2020 12:20:53	26012020	260120	122053	100.320	12.400485	-57.156045	100.390	0.130	-0.180	0.470	100.340	-1.500	0.800																			1580041253.0	9.90	18.33
26/01/2020 12:20:54	26012020	260120	122054	100.290	12.400475	-57.155997	100.240	0.180	-0.610	0.790	100.260	-1.800	1.100																			1580041254.0	10.41	19.28
26/01/2020 12:20:55	26012020	260120	122055	100.120	12.400463	-57.155947	99.980	0.240	-0.860	1.080	100.080	-2.200	1.400																			1580041255.0	10.83	20.06
26/01/2020 12:20:56	26012020	260120	122056	99.810	12.400453	-57.155898	99.760	0.140	-0.630	1.260	99.770	-2.100	1.600																			1580041256.0	10.67	19.76
26/01/2020 12:20:57	26012020	260120	122057	99.640	12.400443	-57.155850	99.670	-0.180	-0.170	1.290	99.630	-1.700	1.700																			1580041257.0	10.26	19.00
26/01/2020 12:20:58	26012020	260120	122058	99.640	12.400432	-57.155803	99.740	-0.560	0.180	1.230	99.660	-1.300	1.700																			1580041258.0	10.14	18.78
26/01/2020 12:20:59	26012020	260120	122059	99.720	12.400420	-57.155757	99.810	-0.700	0.330	1.110	99.730	-1.100	1.600																			1580041259.0	10.27	19.02
26/01/2020 12:21:00	26012020	260120	122100	99.790	12.400408	-57.155708	99.890	-0.510	0.330	0.840	99.810	-1.000	1.400	1016.00	26.10	26.20	17.70	17.80	360.00	59.00	59.00	376.00	26.90	349.00	12.40	80.00	7.20	26559	3238.00	27.30	27.30	1580041260.0	10.39	19.24
26/01/2020 12:21:01	26012020	260120	122101	99.930	12.400398	-57.155662	100.090	-0.110	0.130	0.470	99.980	-1.100	1.000																			1580041261.0	10.40	19.26
26/01/2020 12:21:02	26012020	260120	122102	100.210	12.400390	-57.155612	100.430	0.310	-0.230	0.120	100.280	-1.500	0.600																			1580041262.0	10.53	19.50
26/01/2020 12:21:03	26012020	260120	122103	100.570	12.400382	-57.155563	100.760	0.550	-0.390	-0.030	100.640	-1.700	0.400																			1580041263.0	10.53	19.50
26/01/2020 12:21:04	26012020	260120	122104	100.820	12.400373	-57.155515	100.880	0.550	-0.320	0.080	100.840	-1.700	0.400																			1580041264.0	10.17	18.83
26/01/2020 12:21:05	26012020	260120	122105	100.830	12.400363	-57.155470	100.790	0.440	-0.370	0.390	100.810	-1.700	0.700																			1580041265.0	9.93	18.39
26/01/2020 12:21:06	26012020	260120	122106	100.700	12.400355	-57.155422	100.640	0.370	-0.670	0.670	100.670	-1.900	1.000																			1580041266.0	10.20	18.89
26/01/2020 12:21:07	26012020	260120	122107	100.570	12.400345	-57.155373	100.470	0.340	-0.960	0.860	100.540	-2.200	1.200																			1580041267.0	10.58	19.59
26/01/2020 12:21:08	26012020	260120	122108	100.360	12.400335	-57.155323	100.260	0.180	-0.900	1.030	100.310	-2.400	1.400																			1580041268.0	10.69	19.80
26/01/2020 12:21:09	26012020	260120	122109	100.120	12.400323	-57.155277	100.050	-0.200	-0.390	1.120	100.080	-2.000	1.500																			1580041269.0	10.43	19.32
26/01/2020 12:21:10	26012020	260120	122110	99.970	12.400312	-57.155230	99.990	-0.670	0.220	1.060	99.950	-1.400	1.500																			1580041270.0	10.07	18.65
26/01/2020 12:21:11	26012020	260120	122111	99.960	12.400300	-57.155183	100.050	-0.940	0.520	0.900	99.980	-0.900	1.400																			1580041271.0	10.06	18.63
26/01/2020 12:21:12	26012020	260120	122112	100.070	12.400288	-57.155137	100.190	-0.840	0.400	0.640	100.100	-0.900	1.100																			1580041272.0	10.32	19.11
26/01/2020 12:21:13	26012020	260120	122113	100.220	12.400277	-57.155087	100.300	-0.380	-0.040	0.390	100.250	-1.200	0.900																			1580041273.0	10.65	19.72
26/01/2020 12:21:14	26012020	260120	122114	100.310	12.400265	-57.155037	100.340	0.190	-0.470	0.300	100.310	-1.700	0.700																			1580041274.0	10.86	20.11
26/01/2020 12:21:15	26012020	260120	122115	100.350	12.400255	-57.154988	100.410	0.580	-0.500	0.320	100.360	-1.900	0.700																			1580041275.0	10.70	19.82
26/01/2020 12:21:16	26012020	260120	122116	100.430	12.400245	-57.154940	100.520	0.650	-0.190	0.320	100.460	-1.700	0.700																			1580041276.0	10.17	18.83
26/01/2020 12:21:17	26012020	260120	122117	100.560	12.400237	-57.154895	100.620	0.510	0.060	0.490	100.590	-1.400	0.800																			1580041277.0	9.78	18.11
26/01/2020 12:21:18	26012020	260120	122118	100.570	12.400228	-57.154848	100.510	0.370	-0.140	0.880	100.540	-1.400	1.100																			1580041278.0	9.94	18.41
26/01/2020 12:21:19	26012020	260120	122119	100.400	12.400217	-57.154800	100.350	0.240	-0.550	1.110	100.370	-1.800	1.500																			1580041279.0	10.49	19.43
26/01/2020 12:21:20	26012020	260120	122120	100.260	12.400207	-57.154752	100.250	0.070	-0.700	1.200	100.240	-2.000	1.600																			1580041280.0	10.64	19.71
26/01/2020 12:21:21	26012020	260120	122121	100.210	12.400195	-57.154703	100.230	-0.150	-0.520	1.250	100.200	-2.000	1.600																			1580041281.0	10.38	19.22
26/01/2020 12:21:22	26012020	260120	122122	100.170	12.400185	-57.154657	100.190	-0.350	-0.250	1.190	100.170	-1.700	1.600																			1580041282.0	10.13	18.76
26/01/2020 12:21:23	26012020	260120	122123	100.140	12.400173	-57.154610	100.160	-0.410	-0.120	1.030	100.140	-1.500	1.500																			1580041283.0	10.15	18.80
26/01/2020 12:21:24	26012020	260120	122124	100.120	12.400162	-57.154562	100.160	-0.280	-0.240	0.850	100.120	-1.500	1.300																			1580041284.0	10.67	19.76
26/01/2020 12:21:25	26012020	260120	122125	100.120	12.400152	-57.154513	100.160	-0.050	-0.340	0.600	100.120	-1.700	1.100																			1580041285.0	10.67	19.76
26/01/2020 12:21:26	26012020	260120	122126	100.120	12.400142	-57.154463	100.180	0.090	-0.220	0.390	100.130	-1.600	0.900																			1580041286.0	10.56	19.56
26/01/2020 12:21:27	26012020	260120	122127	100.170	12.400133	-57.154417	100.250	0.100	-0.010	0.280	100.180	-1.400	0.700																			1580041287.0	10.26	19.00
26/01/2020 12:21:28	26012020	260120	122128	100.270	12.400123	-57.154370	100.330	0.050	0.130	0.290	100.280	-1.300	0.700																			1580041288.0	10.14	18.78
26/01/2020 12:21:29	26012020	260120	122129	100.310	12.400113	-57.154322	100.320	0.010	0.060	0.480	100.310	-1.200	0.800																			1580041289.0	10.15	18.80
26/01/2020 12:21:30	26012020	260120	122130	100.230	12.400103	-57.154275	100.180	0.040	-0.250	0.840	100.200	-1.500	1.100																			1580041290.0	10.35	19.17
26/01/2020 12:21:31	26012020	260120	122131	100.090	12.400092	-57.154227	99.960	0.140	-0.560	1.160	100.050	-1.800	1.500																			1580041291.0	10.57	19.58
26/01/2020 12:21:32	26012020	260120	122132	99.840	12.400080	-57.154177	99.800	0.220	-0.650	1.200	99.820	-2.000	1.600																			1580041292.0	10.58	19.59
26/01/2020 12:21:33	26012020	260120	122133	99.720	12.400070	-57.154130	99.710	0.170	-0.490	1.070	99.710	-1.900	1.500																			1580041293.0	10.37	19.21
26/01/2020 12:21:34	26012020	260120	122134	99.640	12.400060	-57.154082	99.660	-0.000	-0.200	0.910	99.620	-1.700	1.400																			1580041294.0	10.19	18.87
26/01/2020 12:21:35	26012020	260120	122135	99.620	12.400052	-57.154035	99.690	-0.170	0.080	0.770	99.640	-1.400	1.200																			1580041295.0	10.06	18.63
26/01/2020 12:21:36	26012020	260120	122136	99.700	12.400042	-57.153988	99.790	-0.200	0.070	0.700	99.710	-1.200	1.100																			1580041296.0	10.09	18.69
26/01/2020 12:21:37	26012020	260120	122137	99.790	12.400032	-57.153940	99.890	-0.070	-0.250	0.750	99.810	-1.500	1.100																			1580041297.0	10.43	19.32
26/01/2020 12:21:38	26012020	260120	122138	99.850	12.400020	-57.153892	99.930	0.100	-0.540	0.880	99.860	-1.800	1.200																			1580041298.0	10.72	19.85
26/01/2020 12:21:39	26012020	260120	122139	99.860	12.400008	-57.153842	99.890	0.120	-0.480	0.990	99.840	-1.900	1.400																			1580041299.0	10.58	19.59
26/01/2020 12:21:40	26012020	260120	122140	99.790	12.399998	-57.153795	99.800	0.020	-0.210	1.100	99.770	-1.700	1.500																			1580041300.0	10.16	18.82
26/01/2020 12:21:41	26012020	260120	122141	99.700	12.399988	-57.153748	99.720	-0.080	-0.130	1.170	99.680	-1.500	1.500																			1580041301.0	10.05	18.61
26/01/2020 12:21:42	26012020	260120	122142	99.640	12.399978	-57.153702	99.700	-0.070	-0.290	1.230	99.640	-1.600	1.600																			1580041302.0	10.34	19.15
26/01/2020 12:21:43	26012020	260120	122143	99.610	12.399968	-57.153652	99.640	0.010	-0.420	1.300	99.610	-1.800	1.700																			1580041303.0	10.63	19.69
26/01/2020 12:21:44	26012020	260120	122144	99.500	12.399957	-57.153603	99.500	0.050	-0.250	1.310	99.480	-1.700	1.700																			1580041304.0	10.54	19.52
26/01/2020 12:21:45	26012020	260120	122145	99.400	12.399948	-57.153557	99.410	-0.010	0.090	1.210	99.380	-1.400	1.700																			1580041305.0	10.17	18.83
26/01/2020 12:21:46	26012020	260120	122146	99.360	12.399938	-57.153510	99.480	-0.080	0.170	0.960	99.370	-1.200	1.500																			1580041306.0	10.02	18.56
26/01/2020 12:21:47	26012020	260120	122147	99.500	12.399932	-57.153462	99.650	-0.040	-0.100	0.700	99.540	-1.300	1.200																			1580041307.0	10.30	19.08
26/01/2020 12:21:48	26012020	260120	122148	99.660	12.399922	-57.153412	99.780	0.080	-0.350	0.610	99.690	-1.600	1.000																			1580041308.0	10.58	19.59
26/01/2020 12:21:49	26012020	260120	122149	99.740	12.399912	-57.153363	99.790	0.120	-0.370	0.630	99.740	-1.700	1.000																			1580041309.0	10.43	19.32
26/01/2020 12:21:50	26012020	260120	122150	99.700	12.399903	-57.153317	99.700	0.110	-0.380	0.720	99.680	-1.700	1.100																			1580041310.0	10.14	18.78
26/01/2020 12:21:51	26012020	260120	122151	99.610	12.399893	-57.153270	99.630	0.150	-0.610	0.810	99.600	-1.900	1.200																			1580041311.0	10.30	19.08
26/01/2020 12:21:52	26012020	260120	122152	99.560	12.399883	-57.153220	99.600	0.140	-0.750	0.970	99.560	-2.100	1.300																			1580041312.0	10.63	19.69
26/01/2020 12:21:53	26012020	260120	122153	99.510	12.399873	-57.153172	99.520	-0.060	-0.440	1.230	99.490	-2.000	1.500																			1580041313.0	10.52	19.48
26/01/2020 12:21:54	26012020	260120	122154	99.420	12.399862	-57.153125	99.430	-0.360	0.070	1.420	99.390	-1.500	1.800																			1580041314.0	10.02	18.56
26/01/2020 12:21:55	26012020	260120	122155	99.280	12.399852	-57.153080	99.300	-0.440	0.100	1.360	99.250	-1.200	1.800																			1580041315.0	9.95	18.43
26/01/2020 12:21:56	26012020	260120	122156	99.180	12.399840	-57.153030	99.250	-0.210	-0.300	1.070	99.170	-1.500	1.600																			1580041316.0	10.62	19.67
26/01/2020 12:21:57	26012020	260120	122157	99.190	12.399832	-57.152980	99.310	0.020	-0.380	0.680	99.200	-1.800	1.200																			1580041317.0	10.98	20.33
26/01/2020 12:21:58	26012020	260120	122158	99.280	12.399823	-57.152932	99.370	-0.010	0.110	0.430	99.300	-1.500	0.900																			1580041318.0	10.39	19.24
26/01/2020 12:21:59	26012020	260120	122159	99.330	12.399815	-57.152885	99.430	-0.120	0.440	0.330	99.340	-1.000	0.800																			1580041319.0	9.70	17.96
26/01/2020 12:22:00	26012020	260120	122200	99.440	12.399807	-57.152840	99.590	-0.030	0.110	0.280	99.470	-1.100	0.700	1016.00	26.20	26.20	17.70	17.80	359.00	59.00	60.00	376.00	26.90	348.00	12.40	79.00	7.30	26623	3240.00	27.30	27.30	1580041320.0	9.99	18.50
26/01/2020 12:22:01	26012020	260120	122201	99.620	12.399798	-57.152790	99.810	0.170	-0.390	0.330	99.670	-1.600	0.700																			1580041321.0	10.63	19.69
26/01/2020 12:22:02	26012020	260120	122202	99.820	12.399788	-57.152740	99.930	0.270	-0.520	0.560	99.850	-1.900	0.900																			1580041322.0	10.58	19.59
26/01/2020 12:22:03	26012020	260120	122203	99.850	12.399778	-57.152693	99.830	0.250	-0.470	0.940	99.820	-1.800	1.200																			1580041323.0	10.11	18.72
26/01/2020 12:22:04	26012020	260120	122204	99.670	12.399767	-57.152648	99.630	0.240	-0.560	1.070	99.630	-1.900	1.500																			1580041324.0	10.08	18.67
26/01/2020 12:22:05	26012020	260120	122205	99.490	12.399758	-57.152600	99.450	0.240	-0.680	0.950	99.450	-2.000	1.400																			1580041325.0	10.34	19.15
26/01/2020 12:22:06	26012020	260120	122206	99.310	12.399750	-57.152550	99.280	0.140	-0.590	0.850	99.280	-2.000	1.300																			1580041326.0	10.47	19.39
26/01/2020 12:22:07	26012020	260120	122207	99.190	12.399742	-57.152503	99.150	-0.120	-0.320	0.860	99.160	-1.800	1.300																			1580041327.0	10.27	19.02
26/01/2020 12:22:08	26012020	260120	122208	99.050	12.399732	-57.152455	99.100	-0.380	-0.150	0.920	99.040	-1.600	1.300																			1580041328.0	10.18	18.85
26/01/2020 12:22:09	26012020	260120	122209	99.030	12.399722	-57.152408	99.090	-0.460	-0.150	1.100	99.030	-1.500	1.400																			1580041329.0	10.43	19.32
26/01/2020 12:22:10	26012020	260120	122210	99.020	12.399710	-57.152358	99.100	-0.430	-0.160	1.210	99.020	-1.500	1.600																			1580041330.0	10.65	19.72
26/01/2020 12:22:11	26012020	260120	122211	99.080	12.399697	-57.152310	99.230	-0.370	0.030	1.130	99.100	-1.400	1.600																			1580041331.0	10.56	19.56
26/01/2020 12:22:12	26012020	260120	122212	99.230	12.399687	-57.152263	99.400	-0.280	0.310	0.910	99.270	-1.200	1.400																			1580041332.0	10.21	18.91
26/01/2020 12:22:13	26012020	260120	122213	99.440	12.399678	-57.152217	99.610	-0.070	0.390	0.540	99.490	-1.000	1.100																			1580041333.0	10.00	18.52
26/01/2020 12:22:14	26012020	260120	122214	99.680	12.399672	-57.152170	99.840	0.230	0.060	0.160	99.730	-1.100	0.700																			1580041334.0	10.18	18.85
26/01/2020 12:22:15	26012020	260120	122215	99.890	12.399663	-57.152120	99.960	0.480	-0.420	0.110	99.900	-1.600	0.500																			1580041335.0	10.50	19.45
26/01/2020 12:22:16	26012020	260120	122216	99.890	12.399655	-57.152072	99.840	0.550	-0.730	0.330	99.870	-2.000	0.600																			1580041336.0	10.53	19.50
26/01/2020 12:22:17	26012020	260120	122217	99.710	12.399647	-57.152023	99.660	0.470	-0.730	0.560	99.670	-2.100	0.900																			1580041337.0	10.32	19.11
26/01/2020 12:22:18	26012020	260120	122218	99.560	12.399638	-57.151977	99.580	0.260	-0.560	0.790	99.540	-2.000	1.100																			1580041338.0	10.09	18.69
26/01/2020 12:22:19	26012020	260120	122219	99.510	12.399628	-57.151930	99.540	0.030	-0.450	0.890	99.500	-1.800	1.300																			1580041339.0	10.06	18.63
26/01/2020 12:22:20	26012020	260120	122220	99.450	12.399618	-57.151882	99.430	-0.160	-0.470	1.010	99.430	-1.800	1.400																			1580041340.0	10.31	19.09
26/01/2020 12:22:21	26012020	260120	122221	99.330	12.399607	-57.151833	99.260	-0.310	-0.430	1.070	99.300	-1.800	1.500																			1580041341.0	10.54	19.52
26/01/2020 12:22:22	26012020	260120	122222	99.140	12.399597	-57.151785	99.150	-0.460	-0.200	1.040	99.110	-1.700	1.500																			1580041342.0	10.53	19.50
26/01/2020 12:22:23	26012020	260120	122223	99.080	12.399585	-57.151737	99.200	-0.600	0.150	0.820	99.090	-1.400	1.300																			1580041343.0	10.30	19.08
26/01/2020 12:22:24	26012020	260120	122224	99.220	12.399575	-57.151690	99.410	-0.570	0.320	0.430	99.260	-1.100	1.000																			1580041344.0	10.11	18.72
26/01/2020 12:22:25	26012020	260120	122225	99.470	12.399567	-57.151643	99.660	-0.260	0.080	0.190	99.520	-1.100	0.600																			1580041345.0	10.29	19.06
26/01/2020 12:22:26	26012020	260120	122226	99.650	12.399557	-57.151593	99.730	0.210	-0.360	0.190	99.660	-1.500	0.600																			1580041346.0	10.69	19.80
26/01/2020 12:22:27	26012020	260120	122227	99.640	12.399547	-57.151543	99.660	0.590	-0.590	0.230	99.630	-1.900	0.600																			1580041347.0	10.80	20.00
26/01/2020 12:22:28	26012020	260120	122228	99.580	12.399538	-57.151495	99.600	0.710	-0.380	0.300	99.560	-1.900	0.700																			1580041348.0	10.46	19.37
26/01/2020 12:22:29	26012020	260120	122229	99.560	12.399530	-57.151448	99.660	0.540	-0.000	0.400	99.570	-1.500	0.800																			1580041349.0	9.98	18.48
26/01/2020 12:22:30	26012020	260120	122230	99.690	12.399523	-57.151402	99.850	0.180	0.180	0.500	99.730	-1.200	0.900																			1580041350.0	9.85	18.24
26/01/2020 12:22:31	26012020	260120	122231	99.850	12.399515	-57.151355	99.910	-0.210	0.070	0.760	99.860	-1.200	1.000																			1580041351.0	10.04	18.59
26/01/2020 12:22:32	26012020	260120	122232	99.800	12.399503	-57.151308	99.780	-0.490	-0.280	1.130	99.770	-1.500	1.400																			1580041352.0	10.31	19.09
26/01/2020 12:22:33	26012020	260120	122233	99.650	12.399490	-57.151260	99.590	-0.500	-0.720	1.370	99.620	-1.900	1.700																			1580041353.0	10.55	19.54
26/01/2020 12:22:34	26012020	260120	122234	99.420	12.399478	-57.151210	99.420	-0.240	-0.980	1.380	99.390	-2.300	1.800																			1580041354.0	10.69	19.80
26/01/2020 12:22:35	26012020	260120	122235	99.270	12.399467	-57.151162	99.280	0.040	-0.860	1.140	99.250	-2.300	1.700																			1580041355.0	10.61	19.65
26/01/2020 12:22:36	26012020	260120	122236	99.160	12.399457	-57.151113	99.180	0.170	-0.450	0.810	99.150	-2.000	1.400																			1580041356.0	10.29	19.06
26/01/2020 12:22:37	26012020	260120	122237	99.120	12.399448	-57.151067	99.170	0.180	-0.090	0.490	99.120	-1.600	1.000																			1580041357.0	10.16	18.82
26/01/2020 12:22:38	26012020	260120	122238	99.160	12.399440	-57.151018	99.240	0.170	0.110	0.290	99.170	-1.300	0.800																			1580041358.0	10.29	19.06
26/01/2020 12:22:39	26012020	260120	122239	99.260	12.399432	-57.150970	99.390	0.140	0.270	0.300	99.300	-1.200	0.700																			1580041359.0	10.40	19.26
26/01/2020 12:22:40	26012020	260120	122240	99.420	12.399423	-57.150923	99.560	0.060	0.340	0.470	99.450	-1.000	0.800																			1580041360.0	10.31	19.09
26/01/2020 12:22:41	26012020	260120	122241	99.590	12.399413	-57.150875	99.750	0.000	0.170	0.650	99.630	-1.100	1.000																			1580041361.0	10.28	19.04
26/01/2020 12:22:42	26012020	260120	122242	99.780	12.399405	-57.150827	99.940	0.010	-0.150	0.760	99.820	-1.400	1.100																			1580041362.0	10.41	19.28
26/01/2020 12:22:43	26012020	260120	122243	99.950	12.399395	-57.150778	100.060	0.040	-0.440	0.920	99.970	-1.700	1.300																			1580041363.0	10.47	19.39
26/01/2020 12:22:44	26012020	260120	122244	100.030	12.399383	-57.150730	100.090	0.020	-0.510	0.930	100.030	-1.900	1.400																			1580041364.0	10.37	19.21
26/01/2020 12:22:45	26012020	260120	122245	100.000	12.399375	-57.150683	99.980	-0.100	-0.420	0.900	99.980	-1.800	1.300																			1580041365.0	10.13	18.76
26/01/2020 12:22:46	26012020	260120	122246	99.840	12.399365	-57.150637	99.840	-0.210	-0.440	0.840	99.810	-1.800	1.300																			1580041366.0	10.08	18.67
26/01/2020 12:22:47	26012020	260120	122247	99.730	12.399355	-57.150588	99.720	-0.140	-0.600	0.680	99.700	-1.900	1.200																			1580041367.0	10.30	19.08
26/01/2020 12:22:48	26012020	260120	122248	99.560	12.399345	-57.150540	99.490	0.130	-0.780	0.540	99.510	-2.100	1.000																			1580041368.0	10.56	19.56
26/01/2020 12:22:49	26012020	260120	122249	99.320	12.399335	-57.150490	99.280	0.400	-0.690	0.420	99.280	-2.100	0.900																			1580041369.0	10.70	19.82
26/01/2020 12:22:50	26012020	260120	122250	99.220	12.399325	-57.150442	99.330	0.380	-0.210	0.280	99.230	-1.800	0.700																			1580041370.0	10.51	19.46
26/01/2020 12:22:51	26012020	260120	122251	99.360	12.399317	-57.150395	99.540	0.040	0.400	0.250	99.400	-1.200	0.700																			1580041371.0	10.02	18.56
26/01/2020 12:22:52	26012020	260120	122252	99.560	12.399308	-57.150350	99.680	-0.280	0.620	0.410	99.590	-0.800	0.700																			1580041372.0	9.84	18.22
26/01/2020 12:22:53	26012020	260120	122253	99.620	12.399298	-57.150302	99.680	-0.290	0.170	0.760	99.620	-1.000	1.000																			1580041373.0	10.28	19.04
26/01/2020 12:22:54	26012020	260120	122254	99.630	12.399287	-57.150252	99.750	-0.050	-0.480	1.040	99.640	-1.600	1.400																			1580041374.0	10.93	20.24
26/01/2020 12:22:55	26012020	260120	122255	99.740	12.399275	-57.150202	99.900	0.080	-0.660	1.120	99.770	-2.000	1.500																			1580041375.0	10.96	20.30
26/01/2020 12:22:56	26012020	260120	122256	99.930	12.399263	-57.150153	100.090	-0.100	-0.240	0.960	99.970	-1.800	1.400																			1580041376.0	10.27	19.02
26/01/2020 12:22:57	26012020	260120	122257	100.050	12.399255	-57.150110	100.140	-0.360	0.170	0.820	100.070	-1.300	1.300																			1580041377.0	9.58	17.74
26/01/2020 12:22:58	26012020	260120	122258	100.050	12.399245	-57.150063	100.050	-0.310	-0.050	0.730	100.040	-1.200	1.200																			1580041378.0	9.78	18.11
26/01/2020 12:22:59	26012020	260120	122259	99.980	12.399235	-57.150015	100.010	0.050	-0.700	0.670	99.970	-1.800	1.100																			1580041379.0	10.60	19.63
26/01/2020 12:23:00	26012020	260120	122300	99.910	12.399225	-57.149963	99.910	0.380	-0.960	0.660	99.890	-2.300	1.100	1016.00	26.10	26.20	17.70	17.80	364.00	60.00	60.00	376.00	27.00	348.00	12.30	78.00	7.20	26932	3085.00	27.30	27.30	1580041380.0	10.99	20.35
26/01/2020 12:23:01	26012020	260120	122301	99.820	12.399215	-57.149915	99.850	0.440	-0.540	0.570	99.810	-2.100	1.000																			1580041381.0	10.43	19.32
26/01/2020 12:23:02	26012020	260120	122302	99.790	12.399207	-57.149870	99.840	0.320	-0.010	0.600	99.790	-1.500	1.000																			1580041382.0	9.81	18.17
26/01/2020 12:23:03	26012020	260120	122303	99.770	12.399198	-57.149823	99.840	0.220	0.090	0.750	99.760	-1.300	1.100																			1580041383.0	9.93	18.39
26/01/2020 12:23:04	26012020	260120	122304	99.790	12.399188	-57.149775	99.950	0.140	-0.070	0.730	99.820	-1.400	1.200																			1580041384.0	10.44	19.33
26/01/2020 12:23:05	26012020	260120	122305	99.930	12.399178	-57.149727	100.090	0.000	-0.060	0.810	99.970	-1.500	1.200																			1580041385.0	10.56	19.56
26/01/2020 12:23:06	26012020	260120	122306	100.060	12.399168	-57.149680	100.190	-0.180	0.050	0.960	100.080	-1.300	1.300																			1580041386.0	10.19	18.87
26/01/2020 12:23:07	26012020	260120	122307	100.140	12.399158	-57.149633	100.230	-0.280	-0.160	1.040	100.150	-1.400	1.400																			1580041387.0	10.14	18.78
26/01/2020 12:23:08	26012020	260120	122308	100.150	12.399147	-57.149583	100.200	-0.230	-0.580	1.110	100.140	-1.800	1.500																			1580041388.0	10.53	19.50
26/01/2020 12:23:09	26012020	260120	122309	100.110	12.399135	-57.149535	100.170	-0.180	-0.690	1.020	100.100	-2.100	1.500																			1580041389.0	10.70	19.82
26/01/2020 12:23:10	26012020	260120	122310	100.080	12.399125	-57.149487	100.130	-0.210	-0.380	0.920	100.080	-1.900	1.400																			1580041390.0	10.29	19.06
26/01/2020 12:23:11	26012020	260120	122311	100.050	12.399115	-57.149442	100.060	-0.260	-0.070	0.810	100.040	-1.500	1.300																			1580041391.0	9.90	18.33
26/01/2020 12:23:12	26012020	260120	122312	99.950	12.399105	-57.149395	99.950	-0.190	-0.100	0.560	99.930	-1.400	1.100																			1580041392.0	10.05	18.61
26/01/2020 12:23:13	26012020	260120	122313	99.860	12.399095	-57.149347	99.850	0.090	-0.450	0.220	99.840	-1.700	0.800																			1580041393.0	10.49	19.43
26/01/2020 12:23:14	26012020	260120	122314	99.780	12.399087	-57.149297	99.790	0.420	-0.630	-0.010	99.760	-2.000	0.500																			1580041394.0	10.84	20.08
26/01/2020 12:23:15	26012020	260120	122315	99.750	12.399078	-57.149247	99.820	0.500	-0.220	-0.030	99.760	-1.800	0.400																			1580041395.0	10.58	19.59
26/01/2020 12:23:16	26012020	260120	122316	99.840	12.399070	-57.149200	99.970	0.230	0.460	0.070	99.880	-1.200	0.400																			1580041396.0	9.86	18.26
26/01/2020 12:23:17	26012020	260120	122317	100.040	12.399060	-57.149157	100.160	-0.140	0.700	0.280	100.080	-0.700	0.600																			1580041397.0	9.58	17.74
26/01/2020 12:23:18	26012020	260120	122318	100.180	12.399050	-57.149110	100.270	-0.240	0.150	0.570	100.200	-0.900	0.900																			1580041398.0	10.02	18.56
26/01/2020 12:23:19	26012020	260120	122319	100.220	12.399038	-57.149060	100.270	0.000	-0.720	0.850	100.220	-1.800	1.200																			1580041399.0	10.81	20.02
26/01/2020 12:23:20	26012020	260120	122320	100.210	12.399027	-57.149010	100.210	0.290	-1.110	1.020	100.210	-2.400	1.400																			1580041400.0	11.02	20.41
26/01/2020 12:23:21	26012020	260120	122321	100.140	12.399017	-57.148962	100.100	0.280	-0.810	1.050	100.110	-2.400	1.500																			1580041401.0	10.45	19.35
26/01/2020 12:23:22	26012020	260120	122322	99.980	12.399007	-57.148917	99.930	-0.010	-0.250	0.980	99.950	-1.800	1.400																			1580041402.0	9.78	18.11
26/01/2020 12:23:23	26012020	260120	122323	99.840	12.398997	-57.148872	99.790	-0.210	-0.060	0.910	99.820	-1.400	1.400																			1580041403.0	9.73	18.02
26/01/2020 12:23:24	26012020	260120	122324	99.720	12.398987	-57.148823	99.740	-0.150	-0.350	0.790	99.710	-1.600	1.300																			1580041404.0	10.34	19.15
26/01/2020 12:23:25	26012020	260120	122325	99.660	12.398977	-57.148773	99.680	-0.030	-0.570	0.660	99.650	-1.900	1.100																			1580041405.0	10.86	20.11
26/01/2020 12:23:26	26012020	260120	122326	99.580	12.398967	-57.148723	99.590	-0.080	-0.270	0.690	99.560	-1.800	1.100																			1580041406.0	10.66	19.74
26/01/2020 12:23:27	26012020	260120	122327	99.510	12.398955	-57.148678	99.580	-0.310	0.290	0.820	99.510	-1.300	1.200																			1580041407.0	10.02	18.56
26/01/2020 12:23:28	26012020	260120	122328	99.530	12.398945	-57.148633	99.630	-0.420	0.420	0.820	99.540	-0.900	1.200																			1580041408.0	9.80	18.15
26/01/2020 12:23:29	26012020	260120	122329	99.600	12.398935	-57.148585	99.730	-0.250	0.030	0.760	99.620	-1.200	1.200																			1580041409.0	10.29	19.06
26/01/2020 12:23:30	26012020	260120	122330	99.700	12.398925	-57.148535	99.810	0.070	-0.370	0.740	99.710	-1.600	1.100																			1580041410.0	10.74	19.89
26/01/2020 12:23:31	26012020	260120	122331	99.730	12.398915	-57.148487	99.820	0.290	-0.410	0.750	99.740	-1.800	1.200																			1580041411.0	10.58	19.59
26/01/2020 12:23:32	26012020	260120	122332	99.750	12.398905	-57.148440	99.850	0.320	-0.270	0.770	99.750	-1.700	1.200																			1580041412.0	10.14	18.78
26/01/2020 12:23:33	26012020	260120	122333	99.790	12.398897	-57.148393	99.920	0.260	-0.200	0.840	99.810	-1.600	1.200																			1580041413.0	9.98	18.48
26/01/2020 12:23:34	26012020	260120	122334	99.880	12.398887	-57.148347	99.970	0.220	-0.290	0.870	99.880	-1.600	1.300																			1580041414.0	10.11	18.72
26/01/2020 12:23:35	26012020	260120	122335	99.880	12.398877	-57.148298	99.890	0.260	-0.460	0.950	99.870	-1.800	1.300																			1580041415.0	10.28	19.04
26/01/2020 12:23:36	26012020	260120	122336	99.770	12.398868	-57.148250	99.780	0.260	-0.570	1.180	99.750	-1.900	1.500																			1580041416.0	10.42	19.30
26/01/2020 12:23:37	26012020	260120	122337	99.660	12.398857	-57.148202	99.650	0.130	-0.540	1.450	99.620	-1.900	1.800																			1580041417.0	10.39	19.24
26/01/2020 12:23:38	26012020	260120	122338	99.480	12.398847	-57.148155	99.460	-0.100	-0.400	1.560	99.440	-1.800	1.900																			1580041418.0	10.33	19.13
26/01/2020 12:23:39	26012020	260120	122339	99.280	12.398835	-57.148107	99.260	-0.280	-0.260	1.480	99.250	-1.700	1.900																			1580041419.0	10.28	19.04
26/01/2020 12:23:40	26012020	260120	122340	99.140	12.398827	-57.148058	99.200	-0.320	-0.160	1.200	99.130	-1.600	1.700																			1580041420.0	10.37	19.21
26/01/2020 12:23:41	26012020	260120	122341	99.200	12.398817	-57.148010	99.400	-0.320	0.010	0.780	99.250	-1.500	1.300																			1580041421.0	10.42	19.30
26/01/2020 12:23:42	26012020	260120	122342	99.460	12.398808	-57.147963	99.660	-0.370	0.220	0.520	99.510	-1.200	1.000																			1580041422.0	10.24	18.96
26/01/2020 12:23:43	26012020	260120	122343	99.700	12.398798	-57.147917	99.810	-0.370	0.230	0.470	99.730	-1.100	0.900																			1580041423.0	10.10	18.71
26/01/2020 12:23:44	26012020	260120	122344	99.770	12.398787	-57.147868	99.840	-0.150	-0.090	0.510	99.770	-1.300	0.900																			1580041424.0	10.32	19.11
26/01/2020 12:23:45	26012020	260120	122345	99.800	12.398777	-57.147820	99.910	0.210	-0.370	0.420	99.820	-1.700	0.900																			1580041425.0	10.57	19.58
26/01/2020 12:23:46	26012020	260120	122346	99.930	12.398768	-57.147772	100.040	0.530	-0.450	0.260	99.960	-1.800	0.700																			1580041426.0	10.39	19.24
26/01/2020 12:23:47	26012020	260120	122347	100.020	12.398762	-57.147723	100.090	0.670	-0.500	0.200	100.030	-1.900	0.600																			1580041427.0	10.18	18.85
26/01/2020 12:23:48	26012020	260120	122348	100.050	12.398753	-57.147677	100.050	0.550	-0.490	0.300	100.040	-1.900	0.600																			1580041428.0	10.25	18.98
26/01/2020 12:23:49	26012020	260120	122349	99.970	12.398745	-57.147628	99.930	0.190	-0.400	0.590	99.940	-1.800	0.900																			1580041429.0	10.22	18.93
26/01/2020 12:23:50	26012020	260120	122350	99.820	12.398735	-57.147582	99.810	-0.240	-0.360	0.960	99.790	-1.700	1.200																			1580041430.0	10.21	18.91
26/01/2020 12:23:51	26012020	260120	122351	99.660	12.398722	-57.147533	99.610	-0.470	-0.380	1.320	99.620	-1.700	1.600																			1580041431.0	10.35	19.17
26/01/2020 12:23:52	26012020	260120	122352	99.430	12.398708	-57.147487	99.400	-0.420	-0.450	1.440	99.390	-1.800	1.800																			1580041432.0	10.53	19.50
26/01/2020 12:23:53	26012020	260120	122353	99.230	12.398697	-57.147437	99.210	-0.210	-0.460	1.310	99.190	-1.900	1.800																			1580041433.0	10.67	19.76
26/01/2020 12:23:54	26012020	260120	122354	99.080	12.398687	-57.147388	99.110	-0.100	-0.170	1.030	99.060	-1.700	1.600																			1580041434.0	10.63	19.69
26/01/2020 12:23:55	26012020	260120	122355	99.040	12.398677	-57.147340	99.170	-0.200	0.400	0.620	99.060	-1.200	1.200																			1580041435.0	10.20	18.89
26/01/2020 12:23:56	26012020	260120	122356	99.190	12.398670	-57.147295	99.370	-0.300	0.720	0.280	99.240	-0.700	0.800																			1580041436.0	9.77	18.09
26/01/2020 12:23:57	26012020	260120	122357	99.440	12.398662	-57.147248	99.620	-0.120	0.340	0.140	99.490	-0.800	0.600																			1580041437.0	10.01	18.54
26/01/2020 12:23:58	26012020	260120	122358	99.720	12.398652	-57.147198	99.920	0.240	-0.300	0.200	99.780	-1.500	0.600																			1580041438.0	10.69	19.80
26/01/2020 12:23:59	26012020	260120	122359	99.980	12.398642	-57.147150	100.120	0.470	-0.600	0.390	100.010	-1.900	0.700																			1580041439.0	10.64	19.71
26/01/2020 12:24:00	26012020	260120	122400	100.060	12.398632	-57.147103	100.030	0.550	-0.700	0.720	100.040	-2.000	1.000	1016.00	26.10	26.10	17.70	17.80	366.00	59.00	60.00	376.00	27.00	348.00	12.20	78.00	7.10	27108	3111.00	27.30	27.30	1580041440.0	10.13	18.76
26/01/2020 12:24:01	26012020	260120	122401	99.920	12.398623	-57.147055	99.780	0.540	-0.860	1.070	99.880	-2.200	1.400																			1580041441.0	10.12	18.74
26/01/2020 12:24:02	26012020	260120	122402	99.630	12.398613	-57.147008	99.580	0.320	-0.880	1.270	99.590	-2.300	1.600																			1580041442.0	10.38	19.22
26/01/2020 12:24:03	26012020	260120	122403	99.400	12.398603	-57.146960	99.340	-0.110	-0.660	1.300	99.350	-2.200	1.700																			1580041443.0	10.32	19.11
26/01/2020 12:24:04	26012020	260120	122404	99.140	12.398593	-57.146912	99.060	-0.490	-0.380	1.340	99.090	-1.900	1.700																			1580041444.0	10.22	18.93
26/01/2020 12:24:05	26012020	260120	122405	98.860	12.398582	-57.146865	98.780	-0.550	-0.230	1.400	98.800	-1.700	1.800																			1580041445.0	10.39	19.24
26/01/2020 12:24:06	26012020	260120	122406	98.660	12.398570	-57.146815	98.710	-0.400	0.020	1.200	98.650	-1.500	1.700																			1580041446.0	10.70	19.82
26/01/2020 12:24:07	26012020	260120	122407	98.720	12.398560	-57.146767	98.880	-0.340	0.490	0.840	98.760	-1.100	1.400																			1580041447.0	10.43	19.32
26/01/2020 12:24:08	26012020	260120	122408	98.980	12.398550	-57.146722	99.210	-0.370	0.790	0.450	99.060	-0.700	1.000																			1580041448.0	10.01	18.54
26/01/2020 12:24:09	26012020	260120	122409	99.430	12.398543	-57.146675	99.710	-0.290	0.580	0.140	99.530	-0.700	0.700																			1580041449.0	10.03	18.58
26/01/2020 12:24:10	26012020	260120	122410	99.930	12.398533	-57.146627	100.160	0.100	-0.050	0.050	100.020	-1.200	0.500																			1580041450.0	10.36	19.19
26/01/2020 12:24:11	26012020	260120	122411	100.270	12.398523	-57.146577	100.370	0.600	-0.590	0.170	100.300	-1.800	0.500																			1580041451.0	10.63	19.69
26/01/2020 12:24:12	26012020	260120	122412	100.330	12.398515	-57.146528	100.310	0.850	-0.740	0.310	100.320	-2.100	0.700																			1580041452.0	10.33	19.13
26/01/2020 12:24:13	26012020	260120	122413	100.230	12.398507	-57.146482	100.100	0.740	-0.780	0.510	100.190	-2.100	0.800																			1580041453.0	9.94	18.41
26/01/2020 12:24:14	26012020	260120	122414	99.950	12.398500	-57.146435	99.890	0.460	-0.900	0.740	99.910	-2.200	1.100																			1580041454.0	10.03	18.58
26/01/2020 12:24:15	26012020	260120	122415	99.790	12.398492	-57.146387	99.690	0.140	-0.970	1.000	99.750	-2.400	1.300																			1580041455.0	10.37	19.21
26/01/2020 12:24:16	26012020	260120	122416	99.490	12.398480	-57.146338	99.380	-0.220	-0.800	1.350	99.430	-2.300	1.600																			1580041456.0	10.51	19.46
26/01/2020 12:24:17	26012020	260120	122417	99.170	12.398468	-57.146292	99.150	-0.590	-0.320	1.500	99.120	-1.900	1.900																			1580041457.0	10.43	19.32
26/01/2020 12:24:18	26012020	260120	122418	99.020	12.398455	-57.146245	99.140	-0.820	0.170	1.460	99.020	-1.400	1.900																			1580041458.0	10.25	18.98
26/01/2020 12:24:19	26012020	260120	122419	99.100	12.398443	-57.146197	99.300	-0.820	0.390	1.120	99.140	-1.000	1.700																			1580041459.0	10.33	19.13
26/01/2020 12:24:20	26012020	260120	122420	99.300	12.398432	-57.146148	99.470	-0.560	0.380	0.610	99.340	-1.000	1.200																			1580041460.0	10.53	19.50
26/01/2020 12:24:21	26012020	260120	122421	99.450	12.398422	-57.146100	99.600	-0.150	0.350	0.260	99.480	-1.000	0.800																			1580041461.0	10.58	19.59
26/01/2020 12:24:22	26012020	260120	122422	99.660	12.398413	-57.146052	99.900	0.190	0.410	-0.010	99.730	-1.000	0.500																			1580041462.0	10.34	19.15
26/01/2020 12:24:23	26012020	260120	122423	100.040	12.398405	-57.146005	100.280	0.360	0.300	-0.150	100.110	-1.000	0.300																			1580041463.0	9.99	18.50
26/01/2020 12:24:24	26012020	260120	122424	100.350	12.398398	-57.145958	100.440	0.470	-0.190	-0.020	100.380	-1.300	0.300																			1580041464.0	10.01	18.54
26/01/2020 12:24:25	26012020	260120	122425	100.390	12.398388	-57.145910	100.350	0.620	-0.870	0.350	100.370	-2.000	0.600																			1580041465.0	10.32	19.11
26/01/2020 12:24:26	26012020	260120	122426	100.180	12.398380	-57.145862	100.060	0.750	-1.340	0.820	100.110	-2.600	1.100																			1580041466.0	10.55	19.54
26/01/2020 12:24:27	26012020	260120	122427	99.840	12.398370	-57.145813	99.710	0.680	-1.290	1.150	99.770	-2.800	1.500																			1580041467.0	10.46	19.37
26/01/2020 12:24:28	26012020	260120	122428	99.510	12.398360	-57.145765	99.440	0.280	-0.780	1.270	99.460	-2.400	1.700																			1580041468.0	10.15	18.80
26/01/2020 12:24:29	26012020	260120	122429	99.310	12.398350	-57.145720	99.310	-0.280	-0.170	1.300	99.280	-1.800	1.700																			1580041469.0	9.91	18.35
26/01/2020 12:24:30	26012020	260120	122430	99.230	12.398340	-57.145673	99.260	-0.720	0.200	1.300	99.220	-1.300	1.700																			1580041470.0	10.02	18.56
26/01/2020 12:24:31	26012020	260120	122431	99.170	12.398328	-57.145627	99.190	-0.850	0.220	1.250	99.150	-1.100	1.700																			1580041471.0	10.38	19.22
26/01/2020 12:24:32	26012020	260120	122432	99.110	12.398315	-57.145577	99.190	-0.670	0.070	1.040	99.110	-1.300	1.500																			1580041472.0	10.71	19.83
26/01/2020 12:24:33	26012020	260120	122433	99.220	12.398305	-57.145527	99.410	-0.350	-0.020	0.690	99.280	-1.400	1.200																			1580041473.0	10.74	19.89
26/01/2020 12:24:34	26012020	260120	122434	99.500	12.398295	-57.145478	99.660	-0.040	-0.040	0.330	99.550	-1.400	0.900																			1580041474.0	10.53	19.50
26/01/2020 12:24:35	26012020	260120	122435	99.730	12.398287	-57.145430	99.820	0.160	0.030	0.080	99.760	-1.400	0.600																			1580041475.0	10.34	19.15
26/01/2020 12:24:36	26012020	260120	122436	99.880	12.398278	-57.145383	99.960	0.220	0.180	0.140	99.900	-1.300	0.500																			1580041476.0	10.08	18.67
26/01/2020 12:24:37	26012020	260120	122437	99.970	12.398270	-57.145338	100.020	0.230	0.140	0.420	99.980	-1.200	0.700																			1580041477.0	9.86	18.26
26/01/2020 12:24:38	26012020	260120	122438	99.970	12.398260	-57.145292	99.930	0.340	-0.360	0.640	99.940	-1.500	1.000																			1580041478.0	10.05	18.61
26/01/2020 12:24:39	26012020	260120	122439	99.840	12.398250	-57.145242	99.790	0.550	-1.030	0.750	99.820	-2.200	1.100																			1580041479.0	10.62	19.67
26/01/2020 12:24:40	26012020	260120	122440	99.670	12.398242	-57.145192	99.650	0.590	-1.170	0.840	99.650	-2.600	1.200																			1580041480.0	10.81	20.02
26/01/2020 12:24:41	26012020	260120	122441	99.530	12.398232	-57.145143	99.500	0.320	-0.620	0.920	99.500	-2.300	1.300																			1580041481.0	10.25	18.98
26/01/2020 12:24:42	26012020	260120	122442	99.400	12.398222	-57.145100	99.390	-0.100	0.040	0.980	99.380	-1.600	1.400																			1580041482.0	9.66	17.89
26/01/2020 12:24:43	26012020	260120	122443	99.310	12.398212	-57.145055	99.330	-0.340	0.150	0.900	99.300	-1.200	1.400																			1580041483.0	9.80	18.15
26/01/2020 12:24:44	26012020	260120	122444	99.250	12.398202	-57.145005	99.260	-0.330	-0.190	0.710	99.230	-1.400	1.200																			1580041484.0	10.51	19.46
26/01/2020 12:24:45	26012020	260120	122445	99.190	12.398193	-57.144955	99.230	-0.230	-0.390	0.550	99.180	-1.700	1.000																			1580041485.0	10.90	20.19
26/01/2020 12:24:46	26012020	260120	122446	99.190	12.398183	-57.144905	99.280	-0.220	-0.150	0.610	99.200	-1.700	1.000																			1580041486.0	10.59	19.61
26/01/2020 12:24:47	26012020	260120	122447	99.270	12.398172	-57.144860	99.410	-0.270	0.100	0.810	99.300	-1.300	1.100																			1580041487.0	10.08	18.67
26/01/2020 12:24:48	26012020	260120	122448	99.390	12.398160	-57.144813	99.490	-0.230	0.030	0.960	99.400	-1.300	1.300																			1580041488.0	10.16	18.82
26/01/2020 12:24:49	26012020	260120	122449	99.430	12.398150	-57.144765	99.560	-0.110	-0.110	1.010	99.440	-1.500	1.400																			1580041489.0	10.45	19.35
26/01/2020 12:24:50	26012020	260120	122450	99.560	12.398140	-57.144717	99.700	-0.000	-0.080	0.970	99.590	-1.500	1.400																			1580041490.0	10.33	19.13
26/01/2020 12:24:51	26012020	260120	122451	99.660	12.398130	-57.144670	99.740	0.130	-0.090	0.890	99.670	-1.400	1.300																			1580041491.0	10.04	18.59
26/01/2020 12:24:52	26012020	260120	122452	99.640	12.398122	-57.144623	99.650	0.360	-0.420	0.800	99.620	-1.600	1.200																			1580041492.0	10.14	18.78
26/01/2020 12:24:53	26012020	260120	122453	99.510	12.398113	-57.144573	99.490	0.570	-0.760	0.720	99.490	-2.000	1.200																			1580041493.0	10.56	19.56
26/01/2020 12:24:54	26012020	260120	122454	99.380	12.398105	-57.144525	99.350	0.570	-0.730	0.690	99.350	-2.200	1.100																			1580041494.0	10.54	19.52
26/01/2020 12:24:55	26012020	260120	122455	99.240	12.398097	-57.144477	99.230	0.360	-0.460	0.740	99.210	-1.900	1.100																			1580041495.0	10.19	18.87
26/01/2020 12:24:56	26012020	260120	122456	99.110	12.398088	-57.144430	99.160	0.100	-0.200	0.810	99.100	-1.700	1.200																			1580041496.0	10.12	18.74
26/01/2020 12:24:57	26012020	260120	122457	99.060	12.398078	-57.144383	99.170	-0.230	0.090	0.920	99.070	-1.400	1.300																			1580041497.0	10.19	18.87
26/01/2020 12:24:58	26012020	260120	122458	99.140	12.398068	-57.144337	99.300	-0.520	0.270	1.010	99.160	-1.100	1.400																			1580041498.0	10.10	18.71
26/01/2020 12:24:59	26012020	260120	122459	99.260	12.398058	-57.144290	99.380	-0.600	0.110	1.140	99.270	-1.200	1.500																			1580041499.0	10.20	18.89
26/01/2020 12:25:00	26012020	260120	122500	99.280	12.398047	-57.144240	99.340	-0.440	-0.340	1.280	99.270	-1.500	1.600	1016.00	26.10	26.10	17.90	18.00	363.00	60.00	60.00	376.00	27.00	349.00	11.70	79.00	6.60	27126	3179.00	27.30	27.30	1580041500.0	10.56	19.56
26/01/2020 12:25:01	26012020	260120	122501	99.190	12.398035	-57.144192	99.210	-0.140	-0.690	1.250	99.160	-2.000	1.700																			1580041501.0	10.81	20.02
26/01/2020 12:25:02	26012020	260120	122502	99.090	12.398025	-57.144142	99.160	0.110	-0.590	0.950	99.090	-2.000	1.500																			1580041502.0	10.61	19.65
26/01/2020 12:25:03	26012020	260120	122503	99.110	12.398017	-57.144095	99.210	0.240	-0.300	0.610	99.120	-1.800	1.100																			1580041503.0	10.16	18.82
26/01/2020 12:25:04	26012020	260120	122504	99.200	12.398010	-57.144047	99.260	0.250	-0.170	0.430	99.210	-1.600	0.900																			1580041504.0	10.10	18.71
26/01/2020 12:25:05	26012020	260120	122505	99.240	12.398002	-57.143998	99.370	0.150	-0.060	0.370	99.260	-1.500	0.800																			1580041505.0	10.31	19.09
26/01/2020 12:25:06	26012020	260120	122506	99.420	12.397993	-57.143952	99.530	-0.040	0.140	0.510	99.440	-1.300	0.800																			1580041506.0	10.20	18.89
26/01/2020 12:25:07	26012020	260120	122507	99.510	12.397983	-57.143905	99.540	-0.130	0.120	0.780	99.510	-1.200	1.100																			1580041507.0	10.03	18.58
26/01/2020 12:25:08	26012020	260120	122508	99.460	12.397973	-57.143858	99.470	0.030	-0.340	0.950	99.440	-1.500	1.300																			1580041508.0	10.33	19.13
26/01/2020 12:25:09	26012020	260120	122509	99.410	12.397963	-57.143807	99.460	0.300	-0.750	1.020	99.410	-2.000	1.400																			1580041509.0	10.81	20.02
26/01/2020 12:25:10	26012020	260120	122510	99.430	12.397953	-57.143758	99.500	0.300	-0.590	0.910	99.440	-2.100	1.400																			1580041510.0	10.66	19.74
26/01/2020 12:25:11	26012020	260120	122511	99.490	12.397947	-57.143712	99.520	-0.010	-0.090	0.670	99.500	-1.700	1.200																			1580041511.0	10.00	18.52
26/01/2020 12:25:12	26012020	260120	122512	99.490	12.397938	-57.143665	99.480	-0.340	0.130	0.680	99.490	-1.300	1.100																			1580041512.0	9.74	18.04
26/01/2020 12:25:13	26012020	260120	122513	99.470	12.397928	-57.143618	99.490	-0.420	-0.110	0.860	99.480	-1.400	1.200																			1580041513.0	10.17	18.83
26/01/2020 12:25:14	26012020	260120	122514	99.470	12.397917	-57.143570	99.480	-0.260	-0.520	0.970	99.470	-1.700	1.400																			1580041514.0	10.69	19.80
26/01/2020 12:25:15	26012020	260120	122515	99.430	12.397905	-57.143520	99.450	-0.020	-0.680	0.940	99.430	-2.100	1.400																			1580041515.0	10.83	20.06
26/01/2020 12:25:16	26012020	260120	122516	99.420	12.397895	-57.143472	99.490	0.120	-0.400	0.800	99.420	-1.900	1.300																			1580041516.0	10.51	19.46
26/01/2020 12:25:17	26012020	260120	122517	99.500	12.397887	-57.143425	99.610	0.130	-0.020	0.520	99.520	-1.500	1.100																			1580041517.0	10.06	18.63
26/01/2020 12:25:18	26012020	260120	122518	99.640	12.397878	-57.143377	99.710	0.110	0.100	0.210	99.660	-1.300	0.700																			1580041518.0	10.02	18.56
26/01/2020 12:25:19	26012020	260120	122519	99.710	12.397872	-57.143330	99.720	0.110	-0.020	0.110	99.720	-1.300	0.500																			1580041519.0	10.30	19.08
26/01/2020 12:25:20	26012020	260120	122520	99.710	12.397863	-57.143280	99.730	0.050	-0.170	0.350	99.710	-1.500	0.600																			1580041520.0	10.48	19.41
26/01/2020 12:25:21	26012020	260120	122521	99.690	12.397852	-57.143232	99.700	-0.080	-0.360	0.740	99.690	-1.700	1.000																			1580041521.0	10.45	19.35
26/01/2020 12:25:22	26012020	260120	122522	99.630	12.397842	-57.143183	99.610	-0.150	-0.500	1.000	99.610	-1.800	1.300																			1580041522.0	10.49	19.43
26/01/2020 12:25:23	26012020	260120	122523	99.480	12.397830	-57.143135	99.420	-0.140	-0.400	1.140	99.430	-1.900	1.500																			1580041523.0	10.48	19.41
26/01/2020 12:25:24	26012020	260120	122524	99.310	12.397818	-57.143088	99.340	-0.150	-0.090	1.050	99.290	-1.600	1.500																			1580041524.0	10.23	18.95
26/01/2020 12:25:25	26012020	260120	122525	99.320	12.397810	-57.143042	99.460	-0.160	0.070	0.770	99.350	-1.300	1.300																			1580041525.0	10.01	18.54
26/01/2020 12:25:26	26012020	260120	122526	99.490	12.397802	-57.142995	99.610	-0.010	-0.170	0.490	99.530	-1.400	1.000																			1580041526.0	10.24	18.96
26/01/2020 12:25:27	26012020	260120	122527	99.600	12.397792	-57.142945	99.640	0.260	-0.530	0.460	99.610	-1.800	0.800																			1580041527.0	10.69	19.80
26/01/2020 12:25:28	26012020	260120	122528	99.590	12.397783	-57.142895	99.640	0.390	-0.460	0.620	99.590	-1.900	1.000																			1580041528.0	10.73	19.87
26/01/2020 12:25:29	26012020	260120	122529	99.590	12.397773	-57.142848	99.700	0.220	-0.060	0.670	99.600	-1.600	1.100																			1580041529.0	10.16	18.82
26/01/2020 12:25:30	26012020	260120	122530	99.670	12.397765	-57.142802	99.780	-0.040	0.080	0.590	99.690	-1.300	1.000																			1580041530.0	9.83	18.21
26/01/2020 12:25:31	26012020	260120	122531	99.750	12.397757	-57.142755	99.810	-0.140	-0.260	0.600	99.760	-1.500	1.000																			1580041531.0	10.23	18.95
26/01/2020 12:25:32	26012020	260120	122532	99.730	12.397747	-57.142705	99.740	-0.030	-0.660	0.740	99.710	-1.900	1.100																			1580041532.0	10.72	19.85
26/01/2020 12:25:33	26012020	260120	122533	99.600	12.397735	-57.142655	99.580	0.050	-0.710	0.910	99.560	-2.100	1.300																			1580041533.0	10.79	19.98
26/01/2020 12:25:34	26012020	260120	122534	99.470	12.397725	-57.142607	99.490	-0.110	-0.320	0.910	99.450	-1.900	1.400																			1580041534.0	10.44	19.33
26/01/2020 12:25:35	26012020	260120	122535	99.430	12.397715	-57.142560	99.500	-0.440	0.190	0.760	99.440	-1.400	1.200																			1580041535.0	9.96	18.45
26/01/2020 12:25:36	26012020	260120	122536	99.490	12.397707	-57.142515	99.590	-0.590	0.260	0.680	99.510	-1.100	1.100																			1580041536.0	9.91	18.35
26/01/2020 12:25:37	26012020	260120	122537	99.580	12.397695	-57.142467	99.620	-0.360	-0.170	0.690	99.590	-1.400	1.100																			1580041537.0	10.45	19.35
26/01/2020 12:25:38	26012020	260120	122538	99.550	12.397685	-57.142417	99.550	0.120	-0.600	0.610	99.530	-1.900	1.100																			1580041538.0	10.95	20.28
26/01/2020 12:25:39	26012020	260120	122539	99.520	12.397675	-57.142365	99.600	0.470	-0.540	0.510	99.530	-2.000	0.900																			1580041539.0	10.85	20.09
26/01/2020 12:25:40	26012020	260120	122540	99.610	12.397667	-57.142318	99.720	0.480	-0.110	0.480	99.640	-1.700	0.900																			1580041540.0	10.24	18.96
26/01/2020 12:25:41	26012020	260120	122541	99.720	12.397658	-57.142272	99.820	0.260	0.210	0.440	99.750	-1.300	0.900																			1580041541.0	9.87	18.28
26/01/2020 12:25:42	26012020	260120	122542	99.820	12.397650	-57.142225	99.930	0.070	0.130	0.490	99.840	-1.200	0.900																			1580041542.0	10.00	18.52
26/01/2020 12:25:43	26012020	260120	122543	99.930	12.397642	-57.142177	100.070	0.000	-0.240	0.650	99.960	-1.500	1.000																			1580041543.0	10.43	19.32
26/01/2020 12:25:44	26012020	260120	122544	100.080	12.397630	-57.142128	100.180	-0.060	-0.500	0.870	100.100	-1.800	1.200																			1580041544.0	10.66	19.74
26/01/2020 12:25:45	26012020	260120	122545	100.130	12.397618	-57.142080	100.190	-0.190	-0.470	1.120	100.120	-1.900	1.400																			1580041545.0	10.44	19.33
26/01/2020 12:25:46	26012020	260120	122546	100.060	12.397607	-57.142033	100.070	-0.270	-0.340	1.320	100.030	-1.800	1.700																			1580041546.0	10.15	18.80
26/01/2020 12:25:47	26012020	260120	122547	99.890	12.397597	-57.141987	99.880	-0.150	-0.380	1.380	99.860	-1.700	1.800																			1580041547.0	10.18	18.85
26/01/2020 12:25:48	26012020	260120	122548	99.710	12.397587	-57.141938	99.720	0.120	-0.590	1.180	99.680	-1.900	1.700																			1580041548.0	10.48	19.41
26/01/2020 12:25:49	26012020	260120	122549	99.590	12.397578	-57.141888	99.620	0.300	-0.670	0.870	99.560	-2.100	1.400																			1580041549.0	10.79	19.98
26/01/2020 12:25:50	26012020	260120	122550	99.540	12.397570	-57.141838	99.640	0.160	-0.250	0.690	99.540	-1.800	1.200																			1580041550.0	10.59	19.61
26/01/2020 12:25:51	26012020	260120	122551	99.610	12.397562	-57.141792	99.730	-0.210	0.340	0.670	99.640	-1.200	1.100																			1580041551.0	9.98	18.48
26/01/2020 12:25:52	26012020	260120	122552	99.720	12.397552	-57.141747	99.830	-0.370	0.340	0.790	99.750	-0.900	1.100																			1580041552.0	9.85	18.24
26/01/2020 12:25:53	26012020	260120	122553	99.800	12.397542	-57.141697	99.930	-0.090	-0.290	0.900	99.810	-1.400	1.300																			1580041553.0	10.62	19.67
26/01/2020 12:25:54	26012020	260120	122554	99.900	12.397530	-57.141645	100.020	0.220	-0.610	0.940	99.920	-2.000	1.300																			1580041554.0	11.18	20.71
26/01/2020 12:25:55	26012020	260120	122555	99.980	12.397520	-57.141597	100.130	0.170	-0.230	0.860	100.000	-1.800	1.300																			1580041555.0	10.57	19.58
26/01/2020 12:25:56	26012020	260120	122556	100.110	12.397512	-57.141552	100.250	-0.110	0.200	0.650	100.140	-1.300	1.200																			1580041556.0	9.76	18.08
26/01/2020 12:25:57	26012020	260120	122557	100.220	12.397502	-57.141505	100.290	-0.210	0.060	0.450	100.230	-1.200	0.900																			1580041557.0	9.87	18.28
26/01/2020 12:25:58	26012020	260120	122558	100.240	12.397493	-57.141457	100.310	-0.030	-0.410	0.360	100.240	-1.600	0.800																			1580041558.0	10.52	19.48
26/01/2020 12:25:59	26012020	260120	122559	100.290	12.397483	-57.141407	100.410	0.150	-0.530	0.300	100.310	-1.900	0.700																			1580041559.0	10.77	19.95
26/01/2020 12:26:00	26012020	260120	122600	100.410	12.397475	-57.141358	100.510	0.100	-0.230	0.260	100.430	-1.700	0.700	1016.10	26.00	26.10	18.20	18.30	379.00	62.00	62.00	377.00	27.00	348.00	11.30	77.00	6.20	27828	3070.00	27.30	27.30	1580041560.0	10.25	18.98
26/01/2020 12:26:01	26012020	260120	122601	100.480	12.397465	-57.141313	100.530	-0.020	-0.120	0.260	100.480	-1.500	0.700																			1580041561.0	9.85	18.24
26/01/2020 12:26:02	26012020	260120	122602	100.460	12.397455	-57.141265	100.490	0.020	-0.440	0.420	100.450	-1.700	0.800																			1580041562.0	10.25	18.98
26/01/2020 12:26:03	26012020	260120	122603	100.420	12.397445	-57.141217	100.440	0.190	-0.660	0.600	100.410	-2.000	0.900																			1580041563.0	10.75	19.91
26/01/2020 12:26:04	26012020	260120	122604	100.340	12.397433	-57.141167	100.330	0.240	-0.520	0.690	100.320	-2.000	1.100																			1580041564.0	10.59	19.61
26/01/2020 12:26:05	26012020	260120	122605	100.260	12.397425	-57.141120	100.260	0.100	-0.280	0.710	100.240	-1.700	1.100																			1580041565.0	10.27	19.02
26/01/2020 12:26:06	26012020	260120	122606	100.200	12.397415	-57.141072	100.250	-0.090	-0.200	0.710	100.200	-1.600	1.100																			1580041566.0	10.29	19.06
26/01/2020 12:26:07	26012020	260120	122607	100.210	12.397403	-57.141023	100.290	-0.240	-0.150	0.640	100.220	-1.600	1.100																			1580041567.0	10.52	19.48
26/01/2020 12:26:08	26012020	260120	122608	100.280	12.397393	-57.140975	100.380	-0.370	0.020	0.530	100.300	-1.400	1.000																			1580041568.0	10.48	19.41
26/01/2020 12:26:09	26012020	260120	122609	100.360	12.397382	-57.140928	100.440	-0.440	0.110	0.560	100.370	-1.300	0.900																			1580041569.0	10.29	19.06
26/01/2020 12:26:10	26012020	260120	122610	100.400	12.397370	-57.140880	100.510	-0.340	-0.050	0.510	100.420	-1.300	1.000																			1580041570.0	10.38	19.22
26/01/2020 12:26:11	26012020	260120	122611	100.480	12.397360	-57.140832	100.590	-0.070	-0.280	0.370	100.490	-1.600	0.800																			1580041571.0	10.59	19.61
26/01/2020 12:26:12	26012020	260120	122612	100.580	12.397348	-57.140782	100.710	0.170	-0.240	0.250	100.610	-1.700	0.700																			1580041572.0	10.58	19.59
26/01/2020 12:26:13	26012020	260120	122613	100.750	12.397340	-57.140735	100.850	0.250	-0.020	0.160	100.770	-1.500	0.600																			1580041573.0	10.16	18.82
26/01/2020 12:26:14	26012020	260120	122614	100.830	12.397332	-57.140688	100.860	0.290	-0.140	0.230	100.820	-1.400	0.600																			1580041574.0	10.02	18.56
26/01/2020 12:26:15	26012020	260120	122615	100.780	12.397322	-57.140640	100.810	0.390	-0.510	0.360	100.770	-1.800	0.700																			1580041575.0	10.49	19.43
26/01/2020 12:26:16	26012020	260120	122616	100.750	12.397312	-57.140590	100.810	0.390	-0.600	0.540	100.750	-2.000	0.900																			1580041576.0	10.70	19.82
26/01/2020 12:26:17	26012020	260120	122617	100.750	12.397300	-57.140543	100.830	0.170	-0.330	0.870	100.760	-1.800	1.100																			1580041577.0	10.32	19.11
26/01/2020 12:26:18	26012020	260120	122618	100.730	12.397288	-57.140497	100.760	-0.080	-0.140	1.220	100.720	-1.600	1.500																			1580041578.0	10.04	18.59
26/01/2020 12:26:19	26012020	260120	122619	100.590	12.397277	-57.140450	100.560	-0.170	-0.310	1.400	100.540	-1.600	1.800																			1580041579.0	10.28	19.04
26/01/2020 12:26:20	26012020	260120	122620	100.360	12.397265	-57.140400	100.370	-0.080	-0.600	1.270	100.320	-1.900	1.800																			1580041580.0	10.75	19.91
26/01/2020 12:26:21	26012020	260120	122621	100.230	12.397253	-57.140350	100.330	-0.030	-0.540	1.010	100.230	-2.000	1.500																			1580041581.0	10.85	20.09
26/01/2020 12:26:22	26012020	260120	122622	100.290	12.397245	-57.140302	100.470	-0.160	-0.070	0.740	100.320	-1.700	1.200																			1580041582.0	10.37	19.21
26/01/2020 12:26:23	26012020	260120	122623	100.440	12.397235	-57.140257	100.550	-0.330	0.200	0.560	100.450	-1.200	1.000																			1580041583.0	9.95	18.43
26/01/2020 12:26:24	26012020	260120	122624	100.460	12.397223	-57.140208	100.500	-0.300	-0.060	0.600	100.450	-1.300	1.000																			1580041584.0	10.31	19.09
26/01/2020 12:26:25	26012020	260120	122625	100.380	12.397213	-57.140158	100.410	-0.110	-0.390	0.690	100.370	-1.700	1.100																			1580041585.0	10.87	20.13
26/01/2020 12:26:26	26012020	260120	122626	100.290	12.397202	-57.140108	100.330	0.080	-0.370	0.840	100.270	-1.800	1.200																			1580041586.0	10.79	19.98
26/01/2020 12:26:27	26012020	260120	122627	100.220	12.397190	-57.140062	100.330	0.180	-0.100	0.860	100.230	-1.600	1.300																			1580041587.0	10.35	19.17
26/01/2020 12:26:28	26012020	260120	122628	100.290	12.397180	-57.140015	100.430	0.220	0.080	0.630	100.320	-1.300	1.200																			1580041588.0	10.11	18.72
26/01/2020 12:26:29	26012020	260120	122629	100.390	12.397172	-57.139967	100.530	0.240	0.020	0.350	100.420	-1.300	0.800																			1580041589.0	10.24	18.96
26/01/2020 12:26:30	26012020	260120	122630	100.470	12.397163	-57.139918	100.500	0.220	-0.140	0.330	100.460	-1.500	0.700																			1580041590.0	10.43	19.32
26/01/2020 12:26:31	26012020	260120	122631	100.420	12.397155	-57.139870	100.440	0.140	-0.280	0.550	100.410	-1.600	0.900																			1580041591.0	10.42	19.30
26/01/2020 12:26:32	26012020	260120	122632	100.380	12.397143	-57.139822	100.430	0.060	-0.480	0.820	100.380	-1.800	1.100																			1580041592.0	10.38	19.22
26/01/2020 12:26:33	26012020	260120	122633	100.360	12.397132	-57.139773	100.380	0.040	-0.710	1.100	100.340	-2.000	1.400																			1580041593.0	10.53	19.50
26/01/2020 12:26:34	26012020	260120	122634	100.220	12.397120	-57.139725	100.190	0.000	-0.690	1.270	100.180	-2.100	1.600																			1580041594.0	10.65	19.72
26/01/2020 12:26:35	26012020	260120	122635	100.010	12.397108	-57.139677	99.980	-0.150	-0.330	1.180	99.970	-1.900	1.700																			1580041595.0	10.40	19.26
26/01/2020 12:26:36	26012020	260120	122636	99.850	12.397098	-57.139630	99.880	-0.310	0.030	0.960	99.840	-1.500	1.500																			1580041596.0	10.08	18.67
26/01/2020 12:26:37	26012020	260120	122637	99.850	12.397088	-57.139583	99.930	-0.250	0.010	0.630	99.870	-1.300	1.200																			1580041597.0	10.17	18.83
26/01/2020 12:26:38	26012020	260120	122638	99.940	12.397078	-57.139533	100.000	0.020	-0.320	0.380	99.950	-1.600	0.900																			1580041598.0	10.65	19.72
26/01/2020 12:26:39	26012020	260120	122639	99.970	12.397070	-57.139483	99.980	0.300	-0.560	0.360	99.970	-1.900	0.800																			1580041599.0	10.96	20.30
26/01/2020 12:26:40	26012020	260120	122640	99.940	12.397060	-57.139433	99.940	0.280	-0.360	0.540	99.930	-1.900	0.900																			1580041600.0	10.77	19.95
26/01/2020 12:26:41	26012020	260120	122641	99.920	12.397050	-57.139385	99.990	-0.020	0.110	0.770	99.930	-1.500	1.100																			1580041601.0	10.23	18.95
26/01/2020 12:26:42	26012020	260120	122642	100.020	12.397040	-57.139340	100.190	-0.330	0.350	0.860	100.060	-1.100	1.300																			1580041602.0	9.93	18.39
26/01/2020 12:26:43	26012020	260120	122643	100.210	12.397030	-57.139292	100.420	-0.370	0.040	0.920	100.260	-1.200	1.300																			1580041603.0	10.23	18.95
26/01/2020 12:26:44	26012020	260120	122644	100.410	12.397018	-57.139243	100.460	-0.110	-0.490	1.020	100.420	-1.700	1.400																			1580041604.0	10.81	20.02
26/01/2020 12:26:45	26012020	260120	122645	100.330	12.397005	-57.139192	100.280	0.180	-0.710	1.000	100.290	-2.100	1.400																			1580041605.0	10.98	20.33
26/01/2020 12:26:46	26012020	260120	122646	100.150	12.396995	-57.139143	100.140	0.290	-0.400	0.740	100.120	-2.000	1.300																			1580041606.0	10.55	19.54
26/01/2020 12:26:47	26012020	260120	122647	100.060	12.396987	-57.139097	100.130	0.210	0.110	0.370	100.060	-1.500	0.900																			1580041607.0	9.97	18.46
26/01/2020 12:26:48	26012020	260120	122648	100.130	12.396980	-57.139050	100.250	0.060	0.310	0.010	100.150	-1.100	0.500																			1580041608.0	9.85	18.24
26/01/2020 12:26:49	26012020	260120	122649	100.270	12.396973	-57.139003	100.370	-0.030	0.030	-0.090	100.300	-1.200	0.300																			1580041609.0	10.19	18.87
26/01/2020 12:26:50	26012020	260120	122650	100.380	12.396963	-57.138953	100.420	-0.060	-0.550	0.210	100.390	-1.700	0.500																			1580041610.0	10.62	19.67
26/01/2020 12:26:51	26012020	260120	122651	100.340	12.396952	-57.138903	100.320	-0.010	-0.990	0.630	100.320	-2.300	0.900																			1580041611.0	10.90	20.19
26/01/2020 12:26:52	26012020	260120	122652	100.190	12.396938	-57.138855	100.140	0.090	-1.020	1.020	100.150	-2.400	1.300																			1580041612.0	10.79	19.98
26/01/2020 12:26:53	26012020	260120	122653	99.990	12.396925	-57.138807	99.960	0.140	-0.650	1.300	99.950	-2.200	1.600																			1580041613.0	10.51	19.46
26/01/2020 12:26:54	26012020	260120	122654	99.830	12.396915	-57.138760	99.840	-0.030	-0.110	1.170	99.810	-1.700	1.700																			1580041614.0	10.23	18.95
26/01/2020 12:26:55	26012020	260120	122655	99.740	12.396905	-57.138713	99.750	-0.280	0.250	0.900	99.720	-1.200	1.400																			1580041615.0	10.10	18.71
26/01/2020 12:26:56	26012020	260120	122656	99.670	12.396897	-57.138665	99.700	-0.380	0.230	0.770	99.660	-1.100	1.200																			1580041616.0	10.34	19.15
26/01/2020 12:26:57	26012020	260120	122657	99.660	12.396885	-57.138615	99.720	-0.240	0.020	0.660	99.660	-1.300	1.100																			1580041617.0	10.74	19.89
26/01/2020 12:26:58	26012020	260120	122658	99.690	12.396875	-57.138565	99.760	-0.040	-0.060	0.650	99.700	-1.400	1.000																			1580041618.0	10.77	19.95
26/01/2020 12:26:59	26012020	260120	122659	99.760	12.396865	-57.138517	99.860	0.110	0.060	0.700	99.780	-1.400	1.100																			1580041619.0	10.47	19.39
26/01/2020 12:27:00	26012020	260120	122700	99.900	12.396855	-57.138470	100.010	0.190	0.090	0.740	99.940	-1.300	1.100	1016.10	26.00	26.10	18.70	18.70	389.00	63.00	63.00	377.00	27.00	348.00	11.30	78.00	6.10	28250	3251.00	27.40	27.30	1580041620.0	10.15	18.80
26/01/2020 12:27:01	26012020	260120	122701	100.020	12.396847	-57.138422	100.090	0.300	-0.240	0.840	100.040	-1.500	1.200																			1580041621.0	10.23	18.95
26/01/2020 12:27:02	26012020	260120	122702	100.060	12.396837	-57.138373	100.140	0.420	-0.680	1.000	100.060	-1.900	1.400																			1580041622.0	10.65	19.72
26/01/2020 12:27:03	26012020	260120	122703	100.090	12.396827	-57.138323	100.170	0.320	-0.720	1.130	100.100	-2.200	1.500																			1580041623.0	10.68	19.78
26/01/2020 12:27:04	26012020	260120	122704	100.110	12.396817	-57.138277	100.170	-0.020	-0.410	1.210	100.110	-1.900	1.600																			1580041624.0	10.17	18.83
26/01/2020 12:27:05	26012020	260120	122705	100.040	12.396807	-57.138230	100.020	-0.290	-0.310	1.310	100.010	-1.700	1.700																			1580041625.0	9.93	18.39
26/01/2020 12:27:06	26012020	260120	122706	99.790	12.396795	-57.138182	99.670	-0.290	-0.570	1.390	99.720	-1.800	1.800																			1580041626.0	10.42	19.30
26/01/2020 12:27:07	26012020	260120	122707	99.480	12.396785	-57.138132	99.300	-0.180	-0.690	1.350	99.400	-2.100	1.800																			1580041627.0	10.91	20.21
26/01/2020 12:27:08	26012020	260120	122708	99.100	12.396773	-57.138082	99.130	-0.150	-0.400	1.030	99.080	-1.900	1.600																			1580041628.0	10.72	19.85
26/01/2020 12:27:09	26012020	260120	122709	99.090	12.396765	-57.138035	99.170	-0.160	0.040	0.540	99.110	-1.500	1.100																			1580041629.0	10.31	19.09
26/01/2020 12:27:10	26012020	260120	122710	99.210	12.396757	-57.137987	99.280	-0.060	0.270	0.240	99.240	-1.200	0.700																			1580041630.0	10.24	18.96
26/01/2020 12:27:11	26012020	260120	122711	99.340	12.396748	-57.137938	99.440	0.120	0.300	0.220	99.380	-1.100	0.600																			1580041631.0	10.46	19.37
26/01/2020 12:27:12	26012020	260120	122712	99.560	12.396740	-57.137890	99.720	0.180	0.330	0.300	99.620	-1.100	0.700																			1580041632.0	10.50	19.45
26/01/2020 12:27:13	26012020	260120	122713	99.880	12.396730	-57.137842	100.020	0.090	0.230	0.430	99.940	-1.100	0.800																			1580041633.0	10.24	18.96
26/01/2020 12:27:14	26012020	260120	122714	100.130	12.396722	-57.137795	100.210	0.090	-0.270	0.540	100.160	-1.400	0.900																			1580041634.0	10.26	19.00
26/01/2020 12:27:15	26012020	260120	122715	100.210	12.396712	-57.137745	100.220	0.290	-0.890	0.730	100.210	-2.100	1.100																			1580041635.0	10.70	19.82
26/01/2020 12:27:16	26012020	260120	122716	100.120	12.396700	-57.137695	100.060	0.430	-1.080	1.010	100.080	-2.500	1.300																			1580041636.0	10.82	20.04
26/01/2020 12:27:17	26012020	260120	122717	99.890	12.396690	-57.137647	99.830	0.210	-0.700	1.190	99.830	-2.300	1.500																			1580041637.0	10.38	19.22
26/01/2020 12:27:18	26012020	260120	122718	99.670	12.396682	-57.137600	99.650	-0.310	-0.230	1.220	99.640	-1.800	1.600																			1580041638.0	9.89	18.32
26/01/2020 12:27:19	26012020	260120	122719	99.540	12.396672	-57.137555	99.500	-0.680	-0.150	1.180	99.510	-1.500	1.600																			1580041639.0	10.02	18.56
26/01/2020 12:27:20	26012020	260120	122720	99.340	12.396660	-57.137505	99.220	-0.620	-0.370	1.110	99.280	-1.700	1.500																			1580041640.0	10.61	19.65
26/01/2020 12:27:21	26012020	260120	122721	99.110	12.396648	-57.137455	99.010	-0.290	-0.450	0.980	99.060	-1.800	1.500																			1580041641.0	10.97	20.32
26/01/2020 12:27:22	26012020	260120	122722	98.970	12.396637	-57.137405	99.040	0.020	-0.190	0.730	98.980	-1.700	1.300																			1580041642.0	10.76	19.93
26/01/2020 12:27:23	26012020	260120	122723	99.070	12.396628	-57.137357	99.170	0.180	0.160	0.430	99.100	-1.400	1.000																			1580041643.0	10.37	19.21
26/01/2020 12:27:24	26012020	260120	122724	99.250	12.396620	-57.137310	99.360	0.210	0.360	0.220	99.290	-1.100	0.700																			1580041644.0	10.25	18.98
26/01/2020 12:27:25	26012020	260120	122725	99.490	12.396612	-57.137262	99.650	0.240	0.360	0.190	99.550	-1.000	0.600																			1580041645.0	10.28	19.04
26/01/2020 12:27:26	26012020	260120	122726	99.840	12.396603	-57.137213	100.010	0.330	0.190	0.260	99.910	-1.100	0.600																			1580041646.0	10.33	19.13
26/01/2020 12:27:27	26012020	260120	122727	100.140	12.396595	-57.137165	100.230	0.370	-0.150	0.500	100.170	-1.400	0.800																			1580041647.0	10.36	19.19
26/01/2020 12:27:28	26012020	260120	122728	100.220	12.396585	-57.137117	100.190	0.300	-0.610	0.850	100.210	-1.800	1.100																			1580041648.0	10.43	19.32
26/01/2020 12:27:29	26012020	260120	122729	100.100	12.396575	-57.137068	100.020	0.160	-0.990	1.220	100.050	-2.300	1.500																			1580041649.0	10.55	19.54
26/01/2020 12:27:30	26012020	260120	122730	99.870	12.396565	-57.137020	99.800	0.000	-1.020	1.470	99.820	-2.400	1.800																			1580041650.0	10.54	19.52
26/01/2020 12:27:31	26012020	260120	122731	99.650	12.396553	-57.136972	99.610	-0.270	-0.670	1.510	99.610	-2.200	1.900																			1580041651.0	10.34	19.15
26/01/2020 12:27:32	26012020	260120	122732	99.460	12.396543	-57.136925	99.410	-0.590	-0.230	1.460	99.420	-1.800	1.900																			1580041652.0	10.09	18.69
26/01/2020 12:27:33	26012020	260120	122733	99.280	12.396532	-57.136878	99.170	-0.680	-0.090	1.290	99.240	-1.500	1.800																			1580041653.0	10.18	18.85
26/01/2020 12:27:34	26012020	260120	122734	99.030	12.396520	-57.136830	98.980	-0.410	-0.300	0.990	98.990	-1.600	1.500																			1580041654.0	10.67	19.76
26/01/2020 12:27:35	26012020	260120	122735	98.910	12.396510	-57.136778	98.970	0.030	-0.380	0.570	98.920	-1.800	1.200																			1580041655.0	11.04	20.45
26/01/2020 12:27:36	26012020	260120	122736	99.050	12.396503	-57.136728	99.230	0.300	-0.010	0.120	99.110	-1.600	0.700																			1580041656.0	10.79	19.98
26/01/2020 12:27:37	26012020	260120	122737	99.400	12.396495	-57.136680	99.580	0.320	0.470	-0.050	99.480	-1.100	0.400																			1580041657.0	10.18	18.85
26/01/2020 12:27:38	26012020	260120	122738	99.750	12.396488	-57.136633	99.880	0.240	0.580	0.090	99.810	-0.800	0.400																			1580041658.0	9.99	18.50
26/01/2020 12:27:39	26012020	260120	122739	100.000	12.396480	-57.136585	100.060	0.170	0.260	0.360	100.030	-1.000	0.700																			1580041659.0	10.27	19.02
26/01/2020 12:27:40	26012020	260120	122740	100.110	12.396470	-57.136537	100.140	0.120	-0.270	0.720	100.120	-1.400	1.000																			1580041660.0	10.52	19.48
26/01/2020 12:27:41	26012020	260120	122741	100.160	12.396460	-57.136488	100.210	0.130	-0.760	0.960	100.160	-2.000	1.300																			1580041661.0	10.60	19.63
26/01/2020 12:27:42	26012020	260120	122742	100.190	12.396448	-57.136438	100.160	0.130	-1.020	1.100	100.180	-2.400	1.400																			1580041662.0	10.59	19.61
26/01/2020 12:27:43	26012020	260120	122743	100.090	12.396437	-57.136390	99.890	0.050	-0.920	1.330	100.030	-2.400	1.600																			1580041663.0	10.44	19.33
26/01/2020 12:27:44	26012020	260120	122744	99.690	12.396427	-57.136343	99.560	-0.200	-0.450	1.360	99.620	-2.100	1.800																			1580041664.0	10.23	18.95
26/01/2020 12:27:45	26012020	260120	122745	99.420	12.396417	-57.136298	99.360	-0.440	-0.000	1.150	99.380	-1.500	1.600																			1580041665.0	9.93	18.39
26/01/2020 12:27:46	26012020	260120	122746	99.270	12.396407	-57.136252	99.230	-0.390	-0.120	0.880	99.250	-1.400	1.400																			1580041666.0	10.14	18.78
26/01/2020 12:27:47	26012020	260120	122747	99.160	12.396397	-57.136200	99.130	-0.030	-0.530	0.660	99.140	-1.800	1.200																			1580041667.0	10.91	20.21
26/01/2020 12:27:48	26012020	260120	122748	99.100	12.396387	-57.136148	99.130	0.290	-0.500	0.540	99.110	-2.000	1.000																			1580041668.0	11.14	20.63
26/01/2020 12:27:49	26012020	260120	122749	99.190	12.396378	-57.136100	99.300	0.320	0.070	0.530	99.220	-1.600	0.900																			1580041669.0	10.53	19.50
26/01/2020 12:27:50	26012020	260120	122750	99.410	12.396368	-57.136053	99.550	0.120	0.620	0.590	99.470	-0.900	1.000																			1580041670.0	9.91	18.35
26/01/2020 12:27:51	26012020	260120	122751	99.710	12.396360	-57.136008	99.870	-0.090	0.600	0.700	99.780	-0.700	1.100																			1580041671.0	9.90	18.33
26/01/2020 12:27:52	26012020	260120	122752	100.040	12.396350	-57.135960	100.180	-0.130	0.050	0.930	100.100	-1.100	1.200																			1580041672.0	10.36	19.19
26/01/2020 12:27:53	26012020	260120	122753	100.250	12.396340	-57.135910	100.290	-0.000	-0.610	1.230	100.260	-1.800	1.500																			1580041673.0	10.75	19.91
26/01/2020 12:27:54	26012020	260120	122754	100.210	12.396328	-57.135860	100.170	0.150	-0.980	1.430	100.180	-2.300	1.800																			1580041674.0	10.77	19.95
26/01/2020 12:27:55	26012020	260120	122755	100.030	12.396317	-57.135812	100.000	0.210	-0.930	1.390	99.990	-2.400	1.900																			1580041675.0	10.50	19.45
26/01/2020 12:27:56	26012020	260120	122756	99.870	12.396308	-57.135765	99.870	0.110	-0.570	1.080	99.840	-2.100	1.600																			1580041676.0	10.21	18.91
26/01/2020 12:27:57	26012020	260120	122757	99.800	12.396300	-57.135718	99.790	-0.080	-0.160	0.800	99.780	-1.700	1.300																			1580041677.0	10.01	18.54
26/01/2020 12:27:58	26012020	260120	122758	99.700	12.396292	-57.135672	99.690	-0.150	-0.090	0.720	99.690	-1.500	1.100																			1580041678.0	10.11	18.72
26/01/2020 12:27:59	26012020	260120	122759	99.620	12.396282	-57.135622	99.600	-0.020	-0.290	0.760	99.610	-1.600	1.100																			1580041679.0	10.61	19.65
26/01/2020 12:28:00	26012020	260120	122800	99.550	12.396272	-57.135572	99.550	0.110	-0.370	0.820	99.540	-1.800	1.200	1016.10	26.00	26.10	18.50	18.60	397.00	63.00	63.00	377.00	27.00	347.00	11.70	76.00	6.60	28584	3208.00	27.40	27.30	1580041680.0	10.92	20.22
26/01/2020 12:28:01	26012020	260120	122801	99.530	12.396262	-57.135522	99.580	0.010	-0.080	0.810	99.540	-1.600	1.200																			1580041681.0	10.68	19.78
26/01/2020 12:28:02	26012020	260120	122802	99.660	12.396252	-57.135475	99.790	-0.240	0.320	0.760	99.700	-1.200	1.200																			1580041682.0	10.16	18.82
26/01/2020 12:28:03	26012020	260120	122803	99.890	12.396242	-57.135428	100.020	-0.340	0.350	0.680	99.940	-1.000	1.100																			1580041683.0	10.00	18.52
26/01/2020 12:28:04	26012020	260120	122804	100.100	12.396232	-57.135380	100.140	-0.160	-0.090	0.670	100.120	-1.300	1.100																			1580041684.0	10.41	19.28
26/01/2020 12:28:05	26012020	260120	122805	100.160	12.396220	-57.135330	100.150	0.110	-0.520	0.660	100.150	-1.800	1.100																			1580041685.0	10.82	20.04
26/01/2020 12:28:06	26012020	260120	122806	100.100	12.396210	-57.135282	100.070	0.210	-0.490	0.580	100.080	-1.900	1.000																			1580041686.0	10.63	19.69
26/01/2020 12:28:07	26012020	260120	122807	100.040	12.396202	-57.135235	100.020	0.130	-0.260	0.410	100.030	-1.700	0.900																			1580041687.0	10.07	18.65
26/01/2020 12:28:08	26012020	260120	122808	100.010	12.396193	-57.135188	99.990	0.110	-0.320	0.250	100.000	-1.600	0.700																			1580041688.0	9.98	18.48
26/01/2020 12:28:09	26012020	260120	122809	99.960	12.396185	-57.135140	99.870	0.240	-0.620	0.180	99.940	-1.900	0.600																			1580041689.0	10.48	19.41
26/01/2020 12:28:10	26012020	260120	122810	99.800	12.396175	-57.135090	99.700	0.290	-0.650	0.290	99.760	-2.100	0.600																			1580041690.0	10.78	19.96
26/01/2020 12:28:11	26012020	260120	122811	99.640	12.396165	-57.135040	99.520	0.090	-0.280	0.640	99.600	-1.800	0.900																			1580041691.0	10.46	19.37
26/01/2020 12:28:12	26012020	260120	122812	99.450	12.396155	-57.134995	99.430	-0.190	0.060	0.880	99.430	-1.400	1.200																			1580041692.0	10.08	18.67
26/01/2020 12:28:13	26012020	260120	122813	99.400	12.396143	-57.134947	99.440	-0.250	-0.060	0.950	99.400	-1.400	1.400																			1580041693.0	10.24	18.96
26/01/2020 12:28:14	26012020	260120	122814	99.420	12.396132	-57.134898	99.480	-0.130	-0.360	0.920	99.420	-1.700	1.400																			1580041694.0	10.82	20.04
26/01/2020 12:28:15	26012020	260120	122815	99.490	12.396122	-57.134847	99.540	-0.070	-0.260	0.840	99.500	-1.700	1.300																			1580041695.0	10.83	20.06
26/01/2020 12:28:16	26012020	260120	122816	99.580	12.396112	-57.134800	99.640	-0.160	0.100	0.830	99.600	-1.400	1.200																			1580041696.0	10.27	19.02
26/01/2020 12:28:17	26012020	260120	122817	99.660	12.396102	-57.134753	99.720	-0.280	0.260	0.770	99.670	-1.100	1.200																			1580041697.0	10.00	18.52
26/01/2020 12:28:18	26012020	260120	122818	99.750	12.396092	-57.134707	99.830	-0.280	-0.020	0.730	99.770	-1.300	1.200																			1580041698.0	10.22	18.93
26/01/2020 12:28:19	26012020	260120	122819	99.890	12.396082	-57.134657	99.930	-0.120	-0.440	0.740	99.910	-1.700	1.100																			1580041699.0	10.58	19.59
26/01/2020 12:28:20	26012020	260120	122820	99.890	12.396072	-57.134608	99.820	0.130	-0.680	0.790	99.870	-2.000	1.200																			1580041700.0	10.67	19.76
26/01/2020 12:28:21	26012020	260120	122821	99.700	12.396062	-57.134560	99.580	0.330	-0.640	0.840	99.650	-2.100	1.200																			1580041701.0	10.48	19.41
26/01/2020 12:28:22	26012020	260120	122822	99.480	12.396053	-57.134512	99.410	0.420	-0.580	0.890	99.450	-2.000	1.300																			1580041702.0	10.32	19.11
26/01/2020 12:28:23	26012020	260120	122823	99.390	12.396043	-57.134463	99.400	0.390	-0.490	0.900	99.390	-1.900	1.300																			1580041703.0	10.47	19.39
26/01/2020 12:28:24	26012020	260120	122824	99.400	12.396035	-57.134415	99.470	0.200	-0.150	0.770	99.420	-1.700	1.300																			1580041704.0	10.46	19.37
26/01/2020 12:28:25	26012020	260120	122825	99.490	12.396027	-57.134367	99.600	-0.100	0.280	0.670	99.520	-1.300	1.100																			1580041705.0	10.16	18.82
26/01/2020 12:28:26	26012020	260120	122826	99.660	12.396018	-57.134320	99.700	-0.240	0.310	0.810	99.680	-1.000	1.200																			1580041706.0	10.05	18.61
26/01/2020 12:28:27	26012020	260120	122827	99.760	12.396007	-57.134272	99.810	-0.090	-0.180	0.890	99.770	-1.400	1.300																			1580041707.0	10.56	19.56
26/01/2020 12:28:28	26012020	260120	122828	99.890	12.395997	-57.134220	100.000	0.060	-0.490	0.860	99.930	-1.800	1.300																			1580041708.0	11.05	20.46
26/01/2020 12:28:29	26012020	260120	122829	100.090	12.395987	-57.134172	100.190	-0.090	-0.230	0.940	100.120	-1.800	1.300																			1580041709.0	10.61	19.65
26/01/2020 12:28:30	26012020	260120	122830	100.250	12.395977	-57.134125	100.290	-0.380	0.120	0.920	100.260	-1.400	1.400																			1580041710.0	9.87	18.28
26/01/2020 12:28:31	26012020	260120	122831	100.270	12.395967	-57.134080	100.250	-0.390	-0.030	0.770	100.260	-1.300	1.300																			1580041711.0	9.88	18.30
26/01/2020 12:28:32	26012020	260120	122832	100.200	12.395957	-57.134032	100.160	-0.020	-0.610	0.580	100.170	-1.800	1.100																			1580041712.0	10.50	19.45
26/01/2020 12:28:33	26012020	260120	122833	100.100	12.395948	-57.133980	100.080	0.370	-1.060	0.490	100.080	-2.300	0.900																			1580041713.0	11.02	20.41
26/01/2020 12:28:34	26012020	260120	122834	100.060	12.395938	-57.133930	100.090	0.400	-0.790	0.370	100.060	-2.400	0.800																			1580041714.0	10.82	20.04
26/01/2020 12:28:35	26012020	260120	122835	100.100	12.395930	-57.133883	100.100	0.070	-0.040	0.340	100.100	-1.700	0.700																			1580041715.0	10.02	18.56
26/01/2020 12:28:36	26012020	260120	122836	100.040	12.395922	-57.133838	99.980	-0.220	0.270	0.520	100.010	-1.200	0.800																			1580041716.0	9.69	17.95
26/01/2020 12:28:37	26012020	260120	122837	99.880	12.395910	-57.133790	99.850	-0.190	-0.070	0.660	99.850	-1.300	1.000																			1580041717.0	10.40	19.26
26/01/2020 12:28:38	26012020	260120	122838	99.780	12.395900	-57.133740	99.820	0.050	-0.440	0.720	99.780	-1.700	1.100																			1580041718.0	11.05	20.46
26/01/2020 12:28:39	26012020	260120	122839	99.870	12.395888	-57.133688	100.030	0.160	-0.270	0.650	99.920	-1.800	1.100																			1580041719.0	10.92	20.22
26/01/2020 12:28:40	26012020	260120	122840	100.150	12.395878	-57.133642	100.320	0.010	0.190	0.490	100.210	-1.400	1.000																			1580041720.0	10.19	18.87
26/01/2020 12:28:41	26012020	260120	122841	100.390	12.395870	-57.133595	100.430	-0.180	0.290	0.410	100.410	-1.100	0.800																			1580041721.0	9.89	18.32
26/01/2020 12:28:42	26012020	260120	122842	100.420	12.395860	-57.133548	100.410	-0.140	-0.070	0.430	100.400	-1.300	0.800																			1580041722.0	10.31	19.09
26/01/2020 12:28:43	26012020	260120	122843	100.390	12.395850	-57.133498	100.440	0.070	-0.420	0.430	100.400	-1.700	0.800																			1580041723.0	10.74	19.89
26/01/2020 12:28:44	26012020	260120	122844	100.460	12.395840	-57.133448	100.520	0.140	-0.400	0.380	100.480	-1.800	0.800																			1580041724.0	10.56	19.56
26/01/2020 12:28:45	26012020	260120	122845	100.540	12.395830	-57.133402	100.580	-0.010	-0.210	0.300	100.550	-1.700	0.700																			1580041725.0	10.10	18.71
26/01/2020 12:28:46	26012020	260120	122846	100.540	12.395820	-57.133357	100.520	-0.140	-0.230	0.370	100.530	-1.600	0.700																			1580041726.0	9.98	18.48
26/01/2020 12:28:47	26012020	260120	122847	100.450	12.395808	-57.133308	100.380	-0.030	-0.540	0.530	100.430	-1.800	0.900																			1580041727.0	10.35	19.17
26/01/2020 12:28:48	26012020	260120	122848	100.300	12.395798	-57.133258	100.290	0.220	-0.830	0.590	100.280	-2.100	1.000																			1580041728.0	10.73	19.87
26/01/2020 12:28:49	26012020	260120	122849	100.220	12.395788	-57.133210	100.220	0.350	-0.790	0.630	100.210	-2.200	1.000																			1580041729.0	10.72	19.85
26/01/2020 12:28:50	26012020	260120	122850	100.100	12.395778	-57.133162	100.050	0.240	-0.430	0.740	100.070	-2.000	1.100																			1580041730.0	10.44	19.33
26/01/2020 12:28:51	26012020	260120	122851	99.920	12.395768	-57.133113	99.870	-0.020	-0.090	0.930	99.890	-1.600	1.300																			1580041731.0	10.23	18.95
26/01/2020 12:28:52	26012020	260120	122852	99.770	12.395757	-57.133065	99.770	-0.210	0.060	1.060	99.750	-1.400	1.400																			1580041732.0	10.41	19.28
26/01/2020 12:28:53	26012020	260120	122853	99.720	12.395747	-57.133017	99.760	-0.290	0.140	1.040	99.720	-1.300	1.500																			1580041733.0	10.57	19.58
26/01/2020 12:28:54	26012020	260120	122854	99.770	12.395735	-57.132968	99.830	-0.240	0.150	0.920	99.780	-1.200	1.400																			1580041734.0	10.56	19.56
26/01/2020 12:28:55	26012020	260120	122855	99.850	12.395725	-57.132920	99.920	-0.110	0.120	0.730	99.870	-1.300	1.200																			1580041735.0	10.53	19.50
26/01/2020 12:28:56	26012020	260120	122856	99.960	12.395717	-57.132870	100.050	-0.030	0.080	0.550	99.990	-1.300	1.000																			1580041736.0	10.47	19.39
26/01/2020 12:28:57	26012020	260120	122857	100.120	12.395707	-57.132823	100.250	-0.070	0.080	0.400	100.170	-1.300	0.900																			1580041737.0	10.31	19.09
26/01/2020 12:28:58	26012020	260120	122858	100.350	12.395698	-57.132777	100.440	-0.100	-0.110	0.370	100.390	-1.400	0.800																			1580041738.0	10.13	18.76
26/01/2020 12:28:59	26012020	260120	122859	100.450	12.395687	-57.132728	100.440	0.070	-0.650	0.660	100.450	-1.800	0.900																			1580041739.0	10.36	19.19
26/01/2020 12:29:00	26012020	260120	122900	100.350	12.395675	-57.132678	100.290	0.350	-1.060	0.910	100.320	-2.400	1.200	1016.10	26.10	26.10	18.60	18.70	403.00	63.00	63.00	377.00	27.00	349.00	11.80	80.00	6.60	28894	3150.00	27.40	27.40	1580041740.0	10.80	20.00
26/01/2020 12:29:01	26012020	260120	122901	100.200	12.395665	-57.132630	100.120	0.470	-0.850	0.970	100.170	-2.400	1.400																			1580041741.0	10.66	19.74
26/01/2020 12:29:02	26012020	260120	122902	100.010	12.395655	-57.132583	99.980	0.310	-0.290	0.860	99.990	-1.900	1.300																			1580041742.0	10.07	18.65
26/01/2020 12:29:03	26012020	260120	122903	99.880	12.395647	-57.132537	99.850	0.060	0.040	0.740	99.860	-1.400	1.200																			1580041743.0	9.85	18.24
26/01/2020 12:29:04	26012020	260120	122904	99.780	12.395638	-57.132488	99.790	-0.040	-0.150	0.690	99.770	-1.400	1.100																			1580041744.0	10.28	19.04
26/01/2020 12:29:05	26012020	260120	122905	99.760	12.395628	-57.132438	99.750	0.010	-0.500	0.790	99.750	-1.800	1.100																			1580041745.0	10.90	20.19
26/01/2020 12:29:06	26012020	260120	122906	99.680	12.395617	-57.132388	99.640	-0.010	-0.500	1.010	99.660	-1.900	1.300																			1580041746.0	11.00	20.37
26/01/2020 12:29:07	26012020	260120	122907	99.600	12.395607	-57.132338	99.650	-0.170	-0.130	1.210	99.600	-1.700	1.500																			1580041747.0	10.56	19.56
26/01/2020 12:29:08	26012020	260120	122908	99.710	12.395597	-57.132292	99.880	-0.310	0.180	1.310	99.760	-1.300	1.700																			1580041748.0	10.20	18.89
26/01/2020 12:29:09	26012020	260120	122909	99.990	12.395585	-57.132245	100.170	-0.310	0.190	1.280	100.050	-1.200	1.700																			1580041749.0	10.33	19.13
26/01/2020 12:29:10	26012020	260120	122910	100.250	12.395573	-57.132195	100.340	-0.220	0.070	1.140	100.280	-1.300	1.600																			1580041750.0	10.55	19.54
26/01/2020 12:29:11	26012020	260120	122911	100.390	12.395563	-57.132147	100.470	-0.110	0.000	0.980	100.420	-1.400	1.400																			1580041751.0	10.51	19.46
26/01/2020 12:29:12	26012020	260120	122912	100.500	12.395555	-57.132098	100.560	-0.040	-0.080	0.780	100.530	-1.400	1.300																			1580041752.0	10.34	19.15
26/01/2020 12:29:13	26012020	260120	122913	100.560	12.395545	-57.132052	100.590	0.020	-0.280	0.460	100.570	-1.600	1.000																			1580041753.0	10.28	19.04
26/01/2020 12:29:14	26012020	260120	122914	100.550	12.395537	-57.132003	100.510	0.210	-0.600	0.250	100.530	-1.800	0.700																			1580041754.0	10.39	19.24
26/01/2020 12:29:15	26012020	260120	122915	100.460	12.395528	-57.131953	100.380	0.500	-0.910	0.280	100.430	-2.200	0.700																			1580041755.0	10.64	19.71
26/01/2020 12:29:16	26012020	260120	122916	100.350	12.395520	-57.131903	100.350	0.590	-0.850	0.410	100.340	-2.300	0.800																			1580041756.0	10.72	19.85
26/01/2020 12:29:17	26012020	260120	122917	100.340	12.395510	-57.131855	100.360	0.320	-0.360	0.630	100.340	-2.000	0.900																			1580041757.0	10.37	19.21
26/01/2020 12:29:18	26012020	260120	122918	100.320	12.395500	-57.131808	100.310	-0.130	0.190	0.860	100.310	-1.400	1.200																			1580041758.0	9.98	18.48
26/01/2020 12:29:19	26012020	260120	122919	100.270	12.395490	-57.131763	100.290	-0.430	0.290	1.000	100.260	-1.100	1.400																			1580041759.0	10.05	18.61
26/01/2020 12:29:20	26012020	260120	122920	100.270	12.395477	-57.131715	100.360	-0.470	-0.020	1.080	100.280	-1.300	1.500																			1580041760.0	10.59	19.61
26/01/2020 12:29:21	26012020	260120	122921	100.380	12.395465	-57.131663	100.500	-0.330	-0.330	0.870	100.420	-1.600	1.400																			1580041761.0	10.90	20.19
26/01/2020 12:29:22	26012020	260120	122922	100.510	12.395455	-57.131615	100.550	-0.150	-0.390	0.620	100.530	-1.800	1.100																			1580041762.0	10.74	19.89
26/01/2020 12:29:23	26012020	260120	122923	100.520	12.395445	-57.131567	100.510	0.030	-0.400	0.580	100.520	-1.800	1.000																			1580041763.0	10.48	19.41
26/01/2020 12:29:24	26012020	260120	122924	100.490	12.395435	-57.131517	100.480	0.190	-0.390	0.530	100.490	-1.800	1.000																			1580041764.0	10.49	19.43
26/01/2020 12:29:25	26012020	260120	122925	100.480	12.395427	-57.131468	100.480	0.250	-0.250	0.400	100.470	-1.700	0.900																			1580041765.0	10.50	19.45
26/01/2020 12:29:26	26012020	260120	122926	100.510	12.395418	-57.131420	100.550	0.140	-0.010	0.390	100.530	-1.500	0.800																			1580041766.0	10.33	19.13
26/01/2020 12:29:27	26012020	260120	122927	100.580	12.395408	-57.131373	100.590	-0.080	0.020	0.690	100.580	-1.300	0.900																			1580041767.0	10.20	18.89
26/01/2020 12:29:28	26012020	260120	122928	100.560	12.395397	-57.131325	100.560	-0.200	-0.270	1.040	100.550	-1.500	1.300																			1580041768.0	10.49	19.43
26/01/2020 12:29:29	26012020	260120	122929	100.510	12.395383	-57.131275	100.510	-0.160	-0.530	1.160	100.500	-1.800	1.500																			1580041769.0	10.81	20.02
26/01/2020 12:29:30	26012020	260120	122930	100.400	12.395372	-57.131227	100.320	-0.010	-0.520	1.210	100.360	-1.900	1.600																			1580041770.0	10.73	19.87
26/01/2020 12:29:31	26012020	260120	122931	100.180	12.395360	-57.131178	100.100	0.080	-0.300	1.120	100.140	-1.800	1.600																			1580041771.0	10.51	19.46
26/01/2020 12:29:32	26012020	260120	122932	100.010	12.395350	-57.131130	100.020	0.030	0.040	0.790	100.010	-1.500	1.300																			1580041772.0	10.31	19.09
26/01/2020 12:29:33	26012020	260120	122933	100.050	12.395342	-57.131083	100.120	-0.120	0.300	0.430	100.090	-1.200	1.000																			1580041773.0	10.14	18.78
26/01/2020 12:29:34	26012020	260120	122934	100.220	12.395333	-57.131035	100.300	-0.140	0.220	0.250	100.260	-1.100	0.700																			1580041774.0	10.14	18.78
26/01/2020 12:29:35	26012020	260120	122935	100.390	12.395325	-57.130987	100.490	0.090	-0.280	0.230	100.430	-1.400	0.600																			1580041775.0	10.49	19.43
26/01/2020 12:29:36	26012020	260120	122936	100.570	12.395315	-57.130937	100.640	0.410	-0.820	0.420	100.600	-2.000	0.700																			1580041776.0	10.92	20.22
26/01/2020 12:29:37	26012020	260120	122937	100.670	12.395303	-57.130887	100.680	0.510	-0.940	0.790	100.680	-2.400	1.100																			1580041777.0	10.92	20.22
26/01/2020 12:29:38	26012020	260120	122938	100.620	12.395292	-57.130838	100.560	0.260	-0.470	1.020	100.590	-2.100	1.400																			1580041778.0	10.43	19.32
26/01/2020 12:29:39	26012020	260120	122939	100.490	12.395282	-57.130792	100.460	-0.120	0.010	1.070	100.470	-1.500	1.500																			1580041779.0	9.87	18.28
26/01/2020 12:29:40	26012020	260120	122940	100.410	12.395272	-57.130745	100.400	-0.330	-0.080	1.020	100.400	-1.400	1.500																			1580041780.0	10.08	18.67
26/01/2020 12:29:41	26012020	260120	122941	100.340	12.395262	-57.130695	100.300	-0.320	-0.490	0.950	100.320	-1.700	1.400																			1580041781.0	10.81	20.02
26/01/2020 12:29:42	26012020	260120	122942	100.210	12.395250	-57.130645	100.130	-0.270	-0.600	0.970	100.170	-2.000	1.400																			1580041782.0	11.09	20.54
26/01/2020 12:29:43	26012020	260120	122943	100.000	12.395238	-57.130595	99.920	-0.360	-0.190	1.080	99.950	-1.800	1.400																			1580041783.0	10.72	19.85
26/01/2020 12:29:44	26012020	260120	122944	99.870	12.395227	-57.130548	99.950	-0.480	0.260	0.980	99.880	-1.300	1.500																			1580041784.0	10.16	18.82
26/01/2020 12:29:45	26012020	260120	122945	100.030	12.395215	-57.130502	100.180	-0.360	0.270	0.620	100.090	-1.100	1.200																			1580041785.0	10.21	18.91
26/01/2020 12:29:46	26012020	260120	122946	100.260	12.395205	-57.130453	100.340	-0.020	0.090	0.430	100.290	-1.200	0.900																			1580041786.0	10.61	19.65
26/01/2020 12:29:47	26012020	260120	122947	100.370	12.395195	-57.130403	100.380	0.360	-0.050	0.360	100.370	-1.400	0.800																			1580041787.0	10.61	19.65
26/01/2020 12:29:48	26012020	260120	122948	100.400	12.395185	-57.130355	100.420	0.650	-0.230	0.350	100.410	-1.500	0.800																			1580041788.0	10.46	19.37
26/01/2020 12:29:49	26012020	260120	122949	100.440	12.395177	-57.130307	100.470	0.780	-0.430	0.410	100.450	-1.700	0.800																			1580041789.0	10.47	19.39
26/01/2020 12:29:50	26012020	260120	122950	100.480	12.395170	-57.130258	100.470	0.690	-0.550	0.480	100.480	-1.900	0.900																			1580041790.0	10.47	19.39
26/01/2020 12:29:51	26012020	260120	122951	100.460	12.395162	-57.130208	100.390	0.380	-0.450	0.670	100.440	-1.900	1.000																			1580041791.0	10.38	19.22
26/01/2020 12:29:52	26012020	260120	122952	100.360	12.395152	-57.130162	100.320	-0.090	-0.240	1.050	100.340	-1.700	1.300																			1580041792.0	10.17	18.83
26/01/2020 12:29:53	26012020	260120	122953	100.290	12.395140	-57.130115	100.300	-0.550	-0.220	1.370	100.280	-1.600	1.700																			1580041793.0	10.11	18.72
26/01/2020 12:29:54	26012020	260120	122954	100.230	12.395127	-57.130068	100.220	-0.790	-0.500	1.510	100.220	-1.800	1.900																			1580041794.0	10.47	19.39
26/01/2020 12:29:55	26012020	260120	122955	100.110	12.395113	-57.130018	100.030	-0.690	-0.870	1.470	100.070	-2.100	1.900																			1580041795.0	10.87	20.13
26/01/2020 12:29:56	26012020	260120	122956	99.850	12.395100	-57.129968	99.710	-0.330	-0.980	1.350	99.780	-2.400	1.800																			1580041796.0	11.07	20.50
26/01/2020 12:29:57	26012020	260120	122957	99.530	12.395088	-57.129918	99.400	-0.030	-0.530	1.150	99.470	-2.100	1.700																			1580041797.0	10.88	20.15
26/01/2020 12:29:58	26012020	260120	122958	99.310	12.395078	-57.129870	99.300	0.050	0.160	0.740	99.290	-1.500	1.300																			1580041798.0	10.34	19.15
26/01/2020 12:29:59	26012020	260120	122959	99.340	12.395072	-57.129822	99.460	0.020	0.610	0.260	99.380	-0.900	0.800																			1580041799.0	10.14	18.78
26/01/2020 12:30:00	26012020	260120	123000	99.600	12.395063	-57.129773	99.760	0.020	0.620	-0.020	99.660	-0.700	0.500	1016.20	26.10	26.10	18.40	18.50	402.00	62.00	62.00	377.00	27.10	346.00	11.60	74.00	6.50	28902	3145.00	27.40	27.40	1580041800.0	10.35	19.17
26/01/2020 12:30:01	26012020	260120	123001	99.890	12.395055	-57.129725	100.010	0.100	0.390	0.060	99.940	-0.900	0.400																			1580041801.0	10.61	19.65
26/01/2020 12:30:02	26012020	260120	123002	100.080	12.395045	-57.129675	100.170	0.250	0.080	0.400	100.110	-1.200	0.700																			1580041802.0	10.62	19.67
26/01/2020 12:30:03	26012020	260120	123003	100.200	12.395035	-57.129627	100.300	0.420	-0.260	0.700	100.220	-1.500	1.000																			1580041803.0	10.48	19.41
26/01/2020 12:30:04	26012020	260120	123004	100.300	12.395025	-57.129578	100.300	0.540	-0.620	0.920	100.300	-1.900	1.300																			1580041804.0	10.44	19.33
26/01/2020 12:30:05	26012020	260120	123005	100.280	12.395015	-57.129530	100.270	0.470	-0.790	0.980	100.270	-2.100	1.400																			1580041805.0	10.48	19.41
26/01/2020 12:30:06	26012020	260120	123006	100.220	12.395007	-57.129482	100.190	0.190	-0.720	0.940	100.210	-2.100	1.400																			1580041806.0	10.29	19.06
26/01/2020 12:30:07	26012020	260120	123007	100.110	12.394997	-57.129435	100.040	-0.150	-0.620	0.970	100.090	-2.000	1.400																			1580041807.0	10.20	18.89
26/01/2020 12:30:08	26012020	260120	123008	99.950	12.394987	-57.129387	99.880	-0.390	-0.530	1.120	99.920	-1.900	1.500																			1580041808.0	10.32	19.11
26/01/2020 12:30:09	26012020	260120	123009	99.770	12.394975	-57.129338	99.650	-0.490	-0.490	1.290	99.720	-1.900	1.600																			1580041809.0	10.51	19.46
26/01/2020 12:30:10	26012020	260120	123010	99.490	12.394962	-57.129290	99.330	-0.430	-0.510	1.360	99.420	-1.900	1.800																			1580041810.0	10.71	19.83
26/01/2020 12:30:11	26012020	260120	123011	99.180	12.394948	-57.129240	99.070	-0.250	-0.460	1.330	99.130	-1.900	1.800																			1580041811.0	10.89	20.17
26/01/2020 12:30:12	26012020	260120	123012	99.000	12.394938	-57.129190	99.000	-0.070	-0.210	1.080	98.990	-1.700	1.600																			1580041812.0	10.84	20.08
26/01/2020 12:30:13	26012020	260120	123013	99.050	12.394930	-57.129142	99.150	0.000	0.220	0.710	99.080	-1.300	1.300																			1580041813.0	10.59	19.61
26/01/2020 12:30:14	26012020	260120	123014	99.280	12.394922	-57.129093	99.410	-0.020	0.560	0.450	99.330	-0.900	0.900																			1580041814.0	10.30	19.08
26/01/2020 12:30:15	26012020	260120	123015	99.480	12.394913	-57.129045	99.630	-0.050	0.490	0.450	99.530	-0.800	0.800																			1580041815.0	10.35	19.17
26/01/2020 12:30:16	26012020	260120	123016	99.720	12.394903	-57.128995	99.840	0.020	0.160	0.520	99.760	-1.100	0.900																			1580041816.0	10.59	19.61
26/01/2020 12:30:17	26012020	260120	123017	99.950	12.394893	-57.128947	100.090	0.200	-0.140	0.510	100.000	-1.400	0.900																			1580041817.0	10.62	19.67
26/01/2020 12:30:18	26012020	260120	123018	100.210	12.394885	-57.128898	100.290	0.400	-0.320	0.590	100.250	-1.700	1.000																			1580041818.0	10.42	19.30
26/01/2020 12:30:19	26012020	260120	123019	100.310	12.394875	-57.128850	100.240	0.440	-0.500	0.750	100.310	-1.800	1.100																			1580041819.0	10.27	19.02
26/01/2020 12:30:20	26012020	260120	123020	100.170	12.394867	-57.128802	100.020	0.330	-0.760	0.900	100.120	-2.000	1.300																			1580041820.0	10.32	19.11
26/01/2020 12:30:21	26012020	260120	123021	99.920	12.394857	-57.128753	99.800	0.190	-0.970	1.030	99.880	-2.300	1.400																			1580041821.0	10.53	19.50
26/01/2020 12:30:22	26012020	260120	123022	99.690	12.394847	-57.128705	99.540	0.070	-0.930	1.090	99.630	-2.400	1.500																			1580041822.0	10.61	19.65
26/01/2020 12:30:23	26012020	260120	123023	99.380	12.394837	-57.128655	99.230	-0.080	-0.620	1.130	99.320	-2.200	1.500																			1580041823.0	10.53	19.50
26/01/2020 12:30:24	26012020	260120	123024	99.130	12.394827	-57.128607	99.060	-0.310	-0.160	1.040	99.100	-1.700	1.500																			1580041824.0	10.42	19.30
26/01/2020 12:30:25	26012020	260120	123025	99.010	12.394815	-57.128560	98.990	-0.520	0.130	0.860	99.000	-1.300	1.300																			1580041825.0	10.36	19.19
26/01/2020 12:30:26	26012020	260120	123026	98.990	12.394805	-57.128510	99.050	-0.570	0.140	0.680	99.010	-1.200	1.200																			1580041826.0	10.61	19.65
26/01/2020 12:30:27	26012020	260120	123027	99.090	12.394795	-57.128460	99.280	-0.440	0.050	0.490	99.140	-1.300	1.000																			1580041827.0	10.85	20.09
26/01/2020 12:30:28	26012020	260120	123028	99.400	12.394783	-57.128410	99.530	-0.210	0.050	0.320	99.450	-1.400	0.800																			1580041828.0	10.78	19.96
26/01/2020 12:30:29	26012020	260120	123029	99.620	12.394773	-57.128362	99.670	0.030	0.200	0.250	99.640	-1.300	0.700																			1580041829.0	10.50	19.45
26/01/2020 12:30:30	26012020	260120	123030	99.710	12.394763	-57.128315	99.750	0.210	0.200	0.320	99.720	-1.100	0.700																			1580041830.0	10.23	18.95
26/01/2020 12:30:31	26012020	260120	123031	99.770	12.394755	-57.128267	99.830	0.390	-0.240	0.440	99.780	-1.400	0.800																			1580041831.0	10.36	19.19
26/01/2020 12:30:32	26012020	260120	123032	99.840	12.394747	-57.128217	99.860	0.560	-0.830	0.670	99.850	-2.000	1.000																			1580041832.0	10.82	20.04
26/01/2020 12:30:33	26012020	260120	123033	99.820	12.394737	-57.128165	99.750	0.540	-0.870	0.950	99.790	-2.300	1.300																			1580041833.0	10.87	20.13
26/01/2020 12:30:34	26012020	260120	123034	99.670	12.394727	-57.128118	99.600	0.300	-0.460	1.170	99.630	-2.000	1.500																			1580041834.0	10.29	19.06
26/01/2020 12:30:35	26012020	260120	123035	99.530	12.394717	-57.128072	99.530	-0.020	-0.090	1.200	99.510	-1.600	1.600																			1580041835.0	10.00	18.52
26/01/2020 12:30:36	26012020	260120	123036	99.530	12.394708	-57.128025	99.600	-0.330	0.030	1.020	99.550	-1.400	1.500																			1580041836.0	10.17	18.83
26/01/2020 12:30:37	26012020	260120	123037	99.600	12.394698	-57.127975	99.620	-0.480	-0.120	0.900	99.600	-1.400	1.300																			1580041837.0	10.46	19.37
26/01/2020 12:30:38	26012020	260120	123038	99.580	12.394688	-57.127927	99.530	-0.380	-0.400	0.870	99.550	-1.700	1.300																			1580041838.0	10.70	19.82
26/01/2020 12:30:39	26012020	260120	123039	99.430	12.394677	-57.127877	99.360	-0.040	-0.740	0.930	99.400	-2.000	1.300																			1580041839.0	10.90	20.19
26/01/2020 12:30:40	26012020	260120	123040	99.260	12.394667	-57.127825	99.220	0.220	-0.770	1.050	99.230	-2.200	1.400																			1580041840.0	11.05	20.46
26/01/2020 12:30:41	26012020	260120	123041	99.180	12.394657	-57.127775	99.240	0.140	-0.290	1.020	99.180	-1.900	1.500																			1580041841.0	10.70	19.82
26/01/2020 12:30:42	26012020	260120	123042	99.280	12.394647	-57.127728	99.410	-0.190	0.320	0.940	99.320	-1.300	1.400																			1580041842.0	10.13	18.76
26/01/2020 12:30:43	26012020	260120	123043	99.480	12.394638	-57.127682	99.620	-0.400	0.500	0.920	99.510	-0.900	1.300																			1580041843.0	10.05	18.61
26/01/2020 12:30:44	26012020	260120	123044	99.700	12.394627	-57.127633	99.820	-0.280	0.220	0.860	99.740	-1.000	1.300																			1580041844.0	10.48	19.41
26/01/2020 12:30:45	26012020	260120	123045	99.860	12.394617	-57.127583	99.910	0.040	-0.190	0.780	99.870	-1.400	1.200																			1580041845.0	10.81	20.02
26/01/2020 12:30:46	26012020	260120	123046	99.920	12.394607	-57.127533	99.980	0.320	-0.470	0.690	99.930	-1.800	1.100																			1580041846.0	10.79	19.98
26/01/2020 12:30:47	26012020	260120	123047	100.000	12.394598	-57.127483	100.050	0.420	-0.520	0.610	100.020	-1.900	1.000																			1580041847.0	10.59	19.61
26/01/2020 12:30:48	26012020	260120	123048	100.050	12.394590	-57.127437	100.020	0.330	-0.370	0.480	100.050	-1.800	1.000																			1580041848.0	10.33	19.13
26/01/2020 12:30:49	26012020	260120	123049	100.030	12.394582	-57.127388	100.010	0.190	-0.240	0.330	100.030	-1.700	0.800																			1580041849.0	10.18	18.85
26/01/2020 12:30:50	26012020	260120	123050	100.060	12.394575	-57.127340	100.070	0.070	-0.240	0.440	100.080	-1.600	0.800																			1580041850.0	10.31	19.09
26/01/2020 12:30:51	26012020	260120	123051	100.080	12.394565	-57.127292	100.010	-0.060	-0.360	0.770	100.060	-1.700	1.100																			1580041851.0	10.45	19.35
26/01/2020 12:30:52	26012020	260120	123052	99.930	12.394553	-57.127243	99.800	-0.180	-0.610	0.990	99.880	-1.900	1.300																			1580041852.0	10.64	19.71
26/01/2020 12:30:53	26012020	260120	123053	99.730	12.394542	-57.127193	99.570	-0.170	-0.810	1.110	99.690	-2.100	1.500																			1580041853.0	10.87	20.13
26/01/2020 12:30:54	26012020	260120	123054	99.460	12.394530	-57.127143	99.400	-0.040	-0.730	1.080	99.430	-2.200	1.500																			1580041854.0	10.92	20.22
26/01/2020 12:30:55	26012020	260120	123055	99.340	12.394520	-57.127093	99.360	0.000	-0.270	0.830	99.340	-1.900	1.300																			1580041855.0	10.71	19.83
26/01/2020 12:30:56	26012020	260120	123056	99.380	12.394512	-57.127045	99.460	-0.170	0.300	0.630	99.400	-1.300	1.100																			1580041856.0	10.34	19.15
26/01/2020 12:30:57	26012020	260120	123057	99.540	12.394502	-57.126998	99.680	-0.420	0.610	0.610	99.580	-0.900	1.000																			1580041857.0	10.21	18.91
26/01/2020 12:30:58	26012020	260120	123058	99.790	12.394490	-57.126950	99.960	-0.540	0.520	0.610	99.840	-0.800	1.000																			1580041858.0	10.38	19.22
26/01/2020 12:30:59	26012020	260120	123059	100.040	12.394478	-57.126902	100.150	-0.380	0.130	0.640	100.080	-1.100	1.000																			1580041859.0	10.63	19.69
26/01/2020 12:31:00	26012020	260120	123100	100.180	12.394467	-57.126852	100.240	0.030	-0.310	0.700	100.200	-1.500	1.100	1016.20	26.10	26.10	18.40	18.40	388.00	62.00	62.00	376.00	27.10	349.00	11.60	80.00	6.40	28553	3086.00	27.40	27.40	1580041860.0	10.74	19.89
26/01/2020 12:31:01	26012020	260120	123101	100.250	12.394457	-57.126802	100.270	0.510	-0.590	0.600	100.260	-1.900	1.100																			1580041861.0	10.68	19.78
26/01/2020 12:31:02	26012020	260120	123102	100.270	12.394448	-57.126753	100.260	0.760	-0.590	0.370	100.270	-2.000	0.900																			1580041862.0	10.48	19.41
26/01/2020 12:31:03	26012020	260120	123103	100.260	12.394442	-57.126705	100.200	0.690	-0.510	0.110	100.250	-1.900	0.600																			1580041863.0	10.23	18.95
26/01/2020 12:31:04	26012020	260120	123104	100.170	12.394435	-57.126657	100.060	0.480	-0.580	0.120	100.150	-1.900	0.500																			1580041864.0	10.27	19.02
26/01/2020 12:31:05	26012020	260120	123105	100.010	12.394427	-57.126608	99.880	0.270	-0.700	0.440	99.980	-2.100	0.700																			1580041865.0	10.58	19.59
26/01/2020 12:31:06	26012020	260120	123106	99.830	12.394417	-57.126558	99.730	-0.030	-0.630	0.840	99.800	-2.100	1.100																			1580041866.0	10.77	19.95
26/01/2020 12:31:07	26012020	260120	123107	99.700	12.394403	-57.126510	99.660	-0.440	-0.320	1.170	99.690	-1.800	1.500																			1580041867.0	10.64	19.71
26/01/2020 12:31:08	26012020	260120	123108	99.620	12.394390	-57.126462	99.590	-0.800	-0.050	1.330	99.610	-1.500	1.700																			1580041868.0	10.48	19.41
26/01/2020 12:31:09	26012020	260120	123109	99.550	12.394377	-57.126413	99.520	-0.820	-0.020	1.300	99.540	-1.400	1.700																			1580041869.0	10.61	19.65
26/01/2020 12:31:10	26012020	260120	123110	99.490	12.394363	-57.126363	99.510	-0.470	-0.140	1.070	99.490	-1.500	1.600																			1580041870.0	10.90	20.19
26/01/2020 12:31:11	26012020	260120	123111	99.540	12.394353	-57.126313	99.660	-0.090	-0.020	0.640	99.580	-1.500	1.200																			1580041871.0	10.97	20.32
26/01/2020 12:31:12	26012020	260120	123112	99.780	12.394343	-57.126265	99.970	0.000	0.400	0.200	99.850	-1.200	0.800																			1580041872.0	10.48	19.41
26/01/2020 12:31:13	26012020	260120	123113	100.120	12.394337	-57.126218	100.300	-0.050	0.600	-0.050	100.190	-0.800	0.400																			1580041873.0	9.96	18.45
26/01/2020 12:31:14	26012020	260120	123114	100.380	12.394328	-57.126172	100.470	0.100	0.180	0.050	100.420	-1.000	0.400																			1580041874.0	10.12	18.74
26/01/2020 12:31:15	26012020	260120	123115	100.490	12.394318	-57.126122	100.510	0.490	-0.560	0.250	100.500	-1.700	0.600																			1580041875.0	10.73	19.87
26/01/2020 12:31:16	26012020	260120	123116	100.490	12.394308	-57.126070	100.410	0.800	-0.970	0.440	100.470	-2.300	0.800																			1580041876.0	10.94	20.26
26/01/2020 12:31:17	26012020	260120	123117	100.390	12.394298	-57.126022	100.250	0.750	-0.910	0.690	100.360	-2.400	1.000																			1580041877.0	10.54	19.52
26/01/2020 12:31:18	26012020	260120	123118	100.180	12.394288	-57.125973	100.070	0.410	-0.680	0.920	100.150	-2.200	1.300																			1580041878.0	10.19	18.87
26/01/2020 12:31:19	26012020	260120	123119	99.960	12.394278	-57.125927	99.800	0.020	-0.510	1.130	99.900	-2.000	1.500																			1580041879.0	10.25	18.98
26/01/2020 12:31:20	26012020	260120	123120	99.670	12.394267	-57.125878	99.570	-0.260	-0.410	1.280	99.640	-1.800	1.700																			1580041880.0	10.55	19.54
26/01/2020 12:31:21	26012020	260120	123121	99.510	12.394255	-57.125830	99.500	-0.420	-0.220	1.270	99.500	-1.700	1.700																			1580041881.0	10.66	19.74
26/01/2020 12:31:22	26012020	260120	123122	99.490	12.394243	-57.125780	99.550	-0.490	0.020	1.040	99.500	-1.500	1.600																			1580041882.0	10.60	19.63
26/01/2020 12:31:23	26012020	260120	123123	99.620	12.394233	-57.125732	99.760	-0.480	0.190	0.670	99.670	-1.300	1.200																			1580041883.0	10.54	19.52
26/01/2020 12:31:24	26012020	260120	123124	99.830	12.394222	-57.125683	99.930	-0.400	0.180	0.490	99.870	-1.200	0.900																			1580041884.0	10.53	19.50
26/01/2020 12:31:25	26012020	260120	123125	99.950	12.394212	-57.125635	100.020	-0.210	0.000	0.460	99.970	-1.300	0.900																			1580041885.0	10.63	19.69
26/01/2020 12:31:26	26012020	260120	123126	100.050	12.394202	-57.125585	100.110	0.060	-0.230	0.440	100.060	-1.500	0.900																			1580041886.0	10.69	19.80
26/01/2020 12:31:27	26012020	260120	123127	100.140	12.394192	-57.125535	100.150	0.310	-0.360	0.510	100.150	-1.700	0.900																			1580041887.0	10.65	19.72
26/01/2020 12:31:28	26012020	260120	123128	100.150	12.394182	-57.125487	100.120	0.420	-0.330	0.590	100.140	-1.800	1.000																			1580041888.0	10.52	19.48
26/01/2020 12:31:29	26012020	260120	123129	100.100	12.394172	-57.125438	100.060	0.330	-0.220	0.670	100.090	-1.600	1.100																			1580041889.0	10.35	19.17
26/01/2020 12:31:30	26012020	260120	123130	100.070	12.394163	-57.125392	100.040	0.160	-0.230	0.760	100.070	-1.600	1.100																			1580041890.0	10.27	19.02
26/01/2020 12:31:31	26012020	260120	123131	100.040	12.394152	-57.125343	99.940	0.080	-0.430	0.860	100.020	-1.700	1.200																			1580041891.0	10.48	19.41
26/01/2020 12:31:32	26012020	260120	123132	99.860	12.394142	-57.125293	99.740	0.080	-0.490	1.000	99.810	-1.900	1.400																			1580041892.0	10.72	19.85
26/01/2020 12:31:33	26012020	260120	123133	99.640	12.394130	-57.125245	99.540	0.050	-0.280	0.990	99.600	-1.800	1.400																			1580041893.0	10.52	19.48
26/01/2020 12:31:34	26012020	260120	123134	99.470	12.394120	-57.125197	99.390	0.030	-0.200	0.800	99.440	-1.600	1.300																			1580041894.0	10.30	19.08
26/01/2020 12:31:35	26012020	260120	123135	99.370	12.394110	-57.125148	99.350	0.040	-0.280	0.590	99.370	-1.600	1.100																			1580041895.0	10.57	19.58
26/01/2020 12:31:36	26012020	260120	123136	99.370	12.394102	-57.125098	99.390	-0.020	-0.220	0.500	99.380	-1.700	0.900																			1580041896.0	10.68	19.78
26/01/2020 12:31:37	26012020	260120	123137	99.420	12.394092	-57.125050	99.440	-0.160	-0.040	0.580	99.430	-1.500	0.900																			1580041897.0	10.42	19.30
26/01/2020 12:31:38	26012020	260120	123138	99.450	12.394080	-57.125003	99.480	-0.220	-0.050	0.820	99.460	-1.400	1.100																			1580041898.0	10.32	19.11
26/01/2020 12:31:39	26012020	260120	123139	99.450	12.394068	-57.124953	99.450	-0.100	-0.360	1.010	99.440	-1.600	1.400																			1580041899.0	10.59	19.61
26/01/2020 12:31:40	26012020	260120	123140	99.390	12.394057	-57.124903	99.390	0.080	-0.620	1.110	99.380	-1.900	1.500																			1580041900.0	10.93	20.24
26/01/2020 12:31:41	26012020	260120	123141	99.350	12.394047	-57.124853	99.380	0.140	-0.500	1.110	99.360	-2.000	1.500																			1580041901.0	10.80	20.00
26/01/2020 12:31:42	26012020	260120	123142	99.360	12.394037	-57.124805	99.300	0.020	-0.140	1.150	99.340	-1.700	1.500																			1580041902.0	10.35	19.17
26/01/2020 12:31:43	26012020	260120	123143	99.230	12.394027	-57.124758	99.060	-0.120	0.000	1.110	99.190	-1.400	1.600																			1580041903.0	10.19	18.87
26/01/2020 12:31:44	26012020	260120	123144	98.970	12.394018	-57.124710	98.920	-0.120	-0.270	0.920	98.930	-1.500	1.400																			1580041904.0	10.56	19.56
26/01/2020 12:31:45	26012020	260120	123145	98.880	12.394008	-57.124658	98.950	-0.020	-0.450	0.710	98.880	-1.800	1.200																			1580041905.0	11.00	20.37
26/01/2020 12:31:46	26012020	260120	123146	99.020	12.394000	-57.124608	99.180	-0.050	-0.090	0.500	99.060	-1.700	1.000																			1580041906.0	10.74	19.89
26/01/2020 12:31:47	26012020	260120	123147	99.300	12.393990	-57.124562	99.440	-0.160	0.370	0.390	99.350	-1.200	0.800																			1580041907.0	10.02	18.56
26/01/2020 12:31:48	26012020	260120	123148	99.480	12.393980	-57.124515	99.530	-0.050	0.330	0.460	99.500	-1.000	0.800																			1580041908.0	9.97	18.46
26/01/2020 12:31:49	26012020	260120	123149	99.510	12.393970	-57.124467	99.540	0.260	-0.180	0.490	99.510	-1.300	0.900																			1580041909.0	10.54	19.52
26/01/2020 12:31:50	26012020	260120	123150	99.580	12.393960	-57.124417	99.660	0.500	-0.590	0.490	99.600	-1.900	0.900																			1580041910.0	10.92	20.22
26/01/2020 12:31:51	26012020	260120	123151	99.720	12.393952	-57.124367	99.760	0.470	-0.630	0.610	99.740	-2.000	1.000																			1580041911.0	10.63	19.69
26/01/2020 12:31:52	26012020	260120	123152	99.750	12.393943	-57.124318	99.650	0.280	-0.510	0.830	99.720	-1.900	1.100																			1580041912.0	10.25	18.98
26/01/2020 12:31:53	26012020	260120	123153	99.530	12.393933	-57.124272	99.370	0.080	-0.580	1.200	99.470	-1.900	1.500																			1580041913.0	10.28	19.04
26/01/2020 12:31:54	26012020	260120	123154	99.190	12.393922	-57.124222	99.050	-0.100	-0.750	1.580	99.120	-2.100	1.900																			1580041914.0	10.72	19.85
26/01/2020 12:31:55	26012020	260120	123155	98.930	12.393910	-57.124172	98.880	-0.320	-0.600	1.610	98.890	-2.100	2.100																			1580041915.0	10.88	20.15
26/01/2020 12:31:56	26012020	260120	123156	98.820	12.393898	-57.124123	98.830	-0.540	-0.170	1.410	98.810	-1.700	1.900																			1580041916.0	10.55	19.54
26/01/2020 12:31:57	26012020	260120	123157	98.810	12.393888	-57.124075	98.860	-0.610	0.120	1.200	98.810	-1.300	1.700																			1580041917.0	10.37	19.21
26/01/2020 12:31:58	26012020	260120	123158	98.840	12.393877	-57.124027	98.900	-0.480	0.190	0.990	98.860	-1.200	1.500																			1580041918.0	10.57	19.58
26/01/2020 12:31:59	26012020	260120	123159	98.920	12.393865	-57.123978	99.000	-0.240	0.210	0.660	98.940	-1.200	1.200																			1580041919.0	10.69	19.80
26/01/2020 12:32:00	26012020	260120	123200	99.070	12.393857	-57.123928	99.180	0.040	0.160	0.310	99.110	-1.200	0.900	1016.20	26.10	26.10	18.40	18.50	385.00	62.00	62.00	376.00	27.10	350.00	11.60	81.00	6.40	28559	3121.00	27.40	27.30	1580041920.0	10.56	19.56
26/01/2020 12:32:01	26012020	260120	123201	99.260	12.393848	-57.123880	99.330	0.320	-0.010	0.110	99.290	-1.300	0.600																			1580041921.0	10.51	19.46
26/01/2020 12:32:02	26012020	260120	123202	99.390	12.393842	-57.123830	99.430	0.480	-0.140	0.150	99.400	-1.500	0.500																			1580041922.0	10.57	19.58
26/01/2020 12:32:03	26012020	260120	123203	99.470	12.393833	-57.123782	99.530	0.490	-0.200	0.380	99.490	-1.600	0.700																			1580041923.0	10.39	19.24
26/01/2020 12:32:04	26012020	260120	123204	99.580	12.393825	-57.123733	99.660	0.450	-0.370	0.610	99.600	-1.700	0.900																			1580041924.0	10.25	18.98
26/01/2020 12:32:05	26012020	260120	123205	99.640	12.393815	-57.123685	99.610	0.390	-0.640	0.900	99.620	-1.900	1.200																			1580041925.0	10.48	19.41
26/01/2020 12:32:06	26012020	260120	123206	99.540	12.393805	-57.123637	99.480	0.210	-0.720	1.060	99.500	-2.100	1.400																			1580041926.0	10.64	19.71
26/01/2020 12:32:07	26012020	260120	123207	99.420	12.393795	-57.123588	99.350	-0.090	-0.560	1.120	99.390	-2.000	1.500																			1580041927.0	10.46	19.37
26/01/2020 12:32:08	26012020	260120	123208	99.260	12.393785	-57.123540	99.210	-0.370	-0.370	1.130	99.230	-1.800	1.500																			1580041928.0	10.32	19.11
26/01/2020 12:32:09	26012020	260120	123209	99.130	12.393775	-57.123492	99.070	-0.480	-0.380	1.010	99.100	-1.700	1.500																			1580041929.0	10.46	19.37
26/01/2020 12:32:10	26012020	260120	123210	98.980	12.393763	-57.123442	98.930	-0.480	-0.450	0.940	98.950	-1.800	1.400																			1580041930.0	10.82	20.04
26/01/2020 12:32:11	26012020	260120	123211	98.860	12.393752	-57.123392	98.860	-0.470	-0.330	0.870	98.840	-1.800	1.300																			1580041931.0	10.85	20.09
26/01/2020 12:32:12	26012020	260120	123212	98.840	12.393742	-57.123343	98.920	-0.370	-0.120	0.790	98.860	-1.600	1.200																			1580041932.0	10.63	19.69
26/01/2020 12:32:13	26012020	260120	123213	98.920	12.393730	-57.123293	98.990	-0.080	-0.030	0.660	98.930	-1.400	1.100																			1580041933.0	10.60	19.63
26/01/2020 12:32:14	26012020	260120	123214	98.990	12.393720	-57.123243	99.040	0.250	0.020	0.500	99.000	-1.400	1.000																			1580041934.0	10.74	19.89
26/01/2020 12:32:15	26012020	260120	123215	99.050	12.393712	-57.123195	99.140	0.380	0.190	0.350	99.070	-1.300	0.800																			1580041935.0	10.66	19.74
26/01/2020 12:32:16	26012020	260120	123216	99.230	12.393703	-57.123147	99.420	0.290	0.380	0.250	99.290	-1.100	0.700																			1580041936.0	10.32	19.11
26/01/2020 12:32:17	26012020	260120	123217	99.580	12.393697	-57.123098	99.790	0.170	0.310	0.160	99.660	-1.000	0.600																			1580041937.0	10.18	18.85
26/01/2020 12:32:18	26012020	260120	123218	99.910	12.393688	-57.123050	100.010	0.130	-0.040	0.230	99.950	-1.300	0.600																			1580041938.0	10.39	19.24
26/01/2020 12:32:19	26012020	260120	123219	100.040	12.393678	-57.123002	100.080	0.080	-0.410	0.490	100.050	-1.700	0.800																			1580041939.0	10.56	19.56
26/01/2020 12:32:20	26012020	260120	123220	100.070	12.393668	-57.122953	100.120	0.010	-0.650	0.830	100.080	-2.000	1.100																			1580041940.0	10.47	19.39
26/01/2020 12:32:21	26012020	260120	123221	100.070	12.393657	-57.122905	100.020	-0.000	-0.860	1.090	100.050	-2.200	1.400																			1580041941.0	10.39	19.24
26/01/2020 12:32:22	26012020	260120	123222	99.880	12.393645	-57.122857	99.780	0.080	-1.090	1.140	99.830	-2.400	1.600																			1580041942.0	10.57	19.58
26/01/2020 12:32:23	26012020	260120	123223	99.630	12.393635	-57.122807	99.540	0.120	-1.120	1.070	99.590	-2.500	1.500																			1580041943.0	10.81	20.02
26/01/2020 12:32:24	26012020	260120	123224	99.380	12.393625	-57.122757	99.280	0.040	-0.760	1.020	99.340	-2.300	1.500																			1580041944.0	10.76	19.93
26/01/2020 12:32:25	26012020	260120	123225	99.110	12.393615	-57.122708	98.990	-0.120	-0.140	0.910	99.060	-1.800	1.400																			1580041945.0	10.47	19.39
26/01/2020 12:32:26	26012020	260120	123226	98.870	12.393605	-57.122660	98.820	-0.250	0.250	0.780	98.830	-1.200	1.200																			1580041946.0	10.36	19.19
26/01/2020 12:32:27	26012020	260120	123227	98.750	12.393595	-57.122610	98.810	-0.300	0.210	0.620	98.760	-1.100	1.100																			1580041947.0	10.73	19.87
26/01/2020 12:32:28	26012020	260120	123228	98.870	12.393585	-57.122558	99.040	-0.310	0.190	0.450	98.920	-1.200	0.900																			1580041948.0	11.06	20.48
26/01/2020 12:32:29	26012020	260120	123229	99.130	12.393575	-57.122508	99.300	-0.380	0.520	0.360	99.190	-1.000	0.800																			1580041949.0	10.74	19.89
26/01/2020 12:32:30	26012020	260120	123230	99.420	12.393565	-57.122462	99.590	-0.440	0.760	0.330	99.480	-0.700	0.700																			1580041950.0	10.12	18.74
26/01/2020 12:32:31	26012020	260120	123231	99.700	12.393553	-57.122415	99.870	-0.270	0.390	0.380	99.760	-0.800	0.800																			1580041951.0	10.10	18.71
26/01/2020 12:32:32	26012020	260120	123232	99.920	12.393543	-57.122367	100.020	0.190	-0.440	0.540	99.950	-1.500	0.900																			1580041952.0	10.67	19.76
26/01/2020 12:32:33	26012020	260120	123233	100.000	12.393533	-57.122315	100.030	0.630	-1.020	0.640	100.010	-2.300	1.000																			1580041953.0	11.02	20.41
26/01/2020 12:32:34	26012020	260120	123234	100.000	12.393523	-57.122267	99.990	0.700	-0.910	0.700	99.990	-2.400	1.100																			1580041954.0	10.62	19.67
26/01/2020 12:32:35	26012020	260120	123235	99.970	12.393515	-57.122220	99.900	0.480	-0.590	0.820	99.960	-2.100	1.200																			1580041955.0	9.95	18.43
26/01/2020 12:32:36	26012020	260120	123236	99.770	12.393507	-57.122173	99.590	0.290	-0.660	0.900	99.710	-2.000	1.300																			1580041956.0	10.06	18.63
26/01/2020 12:32:37	26012020	260120	123237	99.390	12.393497	-57.122123	99.180	0.230	-0.860	1.000	99.310	-2.200	1.400																			1580041957.0	10.75	19.91
26/01/2020 12:32:38	26012020	260120	123238	99.060	12.393487	-57.122072	98.990	0.100	-0.650	1.050	99.030	-2.200	1.400																			1580041958.0	10.96	20.30
26/01/2020 12:32:39	26012020	260120	123239	98.970	12.393477	-57.122023	98.970	-0.190	-0.180	1.030	98.970	-1.700	1.500																			1580041959.0	10.56	19.56
26/01/2020 12:32:40	26012020	260120	123240	98.930	12.393467	-57.121975	98.870	-0.480	0.070	1.050	98.910	-1.400	1.400																			1580041960.0	10.44	19.33
26/01/2020 12:32:41	26012020	260120	123241	98.790	12.393455	-57.121925	98.770	-0.580	0.120	1.080	98.770	-1.300	1.500																			1580041961.0	10.77	19.95
26/01/2020 12:32:42	26012020	260120	123242	98.770	12.393443	-57.121875	98.880	-0.540	0.210	0.990	98.800	-1.200	1.400																			1580041962.0	10.89	20.17
26/01/2020 12:32:43	26012020	260120	123243	98.990	12.393432	-57.121827	99.190	-0.470	0.360	0.710	99.060	-1.100	1.300																			1580041963.0	10.66	19.74
26/01/2020 12:32:44	26012020	260120	123244	99.350	12.393423	-57.121778	99.590	-0.400	0.380	0.390	99.430	-1.000	0.900																			1580041964.0	10.41	19.28
26/01/2020 12:32:45	26012020	260120	123245	99.650	12.393413	-57.121730	99.880	-0.250	0.150	0.320	99.710	-1.100	0.700																			1580041965.0	10.41	19.28
26/01/2020 12:32:46	26012020	260120	123246	99.940	12.393402	-57.121682	100.050	0.090	-0.260	0.390	99.970	-1.500	0.800																			1580041966.0	10.53	19.50
26/01/2020 12:32:47	26012020	260120	123247	100.050	12.393392	-57.121632	100.070	0.560	-0.640	0.370	100.060	-1.900	0.800																			1580041967.0	10.64	19.71
26/01/2020 12:32:48	26012020	260120	123248	100.040	12.393383	-57.121583	100.030	0.910	-0.800	0.310	100.030	-2.200	0.800																			1580041968.0	10.63	19.69
26/01/2020 12:32:49	26012020	260120	123249	100.010	12.393375	-57.121533	100.000	0.880	-0.700	0.270	100.010	-2.100	0.700																			1580041969.0	10.48	19.41
26/01/2020 12:32:50	26012020	260120	123250	99.970	12.393368	-57.121485	99.880	0.460	-0.400	0.420	99.940	-1.900	0.700																			1580041970.0	10.24	18.96
26/01/2020 12:32:51	26012020	260120	123251	99.770	12.393360	-57.121438	99.640	0.010	-0.290	0.750	99.720	-1.700	1.000																			1580041971.0	10.14	18.78
26/01/2020 12:32:52	26012020	260120	123252	99.490	12.393348	-57.121390	99.380	-0.150	-0.560	1.060	99.430	-1.800	1.400																			1580041972.0	10.59	19.61
26/01/2020 12:32:53	26012020	260120	123253	99.210	12.393335	-57.121338	99.120	-0.130	-0.780	1.290	99.160	-2.100	1.600																			1580041973.0	11.19	20.72
26/01/2020 12:32:54	26012020	260120	123254	99.000	12.393322	-57.121288	99.040	-0.260	-0.430	1.220	98.990	-2.000	1.700																			1580041974.0	11.12	20.59
26/01/2020 12:32:55	26012020	260120	123255	99.010	12.393312	-57.121240	99.160	-0.610	0.350	0.990	99.050	-1.400	1.500																			1580041975.0	10.41	19.28
26/01/2020 12:32:56	26012020	260120	123256	99.210	12.393300	-57.121195	99.370	-0.870	0.840	0.810	99.250	-0.700	1.300																			1580041976.0	9.90	18.33
26/01/2020 12:32:57	26012020	260120	123257	99.390	12.393288	-57.121147	99.520	-0.680	0.490	0.650	99.430	-0.700	1.100																			1580041977.0	10.24	18.96
26/01/2020 12:32:58	26012020	260120	123258	99.520	12.393278	-57.121097	99.600	-0.050	-0.350	0.470	99.530	-1.400	1.000																			1580041978.0	11.07	20.50
26/01/2020 12:32:59	26012020	260120	123259	99.590	12.393268	-57.121043	99.690	0.560	-0.750	0.350	99.600	-2.100	0.800																			1580041979.0	11.37	21.06
26/01/2020 12:33:00	26012020	260120	123300	99.720	12.393260	-57.120993	99.820	0.670	-0.330	0.410	99.750	-1.900	0.800	1016.20	26.10	26.10	18.30	18.30	398.00	62.00	62.00	376.00	27.10	349.00	11.50	79.00	6.30	29140	3175.00	27.30	27.30	1580041980.0	10.63	19.69
26/01/2020 12:33:01	26012020	260120	123301	99.830	12.393252	-57.120948	99.860	0.340	0.170	0.630	99.840	-1.300	0.900																			1580041981.0	9.68	17.93
26/01/2020 12:33:02	26012020	260120	123302	99.810	12.393243	-57.120903	99.750	0.080	-0.070	0.950	99.780	-1.300	1.200																			1580041982.0	9.79	18.13
26/01/2020 12:33:03	26012020	260120	123303	99.600	12.393232	-57.120853	99.500	0.150	-0.780	1.280	99.550	-1.900	1.600																			1580041983.0	10.76	19.93
26/01/2020 12:33:04	26012020	260120	123304	99.360	12.393220	-57.120802	99.300	0.290	-1.070	1.510	99.310	-2.400	1.900																			1580041984.0	11.24	20.82
26/01/2020 12:33:05	26012020	260120	123305	99.160	12.393208	-57.120752	99.130	0.220	-0.700	1.490	99.140	-2.300	2.000																			1580041985.0	10.76	19.93
26/01/2020 12:33:06	26012020	260120	123306	99.080	12.393198	-57.120705	99.070	-0.070	-0.050	1.180	99.060	-1.700	1.700																			1580041986.0	10.16	18.82
26/01/2020 12:33:07	26012020	260120	123307	99.010	12.393190	-57.120658	99.010	-0.320	0.350	0.860	99.000	-1.100	1.400																			1580041987.0	9.99	18.50
26/01/2020 12:33:08	26012020	260120	123308	98.980	12.393182	-57.120610	99.040	-0.330	0.220	0.670	98.980	-1.000	1.100																			1580041988.0	10.33	19.13
26/01/2020 12:33:09	26012020	260120	123309	99.080	12.393172	-57.120560	99.190	-0.120	-0.210	0.560	99.110	-1.400	1.000																			1580041989.0	10.87	20.13
26/01/2020 12:33:10	26012020	260120	123310	99.230	12.393162	-57.120510	99.300	0.030	-0.320	0.570	99.250	-1.700	1.000																			1580041990.0	10.99	20.35
26/01/2020 12:33:11	26012020	260120	123311	99.290	12.393152	-57.120462	99.310	-0.040	-0.060	0.750	99.300	-1.500	1.100																			1580041991.0	10.43	19.32
26/01/2020 12:33:12	26012020	260120	123312	99.260	12.393142	-57.120415	99.220	-0.130	-0.030	1.050	99.230	-1.400	1.400																			1580041992.0	10.06	18.63
26/01/2020 12:33:13	26012020	260120	123313	99.150	12.393132	-57.120367	99.130	-0.020	-0.420	1.130	99.140	-1.600	1.600																			1580041993.0	10.44	19.33
26/01/2020 12:33:14	26012020	260120	123314	99.100	12.393123	-57.120315	99.110	0.220	-0.770	0.950	99.100	-2.000	1.400																			1580041994.0	10.90	20.19
26/01/2020 12:33:15	26012020	260120	123315	99.090	12.393113	-57.120265	99.090	0.370	-0.690	0.850	99.090	-2.100	1.300																			1580041995.0	10.82	20.04
26/01/2020 12:33:16	26012020	260120	123316	99.040	12.393105	-57.120217	98.980	0.280	-0.190	0.920	99.010	-1.800	1.300																			1580041996.0	10.38	19.22
26/01/2020 12:33:17	26012020	260120	123317	98.870	12.393095	-57.120170	98.790	0.060	0.220	1.010	98.820	-1.300	1.400																			1580041997.0	10.00	18.52
26/01/2020 12:33:18	26012020	260120	123318	98.720	12.393087	-57.120123	98.740	-0.060	0.120	0.930	98.710	-1.200	1.400																			1580041998.0	10.21	18.91
26/01/2020 12:33:19	26012020	260120	123319	98.790	12.393078	-57.120073	98.890	-0.010	-0.270	0.860	98.820	-1.500	1.300																			1580041999.0	10.76	19.93
26/01/2020 12:33:20	26012020	260120	123320	98.920	12.393070	-57.120022	98.960	0.010	-0.410	0.970	98.930	-1.800	1.300																			1580042000.0	10.94	20.26
26/01/2020 12:33:21	26012020	260120	123321	98.930	12.393058	-57.119973	98.930	-0.110	-0.210	1.100	98.920	-1.700	1.500																			1580042001.0	10.57	19.58
26/01/2020 12:33:22	26012020	260120	123322	98.880	12.393048	-57.119927	98.910	-0.310	0.030	1.220	98.880	-1.400	1.600																			1580042002.0	10.19	18.87
26/01/2020 12:33:23	26012020	260120	123323	98.910	12.393040	-57.119878	99.040	-0.350	-0.040	1.180	98.930	-1.300	1.600																			1580042003.0	10.17	18.83
26/01/2020 12:33:24	26012020	260120	123324	99.090	12.393030	-57.119830	99.160	-0.140	-0.390	1.030	99.120	-1.600	1.500																			1580042004.0	10.51	19.46
26/01/2020 12:33:25	26012020	260120	123325	99.150	12.393022	-57.119780	99.100	0.220	-0.740	0.940	99.140	-2.000	1.400																			1580042005.0	10.84	20.08
26/01/2020 12:33:26	26012020	260120	123326	99.030	12.393012	-57.119728	98.970	0.430	-0.750	0.890	99.010	-2.200	1.300																			1580042006.0	10.86	20.11
26/01/2020 12:33:27	26012020	260120	123327	98.930	12.393005	-57.119680	98.920	0.320	-0.350	0.900	98.920	-1.900	1.300																			1580042007.0	10.50	19.45
26/01/2020 12:33:28	26012020	260120	123328	98.930	12.392997	-57.119633	98.970	0.060	0.070	0.850	98.940	-1.400	1.300																			1580042008.0	10.09	18.69
26/01/2020 12:33:29	26012020	260120	123329	98.980	12.392990	-57.119585	99.020	-0.050	0.010	0.770	98.990	-1.300	1.200																			1580042009.0	10.24	18.96
26/01/2020 12:33:30	26012020	260120	123330	99.030	12.392982	-57.119535	99.130	0.020	-0.310	0.760	99.060	-1.600	1.200																			1580042010.0	10.84	20.08
26/01/2020 12:33:31	26012020	260120	123331	99.160	12.392972	-57.119483	99.280	-0.020	-0.290	0.900	99.190	-1.700	1.300																			1580042011.0	10.99	20.35
26/01/2020 12:33:32	26012020	260120	123332	99.320	12.392960	-57.119435	99.470	-0.230	0.110	0.970	99.360	-1.400	1.400																			1580042012.0	10.46	19.37
26/01/2020 12:33:33	26012020	260120	123333	99.550	12.392950	-57.119388	99.710	-0.390	0.290	0.870	99.590	-1.100	1.300																			1580042013.0	10.04	18.59
26/01/2020 12:33:34	26012020	260120	123334	99.770	12.392942	-57.119342	99.890	-0.350	0.110	0.710	99.810	-1.200	1.200																			1580042014.0	10.30	19.08
26/01/2020 12:33:35	26012020	260120	123335	99.920	12.392932	-57.119292	100.010	-0.180	-0.170	0.420	99.950	-1.400	1.000																			1580042015.0	10.58	19.59
26/01/2020 12:33:36	26012020	260120	123336	100.030	12.392923	-57.119242	100.070	0.070	-0.440	0.150	100.050	-1.700	0.700																			1580042016.0	10.55	19.54
26/01/2020 12:33:37	26012020	260120	123337	100.080	12.392917	-57.119193	100.080	0.320	-0.760	0.060	100.080	-2.000	0.500																			1580042017.0	10.56	19.56
26/01/2020 12:33:38	26012020	260120	123338	100.050	12.392908	-57.119143	99.980	0.450	-0.980	0.190	100.040	-2.300	0.500																			1580042018.0	10.75	19.91
26/01/2020 12:33:39	26012020	260120	123339	99.930	12.392898	-57.119093	99.830	0.360	-0.820	0.510	99.890	-2.300	0.800																			1580042019.0	10.73	19.87
26/01/2020 12:33:40	26012020	260120	123340	99.720	12.392888	-57.119045	99.620	0.060	-0.260	0.800	99.670	-1.900	1.100																			1580042020.0	10.40	19.26
26/01/2020 12:33:41	26012020	260120	123341	99.530	12.392878	-57.118998	99.530	-0.250	0.160	0.950	99.510	-1.300	1.300																			1580042021.0	10.12	18.74
26/01/2020 12:33:42	26012020	260120	123342	99.520	12.392868	-57.118950	99.610	-0.400	0.110	0.910	99.540	-1.200	1.400																			1580042022.0	10.45	19.35
26/01/2020 12:33:43	26012020	260120	123343	99.660	12.392857	-57.118900	99.780	-0.380	-0.040	0.700	99.700	-1.400	1.200																			1580042023.0	10.92	20.22
26/01/2020 12:33:44	26012020	260120	123344	99.850	12.392847	-57.118850	99.950	-0.300	0.080	0.480	99.890	-1.400	1.000																			1580042024.0	10.82	20.04
26/01/2020 12:33:45	26012020	260120	123345	100.010	12.392837	-57.118802	100.080	-0.190	0.320	0.400	100.040	-1.100	0.800																			1580042025.0	10.38	19.22
26/01/2020 12:33:46	26012020	260120	123346	100.150	12.392828	-57.118755	100.240	-0.040	0.220	0.300	100.180	-1.100	0.800																			1580042026.0	10.19	18.87
26/01/2020 12:33:47	26012020	260120	123347	100.340	12.392818	-57.118705	100.450	0.180	-0.270	0.170	100.380	-1.400	0.600																			1580042027.0	10.54	19.52
26/01/2020 12:33:48	26012020	260120	123348	100.540	12.392810	-57.118655	100.610	0.320	-0.670	0.340	100.560	-1.900	0.600																			1580042028.0	10.84	20.08
26/01/2020 12:33:49	26012020	260120	123349	100.600	12.392800	-57.118605	100.560	0.280	-0.740	0.680	100.580	-2.100	1.000																			1580042029.0	10.62	19.67
26/01/2020 12:33:50	26012020	260120	123350	100.440	12.392790	-57.118558	100.300	0.140	-0.700	0.950	100.390	-2.100	1.300																			1580042030.0	10.34	19.15
26/01/2020 12:33:51	26012020	260120	123351	100.100	12.392780	-57.118510	99.940	0.050	-0.750	1.180	100.030	-2.100	1.500																			1580042031.0	10.47	19.39
26/01/2020 12:33:52	26012020	260120	123352	99.790	12.392768	-57.118460	99.710	-0.000	-0.710	1.260	99.750	-2.100	1.700																			1580042032.0	10.76	19.93
26/01/2020 12:33:53	26012020	260120	123353	99.640	12.392758	-57.118410	99.650	-0.090	-0.390	1.110	99.620	-1.900	1.600																			1580042033.0	10.77	19.95
26/01/2020 12:33:54	26012020	260120	123354	99.640	12.392748	-57.118362	99.700	-0.210	0.130	0.800	99.650	-1.500	1.300																			1580042034.0	10.55	19.54
26/01/2020 12:33:55	26012020	260120	123355	99.720	12.392738	-57.118313	99.830	-0.290	0.550	0.560	99.750	-1.000	1.000																			1580042035.0	10.33	19.13
26/01/2020 12:33:56	26012020	260120	123356	99.890	12.392730	-57.118265	100.070	-0.250	0.620	0.390	99.950	-0.800	0.900																			1580042036.0	10.38	19.22
26/01/2020 12:33:57	26012020	260120	123357	100.230	12.392720	-57.118215	100.470	-0.110	0.360	0.220	100.310	-0.900	0.700																			1580042037.0	10.59	19.61
26/01/2020 12:33:58	26012020	260120	123358	100.620	12.392712	-57.118167	100.810	0.100	-0.070	0.190	100.690	-1.300	0.600																			1580042038.0	10.70	19.82
26/01/2020 12:33:59	26012020	260120	123359	100.840	12.392702	-57.118117	101.010	0.270	-0.460	0.330	100.890	-1.700	0.700																			1580042039.0	10.75	19.91
26/01/2020 12:34:00	26012020	260120	123400	101.100	12.392692	-57.118067	101.190	0.340	-0.590	0.520	101.140	-1.900	0.900	1016.20	26.10	26.10	18.00	18.20	405.00	61.00	61.00	375.00	27.10	349.00	12.10	81.00	6.90	29504	3224.00	27.30	27.30	1580042040.0	10.55	19.54
26/01/2020 12:34:01	26012020	260120	123401	101.180	12.392682	-57.118020	101.130	0.320	-0.660	0.820	101.170	-2.000	1.100																			1580042041.0	10.29	19.06
26/01/2020 12:34:02	26012020	260120	123402	100.970	12.392672	-57.117972	100.780	0.190	-0.820	1.090	100.890	-2.100	1.400																			1580042042.0	10.42	19.30
26/01/2020 12:34:03	26012020	260120	123403	100.580	12.392662	-57.117922	100.450	-0.040	-0.970	1.190	100.520	-2.300	1.600																			1580042043.0	10.70	19.82
26/01/2020 12:34:04	26012020	260120	123404	100.330	12.392650	-57.117872	100.280	-0.260	-0.860	1.230	100.290	-2.300	1.600																			1580042044.0	10.83	20.06
26/01/2020 12:34:05	26012020	260120	123405	100.200	12.392638	-57.117822	100.150	-0.370	-0.420	1.150	100.170	-2.000	1.600																			1580042045.0	10.71	19.83
26/01/2020 12:34:06	26012020	260120	123406	100.060	12.392627	-57.117773	99.990	-0.370	0.080	0.950	100.030	-1.500	1.400																			1580042046.0	10.54	19.52
26/01/2020 12:34:07	26012020	260120	123407	99.930	12.392615	-57.117725	99.960	-0.290	0.440	0.720	99.930	-1.100	1.200																			1580042047.0	10.55	19.54
26/01/2020 12:34:08	26012020	260120	123408	100.040	12.392605	-57.117677	100.230	-0.140	0.590	0.340	100.100	-0.800	0.900																			1580042048.0	10.61	19.65
26/01/2020 12:34:09	26012020	260120	123409	100.420	12.392597	-57.117627	100.680	0.030	0.460	-0.130	100.510	-0.800	0.400																			1580042049.0	10.64	19.71
26/01/2020 12:34:10	26012020	260120	123410	100.890	12.392590	-57.117577	101.110	0.190	0.180	-0.230	100.980	-1.100	0.200																			1580042050.0	10.75	19.91
26/01/2020 12:34:11	26012020	260120	123411	101.190	12.392580	-57.117527	101.370	0.290	-0.000	0.100	101.250	-1.300	0.400																			1580042051.0	10.65	19.72
26/01/2020 12:34:12	26012020	260120	123412	101.440	12.392568	-57.117480	101.520	0.310	-0.110	0.360	101.470	-1.400	0.700																			1580042052.0	10.33	19.13
26/01/2020 12:34:13	26012020	260120	123413	101.550	12.392558	-57.117432	101.600	0.300	-0.420	0.390	101.560	-1.600	0.800																			1580042053.0	10.19	18.87
26/01/2020 12:34:14	26012020	260120	123414	101.570	12.392550	-57.117383	101.490	0.330	-1.030	0.570	101.540	-2.100	0.900																			1580042054.0	10.50	19.45
26/01/2020 12:34:15	26012020	260120	123415	101.420	12.392540	-57.117332	101.220	0.330	-1.480	0.800	101.360	-2.700	1.100																			1580042055.0	10.99	20.35
26/01/2020 12:34:16	26012020	260120	123416	101.050	12.392528	-57.117282	100.880	0.180	-1.280	1.000	100.990	-2.800	1.300																			1580042056.0	10.93	20.24
26/01/2020 12:34:17	26012020	260120	123417	100.710	12.392517	-57.117233	100.560	-0.170	-0.590	1.240	100.650	-2.200	1.600																			1580042057.0	10.46	19.37
26/01/2020 12:34:18	26012020	260120	123418	100.400	12.392505	-57.117187	100.280	-0.560	0.020	1.390	100.340	-1.600	1.800																			1580042058.0	10.25	18.98
26/01/2020 12:34:19	26012020	260120	123419	100.190	12.392492	-57.117138	100.190	-0.800	0.290	1.230	100.180	-1.200	1.700																			1580042059.0	10.56	19.56
26/01/2020 12:34:20	26012020	260120	123420	100.200	12.392478	-57.117088	100.270	-0.760	0.340	0.940	100.220	-1.000	1.500																			1580042060.0	10.87	20.13
26/01/2020 12:34:21	26012020	260120	123421	100.340	12.392467	-57.117038	100.470	-0.420	0.310	0.630	100.380	-1.100	1.200																			1580042061.0	10.95	20.28
26/01/2020 12:34:22	26012020	260120	123422	100.570	12.392457	-57.116988	100.770	0.050	0.260	0.310	100.630	-1.100	0.800																			1580042062.0	10.87	20.13
26/01/2020 12:34:23	26012020	260120	123423	100.920	12.392447	-57.116938	101.120	0.420	0.150	0.030	100.990	-1.200	0.500																			1580042063.0	10.74	19.89
26/01/2020 12:34:24	26012020	260120	123424	101.230	12.392438	-57.116888	101.370	0.580	0.030	-0.100	101.280	-1.300	0.400																			1580042064.0	10.62	19.67
26/01/2020 12:34:25	26012020	260120	123425	101.460	12.392432	-57.116840	101.560	0.570	-0.000	-0.120	101.500	-1.400	0.300																			1580042065.0	10.43	19.32
26/01/2020 12:34:26	26012020	260120	123426	101.590	12.392423	-57.116793	101.620	0.520	-0.170	0.190	101.600	-1.400	0.400																			1580042066.0	10.21	18.91
26/01/2020 12:34:27	26012020	260120	123427	101.580	12.392413	-57.116745	101.550	0.440	-0.640	0.620	101.570	-1.800	0.900																			1580042067.0	10.43	19.32
26/01/2020 12:34:28	26012020	260120	123428	101.480	12.392402	-57.116695	101.400	0.270	-1.080	0.920	101.450	-2.300	1.200																			1580042068.0	10.78	19.96
26/01/2020 12:34:29	26012020	260120	123429	101.270	12.392390	-57.116645	101.110	0.040	-1.180	1.250	101.210	-2.600	1.500																			1580042069.0	10.82	20.04
26/01/2020 12:34:30	26012020	260120	123430	100.920	12.392378	-57.116597	100.760	-0.230	-0.820	1.550	100.840	-2.400	1.900																			1580042070.0	10.63	19.69
26/01/2020 12:34:31	26012020	260120	123431	100.600	12.392365	-57.116548	100.560	-0.490	-0.340	1.410	100.570	-1.900	1.900																			1580042071.0	10.40	19.26
26/01/2020 12:34:32	26012020	260120	123432	100.470	12.392353	-57.116500	100.450	-0.590	-0.090	1.080	100.450	-1.500	1.600																			1580042072.0	10.48	19.41
26/01/2020 12:34:33	26012020	260120	123433	100.390	12.392342	-57.116452	100.380	-0.460	-0.020	0.730	100.380	-1.400	1.300																			1580042073.0	10.83	20.06
26/01/2020 12:34:34	26012020	260120	123434	100.360	12.392332	-57.116400	100.370	-0.240	0.050	0.350	100.350	-1.400	0.900																			1580042074.0	10.96	20.30
26/01/2020 12:34:35	26012020	260120	123435	100.360	12.392322	-57.116350	100.410	-0.010	0.100	0.180	100.360	-1.300	0.600																			1580042075.0	10.89	20.17
26/01/2020 12:34:36	26012020	260120	123436	100.450	12.392312	-57.116300	100.580	0.150	0.130	0.230	100.490	-1.300	0.600																			1580042076.0	10.81	20.02
26/01/2020 12:34:37	26012020	260120	123437	100.620	12.392302	-57.116250	100.790	0.160	0.200	0.350	100.660	-1.200	0.700																			1580042077.0	10.71	19.83
26/01/2020 12:34:38	26012020	260120	123438	100.850	12.392292	-57.116202	100.970	0.040	0.300	0.450	100.880	-1.100	0.800																			1580042078.0	10.48	19.41
26/01/2020 12:34:39	26012020	260120	123439	101.020	12.392282	-57.116153	101.150	-0.000	0.160	0.630	101.060	-1.100	1.000																			1580042079.0	10.27	19.02
26/01/2020 12:34:40	26012020	260120	123440	101.160	12.392270	-57.116105	101.170	0.210	-0.370	0.810	101.170	-1.500	1.200																			1580042080.0	10.52	19.48
26/01/2020 12:34:41	26012020	260120	123441	101.090	12.392260	-57.116055	100.980	0.510	-0.860	0.830	101.050	-2.100	1.200																			1580042081.0	10.91	20.21
26/01/2020 12:34:42	26012020	260120	123442	100.870	12.392250	-57.116005	100.770	0.590	-0.890	0.770	100.830	-2.300	1.200																			1580042082.0	10.84	20.08
26/01/2020 12:34:43	26012020	260120	123443	100.720	12.392242	-57.115957	100.670	0.330	-0.540	0.710	100.700	-2.100	1.100																			1580042083.0	10.40	19.26
26/01/2020 12:34:44	26012020	260120	123444	100.620	12.392233	-57.115908	100.550	-0.070	-0.320	0.740	100.600	-1.700	1.100																			1580042084.0	10.12	18.74
26/01/2020 12:34:45	26012020	260120	123445	100.450	12.392222	-57.115860	100.360	-0.270	-0.450	0.830	100.410	-1.800	1.200																			1580042085.0	10.52	19.48
26/01/2020 12:34:46	26012020	260120	123446	100.280	12.392210	-57.115810	100.290	-0.290	-0.480	1.000	100.270	-1.900	1.300																			1580042086.0	10.99	20.35
26/01/2020 12:34:47	26012020	260120	123447	100.280	12.392198	-57.115760	100.340	-0.310	-0.210	1.110	100.290	-1.700	1.500																			1580042087.0	10.84	20.08
26/01/2020 12:34:48	26012020	260120	123448	100.320	12.392187	-57.115712	100.320	-0.290	-0.070	1.080	100.310	-1.400	1.500																			1580042088.0	10.56	19.56
26/01/2020 12:34:49	26012020	260120	123449	100.250	12.392175	-57.115662	100.230	-0.120	-0.230	0.960	100.230	-1.500	1.400																			1580042089.0	10.84	20.08
26/01/2020 12:34:50	26012020	260120	123450	100.180	12.392165	-57.115610	100.200	0.050	-0.240	0.810	100.180	-1.600	1.300																			1580042090.0	11.15	20.65
26/01/2020 12:34:51	26012020	260120	123451	100.190	12.392155	-57.115560	100.310	0.030	0.130	0.660	100.210	-1.400	1.100																			1580042091.0	10.83	20.06
26/01/2020 12:34:52	26012020	260120	123452	100.400	12.392147	-57.115512	100.570	-0.190	0.510	0.460	100.460	-1.000	0.900																			1580042092.0	10.27	19.02
26/01/2020 12:34:53	26012020	260120	123453	100.670	12.392137	-57.115465	100.820	-0.310	0.460	0.350	100.710	-0.800	0.800																			1580042093.0	10.19	18.87
26/01/2020 12:34:54	26012020	260120	123454	100.850	12.392127	-57.115417	100.890	-0.150	-0.010	0.460	100.860	-1.200	0.800																			1580042094.0	10.55	19.54
26/01/2020 12:34:55	26012020	260120	123455	100.830	12.392115	-57.115367	100.780	0.260	-0.650	0.610	100.800	-1.800	1.000																			1580042095.0	10.87	20.13
26/01/2020 12:34:56	26012020	260120	123456	100.670	12.392103	-57.115315	100.620	0.680	-1.070	0.680	100.650	-2.300	1.100																			1580042096.0	11.05	20.46
26/01/2020 12:34:57	26012020	260120	123457	100.540	12.392095	-57.115265	100.480	0.740	-0.920	0.710	100.520	-2.400	1.100																			1580042097.0	10.82	20.04
26/01/2020 12:34:58	26012020	260120	123458	100.410	12.392087	-57.115217	100.320	0.380	-0.410	0.700	100.380	-2.000	1.100																			1580042098.0	10.31	19.09
26/01/2020 12:34:59	26012020	260120	123459	100.220	12.392078	-57.115170	100.120	-0.080	-0.090	0.790	100.170	-1.500	1.200																			1580042099.0	10.10	18.71
26/01/2020 12:35:00	26012020	260120	123500	100.000	12.392067	-57.115122	99.950	-0.320	-0.140	1.010	99.970	-1.500	1.300	1016.30	26.10	26.20	18.00	18.10	398.00	60.00	61.00	375.00	27.10	350.00	11.50	81.00	6.20	29391	3024.00	27.40	27.40	1580042100.0	10.53	19.50
26/01/2020 12:35:01	26012020	260120	123501	99.870	12.392055	-57.115070	99.910	-0.340	-0.240	1.050	99.860	-1.600	1.500																			1580042101.0	10.98	20.33
26/01/2020 12:35:02	26012020	260120	123502	99.930	12.392043	-57.115020	100.040	-0.300	-0.190	0.880	99.950	-1.600	1.300																			1580042102.0	10.96	20.30
26/01/2020 12:35:03	26012020	260120	123503	100.040	12.392032	-57.114970	100.170	-0.260	-0.050	0.780	100.060	-1.500	1.200																			1580042103.0	10.73	19.87
26/01/2020 12:35:04	26012020	260120	123504	100.180	12.392022	-57.114922	100.250	-0.170	0.080	0.680	100.200	-1.300	1.100																			1580042104.0	10.59	19.61
26/01/2020 12:35:05	26012020	260120	123505	100.220	12.392012	-57.114873	100.250	-0.010	0.070	0.620	100.220	-1.300	1.000																			1580042105.0	10.55	19.54
26/01/2020 12:35:06	26012020	260120	123506	100.210	12.392002	-57.114823	100.280	0.180	-0.160	0.520	100.220	-1.400	1.000																			1580042106.0	10.67	19.76
26/01/2020 12:35:07	26012020	260120	123507	100.290	12.391993	-57.114773	100.420	0.270	-0.430	0.470	100.320	-1.700	0.900																			1580042107.0	10.83	20.06
26/01/2020 12:35:08	26012020	260120	123508	100.430	12.391985	-57.114722	100.480	0.200	-0.540	0.690	100.450	-1.900	1.000																			1580042108.0	10.81	20.02
26/01/2020 12:35:09	26012020	260120	123509	100.400	12.391975	-57.114673	100.330	0.010	-0.520	1.180	100.360	-1.900	1.400																			1580042109.0	10.64	19.71
26/01/2020 12:35:10	26012020	260120	123510	100.180	12.391962	-57.114625	100.110	-0.200	-0.380	1.540	100.140	-1.800	1.900																			1580042110.0	10.63	19.69
26/01/2020 12:35:11	26012020	260120	123511	100.010	12.391950	-57.114577	100.030	-0.320	-0.160	1.520	100.000	-1.600	2.000																			1580042111.0	10.55	19.54
26/01/2020 12:35:12	26012020	260120	123512	100.020	12.391938	-57.114528	100.060	-0.230	-0.080	1.190	100.030	-1.400	1.700																			1580042112.0	10.49	19.43
26/01/2020 12:35:13	26012020	260120	123513	100.030	12.391928	-57.114478	99.980	0.100	-0.260	0.860	100.010	-1.500	1.400																			1580042113.0	10.71	19.83
26/01/2020 12:35:14	26012020	260120	123514	99.900	12.391920	-57.114427	99.840	0.490	-0.460	0.600	99.870	-1.800	1.100																			1580042114.0	11.07	20.50
26/01/2020 12:35:15	26012020	260120	123515	99.810	12.391912	-57.114375	99.880	0.600	-0.230	0.450	99.820	-1.700	0.900																			1580042115.0	11.00	20.37
26/01/2020 12:35:16	26012020	260120	123516	99.960	12.391905	-57.114327	100.120	0.280	0.330	0.400	100.010	-1.300	0.800																			1580042116.0	10.39	19.24
26/01/2020 12:35:17	26012020	260120	123517	100.210	12.391897	-57.114280	100.290	-0.220	0.560	0.550	100.250	-0.800	0.900																			1580042117.0	9.94	18.41
26/01/2020 12:35:18	26012020	260120	123518	100.280	12.391887	-57.114233	100.270	-0.440	-0.020	0.960	100.270	-1.100	1.200																			1580042118.0	10.32	19.11
26/01/2020 12:35:19	26012020	260120	123519	100.220	12.391875	-57.114182	100.220	-0.260	-0.980	1.420	100.210	-2.000	1.700																			1580042119.0	11.22	20.78
26/01/2020 12:35:20	26012020	260120	123520	100.150	12.391860	-57.114128	100.130	-0.020	-1.340	1.740	100.130	-2.700	2.100																			1580042120.0	11.56	21.41
26/01/2020 12:35:21	26012020	260120	123521	100.040	12.391848	-57.114078	100.000	-0.060	-0.710	1.710	100.010	-2.400	2.200																			1580042121.0	10.84	20.08
26/01/2020 12:35:22	26012020	260120	123522	99.900	12.391837	-57.114033	99.830	-0.280	0.100	1.330	99.870	-1.500	1.900																			1580042122.0	9.85	18.24
26/01/2020 12:35:23	26012020	260120	123523	99.720	12.391828	-57.113987	99.620	-0.240	0.100	0.930	99.680	-1.200	1.500																			1580042123.0	9.99	18.50
26/01/2020 12:35:24	26012020	260120	123524	99.590	12.391822	-57.113935	99.620	0.070	-0.290	0.550	99.590	-1.500	1.100																			1580042124.0	11.03	20.43
26/01/2020 12:35:25	26012020	260120	123525	99.690	12.391813	-57.113883	99.820	0.270	-0.250	0.310	99.730	-1.700	0.800																			1580042125.0	11.27	20.87
26/01/2020 12:35:26	26012020	260120	123526	99.920	12.391805	-57.113833	100.040	0.190	0.170	0.380	99.970	-1.400	0.700																			1580042126.0	10.56	19.56
26/01/2020 12:35:27	26012020	260120	123527	100.040	12.391795	-57.113787	100.070	0.100	0.250	0.700	100.040	-1.100	1.000																			1580042127.0	10.15	18.80
26/01/2020 12:35:28	26012020	260120	123528	100.040	12.391785	-57.113737	100.090	0.200	-0.170	0.890	100.050	-1.400	1.300																			1580042128.0	10.63	19.69
26/01/2020 12:35:29	26012020	260120	123529	100.170	12.391775	-57.113687	100.310	0.260	-0.390	0.820	100.210	-1.700	1.300																			1580042129.0	11.08	20.52
26/01/2020 12:35:30	26012020	260120	123530	100.400	12.391767	-57.113637	100.550	0.060	-0.170	0.700	100.450	-1.600	1.200																			1580042130.0	10.58	19.59
26/01/2020 12:35:31	26012020	260120	123531	100.570	12.391758	-57.113590	100.600	-0.190	-0.080	0.760	100.590	-1.400	1.100																			1580042131.0	10.09	18.69
26/01/2020 12:35:32	26012020	260120	123532	100.520	12.391747	-57.113542	100.460	-0.190	-0.510	1.040	100.480	-1.700	1.300																			1580042132.0	10.41	19.28
26/01/2020 12:35:33	26012020	260120	123533	100.300	12.391735	-57.113490	100.240	0.000	-0.980	1.260	100.260	-2.200	1.600																			1580042133.0	11.10	20.56
26/01/2020 12:35:34	26012020	260120	123534	100.120	12.391723	-57.113440	100.130	0.070	-0.790	1.210	100.100	-2.300	1.700																			1580042134.0	11.11	20.58
26/01/2020 12:35:35	26012020	260120	123535	100.100	12.391713	-57.113392	100.190	-0.170	-0.040	0.920	100.110	-1.700	1.500																			1580042135.0	10.38	19.22
26/01/2020 12:35:36	26012020	260120	123536	100.230	12.391705	-57.113345	100.360	-0.530	0.520	0.590	100.270	-1.000	1.100																			1580042136.0	9.85	18.24
26/01/2020 12:35:37	26012020	260120	123537	100.390	12.391695	-57.113298	100.430	-0.570	0.370	0.440	100.400	-0.900	0.900																			1580042137.0	10.10	18.71
26/01/2020 12:35:38	26012020	260120	123538	100.400	12.391685	-57.113248	100.400	-0.100	-0.350	0.450	100.390	-1.400	0.900																			1580042138.0	10.91	20.21
26/01/2020 12:35:39	26012020	260120	123539	100.370	12.391673	-57.113195	100.440	0.500	-0.860	0.410	100.370	-2.100	0.900																			1580042139.0	11.43	21.17
26/01/2020 12:35:40	26012020	260120	123540	100.490	12.391665	-57.113143	100.590	0.690	-0.660	0.330	100.530	-2.200	0.800																			1580042140.0	11.06	20.48
26/01/2020 12:35:41	26012020	260120	123541	100.620	12.391657	-57.113097	100.650	0.430	-0.120	0.370	100.640	-1.700	0.800																			1580042141.0	10.25	18.98
26/01/2020 12:35:42	26012020	260120	123542	100.620	12.391648	-57.113050	100.580	0.080	0.090	0.610	100.610	-1.300	0.900																			1580042142.0	10.03	18.58
26/01/2020 12:35:43	26012020	260120	123543	100.550	12.391638	-57.113000	100.520	-0.110	-0.110	0.910	100.540	-1.400	1.200																			1580042143.0	10.55	19.54
26/01/2020 12:35:44	26012020	260120	123544	100.470	12.391625	-57.112950	100.430	-0.210	-0.270	1.280	100.450	-1.600	1.600																			1580042144.0	10.96	20.30
26/01/2020 12:35:45	26012020	260120	123545	100.320	12.391612	-57.112902	100.270	-0.300	-0.130	1.420	100.280	-1.600	1.800																			1580042145.0	10.79	19.98
26/01/2020 12:35:46	26012020	260120	123546	100.200	12.391602	-57.112853	100.230	-0.320	0.080	1.100	100.200	-1.300	1.700																			1580042146.0	10.40	19.26
26/01/2020 12:35:47	26012020	260120	123547	100.240	12.391592	-57.112805	100.320	-0.230	0.110	0.780	100.260	-1.200	1.300																			1580042147.0	10.32	19.11
26/01/2020 12:35:48	26012020	260120	123548	100.390	12.391582	-57.112757	100.480	-0.040	-0.090	0.410	100.430	-1.400	1.000																			1580042148.0	10.46	19.37
26/01/2020 12:35:49	26012020	260120	123549	100.550	12.391573	-57.112708	100.560	0.210	-0.420	0.140	100.560	-1.600	0.600																			1580042149.0	10.64	19.71
26/01/2020 12:35:50	26012020	260120	123550	100.560	12.391565	-57.112657	100.550	0.420	-0.690	0.240	100.560	-2.000	0.600																			1580042150.0	10.76	19.93
26/01/2020 12:35:51	26012020	260120	123551	100.510	12.391557	-57.112607	100.470	0.410	-0.770	0.660	100.500	-2.100	0.900																			1580042151.0	10.72	19.85
26/01/2020 12:35:52	26012020	260120	123552	100.390	12.391545	-57.112558	100.290	0.190	-0.710	1.060	100.350	-2.100	1.300																			1580042152.0	10.56	19.56
26/01/2020 12:35:53	26012020	260120	123553	100.220	12.391533	-57.112510	100.040	-0.040	-0.640	1.430	100.170	-2.000	1.700																			1580042153.0	10.63	19.69
26/01/2020 12:35:54	26012020	260120	123554	99.860	12.391522	-57.112460	99.770	-0.210	-0.470	1.700	99.800	-1.900	2.100																			1580042154.0	10.79	19.98
26/01/2020 12:35:55	26012020	260120	123555	99.690	12.391510	-57.112410	99.760	-0.340	-0.160	1.530	99.680	-1.700	2.000																			1580042155.0	10.81	20.02
26/01/2020 12:35:56	26012020	260120	123556	99.790	12.391498	-57.112362	99.940	-0.410	0.240	1.190	99.830	-1.300	1.700																			1580042156.0	10.64	19.71
26/01/2020 12:35:57	26012020	260120	123557	99.990	12.391488	-57.112313	100.100	-0.400	0.550	0.800	100.030	-0.900	1.400																			1580042157.0	10.52	19.48
26/01/2020 12:35:58	26012020	260120	123558	100.160	12.391480	-57.112265	100.280	-0.260	0.660	0.390	100.200	-0.700	1.000																			1580042158.0	10.47	19.39
26/01/2020 12:35:59	26012020	260120	123559	100.390	12.391472	-57.112215	100.530	-0.020	0.530	0.090	100.440	-0.700	0.600																			1580042159.0	10.45	19.35
26/01/2020 12:36:00	26012020	260120	123600	100.630	12.391463	-57.112167	100.740	0.290	-0.020	0.050	100.670	-1.100	0.500	1016.30	26.10	26.10	18.40	18.50	405.00	62.00	62.00	375.00	27.20	347.00	11.60	77.00	6.40	29713	3111.00	27.40	27.40	1580042160.0	10.53	19.50
26/01/2020 12:36:01	26012020	260120	123601	100.780	12.391455	-57.112115	100.840	0.580	-0.810	0.240	100.800	-1.900	0.600																			1580042161.0	10.89	20.17
26/01/2020 12:36:02	26012020	260120	123602	100.810	12.391445	-57.112063	100.800	0.690	-1.190	0.610	100.800	-2.500	0.900																			1580042162.0	11.06	20.48
26/01/2020 12:36:03	26012020	260120	123603	100.690	12.391435	-57.112015	100.620	0.550	-0.860	1.000	100.650	-2.400	1.300																			1580042163.0	10.55	19.54
26/01/2020 12:36:04	26012020	260120	123604	100.490	12.391425	-57.111970	100.400	0.260	-0.470	1.190	100.440	-1.900	1.500																			1580042164.0	9.97	18.46
26/01/2020 12:36:05	26012020	260120	123605	100.260	12.391415	-57.111922	100.180	-0.040	-0.500	1.300	100.220	-1.800	1.700																			1580042165.0	10.31	19.09
26/01/2020 12:36:06	26012020	260120	123606	100.080	12.391403	-57.111872	100.030	-0.340	-0.590	1.310	100.040	-1.900	1.700																			1580042166.0	10.90	20.19
26/01/2020 12:36:07	26012020	260120	123607	99.920	12.391392	-57.111822	99.870	-0.570	-0.410	1.290	99.880	-1.900	1.700																			1580042167.0	10.96	20.30
26/01/2020 12:36:08	26012020	260120	123608	99.760	12.391380	-57.111772	99.760	-0.600	-0.050	1.220	99.730	-1.500	1.700																			1580042168.0	10.69	19.80
26/01/2020 12:36:09	26012020	260120	123609	99.730	12.391368	-57.111723	99.800	-0.390	0.080	0.990	99.750	-1.300	1.500																			1580042169.0	10.63	19.69
26/01/2020 12:36:10	26012020	260120	123610	99.830	12.391358	-57.111672	99.940	-0.110	0.040	0.700	99.860	-1.300	1.200																			1580042170.0	10.96	20.30
26/01/2020 12:36:11	26012020	260120	123611	100.030	12.391348	-57.111622	100.220	-0.010	0.350	0.400	100.090	-1.200	0.900																			1580042171.0	10.93	20.24
26/01/2020 12:36:12	26012020	260120	123612	100.380	12.391340	-57.111573	100.660	-0.130	0.850	0.230	100.470	-0.700	0.700																			1580042172.0	10.21	18.91
26/01/2020 12:36:13	26012020	260120	123613	100.810	12.391332	-57.111528	101.020	-0.120	0.700	0.160	100.880	-0.500	0.600																			1580042173.0	9.83	18.21
26/01/2020 12:36:14	26012020	260120	123614	101.090	12.391323	-57.111478	101.160	0.270	-0.330	0.220	101.110	-1.200	0.600																			1580042174.0	10.49	19.43
26/01/2020 12:36:15	26012020	260120	123615	101.110	12.391313	-57.111427	101.090	0.790	-1.420	0.510	101.090	-2.400	0.800																			1580042175.0	11.39	21.09
26/01/2020 12:36:16	26012020	260120	123616	100.990	12.391303	-57.111373	100.930	0.900	-1.580	0.900	100.960	-3.000	1.200																			1580042176.0	11.32	20.96
26/01/2020 12:36:17	26012020	260120	123617	100.850	12.391292	-57.111325	100.710	0.480	-0.830	1.160	100.810	-2.500	1.500																			1580042177.0	10.36	19.19
26/01/2020 12:36:18	26012020	260120	123618	100.580	12.391283	-57.111282	100.510	-0.160	0.030	1.160	100.540	-1.600	1.600																			1580042178.0	9.65	17.87
26/01/2020 12:36:19	26012020	260120	123619	100.400	12.391273	-57.111235	100.350	-0.580	0.200	1.120	100.370	-1.100	1.500																			1580042179.0	9.86	18.26
26/01/2020 12:36:20	26012020	260120	123620	100.220	12.391262	-57.111185	100.140	-0.600	-0.320	1.200	100.170	-1.400	1.600																			1580042180.0	10.81	20.02
26/01/2020 12:36:21	26012020	260120	123621	99.990	12.391248	-57.111133	99.950	-0.360	-0.740	1.220	99.950	-2.000	1.600																			1580042181.0	11.57	21.43
26/01/2020 12:36:22	26012020	260120	123622	99.860	12.391235	-57.111082	99.920	-0.180	-0.460	1.090	99.860	-2.000	1.600																			1580042182.0	11.31	20.95
26/01/2020 12:36:23	26012020	260120	123623	99.930	12.391225	-57.111033	100.090	-0.170	0.360	0.750	99.970	-1.400	1.300																			1580042183.0	10.48	19.41
26/01/2020 12:36:24	26012020	260120	123624	100.210	12.391217	-57.110987	100.410	-0.200	0.980	0.320	100.280	-0.600	0.900																			1580042184.0	9.85	18.24
26/01/2020 12:36:25	26012020	260120	123625	100.560	12.391208	-57.110940	100.720	-0.090	0.750	0.150	100.630	-0.400	0.600																			1580042185.0	10.04	18.59
26/01/2020 12:36:26	26012020	260120	123626	100.820	12.391198	-57.110890	100.950	0.200	-0.070	0.220	100.860	-1.100	0.600																			1580042186.0	10.77	19.95
26/01/2020 12:36:27	26012020	260120	123627	100.980	12.391190	-57.110838	101.050	0.510	-0.780	0.310	100.990	-1.900	0.700																			1580042187.0	11.11	20.58
26/01/2020 12:36:28	26012020	260120	123628	101.010	12.391180	-57.110788	100.920	0.650	-1.070	0.580	100.980	-2.400	0.900																			1580042188.0	10.84	20.08
26/01/2020 12:36:29	26012020	260120	123629	100.740	12.391170	-57.110738	100.540	0.510	-1.040	1.050	100.660	-2.400	1.300																			1580042189.0	10.54	19.52
26/01/2020 12:36:30	26012020	260120	123630	100.340	12.391160	-57.110692	100.210	0.130	-0.700	1.330	100.270	-2.200	1.700																			1580042190.0	10.41	19.28
26/01/2020 12:36:31	26012020	260120	123631	100.110	12.391148	-57.110643	100.020	-0.320	-0.240	1.350	100.070	-1.800	1.800																			1580042191.0	10.24	18.96
26/01/2020 12:36:32	26012020	260120	123632	99.940	12.391138	-57.110597	99.900	-0.550	-0.080	1.270	99.920	-1.500	1.700																			1580042192.0	10.27	19.02
26/01/2020 12:36:33	26012020	260120	123633	99.800	12.391127	-57.110547	99.710	-0.430	-0.250	1.230	99.760	-1.500	1.600																			1580042193.0	10.79	19.98
26/01/2020 12:36:34	26012020	260120	123634	99.570	12.391115	-57.110495	99.510	-0.200	-0.300	1.230	99.530	-1.700	1.700																			1580042194.0	11.16	20.67
26/01/2020 12:36:35	26012020	260120	123635	99.440	12.391103	-57.110445	99.500	-0.080	-0.000	1.040	99.450	-1.500	1.600																			1580042195.0	10.92	20.22
26/01/2020 12:36:36	26012020	260120	123636	99.580	12.391095	-57.110397	99.760	-0.070	0.360	0.680	99.640	-1.100	1.200																			1580042196.0	10.43	19.32
26/01/2020 12:36:37	26012020	260120	123637	99.890	12.391087	-57.110348	100.050	-0.010	0.390	0.370	99.950	-0.900	0.900																			1580042197.0	10.30	19.08
26/01/2020 12:36:38	26012020	260120	123638	100.160	12.391078	-57.110298	100.290	0.170	0.110	0.220	100.210	-1.100	0.700																			1580042198.0	10.59	19.61
26/01/2020 12:36:39	26012020	260120	123639	100.370	12.391070	-57.110248	100.490	0.320	-0.160	0.300	100.400	-1.400	0.700																			1580042199.0	10.75	19.91
26/01/2020 12:36:40	26012020	260120	123640	100.570	12.391060	-57.110200	100.710	0.320	-0.320	0.620	100.610	-1.600	0.900																			1580042200.0	10.54	19.52
26/01/2020 12:36:41	26012020	260120	123641	100.750	12.391050	-57.110152	100.810	0.240	-0.530	0.920	100.770	-1.800	1.200																			1580042201.0	10.38	19.22
26/01/2020 12:36:42	26012020	260120	123642	100.770	12.391040	-57.110103	100.700	0.220	-0.810	1.060	100.750	-2.100	1.400																			1580042202.0	10.50	19.45
26/01/2020 12:36:43	26012020	260120	123643	100.620	12.391028	-57.110053	100.430	0.210	-0.960	1.190	100.560	-2.300	1.600																			1580042203.0	10.71	19.83
26/01/2020 12:36:44	26012020	260120	123644	100.210	12.391018	-57.110005	100.040	0.130	-0.860	1.220	100.130	-2.300	1.600																			1580042204.0	10.71	19.83
26/01/2020 12:36:45	26012020	260120	123645	99.890	12.391010	-57.109955	99.670	-0.050	-0.570	1.120	99.820	-2.100	1.600																			1580042205.0	10.63	19.69
26/01/2020 12:36:46	26012020	260120	123646	99.510	12.391000	-57.109905	99.440	-0.250	-0.290	1.030	99.470	-1.800	1.500																			1580042206.0	10.66	19.74
26/01/2020 12:36:47	26012020	260120	123647	99.370	12.390990	-57.109855	99.400	-0.430	0.030	0.990	99.360	-1.500	1.400																			1580042207.0	10.81	20.02
26/01/2020 12:36:48	26012020	260120	123648	99.420	12.390978	-57.109807	99.580	-0.600	0.470	0.910	99.460	-1.100	1.400																			1580042208.0	10.72	19.85
26/01/2020 12:36:49	26012020	260120	123649	99.660	12.390968	-57.109758	99.870	-0.600	0.700	0.710	99.720	-0.700	1.200																			1580042209.0	10.44	19.33
26/01/2020 12:36:50	26012020	260120	123650	100.000	12.390957	-57.109710	100.250	-0.320	0.500	0.570	100.080	-0.800	1.000																			1580042210.0	10.58	19.59
26/01/2020 12:36:51	26012020	260120	123651	100.420	12.390947	-57.109660	100.680	0.130	0.050	0.400	100.500	-1.100	0.900																			1580042211.0	10.80	20.00
26/01/2020 12:36:52	26012020	260120	123652	100.800	12.390938	-57.109608	100.970	0.550	-0.380	0.200	100.860	-1.600	0.700																			1580042212.0	10.86	20.11
26/01/2020 12:36:53	26012020	260120	123653	101.040	12.390930	-57.109558	101.150	0.730	-0.510	0.170	101.070	-1.900	0.600																			1580042213.0	10.68	19.78
26/01/2020 12:36:54	26012020	260120	123654	101.180	12.390923	-57.109510	101.240	0.590	-0.450	0.290	101.200	-1.800	0.600																			1580042214.0	10.25	18.98
26/01/2020 12:36:55	26012020	260120	123655	101.220	12.390915	-57.109463	101.170	0.310	-0.590	0.640	101.200	-1.900	0.900																			1580042215.0	10.15	18.80
26/01/2020 12:36:56	26012020	260120	123656	101.050	12.390905	-57.109415	100.880	0.100	-0.990	1.070	100.990	-2.200	1.300																			1580042216.0	10.56	19.56
26/01/2020 12:36:57	26012020	260120	123657	100.670	12.390892	-57.109363	100.470	0.000	-1.260	1.420	100.580	-2.600	1.700																			1580042217.0	11.06	20.48
26/01/2020 12:36:58	26012020	260120	123658	100.280	12.390880	-57.109313	100.210	-0.190	-0.890	1.550	100.240	-2.500	1.900																			1580042218.0	11.09	20.54
26/01/2020 12:36:59	26012020	260120	123659	100.100	12.390868	-57.109265	100.070	-0.540	-0.020	1.510	100.080	-1.800	2.000																			1580042219.0	10.51	19.46
26/01/2020 12:37:00	26012020	260120	123700	100.030	12.390857	-57.109218	100.030	-0.750	0.620	1.210	100.010	-0.900	1.800	1016.30	26.10	26.10	18.80	18.80	414.00	64.00	64.00	376.00	27.20	348.00	11.30	78.00	6.10	30180	3021.00	27.40	27.40	1580042220.0	10.10	18.71
26/01/2020 12:37:01	26012020	260120	123701	100.000	12.390847	-57.109170	100.050	-0.580	0.520	0.730	100.010	-0.700	1.300																			1580042221.0	10.49	19.43
26/01/2020 12:37:02	26012020	260120	123702	100.120	12.390837	-57.109118	100.300	-0.170	0.110	0.290	100.170	-1.100	0.900																			1580042222.0	11.23	20.80
26/01/2020 12:37:03	26012020	260120	123703	100.470	12.390828	-57.109065	100.710	0.130	0.070	0.010	100.550	-1.300	0.500																			1580042223.0	11.22	20.78
26/01/2020 12:37:04	26012020	260120	123704	100.890	12.390818	-57.109017	101.080	0.170	0.310	-0.030	100.970	-1.100	0.400																			1580042224.0	10.48	19.41
26/01/2020 12:37:05	26012020	260120	123705	101.210	12.390810	-57.108970	101.330	0.150	0.220	0.170	101.260	-1.000	0.500																			1580042225.0	10.09	18.69
26/01/2020 12:37:06	26012020	260120	123706	101.380	12.390800	-57.108922	101.430	0.280	-0.360	0.460	101.400	-1.500	0.800																			1580042226.0	10.42	19.30
26/01/2020 12:37:07	26012020	260120	123707	101.410	12.390788	-57.108872	101.360	0.480	-0.930	0.760	101.400	-2.100	1.100																			1580042227.0	10.89	20.17
26/01/2020 12:37:08	26012020	260120	123708	101.260	12.390778	-57.108822	101.180	0.530	-1.040	0.950	101.220	-2.400	1.300																			1580042228.0	10.84	20.08
26/01/2020 12:37:09	26012020	260120	123709	101.040	12.390768	-57.108773	100.930	0.310	-0.780	0.990	100.990	-2.300	1.400																			1580042229.0	10.43	19.32
26/01/2020 12:37:10	26012020	260120	123710	100.780	12.390760	-57.108725	100.680	-0.090	-0.490	1.040	100.730	-2.000	1.400																			1580042230.0	10.29	19.06
26/01/2020 12:37:11	26012020	260120	123711	100.520	12.390748	-57.108677	100.430	-0.440	-0.270	1.150	100.470	-1.700	1.500																			1580042231.0	10.46	19.37
26/01/2020 12:37:12	26012020	260120	123712	100.290	12.390735	-57.108628	100.240	-0.530	-0.190	1.180	100.260	-1.600	1.600																			1580042232.0	10.68	19.78
26/01/2020 12:37:13	26012020	260120	123713	100.120	12.390723	-57.108578	100.100	-0.390	-0.230	1.080	100.100	-1.600	1.500																			1580042233.0	10.94	20.26
26/01/2020 12:37:14	26012020	260120	123714	100.060	12.390712	-57.108527	100.130	-0.200	-0.080	0.820	100.070	-1.500	1.300																			1580042234.0	11.05	20.46
26/01/2020 12:37:15	26012020	260120	123715	100.190	12.390703	-57.108477	100.350	-0.110	0.330	0.510	100.240	-1.200	1.000																			1580042235.0	10.68	19.78
26/01/2020 12:37:16	26012020	260120	123716	100.470	12.390693	-57.108430	100.650	-0.060	0.490	0.250	100.530	-0.900	0.700																			1580042236.0	10.30	19.08
26/01/2020 12:37:17	26012020	260120	123717	100.730	12.390685	-57.108380	100.830	0.100	0.090	0.230	100.770	-1.100	0.600																			1580042237.0	10.55	19.54
26/01/2020 12:37:18	26012020	260120	123718	100.840	12.390675	-57.108328	100.920	0.340	-0.480	0.520	100.860	-1.700	0.800																			1580042238.0	11.05	20.46
26/01/2020 12:37:19	26012020	260120	123719	100.940	12.390665	-57.108278	101.020	0.440	-0.590	0.740	100.960	-2.000	1.100																			1580042239.0	11.04	20.45
26/01/2020 12:37:20	26012020	260120	123720	101.030	12.390655	-57.108230	101.090	0.260	-0.250	0.840	101.040	-1.800	1.200																			1580042240.0	10.42	19.30
26/01/2020 12:37:21	26012020	260120	123721	101.070	12.390645	-57.108183	101.110	-0.030	-0.080	0.880	101.090	-1.500	1.300																			1580042241.0	10.00	18.52
26/01/2020 12:37:22	26012020	260120	123722	101.070	12.390635	-57.108135	101.040	-0.120	-0.390	0.950	101.050	-1.600	1.300																			1580042242.0	10.36	19.19
26/01/2020 12:37:23	26012020	260120	123723	100.910	12.390622	-57.108085	100.830	-0.030	-0.720	0.950	100.870	-2.000	1.400																			1580042243.0	10.96	20.30
26/01/2020 12:37:24	26012020	260120	123724	100.660	12.390612	-57.108035	100.570	0.060	-0.670	0.820	100.610	-2.100	1.300																			1580042244.0	10.93	20.24
26/01/2020 12:37:25	26012020	260120	123725	100.450	12.390602	-57.107985	100.410	0.070	-0.360	0.610	100.430	-1.900	1.100																			1580042245.0	10.60	19.63
26/01/2020 12:37:26	26012020	260120	123726	100.370	12.390593	-57.107937	100.370	-0.000	-0.110	0.470	100.370	-1.500	0.900																			1580042246.0	10.46	19.37
26/01/2020 12:37:27	26012020	260120	123727	100.360	12.390583	-57.107887	100.370	-0.110	-0.070	0.500	100.360	-1.400	0.900																			1580042247.0	10.61	19.65
26/01/2020 12:37:28	26012020	260120	123728	100.350	12.390573	-57.107837	100.370	-0.250	-0.030	0.750	100.350	-1.400	1.000																			1580042248.0	10.84	20.08
26/01/2020 12:37:29	26012020	260120	123729	100.350	12.390560	-57.107788	100.400	-0.330	0.010	1.050	100.360	-1.400	1.400																			1580042249.0	10.73	19.87
26/01/2020 12:37:30	26012020	260120	123730	100.410	12.390548	-57.107738	100.490	-0.210	-0.160	1.230	100.430	-1.400	1.600																			1580042250.0	10.72	19.85
26/01/2020 12:37:31	26012020	260120	123731	100.490	12.390537	-57.107688	100.550	0.070	-0.330	1.150	100.510	-1.700	1.600																			1580042251.0	10.94	20.26
26/01/2020 12:37:32	26012020	260120	123732	100.580	12.390527	-57.107638	100.630	0.300	-0.240	0.910	100.600	-1.700	1.400																			1580042252.0	10.83	20.06
26/01/2020 12:37:33	26012020	260120	123733	100.640	12.390517	-57.107590	100.740	0.330	0.010	0.610	100.660	-1.400	1.100																			1580042253.0	10.50	19.45
26/01/2020 12:37:34	26012020	260120	123734	100.780	12.390510	-57.107542	100.860	0.180	0.150	0.410	100.810	-1.200	0.900																			1580042254.0	10.29	19.06
26/01/2020 12:37:35	26012020	260120	123735	100.870	12.390502	-57.107493	100.910	0.070	-0.140	0.430	100.880	-1.300	0.800																			1580042255.0	10.38	19.22
26/01/2020 12:37:36	26012020	260120	123736	100.860	12.390492	-57.107443	100.820	0.080	-0.560	0.690	100.840	-1.800	1.000																			1580042256.0	10.85	20.09
26/01/2020 12:37:37	26012020	260120	123737	100.750	12.390480	-57.107392	100.750	0.040	-0.600	1.000	100.730	-2.000	1.300																			1580042257.0	10.91	20.21
26/01/2020 12:37:38	26012020	260120	123738	100.700	12.390468	-57.107345	100.730	-0.130	-0.460	1.150	100.700	-1.900	1.500																			1580042258.0	10.49	19.43
26/01/2020 12:37:39	26012020	260120	123739	100.660	12.390458	-57.107295	100.590	-0.200	-0.610	1.140	100.630	-1.900	1.600																			1580042259.0	10.49	19.43
26/01/2020 12:37:40	26012020	260120	123740	100.430	12.390447	-57.107245	100.280	-0.040	-0.820	1.130	100.370	-2.100	1.500																			1580042260.0	11.03	20.43
26/01/2020 12:37:41	26012020	260120	123741	100.090	12.390437	-57.107193	99.980	0.160	-0.630	1.140	100.030	-2.100	1.500																			1580042261.0	11.13	20.61
26/01/2020 12:37:42	26012020	260120	123742	99.880	12.390425	-57.107143	99.920	0.140	-0.070	1.020	99.870	-1.700	1.500																			1580042262.0	10.80	20.00
26/01/2020 12:37:43	26012020	260120	123743	99.930	12.390415	-57.107095	100.050	-0.120	0.500	0.710	99.970	-1.100	1.200																			1580042263.0	10.43	19.32
26/01/2020 12:37:44	26012020	260120	123744	100.120	12.390407	-57.107047	100.280	-0.350	0.660	0.410	100.170	-0.700	0.900																			1580042264.0	10.33	19.13
26/01/2020 12:37:45	26012020	260120	123745	100.410	12.390398	-57.106997	100.640	-0.340	0.350	0.210	100.490	-0.900	0.700																			1580042265.0	10.70	19.82
26/01/2020 12:37:46	26012020	260120	123746	100.780	12.390388	-57.106947	100.960	-0.160	-0.010	0.320	100.850	-1.200	0.600																			1580042266.0	10.96	20.30
26/01/2020 12:37:47	26012020	260120	123747	101.030	12.390377	-57.106897	101.110	-0.010	-0.280	0.610	101.050	-1.500	0.900																			1580042267.0	10.78	19.96
26/01/2020 12:37:48	26012020	260120	123748	101.090	12.390363	-57.106848	101.100	0.110	-0.520	0.810	101.090	-1.800	1.100																			1580042268.0	10.59	19.61
26/01/2020 12:37:49	26012020	260120	123749	101.000	12.390353	-57.106800	100.900	0.270	-0.740	0.930	100.960	-2.000	1.300																			1580042269.0	10.59	19.61
26/01/2020 12:37:50	26012020	260120	123750	100.740	12.390343	-57.106750	100.580	0.420	-0.870	0.910	100.670	-2.200	1.300																			1580042270.0	10.70	19.82
26/01/2020 12:37:51	26012020	260120	123751	100.400	12.390335	-57.106700	100.250	0.450	-0.820	0.810	100.340	-2.200	1.300																			1580042271.0	10.79	19.98
26/01/2020 12:37:52	26012020	260120	123752	100.130	12.390327	-57.106650	100.080	0.250	-0.470	0.770	100.100	-2.000	1.200																			1580042272.0	10.74	19.89
26/01/2020 12:37:53	26012020	260120	123753	100.050	12.390318	-57.106600	100.100	-0.130	-0.010	0.880	100.060	-1.500	1.200																			1580042273.0	10.50	19.45
26/01/2020 12:37:54	26012020	260120	123754	100.110	12.390307	-57.106552	100.120	-0.410	0.170	1.070	100.110	-1.200	1.400																			1580042274.0	10.48	19.41
26/01/2020 12:37:55	26012020	260120	123755	100.060	12.390293	-57.106503	100.050	-0.390	-0.010	1.250	100.040	-1.300	1.600																			1580042275.0	10.87	20.13
26/01/2020 12:37:56	26012020	260120	123756	99.980	12.390280	-57.106452	100.050	-0.140	-0.220	1.310	99.980	-1.500	1.700																			1580042276.0	11.24	20.82
26/01/2020 12:37:57	26012020	260120	123757	100.030	12.390270	-57.106400	100.220	0.040	-0.100	1.080	100.060	-1.500	1.600																			1580042277.0	11.07	20.50
26/01/2020 12:37:58	26012020	260120	123758	100.310	12.390262	-57.106352	100.460	-0.010	0.160	0.760	100.370	-1.300	1.300																			1580042278.0	10.55	19.54
26/01/2020 12:37:59	26012020	260120	123759	100.520	12.390253	-57.106303	100.560	-0.140	0.140	0.720	100.540	-1.200	1.100																			1580042279.0	10.35	19.17
26/01/2020 12:38:00	26012020	260120	123800	100.540	12.390242	-57.106253	100.520	-0.170	-0.200	0.880	100.530	-1.400	1.200	1016.30	26.10	26.10	18.80	18.80	412.00	64.00	64.00	376.00	27.20	345.00	11.30	72.00	6.10	30238	3218.00	27.40	27.40	1580042280.0	10.63	19.69
26/01/2020 12:38:01	26012020	260120	123801	100.470	12.390232	-57.106203	100.450	-0.080	-0.580	1.040	100.450	-1.800	1.400																			1580042281.0	10.93	20.24
26/01/2020 12:38:02	26012020	260120	123802	100.380	12.390220	-57.106153	100.370	0.010	-0.670	1.150	100.360	-2.000	1.500																			1580042282.0	10.91	20.21
26/01/2020 12:38:03	26012020	260120	123803	100.310	12.390210	-57.106103	100.320	0.070	-0.550	1.160	100.300	-2.000	1.600																			1580042283.0	10.65	19.72
26/01/2020 12:38:04	26012020	260120	123804	100.230	12.390200	-57.106055	100.200	0.160	-0.420	1.060	100.210	-1.800	1.500																			1580042284.0	10.57	19.58
26/01/2020 12:38:05	26012020	260120	123805	100.100	12.390190	-57.106005	100.090	0.310	-0.320	0.840	100.080	-1.700	1.400																			1580042285.0	10.70	19.82
26/01/2020 12:38:06	26012020	260120	123806	100.060	12.390182	-57.105955	100.150	0.390	-0.200	0.530	100.080	-1.600	1.000																			1580042286.0	10.84	20.08
26/01/2020 12:38:07	26012020	260120	123807	100.200	12.390175	-57.105903	100.340	0.280	0.070	0.310	100.250	-1.400	0.800																			1580042287.0	10.78	19.96
26/01/2020 12:38:08	26012020	260120	123808	100.440	12.390167	-57.105855	100.580	-0.030	0.320	0.350	100.490	-1.100	0.700																			1580042288.0	10.50	19.45
26/01/2020 12:38:09	26012020	260120	123809	100.640	12.390157	-57.105807	100.720	-0.280	0.180	0.730	100.670	-1.100	1.000																			1580042289.0	10.46	19.37
26/01/2020 12:38:10	26012020	260120	123810	100.740	12.390143	-57.105757	100.800	-0.300	-0.300	1.150	100.750	-1.500	1.400																			1580042290.0	10.85	20.09
26/01/2020 12:38:11	26012020	260120	123811	100.760	12.390130	-57.105707	100.740	-0.140	-0.740	1.340	100.750	-2.000	1.700																			1580042291.0	11.14	20.63
26/01/2020 12:38:12	26012020	260120	123812	100.630	12.390118	-57.105655	100.560	0.030	-0.810	1.330	100.600	-2.200	1.800																			1580042292.0	11.07	20.50
26/01/2020 12:38:13	26012020	260120	123813	100.440	12.390108	-57.105605	100.360	0.040	-0.520	1.220	100.400	-2.000	1.700																			1580042293.0	10.72	19.85
26/01/2020 12:38:14	26012020	260120	123814	100.270	12.390098	-57.105557	100.220	-0.060	-0.230	1.000	100.250	-1.700	1.500																			1580042294.0	10.44	19.33
26/01/2020 12:38:15	26012020	260120	123815	100.150	12.390088	-57.105508	100.150	-0.110	-0.160	0.810	100.140	-1.500	1.300																			1580042295.0	10.62	19.67
26/01/2020 12:38:16	26012020	260120	123816	100.110	12.390078	-57.105457	100.160	-0.110	-0.130	0.700	100.110	-1.500	1.100																			1580042296.0	10.88	20.15
26/01/2020 12:38:17	26012020	260120	123817	100.160	12.390068	-57.105407	100.280	-0.110	-0.010	0.630	100.180	-1.400	1.100																			1580042297.0	10.85	20.09
26/01/2020 12:38:18	26012020	260120	123818	100.320	12.390058	-57.105357	100.480	-0.070	0.010	0.610	100.360	-1.300	1.000																			1580042298.0	10.74	19.89
26/01/2020 12:38:19	26012020	260120	123819	100.530	12.390048	-57.105307	100.670	0.010	-0.070	0.700	100.560	-1.400	1.100																			1580042299.0	10.79	19.98
26/01/2020 12:38:20	26012020	260120	123820	100.670	12.390037	-57.105257	100.770	0.120	-0.130	0.820	100.690	-1.500	1.200																			1580042300.0	10.85	20.09
26/01/2020 12:38:21	26012020	260120	123821	100.730	12.390027	-57.105208	100.800	0.170	-0.120	1.040	100.740	-1.500	1.400																			1580042301.0	10.70	19.82
26/01/2020 12:38:22	26012020	260120	123822	100.730	12.390017	-57.105158	100.740	0.170	-0.230	1.190	100.720	-1.500	1.600																			1580042302.0	10.61	19.65
26/01/2020 12:38:23	26012020	260120	123823	100.650	12.390007	-57.105108	100.570	0.230	-0.510	1.130	100.620	-1.800	1.600																			1580042303.0	10.76	19.93
26/01/2020 12:38:24	26012020	260120	123824	100.430	12.389998	-57.105057	100.390	0.280	-0.650	1.030	100.390	-2.000	1.500																			1580042304.0	11.03	20.43
26/01/2020 12:38:25	26012020	260120	123825	100.320	12.389988	-57.105007	100.350	0.120	-0.370	0.940	100.310	-1.900	1.400																			1580042305.0	10.85	20.09
26/01/2020 12:38:26	26012020	260120	123826	100.330	12.389980	-57.104958	100.400	-0.200	0.010	0.750	100.350	-1.500	1.200																			1580042306.0	10.39	19.24
26/01/2020 12:38:27	26012020	260120	123827	100.410	12.389970	-57.104910	100.450	-0.360	0.030	0.680	100.420	-1.300	1.100																			1580042307.0	10.35	19.17
26/01/2020 12:38:28	26012020	260120	123828	100.390	12.389958	-57.104860	100.380	-0.190	-0.430	0.840	100.370	-1.600	1.200																			1580042308.0	10.86	20.11
26/01/2020 12:38:29	26012020	260120	123829	100.280	12.389947	-57.104808	100.270	0.100	-0.770	0.960	100.260	-2.100	1.300																			1580042309.0	11.41	21.13
26/01/2020 12:38:30	26012020	260120	123830	100.180	12.389935	-57.104757	100.160	0.170	-0.470	0.950	100.160	-2.000	1.400																			1580042310.0	11.15	20.65
26/01/2020 12:38:31	26012020	260120	123831	100.100	12.389925	-57.104708	100.070	-0.010	0.050	0.900	100.090	-1.500	1.300																			1580042311.0	10.40	19.26
26/01/2020 12:38:32	26012020	260120	123832	100.050	12.389917	-57.104660	100.050	-0.160	0.090	0.720	100.040	-1.200	1.200																			1580042312.0	10.35	19.17
26/01/2020 12:38:33	26012020	260120	123833	100.070	12.389907	-57.104608	100.110	-0.200	-0.210	0.580	100.090	-1.500	1.000																			1580042313.0	10.98	20.33
26/01/2020 12:38:34	26012020	260120	123834	100.160	12.389897	-57.104557	100.210	-0.250	-0.240	0.640	100.180	-1.600	1.000																			1580042314.0	11.19	20.72
26/01/2020 12:38:35	26012020	260120	123835	100.270	12.389887	-57.104508	100.320	-0.350	0.120	0.740	100.290	-1.400	1.100																			1580042315.0	10.68	19.78
26/01/2020 12:38:36	26012020	260120	123836	100.340	12.389875	-57.104460	100.370	-0.310	0.210	0.840	100.360	-1.100	1.200																			1580042316.0	10.26	19.00
26/01/2020 12:38:37	26012020	260120	123837	100.360	12.389863	-57.104412	100.370	0.030	-0.280	0.890	100.360	-1.400	1.300																			1580042317.0	10.70	19.82
26/01/2020 12:38:38	26012020	260120	123838	100.360	12.389853	-57.104360	100.390	0.440	-0.730	0.810	100.370	-2.000	1.300																			1580042318.0	11.27	20.87
26/01/2020 12:38:39	26012020	260120	123839	100.420	12.389845	-57.104308	100.490	0.630	-0.590	0.590	100.440	-2.100	1.100																			1580042319.0	11.06	20.48
26/01/2020 12:38:40	26012020	260120	123840	100.550	12.389838	-57.104258	100.620	0.540	-0.180	0.520	100.570	-1.700	0.900																			1580042320.0	10.42	19.30
26/01/2020 12:38:41	26012020	260120	123841	100.610	12.389830	-57.104210	100.590	0.300	-0.070	0.790	100.600	-1.400	1.100																			1580042321.0	10.28	19.04
26/01/2020 12:38:42	26012020	260120	123842	100.500	12.389820	-57.104162	100.430	0.050	-0.300	1.150	100.470	-1.500	1.400																			1580042322.0	10.73	19.87
26/01/2020 12:38:43	26012020	260120	123843	100.350	12.389808	-57.104110	100.320	-0.180	-0.470	1.320	100.330	-1.800	1.700																			1580042323.0	11.08	20.52
26/01/2020 12:38:44	26012020	260120	123844	100.210	12.389797	-57.104060	100.140	-0.360	-0.410	1.400	100.170	-1.800	1.800																			1580042324.0	10.92	20.22
26/01/2020 12:38:45	26012020	260120	123845	100.010	12.389785	-57.104010	99.930	-0.430	-0.320	1.360	99.970	-1.700	1.800																			1580042325.0	10.74	19.89
26/01/2020 12:38:46	26012020	260120	123846	99.830	12.389775	-57.103960	99.780	-0.380	-0.320	1.160	99.790	-1.700	1.700																			1580042326.0	10.83	20.06
26/01/2020 12:38:47	26012020	260120	123847	99.710	12.389763	-57.103910	99.720	-0.250	-0.300	0.990	99.700	-1.700	1.500																			1580042327.0	10.98	20.33
26/01/2020 12:38:48	26012020	260120	123848	99.710	12.389753	-57.103858	99.780	-0.120	-0.130	0.800	99.720	-1.600	1.300																			1580042328.0	10.94	20.26
26/01/2020 12:38:49	26012020	260120	123849	99.810	12.389743	-57.103808	99.940	-0.020	0.100	0.550	99.840	-1.300	1.000																			1580042329.0	10.75	19.91
26/01/2020 12:38:50	26012020	260120	123850	100.000	12.389735	-57.103760	100.150	0.030	0.240	0.410	100.040	-1.200	0.900																			1580042330.0	10.62	19.67
26/01/2020 12:38:51	26012020	260120	123851	100.250	12.389727	-57.103710	100.420	0.080	0.200	0.280	100.300	-1.100	0.700																			1580042331.0	10.62	19.67
26/01/2020 12:38:52	26012020	260120	123852	100.540	12.389717	-57.103660	100.690	0.180	0.010	0.260	100.590	-1.300	0.600																			1580042332.0	10.67	19.76
26/01/2020 12:38:53	26012020	260120	123853	100.760	12.389708	-57.103610	100.820	0.320	-0.290	0.530	100.780	-1.500	0.800																			1580042333.0	10.74	19.89
26/01/2020 12:38:54	26012020	260120	123854	100.820	12.389698	-57.103560	100.820	0.420	-0.660	0.820	100.810	-1.900	1.100																			1580042334.0	10.82	20.04
26/01/2020 12:38:55	26012020	260120	123855	100.770	12.389688	-57.103510	100.730	0.400	-0.890	0.990	100.750	-2.200	1.300																			1580042335.0	10.92	20.22
26/01/2020 12:38:56	26012020	260120	123856	100.620	12.389678	-57.103460	100.490	0.270	-0.830	1.200	100.560	-2.200	1.500																			1580042336.0	10.83	20.06
26/01/2020 12:38:57	26012020	260120	123857	100.290	12.389668	-57.103410	100.130	0.020	-0.630	1.270	100.220	-2.100	1.700																			1580042337.0	10.73	19.87
26/01/2020 12:38:58	26012020	260120	123858	99.990	12.389660	-57.103360	99.930	-0.260	-0.430	1.170	99.950	-1.900	1.600																			1580042338.0	10.81	20.02
26/01/2020 12:38:59	26012020	260120	123859	99.880	12.389650	-57.103308	99.930	-0.510	-0.120	1.070	99.880	-1.600	1.500																			1580042339.0	10.88	20.15
26/01/2020 12:39:00	26012020	260120	123900	99.940	12.389638	-57.103260	100.030	-0.620	0.140	0.970	99.970	-1.300	1.400	1016.30	26.00	26.10	18.70	18.70	419.00	63.00	64.00	376.00	27.20	344.00	11.20	70.00	6.10	30602	3206.00	27.50	27.40	1580042340.0	10.79	19.98
26/01/2020 12:39:01	26012020	260120	123901	100.050	12.389627	-57.103208	100.130	-0.510	0.120	0.830	100.080	-1.200	1.300																			1580042341.0	10.88	20.15
26/01/2020 12:39:02	26012020	260120	123902	100.160	12.389615	-57.103158	100.280	-0.250	0.040	0.690	100.190	-1.300	1.200																			1580042342.0	11.17	20.69
26/01/2020 12:39:03	26012020	260120	123903	100.390	12.389603	-57.103107	100.590	-0.040	0.210	0.400	100.450	-1.200	0.900																			1580042343.0	10.99	20.35
26/01/2020 12:39:04	26012020	260120	123904	100.770	12.389595	-57.103058	100.980	0.100	0.420	0.020	100.840	-1.000	0.600																			1580042344.0	10.50	19.45
26/01/2020 12:39:05	26012020	260120	123905	101.130	12.389587	-57.103010	101.270	0.250	0.230	-0.180	101.200	-1.000	0.300																			1580042345.0	10.37	19.21
26/01/2020 12:39:06	26012020	260120	123906	101.380	12.389580	-57.102960	101.430	0.430	-0.370	-0.040	101.410	-1.500	0.300																			1580042346.0	10.74	19.89
26/01/2020 12:39:07	26012020	260120	123907	101.450	12.389570	-57.102908	101.400	0.520	-0.870	0.290	101.440	-2.100	0.600																			1580042347.0	11.07	20.50
26/01/2020 12:39:08	26012020	260120	123908	101.360	12.389560	-57.102857	101.260	0.440	-1.020	0.640	101.330	-2.300	0.900																			1580042348.0	10.91	20.21
26/01/2020 12:39:09	26012020	260120	123909	101.150	12.389550	-57.102808	101.000	0.260	-0.990	1.030	101.090	-2.400	1.300																			1580042349.0	10.69	19.80
26/01/2020 12:39:10	26012020	260120	123910	100.880	12.389538	-57.102758	100.760	0.050	-0.870	1.280	100.830	-2.300	1.600																			1580042350.0	10.82	20.04
26/01/2020 12:39:11	26012020	260120	123911	100.660	12.389525	-57.102708	100.560	-0.180	-0.530	1.350	100.610	-2.000	1.800																			1580042351.0	10.94	20.26
26/01/2020 12:39:12	26012020	260120	123912	100.450	12.389513	-57.102658	100.380	-0.410	0.010	1.210	100.420	-1.600	1.700																			1580042352.0	10.84	20.08
26/01/2020 12:39:13	26012020	260120	123913	100.360	12.389503	-57.102608	100.350	-0.540	0.460	0.890	100.340	-1.000	1.400																			1580042353.0	10.65	19.72
26/01/2020 12:39:14	26012020	260120	123914	100.380	12.389492	-57.102558	100.490	-0.470	0.450	0.630	100.400	-0.900	1.100																			1580042354.0	10.79	19.98
26/01/2020 12:39:15	26012020	260120	123915	100.510	12.389482	-57.102508	100.710	-0.240	0.240	0.370	100.560	-1.000	0.900																			1580042355.0	11.13	20.61
26/01/2020 12:39:16	26012020	260120	123916	100.800	12.389472	-57.102457	100.940	-0.010	0.130	0.090	100.840	-1.200	0.600																			1580042356.0	11.08	20.52
26/01/2020 12:39:17	26012020	260120	123917	101.030	12.389463	-57.102407	101.150	0.090	0.100	0.090	101.060	-1.200	0.400																			1580042357.0	10.75	19.91
26/01/2020 12:39:18	26012020	260120	123918	101.190	12.389453	-57.102357	101.270	0.090	-0.060	0.460	101.210	-1.300	0.700																			1580042358.0	10.52	19.48
26/01/2020 12:39:19	26012020	260120	123919	101.260	12.389442	-57.102308	101.280	0.170	-0.490	0.790	101.260	-1.600	1.100																			1580042359.0	10.60	19.63
26/01/2020 12:39:20	26012020	260120	123920	101.220	12.389430	-57.102258	101.140	0.380	-1.010	0.950	101.190	-2.200	1.300																			1580042360.0	10.93	20.24
26/01/2020 12:39:21	26012020	260120	123921	101.010	12.389420	-57.102207	100.860	0.580	-1.230	1.070	100.950	-2.500	1.400																			1580042361.0	11.12	20.59
26/01/2020 12:39:22	26012020	260120	123922	100.710	12.389410	-57.102155	100.570	0.550	-0.940	1.120	100.650	-2.400	1.500																			1580042362.0	10.95	20.28
26/01/2020 12:39:23	26012020	260120	123923	100.470	12.389400	-57.102107	100.420	0.220	-0.350	1.040	100.440	-1.900	1.500																			1580042363.0	10.63	19.69
26/01/2020 12:39:24	26012020	260120	123924	100.380	12.389392	-57.102058	100.370	-0.240	0.190	0.950	100.370	-1.300	1.400																			1580042364.0	10.47	19.39
26/01/2020 12:39:25	26012020	260120	123925	100.360	12.389382	-57.102008	100.330	-0.580	0.360	0.990	100.340	-1.000	1.400																			1580042365.0	10.61	19.65
26/01/2020 12:39:26	26012020	260120	123926	100.300	12.389368	-57.101958	100.330	-0.630	0.150	1.070	100.300	-1.100	1.500																			1580042366.0	11.03	20.43
26/01/2020 12:39:27	26012020	260120	123927	100.360	12.389357	-57.101907	100.490	-0.510	-0.060	1.050	100.400	-1.300	1.500																			1580042367.0	11.32	20.96
26/01/2020 12:39:28	26012020	260120	123928	100.580	12.389343	-57.101855	100.720	-0.330	-0.050	0.940	100.620	-1.400	1.400																			1580042368.0	11.08	20.52
26/01/2020 12:39:29	26012020	260120	123929	100.820	12.389333	-57.101805	100.940	-0.050	0.010	0.760	100.860	-1.400	1.200																			1580042369.0	10.73	19.87
26/01/2020 12:39:30	26012020	260120	123930	101.030	12.389323	-57.101757	101.100	0.270	-0.040	0.560	101.060	-1.300	1.000																			1580042370.0	10.62	19.67
26/01/2020 12:39:31	26012020	260120	123931	101.160	12.389315	-57.101707	101.200	0.480	-0.210	0.310	101.180	-1.500	0.800																			1580042371.0	10.73	19.87
26/01/2020 12:39:32	26012020	260120	123932	101.250	12.389307	-57.101657	101.240	0.470	-0.330	0.240	101.260	-1.600	0.600																			1580042372.0	10.75	19.91
26/01/2020 12:39:33	26012020	260120	123933	101.210	12.389300	-57.101607	101.130	0.400	-0.530	0.420	101.180	-1.800	0.700																			1580042373.0	10.65	19.72
26/01/2020 12:39:34	26012020	260120	123934	101.050	12.389290	-57.101555	100.950	0.410	-0.890	0.730	101.010	-2.100	1.000																			1580042374.0	10.88	20.15
26/01/2020 12:39:35	26012020	260120	123935	100.880	12.389278	-57.101503	100.820	0.420	-0.970	1.030	100.850	-2.400	1.300																			1580042375.0	11.19	20.72
26/01/2020 12:39:36	26012020	260120	123936	100.770	12.389267	-57.101453	100.760	0.150	-0.430	1.130	100.770	-2.000	1.500																			1580042376.0	10.96	20.30
26/01/2020 12:39:37	26012020	260120	123937	100.750	12.389257	-57.101407	100.710	-0.420	0.300	1.120	100.730	-1.300	1.500																			1580042377.0	10.31	19.09
26/01/2020 12:39:38	26012020	260120	123938	100.660	12.389245	-57.101358	100.590	-0.810	0.380	1.120	100.630	-0.900	1.500																			1580042378.0	10.23	18.95
26/01/2020 12:39:39	26012020	260120	123939	100.520	12.389233	-57.101308	100.480	-0.610	-0.330	1.020	100.500	-1.400	1.500																			1580042379.0	11.07	20.50
26/01/2020 12:39:40	26012020	260120	123940	100.470	12.389222	-57.101253	100.530	-0.140	-0.780	0.830	100.480	-2.100	1.300																			1580042380.0	11.89	22.02
26/01/2020 12:39:41	26012020	260120	123941	100.600	12.389210	-57.101200	100.710	0.020	-0.270	0.670	100.630	-1.900	1.100																			1580042381.0	11.33	20.98
26/01/2020 12:39:42	26012020	260120	123942	100.770	12.389200	-57.101153	100.850	-0.170	0.560	0.550	100.800	-1.100	1.000																			1580042382.0	10.15	18.80
26/01/2020 12:39:43	26012020	260120	123943	100.900	12.389190	-57.101108	100.960	-0.260	0.660	0.480	100.920	-0.600	0.900																			1580042383.0	9.89	18.32
26/01/2020 12:39:44	26012020	260120	123944	101.020	12.389180	-57.101058	101.070	0.010	-0.050	0.390	101.050	-1.100	0.800																			1580042384.0	10.71	19.83
26/01/2020 12:39:45	26012020	260120	123945	101.100	12.389172	-57.101005	101.060	0.440	-0.740	0.380	101.100	-1.900	0.800																			1580042385.0	11.42	21.15
26/01/2020 12:39:46	26012020	260120	123946	101.040	12.389162	-57.100953	101.010	0.690	-0.880	0.510	101.020	-2.200	0.800																			1580042386.0	11.20	20.74
26/01/2020 12:39:47	26012020	260120	123947	100.970	12.389152	-57.100903	100.920	0.660	-0.660	0.840	100.950	-2.100	1.100																			1580042387.0	10.66	19.74
26/01/2020 12:39:48	26012020	260120	123948	100.850	12.389142	-57.100855	100.780	0.390	-0.340	1.130	100.820	-1.800	1.400																			1580042388.0	10.47	19.39
26/01/2020 12:39:49	26012020	260120	123949	100.710	12.389132	-57.100807	100.680	0.010	-0.030	1.130	100.700	-1.500	1.600																			1580042389.0	10.45	19.35
26/01/2020 12:39:50	26012020	260120	123950	100.670	12.389123	-57.100758	100.710	-0.320	0.050	1.010	100.680	-1.300	1.400																			1580042390.0	10.51	19.46
26/01/2020 12:39:51	26012020	260120	123951	100.730	12.389113	-57.100708	100.780	-0.480	-0.160	1.020	100.760	-1.400	1.400																			1580042391.0	10.80	20.00
26/01/2020 12:39:52	26012020	260120	123952	100.800	12.389100	-57.100657	100.770	-0.430	-0.510	1.040	100.790	-1.700	1.400																			1580042392.0	11.12	20.59
26/01/2020 12:39:53	26012020	260120	123953	100.710	12.389088	-57.100605	100.640	-0.220	-0.660	1.140	100.680	-2.000	1.500																			1580042393.0	11.26	20.85
26/01/2020 12:39:54	26012020	260120	123954	100.560	12.389075	-57.100555	100.520	-0.010	-0.380	1.190	100.540	-1.900	1.600																			1580042394.0	11.00	20.37
26/01/2020 12:39:55	26012020	260120	123955	100.500	12.389065	-57.100505	100.540	0.060	0.020	1.010	100.500	-1.500	1.500																			1580042395.0	10.59	19.61
26/01/2020 12:39:56	26012020	260120	123956	100.560	12.389057	-57.100457	100.640	0.040	0.140	0.700	100.590	-1.200	1.200																			1580042396.0	10.51	19.46
26/01/2020 12:39:57	26012020	260120	123957	100.670	12.389048	-57.100407	100.740	0.030	-0.010	0.470	100.700	-1.300	0.900																			1580042397.0	10.84	20.08
26/01/2020 12:39:58	26012020	260120	123958	100.780	12.389040	-57.100355	100.850	-0.030	-0.010	0.410	100.810	-1.400	0.800																			1580042398.0	10.97	20.32
26/01/2020 12:39:59	26012020	260120	123959	100.890	12.389030	-57.100305	100.920	-0.120	0.100	0.470	100.900	-1.300	0.800																			1580042399.0	10.63	19.69
26/01/2020 12:40:00	26012020	260120	124000	100.930	12.389018	-57.100257	100.900	-0.090	-0.110	0.660	100.920	-1.300	1.000	1016.30	26.10	26.10	18.30	18.50	425.00	62.00	62.00	376.00	27.20	349.00	11.70	80.00	6.30	30967	3052.00	27.50	27.40	1580042400.0	10.50	19.45
26/01/2020 12:40:01	26012020	260120	124001	100.890	12.389008	-57.100207	100.890	0.130	-0.570	0.780	100.880	-1.800	1.100																			1580042401.0	10.92	20.22
26/01/2020 12:40:02	26012020	260120	124002	100.880	12.388998	-57.100155	100.890	0.350	-0.740	0.750	100.880	-2.100	1.200																			1580042402.0	11.14	20.63
26/01/2020 12:40:03	26012020	260120	124003	100.880	12.388988	-57.100105	100.860	0.410	-0.560	0.670	100.870	-2.000	1.100																			1580042403.0	10.80	20.00
26/01/2020 12:40:04	26012020	260120	124004	100.770	12.388980	-57.100055	100.700	0.300	-0.390	0.740	100.730	-1.800	1.100																			1580042404.0	10.58	19.59
26/01/2020 12:40:05	26012020	260120	124005	100.630	12.388970	-57.100005	100.590	0.070	-0.320	0.840	100.600	-1.700	1.200																			1580042405.0	10.75	19.91
26/01/2020 12:40:06	26012020	260120	124006	100.510	12.388958	-57.099955	100.520	-0.190	-0.190	0.930	100.500	-1.600	1.300																			1580042406.0	10.88	20.15
26/01/2020 12:40:07	26012020	260120	124007	100.440	12.388948	-57.099907	100.430	-0.320	-0.050	0.990	100.430	-1.400	1.400																			1580042407.0	10.76	19.93
26/01/2020 12:40:08	26012020	260120	124008	100.360	12.388937	-57.099857	100.350	-0.280	-0.070	0.970	100.340	-1.400	1.400																			1580042408.0	10.84	20.08
26/01/2020 12:40:09	26012020	260120	124009	100.320	12.388925	-57.099805	100.370	-0.150	-0.180	0.840	100.320	-1.500	1.300																			1580042409.0	11.01	20.39
26/01/2020 12:40:10	26012020	260120	124010	100.370	12.388915	-57.099753	100.470	-0.060	-0.230	0.710	100.390	-1.600	1.200																			1580042410.0	11.04	20.45
26/01/2020 12:40:11	26012020	260120	124011	100.480	12.388905	-57.099703	100.600	-0.030	-0.120	0.610	100.500	-1.500	1.000																			1580042411.0	10.89	20.17
26/01/2020 12:40:12	26012020	260120	124012	100.600	12.388897	-57.099653	100.730	-0.050	0.070	0.540	100.640	-1.300	1.000																			1580042412.0	10.64	19.71
26/01/2020 12:40:13	26012020	260120	124013	100.760	12.388887	-57.099605	100.900	-0.030	-0.010	0.520	100.790	-1.300	0.900																			1580042413.0	10.56	19.56
26/01/2020 12:40:14	26012020	260120	124014	100.930	12.388877	-57.099555	101.060	0.050	-0.330	0.580	100.970	-1.600	0.900																			1580042414.0	10.87	20.13
26/01/2020 12:40:15	26012020	260120	124015	101.070	12.388867	-57.099503	101.110	0.070	-0.470	0.720	101.070	-1.800	1.100																			1580042415.0	11.03	20.43
26/01/2020 12:40:16	26012020	260120	124016	101.030	12.388855	-57.099453	100.960	0.030	-0.400	0.970	101.000	-1.800	1.300																			1580042416.0	10.76	19.93
26/01/2020 12:40:17	26012020	260120	124017	100.810	12.388843	-57.099405	100.710	0.120	-0.480	1.250	100.760	-1.800	1.600																			1580042417.0	10.64	19.71
26/01/2020 12:40:18	26012020	260120	124018	100.540	12.388833	-57.099353	100.480	0.320	-0.720	1.280	100.500	-2.000	1.700																			1580042418.0	11.02	20.41
26/01/2020 12:40:19	26012020	260120	124019	100.380	12.388823	-57.099302	100.410	0.410	-0.600	1.030	100.380	-2.100	1.500																			1580042419.0	11.27	20.87
26/01/2020 12:40:20	26012020	260120	124020	100.400	12.388815	-57.099250	100.450	0.250	-0.040	0.760	100.420	-1.600	1.300																			1580042420.0	10.82	20.04
26/01/2020 12:40:21	26012020	260120	124021	100.460	12.388807	-57.099202	100.490	-0.020	0.330	0.580	100.470	-1.100	1.100																			1580042421.0	10.40	19.26
26/01/2020 12:40:22	26012020	260120	124022	100.530	12.388798	-57.099153	100.600	-0.210	0.260	0.520	100.560	-1.000	0.900																			1580042422.0	10.68	19.78
26/01/2020 12:40:23	26012020	260120	124023	100.720	12.388788	-57.099102	100.870	-0.300	-0.010	0.630	100.780	-1.300	1.000																			1580042423.0	11.03	20.43
26/01/2020 12:40:24	26012020	260120	124024	100.980	12.388777	-57.099050	101.110	-0.300	-0.260	0.810	101.030	-1.500	1.100																			1580042424.0	11.07	20.50
26/01/2020 12:40:25	26012020	260120	124025	101.160	12.388763	-57.099000	101.190	-0.310	-0.350	0.960	101.170	-1.700	1.300																			1580042425.0	10.99	20.35
26/01/2020 12:40:26	26012020	260120	124026	101.170	12.388752	-57.098950	101.160	-0.330	-0.320	1.010	101.170	-1.700	1.400																			1580042426.0	10.74	19.89
26/01/2020 12:40:27	26012020	260120	124027	101.130	12.388742	-57.098902	101.060	-0.260	-0.370	0.930	101.110	-1.700	1.400																			1580042427.0	10.65	19.72
26/01/2020 12:40:28	26012020	260120	124028	100.990	12.388730	-57.098852	100.920	-0.020	-0.520	0.730	100.970	-1.800	1.200																			1580042428.0	10.82	20.04
26/01/2020 12:40:29	26012020	260120	124029	100.860	12.388722	-57.098800	100.780	0.290	-0.670	0.390	100.830	-2.000	0.900																			1580042429.0	11.04	20.45
26/01/2020 12:40:30	26012020	260120	124030	100.710	12.388713	-57.098748	100.640	0.520	-0.670	0.220	100.680	-2.100	0.700																			1580042430.0	11.15	20.65
26/01/2020 12:40:31	26012020	260120	124031	100.560	12.388705	-57.098697	100.520	0.540	-0.280	0.270	100.540	-1.800	0.600																			1580042431.0	11.05	20.46
26/01/2020 12:40:32	26012020	260120	124032	100.480	12.388695	-57.098647	100.480	0.290	0.290	0.410	100.470	-1.300	0.800																			1580042432.0	10.60	19.63
26/01/2020 12:40:33	26012020	260120	124033	100.490	12.388687	-57.098598	100.570	0.030	0.420	0.590	100.510	-0.900	0.900																			1580042433.0	10.43	19.32
26/01/2020 12:40:34	26012020	260120	124034	100.640	12.388675	-57.098548	100.780	-0.060	0.060	0.780	100.680	-1.100	1.100																			1580042434.0	10.95	20.28
26/01/2020 12:40:35	26012020	260120	124035	100.860	12.388665	-57.098497	101.020	-0.090	-0.240	0.970	100.910	-1.500	1.300																			1580042435.0	11.30	20.93
26/01/2020 12:40:36	26012020	260120	124036	101.100	12.388653	-57.098445	101.250	-0.230	-0.300	1.100	101.140	-1.700	1.500																			1580042436.0	11.07	20.50
26/01/2020 12:40:37	26012020	260120	124037	101.240	12.388642	-57.098395	101.320	-0.430	-0.190	1.220	101.250	-1.600	1.600																			1580042437.0	10.71	19.83
26/01/2020 12:40:38	26012020	260120	124038	101.220	12.388628	-57.098348	101.200	-0.560	-0.150	1.240	101.200	-1.500	1.700																			1580042438.0	10.53	19.50
26/01/2020 12:40:39	26012020	260120	124039	101.060	12.388617	-57.098298	101.000	-0.430	-0.460	1.050	101.030	-1.700	1.500																			1580042439.0	10.68	19.78
26/01/2020 12:40:40	26012020	260120	124040	100.840	12.388607	-57.098247	100.740	-0.010	-0.900	0.830	100.790	-2.100	1.300																			1580042440.0	11.16	20.67
26/01/2020 12:40:41	26012020	260120	124041	100.660	12.388597	-57.098193	100.560	0.390	-0.910	0.540	100.620	-2.300	1.100																			1580042441.0	11.36	21.04
26/01/2020 12:40:42	26012020	260120	124042	100.500	12.388588	-57.098143	100.500	0.510	-0.420	0.280	100.490	-2.000	0.800																			1580042442.0	10.93	20.24
26/01/2020 12:40:43	26012020	260120	124043	100.490	12.388582	-57.098093	100.530	0.400	0.090	0.160	100.500	-1.400	0.600																			1580042443.0	10.51	19.46
26/01/2020 12:40:44	26012020	260120	124044	100.560	12.388573	-57.098045	100.630	0.240	0.240	0.290	100.580	-1.100	0.600																			1580042444.0	10.62	19.67
26/01/2020 12:40:45	26012020	260120	124045	100.680	12.388562	-57.097993	100.780	0.120	0.110	0.640	100.710	-1.200	0.900																			1580042445.0	10.99	20.35
26/01/2020 12:40:46	26012020	260120	124046	100.840	12.388552	-57.097942	100.960	-0.010	-0.030	0.850	100.880	-1.400	1.200																			1580042446.0	11.16	20.67
26/01/2020 12:40:47	26012020	260120	124047	101.030	12.388540	-57.097892	101.130	-0.170	-0.020	0.940	101.060	-1.400	1.300																			1580042447.0	10.99	20.35
26/01/2020 12:40:48	26012020	260120	124048	101.180	12.388528	-57.097842	101.270	-0.310	-0.040	1.020	101.210	-1.400	1.400																			1580042448.0	10.74	19.89
26/01/2020 12:40:49	26012020	260120	124049	101.280	12.388518	-57.097792	101.320	-0.350	-0.200	1.020	101.280	-1.500	1.400																			1580042449.0	10.76	19.93
26/01/2020 12:40:50	26012020	260120	124050	101.290	12.388507	-57.097742	101.300	-0.320	-0.400	0.950	101.290	-1.700	1.400																			1580042450.0	10.90	20.19
26/01/2020 12:40:51	26012020	260120	124051	101.230	12.388495	-57.097692	101.180	-0.230	-0.540	0.890	101.210	-1.900	1.300																			1580042451.0	10.90	20.19
26/01/2020 12:40:52	26012020	260120	124052	101.100	12.388485	-57.097642	101.060	-0.070	-0.630	0.700	101.070	-2.000	1.200																			1580042452.0	10.89	20.17
26/01/2020 12:40:53	26012020	260120	124053	101.020	12.388475	-57.097590	101.010	0.120	-0.580	0.560	101.010	-2.000	1.000																			1580042453.0	10.92	20.22
26/01/2020 12:40:54	26012020	260120	124054	100.990	12.388463	-57.097540	101.030	0.240	-0.390	0.410	101.000	-1.800	0.900																			1580042454.0	10.88	20.15
26/01/2020 12:40:55	26012020	260120	124055	101.050	12.388455	-57.097490	101.130	0.260	-0.180	0.260	101.070	-1.600	0.700																			1580042455.0	10.79	19.98
26/01/2020 12:40:56	26012020	260120	124056	101.140	12.388445	-57.097440	101.150	0.250	-0.100	0.410	101.150	-1.500	0.700																			1580042456.0	10.81	20.02
26/01/2020 12:40:57	26012020	260120	124057	101.130	12.388435	-57.097388	101.150	0.250	-0.160	0.700	101.130	-1.500	1.000																			1580042457.0	10.98	20.33
26/01/2020 12:40:58	26012020	260120	124058	101.140	12.388423	-57.097337	101.190	0.220	-0.240	0.830	101.140	-1.600	1.200																			1580042458.0	11.11	20.58
26/01/2020 12:40:59	26012020	260120	124059	101.180	12.388413	-57.097285	101.260	0.120	-0.280	0.980	101.200	-1.600	1.300																			1580042459.0	11.13	20.61
26/01/2020 12:41:00	26012020	260120	124100	101.270	12.388402	-57.097235	101.370	-0.110	-0.090	1.050	101.290	-1.600	1.400	1016.30	26.10	26.20	18.00	18.10	428.00	61.00	61.00	375.00	27.20	348.00	11.30	78.00	5.90	31163	3014.00	27.50	27.50	1580042460.0	11.03	20.43
26/01/2020 12:41:01	26012020	260120	124101	101.410	12.388392	-57.097185	101.520	-0.430	0.270	0.900	101.440	-1.200	1.400																			1580042461.0	10.70	19.82
26/01/2020 12:41:02	26012020	260120	124102	101.540	12.388382	-57.097137	101.640	-0.640	0.350	0.810	101.560	-1.000	1.200																			1580042462.0	10.43	19.32
26/01/2020 12:41:03	26012020	260120	124103	101.640	12.388368	-57.097088	101.690	-0.490	-0.110	0.780	101.650	-1.300	1.200																			1580042463.0	10.77	19.95
26/01/2020 12:41:04	26012020	260120	124104	101.640	12.388357	-57.097037	101.610	-0.040	-0.720	0.700	101.620	-1.900	1.100																			1580042464.0	11.30	20.93
26/01/2020 12:41:05	26012020	260120	124105	101.520	12.388345	-57.096983	101.500	0.420	-0.950	0.550	101.500	-2.300	1.000																			1580042465.0	11.40	21.11
26/01/2020 12:41:06	26012020	260120	124106	101.440	12.388335	-57.096932	101.480	0.600	-0.600	0.350	101.440	-2.200	0.800																			1580042466.0	11.01	20.39
26/01/2020 12:41:07	26012020	260120	124107	101.480	12.388327	-57.096883	101.520	0.380	0.020	0.240	101.490	-1.600	0.700																			1580042467.0	10.43	19.32
26/01/2020 12:41:08	26012020	260120	124108	101.530	12.388317	-57.096837	101.490	0.010	0.230	0.320	101.510	-1.100	0.700																			1580042468.0	10.23	18.95
26/01/2020 12:41:09	26012020	260120	124109	101.390	12.388307	-57.096787	101.290	-0.110	-0.200	0.690	101.340	-1.400	0.900																			1580042469.0	10.76	19.93
26/01/2020 12:41:10	26012020	260120	124110	101.200	12.388295	-57.096733	101.180	0.030	-0.720	1.050	101.170	-1.900	1.300																			1580042470.0	11.49	21.28
26/01/2020 12:41:11	26012020	260120	124111	101.120	12.388282	-57.096680	101.140	0.130	-0.790	1.280	101.110	-2.200	1.600																			1580042471.0	11.52	21.34
26/01/2020 12:41:12	26012020	260120	124112	101.060	12.388270	-57.096630	101.060	-0.050	-0.380	1.380	101.040	-1.900	1.800																			1580042472.0	11.04	20.45
26/01/2020 12:41:13	26012020	260120	124113	100.980	12.388258	-57.096582	100.990	-0.360	0.080	1.330	100.970	-1.400	1.800																			1580042473.0	10.58	19.59
26/01/2020 12:41:14	26012020	260120	124114	100.950	12.388247	-57.096532	101.010	-0.460	0.260	1.090	100.960	-1.100	1.600																			1580042474.0	10.62	19.67
26/01/2020 12:41:15	26012020	260120	124115	100.980	12.388235	-57.096482	101.030	-0.220	0.110	0.760	100.990	-1.200	1.300																			1580042475.0	10.91	20.21
26/01/2020 12:41:16	26012020	260120	124116	101.040	12.388227	-57.096430	101.150	0.080	-0.090	0.470	101.060	-1.400	1.000																			1580042476.0	11.21	20.76
26/01/2020 12:41:17	26012020	260120	124117	101.230	12.388217	-57.096378	101.390	0.160	-0.080	0.370	101.280	-1.500	0.800																			1580042477.0	11.08	20.52
26/01/2020 12:41:18	26012020	260120	124118	101.490	12.388207	-57.096328	101.630	0.050	0.020	0.440	101.530	-1.400	0.800																			1580042478.0	10.69	19.80
26/01/2020 12:41:19	26012020	260120	124119	101.660	12.388195	-57.096280	101.740	0.000	-0.070	0.630	101.680	-1.400	0.900																			1580042479.0	10.54	19.52
26/01/2020 12:41:20	26012020	260120	124120	101.720	12.388183	-57.096230	101.750	0.120	-0.380	0.840	101.720	-1.600	1.200																			1580042480.0	10.77	19.95
26/01/2020 12:41:21	26012020	260120	124121	101.680	12.388173	-57.096180	101.660	0.300	-0.700	0.910	101.670	-1.900	1.300																			1580042481.0	11.01	20.39
26/01/2020 12:41:22	26012020	260120	124122	101.540	12.388162	-57.096128	101.430	0.410	-0.880	0.940	101.490	-2.200	1.300																			1580042482.0	11.04	20.45
26/01/2020 12:41:23	26012020	260120	124123	101.220	12.388152	-57.096077	101.060	0.360	-0.870	1.100	101.140	-2.300	1.400																			1580042483.0	11.06	20.48
26/01/2020 12:41:24	26012020	260120	124124	100.870	12.388142	-57.096027	100.800	0.110	-0.510	1.130	100.820	-2.000	1.500																			1580042484.0	10.97	20.32
26/01/2020 12:41:25	26012020	260120	124125	100.720	12.388132	-57.095977	100.770	-0.220	-0.000	1.010	100.720	-1.500	1.500																			1580042485.0	10.69	19.80
26/01/2020 12:41:26	26012020	260120	124126	100.750	12.388120	-57.095928	100.760	-0.430	0.190	0.960	100.740	-1.200	1.400																			1580042486.0	10.63	19.69
26/01/2020 12:41:27	26012020	260120	124127	100.660	12.388108	-57.095877	100.600	-0.420	-0.030	1.010	100.630	-1.300	1.400																			1580042487.0	11.07	20.50
26/01/2020 12:41:28	26012020	260120	124128	100.510	12.388097	-57.095825	100.520	-0.270	-0.210	1.140	100.500	-1.500	1.500																			1580042488.0	11.45	21.21
26/01/2020 12:41:29	26012020	260120	124129	100.530	12.388083	-57.095773	100.680	-0.180	-0.040	1.230	100.560	-1.500	1.600																			1580042489.0	11.25	20.84
26/01/2020 12:41:30	26012020	260120	124130	100.790	12.388072	-57.095723	101.040	-0.210	0.260	1.070	100.870	-1.200	1.600																			1580042490.0	10.73	19.87
26/01/2020 12:41:31	26012020	260120	124131	101.110	12.388062	-57.095675	101.370	-0.200	0.370	0.780	101.180	-1.000	1.300																			1580042491.0	10.49	19.43
26/01/2020 12:41:32	26012020	260120	124132	101.440	12.388052	-57.095627	101.500	0.020	0.110	0.660	101.470	-1.100	1.100																			1580042492.0	10.57	19.58
26/01/2020 12:41:33	26012020	260120	124133	101.510	12.388042	-57.095575	101.500	0.470	-0.490	0.620	101.510	-1.600	1.000																			1580042493.0	10.93	20.24
26/01/2020 12:41:34	26012020	260120	124134	101.470	12.388032	-57.095523	101.390	0.850	-0.950	0.600	101.450	-2.200	1.000																			1580042494.0	11.27	20.87
26/01/2020 12:41:35	26012020	260120	124135	101.290	12.388023	-57.095472	101.170	0.850	-0.980	0.700	101.240	-2.400	1.000																			1580042495.0	11.13	20.61
26/01/2020 12:41:36	26012020	260120	124136	101.060	12.388017	-57.095420	100.980	0.460	-0.670	0.980	101.010	-2.200	1.300																			1580042496.0	10.77	19.95
26/01/2020 12:41:37	26012020	260120	124137	100.900	12.388007	-57.095372	100.890	-0.110	-0.280	1.350	100.870	-1.800	1.600																			1580042497.0	10.57	19.58
26/01/2020 12:41:38	26012020	260120	124138	100.810	12.387995	-57.095323	100.810	-0.570	-0.090	1.590	100.790	-1.500	1.900																			1580042498.0	10.65	19.72
26/01/2020 12:41:39	26012020	260120	124139	100.670	12.387980	-57.095273	100.600	-0.730	-0.230	1.730	100.620	-1.500	2.100																			1580042499.0	11.02	20.41
26/01/2020 12:41:40	26012020	260120	124140	100.380	12.387967	-57.095220	100.290	-0.580	-0.470	1.730	100.320	-1.800	2.200																			1580042500.0	11.44	21.19
26/01/2020 12:41:41	26012020	260120	124141	100.120	12.387953	-57.095168	100.150	-0.340	-0.370	1.400	100.100	-1.800	2.000																			1580042501.0	11.51	21.32
26/01/2020 12:41:42	26012020	260120	124142	100.120	12.387943	-57.095117	100.270	-0.210	0.160	0.880	100.150	-1.400	1.500																			1580042502.0	11.01	20.39
26/01/2020 12:41:43	26012020	260120	124143	100.270	12.387935	-57.095068	100.470	-0.180	0.530	0.390	100.310	-0.900	1.000																			1580042503.0	10.49	19.43
26/01/2020 12:41:44	26012020	260120	124144	100.560	12.387927	-57.095018	100.730	-0.080	0.430	0.150	100.620	-0.900	0.600																			1580042504.0	10.66	19.74
26/01/2020 12:41:45	26012020	260120	124145	100.780	12.387918	-57.094967	100.980	0.120	0.050	0.150	100.830	-1.200	0.500																			1580042505.0	10.98	20.33
26/01/2020 12:41:46	26012020	260120	124146	101.090	12.387908	-57.094915	101.250	0.350	-0.270	0.260	101.140	-1.500	0.600																			1580042506.0	11.09	20.54
26/01/2020 12:41:47	26012020	260120	124147	101.340	12.387898	-57.094865	101.440	0.490	-0.410	0.420	101.380	-1.700	0.800																			1580042507.0	10.87	20.13
26/01/2020 12:41:48	26012020	260120	124148	101.470	12.387888	-57.094815	101.480	0.500	-0.520	0.600	101.480	-1.800	0.900																			1580042508.0	10.65	19.72
26/01/2020 12:41:49	26012020	260120	124149	101.400	12.387878	-57.094765	101.300	0.400	-0.680	0.850	101.360	-2.000	1.100																			1580042509.0	10.73	19.87
26/01/2020 12:41:50	26012020	260120	124150	101.150	12.387868	-57.094715	100.990	0.230	-0.750	1.140	101.070	-2.100	1.400																			1580042510.0	10.88	20.15
26/01/2020 12:41:51	26012020	260120	124151	100.820	12.387858	-57.094665	100.690	0.060	-0.700	1.260	100.750	-2.100	1.600																			1580042511.0	10.92	20.22
26/01/2020 12:41:52	26012020	260120	124152	100.530	12.387848	-57.094613	100.420	-0.080	-0.670	1.290	100.480	-2.000	1.700																			1580042512.0	10.97	20.32
26/01/2020 12:41:53	26012020	260120	124153	100.270	12.387837	-57.094562	100.180	-0.140	-0.620	1.270	100.220	-2.000	1.700																			1580042513.0	11.19	20.72
26/01/2020 12:41:54	26012020	260120	124154	100.030	12.387825	-57.094510	99.920	-0.190	-0.340	1.170	99.980	-1.900	1.600																			1580042514.0	11.29	20.91
26/01/2020 12:41:55	26012020	260120	124155	99.790	12.387813	-57.094460	99.740	-0.350	0.220	1.000	99.760	-1.400	1.500																			1580042515.0	11.02	20.41
26/01/2020 12:41:56	26012020	260120	124156	99.710	12.387803	-57.094410	99.840	-0.560	0.650	0.780	99.740	-0.800	1.300																			1580042516.0	10.71	19.83
26/01/2020 12:41:57	26012020	260120	124157	99.990	12.387795	-57.094360	100.300	-0.690	0.650	0.580	100.090	-0.700	1.000																			1580042517.0	10.78	19.96
26/01/2020 12:41:58	26012020	260120	124158	100.540	12.387783	-57.094308	100.820	-0.630	0.330	0.500	100.650	-0.900	0.900																			1580042518.0	11.01	20.39
26/01/2020 12:41:59	26012020	260120	124159	100.990	12.387770	-57.094258	101.140	-0.350	-0.010	0.600	101.040	-1.300	0.900																			1580042519.0	11.07	20.50
26/01/2020 12:42:00	26012020	260120	124200	101.160	12.387758	-57.094208	101.190	0.110	-0.300	0.790	101.170	-1.600	1.100	1016.30	26.20	26.20	18.30	18.40	423.00	62.00	62.00	375.00	27.20	346.00	11.50	74.00	6.30	31108	3248.00	27.50	27.50	1580042520.0	10.89	20.17
26/01/2020 12:42:01	26012020	260120	124201	101.130	12.387747	-57.094158	101.080	0.680	-0.740	0.760	101.100	-1.900	1.200																			1580042521.0	10.82	20.04
26/01/2020 12:42:02	26012020	260120	124202	100.960	12.387740	-57.094105	100.900	1.130	-1.090	0.530	100.920	-2.400	1.000																			1580042522.0	11.14	20.63
26/01/2020 12:42:03	26012020	260120	124203	100.830	12.387735	-57.094053	100.820	1.100	-0.850	0.300	100.820	-2.400	0.800																			1580042523.0	11.12	20.59
26/01/2020 12:42:04	26012020	260120	124204	100.780	12.387728	-57.094005	100.770	0.580	-0.220	0.420	100.780	-1.800	0.700																			1580042524.0	10.49	19.43
26/01/2020 12:42:05	26012020	260120	124205	100.750	12.387720	-57.093957	100.700	-0.030	0.050	0.830	100.730	-1.400	1.100																			1580042525.0	10.22	18.93
26/01/2020 12:42:06	26012020	260120	124206	100.570	12.387707	-57.093907	100.410	-0.350	-0.270	1.280	100.500	-1.500	1.500																			1580042526.0	10.85	20.09
26/01/2020 12:42:07	26012020	260120	124207	100.220	12.387693	-57.093853	100.120	-0.390	-0.610	1.520	100.160	-1.900	1.900																			1580042527.0	11.57	21.43
26/01/2020 12:42:08	26012020	260120	124208	100.010	12.387682	-57.093802	100.060	-0.400	-0.440	1.620	100.000	-2.000	2.000																			1580042528.0	11.49	21.28
26/01/2020 12:42:09	26012020	260120	124209	100.040	12.387668	-57.093752	100.190	-0.500	0.020	1.420	100.070	-1.500	1.900																			1580042529.0	10.88	20.15
26/01/2020 12:42:10	26012020	260120	124210	100.250	12.387658	-57.093702	100.410	-0.580	0.320	1.070	100.290	-1.100	1.600																			1580042530.0	10.62	19.67
26/01/2020 12:42:11	26012020	260120	124211	100.430	12.387647	-57.093652	100.540	-0.550	0.290	0.920	100.450	-1.100	1.400																			1580042531.0	10.79	19.98
26/01/2020 12:42:12	26012020	260120	124212	100.570	12.387637	-57.093602	100.700	-0.430	0.190	0.870	100.610	-1.200	1.300																			1580042532.0	10.97	20.32
26/01/2020 12:42:13	26012020	260120	124213	100.730	12.387625	-57.093552	100.840	-0.170	-0.030	0.790	100.770	-1.300	1.200																			1580042533.0	10.82	20.04
26/01/2020 12:42:14	26012020	260120	124214	100.830	12.387615	-57.093502	100.840	0.270	-0.510	0.720	100.830	-1.700	1.200																			1580042534.0	10.91	20.21
26/01/2020 12:42:15	26012020	260120	124215	100.760	12.387605	-57.093448	100.710	0.750	-0.940	0.700	100.730	-2.200	1.100																			1580042535.0	11.22	20.78
26/01/2020 12:42:16	26012020	260120	124216	100.610	12.387597	-57.093397	100.580	1.020	-0.960	0.710	100.590	-2.400	1.100																			1580042536.0	11.20	20.74
26/01/2020 12:42:17	26012020	260120	124217	100.500	12.387590	-57.093345	100.500	0.880	-0.540	0.780	100.480	-2.100	1.200																			1580042537.0	10.88	20.15
26/01/2020 12:42:18	26012020	260120	124218	100.440	12.387582	-57.093297	100.470	0.350	0.070	0.920	100.430	-1.500	1.300																			1580042538.0	10.49	19.43
26/01/2020 12:42:19	26012020	260120	124219	100.440	12.387573	-57.093248	100.510	-0.260	0.380	1.020	100.450	-1.100	1.400																			1580042539.0	10.37	19.21
26/01/2020 12:42:20	26012020	260120	124220	100.480	12.387562	-57.093198	100.520	-0.580	0.180	1.200	100.480	-1.100	1.500																			1580042540.0	10.73	19.87
26/01/2020 12:42:21	26012020	260120	124221	100.470	12.387550	-57.093147	100.460	-0.570	-0.240	1.410	100.450	-1.500	1.800																			1580042541.0	11.26	20.85
26/01/2020 12:42:22	26012020	260120	124222	100.390	12.387537	-57.093095	100.400	-0.450	-0.410	1.360	100.370	-1.800	1.800																			1580042542.0	11.38	21.08
26/01/2020 12:42:23	26012020	260120	124223	100.340	12.387525	-57.093045	100.380	-0.380	-0.210	1.120	100.340	-1.700	1.600																			1580042543.0	10.96	20.30
26/01/2020 12:42:24	26012020	260120	124224	100.360	12.387515	-57.092997	100.410	-0.300	-0.040	0.890	100.370	-1.400	1.400																			1580042544.0	10.53	19.50
26/01/2020 12:42:25	26012020	260120	124225	100.410	12.387505	-57.092947	100.470	-0.030	-0.310	0.640	100.430	-1.500	1.200																			1580042545.0	10.67	19.76
26/01/2020 12:42:26	26012020	260120	124226	100.450	12.387497	-57.092893	100.460	0.360	-0.760	0.450	100.450	-2.000	0.900																			1580042546.0	11.26	20.85
26/01/2020 12:42:27	26012020	260120	124227	100.400	12.387488	-57.092840	100.380	0.540	-0.710	0.560	100.390	-2.200	0.900																			1580042547.0	11.38	21.08
26/01/2020 12:42:28	26012020	260120	124228	100.280	12.387478	-57.092792	100.240	0.370	-0.250	0.840	100.250	-1.800	1.200																			1580042548.0	10.75	19.91
26/01/2020 12:42:29	26012020	260120	124229	100.140	12.387468	-57.092743	100.110	0.130	-0.030	1.020	100.110	-1.400	1.400																			1580042549.0	10.44	19.33
26/01/2020 12:42:30	26012020	260120	124230	100.060	12.387458	-57.092692	100.130	0.040	-0.190	1.120	100.070	-1.500	1.500																			1580042550.0	10.89	20.17
26/01/2020 12:42:31	26012020	260120	124231	100.160	12.387448	-57.092640	100.300	0.010	-0.280	0.970	100.200	-1.700	1.500																			1580042551.0	11.29	20.91
26/01/2020 12:42:32	26012020	260120	124232	100.340	12.387438	-57.092588	100.440	-0.130	0.060	0.890	100.370	-1.500	1.300																			1580042552.0	11.04	20.45
26/01/2020 12:42:33	26012020	260120	124233	100.430	12.387428	-57.092540	100.530	-0.340	0.470	0.920	100.440	-1.000	1.300																			1580042553.0	10.45	19.35
26/01/2020 12:42:34	26012020	260120	124234	100.540	12.387418	-57.092492	100.590	-0.400	0.290	0.940	100.550	-0.900	1.300																			1580042554.0	10.41	19.28
26/01/2020 12:42:35	26012020	260120	124235	100.560	12.387408	-57.092440	100.580	-0.150	-0.420	1.020	100.560	-1.500	1.400																			1580042555.0	11.08	20.52
26/01/2020 12:42:36	26012020	260120	124236	100.570	12.387398	-57.092387	100.670	0.140	-0.770	0.950	100.590	-2.100	1.400																			1580042556.0	11.51	21.32
26/01/2020 12:42:37	26012020	260120	124237	100.700	12.387388	-57.092337	100.790	0.250	-0.500	0.880	100.720	-2.000	1.300																			1580042557.0	10.92	20.22
26/01/2020 12:42:38	26012020	260120	124238	100.780	12.387380	-57.092288	100.790	0.260	-0.330	0.870	100.770	-1.700	1.300																			1580042558.0	10.35	19.17
26/01/2020 12:42:39	26012020	260120	124239	100.670	12.387370	-57.092238	100.630	0.340	-0.590	0.890	100.640	-1.800	1.300																			1580042559.0	10.74	19.89
26/01/2020 12:42:40	26012020	260120	124240	100.510	12.387362	-57.092185	100.460	0.360	-0.770	1.070	100.480	-2.100	1.400																			1580042560.0	11.32	20.96
26/01/2020 12:42:41	26012020	260120	124241	100.370	12.387350	-57.092133	100.370	0.110	-0.390	1.270	100.350	-2.000	1.600																			1580042561.0	11.14	20.63
26/01/2020 12:42:42	26012020	260120	124242	100.310	12.387340	-57.092085	100.360	-0.340	0.210	1.250	100.310	-1.400	1.700																			1580042562.0	10.54	19.52
26/01/2020 12:42:43	26012020	260120	124243	100.340	12.387330	-57.092037	100.430	-0.660	0.360	1.110	100.370	-1.000	1.600																			1580042563.0	10.39	19.24
26/01/2020 12:42:44	26012020	260120	124244	100.440	12.387320	-57.091987	100.520	-0.610	-0.040	1.020	100.460	-1.200	1.500																			1580042564.0	10.95	20.28
26/01/2020 12:42:45	26012020	260120	124245	100.530	12.387307	-57.091933	100.600	-0.260	-0.360	0.900	100.540	-1.700	1.400																			1580042565.0	11.44	21.19
26/01/2020 12:42:46	26012020	260120	124246	100.620	12.387297	-57.091882	100.690	0.070	-0.220	0.650	100.640	-1.700	1.200																			1580042566.0	11.15	20.65
26/01/2020 12:42:47	26012020	260120	124247	100.710	12.387288	-57.091833	100.750	0.240	-0.100	0.350	100.720	-1.500	0.900																			1580042567.0	10.64	19.71
26/01/2020 12:42:48	26012020	260120	124248	100.770	12.387280	-57.091782	100.820	0.370	-0.300	0.230	100.790	-1.600	0.700																			1580042568.0	10.79	19.98
26/01/2020 12:42:49	26012020	260120	124249	100.870	12.387272	-57.091730	100.960	0.460	-0.340	0.300	100.900	-1.800	0.700																			1580042569.0	11.13	20.61
26/01/2020 12:42:50	26012020	260120	124250	101.010	12.387263	-57.091680	101.070	0.350	-0.040	0.470	101.030	-1.600	0.800																			1580042570.0	10.78	19.96
26/01/2020 12:42:51	26012020	260120	124251	101.070	12.387255	-57.091632	101.080	0.100	0.040	0.760	101.070	-1.300	1.000																			1580042571.0	10.40	19.26
26/01/2020 12:42:52	26012020	260120	124252	101.020	12.387243	-57.091582	100.960	-0.060	-0.400	1.170	100.990	-1.600	1.400																			1580042572.0	10.75	19.91
26/01/2020 12:42:53	26012020	260120	124253	100.860	12.387232	-57.091530	100.800	-0.150	-0.850	1.390	100.830	-2.100	1.700																			1580042573.0	11.38	21.08
26/01/2020 12:42:54	26012020	260120	124254	100.670	12.387218	-57.091478	100.570	-0.290	-0.820	1.500	100.620	-2.300	1.900																			1580042574.0	11.33	20.98
26/01/2020 12:42:55	26012020	260120	124255	100.430	12.387207	-57.091428	100.360	-0.410	-0.340	1.450	100.380	-1.900	1.900																			1580042575.0	10.81	20.02
26/01/2020 12:42:56	26012020	260120	124256	100.250	12.387195	-57.091380	100.260	-0.340	0.050	1.120	100.230	-1.400	1.700																			1580042576.0	10.47	19.39
26/01/2020 12:42:57	26012020	260120	124257	100.220	12.387187	-57.091330	100.330	-0.120	0.080	0.730	100.230	-1.300	1.300																			1580042577.0	10.76	19.93
26/01/2020 12:42:58	26012020	260120	124258	100.370	12.387178	-57.091278	100.510	0.050	0.000	0.400	100.410	-1.400	0.900																			1580042578.0	11.10	20.56
26/01/2020 12:42:59	26012020	260120	124259	100.570	12.387170	-57.091227	100.720	0.130	-0.040	0.310	100.620	-1.400	0.700																			1580042579.0	11.04	20.45
26/01/2020 12:43:00	26012020	260120	124300	100.790	12.387160	-57.091177	100.910	0.210	-0.110	0.440	100.820	-1.500	0.800	1016.30	26.10	26.20	18.40	18.50	411.00	62.00	62.00	375.00	27.20	346.00	11.60	74.00	6.30	30771	3157.00	27.50	27.50	1580042580.0	10.88	20.15
26/01/2020 12:43:01	26012020	260120	124301	100.940	12.387150	-57.091125	101.020	0.330	-0.240	0.660	100.960	-1.600	1.000																			1580042581.0	10.89	20.17
26/01/2020 12:43:02	26012020	260120	124302	101.000	12.387140	-57.091075	101.040	0.400	-0.390	0.830	101.010	-1.700	1.200																			1580042582.0	10.96	20.30
26/01/2020 12:43:03	26012020	260120	124303	101.010	12.387130	-57.091023	101.060	0.260	-0.380	0.960	101.020	-1.800	1.300																			1580042583.0	10.96	20.30
26/01/2020 12:43:04	26012020	260120	124304	101.060	12.387122	-57.090973	101.130	-0.070	-0.200	1.010	101.070	-1.600	1.400																			1580042584.0	10.71	19.83
26/01/2020 12:43:05	26012020	260120	124305	101.160	12.387112	-57.090925	101.250	-0.350	-0.200	0.930	101.180	-1.500	1.400																			1580042585.0	10.56	19.56
26/01/2020 12:43:06	26012020	260120	124306	101.230	12.387100	-57.090875	101.220	-0.390	-0.490	0.960	101.220	-1.700	1.300																			1580042586.0	10.89	20.17
26/01/2020 12:43:07	26012020	260120	124307	101.100	12.387087	-57.090823	101.020	-0.240	-0.750	1.100	101.060	-2.100	1.500																			1580042587.0	11.29	20.91
26/01/2020 12:43:08	26012020	260120	124308	100.870	12.387075	-57.090772	100.800	-0.060	-0.580	1.100	100.830	-2.100	1.500																			1580042588.0	11.27	20.87
26/01/2020 12:43:09	26012020	260120	124309	100.720	12.387065	-57.090722	100.760	0.020	-0.080	0.820	100.710	-1.700	1.400																			1580042589.0	10.82	20.04
26/01/2020 12:43:10	26012020	260120	124310	100.810	12.387057	-57.090672	100.950	-0.000	0.280	0.440	100.860	-1.200	1.000																			1580042590.0	10.55	19.54
26/01/2020 12:43:11	26012020	260120	124311	101.030	12.387048	-57.090622	101.130	-0.040	0.240	0.300	101.060	-1.100	0.700																			1580042591.0	10.74	19.89
26/01/2020 12:43:12	26012020	260120	124312	101.150	12.387038	-57.090570	101.220	-0.040	0.000	0.390	101.170	-1.300	0.700																			1580042592.0	11.05	20.46
26/01/2020 12:43:13	26012020	260120	124313	101.220	12.387028	-57.090518	101.270	0.050	-0.260	0.630	101.220	-1.500	0.900																			1580042593.0	11.10	20.56
26/01/2020 12:43:14	26012020	260120	124314	101.260	12.387017	-57.090468	101.290	0.240	-0.410	0.800	101.260	-1.800	1.200																			1580042594.0	11.05	20.46
26/01/2020 12:43:15	26012020	260120	124315	101.270	12.387007	-57.090418	101.340	0.340	-0.400	0.660	101.280	-1.800	1.100																			1580042595.0	10.93	20.24
26/01/2020 12:43:16	26012020	260120	124316	101.350	12.386998	-57.090367	101.440	0.250	-0.290	0.540	101.370	-1.700	1.000																			1580042596.0	10.77	19.95
26/01/2020 12:43:17	26012020	260120	124317	101.450	12.386988	-57.090318	101.520	0.020	-0.210	0.690	101.460	-1.600	1.000																			1580042597.0	10.68	19.78
26/01/2020 12:43:18	26012020	260120	124318	101.500	12.386977	-57.090268	101.520	-0.200	-0.250	0.930	101.500	-1.600	1.200																			1580042598.0	10.72	19.85
26/01/2020 12:43:19	26012020	260120	124319	101.410	12.386965	-57.090218	101.320	-0.170	-0.510	1.160	101.370	-1.800	1.500																			1580042599.0	10.93	20.24
26/01/2020 12:43:20	26012020	260120	124320	101.170	12.386953	-57.090167	101.130	0.030	-0.730	1.200	101.140	-2.100	1.600																			1580042600.0	11.30	20.93
26/01/2020 12:43:21	26012020	260120	124321	101.080	12.386942	-57.090113	101.150	0.100	-0.530	1.040	101.090	-2.000	1.500																			1580042601.0	11.25	20.84
26/01/2020 12:43:22	26012020	260120	124322	101.170	12.386933	-57.090063	101.280	-0.110	-0.020	0.790	101.200	-1.600	1.300																			1580042602.0	10.80	20.00
26/01/2020 12:43:23	26012020	260120	124323	101.280	12.386923	-57.090015	101.360	-0.390	0.300	0.570	101.310	-1.200	1.000																			1580042603.0	10.49	19.43
26/01/2020 12:43:24	26012020	260120	124324	101.330	12.386913	-57.089965	101.340	-0.410	0.100	0.620	101.320	-1.200	1.000																			1580042604.0	10.77	19.95
26/01/2020 12:43:25	26012020	260120	124325	101.320	12.386902	-57.089913	101.420	-0.120	-0.280	0.670	101.330	-1.500	1.100																			1580042605.0	11.31	20.95
26/01/2020 12:43:26	26012020	260120	124326	101.470	12.386890	-57.089860	101.610	0.200	-0.400	0.580	101.510	-1.800	1.000																			1580042606.0	11.37	21.06
26/01/2020 12:43:27	26012020	260120	124327	101.670	12.386880	-57.089810	101.800	0.250	-0.150	0.550	101.710	-1.700	1.000																			1580042607.0	10.99	20.35
26/01/2020 12:43:28	26012020	260120	124328	101.840	12.386870	-57.089760	101.950	0.040	0.120	0.670	101.870	-1.300	1.000																			1580042608.0	10.52	19.48
26/01/2020 12:43:29	26012020	260120	124329	101.950	12.386858	-57.089713	101.980	-0.070	-0.010	0.770	101.960	-1.300	1.200																			1580042609.0	10.49	19.43
26/01/2020 12:43:30	26012020	260120	124330	101.930	12.386848	-57.089662	101.890	0.150	-0.530	0.710	101.920	-1.700	1.200																			1580042610.0	10.98	20.33
26/01/2020 12:43:31	26012020	260120	124331	101.820	12.386838	-57.089608	101.780	0.490	-0.890	0.620	101.790	-2.200	1.100																			1580042611.0	11.43	21.17
26/01/2020 12:43:32	26012020	260120	124332	101.730	12.386828	-57.089557	101.770	0.520	-0.670	0.590	101.730	-2.200	1.000																			1580042612.0	11.26	20.85
26/01/2020 12:43:33	26012020	260120	124333	101.780	12.386818	-57.089507	101.840	0.110	-0.020	0.570	101.790	-1.700	1.000																			1580042613.0	10.64	19.71
26/01/2020 12:43:34	26012020	260120	124334	101.830	12.386808	-57.089460	101.870	-0.450	0.460	0.570	101.840	-1.000	1.000																			1580042614.0	10.18	18.85
26/01/2020 12:43:35	26012020	260120	124335	101.870	12.386798	-57.089412	101.890	-0.690	0.210	0.590	101.880	-1.000	1.000																			1580042615.0	10.49	19.43
26/01/2020 12:43:36	26012020	260120	124336	101.890	12.386785	-57.089360	101.920	-0.460	-0.500	0.660	101.900	-1.600	1.000																			1580042616.0	11.32	20.96
26/01/2020 12:43:37	26012020	260120	124337	101.890	12.386772	-57.089307	101.900	-0.070	-0.860	0.760	101.890	-2.200	1.100																			1580042617.0	11.70	21.67
26/01/2020 12:43:38	26012020	260120	124338	101.820	12.386758	-57.089255	101.770	0.170	-0.660	0.830	101.790	-2.200	1.200																			1580042618.0	11.22	20.78
26/01/2020 12:43:39	26012020	260120	124339	101.660	12.386747	-57.089205	101.610	0.200	-0.240	0.740	101.630	-1.800	1.200																			1580042619.0	10.69	19.80
26/01/2020 12:43:40	26012020	260120	124340	101.560	12.386737	-57.089157	101.590	0.140	0.020	0.500	101.560	-1.400	1.000																			1580042620.0	10.61	19.65
26/01/2020 12:43:41	26012020	260120	124341	101.620	12.386728	-57.089107	101.700	0.080	0.050	0.240	101.650	-1.300	0.700																			1580042621.0	10.83	20.06
26/01/2020 12:43:42	26012020	260120	124342	101.760	12.386720	-57.089055	101.820	0.010	0.020	0.200	101.790	-1.300	0.600																			1580042622.0	11.00	20.37
26/01/2020 12:43:43	26012020	260120	124343	101.830	12.386710	-57.089003	101.830	-0.050	-0.030	0.440	101.830	-1.400	0.700																			1580042623.0	10.94	20.26
26/01/2020 12:43:44	26012020	260120	124344	101.790	12.386697	-57.088953	101.750	-0.060	-0.220	0.830	101.770	-1.500	1.100																			1580042624.0	10.94	20.26
26/01/2020 12:43:45	26012020	260120	124345	101.690	12.386683	-57.088903	101.690	-0.000	-0.460	0.990	101.670	-1.800	1.400																			1580042625.0	11.12	20.59
26/01/2020 12:43:46	26012020	260120	124346	101.660	12.386672	-57.088852	101.700	0.060	-0.420	0.960	101.670	-1.900	1.400																			1580042626.0	11.10	20.56
26/01/2020 12:43:47	26012020	260120	124347	101.710	12.386660	-57.088802	101.770	0.110	-0.130	0.860	101.720	-1.600	1.300																			1580042627.0	10.74	19.89
26/01/2020 12:43:48	26012020	260120	124348	101.760	12.386650	-57.088753	101.790	0.170	-0.040	0.690	101.770	-1.400	1.200																			1580042628.0	10.52	19.48
26/01/2020 12:43:49	26012020	260120	124349	101.720	12.386642	-57.088703	101.690	0.250	-0.340	0.560	101.700	-1.600	1.000																			1580042629.0	10.88	20.15
26/01/2020 12:43:50	26012020	260120	124350	101.590	12.386632	-57.088650	101.580	0.220	-0.600	0.630	101.570	-1.900	1.000																			1580042630.0	11.29	20.91
26/01/2020 12:43:51	26012020	260120	124351	101.520	12.386620	-57.088600	101.580	-0.010	-0.460	0.820	101.520	-1.900	1.100																			1580042631.0	11.13	20.61
26/01/2020 12:43:52	26012020	260120	124352	101.560	12.386608	-57.088550	101.640	-0.280	-0.160	1.050	101.560	-1.600	1.400																			1580042632.0	10.71	19.83
26/01/2020 12:43:53	26012020	260120	124353	101.550	12.386597	-57.088502	101.560	-0.370	-0.110	1.280	101.530	-1.500	1.600																			1580042633.0	10.66	19.74
26/01/2020 12:43:54	26012020	260120	124354	101.400	12.386583	-57.088450	101.390	-0.230	-0.310	1.440	101.360	-1.600	1.800																			1580042634.0	11.05	20.46
26/01/2020 12:43:55	26012020	260120	124355	101.220	12.386570	-57.088398	101.280	-0.010	-0.460	1.380	101.200	-1.800	1.800																			1580042635.0	11.33	20.98
26/01/2020 12:43:56	26012020	260120	124356	101.200	12.386558	-57.088347	101.340	0.110	-0.310	1.100	101.210	-1.800	1.600																			1580042636.0	11.20	20.74
26/01/2020 12:43:57	26012020	260120	124357	101.290	12.386550	-57.088297	101.430	0.120	-0.060	0.760	101.310	-1.500	1.300																			1580042637.0	10.86	20.11
26/01/2020 12:43:58	26012020	260120	124358	101.370	12.386540	-57.088247	101.470	0.120	0.080	0.540	101.380	-1.300	1.000																			1580042638.0	10.78	19.96
26/01/2020 12:43:59	26012020	260120	124359	101.420	12.386532	-57.088195	101.550	0.140	0.160	0.420	101.430	-1.200	0.900																			1580042639.0	10.86	20.11
26/01/2020 12:44:00	26012020	260120	124400	101.540	12.386522	-57.088145	101.700	0.100	0.150	0.430	101.570	-1.200	0.800	1016.30	26.10	26.20	18.30	18.40	388.00	62.00	62.00	375.00	27.20	347.00	11.30	77.00	6.00	29950	3142.00	27.50	27.50	1580042640.0	10.78	19.96
26/01/2020 12:44:01	26012020	260120	124401	101.660	12.386512	-57.088095	101.790	0.070	-0.140	0.580	101.680	-1.400	0.900																			1580042641.0	10.79	19.98
26/01/2020 12:44:02	26012020	260120	124402	101.740	12.386502	-57.088045	101.800	0.100	-0.630	0.860	101.740	-1.800	1.200																			1580042642.0	11.09	20.54
26/01/2020 12:44:03	26012020	260120	124403	101.720	12.386490	-57.087992	101.780	0.140	-0.940	1.140	101.720	-2.200	1.400																			1580042643.0	11.32	20.96
26/01/2020 12:44:04	26012020	260120	124404	101.680	12.386477	-57.087942	101.710	0.080	-0.700	1.290	101.660	-2.200	1.700																			1580042644.0	11.13	20.61
26/01/2020 12:44:05	26012020	260120	124405	101.580	12.386465	-57.087892	101.580	-0.140	-0.150	1.150	101.560	-1.700	1.600																			1580042645.0	10.60	19.63
26/01/2020 12:44:06	26012020	260120	124406	101.440	12.386457	-57.087843	101.430	-0.310	0.050	1.020	101.420	-1.300	1.500																			1580042646.0	10.42	19.30
26/01/2020 12:44:07	26012020	260120	124407	101.290	12.386445	-57.087793	101.320	-0.210	-0.250	0.960	101.270	-1.500	1.400																			1580042647.0	10.99	20.35
26/01/2020 12:44:08	26012020	260120	124408	101.180	12.386435	-57.087740	101.240	0.060	-0.520	0.720	101.170	-1.800	1.200																			1580042648.0	11.50	21.30
26/01/2020 12:44:09	26012020	260120	124409	101.160	12.386425	-57.087687	101.290	0.200	-0.390	0.490	101.180	-1.900	1.000																			1580042649.0	11.42	21.15
26/01/2020 12:44:10	26012020	260120	124410	101.270	12.386415	-57.087637	101.420	0.020	0.110	0.480	101.290	-1.500	0.900																			1580042650.0	10.92	20.22
26/01/2020 12:44:11	26012020	260120	124411	101.420	12.386403	-57.087588	101.570	-0.290	0.520	0.590	101.450	-1.000	1.000																			1580042651.0	10.41	19.28
26/01/2020 12:44:12	26012020	260120	124412	101.530	12.386392	-57.087540	101.610	-0.370	0.390	0.780	101.540	-0.900	1.100																			1580042652.0	10.49	19.43
26/01/2020 12:44:13	26012020	260120	124413	101.520	12.386380	-57.087488	101.560	-0.070	-0.250	0.890	101.510	-1.400	1.300																			1580042653.0	11.05	20.46
26/01/2020 12:44:14	26012020	260120	124414	101.440	12.386368	-57.087437	101.510	0.300	-0.750	0.820	101.430	-2.000	1.300																			1580042654.0	11.50	21.30
26/01/2020 12:44:15	26012020	260120	124415	101.420	12.386358	-57.087383	101.480	0.430	-0.780	0.670	101.420	-2.200	1.100																			1580042655.0	11.21	20.76
26/01/2020 12:44:16	26012020	260120	124416	101.380	12.386348	-57.087333	101.430	0.290	-0.500	0.570	101.370	-2.000	1.000																			1580042656.0	10.74	19.89
26/01/2020 12:44:17	26012020	260120	124417	101.280	12.386340	-57.087285	101.290	0.070	-0.280	0.670	101.260	-1.700	1.000																			1580042657.0	10.56	19.56
26/01/2020 12:44:18	26012020	260120	124418	101.120	12.386330	-57.087235	101.140	-0.100	-0.300	0.740	101.090	-1.600	1.100																			1580042658.0	10.80	20.00
26/01/2020 12:44:19	26012020	260120	124419	101.030	12.386320	-57.087183	101.140	-0.210	-0.290	0.780	101.030	-1.700	1.200																			1580042659.0	11.13	20.61
26/01/2020 12:44:20	26012020	260120	124420	101.100	12.386308	-57.087132	101.240	-0.310	-0.140	0.990	101.120	-1.600	1.300																			1580042660.0	11.02	20.41
26/01/2020 12:44:21	26012020	260120	124421	101.160	12.386295	-57.087083	101.170	-0.240	-0.180	1.260	101.140	-1.500	1.600																			1580042661.0	10.91	20.21
26/01/2020 12:44:22	26012020	260120	124422	100.970	12.386282	-57.087032	100.910	0.050	-0.390	1.380	100.900	-1.700	1.800																			1580042662.0	11.26	20.85
26/01/2020 12:44:23	26012020	260120	124423	100.710	12.386270	-57.086978	100.780	0.280	-0.220	1.260	100.680	-1.700	1.700																			1580042663.0	11.40	21.11
26/01/2020 12:44:24	26012020	260120	124424	100.750	12.386262	-57.086928	101.010	0.170	0.340	0.860	100.810	-1.300	1.400																			1580042664.0	10.80	20.00
26/01/2020 12:44:25	26012020	260120	124425	101.110	12.386255	-57.086880	101.360	-0.130	0.610	0.560	101.180	-0.800	1.000																			1580042665.0	10.27	19.02
26/01/2020 12:44:26	26012020	260120	124426	101.370	12.386245	-57.086830	101.460	-0.230	0.160	0.620	101.380	-1.000	1.000																			1580042666.0	10.56	19.56
26/01/2020 12:44:27	26012020	260120	124427	101.390	12.386233	-57.086778	101.420	-0.060	-0.590	0.850	101.380	-1.700	1.200																			1580042667.0	11.27	20.87
26/01/2020 12:44:28	26012020	260120	124428	101.310	12.386222	-57.086727	101.300	0.210	-1.080	1.060	101.280	-2.300	1.400																			1580042668.0	11.46	21.22
26/01/2020 12:44:29	26012020	260120	124429	101.140	12.386210	-57.086675	101.100	0.390	-1.090	1.050	101.100	-2.500	1.500																			1580042669.0	11.17	20.69
26/01/2020 12:44:30	26012020	260120	124430	100.930	12.386200	-57.086625	100.880	0.370	-0.760	0.910	100.880	-2.300	1.400																			1580042670.0	10.85	20.09
26/01/2020 12:44:31	26012020	260120	124431	100.740	12.386192	-57.086575	100.760	0.110	-0.290	0.750	100.710	-1.800	1.200																			1580042671.0	10.74	19.89
26/01/2020 12:44:32	26012020	260120	124432	100.690	12.386183	-57.086525	100.790	-0.270	0.170	0.630	100.700	-1.400	1.100																			1580042672.0	10.69	19.80
26/01/2020 12:44:33	26012020	260120	124433	100.760	12.386173	-57.086475	100.870	-0.580	0.430	0.650	100.770	-1.000	1.000																			1580042673.0	10.68	19.78
26/01/2020 12:44:34	26012020	260120	124434	100.810	12.386162	-57.086425	100.920	-0.630	0.240	0.680	100.820	-1.000	1.100																			1580042674.0	10.89	20.17
26/01/2020 12:44:35	26012020	260120	124435	100.860	12.386148	-57.086373	100.940	-0.390	-0.200	0.840	100.860	-1.400	1.200																			1580042675.0	11.33	20.98
26/01/2020 12:44:36	26012020	260120	124436	100.860	12.386135	-57.086320	100.910	-0.040	-0.410	1.070	100.850	-1.700	1.400																			1580042676.0	11.45	21.21
26/01/2020 12:44:37	26012020	260120	124437	100.780	12.386123	-57.086270	100.780	0.260	-0.310	1.050	100.750	-1.700	1.500																			1580042677.0	11.08	20.52
26/01/2020 12:44:38	26012020	260120	124438	100.620	12.386115	-57.086220	100.630	0.470	-0.180	0.760	100.600	-1.600	1.300																			1580042678.0	10.73	19.87
26/01/2020 12:44:39	26012020	260120	124439	100.540	12.386108	-57.086168	100.630	0.590	-0.210	0.440	100.540	-1.500	1.000																			1580042679.0	10.81	20.02
26/01/2020 12:44:40	26012020	260120	124440	100.600	12.386102	-57.086117	100.710	0.510	-0.290	0.370	100.620	-1.600	0.800																			1580042680.0	10.99	20.35
26/01/2020 12:44:41	26012020	260120	124441	100.670	12.386093	-57.086065	100.740	0.210	-0.270	0.630	100.670	-1.700	0.900																			1580042681.0	10.99	20.35
26/01/2020 12:44:42	26012020	260120	124442	100.660	12.386083	-57.086015	100.680	-0.200	-0.190	1.100	100.650	-1.600	1.300																			1580042682.0	10.81	20.02
26/01/2020 12:44:43	26012020	260120	124443	100.560	12.386070	-57.085967	100.560	-0.470	-0.290	1.480	100.530	-1.600	1.800																			1580042683.0	10.79	19.98
26/01/2020 12:44:44	26012020	260120	124444	100.430	12.386057	-57.085917	100.430	-0.420	-0.520	1.450	100.400	-1.800	1.900																			1580042684.0	11.09	20.54
26/01/2020 12:44:45	26012020	260120	124445	100.320	12.386045	-57.085863	100.360	-0.190	-0.520	1.240	100.300	-1.900	1.700																			1580042685.0	11.22	20.78
26/01/2020 12:44:46	26012020	260120	124446	100.270	12.386035	-57.085813	100.320	-0.050	-0.270	0.980	100.270	-1.700	1.500																			1580042686.0	10.96	20.30
26/01/2020 12:44:47	26012020	260120	124447	100.270	12.386027	-57.085763	100.320	-0.070	-0.070	0.750	100.270	-1.500	1.200																			1580042687.0	10.73	19.87
26/01/2020 12:44:48	26012020	260120	124448	100.250	12.386018	-57.085713	100.270	-0.080	-0.150	0.490	100.240	-1.400	1.000																			1580042688.0	10.83	20.06
26/01/2020 12:44:49	26012020	260120	124449	100.210	12.386010	-57.085660	100.280	0.070	-0.410	0.330	100.210	-1.700	0.800																			1580042689.0	11.19	20.72
26/01/2020 12:44:50	26012020	260120	124450	100.280	12.386000	-57.085607	100.440	0.220	-0.440	0.410	100.280	-1.800	0.800																			1580042690.0	11.38	21.08
26/01/2020 12:44:51	26012020	260120	124451	100.400	12.385990	-57.085557	100.570	0.240	-0.100	0.630	100.430	-1.600	1.000																			1580042691.0	11.02	20.41
26/01/2020 12:44:52	26012020	260120	124452	100.500	12.385980	-57.085507	100.600	0.170	0.150	0.790	100.500	-1.300	1.200																			1580042692.0	10.64	19.71
26/01/2020 12:44:53	26012020	260120	124453	100.510	12.385972	-57.085457	100.650	0.110	0.030	0.840	100.530	-1.300	1.200																			1580042693.0	10.82	20.04
26/01/2020 12:44:54	26012020	260120	124454	100.600	12.385962	-57.085405	100.750	0.030	-0.150	0.780	100.600	-1.500	1.200																			1580042694.0	11.16	20.67
26/01/2020 12:44:55	26012020	260120	124455	100.710	12.385953	-57.085353	100.810	-0.120	-0.090	0.580	100.720	-1.500	1.100																			1580042695.0	11.03	20.43
26/01/2020 12:44:56	26012020	260120	124456	100.730	12.385943	-57.085303	100.790	-0.240	-0.040	0.630	100.730	-1.400	1.000																			1580042696.0	10.65	19.72
26/01/2020 12:44:57	26012020	260120	124457	100.670	12.385933	-57.085253	100.760	-0.190	-0.400	0.840	100.670	-1.600	1.200																			1580042697.0	10.76	19.93
26/01/2020 12:44:58	26012020	260120	124458	100.650	12.385922	-57.085202	100.720	-0.030	-0.880	0.930	100.640	-2.100	1.300																			1580042698.0	11.29	20.91
26/01/2020 12:44:59	26012020	260120	124459	100.610	12.385912	-57.085150	100.690	0.030	-0.770	0.930	100.600	-2.300	1.300																			1580042699.0	11.35	21.02
26/01/2020 12:45:00	26012020	260120	124500	100.570	12.385902	-57.085100	100.670	-0.060	-0.190	0.920	100.570	-1.800	1.300	1016.40	26.10	26.20	18.10	18.20	373.00	61.00	61.00	375.00	27.20	352.00	11.40	86.00	5.90	29476	3207.00	27.50	27.40	1580042700.0	10.68	19.78
26/01/2020 12:45:01	26012020	260120	124501	100.560	12.385892	-57.085052	100.650	-0.100	0.040	0.860	100.560	-1.300	1.300																			1580042701.0	10.33	19.13
26/01/2020 12:45:02	26012020	260120	124502	100.560	12.385882	-57.085002	100.660	0.100	-0.370	0.650	100.560	-1.500	1.100																			1580042702.0	10.96	20.30
26/01/2020 12:45:03	26012020	260120	124503	100.570	12.385873	-57.084947	100.700	0.320	-0.590	0.520	100.590	-2.000	1.000																			1580042703.0	11.65	21.58
26/01/2020 12:45:04	26012020	260120	124504	100.640	12.385863	-57.084895	100.760	0.260	-0.130	0.500	100.640	-1.700	0.900																			1580042704.0	11.23	20.80
26/01/2020 12:45:05	26012020	260120	124505	100.720	12.385855	-57.084845	100.890	-0.040	0.370	0.470	100.740	-1.100	0.900																			1580042705.0	10.45	19.35
26/01/2020 12:45:06	26012020	260120	124506	100.900	12.385847	-57.084797	101.080	-0.250	0.240	0.510	100.940	-1.000	0.900																			1580042706.0	10.54	19.52
26/01/2020 12:45:07	26012020	260120	124507	101.100	12.385837	-57.084745	101.250	-0.220	-0.240	0.690	101.130	-1.400	1.000																			1580042707.0	11.18	20.71
26/01/2020 12:45:08	26012020	260120	124508	101.180	12.385825	-57.084692	101.200	-0.030	-0.510	0.890	101.170	-1.800	1.200																			1580042708.0	11.41	21.13
26/01/2020 12:45:09	26012020	260120	124509	101.100	12.385815	-57.084640	101.120	0.120	-0.430	0.900	101.080	-1.900	1.300																			1580042709.0	11.09	20.54
26/01/2020 12:45:10	26012020	260120	124510	101.090	12.385805	-57.084590	101.230	0.120	-0.230	0.670	101.120	-1.700	1.200																			1580042710.0	10.77	19.95
26/01/2020 12:45:11	26012020	260120	124511	101.260	12.385797	-57.084540	101.380	-0.020	-0.170	0.540	101.260	-1.500	1.000																			1580042711.0	10.71	19.83
26/01/2020 12:45:12	26012020	260120	124512	101.350	12.385787	-57.084490	101.400	-0.170	-0.210	0.540	101.350	-1.600	0.900																			1580042712.0	10.82	20.04
26/01/2020 12:45:13	26012020	260120	124513	101.330	12.385777	-57.084440	101.370	-0.160	-0.320	0.540	101.330	-1.600	0.900																			1580042713.0	10.92	20.22
26/01/2020 12:45:14	26012020	260120	124514	101.280	12.385767	-57.084388	101.310	0.020	-0.460	0.700	101.280	-1.800	1.000																			1580042714.0	11.03	20.43
26/01/2020 12:45:15	26012020	260120	124515	101.180	12.385755	-57.084337	101.210	0.170	-0.540	0.900	101.180	-1.900	1.300																			1580042715.0	11.10	20.56
26/01/2020 12:45:16	26012020	260120	124516	101.090	12.385743	-57.084287	101.150	0.090	-0.380	0.870	101.090	-1.800	1.300																			1580042716.0	11.10	20.56
26/01/2020 12:45:17	26012020	260120	124517	101.060	12.385733	-57.084237	101.160	-0.080	-0.170	0.770	101.070	-1.600	1.200																			1580042717.0	10.83	20.06
26/01/2020 12:45:18	26012020	260120	124518	101.100	12.385725	-57.084185	101.200	-0.100	-0.130	0.590	101.100	-1.500	1.100																			1580042718.0	10.85	20.09
26/01/2020 12:45:19	26012020	260120	124519	101.140	12.385715	-57.084133	101.220	0.020	-0.120	0.360	101.150	-1.500	0.900																			1580042719.0	11.11	20.58
26/01/2020 12:45:20	26012020	260120	124520	101.170	12.385705	-57.084082	101.230	0.100	0.020	0.230	101.170	-1.400	0.700																			1580042720.0	11.06	20.48
26/01/2020 12:45:21	26012020	260120	124521	101.170	12.385697	-57.084032	101.210	0.110	0.030	0.220	101.170	-1.300	0.600																			1580042721.0	10.85	20.09
26/01/2020 12:45:22	26012020	260120	124522	101.180	12.385688	-57.083980	101.240	0.140	-0.180	0.280	101.180	-1.500	0.700																			1580042722.0	10.99	20.35
26/01/2020 12:45:23	26012020	260120	124523	101.240	12.385678	-57.083928	101.330	0.120	-0.300	0.470	101.240	-1.700	0.800																			1580042723.0	11.20	20.74
26/01/2020 12:45:24	26012020	260120	124524	101.370	12.385667	-57.083878	101.490	0.010	-0.180	0.650	101.370	-1.600	1.000																			1580042724.0	10.94	20.26
26/01/2020 12:45:25	26012020	260120	124525	101.510	12.385657	-57.083828	101.620	-0.110	-0.110	0.770	101.510	-1.500	1.100																			1580042725.0	10.64	19.71
26/01/2020 12:45:26	26012020	260120	124526	101.600	12.385645	-57.083778	101.660	-0.120	-0.290	0.920	101.600	-1.600	1.300																			1580042726.0	10.80	20.00
26/01/2020 12:45:27	26012020	260120	124527	101.580	12.385633	-57.083728	101.600	-0.080	-0.510	1.020	101.580	-1.800	1.400																			1580042727.0	11.07	20.50
26/01/2020 12:45:28	26012020	260120	124528	101.480	12.385623	-57.083677	101.440	-0.000	-0.630	0.980	101.480	-2.000	1.400																			1580042728.0	11.10	20.56
26/01/2020 12:45:29	26012020	260120	124529	101.320	12.385613	-57.083625	101.300	0.080	-0.590	0.860	101.320	-2.000	1.300																			1580042729.0	11.07	20.50
26/01/2020 12:45:30	26012020	260120	124530	101.180	12.385603	-57.083575	101.180	0.060	-0.440	0.690	101.180	-1.900	1.200																			1580042730.0	11.01	20.39
26/01/2020 12:45:31	26012020	260120	124531	101.080	12.385593	-57.083523	101.060	-0.040	-0.270	0.510	101.080	-1.700	1.000																			1580042731.0	11.00	20.37
26/01/2020 12:45:32	26012020	260120	124532	100.930	12.385583	-57.083472	100.900	-0.100	-0.130	0.440	100.930	-1.500	0.900																			1580042732.0	11.00	20.37
26/01/2020 12:45:33	26012020	260120	124533	100.810	12.385573	-57.083420	100.900	-0.030	-0.060	0.440	100.810	-1.500	0.900																			1580042733.0	11.06	20.48
26/01/2020 12:45:34	26012020	260120	124534	100.900	12.385563	-57.083368	101.100	0.060	0.010	0.420	100.900	-1.400	0.800																			1580042734.0	11.14	20.63
26/01/2020 12:45:35	26012020	260120	124535	101.180	12.385553	-57.083318	101.400	0.040	0.140	0.470	101.180	-1.300	0.800																			1580042735.0	11.05	20.46
26/01/2020 12:45:36	26012020	260120	124536	101.490	12.385543	-57.083268	101.680	-0.110	0.290	0.640	101.490	-1.100	1.000																			1580042736.0	10.84	20.08
26/01/2020 12:45:37	26012020	260120	124537	101.760	12.385532	-57.083218	101.960	-0.200	0.210	0.780	101.760	-1.100	1.100																			1580042737.0	10.70	19.82
26/01/2020 12:45:38	26012020	260120	124538	102.020	12.385522	-57.083168	102.150	-0.050	-0.230	0.820	102.020	-1.400	1.200																			1580042738.0	10.88	20.15
26/01/2020 12:45:39	26012020	260120	124539	102.120	12.385510	-57.083117	102.150	0.310	-0.760	0.840	102.120	-1.900	1.300																			1580042739.0	11.23	20.80
26/01/2020 12:45:40	26012020	260120	124540	102.110	12.385502	-57.083063	102.190	0.560	-0.910	0.760	102.110	-2.300	1.200																			1580042740.0	11.33	20.98
26/01/2020 12:45:41	26012020	260120	124541	102.180	12.385492	-57.083012	102.290	0.400	-0.600	0.780	102.210	-2.100	1.200																			1580042741.0	10.95	20.28
26/01/2020 12:45:42	26012020	260120	124542	102.280	12.385482	-57.082963	102.260	-0.040	-0.240	0.900	102.280	-1.700	1.300																			1580042742.0	10.49	19.43
26/01/2020 12:45:43	26012020	260120	124543	102.180	12.385472	-57.082915	102.070	-0.340	-0.290	1.030	102.180	-1.600	1.400																			1580042743.0	10.63	19.69
26/01/2020 12:45:44	26012020	260120	124544	101.930	12.385458	-57.082863	101.820	-0.300	-0.640	1.200	101.930	-1.900	1.500																			1580042744.0	11.27	20.87
26/01/2020 12:45:45	26012020	260120	124545	101.690	12.385447	-57.082810	101.670	-0.140	-0.670	1.190	101.690	-2.100	1.600																			1580042745.0	11.65	21.58
26/01/2020 12:45:46	26012020	260120	124546	101.630	12.385435	-57.082758	101.730	-0.160	-0.150	0.890	101.630	-1.800	1.400																			1580042746.0	11.23	20.80
26/01/2020 12:45:47	26012020	260120	124547	101.730	12.385425	-57.082708	101.830	-0.330	0.360	0.560	101.730	-1.200	1.100																			1580042747.0	10.64	19.71
26/01/2020 12:45:48	26012020	260120	124548	101.840	12.385415	-57.082658	101.960	-0.360	0.430	0.290	101.840	-0.900	0.800																			1580042748.0	10.73	19.87
26/01/2020 12:45:49	26012020	260120	124549	102.040	12.385405	-57.082607	102.210	-0.180	0.300	0.100	102.040	-1.000	0.600																			1580042749.0	11.12	20.59
26/01/2020 12:45:50	26012020	260120	124550	102.310	12.385395	-57.082555	102.420	0.090	0.140	0.110	102.310	-1.200	0.500																			1580042750.0	11.09	20.54
26/01/2020 12:45:51	26012020	260120	124551	102.500	12.385383	-57.082505	102.600	0.350	-0.170	0.130	102.500	-1.400	0.500																			1580042751.0	10.97	20.32
26/01/2020 12:45:52	26012020	260120	124552	102.660	12.385373	-57.082453	102.730	0.580	-0.660	0.200	102.660	-1.900	0.600																			1580042752.0	11.10	20.56
26/01/2020 12:45:53	26012020	260120	124553	102.730	12.385363	-57.082402	102.700	0.660	-0.890	0.410	102.730	-2.300	0.700																			1580042753.0	11.29	20.91
26/01/2020 12:45:54	26012020	260120	124554	102.650	12.385353	-57.082350	102.570	0.420	-0.540	0.590	102.650	-2.100	0.900																			1580042754.0	10.94	20.26
26/01/2020 12:45:55	26012020	260120	124555	102.510	12.385343	-57.082302	102.390	0.020	-0.150	0.860	102.480	-1.600	1.200																			1580042755.0	10.37	19.21
26/01/2020 12:45:56	26012020	260120	124556	102.250	12.385332	-57.082253	102.130	-0.230	-0.350	1.120	102.250	-1.600	1.400																			1580042756.0	10.60	19.63
26/01/2020 12:45:57	26012020	260120	124557	102.010	12.385318	-57.082202	101.930	-0.300	-0.730	1.180	102.010	-2.000	1.600																			1580042757.0	11.41	21.13
26/01/2020 12:45:58	26012020	260120	124558	101.810	12.385305	-57.082148	101.760	-0.390	-0.610	1.170	101.810	-2.100	1.600																			1580042758.0	11.58	21.45
26/01/2020 12:45:59	26012020	260120	124559	101.690	12.385292	-57.082098	101.740	-0.540	0.020	1.030	101.690	-1.600	1.500																			1580042759.0	10.95	20.28
26/01/2020 12:46:00	26012020	260120	124600	101.760	12.385280	-57.082050	101.880	-0.610	0.450	0.710	101.760	-1.000	1.200	1016.40	26.20	26.20	18.10	18.20	371.00	61.00	61.00	375.00	27.20	351.00	11.70	85.00	6.20	29473	3163.00	27.50	27.40	1580042760.0	10.48	19.41
26/01/2020 12:46:01	26012020	260120	124601	101.940	12.385268	-57.082000	102.050	-0.430	0.360	0.400	101.940	-0.900	0.900																			1580042761.0	10.74	19.89
26/01/2020 12:46:02	26012020	260120	124602	102.070	12.385258	-57.081948	102.110	0.030	-0.090	0.220	102.070	-1.300	0.700																			1580042762.0	11.21	20.76
26/01/2020 12:46:03	26012020	260120	124603	102.100	12.385248	-57.081895	102.140	0.600	-0.500	0.170	102.100	-1.800	0.600																			1580042763.0	11.45	21.21
26/01/2020 12:46:04	26012020	260120	124604	102.130	12.385238	-57.081843	102.250	0.930	-0.560	0.270	102.130	-2.000	0.600																			1580042764.0	11.36	21.04
26/01/2020 12:46:05	26012020	260120	124605	102.310	12.385230	-57.081792	102.440	0.780	-0.290	0.450	102.310	-1.800	0.800																			1580042765.0	10.90	20.19
26/01/2020 12:46:06	26012020	260120	124606	102.500	12.385220	-57.081743	102.530	0.350	-0.090	0.700	102.500	-1.500	1.000																			1580042766.0	10.53	19.50
26/01/2020 12:46:07	26012020	260120	124607	102.460	12.385210	-57.081693	102.390	0.000	-0.210	1.070	102.460	-1.500	1.300																			1580042767.0	10.71	19.83
26/01/2020 12:46:08	26012020	260120	124608	102.270	12.385197	-57.081642	102.240	-0.200	-0.420	1.430	102.270	-1.700	1.700																			1580042768.0	11.14	20.63
26/01/2020 12:46:09	26012020	260120	124609	102.200	12.385183	-57.081592	102.280	-0.400	-0.400	1.500	102.200	-1.800	1.900																			1580042769.0	11.21	20.76
26/01/2020 12:46:10	26012020	260120	124610	102.280	12.385172	-57.081542	102.330	-0.600	-0.210	1.380	102.280	-1.700	1.800																			1580042770.0	10.89	20.17
26/01/2020 12:46:11	26012020	260120	124611	102.280	12.385158	-57.081492	102.230	-0.610	-0.190	1.210	102.280	-1.500	1.700																			1580042771.0	10.77	19.95
26/01/2020 12:46:12	26012020	260120	124612	102.150	12.385145	-57.081442	102.100	-0.400	-0.370	0.940	102.150	-1.700	1.500																			1580042772.0	11.08	20.52
26/01/2020 12:46:13	26012020	260120	124613	102.040	12.385133	-57.081390	102.030	-0.120	-0.350	0.700	102.040	-1.800	1.200																			1580042773.0	11.28	20.89
26/01/2020 12:46:14	26012020	260120	124614	102.030	12.385123	-57.081338	102.090	0.120	-0.030	0.370	102.030	-1.500	0.900																			1580042774.0	10.96	20.30
26/01/2020 12:46:15	26012020	260120	124615	102.150	12.385113	-57.081288	102.230	0.320	0.090	0.000	102.150	-1.300	0.500																			1580042775.0	10.67	19.76
26/01/2020 12:46:16	26012020	260120	124616	102.280	12.385105	-57.081238	102.340	0.520	-0.140	-0.160	102.280	-1.400	0.300																			1580042776.0	10.94	20.26
26/01/2020 12:46:17	26012020	260120	124617	102.350	12.385095	-57.081185	102.380	0.640	-0.390	0.010	102.350	-1.700	0.300																			1580042777.0	11.23	20.80
26/01/2020 12:46:18	26012020	260120	124618	102.340	12.385085	-57.081135	102.290	0.600	-0.460	0.450	102.340	-1.800	0.700																			1580042778.0	11.12	20.59
26/01/2020 12:46:19	26012020	260120	124619	102.170	12.385073	-57.081083	102.120	0.420	-0.450	0.900	102.170	-1.900	1.200																			1580042779.0	10.99	20.35
26/01/2020 12:46:20	26012020	260120	124620	102.040	12.385062	-57.081033	102.070	0.080	-0.300	1.130	102.040	-1.800	1.500																			1580042780.0	10.97	20.32
26/01/2020 12:46:21	26012020	260120	124621	102.040	12.385050	-57.080983	102.080	-0.350	-0.060	1.220	102.040	-1.500	1.600																			1580042781.0	10.82	20.04
26/01/2020 12:46:22	26012020	260120	124622	102.030	12.385038	-57.080933	102.020	-0.720	-0.010	1.370	102.030	-1.400	1.700																			1580042782.0	10.74	19.89
26/01/2020 12:46:23	26012020	260120	124623	101.880	12.385025	-57.080883	101.830	-0.810	-0.250	1.540	101.880	-1.500	1.900																			1580042783.0	11.00	20.37
26/01/2020 12:46:24	26012020	260120	124624	101.670	12.385010	-57.080832	101.620	-0.580	-0.530	1.520	101.670	-1.800	2.000																			1580042784.0	11.34	21.00
26/01/2020 12:46:25	26012020	260120	124625	101.510	12.384997	-57.080780	101.530	-0.210	-0.550	1.200	101.510	-2.000	1.800																			1580042785.0	11.35	21.02
26/01/2020 12:46:26	26012020	260120	124626	101.450	12.384987	-57.080728	101.490	0.140	-0.360	0.810	101.450	-1.800	1.400																			1580042786.0	11.08	20.52
26/01/2020 12:46:27	26012020	260120	124627	101.380	12.384977	-57.080678	101.400	0.410	-0.160	0.480	101.380	-1.600	1.000																			1580042787.0	10.92	20.22
26/01/2020 12:46:28	26012020	260120	124628	101.370	12.384968	-57.080627	101.500	0.520	0.030	0.310	101.370	-1.400	0.800																			1580042788.0	10.94	20.26
26/01/2020 12:46:29	26012020	260120	124629	101.570	12.384960	-57.080577	101.760	0.430	0.210	0.340	101.570	-1.200	0.700																			1580042789.0	10.86	20.11
26/01/2020 12:46:30	26012020	260120	124630	101.840	12.384950	-57.080527	101.970	0.240	0.170	0.540	101.840	-1.200	0.800																			1580042790.0	10.74	19.89
26/01/2020 12:46:31	26012020	260120	124631	101.950	12.384940	-57.080477	101.970	0.120	-0.190	0.960	101.950	-1.400	1.200																			1580042791.0	10.92	20.22
26/01/2020 12:46:32	26012020	260120	124632	101.840	12.384927	-57.080425	101.800	0.080	-0.630	1.320	101.840	-1.900	1.600																			1580042792.0	11.24	20.82
26/01/2020 12:46:33	26012020	260120	124633	101.670	12.384915	-57.080373	101.670	0.040	-0.730	1.350	101.670	-2.100	1.800																			1580042793.0	11.28	20.89
26/01/2020 12:46:34	26012020	260120	124634	101.540	12.384905	-57.080322	101.530	-0.090	-0.430	1.310	101.540	-2.000	1.700																			1580042794.0	10.94	20.26
26/01/2020 12:46:35	26012020	260120	124635	101.380	12.384895	-57.080273	101.350	-0.280	-0.150	1.260	101.380	-1.600	1.700																			1580042795.0	10.62	19.67
26/01/2020 12:46:36	26012020	260120	124636	101.230	12.384883	-57.080223	101.230	-0.380	-0.240	1.020	101.230	-1.600	1.500																			1580042796.0	10.81	20.02
26/01/2020 12:46:37	26012020	260120	124637	101.170	12.384873	-57.080170	101.210	-0.290	-0.480	0.810	101.170	-1.800	1.300																			1580042797.0	11.29	20.91
26/01/2020 12:46:38	26012020	260120	124638	101.180	12.384862	-57.080118	101.270	-0.110	-0.370	0.750	101.180	-1.800	1.200																			1580042798.0	11.37	21.06
26/01/2020 12:46:39	26012020	260120	124639	101.250	12.384852	-57.080067	101.340	0.040	-0.050	0.730	101.250	-1.500	1.100																			1580042799.0	10.96	20.30
26/01/2020 12:46:40	26012020	260120	124640	101.310	12.384840	-57.080018	101.380	0.130	0.050	0.790	101.310	-1.300	1.200																			1580042800.0	10.76	19.93
26/01/2020 12:46:41	26012020	260120	124641	101.330	12.384830	-57.079967	101.410	0.260	-0.230	0.840	101.330	-1.500	1.200																			1580042801.0	11.08	20.52
26/01/2020 12:46:42	26012020	260120	124642	101.400	12.384820	-57.079913	101.540	0.300	-0.330	0.840	101.400	-1.700	1.200																			1580042802.0	11.43	21.17
26/01/2020 12:46:43	26012020	260120	124643	101.540	12.384810	-57.079862	101.750	0.070	0.060	0.920	101.570	-1.500	1.300																			1580042803.0	11.01	20.39
26/01/2020 12:46:44	26012020	260120	124644	101.750	12.384800	-57.079815	101.810	-0.270	0.320	1.050	101.750	-1.100	1.400																			1580042804.0	10.34	19.15
26/01/2020 12:46:45	26012020	260120	124645	101.700	12.384788	-57.079765	101.550	-0.320	-0.150	1.270	101.650	-1.300	1.600																			1580042805.0	10.64	19.71
26/01/2020 12:46:46	26012020	260120	124646	101.310	12.384777	-57.079713	101.230	-0.110	-0.820	1.400	101.310	-2.000	1.800																			1580042806.0	11.50	21.30
26/01/2020 12:46:47	26012020	260120	124647	101.110	12.384765	-57.079658	101.190	0.110	-0.860	1.190	101.110	-2.300	1.700																			1580042807.0	11.60	21.48
26/01/2020 12:46:48	26012020	260120	124648	101.150	12.384757	-57.079608	101.280	0.110	-0.330	0.830	101.150	-1.900	1.400																			1580042808.0	10.86	20.11
26/01/2020 12:46:49	26012020	260120	124649	101.250	12.384747	-57.079560	101.350	-0.030	0.040	0.620	101.250	-1.400	1.100																			1580042809.0	10.41	19.28
26/01/2020 12:46:50	26012020	260120	124650	101.290	12.384738	-57.079510	101.310	-0.080	-0.110	0.710	101.290	-1.400	1.000																			1580042810.0	10.73	19.87
26/01/2020 12:46:51	26012020	260120	124651	101.160	12.384725	-57.079458	101.100	0.050	-0.500	0.970	101.160	-1.700	1.300																			1580042811.0	11.32	20.96
26/01/2020 12:46:52	26012020	260120	124652	100.910	12.384713	-57.079405	100.910	0.230	-0.580	1.080	100.910	-2.000	1.500																			1580042812.0	11.55	21.39
26/01/2020 12:46:53	26012020	260120	124653	100.830	12.384703	-57.079353	100.970	0.180	-0.100	0.910	100.830	-1.700	1.400																			1580042813.0	11.12	20.59
26/01/2020 12:46:54	26012020	260120	124654	100.980	12.384695	-57.079305	101.120	-0.160	0.470	0.640	100.980	-1.100	1.100																			1580042814.0	10.43	19.32
26/01/2020 12:46:55	26012020	260120	124655	101.110	12.384687	-57.079257	101.160	-0.420	0.460	0.570	101.110	-0.800	1.000																			1580042815.0	10.33	19.13
26/01/2020 12:46:56	26012020	260120	124656	101.090	12.384675	-57.079205	101.100	-0.280	-0.190	0.720	101.090	-1.300	1.000																			1580042816.0	10.97	20.32
26/01/2020 12:46:57	26012020	260120	124657	101.020	12.384663	-57.079152	101.030	0.070	-0.830	0.970	101.020	-2.000	1.300																			1580042817.0	11.60	21.48
26/01/2020 12:46:58	26012020	260120	124658	100.930	12.384652	-57.079098	100.950	0.230	-0.910	1.020	100.930	-2.300	1.400																			1580042818.0	11.46	21.22
26/01/2020 12:46:59	26012020	260120	124659	100.840	12.384642	-57.079048	100.850	0.130	-0.540	0.880	100.840	-2.100	1.300																			1580042819.0	10.86	20.11
26/01/2020 12:47:00	26012020	260120	124700	100.710	12.384633	-57.079000	100.690	0.020	-0.190	0.920	100.710	-1.700	1.300	1016.40	26.10	26.20	18.40	18.50	374.00	62.00	62.00	375.00	27.20	348.00	11.30	79.00	5.90	29662	3081.00	27.50	27.40	1580042820.0	10.58	19.59
26/01/2020 12:47:01	26012020	260120	124701	100.590	12.384623	-57.078950	100.670	0.020	-0.070	0.910	100.590	-1.500	1.300																			1580042821.0	10.80	20.00
26/01/2020 12:47:02	26012020	260120	124702	100.640	12.384613	-57.078898	100.790	-0.010	0.010	0.820	100.640	-1.400	1.300																			1580042822.0	11.06	20.48
26/01/2020 12:47:03	26012020	260120	124703	100.810	12.384602	-57.078848	100.960	-0.120	0.180	0.710	100.810	-1.300	1.200																			1580042823.0	10.92	20.22
26/01/2020 12:47:04	26012020	260120	124704	100.940	12.384593	-57.078798	101.010	-0.200	0.140	0.640	100.940	-1.200	1.100																			1580042824.0	10.71	19.83
26/01/2020 12:47:05	26012020	260120	124705	100.910	12.384583	-57.078747	100.920	-0.090	-0.300	0.730	100.910	-1.500	1.100																			1580042825.0	10.98	20.33
26/01/2020 12:47:06	26012020	260120	124706	100.810	12.384573	-57.078693	100.890	0.090	-0.690	0.890	100.810	-2.000	1.200																			1580042826.0	11.41	21.13
26/01/2020 12:47:07	26012020	260120	124707	100.840	12.384563	-57.078642	101.000	0.090	-0.620	1.000	100.840	-2.100	1.400																			1580042827.0	11.23	20.80
26/01/2020 12:47:08	26012020	260120	124708	100.970	12.384553	-57.078592	101.120	-0.100	-0.280	1.140	100.970	-1.800	1.500																			1580042828.0	10.72	19.85
26/01/2020 12:47:09	26012020	260120	124709	101.030	12.384542	-57.078543	101.050	-0.250	-0.110	1.400	101.030	-1.500	1.700																			1580042829.0	10.91	20.21
26/01/2020 12:47:10	26012020	260120	124710	100.840	12.384530	-57.078493	100.790	-0.120	-0.310	1.670	100.840	-1.600	2.000																			1580042830.0	10.91	20.21
26/01/2020 12:47:11	26012020	260120	124711	100.600	12.384518	-57.078442	100.660	0.160	-0.550	1.530	100.600	-1.900	2.100																			1580042831.0	11.40	21.11
26/01/2020 12:47:12	26012020	260120	124712	100.600	12.384508	-57.078388	100.770	0.290	-0.390	1.000	100.600	-1.900	1.600																			1580042832.0	11.37	21.06
26/01/2020 12:47:13	26012020	260120	124713	100.820	12.384500	-57.078337	101.040	0.170	0.190	0.440	100.820	-1.400	1.100																			1580042833.0	10.84	20.08
26/01/2020 12:47:14	26012020	260120	124714	101.100	12.384493	-57.078288	101.290	-0.020	0.630	0.170	101.100	-0.900	0.600																			1580042834.0	10.34	19.15
26/01/2020 12:47:15	26012020	260120	124715	101.280	12.384487	-57.078240	101.360	-0.070	0.400	0.290	101.280	-0.800	0.600																			1580042835.0	10.49	19.43
26/01/2020 12:47:16	26012020	260120	124716	101.280	12.384477	-57.078188	101.330	0.060	-0.310	0.520	101.280	-1.400	0.800																			1580042836.0	11.15	20.65
26/01/2020 12:47:17	26012020	260120	124717	101.270	12.384465	-57.078135	101.370	0.140	-0.860	0.700	101.270	-2.100	1.100																			1580042837.0	11.49	21.28
26/01/2020 12:47:18	26012020	260120	124718	101.330	12.384455	-57.078083	101.420	-0.020	-0.940	0.820	101.330	-2.300	1.200																			1580042838.0	11.21	20.76
26/01/2020 12:47:19	26012020	260120	124719	101.330	12.384443	-57.078033	101.300	-0.260	-0.700	0.940	101.330	-2.200	1.300																			1580042839.0	10.74	19.89
26/01/2020 12:47:20	26012020	260120	124720	101.120	12.384432	-57.077985	101.000	-0.340	-0.430	1.090	101.120	-1.900	1.400																			1580042840.0	10.62	19.67
26/01/2020 12:47:21	26012020	260120	124721	100.830	12.384420	-57.077935	100.590	-0.170	-0.440	1.200	100.750	-1.800	1.600																			1580042841.0	10.84	20.08
26/01/2020 12:47:22	26012020	260120	124722	100.380	12.384410	-57.077882	100.340	0.090	-0.570	1.000	100.380	-1.900	1.500																			1580042842.0	11.35	21.02
26/01/2020 12:47:23	26012020	260120	124723	100.250	12.384400	-57.077828	100.300	0.150	-0.310	0.690	100.250	-1.900	1.200																			1580042843.0	11.50	21.30
26/01/2020 12:47:24	26012020	260120	124724	100.280	12.384392	-57.077778	100.440	-0.040	0.430	0.570	100.280	-1.300	1.000																			1580042844.0	10.91	20.21
26/01/2020 12:47:25	26012020	260120	124725	100.530	12.384382	-57.077730	100.810	-0.270	0.960	0.460	100.530	-0.600	0.900																			1580042845.0	10.33	19.13
26/01/2020 12:47:26	26012020	260120	124726	100.920	12.384372	-57.077682	101.140	-0.240	0.720	0.470	100.920	-0.500	0.900																			1580042846.0	10.50	19.45
26/01/2020 12:47:27	26012020	260120	124727	101.210	12.384362	-57.077630	101.420	0.110	-0.020	0.470	101.210	-1.100	0.900																			1580042847.0	11.17	20.69
26/01/2020 12:47:28	26012020	260120	124728	101.490	12.384352	-57.077577	101.680	0.480	-0.570	0.510	101.490	-1.800	0.900																			1580042848.0	11.42	21.15
26/01/2020 12:47:29	26012020	260120	124729	101.680	12.384343	-57.077525	101.800	0.570	-0.780	0.660	101.680	-2.100	1.000																			1580042849.0	11.03	20.43
26/01/2020 12:47:30	26012020	260120	124730	101.760	12.384333	-57.077475	101.780	0.380	-0.800	0.850	101.760	-2.200	1.200																			1580042850.0	10.71	19.83
26/01/2020 12:47:31	26012020	260120	124731	101.640	12.384323	-57.077425	101.560	0.050	-0.780	1.140	101.640	-2.200	1.400																			1580042851.0	10.67	19.76
26/01/2020 12:47:32	26012020	260120	124732	101.340	12.384313	-57.077377	101.220	-0.230	-0.740	1.440	101.340	-2.100	1.800																			1580042852.0	10.78	19.96
26/01/2020 12:47:33	26012020	260120	124733	101.050	12.384302	-57.077325	100.830	-0.260	-0.790	1.480	100.990	-2.100	1.900																			1580042853.0	10.97	20.32
26/01/2020 12:47:34	26012020	260120	124734	100.590	12.384290	-57.077273	100.470	-0.050	-0.890	1.410	100.590	-2.300	1.900																			1580042854.0	11.38	21.08
26/01/2020 12:47:35	26012020	260120	124735	100.330	12.384278	-57.077220	100.380	-0.020	-0.490	1.180	100.310	-2.100	1.700																			1580042855.0	11.61	21.50
26/01/2020 12:47:36	26012020	260120	124736	100.380	12.384268	-57.077168	100.610	-0.400	0.560	0.870	100.380	-1.300	1.400																			1580042856.0	10.95	20.28
26/01/2020 12:47:37	26012020	260120	124737	100.700	12.384258	-57.077122	100.970	-0.850	1.430	0.610	100.700	-0.200	1.100																			1580042857.0	10.11	18.72
26/01/2020 12:47:38	26012020	260120	124738	101.110	12.384248	-57.077075	101.410	-0.760	1.200	0.420	101.110	0.000	0.900																			1580042858.0	10.25	18.98
26/01/2020 12:47:39	26012020	260120	124739	101.540	12.384237	-57.077022	101.800	-0.110	0.130	0.320	101.540	-0.800	0.800																			1580042859.0	11.31	20.95
26/01/2020 12:47:40	26012020	260120	124740	101.900	12.384227	-57.076967	102.110	0.620	-0.710	0.270	101.900	-1.900	0.700																			1580042860.0	11.81	21.87
26/01/2020 12:47:41	26012020	260120	124741	102.130	12.384217	-57.076915	102.190	0.980	-0.780	0.340	102.130	-2.200	0.700																			1580042861.0	11.22	20.78
26/01/2020 12:47:42	26012020	260120	124742	102.140	12.384210	-57.076867	102.140	0.930	-0.570	0.440	102.140	-2.000	0.800																			1580042862.0	10.39	19.24
26/01/2020 12:47:43	26012020	260120	124743	102.070	12.384202	-57.076818	102.040	0.660	-0.610	0.540	102.070	-1.900	0.900																			1580042863.0	10.31	19.09
26/01/2020 12:47:44	26012020	260120	124744	101.930	12.384195	-57.076768	101.860	0.310	-0.760	0.800	101.930	-2.100	1.100																			1580042864.0	10.80	20.00
26/01/2020 12:47:45	26012020	260120	124745	101.760	12.384183	-57.076717	101.730	-0.130	-0.710	1.120	101.760	-2.100	1.400																			1580042865.0	10.99	20.35
26/01/2020 12:47:46	26012020	260120	124746	101.600	12.384170	-57.076668	101.510	-0.520	-0.560	1.480	101.600	-2.000	1.800																			1580042866.0	10.88	20.15
26/01/2020 12:47:47	26012020	260120	124747	101.300	12.384155	-57.076618	101.170	-0.630	-0.480	1.700	101.300	-1.900	2.100																			1580042867.0	11.02	20.41
26/01/2020 12:47:48	26012020	260120	124748	101.010	12.384142	-57.076567	101.030	-0.530	-0.280	1.490	101.010	-1.800	2.000																			1580042868.0	11.26	20.85
26/01/2020 12:47:49	26012020	260120	124749	101.000	12.384130	-57.076515	101.130	-0.390	0.110	1.050	101.000	-1.400	1.600																			1580042869.0	11.10	20.56
26/01/2020 12:47:50	26012020	260120	124750	101.150	12.384120	-57.076465	101.330	-0.320	0.460	0.540	101.150	-1.000	1.100																			1580042870.0	10.83	20.06
26/01/2020 12:47:51	26012020	260120	124751	101.400	12.384112	-57.076415	101.570	-0.200	0.510	0.190	101.400	-0.900	0.700																			1580042871.0	10.77	19.95
26/01/2020 12:47:52	26012020	260120	124752	101.610	12.384102	-57.076363	101.740	0.080	0.180	0.160	101.610	-1.100	0.600																			1580042872.0	10.97	20.32
26/01/2020 12:47:53	26012020	260120	124753	101.780	12.384092	-57.076312	101.930	0.410	-0.200	0.210	101.780	-1.500	0.600																			1580042873.0	11.21	20.76
26/01/2020 12:47:54	26012020	260120	124754	102.000	12.384083	-57.076260	102.120	0.570	-0.350	0.330	102.000	-1.700	0.700																			1580042874.0	11.08	20.52
26/01/2020 12:47:55	26012020	260120	124755	102.130	12.384073	-57.076210	102.130	0.480	-0.300	0.620	102.130	-1.700	0.900																			1580042875.0	10.72	19.85
26/01/2020 12:47:56	26012020	260120	124756	102.030	12.384063	-57.076162	101.970	0.280	-0.360	0.910	102.030	-1.700	1.200																			1580042876.0	10.53	19.50
26/01/2020 12:47:57	26012020	260120	124757	101.890	12.384052	-57.076112	101.830	0.200	-0.680	1.120	101.850	-1.900	1.500																			1580042877.0	10.78	19.96
26/01/2020 12:47:58	26012020	260120	124758	101.730	12.384040	-57.076060	101.730	0.190	-0.810	1.180	101.730	-2.200	1.600																			1580042878.0	11.18	20.71
26/01/2020 12:47:59	26012020	260120	124759	101.660	12.384030	-57.076010	101.660	0.010	-0.430	1.030	101.650	-2.000	1.500																			1580042879.0	10.95	20.28
26/01/2020 12:48:00	26012020	260120	124800	101.580	12.384020	-57.075962	101.560	-0.280	-0.030	0.950	101.580	-1.500	1.400	1016.40	26.10	26.10	18.40	18.40	359.00	62.00	62.00	375.00	27.20	347.00	11.30	77.00	6.00	29155	3098.00	27.50	27.40	1580042880.0	10.44	19.33
26/01/2020 12:48:01	26012020	260120	124801	101.430	12.384008	-57.075912	101.400	-0.410	-0.090	1.010	101.430	-1.400	1.400																			1580042881.0	10.62	19.67
26/01/2020 12:48:02	26012020	260120	124802	101.280	12.383997	-57.075862	101.280	-0.250	-0.420	0.970	101.280	-1.700	1.400																			1580042882.0	11.22	20.78
26/01/2020 12:48:03	26012020	260120	124803	101.230	12.383985	-57.075808	101.250	0.030	-0.550	0.790	101.230	-1.900	1.300																			1580042883.0	11.47	21.24
26/01/2020 12:48:04	26012020	260120	124804	101.190	12.383975	-57.075757	101.230	0.160	-0.270	0.760	101.190	-1.800	1.200																			1580042884.0	11.19	20.72
26/01/2020 12:48:05	26012020	260120	124805	101.190	12.383965	-57.075707	101.230	0.090	0.090	0.830	101.190	-1.400	1.200																			1580042885.0	10.75	19.91
26/01/2020 12:48:06	26012020	260120	124806	101.220	12.383955	-57.075657	101.310	-0.070	0.200	0.880	101.220	-1.200	1.300																			1580042886.0	10.70	19.82
26/01/2020 12:48:07	26012020	260120	124807	101.350	12.383945	-57.075607	101.500	-0.200	0.120	0.940	101.350	-1.200	1.300																			1580042887.0	10.92	20.22
26/01/2020 12:48:08	26012020	260120	124808	101.530	12.383933	-57.075555	101.640	-0.210	-0.080	1.020	101.530	-1.400	1.400																			1580042888.0	10.98	20.33
26/01/2020 12:48:09	26012020	260120	124809	101.640	12.383922	-57.075505	101.690	-0.060	-0.290	1.130	101.640	-1.600	1.500																			1580042889.0	11.02	20.41
26/01/2020 12:48:10	26012020	260120	124810	101.630	12.383910	-57.075453	101.640	0.140	-0.410	1.340	101.630	-1.800	1.700																			1580042890.0	11.01	20.39
26/01/2020 12:48:11	26012020	260120	124811	101.570	12.383898	-57.075403	101.600	0.270	-0.390	1.400	101.570	-1.800	1.800																			1580042891.0	10.90	20.19
26/01/2020 12:48:12	26012020	260120	124812	101.560	12.383890	-57.075353	101.610	0.310	-0.340	1.110	101.560	-1.700	1.700																			1580042892.0	10.77	19.95
26/01/2020 12:48:13	26012020	260120	124813	101.590	12.383882	-57.075303	101.650	0.280	-0.300	0.790	101.590	-1.700	1.300																			1580042893.0	10.79	19.98
26/01/2020 12:48:14	26012020	260120	124814	101.620	12.383873	-57.075252	101.670	0.190	-0.290	0.740	101.620	-1.700	1.100																			1580042894.0	10.86	20.11
26/01/2020 12:48:15	26012020	260120	124815	101.570	12.383863	-57.075202	101.560	0.060	-0.320	0.900	101.570	-1.700	1.200																			1580042895.0	10.90	20.19
26/01/2020 12:48:16	26012020	260120	124816	101.430	12.383853	-57.075152	101.390	-0.040	-0.450	1.110	101.430	-1.800	1.400																			1580042896.0	10.97	20.32
26/01/2020 12:48:17	26012020	260120	124817	101.250	12.383842	-57.075100	101.240	-0.080	-0.560	1.170	101.250	-1.900	1.600																			1580042897.0	11.19	20.72
26/01/2020 12:48:18	26012020	260120	124818	101.190	12.383830	-57.075048	101.300	-0.180	-0.310	1.020	101.190	-1.800	1.500																			1580042898.0	11.20	20.74
26/01/2020 12:48:19	26012020	260120	124819	101.360	12.383820	-57.074998	101.540	-0.380	0.130	0.790	101.360	-1.400	1.300																			1580042899.0	10.71	19.83
26/01/2020 12:48:20	26012020	260120	124820	101.560	12.383810	-57.074950	101.620	-0.400	0.170	0.700	101.560	-1.200	1.100																			1580042900.0	10.55	19.54
26/01/2020 12:48:21	26012020	260120	124821	101.540	12.383798	-57.074898	101.580	-0.110	-0.260	0.710	101.540	-1.500	1.100																			1580042901.0	11.08	20.52
26/01/2020 12:48:22	26012020	260120	124822	101.540	12.383787	-57.074845	101.650	0.210	-0.520	0.700	101.540	-1.900	1.100																			1580042902.0	11.53	21.35
26/01/2020 12:48:23	26012020	260120	124823	101.650	12.383777	-57.074793	101.840	0.220	-0.220	0.580	101.680	-1.800	1.000																			1580042903.0	11.15	20.65
26/01/2020 12:48:24	26012020	260120	124824	101.900	12.383768	-57.074745	102.020	-0.050	0.190	0.580	101.900	-1.300	1.000																			1580042904.0	10.47	19.39
26/01/2020 12:48:25	26012020	260120	124825	102.000	12.383758	-57.074697	102.100	-0.280	0.190	0.820	102.010	-1.100	1.100																			1580042905.0	10.40	19.26
26/01/2020 12:48:26	26012020	260120	124826	102.070	12.383747	-57.074647	102.150	-0.300	-0.210	1.120	102.070	-1.400	1.400																			1580042906.0	10.87	20.13
26/01/2020 12:48:27	26012020	260120	124827	102.100	12.383733	-57.074595	102.150	-0.080	-0.650	1.160	102.100	-1.900	1.600																			1580042907.0	11.21	20.76
26/01/2020 12:48:28	26012020	260120	124828	102.000	12.383722	-57.074543	101.920	0.260	-0.850	0.970	102.000	-2.200	1.500																			1580042908.0	11.27	20.87
26/01/2020 12:48:29	26012020	260120	124829	101.720	12.383712	-57.074492	101.620	0.440	-0.660	0.840	101.720	-2.200	1.300																			1580042909.0	11.12	20.59
26/01/2020 12:48:30	26012020	260120	124830	101.500	12.383703	-57.074442	101.480	0.360	-0.210	0.750	101.500	-1.800	1.200																			1580042910.0	10.78	19.96
26/01/2020 12:48:31	26012020	260120	124831	101.450	12.383693	-57.074392	101.530	0.120	0.210	0.590	101.450	-1.300	1.100																			1580042911.0	10.54	19.52
26/01/2020 12:48:32	26012020	260120	124832	101.530	12.383685	-57.074343	101.630	-0.060	0.200	0.420	101.530	-1.100	0.900																			1580042912.0	10.63	19.69
26/01/2020 12:48:33	26012020	260120	124833	101.610	12.383677	-57.074292	101.690	-0.100	-0.200	0.530	101.610	-1.400	0.900																			1580042913.0	11.12	20.59
26/01/2020 12:48:34	26012020	260120	124834	101.650	12.383663	-57.074238	101.720	-0.140	-0.440	0.930	101.650	-1.800	1.200																			1580042914.0	11.40	21.11
26/01/2020 12:48:35	26012020	260120	124835	101.650	12.383650	-57.074188	101.710	-0.280	-0.300	1.300	101.650	-1.800	1.600																			1580042915.0	11.07	20.50
26/01/2020 12:48:36	26012020	260120	124836	101.610	12.383637	-57.074140	101.640	-0.390	-0.150	1.400	101.610	-1.600	1.800																			1580042916.0	10.63	19.69
26/01/2020 12:48:37	26012020	260120	124837	101.520	12.383625	-57.074090	101.500	-0.290	-0.400	1.260	101.520	-1.700	1.700																			1580042917.0	10.78	19.96
26/01/2020 12:48:38	26012020	260120	124838	101.370	12.383615	-57.074038	101.330	-0.100	-0.600	1.050	101.370	-2.000	1.500																			1580042918.0	11.30	20.93
26/01/2020 12:48:39	26012020	260120	124839	101.230	12.383605	-57.073987	101.250	-0.020	-0.270	0.840	101.230	-1.800	1.300																			1580042919.0	11.14	20.63
26/01/2020 12:48:40	26012020	260120	124840	101.210	12.383595	-57.073937	101.250	-0.030	0.120	0.680	101.210	-1.400	1.100																			1580042920.0	10.54	19.52
26/01/2020 12:48:41	26012020	260120	124841	101.230	12.383587	-57.073888	101.280	0.040	0.030	0.640	101.230	-1.300	1.100																			1580042921.0	10.62	19.67
26/01/2020 12:48:42	26012020	260120	124842	101.270	12.383575	-57.073837	101.340	0.220	-0.290	0.610	101.270	-1.600	1.000																			1580042922.0	11.18	20.71
26/01/2020 12:48:43	26012020	260120	124843	101.320	12.383567	-57.073783	101.380	0.370	-0.360	0.690	101.320	-1.800	1.000																			1580042923.0	11.29	20.91
26/01/2020 12:48:44	26012020	260120	124844	101.360	12.383557	-57.073733	101.430	0.350	-0.140	0.940	101.360	-1.600	1.300																			1580042924.0	10.91	20.21
26/01/2020 12:48:45	26012020	260120	124845	101.420	12.383545	-57.073683	101.500	0.220	-0.020	1.150	101.420	-1.400	1.500																			1580042925.0	10.60	19.63
26/01/2020 12:48:46	26012020	260120	124846	101.450	12.383535	-57.073633	101.480	0.060	-0.170	1.270	101.450	-1.500	1.600																			1580042926.0	10.76	19.93
26/01/2020 12:48:47	26012020	260120	124847	101.340	12.383525	-57.073583	101.300	-0.070	-0.450	1.300	101.340	-1.700	1.700																			1580042927.0	11.04	20.45
26/01/2020 12:48:48	26012020	260120	124848	101.140	12.383515	-57.073532	101.120	-0.140	-0.650	1.330	101.140	-2.000	1.700																			1580042928.0	11.15	20.65
26/01/2020 12:48:49	26012020	260120	124849	101.000	12.383505	-57.073480	101.080	-0.180	-0.630	1.200	101.000	-2.100	1.700																			1580042929.0	11.13	20.61
26/01/2020 12:48:50	26012020	260120	124850	101.060	12.383495	-57.073428	101.220	-0.280	-0.360	0.860	101.060	-1.900	1.400																			1580042930.0	10.94	20.26
26/01/2020 12:48:51	26012020	260120	124851	101.280	12.383485	-57.073378	101.440	-0.400	-0.020	0.670	101.280	-1.500	1.100																			1580042931.0	10.74	19.89
26/01/2020 12:48:52	26012020	260120	124852	101.450	12.383473	-57.073330	101.520	-0.410	0.160	0.700	101.450	-1.300	1.100																			1580042932.0	10.67	19.76
26/01/2020 12:48:53	26012020	260120	124853	101.460	12.383462	-57.073280	101.500	-0.170	-0.030	0.750	101.460	-1.300	1.200																			1580042933.0	10.91	20.21
26/01/2020 12:48:54	26012020	260120	124854	101.440	12.383450	-57.073228	101.490	0.160	-0.300	0.660	101.440	-1.600	1.100																			1580042934.0	11.27	20.87
26/01/2020 12:48:55	26012020	260120	124855	101.430	12.383442	-57.073175	101.480	0.390	-0.360	0.420	101.430	-1.800	0.900																			1580042935.0	11.25	20.84
26/01/2020 12:48:56	26012020	260120	124856	101.440	12.383433	-57.073123	101.510	0.450	-0.230	0.150	101.440	-1.700	0.700																			1580042936.0	10.97	20.32
26/01/2020 12:48:57	26012020	260120	124857	101.510	12.383425	-57.073073	101.640	0.380	-0.080	0.000	101.510	-1.500	0.500																			1580042937.0	10.81	20.02
26/01/2020 12:48:58	26012020	260120	124858	101.680	12.383417	-57.073023	101.830	0.160	0.050	0.110	101.680	-1.400	0.500																			1580042938.0	10.78	19.96
26/01/2020 12:48:59	26012020	260120	124859	101.850	12.383407	-57.072973	101.960	-0.130	0.050	0.480	101.850	-1.300	0.700																			1580042939.0	10.69	19.80
26/01/2020 12:49:00	26012020	260120	124900	101.890	12.383395	-57.072923	101.900	-0.300	-0.230	0.990	101.890	-1.500	1.200	1016.40	26.10	26.10	18.50	18.60	336.00	63.00	63.00	375.00	27.20	348.00	11.50	78.00	6.10	28256	3011.00	27.40	27.40	1580042940.0	10.79	19.98
26/01/2020 12:49:01	26012020	260120	124901	101.780	12.383382	-57.072873	101.700	-0.250	-0.680	1.320	101.740	-1.900	1.700																			1580042941.0	11.11	20.58
26/01/2020 12:49:02	26012020	260120	124902	101.530	12.383370	-57.072822	101.480	-0.040	-1.050	1.350	101.530	-2.300	1.800																			1580042942.0	11.35	21.02
26/01/2020 12:49:03	26012020	260120	124903	101.310	12.383358	-57.072768	101.330	0.130	-0.970	1.270	101.310	-2.500	1.700																			1580042943.0	11.38	21.08
26/01/2020 12:49:04	26012020	260120	124904	101.220	12.383348	-57.072718	101.320	0.020	-0.330	1.040	101.220	-2.000	1.600																			1580042944.0	10.99	20.35
26/01/2020 12:49:05	26012020	260120	124905	101.300	12.383338	-57.072670	101.390	-0.320	0.420	0.820	101.300	-1.200	1.300																			1580042945.0	10.44	19.33
26/01/2020 12:49:06	26012020	260120	124906	101.320	12.383328	-57.072622	101.330	-0.520	0.610	0.780	101.320	-0.800	1.200																			1580042946.0	10.36	19.19
26/01/2020 12:49:07	26012020	260120	124907	101.220	12.383317	-57.072570	101.250	-0.290	0.110	0.750	101.220	-1.000	1.200																			1580042947.0	10.96	20.30
26/01/2020 12:49:08	26012020	260120	124908	101.180	12.383307	-57.072517	101.270	0.250	-0.550	0.780	101.180	-1.700	1.200																			1580042948.0	11.64	21.56
26/01/2020 12:49:09	26012020	260120	124909	101.220	12.383295	-57.072463	101.350	0.570	-0.640	0.770	101.220	-2.100	1.200																			1580042949.0	11.66	21.59
26/01/2020 12:49:10	26012020	260120	124910	101.350	12.383287	-57.072412	101.520	0.430	-0.120	0.700	101.350	-1.700	1.100																			1580042950.0	10.88	20.15
26/01/2020 12:49:11	26012020	260120	124911	101.540	12.383278	-57.072365	101.700	0.070	0.330	0.810	101.540	-1.200	1.200																			1580042951.0	10.21	18.91
26/01/2020 12:49:12	26012020	260120	124912	101.680	12.383268	-57.072317	101.780	-0.100	0.160	1.020	101.680	-1.100	1.400																			1580042952.0	10.38	19.22
26/01/2020 12:49:13	26012020	260120	124913	101.710	12.383257	-57.072265	101.780	0.010	-0.460	1.070	101.710	-1.600	1.500																			1580042953.0	11.07	20.50
26/01/2020 12:49:14	26012020	260120	124914	101.680	12.383247	-57.072212	101.740	0.170	-0.900	0.950	101.680	-2.200	1.400																			1580042954.0	11.48	21.26
26/01/2020 12:49:15	26012020	260120	124915	101.670	12.383237	-57.072160	101.770	0.090	-0.750	0.880	101.670	-2.200	1.300																			1580042955.0	11.21	20.76
26/01/2020 12:49:16	26012020	260120	124916	101.680	12.383227	-57.072110	101.700	-0.200	-0.400	0.920	101.680	-1.900	1.300																			1580042956.0	10.63	19.69
26/01/2020 12:49:17	26012020	260120	124917	101.530	12.383215	-57.072062	101.470	-0.360	-0.280	1.010	101.530	-1.700	1.400																			1580042957.0	10.62	19.67
26/01/2020 12:49:18	26012020	260120	124918	101.270	12.383203	-57.072010	101.230	-0.270	-0.330	1.050	101.270	-1.700	1.400																			1580042958.0	11.05	20.46
26/01/2020 12:49:19	26012020	260120	124919	101.080	12.383192	-57.071958	101.150	-0.120	-0.260	0.990	101.080	-1.700	1.400																			1580042959.0	11.26	20.85
26/01/2020 12:49:20	26012020	260120	124920	101.120	12.383182	-57.071908	101.240	-0.060	-0.030	0.840	101.120	-1.500	1.300																			1580042960.0	11.05	20.46
26/01/2020 12:49:21	26012020	260120	124921	101.200	12.383172	-57.071857	101.270	0.000	0.020	0.720	101.200	-1.300	1.200																			1580042961.0	10.88	20.15
26/01/2020 12:49:22	26012020	260120	124922	101.210	12.383162	-57.071805	101.290	0.140	-0.100	0.670	101.210	-1.400	1.100																			1580042962.0	11.11	20.58
26/01/2020 12:49:23	26012020	260120	124923	101.270	12.383152	-57.071753	101.420	0.170	0.020	0.690	101.270	-1.500	1.100																			1580042963.0	11.21	20.76
26/01/2020 12:49:24	26012020	260120	124924	101.490	12.383143	-57.071703	101.720	0.050	0.330	0.560	101.490	-1.200	1.000																			1580042964.0	10.72	19.85
26/01/2020 12:49:25	26012020	260120	124925	101.820	12.383133	-57.071655	102.010	-0.000	0.240	0.480	101.820	-1.000	0.900																			1580042965.0	10.45	19.35
26/01/2020 12:49:26	26012020	260120	124926	102.050	12.383123	-57.071605	102.110	0.170	-0.360	0.640	102.050	-1.500	1.000																			1580042966.0	10.90	20.19
26/01/2020 12:49:27	26012020	260120	124927	102.030	12.383112	-57.071552	102.000	0.340	-0.830	0.810	102.030	-2.100	1.200																			1580042967.0	11.38	21.08
26/01/2020 12:49:28	26012020	260120	124928	101.900	12.383102	-57.071500	101.870	0.290	-0.780	0.920	101.900	-2.200	1.300																			1580042968.0	11.10	20.56
26/01/2020 12:49:29	26012020	260120	124929	101.770	12.383092	-57.071452	101.740	0.040	-0.550	0.980	101.770	-2.000	1.400																			1580042969.0	10.63	19.69
26/01/2020 12:49:30	26012020	260120	124930	101.640	12.383082	-57.071402	101.610	-0.230	-0.490	0.960	101.640	-1.900	1.400																			1580042970.0	10.66	19.74
26/01/2020 12:49:31	26012020	260120	124931	101.510	12.383072	-57.071352	101.450	-0.350	-0.560	0.910	101.510	-1.900	1.300																			1580042971.0	11.02	20.41
26/01/2020 12:49:32	26012020	260120	124932	101.300	12.383060	-57.071300	101.220	-0.320	-0.480	0.890	101.300	-1.900	1.300																			1580042972.0	11.25	20.84
26/01/2020 12:49:33	26012020	260120	124933	101.100	12.383048	-57.071248	101.110	-0.240	-0.170	0.750	101.100	-1.700	1.200																			1580042973.0	11.10	20.56
26/01/2020 12:49:34	26012020	260120	124934	101.050	12.383037	-57.071198	101.150	-0.090	0.030	0.530	101.050	-1.400	1.000																			1580042974.0	10.92	20.22
26/01/2020 12:49:35	26012020	260120	124935	101.110	12.383028	-57.071147	101.210	0.070	0.060	0.350	101.110	-1.300	0.800																			1580042975.0	11.13	20.61
26/01/2020 12:49:36	26012020	260120	124936	101.150	12.383018	-57.071093	101.220	0.090	0.190	0.320	101.150	-1.300	0.700																			1580042976.0	11.21	20.76
26/01/2020 12:49:37	26012020	260120	124937	101.170	12.383008	-57.071043	101.360	-0.000	0.400	0.410	101.200	-1.100	0.800																			1580042977.0	10.88	20.15
26/01/2020 12:49:38	26012020	260120	124938	101.460	12.382998	-57.070993	101.730	0.000	0.370	0.450	101.460	-0.900	0.900																			1580042978.0	10.64	19.71
26/01/2020 12:49:39	26012020	260120	124939	101.810	12.382988	-57.070943	101.980	0.190	-0.080	0.550	101.810	-1.200	0.900																			1580042979.0	10.85	20.09
26/01/2020 12:49:40	26012020	260120	124940	101.940	12.382977	-57.070892	102.030	0.380	-0.580	0.750	101.940	-1.800	1.100																			1580042980.0	11.21	20.76
26/01/2020 12:49:41	26012020	260120	124941	101.970	12.382967	-57.070840	102.040	0.380	-0.670	1.050	101.970	-2.100	1.400																			1580042981.0	11.09	20.54
26/01/2020 12:49:42	26012020	260120	124942	101.950	12.382957	-57.070792	101.970	0.170	-0.540	1.200	101.950	-2.000	1.600																			1580042982.0	10.60	19.63
26/01/2020 12:49:43	26012020	260120	124943	101.840	12.382947	-57.070742	101.730	-0.020	-0.720	1.210	101.840	-2.000	1.600																			1580042983.0	10.57	19.58
26/01/2020 12:49:44	26012020	260120	124944	101.510	12.382937	-57.070690	101.380	-0.060	-1.020	1.280	101.510	-2.300	1.700																			1580042984.0	11.16	20.67
26/01/2020 12:49:45	26012020	260120	124945	101.160	12.382925	-57.070638	101.060	-0.110	-0.930	1.370	101.160	-2.400	1.800																			1580042985.0	11.41	21.13
26/01/2020 12:49:46	26012020	260120	124946	100.920	12.382913	-57.070587	100.960	-0.260	-0.440	1.210	100.920	-2.000	1.700																			1580042986.0	11.11	20.58
26/01/2020 12:49:47	26012020	260120	124947	100.930	12.382903	-57.070537	101.040	-0.400	0.090	0.950	100.930	-1.500	1.500																			1580042987.0	10.83	20.06
26/01/2020 12:49:48	26012020	260120	124948	101.040	12.382892	-57.070487	101.180	-0.410	0.500	0.710	101.040	-1.000	1.200																			1580042988.0	10.88	20.15
26/01/2020 12:49:49	26012020	260120	124949	101.240	12.382882	-57.070437	101.450	-0.330	0.700	0.410	101.240	-0.700	0.900																			1580042989.0	10.91	20.21
26/01/2020 12:49:50	26012020	260120	124950	101.560	12.382872	-57.070385	101.820	-0.130	0.550	0.250	101.560	-0.700	0.700																			1580042990.0	10.92	20.22
26/01/2020 12:49:51	26012020	260120	124951	101.880	12.382863	-57.070333	102.190	0.210	0.040	0.140	101.950	-1.100	0.600																			1580042991.0	11.11	20.58
26/01/2020 12:49:52	26012020	260120	124952	102.230	12.382853	-57.070280	102.340	0.530	-0.490	0.270	102.230	-1.700	0.600																			1580042992.0	11.35	21.02
26/01/2020 12:49:53	26012020	260120	124953	102.280	12.382843	-57.070228	102.340	0.610	-0.660	0.590	102.280	-2.000	0.900																			1580042993.0	11.20	20.74
26/01/2020 12:49:54	26012020	260120	124954	102.230	12.382833	-57.070178	102.290	0.420	-0.480	0.850	102.230	-1.900	1.200																			1580042994.0	10.73	19.87
26/01/2020 12:49:55	26012020	260120	124955	102.230	12.382823	-57.070130	102.310	0.100	-0.320	0.930	102.230	-1.700	1.400																			1580042995.0	10.41	19.28
26/01/2020 12:49:56	26012020	260120	124956	102.240	12.382813	-57.070082	102.250	-0.120	-0.470	0.920	102.240	-1.700	1.300																			1580042996.0	10.61	19.65
26/01/2020 12:49:57	26012020	260120	124957	102.070	12.382802	-57.070030	101.990	-0.180	-0.790	1.080	102.070	-2.000	1.400																			1580042997.0	11.10	20.56
26/01/2020 12:49:58	26012020	260120	124958	101.760	12.382790	-57.069978	101.660	-0.170	-0.860	1.280	101.760	-2.200	1.600																			1580042998.0	11.37	21.06
26/01/2020 12:49:59	26012020	260120	124959	101.460	12.382777	-57.069927	101.410	-0.180	-0.550	1.330	101.460	-2.100	1.800																			1580042999.0	11.18	20.71
26/01/2020 12:50:00	26012020	260120	125000	101.270	12.382765	-57.069877	101.330	-0.200	-0.060	1.030	101.270	-1.600	1.600	1016.50	26.10	26.20	18.20	18.30	314.00	61.00	61.00	375.00	27.20	350.00	11.60	83.00	6.10	27428	3198.00	27.40	27.40	1580043000.0	10.88	20.15
26/01/2020 12:50:01	26012020	260120	125001	101.290	12.382755	-57.069827	101.460	-0.200	0.260	0.580	101.290	-1.200	1.200																			1580043001.0	10.80	20.00
26/01/2020 12:50:02	26012020	260120	125002	101.540	12.382747	-57.069775	101.780	-0.170	0.370	0.300	101.540	-1.000	0.800																			1580043002.0	10.95	20.28
26/01/2020 12:50:03	26012020	260120	125003	101.840	12.382737	-57.069725	102.070	-0.100	0.320	0.250	101.900	-1.000	0.600																			1580043003.0	11.01	20.39
26/01/2020 12:50:04	26012020	260120	125004	102.050	12.382725	-57.069673	102.080	-0.010	0.160	0.430	102.050	-1.100	0.800																			1580043004.0	10.96	20.30
26/01/2020 12:50:05	26012020	260120	125005	102.010	12.382715	-57.069623	102.010	0.160	-0.220	0.540	101.990	-1.400	0.900																			1580043005.0	10.97	20.32
26/01/2020 12:50:06	26012020	260120	125006	101.940	12.382705	-57.069572	102.010	0.390	-0.720	0.510	101.940	-1.900	0.900																			1580043006.0	11.18	20.71
26/01/2020 12:50:07	26012020	260120	125007	101.960	12.382697	-57.069518	102.010	0.460	-0.890	0.540	101.960	-2.300	0.900																			1580043007.0	11.34	21.00
26/01/2020 12:50:08	26012020	260120	125008	101.960	12.382687	-57.069468	101.980	0.180	-0.550	0.620	101.960	-2.100	1.000																			1580043008.0	10.93	20.24
26/01/2020 12:50:09	26012020	260120	125009	101.880	12.382677	-57.069420	101.850	-0.210	-0.190	0.830	101.880	-1.700	1.200																			1580043009.0	10.47	19.39
26/01/2020 12:50:10	26012020	260120	125010	101.730	12.382663	-57.069370	101.680	-0.360	-0.230	1.040	101.730	-1.500	1.400																			1580043010.0	10.67	19.76
26/01/2020 12:50:11	26012020	260120	125011	101.510	12.382650	-57.069320	101.420	-0.190	-0.420	1.080	101.510	-1.700	1.500																			1580043011.0	11.23	20.80
26/01/2020 12:50:12	26012020	260120	125012	101.270	12.382638	-57.069267	101.200	0.030	-0.310	0.880	101.270	-1.800	1.400																			1580043012.0	11.36	21.04
26/01/2020 12:50:13	26012020	260120	125013	101.150	12.382628	-57.069217	101.180	0.100	0.040	0.650	101.150	-1.500	1.200																			1580043013.0	10.96	20.30
26/01/2020 12:50:14	26012020	260120	125014	101.190	12.382618	-57.069167	101.270	0.090	0.230	0.430	101.190	-1.200	0.900																			1580043014.0	10.70	19.82
26/01/2020 12:50:15	26012020	260120	125015	101.320	12.382610	-57.069115	101.440	0.070	0.130	0.300	101.320	-1.200	0.800																			1580043015.0	10.87	20.13
26/01/2020 12:50:16	26012020	260120	125016	101.530	12.382602	-57.069063	101.700	-0.000	-0.020	0.380	101.530	-1.300	0.700																			1580043016.0	11.05	20.46
26/01/2020 12:50:17	26012020	260120	125017	101.790	12.382590	-57.069013	101.920	-0.140	-0.150	0.680	101.790	-1.400	1.000																			1580043017.0	10.91	20.21
26/01/2020 12:50:18	26012020	260120	125018	101.930	12.382578	-57.068963	101.990	-0.140	-0.490	1.050	101.930	-1.700	1.300																			1580043018.0	10.84	20.08
26/01/2020 12:50:19	26012020	260120	125019	101.920	12.382565	-57.068913	101.910	0.120	-0.970	1.290	101.920	-2.200	1.600																			1580043019.0	11.16	20.67
26/01/2020 12:50:20	26012020	260120	125020	101.770	12.382553	-57.068860	101.720	0.400	-1.080	1.310	101.770	-2.500	1.800																			1580043020.0	11.42	21.15
26/01/2020 12:50:21	26012020	260120	125021	101.560	12.382543	-57.068808	101.510	0.340	-0.560	1.120	101.560	-2.200	1.600																			1580043021.0	11.10	20.56
26/01/2020 12:50:22	26012020	260120	125022	101.390	12.382537	-57.068760	101.420	-0.080	0.080	0.910	101.390	-1.500	1.400																			1580043022.0	10.53	19.50
26/01/2020 12:50:23	26012020	260120	125023	101.360	12.382527	-57.068710	101.460	-0.440	0.250	0.720	101.360	-1.100	1.200																			1580043023.0	10.56	19.56
26/01/2020 12:50:24	26012020	260120	125024	101.440	12.382515	-57.068658	101.530	-0.450	0.070	0.670	101.440	-1.200	1.100																			1580043024.0	11.11	20.58
26/01/2020 12:50:25	26012020	260120	125025	101.500	12.382503	-57.068607	101.580	-0.260	0.030	0.730	101.500	-1.400	1.100																			1580043025.0	11.35	21.02
26/01/2020 12:50:26	26012020	260120	125026	101.540	12.382492	-57.068555	101.640	-0.070	0.090	0.780	101.540	-1.300	1.200																			1580043026.0	11.03	20.43
26/01/2020 12:50:27	26012020	260120	125027	101.610	12.382482	-57.068505	101.710	0.090	-0.060	0.700	101.610	-1.300	1.200																			1580043027.0	10.87	20.13
26/01/2020 12:50:28	26012020	260120	125028	101.710	12.382472	-57.068453	101.850	0.210	-0.300	0.480	101.710	-1.600	1.000																			1580043028.0	11.09	20.54
26/01/2020 12:50:29	26012020	260120	125029	101.830	12.382462	-57.068403	101.980	0.260	-0.330	0.350	101.860	-1.700	0.800																			1580043029.0	11.05	20.46
26/01/2020 12:50:30	26012020	260120	125030	101.970	12.382453	-57.068353	102.030	0.310	-0.310	0.430	101.970	-1.700	0.800																			1580043030.0	10.74	19.89
26/01/2020 12:50:31	26012020	260120	125031	101.940	12.382443	-57.068303	101.940	0.370	-0.480	0.580	101.940	-1.800	0.900																			1580043031.0	10.80	20.00
26/01/2020 12:50:32	26012020	260120	125032	101.780	12.382433	-57.068252	101.760	0.310	-0.630	0.710	101.780	-2.000	1.100																			1580043032.0	11.09	20.54
26/01/2020 12:50:33	26012020	260120	125033	101.600	12.382423	-57.068200	101.620	0.080	-0.560	0.910	101.600	-2.000	1.200																			1580043033.0	11.10	20.56
26/01/2020 12:50:34	26012020	260120	125034	101.510	12.382412	-57.068150	101.610	-0.260	-0.270	1.010	101.510	-1.800	1.400																			1580043034.0	10.90	20.19
26/01/2020 12:50:35	26012020	260120	125035	101.550	12.382400	-57.068100	101.670	-0.540	-0.030	1.030	101.550	-1.500	1.400																			1580043035.0	10.72	19.85
26/01/2020 12:50:36	26012020	260120	125036	101.590	12.382388	-57.068050	101.680	-0.590	-0.090	1.050	101.590	-1.400	1.500																			1580043036.0	10.88	20.15
26/01/2020 12:50:37	26012020	260120	125037	101.580	12.382375	-57.067998	101.650	-0.340	-0.320	0.970	101.580	-1.600	1.400																			1580043037.0	11.24	20.82
26/01/2020 12:50:38	26012020	260120	125038	101.570	12.382363	-57.067947	101.660	0.000	-0.440	0.730	101.570	-1.800	1.200																			1580043038.0	11.40	21.11
26/01/2020 12:50:39	26012020	260120	125039	101.620	12.382353	-57.067893	101.750	0.180	-0.190	0.370	101.620	-1.700	0.900																			1580043039.0	11.24	20.82
26/01/2020 12:50:40	26012020	260120	125040	101.780	12.382345	-57.067843	101.930	0.140	0.320	-0.010	101.780	-1.200	0.500																			1580043040.0	10.71	19.83
26/01/2020 12:50:41	26012020	260120	125041	101.930	12.382338	-57.067795	102.070	0.120	0.430	-0.110	101.960	-0.900	0.300																			1580043041.0	10.42	19.30
26/01/2020 12:50:42	26012020	260120	125042	102.090	12.382328	-57.067745	102.150	0.260	-0.120	0.120	102.090	-1.200	0.400																			1580043042.0	10.89	20.17
26/01/2020 12:50:43	26012020	260120	125043	102.110	12.382317	-57.067692	102.150	0.400	-0.720	0.400	102.110	-1.900	0.700																			1580043043.0	11.52	21.34
26/01/2020 12:50:44	26012020	260120	125044	102.080	12.382307	-57.067638	102.130	0.310	-0.750	0.650	102.080	-2.200	1.000																			1580043044.0	11.39	21.09
26/01/2020 12:50:45	26012020	260120	125045	102.060	12.382295	-57.067590	102.110	-0.040	-0.360	1.000	102.060	-1.900	1.300																			1580043045.0	10.71	19.83
26/01/2020 12:50:46	26012020	260120	125046	101.990	12.382282	-57.067542	101.960	-0.340	-0.240	1.360	101.990	-1.600	1.600																			1580043046.0	10.42	19.30
26/01/2020 12:50:47	26012020	260120	125047	101.770	12.382268	-57.067492	101.700	-0.280	-0.540	1.430	101.770	-1.800	1.900																			1580043047.0	10.96	20.30
26/01/2020 12:50:48	26012020	260120	125048	101.500	12.382257	-57.067438	101.500	-0.040	-0.650	1.280	101.500	-2.000	1.800																			1580043048.0	11.50	21.30
26/01/2020 12:50:49	26012020	260120	125049	101.390	12.382247	-57.067387	101.540	-0.060	-0.160	1.020	101.390	-1.800	1.500																			1580043049.0	11.24	20.82
26/01/2020 12:50:50	26012020	260120	125050	101.570	12.382237	-57.067338	101.820	-0.350	0.510	0.620	101.570	-1.100	1.200																			1580043050.0	10.48	19.41
26/01/2020 12:50:51	26012020	260120	125051	101.850	12.382227	-57.067290	102.040	-0.460	0.580	0.390	101.850	-0.700	0.900																			1580043051.0	10.29	19.06
26/01/2020 12:50:52	26012020	260120	125052	101.990	12.382215	-57.067240	102.100	-0.130	-0.030	0.430	101.990	-1.100	0.800																			1580043052.0	10.95	20.28
26/01/2020 12:50:53	26012020	260120	125053	101.980	12.382203	-57.067187	102.050	0.440	-0.730	0.550	101.970	-1.900	0.900																			1580043053.0	11.61	21.50
26/01/2020 12:50:54	26012020	260120	125054	101.940	12.382193	-57.067133	102.080	0.750	-0.830	0.570	101.940	-2.200	1.000																			1580043054.0	11.57	21.43
26/01/2020 12:50:55	26012020	260120	125055	102.020	12.382185	-57.067082	102.200	0.550	-0.340	0.560	102.040	-1.900	1.000																			1580043055.0	10.80	20.00
26/01/2020 12:50:56	26012020	260120	125056	102.120	12.382175	-57.067035	102.180	0.060	0.050	0.660	102.120	-1.400	1.000																			1580043056.0	10.52	19.48
26/01/2020 12:50:57	26012020	260120	125057	102.030	12.382165	-57.066987	102.030	-0.270	-0.050	0.880	102.030	-1.300	1.200																			1580043057.0	10.52	19.48
26/01/2020 12:50:58	26012020	260120	125058	101.850	12.382152	-57.066935	101.860	-0.330	-0.340	1.130	101.850	-1.600	1.500																			1580043058.0	11.10	20.56
26/01/2020 12:50:59	26012020	260120	125059	101.730	12.382140	-57.066883	101.770	-0.310	-0.450	1.210	101.730	-1.800	1.600																			1580043059.0	11.21	20.76
26/01/2020 12:51:00	26012020	260120	125100	101.640	12.382127	-57.066833	101.610	-0.270	-0.510	1.120	101.640	-1.800	1.600	1016.50	26.10	26.20	17.90	18.10	316.00	60.00	61.00	375.00	27.10	351.00	11.60	84.00	6.10	27630	3182.00	27.40	27.40	1580043060.0	11.02	20.41
26/01/2020 12:51:01	26012020	260120	125101	101.420	12.382115	-57.066782	101.320	-0.140	-0.580	0.990	101.420	-1.900	1.500																			1580043061.0	11.09	20.54
26/01/2020 12:51:02	26012020	260120	125102	101.180	12.382103	-57.066730	101.190	0.010	-0.400	0.840	101.180	-1.900	1.300																			1580043062.0	11.21	20.76
26/01/2020 12:51:03	26012020	260120	125103	101.180	12.382093	-57.066680	101.330	0.010	0.140	0.610	101.180	-1.400	1.100																			1580043063.0	10.89	20.17
26/01/2020 12:51:04	26012020	260120	125104	101.400	12.382083	-57.066632	101.540	-0.060	0.530	0.420	101.400	-0.900	0.900																			1580043064.0	10.43	19.32
26/01/2020 12:51:05	26012020	260120	125105	101.560	12.382073	-57.066582	101.590	0.060	0.200	0.430	101.560	-0.900	0.800																			1580043065.0	10.63	19.69
26/01/2020 12:51:06	26012020	260120	125106	101.540	12.382063	-57.066530	101.540	0.360	-0.480	0.660	101.540	-1.600	1.000																			1580043066.0	11.41	21.13
26/01/2020 12:51:07	26012020	260120	125107	101.460	12.382052	-57.066477	101.520	0.470	-0.590	0.850	101.460	-2.000	1.200																			1580043067.0	11.55	21.39
26/01/2020 12:51:08	26012020	260120	125108	101.510	12.382042	-57.066427	101.650	0.250	-0.120	0.950	101.510	-1.700	1.300																			1580043068.0	10.75	19.91
26/01/2020 12:51:09	26012020	260120	125109	101.650	12.382032	-57.066380	101.710	-0.100	0.140	1.080	101.650	-1.200	1.400																			1580043069.0	10.15	18.80
26/01/2020 12:51:10	26012020	260120	125110	101.620	12.382020	-57.066332	101.560	-0.280	-0.250	1.180	101.620	-1.400	1.600																			1580043070.0	10.54	19.52
26/01/2020 12:51:11	26012020	260120	125111	101.390	12.382008	-57.066278	101.330	-0.220	-0.780	1.260	101.390	-2.000	1.700																			1580043071.0	11.30	20.93
26/01/2020 12:51:12	26012020	260120	125112	101.170	12.381997	-57.066227	101.130	-0.060	-0.840	1.200	101.170	-2.200	1.700																			1580043072.0	11.35	21.02
26/01/2020 12:51:13	26012020	260120	125113	101.040	12.381987	-57.066177	101.020	0.040	-0.590	0.970	101.040	-2.000	1.500																			1580043073.0	10.91	20.21
26/01/2020 12:51:14	26012020	260120	125114	100.890	12.381977	-57.066125	100.820	0.040	-0.390	0.860	100.890	-1.800	1.300																			1580043074.0	10.81	20.02
26/01/2020 12:51:15	26012020	260120	125115	100.660	12.381965	-57.066075	100.560	-0.040	-0.190	0.950	100.660	-1.600	1.300																			1580043075.0	11.00	20.37
26/01/2020 12:51:16	26012020	260120	125116	100.470	12.381955	-57.066025	100.460	-0.100	0.150	1.010	100.470	-1.300	1.400																			1580043076.0	10.95	20.28
26/01/2020 12:51:17	26012020	260120	125117	100.480	12.381943	-57.065975	100.590	-0.080	0.330	0.970	100.480	-1.000	1.400																			1580043077.0	10.76	19.93
26/01/2020 12:51:18	26012020	260120	125118	100.660	12.381933	-57.065923	100.790	0.060	0.100	0.970	100.660	-1.100	1.400																			1580043078.0	10.94	20.26
26/01/2020 12:51:19	26012020	260120	125119	100.810	12.381923	-57.065872	100.890	0.140	-0.150	1.100	100.810	-1.400	1.500																			1580043079.0	11.27	20.87
26/01/2020 12:51:20	26012020	260120	125120	100.860	12.381912	-57.065820	100.920	0.110	-0.090	1.210	100.860	-1.500	1.600																			1580043080.0	11.03	20.43
26/01/2020 12:51:21	26012020	260120	125121	100.880	12.381903	-57.065772	100.940	0.030	-0.000	1.250	100.880	-1.400	1.700																			1580043081.0	10.57	19.58
26/01/2020 12:51:22	26012020	260120	125122	100.940	12.381895	-57.065722	100.980	0.010	-0.260	1.160	100.940	-1.500	1.600																			1580043082.0	10.61	19.65
26/01/2020 12:51:23	26012020	260120	125123	100.970	12.381885	-57.065670	100.980	0.030	-0.660	0.960	100.970	-1.900	1.500																			1580043083.0	11.04	20.45
26/01/2020 12:51:24	26012020	260120	125124	100.950	12.381877	-57.065618	100.930	0.010	-0.770	0.860	100.950	-2.100	1.300																			1580043084.0	11.16	20.67
26/01/2020 12:51:25	26012020	260120	125125	100.830	12.381867	-57.065568	100.750	-0.030	-0.610	0.890	100.830	-2.000	1.300																			1580043085.0	10.87	20.13
26/01/2020 12:51:26	26012020	260120	125126	100.600	12.381855	-57.065518	100.500	-0.020	-0.420	0.810	100.600	-1.800	1.300																			1580043086.0	10.74	19.89
26/01/2020 12:51:27	26012020	260120	125127	100.380	12.381847	-57.065468	100.320	0.090	-0.340	0.620	100.380	-1.700	1.100																			1580043087.0	10.87	20.13
26/01/2020 12:51:28	26012020	260120	125128	100.250	12.381838	-57.065417	100.240	0.180	-0.330	0.550	100.250	-1.700	1.000																			1580043088.0	11.11	20.58
26/01/2020 12:51:29	26012020	260120	125129	100.210	12.381828	-57.065365	100.250	0.080	-0.140	0.580	100.210	-1.600	1.000																			1580043089.0	11.19	20.72
26/01/2020 12:51:30	26012020	260120	125130	100.270	12.381818	-57.065313	100.360	-0.180	0.190	0.670	100.270	-1.300	1.000																			1580043090.0	10.89	20.17
26/01/2020 12:51:31	26012020	260120	125131	100.340	12.381808	-57.065265	100.430	-0.350	0.280	0.920	100.350	-1.100	1.200																			1580043091.0	10.67	19.76
26/01/2020 12:51:32	26012020	260120	125132	100.380	12.381797	-57.065213	100.480	-0.280	0.020	1.100	100.380	-1.200	1.500																			1580043092.0	10.99	20.35
26/01/2020 12:51:33	26012020	260120	125133	100.470	12.381785	-57.065162	100.610	-0.120	-0.190	1.120	100.470	-1.500	1.500																			1580043093.0	11.26	20.85
26/01/2020 12:51:34	26012020	260120	125134	100.640	12.381775	-57.065110	100.800	-0.080	-0.110	0.980	100.640	-1.500	1.500																			1580043094.0	10.99	20.35
26/01/2020 12:51:35	26012020	260120	125135	100.820	12.381767	-57.065062	100.920	-0.090	-0.120	0.760	100.820	-1.400	1.300																			1580043095.0	10.60	19.63
26/01/2020 12:51:36	26012020	260120	125136	100.870	12.381758	-57.065012	100.850	0.060	-0.550	0.700	100.870	-1.700	1.100																			1580043096.0	10.78	19.96
26/01/2020 12:51:37	26012020	260120	125137	100.730	12.381747	-57.064958	100.690	0.370	-0.970	0.810	100.730	-2.200	1.200																			1580043097.0	11.36	21.04
26/01/2020 12:51:38	26012020	260120	125138	100.610	12.381737	-57.064907	100.680	0.490	-0.650	0.790	100.610	-2.200	1.200																			1580043098.0	11.31	20.95
26/01/2020 12:51:39	26012020	260120	125139	100.710	12.381730	-57.064857	100.860	0.230	0.170	0.630	100.710	-1.500	1.100																			1580043099.0	10.44	19.33
26/01/2020 12:51:40	26012020	260120	125140	100.920	12.381722	-57.064810	101.000	-0.140	0.390	0.580	100.920	-0.900	1.000																			1580043100.0	10.00	18.52
26/01/2020 12:51:41	26012020	260120	125141	100.950	12.381713	-57.064760	100.910	-0.200	-0.350	0.820	100.950	-1.400	1.100																			1580043101.0	10.85	20.09
26/01/2020 12:51:42	26012020	260120	125142	100.760	12.381700	-57.064705	100.670	0.040	-1.080	1.190	100.760	-2.200	1.500																			1580043102.0	11.87	21.98
26/01/2020 12:51:43	26012020	260120	125143	100.580	12.381688	-57.064652	100.530	0.160	-0.830	1.330	100.550	-2.400	1.700																			1580043103.0	11.72	21.71
26/01/2020 12:51:44	26012020	260120	125144	100.480	12.381678	-57.064602	100.530	-0.090	0.020	1.190	100.480	-1.700	1.700																			1580043104.0	10.67	19.76
26/01/2020 12:51:45	26012020	260120	125145	100.510	12.381670	-57.064555	100.570	-0.460	0.480	0.990	100.510	-1.000	1.500																			1580043105.0	10.16	18.82
26/01/2020 12:51:46	26012020	260120	125146	100.550	12.381660	-57.064505	100.590	-0.530	0.220	0.870	100.550	-1.000	1.300																			1580043106.0	10.74	19.89
26/01/2020 12:51:47	26012020	260120	125147	100.570	12.381650	-57.064452	100.610	-0.300	-0.140	0.790	100.570	-1.400	1.200																			1580043107.0	11.37	21.06
26/01/2020 12:51:48	26012020	260120	125148	100.620	12.381640	-57.064400	100.680	0.000	-0.200	0.780	100.620	-1.600	1.200																			1580043108.0	11.26	20.85
26/01/2020 12:51:49	26012020	260120	125149	100.740	12.381630	-57.064350	100.830	0.190	-0.150	0.740	100.740	-1.500	1.200																			1580043109.0	10.82	20.04
26/01/2020 12:51:50	26012020	260120	125150	100.890	12.381620	-57.064300	100.940	0.300	-0.370	0.650	100.890	-1.600	1.100																			1580043110.0	10.77	19.95
26/01/2020 12:51:51	26012020	260120	125151	100.930	12.381612	-57.064248	100.920	0.380	-0.630	0.800	100.930	-1.900	1.100																			1580043111.0	11.11	20.58
26/01/2020 12:51:52	26012020	260120	125152	100.890	12.381602	-57.064197	100.920	0.380	-0.470	0.920	100.890	-1.900	1.300																			1580043112.0	11.07	20.50
26/01/2020 12:51:53	26012020	260120	125153	100.970	12.381592	-57.064147	101.090	0.250	-0.050	0.790	100.970	-1.600	1.300																			1580043113.0	10.58	19.59
26/01/2020 12:51:54	26012020	260120	125154	101.170	12.381585	-57.064098	101.250	0.060	0.070	0.670	101.170	-1.300	1.100																			1580043114.0	10.40	19.26
26/01/2020 12:51:55	26012020	260120	125155	101.230	12.381575	-57.064048	101.200	-0.130	-0.250	0.700	101.230	-1.400	1.100																			1580043115.0	10.85	20.09
26/01/2020 12:51:56	26012020	260120	125156	101.140	12.381565	-57.063995	101.060	-0.300	-0.560	0.840	101.140	-1.800	1.200																			1580043116.0	11.25	20.84
26/01/2020 12:51:57	26012020	260120	125157	100.980	12.381555	-57.063943	100.930	-0.310	-0.670	1.070	100.980	-2.000	1.400																			1580043117.0	11.20	20.74
26/01/2020 12:51:58	26012020	260120	125158	100.820	12.381543	-57.063893	100.780	-0.170	-0.610	1.190	100.820	-2.000	1.600																			1580043118.0	11.10	20.56
26/01/2020 12:51:59	26012020	260120	125159	100.690	12.381532	-57.063842	100.700	-0.050	-0.330	1.150	100.690	-1.800	1.600																			1580043119.0	11.06	20.48
26/01/2020 12:52:00	26012020	260120	125200	100.670	12.381522	-57.063792	100.720	-0.120	0.100	1.020	100.670	-1.400	1.500	1016.50	26.10	26.20	18.20	18.30	331.00	61.00	61.00	375.00	27.10	350.00	11.10	81.00	5.60	28378	3073.00	27.40	27.40	1580043120.0	10.86	20.11
26/01/2020 12:52:01	26012020	260120	125201	100.760	12.381513	-57.063742	100.820	-0.240	0.340	0.760	100.760	-1.100	1.300																			1580043121.0	10.64	19.71
26/01/2020 12:52:02	26012020	260120	125202	100.890	12.381505	-57.063692	100.950	-0.150	0.140	0.600	100.890	-1.100	1.100																			1580043122.0	10.82	20.04
26/01/2020 12:52:03	26012020	260120	125203	100.980	12.381495	-57.063638	101.020	0.190	-0.330	0.610	100.980	-1.500	1.000																			1580043123.0	11.28	20.89
26/01/2020 12:52:04	26012020	260120	125204	101.070	12.381485	-57.063585	101.140	0.440	-0.540	0.590	101.070	-1.900	1.000																			1580043124.0	11.47	21.24
26/01/2020 12:52:05	26012020	260120	125205	101.280	12.381475	-57.063535	101.430	0.360	-0.190	0.610	101.280	-1.700	1.000																			1580043125.0	11.00	20.37
26/01/2020 12:52:06	26012020	260120	125206	101.590	12.381467	-57.063487	101.740	0.040	0.230	0.680	101.590	-1.200	1.100																			1580043126.0	10.32	19.11
26/01/2020 12:52:07	26012020	260120	125207	101.850	12.381457	-57.063438	101.920	-0.170	0.080	0.710	101.850	-1.100	1.100																			1580043127.0	10.33	19.13
26/01/2020 12:52:08	26012020	260120	125208	101.920	12.381447	-57.063388	101.930	-0.070	-0.470	0.820	101.920	-1.600	1.200																			1580043128.0	11.00	20.37
26/01/2020 12:52:09	26012020	260120	125209	101.890	12.381437	-57.063335	101.920	0.070	-0.710	0.930	101.890	-2.000	1.300																			1580043129.0	11.36	21.04
26/01/2020 12:52:10	26012020	260120	125210	101.890	12.381425	-57.063285	101.950	-0.000	-0.570	0.900	101.890	-2.000	1.300																			1580043130.0	10.96	20.30
26/01/2020 12:52:11	26012020	260120	125211	101.890	12.381415	-57.063235	101.890	-0.160	-0.450	0.740	101.890	-1.800	1.200																			1580043131.0	10.63	19.69
26/01/2020 12:52:12	26012020	260120	125212	101.790	12.381407	-57.063185	101.740	-0.210	-0.510	0.630	101.790	-1.800	1.100																			1580043132.0	10.87	20.13
26/01/2020 12:52:13	26012020	260120	125213	101.620	12.381395	-57.063133	101.560	-0.120	-0.480	0.610	101.620	-1.900	1.000																			1580043133.0	11.17	20.69
26/01/2020 12:52:14	26012020	260120	125214	101.480	12.381385	-57.063082	101.480	0.040	-0.310	0.480	101.480	-1.700	1.000																			1580043134.0	11.10	20.56
26/01/2020 12:52:15	26012020	260120	125215	101.430	12.381375	-57.063030	101.480	0.180	-0.190	0.360	101.430	-1.600	0.800																			1580043135.0	11.07	20.50
26/01/2020 12:52:16	26012020	260120	125216	101.480	12.381365	-57.062978	101.600	0.170	-0.000	0.310	101.480	-1.400	0.700																			1580043136.0	11.17	20.69
26/01/2020 12:52:17	26012020	260120	125217	101.680	12.381355	-57.062927	101.860	-0.030	0.370	0.320	101.680	-1.100	0.700																			1580043137.0	10.94	20.26
26/01/2020 12:52:18	26012020	260120	125218	101.980	12.381345	-57.062878	102.210	-0.260	0.660	0.380	101.980	-0.800	0.800																			1580043138.0	10.56	19.56
26/01/2020 12:52:19	26012020	260120	125219	102.320	12.381333	-57.062830	102.480	-0.270	0.440	0.430	102.320	-0.800	0.800																			1580043139.0	10.53	19.50
26/01/2020 12:52:20	26012020	260120	125220	102.500	12.381322	-57.062780	102.550	-0.020	-0.270	0.550	102.500	-1.300	0.900																			1580043140.0	10.98	20.33
26/01/2020 12:52:21	26012020	260120	125221	102.510	12.381310	-57.062727	102.500	0.300	-0.860	0.710	102.500	-2.000	1.100																			1580043141.0	11.39	21.09
26/01/2020 12:52:22	26012020	260120	125222	102.380	12.381300	-57.062675	102.350	0.430	-0.950	0.810	102.380	-2.300	1.200																			1580043142.0	11.14	20.63
26/01/2020 12:52:23	26012020	260120	125223	102.240	12.381290	-57.062625	102.250	0.280	-0.720	0.760	102.240	-2.200	1.200																			1580043143.0	10.72	19.85
26/01/2020 12:52:24	26012020	260120	125224	102.180	12.381282	-57.062577	102.200	-0.020	-0.450	0.650	102.180	-1.900	1.100																			1580043144.0	10.56	19.56
26/01/2020 12:52:25	26012020	260120	125225	102.150	12.381272	-57.062527	102.120	-0.210	-0.290	0.610	102.150	-1.700	1.000																			1580043145.0	10.65	19.72
26/01/2020 12:52:26	26012020	260120	125226	102.040	12.381260	-57.062477	101.960	-0.110	-0.440	0.640	102.040	-1.700	1.000																			1580043146.0	10.93	20.24
26/01/2020 12:52:27	26012020	260120	125227	101.840	12.381248	-57.062423	101.780	0.110	-0.590	0.660	101.840	-1.900	1.100																			1580043147.0	11.43	21.17
26/01/2020 12:52:28	26012020	260120	125228	101.720	12.381237	-57.062372	101.730	0.060	-0.300	0.620	101.720	-1.800	1.100																			1580043148.0	11.41	21.13
26/01/2020 12:52:29	26012020	260120	125229	101.730	12.381227	-57.062322	101.840	-0.220	0.220	0.510	101.730	-1.300	1.000																			1580043149.0	10.84	20.08
26/01/2020 12:52:30	26012020	260120	125230	101.880	12.381217	-57.062272	102.020	-0.410	0.470	0.480	101.880	-0.900	0.900																			1580043150.0	10.61	19.65
26/01/2020 12:52:31	26012020	260120	125231	102.060	12.381205	-57.062222	102.190	-0.360	0.340	0.540	102.060	-0.900	0.900																			1580043151.0	10.89	20.17
26/01/2020 12:52:32	26012020	260120	125232	102.230	12.381193	-57.062170	102.390	-0.180	0.080	0.610	102.230	-1.200	1.000																			1580043152.0	11.15	20.65
26/01/2020 12:52:33	26012020	260120	125233	102.380	12.381180	-57.062120	102.530	-0.010	-0.110	0.610	102.410	-1.400	1.000																			1580043153.0	11.05	20.46
26/01/2020 12:52:34	26012020	260120	125234	102.500	12.381170	-57.062070	102.550	0.160	-0.260	0.600	102.500	-1.500	1.000																			1580043154.0	10.82	20.04
26/01/2020 12:52:35	26012020	260120	125235	102.500	12.381158	-57.062020	102.550	0.320	-0.440	0.560	102.500	-1.700	1.000																			1580043155.0	10.78	19.96
26/01/2020 12:52:36	26012020	260120	125236	102.550	12.381148	-57.061970	102.600	0.430	-0.560	0.540	102.550	-1.900	1.000																			1580043156.0	10.80	20.00
26/01/2020 12:52:37	26012020	260120	125237	102.550	12.381138	-57.061920	102.500	0.450	-0.660	0.620	102.550	-2.000	1.000																			1580043157.0	10.80	20.00
26/01/2020 12:52:38	26012020	260120	125238	102.340	12.381128	-57.061870	102.200	0.430	-0.770	0.740	102.340	-2.100	1.100																			1580043158.0	10.90	20.19
26/01/2020 12:52:39	26012020	260120	125239	102.000	12.381118	-57.061818	101.940	0.340	-0.750	0.930	102.000	-2.100	1.300																			1580043159.0	11.09	20.54
26/01/2020 12:52:40	26012020	260120	125240	101.850	12.381108	-57.061767	101.980	0.120	-0.460	1.020	101.850	-1.900	1.400																			1580043160.0	11.07	20.50
26/01/2020 12:52:41	26012020	260120	125241	102.000	12.381097	-57.061717	102.120	-0.250	-0.040	1.080	102.000	-1.500	1.500																			1580043161.0	10.84	20.08
26/01/2020 12:52:42	26012020	260120	125242	102.070	12.381085	-57.061667	102.090	-0.600	0.190	1.280	102.070	-1.200	1.600																			1580043162.0	10.78	19.96
26/01/2020 12:52:43	26012020	260120	125243	101.970	12.381072	-57.061617	101.970	-0.770	0.120	1.490	101.970	-1.200	1.800																			1580043163.0	11.03	20.43
26/01/2020 12:52:44	26012020	260120	125244	101.890	12.381058	-57.061565	101.950	-0.690	-0.060	1.500	101.890	-1.300	1.900																			1580043164.0	11.24	20.82
26/01/2020 12:52:45	26012020	260120	125245	101.940	12.381045	-57.061513	102.060	-0.380	-0.190	1.110	101.940	-1.500	1.700																			1580043165.0	11.24	20.82
26/01/2020 12:52:46	26012020	260120	125246	102.110	12.381035	-57.061462	102.240	-0.020	-0.190	0.610	102.110	-1.600	1.200																			1580043166.0	11.12	20.59
26/01/2020 12:52:47	26012020	260120	125247	102.270	12.381027	-57.061412	102.320	0.260	-0.110	0.300	102.270	-1.500	0.800																			1580043167.0	10.92	20.22
26/01/2020 12:52:48	26012020	260120	125248	102.320	12.381017	-57.061362	102.340	0.430	0.030	0.180	102.320	-1.400	0.600																			1580043168.0	10.76	19.93
26/01/2020 12:52:49	26012020	260120	125249	102.320	12.381008	-57.061312	102.370	0.540	0.030	0.160	102.320	-1.300	0.600																			1580043169.0	10.65	19.72
26/01/2020 12:52:50	26012020	260120	125250	102.430	12.381000	-57.061262	102.530	0.580	-0.270	0.210	102.430	-1.500	0.600																			1580043170.0	10.79	19.98
26/01/2020 12:52:51	26012020	260120	125251	102.600	12.380990	-57.061210	102.640	0.450	-0.620	0.360	102.600	-1.900	0.700																			1580043171.0	11.10	20.56
26/01/2020 12:52:52	26012020	260120	125252	102.610	12.380980	-57.061158	102.550	0.190	-0.690	0.700	102.610	-2.100	1.000																			1580043172.0	11.06	20.48
26/01/2020 12:52:53	26012020	260120	125253	102.420	12.380967	-57.061110	102.330	-0.010	-0.590	1.100	102.420	-2.000	1.400																			1580043173.0	10.82	20.04
26/01/2020 12:52:54	26012020	260120	125254	102.210	12.380955	-57.061060	102.190	-0.080	-0.510	1.250	102.210	-1.900	1.600																			1580043174.0	10.85	20.09
26/01/2020 12:52:55	26012020	260120	125255	102.100	12.380943	-57.061008	102.080	-0.160	-0.380	1.080	102.100	-1.800	1.600																			1580043175.0	11.01	20.39
26/01/2020 12:52:56	26012020	260120	125256	102.010	12.380933	-57.060958	102.010	-0.300	-0.190	0.850	102.010	-1.600	1.300																			1580043176.0	11.00	20.37
26/01/2020 12:52:57	26012020	260120	125257	101.970	12.380922	-57.060907	102.050	-0.450	-0.010	0.700	101.970	-1.400	1.200																			1580043177.0	10.96	20.30
26/01/2020 12:52:58	26012020	260120	125258	102.060	12.380910	-57.060857	102.190	-0.490	0.080	0.570	102.060	-1.300	1.000																			1580043178.0	10.93	20.24
26/01/2020 12:52:59	26012020	260120	125259	102.210	12.380898	-57.060807	102.260	-0.340	-0.000	0.490	102.210	-1.300	0.900																			1580043179.0	10.96	20.30
26/01/2020 12:53:00	26012020	260120	125300	102.220	12.380887	-57.060755	102.200	-0.000	-0.240	0.610	102.220	-1.500	1.000	1016.50	26.10	26.20	18.00	18.20	346.00	61.00	61.00	375.00	27.10	353.00	11.70	88.00	6.10	29178	3180.00	27.40	27.40	1580043180.0	11.11	20.58
26/01/2020 12:53:01	26012020	260120	125301	102.160	12.380875	-57.060703	102.170	0.340	-0.470	0.720	102.160	-1.700	1.100																			1580043181.0	11.26	20.85
26/01/2020 12:53:02	26012020	260120	125302	102.160	12.380865	-57.060652	102.210	0.460	-0.460	0.660	102.160	-1.900	1.100																			1580043182.0	11.21	20.76
26/01/2020 12:53:03	26012020	260120	125303	102.230	12.380857	-57.060600	102.300	0.300	-0.120	0.590	102.230	-1.600	1.000																			1580043183.0	10.92	20.22
26/01/2020 12:53:04	26012020	260120	125304	102.320	12.380847	-57.060552	102.370	-0.060	0.300	0.530	102.320	-1.200	1.000																			1580043184.0	10.50	19.45
26/01/2020 12:53:05	26012020	260120	125305	102.380	12.380837	-57.060503	102.440	-0.320	0.280	0.440	102.380	-1.000	0.900																			1580043185.0	10.42	19.30
26/01/2020 12:53:06	26012020	260120	125306	102.460	12.380827	-57.060453	102.510	-0.190	-0.250	0.340	102.460	-1.400	0.800																			1580043186.0	10.90	20.19
26/01/2020 12:53:07	26012020	260120	125307	102.510	12.380815	-57.060400	102.530	0.210	-0.820	0.300	102.510	-2.000	0.700																			1580043187.0	11.46	21.22
26/01/2020 12:53:08	26012020	260120	125308	102.490	12.380803	-57.060348	102.460	0.490	-0.790	0.330	102.490	-2.200	0.700																			1580043188.0	11.42	21.15
26/01/2020 12:53:09	26012020	260120	125309	102.390	12.380792	-57.060298	102.360	0.400	-0.240	0.310	102.390	-1.800	0.700																			1580043189.0	10.74	19.89
26/01/2020 12:53:10	26012020	260120	125310	102.310	12.380783	-57.060250	102.290	0.110	0.130	0.240	102.310	-1.300	0.700																			1580043190.0	10.27	19.02
26/01/2020 12:53:11	26012020	260120	125311	102.260	12.380773	-57.060200	102.200	-0.090	-0.160	0.250	102.250	-1.300	0.600																			1580043191.0	10.63	19.69
26/01/2020 12:53:12	26012020	260120	125312	102.120	12.380763	-57.060148	102.040	-0.170	-0.680	0.500	102.120	-1.900	0.800																			1580043192.0	11.41	21.13
26/01/2020 12:53:13	26012020	260120	125313	101.950	12.380750	-57.060095	101.870	-0.280	-0.770	0.970	101.950	-2.200	1.200																			1580043193.0	11.56	21.41
26/01/2020 12:53:14	26012020	260120	125314	101.790	12.380735	-57.060045	101.780	-0.450	-0.350	1.290	101.790	-1.900	1.600																			1580043194.0	11.08	20.52
26/01/2020 12:53:15	26012020	260120	125315	101.720	12.380722	-57.059997	101.720	-0.540	0.110	1.260	101.720	-1.400	1.700																			1580043195.0	10.61	19.65
26/01/2020 12:53:16	26012020	260120	125316	101.660	12.380708	-57.059948	101.690	-0.410	0.180	0.960	101.660	-1.200	1.500																			1580043196.0	10.68	19.78
26/01/2020 12:53:17	26012020	260120	125317	101.670	12.380698	-57.059897	101.730	-0.040	-0.060	0.570	101.670	-1.300	1.100																			1580043197.0	11.09	20.54
26/01/2020 12:53:18	26012020	260120	125318	101.750	12.380688	-57.059843	101.810	0.350	-0.230	0.370	101.750	-1.600	0.800																			1580043198.0	11.34	21.00
26/01/2020 12:53:19	26012020	260120	125319	101.870	12.380680	-57.059792	101.940	0.490	-0.060	0.390	101.870	-1.500	0.800																			1580043199.0	11.08	20.52
26/01/2020 12:53:20	26012020	260120	125320	101.970	12.380670	-57.059743	102.010	0.400	0.110	0.580	101.970	-1.300	0.900																			1580043200.0	10.62	19.67
26/01/2020 12:53:21	26012020	260120	125321	102.020	12.380660	-57.059693	102.070	0.270	-0.080	0.790	102.020	-1.300	1.100																			1580043201.0	10.64	19.71
26/01/2020 12:53:22	26012020	260120	125322	102.070	12.380650	-57.059642	102.130	0.210	-0.510	0.900	102.070	-1.700	1.300																			1580043202.0	11.04	20.45
26/01/2020 12:53:23	26012020	260120	125323	102.110	12.380638	-57.059590	102.120	0.170	-0.700	0.970	102.110	-2.000	1.400																			1580043203.0	11.21	20.76
26/01/2020 12:53:24	26012020	260120	125324	102.040	12.380628	-57.059540	101.990	0.060	-0.490	1.040	102.040	-1.900	1.400																			1580043204.0	10.92	20.22
26/01/2020 12:53:25	26012020	260120	125325	101.900	12.380617	-57.059492	101.760	-0.100	-0.280	1.080	101.850	-1.700	1.500																			1580043205.0	10.54	19.52
26/01/2020 12:53:26	26012020	260120	125326	101.620	12.380607	-57.059442	101.560	-0.190	-0.470	1.040	101.620	-1.700	1.500																			1580043206.0	10.76	19.93
26/01/2020 12:53:27	26012020	260120	125327	101.480	12.380595	-57.059390	101.430	-0.210	-0.740	0.990	101.480	-2.000	1.400																			1580043207.0	11.35	21.02
26/01/2020 12:53:28	26012020	260120	125328	101.320	12.380583	-57.059337	101.240	-0.270	-0.550	0.910	101.320	-2.000	1.400																			1580043208.0	11.39	21.09
26/01/2020 12:53:29	26012020	260120	125329	101.150	12.380572	-57.059287	101.120	-0.340	-0.000	0.840	101.150	-1.600	1.300																			1580043209.0	10.92	20.22
26/01/2020 12:53:30	26012020	260120	125330	101.120	12.380560	-57.059238	101.200	-0.350	0.410	0.690	101.120	-1.100	1.200																			1580043210.0	10.60	19.63
26/01/2020 12:53:31	26012020	260120	125331	101.350	12.380550	-57.059188	101.530	-0.210	0.420	0.390	101.350	-0.900	0.900																			1580043211.0	10.76	19.93
26/01/2020 12:53:32	26012020	260120	125332	101.710	12.380540	-57.059137	101.830	0.040	0.190	0.160	101.710	-1.100	0.600																			1580043212.0	11.05	20.46
26/01/2020 12:53:33	26012020	260120	125333	101.940	12.380530	-57.059085	101.980	0.340	-0.050	0.170	101.940	-1.300	0.600																			1580043213.0	11.09	20.54
26/01/2020 12:53:34	26012020	260120	125334	102.060	12.380520	-57.059035	102.100	0.540	-0.260	0.320	102.060	-1.500	0.700																			1580043214.0	10.95	20.28
26/01/2020 12:53:35	26012020	260120	125335	102.170	12.380512	-57.058983	102.190	0.560	-0.450	0.500	102.170	-1.700	0.800																			1580043215.0	10.87	20.13
26/01/2020 12:53:36	26012020	260120	125336	102.220	12.380502	-57.058933	102.190	0.370	-0.620	0.690	102.220	-1.900	1.000																			1580043216.0	10.83	20.06
26/01/2020 12:53:37	26012020	260120	125337	102.140	12.380492	-57.058883	102.010	0.110	-0.770	1.010	102.140	-2.100	1.300																			1580043217.0	10.86	20.11
26/01/2020 12:53:38	26012020	260120	125338	101.820	12.380480	-57.058833	101.590	-0.100	-0.810	1.440	101.820	-2.200	1.700																			1580043218.0	10.95	20.28
26/01/2020 12:53:39	26012020	260120	125339	101.390	12.380467	-57.058782	101.220	-0.230	-0.760	1.580	101.390	-2.100	2.000																			1580043219.0	11.04	20.45
26/01/2020 12:53:40	26012020	260120	125340	101.050	12.380455	-57.058732	100.930	-0.330	-0.620	1.510	101.050	-2.000	2.000																			1580043220.0	11.15	20.65
26/01/2020 12:53:41	26012020	260120	125341	100.790	12.380443	-57.058680	100.720	-0.430	-0.260	1.360	100.790	-1.800	1.800																			1580043221.0	11.18	20.71
26/01/2020 12:53:42	26012020	260120	125342	100.670	12.380432	-57.058628	100.700	-0.510	0.240	1.130	100.670	-1.300	1.600																			1580043222.0	10.97	20.32
26/01/2020 12:53:43	26012020	260120	125343	100.750	12.380420	-57.058578	100.880	-0.470	0.580	0.840	100.750	-0.900	1.400																			1580043223.0	10.82	20.04
26/01/2020 12:53:44	26012020	260120	125344	101.010	12.380410	-57.058528	101.170	-0.300	0.650	0.470	101.010	-0.700	1.000																			1580043224.0	10.89	20.17
26/01/2020 12:53:45	26012020	260120	125345	101.320	12.380400	-57.058478	101.430	-0.030	0.500	0.180	101.320	-0.800	0.700																			1580043225.0	10.92	20.22
26/01/2020 12:53:46	26012020	260120	125346	101.560	12.380392	-57.058427	101.660	0.290	0.070	0.100	101.560	-1.100	0.500																			1580043226.0	10.92	20.22
26/01/2020 12:53:47	26012020	260120	125347	101.800	12.380382	-57.058375	101.910	0.570	-0.420	0.170	101.800	-1.600	0.500																			1580043227.0	11.06	20.48
26/01/2020 12:53:48	26012020	260120	125348	102.010	12.380373	-57.058325	102.040	0.670	-0.720	0.430	102.010	-2.000	0.700																			1580043228.0	10.99	20.35
26/01/2020 12:53:49	26012020	260120	125349	102.040	12.380363	-57.058275	101.980	0.560	-0.740	0.780	102.040	-2.100	1.100																			1580043229.0	10.71	19.83
26/01/2020 12:53:50	26012020	260120	125350	101.910	12.380353	-57.058227	101.820	0.330	-0.720	1.050	101.910	-2.100	1.400																			1580043230.0	10.50	19.45
26/01/2020 12:53:51	26012020	260120	125351	101.680	12.380343	-57.058177	101.540	0.150	-0.890	1.220	101.680	-2.200	1.600																			1580043231.0	10.69	19.80
26/01/2020 12:53:52	26012020	260120	125352	101.280	12.380332	-57.058125	101.020	0.030	-1.140	1.440	101.280	-2.400	1.800																			1580043232.0	11.18	20.71
26/01/2020 12:53:53	26012020	260120	125353	100.710	12.380320	-57.058072	100.460	-0.160	-1.020	1.670	100.710	-2.500	2.000																			1580043233.0	11.49	21.28
26/01/2020 12:53:54	26012020	260120	125354	100.240	12.380308	-57.058020	100.170	-0.450	-0.400	1.650	100.240	-2.000	2.100																			1580043234.0	11.26	20.85
26/01/2020 12:53:55	26012020	260120	125355	100.120	12.380298	-57.057970	100.220	-0.760	0.360	1.400	100.120	-1.300	1.900																			1580043235.0	10.85	20.09
26/01/2020 12:53:56	26012020	260120	125356	100.330	12.380287	-57.057920	100.510	-1.000	0.860	1.140	100.330	-0.600	1.600																			1580043236.0	10.76	19.93
26/01/2020 12:53:57	26012020	260120	125357	100.670	12.380273	-57.057870	100.880	-1.010	0.940	0.920	100.670	-0.400	1.400																			1580043237.0	10.91	20.21
26/01/2020 12:53:58	26012020	260120	125358	101.030	12.380262	-57.057820	101.210	-0.640	0.750	0.710	101.030	-0.500	1.200																			1580043238.0	11.05	20.46
26/01/2020 12:53:59	26012020	260120	125359	101.360	12.380250	-57.057768	101.550	0.010	0.350	0.300	101.360	-0.800	0.900																			1580043239.0	11.00	20.37
26/01/2020 12:54:00	26012020	260120	125400	101.740	12.380242	-57.057717	101.940	0.720	-0.230	-0.080	101.740	-1.400	0.400	1016.50	26.20	26.20	18.20	18.30	365.00	61.00	61.00	375.00	27.10	350.00	11.60	82.00	6.10	30067	3097.00	27.40	27.40	1580043240.0	10.99	20.35
26/01/2020 12:54:01	26012020	260120	125401	102.090	12.380235	-57.057665	102.170	1.210	-0.710	-0.230	102.090	-1.900	0.200																			1580043241.0	11.05	20.46
26/01/2020 12:54:02	26012020	260120	125402	102.220	12.380228	-57.057615	102.180	1.230	-0.790	-0.110	102.220	-2.200	0.200																			1580043242.0	10.81	20.02
26/01/2020 12:54:03	26012020	260120	125403	102.090	12.380222	-57.057567	101.930	0.890	-0.740	0.430	102.090	-2.100	0.600																			1580043243.0	10.39	19.24
26/01/2020 12:54:04	26012020	260120	125404	101.760	12.380213	-57.057517	101.590	0.420	-0.920	0.980	101.760	-2.200	1.200																			1580043244.0	10.49	19.43
26/01/2020 12:54:05	26012020	260120	125405	101.380	12.380202	-57.057467	101.230	-0.070	-1.120	1.420	101.380	-2.400	1.700																			1580043245.0	11.03	20.43
26/01/2020 12:54:06	26012020	260120	125406	101.020	12.380188	-57.057415	100.880	-0.510	-0.990	1.750	101.020	-2.400	2.100																			1580043246.0	11.22	20.78
26/01/2020 12:54:07	26012020	260120	125407	100.680	12.380175	-57.057365	100.540	-0.740	-0.580	1.860	100.680	-2.100	2.300																			1580043247.0	11.08	20.52
26/01/2020 12:54:08	26012020	260120	125408	100.360	12.380162	-57.057315	100.280	-0.720	-0.140	1.680	100.360	-1.700	2.200																			1580043248.0	11.04	20.45
26/01/2020 12:54:09	26012020	260120	125409	100.220	12.380150	-57.057263	100.250	-0.620	0.250	1.220	100.220	-1.200	1.800																			1580043249.0	11.12	20.59
26/01/2020 12:54:10	26012020	260120	125410	100.300	12.380140	-57.057212	100.420	-0.530	0.590	0.700	100.300	-0.900	1.300																			1580043250.0	11.08	20.52
26/01/2020 12:54:11	26012020	260120	125411	100.550	12.380132	-57.057160	100.740	-0.410	0.720	0.350	100.550	-0.700	0.900																			1580043251.0	10.95	20.28
26/01/2020 12:54:12	26012020	260120	125412	100.950	12.380122	-57.057110	101.230	-0.210	0.530	0.220	100.950	-0.700	0.700																			1580043252.0	10.95	20.28
26/01/2020 12:54:13	26012020	260120	125413	101.360	12.380112	-57.057058	101.690	0.060	0.200	0.220	101.450	-1.000	0.600																			1580043253.0	11.03	20.43
26/01/2020 12:54:14	26012020	260120	125414	101.840	12.380100	-57.057008	101.930	0.340	-0.040	0.300	101.840	-1.300	0.700																			1580043254.0	10.89	20.17
26/01/2020 12:54:15	26012020	260120	125415	101.950	12.380092	-57.056960	101.950	0.530	-0.190	0.390	101.960	-1.500	0.800																			1580043255.0	10.58	19.59
26/01/2020 12:54:16	26012020	260120	125416	101.950	12.380083	-57.056910	101.930	0.640	-0.520	0.470	101.950	-1.700	0.900																			1580043256.0	10.45	19.35
26/01/2020 12:54:17	26012020	260120	125417	101.900	12.380075	-57.056860	101.830	0.720	-1.040	0.530	101.900	-2.200	0.900																			1580043257.0	10.76	19.93
26/01/2020 12:54:18	26012020	260120	125418	101.730	12.380067	-57.056808	101.540	0.690	-1.290	0.670	101.730	-2.600	1.000																			1580043258.0	11.10	20.56
26/01/2020 12:54:19	26012020	260120	125419	101.340	12.380057	-57.056758	101.080	0.420	-1.030	1.030	101.340	-2.500	1.300																			1580043259.0	10.92	20.22
26/01/2020 12:54:20	26012020	260120	125420	100.860	12.380047	-57.056708	100.700	0.040	-0.620	1.360	100.860	-2.100	1.700																			1580043260.0	10.62	19.67
26/01/2020 12:54:21	26012020	260120	125421	100.560	12.380035	-57.056658	100.490	-0.300	-0.330	1.400	100.560	-1.800	1.800																			1580043261.0	10.80	20.00
26/01/2020 12:54:22	26012020	260120	125422	100.430	12.380025	-57.056608	100.370	-0.560	-0.140	1.250	100.430	-1.600	1.700																			1580043262.0	11.11	20.58
26/01/2020 12:54:23	26012020	260120	125423	100.310	12.380012	-57.056555	100.270	-0.740	0.090	1.200	100.310	-1.400	1.600																			1580043263.0	11.25	20.84
26/01/2020 12:54:24	26012020	260120	125424	100.260	12.380000	-57.056505	100.350	-0.790	0.410	1.130	100.260	-1.100	1.600																			1580043264.0	11.08	20.52
26/01/2020 12:54:25	26012020	260120	125425	100.470	12.379988	-57.056455	100.630	-0.650	0.550	0.900	100.470	-0.800	1.400																			1580043265.0	10.83	20.06
26/01/2020 12:54:26	26012020	260120	125426	100.770	12.379978	-57.056405	100.920	-0.350	0.350	0.580	100.770	-0.900	1.100																			1580043266.0	10.93	20.24
26/01/2020 12:54:27	26012020	260120	125427	101.040	12.379968	-57.056353	101.160	-0.010	0.110	0.460	101.040	-1.200	0.900																			1580043267.0	11.08	20.52
26/01/2020 12:54:28	26012020	260120	125428	101.250	12.379958	-57.056303	101.350	0.300	-0.090	0.480	101.250	-1.400	0.900																			1580043268.0	10.87	20.13
26/01/2020 12:54:29	26012020	260120	125429	101.420	12.379948	-57.056253	101.490	0.580	-0.340	0.460	101.420	-1.600	0.900																			1580043269.0	10.72	19.85
26/01/2020 12:54:30	26012020	260120	125430	101.530	12.379942	-57.056202	101.580	0.740	-0.550	0.490	101.530	-1.800	0.900																			1580043270.0	10.77	19.95
26/01/2020 12:54:31	26012020	260120	125431	101.610	12.379933	-57.056152	101.620	0.710	-0.590	0.710	101.610	-1.900	1.000																			1580043271.0	10.69	19.80
26/01/2020 12:54:32	26012020	260120	125432	101.570	12.379923	-57.056103	101.480	0.520	-0.640	0.960	101.570	-1.900	1.300																			1580043272.0	10.56	19.56
26/01/2020 12:54:33	26012020	260120	125433	101.320	12.379913	-57.056053	101.130	0.390	-0.830	1.230	101.320	-2.100	1.500																			1580043273.0	10.77	19.95
26/01/2020 12:54:34	26012020	260120	125434	100.900	12.379903	-57.056002	100.760	0.260	-0.840	1.380	100.900	-2.200	1.800																			1580043274.0	11.15	20.65
26/01/2020 12:54:35	26012020	260120	125435	100.650	12.379895	-57.055950	100.670	-0.070	-0.410	1.250	100.650	-2.000	1.700																			1580043275.0	11.04	20.45
26/01/2020 12:54:36	26012020	260120	125436	100.680	12.379885	-57.055902	100.800	-0.580	0.140	1.090	100.680	-1.400	1.600																			1580043276.0	10.62	19.67
26/01/2020 12:54:37	26012020	260120	125437	100.840	12.379875	-57.055852	100.930	-0.960	0.320	1.030	100.840	-1.000	1.400																			1580043277.0	10.56	19.56
26/01/2020 12:54:38	26012020	260120	125438	100.960	12.379862	-57.055802	101.020	-0.960	0.080	1.090	100.960	-1.100	1.500																			1580043278.0	11.01	20.39
26/01/2020 12:54:39	26012020	260120	125439	101.000	12.379848	-57.055750	101.010	-0.600	-0.250	1.160	101.000	-1.500	1.500																			1580043279.0	11.39	21.09
26/01/2020 12:54:40	26012020	260120	125440	100.990	12.379835	-57.055698	101.020	-0.090	-0.390	1.060	100.990	-1.700	1.500																			1580043280.0	11.36	21.04
26/01/2020 12:54:41	26012020	260120	125441	101.070	12.379825	-57.055647	101.180	0.330	-0.260	0.670	101.070	-1.700	1.300																			1580043281.0	11.10	20.56
26/01/2020 12:54:42	26012020	260120	125442	101.290	12.379817	-57.055597	101.390	0.510	0.010	0.200	101.290	-1.400	0.800																			1580043282.0	10.76	19.93
26/01/2020 12:54:43	26012020	260120	125443	101.500	12.379812	-57.055547	101.550	0.460	0.180	-0.090	101.500	-1.200	0.400																			1580043283.0	10.58	19.59
26/01/2020 12:54:44	26012020	260120	125444	101.600	12.379803	-57.055497	101.560	0.350	0.140	0.040	101.600	-1.200	0.400																			1580043284.0	10.61	19.65
26/01/2020 12:54:45	26012020	260120	125445	101.550	12.379795	-57.055447	101.520	0.270	-0.100	0.400	101.550	-1.300	0.700																			1580043285.0	10.73	19.87
26/01/2020 12:54:46	26012020	260120	125446	101.530	12.379785	-57.055397	101.540	0.250	-0.510	0.670	101.530	-1.700	1.000																			1580043286.0	10.89	20.17
26/01/2020 12:54:47	26012020	260120	125447	101.560	12.379773	-57.055345	101.570	0.200	-0.740	0.820	101.560	-2.000	1.200																			1580043287.0	11.10	20.56
26/01/2020 12:54:48	26012020	260120	125448	101.570	12.379763	-57.055295	101.520	-0.030	-0.560	0.910	101.570	-2.000	1.300																			1580043288.0	10.88	20.15
26/01/2020 12:54:49	26012020	260120	125449	101.460	12.379752	-57.055247	101.360	-0.290	-0.320	0.980	101.460	-1.700	1.400																			1580043289.0	10.48	19.41
26/01/2020 12:54:50	26012020	260120	125450	101.290	12.379740	-57.055198	101.200	-0.280	-0.320	0.940	101.290	-1.600	1.400																			1580043290.0	10.61	19.65
26/01/2020 12:54:51	26012020	260120	125451	101.160	12.379730	-57.055147	101.070	-0.050	-0.470	0.770	101.130	-1.800	1.300																			1580043291.0	11.03	20.43
26/01/2020 12:54:52	26012020	260120	125452	101.040	12.379720	-57.055095	101.040	0.110	-0.490	0.580	101.040	-1.900	1.000																			1580043292.0	11.24	20.82
26/01/2020 12:54:53	26012020	260120	125453	101.050	12.379712	-57.055043	101.110	0.050	-0.280	0.580	101.050	-1.700	1.000																			1580043293.0	11.07	20.50
26/01/2020 12:54:54	26012020	260120	125454	101.110	12.379702	-57.054993	101.150	-0.130	-0.000	0.780	101.110	-1.400	1.100																			1580043294.0	10.79	19.98
26/01/2020 12:54:55	26012020	260120	125455	101.120	12.379690	-57.054943	101.190	-0.250	0.100	1.030	101.120	-1.300	1.300																			1580043295.0	10.76	19.93
26/01/2020 12:54:56	26012020	260120	125456	101.180	12.379677	-57.054893	101.320	-0.220	-0.010	1.160	101.180	-1.300	1.500																			1580043296.0	10.95	20.28
26/01/2020 12:54:57	26012020	260120	125457	101.330	12.379665	-57.054842	101.470	-0.090	-0.100	1.050	101.330	-1.400	1.500																			1580043297.0	11.08	20.52
26/01/2020 12:54:58	26012020	260120	125458	101.450	12.379655	-57.054792	101.490	0.050	-0.070	0.780	101.450	-1.400	1.300																			1580043298.0	10.90	20.19
26/01/2020 12:54:59	26012020	260120	125459	101.420	12.379647	-57.054742	101.430	0.190	-0.130	0.530	101.420	-1.400	1.000																			1580043299.0	10.75	19.91
26/01/2020 12:55:00	26012020	260120	125500	101.400	12.379638	-57.054690	101.490	0.230	-0.240	0.380	101.400	-1.600	0.800	1016.50	26.20	26.20	17.90	18.00	391.00	60.00	60.00	375.00	27.10	348.00	11.50	79.00	6.10	31295	3084.00	27.40	27.40	1580043300.0	10.89	20.17
26/01/2020 12:55:01	26012020	260120	125501	101.540	12.379630	-57.054640	101.670	0.060	-0.210	0.390	101.540	-1.600	0.800																			1580043301.0	10.86	20.11
26/01/2020 12:55:02	26012020	260120	125502	101.730	12.379622	-57.054590	101.790	-0.170	-0.170	0.550	101.730	-1.500	0.900																			1580043302.0	10.59	19.61
26/01/2020 12:55:03	26012020	260120	125503	101.770	12.379608	-57.054542	101.720	-0.100	-0.410	0.910	101.760	-1.600	1.200																			1580043303.0	10.63	19.69
26/01/2020 12:55:04	26012020	260120	125504	101.620	12.379597	-57.054492	101.570	0.210	-0.730	1.090	101.620	-2.000	1.500																			1580043304.0	11.11	20.58
26/01/2020 12:55:05	26012020	260120	125505	101.500	12.379585	-57.054440	101.460	0.440	-0.710	0.880	101.480	-2.100	1.400																			1580043305.0	11.20	20.74
26/01/2020 12:55:06	26012020	260120	125506	101.420	12.379577	-57.054388	101.450	0.380	-0.340	0.630	101.420	-1.900	1.100																			1580043306.0	10.85	20.09
26/01/2020 12:55:07	26012020	260120	125507	101.440	12.379568	-57.054340	101.500	0.120	0.020	0.540	101.440	-1.400	1.000																			1580043307.0	10.55	19.54
26/01/2020 12:55:08	26012020	260120	125508	101.470	12.379560	-57.054290	101.490	-0.130	0.030	0.620	101.470	-1.300	1.000																			1580043308.0	10.64	19.71
26/01/2020 12:55:09	26012020	260120	125509	101.420	12.379550	-57.054238	101.440	-0.240	-0.150	0.830	101.420	-1.400	1.200																			1580043309.0	11.03	20.43
26/01/2020 12:55:10	26012020	260120	125510	101.420	12.379538	-57.054187	101.500	-0.290	-0.280	0.970	101.420	-1.600	1.300																			1580043310.0	11.15	20.65
26/01/2020 12:55:11	26012020	260120	125511	101.510	12.379527	-57.054137	101.590	-0.320	-0.320	1.040	101.510	-1.700	1.400																			1580043311.0	11.05	20.46
26/01/2020 12:55:12	26012020	260120	125512	101.570	12.379513	-57.054087	101.610	-0.340	-0.250	1.060	101.570	-1.600	1.500																			1580043312.0	10.93	20.24
26/01/2020 12:55:13	26012020	260120	125513	101.580	12.379502	-57.054037	101.620	-0.310	-0.150	0.940	101.580	-1.500	1.400																			1580043313.0	10.81	20.02
26/01/2020 12:55:14	26012020	260120	125514	101.600	12.379492	-57.053987	101.610	-0.230	-0.090	0.680	101.600	-1.500	1.200																			1580043314.0	10.78	19.96
26/01/2020 12:55:15	26012020	260120	125515	101.600	12.379482	-57.053937	101.570	-0.120	-0.080	0.440	101.600	-1.400	0.900																			1580043315.0	10.78	19.96
26/01/2020 12:55:16	26012020	260120	125516	101.550	12.379473	-57.053887	101.520	0.100	-0.300	0.120	101.550	-1.500	0.700																			1580043316.0	10.84	20.08
26/01/2020 12:55:17	26012020	260120	125517	101.530	12.379463	-57.053833	101.510	0.410	-0.590	0.040	101.530	-1.900	0.400																			1580043317.0	11.19	20.72
26/01/2020 12:55:18	26012020	260120	125518	101.510	12.379455	-57.053782	101.500	0.510	-0.450	0.230	101.510	-1.900	0.600																			1580043318.0	11.21	20.76
26/01/2020 12:55:19	26012020	260120	125519	101.550	12.379445	-57.053733	101.570	0.350	-0.020	0.340	101.550	-1.500	0.700																			1580043319.0	10.65	19.72
26/01/2020 12:55:20	26012020	260120	125520	101.620	12.379435	-57.053683	101.620	0.160	0.110	0.510	101.620	-1.200	0.800																			1580043320.0	10.42	19.30
26/01/2020 12:55:21	26012020	260120	125521	101.620	12.379425	-57.053633	101.640	0.030	-0.140	0.750	101.620	-1.400	1.100																			1580043321.0	10.84	20.08
26/01/2020 12:55:22	26012020	260120	125522	101.650	12.379413	-57.053583	101.670	-0.040	-0.360	0.890	101.650	-1.600	1.200																			1580043322.0	11.14	20.63
26/01/2020 12:55:23	26012020	260120	125523	101.640	12.379402	-57.053532	101.630	-0.070	-0.350	1.040	101.640	-1.700	1.400																			1580043323.0	11.00	20.37
26/01/2020 12:55:24	26012020	260120	125524	101.560	12.379390	-57.053482	101.530	-0.100	-0.300	1.110	101.560	-1.700	1.500																			1580043324.0	10.78	19.96
26/01/2020 12:55:25	26012020	260120	125525	101.470	12.379380	-57.053432	101.470	-0.160	-0.400	0.970	101.470	-1.700	1.400																			1580043325.0	10.87	20.13
26/01/2020 12:55:26	26012020	260120	125526	101.450	12.379370	-57.053382	101.480	-0.270	-0.400	0.760	101.450	-1.800	1.200																			1580043326.0	11.03	20.43
26/01/2020 12:55:27	26012020	260120	125527	101.500	12.379360	-57.053330	101.560	-0.390	-0.170	0.630	101.500	-1.600	1.100																			1580043327.0	10.86	20.11
26/01/2020 12:55:28	26012020	260120	125528	101.580	12.379348	-57.053282	101.630	-0.400	-0.010	0.600	101.580	-1.400	1.000																			1580043328.0	10.59	19.61
26/01/2020 12:55:29	26012020	260120	125529	101.620	12.379337	-57.053232	101.610	-0.160	-0.210	0.610	101.620	-1.500	1.000																			1580043329.0	10.79	19.98
26/01/2020 12:55:30	26012020	260120	125530	101.530	12.379325	-57.053180	101.440	0.210	-0.560	0.700	101.530	-1.800	1.100																			1580043330.0	11.23	20.80
26/01/2020 12:55:31	26012020	260120	125531	101.320	12.379315	-57.053128	101.260	0.480	-0.690	0.750	101.320	-2.000	1.100																			1580043331.0	11.35	21.02
26/01/2020 12:55:32	26012020	260120	125532	101.250	12.379305	-57.053075	101.330	0.480	-0.410	0.790	101.250	-1.900	1.200																			1580043332.0	11.15	20.65
26/01/2020 12:55:33	26012020	260120	125533	101.400	12.379297	-57.053027	101.520	0.170	0.150	0.820	101.400	-1.400	1.200																			1580043333.0	10.71	19.83
26/01/2020 12:55:34	26012020	260120	125534	101.560	12.379287	-57.052978	101.640	-0.220	0.510	0.850	101.560	-0.900	1.200																			1580043334.0	10.37	19.21
26/01/2020 12:55:35	26012020	260120	125535	101.640	12.379277	-57.052928	101.680	-0.380	0.350	1.010	101.640	-0.900	1.300																			1580043335.0	10.58	19.59
26/01/2020 12:55:36	26012020	260120	125536	101.660	12.379265	-57.052878	101.700	-0.200	-0.200	1.110	101.660	-1.300	1.500																			1580043336.0	11.07	20.50
26/01/2020 12:55:37	26012020	260120	125537	101.680	12.379253	-57.052825	101.690	0.120	-0.760	0.970	101.680	-1.900	1.400																			1580043337.0	11.40	21.11
26/01/2020 12:55:38	26012020	260120	125538	101.630	12.379243	-57.052773	101.580	0.320	-0.860	0.880	101.630	-2.300	1.300																			1580043338.0	11.37	21.06
26/01/2020 12:55:39	26012020	260120	125539	101.490	12.379233	-57.052722	101.470	0.270	-0.490	0.730	101.490	-2.000	1.200																			1580043339.0	10.87	20.13
26/01/2020 12:55:40	26012020	260120	125540	101.440	12.379225	-57.052673	101.480	0.030	-0.080	0.530	101.440	-1.600	1.000																			1580043340.0	10.49	19.43
26/01/2020 12:55:41	26012020	260120	125541	101.510	12.379215	-57.052625	101.680	-0.200	0.090	0.460	101.550	-1.300	0.900																			1580043341.0	10.54	19.52
26/01/2020 12:55:42	26012020	260120	125542	101.760	12.379205	-57.052575	101.850	-0.290	-0.030	0.530	101.760	-1.300	0.900																			1580043342.0	10.82	20.04
26/01/2020 12:55:43	26012020	260120	125543	101.850	12.379192	-57.052523	101.840	-0.220	-0.240	0.670	101.850	-1.500	1.000																			1580043343.0	11.05	20.46
26/01/2020 12:55:44	26012020	260120	125544	101.770	12.379180	-57.052473	101.720	-0.010	-0.460	0.850	101.770	-1.700	1.200																			1580043344.0	11.13	20.61
26/01/2020 12:55:45	26012020	260120	125545	101.650	12.379168	-57.052422	101.640	0.200	-0.520	0.910	101.650	-1.900	1.300																			1580043345.0	11.14	20.63
26/01/2020 12:55:46	26012020	260120	125546	101.580	12.379158	-57.052370	101.530	0.260	-0.390	0.870	101.580	-1.800	1.300																			1580043346.0	10.97	20.32
26/01/2020 12:55:47	26012020	260120	125547	101.460	12.379148	-57.052320	101.410	0.120	-0.220	0.810	101.460	-1.600	1.200																			1580043347.0	10.85	20.09
26/01/2020 12:55:48	26012020	260120	125548	101.380	12.379140	-57.052270	101.380	-0.140	-0.100	0.760	101.380	-1.500	1.200																			1580043348.0	10.84	20.08
26/01/2020 12:55:49	26012020	260120	125549	101.360	12.379128	-57.052220	101.350	-0.330	-0.100	0.790	101.360	-1.400	1.200																			1580043349.0	10.89	20.17
26/01/2020 12:55:50	26012020	260120	125550	101.330	12.379117	-57.052168	101.330	-0.300	-0.200	0.750	101.330	-1.500	1.200																			1580043350.0	11.05	20.46
26/01/2020 12:55:51	26012020	260120	125551	101.340	12.379105	-57.052117	101.380	-0.120	-0.220	0.660	101.340	-1.600	1.100																			1580043351.0	11.16	20.67
26/01/2020 12:55:52	26012020	260120	125552	101.440	12.379095	-57.052067	101.530	0.020	-0.120	0.570	101.440	-1.500	1.000																			1580043352.0	11.00	20.37
26/01/2020 12:55:53	26012020	260120	125553	101.590	12.379083	-57.052017	101.620	0.160	-0.100	0.470	101.590	-1.400	0.900																			1580043353.0	10.80	20.00
26/01/2020 12:55:54	26012020	260120	125554	101.620	12.379073	-57.051965	101.600	0.360	-0.290	0.450	101.620	-1.600	0.900																			1580043354.0	10.93	20.24
26/01/2020 12:55:55	26012020	260120	125555	101.590	12.379065	-57.051913	101.560	0.470	-0.420	0.440	101.580	-1.700	0.900																			1580043355.0	11.15	20.65
26/01/2020 12:55:56	26012020	260120	125556	101.550	12.379055	-57.051862	101.570	0.340	-0.300	0.420	101.550	-1.700	0.800																			1580043356.0	11.03	20.43
26/01/2020 12:55:57	26012020	260120	125557	101.610	12.379047	-57.051812	101.670	0.020	-0.070	0.580	101.610	-1.500	0.900																			1580043357.0	10.72	19.85
26/01/2020 12:55:58	26012020	260120	125558	101.700	12.379035	-57.051763	101.700	-0.310	0.020	0.980	101.700	-1.400	1.200																			1580043358.0	10.64	19.71
26/01/2020 12:55:59	26012020	260120	125559	101.660	12.379022	-57.051715	101.620	-0.560	-0.090	1.340	101.660	-1.400	1.600																			1580043359.0	10.78	19.96
26/01/2020 12:56:00	26012020	260120	125600	101.560	12.379008	-57.051663	101.540	-0.550	-0.450	1.430	101.560	-1.600	1.800	1016.50	26.10	26.20	18.20	18.30	403.00	61.00	61.00	375.00	27.20	346.00	10.90	74.00	5.70	31912	3232.00	27.50	27.40	1580043360.0	11.00	20.37
26/01/2020 12:56:01	26012020	260120	125601	101.450	12.378995	-57.051612	101.390	-0.260	-0.840	1.360	101.450	-2.100	1.800																			1580043361.0	11.31	20.95
26/01/2020 12:56:02	26012020	260120	125602	101.280	12.378983	-57.051560	101.240	0.070	-0.870	1.110	101.280	-2.300	1.600																			1580043362.0	11.39	21.09
26/01/2020 12:56:03	26012020	260120	125603	101.170	12.378973	-57.051508	101.140	0.260	-0.470	0.820	101.170	-2.000	1.300																			1580043363.0	11.05	20.46
26/01/2020 12:56:04	26012020	260120	125604	101.090	12.378965	-57.051458	101.100	0.330	0.000	0.510	101.090	-1.500	1.100																			1580043364.0	10.70	19.82
26/01/2020 12:56:05	26012020	260120	125605	101.120	12.378957	-57.051408	101.180	0.340	0.200	0.120	101.120	-1.200	0.700																			1580043365.0	10.73	19.87
26/01/2020 12:56:06	26012020	260120	125606	101.250	12.378948	-57.051357	101.320	0.240	0.210	0.010	101.250	-1.100	0.400																			1580043366.0	11.05	20.46
26/01/2020 12:56:07	26012020	260120	125607	101.400	12.378940	-57.051305	101.470	-0.010	0.250	0.350	101.400	-1.100	0.600																			1580043367.0	11.00	20.37
26/01/2020 12:56:08	26012020	260120	125608	101.490	12.378928	-57.051257	101.500	-0.190	0.090	0.720	101.490	-1.200	1.000																			1580043368.0	10.78	19.96
26/01/2020 12:56:09	26012020	260120	125609	101.450	12.378917	-57.051205	101.400	-0.080	-0.450	1.060	101.450	-1.600	1.300																			1580043369.0	11.02	20.41
26/01/2020 12:56:10	26012020	260120	125610	101.310	12.378903	-57.051153	101.280	0.140	-0.860	1.200	101.310	-2.100	1.600																			1580043370.0	11.47	21.24
26/01/2020 12:56:11	26012020	260120	125611	101.250	12.378892	-57.051102	101.280	0.120	-0.580	1.120	101.250	-2.100	1.600																			1580043371.0	11.22	20.78
26/01/2020 12:56:12	26012020	260120	125612	101.280	12.378883	-57.051053	101.300	-0.160	-0.020	1.010	101.280	-1.600	1.500																			1580043372.0	10.42	19.30
26/01/2020 12:56:13	26012020	260120	125613	101.260	12.378873	-57.051005	101.240	-0.340	0.010	0.950	101.260	-1.300	1.400																			1580043373.0	10.26	19.00
26/01/2020 12:56:14	26012020	260120	125614	101.180	12.378862	-57.050953	101.170	-0.210	-0.540	0.880	101.180	-1.700	1.300																			1580043374.0	11.07	20.50
26/01/2020 12:56:15	26012020	260120	125615	101.140	12.378850	-57.050900	101.130	0.030	-0.790	0.810	101.140	-2.100	1.200																			1580043375.0	11.64	21.56
26/01/2020 12:56:16	26012020	260120	125616	101.070	12.378838	-57.050848	101.030	0.090	-0.380	0.860	101.070	-2.000	1.200																			1580043376.0	11.17	20.69
26/01/2020 12:56:17	26012020	260120	125617	100.950	12.378828	-57.050800	100.910	0.030	0.130	0.890	100.950	-1.400	1.300																			1580043377.0	10.47	19.39
26/01/2020 12:56:18	26012020	260120	125618	100.860	12.378818	-57.050752	100.860	0.060	0.110	0.790	100.860	-1.200	1.200																			1580043378.0	10.56	19.56
26/01/2020 12:56:19	26012020	260120	125619	100.860	12.378810	-57.050698	100.930	0.200	-0.280	0.610	100.860	-1.500	1.100																			1580043379.0	11.20	20.74
26/01/2020 12:56:20	26012020	260120	125620	101.000	12.378802	-57.050645	101.090	0.210	-0.340	0.570	101.000	-1.800	1.000																			1580043380.0	11.46	21.22
26/01/2020 12:56:21	26012020	260120	125621	101.160	12.378792	-57.050595	101.240	-0.050	0.070	0.790	101.160	-1.500	1.100																			1580043381.0	10.91	20.21
26/01/2020 12:56:22	26012020	260120	125622	101.280	12.378780	-57.050548	101.350	-0.350	0.320	1.110	101.280	-1.100	1.400																			1580043382.0	10.31	19.09
26/01/2020 12:56:23	26012020	260120	125623	101.330	12.378768	-57.050498	101.330	-0.300	-0.140	1.320	101.330	-1.300	1.700																			1580043383.0	10.61	19.65
26/01/2020 12:56:24	26012020	260120	125624	101.260	12.378757	-57.050447	101.240	0.130	-0.860	1.240	101.260	-2.000	1.700																			1580043384.0	11.42	21.15
26/01/2020 12:56:25	26012020	260120	125625	101.180	12.378747	-57.050392	101.200	0.530	-0.980	0.890	101.180	-2.400	1.400																			1580043385.0	11.60	21.48
26/01/2020 12:56:26	26012020	260120	125626	101.180	12.378738	-57.050342	101.220	0.550	-0.470	0.560	101.180	-2.100	1.100																			1580043386.0	10.91	20.21
26/01/2020 12:56:27	26012020	260120	125627	101.210	12.378732	-57.050293	101.210	0.250	0.040	0.370	101.210	-1.500	0.800																			1580043387.0	10.37	19.21
26/01/2020 12:56:28	26012020	260120	125628	101.160	12.378723	-57.050243	101.120	-0.130	0.180	0.460	101.160	-1.200	0.800																			1580043388.0	10.52	19.48
26/01/2020 12:56:29	26012020	260120	125629	101.060	12.378713	-57.050193	101.050	-0.420	0.060	0.720	101.060	-1.300	1.000																			1580043389.0	10.90	20.19
26/01/2020 12:56:30	26012020	260120	125630	101.020	12.378702	-57.050142	101.050	-0.570	-0.140	0.980	101.020	-1.400	1.300																			1580043390.0	11.06	20.48
26/01/2020 12:56:31	26012020	260120	125631	101.040	12.378688	-57.050092	101.070	-0.520	-0.390	1.150	101.040	-1.700	1.500																			1580043391.0	11.08	20.52
26/01/2020 12:56:32	26012020	260120	125632	101.030	12.378675	-57.050040	101.010	-0.290	-0.540	1.240	101.030	-1.900	1.600																			1580043392.0	11.15	20.65
26/01/2020 12:56:33	26012020	260120	125633	100.890	12.378663	-57.049990	100.840	-0.050	-0.430	1.170	100.890	-1.900	1.600																			1580043393.0	11.08	20.52
26/01/2020 12:56:34	26012020	260120	125634	100.750	12.378653	-57.049940	100.730	0.120	-0.200	0.710	100.750	-1.600	1.300																			1580043394.0	10.79	19.98
26/01/2020 12:56:35	26012020	260120	125635	100.720	12.378647	-57.049890	100.730	0.310	-0.180	0.260	100.720	-1.500	0.800																			1580043395.0	10.73	19.87
26/01/2020 12:56:36	26012020	260120	125636	100.760	12.378640	-57.049838	100.810	0.520	-0.380	0.100	100.760	-1.700	0.500																			1580043396.0	11.07	20.50
26/01/2020 12:56:37	26012020	260120	125637	100.880	12.378632	-57.049785	100.950	0.530	-0.350	0.250	100.880	-1.800	0.600																			1580043397.0	11.27	20.87
26/01/2020 12:56:38	26012020	260120	125638	101.020	12.378622	-57.049735	101.100	0.170	0.060	0.620	101.020	-1.500	0.900																			1580043398.0	10.86	20.11
26/01/2020 12:56:39	26012020	260120	125639	101.150	12.378610	-57.049687	101.180	-0.250	0.280	1.030	101.150	-1.100	1.300																			1580043399.0	10.34	19.15
26/01/2020 12:56:40	26012020	260120	125640	101.150	12.378598	-57.049638	101.120	-0.310	-0.130	1.270	101.150	-1.300	1.600																			1580043400.0	10.68	19.78
26/01/2020 12:56:41	26012020	260120	125641	101.070	12.378587	-57.049585	101.070	-0.090	-0.640	1.310	101.070	-1.900	1.700																			1580043401.0	11.39	21.09
26/01/2020 12:56:42	26012020	260120	125642	101.030	12.378575	-57.049533	101.050	0.010	-0.610	1.200	101.030	-2.100	1.700																			1580043402.0	11.37	21.06
26/01/2020 12:56:43	26012020	260120	125643	101.040	12.378565	-57.049483	101.070	-0.150	-0.130	0.910	101.040	-1.700	1.400																			1580043403.0	10.71	19.83
26/01/2020 12:56:44	26012020	260120	125644	101.090	12.378557	-57.049435	101.100	-0.340	0.130	0.590	101.090	-1.300	1.100																			1580043404.0	10.26	19.00
26/01/2020 12:56:45	26012020	260120	125645	101.100	12.378548	-57.049385	101.100	-0.270	-0.160	0.400	101.100	-1.400	0.900																			1580043405.0	10.67	19.76
26/01/2020 12:56:46	26012020	260120	125646	101.100	12.378538	-57.049333	101.130	0.030	-0.530	0.420	101.100	-1.800	0.800																			1580043406.0	11.26	20.85
26/01/2020 12:56:47	26012020	260120	125647	101.140	12.378528	-57.049282	101.180	0.310	-0.580	0.580	101.140	-2.000	0.900																			1580043407.0	11.25	20.84
26/01/2020 12:56:48	26012020	260120	125648	101.180	12.378517	-57.049230	101.220	0.330	-0.390	0.720	101.180	-1.800	1.100																			1580043408.0	10.92	20.22
26/01/2020 12:56:49	26012020	260120	125649	101.220	12.378507	-57.049182	101.260	0.130	-0.200	0.830	101.220	-1.600	1.200																			1580043409.0	10.74	19.89
26/01/2020 12:56:50	26012020	260120	125650	101.270	12.378495	-57.049132	101.300	-0.080	-0.020	0.920	101.270	-1.500	1.300																			1580043410.0	10.76	19.93
26/01/2020 12:56:51	26012020	260120	125651	101.300	12.378485	-57.049082	101.330	-0.170	0.160	0.860	101.300	-1.300	1.300																			1580043411.0	10.70	19.82
26/01/2020 12:56:52	26012020	260120	125652	101.340	12.378475	-57.049033	101.360	-0.040	0.070	0.610	101.340	-1.200	1.100																			1580043412.0	10.65	19.72
26/01/2020 12:56:53	26012020	260120	125653	101.360	12.378467	-57.048982	101.340	0.200	-0.360	0.510	101.360	-1.600	0.900																			1580043413.0	11.02	20.41
26/01/2020 12:56:54	26012020	260120	125654	101.340	12.378457	-57.048928	101.360	0.260	-0.670	0.540	101.340	-2.000	0.900																			1580043414.0	11.37	21.06
26/01/2020 12:56:55	26012020	260120	125655	101.380	12.378447	-57.048877	101.410	0.040	-0.520	0.740	101.380	-2.000	1.100																			1580043415.0	11.07	20.50
26/01/2020 12:56:56	26012020	260120	125656	101.390	12.378435	-57.048828	101.390	-0.210	-0.160	1.000	101.390	-1.700	1.300																			1580043416.0	10.60	19.63
26/01/2020 12:56:57	26012020	260120	125657	101.330	12.378425	-57.048780	101.340	-0.300	-0.070	1.120	101.330	-1.400	1.500																			1580043417.0	10.53	19.50
26/01/2020 12:56:58	26012020	260120	125658	101.290	12.378413	-57.048730	101.300	-0.190	-0.320	1.180	101.290	-1.600	1.600																			1580043418.0	10.96	20.30
26/01/2020 12:56:59	26012020	260120	125659	101.240	12.378400	-57.048677	101.250	-0.040	-0.460	1.110	101.240	-1.800	1.600																			1580043419.0	11.31	20.95
26/01/2020 12:57:00	26012020	260120	125700	101.220	12.378390	-57.048627	101.240	-0.000	-0.180	0.800	101.220	-1.700	1.300	1016.50	26.10	26.20	18.30	18.40	411.00	62.00	62.00	375.00	27.20	349.00	11.20	80.00	5.80	32396	3299.00	27.50	27.40	1580043420.0	11.07	20.50
26/01/2020 12:57:01	26012020	260120	125701	101.230	12.378382	-57.048577	101.280	-0.020	0.110	0.460	101.230	-1.400	1.000																			1580043421.0	10.60	19.63
26/01/2020 12:57:02	26012020	260120	125702	101.340	12.378373	-57.048527	101.420	0.040	0.120	0.200	101.340	-1.200	0.700																			1580043422.0	10.64	19.71
26/01/2020 12:57:03	26012020	260120	125703	101.500	12.378363	-57.048477	101.560	0.160	-0.050	0.110	101.500	-1.400	0.500																			1580043423.0	10.88	20.15
26/01/2020 12:57:04	26012020	260120	125704	101.560	12.378353	-57.048425	101.530	0.250	-0.240	0.380	101.560	-1.500	0.700																			1580043424.0	10.94	20.26
26/01/2020 12:57:05	26012020	260120	125705	101.460	12.378343	-57.048375	101.400	0.240	-0.450	0.660	101.460	-1.800	1.000																			1580043425.0	10.89	20.17
26/01/2020 12:57:06	26012020	260120	125706	101.340	12.378333	-57.048325	101.300	0.160	-0.580	0.800	101.340	-1.900	1.200																			1580043426.0	10.96	20.30
26/01/2020 12:57:07	26012020	260120	125707	101.230	12.378323	-57.048273	101.190	0.010	-0.500	0.980	101.230	-1.900	1.300																			1580043427.0	10.93	20.24
26/01/2020 12:57:08	26012020	260120	125708	101.130	12.378312	-57.048225	101.110	-0.190	-0.300	1.010	101.130	-1.800	1.400																			1580043428.0	10.74	19.89
26/01/2020 12:57:09	26012020	260120	125709	101.080	12.378302	-57.048175	101.140	-0.280	-0.220	0.900	101.080	-1.600	1.300																			1580043429.0	10.69	19.80
26/01/2020 12:57:10	26012020	260120	125710	101.150	12.378290	-57.048125	101.190	-0.190	-0.310	0.870	101.150	-1.600	1.300																			1580043430.0	10.93	20.24
26/01/2020 12:57:11	26012020	260120	125711	101.160	12.378278	-57.048073	101.150	-0.050	-0.440	0.870	101.160	-1.800	1.300																			1580043431.0	11.17	20.69
26/01/2020 12:57:12	26012020	260120	125712	101.110	12.378268	-57.048020	101.120	0.030	-0.430	0.860	101.110	-1.800	1.300																			1580043432.0	11.22	20.78
26/01/2020 12:57:13	26012020	260120	125713	101.120	12.378257	-57.047970	101.180	0.050	-0.150	0.840	101.120	-1.700	1.300																			1580043433.0	11.03	20.43
26/01/2020 12:57:14	26012020	260120	125714	101.250	12.378247	-57.047920	101.350	0.020	0.210	0.750	101.250	-1.300	1.200																			1580043434.0	10.72	19.85
26/01/2020 12:57:15	26012020	260120	125715	101.450	12.378238	-57.047870	101.570	-0.030	0.310	0.620	101.450	-1.100	1.100																			1580043435.0	10.63	19.69
26/01/2020 12:57:16	26012020	260120	125716	101.670	12.378228	-57.047820	101.790	-0.070	0.110	0.550	101.670	-1.200	1.000																			1580043436.0	10.85	20.09
26/01/2020 12:57:17	26012020	260120	125717	101.880	12.378218	-57.047770	101.960	-0.100	-0.070	0.490	101.880	-1.400	0.900																			1580043437.0	10.99	20.35
26/01/2020 12:57:18	26012020	260120	125718	101.990	12.378207	-57.047720	102.010	-0.060	-0.190	0.450	101.990	-1.500	0.900																			1580043438.0	10.80	20.00
26/01/2020 12:57:19	26012020	260120	125719	101.980	12.378198	-57.047670	101.960	0.120	-0.450	0.470	101.980	-1.700	0.900																			1580043439.0	10.71	19.83
26/01/2020 12:57:20	26012020	260120	125720	101.940	12.378188	-57.047618	101.890	0.420	-0.850	0.550	101.940	-2.100	0.900																			1580043440.0	10.98	20.33
26/01/2020 12:57:21	26012020	260120	125721	101.840	12.378178	-57.047567	101.790	0.550	-0.970	0.720	101.840	-2.400	1.000																			1580043441.0	11.26	20.85
26/01/2020 12:57:22	26012020	260120	125722	101.730	12.378167	-57.047515	101.680	0.320	-0.560	0.930	101.730	-2.100	1.300																			1580043442.0	10.96	20.30
26/01/2020 12:57:23	26012020	260120	125723	101.620	12.378157	-57.047467	101.590	-0.090	-0.080	1.120	101.620	-1.600	1.400																			1580043443.0	10.53	19.50
26/01/2020 12:57:24	26012020	260120	125724	101.530	12.378145	-57.047418	101.540	-0.360	0.040	1.320	101.530	-1.300	1.700																			1580043444.0	10.65	19.72
26/01/2020 12:57:25	26012020	260120	125725	101.530	12.378132	-57.047368	101.590	-0.420	-0.040	1.340	101.530	-1.400	1.800																			1580043445.0	11.08	20.52
26/01/2020 12:57:26	26012020	260120	125726	101.590	12.378120	-57.047317	101.630	-0.340	-0.080	1.190	101.590	-1.400	1.700																			1580043446.0	11.17	20.69
26/01/2020 12:57:27	26012020	260120	125727	101.640	12.378108	-57.047265	101.660	-0.220	-0.120	0.900	101.640	-1.500	1.400																			1580043447.0	11.04	20.45
26/01/2020 12:57:28	26012020	260120	125728	101.660	12.378098	-57.047215	101.670	-0.080	-0.220	0.680	101.660	-1.600	1.100																			1580043448.0	11.02	20.41
26/01/2020 12:57:29	26012020	260120	125729	101.670	12.378088	-57.047163	101.700	0.050	-0.280	0.490	101.670	-1.700	1.000																			1580043449.0	11.06	20.48
26/01/2020 12:57:30	26012020	260120	125730	101.720	12.378078	-57.047112	101.750	0.090	-0.160	0.320	101.720	-1.600	0.800																			1580043450.0	10.95	20.28
26/01/2020 12:57:31	26012020	260120	125731	101.780	12.378070	-57.047062	101.830	0.040	-0.010	0.320	101.780	-1.400	0.700																			1580043451.0	10.71	19.83
26/01/2020 12:57:32	26012020	260120	125732	101.850	12.378060	-57.047013	101.880	0.030	-0.010	0.520	101.850	-1.400	0.800																			1580043452.0	10.66	19.74
26/01/2020 12:57:33	26012020	260120	125733	101.870	12.378048	-57.046963	101.890	0.130	-0.220	0.750	101.870	-1.500	1.100																			1580043453.0	10.86	20.11
26/01/2020 12:57:34	26012020	260120	125734	101.880	12.378037	-57.046912	101.870	0.280	-0.460	0.810	101.880	-1.800	1.200																			1580043454.0	11.04	20.45
26/01/2020 12:57:35	26012020	260120	125735	101.850	12.378027	-57.046860	101.820	0.370	-0.580	0.710	101.850	-1.900	1.200																			1580043455.0	11.09	20.54
26/01/2020 12:57:36	26012020	260120	125736	101.820	12.378017	-57.046810	101.800	0.300	-0.470	0.550	101.820	-1.900	1.000																			1580043456.0	10.98	20.33
26/01/2020 12:57:37	26012020	260120	125737	101.790	12.378008	-57.046760	101.760	0.110	-0.300	0.570	101.790	-1.700	0.900																			1580043457.0	10.75	19.91
26/01/2020 12:57:38	26012020	260120	125738	101.730	12.377998	-57.046710	101.700	-0.100	-0.250	0.770	101.730	-1.600	1.100																			1580043458.0	10.78	19.96
26/01/2020 12:57:39	26012020	260120	125739	101.640	12.377987	-57.046660	101.560	-0.290	-0.300	1.100	101.640	-1.700	1.400																			1580043459.0	10.96	20.30
26/01/2020 12:57:40	26012020	260120	125740	101.430	12.377973	-57.046608	101.290	-0.380	-0.420	1.420	101.430	-1.800	1.700																			1580043460.0	11.13	20.61
26/01/2020 12:57:41	26012020	260120	125741	101.160	12.377958	-57.046557	101.100	-0.290	-0.440	1.500	101.160	-1.800	1.900																			1580043461.0	11.26	20.85
26/01/2020 12:57:42	26012020	260120	125742	101.070	12.377947	-57.046507	101.110	-0.130	-0.250	1.250	101.070	-1.700	1.800																			1580043462.0	11.17	20.69
26/01/2020 12:57:43	26012020	260120	125743	101.150	12.377935	-57.046455	101.260	-0.040	0.090	0.850	101.150	-1.400	1.400																			1580043463.0	10.92	20.22
26/01/2020 12:57:44	26012020	260120	125744	101.380	12.377927	-57.046405	101.540	-0.100	0.510	0.370	101.380	-1.000	1.000																			1580043464.0	10.67	19.76
26/01/2020 12:57:45	26012020	260120	125745	101.700	12.377918	-57.046357	101.830	-0.160	0.560	0.120	101.700	-0.800	0.600																			1580043465.0	10.42	19.30
26/01/2020 12:57:46	26012020	260120	125746	101.940	12.377910	-57.046307	101.970	0.040	-0.130	0.250	101.940	-1.200	0.600																			1580043466.0	10.78	19.96
26/01/2020 12:57:47	26012020	260120	125747	101.980	12.377898	-57.046253	101.930	0.400	-0.870	0.500	101.980	-2.000	0.800																			1580043467.0	11.52	21.34
26/01/2020 12:57:48	26012020	260120	125748	101.920	12.377888	-57.046202	101.910	0.520	-0.860	0.690	101.920	-2.300	1.000																			1580043468.0	11.40	21.11
26/01/2020 12:57:49	26012020	260120	125749	101.920	12.377878	-57.046152	101.940	0.320	-0.390	0.780	101.920	-1.900	1.200																			1580043469.0	10.53	19.50
26/01/2020 12:57:50	26012020	260120	125750	101.940	12.377868	-57.046105	101.910	0.050	-0.240	0.670	101.940	-1.600	1.100																			1580043470.0	10.25	18.98
26/01/2020 12:57:51	26012020	260120	125751	101.850	12.377858	-57.046055	101.720	-0.030	-0.520	0.710	101.850	-1.800	1.100																			1580043471.0	10.85	20.09
26/01/2020 12:57:52	26012020	260120	125752	101.590	12.377847	-57.046002	101.470	-0.000	-0.670	0.950	101.590	-2.000	1.300																			1580043472.0	11.40	21.11
26/01/2020 12:57:53	26012020	260120	125753	101.360	12.377833	-57.045950	101.300	-0.050	-0.350	1.030	101.360	-1.900	1.400																			1580043473.0	11.19	20.72
26/01/2020 12:57:54	26012020	260120	125754	101.230	12.377823	-57.045902	101.210	-0.190	0.000	0.970	101.230	-1.500	1.400																			1580043474.0	10.72	19.85
26/01/2020 12:57:55	26012020	260120	125755	101.180	12.377812	-57.045850	101.190	-0.330	0.050	0.920	101.180	-1.300	1.300																			1580043475.0	10.85	20.09
26/01/2020 12:57:56	26012020	260120	125756	101.180	12.377800	-57.045800	101.240	-0.450	0.100	0.900	101.180	-1.300	1.300																			1580043476.0	11.09	20.54
26/01/2020 12:57:57	26012020	260120	125757	101.290	12.377788	-57.045750	101.390	-0.470	0.150	0.760	101.290	-1.200	1.200																			1580043477.0	10.91	20.21
26/01/2020 12:57:58	26012020	260120	125758	101.440	12.377777	-57.045700	101.480	-0.160	-0.130	0.610	101.440	-1.400	1.100																			1580043478.0	10.87	20.13
26/01/2020 12:57:59	26012020	260120	125759	101.510	12.377765	-57.045648	101.570	0.290	-0.390	0.390	101.510	-1.700	0.900																			1580043479.0	11.26	20.85
26/01/2020 12:58:00	26012020	260120	125800	101.650	12.377757	-57.045597	101.760	0.460	-0.160	0.160	101.650	-1.700	0.600	1016.50	26.10	26.20	18.20	18.30	432.00	61.00	61.00	375.00	27.20	347.00	11.40	77.00	6.00	33447	3134.00	27.50	27.40	1580043480.0	11.05	20.46
26/01/2020 12:58:01	26012020	260120	125801	101.840	12.377748	-57.045548	101.900	0.300	0.180	0.100	101.840	-1.300	0.500																			1580043481.0	10.35	19.17
26/01/2020 12:58:02	26012020	260120	125802	101.920	12.377740	-57.045500	101.880	0.150	-0.010	0.260	101.920	-1.200	0.600																			1580043482.0	10.27	19.02
26/01/2020 12:58:03	26012020	260120	125803	101.810	12.377728	-57.045450	101.680	0.210	-0.720	0.710	101.810	-1.800	0.900																			1580043483.0	10.97	20.32
26/01/2020 12:58:04	26012020	260120	125804	101.520	12.377717	-57.045397	101.390	0.270	-1.140	1.200	101.520	-2.400	1.400																			1580043484.0	11.54	21.37
26/01/2020 12:58:05	26012020	260120	125805	101.270	12.377703	-57.045345	101.220	0.110	-0.790	1.370	101.270	-2.400	1.700																			1580043485.0	11.15	20.65
26/01/2020 12:58:06	26012020	260120	125806	101.140	12.377693	-57.045297	101.080	-0.180	-0.230	1.350	101.140	-1.800	1.800																			1580043486.0	10.44	19.33
26/01/2020 12:58:07	26012020	260120	125807	100.980	12.377682	-57.045248	100.900	-0.320	-0.090	1.370	100.980	-1.500	1.800																			1580043487.0	10.50	19.45
26/01/2020 12:58:08	26012020	260120	125808	100.790	12.377670	-57.045198	100.730	-0.230	-0.210	1.310	100.790	-1.600	1.800																			1580043488.0	11.13	20.61
26/01/2020 12:58:09	26012020	260120	125809	100.680	12.377658	-57.045145	100.760	-0.080	-0.100	1.020	100.680	-1.600	1.600																			1580043489.0	11.32	20.96
26/01/2020 12:58:10	26012020	260120	125810	100.840	12.377648	-57.045095	100.990	-0.030	0.200	0.660	100.840	-1.300	1.200																			1580043490.0	10.91	20.21
26/01/2020 12:58:11	26012020	260120	125811	101.060	12.377640	-57.045045	101.170	-0.050	0.270	0.580	101.100	-1.100	1.000																			1580043491.0	10.67	19.76
26/01/2020 12:58:12	26012020	260120	125812	101.180	12.377630	-57.044995	101.160	-0.030	0.010	0.730	101.180	-1.200	1.100																			1580043492.0	10.85	20.09
26/01/2020 12:58:13	26012020	260120	125813	101.100	12.377618	-57.044943	101.070	0.130	-0.370	0.890	101.100	-1.600	1.300																			1580043493.0	11.10	20.56
26/01/2020 12:58:14	26012020	260120	125814	101.060	12.377608	-57.044892	101.120	0.260	-0.490	0.910	101.060	-1.900	1.300																			1580043494.0	11.17	20.69
26/01/2020 12:58:15	26012020	260120	125815	101.160	12.377598	-57.044842	101.220	0.110	-0.230	0.900	101.160	-1.700	1.300																			1580043495.0	10.76	19.93
26/01/2020 12:58:16	26012020	260120	125816	101.230	12.377590	-57.044793	101.200	-0.170	-0.110	0.940	101.230	-1.500	1.300																			1580043496.0	10.34	19.15
26/01/2020 12:58:17	26012020	260120	125817	101.090	12.377578	-57.044745	100.960	-0.170	-0.470	1.060	101.090	-1.700	1.400																			1580043497.0	10.65	19.72
26/01/2020 12:58:18	26012020	260120	125818	100.820	12.377567	-57.044692	100.730	0.030	-0.760	1.130	100.820	-2.100	1.500																			1580043498.0	11.30	20.93
26/01/2020 12:58:19	26012020	260120	125819	100.700	12.377555	-57.044640	100.750	0.050	-0.470	0.980	100.700	-2.000	1.500																			1580043499.0	11.17	20.69
26/01/2020 12:58:20	26012020	260120	125820	100.820	12.377547	-57.044592	100.910	-0.090	0.010	0.770	100.820	-1.500	1.200																			1580043500.0	10.48	19.41
26/01/2020 12:58:21	26012020	260120	125821	100.970	12.377537	-57.044543	100.980	-0.080	0.040	0.720	100.970	-1.300	1.100																			1580043501.0	10.43	19.32
26/01/2020 12:58:22	26012020	260120	125822	100.950	12.377525	-57.044493	100.880	0.150	-0.280	0.780	100.950	-1.500	1.200																			1580043502.0	11.05	20.46
26/01/2020 12:58:23	26012020	260120	125823	100.820	12.377515	-57.044440	100.820	0.330	-0.420	0.750	100.820	-1.800	1.200																			1580043503.0	11.35	21.02
26/01/2020 12:58:24	26012020	260120	125824	100.870	12.377507	-57.044388	100.960	0.340	-0.280	0.710	100.870	-1.700	1.100																			1580043504.0	11.02	20.41
26/01/2020 12:58:25	26012020	260120	125825	101.000	12.377498	-57.044338	101.110	0.180	-0.070	0.830	101.040	-1.500	1.200																			1580043505.0	10.72	19.85
26/01/2020 12:58:26	26012020	260120	125826	101.160	12.377488	-57.044290	101.220	-0.120	0.080	1.020	101.160	-1.400	1.400																			1580043506.0	10.67	19.76
26/01/2020 12:58:27	26012020	260120	125827	101.220	12.377477	-57.044240	101.200	-0.420	0.110	1.230	101.220	-1.300	1.600																			1580043507.0	10.65	19.72
26/01/2020 12:58:28	26012020	260120	125828	101.100	12.377465	-57.044192	101.040	-0.490	-0.210	1.390	101.100	-1.400	1.700																			1580043508.0	10.74	19.89
26/01/2020 12:58:29	26012020	260120	125829	100.940	12.377453	-57.044140	100.890	-0.270	-0.700	1.320	100.940	-1.900	1.800																			1580043509.0	11.17	20.69
26/01/2020 12:58:30	26012020	260120	125830	100.810	12.377442	-57.044087	100.770	0.010	-0.750	1.030	100.810	-2.200	1.600																			1580043510.0	11.34	21.00
26/01/2020 12:58:31	26012020	260120	125831	100.720	12.377432	-57.044037	100.700	0.050	-0.240	0.790	100.720	-1.800	1.300																			1580043511.0	10.80	20.00
26/01/2020 12:58:32	26012020	260120	125832	100.660	12.377423	-57.043990	100.620	-0.080	0.150	0.700	100.660	-1.300	1.100																			1580043512.0	10.27	19.02
26/01/2020 12:58:33	26012020	260120	125833	100.540	12.377413	-57.043940	100.500	-0.050	-0.060	0.660	100.540	-1.300	1.100																			1580043513.0	10.53	19.50
26/01/2020 12:58:34	26012020	260120	125834	100.450	12.377403	-57.043888	100.470	0.240	-0.580	0.580	100.450	-1.800	1.000																			1580043514.0	11.26	20.85
26/01/2020 12:58:35	26012020	260120	125835	100.450	12.377395	-57.043835	100.490	0.460	-0.670	0.630	100.450	-2.100	1.000																			1580043515.0	11.53	21.35
26/01/2020 12:58:36	26012020	260120	125836	100.490	12.377385	-57.043783	100.520	0.310	-0.160	0.930	100.490	-1.800	1.200																			1580043516.0	10.94	20.26
26/01/2020 12:58:37	26012020	260120	125837	100.520	12.377375	-57.043737	100.550	-0.040	0.320	1.230	100.520	-1.200	1.500																			1580043517.0	10.28	19.04
26/01/2020 12:58:38	26012020	260120	125838	100.540	12.377363	-57.043688	100.580	-0.240	0.210	1.300	100.540	-1.100	1.700																			1580043518.0	10.43	19.32
26/01/2020 12:58:39	26012020	260120	125839	100.590	12.377353	-57.043637	100.610	-0.190	-0.150	1.130	100.590	-1.400	1.600																			1580043519.0	11.03	20.43
26/01/2020 12:58:40	26012020	260120	125840	100.610	12.377345	-57.043585	100.640	-0.050	-0.350	0.870	100.610	-1.700	1.400																			1580043520.0	11.14	20.63
26/01/2020 12:58:41	26012020	260120	125841	100.650	12.377335	-57.043535	100.640	0.060	-0.400	0.820	100.650	-1.800	1.200																			1580043521.0	10.87	20.13
26/01/2020 12:58:42	26012020	260120	125842	100.600	12.377327	-57.043485	100.590	0.080	-0.410	0.890	100.600	-1.800	1.300																			1580043522.0	10.75	19.91
26/01/2020 12:58:43	26012020	260120	125843	100.530	12.377317	-57.043435	100.520	0.020	-0.440	1.000	100.530	-1.800	1.400																			1580043523.0	10.77	19.95
26/01/2020 12:58:44	26012020	260120	125844	100.450	12.377307	-57.043385	100.420	-0.040	-0.450	1.090	100.450	-1.800	1.500																			1580043524.0	10.86	20.11
26/01/2020 12:58:45	26012020	260120	125845	100.360	12.377297	-57.043333	100.360	-0.040	-0.410	1.150	100.360	-1.800	1.500																			1580043525.0	10.87	20.13
26/01/2020 12:58:46	26012020	260120	125846	100.300	12.377287	-57.043283	100.300	0.020	-0.420	1.280	100.300	-1.800	1.600																			1580043526.0	10.93	20.24
26/01/2020 12:58:47	26012020	260120	125847	100.250	12.377275	-57.043232	100.260	0.070	-0.400	1.350	100.250	-1.800	1.800																			1580043527.0	11.06	20.48
26/01/2020 12:58:48	26012020	260120	125848	100.220	12.377267	-57.043180	100.270	0.020	-0.200	1.260	100.220	-1.700	1.700																			1580043528.0	11.06	20.48
26/01/2020 12:58:49	26012020	260120	125849	100.310	12.377257	-57.043130	100.440	-0.170	0.180	1.030	100.310	-1.400	1.500																			1580043529.0	10.82	20.04
26/01/2020 12:58:50	26012020	260120	125850	100.530	12.377248	-57.043082	100.670	-0.380	0.400	0.830	100.530	-1.000	1.300																			1580043530.0	10.58	19.59
26/01/2020 12:58:51	26012020	260120	125851	100.760	12.377238	-57.043032	100.840	-0.370	0.190	0.740	100.760	-1.100	1.200																			1580043531.0	10.66	19.74
26/01/2020 12:58:52	26012020	260120	125852	100.860	12.377228	-57.042980	100.890	-0.030	-0.320	0.680	100.860	-1.500	1.100																			1580043532.0	11.08	20.52
26/01/2020 12:58:53	26012020	260120	125853	100.870	12.377218	-57.042928	100.880	0.390	-0.620	0.600	100.870	-1.900	1.000																			1580043533.0	11.31	20.95
26/01/2020 12:58:54	26012020	260120	125854	100.890	12.377210	-57.042877	100.940	0.560	-0.520	0.500	100.890	-2.000	1.000																			1580043534.0	11.04	20.45
26/01/2020 12:58:55	26012020	260120	125855	100.990	12.377202	-57.042827	101.050	0.390	-0.230	0.450	100.990	-1.700	0.900																			1580043535.0	10.59	19.61
26/01/2020 12:58:56	26012020	260120	125856	101.080	12.377195	-57.042778	101.110	0.060	-0.050	0.560	101.080	-1.500	0.900																			1580043536.0	10.47	19.39
26/01/2020 12:58:57	26012020	260120	125857	101.120	12.377185	-57.042728	101.140	-0.230	-0.030	0.760	101.120	-1.400	1.100																			1580043537.0	10.61	19.65
26/01/2020 12:58:58	26012020	260120	125858	101.110	12.377173	-57.042678	101.070	-0.290	-0.300	1.020	101.110	-1.600	1.300																			1580043538.0	10.78	19.96
26/01/2020 12:58:59	26012020	260120	125859	100.970	12.377162	-57.042628	100.900	-0.120	-0.720	1.160	100.970	-2.000	1.500																			1580043539.0	11.14	20.63
26/01/2020 12:59:00	26012020	260120	125900	100.800	12.377152	-57.042575	100.740	0.120	-0.920	1.080	100.800	-2.300	1.500	1016.50	26.10	26.10	18.40	18.40	456.00	62.00	62.00	375.00	27.20	347.00	11.10	75.00	5.80	34535	3154.00	27.50	27.40	1580043540.0	11.37	21.06
26/01/2020 12:59:01	26012020	260120	125901	100.680	12.377142	-57.042523	100.630	0.160	-0.750	1.000	100.680	-2.200	1.400																			1580043541.0	11.20	20.74
26/01/2020 12:59:02	26012020	260120	125902	100.580	12.377132	-57.042472	100.520	0.020	-0.330	0.970	100.580	-1.900	1.400																			1580043542.0	10.93	20.24
26/01/2020 12:59:03	26012020	260120	125903	100.480	12.377120	-57.042423	100.460	-0.180	0.260	0.830	100.480	-1.400	1.300																			1580043543.0	10.75	19.91
26/01/2020 12:59:04	26012020	260120	125904	100.490	12.377112	-57.042373	100.570	-0.350	0.690	0.650	100.490	-0.800	1.100																			1580043544.0	10.52	19.48
26/01/2020 12:59:05	26012020	260120	125905	100.680	12.377103	-57.042323	100.840	-0.370	0.510	0.610	100.680	-0.700	1.000																			1580043545.0	10.64	19.71
26/01/2020 12:59:06	26012020	260120	125906	100.980	12.377093	-57.042272	101.170	-0.220	-0.080	0.580	100.980	-1.200	1.000																			1580043546.0	11.16	20.67
26/01/2020 12:59:07	26012020	260120	125907	101.300	12.377082	-57.042220	101.400	0.000	-0.520	0.720	101.300	-1.800	1.000																			1580043547.0	11.36	21.04
26/01/2020 12:59:08	26012020	260120	125908	101.410	12.377070	-57.042168	101.380	0.220	-0.700	1.010	101.410	-2.100	1.300																			1580043548.0	11.11	20.58
26/01/2020 12:59:09	26012020	260120	125909	101.330	12.377058	-57.042118	101.310	0.370	-0.590	1.010	101.330	-2.100	1.500																			1580043549.0	10.89	20.17
26/01/2020 12:59:10	26012020	260120	125910	101.280	12.377050	-57.042068	101.280	0.340	-0.200	0.750	101.280	-1.800	1.300																			1580043550.0	10.61	19.65
26/01/2020 12:59:11	26012020	260120	125911	101.300	12.377043	-57.042020	101.320	0.180	0.140	0.460	101.300	-1.300	1.000																			1580043551.0	10.33	19.13
26/01/2020 12:59:12	26012020	260120	125912	101.340	12.377037	-57.041972	101.320	0.110	-0.130	0.290	101.340	-1.300	0.800																			1580043552.0	10.49	19.43
26/01/2020 12:59:13	26012020	260120	125913	101.310	12.377028	-57.041918	101.270	0.210	-0.830	0.340	101.310	-2.000	0.700																			1580043553.0	11.29	20.91
26/01/2020 12:59:14	26012020	260120	125914	101.230	12.377017	-57.041865	101.170	0.180	-0.970	0.680	101.230	-2.400	0.900																			1580043554.0	11.71	21.69
26/01/2020 12:59:15	26012020	260120	125915	101.150	12.377003	-57.041815	101.100	-0.130	-0.280	0.960	101.130	-2.000	1.300																			1580043555.0	10.99	20.35
26/01/2020 12:59:16	26012020	260120	125916	101.110	12.376993	-57.041768	101.150	-0.440	0.370	0.940	101.110	-1.200	1.400																			1580043556.0	10.12	18.74
26/01/2020 12:59:17	26012020	260120	125917	101.200	12.376983	-57.041720	101.240	-0.420	0.190	0.810	101.200	-1.000	1.300																			1580043557.0	10.40	19.26
26/01/2020 12:59:18	26012020	260120	125918	101.260	12.376972	-57.041667	101.250	-0.140	-0.350	0.770	101.260	-1.600	1.200																			1580043558.0	11.36	21.04
26/01/2020 12:59:19	26012020	260120	125919	101.250	12.376960	-57.041613	101.250	-0.020	-0.340	0.680	101.250	-1.800	1.100																			1580043559.0	11.53	21.35
26/01/2020 12:59:20	26012020	260120	125920	101.280	12.376950	-57.041565	101.290	-0.170	0.020	0.540	101.280	-1.500	1.000																			1580043560.0	10.69	19.80
26/01/2020 12:59:21	26012020	260120	125921	101.320	12.376942	-57.041517	101.340	-0.230	-0.040	0.470	101.320	-1.300	0.900																			1580043561.0	10.39	19.24
26/01/2020 12:59:22	26012020	260120	125922	101.400	12.376930	-57.041465	101.430	-0.020	-0.420	0.530	101.400	-1.700	0.900																			1580043562.0	10.95	20.28
26/01/2020 12:59:23	26012020	260120	125923	101.450	12.376920	-57.041413	101.440	0.260	-0.600	0.610	101.450	-2.000	1.000																			1580043563.0	11.24	20.82
26/01/2020 12:59:24	26012020	260120	125924	101.450	12.376910	-57.041362	101.440	0.340	-0.380	0.720	101.450	-1.900	1.100																			1580043564.0	10.97	20.32
26/01/2020 12:59:25	26012020	260120	125925	101.480	12.376900	-57.041313	101.520	0.210	-0.040	0.810	101.480	-1.500	1.200																			1580043565.0	10.56	19.56
26/01/2020 12:59:26	26012020	260120	125926	101.560	12.376890	-57.041265	101.580	0.030	0.060	0.870	101.560	-1.300	1.300																			1580043566.0	10.49	19.43
26/01/2020 12:59:27	26012020	260120	125927	101.560	12.376880	-57.041215	101.530	0.040	-0.200	0.940	101.560	-1.500	1.300																			1580043567.0	10.78	19.96
26/01/2020 12:59:28	26012020	260120	125928	101.510	12.376868	-57.041163	101.520	0.240	-0.520	0.880	101.510	-1.800	1.300																			1580043568.0	11.21	20.76
26/01/2020 12:59:29	26012020	260120	125929	101.580	12.376858	-57.041112	101.660	0.270	-0.410	0.620	101.580	-1.900	1.100																			1580043569.0	11.21	20.76
26/01/2020 12:59:30	26012020	260120	125930	101.780	12.376852	-57.041062	101.890	-0.030	0.060	0.440	101.780	-1.500	0.900																			1580043570.0	10.65	19.72
26/01/2020 12:59:31	26012020	260120	125931	101.990	12.376842	-57.041013	102.030	-0.390	0.280	0.520	101.990	-1.100	0.900																			1580043571.0	10.21	18.91
26/01/2020 12:59:32	26012020	260120	125932	102.050	12.376830	-57.040965	102.030	-0.400	-0.150	0.720	102.050	-1.300	1.100																			1580043572.0	10.57	19.58
26/01/2020 12:59:33	26012020	260120	125933	102.000	12.376817	-57.040913	101.940	-0.060	-0.830	0.880	102.000	-2.000	1.200																			1580043573.0	11.33	20.98
26/01/2020 12:59:34	26012020	260120	125934	101.870	12.376805	-57.040860	101.800	0.240	-1.000	0.840	101.870	-2.400	1.300																			1580043574.0	11.54	21.37
26/01/2020 12:59:35	26012020	260120	125935	101.730	12.376795	-57.040810	101.660	0.250	-0.540	0.660	101.730	-2.100	1.100																			1580043575.0	10.94	20.26
26/01/2020 12:59:36	26012020	260120	125936	101.610	12.376787	-57.040762	101.570	0.070	-0.060	0.630	101.610	-1.600	1.000																			1580043576.0	10.38	19.22
26/01/2020 12:59:37	26012020	260120	125937	101.570	12.376777	-57.040712	101.580	-0.080	0.010	0.600	101.570	-1.400	1.000																			1580043577.0	10.60	19.63
26/01/2020 12:59:38	26012020	260120	125938	101.610	12.376765	-57.040660	101.650	-0.120	-0.090	0.560	101.610	-1.400	1.000																			1580043578.0	11.07	20.50
26/01/2020 12:59:39	26012020	260120	125939	101.670	12.376755	-57.040610	101.740	-0.100	-0.070	0.630	101.680	-1.500	1.000																			1580043579.0	11.14	20.63
26/01/2020 12:59:40	26012020	260120	125940	101.820	12.376743	-57.040558	101.910	-0.040	0.030	0.710	101.820	-1.400	1.100																			1580043580.0	10.93	20.24
26/01/2020 12:59:41	26012020	260120	125941	102.000	12.376732	-57.040510	102.120	0.020	0.080	0.670	102.000	-1.300	1.100																			1580043581.0	10.81	20.02
26/01/2020 12:59:42	26012020	260120	125942	102.220	12.376720	-57.040460	102.340	-0.010	0.110	0.600	102.220	-1.300	1.000																			1580043582.0	10.76	19.93
26/01/2020 12:59:43	26012020	260120	125943	102.480	12.376710	-57.040410	102.580	-0.110	0.070	0.550	102.480	-1.300	1.000																			1580043583.0	10.64	19.71
26/01/2020 12:59:44	26012020	260120	125944	102.660	12.376700	-57.040362	102.680	-0.090	-0.290	0.580	102.660	-1.500	1.000																			1580043584.0	10.62	19.67
26/01/2020 12:59:45	26012020	260120	125945	102.660	12.376688	-57.040310	102.600	0.140	-0.820	0.710	102.660	-2.000	1.100																			1580043585.0	11.01	20.39
26/01/2020 12:59:46	26012020	260120	125946	102.500	12.376677	-57.040258	102.400	0.400	-1.040	0.830	102.500	-2.400	1.200																			1580043586.0	11.22	20.78
26/01/2020 12:59:47	26012020	260120	125947	102.290	12.376667	-57.040208	102.170	0.440	-0.840	0.890	102.290	-2.300	1.300																			1580043587.0	10.98	20.33
26/01/2020 12:59:48	26012020	260120	125948	102.050	12.376657	-57.040158	101.920	0.240	-0.490	1.040	102.050	-2.000	1.400																			1580043588.0	10.71	19.83
26/01/2020 12:59:49	26012020	260120	125949	101.780	12.376645	-57.040108	101.710	-0.070	-0.140	1.190	101.780	-1.700	1.600																			1580043589.0	10.74	19.89
26/01/2020 12:59:50	26012020	260120	125950	101.710	12.376635	-57.040058	101.800	-0.290	0.190	1.000	101.710	-1.300	1.500																			1580043590.0	10.78	19.96
26/01/2020 12:59:51	26012020	260120	125951	101.850	12.376623	-57.040008	101.990	-0.290	0.200	0.610	101.890	-1.100	1.200																			1580043591.0	10.82	20.04
26/01/2020 12:59:52	26012020	260120	125952	102.030	12.376613	-57.039957	102.050	-0.120	-0.030	0.410	102.030	-1.300	0.900																			1580043592.0	11.19	20.72
26/01/2020 12:59:53	26012020	260120	125953	102.060	12.376602	-57.039905	102.080	-0.070	-0.040	0.460	102.060	-1.500	0.800																			1580043593.0	11.27	20.87
26/01/2020 12:59:54	26012020	260120	125954	102.120	12.376590	-57.039855	102.220	-0.210	0.120	0.500	102.120	-1.300	0.900																			1580043594.0	10.80	20.00
26/01/2020 12:59:55	26012020	260120	125955	102.310	12.376580	-57.039807	102.390	-0.270	-0.040	0.500	102.310	-1.300	0.900																			1580043595.0	10.57	19.58
26/01/2020 12:59:56	26012020	260120	125956	102.420	12.376568	-57.039757	102.380	-0.120	-0.500	0.680	102.420	-1.700	1.000																			1580043596.0	10.97	20.32
26/01/2020 12:59:57	26012020	260120	125957	102.320	12.376557	-57.039705	102.260	0.050	-0.660	0.850	102.320	-2.000	1.200																			1580043597.0	11.24	20.82
26/01/2020 12:59:58	26012020	260120	125958	102.200	12.376545	-57.039655	102.160	0.060	-0.400	0.830	102.200	-1.900	1.300																			1580043598.0	10.82	20.04
26/01/2020 12:59:59	26012020	260120	125959	102.110	12.376533	-57.039607	102.090	0.040	-0.230	0.680	102.110	-1.600	1.100																			1580043599.0	10.46	19.37
26/01/2020 13:00:00	26012020	260120	130000	102.060	12.376523	-57.039557	102.030	0.150	-0.330	0.500	102.060	-1.700	1.000	1016.50	26.10	26.10	18.50	18.60	466.00	63.00	63.00	376.00	27.20	348.00	11.00	77.00	5.70	35099	3195.00	27.50	27.40	1580043600.0	10.71	19.83
26/01/2020 13:00:01	26012020	260120	130001	101.980	12.376513	-57.039505	101.930	0.340	-0.480	0.460	101.980	-1.800	0.900																			1580043601.0	11.08	20.52
26/01/2020 13:00:02	26012020	260120	130001	101.840	12.376503	-57.039453	101.780	0.490	-0.420	0.440	101.840	-1.900	0.900																			1580043601.0	11.13	20.61
26/01/2020 13:00:03	26012020	260120	130003	101.730	12.376493	-57.039403	101.770	0.450	-0.200	0.470	101.730	-1.700	0.900																			1580043603.0	10.96	20.30
26/01/2020 13:00:04	26012020	260120	130004	101.810	12.376483	-57.039353	101.920	0.170	0.030	0.640	101.810	-1.400	1.000																			1580043604.0	10.79	19.98
26/01/2020 13:00:05	26012020	260120	130005	101.930	12.376473	-57.039303	102.020	-0.170	0.120	0.900	101.950	-1.300	1.200																			1580043605.0	10.73	19.87
26/01/2020 13:00:06	26012020	260120	130006	102.010	12.376460	-57.039253	102.020	-0.340	-0.000	1.220	102.010	-1.300	1.500																			1580043606.0	10.83	20.06
26/01/2020 13:00:07	26012020	260120	130007	101.980	12.376448	-57.039203	101.990	-0.360	-0.300	1.420	101.980	-1.600	1.800																			1580043607.0	11.07	20.50
26/01/2020 13:00:08	26012020	260120	130008	101.930	12.376435	-57.039152	101.950	-0.350	-0.520	1.390	101.930	-1.800	1.800																			1580043608.0	11.20	20.74
26/01/2020 13:00:09	26012020	260120	130009	101.890	12.376422	-57.039102	101.910	-0.330	-0.540	1.210	101.890	-1.900	1.700																			1580043609.0	11.05	20.46
26/01/2020 13:00:10	26012020	260120	130010	101.850	12.376410	-57.039050	101.860	-0.250	-0.440	0.960	101.850	-1.900	1.500																			1580043610.0	10.89	20.17
26/01/2020 13:00:11	26012020	260120	130011	101.760	12.376400	-57.039000	101.680	-0.110	-0.230	0.770	101.760	-1.700	1.200																			1580043611.0	10.84	20.08
26/01/2020 13:00:12	26012020	260120	130012	101.550	12.376390	-57.038952	101.510	0.050	-0.020	0.530	101.550	-1.500	1.100																			1580043612.0	10.75	19.91
26/01/2020 13:00:13	26012020	260120	130013	101.490	12.376382	-57.038900	101.530	0.240	-0.040	0.260	101.490	-1.400	0.800																			1580043613.0	10.78	19.96
26/01/2020 13:00:14	26012020	260120	130014	101.550	12.376372	-57.038848	101.610	0.390	-0.290	0.250	101.550	-1.600	0.600																			1580043614.0	11.08	20.52
26/01/2020 13:00:15	26012020	260120	130015	101.620	12.376362	-57.038797	101.680	0.350	-0.340	0.440	101.620	-1.700	0.800																			1580043615.0	11.26	20.85
26/01/2020 13:00:16	26012020	260120	130016	101.700	12.376350	-57.038747	101.780	0.160	-0.090	0.690	101.700	-1.600	1.000																			1580043616.0	10.91	20.21
26/01/2020 13:00:17	26012020	260120	130017	101.830	12.376340	-57.038698	101.890	0.040	0.130	0.870	101.830	-1.300	1.200																			1580043617.0	10.54	19.52
26/01/2020 13:00:18	26012020	260120	130018	101.890	12.376328	-57.038648	101.870	0.090	-0.080	0.950	101.890	-1.300	1.300																			1580043618.0	10.65	19.72
26/01/2020 13:00:19	26012020	260120	130019	101.810	12.376318	-57.038597	101.780	0.180	-0.510	0.970	101.810	-1.700	1.400																			1580043619.0	11.15	20.65
26/01/2020 13:00:20	26012020	260120	130020	101.720	12.376308	-57.038545	101.730	0.110	-0.610	0.930	101.720	-2.000	1.400																			1580043620.0	11.29	20.91
26/01/2020 13:00:21	26012020	260120	130021	101.730	12.376298	-57.038495	101.770	-0.180	-0.270	0.760	101.730	-1.800	1.200																			1580043621.0	10.83	20.06
26/01/2020 13:00:22	26012020	260120	130022	101.750	12.376288	-57.038447	101.720	-0.490	-0.120	0.710	101.750	-1.500	1.100																			1580043622.0	10.42	19.30
26/01/2020 13:00:23	26012020	260120	130023	101.620	12.376277	-57.038397	101.540	-0.560	-0.490	0.920	101.620	-1.700	1.200																			1580043623.0	10.83	20.06
26/01/2020 13:00:24	26012020	260120	130024	101.410	12.376263	-57.038343	101.320	-0.310	-0.920	1.120	101.410	-2.200	1.500																			1580043624.0	11.50	21.30
26/01/2020 13:00:25	26012020	260120	130025	101.180	12.376250	-57.038292	101.130	0.010	-0.820	1.190	101.180	-2.300	1.600																			1580043625.0	11.58	21.45
26/01/2020 13:00:26	26012020	260120	130026	101.080	12.376238	-57.038240	101.100	0.090	-0.150	1.010	101.080	-1.800	1.500																			1580043626.0	11.08	20.52
26/01/2020 13:00:27	26012020	260120	130027	101.110	12.376228	-57.038192	101.180	-0.130	0.650	0.700	101.110	-1.000	1.200																			1580043627.0	10.45	19.35
26/01/2020 13:00:28	26012020	260120	130028	101.230	12.376218	-57.038143	101.340	-0.270	0.880	0.380	101.230	-0.500	0.900																			1580043628.0	10.26	19.00
26/01/2020 13:00:29	26012020	260120	130029	101.420	12.376210	-57.038093	101.510	-0.020	0.340	0.140	101.420	-0.800	0.600																			1580043629.0	10.84	20.08
26/01/2020 13:00:30	26012020	260120	130030	101.570	12.376200	-57.038040	101.670	0.420	-0.320	0.040	101.570	-1.500	0.500																			1580043630.0	11.48	21.26
26/01/2020 13:00:31	26012020	260120	130031	101.710	12.376190	-57.037987	101.770	0.660	-0.580	0.130	101.710	-1.900	0.500																			1580043631.0	11.35	21.02
26/01/2020 13:00:32	26012020	260120	130032	101.810	12.376182	-57.037937	101.860	0.570	-0.490	0.450	101.810	-1.900	0.700																			1580043632.0	10.79	19.98
26/01/2020 13:00:33	26012020	260120	130033	101.840	12.376172	-57.037888	101.790	0.280	-0.360	0.840	101.840	-1.800	1.100																			1580043633.0	10.48	19.41
26/01/2020 13:00:34	26012020	260120	130034	101.670	12.376160	-57.037840	101.540	0.010	-0.430	1.120	101.670	-1.800	1.400																			1580043634.0	10.51	19.46
26/01/2020 13:00:35	26012020	260120	130035	101.340	12.376150	-57.037790	101.210	-0.120	-0.750	1.270	101.340	-2.000	1.600																			1580043635.0	10.92	20.22
26/01/2020 13:00:36	26012020	260120	130036	101.060	12.376138	-57.037737	100.980	-0.200	-0.980	1.310	101.060	-2.300	1.700																			1580043636.0	11.32	20.96
26/01/2020 13:00:37	26012020	260120	130037	100.880	12.376127	-57.037685	100.840	-0.350	-0.750	1.280	100.880	-2.300	1.700																			1580043637.0	11.31	20.95
26/01/2020 13:00:38	26012020	260120	130038	100.790	12.376115	-57.037635	100.780	-0.580	-0.140	1.170	100.790	-1.800	1.600																			1580043638.0	10.87	20.13
26/01/2020 13:00:39	26012020	260120	130039	100.750	12.376103	-57.037587	100.730	-0.710	0.350	1.060	100.750	-1.200	1.500																			1580043639.0	10.57	19.58
26/01/2020 13:00:40	26012020	260120	130040	100.720	12.376090	-57.037537	100.740	-0.550	0.370	0.840	100.720	-1.000	1.300																			1580043640.0	10.78	19.96
26/01/2020 13:00:41	26012020	260120	130041	100.730	12.376080	-57.037485	100.770	-0.130	0.020	0.570	100.750	-1.200	1.100																			1580043641.0	11.27	20.87
26/01/2020 13:00:42	26012020	260120	130042	100.810	12.376070	-57.037432	100.870	0.300	-0.190	0.380	100.810	-1.500	0.900																			1580043642.0	11.48	21.26
26/01/2020 13:00:43	26012020	260120	130043	100.960	12.376062	-57.037380	101.050	0.510	-0.030	0.230	100.960	-1.500	0.700																			1580043643.0	11.12	20.59
26/01/2020 13:00:44	26012020	260120	130044	101.160	12.376053	-57.037330	101.220	0.460	0.220	0.250	101.160	-1.300	0.600																			1580043644.0	10.59	19.61
26/01/2020 13:00:45	26012020	260120	130045	101.320	12.376045	-57.037282	101.350	0.330	0.160	0.410	101.320	-1.100	0.800																			1580043645.0	10.43	19.32
26/01/2020 13:00:46	26012020	260120	130046	101.390	12.376035	-57.037232	101.370	0.350	-0.350	0.680	101.390	-1.500	1.000																			1580043646.0	10.74	19.89
26/01/2020 13:00:47	26012020	260120	130047	101.370	12.376025	-57.037180	101.330	0.450	-0.850	0.960	101.370	-2.100	1.300																			1580043647.0	11.25	20.84
26/01/2020 13:00:48	26012020	260120	130048	101.310	12.376015	-57.037128	101.290	0.350	-0.820	1.040	101.310	-2.300	1.400																			1580043648.0	11.16	20.67
26/01/2020 13:00:49	26012020	260120	130049	101.280	12.376005	-57.037078	101.240	-0.010	-0.460	1.070	101.280	-2.000	1.400																			1580043649.0	10.60	19.63
26/01/2020 13:00:50	26012020	260120	130050	101.160	12.375995	-57.037030	101.060	-0.400	-0.340	1.310	101.160	-1.700	1.600																			1580043650.0	10.44	19.33
26/01/2020 13:00:51	26012020	260120	130051	100.940	12.375982	-57.036980	100.840	-0.580	-0.620	1.520	100.940	-1.900	1.900																			1580043651.0	10.97	20.32
26/01/2020 13:00:52	26012020	260120	130052	100.690	12.375968	-57.036928	100.570	-0.510	-0.730	1.600	100.690	-2.100	2.000																			1580043652.0	11.52	21.34
26/01/2020 13:00:53	26012020	260120	130053	100.480	12.375955	-57.036877	100.390	-0.370	-0.290	1.410	100.450	-1.900	1.900																			1580043653.0	11.29	20.91
26/01/2020 13:00:54	26012020	260120	130054	100.360	12.375945	-57.036827	100.390	-0.220	0.230	0.960	100.360	-1.300	1.600																			1580043654.0	10.70	19.82
26/01/2020 13:00:55	26012020	260120	130055	100.410	12.375937	-57.036777	100.520	-0.000	0.310	0.480	100.440	-1.100	1.100																			1580043655.0	10.74	19.89
26/01/2020 13:00:56	26012020	260120	130056	100.640	12.375928	-57.036725	100.770	0.200	0.170	0.090	100.640	-1.200	0.600																			1580043656.0	11.15	20.65
26/01/2020 13:00:57	26012020	260120	130057	100.910	12.375920	-57.036673	101.020	0.280	0.150	0.020	100.910	-1.200	0.400																			1580043657.0	11.12	20.59
26/01/2020 13:00:58	26012020	260120	130058	101.140	12.375912	-57.036622	101.200	0.310	0.090	0.180	101.140	-1.300	0.500																			1580043658.0	10.78	19.96
26/01/2020 13:00:59	26012020	260120	130059	101.270	12.375903	-57.036572	101.310	0.380	-0.230	0.340	101.270	-1.500	0.700																			1580043659.0	10.78	19.96
26/01/2020 13:01:00	26012020	260120	130100	101.380	12.375895	-57.036520	101.430	0.360	-0.540	0.550	101.380	-1.800	0.900	1016.50	26.10	26.10	18.60	18.60	474.00	63.00	63.00	376.00	27.30	348.00	10.40	75.00	5.10	35597	3137.00	27.50	27.50	1580043660.0	11.06	20.48
26/01/2020 13:01:01	26012020	260120	130101	101.440	12.375885	-57.036470	101.400	0.150	-0.600	0.910	101.440	-2.000	1.200																			1580043661.0	10.95	20.28
26/01/2020 13:01:02	26012020	260120	130102	101.290	12.375873	-57.036420	101.160	-0.130	-0.560	1.230	101.290	-1.900	1.500																			1580043662.0	10.69	19.80
26/01/2020 13:01:03	26012020	260120	130103	101.030	12.375862	-57.036372	100.930	-0.230	-0.610	1.380	101.030	-2.000	1.800																			1580043663.0	10.78	19.96
26/01/2020 13:01:04	26012020	260120	130104	100.830	12.375850	-57.036320	100.750	-0.210	-0.610	1.290	100.830	-2.000	1.800																			1580043664.0	11.05	20.46
26/01/2020 13:01:05	26012020	260120	130105	100.650	12.375838	-57.036268	100.550	-0.200	-0.450	1.040	100.650	-1.900	1.500																			1580043665.0	11.07	20.50
26/01/2020 13:01:06	26012020	260120	130106	100.470	12.375828	-57.036218	100.390	-0.210	-0.140	0.770	100.470	-1.600	1.300																			1580043666.0	10.93	20.24
26/01/2020 13:01:07	26012020	260120	130107	100.380	12.375818	-57.036168	100.350	-0.130	0.010	0.540	100.380	-1.400	1.000																			1580043667.0	10.81	20.02
26/01/2020 13:01:08	26012020	260120	130108	100.370	12.375810	-57.036117	100.370	0.070	-0.100	0.330	100.370	-1.400	0.800																			1580043668.0	11.10	20.56
26/01/2020 13:01:09	26012020	260120	130109	100.470	12.375800	-57.036063	100.550	0.190	-0.100	0.230	100.470	-1.500	0.700																			1580043669.0	11.31	20.95
26/01/2020 13:01:10	26012020	260120	130110	100.720	12.375790	-57.036013	100.830	0.080	0.200	0.320	100.720	-1.300	0.700																			1580043670.0	10.97	20.32
26/01/2020 13:01:11	26012020	260120	130111	100.980	12.375782	-57.035965	101.030	-0.130	0.460	0.550	100.980	-1.000	0.900																			1580043671.0	10.48	19.41
26/01/2020 13:01:12	26012020	260120	130112	101.130	12.375770	-57.035917	101.130	-0.150	0.190	0.780	101.130	-1.000	1.100																			1580043672.0	10.46	19.37
26/01/2020 13:01:13	26012020	260120	130113	101.160	12.375760	-57.035865	101.160	0.150	-0.530	0.900	101.160	-1.600	1.300																			1580043673.0	11.04	20.45
26/01/2020 13:01:14	26012020	260120	130114	101.190	12.375750	-57.035812	101.200	0.480	-1.060	0.900	101.190	-2.300	1.300																			1580043674.0	11.47	21.24
26/01/2020 13:01:15	26012020	260120	130115	101.200	12.375742	-57.035760	101.130	0.430	-0.890	0.910	101.200	-2.400	1.300																			1580043675.0	11.21	20.76
26/01/2020 13:01:16	26012020	260120	130116	101.060	12.375732	-57.035710	100.940	0.000	-0.280	1.040	101.060	-1.900	1.400																			1580043676.0	10.48	19.41
26/01/2020 13:01:17	26012020	260120	130117	100.810	12.375722	-57.035663	100.650	-0.380	-0.050	1.150	100.810	-1.400	1.500																			1580043677.0	10.19	18.87
26/01/2020 13:01:18	26012020	260120	130118	100.510	12.375712	-57.035613	100.370	-0.350	-0.520	1.110	100.510	-1.700	1.600																			1580043678.0	10.90	20.19
26/01/2020 13:01:19	26012020	260120	130119	100.320	12.375700	-57.035558	100.260	-0.080	-0.830	1.010	100.300	-2.200	1.500																			1580043679.0	11.74	21.74
26/01/2020 13:01:20	26012020	260120	130120	100.310	12.375690	-57.035507	100.350	0.030	-0.400	0.930	100.310	-2.000	1.400																			1580043680.0	11.43	21.17
26/01/2020 13:01:21	26012020	260120	130121	100.450	12.375678	-57.035457	100.470	-0.100	0.310	0.720	100.450	-1.300	1.200																			1580043681.0	10.62	19.67
26/01/2020 13:01:22	26012020	260120	130122	100.570	12.375668	-57.035408	100.540	-0.210	0.640	0.520	100.570	-0.800	1.000																			1580043682.0	10.38	19.22
26/01/2020 13:01:23	26012020	260120	130123	100.680	12.375660	-57.035358	100.730	-0.100	0.440	0.320	100.680	-0.800	0.800																			1580043683.0	10.74	19.89
26/01/2020 13:01:24	26012020	260120	130124	100.930	12.375652	-57.035307	101.060	0.140	-0.020	0.110	100.930	-1.200	0.600																			1580043684.0	11.16	20.67
26/01/2020 13:01:25	26012020	260120	130125	101.310	12.375643	-57.035255	101.440	0.270	-0.320	0.050	101.310	-1.600	0.500																			1580043685.0	11.19	20.72
26/01/2020 13:01:26	26012020	260120	130126	101.600	12.375635	-57.035203	101.630	0.190	-0.400	0.360	101.600	-1.800	0.600																			1580043686.0	10.83	20.06
26/01/2020 13:01:27	26012020	260120	130127	101.650	12.375623	-57.035155	101.570	0.070	-0.540	0.880	101.650	-1.900	1.100																			1580043687.0	10.60	19.63
26/01/2020 13:01:28	26012020	260120	130128	101.510	12.375612	-57.035105	101.430	0.060	-0.800	1.150	101.510	-2.100	1.500																			1580043688.0	10.81	20.02
26/01/2020 13:01:29	26012020	260120	130129	101.340	12.375602	-57.035055	101.210	0.070	-0.920	1.190	101.340	-2.300	1.600																			1580043689.0	11.05	20.46
26/01/2020 13:01:30	26012020	260120	130130	101.090	12.375590	-57.035003	100.980	0.010	-0.690	1.220	101.090	-2.200	1.600																			1580043690.0	11.01	20.39
26/01/2020 13:01:31	26012020	260120	130131	100.920	12.375580	-57.034953	100.850	-0.120	-0.270	1.140	100.900	-1.800	1.600																			1580043691.0	10.77	19.95
26/01/2020 13:01:32	26012020	260120	130132	100.840	12.375570	-57.034903	100.830	-0.160	-0.050	0.910	100.840	-1.500	1.400																			1580043692.0	10.73	19.87
26/01/2020 13:01:33	26012020	260120	130133	100.860	12.375560	-57.034853	100.890	-0.070	-0.010	0.640	100.860	-1.400	1.200																			1580043693.0	11.06	20.48
26/01/2020 13:01:34	26012020	260120	130134	100.980	12.375550	-57.034800	101.070	0.030	0.080	0.390	100.980	-1.400	0.900																			1580043694.0	11.20	20.74
26/01/2020 13:01:35	26012020	260120	130135	101.210	12.375540	-57.034750	101.300	0.020	0.290	0.260	101.210	-1.200	0.700																			1580043695.0	10.98	20.33
26/01/2020 13:01:36	26012020	260120	130136	101.460	12.375532	-57.034700	101.530	-0.050	0.310	0.220	101.460	-1.000	0.600																			1580043696.0	10.69	19.80
26/01/2020 13:01:37	26012020	260120	130137	101.660	12.375522	-57.034650	101.690	-0.010	-0.080	0.330	101.660	-1.300	0.700																			1580043697.0	10.82	20.04
26/01/2020 13:01:38	26012020	260120	130138	101.790	12.375512	-57.034598	101.800	0.100	-0.500	0.630	101.790	-1.800	0.900																			1580043698.0	11.25	20.84
26/01/2020 13:01:39	26012020	260120	130139	101.870	12.375500	-57.034547	101.900	0.050	-0.470	0.840	101.870	-1.900	1.200																			1580043699.0	11.08	20.52
26/01/2020 13:01:40	26012020	260120	130140	101.970	12.375488	-57.034498	102.010	-0.120	-0.300	0.850	101.970	-1.700	1.300																			1580043700.0	10.50	19.45
26/01/2020 13:01:41	26012020	260120	130141	102.000	12.375478	-57.034450	101.900	-0.140	-0.440	0.950	102.000	-1.700	1.300																			1580043701.0	10.50	19.45
26/01/2020 13:01:42	26012020	260120	130142	101.780	12.375467	-57.034398	101.610	-0.020	-0.690	1.070	101.780	-2.000	1.400																			1580043702.0	11.00	20.37
26/01/2020 13:01:43	26012020	260120	130143	101.510	12.375455	-57.034348	101.410	0.050	-0.670	1.010	101.510	-2.100	1.500																			1580043703.0	11.16	20.67
26/01/2020 13:01:44	26012020	260120	130144	101.400	12.375445	-57.034297	101.380	0.040	-0.340	0.810	101.400	-1.900	1.300																			1580043704.0	10.87	20.13
26/01/2020 13:01:45	26012020	260120	130145	101.420	12.375435	-57.034248	101.410	0.050	-0.050	0.470	101.430	-1.500	1.000																			1580043705.0	10.66	19.74
26/01/2020 13:01:46	26012020	260120	130146	101.450	12.375425	-57.034197	101.400	0.180	-0.060	0.210	101.450	-1.400	0.700																			1580043706.0	10.81	20.02
26/01/2020 13:01:47	26012020	260120	130147	101.410	12.375417	-57.034145	101.360	0.370	-0.220	0.210	101.410	-1.600	0.600																			1580043707.0	11.18	20.71
26/01/2020 13:01:48	26012020	260120	130148	101.420	12.375407	-57.034093	101.460	0.370	-0.220	0.410	101.420	-1.600	0.700																			1580043708.0	11.27	20.87
26/01/2020 13:01:49	26012020	260120	130149	101.560	12.375397	-57.034042	101.620	0.090	-0.010	0.700	101.560	-1.500	1.000																			1580043709.0	10.96	20.30
26/01/2020 13:01:50	26012020	260120	130150	101.660	12.375385	-57.033993	101.660	-0.270	0.170	1.000	101.660	-1.300	1.300																			1580043710.0	10.65	19.72
26/01/2020 13:01:51	26012020	260120	130151	101.610	12.375373	-57.033943	101.590	-0.460	0.030	1.250	101.610	-1.300	1.600																			1580043711.0	10.70	19.82
26/01/2020 13:01:52	26012020	260120	130152	101.550	12.375362	-57.033893	101.590	-0.420	-0.290	1.340	101.550	-1.600	1.800																			1580043712.0	11.03	20.43
26/01/2020 13:01:53	26012020	260120	130153	101.640	12.375348	-57.033842	101.740	-0.240	-0.510	1.110	101.640	-1.900	1.600																			1580043713.0	11.13	20.61
26/01/2020 13:01:54	26012020	260120	130154	101.780	12.375338	-57.033792	101.790	-0.060	-0.510	0.840	101.780	-1.900	1.300																			1580043714.0	10.95	20.28
26/01/2020 13:01:55	26012020	260120	130155	101.760	12.375327	-57.033742	101.720	0.070	-0.380	0.720	101.760	-1.800	1.200																			1580043715.0	10.77	19.95
26/01/2020 13:01:56	26012020	260120	130156	101.710	12.375317	-57.033692	101.700	0.130	-0.200	0.590	101.710	-1.700	1.100																			1580043716.0	10.69	19.80
26/01/2020 13:01:57	26012020	260120	130157	101.700	12.375308	-57.033643	101.690	0.160	-0.120	0.390	101.700	-1.500	0.900																			1580043717.0	10.68	19.78
26/01/2020 13:01:58	26012020	260120	130158	101.700	12.375298	-57.033592	101.670	0.260	-0.260	0.290	101.700	-1.600	0.700																			1580043718.0	10.83	20.06
26/01/2020 13:01:59	26012020	260120	130159	101.680	12.375290	-57.033540	101.660	0.440	-0.510	0.310	101.680	-1.800	0.700																			1580043719.0	11.11	20.58
26/01/2020 13:02:00	26012020	260120	130200	101.660	12.375280	-57.033488	101.610	0.510	-0.560	0.520	101.660	-2.000	0.800	1016.50	26.10	26.20	18.20	18.40	479.00	61.00	62.00	376.00	27.30	349.00	11.50	79.00	6.10	35906	3072.00	27.50	27.50	1580043720.0	11.26	20.85
26/01/2020 13:02:01	26012020	260120	130201	101.600	12.375270	-57.033437	101.580	0.300	-0.290	0.830	101.600	-1.800	1.100																			1580043721.0	11.02	20.41
26/01/2020 13:02:02	26012020	260120	130202	101.590	12.375258	-57.033388	101.640	-0.140	0.110	1.050	101.590	-1.400	1.400																			1580043722.0	10.67	19.76
26/01/2020 13:02:03	26012020	260120	130203	101.660	12.375248	-57.033340	101.700	-0.560	0.290	1.200	101.660	-1.100	1.600																			1580043723.0	10.53	19.50
26/01/2020 13:02:04	26012020	260120	130204	101.680	12.375235	-57.033290	101.650	-0.670	-0.030	1.270	101.680	-1.300	1.700																			1580043724.0	10.79	19.98
26/01/2020 13:02:05	26012020	260120	130205	101.550	12.375223	-57.033238	101.470	-0.380	-0.590	1.230	101.550	-1.800	1.700																			1580043725.0	11.35	21.02
26/01/2020 13:02:06	26012020	260120	130206	101.390	12.375210	-57.033185	101.390	-0.040	-0.700	0.970	101.390	-2.100	1.500																			1580043726.0	11.55	21.39
26/01/2020 13:02:07	26012020	260120	130207	101.440	12.375200	-57.033133	101.540	-0.050	-0.200	0.600	101.440	-1.800	1.200																			1580043727.0	10.97	20.32
26/01/2020 13:02:08	26012020	260120	130208	101.670	12.375190	-57.033087	101.780	-0.240	0.310	0.270	101.670	-1.300	0.800																			1580043728.0	10.25	18.98
26/01/2020 13:02:09	26012020	260120	130209	101.880	12.375180	-57.033038	101.880	-0.140	0.220	0.170	101.880	-1.100	0.600																			1580043729.0	10.28	19.04
26/01/2020 13:02:10	26012020	260120	130210	101.920	12.375170	-57.032988	101.890	0.350	-0.360	0.220	101.920	-1.500	0.600																			1580043730.0	11.00	20.37
26/01/2020 13:02:11	26012020	260120	130211	101.930	12.375160	-57.032935	101.910	0.760	-0.720	0.260	101.930	-2.000	0.700																			1580043731.0	11.47	21.24
26/01/2020 13:02:12	26012020	260120	130212	101.930	12.375150	-57.032883	101.900	0.720	-0.570	0.380	101.930	-2.100	0.700																			1580043732.0	11.07	20.50
26/01/2020 13:02:13	26012020	260120	130213	101.870	12.375142	-57.032833	101.770	0.340	-0.310	0.640	101.870	-1.800	0.900																			1580043733.0	10.58	19.59
26/01/2020 13:02:14	26012020	260120	130214	101.700	12.375132	-57.032785	101.630	-0.070	-0.270	1.010	101.700	-1.700	1.300																			1580043734.0	10.63	19.69
26/01/2020 13:02:15	26012020	260120	130215	101.580	12.375120	-57.032735	101.540	-0.360	-0.340	1.360	101.580	-1.700	1.700																			1580043735.0	10.98	20.33
26/01/2020 13:02:16	26012020	260120	130216	101.490	12.375107	-57.032683	101.400	-0.520	-0.300	1.500	101.490	-1.700	1.900																			1580043736.0	11.14	20.63
26/01/2020 13:02:17	26012020	260120	130217	101.310	12.375092	-57.032633	101.240	-0.570	-0.100	1.470	101.310	-1.600	1.900																			1580043737.0	11.01	20.39
26/01/2020 13:02:18	26012020	260120	130218	101.190	12.375080	-57.032583	101.210	-0.520	0.140	1.220	101.190	-1.300	1.800																			1580043738.0	10.82	20.04
26/01/2020 13:02:19	26012020	260120	130219	101.270	12.375068	-57.032535	101.350	-0.330	0.160	0.740	101.270	-1.200	1.300																			1580043739.0	10.73	19.87
26/01/2020 13:02:20	26012020	260120	130220	101.430	12.375060	-57.032483	101.470	0.030	-0.100	0.400	101.430	-1.400	0.900																			1580043740.0	10.93	20.24
26/01/2020 13:02:21	26012020	260120	130221	101.530	12.375050	-57.032432	101.530	0.420	-0.340	0.280	101.530	-1.700	0.700																			1580043741.0	11.17	20.69
26/01/2020 13:02:22	26012020	260120	130222	101.590	12.375040	-57.032380	101.590	0.610	-0.360	0.260	101.590	-1.800	0.700																			1580043742.0	11.01	20.39
26/01/2020 13:02:23	26012020	260120	130223	101.660	12.375032	-57.032330	101.660	0.590	-0.280	0.360	101.660	-1.700	0.700																			1580043743.0	10.71	19.83
26/01/2020 13:02:24	26012020	260120	130224	101.700	12.375022	-57.032282	101.680	0.490	-0.310	0.590	101.700	-1.700	0.900																			1580043744.0	10.63	19.69
26/01/2020 13:02:25	26012020	260120	130225	101.640	12.375012	-57.032230	101.560	0.330	-0.490	0.830	101.640	-1.800	1.200																			1580043745.0	10.85	20.09
26/01/2020 13:02:26	26012020	260120	130226	101.520	12.375002	-57.032180	101.450	-0.010	-0.470	1.090	101.520	-1.900	1.400																			1580043746.0	11.02	20.41
26/01/2020 13:02:27	26012020	260120	130227	101.400	12.374990	-57.032130	101.320	-0.420	-0.300	1.340	101.400	-1.800	1.700																			1580043747.0	10.79	19.98
26/01/2020 13:02:28	26012020	260120	130228	101.260	12.374977	-57.032082	101.140	-0.600	-0.280	1.400	101.260	-1.700	1.800																			1580043748.0	10.73	19.87
26/01/2020 13:02:29	26012020	260120	130229	101.070	12.374965	-57.032030	100.980	-0.450	-0.440	1.390	101.070	-1.800	1.800																			1580043749.0	11.05	20.46
26/01/2020 13:02:30	26012020	260120	130230	100.930	12.374952	-57.031978	100.850	-0.220	-0.470	1.220	100.930	-1.900	1.700																			1580043750.0	11.33	20.98
26/01/2020 13:02:31	26012020	260120	130231	100.840	12.374942	-57.031927	100.770	-0.120	-0.150	0.910	100.840	-1.700	1.500																			1580043751.0	11.12	20.59
26/01/2020 13:02:32	26012020	260120	130232	100.810	12.374932	-57.031877	100.800	-0.120	0.250	0.570	100.810	-1.300	1.100																			1580043752.0	10.70	19.82
26/01/2020 13:02:33	26012020	260120	130233	100.920	12.374923	-57.031828	100.960	-0.040	0.310	0.380	100.920	-1.100	0.900																			1580043753.0	10.62	19.67
26/01/2020 13:02:34	26012020	260120	130234	101.100	12.374913	-57.031777	101.110	0.190	0.030	0.380	101.100	-1.200	0.800																			1580043754.0	10.96	20.30
26/01/2020 13:02:35	26012020	260120	130235	101.170	12.374903	-57.031725	101.170	0.450	-0.250	0.450	101.180	-1.600	0.800																			1580043755.0	11.17	20.69
26/01/2020 13:02:36	26012020	260120	130236	101.260	12.374893	-57.031673	101.280	0.570	-0.330	0.600	101.260	-1.700	1.000																			1580043756.0	11.02	20.41
26/01/2020 13:02:37	26012020	260120	130237	101.370	12.374883	-57.031623	101.370	0.460	-0.260	0.710	101.370	-1.700	1.100																			1580043757.0	10.75	19.91
26/01/2020 13:02:38	26012020	260120	130238	101.440	12.374875	-57.031575	101.400	0.140	-0.200	0.800	101.440	-1.600	1.200																			1580043758.0	10.56	19.56
26/01/2020 13:02:39	26012020	260120	130239	101.390	12.374865	-57.031527	101.300	-0.220	-0.300	1.090	101.390	-1.600	1.400																			1580043759.0	10.56	19.56
26/01/2020 13:02:40	26012020	260120	130240	101.210	12.374853	-57.031477	101.070	-0.400	-0.650	1.390	101.210	-1.900	1.700																			1580043760.0	10.80	20.00
26/01/2020 13:02:41	26012020	260120	130241	100.930	12.374840	-57.031425	100.760	-0.290	-1.000	1.530	100.930	-2.300	1.900																			1580043761.0	11.22	20.78
26/01/2020 13:02:42	26012020	260120	130242	100.590	12.374828	-57.031373	100.400	-0.080	-0.990	1.510	100.590	-2.400	2.000																			1580043762.0	11.37	21.06
26/01/2020 13:02:43	26012020	260120	130243	100.260	12.374817	-57.031322	100.140	0.060	-0.550	1.200	100.260	-2.200	1.800																			1580043763.0	11.14	20.63
26/01/2020 13:02:44	26012020	260120	130244	100.140	12.374808	-57.031272	100.120	0.030	0.160	0.770	100.140	-1.500	1.300																			1580043764.0	10.78	19.96
26/01/2020 13:02:45	26012020	260120	130245	100.230	12.374800	-57.031222	100.310	-0.080	0.640	0.540	100.230	-0.900	1.000																			1580043765.0	10.55	19.54
26/01/2020 13:02:46	26012020	260120	130246	100.510	12.374792	-57.031172	100.660	-0.140	0.620	0.430	100.510	-0.700	0.900																			1580043766.0	10.74	19.89
26/01/2020 13:02:47	26012020	260120	130247	100.840	12.374780	-57.031120	100.940	-0.090	0.260	0.550	100.840	-1.000	0.900																			1580043767.0	11.10	20.56
26/01/2020 13:02:48	26012020	260120	130248	101.060	12.374770	-57.031068	101.100	0.020	-0.030	0.720	101.060	-1.300	1.100																			1580043768.0	11.15	20.65
26/01/2020 13:02:49	26012020	260120	130249	101.200	12.374760	-57.031018	101.220	0.120	-0.270	0.820	101.200	-1.600	1.200																			1580043769.0	10.86	20.11
26/01/2020 13:02:50	26012020	260120	130250	101.270	12.374752	-57.030968	101.210	0.240	-0.700	0.850	101.270	-1.900	1.300																			1580043770.0	10.79	19.98
26/01/2020 13:02:51	26012020	260120	130251	101.150	12.374742	-57.030917	100.990	0.320	-1.000	0.940	101.150	-2.300	1.300																			1580043771.0	11.11	20.58
26/01/2020 13:02:52	26012020	260120	130252	100.890	12.374732	-57.030865	100.740	0.190	-0.780	1.020	100.890	-2.300	1.400																			1580043772.0	10.99	20.35
26/01/2020 13:02:53	26012020	260120	130253	100.680	12.374722	-57.030817	100.630	-0.100	-0.290	0.970	100.680	-1.900	1.400																			1580043773.0	10.53	19.50
26/01/2020 13:02:54	26012020	260120	130254	100.640	12.374712	-57.030768	100.580	-0.360	0.000	0.850	100.640	-1.500	1.300																			1580043774.0	10.44	19.33
26/01/2020 13:02:55	26012020	260120	130255	100.580	12.374702	-57.030718	100.480	-0.360	-0.070	0.730	100.580	-1.400	1.200																			1580043775.0	10.75	19.91
26/01/2020 13:02:56	26012020	260120	130256	100.450	12.374692	-57.030667	100.320	-0.050	-0.350	0.640	100.450	-1.600	1.100																			1580043776.0	11.19	20.72
26/01/2020 13:02:57	26012020	260120	130257	100.310	12.374682	-57.030613	100.260	0.350	-0.520	0.550	100.310	-1.900	1.000																			1580043777.0	11.29	20.91
26/01/2020 13:02:58	26012020	260120	130258	100.340	12.374672	-57.030562	100.400	0.490	-0.320	0.490	100.340	-1.800	0.900																			1580043778.0	11.29	20.91
26/01/2020 13:02:59	26012020	260120	130259	100.530	12.374663	-57.030510	100.610	0.230	0.150	0.520	100.530	-1.400	0.900																			1580043779.0	10.83	20.06
26/01/2020 13:03:00	26012020	260120	130300	100.740	12.374655	-57.030462	100.810	-0.180	0.500	0.610	100.740	-1.000	1.000	1016.50	26.20	26.20	18.10	18.20	481.00	61.00	61.00	375.00	27.30	348.00	11.00	76.00	5.70	36092	3237.00	27.50	27.50	1580043780.0	10.41	19.28
26/01/2020 13:03:01	26012020	260120	130301	100.920	12.374645	-57.030413	100.970	-0.430	0.300	0.820	100.920	-1.000	1.100																			1580043781.0	10.52	19.48
26/01/2020 13:03:02	26012020	260120	130302	101.040	12.374633	-57.030363	101.040	-0.400	-0.290	1.200	101.040	-1.400	1.500																			1580043782.0	11.02	20.41
26/01/2020 13:03:03	26012020	260120	130303	101.020	12.374620	-57.030310	100.950	-0.200	-0.770	1.580	101.020	-2.000	1.900																			1580043783.0	11.35	21.02
26/01/2020 13:03:04	26012020	260120	130304	100.870	12.374608	-57.030260	100.780	0.000	-0.790	1.620	100.870	-2.200	2.100																			1580043784.0	11.18	20.71
26/01/2020 13:03:05	26012020	260120	130305	100.710	12.374598	-57.030210	100.620	0.090	-0.510	1.380	100.710	-2.000	1.900																			1580043785.0	10.74	19.89
26/01/2020 13:03:06	26012020	260120	130306	100.600	12.374590	-57.030160	100.530	0.100	-0.250	0.980	100.600	-1.700	1.600																			1580043786.0	10.56	19.56
26/01/2020 13:03:07	26012020	260120	130307	100.560	12.374583	-57.030110	100.530	0.150	-0.180	0.590	100.560	-1.600	1.100																			1580043787.0	10.74	19.89
26/01/2020 13:03:08	26012020	260120	130308	100.560	12.374575	-57.030058	100.500	0.230	-0.210	0.450	100.560	-1.600	0.900																			1580043788.0	10.98	20.33
26/01/2020 13:03:09	26012020	260120	130309	100.530	12.374567	-57.030007	100.480	0.270	-0.270	0.510	100.530	-1.600	0.900																			1580043789.0	11.08	20.52
26/01/2020 13:03:10	26012020	260120	130310	100.540	12.374558	-57.029955	100.560	0.260	-0.280	0.710	100.540	-1.700	1.100																			1580043790.0	11.08	20.52
26/01/2020 13:03:11	26012020	260120	130311	100.620	12.374548	-57.029903	100.630	0.150	-0.260	0.920	100.640	-1.700	1.300																			1580043791.0	11.05	20.46
26/01/2020 13:03:12	26012020	260120	130312	100.700	12.374538	-57.029853	100.710	-0.100	-0.170	1.090	100.700	-1.600	1.400																			1580043792.0	11.03	20.43
26/01/2020 13:03:13	26012020	260120	130313	100.800	12.374527	-57.029803	100.880	-0.450	0.100	1.190	100.800	-1.400	1.600																			1580043793.0	10.88	20.15
26/01/2020 13:03:14	26012020	260120	130314	101.040	12.374517	-57.029753	101.170	-0.730	0.370	1.000	101.040	-1.100	1.500																			1580043794.0	10.54	19.52
26/01/2020 13:03:15	26012020	260120	130315	101.340	12.374507	-57.029705	101.390	-0.650	0.180	0.750	101.340	-1.100	1.300																			1580043795.0	10.49	19.43
26/01/2020 13:03:16	26012020	260120	130316	101.420	12.374495	-57.029655	101.300	-0.150	-0.490	0.600	101.420	-1.600	1.100																			1580043796.0	11.03	20.43
26/01/2020 13:03:17	26012020	260120	130317	101.230	12.374485	-57.029602	101.140	0.420	-0.970	0.390	101.230	-2.200	0.900																			1580043797.0	11.52	21.34
26/01/2020 13:03:18	26012020	260120	130318	101.190	12.374477	-57.029548	101.230	0.650	-0.740	0.210	101.190	-2.300	0.700																			1580043798.0	11.25	20.84
26/01/2020 13:03:19	26012020	260120	130319	101.340	12.374470	-57.029500	101.350	0.450	-0.140	0.210	101.340	-1.800	0.600																			1580043799.0	10.50	19.45
26/01/2020 13:03:20	26012020	260120	130320	101.360	12.374463	-57.029452	101.230	0.140	0.060	0.370	101.360	-1.300	0.700																			1580043800.0	10.22	18.93
26/01/2020 13:03:21	26012020	260120	130321	101.150	12.374453	-57.029402	101.000	0.110	-0.350	0.780	101.150	-1.500	1.000																			1580043801.0	11.54	21.37
26/01/2020 13:03:22	26012020	260120	130322	100.930	12.374442	-57.029348	100.850	0.300	-0.820	1.130	100.930	-2.100	1.500																			1580043802.0	11.54	21.37
26/01/2020 13:03:23	26012020	260120	130323	100.830	12.374430	-57.029295	100.810	0.250	-0.730	1.190	100.830	-2.200	1.600																			1580043803.0	11.60	21.48
26/01/2020 13:03:24	26012020	260120	130324	100.840	12.374420	-57.029243	100.870	-0.220	-0.040	1.280	100.840	-1.700	1.600																			1580043804.0	10.95	20.28
26/01/2020 13:03:25	26012020	260120	130325	100.900	12.374410	-57.029197	100.980	-0.760	0.640	1.430	100.930	-1.000	1.800																			1580043805.0	10.29	19.06
26/01/2020 13:03:26	26012020	260120	130326	101.050	12.374397	-57.029148	101.110	-0.920	0.690	1.260	101.050	-0.600	1.800																			1580043806.0	10.34	19.15
26/01/2020 13:03:27	26012020	260120	130327	101.170	12.374387	-57.029098	101.210	-0.620	0.150	1.030	101.170	-1.000	1.500																			1580043807.0	10.97	20.32
26/01/2020 13:03:28	26012020	260120	130328	101.300	12.374375	-57.029045	101.340	-0.160	-0.420	0.880	101.300	-1.600	1.400																			1580043808.0	11.45	21.21
26/01/2020 13:03:29	26012020	260120	130329	101.480	12.374365	-57.028993	101.550	0.140	-0.570	0.660	101.480	-2.000	1.200																			1580043809.0	11.26	20.85
26/01/2020 13:03:30	26012020	260120	130330	101.700	12.374357	-57.028943	101.740	0.260	-0.420	0.470	101.700	-1.900	0.900																			1580043810.0	10.66	19.74
26/01/2020 13:03:31	26012020	260120	130331	101.840	12.374348	-57.028895	101.780	0.440	-0.380	0.390	101.840	-1.800	0.800																			1580043811.0	10.44	19.33
26/01/2020 13:03:32	26012020	260120	130332	101.830	12.374340	-57.028845	101.700	0.720	-0.530	0.370	101.830	-1.900	0.800																			1580043812.0	10.72	19.85
26/01/2020 13:03:33	26012020	260120	130333	101.760	12.374332	-57.028793	101.650	0.870	-0.620	0.350	101.760	-2.000	0.800																			1580043813.0	11.03	20.43
26/01/2020 13:03:34	26012020	260120	130334	101.710	12.374325	-57.028742	101.570	0.660	-0.530	0.560	101.710	-2.000	0.900																			1580043814.0	10.99	20.35
26/01/2020 13:03:35	26012020	260120	130335	101.590	12.374315	-57.028692	101.450	0.180	-0.340	0.940	101.590	-1.800	1.200																			1580043815.0	10.83	20.06
26/01/2020 13:03:36	26012020	260120	130336	101.490	12.374305	-57.028642	101.400	-0.330	-0.180	1.260	101.490	-1.600	1.600																			1580043816.0	10.79	19.98
26/01/2020 13:03:37	26012020	260120	130337	101.420	12.374293	-57.028592	101.290	-0.690	-0.130	1.570	101.420	-1.500	1.900																			1580043817.0	10.94	20.26
26/01/2020 13:03:38	26012020	260120	130338	101.290	12.374280	-57.028540	101.220	-0.860	-0.120	1.610	101.290	-1.500	2.100																			1580043818.0	11.12	20.59
26/01/2020 13:03:39	26012020	260120	130339	101.280	12.374267	-57.028490	101.280	-0.830	-0.030	1.360	101.280	-1.500	1.900																			1580043819.0	11.13	20.61
26/01/2020 13:03:40	26012020	260120	130340	101.410	12.374255	-57.028438	101.470	-0.620	0.090	0.990	101.410	-1.300	1.600																			1580043820.0	10.97	20.32
26/01/2020 13:03:41	26012020	260120	130341	101.650	12.374243	-57.028388	101.730	-0.270	0.170	0.480	101.650	-1.300	1.100																			1580043821.0	10.86	20.11
26/01/2020 13:03:42	26012020	260120	130342	101.990	12.374235	-57.028338	102.050	0.140	0.110	0.060	101.990	-1.200	0.600																			1580043822.0	10.81	20.02
26/01/2020 13:03:43	26012020	260120	130343	102.280	12.374227	-57.028288	102.280	0.540	-0.100	-0.160	102.280	-1.400	0.300																			1580043823.0	10.83	20.06
26/01/2020 13:03:44	26012020	260120	130344	102.440	12.374218	-57.028237	102.340	0.830	-0.290	-0.220	102.440	-1.600	0.200																			1580043824.0	10.90	20.19
26/01/2020 13:03:45	26012020	260120	130345	102.420	12.374210	-57.028187	102.300	0.840	-0.370	0.000	102.420	-1.700	0.300																			1580043825.0	10.78	19.96
26/01/2020 13:03:46	26012020	260120	130346	102.400	12.374203	-57.028137	102.370	0.570	-0.510	0.340	102.400	-1.800	0.600																			1580043826.0	10.68	19.78
26/01/2020 13:03:47	26012020	260120	130347	102.460	12.374193	-57.028087	102.390	0.150	-0.650	0.720	102.460	-2.000	1.000																			1580043827.0	10.78	19.96
26/01/2020 13:03:48	26012020	260120	130348	102.370	12.374180	-57.028037	102.170	-0.220	-0.730	1.220	102.370	-2.100	1.400																			1580043828.0	10.85	20.09
26/01/2020 13:03:49	26012020	260120	130349	102.040	12.374167	-57.027987	101.820	-0.360	-0.700	1.590	102.040	-2.100	1.900																			1580043829.0	10.93	20.24
26/01/2020 13:03:50	26012020	260120	130350	101.700	12.374153	-57.027937	101.560	-0.250	-0.530	1.540	101.700	-2.000	2.000																			1580043830.0	11.01	20.39
26/01/2020 13:03:51	26012020	260120	130351	101.500	12.374142	-57.027887	101.420	-0.100	-0.320	1.260	101.500	-1.800	1.800																			1580043831.0	11.02	20.41
26/01/2020 13:03:52	26012020	260120	130352	101.430	12.374133	-57.027835	101.410	-0.160	-0.050	0.930	101.430	-1.500	1.500																			1580043832.0	11.06	20.48
26/01/2020 13:03:53	26012020	260120	130353	101.490	12.374123	-57.027783	101.530	-0.380	0.220	0.670	101.490	-1.300	1.200																			1580043833.0	10.94	20.26
26/01/2020 13:03:54	26012020	260120	130354	101.650	12.374113	-57.027733	101.720	-0.440	0.320	0.590	101.650	-1.100	1.000																			1580043834.0	10.84	20.08
26/01/2020 13:03:55	26012020	260120	130355	101.870	12.374102	-57.027683	101.960	-0.230	0.190	0.610	101.870	-1.100	1.000																			1580043835.0	10.98	20.33
26/01/2020 13:03:56	26012020	260120	130356	102.120	12.374090	-57.027632	102.210	0.110	0.040	0.580	102.120	-1.300	1.000																			1580043836.0	11.08	20.52
26/01/2020 13:03:57	26012020	260120	130357	102.350	12.374078	-57.027582	102.420	0.380	-0.060	0.570	102.350	-1.400	1.000																			1580043837.0	10.93	20.24
26/01/2020 13:03:58	26012020	260120	130358	102.530	12.374070	-57.027532	102.570	0.460	-0.120	0.670	102.530	-1.500	1.000																			1580043838.0	10.73	19.87
26/01/2020 13:03:59	26012020	260120	130359	102.660	12.374060	-57.027482	102.650	0.360	-0.270	0.720	102.660	-1.600	1.100																			1580043839.0	10.62	19.67
26/01/2020 13:04:00	26012020	260120	130400	102.680	12.374050	-57.027433	102.590	0.230	-0.560	0.740	102.680	-1.800	1.100	1016.50	26.20	26.20	18.10	18.20	475.00	61.00	61.00	375.00	27.40	347.00	11.20	76.00	5.90	35995	3103.00	27.40	27.40	1580043840.0	10.72	19.85
26/01/2020 13:04:01	26012020	260120	130401	102.590	12.374040	-57.027382	102.460	0.120	-0.700	0.800	102.570	-2.100	1.200																			1580043841.0	10.92	20.22
26/01/2020 13:04:02	26012020	260120	130402	102.430	12.374030	-57.027332	102.310	-0.030	-0.540	0.840	102.430	-2.000	1.300																			1580043842.0	10.77	19.95
26/01/2020 13:04:03	26012020	260120	130403	102.270	12.374020	-57.027283	102.190	-0.170	-0.400	0.780	102.270	-1.800	1.200																			1580043843.0	10.57	19.58
26/01/2020 13:04:04	26012020	260120	130404	102.200	12.374010	-57.027233	102.160	-0.180	-0.500	0.640	102.200	-1.800	1.100																			1580043844.0	10.80	20.00
26/01/2020 13:04:05	26012020	260120	130405	102.180	12.373998	-57.027182	102.140	-0.050	-0.680	0.550	102.180	-2.000	1.000																			1580043845.0	11.22	20.78
26/01/2020 13:04:06	26012020	260120	130406	102.140	12.373987	-57.027130	102.080	0.090	-0.550	0.490	102.140	-2.000	0.900																			1580043846.0	11.35	21.02
26/01/2020 13:04:07	26012020	260120	130407	102.110	12.373975	-57.027078	102.090	0.100	-0.030	0.290	102.110	-1.600	0.800																			1580043847.0	10.98	20.33
26/01/2020 13:04:08	26012020	260120	130408	102.150	12.373967	-57.027028	102.130	-0.010	0.370	0.110	102.150	-1.100	0.600																			1580043848.0	10.60	19.63
26/01/2020 13:04:09	26012020	260120	130409	102.230	12.373958	-57.026978	102.260	-0.130	0.310	0.030	102.230	-1.000	0.500																			1580043849.0	10.76	19.93
26/01/2020 13:04:10	26012020	260120	130410	102.420	12.373947	-57.026927	102.460	-0.220	-0.020	0.150	102.420	-1.300	0.500																			1580043850.0	11.18	20.71
26/01/2020 13:04:11	26012020	260120	130411	102.570	12.373935	-57.026875	102.550	-0.290	-0.120	0.540	102.570	-1.500	0.800																			1580043851.0	11.25	20.84
26/01/2020 13:04:12	26012020	260120	130412	102.590	12.373920	-57.026827	102.540	-0.360	0.100	0.870	102.590	-1.400	1.200																			1580043852.0	10.81	20.02
26/01/2020 13:04:13	26012020	260120	130413	102.590	12.373908	-57.026778	102.590	-0.310	0.090	0.820	102.590	-1.200	1.300																			1580043853.0	10.39	19.24
26/01/2020 13:04:14	26012020	260120	130414	102.690	12.373897	-57.026730	102.650	-0.020	-0.390	0.630	102.690	-1.600	1.100																			1580043854.0	10.74	19.89
26/01/2020 13:04:15	26012020	260120	130415	102.710	12.373887	-57.026677	102.610	0.350	-0.820	0.530	102.700	-2.100	1.000																			1580043855.0	11.26	20.85
26/01/2020 13:04:16	26012020	260120	130416	102.640	12.373877	-57.026625	102.530	0.490	-0.700	0.480	102.640	-2.200	0.900																			1580043856.0	11.13	20.61
26/01/2020 13:04:17	26012020	260120	130417	102.550	12.373867	-57.026577	102.460	0.380	-0.290	0.530	102.550	-1.800	0.900																			1580043857.0	10.54	19.52
26/01/2020 13:04:18	26012020	260120	130418	102.490	12.373855	-57.026528	102.450	0.240	-0.090	0.570	102.490	-1.500	1.000																			1580043858.0	10.38	19.22
26/01/2020 13:04:19	26012020	260120	130419	102.460	12.373845	-57.026480	102.360	0.240	-0.320	0.700	102.460	-1.600	1.000																			1580043859.0	10.73	19.87
26/01/2020 13:04:20	26012020	260120	130420	102.270	12.373835	-57.026427	102.080	0.360	-0.670	0.960	102.270	-1.900	1.300																			1580043860.0	11.27	20.87
26/01/2020 13:04:21	26012020	260120	130421	101.960	12.373823	-57.026375	101.850	0.320	-0.620	1.170	101.960	-2.100	1.500																			1580043861.0	11.44	21.19
26/01/2020 13:04:22	26012020	260120	130422	101.820	12.373812	-57.026323	101.830	-0.070	-0.080	1.320	101.820	-1.700	1.700																			1580043862.0	10.95	20.28
26/01/2020 13:04:23	26012020	260120	130423	101.900	12.373802	-57.026275	101.950	-0.590	0.350	1.340	101.900	-1.100	1.800																			1580043863.0	10.42	19.30
26/01/2020 13:04:24	26012020	260120	130424	102.040	12.373788	-57.026227	102.050	-0.810	0.230	1.260	102.040	-1.000	1.700																			1580043864.0	10.61	19.65
26/01/2020 13:04:25	26012020	260120	130425	102.130	12.373777	-57.026175	102.140	-0.560	-0.230	1.080	102.130	-1.400	1.600																			1580043865.0	11.21	20.76
26/01/2020 13:04:26	26012020	260120	130426	102.250	12.373763	-57.026123	102.270	-0.170	-0.410	0.850	102.250	-1.800	1.400																			1580043866.0	11.45	21.21
26/01/2020 13:04:27	26012020	260120	130427	102.340	12.373752	-57.026072	102.310	0.030	-0.150	0.560	102.340	-1.700	1.100																			1580043867.0	10.97	20.32
26/01/2020 13:04:28	26012020	260120	130428	102.370	12.373743	-57.026023	102.310	0.140	0.050	0.230	102.370	-1.400	0.800																			1580043868.0	10.44	19.33
26/01/2020 13:04:29	26012020	260120	130429	102.340	12.373735	-57.025975	102.270	0.360	-0.290	0.080	102.340	-1.500	0.500																			1580043869.0	10.64	19.71
26/01/2020 13:04:30	26012020	260120	130430	102.330	12.373727	-57.025922	102.300	0.530	-0.670	0.180	102.330	-2.000	0.500																			1580043870.0	11.30	20.93
26/01/2020 13:04:31	26012020	260120	130431	102.340	12.373715	-57.025870	102.280	0.390	-0.510	0.510	102.340	-2.000	0.800																			1580043871.0	11.17	20.69
26/01/2020 13:04:32	26012020	260120	130432	102.260	12.373703	-57.025822	102.120	0.080	-0.100	0.870	102.260	-1.600	1.200																			1580043872.0	10.51	19.46
26/01/2020 13:04:33	26012020	260120	130433	102.060	12.373693	-57.025773	101.970	-0.090	-0.040	1.120	102.060	-1.400	1.500																			1580043873.0	10.42	19.30
26/01/2020 13:04:34	26012020	260120	130434	101.990	12.373682	-57.025723	101.990	-0.110	-0.270	1.170	101.990	-1.600	1.600																			1580043874.0	10.97	20.32
26/01/2020 13:04:35	26012020	260120	130435	102.020	12.373668	-57.025672	101.970	-0.170	-0.320	1.120	102.020	-1.700	1.600																			1580043875.0	11.18	20.71
26/01/2020 13:04:36	26012020	260120	130436	101.960	12.373657	-57.025622	101.870	-0.260	-0.120	1.030	101.960	-1.600	1.500																			1580043876.0	10.87	20.13
26/01/2020 13:04:37	26012020	260120	130437	101.920	12.373647	-57.025573	101.870	-0.220	0.030	0.810	101.920	-1.400	1.300																			1580043877.0	10.61	19.65
26/01/2020 13:04:38	26012020	260120	130438	101.960	12.373637	-57.025523	101.920	0.010	-0.160	0.540	101.960	-1.400	1.100																			1580043878.0	10.71	19.83
26/01/2020 13:04:39	26012020	260120	130439	102.010	12.373627	-57.025472	101.970	0.280	-0.500	0.470	102.010	-1.800	0.900																			1580043879.0	11.13	20.61
26/01/2020 13:04:40	26012020	260120	130440	102.040	12.373617	-57.025420	101.980	0.370	-0.580	0.570	102.040	-2.000	0.900																			1580043880.0	11.18	20.71
26/01/2020 13:04:41	26012020	260120	130441	102.020	12.373605	-57.025370	101.950	0.290	-0.430	0.780	102.020	-1.900	1.100																			1580043881.0	10.88	20.15
26/01/2020 13:04:42	26012020	260120	130442	101.950	12.373595	-57.025320	101.850	0.110	-0.270	1.020	101.950	-1.700	1.300																			1580043882.0	10.75	19.91
26/01/2020 13:04:43	26012020	260120	130443	101.840	12.373583	-57.025270	101.730	-0.150	-0.120	1.230	101.840	-1.600	1.600																			1580043883.0	10.78	19.96
26/01/2020 13:04:44	26012020	260120	130444	101.700	12.373572	-57.025220	101.600	-0.400	-0.040	1.350	101.700	-1.400	1.800																			1580043884.0	10.78	19.96
26/01/2020 13:04:45	26012020	260120	130445	101.560	12.373562	-57.025170	101.480	-0.500	-0.100	1.300	101.560	-1.400	1.800																			1580043885.0	10.86	20.11
26/01/2020 13:04:46	26012020	260120	130446	101.480	12.373550	-57.025120	101.430	-0.420	-0.290	1.130	101.480	-1.600	1.600																			1580043886.0	11.05	20.46
26/01/2020 13:04:47	26012020	260120	130447	101.460	12.373538	-57.025068	101.450	-0.220	-0.420	0.840	101.460	-1.800	1.400																			1580043887.0	11.16	20.67
26/01/2020 13:04:48	26012020	260120	130448	101.520	12.373528	-57.025017	101.510	0.010	-0.260	0.680	101.520	-1.700	1.100																			1580043888.0	11.04	20.45
26/01/2020 13:04:49	26012020	260120	130449	101.560	12.373517	-57.024967	101.540	0.200	0.050	0.670	101.560	-1.400	1.100																			1580043889.0	10.68	19.78
26/01/2020 13:04:50	26012020	260120	130450	101.590	12.373507	-57.024918	101.550	0.330	0.130	0.610	101.590	-1.300	1.100																			1580043890.0	10.57	19.58
26/01/2020 13:04:51	26012020	260120	130451	101.600	12.373498	-57.024868	101.560	0.460	-0.130	0.570	101.600	-1.400	1.000																			1580043891.0	10.81	20.02
26/01/2020 13:04:52	26012020	260120	130452	101.620	12.373490	-57.024817	101.630	0.540	-0.450	0.590	101.620	-1.700	1.000																			1580043892.0	11.15	20.65
26/01/2020 13:04:53	26012020	260120	130453	101.720	12.373480	-57.024765	101.760	0.420	-0.380	0.720	101.720	-1.900	1.100																			1580043893.0	11.09	20.54
26/01/2020 13:04:54	26012020	260120	130454	101.840	12.373472	-57.024715	101.840	0.090	-0.170	0.980	101.840	-1.600	1.300																			1580043894.0	10.57	19.58
26/01/2020 13:04:55	26012020	260120	130455	101.830	12.373460	-57.024667	101.680	-0.190	-0.370	1.380	101.830	-1.600	1.600																			1580043895.0	10.52	19.48
26/01/2020 13:04:56	26012020	260120	130456	101.540	12.373448	-57.024615	101.330	-0.270	-0.770	1.670	101.540	-2.000	2.000																			1580043896.0	11.15	20.65
26/01/2020 13:04:57	26012020	260120	130457	101.220	12.373435	-57.024563	101.060	-0.270	-0.810	1.640	101.220	-2.200	2.100																			1580043897.0	11.39	21.09
26/01/2020 13:04:58	26012020	260120	130458	101.050	12.373423	-57.024512	100.980	-0.300	-0.390	1.420	101.050	-2.000	1.900																			1580043898.0	11.03	20.43
26/01/2020 13:04:59	26012020	260120	130459	101.070	12.373413	-57.024463	101.060	-0.380	0.080	1.030	101.070	-1.500	1.600																			1580043899.0	10.63	19.69
26/01/2020 13:05:00	26012020	260120	130500	101.160	12.373403	-57.024413	101.130	-0.380	0.240	0.700	101.160	-1.200	1.200	1016.50	26.20	26.20	18.40	18.50	469.00	62.00	62.00	376.00	27.40	345.00	10.90	72.00	5.60	35903	3110.00	27.40	27.40	1580043900.0	10.68	19.78
26/01/2020 13:05:01	26012020	260120	130501	101.240	12.373393	-57.024363	101.190	-0.200	0.160	0.500	101.240	-1.200	1.000																			1580043901.0	10.95	20.28
26/01/2020 13:05:02	26012020	260120	130502	101.300	12.373385	-57.024312	101.230	0.120	-0.010	0.420	101.300	-1.300	0.900																			1580043902.0	11.10	20.56
26/01/2020 13:05:03	26012020	260120	130503	101.380	12.373375	-57.024260	101.360	0.350	-0.110	0.470	101.380	-1.500	0.900																			1580043903.0	11.11	20.58
26/01/2020 13:05:04	26012020	260120	130504	101.520	12.373365	-57.024208	101.530	0.310	-0.110	0.550	101.520	-1.500	0.900																			1580043904.0	10.87	20.13
26/01/2020 13:05:05	26012020	260120	130505	101.650	12.373357	-57.024160	101.670	0.180	-0.240	0.670	101.670	-1.600	1.000																			1580043905.0	10.67	19.76
26/01/2020 13:05:06	26012020	260120	130506	101.780	12.373347	-57.024108	101.720	0.200	-0.560	0.840	101.780	-1.800	1.200																			1580043906.0	10.85	20.09
26/01/2020 13:05:07	26012020	260120	130507	101.750	12.373337	-57.024058	101.620	0.230	-0.720	1.010	101.750	-2.100	1.400																			1580043907.0	11.12	20.59
26/01/2020 13:05:08	26012020	260120	130508	101.590	12.373325	-57.024007	101.440	0.110	-0.510	1.070	101.590	-2.000	1.500																			1580043908.0	10.95	20.28
26/01/2020 13:05:09	26012020	260120	130509	101.400	12.373315	-57.023958	101.240	-0.080	-0.150	0.980	101.400	-1.700	1.400																			1580043909.0	10.57	19.58
26/01/2020 13:05:10	26012020	260120	130510	101.260	12.373307	-57.023908	101.130	-0.130	-0.130	0.860	101.260	-1.500	1.300																			1580043910.0	10.58	19.59
26/01/2020 13:05:11	26012020	260120	130511	101.200	12.373297	-57.023857	101.110	-0.060	-0.390	0.730	101.200	-1.700	1.200																			1580043911.0	11.09	20.54
26/01/2020 13:05:12	26012020	260120	130512	101.180	12.373287	-57.023805	101.100	-0.090	-0.420	0.610	101.180	-1.900	1.100																			1580043912.0	11.36	21.04
26/01/2020 13:05:13	26012020	260120	130513	101.170	12.373277	-57.023753	101.100	-0.240	-0.120	0.580	101.170	-1.600	1.000																			1580043913.0	10.98	20.33
26/01/2020 13:05:14	26012020	260120	130514	101.200	12.373265	-57.023705	101.190	-0.330	0.140	0.560	101.200	-1.300	1.000																			1580043914.0	10.62	19.67
26/01/2020 13:05:15	26012020	260120	130515	101.330	12.373255	-57.023655	101.320	-0.210	0.120	0.530	101.330	-1.200	1.000																			1580043915.0	10.70	19.82
26/01/2020 13:05:16	26012020	260120	130516	101.420	12.373245	-57.023605	101.340	0.050	-0.200	0.510	101.420	-1.400	0.900																			1580043916.0	10.97	20.32
26/01/2020 13:05:17	26012020	260120	130517	101.380	12.373235	-57.023552	101.260	0.260	-0.550	0.550	101.380	-1.800	0.900																			1580043917.0	11.24	20.82
26/01/2020 13:05:18	26012020	260120	130518	101.290	12.373225	-57.023500	101.230	0.220	-0.520	0.790	101.290	-2.000	1.100																			1580043918.0	11.19	20.72
26/01/2020 13:05:19	26012020	260120	130519	101.280	12.373215	-57.023450	101.270	-0.010	-0.200	1.010	101.280	-1.700	1.400																			1580043919.0	10.71	19.83
26/01/2020 13:05:20	26012020	260120	130520	101.330	12.373203	-57.023402	101.310	-0.160	-0.090	1.100	101.330	-1.500	1.500																			1580043920.0	10.48	19.41
26/01/2020 13:05:21	26012020	260120	130521	101.330	12.373193	-57.023352	101.230	-0.100	-0.280	1.270	101.330	-1.600	1.600																			1580043921.0	10.85	20.09
26/01/2020 13:05:22	26012020	260120	130522	101.190	12.373182	-57.023300	101.060	0.050	-0.390	1.340	101.190	-1.800	1.800																			1580043922.0	11.15	20.65
26/01/2020 13:05:23	26012020	260120	130523	101.020	12.373172	-57.023250	100.910	0.180	-0.330	1.190	101.020	-1.800	1.700																			1580043923.0	11.02	20.41
26/01/2020 13:05:24	26012020	260120	130524	100.920	12.373163	-57.023198	100.890	0.230	-0.290	0.910	100.920	-1.700	1.400																			1580043924.0	10.90	20.19
26/01/2020 13:05:25	26012020	260120	130525	100.970	12.373155	-57.023147	100.980	0.200	-0.300	0.640	100.970	-1.700	1.200																			1580043925.0	11.03	20.43
26/01/2020 13:05:26	26012020	260120	130526	101.080	12.373147	-57.023095	101.070	0.050	-0.110	0.610	101.080	-1.600	1.000																			1580043926.0	11.01	20.39
26/01/2020 13:05:27	26012020	260120	130527	101.140	12.373138	-57.023047	101.110	-0.120	0.210	0.770	101.140	-1.300	1.100																			1580043927.0	10.64	19.71
26/01/2020 13:05:28	26012020	260120	130528	101.200	12.373127	-57.022998	101.190	-0.190	0.170	0.880	101.200	-1.200	1.300																			1580043928.0	10.54	19.52
26/01/2020 13:05:29	26012020	260120	130529	101.270	12.373117	-57.022947	101.250	-0.160	-0.300	0.860	101.270	-1.500	1.300																			1580043929.0	10.95	20.28
26/01/2020 13:05:30	26012020	260120	130530	101.300	12.373107	-57.022895	101.250	-0.110	-0.720	0.840	101.300	-2.000	1.300																			1580043930.0	11.33	20.98
26/01/2020 13:05:31	26012020	260120	130531	101.270	12.373095	-57.022843	101.200	-0.060	-0.660	0.900	101.270	-2.100	1.300																			1580043931.0	11.17	20.69
26/01/2020 13:05:32	26012020	260120	130532	101.230	12.373085	-57.022793	101.210	-0.020	-0.300	0.810	101.230	-1.900	1.300																			1580043932.0	10.66	19.74
26/01/2020 13:05:33	26012020	260120	130533	101.280	12.373077	-57.022745	101.300	-0.020	-0.110	0.560	101.280	-1.600	1.100																			1580043933.0	10.53	19.50
26/01/2020 13:05:34	26012020	260120	130534	101.400	12.373068	-57.022693	101.390	-0.080	-0.150	0.310	101.400	-1.500	0.800																			1580043934.0	10.81	20.02
26/01/2020 13:05:35	26012020	260120	130535	101.450	12.373058	-57.022643	101.360	-0.080	-0.340	0.320	101.450	-1.700	0.700																			1580043935.0	11.00	20.37
26/01/2020 13:05:36	26012020	260120	130536	101.380	12.373048	-57.022590	101.270	0.120	-0.630	0.540	101.380	-1.900	0.900																			1580043936.0	11.19	20.72
26/01/2020 13:05:37	26012020	260120	130537	101.310	12.373038	-57.022538	101.290	0.370	-0.720	0.650	101.310	-2.200	1.100																			1580043937.0	11.43	21.17
26/01/2020 13:05:38	26012020	260120	130538	101.380	12.373028	-57.022487	101.440	0.290	-0.170	0.560	101.380	-1.900	1.000																			1580043938.0	11.20	20.74
26/01/2020 13:05:39	26012020	260120	130539	101.580	12.373018	-57.022438	101.660	-0.140	0.650	0.430	101.580	-1.000	0.900																			1580043939.0	10.41	19.28
26/01/2020 13:05:40	26012020	260120	130540	101.810	12.373010	-57.022390	101.860	-0.510	0.930	0.460	101.810	-0.500	0.800																			1580043940.0	10.07	18.65
26/01/2020 13:05:41	26012020	260120	130541	101.920	12.373000	-57.022342	101.920	-0.470	0.340	0.590	101.930	-0.800	1.000																			1580043941.0	10.63	19.69
26/01/2020 13:05:42	26012020	260120	130542	101.950	12.372988	-57.022288	101.920	-0.050	-0.570	0.640	101.950	-1.600	1.100																			1580043942.0	11.42	21.15
26/01/2020 13:05:43	26012020	260120	130543	101.990	12.372977	-57.022235	102.000	0.330	-1.040	0.680	101.990	-2.300	1.100																			1580043943.0	11.59	21.46
26/01/2020 13:05:44	26012020	260120	130544	102.070	12.372967	-57.022185	102.060	0.390	-0.850	0.690	102.070	-2.400	1.100																			1580043944.0	11.00	20.37
26/01/2020 13:05:45	26012020	260120	130545	102.090	12.372957	-57.022137	102.000	0.180	-0.400	0.640	102.090	-2.000	1.100																			1580043945.0	10.38	19.22
26/01/2020 13:05:46	26012020	260120	130546	101.960	12.372948	-57.022088	101.810	0.010	-0.210	0.800	101.960	-1.600	1.100																			1580043946.0	10.32	19.11
26/01/2020 13:05:47	26012020	260120	130547	101.760	12.372937	-57.022038	101.620	-0.040	-0.380	0.970	101.760	-1.700	1.400																			1580043947.0	10.82	20.04
26/01/2020 13:05:48	26012020	260120	130548	101.620	12.372925	-57.021987	101.550	-0.060	-0.540	0.850	101.620	-1.900	1.400																			1580043948.0	11.27	20.87
26/01/2020 13:05:49	26012020	260120	130549	101.640	12.372915	-57.021933	101.640	-0.130	-0.390	0.600	101.640	-1.900	1.100																			1580043949.0	11.22	20.78
26/01/2020 13:05:50	26012020	260120	130550	101.780	12.372905	-57.021883	101.780	-0.140	-0.110	0.560	101.780	-1.600	1.000																			1580043950.0	10.88	20.15
26/01/2020 13:05:51	26012020	260120	130551	101.890	12.372893	-57.021833	101.870	-0.040	0.030	0.610	101.890	-1.400	1.000																			1580043951.0	10.84	20.08
26/01/2020 13:05:52	26012020	260120	130552	101.980	12.372882	-57.021783	101.970	0.020	0.180	0.610	101.980	-1.300	1.000																			1580043952.0	11.02	20.41
26/01/2020 13:05:53	26012020	260120	130553	102.120	12.372872	-57.021733	102.130	-0.050	0.420	0.550	102.120	-1.100	1.000																			1580043953.0	10.79	19.98
26/01/2020 13:05:54	26012020	260120	130554	102.280	12.372863	-57.021683	102.260	-0.110	0.350	0.410	102.280	-1.000	0.900																			1580043954.0	10.55	19.54
26/01/2020 13:05:55	26012020	260120	130555	102.380	12.372855	-57.021633	102.380	-0.040	-0.210	0.490	102.400	-1.400	0.800																			1580043955.0	10.85	20.09
26/01/2020 13:05:56	26012020	260120	130556	102.490	12.372845	-57.021582	102.460	0.090	-0.790	0.770	102.490	-2.000	1.100																			1580043956.0	11.29	20.91
26/01/2020 13:05:57	26012020	260120	130557	102.550	12.372832	-57.021530	102.500	0.070	-0.840	0.990	102.550	-2.300	1.300																			1580043957.0	11.20	20.74
26/01/2020 13:05:58	26012020	260120	130558	102.510	12.372820	-57.021482	102.370	-0.040	-0.540	1.160	102.510	-2.000	1.500																			1580043958.0	10.59	19.61
26/01/2020 13:05:59	26012020	260120	130559	102.280	12.372808	-57.021433	102.060	0.030	-0.500	1.150	102.280	-1.900	1.600																			1580043959.0	10.48	19.41
26/01/2020 13:06:00	26012020	260120	130600	101.940	12.372797	-57.021382	101.780	0.210	-0.600	0.880	101.940	-2.000	1.400	1016.50	26.20	26.20	18.40	18.50	469.00	62.00	62.00	376.00	27.40	348.00	11.40	79.00	6.00	36031	3103.00	27.40	27.40	1580043960.0	11.06	20.48
26/01/2020 13:06:01	26012020	260120	130601	101.790	12.372788	-57.021330	101.790	0.260	-0.340	0.500	101.790	-1.900	1.000																			1580043961.0	11.21	20.76
26/01/2020 13:06:02	26012020	260120	130602	101.930	12.372780	-57.021280	102.010	0.110	0.180	0.290	101.930	-1.400	0.800																			1580043962.0	10.74	19.89
26/01/2020 13:06:03	26012020	260120	130603	102.170	12.372770	-57.021232	102.220	-0.040	0.380	0.270	102.170	-1.000	0.700																			1580043963.0	10.48	19.41
26/01/2020 13:06:04	26012020	260120	130604	102.350	12.372758	-57.021180	102.360	-0.030	0.100	0.370	102.350	-1.200	0.700																			1580043964.0	10.88	20.15
26/01/2020 13:06:05	26012020	260120	130605	102.480	12.372747	-57.021128	102.500	0.010	-0.150	0.520	102.480	-1.500	0.900																			1580043965.0	11.25	20.84
26/01/2020 13:06:06	26012020	260120	130606	102.610	12.372737	-57.021078	102.670	-0.060	-0.130	0.550	102.610	-1.600	1.000																			1580043966.0	10.97	20.32
26/01/2020 13:06:07	26012020	260120	130607	102.770	12.372727	-57.021028	102.760	-0.140	-0.180	0.660	102.770	-1.500	1.000																			1580043967.0	10.60	19.63
26/01/2020 13:06:08	26012020	260120	130608	102.760	12.372715	-57.020980	102.640	-0.130	-0.540	0.930	102.760	-1.800	1.200																			1580043968.0	10.79	19.98
26/01/2020 13:06:09	26012020	260120	130609	102.560	12.372703	-57.020928	102.400	-0.070	-0.920	1.140	102.560	-2.200	1.500																			1580043969.0	11.20	20.74
26/01/2020 13:06:10	26012020	260120	130610	102.310	12.372690	-57.020877	102.180	-0.040	-0.880	1.170	102.310	-2.400	1.600																			1580043970.0	11.27	20.87
26/01/2020 13:06:11	26012020	260120	130611	102.130	12.372678	-57.020827	102.050	-0.110	-0.370	1.020	102.130	-2.000	1.500																			1580043971.0	10.86	20.11
26/01/2020 13:06:12	26012020	260120	130612	102.090	12.372667	-57.020778	102.050	-0.200	0.100	0.740	102.090	-1.400	1.300																			1580043972.0	10.50	19.45
26/01/2020 13:06:13	26012020	260120	130613	102.110	12.372657	-57.020728	102.090	-0.120	0.130	0.460	102.110	-1.200	1.000																			1580043973.0	10.68	19.78
26/01/2020 13:06:14	26012020	260120	130614	102.160	12.372645	-57.020677	102.160	0.110	0.010	0.230	102.160	-1.400	0.700																			1580043974.0	11.19	20.72
26/01/2020 13:06:15	26012020	260120	130615	102.270	12.372635	-57.020625	102.330	0.280	0.180	0.080	102.270	-1.300	0.500																			1580043975.0	11.15	20.65
26/01/2020 13:06:16	26012020	260120	130616	102.490	12.372627	-57.020575	102.580	0.290	0.420	-0.050	102.490	-1.000	0.400																			1580043976.0	10.60	19.63
26/01/2020 13:06:17	26012020	260120	130617	102.710	12.372618	-57.020527	102.720	0.270	0.180	0.050	102.710	-1.100	0.400																			1580043977.0	10.47	19.39
26/01/2020 13:06:18	26012020	260120	130618	102.750	12.372608	-57.020477	102.710	0.270	-0.470	0.480	102.750	-1.600	0.700																			1580043978.0	10.94	20.26
26/01/2020 13:06:19	26012020	260120	130619	102.720	12.372597	-57.020425	102.650	0.220	-0.950	0.940	102.710	-2.200	1.200																			1580043979.0	11.27	20.87
26/01/2020 13:06:20	26012020	260120	130620	102.620	12.372583	-57.020373	102.480	0.110	-1.020	1.370	102.620	-2.400	1.600																			1580043980.0	11.07	20.50
26/01/2020 13:06:21	26012020	260120	130621	102.330	12.372570	-57.020323	102.070	-0.010	-0.880	1.660	102.330	-2.400	2.000																			1580043981.0	10.82	20.04
26/01/2020 13:06:22	26012020	260120	130622	101.850	12.372558	-57.020275	101.630	-0.150	-0.630	1.630	101.850	-2.100	2.100																			1580043982.0	10.88	20.15
26/01/2020 13:06:23	26012020	260120	130623	101.530	12.372547	-57.020223	101.490	-0.300	-0.250	1.330	101.530	-1.800	1.900																			1580043983.0	10.93	20.24
26/01/2020 13:06:24	26012020	260120	130624	101.550	12.372537	-57.020173	101.540	-0.440	0.150	1.000	101.550	-1.400	1.500																			1580043984.0	10.84	20.08
26/01/2020 13:06:25	26012020	260120	130625	101.640	12.372525	-57.020123	101.600	-0.470	0.360	0.720	101.640	-1.100	1.200																			1580043985.0	10.81	20.02
26/01/2020 13:06:26	26012020	260120	130626	101.680	12.372513	-57.020073	101.610	-0.270	0.230	0.590	101.680	-1.100	1.000																			1580043986.0	10.93	20.24
26/01/2020 13:06:27	26012020	260120	130627	101.730	12.372502	-57.020022	101.700	0.130	-0.110	0.630	101.730	-1.400	1.000																			1580043987.0	11.24	20.82
26/01/2020 13:06:28	26012020	260120	130628	101.860	12.372492	-57.019968	101.910	0.390	-0.210	0.640	101.860	-1.600	1.100																			1580043988.0	11.35	21.02
26/01/2020 13:06:29	26012020	260120	130629	102.100	12.372482	-57.019918	102.140	0.320	0.070	0.590	102.100	-1.500	1.000																			1580043989.0	10.84	20.08
26/01/2020 13:06:30	26012020	260120	130630	102.310	12.372472	-57.019872	102.320	0.070	0.350	0.630	102.310	-1.100	1.000																			1580043990.0	10.31	19.09
26/01/2020 13:06:31	26012020	260120	130631	102.420	12.372463	-57.019823	102.360	-0.010	0.080	0.720	102.430	-1.100	1.100																			1580043991.0	10.23	18.95
26/01/2020 13:06:32	26012020	260120	130632	102.350	12.372453	-57.019772	102.180	0.260	-0.880	0.940	102.350	-1.900	1.300																			1580043992.0	10.97	20.32
26/01/2020 13:06:33	26012020	260120	130633	102.090	12.372442	-57.019718	101.940	0.550	-1.510	1.130	102.090	-2.800	1.500																			1580043993.0	11.77	21.80
26/01/2020 13:06:34	26012020	260120	130634	101.870	12.372430	-57.019665	101.770	0.450	-1.080	1.080	101.870	-2.800	1.500																			1580043994.0	11.36	21.04
26/01/2020 13:06:35	26012020	260120	130635	101.730	12.372422	-57.019618	101.660	0.000	-0.130	1.020	101.730	-1.900	1.500																			1580043995.0	10.31	19.09
26/01/2020 13:06:36	26012020	260120	130636	101.660	12.372412	-57.019572	101.610	-0.400	0.370	0.940	101.660	-1.100	1.400																			1580043996.0	10.04	18.59
26/01/2020 13:06:37	26012020	260120	130637	101.640	12.372402	-57.019522	101.590	-0.450	0.110	0.750	101.640	-1.100	1.200																			1580043997.0	10.70	19.82
26/01/2020 13:06:38	26012020	260120	130638	101.600	12.372390	-57.019468	101.520	-0.200	-0.410	0.730	101.600	-1.600	1.100																			1580043998.0	11.49	21.28
26/01/2020 13:06:39	26012020	260120	130639	101.560	12.372378	-57.019415	101.520	-0.020	-0.480	0.830	101.560	-1.900	1.200																			1580043999.0	11.64	21.56
26/01/2020 13:06:40	26012020	260120	130640	101.580	12.372367	-57.019365	101.560	-0.070	-0.100	0.910	101.580	-1.700	1.300																			1580044000.0	11.01	20.39
26/01/2020 13:06:41	26012020	260120	130641	101.640	12.372355	-57.019317	101.620	-0.220	0.320	0.910	101.640	-1.200	1.300																			1580044001.0	10.49	19.43
26/01/2020 13:06:42	26012020	260120	130642	101.740	12.372345	-57.019267	101.740	-0.270	0.360	0.830	101.740	-1.000	1.300																			1580044002.0	10.47	19.39
26/01/2020 13:06:43	26012020	260120	130643	101.900	12.372335	-57.019217	101.900	-0.120	-0.030	0.770	101.900	-1.300	1.200																			1580044003.0	10.84	20.08
26/01/2020 13:06:44	26012020	260120	130644	102.000	12.372325	-57.019165	101.890	0.070	-0.430	0.850	102.000	-1.700	1.200																			1580044004.0	11.19	20.72
26/01/2020 13:06:45	26012020	260120	130645	101.940	12.372313	-57.019115	101.810	0.180	-0.490	0.890	101.920	-1.900	1.300																			1580044005.0	11.06	20.48
26/01/2020 13:06:46	26012020	260120	130646	101.870	12.372305	-57.019065	101.830	0.210	-0.350	0.760	101.870	-1.800	1.200																			1580044006.0	10.69	19.80
26/01/2020 13:06:47	26012020	260120	130647	101.950	12.372295	-57.019015	101.930	0.230	-0.320	0.550	101.950	-1.700	1.100																			1580044007.0	10.57	19.58
26/01/2020 13:06:48	26012020	260120	130648	102.040	12.372287	-57.018965	101.950	0.280	-0.480	0.290	102.040	-1.800	0.800																			1580044008.0	10.80	20.00
26/01/2020 13:06:49	26012020	260120	130649	101.960	12.372277	-57.018913	101.750	0.350	-0.570	0.280	101.960	-2.000	0.700																			1580044009.0	11.02	20.41
26/01/2020 13:06:50	26012020	260120	130650	101.720	12.372268	-57.018863	101.550	0.320	-0.430	0.480	101.720	-1.900	0.800																			1580044010.0	10.96	20.30
26/01/2020 13:06:51	26012020	260120	130651	101.570	12.372258	-57.018813	101.490	0.190	-0.310	0.530	101.570	-1.700	1.000																			1580044011.0	10.78	19.96
26/01/2020 13:06:52	26012020	260120	130652	101.570	12.372248	-57.018762	101.510	-0.020	-0.330	0.470	101.570	-1.700	0.900																			1580044012.0	10.94	20.26
26/01/2020 13:06:53	26012020	260120	130653	101.580	12.372240	-57.018710	101.460	-0.260	-0.270	0.550	101.580	-1.700	0.900																			1580044013.0	11.14	20.63
26/01/2020 13:06:54	26012020	260120	130654	101.500	12.372228	-57.018660	101.340	-0.490	-0.010	0.860	101.500	-1.500	1.100																			1580044014.0	10.97	20.32
26/01/2020 13:06:55	26012020	260120	130655	101.370	12.372215	-57.018610	101.230	-0.630	0.150	1.150	101.370	-1.300	1.500																			1580044015.0	10.77	19.95
26/01/2020 13:06:56	26012020	260120	130656	101.270	12.372202	-57.018560	101.180	-0.570	-0.020	1.170	101.270	-1.300	1.600																			1580044016.0	10.93	20.24
26/01/2020 13:06:57	26012020	260120	130657	101.280	12.372190	-57.018508	101.190	-0.360	-0.270	0.960	101.280	-1.600	1.500																			1580044017.0	11.24	20.82
26/01/2020 13:06:58	26012020	260120	130658	101.320	12.372180	-57.018457	101.250	-0.120	-0.220	0.750	101.320	-1.700	1.200																			1580044018.0	11.20	20.74
26/01/2020 13:06:59	26012020	260120	130659	101.400	12.372170	-57.018407	101.350	0.060	0.070	0.530	101.400	-1.400	1.000																			1580044019.0	10.76	19.93
26/01/2020 13:07:00	26012020	260120	130700	101.540	12.372160	-57.018358	101.530	0.220	0.180	0.260	101.540	-1.200	0.800	1016.50	26.20	26.20	17.90	18.00	484.00	60.00	60.00	375.00	27.40	350.00	10.90	81.00	5.50	36781	3186.00	27.40	27.30	1580044020.0	10.48	19.41
26/01/2020 13:07:01	26012020	260120	130701	101.730	12.372152	-57.018308	101.700	0.370	-0.060	0.040	101.730	-1.300	0.500																			1580044021.0	10.66	19.74
26/01/2020 13:07:02	26012020	260120	130702	101.890	12.372145	-57.018257	101.860	0.570	-0.560	0.080	101.890	-1.700	0.400																			1580044022.0	11.00	20.37
26/01/2020 13:07:03	26012020	260120	130703	101.970	12.372135	-57.018205	101.890	0.750	-0.910	0.350	101.970	-2.200	0.700																			1580044023.0	11.22	20.78
26/01/2020 13:07:04	26012020	260120	130704	101.890	12.372125	-57.018153	101.720	0.710	-0.740	0.630	101.890	-2.300	0.900																			1580044024.0	11.07	20.50
26/01/2020 13:07:05	26012020	260120	130705	101.670	12.372117	-57.018103	101.530	0.360	-0.330	0.910	101.670	-1.900	1.200																			1580044025.0	10.61	19.65
26/01/2020 13:07:06	26012020	260120	130706	101.560	12.372107	-57.018055	101.540	-0.140	-0.180	1.080	101.560	-1.600	1.500																			1580044026.0	10.56	19.56
26/01/2020 13:07:07	26012020	260120	130707	101.610	12.372097	-57.018005	101.600	-0.570	-0.230	1.160	101.610	-1.600	1.500																			1580044027.0	10.94	20.26
26/01/2020 13:07:08	26012020	260120	130708	101.630	12.372083	-57.017953	101.520	-0.740	-0.340	1.230	101.630	-1.700	1.600																			1580044028.0	11.15	20.65
26/01/2020 13:07:09	26012020	260120	130709	101.460	12.372072	-57.017902	101.300	-0.590	-0.330	1.170	101.460	-1.800	1.600																			1580044029.0	11.29	20.91
26/01/2020 13:07:10	26012020	260120	130710	101.270	12.372058	-57.017850	101.220	-0.340	-0.130	0.960	101.270	-1.600	1.500																			1580044030.0	11.16	20.67
26/01/2020 13:07:11	26012020	260120	130711	101.350	12.372048	-57.017800	101.440	-0.170	0.100	0.500	101.350	-1.400	1.100																			1580044031.0	10.96	20.30
26/01/2020 13:07:12	26012020	260120	130712	101.660	12.372040	-57.017748	101.740	-0.110	0.180	-0.020	101.660	-1.200	0.600																			1580044032.0	10.89	20.17
26/01/2020 13:07:13	26012020	260120	130713	101.950	12.372032	-57.017698	101.970	-0.070	0.190	-0.260	101.950	-1.200	0.200																			1580044033.0	10.88	20.15
26/01/2020 13:07:14	26012020	260120	130714	102.130	12.372022	-57.017648	102.090	0.060	0.150	-0.090	102.130	-1.200	0.200																			1580044034.0	10.76	19.93
26/01/2020 13:07:15	26012020	260120	130715	102.170	12.372012	-57.017598	102.090	0.290	-0.170	0.180	102.170	-1.400	0.500																			1580044035.0	10.74	19.89
26/01/2020 13:07:16	26012020	260120	130716	102.140	12.372000	-57.017547	102.030	0.560	-0.770	0.350	102.140	-1.900	0.700																			1580044036.0	11.06	20.48
26/01/2020 13:07:17	26012020	260120	130717	102.030	12.371990	-57.017495	101.890	0.680	-1.110	0.600	102.030	-2.400	0.900																			1580044037.0	11.41	21.13
26/01/2020 13:07:18	26012020	260120	130718	101.870	12.371980	-57.017443	101.790	0.420	-0.680	0.860	101.870	-2.300	1.200																			1580044038.0	11.13	20.61
26/01/2020 13:07:19	26012020	260120	130719	101.820	12.371970	-57.017395	101.800	-0.080	0.090	0.830	101.820	-1.600	1.300																			1580044039.0	10.33	19.13
26/01/2020 13:07:20	26012020	260120	130720	101.840	12.371960	-57.017348	101.780	-0.390	0.320	0.740	101.840	-1.100	1.200																			1580044040.0	10.15	18.80
26/01/2020 13:07:21	26012020	260120	130721	101.810	12.371948	-57.017298	101.730	-0.300	-0.110	0.730	101.800	-1.300	1.100																			1580044041.0	10.90	20.19
26/01/2020 13:07:22	26012020	260120	130722	101.750	12.371937	-57.017245	101.660	-0.010	-0.570	0.740	101.750	-1.800	1.100																			1580044042.0	11.58	21.45
26/01/2020 13:07:23	26012020	260120	130723	101.660	12.371925	-57.017192	101.580	0.180	-0.530	0.770	101.660	-2.000	1.200																			1580044043.0	11.46	21.22
26/01/2020 13:07:24	26012020	260120	130724	101.620	12.371915	-57.017142	101.600	0.130	-0.170	0.700	101.620	-1.700	1.200																			1580044044.0	10.87	20.13
26/01/2020 13:07:25	26012020	260120	130725	101.680	12.371907	-57.017092	101.640	-0.020	0.020	0.670	101.680	-1.400	1.100																			1580044045.0	10.61	19.65
26/01/2020 13:07:26	26012020	260120	130726	101.700	12.371897	-57.017042	101.670	-0.180	0.050	0.790	101.700	-1.400	1.100																			1580044046.0	10.83	20.06
26/01/2020 13:07:27	26012020	260120	130727	101.760	12.371885	-57.016992	101.740	-0.350	0.010	1.000	101.760	-1.400	1.300																			1580044047.0	10.86	20.11
26/01/2020 13:07:28	26012020	260120	130728	101.790	12.371873	-57.016942	101.720	-0.350	-0.250	1.220	101.790	-1.500	1.600																			1580044048.0	10.88	20.15
26/01/2020 13:07:29	26012020	260120	130729	101.690	12.371860	-57.016890	101.550	-0.130	-0.630	1.370	101.690	-1.900	1.700																			1580044049.0	11.19	20.72
26/01/2020 13:07:30	26012020	260120	130730	101.500	12.371847	-57.016838	101.410	0.130	-0.730	1.290	101.500	-2.100	1.800																			1580044050.0	11.32	20.96
26/01/2020 13:07:31	26012020	260120	130731	101.460	12.371837	-57.016787	101.440	0.230	-0.390	0.970	101.460	-2.000	1.500																			1580044051.0	11.00	20.37
26/01/2020 13:07:32	26012020	260120	130732	101.560	12.371828	-57.016738	101.510	0.240	0.050	0.570	101.560	-1.500	1.100																			1580044052.0	10.57	19.58
26/01/2020 13:07:33	26012020	260120	130733	101.610	12.371822	-57.016688	101.510	0.270	0.140	0.280	101.610	-1.200	0.800																			1580044053.0	10.57	19.58
26/01/2020 13:07:34	26012020	260120	130734	101.600	12.371813	-57.016637	101.520	0.350	-0.090	0.200	101.600	-1.400	0.600																			1580044054.0	11.01	20.39
26/01/2020 13:07:35	26012020	260120	130735	101.620	12.371805	-57.016585	101.660	0.320	-0.270	0.340	101.650	-1.600	0.700																			1580044055.0	11.27	20.87
26/01/2020 13:07:36	26012020	260120	130736	101.840	12.371795	-57.016533	101.870	0.090	-0.220	0.620	101.840	-1.700	0.900																			1580044056.0	11.06	20.48
26/01/2020 13:07:37	26012020	260120	130737	101.980	12.371783	-57.016483	101.940	-0.240	-0.110	1.000	101.980	-1.500	1.300																			1580044057.0	10.74	19.89
26/01/2020 13:07:38	26012020	260120	130738	101.960	12.371770	-57.016435	101.850	-0.410	-0.180	1.310	101.960	-1.500	1.600																			1580044058.0	10.70	19.82
26/01/2020 13:07:39	26012020	260120	130739	101.810	12.371758	-57.016385	101.660	-0.300	-0.470	1.350	101.810	-1.700	1.800																			1580044059.0	10.98	20.33
26/01/2020 13:07:40	26012020	260120	130740	101.620	12.371747	-57.016333	101.540	-0.060	-0.660	1.080	101.620	-2.000	1.600																			1580044060.0	11.26	20.85
26/01/2020 13:07:41	26012020	260120	130741	101.590	12.371737	-57.016282	101.550	0.050	-0.490	0.720	101.590	-2.000	1.300																			1580044061.0	11.13	20.61
26/01/2020 13:07:42	26012020	260120	130742	101.660	12.371728	-57.016232	101.600	-0.000	-0.170	0.470	101.660	-1.700	1.000																			1580044062.0	10.73	19.87
26/01/2020 13:07:43	26012020	260120	130743	101.670	12.371718	-57.016182	101.560	-0.020	-0.120	0.430	101.670	-1.500	0.800																			1580044063.0	10.66	19.74
26/01/2020 13:07:44	26012020	260120	130744	101.590	12.371707	-57.016130	101.490	0.130	-0.320	0.560	101.590	-1.600	0.900																			1580044064.0	11.06	20.48
26/01/2020 13:07:45	26012020	260120	130745	101.560	12.371697	-57.016078	101.540	0.290	-0.330	0.670	101.560	-1.800	1.100																			1580044065.0	11.32	20.96
26/01/2020 13:07:46	26012020	260120	130746	101.640	12.371687	-57.016027	101.620	0.270	-0.030	0.650	101.640	-1.600	1.100																			1580044066.0	10.99	20.35
26/01/2020 13:07:47	26012020	260120	130747	101.700	12.371677	-57.015978	101.660	0.060	0.160	0.550	101.700	-1.300	1.000																			1580044067.0	10.66	19.74
26/01/2020 13:07:48	26012020	260120	130748	101.750	12.371668	-57.015928	101.770	-0.190	0.100	0.580	101.750	-1.300	1.000																			1580044068.0	10.78	19.96
26/01/2020 13:07:49	26012020	260120	130749	101.850	12.371657	-57.015877	101.840	-0.340	-0.060	0.690	101.850	-1.400	1.100																			1580044069.0	10.96	20.30
26/01/2020 13:07:50	26012020	260120	130750	101.850	12.371645	-57.015827	101.760	-0.300	-0.320	0.680	101.850	-1.600	1.100																			1580044070.0	10.96	20.30
26/01/2020 13:07:51	26012020	260120	130751	101.730	12.371635	-57.015775	101.650	-0.070	-0.570	0.620	101.730	-1.900	1.100																			1580044071.0	11.09	20.54
26/01/2020 13:07:52	26012020	260120	130752	101.640	12.371623	-57.015723	101.590	0.170	-0.610	0.580	101.640	-2.000	1.000																			1580044072.0	11.12	20.59
26/01/2020 13:07:53	26012020	260120	130753	101.600	12.371613	-57.015673	101.560	0.230	-0.500	0.460	101.600	-1.900	0.900																			1580044073.0	10.92	20.22
26/01/2020 13:07:54	26012020	260120	130754	101.560	12.371605	-57.015623	101.500	0.170	-0.400	0.380	101.560	-1.800	0.800																			1580044074.0	10.85	20.09
26/01/2020 13:07:55	26012020	260120	130755	101.500	12.371595	-57.015572	101.440	0.100	-0.310	0.390	101.500	-1.800	0.800																			1580044075.0	10.94	20.26
26/01/2020 13:07:56	26012020	260120	130756	101.450	12.371585	-57.015522	101.380	0.070	-0.190	0.450	101.450	-1.600	0.800																			1580044076.0	10.99	20.35
26/01/2020 13:07:57	26012020	260120	130757	101.400	12.371575	-57.015470	101.330	-0.030	-0.040	0.540	101.400	-1.500	0.900																			1580044077.0	10.98	20.33
26/01/2020 13:07:58	26012020	260120	130758	101.360	12.371563	-57.015420	101.300	-0.200	0.110	0.680	101.360	-1.400	1.000																			1580044078.0	10.91	20.21
26/01/2020 13:07:59	26012020	260120	130759	101.370	12.371552	-57.015370	101.420	-0.360	0.170	0.810	101.390	-1.200	1.200																			1580044079.0	10.85	20.09
26/01/2020 13:08:00	26012020	260120	130800	101.560	12.371540	-57.015320	101.600	-0.340	-0.020	0.870	101.560	-1.300	1.300	1016.50	26.20	26.20	18.00	18.10	484.00	60.00	61.00	375.00	27.40	348.00	10.80	78.00	5.50	36969	3085.00	27.40	27.30	1580044080.0	10.87	20.13
26/01/2020 13:08:01	26012020	260120	130801	101.670	12.371528	-57.015268	101.590	-0.080	-0.460	0.950	101.670	-1.700	1.300																			1580044081.0	11.11	20.58
26/01/2020 13:08:02	26012020	260120	130802	101.580	12.371518	-57.015215	101.460	0.260	-0.740	1.020	101.580	-2.100	1.400																			1580044082.0	11.40	21.11
26/01/2020 13:08:03	26012020	260120	130803	101.470	12.371507	-57.015163	101.450	0.390	-0.540	0.890	101.470	-2.100	1.400																			1580044083.0	11.20	20.74
26/01/2020 13:08:04	26012020	260120	130804	101.570	12.371498	-57.015115	101.630	0.210	-0.090	0.610	101.570	-1.700	1.100																			1580044084.0	10.66	19.74
26/01/2020 13:08:05	26012020	260120	130805	101.750	12.371490	-57.015065	101.710	-0.070	0.070	0.510	101.750	-1.300	0.900																			1580044085.0	10.50	19.45
26/01/2020 13:08:06	26012020	260120	130806	101.750	12.371480	-57.015015	101.670	-0.220	-0.140	0.660	101.750	-1.400	1.000																			1580044086.0	10.87	20.13
26/01/2020 13:08:07	26012020	260120	130807	101.690	12.371468	-57.014963	101.640	-0.170	-0.370	0.890	101.690	-1.700	1.200																			1580044087.0	11.21	20.76
26/01/2020 13:08:08	26012020	260120	130808	101.680	12.371457	-57.014912	101.680	-0.010	-0.400	0.890	101.680	-1.800	1.400																			1580044088.0	11.17	20.69
26/01/2020 13:08:09	26012020	260120	130809	101.760	12.371447	-57.014862	101.750	0.120	-0.330	0.660	101.760	-1.800	1.200																			1580044089.0	10.98	20.33
26/01/2020 13:08:10	26012020	260120	130810	101.790	12.371437	-57.014810	101.710	0.160	-0.330	0.600	101.790	-1.700	1.000																			1580044090.0	10.93	20.24
26/01/2020 13:08:11	26012020	260120	130811	101.720	12.371427	-57.014758	101.670	0.150	-0.330	0.650	101.720	-1.700	1.100																			1580044091.0	11.08	20.52
26/01/2020 13:08:12	26012020	260120	130812	101.730	12.371417	-57.014707	101.760	0.040	-0.120	0.670	101.730	-1.600	1.100																			1580044092.0	11.05	20.46
26/01/2020 13:08:13	26012020	260120	130813	101.870	12.371407	-57.014657	101.880	-0.090	0.100	0.760	101.870	-1.400	1.100																			1580044093.0	10.78	19.96
26/01/2020 13:08:14	26012020	260120	130814	101.940	12.371397	-57.014608	101.890	-0.110	0.000	0.860	101.940	-1.300	1.200																			1580044094.0	10.78	19.96
26/01/2020 13:08:15	26012020	260120	130815	101.880	12.371385	-57.014557	101.780	-0.010	-0.380	0.990	101.880	-1.600	1.400																			1580044095.0	11.14	20.63
26/01/2020 13:08:16	26012020	260120	130816	101.780	12.371375	-57.014503	101.730	0.090	-0.660	1.110	101.780	-2.000	1.500																			1580044096.0	11.42	21.15
26/01/2020 13:08:17	26012020	260120	130817	101.750	12.371363	-57.014452	101.700	0.040	-0.520	1.240	101.750	-2.000	1.600																			1580044097.0	11.24	20.82
26/01/2020 13:08:18	26012020	260120	130818	101.690	12.371352	-57.014402	101.620	-0.210	-0.130	1.260	101.690	-1.700	1.700																			1580044098.0	10.80	20.00
26/01/2020 13:08:19	26012020	260120	130819	101.610	12.371342	-57.014353	101.590	-0.470	0.090	1.010	101.610	-1.400	1.500																			1580044099.0	10.64	19.71
26/01/2020 13:08:20	26012020	260120	130820	101.620	12.371332	-57.014303	101.600	-0.530	0.050	0.760	101.620	-1.300	1.300																			1580044100.0	10.81	20.02
26/01/2020 13:08:21	26012020	260120	130821	101.640	12.371320	-57.014252	101.610	-0.310	-0.190	0.540	101.640	-1.500	1.000																			1580044101.0	11.04	20.45
26/01/2020 13:08:22	26012020	260120	130822	101.640	12.371310	-57.014200	101.590	0.110	-0.440	0.410	101.640	-1.800	0.900																			1580044102.0	11.25	20.84
26/01/2020 13:08:23	26012020	260120	130823	101.600	12.371300	-57.014147	101.520	0.520	-0.520	0.400	101.600	-1.900	0.800																			1580044103.0	11.25	20.84
26/01/2020 13:08:24	26012020	260120	130824	101.530	12.371290	-57.014095	101.480	0.740	-0.460	0.410	101.530	-1.900	0.800																			1580044104.0	11.13	20.61
26/01/2020 13:08:25	26012020	260120	130825	101.530	12.371282	-57.014043	101.600	0.650	-0.240	0.490	101.550	-1.700	0.900																			1580044105.0	11.03	20.43
26/01/2020 13:08:26	26012020	260120	130826	101.780	12.371273	-57.013993	101.880	0.270	0.120	0.650	101.780	-1.400	1.000																			1580044106.0	10.80	20.00
26/01/2020 13:08:27	26012020	260120	130827	102.070	12.371263	-57.013945	102.120	-0.180	0.320	0.850	102.070	-1.100	1.200																			1580044107.0	10.56	19.56
26/01/2020 13:08:28	26012020	260120	130828	102.240	12.371253	-57.013895	102.150	-0.390	-0.050	1.120	102.240	-1.200	1.400																			1580044108.0	10.71	19.83
26/01/2020 13:08:29	26012020	260120	130829	102.140	12.371240	-57.013843	101.940	-0.280	-0.800	1.430	102.140	-1.900	1.700																			1580044109.0	11.40	21.11
26/01/2020 13:08:30	26012020	260120	130830	101.870	12.371228	-57.013788	101.720	-0.170	-1.040	1.500	101.870	-2.400	1.900																			1580044110.0	11.78	21.82
26/01/2020 13:08:31	26012020	260120	130831	101.700	12.371217	-57.013737	101.600	-0.310	-0.530	1.280	101.700	-2.200	1.800																			1580044111.0	11.15	20.65
26/01/2020 13:08:32	26012020	260120	130832	101.610	12.371205	-57.013688	101.510	-0.550	0.060	1.020	101.610	-1.500	1.500																			1580044112.0	10.43	19.32
26/01/2020 13:08:33	26012020	260120	130833	101.560	12.371195	-57.013640	101.490	-0.560	0.170	0.750	101.560	-1.200	1.300																			1580044113.0	10.56	19.56
26/01/2020 13:08:34	26012020	260120	130834	101.570	12.371185	-57.013588	101.500	-0.260	-0.060	0.500	101.570	-1.400	1.000																			1580044114.0	11.13	20.61
26/01/2020 13:08:35	26012020	260120	130835	101.610	12.371173	-57.013537	101.570	0.170	-0.320	0.290	101.610	-1.600	0.800																			1580044115.0	11.42	21.15
26/01/2020 13:08:36	26012020	260120	130836	101.750	12.371165	-57.013483	101.780	0.520	-0.340	0.110	101.750	-1.800	0.600																			1580044116.0	11.37	21.06
26/01/2020 13:08:37	26012020	260120	130837	101.980	12.371155	-57.013432	102.020	0.620	-0.130	0.150	101.980	-1.600	0.500																			1580044117.0	11.05	20.46
26/01/2020 13:08:38	26012020	260120	130838	102.220	12.371145	-57.013382	102.240	0.460	0.150	0.280	102.220	-1.400	0.600																			1580044118.0	10.73	19.87
26/01/2020 13:08:39	26012020	260120	130839	102.400	12.371137	-57.013333	102.360	0.220	0.240	0.480	102.400	-1.100	0.800																			1580044119.0	10.54	19.52
26/01/2020 13:08:40	26012020	260120	130840	102.450	12.371127	-57.013283	102.360	0.130	-0.160	0.810	102.450	-1.300	1.100																			1580044120.0	10.73	19.87
26/01/2020 13:08:41	26012020	260120	130841	102.400	12.371117	-57.013230	102.270	0.150	-0.750	0.980	102.400	-1.900	1.400																			1580044121.0	11.32	20.96
26/01/2020 13:08:42	26012020	260120	130842	102.310	12.371105	-57.013178	102.160	0.060	-0.920	1.000	102.310	-2.300	1.400																			1580044122.0	11.44	21.19
26/01/2020 13:08:43	26012020	260120	130843	102.180	12.371095	-57.013127	102.050	-0.180	-0.600	1.090	102.180	-2.200	1.500																			1580044123.0	10.98	20.33
26/01/2020 13:08:44	26012020	260120	130844	102.070	12.371083	-57.013078	101.950	-0.420	-0.170	1.130	102.070	-1.700	1.500																			1580044124.0	10.59	19.61
26/01/2020 13:08:45	26012020	260120	130845	101.930	12.371072	-57.013030	101.760	-0.530	-0.070	1.040	101.930	-1.500	1.500																			1580044125.0	10.66	19.74
26/01/2020 13:08:46	26012020	260120	130846	101.730	12.371060	-57.012978	101.630	-0.410	-0.290	0.800	101.730	-1.600	1.300																			1580044126.0	11.12	20.59
26/01/2020 13:08:47	26012020	260120	130847	101.680	12.371048	-57.012925	101.650	-0.140	-0.370	0.470	101.680	-1.800	1.000																			1580044127.0	11.47	21.24
26/01/2020 13:08:48	26012020	260120	130848	101.750	12.371038	-57.012873	101.690	0.040	-0.130	0.320	101.750	-1.600	0.800																			1580044128.0	11.21	20.76
26/01/2020 13:08:49	26012020	260120	130849	101.770	12.371028	-57.012823	101.690	0.100	0.060	0.400	101.770	-1.400	0.800																			1580044129.0	10.85	20.09
26/01/2020 13:08:50	26012020	260120	130850	101.810	12.371017	-57.012773	101.830	0.140	0.100	0.480	101.810	-1.300	0.900																			1580044130.0	10.87	20.13
26/01/2020 13:08:51	26012020	260120	130851	102.010	12.371007	-57.012722	102.050	0.190	0.050	0.580	102.010	-1.300	1.000																			1580044131.0	10.95	20.28
26/01/2020 13:08:52	26012020	260120	130852	102.230	12.370997	-57.012672	102.230	0.220	-0.100	0.630	102.230	-1.400	1.000																			1580044132.0	10.93	20.24
26/01/2020 13:08:53	26012020	260120	130853	102.340	12.370985	-57.012620	102.250	0.270	-0.400	0.590	102.340	-1.700	1.000																			1580044133.0	11.00	20.37
26/01/2020 13:08:54	26012020	260120	130854	102.300	12.370977	-57.012568	102.180	0.340	-0.600	0.640	102.300	-1.900	1.000																			1580044134.0	11.15	20.65
26/01/2020 13:08:55	26012020	260120	130855	102.250	12.370967	-57.012517	102.190	0.300	-0.520	0.650	102.250	-2.000	1.100																			1580044135.0	11.05	20.46
26/01/2020 13:08:56	26012020	260120	130856	102.340	12.370957	-57.012467	102.280	0.090	-0.240	0.580	102.340	-1.700	1.000																			1580044136.0	10.76	19.93
26/01/2020 13:08:57	26012020	260120	130857	102.420	12.370947	-57.012418	102.280	-0.170	-0.080	0.690	102.420	-1.500	1.100																			1580044137.0	10.61	19.65
26/01/2020 13:08:58	26012020	260120	130858	102.310	12.370935	-57.012368	102.120	-0.290	-0.190	0.830	102.310	-1.500	1.200																			1580044138.0	10.82	20.04
26/01/2020 13:08:59	26012020	260120	130859	102.090	12.370923	-57.012317	101.910	-0.200	-0.480	0.900	102.090	-1.800	1.300																			1580044139.0	11.18	20.71
26/01/2020 13:09:00	26012020	260120	130900	101.940	12.370913	-57.012263	101.820	-0.030	-0.650	0.950	101.940	-2.000	1.300	1016.50	26.20	26.20	18.20	18.20	496.00	61.00	61.00	375.00	27.50	350.00	10.90	82.00	5.40	37621	3129.00	27.40	27.40	1580044140.0	11.41	21.13
26/01/2020 13:09:01	26012020	260120	130901	101.920	12.370902	-57.012212	101.860	-0.000	-0.470	0.990	101.930	-2.000	1.400																			1580044141.0	11.28	20.89
26/01/2020 13:09:02	26012020	260120	130902	101.920	12.370888	-57.012162	101.810	-0.090	-0.120	1.040	101.920	-1.700	1.400																			1580044142.0	10.91	20.21
26/01/2020 13:09:03	26012020	260120	130903	101.800	12.370877	-57.012112	101.680	-0.130	0.120	1.010	101.800	-1.400	1.500																			1580044143.0	10.82	20.04
26/01/2020 13:09:04	26012020	260120	130904	101.730	12.370867	-57.012062	101.730	-0.080	0.170	0.720	101.730	-1.200	1.300																			1580044144.0	10.93	20.24
26/01/2020 13:09:05	26012020	260120	130905	101.930	12.370857	-57.012010	102.020	-0.000	0.100	0.400	101.930	-1.300	0.900																			1580044145.0	11.03	20.43
26/01/2020 13:09:06	26012020	260120	130906	102.240	12.370847	-57.011960	102.250	0.070	-0.060	0.280	102.240	-1.400	0.700																			1580044146.0	10.99	20.35
26/01/2020 13:09:07	26012020	260120	130907	102.400	12.370837	-57.011908	102.290	0.150	-0.310	0.400	102.400	-1.600	0.700																			1580044147.0	11.01	20.39
26/01/2020 13:09:08	26012020	260120	130908	102.390	12.370825	-57.011857	102.260	0.230	-0.460	0.560	102.390	-1.800	0.900																			1580044148.0	11.07	20.50
26/01/2020 13:09:09	26012020	260120	130909	102.370	12.370815	-57.011807	102.240	0.240	-0.380	0.630	102.370	-1.800	1.000																			1580044149.0	10.91	20.21
26/01/2020 13:09:10	26012020	260120	130910	102.310	12.370805	-57.011757	102.140	0.180	-0.370	0.690	102.310	-1.700	1.100																			1580044150.0	10.72	19.85
26/01/2020 13:09:11	26012020	260120	130911	102.170	12.370795	-57.011707	101.970	0.140	-0.580	0.730	102.170	-1.900	1.100																			1580044151.0	10.93	20.24
26/01/2020 13:09:12	26012020	260120	130912	101.970	12.370785	-57.011653	101.760	0.140	-0.740	0.750	101.970	-2.100	1.200																			1580044152.0	11.30	20.93
26/01/2020 13:09:13	26012020	260120	130913	101.770	12.370775	-57.011602	101.600	0.080	-0.530	0.720	101.770	-2.100	1.200																			1580044153.0	11.28	20.89
26/01/2020 13:09:14	26012020	260120	130914	101.630	12.370763	-57.011552	101.470	-0.100	-0.120	0.710	101.630	-1.700	1.100																			1580044154.0	10.96	20.30
26/01/2020 13:09:15	26012020	260120	130915	101.540	12.370753	-57.011502	101.410	-0.320	0.150	0.680	101.520	-1.300	1.100																			1580044155.0	10.86	20.11
26/01/2020 13:09:16	26012020	260120	130916	101.530	12.370742	-57.011450	101.470	-0.460	0.240	0.600	101.530	-1.200	1.000																			1580044156.0	10.97	20.32
26/01/2020 13:09:17	26012020	260120	130917	101.640	12.370730	-57.011400	101.630	-0.460	0.200	0.540	101.640	-1.200	1.000																			1580044157.0	11.05	20.46
26/01/2020 13:09:18	26012020	260120	130918	101.790	12.370718	-57.011348	101.760	-0.290	-0.010	0.450	101.790	-1.300	0.900																			1580044158.0	11.07	20.50
26/01/2020 13:09:19	26012020	260120	130919	101.890	12.370707	-57.011297	101.820	-0.020	-0.300	0.390	101.890	-1.600	0.800																			1580044159.0	11.15	20.65
26/01/2020 13:09:20	26012020	260120	130920	101.950	12.370697	-57.011245	101.890	0.180	-0.390	0.450	101.950	-1.800	0.800																			1580044160.0	11.15	20.65
26/01/2020 13:09:21	26012020	260120	130921	102.010	12.370685	-57.011195	101.940	0.250	-0.270	0.450	102.010	-1.700	0.900																			1580044161.0	10.83	20.06
26/01/2020 13:09:22	26012020	260120	130922	102.000	12.370677	-57.011147	101.850	0.310	-0.280	0.460	102.000	-1.600	0.900																			1580044162.0	10.63	19.69
26/01/2020 13:09:23	26012020	260120	130923	101.850	12.370667	-57.011095	101.670	0.450	-0.570	0.570	101.850	-1.800	0.900																			1580044163.0	10.91	20.21
26/01/2020 13:09:24	26012020	260120	130924	101.680	12.370657	-57.011043	101.550	0.560	-0.820	0.720	101.680	-2.200	1.100																			1580044164.0	11.32	20.96
26/01/2020 13:09:25	26012020	260120	130925	101.600	12.370647	-57.010990	101.500	0.480	-0.730	0.920	101.600	-2.200	1.300																			1580044165.0	11.34	21.00
26/01/2020 13:09:26	26012020	260120	130926	101.550	12.370637	-57.010938	101.480	0.130	-0.270	1.200	101.550	-1.900	1.500																			1580044166.0	11.02	20.41
26/01/2020 13:09:27	26012020	260120	130927	101.540	12.370625	-57.010890	101.490	-0.340	0.240	1.430	101.540	-1.300	1.800																			1580044167.0	10.68	19.78
26/01/2020 13:09:28	26012020	260120	130928	101.570	12.370613	-57.010842	101.510	-0.610	0.350	1.440	101.570	-1.000	1.900																			1580044168.0	10.69	19.80
26/01/2020 13:09:29	26012020	260120	130929	101.560	12.370602	-57.010790	101.540	-0.540	-0.020	1.240	101.560	-1.300	1.700																			1580044169.0	11.14	20.63
26/01/2020 13:09:30	26012020	260120	130930	101.640	12.370590	-57.010737	101.660	-0.370	-0.260	1.060	101.640	-1.600	1.500																			1580044170.0	11.52	21.34
26/01/2020 13:09:31	26012020	260120	130931	101.790	12.370580	-57.010685	101.810	-0.330	-0.110	0.960	101.790	-1.600	1.400																			1580044171.0	11.12	20.59
26/01/2020 13:09:32	26012020	260120	130932	101.890	12.370568	-57.010637	101.800	-0.290	-0.040	0.790	101.890	-1.400	1.300																			1580044172.0	10.60	19.63
26/01/2020 13:09:33	26012020	260120	130933	101.810	12.370558	-57.010585	101.680	-0.010	-0.490	0.640	101.810	-1.700	1.100																			1580044173.0	10.85	20.09
26/01/2020 13:09:34	26012020	260120	130934	101.690	12.370548	-57.010532	101.570	0.430	-0.930	0.550	101.690	-2.200	1.000																			1580044174.0	11.51	21.32
26/01/2020 13:09:35	26012020	260120	130935	101.570	12.370538	-57.010480	101.440	0.690	-0.700	0.480	101.570	-2.300	0.900																			1580044175.0	11.41	21.13
26/01/2020 13:09:36	26012020	260120	130936	101.460	12.370532	-57.010430	101.380	0.610	0.000	0.390	101.460	-1.700	0.800																			1580044176.0	10.70	19.82
26/01/2020 13:09:37	26012020	260120	130937	101.470	12.370523	-57.010382	101.470	0.320	0.430	0.380	101.470	-1.100	0.800																			1580044177.0	10.31	19.09
26/01/2020 13:09:38	26012020	260120	130938	101.620	12.370513	-57.010332	101.640	0.030	0.250	0.440	101.620	-1.000	0.800																			1580044178.0	10.67	19.76
26/01/2020 13:09:39	26012020	260120	130939	101.760	12.370503	-57.010280	101.680	-0.090	-0.250	0.660	101.760	-1.400	1.000																			1580044179.0	11.21	20.76
26/01/2020 13:09:40	26012020	260120	130940	101.710	12.370492	-57.010227	101.550	-0.040	-0.650	1.010	101.710	-1.900	1.300																			1580044180.0	11.43	21.17
26/01/2020 13:09:41	26012020	260120	130941	101.550	12.370480	-57.010175	101.430	-0.010	-0.640	1.290	101.550	-2.100	1.600																			1580044181.0	11.29	20.91
26/01/2020 13:09:42	26012020	260120	130942	101.480	12.370468	-57.010125	101.440	-0.180	-0.350	1.290	101.480	-1.900	1.700																			1580044182.0	10.88	20.15
26/01/2020 13:09:43	26012020	260120	130943	101.500	12.370458	-57.010075	101.410	-0.440	-0.180	1.080	101.500	-1.600	1.600																			1580044183.0	10.65	19.72
26/01/2020 13:09:44	26012020	260120	130944	101.420	12.370448	-57.010025	101.320	-0.530	-0.270	0.880	101.420	-1.600	1.400																			1580044184.0	10.89	20.17
26/01/2020 13:09:45	26012020	260120	130945	101.340	12.370437	-57.009973	101.260	-0.320	-0.420	0.740	101.340	-1.800	1.200																			1580044185.0	11.23	20.80
26/01/2020 13:09:46	26012020	260120	130946	101.280	12.370427	-57.009920	101.180	0.010	-0.420	0.720	101.280	-1.800	1.100																			1580044186.0	11.31	20.95
26/01/2020 13:09:47	26012020	260120	130947	101.230	12.370415	-57.009868	101.190	0.230	-0.180	0.620	101.230	-1.700	1.100																			1580044187.0	11.15	20.65
26/01/2020 13:09:48	26012020	260120	130948	101.300	12.370407	-57.009818	101.310	0.230	0.160	0.470	101.300	-1.400	0.900																			1580044188.0	10.86	20.11
26/01/2020 13:09:49	26012020	260120	130949	101.480	12.370398	-57.009768	101.520	0.130	0.360	0.410	101.480	-1.100	0.800																			1580044189.0	10.67	19.76
26/01/2020 13:09:50	26012020	260120	130950	101.680	12.370388	-57.009718	101.700	0.100	0.190	0.430	101.680	-1.100	0.800																			1580044190.0	10.75	19.91
26/01/2020 13:09:51	26012020	260120	130951	101.790	12.370380	-57.009667	101.760	0.240	-0.270	0.520	101.810	-1.500	0.900																			1580044191.0	11.08	20.52
26/01/2020 13:09:52	26012020	260120	130952	101.840	12.370370	-57.009615	101.750	0.410	-0.750	0.740	101.840	-2.000	1.100																			1580044192.0	11.31	20.95
26/01/2020 13:09:53	26012020	260120	130953	101.780	12.370360	-57.009562	101.720	0.400	-0.880	0.990	101.780	-2.300	1.300																			1580044193.0	11.37	21.06
26/01/2020 13:09:54	26012020	260120	130954	101.770	12.370350	-57.009512	101.790	0.060	-0.440	1.120	101.770	-2.100	1.500																			1580044194.0	11.01	20.39
26/01/2020 13:09:55	26012020	260120	130955	101.900	12.370340	-57.009463	101.950	-0.460	0.140	1.070	101.900	-1.400	1.500																			1580044195.0	10.40	19.26
26/01/2020 13:09:56	26012020	260120	130956	102.050	12.370328	-57.009415	102.020	-0.730	0.090	0.930	102.050	-1.200	1.400																			1580044196.0	10.37	19.21
26/01/2020 13:09:57	26012020	260120	130957	102.010	12.370317	-57.009363	101.920	-0.510	-0.590	0.890	102.010	-1.700	1.300																			1580044197.0	11.23	20.80
26/01/2020 13:09:58	26012020	260120	130958	101.860	12.370305	-57.009308	101.790	-0.070	-0.940	0.820	101.860	-2.300	1.300																			1580044198.0	11.90	22.04
26/01/2020 13:09:59	26012020	260120	130959	101.780	12.370293	-57.009255	101.740	0.180	-0.490	0.660	101.780	-2.100	1.100																			1580044199.0	11.41	21.13
26/01/2020 13:10:00	26012020	260120	131000	101.750	12.370283	-57.009207	101.740	0.120	0.160	0.500	101.750	-1.500	1.000	1016.50	26.20	26.30	18.10	18.10	507.00	60.00	60.00	375.00	27.50	352.00	11.00	85.00	5.40	38281	3158.00	27.40	27.30	1580044200.0	10.62	19.67
26/01/2020 13:10:01	26012020	260120	131001	101.780	12.370275	-57.009158	101.820	-0.050	0.450	0.400	101.780	-1.000	0.800																			1580044201.0	10.51	19.46
26/01/2020 13:10:02	26012020	260120	131002	101.930	12.370265	-57.009107	102.040	-0.110	0.310	0.340	101.930	-1.000	0.800																			1580044202.0	10.85	20.09
26/01/2020 13:10:03	26012020	260120	131003	102.180	12.370255	-57.009055	102.270	-0.010	-0.050	0.280	102.180	-1.300	0.700																			1580044203.0	11.16	20.67
26/01/2020 13:10:04	26012020	260120	131004	102.370	12.370245	-57.009003	102.360	0.190	-0.400	0.470	102.370	-1.700	0.800																			1580044204.0	11.24	20.82
26/01/2020 13:10:05	26012020	260120	131005	102.370	12.370232	-57.008952	102.200	0.430	-0.610	0.860	102.330	-1.900	1.100																			1580044205.0	11.16	20.67
26/01/2020 13:10:06	26012020	260120	131006	102.100	12.370220	-57.008902	101.980	0.580	-0.650	1.000	102.100	-2.100	1.400																			1580044206.0	11.08	20.52
26/01/2020 13:10:07	26012020	260120	131007	101.950	12.370212	-57.008850	101.930	0.480	-0.480	0.800	101.950	-2.000	1.300																			1580044207.0	11.01	20.39
26/01/2020 13:10:08	26012020	260120	131008	101.950	12.370203	-57.008800	101.950	0.110	-0.160	0.690	101.950	-1.700	1.100																			1580044208.0	10.80	20.00
26/01/2020 13:10:09	26012020	260120	131009	101.950	12.370193	-57.008750	101.940	-0.320	-0.050	0.810	101.950	-1.400	1.200																			1580044209.0	10.67	19.76
26/01/2020 13:10:10	26012020	260120	131010	101.910	12.370182	-57.008700	101.910	-0.550	-0.200	1.080	101.910	-1.500	1.400																			1580044210.0	10.97	20.32
26/01/2020 13:10:11	26012020	260120	131011	101.890	12.370168	-57.008648	101.920	-0.570	-0.290	1.300	101.890	-1.700	1.600																			1580044211.0	11.25	20.84
26/01/2020 13:10:12	26012020	260120	131012	101.900	12.370155	-57.008597	101.930	-0.500	-0.220	1.280	101.900	-1.600	1.700																			1580044212.0	11.11	20.58
26/01/2020 13:10:13	26012020	260120	131013	101.920	12.370142	-57.008547	101.970	-0.320	-0.210	1.090	101.920	-1.600	1.600																			1580044213.0	10.92	20.22
26/01/2020 13:10:14	26012020	260120	131014	101.960	12.370132	-57.008497	101.980	0.030	-0.370	0.790	101.960	-1.700	1.300																			1580044214.0	11.05	20.46
26/01/2020 13:10:15	26012020	260120	131015	101.960	12.370122	-57.008443	101.970	0.410	-0.430	0.470	101.960	-1.800	1.000																			1580044215.0	11.27	20.87
26/01/2020 13:10:16	26012020	260120	131016	101.980	12.370113	-57.008392	102.010	0.560	-0.170	0.290	101.980	-1.700	0.800																			1580044216.0	11.13	20.61
26/01/2020 13:10:17	26012020	260120	131017	102.000	12.370105	-57.008342	102.010	0.460	0.000	0.300	102.000	-1.400	0.700																			1580044217.0	10.74	19.89
26/01/2020 13:10:18	26012020	260120	131018	101.960	12.370097	-57.008292	101.930	0.350	-0.220	0.450	101.960	-1.500	0.800																			1580044218.0	10.91	20.21
26/01/2020 13:10:19	26012020	260120	131019	101.890	12.370087	-57.008238	101.890	0.280	-0.420	0.760	101.890	-1.800	1.000																			1580044219.0	11.35	21.02
26/01/2020 13:10:20	26012020	260120	131020	101.900	12.370075	-57.008187	102.010	0.080	-0.200	1.010	101.900	-1.700	1.300																			1580044220.0	11.21	20.76
26/01/2020 13:10:21	26012020	260120	131021	102.080	12.370063	-57.008138	102.180	-0.300	0.160	1.180	102.080	-1.400	1.500																			1580044221.0	10.67	19.76
26/01/2020 13:10:22	26012020	260120	131022	102.160	12.370050	-57.008090	102.180	-0.600	0.150	1.280	102.160	-1.200	1.700																			1580044222.0	10.55	19.54
26/01/2020 13:10:23	26012020	260120	131023	102.130	12.370038	-57.008038	102.150	-0.600	-0.230	1.130	102.130	-1.500	1.600																			1580044223.0	10.96	20.30
26/01/2020 13:10:24	26012020	260120	131024	102.140	12.370027	-57.007987	102.150	-0.320	-0.630	0.940	102.140	-1.900	1.400																			1580044224.0	11.31	20.95
26/01/2020 13:10:25	26012020	260120	131025	102.090	12.370015	-57.007935	102.050	0.030	-0.730	0.720	102.090	-2.100	1.200																			1580044225.0	11.30	20.93
26/01/2020 13:10:26	26012020	260120	131026	102.010	12.370005	-57.007883	102.000	0.220	-0.530	0.440	102.010	-2.000	0.900																			1580044226.0	11.01	20.39
26/01/2020 13:10:27	26012020	260120	131027	101.980	12.369995	-57.007833	101.950	0.280	-0.320	0.320	101.980	-1.800	0.800																			1580044227.0	10.80	20.00
26/01/2020 13:10:28	26012020	260120	131028	101.940	12.369985	-57.007783	101.900	0.380	-0.230	0.340	101.940	-1.700	0.700																			1580044228.0	10.90	20.19
26/01/2020 13:10:29	26012020	260120	131029	101.850	12.369977	-57.007732	101.800	0.480	-0.250	0.530	101.850	-1.600	0.900																			1580044229.0	11.11	20.58
26/01/2020 13:10:30	26012020	260120	131030	101.770	12.369965	-57.007680	101.760	0.410	-0.090	0.760	101.770	-1.600	1.100																			1580044230.0	11.20	20.74
26/01/2020 13:10:31	26012020	260120	131031	101.790	12.369955	-57.007628	101.840	0.110	0.080	0.970	101.790	-1.400	1.300																			1580044231.0	10.92	20.22
26/01/2020 13:10:32	26012020	260120	131032	101.840	12.369943	-57.007578	101.820	-0.170	-0.020	1.200	101.840	-1.400	1.500																			1580044232.0	10.90	20.19
26/01/2020 13:10:33	26012020	260120	131033	101.790	12.369932	-57.007527	101.800	-0.340	-0.110	1.320	101.790	-1.500	1.700																			1580044233.0	11.19	20.72
26/01/2020 13:10:34	26012020	260120	131034	101.810	12.369920	-57.007477	101.850	-0.460	-0.030	1.360	101.810	-1.500	1.800																			1580044234.0	10.98	20.33
26/01/2020 13:10:35	26012020	260120	131035	101.840	12.369907	-57.007427	101.860	-0.410	-0.160	1.180	101.840	-1.500	1.700																			1580044235.0	10.77	19.95
26/01/2020 13:10:36	26012020	260120	131036	101.830	12.369897	-57.007377	101.770	-0.140	-0.550	0.930	101.830	-1.800	1.400																			1580044236.0	11.08	20.52
26/01/2020 13:10:37	26012020	260120	131037	101.740	12.369885	-57.007323	101.670	0.110	-0.690	0.860	101.740	-2.100	1.300																			1580044237.0	11.37	21.06
26/01/2020 13:10:38	26012020	260120	131038	101.640	12.369875	-57.007273	101.590	0.150	-0.360	0.810	101.640	-1.900	1.200																			1580044238.0	10.98	20.33
26/01/2020 13:10:39	26012020	260120	131039	101.580	12.369865	-57.007223	101.530	0.100	-0.120	0.730	101.580	-1.600	1.200																			1580044239.0	10.54	19.52
26/01/2020 13:10:40	26012020	260120	131040	101.540	12.369855	-57.007173	101.480	0.200	-0.360	0.750	101.540	-1.600	1.100																			1580044240.0	10.85	20.09
26/01/2020 13:10:41	26012020	260120	131041	101.480	12.369845	-57.007120	101.390	0.390	-0.670	0.950	101.460	-2.000	1.300																			1580044241.0	11.47	21.24
26/01/2020 13:10:42	26012020	260120	131042	101.390	12.369833	-57.007067	101.400	0.400	-0.370	1.030	101.390	-2.000	1.400																			1580044242.0	11.47	21.24
26/01/2020 13:10:43	26012020	260120	131043	101.470	12.369823	-57.007018	101.530	0.130	0.410	0.910	101.470	-1.300	1.400																			1580044243.0	10.66	19.74
26/01/2020 13:10:44	26012020	260120	131044	101.650	12.369815	-57.006972	101.690	-0.190	0.680	0.700	101.650	-0.700	1.200																			1580044244.0	10.14	18.78
26/01/2020 13:10:45	26012020	260120	131045	101.720	12.369807	-57.006920	101.670	-0.230	-0.020	0.710	101.720	-1.100	1.100																			1580044245.0	10.79	19.98
26/01/2020 13:10:46	26012020	260120	131046	101.650	12.369795	-57.006867	101.550	-0.090	-0.800	0.990	101.620	-2.000	1.300																			1580044246.0	11.77	21.80
26/01/2020 13:10:47	26012020	260120	131047	101.500	12.369783	-57.006813	101.470	-0.110	-0.780	1.190	101.500	-2.300	1.500																			1580044247.0	11.59	21.46
26/01/2020 13:10:48	26012020	260120	131048	101.430	12.369772	-57.006763	101.380	-0.300	-0.380	1.250	101.420	-1.900	1.600																			1580044248.0	10.68	19.78
26/01/2020 13:10:49	26012020	260120	131049	101.290	12.369760	-57.006715	101.210	-0.310	-0.300	1.240	101.290	-1.700	1.700																			1580044249.0	10.50	19.45
26/01/2020 13:10:50	26012020	260120	131050	101.130	12.369748	-57.006665	101.040	-0.080	-0.440	1.100	101.130	-1.800	1.600																			1580044250.0	11.08	20.52
26/01/2020 13:10:51	26012020	260120	131051	100.970	12.369737	-57.006612	100.910	0.140	-0.260	0.820	100.970	-1.800	1.400																			1580044251.0	11.30	20.93
26/01/2020 13:10:52	26012020	260120	131052	100.900	12.369728	-57.006562	100.910	0.140	0.150	0.530	100.900	-1.400	1.000																			1580044252.0	10.85	20.09
26/01/2020 13:10:53	26012020	260120	131053	100.970	12.369720	-57.006512	101.040	0.090	0.230	0.370	100.970	-1.100	0.800																			1580044253.0	10.58	19.59
26/01/2020 13:10:54	26012020	260120	131054	101.160	12.369712	-57.006462	101.260	0.160	-0.090	0.350	101.160	-1.400	0.800																			1580044254.0	10.98	20.33
26/01/2020 13:10:55	26012020	260120	131055	101.330	12.369702	-57.006408	101.400	0.290	-0.370	0.570	101.360	-1.700	0.900																			1580044255.0	11.31	20.95
26/01/2020 13:10:56	26012020	260120	131056	101.450	12.369692	-57.006357	101.480	0.250	-0.340	0.920	101.450	-1.800	1.200																			1580044256.0	11.11	20.58
26/01/2020 13:10:57	26012020	260120	131057	101.520	12.369680	-57.006308	101.520	0.040	-0.190	1.190	101.520	-1.600	1.500																			1580044257.0	10.72	19.85
26/01/2020 13:10:58	26012020	260120	131058	101.500	12.369670	-57.006258	101.400	-0.110	-0.240	1.250	101.480	-1.600	1.700																			1580044258.0	10.62	19.67
26/01/2020 13:10:59	26012020	260120	131059	101.310	12.369660	-57.006208	101.240	-0.100	-0.530	1.080	101.310	-1.800	1.600																			1580044259.0	10.98	20.33
26/01/2020 13:11:00	26012020	260120	131100	101.200	12.369650	-57.006155	101.190	-0.010	-0.720	0.880	101.200	-2.100	1.400	1016.50	26.20	26.30	17.80	18.00	535.00	60.00	60.00	375.00	27.50	346.00	11.20	74.00	5.90	39607	3198.00	27.40	27.40	1580044260.0	11.27	20.87
26/01/2020 13:11:01	26012020	260120	131101	101.190	12.369642	-57.006103	101.200	-0.000	-0.560	0.820	101.190	-2.100	1.200																			1580044261.0	11.21	20.76
26/01/2020 13:11:02	26012020	260120	131102	101.220	12.369632	-57.006053	101.250	-0.190	-0.060	0.810	101.220	-1.700	1.200																			1580044262.0	10.86	20.11
26/01/2020 13:11:03	26012020	260120	131103	101.270	12.369620	-57.006003	101.290	-0.460	0.260	0.840	101.270	-1.200	1.200																			1580044263.0	10.52	19.48
26/01/2020 13:11:04	26012020	260120	131104	101.290	12.369610	-57.005955	101.280	-0.490	0.040	0.980	101.290	-1.200	1.300																			1580044264.0	10.78	19.96
26/01/2020 13:11:05	26012020	260120	131105	101.250	12.369597	-57.005902	101.190	-0.190	-0.350	1.090	101.250	-1.600	1.500																			1580044265.0	11.34	21.00
26/01/2020 13:11:06	26012020	260120	131106	101.150	12.369585	-57.005850	101.120	0.270	-0.530	1.090	101.150	-1.900	1.500																			1580044266.0	11.43	21.17
26/01/2020 13:11:07	26012020	260120	131107	101.100	12.369575	-57.005797	101.090	0.580	-0.410	0.900	101.100	-1.900	1.400																			1580044267.0	11.20	20.74
26/01/2020 13:11:08	26012020	260120	131108	101.100	12.369568	-57.005747	101.120	0.500	-0.080	0.550	101.100	-1.600	1.100																			1580044268.0	10.90	20.19
26/01/2020 13:11:09	26012020	260120	131109	101.150	12.369562	-57.005697	101.190	0.160	0.240	0.230	101.150	-1.300	0.800																			1580044269.0	10.63	19.69
26/01/2020 13:11:10	26012020	260120	131110	101.310	12.369553	-57.005647	101.390	-0.140	0.320	0.210	101.310	-1.100	0.600																			1580044270.0	10.55	19.54
26/01/2020 13:11:11	26012020	260120	131111	101.500	12.369545	-57.005597	101.520	-0.210	0.010	0.540	101.500	-1.200	0.800																			1580044271.0	10.75	19.91
26/01/2020 13:11:12	26012020	260120	131112	101.550	12.369533	-57.005547	101.470	-0.110	-0.560	0.870	101.540	-1.700	1.200																			1580044272.0	11.13	20.61
26/01/2020 13:11:13	26012020	260120	131113	101.420	12.369520	-57.005493	101.340	0.030	-0.990	1.110	101.420	-2.300	1.400																			1580044273.0	11.42	21.15
26/01/2020 13:11:14	26012020	260120	131114	101.310	12.369508	-57.005442	101.290	0.020	-0.810	1.180	101.310	-2.400	1.600																			1580044274.0	11.27	20.87
26/01/2020 13:11:15	26012020	260120	131115	101.330	12.369497	-57.005393	101.350	-0.140	-0.250	0.900	101.330	-1.900	1.400																			1580044275.0	10.62	19.67
26/01/2020 13:11:16	26012020	260120	131116	101.370	12.369488	-57.005345	101.310	-0.130	-0.050	0.580	101.360	-1.500	1.100																			1580044276.0	10.36	19.19
26/01/2020 13:11:17	26012020	260120	131117	101.290	12.369480	-57.005293	101.200	0.090	-0.320	0.460	101.290	-1.600	0.900																			1580044277.0	11.01	20.39
26/01/2020 13:11:18	26012020	260120	131118	101.200	12.369470	-57.005240	101.110	0.240	-0.460	0.520	101.180	-1.900	0.900																			1580044278.0	11.49	21.28
26/01/2020 13:11:19	26012020	260120	131119	101.140	12.369462	-57.005187	101.160	0.110	-0.210	0.620	101.140	-1.800	1.000																			1580044279.0	11.26	20.85
26/01/2020 13:11:20	26012020	260120	131120	101.230	12.369452	-57.005138	101.270	-0.240	0.130	0.770	101.230	-1.400	1.100																			1580044280.0	10.76	19.93
26/01/2020 13:11:21	26012020	260120	131121	101.310	12.369440	-57.005088	101.290	-0.480	0.150	0.960	101.310	-1.200	1.300																			1580044281.0	10.70	19.82
26/01/2020 13:11:22	26012020	260120	131122	101.270	12.369428	-57.005037	101.230	-0.410	-0.030	1.120	101.270	-1.400	1.500																			1580044282.0	11.06	20.48
26/01/2020 13:11:23	26012020	260120	131123	101.230	12.369417	-57.004987	101.250	-0.160	-0.180	1.080	101.230	-1.500	1.500																			1580044283.0	11.15	20.65
26/01/2020 13:11:24	26012020	260120	131124	101.300	12.369405	-57.004935	101.330	0.150	-0.340	0.790	101.300	-1.700	1.300																			1580044284.0	11.08	20.52
26/01/2020 13:11:25	26012020	260120	131125	101.380	12.369397	-57.004883	101.420	0.390	-0.400	0.510	101.380	-1.800	1.000																			1580044285.0	11.10	20.56
26/01/2020 13:11:26	26012020	260120	131126	101.490	12.369388	-57.004832	101.630	0.410	-0.170	0.300	101.540	-1.700	0.800																			1580044286.0	10.96	20.30
26/01/2020 13:11:27	26012020	260120	131127	101.800	12.369380	-57.004783	101.890	0.190	0.210	0.190	101.800	-1.300	0.600																			1580044287.0	10.51	19.46
26/01/2020 13:11:28	26012020	260120	131128	102.010	12.369372	-57.004735	102.050	-0.060	0.170	0.300	102.050	-1.100	0.600																			1580044288.0	10.31	19.09
26/01/2020 13:11:29	26012020	260120	131129	102.090	12.369362	-57.004685	101.960	-0.000	-0.560	0.640	102.090	-1.600	0.900																			1580044289.0	10.82	20.04
26/01/2020 13:11:30	26012020	260120	131130	101.990	12.369348	-57.004632	101.770	0.330	-1.360	0.960	101.950	-2.500	1.300																			1580044290.0	11.68	21.63
26/01/2020 13:11:31	26012020	260120	131131	101.760	12.369337	-57.004577	101.550	0.420	-1.150	1.100	101.720	-2.800	1.500																			1580044291.0	11.74	21.74
26/01/2020 13:11:32	26012020	260120	131132	101.540	12.369327	-57.004528	101.440	-0.040	-0.080	0.950	101.540	-1.900	1.400																			1580044292.0	10.60	19.63
26/01/2020 13:11:33	26012020	260120	131133	101.490	12.369318	-57.004482	101.440	-0.620	0.610	0.760	101.490	-0.900	1.200																			1580044293.0	9.83	18.21
26/01/2020 13:11:34	26012020	260120	131134	101.530	12.369308	-57.004433	101.450	-0.700	0.270	0.640	101.530	-0.900	1.100																			1580044294.0	10.49	19.43
26/01/2020 13:11:35	26012020	260120	131135	101.510	12.369297	-57.004380	101.390	-0.320	-0.440	0.630	101.510	-1.600	1.000																			1580044295.0	11.62	21.52
26/01/2020 13:11:36	26012020	260120	131136	101.450	12.369285	-57.004325	101.360	0.050	-0.620	0.740	101.440	-2.000	1.100																			1580044296.0	11.81	21.87
26/01/2020 13:11:37	26012020	260120	131137	101.510	12.369275	-57.004273	101.550	0.120	-0.180	0.770	101.510	-1.800	1.200																			1580044297.0	11.07	20.50
26/01/2020 13:11:38	26012020	260120	131138	101.770	12.369263	-57.004227	101.810	-0.010	0.190	0.700	101.770	-1.300	1.200																			1580044298.0	10.42	19.30
26/01/2020 13:11:39	26012020	260120	131139	101.990	12.369253	-57.004177	101.950	-0.070	0.110	0.590	101.990	-1.200	1.000																			1580044299.0	10.56	19.56
26/01/2020 13:11:40	26012020	260120	131140	102.050	12.369243	-57.004127	101.940	0.040	-0.120	0.550	102.050	-1.500	1.000																			1580044300.0	11.02	20.41
26/01/2020 13:11:41	26012020	260120	131141	102.000	12.369233	-57.004075	101.920	0.170	-0.160	0.500	102.000	-1.600	0.900																			1580044301.0	11.02	20.41
26/01/2020 13:11:42	26012020	260120	131142	102.000	12.369225	-57.004025	101.980	0.210	-0.200	0.300	102.010	-1.600	0.800																			1580044302.0	10.73	19.87
26/01/2020 13:11:43	26012020	260120	131143	102.110	12.369215	-57.003975	102.070	0.180	-0.450	0.080	102.110	-1.700	0.600																			1580044303.0	10.79	19.98
26/01/2020 13:11:44	26012020	260120	131144	102.190	12.369207	-57.003923	102.090	0.130	-0.660	0.090	102.190	-2.000	0.500																			1580044304.0	11.06	20.48
26/01/2020 13:11:45	26012020	260120	131145	102.150	12.369195	-57.003873	101.980	0.030	-0.480	0.320	102.130	-2.000	0.600																			1580044305.0	11.01	20.39
26/01/2020 13:11:46	26012020	260120	131146	102.040	12.369183	-57.003823	101.930	-0.070	-0.100	0.460	102.040	-1.600	0.800																			1580044306.0	10.57	19.58
26/01/2020 13:11:47	26012020	260120	131147	102.010	12.369172	-57.003775	101.910	-0.010	-0.040	0.450	102.010	-1.400	0.900																			1580044307.0	10.49	19.43
26/01/2020 13:11:48	26012020	260120	131148	102.010	12.369163	-57.003725	101.920	0.180	-0.360	0.320	102.010	-1.600	0.800																			1580044308.0	10.97	20.32
26/01/2020 13:11:49	26012020	260120	131149	101.980	12.369153	-57.003672	101.840	0.250	-0.620	0.310	101.980	-2.000	0.700																			1580044309.0	11.39	21.09
26/01/2020 13:11:50	26012020	260120	131150	101.880	12.369143	-57.003620	101.730	0.090	-0.560	0.570	101.880	-2.000	0.900																			1580044310.0	11.26	20.85
26/01/2020 13:11:51	26012020	260120	131151	101.750	12.369130	-57.003570	101.610	-0.140	-0.270	0.860	101.750	-1.800	1.200																			1580044311.0	10.92	20.22
26/01/2020 13:11:52	26012020	260120	131152	101.650	12.369118	-57.003520	101.560	-0.250	-0.020	0.860	101.650	-1.500	1.300																			1580044312.0	10.78	19.96
26/01/2020 13:11:53	26012020	260120	131153	101.670	12.369108	-57.003470	101.630	-0.320	0.130	0.760	101.670	-1.300	1.200																			1580044313.0	10.88	20.15
26/01/2020 13:11:54	26012020	260120	131154	101.740	12.369097	-57.003420	101.700	-0.430	0.260	0.720	101.740	-1.200	1.100																			1580044314.0	10.88	20.15
26/01/2020 13:11:55	26012020	260120	131155	101.790	12.369085	-57.003370	101.710	-0.430	0.180	0.740	101.790	-1.200	1.100																			1580044315.0	10.75	19.91
26/01/2020 13:11:56	26012020	260120	131156	101.770	12.369073	-57.003320	101.690	-0.170	-0.260	0.780	101.770	-1.500	1.200																			1580044316.0	10.95	20.28
26/01/2020 13:11:57	26012020	260120	131157	101.750	12.369062	-57.003267	101.670	0.230	-0.650	0.680	101.750	-2.000	1.100																			1580044317.0	11.33	20.98
26/01/2020 13:11:58	26012020	260120	131158	101.760	12.369052	-57.003215	101.690	0.460	-0.480	0.550	101.760	-2.000	1.000																			1580044318.0	11.17	20.69
26/01/2020 13:11:59	26012020	260120	131159	101.790	12.369042	-57.003167	101.710	0.410	-0.050	0.490	101.790	-1.600	0.900																			1580044319.0	10.50	19.45
26/01/2020 13:12:00	26012020	260120	131200	101.820	12.369033	-57.003118	101.730	0.320	-0.020	0.490	101.820	-1.400	0.900	1016.50	26.20	26.30	18.00	18.10	544.00	60.00	60.00	375.00	27.60	351.00	11.20	83.00	5.70	40193	3107.00	27.40	27.40	1580044320.0	10.33	19.13
26/01/2020 13:12:01	26012020	260120	131201	101.820	12.369025	-57.003068	101.690	0.370	-0.430	0.580	101.820	-1.700	0.900																			1580044321.0	10.88	20.15
26/01/2020 13:12:02	26012020	260120	131202	101.770	12.369015	-57.003015	101.630	0.450	-0.700	0.730	101.760	-2.100	1.100																			1580044322.0	11.35	21.02
26/01/2020 13:12:03	26012020	260120	131203	101.680	12.369005	-57.002963	101.540	0.310	-0.550	0.950	101.680	-2.100	1.300																			1580044323.0	11.14	20.63
26/01/2020 13:12:04	26012020	260120	131204	101.570	12.368993	-57.002913	101.440	-0.070	-0.190	1.280	101.570	-1.700	1.600																			1580044324.0	10.73	19.87
26/01/2020 13:12:05	26012020	260120	131205	101.480	12.368983	-57.002865	101.450	-0.490	0.050	1.540	101.480	-1.400	1.900																			1580044325.0	10.58	19.59
26/01/2020 13:12:06	26012020	260120	131206	101.540	12.368970	-57.002817	101.530	-0.670	-0.030	1.590	101.540	-1.400	2.000																			1580044326.0	10.73	19.87
26/01/2020 13:12:07	26012020	260120	131207	101.570	12.368958	-57.002765	101.480	-0.540	-0.420	1.550	101.570	-1.700	2.000																			1580044327.0	11.14	20.63
26/01/2020 13:12:08	26012020	260120	131208	101.440	12.368945	-57.002712	101.300	-0.250	-0.750	1.340	101.440	-2.100	1.900																			1580044328.0	11.50	21.30
26/01/2020 13:12:09	26012020	260120	131209	101.290	12.368933	-57.002660	101.250	0.040	-0.530	0.920	101.290	-2.100	1.500																			1580044329.0	11.38	21.08
26/01/2020 13:12:10	26012020	260120	131210	101.390	12.368925	-57.002610	101.460	0.110	0.230	0.460	101.390	-1.500	1.000																			1580044330.0	10.76	19.93
26/01/2020 13:12:11	26012020	260120	131211	101.670	12.368918	-57.002562	101.720	-0.000	0.800	0.140	101.670	-0.800	0.600																			1580044331.0	10.11	18.72
26/01/2020 13:12:12	26012020	260120	131212	101.860	12.368910	-57.002513	101.820	0.060	0.430	0.100	101.860	-0.700	0.500																			1580044332.0	10.35	19.17
26/01/2020 13:12:13	26012020	260120	131213	101.930	12.368902	-57.002462	101.910	0.370	-0.500	0.220	101.930	-1.600	0.600																			1580044333.0	11.33	20.98
26/01/2020 13:12:14	26012020	260120	131214	102.060	12.368892	-57.002407	102.100	0.580	-0.910	0.320	102.060	-2.300	0.700																			1580044334.0	11.72	21.71
26/01/2020 13:12:15	26012020	260120	131215	102.260	12.368882	-57.002357	102.250	0.380	-0.510	0.430	102.260	-2.100	0.800																			1580044335.0	10.96	20.30
26/01/2020 13:12:16	26012020	260120	131216	102.350	12.368872	-57.002308	102.250	-0.050	0.000	0.580	102.350	-1.600	0.900																			1580044336.0	10.09	18.69
26/01/2020 13:12:17	26012020	260120	131217	102.280	12.368862	-57.002262	102.120	-0.330	-0.080	0.760	102.280	-1.400	1.100																			1580044337.0	10.21	18.91
26/01/2020 13:12:18	26012020	260120	131218	102.110	12.368850	-57.002212	101.920	-0.250	-0.700	0.930	102.110	-1.900	1.300																			1580044338.0	11.00	20.37
26/01/2020 13:12:19	26012020	260120	131219	101.890	12.368838	-57.002158	101.740	-0.000	-1.210	0.960	101.890	-2.500	1.400																			1580044339.0	11.64	21.56
26/01/2020 13:12:20	26012020	260120	131220	101.710	12.368825	-57.002105	101.590	0.100	-0.920	0.920	101.710	-2.600	1.400																			1580044340.0	11.55	21.39
26/01/2020 13:12:21	26012020	260120	131221	101.620	12.368815	-57.002055	101.510	-0.110	0.110	0.660	101.600	-1.700	1.200																			1580044341.0	10.71	19.83
26/01/2020 13:12:22	26012020	260120	131222	101.600	12.368805	-57.002008	101.560	-0.410	0.840	0.290	101.600	-0.800	0.800																			1580044342.0	10.03	18.58
26/01/2020 13:12:23	26012020	260120	131223	101.730	12.368797	-57.001960	101.770	-0.480	0.710	0.080	101.730	-0.600	0.600																			1580044343.0	10.42	19.30
26/01/2020 13:12:24	26012020	260120	131224	101.990	12.368787	-57.001908	102.030	-0.250	0.080	0.000	101.990	-1.100	0.400																			1580044344.0	11.19	20.72
26/01/2020 13:12:25	26012020	260120	131225	102.200	12.368775	-57.001855	102.120	0.150	-0.560	0.200	102.200	-1.800	0.500																			1580044345.0	11.49	21.28
26/01/2020 13:12:26	26012020	260120	131226	102.150	12.368763	-57.001803	101.970	0.460	-0.800	0.500	102.150	-2.200	0.800																			1580044346.0	11.39	21.09
26/01/2020 13:12:27	26012020	260120	131227	101.990	12.368753	-57.001752	101.870	0.440	-0.480	0.740	101.990	-2.100	1.100																			1580044347.0	10.92	20.22
26/01/2020 13:12:28	26012020	260120	131228	101.990	12.368743	-57.001705	101.970	0.060	0.070	0.850	101.990	-1.500	1.200																			1580044348.0	10.33	19.13
26/01/2020 13:12:29	26012020	260120	131229	102.150	12.368733	-57.001658	102.110	-0.300	0.240	0.760	102.150	-1.200	1.200																			1580044349.0	10.10	18.71
26/01/2020 13:12:30	26012020	260120	131230	102.200	12.368722	-57.001608	102.020	-0.230	-0.290	0.710	102.190	-1.400	1.100																			1580044350.0	10.64	19.71
26/01/2020 13:12:31	26012020	260120	131231	101.970	12.368710	-57.001555	101.760	0.200	-0.930	0.770	101.970	-2.200	1.100																			1580044351.0	11.47	21.24
26/01/2020 13:12:32	26012020	260120	131232	101.730	12.368698	-57.001502	101.610	0.490	-0.860	0.750	101.730	-2.400	1.200																			1580044352.0	11.53	21.35
26/01/2020 13:12:33	26012020	260120	131233	101.690	12.368690	-57.001453	101.660	0.360	-0.220	0.700	101.690	-1.900	1.100																			1580044353.0	10.71	19.83
26/01/2020 13:12:34	26012020	260120	131234	101.810	12.368682	-57.001405	101.800	0.010	0.190	0.690	101.810	-1.300	1.100																			1580044354.0	10.24	18.96
26/01/2020 13:12:35	26012020	260120	131235	101.920	12.368672	-57.001355	101.850	-0.280	0.110	0.830	101.930	-1.200	1.200																			1580044355.0	10.64	19.71
26/01/2020 13:12:36	26012020	260120	131236	101.970	12.368658	-57.001305	101.920	-0.440	-0.010	1.000	101.970	-1.400	1.300																			1580044356.0	11.10	20.56
26/01/2020 13:12:37	26012020	260120	131237	102.060	12.368647	-57.001255	102.020	-0.450	-0.020	1.160	102.060	-1.400	1.500																			1580044357.0	10.92	20.22
26/01/2020 13:12:38	26012020	260120	131238	102.120	12.368635	-57.001205	102.030	-0.220	-0.350	1.260	102.120	-1.600	1.600																			1580044358.0	10.77	19.95
26/01/2020 13:12:39	26012020	260120	131239	102.060	12.368622	-57.001153	101.900	0.200	-0.900	1.210	102.060	-2.100	1.600																			1580044359.0	11.26	20.85
26/01/2020 13:12:40	26012020	260120	131240	101.880	12.368612	-57.001100	101.740	0.440	-0.880	1.030	101.880	-2.400	1.500																			1580044360.0	11.49	21.28
26/01/2020 13:12:41	26012020	260120	131241	101.780	12.368603	-57.001050	101.700	0.300	-0.200	0.710	101.780	-1.900	1.200																			1580044361.0	10.82	20.04
26/01/2020 13:12:42	26012020	260120	131242	101.830	12.368595	-57.001002	101.790	-0.040	0.390	0.460	101.830	-1.200	0.900																			1580044362.0	10.21	18.91
26/01/2020 13:12:43	26012020	260120	131243	101.940	12.368587	-57.000953	101.860	-0.280	0.390	0.460	101.940	-1.000	0.800																			1580044363.0	10.43	19.32
26/01/2020 13:12:44	26012020	260120	131244	101.990	12.368575	-57.000903	101.890	-0.300	0.070	0.570	101.990	-1.200	0.900																			1580044364.0	11.01	20.39
26/01/2020 13:12:45	26012020	260120	131245	102.030	12.368562	-57.000852	101.950	-0.110	-0.090	0.600	102.030	-1.500	1.000																			1580044365.0	11.14	20.63
26/01/2020 13:12:46	26012020	260120	131246	102.070	12.368552	-57.000802	102.000	0.230	-0.210	0.430	102.070	-1.600	0.900																			1580044366.0	10.81	20.02
26/01/2020 13:12:47	26012020	260120	131247	102.100	12.368542	-57.000752	101.980	0.590	-0.570	0.190	102.100	-1.800	0.700																			1580044367.0	10.87	20.13
26/01/2020 13:12:48	26012020	260120	131248	102.040	12.368533	-57.000700	101.920	0.700	-0.690	0.080	102.040	-2.100	0.500																			1580044368.0	11.18	20.71
26/01/2020 13:12:49	26012020	260120	131249	102.010	12.368527	-57.000648	101.940	0.350	-0.300	0.150	102.010	-1.900	0.500																			1580044369.0	10.80	20.00
26/01/2020 13:12:50	26012020	260120	131250	102.070	12.368518	-57.000602	102.020	-0.210	0.010	0.380	102.070	-1.500	0.700																			1580044370.0	10.22	18.93
26/01/2020 13:12:51	26012020	260120	131251	102.100	12.368507	-57.000553	101.910	-0.540	-0.310	0.840	102.100	-1.500	1.000																			1580044371.0	10.49	19.43
26/01/2020 13:12:52	26012020	260120	131252	101.850	12.368492	-57.000502	101.620	-0.450	-0.910	1.290	101.850	-2.100	1.500																			1580044372.0	11.33	20.98
26/01/2020 13:12:53	26012020	260120	131253	101.540	12.368477	-57.000448	101.330	-0.170	-1.070	1.520	101.540	-2.500	1.900																			1580044373.0	11.67	21.61
26/01/2020 13:12:54	26012020	260120	131254	101.310	12.368463	-57.000397	101.180	-0.040	-0.480	1.370	101.310	-2.200	1.900																			1580044374.0	11.19	20.72
26/01/2020 13:12:55	26012020	260120	131255	101.230	12.368453	-57.000348	101.140	-0.180	0.350	0.950	101.230	-1.400	1.500																			1580044375.0	10.46	19.37
26/01/2020 13:12:56	26012020	260120	131256	101.250	12.368445	-57.000302	101.230	-0.350	0.740	0.480	101.250	-0.700	1.000																			1580044376.0	10.29	19.06
26/01/2020 13:12:57	26012020	260120	131257	101.390	12.368437	-57.000250	101.400	-0.240	0.440	0.240	101.390	-0.800	0.700																			1580044377.0	10.75	19.91
26/01/2020 13:12:58	26012020	260120	131258	101.610	12.368427	-57.000198	101.630	0.100	-0.060	0.280	101.610	-1.300	0.700																			1580044378.0	11.33	20.98
26/01/2020 13:12:59	26012020	260120	131259	101.770	12.368417	-57.000147	101.740	0.400	-0.280	0.430	101.790	-1.700	0.800																			1580044379.0	11.27	20.87
26/01/2020 13:13:00	26012020	260120	131300	101.880	12.368407	-57.000097	101.820	0.460	-0.150	0.500	101.880	-1.600	0.900	1016.50	26.20	26.30	18.00	18.10	548.00	60.00	60.00	375.00	27.60	353.00	11.20	88.00	5.70	40561	3069.00	27.40	27.40	1580044380.0	10.78	19.96
26/01/2020 13:13:01	26012020	260120	131301	101.940	12.368397	-57.000048	101.850	0.370	-0.140	0.590	101.940	-1.500	1.000																			1580044381.0	10.36	19.19
26/01/2020 13:13:02	26012020	260120	131302	101.930	12.368388	-56.999998	101.810	0.340	-0.530	0.670	101.930	-1.800	1.100																			1580044382.0	10.59	19.61
26/01/2020 13:13:03	26012020	260120	131303	101.910	12.368378	-56.999947	101.780	0.330	-0.890	0.670	101.910	-2.200	1.100																			1580044383.0	11.11	20.58
26/01/2020 13:13:04	26012020	260120	131304	101.840	12.368368	-56.999895	101.660	0.150	-0.800	0.860	101.840	-2.300	1.200																			1580044384.0	11.04	20.45
26/01/2020 13:13:05	26012020	260120	131305	101.640	12.368357	-56.999847	101.450	-0.180	-0.400	1.080	101.640	-2.000	1.400																			1580044385.0	10.61	19.65
26/01/2020 13:13:06	26012020	260120	131306	101.480	12.368347	-56.999798	101.330	-0.480	-0.130	1.040	101.450	-1.600	1.500																			1580044386.0	10.47	19.39
26/01/2020 13:13:07	26012020	260120	131307	101.370	12.368335	-56.999748	101.230	-0.580	-0.190	0.930	101.370	-1.500	1.400																			1580044387.0	10.77	19.95
26/01/2020 13:13:08	26012020	260120	131308	101.220	12.368323	-56.999697	101.090	-0.420	-0.430	0.820	101.220	-1.800	1.300																			1580044388.0	11.19	20.72
26/01/2020 13:13:09	26012020	260120	131309	101.160	12.368312	-56.999645	101.130	-0.150	-0.450	0.690	101.160	-1.900	1.100																			1580044389.0	11.39	21.09
26/01/2020 13:13:10	26012020	260120	131310	101.250	12.368302	-56.999593	101.280	0.020	-0.040	0.560	101.280	-1.700	1.000																			1580044390.0	11.09	20.54
26/01/2020 13:13:11	26012020	260120	131311	101.400	12.368292	-56.999545	101.400	0.010	0.440	0.340	101.430	-1.100	0.800																			1580044391.0	10.58	19.59
26/01/2020 13:13:12	26012020	260120	131312	101.510	12.368283	-56.999495	101.450	-0.030	0.480	0.250	101.520	-0.900	0.700																			1580044392.0	10.48	19.41
26/01/2020 13:13:13	26012020	260120	131313	101.560	12.368273	-56.999445	101.550	0.080	0.080	0.350	101.580	-1.200	0.700																			1580044393.0	10.89	20.17
26/01/2020 13:13:14	26012020	260120	131314	101.730	12.368263	-56.999393	101.730	0.270	-0.300	0.450	101.730	-1.600	0.800																			1580044394.0	11.17	20.69
26/01/2020 13:13:15	26012020	260120	131315	101.900	12.368253	-56.999342	101.860	0.460	-0.430	0.570	101.900	-1.800	0.900																			1580044395.0	10.97	20.32
26/01/2020 13:13:16	26012020	260120	131316	101.960	12.368243	-56.999293	101.840	0.540	-0.410	0.760	101.960	-1.800	1.100																			1580044396.0	10.70	19.82
26/01/2020 13:13:17	26012020	260120	131317	101.890	12.368233	-56.999243	101.770	0.360	-0.370	0.920	101.890	-1.800	1.300																			1580044397.0	10.59	19.61
26/01/2020 13:13:18	26012020	260120	131318	101.830	12.368225	-56.999195	101.760	-0.010	-0.410	0.970	101.830	-1.800	1.400																			1580044398.0	10.59	19.61
26/01/2020 13:13:19	26012020	260120	131319	101.800	12.368215	-56.999145	101.660	-0.300	-0.580	1.020	101.800	-1.900	1.400																			1580044399.0	10.71	19.83
26/01/2020 13:13:20	26012020	260120	131320	101.580	12.368203	-56.999093	101.320	-0.330	-0.830	1.190	101.580	-2.200	1.500																			1580044400.0	11.01	20.39
26/01/2020 13:13:21	26012020	260120	131321	101.180	12.368192	-56.999042	100.950	-0.240	-0.850	1.260	101.180	-2.300	1.700																			1580044401.0	11.31	20.95
26/01/2020 13:13:22	26012020	260120	131322	100.900	12.368178	-56.998990	100.830	-0.240	-0.370	1.080	100.900	-2.000	1.600																			1580044402.0	11.14	20.63
26/01/2020 13:13:23	26012020	260120	131323	100.920	12.368168	-56.998942	100.950	-0.340	0.300	0.670	100.920	-1.400	1.300																			1580044403.0	10.60	19.63
26/01/2020 13:13:24	26012020	260120	131324	101.120	12.368160	-56.998893	101.140	-0.280	0.520	0.270	101.120	-0.900	0.800																			1580044404.0	10.43	19.32
26/01/2020 13:13:25	26012020	260120	131325	101.260	12.368150	-56.998842	101.260	0.060	0.110	0.110	101.290	-1.100	0.500																			1580044405.0	10.99	20.35
26/01/2020 13:13:26	26012020	260120	131326	101.400	12.368140	-56.998788	101.400	0.400	-0.260	0.190	101.400	-1.600	0.600																			1580044406.0	11.54	21.37
26/01/2020 13:13:27	26012020	260120	131327	101.590	12.368130	-56.998737	101.640	0.410	-0.060	0.270	101.590	-1.600	0.700																			1580044407.0	11.15	20.65
26/01/2020 13:13:28	26012020	260120	131328	101.790	12.368122	-56.998688	101.890	0.180	0.220	0.360	101.850	-1.300	0.700																			1580044408.0	10.38	19.22
26/01/2020 13:13:29	26012020	260120	131329	102.090	12.368113	-56.998640	102.080	-0.040	0.050	0.560	102.090	-1.300	0.900																			1580044409.0	10.33	19.13
26/01/2020 13:13:30	26012020	260120	131330	102.180	12.368102	-56.998590	102.090	-0.140	-0.410	0.900	102.190	-1.700	1.200																			1580044410.0	10.82	20.04
26/01/2020 13:13:31	26012020	260120	131331	102.110	12.368090	-56.998540	101.940	-0.110	-0.800	1.180	102.110	-2.100	1.500																			1580044411.0	11.03	20.43
26/01/2020 13:13:32	26012020	260120	131332	101.920	12.368078	-56.998490	101.710	0.040	-0.980	1.220	101.920	-2.400	1.600																			1580044412.0	11.01	20.39
26/01/2020 13:13:33	26012020	260120	131333	101.640	12.368067	-56.998438	101.410	0.200	-0.900	1.110	101.640	-2.400	1.600																			1580044413.0	11.00	20.37
26/01/2020 13:13:34	26012020	260120	131334	101.350	12.368057	-56.998388	101.200	0.150	-0.450	0.910	101.350	-2.100	1.400																			1580044414.0	10.90	20.19
26/01/2020 13:13:35	26012020	260120	131335	101.250	12.368048	-56.998338	101.220	-0.100	0.150	0.560	101.250	-1.500	1.100																			1580044415.0	10.56	19.56
26/01/2020 13:13:36	26012020	260120	131336	101.370	12.368040	-56.998290	101.460	-0.350	0.480	0.260	101.420	-1.000	0.800																			1580044416.0	10.45	19.35
26/01/2020 13:13:37	26012020	260120	131337	101.670	12.368030	-56.998240	101.660	-0.380	0.330	0.310	101.670	-1.000	0.700																			1580044417.0	10.69	19.80
26/01/2020 13:13:38	26012020	260120	131338	101.750	12.368017	-56.998190	101.620	-0.100	-0.230	0.490	101.750	-1.400	0.800																			1580044418.0	11.16	20.67
26/01/2020 13:13:39	26012020	260120	131339	101.670	12.368005	-56.998137	101.580	0.240	-0.670	0.550	101.670	-2.000	1.000																			1580044419.0	11.54	21.37
26/01/2020 13:13:40	26012020	260120	131340	101.730	12.367995	-56.998083	101.750	0.290	-0.400	0.490	101.730	-2.000	0.900																			1580044420.0	11.22	20.78
26/01/2020 13:13:41	26012020	260120	131341	101.980	12.367987	-56.998037	102.020	0.020	0.170	0.450	101.980	-1.400	0.900																			1580044421.0	10.32	19.11
26/01/2020 13:13:42	26012020	260120	131342	102.200	12.367978	-56.997990	102.110	-0.190	0.160	0.520	102.200	-1.200	0.900																			1580044422.0	10.07	18.65
26/01/2020 13:13:43	26012020	260120	131343	102.170	12.367967	-56.997940	101.980	-0.070	-0.500	0.670	102.170	-1.600	1.000																			1580044423.0	10.87	20.13
26/01/2020 13:13:44	26012020	260120	131344	101.920	12.367955	-56.997887	101.680	0.200	-0.990	0.860	101.920	-2.300	1.200																			1580044424.0	11.55	21.39
26/01/2020 13:13:45	26012020	260120	131345	101.610	12.367943	-56.997833	101.430	0.320	-0.770	0.860	101.610	-2.400	1.300																			1580044425.0	11.32	20.96
26/01/2020 13:13:46	26012020	260120	131346	101.460	12.367933	-56.997785	101.400	0.150	-0.100	0.710	101.460	-1.800	1.200																			1580044426.0	10.61	19.65
26/01/2020 13:13:47	26012020	260120	131347	101.530	12.367925	-56.997737	101.540	-0.150	0.310	0.600	101.530	-1.200	1.000																			1580044427.0	10.26	19.00
26/01/2020 13:13:48	26012020	260120	131348	101.700	12.367915	-56.997687	101.680	-0.290	0.150	0.610	101.700	-1.200	1.000																			1580044428.0	10.66	19.74
26/01/2020 13:13:49	26012020	260120	131349	101.770	12.367903	-56.997637	101.740	-0.280	-0.050	0.760	101.780	-1.400	1.100																			1580044429.0	11.20	20.74
26/01/2020 13:13:50	26012020	260120	131350	101.840	12.367890	-56.997585	101.880	-0.260	-0.040	0.870	101.860	-1.500	1.300																			1580044430.0	11.02	20.41
26/01/2020 13:13:51	26012020	260120	131351	102.030	12.367878	-56.997537	102.050	-0.180	-0.040	0.870	102.030	-1.400	1.300																			1580044431.0	10.65	19.72
26/01/2020 13:13:52	26012020	260120	131352	102.140	12.367867	-56.997487	102.070	0.050	-0.260	0.860	102.140	-1.600	1.300																			1580044432.0	10.65	19.72
26/01/2020 13:13:53	26012020	260120	131353	102.120	12.367857	-56.997437	102.000	0.370	-0.650	0.710	102.120	-1.900	1.200																			1580044433.0	10.94	20.26
26/01/2020 13:13:54	26012020	260120	131354	102.060	12.367848	-56.997385	101.870	0.570	-0.820	0.630	102.040	-2.200	1.100																			1580044434.0	11.18	20.71
26/01/2020 13:13:55	26012020	260120	131355	101.910	12.367840	-56.997333	101.730	0.480	-0.560	0.650	101.910	-2.100	1.100																			1580044435.0	10.94	20.26
26/01/2020 13:13:56	26012020	260120	131356	101.780	12.367832	-56.997285	101.630	0.140	-0.220	0.750	101.780	-1.700	1.100																			1580044436.0	10.58	19.59
26/01/2020 13:13:57	26012020	260120	131357	101.710	12.367822	-56.997235	101.590	-0.200	-0.080	0.970	101.710	-1.500	1.300																			1580044437.0	10.63	19.69
26/01/2020 13:13:58	26012020	260120	131358	101.700	12.367808	-56.997185	101.640	-0.320	-0.150	1.050	101.700	-1.500	1.500																			1580044438.0	10.90	20.19
26/01/2020 13:13:59	26012020	260120	131359	101.720	12.367797	-56.997133	101.620	-0.250	-0.280	1.000	101.720	-1.700	1.400																			1580044439.0	11.15	20.65
26/01/2020 13:14:00	26012020	260120	131400	101.650	12.367785	-56.997082	101.530	-0.160	-0.240	1.040	101.650	-1.700	1.400	1016.50	26.20	26.30	18.00	18.10	570.00	60.00	60.00	375.00	27.60	352.00	11.00	86.00	5.50	41656	3334.00	27.40	27.40	1580044440.0	11.19	20.72
26/01/2020 13:14:01	26012020	260120	131401	101.590	12.367773	-56.997032	101.580	-0.240	0.050	1.050	101.590	-1.500	1.500																			1580044441.0	10.93	20.24
26/01/2020 13:14:02	26012020	260120	131402	101.710	12.367763	-56.996983	101.740	-0.360	0.290	0.880	101.710	-1.200	1.400																			1580044442.0	10.55	19.54
26/01/2020 13:14:03	26012020	260120	131403	101.890	12.367753	-56.996933	101.850	-0.320	0.140	0.630	101.890	-1.200	1.100																			1580044443.0	10.57	19.58
26/01/2020 13:14:04	26012020	260120	131404	101.940	12.367743	-56.996883	101.840	-0.080	-0.300	0.540	101.940	-1.500	1.000																			1580044444.0	10.97	20.32
26/01/2020 13:14:05	26012020	260120	131405	101.890	12.367733	-56.996832	101.780	0.250	-0.690	0.530	101.890	-2.000	0.900																			1580044445.0	11.21	20.76
26/01/2020 13:14:06	26012020	260120	131406	101.850	12.367723	-56.996780	101.740	0.490	-0.640	0.490	101.850	-2.100	0.900																			1580044446.0	11.13	20.61
26/01/2020 13:14:07	26012020	260120	131407	101.830	12.367713	-56.996730	101.700	0.450	-0.200	0.620	101.830	-1.800	1.000																			1580044447.0	10.65	19.72
26/01/2020 13:14:08	26012020	260120	131408	101.780	12.367703	-56.996682	101.670	0.240	0.050	0.850	101.780	-1.400	1.200																			1580044448.0	10.27	19.02
26/01/2020 13:14:09	26012020	260120	131409	101.750	12.367695	-56.996633	101.680	0.130	-0.190	0.910	101.750	-1.500	1.300																			1580044449.0	10.60	19.63
26/01/2020 13:14:10	26012020	260120	131410	101.760	12.367685	-56.996582	101.660	0.120	-0.580	0.910	101.760	-1.900	1.300																			1580044450.0	11.18	20.71
26/01/2020 13:14:11	26012020	260120	131411	101.700	12.367675	-56.996528	101.570	0.070	-0.720	1.000	101.700	-2.100	1.400																			1580044451.0	11.31	20.95
26/01/2020 13:14:12	26012020	260120	131412	101.610	12.367663	-56.996478	101.510	-0.130	-0.470	1.170	101.610	-2.000	1.500																			1580044452.0	11.07	20.50
26/01/2020 13:14:13	26012020	260120	131413	101.590	12.367652	-56.996428	101.550	-0.400	-0.020	1.240	101.590	-1.600	1.700																			1580044453.0	10.68	19.78
26/01/2020 13:14:14	26012020	260120	131414	101.620	12.367640	-56.996380	101.550	-0.550	0.220	1.070	101.620	-1.200	1.600																			1580044454.0	10.52	19.48
26/01/2020 13:14:15	26012020	260120	131415	101.600	12.367630	-56.996330	101.510	-0.410	-0.040	0.780	101.600	-1.300	1.300																			1580044455.0	10.80	20.00
26/01/2020 13:14:16	26012020	260120	131416	101.590	12.367618	-56.996278	101.550	-0.070	-0.390	0.530	101.590	-1.700	1.000																			1580044456.0	11.35	21.02
26/01/2020 13:14:17	26012020	260120	131417	101.700	12.367610	-56.996225	101.710	0.130	-0.240	0.260	101.700	-1.800	0.800																			1580044457.0	11.30	20.93
26/01/2020 13:14:18	26012020	260120	131418	101.910	12.367602	-56.996175	101.890	0.060	0.170	0.190	101.910	-1.400	0.600																			1580044458.0	10.60	19.63
26/01/2020 13:14:19	26012020	260120	131419	102.050	12.367592	-56.996128	101.950	-0.050	0.190	0.360	102.050	-1.200	0.700																			1580044459.0	10.33	19.13
26/01/2020 13:14:20	26012020	260120	131420	102.040	12.367580	-56.996078	101.920	0.020	-0.250	0.570	102.040	-1.500	0.900																			1580044460.0	10.79	19.98
26/01/2020 13:14:21	26012020	260120	131421	102.000	12.367568	-56.996027	101.900	0.230	-0.670	0.690	102.000	-2.000	1.100																			1580044461.0	11.27	20.87
26/01/2020 13:14:22	26012020	260120	131422	101.980	12.367558	-56.995975	101.890	0.340	-0.660	0.740	101.970	-2.100	1.200																			1580044462.0	11.16	20.67
26/01/2020 13:14:23	26012020	260120	131423	101.970	12.367548	-56.995925	101.900	0.240	-0.360	0.640	101.970	-1.900	1.100																			1580044463.0	10.70	19.82
26/01/2020 13:14:24	26012020	260120	131424	101.990	12.367540	-56.995877	101.950	0.050	-0.130	0.550	102.000	-1.600	1.000																			1580044464.0	10.50	19.45
26/01/2020 13:14:25	26012020	260120	131425	102.060	12.367530	-56.995827	102.000	-0.090	-0.140	0.500	102.060	-1.500	0.900																			1580044465.0	10.66	19.74
26/01/2020 13:14:26	26012020	260120	131426	102.090	12.367518	-56.995777	101.910	-0.090	-0.370	0.540	102.070	-1.700	0.900																			1580044466.0	10.94	20.26
26/01/2020 13:14:27	26012020	260120	131427	101.930	12.367508	-56.995725	101.770	0.060	-0.580	0.630	101.930	-1.900	1.000																			1580044467.0	11.23	20.80
26/01/2020 13:14:28	26012020	260120	131428	101.830	12.367497	-56.995672	101.740	0.140	-0.460	0.730	101.830	-2.000	1.100																			1580044468.0	11.21	20.76
26/01/2020 13:14:29	26012020	260120	131429	101.860	12.367487	-56.995622	101.800	0.000	-0.140	0.780	101.860	-1.700	1.200																			1580044469.0	10.88	20.15
26/01/2020 13:14:30	26012020	260120	131430	101.900	12.367477	-56.995572	101.830	-0.310	0.140	0.790	101.900	-1.400	1.200																			1580044470.0	10.70	19.82
26/01/2020 13:14:31	26012020	260120	131431	101.920	12.367465	-56.995523	101.840	-0.610	0.300	1.000	101.920	-1.200	1.300																			1580044471.0	10.71	19.83
26/01/2020 13:14:32	26012020	260120	131432	101.930	12.367452	-56.995473	101.880	-0.690	0.230	1.180	101.940	-1.100	1.500																			1580044472.0	10.76	19.93
26/01/2020 13:14:33	26012020	260120	131433	101.970	12.367438	-56.995425	101.900	-0.390	-0.190	1.140	101.970	-1.400	1.600																			1580044473.0	10.94	20.26
26/01/2020 13:14:34	26012020	260120	131434	101.980	12.367425	-56.995372	101.910	0.160	-0.650	0.980	101.980	-1.900	1.500																			1580044474.0	11.29	20.91
26/01/2020 13:14:35	26012020	260120	131435	101.990	12.367415	-56.995320	101.920	0.630	-0.700	0.670	101.990	-2.200	1.200																			1580044475.0	11.26	20.85
26/01/2020 13:14:36	26012020	260120	131436	101.990	12.367407	-56.995270	101.910	0.770	-0.350	0.410	101.990	-1.900	0.900																			1580044476.0	10.82	20.04
26/01/2020 13:14:37	26012020	260120	131437	101.980	12.367400	-56.995220	101.920	0.560	-0.010	0.370	101.980	-1.500	0.800																			1580044477.0	10.46	19.37
26/01/2020 13:14:38	26012020	260120	131438	102.010	12.367392	-56.995172	101.980	0.220	0.010	0.440	102.010	-1.400	0.800																			1580044478.0	10.54	19.52
26/01/2020 13:14:39	26012020	260120	131439	102.080	12.367383	-56.995122	102.040	-0.050	-0.220	0.670	102.080	-1.500	1.000																			1580044479.0	10.87	20.13
26/01/2020 13:14:40	26012020	260120	131440	102.100	12.367372	-56.995070	102.030	-0.170	-0.480	1.090	102.100	-1.800	1.300																			1580044480.0	11.11	20.58
26/01/2020 13:14:41	26012020	260120	131441	102.040	12.367358	-56.995018	101.890	-0.140	-0.680	1.350	102.040	-2.000	1.700																			1580044481.0	11.15	20.65
26/01/2020 13:14:42	26012020	260120	131442	101.850	12.367345	-56.994967	101.700	-0.090	-0.660	1.350	101.850	-2.100	1.800																			1580044482.0	11.19	20.72
26/01/2020 13:14:43	26012020	260120	131443	101.670	12.367333	-56.994917	101.520	-0.160	-0.290	1.220	101.670	-1.900	1.700																			1580044483.0	11.01	20.39
26/01/2020 13:14:44	26012020	260120	131444	101.530	12.367323	-56.994867	101.420	-0.330	0.170	0.950	101.530	-1.400	1.500																			1580044484.0	10.66	19.74
26/01/2020 13:14:45	26012020	260120	131445	101.530	12.367315	-56.994818	101.500	-0.410	0.350	0.590	101.530	-1.100	1.100																			1580044485.0	10.60	19.63
26/01/2020 13:14:46	26012020	260120	131446	101.640	12.367305	-56.994767	101.700	-0.350	0.220	0.330	101.680	-1.100	0.800																			1580044486.0	10.87	20.13
26/01/2020 13:14:47	26012020	260120	131447	101.880	12.367295	-56.994717	101.880	-0.210	-0.070	0.320	101.880	-1.400	0.700																			1580044487.0	11.08	20.52
26/01/2020 13:14:48	26012020	260120	131448	102.000	12.367282	-56.994665	101.940	0.020	-0.400	0.440	102.000	-1.700	0.800																			1580044488.0	11.08	20.52
26/01/2020 13:14:49	26012020	260120	131449	102.030	12.367270	-56.994615	101.920	0.340	-0.620	0.500	102.030	-2.000	0.900																			1580044489.0	11.07	20.50
26/01/2020 13:14:50	26012020	260120	131450	102.000	12.367260	-56.994563	101.850	0.650	-0.650	0.550	101.990	-2.100	0.900																			1580044490.0	11.00	20.37
26/01/2020 13:14:51	26012020	260120	131451	101.930	12.367252	-56.994513	101.800	0.700	-0.430	0.520	101.920	-1.900	0.900																			1580044491.0	10.87	20.13
26/01/2020 13:14:52	26012020	260120	131452	101.870	12.367243	-56.994463	101.720	0.430	-0.150	0.440	101.850	-1.700	0.900																			1580044492.0	10.68	19.78
26/01/2020 13:14:53	26012020	260120	131453	101.760	12.367235	-56.994413	101.630	0.020	-0.040	0.470	101.760	-1.500	0.800																			1580044493.0	10.68	19.78
26/01/2020 13:14:54	26012020	260120	131454	101.670	12.367225	-56.994363	101.550	-0.270	-0.140	0.720	101.650	-1.500	1.000																			1580044494.0	10.87	20.13
26/01/2020 13:14:55	26012020	260120	131455	101.560	12.367213	-56.994312	101.470	-0.310	-0.320	0.940	101.560	-1.700	1.300																			1580044495.0	11.11	20.58
26/01/2020 13:14:56	26012020	260120	131456	101.490	12.367200	-56.994260	101.410	-0.220	-0.380	1.030	101.480	-1.800	1.400																			1580044496.0	11.21	20.76
26/01/2020 13:14:57	26012020	260120	131457	101.460	12.367188	-56.994210	101.420	-0.190	-0.240	1.020	101.460	-1.700	1.400																			1580044497.0	11.06	20.48
26/01/2020 13:14:58	26012020	260120	131458	101.480	12.367177	-56.994160	101.410	-0.240	-0.070	0.890	101.480	-1.500	1.400																			1580044498.0	10.81	20.02
26/01/2020 13:14:59	26012020	260120	131459	101.440	12.367167	-56.994110	101.380	-0.210	-0.030	0.590	101.440	-1.400	1.100																			1580044499.0	10.77	19.95
26/01/2020 13:15:00	26012020	260120	131500	101.480	12.367157	-56.994058	101.460	-0.070	-0.140	0.360	101.480	-1.500	0.800	1016.50	26.20	26.30	18.20	18.30	579.00	61.00	61.00	375.00	27.70	350.00	11.30	83.00	5.90	42147	3144.00	27.40	27.40	1580044500.0	10.92	20.22
26/01/2020 13:15:01	26012020	260120	131501	101.590	12.367148	-56.994007	101.540	0.090	-0.330	0.370	101.590	-1.700	0.800																			1580044501.0	11.04	20.45
26/01/2020 13:15:02	26012020	260120	131502	101.630	12.367137	-56.993957	101.510	0.180	-0.490	0.510	101.630	-1.900	0.900																			1580044502.0	11.13	20.61
26/01/2020 13:15:03	26012020	260120	131503	101.580	12.367127	-56.993905	101.500	0.150	-0.380	0.690	101.580	-1.900	1.000																			1580044503.0	11.07	20.50
26/01/2020 13:15:04	26012020	260120	131504	101.570	12.367115	-56.993855	101.490	-0.000	-0.050	0.900	101.570	-1.600	1.200																			1580044504.0	10.73	19.87
26/01/2020 13:15:05	26012020	260120	131505	101.540	12.367105	-56.993807	101.440	-0.070	0.030	1.020	101.540	-1.400	1.400																			1580044505.0	10.50	19.45
26/01/2020 13:15:06	26012020	260120	131506	101.460	12.367093	-56.993757	101.350	0.170	-0.390	0.950	101.460	-1.600	1.400																			1580044506.0	10.89	20.17
26/01/2020 13:15:07	26012020	260120	131507	101.380	12.367083	-56.993703	101.270	0.510	-0.780	0.780	101.380	-2.100	1.200																			1580044507.0	11.52	21.34
26/01/2020 13:15:08	26012020	260120	131508	101.310	12.367075	-56.993650	101.230	0.540	-0.530	0.760	101.310	-2.100	1.200																			1580044508.0	11.44	21.19
26/01/2020 13:15:09	26012020	260120	131509	101.310	12.367065	-56.993600	101.310	0.090	0.230	0.760	101.310	-1.500	1.200																			1580044509.0	10.66	19.74
26/01/2020 13:15:10	26012020	260120	131510	101.430	12.367057	-56.993553	101.440	-0.480	0.670	0.790	101.430	-0.800	1.200																			1580044510.0	10.07	18.65
26/01/2020 13:15:11	26012020	260120	131511	101.540	12.367045	-56.993505	101.530	-0.640	0.170	0.920	101.540	-1.000	1.300																			1580044511.0	10.48	19.41
26/01/2020 13:15:12	26012020	260120	131512	101.620	12.367033	-56.993452	101.580	-0.310	-0.700	1.030	101.620	-1.800	1.400																			1580044512.0	11.50	21.30
26/01/2020 13:15:13	26012020	260120	131513	101.580	12.367020	-56.993398	101.460	0.080	-0.930	1.180	101.580	-2.400	1.500																			1580044513.0	11.70	21.67
26/01/2020 13:15:14	26012020	260120	131514	101.410	12.367008	-56.993348	101.260	0.200	-0.550	1.160	101.410	-2.100	1.600																			1580044514.0	10.90	20.19
26/01/2020 13:15:15	26012020	260120	131515	101.240	12.366998	-56.993300	101.140	0.180	-0.280	0.990	101.240	-1.700	1.500																			1580044515.0	10.43	19.32
26/01/2020 13:15:16	26012020	260120	131516	101.180	12.366990	-56.993250	101.130	0.200	-0.350	0.740	101.180	-1.700	1.300																			1580044516.0	10.79	19.98
26/01/2020 13:15:17	26012020	260120	131517	101.220	12.366983	-56.993197	101.190	0.190	-0.340	0.490	101.220	-1.800	1.000																			1580044517.0	11.22	20.78
26/01/2020 13:15:18	26012020	260120	131518	101.320	12.366973	-56.993145	101.320	0.030	0.020	0.440	101.320	-1.600	0.800																			1580044518.0	11.03	20.43
26/01/2020 13:15:19	26012020	260120	131519	101.480	12.366963	-56.993097	101.500	-0.210	0.430	0.600	101.480	-1.100	0.900																			1580044519.0	10.57	19.58
26/01/2020 13:15:20	26012020	260120	131520	101.620	12.366952	-56.993048	101.600	-0.350	0.410	0.770	101.620	-0.900	1.100																			1580044520.0	10.48	19.41
26/01/2020 13:15:21	26012020	260120	131521	101.690	12.366940	-56.992998	101.620	-0.240	-0.120	0.830	101.690	-1.300	1.200																			1580044521.0	10.90	20.19
26/01/2020 13:15:22	26012020	260120	131522	101.660	12.366930	-56.992947	101.540	0.090	-0.720	0.870	101.660	-1.900	1.300																			1580044522.0	11.35	21.02
26/01/2020 13:15:23	26012020	260120	131523	101.530	12.366920	-56.992893	101.370	0.370	-0.920	0.820	101.530	-2.300	1.300																			1580044523.0	11.37	21.06
26/01/2020 13:15:24	26012020	260120	131524	101.370	12.366912	-56.992842	101.260	0.350	-0.640	0.690	101.370	-2.200	1.100																			1580044524.0	11.00	20.37
26/01/2020 13:15:25	26012020	260120	131525	101.280	12.366903	-56.992793	101.200	0.090	-0.170	0.610	101.280	-1.700	1.000																			1580044525.0	10.52	19.48
26/01/2020 13:15:26	26012020	260120	131526	101.260	12.366893	-56.992743	101.200	-0.110	-0.040	0.570	101.260	-1.400	1.000																			1580044526.0	10.49	19.43
26/01/2020 13:15:27	26012020	260120	131527	101.300	12.366883	-56.992693	101.300	-0.100	-0.260	0.540	101.300	-1.600	1.000																			1580044527.0	11.01	20.39
26/01/2020 13:15:28	26012020	260120	131528	101.420	12.366872	-56.992640	101.420	-0.070	-0.310	0.590	101.420	-1.700	1.000																			1580044528.0	11.35	21.02
26/01/2020 13:15:29	26012020	260120	131529	101.520	12.366860	-56.992590	101.490	-0.120	-0.070	0.670	101.520	-1.600	1.100																			1580044529.0	11.02	20.41
26/01/2020 13:15:30	26012020	260120	131530	101.570	12.366848	-56.992540	101.510	-0.110	0.090	0.650	101.570	-1.300	1.100																			1580044530.0	10.66	19.74
26/01/2020 13:15:31	26012020	260120	131531	101.600	12.366840	-56.992490	101.560	0.020	-0.040	0.540	101.600	-1.400	1.000																			1580044531.0	10.80	20.00
26/01/2020 13:15:32	26012020	260120	131532	101.680	12.366830	-56.992438	101.760	0.080	-0.170	0.480	101.720	-1.600	0.900																			1580044532.0	11.09	20.54
26/01/2020 13:15:33	26012020	260120	131533	101.930	12.366820	-56.992388	101.890	-0.040	-0.110	0.570	101.930	-1.500	0.900																			1580044533.0	10.88	20.15
26/01/2020 13:15:34	26012020	260120	131534	101.970	12.366810	-56.992340	101.820	-0.150	-0.170	0.710	101.970	-1.500	1.100																			1580044534.0	10.63	19.69
26/01/2020 13:15:35	26012020	260120	131535	101.810	12.366798	-56.992290	101.590	-0.050	-0.550	0.870	101.810	-1.800	1.200																			1580044535.0	10.87	20.13
26/01/2020 13:15:36	26012020	260120	131536	101.570	12.366787	-56.992237	101.440	0.170	-0.810	0.950	101.570	-2.200	1.400																			1580044536.0	11.31	20.95
26/01/2020 13:15:37	26012020	260120	131537	101.490	12.366777	-56.992185	101.420	0.250	-0.520	0.930	101.490	-2.100	1.300																			1580044537.0	11.13	20.61
26/01/2020 13:15:38	26012020	260120	131538	101.480	12.366767	-56.992137	101.370	0.140	-0.090	0.960	101.470	-1.600	1.400																			1580044538.0	10.58	19.59
26/01/2020 13:15:39	26012020	260120	131539	101.390	12.366757	-56.992087	101.300	0.000	-0.040	1.020	101.390	-1.400	1.400																			1580044539.0	10.59	19.61
26/01/2020 13:15:40	26012020	260120	131540	101.330	12.366747	-56.992037	101.270	-0.020	-0.290	1.010	101.330	-1.600	1.400																			1580044540.0	11.09	20.54
26/01/2020 13:15:41	26012020	260120	131541	101.330	12.366735	-56.991983	101.310	0.020	-0.350	0.980	101.330	-1.800	1.400																			1580044541.0	11.34	21.00
26/01/2020 13:15:42	26012020	260120	131542	101.420	12.366727	-56.991932	101.450	-0.040	-0.030	0.810	101.420	-1.600	1.300																			1580044542.0	11.03	20.43
26/01/2020 13:15:43	26012020	260120	131543	101.600	12.366717	-56.991883	101.640	-0.200	0.240	0.680	101.600	-1.200	1.100																			1580044543.0	10.56	19.56
26/01/2020 13:15:44	26012020	260120	131544	101.810	12.366707	-56.991835	101.850	-0.310	0.090	0.690	101.810	-1.200	1.100																			1580044544.0	10.63	19.69
26/01/2020 13:15:45	26012020	260120	131545	102.010	12.366695	-56.991783	101.980	-0.240	-0.310	0.730	102.010	-1.600	1.100																			1580044545.0	11.06	20.48
26/01/2020 13:15:46	26012020	260120	131546	102.080	12.366683	-56.991732	102.000	-0.080	-0.500	0.790	102.080	-1.900	1.200																			1580044546.0	11.19	20.72
26/01/2020 13:15:47	26012020	260120	131547	102.060	12.366673	-56.991682	101.920	0.060	-0.410	0.860	102.060	-1.900	1.200																			1580044547.0	10.88	20.15
26/01/2020 13:15:48	26012020	260120	131548	101.930	12.366663	-56.991632	101.740	0.190	-0.410	0.960	101.930	-1.800	1.300																			1580044548.0	10.67	19.76
26/01/2020 13:15:49	26012020	260120	131549	101.700	12.366652	-56.991582	101.520	0.340	-0.650	1.040	101.700	-2.000	1.400																			1580044549.0	10.97	20.32
26/01/2020 13:15:50	26012020	260120	131550	101.530	12.366643	-56.991528	101.390	0.430	-0.770	0.990	101.500	-2.200	1.400																			1580044550.0	11.36	21.04
26/01/2020 13:15:51	26012020	260120	131551	101.440	12.366633	-56.991475	101.410	0.280	-0.340	0.990	101.440	-2.000	1.400																			1580044551.0	11.27	20.87
26/01/2020 13:15:52	26012020	260120	131552	101.500	12.366623	-56.991427	101.540	-0.130	0.430	1.080	101.500	-1.300	1.500																			1580044552.0	10.59	19.61
26/01/2020 13:15:53	26012020	260120	131553	101.700	12.366613	-56.991380	101.790	-0.510	0.750	1.040	101.700	-0.700	1.500																			1580044553.0	10.21	18.91
26/01/2020 13:15:54	26012020	260120	131554	101.960	12.366603	-56.991330	102.020	-0.560	0.240	0.970	101.960	-0.900	1.400																			1580044554.0	10.69	19.80
26/01/2020 13:15:55	26012020	260120	131555	102.130	12.366590	-56.991277	102.120	-0.280	-0.600	1.010	102.130	-1.700	1.400																			1580044555.0	11.51	21.32
26/01/2020 13:15:56	26012020	260120	131556	102.160	12.366577	-56.991223	102.100	0.040	-0.870	1.010	102.160	-2.300	1.400																			1580044556.0	11.69	21.65
26/01/2020 13:15:57	26012020	260120	131557	102.140	12.366565	-56.991173	102.040	0.120	-0.350	0.830	102.140	-2.000	1.300																			1580044557.0	10.91	20.21
26/01/2020 13:15:58	26012020	260120	131558	102.090	12.366557	-56.991127	101.980	0.080	0.110	0.500	102.070	-1.400	1.100																			1580044558.0	10.08	18.67
26/01/2020 13:15:59	26012020	260120	131559	102.010	12.366550	-56.991078	101.860	0.240	-0.210	0.180	102.010	-1.400	0.700																			1580044559.0	10.43	19.32
26/01/2020 13:16:00	26012020	260120	131600	101.920	12.366542	-56.991025	101.780	0.500	-0.820	0.100	101.900	-2.000	0.500	1016.50	26.20	26.20	18.10	18.20	585.00	61.00	61.00	375.00	27.70	350.00	11.00	81.00	5.60	42494	3210.00	27.40	27.40	1580044560.0	11.40	21.11
26/01/2020 13:16:01	26012020	260120	131601	101.880	12.366533	-56.990970	101.800	0.440	-0.770	0.290	101.880	-2.300	0.600																			1580044561.0	11.62	21.52
26/01/2020 13:16:02	26012020	260120	131602	101.910	12.366523	-56.990920	101.810	-0.050	-0.100	0.670	101.910	-1.800	0.900																			1580044562.0	10.77	19.95
26/01/2020 13:16:03	26012020	260120	131603	101.860	12.366512	-56.990873	101.750	-0.500	0.370	1.000	101.860	-1.100	1.300																			1580044563.0	10.17	18.83
26/01/2020 13:16:04	26012020	260120	131604	101.770	12.366498	-56.990825	101.650	-0.520	0.100	1.160	101.770	-1.100	1.500																			1580044564.0	10.59	19.61
26/01/2020 13:16:05	26012020	260120	131605	101.660	12.366487	-56.990773	101.560	-0.200	-0.490	1.070	101.660	-1.700	1.500																			1580044565.0	11.45	21.21
26/01/2020 13:16:06	26012020	260120	131606	101.650	12.366475	-56.990718	101.620	0.060	-0.570	0.850	101.650	-2.000	1.300																			1580044566.0	11.60	21.48
26/01/2020 13:16:07	26012020	260120	131607	101.750	12.366465	-56.990668	101.740	-0.010	-0.080	0.700	101.750	-1.700	1.200																			1580044567.0	10.92	20.22
26/01/2020 13:16:08	26012020	260120	131608	101.870	12.366455	-56.990622	101.880	-0.290	0.390	0.550	101.900	-1.200	1.000																			1580044568.0	10.28	19.04
26/01/2020 13:16:09	26012020	260120	131609	102.030	12.366445	-56.990573	101.970	-0.390	0.300	0.490	102.030	-1.000	0.900																			1580044569.0	10.32	19.11
26/01/2020 13:16:10	26012020	260120	131610	102.090	12.366435	-56.990523	102.020	-0.050	-0.390	0.460	102.100	-1.500	0.900																			1580044570.0	10.92	20.22
26/01/2020 13:16:11	26012020	260120	131611	102.100	12.366423	-56.990468	101.990	0.490	-1.000	0.430	102.100	-2.200	0.900																			1580044571.0	11.57	21.43
26/01/2020 13:16:12	26012020	260120	131612	102.070	12.366413	-56.990417	101.960	0.700	-0.740	0.390	102.070	-2.400	0.800																			1580044572.0	11.37	21.06
26/01/2020 13:16:13	26012020	260120	131613	102.060	12.366405	-56.990368	101.980	0.380	-0.010	0.490	102.060	-1.700	0.900																			1580044573.0	10.36	19.19
26/01/2020 13:16:14	26012020	260120	131614	102.060	12.366397	-56.990322	101.980	-0.040	0.150	0.790	102.060	-1.200	1.100																			1580044574.0	10.01	18.54
26/01/2020 13:16:15	26012020	260120	131615	102.000	12.366385	-56.990272	101.850	-0.200	-0.350	1.110	102.000	-1.500	1.400																			1580044575.0	10.86	20.11
26/01/2020 13:16:16	26012020	260120	131616	101.810	12.366372	-56.990218	101.640	-0.170	-0.660	1.250	101.810	-2.000	1.600																			1580044576.0	11.51	21.32
26/01/2020 13:16:17	26012020	260120	131617	101.600	12.366360	-56.990167	101.470	-0.170	-0.380	1.260	101.600	-1.900	1.700																			1580044577.0	11.19	20.72
26/01/2020 13:16:18	26012020	260120	131618	101.490	12.366350	-56.990118	101.440	-0.240	-0.010	1.060	101.490	-1.500	1.600																			1580044578.0	10.59	19.61
26/01/2020 13:16:19	26012020	260120	131619	101.540	12.366340	-56.990068	101.590	-0.280	0.020	0.730	101.570	-1.400	1.300																			1580044579.0	10.65	19.72
26/01/2020 13:16:20	26012020	260120	131620	101.750	12.366330	-56.990018	101.730	-0.220	-0.070	0.530	101.750	-1.400	1.000																			1580044580.0	10.98	20.33
26/01/2020 13:16:21	26012020	260120	131621	101.830	12.366318	-56.989967	101.740	-0.060	-0.090	0.480	101.830	-1.500	0.900																			1580044581.0	10.99	20.35
26/01/2020 13:16:22	26012020	260120	131622	101.820	12.366308	-56.989917	101.730	0.160	-0.130	0.490	101.820	-1.500	0.900																			1580044582.0	10.85	20.09
26/01/2020 13:16:23	26012020	260120	131623	101.830	12.366298	-56.989867	101.760	0.360	-0.290	0.520	101.830	-1.600	0.900																			1580044583.0	10.87	20.13
26/01/2020 13:16:24	26012020	260120	131624	101.890	12.366288	-56.989815	101.840	0.430	-0.410	0.500	101.890	-1.800	0.900																			1580044584.0	10.98	20.33
26/01/2020 13:16:25	26012020	260120	131625	101.980	12.366280	-56.989765	101.920	0.340	-0.340	0.570	101.980	-1.800	0.900																			1580044585.0	10.89	20.17
26/01/2020 13:16:26	26012020	260120	131626	102.020	12.366272	-56.989715	101.950	0.120	-0.210	0.720	102.020	-1.700	1.100																			1580044586.0	10.66	19.74
26/01/2020 13:16:27	26012020	260120	131627	102.050	12.366262	-56.989665	101.940	-0.080	-0.290	0.910	102.050	-1.600	1.200																			1580044587.0	10.68	19.78
26/01/2020 13:16:28	26012020	260120	131628	102.010	12.366250	-56.989615	101.850	-0.220	-0.480	1.060	101.990	-1.800	1.400																			1580044588.0	11.00	20.37
26/01/2020 13:16:29	26012020	260120	131629	101.900	12.366237	-56.989563	101.760	-0.320	-0.510	1.070	101.900	-1.900	1.500																			1580044589.0	11.13	20.61
26/01/2020 13:16:30	26012020	260120	131630	101.810	12.366225	-56.989513	101.690	-0.380	-0.230	0.950	101.810	-1.800	1.400																			1580044590.0	10.95	20.28
26/01/2020 13:16:31	26012020	260120	131631	101.770	12.366215	-56.989465	101.630	-0.330	0.060	0.630	101.760	-1.400	1.200																			1580044591.0	10.61	19.65
26/01/2020 13:16:32	26012020	260120	131632	101.710	12.366205	-56.989415	101.570	-0.040	-0.130	0.340	101.700	-1.400	0.900																			1580044592.0	10.73	19.87
26/01/2020 13:16:33	26012020	260120	131633	101.650	12.366195	-56.989362	101.530	0.340	-0.500	0.120	101.640	-1.800	0.600																			1580044593.0	11.36	21.04
26/01/2020 13:16:34	26012020	260120	131634	101.630	12.366187	-56.989308	101.580	0.460	-0.410	-0.010	101.640	-1.900	0.400																			1580044594.0	11.45	21.21
26/01/2020 13:16:35	26012020	260120	131635	101.690	12.366178	-56.989258	101.660	0.230	0.110	0.130	101.690	-1.500	0.500																			1580044595.0	10.79	19.98
26/01/2020 13:16:36	26012020	260120	131636	101.780	12.366168	-56.989210	101.870	-0.080	0.490	0.450	101.820	-1.000	0.700																			1580044596.0	10.26	19.00
26/01/2020 13:16:37	26012020	260120	131637	102.050	12.366157	-56.989163	102.060	-0.180	0.290	0.680	102.050	-1.000	1.000																			1580044597.0	10.41	19.28
26/01/2020 13:16:38	26012020	260120	131638	102.150	12.366145	-56.989112	102.040	-0.010	-0.400	0.800	102.160	-1.500	1.200																			1580044598.0	11.03	20.43
26/01/2020 13:16:39	26012020	260120	131639	102.050	12.366133	-56.989060	101.920	0.240	-0.890	0.770	102.050	-2.200	1.200																			1580044599.0	11.47	21.24
26/01/2020 13:16:40	26012020	260120	131640	101.960	12.366123	-56.989007	101.890	0.240	-0.780	0.820	101.950	-2.300	1.200																			1580044600.0	11.18	20.71
26/01/2020 13:16:41	26012020	260120	131641	101.930	12.366113	-56.988958	101.850	-0.030	-0.340	0.880	101.930	-1.900	1.300																			1580044601.0	10.53	19.50
26/01/2020 13:16:42	26012020	260120	131642	101.870	12.366103	-56.988910	101.680	-0.290	-0.140	0.820	101.840	-1.600	1.300																			1580044602.0	10.34	19.15
26/01/2020 13:16:43	26012020	260120	131643	101.680	12.366092	-56.988860	101.440	-0.310	-0.300	0.820	101.640	-1.600	1.200																			1580044603.0	10.81	20.02
26/01/2020 13:16:44	26012020	260120	131644	101.440	12.366082	-56.988808	101.270	-0.130	-0.450	0.800	101.410	-1.800	1.200																			1580044604.0	11.24	20.82
26/01/2020 13:16:45	26012020	260120	131645	101.290	12.366070	-56.988757	101.220	0.060	-0.340	0.680	101.290	-1.800	1.100																			1580044605.0	11.22	20.78
26/01/2020 13:16:46	26012020	260120	131646	101.280	12.366060	-56.988707	101.280	0.120	0.010	0.560	101.290	-1.500	1.000																			1580044606.0	10.90	20.19
26/01/2020 13:16:47	26012020	260120	131647	101.450	12.366052	-56.988657	101.490	0.060	0.210	0.350	101.450	-1.200	0.800																			1580044607.0	10.62	19.67
26/01/2020 13:16:48	26012020	260120	131648	101.640	12.366042	-56.988607	101.620	0.060	-0.000	0.320	101.640	-1.300	0.700																			1580044608.0	10.79	19.98
26/01/2020 13:16:49	26012020	260120	131649	101.760	12.366032	-56.988555	101.750	0.090	-0.250	0.500	101.760	-1.600	0.800																			1580044609.0	11.18	20.71
26/01/2020 13:16:50	26012020	260120	131650	101.870	12.366022	-56.988503	101.870	0.000	-0.170	0.770	101.900	-1.600	1.100																			1580044610.0	11.05	20.46
26/01/2020 13:16:51	26012020	260120	131651	101.960	12.366010	-56.988455	101.850	-0.130	-0.080	1.080	101.960	-1.500	1.400																			1580044611.0	10.58	19.59
26/01/2020 13:16:52	26012020	260120	131652	101.880	12.365998	-56.988407	101.650	-0.100	-0.400	1.230	101.840	-1.600	1.600																			1580044612.0	10.68	19.78
26/01/2020 13:16:53	26012020	260120	131653	101.660	12.365987	-56.988355	101.550	0.070	-0.770	1.050	101.660	-2.100	1.600																			1580044613.0	11.21	20.76
26/01/2020 13:16:54	26012020	260120	131654	101.610	12.365978	-56.988302	101.510	0.200	-0.690	0.850	101.610	-2.200	1.300																			1580044614.0	11.26	20.85
26/01/2020 13:16:55	26012020	260120	131655	101.560	12.365968	-56.988252	101.440	0.150	-0.220	0.730	101.560	-1.800	1.200																			1580044615.0	10.78	19.96
26/01/2020 13:16:56	26012020	260120	131656	101.510	12.365958	-56.988203	101.420	0.030	0.150	0.580	101.510	-1.300	1.100																			1580044616.0	10.46	19.37
26/01/2020 13:16:57	26012020	260120	131657	101.530	12.365950	-56.988153	101.500	0.000	0.090	0.390	101.530	-1.300	0.900																			1580044617.0	10.68	19.78
26/01/2020 13:16:58	26012020	260120	131658	101.610	12.365940	-56.988102	101.640	0.080	-0.130	0.270	101.650	-1.500	0.700																			1580044618.0	11.12	20.59
26/01/2020 13:16:59	26012020	260120	131659	101.820	12.365930	-56.988050	101.800	0.070	-0.140	0.310	101.820	-1.600	0.700																			1580044619.0	11.12	20.59
26/01/2020 13:17:00	26012020	260120	131700	101.900	12.365920	-56.988000	101.870	-0.030	-0.090	0.510	101.910	-1.500	0.800	1016.60	26.20	26.20	18.10	18.20	589.00	61.00	61.00	375.00	27.80	353.00	10.50	87.00	5.00	42839	3134.00	27.40	27.40	1580044620.0	10.77	19.95
26/01/2020 13:17:01	26012020	260120	131701	101.950	12.365910	-56.987952	101.890	-0.150	-0.250	0.820	101.950	-1.600	1.100																			1580044621.0	10.72	19.85
26/01/2020 13:17:02	26012020	260120	131702	101.950	12.365897	-56.987900	101.800	-0.210	-0.570	1.110	101.930	-1.800	1.400																			1580044622.0	10.99	20.35
26/01/2020 13:17:03	26012020	260120	131703	101.770	12.365885	-56.987850	101.580	-0.150	-0.750	1.160	101.770	-2.100	1.600																			1580044623.0	11.16	20.67
26/01/2020 13:17:04	26012020	260120	131704	101.600	12.365875	-56.987798	101.410	-0.030	-0.630	1.050	101.560	-2.100	1.500																			1580044624.0	11.06	20.48
26/01/2020 13:17:05	26012020	260120	131705	101.420	12.365865	-56.987747	101.290	0.050	-0.340	0.890	101.420	-1.900	1.400																			1580044625.0	10.87	20.13
26/01/2020 13:17:06	26012020	260120	131706	101.330	12.365855	-56.987697	101.150	0.070	-0.110	0.730	101.290	-1.600	1.200																			1580044626.0	10.80	20.00
26/01/2020 13:17:07	26012020	260120	131707	101.170	12.365847	-56.987647	101.100	0.070	-0.040	0.550	101.170	-1.400	1.000																			1580044627.0	10.96	20.30
26/01/2020 13:17:08	26012020	260120	131708	101.230	12.365837	-56.987595	101.240	0.070	0.040	0.460	101.230	-1.400	0.900																			1580044628.0	11.07	20.50
26/01/2020 13:17:09	26012020	260120	131709	101.360	12.365828	-56.987543	101.450	0.060	0.120	0.460	101.400	-1.300	0.900																			1580044629.0	10.94	20.26
26/01/2020 13:17:10	26012020	260120	131710	101.620	12.365818	-56.987493	101.700	0.050	0.060	0.490	101.620	-1.300	0.900																			1580044630.0	10.89	20.17
26/01/2020 13:17:11	26012020	260120	131711	101.850	12.365808	-56.987443	101.930	-0.030	-0.020	0.740	101.850	-1.400	1.000																			1580044631.0	10.95	20.28
26/01/2020 13:17:12	26012020	260120	131712	102.050	12.365795	-56.987393	102.070	-0.200	-0.060	1.050	102.050	-1.400	1.400																			1580044632.0	10.82	20.04
26/01/2020 13:17:13	26012020	260120	131713	102.100	12.365783	-56.987343	102.030	-0.290	-0.220	1.160	102.100	-1.500	1.600																			1580044633.0	10.68	19.78
26/01/2020 13:17:14	26012020	260120	131714	102.010	12.365772	-56.987293	101.920	-0.170	-0.530	1.050	102.010	-1.800	1.500																			1580044634.0	10.84	20.08
26/01/2020 13:17:15	26012020	260120	131715	101.920	12.365762	-56.987243	101.820	0.070	-0.790	0.780	101.920	-2.100	1.300																			1580044635.0	11.07	20.50
26/01/2020 13:17:16	26012020	260120	131716	101.830	12.365753	-56.987192	101.720	0.260	-0.800	0.480	101.830	-2.200	1.000																			1580044636.0	11.07	20.50
26/01/2020 13:17:17	26012020	260120	131717	101.720	12.365745	-56.987140	101.550	0.330	-0.570	0.350	101.720	-2.100	0.800																			1580044637.0	10.87	20.13
26/01/2020 13:17:18	26012020	260120	131718	101.480	12.365737	-56.987090	101.260	0.370	-0.470	0.470	101.480	-1.900	0.800																			1580044638.0	10.84	20.08
26/01/2020 13:17:19	26012020	260120	131719	101.230	12.365727	-56.987038	101.150	0.330	-0.420	0.600	101.230	-1.900	1.000																			1580044639.0	11.18	20.71
26/01/2020 13:17:20	26012020	260120	131720	101.230	12.365717	-56.986985	101.250	0.070	-0.020	0.790	101.230	-1.600	1.100																			1580044640.0	11.22	20.78
26/01/2020 13:17:21	26012020	260120	131721	101.390	12.365705	-56.986937	101.460	-0.380	0.530	0.940	101.390	-1.100	1.300																			1580044641.0	10.70	19.82
26/01/2020 13:17:22	26012020	260120	131722	101.620	12.365695	-56.986888	101.700	-0.700	0.610	0.960	101.620	-0.700	1.400																			1580044642.0	10.47	19.39
26/01/2020 13:17:23	26012020	260120	131723	101.780	12.365682	-56.986838	101.830	-0.630	0.050	1.000	101.810	-1.100	1.400																			1580044643.0	10.97	20.32
26/01/2020 13:17:24	26012020	260120	131724	101.940	12.365670	-56.986785	101.960	-0.260	-0.560	0.830	101.940	-1.800	1.300																			1580044644.0	11.54	21.37
26/01/2020 13:17:25	26012020	260120	131725	102.100	12.365658	-56.986732	102.100	0.050	-0.520	0.520	102.100	-2.000	1.100																			1580044645.0	11.37	21.06
26/01/2020 13:17:26	26012020	260120	131726	102.210	12.365650	-56.986683	102.120	0.130	-0.050	0.290	102.210	-1.600	0.800																			1580044646.0	10.54	19.52
26/01/2020 13:17:27	26012020	260120	131727	102.170	12.365642	-56.986635	102.020	0.130	0.040	0.160	102.170	-1.300	0.600																			1580044647.0	10.21	18.91
26/01/2020 13:17:28	26012020	260120	131728	102.070	12.365633	-56.986585	101.880	0.230	-0.410	0.140	102.050	-1.600	0.600																			1580044648.0	10.76	19.93
26/01/2020 13:17:29	26012020	260120	131729	101.940	12.365623	-56.986532	101.810	0.420	-0.900	0.310	101.940	-2.200	0.600																			1580044649.0	11.35	21.02
26/01/2020 13:17:30	26012020	260120	131730	101.860	12.365613	-56.986480	101.680	0.520	-0.860	0.580	101.840	-2.400	0.900																			1580044650.0	11.38	21.08
26/01/2020 13:17:31	26012020	260120	131731	101.710	12.365602	-56.986430	101.580	0.350	-0.300	0.760	101.710	-1.900	1.100																			1580044651.0	10.82	20.04
26/01/2020 13:17:32	26012020	260120	131732	101.660	12.365592	-56.986382	101.590	0.010	0.140	0.870	101.660	-1.400	1.300																			1580044652.0	10.38	19.22
26/01/2020 13:17:33	26012020	260120	131733	101.670	12.365582	-56.986332	101.620	-0.230	0.010	0.960	101.670	-1.300	1.400																			1580044653.0	10.67	19.76
26/01/2020 13:17:34	26012020	260120	131734	101.690	12.365570	-56.986280	101.680	-0.330	-0.330	0.920	101.700	-1.600	1.400																			1580044654.0	11.29	20.91
26/01/2020 13:17:35	26012020	260120	131735	101.810	12.365560	-56.986228	101.800	-0.360	-0.320	0.840	101.810	-1.800	1.300																			1580044655.0	11.35	21.02
26/01/2020 13:17:36	26012020	260120	131736	101.900	12.365548	-56.986178	101.840	-0.380	-0.030	0.860	101.920	-1.500	1.300																			1580044656.0	10.87	20.13
26/01/2020 13:17:37	26012020	260120	131737	101.920	12.365537	-56.986128	101.820	-0.330	0.050	0.810	101.920	-1.300	1.300																			1580044657.0	10.62	19.67
26/01/2020 13:17:38	26012020	260120	131738	101.880	12.365527	-56.986078	101.790	-0.190	-0.220	0.590	101.880	-1.500	1.100																			1580044658.0	10.91	20.21
26/01/2020 13:17:39	26012020	260120	131739	101.870	12.365517	-56.986027	101.800	0.040	-0.510	0.470	101.870	-1.800	0.900																			1580044659.0	11.27	20.87
26/01/2020 13:17:40	26012020	260120	131740	101.870	12.365507	-56.985973	101.800	0.250	-0.460	0.480	101.870	-1.900	0.900																			1580044660.0	11.21	20.76
26/01/2020 13:17:41	26012020	260120	131741	101.850	12.365495	-56.985923	101.820	0.340	-0.220	0.530	101.850	-1.700	0.900																			1580044661.0	10.87	20.13
26/01/2020 13:17:42	26012020	260120	131742	101.900	12.365487	-56.985873	101.970	0.240	0.020	0.540	101.930	-1.500	1.000																			1580044662.0	10.73	19.87
26/01/2020 13:17:43	26012020	260120	131743	102.110	12.365477	-56.985825	102.140	0.060	0.120	0.620	102.110	-1.300	1.000																			1580044663.0	10.67	19.76
26/01/2020 13:17:44	26012020	260120	131744	102.230	12.365467	-56.985775	102.270	-0.070	-0.010	0.830	102.250	-1.300	1.200																			1580044664.0	10.78	19.96
26/01/2020 13:17:45	26012020	260120	131745	102.350	12.365455	-56.985723	102.350	-0.070	-0.340	1.050	102.350	-1.600	1.400																			1580044665.0	10.98	20.33
26/01/2020 13:17:46	26012020	260120	131746	102.380	12.365442	-56.985673	102.300	0.060	-0.630	1.190	102.370	-1.900	1.600																			1580044666.0	11.13	20.61
26/01/2020 13:17:47	26012020	260120	131747	102.260	12.365430	-56.985622	102.130	0.230	-0.690	1.120	102.260	-2.100	1.600																			1580044667.0	11.10	20.56
26/01/2020 13:17:48	26012020	260120	131748	102.120	12.365420	-56.985572	101.990	0.300	-0.490	0.860	102.090	-2.000	1.400																			1580044668.0	10.95	20.28
26/01/2020 13:17:49	26012020	260120	131749	102.020	12.365412	-56.985520	101.980	0.110	-0.140	0.550	102.020	-1.700	1.100																			1580044669.0	10.78	19.96
26/01/2020 13:17:50	26012020	260120	131750	102.060	12.365403	-56.985472	102.000	-0.190	0.070	0.450	102.070	-1.400	0.900																			1580044670.0	10.64	19.71
26/01/2020 13:17:51	26012020	260120	131751	102.030	12.365393	-56.985422	101.910	-0.320	-0.140	0.640	102.030	-1.400	1.000																			1580044671.0	10.81	20.02
26/01/2020 13:17:52	26012020	260120	131752	101.900	12.365382	-56.985368	101.770	-0.150	-0.540	0.810	101.900	-1.800	1.200																			1580044672.0	11.31	20.95
26/01/2020 13:17:53	26012020	260120	131753	101.770	12.365368	-56.985315	101.680	0.100	-0.650	0.790	101.770	-2.100	1.200																			1580044673.0	11.55	21.39
26/01/2020 13:17:54	26012020	260120	131754	101.750	12.365358	-56.985263	101.740	0.110	-0.230	0.680	101.750	-1.800	1.100																			1580044674.0	11.18	20.71
26/01/2020 13:17:55	26012020	260120	131755	101.870	12.365348	-56.985215	101.920	-0.100	0.290	0.540	101.870	-1.300	1.000																			1580044675.0	10.58	19.59
26/01/2020 13:17:56	26012020	260120	131756	102.040	12.365338	-56.985167	102.130	-0.250	0.410	0.410	102.070	-1.000	0.900																			1580044676.0	10.48	19.41
26/01/2020 13:17:57	26012020	260120	131757	102.240	12.365327	-56.985117	102.250	-0.180	0.080	0.410	102.240	-1.200	0.800																			1580044677.0	10.89	20.17
26/01/2020 13:17:58	26012020	260120	131758	102.320	12.365317	-56.985065	102.300	-0.010	-0.310	0.540	102.320	-1.600	0.900																			1580044678.0	11.25	20.84
26/01/2020 13:17:59	26012020	260120	131759	102.350	12.365305	-56.985013	102.320	0.100	-0.410	0.620	102.350	-1.800	1.000																			1580044679.0	11.12	20.59
26/01/2020 13:18:00	26012020	260120	131800	102.360	12.365293	-56.984963	102.300	0.100	-0.340	0.710	102.360	-1.800	1.100	1016.50	26.20	26.20	18.20	18.30	588.00	61.00	61.00	375.00	27.80	350.00	10.70	81.00	5.30	42850	3224.00	27.40	27.40	1580044680.0	10.75	19.91
26/01/2020 13:18:01	26012020	260120	131801	102.310	12.365283	-56.984913	102.190	0.080	-0.420	0.810	102.310	-1.800	1.200																			1580044681.0	10.63	19.69
26/01/2020 13:18:02	26012020	260120	131802	102.160	12.365273	-56.984863	101.980	0.150	-0.720	1.040	102.160	-2.000	1.400																			1580044682.0	10.92	20.22
26/01/2020 13:18:03	26012020	260120	131803	101.920	12.365260	-56.984812	101.730	0.290	-0.910	1.230	101.920	-2.300	1.600																			1580044683.0	11.31	20.95
26/01/2020 13:18:04	26012020	260120	131804	101.710	12.365250	-56.984760	101.570	0.320	-0.630	1.150	101.710	-2.200	1.600																			1580044684.0	11.27	20.87
26/01/2020 13:18:05	26012020	260120	131805	101.610	12.365240	-56.984710	101.520	0.150	-0.090	0.870	101.610	-1.700	1.400																			1580044685.0	10.83	20.06
26/01/2020 13:18:06	26012020	260120	131806	101.560	12.365232	-56.984660	101.460	-0.090	0.300	0.670	101.550	-1.200	1.200																			1580044686.0	10.64	19.71
26/01/2020 13:18:07	26012020	260120	131807	101.540	12.365222	-56.984610	101.530	-0.250	0.350	0.560	101.540	-1.000	1.000																			1580044687.0	10.85	20.09
26/01/2020 13:18:08	26012020	260120	131808	101.680	12.365212	-56.984558	101.780	-0.330	0.130	0.520	101.680	-1.200	0.900																			1580044688.0	11.10	20.56
26/01/2020 13:18:09	26012020	260120	131809	101.950	12.365200	-56.984507	102.030	-0.330	-0.140	0.640	101.950	-1.400	1.000																			1580044689.0	11.22	20.78
26/01/2020 13:18:10	26012020	260120	131810	102.160	12.365187	-56.984455	102.180	-0.270	-0.250	0.880	102.160	-1.600	1.200																			1580044690.0	11.14	20.63
26/01/2020 13:18:11	26012020	260120	131811	102.220	12.365175	-56.984405	102.210	-0.170	-0.220	1.080	102.230	-1.600	1.400																			1580044691.0	10.84	20.08
26/01/2020 13:18:12	26012020	260120	131812	102.230	12.365163	-56.984357	102.170	-0.020	-0.290	1.060	102.220	-1.600	1.500																			1580044692.0	10.68	19.78
26/01/2020 13:18:13	26012020	260120	131813	102.150	12.365153	-56.984305	102.060	0.190	-0.530	0.870	102.150	-1.800	1.400																			1580044693.0	10.85	20.09
26/01/2020 13:18:14	26012020	260120	131814	102.000	12.365145	-56.984253	101.840	0.400	-0.820	0.730	102.000	-2.100	1.200																			1580044694.0	11.12	20.59
26/01/2020 13:18:15	26012020	260120	131815	101.750	12.365135	-56.984202	101.580	0.460	-0.870	0.640	101.750	-2.300	1.100																			1580044695.0	11.32	20.96
26/01/2020 13:18:16	26012020	260120	131816	101.500	12.365127	-56.984150	101.390	0.250	-0.420	0.710	101.500	-2.000	1.100																			1580044696.0	11.12	20.59
26/01/2020 13:18:17	26012020	260120	131817	101.370	12.365115	-56.984100	101.310	-0.100	0.190	0.970	101.370	-1.400	1.300																			1580044697.0	10.62	19.67
26/01/2020 13:18:18	26012020	260120	131818	101.340	12.365103	-56.984052	101.400	-0.330	0.470	1.000	101.350	-1.000	1.400																			1580044698.0	10.55	19.54
26/01/2020 13:18:19	26012020	260120	131819	101.480	12.365093	-56.984002	101.570	-0.300	0.230	0.900	101.480	-1.000	1.300																			1580044699.0	10.89	20.17
26/01/2020 13:18:20	26012020	260120	131820	101.680	12.365082	-56.983950	101.790	-0.070	-0.210	0.870	101.680	-1.400	1.300																			1580044700.0	11.34	21.00
26/01/2020 13:18:21	26012020	260120	131821	101.890	12.365070	-56.983897	101.960	0.140	-0.400	0.730	101.890	-1.800	1.200																			1580044701.0	11.40	21.11
26/01/2020 13:18:22	26012020	260120	131822	102.060	12.365060	-56.983845	102.090	0.160	-0.230	0.550	102.060	-1.700	1.000																			1580044702.0	10.96	20.30
26/01/2020 13:18:23	26012020	260120	131823	102.150	12.365052	-56.983797	102.130	0.040	-0.070	0.520	102.150	-1.500	0.900																			1580044703.0	10.54	19.52
26/01/2020 13:18:24	26012020	260120	131824	102.190	12.365042	-56.983747	102.180	-0.100	-0.250	0.530	102.200	-1.500	0.900																			1580044704.0	10.61	19.65
26/01/2020 13:18:25	26012020	260120	131825	102.200	12.365033	-56.983697	102.080	-0.130	-0.660	0.660	102.200	-1.900	1.000																			1580044705.0	11.01	20.39
26/01/2020 13:18:26	26012020	260120	131826	102.020	12.365022	-56.983643	101.850	0.000	-0.960	0.980	102.020	-2.300	1.300																			1580044706.0	11.30	20.93
26/01/2020 13:18:27	26012020	260120	131827	101.770	12.365008	-56.983592	101.610	0.150	-0.920	1.340	101.770	-2.400	1.600																			1580044707.0	11.33	20.98
26/01/2020 13:18:28	26012020	260120	131828	101.510	12.364995	-56.983542	101.380	0.110	-0.460	1.440	101.510	-2.100	1.900																			1580044708.0	11.12	20.59
26/01/2020 13:18:29	26012020	260120	131829	101.340	12.364985	-56.983492	101.290	-0.090	0.210	1.020	101.340	-1.400	1.600																			1580044709.0	10.73	19.87
26/01/2020 13:18:30	26012020	260120	131830	101.320	12.364977	-56.983442	101.360	-0.220	0.560	0.570	101.330	-0.900	1.100																			1580044710.0	10.58	19.59
26/01/2020 13:18:31	26012020	260120	131831	101.460	12.364968	-56.983392	101.540	-0.150	0.460	0.410	101.460	-0.900	0.900																			1580044711.0	10.89	20.17
26/01/2020 13:18:32	26012020	260120	131832	101.640	12.364958	-56.983340	101.750	-0.030	0.170	0.390	101.680	-1.100	0.800																			1580044712.0	11.20	20.74
26/01/2020 13:18:33	26012020	260120	131833	101.880	12.364948	-56.983288	101.910	0.000	-0.140	0.470	101.880	-1.400	0.800																			1580044713.0	11.17	20.69
26/01/2020 13:18:34	26012020	260120	131834	101.990	12.364937	-56.983237	102.010	-0.020	-0.360	0.740	102.010	-1.700	1.000																			1580044714.0	11.03	20.43
26/01/2020 13:18:35	26012020	260120	131835	102.070	12.364925	-56.983187	102.030	-0.040	-0.430	0.930	102.070	-1.800	1.300																			1580044715.0	10.82	20.04
26/01/2020 13:18:36	26012020	260120	131836	102.040	12.364913	-56.983138	101.910	0.060	-0.570	0.860	102.030	-1.900	1.300																			1580044716.0	10.69	19.80
26/01/2020 13:18:37	26012020	260120	131837	101.880	12.364903	-56.983087	101.750	0.310	-0.830	0.720	101.880	-2.100	1.200																			1580044717.0	10.93	20.24
26/01/2020 13:18:38	26012020	260120	131838	101.720	12.364895	-56.983035	101.580	0.490	-0.920	0.670	101.720	-2.300	1.100																			1580044718.0	11.21	20.76
26/01/2020 13:18:39	26012020	260120	131839	101.520	12.364885	-56.982983	101.360	0.390	-0.670	0.700	101.520	-2.200	1.100																			1580044719.0	11.15	20.65
26/01/2020 13:18:40	26012020	260120	131840	101.310	12.364877	-56.982932	101.210	0.040	-0.190	0.810	101.310	-1.800	1.200																			1580044720.0	10.88	20.15
26/01/2020 13:18:41	26012020	260120	131841	101.220	12.364865	-56.982883	101.220	-0.300	0.220	0.960	101.220	-1.300	1.300																			1580044721.0	10.70	19.82
26/01/2020 13:18:42	26012020	260120	131842	101.280	12.364855	-56.982833	101.420	-0.430	0.250	1.010	101.320	-1.100	1.400																			1580044722.0	10.87	20.13
26/01/2020 13:18:43	26012020	260120	131843	101.550	12.364843	-56.982780	101.670	-0.440	0.110	1.010	101.550	-1.200	1.400																			1580044723.0	11.27	20.87
26/01/2020 13:18:44	26012020	260120	131844	101.750	12.364830	-56.982730	101.900	-0.480	0.190	1.060	101.790	-1.300	1.400																			1580044724.0	11.22	20.78
26/01/2020 13:18:45	26012020	260120	131845	102.000	12.364818	-56.982680	102.050	-0.480	0.320	1.080	102.000	-1.100	1.500																			1580044725.0	10.73	19.87
26/01/2020 13:18:46	26012020	260120	131846	102.090	12.364807	-56.982632	102.070	-0.180	0.010	0.940	102.090	-1.200	1.400																			1580044726.0	10.57	19.58
26/01/2020 13:18:47	26012020	260120	131847	102.080	12.364797	-56.982580	102.040	0.330	-0.680	0.710	102.080	-1.800	1.200																			1580044727.0	11.14	20.63
26/01/2020 13:18:48	26012020	260120	131848	102.050	12.364787	-56.982527	101.990	0.700	-1.060	0.490	102.040	-2.400	1.000																			1580044728.0	11.48	21.26
26/01/2020 13:18:49	26012020	260120	131849	101.970	12.364780	-56.982475	101.900	0.700	-0.750	0.350	101.970	-2.300	0.800																			1580044729.0	11.11	20.58
26/01/2020 13:18:50	26012020	260120	131850	101.880	12.364772	-56.982425	101.790	0.380	-0.170	0.450	101.880	-1.800	0.800																			1580044730.0	10.41	19.28
26/01/2020 13:18:51	26012020	260120	131851	101.770	12.364762	-56.982378	101.700	0.020	-0.020	0.740	101.770	-1.400	1.000																			1580044731.0	10.35	19.17
26/01/2020 13:18:52	26012020	260120	131852	101.710	12.364752	-56.982327	101.590	-0.210	-0.300	1.100	101.690	-1.500	1.400																			1580044732.0	10.93	20.24
26/01/2020 13:18:53	26012020	260120	131853	101.540	12.364738	-56.982275	101.460	-0.230	-0.640	1.370	101.540	-1.900	1.700																			1580044733.0	11.42	21.15
26/01/2020 13:18:54	26012020	260120	131854	101.460	12.364725	-56.982222	101.440	-0.190	-0.560	1.330	101.450	-2.000	1.800																			1580044734.0	11.49	21.28
26/01/2020 13:18:55	26012020	260120	131855	101.480	12.364712	-56.982172	101.500	-0.310	0.040	1.140	101.480	-1.600	1.600																			1580044735.0	10.99	20.35
26/01/2020 13:18:56	26012020	260120	131856	101.530	12.364702	-56.982123	101.600	-0.470	0.600	0.840	101.550	-0.900	1.400																			1580044736.0	10.36	19.19
26/01/2020 13:18:57	26012020	260120	131857	101.680	12.364692	-56.982075	101.760	-0.330	0.420	0.500	101.680	-0.800	1.000																			1580044737.0	10.45	19.35
26/01/2020 13:18:58	26012020	260120	131858	101.840	12.364683	-56.982023	101.890	0.110	-0.270	0.280	101.840	-1.400	0.800																			1580044738.0	11.25	20.84
26/01/2020 13:18:59	26012020	260120	131859	101.920	12.364673	-56.981970	101.890	0.450	-0.630	0.200	101.920	-1.900	0.600																			1580044739.0	11.58	21.45
26/01/2020 13:19:00	26012020	260120	131900	101.900	12.364665	-56.981918	101.810	0.470	-0.490	0.430	101.880	-1.900	0.700	1016.50	26.20	26.30	18.50	18.60	585.00	62.00	62.00	375.00	27.80	347.00	11.20	77.00	5.80	42866	3048.00	27.40	27.40	1580044740.0	11.03	20.43
26/01/2020 13:19:01	26012020	260120	131901	101.820	12.364655	-56.981868	101.750	0.280	-0.310	0.740	101.810	-1.700	1.000																			1580044741.0	10.54	19.52
26/01/2020 13:19:02	26012020	260120	131902	101.740	12.364645	-56.981820	101.660	0.070	-0.340	1.050	101.740	-1.700	1.300																			1580044742.0	10.65	19.72
26/01/2020 13:19:03	26012020	260120	131903	101.610	12.364633	-56.981770	101.520	-0.080	-0.410	1.280	101.610	-1.800	1.600																			1580044743.0	10.95	20.28
26/01/2020 13:19:04	26012020	260120	131904	101.490	12.364622	-56.981718	101.390	-0.160	-0.380	1.260	101.460	-1.800	1.700																			1580044744.0	10.99	20.35
26/01/2020 13:19:05	26012020	260120	131905	101.360	12.364610	-56.981668	101.340	-0.190	-0.350	1.150	101.360	-1.700	1.600																			1580044745.0	10.97	20.32
26/01/2020 13:19:06	26012020	260120	131906	101.360	12.364600	-56.981617	101.390	-0.230	-0.240	1.060	101.360	-1.700	1.500																			1580044746.0	11.02	20.41
26/01/2020 13:19:07	26012020	260120	131907	101.410	12.364588	-56.981567	101.410	-0.250	-0.030	0.810	101.410	-1.500	1.300																			1580044747.0	10.88	20.15
26/01/2020 13:19:08	26012020	260120	131908	101.400	12.364578	-56.981517	101.350	-0.130	0.140	0.520	101.400	-1.300	1.000																			1580044748.0	10.74	19.89
26/01/2020 13:19:09	26012020	260120	131909	101.330	12.364568	-56.981467	101.330	0.090	0.060	0.240	101.330	-1.300	0.800																			1580044749.0	10.78	19.96
26/01/2020 13:19:10	26012020	260120	131910	101.400	12.364562	-56.981415	101.500	0.300	-0.300	-0.050	101.400	-1.500	0.500																			1580044750.0	11.06	20.48
26/01/2020 13:19:11	26012020	260120	131911	101.650	12.364553	-56.981363	101.740	0.340	-0.560	-0.090	101.650	-1.900	0.300																			1580044751.0	11.26	20.85
26/01/2020 13:19:12	26012020	260120	131912	101.820	12.364543	-56.981312	101.790	0.230	-0.470	0.310	101.820	-1.900	0.500																			1580044752.0	11.01	20.39
26/01/2020 13:19:13	26012020	260120	131913	101.760	12.364532	-56.981262	101.610	0.080	-0.300	0.880	101.760	-1.700	1.100																			1580044753.0	10.67	19.76
26/01/2020 13:19:14	26012020	260120	131914	101.480	12.364520	-56.981213	101.320	-0.020	-0.350	1.270	101.480	-1.700	1.600																			1580044754.0	10.73	19.87
26/01/2020 13:19:15	26012020	260120	131915	101.210	12.364508	-56.981162	101.110	-0.060	-0.530	1.300	101.210	-1.900	1.700																			1580044755.0	11.10	20.56
26/01/2020 13:19:16	26012020	260120	131916	101.040	12.364498	-56.981110	100.960	-0.060	-0.530	1.180	101.040	-1.900	1.600																			1580044756.0	11.26	20.85
26/01/2020 13:19:17	26012020	260120	131917	100.880	12.364488	-56.981058	100.840	-0.090	-0.240	1.080	100.880	-1.800	1.500																			1580044757.0	11.10	20.56
26/01/2020 13:19:18	26012020	260120	131918	100.860	12.364477	-56.981008	100.930	-0.240	0.220	0.950	100.860	-1.300	1.400																			1580044758.0	10.80	20.00
26/01/2020 13:19:19	26012020	260120	131919	101.040	12.364467	-56.980960	101.160	-0.440	0.520	0.780	101.040	-1.000	1.300																			1580044759.0	10.59	19.61
26/01/2020 13:19:20	26012020	260120	131920	101.280	12.364457	-56.980910	101.400	-0.510	0.480	0.600	101.280	-0.900	1.100																			1580044760.0	10.62	19.67
26/01/2020 13:19:21	26012020	260120	131921	101.510	12.364447	-56.980860	101.640	-0.290	0.090	0.440	101.510	-1.100	0.900																			1580044761.0	10.80	20.00
26/01/2020 13:19:22	26012020	260120	131922	101.710	12.364435	-56.980808	101.750	0.220	-0.560	0.330	101.710	-1.700	0.800																			1580044762.0	11.09	20.54
26/01/2020 13:19:23	26012020	260120	131923	101.720	12.364427	-56.980757	101.630	0.790	-1.110	0.250	101.720	-2.300	0.700																			1580044763.0	11.35	21.02
26/01/2020 13:19:24	26012020	260120	131924	101.590	12.364418	-56.980703	101.440	1.040	-1.120	0.290	101.540	-2.600	0.700																			1580044764.0	11.32	20.96
26/01/2020 13:19:25	26012020	260120	131925	101.420	12.364412	-56.980653	101.470	0.780	-0.590	0.470	101.420	-2.200	0.800																			1580044765.0	10.79	19.98
26/01/2020 13:19:26	26012020	260120	131926	101.550	12.364403	-56.980605	101.630	0.160	0.010	0.770	101.550	-1.600	1.100																			1580044766.0	10.35	19.17
26/01/2020 13:19:27	26012020	260120	131927	101.660	12.364392	-56.980557	101.620	-0.420	0.140	1.180	101.660	-1.200	1.400																			1580044767.0	10.42	19.30
26/01/2020 13:19:28	26012020	260120	131928	101.510	12.364378	-56.980507	101.360	-0.680	-0.190	1.700	101.510	-1.400	1.900																			1580044768.0	11.07	20.50
26/01/2020 13:19:29	26012020	260120	131929	101.200	12.364363	-56.980453	101.120	-0.600	-0.430	1.830	101.200	-1.800	2.300																			1580044769.0	11.57	21.43
26/01/2020 13:19:30	26012020	260120	131930	101.070	12.364350	-56.980402	101.130	-0.410	-0.240	1.370	101.070	-1.700	2.000																			1580044770.0	11.33	20.98
26/01/2020 13:19:31	26012020	260120	131931	101.190	12.364342	-56.980352	101.280	-0.280	0.130	0.750	101.190	-1.400	1.400																			1580044771.0	10.81	20.02
26/01/2020 13:19:32	26012020	260120	131932	101.330	12.364333	-56.980302	101.350	-0.170	0.210	0.330	101.330	-1.200	0.900																			1580044772.0	10.60	19.63
26/01/2020 13:19:33	26012020	260120	131933	101.350	12.364325	-56.980250	101.310	0.030	-0.060	0.200	101.350	-1.300	0.600																			1580044773.0	10.95	20.28
26/01/2020 13:19:34	26012020	260120	131934	101.320	12.364315	-56.980198	101.310	0.210	-0.210	0.260	101.310	-1.600	0.600																			1580044774.0	11.20	20.74
26/01/2020 13:19:35	26012020	260120	131935	101.370	12.364307	-56.980148	101.430	0.250	-0.140	0.340	101.370	-1.600	0.700																			1580044775.0	10.86	20.11
26/01/2020 13:19:36	26012020	260120	131936	101.490	12.364297	-56.980098	101.540	0.280	-0.310	0.450	101.520	-1.600	0.800																			1580044776.0	10.60	19.63
26/01/2020 13:19:37	26012020	260120	131937	101.510	12.364287	-56.980048	101.410	0.430	-0.780	0.760	101.510	-2.000	1.000																			1580044777.0	10.98	20.33
26/01/2020 13:19:38	26012020	260120	131938	101.360	12.364275	-56.979995	101.250	0.520	-0.910	0.990	101.320	-2.300	1.400																			1580044778.0	11.41	21.13
26/01/2020 13:19:39	26012020	260120	131939	101.230	12.364265	-56.979945	101.270	0.290	-0.280	0.920	101.230	-2.000	1.400																			1580044779.0	10.94	20.26
26/01/2020 13:19:40	26012020	260120	131940	101.320	12.364257	-56.979898	101.400	-0.170	0.420	0.820	101.320	-1.200	1.300																			1580044780.0	10.13	18.76
26/01/2020 13:19:41	26012020	260120	131941	101.460	12.364247	-56.979850	101.500	-0.440	0.300	0.770	101.460	-0.900	1.200																			1580044781.0	10.21	18.91
26/01/2020 13:19:42	26012020	260120	131942	101.500	12.364237	-56.979798	101.450	-0.300	-0.460	0.780	101.500	-1.500	1.200																			1580044782.0	11.16	20.67
26/01/2020 13:19:43	26012020	260120	131943	101.400	12.364225	-56.979743	101.360	-0.040	-0.900	0.900	101.400	-2.200	1.300																			1580044783.0	11.80	21.85
26/01/2020 13:19:44	26012020	260120	131944	101.330	12.364213	-56.979692	101.340	0.030	-0.580	1.040	101.320	-2.200	1.400																			1580044784.0	11.31	20.95
26/01/2020 13:19:45	26012020	260120	131945	101.360	12.364203	-56.979643	101.430	-0.120	-0.000	1.030	101.360	-1.600	1.500																			1580044785.0	10.53	19.50
26/01/2020 13:19:46	26012020	260120	131946	101.450	12.364193	-56.979595	101.510	-0.260	0.180	0.830	101.470	-1.200	1.300																			1580044786.0	10.39	19.24
26/01/2020 13:19:47	26012020	260120	131947	101.540	12.364183	-56.979543	101.560	-0.170	-0.070	0.630	101.540	-1.300	1.100																			1580044787.0	10.92	20.22
26/01/2020 13:19:48	26012020	260120	131948	101.590	12.364173	-56.979492	101.620	0.080	-0.360	0.590	101.590	-1.600	1.000																			1580044788.0	11.29	20.91
26/01/2020 13:19:49	26012020	260120	131949	101.660	12.364163	-56.979440	101.710	0.290	-0.450	0.510	101.660	-1.800	1.000																			1580044789.0	11.27	20.87
26/01/2020 13:19:50	26012020	260120	131950	101.750	12.364153	-56.979388	101.820	0.260	-0.290	0.400	101.770	-1.800	0.900																			1580044790.0	11.00	20.37
26/01/2020 13:19:51	26012020	260120	131951	101.870	12.364145	-56.979338	101.970	0.030	0.020	0.450	101.900	-1.500	0.800																			1580044791.0	10.70	19.82
26/01/2020 13:19:52	26012020	260120	131952	102.050	12.364135	-56.979290	102.100	-0.190	0.210	0.610	102.050	-1.200	1.000																			1580044792.0	10.46	19.37
26/01/2020 13:19:53	26012020	260120	131953	102.120	12.364123	-56.979242	102.100	-0.180	-0.050	0.770	102.120	-1.300	1.100																			1580044793.0	10.62	19.67
26/01/2020 13:19:54	26012020	260120	131954	102.070	12.364112	-56.979190	101.990	0.090	-0.600	0.810	102.050	-1.800	1.200																			1580044794.0	11.16	20.67
26/01/2020 13:19:55	26012020	260120	131955	101.950	12.364102	-56.979137	101.930	0.310	-0.830	0.860	101.950	-2.200	1.300																			1580044795.0	11.47	21.24
26/01/2020 13:19:56	26012020	260120	131956	101.930	12.364090	-56.979085	101.980	0.180	-0.370	0.830	101.940	-2.000	1.300																			1580044796.0	11.04	20.45
26/01/2020 13:19:57	26012020	260120	131957	102.050	12.364082	-56.979038	102.100	-0.190	0.280	0.600	102.050	-1.300	1.100																			1580044797.0	10.24	18.96
26/01/2020 13:19:58	26012020	260120	131958	102.120	12.364073	-56.978990	102.060	-0.360	0.310	0.480	102.120	-1.000	0.900																			1580044798.0	10.17	18.83
26/01/2020 13:19:59	26012020	260120	131959	101.970	12.364062	-56.978940	101.800	-0.080	-0.430	0.510	101.970	-1.500	0.900																			1580044799.0	10.98	20.33
26/01/2020 13:20:00	26012020	260120	132000	101.720	12.364052	-56.978885	101.590	0.410	-1.130	0.540	101.670	-2.300	1.000	1016.50	26.20	26.20	18.20	18.30	594.00	61.00	61.00	375.00	27.80	352.00	10.40	84.00	4.90	43433	3347.00	27.40	27.40	1580044800.0	11.82	21.89
26/01/2020 13:20:01	26012020	260120	132001	101.620	12.364040	-56.978832	101.720	0.560	-0.820	0.560	101.620	-2.500	1.000																			1580044801.0	11.67	21.61
26/01/2020 13:20:02	26012020	260120	132002	101.870	12.364032	-56.978782	102.040	0.160	0.130	0.530	101.870	-1.600	1.000																			1580044802.0	10.48	19.41
26/01/2020 13:20:03	26012020	260120	132003	102.150	12.364022	-56.978737	102.200	-0.340	0.530	0.600	102.150	-0.900	1.000																			1580044803.0	9.91	18.35
26/01/2020 13:20:04	26012020	260120	132004	102.180	12.364010	-56.978687	102.130	-0.480	0.100	0.900	102.180	-1.100	1.200																			1580044804.0	10.65	19.72
26/01/2020 13:20:05	26012020	260120	132005	102.050	12.363997	-56.978635	101.980	-0.300	-0.500	1.170	102.050	-1.700	1.500																			1580044805.0	11.48	21.26
26/01/2020 13:20:06	26012020	260120	132006	101.950	12.363985	-56.978582	101.920	-0.140	-0.680	1.160	101.940	-2.100	1.600																			1580044806.0	11.46	21.22
26/01/2020 13:20:07	26012020	260120	132007	101.920	12.363973	-56.978532	101.920	-0.130	-0.500	1.020	101.920	-2.000	1.500																			1580044807.0	10.97	20.32
26/01/2020 13:20:08	26012020	260120	132008	101.900	12.363963	-56.978482	101.880	-0.170	-0.270	0.880	101.900	-1.800	1.300																			1580044808.0	10.71	19.83
26/01/2020 13:20:09	26012020	260120	132009	101.860	12.363952	-56.978432	101.870	-0.150	0.020	0.700	101.860	-1.500	1.200																			1580044809.0	10.78	19.96
26/01/2020 13:20:10	26012020	260120	132010	101.930	12.363942	-56.978383	102.000	-0.110	0.440	0.490	101.930	-1.100	1.000																			1580044810.0	10.66	19.74
26/01/2020 13:20:11	26012020	260120	132011	102.120	12.363932	-56.978335	102.250	0.030	0.630	0.130	102.120	-0.800	0.700																			1580044811.0	10.38	19.22
26/01/2020 13:20:12	26012020	260120	132012	102.400	12.363923	-56.978285	102.480	0.410	0.070	-0.240	102.400	-1.000	0.300																			1580044812.0	10.58	19.59
26/01/2020 13:20:13	26012020	260120	132013	102.540	12.363917	-56.978232	102.520	0.920	-0.980	-0.230	102.540	-2.000	0.100																			1580044813.0	11.42	21.15
26/01/2020 13:20:14	26012020	260120	132014	102.560	12.363907	-56.978177	102.540	1.030	-1.310	0.070	102.560	-2.700	0.300																			1580044814.0	11.83	21.91
26/01/2020 13:20:15	26012020	260120	132015	102.560	12.363897	-56.978127	102.540	0.510	-0.580	0.530	102.560	-2.300	0.800																			1580044815.0	10.83	20.06
26/01/2020 13:20:16	26012020	260120	132016	102.540	12.363887	-56.978082	102.460	-0.240	0.060	0.980	102.530	-1.500	1.200																			1580044816.0	9.80	18.15
26/01/2020 13:20:17	26012020	260120	132017	102.380	12.363875	-56.978035	102.250	-0.650	-0.280	1.370	102.380	-1.500	1.600																			1580044817.0	10.31	19.09
26/01/2020 13:20:18	26012020	260120	132018	102.160	12.363860	-56.977982	101.950	-0.720	-0.890	1.770	102.090	-2.100	2.000																			1580044818.0	11.59	21.46
26/01/2020 13:20:19	26012020	260120	132019	101.810	12.363843	-56.977928	101.720	-0.700	-0.780	1.790	101.810	-2.300	2.300																			1580044819.0	11.76	21.78
26/01/2020 13:20:20	26012020	260120	132020	101.650	12.363830	-56.977878	101.620	-0.680	-0.050	1.470	101.650	-1.800	2.000																			1580044820.0	10.91	20.21
26/01/2020 13:20:21	26012020	260120	132021	101.590	12.363818	-56.977832	101.560	-0.570	0.550	1.070	101.590	-1.000	1.600																			1580044821.0	10.38	19.22
26/01/2020 13:20:22	26012020	260120	132022	101.580	12.363807	-56.977782	101.610	-0.300	0.550	0.520	101.580	-0.800	1.200																			1580044822.0	10.60	19.63
26/01/2020 13:20:23	26012020	260120	132023	101.700	12.363798	-56.977730	101.770	0.100	0.260	0.070	101.700	-1.000	0.600																			1580044823.0	11.11	20.58
26/01/2020 13:20:24	26012020	260120	132024	101.870	12.363790	-56.977678	102.060	0.480	0.200	-0.150	101.920	-1.200	0.300																			1580044824.0	11.14	20.63
26/01/2020 13:20:25	26012020	260120	132025	102.240	12.363782	-56.977628	102.350	0.710	0.140	-0.170	102.240	-1.200	0.200																			1580044825.0	10.64	19.71
26/01/2020 13:20:26	26012020	260120	132026	102.440	12.363773	-56.977580	102.500	0.820	-0.270	0.090	102.470	-1.500	0.400																			1580044826.0	10.57	19.58
26/01/2020 13:20:27	26012020	260120	132027	102.530	12.363765	-56.977528	102.510	0.850	-0.780	0.510	102.530	-2.000	0.800																			1580044827.0	10.89	20.17
26/01/2020 13:20:28	26012020	260120	132028	102.510	12.363753	-56.977478	102.420	0.710	-1.000	0.950	102.500	-2.400	1.200																			1580044828.0	10.95	20.28
26/01/2020 13:20:29	26012020	260120	132029	102.350	12.363743	-56.977428	102.120	0.340	-0.890	1.340	102.300	-2.300	1.600																			1580044829.0	10.70	19.82
26/01/2020 13:20:30	26012020	260120	132030	101.920	12.363732	-56.977380	101.680	-0.140	-0.790	1.660	101.920	-2.200	2.000																			1580044830.0	10.57	19.58
26/01/2020 13:20:31	26012020	260120	132031	101.490	12.363720	-56.977330	101.340	-0.530	-0.740	1.780	101.490	-2.200	2.200																			1580044831.0	10.88	20.15
26/01/2020 13:20:32	26012020	260120	132032	101.280	12.363707	-56.977280	101.190	-0.770	-0.550	1.670	101.250	-2.000	2.200																			1580044832.0	11.14	20.63
26/01/2020 13:20:33	26012020	260120	132033	101.170	12.363693	-56.977228	101.160	-0.830	-0.220	1.390	101.170	-1.800	1.900																			1580044833.0	11.07	20.50
26/01/2020 13:20:34	26012020	260120	132034	101.160	12.363682	-56.977178	101.150	-0.740	0.250	1.050	101.160	-1.300	1.600																			1580044834.0	11.00	20.37
26/01/2020 13:20:35	26012020	260120	132035	101.140	12.363670	-56.977128	101.120	-0.540	0.640	0.740	101.140	-0.900	1.300																			1580044835.0	10.79	19.98
26/01/2020 13:20:36	26012020	260120	132036	101.170	12.363658	-56.977078	101.280	-0.240	0.580	0.410	101.170	-0.700	1.000																			1580044836.0	10.81	20.02
26/01/2020 13:20:37	26012020	260120	132037	101.440	12.363650	-56.977027	101.640	0.150	0.190	0.010	101.440	-1.000	0.600																			1580044837.0	11.13	20.61
26/01/2020 13:20:38	26012020	260120	132038	101.840	12.363642	-56.976973	102.010	0.460	-0.080	-0.150	101.840	-1.400	0.300																			1580044838.0	11.22	20.78
26/01/2020 13:20:39	26012020	260120	132039	102.130	12.363633	-56.976923	102.190	0.610	-0.070	0.100	102.130	-1.500	0.400																			1580044839.0	10.79	19.98
26/01/2020 13:20:40	26012020	260120	132040	102.230	12.363623	-56.976875	102.240	0.640	-0.130	0.410	102.240	-1.500	0.700																			1580044840.0	10.39	19.24
26/01/2020 13:20:41	26012020	260120	132041	102.220	12.363615	-56.976827	102.170	0.630	-0.480	0.650	102.220	-1.700	1.000																			1580044841.0	10.50	19.45
26/01/2020 13:20:42	26012020	260120	132042	102.150	12.363605	-56.976777	102.040	0.560	-0.930	0.860	102.120	-2.200	1.200																			1580044842.0	10.87	20.13
26/01/2020 13:20:43	26012020	260120	132043	101.930	12.363595	-56.976725	101.790	0.420	-1.160	1.120	101.930	-2.500	1.400																			1580044843.0	11.03	20.43
26/01/2020 13:20:44	26012020	260120	132044	101.700	12.363583	-56.976675	101.470	0.140	-0.950	1.320	101.630	-2.500	1.700																			1580044844.0	10.94	20.26
26/01/2020 13:20:45	26012020	260120	132045	101.290	12.363572	-56.976625	101.140	-0.240	-0.510	1.360	101.290	-2.100	1.800																			1580044845.0	10.69	19.80
26/01/2020 13:20:46	26012020	260120	132046	101.000	12.363562	-56.976577	100.920	-0.580	-0.150	1.270	101.000	-1.600	1.700																			1580044846.0	10.69	19.80
26/01/2020 13:20:47	26012020	260120	132047	100.880	12.363550	-56.976527	100.880	-0.760	0.020	1.100	100.880	-1.400	1.600																			1580044847.0	10.90	20.19
26/01/2020 13:20:48	26012020	260120	132048	100.890	12.363538	-56.976475	101.000	-0.680	0.060	0.850	100.910	-1.300	1.400																			1580044848.0	11.14	20.63
26/01/2020 13:20:49	26012020	260120	132049	101.070	12.363525	-56.976423	101.160	-0.490	0.160	0.660	101.070	-1.300	1.100																			1580044849.0	11.22	20.78
26/01/2020 13:20:50	26012020	260120	132050	101.240	12.363513	-56.976372	101.310	-0.320	0.330	0.570	101.240	-1.100	1.000																			1580044850.0	11.01	20.39
26/01/2020 13:20:51	26012020	260120	132051	101.370	12.363503	-56.976323	101.410	-0.150	0.410	0.480	101.370	-1.000	0.900																			1580044851.0	10.74	19.89
26/01/2020 13:20:52	26012020	260120	132052	101.450	12.363495	-56.976273	101.570	0.140	0.210	0.370	101.480	-1.000	0.800																			1580044852.0	10.67	19.76
26/01/2020 13:20:53	26012020	260120	132053	101.670	12.363487	-56.976223	101.780	0.540	-0.310	0.300	101.670	-1.500	0.700																			1580044853.0	10.86	20.11
26/01/2020 13:20:54	26012020	260120	132054	101.830	12.363478	-56.976170	101.870	0.870	-0.830	0.350	101.850	-2.000	0.700																			1580044854.0	11.15	20.65
26/01/2020 13:20:55	26012020	260120	132055	101.830	12.363468	-56.976118	101.750	0.850	-0.890	0.670	101.830	-2.300	0.900																			1580044855.0	11.12	20.59
26/01/2020 13:20:56	26012020	260120	132056	101.660	12.363460	-56.976070	101.570	0.400	-0.480	1.140	101.660	-2.000	1.400																			1580044856.0	10.62	19.67
26/01/2020 13:20:57	26012020	260120	132057	101.480	12.363448	-56.976022	101.430	-0.170	-0.130	1.510	101.480	-1.600	1.800																			1580044857.0	10.21	18.91
26/01/2020 13:20:58	26012020	260120	132058	101.380	12.363437	-56.975973	101.280	-0.400	-0.280	1.610	101.350	-1.500	2.000																			1580044858.0	10.51	19.46
26/01/2020 13:20:59	26012020	260120	132059	101.160	12.363425	-56.975923	101.070	-0.230	-0.690	1.530	101.160	-1.900	2.000																			1580044859.0	11.20	20.74
26/01/2020 13:21:00	26012020	260120	132100	100.960	12.363413	-56.975870	100.900	0.000	-0.740	1.330	100.960	-2.200	1.800	1016.60	26.20	26.20	18.30	18.40	605.00	61.00	61.00	375.00	27.90	348.00	10.70	77.00	5.30	43982	3118.00	27.40	27.40	1580044860.0	11.55	21.39
26/01/2020 13:21:01	26012020	260120	132101	100.840	12.363403	-56.975818	100.840	-0.050	-0.160	0.940	100.840	-1.800	1.500																			1580044861.0	11.10	20.56
26/01/2020 13:21:02	26012020	260120	132102	100.860	12.363395	-56.975768	100.960	-0.340	0.550	0.600	100.880	-1.100	1.100																			1580044862.0	10.39	19.24
26/01/2020 13:21:03	26012020	260120	132103	101.070	12.363387	-56.975722	101.220	-0.490	0.660	0.350	101.070	-0.700	0.900																			1580044863.0	10.27	19.02
26/01/2020 13:21:04	26012020	260120	132104	101.310	12.363378	-56.975670	101.520	-0.340	0.130	0.280	101.370	-1.000	0.700																			1580044864.0	10.88	20.15
26/01/2020 13:21:05	26012020	260120	132105	101.660	12.363367	-56.975618	101.770	-0.040	-0.450	0.480	101.660	-1.700	0.800																			1580044865.0	11.39	21.09
26/01/2020 13:21:06	26012020	260120	132106	101.850	12.363355	-56.975567	101.890	0.200	-0.600	0.690	101.850	-2.000	1.000																			1580044866.0	11.19	20.72
26/01/2020 13:21:07	26012020	260120	132107	101.850	12.363343	-56.975517	101.770	0.340	-0.550	0.830	101.850	-1.900	1.200																			1580044867.0	10.66	19.74
26/01/2020 13:21:08	26012020	260120	132108	101.690	12.363335	-56.975468	101.500	0.450	-0.610	0.880	101.630	-2.000	1.300																			1580044868.0	10.64	19.71
26/01/2020 13:21:09	26012020	260120	132109	101.360	12.363327	-56.975417	101.270	0.450	-0.620	0.780	101.360	-2.000	1.300																			1580044869.0	10.92	20.22
26/01/2020 13:21:10	26012020	260120	132110	101.190	12.363318	-56.975367	101.170	0.240	-0.410	0.660	101.190	-1.900	1.100																			1580044870.0	10.95	20.28
26/01/2020 13:21:11	26012020	260120	132111	101.150	12.363308	-56.975317	101.190	-0.180	0.040	0.600	101.150	-1.500	1.000																			1580044871.0	10.73	19.87
26/01/2020 13:21:12	26012020	260120	132112	101.180	12.363298	-56.975267	101.220	-0.560	0.360	0.670	101.200	-1.100	1.000																			1580044872.0	10.45	19.35
26/01/2020 13:21:13	26012020	260120	132113	101.190	12.363287	-56.975218	101.180	-0.590	0.210	0.880	101.190	-1.100	1.200																			1580044873.0	10.64	19.71
26/01/2020 13:21:14	26012020	260120	132114	101.150	12.363273	-56.975168	101.150	-0.260	-0.190	1.040	101.150	-1.400	1.400																			1580044874.0	11.14	20.63
26/01/2020 13:21:15	26012020	260120	132115	101.170	12.363262	-56.975117	101.230	0.160	-0.480	0.900	101.170	-1.800	1.400																			1580044875.0	11.28	20.89
26/01/2020 13:21:16	26012020	260120	132116	101.320	12.363252	-56.975065	101.410	0.400	-0.450	0.580	101.320	-1.900	1.100																			1580044876.0	11.07	20.50
26/01/2020 13:21:17	26012020	260120	132117	101.510	12.363245	-56.975015	101.560	0.350	-0.110	0.400	101.510	-1.600	0.900																			1580044877.0	10.68	19.78
26/01/2020 13:21:18	26012020	260120	132118	101.600	12.363238	-56.974967	101.570	0.120	0.080	0.480	101.600	-1.300	0.800																			1580044878.0	10.29	19.06
26/01/2020 13:21:19	26012020	260120	132119	101.510	12.363228	-56.974917	101.440	-0.000	-0.290	0.810	101.510	-1.500	1.100																			1580044879.0	10.53	19.50
26/01/2020 13:21:20	26012020	260120	132120	101.340	12.363217	-56.974865	101.250	0.060	-0.890	1.150	101.340	-2.100	1.400																			1580044880.0	11.25	20.84
26/01/2020 13:21:21	26012020	260120	132121	101.100	12.363203	-56.974813	100.990	0.100	-0.980	1.340	101.100	-2.400	1.700																			1580044881.0	11.48	21.26
26/01/2020 13:21:22	26012020	260120	132122	100.890	12.363193	-56.974762	100.860	-0.060	-0.400	1.230	100.890	-2.100	1.700																			1580044882.0	10.92	20.22
26/01/2020 13:21:23	26012020	260120	132123	100.870	12.363185	-56.974715	100.940	-0.320	0.290	1.000	100.870	-1.300	1.500																			1580044883.0	10.28	19.04
26/01/2020 13:21:24	26012020	260120	132124	101.010	12.363175	-56.974667	101.070	-0.470	0.420	0.820	101.010	-0.900	1.300																			1580044884.0	10.28	19.04
26/01/2020 13:21:25	26012020	260120	132125	101.060	12.363165	-56.974617	101.040	-0.340	-0.090	0.750	101.060	-1.200	1.200																			1580044885.0	10.94	20.26
26/01/2020 13:21:26	26012020	260120	132126	100.990	12.363153	-56.974563	100.940	0.010	-0.560	0.840	100.990	-1.800	1.200																			1580044886.0	11.55	21.39
26/01/2020 13:21:27	26012020	260120	132127	100.890	12.363143	-56.974510	100.880	0.300	-0.450	0.930	100.890	-1.900	1.300																			1580044887.0	11.32	20.96
26/01/2020 13:21:28	26012020	260120	132128	100.890	12.363133	-56.974460	100.980	0.310	-0.000	0.710	100.890	-1.600	1.200																			1580044888.0	10.65	19.72
26/01/2020 13:21:29	26012020	260120	132129	101.070	12.363127	-56.974412	101.230	0.060	0.270	0.430	101.070	-1.200	0.900																			1580044889.0	10.35	19.17
26/01/2020 13:21:30	26012020	260120	132130	101.280	12.363120	-56.974363	101.410	-0.170	0.140	0.560	101.330	-1.100	0.900																			1580044890.0	10.49	19.43
26/01/2020 13:21:31	26012020	260120	132131	101.400	12.363108	-56.974313	101.400	-0.200	-0.240	0.890	101.400	-1.500	1.200																			1580044891.0	10.85	20.09
26/01/2020 13:21:32	26012020	260120	132132	101.360	12.363097	-56.974262	101.360	-0.030	-0.560	1.040	101.360	-1.800	1.400																			1580044892.0	11.04	20.45
26/01/2020 13:21:33	26012020	260120	132133	101.320	12.363085	-56.974212	101.300	0.240	-0.790	1.040	101.310	-2.100	1.500																			1580044893.0	10.98	20.33
26/01/2020 13:21:34	26012020	260120	132134	101.250	12.363075	-56.974160	101.210	0.450	-0.870	0.790	101.250	-2.200	1.300																			1580044894.0	11.02	20.41
26/01/2020 13:21:35	26012020	260120	132135	101.170	12.363068	-56.974108	101.160	0.360	-0.480	0.550	101.170	-2.100	1.000																			1580044895.0	10.99	20.35
26/01/2020 13:21:36	26012020	260120	132136	101.140	12.363060	-56.974060	101.150	-0.030	0.220	0.670	101.140	-1.400	1.000																			1580044896.0	10.41	19.28
26/01/2020 13:21:37	26012020	260120	132137	101.160	12.363050	-56.974013	101.210	-0.360	0.390	0.780	101.160	-1.000	1.200																			1580044897.0	10.15	18.80
26/01/2020 13:21:38	26012020	260120	132138	101.180	12.363040	-56.973963	101.140	-0.330	-0.180	0.820	101.180	-1.300	1.200																			1580044898.0	10.84	20.08
26/01/2020 13:21:39	26012020	260120	132139	101.060	12.363030	-56.973910	101.040	-0.150	-0.690	0.960	101.060	-1.900	1.300																			1580044899.0	11.62	21.52
26/01/2020 13:21:40	26012020	260120	132140	101.050	12.363018	-56.973857	101.150	-0.190	-0.570	1.070	101.050	-2.100	1.400																			1580044900.0	11.39	21.09
26/01/2020 13:21:41	26012020	260120	132141	101.210	12.363007	-56.973808	101.280	-0.420	-0.060	1.160	101.210	-1.600	1.500																			1580044901.0	10.64	19.71
26/01/2020 13:21:42	26012020	260120	132142	101.280	12.362995	-56.973760	101.310	-0.480	0.200	1.050	101.280	-1.200	1.500																			1580044902.0	10.26	19.00
26/01/2020 13:21:43	26012020	260120	132143	101.290	12.362985	-56.973712	101.290	-0.110	-0.070	0.810	101.290	-1.300	1.300																			1580044903.0	10.67	19.76
26/01/2020 13:21:44	26012020	260120	132144	101.290	12.362975	-56.973658	101.340	0.410	-0.430	0.580	101.290	-1.700	1.100																			1580044904.0	11.27	20.87
26/01/2020 13:21:45	26012020	260120	132145	101.390	12.362967	-56.973607	101.480	0.590	-0.420	0.320	101.390	-1.900	0.800																			1580044905.0	11.28	20.89
26/01/2020 13:21:46	26012020	260120	132146	101.560	12.362958	-56.973557	101.630	0.340	-0.010	0.170	101.560	-1.600	0.600																			1580044906.0	10.73	19.87
26/01/2020 13:21:47	26012020	260120	132147	101.660	12.362950	-56.973508	101.710	-0.020	0.400	0.390	101.660	-1.100	0.700																			1580044907.0	10.23	18.95
26/01/2020 13:21:48	26012020	260120	132148	101.730	12.362940	-56.973462	101.850	-0.130	0.340	0.600	101.760	-0.900	1.000																			1580044908.0	10.21	18.91
26/01/2020 13:21:49	26012020	260120	132149	101.930	12.362930	-56.973412	101.990	0.090	-0.310	0.620	101.930	-1.400	1.000																			1580044909.0	10.73	19.87
26/01/2020 13:21:50	26012020	260120	132150	102.000	12.362920	-56.973358	101.930	0.390	-1.020	0.740	101.990	-2.200	1.100																			1580044910.0	11.33	20.98
26/01/2020 13:21:51	26012020	260120	132151	101.850	12.362908	-56.973307	101.750	0.420	-1.090	0.910	101.850	-2.500	1.300																			1580044911.0	11.34	21.00
26/01/2020 13:21:52	26012020	260120	132152	101.720	12.362900	-56.973257	101.640	0.080	-0.560	1.020	101.700	-2.200	1.400																			1580044912.0	10.67	19.76
26/01/2020 13:21:53	26012020	260120	132153	101.610	12.362890	-56.973210	101.560	-0.330	-0.150	1.150	101.610	-1.600	1.500																			1580044913.0	10.21	18.91
26/01/2020 13:21:54	26012020	260120	132154	101.540	12.362878	-56.973160	101.460	-0.540	-0.200	1.170	101.520	-1.500	1.600																			1580044914.0	10.62	19.67
26/01/2020 13:21:55	26012020	260120	132155	101.410	12.362867	-56.973108	101.350	-0.520	-0.350	1.130	101.410	-1.700	1.600																			1580044915.0	11.18	20.71
26/01/2020 13:21:56	26012020	260120	132156	101.330	12.362855	-56.973058	101.300	-0.370	-0.220	1.040	101.320	-1.700	1.500																			1580044916.0	11.21	20.76
26/01/2020 13:21:57	26012020	260120	132157	101.320	12.362843	-56.973007	101.320	-0.220	0.030	0.900	101.320	-1.400	1.400																			1580044917.0	10.90	20.19
26/01/2020 13:21:58	26012020	260120	132158	101.330	12.362832	-56.972957	101.330	-0.060	0.060	0.770	101.330	-1.300	1.200																			1580044918.0	10.79	19.98
26/01/2020 13:21:59	26012020	260120	132159	101.370	12.362822	-56.972907	101.450	0.170	0.010	0.470	101.370	-1.400	1.000																			1580044919.0	11.01	20.39
26/01/2020 13:22:00	26012020	260120	132200	101.550	12.362813	-56.972855	101.770	0.330	0.210	0.170	101.610	-1.300	0.700	1016.50	26.20	26.20	18.10	18.20	604.00	61.00	61.00	375.00	27.90	346.00	11.30	74.00	6.10	44019	3100.00	27.40	27.40	1580044920.0	10.50	19.45
26/01/2020 13:22:01	26012020	260120	132201	101.950	12.362807	-56.972807	102.080	0.310	0.370	0.120	101.950	-1.000	0.500																			1580044921.0	10.50	19.45
26/01/2020 13:22:02	26012020	260120	132202	102.160	12.362798	-56.972757	102.280	0.210	0.090	0.310	102.210	-1.100	0.600																			1580044922.0	10.46	19.37
26/01/2020 13:22:03	26012020	260120	132203	102.360	12.362788	-56.972707	102.400	0.210	-0.490	0.640	102.360	-1.600	0.900																			1580044923.0	10.82	20.04
26/01/2020 13:22:04	26012020	260120	132204	102.410	12.362777	-56.972657	102.340	0.300	-0.930	0.950	102.400	-2.200	1.300																			1580044924.0	11.08	20.52
26/01/2020 13:22:05	26012020	260120	132205	102.230	12.362765	-56.972605	102.080	0.350	-1.020	1.140	102.230	-2.400	1.500																			1580044925.0	10.97	20.32
26/01/2020 13:22:06	26012020	260120	132206	102.010	12.362755	-56.972555	101.850	0.190	-0.730	1.140	101.960	-2.200	1.600																			1580044926.0	10.78	19.96
26/01/2020 13:22:07	26012020	260120	132207	101.780	12.362745	-56.972507	101.720	-0.140	-0.290	1.020	101.780	-1.800	1.500																			1580044927.0	10.49	19.43
26/01/2020 13:22:08	26012020	260120	132208	101.730	12.362737	-56.972458	101.720	-0.410	-0.120	0.800	101.730	-1.500	1.300																			1580044928.0	10.50	19.45
26/01/2020 13:22:09	26012020	260120	132209	101.750	12.362725	-56.972408	101.740	-0.410	-0.270	0.680	101.750	-1.600	1.100																			1580044929.0	10.93	20.24
26/01/2020 13:22:10	26012020	260120	132210	101.760	12.362713	-56.972355	101.760	-0.250	-0.300	0.720	101.760	-1.700	1.100																			1580044930.0	11.32	20.96
26/01/2020 13:22:11	26012020	260120	132211	101.770	12.362702	-56.972305	101.800	-0.230	0.010	0.870	101.770	-1.500	1.200																			1580044931.0	11.10	20.56
26/01/2020 13:22:12	26012020	260120	132212	101.820	12.362690	-56.972255	101.890	-0.350	0.260	0.940	101.820	-1.200	1.300																			1580044932.0	10.63	19.69
26/01/2020 13:22:13	26012020	260120	132213	101.930	12.362678	-56.972207	102.010	-0.320	0.060	0.910	101.930	-1.200	1.300																			1580044933.0	10.66	19.74
26/01/2020 13:22:14	26012020	260120	132214	102.060	12.362668	-56.972155	102.090	0.040	-0.440	0.910	102.060	-1.600	1.300																			1580044934.0	11.15	20.65
26/01/2020 13:22:15	26012020	260120	132215	102.110	12.362657	-56.972102	102.110	0.400	-0.600	0.910	102.110	-2.000	1.300																			1580044935.0	11.45	21.21
26/01/2020 13:22:16	26012020	260120	132216	102.150	12.362647	-56.972052	102.160	0.410	-0.190	0.820	102.150	-1.800	1.300																			1580044936.0	10.96	20.30
26/01/2020 13:22:17	26012020	260120	132217	102.230	12.362637	-56.972003	102.270	0.200	0.330	0.600	102.230	-1.200	1.100																			1580044937.0	10.28	19.04
26/01/2020 13:22:18	26012020	260120	132218	102.350	12.362630	-56.971957	102.430	0.110	0.370	0.230	102.390	-0.900	0.800																			1580044938.0	10.19	18.87
26/01/2020 13:22:19	26012020	260120	132219	102.550	12.362622	-56.971907	102.600	0.200	-0.040	-0.020	102.550	-1.200	0.500																			1580044939.0	10.74	19.89
26/01/2020 13:22:20	26012020	260120	132220	102.720	12.362613	-56.971855	102.760	0.280	-0.440	0.080	102.720	-1.700	0.400																			1580044940.0	11.07	20.50
26/01/2020 13:22:21	26012020	260120	132221	102.820	12.362603	-56.971803	102.790	0.200	-0.620	0.350	102.830	-1.900	0.700																			1580044941.0	10.88	20.15
26/01/2020 13:22:22	26012020	260120	132222	102.800	12.362592	-56.971755	102.650	0.010	-0.740	0.670	102.780	-2.100	0.900																			1580044942.0	10.71	19.83
26/01/2020 13:22:23	26012020	260120	132223	102.560	12.362578	-56.971705	102.410	-0.180	-0.830	1.090	102.560	-2.200	1.300																			1580044943.0	10.81	20.02
26/01/2020 13:22:24	26012020	260120	132224	102.320	12.362565	-56.971655	102.200	-0.320	-0.700	1.370	102.320	-2.100	1.700																			1580044944.0	10.89	20.17
26/01/2020 13:22:25	26012020	260120	132225	102.120	12.362552	-56.971607	102.010	-0.340	-0.460	1.320	102.120	-1.900	1.800																			1580044945.0	10.79	19.98
26/01/2020 13:22:26	26012020	260120	132226	101.910	12.362542	-56.971557	101.720	-0.230	-0.370	1.200	101.910	-1.800	1.700																			1580044946.0	10.86	20.11
26/01/2020 13:22:27	26012020	260120	132227	101.610	12.362530	-56.971503	101.480	-0.080	-0.420	1.050	101.610	-1.800	1.500																			1580044947.0	11.21	20.76
26/01/2020 13:22:28	26012020	260120	132228	101.450	12.362518	-56.971452	101.410	0.050	-0.340	0.890	101.450	-1.800	1.400																			1580044948.0	11.42	21.15
26/01/2020 13:22:29	26012020	260120	132229	101.500	12.362508	-56.971400	101.560	0.040	0.210	0.690	101.500	-1.400	1.200																			1580044949.0	11.22	20.78
26/01/2020 13:22:30	26012020	260120	132230	101.680	12.362497	-56.971352	101.910	-0.160	1.000	0.420	101.740	-0.700	0.900																			1580044950.0	10.53	19.50
26/01/2020 13:22:31	26012020	260120	132231	102.170	12.362488	-56.971305	102.440	-0.360	1.300	0.270	102.170	-0.100	0.700																			1580044951.0	10.06	18.63
26/01/2020 13:22:32	26012020	260120	132232	102.610	12.362478	-56.971257	102.950	-0.280	0.710	0.290	102.720	-0.400	0.700																			1580044952.0	10.34	19.15
26/01/2020 13:22:33	26012020	260120	132233	103.140	12.362467	-56.971205	103.220	0.150	-0.450	0.390	103.140	-1.400	0.700																			1580044953.0	11.05	20.46
26/01/2020 13:22:34	26012020	260120	132234	103.270	12.362455	-56.971152	103.200	0.680	-1.310	0.660	103.270	-2.400	1.000																			1580044954.0	11.44	21.19
26/01/2020 13:22:35	26012020	260120	132235	103.140	12.362445	-56.971102	102.990	0.920	-1.380	0.920	103.140	-2.800	1.300																			1580044955.0	11.04	20.45
26/01/2020 13:22:36	26012020	260120	132236	102.900	12.362435	-56.971053	102.730	0.700	-1.050	0.980	102.900	-2.600	1.400																			1580044956.0	10.41	19.28
26/01/2020 13:22:37	26012020	260120	132237	102.630	12.362427	-56.971005	102.410	0.190	-0.760	1.020	102.630	-2.200	1.400																			1580044957.0	10.36	19.19
26/01/2020 13:22:38	26012020	260120	132238	102.290	12.362417	-56.970955	102.020	-0.290	-0.580	1.180	102.290	-2.000	1.500																			1580044958.0	10.66	19.74
26/01/2020 13:22:39	26012020	260120	132239	101.890	12.362405	-56.970905	101.670	-0.450	-0.530	1.310	101.890	-1.900	1.700																			1580044959.0	10.99	20.35
26/01/2020 13:22:40	26012020	260120	132240	101.590	12.362392	-56.970853	101.460	-0.340	-0.450	1.370	101.590	-1.900	1.800																			1580044960.0	11.37	21.06
26/01/2020 13:22:41	26012020	260120	132241	101.460	12.362377	-56.970802	101.470	-0.320	-0.030	1.210	101.460	-1.600	1.700																			1580044961.0	11.42	21.15
26/01/2020 13:22:42	26012020	260120	132242	101.570	12.362365	-56.970750	101.700	-0.540	0.680	0.830	101.570	-1.000	1.400																			1580044962.0	10.90	20.19
26/01/2020 13:22:43	26012020	260120	132243	101.930	12.362355	-56.970703	102.140	-0.750	1.180	0.510	101.930	-0.300	1.000																			1580044963.0	10.38	19.22
26/01/2020 13:22:44	26012020	260120	132244	102.400	12.362343	-56.970655	102.580	-0.600	1.020	0.260	102.400	-0.200	0.800																			1580044964.0	10.39	19.24
26/01/2020 13:22:45	26012020	260120	132245	102.710	12.362333	-56.970605	102.860	-0.030	0.190	0.160	102.770	-0.800	0.600																			1580044965.0	10.86	20.11
26/01/2020 13:22:46	26012020	260120	132246	102.960	12.362323	-56.970552	103.000	0.650	-0.800	0.210	102.960	-1.800	0.600																			1580044966.0	11.40	21.11
26/01/2020 13:22:47	26012020	260120	132247	103.070	12.362313	-56.970500	103.050	0.950	-1.140	0.320	103.070	-2.500	0.700																			1580044967.0	11.34	21.00
26/01/2020 13:22:48	26012020	260120	132248	103.060	12.362303	-56.970450	102.990	0.740	-0.760	0.520	103.060	-2.300	0.900																			1580044968.0	10.53	19.50
26/01/2020 13:22:49	26012020	260120	132249	102.950	12.362295	-56.970405	102.830	0.370	-0.370	0.720	102.950	-1.900	1.100																			1580044969.0	9.93	18.39
26/01/2020 13:22:50	26012020	260120	132250	102.730	12.362285	-56.970357	102.530	0.140	-0.480	0.930	102.730	-1.800	1.300																			1580044970.0	10.25	18.98
26/01/2020 13:22:51	26012020	260120	132251	102.370	12.362273	-56.970307	102.110	0.100	-0.880	1.160	102.370	-2.100	1.500																			1580044971.0	11.04	20.45
26/01/2020 13:22:52	26012020	260120	132252	101.950	12.362260	-56.970253	101.750	0.030	-0.920	1.290	101.950	-2.400	1.700																			1580044972.0	11.46	21.22
26/01/2020 13:22:53	26012020	260120	132253	101.660	12.362248	-56.970202	101.550	-0.200	-0.360	1.290	101.660	-2.000	1.700																			1580044973.0	11.10	20.56
26/01/2020 13:22:54	26012020	260120	132254	101.560	12.362237	-56.970153	101.520	-0.490	0.330	1.070	101.550	-1.300	1.600																			1580044974.0	10.54	19.52
26/01/2020 13:22:55	26012020	260120	132255	101.560	12.362227	-56.970105	101.540	-0.680	0.640	0.840	101.560	-0.800	1.300																			1580044975.0	10.48	19.41
26/01/2020 13:22:56	26012020	260120	132256	101.580	12.362215	-56.970055	101.600	-0.640	0.450	0.660	101.590	-0.800	1.100																			1580044976.0	10.83	20.06
26/01/2020 13:22:57	26012020	260120	132257	101.700	12.362203	-56.970005	101.780	-0.380	0.050	0.510	101.700	-1.200	1.000																			1580044977.0	11.15	20.65
26/01/2020 13:22:58	26012020	260120	132258	101.870	12.362192	-56.969953	102.000	0.000	-0.260	0.460	101.920	-1.500	0.900																			1580044978.0	11.15	20.65
26/01/2020 13:22:59	26012020	260120	132259	102.070	12.362180	-56.969902	102.080	0.320	-0.370	0.540	102.100	-1.700	0.900																			1580044979.0	10.91	20.21
26/01/2020 13:23:00	26012020	260120	132300	102.110	12.362170	-56.969853	101.980	0.450	-0.360	0.740	102.090	-1.700	1.100	1016.60	26.20	26.20	18.10	18.20	611.00	61.00	61.00	375.00	27.90	347.00	11.40	78.00	6.10	44457	3162.00	27.40	27.40	1580044980.0	10.66	19.74
26/01/2020 13:23:01	26012020	260120	132301	101.940	12.362162	-56.969803	101.820	0.440	-0.370	0.940	101.940	-1.700	1.300																			1580044981.0	10.54	19.52
26/01/2020 13:23:02	26012020	260120	132302	101.820	12.362152	-56.969755	101.690	0.410	-0.480	1.000	101.790	-1.800	1.400																			1580044982.0	10.64	19.71
26/01/2020 13:23:03	26012020	260120	132303	101.660	12.362142	-56.969703	101.530	0.400	-0.620	0.990	101.660	-2.000	1.400																			1580044983.0	10.88	20.15
26/01/2020 13:23:04	26012020	260120	132304	101.460	12.362133	-56.969653	101.290	0.270	-0.530	1.010	101.460	-2.000	1.400																			1580044984.0	10.99	20.35
26/01/2020 13:23:05	26012020	260120	132305	101.250	12.362122	-56.969603	101.140	-0.030	-0.160	0.980	101.250	-1.700	1.400																			1580044985.0	10.76	19.93
26/01/2020 13:23:06	26012020	260120	132306	101.160	12.362112	-56.969555	101.100	-0.300	0.170	0.860	101.150	-1.300	1.300																			1580044986.0	10.45	19.35
26/01/2020 13:23:07	26012020	260120	132307	101.140	12.362102	-56.969507	101.110	-0.350	0.100	0.770	101.140	-1.200	1.200																			1580044987.0	10.56	19.56
26/01/2020 13:23:08	26012020	260120	132308	101.120	12.362092	-56.969455	101.090	-0.140	-0.320	0.740	101.120	-1.500	1.200																			1580044988.0	11.04	20.45
26/01/2020 13:23:09	26012020	260120	132309	101.070	12.362082	-56.969402	101.020	0.070	-0.600	0.840	101.070	-1.900	1.200																			1580044989.0	11.37	21.06
26/01/2020 13:23:10	26012020	260120	132310	101.030	12.362070	-56.969350	101.030	0.050	-0.430	1.020	101.030	-1.900	1.400																			1580044990.0	11.14	20.63
26/01/2020 13:23:11	26012020	260120	132311	101.050	12.362058	-56.969302	101.120	-0.180	-0.010	1.120	101.070	-1.500	1.500																			1580044991.0	10.58	19.59
26/01/2020 13:23:12	26012020	260120	132312	101.150	12.362048	-56.969255	101.190	-0.330	0.160	1.160	101.170	-1.200	1.600																			1580044992.0	10.31	19.09
26/01/2020 13:23:13	26012020	260120	132313	101.210	12.362038	-56.969205	101.250	-0.160	-0.200	1.130	101.220	-1.400	1.600																			1580044993.0	10.68	19.78
26/01/2020 13:23:14	26012020	260120	132314	101.300	12.362028	-56.969152	101.360	0.210	-0.660	0.950	101.330	-1.900	1.400																			1580044994.0	11.28	20.89
26/01/2020 13:23:15	26012020	260120	132315	101.360	12.362018	-56.969100	101.270	0.400	-0.590	0.880	101.360	-2.100	1.300																			1580044995.0	11.31	20.95
26/01/2020 13:23:16	26012020	260120	132316	101.230	12.362010	-56.969050	101.060	0.270	-0.070	0.810	101.180	-1.700	1.300																			1580044996.0	10.65	19.72
26/01/2020 13:23:17	26012020	260120	132317	101.000	12.362002	-56.969002	100.960	0.020	0.190	0.650	101.000	-1.200	1.100																			1580044997.0	10.28	19.04
26/01/2020 13:23:18	26012020	260120	132318	101.000	12.361995	-56.968952	101.060	-0.130	0.010	0.560	101.000	-1.300	1.000																			1580044998.0	10.68	19.78
26/01/2020 13:23:19	26012020	260120	132319	101.160	12.361985	-56.968902	101.250	-0.190	-0.220	0.590	101.160	-1.500	1.000																			1580044999.0	11.05	20.46
26/01/2020 13:23:20	26012020	260120	132320	101.300	12.361975	-56.968850	101.280	-0.170	-0.290	0.790	101.300	-1.700	1.100																			1580045000.0	10.97	20.32
26/01/2020 13:23:21	26012020	260120	132321	101.260	12.361963	-56.968800	101.190	-0.060	-0.330	1.050	101.260	-1.700	1.400																			1580045001.0	10.78	19.96
26/01/2020 13:23:22	26012020	260120	132322	101.170	12.361952	-56.968752	101.100	0.110	-0.430	1.170	101.160	-1.800	1.600																			1580045002.0	10.81	20.02
26/01/2020 13:23:23	26012020	260120	132323	101.100	12.361942	-56.968700	101.090	0.240	-0.500	1.040	101.100	-1.900	1.500																			1580045003.0	10.94	20.26
26/01/2020 13:23:24	26012020	260120	132324	101.150	12.361933	-56.968650	101.190	0.210	-0.350	0.630	101.150	-1.800	1.200																			1580045004.0	10.91	20.21
26/01/2020 13:23:25	26012020	260120	132325	101.260	12.361927	-56.968600	101.250	0.060	-0.100	0.460	101.260	-1.600	0.900																			1580045005.0	10.66	19.74
26/01/2020 13:23:26	26012020	260120	132326	101.270	12.361918	-56.968550	101.240	-0.090	-0.070	0.590	101.270	-1.400	1.000																			1580045006.0	10.59	19.61
26/01/2020 13:23:27	26012020	260120	132327	101.290	12.361908	-56.968500	101.300	-0.160	-0.210	0.630	101.290	-1.500	1.000																			1580045007.0	10.87	20.13
26/01/2020 13:23:28	26012020	260120	132328	101.340	12.361897	-56.968448	101.360	-0.190	-0.330	0.750	101.340	-1.700	1.100																			1580045008.0	11.01	20.39
26/01/2020 13:23:29	26012020	260120	132329	101.390	12.361887	-56.968398	101.420	-0.190	-0.360	0.830	101.390	-1.700	1.200																			1580045009.0	10.98	20.33
26/01/2020 13:23:30	26012020	260120	132330	101.430	12.361875	-56.968348	101.420	-0.140	-0.370	0.760	101.430	-1.700	1.200																			1580045010.0	10.89	20.17
26/01/2020 13:23:31	26012020	260120	132331	101.380	12.361865	-56.968297	101.320	0.010	-0.420	0.630	101.380	-1.800	1.100																			1580045011.0	10.95	20.28
26/01/2020 13:23:32	26012020	260120	132332	101.280	12.361857	-56.968245	101.240	0.130	-0.330	0.430	101.280	-1.800	0.900																			1580045012.0	11.06	20.48
26/01/2020 13:23:33	26012020	260120	132333	101.280	12.361848	-56.968195	101.330	0.090	-0.010	0.220	101.280	-1.500	0.700																			1580045013.0	10.91	20.21
26/01/2020 13:23:34	26012020	260120	132334	101.390	12.361840	-56.968145	101.520	-0.160	0.390	0.170	101.430	-1.100	0.600																			1580045014.0	10.56	19.56
26/01/2020 13:23:35	26012020	260120	132335	101.620	12.361830	-56.968097	101.670	-0.320	0.370	0.280	101.620	-0.900	0.600																			1580045015.0	10.37	19.21
26/01/2020 13:23:36	26012020	260120	132336	101.710	12.361818	-56.968047	101.730	-0.080	-0.190	0.460	101.710	-1.300	0.800																			1580045016.0	10.83	20.06
26/01/2020 13:23:37	26012020	260120	132337	101.760	12.361807	-56.967995	101.780	0.350	-0.710	0.580	101.760	-1.900	1.000																			1580045017.0	11.38	21.08
26/01/2020 13:23:38	26012020	260120	132338	101.800	12.361797	-56.967943	101.820	0.490	-0.650	0.600	101.820	-2.100	1.000																			1580045018.0	11.22	20.78
26/01/2020 13:23:39	26012020	260120	132339	101.860	12.361787	-56.967893	101.850	0.210	-0.140	0.580	101.860	-1.700	1.000																			1580045019.0	10.48	19.41
26/01/2020 13:23:40	26012020	260120	132340	101.850	12.361780	-56.967847	101.800	-0.150	0.090	0.610	101.850	-1.300	1.000																			1580045020.0	10.03	18.58
26/01/2020 13:23:41	26012020	260120	132341	101.730	12.361770	-56.967798	101.580	-0.170	-0.500	0.710	101.730	-1.600	1.100																			1580045021.0	10.56	19.56
26/01/2020 13:23:42	26012020	260120	132342	101.530	12.361760	-56.967745	101.300	0.070	-1.210	0.820	101.480	-2.400	1.200																			1580045022.0	11.61	21.50
26/01/2020 13:23:43	26012020	260120	132343	101.230	12.361748	-56.967690	101.120	0.120	-1.040	0.980	101.230	-2.600	1.300																			1580045023.0	11.68	21.63
26/01/2020 13:23:44	26012020	260120	132344	101.090	12.361737	-56.967642	101.050	-0.150	-0.140	1.110	101.090	-1.900	1.500																			1580045024.0	10.72	19.85
26/01/2020 13:23:45	26012020	260120	132345	101.050	12.361725	-56.967595	101.050	-0.440	0.550	1.060	101.050	-1.000	1.500																			1580045025.0	10.08	18.67
26/01/2020 13:23:46	26012020	260120	132346	101.060	12.361715	-56.967547	101.060	-0.430	0.420	0.830	101.060	-0.800	1.300																			1580045026.0	10.49	19.43
26/01/2020 13:23:47	26012020	260120	132347	101.070	12.361705	-56.967493	101.110	-0.190	-0.050	0.630	101.070	-1.300	1.100																			1580045027.0	11.35	21.02
26/01/2020 13:23:48	26012020	260120	132348	101.160	12.361695	-56.967440	101.350	-0.010	-0.100	0.380	101.200	-1.500	0.900																			1580045028.0	11.44	21.19
26/01/2020 13:23:49	26012020	260120	132349	101.560	12.361685	-56.967392	101.730	-0.020	0.290	0.180	101.560	-1.300	0.600																			1580045029.0	10.70	19.82
26/01/2020 13:23:50	26012020	260120	132350	101.870	12.361677	-56.967343	101.940	-0.060	0.420	0.230	101.870	-0.900	0.600																			1580045030.0	10.10	18.71
26/01/2020 13:23:51	26012020	260120	132351	101.990	12.361667	-56.967295	101.990	0.070	-0.120	0.420	101.990	-1.200	0.800																			1580045031.0	10.43	19.32
26/01/2020 13:23:52	26012020	260120	132352	102.010	12.361657	-56.967245	101.990	0.370	-0.880	0.670	102.010	-2.000	1.000																			1580045032.0	11.10	20.56
26/01/2020 13:23:53	26012020	260120	132353	101.990	12.361645	-56.967192	101.950	0.620	-1.170	0.770	101.990	-2.500	1.200																			1580045033.0	11.24	20.82
26/01/2020 13:23:54	26012020	260120	132354	101.960	12.361637	-56.967142	101.850	0.620	-0.960	0.790	101.950	-2.500	1.200																			1580045034.0	10.83	20.06
26/01/2020 13:23:55	26012020	260120	132355	101.770	12.361627	-56.967093	101.580	0.370	-0.540	0.950	101.770	-2.100	1.300																			1580045035.0	10.53	19.50
26/01/2020 13:23:56	26012020	260120	132356	101.470	12.361618	-56.967045	101.320	0.000	-0.210	1.070	101.470	-1.700	1.500																			1580045036.0	10.51	19.46
26/01/2020 13:23:57	26012020	260120	132357	101.310	12.361608	-56.966995	101.260	-0.290	-0.090	1.010	101.310	-1.500	1.500																			1580045037.0	10.73	19.87
26/01/2020 13:23:58	26012020	260120	132358	101.310	12.361598	-56.966943	101.250	-0.490	-0.050	0.980	101.310	-1.500	1.400																			1580045038.0	11.04	20.45
26/01/2020 13:23:59	26012020	260120	132359	101.250	12.361587	-56.966892	101.170	-0.630	-0.010	1.030	101.250	-1.400	1.400																			1580045039.0	11.06	20.48
26/01/2020 13:24:00	26012020	260120	132400	101.220	12.361573	-56.966842	101.250	-0.640	-0.000	0.980	101.230	-1.400	1.400	1016.60	26.20	26.20	18.20	18.20	611.00	61.00	61.00	375.00	27.90	348.00	11.00	77.00	5.70	44576	3204.00	27.40	27.40	1580045040.0	11.02	20.41
26/01/2020 13:24:01	26012020	260120	132401	101.340	12.361562	-56.966792	101.430	-0.540	0.010	0.950	101.380	-1.400	1.400																			1580045041.0	10.99	20.35
26/01/2020 13:24:02	26012020	260120	132402	101.560	12.361550	-56.966742	101.600	-0.340	0.060	0.800	101.560	-1.300	1.300																			1580045042.0	10.87	20.13
26/01/2020 13:24:03	26012020	260120	132403	101.690	12.361538	-56.966692	101.710	-0.020	0.130	0.500	101.720	-1.300	1.000																			1580045043.0	10.71	19.83
26/01/2020 13:24:04	26012020	260120	132404	101.810	12.361530	-56.966642	101.790	0.440	-0.020	0.280	101.810	-1.300	0.800																			1580045044.0	10.61	19.65
26/01/2020 13:24:05	26012020	260120	132405	101.920	12.361522	-56.966592	101.920	0.890	-0.490	0.090	101.920	-1.700	0.600																			1580045045.0	10.92	20.22
26/01/2020 13:24:06	26012020	260120	132406	102.020	12.361515	-56.966538	102.040	1.020	-0.790	-0.040	102.050	-2.100	0.400																			1580045046.0	11.25	20.84
26/01/2020 13:24:07	26012020	260120	132407	102.140	12.361508	-56.966487	102.120	0.710	-0.540	0.190	102.140	-2.100	0.500																			1580045047.0	10.94	20.26
26/01/2020 13:24:08	26012020	260120	132408	102.170	12.361500	-56.966440	102.180	0.140	-0.060	0.710	102.180	-1.600	0.900																			1580045048.0	10.30	19.08
26/01/2020 13:24:09	26012020	260120	132409	102.210	12.361488	-56.966393	102.170	-0.390	0.040	1.170	102.210	-1.300	1.400																			1580045049.0	10.21	18.91
26/01/2020 13:24:10	26012020	260120	132410	102.140	12.361475	-56.966343	102.030	-0.630	-0.380	1.470	102.140	-1.600	1.800																			1580045050.0	10.73	19.87
26/01/2020 13:24:11	26012020	260120	132411	102.000	12.361462	-56.966292	101.870	-0.530	-0.870	1.490	102.000	-2.100	1.900																			1580045051.0	11.36	21.04
26/01/2020 13:24:12	26012020	260120	132412	101.860	12.361448	-56.966240	101.700	-0.330	-0.790	1.320	101.820	-2.300	1.800																			1580045052.0	11.44	21.19
26/01/2020 13:24:13	26012020	260120	132413	101.700	12.361437	-56.966190	101.600	-0.260	-0.210	0.990	101.700	-1.800	1.500																			1580045053.0	10.84	20.08
26/01/2020 13:24:14	26012020	260120	132414	101.660	12.361428	-56.966142	101.590	-0.240	0.230	0.610	101.660	-1.300	1.200																			1580045054.0	10.39	19.24
26/01/2020 13:24:15	26012020	260120	132415	101.720	12.361418	-56.966092	101.710	-0.080	0.220	0.200	101.720	-1.100	0.800																			1580045055.0	10.65	19.72
26/01/2020 13:24:16	26012020	260120	132416	101.890	12.361410	-56.966040	101.890	0.180	-0.040	-0.150	101.890	-1.300	0.400																			1580045056.0	11.08	20.52
26/01/2020 13:24:17	26012020	260120	132417	102.030	12.361402	-56.965988	101.970	0.430	-0.260	-0.190	102.030	-1.600	0.200																			1580045057.0	11.23	20.80
26/01/2020 13:24:18	26012020	260120	132418	102.070	12.361392	-56.965937	102.020	0.510	-0.250	0.140	102.070	-1.700	0.400																			1580045058.0	11.03	20.43
26/01/2020 13:24:19	26012020	260120	132419	102.120	12.361382	-56.965887	102.070	0.400	-0.170	0.520	102.120	-1.600	0.800																			1580045059.0	10.70	19.82
26/01/2020 13:24:20	26012020	260120	132420	102.140	12.361372	-56.965838	102.020	0.170	-0.190	0.850	102.120	-1.600	1.200																			1580045060.0	10.67	19.76
26/01/2020 13:24:21	26012020	260120	132421	102.040	12.361360	-56.965788	101.970	-0.140	-0.180	1.040	102.040	-1.600	1.400																			1580045061.0	10.76	19.93
26/01/2020 13:24:22	26012020	260120	132422	102.040	12.361348	-56.965738	102.010	-0.380	-0.180	1.080	102.040	-1.500	1.500																			1580045062.0	10.68	19.78
26/01/2020 13:24:23	26012020	260120	132423	102.100	12.361337	-56.965690	102.060	-0.420	-0.230	1.020	102.100	-1.600	1.500																			1580045063.0	10.71	19.83
26/01/2020 13:24:24	26012020	260120	132424	102.140	12.361325	-56.965640	102.060	-0.300	-0.240	0.840	102.140	-1.600	1.300																			1580045064.0	10.78	19.96
26/01/2020 13:24:25	26012020	260120	132425	102.120	12.361313	-56.965590	102.010	-0.070	-0.280	0.540	102.110	-1.600	1.100																			1580045065.0	10.74	19.89
26/01/2020 13:24:26	26012020	260120	132426	102.080	12.361305	-56.965540	101.940	0.220	-0.480	0.280	102.070	-1.800	0.800																			1580045066.0	10.81	20.02
26/01/2020 13:24:27	26012020	260120	132427	101.980	12.361295	-56.965488	101.850	0.460	-0.740	0.160	101.980	-2.000	0.600																			1580045067.0	11.10	20.56
26/01/2020 13:24:28	26012020	260120	132428	101.890	12.361287	-56.965437	101.800	0.500	-0.660	0.330	101.890	-2.100	0.600																			1580045068.0	11.18	20.71
26/01/2020 13:24:29	26012020	260120	132429	101.830	12.361277	-56.965387	101.730	0.260	-0.240	0.740	101.830	-1.800	1.000																			1580045069.0	10.78	19.96
26/01/2020 13:24:30	26012020	260120	132430	101.730	12.361265	-56.965338	101.630	-0.060	-0.060	1.120	101.730	-1.500	1.400																			1580045070.0	10.53	19.50
26/01/2020 13:24:31	26012020	260120	132431	101.620	12.361253	-56.965288	101.520	-0.270	-0.220	1.370	101.620	-1.500	1.700																			1580045071.0	10.95	20.28
26/01/2020 13:24:32	26012020	260120	132432	101.510	12.361240	-56.965237	101.470	-0.400	-0.210	1.440	101.510	-1.600	1.800																			1580045072.0	11.30	20.93
26/01/2020 13:24:33	26012020	260120	132433	101.560	12.361228	-56.965185	101.610	-0.490	0.110	1.260	101.560	-1.400	1.800																			1580045073.0	10.95	20.28
26/01/2020 13:24:34	26012020	260120	132434	101.770	12.361218	-56.965137	101.820	-0.390	0.240	0.910	101.770	-1.100	1.500																			1580045074.0	10.57	19.58
26/01/2020 13:24:35	26012020	260120	132435	101.960	12.361208	-56.965087	101.960	-0.070	-0.030	0.570	101.960	-1.300	1.100																			1580045075.0	10.84	20.08
26/01/2020 13:24:36	26012020	260120	132436	102.070	12.361198	-56.965035	102.090	0.210	-0.170	0.430	102.070	-1.500	0.900																			1580045076.0	11.20	20.74
26/01/2020 13:24:37	26012020	260120	132437	102.210	12.361188	-56.964985	102.380	0.240	0.080	0.300	102.270	-1.400	0.800																			1580045077.0	10.82	20.04
26/01/2020 13:24:38	26012020	260120	132438	102.630	12.361178	-56.964937	102.760	0.130	0.270	0.130	102.630	-1.100	0.600																			1580045078.0	10.24	18.96
26/01/2020 13:24:39	26012020	260120	132439	102.920	12.361170	-56.964888	102.950	0.180	-0.140	0.190	102.960	-1.300	0.500																			1580045079.0	10.31	19.09
26/01/2020 13:24:40	26012020	260120	132440	102.980	12.361160	-56.964838	102.780	0.400	-0.910	0.550	102.980	-2.000	0.800																			1580045080.0	11.01	20.39
26/01/2020 13:24:41	26012020	260120	132441	102.680	12.361148	-56.964785	102.410	0.530	-1.310	0.920	102.680	-2.600	1.200																			1580045081.0	11.39	21.09
26/01/2020 13:24:42	26012020	260120	132442	102.310	12.361137	-56.964735	102.090	0.360	-1.050	1.020	102.310	-2.600	1.400																			1580045082.0	11.00	20.37
26/01/2020 13:24:43	26012020	260120	132443	102.050	12.361128	-56.964685	101.860	0.000	-0.600	0.980	102.050	-2.100	1.400																			1580045083.0	10.53	19.50
26/01/2020 13:24:44	26012020	260120	132444	101.840	12.361118	-56.964637	101.650	-0.270	-0.350	1.050	101.840	-1.800	1.400																			1580045084.0	10.66	19.74
26/01/2020 13:24:45	26012020	260120	132445	101.620	12.361105	-56.964585	101.430	-0.430	-0.130	1.220	101.620	-1.600	1.600																			1580045085.0	11.09	20.54
26/01/2020 13:24:46	26012020	260120	132446	101.440	12.361092	-56.964535	101.330	-0.520	0.180	1.220	101.440	-1.300	1.700																			1580045086.0	11.10	20.56
26/01/2020 13:24:47	26012020	260120	132447	101.440	12.361080	-56.964485	101.440	-0.510	0.390	1.020	101.440	-1.100	1.500																			1580045087.0	10.94	20.26
26/01/2020 13:24:48	26012020	260120	132448	101.600	12.361068	-56.964433	101.750	-0.390	0.400	0.700	101.660	-1.000	1.200																			1580045088.0	10.95	20.28
26/01/2020 13:24:49	26012020	260120	132449	102.030	12.361058	-56.964383	102.150	-0.230	0.350	0.380	102.030	-1.000	0.900																			1580045089.0	10.96	20.30
26/01/2020 13:24:50	26012020	260120	132450	102.400	12.361048	-56.964333	102.420	-0.020	0.240	0.310	102.400	-1.100	0.700																			1580045090.0	10.80	20.00
26/01/2020 13:24:51	26012020	260120	132451	102.540	12.361037	-56.964283	102.450	0.240	0.020	0.390	102.550	-1.300	0.800																			1580045091.0	10.70	19.82
26/01/2020 13:24:52	26012020	260120	132452	102.540	12.361028	-56.964233	102.460	0.490	-0.360	0.460	102.540	-1.600	0.800																			1580045092.0	10.71	19.83
26/01/2020 13:24:53	26012020	260120	132453	102.560	12.361018	-56.964183	102.470	0.640	-0.800	0.570	102.560	-2.000	0.900																			1580045093.0	10.88	20.15
26/01/2020 13:24:54	26012020	260120	132454	102.530	12.361008	-56.964133	102.380	0.600	-0.940	0.670	102.530	-2.300	1.000																			1580045094.0	10.93	20.24
26/01/2020 13:24:55	26012020	260120	132455	102.380	12.361000	-56.964083	102.150	0.360	-0.790	0.830	102.380	-2.300	1.200																			1580045095.0	10.70	19.82
26/01/2020 13:24:56	26012020	260120	132456	102.110	12.360990	-56.964033	101.860	0.040	-0.590	1.090	102.110	-2.000	1.400																			1580045096.0	10.58	19.59
26/01/2020 13:24:57	26012020	260120	132457	101.830	12.360978	-56.963985	101.610	-0.210	-0.500	1.280	101.830	-1.900	1.600																			1580045097.0	10.75	19.91
26/01/2020 13:24:58	26012020	260120	132458	101.620	12.360965	-56.963933	101.420	-0.330	-0.410	1.260	101.620	-1.800	1.700																			1580045098.0	11.05	20.46
26/01/2020 13:24:59	26012020	260120	132459	101.450	12.360953	-56.963882	101.290	-0.370	-0.230	1.030	101.450	-1.700	1.500																			1580045099.0	11.10	20.56
26/01/2020 13:25:00	26012020	260120	132500	101.390	12.360943	-56.963832	101.310	-0.430	0.030	0.820	101.390	-1.400	1.300	1016.60	26.20	26.30	17.90	18.10	600.00	60.00	60.00	375.00	27.90	348.00	11.40	79.00	6.10	44129	3290.00	27.50	27.40	1580045100.0	11.05	20.46
26/01/2020 13:25:01	26012020	260120	132501	101.490	12.360932	-56.963782	101.480	-0.460	0.270	0.680	101.490	-1.200	1.100																			1580045101.0	10.88	20.15
26/01/2020 13:25:02	26012020	260120	132502	101.650	12.360920	-56.963732	101.620	-0.320	0.240	0.570	101.650	-1.100	1.000																			1580045102.0	10.84	20.08
26/01/2020 13:25:03	26012020	260120	132503	101.770	12.360910	-56.963680	101.760	-0.000	-0.010	0.520	101.770	-1.300	0.900																			1580045103.0	11.08	20.52
26/01/2020 13:25:04	26012020	260120	132504	101.880	12.360900	-56.963628	101.890	0.210	-0.110	0.600	101.900	-1.500	1.000																			1580045104.0	11.19	20.72
26/01/2020 13:25:05	26012020	260120	132505	102.050	12.360890	-56.963578	102.060	0.160	0.010	0.720	102.050	-1.400	1.100																			1580045105.0	10.81	20.02
26/01/2020 13:25:06	26012020	260120	132506	102.170	12.360878	-56.963530	102.120	0.050	-0.030	0.870	102.190	-1.300	1.200																			1580045106.0	10.46	19.37
26/01/2020 13:25:07	26012020	260120	132507	102.170	12.360868	-56.963480	102.050	0.140	-0.440	1.020	102.170	-1.600	1.400																			1580045107.0	10.68	19.78
26/01/2020 13:25:08	26012020	260120	132508	102.090	12.360858	-56.963428	101.930	0.340	-0.780	1.140	102.060	-2.100	1.500																			1580045108.0	11.15	20.65
26/01/2020 13:25:09	26012020	260120	132509	101.940	12.360847	-56.963378	101.820	0.380	-0.620	1.160	101.940	-2.100	1.600																			1580045109.0	11.03	20.43
26/01/2020 13:25:10	26012020	260120	132510	101.840	12.360837	-56.963328	101.710	0.220	-0.240	0.950	101.840	-1.700	1.500																			1580045110.0	10.53	19.50
26/01/2020 13:25:11	26012020	260120	132511	101.770	12.360828	-56.963280	101.640	0.080	-0.180	0.670	101.770	-1.500	1.200																			1580045111.0	10.43	19.32
26/01/2020 13:25:12	26012020	260120	132512	101.720	12.360820	-56.963228	101.570	0.070	-0.460	0.630	101.710	-1.700	1.000																			1580045112.0	10.96	20.30
26/01/2020 13:25:13	26012020	260120	132513	101.620	12.360810	-56.963177	101.500	0.060	-0.510	0.690	101.620	-1.900	1.100																			1580045113.0	11.31	20.95
26/01/2020 13:25:14	26012020	260120	132514	101.560	12.360800	-56.963125	101.450	-0.100	-0.190	0.760	101.560	-1.700	1.100																			1580045114.0	10.98	20.33
26/01/2020 13:25:15	26012020	260120	132515	101.510	12.360788	-56.963077	101.400	-0.310	0.000	0.960	101.500	-1.400	1.300																			1580045115.0	10.63	19.69
26/01/2020 13:25:16	26012020	260120	132516	101.470	12.360777	-56.963027	101.400	-0.430	-0.140	1.160	101.460	-1.400	1.500																			1580045116.0	10.86	20.11
26/01/2020 13:25:17	26012020	260120	132517	101.470	12.360765	-56.962975	101.360	-0.420	-0.330	1.160	101.460	-1.700	1.600																			1580045117.0	11.21	20.76
26/01/2020 13:25:18	26012020	260120	132518	101.410	12.360752	-56.962923	101.240	-0.350	-0.320	1.120	101.380	-1.700	1.500																			1580045118.0	11.16	20.67
26/01/2020 13:25:19	26012020	260120	132519	101.250	12.360742	-56.962873	101.130	-0.210	-0.200	0.990	101.250	-1.600	1.500																			1580045119.0	10.92	20.22
26/01/2020 13:25:20	26012020	260120	132520	101.180	12.360732	-56.962823	101.080	-0.010	-0.120	0.730	101.170	-1.500	1.300																			1580045120.0	10.87	20.13
26/01/2020 13:25:21	26012020	260120	132521	101.170	12.360722	-56.962772	101.080	0.210	-0.120	0.390	101.170	-1.500	0.900																			1580045121.0	10.93	20.24
26/01/2020 13:25:22	26012020	260120	132522	101.180	12.360715	-56.962722	101.100	0.350	-0.130	0.200	101.180	-1.500	0.700																			1580045122.0	10.99	20.35
26/01/2020 13:25:23	26012020	260120	132523	101.230	12.360705	-56.962670	101.240	0.360	0.020	0.240	101.230	-1.400	0.600																			1580045123.0	10.92	20.22
26/01/2020 13:25:24	26012020	260120	132524	101.420	12.360697	-56.962620	101.510	0.230	0.250	0.360	101.420	-1.200	0.700																			1580045124.0	10.65	19.72
26/01/2020 13:25:25	26012020	260120	132525	101.710	12.360687	-56.962572	101.740	0.080	0.280	0.520	101.710	-1.100	0.900																			1580045125.0	10.43	19.32
26/01/2020 13:25:26	26012020	260120	132526	101.830	12.360677	-56.962523	101.750	0.080	-0.180	0.790	101.840	-1.300	1.100																			1580045126.0	10.58	19.59
26/01/2020 13:25:27	26012020	260120	132527	101.760	12.360665	-56.962472	101.620	0.250	-0.850	0.980	101.760	-2.000	1.400																			1580045127.0	11.11	20.58
26/01/2020 13:25:28	26012020	260120	132528	101.600	12.360657	-56.962420	101.430	0.320	-1.190	1.030	101.600	-2.500	1.400																			1580045128.0	11.34	21.00
26/01/2020 13:25:29	26012020	260120	132529	101.420	12.360647	-56.962368	101.270	0.150	-1.080	1.080	101.420	-2.500	1.500																			1580045129.0	11.06	20.48
26/01/2020 13:25:30	26012020	260120	132530	101.260	12.360637	-56.962318	101.080	-0.160	-0.740	1.210	101.260	-2.200	1.600																			1580045130.0	10.78	19.96
26/01/2020 13:25:31	26012020	260120	132531	101.020	12.360625	-56.962268	100.820	-0.450	-0.360	1.380	101.020	-1.900	1.700																			1580045131.0	10.82	20.04
26/01/2020 13:25:32	26012020	260120	132532	100.760	12.360612	-56.962218	100.580	-0.580	-0.060	1.310	100.760	-1.500	1.800																			1580045132.0	10.95	20.28
26/01/2020 13:25:33	26012020	260120	132533	100.610	12.360600	-56.962167	100.520	-0.470	0.070	1.030	100.610	-1.300	1.600																			1580045133.0	11.09	20.54
26/01/2020 13:25:34	26012020	260120	132534	100.640	12.360590	-56.962115	100.630	-0.220	0.160	0.730	100.640	-1.200	1.300																			1580045134.0	11.28	20.89
26/01/2020 13:25:35	26012020	260120	132535	100.830	12.360582	-56.962062	100.920	-0.060	0.330	0.390	100.830	-1.100	0.900																			1580045135.0	11.18	20.71
26/01/2020 13:25:36	26012020	260120	132536	101.200	12.360573	-56.962012	101.320	-0.040	0.520	0.270	101.200	-0.900	0.700																			1580045136.0	10.87	20.13
26/01/2020 13:25:37	26012020	260120	132537	101.560	12.360563	-56.961962	101.620	-0.020	0.480	0.350	101.560	-0.800	0.700																			1580045137.0	10.65	19.72
26/01/2020 13:25:38	26012020	260120	132538	101.810	12.360553	-56.961913	101.800	0.100	0.130	0.490	101.810	-1.100	0.900																			1580045138.0	10.70	19.82
26/01/2020 13:25:39	26012020	260120	132539	101.940	12.360545	-56.961862	101.910	0.350	-0.450	0.620	101.940	-1.600	1.000																			1580045139.0	10.90	20.19
26/01/2020 13:25:40	26012020	260120	132540	102.010	12.360535	-56.961810	101.910	0.590	-0.900	0.680	102.010	-2.100	1.100																			1580045140.0	11.07	20.50
26/01/2020 13:25:41	26012020	260120	132541	101.930	12.360527	-56.961760	101.720	0.560	-0.980	0.800	101.930	-2.300	1.200																			1580045141.0	10.98	20.33
26/01/2020 13:25:42	26012020	260120	132542	101.670	12.360517	-56.961710	101.470	0.260	-0.790	0.910	101.670	-2.200	1.300																			1580045142.0	10.67	19.76
26/01/2020 13:25:43	26012020	260120	132543	101.450	12.360507	-56.961660	101.280	-0.010	-0.630	0.870	101.450	-2.000	1.300																			1580045143.0	10.59	19.61
26/01/2020 13:25:44	26012020	260120	132544	101.310	12.360498	-56.961610	101.170	-0.070	-0.600	0.770	101.310	-2.000	1.200																			1580045144.0	10.88	20.15
26/01/2020 13:25:45	26012020	260120	132545	101.220	12.360487	-56.961558	101.110	-0.080	-0.500	0.590	101.220	-1.900	1.100																			1580045145.0	11.22	20.78
26/01/2020 13:25:46	26012020	260120	132546	101.160	12.360477	-56.961507	101.030	-0.220	-0.200	0.480	101.160	-1.700	0.900																			1580045146.0	11.15	20.65
26/01/2020 13:25:47	26012020	260120	132547	101.090	12.360467	-56.961455	101.020	-0.410	0.130	0.550	101.090	-1.300	0.900																			1580045147.0	10.94	20.26
26/01/2020 13:25:48	26012020	260120	132548	101.110	12.360455	-56.961405	101.170	-0.490	0.270	0.680	101.140	-1.100	1.000																			1580045148.0	10.92	20.22
26/01/2020 13:25:49	26012020	260120	132549	101.330	12.360443	-56.961355	101.350	-0.380	0.210	0.790	101.330	-1.100	1.200																			1580045149.0	11.07	20.50
26/01/2020 13:25:50	26012020	260120	132550	101.480	12.360432	-56.961303	101.440	-0.170	0.120	0.800	101.480	-1.200	1.200																			1580045150.0	11.15	20.65
26/01/2020 13:25:51	26012020	260120	132551	101.550	12.360420	-56.961252	101.500	0.010	0.090	0.830	101.550	-1.300	1.200																			1580045151.0	11.02	20.41
26/01/2020 13:25:52	26012020	260120	132552	101.620	12.360412	-56.961202	101.670	0.110	-0.030	0.690	101.660	-1.300	1.200																			1580045152.0	10.81	20.02
26/01/2020 13:25:53	26012020	260120	132553	101.840	12.360403	-56.961152	101.800	0.210	-0.390	0.470	101.840	-1.600	1.000																			1580045153.0	10.88	20.15
26/01/2020 13:25:54	26012020	260120	132554	101.900	12.360395	-56.961098	101.770	0.290	-0.680	0.500	101.900	-2.000	0.900																			1580045154.0	11.13	20.61
26/01/2020 13:25:55	26012020	260120	132555	101.820	12.360383	-56.961048	101.690	0.270	-0.510	0.730	101.820	-2.000	1.100																			1580045155.0	11.00	20.37
26/01/2020 13:25:56	26012020	260120	132556	101.770	12.360373	-56.961000	101.690	0.180	-0.150	0.820	101.770	-1.600	1.200																			1580045156.0	10.49	19.43
26/01/2020 13:25:57	26012020	260120	132557	101.770	12.360363	-56.960952	101.620	0.170	-0.210	0.720	101.770	-1.500	1.200																			1580045157.0	10.42	19.30
26/01/2020 13:25:58	26012020	260120	132558	101.680	12.360355	-56.960900	101.450	0.310	-0.660	0.650	101.640	-1.800	1.100																			1580045158.0	11.06	20.48
26/01/2020 13:25:59	26012020	260120	132559	101.490	12.360345	-56.960847	101.400	0.360	-0.860	0.770	101.490	-2.200	1.100																			1580045159.0	11.54	21.37
26/01/2020 13:26:00	26012020	260120	132600	101.500	12.360335	-56.960795	101.520	0.080	-0.430	0.830	101.520	-2.000	1.200	1016.60	26.20	26.30	17.80	18.00	598.00	60.00	60.00	374.00	27.90	348.00	11.00	77.00	5.60	44189	3132.00	27.50	27.50	1580045160.0	11.22	20.78
26/01/2020 13:26:01	26012020	260120	132601	101.650	12.360325	-56.960745	101.610	-0.400	0.230	0.790	101.650	-1.400	1.200																			1580045161.0	10.50	19.45
26/01/2020 13:26:02	26012020	260120	132602	101.690	12.360313	-56.960698	101.550	-0.670	0.350	0.860	101.680	-1.000	1.200																			1580045162.0	10.35	19.17
26/01/2020 13:26:03	26012020	260120	132603	101.560	12.360302	-56.960647	101.470	-0.440	-0.120	0.820	101.560	-1.300	1.300																			1580045163.0	11.06	20.48
26/01/2020 13:26:04	26012020	260120	132604	101.550	12.360290	-56.960593	101.510	-0.030	-0.470	0.690	101.550	-1.800	1.200																			1580045164.0	11.62	21.52
26/01/2020 13:26:05	26012020	260120	132605	101.650	12.360280	-56.960542	101.640	0.120	-0.420	0.530	101.650	-1.800	1.000																			1580045165.0	11.33	20.98
26/01/2020 13:26:06	26012020	260120	132606	101.770	12.360270	-56.960490	101.750	0.030	-0.140	0.360	101.790	-1.600	0.800																			1580045166.0	10.83	20.06
26/01/2020 13:26:07	26012020	260120	132607	101.860	12.360260	-56.960442	101.770	-0.060	0.020	0.340	101.860	-1.400	0.800																			1580045167.0	10.60	19.63
26/01/2020 13:26:08	26012020	260120	132608	101.890	12.360252	-56.960392	101.840	-0.020	-0.070	0.360	101.890	-1.400	0.800																			1580045168.0	10.77	19.95
26/01/2020 13:26:09	26012020	260120	132609	101.990	12.360240	-56.960340	101.960	0.070	-0.190	0.350	101.990	-1.500	0.800																			1580045169.0	11.02	20.41
26/01/2020 13:26:10	26012020	260120	132610	102.060	12.360230	-56.960290	101.970	0.110	-0.280	0.520	102.060	-1.600	0.800																			1580045170.0	10.94	20.26
26/01/2020 13:26:11	26012020	260120	132611	102.010	12.360218	-56.960240	101.910	0.140	-0.420	0.760	102.010	-1.700	1.100																			1580045171.0	10.92	20.22
26/01/2020 13:26:12	26012020	260120	132612	101.970	12.360208	-56.960188	101.930	0.150	-0.380	0.910	101.970	-1.800	1.300																			1580045172.0	11.02	20.41
26/01/2020 13:26:13	26012020	260120	132613	102.010	12.360197	-56.960138	101.950	0.070	-0.150	0.840	102.010	-1.600	1.300																			1580045173.0	10.77	19.95
26/01/2020 13:26:14	26012020	260120	132614	102.010	12.360187	-56.960090	101.880	0.050	-0.150	0.680	102.000	-1.500	1.100																			1580045174.0	10.60	19.63
26/01/2020 13:26:15	26012020	260120	132615	101.920	12.360178	-56.960038	101.800	0.160	-0.400	0.560	101.920	-1.700	1.000																			1580045175.0	10.97	20.32
26/01/2020 13:26:16	26012020	260120	132616	101.860	12.360168	-56.959987	101.770	0.260	-0.560	0.560	101.860	-1.900	1.000																			1580045176.0	11.26	20.85
26/01/2020 13:26:17	26012020	260120	132617	101.810	12.360158	-56.959935	101.730	0.120	-0.400	0.670	101.810	-1.900	1.000																			1580045177.0	11.14	20.63
26/01/2020 13:26:18	26012020	260120	132618	101.790	12.360148	-56.959885	101.720	-0.210	-0.080	0.830	101.790	-1.600	1.200																			1580045178.0	10.78	19.96
26/01/2020 13:26:19	26012020	260120	132619	101.780	12.360135	-56.959835	101.700	-0.400	-0.010	1.060	101.770	-1.400	1.400																			1580045179.0	10.66	19.74
26/01/2020 13:26:20	26012020	260120	132620	101.750	12.360123	-56.959785	101.700	-0.270	-0.250	1.150	101.740	-1.500	1.500																			1580045180.0	11.00	20.37
26/01/2020 13:26:21	26012020	260120	132621	101.790	12.360112	-56.959733	101.780	-0.020	-0.440	1.150	101.790	-1.800	1.600																			1580045181.0	11.34	21.00
26/01/2020 13:26:22	26012020	260120	132622	101.880	12.360100	-56.959682	101.930	0.040	-0.270	1.130	101.910	-1.800	1.600																			1580045182.0	11.20	20.74
26/01/2020 13:26:23	26012020	260120	132623	102.060	12.360090	-56.959632	102.020	-0.130	0.150	0.980	102.060	-1.400	1.500																			1580045183.0	10.67	19.76
26/01/2020 13:26:24	26012020	260120	132624	102.080	12.360080	-56.959583	101.920	-0.230	0.170	0.800	102.060	-1.100	1.300																			1580045184.0	10.40	19.26
26/01/2020 13:26:25	26012020	260120	132625	101.920	12.360070	-56.959533	101.760	-0.010	-0.410	0.690	101.920	-1.500	1.100																			1580045185.0	10.94	20.26
26/01/2020 13:26:26	26012020	260120	132626	101.810	12.360060	-56.959478	101.690	0.320	-0.860	0.620	101.810	-2.100	1.100																			1580045186.0	11.62	21.52
26/01/2020 13:26:27	26012020	260120	132627	101.750	12.360052	-56.959427	101.660	0.390	-0.560	0.620	101.750	-2.100	1.000																			1580045187.0	11.35	21.02
26/01/2020 13:26:28	26012020	260120	132628	101.750	12.360042	-56.959377	101.710	0.150	0.040	0.720	101.750	-1.500	1.100																			1580045188.0	10.52	19.48
26/01/2020 13:26:29	26012020	260120	132629	101.800	12.360032	-56.959328	101.760	-0.090	0.220	0.870	101.800	-1.100	1.200																			1580045189.0	10.35	19.17
26/01/2020 13:26:30	26012020	260120	132630	101.830	12.360022	-56.959278	101.800	-0.120	-0.080	0.970	101.840	-1.300	1.300																			1580045190.0	10.88	20.15
26/01/2020 13:26:31	26012020	260120	132631	101.860	12.360010	-56.959227	101.840	0.000	-0.400	1.070	101.870	-1.700	1.400																			1580045191.0	11.34	21.00
26/01/2020 13:26:32	26012020	260120	132632	101.920	12.359998	-56.959175	101.900	0.070	-0.390	1.040	101.920	-1.800	1.500																			1580045192.0	11.22	20.78
26/01/2020 13:26:33	26012020	260120	132633	101.990	12.359988	-56.959125	101.990	0.050	-0.320	0.960	102.010	-1.700	1.400																			1580045193.0	10.86	20.11
26/01/2020 13:26:34	26012020	260120	132634	102.120	12.359978	-56.959073	102.120	-0.040	-0.250	0.910	102.120	-1.700	1.400																			1580045194.0	10.87	20.13
26/01/2020 13:26:35	26012020	260120	132635	102.250	12.359968	-56.959023	102.200	-0.160	-0.110	0.770	102.250	-1.500	1.200																			1580045195.0	10.81	20.02
26/01/2020 13:26:36	26012020	260120	132636	102.270	12.359958	-56.958975	102.120	-0.200	-0.060	0.610	102.270	-1.400	1.100																			1580045196.0	10.69	19.80
26/01/2020 13:26:37	26012020	260120	132637	102.150	12.359948	-56.958923	102.000	-0.060	-0.300	0.530	102.150	-1.500	1.000																			1580045197.0	10.85	20.09
26/01/2020 13:26:38	26012020	260120	132638	102.050	12.359940	-56.958872	101.930	0.140	-0.680	0.440	102.050	-1.900	0.900																			1580045198.0	11.24	20.82
26/01/2020 13:26:39	26012020	260120	132639	102.020	12.359930	-56.958818	101.920	0.170	-0.750	0.430	102.020	-2.200	0.800																			1580045199.0	11.41	21.13
26/01/2020 13:26:40	26012020	260120	132640	101.990	12.359918	-56.958768	101.850	-0.010	-0.340	0.630	101.990	-1.900	1.000																			1580045200.0	11.03	20.43
26/01/2020 13:26:41	26012020	260120	132641	101.900	12.359907	-56.958718	101.750	-0.210	0.070	0.760	101.900	-1.400	1.100																			1580045201.0	10.56	19.56
26/01/2020 13:26:42	26012020	260120	132642	101.820	12.359897	-56.958670	101.690	-0.170	0.050	0.740	101.800	-1.300	1.200																			1580045202.0	10.73	19.87
26/01/2020 13:26:43	26012020	260120	132643	101.820	12.359885	-56.958617	101.820	-0.030	-0.080	0.590	101.820	-1.400	1.100																			1580045203.0	11.26	20.85
26/01/2020 13:26:44	26012020	260120	132644	102.010	12.359875	-56.958565	102.050	-0.020	0.010	0.400	102.010	-1.400	0.900																			1580045204.0	11.19	20.72
26/01/2020 13:26:45	26012020	260120	132645	102.210	12.359867	-56.958515	102.310	-0.140	0.100	0.220	102.270	-1.300	0.700																			1580045205.0	10.79	19.98
26/01/2020 13:26:46	26012020	260120	132646	102.500	12.359857	-56.958465	102.460	-0.130	-0.030	0.140	102.500	-1.300	0.600																			1580045206.0	10.75	19.91
26/01/2020 13:26:47	26012020	260120	132647	102.540	12.359847	-56.958415	102.410	0.030	-0.280	0.250	102.540	-1.600	0.600																			1580045207.0	10.98	20.33
26/01/2020 13:26:48	26012020	260120	132648	102.480	12.359835	-56.958363	102.370	0.130	-0.380	0.290	102.460	-1.700	0.700																			1580045208.0	11.02	20.41
26/01/2020 13:26:49	26012020	260120	132649	102.480	12.359825	-56.958313	102.440	0.090	-0.430	0.360	102.480	-1.800	0.700																			1580045209.0	10.81	20.02
26/01/2020 13:26:50	26012020	260120	132650	102.570	12.359815	-56.958263	102.470	0.050	-0.590	0.560	102.570	-1.900	0.900																			1580045210.0	10.81	20.02
26/01/2020 13:26:51	26012020	260120	132651	102.470	12.359802	-56.958213	102.230	0.110	-0.740	0.750	102.470	-2.100	1.100																			1580045211.0	11.07	20.50
26/01/2020 13:26:52	26012020	260120	132652	102.240	12.359790	-56.958162	101.950	0.170	-0.640	0.900	102.180	-2.100	1.300																			1580045212.0	11.15	20.65
26/01/2020 13:26:53	26012020	260120	132653	101.950	12.359780	-56.958110	101.820	0.120	-0.320	0.890	101.950	-1.800	1.300																			1580045213.0	10.97	20.32
26/01/2020 13:26:54	26012020	260120	132654	101.880	12.359770	-56.958060	101.770	-0.060	0.010	0.670	101.880	-1.500	1.200																			1580045214.0	10.80	20.00
26/01/2020 13:26:55	26012020	260120	132655	101.860	12.359760	-56.958010	101.730	-0.170	0.010	0.490	101.850	-1.300	0.900																			1580045215.0	10.85	20.09
26/01/2020 13:26:56	26012020	260120	132656	101.810	12.359750	-56.957958	101.730	-0.130	-0.250	0.520	101.810	-1.500	0.900																			1580045216.0	11.29	20.91
26/01/2020 13:26:57	26012020	260120	132657	101.850	12.359738	-56.957905	101.840	-0.140	-0.230	0.630	101.850	-1.700	1.000																			1580045217.0	11.50	21.30
26/01/2020 13:26:58	26012020	260120	132658	102.000	12.359725	-56.957855	102.010	-0.300	0.210	0.730	102.000	-1.400	1.100																			1580045218.0	10.99	20.35
26/01/2020 13:26:59	26012020	260120	132659	102.180	12.359713	-56.957807	102.210	-0.460	0.580	0.860	102.180	-0.900	1.200																			1580045219.0	10.43	19.32
26/01/2020 13:27:00	26012020	260120	132700	102.350	12.359703	-56.957758	102.410	-0.380	0.350	0.920	102.390	-0.800	1.300	1016.60	26.20	26.30	18.30	18.30	620.00	61.00	61.00	375.00	28.00	350.00	10.60	82.00	5.20	45283	3201.00	27.50	27.40	1580045220.0	10.39	19.24
26/01/2020 13:27:01	26012020	260120	132701	102.550	12.359692	-56.957707	102.480	0.090	-0.580	0.860	102.550	-1.600	1.300																			1580045221.0	11.06	20.48
26/01/2020 13:27:02	26012020	260120	132702	102.560	12.359682	-56.957653	102.480	0.650	-1.330	0.730	102.570	-2.500	1.200																			1580045222.0	11.83	21.91
26/01/2020 13:27:03	26012020	260120	132703	102.570	12.359672	-56.957598	102.450	0.750	-1.050	0.600	102.570	-2.600	1.100																			1580045223.0	11.52	21.34
26/01/2020 13:27:04	26012020	260120	132704	102.540	12.359663	-56.957550	102.330	0.320	-0.110	0.500	102.520	-1.900	0.900																			1580045224.0	10.40	19.26
26/01/2020 13:27:05	26012020	260120	132705	102.370	12.359655	-56.957505	102.160	-0.220	0.480	0.470	102.370	-1.000	0.900																			1580045225.0	9.85	18.24
26/01/2020 13:27:06	26012020	260120	132706	102.230	12.359645	-56.957457	102.030	-0.420	0.160	0.480	102.200	-1.000	0.900																			1580045226.0	10.43	19.32
26/01/2020 13:27:07	26012020	260120	132707	102.110	12.359633	-56.957403	101.910	-0.200	-0.640	0.430	102.080	-1.700	0.900																			1580045227.0	11.47	21.24
26/01/2020 13:27:08	26012020	260120	132708	101.980	12.359622	-56.957348	101.780	0.130	-0.970	0.390	101.950	-2.300	0.800																			1580045228.0	11.89	22.02
26/01/2020 13:27:09	26012020	260120	132709	101.860	12.359610	-56.957297	101.740	0.210	-0.430	0.460	101.860	-2.100	0.800																			1580045229.0	11.27	20.87
26/01/2020 13:27:10	26012020	260120	132710	101.860	12.359598	-56.957248	101.800	0.010	0.310	0.480	101.870	-1.300	0.900																			1580045230.0	10.35	19.17
26/01/2020 13:27:11	26012020	260120	132711	101.950	12.359588	-56.957202	101.880	-0.200	0.520	0.490	101.950	-0.900	0.900																			1580045231.0	10.25	18.98
26/01/2020 13:27:12	26012020	260120	132712	102.010	12.359578	-56.957152	101.990	-0.230	0.130	0.490	102.040	-1.100	0.900																			1580045232.0	10.84	20.08
26/01/2020 13:27:13	26012020	260120	132713	102.160	12.359568	-56.957098	102.120	-0.080	-0.470	0.480	102.160	-1.600	0.900																			1580045233.0	11.33	20.98
26/01/2020 13:27:14	26012020	260120	132714	102.250	12.359557	-56.957045	102.180	0.120	-0.820	0.540	102.270	-2.100	0.900																			1580045234.0	11.46	21.22
26/01/2020 13:27:15	26012020	260120	132715	102.290	12.359547	-56.956995	102.180	0.130	-0.550	0.600	102.290	-2.100	1.000																			1580045235.0	11.13	20.61
26/01/2020 13:27:16	26012020	260120	132716	102.290	12.359535	-56.956947	102.220	-0.100	0.030	0.650	102.300	-1.600	1.000																			1580045236.0	10.46	19.37
26/01/2020 13:27:17	26012020	260120	132717	102.350	12.359525	-56.956898	102.260	-0.290	0.190	0.730	102.350	-1.200	1.100																			1580045237.0	10.25	18.98
26/01/2020 13:27:18	26012020	260120	132718	102.360	12.359513	-56.956848	102.230	-0.180	-0.200	0.720	102.350	-1.400	1.200																			1580045238.0	10.79	19.98
26/01/2020 13:27:19	26012020	260120	132719	102.280	12.359502	-56.956797	102.110	0.130	-0.630	0.580	102.280	-1.900	1.000																			1580045239.0	11.38	21.08
26/01/2020 13:27:20	26012020	260120	132720	102.150	12.359492	-56.956743	101.940	0.390	-0.640	0.450	102.150	-2.100	0.900																			1580045240.0	11.35	21.02
26/01/2020 13:27:21	26012020	260120	132721	102.000	12.359483	-56.956693	101.740	0.420	-0.340	0.320	101.960	-1.800	0.800																			1580045241.0	10.91	20.21
26/01/2020 13:27:22	26012020	260120	132722	101.820	12.359473	-56.956643	101.690	0.290	-0.120	0.230	101.820	-1.500	0.700																			1580045242.0	10.67	19.76
26/01/2020 13:27:23	26012020	260120	132723	101.830	12.359465	-56.956593	101.750	0.150	-0.120	0.270	101.830	-1.500	0.700																			1580045243.0	10.87	20.13
26/01/2020 13:27:24	26012020	260120	132724	101.870	12.359453	-56.956542	101.790	0.010	-0.050	0.430	101.870	-1.500	0.800																			1580045244.0	11.07	20.50
26/01/2020 13:27:25	26012020	260120	132725	101.870	12.359442	-56.956492	101.750	-0.180	0.110	0.650	101.870	-1.300	1.000																			1580045245.0	10.87	20.13
26/01/2020 13:27:26	26012020	260120	132726	101.830	12.359430	-56.956442	101.750	-0.280	0.010	0.780	101.830	-1.300	1.100																			1580045246.0	10.73	19.87
26/01/2020 13:27:27	26012020	260120	132727	101.840	12.359418	-56.956392	101.770	-0.180	-0.340	0.890	101.840	-1.600	1.300																			1580045247.0	11.05	20.46
26/01/2020 13:27:28	26012020	260120	132728	101.860	12.359407	-56.956340	101.780	-0.060	-0.460	0.870	101.860	-1.800	1.300																			1580045248.0	11.23	20.80
26/01/2020 13:27:29	26012020	260120	132729	101.880	12.359397	-56.956290	101.800	-0.050	-0.330	0.730	101.880	-1.800	1.200																			1580045249.0	10.89	20.17
26/01/2020 13:27:30	26012020	260120	132730	101.900	12.359387	-56.956240	101.780	-0.040	-0.340	0.710	101.900	-1.700	1.100																			1580045250.0	10.67	19.76
26/01/2020 13:27:31	26012020	260120	132731	101.860	12.359377	-56.956188	101.750	0.060	-0.500	0.810	101.860	-1.800	1.200																			1580045251.0	10.97	20.32
26/01/2020 13:27:32	26012020	260120	132732	101.840	12.359365	-56.956138	101.740	0.130	-0.520	0.840	101.840	-1.900	1.200																			1580045252.0	11.14	20.63
26/01/2020 13:27:33	26012020	260120	132733	101.830	12.359353	-56.956087	101.690	0.140	-0.390	0.920	101.830	-1.800	1.300																			1580045253.0	11.00	20.37
26/01/2020 13:27:34	26012020	260120	132734	101.720	12.359343	-56.956037	101.540	0.140	-0.230	1.100	101.720	-1.700	1.400																			1580045254.0	10.91	20.21
26/01/2020 13:27:35	26012020	260120	132735	101.550	12.359333	-56.955985	101.420	0.120	-0.090	1.140	101.550	-1.500	1.600																			1580045255.0	10.96	20.30
26/01/2020 13:27:36	26012020	260120	132736	101.530	12.359323	-56.955935	101.520	0.070	0.050	0.970	101.530	-1.400	1.500																			1580045256.0	11.00	20.37
26/01/2020 13:27:37	26012020	260120	132737	101.710	12.359313	-56.955883	101.710	0.010	0.130	0.810	101.710	-1.300	1.300																			1580045257.0	10.89	20.17
26/01/2020 13:27:38	26012020	260120	132738	101.850	12.359305	-56.955833	101.800	-0.040	0.010	0.670	101.850	-1.300	1.100																			1580045258.0	10.90	20.19
26/01/2020 13:27:39	26012020	260120	132739	101.890	12.359295	-56.955782	101.790	-0.060	-0.250	0.690	101.890	-1.500	1.100																			1580045259.0	11.07	20.50
26/01/2020 13:27:40	26012020	260120	132740	101.850	12.359285	-56.955730	101.790	-0.090	-0.420	0.870	101.850	-1.800	1.200																			1580045260.0	11.18	20.71
26/01/2020 13:27:41	26012020	260120	132741	101.900	12.359273	-56.955680	101.870	-0.160	-0.330	1.060	101.900	-1.800	1.400																			1580045261.0	10.97	20.32
26/01/2020 13:27:42	26012020	260120	132742	101.950	12.359262	-56.955630	101.860	-0.170	-0.280	1.220	101.950	-1.600	1.600																			1580045262.0	10.68	19.78
26/01/2020 13:27:43	26012020	260120	132743	101.870	12.359248	-56.955580	101.720	-0.000	-0.500	1.280	101.870	-1.800	1.700																			1580045263.0	10.88	20.15
26/01/2020 13:27:44	26012020	260120	132744	101.770	12.359238	-56.955528	101.680	0.240	-0.620	1.150	101.750	-2.000	1.600																			1580045264.0	11.26	20.85
26/01/2020 13:27:45	26012020	260120	132745	101.810	12.359228	-56.955477	101.810	0.320	-0.400	0.830	101.810	-1.900	1.400																			1580045265.0	11.13	20.61
26/01/2020 13:27:46	26012020	260120	132746	102.000	12.359220	-56.955427	102.020	0.190	-0.060	0.540	102.000	-1.600	1.000																			1580045266.0	10.77	19.95
26/01/2020 13:27:47	26012020	260120	132747	102.200	12.359212	-56.955377	102.140	-0.000	0.090	0.390	102.200	-1.300	0.800																			1580045267.0	10.68	19.78
26/01/2020 13:27:48	26012020	260120	132748	102.240	12.359202	-56.955327	102.110	-0.080	-0.080	0.450	102.240	-1.400	0.800																			1580045268.0	10.90	20.19
26/01/2020 13:27:49	26012020	260120	132749	102.160	12.359192	-56.955273	102.010	-0.030	-0.380	0.720	102.160	-1.600	1.000																			1580045269.0	11.24	20.82
26/01/2020 13:27:50	26012020	260120	132750	102.060	12.359180	-56.955222	101.960	0.040	-0.480	0.740	102.060	-1.900	1.200																			1580045270.0	11.35	21.02
26/01/2020 13:27:51	26012020	260120	132751	102.060	12.359170	-56.955170	101.970	-0.070	-0.260	0.570	102.060	-1.700	1.000																			1580045271.0	11.08	20.52
26/01/2020 13:27:52	26012020	260120	132752	102.050	12.359162	-56.955120	101.950	-0.310	0.000	0.570	102.050	-1.500	0.900																			1580045272.0	10.72	19.85
26/01/2020 13:27:53	26012020	260120	132753	102.030	12.359150	-56.955072	101.930	-0.450	-0.030	0.720	102.030	-1.400	1.100																			1580045273.0	10.72	19.85
26/01/2020 13:27:54	26012020	260120	132754	102.000	12.359138	-56.955020	101.850	-0.390	-0.240	0.870	101.990	-1.500	1.200																			1580045274.0	11.08	20.52
26/01/2020 13:27:55	26012020	260120	132755	101.900	12.359125	-56.954968	101.810	-0.200	-0.310	0.890	101.900	-1.700	1.300																			1580045275.0	11.17	20.69
26/01/2020 13:27:56	26012020	260120	132756	101.880	12.359115	-56.954918	101.790	0.110	-0.360	0.940	101.880	-1.700	1.300																			1580045276.0	10.97	20.32
26/01/2020 13:27:57	26012020	260120	132757	101.830	12.359103	-56.954867	101.670	0.490	-0.550	0.940	101.830	-1.800	1.400																			1580045277.0	11.05	20.46
26/01/2020 13:27:58	26012020	260120	132758	101.710	12.359093	-56.954815	101.550	0.680	-0.600	0.800	101.680	-2.000	1.300																			1580045278.0	11.32	20.96
26/01/2020 13:27:59	26012020	260120	132759	101.640	12.359085	-56.954762	101.660	0.460	-0.160	0.640	101.650	-1.800	1.100																			1580045279.0	11.14	20.63
26/01/2020 13:28:00	26012020	260120	132800	101.800	12.359077	-56.954713	101.860	-0.040	0.480	0.560	101.840	-1.100	1.000	1016.60	26.20	26.20	18.50	18.60	629.00	62.00	62.00	375.00	28.00	349.00	10.90	80.00	5.40	45803	3137.00	27.50	27.40	1580045280.0	10.46	19.37
26/01/2020 13:28:01	26012020	260120	132801	102.010	12.359068	-56.954665	101.970	-0.400	0.480	0.590	102.010	-0.800	1.000																			1580045281.0	10.24	18.96
26/01/2020 13:28:02	26012020	260120	132802	102.070	12.359058	-56.954615	102.020	-0.370	-0.300	0.730	102.090	-1.300	1.100																			1580045282.0	11.02	20.41
26/01/2020 13:28:03	26012020	260120	132803	102.100	12.359045	-56.954560	102.040	-0.190	-0.900	0.990	102.100	-2.100	1.300																			1580045283.0	11.77	21.80
26/01/2020 13:28:04	26012020	260120	132804	102.110	12.359032	-56.954508	102.040	-0.150	-0.700	1.140	102.110	-2.200	1.500																			1580045284.0	11.39	21.09
26/01/2020 13:28:05	26012020	260120	132805	102.100	12.359020	-56.954460	101.990	-0.220	-0.140	1.090	102.100	-1.700	1.500																			1580045285.0	10.49	19.43
26/01/2020 13:28:06	26012020	260120	132806	102.010	12.359010	-56.954413	101.870	-0.150	-0.030	0.810	102.010	-1.400	1.300																			1580045286.0	10.32	19.11
26/01/2020 13:28:07	26012020	260120	132807	101.900	12.359002	-56.954362	101.780	0.070	-0.410	0.480	101.900	-1.600	1.000																			1580045287.0	11.01	20.39
26/01/2020 13:28:08	26012020	260120	132808	101.840	12.358993	-56.954308	101.730	0.230	-0.670	0.310	101.840	-2.000	0.800																			1580045288.0	11.51	21.32
26/01/2020 13:28:09	26012020	260120	132809	101.810	12.358983	-56.954255	101.690	0.210	-0.540	0.350	101.810	-2.000	0.700																			1580045289.0	11.30	20.93
26/01/2020 13:28:10	26012020	260120	132810	101.750	12.358973	-56.954205	101.610	0.090	-0.220	0.640	101.750	-1.700	0.900																			1580045290.0	10.94	20.26
26/01/2020 13:28:11	26012020	260120	132811	101.690	12.358962	-56.954155	101.580	-0.070	0.100	0.990	101.680	-1.400	1.300																			1580045291.0	10.84	20.08
26/01/2020 13:28:12	26012020	260120	132812	101.680	12.358950	-56.954105	101.690	-0.230	0.320	1.070	101.700	-1.100	1.500																			1580045292.0	10.81	20.02
26/01/2020 13:28:13	26012020	260120	132813	101.870	12.358938	-56.954055	101.870	-0.270	0.310	0.940	101.870	-1.000	1.400																			1580045293.0	10.79	19.98
26/01/2020 13:28:14	26012020	260120	132814	102.030	12.358928	-56.954005	101.970	-0.140	-0.020	0.730	102.030	-1.200	1.200																			1580045294.0	10.97	20.32
26/01/2020 13:28:15	26012020	260120	132815	102.110	12.358918	-56.953952	102.060	0.030	-0.370	0.580	102.110	-1.600	1.000																			1580045295.0	11.23	20.80
26/01/2020 13:28:16	26012020	260120	132816	102.220	12.358910	-56.953900	102.180	0.100	-0.440	0.480	102.220	-1.800	0.900																			1580045296.0	11.09	20.54
26/01/2020 13:28:17	26012020	260120	132817	102.310	12.358900	-56.953850	102.230	0.090	-0.380	0.370	102.310	-1.800	0.800																			1580045297.0	10.74	19.89
26/01/2020 13:28:18	26012020	260120	132818	102.340	12.358890	-56.953802	102.210	0.100	-0.400	0.400	102.340	-1.800	0.800																			1580045298.0	10.70	19.82
26/01/2020 13:28:19	26012020	260120	132819	102.250	12.358880	-56.953750	102.060	0.200	-0.530	0.670	102.250	-1.800	1.000																			1580045299.0	10.86	20.11
26/01/2020 13:28:20	26012020	260120	132820	102.100	12.358868	-56.953700	101.880	0.370	-0.720	0.860	102.060	-2.000	1.200																			1580045300.0	11.09	20.54
26/01/2020 13:28:21	26012020	260120	132821	101.880	12.358858	-56.953647	101.710	0.400	-0.740	0.890	101.880	-2.100	1.300																			1580045301.0	11.30	20.93
26/01/2020 13:28:22	26012020	260120	132822	101.750	12.358850	-56.953595	101.660	0.110	-0.380	0.780	101.750	-1.900	1.200																			1580045302.0	11.18	20.71
26/01/2020 13:28:23	26012020	260120	132823	101.760	12.358840	-56.953545	101.720	-0.400	0.140	0.740	101.760	-1.400	1.100																			1580045303.0	10.75	19.91
26/01/2020 13:28:24	26012020	260120	132824	101.810	12.358828	-56.953497	101.780	-0.760	0.360	0.860	101.830	-1.000	1.200																			1580045304.0	10.64	19.71
26/01/2020 13:28:25	26012020	260120	132825	101.880	12.358815	-56.953447	101.820	-0.680	0.120	0.960	101.880	-1.100	1.300																			1580045305.0	10.98	20.33
26/01/2020 13:28:26	26012020	260120	132826	101.890	12.358802	-56.953393	101.790	-0.240	-0.240	0.920	101.880	-1.500	1.400																			1580045306.0	11.39	21.09
26/01/2020 13:28:27	26012020	260120	132827	101.870	12.358792	-56.953342	101.820	0.210	-0.310	0.760	101.870	-1.700	1.200																			1580045307.0	11.40	21.11
26/01/2020 13:28:28	26012020	260120	132828	101.950	12.358782	-56.953290	101.920	0.370	-0.050	0.590	101.950	-1.500	1.100																			1580045308.0	10.97	20.32
26/01/2020 13:28:29	26012020	260120	132829	102.070	12.358773	-56.953240	102.020	0.290	0.060	0.470	102.070	-1.300	0.900																			1580045309.0	10.57	19.58
26/01/2020 13:28:30	26012020	260120	132830	102.110	12.358765	-56.953190	101.980	0.230	-0.260	0.450	102.110	-1.500	0.900																			1580045310.0	10.77	19.95
26/01/2020 13:28:31	26012020	260120	132831	102.000	12.358757	-56.953138	101.850	0.280	-0.630	0.610	102.000	-1.900	0.900																			1580045311.0	11.22	20.78
26/01/2020 13:28:32	26012020	260120	132832	101.880	12.358745	-56.953087	101.810	0.270	-0.610	0.800	101.880	-2.000	1.100																			1580045312.0	11.25	20.84
26/01/2020 13:28:33	26012020	260120	132833	101.900	12.358735	-56.953037	101.880	0.060	-0.330	0.900	101.900	-1.800	1.300																			1580045313.0	10.82	20.04
26/01/2020 13:28:34	26012020	260120	132834	101.950	12.358725	-56.952987	101.900	-0.180	-0.160	1.050	101.950	-1.600	1.400																			1580045314.0	10.61	19.65
26/01/2020 13:28:35	26012020	260120	132835	101.940	12.358713	-56.952937	101.880	-0.270	-0.220	1.150	101.940	-1.500	1.500																			1580045315.0	10.81	20.02
26/01/2020 13:28:36	26012020	260120	132836	101.910	12.358702	-56.952887	101.810	-0.110	-0.450	1.120	101.900	-1.700	1.500																			1580045316.0	11.12	20.59
26/01/2020 13:28:37	26012020	260120	132837	101.820	12.358692	-56.952833	101.720	0.080	-0.590	0.990	101.820	-1.900	1.500																			1580045317.0	11.35	21.02
26/01/2020 13:28:38	26012020	260120	132838	101.750	12.358682	-56.952782	101.650	0.100	-0.470	0.810	101.750	-1.900	1.300																			1580045318.0	11.28	20.89
26/01/2020 13:28:39	26012020	260120	132839	101.680	12.358672	-56.952730	101.600	-0.030	-0.150	0.640	101.680	-1.700	1.100																			1580045319.0	11.01	20.39
26/01/2020 13:28:40	26012020	260120	132840	101.660	12.358663	-56.952680	101.610	-0.150	0.090	0.520	101.660	-1.400	1.000																			1580045320.0	10.84	20.08
26/01/2020 13:28:41	26012020	260120	132841	101.710	12.358653	-56.952628	101.710	-0.220	0.150	0.400	101.710	-1.200	0.800																			1580045321.0	10.94	20.26
26/01/2020 13:28:42	26012020	260120	132842	101.830	12.358643	-56.952577	101.890	-0.270	0.150	0.380	101.870	-1.200	0.800																			1580045322.0	11.06	20.48
26/01/2020 13:28:43	26012020	260120	132843	102.060	12.358633	-56.952527	102.080	-0.270	0.160	0.360	102.060	-1.200	0.800																			1580045323.0	10.93	20.24
26/01/2020 13:28:44	26012020	260120	132844	102.220	12.358622	-56.952477	102.240	-0.110	-0.040	0.310	102.260	-1.300	0.700																			1580045324.0	10.82	20.04
26/01/2020 13:28:45	26012020	260120	132845	102.390	12.358612	-56.952425	102.330	0.210	-0.560	0.310	102.390	-1.700	0.700																			1580045325.0	11.07	20.50
26/01/2020 13:28:46	26012020	260120	132846	102.440	12.358602	-56.952372	102.330	0.490	-0.860	0.340	102.440	-2.200	0.700																			1580045326.0	11.38	21.08
26/01/2020 13:28:47	26012020	260120	132847	102.420	12.358592	-56.952320	102.300	0.490	-0.620	0.350	102.420	-2.100	0.700																			1580045327.0	11.10	20.56
26/01/2020 13:28:48	26012020	260120	132848	102.400	12.358583	-56.952272	102.250	0.260	-0.240	0.500	102.390	-1.700	0.800																			1580045328.0	10.56	19.56
26/01/2020 13:28:49	26012020	260120	132849	102.320	12.358573	-56.952222	102.200	0.000	-0.170	0.780	102.320	-1.500	1.100																			1580045329.0	10.60	19.63
26/01/2020 13:28:50	26012020	260120	132850	102.280	12.358562	-56.952172	102.150	-0.160	-0.410	0.990	102.270	-1.700	1.300																			1580045330.0	11.06	20.48
26/01/2020 13:28:51	26012020	260120	132851	102.170	12.358550	-56.952118	102.010	-0.200	-0.560	1.100	102.170	-1.900	1.500																			1580045331.0	11.40	21.11
26/01/2020 13:28:52	26012020	260120	132852	101.990	12.358538	-56.952067	101.790	-0.160	-0.410	1.140	101.990	-1.900	1.500																			1580045332.0	11.29	20.91
26/01/2020 13:28:53	26012020	260120	132853	101.800	12.358527	-56.952017	101.710	-0.090	-0.180	0.920	101.800	-1.600	1.400																			1580045333.0	11.05	20.46
26/01/2020 13:28:54	26012020	260120	132854	101.810	12.358517	-56.951965	101.850	-0.080	0.070	0.560	101.840	-1.400	1.100																			1580045334.0	11.06	20.48
26/01/2020 13:28:55	26012020	260120	132855	102.060	12.358508	-56.951913	102.100	-0.250	0.350	0.270	102.060	-1.100	0.800																			1580045335.0	10.95	20.28
26/01/2020 13:28:56	26012020	260120	132856	102.260	12.358498	-56.951863	102.310	-0.430	0.460	0.170	102.310	-0.900	0.600																			1580045336.0	10.72	19.85
26/01/2020 13:28:57	26012020	260120	132857	102.500	12.358487	-56.951815	102.490	-0.350	0.160	0.330	102.500	-1.100	0.700																			1580045337.0	10.79	19.98
26/01/2020 13:28:58	26012020	260120	132858	102.620	12.358475	-56.951763	102.600	0.010	-0.340	0.460	102.650	-1.500	0.800																			1580045338.0	11.12	20.59
26/01/2020 13:28:59	26012020	260120	132859	102.710	12.358463	-56.951712	102.590	0.400	-0.730	0.450	102.710	-2.000	0.900																			1580045339.0	11.25	20.84
26/01/2020 13:29:00	26012020	260120	132900	102.630	12.358453	-56.951660	102.450	0.660	-0.840	0.430	102.630	-2.200	0.900	1016.60	26.10	26.20	18.40	18.50	637.00	62.00	62.00	375.00	28.00	351.00	10.80	84.00	5.30	46185	3132.00	27.40	27.40	1580045340.0	11.10	20.56
26/01/2020 13:29:01	26012020	260120	132901	102.510	12.358445	-56.951608	102.340	0.710	-0.740	0.280	102.490	-2.200	0.800																			1580045341.0	10.92	20.22
26/01/2020 13:29:02	26012020	260120	132902	102.430	12.358438	-56.951558	102.290	0.570	-0.620	0.150	102.430	-2.000	0.600																			1580045342.0	10.90	20.19
26/01/2020 13:29:03	26012020	260120	132903	102.390	12.358430	-56.951507	102.220	0.210	-0.380	0.350	102.380	-1.900	0.600																			1580045343.0	11.02	20.41
26/01/2020 13:29:04	26012020	260120	132904	102.260	12.358418	-56.951457	102.080	-0.330	-0.010	0.830	102.260	-1.500	1.000																			1580045344.0	10.89	20.17
26/01/2020 13:29:05	26012020	260120	132905	102.110	12.358405	-56.951407	101.970	-0.750	0.060	1.220	102.110	-1.300	1.500																			1580045345.0	10.80	20.00
26/01/2020 13:29:06	26012020	260120	132906	102.010	12.358392	-56.951355	101.890	-0.770	-0.270	1.370	102.010	-1.500	1.700																			1580045346.0	11.24	20.82
26/01/2020 13:29:07	26012020	260120	132907	101.890	12.358377	-56.951302	101.770	-0.520	-0.480	1.250	101.890	-1.800	1.700																			1580045347.0	11.68	21.63
26/01/2020 13:29:08	26012020	260120	132908	101.820	12.358363	-56.951250	101.750	-0.290	-0.110	0.930	101.820	-1.700	1.500																			1580045348.0	11.39	21.09
26/01/2020 13:29:09	26012020	260120	132909	101.900	12.358353	-56.951202	101.920	-0.170	0.480	0.560	101.900	-1.100	1.100																			1580045349.0	10.66	19.74
26/01/2020 13:29:10	26012020	260120	132910	102.150	12.358343	-56.951153	102.170	0.040	0.600	0.080	102.150	-0.700	0.700																			1580045350.0	10.40	19.26
26/01/2020 13:29:11	26012020	260120	132911	102.400	12.358337	-56.951102	102.390	0.380	0.140	-0.310	102.400	-1.000	0.200																			1580045351.0	10.86	20.11
26/01/2020 13:29:12	26012020	260120	132912	102.560	12.358328	-56.951048	102.530	0.700	-0.410	-0.320	102.590	-1.600	0.000																			1580045352.0	11.34	21.00
26/01/2020 13:29:13	26012020	260120	132913	102.690	12.358320	-56.950997	102.600	0.820	-0.660	0.030	102.690	-2.000	0.300																			1580045353.0	11.17	20.69
26/01/2020 13:29:14	26012020	260120	132914	102.730	12.358310	-56.950947	102.570	0.740	-0.800	0.430	102.730	-2.100	0.700																			1580045354.0	10.82	20.04
26/01/2020 13:29:15	26012020	260120	132915	102.610	12.358300	-56.950897	102.410	0.490	-0.840	0.860	102.610	-2.200	1.100																			1580045355.0	10.89	20.17
26/01/2020 13:29:16	26012020	260120	132916	102.430	12.358288	-56.950847	102.260	0.070	-0.650	1.180	102.430	-2.100	1.500																			1580045356.0	10.88	20.15
26/01/2020 13:29:17	26012020	260120	132917	102.280	12.358277	-56.950797	102.130	-0.360	-0.440	1.360	102.280	-1.900	1.700																			1580045357.0	10.77	19.95
26/01/2020 13:29:18	26012020	260120	132918	102.140	12.358265	-56.950747	101.950	-0.650	-0.390	1.490	102.140	-1.800	1.900																			1580045358.0	10.94	20.26
26/01/2020 13:29:19	26012020	260120	132919	101.930	12.358250	-56.950695	101.750	-0.720	-0.420	1.390	101.930	-1.800	1.900																			1580045359.0	11.24	20.82
26/01/2020 13:29:20	26012020	260120	132920	101.730	12.358238	-56.950642	101.580	-0.610	-0.340	1.140	101.730	-1.800	1.600																			1580045360.0	11.40	21.11
26/01/2020 13:29:21	26012020	260120	132921	101.610	12.358227	-56.950590	101.530	-0.420	-0.070	0.870	101.610	-1.600	1.400																			1580045361.0	11.30	20.93
26/01/2020 13:29:22	26012020	260120	132922	101.660	12.358215	-56.950538	101.700	-0.250	0.300	0.510	101.660	-1.200	1.100																			1580045362.0	11.09	20.54
26/01/2020 13:29:23	26012020	260120	132923	101.930	12.358207	-56.950488	102.050	-0.090	0.530	0.100	101.930	-0.900	0.700																			1580045363.0	10.89	20.17
26/01/2020 13:29:24	26012020	260120	132924	102.260	12.358197	-56.950438	102.460	0.130	0.500	-0.140	102.350	-0.800	0.300																			1580045364.0	10.87	20.13
26/01/2020 13:29:25	26012020	260120	132925	102.720	12.358188	-56.950387	102.750	0.440	0.200	-0.100	102.720	-1.000	0.300																			1580045365.0	10.95	20.28
26/01/2020 13:29:26	26012020	260120	132926	102.930	12.358178	-56.950335	102.850	0.700	-0.230	0.100	102.930	-1.400	0.400																			1580045366.0	11.06	20.48
26/01/2020 13:29:27	26012020	260120	132927	102.960	12.358168	-56.950285	102.890	0.730	-0.470	0.330	102.960	-1.800	0.700																			1580045367.0	11.05	20.46
26/01/2020 13:29:28	26012020	260120	132928	103.020	12.358158	-56.950235	102.990	0.500	-0.480	0.490	103.040	-1.900	0.800																			1580045368.0	10.72	19.85
26/01/2020 13:29:29	26012020	260120	132929	103.110	12.358150	-56.950187	102.950	0.240	-0.630	0.660	103.110	-1.900	1.000																			1580045369.0	10.48	19.41
26/01/2020 13:29:30	26012020	260120	132930	102.890	12.358138	-56.950135	102.560	0.170	-1.110	0.950	102.890	-2.300	1.200																			1580045370.0	10.87	20.13
26/01/2020 13:29:31	26012020	260120	132931	102.420	12.358127	-56.950083	102.140	0.170	-1.400	1.230	102.420	-2.700	1.500																			1580045371.0	11.50	21.30
26/01/2020 13:29:32	26012020	260120	132932	102.090	12.358113	-56.950030	101.960	-0.070	-0.930	1.340	102.090	-2.600	1.700																			1580045372.0	11.45	21.21
26/01/2020 13:29:33	26012020	260120	132933	101.990	12.358100	-56.949982	101.910	-0.600	0.100	1.200	101.990	-1.700	1.700																			1580045373.0	10.73	19.87
26/01/2020 13:29:34	26012020	260120	132934	101.960	12.358088	-56.949935	101.870	-1.050	0.810	0.890	101.960	-0.700	1.400																			1580045374.0	10.23	18.95
26/01/2020 13:29:35	26012020	260120	132935	101.950	12.358077	-56.949885	101.900	-0.980	0.540	0.550	101.950	-0.600	1.100																			1580045375.0	10.69	19.80
26/01/2020 13:29:36	26012020	260120	132936	102.040	12.358065	-56.949832	102.030	-0.370	-0.220	0.250	102.040	-1.300	0.800																			1580045376.0	11.71	21.69
26/01/2020 13:29:37	26012020	260120	132937	102.190	12.358053	-56.949775	102.170	0.280	-0.480	0.080	102.190	-1.900	0.500																			1580045377.0	12.00	22.22
26/01/2020 13:29:38	26012020	260120	132938	102.340	12.358043	-56.949723	102.300	0.510	-0.070	0.150	102.340	-1.700	0.500																			1580045378.0	11.21	20.76
26/01/2020 13:29:39	26012020	260120	132939	102.430	12.358035	-56.949675	102.390	0.340	0.400	0.470	102.450	-1.100	0.800																			1580045379.0	10.35	19.17
26/01/2020 13:29:40	26012020	260120	132940	102.530	12.358023	-56.949628	102.460	0.190	0.320	0.650	102.530	-0.900	1.000																			1580045380.0	10.25	18.98
26/01/2020 13:29:41	26012020	260120	132941	102.550	12.358013	-56.949578	102.440	0.310	-0.350	0.590	102.550	-1.400	1.000																			1580045381.0	10.90	20.19
26/01/2020 13:29:42	26012020	260120	132942	102.490	12.358005	-56.949523	102.340	0.500	-0.900	0.630	102.490	-2.100	1.000																			1580045382.0	11.48	21.26
26/01/2020 13:29:43	26012020	260120	132943	102.400	12.357995	-56.949472	102.290	0.390	-0.730	0.700	102.400	-2.300	1.100																			1580045383.0	11.23	20.80
26/01/2020 13:29:44	26012020	260120	132944	102.400	12.357985	-56.949423	102.290	-0.020	-0.200	0.740	102.400	-1.800	1.100																			1580045384.0	10.41	19.28
26/01/2020 13:29:45	26012020	260120	132945	102.350	12.357973	-56.949377	102.160	-0.300	-0.100	0.820	102.350	-1.400	1.200																			1580045385.0	10.20	18.89
26/01/2020 13:29:46	26012020	260120	132946	102.130	12.357960	-56.949327	101.890	-0.240	-0.510	0.900	102.130	-1.700	1.300																			1580045386.0	10.90	20.19
26/01/2020 13:29:47	26012020	260120	132947	101.850	12.357948	-56.949273	101.650	-0.050	-0.810	0.850	101.850	-2.100	1.300																			1580045387.0	11.51	21.32
26/01/2020 13:29:48	26012020	260120	132948	101.680	12.357937	-56.949222	101.510	0.020	-0.590	0.780	101.650	-2.100	1.200																			1580045388.0	11.33	20.98
26/01/2020 13:29:49	26012020	260120	132949	101.570	12.357927	-56.949172	101.480	-0.080	-0.100	0.770	101.570	-1.700	1.200																			1580045389.0	10.83	20.06
26/01/2020 13:29:50	26012020	260120	132950	101.540	12.357917	-56.949122	101.460	-0.180	0.210	0.810	101.540	-1.200	1.200																			1580045390.0	10.62	19.67
26/01/2020 13:29:51	26012020	260120	132951	101.530	12.357905	-56.949072	101.470	-0.140	0.160	0.870	101.530	-1.200	1.300																			1580045391.0	10.89	20.17
26/01/2020 13:29:52	26012020	260120	132952	101.540	12.357893	-56.949020	101.500	0.010	-0.040	0.920	101.540	-1.300	1.300																			1580045392.0	11.20	20.74
26/01/2020 13:29:53	26012020	260120	132953	101.590	12.357882	-56.948968	101.620	0.140	-0.120	0.840	101.590	-1.500	1.300																			1580045393.0	11.22	20.78
26/01/2020 13:29:54	26012020	260120	132954	101.780	12.357873	-56.948918	101.870	0.150	-0.030	0.690	101.780	-1.500	1.200																			1580045394.0	10.97	20.32
26/01/2020 13:29:55	26012020	260120	132955	102.050	12.357863	-56.948868	102.100	0.070	0.070	0.620	102.050	-1.300	1.000																			1580045395.0	10.66	19.74
26/01/2020 13:29:56	26012020	260120	132956	102.230	12.357853	-56.948818	102.210	0.010	-0.080	0.650	102.230	-1.400	1.000																			1580045396.0	10.62	19.67
26/01/2020 13:29:57	26012020	260120	132957	102.260	12.357843	-56.948768	102.150	0.030	-0.450	0.800	102.260	-1.700	1.100																			1580045397.0	10.86	20.11
26/01/2020 13:29:58	26012020	260120	132958	102.170	12.357833	-56.948717	102.010	0.140	-0.830	0.940	102.140	-2.100	1.300																			1580045398.0	11.08	20.52
26/01/2020 13:29:59	26012020	260120	132959	102.010	12.357822	-56.948665	101.910	0.260	-0.950	0.970	102.010	-2.300	1.400																			1580045399.0	11.16	20.67
26/01/2020 13:30:00	26012020	260120	133000	101.920	12.357812	-56.948615	101.770	0.270	-0.790	1.060	101.920	-2.200	1.400	1016.60	26.20	26.20	18.20	18.30	622.00	61.00	61.00	375.00	28.00	351.00	10.90	84.00	5.40	45611	3161.00	27.40	27.40	1580045400.0	11.01	20.39
26/01/2020 13:30:01	26012020	260120	133001	101.710	12.357802	-56.948563	101.510	0.120	-0.500	1.190	101.710	-2.000	1.600																			1580045401.0	10.93	20.24
26/01/2020 13:30:02	26012020	260120	133002	101.440	12.357790	-56.948513	101.280	-0.130	-0.080	1.290	101.440	-1.600	1.700																			1580045402.0	10.93	20.24
26/01/2020 13:30:03	26012020	260120	133003	101.270	12.357780	-56.948463	101.190	-0.360	0.330	1.360	101.270	-1.200	1.800																			1580045403.0	10.80	20.00
26/01/2020 13:30:04	26012020	260120	133004	101.270	12.357768	-56.948413	101.280	-0.410	0.390	1.170	101.270	-1.000	1.700																			1580045404.0	10.82	20.04
26/01/2020 13:30:05	26012020	260120	133005	101.400	12.357758	-56.948362	101.420	-0.300	0.150	0.870	101.400	-1.100	1.400																			1580045405.0	11.16	20.67
26/01/2020 13:30:06	26012020	260120	133006	101.540	12.357748	-56.948310	101.610	-0.150	-0.100	0.630	101.580	-1.400	1.100																			1580045406.0	11.28	20.89
26/01/2020 13:30:07	26012020	260120	133007	101.780	12.357738	-56.948258	101.780	0.020	-0.220	0.520	101.780	-1.600	1.000																			1580045407.0	11.14	20.63
26/01/2020 13:30:08	26012020	260120	133008	101.900	12.357728	-56.948207	101.860	0.190	-0.160	0.450	101.920	-1.600	0.900																			1580045408.0	10.88	20.15
26/01/2020 13:30:09	26012020	260120	133009	101.970	12.357720	-56.948158	101.890	0.260	-0.140	0.390	101.970	-1.500	0.800																			1580045409.0	10.65	19.72
26/01/2020 13:30:10	26012020	260120	133010	101.990	12.357712	-56.948108	101.890	0.280	-0.370	0.480	101.990	-1.600	0.900																			1580045410.0	10.71	19.83
26/01/2020 13:30:11	26012020	260120	133011	101.970	12.357702	-56.948057	101.890	0.300	-0.720	0.630	101.970	-2.000	1.000																			1580045411.0	11.00	20.37
26/01/2020 13:30:12	26012020	260120	133012	101.980	12.357692	-56.948005	101.880	0.260	-0.890	0.890	101.980	-2.200	1.200																			1580045412.0	11.17	20.69
26/01/2020 13:30:13	26012020	260120	133013	101.870	12.357680	-56.947953	101.650	0.120	-0.760	1.290	101.870	-2.200	1.600																			1580045413.0	11.08	20.52
26/01/2020 13:30:14	26012020	260120	133014	101.550	12.357668	-56.947903	101.340	-0.100	-0.380	1.480	101.550	-1.900	1.900																			1580045414.0	10.90	20.19
26/01/2020 13:30:15	26012020	260120	133015	101.300	12.357657	-56.947853	101.180	-0.320	-0.080	1.320	101.300	-1.500	1.800																			1580045415.0	10.79	19.98
26/01/2020 13:30:16	26012020	260120	133016	101.230	12.357648	-56.947803	101.170	-0.430	-0.010	0.960	101.230	-1.400	1.500																			1580045416.0	11.01	20.39
26/01/2020 13:30:17	26012020	260120	133017	101.270	12.357638	-56.947750	101.260	-0.460	0.090	0.570	101.270	-1.300	1.100																			1580045417.0	11.22	20.78
26/01/2020 13:30:18	26012020	260120	133018	101.430	12.357630	-56.947698	101.480	-0.460	0.220	0.400	101.430	-1.200	0.800																			1580045418.0	11.05	20.46
26/01/2020 13:30:19	26012020	260120	133019	101.660	12.357618	-56.947648	101.680	-0.390	0.250	0.550	101.660	-1.100	0.900																			1580045419.0	10.91	20.21
26/01/2020 13:30:20	26012020	260120	133020	101.840	12.357607	-56.947598	101.850	-0.200	0.090	0.630	101.840	-1.200	1.000																			1580045420.0	10.93	20.24
26/01/2020 13:30:21	26012020	260120	133021	101.960	12.357597	-56.947548	101.900	0.160	-0.260	0.520	101.960	-1.500	1.000																			1580045421.0	10.97	20.32
26/01/2020 13:30:22	26012020	260120	133022	101.960	12.357587	-56.947495	101.860	0.620	-0.660	0.280	101.960	-1.900	0.800																			1580045422.0	11.16	20.67
26/01/2020 13:30:23	26012020	260120	133023	101.950	12.357580	-56.947443	101.860	0.850	-0.680	0.130	101.950	-2.100	0.600																			1580045423.0	11.26	20.85
26/01/2020 13:30:24	26012020	260120	133024	101.970	12.357572	-56.947393	101.910	0.560	-0.240	0.130	101.980	-1.800	0.500																			1580045424.0	10.77	19.95
26/01/2020 13:30:25	26012020	260120	133025	102.020	12.357563	-56.947345	101.890	0.010	0.090	0.320	102.020	-1.300	0.600																			1580045425.0	10.24	18.96
26/01/2020 13:30:26	26012020	260120	133026	101.970	12.357553	-56.947297	101.720	-0.260	-0.280	0.770	101.940	-1.400	1.000																			1580045426.0	10.48	19.41
26/01/2020 13:30:27	26012020	260120	133027	101.690	12.357540	-56.947245	101.450	-0.150	-0.940	1.170	101.690	-2.100	1.400																			1580045427.0	11.41	21.13
26/01/2020 13:30:28	26012020	260120	133028	101.460	12.357528	-56.947190	101.230	-0.070	-1.000	1.340	101.410	-2.400	1.700																			1580045428.0	11.75	21.76
26/01/2020 13:30:29	26012020	260120	133029	101.280	12.357517	-56.947140	101.180	-0.370	-0.300	1.260	101.280	-2.000	1.700																			1580045429.0	11.04	20.45
26/01/2020 13:30:30	26012020	260120	133030	101.290	12.357507	-56.947092	101.270	-0.800	0.370	1.100	101.310	-1.200	1.600																			1580045430.0	10.27	19.02
26/01/2020 13:30:31	26012020	260120	133031	101.450	12.357495	-56.947043	101.490	-0.870	0.370	0.920	101.450	-0.900	1.400																			1580045431.0	10.49	19.43
26/01/2020 13:30:32	26012020	260120	133032	101.680	12.357483	-56.946992	101.680	-0.460	-0.070	0.720	101.680	-1.300	1.200																			1580045432.0	11.21	20.76
26/01/2020 13:30:33	26012020	260120	133033	101.810	12.357472	-56.946938	101.770	0.120	-0.350	0.470	101.810	-1.700	1.000																			1580045433.0	11.56	21.41
26/01/2020 13:30:34	26012020	260120	133034	101.910	12.357462	-56.946887	101.890	0.480	-0.090	0.240	101.910	-1.600	0.700																			1580045434.0	11.16	20.67
26/01/2020 13:30:35	26012020	260120	133035	102.060	12.357455	-56.946838	102.020	0.540	0.200	0.120	102.060	-1.200	0.600																			1580045435.0	10.48	19.41
26/01/2020 13:30:36	26012020	260120	133036	102.150	12.357447	-56.946788	102.050	0.490	0.000	0.060	102.160	-1.200	0.500																			1580045436.0	10.47	19.39
26/01/2020 13:30:37	26012020	260120	133037	102.140	12.357440	-56.946737	102.020	0.470	-0.480	0.190	102.140	-1.700	0.500																			1580045437.0	10.99	20.35
26/01/2020 13:30:38	26012020	260120	133038	102.140	12.357432	-56.946685	102.050	0.420	-0.740	0.600	102.140	-2.000	0.800																			1580045438.0	11.18	20.71
26/01/2020 13:30:39	26012020	260120	133039	102.120	12.357420	-56.946635	101.940	0.260	-0.780	1.120	102.120	-2.200	1.400																			1580045439.0	10.97	20.32
26/01/2020 13:30:40	26012020	260120	133040	101.950	12.357407	-56.946585	101.690	-0.010	-0.690	1.370	101.900	-2.100	1.700																			1580045440.0	10.90	20.19
26/01/2020 13:30:41	26012020	260120	133041	101.710	12.357395	-56.946535	101.590	-0.370	-0.320	1.330	101.680	-1.900	1.800																			1580045441.0	10.90	20.19
26/01/2020 13:30:42	26012020	260120	133042	101.670	12.357385	-56.946485	101.720	-0.690	0.140	1.120	101.690	-1.400	1.600																			1580045442.0	10.62	19.67
26/01/2020 13:30:43	26012020	260120	133043	101.880	12.357373	-56.946437	101.900	-0.760	0.230	0.760	101.880	-1.100	1.300																			1580045443.0	10.57	19.58
26/01/2020 13:30:44	26012020	260120	133044	102.050	12.357363	-56.946385	101.990	-0.530	-0.040	0.560	102.050	-1.300	1.000																			1580045444.0	11.01	20.39
26/01/2020 13:30:45	26012020	260120	133045	102.070	12.357350	-56.946333	101.990	-0.160	-0.350	0.600	102.070	-1.600	1.000																			1580045445.0	11.31	20.95
26/01/2020 13:30:46	26012020	260120	133046	102.080	12.357338	-56.946282	102.020	0.220	-0.480	0.420	102.080	-1.800	0.900																			1580045446.0	11.25	20.84
26/01/2020 13:30:47	26012020	260120	133047	102.150	12.357330	-56.946230	102.080	0.460	-0.320	0.110	102.150	-1.800	0.600																			1580045447.0	11.06	20.48
26/01/2020 13:30:48	26012020	260120	133048	102.220	12.357322	-56.946180	102.180	0.430	-0.030	-0.120	102.220	-1.500	0.400																			1580045448.0	10.75	19.91
26/01/2020 13:30:49	26012020	260120	133049	102.350	12.357315	-56.946130	102.290	0.190	0.130	-0.120	102.350	-1.300	0.300																			1580045449.0	10.58	19.59
26/01/2020 13:30:50	26012020	260120	133050	102.420	12.357307	-56.946082	102.310	0.020	-0.010	0.190	102.420	-1.300	0.500																			1580045450.0	10.65	19.72
26/01/2020 13:30:51	26012020	260120	133051	102.340	12.357293	-56.946030	102.130	0.100	-0.470	0.640	102.340	-1.700	0.900																			1580045451.0	10.99	20.35
26/01/2020 13:30:52	26012020	260120	133052	102.120	12.357282	-56.945978	101.930	0.270	-0.790	0.920	102.120	-2.100	1.300																			1580045452.0	11.39	21.09
26/01/2020 13:30:53	26012020	260120	133053	101.950	12.357270	-56.945927	101.840	0.230	-0.550	0.960	101.950	-2.100	1.400																			1580045453.0	11.20	20.74
26/01/2020 13:30:54	26012020	260120	133054	101.940	12.357260	-56.945878	101.910	-0.090	0.010	0.800	101.950	-1.600	1.300																			1580045454.0	10.56	19.56
26/01/2020 13:30:55	26012020	260120	133055	102.060	12.357250	-56.945830	102.030	-0.390	0.230	0.690	102.060	-1.200	1.100																			1580045455.0	10.29	19.06
26/01/2020 13:30:56	26012020	260120	133056	102.170	12.357240	-56.945780	102.080	-0.390	-0.120	0.730	102.170	-1.300	1.100																			1580045456.0	10.75	19.91
26/01/2020 13:30:57	26012020	260120	133057	102.120	12.357227	-56.945728	101.980	-0.130	-0.590	0.840	102.120	-1.800	1.200																			1580045457.0	11.37	21.06
26/01/2020 13:30:58	26012020	260120	133058	102.020	12.357215	-56.945675	101.870	0.070	-0.580	0.980	101.990	-2.000	1.300																			1580045458.0	11.41	21.13
26/01/2020 13:30:59	26012020	260120	133059	101.920	12.357203	-56.945627	101.860	0.100	-0.270	0.990	101.920	-1.800	1.400																			1580045459.0	10.82	20.04
26/01/2020 13:31:00	26012020	260120	133100	101.920	12.357192	-56.945577	101.820	0.070	-0.170	0.880	101.920	-1.600	1.300	1016.60	26.20	26.30	18.20	18.30	617.00	61.00	61.00	375.00	28.00	352.00	11.60	86.00	6.10	45447	3165.00	27.40	27.40	1580045460.0	10.64	19.71
26/01/2020 13:31:01	26012020	260120	133101	101.880	12.357183	-56.945525	101.770	0.040	-0.170	0.710	101.880	-1.600	1.200																			1580045461.0	10.95	20.28
26/01/2020 13:31:02	26012020	260120	133102	101.840	12.357173	-56.945475	101.770	0.040	-0.080	0.490	101.840	-1.500	1.000																			1580045462.0	10.98	20.33
26/01/2020 13:31:03	26012020	260120	133103	101.870	12.357163	-56.945425	101.820	0.050	-0.000	0.330	101.870	-1.400	0.800																			1580045463.0	10.83	20.06
26/01/2020 13:31:04	26012020	260120	133104	101.930	12.357155	-56.945373	101.850	0.020	-0.090	0.340	101.930	-1.400	0.700																			1580045464.0	10.84	20.08
26/01/2020 13:31:05	26012020	260120	133105	101.980	12.357143	-56.945323	101.900	-0.040	-0.280	0.510	101.980	-1.600	0.900																			1580045465.0	10.99	20.35
26/01/2020 13:31:06	26012020	260120	133106	101.990	12.357133	-56.945272	101.880	-0.050	-0.390	0.780	101.990	-1.700	1.100																			1580045466.0	11.01	20.39
26/01/2020 13:31:07	26012020	260120	133107	101.930	12.357120	-56.945222	101.800	0.030	-0.410	0.960	101.930	-1.800	1.300																			1580045467.0	10.95	20.28
26/01/2020 13:31:08	26012020	260120	133108	101.840	12.357110	-56.945172	101.740	0.100	-0.290	0.980	101.840	-1.700	1.400																			1580045468.0	10.90	20.19
26/01/2020 13:31:09	26012020	260120	133109	101.810	12.357100	-56.945122	101.750	0.090	-0.160	0.860	101.810	-1.600	1.300																			1580045469.0	10.75	19.91
26/01/2020 13:31:10	26012020	260120	133110	101.840	12.357090	-56.945072	101.780	0.090	-0.220	0.670	101.850	-1.500	1.200																			1580045470.0	10.75	19.91
26/01/2020 13:31:11	26012020	260120	133111	101.860	12.357082	-56.945020	101.730	0.190	-0.490	0.580	101.860	-1.800	1.000																			1580045471.0	11.03	20.43
26/01/2020 13:31:12	26012020	260120	133112	101.760	12.357072	-56.944968	101.590	0.300	-0.630	0.650	101.760	-2.000	1.000																			1580045472.0	11.31	20.95
26/01/2020 13:31:13	26012020	260120	133113	101.620	12.357060	-56.944917	101.500	0.170	-0.320	0.810	101.620	-1.900	1.200																			1580045473.0	11.19	20.72
26/01/2020 13:31:14	26012020	260120	133114	101.600	12.357050	-56.944867	101.570	-0.230	0.270	1.080	101.600	-1.300	1.400																			1580045474.0	10.61	19.65
26/01/2020 13:31:15	26012020	260120	133115	101.700	12.357038	-56.944820	101.710	-0.580	0.400	1.230	101.700	-0.900	1.600																			1580045475.0	10.29	19.06
26/01/2020 13:31:16	26012020	260120	133116	101.800	12.357027	-56.944770	101.710	-0.490	-0.190	1.270	101.800	-1.300	1.700																			1580045476.0	10.86	20.11
26/01/2020 13:31:17	26012020	260120	133117	101.700	12.357015	-56.944717	101.550	-0.110	-0.780	1.250	101.700	-2.000	1.700																			1580045477.0	11.64	21.56
26/01/2020 13:31:18	26012020	260120	133118	101.550	12.357003	-56.944663	101.470	0.150	-0.690	1.120	101.550	-2.200	1.600																			1580045478.0	11.50	21.30
26/01/2020 13:31:19	26012020	260120	133119	101.530	12.356993	-56.944613	101.530	0.110	-0.110	0.780	101.540	-1.700	1.300																			1580045479.0	10.68	19.78
26/01/2020 13:31:20	26012020	260120	133120	101.680	12.356985	-56.944565	101.660	-0.000	0.210	0.360	101.680	-1.200	0.900																			1580045480.0	10.25	18.98
26/01/2020 13:31:21	26012020	260120	133121	101.790	12.356978	-56.944517	101.700	0.020	-0.020	0.130	101.790	-1.300	0.600																			1580045481.0	10.65	19.72
26/01/2020 13:31:22	26012020	260120	133122	101.810	12.356968	-56.944463	101.740	0.160	-0.390	0.160	101.820	-1.600	0.500																			1580045482.0	11.22	20.78
26/01/2020 13:31:23	26012020	260120	133123	101.880	12.356958	-56.944412	101.840	0.270	-0.450	0.270	101.880	-1.900	0.700																			1580045483.0	11.24	20.82
26/01/2020 13:31:24	26012020	260120	133124	101.970	12.356948	-56.944362	101.950	0.260	-0.160	0.350	102.000	-1.700	0.700																			1580045484.0	10.82	20.04
26/01/2020 13:31:25	26012020	260120	133125	102.060	12.356938	-56.944313	101.930	0.150	0.020	0.450	102.060	-1.400	0.800																			1580045485.0	10.46	19.37
26/01/2020 13:31:26	26012020	260120	133126	101.990	12.356930	-56.944263	101.740	0.070	-0.250	0.640	101.950	-1.500	1.000																			1580045486.0	10.68	19.78
26/01/2020 13:31:27	26012020	260120	133127	101.740	12.356918	-56.944212	101.580	0.000	-0.640	0.860	101.740	-1.900	1.200																			1580045487.0	11.21	20.76
26/01/2020 13:31:28	26012020	260120	133128	101.640	12.356908	-56.944158	101.540	-0.130	-0.760	1.050	101.640	-2.100	1.400																			1580045488.0	11.32	20.96
26/01/2020 13:31:29	26012020	260120	133129	101.610	12.356897	-56.944108	101.490	-0.310	-0.520	1.120	101.610	-2.000	1.500																			1580045489.0	11.04	20.45
26/01/2020 13:31:30	26012020	260120	133130	101.540	12.356885	-56.944058	101.360	-0.410	-0.220	1.130	101.510	-1.700	1.500																			1580045490.0	10.78	19.96
26/01/2020 13:31:31	26012020	260120	133131	101.400	12.356872	-56.944008	101.270	-0.360	-0.100	1.020	101.390	-1.500	1.500																			1580045491.0	10.89	20.17
26/01/2020 13:31:32	26012020	260120	133132	101.330	12.356860	-56.943958	101.250	-0.250	0.020	0.760	101.330	-1.400	1.300																			1580045492.0	11.10	20.56
26/01/2020 13:31:33	26012020	260120	133133	101.340	12.356850	-56.943907	101.310	-0.130	0.230	0.360	101.350	-1.200	0.900																			1580045493.0	10.91	20.21
26/01/2020 13:31:34	26012020	260120	133134	101.490	12.356843	-56.943857	101.520	0.060	0.210	-0.040	101.490	-1.100	0.500																			1580045494.0	10.76	19.93
26/01/2020 13:31:35	26012020	260120	133135	101.760	12.356835	-56.943805	101.840	0.250	-0.030	-0.210	101.760	-1.300	0.200																			1580045495.0	10.99	20.35
26/01/2020 13:31:36	26012020	260120	133136	102.030	12.356825	-56.943753	102.130	0.290	-0.150	-0.090	102.090	-1.500	0.300																			1580045496.0	11.06	20.48
26/01/2020 13:31:37	26012020	260120	133137	102.300	12.356815	-56.943705	102.250	0.160	-0.060	0.190	102.300	-1.500	0.500																			1580045497.0	10.70	19.82
26/01/2020 13:31:38	26012020	260120	133138	102.350	12.356805	-56.943657	102.260	0.080	-0.170	0.470	102.350	-1.500	0.800																			1580045498.0	10.41	19.28
26/01/2020 13:31:39	26012020	260120	133139	102.320	12.356795	-56.943607	102.200	0.200	-0.700	0.670	102.320	-1.900	1.000																			1580045499.0	10.74	19.89
26/01/2020 13:31:40	26012020	260120	133140	102.200	12.356785	-56.943553	101.990	0.410	-1.270	0.820	102.200	-2.500	1.200																			1580045500.0	11.31	20.95
26/01/2020 13:31:41	26012020	260120	133141	101.900	12.356773	-56.943500	101.640	0.430	-1.320	0.960	101.900	-2.800	1.300																			1580045501.0	11.52	21.34
26/01/2020 13:31:42	26012020	260120	133142	101.540	12.356763	-56.943450	101.340	0.120	-0.640	0.980	101.540	-2.300	1.400																			1580045502.0	11.06	20.48
26/01/2020 13:31:43	26012020	260120	133143	101.370	12.356753	-56.943402	101.310	-0.290	0.160	0.880	101.370	-1.500	1.300																			1580045503.0	10.44	19.33
26/01/2020 13:31:44	26012020	260120	133144	101.400	12.356743	-56.943352	101.360	-0.520	0.400	0.730	101.400	-1.000	1.200																			1580045504.0	10.56	19.56
26/01/2020 13:31:45	26012020	260120	133145	101.440	12.356732	-56.943300	101.400	-0.590	0.270	0.610	101.440	-1.100	1.100																			1580045505.0	11.21	20.76
26/01/2020 13:31:46	26012020	260120	133146	101.510	12.356720	-56.943248	101.560	-0.610	0.300	0.510	101.510	-1.100	1.000																			1580045506.0	11.35	21.02
26/01/2020 13:31:47	26012020	260120	133147	101.760	12.356710	-56.943198	101.840	-0.560	0.400	0.450	101.760	-1.000	0.900																			1580045507.0	10.87	20.13
26/01/2020 13:31:48	26012020	260120	133148	102.000	12.356698	-56.943148	101.990	-0.320	0.150	0.480	102.000	-1.100	0.900																			1580045508.0	10.70	19.82
26/01/2020 13:31:49	26012020	260120	133149	102.070	12.356687	-56.943098	102.020	0.130	-0.400	0.450	102.070	-1.600	0.900																			1580045509.0	11.03	20.43
26/01/2020 13:31:50	26012020	260120	133150	102.100	12.356677	-56.943047	102.080	0.590	-0.690	0.440	102.100	-2.000	0.800																			1580045510.0	11.26	20.85
26/01/2020 13:31:51	26012020	260120	133151	102.180	12.356667	-56.942995	102.180	0.780	-0.480	0.460	102.180	-2.000	0.900																			1580045511.0	10.88	20.15
26/01/2020 13:31:52	26012020	260120	133152	102.320	12.356658	-56.942947	102.330	0.660	-0.200	0.330	102.320	-1.700	0.800																			1580045512.0	10.38	19.22
26/01/2020 13:31:53	26012020	260120	133153	102.440	12.356652	-56.942898	102.330	0.460	-0.320	0.430	102.440	-1.600	0.800																			1580045513.0	10.42	19.30
26/01/2020 13:31:54	26012020	260120	133154	102.370	12.356642	-56.942847	102.130	0.380	-0.730	0.780	102.330	-2.000	1.100																			1580045514.0	10.99	20.35
26/01/2020 13:31:55	26012020	260120	133155	102.120	12.356630	-56.942795	102.010	0.260	-0.830	0.970	102.120	-2.200	1.300																			1580045515.0	11.36	21.04
26/01/2020 13:31:56	26012020	260120	133156	102.050	12.356620	-56.942743	101.970	-0.040	-0.530	0.990	102.050	-2.100	1.400																			1580045516.0	11.02	20.41
26/01/2020 13:31:57	26012020	260120	133157	102.010	12.356610	-56.942693	101.900	-0.420	-0.190	0.990	102.000	-1.700	1.400																			1580045517.0	10.72	19.85
26/01/2020 13:31:58	26012020	260120	133158	101.890	12.356598	-56.942643	101.750	-0.650	-0.100	1.050	101.890	-1.500	1.400																			1580045518.0	10.84	20.08
26/01/2020 13:31:59	26012020	260120	133159	101.740	12.356585	-56.942593	101.660	-0.650	-0.190	1.050	101.740	-1.500	1.500																			1580045519.0	11.22	20.78
26/01/2020 13:32:00	26012020	260120	133200	101.720	12.356573	-56.942540	101.750	-0.530	-0.100	0.930	101.740	-1.500	1.400	1016.60	26.20	26.20	18.20	18.30	625.00	61.00	61.00	375.00	28.10	354.00	10.90	89.00	5.40	45906	3113.00	27.50	27.40	1580045520.0	11.35	21.02
26/01/2020 13:32:01	26012020	260120	133201	101.870	12.356562	-56.942490	101.920	-0.430	0.170	0.820	101.870	-1.300	1.300																			1580045521.0	11.04	20.45
26/01/2020 13:32:02	26012020	260120	133202	102.050	12.356548	-56.942440	102.100	-0.280	0.320	0.570	102.050	-1.100	1.100																			1580045522.0	10.75	19.91
26/01/2020 13:32:03	26012020	260120	133203	102.230	12.356538	-56.942390	102.250	0.040	0.190	0.260	102.230	-1.100	0.800																			1580045523.0	10.81	20.02
26/01/2020 13:32:04	26012020	260120	133204	102.350	12.356528	-56.942340	102.390	0.440	-0.100	0.070	102.390	-1.400	0.500																			1580045524.0	11.02	20.41
26/01/2020 13:32:05	26012020	260120	133205	102.500	12.356520	-56.942288	102.450	0.710	-0.320	-0.010	102.500	-1.600	0.400																			1580045525.0	11.07	20.50
26/01/2020 13:32:06	26012020	260120	133206	102.550	12.356512	-56.942237	102.540	0.740	-0.370	0.050	102.560	-1.700	0.400																			1580045526.0	10.88	20.15
26/01/2020 13:32:07	26012020	260120	133207	102.670	12.356503	-56.942187	102.630	0.600	-0.410	0.260	102.670	-1.800	0.600																			1580045527.0	10.68	19.78
26/01/2020 13:32:08	26012020	260120	133208	102.730	12.356493	-56.942137	102.670	0.410	-0.570	0.540	102.730	-1.900	0.800																			1580045528.0	10.73	19.87
26/01/2020 13:32:09	26012020	260120	133209	102.740	12.356483	-56.942087	102.680	0.170	-0.610	0.910	102.740	-2.000	1.200																			1580045529.0	10.94	20.26
26/01/2020 13:32:10	26012020	260120	133210	102.730	12.356472	-56.942037	102.630	-0.160	-0.510	1.230	102.720	-1.900	1.500																			1580045530.0	10.84	20.08
26/01/2020 13:32:11	26012020	260120	133211	102.590	12.356458	-56.941987	102.390	-0.450	-0.500	1.340	102.590	-1.900	1.700																			1580045531.0	10.82	20.04
26/01/2020 13:32:12	26012020	260120	133212	102.330	12.356445	-56.941937	102.050	-0.520	-0.650	1.340	102.260	-2.000	1.800																			1580045532.0	11.11	20.58
26/01/2020 13:32:13	26012020	260120	133213	101.970	12.356433	-56.941883	101.850	-0.420	-0.640	1.170	101.970	-2.100	1.700																			1580045533.0	11.43	21.17
26/01/2020 13:32:14	26012020	260120	133214	101.880	12.356422	-56.941832	101.830	-0.360	-0.220	0.830	101.880	-1.800	1.400																			1580045534.0	11.28	20.89
26/01/2020 13:32:15	26012020	260120	133215	101.890	12.356410	-56.941782	101.840	-0.390	0.280	0.570	101.890	-1.300	1.000																			1580045535.0	10.82	20.04
26/01/2020 13:32:16	26012020	260120	133216	101.900	12.356398	-56.941732	101.850	-0.350	0.480	0.490	101.900	-0.900	0.900																			1580045536.0	10.76	19.93
26/01/2020 13:32:17	26012020	260120	133217	101.930	12.356388	-56.941682	101.970	-0.130	0.340	0.310	101.930	-1.000	0.800																			1580045537.0	11.01	20.39
26/01/2020 13:32:18	26012020	260120	133218	102.100	12.356378	-56.941630	102.330	0.180	0.080	0.120	102.170	-1.200	0.600																			1580045538.0	11.22	20.78
26/01/2020 13:32:19	26012020	260120	133219	102.590	12.356368	-56.941578	102.750	0.410	-0.060	0.140	102.590	-1.400	0.500																			1580045539.0	11.11	20.58
26/01/2020 13:32:20	26012020	260120	133220	102.880	12.356357	-56.941528	102.940	0.520	-0.090	0.370	102.930	-1.500	0.700																			1580045540.0	10.77	19.95
26/01/2020 13:32:21	26012020	260120	133221	102.970	12.356347	-56.941480	102.820	0.540	-0.240	0.680	102.950	-1.600	1.000																			1580045541.0	10.59	19.61
26/01/2020 13:32:22	26012020	260120	133222	102.810	12.356335	-56.941430	102.630	0.530	-0.530	0.830	102.770	-1.800	1.200																			1580045542.0	10.75	19.91
26/01/2020 13:32:23	26012020	260120	133223	102.620	12.356327	-56.941378	102.430	0.460	-0.830	0.810	102.590	-2.100	1.200																			1580045543.0	10.94	20.26
26/01/2020 13:32:24	26012020	260120	133224	102.420	12.356317	-56.941327	102.170	0.290	-0.990	0.800	102.370	-2.400	1.200																			1580045544.0	11.09	20.54
26/01/2020 13:32:25	26012020	260120	133225	102.090	12.356308	-56.941277	101.870	-0.020	-0.870	0.960	102.090	-2.300	1.300																			1580045545.0	11.08	20.52
26/01/2020 13:32:26	26012020	260120	133226	101.810	12.356295	-56.941225	101.660	-0.390	-0.530	1.270	101.810	-2.100	1.600																			1580045546.0	10.98	20.33
26/01/2020 13:32:27	26012020	260120	133227	101.670	12.356282	-56.941175	101.630	-0.710	-0.040	1.500	101.670	-1.600	1.800																			1580045547.0	10.94	20.26
26/01/2020 13:32:28	26012020	260120	133228	101.700	12.356267	-56.941127	101.680	-0.870	0.360	1.480	101.700	-1.200	1.900																			1580045548.0	10.81	20.02
26/01/2020 13:32:29	26012020	260120	133229	101.730	12.356253	-56.941077	101.690	-0.750	0.380	1.230	101.730	-1.000	1.800																			1580045549.0	10.86	20.11
26/01/2020 13:32:30	26012020	260120	133230	101.730	12.356242	-56.941025	101.680	-0.270	-0.050	0.890	101.730	-1.200	1.400																			1580045550.0	11.20	20.74
26/01/2020 13:32:31	26012020	260120	133231	101.740	12.356232	-56.940972	101.710	0.370	-0.570	0.530	101.740	-1.800	1.100																			1580045551.0	11.64	21.56
26/01/2020 13:32:32	26012020	260120	133232	101.790	12.356223	-56.940917	101.790	0.690	-0.510	0.260	101.790	-2.000	0.700																			1580045552.0	11.65	21.58
26/01/2020 13:32:33	26012020	260120	133233	101.920	12.356215	-56.940867	101.950	0.440	0.170	0.210	101.920	-1.500	0.600																			1580045553.0	10.82	20.04
26/01/2020 13:32:34	26012020	260120	133234	102.120	12.356207	-56.940820	102.190	-0.070	0.710	0.320	102.120	-0.800	0.700																			1580045554.0	10.04	18.59
26/01/2020 13:32:35	26012020	260120	133235	102.350	12.356197	-56.940773	102.380	-0.330	0.470	0.640	102.350	-0.700	0.900																			1580045555.0	10.16	18.82
26/01/2020 13:32:36	26012020	260120	133236	102.420	12.356183	-56.940723	102.280	-0.020	-0.540	1.090	102.420	-1.500	1.300																			1580045556.0	10.99	20.35
26/01/2020 13:32:37	26012020	260120	133237	102.170	12.356170	-56.940668	101.920	0.600	-1.480	1.280	102.170	-2.600	1.700																			1580045557.0	11.81	21.87
26/01/2020 13:32:38	26012020	260120	133238	101.770	12.356158	-56.940615	101.570	0.880	-1.370	1.270	101.770	-2.900	1.700																			1580045558.0	11.74	21.74
26/01/2020 13:32:39	26012020	260120	133239	101.530	12.356150	-56.940565	101.460	0.500	-0.340	1.120	101.530	-2.200	1.600																			1580045559.0	10.66	19.74
26/01/2020 13:32:40	26012020	260120	133240	101.530	12.356142	-56.940518	101.500	-0.220	0.570	0.860	101.530	-1.100	1.400																			1580045560.0	9.83	18.21
26/01/2020 13:32:41	26012020	260120	133241	101.570	12.356133	-56.940472	101.520	-0.720	0.590	0.780	101.570	-0.700	1.200																			1580045561.0	10.14	18.78
26/01/2020 13:32:42	26012020	260120	133242	101.590	12.356122	-56.940420	101.570	-0.730	-0.140	0.850	101.590	-1.200	1.200																			1580045562.0	11.15	20.65
26/01/2020 13:32:43	26012020	260120	133243	101.670	12.356108	-56.940367	101.670	-0.470	-0.750	1.030	101.670	-2.000	1.400																			1580045563.0	11.81	21.87
26/01/2020 13:32:44	26012020	260120	133244	101.740	12.356093	-56.940313	101.680	-0.240	-0.720	1.170	101.740	-2.200	1.500																			1580045564.0	11.50	21.30
26/01/2020 13:32:45	26012020	260120	133245	101.680	12.356082	-56.940265	101.540	-0.080	-0.320	1.120	101.680	-1.900	1.600																			1580045565.0	10.77	19.95
26/01/2020 13:32:46	26012020	260120	133246	101.480	12.356070	-56.940217	101.320	0.120	-0.130	0.910	101.480	-1.500	1.400																			1580045566.0	10.51	19.46
26/01/2020 13:32:47	26012020	260120	133247	101.320	12.356063	-56.940165	101.270	0.320	-0.280	0.520	101.320	-1.600	1.100																			1580045567.0	10.92	20.22
26/01/2020 13:32:48	26012020	260120	133248	101.390	12.356055	-56.940112	101.390	0.340	-0.310	0.210	101.390	-1.700	0.700																			1580045568.0	11.29	20.91
26/01/2020 13:32:49	26012020	260120	133249	101.510	12.356047	-56.940060	101.480	0.090	0.050	0.300	101.510	-1.500	0.600																			1580045569.0	11.00	20.37
26/01/2020 13:32:50	26012020	260120	133250	101.550	12.356037	-56.940012	101.520	-0.200	0.320	0.620	101.550	-1.100	0.900																			1580045570.0	10.48	19.41
26/01/2020 13:32:51	26012020	260120	133251	101.590	12.356025	-56.939963	101.600	-0.220	0.130	0.780	101.590	-1.100	1.100																			1580045571.0	10.65	19.72
26/01/2020 13:32:52	26012020	260120	133252	101.700	12.356013	-56.939912	101.710	-0.010	-0.210	0.750	101.700	-1.500	1.200																			1580045572.0	11.08	20.52
26/01/2020 13:32:53	26012020	260120	133253	101.800	12.356003	-56.939862	101.770	0.220	-0.390	0.700	101.800	-1.700	1.100																			1580045573.0	11.12	20.59
26/01/2020 13:32:54	26012020	260120	133254	101.790	12.355992	-56.939810	101.680	0.320	-0.380	0.720	101.790	-1.800	1.100																			1580045574.0	10.87	20.13
26/01/2020 13:32:55	26012020	260120	133255	101.670	12.355983	-56.939760	101.560	0.280	-0.390	0.650	101.670	-1.800	1.100																			1580045575.0	10.70	19.82
26/01/2020 13:32:56	26012020	260120	133256	101.570	12.355975	-56.939710	101.470	0.130	-0.450	0.620	101.570	-1.800	1.000																			1580045576.0	10.83	20.06
26/01/2020 13:32:57	26012020	260120	133257	101.500	12.355965	-56.939660	101.400	-0.080	-0.410	0.680	101.500	-1.800	1.000																			1580045577.0	10.87	20.13
26/01/2020 13:32:58	26012020	260120	133258	101.390	12.355953	-56.939610	101.240	-0.210	-0.410	0.910	101.390	-1.800	1.200																			1580045578.0	10.80	20.00
26/01/2020 13:32:59	26012020	260120	133259	101.200	12.355942	-56.939560	101.030	-0.180	-0.500	1.140	101.200	-1.800	1.500																			1580045579.0	10.95	20.28
26/01/2020 13:33:00	26012020	260120	133300	101.010	12.355928	-56.939508	100.830	-0.050	-0.590	1.230	100.980	-2.000	1.600	1016.60	26.10	26.20	18.40	18.40	621.00	62.00	62.00	376.00	28.10	349.00	11.00	80.00	5.60	45769	3165.00	27.50	27.50	1580045580.0	11.17	20.69
26/01/2020 13:33:01	26012020	260120	133301	100.820	12.355918	-56.939457	100.740	0.040	-0.460	1.170	100.820	-1.900	1.600																			1580045581.0	11.23	20.80
26/01/2020 13:33:02	26012020	260120	133302	100.790	12.355908	-56.939405	100.730	-0.030	-0.080	1.110	100.790	-1.600	1.500																			1580045582.0	10.99	20.35
26/01/2020 13:33:03	26012020	260120	133303	100.790	12.355898	-56.939357	100.760	-0.230	0.290	0.990	100.790	-1.200	1.400																			1580045583.0	10.73	19.87
26/01/2020 13:33:04	26012020	260120	133304	100.890	12.355888	-56.939307	100.940	-0.380	0.420	0.910	100.890	-1.000	1.300																			1580045584.0	10.68	19.78
26/01/2020 13:33:05	26012020	260120	133305	101.090	12.355878	-56.939257	101.130	-0.310	0.160	0.820	101.090	-1.100	1.300																			1580045585.0	10.83	20.06
26/01/2020 13:33:06	26012020	260120	133306	101.250	12.355868	-56.939203	101.210	0.010	-0.340	0.760	101.250	-1.500	1.200																			1580045586.0	11.19	20.72
26/01/2020 13:33:07	26012020	260120	133307	101.250	12.355858	-56.939152	101.150	0.320	-0.530	0.770	101.250	-1.900	1.200																			1580045587.0	11.39	21.09
26/01/2020 13:33:08	26012020	260120	133308	101.190	12.355848	-56.939100	101.090	0.380	-0.250	0.690	101.190	-1.800	1.100																			1580045588.0	10.90	20.19
26/01/2020 13:33:09	26012020	260120	133309	101.180	12.355840	-56.939052	101.120	0.290	-0.030	0.570	101.180	-1.500	1.000																			1580045589.0	10.42	19.30
26/01/2020 13:33:10	26012020	260120	133310	101.230	12.355832	-56.939003	101.150	0.220	-0.200	0.560	101.230	-1.500	1.000																			1580045590.0	10.58	19.59
26/01/2020 13:33:11	26012020	260120	133311	101.240	12.355823	-56.938952	101.150	0.190	-0.520	0.640	101.240	-1.800	1.000																			1580045591.0	10.99	20.35
26/01/2020 13:33:12	26012020	260120	133312	101.220	12.355813	-56.938900	101.030	0.200	-0.740	0.890	101.210	-2.100	1.200																			1580045592.0	11.16	20.67
26/01/2020 13:33:13	26012020	260120	133313	101.000	12.355803	-56.938848	100.810	0.190	-0.660	1.230	101.000	-2.100	1.500																			1580045593.0	11.10	20.56
26/01/2020 13:33:14	26012020	260120	133314	100.840	12.355792	-56.938798	100.770	0.030	-0.330	1.360	100.840	-1.900	1.700																			1580045594.0	10.87	20.13
26/01/2020 13:33:15	26012020	260120	133315	100.890	12.355782	-56.938748	100.880	-0.210	-0.100	1.260	100.890	-1.500	1.700																			1580045595.0	10.67	19.76
26/01/2020 13:33:16	26012020	260120	133316	101.000	12.355772	-56.938698	100.970	-0.380	-0.130	1.050	101.000	-1.500	1.500																			1580045596.0	10.89	20.17
26/01/2020 13:33:17	26012020	260120	133317	101.070	12.355762	-56.938647	101.030	-0.400	-0.250	0.890	101.070	-1.600	1.300																			1580045597.0	11.18	20.71
26/01/2020 13:33:18	26012020	260120	133318	101.110	12.355752	-56.938595	101.040	-0.300	-0.220	0.870	101.110	-1.700	1.300																			1580045598.0	11.22	20.78
26/01/2020 13:33:19	26012020	260120	133319	101.140	12.355740	-56.938543	101.140	-0.210	0.060	0.840	101.140	-1.500	1.300																			1580045599.0	11.00	20.37
26/01/2020 13:33:20	26012020	260120	133320	101.290	12.355730	-56.938493	101.300	-0.200	0.240	0.690	101.290	-1.200	1.200																			1580045600.0	10.68	19.78
26/01/2020 13:33:21	26012020	260120	133321	101.480	12.355720	-56.938443	101.460	-0.140	0.000	0.510	101.480	-1.300	1.000																			1580045601.0	10.78	19.96
26/01/2020 13:33:22	26012020	260120	133322	101.580	12.355712	-56.938392	101.550	0.080	-0.330	0.470	101.600	-1.600	0.900																			1580045602.0	11.15	20.65
26/01/2020 13:33:23	26012020	260120	133323	101.670	12.355702	-56.938340	101.620	0.340	-0.440	0.520	101.670	-1.800	0.900																			1580045603.0	11.12	20.59
26/01/2020 13:33:24	26012020	260120	133324	101.730	12.355692	-56.938290	101.650	0.540	-0.510	0.480	101.730	-1.900	0.900																			1580045604.0	10.91	20.21
26/01/2020 13:33:25	26012020	260120	133325	101.730	12.355683	-56.938238	101.560	0.590	-0.560	0.510	101.730	-1.900	0.900																			1580045605.0	10.95	20.28
26/01/2020 13:33:26	26012020	260120	133326	101.570	12.355675	-56.938188	101.380	0.450	-0.440	0.770	101.570	-1.900	1.100																			1580045606.0	10.98	20.33
26/01/2020 13:33:27	26012020	260120	133327	101.390	12.355665	-56.938137	101.250	0.130	-0.160	0.990	101.390	-1.700	1.300																			1580045607.0	10.84	20.08
26/01/2020 13:33:28	26012020	260120	133328	101.310	12.355655	-56.938088	101.230	-0.270	0.080	1.170	101.310	-1.400	1.500																			1580045608.0	10.69	19.80
26/01/2020 13:33:29	26012020	260120	133329	101.300	12.355643	-56.938038	101.230	-0.500	-0.020	1.180	101.300	-1.300	1.600																			1580045609.0	10.75	19.91
26/01/2020 13:33:30	26012020	260120	133330	101.300	12.355632	-56.937987	101.230	-0.430	-0.340	1.040	101.300	-1.600	1.500																			1580045610.0	11.16	20.67
26/01/2020 13:33:31	26012020	260120	133331	101.280	12.355620	-56.937935	101.190	-0.190	-0.470	0.990	101.280	-1.900	1.400																			1580045611.0	11.36	21.04
26/01/2020 13:33:32	26012020	260120	133332	101.260	12.355610	-56.937883	101.220	-0.000	-0.260	0.780	101.260	-1.800	1.300																			1580045612.0	11.10	20.56
26/01/2020 13:33:33	26012020	260120	133333	101.360	12.355600	-56.937833	101.380	0.010	0.030	0.460	101.360	-1.500	1.000																			1580045613.0	10.70	19.82
26/01/2020 13:33:34	26012020	260120	133334	101.540	12.355592	-56.937783	101.530	-0.060	0.070	0.240	101.540	-1.300	0.700																			1580045614.0	10.61	19.65
26/01/2020 13:33:35	26012020	260120	133335	101.650	12.355583	-56.937733	101.560	-0.010	-0.300	0.220	101.650	-1.500	0.600																			1580045615.0	10.87	20.13
26/01/2020 13:33:36	26012020	260120	133336	101.580	12.355573	-56.937680	101.430	0.180	-0.760	0.540	101.580	-2.000	0.800																			1580045616.0	11.33	20.98
26/01/2020 13:33:37	26012020	260120	133337	101.430	12.355562	-56.937628	101.330	0.280	-0.780	0.880	101.430	-2.200	1.200																			1580045617.0	11.40	21.11
26/01/2020 13:33:38	26012020	260120	133338	101.360	12.355550	-56.937578	101.260	0.130	-0.390	1.030	101.360	-1.900	1.400																			1580045618.0	10.93	20.24
26/01/2020 13:33:39	26012020	260120	133339	101.260	12.355540	-56.937528	101.090	-0.110	-0.100	1.060	101.260	-1.600	1.500																			1580045619.0	10.61	19.65
26/01/2020 13:33:40	26012020	260120	133340	101.060	12.355530	-56.937478	100.940	-0.190	-0.060	1.020	101.060	-1.400	1.500																			1580045620.0	10.87	20.13
26/01/2020 13:33:41	26012020	260120	133341	100.980	12.355520	-56.937427	100.930	-0.150	-0.050	0.910	100.980	-1.500	1.400																			1580045621.0	11.18	20.71
26/01/2020 13:33:42	26012020	260120	133342	101.040	12.355510	-56.937375	101.050	-0.100	0.050	0.720	101.040	-1.400	1.200																			1580045622.0	11.13	20.61
26/01/2020 13:33:43	26012020	260120	133343	101.220	12.355500	-56.937323	101.300	-0.080	0.200	0.490	101.220	-1.300	1.000																			1580045623.0	10.93	20.24
26/01/2020 13:33:44	26012020	260120	133344	101.530	12.355492	-56.937273	101.640	-0.080	0.310	0.390	101.530	-1.100	0.800																			1580045624.0	10.73	19.87
26/01/2020 13:33:45	26012020	260120	133345	101.870	12.355482	-56.937225	101.940	-0.020	0.150	0.380	101.870	-1.100	0.800																			1580045625.0	10.65	19.72
26/01/2020 13:33:46	26012020	260120	133346	102.100	12.355472	-56.937175	102.090	0.150	-0.390	0.530	102.100	-1.500	0.900																			1580045626.0	10.85	20.09
26/01/2020 13:33:47	26012020	260120	133347	102.120	12.355460	-56.937122	101.980	0.390	-1.030	0.830	102.120	-2.200	1.100																			1580045627.0	11.25	20.84
26/01/2020 13:33:48	26012020	260120	133348	101.910	12.355450	-56.937070	101.710	0.490	-1.220	1.090	101.910	-2.600	1.400																			1580045628.0	11.37	21.06
26/01/2020 13:33:49	26012020	260120	133349	101.680	12.355440	-56.937018	101.460	0.280	-0.870	1.200	101.640	-2.400	1.600																			1580045629.0	11.01	20.39
26/01/2020 13:33:50	26012020	260120	133350	101.430	12.355430	-56.936968	101.310	-0.080	-0.400	1.140	101.430	-2.000	1.600																			1580045630.0	10.61	19.65
26/01/2020 13:33:51	26012020	260120	133351	101.320	12.355420	-56.936920	101.210	-0.320	-0.090	1.090	101.320	-1.600	1.500																			1580045631.0	10.74	19.89
26/01/2020 13:33:52	26012020	260120	133352	101.250	12.355408	-56.936868	101.200	-0.400	0.030	0.980	101.250	-1.400	1.500																			1580045632.0	11.03	20.43
26/01/2020 13:33:53	26012020	260120	133353	101.290	12.355398	-56.936817	101.300	-0.420	0.080	0.810	101.290	-1.300	1.300																			1580045633.0	11.24	20.82
26/01/2020 13:33:54	26012020	260120	133354	101.440	12.355387	-56.936765	101.490	-0.390	0.180	0.680	101.440	-1.300	1.100																			1580045634.0	11.20	20.74
26/01/2020 13:33:55	26012020	260120	133355	101.650	12.355375	-56.936713	101.710	-0.220	0.190	0.430	101.650	-1.200	0.900																			1580045635.0	11.01	20.39
26/01/2020 13:33:56	26012020	260120	133356	101.870	12.355365	-56.936663	101.910	0.120	0.040	0.170	101.870	-1.300	0.700																			1580045636.0	11.05	20.46
26/01/2020 13:33:57	26012020	260120	133357	102.060	12.355357	-56.936610	102.110	0.420	-0.020	0.070	102.060	-1.400	0.500																			1580045637.0	11.12	20.59
26/01/2020 13:33:58	26012020	260120	133358	102.280	12.355348	-56.936560	102.350	0.430	0.030	0.180	102.280	-1.400	0.500																			1580045638.0	10.85	20.09
26/01/2020 13:33:59	26012020	260120	133359	102.510	12.355340	-56.936510	102.520	0.210	-0.130	0.430	102.510	-1.400	0.700																			1580045639.0	10.60	19.63
26/01/2020 13:34:00	26012020	260120	133400	102.570	12.355328	-56.936460	102.460	0.020	-0.570	0.870	102.570	-1.800	1.100	1016.60	26.10	26.20	18.30	18.40	619.00	62.00	62.00	376.00	28.10	347.00	11.10	75.00	5.70	45688	3152.00	27.50	27.40	1580045640.0	10.82	20.04
26/01/2020 13:34:01	26012020	260120	133401	102.420	12.355317	-56.936410	102.270	-0.050	-0.920	1.240	102.420	-2.200	1.500																			1580045641.0	11.13	20.61
26/01/2020 13:34:02	26012020	260120	133402	102.210	12.355303	-56.936358	102.070	0.000	-1.040	1.260	102.210	-2.400	1.700																			1580045642.0	11.12	20.59
26/01/2020 13:34:03	26012020	260120	133403	102.040	12.355292	-56.936308	101.910	0.170	-0.960	1.160	102.040	-2.400	1.600																			1580045643.0	11.07	20.50
26/01/2020 13:34:04	26012020	260120	133404	101.890	12.355282	-56.936257	101.770	0.240	-0.590	1.010	101.890	-2.200	1.500																			1580045644.0	11.13	20.61
26/01/2020 13:34:05	26012020	260120	133405	101.780	12.355272	-56.936207	101.720	0.000	0.090	0.660	101.780	-1.600	1.200																			1580045645.0	10.87	20.13
26/01/2020 13:34:06	26012020	260120	133406	101.810	12.355263	-56.936157	101.780	-0.330	0.510	0.340	101.810	-1.000	0.800																			1580045646.0	10.54	19.52
26/01/2020 13:34:07	26012020	260120	133407	101.890	12.355253	-56.936107	101.860	-0.420	0.320	0.340	101.890	-0.900	0.700																			1580045647.0	10.87	20.13
26/01/2020 13:34:08	26012020	260120	133408	101.940	12.355242	-56.936053	101.920	-0.300	-0.100	0.430	101.940	-1.300	0.800																			1580045648.0	11.45	21.21
26/01/2020 13:34:09	26012020	260120	133409	102.010	12.355230	-56.936000	102.010	-0.190	-0.250	0.620	102.010	-1.600	0.900																			1580045649.0	11.51	21.32
26/01/2020 13:34:10	26012020	260120	133410	102.100	12.355218	-56.935950	102.080	-0.180	-0.050	0.830	102.100	-1.500	1.200																			1580045650.0	11.02	20.41
26/01/2020 13:34:11	26012020	260120	133411	102.130	12.355207	-56.935902	102.070	-0.200	0.050	0.790	102.130	-1.300	1.200																			1580045651.0	10.61	19.65
26/01/2020 13:34:12	26012020	260120	133412	102.120	12.355195	-56.935852	102.050	-0.070	-0.230	0.640	102.110	-1.500	1.100																			1580045652.0	10.77	19.95
26/01/2020 13:34:13	26012020	260120	133413	102.100	12.355187	-56.935798	102.060	0.210	-0.570	0.550	102.100	-1.900	1.000																			1580045653.0	11.19	20.72
26/01/2020 13:34:14	26012020	260120	133414	102.120	12.355175	-56.935747	102.120	0.450	-0.560	0.450	102.140	-2.000	0.900																			1580045654.0	11.19	20.72
26/01/2020 13:34:15	26012020	260120	133415	102.210	12.355167	-56.935697	102.150	0.440	-0.230	0.370	102.210	-1.800	0.800																			1580045655.0	10.78	19.96
26/01/2020 13:34:16	26012020	260120	133416	102.210	12.355157	-56.935648	102.130	0.280	-0.090	0.380	102.210	-1.500	0.800																			1580045656.0	10.49	19.43
26/01/2020 13:34:17	26012020	260120	133417	102.170	12.355147	-56.935598	102.060	0.240	-0.380	0.530	102.170	-1.600	0.900																			1580045657.0	10.80	20.00
26/01/2020 13:34:18	26012020	260120	133418	102.060	12.355135	-56.935547	101.930	0.320	-0.720	0.770	102.060	-2.000	1.100																			1580045658.0	11.33	20.98
26/01/2020 13:34:19	26012020	260120	133419	101.930	12.355125	-56.935493	101.800	0.230	-0.630	1.010	101.930	-2.100	1.300																			1580045659.0	11.42	21.15
26/01/2020 13:34:20	26012020	260120	133420	101.780	12.355113	-56.935443	101.660	-0.190	-0.130	1.230	101.780	-1.700	1.600																			1580045660.0	10.90	20.19
26/01/2020 13:34:21	26012020	260120	133421	101.660	12.355103	-56.935395	101.590	-0.680	0.160	1.300	101.660	-1.300	1.700																			1580045661.0	10.52	19.48
26/01/2020 13:34:22	26012020	260120	133422	101.620	12.355092	-56.935345	101.600	-0.840	-0.060	1.290	101.620	-1.300	1.700																			1580045662.0	10.87	20.13
26/01/2020 13:34:23	26012020	260120	133423	101.650	12.355078	-56.935292	101.640	-0.670	-0.380	1.190	101.650	-1.700	1.600																			1580045663.0	11.44	21.19
26/01/2020 13:34:24	26012020	260120	133424	101.700	12.355065	-56.935240	101.690	-0.390	-0.360	0.910	101.700	-1.800	1.400																			1580045664.0	11.46	21.22
26/01/2020 13:34:25	26012020	260120	133425	101.770	12.355053	-56.935188	101.760	-0.150	-0.060	0.530	101.770	-1.600	1.100																			1580045665.0	10.99	20.35
26/01/2020 13:34:26	26012020	260120	133426	101.850	12.355043	-56.935140	101.850	0.120	0.160	0.210	101.850	-1.300	0.700																			1580045666.0	10.67	19.76
26/01/2020 13:34:27	26012020	260120	133427	101.950	12.355035	-56.935090	102.020	0.490	0.120	-0.150	101.980	-1.200	0.400																			1580045667.0	10.73	19.87
26/01/2020 13:34:28	26012020	260120	133428	102.140	12.355028	-56.935038	102.180	0.830	-0.180	-0.350	102.180	-1.400	0.100																			1580045668.0	11.05	20.46
26/01/2020 13:34:29	26012020	260120	133429	102.270	12.355022	-56.934985	102.210	0.900	-0.420	-0.160	102.270	-1.700	0.100																			1580045669.0	11.22	20.78
26/01/2020 13:34:30	26012020	260120	133430	102.280	12.355012	-56.934933	102.260	0.580	-0.400	0.260	102.280	-1.800	0.500																			1580045670.0	11.02	20.41
26/01/2020 13:34:31	26012020	260120	133431	102.340	12.355002	-56.934885	102.300	0.090	-0.290	0.760	102.340	-1.700	1.000																			1580045671.0	10.67	19.76
26/01/2020 13:34:32	26012020	260120	133432	102.320	12.354988	-56.934835	102.250	-0.280	-0.330	1.200	102.320	-1.700	1.500																			1580045672.0	10.66	19.74
26/01/2020 13:34:33	26012020	260120	133433	102.200	12.354977	-56.934785	102.060	-0.380	-0.570	1.400	102.200	-1.900	1.800																			1580045673.0	10.96	20.30
26/01/2020 13:34:34	26012020	260120	133434	102.010	12.354963	-56.934733	101.860	-0.330	-0.770	1.380	101.960	-2.100	1.800																			1580045674.0	11.31	20.95
26/01/2020 13:34:35	26012020	260120	133435	101.840	12.354952	-56.934682	101.840	-0.400	-0.530	1.230	101.840	-2.100	1.700																			1580045675.0	11.29	20.91
26/01/2020 13:34:36	26012020	260120	133436	101.920	12.354940	-56.934632	101.960	-0.600	-0.020	0.990	101.920	-1.600	1.500																			1580045676.0	10.81	20.02
26/01/2020 13:34:37	26012020	260120	133437	102.010	12.354927	-56.934583	101.960	-0.690	0.210	0.780	102.010	-1.200	1.300																			1580045677.0	10.57	19.58
26/01/2020 13:34:38	26012020	260120	133438	101.930	12.354915	-56.934533	101.820	-0.360	-0.030	0.560	101.930	-1.300	1.000																			1580045678.0	10.94	20.26
26/01/2020 13:34:39	26012020	260120	133439	101.810	12.354903	-56.934480	101.700	0.320	-0.400	0.310	101.790	-1.700	0.800																			1580045679.0	11.44	21.19
26/01/2020 13:34:40	26012020	260120	133440	101.770	12.354895	-56.934427	101.790	0.870	-0.390	0.030	101.770	-1.800	0.500																			1580045680.0	11.51	21.32
26/01/2020 13:34:41	26012020	260120	133441	101.970	12.354888	-56.934375	102.040	0.870	-0.030	-0.080	101.970	-1.600	0.300																			1580045681.0	11.04	20.45
26/01/2020 13:34:42	26012020	260120	133442	102.170	12.354880	-56.934325	102.270	0.390	0.300	0.160	102.220	-1.200	0.400																			1580045682.0	10.55	19.54
26/01/2020 13:34:43	26012020	260120	133443	102.390	12.354870	-56.934277	102.400	-0.090	0.320	0.630	102.390	-1.000	0.800																			1580045683.0	10.46	19.37
26/01/2020 13:34:44	26012020	260120	133444	102.440	12.354858	-56.934228	102.370	-0.180	-0.170	1.150	102.430	-1.300	1.400																			1580045684.0	10.75	19.91
26/01/2020 13:34:45	26012020	260120	133445	102.310	12.354845	-56.934175	102.230	0.040	-0.860	1.400	102.310	-2.000	1.800																			1580045685.0	11.37	21.06
26/01/2020 13:34:46	26012020	260120	133446	102.190	12.354833	-56.934123	102.150	0.080	-0.920	1.390	102.190	-2.400	1.800																			1580045686.0	11.53	21.35
26/01/2020 13:34:47	26012020	260120	133447	102.110	12.354822	-56.934073	102.030	-0.230	-0.410	1.310	102.110	-2.000	1.700																			1580045687.0	10.79	19.98
26/01/2020 13:34:48	26012020	260120	133448	102.010	12.354810	-56.934025	101.860	-0.500	-0.080	1.150	101.980	-1.500	1.600																			1580045688.0	10.28	19.04
26/01/2020 13:34:49	26012020	260120	133449	101.830	12.354800	-56.933977	101.760	-0.430	-0.320	0.890	101.830	-1.600	1.400																			1580045689.0	10.76	19.93
26/01/2020 13:34:50	26012020	260120	133450	101.810	12.354788	-56.933923	101.770	-0.130	-0.580	0.690	101.810	-1.900	1.100																			1580045690.0	11.42	21.15
26/01/2020 13:34:51	26012020	260120	133451	101.810	12.354777	-56.933870	101.720	0.090	-0.330	0.530	101.810	-1.900	1.000																			1580045691.0	11.35	21.02
26/01/2020 13:34:52	26012020	260120	133452	101.700	12.354767	-56.933822	101.520	0.160	0.080	0.430	101.700	-1.400	0.900																			1580045692.0	10.74	19.89
26/01/2020 13:34:53	26012020	260120	133453	101.530	12.354757	-56.933772	101.380	0.210	0.150	0.460	101.490	-1.200	0.800																			1580045693.0	10.66	19.74
26/01/2020 13:34:54	26012020	260120	133454	101.440	12.354748	-56.933720	101.450	0.270	0.010	0.520	101.450	-1.300	0.900																			1580045694.0	11.04	20.45
26/01/2020 13:34:55	26012020	260120	133455	101.600	12.354738	-56.933668	101.610	0.280	-0.090	0.630	101.600	-1.400	1.000																			1580045695.0	11.08	20.52
26/01/2020 13:34:56	26012020	260120	133456	101.710	12.354728	-56.933618	101.660	0.230	-0.300	0.880	101.710	-1.600	1.200																			1580045696.0	10.99	20.35
26/01/2020 13:34:57	26012020	260120	133457	101.710	12.354718	-56.933567	101.660	0.100	-0.440	1.290	101.710	-1.800	1.500																			1580045697.0	11.11	20.58
26/01/2020 13:34:58	26012020	260120	133458	101.680	12.354705	-56.933517	101.660	-0.160	-0.350	1.540	101.680	-1.800	1.900																			1580045698.0	11.01	20.39
26/01/2020 13:34:59	26012020	260120	133459	101.680	12.354693	-56.933467	101.650	-0.370	-0.170	1.460	101.680	-1.600	1.900																			1580045699.0	10.69	19.80
26/01/2020 13:35:00	26012020	260120	133500	101.670	12.354682	-56.933418	101.620	-0.320	-0.170	1.250	101.670	-1.500	1.700	1016.60	26.10	26.20	18.60	18.60	618.00	63.00	63.00	376.00	28.10	348.00	10.60	77.00	5.20	45741	3092.00	27.50	27.40	1580045700.0	10.69	19.80
26/01/2020 13:35:01	26012020	260120	133501	101.620	12.354672	-56.933367	101.570	-0.080	-0.260	0.860	101.620	-1.600	1.400																			1580045701.0	10.95	20.28
26/01/2020 13:35:02	26012020	260120	133502	101.570	12.354663	-56.933315	101.500	0.120	-0.350	0.480	101.570	-1.700	1.000																			1580045702.0	11.01	20.39
26/01/2020 13:35:03	26012020	260120	133503	101.540	12.354655	-56.933263	101.480	0.210	-0.380	0.330	101.540	-1.800	0.800																			1580045703.0	11.01	20.39
26/01/2020 13:35:04	26012020	260120	133504	101.510	12.354647	-56.933213	101.440	0.170	-0.320	0.400	101.510	-1.700	0.800																			1580045704.0	10.92	20.22
26/01/2020 13:35:05	26012020	260120	133505	101.460	12.354637	-56.933163	101.370	0.080	-0.320	0.580	101.460	-1.700	0.900																			1580045705.0	10.88	20.15
26/01/2020 13:35:06	26012020	260120	133506	101.380	12.354625	-56.933112	101.300	-0.010	-0.310	0.780	101.380	-1.700	1.100																			1580045706.0	10.97	20.32
26/01/2020 13:35:07	26012020	260120	133507	101.350	12.354615	-56.933062	101.320	-0.060	-0.240	0.850	101.350	-1.700	1.200																			1580045707.0	10.97	20.32
26/01/2020 13:35:08	26012020	260120	133508	101.390	12.354603	-56.933012	101.350	0.020	-0.270	0.810	101.390	-1.600	1.200																			1580045708.0	10.93	20.24
26/01/2020 13:35:09	26012020	260120	133509	101.370	12.354593	-56.932960	101.290	0.160	-0.270	0.730	101.370	-1.700	1.200																			1580045709.0	11.12	20.59
26/01/2020 13:35:10	26012020	260120	133510	101.340	12.354583	-56.932908	101.300	0.120	-0.040	0.540	101.340	-1.500	1.000																			1580045710.0	11.05	20.46
26/01/2020 13:35:11	26012020	260120	133511	101.390	12.354575	-56.932858	101.370	-0.080	0.140	0.370	101.390	-1.300	0.800																			1580045711.0	10.67	19.76
26/01/2020 13:35:12	26012020	260120	133512	101.450	12.354567	-56.932808	101.410	-0.130	-0.110	0.300	101.460	-1.300	0.700																			1580045712.0	10.73	19.87
26/01/2020 13:35:13	26012020	260120	133513	101.440	12.354557	-56.932755	101.360	0.000	-0.550	0.480	101.440	-1.800	0.800																			1580045713.0	11.27	20.87
26/01/2020 13:35:14	26012020	260120	133514	101.420	12.354545	-56.932703	101.400	-0.020	-0.550	0.810	101.420	-2.000	1.100																			1580045714.0	11.42	21.15
26/01/2020 13:35:15	26012020	260120	133515	101.500	12.354533	-56.932653	101.490	-0.310	-0.080	0.960	101.500	-1.700	1.300																			1580045715.0	10.80	20.00
26/01/2020 13:35:16	26012020	260120	133516	101.570	12.354522	-56.932607	101.520	-0.530	0.170	0.900	101.570	-1.200	1.300																			1580045716.0	10.28	19.04
26/01/2020 13:35:17	26012020	260120	133517	101.540	12.354512	-56.932557	101.430	-0.320	-0.180	0.830	101.540	-1.400	1.300																			1580045717.0	10.66	19.74
26/01/2020 13:35:18	26012020	260120	133518	101.440	12.354498	-56.932505	101.290	0.170	-0.620	0.670	101.410	-1.900	1.200																			1580045718.0	11.36	21.04
26/01/2020 13:35:19	26012020	260120	133519	101.280	12.354490	-56.932452	101.170	0.560	-0.650	0.320	101.280	-2.100	0.900																			1580045719.0	11.38	21.08
26/01/2020 13:35:20	26012020	260120	133520	101.200	12.354483	-56.932400	101.100	0.620	-0.340	0.080	101.190	-1.900	0.500																			1580045720.0	10.93	20.24
26/01/2020 13:35:21	26012020	260120	133521	101.180	12.354477	-56.932350	101.160	0.390	0.020	0.070	101.180	-1.500	0.400																			1580045721.0	10.65	19.72
26/01/2020 13:35:22	26012020	260120	133522	101.290	12.354468	-56.932302	101.320	0.080	0.160	0.270	101.290	-1.200	0.600																			1580045722.0	10.60	19.63
26/01/2020 13:35:23	26012020	260120	133523	101.440	12.354458	-56.932252	101.480	-0.160	-0.010	0.650	101.440	-1.300	0.900																			1580045723.0	10.79	19.98
26/01/2020 13:35:24	26012020	260120	133524	101.550	12.354445	-56.932200	101.550	-0.240	-0.390	1.060	101.560	-1.600	1.300																			1580045724.0	11.08	20.52
26/01/2020 13:35:25	26012020	260120	133525	101.510	12.354433	-56.932148	101.380	-0.210	-0.670	1.400	101.510	-2.000	1.700																			1580045725.0	11.28	20.89
26/01/2020 13:35:26	26012020	260120	133526	101.320	12.354420	-56.932097	101.120	-0.230	-0.610	1.520	101.270	-2.100	1.900																			1580045726.0	11.20	20.74
26/01/2020 13:35:27	26012020	260120	133527	101.050	12.354408	-56.932047	100.990	-0.290	-0.390	1.290	101.050	-1.900	1.800																			1580045727.0	10.88	20.15
26/01/2020 13:35:28	26012020	260120	133528	101.020	12.354400	-56.931997	101.010	-0.240	-0.240	0.950	101.020	-1.700	1.500																			1580045728.0	10.83	20.06
26/01/2020 13:35:29	26012020	260120	133529	101.060	12.354390	-56.931945	101.070	-0.130	-0.050	0.600	101.060	-1.500	1.100																			1580045729.0	10.96	20.30
26/01/2020 13:35:30	26012020	260120	133530	101.130	12.354382	-56.931895	101.200	-0.100	0.180	0.220	101.160	-1.300	0.800																			1580045730.0	10.90	20.19
26/01/2020 13:35:31	26012020	260120	133531	101.340	12.354373	-56.931845	101.410	-0.090	0.290	0.020	101.340	-1.100	0.500																			1580045731.0	10.73	19.87
26/01/2020 13:35:32	26012020	260120	133532	101.530	12.354363	-56.931795	101.600	0.060	0.050	0.090	101.570	-1.200	0.400																			1580045732.0	10.75	19.91
26/01/2020 13:35:33	26012020	260120	133533	101.680	12.354353	-56.931743	101.630	0.390	-0.460	0.310	101.680	-1.600	0.600																			1580045733.0	11.11	20.58
26/01/2020 13:35:34	26012020	260120	133534	101.670	12.354343	-56.931690	101.590	0.640	-0.800	0.460	101.660	-2.100	0.800																			1580045734.0	11.37	21.06
26/01/2020 13:35:35	26012020	260120	133535	101.650	12.354335	-56.931638	101.630	0.510	-0.600	0.560	101.650	-2.100	0.900																			1580045735.0	11.14	20.63
26/01/2020 13:35:36	26012020	260120	133536	101.690	12.354325	-56.931590	101.700	0.050	-0.150	0.640	101.710	-1.700	1.000																			1580045736.0	10.54	19.52
26/01/2020 13:35:37	26012020	260120	133537	101.730	12.354317	-56.931542	101.640	-0.380	-0.010	0.790	101.730	-1.400	1.100																			1580045737.0	10.38	19.22
26/01/2020 13:35:38	26012020	260120	133538	101.570	12.354305	-56.931492	101.390	-0.500	-0.290	0.910	101.570	-1.500	1.300																			1580045738.0	10.85	20.09
26/01/2020 13:35:39	26012020	260120	133539	101.300	12.354292	-56.931440	101.160	-0.330	-0.600	0.950	101.300	-1.900	1.300																			1580045739.0	11.36	21.04
26/01/2020 13:35:40	26012020	260120	133540	101.160	12.354280	-56.931387	101.100	-0.130	-0.580	0.770	101.140	-2.000	1.300																			1580045740.0	11.39	21.09
26/01/2020 13:35:41	26012020	260120	133541	101.160	12.354270	-56.931337	101.120	0.010	-0.290	0.390	101.160	-1.800	0.900																			1580045741.0	11.02	20.41
26/01/2020 13:35:42	26012020	260120	133542	101.180	12.354260	-56.931285	101.150	0.110	0.000	0.210	101.190	-1.500	0.600																			1580045742.0	10.83	20.06
26/01/2020 13:35:43	26012020	260120	133543	101.230	12.354252	-56.931235	101.310	0.150	0.220	0.250	101.260	-1.200	0.600																			1580045743.0	10.84	20.08
26/01/2020 13:35:44	26012020	260120	133544	101.450	12.354242	-56.931185	101.610	0.090	0.290	0.270	101.510	-1.100	0.700																			1580045744.0	10.79	19.98
26/01/2020 13:35:45	26012020	260120	133545	101.810	12.354233	-56.931135	101.880	0.010	0.090	0.370	101.810	-1.200	0.700																			1580045745.0	10.81	20.02
26/01/2020 13:35:46	26012020	260120	133546	101.980	12.354223	-56.931083	102.010	-0.020	-0.290	0.630	102.010	-1.500	0.900																			1580045746.0	11.00	20.37
26/01/2020 13:35:47	26012020	260120	133547	102.020	12.354212	-56.931033	101.920	-0.010	-0.710	0.930	102.020	-1.900	1.200																			1580045747.0	11.13	20.61
26/01/2020 13:35:48	26012020	260120	133548	101.890	12.354200	-56.930982	101.740	0.040	-0.870	1.090	101.860	-2.200	1.400																			1580045748.0	11.20	20.74
26/01/2020 13:35:49	26012020	260120	133549	101.690	12.354188	-56.930930	101.590	0.020	-0.600	1.020	101.690	-2.100	1.500																			1580045749.0	10.97	20.32
26/01/2020 13:35:50	26012020	260120	133550	101.570	12.354178	-56.930882	101.490	-0.070	-0.240	0.810	101.570	-1.700	1.300																			1580045750.0	10.65	19.72
26/01/2020 13:35:51	26012020	260120	133551	101.500	12.354168	-56.930832	101.410	-0.100	-0.140	0.610	101.500	-1.500	1.100																			1580045751.0	10.70	19.82
26/01/2020 13:35:52	26012020	260120	133552	101.440	12.354158	-56.930780	101.350	0.010	-0.230	0.450	101.440	-1.600	0.900																			1580045752.0	11.07	20.50
26/01/2020 13:35:53	26012020	260120	133553	101.400	12.354148	-56.930728	101.360	0.160	-0.240	0.360	101.400	-1.600	0.800																			1580045753.0	11.26	20.85
26/01/2020 13:35:54	26012020	260120	133554	101.460	12.354140	-56.930675	101.500	0.150	-0.100	0.360	101.460	-1.500	0.800																			1580045754.0	11.14	20.63
26/01/2020 13:35:55	26012020	260120	133555	101.640	12.354130	-56.930625	101.710	-0.030	0.120	0.440	101.640	-1.300	0.800																			1580045755.0	10.90	20.19
26/01/2020 13:35:56	26012020	260120	133556	101.870	12.354120	-56.930575	101.940	-0.180	0.190	0.670	101.870	-1.200	1.000																			1580045756.0	10.71	19.83
26/01/2020 13:35:57	26012020	260120	133557	102.030	12.354108	-56.930525	102.040	-0.160	-0.060	0.980	102.030	-1.300	1.300																			1580045757.0	10.85	20.09
26/01/2020 13:35:58	26012020	260120	133558	102.070	12.354095	-56.930475	102.060	-0.020	-0.420	1.030	102.070	-1.700	1.400																			1580045758.0	11.15	20.65
26/01/2020 13:35:59	26012020	260120	133559	102.100	12.354085	-56.930423	102.110	0.110	-0.570	0.830	102.100	-1.900	1.300																			1580045759.0	11.17	20.69
26/01/2020 13:36:00	26012020	260120	133600	102.180	12.354077	-56.930372	102.180	0.160	-0.550	0.600	102.180	-1.900	1.100	1016.60	26.10	26.20	18.80	18.80	603.00	64.00	64.00	376.00	28.10	354.00	10.60	90.00	5.00	45067	3129.00	27.40	27.40	1580045760.0	10.96	20.30
26/01/2020 13:36:01	26012020	260120	133601	102.200	12.354067	-56.930322	102.090	0.120	-0.440	0.520	102.200	-1.900	0.900																			1580045761.0	10.84	20.08
26/01/2020 13:36:02	26012020	260120	133602	102.020	12.354057	-56.930272	101.840	0.060	-0.430	0.570	102.020	-1.800	0.900																			1580045762.0	10.83	20.06
26/01/2020 13:36:03	26012020	260120	133603	101.760	12.354047	-56.930220	101.630	0.060	-0.560	0.670	101.760	-1.900	1.000																			1580045763.0	11.10	20.56
26/01/2020 13:36:04	26012020	260120	133604	101.640	12.354037	-56.930167	101.620	0.010	-0.420	0.750	101.640	-1.900	1.100																			1580045764.0	11.35	21.02
26/01/2020 13:36:05	26012020	260120	133605	101.680	12.354025	-56.930117	101.720	-0.200	0.090	0.830	101.700	-1.500	1.200																			1580045765.0	10.97	20.32
26/01/2020 13:36:06	26012020	260120	133606	101.830	12.354013	-56.930068	101.870	-0.380	0.470	0.860	101.830	-1.000	1.300																			1580045766.0	10.54	19.52
26/01/2020 13:36:07	26012020	260120	133607	101.970	12.354002	-56.930018	102.010	-0.330	0.330	0.840	101.970	-0.900	1.300																			1580045767.0	10.69	19.80
26/01/2020 13:36:08	26012020	260120	133608	102.100	12.353992	-56.929967	102.120	-0.040	-0.200	0.770	102.100	-1.400	1.200																			1580045768.0	11.19	20.72
26/01/2020 13:36:09	26012020	260120	133609	102.200	12.353980	-56.929913	102.210	0.260	-0.580	0.520	102.200	-1.900	1.000																			1580045769.0	11.50	21.30
26/01/2020 13:36:10	26012020	260120	133610	102.300	12.353972	-56.929862	102.290	0.350	-0.500	0.350	102.300	-2.000	0.800																			1580045770.0	11.19	20.72
26/01/2020 13:36:11	26012020	260120	133611	102.380	12.353963	-56.929812	102.370	0.240	-0.230	0.300	102.380	-1.700	0.700																			1580045771.0	10.63	19.69
26/01/2020 13:36:12	26012020	260120	133612	102.440	12.353955	-56.929763	102.360	0.160	-0.290	0.410	102.440	-1.600	0.700																			1580045772.0	10.55	19.54
26/01/2020 13:36:13	26012020	260120	133613	102.310	12.353945	-56.929712	102.130	0.130	-0.630	0.750	102.310	-1.900	1.000																			1580045773.0	11.06	20.48
26/01/2020 13:36:14	26012020	260120	133614	102.100	12.353933	-56.929658	101.890	0.030	-0.720	0.970	102.050	-2.100	1.300																			1580045774.0	11.40	21.11
26/01/2020 13:36:15	26012020	260120	133615	101.850	12.353920	-56.929608	101.790	-0.160	-0.380	0.960	101.850	-1.900	1.400																			1580045775.0	11.12	20.59
26/01/2020 13:36:16	26012020	260120	133616	101.840	12.353910	-56.929558	101.880	-0.330	0.100	0.820	101.840	-1.400	1.300																			1580045776.0	10.70	19.82
26/01/2020 13:36:17	26012020	260120	133617	101.930	12.353898	-56.929510	102.020	-0.340	0.240	0.600	101.960	-1.100	1.100																			1580045777.0	10.65	19.72
26/01/2020 13:36:18	26012020	260120	133618	102.080	12.353888	-56.929458	102.160	-0.180	0.070	0.380	102.110	-1.200	0.900																			1580045778.0	11.03	20.43
26/01/2020 13:36:19	26012020	260120	133619	102.230	12.353877	-56.929407	102.330	0.030	-0.000	0.190	102.270	-1.400	0.700																			1580045779.0	11.19	20.72
26/01/2020 13:36:20	26012020	260120	133620	102.430	12.353867	-56.929357	102.530	0.200	-0.040	0.030	102.470	-1.400	0.500																			1580045780.0	10.93	20.24
26/01/2020 13:36:21	26012020	260120	133621	102.610	12.353858	-56.929305	102.580	0.300	-0.290	0.100	102.610	-1.500	0.400																			1580045781.0	10.85	20.09
26/01/2020 13:36:22	26012020	260120	133622	102.600	12.353850	-56.929253	102.560	0.310	-0.650	0.400	102.600	-1.900	0.700																			1580045782.0	11.08	20.52
26/01/2020 13:36:23	26012020	260120	133623	102.550	12.353838	-56.929202	102.460	0.210	-0.860	0.840	102.550	-2.200	1.100																			1580045783.0	11.21	20.76
26/01/2020 13:36:24	26012020	260120	133624	102.390	12.353827	-56.929150	102.270	0.020	-0.770	1.230	102.390	-2.200	1.500																			1580045784.0	11.15	20.65
26/01/2020 13:36:25	26012020	260120	133625	102.180	12.353813	-56.929100	102.100	-0.210	-0.410	1.310	102.180	-1.900	1.700																			1580045785.0	10.95	20.28
26/01/2020 13:36:26	26012020	260120	133626	102.060	12.353802	-56.929052	102.020	-0.330	-0.040	1.190	102.060	-1.500	1.700																			1580045786.0	10.77	19.95
26/01/2020 13:36:27	26012020	260120	133627	102.050	12.353790	-56.929002	102.090	-0.270	0.160	0.870	102.050	-1.300	1.400																			1580045787.0	10.87	20.13
26/01/2020 13:36:28	26012020	260120	133628	102.230	12.353780	-56.928950	102.320	-0.110	0.170	0.430	102.230	-1.200	1.000																			1580045788.0	11.03	20.43
26/01/2020 13:36:29	26012020	260120	133629	102.480	12.353770	-56.928898	102.550	0.040	0.070	0.140	102.480	-1.300	0.600																			1580045789.0	11.14	20.63
26/01/2020 13:36:30	26012020	260120	133630	102.650	12.353760	-56.928847	102.750	0.090	0.030	0.070	102.690	-1.400	0.500																			1580045790.0	11.11	20.58
26/01/2020 13:36:31	26012020	260120	133631	102.870	12.353750	-56.928797	102.890	0.090	-0.030	0.160	102.870	-1.400	0.500																			1580045791.0	10.88	20.15
26/01/2020 13:36:32	26012020	260120	133632	102.960	12.353738	-56.928747	102.920	0.110	-0.180	0.320	102.960	-1.500	0.700																			1580045792.0	10.82	20.04
26/01/2020 13:36:33	26012020	260120	133633	102.980	12.353728	-56.928695	102.940	0.120	-0.420	0.470	102.980	-1.700	0.800																			1580045793.0	10.89	20.17
26/01/2020 13:36:34	26012020	260120	133634	102.950	12.353718	-56.928645	102.890	0.130	-0.710	0.570	102.950	-2.000	0.900																			1580045794.0	11.01	20.39
26/01/2020 13:36:35	26012020	260120	133635	102.850	12.353707	-56.928593	102.730	0.110	-0.840	0.650	102.850	-2.200	1.000																			1580045795.0	11.15	20.65
26/01/2020 13:36:36	26012020	260120	133636	102.680	12.353695	-56.928543	102.460	0.100	-0.730	0.790	102.630	-2.200	1.100																			1580045796.0	11.04	20.45
26/01/2020 13:36:37	26012020	260120	133637	102.340	12.353683	-56.928492	102.170	0.160	-0.520	0.750	102.340	-2.000	1.200																			1580045797.0	10.99	20.35
26/01/2020 13:36:38	26012020	260120	133638	102.100	12.353673	-56.928440	101.980	0.190	-0.280	0.510	102.100	-1.800	1.000																			1580045798.0	11.06	20.48
26/01/2020 13:36:39	26012020	260120	133639	101.990	12.353663	-56.928388	101.980	0.040	0.010	0.290	101.990	-1.500	0.800																			1580045799.0	11.13	20.61
26/01/2020 13:36:40	26012020	260120	133640	102.070	12.353652	-56.928338	102.130	-0.320	0.400	0.290	102.070	-1.100	0.700																			1580045800.0	10.99	20.35
26/01/2020 13:36:41	26012020	260120	133641	102.250	12.353640	-56.928290	102.340	-0.660	0.660	0.420	102.250	-0.800	0.800																			1580045801.0	10.72	19.85
26/01/2020 13:36:42	26012020	260120	133642	102.440	12.353627	-56.928240	102.470	-0.660	0.400	0.600	102.440	-0.800	0.900																			1580045802.0	10.73	19.87
26/01/2020 13:36:43	26012020	260120	133643	102.520	12.353615	-56.928188	102.550	-0.320	-0.240	0.760	102.520	-1.400	1.100																			1580045803.0	11.20	20.74
26/01/2020 13:36:44	26012020	260120	133644	102.590	12.353602	-56.928137	102.630	0.080	-0.690	0.810	102.590	-1.900	1.200																			1580045804.0	11.42	21.15
26/01/2020 13:36:45	26012020	260120	133645	102.660	12.353590	-56.928085	102.670	0.330	-0.770	0.740	102.670	-2.100	1.200																			1580045805.0	11.09	20.54
26/01/2020 13:36:46	26012020	260120	133646	102.650	12.353580	-56.928035	102.550	0.490	-0.740	0.690	102.650	-2.100	1.100																			1580045806.0	10.77	19.95
26/01/2020 13:36:47	26012020	260120	133647	102.420	12.353570	-56.927985	102.220	0.570	-0.760	0.720	102.420	-2.100	1.100																			1580045807.0	10.91	20.21
26/01/2020 13:36:48	26012020	260120	133648	102.050	12.353560	-56.927933	101.850	0.510	-0.630	0.770	102.050	-2.100	1.200																			1580045808.0	11.12	20.59
26/01/2020 13:36:49	26012020	260120	133649	101.740	12.353550	-56.927882	101.640	0.260	-0.220	0.760	101.740	-1.800	1.200																			1580045809.0	11.02	20.41
26/01/2020 13:36:50	26012020	260120	133650	101.640	12.353542	-56.927832	101.620	-0.070	0.140	0.820	101.640	-1.300	1.200																			1580045810.0	10.80	20.00
26/01/2020 13:36:51	26012020	260120	133651	101.650	12.353530	-56.927782	101.670	-0.360	0.180	0.920	101.650	-1.200	1.300																			1580045811.0	10.96	20.30
26/01/2020 13:36:52	26012020	260120	133652	101.740	12.353517	-56.927730	101.850	-0.520	0.150	0.990	101.740	-1.200	1.400																			1580045812.0	11.21	20.76
26/01/2020 13:36:53	26012020	260120	133653	101.980	12.353503	-56.927678	102.100	-0.490	0.230	1.010	101.980	-1.200	1.400																			1580045813.0	11.10	20.56
26/01/2020 13:36:54	26012020	260120	133654	102.170	12.353492	-56.927630	102.270	-0.300	0.210	0.900	102.210	-1.100	1.400																			1580045814.0	10.83	20.06
26/01/2020 13:36:55	26012020	260120	133655	102.320	12.353480	-56.927580	102.350	0.020	-0.120	0.610	102.340	-1.300	1.100																			1580045815.0	10.86	20.11
26/01/2020 13:36:56	26012020	260120	133656	102.400	12.353472	-56.927527	102.370	0.370	-0.630	0.340	102.400	-1.800	0.800																			1580045816.0	11.17	20.69
26/01/2020 13:36:57	26012020	260120	133657	102.400	12.353462	-56.927475	102.330	0.550	-0.850	0.220	102.400	-2.200	0.700																			1580045817.0	11.30	20.93
26/01/2020 13:36:58	26012020	260120	133658	102.330	12.353455	-56.927423	102.230	0.400	-0.710	0.260	102.330	-2.200	0.600																			1580045818.0	10.97	20.32
26/01/2020 13:36:59	26012020	260120	133659	102.200	12.353445	-56.927373	102.070	0.060	-0.540	0.610	102.200	-2.000	0.800																			1580045819.0	10.68	19.78
26/01/2020 13:37:00	26012020	260120	133700	102.000	12.353433	-56.927323	101.840	-0.210	-0.560	1.140	102.000	-1.900	1.400	1016.60	26.10	26.20	18.70	18.80	596.00	63.00	63.00	375.00	28.10	352.00	11.10	87.00	5.60	44873	3186.00	27.50	27.40	1580045820.0	10.87	20.13
26/01/2020 13:37:01	26012020	260120	133701	101.700	12.353418	-56.927273	101.540	-0.290	-0.560	1.410	101.700	-2.000	1.800																			1580045821.0	11.26	20.85
26/01/2020 13:37:02	26012020	260120	133702	101.430	12.353405	-56.927222	101.320	-0.270	-0.260	1.370	101.430	-1.800	1.800																			1580045822.0	11.30	20.93
26/01/2020 13:37:03	26012020	260120	133703	101.290	12.353392	-56.927170	101.250	-0.220	0.190	1.110	101.290	-1.300	1.600																			1580045823.0	10.98	20.33
26/01/2020 13:37:04	26012020	260120	133704	101.290	12.353383	-56.927120	101.310	-0.150	0.430	0.670	101.290	-1.000	1.200																			1580045824.0	10.83	20.06
26/01/2020 13:37:05	26012020	260120	133705	101.430	12.353373	-56.927070	101.520	-0.040	0.410	0.250	101.430	-0.900	0.800																			1580045825.0	10.97	20.32
26/01/2020 13:37:06	26012020	260120	133706	101.720	12.353367	-56.927018	101.870	0.080	0.180	0.050	101.720	-1.100	0.500																			1580045826.0	11.09	20.54
26/01/2020 13:37:07	26012020	260120	133707	102.030	12.353357	-56.926967	102.110	0.160	-0.140	0.190	102.030	-1.400	0.500																			1580045827.0	11.10	20.56
26/01/2020 13:37:08	26012020	260120	133708	102.170	12.353345	-56.926915	102.130	0.200	-0.420	0.440	102.170	-1.700	0.800																			1580045828.0	11.03	20.43
26/01/2020 13:37:09	26012020	260120	133709	102.140	12.353335	-56.926865	102.020	0.230	-0.630	0.710	102.120	-1.900	1.000																			1580045829.0	10.91	20.21
26/01/2020 13:37:10	26012020	260120	133710	101.950	12.353325	-56.926813	101.810	0.240	-0.870	1.010	101.950	-2.200	1.300																			1580045830.0	10.95	20.28
26/01/2020 13:37:11	26012020	260120	133711	101.730	12.353313	-56.926762	101.620	0.180	-0.940	1.100	101.730	-2.300	1.500																			1580045831.0	11.13	20.61
26/01/2020 13:37:12	26012020	260120	133712	101.580	12.353302	-56.926712	101.470	-0.040	-0.630	1.060	101.580	-2.200	1.500																			1580045832.0	11.07	20.50
26/01/2020 13:37:13	26012020	260120	133713	101.430	12.353292	-56.926662	101.300	-0.330	-0.040	0.940	101.430	-1.600	1.400																			1580045833.0	10.73	19.87
26/01/2020 13:37:14	26012020	260120	133714	101.310	12.353280	-56.926613	101.160	-0.450	0.260	0.680	101.280	-1.200	1.200																			1580045834.0	10.53	19.50
26/01/2020 13:37:15	26012020	260120	133715	101.170	12.353272	-56.926562	101.060	-0.200	-0.070	0.490	101.170	-1.300	0.900																			1580045835.0	10.99	20.35
26/01/2020 13:37:16	26012020	260120	133716	101.100	12.353260	-56.926508	101.030	0.200	-0.520	0.420	101.090	-1.800	0.900																			1580045836.0	11.69	21.65
26/01/2020 13:37:17	26012020	260120	133717	101.120	12.353250	-56.926453	101.170	0.310	-0.320	0.420	101.120	-1.900	0.800																			1580045837.0	11.67	21.61
26/01/2020 13:37:18	26012020	260120	133718	101.260	12.353240	-56.926403	101.360	0.010	0.350	0.590	101.310	-1.300	0.900																			1580045838.0	10.73	19.87
26/01/2020 13:37:19	26012020	260120	133719	101.480	12.353230	-56.926357	101.510	-0.340	0.610	0.770	101.480	-0.800	1.100																			1580045839.0	10.19	18.87
26/01/2020 13:37:20	26012020	260120	133720	101.570	12.353220	-56.926308	101.590	-0.330	0.060	0.860	101.590	-1.000	1.200																			1580045840.0	10.67	19.76
26/01/2020 13:37:21	26012020	260120	133721	101.620	12.353208	-56.926255	101.630	-0.010	-0.740	0.920	101.630	-1.900	1.300																			1580045841.0	11.48	21.26
26/01/2020 13:37:22	26012020	260120	133722	101.660	12.353197	-56.926200	101.630	0.270	-0.940	0.950	101.660	-2.300	1.300																			1580045842.0	11.60	21.48
26/01/2020 13:37:23	26012020	260120	133723	101.660	12.353187	-56.926150	101.590	0.260	-0.460	0.900	101.660	-2.100	1.300																			1580045843.0	10.85	20.09
26/01/2020 13:37:24	26012020	260120	133724	101.590	12.353178	-56.926103	101.430	0.110	-0.110	0.770	101.560	-1.600	1.200																			1580045844.0	10.28	19.04
26/01/2020 13:37:25	26012020	260120	133725	101.330	12.353170	-56.926053	101.150	0.060	-0.300	0.660	101.330	-1.600	1.100																			1580045845.0	10.67	19.76
26/01/2020 13:37:26	26012020	260120	133726	101.110	12.353160	-56.926000	100.940	0.110	-0.610	0.510	101.070	-1.900	1.000																			1580045846.0	11.33	20.98
26/01/2020 13:37:27	26012020	260120	133727	100.940	12.353152	-56.925947	100.930	0.160	-0.570	0.360	100.940	-2.000	0.800																			1580045847.0	11.45	21.21
26/01/2020 13:37:28	26012020	260120	133728	101.000	12.353142	-56.925895	101.100	0.050	-0.110	0.370	101.040	-1.700	0.800																			1580045848.0	11.06	20.48
26/01/2020 13:37:29	26012020	260120	133729	101.230	12.353132	-56.925847	101.270	-0.230	0.350	0.580	101.230	-1.200	0.900																			1580045849.0	10.60	19.63
26/01/2020 13:37:30	26012020	260120	133730	101.340	12.353120	-56.925798	101.370	-0.420	0.330	0.880	101.370	-1.000	1.200																			1580045850.0	10.60	19.63
26/01/2020 13:37:31	26012020	260120	133731	101.420	12.353107	-56.925747	101.400	-0.310	-0.100	1.030	101.420	-1.300	1.400																			1580045851.0	11.09	20.54
26/01/2020 13:37:32	26012020	260120	133732	101.420	12.353097	-56.925695	101.420	-0.070	-0.470	0.910	101.420	-1.700	1.400																			1580045852.0	11.40	21.11
26/01/2020 13:37:33	26012020	260120	133733	101.470	12.353087	-56.925642	101.480	0.060	-0.460	0.720	101.470	-1.900	1.200																			1580045853.0	11.22	20.78
26/01/2020 13:37:34	26012020	260120	133734	101.530	12.353077	-56.925592	101.510	0.000	-0.250	0.670	101.530	-1.700	1.100																			1580045854.0	10.75	19.91
26/01/2020 13:37:35	26012020	260120	133735	101.510	12.353067	-56.925543	101.450	-0.070	-0.280	0.680	101.510	-1.600	1.100																			1580045855.0	10.60	19.63
26/01/2020 13:37:36	26012020	260120	133736	101.450	12.353057	-56.925492	101.300	0.050	-0.560	0.720	101.420	-1.800	1.100																			1580045856.0	11.01	20.39
26/01/2020 13:37:37	26012020	260120	133737	101.230	12.353047	-56.925440	101.090	0.230	-0.570	0.800	101.230	-2.000	1.200																			1580045857.0	11.33	20.98
26/01/2020 13:37:38	26012020	260120	133738	101.040	12.353037	-56.925388	100.960	0.260	-0.300	0.840	101.040	-1.800	1.200																			1580045858.0	11.05	20.46
26/01/2020 13:37:39	26012020	260120	133739	101.010	12.353028	-56.925338	101.030	0.110	-0.040	0.840	101.010	-1.500	1.200																			1580045859.0	10.81	20.02
26/01/2020 13:37:40	26012020	260120	133740	101.110	12.353018	-56.925288	101.220	-0.090	0.080	0.890	101.150	-1.300	1.300																			1580045860.0	10.84	20.08
26/01/2020 13:37:41	26012020	260120	133741	101.340	12.353008	-56.925237	101.430	-0.160	0.090	0.920	101.340	-1.300	1.300																			1580045861.0	10.92	20.22
26/01/2020 13:37:42	26012020	260120	133742	101.500	12.352997	-56.925187	101.540	-0.080	-0.020	1.000	101.530	-1.300	1.400																			1580045862.0	10.99	20.35
26/01/2020 13:37:43	26012020	260120	133743	101.560	12.352987	-56.925135	101.540	0.070	-0.210	1.030	101.560	-1.500	1.400																			1580045863.0	11.05	20.46
26/01/2020 13:37:44	26012020	260120	133744	101.560	12.352977	-56.925083	101.590	0.140	-0.300	0.840	101.570	-1.700	1.300																			1580045864.0	11.08	20.52
26/01/2020 13:37:45	26012020	260120	133745	101.630	12.352968	-56.925033	101.650	0.060	-0.310	0.560	101.650	-1.700	1.100																			1580045865.0	10.87	20.13
26/01/2020 13:37:46	26012020	260120	133746	101.710	12.352962	-56.924982	101.690	-0.010	-0.510	0.400	101.710	-1.800	0.900																			1580045866.0	10.80	20.00
26/01/2020 13:37:47	26012020	260120	133747	101.730	12.352952	-56.924930	101.660	0.000	-0.840	0.550	101.730	-2.100	0.900																			1580045867.0	11.17	20.69
26/01/2020 13:37:48	26012020	260120	133748	101.620	12.352940	-56.924878	101.480	-0.040	-0.840	0.970	101.620	-2.300	1.200																			1580045868.0	11.37	21.06
26/01/2020 13:37:49	26012020	260120	133749	101.420	12.352927	-56.924827	101.300	-0.210	-0.370	1.150	101.420	-2.000	1.500																			1580045869.0	11.08	20.52
26/01/2020 13:37:50	26012020	260120	133750	101.300	12.352917	-56.924778	101.260	-0.410	0.160	0.950	101.300	-1.400	1.500																			1580045870.0	10.64	19.71
26/01/2020 13:37:51	26012020	260120	133751	101.280	12.352907	-56.924728	101.240	-0.370	0.190	0.650	101.280	-1.100	1.200																			1580045871.0	10.67	19.76
26/01/2020 13:37:52	26012020	260120	133752	101.250	12.352897	-56.924677	101.220	-0.040	-0.140	0.400	101.250	-1.400	0.900																			1580045872.0	11.29	20.91
26/01/2020 13:37:53	26012020	260120	133753	101.290	12.352887	-56.924623	101.350	0.280	-0.220	0.220	101.290	-1.600	0.700																			1580045873.0	11.59	21.46
26/01/2020 13:37:54	26012020	260120	133754	101.440	12.352878	-56.924570	101.610	0.310	0.170	0.100	101.490	-1.400	0.500																			1580045874.0	11.12	20.59
26/01/2020 13:37:55	26012020	260120	133755	101.780	12.352870	-56.924522	101.900	0.100	0.550	0.190	101.780	-0.900	0.500																			1580045875.0	10.46	19.37
26/01/2020 13:37:56	26012020	260120	133756	102.040	12.352860	-56.924473	102.130	-0.050	0.400	0.410	102.040	-0.800	0.800																			1580045876.0	10.35	19.17
26/01/2020 13:37:57	26012020	260120	133757	102.220	12.352850	-56.924423	102.270	0.120	-0.370	0.500	102.220	-1.400	0.900																			1580045877.0	10.86	20.11
26/01/2020 13:37:58	26012020	260120	133758	102.270	12.352838	-56.924370	102.210	0.480	-1.190	0.640	102.270	-2.300	1.000																			1580045878.0	11.50	21.30
26/01/2020 13:37:59	26012020	260120	133759	102.170	12.352830	-56.924317	102.070	0.550	-1.320	0.710	102.150	-2.700	1.100																			1580045879.0	11.53	21.35
26/01/2020 13:38:00	26012020	260120	133800	102.030	12.352820	-56.924267	101.940	0.190	-0.810	0.790	102.030	-2.400	1.200	1016.60	26.10	26.10	18.60	18.60	592.00	63.00	63.00	375.00	28.10	354.00	10.70	89.00	5.10	44760	3202.00	27.50	27.40	1580045880.0	10.84	20.08
26/01/2020 13:38:01	26012020	260120	133801	101.900	12.352810	-56.924218	101.810	-0.320	-0.270	0.930	101.900	-1.800	1.300																			1580045881.0	10.38	19.22
26/01/2020 13:38:02	26012020	260120	133802	101.750	12.352798	-56.924170	101.610	-0.590	-0.110	0.940	101.750	-1.500	1.400																			1580045882.0	10.60	19.63
26/01/2020 13:38:03	26012020	260120	133803	101.540	12.352787	-56.924118	101.420	-0.510	-0.320	0.830	101.540	-1.600	1.300																			1580045883.0	11.17	20.69
26/01/2020 13:38:04	26012020	260120	133804	101.370	12.352775	-56.924065	101.310	-0.290	-0.440	0.720	101.370	-1.800	1.200																			1580045884.0	11.63	21.54
26/01/2020 13:38:05	26012020	260120	133805	101.320	12.352763	-56.924012	101.290	-0.170	-0.170	0.580	101.320	-1.700	1.000																			1580045885.0	11.48	21.26
26/01/2020 13:38:06	26012020	260120	133806	101.370	12.352752	-56.923960	101.430	-0.220	0.370	0.360	101.370	-1.200	0.900																			1580045886.0	10.97	20.32
26/01/2020 13:38:07	26012020	260120	133807	101.590	12.352742	-56.923912	101.730	-0.260	0.760	0.190	101.590	-0.700	0.600																			1580045887.0	10.60	19.63
26/01/2020 13:38:08	26012020	260120	133808	101.920	12.352732	-56.923862	102.060	-0.130	0.620	0.140	101.920	-0.600	0.600																			1580045888.0	10.62	19.67
26/01/2020 13:38:09	26012020	260120	133809	102.210	12.352722	-56.923812	102.280	0.220	-0.030	0.110	102.210	-1.100	0.500																			1580045889.0	11.07	20.50
26/01/2020 13:38:10	26012020	260120	133810	102.350	12.352712	-56.923758	102.370	0.560	-0.570	0.220	102.350	-1.800	0.600																			1580045890.0	11.44	21.19
26/01/2020 13:38:11	26012020	260120	133811	102.420	12.352702	-56.923707	102.430	0.680	-0.600	0.400	102.430	-2.000	0.800																			1580045891.0	11.07	20.50
26/01/2020 13:38:12	26012020	260120	133812	102.500	12.352693	-56.923658	102.490	0.600	-0.540	0.450	102.500	-1.900	0.900																			1580045892.0	10.53	19.50
26/01/2020 13:38:13	26012020	260120	133813	102.530	12.352685	-56.923608	102.440	0.390	-0.650	0.580	102.520	-2.000	0.900																			1580045893.0	10.62	19.67
26/01/2020 13:38:14	26012020	260120	133814	102.390	12.352675	-56.923558	102.240	0.110	-0.810	0.910	102.390	-2.100	1.200																			1580045894.0	10.89	20.17
26/01/2020 13:38:15	26012020	260120	133815	102.140	12.352662	-56.923507	101.950	-0.110	-0.890	1.200	102.140	-2.300	1.500																			1580045895.0	11.11	20.58
26/01/2020 13:38:16	26012020	260120	133816	101.820	12.352650	-56.923455	101.650	-0.230	-0.750	1.300	101.820	-2.200	1.700																			1580045896.0	11.18	20.71
26/01/2020 13:38:17	26012020	260120	133817	101.530	12.352637	-56.923403	101.400	-0.340	-0.470	1.210	101.530	-2.000	1.700																			1580045897.0	11.17	20.69
26/01/2020 13:38:18	26012020	260120	133818	101.380	12.352625	-56.923353	101.330	-0.530	-0.000	0.960	101.370	-1.600	1.500																			1580045898.0	11.12	20.59
26/01/2020 13:38:19	26012020	260120	133819	101.370	12.352615	-56.923302	101.390	-0.740	0.500	0.680	101.370	-1.100	1.200																			1580045899.0	10.90	20.19
26/01/2020 13:38:20	26012020	260120	133820	101.460	12.352603	-56.923253	101.510	-0.740	0.650	0.430	101.460	-0.700	0.900																			1580045900.0	10.77	19.95
26/01/2020 13:38:21	26012020	260120	133821	101.620	12.352592	-56.923202	101.710	-0.340	0.240	0.260	101.620	-0.900	0.700																			1580045901.0	11.10	20.56
26/01/2020 13:38:22	26012020	260120	133822	101.790	12.352582	-56.923148	101.910	0.240	-0.230	0.210	101.840	-1.500	0.600																			1580045902.0	11.57	21.43
26/01/2020 13:38:23	26012020	260120	133823	102.030	12.352570	-56.923095	102.070	0.630	-0.220	0.140	102.030	-1.700	0.600																			1580045903.0	11.37	21.06
26/01/2020 13:38:24	26012020	260120	133824	102.160	12.352562	-56.923045	102.240	0.730	0.010	0.130	102.190	-1.400	0.500																			1580045904.0	10.69	19.80
26/01/2020 13:38:25	26012020	260120	133825	102.350	12.352555	-56.922997	102.410	0.690	-0.020	0.300	102.350	-1.400	0.600																			1580045905.0	10.47	19.39
26/01/2020 13:38:26	26012020	260120	133826	102.480	12.352545	-56.922947	102.520	0.540	-0.300	0.450	102.500	-1.600	0.800																			1580045906.0	10.74	19.89
26/01/2020 13:38:27	26012020	260120	133827	102.530	12.352537	-56.922895	102.470	0.300	-0.610	0.640	102.530	-1.900	1.000																			1580045907.0	10.90	20.19
26/01/2020 13:38:28	26012020	260120	133828	102.400	12.352525	-56.922845	102.260	0.100	-0.950	0.970	102.400	-2.200	1.200																			1580045908.0	10.95	20.28
26/01/2020 13:38:29	26012020	260120	133829	102.110	12.352513	-56.922793	101.910	-0.020	-1.190	1.270	102.110	-2.500	1.600																			1580045909.0	11.19	20.72
26/01/2020 13:38:30	26012020	260120	133830	101.740	12.352500	-56.922742	101.590	-0.200	-1.000	1.340	101.740	-2.500	1.800																			1580045910.0	11.31	20.95
26/01/2020 13:38:31	26012020	260120	133831	101.480	12.352490	-56.922692	101.420	-0.530	-0.330	1.190	101.480	-2.000	1.700																			1580045911.0	10.99	20.35
26/01/2020 13:38:32	26012020	260120	133832	101.390	12.352478	-56.922642	101.380	-0.860	0.320	0.970	101.380	-1.300	1.500																			1580045912.0	10.59	19.61
26/01/2020 13:38:33	26012020	260120	133833	101.420	12.352467	-56.922593	101.470	-0.870	0.470	0.660	101.420	-0.900	1.200																			1580045913.0	10.68	19.78
26/01/2020 13:38:34	26012020	260120	133834	101.520	12.352455	-56.922542	101.620	-0.430	0.070	0.390	101.550	-1.100	0.900																			1580045914.0	11.26	20.85
26/01/2020 13:38:35	26012020	260120	133835	101.710	12.352443	-56.922487	101.750	0.210	-0.290	0.280	101.710	-1.600	0.700																			1580045915.0	11.75	21.76
26/01/2020 13:38:36	26012020	260120	133836	101.790	12.352433	-56.922433	101.840	0.660	-0.200	0.210	101.810	-1.700	0.600																			1580045916.0	11.51	21.32
26/01/2020 13:38:37	26012020	260120	133837	101.890	12.352425	-56.922383	101.970	0.760	0.170	0.220	101.910	-1.400	0.600																			1580045917.0	10.88	20.15
26/01/2020 13:38:38	26012020	260120	133838	102.070	12.352417	-56.922333	102.170	0.600	0.350	0.290	102.070	-1.100	0.700																			1580045918.0	10.53	19.50
26/01/2020 13:38:39	26012020	260120	133839	102.300	12.352408	-56.922283	102.410	0.300	0.200	0.370	102.300	-1.100	0.800																			1580045919.0	10.68	19.78
26/01/2020 13:38:40	26012020	260120	133840	102.550	12.352400	-56.922233	102.640	-0.030	-0.080	0.560	102.550	-1.400	0.900																			1580045920.0	10.82	20.04
26/01/2020 13:38:41	26012020	260120	133841	102.720	12.352388	-56.922183	102.710	-0.150	-0.550	0.930	102.720	-1.700	1.200																			1580045921.0	10.79	19.98
26/01/2020 13:38:42	26012020	260120	133842	102.670	12.352375	-56.922133	102.470	0.020	-1.160	1.280	102.620	-2.300	1.600																			1580045922.0	11.14	20.63
26/01/2020 13:38:43	26012020	260120	133843	102.330	12.352362	-56.922080	102.210	0.120	-1.260	1.260	102.330	-2.700	1.700																			1580045923.0	11.41	21.13
26/01/2020 13:38:44	26012020	260120	133844	102.170	12.352352	-56.922030	102.150	-0.060	-0.660	0.990	102.170	-2.300	1.500																			1580045924.0	10.90	20.19
26/01/2020 13:38:45	26012020	260120	133845	102.170	12.352342	-56.921982	102.140	-0.340	-0.080	0.740	102.170	-1.600	1.200																			1580045925.0	10.33	19.13
26/01/2020 13:38:46	26012020	260120	133846	102.070	12.352332	-56.921933	101.920	-0.400	-0.140	0.650	102.070	-1.400	1.100																			1580045926.0	10.65	19.72
26/01/2020 13:38:47	26012020	260120	133847	101.810	12.352320	-56.921880	101.700	-0.230	-0.450	0.720	101.810	-1.800	1.100																			1580045927.0	11.52	21.34
26/01/2020 13:38:48	26012020	260120	133848	101.680	12.352307	-56.921827	101.700	-0.070	-0.290	0.670	101.680	-1.800	1.100																			1580045928.0	11.69	21.65
26/01/2020 13:38:49	26012020	260120	133849	101.760	12.352295	-56.921775	101.870	0.000	0.270	0.420	101.790	-1.300	0.900																			1580045929.0	11.01	20.39
26/01/2020 13:38:50	26012020	260120	133850	102.000	12.352287	-56.921727	102.060	0.120	0.530	0.170	102.000	-0.900	0.600																			1580045930.0	10.58	19.59
26/01/2020 13:38:51	26012020	260120	133851	102.120	12.352277	-56.921675	102.170	0.350	0.290	0.130	102.150	-1.000	0.500																			1580045931.0	10.91	20.21
26/01/2020 13:38:52	26012020	260120	133852	102.270	12.352268	-56.921623	102.370	0.480	0.010	0.180	102.270	-1.300	0.600																			1580045932.0	11.28	20.89
26/01/2020 13:38:53	26012020	260120	133853	102.530	12.352258	-56.921572	102.670	0.320	-0.110	0.360	102.530	-1.500	0.700																			1580045933.0	11.05	20.46
26/01/2020 13:38:54	26012020	260120	133854	102.780	12.352248	-56.921522	102.820	-0.050	-0.200	0.730	102.780	-1.600	1.000																			1580045934.0	10.70	19.82
26/01/2020 13:38:55	26012020	260120	133855	102.800	12.352237	-56.921473	102.710	-0.340	-0.410	1.210	102.800	-1.700	1.400																			1580045935.0	10.63	19.69
26/01/2020 13:38:56	26012020	260120	133856	102.630	12.352222	-56.921423	102.400	-0.330	-0.800	1.530	102.570	-2.000	1.900																			1580045936.0	10.85	20.09
26/01/2020 13:38:57	26012020	260120	133857	102.220	12.352208	-56.921373	102.030	-0.070	-1.080	1.500	102.220	-2.400	1.900																			1580045937.0	11.17	20.69
26/01/2020 13:38:58	26012020	260120	133858	101.830	12.352197	-56.921322	101.630	0.170	-1.020	1.240	101.830	-2.500	1.800																			1580045938.0	11.20	20.74
26/01/2020 13:38:59	26012020	260120	133859	101.460	12.352187	-56.921270	101.330	0.220	-0.620	0.810	101.460	-2.200	1.400																			1580045939.0	11.02	20.41
26/01/2020 13:39:00	26012020	260120	133900	101.260	12.352178	-56.921220	101.190	0.110	-0.080	0.550	101.260	-1.700	1.000	1016.60	26.10	26.10	18.80	18.90	574.00	64.00	64.00	376.00	28.10	355.00	10.40	91.00	4.80	43990	3173.00	27.50	27.40	1580045940.0	10.83	20.06
26/01/2020 13:39:01	26012020	260120	133901	101.190	12.352170	-56.921170	101.200	-0.040	0.230	0.500	101.190	-1.200	0.900																			1580045941.0	10.79	19.98
26/01/2020 13:39:02	26012020	260120	133902	101.250	12.352158	-56.921118	101.390	-0.110	0.270	0.430	101.280	-1.100	0.900																			1580045942.0	11.06	20.48
26/01/2020 13:39:03	26012020	260120	133903	101.490	12.352148	-56.921067	101.650	-0.100	0.310	0.600	101.540	-1.100	0.900																			1580045943.0	11.17	20.69
26/01/2020 13:39:04	26012020	260120	133904	101.710	12.352137	-56.921017	101.740	-0.010	0.210	0.880	101.730	-1.100	1.200																			1580045944.0	10.97	20.32
26/01/2020 13:39:05	26012020	260120	133905	101.740	12.352127	-56.920965	101.740	0.100	-0.130	0.960	101.740	-1.400	1.400																			1580045945.0	11.05	20.46
26/01/2020 13:39:06	26012020	260120	133906	101.790	12.352117	-56.920913	101.890	0.050	-0.350	0.830	101.790	-1.700	1.300																			1580045946.0	11.20	20.74
26/01/2020 13:39:07	26012020	260120	133907	102.010	12.352107	-56.920862	102.140	-0.140	-0.330	0.720	102.010	-1.800	1.200																			1580045947.0	10.91	20.21
26/01/2020 13:39:08	26012020	260120	133908	102.210	12.352097	-56.920813	102.190	-0.220	-0.370	0.770	102.210	-1.700	1.100																			1580045948.0	10.61	19.65
26/01/2020 13:39:09	26012020	260120	133909	102.090	12.352085	-56.920763	101.910	-0.030	-0.640	0.910	102.090	-1.900	1.300																			1580045949.0	10.87	20.13
26/01/2020 13:39:10	26012020	260120	133910	101.840	12.352073	-56.920712	101.650	0.240	-0.730	0.880	101.780	-2.100	1.300																			1580045950.0	11.23	20.80
26/01/2020 13:39:11	26012020	260120	133911	101.630	12.352063	-56.920660	101.610	0.400	-0.450	0.550	101.630	-2.000	1.100																			1580045951.0	11.05	20.46
26/01/2020 13:39:12	26012020	260120	133912	101.660	12.352055	-56.920610	101.690	0.320	-0.040	0.170	101.680	-1.600	0.700																			1580045952.0	10.75	19.91
26/01/2020 13:39:13	26012020	260120	133913	101.780	12.352048	-56.920560	101.750	0.060	0.090	0.050	101.780	-1.300	0.500																			1580045953.0	10.66	19.74
26/01/2020 13:39:14	26012020	260120	133914	101.770	12.352038	-56.920508	101.700	-0.110	-0.210	0.310	101.770	-1.500	0.600																			1580045954.0	10.96	20.30
26/01/2020 13:39:15	26012020	260120	133915	101.710	12.352027	-56.920457	101.700	-0.110	-0.470	0.630	101.710	-1.800	0.900																			1580045955.0	11.43	21.17
26/01/2020 13:39:16	26012020	260120	133916	101.710	12.352015	-56.920405	101.670	-0.230	-0.310	0.920	101.710	-1.800	1.200																			1580045956.0	11.27	20.87
26/01/2020 13:39:17	26012020	260120	133917	101.570	12.352002	-56.920355	101.450	-0.460	-0.070	1.100	101.570	-1.500	1.500																			1580045957.0	10.79	19.98
26/01/2020 13:39:18	26012020	260120	133918	101.290	12.351990	-56.920305	101.120	-0.510	-0.110	1.100	101.290	-1.400	1.500																			1580045958.0	10.73	19.87
26/01/2020 13:39:19	26012020	260120	133919	100.990	12.351978	-56.920255	100.930	-0.240	-0.420	0.910	100.990	-1.700	1.400																			1580045959.0	11.14	20.63
26/01/2020 13:39:20	26012020	260120	133920	100.970	12.351968	-56.920202	101.060	0.100	-0.520	0.590	100.970	-1.900	1.100																			1580045960.0	11.47	21.24
26/01/2020 13:39:21	26012020	260120	133921	101.180	12.351960	-56.920150	101.300	0.160	-0.060	0.310	101.180	-1.700	0.800																			1580045961.0	11.13	20.61
26/01/2020 13:39:22	26012020	260120	133922	101.340	12.351950	-56.920102	101.400	-0.020	0.530	0.310	101.370	-1.000	0.700																			1580045962.0	10.35	19.17
26/01/2020 13:39:23	26012020	260120	133923	101.400	12.351940	-56.920053	101.410	-0.010	0.400	0.440	101.400	-0.800	0.800																			1580045963.0	10.21	18.91
26/01/2020 13:39:24	26012020	260120	133924	101.440	12.351930	-56.920003	101.480	0.420	-0.460	0.410	101.440	-1.500	0.900																			1580045964.0	11.04	20.45
26/01/2020 13:39:25	26012020	260120	133925	101.500	12.351922	-56.919948	101.490	0.840	-1.060	0.450	101.500	-2.300	0.800																			1580045965.0	11.80	21.85
26/01/2020 13:39:26	26012020	260120	133926	101.480	12.351913	-56.919895	101.410	0.740	-0.810	0.650	101.460	-2.400	1.000																			1580045966.0	11.37	21.06
26/01/2020 13:39:27	26012020	260120	133927	101.380	12.351905	-56.919847	101.330	0.160	-0.150	0.870	101.370	-1.800	1.200																			1580045967.0	10.45	19.35
26/01/2020 13:39:28	26012020	260120	133928	101.300	12.351895	-56.919798	101.290	-0.430	0.110	1.040	101.300	-1.300	1.400																			1580045968.0	10.20	18.89
26/01/2020 13:39:29	26012020	260120	133929	101.300	12.351885	-56.919748	101.350	-0.720	-0.170	1.090	101.300	-1.400	1.500																			1580045969.0	10.81	20.02
26/01/2020 13:39:30	26012020	260120	133930	101.390	12.351873	-56.919697	101.480	-0.740	-0.400	1.000	101.390	-1.700	1.500																			1580045970.0	11.34	21.00
26/01/2020 13:39:31	26012020	260120	133931	101.490	12.351860	-56.919645	101.490	-0.590	-0.410	0.930	101.490	-1.800	1.400																			1580045971.0	11.16	20.67
26/01/2020 13:39:32	26012020	260120	133932	101.410	12.351848	-56.919595	101.310	-0.290	-0.470	0.840	101.410	-1.800	1.300																			1580045972.0	11.02	20.41
26/01/2020 13:39:33	26012020	260120	133933	101.240	12.351838	-56.919542	101.190	0.040	-0.460	0.480	101.240	-1.900	1.100																			1580045973.0	11.21	20.76
26/01/2020 13:39:34	26012020	260120	133934	101.210	12.351830	-56.919490	101.270	0.220	-0.090	-0.050	101.220	-1.700	0.600																			1580045974.0	11.11	20.58
26/01/2020 13:39:35	26012020	260120	133935	101.400	12.351823	-56.919440	101.520	0.190	0.400	-0.340	101.400	-1.200	0.100																			1580045975.0	10.64	19.71
26/01/2020 13:39:36	26012020	260120	133936	101.670	12.351815	-56.919392	101.770	0.140	0.390	-0.200	101.670	-0.900	0.100																			1580045976.0	10.50	19.45
26/01/2020 13:39:37	26012020	260120	133937	101.860	12.351805	-56.919340	101.890	0.180	-0.040	0.070	101.860	-1.300	0.400																			1580045977.0	10.97	20.32
26/01/2020 13:39:38	26012020	260120	133938	101.940	12.351795	-56.919288	101.920	0.290	-0.460	0.360	101.940	-1.700	0.700																			1580045978.0	11.25	20.84
26/01/2020 13:39:39	26012020	260120	133939	101.930	12.351783	-56.919237	101.860	0.430	-0.670	0.620	101.920	-2.000	0.900																			1580045979.0	11.18	20.71
26/01/2020 13:39:40	26012020	260120	133940	101.810	12.351773	-56.919187	101.730	0.440	-0.640	0.700	101.810	-2.100	1.100																			1580045980.0	10.99	20.35
26/01/2020 13:39:41	26012020	260120	133941	101.650	12.351765	-56.919135	101.580	0.220	-0.440	0.670	101.650	-1.900	1.100																			1580045981.0	10.85	20.09
26/01/2020 13:39:42	26012020	260120	133942	101.580	12.351755	-56.919085	101.610	-0.160	-0.140	0.580	101.580	-1.700	1.000																			1580045982.0	10.74	19.89
26/01/2020 13:39:43	26012020	260120	133943	101.680	12.351745	-56.919037	101.760	-0.530	0.080	0.520	101.680	-1.400	0.900																			1580045983.0	10.68	19.78
26/01/2020 13:39:44	26012020	260120	133944	101.820	12.351735	-56.918987	101.860	-0.730	0.060	0.580	101.820	-1.300	0.900																			1580045984.0	10.73	19.87
26/01/2020 13:39:45	26012020	260120	133945	101.840	12.351722	-56.918937	101.810	-0.610	-0.290	0.770	101.840	-1.500	1.100																			1580045985.0	10.99	20.35
26/01/2020 13:39:46	26012020	260120	133946	101.730	12.351708	-56.918885	101.680	-0.210	-0.690	0.890	101.730	-2.000	1.300																			1580045986.0	11.35	21.02
26/01/2020 13:39:47	26012020	260120	133947	101.610	12.351697	-56.918832	101.560	0.220	-0.820	0.790	101.610	-2.200	1.300																			1580045987.0	11.43	21.17
26/01/2020 13:39:48	26012020	260120	133948	101.520	12.351687	-56.918780	101.460	0.410	-0.550	0.560	101.520	-2.100	1.100																			1580045988.0	11.17	20.69
26/01/2020 13:39:49	26012020	260120	133949	101.440	12.351678	-56.918730	101.410	0.360	-0.010	0.280	101.440	-1.600	0.800																			1580045989.0	10.82	20.04
26/01/2020 13:39:50	26012020	260120	133950	101.440	12.351672	-56.918680	101.440	0.210	0.350	0.080	101.440	-1.100	0.500																			1580045990.0	10.58	19.59
26/01/2020 13:39:51	26012020	260120	133951	101.480	12.351663	-56.918630	101.550	0.100	0.240	0.160	101.500	-1.100	0.500																			1580045991.0	10.81	20.02
26/01/2020 13:39:52	26012020	260120	133952	101.600	12.351653	-56.918577	101.660	0.030	-0.070	0.490	101.600	-1.400	0.800																			1580045992.0	11.21	20.76
26/01/2020 13:39:53	26012020	260120	133953	101.670	12.351642	-56.918525	101.820	-0.060	-0.280	0.750	101.700	-1.600	1.100																			1580045993.0	11.26	20.85
26/01/2020 13:39:54	26012020	260120	133954	101.890	12.351630	-56.918475	102.000	-0.150	-0.350	0.920	101.890	-1.700	1.300																			1580045994.0	11.06	20.48
26/01/2020 13:39:55	26012020	260120	133955	102.000	12.351618	-56.918425	102.020	-0.170	-0.350	0.950	102.000	-1.700	1.400																			1580045995.0	10.89	20.17
26/01/2020 13:39:56	26012020	260120	133956	101.950	12.351608	-56.918373	101.950	-0.090	-0.330	0.750	101.950	-1.700	1.200																			1580045996.0	10.88	20.15
26/01/2020 13:39:57	26012020	260120	133957	101.930	12.351598	-56.918323	101.980	0.020	-0.320	0.570	101.930	-1.700	1.000																			1580045997.0	10.90	20.19
26/01/2020 13:39:58	26012020	260120	133958	102.030	12.351588	-56.918273	102.100	0.080	-0.300	0.360	102.030	-1.700	0.900																			1580045998.0	10.93	20.24
26/01/2020 13:39:59	26012020	260120	133959	102.150	12.351580	-56.918222	102.200	0.100	-0.330	0.140	102.150	-1.700	0.600																			1580045999.0	10.95	20.28
26/01/2020 13:40:00	26012020	260120	134000	102.230	12.351570	-56.918170	102.250	0.100	-0.370	0.100	102.230	-1.800	0.500	1016.60	26.10	26.10	18.90	19.00	565.00	64.00	64.00	375.00	28.10	358.00	10.00	96.00	4.40	43709	3318.00	27.50	27.50	1580046000.0	11.03	20.43
26/01/2020 13:40:01	26012020	260120	134001	102.270	12.351560	-56.918118	102.260	0.080	-0.330	0.220	102.270	-1.800	0.600																			1580046001.0	11.05	20.46
26/01/2020 13:40:02	26012020	260120	134002	102.260	12.351548	-56.918068	102.240	0.030	-0.210	0.460	102.260	-1.700	0.800																			1580046002.0	10.97	20.32
26/01/2020 13:40:03	26012020	260120	134003	102.250	12.351538	-56.918018	102.280	-0.050	-0.120	0.640	102.250	-1.500	1.000																			1580046003.0	10.89	20.17
26/01/2020 13:40:04	26012020	260120	134004	102.290	12.351528	-56.917968	102.280	-0.120	-0.190	0.650	102.290	-1.500	1.100																			1580046004.0	10.94	20.26
26/01/2020 13:40:05	26012020	260120	134005	102.220	12.351518	-56.917915	102.170	-0.140	-0.400	0.610	102.220	-1.700	1.000																			1580046005.0	11.17	20.69
26/01/2020 13:40:06	26012020	260120	134006	102.120	12.351507	-56.917863	102.070	-0.140	-0.510	0.600	102.100	-1.900	1.000																			1580046006.0	11.34	21.00
26/01/2020 13:40:07	26012020	260120	134007	102.050	12.351495	-56.917812	102.080	-0.120	-0.360	0.620	102.050	-1.800	1.000																			1580046007.0	11.19	20.72
26/01/2020 13:40:08	26012020	260120	134008	102.100	12.351483	-56.917762	102.130	-0.040	-0.110	0.530	102.100	-1.600	1.000																			1580046008.0	10.93	20.24
26/01/2020 13:40:09	26012020	260120	134009	102.150	12.351473	-56.917712	102.170	0.080	0.020	0.370	102.150	-1.400	0.800																			1580046009.0	10.92	20.22
26/01/2020 13:40:10	26012020	260120	134010	102.220	12.351463	-56.917660	102.270	0.120	0.110	0.230	102.220	-1.300	0.700																			1580046010.0	11.04	20.45
26/01/2020 13:40:11	26012020	260120	134011	102.370	12.351453	-56.917608	102.450	0.050	0.190	0.180	102.370	-1.200	0.600																			1580046011.0	10.93	20.24
26/01/2020 13:40:12	26012020	260120	134012	102.520	12.351443	-56.917558	102.560	0.020	0.080	0.260	102.520	-1.200	0.600																			1580046012.0	10.78	19.96
26/01/2020 13:40:13	26012020	260120	134013	102.590	12.351432	-56.917508	102.580	0.120	-0.290	0.390	102.590	-1.500	0.700																			1580046013.0	10.94	20.26
26/01/2020 13:40:14	26012020	260120	134014	102.570	12.351422	-56.917457	102.540	0.220	-0.680	0.620	102.570	-1.900	0.900																			1580046014.0	11.20	20.74
26/01/2020 13:40:15	26012020	260120	134015	102.500	12.351410	-56.917405	102.470	0.200	-0.830	0.930	102.500	-2.200	1.200																			1580046015.0	11.21	20.76
26/01/2020 13:40:16	26012020	260120	134016	102.410	12.351398	-56.917355	102.360	0.020	-0.660	1.030	102.410	-2.100	1.400																			1580046016.0	11.00	20.37
26/01/2020 13:40:17	26012020	260120	134017	102.310	12.351387	-56.917305	102.200	-0.200	-0.410	1.020	102.280	-1.900	1.400																			1580046017.0	10.79	19.98
26/01/2020 13:40:18	26012020	260120	134018	102.090	12.351377	-56.917255	101.990	-0.300	-0.320	1.030	102.090	-1.700	1.400																			1580046018.0	10.86	20.11
26/01/2020 13:40:19	26012020	260120	134019	101.900	12.351365	-56.917203	101.840	-0.200	-0.360	0.890	101.900	-1.700	1.400																			1580046019.0	11.18	20.71
26/01/2020 13:40:20	26012020	260120	134020	101.810	12.351353	-56.917150	101.820	-0.020	-0.330	0.610	101.810	-1.800	1.100																			1580046020.0	11.39	21.09
26/01/2020 13:40:21	26012020	260120	134021	101.840	12.351343	-56.917098	101.880	0.050	-0.070	0.330	101.840	-1.600	0.800																			1580046021.0	11.28	20.89
26/01/2020 13:40:22	26012020	260120	134022	101.930	12.351333	-56.917047	102.010	-0.000	0.300	0.140	101.930	-1.200	0.600																			1580046022.0	10.95	20.28
26/01/2020 13:40:23	26012020	260120	134023	102.100	12.351325	-56.916997	102.210	-0.020	0.440	0.080	102.100	-1.000	0.500																			1580046023.0	10.77	19.95
26/01/2020 13:40:24	26012020	260120	134024	102.290	12.351315	-56.916947	102.430	0.020	0.260	0.160	102.340	-1.000	0.500																			1580046024.0	10.95	20.28
26/01/2020 13:40:25	26012020	260120	134025	102.510	12.351303	-56.916895	102.530	0.070	-0.080	0.460	102.510	-1.300	0.700																			1580046025.0	11.11	20.58
26/01/2020 13:40:26	26012020	260120	134026	102.540	12.351292	-56.916843	102.530	0.100	-0.470	0.780	102.540	-1.700	1.100																			1580046026.0	11.13	20.61
26/01/2020 13:40:27	26012020	260120	134027	102.500	12.351280	-56.916792	102.440	0.080	-0.700	0.940	102.500	-2.000	1.300																			1580046027.0	11.13	20.61
26/01/2020 13:40:28	26012020	260120	134028	102.410	12.351270	-56.916742	102.290	-0.030	-0.670	0.990	102.380	-2.100	1.400																			1580046028.0	10.97	20.32
26/01/2020 13:40:29	26012020	260120	134029	102.200	12.351258	-56.916692	102.070	-0.140	-0.580	1.010	102.200	-2.000	1.400																			1580046029.0	10.78	19.96
26/01/2020 13:40:30	26012020	260120	134030	101.960	12.351247	-56.916642	101.820	-0.090	-0.630	0.950	101.960	-2.000	1.400																			1580046030.0	10.90	20.19
26/01/2020 13:40:31	26012020	260120	134031	101.680	12.351237	-56.916590	101.560	0.100	-0.720	0.790	101.680	-2.100	1.300																			1580046031.0	11.26	20.85
26/01/2020 13:40:32	26012020	260120	134032	101.530	12.351227	-56.916537	101.540	0.150	-0.480	0.550	101.530	-2.000	1.000																			1580046032.0	11.45	21.21
26/01/2020 13:40:33	26012020	260120	134033	101.640	12.351217	-56.916485	101.730	-0.110	0.180	0.440	101.640	-1.500	0.900																			1580046033.0	11.02	20.41
26/01/2020 13:40:34	26012020	260120	134034	101.850	12.351205	-56.916437	101.940	-0.390	0.670	0.500	101.850	-0.800	0.900																			1580046034.0	10.47	19.39
26/01/2020 13:40:35	26012020	260120	134035	102.040	12.351193	-56.916387	102.110	-0.320	0.430	0.580	102.040	-0.800	1.000																			1580046035.0	10.69	19.80
26/01/2020 13:40:36	26012020	260120	134036	102.170	12.351183	-56.916335	102.270	0.090	-0.260	0.670	102.200	-1.400	1.000																			1580046036.0	11.41	21.13
26/01/2020 13:40:37	26012020	260120	134037	102.330	12.351172	-56.916280	102.380	0.470	-0.740	0.770	102.330	-2.000	1.200																			1580046037.0	11.74	21.74
26/01/2020 13:40:38	26012020	260120	134038	102.400	12.351162	-56.916227	102.420	0.530	-0.630	0.780	102.400	-2.100	1.200																			1580046038.0	11.39	21.09
26/01/2020 13:40:39	26012020	260120	134039	102.430	12.351152	-56.916177	102.450	0.220	-0.140	0.750	102.430	-1.700	1.200																			1580046039.0	10.77	19.95
26/01/2020 13:40:40	26012020	260120	134040	102.460	12.351143	-56.916128	102.490	-0.220	0.230	0.710	102.460	-1.300	1.100																			1580046040.0	10.39	19.24
26/01/2020 13:40:41	26012020	260120	134041	102.490	12.351132	-56.916080	102.490	-0.480	0.170	0.580	102.490	-1.100	1.000																			1580046041.0	10.58	19.59
26/01/2020 13:40:42	26012020	260120	134042	102.480	12.351122	-56.916030	102.450	-0.380	-0.240	0.420	102.480	-1.400	0.900																			1580046042.0	11.35	21.02
26/01/2020 13:40:43	26012020	260120	134043	102.410	12.351110	-56.915977	102.290	-0.040	-0.710	0.320	102.380	-1.900	0.800																			1580046043.0	11.35	21.02
26/01/2020 13:40:44	26012020	260120	134044	102.220	12.351098	-56.915925	102.080	0.250	-0.890	0.170	102.180	-2.300	0.600																			1580046044.0	11.45	21.21
26/01/2020 13:40:45	26012020	260120	134045	102.030	12.351088	-56.915873	101.990	0.270	-0.540	0.000	102.030	-2.100	0.500																			1580046045.0	11.14	20.63
26/01/2020 13:40:46	26012020	260120	134046	102.010	12.351078	-56.915823	102.000	0.120	-0.090	-0.020	102.010	-1.600	0.400																			1580046046.0	10.61	19.65
26/01/2020 13:40:47	26012020	260120	134047	102.000	12.351068	-56.915773	101.970	0.040	-0.100	0.100	102.000	-1.400	0.400																			1580046047.0	10.69	19.80
26/01/2020 13:40:48	26012020	260120	134048	101.950	12.351058	-56.915722	101.940	0.020	-0.370	0.370	101.950	-1.700	0.600																			1580046048.0	11.29	20.91
26/01/2020 13:40:49	26012020	260120	134049	101.930	12.351045	-56.915668	101.940	-0.070	-0.410	0.810	101.930	-1.800	1.000																			1580046049.0	11.48	21.26
26/01/2020 13:40:50	26012020	260120	134050	101.890	12.351032	-56.915618	101.890	-0.220	-0.150	1.070	101.890	-1.600	1.400																			1580046050.0	11.16	20.67
26/01/2020 13:40:51	26012020	260120	134051	101.840	12.351020	-56.915568	101.820	-0.290	0.060	1.040	101.840	-1.400	1.500																			1580046051.0	10.86	20.11
26/01/2020 13:40:52	26012020	260120	134052	101.770	12.351008	-56.915517	101.800	-0.260	0.060	0.950	101.770	-1.300	1.400																			1580046052.0	10.98	20.33
26/01/2020 13:40:53	26012020	260120	134053	101.810	12.350998	-56.915467	101.900	-0.200	0.010	0.820	101.810	-1.400	1.300																			1580046053.0	11.14	20.63
26/01/2020 13:40:54	26012020	260120	134054	101.950	12.350987	-56.915415	102.040	-0.090	-0.040	0.640	101.950	-1.400	1.100																			1580046054.0	11.04	20.45
26/01/2020 13:40:55	26012020	260120	134055	102.070	12.350977	-56.915363	102.120	0.110	-0.130	0.430	102.070	-1.500	0.900																			1580046055.0	10.98	20.33
26/01/2020 13:40:56	26012020	260120	134056	102.130	12.350967	-56.915313	102.130	0.330	-0.240	0.280	102.130	-1.600	0.700																			1580046056.0	11.00	20.37
26/01/2020 13:40:57	26012020	260120	134057	102.110	12.350957	-56.915262	102.090	0.430	-0.280	0.330	102.110	-1.700	0.700																			1580046057.0	10.97	20.32
26/01/2020 13:40:58	26012020	260120	134058	102.050	12.350948	-56.915212	102.030	0.380	-0.370	0.560	102.050	-1.700	0.900																			1580046058.0	10.84	20.08
26/01/2020 13:40:59	26012020	260120	134059	101.950	12.350938	-56.915160	101.880	0.300	-0.680	0.890	101.950	-1.900	1.200																			1580046059.0	10.95	20.28
26/01/2020 13:41:00	26012020	260120	134100	101.780	12.350927	-56.915108	101.610	0.250	-0.990	1.190	101.730	-2.300	1.500	1016.60	26.10	26.10	18.90	19.00	572.00	64.00	64.00	376.00	28.10	356.00	10.60	93.00	5.00	44025	3254.00	27.50	27.40	1580046060.0	11.32	20.96
26/01/2020 13:41:01	26012020	260120	134101	101.420	12.350913	-56.915057	101.320	0.160	-0.880	1.360	101.420	-2.400	1.700																			1580046061.0	11.45	21.21
26/01/2020 13:41:02	26012020	260120	134102	101.200	12.350903	-56.915005	101.210	-0.090	-0.250	1.310	101.200	-1.900	1.800																			1580046062.0	11.06	20.48
26/01/2020 13:41:03	26012020	260120	134103	101.200	12.350892	-56.914957	101.290	-0.460	0.360	1.060	101.200	-1.200	1.600																			1580046063.0	10.57	19.58
26/01/2020 13:41:04	26012020	260120	134104	101.340	12.350882	-56.914907	101.490	-0.700	0.420	0.770	101.340	-0.900	1.300																			1580046064.0	10.67	19.76
26/01/2020 13:41:05	26012020	260120	134105	101.570	12.350872	-56.914855	101.710	-0.700	0.110	0.630	101.570	-1.100	1.100																			1580046065.0	11.21	20.76
26/01/2020 13:41:06	26012020	260120	134106	101.720	12.350858	-56.914802	101.840	-0.440	-0.200	0.620	101.750	-1.500	1.000																			1580046066.0	11.42	21.15
26/01/2020 13:41:07	26012020	260120	134107	101.830	12.350847	-56.914750	101.910	-0.010	-0.370	0.610	101.840	-1.700	1.000																			1580046067.0	11.32	20.96
26/01/2020 13:41:08	26012020	260120	134108	101.890	12.350837	-56.914698	101.960	0.390	-0.390	0.580	101.900	-1.800	1.000																			1580046068.0	11.15	20.65
26/01/2020 13:41:09	26012020	260120	134109	101.950	12.350827	-56.914647	101.990	0.580	-0.340	0.470	101.950	-1.800	0.900																			1580046069.0	11.03	20.43
26/01/2020 13:41:10	26012020	260120	134110	101.960	12.350818	-56.914597	101.970	0.550	-0.200	0.280	101.960	-1.700	0.800																			1580046070.0	10.95	20.28
26/01/2020 13:41:11	26012020	260120	134111	101.970	12.350812	-56.914545	102.000	0.360	-0.030	0.090	101.970	-1.500	0.600																			1580046071.0	10.85	20.09
26/01/2020 13:41:12	26012020	260120	134112	102.000	12.350803	-56.914495	102.000	0.170	-0.090	0.150	102.000	-1.400	0.500																			1580046072.0	10.79	19.98
26/01/2020 13:41:13	26012020	260120	134113	101.970	12.350795	-56.914443	101.920	0.100	-0.440	0.350	101.970	-1.700	0.700																			1580046073.0	11.06	20.48
26/01/2020 13:41:14	26012020	260120	134114	101.880	12.350783	-56.914390	101.800	0.050	-0.760	0.600	101.850	-2.100	0.900																			1580046074.0	11.42	21.15
26/01/2020 13:41:15	26012020	260120	134115	101.720	12.350770	-56.914338	101.660	-0.110	-0.660	0.870	101.720	-2.100	1.200																			1580046075.0	11.38	21.08
26/01/2020 13:41:16	26012020	260120	134116	101.570	12.350757	-56.914288	101.520	-0.340	-0.220	0.980	101.570	-1.800	1.400																			1580046076.0	10.94	20.26
26/01/2020 13:41:17	26012020	260120	134117	101.460	12.350747	-56.914240	101.480	-0.490	0.110	0.870	101.460	-1.400	1.300																			1580046077.0	10.68	19.78
26/01/2020 13:41:18	26012020	260120	134118	101.470	12.350735	-56.914188	101.520	-0.450	0.050	0.620	101.470	-1.300	1.100																			1580046078.0	10.89	20.17
26/01/2020 13:41:19	26012020	260120	134119	101.510	12.350725	-56.914137	101.560	-0.280	-0.220	0.410	101.530	-1.500	0.900																			1580046079.0	11.29	20.91
26/01/2020 13:41:20	26012020	260120	134120	101.610	12.350715	-56.914083	101.690	-0.120	-0.300	0.280	101.610	-1.700	0.700																			1580046080.0	11.41	21.13
26/01/2020 13:41:21	26012020	260120	134121	101.740	12.350703	-56.914032	101.780	-0.010	-0.190	0.350	101.740	-1.600	0.700																			1580046081.0	11.09	20.54
26/01/2020 13:41:22	26012020	260120	134122	101.780	12.350692	-56.913982	101.760	0.210	-0.250	0.460	101.780	-1.600	0.800																			1580046082.0	10.91	20.21
26/01/2020 13:41:23	26012020	260120	134123	101.740	12.350682	-56.913930	101.720	0.530	-0.390	0.480	101.740	-1.700	0.900																			1580046083.0	11.17	20.69
26/01/2020 13:41:24	26012020	260120	134124	101.710	12.350673	-56.913878	101.710	0.690	-0.350	0.510	101.710	-1.800	0.900																			1580046084.0	11.27	20.87
26/01/2020 13:41:25	26012020	260120	134125	101.710	12.350665	-56.913827	101.720	0.500	-0.160	0.600	101.710	-1.600	1.000																			1580046085.0	11.04	20.45
26/01/2020 13:41:26	26012020	260120	134126	101.740	12.350655	-56.913775	101.780	0.090	-0.010	0.830	101.740	-1.400	1.100																			1580046086.0	10.84	20.08
26/01/2020 13:41:27	26012020	260120	134127	101.780	12.350645	-56.913725	101.800	-0.280	-0.030	1.060	101.780	-1.400	1.400																			1580046087.0	10.87	20.13
26/01/2020 13:41:28	26012020	260120	134128	101.760	12.350633	-56.913675	101.740	-0.420	-0.280	1.220	101.760	-1.600	1.600																			1580046088.0	11.05	20.46
26/01/2020 13:41:29	26012020	260120	134129	101.660	12.350620	-56.913623	101.640	-0.310	-0.530	1.180	101.660	-1.800	1.600																			1580046089.0	11.32	20.96
26/01/2020 13:41:30	26012020	260120	134130	101.570	12.350610	-56.913570	101.540	-0.140	-0.600	0.980	101.570	-2.000	1.400																			1580046090.0	11.31	20.95
26/01/2020 13:41:31	26012020	260120	134131	101.490	12.350598	-56.913518	101.440	0.000	-0.520	0.830	101.460	-2.000	1.300																			1580046091.0	11.17	20.69
26/01/2020 13:41:32	26012020	260120	134132	101.400	12.350588	-56.913467	101.450	-0.000	-0.260	0.600	101.400	-1.800	1.100																			1580046092.0	11.11	20.58
26/01/2020 13:41:33	26012020	260120	134133	101.470	12.350580	-56.913417	101.580	-0.140	0.100	0.420	101.500	-1.400	0.900																			1580046093.0	10.90	20.19
26/01/2020 13:41:34	26012020	260120	134134	101.650	12.350570	-56.913367	101.730	-0.230	0.230	0.390	101.650	-1.200	0.800																			1580046094.0	10.76	19.93
26/01/2020 13:41:35	26012020	260120	134135	101.780	12.350558	-56.913315	101.870	-0.070	-0.060	0.330	101.780	-1.300	0.800																			1580046095.0	10.99	20.35
26/01/2020 13:41:36	26012020	260120	134136	101.940	12.350548	-56.913263	102.010	0.260	-0.490	0.370	101.940	-1.700	0.700																			1580046096.0	11.43	21.17
26/01/2020 13:41:37	26012020	260120	134137	102.060	12.350537	-56.913210	102.110	0.420	-0.510	0.510	102.060	-1.900	0.900																			1580046097.0	11.48	21.26
26/01/2020 13:41:38	26012020	260120	134138	102.120	12.350528	-56.913158	102.130	0.260	-0.250	0.600	102.120	-1.700	1.000																			1580046098.0	10.93	20.24
26/01/2020 13:41:39	26012020	260120	134139	102.070	12.350518	-56.913110	102.020	0.070	-0.250	0.750	102.070	-1.600	1.100																			1580046099.0	10.72	19.85
26/01/2020 13:41:40	26012020	260120	134140	101.940	12.350507	-56.913057	101.920	0.030	-0.470	0.880	101.940	-1.800	1.300																			1580046100.0	11.18	20.71
26/01/2020 13:41:41	26012020	260120	134141	101.870	12.350497	-56.913005	101.860	0.010	-0.430	0.900	101.870	-1.900	1.300																			1580046101.0	11.41	21.13
26/01/2020 13:41:42	26012020	260120	134142	101.800	12.350485	-56.912953	101.760	-0.120	-0.110	0.760	101.780	-1.600	1.200																			1580046102.0	11.08	20.52
26/01/2020 13:41:43	26012020	260120	134143	101.690	12.350475	-56.912903	101.670	-0.210	0.090	0.510	101.690	-1.300	1.000																			1580046103.0	10.80	20.00
26/01/2020 13:41:44	26012020	260120	134144	101.640	12.350465	-56.912852	101.680	-0.150	-0.010	0.290	101.640	-1.300	0.800																			1580046104.0	10.98	20.33
26/01/2020 13:41:45	26012020	260120	134145	101.720	12.350457	-56.912800	101.820	-0.020	-0.180	0.120	101.720	-1.500	0.600																			1580046105.0	11.26	20.85
26/01/2020 13:41:46	26012020	260120	134146	101.840	12.350447	-56.912748	101.930	0.020	-0.250	0.150	101.870	-1.600	0.500																			1580046106.0	11.21	20.76
26/01/2020 13:41:47	26012020	260120	134147	101.920	12.350435	-56.912697	101.930	0.020	-0.340	0.460	101.920	-1.700	0.700																			1580046107.0	11.05	20.46
26/01/2020 13:41:48	26012020	260120	134148	101.880	12.350423	-56.912647	101.930	0.050	-0.430	0.700	101.880	-1.800	1.000																			1580046108.0	11.12	20.59
26/01/2020 13:41:49	26012020	260120	134149	101.960	12.350412	-56.912595	102.050	0.050	-0.330	0.730	101.960	-1.800	1.100																			1580046109.0	11.11	20.58
26/01/2020 13:41:50	26012020	260120	134150	102.050	12.350400	-56.912545	102.070	-0.030	-0.210	0.640	102.050	-1.600	1.100																			1580046110.0	10.88	20.15
26/01/2020 13:41:51	26012020	260120	134151	101.990	12.350390	-56.912493	101.920	-0.110	-0.250	0.610	101.990	-1.600	1.000																			1580046111.0	10.91	20.21
26/01/2020 13:41:52	26012020	260120	134152	101.780	12.350380	-56.912442	101.700	-0.090	-0.470	0.710	101.780	-1.800	1.100																			1580046112.0	11.12	20.59
26/01/2020 13:41:53	26012020	260120	134153	101.610	12.350368	-56.912390	101.580	0.030	-0.650	0.750	101.610	-2.000	1.200																			1580046113.0	11.41	21.13
26/01/2020 13:41:54	26012020	260120	134154	101.530	12.350358	-56.912337	101.550	0.070	-0.460	0.670	101.530	-2.000	1.100																			1580046114.0	11.39	21.09
26/01/2020 13:41:55	26012020	260120	134155	101.520	12.350348	-56.912287	101.550	-0.050	-0.030	0.650	101.520	-1.600	1.000																			1580046115.0	10.98	20.33
26/01/2020 13:41:56	26012020	260120	134156	101.510	12.350337	-56.912237	101.540	-0.140	0.190	0.740	101.510	-1.200	1.100																			1580046116.0	10.75	19.91
26/01/2020 13:41:57	26012020	260120	134157	101.500	12.350327	-56.912185	101.550	-0.020	-0.010	0.800	101.500	-1.300	1.200																			1580046117.0	11.06	20.48
26/01/2020 13:41:58	26012020	260120	134158	101.500	12.350315	-56.912132	101.590	0.220	-0.300	0.810	101.500	-1.600	1.200																			1580046118.0	11.50	21.30
26/01/2020 13:41:59	26012020	260120	134159	101.620	12.350305	-56.912078	101.820	0.280	-0.170	0.670	101.620	-1.700	1.100																			1580046119.0	11.45	21.21
26/01/2020 13:42:00	26012020	260120	134200	101.930	12.350295	-56.912028	102.150	0.060	0.280	0.530	101.930	-1.300	1.000	1016.60	26.00	26.10	18.70	18.80	559.00	64.00	64.00	375.00	28.10	355.00	10.50	91.00	4.80	43460	3387.00	27.50	27.40	1580046120.0	10.79	19.98
26/01/2020 13:42:01	26012020	260120	134201	102.230	12.350287	-56.911980	102.360	-0.230	0.400	0.520	102.230	-0.900	0.900																			1580046121.0	10.34	19.15
26/01/2020 13:42:02	26012020	260120	134202	102.360	12.350277	-56.911932	102.400	-0.230	-0.240	0.650	102.360	-1.300	1.000																			1580046122.0	10.71	19.83
26/01/2020 13:42:03	26012020	260120	134203	102.350	12.350265	-56.911878	102.330	0.030	-1.110	0.860	102.350	-2.200	1.200																			1580046123.0	11.57	21.43
26/01/2020 13:42:04	26012020	260120	134204	102.200	12.350252	-56.911823	102.090	0.270	-1.370	1.030	102.200	-2.700	1.400																			1580046124.0	11.75	21.76
26/01/2020 13:42:05	26012020	260120	134205	101.900	12.350240	-56.911772	101.790	0.290	-0.880	0.990	101.900	-2.500	1.400																			1580046125.0	11.15	20.65
26/01/2020 13:42:06	26012020	260120	134206	101.670	12.350232	-56.911723	101.630	0.140	-0.190	0.730	101.670	-1.800	1.200																			1580046126.0	10.57	19.58
26/01/2020 13:42:07	26012020	260120	134207	101.580	12.350223	-56.911673	101.560	-0.040	0.060	0.440	101.570	-1.400	0.900																			1580046127.0	10.68	19.78
26/01/2020 13:42:08	26012020	260120	134208	101.570	12.350213	-56.911622	101.640	-0.230	-0.010	0.310	101.570	-1.400	0.700																			1580046128.0	11.23	20.80
26/01/2020 13:42:09	26012020	260120	134209	101.670	12.350203	-56.911568	101.800	-0.400	0.030	0.360	101.700	-1.400	0.700																			1580046129.0	11.44	21.19
26/01/2020 13:42:10	26012020	260120	134210	101.850	12.350190	-56.911517	101.950	-0.450	0.230	0.550	101.850	-1.200	0.900																			1580046130.0	11.14	20.63
26/01/2020 13:42:11	26012020	260120	134211	101.970	12.350178	-56.911467	102.040	-0.330	0.220	0.770	101.970	-1.100	1.100																			1580046131.0	10.91	20.21
26/01/2020 13:42:12	26012020	260120	134212	102.050	12.350165	-56.911417	102.120	-0.060	-0.100	0.750	102.060	-1.300	1.200																			1580046132.0	11.09	20.54
26/01/2020 13:42:13	26012020	260120	134213	102.130	12.350155	-56.911363	102.160	0.250	-0.380	0.520	102.130	-1.700	1.000																			1580046133.0	11.34	21.00
26/01/2020 13:42:14	26012020	260120	134214	102.180	12.350147	-56.911312	102.240	0.360	-0.360	0.320	102.180	-1.800	0.800																			1580046134.0	11.19	20.72
26/01/2020 13:42:15	26012020	260120	134215	102.310	12.350137	-56.911262	102.380	0.250	-0.200	0.240	102.310	-1.600	0.700																			1580046135.0	10.79	19.98
26/01/2020 13:42:16	26012020	260120	134216	102.420	12.350128	-56.911212	102.410	0.140	-0.240	0.390	102.420	-1.600	0.700																			1580046136.0	10.65	19.72
26/01/2020 13:42:17	26012020	260120	134217	102.360	12.350117	-56.911162	102.290	0.220	-0.550	0.660	102.360	-1.800	1.000																			1580046137.0	10.95	20.28
26/01/2020 13:42:18	26012020	260120	134218	102.240	12.350105	-56.911108	102.120	0.380	-0.790	0.790	102.210	-2.100	1.200																			1580046138.0	11.32	20.96
26/01/2020 13:42:19	26012020	260120	134219	102.020	12.350093	-56.911057	101.960	0.360	-0.650	0.790	102.020	-2.100	1.200																			1580046139.0	11.27	20.87
26/01/2020 13:42:20	26012020	260120	134220	101.900	12.350085	-56.911007	101.910	0.060	-0.290	0.680	101.900	-1.800	1.100																			1580046140.0	10.93	20.24
26/01/2020 13:42:21	26012020	260120	134221	101.890	12.350075	-56.910957	101.920	-0.330	-0.090	0.640	101.900	-1.500	1.000																			1580046141.0	10.82	20.04
26/01/2020 13:42:22	26012020	260120	134222	101.880	12.350063	-56.910905	101.860	-0.590	-0.110	0.750	101.880	-1.500	1.100																			1580046142.0	11.05	20.46
26/01/2020 13:42:23	26012020	260120	134223	101.810	12.350050	-56.910853	101.780	-0.590	-0.230	0.840	101.790	-1.600	1.200																			1580046143.0	11.32	20.96
26/01/2020 13:42:24	26012020	260120	134224	101.740	12.350037	-56.910802	101.780	-0.420	-0.190	0.810	101.730	-1.600	1.200																			1580046144.0	11.39	21.09
26/01/2020 13:42:25	26012020	260120	134225	101.790	12.350025	-56.910750	101.860	-0.190	0.010	0.720	101.790	-1.500	1.200																			1580046145.0	11.14	20.63
26/01/2020 13:42:26	26012020	260120	134226	101.890	12.350013	-56.910700	102.000	-0.010	0.170	0.580	101.890	-1.300	1.000																			1580046146.0	10.93	20.24
26/01/2020 13:42:27	26012020	260120	134227	102.050	12.350003	-56.910648	102.160	0.090	0.150	0.370	102.050	-1.200	0.900																			1580046147.0	10.90	20.19
26/01/2020 13:42:28	26012020	260120	134228	102.190	12.349993	-56.910598	102.210	0.230	-0.120	0.200	102.190	-1.400	0.700																			1580046148.0	10.98	20.33
26/01/2020 13:42:29	26012020	260120	134229	102.140	12.349985	-56.910545	102.060	0.490	-0.560	0.230	102.140	-1.800	0.600																			1580046149.0	11.21	20.76
26/01/2020 13:42:30	26012020	260120	134230	101.990	12.349975	-56.910493	101.950	0.690	-0.750	0.370	101.960	-2.100	0.700																			1580046150.0	11.39	21.09
26/01/2020 13:42:31	26012020	260120	134231	101.940	12.349965	-56.910442	102.010	0.590	-0.480	0.540	101.940	-2.000	0.900																			1580046151.0	11.11	20.58
26/01/2020 13:42:32	26012020	260120	134232	102.020	12.349955	-56.910392	102.100	0.180	-0.020	0.660	102.040	-1.600	1.000																			1580046152.0	10.60	19.63
26/01/2020 13:42:33	26012020	260120	134233	102.070	12.349945	-56.910343	102.040	-0.270	0.110	0.970	102.070	-1.300	1.200																			1580046153.0	10.46	19.37
26/01/2020 13:42:34	26012020	260120	134234	101.960	12.349933	-56.910293	101.850	-0.460	-0.330	1.400	101.930	-1.500	1.700																			1580046154.0	10.89	20.17
26/01/2020 13:42:35	26012020	260120	134235	101.700	12.349918	-56.910240	101.590	-0.270	-0.940	1.560	101.700	-2.100	1.900																			1580046155.0	11.58	21.45
26/01/2020 13:42:36	26012020	260120	134236	101.460	12.349907	-56.910187	101.260	0.030	-1.110	1.470	101.380	-2.500	1.900																			1580046156.0	11.82	21.89
26/01/2020 13:42:37	26012020	260120	134237	101.070	12.349895	-56.910133	101.060	0.050	-0.560	1.240	101.070	-2.200	1.700																			1580046157.0	11.42	21.15
26/01/2020 13:42:38	26012020	260120	134238	101.030	12.349887	-56.910083	101.210	-0.280	0.370	0.910	101.030	-1.400	1.500																			1580046158.0	10.70	19.82
26/01/2020 13:42:39	26012020	260120	134239	101.330	12.349877	-56.910037	101.560	-0.650	0.900	0.500	101.330	-0.600	1.100																			1580046159.0	10.27	19.02
26/01/2020 13:42:40	26012020	260120	134240	101.610	12.349867	-56.909987	101.770	-0.590	0.500	0.260	101.660	-0.600	0.700																			1580046160.0	10.69	19.80
26/01/2020 13:42:41	26012020	260120	134241	101.780	12.349855	-56.909933	101.840	-0.100	-0.260	0.280	101.780	-1.400	0.700																			1580046161.0	11.56	21.41
26/01/2020 13:42:42	26012020	260120	134242	101.840	12.349842	-56.909880	101.920	0.460	-0.610	0.250	101.840	-1.900	0.700																			1580046162.0	11.71	21.69
26/01/2020 13:42:43	26012020	260120	134243	101.960	12.349833	-56.909828	102.040	0.690	-0.430	0.070	101.960	-1.900	0.600																			1580046163.0	11.10	20.56
26/01/2020 13:42:44	26012020	260120	134244	102.040	12.349827	-56.909778	102.030	0.540	-0.140	-0.020	102.040	-1.600	0.400																			1580046164.0	10.54	19.52
26/01/2020 13:42:45	26012020	260120	134245	101.980	12.349818	-56.909730	101.930	0.240	-0.150	0.110	101.980	-1.500	0.500																			1580046165.0	10.49	19.43
26/01/2020 13:42:46	26012020	260120	134246	101.870	12.349810	-56.909678	101.800	0.080	-0.550	0.440	101.870	-1.800	0.700																			1580046166.0	10.91	20.21
26/01/2020 13:42:47	26012020	260120	134247	101.730	12.349797	-56.909627	101.550	0.110	-1.030	0.930	101.680	-2.300	1.100																			1580046167.0	11.44	21.19
26/01/2020 13:42:48	26012020	260120	134248	101.430	12.349783	-56.909573	101.250	0.080	-0.960	1.250	101.370	-2.500	1.600																			1580046168.0	11.63	21.54
26/01/2020 13:42:49	26012020	260120	134249	101.090	12.349772	-56.909522	101.070	-0.190	-0.290	1.250	101.090	-2.000	1.700																			1580046169.0	11.07	20.50
26/01/2020 13:42:50	26012020	260120	134250	101.030	12.349760	-56.909473	101.130	-0.550	0.370	1.010	101.030	-1.200	1.500																			1580046170.0	10.53	19.50
26/01/2020 13:42:51	26012020	260120	134251	101.180	12.349750	-56.909425	101.350	-0.690	0.510	0.660	101.180	-0.900	1.200																			1580046171.0	10.59	19.61
26/01/2020 13:42:52	26012020	260120	134252	101.420	12.349740	-56.909373	101.550	-0.470	0.140	0.410	101.420	-1.100	0.900																			1580046172.0	11.11	20.58
26/01/2020 13:42:53	26012020	260120	134253	101.570	12.349728	-56.909320	101.680	-0.060	-0.250	0.340	101.570	-1.500	0.800																			1580046173.0	11.53	21.35
26/01/2020 13:42:54	26012020	260120	134254	101.700	12.349717	-56.909267	101.870	0.210	-0.270	0.380	101.740	-1.700	0.800																			1580046174.0	11.35	21.02
26/01/2020 13:42:55	26012020	260120	134255	101.950	12.349707	-56.909217	102.060	0.230	-0.120	0.440	101.950	-1.500	0.800																			1580046175.0	10.81	20.02
26/01/2020 13:42:56	26012020	260120	134256	102.070	12.349697	-56.909168	102.080	0.220	-0.250	0.510	102.070	-1.500	0.900																			1580046176.0	10.63	19.69
26/01/2020 13:42:57	26012020	260120	134257	102.030	12.349687	-56.909117	101.990	0.320	-0.540	0.600	102.030	-1.800	1.000																			1580046177.0	11.01	20.39
26/01/2020 13:42:58	26012020	260120	134258	101.890	12.349677	-56.909065	101.840	0.370	-0.590	0.600	101.890	-2.000	1.000																			1580046178.0	11.21	20.76
26/01/2020 13:42:59	26012020	260120	134259	101.780	12.349668	-56.909013	101.710	0.220	-0.390	0.630	101.760	-1.900	1.000																			1580046179.0	10.94	20.26
26/01/2020 13:43:00	26012020	260120	134300	101.650	12.349658	-56.908963	101.610	-0.050	-0.240	0.630	101.630	-1.700	1.000	1016.60	26.10	26.10	18.60	18.70	547.00	63.00	63.00	374.00	28.00	355.00	10.80	91.00	5.10	43068	3116.00	27.50	27.40	1580046180.0	10.75	19.91
26/01/2020 13:43:01	26012020	260120	134301	101.530	12.349648	-56.908913	101.460	-0.180	-0.350	0.670	101.530	-1.700	1.000																			1580046181.0	10.93	20.24
26/01/2020 13:43:02	26012020	260120	134302	101.380	12.349637	-56.908862	101.290	-0.140	-0.450	0.810	101.340	-1.800	1.200																			1580046182.0	11.32	20.96
26/01/2020 13:43:03	26012020	260120	134303	101.250	12.349625	-56.908808	101.320	-0.090	-0.250	0.780	101.250	-1.700	1.200																			1580046183.0	11.30	20.93
26/01/2020 13:43:04	26012020	260120	134304	101.360	12.349613	-56.908758	101.470	-0.130	0.130	0.680	101.360	-1.400	1.100																			1580046184.0	10.92	20.22
26/01/2020 13:43:05	26012020	260120	134305	101.510	12.349603	-56.908708	101.580	-0.200	0.330	0.600	101.510	-1.100	1.000																			1580046185.0	10.67	19.76
26/01/2020 13:43:06	26012020	260120	134306	101.570	12.349593	-56.908658	101.620	-0.150	0.010	0.500	101.580	-1.200	0.900																			1580046186.0	10.84	20.08
26/01/2020 13:43:07	26012020	260120	134307	101.620	12.349583	-56.908607	101.650	0.080	-0.590	0.480	101.620	-1.800	0.900																			1580046187.0	11.36	21.04
26/01/2020 13:43:08	26012020	260120	134308	101.640	12.349572	-56.908553	101.630	0.320	-0.870	0.520	101.640	-2.200	0.900																			1580046188.0	11.63	21.54
26/01/2020 13:43:09	26012020	260120	134309	101.600	12.349560	-56.908500	101.610	0.310	-0.430	0.530	101.600	-2.000	0.900																			1580046189.0	11.22	20.78
26/01/2020 13:43:10	26012020	260120	134310	101.590	12.349552	-56.908452	101.650	0.020	0.270	0.530	101.600	-1.400	0.900																			1580046190.0	10.43	19.32
26/01/2020 13:43:11	26012020	260120	134311	101.630	12.349542	-56.908405	101.660	-0.230	0.460	0.530	101.630	-0.900	0.900																			1580046191.0	10.20	18.89
26/01/2020 13:43:12	26012020	260120	134312	101.630	12.349532	-56.908355	101.670	-0.210	-0.020	0.510	101.630	-1.200	0.900																			1580046192.0	10.80	20.00
26/01/2020 13:43:13	26012020	260120	134313	101.660	12.349522	-56.908302	101.740	-0.010	-0.660	0.510	101.670	-1.800	0.900																			1580046193.0	11.45	21.21
26/01/2020 13:43:14	26012020	260120	134314	101.710	12.349512	-56.908248	101.730	0.120	-0.930	0.680	101.710	-2.300	1.000																			1580046194.0	11.54	21.37
26/01/2020 13:43:15	26012020	260120	134315	101.650	12.349500	-56.908197	101.640	0.090	-0.690	0.890	101.650	-2.200	1.200																			1580046195.0	11.12	20.59
26/01/2020 13:43:16	26012020	260120	134316	101.500	12.349488	-56.908147	101.440	0.050	-0.430	1.090	101.500	-1.900	1.400																			1580046196.0	10.76	19.93
26/01/2020 13:43:17	26012020	260120	134317	101.290	12.349477	-56.908097	101.250	0.110	-0.340	1.130	101.290	-1.700	1.500																			1580046197.0	10.94	20.26
26/01/2020 13:43:18	26012020	260120	134318	101.170	12.349467	-56.908045	101.190	0.190	-0.180	0.900	101.160	-1.600	1.400																			1580046198.0	11.22	20.78
26/01/2020 13:43:19	26012020	260120	134319	101.150	12.349458	-56.907993	101.200	0.110	0.090	0.600	101.150	-1.400	1.100																			1580046199.0	11.11	20.58
26/01/2020 13:43:20	26012020	260120	134320	101.200	12.349450	-56.907942	101.310	-0.060	0.180	0.380	101.200	-1.200	0.900																			1580046200.0	10.96	20.30
26/01/2020 13:43:21	26012020	260120	134321	101.360	12.349440	-56.907890	101.520	-0.210	0.080	0.300	101.360	-1.300	0.700																			1580046201.0	11.10	20.56
26/01/2020 13:43:22	26012020	260120	134322	101.540	12.349428	-56.907838	101.740	-0.310	0.080	0.350	101.590	-1.300	0.700																			1580046202.0	11.15	20.65
26/01/2020 13:43:23	26012020	260120	134323	101.780	12.349417	-56.907788	101.900	-0.370	0.180	0.370	101.780	-1.200	0.800																			1580046203.0	10.84	20.08
26/01/2020 13:43:24	26012020	260120	134324	101.930	12.349407	-56.907740	102.020	-0.270	0.050	0.420	101.930	-1.200	0.800																			1580046204.0	10.64	19.71
26/01/2020 13:43:25	26012020	260120	134325	102.040	12.349395	-56.907690	102.100	-0.010	-0.400	0.570	102.040	-1.600	0.900																			1580046205.0	10.87	20.13
26/01/2020 13:43:26	26012020	260120	134326	102.050	12.349385	-56.907638	101.980	0.290	-0.890	0.660	102.040	-2.100	1.100																			1580046206.0	11.21	20.76
26/01/2020 13:43:27	26012020	260120	134327	101.830	12.349375	-56.907585	101.690	0.460	-1.100	0.700	101.830	-2.400	1.100																			1580046207.0	11.28	20.89
26/01/2020 13:43:28	26012020	260120	134328	101.490	12.349365	-56.907533	101.380	0.460	-0.910	0.750	101.490	-2.400	1.200																			1580046208.0	11.12	20.59
26/01/2020 13:43:29	26012020	260120	134329	101.250	12.349357	-56.907483	101.220	0.310	-0.510	0.700	101.250	-2.000	1.100																			1580046209.0	10.90	20.19
26/01/2020 13:43:30	26012020	260120	134330	101.120	12.349347	-56.907432	101.090	0.090	-0.250	0.670	101.120	-1.700	1.100																			1580046210.0	10.89	20.17
26/01/2020 13:43:31	26012020	260120	134331	100.980	12.349337	-56.907380	100.950	-0.100	-0.140	0.750	100.980	-1.500	1.100																			1580046211.0	11.18	20.71
26/01/2020 13:43:32	26012020	260120	134332	100.840	12.349325	-56.907328	100.860	-0.210	0.010	0.930	100.840	-1.400	1.300																			1580046212.0	11.35	21.02
26/01/2020 13:43:33	26012020	260120	134333	100.830	12.349313	-56.907277	101.000	-0.330	0.280	0.870	100.830	-1.200	1.300																			1580046213.0	11.26	20.85
26/01/2020 13:43:34	26012020	260120	134334	101.120	12.349303	-56.907225	101.380	-0.510	0.500	0.640	101.120	-0.900	1.100																			1580046214.0	10.97	20.32
26/01/2020 13:43:35	26012020	260120	134335	101.440	12.349292	-56.907175	101.730	-0.610	0.480	0.620	101.520	-0.800	1.000																			1580046215.0	10.84	20.08
26/01/2020 13:43:36	26012020	260120	134336	101.770	12.349280	-56.907125	101.890	-0.490	0.170	0.640	101.770	-1.000	1.100																			1580046216.0	10.91	20.21
26/01/2020 13:43:37	26012020	260120	134337	101.890	12.349270	-56.907073	102.020	-0.110	-0.360	0.540	101.910	-1.500	1.000																			1580046217.0	11.08	20.52
26/01/2020 13:43:38	26012020	260120	134338	102.030	12.349260	-56.907022	102.100	0.360	-0.850	0.450	102.030	-2.000	0.900																			1580046218.0	11.25	20.84
26/01/2020 13:43:39	26012020	260120	134339	102.060	12.349250	-56.906970	102.060	0.710	-1.050	0.430	102.060	-2.400	0.800																			1580046219.0	11.21	20.76
26/01/2020 13:43:40	26012020	260120	134340	101.980	12.349242	-56.906918	101.830	0.750	-0.890	0.550	101.940	-2.300	0.900																			1580046220.0	11.02	20.41
26/01/2020 13:43:41	26012020	260120	134341	101.620	12.349232	-56.906868	101.490	0.550	-0.550	0.800	101.620	-2.000	1.100																			1580046221.0	10.81	20.02
26/01/2020 13:43:42	26012020	260120	134342	101.340	12.349223	-56.906818	101.260	0.280	-0.290	0.920	101.280	-1.700	1.300																			1580046222.0	10.84	20.08
26/01/2020 13:43:43	26012020	260120	134343	101.180	12.349213	-56.906767	101.310	0.020	-0.110	0.740	101.180	-1.500	1.200																			1580046223.0	11.06	20.48
26/01/2020 13:43:44	26012020	260120	134344	101.290	12.349205	-56.906713	101.490	-0.280	0.100	0.540	101.330	-1.300	1.000																			1580046224.0	11.18	20.71
26/01/2020 13:43:45	26012020	260120	134345	101.500	12.349193	-56.906663	101.660	-0.560	0.210	0.530	101.500	-1.200	0.900																			1580046225.0	11.07	20.50
26/01/2020 13:43:46	26012020	260120	134346	101.670	12.349182	-56.906612	101.820	-0.670	0.130	0.670	101.670	-1.200	1.000																			1580046226.0	11.08	20.52
26/01/2020 13:43:47	26012020	260120	134347	101.800	12.349168	-56.906560	101.890	-0.540	0.000	0.730	101.800	-1.300	1.100																			1580046227.0	11.21	20.76
26/01/2020 13:43:48	26012020	260120	134348	101.850	12.349157	-56.906510	101.930	-0.270	-0.080	0.540	101.850	-1.400	1.100																			1580046228.0	11.09	20.54
26/01/2020 13:43:49	26012020	260120	134349	101.900	12.349147	-56.906458	102.000	0.040	-0.340	0.210	101.920	-1.600	0.700																			1580046229.0	11.00	20.37
26/01/2020 13:43:50	26012020	260120	134350	102.010	12.349138	-56.906407	102.070	0.310	-0.750	0.050	102.010	-2.000	0.500																			1580046230.0	11.25	20.84
26/01/2020 13:43:51	26012020	260120	134351	102.030	12.349128	-56.906353	101.990	0.400	-0.830	0.170	102.030	-2.200	0.500																			1580046231.0	11.40	21.11
26/01/2020 13:43:52	26012020	260120	134352	101.890	12.349118	-56.906302	101.790	0.290	-0.490	0.340	101.890	-2.000	0.700																			1580046232.0	11.01	20.39
26/01/2020 13:43:53	26012020	260120	134353	101.670	12.349108	-56.906252	101.600	0.140	-0.170	0.520	101.670	-1.600	0.900																			1580046233.0	10.72	19.85
26/01/2020 13:43:54	26012020	260120	134354	101.530	12.349098	-56.906202	101.490	0.060	-0.110	0.670	101.500	-1.500	1.000																			1580046234.0	10.91	20.21
26/01/2020 13:43:55	26012020	260120	134355	101.420	12.349087	-56.906150	101.460	0.050	-0.170	0.620	101.420	-1.500	1.100																			1580046235.0	11.22	20.78
26/01/2020 13:43:56	26012020	260120	134356	101.440	12.349077	-56.906097	101.560	0.010	-0.100	0.410	101.450	-1.500	0.900																			1580046236.0	11.32	20.96
26/01/2020 13:43:57	26012020	260120	134357	101.630	12.349067	-56.906047	101.790	-0.120	0.100	0.290	101.630	-1.300	0.700																			1580046237.0	11.09	20.54
26/01/2020 13:43:58	26012020	260120	134358	101.840	12.349057	-56.905995	102.070	-0.240	0.180	0.200	101.900	-1.200	0.600																			1580046238.0	10.86	20.11
26/01/2020 13:43:59	26012020	260120	134359	102.140	12.349047	-56.905945	102.230	-0.190	-0.000	0.260	102.140	-1.300	0.600																			1580046239.0	10.93	20.24
26/01/2020 13:44:00	26012020	260120	134400	102.220	12.349035	-56.905893	102.290	-0.050	-0.260	0.500	102.230	-1.500	0.800	1016.60	26.10	26.20	18.30	18.40	593.00	62.00	62.00	374.00	28.00	357.00	10.70	95.00	5.00	45231	3153.00	27.50	27.40	1580046240.0	11.16	20.67
26/01/2020 13:44:01	26012020	260120	134401	102.300	12.349023	-56.905842	102.340	0.020	-0.420	0.640	102.300	-1.700	1.000																			1580046241.0	11.11	20.58
26/01/2020 13:44:02	26012020	260120	134402	102.320	12.349012	-56.905792	102.280	0.040	-0.610	0.610	102.310	-1.900	1.000																			1580046242.0	10.98	20.33
26/01/2020 13:44:03	26012020	260120	134403	102.220	12.349002	-56.905740	102.070	0.160	-0.890	0.570	102.180	-2.100	1.000																			1580046243.0	11.12	20.59
26/01/2020 13:44:04	26012020	260120	134404	101.990	12.348992	-56.905687	101.820	0.320	-1.010	0.520	101.940	-2.400	0.900																			1580046244.0	11.43	21.17
26/01/2020 13:44:05	26012020	260120	134405	101.710	12.348982	-56.905635	101.660	0.230	-0.620	0.470	101.710	-2.200	0.900																			1580046245.0	11.37	21.06
26/01/2020 13:44:06	26012020	260120	134406	101.630	12.348972	-56.905583	101.670	-0.130	0.080	0.380	101.630	-1.600	0.800																			1580046246.0	10.86	20.11
26/01/2020 13:44:07	26012020	260120	134407	101.720	12.348960	-56.905535	101.780	-0.460	0.560	0.250	101.720	-0.900	0.700																			1580046247.0	10.59	19.61
26/01/2020 13:44:08	26012020	260120	134408	101.810	12.348950	-56.905485	101.890	-0.460	0.470	0.140	101.830	-0.800	0.600																			1580046248.0	10.85	20.09
26/01/2020 13:44:09	26012020	260120	134409	101.930	12.348937	-56.905433	101.970	-0.130	-0.040	0.100	101.930	-1.200	0.500																			1580046249.0	11.40	21.11
26/01/2020 13:44:10	26012020	260120	134410	101.980	12.348925	-56.905378	102.040	0.240	-0.370	0.050	101.990	-1.700	0.500																			1580046250.0	11.70	21.67
26/01/2020 13:44:11	26012020	260120	134411	102.100	12.348915	-56.905327	102.180	0.340	-0.190	-0.080	102.100	-1.700	0.400																			1580046251.0	11.26	20.85
26/01/2020 13:44:12	26012020	260120	134412	102.240	12.348907	-56.905277	102.360	0.180	0.020	-0.080	102.280	-1.400	0.300																			1580046252.0	10.64	19.71
26/01/2020 13:44:13	26012020	260120	134413	102.420	12.348897	-56.905227	102.430	-0.000	-0.170	0.270	102.420	-1.400	0.500																			1580046253.0	10.64	19.71
26/01/2020 13:44:14	26012020	260120	134414	102.420	12.348885	-56.905177	102.390	-0.070	-0.580	0.730	102.410	-1.800	1.000																			1580046254.0	11.08	20.52
26/01/2020 13:44:15	26012020	260120	134415	102.320	12.348872	-56.905125	102.260	-0.020	-0.840	1.000	102.320	-2.100	1.300																			1580046255.0	11.33	20.98
26/01/2020 13:44:16	26012020	260120	134416	102.170	12.348858	-56.905073	101.980	0.110	-0.790	1.060	102.120	-2.200	1.500																			1580046256.0	11.20	20.74
26/01/2020 13:44:17	26012020	260120	134417	101.790	12.348847	-56.905023	101.640	0.220	-0.630	0.910	101.790	-2.000	1.400																			1580046257.0	11.05	20.46
26/01/2020 13:44:18	26012020	260120	134418	101.500	12.348837	-56.904972	101.430	0.250	-0.400	0.610	101.500	-1.900	1.100																			1580046258.0	11.11	20.58
26/01/2020 13:44:19	26012020	260120	134419	101.360	12.348828	-56.904918	101.350	0.110	-0.070	0.410	101.360	-1.600	0.900																			1580046259.0	11.10	20.56
26/01/2020 13:44:20	26012020	260120	134420	101.340	12.348820	-56.904868	101.400	-0.150	0.140	0.400	101.340	-1.300	0.800																			1580046260.0	11.02	20.41
26/01/2020 13:44:21	26012020	260120	134421	101.430	12.348808	-56.904817	101.540	-0.400	0.170	0.610	101.430	-1.200	0.900																			1580046261.0	11.13	20.61
26/01/2020 13:44:22	26012020	260120	134422	101.610	12.348795	-56.904765	101.760	-0.530	0.190	0.910	101.610	-1.200	1.200																			1580046262.0	11.21	20.76
26/01/2020 13:44:23	26012020	260120	134423	101.830	12.348782	-56.904715	101.940	-0.450	0.140	1.050	101.830	-1.200	1.400																			1580046263.0	11.03	20.43
26/01/2020 13:44:24	26012020	260120	134424	101.950	12.348768	-56.904665	102.000	-0.090	-0.180	0.890	101.950	-1.400	1.400																			1580046264.0	11.04	20.45
26/01/2020 13:44:25	26012020	260120	134425	101.960	12.348758	-56.904612	101.970	0.380	-0.620	0.540	101.960	-1.800	1.100																			1580046265.0	11.31	20.95
26/01/2020 13:44:26	26012020	260120	134426	101.900	12.348750	-56.904558	101.900	0.640	-0.780	0.230	101.900	-2.100	0.700																			1580046266.0	11.44	21.19
26/01/2020 13:44:27	26012020	260120	134427	101.870	12.348743	-56.904507	101.880	0.510	-0.440	0.180	101.870	-2.000	0.600																			1580046267.0	11.13	20.61
26/01/2020 13:44:28	26012020	260120	134428	101.890	12.348733	-56.904457	101.940	0.110	0.090	0.260	101.890	-1.400	0.600																			1580046268.0	10.55	19.54
26/01/2020 13:44:29	26012020	260120	134429	101.940	12.348723	-56.904408	101.990	-0.180	0.130	0.450	101.940	-1.200	0.800																			1580046269.0	10.45	19.35
26/01/2020 13:44:30	26012020	260120	134430	101.940	12.348712	-56.904358	101.940	-0.180	-0.380	0.720	101.940	-1.500	1.000																			1580046270.0	11.11	20.58
26/01/2020 13:44:31	26012020	260120	134431	101.880	12.348698	-56.904305	101.920	-0.030	-0.730	0.840	101.880	-2.000	1.200																			1580046271.0	11.65	21.58
26/01/2020 13:44:32	26012020	260120	134432	101.880	12.348687	-56.904252	101.920	0.040	-0.550	0.770	101.880	-2.000	1.200																			1580046272.0	11.37	21.06
26/01/2020 13:44:33	26012020	260120	134433	101.880	12.348677	-56.904202	101.880	-0.030	-0.210	0.630	101.880	-1.700	1.100																			1580046273.0	10.85	20.09
26/01/2020 13:44:34	26012020	260120	134434	101.810	12.348667	-56.904152	101.800	-0.070	-0.130	0.450	101.810	-1.500	0.900																			1580046274.0	10.80	20.00
26/01/2020 13:44:35	26012020	260120	134435	101.730	12.348657	-56.904100	101.720	-0.030	-0.300	0.330	101.730	-1.600	0.800																			1580046275.0	11.18	20.71
26/01/2020 13:44:36	26012020	260120	134436	101.650	12.348647	-56.904047	101.650	0.060	-0.470	0.370	101.650	-1.800	0.700																			1580046276.0	11.42	21.15
26/01/2020 13:44:37	26012020	260120	134437	101.590	12.348635	-56.903993	101.620	0.040	-0.350	0.500	101.590	-1.800	0.900																			1580046277.0	11.42	21.15
26/01/2020 13:44:38	26012020	260120	134438	101.590	12.348625	-56.903943	101.650	-0.170	0.030	0.620	101.590	-1.500	1.000																			1580046278.0	11.03	20.43
26/01/2020 13:44:39	26012020	260120	134439	101.610	12.348613	-56.903893	101.710	-0.360	0.220	0.750	101.620	-1.200	1.100																			1580046279.0	10.75	19.91
26/01/2020 13:44:40	26012020	260120	134440	101.680	12.348600	-56.903843	101.750	-0.340	0.150	0.860	101.680	-1.200	1.200																			1580046280.0	10.93	20.24
26/01/2020 13:44:41	26012020	260120	134441	101.700	12.348588	-56.903792	101.730	-0.120	-0.110	0.870	101.700	-1.400	1.300																			1580046281.0	11.15	20.65
26/01/2020 13:44:42	26012020	260120	134442	101.680	12.348578	-56.903740	101.700	0.180	-0.450	0.850	101.670	-1.700	1.300																			1580046282.0	11.29	20.91
26/01/2020 13:44:43	26012020	260120	134443	101.640	12.348567	-56.903687	101.680	0.390	-0.550	0.770	101.640	-1.900	1.200																			1580046283.0	11.32	20.96
26/01/2020 13:44:44	26012020	260120	134444	101.640	12.348558	-56.903635	101.680	0.390	-0.390	0.580	101.640	-1.800	1.000																			1580046284.0	11.03	20.43
26/01/2020 13:44:45	26012020	260120	134445	101.610	12.348548	-56.903585	101.610	0.300	-0.240	0.460	101.610	-1.600	0.900																			1580046285.0	10.81	20.02
26/01/2020 13:44:46	26012020	260120	134446	101.530	12.348540	-56.903535	101.560	0.230	-0.200	0.340	101.530	-1.600	0.800																			1580046286.0	10.88	20.15
26/01/2020 13:44:47	26012020	260120	134447	101.530	12.348532	-56.903483	101.560	0.190	-0.320	0.310	101.530	-1.600	0.700																			1580046287.0	11.03	20.43
26/01/2020 13:44:48	26012020	260120	134448	101.520	12.348522	-56.903432	101.540	0.090	-0.480	0.480	101.520	-1.800	0.800																			1580046288.0	11.25	20.84
26/01/2020 13:44:49	26012020	260120	134449	101.480	12.348510	-56.903378	101.480	-0.130	-0.450	0.740	101.480	-1.900	1.000																			1580046289.0	11.26	20.85
26/01/2020 13:44:50	26012020	260120	134450	101.370	12.348498	-56.903328	101.340	-0.340	-0.330	1.020	101.370	-1.700	1.300																			1580046290.0	11.06	20.48
26/01/2020 13:44:51	26012020	260120	134451	101.220	12.348485	-56.903278	101.150	-0.390	-0.280	1.150	101.190	-1.700	1.500																			1580046291.0	11.07	20.50
26/01/2020 13:44:52	26012020	260120	134452	101.010	12.348473	-56.903225	101.020	-0.300	-0.250	1.000	101.010	-1.600	1.500																			1580046292.0	11.22	20.78
26/01/2020 13:44:53	26012020	260120	134453	100.950	12.348463	-56.903173	101.010	-0.260	-0.130	0.670	100.950	-1.600	1.200																			1580046293.0	11.24	20.82
26/01/2020 13:44:54	26012020	260120	134454	100.960	12.348453	-56.903122	101.030	-0.240	0.030	0.440	100.970	-1.400	0.900																			1580046294.0	11.06	20.48
26/01/2020 13:44:55	26012020	260120	134455	101.000	12.348445	-56.903072	101.070	-0.050	-0.110	0.400	101.000	-1.400	0.800																			1580046295.0	10.99	20.35
26/01/2020 13:44:56	26012020	260120	134456	101.040	12.348435	-56.903018	101.140	0.320	-0.480	0.430	101.040	-1.700	0.800																			1580046296.0	11.40	21.11
26/01/2020 13:44:57	26012020	260120	134457	101.140	12.348425	-56.902965	101.270	0.480	-0.430	0.490	101.140	-1.900	0.900																			1580046297.0	11.61	21.50
26/01/2020 13:44:58	26012020	260120	134458	101.270	12.348415	-56.902913	101.380	0.250	0.050	0.580	101.270	-1.500	0.900																			1580046298.0	10.96	20.30
26/01/2020 13:44:59	26012020	260120	134459	101.360	12.348405	-56.902865	101.460	-0.050	0.300	0.690	101.360	-1.100	1.100																			1580046299.0	10.48	19.41
26/01/2020 13:45:00	26012020	260120	134500	101.430	12.348395	-56.902815	101.570	-0.120	0.070	0.750	101.450	-1.200	1.100	1016.70	26.10	26.20	18.30	18.40	631.00	62.00	62.00	374.00	28.10	360.00	10.20	101.00	4.50	47033	3144.00	27.50	27.40	1580046300.0	10.78	19.96
26/01/2020 13:45:01	26012020	260120	134501	101.580	12.348385	-56.902763	101.700	-0.040	-0.330	0.690	101.580	-1.600	1.100																			1580046301.0	11.25	20.84
26/01/2020 13:45:02	26012020	260120	134502	101.680	12.348373	-56.902710	101.740	0.010	-0.530	0.530	101.680	-1.900	1.000																			1580046302.0	11.31	20.95
26/01/2020 13:45:03	26012020	260120	134503	101.700	12.348363	-56.902658	101.730	-0.050	-0.520	0.380	101.700	-1.900	0.800																			1580046303.0	11.03	20.43
26/01/2020 13:45:04	26012020	260120	134504	101.660	12.348355	-56.902608	101.630	-0.100	-0.480	0.290	101.660	-1.900	0.700																			1580046304.0	10.87	20.13
26/01/2020 13:45:05	26012020	260120	134505	101.550	12.348345	-56.902558	101.480	-0.080	-0.470	0.350	101.550	-1.800	0.700																			1580046305.0	10.96	20.30
26/01/2020 13:45:06	26012020	260120	134506	101.420	12.348335	-56.902507	101.350	-0.010	-0.460	0.430	101.390	-1.800	0.800																			1580046306.0	11.08	20.52
26/01/2020 13:45:07	26012020	260120	134507	101.260	12.348323	-56.902455	101.190	0.110	-0.560	0.500	101.260	-1.900	0.900																			1580046307.0	11.19	20.72
26/01/2020 13:45:08	26012020	260120	134508	101.120	12.348313	-56.902402	101.030	0.240	-0.670	0.640	101.090	-2.000	1.000																			1580046308.0	11.44	21.19
26/01/2020 13:45:09	26012020	260120	134509	100.970	12.348302	-56.902348	101.010	0.220	-0.470	0.790	100.970	-2.000	1.100																			1580046309.0	11.53	21.35
26/01/2020 13:45:10	26012020	260120	134510	101.040	12.348292	-56.902297	101.180	-0.050	0.070	0.930	101.040	-1.500	1.300																			1580046310.0	11.21	20.76
26/01/2020 13:45:11	26012020	260120	134511	101.250	12.348280	-56.902247	101.420	-0.450	0.680	1.060	101.250	-0.900	1.400																			1580046311.0	10.76	19.93
26/01/2020 13:45:12	26012020	260120	134512	101.450	12.348268	-56.902198	101.690	-0.690	0.850	1.050	101.510	-0.500	1.500																			1580046312.0	10.58	19.59
26/01/2020 13:45:13	26012020	260120	134513	101.770	12.348257	-56.902148	101.910	-0.530	0.310	0.940	101.770	-0.800	1.400																			1580046313.0	10.94	20.26
26/01/2020 13:45:14	26012020	260120	134514	101.940	12.348245	-56.902095	102.050	-0.050	-0.480	0.660	101.940	-1.600	1.200																			1580046314.0	11.54	21.37
26/01/2020 13:45:15	26012020	260120	134515	102.050	12.348235	-56.902040	102.150	0.370	-0.760	0.220	102.070	-2.100	0.800																			1580046315.0	11.62	21.52
26/01/2020 13:45:16	26012020	260120	134516	102.150	12.348227	-56.901990	102.170	0.500	-0.520	-0.100	102.150	-2.000	0.400																			1580046316.0	10.95	20.28
26/01/2020 13:45:17	26012020	260120	134517	102.140	12.348220	-56.901940	102.110	0.440	-0.330	-0.170	102.140	-1.700	0.200																			1580046317.0	10.47	19.39
26/01/2020 13:45:18	26012020	260120	134518	102.050	12.348213	-56.901890	101.990	0.360	-0.470	-0.030	102.050	-1.800	0.300																			1580046318.0	10.72	19.85
26/01/2020 13:45:19	26012020	260120	134519	101.920	12.348203	-56.901838	101.830	0.290	-0.730	0.320	101.920	-2.000	0.600																			1580046319.0	11.18	20.71
26/01/2020 13:45:20	26012020	260120	134520	101.700	12.348192	-56.901785	101.570	0.170	-0.880	0.760	101.700	-2.200	1.000																			1580046320.0	11.41	21.13
26/01/2020 13:45:21	26012020	260120	134521	101.390	12.348178	-56.901733	101.270	0.010	-0.700	1.080	101.390	-2.200	1.400																			1580046321.0	11.38	21.08
26/01/2020 13:45:22	26012020	260120	134522	101.140	12.348167	-56.901682	101.120	-0.200	-0.230	1.110	101.140	-1.800	1.500																			1580046322.0	11.16	20.67
26/01/2020 13:45:23	26012020	260120	134523	101.100	12.348155	-56.901632	101.240	-0.450	0.270	0.880	101.100	-1.300	1.400																			1580046323.0	10.93	20.24
26/01/2020 13:45:24	26012020	260120	134524	101.340	12.348145	-56.901582	101.580	-0.660	0.460	0.590	101.340	-0.900	1.100																			1580046324.0	10.89	20.17
26/01/2020 13:45:25	26012020	260120	134525	101.710	12.348133	-56.901530	101.900	-0.640	0.260	0.390	101.710	-1.000	0.800																			1580046325.0	11.12	20.59
26/01/2020 13:45:26	26012020	260120	134526	101.920	12.348122	-56.901477	102.010	-0.370	-0.060	0.430	101.940	-1.300	0.800																			1580046326.0	11.41	21.13
26/01/2020 13:45:27	26012020	260120	134527	101.960	12.348108	-56.901425	101.990	-0.040	-0.200	0.500	101.960	-1.500	0.900																			1580046327.0	11.34	21.00
26/01/2020 13:45:28	26012020	260120	134528	101.940	12.348098	-56.901375	101.970	0.250	-0.270	0.360	101.940	-1.600	0.800																			1580046328.0	11.04	20.45
26/01/2020 13:45:29	26012020	260120	134529	101.960	12.348090	-56.901323	102.030	0.480	-0.400	0.070	101.970	-1.700	0.600																			1580046329.0	11.00	20.37
26/01/2020 13:45:30	26012020	260120	134530	102.060	12.348082	-56.901272	102.110	0.560	-0.480	-0.090	102.060	-1.900	0.400																			1580046330.0	11.11	20.58
26/01/2020 13:45:31	26012020	260120	134531	102.110	12.348073	-56.901220	102.120	0.450	-0.340	0.090	102.110	-1.800	0.400																			1580046331.0	11.03	20.43
26/01/2020 13:45:32	26012020	260120	134532	102.080	12.348063	-56.901170	101.980	0.210	-0.180	0.430	102.050	-1.600	0.700																			1580046332.0	10.78	19.96
26/01/2020 13:45:33	26012020	260120	134533	101.880	12.348052	-56.901120	101.800	0.000	-0.280	0.700	101.880	-1.600	1.000																			1580046333.0	10.84	20.08
26/01/2020 13:45:34	26012020	260120	134534	101.710	12.348040	-56.901068	101.690	-0.050	-0.580	0.860	101.710	-1.800	1.200																			1580046334.0	11.23	20.80
26/01/2020 13:45:35	26012020	260120	134535	101.620	12.348028	-56.901015	101.650	0.020	-0.720	0.830	101.620	-2.100	1.300																			1580046335.0	11.48	21.26
26/01/2020 13:45:36	26012020	260120	134536	101.640	12.348017	-56.900963	101.710	0.010	-0.480	0.690	101.640	-2.000	1.100																			1580046336.0	11.35	21.02
26/01/2020 13:45:37	26012020	260120	134537	101.710	12.348007	-56.900912	101.760	-0.250	0.070	0.570	101.710	-1.500	1.000																			1580046337.0	10.95	20.28
26/01/2020 13:45:38	26012020	260120	134538	101.720	12.347995	-56.900863	101.750	-0.590	0.500	0.500	101.720	-1.000	0.900																			1580046338.0	10.58	19.59
26/01/2020 13:45:39	26012020	260120	134539	101.720	12.347983	-56.900813	101.760	-0.620	0.230	0.470	101.720	-0.900	0.900																			1580046339.0	10.69	19.80
26/01/2020 13:45:40	26012020	260120	134540	101.710	12.347972	-56.900762	101.730	-0.170	-0.630	0.450	101.710	-1.700	0.900																			1580046340.0	11.49	21.28
26/01/2020 13:45:41	26012020	260120	134541	101.680	12.347960	-56.900705	101.740	0.360	-1.090	0.420	101.680	-2.400	0.800																			1580046341.0	12.09	22.39
26/01/2020 13:45:42	26012020	260120	134542	101.730	12.347950	-56.900652	101.820	0.510	-0.570	0.520	101.730	-2.200	0.900																			1580046342.0	11.49	21.28
26/01/2020 13:45:43	26012020	260120	134543	101.810	12.347940	-56.900603	101.900	0.280	0.220	0.700	101.830	-1.400	1.000																			1580046343.0	10.43	19.32
26/01/2020 13:45:44	26012020	260120	134544	101.870	12.347928	-56.900557	101.910	0.030	0.410	0.780	101.870	-1.000	1.200																			1580046344.0	10.33	19.13
26/01/2020 13:45:45	26012020	260120	134545	101.870	12.347918	-56.900505	101.920	-0.050	0.050	0.760	101.870	-1.200	1.200																			1580046345.0	11.01	20.39
26/01/2020 13:45:46	26012020	260120	134546	101.890	12.347908	-56.900452	101.970	-0.000	-0.250	0.700	101.900	-1.500	1.100																			1580046346.0	11.45	21.21
26/01/2020 13:45:47	26012020	260120	134547	101.970	12.347898	-56.900400	102.050	0.060	-0.320	0.680	101.970	-1.700	1.100																			1580046347.0	11.24	20.82
26/01/2020 13:45:48	26012020	260120	134548	102.040	12.347888	-56.900348	102.110	0.020	-0.330	0.750	102.050	-1.700	1.100																			1580046348.0	10.99	20.35
26/01/2020 13:45:49	26012020	260120	134549	102.060	12.347877	-56.900298	102.060	-0.060	-0.390	0.830	102.060	-1.700	1.200																			1580046349.0	10.93	20.24
26/01/2020 13:45:50	26012020	260120	134550	102.000	12.347865	-56.900248	101.950	-0.020	-0.420	0.810	101.970	-1.800	1.200																			1580046350.0	11.00	20.37
26/01/2020 13:45:51	26012020	260120	134551	101.880	12.347853	-56.900197	101.910	0.120	-0.430	0.650	101.880	-1.800	1.100																			1580046351.0	11.01	20.39
26/01/2020 13:45:52	26012020	260120	134552	101.870	12.347843	-56.900145	101.890	0.240	-0.510	0.470	101.870	-1.900	0.900																			1580046352.0	11.09	20.54
26/01/2020 13:45:53	26012020	260120	134553	101.820	12.347833	-56.900093	101.780	0.230	-0.480	0.350	101.820	-1.900	0.800																			1580046353.0	11.22	20.78
26/01/2020 13:45:54	26012020	260120	134554	101.710	12.347825	-56.900042	101.650	0.080	-0.260	0.360	101.680	-1.700	0.800																			1580046354.0	11.09	20.54
26/01/2020 13:45:55	26012020	260120	134555	101.580	12.347815	-56.899992	101.590	-0.080	-0.140	0.390	101.580	-1.500	0.800																			1580046355.0	10.95	20.28
26/01/2020 13:45:56	26012020	260120	134556	101.560	12.347803	-56.899940	101.600	-0.160	-0.280	0.520	101.560	-1.600	0.900																			1580046356.0	11.18	20.71
26/01/2020 13:45:57	26012020	260120	134557	101.550	12.347790	-56.899887	101.560	-0.180	-0.310	0.810	101.550	-1.700	1.100																			1580046357.0	11.44	21.19
26/01/2020 13:45:58	26012020	260120	134558	101.500	12.347777	-56.899835	101.530	-0.210	-0.000	0.920	101.500	-1.500	1.300																			1580046358.0	11.23	20.80
26/01/2020 13:45:59	26012020	260120	134559	101.540	12.347767	-56.899785	101.640	-0.240	0.350	0.780	101.540	-1.100	1.200																			1580046359.0	10.81	20.02
26/01/2020 13:46:00	26012020	260120	134600	101.670	12.347757	-56.899737	101.810	-0.230	0.300	0.640	101.700	-1.000	1.100	1016.70	26.10	26.20	18.70	18.70	655.00	63.00	63.00	374.00	28.10	357.00	10.00	94.00	4.30	48302	3159.00	27.50	27.40	1580046360.0	10.74	19.89
26/01/2020 13:46:01	26012020	260120	134601	101.850	12.347745	-56.899685	101.910	-0.100	-0.150	0.450	101.850	-1.300	0.900																			1580046361.0	11.10	20.56
26/01/2020 13:46:02	26012020	260120	134602	101.920	12.347735	-56.899632	101.990	0.110	-0.490	0.260	101.940	-1.800	0.700																			1580046362.0	11.42	21.15
26/01/2020 13:46:03	26012020	260120	134603	102.010	12.347725	-56.899580	102.050	0.230	-0.470	0.200	102.010	-1.900	0.600																			1580046363.0	11.16	20.67
26/01/2020 13:46:04	26012020	260120	134604	102.060	12.347715	-56.899530	102.070	0.320	-0.440	0.230	102.070	-1.800	0.600																			1580046364.0	10.76	19.93
26/01/2020 13:46:05	26012020	260120	134605	102.050	12.347705	-56.899480	101.940	0.510	-0.670	0.430	102.030	-1.900	0.700																			1580046365.0	10.92	20.22
26/01/2020 13:46:06	26012020	260120	134606	101.860	12.347693	-56.899427	101.670	0.640	-0.810	0.710	101.810	-2.200	1.000																			1580046366.0	11.36	21.04
26/01/2020 13:46:07	26012020	260120	134607	101.610	12.347683	-56.899375	101.550	0.400	-0.480	0.830	101.570	-2.000	1.200																			1580046367.0	11.27	20.87
26/01/2020 13:46:08	26012020	260120	134608	101.520	12.347675	-56.899325	101.530	-0.110	-0.010	0.910	101.520	-1.500	1.300																			1580046368.0	10.78	19.96
26/01/2020 13:46:09	26012020	260120	134609	101.490	12.347663	-56.899275	101.450	-0.530	0.030	1.010	101.490	-1.300	1.400																			1580046369.0	10.73	19.87
26/01/2020 13:46:10	26012020	260120	134610	101.360	12.347652	-56.899223	101.320	-0.630	-0.370	1.100	101.360	-1.600	1.500																			1580046370.0	11.35	21.02
26/01/2020 13:46:11	26012020	260120	134611	101.270	12.347637	-56.899168	101.310	-0.580	-0.480	1.140	101.270	-1.900	1.500																			1580046371.0	11.82	21.89
26/01/2020 13:46:12	26012020	260120	134612	101.320	12.347623	-56.899117	101.440	-0.550	0.030	0.870	101.320	-1.600	1.400																			1580046372.0	11.32	20.96
26/01/2020 13:46:13	26012020	260120	134613	101.510	12.347612	-56.899068	101.670	-0.420	0.560	0.440	101.510	-1.000	1.000																			1580046373.0	10.55	19.54
26/01/2020 13:46:14	26012020	260120	134614	101.700	12.347600	-56.899020	101.850	-0.100	0.480	0.080	101.730	-0.800	0.600																			1580046374.0	10.59	19.61
26/01/2020 13:46:15	26012020	260120	134615	101.880	12.347592	-56.898968	101.990	0.340	-0.000	-0.190	101.880	-1.200	0.300																			1580046375.0	11.16	20.67
26/01/2020 13:46:16	26012020	260120	134616	102.040	12.347583	-56.898915	102.140	0.690	-0.330	-0.280	102.040	-1.600	0.100																			1580046376.0	11.32	20.96
26/01/2020 13:46:17	26012020	260120	134617	102.150	12.347575	-56.898863	102.170	0.860	-0.540	-0.050	102.150	-1.800	0.200																			1580046377.0	10.99	20.35
26/01/2020 13:46:18	26012020	260120	134618	102.110	12.347567	-56.898813	102.020	0.790	-0.870	0.350	102.090	-2.100	0.600																			1580046378.0	10.96	20.30
26/01/2020 13:46:19	26012020	260120	134619	101.920	12.347555	-56.898760	101.740	0.510	-1.150	0.950	101.870	-2.500	1.100																			1580046379.0	11.22	20.78
26/01/2020 13:46:20	26012020	260120	134620	101.530	12.347543	-56.898708	101.380	0.040	-0.910	1.620	101.530	-2.500	1.800																			1580046380.0	11.29	20.91
26/01/2020 13:46:21	26012020	260120	134621	101.160	12.347528	-56.898660	101.070	-0.510	-0.260	1.930	101.160	-1.900	2.300																			1580046381.0	10.86	20.11
26/01/2020 13:46:22	26012020	260120	134622	100.900	12.347515	-56.898612	100.860	-0.850	0.090	1.830	100.900	-1.400	2.300																			1580046382.0	10.62	19.67
26/01/2020 13:46:23	26012020	260120	134623	100.750	12.347502	-56.898560	100.770	-0.820	-0.070	1.560	100.750	-1.400	2.100																			1580046383.0	11.14	20.63
26/01/2020 13:46:24	26012020	260120	134624	100.700	12.347488	-56.898507	100.730	-0.510	-0.190	1.180	100.700	-1.600	1.700																			1580046384.0	11.64	21.56
26/01/2020 13:46:25	26012020	260120	134625	100.700	12.347478	-56.898453	100.740	-0.200	0.040	0.770	100.700	-1.500	1.300																			1580046385.0	11.45	21.21
26/01/2020 13:46:26	26012020	260120	134626	100.750	12.347468	-56.898403	100.830	-0.050	0.450	0.430	100.750	-1.100	1.000																			1580046386.0	10.92	20.22
26/01/2020 13:46:27	26012020	260120	134627	100.930	12.347460	-56.898353	101.060	-0.010	0.610	0.100	100.930	-0.800	0.600																			1580046387.0	10.58	19.59
26/01/2020 13:46:28	26012020	260120	134628	101.200	12.347452	-56.898303	101.350	0.160	0.200	-0.100	101.200	-1.000	0.400																			1580046388.0	10.72	19.85
26/01/2020 13:46:29	26012020	260120	134629	101.450	12.347443	-56.898252	101.530	0.570	-0.590	0.050	101.450	-1.700	0.400																			1580046389.0	11.24	20.82
26/01/2020 13:46:30	26012020	260120	134630	101.540	12.347433	-56.898198	101.520	0.940	-1.050	0.330	101.540	-2.300	0.600																			1580046390.0	11.55	21.39
26/01/2020 13:46:31	26012020	260120	134631	101.480	12.347423	-56.898147	101.410	0.940	-0.930	0.650	101.460	-2.400	0.900																			1580046391.0	11.15	20.65
26/01/2020 13:46:32	26012020	260120	134632	101.330	12.347415	-56.898097	101.290	0.560	-0.550	0.970	101.330	-2.100	1.300																			1580046392.0	10.64	19.71
26/01/2020 13:46:33	26012020	260120	134633	101.250	12.347405	-56.898048	101.180	-0.020	-0.300	1.190	101.220	-1.700	1.500																			1580046393.0	10.54	19.52
26/01/2020 13:46:34	26012020	260120	134634	101.080	12.347393	-56.897998	101.020	-0.550	-0.350	1.390	101.080	-1.700	1.700																			1580046394.0	10.87	20.13
26/01/2020 13:46:35	26012020	260120	134635	100.900	12.347382	-56.897945	100.840	-0.870	-0.480	1.570	100.900	-1.800	1.900																			1580046395.0	11.31	20.95
26/01/2020 13:46:36	26012020	260120	134636	100.750	12.347367	-56.897893	100.630	-0.950	-0.350	1.570	100.700	-1.800	2.000																			1580046396.0	11.43	21.17
26/01/2020 13:46:37	26012020	260120	134637	100.520	12.347353	-56.897843	100.490	-0.820	-0.020	1.190	100.520	-1.500	1.800																			1580046397.0	11.17	20.69
26/01/2020 13:46:38	26012020	260120	134638	100.470	12.347342	-56.897792	100.510	-0.500	0.170	0.600	100.470	-1.200	1.200																			1580046398.0	10.91	20.21
26/01/2020 13:46:39	26012020	260120	134639	100.560	12.347333	-56.897740	100.650	-0.040	0.090	0.130	100.560	-1.200	0.700																			1580046399.0	11.10	20.56
26/01/2020 13:46:40	26012020	260120	134640	100.750	12.347325	-56.897688	100.850	0.370	-0.040	-0.020	100.750	-1.400	0.400																			1580046400.0	11.30	20.93
26/01/2020 13:46:41	26012020	260120	134641	100.970	12.347315	-56.897635	101.060	0.590	-0.060	-0.000	100.970	-1.400	0.400																			1580046401.0	11.18	20.71
26/01/2020 13:46:42	26012020	260120	134642	101.120	12.347307	-56.897585	101.200	0.610	0.010	0.100	101.150	-1.400	0.500																			1580046402.0	10.93	20.24
26/01/2020 13:46:43	26012020	260120	134643	101.260	12.347298	-56.897535	101.290	0.550	-0.010	0.290	101.260	-1.400	0.600																			1580046403.0	10.74	19.89
26/01/2020 13:46:44	26012020	260120	134644	101.360	12.347290	-56.897485	101.380	0.540	-0.290	0.410	101.360	-1.500	0.800																			1580046404.0	10.82	20.04
26/01/2020 13:46:45	26012020	260120	134645	101.420	12.347280	-56.897433	101.430	0.470	-0.620	0.480	101.420	-1.900	0.900																			1580046405.0	11.10	20.56
26/01/2020 13:46:46	26012020	260120	134646	101.420	12.347272	-56.897382	101.370	0.200	-0.670	0.670	101.420	-2.100	1.000																			1580046406.0	11.12	20.59
26/01/2020 13:46:47	26012020	260120	134647	101.320	12.347260	-56.897332	101.280	-0.220	-0.520	0.910	101.320	-2.000	1.200																			1580046407.0	10.80	20.00
26/01/2020 13:46:48	26012020	260120	134648	101.180	12.347248	-56.897282	101.090	-0.560	-0.500	1.080	101.180	-1.900	1.400																			1580046408.0	10.76	19.93
26/01/2020 13:46:49	26012020	260120	134649	100.950	12.347235	-56.897230	100.840	-0.680	-0.580	1.160	100.950	-1.900	1.500																			1580046409.0	11.11	20.58
26/01/2020 13:46:50	26012020	260120	134650	100.680	12.347223	-56.897178	100.560	-0.580	-0.550	1.050	100.680	-1.900	1.500																			1580046410.0	11.26	20.85
26/01/2020 13:46:51	26012020	260120	134651	100.400	12.347212	-56.897127	100.290	-0.310	-0.450	0.820	100.400	-1.900	1.300																			1580046411.0	11.26	20.85
26/01/2020 13:46:52	26012020	260120	134652	100.170	12.347202	-56.897075	100.120	-0.070	-0.300	0.640	100.170	-1.800	1.100																			1580046412.0	11.34	21.00
26/01/2020 13:46:53	26012020	260120	134653	100.080	12.347192	-56.897022	100.140	-0.010	0.000	0.480	100.080	-1.500	1.000																			1580046413.0	11.30	20.93
26/01/2020 13:46:54	26012020	260120	134654	100.170	12.347183	-56.896970	100.370	-0.090	0.390	0.320	100.210	-1.100	0.800																			1580046414.0	11.04	20.45
26/01/2020 13:46:55	26012020	260120	134655	100.440	12.347173	-56.896920	100.730	-0.120	0.610	0.220	100.510	-0.800	0.700																			1580046415.0	10.81	20.02
26/01/2020 13:46:56	26012020	260120	134656	100.830	12.347163	-56.896870	101.120	0.020	0.450	0.260	100.910	-0.800	0.600																			1580046416.0	10.84	20.08
26/01/2020 13:46:57	26012020	260120	134657	101.180	12.347153	-56.896818	101.360	0.330	-0.070	0.490	101.230	-1.200	0.800																			1580046417.0	11.09	20.54
26/01/2020 13:46:58	26012020	260120	134658	101.360	12.347142	-56.896767	101.410	0.590	-0.480	0.630	101.380	-1.800	1.000																			1580046418.0	11.32	20.96
26/01/2020 13:46:59	26012020	260120	134659	101.340	12.347132	-56.896715	101.300	0.570	-0.500	0.700	101.340	-1.900	1.100																			1580046419.0	11.00	20.37
26/01/2020 13:47:00	26012020	260120	134700	101.210	12.347123	-56.896667	101.130	0.370	-0.530	0.760	101.210	-1.900	1.200	1016.70	26.10	26.20	18.70	18.80	669.00	63.00	64.00	375.00	28.20	352.00	10.80	85.00	5.20	49064	3086.00	27.50	27.50	1580046420.0	10.58	19.59
26/01/2020 13:47:01	26012020	260120	134701	101.060	12.347117	-56.896615	101.030	0.210	-0.820	0.630	101.060	-2.100	1.100																			1580046421.0	10.81	20.02
26/01/2020 13:47:02	26012020	260120	134702	100.970	12.347108	-56.896563	100.920	0.080	-0.920	0.650	100.970	-2.300	1.000																			1580046422.0	11.24	20.82
26/01/2020 13:47:03	26012020	260120	134703	100.820	12.347097	-56.896512	100.770	-0.170	-0.590	0.830	100.820	-2.100	1.200																			1580046423.0	11.12	20.59
26/01/2020 13:47:04	26012020	260120	134704	100.720	12.347087	-56.896462	100.710	-0.500	-0.130	0.970	100.710	-1.700	1.300																			1580046424.0	10.77	19.95
26/01/2020 13:47:05	26012020	260120	134705	100.670	12.347073	-56.896412	100.630	-0.630	-0.080	1.050	100.670	-1.400	1.400																			1580046425.0	10.78	19.96
26/01/2020 13:47:06	26012020	260120	134706	100.560	12.347062	-56.896360	100.410	-0.390	-0.440	1.140	100.520	-1.700	1.500																			1580046426.0	11.36	21.04
26/01/2020 13:47:07	26012020	260120	134707	100.290	12.347048	-56.896305	100.300	0.000	-0.520	1.100	100.290	-1.900	1.500																			1580046427.0	11.85	21.95
26/01/2020 13:47:08	26012020	260120	134708	100.350	12.347038	-56.896253	100.540	0.120	-0.010	0.900	100.350	-1.600	1.400																			1580046428.0	11.40	21.11
26/01/2020 13:47:09	26012020	260120	134709	100.640	12.347030	-56.896203	100.950	-0.100	0.620	0.600	100.710	-1.000	1.100																			1580046429.0	10.64	19.71
26/01/2020 13:47:10	26012020	260120	134710	101.040	12.347020	-56.896155	101.230	-0.300	0.710	0.430	101.100	-0.600	0.900																			1580046430.0	10.41	19.28
26/01/2020 13:47:11	26012020	260120	134711	101.250	12.347010	-56.896105	101.240	-0.150	0.110	0.510	101.250	-1.000	0.900																			1580046431.0	10.90	20.19
26/01/2020 13:47:12	26012020	260120	134712	101.200	12.347000	-56.896052	101.210	0.250	-0.570	0.560	101.200	-1.700	1.000																			1580046432.0	11.53	21.35
26/01/2020 13:47:13	26012020	260120	134713	101.220	12.346992	-56.895998	101.290	0.530	-0.740	0.520	101.230	-2.100	1.000																			1580046433.0	11.43	21.17
26/01/2020 13:47:14	26012020	260120	134714	101.320	12.346982	-56.895947	101.380	0.500	-0.550	0.440	101.340	-2.000	0.900																			1580046434.0	10.85	20.09
26/01/2020 13:47:15	26012020	260120	134715	101.400	12.346973	-56.895898	101.410	0.240	-0.320	0.360	101.400	-1.800	0.800																			1580046435.0	10.60	19.63
26/01/2020 13:47:16	26012020	260120	134716	101.400	12.346965	-56.895848	101.400	-0.030	-0.210	0.420	101.400	-1.600	0.800																			1580046436.0	10.66	19.74
26/01/2020 13:47:17	26012020	260120	134717	101.390	12.346955	-56.895798	101.410	-0.130	-0.280	0.540	101.390	-1.600	0.900																			1580046437.0	10.86	20.11
26/01/2020 13:47:18	26012020	260120	134718	101.410	12.346943	-56.895747	101.410	-0.090	-0.420	0.500	101.410	-1.800	0.900																			1580046438.0	11.11	20.58
26/01/2020 13:47:19	26012020	260120	134719	101.380	12.346932	-56.895695	101.330	-0.060	-0.460	0.450	101.380	-1.800	0.900																			1580046439.0	11.17	20.69
26/01/2020 13:47:20	26012020	260120	134720	101.290	12.346922	-56.895643	101.260	-0.040	-0.490	0.440	101.290	-1.800	0.900																			1580046440.0	11.10	20.56
26/01/2020 13:47:21	26012020	260120	134721	101.250	12.346910	-56.895592	101.230	-0.020	-0.520	0.460	101.230	-1.900	0.900																			1580046441.0	11.19	20.72
26/01/2020 13:47:22	26012020	260120	134722	101.210	12.346900	-56.895540	101.190	-0.070	-0.370	0.440	101.200	-1.800	0.900																			1580046442.0	11.27	20.87
26/01/2020 13:47:23	26012020	260120	134723	101.190	12.346890	-56.895488	101.220	-0.200	0.020	0.240	101.200	-1.500	0.700																			1580046443.0	11.05	20.46
26/01/2020 13:47:24	26012020	260120	134724	101.240	12.346880	-56.895438	101.260	-0.280	0.310	0.170	101.250	-1.100	0.600																			1580046444.0	10.73	19.87
26/01/2020 13:47:25	26012020	260120	134725	101.260	12.346870	-56.895388	101.250	-0.210	0.130	0.300	101.260	-1.100	0.600																			1580046445.0	10.89	20.17
26/01/2020 13:47:26	26012020	260120	134726	101.230	12.346858	-56.895335	101.220	-0.090	-0.270	0.500	101.220	-1.500	0.800																			1580046446.0	11.37	21.06
26/01/2020 13:47:27	26012020	260120	134727	101.210	12.346847	-56.895283	101.250	-0.040	-0.410	0.620	101.210	-1.800	1.000																			1580046447.0	11.45	21.21
26/01/2020 13:47:28	26012020	260120	134728	101.250	12.346835	-56.895232	101.310	-0.020	-0.210	0.660	101.270	-1.700	1.100																			1580046448.0	11.07	20.50
26/01/2020 13:47:29	26012020	260120	134729	101.310	12.346823	-56.895183	101.320	0.070	-0.040	0.660	101.310	-1.400	1.100																			1580046449.0	10.71	19.83
26/01/2020 13:47:30	26012020	260120	134730	101.300	12.346813	-56.895132	101.310	0.290	-0.150	0.490	101.300	-1.500	1.000																			1580046450.0	10.83	20.06
26/01/2020 13:47:31	26012020	260120	134731	101.300	12.346805	-56.895080	101.330	0.480	-0.300	0.270	101.310	-1.600	0.800																			1580046451.0	11.14	20.63
26/01/2020 13:47:32	26012020	260120	134732	101.370	12.346797	-56.895028	101.410	0.420	-0.240	0.130	101.370	-1.700	0.600																			1580046452.0	11.08	20.52
26/01/2020 13:47:33	26012020	260120	134733	101.460	12.346787	-56.894978	101.490	0.140	-0.140	0.090	101.460	-1.500	0.500																			1580046453.0	10.76	19.93
26/01/2020 13:47:34	26012020	260120	134734	101.510	12.346778	-56.894928	101.530	-0.090	-0.270	0.330	101.520	-1.600	0.600																			1580046454.0	10.70	19.82
26/01/2020 13:47:35	26012020	260120	134735	101.510	12.346767	-56.894878	101.480	-0.140	-0.630	0.800	101.510	-1.900	1.000																			1580046455.0	11.03	20.43
26/01/2020 13:47:36	26012020	260120	134736	101.420	12.346753	-56.894827	101.260	-0.050	-0.980	1.210	101.370	-2.200	1.500																			1580046456.0	11.35	21.02
26/01/2020 13:47:37	26012020	260120	134737	101.070	12.346740	-56.894773	100.900	0.000	-1.050	1.430	101.070	-2.400	1.800																			1580046457.0	11.48	21.26
26/01/2020 13:47:38	26012020	260120	134738	100.780	12.346728	-56.894722	100.630	-0.100	-0.690	1.390	100.720	-2.300	1.800																			1580046458.0	11.34	21.00
26/01/2020 13:47:39	26012020	260120	134739	100.550	12.346718	-56.894670	100.530	-0.320	0.020	1.200	100.550	-1.600	1.700																			1580046459.0	10.99	20.35
26/01/2020 13:47:40	26012020	260120	134740	100.500	12.346708	-56.894622	100.500	-0.480	0.550	0.910	100.500	-1.000	1.400																			1580046460.0	10.66	19.74
26/01/2020 13:47:41	26012020	260120	134741	100.510	12.346698	-56.894570	100.560	-0.370	0.480	0.600	100.510	-0.800	1.100																			1580046461.0	10.93	20.24
26/01/2020 13:47:42	26012020	260120	134742	100.610	12.346688	-56.894517	100.810	-0.110	0.170	0.440	100.660	-1.100	0.900																			1580046462.0	11.49	21.28
26/01/2020 13:47:43	26012020	260120	134743	100.910	12.346678	-56.894463	101.180	0.110	0.020	0.380	100.990	-1.300	0.800																			1580046463.0	11.46	21.22
26/01/2020 13:47:44	26012020	260120	134744	101.290	12.346668	-56.894413	101.530	0.240	-0.010	0.380	101.370	-1.400	0.800																			1580046464.0	11.06	20.48
26/01/2020 13:47:45	26012020	260120	134745	101.660	12.346657	-56.894362	101.780	0.320	-0.030	0.450	101.660	-1.400	0.800																			1580046465.0	10.81	20.02
26/01/2020 13:47:46	26012020	260120	134746	101.830	12.346648	-56.894313	101.980	0.320	-0.050	0.550	101.870	-1.400	0.900																			1580046466.0	10.69	19.80
26/01/2020 13:47:47	26012020	260120	134747	102.010	12.346638	-56.894263	102.120	0.230	-0.180	0.630	102.040	-1.500	1.000																			1580046467.0	10.60	19.63
26/01/2020 13:47:48	26012020	260120	134748	102.100	12.346628	-56.894213	102.020	0.170	-0.660	0.700	102.080	-1.800	1.100																			1580046468.0	10.73	19.87
26/01/2020 13:47:49	26012020	260120	134749	101.880	12.346618	-56.894162	101.750	0.250	-1.270	0.780	101.880	-2.400	1.200																			1580046469.0	11.21	20.76
26/01/2020 13:47:50	26012020	260120	134750	101.620	12.346608	-56.894108	101.450	0.330	-1.430	0.910	101.560	-2.800	1.300																			1580046470.0	11.52	21.34
26/01/2020 13:47:51	26012020	260120	134751	101.300	12.346598	-56.894057	101.230	0.240	-1.010	0.960	101.300	-2.600	1.400																			1580046471.0	11.23	20.80
26/01/2020 13:47:52	26012020	260120	134752	101.140	12.346587	-56.894007	100.990	-0.060	-0.430	0.890	101.090	-2.000	1.300																			1580046472.0	10.89	20.17
26/01/2020 13:47:53	26012020	260120	134753	100.860	12.346577	-56.893955	100.800	-0.440	0.060	0.760	100.860	-1.500	1.200																			1580046473.0	11.00	20.37
26/01/2020 13:47:54	26012020	260120	134754	100.780	12.346567	-56.893903	100.880	-0.740	0.470	0.620	100.780	-1.000	1.100																			1580046474.0	11.14	20.63
26/01/2020 13:47:55	26012020	260120	134755	100.970	12.346555	-56.893852	101.140	-0.830	0.610	0.480	100.970	-0.800	0.900																			1580046475.0	11.13	20.61
26/01/2020 13:47:56	26012020	260120	134756	101.200	12.346542	-56.893800	101.470	-0.640	0.480	0.210	101.270	-0.800	0.700																			1580046476.0	11.27	20.87
26/01/2020 13:47:57	26012020	260120	134757	101.540	12.346530	-56.893748	101.790	-0.250	0.230	0.080	101.610	-1.100	0.500																			1580046477.0	11.34	21.00
26/01/2020 13:47:58	26012020	260120	134758	101.880	12.346518	-56.893697	102.020	0.160	0.040	0.100	101.880	-1.300	0.500																			1580046478.0	11.22	20.78
26/01/2020 13:47:59	26012020	260120	134759	102.040	12.346508	-56.893645	102.180	0.450	-0.070	0.040	102.070	-1.400	0.500																			1580046479.0	10.97	20.32
26/01/2020 13:48:00	26012020	260120	134800	102.220	12.346500	-56.893595	102.310	0.580	-0.250	0.020	102.220	-1.600	0.400	1016.70	26.10	26.20	18.30	18.50	674.00	62.00	62.00	374.00	28.20	352.00	10.70	84.00	5.10	49402	3140.00	27.50	27.40	1580046480.0	10.77	19.95
26/01/2020 13:48:01	26012020	260120	134801	102.330	12.346492	-56.893545	102.350	0.570	-0.490	0.280	102.330	-1.800	0.600																			1580046481.0	10.81	20.02
26/01/2020 13:48:02	26012020	260120	134802	102.270	12.346482	-56.893495	102.200	0.440	-0.720	0.700	102.270	-2.000	0.900																			1580046482.0	10.83	20.06
26/01/2020 13:48:03	26012020	260120	134803	102.000	12.346470	-56.893445	101.820	0.350	-1.010	1.050	102.000	-2.300	1.300																			1580046483.0	10.94	20.26
26/01/2020 13:48:04	26012020	260120	134804	101.660	12.346458	-56.893393	101.400	0.410	-1.180	1.210	101.570	-2.500	1.600																			1580046484.0	11.24	20.82
26/01/2020 13:48:05	26012020	260120	134805	101.170	12.346447	-56.893340	101.080	0.390	-0.920	1.200	101.170	-2.500	1.600																			1580046485.0	11.37	21.06
26/01/2020 13:48:06	26012020	260120	134806	100.980	12.346437	-56.893288	100.950	0.060	-0.290	1.050	100.950	-1.900	1.500																			1580046486.0	11.07	20.50
26/01/2020 13:48:07	26012020	260120	134807	100.910	12.346427	-56.893238	101.000	-0.430	0.290	0.930	100.920	-1.300	1.400																			1580046487.0	10.79	19.98
26/01/2020 13:48:08	26012020	260120	134808	101.010	12.346417	-56.893188	101.210	-0.790	0.540	0.840	101.050	-0.900	1.300																			1580046488.0	10.88	20.15
26/01/2020 13:48:09	26012020	260120	134809	101.250	12.346403	-56.893137	101.450	-0.810	0.390	0.770	101.290	-0.900	1.200																			1580046489.0	11.15	20.65
26/01/2020 13:48:10	26012020	260120	134810	101.460	12.346392	-56.893085	101.580	-0.580	0.080	0.780	101.490	-1.200	1.200																			1580046490.0	11.42	21.15
26/01/2020 13:48:11	26012020	260120	134811	101.570	12.346378	-56.893033	101.700	-0.330	-0.110	0.840	101.590	-1.400	1.200																			1580046491.0	11.36	21.04
26/01/2020 13:48:12	26012020	260120	134812	101.680	12.346367	-56.892982	101.730	-0.090	-0.340	0.880	101.680	-1.600	1.300																			1580046492.0	11.09	20.54
26/01/2020 13:48:13	26012020	260120	134813	101.670	12.346357	-56.892930	101.700	0.200	-0.620	0.760	101.670	-1.900	1.200																			1580046493.0	11.13	20.61
26/01/2020 13:48:14	26012020	260120	134814	101.670	12.346347	-56.892878	101.740	0.430	-0.640	0.600	101.670	-2.100	1.100																			1580046494.0	11.26	20.85
26/01/2020 13:48:15	26012020	260120	134815	101.730	12.346338	-56.892827	101.800	0.480	-0.240	0.570	101.730	-1.800	1.000																			1580046495.0	10.95	20.28
26/01/2020 13:48:16	26012020	260120	134816	101.770	12.346328	-56.892778	101.770	0.420	0.090	0.520	101.770	-1.400	1.000																			1580046496.0	10.53	19.50
26/01/2020 13:48:17	26012020	260120	134817	101.690	12.346320	-56.892728	101.650	0.420	-0.100	0.470	101.690	-1.400	0.900																			1580046497.0	10.74	19.89
26/01/2020 13:48:18	26012020	260120	134818	101.560	12.346310	-56.892675	101.550	0.460	-0.440	0.490	101.560	-1.700	0.900																			1580046498.0	11.37	21.06
26/01/2020 13:48:19	26012020	260120	134819	101.540	12.346302	-56.892622	101.630	0.330	-0.400	0.560	101.540	-1.800	0.900																			1580046499.0	11.38	21.08
26/01/2020 13:48:20	26012020	260120	134820	101.640	12.346292	-56.892572	101.760	0.010	-0.230	0.720	101.670	-1.700	1.100																			1580046500.0	10.92	20.22
26/01/2020 13:48:21	26012020	260120	134821	101.750	12.346280	-56.892522	101.760	-0.300	-0.250	0.970	101.750	-1.600	1.300																			1580046501.0	10.87	20.13
26/01/2020 13:48:22	26012020	260120	134822	101.710	12.346267	-56.892470	101.670	-0.510	-0.260	1.220	101.690	-1.700	1.500																			1580046502.0	11.11	20.58
26/01/2020 13:48:23	26012020	260120	134823	101.600	12.346253	-56.892420	101.550	-0.570	-0.230	1.300	101.570	-1.600	1.700																			1580046503.0	11.09	20.54
26/01/2020 13:48:24	26012020	260120	134824	101.480	12.346240	-56.892368	101.460	-0.460	-0.280	1.090	101.460	-1.600	1.600																			1580046504.0	11.03	20.43
26/01/2020 13:48:25	26012020	260120	134825	101.400	12.346230	-56.892317	101.400	-0.210	-0.490	0.730	101.400	-1.800	1.300																			1580046505.0	11.18	20.71
26/01/2020 13:48:26	26012020	260120	134826	101.360	12.346220	-56.892265	101.360	0.100	-0.670	0.400	101.360	-2.000	0.900																			1580046506.0	11.42	21.15
26/01/2020 13:48:27	26012020	260120	134827	101.370	12.346212	-56.892212	101.410	0.270	-0.500	0.130	101.370	-2.000	0.600																			1580046507.0	11.44	21.19
26/01/2020 13:48:28	26012020	260120	134828	101.470	12.346202	-56.892160	101.550	0.200	0.040	0.010	101.470	-1.600	0.400																			1580046508.0	11.01	20.39
26/01/2020 13:48:29	26012020	260120	134829	101.600	12.346193	-56.892110	101.660	0.020	0.420	0.160	101.620	-1.100	0.500																			1580046509.0	10.58	19.59
26/01/2020 13:48:30	26012020	260120	134830	101.670	12.346183	-56.892060	101.630	-0.020	0.200	0.470	101.670	-1.000	0.800																			1580046510.0	10.78	19.96
26/01/2020 13:48:31	26012020	260120	134831	101.590	12.346172	-56.892008	101.530	0.080	-0.320	0.710	101.590	-1.500	1.000																			1580046511.0	11.41	21.13
26/01/2020 13:48:32	26012020	260120	134832	101.450	12.346160	-56.891955	101.400	0.150	-0.610	0.910	101.450	-1.900	1.300																			1580046512.0	11.60	21.48
26/01/2020 13:48:33	26012020	260120	134833	101.340	12.346148	-56.891902	101.340	0.060	-0.490	0.990	101.340	-2.000	1.400																			1580046513.0	11.31	20.95
26/01/2020 13:48:34	26012020	260120	134834	101.330	12.346137	-56.891852	101.380	-0.150	-0.040	0.900	101.340	-1.600	1.400																			1580046514.0	10.82	20.04
26/01/2020 13:48:35	26012020	260120	134835	101.390	12.346127	-56.891803	101.430	-0.270	0.260	0.690	101.400	-1.200	1.200																			1580046515.0	10.48	19.41
26/01/2020 13:48:36	26012020	260120	134836	101.440	12.346117	-56.891755	101.450	-0.060	-0.000	0.380	101.440	-1.200	0.900																			1580046516.0	10.71	19.83
26/01/2020 13:48:37	26012020	260120	134837	101.450	12.346107	-56.891702	101.430	0.370	-0.590	0.190	101.440	-1.800	0.600																			1580046517.0	11.34	21.00
26/01/2020 13:48:38	26012020	260120	134838	101.430	12.346097	-56.891647	101.420	0.590	-0.790	0.240	101.430	-2.200	0.600																			1580046518.0	11.63	21.54
26/01/2020 13:48:39	26012020	260120	134839	101.420	12.346088	-56.891595	101.420	0.370	-0.450	0.410	101.420	-2.000	0.700																			1580046519.0	11.10	20.56
26/01/2020 13:48:40	26012020	260120	134840	101.420	12.346078	-56.891547	101.410	-0.030	-0.160	0.670	101.410	-1.600	1.000																			1580046520.0	10.56	19.56
26/01/2020 13:48:41	26012020	260120	134841	101.350	12.346067	-56.891497	101.310	-0.260	-0.320	0.960	101.350	-1.600	1.300																			1580046521.0	10.80	20.00
26/01/2020 13:48:42	26012020	260120	134842	101.260	12.346055	-56.891445	101.240	-0.290	-0.630	1.110	101.250	-1.900	1.500																			1580046522.0	11.41	21.13
26/01/2020 13:48:43	26012020	260120	134843	101.200	12.346043	-56.891392	101.210	-0.280	-0.550	1.160	101.200	-2.000	1.600																			1580046523.0	11.55	21.39
26/01/2020 13:48:44	26012020	260120	134844	101.190	12.346030	-56.891340	101.220	-0.370	-0.080	1.040	101.190	-1.700	1.500																			1580046524.0	11.09	20.54
26/01/2020 13:48:45	26012020	260120	134845	101.200	12.346020	-56.891292	101.200	-0.400	0.210	0.750	101.200	-1.200	1.300																			1580046525.0	10.70	19.82
26/01/2020 13:48:46	26012020	260120	134846	101.170	12.346010	-56.891240	101.140	-0.240	0.060	0.460	101.160	-1.200	1.000																			1580046526.0	11.00	20.37
26/01/2020 13:48:47	26012020	260120	134847	101.110	12.346000	-56.891187	101.080	0.070	-0.220	0.310	101.100	-1.500	0.800																			1580046527.0	11.43	21.17
26/01/2020 13:48:48	26012020	260120	134848	101.090	12.345990	-56.891133	101.170	0.290	-0.250	0.270	101.100	-1.700	0.700																			1580046528.0	11.48	21.26
26/01/2020 13:48:49	26012020	260120	134849	101.220	12.345982	-56.891082	101.380	0.270	0.030	0.380	101.260	-1.500	0.700																			1580046529.0	11.06	20.48
26/01/2020 13:48:50	26012020	260120	134850	101.440	12.345972	-56.891033	101.510	0.100	0.220	0.610	101.440	-1.200	0.900																			1580046530.0	10.64	19.71
26/01/2020 13:48:51	26012020	260120	134851	101.510	12.345960	-56.890983	101.540	0.050	0.020	0.790	101.510	-1.200	1.200																			1580046531.0	10.71	19.83
26/01/2020 13:48:52	26012020	260120	134852	101.530	12.345950	-56.890932	101.550	0.220	-0.470	0.840	101.530	-1.700	1.300																			1580046532.0	11.11	20.58
26/01/2020 13:48:53	26012020	260120	134853	101.510	12.345940	-56.890878	101.510	0.460	-0.880	0.750	101.510	-2.100	1.200																			1580046533.0	11.39	21.09
26/01/2020 13:48:54	26012020	260120	134854	101.470	12.345930	-56.890827	101.450	0.500	-0.860	0.630	101.460	-2.300	1.100																			1580046534.0	11.35	21.02
26/01/2020 13:48:55	26012020	260120	134855	101.420	12.345922	-56.890775	101.390	0.230	-0.430	0.630	101.400	-2.000	1.000																			1580046535.0	10.91	20.21
26/01/2020 13:48:56	26012020	260120	134856	101.360	12.345912	-56.890727	101.380	-0.200	-0.010	0.630	101.360	-1.500	1.000																			1580046536.0	10.58	19.59
26/01/2020 13:48:57	26012020	260120	134857	101.390	12.345902	-56.890677	101.410	-0.530	0.040	0.560	101.390	-1.300	1.000																			1580046537.0	10.68	19.78
26/01/2020 13:48:58	26012020	260120	134858	101.390	12.345890	-56.890625	101.350	-0.550	-0.350	0.650	101.390	-1.500	1.000																			1580046538.0	11.12	20.59
26/01/2020 13:48:59	26012020	260120	134859	101.310	12.345878	-56.890572	101.210	-0.340	-0.770	0.910	101.280	-2.000	1.200																			1580046539.0	11.67	21.61
26/01/2020 13:49:00	26012020	260120	134900	101.160	12.345865	-56.890518	101.100	-0.180	-0.680	1.070	101.140	-2.200	1.400	1016.70	26.10	26.20	18.70	18.80	662.00	63.00	63.00	375.00	28.20	354.00	10.10	88.00	4.50	49028	3142.00	27.50	27.40	1580046540.0	11.68	21.63
26/01/2020 13:49:01	26012020	260120	134901	101.060	12.345853	-56.890467	101.060	-0.200	-0.170	1.030	101.050	-1.800	1.500																			1580046541.0	11.16	20.67
26/01/2020 13:49:02	26012020	260120	134902	101.060	12.345842	-56.890417	101.080	-0.250	0.320	0.770	101.060	-1.200	1.300																			1580046542.0	10.74	19.89
26/01/2020 13:49:03	26012020	260120	134903	101.080	12.345832	-56.890367	101.120	-0.080	0.360	0.390	101.090	-1.000	0.900																			1580046543.0	10.81	20.02
26/01/2020 13:49:04	26012020	260120	134904	101.150	12.345823	-56.890315	101.280	0.300	0.030	-0.030	101.180	-1.200	0.500																			1580046544.0	11.29	20.91
26/01/2020 13:49:05	26012020	260120	134905	101.430	12.345817	-56.890260	101.580	0.510	-0.080	-0.180	101.430	-1.500	0.200																			1580046545.0	11.52	21.34
26/01/2020 13:49:06	26012020	260120	134906	101.730	12.345808	-56.890208	101.860	0.370	0.110	0.030	101.730	-1.400	0.300																			1580046546.0	10.99	20.35
26/01/2020 13:49:07	26012020	260120	134907	101.920	12.345798	-56.890160	101.930	0.070	0.100	0.320	101.920	-1.200	0.600																			1580046547.0	10.50	19.45
26/01/2020 13:49:08	26012020	260120	134908	101.880	12.345787	-56.890110	101.810	-0.030	-0.440	0.700	101.880	-1.600	1.000																			1580046548.0	10.76	19.93
26/01/2020 13:49:09	26012020	260120	134909	101.700	12.345773	-56.890058	101.620	0.090	-1.020	1.050	101.700	-2.200	1.400																			1580046549.0	11.38	21.08
26/01/2020 13:49:10	26012020	260120	134910	101.540	12.345762	-56.890007	101.430	0.190	-1.060	1.090	101.500	-2.500	1.500																			1580046550.0	11.41	21.13
26/01/2020 13:49:11	26012020	260120	134911	101.340	12.345752	-56.889955	101.190	0.140	-0.690	0.960	101.290	-2.200	1.400																			1580046551.0	10.93	20.24
26/01/2020 13:49:12	26012020	260120	134912	101.110	12.345743	-56.889905	101.030	-0.060	-0.340	0.790	101.080	-1.800	1.300																			1580046552.0	10.73	19.87
26/01/2020 13:49:13	26012020	260120	134913	100.990	12.345733	-56.889855	100.970	-0.270	-0.250	0.690	100.980	-1.600	1.100																			1580046553.0	10.97	20.32
26/01/2020 13:49:14	26012020	260120	134914	100.940	12.345722	-56.889802	100.940	-0.320	-0.240	0.650	100.940	-1.600	1.100																			1580046554.0	11.28	20.89
26/01/2020 13:49:15	26012020	260120	134915	100.920	12.345710	-56.889750	100.950	-0.190	-0.110	0.590	100.920	-1.600	1.000																			1580046555.0	11.36	21.04
26/01/2020 13:49:16	26012020	260120	134916	100.960	12.345700	-56.889698	101.020	-0.050	0.090	0.590	100.960	-1.400	1.000																			1580046556.0	11.23	20.80
26/01/2020 13:49:17	26012020	260120	134917	101.040	12.345688	-56.889647	101.110	-0.070	0.220	0.590	101.040	-1.200	1.000																			1580046557.0	11.09	20.54
26/01/2020 13:49:18	26012020	260120	134918	101.160	12.345678	-56.889595	101.270	-0.230	0.180	0.580	101.160	-1.200	1.000																			1580046558.0	11.05	20.46
26/01/2020 13:49:19	26012020	260120	134919	101.290	12.345668	-56.889543	101.430	-0.280	-0.030	0.710	101.330	-1.300	1.100																			1580046559.0	11.08	20.52
26/01/2020 13:49:20	26012020	260120	134920	101.440	12.345657	-56.889493	101.530	-0.100	-0.270	0.830	101.460	-1.600	1.200																			1580046560.0	11.17	20.69
26/01/2020 13:49:21	26012020	260120	134921	101.500	12.345645	-56.889442	101.520	0.120	-0.350	0.920	101.500	-1.700	1.300																			1580046561.0	11.15	20.65
26/01/2020 13:49:22	26012020	260120	134922	101.480	12.345635	-56.889390	101.500	0.220	-0.300	0.940	101.480	-1.700	1.400																			1580046562.0	10.91	20.21
26/01/2020 13:49:23	26012020	260120	134923	101.480	12.345625	-56.889340	101.520	0.270	-0.400	0.740	101.480	-1.700	1.200																			1580046563.0	10.79	19.98
26/01/2020 13:49:24	26012020	260120	134924	101.480	12.345617	-56.889288	101.450	0.360	-0.620	0.500	101.470	-1.900	1.000																			1580046564.0	11.08	20.52
26/01/2020 13:49:25	26012020	260120	134925	101.400	12.345608	-56.889237	101.360	0.380	-0.640	0.180	101.390	-2.000	0.700																			1580046565.0	11.24	20.82
26/01/2020 13:49:26	26012020	260120	134926	101.330	12.345602	-56.889185	101.280	0.310	-0.420	0.040	101.310	-1.900	0.500																			1580046566.0	11.08	20.52
26/01/2020 13:49:27	26012020	260120	134927	101.240	12.345593	-56.889133	101.200	0.180	-0.200	0.240	101.220	-1.600	0.600																			1580046567.0	10.92	20.22
26/01/2020 13:49:28	26012020	260120	134928	101.160	12.345582	-56.889082	101.170	-0.010	-0.170	0.440	101.150	-1.500	0.800																			1580046568.0	11.01	20.39
26/01/2020 13:49:29	26012020	260120	134929	101.160	12.345572	-56.889030	101.260	-0.250	-0.190	0.510	101.170	-1.600	0.900																			1580046569.0	11.24	20.82
26/01/2020 13:49:30	26012020	260120	134930	101.270	12.345560	-56.888978	101.390	-0.490	-0.030	0.560	101.300	-1.500	0.900																			1580046570.0	11.19	20.72
26/01/2020 13:49:31	26012020	260120	134931	101.380	12.345548	-56.888928	101.410	-0.610	0.030	0.620	101.390	-1.300	1.000																			1580046571.0	10.95	20.28
26/01/2020 13:49:32	26012020	260120	134932	101.380	12.345537	-56.888878	101.380	-0.510	-0.220	0.600	101.370	-1.500	1.000																			1580046572.0	11.08	20.52
26/01/2020 13:49:33	26012020	260120	134933	101.340	12.345525	-56.888825	101.370	-0.240	-0.470	0.540	101.340	-1.800	1.000																			1580046573.0	11.39	21.09
26/01/2020 13:49:34	26012020	260120	134934	101.350	12.345513	-56.888773	101.400	0.070	-0.510	0.350	101.360	-1.900	0.800																			1580046574.0	11.36	21.04
26/01/2020 13:49:35	26012020	260120	134935	101.380	12.345503	-56.888720	101.390	0.260	-0.290	0.050	101.380	-1.800	0.600																			1580046575.0	11.14	20.63
26/01/2020 13:49:36	26012020	260120	134936	101.370	12.345495	-56.888670	101.340	0.300	-0.020	-0.130	101.360	-1.500	0.300																			1580046576.0	10.87	20.13
26/01/2020 13:49:37	26012020	260120	134937	101.320	12.345487	-56.888620	101.350	0.310	0.030	-0.020	101.320	-1.300	0.300																			1580046577.0	10.85	20.09
26/01/2020 13:49:38	26012020	260120	134938	101.360	12.345478	-56.888568	101.470	0.290	-0.140	0.130	101.380	-1.400	0.500																			1580046578.0	11.09	20.54
26/01/2020 13:49:39	26012020	260120	134939	101.500	12.345468	-56.888515	101.610	0.190	-0.260	0.280	101.530	-1.600	0.600																			1580046579.0	11.25	20.84
26/01/2020 13:49:40	26012020	260120	134940	101.610	12.345457	-56.888465	101.680	-0.000	-0.210	0.530	101.620	-1.600	0.800																			1580046580.0	11.08	20.52
26/01/2020 13:49:41	26012020	260120	134941	101.650	12.345445	-56.888415	101.660	-0.130	-0.160	0.760	101.650	-1.500	1.100																			1580046581.0	10.83	20.06
26/01/2020 13:49:42	26012020	260120	134942	101.590	12.345433	-56.888365	101.550	-0.050	-0.400	0.860	101.570	-1.700	1.300																			1580046582.0	10.91	20.21
26/01/2020 13:49:43	26012020	260120	134943	101.480	12.345423	-56.888312	101.460	0.140	-0.750	0.730	101.460	-2.000	1.200																			1580046583.0	11.35	21.02
26/01/2020 13:49:44	26012020	260120	134944	101.400	12.345413	-56.888258	101.440	0.160	-0.680	0.570	101.400	-2.100	1.000																			1580046584.0	11.47	21.24
26/01/2020 13:49:45	26012020	260120	134945	101.420	12.345403	-56.888208	101.490	-0.050	-0.180	0.410	101.430	-1.800	0.900																			1580046585.0	10.96	20.30
26/01/2020 13:49:46	26012020	260120	134946	101.490	12.345393	-56.888158	101.550	-0.230	0.130	0.280	101.490	-1.300	0.700																			1580046586.0	10.56	19.56
26/01/2020 13:49:47	26012020	260120	134947	101.530	12.345383	-56.888108	101.560	-0.180	-0.090	0.320	101.530	-1.300	0.700																			1580046587.0	10.89	20.17
26/01/2020 13:49:48	26012020	260120	134948	101.500	12.345373	-56.888055	101.480	-0.050	-0.470	0.430	101.480	-1.700	0.800																			1580046588.0	11.51	21.32
26/01/2020 13:49:49	26012020	260120	134949	101.430	12.345362	-56.888002	101.490	-0.050	-0.440	0.480	101.420	-1.900	0.900																			1580046589.0	11.53	21.35
26/01/2020 13:49:50	26012020	260120	134950	101.490	12.345352	-56.887950	101.690	-0.140	-0.100	0.510	101.530	-1.600	0.900																			1580046590.0	11.01	20.39
26/01/2020 13:49:51	26012020	260120	134951	101.700	12.345340	-56.887900	101.840	-0.200	0.040	0.640	101.730	-1.400	1.000																			1580046591.0	10.75	19.91
26/01/2020 13:49:52	26012020	260120	134952	101.810	12.345328	-56.887850	101.850	-0.180	-0.090	0.810	101.810	-1.400	1.200																			1580046592.0	11.01	20.39
26/01/2020 13:49:53	26012020	260120	134953	101.800	12.345317	-56.887798	101.850	-0.040	-0.180	0.800	101.800	-1.500	1.200																			1580046593.0	11.21	20.76
26/01/2020 13:49:54	26012020	260120	134954	101.820	12.345307	-56.887747	101.890	0.200	-0.230	0.530	101.830	-1.600	1.100																			1580046594.0	11.07	20.50
26/01/2020 13:49:55	26012020	260120	134955	101.870	12.345297	-56.887695	101.920	0.450	-0.400	0.180	101.880	-1.700	0.700																			1580046595.0	11.10	20.56
26/01/2020 13:49:56	26012020	260120	134956	101.920	12.345290	-56.887643	102.000	0.510	-0.410	0.020	101.930	-1.800	0.500																			1580046596.0	11.25	20.84
26/01/2020 13:49:57	26012020	260120	134957	102.000	12.345282	-56.887592	102.050	0.310	-0.170	0.090	102.010	-1.700	0.400																			1580046597.0	10.97	20.32
26/01/2020 13:49:58	26012020	260120	134958	102.010	12.345272	-56.887542	101.970	0.060	0.010	0.330	102.000	-1.400	0.600																			1580046598.0	10.67	19.76
26/01/2020 13:49:59	26012020	260120	134959	101.920	12.345260	-56.887492	101.900	-0.110	-0.180	0.520	101.890	-1.400	0.900																			1580046599.0	10.83	20.06
26/01/2020 13:50:00	26012020	260120	135000	101.880	12.345250	-56.887440	101.930	-0.170	-0.550	0.690	101.880	-1.800	1.000	1016.70	26.10	26.20	18.70	18.70	671.00	63.00	63.00	375.00	28.20	359.00	10.80	99.00	5.10	49598	3178.00	27.50	27.40	1580046600.0	11.26	20.85
26/01/2020 13:50:01	26012020	260120	135001	101.900	12.345237	-56.887388	101.920	-0.190	-0.650	0.840	101.900	-2.000	1.200																			1580046601.0	11.41	21.13
26/01/2020 13:50:02	26012020	260120	135002	101.870	12.345225	-56.887337	101.860	-0.230	-0.400	0.750	101.850	-1.900	1.200																			1580046602.0	11.10	20.56
26/01/2020 13:50:03	26012020	260120	135003	101.810	12.345213	-56.887287	101.780	-0.200	-0.210	0.510	101.790	-1.600	1.000																			1580046603.0	10.83	20.06
26/01/2020 13:50:04	26012020	260120	135004	101.740	12.345203	-56.887237	101.740	-0.080	-0.250	0.300	101.730	-1.600	0.800																			1580046604.0	11.02	20.41
26/01/2020 13:50:05	26012020	260120	135005	101.720	12.345193	-56.887183	101.770	0.010	-0.310	0.140	101.720	-1.700	0.600																			1580046605.0	11.30	20.93
26/01/2020 13:50:06	26012020	260120	135006	101.770	12.345183	-56.887132	101.850	-0.010	-0.180	0.040	101.790	-1.600	0.500																			1580046606.0	11.23	20.80
26/01/2020 13:50:07	26012020	260120	135007	101.850	12.345173	-56.887080	101.920	-0.090	-0.030	0.110	101.870	-1.400	0.500																			1580046607.0	11.00	20.37
26/01/2020 13:50:08	26012020	260120	135008	101.910	12.345162	-56.887030	101.950	-0.050	-0.050	0.360	101.920	-1.400	0.700																			1580046608.0	10.97	20.32
26/01/2020 13:50:09	26012020	260120	135009	101.930	12.345150	-56.886978	101.950	0.130	-0.170	0.580	101.930	-1.500	0.900																			1580046609.0	11.18	20.71
26/01/2020 13:50:10	26012020	260120	135010	101.920	12.345138	-56.886927	101.940	0.270	-0.180	0.680	101.920	-1.600	1.100																			1580046610.0	11.21	20.76
26/01/2020 13:50:11	26012020	260120	135011	101.920	12.345128	-56.886875	102.000	0.220	-0.080	0.570	101.930	-1.500	1.000																			1580046611.0	11.01	20.39
26/01/2020 13:50:12	26012020	260120	135012	102.000	12.345118	-56.886825	102.070	0.080	-0.110	0.340	102.030	-1.400	0.800																			1580046612.0	10.85	20.09
26/01/2020 13:50:13	26012020	260120	135013	102.040	12.345110	-56.886773	102.000	0.040	-0.360	0.270	102.030	-1.600	0.700																			1580046613.0	11.00	20.37
26/01/2020 13:50:14	26012020	260120	135014	101.980	12.345100	-56.886722	101.990	0.040	-0.530	0.380	101.960	-1.900	0.700																			1580046614.0	11.28	20.89
26/01/2020 13:50:15	26012020	260120	135015	101.980	12.345088	-56.886670	102.020	-0.050	-0.410	0.650	101.980	-1.900	0.900																			1580046615.0	11.10	20.56
26/01/2020 13:50:16	26012020	260120	135016	101.990	12.345077	-56.886620	102.010	-0.210	-0.280	0.810	101.990	-1.700	1.200																			1580046616.0	10.81	20.02
26/01/2020 13:50:17	26012020	260120	135017	101.960	12.345065	-56.886570	101.940	-0.240	-0.420	0.840	101.950	-1.700	1.200																			1580046617.0	10.96	20.30
26/01/2020 13:50:18	26012020	260120	135018	101.880	12.345052	-56.886518	101.820	-0.140	-0.580	0.810	101.850	-1.900	1.200																			1580046618.0	11.34	21.00
26/01/2020 13:50:19	26012020	260120	135019	101.770	12.345040	-56.886467	101.800	-0.000	-0.410	0.580	101.760	-1.900	1.100																			1580046619.0	11.35	21.02
26/01/2020 13:50:20	26012020	260120	135020	101.790	12.345032	-56.886415	101.880	0.050	-0.020	0.230	101.810	-1.500	0.800																			1580046620.0	10.99	20.35
26/01/2020 13:50:21	26012020	260120	135021	101.880	12.345022	-56.886365	101.910	0.080	0.150	0.040	101.890	-1.200	0.500																			1580046621.0	10.77	19.95
26/01/2020 13:50:22	26012020	260120	135022	101.890	12.345013	-56.886313	101.900	0.200	-0.120	0.070	101.890	-1.400	0.400																			1580046622.0	11.06	20.48
26/01/2020 13:50:23	26012020	260120	135023	101.900	12.345003	-56.886260	101.990	0.300	-0.450	0.260	101.910	-1.700	0.600																			1580046623.0	11.53	21.35
26/01/2020 13:50:24	26012020	260120	135024	102.010	12.344992	-56.886207	102.190	0.140	-0.350	0.460	102.050	-1.800	0.800																			1580046624.0	11.47	21.24
26/01/2020 13:50:25	26012020	260120	135025	102.220	12.344980	-56.886157	102.440	-0.290	0.090	0.640	102.280	-1.400	1.000																			1580046625.0	10.85	20.09
26/01/2020 13:50:26	26012020	260120	135026	102.450	12.344968	-56.886108	102.560	-0.570	0.250	0.790	102.480	-1.100	1.100																			1580046626.0	10.46	19.37
26/01/2020 13:50:27	26012020	260120	135027	102.510	12.344955	-56.886060	102.490	-0.390	-0.170	0.830	102.510	-1.300	1.200																			1580046627.0	10.86	20.11
26/01/2020 13:50:28	26012020	260120	135028	102.420	12.344942	-56.886007	102.380	0.080	-0.680	0.590	102.400	-1.900	1.100																			1580046628.0	11.50	21.30
26/01/2020 13:50:29	26012020	260120	135029	102.340	12.344933	-56.885953	102.360	0.370	-0.650	0.230	102.330	-2.100	0.800																			1580046629.0	11.51	21.32
26/01/2020 13:50:30	26012020	260120	135030	102.350	12.344925	-56.885902	102.380	0.320	-0.210	-0.020	102.360	-1.800	0.500																			1580046630.0	10.87	20.13
26/01/2020 13:50:31	26012020	260120	135031	102.370	12.344915	-56.885853	102.350	0.080	0.000	-0.030	102.360	-1.400	0.300																			1580046631.0	10.51	19.46
26/01/2020 13:50:32	26012020	260120	135032	102.310	12.344905	-56.885803	102.240	-0.020	-0.340	0.260	102.280	-1.500	0.500																			1580046632.0	10.88	20.15
26/01/2020 13:50:33	26012020	260120	135033	102.170	12.344892	-56.885750	102.100	0.060	-0.700	0.670	102.140	-2.000	0.900																			1580046633.0	11.53	21.35
26/01/2020 13:50:34	26012020	260120	135034	102.030	12.344878	-56.885698	101.970	0.140	-0.530	0.810	102.000	-2.000	1.200																			1580046634.0	11.46	21.22
26/01/2020 13:50:35	26012020	260120	135035	101.900	12.344867	-56.885647	101.810	0.140	-0.190	0.700	101.870	-1.700	1.100																			1580046635.0	10.90	20.19
26/01/2020 13:50:36	26012020	260120	135036	101.750	12.344857	-56.885597	101.750	0.050	-0.040	0.620	101.730	-1.500	1.000																			1580046636.0	10.87	20.13
26/01/2020 13:50:37	26012020	260120	135037	101.740	12.344847	-56.885547	101.790	-0.110	0.040	0.500	101.740	-1.400	0.900																			1580046637.0	11.06	20.48
26/01/2020 13:50:38	26012020	260120	135038	101.790	12.344837	-56.885495	101.870	-0.270	0.140	0.470	101.810	-1.300	0.900																			1580046638.0	11.01	20.39
26/01/2020 13:50:39	26012020	260120	135039	101.850	12.344825	-56.885445	101.890	-0.310	-0.050	0.600	101.860	-1.300	0.900																			1580046639.0	10.93	20.24
26/01/2020 13:50:40	26012020	260120	135040	101.860	12.344813	-56.885393	101.890	-0.200	-0.420	0.800	101.850	-1.700	1.100																			1580046640.0	11.26	20.85
26/01/2020 13:50:41	26012020	260120	135041	101.870	12.344800	-56.885340	101.940	-0.110	-0.460	1.010	101.880	-1.900	1.300																			1580046641.0	11.36	21.04
26/01/2020 13:50:42	26012020	260120	135042	101.930	12.344787	-56.885290	101.990	-0.070	-0.240	1.120	101.940	-1.700	1.500																			1580046642.0	10.92	20.22
26/01/2020 13:50:43	26012020	260120	135043	101.960	12.344777	-56.885242	101.960	0.040	-0.210	1.010	101.960	-1.600	1.500																			1580046643.0	10.69	19.80
26/01/2020 13:50:44	26012020	260120	135044	101.920	12.344767	-56.885190	101.910	0.270	-0.430	0.750	101.910	-1.700	1.300																			1580046644.0	11.06	20.48
26/01/2020 13:50:45	26012020	260120	135045	101.900	12.344757	-56.885137	101.940	0.460	-0.510	0.410	101.900	-1.900	0.900																			1580046645.0	11.35	21.02
26/01/2020 13:50:46	26012020	260120	135046	101.950	12.344748	-56.885085	101.980	0.400	-0.290	0.120	101.950	-1.800	0.600																			1580046646.0	11.17	20.69
26/01/2020 13:50:47	26012020	260120	135047	101.980	12.344740	-56.885035	101.990	0.120	0.090	0.150	101.990	-1.400	0.500																			1580046647.0	10.81	20.02
26/01/2020 13:50:48	26012020	260120	135048	101.960	12.344730	-56.884985	101.900	-0.150	0.130	0.440	101.950	-1.200	0.700																			1580046648.0	10.57	19.58
26/01/2020 13:50:49	26012020	260120	135049	101.840	12.344720	-56.884935	101.750	-0.170	-0.370	0.650	101.810	-1.500	1.000																			1580046649.0	11.02	20.41
26/01/2020 13:50:50	26012020	260120	135050	101.700	12.344707	-56.884882	101.670	-0.060	-0.810	0.730	101.680	-2.100	1.100																			1580046650.0	11.63	21.54
26/01/2020 13:50:51	26012020	260120	135051	101.640	12.344695	-56.884828	101.650	-0.100	-0.690	0.750	101.640	-2.200	1.100																			1580046651.0	11.50	21.30
26/01/2020 13:50:52	26012020	260120	135052	101.630	12.344683	-56.884778	101.660	-0.300	-0.230	0.720	101.630	-1.800	1.100																			1580046652.0	10.89	20.17
26/01/2020 13:50:53	26012020	260120	135053	101.630	12.344672	-56.884728	101.610	-0.420	0.060	0.720	101.620	-1.400	1.100																			1580046653.0	10.66	19.74
26/01/2020 13:50:54	26012020	260120	135054	101.570	12.344660	-56.884678	101.570	-0.280	0.040	0.580	101.560	-1.300	1.100																			1580046654.0	10.90	20.19
26/01/2020 13:50:55	26012020	260120	135055	101.560	12.344650	-56.884627	101.610	0.030	-0.100	0.310	101.570	-1.400	0.800																			1580046655.0	11.25	20.84
26/01/2020 13:50:56	26012020	260120	135056	101.620	12.344640	-56.884575	101.670	0.240	-0.150	0.100	101.630	-1.500	0.600																			1580046656.0	11.30	20.93
26/01/2020 13:50:57	26012020	260120	135057	101.680	12.344630	-56.884523	101.780	0.300	-0.070	0.000	101.710	-1.500	0.400																			1580046657.0	11.08	20.52
26/01/2020 13:50:58	26012020	260120	135058	101.810	12.344620	-56.884472	101.910	0.260	0.030	0.060	101.840	-1.400	0.400																			1580046658.0	10.86	20.11
26/01/2020 13:50:59	26012020	260120	135059	101.920	12.344610	-56.884423	101.940	0.250	-0.040	0.300	101.930	-1.400	0.600																			1580046659.0	10.76	19.93
26/01/2020 13:51:00	26012020	260120	135100	101.920	12.344600	-56.884372	101.870	0.300	-0.360	0.570	101.900	-1.600	0.900	1016.70	26.10	26.10	18.50	18.60	697.00	63.00	63.00	374.00	28.30	358.00	10.90	97.00	5.20	50926	3202.00	27.50	27.40	1580046660.0	10.93	20.24
26/01/2020 13:51:01	26012020	260120	135101	101.810	12.344590	-56.884320	101.730	0.290	-0.710	0.850	101.780	-2.000	1.200																			1580046661.0	11.21	20.76
26/01/2020 13:51:02	26012020	260120	135102	101.650	12.344578	-56.884268	101.500	0.080	-0.830	1.070	101.600	-2.200	1.400																			1580046662.0	11.25	20.84
26/01/2020 13:51:03	26012020	260120	135103	101.410	12.344567	-56.884217	101.240	-0.180	-0.710	1.190	101.360	-2.100	1.600																			1580046663.0	11.06	20.48
26/01/2020 13:51:04	26012020	260120	135104	101.130	12.344555	-56.884167	100.970	-0.340	-0.480	1.200	101.070	-2.000	1.600																			1580046664.0	10.99	20.35
26/01/2020 13:51:05	26012020	260120	135105	100.870	12.344543	-56.884115	100.810	-0.360	-0.250	1.030	100.830	-1.700	1.500																			1580046665.0	11.03	20.43
26/01/2020 13:51:06	26012020	260120	135106	100.770	12.344533	-56.884063	100.830	-0.320	-0.070	0.780	100.780	-1.500	1.300																			1580046666.0	11.10	20.56
26/01/2020 13:51:07	26012020	260120	135107	100.830	12.344523	-56.884012	100.900	-0.240	0.020	0.560	100.840	-1.400	1.000																			1580046667.0	11.16	20.67
26/01/2020 13:51:08	26012020	260120	135108	100.920	12.344513	-56.883960	101.070	-0.160	0.080	0.370	100.950	-1.300	0.800																			1580046668.0	11.22	20.78
26/01/2020 13:51:09	26012020	260120	135109	101.120	12.344503	-56.883908	101.310	-0.060	0.090	0.250	101.170	-1.300	0.700																			1580046669.0	11.16	20.67
26/01/2020 13:51:10	26012020	260120	135110	101.370	12.344492	-56.883857	101.540	0.070	0.100	0.240	101.420	-1.300	0.600																			1580046670.0	11.08	20.52
26/01/2020 13:51:11	26012020	260120	135111	101.580	12.344482	-56.883807	101.710	0.220	0.060	0.290	101.610	-1.300	0.700																			1580046671.0	10.96	20.30
26/01/2020 13:51:12	26012020	260120	135112	101.710	12.344472	-56.883757	101.810	0.330	-0.140	0.440	101.730	-1.400	0.800																			1580046672.0	10.93	20.24
26/01/2020 13:51:13	26012020	260120	135113	101.810	12.344463	-56.883705	101.870	0.350	-0.420	0.590	101.820	-1.700	1.000																			1580046673.0	11.04	20.45
26/01/2020 13:51:14	26012020	260120	135114	101.850	12.344453	-56.883653	101.840	0.280	-0.660	0.770	101.840	-2.000	1.100																			1580046674.0	11.09	20.54
26/01/2020 13:51:15	26012020	260120	135115	101.780	12.344443	-56.883602	101.650	0.160	-0.720	0.980	101.740	-2.100	1.300																			1580046675.0	11.10	20.56
26/01/2020 13:51:16	26012020	260120	135116	101.550	12.344432	-56.883552	101.400	-0.060	-0.510	1.040	101.500	-2.000	1.400																			1580046676.0	10.97	20.32
26/01/2020 13:51:17	26012020	260120	135117	101.300	12.344422	-56.883502	101.170	-0.270	-0.310	0.970	101.250	-1.700	1.400																			1580046677.0	10.78	19.96
26/01/2020 13:51:18	26012020	260120	135118	101.100	12.344412	-56.883450	101.030	-0.270	-0.420	0.800	101.060	-1.700	1.300																			1580046678.0	10.96	20.30
26/01/2020 13:51:19	26012020	260120	135119	100.980	12.344402	-56.883397	100.960	-0.070	-0.580	0.590	100.960	-1.900	1.100																			1580046679.0	11.46	21.22
26/01/2020 13:51:20	26012020	260120	135120	100.930	12.344390	-56.883343	100.960	0.070	-0.360	0.500	100.930	-1.900	0.900																			1580046680.0	11.52	21.34
26/01/2020 13:51:21	26012020	260120	135121	100.960	12.344380	-56.883293	101.080	0.000	0.150	0.440	100.980	-1.400	0.900																			1580046681.0	11.03	20.43
26/01/2020 13:51:22	26012020	260120	135122	101.110	12.344370	-56.883243	101.290	-0.190	0.410	0.370	101.150	-1.000	0.800																			1580046682.0	10.69	19.80
26/01/2020 13:51:23	26012020	260120	135123	101.330	12.344358	-56.883192	101.520	-0.310	0.190	0.400	101.370	-1.100	0.800																			1580046683.0	10.94	20.26
26/01/2020 13:51:24	26012020	260120	135124	101.540	12.344348	-56.883140	101.680	-0.270	-0.140	0.500	101.580	-1.400	0.900																			1580046684.0	11.30	20.93
26/01/2020 13:51:25	26012020	260120	135125	101.670	12.344337	-56.883088	101.720	-0.120	-0.290	0.700	101.680	-1.600	1.000																			1580046685.0	11.22	20.78
26/01/2020 13:51:26	26012020	260120	135126	101.670	12.344327	-56.883037	101.650	0.080	-0.420	0.840	101.660	-1.700	1.200																			1580046686.0	11.00	20.37
26/01/2020 13:51:27	26012020	260120	135127	101.590	12.344315	-56.882987	101.610	0.240	-0.570	0.700	101.580	-1.900	1.200																			1580046687.0	11.09	20.54
26/01/2020 13:51:28	26012020	260120	135128	101.570	12.344307	-56.882933	101.600	0.250	-0.520	0.480	101.570	-2.000	1.000																			1580046688.0	11.16	20.67
26/01/2020 13:51:29	26012020	260120	135129	101.570	12.344298	-56.882883	101.580	0.160	-0.230	0.360	101.570	-1.700	0.800																			1580046689.0	10.91	20.21
26/01/2020 13:51:30	26012020	260120	135130	101.530	12.344288	-56.882833	101.470	0.130	-0.010	0.370	101.500	-1.400	0.800																			1580046690.0	10.70	19.82
26/01/2020 13:51:31	26012020	260120	135131	101.390	12.344280	-56.882783	101.380	0.240	-0.170	0.380	101.380	-1.400	0.800																			1580046691.0	10.89	20.17
26/01/2020 13:51:32	26012020	260120	135132	101.340	12.344270	-56.882730	101.430	0.350	-0.480	0.270	101.360	-1.800	0.700																			1580046692.0	11.35	21.02
26/01/2020 13:51:33	26012020	260120	135133	101.420	12.344260	-56.882677	101.530	0.270	-0.510	0.330	101.440	-1.900	0.700																			1580046693.0	11.47	21.24
26/01/2020 13:51:34	26012020	260120	135134	101.510	12.344250	-56.882625	101.530	-0.050	-0.200	0.650	101.510	-1.700	0.900																			1580046694.0	11.04	20.45
26/01/2020 13:51:35	26012020	260120	135135	101.460	12.344238	-56.882577	101.440	-0.420	-0.020	0.990	101.440	-1.400	1.300																			1580046695.0	10.72	19.85
26/01/2020 13:51:36	26012020	260120	135136	101.370	12.344227	-56.882527	101.360	-0.600	-0.160	1.150	101.360	-1.400	1.500																			1580046696.0	10.93	20.24
26/01/2020 13:51:37	26012020	260120	135137	101.280	12.344213	-56.882473	101.270	-0.560	-0.460	1.010	101.270	-1.700	1.500																			1580046697.0	11.31	20.95
26/01/2020 13:51:38	26012020	260120	135138	101.210	12.344203	-56.882422	101.210	-0.390	-0.550	0.700	101.200	-1.900	1.200																			1580046698.0	11.44	21.19
26/01/2020 13:51:39	26012020	260120	135139	101.170	12.344192	-56.882370	101.190	-0.230	-0.340	0.490	101.170	-1.800	1.000																			1580046699.0	11.20	20.74
26/01/2020 13:51:40	26012020	260120	135140	101.160	12.344182	-56.882318	101.180	-0.090	-0.050	0.410	101.160	-1.500	0.800																			1580046700.0	10.92	20.22
26/01/2020 13:51:41	26012020	260120	135141	101.170	12.344172	-56.882268	101.250	0.060	0.090	0.370	101.180	-1.300	0.800																			1580046701.0	10.87	20.13
26/01/2020 13:51:42	26012020	260120	135142	101.250	12.344162	-56.882217	101.360	0.290	0.020	0.350	101.270	-1.300	0.800																			1580046702.0	11.02	20.41
26/01/2020 13:51:43	26012020	260120	135143	101.360	12.344152	-56.882165	101.440	0.510	-0.130	0.360	101.380	-1.500	0.800																			1580046703.0	11.18	20.71
26/01/2020 13:51:44	26012020	260120	135144	101.430	12.344143	-56.882113	101.490	0.650	-0.230	0.360	101.440	-1.600	0.800																			1580046704.0	11.16	20.67
26/01/2020 13:51:45	26012020	260120	135145	101.490	12.344135	-56.882062	101.590	0.630	-0.290	0.350	101.500	-1.700	0.800																			1580046705.0	11.10	20.56
26/01/2020 13:51:46	26012020	260120	135146	101.610	12.344128	-56.882010	101.730	0.410	-0.330	0.470	101.640	-1.700	0.800																			1580046706.0	11.02	20.41
26/01/2020 13:51:47	26012020	260120	135147	101.730	12.344118	-56.881958	101.760	0.070	-0.350	0.800	101.740	-1.700	1.100																			1580046707.0	10.97	20.32
26/01/2020 13:51:48	26012020	260120	135148	101.720	12.344107	-56.881908	101.710	-0.280	-0.350	1.140	101.700	-1.700	1.400																			1580046708.0	10.96	20.30
26/01/2020 13:51:49	26012020	260120	135149	101.660	12.344095	-56.881858	101.680	-0.510	-0.400	1.250	101.660	-1.700	1.700																			1580046709.0	10.97	20.32
26/01/2020 13:51:50	26012020	260120	135150	101.640	12.344083	-56.881807	101.630	-0.560	-0.590	1.120	101.630	-1.900	1.600																			1580046710.0	11.11	20.58
26/01/2020 13:51:51	26012020	260120	135151	101.580	12.344072	-56.881755	101.560	-0.490	-0.710	0.930	101.560	-2.100	1.400																			1580046711.0	11.39	21.09
26/01/2020 13:51:52	26012020	260120	135152	101.510	12.344060	-56.881702	101.500	-0.430	-0.500	0.770	101.500	-2.000	1.200																			1580046712.0	11.33	20.98
26/01/2020 13:51:53	26012020	260120	135153	101.450	12.344048	-56.881652	101.440	-0.350	-0.080	0.520	101.440	-1.600	1.000																			1580046713.0	10.98	20.33
26/01/2020 13:51:54	26012020	260120	135154	101.410	12.344038	-56.881602	101.400	-0.170	0.170	0.130	101.400	-1.300	0.700																			1580046714.0	10.85	20.09
26/01/2020 13:51:55	26012020	260120	135155	101.390	12.344028	-56.881550	101.430	0.150	0.070	-0.190	101.390	-1.200	0.300																			1580046715.0	11.10	20.56
26/01/2020 13:51:56	26012020	260120	135156	101.460	12.344022	-56.881497	101.620	0.460	-0.100	-0.340	101.490	-1.400	0.100																			1580046716.0	11.42	21.15
26/01/2020 13:51:57	26012020	260120	135157	101.680	12.344012	-56.881443	101.850	0.530	-0.060	-0.190	101.720	-1.500	0.100																			1580046717.0	11.35	21.02
26/01/2020 13:51:58	26012020	260120	135158	101.880	12.344002	-56.881392	101.970	0.380	0.070	0.170	101.900	-1.400	0.400																			1580046718.0	10.94	20.26
26/01/2020 13:51:59	26012020	260120	135159	101.980	12.343992	-56.881343	102.090	0.210	0.050	0.360	102.000	-1.300	0.700																			1580046719.0	10.77	19.95
26/01/2020 13:52:00	26012020	260120	135200	102.100	12.343982	-56.881292	102.180	0.200	-0.320	0.440	102.110	-1.500	0.800	1016.70	26.10	26.10	18.70	18.80	718.00	64.00	63.00	374.00	28.30	355.00	10.70	91.00	5.00	52054	3250.00	27.50	27.40	1580046720.0	10.93	20.24
26/01/2020 13:52:01	26012020	260120	135201	102.160	12.343972	-56.881240	102.220	0.280	-0.780	0.490	102.170	-2.000	0.900																			1580046721.0	11.35	21.02
26/01/2020 13:52:02	26012020	260120	135202	102.200	12.343962	-56.881187	102.240	0.160	-0.730	0.600	102.200	-2.200	0.900																			1580046722.0	11.41	21.13
26/01/2020 13:52:03	26012020	260120	135203	102.210	12.343950	-56.881137	102.200	-0.240	-0.230	0.820	102.200	-1.800	1.100																			1580046723.0	10.77	19.95
26/01/2020 13:52:04	26012020	260120	135204	102.130	12.343938	-56.881088	102.050	-0.560	-0.070	0.940	102.100	-1.400	1.300																			1580046724.0	10.41	19.28
26/01/2020 13:52:05	26012020	260120	135205	101.970	12.343925	-56.881038	101.870	-0.510	-0.500	0.900	101.930	-1.700	1.300																			1580046725.0	10.99	20.35
26/01/2020 13:52:06	26012020	260120	135206	101.790	12.343913	-56.880985	101.690	-0.280	-0.810	0.820	101.760	-2.200	1.300																			1580046726.0	11.73	21.72
26/01/2020 13:52:07	26012020	260120	135207	101.640	12.343902	-56.880932	101.610	-0.190	-0.470	0.680	101.610	-2.100	1.100																			1580046727.0	11.50	21.30
26/01/2020 13:52:08	26012020	260120	135208	101.590	12.343890	-56.880882	101.640	-0.200	0.110	0.470	101.590	-1.500	1.000																			1580046728.0	10.75	19.91
26/01/2020 13:52:09	26012020	260120	135209	101.660	12.343880	-56.880833	101.750	-0.010	0.170	0.190	101.680	-1.200	0.700																			1580046729.0	10.63	19.69
26/01/2020 13:52:10	26012020	260120	135210	101.770	12.343870	-56.880780	101.900	0.340	-0.130	-0.110	101.800	-1.400	0.400																			1580046730.0	11.34	21.00
26/01/2020 13:52:11	26012020	260120	135211	101.960	12.343862	-56.880727	102.150	0.460	-0.050	-0.210	102.010	-1.500	0.200																			1580046731.0	11.53	21.35
26/01/2020 13:52:12	26012020	260120	135212	102.220	12.343853	-56.880675	102.410	0.300	0.280	-0.040	102.280	-1.200	0.300																			1580046732.0	10.84	20.08
26/01/2020 13:52:13	26012020	260120	135213	102.470	12.343843	-56.880627	102.570	0.120	0.190	0.280	102.500	-1.100	0.600																			1580046733.0	10.50	19.45
26/01/2020 13:52:14	26012020	260120	135214	102.570	12.343832	-56.880577	102.530	0.090	-0.390	0.630	102.560	-1.500	0.900																			1580046734.0	10.99	20.35
26/01/2020 13:52:15	26012020	260120	135215	102.480	12.343820	-56.880523	102.390	0.160	-0.880	0.850	102.440	-2.100	1.200																			1580046735.0	11.49	21.28
26/01/2020 13:52:16	26012020	260120	135216	102.340	12.343808	-56.880472	102.330	0.160	-0.850	0.890	102.320	-2.300	1.300																			1580046736.0	11.33	20.98
26/01/2020 13:52:17	26012020	260120	135217	102.290	12.343797	-56.880422	102.300	-0.020	-0.450	0.860	102.290	-2.000	1.300																			1580046737.0	10.84	20.08
26/01/2020 13:52:18	26012020	260120	135218	102.260	12.343785	-56.880372	102.170	-0.300	-0.160	0.770	102.240	-1.600	1.200																			1580046738.0	10.60	19.63
26/01/2020 13:52:19	26012020	260120	135219	102.100	12.343775	-56.880322	101.950	-0.470	-0.170	0.750	102.050	-1.500	1.200																			1580046739.0	10.86	20.11
26/01/2020 13:52:20	26012020	260120	135220	101.870	12.343762	-56.880270	101.810	-0.410	-0.250	0.610	101.840	-1.600	1.100																			1580046740.0	11.23	20.80
26/01/2020 13:52:21	26012020	260120	135221	101.800	12.343752	-56.880218	101.890	-0.190	-0.220	0.310	101.820	-1.600	0.800																			1580046741.0	11.26	20.85
26/01/2020 13:52:22	26012020	260120	135222	101.920	12.343740	-56.880167	102.010	0.030	-0.190	0.160	101.940	-1.600	0.600																			1580046742.0	11.13	20.61
26/01/2020 13:52:23	26012020	260120	135223	102.030	12.343730	-56.880117	102.070	0.190	-0.170	0.220	102.040	-1.600	0.600																			1580046743.0	11.13	20.61
26/01/2020 13:52:24	26012020	260120	135224	102.070	12.343718	-56.880065	102.110	0.290	-0.100	0.390	102.070	-1.500	0.700																			1580046744.0	11.10	20.56
26/01/2020 13:52:25	26012020	260120	135225	102.100	12.343707	-56.880013	102.150	0.310	-0.000	0.440	102.110	-1.400	0.900																			1580046745.0	10.99	20.35
26/01/2020 13:52:26	26012020	260120	135226	102.140	12.343698	-56.879963	102.230	0.260	0.000	0.330	102.150	-1.400	0.800																			1580046746.0	10.91	20.21
26/01/2020 13:52:27	26012020	260120	135227	102.240	12.343688	-56.879912	102.350	0.130	-0.090	0.310	102.270	-1.400	0.700																			1580046747.0	10.95	20.28
26/01/2020 13:52:28	26012020	260120	135228	102.350	12.343678	-56.879862	102.380	-0.000	-0.270	0.410	102.370	-1.600	0.800																			1580046748.0	10.97	20.32
26/01/2020 13:52:29	26012020	260120	135229	102.330	12.343667	-56.879810	102.220	-0.060	-0.560	0.560	102.300	-1.800	0.900																			1580046749.0	11.06	20.48
26/01/2020 13:52:30	26012020	260120	135230	102.130	12.343657	-56.879758	102.000	-0.070	-0.780	0.790	102.090	-2.100	1.100																			1580046750.0	11.25	20.84
26/01/2020 13:52:31	26012020	260120	135231	101.900	12.343643	-56.879707	101.830	-0.080	-0.700	0.910	101.870	-2.100	1.300																			1580046751.0	11.22	20.78
26/01/2020 13:52:32	26012020	260120	135232	101.770	12.343632	-56.879657	101.720	-0.050	-0.470	0.800	101.750	-1.900	1.300																			1580046752.0	11.01	20.39
26/01/2020 13:52:33	26012020	260120	135233	101.670	12.343620	-56.879605	101.680	-0.020	-0.250	0.610	101.660	-1.700	1.100																			1580046753.0	11.03	20.43
26/01/2020 13:52:34	26012020	260120	135234	101.660	12.343610	-56.879553	101.750	-0.090	0.020	0.500	101.670	-1.500	0.900																			1580046754.0	11.09	20.54
26/01/2020 13:52:35	26012020	260120	135235	101.770	12.343598	-56.879503	101.870	-0.230	0.300	0.410	101.790	-1.200	0.800																			1580046755.0	10.96	20.30
26/01/2020 13:52:36	26012020	260120	135236	101.880	12.343588	-56.879453	101.920	-0.290	0.330	0.400	101.890	-1.000	0.800																			1580046756.0	10.81	20.02
26/01/2020 13:52:37	26012020	260120	135237	101.900	12.343578	-56.879402	101.920	-0.110	-0.110	0.450	101.900	-1.300	0.800																			1580046757.0	11.04	20.45
26/01/2020 13:52:38	26012020	260120	135238	101.920	12.343567	-56.879348	101.990	0.220	-0.700	0.520	101.930	-1.900	0.900																			1580046758.0	11.56	21.41
26/01/2020 13:52:39	26012020	260120	135239	102.000	12.343555	-56.879295	102.130	0.390	-0.690	0.640	102.030	-2.200	1.000																			1580046759.0	11.61	21.50
26/01/2020 13:52:40	26012020	260120	135240	102.140	12.343543	-56.879245	102.230	0.220	-0.070	0.760	102.160	-1.700	1.100																			1580046760.0	10.83	20.06
26/01/2020 13:52:41	26012020	260120	135241	102.210	12.343533	-56.879198	102.220	-0.080	0.360	0.810	102.210	-1.100	1.200																			1580046761.0	10.18	18.85
26/01/2020 13:52:42	26012020	260120	135242	102.180	12.343523	-56.879150	102.160	-0.160	0.050	0.830	102.170	-1.100	1.200																			1580046762.0	10.52	19.48
26/01/2020 13:52:43	26012020	260120	135243	102.110	12.343512	-56.879097	102.090	0.050	-0.650	0.800	102.100	-1.800	1.200																			1580046763.0	11.33	20.98
26/01/2020 13:52:44	26012020	260120	135244	102.050	12.343502	-56.879043	102.030	0.350	-1.050	0.710	102.040	-2.300	1.200																			1580046764.0	11.68	21.63
26/01/2020 13:52:45	26012020	260120	135245	102.000	12.343492	-56.878990	101.950	0.450	-0.910	0.760	101.980	-2.400	1.100																			1580046765.0	11.40	21.11
26/01/2020 13:52:46	26012020	260120	135246	101.890	12.343482	-56.878938	101.820	0.240	-0.430	0.980	101.870	-2.000	1.300																			1580046766.0	10.98	20.33
26/01/2020 13:52:47	26012020	260120	135247	101.750	12.343470	-56.878890	101.690	-0.200	0.160	1.030	101.730	-1.400	1.400																			1580046767.0	10.72	19.85
26/01/2020 13:52:48	26012020	260120	135248	101.630	12.343460	-56.878840	101.590	-0.620	0.540	0.860	101.610	-0.900	1.400																			1580046768.0	10.62	19.67
26/01/2020 13:52:49	26012020	260120	135249	101.550	12.343450	-56.878790	101.590	-0.810	0.370	0.630	101.550	-0.900	1.100																			1580046769.0	10.81	20.02
26/01/2020 13:52:50	26012020	260120	135250	101.600	12.343438	-56.878738	101.710	-0.600	-0.290	0.410	101.620	-1.400	0.900																			1580046770.0	11.29	20.91
26/01/2020 13:52:51	26012020	260120	135251	101.710	12.343427	-56.878683	101.750	-0.080	-0.880	0.270	101.730	-2.100	0.700																			1580046771.0	11.77	21.80
26/01/2020 13:52:52	26012020	260120	135252	101.710	12.343413	-56.878630	101.590	0.430	-0.840	0.250	101.680	-2.300	0.700																			1580046772.0	11.62	21.52
26/01/2020 13:52:53	26012020	260120	135253	101.530	12.343403	-56.878580	101.450	0.570	-0.190	0.160	101.490	-1.900	0.600																			1580046773.0	10.98	20.33
26/01/2020 13:52:54	26012020	260120	135254	101.430	12.343395	-56.878532	101.500	0.360	0.490	0.010	101.440	-1.100	0.500																			1580046774.0	10.33	19.13
26/01/2020 13:52:55	26012020	260120	135255	101.540	12.343388	-56.878483	101.650	0.110	0.510	-0.070	101.560	-0.800	0.400																			1580046775.0	10.32	19.11
26/01/2020 13:52:56	26012020	260120	135256	101.680	12.343382	-56.878432	101.760	0.070	-0.180	0.040	101.710	-1.300	0.400																			1580046776.0	11.03	20.43
26/01/2020 13:52:57	26012020	260120	135257	101.760	12.343370	-56.878378	101.750	0.170	-0.870	0.460	101.760	-2.000	0.700																			1580046777.0	11.69	21.65
26/01/2020 13:52:58	26012020	260120	135258	101.710	12.343357	-56.878325	101.690	0.140	-0.870	0.890	101.690	-2.300	1.200																			1580046778.0	11.59	21.46
26/01/2020 13:52:59	26012020	260120	135259	101.630	12.343343	-56.878275	101.600	-0.100	-0.300	1.060	101.620	-1.900	1.400																			1580046779.0	10.78	19.96
26/01/2020 13:53:00	26012020	260120	135300	101.530	12.343333	-56.878228	101.460	-0.300	0.040	0.950	101.500	-1.400	1.400	1016.70	26.10	26.10	18.50	18.60	709.00	63.00	63.00	375.00	28.30	353.00	10.60	87.00	5.00	51932	3186.00	27.40	27.40	1580046780.0	10.30	19.08
26/01/2020 13:53:01	26012020	260120	135301	101.380	12.343323	-56.878178	101.350	-0.300	-0.190	0.670	101.360	-1.400	1.200																			1580046781.0	10.77	19.95
26/01/2020 13:53:02	26012020	260120	135302	101.310	12.343315	-56.878125	101.360	-0.150	-0.570	0.440	101.310	-1.800	0.900																			1580046782.0	11.41	21.13
26/01/2020 13:53:03	26012020	260120	135303	101.350	12.343305	-56.878072	101.420	-0.020	-0.710	0.500	101.360	-2.100	0.900																			1580046783.0	11.53	21.35
26/01/2020 13:53:04	26012020	260120	135304	101.400	12.343292	-56.878018	101.430	0.010	-0.520	0.680	101.400	-2.000	1.000																			1580046784.0	11.29	20.91
26/01/2020 13:53:05	26012020	260120	135305	101.390	12.343280	-56.877968	101.390	-0.060	-0.070	0.780	101.380	-1.600	1.200																			1580046785.0	10.98	20.33
26/01/2020 13:53:06	26012020	260120	135306	101.350	12.343270	-56.877920	101.360	-0.150	0.370	0.750	101.340	-1.100	1.200																			1580046786.0	10.69	19.80
26/01/2020 13:53:07	26012020	260120	135307	101.340	12.343260	-56.877870	101.370	-0.110	0.330	0.620	101.340	-1.000	1.100																			1580046787.0	10.73	19.87
26/01/2020 13:53:08	26012020	260120	135308	101.350	12.343252	-56.877817	101.390	0.080	-0.080	0.390	101.360	-1.300	0.900																			1580046788.0	11.20	20.74
26/01/2020 13:53:09	26012020	260120	135309	101.390	12.343242	-56.877763	101.470	0.210	-0.380	0.210	101.400	-1.700	0.700																			1580046789.0	11.49	21.28
26/01/2020 13:53:10	26012020	260120	135310	101.480	12.343233	-56.877712	101.580	0.160	-0.260	0.340	101.500	-1.700	0.700																			1580046790.0	11.20	20.74
26/01/2020 13:53:11	26012020	260120	135311	101.590	12.343222	-56.877662	101.710	-0.010	0.000	0.570	101.610	-1.500	0.900																			1580046791.0	10.64	19.71
26/01/2020 13:53:12	26012020	260120	135312	101.720	12.343210	-56.877613	101.810	-0.060	-0.060	0.610	101.740	-1.400	1.000																			1580046792.0	10.52	19.48
26/01/2020 13:53:13	26012020	260120	135313	101.790	12.343200	-56.877563	101.810	0.120	-0.470	0.540	101.800	-1.700	1.000																			1580046793.0	10.93	20.24
26/01/2020 13:53:14	26012020	260120	135314	101.760	12.343190	-56.877512	101.680	0.420	-0.840	0.430	101.730	-2.100	0.900																			1580046794.0	11.34	21.00
26/01/2020 13:53:15	26012020	260120	135315	101.620	12.343182	-56.877458	101.580	0.490	-0.800	0.280	101.600	-2.300	0.700																			1580046795.0	11.34	21.00
26/01/2020 13:53:16	26012020	260120	135316	101.560	12.343173	-56.877407	101.610	0.200	-0.410	0.260	101.560	-2.000	0.600																			1580046796.0	10.92	20.22
26/01/2020 13:53:17	26012020	260120	135317	101.610	12.343163	-56.877358	101.630	-0.230	-0.110	0.480	101.620	-1.600	0.800																			1580046797.0	10.64	19.71
26/01/2020 13:53:18	26012020	260120	135318	101.590	12.343152	-56.877308	101.510	-0.470	-0.170	0.800	101.560	-1.500	1.100																			1580046798.0	10.86	20.11
26/01/2020 13:53:19	26012020	260120	135319	101.430	12.343138	-56.877257	101.340	-0.440	-0.320	1.000	101.390	-1.600	1.300																			1580046799.0	11.31	20.95
26/01/2020 13:53:20	26012020	260120	135320	101.270	12.343125	-56.877203	101.240	-0.310	-0.290	1.080	101.250	-1.700	1.500																			1580046800.0	11.41	21.13
26/01/2020 13:53:21	26012020	260120	135321	101.200	12.343113	-56.877152	101.270	-0.220	-0.120	0.910	101.210	-1.600	1.400																			1580046801.0	11.16	20.67
26/01/2020 13:53:22	26012020	260120	135322	101.280	12.343103	-56.877102	101.410	-0.160	-0.010	0.550	101.310	-1.400	1.100																			1580046802.0	11.00	20.37
26/01/2020 13:53:23	26012020	260120	135323	101.440	12.343095	-56.877050	101.550	-0.070	-0.010	0.320	101.470	-1.400	0.800																			1580046803.0	11.06	20.48
26/01/2020 13:53:24	26012020	260120	135324	101.570	12.343083	-56.876998	101.630	0.060	0.050	0.330	101.590	-1.400	0.700																			1580046804.0	11.10	20.56
26/01/2020 13:53:25	26012020	260120	135325	101.640	12.343073	-56.876948	101.710	0.180	0.170	0.350	101.650	-1.200	0.800																			1580046805.0	10.89	20.17
26/01/2020 13:53:26	26012020	260120	135326	101.720	12.343065	-56.876898	101.780	0.320	0.010	0.380	101.740	-1.300	0.800																			1580046806.0	10.73	19.87
26/01/2020 13:53:27	26012020	260120	135327	101.780	12.343055	-56.876847	101.770	0.540	-0.550	0.500	101.780	-1.700	0.900																			1580046807.0	11.06	20.48
26/01/2020 13:53:28	26012020	260120	135328	101.740	12.343045	-56.876793	101.680	0.650	-0.930	0.640	101.720	-2.200	1.000																			1580046808.0	11.50	21.30
26/01/2020 13:53:29	26012020	260120	135329	101.640	12.343035	-56.876742	101.570	0.440	-0.650	0.740	101.610	-2.200	1.100																			1580046809.0	11.24	20.82
26/01/2020 13:53:30	26012020	260120	135330	101.520	12.343025	-56.876692	101.470	-0.040	-0.080	0.860	101.500	-1.700	1.200																			1580046810.0	10.53	19.50
26/01/2020 13:53:31	26012020	260120	135331	101.430	12.343015	-56.876643	101.400	-0.470	0.120	0.910	101.420	-1.300	1.300																			1580046811.0	10.38	19.22
26/01/2020 13:53:32	26012020	260120	135332	101.360	12.343005	-56.876593	101.340	-0.660	-0.200	0.990	101.340	-1.400	1.400																			1580046812.0	10.88	20.15
26/01/2020 13:53:33	26012020	260120	135333	101.290	12.342992	-56.876542	101.300	-0.560	-0.720	0.970	101.290	-1.900	1.400																			1580046813.0	11.48	21.26
26/01/2020 13:53:34	26012020	260120	135334	101.270	12.342978	-56.876487	101.280	-0.290	-0.850	0.750	101.270	-2.200	1.200																			1580046814.0	11.68	21.63
26/01/2020 13:53:35	26012020	260120	135335	101.250	12.342968	-56.876435	101.250	-0.030	-0.410	0.600	101.250	-2.000	1.000																			1580046815.0	11.24	20.82
26/01/2020 13:53:36	26012020	260120	135336	101.220	12.342957	-56.876387	101.210	0.130	0.130	0.430	101.220	-1.400	0.900																			1580046816.0	10.69	19.80
26/01/2020 13:53:37	26012020	260120	135337	101.200	12.342948	-56.876337	101.240	0.250	0.220	0.100	101.210	-1.100	0.600																			1580046817.0	10.71	19.83
26/01/2020 13:53:38	26012020	260120	135338	101.250	12.342942	-56.876283	101.290	0.320	-0.050	-0.030	101.260	-1.300	0.400																			1580046818.0	11.21	20.76
26/01/2020 13:53:39	26012020	260120	135339	101.300	12.342933	-56.876230	101.350	0.250	-0.210	0.190	101.310	-1.600	0.500																			1580046819.0	11.44	21.19
26/01/2020 13:53:40	26012020	260120	135340	101.360	12.342922	-56.876178	101.430	0.030	-0.100	0.510	101.370	-1.500	0.800																			1580046820.0	11.14	20.63
26/01/2020 13:53:41	26012020	260120	135341	101.430	12.342912	-56.876128	101.520	-0.220	0.070	0.840	101.450	-1.400	1.100																			1580046821.0	10.78	19.96
26/01/2020 13:53:42	26012020	260120	135342	101.490	12.342898	-56.876080	101.500	-0.340	0.040	1.070	101.490	-1.300	1.400																			1580046822.0	10.69	19.80
26/01/2020 13:53:43	26012020	260120	135343	101.440	12.342887	-56.876030	101.420	-0.230	-0.230	1.060	101.430	-1.500	1.500																			1580046823.0	10.89	20.17
26/01/2020 13:53:44	26012020	260120	135344	101.360	12.342877	-56.875978	101.350	0.030	-0.600	0.910	101.340	-1.900	1.400																			1580046824.0	11.17	20.69
26/01/2020 13:53:45	26012020	260120	135345	101.290	12.342867	-56.875927	101.300	0.250	-0.780	0.710	101.290	-2.100	1.200																			1580046825.0	11.28	20.89
26/01/2020 13:53:46	26012020	260120	135346	101.260	12.342857	-56.875875	101.250	0.340	-0.670	0.490	101.250	-2.100	1.000																			1580046826.0	11.08	20.52
26/01/2020 13:53:47	26012020	260120	135347	101.210	12.342848	-56.875823	101.170	0.350	-0.460	0.370	101.190	-1.900	0.800																			1580046827.0	10.90	20.19
26/01/2020 13:53:48	26012020	260120	135348	101.130	12.342840	-56.875772	101.110	0.280	-0.300	0.450	101.110	-1.700	0.800																			1580046828.0	10.95	20.28
26/01/2020 13:53:49	26012020	260120	135349	101.070	12.342830	-56.875722	101.120	0.120	-0.240	0.650	101.070	-1.600	1.000																			1580046829.0	11.07	20.50
26/01/2020 13:53:50	26012020	260120	135350	101.100	12.342820	-56.875670	101.210	-0.070	-0.200	0.880	101.120	-1.600	1.200																			1580046830.0	11.21	20.76
26/01/2020 13:53:51	26012020	260120	135351	101.200	12.342807	-56.875618	101.320	-0.310	0.010	1.040	101.210	-1.500	1.400																			1580046831.0	11.18	20.71
26/01/2020 13:53:52	26012020	260120	135352	101.290	12.342795	-56.875568	101.410	-0.560	0.250	1.100	101.320	-1.200	1.500																			1580046832.0	10.91	20.21
26/01/2020 13:53:53	26012020	260120	135353	101.380	12.342785	-56.875518	101.440	-0.590	0.190	1.000	101.380	-1.100	1.500																			1580046833.0	10.81	20.02
26/01/2020 13:53:54	26012020	260120	135354	101.390	12.342773	-56.875467	101.420	-0.310	-0.220	0.760	101.390	-1.400	1.300																			1580046834.0	11.14	20.63
26/01/2020 13:53:55	26012020	260120	135355	101.360	12.342765	-56.875413	101.380	0.030	-0.550	0.490	101.360	-1.800	1.000																			1580046835.0	11.45	21.21
26/01/2020 13:53:56	26012020	260120	135356	101.330	12.342755	-56.875360	101.350	0.240	-0.550	0.240	101.330	-2.000	0.700																			1580046836.0	11.28	20.89
26/01/2020 13:53:57	26012020	260120	135357	101.310	12.342747	-56.875310	101.300	0.320	-0.360	0.080	101.310	-1.800	0.500																			1580046837.0	10.94	20.26
26/01/2020 13:53:58	26012020	260120	135358	101.270	12.342738	-56.875258	101.250	0.390	-0.270	0.150	101.260	-1.700	0.500																			1580046838.0	10.86	20.11
26/01/2020 13:53:59	26012020	260120	135359	101.220	12.342728	-56.875208	101.270	0.400	-0.280	0.280	101.220	-1.700	0.600																			1580046839.0	11.04	20.45
26/01/2020 13:54:00	26012020	260120	135400	101.270	12.342720	-56.875157	101.360	0.280	-0.180	0.470	101.290	-1.600	0.800	1016.70	26.10	26.10	18.60	18.70	715.00	63.00	63.00	375.00	28.30	351.00	10.50	82.00	5.00	52324	3287.00	27.50	27.40	1580046840.0	11.10	20.56
26/01/2020 13:54:01	26012020	260120	135401	101.340	12.342708	-56.875105	101.390	0.050	-0.030	0.810	101.350	-1.500	1.100																			1580046841.0	10.95	20.28
26/01/2020 13:54:02	26012020	260120	135402	101.350	12.342697	-56.875055	101.410	-0.170	-0.090	1.000	101.360	-1.400	1.400																			1580046842.0	10.89	20.17
26/01/2020 13:54:03	26012020	260120	135403	101.380	12.342685	-56.875003	101.460	-0.230	-0.360	0.960	101.380	-1.600	1.400																			1580046843.0	11.12	20.59
26/01/2020 13:54:04	26012020	260120	135404	101.430	12.342675	-56.874952	101.510	-0.110	-0.550	0.800	101.440	-1.900	1.300																			1580046844.0	11.33	20.98
26/01/2020 13:54:05	26012020	260120	135405	101.480	12.342665	-56.874900	101.510	0.000	-0.480	0.620	101.480	-1.900	1.100																			1580046845.0	11.25	20.84
26/01/2020 13:54:06	26012020	260120	135406	101.460	12.342655	-56.874848	101.460	-0.050	-0.260	0.510	101.450	-1.700	0.900																			1580046846.0	11.00	20.37
26/01/2020 13:54:07	26012020	260120	135407	101.410	12.342645	-56.874798	101.390	-0.180	-0.130	0.560	101.400	-1.500	0.900																			1580046847.0	10.86	20.11
26/01/2020 13:54:08	26012020	260120	135408	101.340	12.342635	-56.874747	101.370	-0.210	-0.180	0.600	101.330	-1.500	1.000																			1580046848.0	11.05	20.46
26/01/2020 13:54:09	26012020	260120	135409	101.330	12.342625	-56.874695	101.380	-0.170	-0.180	0.640	101.330	-1.600	1.000																			1580046849.0	11.21	20.76
26/01/2020 13:54:10	26012020	260120	135410	101.340	12.342613	-56.874643	101.390	-0.070	-0.230	0.720	101.340	-1.600	1.100																			1580046850.0	11.14	20.63
26/01/2020 13:54:11	26012020	260120	135411	101.360	12.342602	-56.874592	101.450	0.090	-0.270	0.740	101.370	-1.700	1.200																			1580046851.0	11.21	20.76
26/01/2020 13:54:12	26012020	260120	135412	101.440	12.342592	-56.874540	101.600	0.230	-0.080	0.600	101.470	-1.500	1.100																			1580046852.0	11.11	20.58
26/01/2020 13:54:13	26012020	260120	135413	101.620	12.342583	-56.874490	101.770	0.340	0.030	0.350	101.660	-1.400	0.800																			1580046853.0	10.82	20.04
26/01/2020 13:54:14	26012020	260120	135414	101.780	12.342575	-56.874438	101.830	0.390	-0.160	0.300	101.790	-1.400	0.700																			1580046854.0	10.97	20.32
26/01/2020 13:54:15	26012020	260120	135415	101.810	12.342567	-56.874385	101.840	0.290	-0.410	0.420	101.810	-1.700	0.800																			1580046855.0	11.25	20.84
26/01/2020 13:54:16	26012020	260120	135416	101.830	12.342557	-56.874333	101.880	0.070	-0.540	0.690	101.830	-1.900	1.000																			1580046856.0	11.21	20.76
26/01/2020 13:54:17	26012020	260120	135417	101.850	12.342545	-56.874282	101.850	-0.140	-0.540	1.040	101.850	-1.900	1.300																			1580046857.0	11.10	20.56
26/01/2020 13:54:18	26012020	260120	135418	101.770	12.342533	-56.874232	101.660	-0.270	-0.490	1.270	101.730	-1.900	1.600																			1580046858.0	11.05	20.46
26/01/2020 13:54:19	26012020	260120	135419	101.550	12.342520	-56.874180	101.480	-0.310	-0.450	1.210	101.510	-1.900	1.700																			1580046859.0	11.14	20.63
26/01/2020 13:54:20	26012020	260120	135420	101.430	12.342510	-56.874128	101.470	-0.280	-0.240	0.950	101.420	-1.700	1.500																			1580046860.0	11.19	20.72
26/01/2020 13:54:21	26012020	260120	135421	101.480	12.342500	-56.874078	101.620	-0.280	0.080	0.550	101.500	-1.400	1.100																			1580046861.0	11.03	20.43
26/01/2020 13:54:22	26012020	260120	135422	101.650	12.342492	-56.874027	101.820	-0.310	0.270	0.130	101.700	-1.200	0.700																			1580046862.0	10.90	20.19
26/01/2020 13:54:23	26012020	260120	135423	101.840	12.342482	-56.873977	101.950	-0.230	0.180	0.000	101.870	-1.100	0.400																			1580046863.0	10.94	20.26
26/01/2020 13:54:24	26012020	260120	135424	101.950	12.342472	-56.873925	102.040	0.040	-0.150	0.050	101.960	-1.400	0.400																			1580046864.0	11.18	20.71
26/01/2020 13:54:25	26012020	260120	135425	102.050	12.342460	-56.873872	102.180	0.400	-0.450	-0.060	102.080	-1.700	0.400																			1580046865.0	11.33	20.98
26/01/2020 13:54:26	26012020	260120	135426	102.210	12.342452	-56.873820	102.330	0.640	-0.580	-0.150	102.230	-1.900	0.300																			1580046866.0	11.27	20.87
26/01/2020 13:54:27	26012020	260120	135427	102.350	12.342443	-56.873768	102.430	0.620	-0.480	-0.070	102.370	-1.900	0.300																			1580046867.0	11.09	20.54
26/01/2020 13:54:28	26012020	260120	135428	102.420	12.342433	-56.873717	102.390	0.400	-0.290	0.100	102.420	-1.700	0.400																			1580046868.0	10.84	20.08
26/01/2020 13:54:29	26012020	260120	135429	102.340	12.342423	-56.873667	102.240	0.200	-0.260	0.280	102.310	-1.600	0.600																			1580046869.0	10.80	20.00
26/01/2020 13:54:30	26012020	260120	135430	102.160	12.342413	-56.873615	102.050	0.050	-0.470	0.530	102.110	-1.800	0.800																			1580046870.0	11.13	20.61
26/01/2020 13:54:31	26012020	260120	135431	101.990	12.342402	-56.873563	102.020	-0.230	-0.520	0.770	101.980	-1.900	1.100																			1580046871.0	11.45	21.21
26/01/2020 13:54:32	26012020	260120	135432	102.010	12.342390	-56.873512	102.140	-0.690	-0.230	0.910	102.030	-1.700	1.300																			1580046872.0	11.20	20.74
26/01/2020 13:54:33	26012020	260120	135433	102.130	12.342375	-56.873462	102.210	-1.050	0.150	0.950	102.150	-1.400	1.400																			1580046873.0	10.80	20.00
26/01/2020 13:54:34	26012020	260120	135434	102.160	12.342362	-56.873413	102.150	-0.970	0.190	0.770	102.160	-1.100	1.300																			1580046874.0	10.78	19.96
26/01/2020 13:54:35	26012020	260120	135435	102.090	12.342348	-56.873362	102.040	-0.410	-0.250	0.480	102.070	-1.400	1.000																			1580046875.0	11.21	20.76
26/01/2020 13:54:36	26012020	260120	135436	101.980	12.342338	-56.873308	101.950	0.280	-0.590	0.220	101.960	-1.900	0.700																			1580046876.0	11.71	21.69
26/01/2020 13:54:37	26012020	260120	135437	101.930	12.342328	-56.873255	101.960	0.700	-0.430	-0.040	101.930	-1.900	0.500																			1580046877.0	11.45	21.21
26/01/2020 13:54:38	26012020	260120	135438	101.980	12.342320	-56.873203	102.120	0.760	-0.100	-0.270	102.000	-1.600	0.200																			1580046878.0	10.89	20.17
26/01/2020 13:54:39	26012020	260120	135439	102.170	12.342313	-56.873153	102.330	0.600	0.040	-0.190	102.220	-1.400	0.100																			1580046879.0	10.78	19.96
26/01/2020 13:54:40	26012020	260120	135440	102.370	12.342303	-56.873102	102.450	0.360	0.010	0.230	102.390	-1.400	0.500																			1580046880.0	10.91	20.21
26/01/2020 13:54:41	26012020	260120	135441	102.440	12.342292	-56.873052	102.470	0.140	-0.120	0.680	102.450	-1.500	0.900																			1580046881.0	11.00	20.37
26/01/2020 13:54:42	26012020	260120	135442	102.430	12.342280	-56.873002	102.450	-0.030	-0.270	0.940	102.430	-1.600	1.300																			1580046882.0	11.04	20.45
26/01/2020 13:54:43	26012020	260120	135443	102.430	12.342268	-56.872950	102.500	-0.190	-0.490	0.940	102.440	-1.800	1.400																			1580046883.0	11.08	20.52
26/01/2020 13:54:44	26012020	260120	135444	102.480	12.342257	-56.872898	102.500	-0.320	-0.670	1.010	102.480	-2.000	1.400																			1580046884.0	11.21	20.76
26/01/2020 13:54:45	26012020	260120	135445	102.440	12.342243	-56.872847	102.390	-0.380	-0.580	1.060	102.420	-2.000	1.500																			1580046885.0	11.21	20.76
26/01/2020 13:54:46	26012020	260120	135446	102.330	12.342230	-56.872797	102.290	-0.360	-0.240	0.940	102.310	-1.800	1.400																			1580046886.0	10.96	20.30
26/01/2020 13:54:47	26012020	260120	135447	102.260	12.342218	-56.872747	102.270	-0.250	-0.010	0.630	102.250	-1.400	1.200																			1580046887.0	10.80	20.00
26/01/2020 13:54:48	26012020	260120	135448	102.270	12.342208	-56.872697	102.330	-0.020	-0.130	0.150	102.280	-1.400	0.700																			1580046888.0	11.00	20.37
26/01/2020 13:54:49	26012020	260120	135449	102.340	12.342200	-56.872643	102.360	0.260	-0.360	-0.080	102.350	-1.700	0.400																			1580046889.0	11.38	21.08
26/01/2020 13:54:50	26012020	260120	135450	102.370	12.342190	-56.872590	102.420	0.370	-0.320	-0.010	102.380	-1.800	0.400																			1580046890.0	11.41	21.13
26/01/2020 13:54:51	26012020	260120	135451	102.440	12.342180	-56.872538	102.470	0.270	-0.160	0.160	102.450	-1.600	0.500																			1580046891.0	11.04	20.45
26/01/2020 13:54:52	26012020	260120	135452	102.450	12.342170	-56.872488	102.430	0.150	-0.250	0.410	102.450	-1.600	0.700																			1580046892.0	10.94	20.26
26/01/2020 13:54:53	26012020	260120	135453	102.410	12.342158	-56.872437	102.430	0.070	-0.340	0.590	102.400	-1.700	0.900																			1580046893.0	11.27	20.87
26/01/2020 13:54:54	26012020	260120	135454	102.430	12.342145	-56.872385	102.490	-0.080	-0.090	0.750	102.440	-1.600	1.100																			1580046894.0	11.19	20.72
26/01/2020 13:54:55	26012020	260120	135455	102.490	12.342133	-56.872335	102.550	-0.280	0.220	0.770	102.500	-1.300	1.200																			1580046895.0	10.72	19.85
26/01/2020 13:54:56	26012020	260120	135456	102.540	12.342122	-56.872287	102.510	-0.320	-0.010	0.670	102.540	-1.200	1.100																			1580046896.0	10.71	19.83
26/01/2020 13:54:57	26012020	260120	135457	102.460	12.342110	-56.872233	102.400	-0.090	-0.630	0.530	102.440	-1.800	1.000																			1580046897.0	11.36	21.04
26/01/2020 13:54:58	26012020	260120	135458	102.380	12.342098	-56.872180	102.400	0.130	-0.750	0.310	102.380	-2.200	0.800																			1580046898.0	11.74	21.74
26/01/2020 13:54:59	26012020	260120	135459	102.420	12.342088	-56.872128	102.480	0.100	-0.140	0.200	102.430	-1.800	0.600																			1580046899.0	11.06	20.48
26/01/2020 13:55:00	26012020	260120	135500	102.500	12.342077	-56.872082	102.560	-0.090	0.370	0.230	102.520	-1.100	0.600	1016.60	26.10	26.10	18.80	18.80	728.00	64.00	64.00	374.00	28.30	354.00	11.00	90.00	5.40	53040	3075.00	27.50	27.40	1580046900.0	10.24	18.96
26/01/2020 13:55:01	26012020	260120	135501	102.560	12.342067	-56.872033	102.580	-0.100	0.050	0.320	102.570	-1.100	0.700																			1580046901.0	10.50	19.45
26/01/2020 13:55:02	26012020	260120	135502	102.580	12.342055	-56.871980	102.570	0.130	-0.710	0.460	102.580	-1.800	0.800																			1580046902.0	11.44	21.19
26/01/2020 13:55:03	26012020	260120	135503	102.540	12.342043	-56.871925	102.480	0.350	-1.020	0.640	102.530	-2.400	1.000																			1580046903.0	11.81	21.87
26/01/2020 13:55:04	26012020	260120	135504	102.420	12.342032	-56.871873	102.340	0.350	-0.680	0.790	102.390	-2.300	1.100																			1580046904.0	11.27	20.87
26/01/2020 13:55:05	26012020	260120	135505	102.290	12.342020	-56.871825	102.250	0.160	-0.130	0.870	102.280	-1.700	1.300																			1580046905.0	10.69	19.80
26/01/2020 13:55:06	26012020	260120	135506	102.210	12.342008	-56.871775	102.130	-0.080	0.150	0.760	102.180	-1.300	1.200																			1580046906.0	10.63	19.69
26/01/2020 13:55:07	26012020	260120	135507	102.080	12.342000	-56.871725	101.980	-0.230	0.100	0.500	102.050	-1.300	1.000																			1580046907.0	10.97	20.32
26/01/2020 13:55:08	26012020	260120	135508	101.940	12.341990	-56.871672	101.930	-0.220	-0.090	0.450	101.930	-1.400	0.800																			1580046908.0	11.24	20.82
26/01/2020 13:55:09	26012020	260120	135509	101.930	12.341978	-56.871620	101.970	-0.200	-0.260	0.550	101.930	-1.600	0.900																			1580046909.0	11.33	20.98
26/01/2020 13:55:10	26012020	260120	135510	101.960	12.341965	-56.871568	101.980	-0.230	-0.320	0.680	101.960	-1.700	1.000																			1580046910.0	11.25	20.84
26/01/2020 13:55:11	26012020	260120	135511	101.940	12.341953	-56.871518	101.930	-0.240	-0.250	0.880	101.930	-1.700	1.200																			1580046911.0	11.07	20.50
26/01/2020 13:55:12	26012020	260120	135512	101.890	12.341940	-56.871467	101.950	-0.140	-0.170	0.920	101.880	-1.600	1.300																			1580046912.0	10.94	20.26
26/01/2020 13:55:13	26012020	260120	135513	101.940	12.341930	-56.871417	102.080	0.020	-0.200	0.730	101.960	-1.600	1.200																			1580046913.0	10.94	20.26
26/01/2020 13:55:14	26012020	260120	135514	102.100	12.341918	-56.871365	102.230	0.170	-0.320	0.510	102.130	-1.700	1.000																			1580046914.0	11.05	20.46
26/01/2020 13:55:15	26012020	260120	135515	102.220	12.341908	-56.871313	102.210	0.260	-0.370	0.350	102.220	-1.800	0.800																			1580046915.0	11.14	20.63
26/01/2020 13:55:16	26012020	260120	135516	102.140	12.341898	-56.871263	101.970	0.270	-0.310	0.290	102.090	-1.700	0.700																			1580046916.0	11.03	20.43
26/01/2020 13:55:17	26012020	260120	135517	101.890	12.341890	-56.871212	101.800	0.220	-0.250	0.200	101.850	-1.700	0.700																			1580046917.0	10.96	20.30
26/01/2020 13:55:18	26012020	260120	135518	101.780	12.341880	-56.871162	101.850	0.140	-0.160	0.070	101.790	-1.600	0.500																			1580046918.0	10.97	20.32
26/01/2020 13:55:19	26012020	260120	135519	101.870	12.341872	-56.871110	101.940	0.050	-0.150	0.100	101.890	-1.500	0.500																			1580046919.0	10.95	20.28
26/01/2020 13:55:20	26012020	260120	135520	101.930	12.341862	-56.871058	101.920	-0.050	-0.280	0.360	101.930	-1.600	0.600																			1580046920.0	11.03	20.43
26/01/2020 13:55:21	26012020	260120	135521	101.870	12.341848	-56.871007	101.840	-0.090	-0.460	0.710	101.850	-1.800	1.000																			1580046921.0	11.21	20.76
26/01/2020 13:55:22	26012020	260120	135522	101.790	12.341837	-56.870955	101.780	-0.100	-0.460	0.970	101.770	-1.900	1.300																			1580046922.0	11.27	20.87
26/01/2020 13:55:23	26012020	260120	135523	101.720	12.341823	-56.870905	101.690	-0.170	-0.290	0.970	101.700	-1.800	1.400																			1580046923.0	11.08	20.52
26/01/2020 13:55:24	26012020	260120	135524	101.630	12.341813	-56.870855	101.600	-0.250	-0.120	0.820	101.610	-1.600	1.300																			1580046924.0	10.89	20.17
26/01/2020 13:55:25	26012020	260120	135525	101.540	12.341803	-56.870803	101.490	-0.160	-0.220	0.700	101.510	-1.500	1.100																			1580046925.0	10.96	20.30
26/01/2020 13:55:26	26012020	260120	135526	101.440	12.341792	-56.870752	101.410	0.080	-0.480	0.520	101.420	-1.800	1.000																			1580046926.0	11.35	21.02
26/01/2020 13:55:27	26012020	260120	135527	101.380	12.341782	-56.870698	101.420	0.150	-0.450	0.300	101.380	-1.900	0.800																			1580046927.0	11.49	21.28
26/01/2020 13:55:28	26012020	260120	135528	101.410	12.341773	-56.870647	101.490	0.020	-0.110	0.300	101.420	-1.700	0.700																			1580046928.0	11.08	20.52
26/01/2020 13:55:29	26012020	260120	135529	101.480	12.341762	-56.870597	101.570	-0.140	0.230	0.510	101.500	-1.300	0.800																			1580046929.0	10.73	19.87
26/01/2020 13:55:30	26012020	260120	135530	101.550	12.341750	-56.870547	101.640	-0.200	0.310	0.670	101.560	-1.100	1.000																			1580046930.0	10.72	19.85
26/01/2020 13:55:31	26012020	260120	135531	101.620	12.341738	-56.870497	101.690	-0.130	0.110	0.630	101.630	-1.200	1.100																			1580046931.0	10.92	20.22
26/01/2020 13:55:32	26012020	260120	135532	101.650	12.341730	-56.870445	101.680	0.050	-0.310	0.510	101.650	-1.500	1.000																			1580046932.0	11.10	20.56
26/01/2020 13:55:33	26012020	260120	135533	101.640	12.341720	-56.870393	101.610	0.260	-0.770	0.350	101.620	-2.000	0.800																			1580046933.0	11.31	20.95
26/01/2020 13:55:34	26012020	260120	135534	101.550	12.341710	-56.870340	101.500	0.360	-0.930	0.270	101.530	-2.300	0.700																			1580046934.0	11.39	21.09
26/01/2020 13:55:35	26012020	260120	135535	101.440	12.341702	-56.870288	101.400	0.270	-0.570	0.190	101.430	-2.200	0.600																			1580046935.0	11.09	20.54
26/01/2020 13:55:36	26012020	260120	135536	101.360	12.341693	-56.870238	101.340	0.050	-0.070	0.170	101.340	-1.600	0.600																			1580046936.0	10.61	19.65
26/01/2020 13:55:37	26012020	260120	135537	101.280	12.341683	-56.870190	101.220	-0.110	-0.000	0.340	101.260	-1.400	0.700																			1580046937.0	10.61	19.65
26/01/2020 13:55:38	26012020	260120	135538	101.140	12.341672	-56.870138	101.070	-0.070	-0.390	0.560	101.100	-1.600	0.900																			1580046938.0	11.20	20.74
26/01/2020 13:55:39	26012020	260120	135539	100.980	12.341660	-56.870083	100.970	0.040	-0.640	0.760	100.950	-2.000	1.100																			1580046939.0	11.70	21.67
26/01/2020 13:55:40	26012020	260120	135540	100.910	12.341648	-56.870032	101.010	-0.010	-0.290	0.870	100.910	-1.900	1.200																			1580046940.0	11.46	21.22
26/01/2020 13:55:41	26012020	260120	135541	100.990	12.341637	-56.869982	101.150	-0.300	0.390	0.810	101.010	-1.300	1.200																			1580046941.0	10.71	19.83
26/01/2020 13:55:42	26012020	260120	135542	101.110	12.341627	-56.869933	101.190	-0.560	0.600	0.690	101.120	-0.800	1.100																			1580046942.0	10.32	19.11
26/01/2020 13:55:43	26012020	260120	135543	101.120	12.341617	-56.869883	101.140	-0.500	0.040	0.640	101.110	-1.100	1.000																			1580046943.0	10.86	20.11
26/01/2020 13:55:44	26012020	260120	135544	101.040	12.341605	-56.869830	101.030	-0.150	-0.740	0.630	101.020	-1.900	1.000																			1580046944.0	11.61	21.50
26/01/2020 13:55:45	26012020	260120	135545	100.950	12.341595	-56.869775	100.990	0.200	-1.010	0.580	100.940	-2.400	1.000																			1580046945.0	11.74	21.74
26/01/2020 13:55:46	26012020	260120	135546	100.940	12.341585	-56.869723	101.030	0.310	-0.570	0.490	100.940	-2.200	0.900																			1580046946.0	11.13	20.61
26/01/2020 13:55:47	26012020	260120	135547	100.990	12.341575	-56.869675	101.050	0.220	0.010	0.330	101.000	-1.600	0.800																			1580046947.0	10.49	19.43
26/01/2020 13:55:48	26012020	260120	135548	100.990	12.341567	-56.869627	100.950	0.150	0.140	0.270	100.970	-1.200	0.700																			1580046948.0	10.46	19.37
26/01/2020 13:55:49	26012020	260120	135549	100.880	12.341558	-56.869575	100.870	0.300	-0.280	0.370	100.860	-1.500	0.700																			1580046949.0	11.04	20.45
26/01/2020 13:55:50	26012020	260120	135550	100.820	12.341548	-56.869520	100.920	0.480	-0.580	0.480	100.820	-1.900	0.800																			1580046950.0	11.61	21.50
26/01/2020 13:55:51	26012020	260120	135551	100.890	12.341538	-56.869468	101.030	0.340	-0.300	0.570	100.910	-1.900	0.900																			1580046951.0	11.36	21.04
26/01/2020 13:55:52	26012020	260120	135552	100.990	12.341530	-56.869418	101.070	-0.100	0.140	0.800	101.000	-1.400	1.100																			1580046952.0	10.60	19.63
26/01/2020 13:55:53	26012020	260120	135553	100.990	12.341518	-56.869370	101.010	-0.480	0.130	1.260	100.970	-1.200	1.500																			1580046953.0	10.53	19.50
26/01/2020 13:55:54	26012020	260120	135554	100.900	12.341507	-56.869320	100.930	-0.540	-0.270	1.480	100.880	-1.500	1.800																			1580046954.0	11.06	20.48
26/01/2020 13:55:55	26012020	260120	135555	100.820	12.341493	-56.869267	100.850	-0.370	-0.660	1.310	100.800	-1.900	1.800																			1580046955.0	11.45	21.21
26/01/2020 13:55:56	26012020	260120	135556	100.730	12.341483	-56.869213	100.780	-0.130	-0.710	1.010	100.720	-2.100	1.500																			1580046956.0	11.38	21.08
26/01/2020 13:55:57	26012020	260120	135557	100.700	12.341473	-56.869163	100.770	0.040	-0.420	0.660	100.700	-2.000	1.200																			1580046957.0	11.06	20.48
26/01/2020 13:55:58	26012020	260120	135558	100.700	12.341465	-56.869112	100.720	0.140	-0.110	0.380	100.690	-1.600	0.900																			1580046958.0	10.79	19.98
26/01/2020 13:55:59	26012020	260120	135559	100.650	12.341457	-56.869062	100.700	0.220	0.060	0.200	100.640	-1.400	0.700																			1580046959.0	10.83	20.06
26/01/2020 13:56:00	26012020	260120	135600	100.670	12.341450	-56.869010	100.870	0.240	0.050	0.120	100.700	-1.300	0.500	1016.60	26.10	26.10	18.80	18.90	735.00	64.00	64.00	374.00	28.40	357.00	11.00	94.00	5.30	53409	3225.00	27.50	27.40	1580046960.0	10.97	20.32
26/01/2020 13:56:01	26012020	260120	135601	100.890	12.341442	-56.868958	101.120	0.170	-0.050	0.260	100.940	-1.400	0.600																			1580046961.0	11.05	20.46
26/01/2020 13:56:02	26012020	260120	135602	101.120	12.341432	-56.868908	101.260	0.080	-0.240	0.560	101.150	-1.600	0.900																			1580046962.0	11.02	20.41
26/01/2020 13:56:03	26012020	260120	135603	101.210	12.341420	-56.868857	101.260	0.130	-0.550	0.830	101.210	-1.800	1.100																			1580046963.0	11.11	20.58
26/01/2020 13:56:04	26012020	260120	135604	101.170	12.341410	-56.868803	101.200	0.240	-0.680	0.910	101.150	-2.100	1.300																			1580046964.0	11.32	20.96
26/01/2020 13:56:05	26012020	260120	135605	101.140	12.341400	-56.868752	101.260	0.110	-0.320	0.750	101.150	-1.900	1.200																			1580046965.0	11.11	20.58
26/01/2020 13:56:06	26012020	260120	135606	101.230	12.341392	-56.868703	101.370	-0.240	0.140	0.570	101.260	-1.400	1.000																			1580046966.0	10.56	19.56
26/01/2020 13:56:07	26012020	260120	135607	101.310	12.341383	-56.868653	101.330	-0.490	0.110	0.560	101.310	-1.200	0.900																			1580046967.0	10.52	19.48
26/01/2020 13:56:08	26012020	260120	135608	101.250	12.341372	-56.868603	101.300	-0.420	-0.410	0.590	101.240	-1.600	1.000																			1580046968.0	11.14	20.63
26/01/2020 13:56:09	26012020	260120	135609	101.260	12.341360	-56.868548	101.360	-0.170	-0.820	0.600	101.270	-2.100	1.000																			1580046969.0	11.65	21.58
26/01/2020 13:56:10	26012020	260120	135610	101.320	12.341348	-56.868497	101.390	0.050	-0.620	0.620	101.320	-2.200	1.000																			1580046970.0	11.45	21.21
26/01/2020 13:56:11	26012020	260120	135611	101.340	12.341337	-56.868447	101.400	0.130	0.000	0.450	101.340	-1.600	0.900																			1580046971.0	10.77	19.95
26/01/2020 13:56:12	26012020	260120	135612	101.370	12.341328	-56.868398	101.450	0.180	0.320	0.270	101.380	-1.100	0.700																			1580046972.0	10.40	19.26
26/01/2020 13:56:13	26012020	260120	135613	101.430	12.341320	-56.868348	101.490	0.320	0.030	0.250	101.440	-1.200	0.700																			1580046973.0	10.81	20.02
26/01/2020 13:56:14	26012020	260120	135614	101.450	12.341312	-56.868295	101.480	0.440	-0.380	0.300	101.450	-1.700	0.700																			1580046974.0	11.41	21.13
26/01/2020 13:56:15	26012020	260120	135615	101.450	12.341303	-56.868242	101.590	0.300	-0.340	0.360	101.470	-1.800	0.700																			1580046975.0	11.38	21.08
26/01/2020 13:56:16	26012020	260120	135616	101.610	12.341293	-56.868192	101.830	-0.040	-0.060	0.460	101.650	-1.600	0.800																			1580046976.0	10.74	19.89
26/01/2020 13:56:17	26012020	260120	135617	101.840	12.341283	-56.868143	102.000	-0.270	-0.070	0.740	101.890	-1.400	1.000																			1580046977.0	10.52	19.48
26/01/2020 13:56:18	26012020	260120	135618	101.960	12.341272	-56.868092	101.950	-0.230	-0.460	1.110	101.960	-1.700	1.400																			1580046978.0	10.92	20.22
26/01/2020 13:56:19	26012020	260120	135619	101.840	12.341258	-56.868040	101.730	-0.060	-0.870	1.260	101.810	-2.200	1.600																			1580046979.0	11.38	21.08
26/01/2020 13:56:20	26012020	260120	135620	101.620	12.341247	-56.867987	101.530	0.050	-0.890	1.180	101.580	-2.400	1.600																			1580046980.0	11.45	21.21
26/01/2020 13:56:21	26012020	260120	135621	101.450	12.341237	-56.867937	101.440	-0.000	-0.490	0.840	101.430	-2.100	1.400																			1580046981.0	11.09	20.54
26/01/2020 13:56:22	26012020	260120	135622	101.400	12.341228	-56.867885	101.530	-0.170	0.020	0.360	101.420	-1.600	0.900																			1580046982.0	10.77	19.95
26/01/2020 13:56:23	26012020	260120	135623	101.570	12.341220	-56.867835	101.780	-0.330	0.350	0.200	101.620	-1.200	0.600																			1580046983.0	10.72	19.85
26/01/2020 13:56:24	26012020	260120	135624	101.820	12.341210	-56.867785	101.960	-0.330	0.390	0.250	101.870	-1.000	0.600																			1580046984.0	10.84	20.08
26/01/2020 13:56:25	26012020	260120	135625	101.950	12.341198	-56.867735	102.000	-0.150	0.170	0.200	101.960	-1.100	0.600																			1580046985.0	11.03	20.43
26/01/2020 13:56:26	26012020	260120	135626	101.990	12.341187	-56.867683	102.070	0.190	-0.250	0.080	102.000	-1.500	0.500																			1580046986.0	11.19	20.72
26/01/2020 13:56:27	26012020	260120	135627	102.090	12.341178	-56.867630	102.240	0.550	-0.620	-0.090	102.120	-1.900	0.400																			1580046987.0	11.35	21.02
26/01/2020 13:56:28	26012020	260120	135628	102.290	12.341170	-56.867578	102.480	0.640	-0.490	-0.240	102.340	-2.000	0.200																			1580046988.0	11.25	20.84
26/01/2020 13:56:29	26012020	260120	135629	102.540	12.341162	-56.867528	102.650	0.340	0.000	-0.180	102.580	-1.600	0.200																			1580046989.0	10.57	19.58
26/01/2020 13:56:30	26012020	260120	135630	102.650	12.341153	-56.867482	102.570	-0.030	0.040	0.130	102.650	-1.300	0.400																			1580046990.0	10.20	18.89
26/01/2020 13:56:31	26012020	260120	135631	102.510	12.341142	-56.867430	102.340	-0.140	-0.610	0.530	102.460	-1.700	0.800																			1580046991.0	10.87	20.13
26/01/2020 13:56:32	26012020	260120	135632	102.240	12.341128	-56.867377	102.090	-0.070	-1.220	0.820	102.200	-2.500	1.100																			1580046992.0	11.70	21.67
26/01/2020 13:56:33	26012020	260120	135633	102.010	12.341115	-56.867323	101.920	-0.070	-1.010	0.880	101.980	-2.600	1.300																			1580046993.0	11.64	21.56
26/01/2020 13:56:34	26012020	260120	135634	101.850	12.341103	-56.867275	101.770	-0.260	-0.150	0.810	101.830	-1.900	1.200																			1580046994.0	10.78	19.96
26/01/2020 13:56:35	26012020	260120	135635	101.720	12.341092	-56.867227	101.670	-0.480	0.350	0.630	101.700	-1.200	1.100																			1580046995.0	10.30	19.08
26/01/2020 13:56:36	26012020	260120	135636	101.650	12.341082	-56.867177	101.700	-0.450	0.120	0.440	101.650	-1.100	0.900																			1580046996.0	10.88	20.15
26/01/2020 13:56:37	26012020	260120	135637	101.720	12.341070	-56.867123	101.910	-0.210	-0.170	0.230	101.760	-1.500	0.700																			1580046997.0	11.59	21.46
26/01/2020 13:56:38	26012020	260120	135638	101.990	12.341058	-56.867070	102.250	-0.020	0.080	-0.040	102.060	-1.500	0.400																			1580046998.0	11.42	21.15
26/01/2020 13:56:39	26012020	260120	135639	102.330	12.341048	-56.867022	102.530	-0.020	0.500	-0.040	102.390	-1.000	0.300																			1580046999.0	10.61	19.65
26/01/2020 13:56:40	26012020	260120	135640	102.570	12.341038	-56.866973	102.670	0.030	0.360	0.160	102.610	-0.900	0.500																			1580047000.0	10.33	19.13
26/01/2020 13:56:41	26012020	260120	135641	102.690	12.341027	-56.866923	102.700	0.350	-0.370	0.290	102.700	-1.500	0.700																			1580047001.0	10.93	20.24
26/01/2020 13:56:42	26012020	260120	135642	102.710	12.341017	-56.866870	102.690	0.710	-0.950	0.310	102.710	-2.200	0.700																			1580047002.0	11.48	21.26
26/01/2020 13:56:43	26012020	260120	135643	102.700	12.341008	-56.866817	102.660	0.750	-0.880	0.330	102.690	-2.400	0.700																			1580047003.0	11.24	20.82
26/01/2020 13:56:44	26012020	260120	135644	102.650	12.341000	-56.866768	102.550	0.410	-0.450	0.430	102.630	-2.000	0.800																			1580047004.0	10.56	19.56
26/01/2020 13:56:45	26012020	260120	135645	102.510	12.340990	-56.866720	102.310	-0.040	-0.300	0.650	102.460	-1.700	1.000																			1580047005.0	10.37	19.21
26/01/2020 13:56:46	26012020	260120	135646	102.220	12.340978	-56.866670	101.950	-0.270	-0.620	0.920	102.150	-1.900	1.200																			1580047006.0	10.92	20.22
26/01/2020 13:56:47	26012020	260120	135647	101.840	12.340965	-56.866617	101.630	-0.280	-0.910	1.140	101.770	-2.300	1.500																			1580047007.0	11.59	21.46
26/01/2020 13:56:48	26012020	260120	135648	101.560	12.340952	-56.866563	101.580	-0.300	-0.530	1.110	101.540	-2.200	1.600																			1580047008.0	11.60	21.48
26/01/2020 13:56:49	26012020	260120	135649	101.590	12.340938	-56.866513	101.760	-0.550	0.370	0.910	101.620	-1.400	1.400																			1580047009.0	10.86	20.11
26/01/2020 13:56:50	26012020	260120	135650	101.800	12.340927	-56.866467	101.970	-0.790	0.910	0.550	101.840	-0.600	1.100																			1580047010.0	10.27	19.02
26/01/2020 13:56:51	26012020	260120	135651	102.000	12.340915	-56.866418	102.140	-0.560	0.530	0.190	102.040	-0.700	0.700																			1580047011.0	10.64	19.71
26/01/2020 13:56:52	26012020	260120	135652	102.200	12.340905	-56.866365	102.430	0.090	-0.140	-0.160	102.250	-1.300	0.400																			1580047012.0	11.52	21.34
26/01/2020 13:56:53	26012020	260120	135653	102.550	12.340895	-56.866312	102.820	0.580	-0.320	-0.500	102.630	-1.700	0.000																			1580047013.0	11.50	21.30
26/01/2020 13:56:54	26012020	260120	135654	102.930	12.340888	-56.866262	103.060	0.650	-0.220	-0.560	102.980	-1.700	-0.200																			1580047014.0	10.74	19.89
26/01/2020 13:56:55	26012020	260120	135655	103.100	12.340880	-56.866212	103.070	0.520	-0.350	-0.210	103.110	-1.700	0.000																			1580047015.0	10.44	19.33
26/01/2020 13:56:56	26012020	260120	135656	103.040	12.340868	-56.866162	102.880	0.430	-0.690	0.370	103.010	-2.000	0.500																			1580047016.0	10.78	19.96
26/01/2020 13:56:57	26012020	260120	135657	102.790	12.340857	-56.866112	102.570	0.300	-0.850	0.890	102.730	-2.200	1.100																			1580047017.0	11.06	20.48
26/01/2020 13:56:58	26012020	260120	135658	102.460	12.340845	-56.866062	102.260	0.130	-0.740	1.150	102.400	-2.200	1.500																			1580047018.0	10.94	20.26
26/01/2020 13:56:59	26012020	260120	135659	102.150	12.340833	-56.866012	101.950	-0.010	-0.640	1.250	102.090	-2.100	1.600																			1580047019.0	10.87	20.13
26/01/2020 13:57:00	26012020	260120	135700	101.840	12.340822	-56.865960	101.680	-0.120	-0.540	1.190	101.780	-2.000	1.600	1016.60	26.10	26.10	18.60	18.70	750.00	63.00	63.00	373.00	28.40	355.00	10.80	91.00	5.20	54223	3378.00	27.50	27.40	1580047020.0	11.13	20.61
26/01/2020 13:57:01	26012020	260120	135701	101.610	12.340810	-56.865908	101.600	-0.260	-0.210	1.010	101.590	-1.800	1.500																			1580047021.0	11.26	20.85
26/01/2020 13:57:02	26012020	260120	135702	101.600	12.340798	-56.865858	101.770	-0.450	0.400	0.700	101.640	-1.300	1.200																			1580047022.0	10.94	20.26
26/01/2020 13:57:03	26012020	260120	135703	101.830	12.340787	-56.865810	102.080	-0.580	0.800	0.350	101.890	-0.700	0.900																			1580047023.0	10.53	19.50
26/01/2020 13:57:04	26012020	260120	135704	102.150	12.340777	-56.865760	102.390	-0.500	0.590	0.180	102.220	-0.700	0.600																			1580047024.0	10.66	19.74
26/01/2020 13:57:05	26012020	260120	135705	102.450	12.340765	-56.865708	102.650	-0.230	0.050	0.120	102.510	-1.200	0.500																			1580047025.0	11.12	20.59
26/01/2020 13:57:06	26012020	260120	135706	102.710	12.340753	-56.865657	102.830	0.120	-0.440	0.120	102.740	-1.700	0.500																			1580047026.0	11.22	20.78
26/01/2020 13:57:07	26012020	260120	135707	102.840	12.340742	-56.865607	102.830	0.370	-0.670	0.270	102.850	-2.000	0.600																			1580047027.0	10.99	20.35
26/01/2020 13:57:08	26012020	260120	135708	102.790	12.340732	-56.865557	102.670	0.460	-0.710	0.430	102.760	-2.100	0.800																			1580047028.0	10.73	19.87
26/01/2020 13:57:09	26012020	260120	135709	102.610	12.340722	-56.865507	102.430	0.440	-0.740	0.470	102.560	-2.100	0.900																			1580047029.0	10.66	19.74
26/01/2020 13:57:10	26012020	260120	135710	102.360	12.340713	-56.865457	102.170	0.410	-0.790	0.520	102.310	-2.200	0.900																			1580047030.0	10.85	20.09
26/01/2020 13:57:11	26012020	260120	135711	102.100	12.340703	-56.865405	101.890	0.390	-0.800	0.650	102.040	-2.200	1.000																			1580047031.0	11.09	20.54
26/01/2020 13:57:12	26012020	260120	135712	101.810	12.340692	-56.865353	101.670	0.240	-0.540	0.730	101.770	-2.100	1.100																			1580047032.0	11.24	20.82
26/01/2020 13:57:13	26012020	260120	135713	101.620	12.340682	-56.865302	101.620	-0.130	0.120	0.690	101.610	-1.600	1.100																			1580047033.0	11.01	20.39
26/01/2020 13:57:14	26012020	260120	135714	101.630	12.340670	-56.865253	101.780	-0.570	0.730	0.580	101.660	-0.900	1.000																			1580047034.0	10.54	19.52
26/01/2020 13:57:15	26012020	260120	135715	101.830	12.340658	-56.865205	102.000	-0.730	0.730	0.490	101.880	-0.600	0.900																			1580047035.0	10.53	19.50
26/01/2020 13:57:16	26012020	260120	135716	102.030	12.340647	-56.865155	102.130	-0.500	0.150	0.410	102.050	-1.000	0.800																			1580047036.0	11.08	20.52
26/01/2020 13:57:17	26012020	260120	135717	102.150	12.340635	-56.865102	102.240	-0.120	-0.420	0.370	102.170	-1.700	0.800																			1580047037.0	11.51	21.32
26/01/2020 13:57:18	26012020	260120	135718	102.250	12.340623	-56.865050	102.280	0.090	-0.560	0.460	102.260	-2.000	0.800																			1580047038.0	11.30	20.93
26/01/2020 13:57:19	26012020	260120	135719	102.270	12.340612	-56.865000	102.240	0.100	-0.340	0.510	102.260	-1.900	0.900																			1580047039.0	10.70	19.82
26/01/2020 13:57:20	26012020	260120	135720	102.210	12.340602	-56.864952	102.130	0.100	-0.270	0.480	102.180	-1.700	0.900																			1580047040.0	10.36	19.19
26/01/2020 13:57:21	26012020	260120	135721	102.070	12.340592	-56.864903	101.940	0.250	-0.600	0.550	102.040	-1.900	0.900																			1580047041.0	10.70	19.82
26/01/2020 13:57:22	26012020	260120	135722	101.860	12.340582	-56.864850	101.750	0.440	-0.890	0.670	101.820	-2.200	1.000																			1580047042.0	11.25	20.84
26/01/2020 13:57:23	26012020	260120	135723	101.670	12.340572	-56.864798	101.600	0.450	-0.790	0.770	101.650	-2.300	1.100																			1580047043.0	11.26	20.85
26/01/2020 13:57:24	26012020	260120	135724	101.530	12.340560	-56.864748	101.450	0.230	-0.330	0.890	101.500	-1.900	1.200																			1580047044.0	10.93	20.24
26/01/2020 13:57:25	26012020	260120	135725	101.380	12.340548	-56.864698	101.330	-0.160	0.190	1.040	101.350	-1.400	1.400																			1580047045.0	10.67	19.76
26/01/2020 13:57:26	26012020	260120	135726	101.260	12.340538	-56.864650	101.280	-0.450	0.430	1.120	101.250	-1.000	1.500																			1580047046.0	10.61	19.65
26/01/2020 13:57:27	26012020	260120	135727	101.220	12.340527	-56.864600	101.260	-0.370	0.170	1.000	101.210	-1.100	1.500																			1580047047.0	10.89	20.17
26/01/2020 13:57:28	26012020	260120	135728	101.200	12.340515	-56.864547	101.260	-0.010	-0.270	0.780	101.200	-1.500	1.300																			1580047048.0	11.40	21.11
26/01/2020 13:57:29	26012020	260120	135729	101.220	12.340507	-56.864493	101.360	0.160	-0.290	0.600	101.240	-1.800	1.100																			1580047049.0	11.43	21.17
26/01/2020 13:57:30	26012020	260120	135730	101.370	12.340497	-56.864443	101.580	0.010	0.030	0.410	101.410	-1.500	0.900																			1580047050.0	10.77	19.95
26/01/2020 13:57:31	26012020	260120	135731	101.600	12.340488	-56.864395	101.740	-0.130	0.120	0.420	101.630	-1.300	0.800																			1580047051.0	10.34	19.15
26/01/2020 13:57:32	26012020	260120	135732	101.710	12.340478	-56.864347	101.740	-0.060	-0.230	0.590	101.720	-1.500	0.900																			1580047052.0	10.63	19.69
26/01/2020 13:57:33	26012020	260120	135733	101.660	12.340467	-56.864295	101.580	0.160	-0.760	0.730	101.630	-2.000	1.100																			1580047053.0	11.12	20.59
26/01/2020 13:57:34	26012020	260120	135734	101.460	12.340457	-56.864242	101.350	0.350	-1.050	0.800	101.420	-2.400	1.200																			1580047054.0	11.31	20.95
26/01/2020 13:57:35	26012020	260120	135735	101.220	12.340447	-56.864190	101.100	0.340	-0.920	0.850	101.170	-2.400	1.200																			1580047055.0	11.14	20.63
26/01/2020 13:57:36	26012020	260120	135736	100.970	12.340437	-56.864140	100.900	0.090	-0.480	0.790	100.930	-2.100	1.200																			1580047056.0	10.88	20.15
26/01/2020 13:57:37	26012020	260120	135737	100.810	12.340428	-56.864090	100.850	-0.270	0.020	0.720	100.800	-1.600	1.100																			1580047057.0	10.69	19.80
26/01/2020 13:57:38	26012020	260120	135738	100.810	12.340418	-56.864040	100.930	-0.490	0.280	0.710	100.820	-1.200	1.100																			1580047058.0	10.69	19.80
26/01/2020 13:57:39	26012020	260120	135739	100.900	12.340407	-56.863990	101.010	-0.420	0.160	0.720	100.920	-1.200	1.100																			1580047059.0	10.99	20.35
26/01/2020 13:57:40	26012020	260120	135740	100.960	12.340395	-56.863938	101.020	-0.160	-0.090	0.670	100.960	-1.400	1.100																			1580047060.0	11.34	21.00
26/01/2020 13:57:41	26012020	260120	135741	100.990	12.340383	-56.863885	101.140	0.050	-0.040	0.510	101.010	-1.500	1.000																			1580047061.0	11.31	20.95
26/01/2020 13:57:42	26012020	260120	135742	101.160	12.340375	-56.863835	101.430	0.080	0.190	0.240	101.220	-1.300	0.800																			1580047062.0	10.83	20.06
26/01/2020 13:57:43	26012020	260120	135743	101.490	12.340367	-56.863785	101.760	0.050	0.150	0.080	101.560	-1.200	0.500																			1580047063.0	10.55	19.54
26/01/2020 13:57:44	26012020	260120	135744	101.780	12.340358	-56.863735	101.890	0.150	-0.270	0.160	101.820	-1.500	0.500																			1580047064.0	10.80	20.00
26/01/2020 13:57:45	26012020	260120	135745	101.850	12.340348	-56.863683	101.840	0.360	-0.650	0.350	101.840	-1.900	0.700																			1580047065.0	11.14	20.63
26/01/2020 13:57:46	26012020	260120	135746	101.760	12.340338	-56.863632	101.700	0.450	-0.720	0.540	101.730	-2.100	0.900																			1580047066.0	11.07	20.50
26/01/2020 13:57:47	26012020	260120	135747	101.620	12.340328	-56.863582	101.590	0.300	-0.590	0.630	101.600	-2.000	1.000																			1580047067.0	10.81	20.02
26/01/2020 13:57:48	26012020	260120	135748	101.530	12.340320	-56.863532	101.520	-0.010	-0.480	0.580	101.510	-1.900	1.000																			1580047068.0	10.72	19.85
26/01/2020 13:57:49	26012020	260120	135749	101.440	12.340310	-56.863482	101.380	-0.300	-0.500	0.610	101.420	-1.900	1.000																			1580047069.0	10.89	20.17
26/01/2020 13:57:50	26012020	260120	135750	101.280	12.340300	-56.863430	101.190	-0.430	-0.480	0.700	101.240	-1.900	1.100																			1580047070.0	11.13	20.61
26/01/2020 13:57:51	26012020	260120	135751	101.080	12.340288	-56.863378	101.050	-0.430	-0.370	0.740	101.050	-1.800	1.100																			1580047071.0	11.18	20.71
26/01/2020 13:57:52	26012020	260120	135752	100.980	12.340275	-56.863328	101.050	-0.340	-0.210	0.590	100.970	-1.700	1.100																			1580047072.0	11.16	20.67
26/01/2020 13:57:53	26012020	260120	135753	101.020	12.340265	-56.863277	101.170	-0.230	0.000	0.290	101.050	-1.500	0.800																			1580047073.0	11.14	20.63
26/01/2020 13:57:54	26012020	260120	135754	101.170	12.340255	-56.863225	101.360	-0.180	0.280	0.020	101.210	-1.200	0.500																			1580047074.0	11.01	20.39
26/01/2020 13:57:55	26012020	260120	135755	101.390	12.340247	-56.863175	101.620	-0.140	0.440	-0.040	101.440	-1.000	0.400																			1580047075.0	10.81	20.02
26/01/2020 13:57:56	26012020	260120	135756	101.650	12.340237	-56.863125	101.850	0.040	0.200	-0.020	101.710	-1.100	0.400																			1580047076.0	10.83	20.06
26/01/2020 13:57:57	26012020	260120	135757	101.840	12.340227	-56.863073	101.910	0.360	-0.350	0.110	101.860	-1.500	0.400																			1580047077.0	11.18	20.71
26/01/2020 13:57:58	26012020	260120	135758	101.860	12.340217	-56.863020	101.900	0.530	-0.570	0.340	101.850	-2.000	0.700																			1580047078.0	11.42	21.15
26/01/2020 13:57:59	26012020	260120	135759	101.860	12.340207	-56.862968	101.960	0.370	-0.280	0.370	101.870	-1.800	0.800																			1580047079.0	10.86	20.11
26/01/2020 13:58:00	26012020	260120	135800	101.950	12.340198	-56.862922	102.020	0.120	-0.160	0.360	101.960	-1.500	0.800	1016.60	26.10	26.10	18.70	18.80	748.00	64.00	64.00	374.00	28.40	356.00	10.50	93.00	4.90	54232	3073.00	27.50	27.50	1580047080.0	10.33	19.13
26/01/2020 13:58:01	26012020	260120	135801	101.950	12.340190	-56.862872	101.860	0.090	-0.670	0.660	101.920	-1.800	0.900																			1580047081.0	10.74	19.89
26/01/2020 13:58:02	26012020	260120	135802	101.730	12.340177	-56.862818	101.610	0.120	-1.070	0.980	101.680	-2.400	1.300																			1580047082.0	11.57	21.43
26/01/2020 13:58:03	26012020	260120	135803	101.500	12.340165	-56.862765	101.470	-0.080	-0.640	1.110	101.460	-2.300	1.500																			1580047083.0	11.40	21.11
26/01/2020 13:58:04	26012020	260120	135804	101.400	12.340153	-56.862717	101.450	-0.430	0.170	0.990	101.390	-1.500	1.500																			1580047084.0	10.49	19.43
26/01/2020 13:58:05	26012020	260120	135805	101.400	12.340142	-56.862670	101.480	-0.600	0.370	0.640	101.400	-1.000	1.200																			1580047085.0	10.27	19.02
26/01/2020 13:58:06	26012020	260120	135806	101.450	12.340132	-56.862618	101.530	-0.450	-0.140	0.340	101.470	-1.300	0.800																			1580047086.0	11.04	20.45
26/01/2020 13:58:07	26012020	260120	135807	101.490	12.340122	-56.862565	101.500	-0.110	-0.590	0.360	101.480	-1.900	0.700																			1580047087.0	11.71	21.69
26/01/2020 13:58:08	26012020	260120	135808	101.440	12.340108	-56.862512	101.450	0.190	-0.500	0.300	101.440	-2.000	0.700																			1580047088.0	11.48	21.26
26/01/2020 13:58:09	26012020	260120	135809	101.400	12.340100	-56.862462	101.450	0.360	-0.160	0.170	101.400	-1.700	0.600																			1580047089.0	10.87	20.13
26/01/2020 13:58:10	26012020	260120	135810	101.430	12.340092	-56.862412	101.600	0.370	0.150	0.020	101.460	-1.300	0.500																			1580047090.0	10.72	19.85
26/01/2020 13:58:11	26012020	260120	135811	101.630	12.340083	-56.862362	101.820	0.200	0.330	-0.150	101.670	-1.100	0.300																			1580047091.0	10.69	19.80
26/01/2020 13:58:12	26012020	260120	135812	101.850	12.340077	-56.862312	101.960	0.020	0.120	-0.070	101.890	-1.100	0.300																			1580047092.0	10.72	19.85
26/01/2020 13:58:13	26012020	260120	135813	101.930	12.340067	-56.862260	101.920	-0.020	-0.430	0.320	101.920	-1.600	0.600																			1580047093.0	11.07	20.50
26/01/2020 13:58:14	26012020	260120	135814	101.880	12.340053	-56.862207	101.930	-0.010	-0.770	0.660	101.880	-2.100	1.000																			1580047094.0	11.41	21.13
26/01/2020 13:58:15	26012020	260120	135815	101.900	12.340042	-56.862157	101.960	-0.130	-0.670	0.860	101.910	-2.100	1.200																			1580047095.0	11.12	20.59
26/01/2020 13:58:16	26012020	260120	135816	101.900	12.340030	-56.862107	101.850	-0.240	-0.490	0.910	101.890	-1.900	1.300																			1580047096.0	10.72	19.85
26/01/2020 13:58:17	26012020	260120	135817	101.750	12.340017	-56.862057	101.610	-0.190	-0.440	0.890	101.700	-1.800	1.300																			1580047097.0	10.83	20.06
26/01/2020 13:58:18	26012020	260120	135818	101.500	12.340007	-56.862005	101.420	-0.050	-0.340	0.680	101.460	-1.800	1.200																			1580047098.0	11.11	20.58
26/01/2020 13:58:19	26012020	260120	135819	101.380	12.339997	-56.861955	101.430	-0.010	-0.070	0.430	101.370	-1.600	0.900																			1580047099.0	11.08	20.52
26/01/2020 13:58:20	26012020	260120	135820	101.430	12.339987	-56.861903	101.580	-0.030	0.190	0.290	101.460	-1.300	0.700																			1580047100.0	10.81	20.02
26/01/2020 13:58:21	26012020	260120	135821	101.610	12.339977	-56.861853	101.750	0.050	0.090	0.180	101.650	-1.200	0.600																			1580047101.0	10.82	20.04
26/01/2020 13:58:22	26012020	260120	135822	101.760	12.339967	-56.861802	101.850	0.260	-0.300	0.150	101.780	-1.500	0.500																			1580047102.0	11.20	20.74
26/01/2020 13:58:23	26012020	260120	135823	101.850	12.339957	-56.861748	101.990	0.410	-0.430	0.310	101.880	-1.800	0.600																			1580047103.0	11.47	21.24
26/01/2020 13:58:24	26012020	260120	135824	102.010	12.339947	-56.861698	102.210	0.260	-0.100	0.540	102.060	-1.700	0.900																			1580047104.0	11.02	20.41
26/01/2020 13:58:25	26012020	260120	135825	102.250	12.339937	-56.861650	102.460	-0.120	0.220	0.650	102.300	-1.300	1.000																			1580047105.0	10.44	19.33
26/01/2020 13:58:26	26012020	260120	135826	102.480	12.339925	-56.861602	102.570	-0.370	0.060	0.690	102.510	-1.200	1.100																			1580047106.0	10.48	19.41
26/01/2020 13:58:27	26012020	260120	135827	102.530	12.339913	-56.861550	102.500	-0.330	-0.480	0.660	102.520	-1.600	1.100																			1580047107.0	10.99	20.35
26/01/2020 13:58:28	26012020	260120	135828	102.430	12.339903	-56.861498	102.330	-0.080	-0.970	0.570	102.400	-2.200	1.000																			1580047108.0	11.42	21.15
26/01/2020 13:58:29	26012020	260120	135829	102.240	12.339892	-56.861445	102.110	0.120	-1.040	0.480	102.200	-2.500	0.900																			1580047109.0	11.41	21.13
26/01/2020 13:58:30	26012020	260120	135830	102.030	12.339882	-56.861393	101.910	0.150	-0.710	0.410	101.980	-2.300	0.800																			1580047110.0	11.07	20.50
26/01/2020 13:58:31	26012020	260120	135831	101.840	12.339872	-56.861343	101.730	0.090	-0.290	0.420	101.800	-1.800	0.800																			1580047111.0	10.85	20.09
26/01/2020 13:58:32	26012020	260120	135832	101.660	12.339860	-56.861293	101.590	0.010	0.060	0.450	101.630	-1.500	0.800																			1580047112.0	10.92	20.22
26/01/2020 13:58:33	26012020	260120	135833	101.550	12.339848	-56.861242	101.590	-0.060	0.260	0.450	101.550	-1.200	0.900																			1580047113.0	10.99	20.35
26/01/2020 13:58:34	26012020	260120	135834	101.600	12.339838	-56.861192	101.790	-0.050	0.290	0.380	101.600	-1.100	0.800																			1580047114.0	11.10	20.56
26/01/2020 13:58:35	26012020	260120	135835	101.830	12.339828	-56.861140	102.070	-0.050	0.340	0.270	101.890	-1.100	0.700																			1580047115.0	11.11	20.58
26/01/2020 13:58:36	26012020	260120	135836	102.120	12.339818	-56.861088	102.310	-0.110	0.300	0.200	102.120	-1.100	0.600																			1580047116.0	10.92	20.22
26/01/2020 13:58:37	26012020	260120	135837	102.340	12.339807	-56.861038	102.450	-0.140	0.020	0.330	102.370	-1.200	0.700																			1580047117.0	10.81	20.02
26/01/2020 13:58:38	26012020	260120	135838	102.460	12.339795	-56.860988	102.510	0.040	-0.510	0.550	102.470	-1.700	0.900																			1580047118.0	10.97	20.32
26/01/2020 13:58:39	26012020	260120	135839	102.490	12.339783	-56.860937	102.480	0.370	-1.020	0.650	102.480	-2.200	1.000																			1580047119.0	11.24	20.82
26/01/2020 13:58:40	26012020	260120	135840	102.420	12.339773	-56.860883	102.300	0.510	-1.100	0.750	102.390	-2.500	1.100																			1580047120.0	11.28	20.89
26/01/2020 13:58:41	26012020	260120	135841	102.210	12.339763	-56.860833	102.050	0.250	-0.680	1.020	102.150	-2.300	1.300																			1580047121.0	10.92	20.22
26/01/2020 13:58:42	26012020	260120	135842	101.950	12.339752	-56.860785	101.860	-0.190	-0.230	1.230	101.910	-1.800	1.600																			1580047122.0	10.51	19.46
26/01/2020 13:58:43	26012020	260120	135843	101.780	12.339740	-56.860735	101.750	-0.400	-0.240	1.210	101.760	-1.600	1.600																			1580047123.0	10.75	19.91
26/01/2020 13:58:44	26012020	260120	135844	101.670	12.339728	-56.860683	101.620	-0.300	-0.420	1.000	101.650	-1.800	1.500																			1580047124.0	11.40	21.11
26/01/2020 13:58:45	26012020	260120	135845	101.540	12.339717	-56.860630	101.480	-0.120	-0.300	0.740	101.510	-1.800	1.200																			1580047125.0	11.56	21.41
26/01/2020 13:58:46	26012020	260120	135846	101.420	12.339707	-56.860578	101.400	-0.030	0.080	0.490	101.400	-1.500	1.000																			1580047126.0	11.15	20.65
26/01/2020 13:58:47	26012020	260120	135847	101.380	12.339698	-56.860527	101.440	0.030	0.320	0.200	101.380	-1.100	0.700																			1580047127.0	10.86	20.11
26/01/2020 13:58:48	26012020	260120	135848	101.460	12.339690	-56.860477	101.590	0.080	0.270	0.040	101.490	-1.100	0.500																			1580047128.0	11.01	20.39
26/01/2020 13:58:49	26012020	260120	135849	101.640	12.339680	-56.860423	101.800	0.030	0.160	0.070	101.670	-1.200	0.400																			1580047129.0	11.14	20.63
26/01/2020 13:58:50	26012020	260120	135850	101.840	12.339670	-56.860373	101.980	-0.130	0.070	0.360	101.880	-1.300	0.600																			1580047130.0	10.97	20.32
26/01/2020 13:58:51	26012020	260120	135851	101.990	12.339658	-56.860323	102.060	-0.200	-0.220	0.730	102.010	-1.500	1.000																			1580047131.0	10.80	20.00
26/01/2020 13:58:52	26012020	260120	135852	102.040	12.339645	-56.860273	102.040	-0.010	-0.700	0.980	102.040	-1.900	1.300																			1580047132.0	10.99	20.35
26/01/2020 13:58:53	26012020	260120	135853	101.980	12.339633	-56.860222	101.900	0.330	-1.030	1.030	101.950	-2.300	1.400																			1580047133.0	11.27	20.87
26/01/2020 13:58:54	26012020	260120	135854	101.810	12.339623	-56.860170	101.650	0.500	-0.890	0.880	101.760	-2.400	1.400																			1580047134.0	11.17	20.69
26/01/2020 13:58:55	26012020	260120	135855	101.540	12.339615	-56.860120	101.390	0.360	-0.480	0.710	101.490	-2.000	1.200																			1580047135.0	10.83	20.06
26/01/2020 13:58:56	26012020	260120	135856	101.330	12.339607	-56.860070	101.300	0.050	-0.150	0.560	101.310	-1.600	1.000																			1580047136.0	10.73	19.87
26/01/2020 13:58:57	26012020	260120	135857	101.290	12.339598	-56.860018	101.340	-0.160	-0.030	0.440	101.310	-1.400	0.900																			1580047137.0	10.89	20.17
26/01/2020 13:58:58	26012020	260120	135858	101.340	12.339588	-56.859967	101.360	-0.150	-0.110	0.390	101.350	-1.500	0.800																			1580047138.0	11.15	20.65
26/01/2020 13:58:59	26012020	260120	135859	101.360	12.339577	-56.859915	101.420	-0.090	-0.140	0.440	101.370	-1.500	0.800																			1580047139.0	11.37	21.06
26/01/2020 13:59:00	26012020	260120	135900	101.440	12.339567	-56.859863	101.580	-0.160	0.030	0.630	101.470	-1.400	1.000	1016.60	26.00	26.10	18.70	18.80	740.00	64.00	64.00	374.00	28.40	356.00	10.20	94.00	4.60	54078	3198.00	27.40	27.40	1580047140.0	11.19	20.72
26/01/2020 13:59:01	26012020	260120	135901	101.620	12.339555	-56.859812	101.770	-0.320	0.140	0.790	101.650	-1.300	1.100																			1580047141.0	10.87	20.13
26/01/2020 13:59:02	26012020	260120	135902	101.780	12.339543	-56.859762	101.860	-0.380	-0.040	0.910	101.800	-1.300	1.300																			1580047142.0	10.88	20.15
26/01/2020 13:59:03	26012020	260120	135903	101.820	12.339532	-56.859712	101.830	-0.240	-0.380	1.050	101.820	-1.600	1.400																			1580047143.0	11.18	20.71
26/01/2020 13:59:04	26012020	260120	135904	101.790	12.339520	-56.859658	101.840	-0.010	-0.570	1.120	101.790	-1.900	1.500																			1580047144.0	11.27	20.87
26/01/2020 13:59:05	26012020	260120	135905	101.800	12.339508	-56.859607	101.850	0.180	-0.590	1.000	101.810	-2.000	1.500																			1580047145.0	11.09	20.54
26/01/2020 13:59:06	26012020	260120	135906	101.790	12.339500	-56.859557	101.740	0.250	-0.440	0.770	101.770	-1.900	1.300																			1580047146.0	11.00	20.37
26/01/2020 13:59:07	26012020	260120	135907	101.660	12.339492	-56.859505	101.550	0.230	-0.300	0.540	101.620	-1.700	1.000																			1580047147.0	10.87	20.13
26/01/2020 13:59:08	26012020	260120	135908	101.480	12.339482	-56.859455	101.460	0.270	-0.360	0.370	101.450	-1.700	0.800																			1580047148.0	11.04	20.45
26/01/2020 13:59:09	26012020	260120	135909	101.430	12.339473	-56.859402	101.540	0.300	-0.270	0.150	101.440	-1.700	0.700																			1580047149.0	11.31	20.95
26/01/2020 13:59:10	26012020	260120	135910	101.570	12.339465	-56.859350	101.760	0.210	0.140	-0.110	101.570	-1.400	0.400																			1580047150.0	11.05	20.46
26/01/2020 13:59:11	26012020	260120	135911	101.810	12.339457	-56.859300	101.940	-0.000	0.490	-0.070	101.850	-1.000	0.300																			1580047151.0	10.61	19.65
26/01/2020 13:59:12	26012020	260120	135912	101.950	12.339447	-56.859252	102.000	-0.150	0.230	0.280	101.950	-1.000	0.500																			1580047152.0	10.65	19.72
26/01/2020 13:59:13	26012020	260120	135913	101.980	12.339435	-56.859200	102.000	-0.110	-0.500	0.530	101.980	-1.600	0.900																			1580047153.0	11.25	20.84
26/01/2020 13:59:14	26012020	260120	135914	101.970	12.339423	-56.859145	102.000	-0.040	-1.010	0.600	101.970	-2.300	1.000																			1580047154.0	11.69	21.65
26/01/2020 13:59:15	26012020	260120	135915	101.980	12.339412	-56.859093	102.030	-0.130	-0.780	0.630	101.980	-2.300	1.000																			1580047155.0	11.38	21.08
26/01/2020 13:59:16	26012020	260120	135916	102.020	12.339400	-56.859043	102.060	-0.390	-0.130	0.620	102.030	-1.800	1.000																			1580047156.0	10.58	19.59
26/01/2020 13:59:17	26012020	260120	135917	102.020	12.339390	-56.858997	101.950	-0.520	0.040	0.660	102.000	-1.300	1.000																			1580047157.0	10.29	19.06
26/01/2020 13:59:18	26012020	260120	135918	101.880	12.339378	-56.858947	101.750	-0.230	-0.510	0.640	101.830	-1.600	1.100																			1580047158.0	11.02	20.41
26/01/2020 13:59:19	26012020	260120	135919	101.670	12.339367	-56.858892	101.570	0.260	-0.980	0.510	101.630	-2.300	1.000																			1580047159.0	11.88	22.00
26/01/2020 13:59:20	26012020	260120	135920	101.530	12.339355	-56.858837	101.540	0.510	-0.650	0.230	101.520	-2.300	0.800																			1580047160.0	11.75	21.76
26/01/2020 13:59:21	26012020	260120	135921	101.550	12.339347	-56.858787	101.660	0.310	0.220	0.020	101.580	-1.500	0.500																			1580047161.0	10.85	20.09
26/01/2020 13:59:22	26012020	260120	135922	101.680	12.339340	-56.858738	101.790	-0.090	0.820	0.130	101.710	-0.700	0.500																			1580047162.0	10.26	19.00
26/01/2020 13:59:23	26012020	260120	135923	101.820	12.339328	-56.858690	101.920	-0.310	0.650	0.400	101.840	-0.600	0.700																			1580047163.0	10.54	19.52
26/01/2020 13:59:24	26012020	260120	135924	101.920	12.339317	-56.858638	101.950	-0.160	-0.060	0.630	101.920	-1.200	1.000																			1580047164.0	11.24	20.82
26/01/2020 13:59:25	26012020	260120	135925	101.930	12.339305	-56.858583	101.990	0.110	-0.620	0.790	101.930	-1.900	1.100																			1580047165.0	11.66	21.59
26/01/2020 13:59:26	26012020	260120	135926	102.000	12.339293	-56.858532	102.150	0.200	-0.650	0.750	102.000	-2.100	1.200																			1580047166.0	11.34	21.00
26/01/2020 13:59:27	26012020	260120	135927	102.170	12.339283	-56.858482	102.300	0.100	-0.410	0.550	102.200	-1.900	1.000																			1580047167.0	10.71	19.83
26/01/2020 13:59:28	26012020	260120	135928	102.300	12.339273	-56.858433	102.330	0.050	-0.330	0.380	102.310	-1.700	0.800																			1580047168.0	10.54	19.52
26/01/2020 13:59:29	26012020	260120	135929	102.290	12.339265	-56.858383	102.220	0.130	-0.480	0.380	102.270	-1.800	0.800																			1580047169.0	10.89	20.17
26/01/2020 13:59:30	26012020	260120	135930	102.150	12.339253	-56.858330	102.080	0.160	-0.500	0.460	102.120	-1.900	0.800																			1580047170.0	11.18	20.71
26/01/2020 13:59:31	26012020	260120	135931	102.030	12.339243	-56.858280	102.020	0.010	-0.330	0.550	102.020	-1.800	0.900																			1580047171.0	11.01	20.39
26/01/2020 13:59:32	26012020	260120	135932	101.990	12.339232	-56.858230	101.990	-0.160	-0.260	0.690	101.990	-1.600	1.000																			1580047172.0	10.82	20.04
26/01/2020 13:59:33	26012020	260120	135933	101.940	12.339222	-56.858178	101.880	-0.130	-0.460	0.790	101.920	-1.800	1.200																			1580047173.0	11.05	20.46
26/01/2020 13:59:34	26012020	260120	135934	101.810	12.339210	-56.858127	101.710	0.040	-0.590	0.950	101.770	-2.000	1.300																			1580047174.0	11.45	21.21
26/01/2020 13:59:35	26012020	260120	135935	101.610	12.339198	-56.858073	101.540	0.060	-0.340	1.150	101.570	-1.900	1.500																			1580047175.0	11.39	21.09
26/01/2020 13:59:36	26012020	260120	135936	101.490	12.339187	-56.858023	101.590	-0.170	0.150	1.120	101.490	-1.400	1.600																			1580047176.0	10.95	20.28
26/01/2020 13:59:37	26012020	260120	135937	101.610	12.339177	-56.857973	101.850	-0.400	0.410	0.840	101.670	-1.000	1.400																			1580047177.0	10.69	19.80
26/01/2020 13:59:38	26012020	260120	135938	101.890	12.339165	-56.857923	102.080	-0.400	0.240	0.560	101.940	-1.100	1.100																			1580047178.0	10.92	20.22
26/01/2020 13:59:39	26012020	260120	135939	102.080	12.339155	-56.857872	102.140	-0.150	-0.050	0.490	102.100	-1.400	0.900																			1580047179.0	11.26	20.85
26/01/2020 13:59:40	26012020	260120	135940	102.120	12.339143	-56.857820	102.210	0.160	-0.140	0.460	102.130	-1.500	0.900																			1580047180.0	11.20	20.74
26/01/2020 13:59:41	26012020	260120	135941	102.220	12.339133	-56.857768	102.350	0.420	-0.180	0.150	102.260	-1.500	0.700																			1580047181.0	10.87	20.13
26/01/2020 13:59:42	26012020	260120	135942	102.370	12.339125	-56.857718	102.400	0.580	-0.390	-0.170	102.380	-1.700	0.300																			1580047182.0	10.82	20.04
26/01/2020 13:59:43	26012020	260120	135943	102.390	12.339118	-56.857667	102.400	0.590	-0.610	-0.200	102.390	-1.900	0.200																			1580047183.0	11.07	20.50
26/01/2020 13:59:44	26012020	260120	135944	102.400	12.339110	-56.857615	102.480	0.380	-0.540	0.010	102.420	-2.000	0.300																			1580047184.0	11.02	20.41
26/01/2020 13:59:45	26012020	260120	135945	102.490	12.339098	-56.857565	102.510	0.020	-0.400	0.360	102.500	-1.800	0.600																			1580047185.0	10.69	19.80
26/01/2020 13:59:46	26012020	260120	135946	102.450	12.339087	-56.857517	102.270	-0.250	-0.550	0.850	102.400	-1.900	1.100																			1580047186.0	10.78	19.96
26/01/2020 13:59:47	26012020	260120	135947	102.130	12.339073	-56.857465	101.890	-0.290	-0.820	1.240	102.050	-2.100	1.500																			1580047187.0	11.28	20.89
26/01/2020 13:59:48	26012020	260120	135948	101.770	12.339058	-56.857412	101.620	-0.230	-0.810	1.310	101.770	-2.300	1.700																			1580047188.0	11.52	21.34
26/01/2020 13:59:49	26012020	260120	135949	101.530	12.339047	-56.857360	101.460	-0.200	-0.430	1.100	101.490	-2.000	1.600																			1580047189.0	11.32	20.96
26/01/2020 13:59:50	26012020	260120	135950	101.400	12.339037	-56.857308	101.430	-0.280	0.090	0.730	101.390	-1.500	1.300																			1580047190.0	11.02	20.41
26/01/2020 13:59:51	26012020	260120	135951	101.430	12.339027	-56.857258	101.580	-0.440	0.510	0.500	101.460	-1.000	1.000																			1580047191.0	10.91	20.21
26/01/2020 13:59:52	26012020	260120	135952	101.630	12.339017	-56.857208	101.870	-0.540	0.670	0.420	101.680	-0.800	0.800																			1580047192.0	10.88	20.15
26/01/2020 13:59:53	26012020	260120	135953	101.940	12.339005	-56.857158	102.160	-0.370	0.400	0.420	102.000	-0.900	0.800																			1580047193.0	10.96	20.30
26/01/2020 13:59:54	26012020	260120	135954	102.200	12.338992	-56.857105	102.290	0.090	-0.140	0.550	102.220	-1.300	0.900																			1580047194.0	11.28	20.89
26/01/2020 13:59:55	26012020	260120	135955	102.290	12.338980	-56.857053	102.390	0.500	-0.420	0.470	102.320	-1.800	0.900																			1580047195.0	11.39	21.09
26/01/2020 13:59:56	26012020	260120	135956	102.420	12.338972	-56.857002	102.540	0.620	-0.330	0.270	102.450	-1.800	0.800																			1580047196.0	10.94	20.26
26/01/2020 13:59:57	26012020	260120	135957	102.560	12.338963	-56.856953	102.610	0.520	-0.220	0.130	102.580	-1.600	0.600																			1580047197.0	10.49	19.43
26/01/2020 13:59:58	26012020	260120	135958	102.590	12.338955	-56.856905	102.510	0.400	-0.440	0.150	102.570	-1.700	0.500																			1580047198.0	10.55	19.54
26/01/2020 13:59:59	26012020	260120	135959	102.450	12.338945	-56.856853	102.300	0.380	-0.900	0.420	102.400	-2.100	0.700																			1580047199.0	11.00	20.37
26/01/2020 14:00:00	26012020	260120	140000	102.210	12.338935	-56.856800	102.020	0.400	-1.150	0.740	102.150	-2.500	1.000	1016.60	26.00	26.10	18.90	19.00	739.00	64.00	64.00	374.00	28.50	356.00	10.50	92.00	4.80	54199	3146.00	27.50	27.40	1580047200.0	11.38	21.08
26/01/2020 14:00:01	26012020	260120	140001	101.920	12.338923	-56.856748	101.790	0.220	-0.850	0.920	101.870	-2.400	1.300																			1580047201.0	11.30	20.93
26/01/2020 14:00:02	26012020	260120	140001	101.710	12.338912	-56.856698	101.640	-0.200	-0.290	1.120	101.710	-1.900	1.500																			1580047201.0	10.86	20.11
26/01/2020 14:00:03	26012020	260120	140003	101.570	12.338900	-56.856648	101.560	-0.630	0.110	1.180	101.550	-1.400	1.600																			1580047203.0	10.76	19.93
26/01/2020 14:00:04	26012020	260120	140004	101.530	12.338887	-56.856598	101.570	-0.820	0.150	0.950	101.530	-1.200	1.400																			1580047204.0	11.03	20.43
26/01/2020 14:00:05	26012020	260120	140005	101.560	12.338875	-56.856547	101.620	-0.700	0.040	0.720	101.570	-1.300	1.200																			1580047205.0	11.36	21.04
26/01/2020 14:00:06	26012020	260120	140006	101.620	12.338863	-56.856493	101.690	-0.440	0.020	0.570	101.640	-1.400	1.000																			1580047206.0	11.44	21.19
26/01/2020 14:00:07	26012020	260120	140007	101.720	12.338852	-56.856442	101.800	-0.210	0.160	0.410	101.740	-1.300	0.900																			1580047207.0	11.17	20.69
26/01/2020 14:00:08	26012020	260120	140008	101.840	12.338840	-56.856392	101.940	-0.040	0.200	0.290	101.870	-1.200	0.700																			1580047208.0	10.86	20.11
26/01/2020 14:00:09	26012020	260120	140009	101.980	12.338830	-56.856342	102.060	0.190	0.020	0.220	102.010	-1.300	0.600																			1580047209.0	10.86	20.11
26/01/2020 14:00:10	26012020	260120	140010	102.100	12.338820	-56.856290	102.160	0.460	-0.200	0.210	102.120	-1.500	0.600																			1580047210.0	10.99	20.35
26/01/2020 14:00:11	26012020	260120	140011	102.200	12.338812	-56.856240	102.220	0.620	-0.350	0.310	102.210	-1.700	0.700																			1580047211.0	10.94	20.26
26/01/2020 14:00:12	26012020	260120	140012	102.210	12.338803	-56.856188	102.120	0.600	-0.540	0.580	102.200	-1.900	0.900																			1580047212.0	10.83	20.06
26/01/2020 14:00:13	26012020	260120	140013	102.060	12.338792	-56.856138	101.870	0.510	-0.810	0.870	102.000	-2.100	1.200																			1580047213.0	10.95	20.28
26/01/2020 14:00:14	26012020	260120	140014	101.770	12.338782	-56.856087	101.590	0.360	-0.850	1.060	101.770	-2.300	1.400																			1580047214.0	11.19	20.72
26/01/2020 14:00:15	26012020	260120	140015	101.510	12.338772	-56.856035	101.430	0.060	-0.500	1.110	101.470	-2.100	1.500																			1580047215.0	11.03	20.43
26/01/2020 14:00:16	26012020	260120	140016	101.380	12.338762	-56.855985	101.420	-0.330	-0.120	1.020	101.380	-1.600	1.500																			1580047216.0	10.73	19.87
26/01/2020 14:00:17	26012020	260120	140017	101.420	12.338750	-56.855937	101.520	-0.590	-0.020	0.860	101.440	-1.400	1.300																			1580047217.0	10.80	20.00
26/01/2020 14:00:18	26012020	260120	140018	101.530	12.338738	-56.855885	101.570	-0.560	-0.190	0.780	101.550	-1.500	1.200																			1580047218.0	11.17	20.69
26/01/2020 14:00:19	26012020	260120	140019	101.560	12.338727	-56.855832	101.520	-0.310	-0.340	0.730	101.550	-1.700	1.100																			1580047219.0	11.44	21.19
26/01/2020 14:00:20	26012020	260120	140020	101.490	12.338715	-56.855780	101.440	-0.070	-0.220	0.690	101.470	-1.700	1.100																			1580047220.0	11.36	21.04
26/01/2020 14:00:21	26012020	260120	140021	101.430	12.338703	-56.855728	101.460	-0.000	0.040	0.600	101.430	-1.500	1.100																			1580047221.0	11.01	20.39
26/01/2020 14:00:22	26012020	260120	140022	101.490	12.338695	-56.855678	101.580	-0.060	0.160	0.460	101.520	-1.300	0.900																			1580047222.0	10.82	20.04
26/01/2020 14:00:23	26012020	260120	140023	101.620	12.338685	-56.855628	101.680	-0.110	0.150	0.370	101.650	-1.200	0.800																			1580047223.0	10.89	20.17
26/01/2020 14:00:24	26012020	260120	140024	101.700	12.338675	-56.855577	101.680	-0.020	-0.050	0.430	101.700	-1.400	0.800																			1580047224.0	10.90	20.19
26/01/2020 14:00:25	26012020	260120	140025	101.670	12.338665	-56.855525	101.640	0.210	-0.390	0.590	101.660	-1.700	0.900																			1580047225.0	11.08	20.52
26/01/2020 14:00:26	26012020	260120	140026	101.650	12.338655	-56.855473	101.680	0.360	-0.570	0.720	101.650	-1.900	1.100																			1580047226.0	11.20	20.74
26/01/2020 14:00:27	26012020	260120	140027	101.710	12.338645	-56.855423	101.760	0.300	-0.510	0.870	101.720	-2.000	1.200																			1580047227.0	10.98	20.33
26/01/2020 14:00:28	26012020	260120	140028	101.760	12.338635	-56.855373	101.700	0.190	-0.490	1.090	101.760	-1.900	1.400																			1580047228.0	10.77	19.95
26/01/2020 14:00:29	26012020	260120	140029	101.640	12.338623	-56.855322	101.500	0.170	-0.610	1.280	101.600	-2.000	1.600																			1580047229.0	10.98	20.33
26/01/2020 14:00:30	26012020	260120	140030	101.420	12.338612	-56.855270	101.340	0.120	-0.600	1.240	101.380	-2.000	1.700																			1580047230.0	11.29	20.91
26/01/2020 14:00:31	26012020	260120	140031	101.310	12.338602	-56.855218	101.340	-0.090	-0.230	0.870	101.320	-1.800	1.400																			1580047231.0	11.16	20.67
26/01/2020 14:00:32	26012020	260120	140032	101.370	12.338593	-56.855168	101.410	-0.380	0.270	0.510	101.380	-1.300	1.000																			1580047232.0	10.73	19.87
26/01/2020 14:00:33	26012020	260120	140033	101.440	12.338585	-56.855118	101.470	-0.500	0.350	0.410	101.450	-1.000	0.800																			1580047233.0	10.61	19.65
26/01/2020 14:00:34	26012020	260120	140034	101.490	12.338573	-56.855068	101.540	-0.320	-0.010	0.420	101.510	-1.200	0.800																			1580047234.0	11.05	20.46
26/01/2020 14:00:35	26012020	260120	140035	101.570	12.338562	-56.855015	101.620	-0.000	-0.440	0.440	101.590	-1.700	0.800																			1580047235.0	11.44	21.19
26/01/2020 14:00:36	26012020	260120	140036	101.630	12.338552	-56.854962	101.600	0.240	-0.530	0.410	101.630	-1.900	0.800																			1580047236.0	11.39	21.09
26/01/2020 14:00:37	26012020	260120	140037	101.600	12.338542	-56.854912	101.580	0.270	-0.250	0.290	101.600	-1.800	0.700																			1580047237.0	10.97	20.32
26/01/2020 14:00:38	26012020	260120	140038	101.600	12.338533	-56.854862	101.590	0.200	-0.010	0.260	101.600	-1.500	0.700																			1580047238.0	10.59	19.61
26/01/2020 14:00:39	26012020	260120	140039	101.600	12.338525	-56.854812	101.580	0.140	-0.120	0.270	101.600	-1.400	0.700																			1580047239.0	10.70	19.82
26/01/2020 14:00:40	26012020	260120	140040	101.590	12.338517	-56.854760	101.590	0.080	-0.480	0.320	101.590	-1.700	0.700																			1580047240.0	11.10	20.56
26/01/2020 14:00:41	26012020	260120	140041	101.590	12.338505	-56.854708	101.580	-0.030	-0.710	0.570	101.590	-2.100	0.900																			1580047241.0	11.36	21.04
26/01/2020 14:00:42	26012020	260120	140042	101.560	12.338493	-56.854657	101.510	-0.210	-0.590	0.810	101.540	-2.100	1.100																			1580047242.0	11.22	20.78
26/01/2020 14:00:43	26012020	260120	140043	101.460	12.338480	-56.854607	101.370	-0.380	-0.260	0.980	101.440	-1.800	1.300																			1580047243.0	10.87	20.13
26/01/2020 14:00:44	26012020	260120	140044	101.320	12.338468	-56.854557	101.220	-0.410	-0.070	1.070	101.290	-1.500	1.500																			1580047244.0	10.75	19.91
26/01/2020 14:00:45	26012020	260120	140045	101.170	12.338457	-56.854507	101.090	-0.190	-0.200	0.850	101.140	-1.500	1.400																			1580047245.0	11.03	20.43
26/01/2020 14:00:46	26012020	260120	140046	101.060	12.338447	-56.854453	101.060	0.120	-0.360	0.460	101.050	-1.700	1.000																			1580047246.0	11.42	21.15
26/01/2020 14:00:47	26012020	260120	140047	101.100	12.338438	-56.854400	101.200	0.220	-0.150	0.240	101.120	-1.700	0.700																			1580047247.0	11.37	21.06
26/01/2020 14:00:48	26012020	260120	140048	101.260	12.338428	-56.854350	101.390	0.090	0.270	0.270	101.300	-1.300	0.700																			1580047248.0	10.84	20.08
26/01/2020 14:00:49	26012020	260120	140049	101.450	12.338418	-56.854302	101.570	-0.030	0.450	0.310	101.490	-1.000	0.700																			1580047249.0	10.49	19.43
26/01/2020 14:00:50	26012020	260120	140050	101.620	12.338408	-56.854252	101.680	0.080	0.090	0.420	101.640	-1.100	0.800																			1580047250.0	10.73	19.87
26/01/2020 14:00:51	26012020	260120	140051	101.690	12.338398	-56.854200	101.690	0.330	-0.460	0.610	101.700	-1.700	1.000																			1580047251.0	11.24	20.82
26/01/2020 14:00:52	26012020	260120	140052	101.690	12.338388	-56.854147	101.670	0.460	-0.760	0.600	101.680	-2.100	1.000																			1580047252.0	11.32	20.96
26/01/2020 14:00:53	26012020	260120	140053	101.660	12.338380	-56.854095	101.620	0.340	-0.740	0.620	101.650	-2.200	1.000																			1580047253.0	11.05	20.46
26/01/2020 14:00:54	26012020	260120	140054	101.600	12.338372	-56.854045	101.570	0.010	-0.600	0.790	101.590	-2.100	1.100																			1580047254.0	10.82	20.04
26/01/2020 14:00:55	26012020	260120	140055	101.550	12.338360	-56.853995	101.490	-0.290	-0.490	1.050	101.540	-1.900	1.400																			1580047255.0	10.83	20.06
26/01/2020 14:00:56	26012020	260120	140056	101.440	12.338347	-56.853945	101.300	-0.420	-0.360	1.260	101.390	-1.800	1.600																			1580047256.0	11.00	20.37
26/01/2020 14:00:57	26012020	260120	140057	101.210	12.338335	-56.853893	101.090	-0.350	-0.250	1.210	101.160	-1.700	1.700																			1580047257.0	11.05	20.46
26/01/2020 14:00:58	26012020	260120	140058	101.040	12.338325	-56.853843	101.050	-0.180	-0.260	0.920	101.030	-1.700	1.500																			1580047258.0	11.14	20.63
26/01/2020 14:00:59	26012020	260120	140059	101.060	12.338315	-56.853790	101.180	-0.060	-0.240	0.620	101.090	-1.700	1.100																			1580047259.0	11.34	21.00
26/01/2020 14:01:00	26012020	260120	140100	101.240	12.338305	-56.853738	101.340	-0.110	-0.010	0.450	101.270	-1.500	0.900	1016.60	26.10	26.10	18.30	18.40	756.00	62.00	62.00	373.00	28.50	353.00	10.90	87.00	5.30	54939	3305.00	27.40	27.40	1580047260.0	11.19	20.72
26/01/2020 14:01:01	26012020	260120	140101	101.380	12.338295	-56.853687	101.420	-0.210	0.270	0.430	101.400	-1.200	0.800																			1580047261.0	10.87	20.13
26/01/2020 14:01:02	26012020	260120	140102	101.430	12.338285	-56.853638	101.500	-0.180	0.370	0.500	101.450	-1.000	0.900																			1580047262.0	10.73	19.87
26/01/2020 14:01:03	26012020	260120	140103	101.560	12.338275	-56.853587	101.730	0.020	0.120	0.540	101.610	-1.200	0.900																			1580047263.0	10.86	20.11
26/01/2020 14:01:04	26012020	260120	140104	101.790	12.338265	-56.853535	101.850	0.300	-0.430	0.650	101.790	-1.600	1.000																			1580047264.0	11.15	20.65
26/01/2020 14:01:05	26012020	260120	140105	101.830	12.338255	-56.853483	101.730	0.500	-0.830	0.780	101.810	-2.100	1.200																			1580047265.0	11.42	21.15
26/01/2020 14:01:06	26012020	260120	140106	101.700	12.338245	-56.853430	101.700	0.470	-0.670	0.710	101.700	-2.200	1.200																			1580047266.0	11.23	20.80
26/01/2020 14:01:07	26012020	260120	140107	101.740	12.338237	-56.853382	101.870	0.220	-0.120	0.540	101.770	-1.700	1.000																			1580047267.0	10.61	19.65
26/01/2020 14:01:08	26012020	260120	140108	101.930	12.338228	-56.853333	101.960	0.010	0.060	0.360	101.960	-1.300	0.800																			1580047268.0	10.29	19.06
26/01/2020 14:01:09	26012020	260120	140109	101.960	12.338220	-56.853283	101.810	0.040	-0.410	0.400	101.930	-1.600	0.800																			1580047269.0	10.86	20.11
26/01/2020 14:01:10	26012020	260120	140110	101.770	12.338208	-56.853228	101.670	0.150	-0.860	0.590	101.740	-2.200	0.900																			1580047270.0	11.60	21.48
26/01/2020 14:01:11	26012020	260120	140111	101.680	12.338198	-56.853175	101.710	-0.000	-0.670	0.720	101.690	-2.200	1.100																			1580047271.0	11.51	21.32
26/01/2020 14:01:12	26012020	260120	140112	101.730	12.338187	-56.853125	101.780	-0.410	-0.130	0.830	101.750	-1.700	1.200																			1580047272.0	10.81	20.02
26/01/2020 14:01:13	26012020	260120	140113	101.780	12.338175	-56.853077	101.770	-0.700	0.090	0.920	101.790	-1.300	1.300																			1580047273.0	10.55	19.54
26/01/2020 14:01:14	26012020	260120	140114	101.750	12.338163	-56.853027	101.710	-0.600	-0.120	0.940	101.730	-1.400	1.400																			1580047274.0	11.04	20.45
26/01/2020 14:01:15	26012020	260120	140115	101.700	12.338150	-56.852973	101.750	-0.310	-0.240	0.740	101.700	-1.600	1.300																			1580047275.0	11.49	21.28
26/01/2020 14:01:16	26012020	260120	140116	101.770	12.338138	-56.852922	101.880	-0.130	-0.040	0.310	101.800	-1.500	0.900																			1580047276.0	11.23	20.80
26/01/2020 14:01:17	26012020	260120	140117	101.930	12.338130	-56.852872	102.020	-0.010	0.140	-0.030	101.960	-1.300	0.500																			1580047277.0	10.80	20.00
26/01/2020 14:01:18	26012020	260120	140118	102.050	12.338120	-56.852822	102.070	0.220	0.010	-0.090	102.070	-1.300	0.300																			1580047278.0	10.81	20.02
26/01/2020 14:01:19	26012020	260120	140119	102.080	12.338112	-56.852770	102.080	0.490	-0.270	-0.020	102.080	-1.600	0.400																			1580047279.0	11.13	20.61
26/01/2020 14:01:20	26012020	260120	140120	102.100	12.338102	-56.852718	102.160	0.610	-0.390	0.090	102.120	-1.800	0.500																			1580047280.0	11.20	20.74
26/01/2020 14:01:21	26012020	260120	140121	102.200	12.338093	-56.852667	102.240	0.470	-0.230	0.370	102.220	-1.700	0.700																			1580047281.0	10.93	20.24
26/01/2020 14:01:22	26012020	260120	140122	102.220	12.338082	-56.852618	102.170	0.170	-0.190	0.710	102.210	-1.600	1.000																			1580047282.0	10.59	19.61
26/01/2020 14:01:23	26012020	260120	140123	102.120	12.338072	-56.852568	102.060	-0.030	-0.540	0.940	102.100	-1.800	1.300																			1580047283.0	10.83	20.06
26/01/2020 14:01:24	26012020	260120	140124	102.000	12.338058	-56.852515	101.920	-0.050	-0.830	1.080	101.970	-2.200	1.500																			1580047284.0	11.34	21.00
26/01/2020 14:01:25	26012020	260120	140125	101.850	12.338047	-56.852463	101.760	-0.060	-0.650	0.960	101.820	-2.200	1.400																			1580047285.0	11.31	20.95
26/01/2020 14:01:26	26012020	260120	140126	101.700	12.338037	-56.852413	101.610	-0.190	-0.220	0.790	101.670	-1.800	1.300																			1580047286.0	10.85	20.09
26/01/2020 14:01:27	26012020	260120	140127	101.570	12.338027	-56.852363	101.550	-0.340	0.100	0.670	101.560	-1.400	1.100																			1580047287.0	10.72	19.85
26/01/2020 14:01:28	26012020	260120	140128	101.550	12.338015	-56.852313	101.620	-0.420	0.140	0.530	101.560	-1.300	1.000																			1580047288.0	10.89	20.17
26/01/2020 14:01:29	26012020	260120	140129	101.640	12.338005	-56.852262	101.700	-0.400	-0.030	0.550	101.650	-1.400	0.900																			1580047289.0	11.12	20.59
26/01/2020 14:01:30	26012020	260120	140130	101.710	12.337992	-56.852210	101.750	-0.240	-0.230	0.650	101.710	-1.600	1.000																			1580047290.0	11.26	20.85
26/01/2020 14:01:31	26012020	260120	140131	101.770	12.337980	-56.852158	101.820	0.040	-0.330	0.690	101.780	-1.700	1.100																			1580047291.0	11.19	20.72
26/01/2020 14:01:32	26012020	260120	140132	101.850	12.337970	-56.852108	101.960	0.340	-0.400	0.680	101.880	-1.800	1.100																			1580047292.0	11.10	20.56
26/01/2020 14:01:33	26012020	260120	140133	102.000	12.337960	-56.852057	102.080	0.460	-0.340	0.710	102.030	-1.800	1.100																			1580047293.0	11.07	20.50
26/01/2020 14:01:34	26012020	260120	140134	102.090	12.337950	-56.852005	102.100	0.310	-0.140	0.770	102.100	-1.600	1.200																			1580047294.0	10.88	20.15
26/01/2020 14:01:35	26012020	260120	140135	102.090	12.337940	-56.851957	102.040	0.100	-0.000	0.810	102.080	-1.400	1.200																			1580047295.0	10.67	19.76
26/01/2020 14:01:36	26012020	260120	140136	102.010	12.337932	-56.851907	101.940	0.020	-0.140	0.870	102.000	-1.500	1.300																			1580047296.0	10.79	19.98
26/01/2020 14:01:37	26012020	260120	140137	101.900	12.337922	-56.851855	101.810	0.070	-0.490	1.000	101.870	-1.800	1.400																			1580047297.0	11.12	20.59
26/01/2020 14:01:38	26012020	260120	140138	101.760	12.337912	-56.851802	101.680	0.170	-0.800	1.140	101.730	-2.100	1.500																			1580047298.0	11.41	21.13
26/01/2020 14:01:39	26012020	260120	140139	101.640	12.337900	-56.851748	101.650	0.080	-0.580	1.150	101.640	-2.100	1.600																			1580047299.0	11.41	21.13
26/01/2020 14:01:40	26012020	260120	140140	101.660	12.337888	-56.851698	101.700	-0.230	0.040	1.010	101.670	-1.600	1.500																			1580047300.0	10.80	20.00
26/01/2020 14:01:41	26012020	260120	140141	101.700	12.337878	-56.851652	101.720	-0.470	0.380	0.840	101.700	-1.100	1.300																			1580047301.0	10.42	19.30
26/01/2020 14:01:42	26012020	260120	140142	101.720	12.337868	-56.851602	101.760	-0.390	0.150	0.510	101.720	-1.100	1.100																			1580047302.0	10.78	19.96
26/01/2020 14:01:43	26012020	260120	140143	101.810	12.337858	-56.851548	101.980	-0.090	-0.270	0.090	101.850	-1.500	0.600																			1580047303.0	11.38	21.08
26/01/2020 14:01:44	26012020	260120	140144	102.070	12.337848	-56.851495	102.260	0.120	-0.330	-0.020	102.130	-1.800	0.400																			1580047304.0	11.37	21.06
26/01/2020 14:01:45	26012020	260120	140145	102.320	12.337838	-56.851445	102.370	0.190	-0.260	0.030	102.350	-1.700	0.400																			1580047305.0	10.84	20.08
26/01/2020 14:01:46	26012020	260120	140146	102.370	12.337827	-56.851395	102.310	0.240	-0.430	0.090	102.350	-1.700	0.500																			1580047306.0	10.78	19.96
26/01/2020 14:01:47	26012020	260120	140147	102.270	12.337817	-56.851343	102.200	0.260	-0.600	0.370	102.240	-2.000	0.700																			1580047307.0	11.13	20.61
26/01/2020 14:01:48	26012020	260120	140148	102.170	12.337807	-56.851293	102.150	0.160	-0.410	0.560	102.160	-1.900	0.900																			1580047308.0	11.05	20.46
26/01/2020 14:01:49	26012020	260120	140149	102.130	12.337797	-56.851243	102.080	0.010	-0.180	0.500	102.110	-1.600	0.900																			1580047309.0	10.69	19.80
26/01/2020 14:01:50	26012020	260120	140150	102.040	12.337787	-56.851193	101.970	-0.070	-0.260	0.560	102.020	-1.600	0.900																			1580047310.0	10.83	20.06
26/01/2020 14:01:51	26012020	260120	140151	101.920	12.337775	-56.851140	101.830	-0.080	-0.520	0.780	101.890	-1.800	1.100																			1580047311.0	11.27	20.87
26/01/2020 14:01:52	26012020	260120	140152	101.760	12.337763	-56.851088	101.710	-0.090	-0.490	0.900	101.730	-2.000	1.300																			1580047312.0	11.44	21.19
26/01/2020 14:01:53	26012020	260120	140153	101.670	12.337752	-56.851037	101.720	-0.160	-0.070	0.970	101.670	-1.700	1.400																			1580047313.0	11.12	20.59
26/01/2020 14:01:54	26012020	260120	140154	101.710	12.337740	-56.850988	101.810	-0.300	0.310	0.950	101.710	-1.200	1.400																			1580047314.0	10.68	19.78
26/01/2020 14:01:55	26012020	260120	140155	101.820	12.337730	-56.850938	101.910	-0.330	0.170	0.760	101.840	-1.100	1.200																			1580047315.0	10.74	19.89
26/01/2020 14:01:56	26012020	260120	140156	101.900	12.337718	-56.850885	101.950	-0.130	-0.300	0.660	101.900	-1.500	1.100																			1580047316.0	11.29	20.91
26/01/2020 14:01:57	26012020	260120	140157	101.930	12.337707	-56.850833	101.980	0.120	-0.380	0.590	101.940	-1.800	1.000																			1580047317.0	11.51	21.32
26/01/2020 14:01:58	26012020	260120	140158	101.980	12.337695	-56.850782	102.030	0.230	-0.010	0.390	101.990	-1.600	0.900																			1580047318.0	10.89	20.17
26/01/2020 14:01:59	26012020	260120	140159	102.040	12.337687	-56.850733	102.050	0.280	0.120	0.190	102.050	-1.300	0.700																			1580047319.0	10.38	19.22
26/01/2020 14:02:00	26012020	260120	140200	102.050	12.337678	-56.850683	102.030	0.360	-0.290	0.210	102.050	-1.500	0.600	1016.60	26.10	26.10	18.40	18.50	767.00	62.00	62.00	373.00	28.50	353.00	10.60	87.00	5.00	55485	3100.00	27.50	27.40	1580047320.0	10.77	19.95
26/01/2020 14:02:01	26012020	260120	140201	102.040	12.337668	-56.850632	102.040	0.330	-0.640	0.380	102.040	-2.000	0.700																			1580047321.0	11.32	20.96
26/01/2020 14:02:02	26012020	260120	140202	102.050	12.337658	-56.850580	102.030	0.100	-0.490	0.650	102.050	-2.000	1.000																			1580047322.0	11.10	20.56
26/01/2020 14:02:03	26012020	260120	140203	102.030	12.337647	-56.850532	101.950	-0.090	-0.310	0.940	102.010	-1.700	1.300																			1580047323.0	10.56	19.56
26/01/2020 14:02:04	26012020	260120	140204	101.920	12.337635	-56.850482	101.840	-0.040	-0.530	1.060	101.890	-1.800	1.500																			1580047324.0	10.77	19.95
26/01/2020 14:02:05	26012020	260120	140205	101.810	12.337625	-56.850428	101.790	0.030	-0.740	0.830	101.790	-2.100	1.400																			1580047325.0	11.37	21.06
26/01/2020 14:02:06	26012020	260120	140206	101.790	12.337615	-56.850377	101.770	-0.080	-0.540	0.640	101.790	-2.100	1.100																			1580047326.0	11.36	21.04
26/01/2020 14:02:07	26012020	260120	140207	101.750	12.337605	-56.850327	101.700	-0.290	-0.080	0.650	101.730	-1.700	1.100																			1580047327.0	10.88	20.15
26/01/2020 14:02:08	26012020	260120	140208	101.680	12.337595	-56.850277	101.670	-0.340	0.090	0.650	101.670	-1.300	1.100																			1580047328.0	10.72	19.85
26/01/2020 14:02:09	26012020	260120	140209	101.660	12.337583	-56.850225	101.650	-0.210	-0.090	0.740	101.650	-1.400	1.100																			1580047329.0	11.16	20.67
26/01/2020 14:02:10	26012020	260120	140210	101.650	12.337572	-56.850172	101.730	-0.120	-0.070	0.740	101.660	-1.500	1.200																			1580047330.0	11.44	21.19
26/01/2020 14:02:11	26012020	260120	140211	101.780	12.337560	-56.850122	101.920	-0.160	0.240	0.520	101.820	-1.300	1.000																			1580047331.0	10.98	20.33
26/01/2020 14:02:12	26012020	260120	140212	101.940	12.337550	-56.850072	101.970	-0.170	0.300	0.450	101.950	-1.100	0.900																			1580047332.0	10.58	19.59
26/01/2020 14:02:13	26012020	260120	140213	101.940	12.337540	-56.850022	101.910	0.000	-0.090	0.460	101.930	-1.300	0.900																			1580047333.0	10.87	20.13
26/01/2020 14:02:14	26012020	260120	140214	101.890	12.337528	-56.849970	101.880	0.320	-0.510	0.340	101.880	-1.800	0.800																			1580047334.0	11.24	20.82
26/01/2020 14:02:15	26012020	260120	140215	101.860	12.337520	-56.849918	101.860	0.530	-0.600	0.200	101.860	-2.000	0.700																			1580047335.0	11.20	20.74
26/01/2020 14:02:16	26012020	260120	140216	101.850	12.337512	-56.849867	101.830	0.480	-0.380	0.190	101.850	-1.900	0.600																			1580047336.0	10.81	20.02
26/01/2020 14:02:17	26012020	260120	140217	101.810	12.337503	-56.849818	101.760	0.260	-0.290	0.310	101.790	-1.700	0.700																			1580047337.0	10.56	19.56
26/01/2020 14:02:18	26012020	260120	140218	101.750	12.337493	-56.849768	101.670	0.090	-0.500	0.540	101.720	-1.800	0.900																			1580047338.0	10.84	20.08
26/01/2020 14:02:19	26012020	260120	140219	101.620	12.337482	-56.849717	101.610	-0.050	-0.610	0.760	101.610	-2.000	1.100																			1580047339.0	11.26	20.85
26/01/2020 14:02:20	26012020	260120	140220	101.590	12.337470	-56.849665	101.570	-0.230	-0.340	0.830	101.580	-1.900	1.200																			1580047340.0	11.11	20.58
26/01/2020 14:02:21	26012020	260120	140221	101.540	12.337458	-56.849615	101.510	-0.340	-0.100	0.730	101.530	-1.600	1.200																			1580047341.0	10.73	19.87
26/01/2020 14:02:22	26012020	260120	140222	101.500	12.337447	-56.849565	101.510	-0.210	-0.230	0.520	101.490	-1.600	1.000																			1580047342.0	10.90	20.19
26/01/2020 14:02:23	26012020	260120	140223	101.520	12.337437	-56.849512	101.540	0.020	-0.420	0.380	101.530	-1.800	0.800																			1580047343.0	11.40	21.11
26/01/2020 14:02:24	26012020	260120	140224	101.540	12.337427	-56.849460	101.520	0.010	-0.240	0.390	101.540	-1.800	0.800																			1580047344.0	11.35	21.02
26/01/2020 14:02:25	26012020	260120	140225	101.530	12.337417	-56.849410	101.510	-0.210	0.120	0.530	101.520	-1.400	0.900																			1580047345.0	10.80	20.00
26/01/2020 14:02:26	26012020	260120	140226	101.520	12.337407	-56.849360	101.580	-0.350	0.160	0.680	101.530	-1.200	1.000																			1580047346.0	10.65	19.72
26/01/2020 14:02:27	26012020	260120	140227	101.620	12.337395	-56.849310	101.720	-0.220	-0.200	0.860	101.650	-1.400	1.200																			1580047347.0	11.00	20.37
26/01/2020 14:02:28	26012020	260120	140228	101.730	12.337383	-56.849257	101.730	0.060	-0.550	1.060	101.750	-1.900	1.400																			1580047348.0	11.43	21.17
26/01/2020 14:02:29	26012020	260120	140229	101.700	12.337372	-56.849205	101.630	0.200	-0.370	1.070	101.680	-1.900	1.500																			1580047349.0	11.31	20.95
26/01/2020 14:02:30	26012020	260120	140230	101.620	12.337362	-56.849155	101.600	0.170	0.030	0.770	101.610	-1.500	1.300																			1580047350.0	10.67	19.76
26/01/2020 14:02:31	26012020	260120	140231	101.620	12.337353	-56.849107	101.690	0.130	0.100	0.350	101.630	-1.300	0.900																			1580047351.0	10.52	19.48
26/01/2020 14:02:32	26012020	260120	140232	101.690	12.337347	-56.849055	101.800	0.150	-0.150	0.030	101.720	-1.500	0.500																			1580047352.0	10.89	20.17
26/01/2020 14:02:33	26012020	260120	140233	101.840	12.337338	-56.849003	101.900	0.200	-0.420	0.100	101.870	-1.800	0.400																			1580047353.0	11.14	20.63
26/01/2020 14:02:34	26012020	260120	140234	101.900	12.337327	-56.848952	101.890	0.240	-0.570	0.380	101.900	-1.900	0.700																			1580047354.0	11.12	20.59
26/01/2020 14:02:35	26012020	260120	140235	101.870	12.337315	-56.848902	101.840	0.210	-0.520	0.440	101.850	-2.000	0.900																			1580047355.0	11.02	20.41
26/01/2020 14:02:36	26012020	260120	140236	101.810	12.337305	-56.848850	101.810	0.040	-0.300	0.430	101.800	-1.800	0.800																			1580047356.0	10.87	20.13
26/01/2020 14:02:37	26012020	260120	140237	101.800	12.337297	-56.848802	101.880	-0.200	-0.110	0.420	101.810	-1.600	0.800																			1580047357.0	10.69	19.80
26/01/2020 14:02:38	26012020	260120	140238	101.880	12.337287	-56.848752	101.940	-0.310	-0.210	0.360	101.900	-1.500	0.800																			1580047358.0	10.77	19.95
26/01/2020 14:02:39	26012020	260120	140239	101.900	12.337275	-56.848700	101.780	-0.220	-0.560	0.450	101.870	-1.800	0.800																			1580047359.0	11.17	20.69
26/01/2020 14:02:40	26012020	260120	140240	101.680	12.337263	-56.848647	101.510	-0.100	-0.720	0.650	101.620	-2.100	1.000																			1580047360.0	11.49	21.28
26/01/2020 14:02:41	26012020	260120	140241	101.420	12.337252	-56.848595	101.380	-0.090	-0.470	0.830	101.390	-2.000	1.200																			1580047361.0	11.29	20.91
26/01/2020 14:02:42	26012020	260120	140242	101.340	12.337240	-56.848545	101.450	-0.200	-0.030	0.840	101.360	-1.600	1.300																			1580047362.0	10.91	20.21
26/01/2020 14:02:43	26012020	260120	140243	101.480	12.337230	-56.848495	101.630	-0.330	0.300	0.700	101.510	-1.200	1.200																			1580047363.0	10.76	19.93
26/01/2020 14:02:44	26012020	260120	140244	101.620	12.337218	-56.848445	101.710	-0.350	0.430	0.610	101.640	-1.000	1.100																			1580047364.0	10.78	19.96
26/01/2020 14:02:45	26012020	260120	140245	101.700	12.337208	-56.848395	101.770	-0.130	0.300	0.420	101.700	-1.000	0.900																			1580047365.0	10.88	20.15
26/01/2020 14:02:46	26012020	260120	140246	101.790	12.337198	-56.848343	101.980	0.300	-0.170	0.110	101.790	-1.400	0.600																			1580047366.0	11.04	20.45
26/01/2020 14:02:47	26012020	260120	140247	102.040	12.337190	-56.848290	102.180	0.720	-0.720	-0.040	102.080	-2.000	0.400																			1580047367.0	11.38	21.08
26/01/2020 14:02:48	26012020	260120	140248	102.200	12.337182	-56.848237	102.210	0.810	-0.770	0.040	102.210	-2.200	0.400																			1580047368.0	11.36	21.04
26/01/2020 14:02:49	26012020	260120	140249	102.170	12.337173	-56.848187	102.120	0.490	-0.320	0.360	102.160	-1.900	0.600																			1580047369.0	10.74	19.89
26/01/2020 14:02:50	26012020	260120	140250	102.070	12.337163	-56.848140	102.050	-0.000	-0.070	0.700	102.050	-1.500	1.000																			1580047370.0	10.31	19.09
26/01/2020 14:02:51	26012020	260120	140251	102.000	12.337153	-56.848090	102.020	-0.370	-0.310	0.860	101.990	-1.600	1.200																			1580047371.0	10.69	19.80
26/01/2020 14:02:52	26012020	260120	140252	101.980	12.337142	-56.848038	102.010	-0.510	-0.620	0.890	101.980	-1.900	1.300																			1580047372.0	11.27	20.87
26/01/2020 14:02:53	26012020	260120	140253	101.950	12.337128	-56.847985	101.940	-0.450	-0.620	0.900	101.940	-2.100	1.300																			1580047373.0	11.34	21.00
26/01/2020 14:02:54	26012020	260120	140254	101.870	12.337115	-56.847935	101.810	-0.300	-0.430	0.710	101.840	-1.900	1.200																			1580047374.0	11.09	20.54
26/01/2020 14:02:55	26012020	260120	140255	101.760	12.337105	-56.847885	101.710	-0.170	-0.170	0.330	101.730	-1.700	0.900																			1580047375.0	10.99	20.35
26/01/2020 14:02:56	26012020	260120	140256	101.700	12.337095	-56.847833	101.760	-0.110	0.120	0.020	101.710	-1.400	0.500																			1580047376.0	10.93	20.24
26/01/2020 14:02:57	26012020	260120	140257	101.800	12.337087	-56.847783	101.960	-0.030	0.210	-0.240	101.840	-1.200	0.300																			1580047377.0	10.84	20.08
26/01/2020 14:02:58	26012020	260120	140258	102.000	12.337078	-56.847732	102.130	0.170	-0.020	-0.290	102.040	-1.300	0.100																			1580047378.0	10.99	20.35
26/01/2020 14:02:59	26012020	260120	140259	102.140	12.337068	-56.847680	102.190	0.380	-0.320	-0.010	102.150	-1.600	0.300																			1580047379.0	11.29	20.91
26/01/2020 14:03:00	26012020	260120	140300	102.160	12.337057	-56.847627	102.160	0.380	-0.360	0.330	102.150	-1.800	0.600	1016.60	26.10	26.10	18.90	18.90	770.00	64.00	64.00	373.00	28.50	357.00	10.70	95.00	5.10	55690	3245.00	27.50	27.50	1580047380.0	11.27	20.87
26/01/2020 14:03:01	26012020	260120	140301	102.120	12.337047	-56.847577	102.180	0.170	-0.210	0.550	102.120	-1.700	0.900																			1580047381.0	10.91	20.21
26/01/2020 14:03:02	26012020	260120	140302	102.180	12.337035	-56.847527	102.290	-0.090	-0.090	0.570	102.200	-1.500	1.000																			1580047382.0	10.71	19.83
26/01/2020 14:03:03	26012020	260120	140303	102.280	12.337025	-56.847478	102.310	-0.230	-0.130	0.540	102.280	-1.500	1.000																			1580047383.0	10.76	19.93
26/01/2020 14:03:04	26012020	260120	140304	102.250	12.337013	-56.847427	102.240	-0.190	-0.240	0.540	102.230	-1.600	0.900																			1580047384.0	10.91	20.21
26/01/2020 14:03:05	26012020	260120	140305	102.180	12.337003	-56.847377	102.240	-0.050	-0.360	0.440	102.180	-1.700	0.900																			1580047385.0	10.99	20.35
26/01/2020 14:03:06	26012020	260120	140306	102.230	12.336992	-56.847325	102.320	0.120	-0.550	0.120	102.250	-1.900	0.700																			1580047386.0	11.04	20.45
26/01/2020 14:03:07	26012020	260120	140307	102.330	12.336983	-56.847273	102.390	0.200	-0.600	-0.100	102.340	-2.000	0.400																			1580047387.0	11.17	20.69
26/01/2020 14:03:08	26012020	260120	140308	102.380	12.336973	-56.847222	102.420	0.130	-0.390	0.070	102.380	-1.900	0.400																			1580047388.0	11.01	20.39
26/01/2020 14:03:09	26012020	260120	140309	102.390	12.336963	-56.847172	102.310	0.010	-0.270	0.460	102.370	-1.700	0.700																			1580047389.0	10.76	19.93
26/01/2020 14:03:10	26012020	260120	140310	102.260	12.336950	-56.847122	102.000	-0.010	-0.480	0.760	102.200	-1.800	1.100																			1580047390.0	11.03	20.43
26/01/2020 14:03:11	26012020	260120	140311	101.890	12.336938	-56.847068	101.830	-0.010	-0.570	0.800	101.850	-2.000	1.200																			1580047391.0	11.52	21.34
26/01/2020 14:03:12	26012020	260120	140312	101.790	12.336927	-56.847017	101.920	-0.200	-0.130	0.750	101.810	-1.800	1.200																			1580047392.0	11.31	20.95
26/01/2020 14:03:13	26012020	260120	140313	101.930	12.336917	-56.846968	102.110	-0.470	0.470	0.570	101.970	-1.100	1.000																			1580047393.0	10.62	19.67
26/01/2020 14:03:14	26012020	260120	140314	102.130	12.336905	-56.846920	102.270	-0.480	0.530	0.350	102.170	-0.800	0.800																			1580047394.0	10.48	19.41
26/01/2020 14:03:15	26012020	260120	140315	102.270	12.336893	-56.846868	102.370	-0.170	0.060	0.260	102.290	-1.200	0.700																			1580047395.0	11.06	20.48
26/01/2020 14:03:16	26012020	260120	140316	102.360	12.336882	-56.846815	102.460	0.220	-0.320	0.160	102.380	-1.600	0.600																			1580047396.0	11.47	21.24
26/01/2020 14:03:17	26012020	260120	140317	102.450	12.336872	-56.846763	102.540	0.450	-0.290	0.110	102.470	-1.800	0.500																			1580047397.0	11.13	20.61
26/01/2020 14:03:18	26012020	260120	140318	102.540	12.336863	-56.846715	102.640	0.530	-0.230	0.180	102.550	-1.600	0.600																			1580047398.0	10.63	19.69
26/01/2020 14:03:19	26012020	260120	140319	102.640	12.336853	-56.846665	102.710	0.560	-0.490	0.320	102.660	-1.800	0.700																			1580047399.0	10.69	19.80
26/01/2020 14:03:20	26012020	260120	140320	102.680	12.336843	-56.846613	102.690	0.500	-0.810	0.570	102.670	-2.100	0.900																			1580047400.0	11.14	20.63
26/01/2020 14:03:21	26012020	260120	140321	102.620	12.336833	-56.846562	102.560	0.200	-0.690	0.790	102.590	-2.200	1.100																			1580047401.0	11.18	20.71
26/01/2020 14:03:22	26012020	260120	140322	102.490	12.336822	-56.846512	102.470	-0.270	-0.250	0.950	102.490	-1.800	1.300																			1580047402.0	10.71	19.83
26/01/2020 14:03:23	26012020	260120	140323	102.420	12.336810	-56.846463	102.360	-0.580	-0.110	0.980	102.400	-1.500	1.400																			1580047403.0	10.50	19.45
26/01/2020 14:03:24	26012020	260120	140324	102.260	12.336797	-56.846413	102.040	-0.510	-0.490	1.010	102.200	-1.700	1.400																			1580047404.0	11.04	20.45
26/01/2020 14:03:25	26012020	260120	140325	101.920	12.336783	-56.846360	101.740	-0.270	-0.750	0.980	101.860	-2.100	1.400																			1580047405.0	11.70	21.67
26/01/2020 14:03:26	26012020	260120	140326	101.670	12.336772	-56.846307	101.640	-0.100	-0.460	0.820	101.650	-2.100	1.300																			1580047406.0	11.52	21.34
26/01/2020 14:03:27	26012020	260120	140327	101.640	12.336760	-56.846257	101.720	-0.080	0.170	0.460	101.650	-1.500	1.000																			1580047407.0	10.91	20.21
26/01/2020 14:03:28	26012020	260120	140328	101.760	12.336752	-56.846207	101.920	-0.080	0.570	-0.060	101.800	-0.900	0.500																			1580047408.0	10.57	19.58
26/01/2020 14:03:29	26012020	260120	140329	102.010	12.336743	-56.846157	102.240	-0.020	0.590	-0.350	102.070	-0.800	0.100																			1580047409.0	10.79	19.98
26/01/2020 14:03:30	26012020	260120	140330	102.320	12.336733	-56.846107	102.460	0.070	0.390	-0.120	102.370	-0.900	0.200																			1580047410.0	10.92	20.22
26/01/2020 14:03:31	26012020	260120	140331	102.460	12.336722	-56.846055	102.450	0.230	-0.140	0.220	102.470	-1.300	0.500																			1580047411.0	10.89	20.17
26/01/2020 14:03:32	26012020	260120	140332	102.390	12.336712	-56.846003	102.310	0.520	-0.900	0.440	102.370	-2.100	0.800																			1580047412.0	11.21	20.76
26/01/2020 14:03:33	26012020	260120	140333	102.240	12.336700	-56.845950	102.170	0.690	-1.240	0.660	102.210	-2.600	1.000																			1580047413.0	11.51	21.32
26/01/2020 14:03:34	26012020	260120	140334	102.110	12.336690	-56.845900	102.040	0.490	-0.880	0.730	102.110	-2.500	1.100																			1580047414.0	11.08	20.52
26/01/2020 14:03:35	26012020	260120	140335	101.970	12.336680	-56.845852	101.940	-0.020	-0.160	0.750	101.950	-1.900	1.100																			1580047415.0	10.45	19.35
26/01/2020 14:03:36	26012020	260120	140336	101.900	12.336670	-56.845803	101.930	-0.530	0.340	0.790	101.900	-1.200	1.200																			1580047416.0	10.18	18.85
26/01/2020 14:03:37	26012020	260120	140337	101.910	12.336658	-56.845755	101.920	-0.710	0.120	0.790	101.910	-1.100	1.200																			1580047417.0	10.56	19.56
26/01/2020 14:03:38	26012020	260120	140338	101.880	12.336645	-56.845703	101.860	-0.490	-0.470	0.740	101.870	-1.700	1.200																			1580047418.0	11.40	21.11
26/01/2020 14:03:39	26012020	260120	140339	101.830	12.336632	-56.845650	101.840	-0.130	-0.660	0.570	101.830	-2.100	1.000																			1580047419.0	11.67	21.61
26/01/2020 14:03:40	26012020	260120	140340	101.810	12.336620	-56.845598	101.800	0.130	-0.410	0.390	101.810	-1.900	0.900																			1580047420.0	11.12	20.59
26/01/2020 14:03:41	26012020	260120	140341	101.730	12.336612	-56.845548	101.660	0.300	-0.190	0.230	101.710	-1.700	0.700																			1580047421.0	10.75	19.91
26/01/2020 14:03:42	26012020	260120	140342	101.620	12.336603	-56.845497	101.680	0.360	-0.130	0.010	101.620	-1.600	0.500																			1580047422.0	10.92	20.22
26/01/2020 14:03:43	26012020	260120	140343	101.710	12.336595	-56.845445	101.880	0.250	-0.110	0.060	101.750	-1.500	0.400																			1580047423.0	11.07	20.50
26/01/2020 14:03:44	26012020	260120	140344	101.920	12.336585	-56.845395	102.090	-0.010	-0.040	0.340	101.960	-1.500	0.600																			1580047424.0	11.00	20.37
26/01/2020 14:03:45	26012020	260120	140345	102.090	12.336573	-56.845345	102.120	-0.280	0.110	0.730	102.100	-1.400	1.000																			1580047425.0	10.84	20.08
26/01/2020 14:03:46	26012020	260120	140346	102.020	12.336560	-56.845297	101.900	-0.340	0.010	1.180	101.980	-1.300	1.400																			1580047426.0	10.71	19.83
26/01/2020 14:03:47	26012020	260120	140347	101.780	12.336547	-56.845245	101.730	-0.100	-0.460	1.210	101.740	-1.700	1.700																			1580047427.0	11.05	20.46
26/01/2020 14:03:48	26012020	260120	140348	101.680	12.336535	-56.845192	101.750	0.160	-0.700	0.840	101.680	-2.100	1.400																			1580047428.0	11.48	21.26
26/01/2020 14:03:49	26012020	260120	140349	101.760	12.336527	-56.845140	101.840	0.140	-0.270	0.420	101.780	-1.900	1.000																			1580047429.0	11.09	20.54
26/01/2020 14:03:50	26012020	260120	140350	101.850	12.336517	-56.845093	101.880	-0.030	0.290	0.160	101.860	-1.300	0.600																			1580047430.0	10.29	19.06
26/01/2020 14:03:51	26012020	260120	140351	101.870	12.336508	-56.845045	101.900	-0.000	0.250	0.160	101.880	-1.100	0.600																			1580047431.0	10.23	18.95
26/01/2020 14:03:52	26012020	260120	140352	101.870	12.336498	-56.844995	101.870	0.220	-0.350	0.150	101.870	-1.500	0.600																			1580047432.0	10.93	20.24
26/01/2020 14:03:53	26012020	260120	140353	101.840	12.336488	-56.844942	101.790	0.450	-0.900	0.090	101.830	-2.200	0.500																			1580047433.0	11.46	21.22
26/01/2020 14:03:54	26012020	260120	140354	101.730	12.336480	-56.844888	101.630	0.450	-0.900	0.240	101.700	-2.400	0.600																			1580047434.0	11.36	21.04
26/01/2020 14:03:55	26012020	260120	140355	101.560	12.336470	-56.844838	101.500	0.170	-0.520	0.540	101.530	-2.100	0.800																			1580047435.0	10.80	20.00
26/01/2020 14:03:56	26012020	260120	140356	101.440	12.336460	-56.844790	101.400	-0.170	-0.370	0.860	101.420	-1.800	1.100																			1580047436.0	10.60	19.63
26/01/2020 14:03:57	26012020	260120	140357	101.330	12.336447	-56.844738	101.260	-0.360	-0.410	1.170	101.310	-1.800	1.500																			1580047437.0	11.06	20.48
26/01/2020 14:03:58	26012020	260120	140358	101.210	12.336433	-56.844687	101.060	-0.510	-0.150	1.320	101.170	-1.700	1.700																			1580047438.0	11.31	20.95
26/01/2020 14:03:59	26012020	260120	140359	100.980	12.336422	-56.844637	100.920	-0.630	0.340	1.200	100.950	-1.300	1.700																			1580047439.0	10.87	20.13
26/01/2020 14:04:00	26012020	260120	140400	100.890	12.336410	-56.844588	100.950	-0.530	0.440	0.840	100.900	-0.900	1.400	1016.60	26.00	26.10	18.90	19.00	771.00	64.00	65.00	373.00	28.60	357.00	10.50	96.00	4.80	55834	3171.00	27.50	27.50	1580047440.0	10.61	19.65
26/01/2020 14:04:01	26012020	260120	140401	100.970	12.336402	-56.844537	101.120	-0.190	0.030	0.380	101.000	-1.200	1.000																			1580047441.0	11.05	20.46
26/01/2020 14:04:02	26012020	260120	140402	101.180	12.336392	-56.844483	101.380	0.150	-0.310	0.010	101.230	-1.700	0.500																			1580047442.0	11.46	21.22
26/01/2020 14:04:03	26012020	260120	140403	101.450	12.336383	-56.844432	101.610	0.310	-0.120	-0.150	101.490	-1.700	0.300																			1580047443.0	11.15	20.65
26/01/2020 14:04:04	26012020	260120	140404	101.640	12.336375	-56.844383	101.760	0.360	0.230	-0.070	101.670	-1.300	0.300																			1580047444.0	10.41	19.28
26/01/2020 14:04:05	26012020	260120	140405	101.790	12.336367	-56.844335	101.880	0.470	0.050	0.120	101.820	-1.200	0.500																			1580047445.0	10.24	18.96
26/01/2020 14:04:06	26012020	260120	140406	101.890	12.336357	-56.844285	101.850	0.670	-0.650	0.300	101.890	-1.800	0.600																			1580047446.0	10.87	20.13
26/01/2020 14:04:07	26012020	260120	140407	101.780	12.336348	-56.844232	101.640	0.730	-1.180	0.480	101.750	-2.400	0.800																			1580047447.0	11.41	21.13
26/01/2020 14:04:08	26012020	260120	140408	101.560	12.336340	-56.844178	101.430	0.540	-1.180	0.730	101.520	-2.700	1.000																			1580047448.0	11.25	20.84
26/01/2020 14:04:09	26012020	260120	140409	101.340	12.336330	-56.844128	101.260	0.150	-0.820	1.000	101.310	-2.400	1.300																			1580047449.0	10.89	20.17
26/01/2020 14:04:10	26012020	260120	140410	101.210	12.336318	-56.844078	101.160	-0.400	-0.220	1.130	101.180	-1.900	1.500																			1580047450.0	10.75	19.91
26/01/2020 14:04:11	26012020	260120	140411	101.120	12.336307	-56.844030	101.150	-0.960	0.350	1.150	101.120	-1.300	1.500																			1580047451.0	10.61	19.65
26/01/2020 14:04:12	26012020	260120	140412	101.110	12.336295	-56.843982	101.130	-1.240	0.530	1.130	101.110	-0.900	1.600																			1580047452.0	10.65	19.72
26/01/2020 14:04:13	26012020	260120	140413	101.100	12.336282	-56.843930	101.130	-1.040	0.130	0.880	101.100	-1.100	1.400																			1580047453.0	11.05	20.46
26/01/2020 14:04:14	26012020	260120	140414	101.120	12.336270	-56.843877	101.160	-0.400	-0.490	0.500	101.130	-1.700	1.100																			1580047454.0	11.61	21.50
26/01/2020 14:04:15	26012020	260120	140415	101.170	12.336260	-56.843823	101.270	0.300	-0.640	0.080	101.190	-2.100	0.700																			1580047455.0	11.75	21.76
26/01/2020 14:04:16	26012020	260120	140416	101.340	12.336252	-56.843770	101.570	0.580	-0.050	-0.320	101.400	-1.800	0.200																			1580047456.0	11.13	20.61
26/01/2020 14:04:17	26012020	260120	140417	101.680	12.336245	-56.843723	101.910	0.430	0.630	-0.470	101.750	-1.000	-0.000																			1580047457.0	10.20	18.89
26/01/2020 14:04:18	26012020	260120	140418	101.970	12.336237	-56.843677	102.080	0.240	0.550	-0.280	102.010	-0.700	0.000																			1580047458.0	10.06	18.63
26/01/2020 14:04:19	26012020	260120	140419	102.100	12.336227	-56.843625	102.160	0.350	-0.230	0.060	102.110	-1.300	0.300																			1580047459.0	10.83	20.06
26/01/2020 14:04:20	26012020	260120	140420	102.160	12.336217	-56.843573	102.210	0.590	-0.930	0.330	102.170	-2.100	0.600																			1580047460.0	11.46	21.22
26/01/2020 14:04:21	26012020	260120	140421	102.160	12.336207	-56.843520	102.050	0.690	-1.140	0.540	102.130	-2.500	0.900																			1580047461.0	11.28	20.89
26/01/2020 14:04:22	26012020	260120	140422	101.930	12.336197	-56.843470	101.710	0.540	-0.940	0.700	101.850	-2.500	1.100																			1580047462.0	10.87	20.13
26/01/2020 14:04:23	26012020	260120	140423	101.560	12.336187	-56.843420	101.440	0.110	-0.490	0.800	101.500	-2.100	1.200																			1580047463.0	10.71	19.83
26/01/2020 14:04:24	26012020	260120	140424	101.370	12.336178	-56.843370	101.380	-0.500	0.000	0.810	101.350	-1.600	1.200																			1580047464.0	10.60	19.63
26/01/2020 14:04:25	26012020	260120	140425	101.320	12.336168	-56.843322	101.400	-1.030	0.250	0.760	101.320	-1.200	1.200																			1580047465.0	10.62	19.67
26/01/2020 14:04:26	26012020	260120	140426	101.350	12.336155	-56.843272	101.430	-1.230	0.140	0.670	101.360	-1.200	1.100																			1580047466.0	10.90	20.19
26/01/2020 14:04:27	26012020	260120	140427	101.390	12.336142	-56.843220	101.450	-0.940	-0.270	0.610	101.390	-1.500	1.000																			1580047467.0	11.26	20.85
26/01/2020 14:04:28	26012020	260120	140428	101.420	12.336127	-56.843168	101.450	-0.260	-0.700	0.550	101.420	-2.000	1.000																			1580047468.0	11.59	21.46
26/01/2020 14:04:29	26012020	260120	140429	101.400	12.336115	-56.843115	101.420	0.440	-0.620	0.380	101.400	-2.200	0.900																			1580047469.0	11.59	21.46
26/01/2020 14:04:30	26012020	260120	140430	101.400	12.336105	-56.843063	101.500	0.720	0.100	-0.040	101.410	-1.600	0.500																			1580047470.0	10.95	20.28
26/01/2020 14:04:31	26012020	260120	140431	101.540	12.336100	-56.843015	101.810	0.580	0.820	-0.460	101.600	-0.800	0.100																			1580047471.0	10.19	18.87
26/01/2020 14:04:32	26012020	260120	140432	101.900	12.336095	-56.842968	102.160	0.330	0.760	-0.560	101.980	-0.500	-0.200																			1580047472.0	10.11	18.72
26/01/2020 14:04:33	26012020	260120	140433	102.210	12.336087	-56.842917	102.260	0.270	-0.140	-0.250	102.240	-1.200	0.000																			1580047473.0	10.83	20.06
26/01/2020 14:04:34	26012020	260120	140434	102.210	12.336077	-56.842863	102.090	0.360	-1.120	0.280	102.170	-2.200	0.500																			1580047474.0	11.57	21.43
26/01/2020 14:04:35	26012020	260120	140435	101.960	12.336065	-56.842810	101.780	0.420	-1.440	0.890	101.890	-2.800	1.100																			1580047475.0	11.57	21.43
26/01/2020 14:04:36	26012020	260120	140436	101.640	12.336052	-56.842760	101.530	0.240	-0.970	1.220	101.590	-2.600	1.600																			1580047476.0	10.99	20.35
26/01/2020 14:04:37	26012020	260120	140437	101.420	12.336042	-56.842712	101.380	-0.200	-0.300	1.210	101.390	-1.900	1.600																			1580047477.0	10.38	19.22
26/01/2020 14:04:38	26012020	260120	140438	101.290	12.336032	-56.842663	101.260	-0.640	0.060	1.110	101.270	-1.400	1.600																			1580047478.0	10.43	19.32
26/01/2020 14:04:39	26012020	260120	140439	101.200	12.336020	-56.842613	101.200	-0.810	0.140	0.950	101.180	-1.300	1.400																			1580047479.0	10.85	20.09
26/01/2020 14:04:40	26012020	260120	140440	101.150	12.336007	-56.842563	101.230	-0.640	0.020	0.750	101.160	-1.300	1.200																			1580047480.0	11.13	20.61
26/01/2020 14:04:41	26012020	260120	140441	101.230	12.335995	-56.842510	101.390	-0.240	-0.260	0.440	101.260	-1.600	1.000																			1580047481.0	11.31	20.95
26/01/2020 14:04:42	26012020	260120	140442	101.420	12.335985	-56.842458	101.610	0.180	-0.280	0.110	101.470	-1.700	0.600																			1580047482.0	11.39	21.09
26/01/2020 14:04:43	26012020	260120	140443	101.650	12.335977	-56.842407	101.820	0.370	0.120	-0.110	101.690	-1.500	0.400																			1580047483.0	10.96	20.30
26/01/2020 14:04:44	26012020	260120	140444	101.850	12.335968	-56.842358	102.020	0.340	0.420	-0.220	101.890	-1.100	0.200																			1580047484.0	10.37	19.21
26/01/2020 14:04:45	26012020	260120	140445	102.040	12.335962	-56.842310	102.180	0.310	0.130	-0.140	102.070	-1.100	0.200																			1580047485.0	10.48	19.41
26/01/2020 14:04:46	26012020	260120	140446	102.160	12.335952	-56.842258	102.220	0.370	-0.490	0.200	102.170	-1.700	0.500																			1580047486.0	11.04	20.45
26/01/2020 14:04:47	26012020	260120	140447	102.150	12.335942	-56.842205	102.110	0.380	-0.950	0.530	102.140	-2.200	0.800																			1580047487.0	11.30	20.93
26/01/2020 14:04:48	26012020	260120	140448	102.010	12.335930	-56.842155	101.920	0.310	-0.990	0.810	101.970	-2.400	1.100																			1580047488.0	11.13	20.61
26/01/2020 14:04:49	26012020	260120	140449	101.790	12.335920	-56.842103	101.700	0.120	-0.690	1.040	101.750	-2.200	1.400																			1580047489.0	10.84	20.08
26/01/2020 14:04:50	26012020	260120	140450	101.580	12.335908	-56.842055	101.540	-0.210	-0.270	0.970	101.550	-1.800	1.400																			1580047490.0	10.69	19.80
26/01/2020 14:04:51	26012020	260120	140451	101.460	12.335898	-56.842005	101.460	-0.580	0.090	0.760	101.450	-1.400	1.200																			1580047491.0	10.69	19.80
26/01/2020 14:04:52	26012020	260120	140452	101.420	12.335888	-56.841955	101.460	-0.750	0.200	0.600	101.410	-1.200	1.100																			1580047492.0	10.77	19.95
26/01/2020 14:04:53	26012020	260120	140453	101.450	12.335877	-56.841905	101.600	-0.540	-0.040	0.380	101.480	-1.300	0.900																			1580047493.0	11.02	20.41
26/01/2020 14:04:54	26012020	260120	140454	101.620	12.335865	-56.841852	101.720	-0.050	-0.390	0.230	101.650	-1.700	0.700																			1580047494.0	11.39	21.09
26/01/2020 14:04:55	26012020	260120	140455	101.720	12.335855	-56.841800	101.790	0.320	-0.340	0.100	101.730	-1.800	0.600																			1580047495.0	11.41	21.13
26/01/2020 14:04:56	26012020	260120	140456	101.790	12.335845	-56.841748	101.950	0.380	0.090	-0.030	101.830	-1.500	0.400																			1580047496.0	10.84	20.08
26/01/2020 14:04:57	26012020	260120	140457	101.980	12.335837	-56.841700	102.190	0.260	0.330	-0.110	102.030	-1.100	0.300																			1580047497.0	10.34	19.15
26/01/2020 14:04:58	26012020	260120	140458	102.200	12.335830	-56.841652	102.300	0.200	-0.010	-0.020	102.230	-1.200	0.300																			1580047498.0	10.57	19.58
26/01/2020 14:04:59	26012020	260120	140459	102.240	12.335820	-56.841600	102.210	0.230	-0.620	0.360	102.230	-1.800	0.600																			1580047499.0	11.16	20.67
26/01/2020 14:05:00	26012020	260120	140500	102.140	12.335808	-56.841547	102.060	0.230	-0.920	0.830	102.110	-2.300	1.100	1016.60	26.00	26.10	18.80	18.90	769.00	64.00	64.00	373.00	28.60	357.00	9.80	95.00	4.20	55928	3242.00	27.50	27.50	1580047500.0	11.39	21.09
26/01/2020 14:05:01	26012020	260120	140501	101.980	12.335797	-56.841497	101.980	0.120	-0.700	1.110	101.960	-2.200	1.400																			1580047501.0	11.06	20.48
26/01/2020 14:05:02	26012020	260120	140502	101.920	12.335785	-56.841447	101.890	-0.090	-0.270	1.050	101.900	-1.800	1.500																			1580047502.0	10.63	19.69
26/01/2020 14:05:03	26012020	260120	140503	101.820	12.335775	-56.841398	101.830	-0.330	0.040	0.710	101.800	-1.500	1.200																			1580047503.0	10.57	19.58
26/01/2020 14:05:04	26012020	260120	140504	101.810	12.335767	-56.841348	101.950	-0.480	0.110	0.380	101.820	-1.300	0.900																			1580047504.0	10.71	19.83
26/01/2020 14:05:05	26012020	260120	140505	101.960	12.335755	-56.841298	102.130	-0.370	-0.100	0.170	102.000	-1.400	0.600																			1580047505.0	10.92	20.22
26/01/2020 14:05:06	26012020	260120	140506	102.120	12.335745	-56.841247	102.130	-0.010	-0.500	0.170	102.120	-1.800	0.600																			1580047506.0	11.21	20.76
26/01/2020 14:05:07	26012020	260120	140507	102.040	12.335733	-56.841193	101.920	0.370	-0.760	0.240	102.000	-2.100	0.600																			1580047507.0	11.46	21.22
26/01/2020 14:05:08	26012020	260120	140508	101.840	12.335725	-56.841140	101.870	0.490	-0.560	0.290	101.820	-2.100	0.700																			1580047508.0	11.31	20.95
26/01/2020 14:05:09	26012020	260120	140509	101.870	12.335715	-56.841090	102.080	0.250	0.020	0.250	101.920	-1.600	0.700																			1580047509.0	10.82	20.04
26/01/2020 14:05:10	26012020	260120	140510	102.120	12.335707	-56.841042	102.280	-0.190	0.490	0.160	102.160	-1.000	0.600																			1580047510.0	10.36	19.19
26/01/2020 14:05:11	26012020	260120	140511	102.260	12.335697	-56.840993	102.270	-0.460	0.330	0.180	102.260	-0.900	0.500																			1580047511.0	10.50	19.45
26/01/2020 14:05:12	26012020	260120	140512	102.210	12.335685	-56.840942	102.180	-0.350	-0.220	0.360	102.190	-1.400	0.700																			1580047512.0	11.12	20.59
26/01/2020 14:05:13	26012020	260120	140513	102.120	12.335672	-56.840890	102.160	-0.030	-0.600	0.360	102.120	-1.900	0.800																			1580047513.0	11.42	21.15
26/01/2020 14:05:14	26012020	260120	140514	102.120	12.335662	-56.840838	102.200	0.220	-0.630	0.130	102.140	-2.100	0.600																			1580047514.0	11.17	20.69
26/01/2020 14:05:15	26012020	260120	140515	102.190	12.335653	-56.840787	102.240	0.220	-0.400	0.000	102.200	-1.900	0.400																			1580047515.0	10.85	20.09
26/01/2020 14:05:16	26012020	260120	140516	102.220	12.335643	-56.840738	102.220	0.040	-0.150	0.120	102.210	-1.600	0.500																			1580047516.0	10.61	19.65
26/01/2020 14:05:17	26012020	260120	140517	102.170	12.335633	-56.840688	102.160	-0.070	-0.160	0.310	102.160	-1.500	0.600																			1580047517.0	10.63	19.69
26/01/2020 14:05:18	26012020	260120	140518	102.120	12.335622	-56.840638	102.070	0.040	-0.490	0.530	102.100	-1.800	0.800																			1580047518.0	10.98	20.33
26/01/2020 14:05:19	26012020	260120	140519	102.000	12.335610	-56.840585	101.870	0.290	-0.780	0.740	101.960	-2.100	1.100																			1580047519.0	11.41	21.13
26/01/2020 14:05:20	26012020	260120	140520	101.780	12.335598	-56.840533	101.710	0.330	-0.550	0.800	101.750	-2.100	1.200																			1580047520.0	11.41	21.13
26/01/2020 14:05:21	26012020	260120	140521	101.680	12.335588	-56.840483	101.750	-0.020	0.140	0.790	101.690	-1.600	1.200																			1580047521.0	10.82	20.04
26/01/2020 14:05:22	26012020	260120	140522	101.730	12.335578	-56.840435	101.820	-0.470	0.620	0.740	101.750	-0.900	1.200																			1580047522.0	10.27	19.02
26/01/2020 14:05:23	26012020	260120	140523	101.810	12.335568	-56.840387	101.910	-0.510	0.310	0.520	101.820	-0.900	1.000																			1580047523.0	10.52	19.48
26/01/2020 14:05:24	26012020	260120	140524	101.920	12.335558	-56.840333	102.050	-0.130	-0.440	0.300	101.950	-1.600	0.800																			1580047524.0	11.37	21.06
26/01/2020 14:05:25	26012020	260120	140525	102.070	12.335547	-56.840280	102.240	0.200	-0.730	0.240	102.110	-2.100	0.600																			1580047525.0	11.73	21.72
26/01/2020 14:05:26	26012020	260120	140526	102.270	12.335537	-56.840228	102.460	0.140	-0.290	0.330	102.310	-1.900	0.700																			1580047526.0	10.99	20.35
26/01/2020 14:05:27	26012020	260120	140527	102.460	12.335527	-56.840182	102.540	-0.090	0.080	0.490	102.480	-1.400	0.800																			1580047527.0	10.14	18.78
26/01/2020 14:05:28	26012020	260120	140528	102.490	12.335517	-56.840133	102.420	-0.020	-0.310	0.620	102.470	-1.500	1.000																			1580047528.0	10.42	19.30
26/01/2020 14:05:29	26012020	260120	140529	102.350	12.335505	-56.840080	102.320	0.250	-0.850	0.690	102.330	-2.100	1.000																			1580047529.0	11.40	21.11
26/01/2020 14:05:30	26012020	260120	140530	102.260	12.335495	-56.840027	102.270	0.320	-0.850	0.830	102.240	-2.300	1.200																			1580047530.0	11.50	21.30
26/01/2020 14:05:31	26012020	260120	140531	102.210	12.335485	-56.839977	102.250	0.120	-0.400	0.830	102.210	-2.000	1.300																			1580047531.0	10.89	20.17
26/01/2020 14:05:32	26012020	260120	140532	102.200	12.335473	-56.839928	102.250	-0.210	0.110	0.690	102.200	-1.500	1.100																			1580047532.0	10.57	19.58
26/01/2020 14:05:33	26012020	260120	140533	102.190	12.335463	-56.839880	102.190	-0.470	0.330	0.630	102.180	-1.100	1.000																			1580047533.0	10.59	19.61
26/01/2020 14:05:34	26012020	260120	140534	102.100	12.335452	-56.839830	102.070	-0.460	0.170	0.530	102.080	-1.200	1.000																			1580047534.0	10.88	20.15
26/01/2020 14:05:35	26012020	260120	140535	102.020	12.335440	-56.839778	102.130	-0.160	-0.100	0.240	102.030	-1.400	0.800																			1580047535.0	11.20	20.74
26/01/2020 14:05:36	26012020	260120	140536	102.170	12.335432	-56.839725	102.420	0.190	-0.220	-0.050	102.230	-1.600	0.400																			1580047536.0	11.21	20.76
26/01/2020 14:05:37	26012020	260120	140537	102.480	12.335422	-56.839675	102.670	0.360	-0.210	-0.190	102.540	-1.600	0.200																			1580047537.0	10.95	20.28
26/01/2020 14:05:38	26012020	260120	140538	102.660	12.335412	-56.839625	102.740	0.320	-0.160	-0.040	102.680	-1.600	0.300																			1580047538.0	10.74	19.89
26/01/2020 14:05:39	26012020	260120	140539	102.720	12.335402	-56.839575	102.710	0.200	-0.180	0.280	102.720	-1.600	0.600																			1580047539.0	10.61	19.65
26/01/2020 14:05:40	26012020	260120	140540	102.670	12.335392	-56.839527	102.630	0.190	-0.510	0.460	102.650	-1.800	0.800																			1580047540.0	10.71	19.83
26/01/2020 14:05:41	26012020	260120	140541	102.570	12.335382	-56.839475	102.520	0.300	-1.020	0.530	102.550	-2.300	0.900																			1580047541.0	11.18	20.71
26/01/2020 14:05:42	26012020	260120	140542	102.460	12.335370	-56.839422	102.400	0.240	-1.040	0.740	102.440	-2.500	1.000																			1580047542.0	11.49	21.28
26/01/2020 14:05:43	26012020	260120	140543	102.310	12.335358	-56.839370	102.190	-0.150	-0.400	0.940	102.270	-2.100	1.300																			1580047543.0	10.93	20.24
26/01/2020 14:05:44	26012020	260120	140544	102.090	12.335347	-56.839323	101.980	-0.620	0.240	0.910	102.040	-1.400	1.300																			1580047544.0	10.34	19.15
26/01/2020 14:05:45	26012020	260120	140545	101.890	12.335335	-56.839275	101.830	-0.760	0.320	0.770	101.860	-1.000	1.200																			1580047545.0	10.50	19.45
26/01/2020 14:05:46	26012020	260120	140546	101.770	12.335323	-56.839223	101.810	-0.490	-0.090	0.530	101.770	-1.300	1.000																			1580047546.0	11.19	20.72
26/01/2020 14:05:47	26012020	260120	140547	101.790	12.335312	-56.839170	101.920	-0.070	-0.380	0.180	101.820	-1.700	0.700																			1580047547.0	11.62	21.52
26/01/2020 14:05:48	26012020	260120	140548	101.930	12.335302	-56.839117	102.130	0.160	-0.120	0.020	101.970	-1.700	0.400																			1580047548.0	11.35	21.02
26/01/2020 14:05:49	26012020	260120	140549	102.160	12.335293	-56.839068	102.390	0.130	0.410	0.030	102.210	-1.200	0.400																			1580047549.0	10.58	19.59
26/01/2020 14:05:50	26012020	260120	140550	102.430	12.335283	-56.839020	102.630	0.090	0.470	0.090	102.480	-0.900	0.500																			1580047550.0	10.21	18.91
26/01/2020 14:05:51	26012020	260120	140551	102.640	12.335273	-56.838972	102.760	0.280	-0.170	0.300	102.670	-1.300	0.600																			1580047551.0	10.69	19.80
26/01/2020 14:05:52	26012020	260120	140552	102.740	12.335263	-56.838918	102.710	0.610	-0.950	0.570	102.730	-2.100	0.900																			1580047552.0	11.37	21.06
26/01/2020 14:05:53	26012020	260120	140553	102.630	12.335252	-56.838865	102.500	0.730	-1.150	0.740	102.590	-2.600	1.100																			1580047553.0	11.47	21.24
26/01/2020 14:05:54	26012020	260120	140554	102.390	12.335242	-56.838815	102.300	0.410	-0.620	0.790	102.350	-2.300	1.200																			1580047554.0	10.84	20.08
26/01/2020 14:05:55	26012020	260120	140555	102.220	12.335233	-56.838768	102.230	-0.120	0.000	0.710	102.200	-1.600	1.200																			1580047555.0	10.18	18.85
26/01/2020 14:05:56	26012020	260120	140556	102.200	12.335223	-56.838720	102.240	-0.480	0.030	0.540	102.200	-1.300	1.000																			1580047556.0	10.29	19.06
26/01/2020 14:05:57	26012020	260120	140557	102.200	12.335213	-56.838668	102.180	-0.550	-0.400	0.520	102.190	-1.600	0.900																			1580047557.0	11.08	20.52
26/01/2020 14:05:58	26012020	260120	140558	102.110	12.335200	-56.838617	102.060	-0.480	-0.600	0.770	102.090	-2.000	1.100																			1580047558.0	11.53	21.35
26/01/2020 14:05:59	26012020	260120	140559	101.980	12.335187	-56.838565	101.940	-0.360	-0.380	0.830	101.960	-1.900	1.200																			1580047559.0	11.20	20.74
26/01/2020 14:06:00	26012020	260120	140600	101.880	12.335173	-56.838515	101.850	-0.160	-0.130	0.580	101.860	-1.600	1.100	1016.60	26.00	26.10	18.90	18.90	773.00	64.00	64.00	373.00	28.60	358.00	9.90	98.00	4.30	56232	3231.00	27.50	27.50	1580047560.0	10.83	20.06
26/01/2020 14:06:01	26012020	260120	140601	101.810	12.335165	-56.838465	101.820	0.130	-0.080	0.270	101.800	-1.500	0.800																			1580047561.0	10.93	20.24
26/01/2020 14:06:02	26012020	260120	140602	101.810	12.335155	-56.838412	101.890	0.320	0.030	-0.060	101.820	-1.400	0.500																			1580047562.0	11.15	20.65
26/01/2020 14:06:03	26012020	260120	140603	101.920	12.335148	-56.838362	102.070	0.260	0.290	-0.170	101.950	-1.200	0.200																			1580047563.0	10.91	20.21
26/01/2020 14:06:04	26012020	260120	140604	102.070	12.335140	-56.838312	102.260	0.100	0.270	0.020	102.110	-1.100	0.300																			1580047564.0	10.59	19.61
26/01/2020 14:06:05	26012020	260120	140605	102.290	12.335128	-56.838262	102.400	0.050	-0.130	0.360	102.320	-1.400	0.600																			1580047565.0	10.83	20.06
26/01/2020 14:06:06	26012020	260120	140606	102.380	12.335117	-56.838212	102.440	0.050	-0.450	0.660	102.390	-1.800	1.000																			1580047566.0	11.13	20.61
26/01/2020 14:06:07	26012020	260120	140607	102.400	12.335103	-56.838162	102.420	0.030	-0.450	0.840	102.400	-1.900	1.200																			1580047567.0	10.87	20.13
26/01/2020 14:06:08	26012020	260120	140608	102.370	12.335093	-56.838112	102.310	0.060	-0.510	0.870	102.350	-1.900	1.300																			1580047568.0	10.56	19.56
26/01/2020 14:06:09	26012020	260120	140609	102.220	12.335083	-56.838062	102.090	0.170	-0.770	0.720	102.180	-2.100	1.200																			1580047569.0	10.80	20.00
26/01/2020 14:06:10	26012020	260120	140610	101.980	12.335073	-56.838010	101.810	0.250	-0.890	0.540	101.920	-2.300	1.000																			1580047570.0	11.21	20.76
26/01/2020 14:06:11	26012020	260120	140611	101.720	12.335065	-56.837958	101.650	0.160	-0.480	0.450	101.680	-2.100	0.900																			1580047571.0	11.10	20.56
26/01/2020 14:06:12	26012020	260120	140612	101.610	12.335055	-56.837910	101.670	-0.050	0.040	0.370	101.610	-1.500	0.800																			1580047572.0	10.58	19.59
26/01/2020 14:06:13	26012020	260120	140613	101.670	12.335047	-56.837860	101.790	-0.210	0.110	0.340	101.700	-1.300	0.700																			1580047573.0	10.61	19.65
26/01/2020 14:06:14	26012020	260120	140614	101.780	12.335035	-56.837808	101.810	-0.220	-0.210	0.470	101.780	-1.500	0.800																			1580047574.0	11.15	20.65
26/01/2020 14:06:15	26012020	260120	140615	101.760	12.335023	-56.837755	101.750	-0.150	-0.390	0.710	101.750	-1.800	1.000																			1580047575.0	11.51	21.32
26/01/2020 14:06:16	26012020	260120	140616	101.690	12.335012	-56.837703	101.780	-0.190	-0.130	0.830	101.690	-1.700	1.200																			1580047576.0	11.26	20.85
26/01/2020 14:06:17	26012020	260120	140617	101.770	12.335000	-56.837655	101.990	-0.370	0.320	0.630	101.810	-1.200	1.100																			1580047577.0	10.65	19.72
26/01/2020 14:06:18	26012020	260120	140618	102.030	12.334990	-56.837607	102.230	-0.470	0.360	0.400	102.080	-1.000	0.900																			1580047578.0	10.40	19.26
26/01/2020 14:06:19	26012020	260120	140619	102.230	12.334980	-56.837557	102.280	-0.270	-0.160	0.390	102.240	-1.300	0.800																			1580047579.0	10.82	20.04
26/01/2020 14:06:20	26012020	260120	140620	102.230	12.334968	-56.837503	102.180	0.150	-0.690	0.410	102.220	-1.900	0.800																			1580047580.0	11.38	21.08
26/01/2020 14:06:21	26012020	260120	140621	102.140	12.334957	-56.837452	102.080	0.510	-0.670	0.350	102.110	-2.100	0.800																			1580047581.0	11.26	20.85
26/01/2020 14:06:22	26012020	260120	140622	102.030	12.334948	-56.837402	101.980	0.680	-0.310	0.250	102.000	-1.900	0.700																			1580047582.0	10.68	19.78
26/01/2020 14:06:23	26012020	260120	140623	101.940	12.334942	-56.837353	101.910	0.670	-0.160	0.070	101.930	-1.600	0.500																			1580047583.0	10.46	19.37
26/01/2020 14:06:24	26012020	260120	140624	101.910	12.334935	-56.837302	101.970	0.510	-0.290	-0.060	101.920	-1.600	0.400																			1580047584.0	10.84	20.08
26/01/2020 14:06:25	26012020	260120	140625	102.000	12.334927	-56.837250	102.120	0.160	-0.320	0.070	102.040	-1.700	0.400																			1580047585.0	11.11	20.58
26/01/2020 14:06:26	26012020	260120	140626	102.140	12.334917	-56.837200	102.180	-0.260	-0.230	0.420	102.160	-1.700	0.700																			1580047586.0	10.87	20.13
26/01/2020 14:06:27	26012020	260120	140627	102.130	12.334905	-56.837150	102.070	-0.560	-0.320	0.820	102.110	-1.700	1.100																			1580047587.0	10.80	20.00
26/01/2020 14:06:28	26012020	260120	140628	101.980	12.334890	-56.837100	101.870	-0.580	-0.670	1.160	101.940	-1.900	1.400																			1580047588.0	11.14	20.63
26/01/2020 14:06:29	26012020	260120	140629	101.790	12.334877	-56.837047	101.780	-0.410	-0.800	1.190	101.760	-2.200	1.600																			1580047589.0	11.51	21.32
26/01/2020 14:06:30	26012020	260120	140630	101.720	12.334865	-56.836995	101.810	-0.330	-0.310	0.900	101.730	-2.000	1.400																			1580047590.0	11.25	20.84
26/01/2020 14:06:31	26012020	260120	140631	101.810	12.334853	-56.836947	101.960	-0.390	0.350	0.470	101.830	-1.300	1.000																			1580047591.0	10.58	19.59
26/01/2020 14:06:32	26012020	260120	140632	101.990	12.334845	-56.836898	102.160	-0.360	0.520	0.090	102.030	-0.900	0.600																			1580047592.0	10.41	19.28
26/01/2020 14:06:33	26012020	260120	140633	102.190	12.334835	-56.836848	102.300	-0.050	0.130	-0.170	102.220	-1.100	0.300																			1580047593.0	10.92	20.22
26/01/2020 14:06:34	26012020	260120	140634	102.320	12.334825	-56.836795	102.340	0.410	-0.320	-0.250	102.330	-1.600	0.200																			1580047594.0	11.38	21.08
26/01/2020 14:06:35	26012020	260120	140635	102.330	12.334817	-56.836742	102.340	0.720	-0.420	-0.180	102.330	-1.800	0.200																			1580047595.0	11.30	20.93
26/01/2020 14:06:36	26012020	260120	140636	102.360	12.334808	-56.836692	102.440	0.700	-0.280	-0.030	102.380	-1.700	0.300																			1580047596.0	10.83	20.06
26/01/2020 14:06:37	26012020	260120	140637	102.460	12.334800	-56.836642	102.520	0.470	-0.340	0.160	102.490	-1.700	0.500																			1580047597.0	10.62	19.67
26/01/2020 14:06:38	26012020	260120	140638	102.500	12.334790	-56.836592	102.490	0.200	-0.490	0.420	102.490	-1.900	0.700																			1580047598.0	10.93	20.24
26/01/2020 14:06:39	26012020	260120	140639	102.440	12.334778	-56.836540	102.430	-0.100	-0.370	0.660	102.430	-1.900	1.000																			1580047599.0	11.01	20.39
26/01/2020 14:06:40	26012020	260120	140640	102.370	12.334767	-56.836492	102.340	-0.350	-0.170	0.880	102.340	-1.600	1.200																			1580047600.0	10.70	19.82
26/01/2020 14:06:41	26012020	260120	140641	102.270	12.334755	-56.836442	102.250	-0.450	-0.230	0.940	102.260	-1.600	1.300																			1580047601.0	10.71	19.83
26/01/2020 14:06:42	26012020	260120	140642	102.190	12.334743	-56.836392	102.120	-0.420	-0.520	0.770	102.170	-1.800	1.200																			1580047602.0	11.09	20.54
26/01/2020 14:06:43	26012020	260120	140643	102.020	12.334732	-56.836338	101.870	-0.290	-0.700	0.650	101.970	-2.100	1.100																			1580047603.0	11.35	21.02
26/01/2020 14:06:44	26012020	260120	140644	101.770	12.334720	-56.836287	101.730	-0.170	-0.510	0.480	101.740	-2.000	0.900																			1580047604.0	11.26	20.85
26/01/2020 14:06:45	26012020	260120	140645	101.700	12.334710	-56.836237	101.770	-0.070	-0.150	0.210	101.710	-1.700	0.700																			1580047605.0	10.90	20.19
26/01/2020 14:06:46	26012020	260120	140646	101.770	12.334700	-56.836187	101.820	0.050	0.070	0.050	101.780	-1.400	0.500																			1580047606.0	10.82	20.04
26/01/2020 14:06:47	26012020	260120	140647	101.810	12.334690	-56.836135	101.840	0.120	0.250	0.080	101.810	-1.200	0.500																			1580047607.0	10.97	20.32
26/01/2020 14:06:48	26012020	260120	140648	101.840	12.334680	-56.836085	101.930	0.120	0.330	0.150	101.850	-1.100	0.500																			1580047608.0	10.83	20.06
26/01/2020 14:06:49	26012020	260120	140649	101.950	12.334670	-56.836035	102.070	0.210	0.010	0.250	101.980	-1.200	0.600																			1580047609.0	10.81	20.02
26/01/2020 14:06:50	26012020	260120	140650	102.090	12.334662	-56.835983	102.120	0.440	-0.590	0.470	102.100	-1.800	0.800																			1580047610.0	11.23	20.80
26/01/2020 14:06:51	26012020	260120	140651	102.080	12.334650	-56.835930	102.040	0.510	-0.870	0.810	102.060	-2.200	1.100																			1580047611.0	11.49	21.28
26/01/2020 14:06:52	26012020	260120	140652	101.990	12.334640	-56.835878	102.020	0.210	-0.470	1.050	101.980	-2.100	1.400																			1580047612.0	11.07	20.50
26/01/2020 14:06:53	26012020	260120	140653	102.000	12.334630	-56.835830	102.110	-0.330	0.220	1.050	102.010	-1.400	1.500																			1580047613.0	10.32	19.11
26/01/2020 14:06:54	26012020	260120	140654	102.100	12.334620	-56.835783	102.220	-0.680	0.330	0.940	102.120	-1.000	1.400																			1580047614.0	10.08	18.67
26/01/2020 14:06:55	26012020	260120	140655	102.210	12.334608	-56.835733	102.220	-0.510	-0.420	0.790	102.220	-1.500	1.200																			1580047615.0	10.82	20.04
26/01/2020 14:06:56	26012020	260120	140656	102.180	12.334597	-56.835680	102.010	0.030	-1.170	0.750	102.150	-2.400	1.100																			1580047616.0	11.77	21.80
26/01/2020 14:06:57	26012020	260120	140657	101.910	12.334585	-56.835625	101.770	0.440	-1.040	0.660	101.860	-2.600	1.100																			1580047617.0	11.76	21.78
26/01/2020 14:06:58	26012020	260120	140658	101.710	12.334575	-56.835575	101.720	0.370	-0.240	0.400	101.700	-2.000	0.900																			1580047618.0	10.84	20.08
26/01/2020 14:06:59	26012020	260120	140659	101.710	12.334568	-56.835527	101.850	0.030	0.400	0.100	101.740	-1.200	0.600																			1580047619.0	10.24	18.96
26/01/2020 14:07:00	26012020	260120	140700	101.880	12.334560	-56.835478	102.050	-0.170	0.350	-0.120	101.930	-1.000	0.300	1016.60	26.00	26.10	18.80	18.90	791.00	64.00	64.00	374.00	28.60	360.00	10.30	102.00	4.70	57017	3343.00	27.50	27.50	1580047620.0	10.52	19.48
26/01/2020 14:07:01	26012020	260120	140701	102.100	12.334550	-56.835425	102.220	-0.110	-0.060	-0.030	102.140	-1.300	0.300																			1580047621.0	11.23	20.80
26/01/2020 14:07:02	26012020	260120	140702	102.260	12.334540	-56.835373	102.380	-0.020	-0.230	0.260	102.290	-1.600	0.500																			1580047622.0	11.40	21.11
26/01/2020 14:07:03	26012020	260120	140703	102.400	12.334527	-56.835323	102.490	-0.050	-0.180	0.410	102.430	-1.600	0.800																			1580047623.0	10.96	20.30
26/01/2020 14:07:04	26012020	260120	140704	102.500	12.334517	-56.835273	102.500	-0.090	-0.300	0.450	102.500	-1.600	0.800																			1580047624.0	10.71	19.83
26/01/2020 14:07:05	26012020	260120	140705	102.460	12.334507	-56.835222	102.380	-0.050	-0.570	0.450	102.440	-1.900	0.800																			1580047625.0	11.01	20.39
26/01/2020 14:07:06	26012020	260120	140706	102.330	12.334495	-56.835170	102.290	-0.000	-0.590	0.350	102.310	-2.000	0.800																			1580047626.0	11.17	20.69
26/01/2020 14:07:07	26012020	260120	140707	102.290	12.334485	-56.835120	102.360	-0.020	-0.290	0.150	102.300	-1.800	0.600																			1580047627.0	10.91	20.21
26/01/2020 14:07:08	26012020	260120	140708	102.380	12.334477	-56.835070	102.450	-0.060	0.030	0.050	102.400	-1.500	0.500																			1580047628.0	10.61	19.65
26/01/2020 14:07:09	26012020	260120	140709	102.430	12.334467	-56.835022	102.380	-0.080	0.030	0.040	102.430	-1.400	0.400																			1580047629.0	10.66	19.74
26/01/2020 14:07:10	26012020	260120	140710	102.350	12.334455	-56.834970	102.260	0.000	-0.210	0.160	102.330	-1.500	0.500																			1580047630.0	10.99	20.35
26/01/2020 14:07:11	26012020	260120	140711	102.210	12.334445	-56.834918	102.150	0.200	-0.530	0.390	102.180	-1.800	0.700																			1580047631.0	11.22	20.78
26/01/2020 14:07:12	26012020	260120	140712	102.110	12.334433	-56.834867	102.080	0.390	-0.680	0.530	102.100	-2.100	0.900																			1580047632.0	11.29	20.91
26/01/2020 14:07:13	26012020	260120	140713	102.060	12.334423	-56.834815	102.100	0.370	-0.490	0.500	102.060	-2.000	0.900																			1580047633.0	11.18	20.71
26/01/2020 14:07:14	26012020	260120	140714	102.110	12.334413	-56.834765	102.250	0.040	0.000	0.470	102.140	-1.600	0.900																			1580047634.0	10.83	20.06
26/01/2020 14:07:15	26012020	260120	140715	102.290	12.334403	-56.834717	102.470	-0.420	0.370	0.540	102.340	-1.100	0.900																			1580047635.0	10.46	19.37
26/01/2020 14:07:16	26012020	260120	140716	102.500	12.334392	-56.834667	102.530	-0.680	0.190	0.670	102.530	-1.100	1.000																			1580047636.0	10.58	19.59
26/01/2020 14:07:17	26012020	260120	140717	102.490	12.334378	-56.834617	102.340	-0.480	-0.450	0.790	102.450	-1.600	1.200																			1580047637.0	11.14	20.63
26/01/2020 14:07:18	26012020	260120	140718	102.280	12.334367	-56.834563	102.190	0.030	-0.960	0.770	102.240	-2.200	1.200																			1580047638.0	11.64	21.56
26/01/2020 14:07:19	26012020	260120	140719	102.170	12.334355	-56.834510	102.250	0.390	-0.770	0.560	102.170	-2.300	1.100																			1580047639.0	11.49	21.28
26/01/2020 14:07:20	26012020	260120	140720	102.240	12.334347	-56.834460	102.420	0.350	-0.080	0.170	102.270	-1.800	0.700																			1580047640.0	10.72	19.85
26/01/2020 14:07:21	26012020	260120	140721	102.460	12.334338	-56.834412	102.550	0.090	0.460	-0.050	102.490	-1.100	0.400																			1580047641.0	10.25	18.98
26/01/2020 14:07:22	26012020	260120	140722	102.560	12.334330	-56.834363	102.580	-0.030	0.350	0.060	102.560	-0.900	0.400																			1580047642.0	10.42	19.30
26/01/2020 14:07:23	26012020	260120	140723	102.570	12.334320	-56.834312	102.600	0.130	-0.350	0.230	102.580	-1.500	0.600																			1580047643.0	11.13	20.61
26/01/2020 14:07:24	26012020	260120	140724	102.610	12.334308	-56.834258	102.600	0.330	-0.880	0.330	102.610	-2.200	0.700																			1580047644.0	11.69	21.65
26/01/2020 14:07:25	26012020	260120	140725	102.590	12.334298	-56.834205	102.560	0.210	-0.680	0.440	102.570	-2.200	0.800																			1580047645.0	11.40	21.11
26/01/2020 14:07:26	26012020	260120	140726	102.530	12.334287	-56.834157	102.520	-0.200	-0.070	0.570	102.520	-1.700	0.900																			1580047646.0	10.57	19.58
26/01/2020 14:07:27	26012020	260120	140727	102.490	12.334275	-56.834110	102.430	-0.510	0.140	0.560	102.470	-1.300	1.000																			1580047647.0	10.23	18.95
26/01/2020 14:07:28	26012020	260120	140728	102.400	12.334265	-56.834060	102.350	-0.410	-0.280	0.440	102.390	-1.500	0.900																			1580047648.0	10.81	20.02
26/01/2020 14:07:29	26012020	260120	140729	102.330	12.334253	-56.834007	102.280	-0.050	-0.730	0.270	102.320	-2.000	0.700																			1580047649.0	11.55	21.39
26/01/2020 14:07:30	26012020	260120	140730	102.280	12.334242	-56.833953	102.220	0.140	-0.560	0.090	102.280	-2.100	0.500																			1580047650.0	11.50	21.30
26/01/2020 14:07:31	26012020	260120	140731	102.220	12.334232	-56.833903	102.170	0.070	-0.020	0.050	102.210	-1.600	0.400																			1580047651.0	10.76	19.93
26/01/2020 14:07:32	26012020	260120	140732	102.160	12.334222	-56.833855	102.180	-0.030	0.230	0.120	102.160	-1.200	0.500																			1580047652.0	10.42	19.30
26/01/2020 14:07:33	26012020	260120	140733	102.210	12.334212	-56.833805	102.290	0.020	0.050	0.240	102.230	-1.300	0.600																			1580047653.0	10.82	20.04
26/01/2020 14:07:34	26012020	260120	140734	102.310	12.334200	-56.833753	102.370	0.160	-0.200	0.380	102.330	-1.500	0.700																			1580047654.0	11.19	20.72
26/01/2020 14:07:35	26012020	260120	140735	102.390	12.334190	-56.833702	102.410	0.240	-0.250	0.560	102.390	-1.700	0.900																			1580047655.0	11.11	20.58
26/01/2020 14:07:36	26012020	260120	140736	102.390	12.334178	-56.833652	102.400	0.220	-0.260	0.710	102.380	-1.700	1.100																			1580047656.0	10.84	20.08
26/01/2020 14:07:37	26012020	260120	140737	102.380	12.334168	-56.833602	102.440	0.160	-0.360	0.690	102.380	-1.700	1.100																			1580047657.0	10.82	20.04
26/01/2020 14:07:38	26012020	260120	140738	102.430	12.334158	-56.833550	102.430	0.120	-0.490	0.560	102.430	-1.800	1.000																			1580047658.0	10.95	20.28
26/01/2020 14:07:39	26012020	260120	140739	102.390	12.334150	-56.833500	102.290	0.040	-0.540	0.540	102.360	-1.900	0.900																			1580047659.0	11.04	20.45
26/01/2020 14:07:40	26012020	260120	140740	102.200	12.334140	-56.833448	102.060	-0.150	-0.420	0.600	102.150	-1.900	1.000																			1580047660.0	11.02	20.41
26/01/2020 14:07:41	26012020	260120	140741	102.010	12.334128	-56.833398	102.000	-0.360	-0.230	0.610	101.990	-1.700	1.000																			1580047661.0	10.85	20.09
26/01/2020 14:07:42	26012020	260120	140742	101.970	12.334117	-56.833348	102.020	-0.380	-0.210	0.490	101.980	-1.600	0.900																			1580047662.0	10.86	20.11
26/01/2020 14:07:43	26012020	260120	140743	102.000	12.334107	-56.833297	102.060	-0.200	-0.260	0.330	102.010	-1.700	0.800																			1580047663.0	11.11	20.58
26/01/2020 14:07:44	26012020	260120	140744	102.040	12.334095	-56.833245	102.180	-0.010	-0.170	0.220	102.050	-1.600	0.700																			1580047664.0	11.16	20.67
26/01/2020 14:07:45	26012020	260120	140745	102.220	12.334085	-56.833195	102.370	0.120	0.010	0.110	102.260	-1.500	0.500																			1580047665.0	10.93	20.24
26/01/2020 14:07:46	26012020	260120	140746	102.370	12.334075	-56.833145	102.430	0.240	0.060	0.050	102.390	-1.300	0.500																			1580047666.0	10.77	19.95
26/01/2020 14:07:47	26012020	260120	140747	102.420	12.334065	-56.833093	102.390	0.370	-0.150	-0.010	102.420	-1.400	0.400																			1580047667.0	10.91	20.21
26/01/2020 14:07:48	26012020	260120	140748	102.390	12.334057	-56.833042	102.400	0.410	-0.460	0.060	102.390	-1.800	0.400																			1580047668.0	11.20	20.74
26/01/2020 14:07:49	26012020	260120	140749	102.410	12.334047	-56.832990	102.410	0.210	-0.470	0.380	102.420	-1.900	0.600																			1580047669.0	11.24	20.82
26/01/2020 14:07:50	26012020	260120	140750	102.400	12.334037	-56.832940	102.360	-0.160	-0.180	0.750	102.390	-1.700	1.000																			1580047670.0	10.81	20.02
26/01/2020 14:07:51	26012020	260120	140751	102.340	12.334023	-56.832892	102.270	-0.430	-0.070	1.050	102.320	-1.500	1.400																			1580047671.0	10.53	19.50
26/01/2020 14:07:52	26012020	260120	140752	102.240	12.334012	-56.832842	102.210	-0.360	-0.370	1.010	102.220	-1.600	1.500																			1580047672.0	10.88	20.15
26/01/2020 14:07:53	26012020	260120	140753	102.180	12.333998	-56.832788	102.200	-0.100	-0.600	0.680	102.180	-2.000	1.200																			1580047673.0	11.39	21.09
26/01/2020 14:07:54	26012020	260120	140754	102.180	12.333988	-56.832737	102.240	0.030	-0.300	0.370	102.190	-1.900	0.900																			1580047674.0	11.22	20.78
26/01/2020 14:07:55	26012020	260120	140755	102.250	12.333980	-56.832688	102.340	0.000	0.180	0.150	102.270	-1.400	0.600																			1580047675.0	10.55	19.54
26/01/2020 14:07:56	26012020	260120	140756	102.370	12.333972	-56.832640	102.470	0.010	0.140	-0.040	102.400	-1.200	0.400																			1580047676.0	10.42	19.30
26/01/2020 14:07:57	26012020	260120	140757	102.480	12.333962	-56.832588	102.460	0.210	-0.480	-0.020	102.490	-1.600	0.300																			1580047677.0	11.05	20.46
26/01/2020 14:07:58	26012020	260120	140758	102.430	12.333952	-56.832533	102.320	0.420	-0.830	0.230	102.390	-2.200	0.500																			1580047678.0	11.63	21.54
26/01/2020 14:07:59	26012020	260120	140759	102.270	12.333940	-56.832482	102.210	0.350	-0.510	0.460	102.250	-2.100	0.800																			1580047679.0	11.21	20.76
26/01/2020 14:08:00	26012020	260120	140800	102.170	12.333930	-56.832433	102.090	0.100	-0.230	0.740	102.150	-1.700	1.000	1016.60	26.00	26.10	18.90	18.90	801.00	64.00	64.00	374.00	28.70	359.00	10.10	100.00	4.50	57609	3185.00	27.50	27.50	1580047680.0	10.56	19.56
26/01/2020 14:08:01	26012020	260120	140801	102.030	12.333920	-56.832383	101.910	-0.090	-0.310	0.930	101.990	-1.700	1.300																			1580047681.0	10.83	20.06
26/01/2020 14:08:02	26012020	260120	140802	101.840	12.333910	-56.832332	101.790	-0.230	-0.220	0.890	101.810	-1.700	1.300																			1580047682.0	11.29	20.91
26/01/2020 14:08:03	26012020	260120	140803	101.780	12.333898	-56.832280	101.930	-0.420	0.160	0.770	101.810	-1.400	1.200																			1580047683.0	11.01	20.39
26/01/2020 14:08:04	26012020	260120	140804	101.980	12.333887	-56.832232	102.190	-0.600	0.410	0.670	102.040	-1.000	1.100																			1580047684.0	10.63	19.69
26/01/2020 14:08:05	26012020	260120	140805	102.230	12.333875	-56.832182	102.360	-0.610	0.250	0.490	102.270	-1.000	1.000																			1580047685.0	10.68	19.78
26/01/2020 14:08:06	26012020	260120	140806	102.380	12.333863	-56.832132	102.400	-0.260	-0.270	0.270	102.390	-1.500	0.700																			1580047686.0	11.01	20.39
26/01/2020 14:08:07	26012020	260120	140807	102.410	12.333853	-56.832078	102.410	0.360	-0.750	0.070	102.410	-2.000	0.500																			1580047687.0	11.35	21.02
26/01/2020 14:08:08	26012020	260120	140808	102.410	12.333845	-56.832027	102.480	0.810	-0.770	-0.090	102.420	-2.200	0.400																			1580047688.0	11.31	20.95
26/01/2020 14:08:09	26012020	260120	140809	102.520	12.333837	-56.831975	102.590	0.740	-0.350	-0.130	102.550	-1.900	0.300																			1580047689.0	10.80	20.00
26/01/2020 14:08:10	26012020	260120	140810	102.600	12.333828	-56.831927	102.530	0.310	-0.010	0.140	102.600	-1.500	0.400																			1580047690.0	10.32	19.11
26/01/2020 14:08:11	26012020	260120	140811	102.470	12.333818	-56.831878	102.310	0.020	-0.190	0.580	102.430	-1.500	0.800																			1580047691.0	10.54	19.52
26/01/2020 14:08:12	26012020	260120	140812	102.250	12.333807	-56.831827	102.160	-0.030	-0.560	0.850	102.220	-1.800	1.200																			1580047692.0	11.20	20.74
26/01/2020 14:08:13	26012020	260120	140813	102.120	12.333795	-56.831775	102.110	-0.090	-0.660	0.950	102.110	-2.100	1.300																			1580047693.0	11.40	21.11
26/01/2020 14:08:14	26012020	260120	140814	102.100	12.333783	-56.831723	102.150	-0.260	-0.380	0.870	102.100	-1.900	1.300																			1580047694.0	11.08	20.52
26/01/2020 14:08:15	26012020	260120	140815	102.160	12.333773	-56.831673	102.210	-0.440	-0.030	0.730	102.170	-1.500	1.200																			1580047695.0	10.76	19.93
26/01/2020 14:08:16	26012020	260120	140816	102.220	12.333762	-56.831625	102.290	-0.500	0.130	0.540	102.240	-1.300	1.000																			1580047696.0	10.74	19.89
26/01/2020 14:08:17	26012020	260120	140817	102.320	12.333750	-56.831573	102.360	-0.340	0.110	0.260	102.330	-1.300	0.800																			1580047697.0	10.91	20.21
26/01/2020 14:08:18	26012020	260120	140818	102.370	12.333740	-56.831523	102.370	0.000	-0.060	0.020	102.370	-1.400	0.500																			1580047698.0	11.04	20.45
26/01/2020 14:08:19	26012020	260120	140819	102.370	12.333732	-56.831470	102.400	0.330	-0.320	-0.080	102.370	-1.600	0.300																			1580047699.0	11.14	20.63
26/01/2020 14:08:20	26012020	260120	140820	102.420	12.333722	-56.831418	102.500	0.400	-0.460	-0.030	102.440	-1.900	0.300																			1580047700.0	11.21	20.76
26/01/2020 14:08:21	26012020	260120	140821	102.520	12.333712	-56.831368	102.560	0.130	-0.230	0.250	102.530	-1.800	0.500																			1580047701.0	10.97	20.32
26/01/2020 14:08:22	26012020	260120	140822	102.540	12.333702	-56.831320	102.510	-0.230	0.030	0.620	102.530	-1.400	0.900																			1580047702.0	10.46	19.37
26/01/2020 14:08:23	26012020	260120	140823	102.440	12.333688	-56.831272	102.390	-0.310	-0.150	0.850	102.420	-1.400	1.200																			1580047703.0	10.51	19.46
26/01/2020 14:08:24	26012020	260120	140824	102.320	12.333677	-56.831220	102.300	-0.060	-0.620	0.870	102.300	-1.900	1.300																			1580047704.0	11.11	20.58
26/01/2020 14:08:25	26012020	260120	140825	102.250	12.333665	-56.831168	102.240	0.210	-0.690	0.610	102.240	-2.100	1.100																			1580047705.0	11.42	21.15
26/01/2020 14:08:26	26012020	260120	140826	102.200	12.333655	-56.831117	102.160	0.280	-0.300	0.270	102.190	-1.900	0.800																			1580047706.0	10.91	20.21
26/01/2020 14:08:27	26012020	260120	140827	102.130	12.333647	-56.831068	102.110	0.260	0.010	0.040	102.120	-1.500	0.500																			1580047707.0	10.49	19.43
26/01/2020 14:08:28	26012020	260120	140828	102.100	12.333640	-56.831018	102.120	0.280	-0.050	-0.070	102.100	-1.400	0.400																			1580047708.0	10.72	19.85
26/01/2020 14:08:29	26012020	260120	140829	102.140	12.333632	-56.830967	102.190	0.240	-0.250	-0.030	102.150	-1.600	0.300																			1580047709.0	11.11	20.58
26/01/2020 14:08:30	26012020	260120	140830	102.220	12.333622	-56.830913	102.250	0.110	-0.380	0.280	102.230	-1.800	0.500																			1580047710.0	11.18	20.71
26/01/2020 14:08:31	26012020	260120	140831	102.240	12.333610	-56.830863	102.230	-0.120	-0.330	0.690	102.230	-1.800	0.900																			1580047711.0	11.04	20.45
26/01/2020 14:08:32	26012020	260120	140832	102.190	12.333597	-56.830813	102.130	-0.380	-0.230	1.040	102.170	-1.700	1.300																			1580047712.0	10.89	20.17
26/01/2020 14:08:33	26012020	260120	140833	102.070	12.333585	-56.830763	102.050	-0.590	-0.150	1.130	102.050	-1.600	1.500																			1580047713.0	10.86	20.11
26/01/2020 14:08:34	26012020	260120	140834	102.010	12.333572	-56.830713	102.040	-0.620	-0.150	0.920	102.010	-1.500	1.400																			1580047714.0	10.85	20.09
26/01/2020 14:08:35	26012020	260120	140835	102.030	12.333562	-56.830663	102.030	-0.350	-0.270	0.640	102.030	-1.600	1.100																			1580047715.0	10.95	20.28
26/01/2020 14:08:36	26012020	260120	140836	101.990	12.333550	-56.830612	101.950	0.050	-0.380	0.310	101.990	-1.800	0.800																			1580047716.0	11.12	20.59
26/01/2020 14:08:37	26012020	260120	140837	101.930	12.333542	-56.830560	101.950	0.360	-0.320	-0.040	101.930	-1.800	0.500																			1580047717.0	11.10	20.56
26/01/2020 14:08:38	26012020	260120	140838	101.980	12.333533	-56.830510	102.060	0.460	-0.120	-0.240	102.000	-1.600	0.200																			1580047718.0	10.88	20.15
26/01/2020 14:08:39	26012020	260120	140839	102.110	12.333525	-56.830460	102.120	0.420	-0.010	-0.190	102.120	-1.400	0.200																			1580047719.0	10.69	19.80
26/01/2020 14:08:40	26012020	260120	140840	102.130	12.333517	-56.830410	102.090	0.370	-0.140	0.120	102.120	-1.500	0.400																			1580047720.0	10.80	20.00
26/01/2020 14:08:41	26012020	260120	140841	102.090	12.333507	-56.830358	102.070	0.280	-0.300	0.470	102.080	-1.600	0.700																			1580047721.0	11.03	20.43
26/01/2020 14:08:42	26012020	260120	140842	102.060	12.333497	-56.830307	102.060	0.110	-0.390	0.750	102.050	-1.800	1.100																			1580047722.0	11.01	20.39
26/01/2020 14:08:43	26012020	260120	140843	102.030	12.333485	-56.830257	101.980	-0.120	-0.430	0.900	102.010	-1.800	1.300																			1580047723.0	10.97	20.32
26/01/2020 14:08:44	26012020	260120	140844	101.930	12.333475	-56.830207	101.860	-0.330	-0.390	0.950	101.900	-1.800	1.300																			1580047724.0	10.96	20.30
26/01/2020 14:08:45	26012020	260120	140845	101.820	12.333463	-56.830155	101.840	-0.430	-0.290	0.890	101.810	-1.700	1.300																			1580047725.0	10.94	20.26
26/01/2020 14:08:46	26012020	260120	140846	101.820	12.333452	-56.830105	101.980	-0.400	-0.140	0.640	101.840	-1.600	1.100																			1580047726.0	10.90	20.19
26/01/2020 14:08:47	26012020	260120	140847	102.030	12.333442	-56.830055	102.170	-0.250	-0.110	0.310	102.070	-1.500	0.800																			1580047727.0	10.85	20.09
26/01/2020 14:08:48	26012020	260120	140848	102.210	12.333432	-56.830003	102.280	0.020	-0.300	0.020	102.230	-1.600	0.500																			1580047728.0	10.99	20.35
26/01/2020 14:08:49	26012020	260120	140849	102.290	12.333420	-56.829952	102.340	0.330	-0.440	-0.080	102.310	-1.800	0.300																			1580047729.0	11.27	20.87
26/01/2020 14:08:50	26012020	260120	140850	102.340	12.333412	-56.829900	102.390	0.400	-0.180	-0.030	102.350	-1.700	0.300																			1580047730.0	11.10	20.56
26/01/2020 14:08:51	26012020	260120	140851	102.390	12.333403	-56.829852	102.420	0.270	0.120	0.060	102.400	-1.400	0.400																			1580047731.0	10.57	19.58
26/01/2020 14:08:52	26012020	260120	140852	102.410	12.333393	-56.829802	102.420	0.150	-0.030	0.180	102.420	-1.300	0.500																			1580047732.0	10.61	19.65
26/01/2020 14:08:53	26012020	260120	140853	102.410	12.333383	-56.829750	102.410	0.070	-0.410	0.370	102.400	-1.700	0.700																			1580047733.0	11.14	20.63
26/01/2020 14:08:54	26012020	260120	140854	102.390	12.333373	-56.829698	102.360	-0.120	-0.460	0.570	102.380	-1.900	0.900																			1580047734.0	11.31	20.95
26/01/2020 14:08:55	26012020	260120	140855	102.330	12.333362	-56.829648	102.300	-0.410	-0.140	0.670	102.320	-1.700	1.000																			1580047735.0	10.84	20.08
26/01/2020 14:08:56	26012020	260120	140856	102.270	12.333350	-56.829600	102.240	-0.550	-0.010	0.700	102.260	-1.400	1.100																			1580047736.0	10.46	19.37
26/01/2020 14:08:57	26012020	260120	140857	102.220	12.333338	-56.829550	102.140	-0.310	-0.410	0.700	102.200	-1.600	1.100																			1580047737.0	10.84	20.08
26/01/2020 14:08:58	26012020	260120	140858	102.120	12.333327	-56.829497	102.000	0.160	-0.840	0.530	102.100	-2.100	1.000																			1580047738.0	11.49	21.28
26/01/2020 14:08:59	26012020	260120	140859	101.970	12.333317	-56.829443	101.960	0.460	-0.650	0.250	101.950	-2.200	0.700																			1580047739.0	11.50	21.30
26/01/2020 14:09:00	26012020	260120	140900	101.970	12.333308	-56.829393	102.130	0.380	0.110	-0.030	101.990	-1.600	0.500	1016.60	26.00	26.00	19.00	19.10	810.00	65.00	65.00	374.00	28.70	358.00	10.80	98.00	5.20	58102	3127.00	27.50	27.50	1580047740.0	10.76	19.93
26/01/2020 14:09:01	26012020	260120	140901	102.230	12.333300	-56.829347	102.410	0.110	0.580	-0.260	102.290	-0.900	0.200																			1580047741.0	10.13	18.76
26/01/2020 14:09:02	26012020	260120	140902	102.500	12.333292	-56.829297	102.540	0.010	0.190	-0.170	102.530	-1.000	0.100																			1580047742.0	10.49	19.43
26/01/2020 14:09:03	26012020	260120	140903	102.560	12.333282	-56.829245	102.490	0.140	-0.600	0.260	102.550	-1.700	0.500																			1580047743.0	11.38	21.08
26/01/2020 14:09:04	26012020	260120	140904	102.480	12.333268	-56.829190	102.390	0.190	-0.840	0.650	102.450	-2.200	0.900																			1580047744.0	11.67	21.61
26/01/2020 14:09:05	26012020	260120	140905	102.350	12.333257	-56.829140	102.270	-0.070	-0.420	0.850	102.320	-2.000	1.200																			1580047745.0	10.97	20.32
26/01/2020 14:09:06	26012020	260120	140906	102.220	12.333245	-56.829093	102.190	-0.440	-0.060	0.850	102.210	-1.600	1.300																			1580047746.0	10.35	19.17
26/01/2020 14:09:07	26012020	260120	140907	102.150	12.333235	-56.829043	102.150	-0.550	-0.130	0.720	102.140	-1.500	1.200																			1580047747.0	10.58	19.59
26/01/2020 14:09:08	26012020	260120	140908	102.120	12.333223	-56.828993	102.150	-0.410	-0.210	0.510	102.120	-1.600	1.000																			1580047748.0	11.09	20.54
26/01/2020 14:09:09	26012020	260120	140909	102.140	12.333212	-56.828942	102.140	-0.160	-0.130	0.330	102.140	-1.600	0.800																			1580047749.0	11.01	20.39
26/01/2020 14:09:10	26012020	260120	140910	102.120	12.333202	-56.828892	102.080	0.190	-0.190	0.180	102.120	-1.500	0.600																			1580047750.0	10.82	20.04
26/01/2020 14:09:11	26012020	260120	140911	102.070	12.333193	-56.828840	102.050	0.560	-0.460	-0.040	102.060	-1.800	0.400																			1580047751.0	11.05	20.46
26/01/2020 14:09:12	26012020	260120	140912	102.050	12.333185	-56.828788	102.120	0.700	-0.570	-0.100	102.060	-2.000	0.300																			1580047752.0	11.32	20.96
26/01/2020 14:09:13	26012020	260120	140913	102.170	12.333177	-56.828737	102.300	0.450	-0.190	0.100	102.210	-1.800	0.400																			1580047753.0	11.06	20.48
26/01/2020 14:09:14	26012020	260120	140914	102.360	12.333167	-56.828688	102.430	-0.010	0.260	0.500	102.380	-1.300	0.700																			1580047754.0	10.42	19.30
26/01/2020 14:09:15	26012020	260120	140915	102.430	12.333155	-56.828640	102.350	-0.290	0.190	0.910	102.420	-1.100	1.200																			1580047755.0	10.35	19.17
26/01/2020 14:09:16	26012020	260120	140916	102.290	12.333142	-56.828590	102.100	-0.230	-0.400	1.160	102.230	-1.500	1.500																			1580047756.0	10.99	20.35
26/01/2020 14:09:17	26012020	260120	140917	102.030	12.333130	-56.828537	101.910	-0.060	-0.870	1.080	101.980	-2.200	1.500																			1580047757.0	11.55	21.39
26/01/2020 14:09:18	26012020	260120	140918	101.910	12.333120	-56.828483	101.940	-0.090	-0.680	0.820	101.910	-2.200	1.300																			1580047758.0	11.36	21.04
26/01/2020 14:09:19	26012020	260120	140919	101.980	12.333110	-56.828435	102.090	-0.400	-0.020	0.560	102.000	-1.700	1.000																			1580047759.0	10.62	19.67
26/01/2020 14:09:20	26012020	260120	140920	102.140	12.333100	-56.828388	102.270	-0.660	0.410	0.340	102.180	-1.100	0.800																			1580047760.0	10.14	18.78
26/01/2020 14:09:21	26012020	260120	140921	102.310	12.333090	-56.828340	102.360	-0.430	0.080	0.200	102.330	-1.100	0.600																			1580047761.0	10.44	19.33
26/01/2020 14:09:22	26012020	260120	140922	102.350	12.333078	-56.828287	102.260	0.300	-0.770	0.100	102.340	-1.900	0.500																			1580047762.0	11.38	21.08
26/01/2020 14:09:23	26012020	260120	140923	102.230	12.333068	-56.828232	102.190	0.870	-1.070	0.110	102.200	-2.500	0.500																			1580047763.0	11.95	22.13
26/01/2020 14:09:24	26012020	260120	140924	102.200	12.333060	-56.828180	102.310	0.750	-0.300	0.300	102.210	-2.100	0.600																			1580047764.0	11.18	20.71
26/01/2020 14:09:25	26012020	260120	140925	102.350	12.333050	-56.828133	102.410	0.120	0.650	0.480	102.380	-1.000	0.800																			1580047765.0	9.92	18.37
26/01/2020 14:09:26	26012020	260120	140926	102.430	12.333042	-56.828087	102.360	-0.350	0.580	0.570	102.430	-0.700	0.900																			1580047766.0	9.88	18.30
26/01/2020 14:09:27	26012020	260120	140927	102.340	12.333032	-56.828037	102.250	-0.340	-0.290	0.750	102.320	-1.300	1.100																			1580047767.0	11.04	20.45
26/01/2020 14:09:28	26012020	260120	140928	102.230	12.333018	-56.827982	102.190	-0.120	-0.870	0.940	102.220	-2.100	1.300																			1580047768.0	11.75	21.76
26/01/2020 14:09:29	26012020	260120	140929	102.170	12.333007	-56.827930	102.120	-0.040	-0.690	0.950	102.160	-2.200	1.400																			1580047769.0	11.30	20.93
26/01/2020 14:09:30	26012020	260120	140930	102.110	12.332995	-56.827882	102.140	-0.100	-0.260	0.730	102.110	-1.800	1.200																			1580047770.0	10.51	19.46
26/01/2020 14:09:31	26012020	260120	140931	102.150	12.332985	-56.827833	102.240	-0.120	-0.100	0.440	102.170	-1.500	0.900																			1580047771.0	10.45	19.35
26/01/2020 14:09:32	26012020	260120	140932	102.290	12.332975	-56.827783	102.400	-0.090	-0.020	0.180	102.320	-1.500	0.700																			1580047772.0	10.80	20.00
26/01/2020 14:09:33	26012020	260120	140933	102.450	12.332965	-56.827733	102.520	-0.070	0.130	-0.090	102.480	-1.300	0.400																			1580047773.0	10.75	19.91
26/01/2020 14:09:34	26012020	260120	140934	102.570	12.332958	-56.827683	102.610	0.040	-0.030	-0.210	102.590	-1.300	0.200																			1580047774.0	10.60	19.63
26/01/2020 14:09:35	26012020	260120	140935	102.660	12.332948	-56.827633	102.660	0.310	-0.610	-0.030	102.670	-1.800	0.300																			1580047775.0	10.98	20.33
26/01/2020 14:09:36	26012020	260120	140936	102.670	12.332937	-56.827580	102.590	0.530	-1.090	0.250	102.660	-2.400	0.500																			1580047776.0	11.49	21.28
26/01/2020 14:09:37	26012020	260120	140937	102.550	12.332927	-56.827527	102.430	0.370	-0.780	0.480	102.520	-2.400	0.800																			1580047777.0	11.38	21.08
26/01/2020 14:09:38	26012020	260120	140938	102.380	12.332915	-56.827478	102.290	-0.190	0.180	0.740	102.340	-1.600	1.000																			1580047778.0	10.47	19.39
26/01/2020 14:09:39	26012020	260120	140939	102.250	12.332905	-56.827433	102.280	-0.690	0.680	0.780	102.250	-0.800	1.200																			1580047779.0	9.85	18.24
26/01/2020 14:09:40	26012020	260120	140940	102.290	12.332895	-56.827385	102.340	-0.650	0.170	0.550	102.320	-1.000	1.000																			1580047780.0	10.48	19.41
26/01/2020 14:09:41	26012020	260120	140941	102.340	12.332883	-56.827332	102.280	-0.200	-0.560	0.370	102.340	-1.700	0.800																			1580047781.0	11.59	21.46
26/01/2020 14:09:42	26012020	260120	140942	102.250	12.332872	-56.827278	102.160	0.190	-0.640	0.290	102.220	-2.100	0.700																			1580047782.0	11.60	21.48
26/01/2020 14:09:43	26012020	260120	140943	102.140	12.332862	-56.827228	102.110	0.300	-0.240	0.240	102.120	-1.800	0.600																			1580047783.0	10.83	20.06
26/01/2020 14:09:44	26012020	260120	140944	102.100	12.332853	-56.827180	102.130	0.210	0.070	0.240	102.100	-1.400	0.600																			1580047784.0	10.33	19.13
26/01/2020 14:09:45	26012020	260120	140945	102.150	12.332843	-56.827132	102.220	0.130	-0.080	0.270	102.170	-1.400	0.600																			1580047785.0	10.53	19.50
26/01/2020 14:09:46	26012020	260120	140946	102.260	12.332833	-56.827080	102.330	0.150	-0.410	0.390	102.290	-1.700	0.700																			1580047786.0	10.99	20.35
26/01/2020 14:09:47	26012020	260120	140947	102.350	12.332823	-56.827028	102.350	0.170	-0.500	0.710	102.360	-1.900	1.000																			1580047787.0	11.12	20.59
26/01/2020 14:09:48	26012020	260120	140948	102.340	12.332812	-56.826978	102.270	0.080	-0.320	0.950	102.320	-1.800	1.300																			1580047788.0	10.82	20.04
26/01/2020 14:09:49	26012020	260120	140949	102.240	12.332802	-56.826930	102.250	-0.070	-0.190	0.920	102.230	-1.600	1.300																			1580047789.0	10.58	19.59
26/01/2020 14:09:50	26012020	260120	140950	102.260	12.332792	-56.826880	102.310	-0.160	-0.240	0.710	102.270	-1.600	1.200																			1580047790.0	10.72	19.85
26/01/2020 14:09:51	26012020	260120	140951	102.340	12.332782	-56.826830	102.390	-0.170	-0.300	0.560	102.350	-1.700	1.000																			1580047791.0	10.94	20.26
26/01/2020 14:09:52	26012020	260120	140952	102.390	12.332772	-56.826778	102.400	-0.190	-0.250	0.440	102.390	-1.700	0.900																			1580047792.0	10.92	20.22
26/01/2020 14:09:53	26012020	260120	140953	102.400	12.332762	-56.826728	102.430	-0.140	-0.230	0.250	102.410	-1.600	0.700																			1580047793.0	10.82	20.04
26/01/2020 14:09:54	26012020	260120	140954	102.440	12.332752	-56.826678	102.440	-0.010	-0.280	0.100	102.450	-1.700	0.500																			1580047794.0	10.89	20.17
26/01/2020 14:09:55	26012020	260120	140955	102.460	12.332742	-56.826627	102.430	0.140	-0.300	0.080	102.460	-1.700	0.500																			1580047795.0	11.00	20.37
26/01/2020 14:09:56	26012020	260120	140956	102.450	12.332732	-56.826577	102.440	0.230	-0.260	0.090	102.450	-1.700	0.500																			1580047796.0	10.96	20.30
26/01/2020 14:09:57	26012020	260120	140957	102.470	12.332723	-56.826525	102.500	0.250	-0.190	0.220	102.480	-1.600	0.500																			1580047797.0	10.88	20.15
26/01/2020 14:09:58	26012020	260120	140958	102.530	12.332713	-56.826475	102.530	0.210	-0.140	0.430	102.540	-1.600	0.800																			1580047798.0	10.86	20.11
26/01/2020 14:09:59	26012020	260120	140959	102.570	12.332703	-56.826425	102.570	0.050	-0.170	0.570	102.570	-1.600	0.900																			1580047799.0	10.88	20.15
26/01/2020 14:10:00	26012020	260120	141000	102.600	12.332693	-56.826375	102.630	-0.160	-0.210	0.710	102.610	-1.600	1.000	1016.60	26.00	26.00	19.00	19.00	799.00	65.00	65.00	373.00	28.70	358.00	10.10	99.00	4.50	57746	3071.00	27.50	27.50	1580047800.0	10.93	20.24
26/01/2020 14:10:01	26012020	260120	141001	102.670	12.332682	-56.826323	102.760	-0.330	-0.200	0.780	102.700	-1.600	1.200																			1580047801.0	10.89	20.17
26/01/2020 14:10:02	26012020	260120	141002	102.780	12.332668	-56.826275	102.850	-0.390	-0.240	0.690	102.810	-1.600	1.100																			1580047802.0	10.82	20.04
26/01/2020 14:10:03	26012020	260120	141003	102.870	12.332657	-56.826225	102.850	-0.340	-0.230	0.530	102.880	-1.700	1.000																			1580047803.0	10.89	20.17
26/01/2020 14:10:04	26012020	260120	141004	102.860	12.332647	-56.826175	102.830	-0.230	-0.140	0.270	102.850	-1.600	0.800																			1580047804.0	10.78	19.96
26/01/2020 14:10:05	26012020	260120	141005	102.850	12.332637	-56.826125	102.810	0.010	-0.220	-0.120	102.850	-1.600	0.400																			1580047805.0	10.70	19.82
26/01/2020 14:10:06	26012020	260120	141006	102.840	12.332628	-56.826073	102.750	0.370	-0.520	-0.350	102.830	-1.800	0.100																			1580047806.0	10.99	20.35
26/01/2020 14:10:07	26012020	260120	141007	102.760	12.332620	-56.826022	102.690	0.640	-0.750	-0.250	102.740	-2.100	0.100																			1580047807.0	11.31	20.95
26/01/2020 14:10:08	26012020	260120	141008	102.690	12.332610	-56.825968	102.630	0.610	-0.560	-0.030	102.670	-2.100	0.300																			1580047808.0	11.23	20.80
26/01/2020 14:10:09	26012020	260120	141009	102.610	12.332600	-56.825918	102.580	0.300	-0.050	0.180	102.600	-1.700	0.500																			1580047809.0	10.79	19.98
26/01/2020 14:10:10	26012020	260120	141010	102.560	12.332590	-56.825870	102.600	-0.060	0.270	0.360	102.560	-1.200	0.700																			1580047810.0	10.50	19.45
26/01/2020 14:10:11	26012020	260120	141011	102.620	12.332580	-56.825820	102.770	-0.310	0.190	0.520	102.660	-1.200	0.800																			1580047811.0	10.76	19.93
26/01/2020 14:10:12	26012020	260120	141012	102.810	12.332568	-56.825770	102.940	-0.460	-0.030	0.660	102.840	-1.400	1.000																			1580047812.0	11.10	20.56
26/01/2020 14:10:13	26012020	260120	141013	102.960	12.332555	-56.825718	102.990	-0.500	-0.150	0.770	102.980	-1.500	1.100																			1580047813.0	11.07	20.50
26/01/2020 14:10:14	26012020	260120	141014	102.990	12.332542	-56.825668	102.930	-0.370	-0.290	0.770	102.990	-1.600	1.200																			1580047814.0	10.88	20.15
26/01/2020 14:10:15	26012020	260120	141015	102.880	12.332528	-56.825618	102.790	-0.060	-0.610	0.550	102.850	-1.900	1.100																			1580047815.0	10.96	20.30
26/01/2020 14:10:16	26012020	260120	141016	102.790	12.332520	-56.825567	102.760	0.210	-0.730	0.100	102.770	-2.100	0.700																			1580047816.0	11.21	20.76
26/01/2020 14:10:17	26012020	260120	141017	102.780	12.332512	-56.825515	102.800	0.220	-0.410	-0.140	102.780	-2.000	0.300																			1580047817.0	11.00	20.37
26/01/2020 14:10:18	26012020	260120	141018	102.790	12.332502	-56.825467	102.770	0.030	-0.020	0.000	102.790	-1.500	0.300																			1580047818.0	10.51	19.46
26/01/2020 14:10:19	26012020	260120	141019	102.730	12.332492	-56.825418	102.630	-0.080	-0.090	0.250	102.710	-1.400	0.500																			1580047819.0	10.53	19.50
26/01/2020 14:10:20	26012020	260120	141020	102.560	12.332480	-56.825367	102.400	0.060	-0.570	0.530	102.520	-1.800	0.800																			1580047820.0	11.18	20.71
26/01/2020 14:10:21	26012020	260120	141021	102.330	12.332468	-56.825313	102.230	0.270	-0.750	0.590	102.290	-2.200	1.000																			1580047821.0	11.64	21.56
26/01/2020 14:10:22	26012020	260120	141022	102.210	12.332457	-56.825260	102.190	0.290	-0.320	0.560	102.200	-1.900	1.000																			1580047822.0	11.30	20.93
26/01/2020 14:10:23	26012020	260120	141023	102.200	12.332447	-56.825212	102.240	0.060	0.330	0.550	102.210	-1.300	1.000																			1580047823.0	10.64	19.71
26/01/2020 14:10:24	26012020	260120	141024	102.290	12.332438	-56.825163	102.420	-0.210	0.640	0.390	102.330	-0.800	0.900																			1580047824.0	10.42	19.30
26/01/2020 14:10:25	26012020	260120	141025	102.530	12.332428	-56.825113	102.750	-0.250	0.400	0.180	102.590	-0.900	0.600																			1580047825.0	10.70	19.82
26/01/2020 14:10:26	26012020	260120	141026	102.870	12.332418	-56.825062	103.070	-0.050	-0.130	0.110	102.940	-1.300	0.500																			1580047826.0	11.14	20.63
26/01/2020 14:10:27	26012020	260120	141027	103.160	12.332407	-56.825010	103.250	0.150	-0.540	0.210	103.200	-1.800	0.500																			1580047827.0	11.26	20.85
26/01/2020 14:10:28	26012020	260120	141028	103.270	12.332395	-56.824958	103.180	0.160	-0.680	0.550	103.260	-2.100	0.800																			1580047828.0	11.00	20.37
26/01/2020 14:10:29	26012020	260120	141029	103.120	12.332383	-56.824910	102.930	0.080	-0.740	0.780	103.080	-2.100	1.100																			1580047829.0	10.74	19.89
26/01/2020 14:10:30	26012020	260120	141030	102.840	12.332373	-56.824858	102.660	0.000	-0.800	0.800	102.790	-2.200	1.200																			1580047830.0	10.86	20.11
26/01/2020 14:10:31	26012020	260120	141031	102.600	12.332363	-56.824808	102.460	-0.110	-0.680	0.820	102.550	-2.200	1.200																			1580047831.0	11.04	20.45
26/01/2020 14:10:32	26012020	260120	141032	102.430	12.332352	-56.824758	102.330	-0.240	-0.390	0.730	102.400	-1.900	1.200																			1580047832.0	10.91	20.21
26/01/2020 14:10:33	26012020	260120	141033	102.300	12.332340	-56.824708	102.220	-0.280	-0.170	0.660	102.280	-1.700	1.100																			1580047833.0	10.88	20.15
26/01/2020 14:10:34	26012020	260120	141034	102.200	12.332328	-56.824657	102.160	-0.170	-0.050	0.610	102.180	-1.500	1.000																			1580047834.0	11.06	20.48
26/01/2020 14:10:35	26012020	260120	141035	102.160	12.332317	-56.824605	102.220	0.020	0.040	0.410	102.170	-1.400	0.900																			1580047835.0	11.17	20.69
26/01/2020 14:10:36	26012020	260120	141036	102.270	12.332308	-56.824553	102.400	0.200	0.150	0.110	102.310	-1.300	0.600																			1580047836.0	11.17	20.69
26/01/2020 14:10:37	26012020	260120	141037	102.480	12.332298	-56.824502	102.630	0.310	0.240	-0.110	102.530	-1.200	0.300																			1580047837.0	11.01	20.39
26/01/2020 14:10:38	26012020	260120	141038	102.730	12.332292	-56.824452	102.940	0.330	0.190	-0.170	102.790	-1.200	0.200																			1580047838.0	10.92	20.22
26/01/2020 14:10:39	26012020	260120	141039	103.040	12.332282	-56.824400	103.210	0.260	-0.040	-0.010	103.090	-1.400	0.300																			1580047839.0	10.93	20.24
26/01/2020 14:10:40	26012020	260120	141040	103.250	12.332272	-56.824348	103.290	0.140	-0.360	0.360	103.270	-1.700	0.600																			1580047840.0	10.99	20.35
26/01/2020 14:10:41	26012020	260120	141041	103.270	12.332260	-56.824298	103.260	0.000	-0.600	0.770	103.260	-1.900	1.000																			1580047841.0	11.02	20.41
26/01/2020 14:10:42	26012020	260120	141042	103.220	12.332247	-56.824248	103.170	-0.200	-0.580	1.060	103.210	-2.000	1.400																			1580047842.0	10.91	20.21
26/01/2020 14:10:43	26012020	260120	141043	103.120	12.332235	-56.824200	102.990	-0.430	-0.410	1.090	103.090	-1.900	1.500																			1580047843.0	10.67	19.76
26/01/2020 14:10:44	26012020	260120	141044	102.910	12.332223	-56.824150	102.720	-0.480	-0.470	0.870	102.850	-1.800	1.400																			1580047844.0	10.62	19.67
26/01/2020 14:10:45	26012020	260120	141045	102.620	12.332212	-56.824100	102.410	-0.200	-0.810	0.610	102.560	-2.100	1.100																			1580047845.0	11.07	20.50
26/01/2020 14:10:46	26012020	260120	141046	102.340	12.332202	-56.824047	102.180	0.200	-0.910	0.410	102.290	-2.300	0.900																			1580047846.0	11.53	21.35
26/01/2020 14:10:47	26012020	260120	141047	102.150	12.332192	-56.823993	102.060	0.440	-0.550	0.220	102.120	-2.100	0.700																			1580047847.0	11.33	20.98
26/01/2020 14:10:48	26012020	260120	141048	102.040	12.332182	-56.823943	102.020	0.410	0.000	0.160	102.030	-1.600	0.500																			1580047848.0	10.96	20.30
26/01/2020 14:10:49	26012020	260120	141049	102.040	12.332173	-56.823892	102.150	0.160	0.460	0.220	102.060	-1.100	0.600																			1580047849.0	10.83	20.06
26/01/2020 14:10:50	26012020	260120	141050	102.210	12.332163	-56.823842	102.430	-0.180	0.650	0.400	102.260	-0.800	0.700																			1580047850.0	10.81	20.02
26/01/2020 14:10:51	26012020	260120	141051	102.520	12.332153	-56.823792	102.750	-0.360	0.420	0.670	102.590	-0.900	1.000																			1580047851.0	10.90	20.19
26/01/2020 14:10:52	26012020	260120	141052	102.770	12.332140	-56.823740	102.930	-0.230	-0.140	0.950	102.820	-1.300	1.200																			1580047852.0	11.20	20.74
26/01/2020 14:10:53	26012020	260120	141053	102.930	12.332127	-56.823688	102.900	0.020	-0.590	1.030	102.920	-1.900	1.400																			1580047853.0	11.45	21.21
26/01/2020 14:10:54	26012020	260120	141054	102.870	12.332115	-56.823637	102.820	0.150	-0.540	0.780	102.850	-2.000	1.300																			1580047854.0	11.17	20.69
26/01/2020 14:10:55	26012020	260120	141055	102.830	12.332107	-56.823587	102.850	0.110	-0.260	0.420	102.830	-1.800	0.900																			1580047855.0	10.63	19.69
26/01/2020 14:10:56	26012020	260120	141056	102.880	12.332092	-56.823487	102.900	-0.010	-0.230	0.120	102.890	-1.600	0.600																			1580047856.0	10.51	19.46
26/01/2020 14:10:57	26012020	260120	141057	102.920	12.332080	-56.823435	102.870	-0.100	-0.430	0.040	102.920	-1.800	0.400																			1580047857.0	10.86	20.11
26/01/2020 14:10:58	26012020	260120	141058	102.840	12.332080	-56.823435	102.710	-0.090	-0.600	0.310	102.810	-2.000	0.600																			1580047858.0	11.09	20.54
26/01/2020 14:10:59	26012020	260120	141059	102.680	12.332068	-56.823385	102.610	0.060	-0.680	0.430	102.660	-2.100	0.800																			1580047859.0	11.10	20.56
26/01/2020 14:11:00	26012020	260120	141100	102.570	12.332057	-56.823333	102.490	0.260	-0.720	0.430	102.560	-2.100	0.800	1016.60	25.90	26.00	19.20	19.30	804.00	66.00	66.00	373.00	28.70	357.00	9.40	95.00	3.80	58037	3215.00	27.50	27.50	1580047860.0	11.15	20.65
26/01/2020 14:11:01	26012020	260120	141101	102.450	12.332047	-56.823282	102.320	0.320	-0.560	0.390	102.420	-2.100	0.800																			1580047861.0	11.28	20.89
26/01/2020 14:11:02	26012020	260120	141102	102.290	12.332037	-56.823230	102.210	0.110	-0.090	0.180	102.290	-1.700	0.600																			1580047862.0	11.11	20.58
26/01/2020 14:11:03	26012020	260120	141103	102.220	12.332028	-56.823180	102.220	-0.220	0.370	0.180	102.220	-1.200	0.500																			1580047863.0	10.76	19.93
26/01/2020 14:11:04	26012020	260120	141104	102.240	12.332017	-56.823130	102.320	-0.450	0.450	0.340	102.260	-0.900	0.700																			1580047864.0	10.77	19.95
26/01/2020 14:11:05	26012020	260120	141105	102.370	12.332005	-56.823078	102.450	-0.450	0.120	0.410	102.390	-1.100	0.800																			1580047865.0	11.09	20.54
26/01/2020 14:11:06	26012020	260120	141106	102.460	12.331993	-56.823027	102.530	-0.240	-0.290	0.640	102.490	-1.600	0.900																			1580047866.0	11.41	21.13
26/01/2020 14:11:07	26012020	260120	141107	102.530	12.331980	-56.822973	102.560	-0.020	-0.350	0.760	102.540	-1.800	1.100																			1580047867.0	11.36	21.04
26/01/2020 14:11:08	26012020	260120	141108	102.560	12.331968	-56.822923	102.580	0.100	-0.180	0.570	102.570	-1.700	1.000																			1580047868.0	10.87	20.13
26/01/2020 14:11:09	26012020	260120	141109	102.590	12.331960	-56.822873	102.580	0.210	-0.190	0.400	102.590	-1.600	0.800																			1580047869.0	10.64	19.71
26/01/2020 14:11:10	26012020	260120	141110	102.610	12.331952	-56.822823	102.660	0.340	-0.380	0.270	102.630	-1.700	0.700																			1580047870.0	10.92	20.22
26/01/2020 14:11:11	26012020	260120	141111	102.730	12.331942	-56.822772	102.740	0.370	-0.520	0.170	102.750	-1.900	0.600																			1580047871.0	11.07	20.50
26/01/2020 14:11:12	26012020	260120	141112	102.740	12.331933	-56.822720	102.560	0.330	-0.610	0.360	102.710	-2.000	0.600																			1580047872.0	11.04	20.45
26/01/2020 14:11:13	26012020	260120	141113	102.500	12.331923	-56.822668	102.310	0.240	-0.580	0.680	102.440	-2.000	1.000																			1580047873.0	11.08	20.52
26/01/2020 14:11:14	26012020	260120	141114	102.270	12.331912	-56.822618	102.240	0.050	-0.400	0.880	102.240	-1.900	1.200																			1580047874.0	11.08	20.52
26/01/2020 14:11:15	26012020	260120	141115	102.240	12.331902	-56.822567	102.290	-0.260	-0.100	0.900	102.250	-1.600	1.300																			1580047875.0	10.94	20.26
26/01/2020 14:11:16	26012020	260120	141116	102.300	12.331890	-56.822517	102.340	-0.530	0.060	0.750	102.310	-1.400	1.200																			1580047876.0	10.81	20.02
26/01/2020 14:11:17	26012020	260120	141117	102.350	12.331878	-56.822467	102.390	-0.550	-0.110	0.640	102.360	-1.400	1.100																			1580047877.0	10.98	20.33
26/01/2020 14:11:18	26012020	260120	141118	102.380	12.331867	-56.822415	102.370	-0.270	-0.390	0.550	102.370	-1.700	1.000																			1580047878.0	11.35	21.02
26/01/2020 14:11:19	26012020	260120	141119	102.370	12.331855	-56.822362	102.340	0.090	-0.500	0.320	102.360	-1.900	0.800																			1580047879.0	11.47	21.24
26/01/2020 14:11:20	26012020	260120	141120	102.330	12.331847	-56.822308	102.320	0.300	-0.300	0.120	102.330	-1.800	0.600																			1580047880.0	11.27	20.87
26/01/2020 14:11:21	26012020	260120	141121	102.350	12.331838	-56.822258	102.450	0.190	0.130	-0.020	102.370	-1.500	0.400																			1580047881.0	10.90	20.19
26/01/2020 14:11:22	26012020	260120	141122	102.540	12.331830	-56.822208	102.780	-0.130	0.430	-0.110	102.610	-1.100	0.300																			1580047882.0	10.59	19.61
26/01/2020 14:11:23	26012020	260120	141123	102.900	12.331820	-56.822158	103.060	-0.350	0.210	0.040	102.960	-1.100	0.300																			1580047883.0	10.65	19.72
26/01/2020 14:11:24	26012020	260120	141124	103.100	12.331808	-56.822108	103.030	-0.210	-0.430	0.510	103.100	-1.600	0.700																			1580047884.0	11.15	20.65
26/01/2020 14:11:25	26012020	260120	141125	102.980	12.331795	-56.822055	102.810	0.180	-0.980	0.820	102.930	-2.200	1.100																			1580047885.0	11.56	21.41
26/01/2020 14:11:26	26012020	260120	141126	102.760	12.331782	-56.822002	102.660	0.490	-0.920	0.770	102.720	-2.400	1.200																			1580047886.0	11.48	21.26
26/01/2020 14:11:27	26012020	260120	141127	102.640	12.331772	-56.821952	102.630	0.480	-0.320	0.420	102.630	-2.000	1.000																			1580047887.0	10.86	20.11
26/01/2020 14:11:28	26012020	260120	141128	102.640	12.331765	-56.821903	102.650	0.270	0.150	0.040	102.650	-1.400	0.500																			1580047888.0	10.43	19.32
26/01/2020 14:11:29	26012020	260120	141129	102.660	12.331758	-56.821853	102.610	0.120	0.100	0.080	102.650	-1.200	0.400																			1580047889.0	10.67	19.76
26/01/2020 14:11:30	26012020	260120	141130	102.600	12.331747	-56.821802	102.580	0.110	-0.320	0.250	102.590	-1.600	0.600																			1580047890.0	11.23	20.80
26/01/2020 14:11:31	26012020	260120	141131	102.570	12.331737	-56.821748	102.610	0.030	-0.530	0.290	102.580	-1.900	0.700																			1580047891.0	11.56	21.41
26/01/2020 14:11:32	26012020	260120	141132	102.610	12.331725	-56.821695	102.620	-0.250	-0.290	0.430	102.620	-1.800	0.800																			1580047892.0	11.21	20.76
26/01/2020 14:11:33	26012020	260120	141133	102.620	12.331713	-56.821647	102.620	-0.610	0.010	0.630	102.610	-1.500	0.900																			1580047893.0	10.71	19.83
26/01/2020 14:11:34	26012020	260120	141134	102.600	12.331702	-56.821598	102.580	-0.750	-0.020	0.760	102.600	-1.400	1.100																			1580047894.0	10.72	19.85
26/01/2020 14:11:35	26012020	260120	141135	102.560	12.331688	-56.821547	102.500	-0.510	-0.370	0.680	102.550	-1.600	1.100																			1580047895.0	11.10	20.56
26/01/2020 14:11:36	26012020	260120	141136	102.480	12.331675	-56.821493	102.410	-0.010	-0.680	0.390	102.460	-2.000	0.900																			1580047896.0	11.46	21.22
26/01/2020 14:11:37	26012020	260120	141137	102.420	12.331665	-56.821442	102.410	0.430	-0.620	0.100	102.420	-2.100	0.600																			1580047897.0	11.42	21.15
26/01/2020 14:11:38	26012020	260120	141138	102.440	12.331657	-56.821390	102.460	0.570	-0.260	-0.090	102.450	-1.800	0.300																			1580047898.0	11.05	20.46
26/01/2020 14:11:39	26012020	260120	141139	102.500	12.331648	-56.821340	102.490	0.490	0.090	-0.010	102.510	-1.400	0.300																			1580047899.0	10.76	19.93
26/01/2020 14:11:40	26012020	260120	141140	102.510	12.331638	-56.821290	102.490	0.320	0.270	0.210	102.510	-1.200	0.500																			1580047900.0	10.74	19.89
26/01/2020 14:11:41	26012020	260120	141141	102.500	12.331630	-56.821238	102.490	0.200	0.090	0.340	102.500	-1.200	0.700																			1580047901.0	10.87	20.13
26/01/2020 14:11:42	26012020	260120	141142	102.500	12.331620	-56.821187	102.500	0.110	-0.290	0.520	102.500	-1.600	0.800																			1580047902.0	11.27	20.87
26/01/2020 14:11:43	26012020	260120	141143	102.530	12.331608	-56.821135	102.600	-0.140	-0.300	0.700	102.550	-1.800	1.000																			1580047903.0	11.33	20.98
26/01/2020 14:11:44	26012020	260120	141144	102.660	12.331597	-56.821085	102.720	-0.430	-0.110	0.780	102.690	-1.600	1.200																			1580047904.0	10.73	19.87
26/01/2020 14:11:45	26012020	260120	141145	102.730	12.331585	-56.821037	102.610	-0.410	-0.230	0.890	102.710	-1.600	1.200																			1580047905.0	10.58	19.59
26/01/2020 14:11:46	26012020	260120	141146	102.560	12.331573	-56.820985	102.380	-0.110	-0.660	0.890	102.510	-1.900	1.300																			1580047906.0	11.07	20.50
26/01/2020 14:11:47	26012020	260120	141147	102.330	12.331562	-56.820932	102.250	0.210	-0.980	0.630	102.300	-2.300	1.100																			1580047907.0	11.48	21.26
26/01/2020 14:11:48	26012020	260120	141148	102.260	12.331552	-56.820880	102.290	0.310	-0.780	0.270	102.260	-2.400	0.800																			1580047908.0	11.42	21.15
26/01/2020 14:11:49	26012020	260120	141149	102.330	12.331543	-56.820828	102.400	0.110	-0.080	0.150	102.350	-1.800	0.600																			1580047909.0	10.86	20.11
26/01/2020 14:11:50	26012020	260120	141150	102.450	12.331533	-56.820782	102.510	-0.160	0.470	0.180	102.480	-1.100	0.600																			1580047910.0	10.34	19.15
26/01/2020 14:11:51	26012020	260120	141151	102.560	12.331522	-56.820732	102.570	-0.180	0.330	0.240	102.570	-1.000	0.600																			1580047911.0	10.56	19.56
26/01/2020 14:11:52	26012020	260120	141152	102.590	12.331512	-56.820680	102.540	0.080	-0.320	0.320	102.590	-1.500	0.700																			1580047912.0	11.30	20.93
26/01/2020 14:11:53	26012020	260120	141153	102.550	12.331500	-56.820625	102.480	0.360	-0.770	0.440	102.530	-2.100	0.800																			1580047913.0	11.76	21.78
26/01/2020 14:11:54	26012020	260120	141154	102.490	12.331490	-56.820573	102.460	0.330	-0.530	0.570	102.490	-2.100	0.900																			1580047914.0	11.44	21.19
26/01/2020 14:11:55	26012020	260120	141155	102.460	12.331480	-56.820523	102.410	-0.030	0.050	0.650	102.450	-1.600	1.000																			1580047915.0	10.65	19.72
26/01/2020 14:11:56	26012020	260120	141156	102.430	12.331470	-56.820475	102.380	-0.370	0.290	0.690	102.420	-1.200	1.100																			1580047916.0	10.38	19.22
26/01/2020 14:11:57	26012020	260120	141157	102.370	12.331460	-56.820425	102.290	-0.430	0.020	0.740	102.350	-1.300	1.100																			1580047917.0	10.82	20.04
26/01/2020 14:11:58	26012020	260120	141158	102.290	12.331447	-56.820373	102.240	-0.250	-0.420	0.680	102.270	-1.700	1.100																			1580047918.0	11.34	21.00
26/01/2020 14:11:59	26012020	260120	141159	102.250	12.331435	-56.820320	102.230	-0.040	-0.550	0.500	102.250	-2.000	1.000																			1580047919.0	11.41	21.13
26/01/2020 14:12:00	26012020	260120	141200	102.250	12.331425	-56.820270	102.220	0.070	-0.340	0.290	102.250	-1.900	0.800	1016.60	26.00	26.00	19.60	19.70	807.00	68.00	68.00	374.00	28.80	357.00	10.00	95.00	4.40	58264	3216.00	27.50	27.50	1580047920.0	11.01	20.39
26/01/2020 14:12:01	26012020	260120	141201	102.240	12.331415	-56.820220	102.240	0.120	-0.120	0.120	102.240	-1.600	0.600																			1580047921.0	10.66	19.74
26/01/2020 14:12:02	26012020	260120	141202	102.300	12.331405	-56.820170	102.370	0.180	-0.120	0.060	102.330	-1.500	0.500																			1580047922.0	10.71	19.83
26/01/2020 14:12:03	26012020	260120	141203	102.430	12.331397	-56.820120	102.440	0.290	-0.310	0.150	102.450	-1.600	0.500																			1580047923.0	10.94	20.26
26/01/2020 14:12:04	26012020	260120	141204	102.450	12.331387	-56.820068	102.370	0.400	-0.520	0.350	102.440	-1.900	0.700																			1580047924.0	11.11	20.58
26/01/2020 14:12:05	26012020	260120	141205	102.360	12.331377	-56.820017	102.290	0.400	-0.570	0.600	102.340	-2.000	0.900																			1580047925.0	11.17	20.69
26/01/2020 14:12:06	26012020	260120	141206	102.310	12.331367	-56.819965	102.280	0.210	-0.420	0.780	102.310	-1.900	1.100																			1580047926.0	11.06	20.48
26/01/2020 14:12:07	26012020	260120	141207	102.280	12.331355	-56.819915	102.180	-0.110	-0.230	0.990	102.260	-1.700	1.300																			1580047927.0	10.88	20.15
26/01/2020 14:12:08	26012020	260120	141208	102.150	12.331345	-56.819863	102.030	-0.380	-0.190	1.270	102.120	-1.600	1.600																			1580047928.0	10.93	20.24
26/01/2020 14:12:09	26012020	260120	141209	102.000	12.331332	-56.819812	101.950	-0.470	-0.230	1.250	101.980	-1.600	1.700																			1580047929.0	11.18	20.71
26/01/2020 14:12:10	26012020	260120	141210	101.950	12.331320	-56.819760	101.970	-0.420	-0.160	1.010	101.950	-1.600	1.500																			1580047930.0	11.26	20.85
26/01/2020 14:12:11	26012020	260120	141211	102.010	12.331310	-56.819710	102.120	-0.310	-0.010	0.680	102.040	-1.500	1.200																			1580047931.0	11.10	20.56
26/01/2020 14:12:12	26012020	260120	141212	102.180	12.331298	-56.819658	102.320	-0.200	0.180	0.290	102.230	-1.300	0.800																			1580047932.0	10.95	20.28
26/01/2020 14:12:13	26012020	260120	141213	102.400	12.331290	-56.819608	102.550	-0.120	0.300	0.020	102.450	-1.100	0.500																			1580047933.0	10.77	19.95
26/01/2020 14:12:14	26012020	260120	141214	102.630	12.331280	-56.819558	102.700	0.030	0.070	-0.090	102.670	-1.200	0.300																			1580047934.0	10.72	19.85
26/01/2020 14:12:15	26012020	260120	141215	102.740	12.331272	-56.819507	102.680	0.360	-0.480	0.010	102.730	-1.700	0.300																			1580047935.0	11.03	20.43
26/01/2020 14:12:16	26012020	260120	141216	102.680	12.331262	-56.819455	102.640	0.650	-0.910	0.170	102.670	-2.200	0.500																			1580047936.0	11.37	21.06
26/01/2020 14:12:17	26012020	260120	141217	102.640	12.331253	-56.819402	102.570	0.640	-0.890	0.440	102.630	-2.400	0.700																			1580047937.0	11.21	20.76
26/01/2020 14:12:18	26012020	260120	141218	102.530	12.331242	-56.819352	102.360	0.360	-0.610	0.800	102.490	-2.100	1.100																			1580047938.0	10.80	20.00
26/01/2020 14:12:19	26012020	260120	141219	102.290	12.331232	-56.819303	102.130	0.010	-0.310	1.030	102.240	-1.800	1.400																			1580047939.0	10.71	19.83
26/01/2020 14:12:20	26012020	260120	141220	102.060	12.331220	-56.819253	101.980	-0.250	-0.120	1.010	102.030	-1.600	1.400																			1580047940.0	10.86	20.11
26/01/2020 14:12:21	26012020	260120	141221	101.970	12.331210	-56.819202	102.010	-0.410	-0.000	0.810	101.970	-1.500	1.300																			1580047941.0	11.04	20.45
26/01/2020 14:12:22	26012020	260120	141222	102.040	12.331198	-56.819150	102.130	-0.480	0.060	0.610	102.070	-1.400	1.100																			1580047942.0	11.09	20.54
26/01/2020 14:12:23	26012020	260120	141223	102.180	12.331188	-56.819100	102.240	-0.430	0.070	0.480	102.200	-1.300	0.900																			1580047943.0	11.04	20.45
26/01/2020 14:12:24	26012020	260120	141224	102.270	12.331177	-56.819048	102.300	-0.170	-0.110	0.390	102.280	-1.400	0.800																			1580047944.0	11.06	20.48
26/01/2020 14:12:25	26012020	260120	141225	102.340	12.331167	-56.818997	102.400	0.160	-0.330	0.290	102.350	-1.700	0.700																			1580047945.0	11.25	20.84
26/01/2020 14:12:26	26012020	260120	141226	102.460	12.331157	-56.818943	102.530	0.280	-0.320	0.260	102.480	-1.800	0.700																			1580047946.0	11.23	20.80
26/01/2020 14:12:27	26012020	260120	141227	102.570	12.331148	-56.818893	102.580	0.120	-0.160	0.310	102.590	-1.600	0.700																			1580047947.0	10.86	20.11
26/01/2020 14:12:28	26012020	260120	141228	102.570	12.331138	-56.818843	102.490	-0.090	-0.170	0.620	102.560	-1.500	0.900																			1580047948.0	10.67	19.76
26/01/2020 14:12:29	26012020	260120	141229	102.450	12.331127	-56.818793	102.380	-0.100	-0.440	1.010	102.420	-1.700	1.300																			1580047949.0	10.90	20.19
26/01/2020 14:12:30	26012020	260120	141230	102.350	12.331115	-56.818742	102.300	0.060	-0.730	1.110	102.340	-2.000	1.500																			1580047950.0	11.25	20.84
26/01/2020 14:12:31	26012020	260120	141231	102.280	12.331103	-56.818690	102.210	0.160	-0.670	0.960	102.260	-2.200	1.400																			1580047951.0	11.34	21.00
26/01/2020 14:12:32	26012020	260120	141232	102.200	12.331093	-56.818638	102.160	0.030	-0.130	0.720	102.180	-1.800	1.200																			1580047952.0	10.96	20.30
26/01/2020 14:12:33	26012020	260120	141233	102.180	12.331083	-56.818590	102.210	-0.170	0.370	0.400	102.200	-1.200	0.900																			1580047953.0	10.43	19.32
26/01/2020 14:12:34	26012020	260120	141234	102.270	12.331075	-56.818542	102.280	-0.150	0.240	0.130	102.280	-1.100	0.600																			1580047954.0	10.55	19.54
26/01/2020 14:12:35	26012020	260120	141235	102.340	12.331067	-56.818488	102.400	0.130	-0.360	-0.010	102.350	-1.500	0.400																			1580047955.0	11.26	20.85
26/01/2020 14:12:36	26012020	260120	141236	102.460	12.331057	-56.818435	102.560	0.370	-0.690	0.050	102.500	-2.100	0.400																			1580047956.0	11.67	21.61
26/01/2020 14:12:37	26012020	260120	141237	102.620	12.331047	-56.818382	102.680	0.280	-0.410	0.370	102.640	-2.000	0.600																			1580047957.0	11.25	20.84
26/01/2020 14:12:38	26012020	260120	141238	102.700	12.331037	-56.818333	102.690	-0.090	0.050	0.650	102.710	-1.500	0.900																			1580047958.0	10.51	19.46
26/01/2020 14:12:39	26012020	260120	141239	102.670	12.331027	-56.818285	102.620	-0.300	-0.060	0.790	102.660	-1.300	1.100																			1580047959.0	10.43	19.32
26/01/2020 14:12:40	26012020	260120	141240	102.580	12.331015	-56.818233	102.540	-0.140	-0.650	0.760	102.560	-1.900	1.200																			1580047960.0	11.21	20.76
26/01/2020 14:12:41	26012020	260120	141241	102.520	12.331003	-56.818180	102.530	-0.000	-0.700	0.570	102.510	-2.200	1.000																			1580047961.0	11.71	21.69
26/01/2020 14:12:42	26012020	260120	141242	102.510	12.330993	-56.818128	102.550	-0.190	-0.120	0.370	102.520	-1.800	0.800																			1580047962.0	10.97	20.32
26/01/2020 14:12:43	26012020	260120	141243	102.560	12.330983	-56.818082	102.590	-0.420	0.300	0.290	102.560	-1.200	0.700																			1580047963.0	10.27	19.02
26/01/2020 14:12:44	26012020	260120	141244	102.590	12.330973	-56.818032	102.620	-0.360	0.080	0.240	102.600	-1.200	0.700																			1580047964.0	10.58	19.59
26/01/2020 14:12:45	26012020	260120	141245	102.630	12.330963	-56.817980	102.650	-0.040	-0.400	0.130	102.640	-1.600	0.600																			1580047965.0	11.29	20.91
26/01/2020 14:12:46	26012020	260120	141246	102.650	12.330952	-56.817927	102.610	0.290	-0.590	0.180	102.650	-2.000	0.500																			1580047966.0	11.46	21.22
26/01/2020 14:12:47	26012020	260120	141247	102.590	12.330942	-56.817875	102.550	0.450	-0.400	0.330	102.570	-1.900	0.700																			1580047967.0	11.06	20.48
26/01/2020 14:12:48	26012020	260120	141248	102.560	12.330932	-56.817827	102.640	0.450	-0.130	0.360	102.580	-1.600	0.800																			1580047968.0	10.72	19.85
26/01/2020 14:12:49	26012020	260120	141249	102.680	12.330923	-56.817777	102.740	0.280	0.020	0.340	102.710	-1.400	0.700																			1580047969.0	10.68	19.78
26/01/2020 14:12:50	26012020	260120	141250	102.770	12.330915	-56.817727	102.730	0.040	-0.040	0.390	102.770	-1.400	0.700																			1580047970.0	10.79	19.98
26/01/2020 14:12:51	26012020	260120	141251	102.730	12.330905	-56.817675	102.690	-0.130	-0.330	0.630	102.720	-1.600	0.900																			1580047971.0	10.98	20.33
26/01/2020 14:12:52	26012020	260120	141252	102.690	12.330893	-56.817623	102.680	-0.170	-0.600	0.830	102.690	-1.900	1.200																			1580047972.0	11.23	20.80
26/01/2020 14:12:53	26012020	260120	141253	102.680	12.330880	-56.817572	102.640	-0.170	-0.570	0.800	102.670	-2.000	1.200																			1580047973.0	11.22	20.78
26/01/2020 14:12:54	26012020	260120	141254	102.610	12.330870	-56.817522	102.540	-0.220	-0.330	0.570	102.590	-1.800	1.000																			1580047974.0	10.93	20.24
26/01/2020 14:12:55	26012020	260120	141255	102.530	12.330860	-56.817472	102.490	-0.290	-0.100	0.420	102.510	-1.600	0.900																			1580047975.0	10.78	19.96
26/01/2020 14:12:56	26012020	260120	141256	102.500	12.330850	-56.817422	102.500	-0.260	-0.040	0.280	102.500	-1.500	0.700																			1580047976.0	10.81	20.02
26/01/2020 14:12:57	26012020	260120	141257	102.510	12.330840	-56.817370	102.520	-0.110	-0.140	0.110	102.520	-1.500	0.500																			1580047977.0	11.00	20.37
26/01/2020 14:12:58	26012020	260120	141258	102.530	12.330830	-56.817318	102.530	0.040	-0.220	0.140	102.540	-1.600	0.500																			1580047978.0	11.14	20.63
26/01/2020 14:12:59	26012020	260120	141259	102.560	12.330820	-56.817267	102.610	0.120	-0.250	0.310	102.570	-1.600	0.600																			1580047979.0	11.05	20.46
26/01/2020 14:13:00	26012020	260120	141300	102.650	12.330810	-56.817217	102.700	0.190	-0.380	0.470	102.670	-1.700	0.800	1016.60	26.00	26.00	19.20	19.30	822.00	66.00	66.00	374.00	28.80	357.00	10.00	95.00	4.30	58912	3141.00	27.50	27.50	1580047980.0	10.98	20.33
26/01/2020 14:13:01	26012020	260120	141301	102.730	12.330798	-56.817165	102.710	0.270	-0.450	0.720	102.730	-1.900	1.000																			1580047981.0	11.15	20.65
26/01/2020 14:13:02	26012020	260120	141302	102.710	12.330787	-56.817113	102.680	0.260	-0.240	0.940	102.700	-1.800	1.300																			1580047982.0	11.06	20.48
26/01/2020 14:13:03	26012020	260120	141303	102.700	12.330777	-56.817065	102.680	0.120	0.080	0.840	102.700	-1.400	1.300																			1580047983.0	10.75	19.91
26/01/2020 14:13:04	26012020	260120	141304	102.720	12.330767	-56.817015	102.750	-0.010	0.100	0.440	102.730	-1.300	1.000																			1580047984.0	10.64	19.71
26/01/2020 14:13:05	26012020	260120	141305	102.820	12.330760	-56.816963	102.890	-0.010	-0.260	0.130	102.840	-1.500	0.600																			1580047985.0	11.02	20.41
26/01/2020 14:13:06	26012020	260120	141306	102.970	12.330750	-56.816910	103.100	0.040	-0.530	0.100	103.010	-1.900	0.500																			1580047986.0	11.38	21.08
26/01/2020 14:13:07	26012020	260120	141307	103.180	12.330738	-56.816858	103.230	-0.030	-0.450	0.240	103.220	-1.900	0.600																			1580047987.0	11.16	20.67
26/01/2020 14:13:08	26012020	260120	141308	103.240	12.330727	-56.816810	103.150	-0.200	-0.170	0.520	103.230	-1.700	0.800																			1580047988.0	10.74	19.89
26/01/2020 14:13:09	26012020	260120	141309	103.110	12.330715	-56.816762	102.990	-0.280	-0.150	0.660	103.070	-1.500	1.000																			1580047989.0	10.60	19.63
26/01/2020 14:13:10	26012020	260120	141310	102.990	12.330703	-56.816710	102.960	-0.120	-0.490	0.460	102.980	-1.800	0.900																			1580047990.0	10.98	20.33
26/01/2020 14:13:11	26012020	260120	141311	102.990	12.330695	-56.816657	102.990	0.120	-0.720	0.230	102.990	-2.100	0.700																			1580047991.0	11.43	21.17
26/01/2020 14:13:12	26012020	260120	141312	103.000	12.330685	-56.816605	102.960	0.180	-0.530	0.190	103.000	-2.100	0.600																			1580047992.0	11.32	20.96
26/01/2020 14:13:13	26012020	260120	141313	102.970	12.330675	-56.816553	102.920	0.010	-0.080	0.270	102.960	-1.700	0.600																			1580047993.0	10.88	20.15
26/01/2020 14:13:14	26012020	260120	141314	102.920	12.330663	-56.816505	102.890	-0.210	0.250	0.430	102.910	-1.300	0.800																			1580047994.0	10.65	19.72
26/01/2020 14:13:15	26012020	260120	141315	102.900	12.330653	-56.816455	102.900	-0.250	0.170	0.550	102.910	-1.200	0.900																			1580047995.0	10.78	19.96
26/01/2020 14:13:16	26012020	260120	141316	102.920	12.330642	-56.816403	102.900	-0.020	-0.290	0.640	102.930	-1.500	1.000																			1580047996.0	11.22	20.78
26/01/2020 14:13:17	26012020	260120	141317	102.930	12.330628	-56.816350	102.930	0.270	-0.550	0.640	102.930	-1.900	1.100																			1580047997.0	11.59	21.46
26/01/2020 14:13:18	26012020	260120	141318	102.970	12.330618	-56.816298	103.050	0.260	-0.280	0.460	102.990	-1.900	0.900																			1580047998.0	11.26	20.85
26/01/2020 14:13:19	26012020	260120	141319	103.130	12.330610	-56.816248	103.250	-0.000	0.100	0.170	103.170	-1.400	0.700																			1580047999.0	10.60	19.63
26/01/2020 14:13:20	26012020	260120	141320	103.330	12.330600	-56.816200	103.400	-0.160	0.080	0.040	103.370	-1.300	0.400																			1580048000.0	10.50	19.45
26/01/2020 14:13:21	26012020	260120	141321	103.430	12.330590	-56.816150	103.410	-0.110	-0.190	0.160	103.430	-1.500	0.500																			1580048001.0	10.96	20.30
26/01/2020 14:13:22	26012020	260120	141322	103.420	12.330578	-56.816098	103.410	-0.040	-0.340	0.290	103.420	-1.700	0.600																			1580048002.0	11.11	20.58
26/01/2020 14:13:23	26012020	260120	141323	103.400	12.330567	-56.816048	103.340	0.030	-0.560	0.360	103.390	-1.900	0.700																			1580048003.0	10.92	20.22
26/01/2020 14:13:24	26012020	260120	141324	103.320	12.330555	-56.815997	103.240	0.120	-0.790	0.420	103.300	-2.100	0.800																			1580048004.0	11.12	20.59
26/01/2020 14:13:25	26012020	260120	141325	103.230	12.330545	-56.815945	103.220	0.110	-0.660	0.420	103.220	-2.200	0.800																			1580048005.0	11.20	20.74
26/01/2020 14:13:26	26012020	260120	141326	103.220	12.330533	-56.815895	103.210	0.000	-0.250	0.390	103.230	-1.800	0.800																			1580048006.0	10.87	20.13
26/01/2020 14:13:27	26012020	260120	141327	103.200	12.330522	-56.815845	103.110	-0.030	0.000	0.290	103.170	-1.500	0.700																			1580048007.0	10.65	19.72
26/01/2020 14:13:28	26012020	260120	141328	103.070	12.330512	-56.815795	103.020	0.090	-0.140	0.060	103.050	-1.500	0.500																			1580048008.0	10.98	20.33
26/01/2020 14:13:29	26012020	260120	141329	103.020	12.330503	-56.815742	103.060	0.220	-0.330	-0.100	103.040	-1.700	0.300																			1580048009.0	11.45	21.21
26/01/2020 14:13:30	26012020	260120	141330	103.100	12.330492	-56.815688	103.150	0.160	-0.160	-0.080	103.110	-1.700	0.300																			1580048010.0	11.36	21.04
26/01/2020 14:13:31	26012020	260120	141331	103.190	12.330482	-56.815638	103.240	-0.060	0.130	0.120	103.210	-1.400	0.400																			1580048011.0	10.86	20.11
26/01/2020 14:13:32	26012020	260120	141332	103.270	12.330470	-56.815588	103.360	-0.240	0.110	0.410	103.290	-1.300	0.700																			1580048012.0	10.74	19.89
26/01/2020 14:13:33	26012020	260120	141333	103.390	12.330457	-56.815538	103.460	-0.290	-0.130	0.630	103.410	-1.400	0.900																			1580048013.0	11.00	20.37
26/01/2020 14:13:34	26012020	260120	141334	103.460	12.330443	-56.815488	103.430	-0.250	-0.340	0.870	103.460	-1.700	1.200																			1580048014.0	11.16	20.67
26/01/2020 14:13:35	26012020	260120	141335	103.390	12.330430	-56.815437	103.350	-0.250	-0.290	0.970	103.380	-1.700	1.400																			1580048015.0	11.04	20.45
26/01/2020 14:13:36	26012020	260120	141336	103.330	12.330418	-56.815388	103.310	-0.210	-0.300	0.760	103.330	-1.700	1.300																			1580048016.0	10.72	19.85
26/01/2020 14:13:37	26012020	260120	141337	103.290	12.330407	-56.815338	103.280	0.050	-0.580	0.380	103.290	-1.900	0.900																			1580048017.0	10.89	20.17
26/01/2020 14:13:38	26012020	260120	141338	103.290	12.330397	-56.815285	103.250	0.400	-0.730	0.090	103.290	-2.100	0.600																			1580048018.0	11.30	20.93
26/01/2020 14:13:39	26012020	260120	141339	103.250	12.330388	-56.815233	103.170	0.520	-0.450	-0.010	103.230	-2.000	0.400																			1580048019.0	11.19	20.72
26/01/2020 14:13:40	26012020	260120	141340	103.160	12.330378	-56.815183	103.110	0.360	0.020	0.100	103.150	-1.500	0.400																			1580048020.0	10.70	19.82
26/01/2020 14:13:41	26012020	260120	141341	103.120	12.330368	-56.815135	103.100	0.210	0.100	0.280	103.110	-1.300	0.600																			1580048021.0	10.56	19.56
26/01/2020 14:13:42	26012020	260120	141342	103.120	12.330358	-56.815083	103.110	0.240	-0.290	0.370	103.120	-1.500	0.700																			1580048022.0	11.09	20.54
26/01/2020 14:13:43	26012020	260120	141343	103.120	12.330347	-56.815030	103.070	0.240	-0.560	0.510	103.110	-1.900	0.800																			1580048023.0	11.59	21.46
26/01/2020 14:13:44	26012020	260120	141344	103.060	12.330335	-56.814978	103.000	-0.000	-0.260	0.740	103.040	-1.800	1.000																			1580048024.0	11.32	20.96
26/01/2020 14:13:45	26012020	260120	141345	103.010	12.330323	-56.814928	103.040	-0.410	0.220	0.850	103.020	-1.300	1.200																			1580048025.0	10.61	19.65
26/01/2020 14:13:46	26012020	260120	141346	103.060	12.330312	-56.814882	103.120	-0.640	0.210	0.730	103.070	-1.100	1.200																			1580048026.0	10.45	19.35
26/01/2020 14:13:47	26012020	260120	141347	103.160	12.330300	-56.814830	103.110	-0.520	-0.300	0.550	103.160	-1.500	1.000																			1580048027.0	11.04	20.45
26/01/2020 14:13:48	26012020	260120	141348	103.110	12.330287	-56.814777	102.970	-0.190	-0.740	0.470	103.080	-2.000	0.900																			1580048028.0	11.53	21.35
26/01/2020 14:13:49	26012020	260120	141349	102.950	12.330275	-56.814725	102.850	0.040	-0.650	0.480	102.920	-2.200	0.900																			1580048029.0	11.40	21.11
26/01/2020 14:13:50	26012020	260120	141350	102.870	12.330263	-56.814675	102.880	-0.010	-0.110	0.330	102.870	-1.700	0.800																			1580048030.0	10.77	19.95
26/01/2020 14:13:51	26012020	260120	141351	102.940	12.330253	-56.814627	102.990	-0.120	0.190	0.030	102.960	-1.300	0.500																			1580048031.0	10.32	19.11
26/01/2020 14:13:52	26012020	260120	141352	103.040	12.330245	-56.814578	103.000	0.060	-0.170	-0.100	103.040	-1.400	0.300																			1580048032.0	10.70	19.82
26/01/2020 14:13:53	26012020	260120	141353	103.010	12.330233	-56.814525	102.910	0.470	-0.720	0.060	103.000	-2.000	0.400																			1580048033.0	11.47	21.24
26/01/2020 14:13:54	26012020	260120	141354	102.920	12.330222	-56.814472	102.830	0.710	-0.730	0.250	102.890	-2.200	0.600																			1580048034.0	11.62	21.52
26/01/2020 14:13:55	26012020	260120	141355	102.840	12.330212	-56.814420	102.790	0.490	-0.090	0.380	102.830	-1.800	0.700																			1580048035.0	10.96	20.30
26/01/2020 14:13:56	26012020	260120	141356	102.790	12.330202	-56.814372	102.750	-0.010	0.480	0.450	102.790	-1.100	0.800																			1580048036.0	10.28	19.04
26/01/2020 14:13:57	26012020	260120	141357	102.760	12.330193	-56.814325	102.710	-0.350	0.340	0.420	102.750	-0.900	0.800																			1580048037.0	10.40	19.26
26/01/2020 14:13:58	26012020	260120	141358	102.710	12.330182	-56.814272	102.640	-0.270	-0.440	0.520	102.690	-1.500	0.900																			1580048038.0	11.20	20.74
26/01/2020 14:13:59	26012020	260120	141359	102.610	12.330170	-56.814218	102.540	-0.010	-1.040	0.660	102.590	-2.300	1.000																			1580048039.0	11.84	21.93
26/01/2020 14:14:00	26012020	260120	141400	102.510	12.330157	-56.814165	102.450	0.030	-0.810	0.750	102.490	-2.400	1.100	1016.60	26.00	26.00	19.20	19.30	814.00	66.00	66.00	373.00	28.80	357.00	10.20	96.00	4.50	58670	3305.00	27.50	27.50	1580048040.0	11.56	21.41
26/01/2020 14:14:01	26012020	260120	141401	102.400	12.330143	-56.814117	102.380	-0.230	-0.030	0.710	102.380	-1.700	1.100																			1580048041.0	10.63	19.69
26/01/2020 14:14:02	26012020	260120	141402	102.370	12.330133	-56.814070	102.460	-0.470	0.450	0.460	102.390	-1.100	0.900																			1580048042.0	10.12	18.74
26/01/2020 14:14:03	26012020	260120	141403	102.500	12.330123	-56.814020	102.610	-0.390	0.200	0.200	102.530	-1.000	0.700																			1580048043.0	10.54	19.52
26/01/2020 14:14:04	26012020	260120	141404	102.650	12.330113	-56.813968	102.680	-0.030	-0.400	0.120	102.670	-1.600	0.500																			1580048044.0	11.28	20.89
26/01/2020 14:14:05	26012020	260120	141405	102.670	12.330102	-56.813915	102.590	0.340	-0.750	0.240	102.660	-2.100	0.600																			1580048045.0	11.57	21.43
26/01/2020 14:14:06	26012020	260120	141406	102.560	12.330090	-56.813863	102.510	0.440	-0.540	0.440	102.540	-2.100	0.800																			1580048046.0	11.22	20.78
26/01/2020 14:14:07	26012020	260120	141407	102.520	12.330078	-56.813815	102.570	0.280	-0.120	0.490	102.530	-1.700	0.900																			1580048047.0	10.63	19.69
26/01/2020 14:14:08	26012020	260120	141408	102.600	12.330070	-56.813765	102.580	0.100	0.050	0.360	102.600	-1.400	0.800																			1580048048.0	10.47	19.39
26/01/2020 14:14:09	26012020	260120	141409	102.570	12.330062	-56.813715	102.490	0.060	-0.140	0.190	102.550	-1.500	0.600																			1580048049.0	10.84	20.08
26/01/2020 14:14:10	26012020	260120	141410	102.470	12.330052	-56.813663	102.420	0.100	-0.370	0.260	102.450	-1.700	0.600																			1580048050.0	11.23	20.80
26/01/2020 14:14:11	26012020	260120	141411	102.430	12.330040	-56.813612	102.440	0.060	-0.350	0.490	102.430	-1.800	0.800																			1580048051.0	11.22	20.78
26/01/2020 14:14:12	26012020	260120	141412	102.440	12.330028	-56.813562	102.410	-0.110	-0.250	0.630	102.440	-1.700	1.000																			1580048052.0	10.89	20.17
26/01/2020 14:14:13	26012020	260120	141413	102.390	12.330017	-56.813512	102.320	-0.210	-0.330	0.820	102.370	-1.700	1.100																			1580048053.0	10.87	20.13
26/01/2020 14:14:14	26012020	260120	141414	102.280	12.330005	-56.813460	102.250	-0.150	-0.390	0.990	102.270	-1.800	1.300																			1580048054.0	11.14	20.63
26/01/2020 14:14:15	26012020	260120	141415	102.250	12.329993	-56.813408	102.260	-0.040	-0.310	0.960	102.260	-1.800	1.400																			1580048055.0	11.10	20.56
26/01/2020 14:14:16	26012020	260120	141416	102.260	12.329982	-56.813358	102.190	-0.010	-0.180	0.920	102.240	-1.700	1.300																			1580048056.0	10.97	20.32
26/01/2020 14:14:17	26012020	260120	141417	102.160	12.329970	-56.813308	102.100	-0.110	0.030	0.800	102.150	-1.500	1.300																			1580048057.0	10.89	20.17
26/01/2020 14:14:18	26012020	260120	141418	102.110	12.329962	-56.813258	102.130	-0.210	0.060	0.500	102.110	-1.300	1.000																			1580048058.0	10.73	19.87
26/01/2020 14:14:19	26012020	260120	141419	102.180	12.329952	-56.813207	102.210	-0.140	-0.190	0.280	102.200	-1.500	0.700																			1580048059.0	10.93	20.24
26/01/2020 14:14:20	26012020	260120	141420	102.250	12.329942	-56.813155	102.180	0.060	-0.440	0.230	102.250	-1.800	0.600																			1580048060.0	11.18	20.71
26/01/2020 14:14:21	26012020	260120	141421	102.180	12.329932	-56.813103	102.050	0.270	-0.500	0.330	102.160	-1.900	0.700																			1580048061.0	11.16	20.67
26/01/2020 14:14:22	26012020	260120	141422	102.030	12.329920	-56.813053	101.930	0.310	-0.310	0.540	102.000	-1.800	0.900																			1580048062.0	10.97	20.32
26/01/2020 14:14:23	26012020	260120	141423	101.940	12.329910	-56.813003	101.920	0.170	-0.060	0.500	101.930	-1.500	0.900																			1580048063.0	10.69	19.80
26/01/2020 14:14:24	26012020	260120	141424	101.950	12.329902	-56.812953	101.990	0.020	-0.110	0.360	101.960	-1.500	0.800																			1580048064.0	10.68	19.78
26/01/2020 14:14:25	26012020	260120	141425	102.030	12.329893	-56.812902	102.010	0.040	-0.440	0.440	102.030	-1.700	0.800																			1580048065.0	11.06	20.48
26/01/2020 14:14:26	26012020	260120	141426	102.010	12.329882	-56.812850	101.890	0.100	-0.650	0.670	101.990	-2.000	1.000																			1580048066.0	11.40	21.11
26/01/2020 14:14:27	26012020	260120	141427	101.850	12.329870	-56.812798	101.800	0.010	-0.440	0.800	101.830	-2.000	1.200																			1580048067.0	11.24	20.82
26/01/2020 14:14:28	26012020	260120	141428	101.780	12.329860	-56.812748	101.810	-0.240	-0.010	0.790	101.780	-1.600	1.200																			1580048068.0	10.77	19.95
26/01/2020 14:14:29	26012020	260120	141429	101.790	12.329848	-56.812700	101.820	-0.400	0.160	0.720	101.800	-1.300	1.100																			1580048069.0	10.54	19.52
26/01/2020 14:14:30	26012020	260120	141430	101.790	12.329838	-56.812648	101.780	-0.260	-0.200	0.580	101.790	-1.400	1.000																			1580048070.0	10.91	20.21
26/01/2020 14:14:31	26012020	260120	141431	101.750	12.329827	-56.812595	101.700	0.090	-0.620	0.470	101.740	-1.900	0.900																			1580048071.0	11.52	21.34
26/01/2020 14:14:32	26012020	260120	141432	101.670	12.329817	-56.812542	101.640	0.230	-0.450	0.400	101.660	-2.000	0.800																			1580048072.0	11.49	21.28
26/01/2020 14:14:33	26012020	260120	141433	101.630	12.329808	-56.812492	101.680	0.000	0.140	0.250	101.640	-1.500	0.700																			1580048073.0	10.72	19.85
26/01/2020 14:14:34	26012020	260120	141434	101.720	12.329800	-56.812445	101.850	-0.330	0.460	0.190	101.760	-1.000	0.600																			1580048074.0	10.25	18.98
26/01/2020 14:14:35	26012020	260120	141435	101.910	12.329790	-56.812395	102.030	-0.380	0.070	0.320	101.950	-1.100	0.700																			1580048075.0	10.55	19.54
26/01/2020 14:14:36	26012020	260120	141436	102.060	12.329778	-56.812343	102.050	0.000	-0.730	0.500	102.070	-1.800	0.800																			1580048076.0	11.32	20.96
26/01/2020 14:14:37	26012020	260120	141437	102.010	12.329767	-56.812288	101.900	0.450	-1.050	0.700	101.980	-2.400	1.000																			1580048077.0	11.77	21.80
26/01/2020 14:14:38	26012020	260120	141438	101.860	12.329755	-56.812238	101.800	0.530	-0.520	0.730	101.830	-2.200	1.100																			1580048078.0	11.15	20.65
26/01/2020 14:14:39	26012020	260120	141439	101.770	12.329747	-56.812190	101.750	0.280	0.030	0.600	101.760	-1.500	1.100																			1580048079.0	10.28	19.04
26/01/2020 14:14:40	26012020	260120	141440	101.740	12.329740	-56.812140	101.710	0.010	0.010	0.470	101.730	-1.300	0.900																			1580048080.0	10.51	19.46
26/01/2020 14:14:41	26012020	260120	141441	101.720	12.329730	-56.812088	101.750	-0.210	-0.230	0.360	101.730	-1.600	0.800																			1580048081.0	11.18	20.71
26/01/2020 14:14:42	26012020	260120	141442	101.770	12.329720	-56.812037	101.800	-0.350	-0.250	0.430	101.780	-1.700	0.800																			1580048082.0	11.24	20.82
26/01/2020 14:14:43	26012020	260120	141443	101.810	12.329708	-56.811987	101.760	-0.350	-0.210	0.640	101.800	-1.600	0.900																			1580048083.0	10.94	20.26
26/01/2020 14:14:44	26012020	260120	141444	101.730	12.329697	-56.811935	101.630	-0.200	-0.350	0.830	101.700	-1.700	1.200																			1580048084.0	10.96	20.30
26/01/2020 14:14:45	26012020	260120	141445	101.600	12.329683	-56.811885	101.500	-0.070	-0.420	0.970	101.570	-1.800	1.300																			1580048085.0	11.23	20.80
26/01/2020 14:14:46	26012020	260120	141446	101.460	12.329672	-56.811833	101.420	-0.050	-0.130	0.910	101.440	-1.700	1.400																			1580048086.0	11.04	20.45
26/01/2020 14:14:47	26012020	260120	141447	101.410	12.329663	-56.811783	101.440	-0.080	0.220	0.500	101.420	-1.300	1.100																			1580048087.0	10.59	19.61
26/01/2020 14:14:48	26012020	260120	141448	101.450	12.329657	-56.811735	101.510	-0.010	0.130	0.110	101.460	-1.200	0.600																			1580048088.0	10.56	19.56
26/01/2020 14:14:49	26012020	260120	141449	101.540	12.329648	-56.811683	101.550	0.260	-0.430	0.080	101.560	-1.600	0.400																			1580048089.0	11.07	20.50
26/01/2020 14:14:50	26012020	260120	141450	101.570	12.329638	-56.811628	101.550	0.460	-0.780	0.380	101.570	-2.100	0.600																			1580048090.0	11.56	21.41
26/01/2020 14:14:51	26012020	260120	141451	101.540	12.329628	-56.811577	101.500	0.300	-0.480	0.730	101.530	-2.100	1.000																			1580048091.0	11.21	20.76
26/01/2020 14:14:52	26012020	260120	141452	101.460	12.329617	-56.811528	101.430	-0.050	0.010	0.880	101.450	-1.600	1.300																			1580048092.0	10.45	19.35
26/01/2020 14:14:53	26012020	260120	141452	101.410	12.329608	-56.811482	101.430	-0.170	0.010	0.770	101.410	-1.300	1.200																			1580048092.0	10.39	19.24
26/01/2020 14:14:54	26012020	260120	141453	101.440	12.329598	-56.811430	101.510	0.010	-0.410	0.620	101.460	-1.600	1.100																			1580048093.0	11.06	20.48
26/01/2020 14:14:55	26012020	260120	141455	101.540	12.329588	-56.811377	101.610	0.100	-0.540	0.530	101.560	-2.000	0.900																			1580048095.0	11.49	21.28
26/01/2020 14:14:56	26012020	260120	141456	101.630	12.329580	-56.811325	101.630	-0.120	-0.120	0.570	101.640	-1.700	0.900																			1580048096.0	10.99	20.35
26/01/2020 14:14:57	26012020	260120	141457	101.620	12.329568	-56.811277	101.550	-0.420	0.170	0.750	101.610	-1.300	1.100																			1580048097.0	10.33	19.13
26/01/2020 14:14:58	26012020	260120	141458	101.530	12.329558	-56.811228	101.490	-0.390	-0.280	0.800	101.520	-1.400	1.200																			1580048098.0	10.66	19.74
26/01/2020 14:14:59	26012020	260120	141459	101.500	12.329548	-56.811175	101.460	-0.090	-0.780	0.790	101.500	-2.100	1.200																			1580048099.0	11.52	21.34
26/01/2020 14:15:00	26012020	260120	141500	101.480	12.329537	-56.811122	101.420	0.120	-0.600	0.770	101.470	-2.200	1.200	1016.60	26.00	26.00	19.20	19.30	816.00	66.00	66.00	373.00	28.80	353.00	10.20	87.00	4.60	58847	2992.00	27.50	27.50	1580048100.0	11.46	21.22
26/01/2020 14:15:01	26012020	260120	141501	101.420	12.329527	-56.811072	101.370	0.090	0.030	0.640	101.400	-1.600	1.100																			1580048101.0	10.67	19.76
26/01/2020 14:15:02	26012020	260120	141502	101.390	12.329518	-56.811023	101.390	0.010	0.270	0.450	101.390	-1.100	0.900																			1580048102.0	10.29	19.06
26/01/2020 14:15:03	26012020	260120	141503	101.430	12.329512	-56.810973	101.500	0.050	-0.070	0.310	101.450	-1.300	0.800																			1580048103.0	10.85	20.09
26/01/2020 14:15:04	26012020	260120	141504	101.570	12.329502	-56.810920	101.690	0.130	-0.310	0.150	101.610	-1.700	0.600																			1580048104.0	11.37	21.06
26/01/2020 14:15:05	26012020	260120	141505	101.790	12.329493	-56.810868	101.910	0.160	-0.170	0.040	101.830	-1.700	0.500																			1580048105.0	11.07	20.50
26/01/2020 14:15:06	26012020	260120	141506	101.980	12.329483	-56.810820	102.070	0.130	0.010	0.070	102.010	-1.400	0.400																			1580048106.0	10.61	19.65
26/01/2020 14:15:07	26012020	260120	141507	102.110	12.329475	-56.810770	102.140	0.130	-0.120	0.210	102.130	-1.400	0.500																			1580048107.0	10.57	19.58
26/01/2020 14:15:08	26012020	260120	141508	102.160	12.329465	-56.810720	102.100	0.230	-0.600	0.460	102.160	-1.800	0.700																			1580048108.0	10.94	20.26
26/01/2020 14:15:09	26012020	260120	141509	102.070	12.329455	-56.810667	101.980	0.290	-0.880	0.720	102.040	-2.200	1.000																			1580048109.0	11.37	21.06
26/01/2020 14:15:10	26012020	260120	141510	101.960	12.329443	-56.810615	101.980	0.050	-0.560	0.810	101.960	-2.100	1.200																			1580048110.0	11.13	20.61
26/01/2020 14:15:11	26012020	260120	141511	102.000	12.329435	-56.810567	102.070	-0.390	-0.050	0.760	102.010	-1.600	1.200																			1580048111.0	10.48	19.41
26/01/2020 14:15:12	26012020	260120	141512	102.070	12.329423	-56.810518	102.070	-0.630	0.000	0.710	102.070	-1.400	1.100																			1580048112.0	10.42	19.30
26/01/2020 14:15:13	26012020	260120	141513	102.030	12.329412	-56.810468	101.910	-0.440	-0.430	0.770	102.000	-1.700	1.100																			1580048113.0	11.07	20.50
26/01/2020 14:15:14	26012020	260120	141514	101.840	12.329398	-56.810413	101.740	-0.040	-0.740	0.730	101.840	-2.100	1.200																			1580048114.0	11.67	21.61
26/01/2020 14:15:15	26012020	260120	141515	101.700	12.329388	-56.810360	101.720	0.200	-0.380	0.440	101.700	-2.000	1.000																			1580048115.0	11.47	21.24
26/01/2020 14:15:16	26012020	260120	141516	101.720	12.329380	-56.810312	101.870	0.130	0.390	0.120	101.750	-1.300	0.600																			1580048116.0	10.67	19.76
26/01/2020 14:15:17	26012020	260120	141517	101.940	12.329373	-56.810263	102.120	-0.030	0.800	-0.120	101.990	-0.700	0.400																			1580048117.0	10.22	18.93
26/01/2020 14:15:18	26012020	260120	141518	102.240	12.329365	-56.810213	102.460	-0.030	0.490	-0.170	102.310	-0.700	0.200																			1580048118.0	10.53	19.50
26/01/2020 14:15:19	26012020	260120	141519	102.570	12.329355	-56.810162	102.730	0.140	-0.250	0.070	102.630	-1.400	0.400																			1580048119.0	11.17	20.69
26/01/2020 14:15:20	26012020	260120	141520	102.780	12.329343	-56.810110	102.810	0.270	-0.830	0.400	102.810	-2.100	0.700																			1580048120.0	11.42	21.15
26/01/2020 14:15:21	26012020	260120	141521	102.820	12.329332	-56.810058	102.770	0.240	-0.930	0.710	102.810	-2.400	1.000																			1580048121.0	11.13	20.61
26/01/2020 14:15:22	26012020	260120	141522	102.750	12.329320	-56.810008	102.720	0.140	-0.670	0.840	102.740	-2.200	1.200																			1580048122.0	10.67	19.76
26/01/2020 14:15:23	26012020	260120	141523	102.710	12.329310	-56.809960	102.680	0.080	-0.480	0.680	102.700	-1.900	1.200																			1580048123.0	10.50	19.45
26/01/2020 14:15:24	26012020	260120	141524	102.670	12.329302	-56.809910	102.580	0.050	-0.460	0.480	102.660	-1.900	0.900																			1580048124.0	10.82	20.04
26/01/2020 14:15:25	26012020	260120	141525	102.560	12.329292	-56.809858	102.450	-0.090	-0.360	0.460	102.530	-1.800	0.800																			1580048125.0	11.08	20.52
26/01/2020 14:15:26	26012020	260120	141526	102.430	12.329280	-56.809808	102.350	-0.270	-0.140	0.520	102.400	-1.600	0.900																			1580048126.0	10.99	20.35
26/01/2020 14:15:27	26012020	260120	141527	102.330	12.329270	-56.809758	102.280	-0.340	-0.020	0.570	102.320	-1.400	0.900																			1580048127.0	10.90	20.19
26/01/2020 14:15:28	26012020	260120	141528	102.270	12.329258	-56.809707	102.320	-0.230	-0.120	0.640	102.270	-1.500	1.000																			1580048128.0	11.09	20.54
26/01/2020 14:15:29	26012020	260120	141529	102.360	12.329247	-56.809655	102.540	-0.060	-0.130	0.610	102.400	-1.600	1.000																			1580048129.0	11.28	20.89
26/01/2020 14:15:30	26012020	260120	141530	102.620	12.329235	-56.809603	102.850	0.030	0.120	0.480	102.680	-1.400	0.900																			1580048130.0	11.03	20.43
26/01/2020 14:15:31	26012020	260120	141531	102.940	12.329225	-56.809555	103.060	0.010	0.340	0.430	102.990	-1.100	0.800																			1580048131.0	10.62	19.67
26/01/2020 14:15:32	26012020	260120	141532	103.100	12.329215	-56.809505	103.070	0.030	0.080	0.490	103.110	-1.200	0.900																			1580048132.0	10.59	19.61
26/01/2020 14:15:33	26012020	260120	141533	103.060	12.329205	-56.809453	102.980	0.220	-0.560	0.540	103.040	-1.700	0.900																			1580048133.0	11.10	20.56
26/01/2020 14:15:34	26012020	260120	141534	102.990	12.329193	-56.809402	102.970	0.380	-0.830	0.580	102.980	-2.200	1.000																			1580048134.0	11.45	21.21
26/01/2020 14:15:35	26012020	260120	141535	103.000	12.329183	-56.809350	102.950	0.290	-0.530	0.630	103.000	-2.100	1.000																			1580048135.0	10.96	20.30
26/01/2020 14:15:36	26012020	260120	141536	102.960	12.329173	-56.809302	102.850	0.050	-0.250	0.660	102.940	-1.700	1.000																			1580048136.0	10.42	19.30
26/01/2020 14:15:37	26012020	260120	141537	102.840	12.329163	-56.809253	102.750	-0.050	-0.390	0.720	102.810	-1.700	1.100																			1580048137.0	10.65	19.72
26/01/2020 14:15:38	26012020	260120	141538	102.740	12.329152	-56.809202	102.700	-0.020	-0.510	0.850	102.730	-1.900	1.200																			1580048138.0	11.24	20.82
26/01/2020 14:15:39	26012020	260120	141539	102.680	12.329140	-56.809150	102.650	-0.080	-0.210	0.800	102.670	-1.800	1.200																			1580048139.0	11.15	20.65
26/01/2020 14:15:40	26012020	260120	141540	102.630	12.329130	-56.809100	102.620	-0.210	0.140	0.510	102.630	-1.400	1.000																			1580048140.0	10.66	19.74
26/01/2020 14:15:41	26012020	260120	141541	102.620	12.329120	-56.809050	102.660	-0.230	0.050	0.320	102.630	-1.300	0.800																			1580048141.0	10.68	19.78
26/01/2020 14:15:42	26012020	260120	141542	102.710	12.329110	-56.808998	102.780	-0.100	-0.410	0.140	102.730	-1.600	0.600																			1580048142.0	11.19	20.72
26/01/2020 14:15:43	26012020	260120	141543	102.830	12.329098	-56.808945	102.830	0.030	-0.620	0.180	102.840	-2.000	0.500																			1580048143.0	11.52	21.34
26/01/2020 14:15:44	26012020	260120	141544	102.850	12.329087	-56.808895	102.830	0.030	-0.280	0.480	102.850	-1.900	0.800																			1580048144.0	11.12	20.59
26/01/2020 14:15:45	26012020	260120	141545	102.850	12.329077	-56.808847	102.850	-0.070	0.100	0.540	102.850	-1.400	0.900																			1580048145.0	10.51	19.46
26/01/2020 14:15:46	26012020	260120	141546	102.860	12.329065	-56.808797	102.820	-0.070	0.030	0.480	102.850	-1.300	0.900																			1580048146.0	10.58	19.59
26/01/2020 14:15:47	26012020	260120	141547	102.820	12.329045	-56.808693	102.780	0.080	-0.330	0.370	102.810	-1.600	0.800																			1580048147.0	11.08	20.52
26/01/2020 14:15:48	26012020	260120	141547	102.790	12.329045	-56.808693	102.750	0.270	-0.540	0.280	102.790	-1.900	0.700																			1580048147.0	11.35	21.02
26/01/2020 14:15:49	26012020	260120	141549	102.770	12.329035	-56.808642	102.740	0.290	-0.340	0.300	102.770	-1.900	0.700																			1580048149.0	11.15	20.65
26/01/2020 14:15:50	26012020	260120	141550	102.770	12.329025	-56.808592	102.810	0.060	0.060	0.370	102.780	-1.500	0.700																			1580048150.0	10.68	19.78
26/01/2020 14:15:51	26012020	260120	141551	102.850	12.329015	-56.808543	102.930	-0.140	0.140	0.440	102.870	-1.200	0.800																			1580048151.0	10.45	19.35
26/01/2020 14:15:52	26012020	260120	141552	102.940	12.329003	-56.808493	102.990	-0.090	-0.250	0.450	102.960	-1.500	0.800																			1580048152.0	10.86	20.11
26/01/2020 14:15:53	26012020	260120	141553	103.000	12.328992	-56.808442	102.950	0.040	-0.570	0.560	103.000	-1.900	0.900																			1580048153.0	11.36	21.04
26/01/2020 14:15:54	26012020	260120	141554	102.920	12.328980	-56.808390	102.800	0.000	-0.540	0.800	102.890	-2.000	1.100																			1580048154.0	11.16	20.67
26/01/2020 14:15:55	26012020	260120	141555	102.740	12.328968	-56.808340	102.670	-0.110	-0.460	0.960	102.720	-1.900	1.300																			1580048155.0	10.81	20.02
26/01/2020 14:15:56	26012020	260120	141556	102.630	12.328957	-56.808290	102.590	-0.130	-0.500	0.930	102.620	-1.900	1.300																			1580048156.0	10.91	20.21
26/01/2020 14:15:57	26012020	260120	141557	102.560	12.328945	-56.808238	102.510	-0.120	-0.430	0.770	102.550	-1.900	1.200																			1580048157.0	11.16	20.67
26/01/2020 14:15:58	26012020	260120	141558	102.480	12.328935	-56.808187	102.430	-0.190	-0.060	0.580	102.460	-1.600	1.000																			1580048158.0	11.03	20.43
26/01/2020 14:15:59	26012020	260120	141559	102.400	12.328925	-56.808138	102.410	-0.270	0.290	0.440	102.400	-1.200	0.900																			1580048159.0	10.65	19.72
26/01/2020 14:16:00	26012020	260120	141600	102.420	12.328913	-56.808088	102.530	-0.170	0.150	0.310	102.440	-1.100	0.800	1016.60	26.00	26.10	19.30	19.40	805.00	66.00	66.00	374.00	28.80	352.00	10.10	85.00	4.60	58435	3214.00	27.50	27.50	1580048160.0	10.73	19.87
26/01/2020 14:16:01	26012020	260120	141601	102.570	12.328903	-56.808037	102.740	0.120	-0.230	0.150	102.620	-1.500	0.600																			1580048161.0	11.22	20.78
26/01/2020 14:16:02	26012020	260120	141602	102.790	12.328893	-56.807983	102.920	0.410	-0.330	0.000	102.830	-1.700	0.400																			1580048162.0	11.33	20.98
26/01/2020 14:16:03	26012020	260120	141603	102.960	12.328883	-56.807933	103.020	0.520	-0.130	-0.010	102.980	-1.600	0.400																			1580048163.0	10.91	20.21
26/01/2020 14:16:04	26012020	260120	141604	103.020	12.328875	-56.807885	103.070	0.440	-0.020	0.100	103.020	-1.400	0.400																			1580048164.0	10.55	19.54
26/01/2020 14:16:05	26012020	260120	141605	103.060	12.328865	-56.807835	103.040	0.350	-0.420	0.260	103.060	-1.600	0.600																			1580048165.0	10.72	19.85
26/01/2020 14:16:06	26012020	260120	141606	103.020	12.328855	-56.807782	102.910	0.270	-0.970	0.610	103.000	-2.200	0.800																			1580048166.0	11.37	21.06
26/01/2020 14:16:07	26012020	260120	141607	102.850	12.328843	-56.807728	102.790	0.010	-0.830	1.020	102.830	-2.400	1.300																			1580048167.0	11.53	21.35
26/01/2020 14:16:08	26012020	260120	141608	102.750	12.328830	-56.807680	102.730	-0.480	-0.060	1.220	102.740	-1.800	1.600																			1580048168.0	10.71	19.83
26/01/2020 14:16:09	26012020	260120	141609	102.680	12.328818	-56.807633	102.620	-0.890	0.360	1.170	102.660	-1.100	1.600																			1580048169.0	10.12	18.74
26/01/2020 14:16:10	26012020	260120	141610	102.560	12.328807	-56.807585	102.470	-0.810	-0.120	0.930	102.530	-1.300	1.400																			1580048170.0	10.69	19.80
26/01/2020 14:16:11	26012020	260120	141611	102.420	12.328793	-56.807530	102.350	-0.350	-0.810	0.630	102.390	-2.000	1.100																			1580048171.0	11.74	21.74
26/01/2020 14:16:12	26012020	260120	141612	102.330	12.328782	-56.807475	102.360	0.030	-0.700	0.370	102.330	-2.300	0.900																			1580048172.0	11.84	21.93
26/01/2020 14:16:13	26012020	260120	141613	102.380	12.328770	-56.807425	102.490	0.110	0.060	0.160	102.410	-1.600	0.600																			1580048173.0	10.84	20.08
26/01/2020 14:16:14	26012020	260120	141614	102.520	12.328762	-56.807378	102.610	0.110	0.520	-0.040	102.550	-1.000	0.400																			1580048174.0	10.20	18.89
26/01/2020 14:16:15	26012020	260120	141615	102.630	12.328752	-56.807328	102.730	0.240	0.340	-0.190	102.650	-0.900	0.300																			1580048175.0	10.60	19.63
26/01/2020 14:16:16	26012020	260120	141616	102.790	12.328743	-56.807277	102.950	0.470	-0.070	-0.220	102.840	-1.300	0.200																			1580048176.0	11.15	20.65
26/01/2020 14:16:17	26012020	260120	141617	103.020	12.328733	-56.807225	103.100	0.610	-0.310	-0.050	103.050	-1.700	0.300																			1580048177.0	11.19	20.72
26/01/2020 14:16:18	26012020	260120	141618	103.120	12.328723	-56.807175	103.050	0.540	-0.390	0.240	103.120	-1.800	0.500																			1580048178.0	10.88	20.15
26/01/2020 14:16:19	26012020	260120	141619	103.010	12.328715	-56.807125	102.840	0.330	-0.580	0.700	102.970	-1.900	0.900																			1580048179.0	10.73	19.87
26/01/2020 14:16:20	26012020	260120	141620	102.780	12.328703	-56.807073	102.690	0.090	-0.860	1.060	102.750	-2.200	1.400																			1580048180.0	11.00	20.37
26/01/2020 14:16:21	26012020	260120	141621	102.650	12.328692	-56.807023	102.600	-0.190	-0.820	1.150	102.620	-2.300	1.500																			1580048181.0	11.21	20.76
26/01/2020 14:16:22	26012020	260120	141622	102.540	12.328678	-56.806973	102.470	-0.550	-0.320	1.150	102.510	-1.900	1.500																			1580048182.0	10.90	20.19
26/01/2020 14:16:23	26012020	260120	141623	102.400	12.328667	-56.806925	102.330	-0.750	0.110	1.100	102.370	-1.400	1.500																			1580048183.0	10.49	19.43
26/01/2020 14:16:24	26012020	260120	141624	102.260	12.328653	-56.806875	102.200	-0.550	-0.050	0.900	102.230	-1.300	1.400																			1580048184.0	10.75	19.91
26/01/2020 14:16:25	26012020	260120	141625	102.160	12.328642	-56.806823	102.190	-0.110	-0.430	0.450	102.160	-1.700	1.000																			1580048185.0	11.47	21.24
26/01/2020 14:16:26	26012020	260120	141626	102.200	12.328632	-56.806768	102.320	0.200	-0.350	0.010	102.220	-1.900	0.500																			1580048186.0	11.60	21.48
26/01/2020 14:16:27	26012020	260120	141627	102.350	12.328622	-56.806718	102.550	0.190	0.220	-0.130	102.400	-1.400	0.300																			1580048187.0	10.90	20.19
26/01/2020 14:16:28	26012020	260120	141628	102.560	12.328613	-56.806670	102.800	0.040	0.580	-0.110	102.610	-0.900	0.300																			1580048188.0	10.29	19.06
26/01/2020 14:16:29	26012020	260120	141629	102.840	12.328603	-56.806622	102.930	0.010	0.260	-0.020	102.880	-0.900	0.300																			1580048189.0	10.49	19.43
26/01/2020 14:16:30	26012020	260120	141630	102.940	12.328592	-56.806570	102.930	0.210	-0.450	0.180	102.940	-1.600	0.500																			1580048190.0	11.12	20.59
26/01/2020 14:16:31	26012020	260120	141631	102.900	12.328582	-56.806517	102.820	0.490	-0.920	0.290	102.880	-2.200	0.700																			1580048191.0	11.44	21.19
26/01/2020 14:16:32	26012020	260120	141632	102.770	12.328572	-56.806465	102.670	0.480	-0.770	0.420	102.740	-2.300	0.800																			1580048192.0	11.18	20.71
26/01/2020 14:16:33	26012020	260120	141633	102.610	12.328562	-56.806417	102.520	0.130	-0.380	0.630	102.570	-1.900	0.900																			1580048193.0	10.55	19.54
26/01/2020 14:16:34	26012020	260120	141634	102.450	12.328552	-56.806368	102.370	-0.230	-0.230	0.790	102.420	-1.600	1.100																			1580048194.0	10.46	19.37
26/01/2020 14:16:35	26012020	260120	141635	102.320	12.328540	-56.806318	102.250	-0.350	-0.350	0.890	102.290	-1.700	1.300																			1580048195.0	10.87	20.13
26/01/2020 14:16:36	26012020	260120	141636	102.190	12.328527	-56.806267	102.090	-0.270	-0.490	0.940	102.160	-1.800	1.300																			1580048196.0	11.25	20.84
26/01/2020 14:16:37	26012020	260120	141637	102.010	12.328513	-56.806215	101.890	-0.130	-0.410	0.960	101.970	-1.900	1.400																			1580048197.0	11.32	20.96
26/01/2020 14:16:38	26012020	260120	141638	101.820	12.328502	-56.806165	101.780	-0.080	-0.050	0.760	101.800	-1.600	1.300																			1580048198.0	11.05	20.46
26/01/2020 14:16:39	26012020	260120	141639	101.750	12.328492	-56.806115	101.790	-0.090	0.270	0.420	101.750	-1.200	0.900																			1580048199.0	10.71	19.83
26/01/2020 14:16:40	26012020	260120	141640	101.810	12.328483	-56.806065	101.940	-0.080	0.320	0.130	101.840	-1.100	0.600																			1580048200.0	10.73	19.87
26/01/2020 14:16:41	26012020	260120	141641	101.990	12.328473	-56.806013	102.100	-0.080	0.170	0.000	102.020	-1.200	0.400																			1580048201.0	10.91	20.21
26/01/2020 14:16:42	26012020	260120	141642	102.140	12.328465	-56.805963	102.210	-0.070	-0.080	0.050	102.160	-1.400	0.400																			1580048202.0	10.92	20.22
26/01/2020 14:16:43	26012020	260120	141643	102.220	12.328453	-56.805913	102.200	0.100	-0.490	0.270	102.220	-1.700	0.600																			1580048203.0	10.90	20.19
26/01/2020 14:16:44	26012020	260120	141644	102.170	12.328443	-56.805862	102.130	0.390	-0.920	0.530	102.160	-2.200	0.800																			1580048204.0	11.11	20.58
26/01/2020 14:16:45	26012020	260120	141645	102.070	12.328432	-56.805810	102.000	0.490	-0.980	0.790	102.050	-2.400	1.100																			1580048205.0	11.25	20.84
26/01/2020 14:16:46	26012020	260120	141646	101.920	12.328422	-56.805758	101.800	0.200	-0.530	0.930	101.880	-2.100	1.300																			1580048206.0	10.89	20.17
26/01/2020 14:16:47	26012020	260120	141647	101.710	12.328412	-56.805710	101.600	-0.180	-0.060	0.920	101.660	-1.600	1.300																			1580048207.0	10.43	19.32
26/01/2020 14:16:48	26012020	260120	141648	101.540	12.328402	-56.805662	101.520	-0.320	-0.040	0.820	101.520	-1.400	1.200																			1580048208.0	10.63	19.69
26/01/2020 14:16:49	26012020	260120	141649	101.490	12.328392	-56.805610	101.500	-0.250	-0.240	0.660	101.480	-1.600	1.100																			1580048209.0	11.20	20.74
26/01/2020 14:16:50	26012020	260120	141650	101.480	12.328380	-56.805557	101.470	-0.190	-0.220	0.450	101.480	-1.700	0.900																			1580048210.0	11.38	21.08
26/01/2020 14:16:51	26012020	260120	141651	101.450	12.328370	-56.805507	101.450	-0.180	0.080	0.360	101.450	-1.400	0.800																			1580048211.0	11.02	20.41
26/01/2020 14:16:52	26012020	260120	141652	101.450	12.328360	-56.805457	101.520	-0.090	0.240	0.280	101.460	-1.200	0.700																			1580048212.0	10.66	19.74
26/01/2020 14:16:53	26012020	260120	141653	101.550	12.328350	-56.805407	101.720	0.140	0.070	0.060	101.590	-1.200	0.500																			1580048213.0	10.80	20.00
26/01/2020 14:16:54	26012020	260120	141654	101.780	12.328343	-56.805355	101.960	0.340	-0.190	-0.040	101.780	-1.500	0.300																			1580048214.0	11.09	20.54
26/01/2020 14:16:55	26012020	260120	141655	101.990	12.328333	-56.805303	102.070	0.280	-0.240	0.210	102.010	-1.600	0.500																			1580048215.0	10.98	20.33
26/01/2020 14:16:56	26012020	260120	141656	102.030	12.328323	-56.805253	101.970	0.030	-0.320	0.570	102.030	-1.700	0.800																			1580048216.0	10.63	19.69
26/01/2020 14:16:57	26012020	260120	141657	101.870	12.328313	-56.805205	101.760	-0.110	-0.730	0.850	101.830	-1.900	1.200																			1580048217.0	10.75	19.91
26/01/2020 14:16:58	26012020	260120	141658	101.660	12.328302	-56.805152	101.630	-0.010	-1.160	0.970	101.630	-2.400	1.300																			1580048218.0	11.28	20.89
26/01/2020 14:16:59	26012020	260120	141659	101.540	12.328292	-56.805100	101.530	0.070	-1.020	0.990	101.520	-2.600	1.400																			1580048219.0	11.42	21.15
26/01/2020 14:17:00	26012020	260120	141700	101.430	12.328280	-56.805050	101.380	-0.110	-0.280	0.870	101.400	-2.000	1.300	1016.60	26.00	26.10	19.20	19.20	812.00	65.00	66.00	373.00	28.90	359.00	10.00	99.00	4.30	58751	3171.00	27.50	27.50	1580048220.0	10.89	20.17
26/01/2020 14:17:01	26012020	260120	141701	101.270	12.328270	-56.805002	101.220	-0.400	0.400	0.680	101.240	-1.200	1.100																			1580048221.0	10.37	19.21
26/01/2020 14:17:02	26012020	260120	141702	101.140	12.328260	-56.804953	101.180	-0.430	0.470	0.380	101.140	-0.900	0.900																			1580048222.0	10.54	19.52
26/01/2020 14:17:03	26012020	260120	141703	101.170	12.328250	-56.804900	101.300	-0.110	0.080	0.030	101.200	-1.200	0.500																			1580048223.0	11.21	20.76
26/01/2020 14:17:04	26012020	260120	141704	101.330	12.328242	-56.804847	101.550	0.160	-0.080	-0.200	101.380	-1.500	0.300																			1580048224.0	11.55	21.39
26/01/2020 14:17:05	26012020	260120	141705	101.610	12.328233	-56.804795	101.880	0.120	0.210	-0.240	101.680	-1.300	0.100																			1580048225.0	10.97	20.32
26/01/2020 14:17:06	26012020	260120	141706	101.940	12.328225	-56.804747	102.160	0.020	0.330	-0.050	102.000	-1.100	0.200																			1580048226.0	10.27	19.02
26/01/2020 14:17:07	26012020	260120	141707	102.180	12.328215	-56.804698	102.240	0.160	-0.220	0.300	102.210	-1.400	0.600																			1580048227.0	10.47	19.39
26/01/2020 14:17:08	26012020	260120	141708	102.190	12.328205	-56.804647	102.070	0.470	-1.050	0.610	102.160	-2.200	0.900																			1580048228.0	11.25	20.84
26/01/2020 14:17:09	26012020	260120	141709	101.950	12.328193	-56.804593	101.790	0.540	-1.250	0.860	101.890	-2.700	1.200																			1580048229.0	11.51	21.32
26/01/2020 14:17:10	26012020	260120	141710	101.690	12.328183	-56.804543	101.640	0.220	-0.750	0.950	101.660	-2.400	1.300																			1580048230.0	10.82	20.04
26/01/2020 14:17:11	26012020	260120	141711	101.570	12.328175	-56.804495	101.530	-0.200	-0.400	0.870	101.550	-1.900	1.300																			1580048231.0	10.27	19.02
26/01/2020 14:17:12	26012020	260120	141712	101.430	12.328165	-56.804445	101.270	-0.370	-0.520	0.890	101.380	-1.900	1.300																			1580048232.0	10.80	20.00
26/01/2020 14:17:13	26012020	260120	141713	101.120	12.328153	-56.804393	100.910	-0.400	-0.430	1.040	101.050	-1.900	1.400																			1580048233.0	11.46	21.22
26/01/2020 14:17:14	26012020	260120	141714	100.800	12.328142	-56.804342	100.750	-0.470	0.190	1.070	100.760	-1.500	1.500																			1580048234.0	11.15	20.65
26/01/2020 14:17:15	26012020	260120	141715	100.730	12.328130	-56.804293	100.890	-0.540	0.670	0.800	100.760	-0.900	1.300																			1580048235.0	10.53	19.50
26/01/2020 14:17:16	26012020	260120	141716	100.970	12.328120	-56.804243	101.270	-0.430	0.510	0.440	101.050	-0.800	1.000																			1580048236.0	10.69	19.80
26/01/2020 14:17:17	26012020	260120	141717	101.390	12.328112	-56.804192	101.710	-0.140	0.160	0.070	101.490	-1.100	0.600																			1580048237.0	11.19	20.72
26/01/2020 14:17:18	26012020	260120	141718	101.830	12.328103	-56.804140	102.040	0.200	0.040	-0.170	101.900	-1.400	0.300																			1580048238.0	11.09	20.54
26/01/2020 14:17:19	26012020	260120	141719	102.120	12.328095	-56.804090	102.190	0.540	-0.070	-0.080	102.150	-1.400	0.200																			1580048239.0	10.62	19.67
26/01/2020 14:17:20	26012020	260120	141720	102.210	12.328087	-56.804040	102.230	0.870	-0.600	0.040	102.220	-1.800	0.400																			1580048240.0	10.63	19.69
26/01/2020 14:17:21	26012020	260120	141721	102.230	12.328078	-56.803988	102.250	0.990	-1.130	0.090	102.230	-2.400	0.500																			1580048241.0	11.20	20.74
26/01/2020 14:17:22	26012020	260120	141722	102.230	12.328070	-56.803937	102.220	0.660	-0.980	0.260	102.230	-2.500	0.600																			1580048242.0	11.18	20.71
26/01/2020 14:17:23	26012020	260120	141723	102.180	12.328062	-56.803887	102.100	0.030	-0.400	0.620	102.150	-2.000	0.900																			1580048243.0	10.43	19.32
26/01/2020 14:17:24	26012020	260120	141724	102.020	12.328052	-56.803840	101.910	-0.470	-0.220	0.970	101.980	-1.600	1.200																			1580048244.0	10.21	18.91
26/01/2020 14:17:25	26012020	260120	141725	101.810	12.328040	-56.803790	101.680	-0.600	-0.540	1.140	101.770	-1.800	1.500																			1580048245.0	10.95	20.28
26/01/2020 14:17:26	26012020	260120	141726	101.590	12.328027	-56.803737	101.480	-0.590	-0.620	1.090	101.540	-2.100	1.500																			1580048246.0	11.59	21.46
26/01/2020 14:17:27	26012020	260120	141727	101.410	12.328015	-56.803685	101.390	-0.640	-0.190	0.930	101.390	-1.800	1.400																			1580048247.0	11.22	20.78
26/01/2020 14:17:28	26012020	260120	141728	101.380	12.328003	-56.803635	101.440	-0.620	0.250	0.750	101.390	-1.300	1.200																			1580048248.0	10.70	19.82
26/01/2020 14:17:29	26012020	260120	141729	101.450	12.327992	-56.803587	101.560	-0.390	0.330	0.430	101.480	-1.100	1.000																			1580048249.0	10.79	19.98
26/01/2020 14:17:30	26012020	260120	141730	101.600	12.327982	-56.803535	101.810	-0.030	0.210	-0.050	101.650	-1.100	0.500																			1580048250.0	11.10	20.56
26/01/2020 14:17:31	26012020	260120	141731	101.920	12.327973	-56.803483	102.220	0.300	0.160	-0.370	102.000	-1.200	0.100																			1580048251.0	11.11	20.58
26/01/2020 14:17:32	26012020	260120	141732	102.350	12.327965	-56.803432	102.680	0.510	0.190	-0.480	102.440	-1.200	-0.100																			1580048252.0	10.82	20.04
26/01/2020 14:17:33	26012020	260120	141733	102.780	12.327958	-56.803383	103.010	0.580	0.120	-0.370	102.850	-1.200	-0.100																			1580048253.0	10.54	19.52
26/01/2020 14:17:34	26012020	260120	141734	103.050	12.327948	-56.803333	103.110	0.570	-0.240	-0.090	103.080	-1.500	0.200																			1580048254.0	10.52	19.48
26/01/2020 14:17:35	26012020	260120	141735	103.100	12.327940	-56.803283	103.040	0.590	-0.850	0.190	103.080	-2.000	0.500																			1580048255.0	10.81	20.02
26/01/2020 14:17:36	26012020	260120	141736	103.000	12.327932	-56.803232	102.940	0.510	-1.260	0.540	102.980	-2.600	0.800																			1580048256.0	11.19	20.72
26/01/2020 14:17:37	26012020	260120	141737	102.870	12.327920	-56.803180	102.760	0.150	-1.080	0.890	102.840	-2.600	1.200																			1580048257.0	11.01	20.39
26/01/2020 14:17:38	26012020	260120	141738	102.670	12.327908	-56.803132	102.460	-0.360	-0.620	1.120	102.600	-2.200	1.400																			1580048258.0	10.56	19.56
26/01/2020 14:17:39	26012020	260120	141739	102.320	12.327897	-56.803083	102.140	-0.760	-0.260	1.240	102.260	-1.800	1.600																			1580048259.0	10.57	19.58
26/01/2020 14:17:40	26012020	260120	141740	102.050	12.327883	-56.803033	101.970	-0.860	-0.180	1.130	102.010	-1.600	1.600																			1580048260.0	10.88	20.15
26/01/2020 14:17:41	26012020	260120	141741	101.910	12.327870	-56.802982	101.900	-0.630	-0.290	0.770	101.890	-1.700	1.300																			1580048261.0	11.33	20.98
26/01/2020 14:17:42	26012020	260120	141742	101.870	12.327858	-56.802930	101.980	-0.270	-0.120	0.270	101.890	-1.600	0.800																			1580048262.0	11.50	21.30
26/01/2020 14:17:43	26012020	260120	141743	102.000	12.327848	-56.802878	102.220	0.030	0.350	-0.160	102.050	-1.200	0.400																			1580048263.0	11.07	20.50
26/01/2020 14:17:44	26012020	260120	141744	102.310	12.327840	-56.802828	102.620	0.170	0.730	-0.490	102.390	-0.800	-0.000																			1580048264.0	10.65	19.72
26/01/2020 14:17:45	26012020	260120	141745	102.730	12.327832	-56.802778	103.030	0.200	0.760	-0.570	102.820	-0.600	-0.200																			1580048265.0	10.53	19.50
26/01/2020 14:17:46	26012020	260120	141746	103.060	12.327823	-56.802730	103.360	0.240	0.360	-0.350	103.130	-0.800	-0.100																			1580048266.0	10.61	19.65
26/01/2020 14:17:47	26012020	260120	141747	103.410	12.327813	-56.802680	103.500	0.390	-0.390	0.030	103.450	-1.500	0.300																			1580048267.0	10.84	20.08
26/01/2020 14:17:48	26012020	260120	141748	103.490	12.327802	-56.802628	103.450	0.560	-1.100	0.410	103.490	-2.300	0.700																			1580048268.0	11.14	20.63
26/01/2020 14:17:49	26012020	260120	141749	103.390	12.327790	-56.802577	103.290	0.540	-1.260	0.760	103.360	-2.700	1.000																			1580048269.0	11.10	20.56
26/01/2020 14:17:50	26012020	260120	141750	103.210	12.327780	-56.802528	103.100	0.250	-0.880	0.950	103.160	-2.400	1.300																			1580048270.0	10.61	19.65
26/01/2020 14:17:51	26012020	260120	141751	102.990	12.327770	-56.802480	102.850	-0.120	-0.500	0.900	102.940	-2.000	1.300																			1580048271.0	10.27	19.02
26/01/2020 14:17:52	26012020	260120	141752	102.720	12.327758	-56.802432	102.530	-0.310	-0.530	0.940	102.660	-1.900	1.300																			1580048272.0	10.61	19.65
26/01/2020 14:17:53	26012020	260120	141753	102.390	12.327747	-56.802380	102.250	-0.280	-0.650	0.900	102.330	-2.000	1.300																			1580048273.0	11.28	20.89
26/01/2020 14:17:54	26012020	260120	141754	102.160	12.327735	-56.802327	102.160	-0.270	-0.340	0.710	102.140	-1.900	1.200																			1580048274.0	11.43	21.17
26/01/2020 14:17:55	26012020	260120	141755	102.130	12.327723	-56.802277	102.270	-0.380	0.210	0.540	102.150	-1.400	1.000																			1580048275.0	10.93	20.24
26/01/2020 14:17:56	26012020	260120	141756	102.300	12.327712	-56.802228	102.520	-0.430	0.500	0.300	102.350	-1.000	0.800																			1580048276.0	10.66	19.74
26/01/2020 14:17:57	26012020	260120	141757	102.560	12.327700	-56.802177	102.770	-0.250	0.440	0.040	102.620	-0.900	0.500																			1580048277.0	10.88	20.15
26/01/2020 14:17:58	26012020	260120	141758	102.770	12.327690	-56.802127	103.020	0.030	0.330	-0.050	102.820	-1.000	0.300																			1580048278.0	11.07	20.50
26/01/2020 14:17:59	26012020	260120	141759	103.060	12.327680	-56.802075	103.210	0.250	0.220	0.030	103.110	-1.100	0.400																			1580048279.0	10.85	20.09
26/01/2020 14:18:00	26012020	260120	141800	103.250	12.327670	-56.802027	103.330	0.400	-0.180	0.120	103.280	-1.400	0.500	1016.60	26.00	26.00	19.00	19.10	804.00	65.00	65.00	373.00	28.90	358.00	9.90	98.00	4.30	58466	3112.00	27.50	27.50	1580048280.0	10.71	19.83
26/01/2020 14:18:01	26012020	260120	141801	103.340	12.327662	-56.801975	103.360	0.470	-0.720	0.290	103.340	-1.900	0.600																			1580048281.0	10.97	20.32
26/01/2020 14:18:02	26012020	260120	141802	103.350	12.327652	-56.801923	103.340	0.390	-0.930	0.600	103.340	-2.300	0.900																			1580048282.0	11.09	20.54
26/01/2020 14:18:03	26012020	260120	141803	103.300	12.327640	-56.801875	103.230	0.140	-0.690	0.920	103.280	-2.200	1.200																			1580048283.0	10.71	19.83
26/01/2020 14:18:04	26012020	260120	141804	103.140	12.327628	-56.801827	103.010	-0.100	-0.500	1.000	103.090	-1.900	1.400																			1580048284.0	10.43	19.32
26/01/2020 14:18:05	26012020	260120	141805	102.890	12.327617	-56.801777	102.760	-0.180	-0.560	0.910	102.840	-1.900	1.300																			1580048285.0	10.76	19.93
26/01/2020 14:18:06	26012020	260120	141806	102.660	12.327603	-56.801725	102.590	-0.180	-0.500	0.680	102.620	-2.000	1.200																			1580048286.0	11.15	20.65
26/01/2020 14:18:07	26012020	260120	141807	102.540	12.327593	-56.801675	102.550	-0.180	-0.160	0.340	102.530	-1.700	0.800																			1580048287.0	11.04	20.45
26/01/2020 14:18:08	26012020	260120	141808	102.530	12.327583	-56.801625	102.570	-0.140	0.160	0.170	102.530	-1.300	0.600																			1580048288.0	10.71	19.83
26/01/2020 14:18:09	26012020	260120	141809	102.550	12.327573	-56.801575	102.650	-0.010	0.110	0.060	102.570	-1.200	0.500																			1580048289.0	10.82	20.04
26/01/2020 14:18:10	26012020	260120	141810	102.630	12.327563	-56.801523	102.810	0.100	-0.070	0.000	102.660	-1.400	0.400																			1580048290.0	11.18	20.71
26/01/2020 14:18:11	26012020	260120	141811	102.820	12.327553	-56.801472	102.960	0.100	-0.070	0.200	102.850	-1.500	0.500																			1580048291.0	11.14	20.63
26/01/2020 14:18:12	26012020	260120	141812	102.950	12.327542	-56.801422	103.040	0.040	-0.040	0.450	102.970	-1.400	0.800																			1580048292.0	10.79	19.98
26/01/2020 14:18:13	26012020	260120	141813	103.000	12.327532	-56.801372	103.010	0.050	-0.310	0.650	103.000	-1.600	1.000																			1580048293.0	10.76	19.93
26/01/2020 14:18:14	26012020	260120	141814	102.940	12.327520	-56.801320	102.880	0.140	-0.700	0.810	102.910	-2.000	1.200																			1580048294.0	11.15	20.65
26/01/2020 14:18:15	26012020	260120	141815	102.820	12.327508	-56.801268	102.860	0.100	-0.540	0.750	102.810	-2.100	1.200																			1580048295.0	11.27	20.87
26/01/2020 14:18:16	26012020	260120	141816	102.840	12.327497	-56.801220	102.930	-0.200	0.060	0.560	102.850	-1.600	1.000																			1580048296.0	10.60	19.63
26/01/2020 14:18:17	26012020	260120	141817	102.920	12.327487	-56.801173	102.950	-0.530	0.310	0.500	102.920	-1.100	0.900																			1580048297.0	10.15	18.80
26/01/2020 14:18:18	26012020	260120	141818	102.880	12.327475	-56.801123	102.800	-0.510	-0.150	0.560	102.850	-1.300	0.900																			1580048298.0	10.61	19.65
26/01/2020 14:18:19	26012020	260120	141819	102.700	12.327462	-56.801072	102.600	-0.040	-0.770	0.500	102.660	-2.000	0.900																			1580048299.0	11.40	21.11
26/01/2020 14:18:20	26012020	260120	141820	102.550	12.327452	-56.801018	102.570	0.480	-0.850	0.260	102.540	-2.300	0.700																			1580048300.0	11.54	21.37
26/01/2020 14:18:21	26012020	260120	141821	102.560	12.327442	-56.800967	102.670	0.650	-0.460	0.050	102.580	-2.000	0.500																			1580048301.0	10.99	20.35
26/01/2020 14:18:22	26012020	260120	141822	102.670	12.327433	-56.800918	102.780	0.470	-0.060	-0.040	102.700	-1.600	0.400																			1580048302.0	10.56	19.56
26/01/2020 14:18:23	26012020	260120	141823	102.790	12.327425	-56.800868	102.770	0.200	0.110	0.070	102.790	-1.300	0.400																			1580048303.0	10.62	19.67
26/01/2020 14:18:24	26012020	260120	141824	102.720	12.327415	-56.800818	102.620	0.030	-0.010	0.420	102.690	-1.400	0.700																			1580048304.0	10.85	20.09
26/01/2020 14:18:25	26012020	260120	141825	102.540	12.327403	-56.800767	102.540	-0.040	-0.250	0.670	102.520	-1.600	1.000																			1580048305.0	11.17	20.69
26/01/2020 14:18:26	26012020	260120	141826	102.510	12.327390	-56.800715	102.640	-0.210	-0.290	0.690	102.530	-1.700	1.100																			1580048306.0	11.19	20.72
26/01/2020 14:18:27	26012020	260120	141827	102.620	12.327380	-56.800665	102.710	-0.450	-0.140	0.740	102.630	-1.600	1.100																			1580048307.0	10.86	20.11
26/01/2020 14:18:28	26012020	260120	141828	102.660	12.327367	-56.800617	102.690	-0.620	-0.020	0.880	102.660	-1.500	1.200																			1580048308.0	10.66	19.74
26/01/2020 14:18:29	26012020	260120	141829	102.620	12.327355	-56.800567	102.630	-0.570	-0.120	0.800	102.600	-1.500	1.200																			1580048309.0	10.72	19.85
26/01/2020 14:18:30	26012020	260120	141830	102.550	12.327343	-56.800517	102.560	-0.260	-0.420	0.640	102.540	-1.700	1.100																			1580048310.0	10.96	20.30
26/01/2020 14:18:31	26012020	260120	141831	102.490	12.327332	-56.800465	102.510	0.200	-0.720	0.450	102.480	-2.000	0.900																			1580048311.0	11.21	20.76
26/01/2020 14:18:32	26012020	260120	141832	102.440	12.327320	-56.800413	102.420	0.560	-0.710	0.190	102.430	-2.200	0.700																			1580048312.0	11.25	20.84
26/01/2020 14:18:33	26012020	260120	141833	102.340	12.327312	-56.800362	102.310	0.630	-0.290	0.020	102.330	-1.900	0.400																			1580048313.0	10.94	20.26
26/01/2020 14:18:34	26012020	260120	141834	102.230	12.327305	-56.800313	102.200	0.460	0.080	0.060	102.210	-1.400	0.400																			1580048314.0	10.54	19.52
26/01/2020 14:18:35	26012020	260120	141835	102.140	12.327297	-56.800263	102.140	0.260	-0.040	0.260	102.130	-1.400	0.600																			1580048315.0	10.70	19.82
26/01/2020 14:18:36	26012020	260120	141836	102.100	12.327285	-56.800212	102.120	0.090	-0.300	0.600	102.090	-1.600	0.800																			1580048316.0	11.24	20.82
26/01/2020 14:18:37	26012020	260120	141837	102.060	12.327273	-56.800160	102.100	-0.180	-0.170	0.980	102.050	-1.700	1.200																			1580048317.0	11.26	20.85
26/01/2020 14:18:38	26012020	260120	141838	102.040	12.327260	-56.800110	102.060	-0.480	0.110	1.170	102.030	-1.400	1.500																			1580048318.0	10.72	19.85
26/01/2020 14:18:39	26012020	260120	141839	101.990	12.327248	-56.800062	101.990	-0.550	0.010	1.110	101.980	-1.300	1.500																			1580048319.0	10.61	19.65
26/01/2020 14:18:40	26012020	260120	141840	101.940	12.327237	-56.800010	102.010	-0.350	-0.320	0.790	101.940	-1.600	1.300																			1580048320.0	11.05	20.46
26/01/2020 14:18:41	26012020	260120	141841	101.990	12.327227	-56.799958	102.070	-0.080	-0.460	0.510	102.010	-1.900	1.000																			1580048321.0	11.22	20.78
26/01/2020 14:18:42	26012020	260120	141842	102.060	12.327218	-56.799908	102.040	0.100	-0.360	0.520	102.050	-1.800	0.900																			1580048322.0	10.93	20.24
26/01/2020 14:18:43	26012020	260120	141843	101.970	12.327207	-56.799858	101.890	0.200	-0.340	0.500	101.940	-1.700	0.900																			1580048323.0	10.72	19.85
26/01/2020 14:18:44	26012020	260120	141844	101.830	12.327198	-56.799807	101.780	0.290	-0.490	0.510	101.810	-1.800	0.900																			1580048324.0	10.92	20.22
26/01/2020 14:18:45	26012020	260120	141845	101.730	12.327188	-56.799755	101.710	0.360	-0.540	0.600	101.710	-2.000	1.000																			1580048325.0	11.17	20.69
26/01/2020 14:18:46	26012020	260120	141846	101.670	12.327178	-56.799705	101.650	0.320	-0.340	0.640	101.660	-1.900	1.000																			1580048326.0	11.05	20.46
26/01/2020 14:18:47	26012020	260120	141847	101.610	12.327168	-56.799653	101.580	0.160	-0.050	0.700	101.590	-1.600	1.100																			1580048327.0	10.80	20.00
26/01/2020 14:18:48	26012020	260120	141848	101.540	12.327158	-56.799605	101.580	-0.040	0.100	0.650	101.540	-1.400	1.100																			1580048328.0	10.76	19.93
26/01/2020 14:18:49	26012020	260120	141849	101.580	12.327150	-56.799553	101.710	-0.160	0.060	0.400	101.600	-1.300	0.900																			1580048329.0	10.87	20.13
26/01/2020 14:18:50	26012020	260120	141850	101.740	12.327140	-56.799502	101.910	-0.170	-0.170	0.300	101.780	-1.500	0.700																			1580048330.0	11.06	20.48
26/01/2020 14:18:51	26012020	260120	141851	101.940	12.327130	-56.799450	102.090	-0.190	-0.290	0.380	101.980	-1.700	0.700																			1580048331.0	11.18	20.71
26/01/2020 14:18:52	26012020	260120	141852	102.070	12.327118	-56.799400	102.140	-0.300	-0.110	0.550	102.080	-1.600	0.900																			1580048332.0	10.92	20.22
26/01/2020 14:18:53	26012020	260120	141853	102.090	12.327108	-56.799352	102.130	-0.380	-0.060	0.680	102.090	-1.400	1.000																			1580048333.0	10.54	19.52
26/01/2020 14:18:54	26012020	260120	141854	102.080	12.327097	-56.799302	102.110	-0.210	-0.490	0.670	102.070	-1.700	1.100																			1580048334.0	10.77	19.95
26/01/2020 14:18:55	26012020	260120	141855	102.020	12.327087	-56.799248	101.930	0.180	-1.070	0.580	101.990	-2.300	1.000																			1580048335.0	11.41	21.13
26/01/2020 14:18:56	26012020	260120	141856	101.800	12.327077	-56.799195	101.620	0.430	-1.100	0.560	101.740	-2.600	0.900																			1580048336.0	11.67	21.61
26/01/2020 14:18:57	26012020	260120	141857	101.490	12.327068	-56.799143	101.380	0.270	-0.360	0.520	101.440	-2.100	0.900																			1580048337.0	11.12	20.59
26/01/2020 14:18:58	26012020	260120	141858	101.330	12.327058	-56.799095	101.370	-0.120	0.450	0.280	101.330	-1.200	0.800																			1580048338.0	10.34	19.15
26/01/2020 14:18:59	26012020	260120	141859	101.380	12.327050	-56.799047	101.500	-0.260	0.510	0.020	101.400	-0.800	0.500																			1580048339.0	10.40	19.26
26/01/2020 14:19:00	26012020	260120	141900	101.520	12.327040	-56.798993	101.630	-0.010	0.040	0.010	101.540	-1.200	0.400	1016.60	26.00	26.00	19.10	19.20	799.00	66.00	66.00	373.00	28.90	357.00	9.70	95.00	4.10	58411	3318.00	27.50	27.50	1580048340.0	11.23	20.80
26/01/2020 14:19:01	26012020	260120	141901	101.650	12.327030	-56.798940	101.770	0.230	-0.110	0.100	101.670	-1.500	0.400																			1580048341.0	11.61	21.50
26/01/2020 14:19:02	26012020	260120	141902	101.810	12.327018	-56.798890	101.980	0.190	0.090	0.200	101.840	-1.400	0.600																			1580048342.0	10.99	20.35
26/01/2020 14:19:03	26012020	260120	141903	102.010	12.327010	-56.798840	102.170	-0.000	0.120	0.260	102.050	-1.300	0.600																			1580048343.0	10.46	19.37
26/01/2020 14:19:04	26012020	260120	141904	102.180	12.327000	-56.798792	102.270	-0.150	-0.180	0.400	102.200	-1.500	0.700																			1580048344.0	10.65	19.72
26/01/2020 14:19:05	26012020	260120	141905	102.240	12.326988	-56.798742	102.260	-0.220	-0.520	0.640	102.240	-1.800	0.900																			1580048345.0	10.94	20.26
26/01/2020 14:19:06	26012020	260120	141906	102.190	12.326978	-56.798690	102.100	-0.170	-0.880	0.860	102.160	-2.100	1.200																			1580048346.0	10.94	20.26
26/01/2020 14:19:07	26012020	260120	141907	101.970	12.326967	-56.798640	101.770	0.050	-1.230	1.010	101.910	-2.500	1.300																			1580048347.0	11.13	20.61
26/01/2020 14:19:08	26012020	260120	141908	101.630	12.326955	-56.798587	101.470	0.250	-1.190	0.970	101.560	-2.700	1.400																			1580048348.0	11.39	21.09
26/01/2020 14:19:09	26012020	260120	141909	101.400	12.326945	-56.798535	101.370	0.210	-0.520	0.720	101.370	-2.200	1.200																			1580048349.0	11.11	20.58
26/01/2020 14:19:10	26012020	260120	141910	101.340	12.326937	-56.798485	101.390	-0.020	0.250	0.490	101.350	-1.400	0.900																			1580048350.0	10.57	19.58
26/01/2020 14:19:11	26012020	260120	141911	101.370	12.326928	-56.798437	101.440	-0.160	0.430	0.400	101.380	-1.000	0.800																			1580048351.0	10.61	19.65
26/01/2020 14:19:12	26012020	260120	141912	101.430	12.326918	-56.798383	101.580	-0.110	0.160	0.370	101.440	-1.100	0.800																			1580048352.0	11.28	20.89
26/01/2020 14:19:13	26012020	260120	141913	101.600	12.326908	-56.798330	101.810	-0.040	0.020	0.390	101.640	-1.400	0.800																			1580048353.0	11.58	21.45
26/01/2020 14:19:14	26012020	260120	141914	101.830	12.326897	-56.798278	102.030	-0.110	0.220	0.620	101.870	-1.300	0.900																			1580048354.0	11.17	20.69
26/01/2020 14:19:15	26012020	260120	141915	102.050	12.326885	-56.798230	102.250	-0.280	0.380	0.770	102.090	-1.100	1.100																			1580048355.0	10.61	19.65
26/01/2020 14:19:16	26012020	260120	141916	102.240	12.326875	-56.798182	102.410	-0.310	0.040	0.710	102.280	-1.200	1.100																			1580048356.0	10.56	19.56
26/01/2020 14:19:17	26012020	260120	141917	102.380	12.326865	-56.798130	102.490	-0.090	-0.580	0.560	102.400	-1.800	1.000																			1580048357.0	11.10	20.56
26/01/2020 14:19:18	26012020	260120	141918	102.450	12.326855	-56.798077	102.480	0.170	-0.820	0.410	102.450	-2.200	0.900																			1580048358.0	11.31	20.95
26/01/2020 14:19:19	26012020	260120	141919	102.420	12.326845	-56.798027	102.390	0.300	-0.720	0.240	102.400	-2.200	0.700																			1580048359.0	10.85	20.09
26/01/2020 14:19:20	26012020	260120	141920	102.310	12.326837	-56.797977	102.180	0.410	-0.740	0.150	102.270	-2.100	0.600																			1580048360.0	10.71	19.83
26/01/2020 14:19:21	26012020	260120	141921	102.070	12.326827	-56.797925	101.970	0.430	-0.650	0.110	102.020	-2.100	0.500																			1580048361.0	11.10	20.56
26/01/2020 14:19:22	26012020	260120	141922	101.920	12.326817	-56.797873	102.010	0.210	-0.150	-0.050	101.920	-1.800	0.400																			1580048362.0	10.99	20.35
26/01/2020 14:19:23	26012020	260120	141923	102.010	12.326808	-56.797825	102.200	-0.110	0.290	-0.070	102.060	-1.200	0.300																			1580048363.0	10.54	19.52
26/01/2020 14:19:24	26012020	260120	141924	102.180	12.326798	-56.797775	102.380	-0.270	0.170	0.180	102.220	-1.100	0.400																			1580048364.0	10.65	19.72
26/01/2020 14:19:25	26012020	260120	141925	102.340	12.326787	-56.797723	102.360	-0.180	-0.390	0.560	102.340	-1.600	0.800																			1580048365.0	11.29	20.91
26/01/2020 14:19:26	26012020	260120	141926	102.280	12.326773	-56.797670	102.190	-0.040	-0.710	0.880	102.240	-2.100	1.200																			1580048366.0	11.70	21.67
26/01/2020 14:19:27	26012020	260120	141927	102.090	12.326762	-56.797618	102.110	-0.010	-0.500	0.880	102.070	-2.000	1.300																			1580048367.0	11.33	20.98
26/01/2020 14:19:28	26012020	260120	141928	102.070	12.326752	-56.797568	102.200	-0.050	-0.100	0.610	102.090	-1.700	1.100																			1580048368.0	10.79	19.98
26/01/2020 14:19:29	26012020	260120	141929	102.210	12.326742	-56.797518	102.330	-0.170	0.150	0.420	102.240	-1.300	0.800																			1580048369.0	10.70	19.82
26/01/2020 14:19:30	26012020	260120	141930	102.310	12.326732	-56.797468	102.330	-0.290	0.180	0.460	102.310	-1.200	0.800																			1580048370.0	10.82	20.04
26/01/2020 14:19:31	26012020	260120	141931	102.270	12.326720	-56.797418	102.250	-0.260	-0.010	0.590	102.250	-1.300	0.900																			1580048371.0	10.96	20.30
26/01/2020 14:19:32	26012020	260120	141932	102.200	12.326708	-56.797367	102.230	-0.050	-0.330	0.550	102.190	-1.600	1.000																			1580048372.0	11.13	20.61
26/01/2020 14:19:33	26012020	260120	141933	102.180	12.326698	-56.797315	102.210	0.210	-0.570	0.380	102.180	-1.900	0.800																			1580048373.0	11.28	20.89
26/01/2020 14:19:34	26012020	260120	141934	102.170	12.326688	-56.797263	102.160	0.310	-0.430	0.200	102.170	-1.900	0.700																			1580048374.0	11.13	20.61
26/01/2020 14:19:35	26012020	260120	141935	102.140	12.326678	-56.797213	102.130	0.230	-0.040	0.080	102.120	-1.600	0.500																			1580048375.0	10.68	19.78
26/01/2020 14:19:36	26012020	260120	141936	102.130	12.326670	-56.797165	102.240	0.070	0.120	-0.050	102.150	-1.300	0.400																			1580048376.0	10.46	19.37
26/01/2020 14:19:37	26012020	260120	141937	102.270	12.326662	-56.797115	102.370	0.020	-0.190	-0.120	102.300	-1.400	0.300																			1580048377.0	10.73	19.87
26/01/2020 14:19:38	26012020	260120	141938	102.350	12.326652	-56.797062	102.300	0.130	-0.640	0.090	102.340	-1.900	0.400																			1580048378.0	11.24	20.82
26/01/2020 14:19:39	26012020	260120	141939	102.210	12.326640	-56.797010	102.100	0.240	-0.800	0.430	102.170	-2.200	0.700																			1580048379.0	11.36	21.04
26/01/2020 14:19:40	26012020	260120	141940	102.000	12.326628	-56.796958	101.910	0.250	-0.700	0.760	101.960	-2.200	1.000																			1580048380.0	11.10	20.56
26/01/2020 14:19:41	26012020	260120	141941	101.850	12.326617	-56.796908	101.850	0.160	-0.470	0.850	101.830	-2.000	1.200																			1580048381.0	11.00	20.37
26/01/2020 14:19:42	26012020	260120	141942	101.810	12.326605	-56.796857	101.840	-0.050	-0.120	0.680	101.800	-1.700	1.100																			1580048382.0	10.95	20.28
26/01/2020 14:19:43	26012020	260120	141943	101.780	12.326597	-56.796807	101.800	-0.280	0.140	0.500	101.770	-1.400	0.900																			1580048383.0	10.86	20.11
26/01/2020 14:19:44	26012020	260120	141944	101.760	12.326587	-56.796757	101.830	-0.370	0.180	0.520	101.760	-1.200	0.900																			1580048384.0	10.89	20.17
26/01/2020 14:19:45	26012020	260120	141945	101.810	12.326575	-56.796705	101.940	-0.310	0.030	0.620	101.830	-1.300	1.000																			1580048385.0	11.12	20.59
26/01/2020 14:19:46	26012020	260120	141946	101.940	12.326563	-56.796653	102.090	-0.210	-0.110	0.680	101.980	-1.500	1.000																			1580048386.0	11.19	20.72
26/01/2020 14:19:47	26012020	260120	141947	102.070	12.326553	-56.796602	102.140	-0.150	-0.240	0.780	102.090	-1.600	1.100																			1580048387.0	11.09	20.54
26/01/2020 14:19:48	26012020	260120	141948	102.100	12.326542	-56.796552	102.090	-0.080	-0.310	0.960	102.080	-1.700	1.300																			1580048388.0	11.01	20.39
26/01/2020 14:19:49	26012020	260120	141949	102.040	12.326530	-56.796502	102.100	0.020	-0.360	1.000	102.030	-1.800	1.400																			1580048389.0	10.94	20.26
26/01/2020 14:19:50	26012020	260120	141950	102.050	12.326520	-56.796450	102.120	0.200	-0.440	0.920	102.060	-1.800	1.300																			1580048390.0	10.94	20.26
26/01/2020 14:19:51	26012020	260120	141951	102.070	12.326510	-56.796398	102.120	0.370	-0.430	0.780	102.070	-1.900	1.200																			1580048391.0	11.04	20.45
26/01/2020 14:19:52	26012020	260120	141952	102.070	12.326502	-56.796348	102.090	0.430	-0.330	0.500	102.070	-1.800	1.000																			1580048392.0	10.98	20.33
26/01/2020 14:19:53	26012020	260120	141953	102.080	12.326493	-56.796297	102.110	0.340	-0.200	0.230	102.080	-1.700	0.700																			1580048393.0	10.94	20.26
26/01/2020 14:19:54	26012020	260120	141954	102.140	12.326487	-56.796247	102.230	0.130	0.010	0.150	102.160	-1.500	0.600																			1580048394.0	10.88	20.15
26/01/2020 14:19:55	26012020	260120	141955	102.270	12.326477	-56.796197	102.350	-0.070	0.000	0.220	102.290	-1.400	0.600																			1580048395.0	10.72	19.85
26/01/2020 14:19:56	26012020	260120	141956	102.330	12.326467	-56.796145	102.300	-0.080	-0.370	0.440	102.330	-1.600	0.700																			1580048396.0	10.98	20.33
26/01/2020 14:19:57	26012020	260120	141957	102.230	12.326455	-56.796092	102.160	0.040	-0.770	0.680	102.200	-2.100	1.000																			1580048397.0	11.44	21.19
26/01/2020 14:19:58	26012020	260120	141958	102.100	12.326443	-56.796040	102.130	0.070	-0.750	0.740	102.090	-2.200	1.100																			1580048398.0	11.44	21.19
26/01/2020 14:19:59	26012020	260120	141959	102.120	12.326433	-56.795988	102.230	-0.090	-0.340	0.680	102.140	-1.900	1.100																			1580048399.0	11.03	20.43
26/01/2020 14:20:00	26012020	260120	142000	102.230	12.326423	-56.795938	102.290	-0.350	0.110	0.630	102.250	-1.400	1.000	1016.60	26.00	26.00	19.30	19.30	813.00	66.00	66.00	374.00	28.90	357.00	9.90	94.00	4.30	59088	3223.00	27.50	27.50	1580048400.0	10.65	19.72
26/01/2020 14:20:01	26012020	260120	142001	102.260	12.326413	-56.795890	102.280	-0.520	0.230	0.550	102.260	-1.200	1.000																			1580048401.0	10.68	19.78
26/01/2020 14:20:02	26012020	260120	142002	102.260	12.326402	-56.795838	102.330	-0.480	-0.010	0.470	102.260	-1.300	0.900																			1580048402.0	11.03	20.43
26/01/2020 14:20:03	26012020	260120	142003	102.330	12.326390	-56.795787	102.390	-0.230	-0.390	0.350	102.340	-1.700	0.800																			1580048403.0	11.36	21.04
26/01/2020 14:20:04	26012020	260120	142004	102.370	12.326378	-56.795733	102.400	0.080	-0.490	0.150	102.370	-1.900	0.600																			1580048404.0	11.46	21.22
26/01/2020 14:20:05	26012020	260120	142005	102.380	12.326368	-56.795682	102.450	0.250	-0.170	0.020	102.390	-1.700	0.400																			1580048405.0	11.08	20.52
26/01/2020 14:20:06	26012020	260120	142006	102.450	12.326360	-56.795633	102.600	0.230	0.210	-0.030	102.480	-1.300	0.400																			1580048406.0	10.61	19.65
26/01/2020 14:20:07	26012020	260120	142007	102.640	12.326352	-56.795583	102.800	0.160	0.200	-0.120	102.680	-1.100	0.300																			1580048407.0	10.51	19.46
26/01/2020 14:20:08	26012020	260120	142008	102.820	12.326342	-56.795533	102.860	0.200	-0.280	-0.050	102.840	-1.500	0.300																			1580048408.0	10.93	20.24
26/01/2020 14:20:09	26012020	260120	142009	102.830	12.326332	-56.795480	102.760	0.350	-0.820	0.340	102.820	-2.000	0.600																			1580048409.0	11.37	21.06
26/01/2020 14:20:10	26012020	260120	142010	102.700	12.326318	-56.795428	102.590	0.460	-1.010	0.700	102.660	-2.400	1.000																			1580048410.0	11.41	21.13
26/01/2020 14:20:11	26012020	260120	142011	102.510	12.326308	-56.795377	102.380	0.360	-0.810	0.870	102.460	-2.300	1.200																			1580048411.0	11.15	20.65
26/01/2020 14:20:12	26012020	260120	142012	102.330	12.326298	-56.795325	102.220	0.070	-0.420	0.870	102.290	-2.000	1.300																			1580048412.0	10.92	20.22
26/01/2020 14:20:13	26012020	260120	142013	102.140	12.326288	-56.795275	102.140	-0.320	0.040	0.840	102.120	-1.500	1.200																			1580048413.0	10.86	20.11
26/01/2020 14:20:14	26012020	260120	142014	102.090	12.326277	-56.795225	102.140	-0.680	0.450	0.740	102.090	-1.100	1.200																			1580048414.0	10.78	19.96
26/01/2020 14:20:15	26012020	260120	142015	102.120	12.326265	-56.795177	102.230	-0.770	0.420	0.540	102.130	-0.900	1.000																			1580048415.0	10.79	19.98
26/01/2020 14:20:16	26012020	260120	142016	102.200	12.326253	-56.795125	102.370	-0.500	-0.050	0.380	102.230	-1.200	0.800																			1580048416.0	11.20	20.74
26/01/2020 14:20:17	26012020	260120	142017	102.360	12.326242	-56.795072	102.490	0.000	-0.590	0.260	102.380	-1.800	0.700																			1580048417.0	11.60	21.48
26/01/2020 14:20:18	26012020	260120	142018	102.490	12.326230	-56.795017	102.660	0.390	-0.640	0.080	102.530	-2.100	0.500																			1580048418.0	11.58	21.45
26/01/2020 14:20:19	26012020	260120	142019	102.670	12.326220	-56.794967	102.840	0.400	-0.080	-0.010	102.710	-1.700	0.400																			1580048419.0	10.93	20.24
26/01/2020 14:20:20	26012020	260120	142020	102.860	12.326212	-56.794920	103.010	0.130	0.380	0.070	102.890	-1.100	0.400																			1580048420.0	10.19	18.87
26/01/2020 14:20:21	26012020	260120	142021	103.000	12.326202	-56.794872	103.100	-0.030	0.020	0.250	103.020	-1.100	0.600																			1580048421.0	10.37	19.21
26/01/2020 14:20:22	26012020	260120	142022	103.050	12.326192	-56.794818	103.030	0.110	-0.840	0.510	103.030	-1.900	0.800																			1580048422.0	11.31	20.95
26/01/2020 14:20:23	26012020	260120	142022	102.920	12.326178	-56.794765	102.820	0.310	-1.260	0.830	102.880	-2.600	1.100																			1580048422.0	11.80	21.85
26/01/2020 14:20:24	26012020	260120	142024	102.680	12.326167	-56.794712	102.550	0.330	-0.860	1.050	102.630	-2.500	1.400																			1580048424.0	11.32	20.96
26/01/2020 14:20:25	26012020	260120	142025	102.400	12.326157	-56.794663	102.290	0.060	-0.120	0.960	102.350	-1.800	1.400																			1580048425.0	10.64	19.71
26/01/2020 14:20:26	26012020	260120	142026	102.160	12.326147	-56.794615	102.110	-0.250	0.220	0.750	102.120	-1.200	1.200																			1580048426.0	10.46	19.37
26/01/2020 14:20:27	26012020	260120	142027	102.040	12.326138	-56.794563	102.100	-0.330	-0.010	0.510	102.040	-1.300	1.000																			1580048427.0	11.05	20.46
26/01/2020 14:20:28	26012020	260120	142028	102.110	12.326127	-56.794510	102.320	-0.170	-0.220	0.230	102.150	-1.600	0.700																			1580048428.0	11.61	21.50
26/01/2020 14:20:29	26012020	260120	142029	102.350	12.326115	-56.794457	102.540	-0.070	0.040	0.200	102.400	-1.500	0.600																			1580048429.0	11.42	21.15
26/01/2020 14:20:30	26012020	260120	142030	102.570	12.326103	-56.794407	102.720	-0.110	0.400	0.300	102.600	-1.100	0.600																			1580048430.0	10.72	19.85
26/01/2020 14:20:31	26012020	260120	142031	102.730	12.326092	-56.794358	102.890	-0.100	0.280	0.330	102.770	-1.000	0.700																			1580048431.0	10.55	19.54
26/01/2020 14:20:32	26012020	260120	142032	102.920	12.326082	-56.794308	103.100	0.090	-0.230	0.260	102.960	-1.400	0.700																			1580048432.0	10.99	20.35
26/01/2020 14:20:33	26012020	260120	142033	103.120	12.326072	-56.794255	103.260	0.300	-0.670	0.210	103.160	-1.900	0.600																			1580048433.0	11.31	20.95
26/01/2020 14:20:34	26012020	260120	142034	103.230	12.326062	-56.794203	103.220	0.350	-0.740	0.360	103.220	-2.200	0.700																			1580048434.0	11.13	20.61
26/01/2020 14:20:35	26012020	260120	142035	103.090	12.326050	-56.794155	102.890	0.180	-0.540	0.610	103.020	-2.000	0.900																			1580048435.0	10.73	19.87
26/01/2020 14:20:36	26012020	260120	142036	102.750	12.326040	-56.794105	102.580	-0.020	-0.500	0.700	102.680	-1.900	1.100																			1580048436.0	10.62	19.67
26/01/2020 14:20:37	26012020	260120	142037	102.480	12.326030	-56.794055	102.360	-0.100	-0.650	0.660	102.430	-2.000	1.100																			1580048437.0	11.00	20.37
26/01/2020 14:20:38	26012020	260120	142038	102.260	12.326018	-56.794002	102.110	-0.110	-0.620	0.600	102.210	-2.100	1.000																			1580048438.0	11.34	21.00
26/01/2020 14:20:39	26012020	260120	142039	102.020	12.326008	-56.793950	101.910	-0.100	-0.380	0.490	101.980	-1.900	0.900																			1580048439.0	11.18	20.71
26/01/2020 14:20:40	26012020	260120	142040	101.870	12.325997	-56.793898	101.830	0.010	-0.190	0.380	101.840	-1.600	0.800																			1580048440.0	11.06	20.48
26/01/2020 14:20:41	26012020	260120	142041	101.810	12.325987	-56.793847	101.970	0.070	-0.010	0.290	101.830	-1.500	0.700																			1580048441.0	11.28	20.89
26/01/2020 14:20:42	26012020	260120	142042	102.000	12.325977	-56.793795	102.280	-0.110	0.360	0.230	102.060	-1.200	0.600																			1580048442.0	11.18	20.71
26/01/2020 14:20:43	26012020	260120	142043	102.330	12.325967	-56.793745	102.650	-0.410	0.740	0.310	102.400	-0.800	0.600																			1580048443.0	10.70	19.82
26/01/2020 14:20:44	26012020	260120	142044	102.700	12.325955	-56.793697	102.870	-0.490	0.610	0.540	102.740	-0.700	0.800																			1580048444.0	10.49	19.43
26/01/2020 14:20:45	26012020	260120	142045	102.850	12.325942	-56.793647	102.910	-0.150	-0.190	0.670	102.850	-1.200	1.000																			1580048445.0	10.96	20.30
26/01/2020 14:20:46	26012020	260120	142046	102.880	12.325930	-56.793593	103.010	0.300	-0.900	0.550	102.900	-2.100	1.000																			1580048446.0	11.60	21.48
26/01/2020 14:20:47	26012020	260120	142047	103.000	12.325920	-56.793542	103.120	0.450	-0.800	0.410	103.020	-2.300	0.900																			1580048447.0	11.30	20.93
26/01/2020 14:20:48	26012020	260120	142048	103.100	12.325912	-56.793493	103.090	0.300	-0.410	0.220	103.100	-1.900	0.700																			1580048448.0	10.37	19.21
26/01/2020 14:20:49	26012020	260120	142049	103.000	12.325903	-56.793445	102.780	0.260	-0.570	0.120	102.940	-1.800	0.500																			1580048449.0	10.31	19.09
26/01/2020 14:20:50	26012020	260120	142050	102.630	12.325893	-56.793393	102.360	0.420	-1.030	0.200	102.540	-2.300	0.600																			1580048450.0	11.25	20.84
26/01/2020 14:20:51	26012020	260120	142051	102.240	12.325883	-56.793338	102.190	0.340	-0.840	0.290	102.200	-2.400	0.600																			1580048451.0	11.65	21.58
26/01/2020 14:20:52	26012020	260120	142052	102.160	12.325873	-56.793288	102.350	-0.150	-0.070	0.430	102.180	-1.800	0.800																			1580048452.0	10.90	20.19
26/01/2020 14:20:53	26012020	260120	142053	102.350	12.325862	-56.793240	102.500	-0.650	0.420	0.750	102.390	-1.100	1.000																			1580048453.0	10.36	19.19
26/01/2020 14:20:54	26012020	260120	142054	102.450	12.325847	-56.793192	102.450	-0.740	0.270	1.020	102.440	-1.000	1.300																			1580048454.0	10.81	20.02
26/01/2020 14:20:55	26012020	260120	142055	102.360	12.325832	-56.793140	102.350	-0.430	-0.090	1.020	102.340	-1.400	1.400																			1580048455.0	11.47	21.24
26/01/2020 14:20:56	26012020	260120	142056	102.290	12.325820	-56.793087	102.400	-0.040	-0.230	0.700	102.300	-1.600	1.200																			1580048456.0	11.52	21.34
26/01/2020 14:20:57	26012020	260120	142057	102.410	12.325810	-56.793035	102.650	0.170	-0.130	0.270	102.450	-1.600	0.800																			1580048457.0	11.17	20.69
26/01/2020 14:20:58	26012020	260120	142058	102.710	12.325802	-56.792985	103.010	0.120	0.150	-0.090	102.780	-1.400	0.400																			1580048458.0	10.80	20.00
26/01/2020 14:20:59	26012020	260120	142059	103.060	12.325793	-56.792935	103.240	-0.030	0.310	-0.130	103.120	-1.100	0.200																			1580048459.0	10.47	19.39
26/01/2020 14:21:00	26012020	260120	142100	103.230	12.325782	-56.792887	103.260	-0.020	0.010	0.130	103.230	-1.200	0.400	1016.50	26.00	26.00	19.30	19.40	821.00	66.00	66.00	374.00	28.90	357.00	9.80	94.00	4.10	59475	3222.00	27.50	27.50	1580048460.0	10.51	19.46
26/01/2020 14:21:01	26012020	260120	142101	103.180	12.325770	-56.792837	103.110	0.200	-0.590	0.380	103.150	-1.800	0.700																			1580048461.0	10.97	20.32
26/01/2020 14:21:02	26012020	260120	142102	102.990	12.325758	-56.792785	102.850	0.480	-1.090	0.480	102.940	-2.300	0.900																			1580048462.0	11.28	20.89
26/01/2020 14:21:03	26012020	260120	142103	102.710	12.325748	-56.792732	102.510	0.640	-1.300	0.480	102.640	-2.700	0.900																			1580048463.0	11.29	20.91
26/01/2020 14:21:04	26012020	260120	142104	102.440	12.325740	-56.792680	102.190	0.520	-0.990	0.640	102.380	-2.600	1.000																			1580048464.0	11.21	20.76
26/01/2020 14:21:05	26012020	260120	142105	102.070	12.325728	-56.792630	102.040	0.040	-0.200	0.730	102.030	-1.900	1.100																			1580048465.0	10.83	20.06
26/01/2020 14:21:06	26012020	260120	142105	102.000	12.325718	-56.792582	102.130	-0.570	0.570	0.670	102.000	-1.100	1.100																			1580048465.0	10.39	19.24
26/01/2020 14:21:07	26012020	260120	142107	102.140	12.325707	-56.792533	102.290	-0.960	0.750	0.690	102.160	-0.600	1.100																			1580048467.0	10.47	19.39
26/01/2020 14:21:08	26012020	260120	142108	102.270	12.325692	-56.792483	102.380	-0.870	0.310	0.660	102.280	-0.900	1.100																			1580048468.0	11.02	20.41
26/01/2020 14:21:09	26012020	260120	142109	102.340	12.325678	-56.792432	102.430	-0.380	-0.280	0.570	102.350	-1.500	1.000																			1580048469.0	11.54	21.37
26/01/2020 14:21:10	26012020	260120	142110	102.350	12.325667	-56.792378	102.380	0.220	-0.570	0.390	102.350	-1.900	0.900																			1580048470.0	11.50	21.30
26/01/2020 14:21:11	26012020	260120	142110	102.320	12.325657	-56.792327	102.320	0.630	-0.560	0.080	102.310	-2.000	0.600																			1580048470.0	11.12	20.59
26/01/2020 14:21:12	26012020	260120	142112	102.290	12.325650	-56.792275	102.330	0.710	-0.410	-0.020	102.290	-1.900	0.400																			1580048472.0	10.89	20.17
26/01/2020 14:21:13	26012020	260120	142113	102.320	12.325642	-56.792225	102.350	0.500	-0.230	0.230	102.330	-1.700	0.500																			1580048473.0	10.75	19.91
26/01/2020 14:21:14	26012020	260120	142114	102.340	12.325632	-56.792175	102.300	0.210	-0.130	0.500	102.330	-1.600	0.800																			1580048474.0	10.71	19.83
26/01/2020 14:21:15	26012020	260120	142115	102.250	12.325620	-56.792125	102.100	0.030	-0.230	0.770	102.210	-1.600	1.100																			1580048475.0	10.84	20.08
26/01/2020 14:21:16	26012020	260120	142116	102.040	12.325608	-56.792075	101.920	-0.080	-0.360	1.010	102.000	-1.700	1.300																			1580048476.0	11.10	20.56
26/01/2020 14:21:17	26012020	260120	142117	101.880	12.325597	-56.792023	101.830	-0.220	-0.350	0.990	101.850	-1.800	1.400																			1580048477.0	11.10	20.56
26/01/2020 14:21:18	26012020	260120	142118	101.790	12.325587	-56.791973	101.780	-0.370	-0.230	0.890	101.770	-1.700	1.300																			1580048478.0	10.96	20.30
26/01/2020 14:21:19	26012020	260120	142119	101.730	12.325575	-56.791923	101.790	-0.420	-0.160	0.770	101.740	-1.600	1.200																			1580048479.0	10.85	20.09
26/01/2020 14:21:20	26012020	260120	142120	101.790	12.325565	-56.791872	101.880	-0.270	-0.280	0.590	101.810	-1.600	1.000																			1580048480.0	10.96	20.30
26/01/2020 14:21:21	26012020	260120	142121	101.890	12.325553	-56.791820	101.900	-0.020	-0.390	0.470	101.900	-1.800	0.900																			1580048481.0	11.22	20.78
26/01/2020 14:21:22	26012020	260120	142122	101.880	12.325543	-56.791768	101.850	0.140	-0.210	0.410	101.870	-1.700	0.800																			1580048482.0	11.17	20.69
26/01/2020 14:21:23	26012020	260120	142123	101.830	12.325533	-56.791718	101.830	0.180	0.010	0.370	101.820	-1.500	0.800																			1580048483.0	10.79	19.98
26/01/2020 14:21:24	26012020	260120	142124	101.820	12.325525	-56.791668	101.880	0.240	-0.060	0.390	101.830	-1.400	0.800																			1580048484.0	10.77	19.95
26/01/2020 14:21:25	26012020	260120	142125	101.890	12.325515	-56.791617	101.940	0.340	-0.330	0.420	101.900	-1.600	0.800																			1580048485.0	11.13	20.61
26/01/2020 14:21:26	26012020	260120	142126	101.930	12.325505	-56.791563	101.920	0.280	-0.360	0.560	101.920	-1.800	0.900																			1580048486.0	11.28	20.89
26/01/2020 14:21:27	26012020	260120	142127	101.890	12.325495	-56.791513	101.910	0.030	-0.160	0.840	101.880	-1.600	1.100																			1580048487.0	10.91	20.21
26/01/2020 14:21:28	26012020	260120	142128	101.900	12.325485	-56.791465	101.970	-0.160	-0.170	1.020	101.910	-1.500	1.400																			1580048488.0	10.65	19.72
26/01/2020 14:21:29	26012020	260120	142129	101.930	12.325473	-56.791413	101.920	-0.110	-0.480	0.960	101.930	-1.800	1.400																			1580048489.0	11.01	20.39
26/01/2020 14:21:30	26012020	260120	142130	101.850	12.325463	-56.791360	101.790	0.010	-0.630	0.740	101.830	-2.000	1.200																			1580048490.0	11.38	21.08
26/01/2020 14:21:31	26012020	260120	142131	101.740	12.325453	-56.791308	101.740	-0.030	-0.340	0.600	101.720	-1.900	1.000																			1580048491.0	11.17	20.69
26/01/2020 14:21:32	26012020	260120	142132	101.710	12.325443	-56.791260	101.830	-0.260	0.140	0.430	101.730	-1.400	0.900																			1580048492.0	10.68	19.78
26/01/2020 14:21:33	26012020	260120	142133	101.820	12.325433	-56.791210	101.950	-0.440	0.240	0.250	101.840	-1.100	0.700																			1580048493.0	10.50	19.45
26/01/2020 14:21:34	26012020	260120	142134	101.940	12.325423	-56.791160	102.040	-0.300	-0.260	0.120	101.970	-1.400	0.500																			1580048494.0	10.94	20.26
26/01/2020 14:21:35	26012020	260120	142135	102.010	12.325413	-56.791107	101.990	0.130	-0.800	0.170	102.000	-2.100	0.500																			1580048495.0	11.62	21.52
26/01/2020 14:21:36	26012020	260120	142136	101.910	12.325402	-56.791052	101.840	0.400	-0.680	0.340	101.880	-2.200	0.700																			1580048496.0	11.59	21.46
26/01/2020 14:21:37	26012020	260120	142137	101.760	12.325392	-56.791002	101.750	0.280	-0.090	0.390	101.750	-1.700	0.800																			1580048497.0	10.85	20.09
26/01/2020 14:21:38	26012020	260120	142138	101.720	12.325383	-56.790953	101.770	-0.030	0.270	0.300	101.720	-1.200	0.700																			1580048498.0	10.40	19.26
26/01/2020 14:21:39	26012020	260120	142139	101.760	12.325375	-56.790903	101.820	-0.150	0.050	0.150	101.770	-1.200	0.600																			1580048499.0	10.73	19.87
26/01/2020 14:21:40	26012020	260120	142140	101.820	12.325365	-56.790852	101.860	-0.070	-0.290	0.120	101.820	-1.600	0.500																			1580048500.0	11.35	21.02
26/01/2020 14:21:41	26012020	260120	142141	101.820	12.325355	-56.790798	101.780	0.030	-0.340	0.250	101.810	-1.800	0.600																			1580048501.0	11.33	20.98
26/01/2020 14:21:42	26012020	260120	142142	101.730	12.325343	-56.790748	101.640	0.110	-0.240	0.410	101.710	-1.700	0.700																			1580048502.0	10.92	20.22
26/01/2020 14:21:43	26012020	260120	142143	101.580	12.325333	-56.790698	101.600	0.180	-0.310	0.480	101.570	-1.700	0.900																			1580048503.0	10.85	20.09
26/01/2020 14:21:44	26012020	260120	142144	101.560	12.325323	-56.790647	101.640	0.150	-0.380	0.470	101.570	-1.800	0.900																			1580048504.0	11.12	20.59
26/01/2020 14:21:45	26012020	260120	142144	101.620	12.325313	-56.790595	101.680	-0.090	-0.160	0.520	101.630	-1.700	0.900																			1580048504.0	11.03	20.43
26/01/2020 14:21:46	26012020	260120	142146	101.620	12.325303	-56.790547	101.600	-0.400	0.020	0.730	101.610	-1.400	1.000																			1580048506.0	10.63	19.69
26/01/2020 14:21:47	26012020	260120	142147	101.530	12.325292	-56.790497	101.500	-0.440	-0.290	0.970	101.500	-1.500	1.300																			1580048507.0	10.73	19.87
26/01/2020 14:21:48	26012020	260120	142148	101.420	12.325278	-56.790445	101.420	-0.090	-0.900	1.030	101.390	-2.100	1.400																			1580048508.0	11.37	21.06
26/01/2020 14:21:49	26012020	260120	142149	101.350	12.325268	-56.790390	101.380	0.310	-1.000	0.820	101.340	-2.500	1.300																			1580048509.0	11.77	21.80
26/01/2020 14:21:50	26012020	260120	142150	101.320	12.325258	-56.790338	101.330	0.350	-0.370	0.610	101.310	-2.100	1.100																			1580048510.0	11.21	20.76
26/01/2020 14:21:51	26012020	260120	142151	101.280	12.325250	-56.790288	101.320	0.060	0.330	0.520	101.270	-1.300	0.900																			1580048511.0	10.47	19.39
26/01/2020 14:21:52	26012020	260120	142152	101.320	12.325242	-56.790240	101.430	-0.170	0.480	0.360	101.340	-0.900	0.800																			1580048512.0	10.46	19.37
26/01/2020 14:21:53	26012020	260120	142153	101.440	12.325233	-56.790188	101.530	-0.090	0.060	0.190	101.460	-1.200	0.600																			1580048513.0	11.07	20.50
26/01/2020 14:21:54	26012020	260120	142154	101.520	12.325225	-56.790135	101.600	0.110	-0.400	0.240	101.530	-1.700	0.600																			1580048514.0	11.59	21.46
26/01/2020 14:21:55	26012020	260120	142155	101.600	12.325215	-56.790082	101.700	0.130	-0.400	0.490	101.620	-1.900	0.800																			1580048515.0	11.48	21.26
26/01/2020 14:21:56	26012020	260120	142155	101.680	12.325203	-56.790032	101.800	-0.110	-0.010	0.810	101.700	-1.600	1.100																			1580048515.0	10.82	20.04
26/01/2020 14:21:57	26012020	260120	142156	101.780	12.325192	-56.789983	101.930	-0.350	0.190	0.880	101.810	-1.300	1.300																			1580048516.0	10.39	19.24
26/01/2020 14:21:58	26012020	260120	142158	101.950	12.325182	-56.789935	102.120	-0.340	-0.070	0.680	101.990	-1.300	1.100																			1580048518.0	10.61	19.65
26/01/2020 14:21:59	26012020	260120	142159	102.100	12.325172	-56.789883	102.090	-0.020	-0.660	0.530	102.100	-1.800	1.000																			1580048519.0	11.08	20.52
26/01/2020 14:22:00	26012020	260120	142200	101.980	12.325162	-56.789830	101.790	0.460	-1.120	0.400	101.930	-2.400	0.800	1016.60	26.00	26.00	19.80	19.80	819.00	68.00	68.00	374.00	28.90	354.00	9.70	87.00	4.10	59516	3170.00	27.60	27.50	1580048520.0	11.48	21.26
26/01/2020 14:22:01	26012020	260120	142201	101.670	12.325153	-56.789777	101.510	0.770	-1.080	0.340	101.610	-2.600	0.700																			1580048521.0	11.47	21.24
26/01/2020 14:22:02	26012020	260120	142202	101.440	12.325145	-56.789725	101.430	0.690	-0.650	0.360	101.420	-2.300	0.700																			1580048522.0	11.13	20.61
26/01/2020 14:22:03	26012020	260120	142203	101.420	12.325137	-56.789673	101.580	0.180	0.060	0.400	101.440	-1.600	0.800																			1580048523.0	10.85	20.09
26/01/2020 14:22:04	26012020	260120	142204	101.610	12.325127	-56.789625	101.860	-0.490	0.720	0.580	101.670	-0.900	0.900																			1580048524.0	10.51	19.46
26/01/2020 14:22:05	26012020	260120	142205	101.890	12.325115	-56.789577	102.110	-0.880	0.750	0.860	101.940	-0.600	1.200																			1580048525.0	10.48	19.41
26/01/2020 14:22:06	26012020	260120	142206	102.100	12.325102	-56.789527	102.260	-0.740	0.060	0.980	102.140	-1.100	1.400																			1580048526.0	11.11	20.58
26/01/2020 14:22:07	26012020	260120	142207	102.210	12.325088	-56.789472	102.300	-0.290	-0.680	0.880	102.220	-1.900	1.300																			1580048527.0	11.75	21.76
26/01/2020 14:22:08	26012020	260120	142208	102.240	12.325078	-56.789418	102.350	0.090	-0.820	0.590	102.260	-2.300	1.100																			1580048528.0	11.65	21.58
26/01/2020 14:22:09	26012020	260120	142208	102.320	12.325068	-56.789367	102.440	0.190	-0.470	0.210	102.340	-2.000	0.800																			1580048528.0	10.96	20.30
26/01/2020 14:22:10	26012020	260120	142210	102.430	12.325062	-56.789318	102.490	0.130	-0.130	-0.060	102.440	-1.600	0.400																			1580048530.0	10.54	19.52
26/01/2020 14:22:11	26012020	260120	142211	102.440	12.325053	-56.789268	102.460	0.110	-0.130	-0.100	102.440	-1.500	0.300																			1580048531.0	10.67	19.76
26/01/2020 14:22:12	26012020	260120	142211	102.410	12.325043	-56.789217	102.440	0.180	-0.330	0.020	102.400	-1.700	0.400																			1580048531.0	11.09	20.54
26/01/2020 14:22:13	26012020	260120	142213	102.400	12.325032	-56.789165	102.410	0.260	-0.430	0.260	102.400	-1.800	0.600																			1580048533.0	11.26	20.85
26/01/2020 14:22:14	26012020	260120	142214	102.340	12.325020	-56.789113	102.270	0.330	-0.410	0.470	102.320	-1.900	0.800																			1580048534.0	11.16	20.67
26/01/2020 14:22:15	26012020	260120	142215	102.190	12.325010	-56.789062	102.170	0.280	-0.220	0.510	102.170	-1.700	0.900																			1580048535.0	11.11	20.58
26/01/2020 14:22:16	26012020	260120	142216	102.150	12.325000	-56.789012	102.250	0.070	0.040	0.390	102.170	-1.400	0.800																			1580048536.0	10.87	20.13
26/01/2020 14:22:17	26012020	260120	142217	102.280	12.324992	-56.788962	102.420	-0.130	0.070	0.240	102.310	-1.300	0.700																			1580048537.0	10.80	20.00
26/01/2020 14:22:18	26012020	260120	142217	102.460	12.324982	-56.788910	102.580	-0.290	0.000	0.190	102.500	-1.400	0.600																			1580048537.0	11.02	20.41
26/01/2020 14:22:19	26012020	260120	142219	102.610	12.324970	-56.788860	102.620	-0.380	-0.110	0.320	102.620	-1.500	0.600																			1580048539.0	10.98	20.33
26/01/2020 14:22:20	26012020	260120	142219	102.600	12.324957	-56.788808	102.530	-0.250	-0.450	0.560	102.580	-1.700	0.900																			1580048539.0	10.98	20.33
26/01/2020 14:22:21	26012020	260120	142221	102.460	12.324945	-56.788757	102.390	0.070	-0.880	0.700	102.430	-2.200	1.000																			1580048541.0	11.34	21.00
26/01/2020 14:22:22	26012020	260120	142221	102.320	12.324933	-56.788703	102.330	0.250	-0.900	0.630	102.310	-2.400	1.100																			1580048541.0	11.49	21.28
26/01/2020 14:22:23	26012020	260120	142223	102.290	12.324922	-56.788653	102.320	0.130	-0.420	0.460	102.290	-2.000	0.900																			1580048543.0	11.08	20.52
26/01/2020 14:22:24	26012020	260120	142224	102.280	12.324913	-56.788603	102.270	-0.100	0.100	0.420	102.270	-1.500	0.800																			1580048544.0	10.61	19.65
26/01/2020 14:22:25	26012020	260120	142225	102.210	12.324903	-56.788555	102.160	-0.200	0.150	0.370	102.180	-1.200	0.800																			1580048545.0	10.67	19.76
26/01/2020 14:22:26	26012020	260120	142226	102.110	12.324892	-56.788502	102.050	-0.110	-0.150	0.410	102.090	-1.500	0.800																			1580048546.0	11.25	20.84
26/01/2020 14:22:27	26012020	260120	142227	102.040	12.324880	-56.788448	102.070	0.000	-0.210	0.460	102.040	-1.600	0.800																			1580048547.0	11.51	21.32
26/01/2020 14:22:28	26012020	260120	142227	102.090	12.324868	-56.788398	102.180	0.010	0.040	0.530	102.110	-1.500	0.900																			1580048547.0	11.08	20.52
26/01/2020 14:22:29	26012020	260120	142229	102.210	12.324858	-56.788348	102.320	-0.060	0.190	0.630	102.240	-1.300	1.000																			1580048549.0	10.73	19.87
26/01/2020 14:22:30	26012020	260120	142230	102.340	12.324847	-56.788298	102.410	-0.070	0.020	0.620	102.360	-1.300	1.000																			1580048550.0	10.78	19.96
26/01/2020 14:22:31	26012020	260120	142231	102.420	12.324837	-56.788247	102.430	0.110	-0.360	0.610	102.420	-1.600	1.000																			1580048551.0	11.06	20.48
26/01/2020 14:22:32	26012020	260120	142232	102.420	12.324827	-56.788195	102.460	0.390	-0.680	0.630	102.420	-2.000	1.000																			1580048552.0	11.26	20.85
26/01/2020 14:22:33	26012020	260120	142233	102.440	12.324817	-56.788143	102.480	0.530	-0.770	0.680	102.450	-2.200	1.100																			1580048553.0	11.23	20.80
26/01/2020 14:22:34	26012020	260120	142234	102.460	12.324807	-56.788092	102.480	0.400	-0.640	0.730	102.450	-2.100	1.100																			1580048554.0	11.04	20.45
26/01/2020 14:22:35	26012020	260120	142234	102.430	12.324797	-56.788042	102.410	0.080	-0.390	0.900	102.420	-1.900	1.200																			1580048554.0	10.87	20.13
26/01/2020 14:22:36	26012020	260120	142236	102.330	12.324785	-56.787992	102.240	-0.180	-0.220	1.140	102.290	-1.700	1.500																			1580048556.0	10.84	20.08
26/01/2020 14:22:37	26012020	260120	142237	102.120	12.324773	-56.787940	102.060	-0.290	-0.210	1.140	102.080	-1.600	1.600																			1580048557.0	11.06	20.48
26/01/2020 14:22:38	26012020	260120	142237	101.980	12.324762	-56.787888	102.030	-0.410	-0.130	1.010	101.970	-1.600	1.500																			1580048557.0	11.28	20.89
26/01/2020 14:22:39	26012020	260120	142239	101.980	12.324752	-56.787837	102.100	-0.570	0.000	0.780	102.000	-1.500	1.300																			1580048559.0	11.09	20.54
26/01/2020 14:22:40	26012020	260120	142240	102.070	12.324740	-56.787787	102.170	-0.500	-0.100	0.430	102.090	-1.400	1.000																			1580048560.0	11.00	20.37
26/01/2020 14:22:41	26012020	260120	142241	102.150	12.324730	-56.787733	102.230	-0.090	-0.370	0.200	102.160	-1.700	0.700																			1580048561.0	11.32	20.96
26/01/2020 14:22:42	26012020	260120	142242	102.230	12.324718	-56.787680	102.380	0.270	-0.340	0.070	102.260	-1.800	0.500																			1580048562.0	11.50	21.30
26/01/2020 14:22:43	26012020	260120	142242	102.430	12.324710	-56.787630	102.660	0.270	0.150	0.020	102.480	-1.500	0.400																			1580048562.0	11.02	20.41
26/01/2020 14:22:44	26012020	260120	142244	102.720	12.324700	-56.787582	102.890	0.050	0.530	0.090	102.720	-1.000	0.400																			1580048564.0	10.36	19.19
26/01/2020 14:22:45	26012020	260120	142245	102.900	12.324690	-56.787533	102.940	0.020	0.120	0.300	102.920	-1.100	0.600																			1580048565.0	10.46	19.37
26/01/2020 14:22:46	26012020	260120	142246	102.900	12.324678	-56.787480	102.880	0.310	-0.740	0.440	102.890	-1.900	0.800																			1580048566.0	11.37	21.06
26/01/2020 14:22:47	26012020	260120	142246	102.830	12.324667	-56.787427	102.920	0.540	-1.070	0.400	102.840	-2.500	0.800																			1580048566.0	11.76	21.78
26/01/2020 14:22:48	26012020	260120	142248	102.890	12.324658	-56.787375	103.000	0.450	-0.650	0.420	102.900	-2.300	0.800																			1580048568.0	11.10	20.56
26/01/2020 14:22:49	26012020	260120	142249	102.960	12.324648	-56.787327	102.980	0.100	-0.120	0.490	102.960	-1.700	0.900																			1580048569.0	10.38	19.22
26/01/2020 14:22:50	26012020	260120	142250	102.870	12.324638	-56.787278	102.730	-0.240	-0.090	0.620	102.830	-1.400	1.000																			1580048570.0	10.47	19.39
26/01/2020 14:22:51	26012020	260120	142250	102.590	12.324627	-56.787227	102.430	-0.360	-0.500	0.840	102.520	-1.700	1.100																			1580048570.0	11.13	20.61
26/01/2020 14:22:52	26012020	260120	142252	102.290	12.324613	-56.787173	102.220	-0.260	-0.840	0.980	102.240	-2.200	1.400																			1580048572.0	11.67	21.61
26/01/2020 14:22:53	26012020	260120	142253	102.110	12.324600	-56.787120	102.130	-0.180	-0.610	0.870	102.100	-2.200	1.300																			1580048573.0	11.62	21.52
26/01/2020 14:22:54	26012020	260120	142254	102.070	12.324588	-56.787070	102.220	-0.330	0.100	0.690	102.080	-1.600	1.100																			1580048574.0	11.01	20.39
26/01/2020 14:22:55	26012020	260120	142255	102.210	12.324577	-56.787022	102.500	-0.550	0.650	0.490	102.270	-0.900	1.000																			1580048575.0	10.48	19.41
26/01/2020 14:22:56	26012020	260120	142256	102.510	12.324565	-56.786972	102.720	-0.480	0.540	0.350	102.570	-0.800	0.800																			1580048576.0	10.62	19.67
26/01/2020 14:22:57	26012020	260120	142257	102.700	12.324553	-56.786920	102.750	-0.080	0.010	0.250	102.700	-1.200	0.700																			1580048577.0	11.24	20.82
26/01/2020 14:22:58	26012020	260120	142258	102.710	12.324543	-56.786867	102.740	0.370	-0.380	0.220	102.700	-1.700	0.600																			1580048578.0	11.48	21.26
26/01/2020 14:22:59	26012020	260120	142259	102.710	12.324533	-56.786815	102.830	0.620	-0.490	0.170	102.730	-1.900	0.600																			1580048579.0	11.21	20.76
26/01/2020 14:23:00	26012020	260120	142300	102.820	12.324523	-56.786765	102.900	0.620	-0.460	0.120	102.840	-1.900	0.500	1016.60	26.00	26.00	19.90	19.90	822.00	69.00	69.00	374.00	28.90	355.00	9.70	91.00	4.10	59734	3322.00	27.60	27.50	1580048580.0	10.88	20.15
26/01/2020 14:23:01	26012020	260120	142301	102.870	12.324515	-56.786715	102.830	0.480	-0.430	0.190	102.850	-1.900	0.500																			1580048581.0	10.76	19.93
26/01/2020 14:23:02	26012020	260120	142302	102.770	12.324505	-56.786665	102.720	0.330	-0.390	0.460	102.740	-1.800	0.700																			1580048582.0	10.83	20.06
26/01/2020 14:23:03	26012020	260120	142303	102.650	12.324495	-56.786613	102.630	0.160	-0.390	0.720	102.630	-1.800	1.000																			1580048583.0	10.88	20.15
26/01/2020 14:23:04	26012020	260120	142304	102.560	12.324483	-56.786563	102.520	-0.060	-0.470	0.840	102.540	-1.800	1.200																			1580048584.0	11.02	20.41
26/01/2020 14:23:05	26012020	260120	142305	102.430	12.324472	-56.786512	102.300	-0.270	-0.600	0.900	102.380	-2.000	1.300																			1580048585.0	11.16	20.67
26/01/2020 14:23:06	26012020	260120	142306	102.160	12.324460	-56.786460	102.020	-0.370	-0.630	1.020	102.100	-2.100	1.400																			1580048586.0	11.29	20.91
26/01/2020 14:23:07	26012020	260120	142307	101.900	12.324447	-56.786408	101.900	-0.490	-0.300	0.970	101.870	-1.900	1.400																			1580048587.0	11.29	20.91
26/01/2020 14:23:08	26012020	260120	142308	101.830	12.324435	-56.786358	101.950	-0.650	0.160	0.750	101.840	-1.400	1.200																			1580048588.0	10.90	20.19
26/01/2020 14:23:09	26012020	260120	142309	101.900	12.324423	-56.786308	101.990	-0.650	0.270	0.610	101.910	-1.100	1.000																			1580048589.0	10.77	19.95
26/01/2020 14:23:10	26012020	260120	142309	101.920	12.324412	-56.786257	101.950	-0.350	-0.030	0.390	101.920	-1.300	0.900																			1580048589.0	11.19	20.72
26/01/2020 14:23:11	26012020	260120	142311	101.900	12.324400	-56.786203	101.980	0.110	-0.240	0.160	101.900	-1.600	0.600																			1580048591.0	11.53	21.35
26/01/2020 14:23:12	26012020	260120	142311	101.980	12.324390	-56.786150	102.140	0.470	-0.110	-0.010	102.000	-1.600	0.400																			1580048591.0	11.30	20.93
26/01/2020 14:23:13	26012020	260120	142313	102.170	12.324382	-56.786100	102.360	0.580	0.160	-0.180	102.210	-1.400	0.300																			1580048593.0	10.80	20.00
26/01/2020 14:23:14	26012020	260120	142314	102.370	12.324373	-56.786052	102.450	0.550	0.160	-0.170	102.400	-1.200	0.200																			1580048594.0	10.59	19.61
26/01/2020 14:23:15	26012020	260120	142315	102.430	12.324365	-56.786000	102.420	0.510	-0.230	0.060	102.420	-1.500	0.400																			1580048595.0	10.83	20.06
26/01/2020 14:23:16	26012020	260120	142315	102.380	12.324355	-56.785948	102.400	0.450	-0.680	0.460	102.380	-2.000	0.700																			1580048595.0	11.21	20.76
26/01/2020 14:23:17	26012020	260120	142317	102.350	12.324343	-56.785897	102.340	0.260	-0.850	0.860	102.340	-2.200	1.100																			1580048597.0	11.22	20.78
26/01/2020 14:23:18	26012020	260120	142318	102.240	12.324333	-56.785847	102.180	-0.070	-0.740	1.050	102.220	-2.200	1.400																			1580048598.0	11.00	20.37
26/01/2020 14:23:19	26012020	260120	142319	102.050	12.324322	-56.785797	101.940	-0.440	-0.520	1.200	102.000	-2.000	1.500																			1580048599.0	10.85	20.09
26/01/2020 14:23:20	26012020	260120	142319	101.850	12.324308	-56.785747	101.690	-0.650	-0.440	1.280	101.810	-1.900	1.700																			1580048599.0	10.90	20.19
26/01/2020 14:23:21	26012020	260120	142320	101.560	12.324297	-56.785695	101.490	-0.570	-0.540	1.140	101.520	-1.900	1.600																			1580048600.0	11.24	20.82
26/01/2020 14:23:22	26012020	260120	142322	101.370	12.324283	-56.785642	101.340	-0.330	-0.460	0.890	101.330	-2.000	1.400																			1580048602.0	11.56	21.41
26/01/2020 14:23:23	26012020	260120	142323	101.280	12.324273	-56.785588	101.390	-0.160	0.000	0.500	101.280	-1.600	1.100																			1580048603.0	11.36	21.04
26/01/2020 14:23:24	26012020	260120	142324	101.400	12.324263	-56.785538	101.610	-0.110	0.470	0.030	101.450	-1.100	0.600																			1580048604.0	10.91	20.21
26/01/2020 14:23:25	26012020	260120	142325	101.670	12.324255	-56.785487	101.940	-0.040	0.610	-0.270	101.730	-0.800	0.200																			1580048605.0	10.81	20.02
26/01/2020 14:23:26	26012020	260120	142326	102.040	12.324247	-56.785437	102.270	0.120	0.360	-0.260	102.110	-0.900	0.100																			1580048606.0	11.00	20.37
26/01/2020 14:23:27	26012020	260120	142327	102.330	12.324237	-56.785383	102.410	0.300	-0.100	0.010	102.360	-1.400	0.300																			1580048607.0	11.21	20.76
26/01/2020 14:23:28	26012020	260120	142328	102.420	12.324225	-56.785332	102.430	0.370	-0.450	0.370	102.420	-1.800	0.600																			1580048608.0	11.25	20.84
26/01/2020 14:23:29	26012020	260120	142329	102.400	12.324215	-56.785282	102.370	0.310	-0.600	0.580	102.380	-2.000	0.900																			1580048609.0	11.03	20.43
26/01/2020 14:23:30	26012020	260120	142329	102.320	12.324205	-56.785232	102.270	0.240	-0.630	0.620	102.290	-2.000	1.000																			1580048609.0	10.84	20.08
26/01/2020 14:23:31	26012020	260120	142331	102.190	12.324195	-56.785180	102.100	0.210	-0.690	0.550	102.160	-2.100	1.000																			1580048611.0	10.88	20.15
26/01/2020 14:23:32	26012020	260120	142332	102.000	12.324185	-56.785128	101.910	0.160	-0.720	0.440	101.950	-2.100	0.900																			1580048612.0	11.08	20.52
26/01/2020 14:23:33	26012020	260120	142333	101.830	12.324175	-56.785077	101.870	-0.000	-0.540	0.320	101.820	-2.100	0.800																			1580048613.0	11.17	20.69
26/01/2020 14:23:34	26012020	260120	142334	101.850	12.324165	-56.785027	101.970	-0.320	-0.100	0.270	101.850	-1.700	0.700																			1580048614.0	10.99	20.35
26/01/2020 14:23:35	26012020	260120	142335	101.960	12.324153	-56.784977	102.010	-0.590	0.180	0.330	101.970	-1.300	0.700																			1580048615.0	10.70	19.82
26/01/2020 14:23:36	26012020	260120	142336	101.960	12.324140	-56.784927	101.920	-0.490	-0.080	0.490	101.950	-1.400	0.800																			1580048616.0	10.96	20.30
26/01/2020 14:23:37	26012020	260120	142337	101.850	12.324128	-56.784873	101.860	-0.070	-0.490	0.610	101.840	-1.800	1.000																			1580048617.0	11.57	21.43
26/01/2020 14:23:38	26012020	260120	142338	101.830	12.324117	-56.784820	101.930	0.240	-0.510	0.530	101.850	-2.000	1.000																			1580048618.0	11.69	21.65
26/01/2020 14:23:39	26012020	260120	142339	101.920	12.324107	-56.784768	102.000	0.180	-0.060	0.440	101.940	-1.700	0.900																			1580048619.0	11.15	20.65
26/01/2020 14:23:40	26012020	260120	142339	101.960	12.324098	-56.784718	101.980	-0.030	0.280	0.390	101.950	-1.200	0.800																			1580048619.0	10.59	19.61
26/01/2020 14:23:41	26012020	260120	142341	101.930	12.324088	-56.784668	101.970	-0.040	0.120	0.380	101.930	-1.200	0.800																			1580048621.0	10.80	20.00
26/01/2020 14:23:42	26012020	260120	142341	101.960	12.324078	-56.784617	102.070	0.100	-0.230	0.380	101.990	-1.500	0.800																			1580048621.0	11.28	20.89
26/01/2020 14:23:43	26012020	260120	142343	102.060	12.324068	-56.784563	102.140	0.160	-0.320	0.370	102.080	-1.800	0.800																			1580048623.0	11.35	21.02
26/01/2020 14:23:44	26012020	260120	142344	102.110	12.324057	-56.784513	102.110	0.060	-0.120	0.410	102.100	-1.600	0.800																			1580048624.0	10.92	20.22
26/01/2020 14:23:45	26012020	260120	142345	102.040	12.324047	-56.784463	102.030	-0.030	-0.140	0.510	102.010	-1.500	0.900																			1580048625.0	10.60	19.63
26/01/2020 14:23:46	26012020	260120	142346	101.950	12.324035	-56.784413	101.970	0.080	-0.560	0.520	101.940	-1.800	0.900																			1580048626.0	10.97	20.32
26/01/2020 14:23:47	26012020	260120	142347	101.890	12.324025	-56.784360	101.900	0.200	-0.810	0.510	101.880	-2.200	0.900																			1580048627.0	11.44	21.19
26/01/2020 14:23:48	26012020	260120	142348	101.810	12.324015	-56.784308	101.840	0.160	-0.610	0.470	101.800	-2.100	0.900																			1580048628.0	11.21	20.76
26/01/2020 14:23:49	26012020	260120	142349	101.770	12.324005	-56.784258	101.830	-0.000	-0.290	0.460	101.760	-1.800	0.800																			1580048629.0	10.84	20.08
26/01/2020 14:23:50	26012020	260120	142350	101.760	12.323995	-56.784208	101.840	-0.150	-0.150	0.510	101.760	-1.600	0.900																			1580048630.0	10.85	20.09
26/01/2020 14:23:51	26012020	260120	142350	101.770	12.323983	-56.784157	101.870	-0.210	-0.210	0.530	101.770	-1.600	0.900																			1580048630.0	11.12	20.59
26/01/2020 14:23:52	26012020	260120	142352	101.810	12.323973	-56.784103	101.890	-0.130	-0.290	0.500	101.820	-1.700	0.900																			1580048632.0	11.31	20.95
26/01/2020 14:23:53	26012020	260120	142353	101.810	12.323962	-56.784052	101.810	0.030	-0.220	0.470	101.790	-1.700	0.900																			1580048633.0	11.32	20.96
26/01/2020 14:23:54	26012020	260120	142354	101.720	12.323952	-56.784000	101.780	0.060	0.080	0.390	101.710	-1.500	0.800																			1580048634.0	11.14	20.63
26/01/2020 14:23:55	26012020	260120	142355	101.740	12.323943	-56.783950	101.940	-0.070	0.290	0.180	101.770	-1.200	0.700																			1580048635.0	10.82	20.04
26/01/2020 14:23:56	26012020	260120	142356	101.950	12.323933	-56.783900	102.160	-0.130	0.150	0.050	102.000	-1.200	0.500																			1580048636.0	10.84	20.08
26/01/2020 14:23:57	26012020	260120	142357	102.170	12.323923	-56.783848	102.250	-0.030	-0.270	0.050	102.200	-1.500	0.400																			1580048637.0	11.14	20.63
26/01/2020 14:23:58	26012020	260120	142358	102.220	12.323913	-56.783795	102.120	0.140	-0.650	0.180	102.210	-2.000	0.500																			1580048638.0	11.38	21.08
26/01/2020 14:23:59	26012020	260120	142359	102.010	12.323902	-56.783743	101.870	0.260	-0.670	0.520	101.960	-2.100	0.800																			1580048639.0	11.29	20.91
26/01/2020 14:24:00	26012020	260120	142400	101.790	12.323890	-56.783692	101.790	0.230	-0.430	0.650	101.770	-1.900	1.000	1016.60	25.90	26.00	19.80	19.80	825.00	68.00	68.00	374.00	28.90	358.00	9.70	97.00	4.00	59992	3122.00	27.60	27.50	1580048640.0	10.92	20.22
26/01/2020 14:24:01	26012020	260120	142400	101.770	12.323880	-56.783642	101.840	0.130	-0.380	0.510	101.770	-1.800	1.000																			1580048640.0	10.78	19.96
26/01/2020 14:24:02	26012020	260120	142402	101.800	12.323872	-56.783590	101.770	0.060	-0.500	0.450	101.790	-1.900	0.800																			1580048642.0	11.15	20.65
26/01/2020 14:24:03	26012020	260120	142402	101.700	12.323862	-56.783538	101.640	-0.060	-0.410	0.570	101.670	-1.900	0.900																			1580048642.0	11.36	21.04
26/01/2020 14:24:04	26012020	260120	142404	101.570	12.323850	-56.783487	101.620	-0.240	-0.140	0.800	101.560	-1.700	1.100																			1580048644.0	11.13	20.61
26/01/2020 14:24:05	26012020	260120	142405	101.590	12.323837	-56.783437	101.760	-0.350	0.050	0.850	101.620	-1.400	1.300																			1580048645.0	10.95	20.28
26/01/2020 14:24:06	26012020	260120	142406	101.770	12.323825	-56.783385	101.910	-0.240	0.060	0.700	101.810	-1.400	1.200																			1580048646.0	11.03	20.43
26/01/2020 14:24:07	26012020	260120	142407	101.890	12.323813	-56.783333	101.930	-0.000	-0.070	0.580	101.900	-1.400	1.000																			1580048647.0	11.21	20.76
26/01/2020 14:24:08	26012020	260120	142408	101.890	12.323805	-56.783282	101.970	0.180	-0.170	0.430	101.890	-1.600	0.900																			1580048648.0	11.30	20.93
26/01/2020 14:24:09	26012020	260120	142409	101.970	12.323797	-56.783230	102.140	0.200	-0.120	0.210	102.000	-1.600	0.700																			1580048649.0	11.16	20.67
26/01/2020 14:24:10	26012020	260120	142410	102.170	12.323788	-56.783178	102.340	0.110	-0.060	0.030	102.220	-1.500	0.500																			1580048650.0	10.91	20.21
26/01/2020 14:24:11	26012020	260120	142411	102.360	12.323778	-56.783128	102.430	0.050	-0.260	-0.030	102.390	-1.600	0.400																			1580048651.0	10.89	20.17
26/01/2020 14:24:12	26012020	260120	142412	102.420	12.323768	-56.783075	102.390	0.120	-0.570	0.130	102.420	-1.900	0.400																			1580048652.0	11.19	20.72
26/01/2020 14:24:13	26012020	260120	142413	102.350	12.323757	-56.783023	102.340	0.200	-0.610	0.420	102.330	-2.100	0.700																			1580048653.0	11.29	20.91
26/01/2020 14:24:14	26012020	260120	142414	102.300	12.323745	-56.782973	102.370	0.140	-0.410	0.580	102.310	-1.900	0.900																			1580048654.0	11.01	20.39
26/01/2020 14:24:15	26012020	260120	142415	102.330	12.323735	-56.782923	102.370	-0.010	-0.320	0.490	102.340	-1.700	0.900																			1580048655.0	10.82	20.04
26/01/2020 14:24:16	26012020	260120	142416	102.290	12.323725	-56.782872	102.220	-0.050	-0.530	0.340	102.260	-1.900	0.800																			1580048656.0	11.08	20.52
26/01/2020 14:24:17	26012020	260120	142417	102.120	12.323715	-56.782818	102.050	-0.000	-0.680	0.380	102.090	-2.100	0.700																			1580048657.0	11.52	21.34
26/01/2020 14:24:18	26012020	260120	142417	101.960	12.323702	-56.782765	101.950	-0.060	-0.420	0.580	101.940	-2.000	0.900																			1580048657.0	11.46	21.22
26/01/2020 14:24:19	26012020	260120	142419	101.880	12.323690	-56.782715	101.890	-0.250	0.080	0.590	101.870	-1.500	1.000																			1580048659.0	11.01	20.39
26/01/2020 14:24:20	26012020	260120	142420	101.800	12.323680	-56.782665	101.810	-0.420	0.350	0.480	101.780	-1.100	0.900																			1580048660.0	10.83	20.06
26/01/2020 14:24:21	26012020	260120	142420	101.760	12.323668	-56.782613	101.900	-0.450	0.240	0.380	101.770	-1.100	0.800																			1580048660.0	11.10	20.56
26/01/2020 14:24:22	26012020	260120	142422	101.910	12.323658	-56.782560	102.160	-0.330	0.050	0.200	101.960	-1.300	0.700																			1580048662.0	11.36	21.04
26/01/2020 14:24:23	26012020	260120	142423	102.190	12.323647	-56.782508	102.420	-0.060	-0.030	-0.040	102.240	-1.400	0.400																			1580048663.0	11.22	20.78
26/01/2020 14:24:24	26012020	260120	142424	102.390	12.323637	-56.782458	102.580	0.320	-0.230	-0.160	102.430	-1.500	0.300																			1580048664.0	11.04	20.45
26/01/2020 14:24:25	26012020	260120	142425	102.550	12.323627	-56.782405	102.630	0.640	-0.500	-0.180	102.560	-1.800	0.200																			1580048665.0	11.20	20.74
26/01/2020 14:24:26	26012020	260120	142426	102.590	12.323617	-56.782353	102.660	0.620	-0.520	-0.130	102.590	-2.000	0.200																			1580048666.0	11.22	20.78
26/01/2020 14:24:27	26012020	260120	142426	102.630	12.323608	-56.782303	102.740	0.280	-0.300	0.030	102.650	-1.800	0.300																			1580048666.0	10.86	20.11
26/01/2020 14:24:28	26012020	260120	142428	102.710	12.323597	-56.782253	102.740	-0.090	-0.190	0.420	102.720	-1.600	0.600																			1580048668.0	10.60	19.63
26/01/2020 14:24:29	26012020	260120	142429	102.650	12.323585	-56.782205	102.540	-0.260	-0.400	0.840	102.610	-1.700	1.100																			1580048669.0	10.82	20.04
26/01/2020 14:24:30	26012020	260120	142429	102.400	12.323572	-56.782153	102.210	-0.170	-0.890	1.070	102.340	-2.100	1.400																			1580048669.0	11.30	20.93
26/01/2020 14:24:31	26012020	260120	142431	102.050	12.323558	-56.782098	101.810	0.030	-1.200	1.170	101.960	-2.600	1.500																			1580048671.0	11.77	21.80
26/01/2020 14:24:32	26012020	260120	142432	101.660	12.323547	-56.782045	101.520	0.070	-0.780	0.980	101.590	-2.400	1.500																			1580048672.0	11.67	21.61
26/01/2020 14:24:33	26012020	260120	142433	101.400	12.323537	-56.781993	101.410	-0.110	0.080	0.660	101.380	-1.700	1.200																			1580048673.0	10.98	20.33
26/01/2020 14:24:34	26012020	260120	142434	101.360	12.323528	-56.781945	101.530	-0.340	0.640	0.330	101.380	-0.900	0.800																			1580048674.0	10.64	19.71
26/01/2020 14:24:35	26012020	260120	142434	101.550	12.323518	-56.781893	101.770	-0.410	0.610	0.120	101.610	-0.700	0.600																			1580048674.0	10.94	20.26
26/01/2020 14:24:36	26012020	260120	142435	101.800	12.323507	-56.781840	101.940	-0.250	0.230	0.190	101.830	-1.100	0.500																			1580048675.0	11.44	21.19
26/01/2020 14:24:37	26012020	260120	142436	101.950	12.323495	-56.781787	102.080	-0.070	-0.030	0.340	101.980	-1.400	0.700																			1580048676.0	11.59	21.46
26/01/2020 14:24:38	26012020	260120	142438	102.100	12.323483	-56.781737	102.290	-0.000	-0.100	0.410	102.140	-1.500	0.800																			1580048678.0	11.17	20.69
26/01/2020 14:24:39	26012020	260120	142439	102.340	12.323472	-56.781687	102.550	0.030	-0.190	0.380	102.390	-1.600	0.800																			1580048679.0	10.83	20.06
26/01/2020 14:24:40	26012020	260120	142440	102.590	12.323462	-56.781637	102.650	0.120	-0.410	0.300	102.610	-1.700	0.700																			1580048680.0	10.84	20.08
26/01/2020 14:24:41	26012020	260120	142441	102.610	12.323452	-56.781585	102.510	0.280	-0.670	0.240	102.580	-2.000	0.600																			1580048681.0	10.98	20.33
26/01/2020 14:24:42	26012020	260120	142441	102.430	12.323442	-56.781533	102.300	0.440	-0.860	0.250	102.380	-2.200	0.600																			1580048681.0	11.11	20.58
26/01/2020 14:24:43	26012020	260120	142443	102.200	12.323432	-56.781482	102.090	0.500	-0.840	0.200	102.160	-2.300	0.600																			1580048683.0	11.17	20.69
26/01/2020 14:24:44	26012020	260120	142444	101.990	12.323422	-56.781430	101.860	0.370	-0.630	0.080	101.940	-2.100	0.500																			1580048684.0	11.10	20.56
26/01/2020 14:24:45	26012020	260120	142444	101.760	12.323412	-56.781378	101.630	0.130	-0.380	0.120	101.710	-1.900	0.500																			1580048684.0	11.06	20.48
26/01/2020 14:24:46	26012020	260120	142446	101.550	12.323402	-56.781327	101.510	-0.100	-0.110	0.240	101.530	-1.600	0.600																			1580048686.0	11.15	20.65
26/01/2020 14:24:47	26012020	260120	142447	101.460	12.323390	-56.781275	101.530	-0.320	0.150	0.330	101.460	-1.300	0.700																			1580048687.0	11.17	20.69
26/01/2020 14:24:48	26012020	260120	142448	101.500	12.323378	-56.781223	101.670	-0.430	0.230	0.390	101.530	-1.200	0.800																			1580048688.0	11.14	20.63
26/01/2020 14:24:49	26012020	260120	142448	101.680	12.323367	-56.781172	101.870	-0.390	0.090	0.460	101.730	-1.300	0.800																			1580048688.0	11.29	20.91
26/01/2020 14:24:50	26012020	260120	142450	101.910	12.323355	-56.781120	102.130	-0.280	-0.080	0.480	101.960	-1.400	0.900																			1580048690.0	11.40	21.11
26/01/2020 14:24:51	26012020	260120	142451	102.160	12.323343	-56.781068	102.320	-0.200	-0.170	0.490	102.210	-1.600	0.900																			1580048691.0	11.26	20.85
26/01/2020 14:24:52	26012020	260120	142451	102.310	12.323332	-56.781017	102.350	-0.120	-0.240	0.520	102.320	-1.600	0.900																			1580048691.0	11.08	20.52
26/01/2020 14:24:53	26012020	260120	142452	102.290	12.323320	-56.780967	102.290	-0.010	-0.310	0.480	102.280	-1.700	0.900																			1580048692.0	11.03	20.43
26/01/2020 14:24:54	26012020	260120	142453	102.230	12.323308	-56.780915	102.220	0.100	-0.430	0.360	102.220	-1.800	0.800																			1580048693.0	11.04	20.45
26/01/2020 14:24:55	26012020	260120	142454	102.150	12.323298	-56.780863	102.090	0.200	-0.590	0.230	102.130	-2.000	0.700																			1580048694.0	11.12	20.59
26/01/2020 14:24:56	26012020	260120	142455	102.040	12.323288	-56.780812	101.980	0.280	-0.590	0.140	102.010	-2.000	0.600																			1580048695.0	11.24	20.82
26/01/2020 14:24:57	26012020	260120	142457	101.930	12.323278	-56.780760	101.830	0.290	-0.360	0.160	101.900	-1.900	0.500																			1580048697.0	11.12	20.59
26/01/2020 14:24:58	26012020	260120	142458	101.770	12.323268	-56.780708	101.680	0.190	-0.070	0.180	101.740	-1.600	0.600																			1580048698.0	10.95	20.28
26/01/2020 14:24:59	26012020	260120	142458	101.630	12.323258	-56.780658	101.650	0.050	0.120	0.080	101.620	-1.300	0.500																			1580048698.0	10.91	20.21
26/01/2020 14:25:00	26012020	260120	142459	101.660	12.323248	-56.780607	101.800	0.070	-0.030	0.010	101.700	-1.300	0.400	1016.60	25.90	26.00	19.50	19.60	826.00	67.00	67.00	374.00	28.90	356.00	9.50	91.00	3.80	60140	3071.00	27.50	27.50	1580048699.0	11.00	20.37
26/01/2020 14:25:01	26012020	260120	142501	101.840	12.323238	-56.780555	101.990	0.210	-0.390	0.090	101.880	-1.700	0.400																			1580048701.0	11.41	21.13
26/01/2020 14:25:02	26012020	260120	142501	102.030	12.323228	-56.780502	102.120	0.160	-0.430	0.270	102.050	-1.900	0.600																			1580048701.0	11.54	21.37
26/01/2020 14:25:03	26012020	260120	142502	102.100	12.323217	-56.780450	102.080	-0.080	-0.250	0.600	102.100	-1.700	0.800																			1580048702.0	11.07	20.50
26/01/2020 14:25:04	26012020	260120	142503	102.000	12.323203	-56.780400	101.910	-0.260	-0.250	0.940	101.960	-1.600	1.200																			1580048703.0	10.87	20.13
26/01/2020 14:25:05	26012020	260120	142504	101.820	12.323192	-56.780348	101.820	-0.250	-0.440	0.980	101.800	-1.800	1.400																			1580048704.0	11.18	20.71
26/01/2020 14:25:06	26012020	260120	142506	101.760	12.323180	-56.780297	101.830	-0.200	-0.490	0.800	101.760	-1.900	1.300																			1580048706.0	11.40	21.11
26/01/2020 14:25:07	26012020	260120	142506	101.750	12.323170	-56.780243	101.760	-0.230	-0.290	0.730	101.740	-1.800	1.100																			1580048706.0	11.21	20.76
26/01/2020 14:25:08	26012020	260120	142508	101.650	12.323158	-56.780193	101.600	-0.240	-0.130	0.670	101.620	-1.600	1.100																			1580048708.0	10.98	20.33
26/01/2020 14:25:09	26012020	260120	142508	101.490	12.323147	-56.780142	101.460	-0.130	-0.150	0.410	101.450	-1.600	0.900																			1580048708.0	11.10	20.56
26/01/2020 14:25:10	26012020	260120	142510	101.390	12.323137	-56.780090	101.480	0.060	-0.140	0.110	101.400	-1.600	0.600																			1580048710.0	11.28	20.89
26/01/2020 14:25:11	26012020	260120	142511	101.480	12.323128	-56.780038	101.640	0.190	-0.000	-0.060	101.510	-1.500	0.400																			1580048711.0	11.18	20.71
26/01/2020 14:25:12	26012020	260120	142511	101.650	12.323120	-56.779987	101.770	0.180	0.090	-0.100	101.680	-1.300	0.300																			1580048711.0	10.96	20.30
26/01/2020 14:25:13	26012020	260120	142513	101.770	12.323110	-56.779937	101.810	0.110	-0.050	0.000	101.780	-1.400	0.400																			1580048713.0	10.95	20.28
26/01/2020 14:25:14	26012020	260120	142514	101.810	12.323100	-56.779885	101.860	0.090	-0.330	0.290	101.820	-1.600	0.600																			1580048714.0	11.14	20.63
26/01/2020 14:25:15	26012020	260120	142514	101.840	12.323088	-56.779833	101.820	0.170	-0.640	0.640	101.830	-1.900	0.900																			1580048714.0	11.24	20.82
26/01/2020 14:25:16	26012020	260120	142516	101.780	12.323075	-56.779780	101.600	0.300	-0.890	0.880	101.740	-2.200	1.200																			1580048716.0	11.33	20.98
26/01/2020 14:25:17	26012020	260120	142516	101.480	12.323065	-56.779728	101.330	0.350	-0.810	0.900	101.420	-2.300	1.300																			1580048716.0	11.40	21.11
26/01/2020 14:25:18	26012020	260120	142518	101.240	12.323055	-56.779677	101.210	0.220	-0.350	0.720	101.210	-2.000	1.200																			1580048718.0	11.14	20.63
26/01/2020 14:25:19	26012020	260120	142519	101.170	12.323047	-56.779625	101.230	-0.050	0.130	0.430	101.170	-1.400	0.900																			1580048719.0	10.83	20.06
26/01/2020 14:25:20	26012020	260120	142519	101.230	12.323037	-56.779575	101.320	-0.340	0.330	0.240	101.260	-1.100	0.700																			1580048719.0	10.86	20.11
26/01/2020 14:25:21	26012020	260120	142520	101.330	12.323027	-56.779523	101.390	-0.490	0.200	0.250	101.340	-1.100	0.600																			1580048720.0	11.07	20.50
26/01/2020 14:25:22	26012020	260120	142521	101.400	12.323015	-56.779472	101.500	-0.410	-0.070	0.390	101.430	-1.400	0.700																			1580048721.0	11.32	20.96
26/01/2020 14:25:23	26012020	260120	142523	101.530	12.323003	-56.779420	101.630	-0.170	-0.330	0.500	101.560	-1.700	0.900																			1580048723.0	11.35	21.02
26/01/2020 14:25:24	26012020	260120	142524	101.640	12.322992	-56.779367	101.620	0.070	-0.580	0.460	101.640	-1.900	0.900																			1580048724.0	11.29	20.91
26/01/2020 14:25:25	26012020	260120	142525	101.570	12.322982	-56.779315	101.500	0.220	-0.690	0.420	101.540	-2.100	0.800																			1580048725.0	11.32	20.96
26/01/2020 14:25:26	26012020	260120	142526	101.450	12.322973	-56.779262	101.500	0.220	-0.480	0.330	101.450	-2.000	0.800																			1580048726.0	11.21	20.76
26/01/2020 14:25:27	26012020	260120	142526	101.490	12.322963	-56.779212	101.580	0.040	-0.100	0.160	101.510	-1.700	0.600																			1580048726.0	10.89	20.17
26/01/2020 14:25:28	26012020	260120	142527	101.550	12.322955	-56.779162	101.540	-0.160	0.000	0.120	101.550	-1.400	0.500																			1580048727.0	10.77	19.95
26/01/2020 14:25:29	26012020	260120	142529	101.490	12.322943	-56.779110	101.410	-0.180	-0.210	0.210	101.460	-1.500	0.600																			1580048729.0	11.11	20.58
26/01/2020 14:25:30	26012020	260120	142529	101.360	12.322932	-56.779058	101.280	0.020	-0.400	0.340	101.330	-1.800	0.700																			1580048729.0	11.43	21.17
26/01/2020 14:25:31	26012020	260120	142530	101.240	12.322922	-56.779005	101.210	0.270	-0.480	0.450	101.220	-1.900	0.800																			1580048730.0	11.41	21.13
26/01/2020 14:25:32	26012020	260120	142531	101.170	12.322910	-56.778952	101.140	0.370	-0.410	0.570	101.160	-1.900	0.900																			1580048731.0	11.35	21.02
26/01/2020 14:25:33	26012020	260120	142533	101.100	12.322900	-56.778900	101.120	0.190	-0.090	0.480	101.100	-1.700	0.900																			1580048733.0	11.21	20.76
26/01/2020 14:25:34	26012020	260120	142533	101.120	12.322892	-56.778850	101.250	-0.170	0.370	0.280	101.140	-1.200	0.700																			1580048733.0	10.86	20.11
26/01/2020 14:25:35	26012020	260120	142535	101.290	12.322883	-56.778800	101.490	-0.420	0.530	0.180	101.340	-0.900	0.600																			1580048735.0	10.59	19.61
26/01/2020 14:25:36	26012020	260120	142536	101.540	12.322873	-56.778750	101.680	-0.310	0.050	0.220	101.590	-1.100	0.600																			1580048736.0	10.87	20.13
26/01/2020 14:25:37	26012020	260120	142537	101.680	12.322862	-56.778697	101.670	0.060	-0.790	0.420	101.680	-1.900	0.700																			1580048737.0	11.51	21.32
26/01/2020 14:25:38	26012020	260120	142538	101.610	12.322848	-56.778642	101.540	0.380	-1.260	0.600	101.590	-2.600	0.900																			1580048738.0	11.87	21.98
26/01/2020 14:25:39	26012020	260120	142538	101.480	12.322838	-56.778588	101.450	0.410	-0.970	0.660	101.460	-2.600	1.000																			1580048738.0	11.44	21.19
26/01/2020 14:25:40	26012020	260120	142540	101.410	12.322828	-56.778538	101.400	0.130	-0.320	0.570	101.400	-2.000	1.000																			1580048740.0	10.77	19.95
26/01/2020 14:25:41	26012020	260120	142540	101.340	12.322820	-56.778490	101.310	-0.260	0.060	0.440	101.330	-1.400	0.900																			1580048740.0	10.58	19.59
26/01/2020 14:25:42	26012020	260120	142542	101.230	12.322812	-56.778438	101.150	-0.490	-0.000	0.540	101.210	-1.400	0.900																			1580048742.0	10.98	20.33
26/01/2020 14:25:43	26012020	260120	142542	101.070	12.322798	-56.778387	101.030	-0.460	-0.220	0.680	101.040	-1.600	1.000																			1580048742.0	11.47	21.24
26/01/2020 14:25:44	26012020	260120	142543	100.990	12.322787	-56.778333	101.040	-0.270	-0.300	0.600	100.990	-1.700	1.100																			1580048743.0	11.59	21.46
26/01/2020 14:25:45	26012020	260120	142545	101.050	12.322775	-56.778280	101.130	-0.060	-0.200	0.370	101.070	-1.700	0.800																			1580048745.0	11.39	21.09
26/01/2020 14:25:46	26012020	260120	142545	101.140	12.322765	-56.778228	101.200	0.080	0.040	0.270	101.150	-1.500	0.700																			1580048745.0	11.18	20.71
26/01/2020 14:25:47	26012020	260120	142546	101.210	12.322755	-56.778178	101.300	0.160	0.380	0.140	101.220	-1.200	0.600																			1580048746.0	10.92	20.22
26/01/2020 14:25:48	26012020	260120	142547	101.340	12.322747	-56.778128	101.470	0.270	0.380	-0.030	101.380	-1.000	0.400																			1580048747.0	10.71	19.83
26/01/2020 14:25:49	26012020	260120	142548	101.530	12.322738	-56.778077	101.640	0.460	-0.150	-0.140	101.560	-1.300	0.300																			1580048748.0	11.03	20.43
26/01/2020 14:25:50	26012020	260120	142550	101.680	12.322732	-56.778022	101.750	0.550	-0.740	-0.040	101.710	-2.000	0.300																			1580048750.0	11.55	21.39
26/01/2020 14:25:51	26012020	260120	142550	101.760	12.322722	-56.777968	101.780	0.350	-0.870	0.400	101.760	-2.300	0.600																			1580048750.0	11.45	21.21
26/01/2020 14:25:52	26012020	260120	142551	101.760	12.322710	-56.777918	101.730	-0.030	-0.630	0.950	101.750	-2.200	1.100																			1580048751.0	10.93	20.24
26/01/2020 14:25:53	26012020	260120	142552	101.650	12.322697	-56.777870	101.540	-0.350	-0.460	1.340	101.610	-1.900	1.600																			1580048752.0	10.69	19.80
26/01/2020 14:25:54	26012020	260120	142554	101.420	12.322685	-56.777820	101.230	-0.390	-0.600	1.390	101.360	-1.900	1.800																			1580048754.0	10.99	20.35
26/01/2020 14:25:55	26012020	260120	142555	101.090	12.322673	-56.777767	100.940	-0.240	-0.790	1.080	101.030	-2.200	1.600																			1580048755.0	11.51	21.32
26/01/2020 14:25:56	26012020	260120	142555	100.860	12.322663	-56.777712	100.890	-0.120	-0.580	0.670	100.850	-2.100	1.200																			1580048755.0	11.64	21.56
26/01/2020 14:25:57	26012020	260120	142557	100.900	12.322653	-56.777660	101.020	-0.170	0.030	0.340	100.930	-1.600	0.900																			1580048757.0	11.22	20.78
26/01/2020 14:25:58	26012020	260120	142558	101.070	12.322643	-56.777610	101.220	-0.270	0.500	0.040	101.110	-1.100	0.500																			1580048758.0	10.79	19.98
26/01/2020 14:25:59	26012020	260120	142559	101.280	12.322635	-56.777558	101.460	-0.220	0.550	-0.040	101.330	-0.900	0.400																			1580048759.0	10.94	20.26
26/01/2020 14:26:00	26012020	260120	142559	101.540	12.322625	-56.777507	101.740	-0.030	0.330	0.080	101.600	-1.000	0.400	1016.60	25.90	26.00	19.60	19.60	835.00	68.00	68.00	375.00	29.00	0.00	9.30	103.00	3.50	60510	3205.00	27.60	27.50	1580048759.0	11.23	20.80
26/01/2020 14:26:01	26012020	260120	142600	101.820	12.322613	-56.777455	101.930	0.160	-0.040	0.170	101.870	-1.300	0.500																			1580048760.0	11.30	20.93
26/01/2020 14:26:02	26012020	260120	142602	102.010	12.322603	-56.777402	102.070	0.310	-0.440	0.140	102.040	-1.700	0.600																			1580048762.0	11.32	20.96
26/01/2020 14:26:03	26012020	260120	142602	102.120	12.322595	-56.777350	102.120	0.410	-0.650	0.100	102.120	-2.000	0.500																			1580048762.0	11.27	20.87
26/01/2020 14:26:04	26012020	260120	142604	102.130	12.322587	-56.777298	102.100	0.400	-0.610	0.060	102.120	-2.100	0.500																			1580048764.0	11.08	20.52
26/01/2020 14:26:05	26012020	260120	142604	102.090	12.322578	-56.777247	102.080	0.200	-0.380	0.030	102.080	-1.900	0.400																			1580048764.0	10.90	20.19
26/01/2020 14:26:06	26012020	260120	142605	102.060	12.322568	-56.777197	102.030	-0.100	-0.220	0.060	102.050	-1.700	0.400																			1580048765.0	10.74	19.89
26/01/2020 14:26:07	26012020	260120	142606	102.020	12.322558	-56.777147	101.940	-0.260	-0.380	0.060	102.010	-1.700	0.400																			1580048766.0	10.91	20.21
26/01/2020 14:26:08	26012020	260120	142607	101.930	12.322547	-56.777093	101.850	-0.190	-0.700	0.090	101.900	-2.000	0.400																			1580048767.0	11.37	21.06
26/01/2020 14:26:09	26012020	260120	142609	101.820	12.322535	-56.777040	101.770	-0.060	-0.750	0.220	101.800	-2.200	0.500																			1580048769.0	11.59	21.46
26/01/2020 14:26:10	26012020	260120	142610	101.760	12.322523	-56.776988	101.740	-0.030	-0.420	0.250	101.760	-2.000	0.600																			1580048770.0	11.32	20.96
26/01/2020 14:26:11	26012020	260120	142610	101.740	12.322512	-56.776938	101.740	-0.130	0.040	0.150	101.730	-1.500	0.600																			1580048770.0	10.99	20.35
26/01/2020 14:26:12	26012020	260120	142612	101.750	12.322502	-56.776887	101.790	-0.300	0.330	-0.010	101.760	-1.200	0.400																			1580048772.0	10.90	20.19
26/01/2020 14:26:13	26012020	260120	142612	101.850	12.322492	-56.776837	101.970	-0.420	0.330	-0.080	101.890	-1.100	0.300																			1580048772.0	11.00	20.37
26/01/2020 14:26:14	26012020	260120	142613	102.020	12.322480	-56.776785	102.100	-0.290	-0.010	-0.040	102.050	-1.300	0.300																			1580048773.0	11.18	20.71
26/01/2020 14:26:15	26012020	260120	142614	102.120	12.322468	-56.776732	102.150	0.110	-0.570	0.130	102.140	-1.800	0.400																			1580048774.0	11.49	21.28
26/01/2020 14:26:16	26012020	260120	142615	102.110	12.322457	-56.776678	102.030	0.540	-0.910	0.370	102.080	-2.300	0.700																			1580048775.0	11.76	21.78
26/01/2020 14:26:17	26012020	260120	142617	101.950	12.322445	-56.776625	101.930	0.650	-0.570	0.380	101.930	-2.200	0.800																			1580048777.0	11.53	21.35
26/01/2020 14:26:18	26012020	260120	142617	101.910	12.322437	-56.776575	102.110	0.280	0.330	0.270	101.940	-1.400	0.700																			1580048777.0	10.75	19.91
26/01/2020 14:26:19	26012020	260120	142618	102.150	12.322428	-56.776527	102.450	-0.290	0.820	0.220	102.220	-0.700	0.600																			1580048778.0	10.11	18.72
26/01/2020 14:26:20	26012020	260120	142619	102.480	12.322417	-56.776478	102.570	-0.500	0.280	0.230	102.510	-0.800	0.600																			1580048779.0	10.52	19.48
26/01/2020 14:26:21	26012020	260120	142620	102.540	12.322405	-56.776425	102.480	-0.190	-0.700	0.370	102.510	-1.800	0.700																			1580048780.0	11.58	21.45
26/01/2020 14:26:22	26012020	260120	142621	102.390	12.322392	-56.776370	102.320	0.260	-1.170	0.580	102.350	-2.500	0.900																			1580048781.0	11.94	22.11
26/01/2020 14:26:23	26012020	260120	142622	102.240	12.322380	-56.776318	102.190	0.430	-0.960	0.540	102.220	-2.500	1.000																			1580048782.0	11.34	21.00
26/01/2020 14:26:24	26012020	260120	142623	102.120	12.322370	-56.776268	102.070	0.270	-0.520	0.420	102.100	-2.100	0.900																			1580048783.0	10.78	19.96
26/01/2020 14:26:25	26012020	260120	142624	102.010	12.322360	-56.776218	102.010	-0.020	-0.230	0.360	102.000	-1.700	0.800																			1580048784.0	10.75	19.91
26/01/2020 14:26:26	26012020	260120	142625	101.980	12.322350	-56.776167	101.980	-0.240	-0.200	0.330	101.970	-1.600	0.700																			1580048785.0	11.05	20.46
26/01/2020 14:26:27	26012020	260120	142626	101.930	12.322338	-56.776115	101.890	-0.310	-0.190	0.350	101.910	-1.600	0.700																			1580048786.0	11.36	21.04
26/01/2020 14:26:28	26012020	260120	142627	101.850	12.322327	-56.776062	101.830	-0.270	-0.120	0.370	101.840	-1.600	0.700																			1580048787.0	11.36	21.04
26/01/2020 14:26:29	26012020	260120	142629	101.810	12.322315	-56.776010	101.840	-0.190	0.020	0.410	101.810	-1.500	0.800																			1580048789.0	11.28	20.89
26/01/2020 14:26:30	26012020	260120	142630	101.830	12.322302	-56.775960	101.860	-0.120	0.140	0.370	101.830	-1.300	0.800																			1580048790.0	11.12	20.59
26/01/2020 14:26:31	26012020	260120	142631	101.850	12.322292	-56.775908	101.870	0.020	0.050	0.240	101.850	-1.300	0.700																			1580048791.0	11.10	20.56
26/01/2020 14:26:32	26012020	260120	142631	101.900	12.322282	-56.775855	102.020	0.220	-0.130	0.030	101.920	-1.500	0.500																			1580048791.0	11.29	20.91
26/01/2020 14:26:33	26012020	260120	142632	102.090	12.322273	-56.775803	102.320	0.270	-0.170	-0.160	102.140	-1.600	0.300																			1580048792.0	11.26	20.85
26/01/2020 14:26:34	26012020	260120	142634	102.390	12.322263	-56.775752	102.610	0.140	-0.080	-0.110	102.450	-1.500	0.200																			1580048794.0	10.97	20.32
26/01/2020 14:26:35	26012020	260120	142635	102.620	12.322253	-56.775703	102.690	0.020	-0.090	0.220	102.650	-1.500	0.500																			1580048795.0	10.71	19.83
26/01/2020 14:26:36	26012020	260120	142636	102.630	12.322240	-56.775653	102.550	0.110	-0.520	0.560	102.600	-1.700	0.800																			1580048796.0	10.86	20.11
26/01/2020 14:26:37	26012020	260120	142637	102.460	12.322228	-56.775600	102.350	0.380	-1.120	0.720	102.420	-2.400	1.100																			1580048797.0	11.46	21.22
26/01/2020 14:26:38	26012020	260120	142637	102.260	12.322217	-56.775547	102.190	0.470	-1.120	0.640	102.230	-2.600	1.100																			1580048797.0	11.72	21.71
26/01/2020 14:26:39	26012020	260120	142638	102.130	12.322207	-56.775495	102.090	0.140	-0.390	0.490	102.110	-2.100	0.900																			1580048798.0	11.09	20.54
26/01/2020 14:26:40	26012020	260120	142639	102.040	12.322198	-56.775447	101.950	-0.370	0.330	0.450	102.020	-1.300	0.800																			1580048799.0	10.39	19.24
26/01/2020 14:26:41	26012020	260120	142641	101.900	12.322188	-56.775397	101.770	-0.600	0.320	0.510	101.870	-1.000	0.900																			1580048801.0	10.58	19.59
26/01/2020 14:26:42	26012020	260120	142641	101.760	12.322175	-56.775345	101.650	-0.450	-0.290	0.520	101.730	-1.500	0.900																			1580048801.0	11.47	21.24
26/01/2020 14:26:43	26012020	260120	142643	101.630	12.322162	-56.775290	101.650	-0.190	-0.680	0.480	101.630	-2.000	0.900																			1580048803.0	12.03	22.28
26/01/2020 14:26:44	26012020	260120	142644	101.700	12.322150	-56.775235	101.820	-0.050	-0.340	0.360	101.730	-2.000	0.800																			1580048804.0	11.63	21.54
26/01/2020 14:26:45	26012020	260120	142645	101.880	12.322138	-56.775187	102.000	-0.060	0.310	0.250	101.910	-1.300	0.700																			1580048805.0	10.75	19.91
26/01/2020 14:26:46	26012020	260120	142645	102.070	12.322128	-56.775138	102.220	-0.030	0.500	0.200	102.110	-0.900	0.600																			1580048805.0	10.43	19.32
26/01/2020 14:26:47	26012020	260120	142647	102.290	12.322118	-56.775087	102.400	0.210	0.030	0.100	102.330	-1.200	0.500																			1580048807.0	10.91	20.21
26/01/2020 14:26:48	26012020	260120	142647	102.420	12.322108	-56.775033	102.380	0.540	-0.530	0.050	102.420	-1.800	0.400																			1580048807.0	11.53	21.35
26/01/2020 14:26:49	26012020	260120	142648	102.350	12.322098	-56.774980	102.300	0.590	-0.610	0.170	102.340	-2.100	0.500																			1580048808.0	11.47	21.24
26/01/2020 14:26:50	26012020	260120	142650	102.280	12.322090	-56.774930	102.310	0.280	-0.320	0.350	102.280	-1.900	0.700																			1580048810.0	10.85	20.09
26/01/2020 14:26:51	26012020	260120	142650	102.280	12.322080	-56.774882	102.230	-0.120	-0.190	0.600	102.270	-1.600	0.900																			1580048810.0	10.53	19.50
26/01/2020 14:26:52	26012020	260120	142651	102.140	12.322068	-56.774832	101.950	-0.280	-0.460	0.900	102.080	-1.700	1.200																			1580048811.0	10.82	20.04
26/01/2020 14:26:53	26012020	260120	142652	101.830	12.322055	-56.774778	101.660	-0.170	-0.840	1.030	101.770	-2.100	1.400																			1580048812.0	11.40	21.11
26/01/2020 14:26:54	26012020	260120	142654	101.600	12.322043	-56.774725	101.410	-0.070	-0.830	1.020	101.550	-2.300	1.400																			1580048814.0	11.63	21.54
26/01/2020 14:26:55	26012020	260120	142654	101.310	12.322032	-56.774673	101.220	-0.150	-0.370	0.900	101.270	-2.000	1.400																			1580048814.0	11.25	20.84
26/01/2020 14:26:56	26012020	260120	142656	101.200	12.322020	-56.774623	101.240	-0.300	0.110	0.650	101.180	-1.500	1.100																			1580048816.0	10.84	20.08
26/01/2020 14:26:57	26012020	260120	142657	101.250	12.322010	-56.774573	101.350	-0.330	0.320	0.390	101.270	-1.100	0.900																			1580048817.0	10.86	20.11
26/01/2020 14:26:58	26012020	260120	142658	101.400	12.322000	-56.774522	101.500	-0.160	0.210	0.090	101.440	-1.100	0.600																			1580048818.0	11.08	20.52
26/01/2020 14:26:59	26012020	260120	142659	101.570	12.321990	-56.774470	101.660	0.100	-0.020	-0.040	101.600	-1.400	0.400																			1580048819.0	11.33	20.98
26/01/2020 14:27:00	26012020	260120	142700	101.710	12.321980	-56.774417	101.770	0.280	-0.120	0.020	101.740	-1.500	0.400	1016.60	25.90	26.00	19.60	19.70	835.00	68.00	68.00	375.00	29.00	1.00	9.30	105.00	3.60	60618	3304.00	27.60	27.50	1580048820.0	11.28	20.89
26/01/2020 14:27:01	26012020	260120	142700	101.820	12.321970	-56.774367	101.790	0.370	-0.170	0.090	101.830	-1.600	0.400																			1580048820.0	11.01	20.39
26/01/2020 14:27:02	26012020	260120	142702	101.830	12.321962	-56.774315	101.810	0.420	-0.310	0.250	101.830	-1.700	0.600																			1580048822.0	10.93	20.24
26/01/2020 14:27:03	26012020	260120	142703	101.860	12.321953	-56.774263	101.940	0.320	-0.440	0.460	101.880	-1.800	0.800																			1580048823.0	11.05	20.46
26/01/2020 14:27:04	26012020	260120	142704	101.990	12.321943	-56.774212	102.050	0.050	-0.450	0.610	102.010	-1.900	0.900																			1580048824.0	11.02	20.41
26/01/2020 14:27:05	26012020	260120	142704	102.030	12.321932	-56.774162	101.910	-0.200	-0.500	0.820	102.010	-1.900	1.100																			1580048824.0	10.91	20.21
26/01/2020 14:27:06	26012020	260120	142706	101.830	12.321920	-56.774112	101.660	-0.270	-0.680	1.000	101.780	-2.000	1.300																			1580048826.0	11.37	21.06
26/01/2020 14:27:07	26012020	260120	142706	101.600	12.321907	-56.774058	101.530	-0.150	-0.750	0.890	101.570	-2.200	1.400																			1580048826.0	11.37	21.06
26/01/2020 14:27:08	26012020	260120	142708	101.510	12.321897	-56.774007	101.440	-0.010	-0.540	0.620	101.500	-2.100	1.100																			1580048828.0	11.36	21.04
26/01/2020 14:27:09	26012020	260120	142709	101.440	12.321887	-56.773955	101.340	-0.010	-0.160	0.290	101.430	-1.700	0.800																			1580048829.0	11.17	20.69
26/01/2020 14:27:10	26012020	260120	142709	101.350	12.321877	-56.773903	101.240	-0.140	0.180	0.100	101.330	-1.300	0.500																			1580048829.0	11.03	20.43
26/01/2020 14:27:11	26012020	260120	142711	101.290	12.321867	-56.773852	101.330	-0.300	0.400	0.100	101.310	-1.100	0.500																			1580048831.0	11.03	20.43
26/01/2020 14:27:12	26012020	260120	142712	101.450	12.321857	-56.773802	101.650	-0.340	0.460	0.080	101.520	-0.900	0.500																			1580048832.0	10.99	20.35
26/01/2020 14:27:13	26012020	260120	142713	101.830	12.321847	-56.773750	102.000	-0.170	0.190	0.140	101.900	-1.100	0.500																			1580048833.0	10.99	20.35
26/01/2020 14:27:14	26012020	260120	142714	102.100	12.321835	-56.773698	102.120	0.130	-0.290	0.350	102.120	-1.500	0.700																			1580048834.0	11.26	20.85
26/01/2020 14:27:15	26012020	260120	142715	102.160	12.321822	-56.773647	102.130	0.360	-0.570	0.410	102.150	-1.900	0.800																			1580048835.0	11.34	21.00
26/01/2020 14:27:16	26012020	260120	142716	102.160	12.321813	-56.773595	102.170	0.430	-0.520	0.290	102.160	-2.000	0.700																			1580048836.0	11.02	20.41
26/01/2020 14:27:17	26012020	260120	142717	102.180	12.321805	-56.773545	102.130	0.400	-0.530	0.160	102.180	-1.900	0.600																			1580048837.0	10.72	19.85
26/01/2020 14:27:18	26012020	260120	142718	102.100	12.321798	-56.773493	101.980	0.370	-0.790	0.100	102.070	-2.100	0.500																			1580048838.0	10.99	20.35
26/01/2020 14:27:19	26012020	260120	142719	101.920	12.321788	-56.773440	101.770	0.290	-0.960	0.360	101.870	-2.300	0.600																			1580048839.0	11.44	21.19
26/01/2020 14:27:20	26012020	260120	142720	101.680	12.321777	-56.773388	101.560	0.010	-0.650	0.800	101.630	-2.200	1.100																			1580048840.0	11.40	21.11
26/01/2020 14:27:21	26012020	260120	142721	101.490	12.321763	-56.773337	101.470	-0.410	-0.090	0.910	101.460	-1.700	1.300																			1580048841.0	11.02	20.41
26/01/2020 14:27:22	26012020	260120	142721	101.410	12.321752	-56.773287	101.450	-0.720	0.280	0.770	101.400	-1.200	1.200																			1580048841.0	10.84	20.08
26/01/2020 14:27:23	26012020	260120	142722	101.430	12.321740	-56.773237	101.530	-0.730	0.280	0.600	101.450	-1.100	1.100																			1580048842.0	11.09	20.54
26/01/2020 14:27:24	26012020	260120	142723	101.590	12.321728	-56.773183	101.730	-0.510	0.170	0.370	101.630	-1.200	0.900																			1580048843.0	11.41	21.13
26/01/2020 14:27:25	26012020	260120	142724	101.800	12.321717	-56.773132	101.910	-0.240	0.170	0.120	101.840	-1.200	0.600																			1580048844.0	11.31	20.95
26/01/2020 14:27:26	26012020	260120	142726	101.970	12.321707	-56.773080	102.080	0.000	0.140	-0.160	102.000	-1.200	0.300																			1580048846.0	10.99	20.35
26/01/2020 14:27:27	26012020	260120	142726	102.140	12.321697	-56.773030	102.200	0.270	-0.170	-0.390	102.170	-1.400	0.100																			1580048846.0	10.95	20.28
26/01/2020 14:27:28	26012020	260120	142728	102.230	12.321688	-56.772978	102.220	0.550	-0.620	-0.420	102.230	-1.900	-0.000																			1580048848.0	11.19	20.72
26/01/2020 14:27:29	26012020	260120	142729	102.230	12.321680	-56.772925	102.210	0.700	-0.800	-0.180	102.220	-2.200	0.100																			1580048849.0	11.31	20.95
26/01/2020 14:27:30	26012020	260120	142729	102.180	12.321670	-56.772873	102.090	0.610	-0.630	0.250	102.160	-2.100	0.500																			1580048849.0	11.00	20.37
26/01/2020 14:27:31	26012020	260120	142730	102.010	12.321660	-56.772823	101.850	0.350	-0.530	0.600	101.950	-1.900	0.900																			1580048850.0	10.79	19.98
26/01/2020 14:27:32	26012020	260120	142731	101.790	12.321648	-56.772773	101.670	0.050	-0.510	0.780	101.750	-1.900	1.100																			1580048851.0	11.08	20.52
26/01/2020 14:27:33	26012020	260120	142732	101.590	12.321637	-56.772722	101.580	-0.200	-0.390	0.860	101.560	-1.800	1.200																			1580048852.0	11.22	20.78
26/01/2020 14:27:34	26012020	260120	142733	101.540	12.321627	-56.772670	101.600	-0.370	-0.170	0.640	101.540	-1.700	1.100																			1580048853.0	11.19	20.72
26/01/2020 14:27:35	26012020	260120	142734	101.590	12.321615	-56.772618	101.670	-0.490	0.060	0.400	101.600	-1.400	0.800																			1580048854.0	11.13	20.61
26/01/2020 14:27:36	26012020	260120	142735	101.690	12.321603	-56.772567	101.790	-0.570	0.180	0.490	101.710	-1.200	0.800																			1580048855.0	11.08	20.52
26/01/2020 14:27:37	26012020	260120	142736	101.800	12.321592	-56.772517	101.900	-0.480	0.020	0.530	101.820	-1.300	0.900																			1580048856.0	11.12	20.59
26/01/2020 14:27:38	26012020	260120	142737	101.900	12.321578	-56.772463	102.000	-0.190	-0.300	0.340	101.930	-1.600	0.800																			1580048857.0	11.37	21.06
26/01/2020 14:27:39	26012020	260120	142738	102.000	12.321568	-56.772410	102.050	0.100	-0.370	0.190	102.010	-1.800	0.600																			1580048858.0	11.45	21.21
26/01/2020 14:27:40	26012020	260120	142740	102.040	12.321558	-56.772358	102.040	0.190	-0.150	0.010	102.040	-1.700	0.500																			1580048860.0	11.09	20.54
26/01/2020 14:27:41	26012020	260120	142740	102.030	12.321548	-56.772308	102.010	0.110	0.050	-0.130	102.030	-1.400	0.300																			1580048860.0	10.74	19.89
26/01/2020 14:27:42	26012020	260120	142741	102.010	12.321540	-56.772260	101.970	0.080	-0.060	-0.150	102.000	-1.400	0.200																			1580048861.0	10.74	19.89
26/01/2020 14:27:43	26012020	260120	142743	101.950	12.321530	-56.772208	101.840	0.310	-0.470	-0.050	101.920	-1.700	0.300																			1580048863.0	11.06	20.48
26/01/2020 14:27:44	26012020	260120	142743	101.820	12.321520	-56.772155	101.600	0.670	-0.920	0.190	101.780	-2.200	0.500																			1580048863.0	11.48	21.26
26/01/2020 14:27:45	26012020	260120	142745	101.560	12.321508	-56.772100	101.470	0.780	-0.920	0.420	101.520	-2.400	0.700																			1580048865.0	11.61	21.50
26/01/2020 14:27:46	26012020	260120	142745	101.450	12.321498	-56.772048	101.470	0.410	-0.340	0.600	101.440	-2.000	0.900																			1580048865.0	11.15	20.65
26/01/2020 14:27:47	26012020	260120	142746	101.480	12.321488	-56.772000	101.600	-0.240	0.360	0.800	101.500	-1.300	1.100																			1580048866.0	10.54	19.52
26/01/2020 14:27:48	26012020	260120	142747	101.600	12.321477	-56.771952	101.720	-0.780	0.530	0.920	101.620	-0.800	1.300																			1580048867.0	10.46	19.37
26/01/2020 14:27:49	26012020	260120	142748	101.680	12.321465	-56.771902	101.720	-0.870	-0.010	0.830	101.680	-1.200	1.300																			1580048868.0	11.04	20.45
26/01/2020 14:27:50	26012020	260120	142749	101.670	12.321452	-56.771848	101.680	-0.560	-0.640	0.660	101.670	-1.800	1.100																			1580048869.0	11.72	21.71
26/01/2020 14:27:51	26012020	260120	142750	101.640	12.321440	-56.771793	101.690	-0.220	-0.730	0.440	101.640	-2.200	0.900																			1580048870.0	11.72	21.71
26/01/2020 14:27:52	26012020	260120	142751	101.690	12.321430	-56.771743	101.740	-0.070	-0.320	0.260	101.710	-1.900	0.700																			1580048871.0	11.05	20.46
26/01/2020 14:27:53	26012020	260120	142752	101.720	12.321418	-56.771693	101.610	0.000	-0.040	0.210	101.700	-1.500	0.600																			1580048872.0	10.59	19.61
26/01/2020 14:27:54	26012020	260120	142753	101.540	12.321408	-56.771643	101.350	0.240	-0.220	0.180	101.490	-1.500	0.600																			1580048873.0	10.83	20.06
26/01/2020 14:27:55	26012020	260120	142755	101.290	12.321400	-56.771590	101.220	0.590	-0.530	0.130	101.250	-1.900	0.500																			1580048875.0	11.44	21.19
26/01/2020 14:27:56	26012020	260120	142756	101.230	12.321392	-56.771537	101.290	0.700	-0.410	0.190	101.240	-1.900	0.500																			1580048876.0	11.52	21.34
26/01/2020 14:27:57	26012020	260120	142757	101.330	12.321383	-56.771485	101.400	0.430	-0.050	0.460	101.350	-1.600	0.700																			1580048877.0	10.97	20.32
26/01/2020 14:27:58	26012020	260120	142757	101.410	12.321373	-56.771435	101.450	-0.010	0.100	0.840	101.420	-1.300	1.100																			1580048877.0	10.75	19.91
26/01/2020 14:27:59	26012020	260120	142758	101.430	12.321360	-56.771385	101.480	-0.330	-0.020	1.190	101.440	-1.400	1.500																			1580048878.0	10.97	20.32
26/01/2020 14:28:00	26012020	260120	142800	101.450	12.321347	-56.771333	101.510	-0.410	-0.240	1.210	101.460	-1.600	1.600	1016.60	25.90	26.00	19.60	19.70	840.00	68.00	68.00	375.00	29.00	0.00	9.40	103.00	3.60	60857	3153.00	27.60	27.50	1580048880.0	11.21	20.76
26/01/2020 14:28:01	26012020	260120	142800	101.500	12.321335	-56.771282	101.540	-0.330	-0.400	0.890	101.510	-1.800	1.400																			1580048880.0	11.25	20.84
26/01/2020 14:28:02	26012020	260120	142802	101.550	12.321325	-56.771230	101.600	-0.200	-0.420	0.480	101.570	-1.800	1.000																			1580048882.0	11.18	20.71
26/01/2020 14:28:03	26012020	260120	142803	101.670	12.321317	-56.771178	101.740	-0.160	-0.280	0.260	101.710	-1.800	0.700																			1580048883.0	11.04	20.45
26/01/2020 14:28:04	26012020	260120	142804	101.790	12.321307	-56.771128	101.750	-0.210	-0.140	0.200	101.790	-1.600	0.600																			1580048884.0	10.85	20.09
26/01/2020 14:28:05	26012020	260120	142805	101.760	12.321295	-56.771078	101.680	-0.120	-0.170	0.190	101.740	-1.500	0.600																			1580048885.0	10.82	20.04
26/01/2020 14:28:06	26012020	260120	142805	101.680	12.321285	-56.771027	101.630	0.250	-0.430	0.200	101.670	-1.700	0.600																			1580048885.0	11.08	20.52
26/01/2020 14:28:07	26012020	260120	142806	101.630	12.321277	-56.770973	101.530	0.690	-0.720	0.210	101.610	-2.000	0.600																			1580048886.0	11.40	21.11
26/01/2020 14:28:08	26012020	260120	142808	101.540	12.321268	-56.770920	101.420	0.770	-0.680	0.220	101.520	-2.100	0.600																			1580048888.0	11.54	21.37
26/01/2020 14:28:09	26012020	260120	142808	101.430	12.321260	-56.770868	101.420	0.390	-0.170	0.490	101.420	-1.800	0.800																			1580048888.0	11.14	20.63
26/01/2020 14:28:10	26012020	260120	142809	101.430	12.321248	-56.770820	101.500	-0.190	0.300	0.680	101.440	-1.200	1.000																			1580048889.0	10.60	19.63
26/01/2020 14:28:11	26012020	260120	142810	101.530	12.321238	-56.770770	101.580	-0.560	0.280	0.650	101.540	-1.100	1.100																			1580048890.0	10.68	19.78
26/01/2020 14:28:12	26012020	260120	142811	101.590	12.321227	-56.770718	101.600	-0.590	-0.100	0.690	101.600	-1.400	1.000																			1580048891.0	11.24	20.82
26/01/2020 14:28:13	26012020	260120	142813	101.580	12.321215	-56.770665	101.580	-0.500	-0.370	0.820	101.570	-1.700	1.200																			1580048893.0	11.50	21.30
26/01/2020 14:28:14	26012020	260120	142813	101.560	12.321202	-56.770613	101.590	-0.400	-0.400	0.720	101.570	-1.800	1.200																			1580048893.0	11.23	20.80
26/01/2020 14:28:15	26012020	260120	142815	101.620	12.321190	-56.770563	101.670	-0.250	-0.300	0.410	101.640	-1.700	0.900																			1580048895.0	10.97	20.32
26/01/2020 14:28:16	26012020	260120	142816	101.720	12.321180	-56.770513	101.760	-0.040	-0.210	0.110	101.750	-1.600	0.600																			1580048896.0	10.86	20.11
26/01/2020 14:28:17	26012020	260120	142816	101.810	12.321172	-56.770462	101.770	0.260	-0.290	-0.100	101.810	-1.600	0.400																			1580048896.0	10.90	20.19
26/01/2020 14:28:18	26012020	260120	142818	101.790	12.321163	-56.770410	101.710	0.580	-0.420	-0.120	101.780	-1.800	0.300																			1580048898.0	11.12	20.59
26/01/2020 14:28:19	26012020	260120	142819	101.730	12.321153	-56.770358	101.660	0.810	-0.490	-0.010	101.720	-1.900	0.300																			1580048899.0	11.21	20.76
26/01/2020 14:28:20	26012020	260120	142819	101.690	12.321145	-56.770305	101.590	0.800	-0.490	0.150	101.680	-1.900	0.500																			1580048899.0	11.19	20.72
26/01/2020 14:28:21	26012020	260120	142821	101.610	12.321137	-56.770253	101.520	0.480	-0.340	0.380	101.590	-1.800	0.700																			1580048901.0	11.20	20.74
26/01/2020 14:28:22	26012020	260120	142821	101.540	12.321128	-56.770202	101.530	-0.120	0.020	0.720	101.540	-1.500	1.000																			1580048901.0	11.02	20.41
26/01/2020 14:28:23	26012020	260120	142822	101.550	12.321117	-56.770153	101.610	-0.750	0.240	1.030	101.560	-1.200	1.300																			1580048902.0	10.75	19.91
26/01/2020 14:28:24	26012020	260120	142823	101.630	12.321103	-56.770103	101.700	-1.050	0.080	1.130	101.650	-1.200	1.500																			1580048903.0	10.92	20.22
26/01/2020 14:28:25	26012020	260120	142825	101.720	12.321090	-56.770052	101.770	-0.870	-0.280	0.970	101.740	-1.500	1.400																			1580048905.0	11.27	20.87
26/01/2020 14:28:26	26012020	260120	142826	101.760	12.321077	-56.769998	101.700	-0.350	-0.610	0.680	101.750	-1.900	1.200																			1580048906.0	11.44	21.19
26/01/2020 14:28:27	26012020	260120	142826	101.660	12.321065	-56.769947	101.590	0.170	-0.610	0.410	101.640	-2.100	0.900																			1580048906.0	11.43	21.17
26/01/2020 14:28:28	26012020	260120	142828	101.590	12.321055	-56.769895	101.620	0.360	-0.210	0.080	101.590	-1.800	0.600																			1580048908.0	11.03	20.43
26/01/2020 14:28:29	26012020	260120	142828	101.670	12.321047	-56.769845	101.760	0.280	0.170	-0.370	101.700	-1.400	0.200																			1580048908.0	10.58	19.59
26/01/2020 14:28:30	26012020	260120	142830	101.830	12.321040	-56.769797	101.860	0.220	0.110	-0.620	101.850	-1.200	-0.200																			1580048910.0	10.63	19.69
26/01/2020 14:28:31	26012020	260120	142830	101.900	12.321033	-56.769743	101.890	0.380	-0.400	-0.450	101.910	-1.600	-0.100																			1580048910.0	11.11	20.58
26/01/2020 14:28:32	26012020	260120	142832	101.900	12.321023	-56.769690	101.880	0.560	-0.820	-0.050	101.900	-2.100	0.200																			1580048912.0	11.61	21.50
26/01/2020 14:28:33	26012020	260120	142833	101.880	12.321012	-56.769637	101.860	0.480	-0.680	0.360	101.880	-2.200	0.600																			1580048913.0	11.43	21.17
26/01/2020 14:28:34	26012020	260120	142833	101.860	12.321002	-56.769587	101.840	0.110	-0.280	0.610	101.850	-1.800	0.900																			1580048913.0	10.86	20.11
26/01/2020 14:28:35	26012020	260120	142834	101.820	12.320992	-56.769537	101.810	-0.300	-0.120	0.740	101.820	-1.500	1.100																			1580048914.0	10.74	19.89
26/01/2020 14:28:36	26012020	260120	142835	101.790	12.320978	-56.769487	101.810	-0.550	-0.220	0.820	101.780	-1.600	1.200																			1580048915.0	11.12	20.59
26/01/2020 14:28:37	26012020	260120	142836	101.810	12.320967	-56.769433	101.920	-0.620	-0.190	0.810	101.830	-1.600	1.200																			1580048916.0	11.39	21.09
26/01/2020 14:28:38	26012020	260120	142837	101.920	12.320953	-56.769383	101.990	-0.580	0.100	0.670	101.930	-1.400	1.100																			1580048917.0	11.17	20.69
26/01/2020 14:28:39	26012020	260120	142838	101.950	12.320942	-56.769333	101.940	-0.470	0.280	0.430	101.950	-1.100	0.900																			1580048918.0	10.80	20.00
26/01/2020 14:28:40	26012020	260120	142839	101.920	12.320930	-56.769283	101.980	-0.190	0.060	0.080	101.930	-1.200	0.600																			1580048919.0	10.87	20.13
26/01/2020 14:28:41	26012020	260120	142840	102.010	12.320920	-56.769230	102.130	0.290	-0.400	-0.270	102.050	-1.600	0.200																			1580048920.0	11.26	20.85
26/01/2020 14:28:42	26012020	260120	142842	102.170	12.320912	-56.769177	102.240	0.750	-0.710	-0.490	102.200	-2.000	-0.000																			1580048922.0	11.46	21.22
26/01/2020 14:28:43	26012020	260120	142843	102.250	12.320903	-56.769125	102.240	0.910	-0.630	-0.370	102.250	-2.100	-0.100																			1580048923.0	11.28	20.89
26/01/2020 14:28:44	26012020	260120	142844	102.210	12.320895	-56.769073	102.180	0.660	-0.240	0.050	102.190	-1.800	0.300																			1580048924.0	10.82	20.04
26/01/2020 14:28:45	26012020	260120	142845	102.150	12.320885	-56.769025	102.190	0.190	-0.030	0.340	102.150	-1.500	0.700																			1580048925.0	10.54	19.52
26/01/2020 14:28:46	26012020	260120	142846	102.160	12.320875	-56.768975	102.180	-0.190	-0.290	0.500	102.170	-1.600	0.800																			1580048926.0	10.84	20.08
26/01/2020 14:28:47	26012020	260120	142846	102.120	12.320863	-56.768922	102.000	-0.360	-0.670	0.880	102.090	-1.900	1.100																			1580048926.0	11.40	21.11
26/01/2020 14:28:48	26012020	260120	142847	101.870	12.320848	-56.768870	101.710	-0.400	-0.710	1.200	101.810	-2.100	1.500																			1580048927.0	11.57	21.43
26/01/2020 14:28:49	26012020	260120	142848	101.610	12.320835	-56.768818	101.600	-0.350	-0.360	1.040	101.580	-1.900	1.500																			1580048928.0	11.26	20.85
26/01/2020 14:28:50	26012020	260120	142849	101.560	12.320823	-56.768768	101.710	-0.290	0.110	0.560	101.590	-1.500	1.100																			1580048929.0	10.91	20.21
26/01/2020 14:28:51	26012020	260120	142850	101.730	12.320815	-56.768718	101.900	-0.280	0.410	0.130	101.770	-1.100	0.700																			1580048930.0	10.80	20.00
26/01/2020 14:28:52	26012020	260120	142851	101.940	12.320805	-56.768667	102.040	-0.230	0.330	-0.060	101.980	-1.000	0.400																			1580048931.0	10.88	20.15
26/01/2020 14:28:53	26012020	260120	142852	102.060	12.320795	-56.768615	102.110	-0.010	-0.050	-0.030	102.070	-1.300	0.300																			1580048932.0	11.13	20.61
26/01/2020 14:28:54	26012020	260120	142853	102.120	12.320783	-56.768563	102.150	0.330	-0.500	0.140	102.130	-1.700	0.500																			1580048933.0	11.34	21.00
26/01/2020 14:28:55	26012020	260120	142855	102.160	12.320773	-56.768510	102.160	0.570	-0.760	0.230	102.160	-2.100	0.600																			1580048935.0	11.36	21.04
26/01/2020 14:28:56	26012020	260120	142855	102.140	12.320763	-56.768458	102.080	0.570	-0.670	0.190	102.120	-2.100	0.600																			1580048935.0	11.17	20.69
26/01/2020 14:28:57	26012020	260120	142856	102.040	12.320755	-56.768408	101.920	0.380	-0.340	0.340	102.010	-1.900	0.700																			1580048936.0	10.83	20.06
26/01/2020 14:28:58	26012020	260120	142857	101.880	12.320745	-56.768358	101.800	0.110	-0.150	0.610	101.850	-1.600	0.900																			1580048937.0	10.72	19.85
26/01/2020 14:28:59	26012020	260120	142858	101.780	12.320733	-56.768308	101.810	-0.180	-0.180	0.680	101.780	-1.600	1.100																			1580048938.0	10.96	20.30
26/01/2020 14:29:00	26012020	260120	142900	101.820	12.320722	-56.768257	101.890	-0.410	-0.230	0.670	101.830	-1.600	1.100	1016.60	25.90	26.00	19.70	19.70	825.00	68.00	68.00	375.00	29.00	358.00	9.40	96.00	3.70	60196	3210.00	27.60	27.50	1580048940.0	11.17	20.69
26/01/2020 14:29:01	26012020	260120	142900	101.880	12.320710	-56.768205	101.850	-0.450	-0.320	0.680	101.870	-1.700	1.100																			1580048940.0	11.17	20.69
26/01/2020 14:29:02	26012020	260120	142902	101.810	12.320698	-56.768153	101.770	-0.290	-0.380	0.670	101.790	-1.800	1.100																			1580048942.0	11.26	20.85
26/01/2020 14:29:03	26012020	260120	142903	101.770	12.320687	-56.768102	101.810	-0.040	-0.310	0.540	101.780	-1.800	1.000																			1580048943.0	11.29	20.91
26/01/2020 14:29:04	26012020	260120	142903	101.850	12.320677	-56.768050	101.930	0.070	-0.050	0.190	101.870	-1.600	0.700																			1580048943.0	11.12	20.59
26/01/2020 14:29:05	26012020	260120	142905	101.980	12.320667	-56.767998	102.060	0.020	0.120	-0.110	102.010	-1.300	0.400																			1580048945.0	10.86	20.11
26/01/2020 14:29:06	26012020	260120	142906	102.120	12.320658	-56.767948	102.160	0.010	0.020	-0.120	102.140	-1.300	0.300																			1580048946.0	10.92	20.22
26/01/2020 14:29:07	26012020	260120	142907	102.200	12.320647	-56.767897	102.200	0.140	-0.230	0.060	102.200	-1.500	0.400																			1580048947.0	11.16	20.67
26/01/2020 14:29:08	26012020	260120	142907	102.190	12.320637	-56.767845	102.140	0.310	-0.430	0.230	102.180	-1.800	0.600																			1580048947.0	11.26	20.85
26/01/2020 14:29:09	26012020	260120	142908	102.120	12.320627	-56.767793	102.090	0.390	-0.480	0.300	102.110	-1.900	0.700																			1580048948.0	11.19	20.72
26/01/2020 14:29:10	26012020	260120	142909	102.100	12.320617	-56.767742	102.100	0.310	-0.420	0.320	102.100	-1.900	0.700																			1580048949.0	11.05	20.46
26/01/2020 14:29:11	26012020	260120	142910	102.110	12.320605	-56.767690	102.060	0.110	-0.380	0.420	102.110	-1.800	0.800																			1580048950.0	10.96	20.30
26/01/2020 14:29:12	26012020	260120	142912	102.050	12.320595	-56.767640	101.920	-0.120	-0.350	0.530	102.030	-1.800	0.900																			1580048952.0	11.04	20.45
26/01/2020 14:29:13	26012020	260120	142912	101.890	12.320583	-56.767588	101.840	-0.370	-0.210	0.580	101.870	-1.700	1.000																			1580048952.0	11.08	20.52
26/01/2020 14:29:14	26012020	260120	142913	101.830	12.320572	-56.767538	101.820	-0.530	-0.080	0.590	101.830	-1.500	1.000																			1580048953.0	10.94	20.26
26/01/2020 14:29:15	26012020	260120	142914	101.800	12.320560	-56.767488	101.750	-0.430	-0.170	0.460	101.790	-1.500	0.900																			1580048954.0	11.00	20.37
26/01/2020 14:29:16	26012020	260120	142916	101.750	12.320548	-56.767435	101.710	-0.050	-0.480	0.290	101.730	-1.800	0.800																			1580048956.0	11.31	20.95
26/01/2020 14:29:17	26012020	260120	142916	101.730	12.320537	-56.767382	101.750	0.360	-0.530	0.070	101.740	-2.000	0.600																			1580048956.0	11.60	21.48
26/01/2020 14:29:18	26012020	260120	142917	101.800	12.320527	-56.767330	101.840	0.470	-0.070	-0.160	101.820	-1.700	0.300																			1580048957.0	11.22	20.78
26/01/2020 14:29:19	26012020	260120	142919	101.920	12.320520	-56.767280	101.990	0.290	0.380	-0.300	101.950	-1.200	0.100																			1580048959.0	10.62	19.67
26/01/2020 14:29:20	26012020	260120	142919	102.070	12.320512	-56.767230	102.160	0.100	0.230	-0.220	102.110	-1.000	0.100																			1580048959.0	10.62	19.67
26/01/2020 14:29:21	26012020	260120	142921	102.220	12.320502	-56.767178	102.200	0.060	-0.420	0.210	102.230	-1.600	0.400																			1580048961.0	11.22	20.78
26/01/2020 14:29:22	26012020	260120	142922	102.210	12.320488	-56.767125	102.100	0.050	-0.930	0.670	102.180	-2.200	0.900																			1580048962.0	11.69	21.65
26/01/2020 14:29:23	26012020	260120	142922	102.060	12.320475	-56.767072	101.920	-0.080	-0.860	1.070	102.020	-2.400	1.300																			1580048962.0	11.50	21.30
26/01/2020 14:29:24	26012020	260120	142923	101.870	12.320462	-56.767023	101.760	-0.270	-0.380	1.290	101.870	-2.000	1.600																			1580048963.0	10.90	20.19
26/01/2020 14:29:25	26012020	260120	142925	101.710	12.320448	-56.766973	101.640	-0.360	-0.000	1.060	101.690	-1.500	1.600																			1580048965.0	10.65	19.72
26/01/2020 14:29:26	26012020	260120	142925	101.620	12.320438	-56.766923	101.570	-0.320	0.090	0.650	101.600	-1.300	1.200																			1580048965.0	10.86	20.11
26/01/2020 14:29:27	26012020	260120	142927	101.570	12.320430	-56.766872	101.620	-0.210	-0.010	0.310	101.580	-1.400	0.800																			1580048967.0	11.16	20.67
26/01/2020 14:29:28	26012020	260120	142927	101.650	12.320420	-56.766820	101.730	-0.080	-0.100	0.110	101.670	-1.500	0.600																			1580048967.0	11.23	20.80
26/01/2020 14:29:29	26012020	260120	142928	101.770	12.320410	-56.766768	101.810	0.150	-0.270	0.080	101.790	-1.600	0.500																			1580048968.0	11.15	20.65
26/01/2020 14:29:30	26012020	260120	142929	101.820	12.320400	-56.766715	101.780	0.430	-0.540	0.260	101.810	-1.800	0.600																			1580048969.0	11.27	20.87
26/01/2020 14:29:31	26012020	260120	142930	101.770	12.320388	-56.766663	101.750	0.580	-0.580	0.430	101.770	-2.000	0.800																			1580048970.0	11.40	21.11
26/01/2020 14:29:32	26012020	260120	142932	101.740	12.320378	-56.766612	101.720	0.480	-0.220	0.440	101.730	-1.800	0.800																			1580048972.0	11.08	20.52
26/01/2020 14:29:33	26012020	260120	142932	101.710	12.320370	-56.766562	101.720	0.190	0.110	0.390	101.710	-1.400	0.800																			1580048972.0	10.67	19.76
26/01/2020 14:29:34	26012020	260120	142933	101.720	12.320360	-56.766512	101.740	-0.070	-0.000	0.360	101.720	-1.300	0.800																			1580048973.0	10.77	19.95
26/01/2020 14:29:35	26012020	260120	142935	101.720	12.320350	-56.766460	101.680	-0.180	-0.390	0.410	101.710	-1.700	0.800																			1580048975.0	11.25	20.84
26/01/2020 14:29:36	26012020	260120	142936	101.660	12.320338	-56.766407	101.680	-0.230	-0.580	0.510	101.660	-2.000	0.900																			1580048976.0	11.53	21.35
26/01/2020 14:29:37	26012020	260120	142936	101.680	12.320327	-56.766355	101.750	-0.360	-0.350	0.680	101.700	-1.900	1.000																			1580048976.0	11.23	20.80
26/01/2020 14:29:38	26012020	260120	142937	101.760	12.320313	-56.766305	101.810	-0.560	-0.040	0.780	101.770	-1.500	1.100																			1580048977.0	10.80	20.00
26/01/2020 14:29:39	26012020	260120	142939	101.790	12.320302	-56.766257	101.760	-0.580	-0.060	0.800	101.780	-1.400	1.200																			1580048979.0	10.74	19.89
26/01/2020 14:29:40	26012020	260120	142939	101.700	12.320288	-56.766205	101.570	-0.250	-0.400	0.790	101.660	-1.700	1.200																			1580048979.0	11.15	20.65
26/01/2020 14:29:41	26012020	260120	142941	101.480	12.320277	-56.766152	101.360	0.300	-0.710	0.560	101.440	-2.000	1.100																			1580048981.0	11.53	21.35
26/01/2020 14:29:42	26012020	260120	142942	101.310	12.320268	-56.766098	101.250	0.690	-0.660	0.260	101.280	-2.100	0.800																			1580048982.0	11.54	21.37
26/01/2020 14:29:43	26012020	260120	142942	101.230	12.320262	-56.766045	101.270	0.710	-0.260	0.070	101.230	-1.800	0.500																			1580048982.0	11.17	20.69
26/01/2020 14:29:44	26012020	260120	142944	101.290	12.320253	-56.765995	101.410	0.430	0.200	-0.010	101.320	-1.400	0.400																			1580048984.0	10.82	20.04
26/01/2020 14:29:45	26012020	260120	142944	101.440	12.320247	-56.765945	101.510	0.080	0.390	0.260	101.460	-1.000	0.500																			1580048984.0	10.73	19.87
26/01/2020 14:29:46	26012020	260120	142945	101.510	12.320235	-56.765895	101.540	-0.170	0.190	0.710	101.510	-1.100	0.900																			1580048985.0	10.96	20.30
26/01/2020 14:29:47	26012020	260120	142946	101.520	12.320223	-56.765842	101.570	-0.290	-0.250	0.990	101.520	-1.500	1.300																			1580048986.0	11.28	20.89
26/01/2020 14:29:48	26012020	260120	142947	101.530	12.320210	-56.765790	101.620	-0.320	-0.590	1.030	101.540	-1.900	1.400																			1580048987.0	11.45	21.21
26/01/2020 14:29:49	26012020	260120	142948	101.600	12.320198	-56.765738	101.720	-0.370	-0.550	0.880	101.620	-2.000	1.300																			1580048988.0	11.27	20.87
26/01/2020 14:29:50	26012020	260120	142949	101.700	12.320187	-56.765688	101.710	-0.380	-0.370	0.670	101.700	-1.800	1.100																			1580048989.0	10.83	20.06
26/01/2020 14:29:51	26012020	260120	142950	101.650	12.320177	-56.765638	101.560	-0.190	-0.450	0.560	101.620	-1.800	1.000																			1580048990.0	10.81	20.02
26/01/2020 14:29:52	26012020	260120	142951	101.460	12.320167	-56.765585	101.360	0.190	-0.690	0.530	101.420	-2.000	0.900																			1580048991.0	11.27	20.87
26/01/2020 14:29:53	26012020	260120	142952	101.290	12.320157	-56.765532	101.340	0.450	-0.630	0.350	101.280	-2.100	0.800																			1580048992.0	11.51	21.32
26/01/2020 14:29:54	26012020	260120	142954	101.340	12.320147	-56.765480	101.520	0.380	-0.160	0.140	101.380	-1.800	0.600																			1580048994.0	11.19	20.72
26/01/2020 14:29:55	26012020	260120	142955	101.540	12.320138	-56.765430	101.690	0.060	0.390	0.090	101.580	-1.200	0.500																			1580048995.0	10.70	19.82
26/01/2020 14:29:56	26012020	260120	142955	101.700	12.320128	-56.765382	101.770	-0.180	0.490	0.220	101.720	-0.900	0.500																			1580048995.0	10.58	19.59
26/01/2020 14:29:57	26012020	260120	142956	101.750	12.320118	-56.765330	101.760	-0.070	-0.020	0.530	101.750	-1.200	0.800																			1580048996.0	11.02	20.41
26/01/2020 14:29:58	26012020	260120	142958	101.710	12.320107	-56.765277	101.670	0.210	-0.650	0.680	101.690	-1.900	1.100																			1580048998.0	11.65	21.58
26/01/2020 14:29:59	26012020	260120	142958	101.620	12.320097	-56.765222	101.620	0.290	-0.790	0.610	101.610	-2.200	1.000																			1580048998.0	11.70	21.67
26/01/2020 14:30:00	26012020	260120	142959	101.610	12.320087	-56.765170	101.660	0.000	-0.340	0.620	101.610	-1.900	1.000	1016.60	25.90	26.00	19.80	19.90	837.00	69.00	69.00	375.00	29.00	356.00	9.10	90.00	3.40	60761	3293.00	27.60	27.60	1580048999.0	11.09	20.54
26/01/2020 14:30:01	26012020	260120	143000	101.670	12.320077	-56.765122	101.730	-0.390	0.110	0.650	101.680	-1.400	1.000																			1580049000.0	10.44	19.33
26/01/2020 14:30:02	26012020	260120	143001	101.730	12.320067	-56.765073	101.770	-0.500	-0.050	0.620	101.740	-1.300	1.000																			1580049001.0	10.58	19.59
26/01/2020 14:30:03	26012020	260120	143002	101.760	12.320055	-56.765022	101.730	-0.290	-0.580	0.710	101.760	-1.800	1.100																			1580049002.0	11.34	21.00
26/01/2020 14:30:04	26012020	260120	143003	101.680	12.320042	-56.764967	101.600	0.000	-0.810	0.730	101.650	-2.200	1.100																			1580049003.0	11.72	21.71
26/01/2020 14:30:05	26012020	260120	143005	101.550	12.320030	-56.764915	101.530	0.120	-0.540	0.590	101.530	-2.100	1.000																			1580049005.0	11.36	21.04
26/01/2020 14:30:06	26012020	260120	143005	101.500	12.320020	-56.764865	101.560	0.050	-0.010	0.530	101.510	-1.600	0.900																			1580049005.0	10.86	20.11
26/01/2020 14:30:07	26012020	260120	143006	101.540	12.320010	-56.764815	101.630	-0.060	0.370	0.400	101.560	-1.100	0.900																			1580049006.0	10.60	19.63
26/01/2020 14:30:08	26012020	260120	143007	101.620	12.320002	-56.764765	101.680	0.010	0.220	0.150	101.640	-1.100	0.600																			1580049007.0	10.76	19.93
26/01/2020 14:30:09	26012020	260120	143008	101.680	12.319992	-56.764713	101.740	0.220	-0.210	-0.030	101.690	-1.500	0.400																			1580049008.0	11.34	21.00
26/01/2020 14:30:10	26012020	260120	143009	101.760	12.319983	-56.764660	101.880	0.280	-0.370	0.000	101.790	-1.800	0.400																			1580049009.0	11.46	21.22
26/01/2020 14:30:11	26012020	260120	143010	101.940	12.319972	-56.764608	102.070	0.180	-0.220	0.170	101.980	-1.700	0.500																			1580049010.0	10.99	20.35
26/01/2020 14:30:12	26012020	260120	143012	102.100	12.319962	-56.764560	102.140	0.090	-0.110	0.420	102.120	-1.500	0.700																			1580049012.0	10.63	19.69
26/01/2020 14:30:13	26012020	260120	143012	102.100	12.319952	-56.764510	102.020	0.080	-0.340	0.630	102.080	-1.600	1.000																			1580049012.0	10.76	19.93
26/01/2020 14:30:14	26012020	260120	143013	101.940	12.319940	-56.764458	101.830	0.100	-0.800	0.750	101.900	-2.000	1.100																			1580049013.0	11.20	20.74
26/01/2020 14:30:15	26012020	260120	143014	101.750	12.319930	-56.764405	101.670	0.130	-1.120	0.800	101.720	-2.400	1.200																			1580049014.0	11.52	21.34
26/01/2020 14:30:16	26012020	260120	143015	101.610	12.319920	-56.764352	101.560	0.020	-0.870	0.880	101.590	-2.400	1.200																			1580049015.0	11.50	21.30
26/01/2020 14:30:17	26012020	260120	143016	101.490	12.319908	-56.764300	101.450	-0.340	-0.120	0.910	101.470	-1.800	1.300																			1580049016.0	10.97	20.32
26/01/2020 14:30:18	26012020	260120	143017	101.390	12.319897	-56.764252	101.390	-0.700	0.450	0.870	101.380	-1.100	1.300																			1580049017.0	10.49	19.43
26/01/2020 14:30:19	26012020	260120	143019	101.360	12.319885	-56.764203	101.460	-0.710	0.360	0.700	101.370	-1.000	1.200																			1580049019.0	10.82	20.04
26/01/2020 14:30:20	26012020	260120	143019	101.460	12.319872	-56.764150	101.580	-0.390	-0.040	0.450	101.490	-1.300	0.900																			1580049019.0	11.46	21.22
26/01/2020 14:30:21	26012020	260120	143020	101.580	12.319862	-56.764097	101.670	0.030	-0.180	0.200	101.600	-1.600	0.700																			1580049020.0	11.61	21.50
26/01/2020 14:30:22	26012020	260120	143021	101.670	12.319852	-56.764045	101.770	0.330	0.030	0.000	101.690	-1.500	0.500																			1580049021.0	11.14	20.63
26/01/2020 14:30:23	26012020	260120	143022	101.810	12.319843	-56.763995	102.000	0.460	0.240	-0.270	101.850	-1.200	0.200																			1580049022.0	10.66	19.74
26/01/2020 14:30:24	26012020	260120	143023	102.060	12.319835	-56.763945	102.230	0.480	0.130	-0.470	102.120	-1.200	-0.000																			1580049023.0	10.61	19.65
26/01/2020 14:30:25	26012020	260120	143024	102.260	12.319828	-56.763895	102.260	0.490	-0.370	-0.300	102.270	-1.600	-0.000																			1580049024.0	10.87	20.13
26/01/2020 14:30:26	26012020	260120	143025	102.210	12.319818	-56.763842	102.100	0.540	-0.980	0.190	102.180	-2.200	0.400																			1580049025.0	11.26	20.85
26/01/2020 14:30:27	26012020	260120	143026	102.020	12.319807	-56.763790	101.920	0.500	-1.230	0.600	101.980	-2.600	0.900																			1580049026.0	11.39	21.09
26/01/2020 14:30:28	26012020	260120	143027	101.840	12.319797	-56.763738	101.770	0.250	-1.010	0.900	101.810	-2.500	1.200																			1580049027.0	11.15	20.65
26/01/2020 14:30:29	26012020	260120	143028	101.680	12.319785	-56.763688	101.620	-0.220	-0.480	1.090	101.650	-2.100	1.400																			1580049028.0	10.88	20.15
26/01/2020 14:30:30	26012020	260120	143029	101.530	12.319773	-56.763638	101.460	-0.770	0.060	1.140	101.500	-1.500	1.500																			1580049029.0	10.71	19.83
26/01/2020 14:30:31	26012020	260120	143030	101.390	12.319760	-56.763590	101.350	-1.050	0.190	1.000	101.360	-1.200	1.500																			1580049030.0	10.81	20.02
26/01/2020 14:30:32	26012020	260120	143031	101.290	12.319747	-56.763537	101.320	-0.830	-0.140	0.750	101.280	-1.400	1.200																			1580049031.0	11.34	21.00
26/01/2020 14:30:33	26012020	260120	143032	101.290	12.319735	-56.763483	101.430	-0.360	-0.290	0.430	101.310	-1.700	1.000																			1580049032.0	11.80	21.85
26/01/2020 14:30:34	26012020	260120	143033	101.460	12.319723	-56.763430	101.700	-0.030	0.090	0.010	101.520	-1.500	0.600																			1580049033.0	11.39	21.09
26/01/2020 14:30:35	26012020	260120	143034	101.750	12.319713	-56.763382	101.920	0.100	0.500	-0.290	101.790	-1.000	0.200																			1580049034.0	10.64	19.71
26/01/2020 14:30:36	26012020	260120	143035	101.930	12.319707	-56.763332	102.060	0.270	0.370	-0.380	101.960	-0.900	0.000																			1580049035.0	10.55	19.54
26/01/2020 14:30:37	26012020	260120	143036	102.070	12.319698	-56.763280	102.210	0.540	-0.190	-0.330	102.110	-1.400	0.000																			1580049036.0	11.08	20.52
26/01/2020 14:30:38	26012020	260120	143037	102.230	12.319688	-56.763227	102.330	0.730	-0.640	-0.060	102.260	-1.900	0.200																			1580049037.0	11.40	21.11
26/01/2020 14:30:39	26012020	260120	143038	102.310	12.319678	-56.763175	102.320	0.670	-0.670	0.410	102.310	-2.100	0.600																			1580049038.0	11.14	20.63
26/01/2020 14:30:40	26012020	260120	143039	102.280	12.319668	-56.763127	102.190	0.410	-0.490	0.750	102.260	-2.000	1.000																			1580049039.0	10.68	19.78
26/01/2020 14:30:41	26012020	260120	143040	102.120	12.319657	-56.763077	102.010	0.130	-0.510	0.840	102.090	-1.900	1.200																			1580049040.0	10.64	19.71
26/01/2020 14:30:42	26012020	260120	143042	101.940	12.319647	-56.763025	101.830	-0.100	-0.610	0.900	101.900	-2.000	1.300																			1580049042.0	11.05	20.46
26/01/2020 14:30:43	26012020	260120	143042	101.780	12.319635	-56.762975	101.740	-0.370	-0.440	0.860	101.760	-1.900	1.300																			1580049042.0	11.16	20.67
26/01/2020 14:30:44	26012020	260120	143043	101.680	12.319623	-56.762925	101.650	-0.620	-0.160	0.760	101.660	-1.700	1.200																			1580049043.0	10.88	20.15
26/01/2020 14:30:45	26012020	260120	143044	101.570	12.319612	-56.762875	101.550	-0.620	-0.230	0.730	101.550	-1.600	1.100																			1580049044.0	10.88	20.15
26/01/2020 14:30:46	26012020	260120	143045	101.500	12.319598	-56.762822	101.540	-0.330	-0.560	0.620	101.500	-1.900	1.100																			1580049045.0	11.39	21.09
26/01/2020 14:30:47	26012020	260120	143046	101.530	12.319587	-56.762768	101.580	-0.010	-0.560	0.450	101.540	-2.000	0.900																			1580049046.0	11.71	21.69
26/01/2020 14:30:48	26012020	260120	143047	101.570	12.319577	-56.762717	101.640	0.080	0.030	0.210	101.590	-1.600	0.700																			1580049047.0	11.23	20.80
26/01/2020 14:30:49	26012020	260120	143048	101.650	12.319567	-56.762667	101.780	-0.010	0.630	0.050	101.670	-1.000	0.500																			1580049048.0	10.53	19.50
26/01/2020 14:30:50	26012020	260120	143049	101.830	12.319558	-56.762618	102.100	-0.070	0.690	-0.050	101.890	-0.700	0.400																			1580049049.0	10.48	19.41
26/01/2020 14:30:51	26012020	260120	143050	102.160	12.319548	-56.762568	102.400	0.040	0.180	-0.140	102.230	-1.000	0.300																			1580049050.0	10.93	20.24
26/01/2020 14:30:52	26012020	260120	143051	102.400	12.319538	-56.762515	102.460	0.270	-0.470	0.020	102.430	-1.700	0.300																			1580049051.0	11.36	21.04
26/01/2020 14:30:53	26012020	260120	143052	102.420	12.319527	-56.762462	102.330	0.460	-0.800	0.290	102.390	-2.100	0.600																			1580049052.0	11.35	21.02
26/01/2020 14:30:54	26012020	260120	143053	102.310	12.319517	-56.762412	102.200	0.470	-0.770	0.510	102.280	-2.200	0.800																			1580049053.0	10.99	20.35
26/01/2020 14:30:55	26012020	260120	143054	102.140	12.319507	-56.762362	102.010	0.250	-0.590	0.690	102.110	-2.100	1.000																			1580049054.0	10.73	19.87
26/01/2020 14:30:56	26012020	260120	143055	101.930	12.319497	-56.762312	101.790	-0.070	-0.460	0.730	101.890	-1.900	1.100																			1580049055.0	10.70	19.82
26/01/2020 14:30:57	26012020	260120	143056	101.710	12.319487	-56.762262	101.590	-0.260	-0.530	0.730	101.660	-1.900	1.100																			1580049056.0	10.95	20.28
26/01/2020 14:30:58	26012020	260120	143058	101.530	12.319475	-56.762210	101.450	-0.280	-0.570	0.720	101.500	-2.000	1.100																			1580049058.0	11.32	20.96
26/01/2020 14:30:59	26012020	260120	143058	101.420	12.319462	-56.762157	101.420	-0.230	-0.320	0.510	101.410	-1.900	1.000																			1580049058.0	11.31	20.95
26/01/2020 14:31:00	26012020	260120	143059	101.420	12.319450	-56.762107	101.460	-0.170	0.070	0.280	101.420	-1.500	0.700	1016.60	25.90	26.00	19.90	20.00	848.00	69.00	69.00	375.00	29.00	353.00	9.50	85.00	3.90	61301	3223.00	27.60	27.60	1580049059.0	11.00	20.37
26/01/2020 14:31:01	26012020	260120	143101	101.470	12.319440	-56.762057	101.530	-0.100	0.330	0.200	101.490	-1.100	0.600																			1580049061.0	10.86	20.11
26/01/2020 14:31:02	26012020	260120	143101	101.540	12.319430	-56.762005	101.640	-0.090	0.310	0.150	101.560	-1.100	0.600																			1580049061.0	10.96	20.30
26/01/2020 14:31:03	26012020	260120	143102	101.670	12.319420	-56.761955	101.810	-0.120	0.130	0.250	101.700	-1.200	0.600																			1580049062.0	11.09	20.54
26/01/2020 14:31:04	26012020	260120	143103	101.800	12.319410	-56.761903	102.000	-0.050	-0.170	0.470	101.840	-1.500	0.800																			1580049063.0	11.07	20.50
26/01/2020 14:31:05	26012020	260120	143104	102.030	12.319398	-56.761852	102.120	0.160	-0.520	0.630	102.060	-1.800	1.000																			1580049064.0	11.15	20.65
26/01/2020 14:31:06	26012020	260120	143105	102.110	12.319387	-56.761800	102.080	0.330	-0.680	0.710	102.120	-2.100	1.100																			1580049065.0	11.24	20.82
26/01/2020 14:31:07	26012020	260120	143106	102.040	12.319375	-56.761748	102.010	0.270	-0.440	0.630	102.030	-2.000	1.100																			1580049066.0	11.01	20.39
26/01/2020 14:31:08	26012020	260120	143107	102.010	12.319367	-56.761700	102.030	0.080	-0.090	0.400	102.010	-1.600	0.900																			1580049067.0	10.55	19.54
26/01/2020 14:31:09	26012020	260120	143108	102.050	12.319358	-56.761652	102.030	0.030	-0.140	0.230	102.050	-1.500	0.700																			1580049068.0	10.54	19.52
26/01/2020 14:31:10	26012020	260120	143109	102.020	12.319350	-56.761600	101.930	0.160	-0.540	0.230	102.000	-1.800	0.600																			1580049069.0	11.10	20.56
26/01/2020 14:31:11	26012020	260120	143110	101.900	12.319340	-56.761545	101.800	0.200	-0.780	0.450	101.880	-2.100	0.700																			1580049070.0	11.53	21.35
26/01/2020 14:31:12	26012020	260120	143111	101.770	12.319327	-56.761493	101.700	-0.000	-0.590	0.840	101.750	-2.100	1.100																			1580049071.0	11.33	20.98
26/01/2020 14:31:13	26012020	260120	143112	101.700	12.319315	-56.761443	101.710	-0.310	-0.130	1.010	101.700	-1.700	1.400																			1580049072.0	10.90	20.19
26/01/2020 14:31:14	26012020	260120	143113	101.720	12.319302	-56.761395	101.760	-0.500	0.180	0.940	101.730	-1.300	1.400																			1580049073.0	10.65	19.72
26/01/2020 14:31:15	26012020	260120	143114	101.760	12.319290	-56.761345	101.740	-0.410	0.050	0.780	101.760	-1.300	1.200																			1580049074.0	10.91	20.21
26/01/2020 14:31:16	26012020	260120	143115	101.720	12.319278	-56.761292	101.690	-0.190	-0.170	0.560	101.710	-1.500	1.000																			1580049075.0	11.39	21.09
26/01/2020 14:31:17	26012020	260120	143116	101.700	12.319268	-56.761240	101.770	-0.080	-0.030	0.290	101.710	-1.500	0.800																			1580049076.0	11.33	20.98
26/01/2020 14:31:18	26012020	260120	143117	101.810	12.319258	-56.761190	101.950	-0.070	0.220	0.040	101.840	-1.300	0.500																			1580049077.0	10.73	19.87
26/01/2020 14:31:19	26012020	260120	143118	102.000	12.319250	-56.761140	102.120	0.080	0.060	-0.220	102.040	-1.200	0.300																			1580049078.0	10.57	19.58
26/01/2020 14:31:20	26012020	260120	143120	102.160	12.319240	-56.761088	102.210	0.460	-0.470	-0.280	102.180	-1.700	0.100																			1580049080.0	11.07	20.50
26/01/2020 14:31:21	26012020	260120	143120	102.230	12.319232	-56.761037	102.240	0.790	-0.830	-0.060	102.240	-2.200	0.200																			1580049080.0	11.44	21.19
26/01/2020 14:31:22	26012020	260120	143121	102.230	12.319222	-56.760983	102.190	0.790	-0.750	0.290	102.230	-2.200	0.600																			1580049081.0	11.17	20.69
26/01/2020 14:31:23	26012020	260120	143122	102.160	12.319212	-56.760935	102.080	0.420	-0.390	0.630	102.140	-2.000	0.900																			1580049082.0	10.77	19.95
26/01/2020 14:31:24	26012020	260120	143123	102.050	12.319202	-56.760885	102.010	-0.170	-0.090	0.910	102.030	-1.600	1.200																			1580049083.0	10.57	19.58
26/01/2020 14:31:25	26012020	260120	143124	101.980	12.319190	-56.760837	101.910	-0.710	-0.130	1.120	101.960	-1.500	1.400																			1580049084.0	10.74	19.89
26/01/2020 14:31:26	26012020	260120	143125	101.860	12.319175	-56.760785	101.730	-0.990	-0.280	1.180	101.830	-1.600	1.600																			1580049085.0	11.14	20.63
26/01/2020 14:31:27	26012020	260120	143126	101.660	12.319162	-56.760733	101.490	-0.920	-0.410	1.140	101.610	-1.800	1.600																			1580049086.0	11.27	20.87
26/01/2020 14:31:28	26012020	260120	143127	101.410	12.319147	-56.760682	101.270	-0.520	-0.480	0.940	101.370	-1.900	1.400																			1580049087.0	11.28	20.89
26/01/2020 14:31:29	26012020	260120	143128	101.230	12.319135	-56.760630	101.180	0.020	-0.420	0.510	101.210	-1.900	1.100																			1580049088.0	11.30	20.93
26/01/2020 14:31:30	26012020	260120	143129	101.180	12.319127	-56.760578	101.220	0.370	-0.100	0.060	101.180	-1.700	0.600																			1580049089.0	11.17	20.69
26/01/2020 14:31:31	26012020	260120	143130	101.250	12.319118	-56.760528	101.340	0.450	0.320	-0.200	101.270	-1.200	0.300																			1580049090.0	10.80	20.00
26/01/2020 14:31:32	26012020	260120	143132	101.390	12.319112	-56.760478	101.500	0.440	0.360	-0.240	101.420	-1.000	0.100																			1580049092.0	10.61	19.65
26/01/2020 14:31:33	26012020	260120	143132	101.530	12.319103	-56.760427	101.640	0.490	-0.080	-0.020	101.550	-1.300	0.300																			1580049092.0	11.00	20.37
26/01/2020 14:31:34	26012020	260120	143133	101.680	12.319093	-56.760373	101.820	0.440	-0.460	0.310	101.710	-1.800	0.600																			1580049093.0	11.39	21.09
26/01/2020 14:31:35	26012020	260120	143134	101.850	12.319082	-56.760323	101.990	0.210	-0.390	0.720	101.880	-1.900	1.000																			1580049094.0	11.14	20.63
26/01/2020 14:31:36	26012020	260120	143135	101.980	12.319070	-56.760275	102.030	-0.100	-0.120	0.970	102.000	-1.600	1.300																			1580049095.0	10.55	19.54
26/01/2020 14:31:37	26012020	260120	143136	101.990	12.319058	-56.760227	101.890	-0.260	-0.220	1.050	101.960	-1.500	1.400																			1580049096.0	10.42	19.30
26/01/2020 14:31:38	26012020	260120	143137	101.790	12.319048	-56.760175	101.650	-0.220	-0.680	1.020	101.750	-1.900	1.400																			1580049097.0	10.99	20.35
26/01/2020 14:31:39	26012020	260120	143138	101.550	12.319037	-56.760123	101.430	-0.120	-0.990	0.840	101.510	-2.300	1.300																			1580049098.0	11.42	21.15
26/01/2020 14:31:40	26012020	260120	143139	101.350	12.319027	-56.760070	101.280	-0.110	-0.790	0.660	101.320	-2.300	1.100																			1580049099.0	11.33	20.98
26/01/2020 14:31:41	26012020	260120	143140	101.240	12.319017	-56.760020	101.240	-0.250	-0.250	0.600	101.230	-1.900	1.000																			1580049100.0	10.88	20.15
26/01/2020 14:31:42	26012020	260120	143141	101.210	12.319007	-56.759970	101.200	-0.350	0.120	0.570	101.210	-1.400	1.000																			1580049101.0	10.63	19.69
26/01/2020 14:31:43	26012020	260120	143142	101.160	12.318995	-56.759920	101.170	-0.210	0.060	0.420	101.150	-1.300	0.900																			1580049102.0	10.90	20.19
26/01/2020 14:31:44	26012020	260120	143143	101.150	12.318985	-56.759867	101.220	0.140	-0.270	0.310	101.160	-1.600	0.700																			1580049103.0	11.41	21.13
26/01/2020 14:31:45	26012020	260120	143144	101.210	12.318975	-56.759813	101.350	0.340	-0.290	0.290	101.230	-1.800	0.700																			1580049104.0	11.61	21.50
26/01/2020 14:31:46	26012020	260120	143145	101.380	12.318965	-56.759762	101.620	0.180	0.180	0.320	101.430	-1.400	0.700																			1580049105.0	11.06	20.48
26/01/2020 14:31:47	26012020	260120	143146	101.660	12.318955	-56.759715	101.880	-0.120	0.580	0.430	101.720	-0.900	0.800																			1580049106.0	10.37	19.21
26/01/2020 14:31:48	26012020	260120	143147	101.890	12.318943	-56.759667	101.960	-0.170	0.290	0.590	101.920	-0.900	0.900																			1580049107.0	10.39	19.24
26/01/2020 14:31:49	26012020	260120	143148	101.900	12.318933	-56.759615	101.850	0.060	-0.450	0.750	101.880	-1.600	1.100																			1580049108.0	11.14	20.63
26/01/2020 14:31:50	26012020	260120	143149	101.780	12.318922	-56.759562	101.760	0.290	-0.870	0.780	101.760	-2.200	1.200																			1580049109.0	11.52	21.34
26/01/2020 14:31:51	26012020	260120	143150	101.710	12.318912	-56.759510	101.660	0.290	-0.700	0.680	101.690	-2.200	1.100																			1580049110.0	11.08	20.52
26/01/2020 14:31:52	26012020	260120	143151	101.600	12.318903	-56.759462	101.500	0.140	-0.330	0.500	101.570	-1.900	1.000																			1580049111.0	10.50	19.45
26/01/2020 14:31:53	26012020	260120	143152	101.430	12.318895	-56.759412	101.390	0.020	-0.230	0.260	101.400	-1.600	0.700																			1580049112.0	10.49	19.43
26/01/2020 14:31:54	26012020	260120	143153	101.360	12.318887	-56.759362	101.360	0.060	-0.460	0.150	101.350	-1.800	0.600																			1580049113.0	10.93	20.24
26/01/2020 14:31:55	26012020	260120	143154	101.300	12.318877	-56.759308	101.240	0.190	-0.760	0.230	101.280	-2.100	0.600																			1580049114.0	11.34	21.00
26/01/2020 14:31:56	26012020	260120	143155	101.160	12.318867	-56.759255	101.080	0.190	-0.790	0.470	101.120	-2.200	0.800																			1580049115.0	11.53	21.35
26/01/2020 14:31:57	26012020	260120	143156	101.010	12.318855	-56.759203	101.040	-0.070	-0.310	0.800	101.000	-2.000	1.100																			1580049116.0	11.25	20.84
26/01/2020 14:31:58	26012020	260120	143157	101.020	12.318842	-56.759155	101.160	-0.500	0.380	0.950	101.040	-1.300	1.300																			1580049117.0	10.69	19.80
26/01/2020 14:31:59	26012020	260120	143158	101.150	12.318830	-56.759107	101.280	-0.780	0.610	0.820	101.180	-0.800	1.300																			1580049118.0	10.44	19.33
26/01/2020 14:32:00	26012020	260120	143159	101.250	12.318820	-56.759057	101.280	-0.630	0.110	0.650	101.250	-1.100	1.100	1016.60	25.90	26.00	19.90	20.00	834.00	69.00	69.00	376.00	29.00	354.00	9.50	86.00	3.90	60688	3260.00	27.60	27.60	1580049119.0	10.93	20.24
26/01/2020 14:32:01	26012020	260120	143200	101.220	12.318808	-56.759002	101.200	-0.210	-0.510	0.660	101.200	-1.700	1.000																			1580049120.0	11.65	21.58
26/01/2020 14:32:02	26012020	260120	143201	101.130	12.318797	-56.758948	101.180	0.080	-0.460	0.600	101.120	-2.000	1.000																			1580049121.0	11.62	21.52
26/01/2020 14:32:03	26012020	260120	143202	101.140	12.318787	-56.758898	101.210	0.100	0.080	0.450	101.150	-1.500	0.900																			1580049122.0	10.70	19.82
26/01/2020 14:32:04	26012020	260120	143203	101.160	12.318778	-56.758852	101.180	0.150	0.250	0.320	101.160	-1.100	0.800																			1580049123.0	10.18	18.85
26/01/2020 14:32:05	26012020	260120	143205	101.140	12.318770	-56.758802	101.160	0.470	-0.270	0.100	101.140	-1.400	0.600																			1580049125.0	10.71	19.83
26/01/2020 14:32:06	26012020	260120	143205	101.130	12.318762	-56.758748	101.190	0.890	-0.830	-0.050	101.140	-2.100	0.400																			1580049125.0	11.51	21.32
26/01/2020 14:32:07	26012020	260120	143206	101.160	12.318755	-56.758693	101.260	0.930	-0.720	0.030	101.170	-2.300	0.400																			1580049126.0	11.47	21.24
26/01/2020 14:32:08	26012020	260120	143207	101.250	12.318747	-56.758645	101.410	0.450	-0.130	0.250	101.280	-1.800	0.600																			1580049127.0	10.64	19.71
26/01/2020 14:32:09	26012020	260120	143208	101.420	12.318738	-56.758597	101.550	-0.190	0.130	0.650	101.450	-1.300	0.900																			1580049128.0	10.16	18.82
26/01/2020 14:32:10	26012020	260120	143209	101.500	12.318727	-56.758548	101.510	-0.540	-0.290	1.110	101.500	-1.500	1.400																			1580049129.0	10.67	19.76
26/01/2020 14:32:11	26012020	260120	143210	101.420	12.318713	-56.758497	101.330	-0.560	-0.820	1.380	101.380	-2.100	1.700																			1580049130.0	11.44	21.19
26/01/2020 14:32:12	26012020	260120	143211	101.200	12.318698	-56.758443	101.060	-0.450	-0.970	1.530	101.150	-2.400	1.900																			1580049131.0	11.57	21.43
26/01/2020 14:32:13	26012020	260120	143212	100.920	12.318687	-56.758392	100.800	-0.410	-0.640	1.370	100.870	-2.200	1.900																			1580049132.0	11.23	20.80
26/01/2020 14:32:14	26012020	260120	143213	100.690	12.318677	-56.758342	100.630	-0.410	-0.170	0.890	100.660	-1.700	1.500																			1580049133.0	10.82	20.04
26/01/2020 14:32:15	26012020	260120	143214	100.570	12.318668	-56.758290	100.620	-0.320	0.090	0.430	100.570	-1.400	1.000																			1580049134.0	10.84	20.08
26/01/2020 14:32:16	26012020	260120	143215	100.610	12.318660	-56.758238	100.750	-0.160	0.250	0.130	100.630	-1.200	0.600																			1580049135.0	11.10	20.56
26/01/2020 14:32:17	26012020	260120	143216	100.750	12.318650	-56.758188	100.950	0.000	0.450	-0.070	100.790	-1.000	0.400																			1580049136.0	11.06	20.48
26/01/2020 14:32:18	26012020	260120	143217	100.990	12.318642	-56.758137	101.190	0.210	0.440	-0.050	101.040	-0.900	0.300																			1580049137.0	10.82	20.04
26/01/2020 14:32:19	26012020	260120	143218	101.220	12.318633	-56.758087	101.430	0.500	0.050	0.040	101.270	-1.200	0.400																			1580049138.0	10.92	20.22
26/01/2020 14:32:20	26012020	260120	143219	101.480	12.318625	-56.758033	101.720	0.760	-0.450	0.040	101.480	-1.700	0.400																			1580049139.0	11.21	20.76
26/01/2020 14:32:21	26012020	260120	143220	101.770	12.318617	-56.757982	101.950	0.760	-0.590	0.060	101.820	-2.000	0.400																			1580049140.0	11.21	20.76
26/01/2020 14:32:22	26012020	260120	143221	101.960	12.318608	-56.757932	102.020	0.380	-0.340	0.190	101.980	-1.900	0.500																			1580049141.0	10.69	19.80
26/01/2020 14:32:23	26012020	260120	143222	102.010	12.318600	-56.757883	102.000	-0.150	-0.210	0.470	102.000	-1.600	0.800																			1580049142.0	10.28	19.04
26/01/2020 14:32:24	26012020	260120	143223	101.960	12.318588	-56.757835	101.870	-0.440	-0.510	0.790	101.940	-1.800	1.100																			1580049143.0	10.52	19.48
26/01/2020 14:32:25	26012020	260120	143224	101.780	12.318577	-56.757785	101.580	-0.350	-1.080	1.010	101.730	-2.300	1.300																			1580049144.0	11.15	20.65
26/01/2020 14:32:26	26012020	260120	143225	101.480	12.318563	-56.757730	101.250	-0.130	-1.360	1.120	101.420	-2.700	1.500																			1580049145.0	11.64	21.56
26/01/2020 14:32:27	26012020	260120	143226	101.150	12.318552	-56.757678	100.980	-0.060	-0.960	1.040	101.090	-2.600	1.500																			1580049146.0	11.49	21.28
26/01/2020 14:32:28	26012020	260120	143227	100.940	12.318540	-56.757627	100.910	-0.200	-0.120	0.700	100.920	-1.800	1.200																			1580049147.0	10.90	20.19
26/01/2020 14:32:29	26012020	260120	143228	100.930	12.318532	-56.757578	101.020	-0.340	0.550	0.250	100.950	-1.100	0.800																			1580049148.0	10.58	19.59
26/01/2020 14:32:30	26012020	260120	143229	101.090	12.318523	-56.757528	101.260	-0.300	0.690	-0.050	101.140	-0.700	0.400																			1580049149.0	10.82	20.04
26/01/2020 14:32:31	26012020	260120	143230	101.340	12.318515	-56.757475	101.580	-0.070	0.500	-0.210	101.400	-0.800	0.300																			1580049150.0	11.22	20.78
26/01/2020 14:32:32	26012020	260120	143231	101.700	12.318505	-56.757423	102.000	0.140	0.260	-0.250	101.780	-1.100	0.100																			1580049151.0	11.33	20.98
26/01/2020 14:32:33	26012020	260120	143232	102.090	12.318495	-56.757372	102.320	0.160	0.060	-0.070	102.160	-1.300	0.300																			1580049152.0	11.12	20.59
26/01/2020 14:32:34	26012020	260120	143233	102.320	12.318485	-56.757322	102.450	-0.010	-0.110	0.150	102.360	-1.400	0.500																			1580049153.0	10.84	20.08
26/01/2020 14:32:35	26012020	260120	143234	102.440	12.318475	-56.757272	102.440	-0.090	-0.360	0.380	102.450	-1.700	0.700																			1580049154.0	10.67	19.76
26/01/2020 14:32:36	26012020	260120	143235	102.420	12.318463	-56.757222	102.310	0.070	-0.700	0.590	102.400	-2.000	0.900																			1580049155.0	10.76	19.93
26/01/2020 14:32:37	26012020	260120	143236	102.240	12.318452	-56.757172	102.030	0.390	-1.100	0.570	102.190	-2.400	1.000																			1580049156.0	11.00	20.37
26/01/2020 14:32:38	26012020	260120	143237	101.940	12.318443	-56.757118	101.710	0.610	-1.280	0.410	101.880	-2.700	0.900																			1580049157.0	11.29	20.91
26/01/2020 14:32:39	26012020	260120	143238	101.660	12.318433	-56.757067	101.540	0.500	-0.850	0.380	101.620	-2.500	0.800																			1580049158.0	11.22	20.78
26/01/2020 14:32:40	26012020	260120	143239	101.530	12.318425	-56.757017	101.520	0.090	-0.020	0.340	101.530	-1.700	0.800																			1580049159.0	10.66	19.74
26/01/2020 14:32:41	26012020	260120	143240	101.550	12.318415	-56.756968	101.630	-0.330	0.460	0.270	101.570	-1.000	0.700																			1580049160.0	10.36	19.19
26/01/2020 14:32:42	26012020	260120	143241	101.670	12.318405	-56.756918	101.760	-0.510	0.280	0.330	101.700	-1.000	0.700																			1580049161.0	10.84	20.08
26/01/2020 14:32:43	26012020	260120	143242	101.780	12.318393	-56.756867	101.830	-0.440	-0.180	0.490	101.790	-1.400	0.800																			1580049162.0	11.49	21.28
26/01/2020 14:32:44	26012020	260120	143243	101.830	12.318380	-56.756813	101.930	-0.260	-0.360	0.540	101.840	-1.700	0.900																			1580049163.0	11.60	21.48
26/01/2020 14:32:45	26012020	260120	143244	101.980	12.318368	-56.756762	102.090	-0.070	-0.140	0.490	102.010	-1.700	0.900																			1580049164.0	11.16	20.67
26/01/2020 14:32:46	26012020	260120	143245	102.110	12.318358	-56.756712	102.240	0.020	0.080	0.380	102.140	-1.400	0.800																			1580049165.0	10.72	19.85
26/01/2020 14:32:47	26012020	260120	143246	102.280	12.318348	-56.756662	102.310	0.040	-0.010	0.210	102.300	-1.400	0.700																			1580049166.0	10.74	19.89
26/01/2020 14:32:48	26012020	260120	143247	102.330	12.318340	-56.756610	102.310	0.070	-0.260	0.160	102.330	-1.600	0.600																			1580049167.0	11.04	20.45
26/01/2020 14:32:49	26012020	260120	143248	102.340	12.318330	-56.756558	102.380	0.100	-0.390	0.180	102.350	-1.800	0.600																			1580049168.0	11.11	20.58
26/01/2020 14:32:50	26012020	260120	143249	102.430	12.318320	-56.756508	102.480	0.130	-0.460	0.130	102.450	-1.800	0.600																			1580049169.0	10.97	20.32
26/01/2020 14:32:51	26012020	260120	143250	102.530	12.318308	-56.756457	102.490	0.220	-0.550	0.050	102.540	-1.900	0.500																			1580049170.0	10.97	20.32
26/01/2020 14:32:52	26012020	260120	143251	102.500	12.318298	-56.756407	102.440	0.300	-0.470	0.020	102.490	-1.900	0.400																			1580049171.0	11.07	20.50
26/01/2020 14:32:53	26012020	260120	143252	102.460	12.318288	-56.756355	102.460	0.210	-0.150	0.100	102.460	-1.700	0.500																			1580049172.0	10.90	20.19
26/01/2020 14:32:54	26012020	260120	143253	102.500	12.318278	-56.756307	102.500	0.000	0.040	0.120	102.510	-1.400	0.500																			1580049173.0	10.62	19.67
26/01/2020 14:32:55	26012020	260120	143254	102.530	12.318268	-56.756257	102.440	-0.120	-0.160	0.160	102.530	-1.400	0.500																			1580049174.0	10.81	20.02
26/01/2020 14:32:56	26012020	260120	143255	102.430	12.318257	-56.756205	102.270	-0.080	-0.580	0.380	102.390	-1.800	0.700																			1580049175.0	11.26	20.85
26/01/2020 14:32:57	26012020	260120	143256	102.260	12.318245	-56.756152	102.220	0.010	-0.780	0.510	102.240	-2.200	0.900																			1580049176.0	11.53	21.35
26/01/2020 14:32:58	26012020	260120	143257	102.240	12.318233	-56.756098	102.270	-0.020	-0.530	0.570	102.260	-2.100	0.900																			1580049177.0	11.31	20.95
26/01/2020 14:32:59	26012020	260120	143258	102.320	12.318222	-56.756048	102.320	-0.160	-0.070	0.580	102.330	-1.600	1.000																			1580049178.0	10.86	20.11
26/01/2020 14:33:00	26012020	260120	143259	102.380	12.318212	-56.756000	102.420	-0.330	0.300	0.470	102.400	-1.200	0.900	1016.60	25.90	26.00	20.10	20.20	833.00	70.00	70.00	376.00	29.00	0.00	8.90	102.00	3.30	60653	3157.00	27.60	27.60	1580049179.0	10.72	19.85
26/01/2020 14:33:01	26012020	260120	143300	102.490	12.318200	-56.755950	102.520	-0.380	0.360	0.290	102.510	-1.000	0.800																			1580049180.0	10.77	19.95
26/01/2020 14:33:02	26012020	260120	143301	102.590	12.318188	-56.755898	102.630	-0.210	-0.010	0.090	102.610	-1.200	0.500																			1580049181.0	11.04	20.45
26/01/2020 14:33:03	26012020	260120	143302	102.700	12.318178	-56.755847	102.760	0.090	-0.470	-0.090	102.720	-1.700	0.400																			1580049182.0	11.44	21.19
26/01/2020 14:33:04	26012020	260120	143303	102.850	12.318167	-56.755793	102.880	0.330	-0.580	-0.200	102.880	-2.000	0.200																			1580049183.0	11.39	21.09
26/01/2020 14:33:05	26012020	260120	143304	102.930	12.318157	-56.755742	102.820	0.450	-0.360	-0.150	102.920	-1.900	0.200																			1580049184.0	10.99	20.35
26/01/2020 14:33:06	26012020	260120	143305	102.850	12.318147	-56.755693	102.760	0.370	-0.030	-0.040	102.840	-1.600	0.300																			1580049185.0	10.69	19.80
26/01/2020 14:33:07	26012020	260120	143306	102.820	12.318137	-56.755643	102.820	0.160	0.150	0.000	102.830	-1.300	0.400																			1580049186.0	10.55	19.54
26/01/2020 14:33:08	26012020	260120	143307	102.880	12.318127	-56.755595	102.900	0.020	-0.130	0.130	102.900	-1.400	0.500																			1580049187.0	10.70	19.82
26/01/2020 14:33:09	26012020	260120	143308	102.940	12.318115	-56.755543	102.860	0.030	-0.710	0.470	102.930	-1.900	0.700																			1580049188.0	11.21	20.76
26/01/2020 14:33:10	26012020	260120	143309	102.860	12.318102	-56.755490	102.750	0.050	-1.060	0.780	102.840	-2.400	1.100																			1580049189.0	11.57	21.43
26/01/2020 14:33:11	26012020	260120	143310	102.720	12.318088	-56.755438	102.580	-0.110	-0.740	0.940	102.680	-2.300	1.300																			1580049190.0	11.36	21.04
26/01/2020 14:33:12	26012020	260120	143311	102.550	12.318077	-56.755388	102.480	-0.410	-0.100	0.870	102.530	-1.700	1.300																			1580049191.0	10.70	19.82
26/01/2020 14:33:13	26012020	260120	143312	102.460	12.318065	-56.755340	102.400	-0.530	0.110	0.700	102.450	-1.300	1.200																			1580049192.0	10.51	19.46
26/01/2020 14:33:14	26012020	260120	143313	102.400	12.318053	-56.755288	102.290	-0.290	-0.220	0.500	102.380	-1.500	1.000																			1580049193.0	11.11	20.58
26/01/2020 14:33:15	26012020	260120	143314	102.290	12.318042	-56.755235	102.180	0.140	-0.510	0.260	102.270	-1.800	0.700																			1580049194.0	11.72	21.71
26/01/2020 14:33:16	26012020	260120	143315	102.200	12.318032	-56.755182	102.160	0.410	-0.320	0.130	102.190	-1.800	0.600																			1580049195.0	11.59	21.46
26/01/2020 14:33:17	26012020	260120	143316	102.210	12.318022	-56.755130	102.270	0.340	0.120	0.070	102.230	-1.400	0.500																			1580049196.0	11.02	20.41
26/01/2020 14:33:18	26012020	260120	143317	102.370	12.318012	-56.755080	102.500	0.020	0.420	0.040	102.420	-1.100	0.400																			1580049197.0	10.72	19.85
26/01/2020 14:33:19	26012020	260120	143318	102.620	12.318002	-56.755030	102.820	-0.300	0.500	0.150	102.690	-0.900	0.500																			1580049198.0	10.72	19.85
26/01/2020 14:33:20	26012020	260120	143319	102.940	12.317990	-56.754982	103.070	-0.400	0.290	0.410	102.990	-1.000	0.700																			1580049199.0	10.75	19.91
26/01/2020 14:33:21	26012020	260120	143320	103.150	12.317977	-56.754932	103.120	-0.210	-0.300	0.740	103.160	-1.400	1.000																			1580049200.0	10.94	20.26
26/01/2020 14:33:22	26012020	260120	143321	103.120	12.317962	-56.754880	102.970	0.120	-0.880	0.840	103.100	-2.100	1.200																			1580049201.0	11.35	21.02
26/01/2020 14:33:23	26012020	260120	143322	102.940	12.317950	-56.754828	102.820	0.400	-1.050	0.580	102.900	-2.400	1.100																			1580049202.0	11.26	20.85
26/01/2020 14:33:24	26012020	260120	143323	102.790	12.317942	-56.754777	102.670	0.590	-0.860	0.220	102.770	-2.400	0.700																			1580049203.0	10.92	20.22
26/01/2020 14:33:25	26012020	260120	143324	102.670	12.317933	-56.754727	102.530	0.550	-0.500	0.000	102.650	-2.000	0.500																			1580049204.0	10.79	19.98
26/01/2020 14:33:26	26012020	260120	143325	102.540	12.317925	-56.754677	102.390	0.260	-0.250	0.060	102.510	-1.700	0.400																			1580049205.0	10.76	19.93
26/01/2020 14:33:27	26012020	260120	143326	102.390	12.317915	-56.754625	102.290	-0.040	-0.240	0.340	102.370	-1.600	0.600																			1580049206.0	10.96	20.30
26/01/2020 14:33:28	26012020	260120	143327	102.290	12.317903	-56.754573	102.220	-0.240	-0.310	0.620	102.270	-1.700	0.900																			1580049207.0	11.29	20.91
26/01/2020 14:33:29	26012020	260120	143328	102.200	12.317890	-56.754522	102.090	-0.340	-0.360	0.800	102.170	-1.700	1.100																			1580049208.0	11.41	21.13
26/01/2020 14:33:30	26012020	260120	143329	102.060	12.317877	-56.754470	101.990	-0.380	-0.260	0.810	102.040	-1.700	1.200																			1580049209.0	11.42	21.15
26/01/2020 14:33:31	26012020	260120	143330	102.010	12.317863	-56.754418	102.080	-0.470	0.160	0.750	102.020	-1.400	1.200																			1580049210.0	11.18	20.71
26/01/2020 14:33:32	26012020	260120	143331	102.140	12.317852	-56.754368	102.290	-0.550	0.460	0.480	102.180	-1.000	1.000																			1580049211.0	10.71	19.83
26/01/2020 14:33:33	26012020	260120	143332	102.340	12.317842	-56.754318	102.360	-0.420	0.210	0.280	102.370	-1.000	0.700																			1580049212.0	10.80	20.00
26/01/2020 14:33:34	26012020	260120	143333	102.380	12.317830	-56.754267	102.250	-0.090	-0.250	0.360	102.370	-1.500	0.700																			1580049213.0	11.37	21.06
26/01/2020 14:33:35	26012020	260120	143334	102.250	12.317818	-56.754213	102.240	0.170	-0.360	0.280	102.240	-1.800	0.700																			1580049214.0	11.43	21.17
26/01/2020 14:33:36	26012020	260120	143335	102.280	12.317808	-56.754163	102.430	0.250	-0.110	-0.070	102.310	-1.600	0.500																			1580049215.0	10.87	20.13
26/01/2020 14:33:37	26012020	260120	143336	102.540	12.317800	-56.754115	102.600	0.320	0.010	-0.250	102.580	-1.400	0.200																			1580049216.0	10.44	19.33
26/01/2020 14:33:38	26012020	260120	143337	102.650	12.317790	-56.754065	102.550	0.490	-0.340	-0.110	102.650	-1.600	0.200																			1580049217.0	10.66	19.74
26/01/2020 14:33:39	26012020	260120	143338	102.560	12.317780	-56.754013	102.400	0.660	-0.810	0.120	102.530	-2.000	0.400																			1580049218.0	11.19	20.72
26/01/2020 14:33:40	26012020	260120	143339	102.360	12.317770	-56.753962	102.160	0.680	-1.030	0.420	102.310	-2.400	0.700																			1580049219.0	11.36	21.04
26/01/2020 14:33:41	26012020	260120	143340	102.110	12.317758	-56.753908	101.970	0.420	-0.780	0.660	102.070	-2.300	1.000																			1580049220.0	11.19	20.72
26/01/2020 14:33:42	26012020	260120	143341	101.950	12.317748	-56.753858	101.890	-0.060	-0.280	0.830	101.930	-1.900	1.200																			1580049221.0	10.81	20.02
26/01/2020 14:33:43	26012020	260120	143342	101.880	12.317737	-56.753810	101.830	-0.520	0.070	0.970	101.870	-1.400	1.300																			1580049222.0	10.68	19.78
26/01/2020 14:33:44	26012020	260120	143343	101.810	12.317723	-56.753760	101.740	-0.730	0.050	0.980	101.790	-1.300	1.400																			1580049223.0	10.95	20.28
26/01/2020 14:33:45	26012020	260120	143344	101.720	12.317710	-56.753708	101.660	-0.690	-0.130	0.850	101.700	-1.500	1.300																			1580049224.0	11.35	21.02
26/01/2020 14:33:46	26012020	260120	143345	101.650	12.317698	-56.753655	101.640	-0.520	-0.240	0.680	101.650	-1.600	1.100																			1580049225.0	11.44	21.19
26/01/2020 14:33:47	26012020	260120	143346	101.650	12.317687	-56.753603	101.700	-0.370	-0.170	0.450	101.660	-1.600	0.900																			1580049226.0	11.28	20.89
26/01/2020 14:33:48	26012020	260120	143347	101.720	12.317675	-56.753553	101.750	-0.180	-0.070	0.190	101.720	-1.500	0.700																			1580049227.0	11.01	20.39
26/01/2020 14:33:49	26012020	260120	143348	101.780	12.317665	-56.753502	101.790	0.090	-0.140	0.030	101.790	-1.500	0.500																			1580049228.0	10.98	20.33
26/01/2020 14:33:50	26012020	260120	143349	101.830	12.317655	-56.753450	101.850	0.380	-0.240	-0.020	101.840	-1.600	0.400																			1580049229.0	11.16	20.67
26/01/2020 14:33:51	26012020	260120	143350	101.900	12.317647	-56.753398	101.940	0.560	-0.200	-0.010	101.920	-1.600	0.400																			1580049230.0	11.13	20.61
26/01/2020 14:33:52	26012020	260120	143351	101.990	12.317637	-56.753347	102.070	0.520	0.010	0.140	102.020	-1.500	0.500																			1580049231.0	10.88	20.15
26/01/2020 14:33:53	26012020	260120	143352	102.140	12.317628	-56.753298	102.200	0.310	0.120	0.420	102.170	-1.300	0.700																			1580049232.0	10.64	19.71
26/01/2020 14:33:54	26012020	260120	143353	102.230	12.317617	-56.753248	102.200	0.080	-0.120	0.610	102.240	-1.400	0.900																			1580049233.0	10.73	19.87
26/01/2020 14:33:55	26012020	260120	143354	102.170	12.317607	-56.753197	102.020	-0.080	-0.510	0.830	102.140	-1.800	1.100																			1580049234.0	11.07	20.50
26/01/2020 14:33:56	26012020	260120	143355	101.960	12.317595	-56.753145	101.800	-0.100	-0.810	0.970	101.920	-2.100	1.300																			1580049235.0	11.21	20.76
26/01/2020 14:33:57	26012020	260120	143356	101.740	12.317583	-56.753093	101.580	-0.040	-0.960	1.020	101.700	-2.300	1.400																			1580049236.0	11.21	20.76
26/01/2020 14:33:58	26012020	260120	143357	101.550	12.317572	-56.753042	101.290	-0.030	-0.890	0.980	101.500	-2.300	1.400																			1580049237.0	11.24	20.82
26/01/2020 14:33:59	26012020	260120	143358	101.180	12.317560	-56.752990	100.950	-0.090	-0.610	0.800	101.110	-2.100	1.300																			1580049238.0	11.20	20.74
26/01/2020 14:34:00	26012020	260120	143359	100.850	12.317550	-56.752938	100.730	-0.180	-0.170	0.610	100.850	-1.700	1.100	1016.60	25.90	25.90	20.10	20.10	838.00	70.00	70.00	376.00	29.10	357.00	9.20	95.00	3.50	60922	3175.00	27.60	27.60	1580049239.0	11.11	20.58
26/01/2020 14:34:01	26012020	260120	143400	100.690	12.317540	-56.752888	100.750	-0.260	0.310	0.380	100.680	-1.300	0.900																			1580049240.0	10.99	20.35
26/01/2020 14:34:02	26012020	260120	143401	100.790	12.317530	-56.752838	101.010	-0.280	0.560	0.000	100.840	-0.900	0.500																			1580049241.0	10.85	20.09
26/01/2020 14:34:03	26012020	260120	143402	101.110	12.317522	-56.752787	101.330	-0.170	0.420	-0.180	101.170	-0.900	0.200																			1580049242.0	11.02	20.41
26/01/2020 14:34:04	26012020	260120	143403	101.380	12.317512	-56.752733	101.490	-0.010	0.130	0.010	101.420	-1.200	0.300																			1580049243.0	11.26	20.85
26/01/2020 14:34:05	26012020	260120	143404	101.500	12.317500	-56.752683	101.570	0.020	-0.000	0.280	101.520	-1.400	0.600																			1580049244.0	11.17	20.69
26/01/2020 14:34:06	26012020	260120	143405	101.600	12.317490	-56.752633	101.650	0.000	-0.210	0.440	101.620	-1.500	0.800																			1580049245.0	10.76	19.93
26/01/2020 14:34:07	26012020	260120	143406	101.660	12.317480	-56.752582	101.590	0.200	-0.810	0.510	101.650	-1.900	0.900																			1580049246.0	10.86	20.11
26/01/2020 14:34:08	26012020	260120	143407	101.540	12.317470	-56.752528	101.370	0.460	-1.310	0.610	101.500	-2.600	1.000																			1580049247.0	11.47	21.24
26/01/2020 14:34:09	26012020	260120	143408	101.290	12.317460	-56.752475	101.090	0.490	-1.270	0.730	101.230	-2.700	1.100																			1580049248.0	11.43	21.17
26/01/2020 14:34:10	26012020	260120	143409	101.050	12.317450	-56.752425	100.810	0.260	-0.680	0.780	100.990	-2.300	1.200																			1580049249.0	11.06	20.48
26/01/2020 14:34:11	26012020	260120	143410	100.740	12.317440	-56.752375	100.690	-0.190	0.210	0.690	100.710	-1.500	1.100																			1580049250.0	10.65	19.72
26/01/2020 14:34:12	26012020	260120	143411	100.670	12.317430	-56.752327	100.780	-0.650	0.770	0.480	100.680	-0.800	1.000																			1580049251.0	10.41	19.28
26/01/2020 14:34:13	26012020	260120	143412	100.820	12.317420	-56.752277	100.960	-0.750	0.560	0.390	100.860	-0.700	0.800																			1580049252.0	10.73	19.87
26/01/2020 14:34:14	26012020	260120	143413	100.980	12.317408	-56.752225	101.030	-0.370	-0.070	0.380	101.000	-1.200	0.800																			1580049253.0	11.43	21.17
26/01/2020 14:34:15	26012020	260120	143414	101.010	12.317397	-56.752170	101.020	0.150	-0.480	0.410	101.010	-1.800	0.800																			1580049254.0	11.72	21.71
26/01/2020 14:34:16	26012020	260120	143415	101.020	12.317387	-56.752118	101.070	0.420	-0.410	0.390	101.030	-1.900	0.800																			1580049255.0	11.32	20.96
26/01/2020 14:34:17	26012020	260120	143416	101.100	12.317378	-56.752068	101.190	0.380	-0.150	0.260	101.120	-1.600	0.700																			1580049256.0	10.73	19.87
26/01/2020 14:34:18	26012020	260120	143417	101.230	12.317372	-56.752018	101.330	0.220	-0.160	0.180	101.260	-1.500	0.600																			1580049257.0	10.57	19.58
26/01/2020 14:34:19	26012020	260120	143418	101.380	12.317363	-56.751968	101.470	0.120	-0.510	0.250	101.400	-1.800	0.600																			1580049258.0	10.92	20.22
26/01/2020 14:34:20	26012020	260120	143419	101.500	12.317352	-56.751915	101.470	0.070	-0.720	0.600	101.510	-2.100	0.900																			1580049259.0	11.29	20.91
26/01/2020 14:34:21	26012020	260120	143420	101.430	12.317340	-56.751865	101.270	-0.050	-0.530	0.930	101.390	-2.000	1.200																			1580049260.0	11.12	20.59
26/01/2020 14:34:22	26012020	260120	143421	101.200	12.317328	-56.751815	101.050	-0.190	-0.320	0.940	101.150	-1.800	1.400																			1580049261.0	10.78	19.96
26/01/2020 14:34:23	26012020	260120	143422	101.000	12.317318	-56.751765	100.900	-0.240	-0.370	0.720	100.970	-1.700	1.200																			1580049262.0	10.93	20.24
26/01/2020 14:34:24	26012020	260120	143423	100.900	12.317308	-56.751712	100.940	-0.170	-0.430	0.390	100.900	-1.800	0.900																			1580049263.0	11.33	20.98
26/01/2020 14:34:25	26012020	260120	143424	100.980	12.317298	-56.751658	101.080	-0.130	-0.140	0.150	101.010	-1.700	0.600																			1580049264.0	11.31	20.95
26/01/2020 14:34:26	26012020	260120	143425	101.140	12.317290	-56.751608	101.210	-0.160	0.290	0.130	101.140	-1.200	0.500																			1580049265.0	10.86	20.11
26/01/2020 14:34:27	26012020	260120	143426	101.250	12.317280	-56.751558	101.260	-0.130	0.390	0.230	101.260	-1.000	0.600																			1580049266.0	10.68	19.78
26/01/2020 14:34:28	26012020	260120	143427	101.270	12.317270	-56.751508	101.250	0.030	0.090	0.340	101.270	-1.200	0.700																			1580049267.0	10.99	20.35
26/01/2020 14:34:29	26012020	260120	143428	101.260	12.317260	-56.751455	101.280	0.270	-0.350	0.330	101.270	-1.600	0.800																			1580049268.0	11.29	20.91
26/01/2020 14:34:30	26012020	260120	143429	101.290	12.317250	-56.751403	101.320	0.460	-0.640	0.310	101.300	-1.900	0.700																			1580049269.0	11.37	21.06
26/01/2020 14:34:31	26012020	260120	143430	101.330	12.317242	-56.751350	101.350	0.420	-0.600	0.380	101.340	-2.000	0.700																			1580049270.0	11.17	20.69
26/01/2020 14:34:32	26012020	260120	143431	101.360	12.317233	-56.751300	101.320	0.140	-0.380	0.590	101.350	-1.900	0.900																			1580049271.0	10.85	20.09
26/01/2020 14:34:33	26012020	260120	143432	101.290	12.317222	-56.751250	101.240	-0.180	-0.210	0.790	101.270	-1.600	1.100																			1580049272.0	10.71	19.83
26/01/2020 14:34:34	26012020	260120	143433	101.210	12.317210	-56.751200	101.190	-0.340	-0.180	0.910	101.210	-1.600	1.300																			1580049273.0	10.83	20.06
26/01/2020 14:34:35	26012020	260120	143434	101.180	12.317198	-56.751150	101.160	-0.290	-0.330	0.950	101.170	-1.600	1.400																			1580049274.0	11.02	20.41
26/01/2020 14:34:36	26012020	260120	143435	101.120	12.317187	-56.751098	101.100	-0.110	-0.540	0.750	101.120	-1.900	1.300																			1580049275.0	11.27	20.87
26/01/2020 14:34:37	26012020	260120	143436	101.100	12.317177	-56.751045	101.100	0.060	-0.500	0.460	101.100	-1.900	1.000																			1580049276.0	11.37	21.06
26/01/2020 14:34:38	26012020	260120	143437	101.120	12.317168	-56.750993	101.140	0.070	-0.130	0.170	101.130	-1.700	0.700																			1580049277.0	11.05	20.46
26/01/2020 14:34:39	26012020	260120	143438	101.170	12.317160	-56.750943	101.170	-0.010	0.130	0.010	101.180	-1.300	0.400																			1580049278.0	10.70	19.82
26/01/2020 14:34:40	26012020	260120	143439	101.190	12.317152	-56.750893	101.190	-0.030	0.030	0.100	101.190	-1.300	0.400																			1580049279.0	10.89	20.17
26/01/2020 14:34:41	26012020	260120	143440	101.210	12.317143	-56.750840	101.240	-0.020	-0.200	0.340	101.220	-1.500	0.600																			1580049280.0	11.24	20.82
26/01/2020 14:34:42	26012020	260120	143441	101.270	12.317132	-56.750788	101.300	-0.030	-0.290	0.550	101.280	-1.700	0.900																			1580049281.0	11.26	20.85
26/01/2020 14:34:43	26012020	260120	143442	101.320	12.317122	-56.750737	101.280	-0.000	-0.370	0.600	101.320	-1.700	1.000																			1580049282.0	11.09	20.54
26/01/2020 14:34:44	26012020	260120	143443	101.270	12.317110	-56.750687	101.220	0.140	-0.490	0.620	101.260	-1.800	1.000																			1580049283.0	11.11	20.58
26/01/2020 14:34:45	26012020	260120	143444	101.220	12.317100	-56.750633	101.230	0.300	-0.470	0.530	101.220	-1.900	1.000																			1580049284.0	11.22	20.78
26/01/2020 14:34:46	26012020	260120	143445	101.250	12.317092	-56.750582	101.250	0.340	-0.260	0.390	101.250	-1.800	0.900																			1580049285.0	11.08	20.52
26/01/2020 14:34:47	26012020	260120	143446	101.260	12.317083	-56.750532	101.290	0.160	0.050	0.230	101.260	-1.500	0.700																			1580049286.0	10.91	20.21
26/01/2020 14:34:48	26012020	260120	143447	101.310	12.317075	-56.750482	101.380	-0.170	0.280	0.080	101.330	-1.200	0.500																			1580049287.0	10.69	19.80
26/01/2020 14:34:49	26012020	260120	143448	101.430	12.317065	-56.750432	101.500	-0.390	0.080	0.160	101.460	-1.200	0.500																			1580049288.0	10.72	19.85
26/01/2020 14:34:50	26012020	260120	143449	101.540	12.317055	-56.750380	101.560	-0.330	-0.440	0.460	101.560	-1.600	0.700																			1580049289.0	11.16	20.67
26/01/2020 14:34:51	26012020	260120	143450	101.570	12.317042	-56.750328	101.470	-0.120	-0.880	0.710	101.550	-2.100	1.000																			1580049290.0	11.46	21.22
26/01/2020 14:34:52	26012020	260120	143451	101.430	12.317030	-56.750275	101.260	0.090	-0.940	0.850	101.390	-2.400	1.200																			1580049291.0	11.41	21.13
26/01/2020 14:34:53	26012020	260120	143452	101.210	12.317018	-56.750223	101.090	0.140	-0.570	0.890	101.170	-2.100	1.300																			1580049292.0	11.11	20.58
26/01/2020 14:34:54	26012020	260120	143453	101.070	12.317008	-56.750173	101.080	0.050	-0.120	0.630	101.070	-1.700	1.200																			1580049293.0	10.80	20.00
26/01/2020 14:34:55	26012020	260120	143454	101.100	12.317000	-56.750123	101.190	-0.030	0.080	0.310	101.120	-1.300	0.800																			1580049294.0	10.81	20.02
26/01/2020 14:34:56	26012020	260120	143455	101.230	12.316992	-56.750072	101.340	0.050	-0.040	0.120	101.260	-1.400	0.600																			1580049295.0	11.17	20.69
26/01/2020 14:34:57	26012020	260120	143456	101.400	12.316983	-56.750018	101.640	0.160	-0.040	-0.010	101.460	-1.500	0.400																			1580049296.0	11.46	21.22
26/01/2020 14:34:58	26012020	260120	143457	101.750	12.316973	-56.749965	102.030	0.090	0.280	0.130	101.830	-1.300	0.400																			1580049297.0	11.14	20.63
26/01/2020 14:34:59	26012020	260120	143458	102.130	12.316963	-56.749917	102.350	-0.140	0.490	0.420	102.200	-0.900	0.700																			1580049298.0	10.60	19.63
26/01/2020 14:35:00	26012020	260120	143459	102.420	12.316952	-56.749868	102.520	-0.200	0.100	0.510	102.450	-1.100	0.900	1016.60	25.90	26.00	20.00	20.10	846.00	70.00	70.00	375.00	29.10	354.00	9.50	87.00	3.80	61273	3185.00	27.60	27.60	1580049299.0	10.57	19.58
26/01/2020 14:35:01	26012020	260120	143500	102.530	12.316940	-56.749817	102.440	0.100	-0.820	0.490	102.520	-1.900	0.900																			1580049300.0	11.23	20.80
26/01/2020 14:35:02	26012020	260120	143501	102.430	12.316930	-56.749762	102.250	0.390	-1.350	0.410	102.400	-2.600	0.900																			1580049301.0	11.81	21.87
26/01/2020 14:35:03	26012020	260120	143502	102.220	12.316922	-56.749708	102.150	0.300	-0.970	0.320	102.200	-2.600	0.800																			1580049302.0	11.34	21.00
26/01/2020 14:35:04	26012020	260120	143503	102.160	12.316912	-56.749660	102.130	-0.090	-0.290	0.280	102.150	-1.900	0.700																			1580049303.0	10.47	19.39
26/01/2020 14:35:05	26012020	260120	143504	102.140	12.316902	-56.749612	102.070	-0.360	-0.120	0.300	102.130	-1.500	0.700																			1580049304.0	10.41	19.28
26/01/2020 14:35:06	26012020	260120	143505	102.040	12.316890	-56.749560	101.860	-0.240	-0.430	0.470	102.000	-1.700	0.800																			1580049305.0	11.22	20.78
26/01/2020 14:35:07	26012020	260120	143506	101.790	12.316877	-56.749507	101.630	0.040	-0.490	0.560	101.740	-1.900	1.000																			1580049306.0	11.77	21.80
26/01/2020 14:35:08	26012020	260120	143507	101.620	12.316865	-56.749453	101.690	0.150	-0.010	0.320	101.620	-1.600	0.800																			1580049307.0	11.41	21.13
26/01/2020 14:35:09	26012020	260120	143508	101.780	12.316855	-56.749403	102.030	0.000	0.610	0.070	101.850	-1.000	0.500																			1580049308.0	10.77	19.95
26/01/2020 14:35:10	26012020	260120	143509	102.180	12.316847	-56.749355	102.380	-0.260	0.750	-0.010	102.260	-0.600	0.400																			1580049309.0	10.53	19.50
26/01/2020 14:35:11	26012020	260120	143510	102.450	12.316837	-56.749303	102.490	-0.380	0.290	0.130	102.480	-0.900	0.500																			1580049310.0	10.89	20.17
26/01/2020 14:35:12	26012020	260120	143511	102.500	12.316825	-56.749252	102.510	-0.210	-0.390	0.350	102.500	-1.500	0.700																			1580049311.0	11.33	20.98
26/01/2020 14:35:13	26012020	260120	143512	102.530	12.316812	-56.749200	102.530	0.130	-0.890	0.450	102.530	-2.100	0.800																			1580049312.0	11.44	21.19
26/01/2020 14:35:14	26012020	260120	143513	102.550	12.316800	-56.749148	102.510	0.410	-1.020	0.380	102.550	-2.400	0.800																			1580049313.0	11.24	20.82
26/01/2020 14:35:15	26012020	260120	143514	102.500	12.316790	-56.749097	102.330	0.510	-0.770	0.280	102.470	-2.300	0.700																			1580049314.0	10.95	20.28
26/01/2020 14:35:16	26012020	260120	143515	102.290	12.316782	-56.749047	102.050	0.420	-0.360	0.230	102.230	-1.900	0.600																			1580049315.0	10.70	19.82
26/01/2020 14:35:17	26012020	260120	143516	102.020	12.316772	-56.748997	101.860	0.230	-0.100	0.180	101.980	-1.500	0.600																			1580049316.0	10.66	19.74
26/01/2020 14:35:18	26012020	260120	143517	101.870	12.316763	-56.748947	101.820	0.020	-0.140	0.130	101.850	-1.500	0.600																			1580049317.0	10.96	20.30
26/01/2020 14:35:19	26012020	260120	143518	101.890	12.316753	-56.748893	101.920	-0.160	-0.240	0.120	101.900	-1.600	0.500																			1580049318.0	11.29	20.91
26/01/2020 14:35:20	26012020	260120	143519	101.990	12.316742	-56.748842	102.020	-0.350	-0.080	0.340	102.010	-1.500	0.600																			1580049319.0	11.27	20.87
26/01/2020 14:35:21	26012020	260120	143520	102.060	12.316730	-56.748792	102.050	-0.470	0.130	0.710	102.060	-1.300	1.000																			1580049320.0	10.88	20.15
26/01/2020 14:35:22	26012020	260120	143521	102.070	12.316715	-56.748743	102.040	-0.350	-0.100	0.870	102.070	-1.300	1.200																			1580049321.0	10.88	20.15
26/01/2020 14:35:23	26012020	260120	143522	102.030	12.316703	-56.748690	101.950	0.010	-0.620	0.780	102.010	-1.800	1.200																			1580049322.0	11.39	21.09
26/01/2020 14:35:24	26012020	260120	143523	101.930	12.316692	-56.748637	101.880	0.340	-0.780	0.530	101.920	-2.200	1.000																			1580049323.0	11.70	21.67
26/01/2020 14:35:25	26012020	260120	143524	101.900	12.316683	-56.748583	101.930	0.360	-0.360	0.290	101.920	-1.900	0.800																			1580049324.0	11.28	20.89
26/01/2020 14:35:26	26012020	260120	143525	101.980	12.316675	-56.748533	102.060	0.070	0.250	0.130	102.010	-1.300	0.600																			1580049325.0	10.67	19.76
26/01/2020 14:35:27	26012020	260120	143526	102.130	12.316665	-56.748485	102.210	-0.270	0.500	0.170	102.160	-0.900	0.500																			1580049326.0	10.45	19.35
26/01/2020 14:35:28	26012020	260120	143527	102.260	12.316653	-56.748437	102.280	-0.330	0.190	0.410	102.280	-1.000	0.700																			1580049327.0	10.74	19.89
26/01/2020 14:35:29	26012020	260120	143528	102.290	12.316640	-56.748385	102.210	-0.060	-0.420	0.580	102.280	-1.600	0.900																			1580049328.0	11.28	20.89
26/01/2020 14:35:30	26012020	260120	143529	102.200	12.316628	-56.748332	102.100	0.260	-0.810	0.610	102.170	-2.100	1.000																			1580049329.0	11.53	21.35
26/01/2020 14:35:31	26012020	260120	143530	102.070	12.316618	-56.748278	101.980	0.370	-0.810	0.610	102.050	-2.200	1.000																			1580049330.0	11.28	20.89
26/01/2020 14:35:32	26012020	260120	143531	101.980	12.316608	-56.748228	101.940	0.290	-0.540	0.410	101.960	-2.000	0.900																			1580049331.0	10.90	20.19
26/01/2020 14:35:33	26012020	260120	143532	101.960	12.316600	-56.748178	101.950	0.170	-0.230	0.220	101.970	-1.700	0.700																			1580049332.0	10.76	19.93
26/01/2020 14:35:34	26012020	260120	143533	101.950	12.316590	-56.748128	101.840	0.070	-0.110	0.280	101.930	-1.500	0.600																			1580049333.0	10.83	20.06
26/01/2020 14:35:35	26012020	260120	143534	101.820	12.316580	-56.748077	101.690	-0.010	-0.190	0.500	101.780	-1.500	0.800																			1580049334.0	11.11	20.58
26/01/2020 14:35:36	26012020	260120	143535	101.680	12.316568	-56.748025	101.620	-0.090	-0.240	0.700	101.660	-1.600	1.000																			1580049335.0	11.31	20.95
26/01/2020 14:35:37	26012020	260120	143536	101.610	12.316557	-56.747973	101.600	-0.150	-0.180	0.750	101.610	-1.600	1.100																			1580049336.0	11.21	20.76
26/01/2020 14:35:38	26012020	260120	143537	101.600	12.316545	-56.747922	101.650	-0.160	-0.150	0.700	101.600	-1.500	1.100																			1580049337.0	11.13	20.61
26/01/2020 14:35:39	26012020	260120	143538	101.710	12.316533	-56.747870	101.840	-0.240	-0.010	0.640	101.750	-1.500	1.100																			1580049338.0	11.14	20.63
26/01/2020 14:35:40	26012020	260120	143539	101.870	12.316522	-56.747820	102.020	-0.400	0.190	0.430	101.910	-1.300	0.900																			1580049339.0	10.89	20.17
26/01/2020 14:35:41	26012020	260120	143540	102.070	12.316512	-56.747770	102.070	-0.400	0.120	0.220	102.090	-1.200	0.700																			1580049340.0	10.70	19.82
26/01/2020 14:35:42	26012020	260120	143541	102.070	12.316502	-56.747720	101.990	-0.100	-0.350	0.220	102.060	-1.500	0.600																			1580049341.0	10.99	20.35
26/01/2020 14:35:43	26012020	260120	143542	101.980	12.316490	-56.747667	101.900	0.320	-0.860	0.250	101.960	-2.100	0.600																			1580049342.0	11.43	21.17
26/01/2020 14:35:44	26012020	260120	143543	101.900	12.316480	-56.747613	101.880	0.540	-0.960	0.240	101.890	-2.400	0.600																			1580049343.0	11.46	21.22
26/01/2020 14:35:45	26012020	260120	143544	101.880	12.316472	-56.747562	101.830	0.500	-0.690	0.400	101.880	-2.200	0.700																			1580049344.0	11.07	20.50
26/01/2020 14:35:46	26012020	260120	143545	101.810	12.316460	-56.747512	101.660	0.370	-0.430	0.660	101.770	-1.900	1.000																			1580049345.0	10.87	20.13
26/01/2020 14:35:47	26012020	260120	143546	101.620	12.316450	-56.747460	101.530	0.180	-0.080	0.790	101.590	-1.600	1.200																			1580049346.0	11.09	20.54
26/01/2020 14:35:48	26012020	260120	143547	101.540	12.316438	-56.747410	101.590	-0.140	0.390	0.800	101.540	-1.200	1.200																			1580049347.0	10.95	20.28
26/01/2020 14:35:49	26012020	260120	143548	101.660	12.316428	-56.747360	101.840	-0.440	0.600	0.640	101.700	-0.800	1.100																			1580049348.0	10.69	19.80
26/01/2020 14:35:50	26012020	260120	143549	101.950	12.316418	-56.747310	102.170	-0.480	0.290	0.400	102.020	-0.900	0.900																			1580049349.0	10.90	20.19
26/01/2020 14:35:51	26012020	260120	143550	102.270	12.316408	-56.747257	102.370	-0.300	-0.270	0.400	102.320	-1.500	0.800																			1580049350.0	11.34	21.00
26/01/2020 14:35:52	26012020	260120	143551	102.380	12.316395	-56.747205	102.340	-0.110	-0.640	0.550	102.390	-1.900	0.900																			1580049351.0	11.47	21.24
26/01/2020 14:35:53	26012020	260120	143552	102.320	12.316383	-56.747153	102.230	-0.020	-0.600	0.600	102.290	-2.000	1.000																			1580049352.0	11.17	20.69
26/01/2020 14:35:54	26012020	260120	143553	102.230	12.316373	-56.747103	102.180	0.030	-0.440	0.490	102.220	-1.900	0.900																			1580049353.0	10.75	19.91
26/01/2020 14:35:55	26012020	260120	143554	102.180	12.316363	-56.747053	102.080	0.180	-0.560	0.250	102.160	-1.900	0.800																			1580049354.0	10.79	19.98
26/01/2020 14:35:56	26012020	260120	143555	102.070	12.316355	-56.747000	101.940	0.380	-0.750	0.030	102.040	-2.100	0.500																			1580049355.0	11.26	20.85
26/01/2020 14:35:57	26012020	260120	143556	101.920	12.316345	-56.746948	101.770	0.440	-0.620	0.120	101.890	-2.100	0.500																			1580049356.0	11.43	21.17
26/01/2020 14:35:58	26012020	260120	143557	101.750	12.316333	-56.746897	101.690	0.260	-0.170	0.230	101.720	-1.700	0.600																			1580049357.0	11.09	20.54
26/01/2020 14:35:59	26012020	260120	143558	101.720	12.316323	-56.746847	101.810	-0.020	0.210	0.230	101.740	-1.300	0.600																			1580049358.0	10.79	19.98
26/01/2020 14:36:00	26012020	260120	143559	101.880	12.316313	-56.746795	101.990	-0.200	0.250	0.430	101.920	-1.100	0.700	1016.60	25.90	26.00	20.00	20.10	844.00	70.00	70.00	375.00	29.10	354.00	9.10	86.00	3.50	61229	3178.00	27.60	27.60	1580049359.0	10.90	20.19
26/01/2020 14:36:01	26012020	260120	143600	102.030	12.316302	-56.746745	102.060	-0.320	0.100	0.700	102.050	-1.200	1.000																			1580049360.0	11.21	20.76
26/01/2020 14:36:02	26012020	260120	143601	102.060	12.316288	-56.746693	102.020	-0.440	-0.050	0.840	102.050	-1.400	1.200																			1580049361.0	11.26	20.85
26/01/2020 14:36:03	26012020	260120	143602	101.990	12.316277	-56.746642	102.000	-0.480	-0.160	0.800	101.990	-1.500	1.300																			1580049362.0	11.12	20.59
26/01/2020 14:36:04	26012020	260120	143603	102.030	12.316267	-56.746590	102.070	-0.370	-0.260	0.540	102.040	-1.600	1.000																			1580049363.0	11.04	20.45
26/01/2020 14:36:05	26012020	260120	143604	102.090	12.316255	-56.746540	102.050	-0.110	-0.400	0.360	102.090	-1.700	0.800																			1580049364.0	11.00	20.37
26/01/2020 14:36:06	26012020	260120	143605	102.050	12.316245	-56.746488	101.850	0.250	-0.610	0.330	102.030	-1.900	0.700																			1580049365.0	11.10	20.56
26/01/2020 14:36:07	26012020	260120	143606	101.790	12.316235	-56.746437	101.590	0.560	-0.700	0.310	101.750	-2.100	0.700																			1580049366.0	11.29	20.91
26/01/2020 14:36:08	26012020	260120	143607	101.580	12.316225	-56.746383	101.540	0.560	-0.410	0.290	101.560	-1.900	0.700																			1580049367.0	11.20	20.74
26/01/2020 14:36:09	26012020	260120	143608	101.590	12.316217	-56.746333	101.650	0.280	0.060	0.350	101.610	-1.500	0.700																			1580049368.0	10.76	19.93
26/01/2020 14:36:10	26012020	260120	143609	101.710	12.316207	-56.746285	101.730	0.020	0.120	0.530	101.730	-1.200	0.800																			1580049369.0	10.61	19.65
26/01/2020 14:36:11	26012020	260120	143610	101.730	12.316197	-56.746233	101.680	0.040	-0.370	0.790	101.720	-1.500	1.100																			1580049370.0	11.14	20.63
26/01/2020 14:36:12	26012020	260120	143611	101.690	12.316185	-56.746178	101.720	0.140	-0.710	0.940	101.700	-2.000	1.300																			1580049371.0	11.73	21.72
26/01/2020 14:36:13	26012020	260120	143612	101.760	12.316173	-56.746125	101.870	0.030	-0.450	0.910	101.790	-2.000	1.300																			1580049372.0	11.46	21.22
26/01/2020 14:36:14	26012020	260120	143613	101.930	12.316163	-56.746077	101.980	-0.330	0.090	0.760	101.960	-1.500	1.200																			1580049373.0	10.74	19.89
26/01/2020 14:36:15	26012020	260120	143614	102.010	12.316153	-56.746027	101.970	-0.680	0.240	0.710	102.010	-1.100	1.100																			1580049374.0	10.53	19.50
26/01/2020 14:36:16	26012020	260120	143615	101.940	12.316142	-56.745977	101.850	-0.760	-0.060	0.770	101.920	-1.300	1.100																			1580049375.0	10.97	20.32
26/01/2020 14:36:17	26012020	260120	143616	101.830	12.316128	-56.745925	101.780	-0.470	-0.440	0.660	101.820	-1.700	1.100																			1580049376.0	11.39	21.09
26/01/2020 14:36:18	26012020	260120	143617	101.800	12.316117	-56.745872	101.780	0.030	-0.690	0.390	101.800	-2.000	0.900																			1580049377.0	11.46	21.22
26/01/2020 14:36:19	26012020	260120	143618	101.790	12.316107	-56.745818	101.720	0.480	-0.690	0.260	101.780	-2.100	0.700																			1580049378.0	11.39	21.09
26/01/2020 14:36:20	26012020	260120	143619	101.740	12.316097	-56.745767	101.670	0.620	-0.300	0.180	101.730	-1.900	0.600																			1580049379.0	11.21	20.76
26/01/2020 14:36:21	26012020	260120	143620	101.710	12.316088	-56.745717	101.690	0.410	0.350	0.130	101.710	-1.300	0.500																			1580049380.0	10.73	19.87
26/01/2020 14:36:22	26012020	260120	143621	101.750	12.316080	-56.745668	101.800	0.170	0.590	0.110	101.770	-0.800	0.500																			1580049381.0	10.39	19.24
26/01/2020 14:36:23	26012020	260120	143622	101.880	12.316072	-56.745618	101.980	0.180	0.020	0.080	101.920	-1.100	0.500																			1580049382.0	10.86	20.11
26/01/2020 14:36:24	26012020	260120	143623	102.050	12.316062	-56.745563	102.110	0.300	-0.660	0.280	102.080	-1.800	0.600																			1580049383.0	11.64	21.56
26/01/2020 14:36:25	26012020	260120	143624	102.150	12.316052	-56.745510	102.080	0.180	-0.780	0.710	102.150	-2.200	0.900																			1580049384.0	11.57	21.43
26/01/2020 14:36:26	26012020	260120	143625	102.060	12.316038	-56.745460	101.900	-0.190	-0.460	1.110	102.020	-2.000	1.400																			1580049385.0	10.88	20.15
26/01/2020 14:36:27	26012020	260120	143626	101.840	12.316027	-56.745412	101.680	-0.500	-0.370	1.240	101.800	-1.700	1.600																			1580049386.0	10.56	19.56
26/01/2020 14:36:28	26012020	260120	143627	101.680	12.316015	-56.745360	101.530	-0.530	-0.660	1.140	101.650	-1.900	1.600																			1580049387.0	11.04	20.45
26/01/2020 14:36:29	26012020	260120	143628	101.510	12.316003	-56.745307	101.450	-0.380	-0.820	0.880	101.500	-2.200	1.400																			1580049388.0	11.60	21.48
26/01/2020 14:36:30	26012020	260120	143629	101.450	12.315992	-56.745255	101.370	-0.230	-0.440	0.680	101.450	-2.000	1.100																			1580049389.0	11.45	21.21
26/01/2020 14:36:31	26012020	260120	143630	101.370	12.315982	-56.745203	101.280	-0.120	0.130	0.470	101.360	-1.500	1.000																			1580049390.0	10.91	20.21
26/01/2020 14:36:32	26012020	260120	143631	101.290	12.315972	-56.745153	101.280	-0.010	0.470	0.110	101.290	-1.000	0.700																			1580049391.0	10.79	19.98
26/01/2020 14:36:33	26012020	260120	143632	101.350	12.315963	-56.745103	101.450	0.080	0.510	-0.250	101.380	-0.900	0.300																			1580049392.0	11.01	20.39
26/01/2020 14:36:34	26012020	260120	143633	101.570	12.315957	-56.745050	101.720	0.160	0.340	-0.430	101.620	-1.000	0.000																			1580049393.0	11.08	20.52
26/01/2020 14:36:35	26012020	260120	143634	101.850	12.315948	-56.744998	102.000	0.290	-0.020	-0.330	101.910	-1.200	-0.000																			1580049394.0	11.10	20.56
26/01/2020 14:36:36	26012020	260120	143635	102.120	12.315938	-56.744947	102.200	0.490	-0.550	-0.000	102.160	-1.700	0.300																			1580049395.0	11.18	20.71
26/01/2020 14:36:37	26012020	260120	143636	102.260	12.315927	-56.744895	102.210	0.560	-0.830	0.400	102.270	-2.200	0.700																			1580049396.0	11.34	21.00
26/01/2020 14:36:38	26012020	260120	143637	102.200	12.315917	-56.744843	102.030	0.360	-0.700	0.710	102.160	-2.200	1.000																			1580049397.0	11.03	20.43
26/01/2020 14:36:39	26012020	260120	143638	101.990	12.315907	-56.744793	101.810	0.010	-0.490	0.870	101.940	-1.900	1.200																			1580049398.0	10.67	19.76
26/01/2020 14:36:40	26012020	260120	143639	101.770	12.315895	-56.744743	101.650	-0.250	-0.510	0.930	101.730	-1.900	1.300																			1580049399.0	10.78	19.96
26/01/2020 14:36:41	26012020	260120	143640	101.630	12.315885	-56.744692	101.590	-0.380	-0.650	0.810	101.620	-2.000	1.300																			1580049400.0	11.21	20.76
26/01/2020 14:36:42	26012020	260120	143641	101.580	12.315873	-56.744640	101.480	-0.470	-0.520	0.740	101.560	-2.000	1.100																			1580049401.0	11.40	21.11
26/01/2020 14:36:43	26012020	260120	143642	101.440	12.315862	-56.744588	101.280	-0.510	-0.230	0.770	101.390	-1.700	1.100																			1580049402.0	11.15	20.65
26/01/2020 14:36:44	26012020	260120	143643	101.250	12.315848	-56.744538	101.240	-0.380	-0.080	0.660	101.230	-1.500	1.100																			1580049403.0	11.10	20.56
26/01/2020 14:36:45	26012020	260120	143644	101.290	12.315837	-56.744485	101.440	-0.140	0.080	0.330	101.320	-1.400	0.900																			1580049404.0	11.32	20.96
26/01/2020 14:36:46	26012020	260120	143645	101.550	12.315828	-56.744433	101.750	-0.020	0.470	-0.040	101.620	-1.100	0.500																			1580049405.0	11.17	20.69
26/01/2020 14:36:47	26012020	260120	143646	101.860	12.315820	-56.744383	102.030	-0.030	0.720	-0.240	101.920	-0.700	0.200																			1580049406.0	10.70	19.82
26/01/2020 14:36:48	26012020	260120	143647	102.140	12.315812	-56.744333	102.310	0.110	0.300	-0.190	102.200	-0.800	0.200																			1580049407.0	10.69	19.80
26/01/2020 14:36:49	26012020	260120	143648	102.390	12.315803	-56.744280	102.500	0.480	-0.610	-0.000	102.440	-1.600	0.300																			1580049408.0	11.33	20.98
26/01/2020 14:36:50	26012020	260120	143649	102.530	12.315792	-56.744227	102.550	0.790	-1.180	0.210	102.540	-2.400	0.500																			1580049409.0	11.76	21.78
26/01/2020 14:36:51	26012020	260120	143650	102.520	12.315782	-56.744173	102.430	0.730	-0.990	0.520	102.500	-2.500	0.800																			1580049410.0	11.33	20.98
26/01/2020 14:36:52	26012020	260120	143651	102.370	12.315772	-56.744125	102.290	0.360	-0.430	0.720	102.340	-2.000	1.100																			1580049411.0	10.60	19.63
26/01/2020 14:36:53	26012020	260120	143652	102.240	12.315762	-56.744077	102.200	-0.080	-0.120	0.640	102.220	-1.600	1.100																			1580049412.0	10.43	19.32
26/01/2020 14:36:54	26012020	260120	143653	102.180	12.315752	-56.744025	102.170	-0.450	-0.130	0.530	102.170	-1.500	1.000																			1580049413.0	10.87	20.13
26/01/2020 14:36:55	26012020	260120	143654	102.160	12.315742	-56.743973	102.170	-0.670	-0.280	0.470	102.170	-1.600	0.900																			1580049414.0	11.20	20.74
26/01/2020 14:36:56	26012020	260120	143655	102.160	12.315728	-56.743922	102.050	-0.630	-0.430	0.560	102.150	-1.700	0.900																			1580049415.0	11.35	21.02
26/01/2020 14:36:57	26012020	260120	143656	101.980	12.315715	-56.743870	101.770	-0.370	-0.520	0.670	101.930	-1.900	1.000																			1580049416.0	11.40	21.11
26/01/2020 14:36:58	26012020	260120	143657	101.710	12.315703	-56.743817	101.640	-0.060	-0.440	0.580	101.680	-1.900	1.000																			1580049417.0	11.45	21.21
26/01/2020 14:36:59	26012020	260120	143658	101.660	12.315692	-56.743765	101.780	0.100	-0.030	0.380	101.680	-1.600	0.900																			1580049418.0	11.27	20.87
26/01/2020 14:37:00	26012020	260120	143659	101.880	12.315683	-56.743715	102.120	0.040	0.480	0.040	101.950	-1.100	0.600	1016.50	25.90	26.00	20.20	20.20	823.00	70.00	70.00	376.00	29.10	356.00	8.70	90.00	3.00	60261	3206.00	27.60	27.60	1580049419.0	10.83	20.06
26/01/2020 14:37:01	26012020	260120	143700	102.240	12.315673	-56.743665	102.460	-0.060	0.620	-0.180	102.320	-0.700	0.300																			1580049420.0	10.65	19.72
26/01/2020 14:37:02	26012020	260120	143701	102.560	12.315665	-56.743615	102.690	0.040	0.200	-0.100	102.610	-1.000	0.200																			1580049421.0	10.91	20.21
26/01/2020 14:37:03	26012020	260120	143702	102.760	12.315653	-56.743562	102.840	0.390	-0.500	0.000	102.790	-1.600	0.400																			1580049422.0	11.36	21.04
26/01/2020 14:37:04	26012020	260120	143703	102.900	12.315643	-56.743508	102.980	0.740	-0.900	-0.010	102.930	-2.200	0.400																			1580049423.0	11.57	21.43
26/01/2020 14:37:05	26012020	260120	143704	103.020	12.315633	-56.743457	103.030	0.670	-0.680	0.050	103.040	-2.200	0.400																			1580049424.0	11.22	20.78
26/01/2020 14:37:06	26012020	260120	143705	103.060	12.315623	-56.743407	102.960	0.140	-0.230	0.260	103.060	-1.800	0.600																			1580049425.0	10.55	19.54
26/01/2020 14:37:07	26012020	260120	143706	102.940	12.315613	-56.743360	102.750	-0.420	-0.140	0.560	102.890	-1.500	0.800																			1580049426.0	10.36	19.19
26/01/2020 14:37:08	26012020	260120	143707	102.680	12.315602	-56.743308	102.450	-0.490	-0.710	0.810	102.620	-1.800	1.100																			1580049427.0	10.95	20.28
26/01/2020 14:37:09	26012020	260120	143708	102.350	12.315588	-56.743255	102.120	-0.210	-1.280	0.950	102.290	-2.500	1.300																			1580049428.0	11.88	22.00
26/01/2020 14:37:10	26012020	260120	143709	102.050	12.315575	-56.743200	101.880	-0.050	-0.960	0.920	102.010	-2.600	1.300																			1580049429.0	11.94	22.11
26/01/2020 14:37:11	26012020	260120	143710	101.830	12.315562	-56.743150	101.730	-0.230	0.120	0.770	101.800	-1.700	1.200																			1580049430.0	11.01	20.39
26/01/2020 14:37:12	26012020	260120	143711	101.730	12.315552	-56.743102	101.730	-0.440	0.840	0.380	101.720	-0.700	0.900																			1580049431.0	10.26	19.00
26/01/2020 14:37:13	26012020	260120	143712	101.790	12.315542	-56.743052	101.940	-0.290	0.600	-0.080	101.830	-0.600	0.500																			1580049432.0	10.77	19.95
26/01/2020 14:37:14	26012020	260120	143713	102.050	12.315532	-56.742998	102.260	0.110	0.090	-0.300	102.120	-1.100	0.200																			1580049433.0	11.69	21.65
26/01/2020 14:37:15	26012020	260120	143714	102.390	12.315522	-56.742943	102.600	0.380	0.030	-0.400	102.450	-1.400	0.000																			1580049434.0	11.60	21.48
26/01/2020 14:37:16	26012020	260120	143715	102.710	12.315512	-56.742893	102.880	0.400	0.140	-0.350	102.770	-1.300	0.000																			1580049435.0	10.84	20.08
26/01/2020 14:37:17	26012020	260120	143716	102.960	12.315502	-56.742845	103.080	0.300	0.010	-0.030	103.000	-1.300	0.200																			1580049436.0	10.56	19.56
26/01/2020 14:37:18	26012020	260120	143717	103.090	12.315492	-56.742795	103.150	0.160	-0.350	0.300	103.110	-1.600	0.600																			1580049437.0	10.74	19.89
26/01/2020 14:37:19	26012020	260120	143718	103.130	12.315480	-56.742745	103.050	0.120	-0.800	0.450	103.110	-2.000	0.800																			1580049438.0	10.89	20.17
26/01/2020 14:37:20	26012020	260120	143719	103.020	12.315470	-56.742693	102.780	0.270	-1.370	0.610	102.980	-2.500	0.900																			1580049439.0	11.10	20.56
26/01/2020 14:37:21	26012020	260120	143720	102.660	12.315458	-56.742640	102.420	0.350	-1.580	0.890	102.590	-3.000	1.200																			1580049440.0	11.54	21.37
26/01/2020 14:37:22	26012020	260120	143721	102.290	12.315445	-56.742588	102.080	0.010	-0.960	1.040	102.230	-2.700	1.400																			1580049441.0	11.35	21.02
26/01/2020 14:37:23	26012020	260120	143722	101.960	12.315433	-56.742540	101.800	-0.550	0.100	0.970	101.910	-1.700	1.400																			1580049442.0	10.56	19.56
26/01/2020 14:37:24	26012020	260120	143723	101.730	12.315423	-56.742492	101.670	-0.730	0.590	0.800	101.700	-0.900	1.300																			1580049443.0	10.28	19.04
26/01/2020 14:37:25	26012020	260120	143724	101.640	12.315412	-56.742442	101.670	-0.380	0.220	0.530	101.640	-1.000	1.000																			1580049444.0	11.13	20.61
26/01/2020 14:37:26	26012020	260120	143725	101.680	12.315400	-56.742385	101.790	0.060	-0.190	0.210	101.700	-1.500	0.700																			1580049445.0	12.00	22.22
26/01/2020 14:37:27	26012020	260120	143726	101.850	12.315388	-56.742332	102.040	0.190	0.070	0.010	101.900	-1.500	0.500																			1580049446.0	11.73	21.72
26/01/2020 14:37:28	26012020	260120	143727	102.150	12.315380	-56.742282	102.400	0.020	0.720	0.040	102.210	-0.900	0.400																			1580049447.0	10.68	19.78
26/01/2020 14:37:29	26012020	260120	143728	102.510	12.315370	-56.742235	102.760	-0.120	0.820	0.130	102.590	-0.500	0.500																			1580049448.0	10.10	18.71
26/01/2020 14:37:30	26012020	260120	143729	102.850	12.315358	-56.742185	103.030	0.080	0.030	0.160	102.920	-1.000	0.500																			1580049449.0	10.62	19.67
26/01/2020 14:37:31	26012020	260120	143730	103.090	12.315348	-56.742133	103.170	0.450	-0.870	0.290	103.120	-2.000	0.600																			1580049450.0	11.45	21.21
26/01/2020 14:37:32	26012020	260120	143731	103.190	12.315338	-56.742080	103.260	0.570	-1.080	0.450	103.210	-2.500	0.800																			1580049451.0	11.40	21.11
26/01/2020 14:37:33	26012020	260120	143732	103.270	12.315328	-56.742030	103.210	0.310	-0.770	0.630	103.260	-2.300	1.000																			1580049452.0	10.59	19.61
26/01/2020 14:37:34	26012020	260120	143733	103.140	12.315317	-56.741983	102.950	-0.020	-0.560	0.770	103.090	-2.000	1.100																			1580049453.0	10.24	18.96
26/01/2020 14:37:35	26012020	260120	143734	102.850	12.315307	-56.741935	102.620	-0.190	-0.670	0.720	102.790	-2.000	1.100																			1580049454.0	10.65	19.72
26/01/2020 14:37:36	26012020	260120	143735	102.540	12.315295	-56.741883	102.340	-0.160	-0.870	0.580	102.480	-2.200	1.000																			1580049455.0	11.21	20.76
26/01/2020 14:37:37	26012020	260120	143736	102.300	12.315285	-56.741830	102.230	-0.040	-0.800	0.360	102.280	-2.200	0.900																			1580049456.0	11.45	21.21
26/01/2020 14:37:38	26012020	260120	143737	102.240	12.315273	-56.741777	102.220	-0.020	-0.370	0.180	102.240	-1.900	0.600																			1580049457.0	11.31	20.95
26/01/2020 14:37:39	26012020	260120	143738	102.230	12.315262	-56.741727	102.200	-0.190	0.250	0.240	102.230	-1.400	0.600																			1580049458.0	11.01	20.39
26/01/2020 14:37:40	26012020	260120	143739	102.230	12.315250	-56.741677	102.260	-0.420	0.690	0.410	102.230	-0.800	0.700																			1580049459.0	10.77	19.95
26/01/2020 14:37:41	26012020	260120	143740	102.330	12.315237	-56.741628	102.470	-0.430	0.680	0.370	102.370	-0.600	0.800																			1580049460.0	10.86	20.11
26/01/2020 14:37:42	26012020	260120	143741	102.580	12.315227	-56.741577	102.690	-0.180	0.320	0.190	102.630	-0.900	0.600																			1580049461.0	11.18	20.71
26/01/2020 14:37:43	26012020	260120	143742	102.770	12.315215	-56.741523	102.790	0.120	-0.070	0.110	102.800	-1.300	0.500																			1580049462.0	11.32	20.96
26/01/2020 14:37:44	26012020	260120	143743	102.840	12.315205	-56.741472	102.830	0.290	-0.250	0.150	102.840	-1.600	0.500																			1580049463.0	11.14	20.63
26/01/2020 14:37:45	26012020	260120	143744	102.880	12.315195	-56.741422	102.870	0.280	-0.240	0.110	102.890	-1.600	0.500																			1580049464.0	10.74	19.89
26/01/2020 14:37:46	26012020	260120	143745	102.910	12.315185	-56.741373	102.840	0.210	-0.340	0.070	102.910	-1.600	0.500																			1580049465.0	10.53	19.50
26/01/2020 14:37:47	26012020	260120	143746	102.840	12.315177	-56.741323	102.730	0.180	-0.590	0.140	102.830	-1.900	0.500																			1580049466.0	10.72	19.85
26/01/2020 14:37:48	26012020	260120	143747	102.730	12.315165	-56.741273	102.570	0.180	-0.850	0.360	102.700	-2.100	0.700																			1580049467.0	10.94	20.26
26/01/2020 14:37:49	26012020	260120	143748	102.520	12.315153	-56.741222	102.270	0.240	-1.120	0.620	102.460	-2.400	0.900																			1580049468.0	11.06	20.48
26/01/2020 14:37:50	26012020	260120	143749	102.180	12.315142	-56.741170	101.880	0.340	-1.210	0.760	102.100	-2.600	1.100																			1580049469.0	11.33	20.98
26/01/2020 14:37:51	26012020	260120	143750	101.810	12.315130	-56.741117	101.570	0.270	-0.810	0.750	101.740	-2.400	1.200																			1580049470.0	11.39	21.09
26/01/2020 14:37:52	26012020	260120	143751	101.540	12.315118	-56.741067	101.410	-0.140	0.090	0.710	101.500	-1.700	1.100																			1580049471.0	10.97	20.32
26/01/2020 14:37:53	26012020	260120	143752	101.420	12.315108	-56.741018	101.400	-0.710	0.900	0.680	101.410	-0.700	1.100																			1580049472.0	10.46	19.37
26/01/2020 14:37:54	26012020	260120	143753	101.440	12.315097	-56.740970	101.500	-0.970	0.910	0.580	101.460	-0.300	1.000																			1580049473.0	10.49	19.43
26/01/2020 14:37:55	26012020	260120	143754	101.570	12.315085	-56.740918	101.630	-0.600	0.090	0.460	101.600	-0.900	0.900																			1580049474.0	11.31	20.95
26/01/2020 14:37:56	26012020	260120	143755	101.660	12.315072	-56.740862	101.640	0.090	-0.640	0.380	101.670	-1.800	0.800																			1580049475.0	12.07	22.35
26/01/2020 14:37:57	26012020	260120	143756	101.680	12.315062	-56.740808	101.750	0.470	-0.390	0.290	101.700	-2.000	0.700																			1580049476.0	11.70	21.67
26/01/2020 14:37:58	26012020	260120	143757	101.850	12.315052	-56.740760	102.070	0.320	0.440	0.200	101.910	-1.200	0.600																			1580049477.0	10.42	19.30
26/01/2020 14:37:59	26012020	260120	143758	102.200	12.315045	-56.740715	102.360	0.040	0.580	0.140	102.260	-0.700	0.500																			1580049478.0	9.73	18.02
26/01/2020 14:38:00	26012020	260120	143759	102.420	12.315037	-56.740665	102.360	0.150	-0.470	0.250	102.420	-1.400	0.600	1016.60	26.00	26.00	20.30	20.30	821.00	71.00	71.00	376.00	29.10	359.00	8.30	100.00	2.70	60191	3103.00	27.60	27.60	1580049479.0	10.57	19.58
26/01/2020 14:38:01	26012020	260120	143800	102.340	12.315025	-56.740610	102.200	0.550	-1.560	0.570	102.310	-2.600	0.800																			1580049480.0	11.88	22.00
26/01/2020 14:38:02	26012020	260120	143801	102.150	12.315013	-56.740555	102.010	0.640	-1.440	0.890	102.110	-3.000	1.200																			1580049481.0	11.82	21.89
26/01/2020 14:38:03	26012020	260120	143802	101.970	12.315002	-56.740507	101.820	0.220	-0.470	1.010	101.930	-2.200	1.400																			1580049482.0	10.55	19.54
26/01/2020 14:38:04	26012020	260120	143803	101.750	12.314992	-56.740462	101.570	-0.320	0.130	0.910	101.700	-1.400	1.300																			1580049483.0	9.94	18.41
26/01/2020 14:38:05	26012020	260120	143804	101.500	12.314982	-56.740412	101.350	-0.580	-0.040	0.830	101.460	-1.300	1.300																			1580049484.0	10.65	19.72
26/01/2020 14:38:06	26012020	260120	143805	101.310	12.314970	-56.740358	101.200	-0.500	-0.310	0.670	101.270	-1.600	1.100																			1580049485.0	11.52	21.34
26/01/2020 14:38:07	26012020	260120	143806	101.180	12.314958	-56.740305	101.150	-0.330	-0.140	0.490	101.170	-1.600	0.900																			1580049486.0	11.54	21.37
26/01/2020 14:38:08	26012020	260120	143807	101.170	12.314948	-56.740255	101.220	-0.220	0.230	0.320	101.180	-1.300	0.800																			1580049487.0	10.97	20.32
26/01/2020 14:38:09	26012020	260120	143808	101.290	12.314937	-56.740205	101.420	-0.140	0.340	0.130	101.330	-1.000	0.600																			1580049488.0	10.73	19.87
26/01/2020 14:38:10	26012020	260120	143809	101.460	12.314928	-56.740155	101.690	0.030	0.170	-0.090	101.500	-1.100	0.400																			1580049489.0	10.91	20.21
26/01/2020 14:38:11	26012020	260120	143810	101.810	12.314918	-56.740103	101.970	0.270	-0.070	-0.200	101.860	-1.300	0.200																			1580049490.0	11.04	20.45
26/01/2020 14:38:12	26012020	260120	143811	102.050	12.314910	-56.740052	102.060	0.450	-0.350	-0.070	102.070	-1.600	0.200																			1580049491.0	10.99	20.35
26/01/2020 14:38:13	26012020	260120	143812	102.060	12.314902	-56.740000	101.920	0.470	-0.670	0.280	102.040	-1.900	0.500																			1580049492.0	10.98	20.33
26/01/2020 14:38:14	26012020	260120	143813	101.870	12.314892	-56.739950	101.690	0.360	-0.950	0.810	101.820	-2.200	1.000																			1580049493.0	11.06	20.48
26/01/2020 14:38:15	26012020	260120	143814	101.600	12.314878	-56.739898	101.440	0.190	-0.950	1.230	101.550	-2.400	1.500																			1580049494.0	11.17	20.69
26/01/2020 14:38:16	26012020	260120	143815	101.360	12.314867	-56.739848	101.240	-0.090	-0.490	1.270	101.310	-2.100	1.700																			1580049495.0	10.99	20.35
26/01/2020 14:38:17	26012020	260120	143816	101.170	12.314857	-56.739798	101.060	-0.440	0.090	1.110	101.140	-1.500	1.600																			1580049496.0	10.59	19.61
26/01/2020 14:38:18	26012020	260120	143817	101.010	12.314847	-56.739750	100.930	-0.640	0.330	0.870	100.990	-1.100	1.400																			1580049497.0	10.57	19.58
26/01/2020 14:38:19	26012020	260120	143818	100.920	12.314837	-56.739698	100.950	-0.570	0.150	0.570	100.920	-1.100	1.100																			1580049498.0	10.95	20.28
26/01/2020 14:38:20	26012020	260120	143819	100.980	12.314827	-56.739647	101.110	-0.280	-0.220	0.240	101.010	-1.500	0.800																			1580049499.0	11.37	21.06
26/01/2020 14:38:21	26012020	260120	143820	101.160	12.314817	-56.739593	101.240	0.050	-0.380	0.040	101.190	-1.700	0.500																			1580049500.0	11.46	21.22
26/01/2020 14:38:22	26012020	260120	143821	101.260	12.314807	-56.739542	101.300	0.240	-0.240	0.060	101.270	-1.700	0.400																			1580049501.0	11.13	20.61
26/01/2020 14:38:23	26012020	260120	143822	101.340	12.314798	-56.739492	101.420	0.290	-0.120	0.170	101.360	-1.500	0.500																			1580049502.0	10.78	19.96
26/01/2020 14:38:24	26012020	260120	143823	101.460	12.314788	-56.739440	101.520	0.290	-0.160	0.350	101.490	-1.500	0.700																			1580049503.0	10.81	20.02
26/01/2020 14:38:25	26012020	260120	143824	101.530	12.314778	-56.739390	101.460	0.270	-0.270	0.540	101.510	-1.600	0.900																			1580049504.0	10.96	20.30
26/01/2020 14:38:26	26012020	260120	143825	101.440	12.314768	-56.739338	101.370	0.250	-0.420	0.670	101.420	-1.700	1.000																			1580049505.0	11.02	20.41
26/01/2020 14:38:27	26012020	260120	143826	101.350	12.314758	-56.739287	101.280	0.200	-0.540	0.670	101.330	-1.900	1.100																			1580049506.0	11.08	20.52
26/01/2020 14:38:28	26012020	260120	143827	101.260	12.314750	-56.739235	101.190	0.050	-0.480	0.590	101.240	-1.900	1.000																			1580049507.0	11.12	20.59
26/01/2020 14:38:29	26012020	260120	143828	101.180	12.314742	-56.739185	101.130	-0.240	-0.190	0.510	101.170	-1.700	0.900																			1580049508.0	10.95	20.28
26/01/2020 14:38:30	26012020	260120	143829	101.140	12.314732	-56.739135	101.130	-0.530	0.030	0.470	101.140	-1.400	0.900																			1580049509.0	10.68	19.78
26/01/2020 14:38:31	26012020	260120	143830	101.160	12.314722	-56.739085	101.200	-0.500	-0.190	0.420	101.170	-1.400	0.800																			1580049510.0	10.83	20.06
26/01/2020 14:38:32	26012020	260120	143831	101.230	12.314710	-56.739032	101.210	-0.100	-0.670	0.410	101.230	-1.900	0.800																			1580049511.0	11.42	21.15
26/01/2020 14:38:33	26012020	260120	143832	101.220	12.314698	-56.738978	101.180	0.220	-0.610	0.370	101.210	-2.100	0.800																			1580049512.0	11.71	21.69
26/01/2020 14:38:34	26012020	260120	143833	101.200	12.314690	-56.738927	101.250	0.160	0.060	0.290	101.200	-1.600	0.700																			1580049513.0	11.03	20.43
26/01/2020 14:38:35	26012020	260120	143834	101.310	12.314682	-56.738878	101.460	-0.090	0.520	0.160	101.360	-0.900	0.600																			1580049514.0	10.34	19.15
26/01/2020 14:38:36	26012020	260120	143835	101.560	12.314672	-56.738830	101.710	-0.180	0.210	0.010	101.560	-1.000	0.500																			1580049515.0	10.61	19.65
26/01/2020 14:38:37	26012020	260120	143836	101.790	12.314663	-56.738777	101.860	-0.050	-0.340	-0.030	101.830	-1.500	0.400																			1580049516.0	11.41	21.13
26/01/2020 14:38:38	26012020	260120	143837	101.900	12.314652	-56.738723	101.890	0.030	-0.440	0.160	101.900	-1.800	0.500																			1580049517.0	11.43	21.17
26/01/2020 14:38:39	26012020	260120	143838	101.910	12.314642	-56.738673	101.910	0.050	-0.340	0.340	101.910	-1.700	0.700																			1580049518.0	10.83	20.06
26/01/2020 14:38:40	26012020	260120	143839	101.930	12.314632	-56.738623	101.910	0.180	-0.480	0.360	101.930	-1.800	0.800																			1580049519.0	10.71	19.83
26/01/2020 14:38:41	26012020	260120	143840	101.890	12.314622	-56.738572	101.810	0.400	-0.790	0.240	101.870	-2.100	0.700																			1580049520.0	11.16	20.67
26/01/2020 14:38:42	26012020	260120	143841	101.780	12.314613	-56.738518	101.740	0.430	-0.680	0.140	101.770	-2.200	0.600																			1580049521.0	11.41	21.13
26/01/2020 14:38:43	26012020	260120	143842	101.750	12.314605	-56.738467	101.790	0.190	-0.150	0.100	101.760	-1.700	0.500																			1580049522.0	10.93	20.24
26/01/2020 14:38:44	26012020	260120	143843	101.830	12.314597	-56.738418	101.880	-0.160	0.210	0.030	101.850	-1.200	0.500																			1580049523.0	10.53	19.50
26/01/2020 14:38:45	26012020	260120	143844	101.920	12.314587	-56.738368	101.930	-0.390	0.050	0.010	101.930	-1.200	0.400																			1580049524.0	10.85	20.09
26/01/2020 14:38:46	26012020	260120	143845	101.960	12.314575	-56.738315	101.980	-0.420	-0.320	0.170	101.970	-1.600	0.500																			1580049525.0	11.40	21.11
26/01/2020 14:38:47	26012020	260120	143846	101.990	12.314562	-56.738263	102.000	-0.330	-0.370	0.310	101.990	-1.800	0.700																			1580049526.0	11.53	21.35
26/01/2020 14:38:48	26012020	260120	143847	102.000	12.314548	-56.738212	102.000	-0.240	-0.140	0.320	102.000	-1.600	0.700																			1580049527.0	11.11	20.58
26/01/2020 14:38:49	26012020	260120	143848	102.000	12.314538	-56.738162	102.010	-0.180	0.070	0.210	102.000	-1.400	0.700																			1580049528.0	10.83	20.06
26/01/2020 14:38:50	26012020	260120	143849	102.060	12.314528	-56.738112	102.180	-0.110	0.090	-0.100	102.090	-1.200	0.400																			1580049529.0	10.79	19.98
26/01/2020 14:38:51	26012020	260120	143850	102.290	12.314520	-56.738060	102.490	0.070	-0.170	-0.390	102.350	-1.400	0.100																			1580049530.0	10.94	20.26
26/01/2020 14:38:52	26012020	260120	143851	102.600	12.314512	-56.738008	102.670	0.310	-0.510	-0.360	102.650	-1.800	-0.000																			1580049531.0	11.21	20.76
26/01/2020 14:38:53	26012020	260120	143852	102.670	12.314500	-56.737957	102.460	0.480	-0.710	-0.050	102.640	-2.000	0.200																			1580049532.0	11.25	20.84
26/01/2020 14:38:54	26012020	260120	143853	102.390	12.314490	-56.737905	102.080	0.510	-0.720	0.300	102.310	-2.100	0.600																			1580049533.0	11.15	20.65
26/01/2020 14:38:55	26012020	260120	143854	102.000	12.314478	-56.737853	101.830	0.420	-0.580	0.480	101.940	-2.000	0.800																			1580049534.0	11.08	20.52
26/01/2020 14:38:56	26012020	260120	143855	101.810	12.314470	-56.737802	101.810	0.180	-0.320	0.400	101.810	-1.800	0.800																			1580049535.0	11.06	20.48
26/01/2020 14:38:57	26012020	260120	143856	101.860	12.314460	-56.737752	101.920	-0.200	-0.010	0.400	101.880	-1.500	0.800																			1580049536.0	11.00	20.37
26/01/2020 14:38:58	26012020	260120	143857	101.940	12.314448	-56.737700	102.010	-0.560	0.270	0.560	101.960	-1.200	0.900																			1580049537.0	10.95	20.28
26/01/2020 14:38:59	26012020	260120	143858	102.050	12.314435	-56.737650	102.170	-0.700	0.370	0.630	102.080	-1.000	1.000																			1580049538.0	10.92	20.22
26/01/2020 14:39:00	26012020	260120	143859	102.200	12.314422	-56.737600	102.440	-0.510	0.130	0.510	102.240	-1.100	1.000	1016.60	25.90	26.00	20.20	20.30	803.00	70.00	70.00	375.00	29.10	1.00	8.60	106.00	2.90	59314	3250.00	27.60	27.60	1580049539.0	11.02	20.41
26/01/2020 14:39:01	26012020	260120	143900	102.530	12.314410	-56.737548	102.670	-0.090	-0.280	0.220	102.580	-1.500	0.700																			1580049540.0	11.30	20.93
26/01/2020 14:39:02	26012020	260120	143901	102.740	12.314400	-56.737495	102.810	0.340	-0.580	-0.060	102.770	-1.900	0.400																			1580049541.0	11.38	21.08
26/01/2020 14:39:03	26012020	260120	143902	102.850	12.314392	-56.737443	102.870	0.570	-0.560	-0.230	102.870	-2.000	0.200																			1580049542.0	11.23	20.80
26/01/2020 14:39:04	26012020	260120	143903	102.920	12.314383	-56.737392	102.910	0.480	-0.340	-0.250	102.930	-1.800	0.100																			1580049543.0	10.87	20.13
26/01/2020 14:39:05	26012020	260120	143904	102.930	12.314375	-56.737342	102.830	0.220	-0.310	0.020	102.920	-1.600	0.300																			1580049544.0	10.70	19.82
26/01/2020 14:39:06	26012020	260120	143905	102.790	12.314363	-56.737292	102.620	0.040	-0.590	0.460	102.750	-1.800	0.700																			1580049545.0	11.01	20.39
26/01/2020 14:39:07	26012020	260120	143906	102.540	12.314352	-56.737238	102.350	-0.020	-0.780	0.770	102.480	-2.100	1.100																			1580049546.0	11.47	21.24
26/01/2020 14:39:08	26012020	260120	143907	102.260	12.314338	-56.737187	102.130	-0.130	-0.560	0.810	102.210	-2.000	1.200																			1580049547.0	11.43	21.17
26/01/2020 14:39:09	26012020	260120	143908	102.060	12.314327	-56.737135	102.030	-0.350	-0.050	0.680	102.040	-1.600	1.100																			1580049548.0	11.06	20.48
26/01/2020 14:39:10	26012020	260120	143909	102.000	12.314315	-56.737085	102.040	-0.520	0.320	0.500	102.000	-1.100	1.000																			1580049549.0	10.81	20.02
26/01/2020 14:39:11	26012020	260120	143910	102.040	12.314303	-56.737035	102.130	-0.470	0.280	0.250	102.050	-1.000	0.700																			1580049550.0	10.97	20.32
26/01/2020 14:39:12	26012020	260120	143911	102.140	12.314292	-56.736983	102.300	-0.170	-0.000	0.000	102.170	-1.300	0.500																			1580049551.0	11.35	21.02
26/01/2020 14:39:13	26012020	260120	143912	102.340	12.314282	-56.736930	102.490	0.210	-0.130	-0.230	102.380	-1.500	0.200																			1580049552.0	11.45	21.21
26/01/2020 14:39:14	26012020	260120	143913	102.570	12.314272	-56.736878	102.750	0.480	-0.010	-0.410	102.620	-1.400	0.000																			1580049553.0	11.12	20.59
26/01/2020 14:39:15	26012020	260120	143914	102.830	12.314262	-56.736828	102.930	0.530	0.050	-0.400	102.870	-1.300	-0.000																			1580049554.0	10.75	19.91
26/01/2020 14:39:16	26012020	260120	143915	102.950	12.314253	-56.736778	102.910	0.450	-0.220	-0.120	102.950	-1.400	0.100																			1580049555.0	10.76	19.93
26/01/2020 14:39:17	26012020	260120	143916	102.900	12.314245	-56.736727	102.860	0.310	-0.650	0.200	102.880	-1.900	0.500																			1580049556.0	11.09	20.54
26/01/2020 14:39:18	26012020	260120	143917	102.850	12.314233	-56.736675	102.800	0.120	-0.940	0.590	102.840	-2.200	0.800																			1580049557.0	11.27	20.87
26/01/2020 14:39:19	26012020	260120	143918	102.730	12.314222	-56.736623	102.540	-0.130	-1.040	1.040	102.690	-2.400	1.300																			1580049558.0	11.20	20.74
26/01/2020 14:39:20	26012020	260120	143919	102.400	12.314207	-56.736572	102.070	-0.310	-0.990	1.400	102.310	-2.400	1.700																			1580049559.0	11.23	20.80
26/01/2020 14:39:21	26012020	260120	143920	101.920	12.314193	-56.736520	101.690	-0.380	-0.670	1.450	101.830	-2.200	1.900																			1580049560.0	11.35	21.02
26/01/2020 14:39:22	26012020	260120	143921	101.620	12.314180	-56.736468	101.620	-0.460	-0.060	1.070	101.600	-1.700	1.600																			1580049561.0	11.22	20.78
26/01/2020 14:39:23	26012020	260120	143922	101.620	12.314170	-56.736418	101.740	-0.530	0.520	0.460	101.650	-1.000	1.100																			1580049562.0	10.94	20.26
26/01/2020 14:39:24	26012020	260120	143923	101.760	12.314160	-56.736367	101.920	-0.430	0.720	-0.040	101.790	-0.700	0.500																			1580049563.0	10.91	20.21
26/01/2020 14:39:25	26012020	260120	143924	102.000	12.314150	-56.736315	102.130	-0.090	0.480	-0.250	102.040	-0.800	0.200																			1580049564.0	11.20	20.74
26/01/2020 14:39:26	26012020	260120	143925	102.190	12.314138	-56.736262	102.400	0.330	0.110	-0.370	102.240	-1.100	0.100																			1580049565.0	11.44	21.19
26/01/2020 14:39:27	26012020	260120	143926	102.530	12.314128	-56.736210	102.670	0.630	-0.110	-0.470	102.570	-1.400	-0.100																			1580049566.0	11.33	20.98
26/01/2020 14:39:28	26012020	260120	143927	102.760	12.314122	-56.736158	102.860	0.670	-0.190	-0.410	102.790	-1.500	-0.000																			1580049567.0	10.98	20.33
26/01/2020 14:39:29	26012020	260120	143928	102.920	12.314113	-56.736108	102.960	0.490	-0.340	-0.150	102.940	-1.600	0.100																			1580049568.0	10.73	19.87
26/01/2020 14:39:30	26012020	260120	143929	102.970	12.314103	-56.736058	102.890	0.250	-0.730	0.360	102.960	-1.900	0.500																			1580049569.0	10.81	20.02
26/01/2020 14:39:31	26012020	260120	143930	102.830	12.314092	-56.736007	102.620	0.070	-1.190	0.840	102.780	-2.400	1.100																			1580049570.0	11.16	20.67
26/01/2020 14:39:32	26012020	260120	143931	102.490	12.314077	-56.735955	102.190	-0.050	-1.360	1.110	102.400	-2.700	1.400																			1580049571.0	11.44	21.19
26/01/2020 14:39:33	26012020	260120	143932	102.030	12.314065	-56.735902	101.750	-0.140	-1.050	1.220	101.930	-2.600	1.600																			1580049572.0	11.37	21.06
26/01/2020 14:39:34	26012020	260120	143933	101.650	12.314053	-56.735852	101.580	-0.300	-0.330	1.000	101.610	-2.000	1.500																			1580049573.0	11.15	20.65
26/01/2020 14:39:35	26012020	260120	143934	101.560	12.314042	-56.735802	101.640	-0.570	0.430	0.640	101.570	-1.200	1.200																			1580049574.0	10.83	20.06
26/01/2020 14:39:36	26012020	260120	143935	101.660	12.314030	-56.735752	101.790	-0.740	0.740	0.340	101.700	-0.700	0.800																			1580049575.0	10.78	19.96
26/01/2020 14:39:37	26012020	260120	143936	101.840	12.314018	-56.735700	101.980	-0.540	0.480	0.120	101.880	-0.700	0.600																			1580049576.0	11.19	20.72
26/01/2020 14:39:38	26012020	260120	143937	102.040	12.314007	-56.735647	102.150	-0.070	0.000	0.000	102.070	-1.200	0.400																			1580049577.0	11.64	21.56
26/01/2020 14:39:39	26012020	260120	143938	102.180	12.313997	-56.735592	102.200	0.320	-0.180	0.080	102.200	-1.500	0.400																			1580049578.0	11.64	21.56
26/01/2020 14:39:40	26012020	260120	143939	102.220	12.313987	-56.735540	102.250	0.410	-0.020	0.170	102.220	-1.500	0.500																			1580049579.0	11.08	20.52
26/01/2020 14:39:41	26012020	260120	143940	102.280	12.313977	-56.735492	102.390	0.350	0.000	0.250	102.310	-1.300	0.600																			1580049580.0	10.60	19.63
26/01/2020 14:39:42	26012020	260120	143941	102.420	12.313968	-56.735442	102.450	0.370	-0.470	0.330	102.440	-1.600	0.700																			1580049581.0	10.79	19.98
26/01/2020 14:39:43	26012020	260120	143942	102.430	12.313958	-56.735388	102.320	0.450	-1.030	0.440	102.400	-2.200	0.800																			1580049582.0	11.43	21.17
26/01/2020 14:39:44	26012020	260120	143943	102.260	12.313947	-56.735335	102.180	0.350	-0.940	0.640	102.220	-2.400	0.900																			1580049583.0	11.51	21.32
26/01/2020 14:39:45	26012020	260120	143944	102.140	12.313937	-56.735285	102.150	0.010	-0.280	0.740	102.130	-1.900	1.100																			1580049584.0	10.82	20.04
26/01/2020 14:39:46	26012020	260120	143945	102.130	12.313925	-56.735238	102.150	-0.290	0.130	0.600	102.130	-1.300	1.100																			1580049585.0	10.31	19.09
26/01/2020 14:39:47	26012020	260120	143946	102.140	12.313915	-56.735188	102.170	-0.330	-0.110	0.350	102.150	-1.300	0.800																			1580049586.0	10.81	20.02
26/01/2020 14:39:48	26012020	260120	143947	102.170	12.313903	-56.735133	102.160	-0.200	-0.550	0.200	102.170	-1.800	0.600																			1580049587.0	11.55	21.39
26/01/2020 14:39:49	26012020	260120	143948	102.150	12.313893	-56.735080	102.100	-0.080	-0.630	0.150	102.140	-2.000	0.500																			1580049588.0	11.67	21.61
26/01/2020 14:39:50	26012020	260120	143949	102.100	12.313882	-56.735028	102.030	-0.020	-0.390	0.300	102.080	-1.900	0.600																			1580049589.0	11.27	20.87
26/01/2020 14:39:51	26012020	260120	143950	101.990	12.313870	-56.734977	101.920	-0.020	-0.150	0.610	101.970	-1.600	0.900																			1580049590.0	11.03	20.43
26/01/2020 14:39:52	26012020	260120	143951	101.880	12.313858	-56.734927	101.850	-0.110	0.110	0.620	101.860	-1.400	1.000																			1580049591.0	11.09	20.54
26/01/2020 14:39:53	26012020	260120	143952	101.830	12.313847	-56.734875	101.830	-0.190	0.270	0.450	101.830	-1.100	0.900																			1580049592.0	10.98	20.33
26/01/2020 14:39:54	26012020	260120	143953	101.810	12.313837	-56.734825	101.800	-0.130	0.140	0.420	101.800	-1.100	0.800																			1580049593.0	11.02	20.41
26/01/2020 14:39:55	26012020	260120	143954	101.800	12.313827	-56.734772	101.850	0.030	-0.150	0.360	101.810	-1.400	0.800																			1580049594.0	11.32	20.96
26/01/2020 14:39:56	26012020	260120	143955	101.880	12.313817	-56.734720	101.980	0.120	-0.260	0.280	101.900	-1.600	0.700																			1580049595.0	11.33	20.98
26/01/2020 14:39:57	26012020	260120	143956	102.020	12.313807	-56.734668	102.140	0.120	-0.200	0.330	102.050	-1.600	0.700																			1580049596.0	11.01	20.39
26/01/2020 14:39:58	26012020	260120	143957	102.180	12.313797	-56.734618	102.280	0.120	-0.180	0.320	102.220	-1.500	0.700																			1580049597.0	10.76	19.93
26/01/2020 14:39:59	26012020	260120	143958	102.300	12.313787	-56.734568	102.250	0.200	-0.460	0.390	102.300	-1.700	0.700																			1580049598.0	10.85	20.09
26/01/2020 14:40:00	26012020	260120	143959	102.210	12.313775	-56.734517	102.120	0.290	-0.830	0.580	102.180	-2.100	0.900	1016.60	25.90	26.00	20.20	20.30	804.00	70.00	70.00	375.00	29.10	1.00	8.70	106.00	3.00	59444	3182.00	27.60	27.60	1580049599.0	11.27	20.87
26/01/2020 14:40:01	26012020	260120	144000	102.090	12.313763	-56.734463	102.060	0.220	-0.830	0.860	102.080	-2.200	1.100																			1580049600.0	11.39	21.09
26/01/2020 14:40:02	26012020	260120	144001	102.040	12.313752	-56.734413	101.910	-0.010	-0.490	1.100	102.020	-2.000	1.400																			1580049601.0	11.05	20.46
26/01/2020 14:40:03	26012020	260120	144002	101.820	12.313740	-56.734363	101.650	-0.230	-0.190	1.030	101.770	-1.600	1.500																			1580049602.0	10.82	20.04
26/01/2020 14:40:04	26012020	260120	144003	101.580	12.313730	-56.734312	101.460	-0.260	-0.130	0.780	101.540	-1.500	1.300																			1580049603.0	11.03	20.43
26/01/2020 14:40:05	26012020	260120	144004	101.420	12.313720	-56.734258	101.380	-0.100	-0.210	0.560	101.390	-1.500	1.000																			1580049604.0	11.37	21.06
26/01/2020 14:40:06	26012020	260120	144005	101.380	12.313712	-56.734205	101.500	0.060	-0.220	0.160	101.400	-1.600	0.700																			1580049605.0	11.51	21.32
26/01/2020 14:40:07	26012020	260120	144006	101.560	12.313702	-56.734152	101.760	0.060	-0.010	-0.040	101.620	-1.500	0.400																			1580049606.0	11.39	21.09
26/01/2020 14:40:08	26012020	260120	144007	101.820	12.313693	-56.734102	101.930	-0.150	0.410	0.130	101.860	-1.100	0.400																			1580049607.0	11.00	20.37
26/01/2020 14:40:09	26012020	260120	144008	101.960	12.313682	-56.734052	102.020	-0.390	0.540	0.310	101.980	-0.800	0.700																			1580049608.0	10.61	19.65
26/01/2020 14:40:10	26012020	260120	144009	102.030	12.313670	-56.734002	102.080	-0.350	0.040	0.400	102.040	-1.100	0.800																			1580049609.0	10.85	20.09
26/01/2020 14:40:11	26012020	260120	144010	102.080	12.313658	-56.733950	102.110	-0.040	-0.670	0.400	102.090	-1.800	0.800																			1580049610.0	11.44	21.19
26/01/2020 14:40:12	26012020	260120	144011	102.090	12.313648	-56.733895	102.080	0.310	-1.030	0.190	102.100	-2.300	0.700																			1580049611.0	11.59	21.46
26/01/2020 14:40:13	26012020	260120	144012	102.040	12.313638	-56.733843	101.920	0.470	-0.920	0.120	102.010	-2.400	0.500																			1580049612.0	11.24	20.82
26/01/2020 14:40:14	26012020	260120	144013	101.890	12.313630	-56.733793	101.680	0.400	-0.580	0.230	101.840	-2.100	0.600																			1580049613.0	10.88	20.15
26/01/2020 14:40:15	26012020	260120	144014	101.620	12.313620	-56.733742	101.600	0.210	-0.250	0.320	101.600	-1.700	0.700																			1580049614.0	10.83	20.06
26/01/2020 14:40:16	26012020	260120	144015	101.590	12.313610	-56.733692	101.660	-0.060	0.040	0.450	101.590	-1.400	0.800																			1580049615.0	10.91	20.21
26/01/2020 14:40:17	26012020	260120	144016	101.670	12.313600	-56.733642	101.750	-0.280	0.060	0.500	101.690	-1.300	0.900																			1580049616.0	10.97	20.32
26/01/2020 14:40:18	26012020	260120	144017	101.740	12.313588	-56.733588	101.740	-0.300	-0.200	0.640	101.740	-1.500	0.900																			1580049617.0	11.30	20.93
26/01/2020 14:40:19	26012020	260120	144018	101.690	12.313575	-56.733537	101.650	-0.170	-0.340	0.890	101.670	-1.700	1.200																			1580049618.0	11.54	21.37
26/01/2020 14:40:20	26012020	260120	144019	101.610	12.313563	-56.733483	101.670	-0.040	-0.150	0.830	101.620	-1.600	1.300																			1580049619.0	11.38	21.08
26/01/2020 14:40:21	26012020	260120	144020	101.680	12.313553	-56.733433	101.800	-0.050	0.160	0.440	101.710	-1.300	1.000																			1580049620.0	10.95	20.28
26/01/2020 14:40:22	26012020	260120	144021	101.840	12.313547	-56.733382	101.940	-0.120	0.170	0.110	101.870	-1.100	0.600																			1580049621.0	10.79	19.98
26/01/2020 14:40:23	26012020	260120	144022	101.950	12.313537	-56.733330	101.970	-0.120	-0.220	0.050	101.960	-1.400	0.400																			1580049622.0	11.06	20.48
26/01/2020 14:40:24	26012020	260120	144023	101.960	12.313527	-56.733278	101.950	0.010	-0.660	0.150	101.950	-1.900	0.500																			1580049623.0	11.44	21.19
26/01/2020 14:40:25	26012020	260120	144024	101.930	12.313517	-56.733225	101.870	0.170	-0.720	0.360	101.910	-2.100	0.700																			1580049624.0	11.41	21.13
26/01/2020 14:40:26	26012020	260120	144025	101.810	12.313505	-56.733173	101.670	0.270	-0.580	0.560	101.770	-2.000	0.900																			1580049625.0	11.06	20.48
26/01/2020 14:40:27	26012020	260120	144026	101.610	12.313495	-56.733123	101.530	0.280	-0.500	0.470	101.570	-1.900	0.900																			1580049626.0	11.02	20.41
26/01/2020 14:40:28	26012020	260120	144027	101.510	12.313485	-56.733070	101.550	0.150	-0.310	0.350	101.510	-1.800	0.800																			1580049627.0	11.20	20.74
26/01/2020 14:40:29	26012020	260120	144028	101.570	12.313477	-56.733018	101.630	-0.130	0.050	0.320	101.580	-1.400	0.700																			1580049628.0	11.06	20.48
26/01/2020 14:40:30	26012020	260120	144029	101.650	12.313467	-56.732968	101.710	-0.380	0.230	0.250	101.660	-1.200	0.700																			1580049629.0	10.85	20.09
26/01/2020 14:40:31	26012020	260120	144030	101.750	12.313455	-56.732918	101.840	-0.420	0.060	0.190	101.770	-1.200	0.600																			1580049630.0	11.05	20.46
26/01/2020 14:40:32	26012020	260120	144031	101.890	12.313443	-56.732865	102.000	-0.250	-0.210	0.100	101.920	-1.500	0.500																			1580049631.0	11.37	21.06
26/01/2020 14:40:33	26012020	260120	144032	102.060	12.313433	-56.732813	102.150	-0.010	-0.250	-0.030	102.090	-1.600	0.400																			1580049632.0	11.35	21.02
26/01/2020 14:40:34	26012020	260120	144033	102.180	12.313423	-56.732762	102.150	0.190	-0.250	0.010	102.180	-1.600	0.400																			1580049633.0	11.03	20.43
26/01/2020 14:40:35	26012020	260120	144034	102.140	12.313413	-56.732710	102.060	0.380	-0.520	0.110	102.120	-1.800	0.500																			1580049634.0	11.05	20.46
26/01/2020 14:40:36	26012020	260120	144035	102.060	12.313403	-56.732657	102.050	0.490	-0.790	0.200	102.060	-2.100	0.600																			1580049635.0	11.47	21.24
26/01/2020 14:40:37	26012020	260120	144036	102.050	12.313393	-56.732603	102.020	0.310	-0.540	0.320	102.050	-2.100	0.700																			1580049636.0	11.46	21.22
26/01/2020 14:40:38	26012020	260120	144037	102.010	12.313383	-56.732553	101.950	-0.110	0.040	0.500	102.000	-1.500	0.800																			1580049637.0	10.86	20.11
26/01/2020 14:40:39	26012020	260120	144038	101.930	12.313373	-56.732505	101.900	-0.470	0.240	0.780	101.920	-1.100	1.100																			1580049638.0	10.53	19.50
26/01/2020 14:40:40	26012020	260120	144039	101.890	12.313362	-56.732453	101.920	-0.470	-0.200	0.900	101.890	-1.400	1.300																			1580049639.0	11.06	20.48
26/01/2020 14:40:41	26012020	260120	144040	101.900	12.313348	-56.732400	101.900	-0.290	-0.580	0.720	101.900	-1.900	1.200																			1580049640.0	11.75	21.76
26/01/2020 14:40:42	26012020	260120	144041	101.850	12.313337	-56.732347	101.790	-0.150	-0.440	0.530	101.840	-1.900	1.000																			1580049641.0	11.54	21.37
26/01/2020 14:40:43	26012020	260120	144042	101.760	12.313327	-56.732297	101.780	-0.100	-0.050	0.250	101.760	-1.600	0.800																			1580049642.0	10.94	20.26
26/01/2020 14:40:44	26012020	260120	144043	101.820	12.313318	-56.732247	101.920	-0.020	0.100	-0.110	101.850	-1.300	0.400																			1580049643.0	10.74	19.89
26/01/2020 14:40:45	26012020	260120	144044	101.980	12.313308	-56.732195	102.060	0.150	-0.090	-0.350	102.000	-1.400	0.100																			1580049644.0	11.06	20.48
26/01/2020 14:40:46	26012020	260120	144045	102.110	12.313300	-56.732142	102.200	0.300	-0.260	-0.340	102.150	-1.600	0.000																			1580049645.0	11.34	21.00
26/01/2020 14:40:47	26012020	260120	144046	102.250	12.313290	-56.732090	102.280	0.360	-0.280	-0.100	102.270	-1.600	0.200																			1580049646.0	11.19	20.72
26/01/2020 14:40:48	26012020	260120	144047	102.300	12.313280	-56.732038	102.260	0.380	-0.380	0.130	102.290	-1.700	0.400																			1580049647.0	11.01	20.39
26/01/2020 14:40:49	26012020	260120	144048	102.260	12.313270	-56.731987	102.230	0.390	-0.630	0.250	102.250	-1.900	0.600																			1580049648.0	11.20	20.74
26/01/2020 14:40:50	26012020	260120	144049	102.230	12.313260	-56.731933	102.180	0.290	-0.610	0.340	102.220	-2.000	0.700																			1580049649.0	11.44	21.19
26/01/2020 14:40:51	26012020	260120	144050	102.170	12.313250	-56.731882	102.170	-0.080	-0.200	0.330	102.160	-1.700	0.700																			1580049650.0	11.12	20.59
26/01/2020 14:40:52	26012020	260120	144051	102.170	12.313240	-56.731832	102.250	-0.550	0.120	0.350	102.180	-1.300	0.700																			1580049651.0	10.70	19.82
26/01/2020 14:40:53	26012020	260120	144052	102.250	12.313228	-56.731782	102.230	-0.780	-0.020	0.520	102.250	-1.300	0.900																			1580049652.0	10.85	20.09
26/01/2020 14:40:54	26012020	260120	144053	102.200	12.313215	-56.731730	102.080	-0.640	-0.450	0.510	102.200	-1.700	0.900																			1580049653.0	11.41	21.13
26/01/2020 14:40:55	26012020	260120	144054	102.030	12.313202	-56.731677	101.950	-0.280	-0.700	0.380	101.990	-2.000	0.800																			1580049654.0	11.72	21.71
26/01/2020 14:40:56	26012020	260120	144055	101.940	12.313190	-56.731623	102.030	0.040	-0.460	0.180	101.950	-2.000	0.700																			1580049655.0	11.47	21.24
26/01/2020 14:40:57	26012020	260120	144056	102.100	12.313180	-56.731573	102.310	0.180	-0.000	-0.180	102.160	-1.500	0.400																			1580049656.0	10.96	20.30
26/01/2020 14:40:58	26012020	260120	144057	102.390	12.313172	-56.731523	102.530	0.220	0.310	-0.460	102.450	-1.100	0.000																			1580049657.0	10.75	19.91
26/01/2020 14:40:59	26012020	260120	144058	102.580	12.313162	-56.731472	102.590	0.300	0.260	-0.400	102.590	-1.000	-0.100																			1580049658.0	10.85	20.09
26/01/2020 14:41:00	26012020	260120	144059	102.620	12.313152	-56.731420	102.690	0.480	-0.140	-0.300	102.630	-1.300	0.100	1016.60	25.90	26.00	20.10	20.20	797.00	70.00	70.00	376.00	29.10	4.00	9.10	112.00	3.40	59012	3244.00	27.60	27.60	1580049659.0	11.19	20.72
26/01/2020 14:41:01	26012020	260120	144100	102.770	12.313143	-56.731367	102.890	0.590	-0.540	-0.280	102.810	-1.800	0.100																			1580049660.0	11.47	21.24
26/01/2020 14:41:02	26012020	260120	144101	102.960	12.313133	-56.731313	102.980	0.440	-0.600	-0.110	102.990	-2.000	0.200																			1580049661.0	11.40	21.11
26/01/2020 14:41:03	26012020	260120	144102	102.980	12.313122	-56.731263	102.860	0.060	-0.400	0.240	102.950	-1.900	0.500																			1580049662.0	10.98	20.33
26/01/2020 14:41:04	26012020	260120	144103	102.850	12.313110	-56.731213	102.670	-0.350	-0.250	0.690	102.810	-1.700	0.900																			1580049663.0	10.78	19.96
26/01/2020 14:41:05	26012020	260120	144104	102.590	12.313097	-56.731163	102.430	-0.570	-0.320	0.940	102.550	-1.600	1.300																			1580049664.0	10.95	20.28
26/01/2020 14:41:06	26012020	260120	144105	102.350	12.313083	-56.731112	102.270	-0.540	-0.490	0.750	102.350	-1.800	1.200																			1580049665.0	11.26	20.85
26/01/2020 14:41:07	26012020	260120	144106	102.230	12.313072	-56.731060	102.210	-0.340	-0.580	0.510	102.220	-1.900	1.000																			1580049666.0	11.43	21.17
26/01/2020 14:41:08	26012020	260120	144107	102.200	12.313060	-56.731007	102.170	-0.120	-0.540	0.420	102.190	-1.900	0.800																			1580049667.0	11.41	21.13
26/01/2020 14:41:09	26012020	260120	144108	102.140	12.313048	-56.730955	102.130	0.030	-0.310	0.290	102.130	-1.800	0.700																			1580049668.0	11.35	21.02
26/01/2020 14:41:10	26012020	260120	144109	102.130	12.313037	-56.730903	102.240	0.070	0.090	0.180	102.150	-1.400	0.600																			1580049669.0	11.16	20.67
26/01/2020 14:41:11	26012020	260120	144110	102.300	12.313025	-56.730853	102.540	0.060	0.480	0.090	102.360	-1.000	0.500																			1580049670.0	10.87	20.13
26/01/2020 14:41:12	26012020	260120	144111	102.630	12.313015	-56.730803	102.830	0.100	0.510	-0.010	102.700	-0.800	0.400																			1580049671.0	10.78	19.96
26/01/2020 14:41:13	26012020	260120	144112	102.880	12.313005	-56.730752	102.950	0.270	0.040	0.030	102.900	-1.100	0.400																			1580049672.0	11.05	20.46
26/01/2020 14:41:14	26012020	260120	144113	102.970	12.312995	-56.730698	102.980	0.440	-0.550	0.200	102.980	-1.700	0.500																			1580049673.0	11.50	21.30
26/01/2020 14:41:15	26012020	260120	144114	102.970	12.312985	-56.730645	102.950	0.420	-0.760	0.410	102.960	-2.100	0.700																			1580049674.0	11.50	21.30
26/01/2020 14:41:16	26012020	260120	144115	102.920	12.312975	-56.730593	102.850	0.200	-0.640	0.590	102.900	-2.100	0.900																			1580049675.0	11.04	20.45
26/01/2020 14:41:17	26012020	260120	144116	102.780	12.312963	-56.730543	102.680	-0.080	-0.510	0.710	102.740	-1.900	1.100																			1580049676.0	10.84	20.08
26/01/2020 14:41:18	26012020	260120	144117	102.640	12.312952	-56.730493	102.530	-0.280	-0.470	0.780	102.620	-1.800	1.100																			1580049677.0	11.00	20.37
26/01/2020 14:41:19	26012020	260120	144118	102.450	12.312938	-56.730442	102.320	-0.290	-0.520	0.800	102.410	-1.900	1.200																			1580049678.0	11.24	20.82
26/01/2020 14:41:20	26012020	260120	144119	102.240	12.312925	-56.730388	102.160	-0.220	-0.410	0.570	102.210	-1.900	1.100																			1580049679.0	11.46	21.22
26/01/2020 14:41:21	26012020	260120	144120	102.140	12.312913	-56.730337	102.180	-0.250	-0.020	0.190	102.140	-1.600	0.700																			1580049680.0	11.25	20.84
26/01/2020 14:41:22	26012020	260120	144121	102.230	12.312903	-56.730287	102.420	-0.310	0.330	-0.160	102.270	-1.100	0.300																			1580049681.0	10.90	20.19
26/01/2020 14:41:23	26012020	260120	144122	102.510	12.312893	-56.730237	102.700	-0.220	0.390	-0.390	102.570	-1.000	0.100																			1580049682.0	10.87	20.13
26/01/2020 14:41:24	26012020	260120	144123	102.760	12.312882	-56.730185	102.770	0.060	0.060	-0.310	102.770	-1.100	0.000																			1580049683.0	11.08	20.52
26/01/2020 14:41:25	26012020	260120	144124	102.750	12.312870	-56.730132	102.680	0.440	-0.530	-0.120	102.730	-1.700	0.200																			1580049684.0	11.44	21.19
26/01/2020 14:41:26	26012020	260120	144125	102.670	12.312860	-56.730078	102.650	0.670	-0.840	-0.070	102.660	-2.200	0.300																			1580049685.0	11.65	21.58
26/01/2020 14:41:27	26012020	260120	144126	102.650	12.312850	-56.730025	102.650	0.510	-0.610	0.040	102.650	-2.100	0.400																			1580049686.0	11.33	20.98
26/01/2020 14:41:28	26012020	260120	144127	102.660	12.312840	-56.729977	102.720	0.070	-0.230	0.240	102.680	-1.700	0.600																			1580049687.0	10.77	19.95
26/01/2020 14:41:29	26012020	260120	144128	102.740	12.312828	-56.729927	102.760	-0.360	-0.100	0.440	102.750	-1.500	0.800																			1580049688.0	10.75	19.91
26/01/2020 14:41:30	26012020	260120	144129	102.740	12.312815	-56.729877	102.620	-0.560	-0.130	0.650	102.740	-1.500	1.000																			1580049689.0	11.09	20.54
26/01/2020 14:41:31	26012020	260120	144130	102.530	12.312800	-56.729825	102.350	-0.440	-0.220	0.760	102.480	-1.600	1.100																			1580049690.0	11.25	20.84
26/01/2020 14:41:32	26012020	260120	144131	102.260	12.312787	-56.729773	102.130	-0.090	-0.330	0.570	102.210	-1.700	1.100																			1580049691.0	11.32	20.96
26/01/2020 14:41:33	26012020	260120	144132	102.090	12.312777	-56.729720	102.020	0.270	-0.420	0.260	102.070	-1.800	0.800																			1580049692.0	11.38	21.08
26/01/2020 14:41:34	26012020	260120	144133	102.000	12.312767	-56.729667	101.980	0.400	-0.390	-0.000	101.990	-1.800	0.500																			1580049693.0	11.42	21.15
26/01/2020 14:41:35	26012020	260120	144134	101.980	12.312757	-56.729615	102.010	0.230	-0.060	-0.080	101.980	-1.600	0.300																			1580049694.0	11.25	20.84
26/01/2020 14:41:36	26012020	260120	144135	102.040	12.312747	-56.729565	102.140	-0.090	0.380	0.120	102.060	-1.100	0.400																			1580049695.0	10.78	19.96
26/01/2020 14:41:37	26012020	260120	144136	102.170	12.312735	-56.729517	102.280	-0.260	0.400	0.300	102.200	-0.900	0.600																			1580049696.0	10.58	19.59
26/01/2020 14:41:38	26012020	260120	144137	102.290	12.312723	-56.729465	102.320	-0.130	-0.170	0.400	102.300	-1.300	0.800																			1580049697.0	11.00	20.37
26/01/2020 14:41:39	26012020	260120	144138	102.280	12.312712	-56.729412	102.210	0.200	-0.870	0.540	102.260	-2.000	0.900																			1580049698.0	11.59	21.46
26/01/2020 14:41:40	26012020	260120	144139	102.170	12.312698	-56.729358	101.980	0.410	-1.180	0.630	102.120	-2.500	1.000																			1580049699.0	11.71	21.69
26/01/2020 14:41:41	26012020	260120	144140	101.890	12.312688	-56.729305	101.790	0.300	-0.890	0.620	101.850	-2.400	1.000																			1580049700.0	11.37	21.06
26/01/2020 14:41:42	26012020	260120	144141	101.760	12.312678	-56.729255	101.770	-0.090	-0.220	0.550	101.750	-1.800	1.000																			1580049701.0	10.83	20.06
26/01/2020 14:41:43	26012020	260120	144142	101.750	12.312668	-56.729207	101.750	-0.470	0.230	0.490	101.750	-1.300	0.900																			1580049702.0	10.57	19.58
26/01/2020 14:41:44	26012020	260120	144143	101.710	12.312657	-56.729157	101.630	-0.530	0.140	0.440	101.700	-1.100	0.800																			1580049703.0	10.90	20.19
26/01/2020 14:41:45	26012020	260120	144144	101.570	12.312643	-56.729103	101.510	-0.220	-0.240	0.440	101.550	-1.500	0.800																			1580049704.0	11.52	21.34
26/01/2020 14:41:46	26012020	260120	144145	101.460	12.312632	-56.729050	101.440	0.180	-0.420	0.330	101.440	-1.800	0.800																			1580049705.0	11.76	21.78
26/01/2020 14:41:47	26012020	260120	144146	101.420	12.312620	-56.728997	101.430	0.370	-0.230	0.060	101.420	-1.700	0.500																			1580049706.0	11.48	21.26
26/01/2020 14:41:48	26012020	260120	144147	101.420	12.312612	-56.728945	101.470	0.310	0.170	0.010	101.430	-1.400	0.400																			1580049707.0	10.99	20.35
26/01/2020 14:41:49	26012020	260120	144148	101.490	12.312603	-56.728895	101.620	0.110	0.370	0.050	101.530	-1.000	0.400																			1580049708.0	10.73	19.87
26/01/2020 14:41:50	26012020	260120	144149	101.670	12.312593	-56.728845	101.780	-0.090	0.250	0.210	101.700	-1.000	0.500																			1580049709.0	10.82	20.04
26/01/2020 14:41:51	26012020	260120	144150	101.790	12.312582	-56.728793	101.780	-0.160	-0.200	0.550	101.800	-1.400	0.800																			1580049710.0	11.04	20.45
26/01/2020 14:41:52	26012020	260120	144151	101.720	12.312568	-56.728742	101.590	-0.010	-0.810	0.850	101.680	-2.000	1.200																			1580049711.0	11.32	20.96
26/01/2020 14:41:53	26012020	260120	144152	101.500	12.312557	-56.728688	101.340	0.210	-1.190	0.930	101.450	-2.500	1.300																			1580049712.0	11.53	21.35
26/01/2020 14:41:54	26012020	260120	144153	101.290	12.312547	-56.728637	101.070	0.320	-1.110	0.920	101.250	-2.600	1.300																			1580049713.0	11.38	21.08
26/01/2020 14:41:55	26012020	260120	144154	100.970	12.312537	-56.728585	100.810	0.160	-0.610	0.820	100.920	-2.200	1.300																			1580049714.0	11.06	20.48
26/01/2020 14:41:56	26012020	260120	144155	100.770	12.312527	-56.728535	100.630	-0.160	-0.060	0.680	100.730	-1.600	1.100																			1580049715.0	10.78	19.96
26/01/2020 14:41:57	26012020	260120	144156	100.570	12.312517	-56.728483	100.500	-0.340	0.040	0.610	100.550	-1.300	1.000																			1580049716.0	10.89	20.17
26/01/2020 14:41:58	26012020	260120	144157	100.450	12.312507	-56.728432	100.400	-0.210	-0.220	0.570	100.430	-1.500	1.000																			1580049717.0	11.49	21.28
26/01/2020 14:41:59	26012020	260120	144158	100.390	12.312495	-56.728377	100.490	-0.040	-0.140	0.510	100.400	-1.600	0.900																			1580049718.0	11.85	21.95
26/01/2020 14:42:00	26012020	260120	144159	100.550	12.312483	-56.728323	100.760	-0.090	0.400	0.470	100.600	-1.200	0.900	1016.60	25.90	26.00	20.10	20.10	789.00	70.00	70.00	376.00	29.10	2.00	8.70	108.00	2.90	58698	3156.00	27.60	27.60	1580049719.0	11.28	20.89
26/01/2020 14:42:01	26012020	260120	144200	100.850	12.312473	-56.728275	101.050	-0.230	0.750	0.430	100.920	-0.700	0.800																			1580049720.0	10.60	19.63
26/01/2020 14:42:02	26012020	260120	144201	101.120	12.312463	-56.728225	101.250	-0.180	0.430	0.380	101.160	-0.800	0.800																			1580049721.0	10.73	19.87
26/01/2020 14:42:03	26012020	260120	144202	101.310	12.312455	-56.728173	101.440	0.090	-0.230	0.250	101.350	-1.400	0.700																			1580049722.0	11.31	20.95
26/01/2020 14:42:04	26012020	260120	144203	101.490	12.312445	-56.728118	101.520	0.390	-0.720	0.160	101.510	-2.000	0.600																			1580049723.0	11.49	21.28
26/01/2020 14:42:05	26012020	260120	144204	101.510	12.312437	-56.728067	101.400	0.500	-0.810	0.290	101.500	-2.200	0.600																			1580049724.0	11.21	20.76
26/01/2020 14:42:06	26012020	260120	144205	101.370	12.312428	-56.728017	101.210	0.370	-0.760	0.580	101.330	-2.100	0.900																			1580049725.0	10.83	20.06
26/01/2020 14:42:07	26012020	260120	144206	101.150	12.312418	-56.727965	100.980	0.130	-0.880	0.830	101.100	-2.200	1.100																			1580049726.0	10.90	20.19
26/01/2020 14:42:08	26012020	260120	144207	100.950	12.312408	-56.727913	100.700	-0.020	-1.000	1.000	100.900	-2.400	1.300																			1580049727.0	11.30	20.93
26/01/2020 14:42:09	26012020	260120	144208	100.590	12.312397	-56.727860	100.360	-0.090	-0.820	1.130	100.530	-2.300	1.500																			1580049728.0	11.49	21.28
26/01/2020 14:42:10	26012020	260120	144209	100.260	12.312383	-56.727808	100.140	-0.170	-0.290	0.970	100.210	-1.900	1.400																			1580049729.0	11.35	21.02
26/01/2020 14:42:11	26012020	260120	144210	100.120	12.312373	-56.727757	100.170	-0.350	0.410	0.680	100.120	-1.200	1.200																			1580049730.0	11.03	20.43
26/01/2020 14:42:12	26012020	260120	144211	100.240	12.312365	-56.727707	100.390	-0.520	0.790	0.280	100.290	-0.600	0.800																			1580049731.0	10.78	19.96
26/01/2020 14:42:13	26012020	260120	144212	100.490	12.312355	-56.727655	100.570	-0.460	0.530	-0.090	100.530	-0.700	0.400																			1580049732.0	11.05	20.46
26/01/2020 14:42:14	26012020	260120	144213	100.650	12.312347	-56.727602	100.670	-0.180	0.040	-0.170	100.660	-1.200	0.200																			1580049733.0	11.59	21.46
26/01/2020 14:42:15	26012020	260120	144214	100.750	12.312337	-56.727548	100.820	0.110	-0.210	-0.050	100.770	-1.500	0.300																			1580049734.0	11.55	21.39
26/01/2020 14:42:16	26012020	260120	144215	100.940	12.312328	-56.727495	101.080	0.290	-0.270	-0.070	100.990	-1.600	0.300																			1580049735.0	11.12	20.59
26/01/2020 14:42:17	26012020	260120	144216	101.200	12.312320	-56.727445	101.270	0.330	-0.340	-0.060	101.240	-1.700	0.300																			1580049736.0	10.92	20.22
26/01/2020 14:42:18	26012020	260120	144217	101.310	12.312310	-56.727393	101.270	0.310	-0.470	0.170	101.320	-1.800	0.400																			1580049737.0	10.90	20.19
26/01/2020 14:42:19	26012020	260120	144218	101.270	12.312300	-56.727343	101.170	0.320	-0.600	0.470	101.250	-1.900	0.800																			1580049738.0	10.98	20.33
26/01/2020 14:42:20	26012020	260120	144219	101.170	12.312290	-56.727292	101.050	0.340	-0.680	0.600	101.140	-2.000	1.000																			1580049739.0	11.09	20.54
26/01/2020 14:42:21	26012020	260120	144220	101.030	12.312280	-56.727240	100.980	0.240	-0.700	0.570	101.010	-2.100	1.000																			1580049740.0	11.12	20.59
26/01/2020 14:42:22	26012020	260120	144221	100.960	12.312272	-56.727188	100.910	0.050	-0.680	0.540	100.950	-2.100	0.900																			1580049741.0	11.20	20.74
26/01/2020 14:42:23	26012020	260120	144222	100.880	12.312262	-56.727135	100.810	-0.190	-0.480	0.600	100.860	-2.000	1.000																			1580049742.0	11.27	20.87
26/01/2020 14:42:24	26012020	260120	144223	100.780	12.312252	-56.727083	100.760	-0.410	-0.150	0.690	100.770	-1.600	1.000																			1580049743.0	11.15	20.65
26/01/2020 14:42:25	26012020	260120	144224	100.750	12.312240	-56.727033	100.770	-0.550	0.010	0.690	100.750	-1.400	1.100																			1580049744.0	11.11	20.58
26/01/2020 14:42:26	26012020	260120	144225	100.780	12.312228	-56.726980	100.880	-0.540	0.010	0.610	100.800	-1.400	1.000																			1580049745.0	11.33	20.98
26/01/2020 14:42:27	26012020	260120	144226	100.930	12.312218	-56.726927	101.130	-0.370	0.010	0.390	100.990	-1.400	0.900																			1580049746.0	11.44	21.19
26/01/2020 14:42:28	26012020	260120	144227	101.210	12.312207	-56.726875	101.400	-0.080	0.080	0.140	101.270	-1.300	0.600																			1580049747.0	11.34	21.00
26/01/2020 14:42:29	26012020	260120	144228	101.480	12.312198	-56.726823	101.700	0.180	0.180	-0.130	101.530	-1.200	0.400																			1580049748.0	11.18	20.71
26/01/2020 14:42:30	26012020	260120	144229	101.800	12.312188	-56.726772	102.100	0.270	0.220	-0.320	101.800	-1.200	0.100																			1580049749.0	11.03	20.43
26/01/2020 14:42:31	26012020	260120	144230	102.210	12.312180	-56.726720	102.460	0.280	0.090	-0.400	102.280	-1.200	0.000																			1580049750.0	10.90	20.19
26/01/2020 14:42:32	26012020	260120	144231	102.490	12.312172	-56.726670	102.650	0.360	-0.270	-0.230	102.540	-1.500	0.100																			1580049751.0	10.97	20.32
26/01/2020 14:42:33	26012020	260120	144232	102.650	12.312162	-56.726618	102.640	0.450	-0.750	0.190	102.650	-2.000	0.400																			1580049752.0	11.19	20.72
26/01/2020 14:42:34	26012020	260120	144233	102.600	12.312152	-56.726565	102.580	0.420	-1.010	0.620	102.590	-2.300	0.900																			1580049753.0	11.33	20.98
26/01/2020 14:42:35	26012020	260120	144234	102.530	12.312140	-56.726513	102.520	0.180	-0.880	0.830	102.510	-2.300	1.200																			1580049754.0	11.17	20.69
26/01/2020 14:42:36	26012020	260120	144235	102.460	12.312128	-56.726463	102.450	-0.130	-0.590	0.870	102.440	-2.100	1.200																			1580049755.0	10.89	20.17
26/01/2020 14:42:37	26012020	260120	144236	102.370	12.312117	-56.726413	102.340	-0.290	-0.510	0.740	102.350	-1.900	1.200																			1580049756.0	10.96	20.30
26/01/2020 14:42:38	26012020	260120	144237	102.260	12.312107	-56.726360	102.250	-0.260	-0.500	0.380	102.230	-1.900	0.900																			1580049757.0	11.43	21.17
26/01/2020 14:42:39	26012020	260120	144238	102.190	12.312095	-56.726307	102.260	-0.280	-0.120	-0.010	102.190	-1.700	0.500																			1580049758.0	11.57	21.43
26/01/2020 14:42:40	26012020	260120	144239	102.230	12.312085	-56.726255	102.310	-0.460	0.510	-0.410	102.240	-1.100	0.100																			1580049759.0	11.04	20.45
26/01/2020 14:42:41	26012020	260120	144240	102.260	12.312073	-56.726207	102.200	-0.530	0.720	-0.800	102.240	-0.700	-0.300																			1580049760.0	10.63	19.69
26/01/2020 14:42:42	26012020	260120	144241	102.110	12.312063	-56.726155	101.900	-0.210	0.170	-1.030	102.050	-0.900	-0.600																			1580049761.0	11.03	20.43
26/01/2020 14:42:43	26012020	260120	144242	101.770	12.312053	-56.726100	101.480	0.340	-0.650	-0.990	101.680	-1.800	-0.700																			1580049762.0	11.76	21.78
26/01/2020 14:42:44	26012020	260120	144243	101.340	12.312042	-56.726045	101.050	0.610	-0.760	-0.750	101.260	-2.200	-0.500																			1580049763.0	11.88	22.00
26/01/2020 14:42:45	26012020	260120	144244	100.900	12.312032	-56.725995	100.540	0.310	-0.070	-0.370	100.810	-1.700	-0.100																			1580049764.0	10.89	20.17
26/01/2020 14:42:46	26012020	260120	144245	100.470	12.312020	-56.725950	99.780	-0.160	0.400	0.160	100.340	-1.100	0.300																			1580049765.0	9.96	18.45
26/01/2020 14:42:47	26012020	260120	144246	99.480	12.312008	-56.725902	98.730	-0.170	-0.090	0.740	99.290	-1.200	0.900																			1580049766.0	10.33	19.13
26/01/2020 14:42:48	26012020	260120	144247	98.380	12.311995	-56.725850	97.540	0.290	-1.020	1.090	98.160	-2.100	1.400																			1580049767.0	11.50	21.30
26/01/2020 14:42:49	26012020	260120	144248	97.180	12.311983	-56.725795	96.360	0.630	-1.310	1.190	96.940	-2.700	1.500																			1580049768.0	11.97	22.17
26/01/2020 14:42:50	26012020	260120	144249	96.050	12.311973	-56.725742	95.320	0.350	-0.500	1.280	95.830	-2.300	1.600																			1580049769.0	11.20	20.74
26/01/2020 14:42:51	26012020	260120	144250	95.030	12.311965	-56.725695	94.320	-0.330	0.660	1.470	94.830	-1.100	1.800																			1580049770.0	9.98	18.48
26/01/2020 14:42:52	26012020	260120	144251	94.030	12.311957	-56.725652	93.240	-0.750	0.970	1.650	93.810	-0.400	2.000																			1580049771.0	9.69	17.95
26/01/2020 14:42:53	26012020	260120	144252	92.900	12.311947	-56.725602	92.060	-0.540	0.190	1.690	92.660	-0.800	2.100																			1580049772.0	10.64	19.71
26/01/2020 14:42:54	26012020	260120	144253	91.700	12.311938	-56.725547	90.880	0.060	-0.810	1.750	91.460	-1.900	2.100																			1580049773.0	11.66	21.59
26/01/2020 14:42:55	26012020	260120	144254	90.520	12.311933	-56.725492	89.690	0.520	-1.040	1.870	90.290	-2.500	2.200																			1580049774.0	11.68	21.63
26/01/2020 14:42:56	26012020	260120	144255	89.310	12.311927	-56.725442	88.370	0.470	-0.350	2.010	89.050	-2.000	2.300																			1580049775.0	10.71	19.83
26/01/2020 14:42:57	26012020	260120	144256	87.940	12.311923	-56.725397	86.920	0.120	0.340	2.170	87.650	-1.200	2.500																			1580049776.0	9.74	18.04
26/01/2020 14:42:58	26012020	260120	144257	86.500	12.311920	-56.725350	85.590	-0.090	0.220	2.420	86.220	-1.000	2.700																			1580049777.0	9.89	18.32
26/01/2020 14:42:59	26012020	260120	144258	85.190	12.311918	-56.725298	84.390	0.010	-0.440	2.630	84.970	-1.600	2.900																			1580049778.0	10.80	20.00
26/01/2020 14:43:00	26012020	260120	144259	84.010	12.311915	-56.725245	83.120	0.180	-0.700	2.940	83.780	-2.100	3.200	1016.60	26.00	26.00	20.20	20.30	828.00	70.00	70.00	377.00	29.10	359.00	8.90	96.00	3.20	60606	3224.00	27.60	27.50	1580049779.0	11.26	20.85
26/01/2020 14:43:01	26012020	260120	144300	82.690	12.311913	-56.725195	81.740	0.200	-0.280	3.300	82.410	-1.800	3.600																			1580049780.0	10.72	19.85
26/01/2020 14:43:02	26012020	260120	144301	81.300	12.311913	-56.725147	80.460	0.130	0.120	3.450	81.040	-1.300	3.800																			1580049781.0	10.03	18.58
26/01/2020 14:43:03	26012020	260120	144302	80.090	12.311915	-56.725098	79.400	0.140	0.020	3.290	79.870	-1.300	3.800																			1580049782.0	10.15	18.80
26/01/2020 14:43:04	26012020	260120	144303	79.080	12.311920	-56.725050	78.450	0.110	-0.080	2.800	78.890	-1.400	3.400																			1580049783.0	10.56	19.56
26/01/2020 14:43:05	26012020	260120	144304	78.150	12.311927	-56.725002	77.520	-0.030	0.200	2.360	77.960	-1.300	2.900																			1580049784.0	10.29	19.06
26/01/2020 14:43:06	26012020	260120	144305	77.250	12.311935	-56.724957	76.690	-0.140	0.370	2.340	77.080	-1.000	2.700																			1580049785.0	9.69	17.95
26/01/2020 14:43:07	26012020	260120	144306	76.450	12.311940	-56.724910	75.910	-0.090	-0.130	2.520	76.300	-1.200	2.900																			1580049786.0	9.88	18.30
26/01/2020 14:43:08	26012020	260120	144307	75.810	12.311947	-56.724860	74.960	0.020	-0.840	2.570	75.630	-2.000	3.000																			1580049787.0	10.64	19.71
26/01/2020 14:43:09	26012020	260120	144308	74.620	12.311955	-56.724810	73.830	0.000	-0.930	2.780	74.390	-2.400	3.100																			1580049788.0	10.75	19.91
26/01/2020 14:43:10	26012020	260120	144309	73.680	12.311962	-56.724763	72.820	-0.110	-0.460	2.920	73.470	-2.000	3.300																			1580049789.0	10.06	18.63
26/01/2020 14:43:11	26012020	260120	144310	72.530	12.311970	-56.724718	72.110	-0.130	-0.210	2.530	72.390	-1.600	3.100																			1580049790.0	9.64	17.85
26/01/2020 14:43:12	26012020	260120	144311	71.880	12.311982	-56.724672	71.450	-0.000	-0.200	2.110	71.760	-1.600	2.600																			1580049791.0	10.04	18.59
26/01/2020 14:43:13	26012020	260120	144312	71.180	12.311993	-56.724625	70.560	0.090	-0.020	1.910	71.020	-1.500	2.400																			1580049792.0	10.28	19.04
26/01/2020 14:43:14	26012020	260120	144313	70.220	12.312003	-56.724578	69.520	0.060	0.210	1.830	70.010	-1.200	2.300																			1580049793.0	10.02	18.56
26/01/2020 14:43:15	26012020	260120	144314	69.180	12.312017	-56.724533	68.570	0.040	0.140	1.730	68.980	-1.200	2.200																			1580049794.0	9.91	18.35
26/01/2020 14:43:16	26012020	260120	144315	68.290	12.312030	-56.724488	67.770	0.090	-0.080	1.540	68.130	-1.400	2.000																			1580049795.0	10.15	18.80
26/01/2020 14:43:17	26012020	260120	144316	67.510	12.312047	-56.724442	66.980	0.090	-0.070	1.380	67.350	-1.500	1.800																			1580049796.0	10.14	18.78
26/01/2020 14:43:18	26012020	260120	144317	66.710	12.312063	-56.724398	66.130	-0.040	0.030	1.450	66.540	-1.300	1.800																			1580049797.0	9.77	18.09
26/01/2020 14:43:19	26012020	260120	144318	65.830	12.312077	-56.724355	65.180	-0.230	-0.100	1.790	65.640	-1.400	2.000																			1580049798.0	9.69	17.95
26/01/2020 14:43:20	26012020	260120	144319	64.850	12.312092	-56.724310	64.170	-0.320	-0.470	2.230	64.640	-1.700	2.500																			1580049799.0	10.01	18.54
26/01/2020 14:43:21	26012020	260120	144320	63.800	12.312105	-56.724263	63.050	-0.290	-0.760	2.610	63.570	-2.000	2.900																			1580049800.0	10.35	19.17
26/01/2020 14:43:22	26012020	260120	144321	62.860	12.312122	-56.724218	61.910	-0.180	-0.640	2.780	62.640	-2.100	3.200																			1580049801.0	10.30	19.08
26/01/2020 14:43:23	26012020	260120	144322	61.550	12.312137	-56.724173	60.960	-0.040	-0.340	2.630	61.350	-1.800	3.100																			1580049802.0	9.89	18.32
26/01/2020 14:43:24	26012020	260120	144323	60.800	12.312153	-56.724130	60.130	0.120	-0.190	2.320	60.620	-1.600	2.800																			1580049803.0	9.82	18.19
26/01/2020 14:43:25	26012020	260120	144324	59.830	12.312173	-56.724088	59.280	0.180	-0.070	1.930	59.670	-1.500	2.500																			1580049804.0	10.02	18.56
26/01/2020 14:43:26	26012020	260120	144325	58.930	12.312193	-56.724045	58.190	0.080	0.270	1.700	58.720	-1.200	2.100																			1580049805.0	9.93	18.39
26/01/2020 14:43:27	26012020	260120	144326	57.800	12.312215	-56.724005	57.020	-0.100	0.540	1.740	57.560	-0.900	2.100																			1580049806.0	9.55	17.69
26/01/2020 14:43:28	26012020	260120	144327	56.680	12.312237	-56.723967	56.070	-0.160	0.270	1.720	56.480	-0.900	2.100																			1580049807.0	9.57	17.72
26/01/2020 14:43:29	26012020	260120	144328	55.800	12.312260	-56.723925	55.210	-0.130	-0.200	1.670	55.640	-1.400	2.100																			1580049808.0	10.04	18.59
26/01/2020 14:43:30	26012020	260120	144329	54.910	12.312283	-56.723883	54.210	-0.160	-0.360	1.830	54.710	-1.700	2.100																			1580049809.0	10.08	18.67
26/01/2020 14:43:31	26012020	260120	144330	53.880	12.312307	-56.723845	53.170	-0.180	-0.430	2.210	53.660	-1.700	2.500																			1580049810.0	9.70	17.96
26/01/2020 14:43:32	26012020	260120	144331	52.860	12.312328	-56.723803	52.200	-0.010	-0.770	2.520	52.660	-2.000	2.800																			1580049811.0	9.81	18.17
26/01/2020 14:43:33	26012020	260120	144332	51.900	12.312352	-56.723762	51.220	0.250	-0.990	2.510	51.710	-2.300	2.900																			1580049812.0	10.29	19.06
26/01/2020 14:43:34	26012020	260120	144333	50.910	12.312377	-56.723720	50.140	0.310	-0.570	2.350	50.700	-2.100	2.800																			1580049813.0	10.19	18.87
26/01/2020 14:43:35	26012020	260120	144334	49.830	12.312402	-56.723683	49.020	0.070	0.280	2.210	49.610	-1.400	2.700																			1580049814.0	9.48	17.56
26/01/2020 14:43:36	26012020	260120	144335	48.740	12.312427	-56.723648	48.020	-0.280	0.850	1.980	48.740	-0.600	2.500																			1580049815.0	9.02	16.71
26/01/2020 14:43:37	26012020	260120	144336	47.800	12.312453	-56.723615	47.140	-0.500	0.670	1.710	47.640	-0.500	2.200																			1580049816.0	9.26	17.15
26/01/2020 14:43:38	26012020	260120	144337	46.940	12.312482	-56.723578	46.220	-0.460	-0.040	1.690	46.770	-1.100	2.100																			1580049817.0	9.92	18.37
26/01/2020 14:43:39	26012020	260120	144338	46.020	12.312512	-56.723538	45.270	-0.210	-0.670	1.900	45.820	-1.800	2.200																			1580049818.0	10.36	19.19
26/01/2020 14:43:40	26012020	260120	144339	45.040	12.312540	-56.723500	44.220	0.050	-0.760	2.260	44.830	-2.100	2.500																			1580049819.0	10.23	18.95
26/01/2020 14:43:41	26012020	260120	144340	43.950	12.312567	-56.723463	43.120	0.140	-0.430	2.480	43.720	-1.900	2.800																			1580049820.0	9.69	17.95
26/01/2020 14:43:42	26012020	260120	144341	42.860	12.312595	-56.723430	42.120	0.160	-0.190	2.290	42.650	-1.600	2.800																			1580049821.0	9.31	17.24
26/01/2020 14:43:43	26012020	260120	144342	41.900	12.312625	-56.723398	41.240	0.240	-0.140	1.990	41.710	-1.500	2.500																			1580049822.0	9.45	17.50
26/01/2020 14:43:44	26012020	260120	144343	41.020	12.312658	-56.723367	40.400	0.330	-0.140	1.850	40.850	-1.500	2.300																			1580049823.0	9.70	17.96
26/01/2020 14:43:45	26012020	260120	144344	40.160	12.312690	-56.723333	39.490	0.220	-0.040	1.880	39.960	-1.400	2.200																			1580049824.0	9.77	18.09
26/01/2020 14:43:46	26012020	260120	144345	39.190	12.312722	-56.723302	38.550	-0.170	0.170	2.070	39.000	-1.200	2.400																			1580049825.0	9.59	17.76
26/01/2020 14:43:47	26012020	260120	144346	38.240	12.312752	-56.723270	37.610	-0.560	0.290	2.410	38.050	-1.100	2.700																			1580049826.0	9.37	17.35
26/01/2020 14:43:48	26012020	260120	144347	37.260	12.312782	-56.723238	36.600	-0.630	0.130	2.680	37.050	-1.100	3.000																			1580049827.0	9.41	17.43
26/01/2020 14:43:49	26012020	260120	144348	36.210	12.312813	-56.723205	35.640	-0.260	-0.450	2.600	36.020	-1.500	3.100																			1580049828.0	9.71	17.98
26/01/2020 14:43:50	26012020	260120	144349	35.250	12.312850	-56.723173	34.630	0.280	-1.070	2.280	35.070	-2.200	2.800																			1580049829.0	10.17	18.83
26/01/2020 14:43:51	26012020	260120	144350	34.220	12.312887	-56.723143	33.460	0.560	-1.020	2.060	33.990	-2.500	2.500																			1580049830.0	10.24	18.96
26/01/2020 14:43:52	26012020	260120	144351	33.050	12.312923	-56.723117	32.310	0.420	-0.290	1.920	32.820	-1.900	2.400																			1580049831.0	9.57	17.72
26/01/2020 14:43:53	26012020	260120	144352	31.950	12.312957	-56.723093	31.360	0.100	0.420	1.770	31.750	-1.100	2.200																			1580049832.0	8.93	16.54
26/01/2020 14:43:54	26012020	260120	144353	31.070	12.312992	-56.723068	30.660	-0.080	0.550	1.640	30.930	-0.800	2.100																			1580049833.0	9.02	16.71
26/01/2020 14:43:55	26012020	260120	144354	30.430	12.313027	-56.723042	30.010	-0.140	0.270	1.620	30.310	-0.900	2.000																			1580049834.0	9.62	17.82
26/01/2020 14:43:56	26012020	260120	144355	29.750	12.313063	-56.723013	29.110	-0.280	0.110	1.870	29.580	-1.200	2.100																			1580049835.0	9.90	18.33
26/01/2020 14:43:57	26012020	260120	144356	28.750	12.313098	-56.722985	27.900	-0.480	0.150	2.310	28.500	-1.200	2.500																			1580049836.0	9.55	17.69
26/01/2020 14:43:58	26012020	260120	144357	27.750	12.313133	-56.722960	26.620	-0.420	-0.150	2.560	27.480	-1.300	2.900																			1580049837.0	9.25	17.13
26/01/2020 14:43:59	26012020	260120	144358	26.260	12.313172	-56.722935	25.510	0.070	-0.870	2.430	26.040	-1.900	2.900																			1580049838.0	9.67	17.91
26/01/2020 14:44:00	26012020	260120	144359	25.380	12.313213	-56.722912	24.470	0.670	-1.310	2.180	25.190	-2.500	2.700	1016.60	25.90	26.00	20.20	20.30	876.00	70.00	70.00	377.00	29.10	11.00	7.80	85.00	3.00	61896	4926.00	27.60	27.50	1580049839.0	10.19	18.87
26/01/2020 14:44:01	26012020	260120	144400	24.130	12.313255	-56.722890	23.440	0.830	-0.980	1.920	23.940	-2.500	2.400																			1580049840.0	10.00	18.52
26/01/2020 14:44:02	26012020	260120	144401	23.090	12.313293	-56.722870	22.410	0.390	-0.040	1.820	22.900	-1.700	2.200																			1580049841.0	9.28	17.19
26/01/2020 14:44:03	26012020	260120	144402	22.120	12.313330	-56.722852	21.590	-0.300	0.800	1.830	21.960	-0.800	2.200																			1580049842.0	8.70	16.11
26/01/2020 14:44:04	26012020	260120	144403	21.350	12.313365	-56.722833	20.840	-0.710	1.020	1.920	21.200	-0.300	2.300																			1580049843.0	8.80	16.30
26/01/2020 14:44:05	26012020	260120	144404	20.620	12.313403	-56.722812	20.050	-0.650	0.630	2.080	20.460	-0.500	2.400																			1580049844.0	9.35	17.32
26/01/2020 14:44:06	26012020	260120	144405	19.780	12.313443	-56.722790	19.050	-0.300	-0.070	2.260	19.590	-1.100	2.600																			1580049845.0	9.84	18.22
26/01/2020 14:44:07	26012020	260120	144406	18.720	12.313485	-56.722768	17.840	0.050	-0.700	2.380	18.480	-1.800	2.700																			1580049846.0	10.01	18.54
26/01/2020 14:44:08	26012020	260120	144407	17.470	12.313528	-56.722750	16.590	0.280	-1.080	2.330	17.220	-2.300	2.800																			1580049847.0	9.84	18.22
26/01/2020 14:44:09	26012020	260120	144408	16.260	12.313570	-56.722733	15.480	0.500	-1.120	2.140	16.030	-2.500	2.600																			1580049848.0	9.65	17.87
26/01/2020 14:44:10	26012020	260120	144409	15.180	12.313612	-56.722720	14.520	0.650	-0.750	1.930	14.990	-2.300	2.400																			1580049849.0	9.50	17.59
26/01/2020 14:44:11	26012020	260120	144410	14.270	12.313653	-56.722707	13.660	0.480	0.010	1.710	14.090	-1.600	2.200																			1580049850.0	9.24	17.11
26/01/2020 14:44:12	26012020	260120	144411	13.580	12.313692	-56.722693	12.840	-0.060	0.790	1.590	13.430	-0.800	2.000																			1580049851.0	8.85	16.39
26/01/2020 14:44:13	26012020	260120	144412	12.620	12.313730	-56.722682	11.990	-0.610	1.010	1.780	12.450	-0.300	2.100																			1580049852.0	8.77	16.24
26/01/2020 14:44:14	26012020	260120	144413	11.740	12.313772	-56.722667	11.060	-0.730	0.440	2.050	11.740	-0.600	2.400																			1580049853.0	9.27	17.17
26/01/2020 14:44:15	26012020	260120	144414	10.790	12.313815	-56.722653	10.050	-0.290	-0.510	2.270	10.610	-1.500	2.600																			1580049854.0	9.99	18.50
26/01/2020 14:44:16	26012020	260120	144415	9.760	12.313862	-56.722638	8.960	0.360	-1.060	2.550	9.540	-2.200	2.800																			1580049855.0	10.30	19.08
26/01/2020 14:44:17	26012020	260120	144416	8.640	12.313905	-56.722623	7.850	0.650	-0.910	2.550	8.420	-2.300	3.000																			1580049856.0	9.90	18.33
26/01/2020 14:44:18	26012020	260120	144417	7.540	12.313947	-56.722612	6.760	0.320	-0.310	2.220	7.320	-1.900	2.700																			1580049857.0	9.18	17.00
26/01/2020 14:44:19	26012020	260120	144418	6.470	12.313987	-56.722607	5.730	-0.290	0.310	1.830	6.250	-1.200	2.400																			1580049858.0	8.71	16.13
26/01/2020 14:44:20	26012020	260120	144419	5.470	12.314027	-56.722602	4.830	-0.600	0.460	1.520	5.280	-0.800	2.000																			1580049859.0	8.75	16.21
26/01/2020 14:44:21	26012020	260120	144420	4.600	12.314070	-56.722597	4.000	-0.360	0.130	1.530	4.440	-1.000	1.900																			1580049860.0	9.27	17.17
26/01/2020 14:44:22	26012020	260120	144421	3.810	12.314115	-56.722590	3.260	0.170	-0.420	1.710	3.650	-1.500	2.000																			1580049861.0	9.77	18.09
26/01/2020 14:44:23	26012020	260120	144422	3.100	12.314160	-56.722582	2.620	0.560	-0.820	1.960	2.970	-2.000	2.200																			1580049862.0	10.01	18.54
26/01/2020 14:44:24	26012020	260120	144423	2.580	12.314207	-56.722573	1.910	0.540	-0.650	2.350	2.460	-2.100	2.600																			1580049863.0	9.89	18.32
26/01/2020 14:44:25	26012020	260120	144424	1.690	12.314248	-56.722567	1.020	0.130	0.040	2.670	1.520	-1.600	2.900																			1580049864.0	9.31	17.24
26/01/2020 14:44:26	26012020	260120	144425	0.940	12.314288	-56.722560	0.000	-0.360	0.700	2.730	0.740	-0.800	3.100																			1580049865.0	8.73	16.17
26/01/2020 14:44:27	26012020	260120	144426	359.740	12.314328	-56.722557	359.050	-0.540	0.720	2.500	359.550	-0.500	3.000																			1580049866.0	8.71	16.13
26/01/2020 14:44:28	26012020	260120	144427	358.840	12.314372	-56.722555	358.310	-0.200	-0.070	2.080	358.700	-1.000	2.600																			1580049867.0	9.32	17.26
26/01/2020 14:44:29	26012020	260120	144428	358.180	12.314420	-56.722555	357.780	0.380	-1.050	1.640	358.080	-2.000	2.200																			1580049868.0	10.12	18.74
26/01/2020 14:44:30	26012020	260120	144429	357.700	12.314467	-56.722555	357.250	0.670	-1.320	1.440	357.590	-2.600	1.900																			1580049869.0	10.32	19.11
26/01/2020 14:44:31	26012020	260120	144430	357.160	12.314512	-56.722555	356.680	0.390	-0.630	1.570	357.040	-2.300	1.900																			1580049870.0	9.60	17.78
26/01/2020 14:44:32	26012020	260120	144431	356.600	12.314552	-56.722553	356.200	-0.260	0.390	1.780	356.500	-1.300	2.100																			1580049871.0	8.65	16.02
26/01/2020 14:44:33	26012020	260120	144432	356.160	12.314592	-56.722555	355.820	-0.730	0.960	1.940	356.090	-0.500	2.300																			1580049872.0	8.40	15.56
26/01/2020 14:44:34	26012020	260120	144433	355.780	12.314632	-56.722555	355.390	-0.680	0.790	2.190	355.700	-0.400	2.500																			1580049873.0	8.86	16.41
26/01/2020 14:44:35	26012020	260120	144434	355.320	12.314677	-56.722553	354.870	-0.230	-0.030	2.330	355.220	-1.000	2.700																			1580049874.0	9.60	17.78
26/01/2020 14:44:36	26012020	260120	144435	354.790	12.314725	-56.722553	354.360	0.290	-1.010	2.220	354.690	-2.000	2.700																			1580049875.0	10.15	18.80
26/01/2020 14:44:37	26012020	260120	144436	354.330	12.314772	-56.722557	354.030	0.630	-1.560	1.950	354.260	-2.800	2.400																			1580049876.0	10.32	19.11
26/01/2020 14:44:38	26012020	260120	144437	354.050	12.314818	-56.722560	353.780	0.620	-1.120	1.720	354.000	-2.700	2.200																			1580049877.0	9.93	18.39
26/01/2020 14:44:39	26012020	260120	144438	353.800	12.314860	-56.722565	353.480	0.250	0.080	1.600	353.740	-1.700	2.000																			1580049878.0	9.01	16.69
26/01/2020 14:44:40	26012020	260120	144439	353.490	12.314898	-56.722568	353.180	-0.250	1.080	1.530	353.430	-0.500	2.000																			1580049879.0	8.31	15.39
26/01/2020 14:44:41	26012020	260120	144440	353.220	12.314938	-56.722572	353.000	-0.500	1.030	1.330	353.190	-0.100	1.800																			1580049880.0	8.60	15.93
26/01/2020 14:44:42	26012020	260120	144441	353.080	12.314983	-56.722577	352.800	-0.340	0.170	1.180	353.040	-0.800	1.600																			1580049881.0	9.64	17.85
26/01/2020 14:44:43	26012020	260120	144442	352.800	12.315030	-56.722582	352.360	-0.020	-0.680	1.240	352.720	-1.700	1.600																			1580049882.0	10.34	19.15
26/01/2020 14:44:44	26012020	260120	144443	352.330	12.315078	-56.722585	351.920	0.180	-1.040	1.350	352.230	-2.300	1.700																			1580049883.0	10.19	18.87
26/01/2020 14:44:45	26012020	260120	144444	351.930	12.315123	-56.722590	351.630	0.140	-0.850	1.390	351.860	-2.300	1.800																			1580049884.0	9.71	17.98
26/01/2020 14:44:46	26012020	260120	144445	351.660	12.315165	-56.722595	351.390	-0.020	-0.310	1.350	351.610	-1.800	1.800																			1580049885.0	9.25	17.13
26/01/2020 14:44:47	26012020	260120	144446	351.400	12.315207	-56.722602	351.060	-0.140	0.200	1.260	351.340	-1.300	1.700																			1580049886.0	9.01	16.69
26/01/2020 14:44:48	26012020	260120	144447	351.130	12.315248	-56.722608	350.660	-0.140	0.360	1.290	351.050	-0.900	1.700																			1580049887.0	9.12	16.89
26/01/2020 14:44:49	26012020	260120	144448	350.620	12.315293	-56.722613	350.270	-0.040	0.050	1.360	350.530	-1.100	1.700																			1580049888.0	9.54	17.67
26/01/2020 14:44:50	26012020	260120	144449	350.310	12.315338	-56.722620	350.060	0.090	-0.530	1.280	350.250	-1.600	1.700																			1580049889.0	10.03	18.58
26/01/2020 14:44:51	26012020	260120	144450	350.100	12.315387	-56.722628	350.040	0.130	-0.800	1.070	350.100	-2.100	1.500																			1580049890.0	10.26	19.00
26/01/2020 14:44:52	26012020	260120	144451	350.090	12.315432	-56.722635	350.000	0.070	-0.370	1.070	350.090	-1.900	1.400																			1580049891.0	9.89	18.32
26/01/2020 14:44:53	26012020	260120	144452	350.000	12.315473	-56.722642	349.790	-0.030	0.300	1.340	349.960	-1.200	1.600																			1580049892.0	9.18	17.00
26/01/2020 14:44:54	26012020	260120	144453	349.720	12.315515	-56.722647	349.410	-0.030	0.410	1.590	349.650	-0.800	1.900																			1580049893.0	9.08	16.82
26/01/2020 14:44:55	26012020	260120	144454	349.300	12.315560	-56.722653	348.910	0.110	-0.120	1.620	349.200	-1.200	2.000																			1580049894.0	9.80	18.15
26/01/2020 14:44:56	26012020	260120	144455	348.790	12.315608	-56.722662	348.470	0.250	-0.600	1.450	348.690	-1.800	1.900																			1580049895.0	10.37	19.21
26/01/2020 14:44:57	26012020	260120	144456	348.410	12.315655	-56.722673	348.350	0.220	-0.580	1.080	348.380	-1.900	1.600																			1580049896.0	10.18	18.85
26/01/2020 14:44:58	26012020	260120	144457	348.380	12.315698	-56.722683	348.550	0.020	-0.190	0.730	348.420	-1.700	1.200																			1580049897.0	9.61	17.80
26/01/2020 14:44:59	26012020	260120	144458	348.620	12.315740	-56.722695	348.770	-0.310	0.220	0.600	348.660	-1.200	1.000																			1580049898.0	9.27	17.17
26/01/2020 14:45:00	26012020	260120	144459	348.800	12.315782	-56.722703	348.870	-0.580	0.340	0.700	348.820	-0.900	1.000	1016.60	26.00	26.00	20.40	20.40	879.00	71.00	71.00	377.00	29.10	30.00	6.40	80.00	3.30	62431	2498.00	27.60	27.60	1580049899.0	9.27	17.17
26/01/2020 14:45:01	26012020	260120	144500	348.880	12.315825	-56.722712	348.940	-0.560	-0.020	0.950	348.890	-1.100	1.200																			1580049900.0	9.56	17.71
26/01/2020 14:45:02	26012020	260120	144501	348.930	12.315872	-56.722720	349.030	-0.170	-0.700	1.130	348.940	-1.700	1.500																			1580049901.0	10.10	18.71
26/01/2020 14:45:03	26012020	260120	144502	349.030	12.315920	-56.722728	349.100	0.410	-1.230	1.120	349.040	-2.400	1.500																			1580049902.0	10.50	19.45
26/01/2020 14:45:04	26012020	260120	144503	349.090	12.315968	-56.722738	349.140	0.830	-1.140	1.030	349.100	-2.500	1.500																			1580049903.0	10.45	19.35
26/01/2020 14:45:05	26012020	260120	144504	349.120	12.316013	-56.722748	349.130	0.850	-0.490	0.890	349.120	-2.100	1.400																			1580049904.0	10.01	18.54
26/01/2020 14:45:06	26012020	260120	144505	349.110	12.316057	-56.722758	349.100	0.450	0.400	0.700	349.110	-1.200	1.200																			1580049905.0	9.58	17.74
26/01/2020 14:45:07	26012020	260120	144506	349.100	12.316098	-56.722768	349.120	-0.200	1.090	0.430	349.100	-0.400	1.000																			1580049906.0	9.34	17.30
26/01/2020 14:45:08	26012020	260120	144507	349.140	12.316142	-56.722780	349.240	-0.820	1.160	0.100	349.160	-0.100	0.600																			1580049907.0	9.38	17.37
26/01/2020 14:45:09	26012020	260120	144508	349.300	12.316185	-56.722792	349.410	-1.130	0.560	-0.130	349.330	-0.500	0.400																			1580049908.0	9.82	18.19
26/01/2020 14:45:10	26012020	260120	144509	349.440	12.316232	-56.722803	349.490	-0.970	-0.360	-0.160	349.460	-1.300	0.300																			1580049909.0	10.27	19.02
26/01/2020 14:45:11	26012020	260120	144510	349.500	12.316280	-56.722813	349.590	-0.340	-1.260	0.010	349.530	-2.300	0.300																			1580049910.0	10.50	19.45
26/01/2020 14:45:12	26012020	260120	144511	349.620	12.316328	-56.722823	349.760	0.500	-1.710	0.310	349.650	-2.900	0.600																			1580049911.0	10.58	19.59
26/01/2020 14:45:13	26012020	260120	144512	349.800	12.316375	-56.722832	349.930	1.060	-1.420	0.530	349.850	-2.900	0.900																			1580049912.0	10.38	19.22
26/01/2020 14:45:14	26012020	260120	144513	349.940	12.316420	-56.722840	350.010	1.000	-0.470	0.530	349.960	-2.200	1.000																			1580049913.0	9.89	18.32
26/01/2020 14:45:15	26012020	260120	144514	350.030	12.316463	-56.722848	350.040	0.400	0.570	0.270	350.040	-1.100	0.800																			1580049914.0	9.38	17.37
26/01/2020 14:45:16	26012020	260120	144515	350.050	12.316505	-56.722860	350.030	-0.270	1.050	-0.110	350.050	-0.300	0.500																			1580049915.0	9.35	17.32
26/01/2020 14:45:17	26012020	260120	144516	350.040	12.316550	-56.722870	349.960	-0.580	0.760	-0.440	350.030	-0.300	0.100																			1580049916.0	9.84	18.22
26/01/2020 14:45:18	26012020	260120	144517	349.970	12.316597	-56.722882	349.870	-0.400	-0.080	-0.550	349.960	-1.000	-0.100																			1580049917.0	10.49	19.43
26/01/2020 14:45:19	26012020	260120	144518	349.900	12.316647	-56.722892	349.820	0.000	-0.860	-0.490	349.880	-1.900	-0.100																			1580049918.0	10.94	20.26
26/01/2020 14:45:20	26012020	260120	144519	349.810	12.316697	-56.722902	349.630	0.150	-0.940	-0.380	349.770	-2.300	-0.000																			1580049919.0	10.81	20.02
26/01/2020 14:45:21	26012020	260120	144520	349.590	12.316743	-56.722910	349.340	-0.100	-0.380	-0.310	349.530	-1.900	0.100																			1580049920.0	10.08	18.67
26/01/2020 14:45:22	26012020	260120	144521	349.270	12.316787	-56.722920	349.010	-0.440	0.220	-0.240	349.200	-1.300	0.100																			1580049921.0	9.47	17.54
26/01/2020 14:45:23	26012020	260120	144522	348.930	12.316830	-56.722930	348.690	-0.480	0.280	-0.110	348.860	-1.000	0.200																			1580049922.0	9.56	17.71
26/01/2020 14:45:24	26012020	260120	144523	348.590	12.316875	-56.722942	348.350	-0.090	-0.200	0.100	348.530	-1.300	0.400																			1580049923.0	10.24	18.96
26/01/2020 14:45:25	26012020	260120	144524	348.240	12.316925	-56.722952	348.000	0.450	-0.730	0.350	348.160	-1.900	0.700																			1580049924.0	10.79	19.98
26/01/2020 14:45:26	26012020	260120	144525	347.890	12.316975	-56.722962	347.710	0.800	-0.910	0.570	347.830	-2.200	0.900																			1580049925.0	10.84	20.08
26/01/2020 14:45:27	26012020	260120	144526	347.640	12.317022	-56.722970	347.530	0.750	-0.550	0.740	347.600	-2.000	1.100																			1580049926.0	10.51	19.46
26/01/2020 14:45:28	26012020	260120	144527	347.460	12.317068	-56.722978	347.330	0.320	0.160	0.830	347.420	-1.400	1.200																			1580049927.0	10.00	18.52
26/01/2020 14:45:29	26012020	260120	144528	347.240	12.317112	-56.722987	347.070	-0.240	0.700	0.790	347.190	-0.700	1.200																			1580049928.0	9.64	17.85
26/01/2020 14:45:30	26012020	260120	144529	346.970	12.317157	-56.722997	346.720	-0.620	0.690	0.570	346.910	-0.500	1.100																			1580049929.0	9.78	18.11
26/01/2020 14:45:31	26012020	260120	144530	346.610	12.317203	-56.723010	346.290	-0.600	0.090	0.330	346.530	-0.900	0.800																			1580049930.0	10.30	19.08
26/01/2020 14:45:32	26012020	260120	144531	346.170	12.317252	-56.723023	345.780	-0.190	-0.690	0.310	346.070	-1.700	0.700																			1580049931.0	10.81	20.02
26/01/2020 14:45:33	26012020	260120	144532	345.670	12.317300	-56.723037	345.330	0.310	-1.300	0.380	345.580	-2.400	0.800																			1580049932.0	11.03	20.43
26/01/2020 14:45:34	26012020	260120	144533	345.260	12.317350	-56.723050	344.970	0.580	-1.310	0.440	345.190	-2.700	0.800																			1580049933.0	10.94	20.26
26/01/2020 14:45:35	26012020	260120	144534	344.910	12.317397	-56.723062	344.600	0.440	-0.540	0.600	344.840	-2.200	0.900																			1580049934.0	10.45	19.35
26/01/2020 14:45:36	26012020	260120	144535	344.550	12.317440	-56.723073	344.280	0.050	0.450	0.790	344.480	-1.200	1.100																			1580049935.0	9.70	17.96
26/01/2020 14:45:37	26012020	260120	144536	344.240	12.317483	-56.723085	344.000	-0.240	0.890	1.020	344.190	-0.500	1.300																			1580049936.0	9.58	17.74
26/01/2020 14:45:38	26012020	260120	144537	343.970	12.317530	-56.723097	343.680	-0.270	0.630	1.250	343.970	-0.500	1.600																			1580049937.0	10.14	18.78
26/01/2020 14:45:39	26012020	260120	144538	343.610	12.317578	-56.723108	343.240	-0.160	-0.020	1.300	343.520	-1.100	1.700																			1580049938.0	10.76	19.93
26/01/2020 14:45:40	26012020	260120	144539	343.240	12.317628	-56.723122	342.780	-0.010	-0.670	1.100	343.160	-1.700	1.600																			1580049939.0	10.98	20.33
26/01/2020 14:45:41	26012020	260120	144540	342.710	12.317677	-56.723137	342.320	0.120	-1.020	0.810	342.630	-2.200	1.300																			1580049940.0	10.92	20.22
26/01/2020 14:45:42	26012020	260120	144541	342.250	12.317723	-56.723153	341.820	0.190	-0.820	0.660	342.160	-2.200	1.100																			1580049941.0	10.70	19.82
26/01/2020 14:45:43	26012020	260120	144542	341.760	12.317768	-56.723170	341.330	0.220	-0.230	0.720	341.670	-1.800	1.100																			1580049942.0	10.23	18.95
26/01/2020 14:45:44	26012020	260120	144543	341.280	12.317812	-56.723183	340.830	0.260	0.280	1.010	341.180	-1.200	1.300																			1580049943.0	9.95	18.43
26/01/2020 14:45:45	26012020	260120	144544	340.760	12.317858	-56.723195	340.230	0.250	0.340	1.210	340.640	-0.900	1.600																			1580049944.0	10.12	18.74
26/01/2020 14:45:46	26012020	260120	144545	340.160	12.317905	-56.723210	339.560	0.130	-0.000	1.100	340.030	-1.100	1.500																			1580049945.0	10.57	19.58
26/01/2020 14:45:47	26012020	260120	144546	339.490	12.317953	-56.723225	338.850	-0.060	-0.400	0.930	339.340	-1.600	1.400																			1580049946.0	10.85	20.09
26/01/2020 14:45:48	26012020	260120	144547	338.820	12.318000	-56.723243	338.260	-0.250	-0.630	0.720	338.690	-1.900	1.200																			1580049947.0	10.82	20.04
26/01/2020 14:45:49	26012020	260120	144548	338.280	12.318047	-56.723262	337.800	-0.350	-0.620	0.520	338.190	-1.900	1.000																			1580049948.0	10.64	19.71
26/01/2020 14:45:50	26012020	260120	144549	337.840	12.318090	-56.723282	337.360	-0.260	-0.380	0.610	337.740	-1.800	0.900																			1580049949.0	10.48	19.41
26/01/2020 14:45:51	26012020	260120	144550	337.390	12.318135	-56.723300	336.880	-0.040	-0.100	1.000	337.290	-1.500	1.200																			1580049950.0	10.35	19.17
26/01/2020 14:45:52	26012020	260120	144551	337.000	12.318182	-56.723315	336.340	0.180	0.050	1.520	336.900	-1.300	1.700																			1580049951.0	10.46	19.37
26/01/2020 14:45:53	26012020	260120	144552	336.350	12.318228	-56.723330	335.830	0.260	0.030	1.900	336.250	-1.200	2.200																			1580049952.0	10.64	19.71
26/01/2020 14:45:54	26012020	260120	144553	335.940	12.318277	-56.723347	335.290	0.180	-0.020	1.990	335.830	-1.300	2.400																			1580049953.0	10.77	19.95
26/01/2020 14:45:55	26012020	260120	144554	335.260	12.318322	-56.723365	334.700	-0.010	-0.010	1.850	335.140	-1.300	2.300																			1580049954.0	10.67	19.76
26/01/2020 14:45:56	26012020	260120	144555	334.670	12.318367	-56.723385	334.140	-0.160	-0.080	1.550	334.560	-1.300	2.100																			1580049955.0	10.52	19.48
26/01/2020 14:45:57	26012020	260120	144556	334.090	12.318412	-56.723408	333.500	-0.140	-0.240	1.340	333.960	-1.500	1.800																			1580049956.0	10.57	19.58
26/01/2020 14:45:58	26012020	260120	144557	333.430	12.318457	-56.723430	332.840	0.030	-0.420	1.330	333.290	-1.600	1.700																			1580049957.0	10.66	19.74
26/01/2020 14:45:59	26012020	260120	144558	332.780	12.318502	-56.723452	332.360	0.210	-0.570	1.280	332.680	-1.800	1.700																			1580049958.0	10.70	19.82
26/01/2020 14:46:00	26012020	260120	144559	332.360	12.318545	-56.723473	332.110	0.280	-0.600	1.180	332.300	-1.900	1.600	1016.60	26.00	26.00	20.30	20.30	860.00	70.00	71.00	377.00	29.20	36.00	6.10	80.00	3.60	61900	2979.00	27.60	27.60	1580049959.0	10.69	19.80
26/01/2020 14:46:01	26012020	260120	144600	332.140	12.318590	-56.723495	331.910	0.200	-0.410	1.160	332.100	-1.800	1.500																			1580049960.0	10.62	19.67
26/01/2020 14:46:02	26012020	260120	144601	331.890	12.318635	-56.723517	331.560	0.030	-0.110	1.330	331.820	-1.500	1.600																			1580049961.0	10.47	19.39
26/01/2020 14:46:03	26012020	260120	144602	331.470	12.318678	-56.723537	331.080	-0.110	0.040	1.560	331.370	-1.300	1.900																			1580049962.0	10.45	19.35
26/01/2020 14:46:04	26012020	260120	144603	331.050	12.318723	-56.723558	330.530	-0.150	-0.030	1.690	330.950	-1.300	2.000																			1580049963.0	10.69	19.80
26/01/2020 14:46:05	26012020	260120	144604	330.380	12.318768	-56.723582	329.920	-0.150	-0.150	1.610	330.250	-1.400	2.000																			1580049964.0	10.93	20.24
26/01/2020 14:46:06	26012020	260120	144605	329.870	12.318813	-56.723607	329.320	-0.200	-0.130	1.370	329.740	-1.400	1.900																			1580049965.0	10.88	20.15
26/01/2020 14:46:07	26012020	260120	144606	329.160	12.318855	-56.723632	328.820	-0.270	-0.070	1.190	329.060	-1.400	1.600																			1580049966.0	10.65	19.72
26/01/2020 14:46:08	26012020	260120	144607	328.670	12.318898	-56.723658	328.340	-0.280	-0.120	1.110	328.580	-1.400	1.500																			1580049967.0	10.58	19.59
26/01/2020 14:46:09	26012020	260120	144608	328.190	12.318942	-56.723683	327.860	-0.150	-0.350	1.190	328.090	-1.500	1.500																			1580049968.0	10.71	19.83
26/01/2020 14:46:10	26012020	260120	144609	327.700	12.318985	-56.723708	327.340	0.090	-0.600	1.370	327.590	-1.800	1.700																			1580049969.0	10.94	20.26
26/01/2020 14:46:11	26012020	260120	144610	327.140	12.319030	-56.723735	326.740	0.300	-0.570	1.610	327.020	-1.900	1.900																			1580049970.0	11.04	20.45
26/01/2020 14:46:12	26012020	260120	144611	326.520	12.319073	-56.723760	326.090	0.350	-0.110	1.840	326.380	-1.600	2.100																			1580049971.0	10.77	19.95
26/01/2020 14:46:13	26012020	260120	144612	325.870	12.319115	-56.723785	325.490	0.180	0.420	1.940	325.750	-1.000	2.300																			1580049972.0	10.26	19.00
26/01/2020 14:46:14	26012020	260120	144613	325.310	12.319155	-56.723808	325.010	-0.070	0.440	1.660	325.210	-0.800	2.200																			1580049973.0	10.14	18.78
26/01/2020 14:46:15	26012020	260120	144614	324.870	12.319197	-56.723835	324.630	-0.230	-0.210	1.150	324.800	-1.200	1.700																			1580049974.0	10.62	19.67
26/01/2020 14:46:16	26012020	260120	144615	324.540	12.319240	-56.723867	324.330	-0.160	-1.080	0.720	324.480	-2.100	1.200																			1580049975.0	11.28	20.89
26/01/2020 14:46:17	26012020	260120	144616	324.270	12.319283	-56.723898	324.040	0.040	-1.380	0.670	324.210	-2.600	1.000																			1580049976.0	11.57	21.43
26/01/2020 14:46:18	26012020	260120	144617	323.980	12.319327	-56.723928	323.690	0.130	-0.730	1.090	323.980	-2.300	1.300																			1580049977.0	11.08	20.52
26/01/2020 14:46:19	26012020	260120	144618	323.600	12.319367	-56.723953	323.230	-0.030	0.470	1.770	323.510	-1.300	1.900																			1580049978.0	10.23	18.95
26/01/2020 14:46:20	26012020	260120	144619	323.090	12.319405	-56.723977	322.700	-0.330	1.170	2.240	322.990	-0.300	2.500																			1580049979.0	9.75	18.06
26/01/2020 14:46:21	26012020	260120	144620	322.560	12.319445	-56.724003	322.170	-0.440	0.780	2.240	322.450	-0.200	2.700																			1580049980.0	10.23	18.95
26/01/2020 14:46:22	26012020	260120	144621	322.040	12.319487	-56.724035	321.710	-0.180	-0.320	1.990	321.950	-1.200	2.500																			1580049981.0	11.21	20.76
26/01/2020 14:46:23	26012020	260120	144622	321.630	12.319530	-56.724068	321.430	0.230	-1.250	1.660	321.570	-2.200	2.200																			1580049982.0	11.76	21.78
26/01/2020 14:46:24	26012020	260120	144623	321.420	12.319573	-56.724102	321.360	0.400	-1.410	1.330	321.410	-2.700	1.800																			1580049983.0	11.52	21.34
26/01/2020 14:46:25	26012020	260120	144624	321.400	12.319612	-56.724133	321.410	0.160	-0.750	1.170	321.410	-2.300	1.600																			1580049984.0	10.72	19.85
26/01/2020 14:46:26	26012020	260120	144625	321.450	12.319648	-56.724163	321.430	-0.240	0.170	1.310	321.450	-1.400	1.600																			1580049985.0	9.98	18.48
26/01/2020 14:46:27	26012020	260120	144626	321.460	12.319685	-56.724192	321.430	-0.450	0.700	1.590	321.450	-0.700	1.900																			1580049986.0	9.83	18.21
26/01/2020 14:46:28	26012020	260120	144627	321.450	12.319723	-56.724220	321.480	-0.350	0.480	1.680	321.450	-0.600	2.100																			1580049987.0	10.31	19.09
26/01/2020 14:46:29	26012020	260120	144628	321.540	12.319765	-56.724252	321.690	-0.030	-0.280	1.460	321.580	-1.300	2.000																			1580049988.0	11.08	20.52
26/01/2020 14:46:30	26012020	260120	144629	321.730	12.319805	-56.724287	321.950	0.260	-0.860	1.210	321.780	-2.000	1.700																			1580049989.0	11.53	21.35
26/01/2020 14:46:31	26012020	260120	144630	322.040	12.319847	-56.724320	322.150	0.360	-0.760	1.130	322.080	-2.200	1.500																			1580049990.0	11.28	20.89
26/01/2020 14:46:32	26012020	260120	144631	322.200	12.319885	-56.724352	322.210	0.240	-0.210	1.260	322.220	-1.700	1.600																			1580049991.0	10.61	19.65
26/01/2020 14:46:33	26012020	260120	144632	322.240	12.319923	-56.724380	322.230	-0.050	0.270	1.230	322.240	-1.200	1.700																			1580049992.0	10.21	18.91
26/01/2020 14:46:34	26012020	260120	144633	322.290	12.319962	-56.724410	322.370	-0.320	0.330	0.850	322.310	-0.900	1.400																			1580049993.0	10.32	19.11
26/01/2020 14:46:35	26012020	260120	144634	322.470	12.319998	-56.724443	322.630	-0.440	0.020	0.380	322.520	-1.100	1.000																			1580049994.0	10.70	19.82
26/01/2020 14:46:36	26012020	260120	144635	322.760	12.320037	-56.724478	322.990	-0.350	-0.420	0.050	322.840	-1.500	0.600																			1580049995.0	11.00	20.37
26/01/2020 14:46:37	26012020	260120	144636	323.170	12.320075	-56.724513	323.450	-0.090	-0.730	-0.030	323.270	-1.900	0.400																			1580049996.0	11.08	20.52
26/01/2020 14:46:38	26012020	260120	144637	323.660	12.320115	-56.724547	323.930	0.120	-0.690	0.100	323.760	-2.000	0.500																			1580049997.0	10.98	20.33
26/01/2020 14:46:39	26012020	260120	144638	324.120	12.320155	-56.724577	324.340	0.110	-0.340	0.200	324.210	-1.800	0.600																			1580049998.0	10.67	19.76
26/01/2020 14:46:40	26012020	260120	144639	324.500	12.320193	-56.724607	324.710	-0.030	0.010	0.260	324.580	-1.400	0.700																			1580049999.0	10.41	19.28
26/01/2020 14:46:41	26012020	260120	144640	324.900	12.320232	-56.724637	325.220	-0.060	-0.060	0.190	324.990	-1.300	0.600																			1580050000.0	10.50	19.45
26/01/2020 14:46:42	26012020	260120	144641	325.350	12.320272	-56.724668	325.910	0.150	-0.410	0.020	325.470	-1.600	0.500																			1580050001.0	11.02	20.41
26/01/2020 14:46:43	26012020	260120	144642	326.160	12.320315	-56.724700	326.510	0.350	-0.490	-0.050	326.300	-1.800	0.400																			1580050002.0	11.33	20.98
26/01/2020 14:46:44	26012020	260120	144643	326.720	12.320357	-56.724730	326.850	0.210	-0.070	0.020	326.790	-1.500	0.400																			1580050003.0	11.00	20.37
26/01/2020 14:46:45	26012020	260120	144644	326.980	12.320397	-56.724758	327.020	-0.220	0.400	0.040	327.000	-1.000	0.500																			1580050004.0	10.43	19.32
26/01/2020 14:46:46	26012020	260120	144645	327.130	12.320435	-56.724788	327.280	-0.550	0.400	-0.160	327.170	-0.800	0.400																			1580050005.0	10.37	19.21
26/01/2020 14:46:47	26012020	260120	144646	327.440	12.320473	-56.724820	327.800	-0.500	-0.070	-0.560	327.540	-1.200	0.000																			1580050006.0	10.85	20.09
26/01/2020 14:46:48	26012020	260120	144647	328.050	12.320515	-56.724855	328.630	-0.170	-0.610	-0.900	328.220	-1.700	-0.400																			1580050007.0	11.22	20.78
26/01/2020 14:46:49	26012020	260120	144648	328.920	12.320555	-56.724887	329.620	0.130	-0.890	-1.020	329.120	-2.100	-0.600																			1580050008.0	11.21	20.76
26/01/2020 14:46:50	26012020	260120	144649	329.940	12.320597	-56.724917	330.720	0.240	-0.860	-0.950	330.170	-2.200	-0.600																			1580050009.0	10.96	20.30
26/01/2020 14:46:51	26012020	260120	144650	331.040	12.320638	-56.724943	331.800	0.170	-0.540	-0.760	331.260	-2.000	-0.400																			1580050010.0	10.72	19.85
26/01/2020 14:46:52	26012020	260120	144651	332.090	12.320680	-56.724970	332.760	0.010	-0.050	-0.560	332.280	-1.500	-0.200																			1580050011.0	10.52	19.48
26/01/2020 14:46:53	26012020	260120	144652	333.010	12.320722	-56.724997	333.600	-0.120	0.420	-0.500	333.180	-1.000	-0.100																			1580050012.0	10.41	19.28
26/01/2020 14:46:54	26012020	260120	144653	333.670	12.320762	-56.725023	334.330	-0.130	0.590	-0.580	333.810	-0.700	-0.100																			1580050013.0	10.43	19.32
26/01/2020 14:46:55	26012020	260120	144654	334.510	12.320805	-56.725050	335.010	0.010	0.280	-0.840	334.650	-0.900	-0.300																			1580050014.0	10.69	19.80
26/01/2020 14:46:56	26012020	260120	144655	335.210	12.320848	-56.725078	335.640	0.230	-0.270	-1.270	335.210	-1.400	-0.700																			1580050015.0	11.07	20.50
26/01/2020 14:46:57	26012020	260120	144656	335.840	12.320893	-56.725105	336.170	0.330	-0.680	-1.680	335.950	-1.900	-1.100																			1580050016.0	11.24	20.82
26/01/2020 14:46:58	26012020	260120	144657	336.350	12.320937	-56.725132	336.590	0.240	-0.740	-2.010	336.430	-2.100	-1.500																			1580050017.0	11.01	20.39
26/01/2020 14:46:59	26012020	260120	144658	336.800	12.320980	-56.725157	337.100	0.030	-0.590	-2.280	336.900	-2.000	-1.800																			1580050018.0	10.66	19.74
26/01/2020 14:47:00	26012020	260120	144659	337.360	12.321022	-56.725182	337.730	-0.160	-0.390	-2.420	337.490	-1.800	-2.000	1016.60	26.00	25.90	20.20	20.20	801.00	70.00	70.00	376.00	29.20	34.00	4.60	91.00	3.10	59295	3197.00	27.60	27.60	1580050019.0	10.54	19.52
26/01/2020 14:47:01	26012020	260120	144700	338.010	12.321065	-56.725207	338.370	-0.280	-0.160	-2.320	338.140	-1.500	-2.000																			1580050020.0	10.56	19.56
26/01/2020 14:47:02	26012020	260120	144701	338.650	12.321108	-56.725230	339.000	-0.320	0.010	-2.050	338.780	-1.300	-1.700																			1580050021.0	10.53	19.50
26/01/2020 14:47:03	26012020	260120	144702	339.280	12.321153	-56.725252	339.650	-0.230	-0.000	-1.690	339.410	-1.300	-1.400																			1580050022.0	10.58	19.59
26/01/2020 14:47:04	26012020	260120	144703	339.930	12.321198	-56.725272	340.220	-0.070	-0.130	-1.310	340.060	-1.400	-1.000																			1580050023.0	10.81	20.02
26/01/2020 14:47:05	26012020	260120	144704	340.470	12.321247	-56.725292	340.600	0.010	-0.130	-1.020	340.560	-1.500	-0.700																			1580050024.0	10.89	20.17
26/01/2020 14:47:06	26012020	260120	144705	340.800	12.321292	-56.725312	340.820	0.010	-0.020	-0.860	340.850	-1.400	-0.500																			1580050025.0	10.69	19.80
26/01/2020 14:47:07	26012020	260120	144706	341.000	12.321337	-56.725332	341.030	0.040	-0.060	-0.850	341.050	-1.300	-0.400																			1580050026.0	10.56	19.56
26/01/2020 14:47:08	26012020	260120	144707	341.250	12.321382	-56.725352	341.330	0.200	-0.260	-0.950	341.310	-1.500	-0.500																			1580050027.0	10.76	19.93
26/01/2020 14:47:09	26012020	260120	144708	341.580	12.321428	-56.725373	341.680	0.400	-0.400	-0.930	341.640	-1.700	-0.500																			1580050028.0	10.91	20.21
26/01/2020 14:47:10	26012020	260120	144709	341.940	12.321475	-56.725393	342.090	0.500	-0.350	-0.740	342.010	-1.700	-0.400																			1580050029.0	10.75	19.91
26/01/2020 14:47:11	26012020	260120	144710	342.350	12.321520	-56.725410	342.590	0.450	-0.260	-0.530	342.450	-1.600	-0.200																			1580050030.0	10.50	19.45
26/01/2020 14:47:12	26012020	260120	144711	342.900	12.321567	-56.725427	343.240	0.300	-0.320	-0.520	343.030	-1.600	-0.100																			1580050031.0	10.46	19.37
26/01/2020 14:47:13	26012020	260120	144712	343.590	12.321613	-56.725443	344.020	0.050	-0.440	-0.760	343.750	-1.700	-0.200																			1580050032.0	10.70	19.82
26/01/2020 14:47:14	26012020	260120	144713	344.370	12.321660	-56.725463	344.810	-0.300	-0.370	-1.120	344.530	-1.800	-0.600																			1580050033.0	10.85	20.09
26/01/2020 14:47:15	26012020	260120	144714	345.130	12.321705	-56.725483	345.530	-0.650	-0.040	-1.410	345.280	-1.500	-0.900																			1580050034.0	10.68	19.78
26/01/2020 14:47:16	26012020	260120	144715	345.810	12.321750	-56.725503	346.150	-0.750	0.270	-1.510	345.940	-1.100	-1.100																			1580050035.0	10.45	19.35
26/01/2020 14:47:17	26012020	260120	144716	346.400	12.321795	-56.725523	346.670	-0.420	0.220	-1.340	346.510	-1.000	-1.000																			1580050036.0	10.48	19.41
26/01/2020 14:47:18	26012020	260120	144717	346.900	12.321842	-56.725542	347.200	0.240	-0.270	-1.020	346.990	-1.400	-0.700																			1580050037.0	10.78	19.96
26/01/2020 14:47:19	26012020	260120	144718	347.460	12.321892	-56.725557	347.870	0.940	-0.870	-0.760	347.590	-2.000	-0.400																			1580050038.0	11.23	20.80
26/01/2020 14:47:20	26012020	260120	144719	348.020	12.321943	-56.725568	348.520	1.220	-0.880	-0.510	348.150	-2.300	-0.200																			1580050039.0	11.35	21.02
26/01/2020 14:47:21	26012020	260120	144720	348.720	12.321992	-56.725580	348.900	0.770	-0.070	-0.460	348.800	-1.800	-0.000																			1580050040.0	10.66	19.74
26/01/2020 14:47:22	26012020	260120	144721	349.000	12.322035	-56.725592	349.110	-0.140	0.850	-0.770	349.040	-0.800	-0.200																			1580050041.0	9.70	17.96
26/01/2020 14:47:23	26012020	260120	144722	349.200	12.322077	-56.725605	349.480	-0.830	0.890	-1.360	349.260	-0.300	-0.700																			1580050042.0	9.61	17.80
26/01/2020 14:47:24	26012020	260120	144723	349.650	12.322123	-56.725623	350.160	-0.850	-0.030	-2.040	349.790	-0.900	-1.400																			1580050043.0	10.59	19.61
26/01/2020 14:47:25	26012020	260120	144724	350.410	12.322173	-56.725643	351.060	-0.340	-1.120	-2.490	350.590	-2.100	-1.900																			1580050044.0	11.51	21.32
26/01/2020 14:47:26	26012020	260120	144725	351.370	12.322225	-56.725660	352.070	0.250	-1.550	-2.460	351.580	-2.800	-2.100																			1580050045.0	11.55	21.39
26/01/2020 14:47:27	26012020	260120	144726	352.380	12.322273	-56.725672	352.990	0.500	-1.100	-2.080	352.570	-2.700	-1.800																			1580050046.0	10.88	20.15
26/01/2020 14:47:28	26012020	260120	144727	353.240	12.322320	-56.725680	353.620	0.360	-0.180	-1.510	353.370	-1.900	-1.300																			1580050047.0	10.16	18.82
26/01/2020 14:47:29	26012020	260120	144728	353.770	12.322365	-56.725687	353.950	0.050	0.630	-1.050	353.840	-0.900	-0.800																			1580050048.0	9.83	18.21
26/01/2020 14:47:30	26012020	260120	144729	354.070	12.322412	-56.725697	354.190	-0.120	0.840	-0.920	354.120	-0.500	-0.500																			1580050049.0	10.03	18.58
26/01/2020 14:47:31	26012020	260120	144730	354.330	12.322460	-56.725707	354.480	-0.030	0.440	-0.980	354.390	-0.700	-0.500																			1580050050.0	10.60	19.63
26/01/2020 14:47:32	26012020	260120	144731	354.600	12.322510	-56.725717	354.950	0.170	-0.190	-1.180	354.680	-1.300	-0.700																			1580050051.0	11.06	20.48
26/01/2020 14:47:33	26012020	260120	144732	355.210	12.322560	-56.725727	355.580	0.280	-0.660	-1.320	355.340	-1.900	-0.900																			1580050052.0	11.09	20.54
26/01/2020 14:47:34	26012020	260120	144733	355.750	12.322610	-56.725733	356.290	0.210	-0.780	-1.400	355.890	-2.100	-1.000																			1580050053.0	10.80	20.00
26/01/2020 14:47:35	26012020	260120	144734	356.600	12.322658	-56.725742	356.980	0.020	-0.580	-1.440	356.730	-2.000	-1.000																			1580050054.0	10.46	19.37
26/01/2020 14:47:36	26012020	260120	144735	357.280	12.322705	-56.725748	357.620	-0.160	-0.200	-1.380	357.420	-1.700	-1.000																			1580050055.0	10.24	18.96
26/01/2020 14:47:37	26012020	260120	144736	357.900	12.322752	-56.725757	358.200	-0.270	0.120	-1.220	358.020	-1.300	-0.900																			1580050056.0	10.14	18.78
26/01/2020 14:47:38	26012020	260120	144737	358.480	12.322800	-56.725762	358.810	-0.240	0.140	-1.090	358.600	-1.200	-0.700																			1580050057.0	10.22	18.93
26/01/2020 14:47:39	26012020	260120	144738	359.090	12.322848	-56.725768	359.430	-0.040	-0.160	-1.030	359.220	-1.400	-0.600																			1580050058.0	10.53	19.50
26/01/2020 14:47:40	26012020	260120	144739	359.700	12.322898	-56.725773	0.030	0.230	-0.590	-1.110	359.830	-1.800	-0.700																			1580050059.0	10.86	20.11
26/01/2020 14:47:41	26012020	260120	144740	0.310	12.322948	-56.725780	0.690	0.430	-0.800	-1.280	0.440	-2.100	-0.800																			1580050060.0	11.02	20.41
26/01/2020 14:47:42	26012020	260120	144741	0.970	12.323000	-56.725785	1.370	0.420	-0.540	-1.450	1.100	-2.000	-1.000																			1580050061.0	10.85	20.09
26/01/2020 14:47:43	26012020	260120	144742	1.650	12.323047	-56.725790	2.060	0.170	0.070	-1.530	1.790	-1.500	-1.100																			1580050062.0	10.42	19.30
26/01/2020 14:47:44	26012020	260120	144743	2.320	12.323093	-56.725793	2.700	-0.200	0.670	-1.420	2.320	-0.900	-1.100																			1580050063.0	10.03	18.58
26/01/2020 14:47:45	26012020	260120	144744	2.900	12.323140	-56.725797	3.200	-0.430	0.810	-1.170	3.000	-0.500	-0.900																			1580050064.0	9.91	18.35
26/01/2020 14:47:46	26012020	260120	144745	3.290	12.323188	-56.725797	3.650	-0.340	0.250	-0.920	3.380	-0.800	-0.600																			1580050065.0	10.25	18.98
26/01/2020 14:47:47	26012020	260120	144746	3.810	12.323238	-56.725797	4.150	-0.010	-0.700	-0.890	3.890	-1.700	-0.400																			1580050066.0	10.88	20.15
26/01/2020 14:47:48	26012020	260120	144747	4.350	12.323290	-56.725797	4.850	0.280	-1.390	-1.260	4.470	-2.500	-0.700																			1580050067.0	11.24	20.82
26/01/2020 14:47:49	26012020	260120	144748	5.130	12.323342	-56.725800	5.720	0.330	-1.310	-1.740	5.310	-2.800	-1.200																			1580050068.0	11.07	20.50
26/01/2020 14:47:50	26012020	260120	144749	6.010	12.323390	-56.725803	6.520	0.120	-0.470	-1.900	6.180	-2.200	-1.500																			1580050069.0	10.37	19.21
26/01/2020 14:47:51	26012020	260120	144750	6.780	12.323435	-56.725805	7.180	-0.110	0.410	-1.710	6.920	-1.200	-1.400																			1580050070.0	9.73	18.02
26/01/2020 14:47:52	26012020	260120	144751	7.420	12.323480	-56.725805	7.740	-0.120	0.640	-1.400	7.530	-0.700	-1.100																			1580050071.0	9.79	18.13
26/01/2020 14:47:53	26012020	260120	144752	7.960	12.323530	-56.725802	8.260	0.040	0.240	-1.190	8.060	-0.900	-0.800																			1580050072.0	10.49	19.43
26/01/2020 14:47:54	26012020	260120	144753	8.480	12.323580	-56.725798	8.800	0.140	-0.240	-1.280	8.590	-1.400	-0.800																			1580050073.0	11.02	20.41
26/01/2020 14:47:55	26012020	260120	144754	9.020	12.323632	-56.725795	9.300	-0.000	-0.260	-1.440	9.120	-1.700	-1.000																			1580050074.0	10.91	20.21
26/01/2020 14:47:56	26012020	260120	144755	9.510	12.323678	-56.725792	9.760	-0.310	0.030	-1.540	9.600	-1.400	-1.100																			1580050075.0	10.23	18.95
26/01/2020 14:47:57	26012020	260120	144756	9.960	12.323725	-56.725790	10.230	-0.430	-0.030	-1.610	10.050	-1.300	-1.200																			1580050076.0	9.92	18.37
26/01/2020 14:47:58	26012020	260120	144757	10.330	12.323773	-56.725788	10.760	-0.160	-0.570	-1.690	10.430	-1.700	-1.300																			1580050077.0	10.42	19.30
26/01/2020 14:47:59	26012020	260120	144758	11.020	12.323823	-56.725783	11.380	0.270	-1.030	-1.750	11.140	-2.300	-1.300																			1580050078.0	10.97	20.32
26/01/2020 14:48:00	26012020	260120	144759	11.670	12.323875	-56.725778	12.020	0.440	-0.860	-1.640	11.790	-2.400	-1.300	1016.50	26.00	25.90	20.20	20.20	857.00	70.00	70.00	376.00	29.30	27.00	5.30	100.00	2.60	62167	3300.00	27.60	27.60	1580050079.0	10.88	20.15
26/01/2020 14:48:01	26012020	260120	144800	12.300	12.323922	-56.725773	12.670	0.230	-0.170	-1.360	12.440	-1.800	-1.100																			1580050080.0	10.22	18.93
26/01/2020 14:48:02	26012020	260120	144801	12.950	12.323967	-56.725767	13.310	-0.130	0.440	-1.140	13.080	-1.100	-0.800																			1580050081.0	9.73	18.02
26/01/2020 14:48:03	26012020	260120	144802	13.590	12.324012	-56.725760	13.890	-0.300	0.490	-1.030	13.710	-0.800	-0.700																			1580050082.0	9.90	18.33
26/01/2020 14:48:04	26012020	260120	144803	14.150	12.324060	-56.725752	14.430	-0.190	0.080	-1.100	14.250	-1.100	-0.700																			1580050083.0	10.48	19.41
26/01/2020 14:48:05	26012020	260120	144804	14.670	12.324110	-56.725745	14.970	0.000	-0.360	-1.290	14.780	-1.600	-0.800																			1580050084.0	10.90	20.19
26/01/2020 14:48:06	26012020	260120	144805	15.190	12.324160	-56.725737	15.440	0.030	-0.430	-1.360	15.280	-1.800	-1.000																			1580050085.0	10.81	20.02
26/01/2020 14:48:07	26012020	260120	144806	15.640	12.324207	-56.725728	15.880	-0.150	-0.150	-1.440	15.730	-1.600	-1.000																			1580050086.0	10.30	19.08
26/01/2020 14:48:08	26012020	260120	144807	16.080	12.324253	-56.725722	16.370	-0.250	-0.020	-1.510	16.180	-1.400	-1.100																			1580050087.0	9.90	18.33
26/01/2020 14:48:09	26012020	260120	144808	16.630	12.324300	-56.725715	17.050	-0.010	-0.390	-1.540	16.760	-1.600	-1.100																			1580050088.0	10.15	18.80
26/01/2020 14:48:10	26012020	260120	144809	17.340	12.324348	-56.725705	17.860	0.420	-0.910	-1.560	17.510	-2.100	-1.200																			1580050089.0	10.80	20.00
26/01/2020 14:48:11	26012020	260120	144810	18.160	12.324398	-56.725693	18.630	0.550	-0.790	-1.420	18.310	-2.300	-1.100																			1580050090.0	10.97	20.32
26/01/2020 14:48:12	26012020	260120	144811	18.900	12.324445	-56.725682	19.300	0.160	0.090	-1.120	19.020	-1.600	-0.800																			1580050091.0	10.21	18.91
26/01/2020 14:48:13	26012020	260120	144812	19.480	12.324487	-56.725670	19.820	-0.460	0.850	-0.990	19.580	-0.700	-0.600																			1580050092.0	9.41	17.43
26/01/2020 14:48:14	26012020	260120	144813	19.970	12.324530	-56.725660	20.330	-0.790	0.760	-1.210	20.070	-0.500	-0.700																			1580050093.0	9.58	17.74
26/01/2020 14:48:15	26012020	260120	144814	20.480	12.324578	-56.725650	20.910	-0.610	-0.070	-1.510	20.600	-1.100	-1.000																			1580050094.0	10.47	19.39
26/01/2020 14:48:16	26012020	260120	144815	21.080	12.324628	-56.725638	21.580	-0.040	-1.000	-1.670	21.210	-2.000	-1.200																			1580050095.0	11.07	20.50
26/01/2020 14:48:17	26012020	260120	144816	21.750	12.324678	-56.725625	22.260	0.570	-1.460	-1.680	21.890	-2.700	-1.300																			1580050096.0	11.14	20.63
26/01/2020 14:48:18	26012020	260120	144817	22.410	12.324725	-56.725610	22.820	0.790	-1.050	-1.540	22.530	-2.700	-1.200																			1580050097.0	10.75	19.91
26/01/2020 14:48:19	26012020	260120	144818	22.940	12.324770	-56.725595	23.250	0.430	0.020	-1.330	23.030	-1.800	-1.000																			1580050098.0	9.93	18.39
26/01/2020 14:48:20	26012020	260120	144819	23.360	12.324810	-56.725582	23.730	-0.240	0.950	-1.240	23.460	-0.700	-0.800																			1580050099.0	9.30	17.22
26/01/2020 14:48:21	26012020	260120	144820	23.880	12.324853	-56.725568	24.360	-0.690	1.030	-1.400	24.020	-0.200	-0.900																			1580050100.0	9.47	17.54
26/01/2020 14:48:22	26012020	260120	144821	24.580	12.324898	-56.725555	25.070	-0.640	0.270	-1.610	24.580	-0.800	-1.200																			1580050101.0	10.29	19.06
26/01/2020 14:48:23	26012020	260120	144822	25.300	12.324947	-56.725538	25.650	-0.260	-0.620	-1.610	25.420	-1.700	-1.200																			1580050102.0	11.01	20.39
26/01/2020 14:48:24	26012020	260120	144823	25.850	12.324995	-56.725520	26.120	0.160	-0.960	-1.420	25.850	-2.300	-1.100																			1580050103.0	10.94	20.26
26/01/2020 14:48:25	26012020	260120	144824	26.300	12.325040	-56.725502	26.570	0.400	-0.760	-1.220	26.370	-2.200	-0.900																			1580050104.0	10.31	19.09
26/01/2020 14:48:26	26012020	260120	144825	26.720	12.325082	-56.725485	27.030	0.440	-0.480	-1.150	26.810	-1.900	-0.800																			1580050105.0	9.92	18.37
26/01/2020 14:48:27	26012020	260120	144826	27.180	12.325127	-56.725468	27.560	0.320	-0.320	-1.370	27.280	-1.700	-0.900																			1580050106.0	10.05	18.61
26/01/2020 14:48:28	26012020	260120	144827	27.770	12.325172	-56.725452	28.300	0.110	-0.180	-1.690	27.910	-1.600	-1.200																			1580050107.0	10.30	19.08
26/01/2020 14:48:29	26012020	260120	144828	28.540	12.325217	-56.725437	29.150	-0.080	0.010	-1.750	28.710	-1.400	-1.400																			1580050108.0	10.34	19.15
26/01/2020 14:48:30	26012020	260120	144829	29.380	12.325260	-56.725417	29.930	-0.250	0.210	-1.530	29.550	-1.200	-1.200																			1580050109.0	10.15	18.80
26/01/2020 14:48:31	26012020	260120	144830	30.100	12.325302	-56.725397	30.450	-0.380	0.290	-1.220	30.220	-1.100	-0.900																			1580050110.0	10.05	18.61
26/01/2020 14:48:32	26012020	260120	144831	30.580	12.325343	-56.725373	30.800	-0.450	0.210	-0.990	30.650	-1.100	-0.700																			1580050111.0	10.05	18.61
26/01/2020 14:48:33	26012020	260120	144832	30.900	12.325385	-56.725352	31.150	-0.360	-0.100	-1.090	30.970	-1.300	-0.600																			1580050112.0	10.12	18.74
26/01/2020 14:48:34	26012020	260120	144833	31.280	12.325430	-56.725332	31.660	-0.020	-0.640	-1.540	31.380	-1.800	-1.000																			1580050113.0	10.42	19.30
26/01/2020 14:48:35	26012020	260120	144834	31.860	12.325477	-56.725313	32.360	0.470	-1.080	-1.920	32.000	-2.300	-1.400																			1580050114.0	10.79	19.98
26/01/2020 14:48:36	26012020	260120	144835	32.450	12.325522	-56.725292	33.080	0.750	-0.980	-1.930	32.600	-2.500	-1.600																			1580050115.0	10.78	19.96
26/01/2020 14:48:37	26012020	260120	144836	33.280	12.325565	-56.725270	33.670	0.580	-0.300	-1.550	33.400	-2.000	-1.300																			1580050116.0	10.22	18.93
26/01/2020 14:48:38	26012020	260120	144837	33.830	12.325603	-56.725247	34.160	0.090	0.460	-1.100	33.920	-1.200	-0.900																			1580050117.0	9.59	17.76
26/01/2020 14:48:39	26012020	260120	144838	34.270	12.325640	-56.725223	34.590	-0.370	0.730	-0.910	34.350	-0.700	-0.500																			1580050118.0	9.56	17.71
26/01/2020 14:48:40	26012020	260120	144839	34.680	12.325682	-56.725200	35.020	-0.560	0.440	-1.020	34.770	-0.800	-0.600																			1580050119.0	10.02	18.56
26/01/2020 14:48:41	26012020	260120	144840	35.130	12.325723	-56.725177	35.570	-0.490	-0.040	-1.230	35.240	-1.200	-0.800																			1580050120.0	10.46	19.37
26/01/2020 14:48:42	26012020	260120	144841	35.730	12.325767	-56.725152	36.260	-0.290	-0.490	-1.450	35.870	-1.700	-1.000																			1580050121.0	10.48	19.41
26/01/2020 14:48:43	26012020	260120	144842	36.420	12.325808	-56.725127	36.920	-0.050	-0.810	-1.630	36.560	-2.100	-1.200																			1580050122.0	10.41	19.28
26/01/2020 14:48:44	26012020	260120	144843	37.050	12.325850	-56.725102	37.480	0.210	-0.890	-1.650	37.170	-2.300	-1.300																			1580050123.0	10.39	19.24
26/01/2020 14:48:45	26012020	260120	144844	37.570	12.325892	-56.725077	37.940	0.410	-0.660	-1.460	37.660	-2.100	-1.200																			1580050124.0	10.30	19.08
26/01/2020 14:48:46	26012020	260120	144845	38.030	12.325932	-56.725052	38.480	0.490	-0.270	-1.260	38.140	-1.800	-0.900																			1580050125.0	10.08	18.67
26/01/2020 14:48:47	26012020	260120	144846	38.610	12.325970	-56.725027	39.090	0.390	0.100	-1.140	38.730	-1.400	-0.800																			1580050126.0	10.00	18.52
26/01/2020 14:48:48	26012020	260120	144847	39.220	12.326008	-56.725000	39.620	0.060	0.350	-1.080	39.330	-1.100	-0.700																			1580050127.0	10.03	18.58
26/01/2020 14:48:49	26012020	260120	144848	39.720	12.326047	-56.724973	40.070	-0.360	0.350	-1.130	39.810	-1.000	-0.700																			1580050128.0	10.09	18.69
26/01/2020 14:48:50	26012020	260120	144849	40.190	12.326087	-56.724947	40.630	-0.580	0.090	-1.320	40.290	-1.200	-0.900																			1580050129.0	10.21	18.91
26/01/2020 14:48:51	26012020	260120	144850	40.800	12.326127	-56.724918	41.300	-0.420	-0.310	-1.490	40.940	-1.500	-1.000																			1580050130.0	10.36	19.19
26/01/2020 14:48:52	26012020	260120	144851	41.500	12.326165	-56.724888	41.960	-0.030	-0.630	-1.580	41.640	-1.900	-1.200																			1580050131.0	10.49	19.43
26/01/2020 14:48:53	26012020	260120	144852	42.140	12.326203	-56.724858	42.460	0.230	-0.560	-1.510	42.240	-2.000	-1.200																			1580050132.0	10.39	19.24
26/01/2020 14:48:54	26012020	260120	144853	42.550	12.326240	-56.724830	42.760	0.240	-0.230	-1.340	42.610	-1.700	-1.000																			1580050133.0	10.01	18.54
26/01/2020 14:48:55	26012020	260120	144854	42.840	12.326277	-56.724802	43.140	0.160	-0.040	-1.420	42.910	-1.400	-1.000																			1580050134.0	9.80	18.15
26/01/2020 14:48:56	26012020	260120	144855	43.290	12.326317	-56.724775	43.760	0.220	-0.190	-1.700	43.410	-1.500	-1.200																			1580050135.0	10.11	18.72
26/01/2020 14:48:57	26012020	260120	144856	43.960	12.326357	-56.724747	44.540	0.340	-0.460	-1.840	44.110	-1.700	-1.400																			1580050136.0	10.55	19.54
26/01/2020 14:48:58	26012020	260120	144857	44.760	12.326395	-56.724717	45.360	0.300	-0.560	-1.740	44.930	-1.900	-1.400																			1580050137.0	10.65	19.72
26/01/2020 14:48:59	26012020	260120	144858	45.570	12.326432	-56.724683	46.070	0.000	-0.240	-1.360	45.710	-1.800	-1.100																			1580050138.0	10.40	19.26
26/01/2020 14:49:00	26012020	260120	144859	46.120	12.326465	-56.724652	46.560	-0.460	0.380	-0.840	46.220	-1.200	-0.600	1016.50	26.00	26.00	20.30	20.30	738.00	70.00	70.00	376.00	29.30	22.00	6.70	98.00	2.70	57499	3321.00	27.60	27.60	1580050139.0	9.88	18.30
26/01/2020 14:49:01	26012020	260120	144900	46.640	12.326495	-56.724618	46.830	-0.830	0.730	-0.590	46.690	-0.700	-0.300																			1580050140.0	9.44	17.48
26/01/2020 14:49:02	26012020	260120	144901	46.880	12.326527	-56.724587	47.100	-0.740	0.300	-0.870	46.930	-0.800	-0.300																			1580050141.0	9.68	17.93
26/01/2020 14:49:03	26012020	260120	144902	47.190	12.326565	-56.724555	47.460	-0.040	-0.790	-1.310	47.260	-1.700	-0.800																			1580050142.0	10.59	19.61
26/01/2020 14:49:04	26012020	260120	144903	47.620	12.326605	-56.724520	47.990	0.750	-1.450	-1.630	47.720	-2.700	-1.100																			1580050143.0	11.34	21.00
26/01/2020 14:49:05	26012020	260120	144904	48.200	12.326643	-56.724487	48.630	0.860	-0.840	-1.690	48.330	-2.600	-1.300																			1580050144.0	10.76	19.93
26/01/2020 14:49:06	26012020	260120	144905	48.870	12.326675	-56.724458	49.310	0.280	0.340	-1.530	49.020	-1.500	-1.200																			1580050145.0	9.34	17.30
26/01/2020 14:49:07	26012020	260120	144906	49.560	12.326707	-56.724428	49.940	-0.250	0.780	-1.290	49.690	-0.600	-1.000																			1580050146.0	8.88	16.45
26/01/2020 14:49:08	26012020	260120	144907	50.150	12.326738	-56.724397	50.410	-0.250	0.180	-1.010	50.250	-0.900	-0.700																			1580050147.0	9.85	18.24
26/01/2020 14:49:09	26012020	260120	144908	50.600	12.326773	-56.724358	50.830	0.060	-0.640	-0.820	50.690	-1.800	-0.500																			1580050148.0	10.90	20.19
26/01/2020 14:49:10	26012020	260120	144909	51.030	12.326808	-56.724322	51.310	0.200	-0.840	-0.780	51.130	-2.300	-0.400																			1580050149.0	10.98	20.33
26/01/2020 14:49:11	26012020	260120	144910	51.540	12.326840	-56.724285	51.850	-0.020	-0.270	-0.880	51.650	-1.900	-0.500																			1580050150.0	10.21	18.91
26/01/2020 14:49:12	26012020	260120	144911	52.080	12.326870	-56.724253	52.380	-0.380	0.400	-1.080	52.080	-1.200	-0.600																			1580050151.0	9.35	17.32
26/01/2020 14:49:13	26012020	260120	144912	52.600	12.326900	-56.724220	52.950	-0.490	0.380	-1.340	52.720	-0.900	-0.900																			1580050152.0	9.34	17.30
26/01/2020 14:49:14	26012020	260120	144913	53.200	12.326932	-56.724185	53.490	-0.200	-0.210	-1.520	53.200	-1.400	-1.100																			1580050153.0	10.15	18.80
26/01/2020 14:49:15	26012020	260120	144914	53.690	12.326965	-56.724147	53.870	0.190	-0.580	-1.530	53.760	-1.900	-1.200																			1580050154.0	10.68	19.78
26/01/2020 14:49:16	26012020	260120	144915	54.050	12.326997	-56.724112	54.250	0.370	-0.440	-1.520	54.120	-1.900	-1.100																			1580050155.0	10.30	19.08
26/01/2020 14:49:17	26012020	260120	144916	54.480	12.327027	-56.724077	54.800	0.320	-0.170	-1.510	54.590	-1.600	-1.100																			1580050156.0	9.77	18.09
26/01/2020 14:49:18	26012020	260120	144917	55.080	12.327058	-56.724043	55.480	0.160	-0.150	-1.540	55.220	-1.500	-1.100																			1580050157.0	9.76	18.08
26/01/2020 14:49:19	26012020	260120	144918	55.770	12.327090	-56.724008	56.120	0.050	-0.350	-1.430	55.900	-1.600	-1.100																			1580050158.0	10.08	18.67
26/01/2020 14:49:20	26012020	260120	144919	56.380	12.327120	-56.723970	56.650	0.030	-0.480	-1.030	56.480	-1.800	-0.800																			1580050159.0	10.34	19.15
26/01/2020 14:49:21	26012020	260120	144920	56.850	12.327147	-56.723930	57.050	0.010	-0.390	-0.600	56.940	-1.800	-0.400																			1580050160.0	10.26	19.00
26/01/2020 14:49:22	26012020	260120	144921	57.260	12.327173	-56.723892	57.430	-0.080	-0.180	-0.500	57.330	-1.600	-0.100																			1580050161.0	10.05	18.61
26/01/2020 14:49:23	26012020	260120	144922	57.620	12.327200	-56.723852	57.830	-0.200	0.030	-0.730	57.710	-1.400	-0.300																			1580050162.0	9.97	18.46
26/01/2020 14:49:24	26012020	260120	144923	58.060	12.327228	-56.723815	58.340	-0.280	0.220	-1.130	58.060	-1.200	-0.600																			1580050163.0	9.96	18.45
26/01/2020 14:49:25	26012020	260120	144924	58.620	12.327257	-56.723778	58.970	-0.230	0.300	-1.580	58.740	-1.100	-1.000																			1580050164.0	9.90	18.33
26/01/2020 14:49:26	26012020	260120	144925	59.120	12.327285	-56.723742	59.610	0.020	-0.010	-1.890	59.260	-1.200	-1.400																			1580050165.0	9.98	18.48
26/01/2020 14:49:27	26012020	260120	144926	59.900	12.327315	-56.723703	60.200	0.370	-0.510	-1.870	60.010	-1.700	-1.600																			1580050166.0	10.39	19.24
26/01/2020 14:49:28	26012020	260120	144927	60.430	12.327343	-56.723662	60.590	0.450	-0.630	-1.530	60.510	-2.000	-1.300																			1580050167.0	10.50	19.45
26/01/2020 14:49:29	26012020	260120	144928	60.770	12.327370	-56.723623	60.930	0.180	-0.340	-1.230	60.830	-1.800	-1.000																			1580050168.0	9.97	18.46
26/01/2020 14:49:30	26012020	260120	144929	61.130	12.327395	-56.723585	61.440	-0.130	-0.200	-1.190	61.220	-1.600	-0.800																			1580050169.0	9.60	17.78
26/01/2020 14:49:31	26012020	260120	144930	61.670	12.327422	-56.723547	62.060	-0.150	-0.430	-1.200	61.790	-1.700	-0.900																			1580050170.0	9.94	18.41
26/01/2020 14:49:32	26012020	260120	144931	62.280	12.327447	-56.723505	62.670	0.020	-0.640	-1.060	62.410	-2.000	-0.800																			1580050171.0	10.45	19.35
26/01/2020 14:49:33	26012020	260120	144932	62.860	12.327472	-56.723463	63.190	0.100	-0.440	-0.790	62.970	-2.000	-0.500																			1580050172.0	10.45	19.35
26/01/2020 14:49:34	26012020	260120	144933	63.330	12.327493	-56.723422	63.580	-0.090	0.180	-0.600	63.410	-1.500	-0.300																			1580050173.0	9.97	18.46
26/01/2020 14:49:35	26012020	260120	144934	63.680	12.327515	-56.723382	63.940	-0.370	0.700	-0.680	63.750	-0.800	-0.300																			1580050174.0	9.45	17.50
26/01/2020 14:49:36	26012020	260120	144935	64.060	12.327538	-56.723343	64.360	-0.400	0.570	-0.970	64.140	-0.700	-0.500																			1580050175.0	9.55	17.69
26/01/2020 14:49:37	26012020	260120	144936	64.510	12.327563	-56.723303	64.950	-0.100	-0.150	-1.370	64.620	-1.200	-0.900																			1580050176.0	10.22	18.93
26/01/2020 14:49:38	26012020	260120	144937	65.120	12.327592	-56.723260	65.640	0.320	-0.910	-1.700	65.260	-2.100	-1.300																			1580050177.0	10.78	19.96
26/01/2020 14:49:39	26012020	260120	144938	65.810	12.327618	-56.723217	66.200	0.590	-1.040	-1.620	65.920	-2.500	-1.300																			1580050178.0	10.75	19.91
26/01/2020 14:49:40	26012020	260120	144939	66.310	12.327640	-56.723175	66.570	0.450	-0.490	-1.280	66.380	-2.100	-1.000																			1580050179.0	10.02	18.56
26/01/2020 14:49:41	26012020	260120	144940	66.680	12.327660	-56.723137	67.070	0.040	0.000	-0.980	66.770	-1.500	-0.700																			1580050180.0	9.40	17.41
26/01/2020 14:49:42	26012020	260120	144941	67.230	12.327682	-56.723097	67.800	-0.260	0.020	-0.850	67.380	-1.300	-0.500																			1580050181.0	9.62	17.82
26/01/2020 14:49:43	26012020	260120	144942	68.030	12.327703	-56.723053	68.680	-0.250	-0.170	-0.750	68.200	-1.500	-0.400																			1580050182.0	10.19	18.87
26/01/2020 14:49:44	26012020	260120	144943	68.930	12.327723	-56.723008	69.590	-0.120	-0.170	-0.610	69.120	-1.600	-0.300																			1580050183.0	10.33	19.13
26/01/2020 14:49:45	26012020	260120	144944	69.880	12.327743	-56.722965	70.560	-0.100	0.040	-0.470	70.080	-1.400	-0.100																			1580050184.0	10.04	18.59
26/01/2020 14:49:46	26012020	260120	144945	70.860	12.327760	-56.722923	71.630	-0.240	0.250	-0.540	71.080	-1.200	-0.100																			1580050185.0	9.69	17.95
26/01/2020 14:49:47	26012020	260120	144946	71.960	12.327778	-56.722882	72.790	-0.320	0.220	-0.860	72.190	-1.100	-0.400																			1580050186.0	9.55	17.69
26/01/2020 14:49:48	26012020	260120	144947	72.900	12.327798	-56.722842	74.000	-0.120	-0.150	-1.280	73.150	-1.400	-0.800																			1580050187.0	9.74	18.04
26/01/2020 14:49:49	26012020	260120	144948	74.410	12.327820	-56.722798	75.350	0.320	-0.640	-1.660	74.690	-1.900	-1.200																			1580050188.0	10.07	18.65
26/01/2020 14:49:50	26012020	260120	144949	75.530	12.327842	-56.722755	76.710	0.630	-0.850	-1.750	75.790	-2.200	-1.400																			1580050189.0	10.21	18.91
26/01/2020 14:49:51	26012020	260120	144950	77.150	12.327860	-56.722712	78.090	0.510	-0.610	-1.720	77.400	-2.100	-1.400																			1580050190.0	9.86	18.26
26/01/2020 14:49:52	26012020	260120	144951	78.490	12.327877	-56.722672	79.490	0.100	-0.150	-1.720	78.750	-1.700	-1.400																			1580050191.0	9.35	17.32
26/01/2020 14:49:53	26012020	260120	144952	79.920	12.327892	-56.722632	80.990	-0.260	0.170	-1.640	80.200	-1.300	-1.300																			1580050192.0	9.17	16.98
26/01/2020 14:49:54	26012020	260120	144953	81.440	12.327905	-56.722590	82.570	-0.400	0.200	-1.610	81.760	-1.200	-1.200																			1580050193.0	9.28	17.19
26/01/2020 14:49:55	26012020	260120	144954	83.050	12.327917	-56.722547	84.210	-0.310	-0.040	-1.770	83.390	-1.300	-1.400																			1580050194.0	9.50	17.59
26/01/2020 14:49:56	26012020	260120	144955	84.730	12.327928	-56.722502	85.820	-0.130	-0.300	-1.860	85.060	-1.600	-1.500																			1580050195.0	9.68	17.93
26/01/2020 14:49:57	26012020	260120	144956	86.310	12.327937	-56.722458	87.410	-0.060	-0.170	-2.010	86.630	-1.700	-1.600																			1580050196.0	9.58	17.74
26/01/2020 14:49:58	26012020	260120	144957	87.930	12.327947	-56.722417	89.100	-0.190	0.300	-2.330	88.270	-1.300	-1.900																			1580050197.0	8.99	16.65
26/01/2020 14:49:59	26012020	260120	144958	89.630	12.327957	-56.722377	90.800	-0.300	0.510	-2.590	89.980	-0.900	-2.200																			1580050198.0	8.54	15.82
26/01/2020 14:50:00	26012020	260120	144959	91.360	12.327965	-56.722337	92.540	-0.190	0.140	-2.880	91.710	-1.100	-2.400	1016.50	26.00	26.00	20.40	20.40	834.00	71.00	71.00	375.00	29.30	10.00	7.40	95.00	2.60	62103	2538.00	27.60	27.60	1580050199.0	8.78	16.26
26/01/2020 14:50:01	26012020	260120	145000	93.080	12.327973	-56.722293	94.150	0.070	-0.420	-3.010	93.410	-1.600	-2.700																			1580050200.0	9.24	17.11
26/01/2020 14:50:02	26012020	260120	145001	94.330	12.327978	-56.722250	95.480	0.280	-0.730	-2.750	94.590	-2.100	-2.500																			1580050201.0	9.28	17.19
26/01/2020 14:50:03	26012020	260120	145002	95.820	12.327980	-56.722208	96.550	0.310	-0.560	-2.530	96.040	-2.100	-2.200																			1580050202.0	8.90	16.48
26/01/2020 14:50:04	26012020	260120	145003	96.680	12.327983	-56.722168	97.610	0.230	-0.200	-2.630	96.890	-1.700	-2.200																			1580050203.0	8.46	15.67
26/01/2020 14:50:05	26012020	260120	145004	98.010	12.327987	-56.722128	98.890	0.160	-0.110	-2.710	98.250	-1.500	-2.400																			1580050204.0	8.52	15.78
26/01/2020 14:50:06	26012020	260120	145005	99.330	12.327990	-56.722087	100.260	0.070	-0.190	-2.510	99.610	-1.600	-2.300																			1580050205.0	8.84	16.37
26/01/2020 14:50:07	26012020	260120	145006	100.680	12.327988	-56.722045	101.510	-0.110	-0.180	-2.160	100.940	-1.600	-2.000																			1580050206.0	8.88	16.45
26/01/2020 14:50:08	26012020	260120	145007	101.890	12.327985	-56.722003	102.640	-0.350	0.020	-1.710	102.110	-1.500	-1.600																			1580050207.0	8.59	15.91
26/01/2020 14:50:09	26012020	260120	145008	102.980	12.327980	-56.721965	103.780	-0.460	0.130	-1.320	103.210	-1.300	-1.100																			1580050208.0	8.32	15.41
26/01/2020 14:50:10	26012020	260120	145009	104.110	12.327973	-56.721925	105.010	-0.350	0.060	-1.240	104.350	-1.300	-0.900																			1580050209.0	8.44	15.63
26/01/2020 14:50:11	26012020	260120	145010	105.390	12.327968	-56.721885	106.420	-0.130	0.010	-1.540	105.670	-1.400	-1.100																			1580050210.0	8.60	15.93
26/01/2020 14:50:12	26012020	260120	145011	106.830	12.327965	-56.721845	107.840	0.050	0.020	-2.000	107.120	-1.400	-1.500																			1580050211.0	8.52	15.78
26/01/2020 14:50:13	26012020	260120	145012	108.210	12.327962	-56.721805	109.040	0.170	-0.060	-2.370	108.460	-1.400	-1.900																			1580050212.0	8.41	15.58
26/01/2020 14:50:14	26012020	260120	145013	109.330	12.327957	-56.721765	110.000	0.260	-0.220	-2.530	109.530	-1.600	-2.200																			1580050213.0	8.49	15.72
26/01/2020 14:50:15	26012020	260120	145014	110.270	12.327952	-56.721725	110.920	0.240	-0.220	-2.610	110.460	-1.600	-2.300																			1580050214.0	8.52	15.78
26/01/2020 14:50:16	26012020	260120	145015	111.220	12.327947	-56.721687	111.830	0.120	-0.210	-2.560	111.220	-1.600	-2.300																			1580050215.0	8.29	15.35
26/01/2020 14:50:17	26012020	260120	145016	112.070	12.327938	-56.721648	112.590	0.060	-0.480	-2.280	112.210	-1.700	-2.100																			1580050216.0	8.30	15.37
26/01/2020 14:50:18	26012020	260120	145017	112.800	12.327927	-56.721608	113.380	0.040	-0.600	-2.040	112.950	-2.000	-1.800																			1580050217.0	8.64	16.00
26/01/2020 14:50:19	26012020	260120	145018	113.620	12.327915	-56.721572	114.250	-0.070	-0.230	-1.810	113.800	-1.800	-1.600																			1580050218.0	8.46	15.67
26/01/2020 14:50:20	26012020	260120	145019	114.480	12.327902	-56.721535	115.050	-0.230	0.230	-1.530	114.640	-1.300	-1.300																			1580050219.0	7.93	14.69
26/01/2020 14:50:21	26012020	260120	145020	115.250	12.327890	-56.721500	115.760	-0.270	0.300	-1.370	115.390	-1.100	-1.100																			1580050220.0	7.89	14.61
26/01/2020 14:50:22	26012020	260120	145021	115.920	12.327877	-56.721463	116.430	-0.170	0.050	-1.410	116.060	-1.200	-1.100																			1580050221.0	8.37	15.50
26/01/2020 14:50:23	26012020	260120	145022	116.600	12.327863	-56.721425	117.150	-0.040	-0.230	-1.540	116.750	-1.500	-1.200																			1580050222.0	8.66	16.04
26/01/2020 14:50:24	26012020	260120	145023	117.330	12.327850	-56.721387	117.900	0.030	-0.320	-1.720	117.490	-1.700	-1.300																			1580050223.0	8.61	15.95
26/01/2020 14:50:25	26012020	260120	145024	118.100	12.327837	-56.721348	118.700	0.040	-0.190	-1.860	118.270	-1.600	-1.500																			1580050224.0	8.38	15.52
26/01/2020 14:50:26	26012020	260120	145025	118.940	12.327823	-56.721313	119.500	0.080	-0.010	-1.910	119.110	-1.400	-1.600																			1580050225.0	8.13	15.06
26/01/2020 14:50:27	26012020	260120	145026	119.740	12.327808	-56.721278	120.180	0.240	-0.060	-1.830	119.880	-1.400	-1.600																			1580050226.0	8.12	15.04
26/01/2020 14:50:28	26012020	260120	145027	120.360	12.327793	-56.721242	120.690	0.420	-0.300	-1.610	120.460	-1.600	-1.400																			1580050227.0	8.41	15.58
26/01/2020 14:50:29	26012020	260120	145028	120.840	12.327775	-56.721205	121.160	0.420	-0.360	-1.440	120.930	-1.800	-1.200																			1580050228.0	8.60	15.93
26/01/2020 14:50:30	26012020	260120	145029	121.320	12.327758	-56.721168	121.680	0.170	-0.130	-1.350	121.420	-1.600	-1.100																			1580050229.0	8.38	15.52
26/01/2020 14:50:31	26012020	260120	145030	121.830	12.327743	-56.721135	122.190	-0.150	0.060	-1.260	121.930	-1.400	-1.000																			1580050230.0	8.06	14.93
26/01/2020 14:50:32	26012020	260120	145031	122.330	12.327727	-56.721100	122.690	-0.330	-0.070	-1.250	122.430	-1.400	-0.900																			1580050231.0	8.14	15.08
26/01/2020 14:50:33	26012020	260120	145032	122.790	12.327707	-56.721065	123.060	-0.310	-0.400	-1.190	122.870	-1.600	-0.900																			1580050232.0	8.53	15.80
26/01/2020 14:50:34	26012020	260120	145033	123.100	12.327687	-56.721028	123.270	-0.180	-0.660	-0.960	123.150	-2.000	-0.800																			1580050233.0	8.73	16.17
26/01/2020 14:50:35	26012020	260120	145034	123.270	12.327663	-56.720995	123.410	-0.020	-0.580	-0.940	123.300	-2.000	-0.600																			1580050234.0	8.72	16.15
26/01/2020 14:50:36	26012020	260120	145035	123.480	12.327645	-56.720960	123.740	0.040	-0.140	-1.240	123.550	-1.700	-0.800																			1580050235.0	8.49	15.72
26/01/2020 14:50:37	26012020	260120	145036	123.880	12.327627	-56.720925	124.220	-0.050	0.360	-1.500	123.980	-1.200	-1.100																			1580050236.0	8.22	15.22
26/01/2020 14:50:38	26012020	260120	145037	124.380	12.327608	-56.720892	124.680	-0.150	0.630	-1.680	124.480	-0.800	-1.300																			1580050237.0	8.14	15.08
26/01/2020 14:50:39	26012020	260120	145038	124.790	12.327588	-56.720858	124.960	-0.080	0.500	-1.810	124.850	-0.800	-1.500																			1580050238.0	8.29	15.35
26/01/2020 14:50:40	26012020	260120	145039	124.990	12.327568	-56.720822	125.080	0.220	-0.090	-1.690	125.010	-1.200	-1.500																			1580050239.0	8.60	15.93
26/01/2020 14:50:41	26012020	260120	145040	125.100	12.327547	-56.720787	125.210	0.560	-0.740	-1.350	125.120	-1.900	-1.200																			1580050240.0	9.00	16.67
26/01/2020 14:50:42	26012020	260120	145041	125.230	12.327523	-56.720750	125.390	0.630	-0.890	-0.920	125.260	-2.300	-0.800																			1580050241.0	9.00	16.67
26/01/2020 14:50:43	26012020	260120	145042	125.420	12.327502	-56.720718	125.590	0.310	-0.560	-0.370	125.450	-2.100	-0.300																			1580050242.0	8.47	15.69
26/01/2020 14:50:44	26012020	260120	145043	125.580	12.327478	-56.720687	125.740	-0.120	-0.170	0.180	125.610	-1.700	0.300																			1580050243.0	8.08	14.96
26/01/2020 14:50:45	26012020	260120	145044	125.700	12.327457	-56.720655	125.830	-0.350	-0.050	0.570	125.710	-1.400	0.700																			1580050244.0	8.20	15.19
26/01/2020 14:50:46	26012020	260120	145045	125.780	12.327432	-56.720623	125.950	-0.290	-0.240	0.720	125.790	-1.500	1.000																			1580050245.0	8.67	16.06
26/01/2020 14:50:47	26012020	260120	145046	125.920	12.327407	-56.720588	126.180	-0.110	-0.410	0.500	125.960	-1.700	0.900																			1580050246.0	9.06	16.78
26/01/2020 14:50:48	26012020	260120	145047	126.210	12.327383	-56.720553	126.560	-0.070	-0.260	0.040	126.290	-1.700	0.500																			1580050247.0	9.06	16.78
26/01/2020 14:50:49	26012020	260120	145048	126.620	12.327362	-56.720518	126.980	-0.160	0.060	-0.420	126.720	-1.400	0.000																			1580050248.0	8.70	16.11
26/01/2020 14:50:50	26012020	260120	145049	127.060	12.327340	-56.720483	127.410	-0.110	0.160	-0.830	127.150	-1.200	-0.400																			1580050249.0	8.55	15.83
26/01/2020 14:50:51	26012020	260120	145050	127.510	12.327318	-56.720448	127.930	0.110	0.000	-1.240	127.610	-1.300	-0.800																			1580050250.0	8.91	16.50
26/01/2020 14:50:52	26012020	260120	145051	127.940	12.327297	-56.720412	128.450	0.230	-0.040	-1.370	128.050	-1.400	-1.100																			1580050251.0	9.12	16.89
26/01/2020 14:50:53	26012020	260120	145052	128.540	12.327272	-56.720378	128.850	0.070	0.190	-1.200	128.620	-1.300	-1.000																			1580050252.0	8.77	16.24
26/01/2020 14:50:54	26012020	260120	145053	128.910	12.327248	-56.720347	129.160	-0.150	0.340	-1.000	128.910	-1.000	-0.800																			1580050253.0	8.32	15.41
26/01/2020 14:50:55	26012020	260120	145054	129.190	12.327225	-56.720315	129.390	-0.110	-0.050	-0.860	129.230	-1.200	-0.600																			1580050254.0	8.41	15.58
26/01/2020 14:50:56	26012020	260120	145055	129.400	12.327198	-56.720282	129.530	0.200	-0.770	-0.700	129.430	-1.900	-0.500																			1580050255.0	9.03	16.72
26/01/2020 14:50:57	26012020	260120	145056	129.530	12.327172	-56.720247	129.660	0.460	-1.180	-0.550	129.550	-2.500	-0.300																			1580050256.0	9.48	17.56
26/01/2020 14:50:58	26012020	260120	145057	129.650	12.327145	-56.720213	129.760	0.410	-0.840	-0.530	129.670	-2.400	-0.300																			1580050257.0	9.15	16.95
26/01/2020 14:50:59	26012020	260120	145058	129.720	12.327122	-56.720182	129.780	0.090	-0.100	-0.530	129.720	-1.700	-0.300																			1580050258.0	8.46	15.67
26/01/2020 14:51:00	26012020	260120	145059	129.740	12.327098	-56.720150	129.820	-0.230	0.280	-0.500	129.750	-1.100	-0.200	1016.50	26.00	26.00	20.30	20.40	815.00	71.00	71.00	377.00	29.30	347.00	7.80	89.00	3.70	61271	3124.00	27.60	27.50	1580050259.0	8.24	15.26
26/01/2020 14:51:01	26012020	260120	145100	129.770	12.327072	-56.720118	129.810	-0.340	-0.020	-0.520	129.770	-1.200	-0.200																			1580050260.0	8.79	16.28
26/01/2020 14:51:02	26012020	260120	145101	129.750	12.327043	-56.720083	129.820	-0.210	-0.540	-0.610	129.750	-1.700	-0.300																			1580050261.0	9.62	17.82
26/01/2020 14:51:03	26012020	260120	145102	129.780	12.327015	-56.720047	129.940	-0.060	-0.450	-0.650	129.800	-1.900	-0.400																			1580050262.0	9.80	18.15
26/01/2020 14:51:04	26012020	260120	145103	129.880	12.326987	-56.720015	130.130	-0.110	0.280	-0.640	129.910	-1.400	-0.400																			1580050263.0	9.04	16.74
26/01/2020 14:51:05	26012020	260120	145104	130.120	12.326962	-56.719985	130.360	-0.260	0.790	-0.780	130.170	-0.700	-0.400																			1580050264.0	8.32	15.41
26/01/2020 14:51:06	26012020	260120	145105	130.360	12.326937	-56.719953	130.540	-0.240	0.520	-0.960	130.360	-0.700	-0.600																			1580050265.0	8.58	15.89
26/01/2020 14:51:07	26012020	260120	145106	130.500	12.326908	-56.719920	130.520	0.050	-0.250	-0.870	130.510	-1.300	-0.700																			1580050266.0	9.36	17.33
26/01/2020 14:51:08	26012020	260120	145107	130.430	12.326880	-56.719885	130.350	0.380	-0.750	-0.480	130.400	-2.000	-0.400																			1580050267.0	9.72	18.00
26/01/2020 14:51:09	26012020	260120	145108	130.270	12.326850	-56.719852	130.250	0.450	-0.710	-0.240	130.240	-2.100	-0.000																			1580050268.0	9.36	17.33
26/01/2020 14:51:10	26012020	260120	145109	130.190	12.326825	-56.719820	130.200	0.260	-0.420	-0.150	130.180	-1.900	0.100																			1580050269.0	8.83	16.35
26/01/2020 14:51:11	26012020	260120	145110	130.140	12.326798	-56.719788	130.140	-0.030	-0.240	0.000	130.130	-1.600	0.200																			1580050270.0	8.73	16.17
26/01/2020 14:51:12	26012020	260120	145111	130.050	12.326770	-56.719757	130.020	-0.270	-0.270	0.300	130.020	-1.600	0.400																			1580050271.0	9.00	16.67
26/01/2020 14:51:13	26012020	260120	145112	129.860	12.326740	-56.719725	129.760	-0.310	-0.410	0.570	129.820	-1.700	0.800																			1580050272.0	9.31	17.24
26/01/2020 14:51:14	26012020	260120	145113	129.600	12.326710	-56.719692	129.500	-0.100	-0.470	0.560	129.550	-1.800	0.900																			1580050273.0	9.52	17.63
26/01/2020 14:51:15	26012020	260120	145114	129.350	12.326680	-56.719658	129.280	0.210	-0.330	0.340	129.300	-1.800	0.700																			1580050274.0	9.49	17.58
26/01/2020 14:51:16	26012020	260120	145115	129.170	12.326653	-56.719625	129.240	0.300	-0.040	0.010	129.160	-1.500	0.400																			1580050275.0	9.37	17.35
26/01/2020 14:51:17	26012020	260120	145116	129.180	12.326627	-56.719590	129.290	0.110	0.200	-0.230	129.190	-1.200	0.100																			1580050276.0	9.20	17.04
26/01/2020 14:51:18	26012020	260120	145117	129.210	12.326602	-56.719555	129.170	-0.110	0.180	-0.120	129.200	-1.100	0.100																			1580050277.0	9.23	17.09
26/01/2020 14:51:19	26012020	260120	145118	129.010	12.326572	-56.719522	128.890	-0.180	0.010	0.250	128.960	-1.300	0.400																			1580050278.0	9.46	17.52
26/01/2020 14:51:20	26012020	260120	145119	128.720	12.326542	-56.719488	128.650	-0.080	-0.170	0.500	128.670	-1.500	0.700																			1580050279.0	9.60	17.78
26/01/2020 14:51:21	26012020	260120	145120	128.510	12.326512	-56.719455	128.520	0.030	-0.240	0.520	128.480	-1.600	0.800																			1580050280.0	9.56	17.71
26/01/2020 14:51:22	26012020	260120	145121	128.390	12.326483	-56.719420	128.440	0.050	-0.150	0.460	128.380	-1.600	0.800																			1580050281.0	9.41	17.43
26/01/2020 14:51:23	26012020	260120	145122	128.320	12.326455	-56.719387	128.360	-0.010	-0.020	0.340	128.310	-1.400	0.700																			1580050282.0	9.17	16.98
26/01/2020 14:51:24	26012020	260120	145123	128.230	12.326428	-56.719355	128.180	0.010	-0.130	0.220	128.190	-1.400	0.500																			1580050283.0	9.12	16.89
26/01/2020 14:51:25	26012020	260120	145124	128.040	12.326402	-56.719320	127.930	0.160	-0.500	0.140	127.990	-1.700	0.400																			1580050284.0	9.44	17.48
26/01/2020 14:51:26	26012020	260120	145125	127.760	12.326373	-56.719283	127.570	0.260	-0.780	0.230	127.690	-2.100	0.500																			1580050285.0	9.76	18.08
26/01/2020 14:51:27	26012020	260120	145126	127.390	12.326345	-56.719247	127.210	0.200	-0.770	0.460	127.310	-2.200	0.700																			1580050286.0	9.74	18.04
26/01/2020 14:51:28	26012020	260120	145127	127.040	12.326317	-56.719213	126.930	-0.010	-0.460	0.710	126.980	-1.900	0.900																			1580050287.0	9.56	17.71
26/01/2020 14:51:29	26012020	260120	145128	126.770	12.326287	-56.719180	126.670	-0.260	-0.040	1.010	126.710	-1.500	1.200																			1580050288.0	9.38	17.37
26/01/2020 14:51:30	26012020	260120	145129	126.540	12.326258	-56.719147	126.340	-0.380	0.160	1.240	126.480	-1.200	1.500																			1580050289.0	9.38	17.37
26/01/2020 14:51:31	26012020	260120	145130	126.130	12.326228	-56.719112	126.000	-0.270	0.060	1.210	126.060	-1.200	1.500																			1580050290.0	9.67	17.91
26/01/2020 14:51:32	26012020	260120	145131	125.810	12.326200	-56.719075	125.740	-0.010	-0.110	0.990	125.760	-1.400	1.400																			1580050291.0	9.97	18.46
26/01/2020 14:51:33	26012020	260120	145132	125.570	12.326172	-56.719038	125.480	0.250	-0.130	0.710	125.530	-1.500	1.100																			1580050292.0	9.94	18.41
26/01/2020 14:51:34	26012020	260120	145133	125.310	12.326145	-56.719000	125.170	0.360	-0.040	0.470	125.250	-1.400	0.800																			1580050293.0	9.73	18.02
26/01/2020 14:51:35	26012020	260120	145134	125.010	12.326120	-56.718963	124.970	0.230	0.130	0.470	124.960	-1.300	0.700																			1580050294.0	9.61	17.80
26/01/2020 14:51:36	26012020	260120	145135	124.870	12.326093	-56.718927	125.010	-0.070	0.310	0.740	124.880	-1.100	0.900																			1580050295.0	9.40	17.41
26/01/2020 14:51:37	26012020	260120	145136	124.950	12.326067	-56.718893	125.130	-0.280	0.130	1.070	124.980	-1.100	1.200																			1580050296.0	9.29	17.21
26/01/2020 14:51:38	26012020	260120	145137	125.030	12.326037	-56.718860	125.110	-0.180	-0.440	1.370	125.030	-1.600	1.500																			1580050297.0	9.65	17.87
26/01/2020 14:51:39	26012020	260120	145138	124.960	12.326007	-56.718823	124.950	0.100	-0.900	1.530	124.930	-2.100	1.800																			1580050298.0	10.05	18.61
26/01/2020 14:51:40	26012020	260120	145139	124.800	12.325978	-56.718785	124.790	0.250	-0.880	1.470	124.770	-2.300	1.800																			1580050299.0	9.94	18.41
26/01/2020 14:51:41	26012020	260120	145140	124.660	12.325953	-56.718748	124.700	0.120	-0.610	1.200	124.640	-2.100	1.600																			1580050300.0	9.53	17.65
26/01/2020 14:51:42	26012020	260120	145141	124.610	12.325928	-56.718712	124.710	-0.140	-0.400	0.860	124.610	-1.800	1.300																			1580050301.0	9.42	17.45
26/01/2020 14:51:43	26012020	260120	145142	124.640	12.325903	-56.718673	124.730	-0.230	-0.350	0.720	124.650	-1.700	1.000																			1580050302.0	9.67	17.91
26/01/2020 14:51:44	26012020	260120	145143	124.640	12.325877	-56.718635	124.720	-0.070	-0.380	0.770	124.640	-1.700	1.000																			1580050303.0	10.00	18.52
26/01/2020 14:51:45	26012020	260120	145144	124.620	12.325848	-56.718597	124.790	0.080	-0.230	0.750	124.640	-1.700	1.100																			1580050304.0	10.19	18.87
26/01/2020 14:51:46	26012020	260120	145145	124.720	12.325820	-56.718558	124.940	0.000	0.180	0.700	124.750	-1.300	1.000																			1580050305.0	9.97	18.46
26/01/2020 14:51:47	26012020	260120	145146	124.890	12.325795	-56.718522	125.150	-0.240	0.550	0.670	124.930	-0.900	1.000																			1580050306.0	9.63	17.83
26/01/2020 14:51:48	26012020	260120	145147	125.120	12.325768	-56.718485	125.420	-0.350	0.560	0.580	125.170	-0.700	0.900																			1580050307.0	9.58	17.74
26/01/2020 14:51:49	26012020	260120	145148	125.400	12.325742	-56.718447	125.720	-0.210	0.200	0.450	125.470	-1.000	0.800																			1580050308.0	9.88	18.30
26/01/2020 14:51:50	26012020	260120	145149	125.700	12.325715	-56.718408	125.970	-0.010	-0.270	0.270	125.740	-1.400	0.600																			1580050309.0	10.14	18.78
26/01/2020 14:51:51	26012020	260120	145150	125.940	12.325687	-56.718368	126.180	0.080	-0.540	0.160	125.980	-1.800	0.500																			1580050310.0	10.13	18.76
26/01/2020 14:51:52	26012020	260120	145151	126.100	12.325660	-56.718332	126.350	-0.010	-0.410	0.120	126.130	-1.800	0.400																			1580050311.0	9.83	18.21
26/01/2020 14:51:53	26012020	260120	145152	126.290	12.325633	-56.718297	126.520	-0.170	-0.170	0.070	126.330	-1.600	0.400																			1580050312.0	9.38	17.37
26/01/2020 14:51:54	26012020	260120	145153	126.460	12.325607	-56.718262	126.630	-0.140	-0.380	-0.030	126.460	-1.600	0.300																			1580050313.0	9.36	17.33
26/01/2020 14:51:55	26012020	260120	145154	126.550	12.325578	-56.718223	126.620	0.140	-0.890	-0.090	126.550	-2.100	0.200																			1580050314.0	10.05	18.61
26/01/2020 14:51:56	26012020	260120	145155	126.510	12.325550	-56.718183	126.540	0.360	-0.940	-0.090	126.500	-2.300	0.200																			1580050315.0	10.44	19.33
26/01/2020 14:51:57	26012020	260120	145156	126.440	12.325522	-56.718145	126.590	0.240	-0.470	-0.140	126.450	-2.000	0.200																			1580050316.0	10.00	18.52
26/01/2020 14:51:58	26012020	260120	145157	126.520	12.325497	-56.718108	126.710	-0.050	-0.070	-0.200	126.550	-1.500	0.100																			1580050317.0	9.62	17.82
26/01/2020 14:51:59	26012020	260120	145158	126.650	12.325470	-56.718070	126.800	-0.230	0.010	0.000	126.670	-1.300	0.200																			1580050318.0	9.88	18.30
26/01/2020 14:52:00	26012020	260120	145159	126.700	12.325440	-56.718032	126.860	-0.250	-0.020	0.360	126.710	-1.300	0.500	1016.50	26.00	26.00	20.20	20.30	790.00	70.00	70.00	376.00	29.30	349.00	8.00	100.00	3.30	59506	3227.00	27.60	27.50	1580050319.0	10.28	19.04
26/01/2020 14:52:01	26012020	260120	145200	126.800	12.325410	-56.717995	127.030	-0.220	-0.020	0.640	126.830	-1.400	0.900																			1580050320.0	10.38	19.22
26/01/2020 14:52:02	26012020	260120	145201	126.980	12.325380	-56.717957	127.250	-0.220	0.060	0.680	127.020	-1.300	1.000																			1580050321.0	10.26	19.00
26/01/2020 14:52:03	26012020	260120	145202	127.220	12.325350	-56.717920	127.530	-0.220	0.130	0.570	127.280	-1.200	0.900																			1580050322.0	10.11	18.72
26/01/2020 14:52:04	26012020	260120	145203	127.530	12.325322	-56.717882	127.860	-0.150	0.090	0.440	127.600	-1.200	0.800																			1580050323.0	10.01	18.54
26/01/2020 14:52:05	26012020	260120	145204	127.860	12.325293	-56.717845	128.170	0.020	-0.050	0.260	127.930	-1.300	0.600																			1580050324.0	10.07	18.65
26/01/2020 14:52:06	26012020	260120	145205	128.170	12.325265	-56.717807	128.530	0.160	-0.140	-0.000	128.240	-1.500	0.400																			1580050325.0	10.11	18.72
26/01/2020 14:52:07	26012020	260120	145206	128.580	12.325237	-56.717768	128.980	0.080	-0.100	-0.140	128.680	-1.500	0.200																			1580050326.0	9.95	18.43
26/01/2020 14:52:08	26012020	260120	145207	129.020	12.325208	-56.717732	129.300	-0.130	-0.190	0.020	129.100	-1.500	0.200																			1580050327.0	9.70	17.96
26/01/2020 14:52:09	26012020	260120	145208	129.290	12.325178	-56.717697	129.460	-0.140	-0.490	0.270	129.320	-1.700	0.500																			1580050328.0	9.88	18.30
26/01/2020 14:52:10	26012020	260120	145209	129.440	12.325148	-56.717660	129.650	0.110	-0.770	0.300	129.470	-2.000	0.600																			1580050329.0	10.19	18.87
26/01/2020 14:52:11	26012020	260120	145210	129.660	12.325118	-56.717623	129.920	0.400	-0.850	0.080	129.710	-2.200	0.500																			1580050330.0	10.28	19.04
26/01/2020 14:52:12	26012020	260120	145211	129.960	12.325088	-56.717585	130.250	0.490	-0.640	-0.260	130.030	-2.100	0.200																			1580050331.0	10.22	18.93
26/01/2020 14:52:13	26012020	260120	145212	130.310	12.325062	-56.717545	130.610	0.340	-0.300	-0.450	130.390	-1.800	-0.100																			1580050332.0	10.04	18.59
26/01/2020 14:52:14	26012020	260120	145213	130.660	12.325033	-56.717508	130.930	0.090	-0.160	-0.270	130.720	-1.500	-0.100																			1580050333.0	10.01	18.54
26/01/2020 14:52:15	26012020	260120	145214	130.960	12.325003	-56.717470	131.230	-0.150	-0.170	0.020	131.020	-1.500	0.200																			1580050334.0	10.32	19.11
26/01/2020 14:52:16	26012020	260120	145215	131.270	12.324970	-56.717433	131.530	-0.340	-0.190	0.230	131.320	-1.500	0.500																			1580050335.0	10.49	19.43
26/01/2020 14:52:17	26012020	260120	145216	131.550	12.324938	-56.717397	131.820	-0.460	-0.150	0.370	131.600	-1.500	0.600																			1580050336.0	10.52	19.48
26/01/2020 14:52:18	26012020	260120	145217	131.830	12.324903	-56.717360	132.180	-0.520	0.050	0.330	131.830	-1.400	0.700																			1580050337.0	10.44	19.33
26/01/2020 14:52:19	26012020	260120	145218	132.240	12.324872	-56.717325	132.690	-0.500	0.390	0.060	132.340	-1.100	0.500																			1580050338.0	10.16	18.82
26/01/2020 14:52:20	26012020	260120	145219	132.780	12.324842	-56.717290	133.250	-0.350	0.510	-0.210	132.780	-0.800	0.200																			1580050339.0	9.93	18.39
26/01/2020 14:52:21	26012020	260120	145220	133.340	12.324810	-56.717255	133.750	-0.080	0.230	-0.380	133.440	-1.000	-0.000																			1580050340.0	10.06	18.63
26/01/2020 14:52:22	26012020	260120	145221	133.840	12.324777	-56.717220	134.210	0.280	-0.230	-0.560	133.930	-1.400	-0.200																			1580050341.0	10.38	19.22
26/01/2020 14:52:23	26012020	260120	145222	134.310	12.324745	-56.717183	134.690	0.620	-0.490	-0.810	134.410	-1.800	-0.400																			1580050342.0	10.43	19.32
26/01/2020 14:52:24	26012020	260120	145223	134.820	12.324715	-56.717145	135.280	0.720	-0.480	-0.960	134.930	-1.800	-0.600																			1580050343.0	10.21	18.91
26/01/2020 14:52:25	26012020	260120	145224	135.420	12.324685	-56.717110	135.880	0.500	-0.390	-0.980	135.550	-1.700	-0.700																			1580050344.0	9.92	18.37
26/01/2020 14:52:26	26012020	260120	145225	136.010	12.324653	-56.717075	136.310	0.160	-0.460	-0.770	136.110	-1.700	-0.600																			1580050345.0	9.86	18.26
26/01/2020 14:52:27	26012020	260120	145226	136.360	12.324620	-56.717042	136.510	-0.010	-0.770	-0.380	136.400	-2.000	-0.200																			1580050346.0	10.12	18.74
26/01/2020 14:52:28	26012020	260120	145227	136.510	12.324585	-56.717008	136.620	0.030	-1.060	-0.150	136.530	-2.300	0.100																			1580050347.0	10.52	19.48
26/01/2020 14:52:29	26012020	260120	145228	136.590	12.324548	-56.716972	136.660	0.030	-0.970	-0.190	136.590	-2.400	0.100																			1580050348.0	10.69	19.80
26/01/2020 14:52:30	26012020	260120	145229	136.620	12.324513	-56.716938	136.730	-0.220	-0.450	-0.270	136.630	-2.000	0.000																			1580050349.0	10.45	19.35
26/01/2020 14:52:31	26012020	260120	145230	136.700	12.324480	-56.716905	136.800	-0.540	0.050	-0.210	136.710	-1.400	0.000																			1580050350.0	10.12	18.74
26/01/2020 14:52:32	26012020	260120	145231	136.730	12.324443	-56.716872	136.760	-0.640	0.250	-0.070	136.730	-1.100	0.200																			1580050351.0	10.30	19.08
26/01/2020 14:52:33	26012020	260120	145232	136.670	12.324407	-56.716838	136.800	-0.450	0.280	-0.070	136.670	-1.100	0.200																			1580050352.0	10.67	19.76
26/01/2020 14:52:34	26012020	260120	145233	136.740	12.324370	-56.716805	137.110	-0.210	0.380	-0.300	136.790	-1.000	0.100																			1580050353.0	10.78	19.96
26/01/2020 14:52:35	26012020	260120	145234	137.180	12.324335	-56.716770	137.570	-0.070	0.570	-0.510	137.260	-0.800	-0.200																			1580050354.0	10.47	19.39
26/01/2020 14:52:36	26012020	260120	145235	137.630	12.324300	-56.716738	137.960	0.040	0.580	-0.580	137.710	-0.700	-0.300																			1580050355.0	10.14	18.78
26/01/2020 14:52:37	26012020	260120	145236	137.980	12.324265	-56.716705	138.210	0.300	0.280	-0.580	138.030	-0.900	-0.300																			1580050356.0	10.13	18.76
26/01/2020 14:52:38	26012020	260120	145237	138.200	12.324232	-56.716672	138.420	0.640	-0.240	-0.530	138.230	-1.400	-0.300																			1580050357.0	10.31	19.09
26/01/2020 14:52:39	26012020	260120	145238	138.420	12.324197	-56.716637	138.700	0.830	-0.740	-0.370	138.480	-1.900	-0.200																			1580050358.0	10.47	19.39
26/01/2020 14:52:40	26012020	260120	145239	138.700	12.324160	-56.716603	138.850	0.690	-0.950	-0.020	138.740	-2.200	0.100																			1580050359.0	10.34	19.15
26/01/2020 14:52:41	26012020	260120	145240	138.780	12.324125	-56.716573	138.760	0.340	-0.960	0.410	138.760	-2.300	0.600																			1580050360.0	10.06	18.63
26/01/2020 14:52:42	26012020	260120	145241	138.650	12.324088	-56.716542	138.640	0.020	-0.910	0.620	138.620	-2.300	0.900																			1580050361.0	10.10	18.71
26/01/2020 14:52:43	26012020	260120	145242	138.550	12.324052	-56.716512	138.650	-0.230	-0.700	0.550	138.560	-2.100	0.900																			1580050362.0	10.29	19.06
26/01/2020 14:52:44	26012020	260120	145243	138.590	12.324015	-56.716480	138.720	-0.340	-0.450	0.270	138.610	-1.900	0.700																			1580050363.0	10.29	19.06
26/01/2020 14:52:45	26012020	260120	145244	138.680	12.323980	-56.716447	138.730	-0.280	-0.380	-0.080	138.680	-1.700	0.300																			1580050364.0	10.44	19.33
26/01/2020 14:52:46	26012020	260120	145245	138.660	12.323942	-56.716412	138.730	-0.130	-0.450	-0.220	138.660	-1.800	0.100																			1580050365.0	10.85	20.09
26/01/2020 14:52:47	26012020	260120	145246	138.710	12.323903	-56.716377	138.890	-0.140	-0.260	-0.200	138.730	-1.700	0.100																			1580050366.0	11.09	20.54
26/01/2020 14:52:48	26012020	260120	145247	138.880	12.323867	-56.716343	139.050	-0.340	0.290	-0.030	138.920	-1.300	0.200																			1580050367.0	10.73	19.87
26/01/2020 14:52:49	26012020	260120	145248	139.010	12.323828	-56.716313	139.060	-0.520	0.750	0.280	139.010	-0.700	0.400																			1580050368.0	10.26	19.00
26/01/2020 14:52:50	26012020	260120	145249	138.970	12.323792	-56.716283	139.050	-0.430	0.720	0.500	138.960	-0.500	0.700																			1580050369.0	10.33	19.13
26/01/2020 14:52:51	26012020	260120	145250	139.010	12.323752	-56.716252	139.220	-0.070	0.350	0.380	139.040	-0.800	0.800																			1580050370.0	10.73	19.87
26/01/2020 14:52:52	26012020	260120	145251	139.230	12.323713	-56.716220	139.480	0.380	0.080	-0.010	139.280	-1.200	0.400																			1580050371.0	10.83	20.06
26/01/2020 14:52:53	26012020	260120	145252	139.490	12.323677	-56.716187	139.690	0.700	0.060	-0.460	139.530	-1.300	-0.000																			1580050372.0	10.45	19.35
26/01/2020 14:52:54	26012020	260120	145253	139.700	12.323643	-56.716153	139.870	0.770	-0.010	-0.730	139.740	-1.300	-0.400																			1580050373.0	10.02	18.56
26/01/2020 14:52:55	26012020	260120	145254	139.880	12.323610	-56.716120	140.050	0.690	-0.450	-0.680	139.920	-1.600	-0.400																			1580050374.0	10.02	18.56
26/01/2020 14:52:56	26012020	260120	145255	140.050	12.323573	-56.716088	140.160	0.500	-1.050	-0.300	140.070	-2.200	-0.200																			1580050375.0	10.44	19.33
26/01/2020 14:52:57	26012020	260120	145256	140.110	12.323535	-56.716057	140.080	0.240	-1.410	0.240	140.100	-2.600	0.300																			1580050376.0	10.65	19.72
26/01/2020 14:52:58	26012020	260120	145257	139.940	12.323495	-56.716027	139.780	-0.020	-1.410	0.790	139.880	-2.800	0.900																			1580050377.0	10.58	19.59
26/01/2020 14:52:59	26012020	260120	145258	139.600	12.323455	-56.715998	139.430	-0.230	-0.990	1.110	139.530	-2.500	1.300																			1580050378.0	10.53	19.50
26/01/2020 14:53:00	26012020	260120	145259	139.250	12.323417	-56.715968	139.140	-0.440	-0.370	1.050	139.200	-1.900	1.400	1016.50	26.00	26.10	20.20	20.30	805.00	70.00	70.00	377.00	29.20	345.00	8.50	98.00	3.60	60427	3096.00	27.60	27.50	1580050379.0	10.38	19.22
26/01/2020 14:53:01	26012020	260120	145300	139.020	12.323380	-56.715937	138.940	-0.540	0.020	0.810	138.980	-1.400	1.200																			1580050380.0	10.41	19.28
26/01/2020 14:53:02	26012020	260120	145301	138.870	12.323340	-56.715905	138.910	-0.520	0.130	0.570	138.860	-1.200	0.900																			1580050381.0	10.87	20.13
26/01/2020 14:53:03	26012020	260120	145302	138.900	12.323302	-56.715870	139.060	-0.420	0.250	0.370	138.930	-1.100	0.700																			1580050382.0	11.10	20.56
26/01/2020 14:53:04	26012020	260120	145303	139.080	12.323262	-56.715838	139.240	-0.260	0.400	0.280	139.120	-1.000	0.600																			1580050383.0	10.91	20.21
26/01/2020 14:53:05	26012020	260120	145304	139.250	12.323223	-56.715805	139.410	0.010	0.400	0.230	139.290	-0.900	0.500																			1580050384.0	10.76	19.93
26/01/2020 14:53:06	26012020	260120	145305	139.430	12.323185	-56.715772	139.650	0.270	0.300	0.260	139.470	-1.000	0.500																			1580050385.0	10.80	20.00
26/01/2020 14:53:07	26012020	260120	145306	139.680	12.323147	-56.715740	139.960	0.380	0.250	0.380	139.750	-1.100	0.600																			1580050386.0	10.68	19.78
26/01/2020 14:53:08	26012020	260120	145307	140.030	12.323110	-56.715708	140.330	0.360	0.210	0.440	140.110	-1.100	0.700																			1580050387.0	10.39	19.24
26/01/2020 14:53:09	26012020	260120	145308	140.380	12.323073	-56.715677	140.610	0.330	-0.000	0.390	140.440	-1.200	0.700																			1580050388.0	10.22	18.93
26/01/2020 14:53:10	26012020	260120	145309	140.590	12.323037	-56.715645	140.760	0.320	-0.450	0.410	140.630	-1.600	0.700																			1580050389.0	10.33	19.13
26/01/2020 14:53:11	26012020	260120	145310	140.720	12.322998	-56.715613	140.760	0.300	-0.920	0.540	140.720	-2.100	0.800																			1580050390.0	10.55	19.54
26/01/2020 14:53:12	26012020	260120	145311	140.690	12.322960	-56.715583	140.730	0.220	-1.060	0.470	140.680	-2.400	0.800																			1580050391.0	10.64	19.71
26/01/2020 14:53:13	26012020	260120	145312	140.670	12.322923	-56.715552	140.760	0.060	-0.850	0.280	140.680	-2.300	0.600																			1580050392.0	10.40	19.26
26/01/2020 14:53:14	26012020	260120	145313	140.700	12.322885	-56.715522	140.760	-0.100	-0.650	0.090	140.700	-2.000	0.400																			1580050393.0	10.23	18.95
26/01/2020 14:53:15	26012020	260120	145314	140.660	12.322848	-56.715490	140.630	-0.120	-0.670	-0.070	140.640	-2.000	0.300																			1580050394.0	10.50	19.45
26/01/2020 14:53:16	26012020	260120	145315	140.500	12.322808	-56.715457	140.380	0.020	-0.800	-0.170	140.450	-2.100	0.200																			1580050395.0	10.98	20.33
26/01/2020 14:53:17	26012020	260120	145316	140.250	12.322768	-56.715423	140.190	0.030	-0.570	-0.190	140.200	-2.100	0.100																			1580050396.0	11.29	20.91
26/01/2020 14:53:18	26012020	260120	145317	140.100	12.322728	-56.715390	140.160	-0.290	0.120	-0.050	140.090	-1.500	0.200																			1580050397.0	10.95	20.28
26/01/2020 14:53:19	26012020	260120	145318	140.120	12.322690	-56.715358	140.240	-0.760	0.650	0.200	140.140	-0.800	0.400																			1580050398.0	10.45	19.35
26/01/2020 14:53:20	26012020	260120	145319	140.190	12.322650	-56.715330	140.250	-0.900	0.570	0.540	140.190	-0.700	0.700																			1580050399.0	10.65	19.72
26/01/2020 14:53:21	26012020	260120	145320	140.180	12.322607	-56.715300	140.270	-0.520	0.130	0.760	140.180	-1.000	1.000																			1580050400.0	11.27	20.87
26/01/2020 14:53:22	26012020	260120	145321	140.200	12.322563	-56.715268	140.400	0.070	-0.000	0.640	140.220	-1.400	1.000																			1580050401.0	11.44	21.19
26/01/2020 14:53:23	26012020	260120	145322	140.380	12.322525	-56.715237	140.620	0.440	0.300	0.300	140.420	-1.200	0.700																			1580050402.0	10.82	20.04
26/01/2020 14:53:24	26012020	260120	145323	140.570	12.322488	-56.715205	140.810	0.490	0.510	-0.080	140.610	-0.900	0.300																			1580050403.0	10.13	18.76
26/01/2020 14:53:25	26012020	260120	145324	140.780	12.322453	-56.715173	140.940	0.420	0.200	-0.300	140.810	-1.000	0.100																			1580050404.0	10.14	18.78
26/01/2020 14:53:26	26012020	260120	145325	140.930	12.322417	-56.715140	141.110	0.370	-0.380	-0.240	140.960	-1.500	0.000																			1580050405.0	10.55	19.54
26/01/2020 14:53:27	26012020	260120	145326	141.080	12.322378	-56.715108	141.190	0.330	-0.860	0.040	141.100	-2.000	0.200																			1580050406.0	10.69	19.80
26/01/2020 14:53:28	26012020	260120	145327	141.100	12.322338	-56.715078	141.030	0.310	-1.130	0.400	141.080	-2.400	0.500																			1580050407.0	10.57	19.58
26/01/2020 14:53:29	26012020	260120	145328	140.870	12.322300	-56.715050	140.630	0.280	-1.310	0.800	140.790	-2.600	0.900																			1580050408.0	10.55	19.54
26/01/2020 14:53:30	26012020	260120	145329	140.430	12.322258	-56.715018	140.200	0.170	-1.290	1.000	140.330	-2.700	1.200																			1580050409.0	10.81	20.02
26/01/2020 14:53:31	26012020	260120	145330	140.030	12.322218	-56.714987	139.880	-0.130	-0.880	0.960	139.970	-2.400	1.300																			1580050410.0	10.88	20.15
26/01/2020 14:53:32	26012020	260120	145331	139.730	12.322180	-56.714955	139.600	-0.480	-0.280	0.890	139.670	-1.800	1.200																			1580050411.0	10.67	19.76
26/01/2020 14:53:33	26012020	260120	145332	139.460	12.322142	-56.714925	139.350	-0.640	0.050	0.850	139.400	-1.400	1.200																			1580050412.0	10.71	19.83
26/01/2020 14:53:34	26012020	260120	145333	139.240	12.322100	-56.714892	139.230	-0.580	0.130	0.810	139.200	-1.200	1.100																			1580050413.0	11.18	20.71
26/01/2020 14:53:35	26012020	260120	145334	139.180	12.322058	-56.714860	139.340	-0.490	0.310	0.750	139.190	-1.100	1.100																			1580050414.0	11.39	21.09
26/01/2020 14:53:36	26012020	260120	145335	139.320	12.322017	-56.714828	139.590	-0.430	0.640	0.580	139.370	-0.800	0.900																			1580050415.0	11.05	20.46
26/01/2020 14:53:37	26012020	260120	145336	139.600	12.321978	-56.714797	139.840	-0.280	0.800	0.370	139.650	-0.600	0.700																			1580050416.0	10.67	19.76
26/01/2020 14:53:38	26012020	260120	145337	139.850	12.321940	-56.714765	140.020	0.030	0.520	0.260	139.890	-0.700	0.600																			1580050417.0	10.63	19.69
26/01/2020 14:53:39	26012020	260120	145338	140.010	12.321900	-56.714732	140.160	0.430	-0.050	0.150	140.040	-1.200	0.500																			1580050418.0	10.91	20.21
26/01/2020 14:53:40	26012020	260120	145339	140.150	12.321862	-56.714697	140.350	0.650	-0.430	0.030	140.190	-1.700	0.400																			1580050419.0	11.01	20.39
26/01/2020 14:53:41	26012020	260120	145340	140.360	12.321825	-56.714665	140.490	0.560	-0.450	0.160	140.400	-1.800	0.400																			1580050420.0	10.59	19.61
26/01/2020 14:53:42	26012020	260120	145341	140.430	12.321788	-56.714635	140.370	0.330	-0.450	0.500	140.420	-1.800	0.700																			1580050421.0	10.17	18.83
26/01/2020 14:53:43	26012020	260120	145342	140.240	12.321750	-56.714605	140.060	0.170	-0.630	0.770	140.180	-1.900	1.000																			1580050422.0	10.24	18.96
26/01/2020 14:53:44	26012020	260120	145343	139.880	12.321712	-56.714575	139.620	0.170	-1.040	0.960	139.790	-2.200	1.200																			1580050423.0	10.64	19.71
26/01/2020 14:53:45	26012020	260120	145344	139.430	12.321670	-56.714542	139.220	0.170	-1.290	1.030	139.350	-2.600	1.300																			1580050424.0	11.14	20.63
26/01/2020 14:53:46	26012020	260120	145345	139.070	12.321630	-56.714508	138.920	0.040	-1.030	0.910	139.010	-2.500	1.300																			1580050425.0	11.13	20.61
26/01/2020 14:53:47	26012020	260120	145346	138.800	12.321592	-56.714477	138.700	-0.200	-0.390	0.800	138.750	-2.000	1.100																			1580050426.0	10.75	19.91
26/01/2020 14:53:48	26012020	260120	145347	138.620	12.321553	-56.714445	138.530	-0.410	0.180	0.740	138.580	-1.300	1.100																			1580050427.0	10.56	19.56
26/01/2020 14:53:49	26012020	260120	145348	138.460	12.321513	-56.714413	138.510	-0.530	0.400	0.630	138.460	-1.000	1.000																			1580050428.0	10.75	19.91
26/01/2020 14:53:50	26012020	260120	145349	138.470	12.321473	-56.714380	138.540	-0.540	0.240	0.620	138.480	-1.000	0.900																			1580050429.0	11.08	20.52
26/01/2020 14:53:51	26012020	260120	145350	138.490	12.321433	-56.714347	138.540	-0.410	-0.030	0.830	138.490	-1.300	1.000																			1580050430.0	11.35	21.02
26/01/2020 14:53:52	26012020	260120	145351	138.470	12.321392	-56.714315	138.520	-0.200	-0.080	1.010	138.460	-1.400	1.300																			1580050431.0	11.34	21.00
26/01/2020 14:53:53	26012020	260120	145352	138.460	12.321350	-56.714282	138.570	-0.010	0.120	0.980	138.460	-1.300	1.300																			1580050432.0	10.98	20.33
26/01/2020 14:53:54	26012020	260120	145353	138.530	12.321313	-56.714250	138.700	0.080	0.350	0.780	138.560	-1.100	1.200																			1580050433.0	10.55	19.54
26/01/2020 14:53:55	26012020	260120	145354	138.680	12.321277	-56.714218	138.800	0.120	0.260	0.500	138.700	-1.000	0.900																			1580050434.0	10.40	19.26
26/01/2020 14:53:56	26012020	260120	145355	138.750	12.321240	-56.714185	138.740	0.240	-0.200	0.370	138.750	-1.400	0.700																			1580050435.0	10.63	19.69
26/01/2020 14:53:57	26012020	260120	145356	138.640	12.321202	-56.714152	138.510	0.490	-0.740	0.490	138.600	-1.900	0.700																			1580050436.0	10.96	20.30
26/01/2020 14:53:58	26012020	260120	145357	138.440	12.321162	-56.714117	138.230	0.700	-0.970	0.560	138.380	-2.300	0.900																			1580050437.0	11.08	20.52
26/01/2020 14:53:59	26012020	260120	145358	138.140	12.321125	-56.714082	138.090	0.580	-0.690	0.510	138.100	-2.200	0.800																			1580050438.0	10.81	20.02
26/01/2020 14:54:00	26012020	260120	145359	138.040	12.321088	-56.714050	138.040	0.090	-0.200	0.610	138.030	-1.700	0.900	1016.40	26.10	26.10	20.10	20.20	816.00	69.00	69.00	377.00	29.20	344.00	8.80	101.00	3.80	61079	3184.00	27.60	27.60	1580050439.0	10.35	19.17
26/01/2020 14:54:01	26012020	260120	145400	137.970	12.321052	-56.714020	137.880	-0.410	-0.000	0.840	137.950	-1.400	1.100																			1580050440.0	10.21	18.91
26/01/2020 14:54:02	26012020	260120	145401	137.750	12.321013	-56.713988	137.480	-0.430	-0.470	1.130	137.680	-1.600	1.300																			1580050441.0	10.69	19.80
26/01/2020 14:54:03	26012020	260120	145402	137.290	12.320970	-56.713953	137.050	-0.070	-1.020	1.350	137.190	-2.200	1.600																			1580050442.0	11.60	21.48
26/01/2020 14:54:04	26012020	260120	145403	136.930	12.320928	-56.713918	136.950	0.050	-0.780	1.290	136.900	-2.300	1.600																			1580050443.0	11.73	21.72
26/01/2020 14:54:05	26012020	260120	145404	136.890	12.320892	-56.713885	137.040	-0.300	0.050	1.110	136.910	-1.600	1.500																			1580050444.0	10.76	19.93
26/01/2020 14:54:06	26012020	260120	145405	136.990	12.320855	-56.713855	137.150	-0.680	0.620	1.000	137.010	-0.900	1.300																			1580050445.0	10.17	18.83
26/01/2020 14:54:07	26012020	260120	145406	137.120	12.320817	-56.713823	137.300	-0.670	0.460	0.920	137.150	-0.800	1.200																			1580050446.0	10.51	19.46
26/01/2020 14:54:08	26012020	260120	145407	137.270	12.320777	-56.713790	137.440	-0.210	-0.140	0.810	137.300	-1.300	1.200																			1580050447.0	11.23	20.80
26/01/2020 14:54:09	26012020	260120	145408	137.380	12.320737	-56.713753	137.500	0.290	-0.440	0.680	137.400	-1.800	1.000																			1580050448.0	11.52	21.34
26/01/2020 14:54:10	26012020	260120	145409	137.450	12.320698	-56.713718	137.540	0.450	-0.190	0.630	137.460	-1.700	0.900																			1580050449.0	11.00	20.37
26/01/2020 14:54:11	26012020	260120	145410	137.480	12.320663	-56.713685	137.500	0.310	0.020	0.680	137.470	-1.400	1.000																			1580050450.0	10.33	19.13
26/01/2020 14:54:12	26012020	260120	145411	137.430	12.320627	-56.713652	137.360	0.210	-0.270	0.840	137.410	-1.500	1.100																			1580050451.0	10.49	19.43
26/01/2020 14:54:13	26012020	260120	145412	137.270	12.320588	-56.713618	137.240	0.280	-0.610	1.030	137.250	-1.900	1.300																			1580050452.0	11.09	20.54
26/01/2020 14:54:14	26012020	260120	145413	137.170	12.320548	-56.713583	137.200	0.280	-0.410	1.080	137.170	-1.900	1.400																			1580050453.0	11.12	20.59
26/01/2020 14:54:15	26012020	260120	145414	137.130	12.320512	-56.713552	137.140	0.060	0.050	1.050	137.120	-1.400	1.400																			1580050454.0	10.45	19.35
26/01/2020 14:54:16	26012020	260120	145415	137.040	12.320477	-56.713518	136.950	-0.150	0.080	1.000	137.010	-1.200	1.300																			1580050455.0	10.22	18.93
26/01/2020 14:54:17	26012020	260120	145416	136.850	12.320438	-56.713485	136.700	-0.140	-0.430	0.870	136.800	-1.600	1.200																			1580050456.0	10.81	20.02
26/01/2020 14:54:18	26012020	260120	145417	136.580	12.320398	-56.713450	136.470	-0.020	-0.810	0.710	136.530	-2.100	1.100																			1580050457.0	11.43	21.17
26/01/2020 14:54:19	26012020	260120	145418	136.430	12.320360	-56.713413	136.510	-0.060	-0.480	0.460	136.430	-2.000	0.900																			1580050458.0	11.22	20.78
26/01/2020 14:54:20	26012020	260120	145419	136.520	12.320325	-56.713382	136.650	-0.290	0.150	0.180	136.540	-1.400	0.600																			1580050459.0	10.38	19.22
26/01/2020 14:54:21	26012020	260120	145420	136.680	12.320290	-56.713350	136.800	-0.380	0.230	0.060	136.710	-1.000	0.400																			1580050460.0	10.09	18.69
26/01/2020 14:54:22	26012020	260120	145421	136.800	12.320252	-56.713315	136.800	-0.090	-0.420	0.250	136.800	-1.500	0.400																			1580050461.0	10.80	20.00
26/01/2020 14:54:23	26012020	260120	145422	136.750	12.320210	-56.713280	136.660	0.320	-1.010	0.620	136.730	-2.200	0.800																			1580050462.0	11.62	21.52
26/01/2020 14:54:24	26012020	260120	145423	136.620	12.320170	-56.713243	136.480	0.420	-0.820	0.860	136.590	-2.300	1.100																			1580050463.0	11.49	21.28
26/01/2020 14:54:25	26012020	260120	145424	136.410	12.320133	-56.713210	136.340	0.110	-0.100	0.940	136.380	-1.700	1.200																			1580050464.0	10.66	19.74
26/01/2020 14:54:26	26012020	260120	145425	136.290	12.320098	-56.713178	136.260	-0.300	0.370	0.980	136.260	-1.100	1.300																			1580050465.0	10.19	18.87
26/01/2020 14:54:27	26012020	260120	145426	136.190	12.320062	-56.713145	136.150	-0.440	0.190	1.060	136.180	-1.000	1.300																			1580050466.0	10.59	19.61
26/01/2020 14:54:28	26012020	260120	145427	136.070	12.320022	-56.713110	135.990	-0.230	-0.250	1.100	136.030	-1.500	1.400																			1580050467.0	11.28	20.89
26/01/2020 14:54:29	26012020	260120	145428	135.910	12.319982	-56.713075	135.900	0.030	-0.350	1.050	135.890	-1.700	1.400																			1580050468.0	11.47	21.24
26/01/2020 14:54:30	26012020	260120	145429	135.850	12.319943	-56.713040	135.910	0.040	0.010	0.940	135.850	-1.500	1.300																			1580050469.0	10.98	20.33
26/01/2020 14:54:31	26012020	260120	145430	135.890	12.319908	-56.713007	135.960	-0.130	0.300	0.780	135.900	-1.100	1.200																			1580050470.0	10.38	19.22
26/01/2020 14:54:32	26012020	260120	145431	135.950	12.319872	-56.712973	136.080	-0.170	0.120	0.590	135.970	-1.100	1.000																			1580050471.0	10.46	19.37
26/01/2020 14:54:33	26012020	260120	145432	136.100	12.319835	-56.712938	136.210	0.030	-0.350	0.450	136.130	-1.500	0.800																			1580050472.0	10.91	20.21
26/01/2020 14:54:34	26012020	260120	145433	136.210	12.319797	-56.712903	136.220	0.340	-0.670	0.450	136.210	-1.900	0.700																			1580050473.0	11.13	20.61
26/01/2020 14:54:35	26012020	260120	145434	136.180	12.319760	-56.712868	136.160	0.490	-0.600	0.540	136.160	-2.000	0.800																			1580050474.0	10.90	20.19
26/01/2020 14:54:36	26012020	260120	145435	136.110	12.319723	-56.712833	136.110	0.390	-0.360	0.650	136.100	-1.800	0.900																			1580050475.0	10.53	19.50
26/01/2020 14:54:37	26012020	260120	145436	136.070	12.319688	-56.712800	136.080	0.150	-0.290	0.780	136.070	-1.600	1.000																			1580050476.0	10.45	19.35
26/01/2020 14:54:38	26012020	260120	145437	136.040	12.319652	-56.712765	136.040	-0.020	-0.450	0.910	136.030	-1.700	1.200																			1580050477.0	10.75	19.91
26/01/2020 14:54:39	26012020	260120	145438	135.990	12.319613	-56.712730	135.970	-0.010	-0.660	1.010	135.980	-1.900	1.300																			1580050478.0	11.06	20.48
26/01/2020 14:54:40	26012020	260120	145439	135.910	12.319575	-56.712693	135.890	0.010	-0.660	1.180	135.900	-2.000	1.400																			1580050479.0	11.23	20.80
26/01/2020 14:54:41	26012020	260120	145440	135.820	12.319537	-56.712658	135.800	-0.160	-0.370	1.350	135.810	-1.800	1.600																			1580050480.0	11.05	20.46
26/01/2020 14:54:42	26012020	260120	145441	135.710	12.319500	-56.712625	135.620	-0.410	-0.090	1.340	135.680	-1.500	1.700																			1580050481.0	10.82	20.04
26/01/2020 14:54:43	26012020	260120	145442	135.510	12.319462	-56.712590	135.360	-0.460	-0.070	1.180	135.460	-1.400	1.600																			1580050482.0	10.94	20.26
26/01/2020 14:54:44	26012020	260120	145443	135.260	12.319423	-56.712553	135.190	-0.340	-0.080	0.910	135.220	-1.500	1.300																			1580050483.0	11.30	20.93
26/01/2020 14:54:45	26012020	260120	145444	135.160	12.319385	-56.712517	135.290	-0.300	0.180	0.640	135.180	-1.300	1.000																			1580050484.0	11.24	20.82
26/01/2020 14:54:46	26012020	260120	145445	135.320	12.319350	-56.712482	135.570	-0.340	0.490	0.410	135.380	-1.000	0.800																			1580050485.0	10.77	19.95
26/01/2020 14:54:47	26012020	260120	145446	135.630	12.319313	-56.712448	135.890	-0.240	0.500	0.240	135.700	-0.800	0.600																			1580050486.0	10.54	19.52
26/01/2020 14:54:48	26012020	260120	145447	135.940	12.319277	-56.712415	136.130	0.120	0.090	0.160	135.990	-1.100	0.500																			1580050487.0	10.74	19.89
26/01/2020 14:54:49	26012020	260120	145448	136.130	12.319238	-56.712378	136.210	0.600	-0.430	0.240	136.150	-1.600	0.500																			1580050488.0	11.02	20.41
26/01/2020 14:54:50	26012020	260120	145449	136.180	12.319202	-56.712343	136.200	0.900	-0.740	0.280	136.180	-2.000	0.600																			1580050489.0	11.03	20.43
26/01/2020 14:54:51	26012020	260120	145450	136.180	12.319167	-56.712307	136.260	0.810	-0.700	0.300	136.190	-2.100	0.600																			1580050490.0	10.80	20.00
26/01/2020 14:54:52	26012020	260120	145451	136.240	12.319132	-56.712270	136.350	0.380	-0.500	0.410	136.260	-1.900	0.700																			1580050491.0	10.50	19.45
26/01/2020 14:54:53	26012020	260120	145452	136.290	12.319097	-56.712237	136.280	-0.100	-0.490	0.630	136.280	-1.800	0.800																			1580050492.0	10.43	19.32
26/01/2020 14:54:54	26012020	260120	145453	136.160	12.319060	-56.712203	136.060	-0.330	-0.690	0.940	136.120	-2.000	1.100																			1580050493.0	10.85	20.09
26/01/2020 14:54:55	26012020	260120	145454	135.900	12.319018	-56.712168	135.750	-0.320	-0.790	1.230	135.840	-2.100	1.500																			1580050494.0	11.27	20.87
26/01/2020 14:54:56	26012020	260120	145455	135.590	12.318978	-56.712135	135.510	-0.240	-0.600	1.160	135.540	-2.000	1.500																			1580050495.0	11.26	20.85
26/01/2020 14:54:57	26012020	260120	145456	135.400	12.318942	-56.712098	135.420	-0.230	-0.250	0.890	135.380	-1.700	1.300																			1580050496.0	11.06	20.48
26/01/2020 14:54:58	26012020	260120	145457	135.360	12.318905	-56.712063	135.430	-0.270	-0.000	0.710	135.370	-1.400	1.100																			1580050497.0	11.00	20.37
26/01/2020 14:54:59	26012020	260120	145458	135.400	12.318867	-56.712027	135.480	-0.320	0.110	0.660	135.410	-1.300	1.000																			1580050498.0	11.14	20.63
26/01/2020 14:55:00	26012020	260120	145459	135.460	12.318828	-56.711990	135.610	-0.360	0.270	0.770	135.480	-1.200	1.000	1016.40	26.10	26.20	19.80	19.90	868.00	68.00	68.00	376.00	29.20	345.00	9.70	102.00	4.60	63497	3172.00	27.60	27.50	1580050499.0	11.21	20.76
26/01/2020 14:55:01	26012020	260120	145500	135.620	12.318790	-56.711957	135.880	-0.410	0.490	0.870	135.680	-0.900	1.200																			1580050500.0	10.98	20.33
26/01/2020 14:55:02	26012020	260120	145501	135.850	12.318752	-56.711923	136.100	-0.270	0.410	0.870	135.900	-0.900	1.200																			1580050501.0	10.67	19.76
26/01/2020 14:55:03	26012020	260120	145502	136.070	12.318715	-56.711890	136.110	0.180	-0.140	0.870	136.080	-1.300	1.200																			1580050502.0	10.88	20.15
26/01/2020 14:55:04	26012020	260120	145503	136.060	12.318677	-56.711852	136.080	0.670	-0.670	0.800	136.050	-1.900	1.200																			1580050503.0	11.35	21.02
26/01/2020 14:55:05	26012020	260120	145504	136.060	12.318640	-56.711815	136.210	0.740	-0.550	0.600	136.080	-2.000	1.000																			1580050504.0	11.22	20.78
26/01/2020 14:55:06	26012020	260120	145505	136.240	12.318607	-56.711778	136.410	0.330	-0.050	0.420	136.280	-1.600	0.800																			1580050505.0	10.40	19.26
26/01/2020 14:55:07	26012020	260120	145506	136.430	12.318573	-56.711745	136.490	-0.070	-0.010	0.440	136.460	-1.300	0.700																			1580050506.0	10.02	18.56
26/01/2020 14:55:08	26012020	260120	145507	136.450	12.318537	-56.711712	136.390	-0.050	-0.590	0.580	136.430	-1.700	0.900																			1580050507.0	10.72	19.85
26/01/2020 14:55:09	26012020	260120	145508	136.330	12.318497	-56.711675	136.260	0.240	-0.990	0.630	136.300	-2.300	0.900																			1580050508.0	11.45	21.21
26/01/2020 14:55:10	26012020	260120	145509	136.210	12.318458	-56.711638	136.180	0.350	-0.850	0.560	136.200	-2.300	0.900																			1580050509.0	11.29	20.91
26/01/2020 14:55:11	26012020	260120	145510	136.150	12.318422	-56.711603	136.160	0.120	-0.470	0.480	136.140	-2.000	0.800																			1580050510.0	10.83	20.06
26/01/2020 14:55:12	26012020	260120	145511	136.130	12.318385	-56.711570	136.120	-0.190	-0.210	0.600	136.120	-1.600	0.800																			1580050511.0	10.72	19.85
26/01/2020 14:55:13	26012020	260120	145512	136.060	12.318347	-56.711535	136.000	-0.330	-0.150	0.830	136.040	-1.500	1.100																			1580050512.0	10.96	20.30
26/01/2020 14:55:14	26012020	260120	145513	135.910	12.318307	-56.711500	135.850	-0.330	-0.120	1.020	135.880	-1.500	1.300																			1580050513.0	11.23	20.80
26/01/2020 14:55:15	26012020	260120	145514	135.780	12.318268	-56.711465	135.800	-0.320	-0.030	1.130	135.760	-1.400	1.400																			1580050514.0	11.22	20.78
26/01/2020 14:55:16	26012020	260120	145515	135.750	12.318230	-56.711430	135.880	-0.360	0.050	0.980	135.760	-1.300	1.400																			1580050515.0	11.11	20.58
26/01/2020 14:55:17	26012020	260120	145516	135.890	12.318192	-56.711395	136.080	-0.410	0.100	0.740	135.920	-1.300	1.100																			1580050516.0	11.01	20.39
26/01/2020 14:55:18	26012020	260120	145517	136.110	12.318155	-56.711360	136.230	-0.350	0.040	0.650	136.140	-1.300	1.000																			1580050517.0	10.96	20.30
26/01/2020 14:55:19	26012020	260120	145518	136.220	12.318117	-56.711325	136.280	-0.100	-0.110	0.620	136.230	-1.400	1.000																			1580050518.0	10.98	20.33
26/01/2020 14:55:20	26012020	260120	145519	136.240	12.318078	-56.711292	136.320	0.310	-0.260	0.560	136.250	-1.600	0.900																			1580050519.0	11.03	20.43
26/01/2020 14:55:21	26012020	260120	145520	136.320	12.318042	-56.711255	136.460	0.660	-0.260	0.420	136.350	-1.600	0.800																			1580050520.0	10.99	20.35
26/01/2020 14:55:22	26012020	260120	145521	136.470	12.318005	-56.711218	136.610	0.780	-0.170	0.270	136.510	-1.600	0.700																			1580050521.0	10.78	19.96
26/01/2020 14:55:23	26012020	260120	145522	136.620	12.317972	-56.711182	136.710	0.650	-0.180	0.280	136.640	-1.500	0.600																			1580050522.0	10.71	19.83
26/01/2020 14:55:24	26012020	260120	145523	136.690	12.317935	-56.711147	136.750	0.370	-0.320	0.510	136.700	-1.600	0.700																			1580050523.0	10.80	20.00
26/01/2020 14:55:25	26012020	260120	145524	136.710	12.317898	-56.711112	136.730	0.090	-0.560	0.850	136.710	-1.800	1.100																			1580050524.0	10.92	20.22
26/01/2020 14:55:26	26012020	260120	145525	136.680	12.317860	-56.711077	136.670	-0.110	-0.820	1.090	136.670	-2.100	1.300																			1580050525.0	11.10	20.56
26/01/2020 14:55:27	26012020	260120	145526	136.610	12.317820	-56.711042	136.640	-0.310	-0.820	1.250	136.600	-2.200	1.500																			1580050526.0	11.25	20.84
26/01/2020 14:55:28	26012020	260120	145527	136.580	12.317780	-56.711008	136.580	-0.580	-0.530	1.290	136.570	-2.000	1.600																			1580050527.0	11.08	20.52
26/01/2020 14:55:29	26012020	260120	145528	136.500	12.317742	-56.710975	136.460	-0.760	-0.190	1.110	136.480	-1.700	1.500																			1580050528.0	10.86	20.11
26/01/2020 14:55:30	26012020	260120	145529	136.370	12.317703	-56.710942	136.320	-0.640	-0.040	0.690	136.350	-1.400	1.200																			1580050529.0	10.88	20.15
26/01/2020 14:55:31	26012020	260120	145530	136.260	12.317665	-56.710907	136.210	-0.190	-0.200	0.310	136.240	-1.500	0.800																			1580050530.0	11.16	20.67
26/01/2020 14:55:32	26012020	260120	145531	136.180	12.317627	-56.710868	136.220	0.330	-0.370	0.030	136.180	-1.700	0.400																			1580050531.0	11.54	21.37
26/01/2020 14:55:33	26012020	260120	145532	136.240	12.317588	-56.710830	136.400	0.580	-0.170	-0.080	136.280	-1.600	0.300																			1580050532.0	11.51	21.32
26/01/2020 14:55:34	26012020	260120	145533	136.430	12.317553	-56.710793	136.610	0.420	0.330	0.150	136.480	-1.200	0.400																			1580050533.0	10.98	20.33
26/01/2020 14:55:35	26012020	260120	145534	136.640	12.317517	-56.710760	136.790	0.110	0.670	0.510	136.670	-0.800	0.700																			1580050534.0	10.51	19.46
26/01/2020 14:55:36	26012020	260120	145535	136.800	12.317480	-56.710725	136.990	-0.100	0.520	0.750	136.840	-0.700	1.000																			1580050535.0	10.61	19.65
26/01/2020 14:55:37	26012020	260120	145536	137.010	12.317442	-56.710692	137.210	-0.080	-0.060	0.850	137.050	-1.200	1.200																			1580050536.0	10.99	20.35
26/01/2020 14:55:38	26012020	260120	145537	137.200	12.317402	-56.710657	137.360	0.100	-0.700	0.770	137.240	-1.900	1.100																			1580050537.0	11.32	20.96
26/01/2020 14:55:39	26012020	260120	145538	137.320	12.317362	-56.710622	137.390	0.280	-0.870	0.570	137.340	-2.200	1.000																			1580050538.0	11.29	20.91
26/01/2020 14:55:40	26012020	260120	145539	137.330	12.317325	-56.710587	137.320	0.300	-0.590	0.320	137.320	-2.100	0.700																			1580050539.0	10.75	19.91
26/01/2020 14:55:41	26012020	260120	145540	137.260	12.317290	-56.710553	137.310	0.140	-0.380	0.060	137.260	-1.800	0.500																			1580050540.0	10.41	19.28
26/01/2020 14:55:42	26012020	260120	145541	137.270	12.317255	-56.710518	137.290	-0.050	-0.600	0.030	137.270	-1.800	0.300																			1580050541.0	10.66	19.74
26/01/2020 14:55:43	26012020	260120	145542	137.220	12.317217	-56.710482	137.130	-0.140	-0.990	0.300	137.190	-2.200	0.500																			1580050542.0	11.25	20.84
26/01/2020 14:55:44	26012020	260120	145543	137.000	12.317175	-56.710447	136.830	-0.120	-1.090	0.730	136.930	-2.500	0.900																			1580050543.0	11.59	21.46
26/01/2020 14:55:45	26012020	260120	145544	136.680	12.317135	-56.710412	136.620	-0.160	-0.640	1.020	136.630	-2.200	1.300																			1580050544.0	11.46	21.22
26/01/2020 14:55:46	26012020	260120	145545	136.510	12.317095	-56.710378	136.550	-0.370	0.120	1.020	136.500	-1.500	1.400																			1580050545.0	10.99	20.35
26/01/2020 14:55:47	26012020	260120	145546	136.480	12.317058	-56.710345	136.570	-0.530	0.560	0.820	136.480	-0.900	1.200																			1580050546.0	10.74	19.89
26/01/2020 14:55:48	26012020	260120	145547	136.500	12.317018	-56.710310	136.530	-0.330	0.410	0.560	136.500	-0.800	1.000																			1580050547.0	11.07	20.50
26/01/2020 14:55:49	26012020	260120	145548	136.460	12.316978	-56.710273	136.520	0.160	0.100	0.380	136.460	-1.200	0.800																			1580050548.0	11.66	21.59
26/01/2020 14:55:50	26012020	260120	145549	136.510	12.316940	-56.710235	136.720	0.480	0.230	0.260	136.540	-1.200	0.600																			1580050549.0	11.58	21.45
26/01/2020 14:55:51	26012020	260120	145550	136.760	12.316903	-56.710200	137.070	0.410	0.610	0.220	136.830	-0.900	0.500																			1580050550.0	10.79	19.98
26/01/2020 14:55:52	26012020	260120	145551	137.040	12.316870	-56.710167	137.400	0.180	0.530	0.310	137.120	-0.700	0.600																			1580050551.0	10.30	19.08
26/01/2020 14:55:53	26012020	260120	145552	137.410	12.316832	-56.710132	137.580	0.090	-0.180	0.550	137.450	-1.200	0.800																			1580050552.0	10.68	19.78
26/01/2020 14:55:54	26012020	260120	145553	137.530	12.316792	-56.710098	137.620	0.170	-0.950	0.890	137.540	-2.000	1.100																			1580050553.0	11.27	20.87
26/01/2020 14:55:55	26012020	260120	145554	137.550	12.316752	-56.710065	137.560	0.260	-1.250	1.100	137.540	-2.500	1.400																			1580050554.0	11.25	20.84
26/01/2020 14:55:56	26012020	260120	145555	137.460	12.316713	-56.710032	137.440	0.270	-1.110	0.950	137.430	-2.500	1.400																			1580050555.0	10.84	20.08
26/01/2020 14:55:57	26012020	260120	145556	137.340	12.316677	-56.709997	137.310	0.110	-0.790	0.690	137.310	-2.200	1.100																			1580050556.0	10.61	19.65
26/01/2020 14:55:58	26012020	260120	145557	137.210	12.316642	-56.709963	137.130	-0.130	-0.670	0.580	137.180	-2.000	0.900																			1580050557.0	10.66	19.74
26/01/2020 14:55:59	26012020	260120	145558	137.010	12.316603	-56.709927	136.850	-0.220	-0.730	0.600	136.960	-2.000	0.900																			1580050558.0	11.12	20.59
26/01/2020 14:56:00	26012020	260120	145559	136.720	12.316563	-56.709892	136.550	-0.120	-0.640	0.770	136.650	-2.100	1.000	1016.40	26.20	26.20	19.50	19.60	880.00	66.00	67.00	376.00	29.20	341.00	9.10	92.00	4.20	64257	3107.00	27.60	27.50	1580050559.0	11.52	21.34
26/01/2020 14:56:01	26012020	260120	145600	136.410	12.316523	-56.709855	136.290	-0.040	-0.250	0.930	136.360	-1.800	1.200																			1580050560.0	11.48	21.26
26/01/2020 14:56:02	26012020	260120	145601	136.200	12.316483	-56.709820	136.230	-0.150	0.240	0.900	136.180	-1.300	1.300																			1580050561.0	11.23	20.80
26/01/2020 14:56:03	26012020	260120	145602	136.220	12.316447	-56.709783	136.430	-0.360	0.580	0.770	136.260	-0.900	1.100																			1580050562.0	11.12	20.59
26/01/2020 14:56:04	26012020	260120	145603	136.490	12.316408	-56.709748	136.780	-0.480	0.620	0.670	136.560	-0.700	1.000																			1580050563.0	11.15	20.65
26/01/2020 14:56:05	26012020	260120	145604	136.860	12.316368	-56.709713	137.170	-0.390	0.440	0.530	136.940	-0.800	0.900																			1580050564.0	11.26	20.85
26/01/2020 14:56:06	26012020	260120	145605	137.240	12.316328	-56.709678	137.520	-0.140	0.250	0.380	137.310	-1.000	0.800																			1580050565.0	11.24	20.82
26/01/2020 14:56:07	26012020	260120	145606	137.580	12.316290	-56.709643	137.810	0.170	0.060	0.230	137.640	-1.200	0.600																			1580050566.0	10.99	20.35
26/01/2020 14:56:08	26012020	260120	145607	137.850	12.316253	-56.709610	137.970	0.440	-0.280	0.120	137.880	-1.500	0.500																			1580050567.0	10.86	20.11
26/01/2020 14:56:09	26012020	260120	145608	137.960	12.316215	-56.709573	137.960	0.600	-0.630	0.060	137.960	-1.900	0.400																			1580050568.0	10.98	20.33
26/01/2020 14:56:10	26012020	260120	145609	137.930	12.316178	-56.709538	137.940	0.580	-0.730	0.100	137.930	-2.100	0.400																			1580050569.0	10.98	20.33
26/01/2020 14:56:11	26012020	260120	145610	137.930	12.316142	-56.709503	137.930	0.390	-0.530	0.270	137.930	-2.000	0.500																			1580050570.0	10.71	19.83
26/01/2020 14:56:12	26012020	260120	145611	137.880	12.316105	-56.709472	137.770	0.130	-0.480	0.490	137.850	-1.800	0.700																			1580050571.0	10.51	19.46
26/01/2020 14:56:13	26012020	260120	145612	137.660	12.316067	-56.709438	137.520	-0.010	-0.750	0.710	137.600	-2.000	1.000																			1580050572.0	10.88	20.15
26/01/2020 14:56:14	26012020	260120	145613	137.410	12.316027	-56.709403	137.360	-0.090	-0.880	0.940	137.370	-2.200	1.200																			1580050573.0	11.38	21.08
26/01/2020 14:56:15	26012020	260120	145614	137.280	12.315987	-56.709368	137.290	-0.160	-0.660	1.050	137.270	-2.100	1.400																			1580050574.0	11.29	20.91
26/01/2020 14:56:16	26012020	260120	145615	137.240	12.315947	-56.709335	137.220	-0.250	-0.410	1.000	137.230	-1.800	1.300																			1580050575.0	11.05	20.46
26/01/2020 14:56:17	26012020	260120	145616	137.140	12.315908	-56.709300	137.040	-0.250	-0.340	0.980	137.110	-1.700	1.300																			1580050576.0	11.19	20.72
26/01/2020 14:56:18	26012020	260120	145617	136.960	12.315868	-56.709263	136.880	-0.200	-0.260	0.980	136.920	-1.600	1.300																			1580050577.0	11.49	21.28
26/01/2020 14:56:19	26012020	260120	145618	136.820	12.315828	-56.709227	136.810	-0.220	0.000	0.920	136.810	-1.400	1.300																			1580050578.0	11.48	21.26
26/01/2020 14:56:20	26012020	260120	145619	136.800	12.315790	-56.709192	136.870	-0.310	0.260	0.760	136.810	-1.200	1.200																			1580050579.0	11.23	20.80
26/01/2020 14:56:21	26012020	260120	145620	136.900	12.315752	-56.709157	137.040	-0.350	0.380	0.600	136.930	-1.000	1.000																			1580050580.0	11.18	20.71
26/01/2020 14:56:22	26012020	260120	145621	137.080	12.315712	-56.709122	137.260	-0.260	0.390	0.480	137.130	-0.900	0.900																			1580050581.0	11.15	20.65
26/01/2020 14:56:23	26012020	260120	145622	137.310	12.315673	-56.709087	137.490	-0.060	0.250	0.280	137.360	-1.000	0.700																			1580050582.0	11.12	20.59
26/01/2020 14:56:24	26012020	260120	145623	137.530	12.315635	-56.709052	137.700	0.140	0.070	0.110	137.580	-1.200	0.500																			1580050583.0	11.11	20.58
26/01/2020 14:56:25	26012020	260120	145624	137.760	12.315598	-56.709017	137.930	0.230	-0.030	0.160	137.810	-1.300	0.500																			1580050584.0	10.95	20.28
26/01/2020 14:56:26	26012020	260120	145625	137.980	12.315560	-56.708983	138.050	0.300	-0.170	0.270	138.010	-1.400	0.600																			1580050585.0	10.70	19.82
26/01/2020 14:56:27	26012020	260120	145626	138.040	12.315523	-56.708950	137.960	0.450	-0.490	0.370	138.030	-1.700	0.700																			1580050586.0	10.72	19.85
26/01/2020 14:56:28	26012020	260120	145627	137.910	12.315485	-56.708915	137.790	0.540	-0.830	0.530	137.870	-2.100	0.800																			1580050587.0	10.98	20.33
26/01/2020 14:56:29	26012020	260120	145628	137.750	12.315447	-56.708880	137.700	0.430	-0.980	0.650	137.730	-2.300	0.900																			1580050588.0	11.06	20.48
26/01/2020 14:56:30	26012020	260120	145629	137.680	12.315408	-56.708845	137.580	0.210	-0.960	0.860	137.670	-2.300	1.100																			1580050589.0	10.96	20.30
26/01/2020 14:56:31	26012020	260120	145630	137.520	12.315370	-56.708812	137.370	0.050	-0.930	1.060	137.470	-2.300	1.300																			1580050590.0	11.00	20.37
26/01/2020 14:56:32	26012020	260120	145631	137.280	12.315330	-56.708777	137.160	-0.030	-0.860	1.040	137.240	-2.200	1.400																			1580050591.0	11.28	20.89
26/01/2020 14:56:33	26012020	260120	145632	137.080	12.315292	-56.708740	136.980	-0.160	-0.610	0.870	137.050	-2.100	1.300																			1580050592.0	11.43	21.17
26/01/2020 14:56:34	26012020	260120	145633	136.910	12.315252	-56.708703	136.840	-0.400	-0.170	0.750	136.890	-1.700	1.100																			1580050593.0	11.36	21.04
26/01/2020 14:56:35	26012020	260120	145634	136.790	12.315213	-56.708668	136.800	-0.710	0.220	0.740	136.780	-1.200	1.100																			1580050594.0	11.22	20.78
26/01/2020 14:56:36	26012020	260120	145635	136.800	12.315173	-56.708633	136.910	-0.910	0.370	0.820	136.820	-1.000	1.100																			1580050595.0	11.31	20.95
26/01/2020 14:56:37	26012020	260120	145636	136.930	12.315132	-56.708600	137.080	-0.850	0.430	0.940	136.970	-0.900	1.200																			1580050596.0	11.47	21.24
26/01/2020 14:56:38	26012020	260120	145637	137.100	12.315090	-56.708567	137.250	-0.520	0.500	0.950	137.140	-0.900	1.300																			1580050597.0	11.39	21.09
26/01/2020 14:56:39	26012020	260120	145638	137.290	12.315050	-56.708533	137.450	-0.030	0.470	0.700	137.320	-0.800	1.200																			1580050598.0	11.16	20.67
26/01/2020 14:56:40	26012020	260120	145639	137.460	12.315012	-56.708497	137.750	0.400	0.300	0.220	137.520	-1.000	0.700																			1580050599.0	11.06	20.48
26/01/2020 14:56:41	26012020	260120	145640	137.840	12.314977	-56.708460	137.990	0.670	-0.000	-0.120	137.900	-1.200	0.300																			1580050600.0	11.01	20.39
26/01/2020 14:56:42	26012020	260120	145641	138.040	12.314940	-56.708423	138.040	0.780	-0.350	-0.190	138.040	-1.600	0.100																			1580050601.0	10.97	20.32
26/01/2020 14:56:43	26012020	260120	145642	138.040	12.314903	-56.708388	137.970	0.790	-0.650	0.010	138.030	-1.900	0.200																			1580050602.0	10.92	20.22
26/01/2020 14:56:44	26012020	260120	145643	137.970	12.314867	-56.708353	137.850	0.700	-0.890	0.330	137.940	-2.100	0.500																			1580050603.0	10.88	20.15
26/01/2020 14:56:45	26012020	260120	145644	137.800	12.314828	-56.708318	137.650	0.500	-1.030	0.580	137.760	-2.300	0.800																			1580050604.0	10.93	20.24
26/01/2020 14:56:46	26012020	260120	145645	137.570	12.314790	-56.708283	137.380	0.190	-1.010	0.730	137.520	-2.400	1.000																			1580050605.0	11.00	20.37
26/01/2020 14:56:47	26012020	260120	145646	137.290	12.314752	-56.708250	137.120	-0.180	-0.870	0.890	137.230	-2.300	1.200																			1580050606.0	11.04	20.45
26/01/2020 14:56:48	26012020	260120	145647	137.040	12.314712	-56.708215	136.950	-0.500	-0.720	0.960	137.000	-2.100	1.300																			1580050607.0	11.17	20.69
26/01/2020 14:56:49	26012020	260120	145648	136.890	12.314672	-56.708182	136.850	-0.760	-0.450	0.930	136.860	-1.900	1.300																			1580050608.0	11.37	21.06
26/01/2020 14:56:50	26012020	260120	145649	136.800	12.314630	-56.708148	136.820	-0.870	-0.090	0.810	136.800	-1.600	1.200																			1580050609.0	11.36	21.04
26/01/2020 14:56:51	26012020	260120	145650	136.800	12.314590	-56.708113	136.910	-0.720	0.210	0.580	136.820	-1.200	1.000																			1580050610.0	11.30	20.93
26/01/2020 14:56:52	26012020	260120	145651	136.930	12.314550	-56.708078	137.090	-0.380	0.330	0.330	136.970	-1.000	0.700																			1580050611.0	11.35	21.02
26/01/2020 14:56:53	26012020	260120	145652	137.130	12.314510	-56.708042	137.290	-0.050	0.250	0.120	137.170	-1.000	0.500																			1580050612.0	11.46	21.22
26/01/2020 14:56:54	26012020	260120	145653	137.290	12.314472	-56.708005	137.480	0.160	0.160	-0.000	137.320	-1.100	0.400																			1580050613.0	11.50	21.30
26/01/2020 14:56:55	26012020	260120	145654	137.510	12.314433	-56.707968	137.680	0.290	0.210	-0.020	137.560	-1.200	0.300																			1580050614.0	11.30	20.93
26/01/2020 14:56:56	26012020	260120	145655	137.730	12.314395	-56.707933	137.880	0.380	0.190	0.040	137.770	-1.100	0.300																			1580050615.0	10.99	20.35
26/01/2020 14:56:57	26012020	260120	145656	137.910	12.314358	-56.707898	137.940	0.490	-0.120	0.360	137.920	-1.300	0.500																			1580050616.0	10.95	20.28
26/01/2020 14:56:58	26012020	260120	145657	137.890	12.314318	-56.707863	137.790	0.560	-0.520	0.710	137.860	-1.700	0.900																			1580050617.0	11.20	20.74
26/01/2020 14:56:59	26012020	260120	145658	137.710	12.314280	-56.707828	137.630	0.450	-0.560	0.820	137.680	-1.900	1.100																			1580050618.0	11.26	20.85
26/01/2020 14:57:00	26012020	260120	145659	137.590	12.314242	-56.707793	137.640	0.130	-0.260	0.790	137.590	-1.700	1.100	1016.40	26.20	26.20	19.80	19.90	867.00	67.00	68.00	377.00	29.20	348.00	9.00	105.00	3.60	63872	3187.00	27.60	27.60	1580050619.0	10.80	20.00
26/01/2020 14:57:01	26012020	260120	145700	137.650	12.314207	-56.707760	137.740	-0.220	-0.180	0.700	137.670	-1.500	1.100																			1580050620.0	10.47	19.39
26/01/2020 14:57:02	26012020	260120	145701	137.730	12.314168	-56.707727	137.680	-0.340	-0.630	0.670	137.730	-1.800	1.000																			1580050621.0	10.83	20.06
26/01/2020 14:57:03	26012020	260120	145702	137.590	12.314127	-56.707693	137.380	-0.180	-1.150	0.830	137.530	-2.300	1.100																			1580050622.0	11.53	21.35
26/01/2020 14:57:04	26012020	260120	145703	137.260	12.314083	-56.707658	137.130	-0.030	-1.090	0.880	137.200	-2.500	1.200																			1580050623.0	11.71	21.69
26/01/2020 14:57:05	26012020	260120	145704	137.080	12.314045	-56.707623	137.080	-0.070	-0.530	0.770	137.070	-2.100	1.100																			1580050624.0	11.13	20.61
26/01/2020 14:57:06	26012020	260120	145705	137.060	12.314007	-56.707590	137.060	-0.110	-0.140	0.600	137.060	-1.600	1.000																			1580050625.0	10.80	20.00
26/01/2020 14:57:07	26012020	260120	145706	137.030	12.313968	-56.707553	137.020	-0.010	-0.140	0.360	137.020	-1.500	0.800																			1580050626.0	11.21	20.76
26/01/2020 14:57:08	26012020	260120	145707	137.000	12.313928	-56.707517	137.090	0.100	-0.090	0.240	137.000	-1.500	0.600																			1580050627.0	11.68	21.63
26/01/2020 14:57:09	26012020	260120	145708	137.120	12.313890	-56.707478	137.310	0.050	0.230	0.210	137.160	-1.200	0.600																			1580050628.0	11.51	21.32
26/01/2020 14:57:10	26012020	260120	145709	137.350	12.313852	-56.707443	137.500	-0.070	0.480	0.240	137.390	-0.900	0.500																			1580050629.0	11.06	20.48
26/01/2020 14:57:11	26012020	260120	145710	137.510	12.313813	-56.707408	137.580	-0.070	0.300	0.460	137.530	-0.900	0.700																			1580050630.0	11.08	20.52
26/01/2020 14:57:12	26012020	260120	145711	137.580	12.313773	-56.707373	137.670	0.040	-0.110	0.730	137.590	-1.300	1.000																			1580050631.0	11.47	21.24
26/01/2020 14:57:13	26012020	260120	145712	137.690	12.313732	-56.707338	137.880	0.020	-0.250	0.910	137.730	-1.600	1.200																			1580050632.0	11.54	21.37
26/01/2020 14:57:14	26012020	260120	145713	137.920	12.313693	-56.707305	138.100	-0.170	-0.110	0.940	137.970	-1.500	1.300																			1580050633.0	11.04	20.45
26/01/2020 14:57:15	26012020	260120	145714	138.100	12.313655	-56.707273	138.120	-0.280	-0.110	0.830	138.110	-1.400	1.200																			1580050634.0	10.66	19.74
26/01/2020 14:57:16	26012020	260120	145715	138.040	12.313615	-56.707240	137.930	-0.080	-0.450	0.690	138.010	-1.600	1.100																			1580050635.0	10.89	20.17
26/01/2020 14:57:17	26012020	260120	145716	137.830	12.313577	-56.707205	137.740	0.270	-0.710	0.470	137.790	-2.000	0.900																			1580050636.0	11.28	20.89
26/01/2020 14:57:18	26012020	260120	145717	137.700	12.313538	-56.707168	137.670	0.470	-0.650	0.170	137.680	-2.000	0.600																			1580050637.0	11.20	20.74
26/01/2020 14:57:19	26012020	260120	145718	137.640	12.313502	-56.707133	137.640	0.410	-0.450	-0.070	137.640	-1.800	0.300																			1580050638.0	10.92	20.22
26/01/2020 14:57:20	26012020	260120	145719	137.620	12.313465	-56.707098	137.610	0.230	-0.430	-0.080	137.610	-1.700	0.200																			1580050639.0	10.87	20.13
26/01/2020 14:57:21	26012020	260120	145720	137.570	12.313425	-56.707062	137.600	0.040	-0.550	0.190	137.570	-1.800	0.400																			1580050640.0	11.18	20.71
26/01/2020 14:57:22	26012020	260120	145721	137.550	12.313385	-56.707028	137.580	-0.080	-0.620	0.580	137.540	-1.900	0.800																			1580050641.0	11.42	21.15
26/01/2020 14:57:23	26012020	260120	145722	137.520	12.313343	-56.706995	137.530	-0.090	-0.540	0.820	137.510	-1.900	1.100																			1580050642.0	11.44	21.19
26/01/2020 14:57:24	26012020	260120	145723	137.460	12.313302	-56.706960	137.480	-0.050	-0.350	0.850	137.450	-1.800	1.200																			1580050643.0	11.39	21.09
26/01/2020 14:57:25	26012020	260120	145724	137.420	12.313263	-56.706925	137.470	-0.040	-0.090	0.700	137.410	-1.500	1.100																			1580050644.0	11.34	21.00
26/01/2020 14:57:26	26012020	260120	145725	137.420	12.313223	-56.706888	137.510	-0.150	0.180	0.550	137.430	-1.200	0.900																			1580050645.0	11.29	20.91
26/01/2020 14:57:27	26012020	260120	145726	137.490	12.313185	-56.706853	137.580	-0.320	0.300	0.520	137.500	-1.100	0.900																			1580050646.0	11.22	20.78
26/01/2020 14:57:28	26012020	260120	145727	137.560	12.313147	-56.706818	137.670	-0.480	0.330	0.590	137.570	-1.000	0.900																			1580050647.0	11.29	20.91
26/01/2020 14:57:29	26012020	260120	145728	137.660	12.313107	-56.706783	137.800	-0.540	0.330	0.750	137.690	-1.000	1.000																			1580050648.0	11.20	20.74
26/01/2020 14:57:30	26012020	260120	145729	137.790	12.313065	-56.706752	137.880	-0.350	0.050	0.910	137.790	-1.100	1.200																			1580050649.0	11.07	20.50
26/01/2020 14:57:31	26012020	260120	145730	137.840	12.313025	-56.706718	137.860	0.140	-0.460	0.930	137.830	-1.600	1.300																			1580050650.0	11.32	20.96
26/01/2020 14:57:32	26012020	260120	145731	137.800	12.312983	-56.706683	137.830	0.580	-0.630	0.750	137.790	-2.000	1.200																			1580050651.0	11.51	21.32
26/01/2020 14:57:33	26012020	260120	145732	137.800	12.312947	-56.706648	137.940	0.610	-0.230	0.430	137.820	-1.800	0.900																			1580050652.0	10.99	20.35
26/01/2020 14:57:34	26012020	260120	145733	137.920	12.312912	-56.706613	138.100	0.330	0.090	0.090	137.960	-1.300	0.500																			1580050653.0	10.28	19.04
26/01/2020 14:57:35	26012020	260120	145734	138.090	12.312877	-56.706580	138.010	0.210	-0.390	0.060	138.080	-1.400	0.400																			1580050654.0	10.46	19.37
26/01/2020 14:57:36	26012020	260120	145735	137.900	12.312837	-56.706543	137.670	0.400	-1.310	0.420	137.820	-2.300	0.600																			1580050655.0	11.51	21.32
26/01/2020 14:57:37	26012020	260120	145736	137.540	12.312795	-56.706505	137.480	0.480	-1.460	0.680	137.500	-2.900	0.900																			1580050656.0	12.08	22.37
26/01/2020 14:57:38	26012020	260120	145737	137.420	12.312755	-56.706470	137.520	0.140	-0.670	0.740	137.430	-2.400	1.100																			1580050657.0	11.29	20.91
26/01/2020 14:57:39	26012020	260120	145738	137.520	12.312718	-56.706438	137.660	-0.390	0.110	0.630	137.540	-1.400	1.000																			1580050658.0	10.48	19.41
26/01/2020 14:57:40	26012020	260120	145739	137.660	12.312680	-56.706405	137.750	-0.660	0.190	0.570	137.680	-1.100	0.900																			1580050659.0	10.74	19.89
26/01/2020 14:57:41	26012020	260120	145740	137.710	12.312638	-56.706370	137.700	-0.530	-0.220	0.730	137.700	-1.400	1.000																			1580050660.0	11.60	21.48
26/01/2020 14:57:42	26012020	260120	145741	137.630	12.312595	-56.706335	137.640	-0.230	-0.390	0.820	137.610	-1.700	1.200																			1580050661.0	12.08	22.37
26/01/2020 14:57:43	26012020	260120	145742	137.610	12.312553	-56.706298	137.790	-0.140	0.020	0.630	137.640	-1.500	1.000																			1580050662.0	11.70	21.67
26/01/2020 14:57:44	26012020	260120	145743	137.820	12.312515	-56.706265	138.050	-0.370	0.590	0.440	137.870	-0.900	0.800																			1580050663.0	10.93	20.24
26/01/2020 14:57:45	26012020	260120	145744	138.080	12.312478	-56.706232	138.200	-0.590	0.710	0.470	138.110	-0.600	0.800																			1580050664.0	10.62	19.67
26/01/2020 14:57:46	26012020	260120	145745	138.150	12.312438	-56.706200	138.100	-0.400	0.200	0.690	138.140	-0.900	0.900																			1580050665.0	10.99	20.35
26/01/2020 14:57:47	26012020	260120	145746	137.990	12.312395	-56.706165	137.890	0.180	-0.480	0.860	137.960	-1.600	1.200																			1580050666.0	11.56	21.41
26/01/2020 14:57:48	26012020	260120	145747	137.800	12.312355	-56.706130	137.810	0.690	-0.650	0.630	137.790	-2.000	1.100																			1580050667.0	11.60	21.48
26/01/2020 14:57:49	26012020	260120	145748	137.790	12.312317	-56.706095	137.880	0.750	-0.320	0.260	137.800	-1.800	0.700																			1580050668.0	10.94	20.26
26/01/2020 14:57:50	26012020	260120	145749	137.870	12.312283	-56.706060	137.930	0.480	-0.050	0.180	137.890	-1.400	0.500																			1580050669.0	10.38	19.22
26/01/2020 14:57:51	26012020	260120	145750	137.890	12.312247	-56.706027	137.830	0.290	-0.230	0.350	137.870	-1.400	0.600																			1580050670.0	10.47	19.39
26/01/2020 14:57:52	26012020	260120	145751	137.760	12.312207	-56.705993	137.730	0.380	-0.760	0.540	137.730	-1.900	0.800																			1580050671.0	11.06	20.48
26/01/2020 14:57:53	26012020	260120	145752	137.690	12.312167	-56.705958	137.760	0.490	-1.140	0.620	137.690	-2.400	0.900																			1580050672.0	11.54	21.37
26/01/2020 14:57:54	26012020	260120	145753	137.760	12.312127	-56.705922	137.890	0.300	-0.990	0.600	137.780	-2.400	0.900																			1580050673.0	11.45	21.21
26/01/2020 14:57:55	26012020	260120	145754	137.870	12.312088	-56.705887	137.950	-0.180	-0.490	0.640	137.880	-2.000	0.900																			1580050674.0	10.97	20.32
26/01/2020 14:57:56	26012020	260120	145755	137.910	12.312050	-56.705855	137.900	-0.620	-0.190	0.850	137.910	-1.600	1.100																			1580050675.0	10.78	19.96
26/01/2020 14:57:57	26012020	260120	145756	137.810	12.312010	-56.705822	137.730	-0.770	-0.310	1.100	137.770	-1.600	1.400																			1580050676.0	11.22	20.78
26/01/2020 14:57:58	26012020	260120	145757	137.660	12.311967	-56.705787	137.560	-0.700	-0.460	1.210	137.620	-1.800	1.500																			1580050677.0	11.83	21.91
26/01/2020 14:57:59	26012020	260120	145758	137.470	12.311923	-56.705752	137.510	-0.640	-0.150	1.180	137.460	-1.700	1.500																			1580050678.0	11.86	21.96
26/01/2020 14:58:00	26012020	260120	145759	137.470	12.311883	-56.705718	137.630	-0.670	0.510	0.900	137.490	-1.100	1.400	1016.40	26.10	26.20	19.80	19.90	881.00	68.00	68.00	377.00	29.20	343.00	9.00	94.00	3.90	64441	3190.00	27.60	27.60	1580050679.0	11.23	20.80
26/01/2020 14:58:01	26012020	260120	145800	137.650	12.311845	-56.705685	137.880	-0.580	0.900	0.450	137.700	-0.500	1.000																			1580050680.0	10.75	19.91
26/01/2020 14:58:02	26012020	260120	145801	137.920	12.311805	-56.705652	138.080	-0.180	0.710	0.060	137.970	-0.500	0.500																			1580050681.0	10.89	20.17
26/01/2020 14:58:03	26012020	260120	145802	138.080	12.311767	-56.705617	138.090	0.470	0.140	-0.100	138.090	-1.000	0.300																			1580050682.0	11.25	20.84
26/01/2020 14:58:04	26012020	260120	145803	138.050	12.311728	-56.705580	138.030	1.060	-0.430	-0.170	138.030	-1.600	0.200																			1580050683.0	11.46	21.22
26/01/2020 14:58:05	26012020	260120	145804	138.010	12.311690	-56.705542	138.040	1.240	-0.650	-0.210	138.010	-2.000	0.100																			1580050684.0	11.33	20.98
26/01/2020 14:58:06	26012020	260120	145805	138.040	12.311655	-56.705507	138.120	0.920	-0.580	0.010	138.060	-2.000	0.200																			1580050685.0	10.88	20.15
26/01/2020 14:58:07	26012020	260120	145806	138.130	12.311617	-56.705473	138.200	0.400	-0.450	0.490	138.140	-1.800	0.600																			1580050686.0	10.59	19.61
26/01/2020 14:58:08	26012020	260120	145807	138.190	12.311578	-56.705442	138.210	-0.030	-0.390	0.910	138.190	-1.700	1.100																			1580050687.0	10.64	19.71
26/01/2020 14:58:09	26012020	260120	145808	138.150	12.311538	-56.705412	138.100	-0.240	-0.610	1.120	138.130	-1.800	1.400																			1580050688.0	10.84	20.08
26/01/2020 14:58:10	26012020	260120	145809	138.040	12.311497	-56.705378	137.990	-0.260	-0.920	1.070	138.020	-2.200	1.400																			1580050689.0	11.30	20.93
26/01/2020 14:58:11	26012020	260120	145810	137.930	12.311457	-56.705343	137.970	-0.290	-0.910	0.880	137.920	-2.300	1.300																			1580050690.0	11.49	21.28
26/01/2020 14:58:12	26012020	260120	145811	137.910	12.311417	-56.705308	137.910	-0.390	-0.630	0.730	137.910	-2.100	1.100																			1580050691.0	11.24	20.82
26/01/2020 14:58:13	26012020	260120	145812	137.830	12.311377	-56.705275	137.790	-0.490	-0.330	0.710	137.810	-1.800	1.000																			1580050692.0	11.15	20.65
26/01/2020 14:58:14	26012020	260120	145813	137.720	12.311337	-56.705240	137.660	-0.490	-0.120	0.810	137.690	-1.500	1.100																			1580050693.0	11.28	20.89
26/01/2020 14:58:15	26012020	260120	145814	137.560	12.311295	-56.705207	137.480	-0.350	0.020	0.840	137.530	-1.400	1.200																			1580050694.0	11.40	21.11
26/01/2020 14:58:16	26012020	260120	145815	137.400	12.311255	-56.705172	137.380	-0.130	0.100	0.770	137.370	-1.300	1.100																			1580050695.0	11.47	21.24
26/01/2020 14:58:17	26012020	260120	145816	137.340	12.311215	-56.705135	137.370	0.000	0.170	0.850	137.340	-1.200	1.100																			1580050696.0	11.46	21.22
26/01/2020 14:58:18	26012020	260120	145817	137.330	12.311175	-56.705102	137.340	0.060	0.180	1.030	137.320	-1.200	1.300																			1580050697.0	11.33	20.98
26/01/2020 14:58:19	26012020	260120	145818	137.280	12.311135	-56.705067	137.280	0.180	0.120	1.180	137.270	-1.200	1.500																			1580050698.0	11.25	20.84
26/01/2020 14:58:20	26012020	260120	145819	137.230	12.311095	-56.705033	137.320	0.360	0.100	1.190	137.230	-1.300	1.500																			1580050699.0	11.24	20.82
26/01/2020 14:58:21	26012020	260120	145820	137.310	12.311057	-56.704998	137.590	0.440	0.210	0.960	137.360	-1.200	1.400																			1580050700.0	11.02	20.41
26/01/2020 14:58:22	26012020	260120	145821	137.580	12.311020	-56.704963	138.050	0.340	0.300	0.570	137.670	-1.100	1.000																			1580050701.0	10.69	19.80
26/01/2020 14:58:23	26012020	260120	145822	138.130	12.310985	-56.704928	138.360	0.220	0.050	0.360	138.210	-1.100	0.700																			1580050702.0	10.55	19.54
26/01/2020 14:58:24	26012020	260120	145823	138.350	12.310947	-56.704895	138.320	0.250	-0.710	0.520	138.360	-1.700	0.800																			1580050703.0	10.86	20.11
26/01/2020 14:58:25	26012020	260120	145824	138.230	12.310907	-56.704858	138.120	0.350	-1.420	0.780	138.190	-2.500	1.000																			1580050704.0	11.45	21.21
26/01/2020 14:58:26	26012020	260120	145825	138.030	12.310867	-56.704823	137.980	0.260	-1.450	0.940	138.000	-2.900	1.200																			1580050705.0	11.48	21.26
26/01/2020 14:58:27	26012020	260120	145826	137.890	12.310827	-56.704790	137.850	-0.060	-1.000	0.910	137.870	-2.500	1.300																			1580050706.0	10.94	20.26
26/01/2020 14:58:28	26012020	260120	145827	137.760	12.310788	-56.704758	137.680	-0.360	-0.540	0.800	137.730	-2.000	1.200																			1580050707.0	10.72	19.85
26/01/2020 14:58:29	26012020	260120	145828	137.570	12.310750	-56.704725	137.430	-0.450	-0.340	0.820	137.510	-1.700	1.100																			1580050708.0	10.99	20.35
26/01/2020 14:58:30	26012020	260120	145829	137.300	12.310708	-56.704690	137.220	-0.320	-0.300	0.760	137.250	-1.700	1.100																			1580050709.0	11.49	21.28
26/01/2020 14:58:31	26012020	260120	145830	137.150	12.310668	-56.704653	137.250	-0.210	-0.110	0.600	137.150	-1.500	1.000																			1580050710.0	11.72	21.71
26/01/2020 14:58:32	26012020	260120	145831	137.230	12.310628	-56.704617	137.390	-0.260	0.220	0.600	137.260	-1.200	0.900																			1580050711.0	11.48	21.26
26/01/2020 14:58:33	26012020	260120	145832	137.380	12.310588	-56.704583	137.530	-0.330	0.370	0.710	137.410	-1.000	1.000																			1580050712.0	11.26	20.85
26/01/2020 14:58:34	26012020	260120	145833	137.490	12.310547	-56.704548	137.640	-0.190	0.350	0.760	137.510	-1.000	1.100																			1580050713.0	11.35	21.02
26/01/2020 14:58:35	26012020	260120	145834	137.620	12.310507	-56.704513	137.810	0.100	0.270	0.710	137.660	-1.000	1.100																			1580050714.0	11.39	21.09
26/01/2020 14:58:36	26012020	260120	145835	137.830	12.310468	-56.704478	138.050	0.300	0.210	0.650	137.880	-1.100	1.000																			1580050715.0	11.28	20.89
26/01/2020 14:58:37	26012020	260120	145836	138.070	12.310430	-56.704443	138.240	0.280	0.220	0.610	138.100	-1.100	1.000																			1580050716.0	11.01	20.39
26/01/2020 14:58:38	26012020	260120	145837	138.230	12.310393	-56.704410	138.310	0.130	0.150	0.570	138.250	-1.100	0.900																			1580050717.0	10.72	19.85
26/01/2020 14:58:39	26012020	260120	145838	138.240	12.310355	-56.704375	138.210	0.080	-0.300	0.650	138.230	-1.400	0.900																			1580050718.0	10.71	19.83
26/01/2020 14:58:40	26012020	260120	145839	138.100	12.310317	-56.704342	138.090	0.200	-0.950	0.730	138.080	-2.100	1.100																			1580050719.0	11.14	20.63
26/01/2020 14:58:41	26012020	260120	145840	138.010	12.310275	-56.704307	138.070	0.310	-1.180	0.620	138.010	-2.500	1.000																			1580050720.0	11.43	21.17
26/01/2020 14:58:42	26012020	260120	145841	138.030	12.310237	-56.704272	138.090	0.250	-0.880	0.500	138.040	-2.400	0.900																			1580050721.0	11.00	20.37
26/01/2020 14:58:43	26012020	260120	145842	138.020	12.310200	-56.704240	137.970	0.100	-0.590	0.490	138.000	-2.000	0.800																			1580050722.0	10.56	19.56
26/01/2020 14:58:44	26012020	260120	145843	137.850	12.310162	-56.704205	137.680	0.010	-0.700	0.640	137.790	-1.900	0.900																			1580050723.0	10.86	20.11
26/01/2020 14:58:45	26012020	260120	145844	137.530	12.310122	-56.704170	137.380	-0.030	-0.930	0.910	137.460	-2.200	1.200																			1580050724.0	11.56	21.41
26/01/2020 14:58:46	26012020	260120	145845	137.290	12.310078	-56.704135	137.240	-0.200	-0.730	1.010	137.240	-2.200	1.300																			1580050725.0	11.82	21.89
26/01/2020 14:58:47	26012020	260120	145846	137.150	12.310038	-56.704100	137.250	-0.490	-0.030	0.910	137.160	-1.600	1.300																			1580050726.0	11.39	21.09
26/01/2020 14:58:48	26012020	260120	145847	137.180	12.310000	-56.704067	137.240	-0.640	0.550	0.790	137.180	-0.900	1.200																			1580050727.0	10.89	20.17
26/01/2020 14:58:49	26012020	260120	145848	137.160	12.309960	-56.704033	137.210	-0.450	0.550	0.700	137.150	-0.700	1.100																			1580050728.0	11.12	20.59
26/01/2020 14:58:50	26012020	260120	145849	137.140	12.309918	-56.703997	137.230	-0.050	0.260	0.580	137.140	-1.000	1.000																			1580050729.0	11.65	21.58
26/01/2020 14:58:51	26012020	260120	145850	137.200	12.309878	-56.703958	137.430	0.220	0.170	0.420	137.240	-1.200	0.800																			1580050730.0	11.73	21.72
26/01/2020 14:58:52	26012020	260120	145851	137.460	12.309842	-56.703923	137.760	0.160	0.360	0.320	137.530	-1.100	0.700																			1580050731.0	11.22	20.78
26/01/2020 14:58:53	26012020	260120	145852	137.790	12.309803	-56.703890	138.020	-0.110	0.490	0.400	137.850	-0.900	0.700																			1580050732.0	10.67	19.76
26/01/2020 14:58:54	26012020	260120	145853	138.010	12.309767	-56.703858	138.130	-0.200	0.150	0.680	138.030	-1.000	0.900																			1580050733.0	10.56	19.56
26/01/2020 14:58:55	26012020	260120	145854	138.080	12.309725	-56.703825	138.160	0.070	-0.550	0.920	138.090	-1.600	1.200																			1580050734.0	10.99	20.35
26/01/2020 14:58:56	26012020	260120	145855	138.090	12.309685	-56.703792	138.160	0.510	-1.080	0.830	138.090	-2.300	1.300																			1580050735.0	11.31	20.95
26/01/2020 14:58:57	26012020	260120	145856	138.100	12.309647	-56.703757	138.150	0.720	-1.150	0.500	138.100	-2.500	1.000																			1580050736.0	11.13	20.61
26/01/2020 14:58:58	26012020	260120	145857	138.070	12.309610	-56.703720	138.040	0.590	-0.980	0.310	138.060	-2.400	0.700																			1580050737.0	10.81	20.02
26/01/2020 14:58:59	26012020	260120	145858	137.930	12.309573	-56.703687	137.850	0.280	-0.780	0.370	137.900	-2.200	0.700																			1580050738.0	10.76	19.93
26/01/2020 14:59:00	26012020	260120	145859	137.780	12.309537	-56.703652	137.680	-0.010	-0.640	0.530	137.750	-2.000	0.800	1016.30	26.20	26.30	20.10	20.20	892.00	69.00	69.00	377.00	29.30	343.00	9.60	98.00	4.50	64888	3096.00	27.60	27.50	1580050739.0	10.98	20.33
26/01/2020 14:59:01	26012020	260120	145900	137.570	12.309497	-56.703617	137.500	-0.190	-0.590	0.820	137.530	-1.900	1.000																			1580050740.0	11.24	20.82
26/01/2020 14:59:02	26012020	260120	145901	137.380	12.309455	-56.703582	137.330	-0.300	-0.560	1.050	137.350	-1.900	1.300																			1580050741.0	11.55	21.39
26/01/2020 14:59:03	26012020	260120	145902	137.210	12.309413	-56.703547	137.190	-0.460	-0.260	1.090	137.180	-1.700	1.400																			1580050742.0	11.69	21.65
26/01/2020 14:59:04	26012020	260120	145903	137.090	12.309373	-56.703512	137.150	-0.720	0.290	1.060	137.080	-1.300	1.400																			1580050743.0	11.39	21.09
26/01/2020 14:59:05	26012020	260120	145904	137.100	12.309333	-56.703478	137.320	-0.860	0.660	0.930	137.130	-0.800	1.300																			1580050744.0	11.09	20.54
26/01/2020 14:59:06	26012020	260120	145905	137.340	12.309292	-56.703445	137.620	-0.670	0.640	0.640	137.400	-0.600	1.100																			1580050745.0	11.21	20.76
26/01/2020 14:59:07	26012020	260120	145906	137.650	12.309252	-56.703410	137.880	-0.220	0.470	0.280	137.710	-0.800	0.800																			1580050746.0	11.40	21.11
26/01/2020 14:59:08	26012020	260120	145907	137.890	12.309213	-56.703375	138.040	0.270	0.340	-0.100	137.920	-0.900	0.400																			1580050747.0	11.28	20.89
26/01/2020 14:59:09	26012020	260120	145908	138.040	12.309177	-56.703338	138.200	0.630	0.100	-0.410	138.080	-1.100	0.000																			1580050748.0	10.99	20.35
26/01/2020 14:59:10	26012020	260120	145909	138.230	12.309140	-56.703302	138.370	0.770	-0.350	-0.490	138.260	-1.500	-0.200																			1580050749.0	11.01	20.39
26/01/2020 14:59:11	26012020	260120	145910	138.380	12.309102	-56.703267	138.440	0.690	-0.760	-0.070	138.400	-2.000	0.100																			1580050750.0	11.09	20.54
26/01/2020 14:59:12	26012020	260120	145911	138.410	12.309063	-56.703233	138.430	0.470	-0.840	0.490	138.400	-2.200	0.600																			1580050751.0	10.96	20.30
26/01/2020 14:59:13	26012020	260120	145912	138.370	12.309025	-56.703202	138.390	0.220	-0.630	0.780	138.370	-2.000	1.000																			1580050752.0	10.68	19.78
26/01/2020 14:59:14	26012020	260120	145913	138.330	12.308987	-56.703170	138.220	-0.010	-0.550	0.920	138.310	-1.900	1.200																			1580050753.0	10.52	19.48
26/01/2020 14:59:15	26012020	260120	145914	138.080	12.308947	-56.703137	137.840	-0.100	-0.860	1.050	138.010	-2.000	1.300																			1580050754.0	10.87	20.13
26/01/2020 14:59:16	26012020	260120	145915	137.650	12.308907	-56.703102	137.380	-0.010	-1.260	1.050	137.560	-2.500	1.400																			1580050755.0	11.52	21.34
26/01/2020 14:59:17	26012020	260120	145916	137.200	12.308865	-56.703065	137.000	0.050	-1.120	1.010	137.120	-2.600	1.400																			1580050756.0	11.83	21.91
26/01/2020 14:59:18	26012020	260120	145917	136.880	12.308825	-56.703030	136.880	-0.170	-0.370	0.900	136.850	-2.000	1.300																			1580050757.0	11.42	21.15
26/01/2020 14:59:19	26012020	260120	145918	136.840	12.308787	-56.702997	136.960	-0.560	0.460	0.740	136.850	-1.100	1.100																			1580050758.0	10.87	20.13
26/01/2020 14:59:20	26012020	260120	145919	136.940	12.308748	-56.702963	137.080	-0.720	0.690	0.690	136.970	-0.600	1.000																			1580050759.0	10.84	20.08
26/01/2020 14:59:21	26012020	260120	145920	137.080	12.308708	-56.702928	137.290	-0.510	0.330	0.750	137.120	-0.800	1.100																			1580050760.0	11.49	21.28
26/01/2020 14:59:22	26012020	260120	145921	137.320	12.308665	-56.702892	137.610	-0.180	0.060	0.820	137.380	-1.200	1.100																			1580050761.0	11.95	22.13
26/01/2020 14:59:23	26012020	260120	145922	137.660	12.308623	-56.702857	137.980	-0.030	0.290	0.740	137.740	-1.200	1.100																			1580050762.0	11.52	21.34
26/01/2020 14:59:24	26012020	260120	145923	138.030	12.308587	-56.702823	138.320	0.000	0.590	0.520	138.110	-0.800	0.900																			1580050763.0	10.68	19.78
26/01/2020 14:59:25	26012020	260120	145924	138.350	12.308550	-56.702792	138.510	0.190	0.360	0.270	138.400	-0.800	0.700																			1580050764.0	10.47	19.39
26/01/2020 14:59:26	26012020	260120	145925	138.480	12.308512	-56.702755	138.510	0.570	-0.290	0.110	138.490	-1.400	0.500																			1580050765.0	10.96	20.30
26/01/2020 14:59:27	26012020	260120	145926	138.460	12.308475	-56.702718	138.410	0.830	-0.770	0.070	138.440	-2.000	0.400																			1580050766.0	11.29	20.91
26/01/2020 14:59:28	26012020	260120	145927	138.320	12.308437	-56.702683	138.210	0.720	-0.870	0.160	138.290	-2.200	0.400																			1580050767.0	11.02	20.41
26/01/2020 14:59:29	26012020	260120	145928	138.090	12.308400	-56.702648	137.910	0.300	-0.830	0.450	138.030	-2.200	0.700																			1580050768.0	10.67	19.76
26/01/2020 14:59:30	26012020	260120	145929	137.760	12.308362	-56.702617	137.490	-0.090	-0.880	0.950	137.680	-2.200	1.100																			1580050769.0	10.71	19.83
26/01/2020 14:59:31	26012020	260120	145930	137.290	12.308320	-56.702587	136.960	-0.210	-0.960	1.360	137.180	-2.300	1.600																			1580050770.0	11.12	20.59
26/01/2020 14:59:32	26012020	260120	145931	136.750	12.308278	-56.702553	136.460	-0.100	-0.870	1.460	136.640	-2.300	1.800																			1580050771.0	11.35	21.02
26/01/2020 14:59:33	26012020	260120	145932	136.290	12.308238	-56.702520	136.120	-0.040	-0.490	1.360	136.210	-2.000	1.700																			1580050772.0	11.32	20.96
26/01/2020 14:59:34	26012020	260120	145933	136.000	12.308200	-56.702485	135.970	-0.190	-0.010	1.190	135.960	-1.500	1.600																			1580050773.0	11.11	20.58
26/01/2020 14:59:35	26012020	260120	145934	135.890	12.308162	-56.702450	135.940	-0.370	0.210	1.090	135.880	-1.200	1.500																			1580050774.0	11.06	20.48
26/01/2020 14:59:36	26012020	260120	145935	135.900	12.308122	-56.702413	136.070	-0.380	0.190	1.030	135.920	-1.100	1.400																			1580050775.0	11.48	21.26
26/01/2020 14:59:37	26012020	260120	145936	136.090	12.308082	-56.702378	136.390	-0.280	0.290	0.980	136.150	-1.100	1.400																			1580050776.0	11.48	21.26
26/01/2020 14:59:38	26012020	260120	145937	136.360	12.308042	-56.702343	136.690	-0.160	0.480	0.820	136.420	-0.900	1.200																			1580050777.0	11.08	20.52
26/01/2020 14:59:39	26012020	260120	145938	136.700	12.308005	-56.702310	136.820	0.010	0.350	0.540	136.730	-0.900	1.000																			1580050778.0	10.80	20.00
26/01/2020 14:59:40	26012020	260120	145939	136.780	12.307968	-56.702273	136.800	0.180	-0.110	0.400	136.780	-1.300	0.800																			1580050779.0	11.07	20.50
26/01/2020 14:59:41	26012020	260120	145940	136.740	12.307930	-56.702237	136.750	0.220	-0.470	0.480	136.730	-1.700	0.800																			1580050780.0	11.26	20.85
26/01/2020 14:59:42	26012020	260120	145941	136.680	12.307892	-56.702202	136.620	0.140	-0.540	0.620	136.660	-1.900	0.900																			1580050781.0	11.00	20.37
26/01/2020 14:59:43	26012020	260120	145942	136.470	12.307855	-56.702168	136.190	0.140	-0.520	0.850	136.390	-1.800	1.100																			1580050782.0	10.67	19.76
26/01/2020 14:59:44	26012020	260120	145943	135.950	12.307817	-56.702137	135.520	0.280	-0.620	1.080	135.810	-1.900	1.400																			1580050783.0	10.73	19.87
26/01/2020 14:59:45	26012020	260120	145944	135.260	12.307778	-56.702102	134.870	0.450	-0.750	1.020	135.120	-2.000	1.400																			1580050784.0	11.02	20.41
26/01/2020 14:59:46	26012020	260120	145945	134.650	12.307740	-56.702065	134.360	0.440	-0.650	0.840	134.540	-2.100	1.200																			1580050785.0	11.18	20.71
26/01/2020 14:59:47	26012020	260120	145946	134.160	12.307703	-56.702028	133.910	0.140	-0.270	0.860	134.070	-1.800	1.200																			1580050786.0	10.97	20.32
26/01/2020 14:59:48	26012020	260120	145947	133.740	12.307667	-56.701995	133.540	-0.260	0.090	1.020	133.670	-1.300	1.300																			1580050787.0	10.71	19.83
26/01/2020 14:59:49	26012020	260120	145948	133.370	12.307630	-56.701962	133.130	-0.460	0.100	1.250	133.300	-1.200	1.500																			1580050788.0	10.79	19.98
26/01/2020 14:59:50	26012020	260120	145949	132.930	12.307590	-56.701927	132.600	-0.320	-0.260	1.430	132.830	-1.400	1.700																			1580050789.0	11.18	20.71
26/01/2020 14:59:51	26012020	260120	145950	132.390	12.307550	-56.701890	132.100	-0.090	-0.530	1.380	132.290	-1.800	1.800																			1580050790.0	11.59	21.46
26/01/2020 14:59:52	26012020	260120	145951	131.910	12.307513	-56.701852	131.720	-0.040	-0.350	1.310	131.840	-1.800	1.700																			1580050791.0	11.36	21.04
26/01/2020 14:59:53	26012020	260120	145952	131.570	12.307477	-56.701815	131.390	-0.160	-0.020	1.230	131.510	-1.500	1.600																			1580050792.0	10.83	20.06
26/01/2020 14:59:54	26012020	260120	145953	131.230	12.307442	-56.701780	130.980	-0.240	0.060	1.160	131.150	-1.300	1.500																			1580050793.0	10.69	19.80
26/01/2020 14:59:55	26012020	260120	145954	130.790	12.307407	-56.701743	130.480	-0.160	-0.110	1.230	130.690	-1.400	1.500																			1580050794.0	10.97	20.32
26/01/2020 14:59:56	26012020	260120	145955	130.280	12.307370	-56.701705	129.910	0.000	-0.250	1.390	130.160	-1.500	1.700																			1580050795.0	11.19	20.72
26/01/2020 14:59:57	26012020	260120	145956	129.660	12.307333	-56.701668	129.200	0.150	-0.260	1.560	129.520	-1.600	1.800																			1580050796.0	11.07	20.50
26/01/2020 14:59:58	26012020	260120	145957	128.910	12.307298	-56.701632	128.420	0.250	-0.220	1.750	128.760	-1.600	2.000																			1580050797.0	10.91	20.21
26/01/2020 14:59:59	26012020	260120	145958	128.140	12.307263	-56.701593	127.680	0.270	-0.260	1.920	127.990	-1.600	2.200																			1580050798.0	10.89	20.17
26/01/2020 15:00:00	26012020	260120	145959	127.400	12.307228	-56.701555	126.920	0.250	-0.390	2.070	127.250	-1.700	2.400	1016.30	26.20	26.30	19.60	19.70	885.00	67.00	67.00	376.00	29.20	344.00	9.90	100.00	4.70	64446	3089.00	27.60	27.60	1580050799.0	11.01	20.39
26/01/2020 15:00:01	26012020	260120	150000	126.630	12.307193	-56.701517	126.150	0.170	-0.330	2.080	126.470	-1.700	2.400																			1580050800.0	11.11	20.58
26/01/2020 15:00:02	26012020	260120	150001	126.010	12.307162	-56.701478	125.440	-0.030	0.090	2.040	125.880	-1.400	2.400																			1580050801.0	10.83	20.06
26/01/2020 15:00:03	26012020	260120	150002	125.200	12.307130	-56.701440	124.860	-0.250	0.370	1.930	125.080	-1.000	2.300																			1580050802.0	10.34	19.15
26/01/2020 15:00:04	26012020	260120	150003	124.640	12.307098	-56.701403	124.300	-0.230	-0.010	1.720	124.530	-1.100	2.100																			1580050803.0	10.48	19.41
26/01/2020 15:00:05	26012020	260120	150004	124.040	12.307065	-56.701362	123.610	0.150	-0.820	1.590	123.910	-1.900	2.000																			1580050804.0	11.22	20.78
26/01/2020 15:00:06	26012020	260120	150005	123.330	12.307033	-56.701318	122.910	0.480	-1.080	1.490	123.190	-2.400	1.900																			1580050805.0	11.67	21.61
26/01/2020 15:00:07	26012020	260120	150006	122.660	12.307003	-56.701275	122.300	0.340	-0.430	1.420	122.530	-2.100	1.800																			1580050806.0	10.93	20.24
26/01/2020 15:00:08	26012020	260120	150007	122.060	12.306975	-56.701238	121.690	-0.120	0.280	1.530	121.930	-1.300	1.800																			1580050807.0	9.98	18.48
26/01/2020 15:00:09	26012020	260120	150008	121.410	12.306947	-56.701200	120.960	-0.450	0.210	1.860	121.260	-1.000	2.100																			1580050808.0	10.07	18.65
26/01/2020 15:00:10	26012020	260120	150009	120.660	12.306915	-56.701158	120.220	-0.490	-0.430	2.350	120.500	-1.500	2.500																			1580050809.0	11.06	20.48
26/01/2020 15:00:11	26012020	260120	150010	119.930	12.306880	-56.701117	119.560	-0.400	-0.710	2.660	119.790	-2.000	2.900																			1580050810.0	11.60	21.48
26/01/2020 15:00:12	26012020	260120	150011	119.280	12.306848	-56.701075	118.930	-0.320	-0.380	2.630	119.160	-1.900	3.000																			1580050811.0	11.06	20.48
26/01/2020 15:00:13	26012020	260120	150012	118.640	12.306820	-56.701035	118.220	-0.170	-0.160	2.510	118.500	-1.500	2.900																			1580050812.0	10.41	19.28
26/01/2020 15:00:14	26012020	260120	150013	117.910	12.306793	-56.700993	117.480	0.170	-0.400	2.380	117.760	-1.600	2.800																			1580050813.0	10.73	19.87
26/01/2020 15:00:15	26012020	260120	150014	117.210	12.306765	-56.700948	116.900	0.420	-0.380	2.180	117.080	-1.800	2.600																			1580050814.0	11.28	20.89
26/01/2020 15:00:16	26012020	260120	150015	116.680	12.306740	-56.700903	116.470	0.320	0.280	1.920	116.590	-1.300	2.400																			1580050815.0	10.79	19.98
26/01/2020 15:00:17	26012020	260120	150016	116.270	12.306717	-56.700863	116.090	-0.010	0.770	1.680	116.200	-0.700	2.100																			1580050816.0	9.93	18.39
26/01/2020 15:00:18	26012020	260120	150017	115.880	12.306695	-56.700822	115.650	-0.180	0.470	1.650	115.800	-0.700	2.000																			1580050817.0	10.09	18.69
26/01/2020 15:00:19	26012020	260120	150018	115.430	12.306668	-56.700777	115.160	-0.040	-0.230	1.790	115.330	-1.300	2.100																			1580050818.0	10.83	20.06
26/01/2020 15:00:20	26012020	260120	150019	114.920	12.306643	-56.700732	114.550	0.210	-0.710	2.000	114.800	-1.900	2.300																			1580050819.0	11.08	20.52
26/01/2020 15:00:21	26012020	260120	150020	114.250	12.306618	-56.700687	113.770	0.290	-0.740	2.160	114.090	-2.100	2.500																			1580050820.0	10.79	19.98
26/01/2020 15:00:22	26012020	260120	150021	113.470	12.306595	-56.700645	113.040	0.120	-0.470	2.120	113.320	-1.900	2.500																			1580050821.0	10.31	19.09
26/01/2020 15:00:23	26012020	260120	150022	112.790	12.306575	-56.700602	112.440	-0.100	-0.370	2.020	112.670	-1.700	2.400																			1580050822.0	10.13	18.76
26/01/2020 15:00:24	26012020	260120	150023	112.220	12.306552	-56.700558	111.880	-0.220	-0.450	2.000	112.110	-1.800	2.300																			1580050823.0	10.47	19.39
26/01/2020 15:00:25	26012020	260120	150024	111.670	12.306528	-56.700513	111.270	-0.300	-0.380	2.010	111.540	-1.800	2.400																			1580050824.0	10.71	19.83
26/01/2020 15:00:26	26012020	260120	150025	111.170	12.306505	-56.700468	110.500	-0.280	-0.280	2.030	111.020	-1.600	2.400																			1580050825.0	10.54	19.52
26/01/2020 15:00:27	26012020	260120	150026	110.230	12.306483	-56.700423	109.670	-0.090	-0.380	2.010	110.060	-1.700	2.400																			1580050826.0	10.63	19.69
26/01/2020 15:00:28	26012020	260120	150027	109.420	12.306462	-56.700377	109.000	0.130	-0.460	1.870	109.280	-1.800	2.300																			1580050827.0	10.94	20.26
26/01/2020 15:00:29	26012020	260120	150028	108.800	12.306443	-56.700330	108.480	0.100	-0.140	1.670	108.700	-1.600	2.100																			1580050828.0	10.84	20.08
26/01/2020 15:00:30	26012020	260120	150029	108.310	12.306425	-56.700285	107.980	-0.190	0.370	1.630	108.220	-1.100	2.000																			1580050829.0	10.30	19.08
26/01/2020 15:00:31	26012020	260120	150030	107.790	12.306407	-56.700240	107.380	-0.470	0.460	1.790	107.670	-0.800	2.000																			1580050830.0	10.04	18.59
26/01/2020 15:00:32	26012020	260120	150031	107.150	12.306388	-56.700195	106.670	-0.450	0.000	2.130	107.000	-1.100	2.300																			1580050831.0	10.50	19.45
26/01/2020 15:00:33	26012020	260120	150032	106.410	12.306367	-56.700147	105.960	-0.170	-0.530	2.390	106.270	-1.700	2.700																			1580050832.0	11.05	20.46
26/01/2020 15:00:34	26012020	260120	150033	105.710	12.306347	-56.700098	105.330	0.200	-0.710	2.400	105.580	-2.000	2.800																			1580050833.0	11.00	20.37
26/01/2020 15:00:35	26012020	260120	150034	105.110	12.306330	-56.700052	104.810	0.430	-0.430	2.160	105.000	-1.900	2.600																			1580050834.0	10.62	19.67
26/01/2020 15:00:36	26012020	260120	150035	104.630	12.306315	-56.700007	104.380	0.390	0.050	1.800	104.550	-1.500	2.300																			1580050835.0	10.13	18.76
26/01/2020 15:00:37	26012020	260120	150036	104.220	12.306302	-56.699962	103.920	0.180	0.360	1.530	104.130	-1.100	1.900																			1580050836.0	9.88	18.30
26/01/2020 15:00:38	26012020	260120	150037	103.730	12.306288	-56.699917	103.400	-0.000	0.270	1.490	103.630	-1.000	1.800																			1580050837.0	10.01	18.54
26/01/2020 15:00:39	26012020	260120	150038	103.200	12.306275	-56.699870	102.880	-0.040	-0.170	1.590	103.090	-1.300	1.900																			1580050838.0	10.35	19.17
26/01/2020 15:00:40	26012020	260120	150039	102.770	12.306260	-56.699822	102.280	0.010	-0.630	1.770	102.670	-1.800	2.000																			1580050839.0	10.65	19.72
26/01/2020 15:00:41	26012020	260120	150040	102.010	12.306245	-56.699773	101.470	0.040	-0.840	2.040	101.850	-2.100	2.300																			1580050840.0	10.66	19.74
26/01/2020 15:00:42	26012020	260120	150041	101.130	12.306232	-56.699725	100.540	-0.000	-0.790	2.240	100.950	-2.200	2.500																			1580050841.0	10.49	19.43
26/01/2020 15:00:43	26012020	260120	150042	100.180	12.306218	-56.699678	99.620	-0.090	-0.610	2.340	100.010	-2.000	2.600																			1580050842.0	10.38	19.22
26/01/2020 15:00:44	26012020	260120	150043	99.290	12.306205	-56.699632	98.770	-0.180	-0.430	2.390	99.120	-1.800	2.700																			1580050843.0	10.41	19.28
26/01/2020 15:00:45	26012020	260120	150044	98.470	12.306193	-56.699583	98.030	-0.230	-0.300	2.180	98.320	-1.700	2.600																			1580050844.0	10.55	19.54
26/01/2020 15:00:46	26012020	260120	150045	97.770	12.306183	-56.699533	97.390	-0.220	-0.140	2.000	97.640	-1.500	2.400																			1580050845.0	10.65	19.72
26/01/2020 15:00:47	26012020	260120	150046	97.160	12.306172	-56.699485	96.860	-0.180	0.100	2.000	97.050	-1.300	2.300																			1580050846.0	10.62	19.67
26/01/2020 15:00:48	26012020	260120	150047	96.670	12.306162	-56.699437	96.460	-0.170	0.360	1.880	96.590	-1.100	2.300																			1580050847.0	10.51	19.46
26/01/2020 15:00:49	26012020	260120	150048	96.300	12.306150	-56.699388	96.160	-0.170	0.570	1.830	96.240	-0.800	2.200																			1580050848.0	10.29	19.06
26/01/2020 15:00:50	26012020	260120	150049	96.030	12.306142	-56.699342	95.970	-0.160	0.580	1.900	95.990	-0.700	2.200																			1580050849.0	10.13	18.76
26/01/2020 15:00:51	26012020	260120	150050	95.870	12.306133	-56.699295	95.770	-0.120	0.310	1.930	95.830	-0.900	2.300																			1580050850.0	10.08	18.67
26/01/2020 15:00:52	26012020	260120	150051	95.700	12.306125	-56.699247	95.440	0.050	-0.220	1.950	95.650	-1.300	2.300																			1580050851.0	10.17	18.83
26/01/2020 15:00:53	26012020	260120	150052	95.270	12.306118	-56.699198	94.960	0.420	-0.950	1.990	95.180	-2.000	2.300																			1580050852.0	10.36	19.19
26/01/2020 15:00:54	26012020	260120	150053	94.760	12.306113	-56.699148	94.360	0.820	-1.450	2.110	94.760	-2.700	2.400																			1580050853.0	10.68	19.78
26/01/2020 15:00:55	26012020	260120	150054	94.130	12.306108	-56.699098	93.700	0.880	-1.290	2.280	94.010	-2.800	2.600																			1580050854.0	10.62	19.67
26/01/2020 15:00:56	26012020	260120	150055	93.460	12.306103	-56.699052	93.100	0.460	-0.630	2.390	93.330	-2.200	2.700																			1580050855.0	10.12	18.74
26/01/2020 15:00:57	26012020	260120	150056	92.900	12.306098	-56.699005	92.650	-0.170	-0.030	2.400	92.800	-1.500	2.800																			1580050856.0	9.84	18.22
26/01/2020 15:00:58	26012020	260120	150057	92.490	12.306093	-56.698957	92.360	-0.590	0.120	2.280	92.430	-1.200	2.700																			1580050857.0	10.13	18.76
26/01/2020 15:00:59	26012020	260120	150058	92.250	12.306088	-56.698907	92.200	-0.720	0.130	2.030	92.210	-1.200	2.500																			1580050858.0	10.66	19.74
26/01/2020 15:01:00	26012020	260120	150059	92.130	12.306082	-56.698857	92.110	-0.680	0.260	1.760	92.110	-1.100	2.200	1016.30	26.20	26.30	19.50	19.60	896.00	66.00	66.00	375.00	29.20	356.00	8.90	98.00	3.60	64325	3119.00	27.60	27.60	1580050859.0	10.66	19.74
26/01/2020 15:01:01	26012020	260120	150100	92.040	12.306075	-56.698808	92.000	-0.520	0.320	1.530	92.020	-1.000	2.000																			1580050860.0	10.37	19.21
26/01/2020 15:01:02	26012020	260120	150101	91.950	12.306072	-56.698760	91.960	-0.260	0.150	1.270	91.940	-1.100	1.700																			1580050861.0	10.35	19.17
26/01/2020 15:01:03	26012020	260120	150102	91.960	12.306068	-56.698710	92.050	0.010	-0.070	1.020	91.980	-1.400	1.500																			1580050862.0	10.46	19.37
26/01/2020 15:01:04	26012020	260120	150103	92.070	12.306067	-56.698662	92.130	0.150	-0.170	0.740	92.100	-1.500	1.200																			1580050863.0	10.32	19.11
26/01/2020 15:01:05	26012020	260120	150104	92.120	12.306065	-56.698613	91.980	0.240	-0.260	0.640	92.100	-1.600	1.000																			1580050864.0	10.05	18.61
26/01/2020 15:01:06	26012020	260120	150105	91.910	12.306065	-56.698567	91.650	0.390	-0.480	0.920	91.840	-1.700	1.200																			1580050865.0	10.10	18.71
26/01/2020 15:01:07	26012020	260120	150106	91.530	12.306062	-56.698517	91.220	0.530	-0.790	1.250	91.450	-2.000	1.500																			1580050866.0	10.33	19.13
26/01/2020 15:01:08	26012020	260120	150107	91.080	12.306060	-56.698467	90.820	0.570	-1.000	1.410	91.010	-2.300	1.700																			1580050867.0	10.58	19.59
26/01/2020 15:01:09	26012020	260120	150108	90.700	12.306057	-56.698417	90.490	0.440	-0.800	1.500	90.640	-2.300	1.800																			1580050868.0	10.66	19.74
26/01/2020 15:01:10	26012020	260120	150109	90.390	12.306055	-56.698368	90.190	0.040	-0.110	1.440	90.330	-1.700	1.800																			1580050869.0	10.32	19.11
26/01/2020 15:01:11	26012020	260120	150110	90.090	12.306053	-56.698322	89.920	-0.410	0.510	1.270	90.030	-1.000	1.700																			1580050870.0	9.85	18.24
26/01/2020 15:01:12	26012020	260120	150111	89.880	12.306052	-56.698275	89.890	-0.580	0.510	1.120	89.860	-0.800	1.500																			1580050871.0	9.96	18.45
26/01/2020 15:01:13	26012020	260120	150112	89.930	12.306050	-56.698225	90.020	-0.440	0.080	0.970	89.960	-1.100	1.400																			1580050872.0	10.60	19.63
26/01/2020 15:01:14	26012020	260120	150113	90.060	12.306048	-56.698173	90.060	-0.280	-0.180	0.810	90.070	-1.500	1.200																			1580050873.0	10.84	20.08
26/01/2020 15:01:15	26012020	260120	150114	90.060	12.306047	-56.698123	89.960	-0.160	-0.260	0.900	90.040	-1.600	1.200																			1580050874.0	10.46	19.37
26/01/2020 15:01:16	26012020	260120	150115	89.960	12.306045	-56.698075	89.780	0.040	-0.460	1.150	89.920	-1.700	1.400																			1580050875.0	10.23	18.95
26/01/2020 15:01:17	26012020	260120	150116	89.740	12.306043	-56.698027	89.610	0.270	-0.740	1.190	89.700	-2.000	1.600																			1580050876.0	10.49	19.43
26/01/2020 15:01:18	26012020	260120	150117	89.580	12.306043	-56.697975	89.460	0.360	-0.740	1.190	89.540	-2.100	1.500																			1580050877.0	10.64	19.71
26/01/2020 15:01:19	26012020	260120	150118	89.410	12.306043	-56.697927	89.320	0.250	-0.350	1.300	89.380	-1.900	1.600																			1580050878.0	10.38	19.22
26/01/2020 15:01:20	26012020	260120	150119	89.300	12.306043	-56.697878	89.290	0.070	0.050	1.330	89.290	-1.400	1.700																			1580050879.0	10.04	18.59
26/01/2020 15:01:21	26012020	260120	150120	89.300	12.306043	-56.697832	89.340	-0.030	0.100	1.260	89.310	-1.200	1.700																			1580050880.0	10.15	18.80
26/01/2020 15:01:22	26012020	260120	150121	89.370	12.306043	-56.697782	89.430	-0.070	0.070	1.080	89.390	-1.300	1.500																			1580050881.0	10.54	19.52
26/01/2020 15:01:23	26012020	260120	150122	89.470	12.306045	-56.697732	89.550	-0.160	0.250	0.980	89.500	-1.200	1.400																			1580050882.0	10.47	19.39
26/01/2020 15:01:24	26012020	260120	150123	89.630	12.306045	-56.697685	89.760	-0.190	0.260	0.820	89.670	-1.000	1.300																			1580050883.0	10.04	18.59
26/01/2020 15:01:25	26012020	260120	150124	89.870	12.306045	-56.697637	90.010	0.100	-0.430	0.480	89.920	-1.500	1.000																			1580050884.0	10.23	18.95
26/01/2020 15:01:26	26012020	260120	150125	90.100	12.306048	-56.697583	90.120	0.540	-1.230	0.250	90.120	-2.400	0.700																			1580050885.0	11.10	20.56
26/01/2020 15:01:27	26012020	260120	150126	90.160	12.306050	-56.697530	90.120	0.690	-1.180	0.320	90.160	-2.700	0.700																			1580050886.0	11.22	20.78
26/01/2020 15:01:28	26012020	260120	150127	90.160	12.306052	-56.697482	90.200	0.320	-0.290	0.480	90.170	-2.000	0.800																			1580050887.0	10.31	19.09
26/01/2020 15:01:29	26012020	260120	150128	90.290	12.306052	-56.697437	90.440	-0.330	0.560	0.630	90.330	-1.000	1.000																			1580050888.0	9.50	17.59
26/01/2020 15:01:30	26012020	260120	150129	90.500	12.306052	-56.697392	90.750	-0.800	0.610	0.780	90.560	-0.700	1.100																			1580050889.0	9.62	17.82
26/01/2020 15:01:31	26012020	260120	150130	90.840	12.306048	-56.697342	90.970	-0.790	-0.080	0.820	90.880	-1.100	1.200																			1580050890.0	10.49	19.43
26/01/2020 15:01:32	26012020	260120	150131	91.060	12.306045	-56.697288	91.120	-0.420	-0.730	0.780	91.080	-1.900	1.200																			1580050891.0	11.19	20.72
26/01/2020 15:01:33	26012020	260120	150132	91.170	12.306043	-56.697237	91.230	-0.010	-0.760	0.630	91.190	-2.200	1.100																			1580050892.0	11.06	20.48
26/01/2020 15:01:34	26012020	260120	150133	91.300	12.306043	-56.697188	91.410	0.250	-0.320	0.270	91.340	-1.900	0.800																			1580050893.0	10.40	19.26
26/01/2020 15:01:35	26012020	260120	150134	91.520	12.306045	-56.697140	91.650	0.370	0.060	-0.190	91.560	-1.400	0.400																			1580050894.0	10.03	18.58
26/01/2020 15:01:36	26012020	260120	150135	91.750	12.306048	-56.697092	91.850	0.490	0.080	-0.510	91.790	-1.200	-0.000																			1580050895.0	10.19	18.87
26/01/2020 15:01:37	26012020	260120	150136	91.970	12.306050	-56.697042	92.110	0.600	-0.100	-0.640	92.020	-1.400	-0.200																			1580050896.0	10.60	19.63
26/01/2020 15:01:38	26012020	260120	150137	92.250	12.306052	-56.696992	92.370	0.520	-0.170	-0.500	92.310	-1.500	-0.200																			1580050897.0	10.72	19.85
26/01/2020 15:01:39	26012020	260120	150138	92.490	12.306053	-56.696942	92.580	0.200	-0.200	-0.150	92.540	-1.500	0.100																			1580050898.0	10.46	19.37
26/01/2020 15:01:40	26012020	260120	150139	92.690	12.306052	-56.696893	92.830	-0.180	-0.320	0.320	92.730	-1.600	0.500																			1580050899.0	10.37	19.21
26/01/2020 15:01:41	26012020	260120	150140	92.960	12.306047	-56.696843	93.180	-0.410	-0.470	0.640	93.030	-1.800	0.900																			1580050900.0	10.48	19.41
26/01/2020 15:01:42	26012020	260120	150141	93.240	12.306043	-56.696793	93.460	-0.510	-0.470	0.770	93.300	-1.900	1.100																			1580050901.0	10.56	19.56
26/01/2020 15:01:43	26012020	260120	150142	93.520	12.306038	-56.696745	93.530	-0.520	-0.350	0.770	93.530	-1.800	1.200																			1580050902.0	10.44	19.33
26/01/2020 15:01:44	26012020	260120	150143	93.530	12.306033	-56.696697	93.540	-0.460	-0.280	0.540	93.530	-1.600	1.000																			1580050903.0	10.36	19.19
26/01/2020 15:01:45	26012020	260120	150144	93.580	12.306032	-56.696647	93.690	-0.240	-0.310	0.080	93.610	-1.600	0.600																			1580050904.0	10.50	19.45
26/01/2020 15:01:46	26012020	260120	150145	93.800	12.306030	-56.696597	94.010	0.090	-0.340	-0.480	93.870	-1.700	0.100																			1580050905.0	10.70	19.82
26/01/2020 15:01:47	26012020	260120	150146	94.130	12.306030	-56.696545	94.230	0.400	-0.250	-0.700	94.180	-1.700	-0.300																			1580050906.0	10.71	19.83
26/01/2020 15:01:48	26012020	260120	150147	94.290	12.306030	-56.696495	94.300	0.620	-0.090	-0.580	94.300	-1.500	-0.200																			1580050907.0	10.60	19.63
26/01/2020 15:01:49	26012020	260120	150148	94.370	12.306028	-56.696445	94.540	0.660	0.070	-0.560	94.410	-1.300	-0.200																			1580050908.0	10.52	19.48
26/01/2020 15:01:50	26012020	260120	150149	94.680	12.306028	-56.696395	95.040	0.490	0.160	-0.580	94.780	-1.200	-0.200																			1580050909.0	10.50	19.45
26/01/2020 15:01:51	26012020	260120	150150	95.250	12.306028	-56.696347	95.660	0.140	0.150	-0.460	95.380	-1.200	-0.100																			1580050910.0	10.44	19.33
26/01/2020 15:01:52	26012020	260120	150151	95.840	12.306027	-56.696297	96.120	-0.230	-0.020	-0.090	95.930	-1.300	0.100																			1580050911.0	10.36	19.19
26/01/2020 15:01:53	26012020	260120	150152	96.200	12.306020	-56.696248	96.320	-0.360	-0.500	0.400	96.250	-1.700	0.600																			1580050912.0	10.46	19.37
26/01/2020 15:01:54	26012020	260120	150153	96.350	12.306012	-56.696198	96.420	-0.190	-1.010	0.670	96.360	-2.200	1.000																			1580050913.0	10.88	20.15
26/01/2020 15:01:55	26012020	260120	150154	96.420	12.306005	-56.696147	96.490	-0.010	-1.010	0.590	96.430	-2.400	1.000																			1580050914.0	11.00	20.37
26/01/2020 15:01:56	26012020	260120	150155	96.490	12.306000	-56.696097	96.630	-0.040	-0.480	0.220	96.520	-2.100	0.800																			1580050915.0	10.53	19.50
26/01/2020 15:01:57	26012020	260120	150156	96.720	12.305998	-56.696048	97.040	-0.240	0.160	-0.280	96.800	-1.400	0.300																			1580050916.0	10.07	18.65
26/01/2020 15:01:58	26012020	260120	150157	97.170	12.305995	-56.696002	97.490	-0.360	0.390	-0.470	97.260	-1.000	-0.100																			1580050917.0	10.01	18.54
26/01/2020 15:01:59	26012020	260120	150158	97.600	12.305990	-56.695952	97.820	-0.220	0.070	-0.460	97.660	-1.100	-0.100																			1580050918.0	10.47	19.39
26/01/2020 15:02:00	26012020	260120	150159	97.900	12.305985	-56.695900	98.110	0.140	-0.400	-0.480	97.960	-1.600	-0.100	1016.30	26.20	26.20	19.50	19.60	888.00	66.00	66.00	376.00	29.30	358.00	9.20	88.00	3.90	64292	3108.00	27.60	27.60	1580050919.0	11.01	20.39
26/01/2020 15:02:01	26012020	260120	150200	98.210	12.305980	-56.695848	98.540	0.480	-0.600	-0.510	98.290	-1.900	-0.100																			1580050920.0	11.12	20.59
26/01/2020 15:02:02	26012020	260120	150201	98.670	12.305975	-56.695797	99.130	0.490	-0.320	-0.550	98.790	-1.800	-0.100																			1580050921.0	10.83	20.06
26/01/2020 15:02:03	26012020	260120	150202	99.270	12.305970	-56.695748	99.730	0.170	0.240	-0.610	99.390	-1.300	-0.200																			1580050922.0	10.22	18.93
26/01/2020 15:02:04	26012020	260120	150203	99.840	12.305967	-56.695703	100.190	-0.140	0.460	-0.570	99.940	-0.900	-0.200																			1580050923.0	9.87	18.28
26/01/2020 15:02:05	26012020	260120	150204	100.230	12.305960	-56.695655	100.500	-0.120	-0.040	-0.470	100.290	-1.200	-0.100																			1580050924.0	10.23	18.95
26/01/2020 15:02:06	26012020	260120	150205	100.540	12.305953	-56.695603	100.840	0.130	-0.780	-0.530	100.540	-1.900	-0.100																			1580050925.0	11.02	20.41
26/01/2020 15:02:07	26012020	260120	150206	100.870	12.305945	-56.695550	101.080	0.260	-0.980	-0.600	100.930	-2.400	-0.200																			1580050926.0	11.20	20.74
26/01/2020 15:02:08	26012020	260120	150207	101.060	12.305938	-56.695502	101.140	0.160	-0.570	-0.600	101.080	-2.100	-0.200																			1580050927.0	10.58	19.59
26/01/2020 15:02:09	26012020	260120	150208	101.100	12.305930	-56.695455	101.150	-0.060	-0.160	-0.620	101.100	-1.600	-0.200																			1580050928.0	10.04	18.59
26/01/2020 15:02:10	26012020	260120	150209	101.140	12.305923	-56.695407	101.290	-0.270	-0.030	-0.730	101.160	-1.400	-0.300																			1580050929.0	10.25	18.98
26/01/2020 15:02:11	26012020	260120	150210	101.320	12.305915	-56.695357	101.540	-0.360	-0.030	-0.840	101.370	-1.400	-0.400																			1580050930.0	10.58	19.59
26/01/2020 15:02:12	26012020	260120	150211	101.570	12.305907	-56.695307	101.760	-0.300	-0.100	-0.770	101.610	-1.400	-0.400																			1580050931.0	10.68	19.78
26/01/2020 15:02:13	26012020	260120	150212	101.770	12.305897	-56.695258	101.930	-0.180	-0.150	-0.610	101.800	-1.500	-0.300																			1580050932.0	10.73	19.87
26/01/2020 15:02:14	26012020	260120	150213	101.940	12.305885	-56.695208	102.130	-0.120	-0.120	-0.570	101.980	-1.500	-0.200																			1580050933.0	10.66	19.74
26/01/2020 15:02:15	26012020	260120	150214	102.150	12.305875	-56.695160	102.330	-0.030	-0.090	-0.590	102.200	-1.500	-0.200																			1580050934.0	10.51	19.46
26/01/2020 15:02:16	26012020	260120	150215	102.350	12.305867	-56.695112	102.540	0.200	-0.200	-0.660	102.390	-1.500	-0.300																			1580050935.0	10.49	19.43
26/01/2020 15:02:17	26012020	260120	150216	102.570	12.305857	-56.695062	102.780	0.470	-0.310	-0.740	102.620	-1.600	-0.300																			1580050936.0	10.68	19.78
26/01/2020 15:02:18	26012020	260120	150217	102.780	12.305848	-56.695012	103.000	0.540	-0.290	-0.750	102.830	-1.700	-0.400																			1580050937.0	10.68	19.78
26/01/2020 15:02:19	26012020	260120	150218	103.030	12.305840	-56.694963	103.120	0.370	-0.220	-0.670	103.060	-1.600	-0.300																			1580050938.0	10.44	19.33
26/01/2020 15:02:20	26012020	260120	150219	103.110	12.305832	-56.694915	103.130	0.150	-0.330	-0.350	103.120	-1.600	-0.100																			1580050939.0	10.40	19.26
26/01/2020 15:02:21	26012020	260120	150220	103.090	12.305822	-56.694865	103.060	0.020	-0.560	0.160	103.070	-1.800	0.300																			1580050940.0	10.67	19.76
26/01/2020 15:02:22	26012020	260120	150221	102.990	12.305808	-56.694815	102.950	-0.110	-0.600	0.520	102.960	-2.000	0.800																			1580050941.0	10.87	20.13
26/01/2020 15:02:23	26012020	260120	150222	102.900	12.305797	-56.694767	102.970	-0.330	-0.350	0.590	102.900	-1.800	1.000																			1580050942.0	10.71	19.83
26/01/2020 15:02:24	26012020	260120	150223	102.960	12.305785	-56.694718	103.110	-0.590	0.010	0.460	102.990	-1.500	0.900																			1580050943.0	10.47	19.39
26/01/2020 15:02:25	26012020	260120	150224	103.120	12.305772	-56.694672	103.260	-0.700	0.240	0.340	103.160	-1.200	0.700																			1580050944.0	10.32	19.11
26/01/2020 15:02:26	26012020	260120	150225	103.260	12.305760	-56.694623	103.340	-0.460	0.080	0.160	103.270	-1.200	0.600																			1580050945.0	10.46	19.37
26/01/2020 15:02:27	26012020	260120	150226	103.320	12.305748	-56.694573	103.440	0.140	-0.370	-0.150	103.330	-1.600	0.300																			1580050946.0	10.89	20.17
26/01/2020 15:02:28	26012020	260120	150227	103.440	12.305737	-56.694522	103.620	0.720	-0.570	-0.460	103.480	-1.900	0.000																			1580050947.0	11.20	20.74
26/01/2020 15:02:29	26012020	260120	150228	103.640	12.305728	-56.694472	103.840	0.870	-0.230	-0.710	103.680	-1.800	-0.300																			1580050948.0	10.86	20.11
26/01/2020 15:02:30	26012020	260120	150229	103.860	12.305722	-56.694423	104.060	0.620	0.260	-0.780	103.910	-1.300	-0.400																			1580050949.0	10.19	18.87
26/01/2020 15:02:31	26012020	260120	150230	104.070	12.305713	-56.694377	104.240	0.290	0.220	-0.410	104.110	-1.000	-0.200																			1580050950.0	9.96	18.45
26/01/2020 15:02:32	26012020	260120	150231	104.200	12.305702	-56.694328	104.290	0.080	-0.420	0.140	104.210	-1.500	0.300																			1580050951.0	10.61	19.65
26/01/2020 15:02:33	26012020	260120	150232	104.230	12.305687	-56.694277	104.280	-0.130	-0.830	0.530	104.230	-2.100	0.800																			1580050952.0	11.19	20.72
26/01/2020 15:02:34	26012020	260120	150233	104.220	12.305673	-56.694228	104.230	-0.460	-0.640	0.870	104.210	-2.100	1.100																			1580050953.0	10.82	20.04
26/01/2020 15:02:35	26012020	260120	150234	104.110	12.305658	-56.694182	104.030	-0.670	-0.390	1.030	104.080	-1.800	1.400																			1580050954.0	10.24	18.96
26/01/2020 15:02:36	26012020	260120	150235	103.850	12.305645	-56.694135	103.690	-0.500	-0.590	0.860	103.790	-1.800	1.300																			1580050955.0	10.46	19.37
26/01/2020 15:02:37	26012020	260120	150236	103.550	12.305632	-56.694083	103.560	-0.100	-0.770	0.470	103.520	-2.100	1.000																			1580050956.0	11.19	20.72
26/01/2020 15:02:38	26012020	260120	150237	103.520	12.305620	-56.694032	103.720	0.140	-0.300	0.060	103.560	-1.900	0.600																			1580050957.0	11.16	20.67
26/01/2020 15:02:39	26012020	260120	150238	103.760	12.305608	-56.693985	104.000	0.100	0.490	-0.280	103.820	-1.200	0.200																			1580050958.0	10.38	19.22
26/01/2020 15:02:40	26012020	260120	150239	104.040	12.305598	-56.693938	104.200	0.050	0.820	-0.330	104.080	-0.600	0.000																			1580050959.0	10.00	18.52
26/01/2020 15:02:41	26012020	260120	150240	104.200	12.305587	-56.693890	104.320	0.230	0.460	-0.130	104.220	-0.700	0.200																			1580050960.0	10.41	19.28
26/01/2020 15:02:42	26012020	260120	150241	104.320	12.305575	-56.693840	104.510	0.520	-0.180	-0.030	104.350	-1.300	0.300																			1580050961.0	11.02	20.41
26/01/2020 15:02:43	26012020	260120	150242	104.520	12.305565	-56.693788	104.750	0.600	-0.560	0.030	104.570	-1.800	0.400																			1580050962.0	11.10	20.56
26/01/2020 15:02:44	26012020	260120	150243	104.740	12.305553	-56.693738	104.910	0.340	-0.610	0.180	104.780	-2.000	0.500																			1580050963.0	10.70	19.82
26/01/2020 15:02:45	26012020	260120	150244	104.850	12.305542	-56.693692	104.880	-0.080	-0.550	0.490	104.850	-1.900	0.700																			1580050964.0	10.34	19.15
26/01/2020 15:02:46	26012020	260120	150245	104.770	12.305528	-56.693645	104.780	-0.370	-0.560	0.760	104.740	-1.900	1.000																			1580050965.0	10.35	19.17
26/01/2020 15:02:47	26012020	260120	150246	104.670	12.305513	-56.693597	104.720	-0.410	-0.640	0.830	104.660	-2.000	1.200																			1580050966.0	10.59	19.61
26/01/2020 15:02:48	26012020	260120	150247	104.600	12.305498	-56.693548	104.560	-0.290	-0.660	0.810	104.570	-2.000	1.200																			1580050967.0	10.81	20.02
26/01/2020 15:02:49	26012020	260120	150248	104.400	12.305485	-56.693498	104.280	-0.170	-0.570	0.680	104.340	-2.000	1.100																			1580050968.0	10.87	20.13
26/01/2020 15:02:50	26012020	260120	150249	104.120	12.305472	-56.693450	104.060	-0.140	-0.360	0.430	104.080	-1.800	0.900																			1580050969.0	10.88	20.15
26/01/2020 15:02:51	26012020	260120	150250	103.980	12.305458	-56.693400	104.080	-0.140	0.050	0.170	103.980	-1.500	0.600																			1580050970.0	10.81	20.02
26/01/2020 15:02:52	26012020	260120	150251	104.090	12.305447	-56.693352	104.370	-0.100	0.450	-0.210	104.130	-1.000	0.300																			1580050971.0	10.53	19.50
26/01/2020 15:02:53	26012020	260120	150252	104.430	12.305435	-56.693303	104.760	0.050	0.460	-0.460	104.510	-0.900	-0.100																			1580050972.0	10.51	19.46
26/01/2020 15:02:54	26012020	260120	150253	104.790	12.305423	-56.693253	104.990	0.200	0.280	-0.310	104.840	-1.000	-0.000																			1580050973.0	10.83	20.06
26/01/2020 15:02:55	26012020	260120	150254	104.960	12.305410	-56.693203	105.060	0.240	0.100	-0.150	104.980	-1.200	0.200																			1580050974.0	10.77	19.95
26/01/2020 15:02:56	26012020	260120	150255	105.000	12.305398	-56.693155	105.130	0.260	-0.170	-0.060	105.000	-1.400	0.300																			1580050975.0	10.58	19.59
26/01/2020 15:02:57	26012020	260120	150256	105.080	12.305388	-56.693107	105.220	0.360	-0.630	0.000	105.110	-1.800	0.300																			1580050976.0	10.65	19.72
26/01/2020 15:02:58	26012020	260120	150257	105.160	12.305377	-56.693057	105.170	0.420	-1.060	0.150	105.150	-2.300	0.400																			1580050977.0	10.91	20.21
26/01/2020 15:02:59	26012020	260120	150258	105.010	12.305363	-56.693007	104.860	0.280	-1.130	0.570	104.950	-2.500	0.700																			1580050978.0	10.96	20.30
26/01/2020 15:03:00	26012020	260120	150259	104.630	12.305348	-56.692958	104.380	-0.070	-0.760	1.060	104.540	-2.300	1.300	1016.30	26.20	26.30	19.60	19.70	876.00	67.00	67.00	376.00	29.30	350.00	9.30	80.00	4.00	64275	3280.00	27.60	27.60	1580050979.0	10.71	19.83
26/01/2020 15:03:01	26012020	260120	150300	104.140	12.305333	-56.692912	103.980	-0.480	-0.270	1.250	104.050	-1.800	1.600																			1580050980.0	10.46	19.37
26/01/2020 15:03:02	26012020	260120	150301	103.810	12.305318	-56.692863	103.840	-0.690	-0.070	1.050	103.780	-1.500	1.500																			1580050981.0	10.55	19.54
26/01/2020 15:03:03	26012020	260120	150302	103.730	12.305303	-56.692813	103.830	-0.660	-0.010	0.770	103.730	-1.400	1.200																			1580050982.0	10.96	20.30
26/01/2020 15:03:04	26012020	260120	150303	103.740	12.305290	-56.692763	103.860	-0.540	0.280	0.460	103.750	-1.200	0.900																			1580050983.0	11.01	20.39
26/01/2020 15:03:05	26012020	260120	150304	103.790	12.305277	-56.692715	103.950	-0.330	0.530	0.130	103.810	-0.900	0.600																			1580050984.0	10.60	19.63
26/01/2020 15:03:06	26012020	260120	150305	103.910	12.305263	-56.692667	104.090	0.100	0.250	-0.150	103.940	-0.900	0.300																			1580050985.0	10.55	19.54
26/01/2020 15:03:07	26012020	260120	150306	104.070	12.305253	-56.692615	104.280	0.580	-0.320	-0.410	104.100	-1.500	0.000																			1580050986.0	11.08	20.52
26/01/2020 15:03:08	26012020	260120	150307	104.270	12.305243	-56.692563	104.480	0.740	-0.460	-0.380	104.310	-1.800	-0.100																			1580050987.0	11.24	20.82
26/01/2020 15:03:09	26012020	260120	150308	104.450	12.305233	-56.692515	104.630	0.470	-0.170	0.050	104.490	-1.600	0.200																			1580050988.0	10.48	19.41
26/01/2020 15:03:10	26012020	260120	150309	104.550	12.305222	-56.692470	104.590	0.170	-0.240	0.520	104.550	-1.500	0.700																			1580050989.0	10.00	18.52
26/01/2020 15:03:11	26012020	260120	150310	104.430	12.305207	-56.692422	104.260	0.200	-1.000	1.030	104.370	-2.000	1.200																			1580050990.0	10.63	19.69
26/01/2020 15:03:12	26012020	260120	150311	104.000	12.305192	-56.692368	103.780	0.340	-1.510	1.400	103.900	-2.800	1.700																			1580050991.0	11.62	21.52
26/01/2020 15:03:13	26012020	260120	150312	103.540	12.305177	-56.692317	103.440	0.110	-0.810	1.460	103.480	-2.600	1.800																			1580050992.0	11.38	21.08
26/01/2020 15:03:14	26012020	260120	150313	103.280	12.305165	-56.692270	103.340	-0.460	0.440	1.290	103.260	-1.400	1.700																			1580050993.0	10.08	18.67
26/01/2020 15:03:15	26012020	260120	150314	103.240	12.305153	-56.692227	103.430	-0.900	0.930	0.910	103.270	-0.500	1.400																			1580050994.0	9.64	17.85
26/01/2020 15:03:16	26012020	260120	150315	103.380	12.305140	-56.692178	103.580	-0.930	0.460	0.560	103.410	-0.700	1.000																			1580050995.0	10.56	19.56
26/01/2020 15:03:17	26012020	260120	150316	103.540	12.305127	-56.692127	103.780	-0.660	-0.090	0.320	103.590	-1.300	0.800																			1580050996.0	11.39	21.09
26/01/2020 15:03:18	26012020	260120	150317	103.770	12.305112	-56.692077	103.990	-0.240	-0.240	0.200	103.810	-1.600	0.600																			1580050997.0	11.14	20.63
26/01/2020 15:03:19	26012020	260120	150318	103.940	12.305098	-56.692028	104.030	0.270	-0.350	0.240	103.950	-1.600	0.600																			1580050998.0	10.56	19.56
26/01/2020 15:03:20	26012020	260120	150319	103.930	12.305087	-56.691978	103.910	0.800	-0.720	0.230	103.900	-1.900	0.600																			1580050999.0	10.65	19.72
26/01/2020 15:03:21	26012020	260120	150320	103.780	12.305077	-56.691928	103.740	1.030	-0.860	0.290	103.740	-2.200	0.600																			1580051000.0	11.04	20.45
26/01/2020 15:03:22	26012020	260120	150321	103.630	12.305067	-56.691878	103.570	0.770	-0.430	0.380	103.600	-2.000	0.700																			1580051001.0	10.76	19.93
26/01/2020 15:03:23	26012020	260120	150322	103.440	12.305057	-56.691832	103.400	0.200	0.150	0.510	103.400	-1.400	0.800																			1580051002.0	10.14	18.78
26/01/2020 15:03:24	26012020	260120	150323	103.250	12.305047	-56.691785	103.220	-0.290	0.170	0.660	103.220	-1.100	1.000																			1580051003.0	10.09	18.69
26/01/2020 15:03:25	26012020	260120	150324	103.060	12.305033	-56.691735	103.010	-0.450	-0.360	0.830	103.020	-1.500	1.100																			1580051004.0	10.84	20.08
26/01/2020 15:03:26	26012020	260120	150325	102.830	12.305018	-56.691683	102.770	-0.400	-0.710	1.030	102.780	-2.000	1.300																			1580051005.0	11.41	21.13
26/01/2020 15:03:27	26012020	260120	150326	102.600	12.305003	-56.691633	102.640	-0.410	-0.400	1.060	102.570	-1.900	1.400																			1580051006.0	11.15	20.65
26/01/2020 15:03:28	26012020	260120	150327	102.530	12.304990	-56.691585	102.660	-0.470	0.110	0.920	102.540	-1.400	1.300																			1580051007.0	10.40	19.26
26/01/2020 15:03:29	26012020	260120	150328	102.560	12.304977	-56.691538	102.640	-0.350	0.170	0.690	102.560	-1.100	1.100																			1580051008.0	10.23	18.95
26/01/2020 15:03:30	26012020	260120	150329	102.540	12.304965	-56.691490	102.640	-0.040	-0.140	0.390	102.540	-1.400	0.900																			1580051009.0	10.79	19.98
26/01/2020 15:03:31	26012020	260120	150330	102.590	12.304955	-56.691438	102.720	0.240	-0.320	0.240	102.600	-1.700	0.600																			1580051010.0	11.07	20.50
26/01/2020 15:03:32	26012020	260120	150331	102.680	12.304943	-56.691388	102.750	0.380	-0.260	0.200	102.690	-1.700	0.600																			1580051011.0	10.80	20.00
26/01/2020 15:03:33	26012020	260120	150332	102.660	12.304933	-56.691340	102.630	0.350	-0.130	0.310	102.640	-1.500	0.600																			1580051012.0	10.51	19.46
26/01/2020 15:03:34	26012020	260120	150333	102.510	12.304922	-56.691292	102.460	0.240	-0.090	0.550	102.470	-1.400	0.800																			1580051013.0	10.41	19.28
26/01/2020 15:03:35	26012020	260120	150334	102.350	12.304912	-56.691243	102.320	0.220	-0.370	0.790	102.320	-1.600	1.100																			1580051014.0	10.53	19.50
26/01/2020 15:03:36	26012020	260120	150335	102.190	12.304900	-56.691193	102.100	0.320	-0.790	0.980	102.150	-2.000	1.300																			1580051015.0	10.97	20.32
26/01/2020 15:03:37	26012020	260120	150336	101.950	12.304888	-56.691142	101.900	0.260	-0.810	1.020	101.910	-2.200	1.400																			1580051016.0	11.21	20.76
26/01/2020 15:03:38	26012020	260120	150337	101.780	12.304877	-56.691092	101.820	-0.100	-0.270	1.010	101.760	-1.900	1.400																			1580051017.0	10.74	19.89
26/01/2020 15:03:39	26012020	260120	150338	101.740	12.304865	-56.691045	101.820	-0.530	0.260	1.010	101.740	-1.300	1.400																			1580051018.0	10.17	18.83
26/01/2020 15:03:40	26012020	260120	150339	101.730	12.304853	-56.690998	101.760	-0.690	0.140	0.930	101.730	-1.100	1.300																			1580051019.0	10.31	19.09
26/01/2020 15:03:41	26012020	260120	150340	101.650	12.304840	-56.690947	101.650	-0.460	-0.370	0.880	101.630	-1.500	1.200																			1580051020.0	11.05	20.46
26/01/2020 15:03:42	26012020	260120	150341	101.540	12.304827	-56.690895	101.550	-0.090	-0.560	0.740	101.510	-1.900	1.200																			1580051021.0	11.39	21.09
26/01/2020 15:03:43	26012020	260120	150342	101.450	12.304817	-56.690845	101.480	0.160	-0.270	0.420	101.440	-1.800	0.900																			1580051022.0	10.95	20.28
26/01/2020 15:03:44	26012020	260120	150343	101.400	12.304807	-56.690797	101.440	0.210	0.090	0.120	101.390	-1.400	0.600																			1580051023.0	10.45	19.35
26/01/2020 15:03:45	26012020	260120	150344	101.390	12.304798	-56.690748	101.510	0.120	0.190	0.030	101.400	-1.200	0.400																			1580051024.0	10.39	19.24
26/01/2020 15:03:46	26012020	260120	150345	101.500	12.304790	-56.690698	101.640	0.080	0.020	0.180	101.500	-1.300	0.500																			1580051025.0	10.57	19.58
26/01/2020 15:03:47	26012020	260120	150346	101.620	12.304778	-56.690648	101.670	0.210	-0.310	0.440	101.640	-1.600	0.700																			1580051026.0	10.78	19.96
26/01/2020 15:03:48	26012020	260120	150347	101.600	12.304767	-56.690598	101.540	0.290	-0.500	0.690	101.570	-1.800	1.000																			1580051027.0	10.96	20.30
26/01/2020 15:03:49	26012020	260120	150348	101.420	12.304755	-56.690548	101.300	0.140	-0.410	0.910	101.380	-1.800	1.200																			1580051028.0	10.75	19.91
26/01/2020 15:03:50	26012020	260120	150349	101.160	12.304745	-56.690502	101.050	-0.080	-0.310	1.020	101.110	-1.700	1.400																			1580051029.0	10.42	19.30
26/01/2020 15:03:51	26012020	260120	150350	100.920	12.304735	-56.690452	100.830	-0.080	-0.520	0.850	100.880	-1.800	1.300																			1580051030.0	10.53	19.50
26/01/2020 15:03:52	26012020	260120	150351	100.710	12.304725	-56.690402	100.590	0.150	-0.850	0.670	100.660	-2.100	1.100																			1580051031.0	11.04	20.45
26/01/2020 15:03:53	26012020	260120	150352	100.470	12.304715	-56.690348	100.340	0.240	-0.710	0.800	100.420	-2.200	1.100																			1580051032.0	11.27	20.87
26/01/2020 15:03:54	26012020	260120	150353	100.220	12.304705	-56.690298	100.170	-0.020	-0.100	0.960	100.180	-1.700	1.300																			1580051033.0	10.77	19.95
26/01/2020 15:03:55	26012020	260120	150354	100.090	12.304693	-56.690252	100.150	-0.410	0.370	1.000	100.090	-1.100	1.400																			1580051034.0	10.29	19.06
26/01/2020 15:03:56	26012020	260120	150355	100.110	12.304683	-56.690203	100.250	-0.610	0.390	0.910	100.140	-0.900	1.300																			1580051035.0	10.47	19.39
26/01/2020 15:03:57	26012020	260120	150356	100.250	12.304672	-56.690153	100.340	-0.540	0.140	0.770	100.270	-1.100	1.200																			1580051036.0	10.86	20.11
26/01/2020 15:03:58	26012020	260120	150357	100.300	12.304662	-56.690102	100.290	-0.240	-0.150	0.620	100.290	-1.400	1.000																			1580051037.0	10.99	20.35
26/01/2020 15:03:59	26012020	260120	150358	100.250	12.304652	-56.690052	100.250	0.160	-0.400	0.440	100.230	-1.700	0.900																			1580051038.0	10.94	20.26
26/01/2020 15:04:00	26012020	260120	150359	100.250	12.304643	-56.690000	100.350	0.440	-0.530	0.210	100.250	-1.900	0.700	1016.30	26.20	26.30	19.90	20.00	884.00	68.00	68.00	376.00	29.30	356.00	9.30	92.00	3.80	64194	3268.00	27.60	27.60	1580051039.0	10.89	20.17
26/01/2020 15:04:01	26012020	260120	150400	100.370	12.304635	-56.689950	100.450	0.430	-0.430	0.000	100.390	-1.900	0.400																			1580051040.0	10.77	19.95
26/01/2020 15:04:02	26012020	260120	150401	100.450	12.304628	-56.689902	100.420	0.160	-0.120	-0.070	100.450	-1.600	0.300																			1580051041.0	10.50	19.45
26/01/2020 15:04:03	26012020	260120	150402	100.380	12.304620	-56.689853	100.340	-0.100	0.070	0.090	100.360	-1.300	0.400																			1580051042.0	10.23	18.95
26/01/2020 15:04:04	26012020	260120	150403	100.290	12.304610	-56.689805	100.270	-0.080	-0.220	0.310	100.280	-1.400	0.600																			1580051043.0	10.42	19.30
26/01/2020 15:04:05	26012020	260120	150404	100.220	12.304600	-56.689753	100.140	0.230	-0.880	0.420	100.200	-2.000	0.700																			1580051044.0	11.08	20.52
26/01/2020 15:04:06	26012020	260120	150405	100.080	12.304590	-56.689700	100.010	0.450	-1.020	0.610	100.040	-2.400	0.900																			1580051045.0	11.54	21.37
26/01/2020 15:04:07	26012020	260120	150406	99.940	12.304580	-56.689650	99.910	0.230	-0.330	0.830	99.920	-2.000	1.100																			1580051046.0	10.94	20.26
26/01/2020 15:04:08	26012020	260120	150407	99.860	12.304572	-56.689603	99.810	-0.260	0.410	0.840	99.840	-1.200	1.200																			1580051047.0	10.04	18.59
26/01/2020 15:04:09	26012020	260120	150408	99.750	12.304562	-56.689557	99.690	-0.570	0.360	0.690	99.720	-0.900	1.100																			1580051048.0	10.13	18.76
26/01/2020 15:04:10	26012020	260120	150409	99.660	12.304553	-56.689505	99.660	-0.510	-0.270	0.640	99.650	-1.400	1.000																			1580051049.0	11.03	20.43
26/01/2020 15:04:11	26012020	260120	150410	99.650	12.304542	-56.689452	99.660	-0.280	-0.620	0.640	99.660	-1.900	1.000																			1580051050.0	11.55	21.39
26/01/2020 15:04:12	26012020	260120	150411	99.650	12.304530	-56.689400	99.620	-0.120	-0.360	0.640	99.650	-1.900	1.000																			1580051051.0	11.09	20.54
26/01/2020 15:04:13	26012020	260120	150412	99.600	12.304522	-56.689352	99.670	-0.060	0.010	0.670	99.610	-1.500	1.000																			1580051052.0	10.43	19.32
26/01/2020 15:04:14	26012020	260120	150413	99.660	12.304512	-56.689303	99.910	0.000	0.090	0.560	99.700	-1.300	1.000																			1580051053.0	10.38	19.22
26/01/2020 15:04:15	26012020	260120	150414	99.990	12.304503	-56.689253	100.180	0.110	-0.030	0.370	100.040	-1.400	0.800																			1580051054.0	10.66	19.74
26/01/2020 15:04:16	26012020	260120	150415	100.200	12.304497	-56.689203	100.240	0.230	-0.190	0.350	100.220	-1.500	0.700																			1580051055.0	10.77	19.95
26/01/2020 15:04:17	26012020	260120	150416	100.200	12.304488	-56.689153	100.190	0.340	-0.410	0.520	100.190	-1.700	0.800																			1580051056.0	10.76	19.93
26/01/2020 15:04:18	26012020	260120	150417	100.170	12.304480	-56.689103	100.250	0.380	-0.640	0.720	100.170	-1.900	1.000																			1580051057.0	10.87	20.13
26/01/2020 15:04:19	26012020	260120	150418	100.250	12.304472	-56.689052	100.390	0.320	-0.670	0.860	100.280	-2.100	1.200																			1580051058.0	10.92	20.22
26/01/2020 15:04:20	26012020	260120	150419	100.390	12.304462	-56.689002	100.510	0.110	-0.380	0.980	100.410	-1.900	1.300																			1580051059.0	10.75	19.91
26/01/2020 15:04:21	26012020	260120	150420	100.480	12.304452	-56.688953	100.540	-0.180	-0.030	1.100	100.490	-1.500	1.400																			1580051060.0	10.44	19.33
26/01/2020 15:04:22	26012020	260120	150421	100.480	12.304442	-56.688905	100.500	-0.310	-0.030	0.980	100.470	-1.400	1.400																			1580051061.0	10.45	19.35
26/01/2020 15:04:23	26012020	260120	150422	100.440	12.304433	-56.688855	100.490	-0.150	-0.340	0.630	100.440	-1.600	1.100																			1580051062.0	10.91	20.21
26/01/2020 15:04:24	26012020	260120	150423	100.480	12.304425	-56.688802	100.630	0.050	-0.490	0.270	100.500	-1.900	0.800																			1580051063.0	11.28	20.89
26/01/2020 15:04:25	26012020	260120	150424	100.650	12.304418	-56.688750	100.870	-0.010	-0.200	0.040	100.700	-1.700	0.500																			1580051064.0	11.04	20.45
26/01/2020 15:04:26	26012020	260120	150425	100.900	12.304410	-56.688702	101.090	-0.290	0.230	-0.000	100.950	-1.300	0.400																			1580051065.0	10.45	19.35
26/01/2020 15:04:27	26012020	260120	150426	101.110	12.304400	-56.688653	101.280	-0.430	0.260	0.100	101.140	-1.100	0.400																			1580051066.0	10.25	18.98
26/01/2020 15:04:28	26012020	260120	150427	101.290	12.304390	-56.688603	101.470	-0.250	-0.220	0.190	101.330	-1.400	0.500																			1580051067.0	10.73	19.87
26/01/2020 15:04:29	26012020	260120	150428	101.470	12.304380	-56.688552	101.600	0.080	-0.660	0.270	101.500	-1.900	0.600																			1580051068.0	11.24	20.82
26/01/2020 15:04:30	26012020	260120	150429	101.570	12.304368	-56.688500	101.610	0.280	-0.660	0.430	101.570	-2.100	0.700																			1580051069.0	11.09	20.54
26/01/2020 15:04:31	26012020	260120	150430	101.560	12.304358	-56.688452	101.620	0.320	-0.460	0.430	101.560	-1.900	0.800																			1580051070.0	10.66	19.74
26/01/2020 15:04:32	26012020	260120	150431	101.600	12.304350	-56.688402	101.740	0.230	-0.260	0.190	101.620	-1.700	0.700																			1580051071.0	10.59	19.61
26/01/2020 15:04:33	26012020	260120	150432	101.750	12.304342	-56.688352	101.910	0.030	0.030	-0.070	101.780	-1.500	0.400																			1580051072.0	10.63	19.69
26/01/2020 15:04:34	26012020	260120	150433	101.920	12.304333	-56.688303	102.040	-0.100	0.140	-0.190	101.950	-1.200	0.200																			1580051073.0	10.46	19.37
26/01/2020 15:04:35	26012020	260120	150434	102.030	12.304325	-56.688253	102.120	-0.000	-0.150	-0.090	102.040	-1.400	0.200																			1580051074.0	10.69	19.80
26/01/2020 15:04:36	26012020	260120	150435	102.100	12.304313	-56.688203	102.190	0.150	-0.460	0.070	102.110	-1.800	0.400																			1580051075.0	11.13	20.61
26/01/2020 15:04:37	26012020	260120	150436	102.170	12.304302	-56.688152	102.270	0.130	-0.430	0.100	102.190	-1.900	0.500																			1580051076.0	11.07	20.50
26/01/2020 15:04:38	26012020	260120	150437	102.230	12.304293	-56.688102	102.300	-0.020	-0.200	0.110	102.240	-1.700	0.500																			1580051077.0	10.65	19.72
26/01/2020 15:04:39	26012020	260120	150438	102.290	12.304283	-56.688053	102.430	-0.180	-0.110	0.150	102.320	-1.500	0.500																			1580051078.0	10.52	19.48
26/01/2020 15:04:40	26012020	260120	150439	102.450	12.304273	-56.688003	102.620	-0.230	-0.270	0.200	102.490	-1.600	0.500																			1580051079.0	10.70	19.82
26/01/2020 15:04:41	26012020	260120	150440	102.620	12.304260	-56.687953	102.710	-0.150	-0.510	0.220	102.630	-1.800	0.600																			1580051080.0	10.98	20.33
26/01/2020 15:04:42	26012020	260120	150441	102.660	12.304248	-56.687902	102.680	0.010	-0.520	0.130	102.660	-1.900	0.500																			1580051081.0	11.07	20.50
26/01/2020 15:04:43	26012020	260120	150442	102.610	12.304238	-56.687852	102.620	0.080	-0.300	0.030	102.600	-1.800	0.400																			1580051082.0	10.86	20.11
26/01/2020 15:04:44	26012020	260120	150443	102.580	12.304228	-56.687803	102.700	-0.010	-0.070	-0.170	102.590	-1.500	0.300																			1580051083.0	10.67	19.76
26/01/2020 15:04:45	26012020	260120	150444	102.700	12.304218	-56.687753	102.900	-0.170	0.080	-0.350	102.740	-1.300	0.100																			1580051084.0	10.64	19.71
26/01/2020 15:04:46	26012020	260120	150445	102.920	12.304208	-56.687705	103.080	-0.220	0.000	-0.350	102.950	-1.300	0.000																			1580051085.0	10.66	19.74
26/01/2020 15:04:47	26012020	260120	150446	103.070	12.304197	-56.687653	103.170	-0.060	-0.220	-0.240	103.090	-1.500	0.100																			1580051086.0	10.90	20.19
26/01/2020 15:04:48	26012020	260120	150447	103.130	12.304183	-56.687603	103.210	0.160	-0.280	-0.060	103.150	-1.700	0.200																			1580051087.0	11.01	20.39
26/01/2020 15:04:49	26012020	260120	150448	103.160	12.304172	-56.687555	103.230	0.310	-0.200	0.150	103.170	-1.600	0.500																			1580051088.0	10.77	19.95
26/01/2020 15:04:50	26012020	260120	150449	103.180	12.304160	-56.687505	103.310	0.330	-0.210	0.180	103.190	-1.600	0.600																			1580051089.0	10.61	19.65
26/01/2020 15:04:51	26012020	260120	150450	103.270	12.304150	-56.687455	103.360	0.250	-0.390	0.140	103.280	-1.700	0.500																			1580051090.0	10.74	19.89
26/01/2020 15:04:52	26012020	260120	150451	103.290	12.304140	-56.687405	103.350	0.160	-0.590	0.130	103.290	-1.900	0.500																			1580051091.0	10.95	20.28
26/01/2020 15:04:53	26012020	260120	150452	103.290	12.304128	-56.687353	103.320	0.040	-0.570	0.140	103.280	-2.000	0.500																			1580051092.0	11.04	20.45
26/01/2020 15:04:54	26012020	260120	150453	103.230	12.304117	-56.687305	103.260	-0.150	-0.330	0.200	103.220	-1.800	0.500																			1580051093.0	10.81	20.02
26/01/2020 15:04:55	26012020	260120	150454	103.180	12.304105	-56.687255	103.250	-0.300	-0.140	0.190	103.170	-1.600	0.600																			1580051094.0	10.66	19.74
26/01/2020 15:04:56	26012020	260120	150455	103.170	12.304092	-56.687207	103.240	-0.320	-0.090	0.080	103.170	-1.500	0.500																			1580051095.0	10.75	19.91
26/01/2020 15:04:57	26012020	260120	150456	103.160	12.304080	-56.687157	103.200	-0.200	-0.150	-0.090	103.160	-1.500	0.300																			1580051096.0	10.91	20.21
26/01/2020 15:04:58	26012020	260120	150457	103.130	12.304068	-56.687105	103.210	-0.030	-0.240	-0.240	103.130	-1.600	0.200																			1580051097.0	11.04	20.45
26/01/2020 15:04:59	26012020	260120	150458	103.150	12.304057	-56.687055	103.240	0.060	-0.140	-0.220	103.160	-1.600	0.100																			1580051098.0	11.02	20.41
26/01/2020 15:05:00	26012020	260120	150459	103.190	12.304045	-56.687005	103.240	0.020	0.100	-0.010	103.190	-1.400	0.300	1016.30	26.20	26.20	19.70	19.80	867.00	67.00	67.00	376.00	29.30	356.00	9.20	92.00	3.70	63537	3158.00	27.60	27.60	1580051099.0	10.71	19.83
26/01/2020 15:05:01	26012020	260120	150500	103.160	12.304033	-56.686957	103.190	-0.020	0.080	0.210	103.150	-1.200	0.500																			1580051100.0	10.48	19.41
26/01/2020 15:05:02	26012020	260120	150501	103.110	12.304022	-56.686908	103.130	0.120	-0.350	0.330	103.110	-1.600	0.700																			1580051101.0	10.80	20.00
26/01/2020 15:05:03	26012020	260120	150502	103.030	12.304008	-56.686855	103.060	0.320	-0.750	0.490	103.010	-2.000	0.800																			1580051102.0	11.24	20.82
26/01/2020 15:05:04	26012020	260120	150503	102.980	12.303997	-56.686805	102.990	0.410	-0.840	0.530	102.960	-2.200	0.900																			1580051103.0	11.20	20.74
26/01/2020 15:05:05	26012020	260120	150504	102.870	12.303985	-56.686753	102.850	0.330	-0.550	0.520	102.840	-2.100	0.900																			1580051104.0	10.97	20.32
26/01/2020 15:05:06	26012020	260120	150505	102.740	12.303973	-56.686705	102.790	0.040	0.060	0.540	102.730	-1.600	0.900																			1580051105.0	10.64	19.71
26/01/2020 15:05:07	26012020	260120	150506	102.710	12.303962	-56.686658	102.800	-0.350	0.520	0.410	102.710	-1.000	0.900																			1580051106.0	10.27	19.02
26/01/2020 15:05:08	26012020	260120	150507	102.760	12.303952	-56.686610	102.850	-0.490	0.280	0.100	102.770	-0.900	0.600																			1580051107.0	10.40	19.26
26/01/2020 15:05:09	26012020	260120	150508	102.790	12.303940	-56.686558	102.840	-0.150	-0.520	-0.010	102.790	-1.600	0.400																			1580051108.0	11.15	20.65
26/01/2020 15:05:10	26012020	260120	150509	102.740	12.303928	-56.686505	102.720	0.320	-1.020	0.190	102.720	-2.300	0.500																			1580051109.0	11.73	21.72
26/01/2020 15:05:11	26012020	260120	150510	102.610	12.303915	-56.686452	102.640	0.360	-0.560	0.400	102.590	-2.200	0.700																			1580051110.0	11.34	21.00
26/01/2020 15:05:12	26012020	260120	150511	102.570	12.303903	-56.686405	102.700	-0.090	0.290	0.440	102.590	-1.400	0.800																			1580051111.0	10.21	18.91
26/01/2020 15:05:13	26012020	260120	150512	102.660	12.303893	-56.686360	102.720	-0.430	0.390	0.430	102.670	-0.900	0.800																			1580051112.0	9.85	18.24
26/01/2020 15:05:14	26012020	260120	150513	102.650	12.303882	-56.686310	102.610	-0.260	-0.350	0.430	102.630	-1.400	0.800																			1580051113.0	10.79	19.98
26/01/2020 15:05:15	26012020	260120	150514	102.510	12.303868	-56.686257	102.540	0.200	-0.970	0.370	102.500	-2.200	0.800																			1580051114.0	11.70	21.67
26/01/2020 15:05:16	26012020	260120	150515	102.480	12.303857	-56.686203	102.550	0.430	-0.750	0.360	102.480	-2.300	0.700																			1580051115.0	11.50	21.30
26/01/2020 15:05:17	26012020	260120	150516	102.490	12.303845	-56.686155	102.580	0.230	0.010	0.220	102.500	-1.700	0.600																			1580051116.0	10.54	19.52
26/01/2020 15:05:18	26012020	260120	150517	102.520	12.303835	-56.686108	102.570	-0.060	0.370	0.140	102.520	-1.100	0.500																			1580051117.0	10.01	18.54
26/01/2020 15:05:19	26012020	260120	150518	102.510	12.303825	-56.686060	102.530	-0.040	-0.010	0.270	102.500	-1.200	0.600																			1580051118.0	10.55	19.54
26/01/2020 15:05:20	26012020	260120	150519	102.440	12.303813	-56.686008	102.420	0.130	-0.520	0.480	102.420	-1.800	0.800																			1580051119.0	11.35	21.02
26/01/2020 15:05:21	26012020	260120	150520	102.340	12.303802	-56.685955	102.330	0.110	-0.540	0.670	102.320	-2.000	1.000																			1580051120.0	11.37	21.06
26/01/2020 15:05:22	26012020	260120	150521	102.260	12.303788	-56.685907	102.280	-0.140	-0.210	0.810	102.240	-1.700	1.100																			1580051121.0	10.76	19.93
26/01/2020 15:05:23	26012020	260120	150522	102.230	12.303777	-56.685858	102.280	-0.370	-0.040	0.800	102.220	-1.400	1.200																			1580051122.0	10.45	19.35
26/01/2020 15:05:24	26012020	260120	150523	102.220	12.303765	-56.685810	102.290	-0.350	-0.080	0.640	102.220	-1.400	1.100																			1580051123.0	10.69	19.80
26/01/2020 15:05:25	26012020	260120	150524	102.240	12.303753	-56.685760	102.320	-0.150	-0.090	0.380	102.240	-1.500	0.800																			1580051124.0	10.86	20.11
26/01/2020 15:05:26	26012020	260120	150525	102.270	12.303742	-56.685710	102.310	0.080	-0.160	0.230	102.270	-1.500	0.600																			1580051125.0	10.77	19.95
26/01/2020 15:05:27	26012020	260120	150526	102.240	12.303732	-56.685660	102.240	0.270	-0.480	0.100	102.230	-1.700	0.500																			1580051126.0	10.86	20.11
26/01/2020 15:05:28	26012020	260120	150527	102.190	12.303722	-56.685608	102.220	0.420	-0.720	0.030	102.180	-2.100	0.400																			1580051127.0	11.17	20.69
26/01/2020 15:05:29	26012020	260120	150528	102.180	12.303710	-56.685557	102.240	0.390	-0.380	0.220	102.190	-1.900	0.500																			1580051128.0	11.03	20.43
26/01/2020 15:05:30	26012020	260120	150529	102.190	12.303700	-56.685508	102.210	0.220	0.080	0.400	102.180	-1.400	0.700																			1580051129.0	10.34	19.15
26/01/2020 15:05:31	26012020	260120	150530	102.110	12.303690	-56.685462	102.040	0.180	-0.130	0.520	102.070	-1.400	0.800																			1580051130.0	10.35	19.17
26/01/2020 15:05:32	26012020	260120	150531	101.920	12.303678	-56.685408	101.860	0.230	-0.630	0.810	101.880	-1.900	1.100																			1580051131.0	11.25	20.84
26/01/2020 15:05:33	26012020	260120	150532	101.780	12.303667	-56.685357	101.820	0.020	-0.580	0.980	101.770	-2.100	1.300																			1580051132.0	11.46	21.22
26/01/2020 15:05:34	26012020	260120	150533	101.760	12.303655	-56.685307	101.760	-0.430	-0.100	1.010	101.760	-1.700	1.400																			1580051133.0	10.74	19.89
26/01/2020 15:05:35	26012020	260120	150534	101.670	12.303643	-56.685260	101.590	-0.740	0.150	1.060	101.640	-1.300	1.400																			1580051134.0	10.34	19.15
26/01/2020 15:05:36	26012020	260120	150535	101.480	12.303632	-56.685210	101.450	-0.710	-0.090	0.980	101.450	-1.300	1.400																			1580051135.0	10.72	19.85
26/01/2020 15:05:37	26012020	260120	150536	101.390	12.303618	-56.685158	101.450	-0.390	-0.420	0.710	101.390	-1.700	1.200																			1580051136.0	11.26	20.85
26/01/2020 15:05:38	26012020	260120	150537	101.420	12.303607	-56.685107	101.490	-0.030	-0.380	0.470	101.430	-1.800	0.900																			1580051137.0	11.26	20.85
26/01/2020 15:05:39	26012020	260120	150538	101.480	12.303595	-56.685057	101.550	0.200	-0.030	0.230	101.490	-1.500	0.700																			1580051138.0	10.78	19.96
26/01/2020 15:05:40	26012020	260120	150539	101.530	12.303587	-56.685008	101.630	0.360	0.190	-0.050	101.540	-1.200	0.400																			1580051139.0	10.43	19.32
26/01/2020 15:05:41	26012020	260120	150540	101.640	12.303578	-56.684960	101.750	0.530	0.120	-0.350	101.670	-1.200	0.100																			1580051140.0	10.54	19.52
26/01/2020 15:05:42	26012020	260120	150541	101.780	12.303572	-56.684908	101.870	0.670	-0.190	-0.480	101.800	-1.400	-0.100																			1580051141.0	10.81	20.02
26/01/2020 15:05:43	26012020	260120	150542	101.870	12.303563	-56.684857	101.860	0.610	-0.520	-0.220	101.870	-1.800	0.000																			1580051142.0	10.98	20.33
26/01/2020 15:05:44	26012020	260120	150543	101.810	12.303553	-56.684807	101.700	0.340	-0.660	0.360	101.770	-2.000	0.500																			1580051143.0	10.93	20.24
26/01/2020 15:05:45	26012020	260120	150544	101.590	12.303542	-56.684757	101.410	-0.030	-0.670	1.070	101.530	-2.000	1.200																			1580051144.0	10.75	19.91
26/01/2020 15:05:46	26012020	260120	150545	101.250	12.303528	-56.684708	101.080	-0.320	-0.790	1.510	101.170	-2.100	1.800																			1580051145.0	10.80	20.00
26/01/2020 15:05:47	26012020	260120	150546	100.920	12.303515	-56.684657	100.830	-0.420	-0.950	1.530	100.870	-2.300	1.900																			1580051146.0	11.14	20.63
26/01/2020 15:05:48	26012020	260120	150547	100.700	12.303502	-56.684605	100.620	-0.430	-0.660	1.410	100.660	-2.200	1.800																			1580051147.0	11.37	21.06
26/01/2020 15:05:49	26012020	260120	150548	100.500	12.303490	-56.684555	100.430	-0.620	0.240	1.150	100.450	-1.500	1.600																			1580051148.0	10.94	20.26
26/01/2020 15:05:50	26012020	260120	150549	100.340	12.303478	-56.684508	100.370	-0.840	1.040	0.710	100.320	-0.600	1.300																			1580051149.0	10.17	18.83
26/01/2020 15:05:51	26012020	260120	150550	100.340	12.303470	-56.684462	100.530	-0.670	0.880	0.130	100.380	-0.300	0.700																			1580051150.0	10.19	18.87
26/01/2020 15:05:52	26012020	260120	150551	100.530	12.303462	-56.684408	100.840	-0.020	-0.140	-0.330	100.590	-1.100	0.200																			1580051151.0	11.16	20.67
26/01/2020 15:05:53	26012020	260120	150552	100.920	12.303453	-56.684353	101.060	0.630	-0.850	-0.350	100.970	-2.100	-0.000																			1580051152.0	11.91	22.06
26/01/2020 15:05:54	26012020	260120	150553	101.070	12.303445	-56.684300	101.090	0.800	-0.560	-0.040	101.080	-2.100	0.200																			1580051153.0	11.26	20.85
26/01/2020 15:05:55	26012020	260120	150554	101.080	12.303435	-56.684253	101.090	0.570	0.090	0.290	101.070	-1.500	0.600																			1580051154.0	10.06	18.63
26/01/2020 15:05:56	26012020	260120	150555	101.070	12.303427	-56.684208	101.050	0.340	0.120	0.430	101.060	-1.200	0.800																			1580051155.0	9.76	18.08
26/01/2020 15:05:57	26012020	260120	150556	101.000	12.303418	-56.684160	100.870	0.400	-0.650	0.460	100.970	-1.700	0.800																			1580051156.0	10.61	19.65
26/01/2020 15:05:58	26012020	260120	150557	100.790	12.303410	-56.684105	100.620	0.500	-1.210	0.590	100.740	-2.500	0.900																			1580051157.0	11.56	21.41
26/01/2020 15:05:59	26012020	260120	150558	100.530	12.303400	-56.684053	100.410	0.260	-0.820	0.760	100.480	-2.400	1.100																			1580051158.0	11.28	20.89
26/01/2020 15:06:00	26012020	260120	150559	100.340	12.303392	-56.684005	100.320	-0.340	-0.030	0.800	100.320	-1.700	1.200	1016.30	26.10	26.20	19.70	19.80	869.00	67.00	67.00	376.00	29.30	356.00	8.80	91.00	3.30	63603	3212.00	27.60	27.60	1580051159.0	10.33	19.13
26/01/2020 15:06:01	26012020	260120	150600	100.280	12.303382	-56.683958	100.310	-0.940	0.330	0.760	100.280	-1.100	1.100																			1580051160.0	10.05	18.61
26/01/2020 15:06:02	26012020	260120	150601	100.280	12.303370	-56.683910	100.340	-1.110	0.070	0.640	100.290	-1.200	1.100																			1580051161.0	10.60	19.63
26/01/2020 15:06:03	26012020	260120	150602	100.340	12.303357	-56.683858	100.390	-0.760	-0.400	0.580	100.360	-1.600	0.900																			1580051162.0	11.24	20.82
26/01/2020 15:06:04	26012020	260120	150603	100.360	12.303345	-56.683805	100.320	-0.210	-0.630	0.580	100.350	-2.000	0.900																			1580051163.0	11.45	21.21
26/01/2020 15:06:05	26012020	260120	150604	100.270	12.303333	-56.683753	100.240	0.150	-0.440	0.480	100.250	-1.900	0.900																			1580051164.0	11.14	20.63
26/01/2020 15:06:06	26012020	260120	150605	100.200	12.303325	-56.683705	100.240	0.220	0.030	0.260	100.200	-1.500	0.700																			1580051165.0	10.65	19.72
26/01/2020 15:06:07	26012020	260120	150606	100.250	12.303317	-56.683657	100.370	0.230	0.320	-0.050	100.270	-1.100	0.400																			1580051166.0	10.33	19.13
26/01/2020 15:06:08	26012020	260120	150607	100.420	12.303310	-56.683607	100.520	0.370	0.130	-0.180	100.450	-1.100	0.200																			1580051167.0	10.53	19.50
26/01/2020 15:06:09	26012020	260120	150608	100.550	12.303303	-56.683555	100.620	0.560	-0.220	-0.040	100.570	-1.500	0.300																			1580051168.0	11.01	20.39
26/01/2020 15:06:10	26012020	260120	150609	100.640	12.303295	-56.683503	100.660	0.590	-0.400	0.250	100.650	-1.700	0.500																			1580051169.0	11.04	20.45
26/01/2020 15:06:11	26012020	260120	150610	100.650	12.303285	-56.683453	100.630	0.400	-0.350	0.610	100.640	-1.800	0.900																			1580051170.0	10.78	19.96
26/01/2020 15:06:12	26012020	260120	150611	100.600	12.303275	-56.683405	100.620	0.030	-0.200	0.800	100.590	-1.600	1.100																			1580051171.0	10.55	19.54
26/01/2020 15:06:13	26012020	260120	150612	100.590	12.303267	-56.683357	100.610	-0.350	-0.080	0.900	100.590	-1.500	1.200																			1580051172.0	10.42	19.30
26/01/2020 15:06:14	26012020	260120	150613	100.560	12.303255	-56.683308	100.560	-0.500	-0.300	0.880	100.550	-1.600	1.300																			1580051173.0	10.47	19.39
26/01/2020 15:06:15	26012020	260120	150614	100.490	12.303245	-56.683257	100.460	-0.320	-0.810	0.750	100.480	-2.000	1.200																			1580051174.0	10.95	20.28
26/01/2020 15:06:16	26012020	260120	150615	100.420	12.303235	-56.683205	100.300	-0.080	-1.000	0.620	100.400	-2.400	1.000																			1580051175.0	11.35	21.02
26/01/2020 15:06:17	26012020	260120	150616	100.250	12.303225	-56.683153	100.170	-0.030	-0.620	0.460	100.220	-2.200	0.900																			1580051176.0	11.04	20.45
26/01/2020 15:06:18	26012020	260120	150617	100.160	12.303217	-56.683105	100.160	-0.100	-0.080	0.360	100.150	-1.600	0.700																			1580051177.0	10.50	19.45
26/01/2020 15:06:19	26012020	260120	150618	100.150	12.303207	-56.683057	100.200	-0.080	0.080	0.320	100.160	-1.300	0.700																			1580051178.0	10.46	19.37
26/01/2020 15:06:20	26012020	260120	150619	100.210	12.303198	-56.683005	100.280	0.080	-0.160	0.240	100.220	-1.400	0.600																			1580051179.0	10.99	20.35
26/01/2020 15:06:21	26012020	260120	150620	100.310	12.303188	-56.682952	100.420	0.160	-0.180	0.320	100.340	-1.600	0.600																			1580051180.0	11.38	21.08
26/01/2020 15:06:22	26012020	260120	150621	100.480	12.303178	-56.682902	100.670	-0.030	0.290	0.420	100.530	-1.300	0.800																			1580051181.0	10.94	20.26
26/01/2020 15:06:23	26012020	260120	150622	100.770	12.303170	-56.682853	101.010	-0.300	0.660	0.450	100.830	-0.800	0.800																			1580051182.0	10.22	18.93
26/01/2020 15:06:24	26012020	260120	150623	101.100	12.303160	-56.682807	101.300	-0.310	0.350	0.530	101.160	-0.800	0.900																			1580051183.0	10.24	18.96
26/01/2020 15:06:25	26012020	260120	150624	101.340	12.303150	-56.682757	101.420	0.060	-0.480	0.520	101.370	-1.500	0.900																			1580051184.0	10.92	20.22
26/01/2020 15:06:26	26012020	260120	150625	101.400	12.303140	-56.682703	101.340	0.520	-1.150	0.590	101.380	-2.400	0.900																			1580051185.0	11.42	21.15
26/01/2020 15:06:27	26012020	260120	150626	101.270	12.303132	-56.682650	101.210	0.690	-1.100	0.730	101.240	-2.600	1.100																			1580051186.0	11.24	20.82
26/01/2020 15:06:28	26012020	260120	150627	101.160	12.303123	-56.682602	101.190	0.370	-0.400	0.710	101.160	-2.100	1.100																			1580051187.0	10.57	19.58
26/01/2020 15:06:29	26012020	260120	150628	101.170	12.303115	-56.682555	101.200	-0.150	0.170	0.610	101.170	-1.400	1.000																			1580051188.0	9.94	18.41
26/01/2020 15:06:30	26012020	260120	150629	101.160	12.303107	-56.682507	101.120	-0.380	-0.050	0.520	101.150	-1.300	0.900																			1580051189.0	10.25	18.98
26/01/2020 15:06:31	26012020	260120	150630	101.070	12.303095	-56.682455	101.060	-0.180	-0.620	0.410	101.050	-1.800	0.800																			1580051190.0	11.24	20.82
26/01/2020 15:06:32	26012020	260120	150631	101.000	12.303085	-56.682402	101.010	0.010	-0.630	0.310	100.990	-2.100	0.700																			1580051191.0	11.58	21.45
26/01/2020 15:06:33	26012020	260120	150632	100.960	12.303075	-56.682352	100.980	-0.070	-0.150	0.210	100.950	-1.700	0.600																			1580051192.0	10.88	20.15
26/01/2020 15:06:34	26012020	260120	150633	100.950	12.303065	-56.682303	101.010	-0.230	0.170	0.060	100.950	-1.300	0.500																			1580051193.0	10.40	19.26
26/01/2020 15:06:35	26012020	260120	150634	101.000	12.303055	-56.682253	101.120	-0.240	0.130	-0.140	101.020	-1.200	0.300																			1580051194.0	10.61	19.65
26/01/2020 15:06:36	26012020	260120	150635	101.160	12.303047	-56.682202	101.320	-0.140	-0.050	-0.380	101.200	-1.400	0.100																			1580051195.0	10.96	20.30
26/01/2020 15:06:37	26012020	260120	150636	101.360	12.303038	-56.682152	101.460	-0.070	-0.150	-0.440	101.390	-1.500	-0.100																			1580051196.0	10.97	20.32
26/01/2020 15:06:38	26012020	260120	150637	101.470	12.303028	-56.682102	101.500	-0.010	-0.250	-0.200	101.480	-1.600	0.000																			1580051197.0	10.77	19.95
26/01/2020 15:06:39	26012020	260120	150638	101.480	12.303018	-56.682052	101.460	0.110	-0.520	0.140	101.470	-1.800	0.400																			1580051198.0	10.79	19.98
26/01/2020 15:06:40	26012020	260120	150639	101.430	12.303007	-56.682000	101.380	0.220	-0.740	0.450	101.400	-2.100	0.700																			1580051199.0	11.08	20.52
26/01/2020 15:06:41	26012020	260120	150640	101.330	12.302995	-56.681950	101.320	0.160	-0.450	0.560	101.320	-2.000	0.900																			1580051200.0	11.01	20.39
26/01/2020 15:06:42	26012020	260120	150641	101.290	12.302985	-56.681902	101.310	-0.010	0.040	0.500	101.290	-1.500	0.900																			1580051201.0	10.43	19.32
26/01/2020 15:06:43	26012020	260120	150642	101.280	12.302975	-56.681853	101.310	-0.000	0.030	0.430	101.280	-1.300	0.800																			1580051202.0	10.33	19.13
26/01/2020 15:06:44	26012020	260120	150643	101.290	12.302965	-56.681803	101.390	0.140	-0.270	0.280	101.310	-1.600	0.700																			1580051203.0	10.99	20.35
26/01/2020 15:06:45	26012020	260120	150644	101.430	12.302957	-56.681750	101.560	0.120	-0.200	0.130	101.460	-1.700	0.500																			1580051204.0	11.20	20.74
26/01/2020 15:06:46	26012020	260120	150645	101.620	12.302947	-56.681702	101.760	-0.080	0.090	0.040	101.660	-1.400	0.400																			1580051205.0	10.62	19.67
26/01/2020 15:06:47	26012020	260120	150646	101.790	12.302938	-56.681653	101.870	-0.200	0.050	0.080	101.820	-1.300	0.400																			1580051206.0	10.34	19.15
26/01/2020 15:06:48	26012020	260120	150647	101.870	12.302927	-56.681603	101.890	-0.140	-0.380	0.350	101.880	-1.600	0.600																			1580051207.0	10.76	19.93
26/01/2020 15:06:49	26012020	260120	150648	101.860	12.302915	-56.681552	101.870	0.010	-0.810	0.640	101.850	-2.100	0.900																			1580051208.0	11.18	20.71
26/01/2020 15:06:50	26012020	260120	150649	101.830	12.302903	-56.681500	101.840	0.110	-0.860	0.700	101.830	-2.300	1.100																			1580051209.0	11.18	20.71
26/01/2020 15:06:51	26012020	260120	150650	101.810	12.302893	-56.681450	101.820	0.090	-0.550	0.610	101.800	-2.100	1.000																			1580051210.0	10.83	20.06
26/01/2020 15:06:52	26012020	260120	150651	101.770	12.302883	-56.681402	101.790	0.020	-0.230	0.510	101.760	-1.700	0.900																			1580051211.0	10.60	19.63
26/01/2020 15:06:53	26012020	260120	150652	101.730	12.302872	-56.681352	101.730	0.010	-0.090	0.340	101.720	-1.500	0.800																			1580051212.0	10.72	19.85
26/01/2020 15:06:54	26012020	260120	150653	101.700	12.302863	-56.681302	101.760	0.050	-0.050	0.180	101.700	-1.500	0.600																			1580051213.0	10.97	20.32
26/01/2020 15:06:55	26012020	260120	150654	101.760	12.302853	-56.681250	101.930	0.040	0.020	0.000	101.790	-1.400	0.400																			1580051214.0	11.01	20.39
26/01/2020 15:06:56	26012020	260120	150655	101.960	12.302843	-56.681198	102.180	-0.070	0.130	-0.160	102.010	-1.300	0.300																			1580051215.0	10.89	20.17
26/01/2020 15:06:57	26012020	260120	150656	102.220	12.302833	-56.681150	102.410	-0.260	0.220	-0.090	102.270	-1.200	0.200																			1580051216.0	10.72	19.85
26/01/2020 15:06:58	26012020	260120	150657	102.450	12.302822	-56.681100	102.610	-0.400	0.130	0.200	102.480	-1.200	0.500																			1580051217.0	10.65	19.72
26/01/2020 15:06:59	26012020	260120	150658	102.620	12.302808	-56.681052	102.750	-0.350	-0.160	0.450	102.650	-1.400	0.700																			1580051218.0	10.73	19.87
26/01/2020 15:07:00	26012020	260120	150659	102.700	12.302795	-56.681002	102.690	-0.040	-0.580	0.500	102.700	-1.800	0.900	1016.30	26.20	26.20	19.90	19.90	883.00	68.00	68.00	377.00	29.30	355.00	9.60	90.00	4.10	64324	3253.00	27.60	27.60	1580051219.0	10.87	20.13
26/01/2020 15:07:01	26012020	260120	150700	102.590	12.302783	-56.680952	102.450	0.440	-0.920	0.370	102.540	-2.200	0.800																			1580051220.0	11.05	20.46
26/01/2020 15:07:02	26012020	260120	150701	102.330	12.302775	-56.680900	102.260	0.770	-0.880	0.070	102.290	-2.300	0.500																			1580051221.0	11.09	20.54
26/01/2020 15:07:03	26012020	260120	150702	102.190	12.302768	-56.680848	102.200	0.710	-0.550	-0.080	102.170	-2.100	0.300																			1580051222.0	10.82	20.04
26/01/2020 15:07:04	26012020	260120	150703	102.150	12.302760	-56.680800	102.170	0.280	-0.220	0.060	102.140	-1.700	0.400																			1580051223.0	10.63	19.69
26/01/2020 15:07:05	26012020	260120	150704	102.110	12.302748	-56.680750	102.160	-0.220	0.020	0.380	102.110	-1.500	0.600																			1580051224.0	10.70	19.82
26/01/2020 15:07:06	26012020	260120	150705	102.100	12.302737	-56.680700	102.190	-0.530	0.050	0.690	102.100	-1.300	1.000																			1580051225.0	10.81	20.02
26/01/2020 15:07:07	26012020	260120	150706	102.140	12.302722	-56.680650	102.240	-0.510	-0.170	0.880	102.140	-1.500	1.200																			1580051226.0	11.03	20.43
26/01/2020 15:07:08	26012020	260120	150707	102.170	12.302708	-56.680598	102.230	-0.320	-0.320	0.830	102.170	-1.700	1.200																			1580051227.0	11.29	20.91
26/01/2020 15:07:09	26012020	260120	150708	102.150	12.302697	-56.680548	102.160	-0.200	-0.170	0.620	102.140	-1.600	1.100																			1580051228.0	11.10	20.56
26/01/2020 15:07:10	26012020	260120	150709	102.090	12.302685	-56.680498	102.140	-0.120	-0.020	0.390	102.090	-1.400	0.800																			1580051229.0	10.72	19.85
26/01/2020 15:07:11	26012020	260120	150710	102.110	12.302675	-56.680448	102.220	0.070	-0.130	0.090	102.130	-1.500	0.600																			1580051230.0	10.74	19.89
26/01/2020 15:07:12	26012020	260120	150711	102.220	12.302665	-56.680397	102.330	0.230	-0.240	-0.180	102.240	-1.600	0.300																			1580051231.0	11.05	20.46
26/01/2020 15:07:13	26012020	260120	150712	102.340	12.302657	-56.680347	102.420	0.200	-0.050	-0.240	102.350	-1.500	0.100																			1580051232.0	10.90	20.19
26/01/2020 15:07:14	26012020	260120	150713	102.400	12.302647	-56.680298	102.420	0.100	0.050	-0.010	102.400	-1.300	0.300																			1580051233.0	10.47	19.39
26/01/2020 15:07:15	26012020	260120	150714	102.360	12.302635	-56.680250	102.340	0.160	-0.330	0.290	102.340	-1.500	0.600																			1580051234.0	10.59	19.61
26/01/2020 15:07:16	26012020	260120	150715	102.270	12.302623	-56.680198	102.220	0.330	-0.870	0.470	102.240	-2.100	0.800																			1580051235.0	11.20	20.74
26/01/2020 15:07:17	26012020	260120	150716	102.140	12.302613	-56.680145	102.110	0.390	-0.960	0.600	102.110	-2.400	0.900																			1580051236.0	11.39	21.09
26/01/2020 15:07:18	26012020	260120	150717	102.040	12.302602	-56.680095	102.070	0.230	-0.540	0.640	102.030	-2.100	1.000																			1580051237.0	10.96	20.30
26/01/2020 15:07:19	26012020	260120	150718	102.020	12.302592	-56.680045	102.070	-0.070	-0.010	0.600	102.030	-1.600	1.000																			1580051238.0	10.53	19.50
26/01/2020 15:07:20	26012020	260120	150719	102.020	12.302582	-56.679997	102.020	-0.370	0.300	0.560	102.010	-1.200	0.900																			1580051239.0	10.51	19.46
26/01/2020 15:07:21	26012020	260120	150720	101.960	12.302570	-56.679948	102.000	-0.550	0.250	0.490	101.960	-1.100	0.900																			1580051240.0	10.72	19.85
26/01/2020 15:07:22	26012020	260120	150721	101.970	12.302558	-56.679897	102.040	-0.480	-0.090	0.420	101.980	-1.300	0.800																			1580051241.0	11.01	20.39
26/01/2020 15:07:23	26012020	260120	150722	102.010	12.302545	-56.679845	102.060	-0.190	-0.530	0.320	102.010	-1.800	0.700																			1580051242.0	11.27	20.87
26/01/2020 15:07:24	26012020	260120	150723	102.000	12.302533	-56.679793	102.010	0.150	-0.800	0.250	102.000	-2.100	0.600																			1580051243.0	11.32	20.96
26/01/2020 15:07:25	26012020	260120	150724	101.940	12.302523	-56.679742	101.920	0.350	-0.620	0.260	101.920	-2.100	0.600																			1580051244.0	11.16	20.67
26/01/2020 15:07:26	26012020	260120	150725	101.850	12.302513	-56.679692	101.820	0.340	-0.150	0.300	101.830	-1.700	0.600																			1580051245.0	10.71	19.83
26/01/2020 15:07:27	26012020	260120	150726	101.730	12.302503	-56.679643	101.740	0.170	0.110	0.330	101.710	-1.400	0.700																			1580051246.0	10.51	19.46
26/01/2020 15:07:28	26012020	260120	150727	101.690	12.302493	-56.679593	101.820	-0.040	0.080	0.330	101.700	-1.300	0.700																			1580051247.0	10.77	19.95
26/01/2020 15:07:29	26012020	260120	150728	101.820	12.302483	-56.679542	102.010	-0.190	0.020	0.320	101.850	-1.400	0.700																			1580051248.0	10.99	20.35
26/01/2020 15:07:30	26012020	260120	150729	102.010	12.302472	-56.679492	102.160	-0.250	0.020	0.380	102.050	-1.400	0.700																			1580051249.0	10.87	20.13
26/01/2020 15:07:31	26012020	260120	150730	102.120	12.302460	-56.679443	102.190	-0.170	-0.200	0.570	102.130	-1.500	0.900																			1580051250.0	10.77	19.95
26/01/2020 15:07:32	26012020	260120	150731	102.120	12.302447	-56.679392	102.120	0.020	-0.520	0.660	102.110	-1.800	1.000																			1580051251.0	11.01	20.39
26/01/2020 15:07:33	26012020	260120	150732	102.040	12.302437	-56.679342	102.050	0.230	-0.650	0.610	102.020	-2.000	1.000																			1580051252.0	11.11	20.58
26/01/2020 15:07:34	26012020	260120	150733	101.980	12.302427	-56.679290	101.990	0.340	-0.520	0.600	101.960	-2.000	1.000																			1580051253.0	10.93	20.24
26/01/2020 15:07:35	26012020	260120	150734	101.890	12.302417	-56.679240	101.890	0.350	-0.400	0.560	101.880	-1.800	1.000																			1580051254.0	10.71	19.83
26/01/2020 15:07:36	26012020	260120	150735	101.760	12.302407	-56.679190	101.680	0.370	-0.530	0.540	101.720	-1.900	0.900																			1580051255.0	10.89	20.17
26/01/2020 15:07:37	26012020	260120	150736	101.530	12.302398	-56.679138	101.470	0.310	-0.580	0.630	101.480	-2.000	1.000																			1580051256.0	11.29	20.91
26/01/2020 15:07:38	26012020	260120	150737	101.360	12.302388	-56.679085	101.430	0.030	-0.260	0.710	101.350	-1.800	1.100																			1580051257.0	11.19	20.72
26/01/2020 15:07:39	26012020	260120	150738	101.380	12.302377	-56.679035	101.530	-0.410	0.220	0.810	101.400	-1.400	1.100																			1580051258.0	10.78	19.96
26/01/2020 15:07:40	26012020	260120	150739	101.490	12.302365	-56.678987	101.600	-0.770	0.420	0.900	101.500	-1.000	1.200																			1580051259.0	10.58	19.59
26/01/2020 15:07:41	26012020	260120	150740	101.540	12.302353	-56.678938	101.590	-0.790	0.090	0.910	101.530	-1.100	1.300																			1580051260.0	10.83	20.06
26/01/2020 15:07:42	26012020	260120	150741	101.510	12.302340	-56.678885	101.590	-0.470	-0.400	0.820	101.510	-1.700	1.200																			1580051261.0	11.37	21.06
26/01/2020 15:07:43	26012020	260120	150742	101.540	12.302327	-56.678833	101.680	-0.150	-0.400	0.570	101.550	-1.900	1.000																			1580051262.0	11.42	21.15
26/01/2020 15:07:44	26012020	260120	150743	101.650	12.302317	-56.678783	101.800	-0.060	0.010	0.230	101.680	-1.500	0.700																			1580051263.0	10.73	19.87
26/01/2020 15:07:45	26012020	260120	150744	101.760	12.302308	-56.678735	101.780	0.050	0.040	0.010	101.770	-1.300	0.400																			1580051264.0	10.24	18.96
26/01/2020 15:07:46	26012020	260120	150745	101.680	12.302300	-56.678685	101.600	0.530	-0.670	-0.030	101.640	-1.800	0.400																			1580051265.0	10.79	19.98
26/01/2020 15:07:47	26012020	260120	150746	101.520	12.302290	-56.678630	101.590	1.070	-1.220	-0.080	101.510	-2.500	0.300																			1580051266.0	11.75	21.76
26/01/2020 15:07:48	26012020	260120	150747	101.570	12.302282	-56.678577	101.740	1.060	-0.700	0.050	101.600	-2.400	0.400																			1580051267.0	11.51	21.32
26/01/2020 15:07:49	26012020	260120	150748	101.730	12.302273	-56.678528	101.840	0.460	0.330	0.380	101.760	-1.400	0.600																			1580051268.0	10.28	19.04
26/01/2020 15:07:50	26012020	260120	150749	101.770	12.302265	-56.678483	101.750	-0.250	0.690	0.820	101.750	-0.700	1.000																			1580051269.0	9.80	18.15
26/01/2020 15:07:51	26012020	260120	150750	101.620	12.302253	-56.678435	101.600	-0.610	0.090	1.100	101.590	-1.000	1.400																			1580051270.0	10.61	19.65
26/01/2020 15:07:52	26012020	260120	150751	101.490	12.302240	-56.678382	101.530	-0.630	-0.660	1.200	101.480	-1.800	1.500																			1580051271.0	11.57	21.43
26/01/2020 15:07:53	26012020	260120	150752	101.400	12.302227	-56.678328	101.400	-0.560	-0.860	1.210	101.380	-2.300	1.600																			1580051272.0	11.59	21.46
26/01/2020 15:07:54	26012020	260120	150753	101.270	12.302215	-56.678278	101.220	-0.480	-0.660	1.060	101.230	-2.100	1.500																			1580051273.0	10.98	20.33
26/01/2020 15:07:55	26012020	260120	150754	101.090	12.302203	-56.678228	101.050	-0.300	-0.450	0.820	101.050	-1.900	1.300																			1580051274.0	10.74	19.89
26/01/2020 15:07:56	26012020	260120	150755	100.980	12.302193	-56.678178	101.050	-0.010	-0.290	0.420	100.970	-1.800	1.000																			1580051275.0	10.89	20.17
26/01/2020 15:07:57	26012020	260120	150756	101.050	12.302185	-56.678127	101.210	0.240	-0.090	-0.010	101.080	-1.600	0.500																			1580051276.0	10.99	20.35
26/01/2020 15:07:58	26012020	260120	150757	101.220	12.302177	-56.678077	101.320	0.260	0.270	-0.140	101.250	-1.300	0.200																			1580051277.0	10.90	20.19
26/01/2020 15:07:59	26012020	260120	150758	101.320	12.302167	-56.678027	101.410	0.090	0.510	-0.020	101.330	-0.900	0.300																			1580051278.0	10.57	19.58
26/01/2020 15:08:00	26012020	260120	150759	101.420	12.302158	-56.677978	101.610	-0.050	0.280	0.150	101.460	-1.000	0.500	1016.30	26.20	26.20	19.90	19.90	851.00	68.00	68.00	377.00	29.30	354.00	9.10	87.00	3.60	62695	3144.00	27.60	27.60	1580051279.0	10.55	19.54
26/01/2020 15:08:01	26012020	260120	150800	101.640	12.302147	-56.677928	101.820	0.010	-0.270	0.210	101.680	-1.500	0.600																			1580051280.0	10.94	20.26
26/01/2020 15:08:02	26012020	260120	150801	101.790	12.302137	-56.677875	101.810	0.250	-0.730	0.240	101.800	-2.000	0.600																			1580051281.0	11.20	20.74
26/01/2020 15:08:03	26012020	260120	150802	101.720	12.302127	-56.677825	101.600	0.420	-0.840	0.390	101.670	-2.200	0.700																			1580051282.0	11.10	20.56
26/01/2020 15:08:04	26012020	260120	150803	101.480	12.302118	-56.677773	101.400	0.340	-0.640	0.530	101.430	-2.100	0.900																			1580051283.0	10.81	20.02
26/01/2020 15:08:05	26012020	260120	150804	101.310	12.302108	-56.677725	101.300	0.050	-0.360	0.480	101.290	-1.900	0.900																			1580051284.0	10.57	19.58
26/01/2020 15:08:06	26012020	260120	150805	101.230	12.302100	-56.677675	101.180	-0.150	-0.350	0.400	101.210	-1.700	0.800																			1580051285.0	10.63	19.69
26/01/2020 15:08:07	26012020	260120	150806	101.090	12.302090	-56.677623	100.970	-0.160	-0.520	0.490	101.050	-1.900	0.800																			1580051286.0	11.07	20.50
26/01/2020 15:08:08	26012020	260120	150807	100.870	12.302078	-56.677572	100.790	-0.120	-0.470	0.690	100.830	-1.900	1.000																			1580051287.0	11.35	21.02
26/01/2020 15:08:09	26012020	260120	150808	100.730	12.302065	-56.677520	100.800	-0.190	-0.070	0.780	100.720	-1.700	1.100																			1580051288.0	11.11	20.58
26/01/2020 15:08:10	26012020	260120	150809	100.760	12.302055	-56.677472	100.950	-0.350	0.360	0.740	100.790	-1.200	1.100																			1580051289.0	10.68	19.78
26/01/2020 15:08:11	26012020	260120	150810	100.960	12.302043	-56.677423	101.090	-0.400	0.370	0.610	100.990	-1.000	1.000																			1580051290.0	10.58	19.59
26/01/2020 15:08:12	26012020	260120	150811	101.100	12.302033	-56.677372	101.210	-0.180	-0.070	0.420	101.130	-1.300	0.900																			1580051291.0	10.98	20.33
26/01/2020 15:08:13	26012020	260120	150812	101.200	12.302023	-56.677318	101.250	0.160	-0.440	0.280	101.210	-1.800	0.700																			1580051292.0	11.35	21.02
26/01/2020 15:08:14	26012020	260120	150813	101.240	12.302015	-56.677267	101.340	0.320	-0.400	0.180	101.260	-1.900	0.600																			1580051293.0	11.17	20.69
26/01/2020 15:08:15	26012020	260120	150814	101.340	12.302007	-56.677217	101.460	0.210	-0.160	0.190	101.370	-1.700	0.500																			1580051294.0	10.66	19.74
26/01/2020 15:08:16	26012020	260120	150815	101.450	12.301997	-56.677168	101.480	0.030	-0.060	0.410	101.460	-1.500	0.700																			1580051295.0	10.42	19.30
26/01/2020 15:08:17	26012020	260120	150816	101.430	12.301987	-56.677120	101.340	-0.000	-0.310	0.650	101.400	-1.600	0.900																			1580051296.0	10.62	19.67
26/01/2020 15:08:18	26012020	260120	150817	101.240	12.301977	-56.677068	101.080	0.170	-0.770	0.780	101.190	-2.000	1.100																			1580051297.0	11.10	20.56
26/01/2020 15:08:19	26012020	260120	150818	100.990	12.301967	-56.677015	100.930	0.350	-1.000	0.790	100.950	-2.400	1.200																			1580051298.0	11.41	21.13
26/01/2020 15:08:20	26012020	260120	150819	100.890	12.301957	-56.676963	100.980	0.260	-0.610	0.710	100.900	-2.200	1.100																			1580051299.0	11.25	20.84
26/01/2020 15:08:21	26012020	260120	150820	100.990	12.301947	-56.676913	101.100	-0.110	0.170	0.510	101.020	-1.500	0.900																			1580051300.0	10.58	19.59
26/01/2020 15:08:22	26012020	260120	150821	101.090	12.301938	-56.676867	101.150	-0.410	0.530	0.440	101.100	-0.900	0.800																			1580051301.0	10.21	18.91
26/01/2020 15:08:23	26012020	260120	150822	101.150	12.301928	-56.676817	101.200	-0.350	0.100	0.450	101.150	-1.100	0.800																			1580051302.0	10.74	19.89
26/01/2020 15:08:24	26012020	260120	150823	101.220	12.301917	-56.676763	101.320	-0.050	-0.440	0.460	101.240	-1.700	0.800																			1580051303.0	11.53	21.35
26/01/2020 15:08:25	26012020	260120	150824	101.350	12.301905	-56.676710	101.490	0.120	-0.470	0.500	101.380	-1.900	0.900																			1580051304.0	11.46	21.22
26/01/2020 15:08:26	26012020	260120	150825	101.510	12.301895	-56.676660	101.630	0.050	-0.190	0.480	101.540	-1.700	0.900																			1580051305.0	10.80	20.00
26/01/2020 15:08:27	26012020	260120	150826	101.620	12.301887	-56.676612	101.660	-0.020	-0.130	0.580	101.620	-1.500	0.900																			1580051306.0	10.48	19.41
26/01/2020 15:08:28	26012020	260120	150827	101.590	12.301877	-56.676562	101.510	0.100	-0.400	0.780	101.560	-1.700	1.100																			1580051307.0	10.84	20.08
26/01/2020 15:08:29	26012020	260120	150828	101.420	12.301865	-56.676510	101.350	0.270	-0.600	0.780	101.380	-2.000	1.200																			1580051308.0	11.25	20.84
26/01/2020 15:08:30	26012020	260120	150829	101.310	12.301857	-56.676458	101.390	0.190	-0.360	0.680	101.310	-1.900	1.100																			1580051309.0	11.17	20.69
26/01/2020 15:08:31	26012020	260120	150830	101.430	12.301848	-56.676408	101.630	-0.160	0.110	0.550	101.480	-1.500	1.000																			1580051310.0	10.64	19.71
26/01/2020 15:08:32	26012020	260120	150831	101.680	12.301838	-56.676360	101.750	-0.470	0.270	0.440	101.710	-1.100	0.800																			1580051311.0	10.34	19.15
26/01/2020 15:08:33	26012020	260120	150832	101.730	12.301827	-56.676310	101.670	-0.450	-0.100	0.400	101.720	-1.300	0.800																			1580051312.0	10.75	19.91
26/01/2020 15:08:34	26012020	260120	150833	101.640	12.301815	-56.676258	101.630	-0.100	-0.550	0.430	101.630	-1.800	0.800																			1580051313.0	11.32	20.96
26/01/2020 15:08:35	26012020	260120	150834	101.610	12.301803	-56.676207	101.630	0.280	-0.650	0.420	101.610	-2.100	0.800																			1580051314.0	11.32	20.96
26/01/2020 15:08:36	26012020	260120	150835	101.600	12.301795	-56.676155	101.610	0.450	-0.440	0.320	101.600	-1.900	0.700																			1580051315.0	10.96	20.30
26/01/2020 15:08:37	26012020	260120	150836	101.600	12.301787	-56.676105	101.640	0.410	-0.200	0.270	101.600	-1.700	0.600																			1580051316.0	10.66	19.74
26/01/2020 15:08:38	26012020	260120	150837	101.620	12.301778	-56.676055	101.670	0.280	-0.210	0.340	101.630	-1.600	0.700																			1580051317.0	10.70	19.82
26/01/2020 15:08:39	26012020	260120	150838	101.650	12.301768	-56.676005	101.700	0.170	-0.410	0.500	101.660	-1.700	0.800																			1580051318.0	11.05	20.46
26/01/2020 15:08:40	26012020	260120	150839	101.680	12.301758	-56.675952	101.770	-0.020	-0.360	0.810	101.700	-1.800	1.000																			1580051319.0	11.24	20.82
26/01/2020 15:08:41	26012020	260120	150840	101.760	12.301747	-56.675902	101.850	-0.360	0.030	1.130	101.770	-1.500	1.400																			1580051320.0	10.90	20.19
26/01/2020 15:08:42	26012020	260120	150841	101.810	12.301733	-56.675855	101.860	-0.590	0.280	1.160	101.820	-1.200	1.600																			1580051321.0	10.45	19.35
26/01/2020 15:08:43	26012020	260120	150842	101.810	12.301722	-56.675805	101.800	-0.390	-0.100	0.940	101.790	-1.300	1.400																			1580051322.0	10.65	19.72
26/01/2020 15:08:44	26012020	260120	150843	101.750	12.301712	-56.675752	101.760	0.090	-0.710	0.590	101.730	-1.900	1.100																			1580051323.0	11.43	21.17
26/01/2020 15:08:45	26012020	260120	150844	101.720	12.301703	-56.675698	101.820	0.390	-0.820	0.190	101.720	-2.300	0.700																			1580051324.0	11.65	21.58
26/01/2020 15:08:46	26012020	260120	150845	101.820	12.301695	-56.675647	102.000	0.280	-0.240	-0.070	101.820	-1.900	0.400																			1580051325.0	11.02	20.41
26/01/2020 15:08:47	26012020	260120	150846	102.030	12.301687	-56.675598	102.180	-0.030	0.320	0.040	102.070	-1.200	0.300																			1580051326.0	10.26	19.00
26/01/2020 15:08:48	26012020	260120	150847	102.150	12.301677	-56.675552	102.180	-0.260	0.290	0.350	102.150	-1.000	0.600																			1580051327.0	10.35	19.17
26/01/2020 15:08:49	26012020	260120	150848	102.100	12.301663	-56.675502	102.110	-0.270	-0.130	0.480	102.090	-1.400	0.800																			1580051328.0	10.95	20.28
26/01/2020 15:08:50	26012020	260120	150849	102.040	12.301652	-56.675448	102.090	-0.090	-0.480	0.470	102.040	-1.800	0.900																			1580051329.0	11.25	20.84
26/01/2020 15:08:51	26012020	260120	150850	102.050	12.301642	-56.675398	102.100	0.190	-0.610	0.270	102.050	-2.000	0.700																			1580051330.0	11.08	20.52
26/01/2020 15:08:52	26012020	260120	150851	102.060	12.301633	-56.675347	102.060	0.410	-0.630	0.110	102.050	-2.000	0.500																			1580051331.0	10.94	20.26
26/01/2020 15:08:53	26012020	260120	150852	102.000	12.301623	-56.675297	101.970	0.400	-0.450	0.230	101.980	-2.000	0.500																			1580051332.0	10.94	20.26
26/01/2020 15:08:54	26012020	260120	150853	101.900	12.301613	-56.675247	101.920	0.100	-0.070	0.430	101.890	-1.600	0.700																			1580051333.0	10.72	19.85
26/01/2020 15:08:55	26012020	260120	150854	101.850	12.301603	-56.675198	101.840	-0.220	0.070	0.600	101.840	-1.300	0.900																			1580051334.0	10.50	19.45
26/01/2020 15:08:56	26012020	260120	150855	101.750	12.301593	-56.675147	101.740	-0.260	-0.310	0.830	101.720	-1.500	1.100																			1580051335.0	10.86	20.11
26/01/2020 15:08:57	26012020	260120	150856	101.640	12.301582	-56.675095	101.650	-0.050	-0.780	1.080	101.620	-2.000	1.400																			1580051336.0	11.49	21.28
26/01/2020 15:08:58	26012020	260120	150857	101.590	12.301568	-56.675042	101.660	0.070	-0.690	1.110	101.590	-2.200	1.500																			1580051337.0	11.59	21.46
26/01/2020 15:08:59	26012020	260120	150858	101.640	12.301557	-56.674990	101.720	-0.020	-0.090	0.900	101.650	-1.700	1.300																			1580051338.0	10.92	20.22
26/01/2020 15:09:00	26012020	260120	150859	101.680	12.301547	-56.674943	101.700	-0.160	0.410	0.780	101.680	-1.100	1.200	1016.20	26.20	26.20	19.70	19.80	893.00	67.00	67.00	377.00	29.40	351.00	9.60	80.00	4.20	64657	3195.00	27.60	27.60	1580051339.0	10.41	19.28
26/01/2020 15:09:01	26012020	260120	150900	101.650	12.301537	-56.674893	101.660	-0.180	0.440	0.540	101.640	-0.900	1.000																			1580051340.0	10.55	19.54
26/01/2020 15:09:02	26012020	260120	150901	101.640	12.301528	-56.674843	101.720	-0.140	0.200	0.160	101.640	-1.100	0.700																			1580051341.0	10.97	20.32
26/01/2020 15:09:03	26012020	260120	150902	101.760	12.301520	-56.674792	101.930	-0.110	-0.050	-0.040	101.790	-1.400	0.400																			1580051342.0	11.04	20.45
26/01/2020 15:09:04	26012020	260120	150903	101.990	12.301512	-56.674740	102.160	-0.020	-0.370	-0.010	102.040	-1.600	0.300																			1580051343.0	10.87	20.13
26/01/2020 15:09:05	26012020	260120	150904	102.180	12.301502	-56.674690	102.240	0.140	-0.720	0.250	102.210	-2.000	0.500																			1580051344.0	10.95	20.28
26/01/2020 15:09:06	26012020	260120	150905	102.200	12.301490	-56.674640	102.130	0.290	-0.910	0.640	102.170	-2.300	0.900																			1580051345.0	11.01	20.39
26/01/2020 15:09:07	26012020	260120	150906	102.020	12.301477	-56.674588	101.860	0.380	-0.850	0.870	101.970	-2.300	1.200																			1580051346.0	10.94	20.26
26/01/2020 15:09:08	26012020	260120	150907	101.710	12.301467	-56.674538	101.500	0.330	-0.630	0.910	101.640	-2.100	1.300																			1580051347.0	10.84	20.08
26/01/2020 15:09:09	26012020	260120	150908	101.370	12.301458	-56.674488	101.280	0.130	-0.400	0.760	101.320	-1.900	1.200																			1580051348.0	10.86	20.11
26/01/2020 15:09:10	26012020	260120	150909	101.210	12.301452	-56.674437	101.230	-0.110	-0.270	0.620	101.210	-1.700	1.000																			1580051349.0	10.99	20.35
26/01/2020 15:09:11	26012020	260120	150910	101.210	12.301442	-56.674385	101.240	-0.270	-0.190	0.560	101.210	-1.600	0.900																			1580051350.0	11.15	20.65
26/01/2020 15:09:12	26012020	260120	150911	101.220	12.301430	-56.674333	101.350	-0.400	0.030	0.710	101.220	-1.500	1.000																			1580051351.0	11.25	20.84
26/01/2020 15:09:13	26012020	260120	150912	101.380	12.301417	-56.674283	101.630	-0.570	0.450	0.950	101.430	-1.100	1.200																			1580051352.0	11.00	20.37
26/01/2020 15:09:14	26012020	260120	150913	101.690	12.301403	-56.674235	101.950	-0.660	0.730	0.930	101.690	-0.700	1.400																			1580051353.0	10.60	19.63
26/01/2020 15:09:15	26012020	260120	150914	102.000	12.301392	-56.674185	102.190	-0.430	0.470	0.610	102.040	-0.800	1.100																			1580051354.0	10.58	19.59
26/01/2020 15:09:16	26012020	260120	150915	102.210	12.301383	-56.674135	102.350	0.130	-0.240	0.140	102.240	-1.400	0.700																			1580051355.0	11.03	20.43
26/01/2020 15:09:17	26012020	260120	150916	102.350	12.301375	-56.674082	102.460	0.710	-0.820	-0.200	102.350	-2.100	0.300																			1580051356.0	11.42	21.15
26/01/2020 15:09:18	26012020	260120	150917	102.460	12.301368	-56.674028	102.520	0.970	-0.850	-0.290	102.470	-2.300	0.100																			1580051357.0	11.18	20.71
26/01/2020 15:09:19	26012020	260120	150918	102.500	12.301362	-56.673978	102.530	0.810	-0.610	-0.150	102.510	-2.100	0.100																			1580051358.0	10.61	19.65
26/01/2020 15:09:20	26012020	260120	150919	102.500	12.301353	-56.673930	102.430	0.400	-0.520	0.240	102.480	-1.900	0.400																			1580051359.0	10.47	19.39
26/01/2020 15:09:21	26012020	260120	150920	102.330	12.301343	-56.673880	102.210	-0.040	-0.590	0.670	102.290	-2.000	0.900																			1580051360.0	10.78	19.96
26/01/2020 15:09:22	26012020	260120	150921	102.100	12.301330	-56.673830	101.990	-0.400	-0.540	0.970	102.050	-2.000	1.300																			1580051361.0	11.04	20.45
26/01/2020 15:09:23	26012020	260120	150922	101.870	12.301318	-56.673778	101.770	-0.570	-0.470	1.150	101.820	-1.900	1.500																			1580051362.0	11.04	20.45
26/01/2020 15:09:24	26012020	260120	150923	101.650	12.301305	-56.673728	101.610	-0.540	-0.500	1.090	101.620	-1.900	1.500																			1580051363.0	11.18	20.71
26/01/2020 15:09:25	26012020	260120	150924	101.520	12.301292	-56.673675	101.540	-0.410	-0.310	0.840	101.510	-1.800	1.300																			1580051364.0	11.38	21.08
26/01/2020 15:09:26	26012020	260120	150925	101.500	12.301282	-56.673625	101.630	-0.350	0.310	0.500	101.510	-1.400	1.000																			1580051365.0	11.10	20.56
26/01/2020 15:09:27	26012020	260120	150926	101.650	12.301272	-56.673575	101.850	-0.320	0.780	0.150	101.690	-0.700	0.600																			1580051366.0	10.52	19.48
26/01/2020 15:09:28	26012020	260120	150927	101.890	12.301263	-56.673527	102.070	-0.180	0.570	-0.030	101.940	-0.700	0.400																			1580051367.0	10.60	19.63
26/01/2020 15:09:29	26012020	260120	150928	102.100	12.301253	-56.673473	102.240	0.120	-0.100	-0.040	102.130	-1.300	0.300																			1580051368.0	11.20	20.74
26/01/2020 15:09:30	26012020	260120	150929	102.270	12.301243	-56.673420	102.410	0.410	-0.500	0.100	102.310	-1.800	0.400																			1580051369.0	11.47	21.24
26/01/2020 15:09:31	26012020	260120	150930	102.450	12.301233	-56.673370	102.590	0.520	-0.470	0.240	102.480	-1.900	0.600																			1580051370.0	10.99	20.35
26/01/2020 15:09:32	26012020	260120	150931	102.610	12.301225	-56.673322	102.720	0.510	-0.450	0.280	102.630	-1.800	0.600																			1580051371.0	10.51	19.46
26/01/2020 15:09:33	26012020	260120	150932	102.710	12.301217	-56.673272	102.750	0.440	-0.560	0.370	102.720	-1.900	0.700																			1580051372.0	10.65	19.72
26/01/2020 15:09:34	26012020	260120	150933	102.700	12.301207	-56.673222	102.600	0.270	-0.570	0.600	102.670	-2.000	0.900																			1580051373.0	10.85	20.09
26/01/2020 15:09:35	26012020	260120	150934	102.490	12.301195	-56.673172	102.270	0.010	-0.510	0.760	102.420	-1.900	1.100																			1580051374.0	10.77	19.95
26/01/2020 15:09:36	26012020	260120	150935	102.210	12.301185	-56.673122	101.970	-0.210	-0.570	0.760	102.140	-1.900	1.100																			1580051375.0	10.84	20.08
26/01/2020 15:09:37	26012020	260120	150936	101.880	12.301175	-56.673070	101.830	-0.270	-0.730	0.640	101.850	-2.100	1.100																			1580051376.0	11.16	20.67
26/01/2020 15:09:38	26012020	260120	150937	101.790	12.301163	-56.673017	101.730	-0.240	-0.650	0.500	101.770	-2.100	0.900																			1580051377.0	11.39	21.09
26/01/2020 15:09:39	26012020	260120	150938	101.670	12.301152	-56.672965	101.650	-0.280	-0.090	0.440	101.650	-1.800	0.800																			1580051378.0	11.21	20.76
26/01/2020 15:09:40	26012020	260120	150939	101.610	12.301142	-56.672917	101.750	-0.420	0.570	0.390	101.620	-1.000	0.800																			1580051379.0	10.67	19.76
26/01/2020 15:09:41	26012020	260120	150940	101.800	12.301130	-56.672867	102.130	-0.490	0.690	0.170	101.880	-0.700	0.600																			1580051380.0	10.51	19.46
26/01/2020 15:09:42	26012020	260120	150941	102.220	12.301120	-56.672817	102.510	-0.290	0.170	-0.000	102.300	-1.000	0.400																			1580051381.0	11.00	20.37
26/01/2020 15:09:43	26012020	260120	150942	102.540	12.301110	-56.672763	102.700	0.080	-0.360	0.050	102.580	-1.600	0.400																			1580051382.0	11.50	21.30
26/01/2020 15:09:44	26012020	260120	150943	102.700	12.301098	-56.672710	102.800	0.390	-0.460	0.240	102.720	-1.900	0.500																			1580051383.0	11.29	20.91
26/01/2020 15:09:45	26012020	260120	150944	102.780	12.301088	-56.672662	102.820	0.510	-0.310	0.360	102.780	-1.800	0.700																			1580051384.0	10.76	19.93
26/01/2020 15:09:46	26012020	260120	150945	102.780	12.301078	-56.672612	102.770	0.420	-0.220	0.360	102.770	-1.600	0.700																			1580051385.0	10.50	19.45
26/01/2020 15:09:47	26012020	260120	150946	102.710	12.301070	-56.672563	102.660	0.310	-0.430	0.340	102.680	-1.700	0.700																			1580051386.0	10.65	19.72
26/01/2020 15:09:48	26012020	260120	150947	102.570	12.301062	-56.672512	102.520	0.270	-0.730	0.240	102.540	-2.000	0.700																			1580051387.0	11.03	20.43
26/01/2020 15:09:49	26012020	260120	150948	102.440	12.301052	-56.672458	102.410	0.180	-0.700	0.180	102.420	-2.200	0.600																			1580051388.0	11.21	20.76
26/01/2020 15:09:50	26012020	260120	150949	102.350	12.301042	-56.672408	102.340	-0.090	-0.320	0.230	102.340	-1.900	0.600																			1580051389.0	10.91	20.21
26/01/2020 15:09:51	26012020	260120	150950	102.270	12.301032	-56.672360	102.290	-0.400	-0.000	0.290	102.260	-1.500	0.600																			1580051390.0	10.58	19.59
26/01/2020 15:09:52	26012020	260120	150951	102.230	12.301020	-56.672310	102.280	-0.450	-0.150	0.420	102.230	-1.400	0.700																			1580051391.0	10.77	19.95
26/01/2020 15:09:53	26012020	260120	150952	102.230	12.301007	-56.672258	102.330	-0.230	-0.430	0.440	102.240	-1.800	0.800																			1580051392.0	11.35	21.02
26/01/2020 15:09:54	26012020	260120	150953	102.290	12.300995	-56.672205	102.420	-0.020	-0.400	0.230	102.310	-1.900	0.700																			1580051393.0	11.44	21.19
26/01/2020 15:09:55	26012020	260120	150954	102.420	12.300985	-56.672155	102.570	-0.030	-0.000	0.190	102.440	-1.600	0.500																			1580051394.0	11.01	20.39
26/01/2020 15:09:56	26012020	260120	150955	102.590	12.300975	-56.672105	102.720	-0.130	0.230	0.380	102.620	-1.200	0.700																			1580051395.0	10.57	19.58
26/01/2020 15:09:57	26012020	260120	150956	102.700	12.300963	-56.672057	102.770	-0.080	0.000	0.500	102.710	-1.300	0.800																			1580051396.0	10.76	19.93
26/01/2020 15:09:58	26012020	260120	150957	102.730	12.300952	-56.672005	102.790	0.140	-0.350	0.610	102.740	-1.600	0.900																			1580051397.0	11.20	20.74
26/01/2020 15:09:59	26012020	260120	150958	102.740	12.300940	-56.671953	102.790	0.360	-0.440	0.670	102.740	-1.900	1.000																			1580051398.0	11.24	20.82
26/01/2020 15:10:00	26012020	260120	150959	102.760	12.300930	-56.671902	102.860	0.200	-0.030	0.390	102.770	-1.700	1.000	1016.30	26.20	26.30	19.80	19.90	877.00	67.00	67.00	377.00	29.40	351.00	9.50	80.00	4.10	64010	3253.00	27.60	27.60	1580051399.0	10.93	20.24
26/01/2020 15:10:01	26012020	260120	151001	102.810	12.300913	-56.671803	102.830	-0.000	-0.120	0.350	102.810	-1.500	0.700																			1580051401.0	10.60	19.63
26/01/2020 15:10:02	26012020	260120	151002	102.780	12.300903	-56.671752	102.830	-0.090	-0.440	0.440	102.780	-1.700	0.800																			1580051402.0	10.97	20.32
26/01/2020 15:10:03	26012020	260120	151003	102.790	12.300892	-56.671700	102.780	-0.130	-0.630	0.680	102.790	-2.000	1.000																			1580051403.0	11.20	20.74
26/01/2020 15:10:04	26012020	260120	151004	102.680	12.300880	-56.671650	102.600	-0.120	-0.690	0.850	102.650	-2.100	1.200																			1580051404.0	11.08	20.52
26/01/2020 15:10:05	26012020	260120	151005	102.470	12.300867	-56.671598	102.430	-0.030	-0.670	0.870	102.430	-2.100	1.200																			1580051405.0	11.09	20.54
26/01/2020 15:10:06	26012020	260120	151006	102.330	12.300855	-56.671547	102.420	0.040	-0.400	0.670	102.330	-1.900	1.100																			1580051406.0	11.13	20.61
26/01/2020 15:10:07	26012020	260120	151007	102.390	12.300845	-56.671497	102.520	-0.020	0.050	0.380	102.420	-1.500	0.800																			1580051407.0	10.90	20.19
26/01/2020 15:10:08	26012020	260120	151008	102.490	12.300837	-56.671447	102.590	-0.130	0.340	0.160	102.510	-1.100	0.600																			1580051408.0	10.70	19.82
26/01/2020 15:10:09	26012020	260120	151009	102.570	12.300827	-56.671397	102.710	-0.160	0.230	0.070	102.600	-1.100	0.500																			1580051409.0	10.83	20.06
26/01/2020 15:10:10	26012020	260120	151010	102.720	12.300817	-56.671345	102.870	-0.060	-0.070	0.150	102.750	-1.400	0.500																			1580051410.0	11.16	20.67
26/01/2020 15:10:11	26012020	260120	151011	102.870	12.300805	-56.671293	102.970	0.080	-0.220	0.280	102.890	-1.600	0.600																			1580051411.0	11.20	20.74
26/01/2020 15:10:12	26012020	260120	151012	102.950	12.300793	-56.671243	103.020	0.200	-0.270	0.370	102.960	-1.600	0.700																			1580051412.0	10.93	20.24
26/01/2020 15:10:13	26012020	260120	151013	102.990	12.300783	-56.671193	103.070	0.270	-0.410	0.380	103.010	-1.800	0.800																			1580051413.0	10.86	20.11
26/01/2020 15:10:14	26012020	260120	151014	103.060	12.300775	-56.671142	103.100	0.210	-0.410	0.320	103.070	-1.800	0.700																			1580051414.0	10.97	20.32
26/01/2020 15:10:15	26012020	260120	151015	103.060	12.300765	-56.671092	102.990	0.050	-0.330	0.340	103.050	-1.800	0.700																			1580051415.0	10.77	19.95
26/01/2020 15:10:16	26012020	260120	151016	102.890	12.300755	-56.671042	102.770	-0.040	-0.450	0.540	102.840	-1.800	0.800																			1580051416.0	10.74	19.89
26/01/2020 15:10:17	26012020	260120	151017	102.650	12.300743	-56.670990	102.570	-0.010	-0.730	0.680	102.610	-2.000	1.000																			1580051417.0	11.14	20.63
26/01/2020 15:10:18	26012020	260120	151018	102.490	12.300732	-56.670938	102.520	-0.040	-0.750	0.570	102.470	-2.200	1.000																			1580051418.0	11.42	21.15
26/01/2020 15:10:19	26012020	260120	151019	102.460	12.300720	-56.670887	102.540	-0.190	-0.320	0.390	102.470	-1.900	0.800																			1580051419.0	11.16	20.67
26/01/2020 15:10:20	26012020	260120	151020	102.500	12.300710	-56.670837	102.600	-0.330	0.210	0.310	102.510	-1.400	0.700																			1580051420.0	10.67	19.76
26/01/2020 15:10:21	26012020	260120	151021	102.570	12.300698	-56.670788	102.650	-0.310	0.370	0.310	102.580	-1.000	0.700																			1580051421.0	10.65	19.72
26/01/2020 15:10:22	26012020	260120	151022	102.610	12.300687	-56.670738	102.730	-0.170	0.190	0.320	102.620	-1.100	0.700																			1580051422.0	11.02	20.41
26/01/2020 15:10:23	26012020	260120	151023	102.720	12.300675	-56.670687	102.940	0.010	-0.030	0.170	102.760	-1.400	0.600																			1580051423.0	11.16	20.67
26/01/2020 15:10:24	26012020	260120	151024	102.960	12.300665	-56.670635	103.140	0.200	-0.260	0.160	103.010	-1.600	0.500																			1580051424.0	11.06	20.48
26/01/2020 15:10:25	26012020	260120	151025	103.120	12.300655	-56.670583	103.180	0.300	-0.450	0.410	103.130	-1.800	0.700																			1580051425.0	11.03	20.43
26/01/2020 15:10:26	26012020	260120	151026	103.120	12.300643	-56.670533	103.100	0.190	-0.510	0.630	103.100	-1.900	0.900																			1580051426.0	10.97	20.32
26/01/2020 15:10:27	26012020	260120	151027	103.000	12.300633	-56.670483	102.950	-0.050	-0.410	0.860	102.960	-1.900	1.100																			1580051427.0	10.82	20.04
26/01/2020 15:10:28	26012020	260120	151028	102.830	12.300622	-56.670433	102.830	-0.130	-0.360	0.930	102.810	-1.800	1.300																			1580051428.0	10.68	19.78
26/01/2020 15:10:29	26012020	260120	151029	102.740	12.300612	-56.670383	102.820	0.070	-0.540	0.700	102.740	-1.900	1.200																			1580051429.0	10.88	20.15
26/01/2020 15:10:30	26012020	260120	151030	102.730	12.300602	-56.670332	102.740	0.320	-0.720	0.520	102.720	-2.100	0.900																			1580051430.0	11.33	20.98
26/01/2020 15:10:31	26012020	260120	151031	102.630	12.300592	-56.670278	102.590	0.310	-0.460	0.480	102.600	-2.000	0.900																			1580051431.0	11.35	21.02
26/01/2020 15:10:32	26012020	260120	151032	102.490	12.300582	-56.670228	102.560	-0.000	0.130	0.440	102.480	-1.500	0.800																			1580051432.0	10.85	20.09
26/01/2020 15:10:33	26012020	260120	151033	102.540	12.300572	-56.670180	102.740	-0.340	0.490	0.460	102.570	-1.000	0.800																			1580051433.0	10.46	19.37
26/01/2020 15:10:34	26012020	260120	151034	102.730	12.300560	-56.670130	102.850	-0.470	0.310	0.570	102.760	-1.000	0.900																			1580051434.0	10.69	19.80
26/01/2020 15:10:35	26012020	260120	151035	102.810	12.300548	-56.670078	102.850	-0.380	-0.120	0.680	102.810	-1.400	1.000																			1580051435.0	11.16	20.67
26/01/2020 15:10:36	26012020	260120	151036	102.790	12.300535	-56.670027	102.860	-0.180	-0.480	0.810	102.790	-1.800	1.100																			1580051436.0	11.28	20.89
26/01/2020 15:10:37	26012020	260120	151037	102.810	12.300523	-56.669977	102.860	0.010	-0.670	0.860	102.810	-2.000	1.200																			1580051437.0	11.14	20.63
26/01/2020 15:10:38	26012020	260120	151038	102.780	12.300512	-56.669925	102.750	0.090	-0.620	0.700	102.760	-2.100	1.200																			1580051438.0	11.02	20.41
26/01/2020 15:10:39	26012020	260120	151039	102.630	12.300503	-56.669875	102.540	0.060	-0.390	0.440	102.590	-1.900	0.900																			1580051439.0	10.82	20.04
26/01/2020 15:10:40	26012020	260120	151040	102.430	12.300493	-56.669825	102.390	0.060	-0.240	0.320	102.390	-1.700	0.700																			1580051440.0	10.72	19.85
26/01/2020 15:10:41	26012020	260120	151041	102.320	12.300485	-56.669775	102.400	0.210	-0.320	0.210	102.320	-1.700	0.600																			1580051441.0	10.91	20.21
26/01/2020 15:10:42	26012020	260120	151042	102.370	12.300475	-56.669722	102.530	0.400	-0.400	0.010	102.400	-1.800	0.400																			1580051442.0	11.26	20.85
26/01/2020 15:10:43	26012020	260120	151043	102.550	12.300465	-56.669670	102.720	0.370	-0.100	0.070	102.590	-1.700	0.400																			1580051443.0	11.23	20.80
26/01/2020 15:10:44	26012020	260120	151044	102.720	12.300455	-56.669620	102.850	0.060	0.430	0.360	102.740	-1.200	0.600																			1580051444.0	10.65	19.72
26/01/2020 15:10:45	26012020	260120	151045	102.810	12.300445	-56.669573	102.870	-0.290	0.460	0.590	102.820	-0.900	0.900																			1580051445.0	10.32	19.11
26/01/2020 15:10:46	26012020	260120	151046	102.790	12.300433	-56.669523	102.800	-0.360	-0.250	0.770	102.770	-1.300	1.100																			1580051446.0	10.85	20.09
26/01/2020 15:10:47	26012020	260120	151047	102.720	12.300422	-56.669468	102.780	-0.160	-1.010	0.840	102.710	-2.200	1.200																			1580051447.0	11.63	21.54
26/01/2020 15:10:48	26012020	260120	151048	102.690	12.300410	-56.669415	102.710	-0.020	-1.000	0.770	102.680	-2.500	1.200																			1580051448.0	11.62	21.52
26/01/2020 15:10:49	26012020	260120	151049	102.590	12.300400	-56.669365	102.510	-0.110	-0.430	0.660	102.550	-2.100	1.100																			1580051449.0	10.80	20.00
26/01/2020 15:10:50	26012020	260120	151050	102.370	12.300388	-56.669318	102.320	-0.250	-0.030	0.560	102.320	-1.500	1.000																			1580051450.0	10.36	19.19
26/01/2020 15:10:51	26012020	260120	151051	102.240	12.300378	-56.669268	102.320	-0.180	-0.160	0.300	102.240	-1.500	0.800																			1580051451.0	10.71	19.83
26/01/2020 15:10:52	26012020	260120	151052	102.290	12.300368	-56.669215	102.360	0.060	-0.390	0.080	102.310	-1.700	0.500																			1580051452.0	11.35	21.02
26/01/2020 15:10:53	26012020	260120	151053	102.340	12.300358	-56.669163	102.380	0.240	-0.230	0.030	102.340	-1.700	0.400																			1580051453.0	11.37	21.06
26/01/2020 15:10:54	26012020	260120	151054	102.370	12.300348	-56.669113	102.480	0.240	0.150	0.060	102.380	-1.400	0.400																			1580051454.0	10.84	20.08
26/01/2020 15:10:55	26012020	260120	151055	102.500	12.300338	-56.669063	102.670	0.110	0.330	0.120	102.540	-1.100	0.500																			1580051455.0	10.58	19.59
26/01/2020 15:10:56	26012020	260120	151056	102.710	12.300328	-56.669013	102.900	0.020	0.100	0.210	102.760	-1.200	0.500																			1580051456.0	10.73	19.87
26/01/2020 15:10:57	26012020	260120	151057	102.920	12.300318	-56.668962	103.060	0.020	-0.300	0.440	102.950	-1.600	0.700																			1580051457.0	11.06	20.48
26/01/2020 15:10:58	26012020	260120	151058	103.030	12.300308	-56.668912	103.090	0.030	-0.520	0.710	103.040	-1.900	1.000																			1580051458.0	11.15	20.65
26/01/2020 15:10:59	26012020	260120	151059	103.000	12.300297	-56.668860	102.960	-0.040	-0.630	0.800	102.970	-2.000	1.200	1016.20	26.20	26.30	19.50	19.60	877.00	66.00	66.00	376.00	29.30	351.00	9.80	82.00	4.40	64063	3097.00	27.60	27.60	1580051459.0	10.94	20.26
26/01/2020 15:11:00	26012020	260120	151100	102.840	12.300287	-56.668810	102.800	-0.100	-0.750	0.810	102.800	-2.100	1.200																			1580051460.0	10.92	20.22
26/01/2020 15:11:01	26012020	260120	151101	102.690	12.300275	-56.668758	102.710	-0.100	-0.720	0.770	102.670	-2.200	1.200																			1580051461.0	11.11	20.58
26/01/2020 15:11:02	26012020	260120	151102	102.600	12.300263	-56.668708	102.580	-0.100	-0.380	0.630	102.600	-1.900	1.100																			1580051462.0	11.03	20.43
26/01/2020 15:11:03	26012020	260120	151103	102.460	12.300253	-56.668658	102.400	-0.050	-0.070	0.340	102.430	-1.500	0.800																			1580051463.0	10.75	19.91
26/01/2020 15:11:04	26012020	260120	151104	102.310	12.300243	-56.668607	102.320	0.130	-0.060	0.060	102.290	-1.400	0.500																			1580051464.0	10.92	20.22
26/01/2020 15:11:05	26012020	260120	151105	102.300	12.300235	-56.668555	102.440	0.240	-0.090	-0.130	102.330	-1.500	0.300																			1580051465.0	11.26	20.85
26/01/2020 15:11:06	26012020	260120	151106	102.480	12.300225	-56.668503	102.680	0.080	0.010	-0.170	102.530	-1.400	0.200																			1580051466.0	11.18	20.71
26/01/2020 15:11:07	26012020	260120	151107	102.720	12.300215	-56.668452	102.880	-0.240	0.250	0.220	102.760	-1.200	0.400																			1580051467.0	10.87	20.13
26/01/2020 15:11:08	26012020	260120	151108	102.880	12.300202	-56.668405	102.960	-0.500	0.370	0.550	102.900	-1.000	0.800																			1580051468.0	10.51	19.46
26/01/2020 15:11:09	26012020	260120	151109	102.920	12.300190	-56.668357	102.890	-0.330	-0.150	0.590	102.900	-1.300	0.900																			1580051469.0	10.57	19.58
26/01/2020 15:11:10	26012020	260120	151110	102.790	12.300178	-56.668303	102.690	0.200	-1.020	0.670	102.750	-2.100	1.000																			1580051470.0	11.36	21.04
26/01/2020 15:11:11	26012020	260120	151111	102.590	12.300168	-56.668248	102.520	0.540	-1.250	0.570	102.550	-2.700	1.000																			1580051471.0	11.76	21.78
26/01/2020 15:11:12	26012020	260120	151112	102.450	12.300158	-56.668198	102.440	0.380	-0.600	0.420	102.430	-2.300	0.800																			1580051472.0	11.05	20.46
26/01/2020 15:11:13	26012020	260120	151113	102.400	12.300150	-56.668150	102.440	-0.030	0.180	0.420	102.390	-1.400	0.800																			1580051473.0	10.19	18.87
26/01/2020 15:11:14	26012020	260120	151114	102.420	12.300140	-56.668103	102.500	-0.240	0.380	0.460	102.430	-1.000	0.800																			1580051474.0	10.24	18.96
26/01/2020 15:11:15	26012020	260120	151115	102.460	12.300128	-56.668052	102.570	-0.170	0.040	0.480	102.480	-1.200	0.800																			1580051475.0	10.92	20.22
26/01/2020 15:11:16	26012020	260120	151116	102.540	12.300117	-56.668000	102.610	0.040	-0.350	0.590	102.550	-1.600	0.900																			1580051476.0	11.40	21.11
26/01/2020 15:11:17	26012020	260120	151117	102.570	12.300107	-56.667948	102.660	0.150	-0.380	0.610	102.580	-1.800	1.000																			1580051477.0	11.30	20.93
26/01/2020 15:11:18	26012020	260120	151118	102.630	12.300095	-56.667897	102.670	0.130	-0.250	0.590	102.630	-1.700	1.000																			1580051478.0	10.84	20.08
26/01/2020 15:11:19	26012020	260120	151119	102.630	12.300087	-56.667848	102.660	0.040	-0.290	0.660	102.630	-1.600	1.000																			1580051479.0	10.71	19.83
26/01/2020 15:11:20	26012020	260120	151120	102.610	12.300075	-56.667797	102.590	-0.040	-0.450	0.860	102.590	-1.800	1.200																			1580051480.0	10.96	20.30
26/01/2020 15:11:21	26012020	260120	151121	102.500	12.300063	-56.667747	102.450	-0.130	-0.450	0.970	102.480	-1.900	1.300																			1580051481.0	11.08	20.52
26/01/2020 15:11:22	26012020	260120	151122	102.370	12.300052	-56.667697	102.310	-0.190	-0.300	0.880	102.340	-1.700	1.300																			1580051482.0	10.90	20.19
26/01/2020 15:11:23	26012020	260120	151123	102.230	12.300042	-56.667647	102.200	-0.110	-0.310	0.650	102.210	-1.700	1.100																			1580051483.0	10.82	20.04
26/01/2020 15:11:24	26012020	260120	151124	102.160	12.300032	-56.667595	102.140	0.060	-0.340	0.420	102.150	-1.800	0.900																			1580051484.0	11.13	20.61
26/01/2020 15:11:25	26012020	260120	151125	102.110	12.300022	-56.667543	102.150	0.110	-0.100	0.240	102.110	-1.600	0.700																			1580051485.0	11.12	20.59
26/01/2020 15:11:26	26012020	260120	151126	102.150	12.300013	-56.667492	102.290	0.010	0.220	0.080	102.150	-1.300	0.500																			1580051486.0	10.77	19.95
26/01/2020 15:11:27	26012020	260120	151127	102.340	12.300005	-56.667443	102.560	-0.120	0.300	0.010	102.400	-1.100	0.400																			1580051487.0	10.63	19.69
26/01/2020 15:11:28	26012020	260120	151128	102.640	12.299995	-56.667393	102.880	-0.140	0.040	0.120	102.710	-1.200	0.400																			1580051488.0	10.76	19.93
26/01/2020 15:11:29	26012020	260120	151129	102.930	12.299983	-56.667342	103.040	0.060	-0.440	0.400	102.960	-1.700	0.700																			1580051489.0	11.06	20.48
26/01/2020 15:11:30	26012020	260120	151130	103.000	12.299970	-56.667290	102.920	0.350	-0.790	0.630	102.990	-2.100	0.900																			1580051490.0	11.26	20.85
26/01/2020 15:11:31	26012020	260120	151131	102.810	12.299960	-56.667238	102.690	0.460	-0.770	0.720	102.770	-2.200	1.100																			1580051491.0	11.13	20.61
26/01/2020 15:11:32	26012020	260120	151132	102.610	12.299950	-56.667188	102.620	0.290	-0.500	0.590	102.590	-2.000	1.000																			1580051492.0	10.81	20.02
26/01/2020 15:11:33	26012020	260120	151133	102.600	12.299942	-56.667140	102.660	-0.010	-0.250	0.490	102.610	-1.700	0.900																			1580051493.0	10.63	19.69
26/01/2020 15:11:34	26012020	260120	151134	102.630	12.299932	-56.667090	102.590	-0.250	-0.230	0.610	102.620	-1.600	0.900																			1580051494.0	10.77	19.95
26/01/2020 15:11:35	26012020	260120	151135	102.490	12.299920	-56.667038	102.370	-0.360	-0.320	0.870	102.440	-1.700	1.100																			1580051495.0	11.13	20.61
26/01/2020 15:11:36	26012020	260120	151136	102.280	12.299907	-56.666987	102.290	-0.420	-0.140	1.020	102.250	-1.600	1.400																			1580051496.0	11.23	20.80
26/01/2020 15:11:37	26012020	260120	151137	102.240	12.299893	-56.666937	102.350	-0.390	0.100	0.880	102.260	-1.400	1.300																			1580051497.0	10.86	20.11
26/01/2020 15:11:38	26012020	260120	151138	102.340	12.299883	-56.666887	102.440	-0.180	-0.000	0.460	102.340	-1.300	1.000																			1580051498.0	10.81	20.02
26/01/2020 15:11:39	26012020	260120	151139	102.430	12.299873	-56.666835	102.510	0.140	-0.190	0.150	102.430	-1.500	0.600																			1580051499.0	11.20	20.74
26/01/2020 15:11:40	26012020	260120	151140	102.510	12.299865	-56.666783	102.670	0.370	-0.110	0.020	102.510	-1.600	0.400																			1580051500.0	11.15	20.65
26/01/2020 15:11:41	26012020	260120	151141	102.660	12.299855	-56.666733	102.890	0.420	-0.060	-0.050	102.700	-1.400	0.300																			1580051501.0	10.75	19.91
26/01/2020 15:11:42	26012020	260120	151142	102.900	12.299847	-56.666683	102.990	0.420	-0.340	0.070	102.900	-1.600	0.400																			1580051502.0	10.79	19.98
26/01/2020 15:11:43	26012020	260120	151143	102.950	12.299837	-56.666632	102.970	0.360	-0.580	0.340	102.950	-1.900	0.600																			1580051503.0	11.17	20.69
26/01/2020 15:11:44	26012020	260120	151144	102.920	12.299825	-56.666580	102.950	0.060	-0.340	0.680	102.900	-1.900	0.900																			1580051504.0	11.07	20.50
26/01/2020 15:11:45	26012020	260120	151145	102.890	12.299813	-56.666532	102.960	-0.350	0.010	0.940	102.890	-1.500	1.200																			1580051505.0	10.45	19.35
26/01/2020 15:11:46	26012020	260120	151146	102.910	12.299802	-56.666485	102.980	-0.510	-0.150	0.880	102.920	-1.400	1.300																			1580051506.0	10.42	19.30
26/01/2020 15:11:47	26012020	260120	151147	102.900	12.299790	-56.666433	102.880	-0.290	-0.690	0.730	102.890	-1.900	1.100																			1580051507.0	11.11	20.58
26/01/2020 15:11:48	26012020	260120	151148	102.770	12.299778	-56.666380	102.670	0.010	-0.940	0.650	102.770	-2.300	1.000																			1580051508.0	11.56	21.41
26/01/2020 15:11:49	26012020	260120	151149	102.540	12.299767	-56.666328	102.430	0.110	-0.620	0.640	102.540	-2.200	1.000																			1580051509.0	11.26	20.85
26/01/2020 15:11:50	26012020	260120	151150	102.330	12.299757	-56.666278	102.270	0.010	-0.080	0.630	102.330	-1.700	1.000																			1580051510.0	10.73	19.87
26/01/2020 15:11:51	26012020	260120	151151	102.210	12.299747	-56.666230	102.230	-0.160	0.260	0.530	102.210	-1.200	1.000																			1580051511.0	10.61	19.65
26/01/2020 15:11:52	26012020	260120	151152	102.180	12.299737	-56.666178	102.260	-0.240	0.240	0.330	102.180	-1.100	0.800																			1580051512.0	10.83	20.06
26/01/2020 15:11:53	26012020	260120	151153	102.240	12.299727	-56.666127	102.360	-0.110	0.040	0.340	102.240	-1.300	0.700																			1580051513.0	11.12	20.59
26/01/2020 15:11:54	26012020	260120	151154	102.350	12.299715	-56.666075	102.510	0.150	-0.160	0.460	102.350	-1.500	0.800																			1580051514.0	11.19	20.72
26/01/2020 15:11:55	26012020	260120	151155	102.500	12.299703	-56.666025	102.600	0.380	-0.250	0.560	102.500	-1.600	0.900																			1580051515.0	11.19	20.72
26/01/2020 15:11:56	26012020	260120	151156	102.570	12.299693	-56.665975	102.640	0.430	-0.170	0.510	102.570	-1.600	0.900																			1580051516.0	10.90	20.19
26/01/2020 15:11:57	26012020	260120	151157	102.630	12.299685	-56.665925	102.710	0.300	-0.110	0.360	102.650	-1.500	0.800																			1580051517.0	10.65	19.72
26/01/2020 15:11:58	26012020	260120	151158	102.680	12.299677	-56.665875	102.680	0.140	-0.280	0.240	102.680	-1.600	0.700																			1580051518.0	10.70	19.82
26/01/2020 15:11:59	26012020	260120	151159	102.630	12.299668	-56.665823	102.580	0.020	-0.560	0.210	102.630	-1.900	0.600	1016.20	26.20	26.30	19.90	20.00	848.00	68.00	68.00	377.00	29.30	353.00	9.90	86.00	4.40	62549	3133.00	27.60	27.60	1580051519.0	10.94	20.26
26/01/2020 15:12:00	26012020	260120	151200	102.530	12.299658	-56.665772	102.470	-0.080	-0.730	0.340	102.530	-2.100	0.600																			1580051520.0	11.09	20.54
26/01/2020 15:12:01	26012020	260120	151201	102.420	12.299647	-56.665722	102.320	-0.230	-0.660	0.580	102.420	-2.100	0.900																			1580051521.0	11.04	20.45
26/01/2020 15:12:02	26012020	260120	151202	102.230	12.299633	-56.665672	102.070	-0.420	-0.470	0.820	102.230	-1.900	1.100																			1580051522.0	10.88	20.15
26/01/2020 15:12:03	26012020	260120	151203	101.960	12.299620	-56.665622	101.830	-0.470	-0.380	0.940	101.960	-1.800	1.300																			1580051523.0	10.92	20.22
26/01/2020 15:12:04	26012020	260120	151204	101.740	12.299608	-56.665570	101.670	-0.360	-0.310	0.860	101.740	-1.700	1.300																			1580051524.0	11.16	20.67
26/01/2020 15:12:05	26012020	260120	151205	101.640	12.299597	-56.665518	101.680	-0.190	-0.090	0.500	101.640	-1.600	1.000																			1580051525.0	11.21	20.76
26/01/2020 15:12:06	26012020	260120	151206	101.710	12.299588	-56.665468	101.830	-0.040	0.220	0.150	101.710	-1.300	0.600																			1580051526.0	10.97	20.32
26/01/2020 15:12:07	26012020	260120	151207	101.850	12.299578	-56.665418	102.060	0.120	0.400	0.070	101.890	-1.000	0.500																			1580051527.0	10.78	19.96
26/01/2020 15:12:08	26012020	260120	151208	102.140	12.299570	-56.665367	102.290	0.300	0.230	0.080	102.140	-1.100	0.500																			1580051528.0	10.83	20.06
26/01/2020 15:12:09	26012020	260120	151209	102.330	12.299560	-56.665317	102.410	0.440	-0.180	0.150	102.330	-1.400	0.500																			1580051529.0	11.08	20.52
26/01/2020 15:12:10	26012020	260120	151210	102.400	12.299550	-56.665263	102.390	0.530	-0.540	0.340	102.400	-1.800	0.600																			1580051530.0	11.19	20.72
26/01/2020 15:12:11	26012020	260120	151211	102.360	12.299542	-56.665212	102.370	0.530	-0.690	0.480	102.360	-2.100	0.800																			1580051531.0	11.11	20.58
26/01/2020 15:12:12	26012020	260120	151212	102.340	12.299532	-56.665162	102.340	0.320	-0.540	0.610	102.340	-2.000	0.900																			1580051532.0	10.93	20.24
26/01/2020 15:12:13	26012020	260120	151213	102.300	12.299522	-56.665112	102.320	-0.140	-0.190	0.750	102.300	-1.700	1.100																			1580051533.0	10.65	19.72
26/01/2020 15:12:14	26012020	260120	151214	102.300	12.299512	-56.665063	102.330	-0.570	-0.050	0.810	102.300	-1.400	1.200																			1580051534.0	10.47	19.39
26/01/2020 15:12:15	26012020	260120	151215	102.290	12.299500	-56.665013	102.220	-0.670	-0.320	0.850	102.290	-1.600	1.200																			1580051535.0	10.78	19.96
26/01/2020 15:12:16	26012020	260120	151216	102.140	12.299487	-56.664962	101.970	-0.420	-0.700	0.790	102.140	-2.000	1.200																			1580051536.0	11.30	20.93
26/01/2020 15:12:17	26012020	260120	151217	101.940	12.299475	-56.664910	101.830	-0.010	-0.880	0.470	101.900	-2.200	1.000																			1580051537.0	11.50	21.30
26/01/2020 15:12:18	26012020	260120	151218	101.830	12.299465	-56.664857	101.870	0.210	-0.520	0.060	101.830	-2.100	0.600																			1580051538.0	11.37	21.06
26/01/2020 15:12:19	26012020	260120	151219	101.900	12.299457	-56.664807	102.040	0.050	0.240	-0.250	101.930	-1.400	0.200																			1580051539.0	10.81	20.02
26/01/2020 15:12:20	26012020	260120	151220	102.130	12.299448	-56.664758	102.270	-0.230	0.740	-0.210	102.130	-0.800	0.100																			1580051540.0	10.26	19.00
26/01/2020 15:12:21	26012020	260120	151221	102.340	12.299438	-56.664710	102.360	-0.160	0.390	0.130	102.340	-0.800	0.400																			1580051541.0	10.49	19.43
26/01/2020 15:12:22	26012020	260120	151222	102.360	12.299425	-56.664657	102.270	0.270	-0.500	0.450	102.360	-1.600	0.700																			1580051542.0	11.40	21.11
26/01/2020 15:12:23	26012020	260120	151223	102.240	12.299413	-56.664602	102.200	0.560	-0.920	0.650	102.240	-2.300	1.000																			1580051543.0	11.91	22.06
26/01/2020 15:12:24	26012020	260120	151224	102.210	12.299403	-56.664550	102.300	0.390	-0.400	0.600	102.210	-2.100	1.000																			1580051544.0	11.19	20.72
26/01/2020 15:12:25	26012020	260120	151225	102.350	12.299395	-56.664503	102.500	-0.040	0.280	0.400	102.350	-1.300	0.800																			1580051545.0	10.13	18.76
26/01/2020 15:12:26	26012020	260120	151226	102.540	12.299387	-56.664457	102.590	-0.240	0.160	0.360	102.540	-1.100	0.700																			1580051546.0	10.08	18.67
26/01/2020 15:12:27	26012020	260120	151227	102.580	12.299377	-56.664405	102.610	-0.100	-0.520	0.500	102.580	-1.700	0.800																			1580051547.0	11.06	20.48
26/01/2020 15:12:28	26012020	260120	151228	102.590	12.299365	-56.664352	102.640	0.070	-0.850	0.680	102.590	-2.200	1.000																			1580051548.0	11.60	21.48
26/01/2020 15:12:29	26012020	260120	151229	102.620	12.299352	-56.664300	102.650	0.030	-0.560	0.710	102.620	-2.100	1.100																			1580051549.0	11.15	20.65
26/01/2020 15:12:30	26012020	260120	151230	102.610	12.299342	-56.664252	102.590	-0.140	-0.130	0.650	102.610	-1.700	1.000																			1580051550.0	10.49	19.43
26/01/2020 15:12:31	26012020	260120	151231	102.540	12.299330	-56.664203	102.430	-0.180	-0.120	0.610	102.510	-1.500	1.000																			1580051551.0	10.47	19.39
26/01/2020 15:12:32	26012020	260120	151232	102.330	12.299320	-56.664153	102.290	-0.020	-0.390	0.480	102.330	-1.700	0.900																			1580051552.0	11.07	20.50
26/01/2020 15:12:33	26012020	260120	151233	102.230	12.299310	-56.664100	102.250	0.040	-0.410	0.290	102.220	-1.800	0.700																			1580051553.0	11.38	21.08
26/01/2020 15:12:34	26012020	260120	151234	102.220	12.299300	-56.664048	102.240	-0.120	-0.120	0.100	102.220	-1.600	0.500																			1580051554.0	11.03	20.43
26/01/2020 15:12:35	26012020	260120	151235	102.200	12.299290	-56.664000	102.190	-0.280	0.140	0.130	102.200	-1.300	0.500																			1580051555.0	10.66	19.74
26/01/2020 15:12:36	26012020	260120	151236	102.150	12.299278	-56.663950	102.180	-0.260	0.170	0.260	102.150	-1.200	0.600																			1580051556.0	10.69	19.80
26/01/2020 15:12:37	26012020	260120	151237	102.160	12.299267	-56.663900	102.240	-0.010	-0.050	0.370	102.160	-1.300	0.700																			1580051557.0	10.88	20.15
26/01/2020 15:12:38	26012020	260120	151238	102.220	12.299255	-56.663848	102.350	0.370	-0.390	0.380	102.220	-1.700	0.800																			1580051558.0	11.10	20.56
26/01/2020 15:12:39	26012020	260120	151239	102.360	12.299245	-56.663797	102.490	0.650	-0.600	0.320	102.360	-1.900	0.700																			1580051559.0	11.21	20.76
26/01/2020 15:12:40	26012020	260120	151240	102.480	12.299235	-56.663745	102.540	0.640	-0.550	0.350	102.480	-2.000	0.700																			1580051560.0	11.05	20.46
26/01/2020 15:12:41	26012020	260120	151241	102.510	12.299227	-56.663695	102.580	0.350	-0.220	0.510	102.510	-1.800	0.800																			1580051561.0	10.79	19.98
26/01/2020 15:12:42	26012020	260120	151242	102.540	12.299217	-56.663647	102.580	-0.140	0.150	0.730	102.540	-1.400	1.000																			1580051562.0	10.45	19.35
26/01/2020 15:12:43	26012020	260120	151243	102.530	12.299207	-56.663598	102.530	-0.530	0.070	0.850	102.510	-1.200	1.200																			1580051563.0	10.40	19.26
26/01/2020 15:12:44	26012020	260120	151244	102.450	12.299195	-56.663548	102.420	-0.580	-0.540	0.930	102.450	-1.700	1.300																			1580051564.0	10.97	20.32
26/01/2020 15:12:45	26012020	260120	151245	102.300	12.299182	-56.663495	102.210	-0.380	-1.020	0.960	102.300	-2.300	1.300																			1580051565.0	11.57	21.43
26/01/2020 15:12:46	26012020	260120	151246	102.100	12.299168	-56.663443	102.050	-0.170	-0.850	0.850	102.100	-2.400	1.300																			1580051566.0	11.46	21.22
26/01/2020 15:12:47	26012020	260120	151247	101.970	12.299158	-56.663393	101.960	-0.060	-0.230	0.640	101.970	-1.900	1.100																			1580051567.0	10.79	19.98
26/01/2020 15:12:48	26012020	260120	151248	101.890	12.299148	-56.663345	101.880	-0.010	0.230	0.330	101.890	-1.300	0.800																			1580051568.0	10.45	19.35
26/01/2020 15:12:49	26012020	260120	151249	101.830	12.299140	-56.663295	101.860	0.080	0.240	0.060	101.830	-1.100	0.500																			1580051569.0	10.69	19.80
26/01/2020 15:12:50	26012020	260120	151250	101.860	12.299130	-56.663243	101.980	0.180	-0.010	0.010	101.860	-1.300	0.400																			1580051570.0	11.14	20.63
26/01/2020 15:12:51	26012020	260120	151251	102.010	12.299122	-56.663190	102.150	0.290	-0.280	0.120	102.010	-1.600	0.400																			1580051571.0	11.24	20.82
26/01/2020 15:12:52	26012020	260120	151252	102.150	12.299110	-56.663138	102.240	0.380	-0.380	0.320	102.150	-1.800	0.600																			1580051572.0	11.19	20.72
26/01/2020 15:12:53	26012020	260120	151253	102.240	12.299100	-56.663088	102.390	0.330	-0.150	0.520	102.240	-1.700	0.800																			1580051573.0	10.96	20.30
26/01/2020 15:12:54	26012020	260120	151254	102.440	12.299090	-56.663040	102.690	0.040	0.230	0.620	102.440	-1.300	1.000																			1580051574.0	10.52	19.48
26/01/2020 15:12:55	26012020	260120	151255	102.680	12.299080	-56.662992	102.950	-0.310	0.250	0.630	102.740	-1.100	1.000																			1580051575.0	10.25	18.98
26/01/2020 15:12:56	26012020	260120	151256	102.930	12.299068	-56.662943	102.890	-0.330	-0.430	0.710	102.930	-1.500	1.000																			1580051576.0	10.64	19.71
26/01/2020 15:12:57	26012020	260120	151257	102.770	12.299057	-56.662890	102.610	0.000	-1.220	0.760	102.770	-2.400	1.100																			1580051577.0	11.46	21.22
26/01/2020 15:12:58	26012020	260120	151258	102.500	12.299045	-56.662837	102.440	0.290	-1.270	0.650	102.500	-2.700	1.100																			1580051578.0	11.64	21.56
26/01/2020 15:12:59	26012020	260120	151259	102.380	12.299035	-56.662785	102.410	0.170	-0.600	0.510	102.380	-2.300	0.900	1016.20	26.20	26.30	19.80	19.90	871.00	68.00	68.00	377.00	29.30	352.00	9.30	82.00	3.80	63684	3344.00	27.60	27.60	1580051579.0	10.93	20.24
26/01/2020 15:13:00	26012020	260120	151300	102.370	12.299027	-56.662738	102.400	-0.190	0.030	0.490	102.370	-1.500	0.900																			1580051580.0	10.93	20.24
26/01/2020 15:13:01	26012020	260120	151301	102.330	12.299015	-56.662690	102.250	-0.340	0.040	0.630	102.330	-1.300	0.900																			1580051581.0	10.52	19.48
26/01/2020 15:13:02	26012020	260120	151302	102.150	12.299003	-56.662637	102.040	-0.140	-0.240	0.840	102.150	-1.500	1.100																			1580051582.0	11.33	20.98
26/01/2020 15:13:03	26012020	260120	151303	101.950	12.298990	-56.662585	101.970	0.030	-0.130	0.860	101.950	-1.600	1.300																			1580051583.0	11.58	21.45
26/01/2020 15:13:04	26012020	260120	151304	101.950	12.298978	-56.662533	102.140	-0.050	0.290	0.540	101.950	-1.300	1.100																			1580051584.0	10.97	20.32
26/01/2020 15:13:05	26012020	260120	151305	102.180	12.298970	-56.662485	102.390	-0.150	0.450	0.190	102.180	-0.900	0.700																			1580051585.0	10.52	19.48
26/01/2020 15:13:06	26012020	260120	151306	102.420	12.298960	-56.662435	102.570	-0.070	0.210	0.100	102.420	-1.100	0.500																			1580051586.0	10.52	19.48
26/01/2020 15:13:07	26012020	260120	151307	102.590	12.298950	-56.662383	102.730	0.110	-0.140	0.180	102.590	-1.400	0.500																			1580051587.0	11.00	20.37
26/01/2020 15:13:08	26012020	260120	151308	102.730	12.298940	-56.662333	102.830	0.220	-0.390	0.320	102.730	-1.700	0.600																			1580051588.0	10.96	20.30
26/01/2020 15:13:09	26012020	260120	151309	102.800	12.298928	-56.662283	102.750	0.200	-0.570	0.540	102.800	-1.900	0.800																			1580051589.0	10.78	19.96
26/01/2020 15:13:10	26012020	260120	151310	102.660	12.298918	-56.662233	102.440	0.150	-0.770	0.730	102.660	-2.100	1.000																			1580051590.0	10.70	19.82
26/01/2020 15:13:11	26012020	260120	151311	102.280	12.298907	-56.662183	102.000	0.240	-1.060	0.970	102.280	-2.400	1.300																			1580051591.0	10.94	20.26
26/01/2020 15:13:12	26012020	260120	151312	101.850	12.298895	-56.662132	101.640	0.350	-1.080	1.030	101.850	-2.500	1.400																			1580051592.0	11.26	20.85
26/01/2020 15:13:13	26012020	260120	151313	101.540	12.298885	-56.662080	101.480	0.250	-0.610	0.810	101.540	-2.200	1.300																			1580051593.0	11.13	20.61
26/01/2020 15:13:14	26012020	260120	151314	101.440	12.298877	-56.662030	101.460	-0.090	0.060	0.680	101.440	-1.600	1.100																			1580051594.0	10.75	19.91
26/01/2020 15:13:15	26012020	260120	151315	101.450	12.298867	-56.661982	101.540	-0.450	0.520	0.740	101.450	-1.000	1.100																			1580051595.0	10.58	19.59
26/01/2020 15:13:16	26012020	260120	151316	101.540	12.298855	-56.661932	101.690	-0.640	0.550	0.810	101.540	-0.800	1.200																			1580051596.0	10.82	20.04
26/01/2020 15:13:17	26012020	260120	151317	101.700	12.298843	-56.661880	101.850	-0.600	0.270	0.810	101.700	-1.000	1.200																			1580051597.0	10.82	20.04
26/01/2020 15:13:18	26012020	260120	151318	101.850	12.298832	-56.661828	101.980	-0.360	-0.080	0.820	101.850	-1.400	1.200																			1580051598.0	11.23	20.80
26/01/2020 15:13:19	26012020	260120	151319	101.980	12.298820	-56.661777	102.090	-0.040	-0.300	0.900	101.980	-1.600	1.200																			1580051599.0	11.23	20.80
26/01/2020 15:13:20	26012020	260120	151320	102.070	12.298810	-56.661727	102.120	0.230	-0.490	0.900	102.070	-1.800	1.300																			1580051600.0	10.92	20.22
26/01/2020 15:13:21	26012020	260120	151321	102.090	12.298800	-56.661675	102.050	0.410	-0.600	0.810	102.080	-2.000	1.200																			1580051601.0	10.92	20.22
26/01/2020 15:13:22	26012020	260120	151322	102.000	12.298792	-56.661625	101.960	0.480	-0.530	0.730	102.000	-2.000	1.100																			1580051602.0	10.89	20.17
26/01/2020 15:13:23	26012020	260120	151323	101.940	12.298783	-56.661575	101.900	0.410	-0.400	0.660	101.920	-1.800	1.100																			1580051603.0	10.75	19.91
26/01/2020 15:13:24	26012020	260120	151324	101.880	12.298775	-56.661525	101.870	0.270	-0.300	0.510	101.880	-1.700	1.000																			1580051604.0	10.76	19.93
26/01/2020 15:13:25	26012020	260120	151325	101.850	12.298767	-56.661473	101.860	0.100	-0.330	0.460	101.850	-1.700	0.800																			1580051605.0	10.89	20.17
26/01/2020 15:13:26	26012020	260120	151326	101.840	12.298757	-56.661423	101.850	-0.040	-0.380	0.640	101.840	-1.800	0.900																			1580051606.0	11.04	20.45
26/01/2020 15:13:27	26012020	260120	151327	101.820	12.298745	-56.661372	101.820	-0.180	-0.250	0.790	101.820	-1.700	1.100																			1580051607.0	11.04	20.45
26/01/2020 15:13:28	26012020	260120	151328	101.780	12.298733	-56.661322	101.770	-0.310	-0.030	0.700	101.780	-1.500	1.100																			1580051608.0	10.87	20.13
26/01/2020 15:13:29	26012020	260120	151329	101.720	12.298723	-56.661272	101.720	-0.390	0.030	0.520	101.720	-1.400	1.000																			1580051609.0	10.79	19.98
26/01/2020 15:13:30	26012020	260120	151330	101.690	12.298715	-56.661220	101.720	-0.350	-0.130	0.350	101.690	-1.400	0.800																			1580051610.0	10.95	20.28
26/01/2020 15:13:31	26012020	260120	151331	101.730	12.298705	-56.661168	101.820	-0.200	-0.360	0.170	101.730	-1.700	0.600																			1580051611.0	10.95	20.28
26/01/2020 15:13:32	26012020	260120	151332	101.840	12.298695	-56.661117	101.900	-0.040	-0.460	0.250	101.840	-1.800	0.600																			1580051612.0	11.23	20.80
26/01/2020 15:13:33	26012020	260120	151333	101.910	12.298683	-56.661067	101.950	0.020	-0.280	0.360	101.920	-1.800	0.700																			1580051613.0	11.02	20.41
26/01/2020 15:13:34	26012020	260120	151334	101.970	12.298673	-56.661017	101.980	0.050	-0.070	0.420	101.970	-1.500	0.800																			1580051614.0	10.73	19.87
26/01/2020 15:13:35	26012020	260120	151335	102.000	12.298663	-56.660967	102.030	0.150	-0.120	0.440	102.000	-1.500	0.800																			1580051615.0	10.73	19.87
26/01/2020 15:13:36	26012020	260120	151336	102.050	12.298653	-56.660915	102.080	0.300	-0.410	0.340	102.050	-1.700	0.800																			1580051616.0	11.05	20.46
26/01/2020 15:13:37	26012020	260120	151337	102.100	12.298645	-56.660863	102.090	0.350	-0.540	0.220	102.100	-1.900	0.600																			1580051617.0	11.27	20.87
26/01/2020 15:13:38	26012020	260120	151338	102.110	12.298637	-56.660812	102.100	0.240	-0.330	0.210	102.110	-1.800	0.600																			1580051618.0	11.05	20.46
26/01/2020 15:13:39	26012020	260120	151339	102.110	12.298627	-56.660762	102.060	0.030	-0.120	0.360	102.110	-1.600	0.700																			1580051619.0	10.72	19.85
26/01/2020 15:13:40	26012020	260120	151340	102.050	12.298617	-56.660712	101.990	-0.210	-0.090	0.600	102.050	-1.500	0.900																			1580051620.0	10.78	19.96
26/01/2020 15:13:41	26012020	260120	151341	101.960	12.298605	-56.660662	101.910	-0.420	-0.110	0.800	101.960	-1.500	1.100																			1580051621.0	10.97	20.32
26/01/2020 15:13:42	26012020	260120	151342	101.880	12.298593	-56.660610	101.840	-0.500	-0.160	0.790	101.880	-1.500	1.200																			1580051622.0	10.94	20.26
26/01/2020 15:13:43	26012020	260120	151343	101.790	12.298582	-56.660560	101.720	-0.350	-0.360	0.660	101.790	-1.700	1.100																			1580051623.0	10.99	20.35
26/01/2020 15:13:44	26012020	260120	151344	101.680	12.298570	-56.660508	101.630	-0.000	-0.610	0.560	101.680	-1.900	1.000																			1580051624.0	11.24	20.82
26/01/2020 15:13:45	26012020	260120	151345	101.620	12.298560	-56.660455	101.680	0.320	-0.530	0.320	101.620	-2.000	0.800																			1580051625.0	11.33	20.98
26/01/2020 15:13:46	26012020	260120	151346	101.710	12.298552	-56.660403	101.790	0.400	-0.150	0.090	101.710	-1.700	0.500																			1580051626.0	10.97	20.32
26/01/2020 15:13:47	26012020	260120	151347	101.830	12.298543	-56.660355	101.930	0.270	0.180	0.040	101.830	-1.300	0.400																			1580051627.0	10.64	19.71
26/01/2020 15:13:48	26012020	260120	151348	102.000	12.298535	-56.660305	102.150	0.110	0.130	0.180	102.000	-1.200	0.500																			1580051628.0	10.66	19.74
26/01/2020 15:13:49	26012020	260120	151349	102.200	12.298525	-56.660253	102.270	0.060	-0.300	0.570	102.200	-1.500	0.800																			1580051629.0	10.99	20.35
26/01/2020 15:13:50	26012020	260120	151350	102.260	12.298513	-56.660202	102.190	0.080	-0.790	0.940	102.260	-2.000	1.200																			1580051630.0	11.40	21.11
26/01/2020 15:13:51	26012020	260120	151351	102.120	12.298500	-56.660148	102.010	0.000	-0.750	1.250	102.120	-2.200	1.500																			1580051631.0	11.43	21.17
26/01/2020 15:13:52	26012020	260120	151352	101.930	12.298488	-56.660098	101.870	-0.260	-0.210	1.280	101.930	-1.800	1.700																			1580051632.0	10.84	20.08
26/01/2020 15:13:53	26012020	260120	151353	101.820	12.298478	-56.660052	101.780	-0.460	0.160	0.990	101.820	-1.300	1.500																			1580051633.0	10.37	19.21
26/01/2020 15:13:54	26012020	260120	151354	101.740	12.298470	-56.660002	101.720	-0.360	-0.000	0.590	101.740	-1.300	1.100																			1580051634.0	10.69	19.80
26/01/2020 15:13:55	26012020	260120	151355	101.720	12.298462	-56.659948	101.740	-0.040	-0.430	0.330	101.720	-1.700	0.800																			1580051635.0	11.32	20.96
26/01/2020 15:13:56	26012020	260120	151356	101.750	12.298450	-56.659895	101.820	0.230	-0.480	0.270	101.750	-1.900	0.700																			1580051636.0	11.32	20.96
26/01/2020 15:13:57	26012020	260120	151357	101.840	12.298442	-56.659843	101.980	0.290	-0.080	0.240	101.840	-1.600	0.600																			1580051637.0	11.03	20.43
26/01/2020 15:13:58	26012020	260120	151358	102.040	12.298432	-56.659795	102.240	0.210	0.200	0.280	102.040	-1.300	0.600																			1580051638.0	10.51	19.46
26/01/2020 15:13:59	26012020	260120	151359	102.250	12.298423	-56.659745	102.460	0.150	-0.000	0.500	102.300	-1.300	0.800	1016.20	26.10	26.20	20.00	20.00	686.00	69.00	68.00	377.00	29.20	346.00	9.30	69.00	4.00	55122	3324.00	27.60	27.60	1580051639.0	10.66	19.74
26/01/2020 15:14:00	26012020	260120	151400	102.480	12.298412	-56.659693	102.520	0.190	-0.460	0.670	102.480	-1.700	1.000																			1580051640.0	11.11	20.58
26/01/2020 15:14:01	26012020	260120	151401	102.470	12.298402	-56.659642	102.420	0.280	-0.770	0.800	102.470	-2.100	1.100																			1580051641.0	11.33	20.98
26/01/2020 15:14:02	26012020	260120	151402	102.340	12.298392	-56.659590	102.310	0.210	-0.730	0.860	102.340	-2.200	1.200																			1580051642.0	11.33	20.98
26/01/2020 15:14:03	26012020	260120	151403	102.260	12.298382	-56.659538	102.240	-0.160	-0.330	0.850	102.260	-1.900	1.200																			1580051643.0	11.21	20.76
26/01/2020 15:14:04	26012020	260120	151404	102.180	12.298372	-56.659490	102.210	-0.640	0.100	0.820	102.180	-1.400	1.200																			1580051644.0	10.51	19.46
26/01/2020 15:14:05	26012020	260120	151405	102.180	12.298360	-56.659442	102.230	-0.810	0.110	0.710	102.180	-1.200	1.100																			1580051645.0	10.51	19.46
26/01/2020 15:14:06	26012020	260120	151406	102.180	12.298348	-56.659392	102.140	-0.480	-0.320	0.590	102.180	-1.500	1.000																			1580051646.0	11.08	20.52
26/01/2020 15:14:07	26012020	260120	151407	102.090	12.298337	-56.659338	102.110	0.070	-0.750	0.350	102.090	-2.000	0.800																			1580051647.0	11.58	21.45
26/01/2020 15:14:08	26012020	260120	151408	102.110	12.298327	-56.659283	102.280	0.480	-0.680	0.090	102.110	-2.200	0.600																			1580051648.0	11.58	21.45
26/01/2020 15:14:09	26012020	260120	151409	102.340	12.298317	-56.659233	102.580	0.500	0.100	-0.180	102.340	-1.600	0.300																			1580051649.0	10.97	20.32
26/01/2020 15:14:10	26012020	260120	151410	102.650	12.298310	-56.659185	102.830	0.210	0.830	-0.330	102.650	-0.800	0.100																			1580051650.0	10.11	18.72
26/01/2020 15:14:11	26012020	260120	151411	102.860	12.298303	-56.659138	102.920	0.030	0.550	-0.140	102.860	-0.600	0.100																			1580051651.0	10.15	18.80
26/01/2020 15:14:12	26012020	260120	151412	102.880	12.298293	-56.659087	102.880	0.190	-0.550	0.220	102.880	-1.500	0.500																			1580051652.0	11.19	20.72
26/01/2020 15:14:13	26012020	260120	151413	102.850	12.298282	-56.659032	102.920	0.380	-1.190	0.430	102.850	-2.500	0.800																			1580051653.0	11.19	20.72
26/01/2020 15:14:14	26012020	260120	151414	102.910	12.298270	-56.658978	102.980	0.230	-0.820	0.490	102.910	-2.400	0.900																			1580051654.0	11.98	22.19
26/01/2020 15:14:15	26012020	260120	151415	102.960	12.298260	-56.658932	102.980	-0.180	-0.130	0.620	102.960	-1.800	0.900																			1580051655.0	10.27	19.02
26/01/2020 15:14:16	26012020	260120	151416	102.920	12.298248	-56.658885	102.870	-0.490	0.140	0.790	102.920	-1.300	1.100																			1580051656.0	10.11	18.72
26/01/2020 15:14:17	26012020	260120	151417	102.790	12.298237	-56.658835	102.740	-0.540	-0.150	0.710	102.790	-1.400	1.100																			1580051657.0	10.70	19.82
26/01/2020 15:14:18	26012020	260120	151418	102.680	12.298225	-56.658783	102.680	-0.360	-0.620	0.520	102.680	-1.900	1.000																			1580051658.0	11.31	20.95
26/01/2020 15:14:19	26012020	260120	151419	102.650	12.298213	-56.658730	102.660	-0.110	-0.820	0.390	102.650	-2.200	0.800																			1580051659.0	11.46	21.22
26/01/2020 15:14:20	26012020	260120	151420	102.630	12.298202	-56.658678	102.590	0.090	-0.590	0.380	102.630	-2.100	0.800																			1580051660.0	11.20	20.74
26/01/2020 15:14:21	26012020	260120	151421	102.540	12.298190	-56.658628	102.480	0.180	-0.170	0.440	102.540	-1.700	0.800																			1580051661.0	10.85	20.09
26/01/2020 15:14:22	26012020	260120	151422	102.440	12.298180	-56.658580	102.470	0.190	0.220	0.450	102.440	-1.300	0.800																			1580051662.0	10.72	19.85
26/01/2020 15:14:23	26012020	260120	151423	102.490	12.298170	-56.658530	102.650	0.170	0.460	0.310	102.490	-1.000	0.700																			1580051663.0	10.72	19.85
26/01/2020 15:14:24	26012020	260120	151424	102.720	12.298162	-56.658480	102.940	0.120	0.460	0.180	102.720	-0.900	0.600																			1580051664.0	10.74	19.89
26/01/2020 15:14:25	26012020	260120	151425	103.000	12.298153	-56.658428	103.140	0.080	0.090	0.230	103.000	-1.100	0.600																			1580051665.0	10.85	20.09
26/01/2020 15:14:26	26012020	260120	151426	103.160	12.298142	-56.658378	103.220	0.120	-0.500	0.470	103.160	-1.700	0.700																			1580051666.0	11.10	20.56
26/01/2020 15:14:27	26012020	260120	151427	103.220	12.298130	-56.658327	103.270	0.250	-0.860	0.670	103.220	-2.200	1.000																			1580051667.0	11.27	20.87
26/01/2020 15:14:28	26012020	260120	151428	103.240	12.298118	-56.658275	103.250	0.280	-0.690	0.640	103.240	-2.200	1.000																			1580051668.0	11.01	20.39
26/01/2020 15:14:29	26012020	260120	151429	103.200	12.298108	-56.658227	103.130	0.140	-0.400	0.580	103.200	-1.900	1.000																			1580051669.0	10.51	19.46
26/01/2020 15:14:30	26012020	260120	151430	103.060	12.298100	-56.658177	102.950	-0.020	-0.420	0.570	103.060	-1.800	0.900																			1580051670.0	10.51	19.46
26/01/2020 15:14:31	26012020	260120	151431	102.880	12.298090	-56.658127	102.760	-0.110	-0.600	0.580	102.880	-1.900	0.900																			1580051671.0	11.03	20.43
26/01/2020 15:14:32	26012020	260120	151432	102.700	12.298078	-56.658075	102.640	-0.210	-0.590	0.610	102.700	-2.000	1.000																			1580051672.0	11.27	20.87
26/01/2020 15:14:33	26012020	260120	151433	102.610	12.298067	-56.658023	102.620	-0.370	-0.310	0.640	102.610	-1.800	1.000																			1580051673.0	11.10	20.56
26/01/2020 15:14:34	26012020	260120	151434	102.600	12.298053	-56.657973	102.610	-0.520	0.060	0.620	102.600	-1.500	1.000																			1580051674.0	10.85	20.09
26/01/2020 15:14:35	26012020	260120	151435	102.610	12.298042	-56.657925	102.620	-0.470	0.270	0.600	102.610	-1.200	1.000																			1580051675.0	10.73	19.87
26/01/2020 15:14:36	26012020	260120	151436	102.610	12.298028	-56.657875	102.620	-0.140	0.150	0.550	102.610	-1.200	1.000																			1580051676.0	10.88	20.15
26/01/2020 15:14:37	26012020	260120	151437	102.620	12.298018	-56.657823	102.690	0.310	-0.120	0.230	102.620	-1.400	0.700																			1580051677.0	11.21	20.76
26/01/2020 15:14:38	26012020	260120	151438	102.730	12.298010	-56.657770	102.770	0.540	-0.190	-0.040	102.730	-1.600	0.400																			1580051678.0	11.26	20.85
26/01/2020 15:14:39	26012020	260120	151439	102.800	12.298002	-56.657718	102.820	0.480	-0.070	-0.030	102.800	-1.500	0.300																			1580051679.0	10.90	20.19
26/01/2020 15:14:40	26012020	260120	151440	102.850	12.297993	-56.657670	102.920	0.360	-0.110	0.110	102.850	-1.500	0.400																			1580051680.0	10.60	19.63
26/01/2020 15:14:41	26012020	260120	151441	102.960	12.297983	-56.657620	103.050	0.330	-0.410	0.360	102.960	-1.700	0.600																			1580051681.0	10.79	19.98
26/01/2020 15:14:42	26012020	260120	151442	103.070	12.297972	-56.657568	103.130	0.290	-0.740	0.590	103.070	-2.000	0.900																			1580051682.0	11.10	20.56
26/01/2020 15:14:43	26012020	260120	151443	103.130	12.297962	-56.657517	103.170	0.090	-0.710	0.760	103.130	-2.200	1.100																			1580051683.0	11.15	20.65
26/01/2020 15:14:44	26012020	260120	151444	103.140	12.297950	-56.657467	103.130	-0.270	-0.320	1.030	103.140	-1.900	1.300																			1580051684.0	11.15	20.65
26/01/2020 15:14:45	26012020	260120	151445	103.070	12.297937	-56.657420	102.940	-0.590	-0.100	1.200	103.070	-1.500	1.500																			1580051685.0	10.43	19.32
26/01/2020 15:14:46	26012020	260120	151446	102.820	12.297923	-56.657370	102.560	-0.580	-0.360	1.230	102.820	-1.600	1.600																			1580051686.0	10.43	19.32
26/01/2020 15:14:47	26012020	260120	151447	102.410	12.297910	-56.657318	102.200	-0.320	-0.630	1.000	102.410	-2.000	1.500																			1580051687.0	11.41	21.13
26/01/2020 15:14:48	26012020	260120	151448	102.140	12.297900	-56.657265	102.160	-0.050	-0.460	0.540	102.140	-2.000	1.100																			1580051688.0	11.41	21.13
26/01/2020 15:14:49	26012020	260120	151449	102.170	12.297892	-56.657215	102.370	0.100	-0.050	0.110	102.210	-1.600	0.600																			1580051689.0	10.92	20.22
26/01/2020 15:14:50	26012020	260120	151450	102.430	12.297882	-56.657165	102.550	0.180	0.190	-0.090	102.430	-1.300	0.300																			1580051690.0	10.92	20.22
26/01/2020 15:14:51	26012020	260120	151451	102.600	12.297873	-56.657115	102.730	0.240	0.250	0.030	102.600	-1.200	0.300																			1580051691.0	10.84	20.08
26/01/2020 15:14:52	26012020	260120	151452	102.790	12.297862	-56.657063	102.920	0.260	0.180	0.230	102.790	-1.200	0.600																			1580051692.0	10.89	20.17
26/01/2020 15:14:53	26012020	260120	151453	102.950	12.297852	-56.657013	102.980	0.290	-0.160	0.260	102.950	-1.400	0.600																			1580051693.0	10.87	20.13
26/01/2020 15:14:54	26012020	260120	151454	102.990	12.297843	-56.656962	102.970	0.360	-0.690	0.290	102.990	-1.900	0.600																			1580051694.0	11.15	20.65
26/01/2020 15:14:55	26012020	260120	151455	102.950	12.297833	-56.656908	102.940	0.290	-0.850	0.430	102.950	-2.300	0.800																			1580051695.0	11.35	21.02
26/01/2020 15:14:56	26012020	260120	151456	102.940	12.297822	-56.656858	102.920	-0.050	-0.430	0.560	102.940	-2.000	0.900																			1580051696.0	11.35	21.02
26/01/2020 15:14:57	26012020	260120	151457	102.900	12.297812	-56.656812	102.810	-0.450	-0.020	0.680	102.900	-1.500	1.000																			1580051697.0	10.91	20.21
26/01/2020 15:14:58	26012020	260120	151458	102.730	12.297798	-56.656763	102.550	-0.570	-0.190	0.780	102.730	-1.500	1.100																			1580051698.0	10.52	19.48
26/01/2020 15:14:59	26012020	260120	151459	102.480	12.297785	-56.656712	102.350	-0.310	-0.620	0.670	102.480	-1.900	1.100	1016.20	26.20	26.20	19.90	20.00	897.00	68.00	68.00	376.00	29.20	352.00	9.60	85.00	4.10	65111	3198.00	27.60	27.60	1580051699.0	10.52	19.48
26/01/2020 15:15:00	26012020	260120	151500	102.310	12.297773	-56.656658	102.270	0.010	-0.610	0.380	102.310	-2.100	0.900																			1580051700.0	11.58	21.45
26/01/2020 15:15:01	26012020	260120	151501	102.280	12.297763	-56.656607	102.320	0.060	-0.010	0.040	102.280	-1.700	0.500																			1580051701.0	11.01	20.39
26/01/2020 15:15:02	26012020	260120	151502	102.370	12.297753	-56.656558	102.440	-0.050	0.520	-0.150	102.370	-1.000	0.300																			1580051702.0	10.32	19.11
26/01/2020 15:15:03	26012020	260120	151503	102.470	12.297745	-56.656510	102.570	0.000	0.370	-0.110	102.500	-0.900	0.200																			1580051703.0	10.40	19.26
26/01/2020 15:15:04	26012020	260120	151504	102.620	12.297735	-56.656460	102.690	0.270	-0.290	0.040	102.620	-1.400	0.400																			1580051704.0	11.09	20.54
26/01/2020 15:15:05	26012020	260120	151505	102.730	12.297725	-56.656407	102.780	0.470	-0.720	0.160	102.730	-2.000	0.500																			1580051705.0	11.52	21.34
26/01/2020 15:15:06	26012020	260120	151506	102.810	12.297713	-56.656355	102.760	0.400	-0.610	0.420	102.810	-2.100	0.700																			1580051706.0	11.52	21.34
26/01/2020 15:15:07	26012020	260120	151507	102.720	12.297703	-56.656305	102.580	0.120	-0.370	0.860	102.720	-1.800	1.100																			1580051707.0	10.55	19.54
26/01/2020 15:15:08	26012020	260120	151508	102.490	12.297693	-56.656257	102.360	-0.170	-0.410	1.160	102.490	-1.800	1.500																			1580051708.0	10.55	19.54
26/01/2020 15:15:09	26012020	260120	151509	102.290	12.297682	-56.656207	102.220	-0.320	-0.660	1.260	102.290	-2.000	1.600																			1580051709.0	10.58	19.59
26/01/2020 15:15:10	26012020	260120	151510	102.160	12.297670	-56.656153	102.050	-0.280	-0.790	1.270	102.160	-2.200	1.700																			1580051710.0	11.00	20.37
26/01/2020 15:15:11	26012020	260120	151511	101.970	12.297657	-56.656102	101.890	-0.230	-0.450	1.100	101.970	-2.000	1.600																			1580051711.0	11.37	21.06
26/01/2020 15:15:12	26012020	260120	151512	101.840	12.297645	-56.656052	101.870	-0.280	0.250	0.750	101.840	-1.400	1.300																			1580051712.0	10.83	20.06
26/01/2020 15:15:13	26012020	260120	151513	101.880	12.297635	-56.656003	102.010	-0.330	0.780	0.350	101.880	-0.800	0.900																			1580051713.0	10.43	19.32
26/01/2020 15:15:14	26012020	260120	151514	102.090	12.297627	-56.655955	102.360	-0.210	0.720	-0.120	102.090	-0.600	0.400																			1580051714.0	10.52	19.48
26/01/2020 15:15:15	26012020	260120	151515	102.510	12.297618	-56.655903	102.870	0.070	0.160	-0.490	102.510	-1.000	-0.000																			1580051715.0	11.00	20.37
26/01/2020 15:15:16	26012020	260120	151516	103.010	12.297610	-56.655850	103.240	0.340	-0.360	-0.460	103.010	-1.600	-0.100																			1580051716.0	11.29	20.91
26/01/2020 15:15:17	26012020	260120	151517	103.300	12.297598	-56.655800	103.310	0.420	-0.530	-0.130	103.300	-1.900	0.100																			1580051717.0	11.00	20.37
26/01/2020 15:15:18	26012020	260120	151518	103.280	12.297588	-56.655752	103.190	0.350	-0.570	0.220	103.280	-2.000	0.500																			1580051718.0	10.53	19.50
26/01/2020 15:15:19	26012020	260120	151519	103.130	12.297578	-56.655702	103.000	0.270	-0.810	0.430	103.130	-2.100	0.700																			1580051719.0	10.53	19.50
26/01/2020 15:15:20	26012020	260120	151520	102.920	12.297568	-56.655652	102.710	0.270	-1.210	0.580	102.920	-2.500	0.900																			1580051720.0	10.95	20.28
26/01/2020 15:15:21	26012020	260120	151521	102.590	12.297558	-56.655600	102.300	0.250	-1.260	0.630	102.590	-2.700	1.000																			1580051721.0	11.35	21.02
26/01/2020 15:15:22	26012020	260120	151522	102.180	12.297547	-56.655547	101.900	0.100	-0.800	0.600	102.180	-2.400	1.000																			1580051722.0	11.20	20.74
26/01/2020 15:15:23	26012020	260120	151523	101.810	12.297537	-56.655497	101.700	-0.230	-0.030	0.560	101.810	-1.700	0.900																			1580051723.0	11.20	20.74
26/01/2020 15:15:24	26012020	260120	151524	101.700	12.297527	-56.655448	101.830	-0.650	0.670	0.510	101.700	-0.900	0.900																			1580051724.0	10.87	20.13
26/01/2020 15:15:25	26012020	260120	151525	101.850	12.297515	-56.655400	102.140	-0.860	0.850	0.400	101.910	-0.500	0.800																			1580051725.0	10.60	19.63
26/01/2020 15:15:26	26012020	260120	151526	102.240	12.297502	-56.655348	102.460	-0.650	0.390	0.240	102.240	-0.800	0.700																			1580051726.0	11.05	20.46
26/01/2020 15:15:27	26012020	260120	151527	102.540	12.297488	-56.655295	102.700	-0.160	-0.140	0.150	102.540	-1.400	0.500																			1580051727.0	11.05	20.46
26/01/2020 15:15:28	26012020	260120	151528	102.770	12.297477	-56.655243	102.920	0.120	-0.050	0.100	102.770	-1.600	0.500																			1580051728.0	11.36	21.04
26/01/2020 15:15:29	26012020	260120	151529	102.980	12.297467	-56.655195	103.110	0.080	0.300	0.030	102.980	-1.200	0.400																			1580051729.0	11.36	21.04
26/01/2020 15:15:30	26012020	260120	151530	103.130	12.297458	-56.655148	103.120	0.120	-0.020	0.080	103.130	-1.200	0.400																			1580051730.0	10.38	19.22
26/01/2020 15:15:31	26012020	260120	151531	103.080	12.297450	-56.655098	102.920	0.480	-1.010	0.280	103.080	-2.000	0.600																			1580051731.0	10.87	20.13
26/01/2020 15:15:32	26012020	260120	151532	102.840	12.297438	-56.655043	102.660	0.770	-1.530	0.520	102.840	-2.900	0.800																			1580051732.0	10.87	20.13
26/01/2020 15:15:33	26012020	260120	151533	102.580	12.297428	-56.654992	102.430	0.660	-1.060	0.780	102.580	-2.700	1.100																			1580051733.0	11.14	20.63
26/01/2020 15:15:34	26012020	260120	151534	102.380	12.297418	-56.654945	102.300	0.290	-0.270	0.850	102.380	-1.900	1.200																			1580051734.0	10.24	18.96
26/01/2020 15:15:35	26012020	260120	151535	102.270	12.297408	-56.654898	102.220	0.020	0.090	0.730	102.270	-1.400	1.100																			1580051735.0	10.24	18.96
26/01/2020 15:15:36	26012020	260120	151536	102.180	12.297398	-56.654848	102.150	-0.090	0.040	0.540	102.180	-1.300	1.000																			1580051736.0	10.18	18.85
26/01/2020 15:15:37	26012020	260120	151537	102.160	12.297388	-56.654795	102.270	-0.230	-0.000	0.300	102.160	-1.400	0.700																			1580051737.0	11.22	20.78
26/01/2020 15:15:38	26012020	260120	151538	102.340	12.297380	-56.654743	102.530	-0.440	0.030	0.330	102.340	-1.400	0.700																			1580051738.0	11.05	20.46
26/01/2020 15:15:39	26012020	260120	151539	102.540	12.297367	-56.654695	102.650	-0.600	-0.060	0.590	102.570	-1.400	0.900																			1580051739.0	11.05	20.46
26/01/2020 15:15:40	26012020	260120	151540	102.620	12.297353	-56.654645	102.540	-0.570	-0.290	0.860	102.620	-1.600	1.100																			1580051740.0	10.83	20.06
26/01/2020 15:15:41	26012020	260120	151541	102.460	12.297340	-56.654593	102.370	-0.420	-0.400	0.930	102.460	-1.800	1.300																			1580051741.0	10.99	20.35
26/01/2020 15:15:42	26012020	260120	151542	102.340	12.297327	-56.654543	102.390	-0.190	-0.270	0.660	102.340	-1.700	1.200																			1580051742.0	11.13	20.61
26/01/2020 15:15:43	26012020	260120	151543	102.420	12.297317	-56.654495	102.520	0.130	-0.160	0.240	102.420	-1.600	0.800																			1580051743.0	10.63	19.69
26/01/2020 15:15:44	26012020	260120	151544	102.560	12.297310	-56.654445	102.580	0.540	-0.270	-0.160	102.560	-1.600	0.400																			1580051744.0	10.72	19.85
26/01/2020 15:15:45	26012020	260120	151545	102.590	12.297302	-56.654393	102.510	0.850	-0.430	-0.310	102.590	-1.800	0.100																			1580051745.0	11.06	20.48
26/01/2020 15:15:46	26012020	260120	151546	102.510	12.297293	-56.654342	102.510	0.800	-0.260	-0.180	102.510	-1.800	0.100																			1580051746.0	11.07	20.50
26/01/2020 15:15:47	26012020	260120	151547	102.560	12.297285	-56.654292	102.660	0.380	0.120	-0.010	102.560	-1.400	0.300																			1580051747.0	11.07	20.50
26/01/2020 15:15:48	26012020	260120	151548	102.720	12.297277	-56.654243	102.820	-0.140	0.230	0.260	102.720	-1.200	0.500																			1580051748.0	10.61	19.65
26/01/2020 15:15:49	26012020	260120	151549	102.840	12.297265	-56.654195	102.820	-0.430	-0.130	0.750	102.840	-1.400	0.900																			1580051749.0	10.31	19.09
26/01/2020 15:15:50	26012020	260120	151550	102.760	12.297252	-56.654145	102.640	-0.400	-0.700	1.100	102.760	-1.900	1.400																			1580051750.0	10.57	19.58
26/01/2020 15:15:51	26012020	260120	151551	102.600	12.297237	-56.654093	102.390	-0.200	-1.050	1.170	102.550	-2.400	1.500																			1580051751.0	11.08	20.52
26/01/2020 15:15:52	26012020	260120	151552	102.300	12.297225	-56.654042	102.160	-0.070	-0.870	1.080	102.300	-2.400	1.500																			1580051752.0	11.18	20.71
26/01/2020 15:15:53	26012020	260120	151553	102.100	12.297215	-56.653992	102.050	-0.110	-0.350	0.750	102.100	-1.900	1.300																			1580051753.0	11.18	20.71
26/01/2020 15:15:54	26012020	260120	151554	102.030	12.297205	-56.653943	102.050	-0.160	0.040	0.390	102.030	-1.500	0.900																			1580051754.0	10.48	19.41
26/01/2020 15:15:55	26012020	260120	151555	102.060	12.297197	-56.653893	102.100	-0.090	0.150	0.170	102.060	-1.300	0.600																			1580051755.0	10.48	19.41
26/01/2020 15:15:56	26012020	260120	151556	102.120	12.297187	-56.653843	102.150	0.040	0.120	0.020	102.120	-1.300	0.400																			1580051756.0	10.95	20.28
26/01/2020 15:15:57	26012020	260120	151557	102.180	12.297177	-56.653792	102.220	0.140	-0.010	0.010	102.180	-1.300	0.400																			1580051757.0	10.95	20.28
26/01/2020 15:15:58	26012020	260120	151558	102.240	12.297167	-56.653740	102.270	0.190	-0.210	0.200	102.240	-1.500	0.500																			1580051758.0	11.04	20.45
26/01/2020 15:15:59	26012020	260120	151559	102.280	12.297157	-56.653688	102.250	0.200	-0.380	0.430	102.280	-1.700	0.700	1016.10	26.20	26.30	19.60	19.70	889.00	67.00	67.00	375.00	29.20	354.00	9.30	88.00	3.80	64808	3245.00	27.60	27.60	1580051759.0	11.03	20.43
26/01/2020 15:16:00	26012020	260120	151600	102.240	12.297147	-56.653638	102.190	0.140	-0.410	0.590	102.240	-1.800	0.900																			1580051760.0	11.03	20.43
26/01/2020 15:16:01	26012020	260120	151601	102.160	12.297137	-56.653588	102.120	0.030	-0.380	0.750	102.160	-1.800	1.100																			1580051761.0	10.94	20.26
26/01/2020 15:16:02	26012020	260120	151602	102.110	12.297125	-56.653538	102.080	-0.050	-0.350	0.810	102.110	-1.800	1.200																			1580051762.0	10.82	20.04
26/01/2020 15:16:03	26012020	260120	151603	102.050	12.297115	-56.653488	101.990	-0.080	-0.310	0.690	102.050	-1.700	1.100																			1580051763.0	10.80	20.00
26/01/2020 15:16:04	26012020	260120	151604	101.950	12.297103	-56.653438	101.860	-0.120	-0.180	0.550	101.950	-1.600	1.000																			1580051764.0	10.85	20.09
26/01/2020 15:16:05	26012020	260120	151605	101.830	12.297093	-56.653388	101.770	-0.190	-0.000	0.430	101.830	-1.400	0.900																			1580051765.0	10.87	20.13
26/01/2020 15:16:06	26012020	260120	151606	101.770	12.297085	-56.653338	101.790	-0.210	0.020	0.220	101.770	-1.400	0.700																			1580051766.0	10.69	19.80
26/01/2020 15:16:07	26012020	260120	151607	101.840	12.297075	-56.653288	101.930	-0.110	-0.190	0.080	101.840	-1.500	0.500																			1580051767.0	10.69	19.80
26/01/2020 15:16:08	26012020	260120	151608	101.980	12.297065	-56.653237	102.030	0.120	-0.510	0.080	101.980	-1.800	0.400																			1580051768.0	11.04	20.45
26/01/2020 15:16:09	26012020	260120	151609	102.050	12.297055	-56.653185	102.030	0.380	-0.620	0.260	102.050	-2.000	0.600																			1580051769.0	11.04	20.45
26/01/2020 15:16:10	26012020	260120	151610	102.030	12.297045	-56.653135	101.970	0.480	-0.490	0.480	102.030	-1.900	0.800																			1580051770.0	10.95	20.28
26/01/2020 15:16:11	26012020	260120	151611	101.960	12.297035	-56.653085	101.900	0.380	-0.350	0.530	101.960	-1.800	0.900																			1580051771.0	10.75	19.91
26/01/2020 15:16:12	26012020	260120	151612	101.880	12.297027	-56.653035	101.800	0.150	-0.340	0.480	101.880	-1.700	0.900																			1580051772.0	10.75	19.91
26/01/2020 15:16:13	26012020	260120	151613	101.780	12.297018	-56.652983	101.730	-0.170	-0.240	0.480	101.780	-1.700	0.900																			1580051773.0	11.02	20.41
26/01/2020 15:16:14	26012020	260120	151614	101.740	12.297008	-56.652932	101.740	-0.480	-0.110	0.540	101.740	-1.500	0.900																			1580051774.0	11.02	20.41
26/01/2020 15:16:15	26012020	260120	151615	101.750	12.296997	-56.652882	101.730	-0.610	-0.120	0.700	101.750	-1.500	1.000																			1580051775.0	10.87	20.13
26/01/2020 15:16:16	26012020	260120	151616	101.730	12.296983	-56.652832	101.770	-0.550	-0.160	0.690	101.730	-1.500	1.100																			1580051776.0	10.87	20.13
26/01/2020 15:16:17	26012020	260120	151617	101.810	12.296972	-56.652782	101.930	-0.410	-0.040	0.450	101.810	-1.500	0.900																			1580051777.0	11.03	20.43
26/01/2020 15:16:18	26012020	260120	151618	101.990	12.296962	-56.652732	102.060	-0.200	-0.020	0.170	101.990	-1.400	0.600																			1580051778.0	10.76	19.93
26/01/2020 15:16:19	26012020	260120	151619	102.090	12.296952	-56.652680	102.090	0.190	-0.320	-0.040	102.090	-1.600	0.400																			1580051779.0	10.88	20.15
26/01/2020 15:16:20	26012020	260120	151620	102.110	12.296943	-56.652628	102.080	0.620	-0.610	-0.070	102.110	-1.900	0.300																			1580051780.0	11.29	20.91
26/01/2020 15:16:21	26012020	260120	151621	102.110	12.296935	-56.652575	102.160	0.750	-0.400	-0.030	102.110	-1.900	0.300																			1580051781.0	11.25	20.84
26/01/2020 15:16:22	26012020	260120	151622	102.220	12.296927	-56.652527	102.320	0.450	0.160	0.100	102.220	-1.400	0.400																			1580051782.0	10.59	19.61
26/01/2020 15:16:23	26012020	260120	151623	102.380	12.296918	-56.652478	102.460	0.020	0.330	0.310	102.380	-1.000	0.600																			1580051783.0	10.17	18.83
26/01/2020 15:16:24	26012020	260120	151624	102.490	12.296908	-56.652430	102.490	-0.130	-0.190	0.640	102.490	-1.300	0.900																			1580051784.0	10.58	19.59
26/01/2020 15:16:25	26012020	260120	151625	102.480	12.296897	-56.652378	102.410	0.020	-0.860	0.940	102.480	-2.000	1.200																			1580051785.0	10.58	19.59
26/01/2020 15:16:26	26012020	260120	151626	102.370	12.296883	-56.652325	102.270	0.090	-1.010	1.040	102.370	-2.400	1.400																			1580051786.0	11.37	21.06
26/01/2020 15:16:27	26012020	260120	151627	102.230	12.296873	-56.652273	102.190	-0.160	-0.550	1.000	102.230	-2.100	1.400																			1580051787.0	10.97	20.32
26/01/2020 15:16:28	26012020	260120	151628	102.190	12.296863	-56.652225	102.250	-0.540	-0.000	0.780	102.190	-1.500	1.300																			1580051788.0	10.38	19.22
26/01/2020 15:16:29	26012020	260120	151629	102.260	12.296853	-56.652177	102.330	-0.650	0.040	0.500	102.270	-1.300	1.000																			1580051789.0	10.38	19.22
26/01/2020 15:16:30	26012020	260120	151630	102.330	12.296842	-56.652127	102.280	-0.410	-0.330	0.340	102.330	-1.600	0.800																			1580051790.0	11.11	20.58
26/01/2020 15:16:31	26012020	260120	151631	102.260	12.296830	-56.652073	102.240	-0.040	-0.510	0.270	102.260	-1.900	0.700																			1580051791.0	11.11	20.58
26/01/2020 15:16:32	26012020	260120	151632	102.250	12.296820	-56.652022	102.310	0.180	-0.300	0.120	102.250	-1.800	0.600																			1580051792.0	11.53	21.35
26/01/2020 15:16:33	26012020	260120	151633	102.340	12.296810	-56.651970	102.370	0.220	0.020	-0.060	102.340	-1.500	0.400																			1580051793.0	11.24	20.82
26/01/2020 15:16:34	26012020	260120	151634	102.390	12.296802	-56.651922	102.400	0.180	0.150	-0.050	102.390	-1.300	0.300																			1580051794.0	10.70	19.82
26/01/2020 15:16:35	26012020	260120	151635	102.430	12.296793	-56.651870	102.520	0.100	0.090	0.170	102.430	-1.200	0.500																			1580051795.0	10.83	20.06
26/01/2020 15:16:36	26012020	260120	151636	102.570	12.296782	-56.651820	102.680	0.040	-0.110	0.400	102.570	-1.400	0.700																			1580051796.0	10.83	20.06
26/01/2020 15:16:37	26012020	260120	151637	102.710	12.296770	-56.651770	102.690	0.050	-0.260	0.530	102.710	-1.600	0.900																			1580051797.0	10.93	20.24
26/01/2020 15:16:38	26012020	260120	151638	102.660	12.296758	-56.651720	102.540	0.050	-0.230	0.570	102.660	-1.600	0.900																			1580051798.0	10.99	20.35
26/01/2020 15:16:39	26012020	260120	151639	102.490	12.296748	-56.651670	102.400	0.020	-0.150	0.530	102.490	-1.500	0.900																			1580051799.0	10.65	19.72
26/01/2020 15:16:40	26012020	260120	151640	102.400	12.296740	-56.651620	102.450	0.090	-0.330	0.270	102.400	-1.600	0.800																			1580051800.0	10.60	19.63
26/01/2020 15:16:41	26012020	260120	151641	102.480	12.296732	-56.651570	102.550	0.320	-0.820	-0.030	102.500	-2.000	0.400																			1580051801.0	11.00	20.37
26/01/2020 15:16:42	26012020	260120	151642	102.570	12.296723	-56.651517	102.470	0.430	-0.980	0.070	102.570	-2.400	0.400																			1580051802.0	11.44	21.19
26/01/2020 15:16:43	26012020	260120	151643	102.470	12.296712	-56.651465	102.310	0.080	-0.410	0.390	102.440	-2.100	0.600																			1580051803.0	11.44	21.19
26/01/2020 15:16:44	26012020	260120	151644	102.280	12.296700	-56.651418	102.230	-0.460	0.230	0.630	102.280	-1.300	0.900																			1580051804.0	10.24	18.96
26/01/2020 15:16:45	26012020	260120	151645	102.230	12.296688	-56.651370	102.210	-0.630	0.110	0.660	102.230	-1.100	1.100																			1580051805.0	10.24	18.96
26/01/2020 15:16:46	26012020	260120	151646	102.210	12.296678	-56.651318	102.170	-0.260	-0.650	0.530	102.210	-1.700	0.900																			1580051806.0	11.25	20.84
26/01/2020 15:16:47	26012020	260120	151647	102.150	12.296667	-56.651263	102.070	0.170	-1.040	0.500	102.150	-2.400	0.900																			1580051807.0	11.25	20.84
26/01/2020 15:16:48	26012020	260120	151648	102.040	12.296655	-56.651210	102.000	0.140	-0.410	0.560	102.040	-2.100	0.900																			1580051808.0	11.48	21.26
26/01/2020 15:16:49	26012020	260120	151649	101.990	12.296645	-56.651163	102.050	-0.300	0.580	0.490	101.990	-1.100	0.900																			1580051809.0	11.48	21.26
26/01/2020 15:16:50	26012020	260120	151650	102.070	12.296635	-56.651117	102.180	-0.560	0.830	0.330	102.070	-0.500	0.800																			1580051810.0	10.30	19.08
26/01/2020 15:16:51	26012020	260120	151651	102.220	12.296625	-56.651067	102.350	-0.320	0.220	0.130	102.220	-0.900	0.600																			1580051811.0	9.95	18.43
26/01/2020 15:16:52	26012020	260120	151652	102.420	12.296615	-56.651013	102.570	0.180	-0.450	-0.020	102.420	-1.600	0.400																			1580051812.0	10.78	19.96
26/01/2020 15:16:53	26012020	260120	151653	102.630	12.296605	-56.650960	102.710	0.530	-0.520	0.060	102.630	-1.900	0.400																			1580051813.0	11.40	21.11
26/01/2020 15:16:54	26012020	260120	151654	102.740	12.296595	-56.650912	102.750	0.530	-0.200	0.090	102.740	-1.700	0.500																			1580051814.0	11.40	21.11
26/01/2020 15:16:55	26012020	260120	151655	102.770	12.296587	-56.650863	102.790	0.370	-0.090	0.080	102.770	-1.500	0.500																			1580051815.0	10.25	18.98
26/01/2020 15:16:56	26012020	260120	151656	102.850	12.296578	-56.650813	102.970	0.230	-0.250	0.150	102.850	-1.600	0.500																			1580051816.0	10.52	19.48
26/01/2020 15:16:57	26012020	260120	151657	103.040	12.296568	-56.650763	103.110	0.120	-0.490	0.280	103.040	-1.800	0.600																			1580051817.0	10.52	19.48
26/01/2020 15:16:58	26012020	260120	151658	103.110	12.296557	-56.650713	102.950	0.020	-0.750	0.500	103.110	-2.000	0.800																			1580051818.0	10.86	20.11
26/01/2020 15:16:59	26012020	260120	151659	102.830	12.296545	-56.650663	102.520	-0.020	-0.980	0.830	102.830	-2.300	1.100	1016.10	26.20	26.30	19.60	19.70	903.00	67.00	67.00	375.00	29.30	355.00	8.90	88.00	3.30	65535	3139.00	27.60	27.60	1580051819.0	11.01	20.39
26/01/2020 15:17:00	26012020	260120	151700	102.420	12.296533	-56.650612	102.270	-0.000	-0.970	0.950	102.420	-2.400	1.300																			1580051820.0	11.17	20.69
26/01/2020 15:17:01	26012020	260120	151701	102.230	12.296522	-56.650560	102.230	-0.030	-0.600	0.660	102.230	-2.200	1.200																			1580051821.0	11.07	20.50
26/01/2020 15:17:02	26012020	260120	151702	102.230	12.296513	-56.650510	102.210	-0.170	-0.070	0.350	102.230	-1.700	0.800																			1580051822.0	10.85	20.09
26/01/2020 15:17:03	26012020	260120	151703	102.210	12.296503	-56.650460	102.150	-0.390	0.360	0.300	102.210	-1.100	0.700																			1580051823.0	10.85	20.09
26/01/2020 15:17:04	26012020	260120	151704	102.150	12.296492	-56.650410	102.170	-0.550	0.460	0.390	102.150	-0.900	0.700																			1580051824.0	10.75	19.91
26/01/2020 15:17:05	26012020	260120	151705	102.180	12.296480	-56.650360	102.380	-0.550	0.290	0.450	102.220	-1.000	0.800																			1580051825.0	11.09	20.54
26/01/2020 15:17:06	26012020	260120	151706	102.480	12.296468	-56.650308	102.710	-0.400	0.110	0.320	102.480	-1.200	0.800																			1580051826.0	11.09	20.54
26/01/2020 15:17:07	26012020	260120	151707	102.760	12.296457	-56.650257	103.030	-0.110	0.070	0.120	102.820	-1.300	0.600																			1580051827.0	11.18	20.71
26/01/2020 15:17:08	26012020	260120	151708	103.140	12.296447	-56.650208	103.290	0.220	-0.010	-0.160	103.140	-1.400	0.300																			1580051828.0	10.69	19.80
26/01/2020 15:17:09	26012020	260120	151709	103.380	12.296438	-56.650158	103.430	0.520	-0.250	-0.420	103.380	-1.500	0.000																			1580051829.0	10.67	19.76
26/01/2020 15:17:10	26012020	260120	151710	103.480	12.296430	-56.650108	103.460	0.750	-0.580	-0.500	103.480	-1.800	-0.100																			1580051830.0	10.80	20.00
26/01/2020 15:17:11	26012020	260120	151711	103.490	12.296422	-56.650057	103.390	0.880	-0.900	-0.460	103.490	-2.200	-0.100																			1580051831.0	10.91	20.21
26/01/2020 15:17:12	26012020	260120	151712	103.380	12.296413	-56.650005	103.180	0.840	-1.070	-0.090	103.380	-2.400	0.100																			1580051832.0	11.03	20.43
26/01/2020 15:17:13	26012020	260120	151713	103.120	12.296402	-56.649955	102.920	0.490	-0.850	0.400	103.120	-2.400	0.600																			1580051833.0	11.03	20.43
26/01/2020 15:17:14	26012020	260120	151714	102.870	12.296392	-56.649905	102.760	-0.150	-0.270	0.770	102.870	-1.900	1.000																			1580051834.0	10.73	19.87
26/01/2020 15:17:15	26012020	260120	151715	102.740	12.296380	-56.649857	102.720	-0.790	0.180	0.940	102.740	-1.300	1.300																			1580051835.0	10.43	19.32
26/01/2020 15:17:16	26012020	260120	151716	102.710	12.296367	-56.649808	102.690	-1.030	0.030	0.900	102.710	-1.200	1.300																			1580051836.0	10.70	19.82
26/01/2020 15:17:17	26012020	260120	151717	102.670	12.296352	-56.649757	102.650	-0.820	-0.410	0.780	102.670	-1.700	1.200																			1580051837.0	10.70	19.82
26/01/2020 15:17:18	26012020	260120	151718	102.650	12.296338	-56.649703	102.670	-0.440	-0.430	0.640	102.650	-1.900	1.100																			1580051838.0	11.70	21.67
26/01/2020 15:17:19	26012020	260120	151719	102.680	12.296325	-56.649652	102.730	-0.190	0.080	0.360	102.690	-1.500	0.900																			1580051839.0	11.70	21.67
26/01/2020 15:17:20	26012020	260120	151720	102.770	12.296315	-56.649603	102.850	-0.050	0.510	-0.080	102.770	-1.000	0.500																			1580051840.0	10.45	19.35
26/01/2020 15:17:21	26012020	260120	151721	102.940	12.296307	-56.649555	103.120	0.170	0.340	-0.500	102.940	-0.900	0.000																			1580051841.0	10.45	19.35
26/01/2020 15:17:22	26012020	260120	151722	103.260	12.296298	-56.649503	103.430	0.460	-0.190	-0.720	103.260	-1.400	-0.300																			1580051842.0	11.11	20.58
26/01/2020 15:17:23	26012020	260120	151723	103.520	12.296290	-56.649450	103.530	0.650	-0.500	-0.600	103.520	-1.800	-0.300																			1580051843.0	11.11	20.58
26/01/2020 15:17:24	26012020	260120	151724	103.550	12.296280	-56.649400	103.430	0.630	-0.490	-0.140	103.550	-1.900	0.000																			1580051844.0	11.28	20.89
26/01/2020 15:17:25	26012020	260120	151725	103.390	12.296268	-56.649352	103.200	0.470	-0.510	0.430	103.390	-1.900	0.600																			1580051845.0	10.55	19.54
26/01/2020 15:17:26	26012020	260120	151726	103.130	12.296257	-56.649302	102.960	0.260	-0.690	0.790	103.130	-2.000	1.100																			1580051846.0	10.75	19.91
26/01/2020 15:17:27	26012020	260120	151727	102.920	12.296247	-56.649250	102.850	-0.030	-0.690	0.890	102.920	-2.100	1.200																			1580051847.0	10.75	19.91
26/01/2020 15:17:28	26012020	260120	151728	102.820	12.296235	-56.649200	102.760	-0.380	-0.320	0.990	102.820	-1.900	1.300																			1580051848.0	11.07	20.50
26/01/2020 15:17:29	26012020	260120	151729	102.730	12.296222	-56.649153	102.660	-0.600	-0.010	0.950	102.730	-1.500	1.400																			1580051849.0	10.57	19.58
26/01/2020 15:17:30	26012020	260120	151730	102.630	12.296208	-56.649103	102.580	-0.520	-0.010	0.770	102.630	-1.400	1.200																			1580051850.0	10.57	19.58
26/01/2020 15:17:31	26012020	260120	151731	102.590	12.296197	-56.649052	102.620	-0.230	-0.150	0.410	102.580	-1.500	0.900																			1580051851.0	10.77	19.95
26/01/2020 15:17:32	26012020	260120	151732	102.680	12.296185	-56.649000	102.790	0.080	-0.240	-0.060	102.680	-1.600	0.500																			1580051852.0	11.19	20.72
26/01/2020 15:17:33	26012020	260120	151733	102.840	12.296177	-56.648948	102.940	0.270	-0.200	-0.290	102.880	-1.600	0.100																			1580051853.0	11.19	20.72
26/01/2020 15:17:34	26012020	260120	151734	103.020	12.296168	-56.648898	103.070	0.280	-0.120	-0.210	103.020	-1.500	0.100																			1580051854.0	11.08	20.52
26/01/2020 15:17:35	26012020	260120	151735	103.140	12.296158	-56.648848	103.160	0.180	-0.150	0.070	103.140	-1.500	0.300																			1580051855.0	10.75	19.91
26/01/2020 15:17:36	26012020	260120	151736	103.180	12.296147	-56.648798	103.090	0.110	-0.340	0.340	103.180	-1.600	0.600																			1580051856.0	10.75	19.91
26/01/2020 15:17:37	26012020	260120	151737	103.060	12.296135	-56.648747	102.880	0.090	-0.510	0.570	103.060	-1.900	0.900																			1580051857.0	10.87	20.13
26/01/2020 15:17:38	26012020	260120	151738	102.840	12.296123	-56.648697	102.750	0.010	-0.400	0.620	102.840	-1.900	1.000																			1580051858.0	11.07	20.50
26/01/2020 15:17:39	26012020	260120	151739	102.750	12.296112	-56.648647	102.710	-0.100	-0.150	0.480	102.750	-1.600	0.900																			1580051859.0	10.73	19.87
26/01/2020 15:17:40	26012020	260120	151740	102.720	12.296102	-56.648598	102.630	-0.080	-0.160	0.300	102.720	-1.500	0.700																			1580051860.0	10.65	19.72
26/01/2020 15:17:41	26012020	260120	151741	102.620	12.296092	-56.648547	102.530	0.040	-0.340	0.220	102.620	-1.700	0.600																			1580051861.0	10.65	19.72
26/01/2020 15:17:42	26012020	260120	151742	102.540	12.296080	-56.648495	102.520	0.000	-0.200	0.240	102.540	-1.700	0.600																			1580051862.0	11.21	20.76
26/01/2020 15:17:43	26012020	260120	151743	102.550	12.296070	-56.648445	102.590	-0.210	0.140	0.320	102.550	-1.400	0.700																			1580051863.0	10.72	19.85
26/01/2020 15:17:44	26012020	260120	151744	102.620	12.296058	-56.648397	102.620	-0.280	0.070	0.500	102.620	-1.200	0.800																			1580051864.0	10.44	19.33
26/01/2020 15:17:45	26012020	260120	151745	102.610	12.296047	-56.648347	102.540	-0.000	-0.510	0.720	102.610	-1.700	1.000																			1580051865.0	10.99	20.35
26/01/2020 15:17:46	26012020	260120	151746	102.520	12.296033	-56.648293	102.460	0.330	-0.790	0.750	102.520	-2.200	1.100																			1580051866.0	10.99	20.35
26/01/2020 15:17:47	26012020	260120	151747	102.450	12.296022	-56.648243	102.390	0.400	-0.430	0.530	102.450	-2.000	1.000																			1580051867.0	11.54	21.37
26/01/2020 15:17:48	26012020	260120	151748	102.390	12.296013	-56.648195	102.320	0.260	0.040	0.320	102.390	-1.500	0.800																			1580051868.0	11.11	20.58
26/01/2020 15:17:49	26012020	260120	151749	102.340	12.296005	-56.648145	102.240	0.160	0.010	0.150	102.340	-1.300	0.600																			1580051869.0	10.39	19.24
26/01/2020 15:17:50	26012020	260120	151750	102.230	12.295997	-56.648095	102.080	0.170	-0.390	0.120	102.230	-1.600	0.500																			1580051870.0	10.39	19.24
26/01/2020 15:17:51	26012020	260120	151751	102.060	12.295988	-56.648042	101.970	0.110	-0.600	0.360	102.060	-1.900	0.600																			1580051871.0	11.02	20.41
26/01/2020 15:17:52	26012020	260120	151752	101.990	12.295977	-56.647990	101.980	-0.120	-0.490	0.740	101.990	-1.900	1.000																			1580051872.0	11.38	21.08
26/01/2020 15:17:53	26012020	260120	151753	102.010	12.295965	-56.647940	102.010	-0.440	-0.310	1.020	102.010	-1.800	1.300																			1580051873.0	10.85	20.09
26/01/2020 15:17:54	26012020	260120	151754	102.000	12.295952	-56.647890	101.950	-0.660	-0.150	1.180	102.000	-1.600	1.500																			1580051874.0	10.84	20.08
26/01/2020 15:17:55	26012020	260120	151755	101.910	12.295938	-56.647842	101.810	-0.640	-0.020	1.130	101.910	-1.400	1.500																			1580051875.0	10.84	20.08
26/01/2020 15:17:56	26012020	260120	151756	101.770	12.295925	-56.647792	101.670	-0.370	-0.010	0.820	101.770	-1.400	1.300																			1580051876.0	10.90	20.19
26/01/2020 15:17:57	26012020	260120	151757	101.660	12.295915	-56.647740	101.670	0.080	-0.200	0.330	101.660	-1.500	0.900																			1580051877.0	10.90	20.19
26/01/2020 15:17:58	26012020	260120	151758	101.730	12.295908	-56.647687	101.840	0.490	-0.290	-0.140	101.730	-1.700	0.400																			1580051878.0	11.05	20.46
26/01/2020 15:17:59	26012020	260120	151759	101.940	12.295900	-56.647635	102.050	0.630	-0.050	-0.350	101.940	-1.600	0.100	1016.10	26.20	26.30	19.90	19.90	895.00	68.00	68.00	376.00	29.30	356.00	8.30	90.00	2.70	65083	3174.00	27.60	27.50	1580051879.0	11.03	20.43
26/01/2020 15:18:00	26012020	260120	151800	102.140	12.295893	-56.647587	102.130	0.500	0.190	-0.250	102.140	-1.200	0.100																			1580051880.0	11.03	20.43
26/01/2020 15:18:01	26012020	260120	151801	102.170	12.295885	-56.647538	102.110	0.330	0.030	-0.020	102.170	-1.200	0.300																			1580051881.0	10.48	19.41
26/01/2020 15:18:02	26012020	260120	151802	102.150	12.295875	-56.647487	102.150	0.240	-0.440	0.200	102.150	-1.600	0.500																			1580051882.0	10.48	19.41
26/01/2020 15:18:03	26012020	260120	151803	102.200	12.295865	-56.647435	102.200	0.130	-0.760	0.360	102.200	-2.100	0.700																			1580051883.0	11.18	20.71
26/01/2020 15:18:04	26012020	260120	151804	102.220	12.295855	-56.647385	102.110	-0.060	-0.760	0.610	102.220	-2.200	0.900																			1580051884.0	11.18	20.71
26/01/2020 15:18:05	26012020	260120	151805	102.070	12.295845	-56.647335	101.880	-0.240	-0.680	0.840	102.070	-2.100	1.100																			1580051885.0	10.76	19.93
26/01/2020 15:18:06	26012020	260120	151806	101.840	12.295833	-56.647285	101.700	-0.330	-0.720	0.980	101.840	-2.100	1.300																			1580051886.0	10.91	20.21
26/01/2020 15:18:07	26012020	260120	151807	101.680	12.295820	-56.647233	101.620	-0.380	-0.670	0.880	101.680	-2.100	1.300																			1580051887.0	10.91	20.21
26/01/2020 15:18:08	26012020	260120	151808	101.620	12.295808	-56.647182	101.590	-0.460	-0.280	0.640	101.620	-1.900	1.100																			1580051888.0	11.25	20.84
26/01/2020 15:18:09	26012020	260120	151809	101.590	12.295797	-56.647132	101.500	-0.520	0.310	0.480	101.580	-1.300	0.900																			1580051889.0	11.21	20.76
26/01/2020 15:18:10	26012020	260120	151810	101.490	12.295787	-56.647082	101.490	-0.440	0.610	0.260	101.490	-0.800	0.700																			1580051890.0	10.87	20.13
26/01/2020 15:18:11	26012020	260120	151811	101.550	12.295777	-56.647032	101.740	-0.130	0.400	-0.090	101.550	-0.900	0.400																			1580051891.0	10.89	20.17
26/01/2020 15:18:12	26012020	260120	151812	101.880	12.295770	-56.646978	102.180	0.300	0.040	-0.410	101.880	-1.200	0.100																			1580051892.0	11.27	20.87
26/01/2020 15:18:13	26012020	260120	151813	102.330	12.295762	-56.646927	102.530	0.610	-0.150	-0.490	102.330	-1.500	-0.100																			1580051893.0	11.22	20.78
26/01/2020 15:18:14	26012020	260120	151814	102.610	12.295753	-56.646875	102.620	0.610	-0.180	-0.230	102.610	-1.600	0.000																			1580051894.0	10.85	20.09
26/01/2020 15:18:15	26012020	260120	151815	102.620	12.295743	-56.646827	102.530	0.370	-0.290	0.220	102.620	-1.600	0.400																			1580051895.0	10.60	19.63
26/01/2020 15:18:16	26012020	260120	151816	102.510	12.295733	-56.646777	102.450	0.100	-0.510	0.580	102.510	-1.800	0.800																			1580051896.0	10.67	19.76
26/01/2020 15:18:17	26012020	260120	151817	102.430	12.295723	-56.646727	102.380	-0.080	-0.730	0.700	102.430	-2.000	1.000																			1580051897.0	10.83	20.06
26/01/2020 15:18:18	26012020	260120	151818	102.330	12.295713	-56.646677	102.160	-0.090	-1.030	0.810	102.330	-2.300	1.100																			1580051898.0	10.83	20.06
26/01/2020 15:18:19	26012020	260120	151819	102.120	12.295702	-56.646623	101.820	0.020	-1.190	0.940	102.050	-2.600	1.300																			1580051899.0	11.26	20.85
26/01/2020 15:18:20	26012020	260120	151820	101.730	12.295688	-56.646572	101.640	0.030	-0.780	0.860	101.730	-2.400	1.300																			1580051900.0	11.26	20.85
26/01/2020 15:18:21	26012020	260120	151821	101.620	12.295678	-56.646522	101.680	-0.150	0.040	0.610	101.620	-1.600	1.100																			1580051901.0	10.83	20.06
26/01/2020 15:18:22	26012020	260120	151822	101.710	12.295668	-56.646473	101.770	-0.400	0.610	0.290	101.710	-0.900	0.800																			1580051902.0	10.83	20.06
26/01/2020 15:18:23	26012020	260120	151823	101.780	12.295658	-56.646423	101.810	-0.450	0.590	0.170	101.800	-0.700	0.600																			1580051903.0	10.44	19.33
26/01/2020 15:18:24	26012020	260120	151824	101.810	12.295648	-56.646372	101.830	-0.290	0.200	0.140	101.810	-1.000	0.500																			1580051904.0	11.24	20.82
26/01/2020 15:18:25	26012020	260120	151825	101.850	12.295640	-56.646318	101.990	-0.050	-0.200	0.030	101.850	-1.500	0.400																			1580051905.0	11.24	20.82
26/01/2020 15:18:26	26012020	260120	151826	102.070	12.295630	-56.646267	102.290	0.090	-0.300	0.040	102.070	-1.700	0.400																			1580051906.0	11.44	21.19
26/01/2020 15:18:27	26012020	260120	151827	102.380	12.295620	-56.646217	102.510	0.050	-0.170	0.270	102.380	-1.600	0.500																			1580051907.0	11.27	20.87
26/01/2020 15:18:28	26012020	260120	151828	102.530	12.295608	-56.646168	102.480	0.020	-0.260	0.580	102.530	-1.600	0.800																			1580051908.0	10.80	20.00
26/01/2020 15:18:29	26012020	260120	151829	102.420	12.295597	-56.646118	102.230	0.210	-0.670	0.780	102.420	-1.900	1.100																			1580051909.0	10.52	19.48
26/01/2020 15:18:30	26012020	260120	151830	102.150	12.295587	-56.646065	102.040	0.490	-0.920	0.690	102.150	-2.300	1.100																			1580051910.0	11.29	20.91
26/01/2020 15:18:31	26012020	260120	151831	102.010	12.295578	-56.646013	102.010	0.500	-0.700	0.420	102.010	-2.200	0.900																			1580051911.0	11.22	20.78
26/01/2020 15:18:32	26012020	260120	151832	102.000	12.295570	-56.645963	102.010	0.130	-0.140	0.330	102.000	-1.700	0.700																			1580051912.0	10.75	19.91
26/01/2020 15:18:33	26012020	260120	151833	101.990	12.295562	-56.645915	101.980	-0.330	0.270	0.500	101.990	-1.200	0.800																			1580051913.0	10.75	19.91
26/01/2020 15:18:34	26012020	260120	151834	101.950	12.295550	-56.645867	101.940	-0.480	0.140	0.610	101.950	-1.100	1.000																			1580051914.0	10.40	19.26
26/01/2020 15:18:35	26012020	260120	151835	101.930	12.295538	-56.645815	101.960	-0.220	-0.360	0.520	101.930	-1.600	0.900																			1580051915.0	11.23	20.80
26/01/2020 15:18:36	26012020	260120	151836	101.960	12.295527	-56.645760	102.000	0.050	-0.520	0.340	101.960	-1.900	0.800																			1580051916.0	11.62	21.52
26/01/2020 15:18:37	26012020	260120	151837	102.010	12.295517	-56.645708	102.070	0.020	-0.110	0.180	102.010	-1.700	0.600																			1580051917.0	11.62	21.52
26/01/2020 15:18:38	26012020	260120	151838	102.110	12.295508	-56.645660	102.230	-0.180	0.300	0.080	102.110	-1.200	0.500																			1580051918.0	10.37	19.21
26/01/2020 15:18:39	26012020	260120	151839	102.280	12.295500	-56.645612	102.380	-0.170	0.030	0.000	102.280	-1.200	0.400																			1580051919.0	10.40	19.26
26/01/2020 15:18:40	26012020	260120	151840	102.400	12.295490	-56.645560	102.380	0.200	-0.750	0.050	102.400	-1.800	0.400																			1580051920.0	10.40	19.26
26/01/2020 15:18:41	26012020	260120	151841	102.340	12.295480	-56.645505	102.230	0.550	-1.110	0.310	102.340	-2.500	0.600																			1580051921.0	11.78	21.82
26/01/2020 15:18:42	26012020	260120	151842	102.180	12.295468	-56.645453	102.130	0.450	-0.570	0.560	102.180	-2.200	0.900																			1580051922.0	11.26	20.85
26/01/2020 15:18:43	26012020	260120	151843	102.120	12.295458	-56.645407	102.200	-0.030	0.210	0.590	102.120	-1.400	1.000																			1580051923.0	11.26	20.85
26/01/2020 15:18:44	26012020	260120	151844	102.230	12.295448	-56.645358	102.310	-0.480	0.390	0.510	102.230	-1.000	0.900																			1580051924.0	10.12	18.74
26/01/2020 15:18:45	26012020	260120	151845	102.310	12.295438	-56.645308	102.260	-0.530	-0.170	0.510	102.310	-1.300	0.900																			1580051925.0	10.12	18.74
26/01/2020 15:18:46	26012020	260120	151846	102.210	12.295427	-56.645255	102.090	-0.180	-0.870	0.590	102.210	-2.000	0.900																			1580051926.0	10.81	20.02
26/01/2020 15:18:47	26012020	260120	151847	102.070	12.295415	-56.645202	101.970	0.130	-0.790	0.650	102.040	-2.300	1.000																			1580051927.0	11.63	21.54
26/01/2020 15:18:48	26012020	260120	151848	101.950	12.295403	-56.645152	101.980	0.090	-0.030	0.540	101.950	-1.700	1.000																			1580051928.0	11.75	21.76
26/01/2020 15:18:49	26012020	260120	151849	102.000	12.295395	-56.645103	102.080	-0.110	0.460	0.310	102.000	-1.000	0.800																			1580051929.0	10.15	18.80
26/01/2020 15:18:50	26012020	260120	151850	102.120	12.295387	-56.645055	102.260	-0.160	0.340	0.070	102.120	-0.900	0.500																			1580051930.0	10.53	19.50
26/01/2020 15:18:51	26012020	260120	151851	102.330	12.295377	-56.645003	102.530	-0.040	-0.060	-0.120	102.330	-1.300	0.300																			1580051931.0	10.53	19.50
26/01/2020 15:18:52	26012020	260120	151852	102.590	12.295368	-56.644952	102.690	0.210	-0.450	-0.070	102.590	-1.700	0.300																			1580051932.0	11.22	20.78
26/01/2020 15:18:53	26012020	260120	151853	102.700	12.295357	-56.644900	102.700	0.400	-0.560	0.100	102.700	-1.900	0.400																			1580051933.0	11.22	20.78
26/01/2020 15:18:54	26012020	260120	151854	102.680	12.295347	-56.644850	102.620	0.370	-0.390	0.300	102.680	-1.800	0.600																			1580051934.0	11.15	20.65
26/01/2020 15:18:55	26012020	260120	151855	102.580	12.295337	-56.644802	102.530	0.190	-0.320	0.410	102.580	-1.700	0.800																			1580051935.0	10.78	19.96
26/01/2020 15:18:56	26012020	260120	151856	102.500	12.295328	-56.644752	102.470	0.050	-0.480	0.370	102.500	-1.800	0.800																			1580051936.0	10.73	19.87
26/01/2020 15:18:57	26012020	260120	151857	102.470	12.295318	-56.644700	102.410	0.000	-0.660	0.340	102.460	-2.000	0.700																			1580051937.0	10.73	19.87
26/01/2020 15:18:58	26012020	260120	151858	102.380	12.295308	-56.644648	102.270	-0.050	-0.670	0.330	102.380	-2.100	0.700																			1580051938.0	11.09	20.54
26/01/2020 15:18:59	26012020	260120	151859	102.250	12.295297	-56.644597	102.100	-0.150	-0.490	0.410	102.220	-2.000	0.700	1016.10	26.20	26.20	19.90	19.90	896.00	68.00	68.00	376.00	29.30	352.00	8.60	81.00	3.10	65110	3322.00	27.60	27.50	1580051939.0	11.17	20.69
26/01/2020 15:19:00	26012020	260120	151900	102.060	12.295285	-56.644547	102.000	-0.280	-0.190	0.520	102.060	-1.700	0.900																			1580051940.0	11.07	20.50
26/01/2020 15:19:01	26012020	260120	151901	101.970	12.295273	-56.644497	101.940	-0.360	0.000	0.450	101.970	-1.400	0.900																			1580051941.0	10.88	20.15
26/01/2020 15:19:02	26012020	260120	151902	101.930	12.295263	-56.644445	101.970	-0.370	0.040	0.280	101.930	-1.400	0.700																			1580051942.0	11.08	20.52
26/01/2020 15:19:03	26012020	260120	151903	102.010	12.295253	-56.644393	102.180	-0.390	0.230	0.180	102.010	-1.200	0.600																			1580051943.0	11.08	20.52
26/01/2020 15:19:04	26012020	260120	151904	102.240	12.295242	-56.644343	102.420	-0.390	0.450	0.130	102.240	-1.000	0.500																			1580051944.0	10.77	19.95
26/01/2020 15:19:05	26012020	260120	151905	102.480	12.295230	-56.644295	102.590	-0.210	0.280	-0.010	102.480	-1.000	0.400																			1580051945.0	10.63	19.69
26/01/2020 15:19:06	26012020	260120	151906	102.620	12.295220	-56.644243	102.680	0.240	-0.270	-0.170	102.620	-1.400	0.200																			1580051946.0	10.63	19.69
26/01/2020 15:19:07	26012020	260120	151907	102.700	12.295212	-56.644192	102.770	0.780	-0.760	-0.170	102.700	-2.000	0.200																			1580051947.0	10.98	20.33
26/01/2020 15:19:08	26012020	260120	151908	102.820	12.295202	-56.644138	102.910	1.000	-0.730	-0.070	102.820	-2.200	0.300																			1580051948.0	11.32	20.96
26/01/2020 15:19:09	26012020	260120	151909	102.940	12.295193	-56.644090	102.950	0.750	-0.390	0.100	102.940	-1.900	0.400																			1580051949.0	10.60	19.63
26/01/2020 15:19:10	26012020	260120	151910	102.930	12.295187	-56.644042	102.840	0.250	-0.280	0.450	102.930	-1.700	0.700																			1580051950.0	10.37	19.21
26/01/2020 15:19:11	26012020	260120	151911	102.820	12.295175	-56.643992	102.730	-0.140	-0.520	0.930	102.790	-1.800	1.100																			1580051951.0	10.37	19.21
26/01/2020 15:19:12	26012020	260120	151912	102.680	12.295162	-56.643940	102.600	-0.290	-0.840	1.240	102.680	-2.100	1.500																			1580051952.0	10.72	19.85
26/01/2020 15:19:13	26012020	260120	151913	102.510	12.295148	-56.643888	102.340	-0.340	-0.890	1.300	102.510	-2.300	1.700																			1580051953.0	11.20	20.74
26/01/2020 15:19:14	26012020	260120	151914	102.230	12.295135	-56.643837	102.060	-0.460	-0.460	1.220	102.230	-2.000	1.600																			1580051954.0	11.44	21.19
26/01/2020 15:19:15	26012020	260120	151915	101.970	12.295123	-56.643787	101.930	-0.620	0.160	1.000	101.970	-1.400	1.500																			1580051955.0	11.24	20.82
26/01/2020 15:19:16	26012020	260120	151916	101.930	12.295113	-56.643738	102.110	-0.610	0.460	0.510	101.930	-1.000	1.100																			1580051956.0	10.65	19.72
26/01/2020 15:19:17	26012020	260120	151917	102.180	12.295103	-56.643687	102.400	-0.370	0.330	-0.020	102.180	-1.000	0.500																			1580051957.0	10.65	19.72
26/01/2020 15:19:18	26012020	260120	151918	102.460	12.295095	-56.643633	102.630	-0.050	0.130	-0.280	102.460	-1.200	0.200																			1580051958.0	10.98	20.33
26/01/2020 15:19:19	26012020	260120	151919	102.700	12.295085	-56.643582	102.870	0.190	0.100	-0.270	102.700	-1.300	0.100																			1580051959.0	11.31	20.95
26/01/2020 15:19:20	26012020	260120	151920	102.940	12.295075	-56.643533	103.120	0.380	-0.050	-0.240	102.940	-1.300	0.100																			1580051960.0	10.74	19.89
26/01/2020 15:19:21	26012020	260120	151921	103.180	12.295067	-56.643482	103.320	0.610	-0.490	-0.240	103.180	-1.700	0.100																			1580051961.0	10.74	19.89
26/01/2020 15:19:22	26012020	260120	151922	103.350	12.295057	-56.643430	103.400	0.690	-0.720	-0.060	103.350	-2.100	0.200																			1580051962.0	10.88	20.15
26/01/2020 15:19:23	26012020	260120	151923	103.400	12.295048	-56.643380	103.320	0.460	-0.550	0.240	103.400	-2.000	0.500																			1580051963.0	11.17	20.69
26/01/2020 15:19:24	26012020	260120	151924	103.260	12.295037	-56.643332	103.080	0.040	-0.360	0.510	103.260	-1.800	0.800																			1580051964.0	10.47	19.39
26/01/2020 15:19:25	26012020	260120	151925	102.980	12.295027	-56.643282	102.780	-0.310	-0.500	0.680	102.980	-1.800	1.000																			1580051965.0	10.47	19.39
26/01/2020 15:19:26	26012020	260120	151926	102.670	12.295015	-56.643232	102.540	-0.420	-0.740	0.770	102.670	-2.000	1.100																			1580051966.0	10.63	19.69
26/01/2020 15:19:27	26012020	260120	151927	102.480	12.295002	-56.643178	102.460	-0.370	-0.680	0.710	102.480	-2.100	1.100																			1580051967.0	11.14	20.63
26/01/2020 15:19:28	26012020	260120	151928	102.440	12.294988	-56.643128	102.440	-0.280	-0.340	0.500	102.440	-1.900	0.900																			1580051968.0	11.11	20.58
26/01/2020 15:19:29	26012020	260120	151929	102.430	12.294977	-56.643078	102.420	-0.130	0.020	0.360	102.430	-1.500	0.800																			1580051969.0	11.11	20.58
26/01/2020 15:19:30	26012020	260120	151930	102.420	12.294967	-56.643027	102.480	0.040	0.250	0.150	102.420	-1.200	0.600																			1580051970.0	10.88	20.15
26/01/2020 15:19:31	26012020	260120	151931	102.530	12.294957	-56.642977	102.700	0.110	0.390	-0.160	102.530	-1.000	0.300																			1580051971.0	10.93	20.24
26/01/2020 15:19:32	26012020	260120	151932	102.820	12.294948	-56.642925	103.070	0.040	0.390	-0.390	102.820	-1.000	0.000																			1580051972.0	11.00	20.37
26/01/2020 15:19:33	26012020	260120	151933	103.180	12.294940	-56.642875	103.390	-0.040	0.150	-0.290	103.180	-1.100	0.000																			1580051973.0	10.80	20.00
26/01/2020 15:19:34	26012020	260120	151934	103.450	12.294930	-56.642825	103.520	-0.020	-0.390	0.130	103.450	-1.500	0.300																			1580051974.0	10.91	20.21
26/01/2020 15:19:35	26012020	260120	151935	103.500	12.294917	-56.642773	103.370	0.090	-1.020	0.600	103.500	-2.200	0.800																			1580051975.0	10.91	20.21
26/01/2020 15:19:36	26012020	260120	151936	103.280	12.294903	-56.642722	103.080	0.180	-1.270	0.920	103.280	-2.600	1.200																			1580051976.0	11.20	20.74
26/01/2020 15:19:37	26012020	260120	151937	103.000	12.294890	-56.642670	102.850	0.120	-0.870	0.920	103.000	-2.400	1.300																			1580051977.0	11.38	21.08
26/01/2020 15:19:38	26012020	260120	151938	102.780	12.294880	-56.642622	102.620	-0.040	-0.270	0.740	102.780	-1.800	1.200																			1580051978.0	11.06	20.48
26/01/2020 15:19:39	26012020	260120	151939	102.570	12.294872	-56.642573	102.500	-0.140	0.030	0.490	102.570	-1.400	1.000																			1580051979.0	10.53	19.50
26/01/2020 15:19:40	26012020	260120	151940	102.500	12.294862	-56.642522	102.500	-0.140	-0.020	0.290	102.500	-1.400	0.700																			1580051980.0	10.55	19.54
26/01/2020 15:19:41	26012020	260120	151941	102.530	12.294850	-56.642470	102.610	-0.060	-0.070	0.150	102.530	-1.500	0.600																			1580051981.0	11.01	20.39
26/01/2020 15:19:42	26012020	260120	151942	102.680	12.294838	-56.642418	102.850	-0.010	0.170	0.110	102.680	-1.300	0.500																			1580051982.0	11.37	21.06
26/01/2020 15:19:43	26012020	260120	151943	102.940	12.294828	-56.642368	103.100	-0.010	0.460	0.110	102.940	-1.000	0.500																			1580051983.0	11.22	20.78
26/01/2020 15:19:44	26012020	260120	151944	103.160	12.294817	-56.642320	103.260	0.030	0.350	0.160	103.160	-0.900	0.500																			1580051984.0	10.72	19.85
26/01/2020 15:19:45	26012020	260120	151945	103.310	12.294807	-56.642268	103.370	0.180	-0.200	0.250	103.310	-1.400	0.600																			1580051985.0	10.89	20.17
26/01/2020 15:19:46	26012020	260120	151946	103.380	12.294797	-56.642217	103.370	0.340	-0.770	0.440	103.380	-2.000	0.700																			1580051986.0	10.89	20.17
26/01/2020 15:19:47	26012020	260120	151947	103.350	12.294785	-56.642165	103.270	0.310	-0.990	0.600	103.350	-2.300	0.900																			1580051987.0	11.20	20.74
26/01/2020 15:19:48	26012020	260120	151948	103.220	12.294775	-56.642115	103.040	0.140	-0.960	0.720	103.220	-2.400	1.000																			1580051988.0	11.20	20.74
26/01/2020 15:19:49	26012020	260120	151949	103.000	12.294763	-56.642065	102.740	-0.040	-0.890	0.920	102.950	-2.300	1.200																			1580051989.0	10.89	20.17
26/01/2020 15:19:50	26012020	260120	151950	102.650	12.294752	-56.642013	102.480	-0.220	-0.670	1.010	102.650	-2.200	1.400																			1580051990.0	10.87	20.13
26/01/2020 15:19:51	26012020	260120	151951	102.410	12.294738	-56.641963	102.300	-0.470	-0.130	0.900	102.410	-1.700	1.300																			1580051991.0	11.10	20.56
26/01/2020 15:19:52	26012020	260120	151952	102.260	12.294727	-56.641913	102.230	-0.610	0.380	0.630	102.260	-1.100	1.100																			1580051992.0	11.04	20.45
26/01/2020 15:19:53	26012020	260120	151953	102.230	12.294715	-56.641863	102.320	-0.440	0.370	0.230	102.230	-0.900	0.800																			1580051993.0	10.73	19.87
26/01/2020 15:19:54	26012020	260120	151954	102.380	12.294705	-56.641812	102.550	-0.010	-0.000	-0.200	102.380	-1.200	0.300																			1580051994.0	10.79	19.98
26/01/2020 15:19:55	26012020	260120	151955	102.630	12.294697	-56.641757	102.790	0.290	-0.050	-0.380	102.630	-1.500	0.000																			1580051995.0	11.34	21.00
26/01/2020 15:19:56	26012020	260120	151956	102.880	12.294687	-56.641707	103.000	0.250	0.350	-0.270	102.880	-1.200	0.000																			1580051996.0	11.57	21.43
26/01/2020 15:19:57	26012020	260120	151957	103.060	12.294678	-56.641658	103.120	0.110	0.450	-0.050	103.060	-0.900	0.200																			1580051997.0	10.91	20.21
26/01/2020 15:19:58	26012020	260120	151958	103.150	12.294668	-56.641610	103.100	0.200	-0.300	0.170	103.150	-1.300	0.500																			1580051998.0	10.24	18.96
26/01/2020 15:19:59	26012020	260120	151959	103.070	12.294657	-56.641557	102.900	0.510	-1.300	0.460	103.070	-2.400	0.700	1016.10	26.20	26.30	19.60	19.70	870.00	67.00	67.00	376.00	29.30	352.00	8.70	80.00	3.20	63885	3161.00	27.50	27.50	1580051999.0	10.56	19.56
26/01/2020 15:20:00	26012020	260120	152000	102.810	12.294645	-56.641502	102.580	0.720	-1.570	0.720	102.810	-3.000	1.000																			1580052000.0	11.50	21.30
26/01/2020 15:20:01	26012020	260120	152001	102.540	12.294635	-56.641452	102.290	0.520	-0.930	0.890	102.480	-2.600	1.200																			1580052001.0	11.78	21.82
26/01/2020 15:20:02	26012020	260120	152002	102.230	12.294625	-56.641403	102.190	-0.060	-0.050	0.870	102.230	-1.700	1.300																			1580052002.0	11.09	20.54
26/01/2020 15:20:03	26012020	260120	152003	102.180	12.294615	-56.641355	102.190	-0.690	0.440	0.700	102.180	-1.100	1.100																			1580052003.0	10.36	19.19
26/01/2020 15:20:04	26012020	260120	152004	102.180	12.294603	-56.641307	102.150	-0.970	0.330	0.610	102.180	-1.000	1.000																			1580052004.0	10.28	19.04
26/01/2020 15:20:05	26012020	260120	152005	102.120	12.294590	-56.641255	102.140	-0.810	-0.040	0.560	102.120	-1.300	0.900																			1580052005.0	10.73	19.87
26/01/2020 15:20:06	26012020	260120	152006	102.150	12.294577	-56.641202	102.270	-0.430	-0.200	0.370	102.150	-1.600	0.800																			1580052006.0	11.43	21.17
26/01/2020 15:20:07	26012020	260120	152007	102.290	12.294565	-56.641152	102.360	-0.030	-0.210	0.040	102.290	-1.600	0.500																			1580052007.0	11.43	21.17
26/01/2020 15:20:08	26012020	260120	152008	102.350	12.294555	-56.641100	102.320	0.370	-0.370	-0.140	102.350	-1.700	0.300																			1580052008.0	10.90	20.19
26/01/2020 15:20:09	26012020	260120	152009	102.290	12.294547	-56.641048	102.250	0.710	-0.590	-0.140	102.290	-1.900	0.200																			1580052009.0	11.15	20.65
26/01/2020 15:20:10	26012020	260120	152010	102.240	12.294538	-56.640997	102.250	0.790	-0.540	0.050	102.240	-2.000	0.300																			1580052010.0	11.25	20.84
26/01/2020 15:20:11	26012020	260120	152011	102.240	12.294530	-56.640945	102.250	0.540	-0.210	0.390	102.240	-1.700	0.600																			1580052011.0	10.93	20.24
26/01/2020 15:20:12	26012020	260120	152012	102.220	12.294520	-56.640897	102.200	0.150	0.070	0.750	102.220	-1.400	1.000																			1580052012.0	10.63	19.69
26/01/2020 15:20:13	26012020	260120	152013	102.150	12.294508	-56.640847	102.160	-0.190	0.050	0.880	102.150	-1.300	1.200																			1580052013.0	10.63	19.69
26/01/2020 15:20:14	26012020	260120	152014	102.110	12.294498	-56.640795	102.130	-0.270	-0.310	0.900	102.110	-1.500	1.300																			1580052014.0	10.71	19.83
26/01/2020 15:20:15	26012020	260120	152015	102.090	12.294485	-56.640743	102.140	-0.120	-0.690	0.840	102.090	-2.000	1.200																			1580052015.0	11.02	20.41
26/01/2020 15:20:16	26012020	260120	152016	102.090	12.294473	-56.640690	102.160	-0.090	-0.490	0.690	102.090	-2.000	1.100																			1580052016.0	11.42	21.15
26/01/2020 15:20:17	26012020	260120	152017	102.130	12.294463	-56.640642	102.230	-0.390	0.230	0.510	102.130	-1.400	0.900																			1580052017.0	10.70	19.82
26/01/2020 15:20:18	26012020	260120	152018	102.220	12.294453	-56.640595	102.370	-0.670	0.610	0.320	102.220	-0.800	0.800																			1580052018.0	10.70	19.82
26/01/2020 15:20:19	26012020	260120	152019	102.380	12.294443	-56.640547	102.500	-0.450	0.020	0.090	102.380	-1.000	0.500																			1580052019.0	10.40	19.26
26/01/2020 15:20:20	26012020	260120	152020	102.460	12.294433	-56.640493	102.360	0.260	-1.050	-0.010	102.460	-2.100	0.400																			1580052020.0	10.40	19.26
26/01/2020 15:20:21	26012020	260120	152021	102.240	12.294423	-56.640437	102.040	0.840	-1.390	0.190	102.240	-2.800	0.500																			1580052021.0	12.05	22.32
26/01/2020 15:20:22	26012020	260120	152022	101.950	12.294413	-56.640385	101.920	0.810	-0.680	0.400	101.950	-2.400	0.700																			1580052022.0	12.05	22.32
26/01/2020 15:20:23	26012020	260120	152023	101.900	12.294405	-56.640337	101.970	0.330	0.080	0.300	101.900	-1.500	0.700																			1580052023.0	11.19	20.72
26/01/2020 15:20:24	26012020	260120	152024	101.980	12.294397	-56.640288	101.990	-0.090	0.110	0.250	101.980	-1.200	0.600																			1580052024.0	10.38	19.22
26/01/2020 15:20:25	26012020	260120	152025	101.950	12.294387	-56.640237	101.900	-0.290	-0.150	0.520	101.950	-1.400	0.800																			1580052025.0	11.26	20.85
26/01/2020 15:20:26	26012020	260120	152026	101.840	12.294373	-56.640185	101.850	-0.360	-0.080	0.800	101.840	-1.500	1.100																			1580052026.0	11.26	20.85
26/01/2020 15:20:27	26012020	260120	152027	101.820	12.294360	-56.640135	101.950	-0.430	0.210	0.840	101.820	-1.300	1.200																			1580052027.0	11.43	21.17
26/01/2020 15:20:28	26012020	260120	152028	101.950	12.294348	-56.640085	102.130	-0.430	0.190	0.620	101.950	-1.100	1.100																			1580052028.0	10.96	20.30
26/01/2020 15:20:29	26012020	260120	152029	102.140	12.294338	-56.640035	102.290	-0.220	-0.260	0.310	102.140	-1.400	0.800																			1580052029.0	10.64	19.71
26/01/2020 15:20:30	26012020	260120	152030	102.270	12.294327	-56.639982	102.320	0.160	-0.530	0.080	102.270	-1.900	0.500																			1580052030.0	10.94	20.26
26/01/2020 15:20:31	26012020	260120	152031	102.270	12.294318	-56.639932	102.270	0.410	-0.240	-0.010	102.270	-1.800	0.400																			1580052031.0	11.35	21.02
26/01/2020 15:20:32	26012020	260120	152032	102.230	12.294310	-56.639883	102.280	0.430	-0.010	-0.140	102.230	-1.400	0.300																			1580052032.0	11.04	20.45
26/01/2020 15:20:33	26012020	260120	152033	102.280	12.294303	-56.639833	102.340	0.340	-0.290	-0.170	102.280	-1.500	0.200																			1580052033.0	10.37	19.21
26/01/2020 15:20:34	26012020	260120	152034	102.330	12.294295	-56.639782	102.270	0.250	-0.770	0.130	102.330	-2.000	0.300																			1580052034.0	11.09	20.54
26/01/2020 15:20:35	26012020	260120	152035	102.180	12.294285	-56.639728	101.980	0.140	-1.010	0.670	102.180	-2.300	0.800																			1580052035.0	11.09	20.54
26/01/2020 15:20:36	26012020	260120	152036	101.830	12.294272	-56.639678	101.640	-0.020	-0.870	1.190	101.830	-2.300	1.400																			1580052036.0	11.34	21.00
26/01/2020 15:20:37	26012020	260120	152037	101.530	12.294258	-56.639627	101.470	-0.220	-0.490	1.340	101.530	-2.000	1.700																			1580052037.0	11.22	20.78
26/01/2020 15:20:38	26012020	260120	152038	101.390	12.294247	-56.639577	101.390	-0.440	0.090	1.070	101.390	-1.500	1.600																			1580052038.0	11.02	20.41
26/01/2020 15:20:39	26012020	260120	152039	101.330	12.294235	-56.639528	101.350	-0.570	0.580	0.620	101.330	-0.900	1.200																			1580052039.0	10.88	20.15
26/01/2020 15:20:40	26012020	260120	152040	101.330	12.294227	-56.639478	101.410	-0.420	0.530	0.150	101.330	-0.800	0.700																			1580052040.0	10.63	19.69
26/01/2020 15:20:41	26012020	260120	152041	101.440	12.294218	-56.639427	101.610	-0.020	-0.040	-0.150	101.440	-1.200	0.300																			1580052041.0	11.20	20.74
26/01/2020 15:20:42	26012020	260120	152042	101.680	12.294208	-56.639372	101.850	0.340	-0.490	-0.230	101.680	-1.800	0.100																			1580052042.0	11.20	20.74
26/01/2020 15:20:43	26012020	260120	152043	101.910	12.294200	-56.639320	102.020	0.430	-0.420	-0.150	101.910	-1.900	0.200																			1580052043.0	11.25	20.84
26/01/2020 15:20:44	26012020	260120	152044	102.050	12.294192	-56.639270	102.120	0.270	-0.070	0.120	102.050	-1.600	0.400																			1580052044.0	11.25	20.84
26/01/2020 15:20:45	26012020	260120	152045	102.120	12.294182	-56.639223	102.140	0.040	0.030	0.410	102.120	-1.300	0.700																			1580052045.0	10.59	19.61
26/01/2020 15:20:46	26012020	260120	152046	102.120	12.294172	-56.639173	102.130	-0.060	-0.370	0.560	102.120	-1.500	0.900																			1580052046.0	10.29	19.06
26/01/2020 15:20:47	26012020	260120	152047	102.100	12.294162	-56.639122	102.040	0.020	-0.890	0.630	102.100	-2.100	1.000																			1580052047.0	10.60	19.63
26/01/2020 15:20:48	26012020	260120	152048	101.950	12.294150	-56.639070	101.840	0.100	-1.000	0.590	101.950	-2.400	1.000																			1580052048.0	11.19	20.72
26/01/2020 15:20:49	26012020	260120	152049	101.750	12.294140	-56.639018	101.670	0.080	-0.670	0.500	101.750	-2.200	0.900																			1580052049.0	11.37	21.06
26/01/2020 15:20:50	26012020	260120	152050	101.620	12.294132	-56.638968	101.600	-0.020	-0.250	0.380	101.620	-1.800	0.800																			1580052050.0	10.72	19.85
26/01/2020 15:20:51	26012020	260120	152051	101.570	12.294122	-56.638918	101.560	-0.080	0.010	0.210	101.560	-1.400	0.600																			1580052051.0	10.77	19.95
26/01/2020 15:20:52	26012020	260120	152052	101.550	12.294112	-56.638867	101.600	-0.100	0.120	0.110	101.550	-1.300	0.500																			1580052052.0	10.77	19.95
26/01/2020 15:20:53	26012020	260120	152053	101.610	12.294103	-56.638817	101.750	-0.150	0.180	0.120	101.640	-1.200	0.500																			1580052053.0	11.00	20.37
26/01/2020 15:20:54	26012020	260120	152054	101.810	12.294093	-56.638765	101.960	-0.230	0.190	0.110	101.810	-1.200	0.500																			1580052054.0	11.06	20.48
26/01/2020 15:20:55	26012020	260120	152055	102.040	12.294083	-56.638715	102.260	-0.270	0.080	0.110	102.040	-1.200	0.500																			1580052055.0	11.00	20.37
26/01/2020 15:20:56	26012020	260120	152056	102.370	12.294072	-56.638663	102.620	-0.180	-0.180	0.220	102.370	-1.500	0.500																			1580052056.0	10.91	20.21
26/01/2020 15:20:57	26012020	260120	152057	102.680	12.294062	-56.638613	102.780	0.010	-0.390	0.350	102.680	-1.700	0.700																			1580052057.0	10.94	20.26
26/01/2020 15:20:58	26012020	260120	152058	102.780	12.294050	-56.638563	102.710	0.210	-0.460	0.450	102.780	-1.800	0.800																			1580052058.0	11.00	20.37
26/01/2020 15:20:59	26012020	260120	152059	102.670	12.294040	-56.638513	102.570	0.370	-0.610	0.450	102.670	-1.900	0.800	1016.10	26.20	26.30	19.70	19.80	797.00	67.00	67.00	376.00	29.30	357.00	8.60	94.00	3.00	60328	3169.00	27.60	27.50	1580052059.0	10.86	20.11
26/01/2020 15:21:00	26012020	260120	152100	102.530	12.294032	-56.638462	102.480	0.470	-0.870	0.270	102.530	-2.100	0.700																			1580052060.0	11.01	20.39
26/01/2020 15:21:01	26012020	260120	152101	102.460	12.294023	-56.638408	102.430	0.410	-0.900	0.110	102.460	-2.300	0.500																			1580052061.0	11.30	20.93
26/01/2020 15:21:02	26012020	260120	152102	102.430	12.294015	-56.638357	102.390	0.140	-0.440	0.030	102.430	-2.000	0.400																			1580052062.0	11.30	20.93
26/01/2020 15:21:03	26012020	260120	152103	102.380	12.294005	-56.638308	102.330	-0.220	0.160	0.030	102.380	-1.400	0.400																			1580052063.0	11.11	20.58
26/01/2020 15:21:04	26012020	260120	152104	102.340	12.293993	-56.638258	102.360	-0.490	0.400	0.120	102.340	-1.000	0.400																			1580052064.0	10.65	19.72
26/01/2020 15:21:05	26012020	260120	152105	102.390	12.293982	-56.638208	102.480	-0.520	0.200	0.150	102.390	-1.100	0.500																			1580052065.0	10.59	19.61
26/01/2020 15:21:06	26012020	260120	152106	102.530	12.293972	-56.638157	102.620	-0.350	-0.150	0.090	102.530	-1.400	0.500																			1580052066.0	10.95	20.28
26/01/2020 15:21:07	26012020	260120	152107	102.660	12.293960	-56.638103	102.720	-0.130	-0.290	0.090	102.660	-1.600	0.400																			1580052067.0	11.34	21.00
26/01/2020 15:21:08	26012020	260120	152108	102.730	12.293948	-56.638053	102.760	-0.010	-0.220	0.170	102.730	-1.600	0.500																			1580052068.0	11.36	21.04
26/01/2020 15:21:09	26012020	260120	152109	102.780	12.293938	-56.638003	102.820	0.010	-0.180	0.170	102.780	-1.600	0.500																			1580052069.0	11.03	20.43
26/01/2020 15:21:10	26012020	260120	152110	102.860	12.293928	-56.637953	102.930	0.040	-0.260	0.050	102.860	-1.600	0.500																			1580052070.0	10.80	20.00
26/01/2020 15:21:11	26012020	260120	152111	102.980	12.293918	-56.637902	103.020	0.150	-0.420	-0.120	102.980	-1.700	0.300																			1580052071.0	10.80	20.00
26/01/2020 15:21:12	26012020	260120	152112	103.040	12.293908	-56.637850	102.940	0.300	-0.540	-0.190	103.040	-1.900	0.200																			1580052072.0	10.95	20.28
26/01/2020 15:21:13	26012020	260120	152113	102.900	12.293898	-56.637800	102.710	0.370	-0.530	-0.050	102.900	-1.900	0.300																			1580052073.0	11.05	20.46
26/01/2020 15:21:14	26012020	260120	152114	102.670	12.293888	-56.637748	102.560	0.330	-0.360	0.050	102.670	-1.800	0.400																			1580052074.0	11.04	20.45
26/01/2020 15:21:15	26012020	260120	152115	102.570	12.293878	-56.637698	102.550	0.230	-0.330	-0.020	102.560	-1.700	0.400																			1580052075.0	10.92	20.22
26/01/2020 15:21:16	26012020	260120	152116	102.580	12.293868	-56.637647	102.560	0.050	-0.390	-0.070	102.580	-1.800	0.300																			1580052076.0	10.86	20.11
26/01/2020 15:21:17	26012020	260120	152117	102.570	12.293858	-56.637595	102.580	-0.260	-0.170	0.040	102.570	-1.700	0.300																			1580052077.0	11.15	20.65
26/01/2020 15:21:18	26012020	260120	152118	102.610	12.293847	-56.637545	102.660	-0.570	0.210	0.230	102.610	-1.300	0.500																			1580052078.0	11.22	20.78
26/01/2020 15:21:19	26012020	260120	152119	102.690	12.293835	-56.637497	102.690	-0.600	0.170	0.370	102.690	-1.100	0.700																			1580052079.0	10.81	20.02
26/01/2020 15:21:20	26012020	260120	152120	102.680	12.293822	-56.637445	102.650	-0.290	-0.300	0.370	102.680	-1.500	0.700																			1580052080.0	10.63	19.69
26/01/2020 15:21:21	26012020	260120	152121	102.640	12.293808	-56.637392	102.640	0.110	-0.650	0.200	102.640	-1.900	0.600																			1580052081.0	11.14	20.63
26/01/2020 15:21:22	26012020	260120	152122	102.650	12.293798	-56.637340	102.660	0.300	-0.490	-0.020	102.650	-2.000	0.400																			1580052082.0	11.56	21.41
26/01/2020 15:21:23	26012020	260120	152123	102.680	12.293790	-56.637290	102.690	0.230	-0.040	-0.150	102.680	-1.600	0.300																			1580052083.0	11.37	21.06
26/01/2020 15:21:24	26012020	260120	152124	102.720	12.293780	-56.637240	102.730	0.070	0.150	-0.200	102.720	-1.300	0.200																			1580052084.0	10.78	19.96
26/01/2020 15:21:25	26012020	260120	152125	102.740	12.293772	-56.637190	102.760	0.050	-0.080	-0.100	102.740	-1.400	0.200																			1580052085.0	10.49	19.43
26/01/2020 15:21:26	26012020	260120	152126	102.770	12.293760	-56.637138	102.770	0.180	-0.460	0.120	102.770	-1.700	0.400																			1580052086.0	10.77	19.95
26/01/2020 15:21:27	26012020	260120	152127	102.760	12.293748	-56.637087	102.700	0.280	-0.670	0.370	102.760	-2.000	0.600																			1580052087.0	11.20	20.74
26/01/2020 15:21:28	26012020	260120	152128	102.660	12.293737	-56.637035	102.610	0.170	-0.520	0.610	102.660	-2.000	0.900																			1580052088.0	11.32	20.96
26/01/2020 15:21:29	26012020	260120	152129	102.590	12.293725	-56.636985	102.640	-0.070	-0.210	0.750	102.580	-1.700	1.100																			1580052089.0	11.16	20.67
26/01/2020 15:21:30	26012020	260120	152130	102.640	12.293713	-56.636937	102.760	-0.200	-0.120	0.620	102.640	-1.500	1.100																			1580052090.0	10.77	19.95
26/01/2020 15:21:31	26012020	260120	152131	102.750	12.293703	-56.636885	102.730	-0.090	-0.300	0.380	102.750	-1.600	0.800																			1580052091.0	10.66	19.74
26/01/2020 15:21:32	26012020	260120	152132	102.650	12.293693	-56.636833	102.550	0.080	-0.440	0.300	102.650	-1.800	0.700																			1580052092.0	11.02	20.41
26/01/2020 15:21:33	26012020	260120	152133	102.490	12.293682	-56.636780	102.530	0.070	-0.260	0.330	102.490	-1.800	0.700																			1580052093.0	11.37	21.06
26/01/2020 15:21:34	26012020	260120	152134	102.550	12.293672	-56.636730	102.760	-0.150	0.120	0.310	102.550	-1.400	0.700																			1580052094.0	11.30	20.93
26/01/2020 15:21:35	26012020	260120	152135	102.840	12.293662	-56.636682	103.090	-0.280	0.190	0.170	102.840	-1.200	0.600																			1580052095.0	10.86	20.11
26/01/2020 15:21:36	26012020	260120	152136	103.120	12.293650	-56.636630	103.190	-0.090	-0.200	0.270	103.120	-1.400	0.600																			1580052096.0	10.58	19.59
26/01/2020 15:21:37	26012020	260120	152137	103.160	12.293637	-56.636578	103.150	0.230	-0.530	0.430	103.160	-1.800	0.800																			1580052097.0	10.97	20.32
26/01/2020 15:21:38	26012020	260120	152138	103.100	12.293625	-56.636527	103.130	0.380	-0.410	0.290	103.100	-1.900	0.700																			1580052098.0	11.42	21.15
26/01/2020 15:21:39	26012020	260120	152139	103.120	12.293617	-56.636477	103.170	0.290	-0.140	0.030	103.120	-1.600	0.500																			1580052099.0	11.24	20.82
26/01/2020 15:21:40	26012020	260120	152140	103.170	12.293608	-56.636427	103.160	0.070	-0.220	-0.070	103.170	-1.500	0.300																			1580052100.0	10.71	19.83
26/01/2020 15:21:41	26012020	260120	152141	103.130	12.293600	-56.636375	103.090	-0.110	-0.620	0.040	103.130	-1.800	0.300																			1580052101.0	10.63	19.69
26/01/2020 15:21:42	26012020	260120	152142	103.070	12.293587	-56.636323	103.020	-0.240	-0.740	0.400	103.070	-2.100	0.600																			1580052102.0	11.09	20.54
26/01/2020 15:21:43	26012020	260120	152143	102.990	12.293573	-56.636272	102.930	-0.350	-0.420	0.670	102.990	-1.900	1.000																			1580052103.0	11.15	20.65
26/01/2020 15:21:44	26012020	260120	152144	102.880	12.293560	-56.636223	102.760	-0.350	-0.120	0.660	102.880	-1.600	1.100																			1580052104.0	11.15	20.65
26/01/2020 15:21:45	26012020	260120	152145	102.700	12.293547	-56.636173	102.590	-0.160	-0.120	0.470	102.700	-1.500	0.900																			1580052105.0	10.75	19.91
26/01/2020 15:21:46	26012020	260120	152146	102.570	12.293537	-56.636120	102.620	0.170	-0.210	0.160	102.570	-1.600	0.700																			1580052106.0	10.91	20.21
26/01/2020 15:21:47	26012020	260120	152147	102.680	12.293527	-56.636068	102.880	0.320	-0.020	-0.250	102.680	-1.500	0.300																			1580052107.0	11.32	20.96
26/01/2020 15:21:48	26012020	260120	152148	102.960	12.293518	-56.636017	103.110	0.200	0.340	-0.460	102.960	-1.200	-0.100																			1580052108.0	11.35	21.02
26/01/2020 15:21:49	26012020	260120	152149	103.170	12.293508	-56.635968	103.260	-0.010	0.470	-0.380	103.170	-0.900	-0.100																			1580052109.0	10.88	20.15
26/01/2020 15:21:50	26012020	260120	152150	103.310	12.293497	-56.635920	103.350	-0.030	0.110	-0.140	103.310	-1.100	0.100																			1580052110.0	10.51	19.46
26/01/2020 15:21:51	26012020	260120	152151	103.360	12.293485	-56.635868	103.260	0.250	-0.700	0.160	103.360	-1.800	0.400																			1580052111.0	10.63	19.69
26/01/2020 15:21:52	26012020	260120	152152	103.210	12.293473	-56.635815	103.040	0.550	-1.290	0.360	103.210	-2.500	0.700																			1580052112.0	11.09	20.54
26/01/2020 15:21:53	26012020	260120	152153	102.990	12.293463	-56.635762	102.830	0.450	-1.040	0.480	102.990	-2.600	0.800																			1580052113.0	11.59	21.46
26/01/2020 15:21:54	26012020	260120	152154	102.780	12.293453	-56.635713	102.660	-0.090	-0.300	0.600	102.780	-1.900	0.900																			1580052114.0	11.42	21.15
26/01/2020 15:21:55	26012020	260120	152155	102.610	12.293442	-56.635667	102.470	-0.600	0.040	0.710	102.610	-1.400	1.000																			1580052115.0	10.54	19.52
26/01/2020 15:21:56	26012020	260120	152156	102.390	12.293430	-56.635617	102.290	-0.690	-0.310	0.730	102.390	-1.500	1.100																			1580052116.0	10.20	18.89
26/01/2020 15:21:57	26012020	260120	152157	102.240	12.293415	-56.635563	102.260	-0.380	-0.740	0.640	102.240	-2.000	1.000																			1580052117.0	10.87	20.13
26/01/2020 15:21:58	26012020	260120	152158	102.240	12.293402	-56.635508	102.280	-0.080	-0.450	0.510	102.240	-2.000	0.900																			1580052118.0	11.74	21.74
26/01/2020 15:21:59	26012020	260120	152159	102.280	12.293390	-56.635458	102.320	-0.060	0.330	0.270	102.280	-1.300	0.700	1016.10	26.20	26.30	19.70	19.70	881.00	67.00	67.00	376.00	29.40	357.00	8.70	94.00	3.10	64620	3289.00	27.60	27.50	1580052119.0	11.76	21.78
26/01/2020 15:22:00	26012020	260120	152200	102.330	12.293380	-56.635412	102.360	-0.120	0.740	0.050	102.330	-0.700	0.500																			1580052120.0	10.90	20.19
26/01/2020 15:22:01	26012020	260120	152201	102.380	12.293370	-56.635362	102.480	-0.010	0.410	-0.170	102.380	-0.800	0.300																			1580052121.0	10.30	19.08
26/01/2020 15:22:02	26012020	260120	152202	102.510	12.293360	-56.635308	102.620	0.260	-0.160	-0.350	102.510	-1.300	0.100																			1580052122.0	10.71	19.83
26/01/2020 15:22:03	26012020	260120	152203	102.650	12.293352	-56.635255	102.750	0.510	-0.490	-0.330	102.650	-1.800	0.000																			1580052123.0	11.32	20.96
26/01/2020 15:22:04	26012020	260120	152204	102.790	12.293343	-56.635205	102.910	0.600	-0.520	-0.060	102.790	-1.900	0.200																			1580052124.0	11.38	21.08
26/01/2020 15:22:05	26012020	260120	152205	102.890	12.293333	-56.635155	102.870	0.490	-0.550	0.450	102.900	-1.900	0.600																			1580052125.0	10.98	20.33
26/01/2020 15:22:06	26012020	260120	152206	102.790	12.293320	-56.635105	102.640	0.180	-0.550	0.850	102.790	-1.900	1.100																			1580052126.0	10.71	19.83
26/01/2020 15:22:07	26012020	260120	152207	102.530	12.293308	-56.635057	102.370	-0.180	-0.450	1.040	102.530	-1.900	1.300																			1580052127.0	10.81	20.02
26/01/2020 15:22:08	26012020	260120	152208	102.250	12.293297	-56.635007	102.140	-0.390	-0.430	1.070	102.250	-1.800	1.400																			1580052128.0	10.81	20.02
26/01/2020 15:22:09	26012020	260120	152209	102.030	12.293285	-56.634955	101.950	-0.390	-0.570	0.950	102.030	-1.900	1.400																			1580052129.0	10.82	20.04
26/01/2020 15:22:10	26012020	260120	152210	101.830	12.293273	-56.634903	101.780	-0.300	-0.550	0.720	101.830	-2.000	1.200																			1580052130.0	11.06	20.48
26/01/2020 15:22:11	26012020	260120	152211	101.700	12.293262	-56.634852	101.760	-0.250	-0.240	0.430	101.700	-1.700	0.900																			1580052131.0	11.33	20.98
26/01/2020 15:22:12	26012020	260120	152212	101.730	12.293252	-56.634802	101.880	-0.220	0.120	0.150	101.730	-1.400	0.600																			1580052132.0	11.18	20.71
26/01/2020 15:22:13	26012020	260120	152213	101.900	12.293242	-56.634752	102.070	-0.120	0.250	-0.040	101.900	-1.100	0.400																			1580052133.0	10.87	20.13
26/01/2020 15:22:14	26012020	260120	152214	102.070	12.293232	-56.634700	102.150	0.110	0.030	-0.120	102.070	-1.200	0.300																			1580052134.0	10.79	19.98
26/01/2020 15:22:15	26012020	260120	152215	102.120	12.293222	-56.634647	102.170	0.360	-0.300	-0.050	102.120	-1.600	0.300																			1580052135.0	10.99	20.35
26/01/2020 15:22:16	26012020	260120	152216	102.160	12.293212	-56.634595	102.240	0.410	-0.310	0.160	102.160	-1.700	0.400																			1580052136.0	11.32	20.96
26/01/2020 15:22:17	26012020	260120	152217	102.230	12.293202	-56.634545	102.330	0.180	-0.020	0.390	102.230	-1.500	0.700																			1580052137.0	11.30	20.93
26/01/2020 15:22:18	26012020	260120	152218	102.310	12.293192	-56.634497	102.310	-0.150	0.150	0.620	102.310	-1.200	0.900																			1580052138.0	10.83	20.06
26/01/2020 15:22:19	26012020	260120	152219	102.220	12.293182	-56.634448	102.130	-0.270	-0.230	0.780	102.220	-1.400	1.100																			1580052139.0	10.44	19.33
26/01/2020 15:22:20	26012020	260120	152220	102.020	12.293170	-56.634395	101.900	-0.050	-0.960	0.800	102.020	-2.100	1.200																			1580052140.0	10.59	19.61
26/01/2020 15:22:21	26012020	260120	152221	101.780	12.293158	-56.634342	101.670	0.230	-1.140	0.680	101.780	-2.600	1.100																			1580052141.0	11.28	20.89
26/01/2020 15:22:22	26012020	260120	152222	101.560	12.293148	-56.634290	101.500	0.200	-0.500	0.420	101.560	-2.200	0.900																			1580052142.0	11.74	21.74
26/01/2020 15:22:23	26012020	260120	152223	101.430	12.293140	-56.634242	101.420	-0.040	0.140	0.180	101.430	-1.400	0.600																			1580052143.0	11.15	20.65
26/01/2020 15:22:24	26012020	260120	152224	101.400	12.293130	-56.634193	101.490	-0.160	0.170	0.030	101.400	-1.200	0.400																			1580052144.0	10.33	19.13
26/01/2020 15:22:25	26012020	260120	152225	101.530	12.293120	-56.634140	101.690	-0.170	-0.030	0.020	101.530	-1.400	0.400																			1580052145.0	10.51	19.46
26/01/2020 15:22:26	26012020	260120	152226	101.730	12.293108	-56.634088	101.870	-0.190	0.020	0.190	101.730	-1.400	0.500																			1580052146.0	11.22	20.78
26/01/2020 15:22:27	26012020	260120	152227	101.880	12.293097	-56.634040	101.930	-0.130	0.050	0.370	101.880	-1.300	0.700																			1580052147.0	11.24	20.82
26/01/2020 15:22:28	26012020	260120	152228	101.920	12.293087	-56.633990	101.920	0.200	-0.380	0.300	101.920	-1.600	0.700																			1580052148.0	10.75	19.91
26/01/2020 15:22:29	26012020	260120	152229	101.900	12.293077	-56.633937	101.870	0.510	-0.750	0.160	101.900	-2.100	0.600																			1580052149.0	10.80	20.00
26/01/2020 15:22:30	26012020	260120	152230	101.870	12.293068	-56.633883	101.800	0.320	-0.490	0.110	101.870	-2.000	0.500																			1580052150.0	11.38	21.08
26/01/2020 15:22:31	26012020	260120	152231	101.810	12.293062	-56.633835	101.680	-0.270	0.070	0.280	101.780	-1.500	0.600																			1580052151.0	11.28	20.89
26/01/2020 15:22:32	26012020	260120	152232	101.640	12.293052	-56.633788	101.510	-0.680	0.100	0.570	101.640	-1.200	0.800																			1580052152.0	10.47	19.39
26/01/2020 15:22:33	26012020	260120	152233	101.480	12.293038	-56.633738	101.260	-0.480	-0.670	0.800	101.440	-1.700	1.100																			1580052153.0	10.18	18.85
26/01/2020 15:22:34	26012020	260120	152234	101.160	12.293025	-56.633683	100.970	0.080	-1.330	0.970	101.160	-2.600	1.300																			1580052154.0	10.95	20.28
26/01/2020 15:22:35	26012020	260120	152235	100.900	12.293012	-56.633628	100.850	0.400	-0.860	0.900	100.900	-2.600	1.300																			1580052155.0	11.99	22.21
26/01/2020 15:22:36	26012020	260120	152236	100.860	12.293003	-56.633578	101.000	0.210	0.420	0.600	100.860	-1.400	1.100																			1580052156.0	11.87	21.98
26/01/2020 15:22:37	26012020	260120	152237	101.060	12.292995	-56.633533	101.280	-0.180	1.170	0.310	101.060	-0.400	0.800																			1580052157.0	10.60	19.63
26/01/2020 15:22:38	26012020	260120	152238	101.330	12.292987	-56.633485	101.470	-0.230	0.740	0.130	101.330	-0.400	0.600																			1580052158.0	9.70	17.96
26/01/2020 15:22:39	26012020	260120	152239	101.510	12.292977	-56.633433	101.670	0.060	-0.170	0.030	101.510	-1.200	0.400																			1580052159.0	10.26	19.00
26/01/2020 15:22:40	26012020	260120	152240	101.730	12.292968	-56.633378	101.960	0.270	-0.630	0.120	101.730	-1.900	0.400																			1580052160.0	11.38	21.08
26/01/2020 15:22:41	26012020	260120	152241	102.020	12.292958	-56.633328	102.180	0.200	-0.560	0.330	102.020	-2.000	0.600																			1580052161.0	11.61	21.50
26/01/2020 15:22:42	26012020	260120	152242	102.180	12.292948	-56.633280	102.130	0.060	-0.480	0.530	102.180	-1.900	0.800																			1580052162.0	10.87	20.13
26/01/2020 15:22:43	26012020	260120	152243	102.090	12.292938	-56.633232	101.870	0.060	-0.650	0.730	102.050	-1.900	1.000																			1580052163.0	10.29	19.06
26/01/2020 15:22:44	26012020	260120	152244	101.760	12.292927	-56.633182	101.610	0.180	-0.840	0.710	101.760	-2.200	1.100																			1580052164.0	10.49	19.43
26/01/2020 15:22:45	26012020	260120	152245	101.530	12.292918	-56.633130	101.430	0.220	-0.820	0.500	101.530	-2.200	1.000																			1580052165.0	10.95	20.28
26/01/2020 15:22:46	26012020	260120	152246	101.370	12.292910	-56.633078	101.280	0.070	-0.600	0.360	101.370	-2.100	0.800																			1580052166.0	11.02	20.41
26/01/2020 15:22:47	26012020	260120	152247	101.210	12.292902	-56.633027	101.160	-0.200	-0.300	0.350	101.210	-1.800	0.700																			1580052167.0	11.02	20.41
26/01/2020 15:22:48	26012020	260120	152248	101.120	12.292890	-56.632977	101.160	-0.440	0.010	0.500	101.120	-1.500	0.800																			1580052168.0	10.97	20.32
26/01/2020 15:22:49	26012020	260120	152249	101.140	12.292878	-56.632927	101.250	-0.510	0.200	0.730	101.140	-1.200	1.000																			1580052169.0	10.96	20.30
26/01/2020 15:22:50	26012020	260120	152250	101.260	12.292865	-56.632875	101.460	-0.420	0.240	0.790	101.260	-1.100	1.200																			1580052170.0	10.94	20.26
26/01/2020 15:22:51	26012020	260120	152251	101.480	12.292853	-56.632825	101.720	-0.270	0.290	0.650	101.480	-1.100	1.100																			1580052171.0	11.09	20.54
26/01/2020 15:22:52	26012020	260120	152252	101.730	12.292842	-56.632775	101.970	-0.100	0.360	0.320	101.730	-1.000	0.800																			1580052172.0	11.08	20.52
26/01/2020 15:22:53	26012020	260120	152253	101.980	12.292833	-56.632725	102.190	0.140	0.210	-0.120	101.980	-1.100	0.400																			1580052173.0	10.83	20.06
26/01/2020 15:22:54	26012020	260120	152254	102.180	12.292827	-56.632675	102.330	0.420	-0.180	-0.420	102.180	-1.400	0.000																			1580052174.0	10.63	19.69
26/01/2020 15:22:55	26012020	260120	152255	102.290	12.292820	-56.632623	102.420	0.520	-0.540	-0.430	102.320	-1.800	-0.100																			1580052175.0	10.80	20.00
26/01/2020 15:22:56	26012020	260120	152256	102.390	12.292812	-56.632573	102.360	0.400	-0.750	-0.100	102.390	-2.100	0.100																			1580052176.0	10.97	20.32
26/01/2020 15:22:57	26012020	260120	152257	102.280	12.292802	-56.632523	102.120	0.280	-0.900	0.350	102.280	-2.200	0.600																			1580052177.0	10.83	20.06
26/01/2020 15:22:58	26012020	260120	152258	101.980	12.292790	-56.632473	101.820	0.320	-1.010	0.670	101.980	-2.300	0.900																			1580052178.0	10.70	19.82
26/01/2020 15:22:59	26012020	260120	152259	101.710	12.292778	-56.632422	101.620	0.330	-0.900	0.730	101.710	-2.300	1.100	1016.10	26.20	26.30	19.70	19.80	912.00	67.00	67.00	376.00	29.40	352.00	8.70	80.00	3.20	66159	3254.00	27.60	27.60	1580052179.0	10.87	20.13
26/01/2020 15:23:00	26012020	260120	152300	101.550	12.292768	-56.632372	101.520	0.070	-0.390	0.580	101.550	-2.000	1.000																			1580052180.0	11.09	20.54
26/01/2020 15:23:01	26012020	260120	152301	101.460	12.292758	-56.632322	101.420	-0.380	0.220	0.490	101.460	-1.300	0.900																			1580052181.0	11.02	20.41
26/01/2020 15:23:02	26012020	260120	152302	101.390	12.292748	-56.632273	101.460	-0.650	0.310	0.500	101.390	-1.000	0.900																			1580052182.0	10.62	19.67
26/01/2020 15:23:03	26012020	260120	152303	101.450	12.292738	-56.632222	101.580	-0.590	-0.060	0.500	101.450	-1.300	0.900																			1580052183.0	10.57	19.58
26/01/2020 15:23:04	26012020	260120	152304	101.590	12.292725	-56.632168	101.720	-0.410	-0.210	0.550	101.590	-1.600	0.900																			1580052184.0	11.19	20.72
26/01/2020 15:23:05	26012020	260120	152305	101.710	12.292713	-56.632117	101.810	-0.300	-0.040	0.590	101.710	-1.500	0.900																			1580052185.0	11.56	21.41
26/01/2020 15:23:06	26012020	260120	152306	101.770	12.292702	-56.632067	101.840	-0.170	0.060	0.540	101.770	-1.300	0.900																			1580052186.0	11.14	20.63
26/01/2020 15:23:07	26012020	260120	152307	101.800	12.292692	-56.632017	101.970	0.050	-0.030	0.370	101.800	-1.400	0.800																			1580052187.0	10.72	19.85
26/01/2020 15:23:08	26012020	260120	152308	101.960	12.292683	-56.631967	102.180	0.260	-0.180	0.170	101.960	-1.500	0.600																			1580052188.0	10.79	19.98
26/01/2020 15:23:09	26012020	260120	152309	102.140	12.292675	-56.631915	102.300	0.360	-0.230	0.060	102.170	-1.600	0.400																			1580052189.0	10.93	20.24
26/01/2020 15:23:10	26012020	260120	152310	102.270	12.292667	-56.631865	102.280	0.330	-0.290	0.150	102.270	-1.600	0.500																			1580052190.0	10.90	20.19
26/01/2020 15:23:11	26012020	260120	152311	102.220	12.292657	-56.631815	102.170	0.300	-0.490	0.390	102.220	-1.800	0.700																			1580052191.0	10.76	19.93
26/01/2020 15:23:12	26012020	260120	152312	102.080	12.292645	-56.631765	102.000	0.340	-0.640	0.510	102.080	-2.000	0.900																			1580052192.0	10.76	19.93
26/01/2020 15:23:13	26012020	260120	152313	101.920	12.292635	-56.631713	101.820	0.370	-0.490	0.390	101.920	-1.900	0.800																			1580052193.0	11.00	20.37
26/01/2020 15:23:14	26012020	260120	152314	101.750	12.292627	-56.631663	101.710	0.270	-0.270	0.300	101.750	-1.700	0.700																			1580052194.0	10.97	20.32
26/01/2020 15:23:15	26012020	260120	152315	101.670	12.292618	-56.631613	101.760	0.070	-0.260	0.230	101.670	-1.600	0.600																			1580052195.0	10.77	19.95
26/01/2020 15:23:16	26012020	260120	152316	101.750	12.292610	-56.631562	101.850	-0.120	-0.430	0.280	101.750	-1.700	0.600																			1580052196.0	10.76	19.93
26/01/2020 15:23:17	26012020	260120	152317	101.820	12.292598	-56.631510	101.890	-0.260	-0.470	0.520	101.820	-1.900	0.800																			1580052197.0	11.04	20.45
26/01/2020 15:23:18	26012020	260120	152318	101.850	12.292587	-56.631458	101.890	-0.390	-0.280	0.820	101.850	-1.700	1.100																			1580052198.0	11.28	20.89
26/01/2020 15:23:19	26012020	260120	152319	101.840	12.292573	-56.631410	101.890	-0.520	-0.030	0.960	101.840	-1.500	1.300																			1580052199.0	11.13	20.61
26/01/2020 15:23:20	26012020	260120	152320	101.850	12.292560	-56.631360	101.940	-0.580	0.100	0.860	101.850	-1.300	1.300																			1580052200.0	10.90	20.19
26/01/2020 15:23:21	26012020	260120	152321	101.900	12.292548	-56.631310	102.030	-0.460	-0.010	0.500	101.920	-1.300	1.000																			1580052201.0	10.82	20.04
26/01/2020 15:23:22	26012020	260120	152322	102.000	12.292540	-56.631258	102.100	-0.120	-0.250	0.060	102.000	-1.500	0.600																			1580052202.0	10.88	20.15
26/01/2020 15:23:23	26012020	260120	152323	102.070	12.292530	-56.631205	102.280	0.230	-0.340	-0.220	102.100	-1.700	0.200																			1580052203.0	11.23	20.80
26/01/2020 15:23:24	26012020	260120	152324	102.290	12.292522	-56.631153	102.430	0.390	-0.180	-0.310	102.290	-1.600	0.100																			1580052204.0	11.23	20.80
26/01/2020 15:23:25	26012020	260120	152325	102.430	12.292513	-56.631105	102.490	0.370	0.000	-0.260	102.430	-1.400	0.100																			1580052205.0	11.02	20.41
26/01/2020 15:23:26	26012020	260120	152326	102.440	12.292503	-56.631055	102.400	0.410	-0.130	-0.100	102.440	-1.400	0.200																			1580052206.0	10.68	19.78
26/01/2020 15:23:27	26012020	260120	152327	102.360	12.292495	-56.631003	102.350	0.540	-0.480	0.010	102.360	-1.700	0.300																			1580052207.0	10.64	19.71
26/01/2020 15:23:28	26012020	260120	152328	102.340	12.292485	-56.630952	102.400	0.520	-0.570	0.080	102.340	-2.000	0.400																			1580052208.0	11.05	20.46
26/01/2020 15:23:29	26012020	260120	152329	102.410	12.292477	-56.630900	102.470	0.200	-0.330	0.220	102.410	-1.800	0.500																			1580052209.0	11.29	20.91
26/01/2020 15:23:30	26012020	260120	152330	102.450	12.292465	-56.630852	102.400	-0.240	-0.190	0.480	102.450	-1.600	0.700																			1580052210.0	10.94	20.26
26/01/2020 15:23:31	26012020	260120	152331	102.320	12.292453	-56.630802	102.230	-0.440	-0.410	0.790	102.320	-1.700	1.000																			1580052211.0	10.59	19.61
26/01/2020 15:23:32	26012020	260120	152332	102.160	12.292440	-56.630750	102.170	-0.390	-0.610	0.900	102.160	-2.000	1.200																			1580052212.0	10.82	20.04
26/01/2020 15:23:33	26012020	260120	152333	102.140	12.292427	-56.630698	102.200	-0.310	-0.480	0.810	102.140	-1.900	1.200																			1580052213.0	11.32	20.96
26/01/2020 15:23:34	26012020	260120	152334	102.150	12.292415	-56.630648	102.170	-0.310	-0.160	0.640	102.150	-1.700	1.100																			1580052214.0	11.28	20.89
26/01/2020 15:23:35	26012020	260120	152335	102.110	12.292403	-56.630598	102.130	-0.280	-0.000	0.400	102.110	-1.400	0.900																			1580052215.0	10.93	20.24
26/01/2020 15:23:36	26012020	260120	152336	102.080	12.292393	-56.630547	102.120	-0.130	-0.100	0.090	102.080	-1.400	0.600																			1580052216.0	10.76	19.93
26/01/2020 15:23:37	26012020	260120	152337	102.070	12.292385	-56.630495	102.180	0.090	-0.210	-0.220	102.070	-1.600	0.300																			1580052217.0	10.99	20.35
26/01/2020 15:23:38	26012020	260120	152338	102.190	12.292377	-56.630443	102.370	0.230	-0.030	-0.390	102.190	-1.500	0.000																			1580052218.0	11.26	20.85
26/01/2020 15:23:39	26012020	260120	152339	102.400	12.292367	-56.630393	102.540	0.170	0.220	-0.220	102.400	-1.200	0.100																			1580052219.0	11.18	20.71
26/01/2020 15:23:40	26012020	260120	152340	102.540	12.292357	-56.630343	102.610	0.050	0.120	0.040	102.540	-1.200	0.300																			1580052220.0	10.76	19.93
26/01/2020 15:23:41	26012020	260120	152341	102.570	12.292345	-56.630293	102.590	0.090	-0.380	0.250	102.570	-1.600	0.500																			1580052221.0	10.59	19.61
26/01/2020 15:23:42	26012020	260120	152342	102.530	12.292335	-56.630242	102.550	0.310	-0.850	0.400	102.530	-2.100	0.700																			1580052222.0	10.92	20.22
26/01/2020 15:23:43	26012020	260120	152343	102.500	12.292323	-56.630188	102.530	0.470	-1.000	0.470	102.500	-2.400	0.800																			1580052223.0	11.36	21.04
26/01/2020 15:23:44	26012020	260120	152344	102.470	12.292313	-56.630137	102.490	0.350	-0.690	0.480	102.470	-2.200	0.900																			1580052224.0	11.34	21.00
26/01/2020 15:23:45	26012020	260120	152345	102.440	12.292303	-56.630087	102.450	-0.030	-0.090	0.420	102.430	-1.700	0.800																			1580052225.0	11.11	20.58
26/01/2020 15:23:46	26012020	260120	152346	102.400	12.292293	-56.630038	102.410	-0.380	0.300	0.390	102.400	-1.200	0.800																			1580052226.0	10.71	19.83
26/01/2020 15:23:47	26012020	260120	152347	102.340	12.292282	-56.629990	102.360	-0.460	0.170	0.320	102.340	-1.100	0.700																			1580052227.0	10.44	19.33
26/01/2020 15:23:48	26012020	260120	152348	102.300	12.292270	-56.629938	102.340	-0.310	-0.240	0.190	102.300	-1.500	0.600																			1580052228.0	10.72	19.85
26/01/2020 15:23:49	26012020	260120	152349	102.310	12.292258	-56.629885	102.430	-0.170	-0.440	0.100	102.310	-1.800	0.500																			1580052229.0	11.31	20.95
26/01/2020 15:23:50	26012020	260120	152350	102.400	12.292248	-56.629833	102.520	-0.160	-0.320	0.040	102.400	-1.800	0.400																			1580052230.0	11.50	21.30
26/01/2020 15:23:51	26012020	260120	152351	102.500	12.292237	-56.629783	102.580	-0.190	-0.160	-0.030	102.500	-1.600	0.400																			1580052231.0	11.15	20.65
26/01/2020 15:23:52	26012020	260120	152352	102.560	12.292227	-56.629733	102.620	-0.060	-0.240	0.020	102.560	-1.600	0.300																			1580052232.0	10.78	19.96
26/01/2020 15:23:53	26012020	260120	152353	102.590	12.292215	-56.629682	102.620	0.180	-0.480	0.170	102.590	-1.800	0.500																			1580052233.0	10.78	19.96
26/01/2020 15:23:54	26012020	260120	152354	102.590	12.292203	-56.629630	102.600	0.310	-0.550	0.350	102.590	-1.900	0.600																			1580052234.0	11.12	20.59
26/01/2020 15:23:55	26012020	260120	152355	102.560	12.292192	-56.629578	102.580	0.260	-0.320	0.510	102.560	-1.800	0.800																			1580052235.0	11.30	20.93
26/01/2020 15:23:56	26012020	260120	152356	102.550	12.292180	-56.629530	102.570	0.160	-0.050	0.530	102.550	-1.500	0.900																			1580052236.0	11.08	20.52
26/01/2020 15:23:57	26012020	260120	152357	102.530	12.292170	-56.629478	102.530	0.150	-0.060	0.530	102.530	-1.400	0.900																			1580052237.0	10.76	19.93
26/01/2020 15:23:58	26012020	260120	152358	102.470	12.292160	-56.629428	102.480	0.180	-0.200	0.540	102.470	-1.500	0.900																			1580052238.0	10.80	20.00
26/01/2020 15:23:59	26012020	260120	152359	102.430	12.292150	-56.629375	102.470	0.110	-0.210	0.520	102.420	-1.600	0.900	1016.10	26.20	26.30	20.10	20.10	922.00	69.00	68.00	375.00	29.40	350.00	8.60	75.00	3.20	66663	3200.00	27.60	27.50	1580052239.0	11.13	20.61
26/01/2020 15:24:00	26012020	260120	152400	102.440	12.292140	-56.629325	102.560	-0.110	-0.070	0.390	102.440	-1.500	0.800																			1580052240.0	11.23	20.80
26/01/2020 15:24:01	26012020	260120	152401	102.540	12.292130	-56.629275	102.670	-0.360	0.030	0.290	102.540	-1.400	0.700																			1580052241.0	11.01	20.39
26/01/2020 15:24:02	26012020	260120	152402	102.640	12.292118	-56.629225	102.720	-0.460	0.040	0.300	102.640	-1.300	0.600																			1580052242.0	10.80	20.00
26/01/2020 15:24:03	26012020	260120	152403	102.670	12.292107	-56.629175	102.670	-0.300	-0.270	0.340	102.670	-1.500	0.700																			1580052243.0	10.76	19.93
26/01/2020 15:24:04	26012020	260120	152404	102.570	12.292095	-56.629123	102.490	0.110	-0.920	0.360	102.570	-2.000	0.700																			1580052244.0	10.80	20.00
26/01/2020 15:24:05	26012020	260120	152405	102.370	12.292083	-56.629070	102.270	0.510	-1.320	0.350	102.370	-2.600	0.700																			1580052245.0	11.21	20.76
26/01/2020 15:24:06	26012020	260120	152406	102.160	12.292072	-56.629017	102.090	0.550	-0.940	0.350	102.160	-2.600	0.700																			1580052246.0	11.68	21.63
26/01/2020 15:24:07	26012020	260120	152407	102.040	12.292062	-56.628967	102.050	0.150	-0.010	0.360	102.040	-1.700	0.700																			1580052247.0	11.54	21.37
26/01/2020 15:24:08	26012020	260120	152408	102.040	12.292053	-56.628920	102.130	-0.330	0.580	0.360	102.040	-0.900	0.700																			1580052248.0	10.75	19.91
26/01/2020 15:24:09	26012020	260120	152409	102.120	12.292042	-56.628870	102.200	-0.470	0.400	0.370	102.120	-0.800	0.700																			1580052249.0	10.23	18.95
26/01/2020 15:24:10	26012020	260120	152410	102.170	12.292030	-56.628817	102.180	-0.250	-0.130	0.360	102.170	-1.300	0.700																			1580052250.0	10.67	19.76
26/01/2020 15:24:11	26012020	260120	152411	102.140	12.292018	-56.628763	102.210	0.010	-0.370	0.350	102.140	-1.700	0.700																			1580052251.0	11.45	21.21
26/01/2020 15:24:12	26012020	260120	152412	102.220	12.292007	-56.628712	102.400	0.070	-0.170	0.350	102.220	-1.700	0.700																			1580052252.0	11.70	21.67
26/01/2020 15:24:13	26012020	260120	152413	102.390	12.291997	-56.628662	102.610	-0.030	0.150	0.220	102.440	-1.300	0.600																			1580052253.0	11.21	20.76
26/01/2020 15:24:14	26012020	260120	152414	102.620	12.291987	-56.628613	102.730	-0.110	0.210	0.010	102.620	-1.100	0.400																			1580052254.0	10.66	19.74
26/01/2020 15:24:15	26012020	260120	152415	102.710	12.291977	-56.628563	102.740	0.010	-0.170	-0.030	102.710	-1.400	0.300																			1580052255.0	10.48	19.41
26/01/2020 15:24:16	26012020	260120	152416	102.670	12.291967	-56.628512	102.600	0.320	-0.830	0.150	102.670	-2.000	0.400																			1580052256.0	10.70	19.82
26/01/2020 15:24:17	26012020	260120	152417	102.490	12.291955	-56.628458	102.310	0.580	-1.270	0.360	102.490	-2.500	0.600																			1580052257.0	11.18	20.71
26/01/2020 15:24:18	26012020	260120	152418	102.160	12.291945	-56.628407	101.940	0.530	-1.180	0.540	102.160	-2.700	0.800																			1580052258.0	11.52	21.34
26/01/2020 15:24:19	26012020	260120	152419	101.810	12.291935	-56.628355	101.720	0.160	-0.550	0.700	101.810	-2.200	1.000																			1580052259.0	11.41	21.13
26/01/2020 15:24:20	26012020	260120	152420	101.630	12.291923	-56.628307	101.690	-0.360	0.230	0.730	101.630	-1.400	1.100																			1580052260.0	11.02	20.41
26/01/2020 15:24:21	26012020	260120	152421	101.650	12.291912	-56.628258	101.790	-0.750	0.590	0.580	101.650	-0.800	1.000																			1580052261.0	10.57	19.58
26/01/2020 15:24:22	26012020	260120	152422	101.770	12.291900	-56.628208	101.940	-0.740	0.310	0.450	101.770	-0.900	0.800																			1580052262.0	10.46	19.37
26/01/2020 15:24:23	26012020	260120	152423	101.890	12.291887	-56.628155	102.000	-0.420	-0.160	0.420	101.890	-1.400	0.800																			1580052263.0	10.92	20.22
26/01/2020 15:24:24	26012020	260120	152424	101.940	12.291875	-56.628102	102.010	-0.030	-0.390	0.290	101.940	-1.700	0.700																			1580052264.0	11.54	21.37
26/01/2020 15:24:25	26012020	260120	152425	101.940	12.291863	-56.628050	102.010	0.270	-0.360	0.090	101.940	-1.800	0.500																			1580052265.0	11.54	21.37
26/01/2020 15:24:26	26012020	260120	152426	101.960	12.291855	-56.628000	102.100	0.390	-0.220	-0.080	101.960	-1.700	0.400																			1580052266.0	11.19	20.72
26/01/2020 15:24:27	26012020	260120	152427	102.090	12.291847	-56.627948	102.280	0.340	-0.120	-0.300	102.090	-1.500	0.100																			1580052267.0	10.78	19.96
26/01/2020 15:24:28	26012020	260120	152428	102.290	12.291840	-56.627898	102.450	0.270	-0.120	-0.260	102.290	-1.500	0.000																			1580052268.0	10.78	19.96
26/01/2020 15:24:29	26012020	260120	152429	102.400	12.291830	-56.627848	102.390	0.230	-0.260	0.160	102.400	-1.600	0.400																			1580052269.0	10.81	20.02
26/01/2020 15:24:30	26012020	260120	152430	102.270	12.291817	-56.627797	102.200	0.200	-0.520	0.510	102.270	-1.800	0.800																			1580052270.0	10.89	20.17
26/01/2020 15:24:31	26012020	260120	152431	102.090	12.291805	-56.627745	102.020	0.180	-0.670	0.550	102.090	-2.000	0.900																			1580052271.0	11.04	20.45
26/01/2020 15:24:32	26012020	260120	152432	101.900	12.291795	-56.627693	101.880	0.090	-0.540	0.430	101.900	-2.000	0.800																			1580052272.0	11.22	20.78
26/01/2020 15:24:33	26012020	260120	152433	101.790	12.291787	-56.627643	101.820	-0.110	-0.330	0.320	101.790	-1.800	0.700																			1580052273.0	11.15	20.65
26/01/2020 15:24:34	26012020	260120	152434	101.750	12.291775	-56.627593	101.770	-0.360	-0.150	0.400	101.750	-1.600	0.700																			1580052274.0	10.93	20.24
26/01/2020 15:24:35	26012020	260120	152435	101.700	12.291763	-56.627542	101.750	-0.580	-0.030	0.560	101.700	-1.400	0.900																			1580052275.0	10.92	20.22
26/01/2020 15:24:36	26012020	260120	152436	101.670	12.291750	-56.627492	101.740	-0.590	-0.060	0.690	101.670	-1.400	1.000																			1580052276.0	10.96	20.30
26/01/2020 15:24:37	26012020	260120	152437	101.650	12.291737	-56.627442	101.680	-0.360	-0.240	0.780	101.650	-1.500	1.100																			1580052277.0	11.01	20.39
26/01/2020 15:24:38	26012020	260120	152438	101.560	12.291725	-56.627388	101.570	0.070	-0.570	0.740	101.560	-1.800	1.100																			1580052278.0	11.14	20.63
26/01/2020 15:24:39	26012020	260120	152439	101.450	12.291715	-56.627335	101.510	0.450	-0.640	0.530	101.450	-2.100	1.000																			1580052279.0	11.32	20.96
26/01/2020 15:24:40	26012020	260120	152440	101.440	12.291707	-56.627283	101.570	0.500	-0.090	0.230	101.440	-1.700	0.700																			1580052280.0	11.55	21.39
26/01/2020 15:24:41	26012020	260120	152441	101.550	12.291698	-56.627233	101.730	0.280	0.410	0.040	101.550	-1.100	0.500																			1580052281.0	11.20	20.74
26/01/2020 15:24:42	26012020	260120	152442	101.730	12.291692	-56.627185	101.920	0.070	0.350	-0.050	101.730	-0.900	0.300																			1580052282.0	10.48	19.41
26/01/2020 15:24:43	26012020	260120	152443	101.910	12.291682	-56.627133	102.060	-0.030	-0.010	0.040	101.910	-1.200	0.300																			1580052283.0	10.56	19.56
26/01/2020 15:24:44	26012020	260120	152444	102.010	12.291672	-56.627082	102.090	-0.050	-0.310	0.360	102.010	-1.600	0.600																			1580052284.0	11.07	20.50
26/01/2020 15:24:45	26012020	260120	152445	102.000	12.291658	-56.627030	102.040	-0.020	-0.490	0.590	102.000	-1.800	0.900																			1580052285.0	11.21	20.76
26/01/2020 15:24:46	26012020	260120	152446	101.920	12.291647	-56.626980	101.910	0.070	-0.730	0.640	101.920	-2.000	1.000																			1580052286.0	11.05	20.46
26/01/2020 15:24:47	26012020	260120	152447	101.780	12.291637	-56.626928	101.720	0.180	-0.940	0.490	101.780	-2.300	0.900																			1580052287.0	10.96	20.30
26/01/2020 15:24:48	26012020	260120	152448	101.570	12.291627	-56.626877	101.460	0.200	-0.810	0.280	101.570	-2.300	0.700																			1580052288.0	11.16	20.67
26/01/2020 15:24:49	26012020	260120	152449	101.370	12.291618	-56.626825	101.250	0.090	-0.420	0.190	101.330	-1.900	0.600																			1580052289.0	11.25	20.84
26/01/2020 15:24:50	26012020	260120	152450	101.140	12.291610	-56.626775	101.140	-0.060	-0.140	0.200	101.140	-1.600	0.500																			1580052290.0	11.01	20.39
26/01/2020 15:24:51	26012020	260120	152451	101.070	12.291600	-56.626723	101.180	-0.240	-0.040	0.290	101.070	-1.400	0.600																			1580052291.0	10.86	20.11
26/01/2020 15:24:52	26012020	260120	152452	101.150	12.291588	-56.626672	101.320	-0.490	0.200	0.500	101.150	-1.300	0.800																			1580052292.0	11.12	20.59
26/01/2020 15:24:53	26012020	260120	152453	101.310	12.291575	-56.626622	101.530	-0.690	0.470	0.710	101.310	-1.000	1.000																			1580052293.0	11.27	20.87
26/01/2020 15:24:54	26012020	260120	152454	101.490	12.291562	-56.626572	101.640	-0.580	0.280	0.790	101.490	-1.000	1.100																			1580052294.0	10.93	20.24
26/01/2020 15:24:55	26012020	260120	152455	101.580	12.291550	-56.626520	101.680	-0.100	-0.320	0.660	101.580	-1.500	1.100																			1580052295.0	10.77	19.95
26/01/2020 15:24:56	26012020	260120	152456	101.620	12.291540	-56.626467	101.730	0.450	-0.700	0.340	101.620	-2.000	0.800																			1580052296.0	11.21	20.76
26/01/2020 15:24:57	26012020	260120	152457	101.700	12.291532	-56.626413	101.830	0.760	-0.670	0.060	101.700	-2.100	0.500																			1580052297.0	11.58	21.45
26/01/2020 15:24:58	26012020	260120	152458	101.790	12.291525	-56.626363	101.870	0.730	-0.470	-0.120	101.790	-1.900	0.300																			1580052298.0	11.27	20.87
26/01/2020 15:24:59	26012020	260120	152459	101.820	12.291518	-56.626312	101.900	0.390	-0.140	-0.160	101.820	-1.600	0.200	1016.00	26.20	26.30	19.80	19.80	922.00	67.00	67.00	374.00	29.40	354.00	8.70	84.00	3.10	66737	3278.00	27.50	27.50	1580052299.0	10.90	20.19
26/01/2020 15:25:00	26012020	260120	152500	101.850	12.291510	-56.626263	101.930	-0.090	0.170	0.040	101.850	-1.300	0.300																			1580052300.0	10.82	20.04
26/01/2020 15:25:01	26012020	260120	152501	101.870	12.291498	-56.626213	101.920	-0.340	0.070	0.370	101.870	-1.200	0.600																			1580052301.0	10.62	19.67
26/01/2020 15:25:02	26012020	260120	152502	101.830	12.291487	-56.626163	101.840	-0.210	-0.540	0.670	101.830	-1.700	0.900																			1580052302.0	10.59	19.61
26/01/2020 15:25:03	26012020	260120	152503	101.750	12.291473	-56.626108	101.740	0.050	-1.030	0.740	101.720	-2.300	1.100																			1580052303.0	11.09	20.54
26/01/2020 15:25:04	26012020	260120	152504	101.610	12.291463	-56.626055	101.610	0.090	-0.850	0.630	101.610	-2.400	1.000																			1580052304.0	11.73	21.72
26/01/2020 15:25:05	26012020	260120	152505	101.490	12.291453	-56.626005	101.490	-0.160	-0.230	0.460	101.490	-1.800	0.900																			1580052305.0	11.60	21.48
26/01/2020 15:25:06	26012020	260120	152506	101.400	12.291443	-56.625955	101.480	-0.420	0.180	0.290	101.400	-1.300	0.700																			1580052306.0	10.91	20.21
26/01/2020 15:25:07	26012020	260120	152507	101.420	12.291433	-56.625905	101.540	-0.470	0.220	0.190	101.420	-1.100	0.600																			1580052307.0	10.56	19.56
26/01/2020 15:25:08	26012020	260120	152508	101.510	12.291422	-56.625853	101.710	-0.340	0.090	0.080	101.510	-1.200	0.500																			1580052308.0	10.87	20.13
26/01/2020 15:25:09	26012020	260120	152509	101.700	12.291410	-56.625802	101.880	-0.110	-0.100	0.030	101.700	-1.400	0.400																			1580052309.0	11.17	20.69
26/01/2020 15:25:10	26012020	260120	152510	101.840	12.291400	-56.625750	102.010	0.120	-0.250	0.050	101.840	-1.600	0.400																			1580052310.0	11.24	20.82
26/01/2020 15:25:11	26012020	260120	152511	101.970	12.291388	-56.625698	102.120	0.300	-0.290	0.010	101.970	-1.700	0.400																			1580052311.0	11.20	20.74
26/01/2020 15:25:12	26012020	260120	152512	102.050	12.291380	-56.625647	102.130	0.450	-0.300	0.070	102.050	-1.700	0.400																			1580052312.0	11.08	20.52
26/01/2020 15:25:13	26012020	260120	152513	102.040	12.291372	-56.625597	102.170	0.490	-0.320	0.130	102.040	-1.700	0.500																			1580052313.0	10.95	20.28
26/01/2020 15:25:14	26012020	260120	152514	102.120	12.291362	-56.625545	102.320	0.280	-0.250	0.240	102.120	-1.700	0.500																			1580052314.0	10.96	20.30
26/01/2020 15:25:15	26012020	260120	152515	102.260	12.291353	-56.625495	102.360	-0.090	-0.210	0.500	102.260	-1.600	0.700																			1580052315.0	10.97	20.32
26/01/2020 15:25:16	26012020	260120	152516	102.240	12.291342	-56.625445	102.180	-0.260	-0.520	0.810	102.240	-1.700	1.000																			1580052316.0	10.79	19.98
26/01/2020 15:25:17	26012020	260120	152517	101.990	12.291328	-56.625393	101.860	-0.090	-1.000	1.010	101.990	-2.200	1.300																			1580052317.0	10.87	20.13
26/01/2020 15:25:18	26012020	260120	152518	101.680	12.291317	-56.625338	101.680	0.120	-0.950	0.850	101.680	-2.400	1.300																			1580052318.0	11.41	21.13
26/01/2020 15:25:19	26012020	260120	152519	101.560	12.291307	-56.625287	101.660	-0.000	-0.110	0.450	101.560	-1.900	1.000																			1580052319.0	11.75	21.76
26/01/2020 15:25:20	26012020	260120	152520	101.590	12.291297	-56.625238	101.730	-0.390	0.690	0.090	101.590	-0.900	0.600																			1580052320.0	11.20	20.74
26/01/2020 15:25:21	26012020	260120	152521	101.680	12.291288	-56.625190	101.880	-0.570	0.650	-0.150	101.680	-0.600	0.300																			1580052321.0	10.33	19.13
26/01/2020 15:25:22	26012020	260120	152522	101.850	12.291277	-56.625138	102.080	-0.320	-0.040	-0.190	101.850	-1.100	0.200																			1580052322.0	10.37	19.21
26/01/2020 15:25:23	26012020	260120	152523	102.030	12.291265	-56.625085	102.240	0.120	-0.590	-0.140	102.030	-1.800	0.200																			1580052323.0	11.24	20.82
26/01/2020 15:25:24	26012020	260120	152524	102.180	12.291255	-56.625032	102.400	0.390	-0.580	-0.080	102.180	-2.000	0.300																			1580052324.0	11.77	21.80
26/01/2020 15:25:25	26012020	260120	152525	102.350	12.291245	-56.624982	102.550	0.360	-0.200	-0.010	102.350	-1.700	0.300																			1580052325.0	11.45	21.21
26/01/2020 15:25:26	26012020	260120	152526	102.470	12.291235	-56.624933	102.540	0.160	-0.040	0.110	102.470	-1.400	0.400																			1580052326.0	10.77	19.95
26/01/2020 15:25:27	26012020	260120	152527	102.390	12.291225	-56.624883	102.340	0.050	-0.310	0.270	102.390	-1.500	0.600																			1580052327.0	10.43	19.32
26/01/2020 15:25:28	26012020	260120	152528	102.160	12.291215	-56.624832	102.180	0.130	-0.700	0.340	102.160	-1.900	0.700																			1580052328.0	10.72	19.85
26/01/2020 15:25:29	26012020	260120	152529	102.040	12.291203	-56.624778	102.130	0.270	-0.850	0.320	102.040	-2.200	0.700																			1580052329.0	11.25	20.84
26/01/2020 15:25:30	26012020	260120	152530	102.010	12.291193	-56.624727	102.050	0.220	-0.660	0.230	102.010	-2.100	0.600																			1580052330.0	11.42	21.15
26/01/2020 15:25:31	26012020	260120	152531	101.920	12.291183	-56.624675	101.990	-0.070	-0.150	0.170	101.920	-1.700	0.500																			1580052331.0	11.27	20.87
26/01/2020 15:25:32	26012020	260120	152532	101.900	12.291173	-56.624627	102.090	-0.480	0.470	0.140	101.900	-1.100	0.500																			1580052332.0	10.99	20.35
26/01/2020 15:25:33	26012020	260120	152533	102.030	12.291162	-56.624578	102.190	-0.730	0.620	0.040	102.030	-0.700	0.400																			1580052333.0	10.65	19.72
26/01/2020 15:25:34	26012020	260120	152534	102.100	12.291150	-56.624528	102.180	-0.550	0.080	-0.100	102.100	-1.000	0.300																			1580052334.0	10.48	19.41
26/01/2020 15:25:35	26012020	260120	152535	102.080	12.291138	-56.624473	102.150	-0.010	-0.700	-0.200	102.080	-1.800	0.200																			1580052335.0	10.89	20.17
26/01/2020 15:25:36	26012020	260120	152536	102.050	12.291127	-56.624420	102.070	0.500	-0.990	-0.260	102.050	-2.300	0.100																			1580052336.0	11.59	21.46
26/01/2020 15:25:37	26012020	260120	152537	101.960	12.291117	-56.624367	101.970	0.610	-0.580	-0.320	101.960	-2.200	0.000																			1580052337.0	11.80	21.85
26/01/2020 15:25:38	26012020	260120	152538	101.870	12.291108	-56.624318	101.890	0.370	0.010	-0.220	101.870	-1.500	0.100																			1580052338.0	11.24	20.82
26/01/2020 15:25:39	26012020	260120	152539	101.810	12.291098	-56.624270	101.870	0.170	0.080	-0.030	101.790	-1.200	0.300																			1580052339.0	10.47	19.39
26/01/2020 15:25:40	26012020	260120	152540	101.790	12.291088	-56.624218	101.920	0.180	-0.300	0.100	101.790	-1.500	0.400																			1580052340.0	10.39	19.24
26/01/2020 15:25:41	26012020	260120	152541	101.830	12.291077	-56.624167	101.930	0.110	-0.400	0.370	101.830	-1.800	0.600																			1580052341.0	11.07	20.50
26/01/2020 15:25:42	26012020	260120	152542	101.820	12.291065	-56.624115	101.960	-0.190	-0.090	0.790	101.820	-1.600	1.000																			1580052342.0	11.52	21.34
26/01/2020 15:25:43	26012020	260120	152543	101.840	12.291052	-56.624067	101.980	-0.470	0.110	1.000	101.840	-1.300	1.300																			1580052343.0	11.08	20.52
26/01/2020 15:25:44	26012020	260120	152544	101.840	12.291040	-56.624018	101.950	-0.400	-0.160	0.880	101.840	-1.400	1.300																			1580052344.0	10.57	19.58
26/01/2020 15:25:45	26012020	260120	152545	101.820	12.291028	-56.623965	101.970	-0.120	-0.500	0.500	101.820	-1.800	1.000																			1580052345.0	10.73	19.87
26/01/2020 15:25:46	26012020	260120	152546	101.880	12.291020	-56.623913	102.070	0.100	-0.520	0.210	101.880	-1.900	0.600																			1580052346.0	11.27	20.87
26/01/2020 15:25:47	26012020	260120	152547	101.970	12.291010	-56.623862	102.070	0.100	-0.330	0.120	101.970	-1.800	0.500																			1580052347.0	11.29	20.91
26/01/2020 15:25:48	26012020	260120	152548	101.940	12.291000	-56.623812	101.950	0.020	-0.250	0.170	101.940	-1.600	0.500																			1580052348.0	10.93	20.24
26/01/2020 15:25:49	26012020	260120	152549	101.780	12.290990	-56.623762	101.710	0.070	-0.370	0.390	101.780	-1.700	0.700																			1580052349.0	10.72	19.85
26/01/2020 15:25:50	26012020	260120	152550	101.520	12.290978	-56.623710	101.450	0.310	-0.550	0.460	101.520	-1.900	0.800																			1580052350.0	10.92	20.22
26/01/2020 15:25:51	26012020	260120	152551	101.310	12.290968	-56.623657	101.350	0.500	-0.550	0.260	101.280	-1.900	0.700																			1580052351.0	11.21	20.76
26/01/2020 15:25:52	26012020	260120	152552	101.270	12.290960	-56.623605	101.520	0.410	-0.210	0.070	101.270	-1.700	0.500																			1580052352.0	11.35	21.02
26/01/2020 15:25:53	26012020	260120	152553	101.450	12.290952	-56.623555	101.780	0.010	0.310	0.030	101.500	-1.200	0.400																			1580052353.0	11.20	20.74
26/01/2020 15:25:54	26012020	260120	152554	101.730	12.290942	-56.623507	101.900	-0.450	0.590	0.310	101.730	-0.800	0.500																			1580052354.0	10.79	19.98
26/01/2020 15:25:55	26012020	260120	152555	101.820	12.290930	-56.623458	101.990	-0.640	0.240	0.580	101.820	-0.900	0.900																			1580052355.0	10.48	19.41
26/01/2020 15:25:56	26012020	260120	152556	101.920	12.290917	-56.623407	102.090	-0.380	-0.500	0.580	101.920	-1.600	0.900																			1580052356.0	10.64	19.71
26/01/2020 15:25:57	26012020	260120	152557	101.980	12.290905	-56.623353	102.020	0.030	-0.990	0.450	101.980	-2.200	0.900																			1580052357.0	11.24	20.82
26/01/2020 15:25:58	26012020	260120	152558	101.870	12.290895	-56.623300	101.830	0.280	-0.990	0.320	101.870	-2.400	0.700																			1580052358.0	11.59	21.46
26/01/2020 15:25:59	26012020	260120	152559	101.670	12.290885	-56.623250	101.620	0.280	-0.580	0.250	101.670	-2.100	0.600	1016.10	26.20	26.30	19.60	19.70	938.00	67.00	67.00	374.00	29.50	356.00	8.90	90.00	3.20	67586	3196.00	27.60	27.50	1580052359.0	11.34	21.00
26/01/2020 15:26:00	26012020	260120	152600	101.500	12.290875	-56.623200	101.580	0.090	-0.040	0.050	101.500	-1.600	0.500																			1580052360.0	10.92	20.22
26/01/2020 15:26:01	26012020	260120	152601	101.510	12.290867	-56.623150	101.710	-0.110	0.270	-0.160	101.510	-1.200	0.200																			1580052361.0	10.62	19.67
26/01/2020 15:26:02	26012020	260120	152602	101.670	12.290858	-56.623100	101.810	-0.120	0.160	-0.090	101.670	-1.100	0.200																			1580052362.0	10.56	19.56
26/01/2020 15:26:03	26012020	260120	152603	101.710	12.290847	-56.623048	101.760	0.050	-0.190	0.080	101.710	-1.400	0.400																			1580052363.0	10.80	20.00
26/01/2020 15:26:04	26012020	260120	152604	101.640	12.290835	-56.622997	101.730	0.240	-0.390	0.130	101.640	-1.700	0.500																			1580052364.0	11.19	20.72
26/01/2020 15:26:05	26012020	260120	152605	101.640	12.290825	-56.622945	101.830	0.270	-0.320	0.110	101.640	-1.700	0.500																			1580052365.0	11.40	21.11
26/01/2020 15:26:06	26012020	260120	152606	101.770	12.290817	-56.622895	101.980	0.190	-0.270	0.020	101.770	-1.600	0.400																			1580052366.0	11.12	20.59
26/01/2020 15:26:07	26012020	260120	152607	101.900	12.290808	-56.622843	101.960	0.090	-0.380	0.030	101.900	-1.700	0.400																			1580052367.0	10.80	20.00
26/01/2020 15:26:08	26012020	260120	152608	101.800	12.290797	-56.622792	101.770	-0.060	-0.450	0.340	101.800	-1.800	0.600																			1580052368.0	10.89	20.17
26/01/2020 15:26:09	26012020	260120	152609	101.600	12.290787	-56.622742	101.640	-0.260	-0.430	0.570	101.600	-1.800	0.900																			1580052369.0	11.08	20.52
26/01/2020 15:26:10	26012020	260120	152610	101.510	12.290775	-56.622690	101.640	-0.380	-0.450	0.500	101.510	-1.800	0.900																			1580052370.0	11.07	20.50
26/01/2020 15:26:11	26012020	260120	152611	101.500	12.290763	-56.622638	101.570	-0.310	-0.560	0.480	101.500	-1.900	0.800																			1580052371.0	11.00	20.37
26/01/2020 15:26:12	26012020	260120	152612	101.440	12.290752	-56.622587	101.560	-0.170	-0.410	0.510	101.440	-1.900	0.900																			1580052372.0	11.18	20.71
26/01/2020 15:26:13	26012020	260120	152613	101.460	12.290738	-56.622537	101.650	-0.190	0.180	0.440	101.460	-1.400	0.800																			1580052373.0	11.40	21.11
26/01/2020 15:26:14	26012020	260120	152614	101.590	12.290728	-56.622488	101.780	-0.270	0.690	0.200	101.590	-0.800	0.700																			1580052374.0	11.06	20.48
26/01/2020 15:26:15	26012020	260120	152615	101.690	12.290718	-56.622438	101.870	-0.070	0.430	-0.150	101.720	-0.700	0.300																			1580052375.0	10.45	19.35
26/01/2020 15:26:16	26012020	260120	152616	101.800	12.290710	-56.622387	101.930	0.430	-0.430	-0.350	101.800	-1.500	0.000																			1580052376.0	10.47	19.39
26/01/2020 15:26:17	26012020	260120	152617	101.880	12.290702	-56.622332	102.040	0.770	-0.870	-0.310	101.880	-2.200	-0.000																			1580052377.0	11.30	20.93
26/01/2020 15:26:18	26012020	260120	152618	102.010	12.290692	-56.622278	102.150	0.600	-0.460	-0.040	102.010	-2.000	0.200																			1580052378.0	11.84	21.93
26/01/2020 15:26:19	26012020	260120	152619	102.080	12.290683	-56.622232	102.140	0.140	0.040	0.270	102.080	-1.500	0.500																			1580052379.0	11.17	20.69
26/01/2020 15:26:20	26012020	260120	152620	102.020	12.290673	-56.622185	101.990	-0.120	-0.220	0.530	102.020	-1.400	0.800																			1580052380.0	10.19	18.87
26/01/2020 15:26:21	26012020	260120	152621	101.840	12.290662	-56.622132	101.810	-0.100	-0.890	0.700	101.840	-2.000	1.000																			1580052381.0	10.26	19.00
26/01/2020 15:26:22	26012020	260120	152622	101.670	12.290650	-56.622078	101.740	-0.120	-0.940	0.730	101.670	-2.400	1.100																			1580052382.0	11.29	20.91
26/01/2020 15:26:23	26012020	260120	152623	101.650	12.290637	-56.622027	101.840	-0.330	-0.260	0.620	101.650	-1.900	1.000																			1580052383.0	11.75	21.76
26/01/2020 15:26:24	26012020	260120	152624	101.770	12.290627	-56.621980	101.910	-0.500	0.240	0.460	101.770	-1.200	0.900																			1580052384.0	11.00	20.37
26/01/2020 15:26:25	26012020	260120	152625	101.810	12.290615	-56.621932	101.860	-0.400	0.060	0.260	101.810	-1.200	0.700																			1580052385.0	10.30	19.08
26/01/2020 15:26:26	26012020	260120	152626	101.760	12.290603	-56.621878	101.850	-0.110	-0.300	-0.030	101.760	-1.600	0.400																			1580052386.0	10.66	19.74
26/01/2020 15:26:27	26012020	260120	152627	101.770	12.290593	-56.621825	101.900	0.190	-0.320	-0.220	101.770	-1.700	0.200																			1580052387.0	11.40	21.11
26/01/2020 15:26:28	26012020	260120	152628	101.830	12.290585	-56.621773	101.980	0.340	-0.190	-0.200	101.830	-1.600	0.100																			1580052388.0	11.46	21.22
26/01/2020 15:26:29	26012020	260120	152629	101.900	12.290575	-56.621723	102.060	0.300	-0.160	-0.050	101.920	-1.500	0.200																			1580052389.0	11.01	20.39
26/01/2020 15:26:30	26012020	260120	152630	101.980	12.290565	-56.621673	102.110	0.120	-0.190	0.180	101.980	-1.500	0.400																			1580052390.0	10.88	20.15
26/01/2020 15:26:31	26012020	260120	152631	102.040	12.290555	-56.621622	102.220	-0.080	-0.190	0.410	102.040	-1.600	0.700																			1580052391.0	10.96	20.30
26/01/2020 15:26:32	26012020	260120	152632	102.150	12.290543	-56.621572	102.300	-0.230	-0.070	0.650	102.150	-1.500	0.900																			1580052392.0	10.98	20.33
26/01/2020 15:26:33	26012020	260120	152633	102.180	12.290530	-56.621523	102.220	-0.270	-0.130	0.700	102.180	-1.400	1.100																			1580052393.0	10.88	20.15
26/01/2020 15:26:34	26012020	260120	152634	102.060	12.290518	-56.621472	102.100	-0.150	-0.380	0.570	102.060	-1.700	1.000																			1580052394.0	10.75	19.91
26/01/2020 15:26:35	26012020	260120	152635	101.970	12.290508	-56.621420	102.100	0.030	-0.460	0.310	101.970	-1.800	0.800																			1580052395.0	10.98	20.33
26/01/2020 15:26:36	26012020	260120	152636	102.020	12.290498	-56.621370	102.180	0.170	-0.360	0.020	102.020	-1.800	0.500																			1580052396.0	11.17	20.69
26/01/2020 15:26:37	26012020	260120	152637	102.100	12.290490	-56.621320	102.140	0.240	-0.290	-0.080	102.100	-1.700	0.300																			1580052397.0	10.96	20.30
26/01/2020 15:26:38	26012020	260120	152638	102.020	12.290480	-56.621268	102.010	0.230	-0.300	-0.060	102.020	-1.700	0.300																			1580052398.0	10.81	20.02
26/01/2020 15:26:39	26012020	260120	152639	101.880	12.290470	-56.621218	101.910	0.200	-0.340	0.040	101.880	-1.700	0.400																			1580052399.0	10.91	20.21
26/01/2020 15:26:40	26012020	260120	152640	101.810	12.290460	-56.621167	101.940	0.150	-0.340	0.160	101.810	-1.700	0.500																			1580052400.0	10.99	20.35
26/01/2020 15:26:41	26012020	260120	152641	101.850	12.290450	-56.621115	102.040	0.050	-0.380	0.260	101.870	-1.700	0.600																			1580052401.0	11.05	20.46
26/01/2020 15:26:42	26012020	260120	152642	101.940	12.290438	-56.621063	102.000	-0.030	-0.510	0.540	101.940	-1.800	0.800																			1580052402.0	11.02	20.41
26/01/2020 15:26:43	26012020	260120	152643	101.880	12.290425	-56.621012	101.860	-0.120	-0.440	0.750	101.840	-1.900	1.100																			1580052403.0	11.12	20.59
26/01/2020 15:26:44	26012020	260120	152644	101.730	12.290413	-56.620962	101.810	-0.270	-0.100	0.640	101.730	-1.600	1.000																			1580052404.0	11.27	20.87
26/01/2020 15:26:45	26012020	260120	152645	101.690	12.290402	-56.620912	101.790	-0.420	0.150	0.480	101.690	-1.300	0.900																			1580052405.0	11.05	20.46
26/01/2020 15:26:46	26012020	260120	152646	101.670	12.290392	-56.620862	101.760	-0.450	0.080	0.380	101.670	-1.200	0.800																			1580052406.0	10.76	19.93
26/01/2020 15:26:47	26012020	260120	152647	101.650	12.290382	-56.620810	101.770	-0.340	-0.090	0.240	101.650	-1.400	0.700																			1580052407.0	10.87	20.13
26/01/2020 15:26:48	26012020	260120	152648	101.690	12.290370	-56.620758	101.860	-0.140	-0.130	0.050	101.690	-1.500	0.500																			1580052408.0	11.15	20.65
26/01/2020 15:26:49	26012020	260120	152649	101.800	12.290360	-56.620707	101.980	0.110	-0.160	-0.090	101.800	-1.500	0.300																			1580052409.0	11.16	20.67
26/01/2020 15:26:50	26012020	260120	152650	101.900	12.290350	-56.620657	102.020	0.380	-0.350	-0.090	101.900	-1.600	0.300																			1580052410.0	10.94	20.26
26/01/2020 15:26:51	26012020	260120	152651	101.910	12.290340	-56.620605	101.960	0.630	-0.590	0.040	101.910	-1.900	0.300																			1580052411.0	10.92	20.22
26/01/2020 15:26:52	26012020	260120	152652	101.810	12.290330	-56.620553	101.770	0.770	-0.670	0.280	101.810	-2.000	0.600																			1580052412.0	11.10	20.56
26/01/2020 15:26:53	26012020	260120	152653	101.610	12.290322	-56.620502	101.660	0.660	-0.560	0.370	101.610	-2.000	0.700																			1580052413.0	11.18	20.71
26/01/2020 15:26:54	26012020	260120	152654	101.550	12.290313	-56.620450	101.730	0.270	-0.250	0.390	101.550	-1.800	0.700																			1580052414.0	11.10	20.56
26/01/2020 15:26:55	26012020	260120	152655	101.660	12.290303	-56.620402	101.890	-0.290	0.100	0.520	101.660	-1.400	0.800																			1580052415.0	10.95	20.28
26/01/2020 15:26:56	26012020	260120	152656	101.820	12.290292	-56.620352	102.010	-0.750	0.180	0.630	101.820	-1.200	0.900																			1580052416.0	10.74	19.89
26/01/2020 15:26:57	26012020	260120	152657	101.900	12.290278	-56.620302	102.000	-0.830	-0.180	0.650	101.900	-1.400	1.000																			1580052417.0	10.64	19.71
26/01/2020 15:26:58	26012020	260120	152658	101.850	12.290265	-56.620250	101.880	-0.600	-0.570	0.580	101.850	-1.800	1.000																			1580052418.0	10.96	20.30
26/01/2020 15:26:59	26012020	260120	152659	101.720	12.290253	-56.620197	101.760	-0.290	-0.580	0.370	101.720	-2.000	0.800	1016.00	26.30	26.30	19.50	19.60	944.00	66.00	66.00	373.00	29.50	357.00	8.90	93.00	3.30	67932	3156.00	27.60	27.50	1580052419.0	11.45	21.21
26/01/2020 15:27:00	26012020	260120	152700	101.640	12.290242	-56.620147	101.720	-0.060	-0.290	0.070	101.640	-1.800	0.500																			1580052420.0	11.44	21.19
26/01/2020 15:27:01	26012020	260120	152701	101.620	12.290233	-56.620097	101.730	0.110	-0.150	-0.260	101.620	-1.500	0.200																			1580052421.0	11.03	20.43
26/01/2020 15:27:02	26012020	260120	152702	101.650	12.290225	-56.620045	101.760	0.340	-0.370	-0.490	101.650	-1.600	-0.100																			1580052422.0	10.76	19.93
26/01/2020 15:27:03	26012020	260120	152703	101.680	12.290217	-56.619992	101.790	0.610	-0.520	-0.530	101.680	-1.900	-0.200																			1580052423.0	11.00	20.37
26/01/2020 15:27:04	26012020	260120	152704	101.710	12.290207	-56.619938	101.830	0.640	-0.220	-0.230	101.710	-1.700	-0.000																			1580052424.0	11.45	21.21
26/01/2020 15:27:05	26012020	260120	152705	101.750	12.290197	-56.619888	101.890	0.310	0.210	0.240	101.750	-1.300	0.400																			1580052425.0	11.35	21.02
26/01/2020 15:27:06	26012020	260120	152706	101.820	12.290185	-56.619840	102.000	-0.160	0.350	0.580	101.820	-1.000	0.800																			1580052426.0	10.78	19.96
26/01/2020 15:27:07	26012020	260120	152707	101.930	12.290173	-56.619790	102.120	-0.440	0.100	0.680	101.930	-1.200	1.000																			1580052427.0	10.56	19.56
26/01/2020 15:27:08	26012020	260120	152708	102.040	12.290162	-56.619738	102.240	-0.450	-0.270	0.590	102.040	-1.500	1.000																			1580052428.0	10.81	20.02
26/01/2020 15:27:09	26012020	260120	152709	102.150	12.290150	-56.619687	102.270	-0.330	-0.480	0.530	102.150	-1.800	0.900																			1580052429.0	11.13	20.61
26/01/2020 15:27:10	26012020	260120	152710	102.130	12.290138	-56.619637	102.130	-0.200	-0.540	0.570	102.130	-1.900	0.900																			1580052430.0	11.17	20.69
26/01/2020 15:27:11	26012020	260120	152711	101.940	12.290127	-56.619587	101.830	-0.010	-0.660	0.600	101.940	-2.000	0.900																			1580052431.0	10.95	20.28
26/01/2020 15:27:12	26012020	260120	152712	101.610	12.290117	-56.619535	101.490	0.250	-0.910	0.580	101.610	-2.200	1.000																			1580052432.0	10.87	20.13
26/01/2020 15:27:13	26012020	260120	152713	101.280	12.290107	-56.619482	101.260	0.500	-1.050	0.460	101.280	-2.400	0.900																			1580052433.0	11.11	20.58
26/01/2020 15:27:14	26012020	260120	152714	101.110	12.290097	-56.619428	101.210	0.540	-0.710	0.240	101.110	-2.300	0.700																			1580052434.0	11.45	21.21
26/01/2020 15:27:15	26012020	260120	152715	101.110	12.290088	-56.619377	101.290	0.230	0.090	0.220	101.110	-1.600	0.500																			1580052435.0	11.50	21.30
26/01/2020 15:27:16	26012020	260120	152716	101.230	12.290078	-56.619328	101.480	-0.260	0.800	0.450	101.230	-0.800	0.700																			1580052436.0	11.09	20.54
26/01/2020 15:27:17	26012020	260120	152717	101.420	12.290065	-56.619280	101.700	-0.610	0.990	0.620	101.420	-0.400	0.900																			1580052437.0	10.57	19.58
26/01/2020 15:27:18	26012020	260120	152718	101.650	12.290053	-56.619230	101.970	-0.610	0.630	0.560	101.650	-0.600	1.000																			1580052438.0	10.56	19.56
26/01/2020 15:27:19	26012020	260120	152719	101.880	12.290042	-56.619178	102.230	-0.270	-0.040	0.320	101.930	-1.200	0.800																			1580052439.0	10.90	20.19
26/01/2020 15:27:20	26012020	260120	152720	102.180	12.290032	-56.619125	102.440	0.160	-0.700	0.010	102.180	-1.900	0.500																			1580052440.0	11.21	20.76
26/01/2020 15:27:21	26012020	260120	152721	102.370	12.290023	-56.619073	102.510	0.390	-0.970	-0.160	102.370	-2.300	0.200																			1580052441.0	11.39	21.09
26/01/2020 15:27:22	26012020	260120	152722	102.390	12.290015	-56.619022	102.410	0.330	-0.790	-0.080	102.390	-2.300	0.200																			1580052442.0	11.28	20.89
26/01/2020 15:27:23	26012020	260120	152723	102.240	12.290005	-56.618973	102.110	0.170	-0.560	0.210	102.240	-2.000	0.400																			1580052443.0	10.87	20.13
26/01/2020 15:27:24	26012020	260120	152724	101.880	12.289995	-56.618923	101.710	0.150	-0.760	0.510	101.880	-2.000	0.800																			1580052444.0	10.50	19.45
26/01/2020 15:27:25	26012020	260120	152725	101.490	12.289983	-56.618872	101.390	0.320	-1.220	0.680	101.490	-2.400	1.000																			1580052445.0	10.67	19.76
26/01/2020 15:27:26	26012020	260120	152726	101.190	12.289972	-56.618815	101.130	0.380	-1.130	0.700	101.190	-2.600	1.100																			1580052446.0	11.45	21.21
26/01/2020 15:27:27	26012020	260120	152727	100.950	12.289962	-56.618763	100.970	0.050	-0.130	0.630	100.950	-1.900	1.000																			1580052447.0	11.96	22.15
26/01/2020 15:27:28	26012020	260120	152728	100.850	12.289950	-56.618715	101.030	-0.570	1.080	0.530	100.850	-0.700	0.900																			1580052448.0	11.46	21.22
26/01/2020 15:27:29	26012020	260120	152729	101.000	12.289940	-56.618668	101.400	-1.020	1.600	0.280	101.000	0.200	0.700																			1580052449.0	10.49	19.43
26/01/2020 15:27:30	26012020	260120	152730	101.440	12.289930	-56.618618	101.930	-0.940	1.060	-0.060	101.440	-0.000	0.400																			1580052450.0	10.15	18.80
26/01/2020 15:27:31	26012020	260120	152731	101.890	12.289918	-56.618565	102.350	-0.370	-0.030	-0.230	101.990	-1.000	0.200																			1580052451.0	10.68	19.78
26/01/2020 15:27:32	26012020	260120	152732	102.330	12.289907	-56.618510	102.460	0.310	-0.890	-0.160	102.330	-2.000	0.200																			1580052452.0	11.48	21.26
26/01/2020 15:27:33	26012020	260120	152733	102.360	12.289895	-56.618458	102.390	0.700	-1.130	-0.060	102.350	-2.500	0.300																			1580052453.0	11.76	21.78
26/01/2020 15:27:34	26012020	260120	152734	102.290	12.289887	-56.618408	102.360	0.680	-0.890	-0.060	102.290	-2.400	0.300																			1580052454.0	11.34	21.00
26/01/2020 15:27:35	26012020	260120	152735	102.260	12.289878	-56.618360	102.280	0.390	-0.500	-0.060	102.260	-2.000	0.300																			1580052455.0	10.74	19.89
26/01/2020 15:27:36	26012020	260120	152736	102.150	12.289870	-56.618312	102.030	0.150	-0.440	-0.000	102.150	-1.800	0.300																			1580052456.0	10.36	19.19
26/01/2020 15:27:37	26012020	260120	152737	101.840	12.289860	-56.618260	101.620	0.160	-0.820	0.180	101.840	-2.000	0.500																			1580052457.0	10.39	19.24
26/01/2020 15:27:38	26012020	260120	152738	101.430	12.289848	-56.618207	101.280	0.230	-0.990	0.420	101.430	-2.400	0.700																			1580052458.0	10.99	20.35
26/01/2020 15:27:39	26012020	260120	152739	101.140	12.289837	-56.618153	101.180	0.030	-0.410	0.440	101.140	-2.100	0.800																			1580052459.0	11.72	21.71
26/01/2020 15:27:40	26012020	260120	152740	101.100	12.289827	-56.618103	101.280	-0.390	0.480	0.370	101.100	-1.200	0.700																			1580052460.0	11.52	21.34
26/01/2020 15:27:41	26012020	260120	152741	101.240	12.289815	-56.618057	101.510	-0.680	0.840	0.330	101.240	-0.600	0.700																			1580052461.0	10.72	19.85
26/01/2020 15:27:42	26012020	260120	152742	101.480	12.289803	-56.618005	101.710	-0.550	0.350	0.190	101.480	-0.800	0.600																			1580052462.0	10.38	19.22
26/01/2020 15:27:43	26012020	260120	152743	101.630	12.289792	-56.617952	101.720	-0.160	-0.330	0.170	101.630	-1.500	0.500																			1580052463.0	10.94	20.26
26/01/2020 15:27:44	26012020	260120	152744	101.620	12.289780	-56.617898	101.720	0.080	-0.420	0.250	101.620	-1.800	0.600																			1580052464.0	11.73	21.72
26/01/2020 15:27:45	26012020	260120	152745	101.650	12.289768	-56.617847	101.890	0.000	-0.010	0.200	101.650	-1.500	0.600																			1580052465.0	11.70	21.67
26/01/2020 15:27:46	26012020	260120	152746	101.880	12.289758	-56.617800	102.160	-0.140	0.220	0.180	101.880	-1.200	0.500																			1580052466.0	10.83	20.06
26/01/2020 15:27:47	26012020	260120	152747	102.110	12.289748	-56.617752	102.240	-0.040	-0.220	0.270	102.110	-1.400	0.600																			1580052467.0	10.21	18.91
26/01/2020 15:27:48	26012020	260120	152748	102.090	12.289737	-56.617700	102.000	0.360	-0.930	0.490	102.090	-2.100	0.800																			1580052468.0	10.44	19.33
26/01/2020 15:27:49	26012020	260120	152749	101.770	12.289725	-56.617647	101.650	0.730	-1.140	0.630	101.770	-2.500	1.000																			1580052469.0	11.22	20.78
26/01/2020 15:27:50	26012020	260120	152750	101.460	12.289717	-56.617595	101.520	0.730	-0.700	0.440	101.460	-2.300	0.900																			1580052470.0	11.52	21.34
26/01/2020 15:27:51	26012020	260120	152751	101.440	12.289710	-56.617547	101.660	0.360	-0.090	0.200	101.440	-1.700	0.600																			1580052471.0	11.08	20.52
26/01/2020 15:27:52	26012020	260120	152752	101.600	12.289702	-56.617497	101.780	-0.100	0.200	0.170	101.600	-1.200	0.500																			1580052472.0	10.54	19.52
26/01/2020 15:27:53	26012020	260120	152753	101.680	12.289692	-56.617447	101.740	-0.290	-0.030	0.330	101.680	-1.300	0.600																			1580052473.0	10.47	19.39
26/01/2020 15:27:54	26012020	260120	152754	101.610	12.289680	-56.617395	101.690	-0.160	-0.440	0.520	101.610	-1.700	0.800																			1580052474.0	10.84	20.08
26/01/2020 15:27:55	26012020	260120	152755	101.560	12.289667	-56.617342	101.680	-0.040	-0.480	0.540	101.560	-1.900	0.900																			1580052475.0	11.43	21.17
26/01/2020 15:27:56	26012020	260120	152756	101.580	12.289655	-56.617290	101.750	-0.130	-0.130	0.320	101.580	-1.700	0.800																			1580052476.0	11.60	21.48
26/01/2020 15:27:57	26012020	260120	152757	101.650	12.289647	-56.617240	101.760	-0.320	0.180	0.240	101.650	-1.300	0.600																			1580052477.0	11.07	20.50
26/01/2020 15:27:58	26012020	260120	152758	101.630	12.289635	-56.617192	101.690	-0.420	0.150	0.300	101.630	-1.200	0.600																			1580052478.0	10.62	19.67
26/01/2020 15:27:59	26012020	260120	152759	101.540	12.289625	-56.617140	101.610	-0.330	-0.180	0.360	101.540	-1.400	0.700	1016.00	26.30	26.30	19.70	19.80	947.00	67.00	67.00	373.00	29.50	355.00	9.30	90.00	3.60	68081	3282.00	27.50	27.50	1580052479.0	10.67	19.76
26/01/2020 15:28:00	26012020	260120	152800	101.460	12.289613	-56.617088	101.610	-0.100	-0.520	0.410	101.460	-1.800	0.700																			1580052480.0	10.97	20.32
26/01/2020 15:28:01	26012020	260120	152801	101.490	12.289602	-56.617037	101.680	0.120	-0.610	0.540	101.490	-2.000	0.800																			1580052481.0	11.27	20.87
26/01/2020 15:28:02	26012020	260120	152802	101.550	12.289590	-56.616987	101.680	0.280	-0.510	0.700	101.550	-1.900	1.000																			1580052482.0	11.25	20.84
26/01/2020 15:28:03	26012020	260120	152803	101.530	12.289578	-56.616937	101.600	0.400	-0.280	0.590	101.530	-1.800	1.000																			1580052483.0	11.01	20.39
26/01/2020 15:28:04	26012020	260120	152804	101.450	12.289570	-56.616887	101.590	0.440	0.030	0.300	101.450	-1.500	0.800																			1580052484.0	10.87	20.13
26/01/2020 15:28:05	26012020	260120	152805	101.490	12.289563	-56.616837	101.770	0.360	0.160	0.020	101.490	-1.200	0.500																			1580052485.0	10.77	19.95
26/01/2020 15:28:06	26012020	260120	152806	101.720	12.289555	-56.616785	102.020	0.210	-0.010	-0.150	101.720	-1.300	0.200																			1580052486.0	10.68	19.78
26/01/2020 15:28:07	26012020	260120	152807	101.920	12.289547	-56.616733	102.080	0.060	-0.350	-0.030	101.940	-1.600	0.300																			1580052487.0	10.81	20.02
26/01/2020 15:28:08	26012020	260120	152808	101.930	12.289537	-56.616682	101.950	-0.050	-0.600	0.310	101.930	-1.900	0.500																			1580052488.0	11.07	20.50
26/01/2020 15:28:09	26012020	260120	152809	101.760	12.289525	-56.616632	101.740	-0.090	-0.710	0.640	101.760	-2.100	0.900																			1580052489.0	11.18	20.71
26/01/2020 15:28:10	26012020	260120	152810	101.560	12.289512	-56.616580	101.570	-0.070	-0.650	0.770	101.560	-2.100	1.100																			1580052490.0	11.12	20.59
26/01/2020 15:28:11	26012020	260120	152811	101.400	12.289502	-56.616528	101.420	-0.110	-0.450	0.650	101.400	-1.900	1.100																			1580052491.0	11.08	20.52
26/01/2020 15:28:12	26012020	260120	152812	101.260	12.289492	-56.616478	101.310	-0.230	-0.200	0.420	101.260	-1.700	0.900																			1580052492.0	11.02	20.41
26/01/2020 15:28:13	26012020	260120	152813	101.190	12.289482	-56.616427	101.320	-0.390	-0.030	0.300	101.190	-1.400	0.700																			1580052493.0	10.97	20.32
26/01/2020 15:28:14	26012020	260120	152814	101.230	12.289472	-56.616377	101.400	-0.480	0.030	0.190	101.230	-1.400	0.600																			1580052494.0	10.96	20.30
26/01/2020 15:28:15	26012020	260120	152815	101.330	12.289460	-56.616325	101.540	-0.410	0.010	0.130	101.330	-1.300	0.500																			1580052495.0	11.05	20.46
26/01/2020 15:28:16	26012020	260120	152816	101.480	12.289448	-56.616273	101.680	-0.180	-0.010	0.220	101.480	-1.400	0.500																			1580052496.0	11.11	20.58
26/01/2020 15:28:17	26012020	260120	152817	101.610	12.289437	-56.616223	101.790	0.100	0.000	0.210	101.610	-1.400	0.600																			1580052497.0	11.10	20.56
26/01/2020 15:28:18	26012020	260120	152818	101.720	12.289427	-56.616173	101.870	0.330	0.010	0.070	101.720	-1.400	0.500																			1580052498.0	11.02	20.41
26/01/2020 15:28:19	26012020	260120	152819	101.790	12.289418	-56.616122	101.900	0.500	-0.190	-0.060	101.790	-1.500	0.300																			1580052499.0	10.86	20.11
26/01/2020 15:28:20	26012020	260120	152820	101.810	12.289410	-56.616072	101.910	0.640	-0.600	-0.090	101.810	-1.800	0.300																			1580052500.0	10.80	20.00
26/01/2020 15:28:21	26012020	260120	152821	101.820	12.289402	-56.616018	101.920	0.590	-0.820	0.050	101.820	-2.200	0.300																			1580052501.0	11.04	20.45
26/01/2020 15:28:22	26012020	260120	152822	101.810	12.289393	-56.615967	101.840	0.280	-0.590	0.300	101.810	-2.100	0.600																			1580052502.0	11.31	20.95
26/01/2020 15:28:23	26012020	260120	152823	101.680	12.289383	-56.615917	101.660	-0.120	-0.240	0.580	101.680	-1.700	0.800																			1580052503.0	11.07	20.50
26/01/2020 15:28:24	26012020	260120	152824	101.490	12.289372	-56.615868	101.510	-0.410	-0.220	0.830	101.490	-1.500	1.100																			1580052504.0	10.66	19.74
26/01/2020 15:28:25	26012020	260120	152825	101.360	12.289360	-56.615817	101.460	-0.510	-0.490	0.910	101.360	-1.800	1.300																			1580052505.0	10.68	19.78
26/01/2020 15:28:26	26012020	260120	152826	101.320	12.289347	-56.615763	101.460	-0.510	-0.540	0.710	101.320	-1.900	1.200																			1580052506.0	11.19	20.72
26/01/2020 15:28:27	26012020	260120	152827	101.340	12.289335	-56.615712	101.450	-0.520	-0.110	0.440	101.340	-1.700	0.900																			1580052507.0	11.54	21.37
26/01/2020 15:28:28	26012020	260120	152828	101.330	12.289325	-56.615662	101.440	-0.510	0.310	0.190	101.330	-1.200	0.600																			1580052508.0	11.25	20.84
26/01/2020 15:28:29	26012020	260120	152829	101.350	12.289313	-56.615613	101.510	-0.290	0.220	-0.110	101.350	-1.100	0.400																			1580052509.0	10.69	19.80
26/01/2020 15:28:30	26012020	260120	152830	101.470	12.289305	-56.615560	101.670	0.150	-0.200	-0.420	101.470	-1.400	0.000																			1580052510.0	10.70	19.82
26/01/2020 15:28:31	26012020	260120	152831	101.630	12.289295	-56.615507	101.730	0.570	-0.430	-0.530	101.630	-1.800	-0.200																			1580052511.0	11.23	20.80
26/01/2020 15:28:32	26012020	260120	152832	101.650	12.289287	-56.615455	101.750	0.740	-0.310	-0.410	101.650	-1.800	-0.100																			1580052512.0	11.46	21.22
26/01/2020 15:28:33	26012020	260120	152833	101.700	12.289278	-56.615405	101.920	0.520	-0.030	-0.160	101.700	-1.500	0.100																			1580052513.0	11.18	20.71
26/01/2020 15:28:34	26012020	260120	152834	101.900	12.289270	-56.615355	102.170	0.070	0.110	0.150	101.900	-1.300	0.400																			1580052514.0	10.74	19.89
26/01/2020 15:28:35	26012020	260120	152835	102.120	12.289260	-56.615307	102.290	-0.350	-0.060	0.460	102.120	-1.300	0.700																			1580052515.0	10.53	19.50
26/01/2020 15:28:36	26012020	260120	152836	102.180	12.289248	-56.615257	102.220	-0.410	-0.610	0.720	102.180	-1.800	1.000																			1580052516.0	10.60	19.63
26/01/2020 15:28:37	26012020	260120	152837	102.050	12.289235	-56.615203	101.980	-0.100	-1.230	0.860	102.050	-2.400	1.200																			1580052517.0	10.94	20.26
26/01/2020 15:28:38	26012020	260120	152838	101.780	12.289222	-56.615150	101.700	0.200	-1.330	0.810	101.780	-2.800	1.200																			1580052518.0	11.45	21.21
26/01/2020 15:28:39	26012020	260120	152839	101.520	12.289212	-56.615098	101.520	0.090	-0.540	0.480	101.520	-2.300	1.000																			1580052519.0	11.72	21.71
26/01/2020 15:28:40	26012020	260120	152840	101.430	12.289203	-56.615050	101.600	-0.330	0.460	0.020	101.430	-1.200	0.500																			1580052520.0	11.24	20.82
26/01/2020 15:28:41	26012020	260120	152841	101.590	12.289195	-56.615002	101.840	-0.600	0.700	-0.240	101.590	-0.700	0.200																			1580052521.0	10.35	19.17
26/01/2020 15:28:42	26012020	260120	152842	101.830	12.289185	-56.614952	102.000	-0.450	0.150	-0.240	101.830	-1.000	0.100																			1580052522.0	10.22	18.93
26/01/2020 15:28:43	26012020	260120	152843	101.930	12.289172	-56.614897	101.980	-0.020	-0.410	-0.090	101.930	-1.600	0.200																			1580052523.0	11.06	20.48
26/01/2020 15:28:44	26012020	260120	152844	101.890	12.289160	-56.614843	101.960	0.400	-0.380	-0.100	101.890	-1.900	0.300																			1580052524.0	11.76	21.78
26/01/2020 15:28:45	26012020	260120	152845	101.890	12.289150	-56.614793	102.050	0.550	0.020	-0.340	101.890	-1.500	0.100																			1580052525.0	11.58	21.45
26/01/2020 15:28:46	26012020	260120	152846	102.010	12.289143	-56.614745	102.220	0.420	0.150	-0.580	102.010	-1.200	-0.200																			1580052526.0	10.83	20.06
26/01/2020 15:28:47	26012020	260120	152847	102.210	12.289137	-56.614695	102.430	0.160	-0.130	-0.560	102.210	-1.400	-0.300																			1580052527.0	10.44	19.33
26/01/2020 15:28:48	26012020	260120	152848	102.390	12.289127	-56.614643	102.520	-0.070	-0.490	-0.110	102.390	-1.800	0.000																			1580052528.0	10.72	19.85
26/01/2020 15:28:49	26012020	260120	152849	102.420	12.289115	-56.614592	102.400	-0.220	-0.770	0.520	102.420	-2.100	0.700																			1580052529.0	11.05	20.46
26/01/2020 15:28:50	26012020	260120	152850	102.210	12.289100	-56.614542	102.080	-0.280	-0.890	0.960	102.210	-2.300	1.200																			1580052530.0	11.10	20.56
26/01/2020 15:28:51	26012020	260120	152851	101.880	12.289087	-56.614492	101.790	-0.220	-0.820	1.010	101.880	-2.300	1.400																			1580052531.0	11.12	20.59
26/01/2020 15:28:52	26012020	260120	152852	101.620	12.289073	-56.614440	101.620	-0.060	-0.570	0.750	101.620	-2.100	1.200																			1580052532.0	11.11	20.58
26/01/2020 15:28:53	26012020	260120	152853	101.500	12.289063	-56.614390	101.580	0.090	-0.190	0.330	101.500	-1.700	0.900																			1580052533.0	11.07	20.50
26/01/2020 15:28:54	26012020	260120	152854	101.530	12.289055	-56.614338	101.730	0.100	0.200	-0.120	101.530	-1.300	0.400																			1580052534.0	11.01	20.39
26/01/2020 15:28:55	26012020	260120	152855	101.730	12.289047	-56.614287	102.020	-0.110	0.610	-0.360	101.730	-0.900	0.000																			1580052535.0	10.98	20.33
26/01/2020 15:28:56	26012020	260120	152856	102.030	12.289037	-56.614238	102.280	-0.340	0.770	-0.300	102.030	-0.600	0.000																			1580052536.0	10.87	20.13
26/01/2020 15:28:57	26012020	260120	152857	102.270	12.289027	-56.614188	102.440	-0.220	0.230	-0.200	102.270	-0.900	0.100																			1580052537.0	10.60	19.63
26/01/2020 15:28:58	26012020	260120	152858	102.400	12.289015	-56.614137	102.480	0.370	-0.890	-0.100	102.400	-1.900	0.200																			1580052538.0	10.64	19.71
26/01/2020 15:28:59	26012020	260120	152859	102.400	12.289005	-56.614082	102.390	0.910	-1.510	0.100	102.400	-2.800	0.400	1016.00	26.30	26.30	19.70	19.80	942.00	67.00	67.00	373.00	29.60	360.00	9.00	101.00	3.40	67868	3111.00	27.50	27.50	1580052539.0	11.34	21.00
26/01/2020 15:29:00	26012020	260120	152900	102.260	12.288995	-56.614028	102.200	0.780	-1.010	0.260	102.260	-2.700	0.600																			1580052540.0	11.98	22.19
26/01/2020 15:29:01	26012020	260120	152901	102.090	12.288987	-56.613980	102.140	-0.020	0.060	0.350	102.090	-1.700	0.700																			1580052541.0	11.45	21.21
26/01/2020 15:29:02	26012020	260120	152902	102.070	12.288977	-56.613935	102.230	-0.880	0.600	0.430	102.070	-0.900	0.800																			1580052542.0	10.31	19.09
26/01/2020 15:29:03	26012020	260120	152903	102.170	12.288963	-56.613887	102.310	-1.110	0.120	0.470	102.170	-1.000	0.800																			1580052543.0	9.84	18.22
26/01/2020 15:29:04	26012020	260120	152904	102.230	12.288948	-56.613833	102.250	-0.570	-0.740	0.450	102.230	-1.800	0.800																			1580052544.0	10.50	19.45
26/01/2020 15:29:05	26012020	260120	152905	102.130	12.288933	-56.613778	102.140	0.190	-0.960	0.250	102.130	-2.400	0.700																			1580052545.0	11.66	21.59
26/01/2020 15:29:06	26012020	260120	152906	102.060	12.288922	-56.613727	102.180	0.550	-0.340	-0.150	102.060	-2.000	0.400																			1580052546.0	12.02	22.26
26/01/2020 15:29:07	26012020	260120	152907	102.170	12.288913	-56.613678	102.420	0.400	0.510	-0.530	102.170	-1.200	-0.000																			1580052547.0	11.27	20.87
26/01/2020 15:29:08	26012020	260120	152908	102.440	12.288907	-56.613632	102.710	0.120	0.750	-0.800	102.440	-0.600	-0.400																			1580052548.0	10.32	19.11
26/01/2020 15:29:09	26012020	260120	152909	102.710	12.288900	-56.613582	102.870	0.070	0.170	-0.680	102.710	-0.900	-0.400																			1580052549.0	10.06	18.63
26/01/2020 15:29:10	26012020	260120	152910	102.800	12.288890	-56.613528	102.810	0.260	-0.740	-0.190	102.800	-1.800	-0.000																			1580052550.0	10.64	19.71
26/01/2020 15:29:11	26012020	260120	152911	102.670	12.288877	-56.613475	102.590	0.400	-1.210	0.340	102.670	-2.500	0.500																			1580052551.0	11.38	21.08
26/01/2020 15:29:12	26012020	260120	152912	102.420	12.288863	-56.613423	102.300	0.260	-0.980	0.820	102.420	-2.500	1.000																			1580052552.0	11.66	21.59
26/01/2020 15:29:13	26012020	260120	152913	102.100	12.288850	-56.613375	101.960	-0.040	-0.470	1.040	102.100	-2.000	1.400																			1580052553.0	11.21	20.76
26/01/2020 15:29:14	26012020	260120	152914	101.780	12.288838	-56.613327	101.740	-0.310	-0.090	0.830	101.780	-1.600	1.300																			1580052554.0	10.65	19.72
26/01/2020 15:29:15	26012020	260120	152915	101.640	12.288828	-56.613277	101.790	-0.420	0.050	0.370	101.640	-1.400	0.900																			1580052555.0	10.58	19.59
26/01/2020 15:29:16	26012020	260120	152916	101.780	12.288818	-56.613225	102.050	-0.390	0.080	-0.010	101.780	-1.300	0.500																			1580052556.0	10.82	20.04
26/01/2020 15:29:17	26012020	260120	152917	102.060	12.288808	-56.613175	102.290	-0.260	0.070	-0.090	102.060	-1.300	0.300																			1580052557.0	11.06	20.48
26/01/2020 15:29:18	26012020	260120	152918	102.250	12.288795	-56.613123	102.400	-0.100	0.000	0.030	102.250	-1.400	0.400																			1580052558.0	11.07	20.50
26/01/2020 15:29:19	26012020	260120	152919	102.330	12.288782	-56.613073	102.450	0.060	-0.100	0.020	102.330	-1.500	0.400																			1580052559.0	11.04	20.45
26/01/2020 15:29:20	26012020	260120	152920	102.390	12.288772	-56.613023	102.510	0.210	-0.110	-0.170	102.390	-1.500	0.300																			1580052560.0	11.00	20.37
26/01/2020 15:29:21	26012020	260120	152921	102.460	12.288763	-56.612973	102.530	0.310	-0.200	-0.330	102.460	-1.500	0.100																			1580052561.0	10.90	20.19
26/01/2020 15:29:22	26012020	260120	152922	102.450	12.288755	-56.612922	102.390	0.410	-0.500	-0.300	102.450	-1.800	0.000																			1580052562.0	10.73	19.87
26/01/2020 15:29:23	26012020	260120	152923	102.260	12.288745	-56.612870	102.100	0.450	-0.800	-0.020	102.260	-2.100	0.200																			1580052563.0	10.83	20.06
26/01/2020 15:29:24	26012020	260120	152924	101.930	12.288733	-56.612820	101.780	0.350	-0.810	0.310	101.930	-2.200	0.600																			1580052564.0	11.13	20.61
26/01/2020 15:29:25	26012020	260120	152925	101.630	12.288722	-56.612768	101.620	0.160	-0.540	0.420	101.630	-2.100	0.800																			1580052565.0	11.20	20.74
26/01/2020 15:29:26	26012020	260120	152926	101.510	12.288712	-56.612718	101.560	-0.070	-0.140	0.400	101.510	-1.700	0.800																			1580052566.0	11.01	20.39
26/01/2020 15:29:27	26012020	260120	152927	101.450	12.288702	-56.612668	101.480	-0.310	0.160	0.490	101.450	-1.300	0.800																			1580052567.0	10.83	20.06
26/01/2020 15:29:28	26012020	260120	152928	101.370	12.288688	-56.612618	101.430	-0.450	0.200	0.640	101.370	-1.200	0.900																			1580052568.0	10.78	19.96
26/01/2020 15:29:29	26012020	260120	152929	101.340	12.288675	-56.612568	101.470	-0.410	-0.010	0.650	101.340	-1.300	1.000																			1580052569.0	10.86	20.11
26/01/2020 15:29:30	26012020	260120	152930	101.400	12.288663	-56.612517	101.560	-0.220	-0.330	0.490	101.400	-1.600	0.900																			1580052570.0	11.07	20.50
26/01/2020 15:29:31	26012020	260120	152931	101.510	12.288653	-56.612463	101.650	-0.020	-0.480	0.350	101.510	-1.900	0.700																			1580052571.0	11.25	20.84
26/01/2020 15:29:32	26012020	260120	152932	101.590	12.288642	-56.612413	101.730	0.060	-0.270	0.330	101.590	-1.800	0.700																			1580052572.0	11.31	20.95
26/01/2020 15:29:33	26012020	260120	152933	101.670	12.288632	-56.612363	101.820	0.070	0.030	0.340	101.670	-1.400	0.700																			1580052573.0	11.05	20.46
26/01/2020 15:29:34	26012020	260120	152934	101.730	12.288622	-56.612315	101.760	0.140	-0.020	0.290	101.730	-1.300	0.700																			1580052574.0	10.60	19.63
26/01/2020 15:29:35	26012020	260120	152935	101.620	12.288612	-56.612265	101.590	0.320	-0.380	0.210	101.620	-1.600	0.600																			1580052575.0	10.53	19.50
26/01/2020 15:29:36	26012020	260120	152936	101.480	12.288603	-56.612212	101.570	0.490	-0.650	0.140	101.480	-2.000	0.500																			1580052576.0	10.95	20.28
26/01/2020 15:29:37	26012020	260120	152937	101.500	12.288595	-56.612160	101.660	0.510	-0.650	0.140	101.500	-2.100	0.500																			1580052577.0	11.31	20.95
26/01/2020 15:29:38	26012020	260120	152938	101.590	12.288585	-56.612108	101.740	0.320	-0.430	0.210	101.590	-1.900	0.500																			1580052578.0	11.21	20.76
26/01/2020 15:29:39	26012020	260120	152939	101.650	12.288575	-56.612058	101.720	-0.040	-0.130	0.520	101.650	-1.600	0.700																			1580052579.0	10.98	20.33
26/01/2020 15:29:40	26012020	260120	152940	101.570	12.288563	-56.612008	101.560	-0.380	-0.030	0.920	101.570	-1.400	1.200																			1580052580.0	10.77	19.95
26/01/2020 15:29:41	26012020	260120	152941	101.400	12.288550	-56.611958	101.410	-0.520	-0.230	1.020	101.400	-1.500	1.400																			1580052581.0	10.74	19.89
26/01/2020 15:29:42	26012020	260120	152942	101.250	12.288538	-56.611907	101.250	-0.450	-0.440	0.880	101.250	-1.800	1.300																			1580052582.0	11.01	20.39
26/01/2020 15:29:43	26012020	260120	152943	101.090	12.288527	-56.611853	101.100	-0.340	-0.360	0.690	101.090	-1.800	1.100																			1580052583.0	11.34	21.00
26/01/2020 15:29:44	26012020	260120	152944	100.970	12.288517	-56.611803	101.070	-0.320	-0.070	0.490	100.970	-1.600	0.900																			1580052584.0	11.34	21.00
26/01/2020 15:29:45	26012020	260120	152945	101.000	12.288507	-56.611753	101.190	-0.310	0.100	0.190	101.000	-1.300	0.700																			1580052585.0	10.98	20.33
26/01/2020 15:29:46	26012020	260120	152946	101.150	12.288497	-56.611703	101.350	-0.180	0.080	-0.170	101.150	-1.300	0.300																			1580052586.0	10.73	19.87
26/01/2020 15:29:47	26012020	260120	152947	101.310	12.288488	-56.611652	101.480	0.070	-0.070	-0.400	101.310	-1.400	0.000																			1580052587.0	10.84	20.08
26/01/2020 15:29:48	26012020	260120	152948	101.440	12.288478	-56.611602	101.530	0.450	-0.350	-0.350	101.440	-1.600	-0.000																			1580052588.0	10.96	20.30
26/01/2020 15:29:49	26012020	260120	152949	101.440	12.288468	-56.611550	101.440	0.810	-0.620	-0.080	101.440	-1.900	0.200																			1580052589.0	11.02	20.41
26/01/2020 15:29:50	26012020	260120	152950	101.330	12.288460	-56.611497	101.310	0.910	-0.650	0.130	101.330	-2.100	0.400																			1580052590.0	11.14	20.63
26/01/2020 15:29:51	26012020	260120	152951	101.200	12.288452	-56.611447	101.260	0.580	-0.400	0.300	101.200	-1.900	0.600																			1580052591.0	11.19	20.72
26/01/2020 15:29:52	26012020	260120	152952	101.160	12.288443	-56.611397	101.270	-0.050	-0.080	0.450	101.160	-1.600	0.800																			1580052592.0	10.97	20.32
26/01/2020 15:29:53	26012020	260120	152953	101.170	12.288433	-56.611347	101.260	-0.610	-0.050	0.600	101.170	-1.400	0.900																			1580052593.0	10.68	19.78
26/01/2020 15:29:54	26012020	260120	152954	101.140	12.288420	-56.611297	101.130	-0.760	-0.440	0.850	101.140	-1.600	1.100																			1580052594.0	10.62	19.67
26/01/2020 15:29:55	26012020	260120	152955	100.980	12.288407	-56.611243	100.950	-0.550	-0.790	0.980	100.980	-2.100	1.300																			1580052595.0	11.02	20.41
26/01/2020 15:29:56	26012020	260120	152956	100.800	12.288393	-56.611190	100.810	-0.350	-0.500	0.730	100.800	-2.100	1.200																			1580052596.0	11.61	21.50
26/01/2020 15:29:57	26012020	260120	152957	100.700	12.288382	-56.611140	100.780	-0.340	0.130	0.330	100.700	-1.500	0.900																			1580052597.0	11.56	21.41
26/01/2020 15:29:58	26012020	260120	152958	100.740	12.288373	-56.611092	100.920	-0.320	0.330	-0.110	100.740	-1.000	0.400																			1580052598.0	10.80	20.00
26/01/2020 15:29:59	26012020	260120	152959	100.920	12.288365	-56.611040	101.120	-0.090	-0.020	-0.390	100.920	-1.200	0.000	1016.00	26.20	26.30	19.60	19.70	932.00	67.00	67.00	372.00	29.60	358.00	8.80	95.00	3.20	67472	3218.00	27.60	27.60	1580052599.0	10.47	19.39
26/01/2020 15:30:00	26012020	260120	153000	101.110	12.288357	-56.610987	101.250	0.260	-0.310	-0.350	101.110	-1.600	-0.000																			1580052600.0	11.00	20.37
26/01/2020 15:30:01	26012020	260120	153001	101.210	12.288347	-56.610935	101.350	0.450	-0.170	-0.240	101.220	-1.600	0.100																			1580052601.0	11.48	21.26
26/01/2020 15:30:02	26012020	260120	153002	101.330	12.288337	-56.610885	101.470	0.400	0.070	-0.130	101.330	-1.400	0.200																			1580052602.0	11.24	20.82
26/01/2020 15:30:03	26012020	260120	153003	101.430	12.288328	-56.610837	101.580	0.330	-0.120	0.050	101.450	-1.400	0.300																			1580052603.0	10.64	19.71
26/01/2020 15:30:04	26012020	260120	153004	101.520	12.288318	-56.610785	101.570	0.350	-0.650	0.320	101.520	-1.800	0.600																			1580052604.0	10.51	19.46
26/01/2020 15:30:05	26012020	260120	153005	101.460	12.288308	-56.610732	101.420	0.300	-0.860	0.560	101.460	-2.200	0.900																			1580052605.0	11.04	20.45
26/01/2020 15:30:06	26012020	260120	153006	101.290	12.288298	-56.610682	101.260	0.020	-0.550	0.730	101.290	-2.100	1.000																			1580052606.0	11.44	21.19
26/01/2020 15:30:07	26012020	260120	153007	101.140	12.288287	-56.610632	101.150	-0.320	-0.180	0.740	101.140	-1.700	1.100																			1580052607.0	11.07	20.50
26/01/2020 15:30:08	26012020	260120	153008	101.050	12.288277	-56.610583	101.060	-0.490	-0.170	0.570	101.050	-1.500	1.000																			1580052608.0	10.59	19.61
26/01/2020 15:30:09	26012020	260120	153009	100.950	12.288267	-56.610532	100.940	-0.430	-0.340	0.380	100.950	-1.700	0.800																			1580052609.0	10.71	19.83
26/01/2020 15:30:10	26012020	260120	153010	100.840	12.288255	-56.610478	100.900	-0.260	-0.430	0.290	100.840	-1.800	0.700																			1580052610.0	11.18	20.71
26/01/2020 15:30:11	26012020	260120	153011	100.860	12.288243	-56.610427	101.030	-0.060	-0.310	0.130	100.860	-1.800	0.600																			1580052611.0	11.41	21.13
26/01/2020 15:30:12	26012020	260120	153012	101.030	12.288233	-56.610375	101.250	0.010	0.010	-0.040	101.030	-1.500	0.400																			1580052612.0	11.29	20.91
26/01/2020 15:30:13	26012020	260120	153013	101.260	12.288225	-56.610325	101.440	-0.090	0.340	-0.090	101.260	-1.100	0.300																			1580052613.0	11.08	20.52
26/01/2020 15:30:14	26012020	260120	153014	101.430	12.288215	-56.610275	101.600	-0.110	0.300	-0.040	101.430	-1.000	0.300																			1580052614.0	10.76	19.93
26/01/2020 15:30:15	26012020	260120	153015	101.600	12.288205	-56.610225	101.780	0.150	-0.200	0.050	101.600	-1.400	0.400																			1580052615.0	10.64	19.71
26/01/2020 15:30:16	26012020	260120	153016	101.750	12.288195	-56.610172	101.840	0.450	-0.610	0.160	101.750	-1.900	0.500																			1580052616.0	10.97	20.32
26/01/2020 15:30:17	26012020	260120	153017	101.770	12.288185	-56.610120	101.810	0.460	-0.480	0.300	101.770	-2.000	0.600																			1580052617.0	11.43	21.17
26/01/2020 15:30:18	26012020	260120	153018	101.730	12.288175	-56.610070	101.800	0.170	-0.130	0.400	101.730	-1.600	0.700																			1580052618.0	11.24	20.82
26/01/2020 15:30:19	26012020	260120	153019	101.720	12.288165	-56.610022	101.790	-0.130	-0.170	0.450	101.720	-1.500	0.800																			1580052619.0	10.58	19.59
26/01/2020 15:30:20	26012020	260120	153020	101.700	12.288155	-56.609972	101.720	-0.160	-0.650	0.490	101.700	-1.900	0.800																			1580052620.0	10.43	19.32
26/01/2020 15:30:21	26012020	260120	153021	101.580	12.288145	-56.609917	101.500	0.000	-0.930	0.490	101.580	-2.300	0.900																			1580052621.0	10.98	20.33
26/01/2020 15:30:22	26012020	260120	153022	101.330	12.288133	-56.609865	101.250	0.110	-0.720	0.500	101.330	-2.200	0.900																			1580052622.0	11.53	21.35
26/01/2020 15:30:23	26012020	260120	153023	101.120	12.288123	-56.609813	101.240	0.010	-0.280	0.340	101.120	-1.800	0.800																			1580052623.0	11.37	21.06
26/01/2020 15:30:24	26012020	260120	153024	101.210	12.288113	-56.609763	101.470	-0.240	0.070	0.080	101.210	-1.400	0.500																			1580052624.0	10.99	20.35
26/01/2020 15:30:25	26012020	260120	153025	101.460	12.288103	-56.609713	101.640	-0.420	0.330	-0.030	101.460	-1.100	0.400																			1580052625.0	10.84	20.08
26/01/2020 15:30:26	26012020	260120	153026	101.590	12.288092	-56.609663	101.670	-0.400	0.460	-0.060	101.590	-0.900	0.300																			1580052626.0	10.92	20.22
26/01/2020 15:30:27	26012020	260120	153027	101.600	12.288082	-56.609613	101.730	-0.130	0.210	-0.060	101.600	-1.000	0.300																			1580052627.0	10.89	20.17
26/01/2020 15:30:28	26012020	260120	153028	101.720	12.288070	-56.609560	101.980	0.240	-0.270	-0.130	101.720	-1.500	0.300																			1580052628.0	10.90	20.19
26/01/2020 15:30:29	26012020	260120	153029	102.010	12.288060	-56.609508	102.310	0.400	-0.490	-0.230	102.010	-1.800	0.200																			1580052629.0	11.25	20.84
26/01/2020 15:30:30	26012020	260120	153030	102.290	12.288052	-56.609457	102.400	0.310	-0.480	-0.030	102.290	-1.900	0.200																			1580052630.0	11.35	21.02
26/01/2020 15:30:31	26012020	260120	153031	102.290	12.288042	-56.609407	102.250	0.180	-0.480	0.350	102.290	-1.900	0.600																			1580052631.0	10.94	20.26
26/01/2020 15:30:32	26012020	260120	153032	102.130	12.288030	-56.609357	102.130	0.150	-0.550	0.480	102.130	-1.900	0.800																			1580052632.0	10.71	19.83
26/01/2020 15:30:33	26012020	260120	153033	102.010	12.288018	-56.609307	101.990	0.230	-0.680	0.370	102.010	-2.000	0.800																			1580052633.0	10.84	20.08
26/01/2020 15:30:34	26012020	260120	153034	101.860	12.288010	-56.609253	101.820	0.290	-0.700	0.220	101.860	-2.100	0.600																			1580052634.0	11.05	20.46
26/01/2020 15:30:35	26012020	260120	153035	101.700	12.288000	-56.609202	101.670	0.160	-0.390	0.260	101.700	-1.900	0.600																			1580052635.0	11.24	20.82
26/01/2020 15:30:36	26012020	260120	153036	101.560	12.287990	-56.609152	101.610	-0.220	0.130	0.370	101.560	-1.400	0.700																			1580052636.0	11.23	20.80
26/01/2020 15:30:37	26012020	260120	153037	101.540	12.287978	-56.609102	101.690	-0.600	0.360	0.400	101.540	-1.000	0.800																			1580052637.0	10.90	20.19
26/01/2020 15:30:38	26012020	260120	153038	101.640	12.287967	-56.609052	101.820	-0.680	0.080	0.450	101.640	-1.200	0.800																			1580052638.0	10.66	19.74
26/01/2020 15:30:39	26012020	260120	153039	101.730	12.287953	-56.609000	101.890	-0.480	-0.230	0.500	101.750	-1.500	0.900																			1580052639.0	11.00	20.37
26/01/2020 15:30:40	26012020	260120	153040	101.790	12.287940	-56.608947	101.860	-0.190	-0.200	0.430	101.790	-1.600	0.800																			1580052640.0	11.47	21.24
26/01/2020 15:30:41	26012020	260120	153041	101.750	12.287928	-56.608897	101.830	0.090	-0.070	0.290	101.750	-1.500	0.700																			1580052641.0	10.86	20.11
26/01/2020 15:30:42	26012020	260120	153042	101.750	12.287920	-56.608847	101.880	0.360	-0.210	0.090	101.750	-1.500	0.500																			1580052642.0	10.86	20.11
26/01/2020 15:30:43	26012020	260120	153043	101.800	12.287910	-56.608795	101.890	0.570	-0.520	-0.220	101.800	-1.800	0.300																			1580052643.0	10.77	19.95
26/01/2020 15:30:44	26012020	260120	153044	101.780	12.287903	-56.608743	101.800	0.630	-0.600	-0.290	101.780	-2.000	0.100																			1580052644.0	11.09	20.54
26/01/2020 15:30:45	26012020	260120	153045	101.680	12.287895	-56.608692	101.740	0.490	-0.380	-0.050	101.680	-1.900	0.200																			1580052645.0	11.28	20.89
26/01/2020 15:30:46	26012020	260120	153046	101.650	12.287885	-56.608642	101.750	0.250	-0.180	0.170	101.650	-1.600	0.500																			1580052646.0	11.00	20.37
26/01/2020 15:30:47	26012020	260120	153047	101.660	12.287875	-56.608592	101.750	0.000	-0.200	0.400	101.660	-1.600	0.700																			1580052647.0	10.71	19.83
26/01/2020 15:30:48	26012020	260120	153048	101.640	12.287863	-56.608540	101.680	-0.250	-0.270	0.700	101.640	-1.600	1.000																			1580052648.0	10.83	20.06
26/01/2020 15:30:49	26012020	260120	153049	101.530	12.287850	-56.608490	101.530	-0.470	-0.280	0.930	101.530	-1.700	1.200																			1580052649.0	11.10	20.56
26/01/2020 15:30:50	26012020	260120	153050	101.360	12.287838	-56.608438	101.360	-0.530	-0.390	0.880	101.360	-1.700	1.300																			1580052650.0	11.14	20.63
26/01/2020 15:30:51	26012020	260120	153051	101.220	12.287827	-56.608387	101.270	-0.360	-0.590	0.640	101.220	-1.900	1.100																			1580052651.0	11.07	20.50
26/01/2020 15:30:52	26012020	260120	153052	101.160	12.287815	-56.608333	101.200	-0.140	-0.520	0.480	101.160	-2.000	0.900																			1580052652.0	11.28	20.89
26/01/2020 15:30:53	26012020	260120	153053	101.100	12.287805	-56.608282	101.160	-0.060	-0.050	0.280	101.090	-1.600	0.700																			1580052653.0	11.44	21.19
26/01/2020 15:30:54	26012020	260120	153054	101.090	12.287795	-56.608233	101.240	-0.070	0.410	0.050	101.090	-1.100	0.500																			1580052654.0	11.11	20.58
26/01/2020 15:30:55	26012020	260120	153055	101.210	12.287787	-56.608183	101.400	0.000	0.320	-0.100	101.210	-1.000	0.300																			1580052655.0	10.64	19.71
26/01/2020 15:30:56	26012020	260120	153056	101.380	12.287777	-56.608132	101.560	0.230	-0.240	-0.250	101.380	-1.400	0.200																			1580052656.0	10.65	19.72
26/01/2020 15:30:57	26012020	260120	153057	101.540	12.287768	-56.608077	101.710	0.430	-0.520	-0.180	101.540	-1.900	0.100																			1580052657.0	11.19	20.72
26/01/2020 15:30:58	26012020	260120	153058	101.680	12.287758	-56.608025	101.840	0.410	-0.260	0.100	101.680	-1.800	0.400																			1580052658.0	11.60	21.48
26/01/2020 15:30:59	26012020	260120	153059	101.780	12.287748	-56.607977	101.910	0.230	-0.080	0.300	101.780	-1.500	0.600	1016.00	26.30	26.30	19.60	19.70	930.00	67.00	67.00	372.00	29.60	354.00	9.20	87.00	3.60	67400	3173.00	27.60	27.60	1580052659.0	11.09	20.54
26/01/2020 15:31:00	26012020	260120	153100	101.830	12.287738	-56.607928	101.890	0.110	-0.420	0.450	101.830	-1.600	0.800																			1580052660.0	10.46	19.37
26/01/2020 15:31:01	26012020	260120	153101	101.790	12.287728	-56.607875	101.820	0.060	-0.830	0.510	101.790	-2.100	0.900																			1580052661.0	10.67	19.76
26/01/2020 15:31:02	26012020	260120	153102	101.690	12.287717	-56.607822	101.690	-0.140	-0.730	0.570	101.690	-2.200	0.900																			1580052662.0	11.34	21.00
26/01/2020 15:31:03	26012020	260120	153103	101.560	12.287707	-56.607772	101.570	-0.440	-0.310	0.540	101.560	-1.800	0.900																			1580052663.0	11.40	21.11
26/01/2020 15:31:04	26012020	260120	153104	101.440	12.287695	-56.607723	101.470	-0.550	-0.180	0.340	101.440	-1.500	0.800																			1580052664.0	10.88	20.15
26/01/2020 15:31:05	26012020	260120	153105	101.360	12.287683	-56.607672	101.350	-0.330	-0.400	0.110	101.360	-1.700	0.600																			1580052665.0	10.69	19.80
26/01/2020 15:31:06	26012020	260120	153106	101.260	12.287672	-56.607618	101.330	0.010	-0.380	-0.090	101.260	-1.800	0.300																			1580052666.0	11.18	20.71
26/01/2020 15:31:07	26012020	260120	153107	101.290	12.287662	-56.607565	101.520	0.110	0.220	-0.220	101.290	-1.400	0.200																			1580052667.0	11.63	21.54
26/01/2020 15:31:08	26012020	260120	153108	101.540	12.287652	-56.607517	101.840	-0.030	0.780	-0.360	101.540	-0.700	0.100																			1580052668.0	11.26	20.85
26/01/2020 15:31:09	26012020	260120	153109	101.830	12.287643	-56.607468	102.010	-0.070	0.520	-0.370	101.830	-0.700	-0.000																			1580052669.0	10.45	19.35
26/01/2020 15:31:10	26012020	260120	153110	101.960	12.287633	-56.607417	102.090	0.150	-0.330	-0.230	101.960	-1.400	0.100																			1580052670.0	10.42	19.30
26/01/2020 15:31:11	26012020	260120	153111	102.040	12.287623	-56.607362	102.220	0.380	-0.870	0.040	102.040	-2.100	0.300																			1580052671.0	11.21	20.76
26/01/2020 15:31:12	26012020	260120	153112	102.180	12.287612	-56.607310	102.340	0.360	-0.770	0.280	102.180	-2.200	0.600																			1580052672.0	11.69	21.65
26/01/2020 15:31:13	26012020	260120	153113	102.280	12.287602	-56.607262	102.310	0.130	-0.490	0.490	102.280	-1.900	0.800																			1580052673.0	11.19	20.72
26/01/2020 15:31:14	26012020	260120	153114	102.180	12.287590	-56.607213	102.050	-0.050	-0.550	0.690	102.180	-1.900	1.000																			1580052674.0	10.53	19.50
26/01/2020 15:31:15	26012020	260120	153115	101.870	12.287577	-56.607162	101.690	-0.030	-0.860	0.820	101.870	-2.100	1.200																			1580052675.0	10.54	19.52
26/01/2020 15:31:16	26012020	260120	153116	101.520	12.287565	-56.607108	101.370	0.060	-0.810	0.710	101.520	-2.300	1.200																			1580052676.0	11.15	20.65
26/01/2020 15:31:17	26012020	260120	153117	101.280	12.287555	-56.607057	101.170	0.040	-0.280	0.410	101.240	-1.900	0.900																			1580052677.0	11.53	21.35
26/01/2020 15:31:18	26012020	260120	153118	101.090	12.287547	-56.607007	101.170	-0.170	0.300	0.150	101.090	-1.300	0.600																			1580052678.0	11.24	20.82
26/01/2020 15:31:19	26012020	260120	153119	101.160	12.287537	-56.606957	101.360	-0.480	0.560	0.100	101.160	-0.900	0.500																			1580052679.0	10.83	20.06
26/01/2020 15:31:20	26012020	260120	153120	101.380	12.287525	-56.606907	101.630	-0.690	0.580	0.200	101.380	-0.800	0.500																			1580052680.0	10.81	20.02
26/01/2020 15:31:21	26012020	260120	153121	101.660	12.287512	-56.606855	101.900	-0.560	0.380	0.290	101.660	-0.900	0.600																			1580052681.0	10.98	20.33
26/01/2020 15:31:22	26012020	260120	153122	101.920	12.287498	-56.606805	102.090	-0.050	-0.150	0.320	101.920	-1.300	0.700																			1580052682.0	10.98	20.33
26/01/2020 15:31:23	26012020	260120	153123	102.070	12.287487	-56.606753	102.200	0.550	-0.780	0.210	102.070	-2.000	0.600																			1580052683.0	11.04	20.45
26/01/2020 15:31:24	26012020	260120	153124	102.170	12.287478	-56.606700	102.260	0.830	-0.930	-0.050	102.170	-2.300	0.400																			1580052684.0	11.38	21.08
26/01/2020 15:31:25	26012020	260120	153125	102.220	12.287470	-56.606648	102.230	0.670	-0.510	-0.190	102.220	-2.100	0.200																			1580052685.0	11.41	21.13
26/01/2020 15:31:26	26012020	260120	153126	102.170	12.287462	-56.606600	102.160	0.310	-0.120	-0.220	102.170	-1.600	0.100																			1580052686.0	10.85	20.09
26/01/2020 15:31:27	26012020	260120	153127	102.080	12.287453	-56.606552	102.020	0.090	-0.300	-0.060	102.080	-1.500	0.200																			1580052687.0	10.27	19.02
26/01/2020 15:31:28	26012020	260120	153128	101.880	12.287443	-56.606500	101.710	0.060	-0.840	0.370	101.880	-2.000	0.600																			1580052688.0	10.45	19.35
26/01/2020 15:31:29	26012020	260120	153129	101.540	12.287430	-56.606447	101.420	-0.030	-0.970	0.670	101.540	-2.400	1.000																			1580052689.0	11.27	20.87
26/01/2020 15:31:30	26012020	260120	153130	101.310	12.287418	-56.606393	101.320	-0.320	-0.490	0.840	101.310	-2.100	1.200																			1580052690.0	11.75	21.76
26/01/2020 15:31:31	26012020	260120	153131	101.250	12.287405	-56.606345	101.360	-0.690	0.220	0.840	101.250	-1.400	1.200																			1580052691.0	11.34	21.00
26/01/2020 15:31:32	26012020	260120	153132	101.310	12.287392	-56.606297	101.410	-0.880	0.550	0.610	101.310	-0.900	1.100																			1580052692.0	10.77	19.95
26/01/2020 15:31:33	26012020	260120	153133	101.360	12.287380	-56.606245	101.440	-0.640	0.270	0.410	101.360	-1.000	0.800																			1580052693.0	10.59	19.61
26/01/2020 15:31:34	26012020	260120	153134	101.420	12.287368	-56.606192	101.600	-0.130	-0.080	0.150	101.420	-1.400	0.600																			1580052694.0	10.99	20.35
26/01/2020 15:31:35	26012020	260120	153135	101.650	12.287358	-56.606140	101.980	0.250	-0.000	-0.200	101.650	-1.500	0.300																			1580052695.0	11.57	21.43
26/01/2020 15:31:36	26012020	260120	153136	102.060	12.287348	-56.606090	102.330	0.370	0.200	-0.420	102.060	-1.200	-0.000																			1580052696.0	11.37	21.06
26/01/2020 15:31:37	26012020	260120	153137	102.350	12.287340	-56.606042	102.420	0.420	0.010	-0.390	102.350	-1.200	-0.100																			1580052697.0	10.70	19.82
26/01/2020 15:31:38	26012020	260120	153138	102.360	12.287330	-56.605992	102.300	0.570	-0.550	-0.140	102.360	-1.700	0.100																			1580052698.0	10.45	19.35
26/01/2020 15:31:39	26012020	260120	153139	102.200	12.287320	-56.605938	102.110	0.740	-1.070	0.160	102.200	-2.300	0.400																			1580052699.0	10.85	20.09
26/01/2020 15:31:40	26012020	260120	153140	102.000	12.287310	-56.605887	101.890	0.690	-1.140	0.430	102.000	-2.600	0.700																			1580052700.0	11.26	20.85
26/01/2020 15:31:41	26012020	260120	153141	101.810	12.287300	-56.605835	101.680	0.280	-0.740	0.590	101.770	-2.300	0.900																			1580052701.0	11.32	20.96
26/01/2020 15:31:42	26012020	260120	153142	101.570	12.287290	-56.605787	101.560	-0.310	-0.260	0.700	101.570	-1.800	1.000																			1580052702.0	10.96	20.30
26/01/2020 15:31:43	26012020	260120	153143	101.480	12.287278	-56.605737	101.510	-0.780	0.010	0.810	101.460	-1.400	1.100																			1580052703.0	10.62	19.67
26/01/2020 15:31:44	26012020	260120	153144	101.420	12.287263	-56.605687	101.410	-0.940	0.090	0.810	101.420	-1.300	1.200																			1580052704.0	10.73	19.87
26/01/2020 15:31:45	26012020	260120	153145	101.320	12.287250	-56.605635	101.340	-0.780	0.020	0.630	101.320	-1.300	1.100																			1580052705.0	11.07	20.50
26/01/2020 15:31:46	26012020	260120	153146	101.270	12.287237	-56.605583	101.350	-0.330	-0.200	0.390	101.270	-1.500	0.800																			1580052706.0	11.22	20.78
26/01/2020 15:31:47	26012020	260120	153147	101.330	12.287225	-56.605530	101.460	0.160	-0.240	0.050	101.330	-1.600	0.600																			1580052707.0	11.35	21.02
26/01/2020 15:31:48	26012020	260120	153148	101.460	12.287217	-56.605478	101.610	0.410	0.100	-0.350	101.460	-1.400	0.100																			1580052708.0	11.45	21.21
26/01/2020 15:31:49	26012020	260120	153149	101.630	12.287208	-56.605430	101.750	0.360	0.400	-0.430	101.630	-1.000	-0.100																			1580052709.0	11.14	20.63
26/01/2020 15:31:50	26012020	260120	153150	101.760	12.287200	-56.605380	101.830	0.310	0.160	-0.190	101.760	-1.100	0.100																			1580052710.0	10.59	19.61
26/01/2020 15:31:51	26012020	260120	153151	101.810	12.287190	-56.605328	101.850	0.370	-0.420	0.080	101.810	-1.600	0.400																			1580052711.0	10.52	19.48
26/01/2020 15:31:52	26012020	260120	153152	101.780	12.287180	-56.605277	101.770	0.410	-0.810	0.350	101.780	-2.100	0.600																			1580052712.0	11.04	20.45
26/01/2020 15:31:53	26012020	260120	153153	101.660	12.287168	-56.605225	101.560	0.320	-0.840	0.660	101.660	-2.200	0.900																			1580052713.0	11.34	21.00
26/01/2020 15:31:54	26012020	260120	153154	101.420	12.287158	-56.605175	101.270	0.150	-0.790	0.880	101.420	-2.200	1.200																			1580052714.0	11.08	20.52
26/01/2020 15:31:55	26012020	260120	153155	101.120	12.287147	-56.605125	101.040	-0.100	-0.620	0.960	101.120	-2.100	1.300																			1580052715.0	10.85	20.09
26/01/2020 15:31:56	26012020	260120	153156	100.920	12.287135	-56.605073	100.910	-0.350	-0.340	0.920	100.920	-1.800	1.300																			1580052716.0	10.98	20.33
26/01/2020 15:31:57	26012020	260120	153157	100.830	12.287123	-56.605023	100.880	-0.460	-0.110	0.750	100.830	-1.600	1.200																			1580052717.0	10.98	20.33
26/01/2020 15:31:58	26012020	260120	153158	100.820	12.287112	-56.604972	100.880	-0.430	0.080	0.580	100.820	-1.400	1.000																			1580052718.0	10.97	20.32
26/01/2020 15:31:59	26012020	260120	153159	100.850	12.287102	-56.604922	101.020	-0.310	0.180	0.300	100.850	-1.200	0.800	1016.00	26.30	26.40	19.70	19.80	930.00	67.00	67.00	371.00	29.60	353.00	9.10	83.00	3.60	67429	3194.00	27.60	27.60	1580052719.0	11.06	20.48
26/01/2020 15:32:00	26012020	260120	153200	101.060	12.287092	-56.604870	101.310	-0.120	0.140	-0.010	101.060	-1.200	0.500																			1580052720.0	11.08	20.52
26/01/2020 15:32:01	26012020	260120	153201	101.350	12.287082	-56.604818	101.500	0.090	0.030	-0.140	101.350	-1.300	0.200																			1580052721.0	11.07	20.50
26/01/2020 15:32:02	26012020	260120	153202	101.490	12.287072	-56.604767	101.550	0.250	-0.140	-0.110	101.490	-1.400	0.200																			1580052722.0	11.10	20.56
26/01/2020 15:32:03	26012020	260120	153203	101.510	12.287062	-56.604715	101.580	0.350	-0.370	-0.000	101.510	-1.700	0.300																			1580052723.0	11.09	20.54
26/01/2020 15:32:04	26012020	260120	153204	101.550	12.287053	-56.604663	101.640	0.410	-0.480	0.120	101.550	-1.900	0.500																			1580052724.0	11.04	20.45
26/01/2020 15:32:05	26012020	260120	153205	101.620	12.287043	-56.604613	101.700	0.320	-0.320	0.160	101.620	-1.800	0.500																			1580052725.0	11.09	20.54
26/01/2020 15:32:06	26012020	260120	153206	101.640	12.287033	-56.604563	101.610	0.150	-0.250	0.320	101.640	-1.600	0.600																			1580052726.0	10.93	20.24
26/01/2020 15:32:07	26012020	260120	153207	101.490	12.287023	-56.604513	101.360	0.130	-0.640	0.570	101.490	-1.800	0.900																			1580052727.0	10.62	19.67
26/01/2020 15:32:08	26012020	260120	153208	101.220	12.287012	-56.604460	101.080	0.240	-1.060	0.640	101.220	-2.300	1.000																			1580052728.0	10.84	20.08
26/01/2020 15:32:09	26012020	260120	153209	100.960	12.287002	-56.604407	100.930	0.150	-0.730	0.530	100.960	-2.300	0.900																			1580052729.0	11.51	21.32
26/01/2020 15:32:10	26012020	260120	153210	100.880	12.286992	-56.604357	100.960	-0.290	0.180	0.370	100.880	-1.500	0.800																			1580052730.0	11.64	21.56
26/01/2020 15:32:11	26012020	260120	153211	100.940	12.286982	-56.604310	101.020	-0.740	0.670	0.250	100.940	-0.800	0.600																			1580052731.0	10.79	19.98
26/01/2020 15:32:12	26012020	260120	153212	101.000	12.286970	-56.604260	101.120	-0.820	0.340	0.170	101.000	-0.800	0.600																			1580052732.0	10.20	18.89
26/01/2020 15:32:13	26012020	260120	153213	101.110	12.286958	-56.604207	101.280	-0.500	-0.370	0.200	101.110	-1.500	0.500																			1580052733.0	10.69	19.80
26/01/2020 15:32:14	26012020	260120	153214	101.280	12.286947	-56.604153	101.440	-0.050	-0.720	0.310	101.280	-2.000	0.600																			1580052734.0	11.52	21.34
26/01/2020 15:32:15	26012020	260120	153215	101.430	12.286933	-56.604100	101.530	0.200	-0.450	0.360	101.430	-2.000	0.700																			1580052735.0	11.78	21.82
26/01/2020 15:32:16	26012020	260120	153216	101.500	12.286923	-56.604052	101.550	0.210	-0.010	0.400	101.500	-1.500	0.800																			1580052736.0	11.31	20.95
26/01/2020 15:32:17	26012020	260120	153217	101.500	12.286913	-56.604003	101.570	0.230	0.040	0.270	101.500	-1.300	0.700																			1580052737.0	10.62	19.67
26/01/2020 15:32:18	26012020	260120	153218	101.530	12.286905	-56.603952	101.590	0.440	-0.260	-0.070	101.530	-1.500	0.400																			1580052738.0	10.49	19.43
26/01/2020 15:32:19	26012020	260120	153219	101.550	12.286897	-56.603900	101.540	0.700	-0.510	-0.300	101.550	-1.800	0.100																			1580052739.0	10.96	20.30
26/01/2020 15:32:20	26012020	260120	153220	101.460	12.286890	-56.603847	101.410	0.670	-0.430	-0.250	101.460	-1.900	0.100																			1580052740.0	11.33	20.98
26/01/2020 15:32:21	26012020	260120	153221	101.330	12.286882	-56.603797	101.370	0.280	-0.150	-0.010	101.330	-1.600	0.300																			1580052741.0	11.27	20.87
26/01/2020 15:32:22	26012020	260120	153222	101.320	12.286872	-56.603747	101.410	-0.170	-0.170	0.420	101.320	-1.500	0.600																			1580052742.0	10.84	20.08
26/01/2020 15:32:23	26012020	260120	153223	101.350	12.286858	-56.603695	101.370	-0.430	-0.450	0.830	101.350	-1.700	1.100																			1580052743.0	10.64	19.71
26/01/2020 15:32:24	26012020	260120	153224	101.230	12.286845	-56.603643	101.180	-0.580	-0.450	1.090	101.230	-1.900	1.400																			1580052744.0	11.09	20.54
26/01/2020 15:32:25	26012020	260120	153225	101.050	12.286832	-56.603593	101.060	-0.680	-0.220	1.110	101.050	-1.700	1.500																			1580052745.0	11.38	21.08
26/01/2020 15:32:26	26012020	260120	153226	100.970	12.286820	-56.603543	101.020	-0.600	-0.220	0.880	100.970	-1.500	1.400																			1580052746.0	11.02	20.41
26/01/2020 15:32:27	26012020	260120	153227	100.930	12.286808	-56.603493	100.900	-0.300	-0.490	0.550	100.930	-1.800	1.000																			1580052747.0	10.83	20.06
26/01/2020 15:32:28	26012020	260120	153228	100.820	12.286798	-56.603438	100.840	0.090	-0.640	0.200	100.820	-2.000	0.700																			1580052748.0	11.15	20.65
26/01/2020 15:32:29	26012020	260120	153229	100.830	12.286788	-56.603387	101.010	0.310	-0.230	-0.170	100.830	-1.800	0.300																			1580052749.0	11.52	21.34
26/01/2020 15:32:30	26012020	260120	153230	101.050	12.286780	-56.603337	101.190	0.230	0.460	-0.410	101.050	-1.100	0.000																			1580052750.0	11.38	21.08
26/01/2020 15:32:31	26012020	260120	153231	101.180	12.286773	-56.603288	101.220	0.110	0.590	-0.370	101.200	-0.700	-0.000																			1580052751.0	10.69	19.80
26/01/2020 15:32:32	26012020	260120	153232	101.210	12.286763	-56.603237	101.250	0.250	-0.020	-0.100	101.210	-1.100	0.200																			1580052752.0	10.32	19.11
26/01/2020 15:32:33	26012020	260120	153233	101.240	12.286752	-56.603183	101.380	0.480	-0.640	0.050	101.260	-1.800	0.400																			1580052753.0	10.89	20.17
26/01/2020 15:32:34	26012020	260120	153234	101.400	12.286743	-56.603130	101.480	0.470	-0.630	0.120	101.400	-2.100	0.500																			1580052754.0	11.61	21.50
26/01/2020 15:32:35	26012020	260120	153235	101.470	12.286733	-56.603080	101.490	0.190	-0.210	0.230	101.470	-1.700	0.600																			1580052755.0	11.44	21.19
26/01/2020 15:32:36	26012020	260120	153236	101.450	12.286725	-56.603033	101.410	-0.110	-0.100	0.330	101.450	-1.400	0.700																			1580052756.0	10.68	19.78
26/01/2020 15:32:37	26012020	260120	153237	101.320	12.286715	-56.602983	101.200	-0.250	-0.520	0.490	101.320	-1.700	0.800																			1580052757.0	10.32	19.11
26/01/2020 15:32:38	26012020	260120	153238	101.100	12.286702	-56.602930	100.970	-0.310	-0.860	0.620	101.100	-2.200	0.900																			1580052758.0	10.83	20.06
26/01/2020 15:32:39	26012020	260120	153239	100.880	12.286690	-56.602877	100.770	-0.330	-0.740	0.620	100.880	-2.200	1.000																			1580052759.0	11.47	21.24
26/01/2020 15:32:40	26012020	260120	153240	100.710	12.286678	-56.602827	100.710	-0.270	-0.440	0.430	100.710	-1.900	0.900																			1580052760.0	11.37	21.06
26/01/2020 15:32:41	26012020	260120	153241	100.710	12.286668	-56.602777	100.830	-0.160	-0.240	0.180	100.710	-1.700	0.600																			1580052761.0	10.96	20.30
26/01/2020 15:32:42	26012020	260120	153242	100.860	12.286658	-56.602725	100.960	-0.150	-0.020	0.080	100.860	-1.500	0.500																			1580052762.0	10.99	20.35
26/01/2020 15:32:43	26012020	260120	153243	100.970	12.286647	-56.602673	101.000	-0.180	0.270	0.040	100.970	-1.200	0.400																			1580052763.0	11.16	20.67
26/01/2020 15:32:44	26012020	260120	153244	100.980	12.286635	-56.602623	100.980	-0.100	0.400	0.100	100.980	-1.000	0.400																			1580052764.0	11.00	20.37
26/01/2020 15:32:45	26012020	260120	153245	100.970	12.286625	-56.602573	101.060	0.080	0.240	0.080	100.970	-1.000	0.500																			1580052765.0	10.87	20.13
26/01/2020 15:32:46	26012020	260120	153246	101.100	12.286617	-56.602522	101.270	0.260	-0.150	-0.050	101.100	-1.400	0.400																			1580052766.0	10.91	20.21
26/01/2020 15:32:47	26012020	260120	153247	101.320	12.286608	-56.602468	101.470	0.380	-0.480	0.020	101.320	-1.800	0.300																			1580052767.0	11.13	20.61
26/01/2020 15:32:48	26012020	260120	153248	101.500	12.286600	-56.602417	101.580	0.380	-0.540	0.330	101.500	-1.900	0.600																			1580052768.0	11.23	20.80
26/01/2020 15:32:49	26012020	260120	153249	101.540	12.286588	-56.602367	101.520	0.200	-0.390	0.680	101.540	-1.800	0.900																			1580052769.0	11.10	20.56
26/01/2020 15:32:50	26012020	260120	153250	101.440	12.286577	-56.602318	101.360	-0.030	-0.310	0.890	101.440	-1.700	1.200																			1580052770.0	10.83	20.06
26/01/2020 15:32:51	26012020	260120	153251	101.250	12.286567	-56.602268	101.130	-0.080	-0.580	0.870	101.250	-1.800	1.300																			1580052771.0	10.64	19.71
26/01/2020 15:32:52	26012020	260120	153252	101.030	12.286555	-56.602215	100.950	0.070	-0.930	0.610	101.030	-2.200	1.100																			1580052772.0	10.82	20.04
26/01/2020 15:32:53	26012020	260120	153253	100.880	12.286547	-56.602162	100.820	0.180	-0.790	0.380	100.880	-2.300	0.800																			1580052773.0	11.37	21.06
26/01/2020 15:32:54	26012020	260120	153254	100.760	12.286537	-56.602110	100.750	0.020	-0.110	0.270	100.760	-1.800	0.700																			1580052774.0	11.56	21.41
26/01/2020 15:32:55	26012020	260120	153255	100.700	12.286527	-56.602062	100.780	-0.330	0.520	0.200	100.700	-1.000	0.600																			1580052775.0	11.07	20.50
26/01/2020 15:32:56	26012020	260120	153256	100.770	12.286517	-56.602013	100.910	-0.510	0.480	0.300	100.770	-0.800	0.600																			1580052776.0	10.49	19.43
26/01/2020 15:32:57	26012020	260120	153257	100.880	12.286505	-56.601962	100.990	-0.360	-0.140	0.450	100.900	-1.300	0.800																			1580052777.0	10.52	19.48
26/01/2020 15:32:58	26012020	260120	153258	100.960	12.286493	-56.601907	101.040	-0.060	-0.610	0.450	100.960	-1.900	0.800																			1580052778.0	11.22	20.78
26/01/2020 15:32:59	26012020	260120	153259	101.010	12.286483	-56.601853	101.100	0.090	-0.440	0.430	101.010	-1.900	0.800	1016.00	26.30	26.30	19.40	19.60	938.00	66.00	66.00	372.00	29.60	355.00	9.00	89.00	3.40	67805	3126.00	27.60	27.50	1580052779.0	11.75	21.76
26/01/2020 15:33:00	26012020	260120	153300	101.090	12.286473	-56.601805	101.240	0.040	0.010	0.330	101.090	-1.500	0.800																			1580052780.0	11.45	21.21
26/01/2020 15:33:01	26012020	260120	153301	101.260	12.286465	-56.601757	101.430	0.030	0.010	0.030	101.260	-1.300	0.500																			1580052781.0	10.66	19.74
26/01/2020 15:33:02	26012020	260120	153302	101.450	12.286457	-56.601705	101.540	0.160	-0.410	-0.170	101.450	-1.600	0.200																			1580052782.0	10.42	19.30
26/01/2020 15:33:03	26012020	260120	153303	101.520	12.286447	-56.601652	101.540	0.300	-0.710	-0.100	101.520	-2.000	0.200																			1580052783.0	11.02	20.41
26/01/2020 15:33:04	26012020	260120	153304	101.510	12.286437	-56.601598	101.570	0.320	-0.580	-0.060	101.510	-2.000	0.300																			1580052784.0	11.43	21.17
26/01/2020 15:33:05	26012020	260120	153305	101.560	12.286427	-56.601548	101.630	0.200	-0.200	-0.030	101.560	-1.700	0.300																			1580052785.0	11.27	20.87
26/01/2020 15:33:06	26012020	260120	153306	101.600	12.286417	-56.601500	101.580	0.030	0.110	0.060	101.600	-1.300	0.400																			1580052786.0	10.87	20.13
26/01/2020 15:33:07	26012020	260120	153307	101.550	12.286408	-56.601450	101.590	-0.110	0.150	0.010	101.550	-1.200	0.400																			1580052787.0	10.64	19.71
26/01/2020 15:33:08	26012020	260120	153308	101.590	12.286398	-56.601398	101.660	-0.220	-0.100	0.030	101.590	-1.400	0.400																			1580052788.0	10.75	19.91
26/01/2020 15:33:09	26012020	260120	153309	101.640	12.286387	-56.601347	101.660	-0.260	-0.480	0.100	101.640	-1.700	0.400																			1580052789.0	11.00	20.37
26/01/2020 15:33:10	26012020	260120	153310	101.620	12.286375	-56.601293	101.610	-0.200	-0.760	0.180	101.620	-2.100	0.500																			1580052790.0	11.23	20.80
26/01/2020 15:33:11	26012020	260120	153311	101.530	12.286363	-56.601242	101.460	-0.090	-0.730	0.310	101.530	-2.100	0.600																			1580052791.0	11.38	21.08
26/01/2020 15:33:12	26012020	260120	153312	101.370	12.286352	-56.601190	101.290	-0.010	-0.450	0.340	101.370	-1.900	0.700																			1580052792.0	11.32	20.96
26/01/2020 15:33:13	26012020	260120	153313	101.220	12.286340	-56.601140	101.220	0.030	-0.150	0.170	101.220	-1.600	0.600																			1580052793.0	11.09	20.54
26/01/2020 15:33:14	26012020	260120	153314	101.220	12.286332	-56.601090	101.310	0.070	0.010	-0.130	101.220	-1.400	0.300																			1580052794.0	10.91	20.21
26/01/2020 15:33:15	26012020	260120	153315	101.320	12.286322	-56.601038	101.420	0.050	0.080	-0.310	101.320	-1.300	0.100																			1580052795.0	10.97	20.32
26/01/2020 15:33:16	26012020	260120	153316	101.460	12.286312	-56.600987	101.650	-0.020	0.110	-0.280	101.460	-1.300	0.100																			1580052796.0	11.11	20.58
26/01/2020 15:33:17	26012020	260120	153317	101.690	12.286302	-56.600935	101.890	-0.060	0.080	-0.110	101.690	-1.300	0.200																			1580052797.0	11.10	20.56
26/01/2020 15:33:18	26012020	260120	153318	101.920	12.286290	-56.600885	102.070	-0.090	0.020	0.060	101.920	-1.300	0.400																			1580052798.0	11.03	20.43
26/01/2020 15:33:19	26012020	260120	153319	102.090	12.286278	-56.600835	102.220	-0.100	-0.140	0.130	102.090	-1.400	0.500																			1580052799.0	10.98	20.33
26/01/2020 15:33:20	26012020	260120	153320	102.210	12.286268	-56.600783	102.240	-0.000	-0.450	0.170	102.210	-1.700	0.500																			1580052800.0	10.90	20.19
26/01/2020 15:33:21	26012020	260120	153321	102.180	12.286258	-56.600732	102.080	0.160	-0.750	0.150	102.180	-2.000	0.500																			1580052801.0	10.93	20.24
26/01/2020 15:33:22	26012020	260120	153322	101.960	12.286248	-56.600680	101.790	0.300	-0.950	0.120	101.960	-2.300	0.500																			1580052802.0	11.14	20.63
26/01/2020 15:33:23	26012020	260120	153323	101.670	12.286238	-56.600628	101.510	0.400	-1.010	0.200	101.670	-2.400	0.500																			1580052803.0	11.20	20.74
26/01/2020 15:33:24	26012020	260120	153324	101.380	12.286228	-56.600575	101.280	0.340	-0.760	0.290	101.380	-2.300	0.600																			1580052804.0	11.28	20.89
26/01/2020 15:33:25	26012020	260120	153325	101.180	12.286217	-56.600523	101.160	0.040	-0.150	0.240	101.180	-1.800	0.600																			1580052805.0	11.34	21.00
26/01/2020 15:33:26	26012020	260120	153326	101.110	12.286207	-56.600473	101.160	-0.360	0.520	0.230	101.110	-1.100	0.600																			1580052806.0	11.16	20.67
26/01/2020 15:33:27	26012020	260120	153327	101.160	12.286195	-56.600425	101.350	-0.580	0.770	0.150	101.160	-0.600	0.600																			1580052807.0	10.80	20.00
26/01/2020 15:33:28	26012020	260120	153328	101.420	12.286183	-56.600373	101.720	-0.470	0.370	-0.060	101.420	-0.800	0.400																			1580052808.0	10.69	19.80
26/01/2020 15:33:29	26012020	260120	153329	101.810	12.286173	-56.600320	102.090	-0.180	-0.180	-0.190	101.810	-1.400	0.200																			1580052809.0	11.05	20.46
26/01/2020 15:33:30	26012020	260120	153330	102.150	12.286160	-56.600267	102.320	0.020	-0.370	-0.170	102.150	-1.700	0.200																			1580052810.0	11.58	21.45
26/01/2020 15:33:31	26012020	260120	153331	102.310	12.286150	-56.600217	102.290	0.070	-0.320	0.030	102.310	-1.700	0.300																			1580052811.0	11.47	21.24
26/01/2020 15:33:32	26012020	260120	153332	102.220	12.286138	-56.600167	102.180	0.110	-0.380	0.190	102.220	-1.700	0.500																			1580052812.0	10.93	20.24
26/01/2020 15:33:33	26012020	260120	153333	102.130	12.286128	-56.600117	102.120	0.210	-0.650	0.210	102.120	-1.900	0.600																			1580052813.0	10.68	19.78
26/01/2020 15:33:34	26012020	260120	153334	102.040	12.286118	-56.600065	101.940	0.270	-0.920	0.320	102.040	-2.200	0.600																			1580052814.0	10.89	20.17
26/01/2020 15:33:35	26012020	260120	153335	101.810	12.286108	-56.600012	101.650	0.210	-0.870	0.360	101.810	-2.300	0.700																			1580052815.0	11.27	20.87
26/01/2020 15:33:36	26012020	260120	153336	101.530	12.286097	-56.599960	101.420	0.160	-0.540	0.250	101.530	-2.000	0.700																			1580052816.0	11.35	21.02
26/01/2020 15:33:37	26012020	260120	153337	101.340	12.286087	-56.599910	101.310	0.210	-0.210	0.070	101.340	-1.700	0.500																			1580052817.0	11.13	20.61
26/01/2020 15:33:38	26012020	260120	153338	101.280	12.286077	-56.599857	101.340	0.210	0.060	-0.210	101.280	-1.400	0.300																			1580052818.0	11.05	20.46
26/01/2020 15:33:39	26012020	260120	153339	101.350	12.286068	-56.599805	101.470	-0.000	0.360	-0.380	101.350	-1.100	0.000																			1580052819.0	11.18	20.71
26/01/2020 15:33:40	26012020	260120	153340	101.510	12.286060	-56.599753	101.720	-0.350	0.590	-0.190	101.510	-0.800	0.100																			1580052820.0	11.20	20.74
26/01/2020 15:33:41	26012020	260120	153341	101.810	12.286047	-56.599705	102.060	-0.610	0.420	0.150	101.810	-0.800	0.400																			1580052821.0	10.97	20.32
26/01/2020 15:33:42	26012020	260120	153342	102.120	12.286033	-56.599653	102.240	-0.610	-0.140	0.420	102.120	-1.300	0.700																			1580052822.0	10.83	20.06
26/01/2020 15:33:43	26012020	260120	153343	102.210	12.286020	-56.599602	102.170	-0.360	-0.690	0.610	102.210	-1.900	0.900																			1580052823.0	11.13	20.61
26/01/2020 15:33:44	26012020	260120	153344	102.090	12.286007	-56.599550	101.990	-0.010	-0.900	0.630	102.090	-2.200	1.000																			1580052824.0	11.41	21.13
26/01/2020 15:33:45	26012020	260120	153345	101.930	12.285995	-56.599498	101.830	0.310	-0.870	0.340	101.900	-2.300	0.800																			1580052825.0	11.33	20.98
26/01/2020 15:33:46	26012020	260120	153346	101.760	12.285987	-56.599447	101.680	0.480	-0.710	-0.040	101.760	-2.100	0.400																			1580052826.0	11.05	20.46
26/01/2020 15:33:47	26012020	260120	153347	101.640	12.285978	-56.599397	101.520	0.540	-0.510	-0.230	101.610	-1.900	0.200																			1580052827.0	11.01	20.39
26/01/2020 15:33:48	26012020	260120	153348	101.470	12.285970	-56.599343	101.400	0.550	-0.320	-0.190	101.470	-1.800	0.100																			1580052828.0	11.03	20.43
26/01/2020 15:33:49	26012020	260120	153349	101.380	12.285960	-56.599292	101.480	0.370	0.040	-0.050	101.380	-1.500	0.300																			1580052829.0	11.14	20.63
26/01/2020 15:33:50	26012020	260120	153350	101.520	12.285950	-56.599242	101.770	-0.090	0.480	0.160	101.520	-1.000	0.400																			1580052830.0	11.25	20.84
26/01/2020 15:33:51	26012020	260120	153351	101.840	12.285938	-56.599192	102.050	-0.530	0.550	0.360	101.840	-0.800	0.700																			1580052831.0	10.97	20.32
26/01/2020 15:33:52	26012020	260120	153352	102.060	12.285925	-56.599142	102.100	-0.570	-0.020	0.570	102.060	-1.100	0.900																			1580052832.0	10.69	19.80
26/01/2020 15:33:53	26012020	260120	153353	102.040	12.285913	-56.599088	102.010	-0.250	-0.750	0.690	102.040	-1.900	1.000																			1580052833.0	11.02	20.41
26/01/2020 15:33:54	26012020	260120	153354	101.970	12.285900	-56.599033	102.050	0.040	-0.950	0.540	101.970	-2.300	1.000																			1580052834.0	11.66	21.59
26/01/2020 15:33:55	26012020	260120	153355	102.030	12.285890	-56.598982	102.110	-0.000	-0.540	0.300	102.030	-2.100	0.700																			1580052835.0	11.77	21.80
26/01/2020 15:33:56	26012020	260120	153356	102.070	12.285880	-56.598933	102.090	-0.220	-0.100	0.090	102.070	-1.600	0.500																			1580052836.0	11.18	20.71
26/01/2020 15:33:57	26012020	260120	153357	102.040	12.285868	-56.598883	102.030	-0.260	-0.060	-0.020	102.040	-1.400	0.400																			1580052837.0	10.54	19.52
26/01/2020 15:33:58	26012020	260120	153358	101.980	12.285858	-56.598832	101.940	0.020	-0.300	0.030	101.980	-1.600	0.400																			1580052838.0	10.68	19.78
26/01/2020 15:33:59	26012020	260120	153359	101.910	12.285845	-56.598778	101.830	0.390	-0.440	0.040	101.890	-1.800	0.400	1016.00	26.30	26.40	19.40	19.50	937.00	66.00	66.00	372.00	29.60	358.00	8.70	97.00	3.00	67831	3087.00	27.50	27.50	1580052839.0	11.18	20.71
26/01/2020 15:34:00	26012020	260120	153400	101.780	12.285835	-56.598727	101.720	0.550	-0.270	-0.010	101.780	-1.700	0.400																			1580052840.0	11.50	21.30
26/01/2020 15:34:01	26012020	260120	153401	101.680	12.285825	-56.598675	101.690	0.410	0.060	-0.070	101.680	-1.400	0.300																			1580052841.0	11.36	21.04
26/01/2020 15:34:02	26012020	260120	153402	101.720	12.285817	-56.598625	101.860	0.180	0.160	-0.130	101.720	-1.200	0.300																			1580052842.0	10.98	20.33
26/01/2020 15:34:03	26012020	260120	153403	101.940	12.285807	-56.598575	102.030	0.030	-0.070	-0.050	101.940	-1.300	0.300																			1580052843.0	10.77	19.95
26/01/2020 15:34:04	26012020	260120	153404	102.030	12.285797	-56.598522	101.900	-0.020	-0.390	0.250	102.030	-1.600	0.500																			1580052844.0	11.00	20.37
26/01/2020 15:34:05	26012020	260120	153405	101.800	12.285783	-56.598470	101.630	-0.050	-0.620	0.580	101.800	-1.900	0.800																			1580052845.0	11.29	20.91
26/01/2020 15:34:06	26012020	260120	153406	101.560	12.285772	-56.598418	101.560	-0.120	-0.650	0.770	101.560	-2.000	1.100																			1580052846.0	11.35	21.02
26/01/2020 15:34:07	26012020	260120	153407	101.550	12.285758	-56.598367	101.600	-0.250	-0.510	0.690	101.550	-1.900	1.100																			1580052847.0	11.29	20.91
26/01/2020 15:34:08	26012020	260120	153408	101.590	12.285747	-56.598317	101.570	-0.410	-0.270	0.440	101.590	-1.700	0.900																			1580052848.0	11.15	20.65
26/01/2020 15:34:09	26012020	260120	153409	101.520	12.285735	-56.598267	101.400	-0.380	-0.140	0.290	101.520	-1.500	0.700																			1580052849.0	11.00	20.37
26/01/2020 15:34:10	26012020	260120	153410	101.340	12.285725	-56.598215	101.230	-0.150	-0.130	0.230	101.340	-1.500	0.600																			1580052850.0	10.97	20.32
26/01/2020 15:34:11	26012020	260120	153411	101.220	12.285713	-56.598162	101.170	0.130	-0.190	0.150	101.200	-1.500	0.500																			1580052851.0	11.12	20.59
26/01/2020 15:34:12	26012020	260120	153412	101.160	12.285703	-56.598110	101.210	0.300	-0.160	0.050	101.160	-1.500	0.500																			1580052852.0	11.29	20.91
26/01/2020 15:34:13	26012020	260120	153413	101.210	12.285693	-56.598058	101.330	0.340	-0.080	0.020	101.230	-1.500	0.400																			1580052853.0	11.33	20.98
26/01/2020 15:34:14	26012020	260120	153414	101.360	12.285685	-56.598007	101.450	0.310	-0.090	0.170	101.360	-1.400	0.500																			1580052854.0	11.15	20.65
26/01/2020 15:34:15	26012020	260120	153415	101.490	12.285675	-56.597955	101.570	0.230	-0.150	0.440	101.490	-1.500	0.700																			1580052855.0	11.08	20.52
26/01/2020 15:34:16	26012020	260120	153416	101.580	12.285663	-56.597903	101.600	0.070	-0.230	0.620	101.580	-1.600	0.900																			1580052856.0	11.12	20.59
26/01/2020 15:34:17	26012020	260120	153417	101.590	12.285652	-56.597852	101.560	-0.090	-0.310	0.660	101.590	-1.600	1.000																			1580052857.0	11.10	20.56
26/01/2020 15:34:18	26012020	260120	153418	101.510	12.285642	-56.597800	101.480	-0.140	-0.470	0.540	101.510	-1.800	1.000																			1580052858.0	11.08	20.52
26/01/2020 15:34:19	26012020	260120	153419	101.450	12.285632	-56.597748	101.440	-0.050	-0.710	0.380	101.450	-2.000	0.800																			1580052859.0	11.10	20.56
26/01/2020 15:34:20	26012020	260120	153420	101.410	12.285622	-56.597695	101.350	0.030	-0.730	0.310	101.410	-2.100	0.700																			1580052860.0	11.27	20.87
26/01/2020 15:34:21	26012020	260120	153421	101.310	12.285610	-56.597643	101.260	-0.050	-0.340	0.260	101.310	-1.900	0.700																			1580052861.0	11.44	21.19
26/01/2020 15:34:22	26012020	260120	153422	101.240	12.285600	-56.597593	101.280	-0.260	0.160	0.140	101.240	-1.400	0.500																			1580052862.0	11.26	20.85
26/01/2020 15:34:23	26012020	260120	153423	101.290	12.285590	-56.597543	101.350	-0.380	0.300	0.060	101.290	-1.100	0.400																			1580052863.0	10.85	20.09
26/01/2020 15:34:24	26012020	260120	153424	101.360	12.285578	-56.597492	101.410	-0.230	-0.050	-0.020	101.360	-1.300	0.400																			1580052864.0	10.74	19.89
26/01/2020 15:34:25	26012020	260120	153425	101.420	12.285568	-56.597438	101.480	0.090	-0.460	-0.020	101.420	-1.700	0.300																			1580052865.0	11.13	20.61
26/01/2020 15:34:26	26012020	260120	153426	101.480	12.285557	-56.597385	101.520	0.300	-0.500	0.020	101.480	-1.900	0.400																			1580052866.0	11.60	21.48
26/01/2020 15:34:27	26012020	260120	153427	101.520	12.285545	-56.597333	101.540	0.300	-0.290	0.050	101.520	-1.700	0.400																			1580052867.0	11.59	21.46
26/01/2020 15:34:28	26012020	260120	153428	101.510	12.285537	-56.597283	101.460	0.230	-0.190	0.210	101.510	-1.600	0.500																			1580052868.0	11.12	20.59
26/01/2020 15:34:29	26012020	260120	153429	101.400	12.285525	-56.597232	101.380	0.160	-0.220	0.380	101.400	-1.600	0.700																			1580052869.0	10.90	20.19
26/01/2020 15:34:30	26012020	260120	153430	101.370	12.285515	-56.597180	101.440	0.050	-0.200	0.400	101.370	-1.600	0.800																			1580052870.0	11.09	20.54
26/01/2020 15:34:31	26012020	260120	153431	101.420	12.285505	-56.597128	101.410	-0.120	-0.200	0.420	101.420	-1.600	0.800																			1580052871.0	11.20	20.74
26/01/2020 15:34:32	26012020	260120	153432	101.340	12.285495	-56.597077	101.220	-0.250	-0.350	0.430	101.340	-1.600	0.800																			1580052872.0	11.13	20.61
26/01/2020 15:34:33	26012020	260120	153433	101.120	12.285483	-56.597023	101.020	-0.210	-0.610	0.400	101.120	-1.900	0.800																			1580052873.0	11.12	20.59
26/01/2020 15:34:34	26012020	260120	153434	100.960	12.285472	-56.596970	100.990	-0.080	-0.590	0.290	100.960	-2.000	0.700																			1580052874.0	11.37	21.06
26/01/2020 15:34:35	26012020	260120	153435	100.970	12.285462	-56.596918	101.070	-0.050	-0.230	0.080	100.970	-1.800	0.500																			1580052875.0	11.52	21.34
26/01/2020 15:34:36	26012020	260120	153436	101.060	12.285452	-56.596868	101.090	-0.140	0.180	-0.060	101.060	-1.300	0.300																			1580052876.0	11.27	20.87
26/01/2020 15:34:37	26012020	260120	153437	101.070	12.285440	-56.596818	101.040	-0.180	0.230	-0.080	101.070	-1.100	0.300																			1580052877.0	10.88	20.15
26/01/2020 15:34:38	26012020	260120	153438	101.010	12.285430	-56.596767	101.040	0.010	-0.140	-0.010	101.010	-1.300	0.300																			1580052878.0	10.81	20.02
26/01/2020 15:34:39	26012020	260120	153439	101.060	12.285420	-56.596712	101.210	0.310	-0.510	0.010	101.060	-1.800	0.400																			1580052879.0	11.17	20.69
26/01/2020 15:34:40	26012020	260120	153440	101.250	12.285410	-56.596658	101.360	0.420	-0.510	0.140	101.250	-1.900	0.400																			1580052880.0	11.60	21.48
26/01/2020 15:34:41	26012020	260120	153441	101.340	12.285400	-56.596607	101.350	0.270	-0.290	0.410	101.340	-1.700	0.700																			1580052881.0	11.51	21.32
26/01/2020 15:34:42	26012020	260120	153442	101.290	12.285388	-56.596557	101.250	0.020	-0.150	0.640	101.290	-1.600	0.900																			1580052882.0	11.09	20.54
26/01/2020 15:34:43	26012020	260120	153443	101.180	12.285378	-56.596507	101.200	-0.180	-0.120	0.730	101.180	-1.500	1.100																			1580052883.0	10.87	20.13
26/01/2020 15:34:44	26012020	260120	153444	101.180	12.285368	-56.596455	101.260	-0.230	-0.300	0.600	101.180	-1.600	1.000																			1580052884.0	10.97	20.32
26/01/2020 15:34:45	26012020	260120	153445	101.250	12.285358	-56.596402	101.270	-0.110	-0.650	0.520	101.250	-1.900	0.900																			1580052885.0	11.09	20.54
26/01/2020 15:34:46	26012020	260120	153446	101.210	12.285347	-56.596348	101.150	0.020	-0.810	0.510	101.210	-2.200	0.900																			1580052886.0	11.39	21.09
26/01/2020 15:34:47	26012020	260120	153447	101.080	12.285335	-56.596295	101.030	0.030	-0.490	0.460	101.080	-2.000	0.900																			1580052887.0	11.65	21.58
26/01/2020 15:34:48	26012020	260120	153448	100.980	12.285325	-56.596245	101.050	-0.100	0.120	0.200	100.980	-1.500	0.700																			1580052888.0	11.50	21.30
26/01/2020 15:34:49	26012020	260120	153449	101.070	12.285315	-56.596195	101.250	-0.240	0.450	-0.160	101.070	-1.000	0.300																			1580052889.0	10.97	20.32
26/01/2020 15:34:50	26012020	260120	153450	101.310	12.285307	-56.596143	101.480	-0.270	0.220	-0.320	101.310	-1.000	0.100																			1580052890.0	10.70	19.82
26/01/2020 15:34:51	26012020	260120	153451	101.490	12.285297	-56.596090	101.510	-0.180	-0.210	-0.120	101.490	-1.400	0.100																			1580052891.0	10.99	20.35
26/01/2020 15:34:52	26012020	260120	153452	101.450	12.285283	-56.596038	101.370	0.030	-0.490	0.120	101.450	-1.800	0.400																			1580052892.0	11.45	21.21
26/01/2020 15:34:53	26012020	260120	153453	101.310	12.285272	-56.595985	101.280	0.320	-0.610	0.180	101.310	-1.900	0.500																			1580052893.0	11.52	21.34
26/01/2020 15:34:54	26012020	260120	153454	101.260	12.285262	-56.595933	101.260	0.440	-0.570	0.080	101.260	-2.000	0.500																			1580052894.0	11.32	20.96
26/01/2020 15:34:55	26012020	260120	153455	101.240	12.285253	-56.595882	101.200	0.290	-0.380	-0.060	101.240	-1.800	0.300																			1580052895.0	11.25	20.84
26/01/2020 15:34:56	26012020	260120	153456	101.170	12.285243	-56.595830	101.110	0.040	-0.060	-0.000	101.170	-1.500	0.300																			1580052896.0	11.10	20.56
26/01/2020 15:34:57	26012020	260120	153457	101.100	12.285235	-56.595780	101.140	-0.100	0.130	0.120	101.100	-1.300	0.400																			1580052897.0	10.96	20.30
26/01/2020 15:34:58	26012020	260120	153458	101.150	12.285223	-56.595730	101.220	-0.080	-0.110	0.150	101.150	-1.300	0.500																			1580052898.0	10.82	20.04
26/01/2020 15:34:59	26012020	260120	153459	101.210	12.285213	-56.595677	101.220	0.010	-0.510	0.230	101.210	-1.700	0.500	1015.90	26.30	26.30	19.50	19.60	936.00	66.00	66.00	372.00	29.70	356.00	8.80	90.00	3.10	67767	3139.00	27.60	27.50	1580052899.0	11.03	20.43
26/01/2020 15:35:00	26012020	260120	153500	101.170	12.285202	-56.595623	101.130	-0.000	-0.580	0.460	101.170	-2.000	0.700																			1580052900.0	11.49	21.28
26/01/2020 15:35:01	26012020	260120	153501	101.070	12.285188	-56.595572	101.100	-0.130	-0.290	0.620	101.070	-1.800	0.900																			1580052901.0	11.60	21.48
26/01/2020 15:35:02	26012020	260120	153502	101.070	12.285178	-56.595522	101.130	-0.220	-0.160	0.660	101.070	-1.500	1.000																			1580052902.0	11.15	20.65
26/01/2020 15:35:03	26012020	260120	153503	101.090	12.285168	-56.595470	101.070	-0.180	-0.370	0.730	101.090	-1.600	1.100																			1580052903.0	10.82	20.04
26/01/2020 15:35:04	26012020	260120	153504	100.980	12.285157	-56.595417	100.880	-0.090	-0.600	0.800	100.980	-1.900	1.100																			1580052904.0	11.10	20.56
26/01/2020 15:35:05	26012020	260120	153505	100.780	12.285145	-56.595363	100.690	0.020	-0.600	0.820	100.780	-2.000	1.200																			1580052905.0	11.52	21.34
26/01/2020 15:35:06	26012020	260120	153506	100.610	12.285133	-56.595312	100.630	0.070	-0.320	0.650	100.610	-1.800	1.100																			1580052906.0	11.52	21.34
26/01/2020 15:35:07	26012020	260120	153507	100.610	12.285125	-56.595258	100.780	-0.030	0.200	0.300	100.610	-1.400	0.800																			1580052907.0	11.39	21.09
26/01/2020 15:35:08	26012020	260120	153508	100.830	12.285115	-56.595208	101.100	-0.170	0.590	-0.050	100.830	-0.900	0.400																			1580052908.0	11.13	20.61
26/01/2020 15:35:09	26012020	260120	153509	101.170	12.285107	-56.595158	101.390	-0.130	0.520	-0.250	101.170	-0.800	0.200																			1580052909.0	10.77	19.95
26/01/2020 15:35:10	26012020	260120	153510	101.410	12.285098	-56.595107	101.500	0.150	-0.050	-0.310	101.410	-1.200	0.100																			1580052910.0	10.79	19.98
26/01/2020 15:35:11	26012020	260120	153511	101.480	12.285088	-56.595053	101.570	0.470	-0.730	-0.170	101.480	-1.900	0.100																			1580052911.0	11.15	20.65
26/01/2020 15:35:12	26012020	260120	153512	101.560	12.285078	-56.594998	101.760	0.550	-0.970	0.010	101.560	-2.300	0.300																			1580052912.0	11.59	21.46
26/01/2020 15:35:13	26012020	260120	153513	101.770	12.285068	-56.594947	101.910	0.240	-0.560	0.210	101.770	-2.100	0.500																			1580052913.0	11.68	21.63
26/01/2020 15:35:14	26012020	260120	153514	101.850	12.285057	-56.594898	101.760	-0.170	-0.140	0.430	101.850	-1.600	0.700																			1580052914.0	11.10	20.56
26/01/2020 15:35:15	26012020	260120	153515	101.590	12.285047	-56.594850	101.380	-0.230	-0.390	0.630	101.590	-1.600	0.900																			1580052915.0	10.46	19.37
26/01/2020 15:35:16	26012020	260120	153516	101.210	12.285033	-56.594797	101.150	0.020	-0.930	0.620	101.210	-2.100	1.000																			1580052916.0	10.65	19.72
26/01/2020 15:35:17	26012020	260120	153517	101.060	12.285022	-56.594742	101.190	0.120	-0.860	0.270	101.060	-2.300	0.800																			1580052917.0	11.62	21.52
26/01/2020 15:35:18	26012020	260120	153518	101.150	12.285013	-56.594688	101.280	-0.160	-0.080	0.040	101.150	-1.800	0.400																			1580052918.0	12.00	22.22
26/01/2020 15:35:19	26012020	260120	153519	101.230	12.285002	-56.594640	101.320	-0.530	0.660	0.110	101.230	-0.900	0.400																			1580052919.0	11.29	20.91
26/01/2020 15:35:20	26012020	260120	153520	101.280	12.284990	-56.594592	101.420	-0.600	0.630	0.140	101.280	-0.600	0.500																			1580052920.0	10.50	19.45
26/01/2020 15:35:21	26012020	260120	153521	101.420	12.284978	-56.594538	101.650	-0.310	-0.040	-0.110	101.420	-1.100	0.400																			1580052921.0	10.58	19.59
26/01/2020 15:35:22	26012020	260120	153522	101.660	12.284968	-56.594483	101.840	0.080	-0.550	-0.310	101.660	-1.800	0.100																			1580052922.0	11.38	21.08
26/01/2020 15:35:23	26012020	260120	153523	101.830	12.284958	-56.594430	101.920	0.270	-0.490	-0.210	101.830	-1.900	0.100																			1580052923.0	11.87	21.98
26/01/2020 15:35:24	26012020	260120	153524	101.870	12.284947	-56.594380	101.930	0.220	-0.190	0.040	101.870	-1.700	0.300																			1580052924.0	11.52	21.34
26/01/2020 15:35:25	26012020	260120	153525	101.870	12.284937	-56.594332	101.890	0.180	-0.100	0.240	101.870	-1.500	0.600																			1580052925.0	10.86	20.11
26/01/2020 15:35:26	26012020	260120	153526	101.810	12.284925	-56.594280	101.800	0.290	-0.310	0.250	101.810	-1.600	0.600																			1580052926.0	10.62	19.67
26/01/2020 15:35:27	26012020	260120	153527	101.720	12.284915	-56.594228	101.690	0.470	-0.590	0.130	101.720	-1.900	0.600																			1580052927.0	10.92	20.22
26/01/2020 15:35:28	26012020	260120	153528	101.630	12.284907	-56.594175	101.660	0.460	-0.620	0.010	101.630	-2.000	0.400																			1580052928.0	11.29	20.91
26/01/2020 15:35:29	26012020	260120	153529	101.620	12.284897	-56.594123	101.700	0.060	-0.230	0.080	101.620	-1.800	0.400																			1580052929.0	11.46	21.22
26/01/2020 15:35:30	26012020	260120	153530	101.680	12.284887	-56.594073	101.770	-0.470	0.150	0.270	101.680	-1.300	0.600																			1580052930.0	11.14	20.63
26/01/2020 15:35:31	26012020	260120	153531	101.740	12.284873	-56.594025	101.740	-0.600	-0.040	0.510	101.740	-1.300	0.800																			1580052931.0	10.61	19.65
26/01/2020 15:35:32	26012020	260120	153532	101.640	12.284860	-56.593973	101.550	-0.240	-0.690	0.760	101.640	-1.800	1.100																			1580052932.0	10.68	19.78
26/01/2020 15:35:33	26012020	260120	153533	101.450	12.284847	-56.593918	101.410	0.190	-1.050	0.710	101.450	-2.400	1.100																			1580052933.0	11.41	21.13
26/01/2020 15:35:34	26012020	260120	153534	101.330	12.284835	-56.593865	101.340	0.220	-0.480	0.510	101.330	-2.200	0.900																			1580052934.0	12.01	22.24
26/01/2020 15:35:35	26012020	260120	153535	101.300	12.284825	-56.593815	101.400	-0.140	0.450	0.260	101.300	-1.200	0.700																			1580052935.0	11.63	21.54
26/01/2020 15:35:36	26012020	260120	153536	101.410	12.284817	-56.593768	101.560	-0.440	0.740	-0.020	101.410	-0.600	0.400																			1580052936.0	10.58	19.59
26/01/2020 15:35:37	26012020	260120	153537	101.590	12.284807	-56.593718	101.690	-0.320	0.180	-0.240	101.590	-0.900	0.200																			1580052937.0	10.18	18.85
26/01/2020 15:35:38	26012020	260120	153538	101.700	12.284795	-56.593663	101.710	0.110	-0.500	-0.210	101.700	-1.700	0.100																			1580052938.0	10.88	20.15
26/01/2020 15:35:39	26012020	260120	153539	101.690	12.284785	-56.593610	101.660	0.420	-0.710	0.060	101.680	-2.100	0.300																			1580052939.0	11.68	21.63
26/01/2020 15:35:40	26012020	260120	153540	101.640	12.284773	-56.593558	101.660	0.400	-0.520	0.270	101.640	-2.000	0.600																			1580052940.0	11.69	21.65
26/01/2020 15:35:41	26012020	260120	153541	101.640	12.284762	-56.593508	101.690	0.210	-0.330	0.320	101.640	-1.800	0.700																			1580052941.0	11.09	20.54
26/01/2020 15:35:42	26012020	260120	153542	101.660	12.284752	-56.593458	101.680	0.060	-0.270	0.260	101.660	-1.700	0.700																			1580052942.0	10.74	19.89
26/01/2020 15:35:43	26012020	260120	153543	101.640	12.284742	-56.593407	101.650	0.000	-0.240	0.230	101.640	-1.600	0.600																			1580052943.0	10.85	20.09
26/01/2020 15:35:44	26012020	260120	153544	101.610	12.284730	-56.593357	101.620	0.010	-0.230	0.230	101.610	-1.600	0.600																			1580052944.0	11.03	20.43
26/01/2020 15:35:45	26012020	260120	153545	101.560	12.284718	-56.593305	101.490	0.100	-0.330	0.200	101.560	-1.700	0.600																			1580052945.0	11.10	20.56
26/01/2020 15:35:46	26012020	260120	153546	101.420	12.284708	-56.593252	101.350	0.190	-0.480	0.090	101.420	-1.800	0.500																			1580052946.0	11.12	20.59
26/01/2020 15:35:47	26012020	260120	153547	101.320	12.284698	-56.593200	101.420	0.100	-0.310	0.010	101.320	-1.800	0.400																			1580052947.0	11.34	21.00
26/01/2020 15:35:48	26012020	260120	153548	101.440	12.284688	-56.593148	101.630	-0.210	0.140	-0.010	101.440	-1.400	0.300																			1580052948.0	11.39	21.09
26/01/2020 15:35:49	26012020	260120	153549	101.660	12.284677	-56.593100	101.740	-0.510	0.360	0.150	101.660	-1.000	0.400																			1580052949.0	10.95	20.28
26/01/2020 15:35:50	26012020	260120	153550	101.680	12.284665	-56.593052	101.560	-0.520	0.000	0.490	101.680	-1.200	0.700																			1580052950.0	10.54	19.52
26/01/2020 15:35:51	26012020	260120	153551	101.500	12.284650	-56.592998	101.310	-0.210	-0.680	0.730	101.440	-1.800	1.000																			1580052951.0	10.80	20.00
26/01/2020 15:35:52	26012020	260120	153552	101.230	12.284638	-56.592943	101.190	0.160	-1.070	0.670	101.230	-2.400	1.100																			1580052952.0	11.45	21.21
26/01/2020 15:35:53	26012020	260120	153553	101.160	12.284627	-56.592892	101.160	0.320	-0.760	0.540	101.150	-2.300	0.900																			1580052953.0	11.50	21.30
26/01/2020 15:35:54	26012020	260120	153554	101.130	12.284617	-56.592842	101.150	0.240	-0.140	0.410	101.130	-1.700	0.800																			1580052954.0	10.79	19.98
26/01/2020 15:35:55	26012020	260120	153555	101.110	12.284607	-56.592792	101.160	0.160	0.190	0.260	101.110	-1.300	0.700																			1580052955.0	10.79	19.98
26/01/2020 15:35:56	26012020	260120	153556	101.120	12.284597	-56.592742	101.170	0.210	0.100	0.100	101.120	-1.200	0.500																			1580052956.0	10.60	19.63
26/01/2020 15:35:57	26012020	260120	153557	101.140	12.284587	-56.592688	101.190	0.270	-0.010	-0.080	101.140	-1.400	0.400																			1580052957.0	10.97	20.32
26/01/2020 15:35:58	26012020	260120	153558	101.170	12.284577	-56.592637	101.270	0.140	0.060	-0.170	101.170	-1.400	0.200																			1580052958.0	11.37	21.06
26/01/2020 15:35:59	26012020	260120	153559	101.280	12.284568	-56.592585	101.440	-0.110	-0.000	0.090	101.280	-1.300	0.300	1015.90	26.30	26.40	19.70	19.80	932.00	67.00	67.00	372.00	29.70	354.00	9.10	84.00	3.40	67613	3398.00	27.60	27.50	1580052959.0	11.21	20.76
26/01/2020 15:36:00	26012020	260120	153600	101.440	12.284557	-56.592535	101.560	-0.270	-0.340	0.430	101.440	-1.600	0.700																			1580052960.0	10.89	20.17
26/01/2020 15:36:01	26012020	260120	153601	101.510	12.284543	-56.592483	101.480	-0.240	-0.690	0.660	101.510	-2.000	0.900																			1580052961.0	10.97	20.32
26/01/2020 15:36:02	26012020	260120	153602	101.370	12.284532	-56.592432	101.270	-0.150	-0.710	0.890	101.370	-2.100	1.200																			1580052962.0	11.27	20.87
26/01/2020 15:36:03	26012020	260120	153603	101.150	12.284518	-56.592380	101.020	-0.100	-0.520	0.940	101.150	-2.000	1.300																			1580052963.0	11.32	20.96
26/01/2020 15:36:04	26012020	260120	153604	100.890	12.284507	-56.592330	100.740	-0.050	-0.450	0.710	100.890	-1.800	1.200																			1580052964.0	11.03	20.43
26/01/2020 15:36:05	26012020	260120	153605	100.610	12.284497	-56.592278	100.520	0.100	-0.540	0.340	100.610	-1.900	0.800																			1580052965.0	10.94	20.26
26/01/2020 15:36:06	26012020	260120	153606	100.460	12.284488	-56.592225	100.510	0.300	-0.510	0.040	100.460	-1.900	0.500																			1580052966.0	11.22	20.78
26/01/2020 15:36:07	26012020	260120	153607	100.490	12.284480	-56.592172	100.600	0.360	-0.160	-0.080	100.490	-1.700	0.300																			1580052967.0	11.50	21.30
26/01/2020 15:36:08	26012020	260120	153608	100.610	12.284470	-56.592120	100.760	0.170	0.360	0.010	100.610	-1.200	0.300																			1580052968.0	11.41	21.13
26/01/2020 15:36:09	26012020	260120	153609	100.770	12.284458	-56.592072	100.920	-0.210	0.760	0.300	100.770	-0.700	0.600																			1580052969.0	11.02	20.41
26/01/2020 15:36:10	26012020	260120	153610	100.930	12.284447	-56.592022	101.110	-0.490	0.620	0.480	100.930	-0.600	0.800																			1580052970.0	10.71	19.83
26/01/2020 15:36:11	26012020	260120	153611	101.100	12.284435	-56.591972	101.210	-0.360	-0.240	0.530	101.100	-1.300	0.900																			1580052971.0	10.62	19.67
26/01/2020 15:36:12	26012020	260120	153612	101.140	12.284425	-56.591917	101.160	0.020	-1.110	0.530	101.140	-2.200	0.900																			1580052972.0	11.06	20.48
26/01/2020 15:36:13	26012020	260120	153613	101.070	12.284413	-56.591862	101.090	0.220	-1.140	0.460	101.070	-2.600	0.900																			1580052973.0	11.82	21.89
26/01/2020 15:36:14	26012020	260120	153614	101.000	12.284403	-56.591812	101.000	0.050	-0.520	0.420	101.000	-2.100	0.800																			1580052974.0	11.74	21.74
26/01/2020 15:36:15	26012020	260120	153615	100.880	12.284393	-56.591765	100.790	-0.190	-0.080	0.450	100.880	-1.500	0.800																			1580052975.0	10.84	20.08
26/01/2020 15:36:16	26012020	260120	153616	100.640	12.284382	-56.591715	100.540	-0.100	-0.330	0.390	100.640	-1.600	0.800																			1580052976.0	10.29	19.06
26/01/2020 15:36:17	26012020	260120	153617	100.430	12.284372	-56.591662	100.410	0.280	-0.740	0.230	100.430	-2.000	0.700																			1580052977.0	10.72	19.85
26/01/2020 15:36:18	26012020	260120	153618	100.320	12.284362	-56.591607	100.370	0.530	-0.520	0.130	100.320	-2.100	0.500																			1580052978.0	11.64	21.56
26/01/2020 15:36:19	26012020	260120	153619	100.320	12.284352	-56.591555	100.470	0.350	0.210	0.040	100.320	-1.400	0.400																			1580052979.0	11.83	21.91
26/01/2020 15:36:20	26012020	260120	153620	100.470	12.284343	-56.591505	100.690	-0.050	0.650	0.040	100.470	-0.800	0.400																			1580052980.0	11.07	20.50
26/01/2020 15:36:21	26012020	260120	153621	100.700	12.284333	-56.591457	100.880	-0.320	0.470	0.160	100.700	-0.800	0.500																			1580052981.0	10.45	19.35
26/01/2020 15:36:22	26012020	260120	153622	100.860	12.284323	-56.591403	100.940	-0.310	-0.080	0.340	100.860	-1.300	0.600																			1580052982.0	10.71	19.83
26/01/2020 15:36:23	26012020	260120	153623	100.880	12.284312	-56.591352	100.900	-0.180	-0.550	0.660	100.880	-1.800	0.900																			1580052983.0	11.23	20.80
26/01/2020 15:36:24	26012020	260120	153624	100.800	12.284298	-56.591300	100.780	-0.060	-0.810	0.930	100.800	-2.100	1.200																			1580052984.0	11.48	21.26
26/01/2020 15:36:25	26012020	260120	153625	100.670	12.284287	-56.591248	100.600	-0.000	-0.890	0.980	100.670	-2.300	1.300																			1580052985.0	11.29	20.91
26/01/2020 15:36:26	26012020	260120	153626	100.460	12.284275	-56.591197	100.340	-0.040	-0.690	0.850	100.460	-2.200	1.300																			1580052986.0	11.16	20.67
26/01/2020 15:36:27	26012020	260120	153627	100.210	12.284267	-56.591145	100.140	-0.130	-0.300	0.570	100.210	-1.800	1.000																			1580052987.0	11.13	20.61
26/01/2020 15:36:28	26012020	260120	153628	100.050	12.284257	-56.591095	100.070	-0.100	-0.050	0.290	100.050	-1.500	0.700																			1580052988.0	10.92	20.22
26/01/2020 15:36:29	26012020	260120	153629	100.040	12.284248	-56.591043	100.180	0.030	-0.030	0.020	100.050	-1.400	0.500																			1580052989.0	10.83	20.06
26/01/2020 15:36:30	26012020	260120	153630	100.210	12.284238	-56.590992	100.390	0.090	-0.050	-0.090	100.210	-1.400	0.300																			1580052990.0	11.09	20.54
26/01/2020 15:36:31	26012020	260120	153631	100.430	12.284228	-56.590938	100.540	0.040	0.030	0.030	100.430	-1.400	0.300																			1580052991.0	11.32	20.96
26/01/2020 15:36:32	26012020	260120	153632	100.530	12.284217	-56.590888	100.560	-0.010	0.060	0.250	100.530	-1.300	0.500																			1580052992.0	11.23	20.80
26/01/2020 15:36:33	26012020	260120	153633	100.530	12.284207	-56.590838	100.550	0.070	-0.140	0.360	100.530	-1.400	0.700																			1580052993.0	10.99	20.35
26/01/2020 15:36:34	26012020	260120	153634	100.520	12.284197	-56.590785	100.590	0.200	-0.410	0.320	100.520	-1.700	0.700																			1580052994.0	11.00	20.37
26/01/2020 15:36:35	26012020	260120	153635	100.590	12.284188	-56.590733	100.670	0.250	-0.480	0.250	100.590	-1.900	0.600																			1580052995.0	11.23	20.80
26/01/2020 15:36:36	26012020	260120	153636	100.660	12.284180	-56.590682	100.700	0.160	-0.450	0.250	100.660	-1.900	0.600																			1580052996.0	11.25	20.84
26/01/2020 15:36:37	26012020	260120	153637	100.670	12.284170	-56.590630	100.630	-0.070	-0.370	0.370	100.670	-1.800	0.700																			1580052997.0	11.04	20.45
26/01/2020 15:36:38	26012020	260120	153638	100.570	12.284158	-56.590580	100.480	-0.290	-0.330	0.560	100.570	-1.700	0.900																			1580052998.0	11.01	20.39
26/01/2020 15:36:39	26012020	260120	153639	100.410	12.284147	-56.590528	100.290	-0.260	-0.490	0.720	100.410	-1.800	1.000																			1580052999.0	10.97	20.32
26/01/2020 15:36:40	26012020	260120	153640	100.220	12.284135	-56.590475	100.230	-0.070	-0.570	0.760	100.220	-2.000	1.100																			1580053000.0	11.11	20.58
26/01/2020 15:36:41	26012020	260120	153641	100.220	12.284125	-56.590423	100.390	-0.050	-0.310	0.600	100.220	-1.800	1.000																			1580053001.0	11.46	21.22
26/01/2020 15:36:42	26012020	260120	153642	100.430	12.284115	-56.590372	100.600	-0.240	0.140	0.440	100.430	-1.400	0.900																			1580053002.0	11.39	21.09
26/01/2020 15:36:43	26012020	260120	153643	100.590	12.284103	-56.590323	100.680	-0.390	0.340	0.360	100.610	-1.100	0.700																			1580053003.0	10.97	20.32
26/01/2020 15:36:44	26012020	260120	153644	100.660	12.284093	-56.590272	100.710	-0.230	0.050	0.270	100.660	-1.200	0.700																			1580053004.0	10.70	19.82
26/01/2020 15:36:45	26012020	260120	153645	100.720	12.284083	-56.590218	100.850	0.130	-0.350	0.140	100.720	-1.600	0.600																			1580053005.0	10.95	20.28
26/01/2020 15:36:46	26012020	260120	153646	100.890	12.284073	-56.590165	101.030	0.380	-0.430	-0.010	100.890	-1.800	0.400																			1580053006.0	11.47	21.24
26/01/2020 15:36:47	26012020	260120	153647	101.050	12.284065	-56.590113	101.080	0.360	-0.240	-0.050	101.050	-1.700	0.300																			1580053007.0	11.49	21.28
26/01/2020 15:36:48	26012020	260120	153648	101.070	12.284055	-56.590063	101.040	0.200	-0.120	-0.070	101.070	-1.500	0.300																			1580053008.0	11.04	20.45
26/01/2020 15:36:49	26012020	260120	153649	101.040	12.284047	-56.590013	101.020	0.130	-0.280	-0.050	101.040	-1.600	0.300																			1580053009.0	10.73	19.87
26/01/2020 15:36:50	26012020	260120	153650	101.040	12.284037	-56.589962	101.030	0.230	-0.610	0.170	101.040	-1.900	0.400																			1580053010.0	10.85	20.09
26/01/2020 15:36:51	26012020	260120	153651	101.010	12.284027	-56.589908	100.960	0.290	-0.810	0.470	101.010	-2.200	0.700																			1580053011.0	11.20	20.74
26/01/2020 15:36:52	26012020	260120	153652	100.910	12.284015	-56.589855	100.850	0.100	-0.610	0.690	100.910	-2.100	1.000																			1580053012.0	11.45	21.21
26/01/2020 15:36:53	26012020	260120	153653	100.770	12.284005	-56.589805	100.750	-0.330	-0.110	0.820	100.770	-1.700	1.100																			1580053013.0	11.39	21.09
26/01/2020 15:36:54	26012020	260120	153654	100.680	12.283993	-56.589755	100.710	-0.690	0.150	0.780	100.680	-1.300	1.200																			1580053014.0	11.00	20.37
26/01/2020 15:36:55	26012020	260120	153655	100.650	12.283980	-56.589705	100.710	-0.720	-0.060	0.550	100.650	-1.300	1.000																			1580053015.0	10.73	19.87
26/01/2020 15:36:56	26012020	260120	153656	100.660	12.283968	-56.589652	100.720	-0.390	-0.320	0.330	100.660	-1.600	0.800																			1580053016.0	11.06	20.48
26/01/2020 15:36:57	26012020	260120	153657	100.670	12.283957	-56.589598	100.720	0.050	-0.340	0.130	100.670	-1.700	0.600																			1580053017.0	11.54	21.37
26/01/2020 15:36:58	26012020	260120	153658	100.710	12.283947	-56.589547	100.810	0.330	-0.140	-0.140	100.710	-1.600	0.300																			1580053018.0	11.54	21.37
26/01/2020 15:36:59	26012020	260120	153659	100.840	12.283938	-56.589495	101.050	0.320	0.200	-0.390	100.840	-1.300	0.100	1015.90	26.30	26.30	19.60	19.70	945.00	66.00	66.00	372.00	29.70	352.00	8.80	78.00	3.20	68265	3208.00	27.60	27.60	1580053019.0	11.24	20.82
26/01/2020 15:37:00	26012020	260120	153700	101.120	12.283930	-56.589445	101.360	0.110	0.450	-0.450	101.120	-1.000	-0.100																			1580053020.0	10.97	20.32
26/01/2020 15:37:01	26012020	260120	153701	101.410	12.283922	-56.589397	101.490	0.040	0.140	-0.200	101.410	-1.000	0.000																			1580053021.0	10.64	19.71
26/01/2020 15:37:02	26012020	260120	153702	101.430	12.283912	-56.589343	101.280	0.290	-0.740	0.260	101.430	-1.800	0.400																			1580053022.0	10.60	19.63
26/01/2020 15:37:03	26012020	260120	153703	101.140	12.283900	-56.589288	100.980	0.590	-1.430	0.670	101.140	-2.600	0.900																			1580053023.0	11.20	20.74
26/01/2020 15:37:04	26012020	260120	153704	100.870	12.283888	-56.589235	100.840	0.540	-1.260	0.810	100.870	-2.800	1.200																			1580053024.0	11.89	22.02
26/01/2020 15:37:05	26012020	260120	153705	100.780	12.283878	-56.589183	100.870	0.040	-0.430	0.720	100.780	-2.100	1.100																			1580053025.0	11.75	21.76
26/01/2020 15:37:06	26012020	260120	153706	100.840	12.283867	-56.589137	100.960	-0.540	0.260	0.680	100.840	-1.300	1.000																			1580053026.0	10.94	20.26
26/01/2020 15:37:07	26012020	260120	153707	100.910	12.283855	-56.589087	100.970	-0.820	0.420	0.720	100.910	-1.000	1.100																			1580053027.0	10.40	19.26
26/01/2020 15:37:08	26012020	260120	153708	100.900	12.283842	-56.589035	100.960	-0.650	0.180	0.670	100.900	-1.100	1.100																			1580053028.0	10.70	19.82
26/01/2020 15:37:09	26012020	260120	153709	100.890	12.283830	-56.588983	101.000	-0.150	-0.270	0.530	100.890	-1.500	1.000																			1580053029.0	11.23	20.80
26/01/2020 15:37:10	26012020	260120	153710	100.970	12.283818	-56.588928	101.130	0.330	-0.580	0.260	100.970	-1.900	0.700																			1580053030.0	11.55	21.39
26/01/2020 15:37:11	26012020	260120	153711	101.120	12.283808	-56.588875	101.310	0.390	-0.350	0.100	101.120	-1.900	0.500																			1580053031.0	11.73	21.72
26/01/2020 15:37:12	26012020	260120	153712	101.290	12.283800	-56.588825	101.460	0.080	0.240	0.030	101.290	-1.400	0.400																			1580053032.0	11.52	21.34
26/01/2020 15:37:13	26012020	260120	153713	101.460	12.283792	-56.588777	101.600	-0.200	0.530	0.000	101.460	-0.900	0.400																			1580053033.0	10.76	19.93
26/01/2020 15:37:14	26012020	260120	153714	101.570	12.283782	-56.588727	101.630	-0.120	0.070	0.120	101.570	-1.000	0.400																			1580053034.0	10.29	19.06
26/01/2020 15:37:15	26012020	260120	153715	101.560	12.283770	-56.588675	101.520	0.250	-0.830	0.410	101.560	-1.900	0.700																			1580053035.0	10.63	19.69
26/01/2020 15:37:16	26012020	260120	153716	101.410	12.283757	-56.588620	101.320	0.570	-1.390	0.620	101.410	-2.600	0.900																			1580053036.0	11.43	21.17
26/01/2020 15:37:17	26012020	260120	153717	101.180	12.283747	-56.588567	101.120	0.580	-1.140	0.620	101.180	-2.700	1.000																			1580053037.0	11.91	22.06
26/01/2020 15:37:18	26012020	260120	153718	101.000	12.283737	-56.588515	101.030	0.250	-0.330	0.470	101.000	-2.000	0.900																			1580053038.0	11.59	21.46
26/01/2020 15:37:19	26012020	260120	153719	100.970	12.283728	-56.588467	101.110	-0.220	0.390	0.210	100.970	-1.200	0.700																			1580053039.0	10.88	20.15
26/01/2020 15:37:20	26012020	260120	153720	101.090	12.283718	-56.588418	101.240	-0.500	0.430	0.100	101.090	-0.900	0.500																			1580053040.0	10.41	19.28
26/01/2020 15:37:21	26012020	260120	153721	101.210	12.283707	-56.588367	101.260	-0.490	-0.010	0.300	101.210	-1.200	0.600																			1580053041.0	10.60	19.63
26/01/2020 15:37:22	26012020	260120	153722	101.190	12.283692	-56.588312	101.220	-0.350	-0.280	0.470	101.190	-1.600	0.800																			1580053042.0	11.31	20.95
26/01/2020 15:37:23	26012020	260120	153723	101.150	12.283678	-56.588260	101.180	-0.250	-0.180	0.420	101.150	-1.600	0.800																			1580053043.0	11.73	21.72
26/01/2020 15:37:24	26012020	260120	153724	101.110	12.283668	-56.588210	101.180	-0.160	-0.110	0.170	101.110	-1.500	0.600																			1580053044.0	11.33	20.98
26/01/2020 15:37:25	26012020	260120	153725	101.150	12.283658	-56.588160	101.250	0.000	-0.290	-0.010	101.150	-1.600	0.400																			1580053045.0	10.89	20.17
26/01/2020 15:37:26	26012020	260120	153726	101.200	12.283648	-56.588107	101.210	0.270	-0.500	-0.030	101.200	-1.800	0.300																			1580053046.0	10.94	20.26
26/01/2020 15:37:27	26012020	260120	153727	101.120	12.283638	-56.588055	101.080	0.470	-0.430	0.010	101.120	-1.900	0.400																			1580053047.0	11.22	20.78
26/01/2020 15:37:28	26012020	260120	153728	100.980	12.283628	-56.588003	100.980	0.480	-0.280	0.190	100.980	-1.700	0.500																			1580053048.0	11.24	20.82
26/01/2020 15:37:29	26012020	260120	153729	100.910	12.283618	-56.587953	100.960	0.380	-0.360	0.460	100.910	-1.700	0.700																			1580053049.0	10.98	20.33
26/01/2020 15:37:30	26012020	260120	153730	100.910	12.283608	-56.587902	100.950	0.250	-0.630	0.660	100.910	-1.900	0.900																			1580053050.0	10.94	20.26
26/01/2020 15:37:31	26012020	260120	153731	100.890	12.283597	-56.587848	100.910	0.050	-0.540	0.910	100.880	-2.000	1.200																			1580053051.0	11.29	20.91
26/01/2020 15:37:32	26012020	260120	153732	100.830	12.283583	-56.587797	100.880	-0.210	-0.080	1.110	100.830	-1.600	1.400																			1580053052.0	11.52	21.34
26/01/2020 15:37:33	26012020	260120	153733	100.800	12.283572	-56.587748	100.850	-0.430	0.250	0.960	100.790	-1.200	1.400																			1580053053.0	11.13	20.61
26/01/2020 15:37:34	26012020	260120	153734	100.780	12.283560	-56.587697	100.870	-0.500	0.230	0.590	100.780	-1.100	1.100																			1580053054.0	10.75	19.91
26/01/2020 15:37:35	26012020	260120	153735	100.850	12.283550	-56.587645	101.020	-0.410	0.040	0.230	100.850	-1.200	0.700																			1580053055.0	10.90	20.19
26/01/2020 15:37:36	26012020	260120	153736	101.010	12.283540	-56.587593	101.110	-0.160	-0.260	0.020	101.010	-1.500	0.400																			1580053056.0	11.17	20.69
26/01/2020 15:37:37	26012020	260120	153737	101.040	12.283530	-56.587542	101.020	0.160	-0.600	0.070	101.040	-1.900	0.400																			1580053057.0	11.23	20.80
26/01/2020 15:37:38	26012020	260120	153738	100.950	12.283518	-56.587488	100.960	0.410	-0.750	0.140	100.950	-2.100	0.500																			1580053058.0	11.33	20.98
26/01/2020 15:37:39	26012020	260120	153739	100.920	12.283510	-56.587437	101.020	0.410	-0.400	0.200	100.920	-2.000	0.600																			1580053059.0	11.39	21.09
26/01/2020 15:37:40	26012020	260120	153740	101.000	12.283500	-56.587387	101.130	0.150	0.150	0.160	101.000	-1.400	0.600																			1580053060.0	11.23	20.80
26/01/2020 15:37:41	26012020	260120	153741	101.120	12.283492	-56.587338	101.170	-0.030	0.080	0.110	101.120	-1.200	0.500																			1580053061.0	10.62	19.67
26/01/2020 15:37:42	26012020	260120	153742	101.100	12.283482	-56.587287	100.990	0.170	-0.720	0.340	101.100	-1.800	0.600																			1580053062.0	10.44	19.33
26/01/2020 15:37:43	26012020	260120	153743	100.890	12.283468	-56.587230	100.880	0.390	-1.170	0.560	100.890	-2.500	0.900																			1580053063.0	11.25	20.84
26/01/2020 15:37:44	26012020	260120	153744	100.820	12.283457	-56.587177	100.920	0.140	-0.480	0.600	100.820	-2.200	1.000																			1580053064.0	12.16	22.52
26/01/2020 15:37:45	26012020	260120	153745	100.900	12.283445	-56.587128	101.030	-0.470	0.560	0.460	100.900	-1.100	0.900																			1580053065.0	11.68	21.63
26/01/2020 15:37:46	26012020	260120	153746	100.990	12.283435	-56.587082	101.060	-0.760	0.700	0.360	100.990	-0.600	0.800																			1580053066.0	10.34	19.15
26/01/2020 15:37:47	26012020	260120	153747	101.010	12.283423	-56.587032	101.100	-0.490	-0.060	0.290	101.010	-1.100	0.700																			1580053067.0	10.02	18.56
26/01/2020 15:37:48	26012020	260120	153748	101.070	12.283412	-56.586977	101.170	-0.090	-0.610	0.270	101.070	-1.900	0.600																			1580053068.0	11.12	20.59
26/01/2020 15:37:49	26012020	260120	153749	101.140	12.283400	-56.586923	101.190	0.050	-0.440	0.280	101.140	-1.900	0.600																			1580053069.0	11.97	22.17
26/01/2020 15:37:50	26012020	260120	153750	101.160	12.283388	-56.586873	101.240	0.030	-0.090	0.260	101.160	-1.500	0.600																			1580053070.0	11.50	21.30
26/01/2020 15:37:51	26012020	260120	153751	101.210	12.283378	-56.586825	101.240	0.150	-0.240	0.340	101.210	-1.500	0.700																			1580053071.0	10.62	19.67
26/01/2020 15:37:52	26012020	260120	153752	101.170	12.283367	-56.586773	101.160	0.380	-0.560	0.480	101.170	-1.800	0.800																			1580053072.0	10.55	19.54
26/01/2020 15:37:53	26012020	260120	153753	101.090	12.283357	-56.586720	101.090	0.450	-0.410	0.490	101.090	-1.900	0.900																			1580053073.0	11.24	20.82
26/01/2020 15:37:54	26012020	260120	153754	101.030	12.283347	-56.586670	101.040	0.280	0.050	0.450	101.030	-1.500	0.800																			1580053074.0	11.37	21.06
26/01/2020 15:37:55	26012020	260120	153755	100.990	12.283338	-56.586622	101.030	0.070	0.100	0.370	100.990	-1.200	0.800																			1580053075.0	10.77	19.95
26/01/2020 15:37:56	26012020	260120	153756	100.990	12.283328	-56.586572	101.030	0.010	-0.440	0.310	100.990	-1.600	0.700																			1580053076.0	10.44	19.33
26/01/2020 15:37:57	26012020	260120	153757	100.980	12.283317	-56.586517	100.950	0.050	-0.870	0.370	100.970	-2.100	0.700																			1580053077.0	10.99	20.35
26/01/2020 15:37:58	26012020	260120	153758	100.850	12.283305	-56.586465	100.770	0.000	-0.650	0.470	100.850	-2.200	0.800																			1580053078.0	11.63	21.54
26/01/2020 15:37:59	26012020	260120	153759	100.660	12.283295	-56.586415	100.620	-0.230	-0.130	0.580	100.660	-1.700	0.900	1015.90	26.30	26.40	19.50	19.60	949.00	66.00	66.00	371.00	29.70	353.00	9.40	84.00	3.80	68461	3250.00	27.60	27.60	1580053079.0	11.47	21.24
26/01/2020 15:38:00	26012020	260120	153800	100.530	12.283283	-56.586367	100.570	-0.450	0.050	0.580	100.530	-1.300	1.000																			1580053080.0	10.80	20.00
26/01/2020 15:38:01	26012020	260120	153801	100.510	12.283272	-56.586315	100.610	-0.490	-0.050	0.520	100.510	-1.400	0.900																			1580053081.0	10.60	19.63
26/01/2020 15:38:02	26012020	260120	153802	100.540	12.283260	-56.586263	100.570	-0.420	-0.090	0.440	100.540	-1.500	0.800																			1580053082.0	11.04	20.45
26/01/2020 15:38:03	26012020	260120	153803	100.480	12.283248	-56.586212	100.440	-0.240	-0.120	0.310	100.480	-1.500	0.700																			1580053083.0	11.27	20.87
26/01/2020 15:38:04	26012020	260120	153804	100.350	12.283237	-56.586160	100.380	0.090	-0.310	0.080	100.350	-1.600	0.500																			1580053084.0	11.11	20.58
26/01/2020 15:38:05	26012020	260120	153805	100.340	12.283228	-56.586108	100.450	0.390	-0.370	-0.160	100.340	-1.800	0.300																			1580053085.0	11.09	20.54
26/01/2020 15:38:06	26012020	260120	153806	100.450	12.283220	-56.586057	100.550	0.480	-0.170	-0.290	100.450	-1.600	0.100																			1580053086.0	11.30	20.93
26/01/2020 15:38:07	26012020	260120	153807	100.550	12.283212	-56.586007	100.600	0.430	0.010	-0.280	100.550	-1.400	0.100																			1580053087.0	11.10	20.56
26/01/2020 15:38:08	26012020	260120	153808	100.590	12.283203	-56.585957	100.620	0.380	-0.150	-0.020	100.590	-1.400	0.200																			1580053088.0	10.74	19.89
26/01/2020 15:38:09	26012020	260120	153809	100.600	12.283192	-56.585905	100.630	0.340	-0.490	0.380	100.610	-1.700	0.600																			1580053089.0	10.80	20.00
26/01/2020 15:38:10	26012020	260120	153810	100.600	12.283180	-56.585852	100.600	0.180	-0.600	0.770	100.600	-2.000	1.000																			1580053090.0	11.16	20.67
26/01/2020 15:38:11	26012020	260120	153811	100.540	12.283168	-56.585802	100.500	-0.200	-0.300	1.000	100.540	-1.800	1.300																			1580053091.0	11.38	21.08
26/01/2020 15:38:12	26012020	260120	153812	100.430	12.283157	-56.585752	100.370	-0.590	-0.050	1.030	100.430	-1.500	1.400																			1580053092.0	11.07	20.50
26/01/2020 15:38:13	26012020	260120	153813	100.320	12.283147	-56.585702	100.290	-0.650	-0.220	0.970	100.320	-1.500	1.400																			1580053093.0	10.62	19.67
26/01/2020 15:38:14	26012020	260120	153814	100.250	12.283133	-56.585650	100.220	-0.400	-0.570	0.810	100.250	-1.800	1.200																			1580053094.0	10.77	19.95
26/01/2020 15:38:15	26012020	260120	153815	100.170	12.283122	-56.585597	100.090	-0.100	-0.610	0.660	100.170	-2.000	1.100																			1580053095.0	11.34	21.00
26/01/2020 15:38:16	26012020	260120	153816	100.010	12.283110	-56.585545	99.930	0.080	-0.260	0.450	100.010	-1.800	0.900																			1580053096.0	11.55	21.39
26/01/2020 15:38:17	26012020	260120	153817	99.880	12.283102	-56.585495	99.950	0.170	0.100	0.110	99.880	-1.400	0.600																			1580053097.0	11.20	20.74
26/01/2020 15:38:18	26012020	260120	153818	99.990	12.283095	-56.585445	100.210	0.290	0.100	-0.220	99.990	-1.200	0.300																			1580053098.0	10.79	19.98
26/01/2020 15:38:19	26012020	260120	153819	100.320	12.283088	-56.585392	100.590	0.350	-0.050	-0.410	100.320	-1.400	-0.000																			1580053099.0	10.83	20.06
26/01/2020 15:38:20	26012020	260120	153820	100.680	12.283078	-56.585340	100.800	0.260	-0.080	-0.120	100.680	-1.500	0.100																			1580053100.0	11.19	20.72
26/01/2020 15:38:21	26012020	260120	153821	100.800	12.283068	-56.585290	100.790	0.120	-0.180	0.350	100.800	-1.500	0.600																			1580053101.0	11.18	20.71
26/01/2020 15:38:22	26012020	260120	153822	100.750	12.283057	-56.585238	100.740	0.080	-0.480	0.620	100.750	-1.700	0.900																			1580053102.0	10.94	20.26
26/01/2020 15:38:23	26012020	260120	153823	100.700	12.283045	-56.585187	100.680	0.060	-0.650	0.660	100.690	-2.000	1.000																			1580053103.0	11.02	20.41
26/01/2020 15:38:24	26012020	260120	153824	100.620	12.283035	-56.585135	100.600	-0.100	-0.350	0.560	100.620	-1.900	1.000																			1580053104.0	11.12	20.59
26/01/2020 15:38:25	26012020	260120	153825	100.550	12.283025	-56.585085	100.530	-0.300	-0.030	0.510	100.550	-1.500	0.900																			1580053105.0	11.12	20.59
26/01/2020 15:38:26	26012020	260120	153826	100.470	12.283015	-56.585037	100.420	-0.310	-0.230	0.510	100.470	-1.500	0.900																			1580053106.0	10.59	19.61
26/01/2020 15:38:27	26012020	260120	153827	100.360	12.283005	-56.584983	100.340	-0.200	-0.600	0.500	100.360	-1.900	0.900																			1580053107.0	10.71	19.83
26/01/2020 15:38:28	26012020	260120	153828	100.280	12.282993	-56.584930	100.280	-0.160	-0.550	0.470	100.280	-2.000	0.800																			1580053108.0	11.41	21.13
26/01/2020 15:38:29	26012020	260120	153829	100.240	12.282982	-56.584878	100.330	-0.190	-0.120	0.390	100.240	-1.700	0.800																			1580053109.0	11.57	21.43
26/01/2020 15:38:30	26012020	260120	153830	100.330	12.282972	-56.584830	100.460	-0.130	0.170	0.220	100.330	-1.300	0.600																			1580053110.0	11.06	20.48
26/01/2020 15:38:31	26012020	260120	153831	100.470	12.282962	-56.584778	100.540	0.080	0.020	0.030	100.470	-1.300	0.400																			1580053111.0	10.63	19.69
26/01/2020 15:38:32	26012020	260120	153832	100.550	12.282952	-56.584727	100.650	0.310	-0.270	-0.040	100.550	-1.600	0.300																			1580053112.0	10.88	20.15
26/01/2020 15:38:33	26012020	260120	153833	100.670	12.282943	-56.584673	100.750	0.430	-0.360	0.110	100.670	-1.700	0.400																			1580053113.0	11.29	20.91
26/01/2020 15:38:34	26012020	260120	153834	100.740	12.282933	-56.584622	100.750	0.320	-0.240	0.320	100.740	-1.700	0.600																			1580053114.0	11.36	21.04
26/01/2020 15:38:35	26012020	260120	153835	100.720	12.282923	-56.584572	100.740	0.040	-0.100	0.530	100.720	-1.500	0.800																			1580053115.0	11.07	20.50
26/01/2020 15:38:36	26012020	260120	153836	100.710	12.282912	-56.584522	100.770	-0.220	-0.070	0.770	100.710	-1.400	1.000																			1580053116.0	10.81	20.02
26/01/2020 15:38:37	26012020	260120	153837	100.750	12.282902	-56.584472	100.810	-0.300	-0.210	0.950	100.750	-1.500	1.200																			1580053117.0	10.79	19.98
26/01/2020 15:38:38	26012020	260120	153838	100.750	12.282888	-56.584422	100.650	-0.120	-0.620	1.020	100.750	-1.800	1.400																			1580053118.0	10.90	20.19
26/01/2020 15:38:39	26012020	260120	153839	100.490	12.282877	-56.584368	100.270	0.220	-0.980	0.930	100.490	-2.300	1.400																			1580053119.0	11.08	20.52
26/01/2020 15:38:40	26012020	260120	153840	100.150	12.282867	-56.584313	100.160	0.320	-0.680	0.600	100.150	-2.200	1.100																			1580053120.0	11.55	21.39
26/01/2020 15:38:41	26012020	260120	153841	100.160	12.282860	-56.584263	100.420	0.050	0.070	0.280	100.160	-1.600	0.700																			1580053121.0	11.57	21.43
26/01/2020 15:38:42	26012020	260120	153842	100.480	12.282852	-56.584215	100.710	-0.310	0.450	0.070	100.480	-1.000	0.500																			1580053122.0	10.85	20.09
26/01/2020 15:38:43	26012020	260120	153843	100.720	12.282842	-56.584165	100.770	-0.400	0.110	0.130	100.720	-1.100	0.400																			1580053123.0	10.36	19.19
26/01/2020 15:38:44	26012020	260120	153844	100.730	12.282828	-56.584112	100.760	-0.190	-0.410	0.430	100.730	-1.600	0.700																			1580053124.0	10.82	20.04
26/01/2020 15:38:45	26012020	260120	153845	100.720	12.282815	-56.584058	100.780	0.000	-0.390	0.560	100.720	-1.800	0.900																			1580053125.0	11.57	21.43
26/01/2020 15:38:46	26012020	260120	153846	100.750	12.282803	-56.584008	100.770	0.030	-0.070	0.420	100.750	-1.500	0.800																			1580053126.0	11.59	21.46
26/01/2020 15:38:47	26012020	260120	153847	100.720	12.282795	-56.583958	100.710	0.060	-0.100	0.250	100.720	-1.400	0.700																			1580053127.0	10.85	20.09
26/01/2020 15:38:48	26012020	260120	153848	100.680	12.282787	-56.583907	100.720	0.160	-0.450	0.120	100.680	-1.700	0.500																			1580053128.0	10.58	19.59
26/01/2020 15:38:49	26012020	260120	153849	100.700	12.282778	-56.583855	100.730	0.220	-0.660	0.070	100.700	-2.000	0.400																			1580053129.0	11.09	20.54
26/01/2020 15:38:50	26012020	260120	153850	100.690	12.282767	-56.583802	100.680	0.200	-0.500	0.140	100.690	-2.000	0.500																			1580053130.0	11.42	21.15
26/01/2020 15:38:51	26012020	260120	153851	100.640	12.282757	-56.583752	100.620	0.120	-0.140	0.340	100.640	-1.600	0.600																			1580053131.0	11.24	20.82
26/01/2020 15:38:52	26012020	260120	153852	100.560	12.282745	-56.583702	100.570	0.040	-0.000	0.510	100.560	-1.400	0.800																			1580053132.0	10.88	20.15
26/01/2020 15:38:53	26012020	260120	153853	100.530	12.282733	-56.583652	100.560	0.020	-0.170	0.630	100.530	-1.500	0.900																			1580053133.0	10.75	19.91
26/01/2020 15:38:54	26012020	260120	153854	100.520	12.282723	-56.583598	100.580	0.010	-0.290	0.730	100.520	-1.600	1.000																			1580053134.0	11.03	20.43
26/01/2020 15:38:55	26012020	260120	153855	100.540	12.282713	-56.583547	100.600	-0.080	-0.240	0.890	100.540	-1.600	1.200																			1580053135.0	11.33	20.98
26/01/2020 15:38:56	26012020	260120	153856	100.550	12.282702	-56.583497	100.600	-0.190	-0.250	1.030	100.550	-1.600	1.300																			1580053136.0	11.19	20.72
26/01/2020 15:38:57	26012020	260120	153857	100.550	12.282690	-56.583445	100.600	-0.210	-0.420	1.060	100.550	-1.700	1.400																			1580053137.0	11.00	20.37
26/01/2020 15:38:58	26012020	260120	153858	100.540	12.282678	-56.583393	100.520	-0.150	-0.450	1.030	100.540	-1.800	1.400																			1580053138.0	11.11	20.58
26/01/2020 15:38:59	26012020	260120	153859	100.450	12.282667	-56.583342	100.490	-0.110	-0.180	0.780	100.450	-1.700	1.300	1015.90	26.30	26.40	19.00	19.10	952.00	64.00	64.00	370.00	29.70	353.00	9.30	83.00	3.70	68536	3193.00	27.60	27.50	1580053139.0	11.13	20.61
26/01/2020 15:39:00	26012020	260120	153900	100.450	12.282658	-56.583292	100.570	-0.100	0.080	0.360	100.450	-1.400	0.900																			1580053140.0	11.13	20.61
26/01/2020 15:39:01	26012020	260120	153901	100.570	12.282650	-56.583240	100.670	-0.040	0.030	-0.010	100.570	-1.300	0.500																			1580053141.0	10.82	20.04
26/01/2020 15:39:02	26012020	260120	153902	100.670	12.282642	-56.583188	100.680	0.160	-0.350	-0.200	100.670	-1.600	0.200																			1580053142.0	10.83	20.06
26/01/2020 15:39:03	26012020	260120	153903	100.660	12.282633	-56.583135	100.690	0.420	-0.670	-0.130	100.660	-2.000	0.200																			1580053143.0	11.16	20.67
26/01/2020 15:39:04	26012020	260120	153904	100.700	12.282623	-56.583082	100.820	0.450	-0.510	0.010	100.700	-2.000	0.300																			1580053144.0	11.51	21.32
26/01/2020 15:39:05	26012020	260120	153905	100.840	12.282613	-56.583032	100.940	0.140	-0.060	0.240	100.840	-1.600	0.500																			1580053145.0	11.43	21.17
26/01/2020 15:39:06	26012020	260120	153906	100.900	12.282603	-56.582982	100.910	-0.240	0.050	0.560	100.900	-1.300	0.800																			1580053146.0	10.88	20.15
26/01/2020 15:39:07	26012020	260120	153907	100.840	12.282590	-56.582932	100.840	-0.360	-0.270	0.750	100.840	-1.500	1.100																			1580053147.0	10.60	19.63
26/01/2020 15:39:08	26012020	260120	153908	100.770	12.282578	-56.582878	100.790	-0.220	-0.500	0.650	100.770	-1.800	1.100																			1580053148.0	11.05	20.46
26/01/2020 15:39:09	26012020	260120	153909	100.740	12.282567	-56.582827	100.780	-0.050	-0.360	0.360	100.740	-1.800	0.800																			1580053149.0	11.51	21.32
26/01/2020 15:39:10	26012020	260120	153910	100.730	12.282558	-56.582775	100.780	0.030	-0.180	0.060	100.730	-1.600	0.500																			1580053150.0	11.34	21.00
26/01/2020 15:39:11	26012020	260120	153911	100.760	12.282548	-56.582723	100.860	0.020	-0.150	-0.070	100.770	-1.500	0.300																			1580053151.0	10.99	20.35
26/01/2020 15:39:12	26012020	260120	153912	100.850	12.282538	-56.582672	100.950	-0.060	-0.130	-0.000	100.850	-1.500	0.300																			1580053152.0	11.00	20.37
26/01/2020 15:39:13	26012020	260120	153913	100.950	12.282527	-56.582622	101.030	-0.100	-0.050	0.080	100.950	-1.400	0.400																			1580053153.0	11.15	20.65
26/01/2020 15:39:14	26012020	260120	153914	101.010	12.282517	-56.582570	101.050	-0.020	-0.160	0.260	101.010	-1.500	0.600																			1580053154.0	11.03	20.43
26/01/2020 15:39:15	26012020	260120	153915	101.030	12.282507	-56.582518	101.070	0.140	-0.490	0.450	101.030	-1.700	0.700																			1580053155.0	10.95	20.28
26/01/2020 15:39:16	26012020	260120	153916	101.020	12.282495	-56.582467	101.000	0.190	-0.630	0.590	101.020	-2.000	0.900																			1580053156.0	11.21	20.76
26/01/2020 15:39:17	26012020	260120	153917	100.930	12.282483	-56.582413	100.900	0.120	-0.470	0.610	100.930	-1.900	1.000																			1580053157.0	11.45	21.21
26/01/2020 15:39:18	26012020	260120	153918	100.830	12.282473	-56.582363	100.850	0.010	-0.250	0.500	100.830	-1.700	0.900																			1580053158.0	11.22	20.78
26/01/2020 15:39:19	26012020	260120	153919	100.810	12.282463	-56.582312	100.870	-0.040	-0.160	0.250	100.810	-1.500	0.700																			1580053159.0	10.95	20.28
26/01/2020 15:39:20	26012020	260120	153920	100.840	12.282453	-56.582260	100.930	-0.010	-0.180	0.030	100.840	-1.500	0.500																			1580053160.0	11.00	20.37
26/01/2020 15:39:21	26012020	260120	153921	100.920	12.282445	-56.582208	101.030	0.030	-0.120	-0.010	100.920	-1.500	0.300																			1580053161.0	11.17	20.69
26/01/2020 15:39:22	26012020	260120	153922	101.010	12.282435	-56.582157	101.110	-0.000	-0.040	0.130	101.010	-1.400	0.400																			1580053162.0	11.28	20.89
26/01/2020 15:39:23	26012020	260120	153923	101.070	12.282423	-56.582105	101.180	-0.080	-0.080	0.260	101.070	-1.400	0.600																			1580053163.0	11.12	20.59
26/01/2020 15:39:24	26012020	260120	153924	101.150	12.282412	-56.582053	101.280	-0.150	-0.190	0.350	101.150	-1.500	0.700																			1580053164.0	11.10	20.56
26/01/2020 15:39:25	26012020	260120	153925	101.270	12.282400	-56.582002	101.450	-0.200	-0.240	0.400	101.270	-1.600	0.800																			1580053165.0	11.18	20.71
26/01/2020 15:39:26	26012020	260120	153926	101.450	12.282388	-56.581952	101.590	-0.210	-0.220	0.280	101.450	-1.600	0.700																			1580053166.0	11.19	20.72
26/01/2020 15:39:27	26012020	260120	153927	101.560	12.282378	-56.581900	101.580	-0.100	-0.280	0.100	101.560	-1.600	0.500																			1580053167.0	11.06	20.48
26/01/2020 15:39:28	26012020	260120	153928	101.520	12.282368	-56.581848	101.480	0.130	-0.510	-0.030	101.520	-1.800	0.400																			1580053168.0	10.95	20.28
26/01/2020 15:39:29	26012020	260120	153929	101.420	12.282358	-56.581797	101.390	0.360	-0.820	-0.110	101.420	-2.100	0.300																			1580053169.0	11.09	20.54
26/01/2020 15:39:30	26012020	260120	153930	101.340	12.282347	-56.581743	101.280	0.440	-0.800	-0.110	101.340	-2.200	0.200																			1580053170.0	11.37	21.06
26/01/2020 15:39:31	26012020	260120	153931	101.220	12.282337	-56.581690	101.160	0.290	-0.310	-0.060	101.220	-1.900	0.300																			1580053171.0	11.54	21.37
26/01/2020 15:39:32	26012020	260120	153932	101.130	12.282327	-56.581640	101.150	0.010	0.240	-0.040	101.130	-1.300	0.300																			1580053172.0	11.25	20.84
26/01/2020 15:39:33	26012020	260120	153933	101.140	12.282317	-56.581590	101.240	-0.240	0.430	-0.020	101.140	-1.000	0.300																			1580053173.0	10.79	19.98
26/01/2020 15:39:34	26012020	260120	153934	101.250	12.282305	-56.581540	101.370	-0.360	0.190	0.050	101.250	-1.100	0.400																			1580053174.0	10.76	19.93
26/01/2020 15:39:35	26012020	260120	153935	101.350	12.282293	-56.581487	101.400	-0.270	-0.280	0.340	101.360	-1.500	0.600																			1580053175.0	11.08	20.52
26/01/2020 15:39:36	26012020	260120	153936	101.340	12.282280	-56.581433	101.320	-0.050	-0.640	0.660	101.340	-1.900	0.900																			1580053176.0	11.42	21.15
26/01/2020 15:39:37	26012020	260120	153937	101.260	12.282267	-56.581382	101.190	0.060	-0.650	0.730	101.230	-2.100	1.100																			1580053177.0	11.64	21.56
26/01/2020 15:39:38	26012020	260120	153938	101.110	12.282255	-56.581330	101.140	0.020	-0.380	0.510	101.110	-1.900	1.000																			1580053178.0	11.49	21.28
26/01/2020 15:39:39	26012020	260120	153939	101.110	12.282245	-56.581280	101.200	-0.080	-0.030	0.260	101.110	-1.500	0.700																			1580053179.0	11.11	20.58
26/01/2020 15:39:40	26012020	260120	153940	101.200	12.282235	-56.581230	101.220	-0.070	0.050	0.130	101.200	-1.300	0.500																			1580053180.0	10.82	20.04
26/01/2020 15:39:41	26012020	260120	153941	101.160	12.282225	-56.581178	101.070	0.060	-0.220	0.190	101.160	-1.500	0.500																			1580053181.0	10.77	19.95
26/01/2020 15:39:42	26012020	260120	153942	101.010	12.282213	-56.581125	101.020	0.230	-0.520	0.300	101.010	-1.800	0.600																			1580053182.0	11.10	20.56
26/01/2020 15:39:43	26012020	260120	153943	101.010	12.282202	-56.581073	101.110	0.330	-0.500	0.340	101.010	-1.900	0.700																			1580053183.0	11.47	21.24
26/01/2020 15:39:44	26012020	260120	153944	101.090	12.282192	-56.581022	101.120	0.280	-0.240	0.360	101.090	-1.700	0.700																			1580053184.0	11.43	21.17
26/01/2020 15:39:45	26012020	260120	153945	101.070	12.282182	-56.580972	101.010	0.130	-0.090	0.470	101.070	-1.500	0.800																			1580053185.0	11.09	20.54
26/01/2020 15:39:46	26012020	260120	153946	100.940	12.282172	-56.580920	100.900	-0.000	-0.210	0.660	100.940	-1.500	1.000																			1580053186.0	10.85	20.09
26/01/2020 15:39:47	26012020	260120	153947	100.860	12.282160	-56.580867	100.930	-0.120	-0.370	0.660	100.860	-1.700	1.000																			1580053187.0	11.05	20.46
26/01/2020 15:39:48	26012020	260120	153948	100.920	12.282150	-56.580815	100.980	-0.230	-0.400	0.460	100.920	-1.800	0.900																			1580053188.0	11.36	21.04
26/01/2020 15:39:49	26012020	260120	153949	100.950	12.282138	-56.580763	100.910	-0.270	-0.370	0.420	100.940	-1.800	0.800																			1580053189.0	11.36	21.04
26/01/2020 15:39:50	26012020	260120	153950	100.840	12.282127	-56.580712	100.810	-0.210	-0.280	0.510	100.840	-1.700	0.800																			1580053190.0	11.23	20.80
26/01/2020 15:39:51	26012020	260120	153951	100.760	12.282127	-56.580712	100.850	-0.140	-0.070	0.450	100.760	-1.500	0.900																			1580053191.0	11.23	20.80
26/01/2020 15:39:52	26012020	260120	153952	100.850	12.282103	-56.580610	100.970	-0.100	0.040	0.290	100.850	-1.300	0.700																			1580053192.0	10.98	20.33
26/01/2020 15:39:53	26012020	260120	153953	100.950	12.282093	-56.580558	101.000	0.030	-0.170	0.230	100.950	-1.400	0.600																			1580053193.0	10.97	20.32
26/01/2020 15:39:54	26012020	260120	153954	100.960	12.282083	-56.580505	100.970	0.230	-0.490	0.260	100.960	-1.800	0.600																			1580053194.0	11.09	20.54
26/01/2020 15:39:55	26012020	260120	153955	100.910	12.282068	-56.580453	100.930	0.340	-0.500	0.330	100.910	-1.900	0.700																			1580053195.0	11.44	21.19
26/01/2020 15:39:56	26012020	260120	153956	100.910	12.282060	-56.580402	100.990	0.210	-0.180	0.440	100.910	-1.700	0.800																			1580053196.0	11.15	20.65
26/01/2020 15:39:57	26012020	260120	153957	100.980	12.282050	-56.580352	101.050	-0.040	0.120	0.480	100.980	-1.400	0.800																			1580053197.0	10.78	19.96
26/01/2020 15:39:58	26012020	260120	153958	101.010	12.282038	-56.580302	101.000	-0.240	0.150	0.540	101.010	-1.200	0.900																			1580053198.0	10.78	19.96
26/01/2020 15:39:59	26012020	260120	153959	100.940	12.282027	-56.580252	100.920	-0.260	-0.150	0.690	100.940	-1.400	1.000	1015.90	26.30	26.40	18.90	19.10	956.00	63.00	64.00	369.00	29.70	356.00	9.30	92.00	3.60	68748	3146.00	27.60	27.60	1580053199.0	10.78	19.96
26/01/2020 15:40:00	26012020	260120	154000	100.870	12.282013	-56.580198	100.840	-0.050	-0.630	0.760	100.870	-1.800	1.100																			1580053200.0	11.05	20.46
26/01/2020 15:40:01	26012020	260120	154001	100.770	12.282002	-56.580145	100.680	0.290	-1.060	0.760	100.770	-2.300	1.100																			1580053201.0	11.38	21.08
26/01/2020 15:40:02	26012020	260120	154002	100.590	12.281992	-56.580090	100.570	0.430	-0.970	0.740	100.590	-2.500	1.100																			1580053202.0	11.61	21.50
26/01/2020 15:40:03	26012020	260120	154003	100.530	12.281983	-56.580040	100.640	0.160	-0.250	0.740	100.530	-1.900	1.100																			1580053203.0	11.69	21.65
26/01/2020 15:40:04	26012020	260120	154004	100.620	12.281973	-56.579990	100.720	-0.240	0.410	0.690	100.620	-1.200	1.100																			1580053204.0	11.18	20.71
26/01/2020 15:40:05	26012020	260120	154005	100.670	12.281977	-56.579945	100.660	-0.380	0.350	0.600	100.670	-0.900	1.000																			1580053205.0	10.53	19.50
26/01/2020 15:40:06	26012020	260120	154006	100.570	12.281965	-56.579892	100.520	-0.220	-0.150	0.560	100.570	-1.400	0.900																			1580053206.0	10.66	19.74
26/01/2020 15:40:07	26012020	260120	154007	100.460	12.281955	-56.579837	100.540	-0.040	-0.380	0.380	100.460	-1.700	0.800																			1580053207.0	11.47	21.24
26/01/2020 15:40:08	26012020	260120	154008	100.540	12.281945	-56.579785	100.700	-0.020	-0.180	0.170	100.540	-1.700	0.600																			1580053208.0	11.81	21.87
26/01/2020 15:40:09	26012020	260120	154009	100.690	12.281935	-56.579735	100.720	-0.080	-0.020	0.180	100.690	-1.400	0.500																			1580053209.0	11.30	20.93
26/01/2020 15:40:10	26012020	260120	154010	100.650	12.281925	-56.579683	100.560	-0.080	-0.140	0.350	100.650	-1.500	0.700																			1580053210.0	10.80	20.00
26/01/2020 15:40:11	26012020	260120	154011	100.480	12.281913	-56.579632	100.450	0.010	-0.410	0.420	100.480	-1.700	0.800																			1580053211.0	10.90	20.19
26/01/2020 15:40:12	26012020	260120	154012	100.410	12.281903	-56.579580	100.470	0.190	-0.660	0.400	100.410	-2.000	0.800																			1580053212.0	11.20	20.74
26/01/2020 15:40:13	26012020	260120	154013	100.450	12.281892	-56.579527	100.490	0.310	-0.680	0.510	100.450	-2.100	0.800																			1580053213.0	11.35	21.02
26/01/2020 15:40:14	26012020	260120	154014	100.430	12.281882	-56.579475	100.370	0.270	-0.470	0.630	100.430	-1.900	1.000																			1580053214.0	11.38	21.08
26/01/2020 15:40:15	26012020	260120	154015	100.280	12.281870	-56.579425	100.170	0.120	-0.220	0.790	100.280	-1.700	1.100																			1580053215.0	11.18	20.71
26/01/2020 15:40:16	26012020	260120	154016	100.060	12.281860	-56.579373	100.000	-0.070	-0.100	0.840	100.060	-1.500	1.200																			1580053216.0	11.02	20.41
26/01/2020 15:40:17	26012020	260120	154017	99.930	12.281838	-56.579315	99.960	-0.220	-0.100	0.670	99.930	-1.500	1.100																			1580053217.0	11.07	20.50
26/01/2020 15:40:18	26012020	260120	154018	99.930	12.281828	-56.579262	99.970	-0.270	-0.210	0.510	99.930	-1.500	0.900																			1580053218.0	11.20	20.74
26/01/2020 15:40:19	26012020	260120	154019	99.940	12.281818	-56.579210	100.000	-0.250	-0.200	0.410	99.940	-1.600	0.800																			1580053219.0	11.33	20.98
26/01/2020 15:40:20	26012020	260120	154020	99.990	12.281807	-56.579158	100.090	-0.240	-0.060	0.230	99.990	-1.500	0.700																			1580053220.0	11.39	21.09
26/01/2020 15:40:21	26012020	260120	154021	100.090	12.281797	-56.579107	100.250	-0.230	0.070	0.070	100.090	-1.400	0.500																			1580053221.0	11.21	20.76
26/01/2020 15:40:22	26012020	260120	154022	100.280	12.281788	-56.579057	100.490	-0.170	0.090	0.030	100.280	-1.300	0.400																			1580053222.0	11.02	20.41
26/01/2020 15:40:23	26012020	260120	154023	100.550	12.281778	-56.579005	100.760	-0.020	-0.150	-0.080	100.550	-1.400	0.300																			1580053223.0	10.94	20.26
26/01/2020 15:40:24	26012020	260120	154024	100.790	12.281768	-56.578953	100.860	0.340	-0.690	-0.030	100.790	-1.900	0.300																			1580053224.0	10.99	20.35
26/01/2020 15:40:25	26012020	260120	154025	100.820	12.281758	-56.578898	100.790	0.720	-1.100	0.240	100.820	-2.400	0.500																			1580053225.0	11.24	20.82
26/01/2020 15:40:26	26012020	260120	154026	100.760	12.281748	-56.578845	100.800	0.690	-0.820	0.330	100.760	-2.400	0.700																			1580053226.0	11.67	21.61
26/01/2020 15:40:27	26012020	260120	154027	100.780	12.281738	-56.578795	100.840	0.160	-0.040	0.380	100.790	-1.700	0.700																			1580053227.0	11.59	21.46
26/01/2020 15:40:28	26012020	260120	154028	100.790	12.281730	-56.578747	100.780	-0.450	0.360	0.420	100.790	-1.100	0.800																			1580053228.0	10.84	20.08
26/01/2020 15:40:29	26012020	260120	154029	100.710	12.281720	-56.578695	100.670	-0.690	-0.100	0.350	100.710	-1.200	0.700																			1580053229.0	10.35	19.17
26/01/2020 15:40:30	26012020	260120	154030	100.620	12.281708	-56.578640	100.650	-0.580	-0.680	0.350	100.620	-1.900	0.700																			1580053230.0	10.91	20.21
26/01/2020 15:40:31	26012020	260120	154031	100.610	12.281695	-56.578587	100.680	-0.420	-0.560	0.280	100.610	-2.100	0.700																			1580053231.0	11.90	22.04
26/01/2020 15:40:32	26012020	260120	154032	100.660	12.281682	-56.578535	100.750	-0.280	-0.010	0.050	100.660	-1.600	0.500																			1580053232.0	11.92	22.08
26/01/2020 15:40:33	26012020	260120	154033	100.740	12.281672	-56.578485	100.850	-0.070	0.290	-0.160	100.740	-1.100	0.300																			1580053233.0	11.08	20.52
26/01/2020 15:40:34	26012020	260120	154034	100.880	12.281660	-56.578435	101.010	0.250	0.110	-0.330	100.880	-1.200	0.100																			1580053234.0	10.67	19.76
26/01/2020 15:40:35	26012020	260120	154035	101.040	12.281652	-56.578382	101.190	0.520	-0.110	-0.500	101.040	-1.400	-0.100																			1580053235.0	10.99	20.35
26/01/2020 15:40:36	26012020	260120	154036	101.230	12.281643	-56.578330	101.370	0.530	-0.060	-0.530	101.230	-1.500	-0.200																			1580053236.0	11.40	21.11
26/01/2020 15:40:37	26012020	260120	154037	101.390	12.281635	-56.578278	101.440	0.280	-0.110	-0.160	101.390	-1.400	0.000																			1580053237.0	11.26	20.85
26/01/2020 15:40:38	26012020	260120	154038	101.400	12.281623	-56.578228	101.330	0.040	-0.560	0.410	101.400	-1.800	0.600																			1580053238.0	10.80	20.00
26/01/2020 15:40:39	26012020	260120	154039	101.270	12.281610	-56.578177	101.140	-0.080	-0.940	0.820	101.230	-2.200	1.000																			1580053239.0	10.92	20.22
26/01/2020 15:40:40	26012020	260120	154040	101.030	12.281597	-56.578125	100.920	-0.120	-0.940	1.070	101.030	-2.400	1.400																			1580053240.0	11.42	21.15
26/01/2020 15:40:41	26012020	260120	154041	100.800	12.281585	-56.578073	100.700	-0.090	-0.730	1.030	100.800	-2.200	1.400																			1580053241.0	11.38	21.08
26/01/2020 15:40:42	26012020	260120	154042	100.590	12.281573	-56.578022	100.500	-0.040	-0.520	0.830	100.590	-2.000	1.300																			1580053242.0	11.11	20.58
26/01/2020 15:40:43	26012020	260120	154043	100.400	12.281562	-56.577970	100.360	-0.120	-0.160	0.610	100.400	-1.700	1.100																			1580053243.0	11.16	20.67
26/01/2020 15:40:44	26012020	260120	154044	100.320	12.281552	-56.577918	100.380	-0.310	0.290	0.320	100.320	-1.300	0.800																			1580053244.0	11.31	20.95
26/01/2020 15:40:45	26012020	260120	154045	100.390	12.281542	-56.577867	100.520	-0.380	0.570	0.120	100.390	-0.900	0.500																			1580053245.0	11.12	20.59
26/01/2020 15:40:46	26012020	260120	154046	100.560	12.281532	-56.577817	100.740	-0.250	0.440	0.000	100.560	-0.800	0.400																			1580053246.0	10.91	20.21
26/01/2020 15:40:47	26012020	260120	154047	100.790	12.281520	-56.577763	100.920	0.060	-0.060	0.080	100.790	-1.200	0.400																			1580053247.0	11.02	20.41
26/01/2020 15:40:48	26012020	260120	154048	100.930	12.281508	-56.577710	100.960	0.410	-0.470	0.250	100.930	-1.700	0.600																			1580053248.0	11.32	20.96
26/01/2020 15:40:49	26012020	260120	154049	100.960	12.281498	-56.577658	100.990	0.610	-0.480	0.170	100.960	-1.900	0.600																			1580053249.0	11.57	21.43
26/01/2020 15:40:50	26012020	260120	154050	100.990	12.281490	-56.577607	100.990	0.570	-0.350	0.080	100.990	-1.800	0.500																			1580053250.0	11.31	20.95
26/01/2020 15:40:51	26012020	260120	154051	100.980	12.281483	-56.577557	100.950	0.310	-0.320	0.080	100.970	-1.700	0.400																			1580053251.0	10.89	20.17
26/01/2020 15:40:52	26012020	260120	154052	100.930	12.281475	-56.577507	100.900	0.030	-0.560	0.170	100.930	-1.800	0.500																			1580053252.0	10.79	19.98
26/01/2020 15:40:53	26012020	260120	154053	100.870	12.281463	-56.577453	100.760	-0.160	-0.860	0.550	100.870	-2.200	0.700																			1580053253.0	11.33	20.98
26/01/2020 15:40:54	26012020	260120	154054	100.660	12.281450	-56.577402	100.460	-0.310	-0.820	0.980	100.660	-2.300	1.200																			1580053254.0	11.33	20.98
26/01/2020 15:40:55	26012020	260120	154055	100.330	12.281435	-56.577350	100.120	-0.460	-0.520	1.130	100.330	-2.000	1.500																			1580053255.0	11.50	21.30
26/01/2020 15:40:56	26012020	260120	154056	100.000	12.281422	-56.577298	99.900	-0.550	-0.190	1.030	100.000	-1.700	1.500																			1580053256.0	11.28	20.89
26/01/2020 15:40:57	26012020	260120	154057	99.850	12.281410	-56.577247	99.870	-0.480	0.100	0.640	99.850	-1.400	1.200																			1580053257.0	11.15	20.65
26/01/2020 15:40:58	26012020	260120	154058	99.860	12.281400	-56.577195	99.850	-0.210	0.320	0.240	99.860	-1.100	0.700																			1580053258.0	11.16	20.67
26/01/2020 15:40:59	26012020	260120	154059	99.840	12.281392	-56.577143	99.900	0.140	0.380	-0.030	99.840	-1.000	0.400	1015.80	26.30	26.40	18.90	19.00	959.00	63.00	64.00	369.00	29.70	356.00	9.20	90.00	3.50	68876	3165.00	27.60	27.50	1580053259.0	11.16	20.67
26/01/2020 15:41:00	26012020	260120	154100	99.950	12.281383	-56.577092	100.160	0.390	0.200	-0.210	99.950	-1.100	0.200																			1580053260.0	11.18	20.71
26/01/2020 15:41:01	26012020	260120	154101	100.280	12.281375	-56.577038	100.580	0.500	-0.050	-0.240	100.280	-1.400	0.100																			1580053261.0	11.22	20.78
26/01/2020 15:41:02	26012020	260120	154102	100.700	12.281367	-56.576987	100.950	0.480	-0.170	-0.030	100.700	-1.500	0.200																			1580053262.0	11.32	20.96
26/01/2020 15:41:03	26012020	260120	154103	101.020	12.281357	-56.576935	101.140	0.420	-0.350	0.310	101.020	-1.700	0.500																			1580053263.0	11.16	20.67
26/01/2020 15:41:04	26012020	260120	154104	101.140	12.281345	-56.576885	101.050	0.360	-0.650	0.730	101.140	-1.900	0.900																			1580053264.0	10.88	20.15
26/01/2020 15:41:05	26012020	260120	154105	100.970	12.281335	-56.576833	100.780	0.230	-0.940	1.050	100.970	-2.200	1.300																			1580053265.0	10.96	20.30
26/01/2020 15:41:06	26012020	260120	154106	100.660	12.281323	-56.576782	100.460	0.030	-1.140	1.130	100.660	-2.500	1.500																			1580053266.0	11.16	20.67
26/01/2020 15:41:07	26012020	260120	154107	100.330	12.281313	-56.576728	100.150	-0.240	-0.980	1.100	100.330	-2.500	1.500																			1580053267.0	11.29	20.91
26/01/2020 15:41:08	26012020	260120	154108	100.040	12.281302	-56.576677	99.910	-0.610	-0.400	1.040	100.040	-2.000	1.400																			1580053268.0	11.42	21.15
26/01/2020 15:41:09	26012020	260120	154109	99.840	12.281290	-56.576627	99.820	-0.860	0.190	0.860	99.840	-1.400	1.300																			1580053269.0	11.22	20.78
26/01/2020 15:41:10	26012020	260120	154110	99.810	12.281278	-56.576577	99.870	-0.800	0.450	0.570	99.810	-1.000	1.000																			1580053270.0	10.90	20.19
26/01/2020 15:41:11	26012020	260120	154111	99.890	12.281267	-56.576523	100.050	-0.380	0.310	0.150	99.890	-1.000	0.700																			1580053271.0	11.00	20.37
26/01/2020 15:41:12	26012020	260120	154112	100.120	12.281257	-56.576470	100.360	0.170	0.030	-0.340	100.120	-1.300	0.200																			1580053272.0	11.31	20.95
26/01/2020 15:41:13	26012020	260120	154113	100.480	12.281248	-56.576415	100.760	0.560	0.040	-0.700	100.480	-1.400	-0.200																			1580053273.0	11.64	21.56
26/01/2020 15:41:14	26012020	260120	154114	100.890	12.281240	-56.576365	101.150	0.640	0.220	-0.690	100.890	-1.200	-0.400																			1580053274.0	11.57	21.43
26/01/2020 15:41:15	26012020	260120	154115	101.250	12.281233	-56.576315	101.400	0.550	0.040	-0.380	101.250	-1.200	-0.100																			1580053275.0	11.00	20.37
26/01/2020 15:41:16	26012020	260120	154116	101.430	12.281223	-56.576263	101.410	0.410	-0.510	0.130	101.430	-1.700	0.300																			1580053276.0	10.69	19.80
26/01/2020 15:41:17	26012020	260120	154117	101.370	12.281212	-56.576210	101.210	0.230	-0.950	0.660	101.370	-2.200	0.800																			1580053277.0	11.03	20.43
26/01/2020 15:41:18	26012020	260120	154118	101.080	12.281200	-56.576158	100.850	0.020	-0.980	1.110	101.080	-2.400	1.300																			1580053278.0	11.37	21.06
26/01/2020 15:41:19	26012020	260120	154119	100.710	12.281187	-56.576108	100.560	-0.160	-0.770	1.200	100.710	-2.200	1.600																			1580053279.0	11.29	20.91
26/01/2020 15:41:20	26012020	260120	154120	100.470	12.281175	-56.576057	100.410	-0.220	-0.580	0.970	100.470	-2.000	1.400																			1580053280.0	11.01	20.39
26/01/2020 15:41:21	26012020	260120	154121	100.340	12.281165	-56.576005	100.300	-0.220	-0.350	0.680	100.340	-1.800	1.200																			1580053281.0	11.00	20.37
26/01/2020 15:41:22	26012020	260120	154122	100.260	12.281153	-56.575953	100.290	-0.260	0.020	0.340	100.260	-1.500	0.800																			1580053282.0	11.23	20.80
26/01/2020 15:41:23	26012020	260120	154123	100.290	12.281143	-56.575902	100.420	-0.320	0.350	0.050	100.290	-1.100	0.500																			1580053283.0	11.25	20.84
26/01/2020 15:41:24	26012020	260120	154124	100.480	12.281133	-56.575852	100.700	-0.300	0.380	-0.190	100.480	-1.000	0.300																			1580053284.0	11.05	20.46
26/01/2020 15:41:25	26012020	260120	154125	100.790	12.281125	-56.575798	101.000	-0.160	0.130	-0.300	100.790	-1.100	0.100																			1580053285.0	11.01	20.39
26/01/2020 15:41:26	26012020	260120	154126	101.050	12.281113	-56.575747	101.100	0.120	-0.270	-0.100	101.050	-1.500	0.200																			1580053286.0	11.21	20.76
26/01/2020 15:41:27	26012020	260120	154127	101.090	12.281103	-56.575693	101.050	0.440	-0.680	0.260	101.090	-1.900	0.500																			1580053287.0	11.34	21.00
26/01/2020 15:41:28	26012020	260120	154128	101.000	12.281092	-56.575640	100.900	0.520	-0.750	0.460	101.000	-2.200	0.800																			1580053288.0	11.46	21.22
26/01/2020 15:41:29	26012020	260120	154129	100.870	12.281082	-56.575588	100.750	0.240	-0.430	0.490	100.840	-1.900	0.900																			1580053289.0	11.50	21.30
26/01/2020 15:41:30	26012020	260120	154130	100.710	12.281072	-56.575538	100.650	-0.120	-0.150	0.530	100.710	-1.600	0.900																			1580053290.0	11.12	20.59
26/01/2020 15:41:31	26012020	260120	154131	100.620	12.281062	-56.575488	100.650	-0.250	-0.180	0.460	100.620	-1.500	0.900																			1580053291.0	10.74	19.89
26/01/2020 15:41:32	26012020	260120	154132	100.650	12.281050	-56.575437	100.740	-0.100	-0.340	0.300	100.650	-1.700	0.700																			1580053292.0	10.91	20.21
26/01/2020 15:41:33	26012020	260120	154133	100.750	12.281040	-56.575383	100.810	0.080	-0.290	0.280	100.750	-1.700	0.600																			1580053293.0	11.34	21.00
26/01/2020 15:41:34	26012020	260120	154134	100.800	12.281028	-56.575332	100.820	0.070	0.040	0.240	100.800	-1.500	0.600																			1580053294.0	11.47	21.24
26/01/2020 15:41:35	26012020	260120	154135	100.820	12.281017	-56.575282	100.860	-0.150	0.350	0.230	100.820	-1.100	0.600																			1580053295.0	11.21	20.76
26/01/2020 15:41:36	26012020	260120	154136	100.870	12.281007	-56.575232	100.910	-0.340	0.210	0.250	100.870	-1.100	0.600																			1580053296.0	10.80	20.00
26/01/2020 15:41:37	26012020	260120	154137	100.920	12.280997	-56.575180	100.980	-0.200	-0.390	0.110	100.920	-1.500	0.500																			1580053297.0	10.72	19.85
26/01/2020 15:41:38	26012020	260120	154138	100.990	12.280987	-56.575127	100.960	0.200	-0.940	0.080	100.990	-2.200	0.400																			1580053298.0	11.13	20.61
26/01/2020 15:41:39	26012020	260120	154139	100.910	12.280977	-56.575072	100.750	0.450	-1.010	0.390	100.910	-2.400	0.600																			1580053299.0	11.63	21.54
26/01/2020 15:41:40	26012020	260120	154140	100.650	12.280965	-56.575020	100.480	0.350	-0.680	0.630	100.650	-2.200	0.900																			1580053300.0	11.59	21.46
26/01/2020 15:41:41	26012020	260120	154141	100.390	12.280953	-56.574970	100.290	0.090	-0.340	0.660	100.390	-1.800	1.000																			1580053301.0	11.19	20.72
26/01/2020 15:41:42	26012020	260120	154142	100.230	12.280943	-56.574920	100.160	-0.070	-0.170	0.520	100.230	-1.600	0.900																			1580053302.0	10.89	20.17
26/01/2020 15:41:43	26012020	260120	154143	100.110	12.280933	-56.574867	100.090	-0.070	-0.070	0.310	100.110	-1.500	0.700																			1580053303.0	11.04	20.45
26/01/2020 15:41:44	26012020	260120	154144	100.100	12.280923	-56.574813	100.210	-0.030	0.050	0.200	100.100	-1.400	0.600																			1580053304.0	11.31	20.95
26/01/2020 15:41:45	26012020	260120	154145	100.280	12.280913	-56.574762	100.520	-0.130	0.300	0.230	100.280	-1.200	0.600																			1580053305.0	11.39	21.09
26/01/2020 15:41:46	26012020	260120	154146	100.610	12.280902	-56.574712	100.830	-0.390	0.510	0.320	100.610	-0.900	0.600																			1580053306.0	11.27	20.87
26/01/2020 15:41:47	26012020	260120	154147	100.880	12.280890	-56.574662	100.960	-0.510	0.330	0.510	100.880	-0.900	0.800																			1580053307.0	10.95	20.28
26/01/2020 15:41:48	26012020	260120	154148	100.970	12.280878	-56.574610	101.020	-0.260	-0.290	0.530	100.970	-1.400	0.900																			1580053308.0	10.80	20.00
26/01/2020 15:41:49	26012020	260120	154149	101.030	12.280868	-56.574557	101.050	0.210	-0.900	0.450	101.030	-2.100	0.800																			1580053309.0	11.11	20.58
26/01/2020 15:41:50	26012020	260120	154150	101.010	12.280858	-56.574503	100.930	0.580	-1.120	0.390	101.010	-2.500	0.800																			1580053310.0	11.53	21.35
26/01/2020 15:41:51	26012020	260120	154151	100.870	12.280848	-56.574452	100.740	0.660	-0.880	0.320	100.870	-2.400	0.700																			1580053311.0	11.52	21.34
26/01/2020 15:41:52	26012020	260120	154152	100.670	12.280840	-56.574400	100.560	0.470	-0.450	0.280	100.670	-2.000	0.700																			1580053312.0	11.21	20.76
26/01/2020 15:41:53	26012020	260120	154153	100.500	12.280832	-56.574350	100.440	0.170	-0.220	0.240	100.500	-1.600	0.600																			1580053313.0	10.89	20.17
26/01/2020 15:41:54	26012020	260120	154154	100.420	12.280822	-56.574298	100.400	-0.100	-0.130	0.290	100.420	-1.500	0.600																			1580053314.0	10.86	20.11
26/01/2020 15:41:55	26012020	260120	154155	100.390	12.280812	-56.574245	100.400	-0.330	0.030	0.470	100.390	-1.400	0.800																			1580053315.0	11.20	20.74
26/01/2020 15:41:56	26012020	260120	154156	100.390	12.280798	-56.574193	100.470	-0.480	0.080	0.590	100.390	-1.300	0.900																			1580053316.0	11.31	20.95
26/01/2020 15:41:57	26012020	260120	154157	100.480	12.280785	-56.574142	100.550	-0.480	-0.060	0.590	100.480	-1.400	1.000																			1580053317.0	11.22	20.78
26/01/2020 15:41:58	26012020	260120	154158	100.550	12.280773	-56.574090	100.580	-0.380	-0.130	0.400	100.550	-1.500	0.900																			1580053318.0	11.33	20.98
26/01/2020 15:41:59	26012020	260120	154159	100.580	12.280762	-56.574037	100.640	-0.240	0.020	0.030	100.580	-1.400	0.500	1015.80	26.30	26.40	19.20	19.20	951.00	64.00	65.00	369.00	29.70	354.00	8.70	84.00	3.10	68565	3258.00	27.60	27.50	1580053319.0	11.47	21.24
26/01/2020 15:42:00	26012020	260120	154200	100.670	12.280753	-56.573987	100.820	-0.030	0.040	-0.270	100.670	-1.300	0.200																			1580053320.0	11.23	20.80
26/01/2020 15:42:01	26012020	260120	154201	100.900	12.280745	-56.573935	101.050	0.340	-0.350	-0.380	100.900	-1.500	-0.000																			1580053321.0	10.89	20.17
26/01/2020 15:42:02	26012020	260120	154202	101.110	12.280735	-56.573882	101.120	0.660	-0.800	-0.220	101.110	-2.000	0.100																			1580053322.0	11.05	20.46
26/01/2020 15:42:03	26012020	260120	154203	101.100	12.280725	-56.573828	101.020	0.630	-0.750	0.110	101.100	-2.200	0.400																			1580053323.0	11.52	21.34
26/01/2020 15:42:04	26012020	260120	154204	100.990	12.280715	-56.573777	100.980	0.180	-0.150	0.400	100.990	-1.800	0.700																			1580053324.0	11.59	21.46
26/01/2020 15:42:05	26012020	260120	154205	100.980	12.280705	-56.573728	100.980	-0.340	0.280	0.610	100.980	-1.200	0.900																			1580053325.0	10.99	20.35
26/01/2020 15:42:06	26012020	260120	154206	100.940	12.280693	-56.573680	100.800	-0.430	-0.110	0.660	100.940	-1.200	1.000																			1580053326.0	10.38	19.22
26/01/2020 15:42:07	26012020	260120	154207	100.720	12.280682	-56.573625	100.540	-0.040	-0.930	0.590	100.720	-2.000	1.000																			1580053327.0	10.68	19.78
26/01/2020 15:42:08	26012020	260120	154208	100.480	12.280668	-56.573570	100.390	0.310	-1.130	0.490	100.480	-2.600	0.900																			1580053328.0	11.70	21.67
26/01/2020 15:42:09	26012020	260120	154209	100.360	12.280658	-56.573517	100.350	0.140	-0.290	0.300	100.360	-2.000	0.700																			1580053329.0	12.22	22.63
26/01/2020 15:42:10	26012020	260120	154210	100.360	12.280648	-56.573468	100.430	-0.420	0.710	0.140	100.360	-1.000	0.500																			1580053330.0	11.49	21.28
26/01/2020 15:42:11	26012020	260120	154211	100.480	12.280638	-56.573422	100.600	-0.740	0.830	0.110	100.480	-0.400	0.500																			1580053331.0	10.34	19.15
26/01/2020 15:42:12	26012020	260120	154212	100.640	12.280628	-56.573370	100.680	-0.440	-0.000	0.170	100.640	-1.000	0.500																			1580053332.0	10.16	18.82
26/01/2020 15:42:13	26012020	260120	154213	100.680	12.280615	-56.573313	100.650	0.230	-0.960	0.180	100.680	-2.000	0.500																			1580053333.0	11.12	20.59
26/01/2020 15:42:14	26012020	260120	154214	100.660	12.280603	-56.573258	100.690	0.660	-1.050	0.230	100.660	-2.500	0.600																			1580053334.0	12.09	22.39
26/01/2020 15:42:15	26012020	260120	154215	100.750	12.280593	-56.573207	100.890	0.480	-0.200	0.290	100.750	-1.900	0.600																			1580053335.0	12.11	22.43
26/01/2020 15:42:16	26012020	260120	154216	100.980	12.280585	-56.573160	101.130	-0.020	0.520	0.280	100.980	-1.000	0.600																			1580053336.0	11.05	20.46
26/01/2020 15:42:17	26012020	260120	154217	101.170	12.280575	-56.573113	101.200	-0.260	0.330	0.370	101.170	-0.900	0.700																			1580053337.0	10.04	18.59
26/01/2020 15:42:18	26012020	260120	154218	101.190	12.280565	-56.573060	101.110	-0.060	-0.440	0.590	101.190	-1.500	0.900																			1580053338.0	10.25	18.98
26/01/2020 15:42:19	26012020	260120	154219	101.060	12.280552	-56.573007	100.910	0.230	-0.970	0.670	101.060	-2.200	1.000																			1580053339.0	11.28	20.89
26/01/2020 15:42:20	26012020	260120	154220	100.830	12.280540	-56.572953	100.680	0.290	-0.860	0.600	100.830	-2.300	1.000																			1580053340.0	11.86	21.96
26/01/2020 15:42:21	26012020	260120	154221	100.610	12.280532	-56.572902	100.550	0.130	-0.440	0.390	100.610	-1.900	0.800																			1580053341.0	11.54	21.37
26/01/2020 15:42:22	26012020	260120	154222	100.540	12.280523	-56.572852	100.610	-0.030	-0.200	0.110	100.540	-1.600	0.600																			1580053342.0	10.92	20.22
26/01/2020 15:42:23	26012020	260120	154223	100.660	12.280513	-56.572800	100.800	-0.170	-0.070	-0.050	100.660	-1.500	0.300																			1580053343.0	10.78	19.96
26/01/2020 15:42:24	26012020	260120	154224	100.840	12.280502	-56.572748	100.860	-0.360	0.200	0.120	100.840	-1.300	0.400																			1580053344.0	11.14	20.63
26/01/2020 15:42:25	26012020	260120	154225	100.840	12.280490	-56.572698	100.750	-0.510	0.360	0.420	100.840	-1.000	0.700																			1580053345.0	11.18	20.71
26/01/2020 15:42:26	26012020	260120	154226	100.700	12.280477	-56.572648	100.630	-0.350	0.020	0.530	100.700	-1.200	0.900																			1580053346.0	10.89	20.17
26/01/2020 15:42:27	26012020	260120	154227	100.620	12.280465	-56.572595	100.640	0.100	-0.620	0.350	100.620	-1.800	0.800																			1580053347.0	10.94	20.26
26/01/2020 15:42:28	26012020	260120	154228	100.660	12.280457	-56.572540	100.740	0.480	-0.890	-0.010	100.660	-2.300	0.500																			1580053348.0	11.47	21.24
26/01/2020 15:42:29	26012020	260120	154229	100.790	12.280448	-56.572487	100.900	0.420	-0.380	-0.040	100.790	-2.000	0.300																			1580053349.0	11.79	21.84
26/01/2020 15:42:30	26012020	260120	154230	100.950	12.280438	-56.572440	101.050	0.020	0.370	0.250	100.950	-1.200	0.500																			1580053350.0	11.33	20.98
26/01/2020 15:42:31	26012020	260120	154231	101.080	12.280427	-56.572393	101.100	-0.240	0.450	0.430	101.080	-0.800	0.700																			1580053351.0	10.40	19.26
26/01/2020 15:42:32	26012020	260120	154232	101.070	12.280415	-56.572342	101.010	-0.090	-0.270	0.440	101.070	-1.300	0.800																			1580053352.0	10.15	18.80
26/01/2020 15:42:33	26012020	260120	154233	101.000	12.280403	-56.572288	100.910	0.260	-0.960	0.300	100.980	-2.100	0.700																			1580053353.0	10.96	20.30
26/01/2020 15:42:34	26012020	260120	154234	100.880	12.280395	-56.572233	100.830	0.440	-0.980	0.200	100.880	-2.400	0.600																			1580053354.0	11.79	21.84
26/01/2020 15:42:35	26012020	260120	154235	100.810	12.280385	-56.572182	100.740	0.290	-0.570	0.330	100.810	-2.100	0.600																			1580053355.0	11.68	21.63
26/01/2020 15:42:36	26012020	260120	154236	100.700	12.280375	-56.572132	100.640	-0.060	-0.230	0.520	100.700	-1.700	0.800																			1580053356.0	11.04	20.45
26/01/2020 15:42:37	26012020	260120	154237	100.610	12.280363	-56.572082	100.610	-0.410	-0.110	0.670	100.610	-1.500	1.000																			1580053357.0	10.74	19.89
26/01/2020 15:42:38	26012020	260120	154238	100.600	12.280352	-56.572030	100.630	-0.590	0.030	0.880	100.600	-1.400	1.200																			1580053358.0	10.99	20.35
26/01/2020 15:42:39	26012020	260120	154239	100.620	12.280338	-56.571978	100.690	-0.560	0.230	0.890	100.620	-1.200	1.300																			1580053359.0	11.24	20.82
26/01/2020 15:42:40	26012020	260120	154240	100.710	12.280325	-56.571928	100.800	-0.330	0.220	0.600	100.710	-1.100	1.100																			1580053360.0	11.16	20.67
26/01/2020 15:42:41	26012020	260120	154241	100.830	12.280315	-56.571877	100.910	0.060	-0.060	0.270	100.830	-1.300	0.800																			1580053361.0	10.99	20.35
26/01/2020 15:42:42	26012020	260120	154242	100.950	12.280307	-56.571823	100.990	0.430	-0.350	-0.070	100.950	-1.600	0.400																			1580053362.0	11.13	20.61
26/01/2020 15:42:43	26012020	260120	154243	101.010	12.280298	-56.571772	101.030	0.550	-0.400	-0.270	101.010	-1.800	0.100																			1580053363.0	11.34	21.00
26/01/2020 15:42:44	26012020	260120	154244	101.050	12.280290	-56.571720	101.050	0.450	-0.270	-0.210	101.050	-1.700	0.100																			1580053364.0	11.28	20.89
26/01/2020 15:42:45	26012020	260120	154245	101.060	12.280282	-56.571670	101.020	0.340	-0.400	0.080	101.060	-1.700	0.300																			1580053365.0	10.91	20.21
26/01/2020 15:42:46	26012020	260120	154246	101.010	12.280272	-56.571618	100.950	0.310	-0.720	0.480	101.010	-2.000	0.700																			1580053366.0	10.77	19.95
26/01/2020 15:42:47	26012020	260120	154247	100.920	12.280258	-56.571565	100.840	0.150	-0.770	0.800	100.920	-2.200	1.100																			1580053367.0	11.18	20.71
26/01/2020 15:42:48	26012020	260120	154248	100.790	12.280247	-56.571513	100.720	-0.170	-0.420	1.010	100.790	-1.900	1.300																			1580053368.0	11.46	21.22
26/01/2020 15:42:49	26012020	260120	154249	100.670	12.280235	-56.571463	100.650	-0.530	-0.060	0.990	100.670	-1.500	1.400																			1580053369.0	11.21	20.76
26/01/2020 15:42:50	26012020	260120	154250	100.630	12.280223	-56.571413	100.710	-0.710	-0.020	0.710	100.630	-1.400	1.200																			1580053370.0	10.87	20.13
26/01/2020 15:42:51	26012020	260120	154251	100.730	12.280212	-56.571362	100.850	-0.620	-0.130	0.400	100.730	-1.500	0.900																			1580053371.0	10.93	20.24
26/01/2020 15:42:52	26012020	260120	154252	100.870	12.280202	-56.571308	100.920	-0.320	-0.210	0.190	100.870	-1.600	0.600																			1580053372.0	11.30	20.93
26/01/2020 15:42:53	26012020	260120	154253	100.930	12.280190	-56.571257	100.980	0.060	-0.200	-0.010	100.930	-1.600	0.400																			1580053373.0	11.40	21.11
26/01/2020 15:42:54	26012020	260120	154254	101.030	12.280180	-56.571205	101.140	0.270	0.030	-0.190	101.030	-1.400	0.200																			1580053374.0	11.34	21.00
26/01/2020 15:42:55	26012020	260120	154255	101.210	12.280170	-56.571153	101.330	0.280	0.320	-0.220	101.210	-1.100	0.100																			1580053375.0	11.23	20.80
26/01/2020 15:42:56	26012020	260120	154256	101.380	12.280162	-56.571105	101.410	0.310	0.140	-0.090	101.380	-1.100	0.200																			1580053376.0	10.82	20.04
26/01/2020 15:42:57	26012020	260120	154257	101.430	12.280152	-56.571053	101.370	0.520	-0.530	0.160	101.420	-1.600	0.400																			1580053377.0	10.67	19.76
26/01/2020 15:42:58	26012020	260120	154258	101.340	12.280142	-56.570998	101.240	0.680	-0.960	0.440	101.340	-2.200	0.700																			1580053378.0	11.17	20.69
26/01/2020 15:42:59	26012020	260120	154259	101.210	12.280132	-56.570945	101.150	0.450	-0.770	0.670	101.210	-2.300	1.000	1015.80	26.30	26.40	19.10	19.20	956.00	64.00	64.00	368.00	29.70	353.00	8.80	80.00	3.20	68790	3322.00	27.60	27.50	1580053379.0	11.72	21.71
26/01/2020 15:43:00	26012020	260120	154300	101.120	12.280120	-56.570895	101.130	-0.080	-0.320	0.780	101.120	-1.800	1.100																			1580053380.0	11.43	21.17
26/01/2020 15:43:01	26012020	260120	154301	101.130	12.280110	-56.570847	101.160	-0.500	-0.160	0.810	101.130	-1.500	1.200																			1580053381.0	10.78	19.96
26/01/2020 15:43:02	26012020	260120	154302	101.140	12.280097	-56.570795	101.100	-0.620	-0.240	0.810	101.140	-1.600	1.200																			1580053382.0	10.64	19.71
26/01/2020 15:43:03	26012020	260120	154303	101.040	12.280083	-56.570743	100.900	-0.540	-0.230	0.700	101.040	-1.600	1.100																			1580053383.0	11.12	20.59
26/01/2020 15:43:04	26012020	260120	154304	100.820	12.280070	-56.570692	100.680	-0.390	-0.130	0.450	100.820	-1.500	0.900																			1580053384.0	11.40	21.11
26/01/2020 15:43:05	26012020	260120	154305	100.650	12.280060	-56.570640	100.700	-0.160	-0.170	0.090	100.650	-1.500	0.600																			1580053385.0	11.24	20.82
26/01/2020 15:43:06	26012020	260120	154306	100.770	12.280052	-56.570588	100.970	0.120	-0.310	-0.280	100.770	-1.600	0.200																			1580053386.0	11.11	20.58
26/01/2020 15:43:07	26012020	260120	154307	101.050	12.280042	-56.570535	101.140	0.270	-0.210	-0.330	101.050	-1.600	0.000																			1580053387.0	11.30	20.93
26/01/2020 15:43:08	26012020	260120	154308	101.160	12.280032	-56.570483	101.090	0.210	0.060	-0.030	101.160	-1.400	0.200																			1580053388.0	11.38	21.08
26/01/2020 15:43:09	26012020	260120	154309	101.060	12.280020	-56.570433	101.020	0.100	0.130	0.210	101.060	-1.200	0.500																			1580053389.0	11.02	20.41
26/01/2020 15:43:10	26012020	260120	154310	101.020	12.280010	-56.570383	101.060	0.180	-0.220	0.240	101.020	-1.400	0.600																			1580053390.0	10.78	19.96
26/01/2020 15:43:11	26012020	260120	154311	101.060	12.280000	-56.570330	101.050	0.360	-0.660	0.150	101.060	-1.900	0.500																			1580053391.0	10.99	20.35
26/01/2020 15:43:12	26012020	260120	154312	101.030	12.279992	-56.570275	100.960	0.370	-0.670	0.230	101.030	-2.100	0.500																			1580053392.0	11.47	21.24
26/01/2020 15:43:13	26012020	260120	154313	100.920	12.279980	-56.570225	100.820	0.160	-0.360	0.590	100.920	-1.800	0.800																			1580053393.0	11.54	21.37
26/01/2020 15:43:14	26012020	260120	154314	100.760	12.279968	-56.570175	100.690	-0.090	-0.160	0.810	100.760	-1.600	1.100																			1580053394.0	11.05	20.46
26/01/2020 15:43:15	26012020	260120	154315	100.650	12.279957	-56.570125	100.660	-0.260	-0.230	0.690	100.650	-1.500	1.100																			1580053395.0	10.81	20.02
26/01/2020 15:43:16	26012020	260120	154316	100.660	12.279945	-56.570072	100.710	-0.380	-0.240	0.540	100.660	-1.600	0.900																			1580053396.0	11.04	20.45
26/01/2020 15:43:17	26012020	260120	154317	100.720	12.279935	-56.570020	100.770	-0.510	0.010	0.510	100.720	-1.500	0.900																			1580053397.0	11.33	20.98
26/01/2020 15:43:18	26012020	260120	154318	100.760	12.279922	-56.569972	100.740	-0.480	0.090	0.530	100.760	-1.300	0.900																			1580053398.0	11.15	20.65
26/01/2020 15:43:19	26012020	260120	154319	100.690	12.279910	-56.569920	100.540	-0.090	-0.390	0.540	100.690	-1.500	0.900																			1580053399.0	10.80	20.00
26/01/2020 15:43:20	26012020	260120	154320	100.470	12.279898	-56.569867	100.380	0.460	-0.890	0.390	100.470	-2.100	0.800																			1580053400.0	11.05	20.46
26/01/2020 15:43:21	26012020	260120	154321	100.370	12.279890	-56.569812	100.460	0.700	-0.690	0.190	100.370	-2.200	0.600																			1580053401.0	11.74	21.74
26/01/2020 15:43:22	26012020	260120	154322	100.520	12.279883	-56.569760	100.680	0.440	0.050	0.180	100.520	-1.600	0.500																			1580053402.0	11.76	21.78
26/01/2020 15:43:23	26012020	260120	154323	100.720	12.279875	-56.569712	100.750	-0.020	0.450	0.380	100.720	-1.000	0.600																			1580053403.0	10.94	20.26
26/01/2020 15:43:24	26012020	260120	154324	100.730	12.279863	-56.569662	100.700	-0.240	0.040	0.740	100.730	-1.100	1.000																			1580053404.0	10.35	19.17
26/01/2020 15:43:25	26012020	260120	154325	100.680	12.279850	-56.569608	100.740	-0.150	-0.540	0.920	100.680	-1.700	1.200																			1580053405.0	10.80	20.00
26/01/2020 15:43:26	26012020	260120	154326	100.750	12.279837	-56.569555	100.830	-0.000	-0.640	0.810	100.750	-2.000	1.200																			1580053406.0	11.68	21.63
26/01/2020 15:43:27	26012020	260120	154327	100.830	12.279827	-56.569503	100.820	-0.000	-0.280	0.560	100.830	-1.800	1.000																			1580053407.0	11.72	21.71
26/01/2020 15:43:28	26012020	260120	154328	100.780	12.279817	-56.569453	100.700	-0.110	0.080	0.420	100.780	-1.400	0.800																			1580053408.0	11.14	20.63
26/01/2020 15:43:29	26012020	260120	154329	100.660	12.279808	-56.569403	100.630	-0.170	0.090	0.270	100.660	-1.200	0.700																			1580053409.0	10.67	19.76
26/01/2020 15:43:30	26012020	260120	154330	100.650	12.279798	-56.569352	100.710	-0.110	-0.210	0.070	100.650	-1.400	0.500																			1580053410.0	10.71	19.83
26/01/2020 15:43:31	26012020	260120	154331	100.730	12.279788	-56.569298	100.680	0.020	-0.570	0.090	100.730	-1.800	0.400																			1580053411.0	11.07	20.50
26/01/2020 15:43:32	26012020	260120	154332	100.620	12.279778	-56.569247	100.440	0.070	-0.600	0.360	100.620	-2.000	0.600																			1580053412.0	11.39	21.09
26/01/2020 15:43:33	26012020	260120	154333	100.350	12.279767	-56.569195	100.200	0.060	-0.470	0.600	100.350	-1.900	0.900																			1580053413.0	11.42	21.15
26/01/2020 15:43:34	26012020	260120	154334	100.140	12.279755	-56.569145	100.110	0.220	-0.600	0.620	100.140	-1.900	1.000																			1580053414.0	11.07	20.50
26/01/2020 15:43:35	26012020	260120	154335	100.090	12.279745	-56.569090	100.100	0.430	-0.740	0.550	100.090	-2.100	0.900																			1580053415.0	11.02	20.41
26/01/2020 15:43:36	26012020	260120	154336	100.100	12.279735	-56.569037	100.110	0.260	-0.300	0.510	100.100	-1.900	0.900																			1580053416.0	11.54	21.37
26/01/2020 15:43:37	26012020	260120	154337	100.110	12.279725	-56.568987	100.180	-0.310	0.560	0.660	100.110	-1.100	0.900																			1580053417.0	11.60	21.48
26/01/2020 15:43:38	26012020	260120	154338	100.210	12.279715	-56.568940	100.350	-0.820	0.990	0.810	100.210	-0.400	1.100																			1580053418.0	10.83	20.06
26/01/2020 15:43:39	26012020	260120	154339	100.390	12.279703	-56.568890	100.530	-0.800	0.450	0.730	100.390	-0.600	1.100																			1580053419.0	10.26	19.00
26/01/2020 15:43:40	26012020	260120	154340	100.560	12.279692	-56.568837	100.650	-0.270	-0.540	0.510	100.560	-1.600	0.900																			1580053420.0	10.66	19.74
26/01/2020 15:43:41	26012020	260120	154341	100.680	12.279682	-56.568782	100.730	0.340	-1.030	0.330	100.680	-2.300	0.700																			1580053421.0	11.60	21.48
26/01/2020 15:43:42	26012020	260120	154342	100.750	12.279672	-56.568728	100.750	0.630	-0.770	0.290	100.750	-2.300	0.700																			1580053422.0	11.95	22.13
26/01/2020 15:43:43	26012020	260120	154343	100.750	12.279663	-56.568680	100.750	0.550	-0.290	0.240	100.750	-1.800	0.600																			1580053423.0	11.32	20.96
26/01/2020 15:43:44	26012020	260120	154344	100.760	12.279655	-56.568630	100.780	0.320	-0.040	0.290	100.760	-1.500	0.600																			1580053424.0	10.59	19.61
26/01/2020 15:43:45	26012020	260120	154345	100.780	12.279647	-56.568580	100.750	0.170	-0.190	0.370	100.780	-1.500	0.700																			1580053425.0	10.50	19.45
26/01/2020 15:43:46	26012020	260120	154346	100.750	12.279637	-56.568527	100.760	0.150	-0.560	0.370	100.750	-1.800	0.700																			1580053426.0	10.81	20.02
26/01/2020 15:43:47	26012020	260120	154347	100.760	12.279627	-56.568473	100.750	0.060	-0.600	0.590	100.760	-2.000	0.800																			1580053427.0	11.31	20.95
26/01/2020 15:43:48	26012020	260120	154348	100.710	12.279615	-56.568422	100.650	-0.250	-0.220	0.850	100.710	-1.800	1.100																			1580053428.0	11.60	21.48
26/01/2020 15:43:49	26012020	260120	154349	100.610	12.279603	-56.568373	100.580	-0.550	0.020	0.880	100.610	-1.400	1.300																			1580053429.0	11.18	20.71
26/01/2020 15:43:50	26012020	260120	154350	100.560	12.279592	-56.568322	100.600	-0.580	-0.130	0.690	100.560	-1.400	1.100																			1580053430.0	10.75	19.91
26/01/2020 15:43:51	26012020	260120	154351	100.600	12.279580	-56.568270	100.630	-0.430	-0.320	0.340	100.600	-1.700	0.800																			1580053431.0	11.01	20.39
26/01/2020 15:43:52	26012020	260120	154352	100.640	12.279570	-56.568217	100.610	-0.270	-0.210	0.020	100.640	-1.700	0.500																			1580053432.0	11.44	21.19
26/01/2020 15:43:53	26012020	260120	154353	100.620	12.279560	-56.568165	100.610	-0.140	0.060	-0.030	100.620	-1.400	0.300																			1580053433.0	11.40	21.11
26/01/2020 15:43:54	26012020	260120	154354	100.650	12.279550	-56.568115	100.750	0.060	0.090	-0.050	100.650	-1.300	0.300																			1580053434.0	10.99	20.35
26/01/2020 15:43:55	26012020	260120	154355	100.820	12.279540	-56.568063	100.940	0.330	-0.190	-0.050	100.820	-1.500	0.300																			1580053435.0	10.78	19.96
26/01/2020 15:43:56	26012020	260120	154356	101.030	12.279530	-56.568012	101.140	0.570	-0.410	0.030	101.030	-1.700	0.400																			1580053436.0	11.06	20.48
26/01/2020 15:43:57	26012020	260120	154357	101.210	12.279522	-56.567960	101.250	0.640	-0.370	0.170	101.210	-1.800	0.500																			1580053437.0	11.34	21.00
26/01/2020 15:43:58	26012020	260120	154358	101.280	12.279512	-56.567908	101.270	0.520	-0.270	0.300	101.280	-1.700	0.600																			1580053438.0	11.19	20.72
26/01/2020 15:43:59	26012020	260120	154359	101.290	12.279502	-56.567858	101.270	0.270	-0.300	0.280	101.290	-1.700	0.700	1015.80	26.30	26.40	18.80	19.00	952.00	63.00	63.00	368.00	29.70	351.00	9.60	79.00	4.10	68516	3166.00	27.60	27.60	1580053439.0	10.90	20.19
26/01/2020 15:44:00	26012020	260120	154400	101.270	12.279493	-56.567807	101.230	-0.100	-0.250	0.360	101.270	-1.700	0.700																			1580053440.0	10.91	20.21
26/01/2020 15:44:01	26012020	260120	154401	101.220	12.279483	-56.567757	101.160	-0.440	-0.270	0.550	101.220	-1.600	0.800																			1580053441.0	11.05	20.46
26/01/2020 15:44:02	26012020	260120	154402	101.130	12.279472	-56.567705	100.990	-0.490	-0.740	0.730	101.130	-1.900	1.000																			1580053442.0	10.89	20.17
26/01/2020 15:44:03	26012020	260120	154403	100.910	12.279458	-56.567652	100.730	-0.350	-1.080	0.860	100.910	-2.400	1.200																			1580053443.0	11.08	20.52
26/01/2020 15:44:04	26012020	260120	154404	100.660	12.279443	-56.567597	100.550	-0.360	-0.550	0.740	100.660	-2.200	1.200																			1580053444.0	11.83	21.91
26/01/2020 15:44:05	26012020	260120	154405	100.530	12.279433	-56.567548	100.580	-0.470	0.370	0.290	100.530	-1.300	0.800																			1580053445.0	11.71	21.69
26/01/2020 15:44:06	26012020	260120	154406	100.600	12.279423	-56.567500	100.790	-0.350	0.650	-0.150	100.640	-0.700	0.400																			1580053446.0	10.70	19.82
26/01/2020 15:44:07	26012020	260120	154407	100.880	12.279415	-56.567448	101.050	0.120	0.110	-0.470	100.880	-1.000	-0.000																			1580053447.0	10.36	19.19
26/01/2020 15:44:08	26012020	260120	154408	101.140	12.279405	-56.567393	101.290	0.530	-0.310	-0.510	101.140	-1.600	-0.200																			1580053448.0	11.07	20.50
26/01/2020 15:44:09	26012020	260120	154409	101.400	12.279393	-56.567340	101.560	0.490	0.040	-0.330	101.400	-1.500	-0.000																			1580053449.0	11.89	22.02
26/01/2020 15:44:10	26012020	260120	154410	101.650	12.279385	-56.567292	101.750	0.130	0.450	-0.080	101.650	-1.000	0.200																			1580053450.0	11.42	21.15
26/01/2020 15:44:11	26012020	260120	154411	101.800	12.279375	-56.567245	101.810	0.010	-0.060	0.080	101.800	-1.100	0.400																			1580053451.0	10.30	19.08
26/01/2020 15:44:12	26012020	260120	154412	101.820	12.279365	-56.567193	101.730	0.290	-1.130	0.280	101.820	-2.200	0.500																			1580053452.0	10.24	18.96
26/01/2020 15:44:13	26012020	260120	154413	101.720	12.279352	-56.567137	101.470	0.480	-1.510	0.600	101.670	-2.900	0.900																			1580053453.0	11.35	21.02
26/01/2020 15:44:14	26012020	260120	154414	101.380	12.279340	-56.567085	101.170	0.220	-0.760	0.770	101.380	-2.500	1.100																			1580053454.0	12.03	22.28
26/01/2020 15:44:15	26012020	260120	154415	101.100	12.279328	-56.567038	100.950	-0.300	0.180	0.710	101.100	-1.500	1.100																			1580053455.0	11.26	20.85
26/01/2020 15:44:16	26012020	260120	154416	100.910	12.279318	-56.566992	100.870	-0.560	0.270	0.450	100.910	-1.000	0.900																			1580053456.0	10.17	18.83
26/01/2020 15:44:17	26012020	260120	154417	100.880	12.279308	-56.566938	100.910	-0.410	-0.240	0.170	100.880	-1.400	0.600																			1580053457.0	10.21	18.91
26/01/2020 15:44:18	26012020	260120	154418	100.940	12.279297	-56.566883	100.960	-0.120	-0.500	0.060	100.940	-1.900	0.400																			1580053458.0	11.30	20.93
26/01/2020 15:44:19	26012020	260120	154419	100.980	12.279285	-56.566832	100.970	0.070	-0.220	0.150	100.980	-1.800	0.500																			1580053459.0	11.86	21.96
26/01/2020 15:44:20	26012020	260120	154420	100.990	12.279273	-56.566782	101.030	0.110	0.160	0.190	100.990	-1.300	0.500																			1580053460.0	11.45	21.21
26/01/2020 15:44:21	26012020	260120	154421	101.090	12.279263	-56.566732	101.220	0.070	0.200	0.170	101.090	-1.200	0.500																			1580053461.0	10.82	20.04
26/01/2020 15:44:22	26012020	260120	154422	101.300	12.279253	-56.566680	101.430	0.020	0.010	0.240	101.300	-1.300	0.600																			1580053462.0	10.70	19.82
26/01/2020 15:44:23	26012020	260120	154423	101.500	12.279242	-56.566630	101.550	-0.020	-0.120	0.390	101.500	-1.500	0.700																			1580053463.0	11.03	20.43
26/01/2020 15:44:24	26012020	260120	154424	101.560	12.279232	-56.566580	101.550	0.020	-0.300	0.530	101.560	-1.600	0.800																			1580053464.0	11.08	20.52
26/01/2020 15:44:25	26012020	260120	154425	101.540	12.279220	-56.566528	101.470	0.130	-0.590	0.550	101.540	-1.900	0.900																			1580053465.0	10.94	20.26
26/01/2020 15:44:26	26012020	260120	154426	101.430	12.279208	-56.566477	101.280	0.250	-0.800	0.460	101.430	-2.100	0.900																			1580053466.0	11.01	20.39
26/01/2020 15:44:27	26012020	260120	154427	101.220	12.279198	-56.566425	101.110	0.250	-0.610	0.270	101.220	-2.100	0.700																			1580053467.0	11.25	20.84
26/01/2020 15:44:28	26012020	260120	154428	101.090	12.279190	-56.566373	101.100	0.050	-0.100	0.180	101.090	-1.700	0.600																			1580053468.0	11.25	20.84
26/01/2020 15:44:29	26012020	260120	154429	101.130	12.279180	-56.566325	101.190	-0.090	0.060	0.120	101.130	-1.300	0.500																			1580053469.0	10.82	20.04
26/01/2020 15:44:30	26012020	260120	154430	101.230	12.279168	-56.566273	101.240	-0.030	-0.220	0.070	101.230	-1.500	0.400																			1580053470.0	10.56	19.56
26/01/2020 15:44:31	26012020	260120	154431	101.230	12.279158	-56.566222	101.140	0.100	-0.400	0.240	101.230	-1.800	0.500																			1580053471.0	11.08	20.52
26/01/2020 15:44:32	26012020	260120	154432	101.110	12.279145	-56.566168	101.050	0.140	-0.320	0.460	101.110	-1.800	0.800																			1580053472.0	11.52	21.34
26/01/2020 15:44:33	26012020	260120	154433	101.050	12.279133	-56.566118	101.090	0.100	-0.140	0.480	101.050	-1.600	0.900																			1580053473.0	11.35	21.02
26/01/2020 15:44:34	26012020	260120	154434	101.120	12.279123	-56.566067	101.130	-0.070	0.000	0.380	101.120	-1.400	0.800																			1580053474.0	11.03	20.43
26/01/2020 15:44:35	26012020	260120	154435	101.140	12.279113	-56.566017	101.100	-0.280	0.010	0.300	101.140	-1.400	0.700																			1580053475.0	10.93	20.24
26/01/2020 15:44:36	26012020	260120	154436	101.090	12.279102	-56.565965	101.070	-0.390	-0.060	0.290	101.090	-1.400	0.600																			1580053476.0	10.94	20.26
26/01/2020 15:44:37	26012020	260120	154437	101.080	12.279090	-56.565915	101.090	-0.250	-0.250	0.200	101.080	-1.600	0.600																			1580053477.0	11.01	20.39
26/01/2020 15:44:38	26012020	260120	154438	101.100	12.279080	-56.565863	101.020	0.070	-0.460	0.050	101.100	-1.800	0.400																			1580053478.0	11.04	20.45
26/01/2020 15:44:39	26012020	260120	154439	100.990	12.279068	-56.565812	100.840	0.360	-0.520	-0.020	100.990	-1.900	0.400																			1580053479.0	11.16	20.67
26/01/2020 15:44:40	26012020	260120	154440	100.810	12.279058	-56.565760	100.720	0.470	-0.430	-0.050	100.810	-1.900	0.300																			1580053480.0	11.23	20.80
26/01/2020 15:44:41	26012020	260120	154441	100.730	12.279050	-56.565708	100.730	0.380	-0.340	-0.070	100.730	-1.800	0.300																			1580053481.0	11.07	20.50
26/01/2020 15:44:42	26012020	260120	154442	100.740	12.279040	-56.565657	100.710	0.200	-0.320	0.090	100.740	-1.700	0.400																			1580053482.0	10.99	20.35
26/01/2020 15:44:43	26012020	260120	154443	100.700	12.279030	-56.565605	100.640	-0.030	-0.240	0.500	100.700	-1.700	0.700																			1580053483.0	11.07	20.50
26/01/2020 15:44:44	26012020	260120	154444	100.610	12.279017	-56.565555	100.540	-0.270	-0.080	0.900	100.610	-1.500	1.100																			1580053484.0	11.17	20.69
26/01/2020 15:44:45	26012020	260120	154445	100.500	12.279005	-56.565505	100.420	-0.410	-0.050	1.050	100.500	-1.400	1.400																			1580053485.0	11.11	20.58
26/01/2020 15:44:46	26012020	260120	154446	100.380	12.278992	-56.565453	100.380	-0.360	-0.240	0.860	100.380	-1.600	1.300																			1580053486.0	11.02	20.41
26/01/2020 15:44:47	26012020	260120	154447	100.400	12.278982	-56.565400	100.560	-0.170	-0.390	0.550	100.400	-1.800	1.000																			1580053487.0	11.19	20.72
26/01/2020 15:44:48	26012020	260120	154448	100.640	12.278970	-56.565348	100.770	0.060	-0.290	0.310	100.640	-1.800	0.700																			1580053488.0	11.40	21.11
26/01/2020 15:44:49	26012020	260120	154449	100.790	12.278960	-56.565297	100.750	0.200	-0.020	0.180	100.790	-1.500	0.600																			1580053489.0	11.29	20.91
26/01/2020 15:44:50	26012020	260120	154450	100.730	12.278952	-56.565247	100.670	0.200	0.120	0.120	100.730	-1.300	0.500																			1580053490.0	10.99	20.35
26/01/2020 15:44:51	26012020	260120	154451	100.680	12.278943	-56.565197	100.700	0.140	-0.060	0.170	100.680	-1.400	0.500																			1580053491.0	10.79	19.98
26/01/2020 15:44:52	26012020	260120	154452	100.750	12.278933	-56.565143	100.770	0.100	-0.400	0.280	100.750	-1.700	0.600																			1580053492.0	10.90	20.19
26/01/2020 15:44:53	26012020	260120	154453	100.790	12.278923	-56.565092	100.700	0.120	-0.710	0.420	100.790	-2.000	0.700																			1580053493.0	11.20	20.74
26/01/2020 15:44:54	26012020	260120	154454	100.670	12.278912	-56.565038	100.550	0.160	-0.810	0.710	100.670	-2.200	0.900																			1580053494.0	11.34	21.00
26/01/2020 15:44:55	26012020	260120	154455	100.530	12.278900	-56.564987	100.470	0.090	-0.520	0.920	100.530	-2.100	1.200																			1580053495.0	11.40	21.11
26/01/2020 15:44:56	26012020	260120	154456	100.480	12.278888	-56.564937	100.510	-0.080	-0.100	0.700	100.480	-1.600	1.200																			1580053496.0	11.27	20.87
26/01/2020 15:44:57	26012020	260120	154457	100.540	12.278878	-56.564887	100.540	-0.240	0.110	0.500	100.540	-1.300	0.900																			1580053497.0	10.90	20.19
26/01/2020 15:44:58	26012020	260120	154458	100.530	12.278868	-56.564835	100.450	-0.310	0.020	0.510	100.530	-1.300	0.900																			1580053498.0	10.85	20.09
26/01/2020 15:44:59	26012020	260120	154459	100.430	12.278857	-56.564782	100.380	-0.250	-0.170	0.480	100.430	-1.500	0.900	1015.80	26.40	26.40	18.60	18.70	957.00	62.00	62.00	368.00	29.70	353.00	9.30	83.00	3.70	68730	3199.00	27.60	27.60	1580053499.0	11.11	20.58
26/01/2020 15:45:00	26012020	260120	154500	100.390	12.278847	-56.564730	100.430	-0.130	-0.220	0.360	100.390	-1.600	0.800																			1580053500.0	11.38	21.08
26/01/2020 15:45:01	26012020	260120	154501	100.490	12.278835	-56.564678	100.610	-0.010	-0.110	0.260	100.490	-1.500	0.600																			1580053501.0	11.42	21.15
26/01/2020 15:45:02	26012020	260120	154502	100.680	12.278825	-56.564627	100.760	0.160	-0.170	0.270	100.680	-1.500	0.600																			1580053502.0	11.14	20.63
26/01/2020 15:45:03	26012020	260120	154503	100.780	12.278815	-56.564575	100.710	0.340	-0.390	0.360	100.780	-1.700	0.700																			1580053503.0	10.96	20.30
26/01/2020 15:45:04	26012020	260120	154504	100.680	12.278807	-56.564522	100.580	0.350	-0.450	0.450	100.680	-1.900	0.800																			1580053504.0	11.17	20.69
26/01/2020 15:45:05	26012020	260120	154505	100.560	12.278797	-56.564470	100.500	0.170	-0.290	0.500	100.560	-1.700	0.900																			1580053505.0	11.34	21.00
26/01/2020 15:45:06	26012020	260120	154506	100.500	12.278788	-56.564420	100.500	-0.070	-0.270	0.410	100.500	-1.600	0.800																			1580053506.0	11.13	20.61
26/01/2020 15:45:07	26012020	260120	154507	100.530	12.278778	-56.564368	100.570	-0.220	-0.480	0.380	100.530	-1.800	0.700																			1580053507.0	10.91	20.21
26/01/2020 15:45:08	26012020	260120	154508	100.600	12.278768	-56.564315	100.600	-0.280	-0.580	0.610	100.600	-2.000	0.900																			1580053508.0	11.16	20.67
26/01/2020 15:45:09	26012020	260120	154509	100.590	12.278753	-56.564263	100.500	-0.330	-0.350	0.800	100.590	-1.900	1.100																			1580053509.0	11.49	21.28
26/01/2020 15:45:10	26012020	260120	154510	100.450	12.278740	-56.564212	100.350	-0.340	-0.050	0.730	100.450	-1.500	1.100																			1580053510.0	11.39	21.09
26/01/2020 15:45:11	26012020	260120	154511	100.330	12.278730	-56.564162	100.350	-0.240	0.100	0.390	100.330	-1.300	0.900																			1580053511.0	11.08	20.52
26/01/2020 15:45:12	26012020	260120	154512	100.410	12.278720	-56.564110	100.550	-0.050	0.130	-0.030	100.410	-1.300	0.500																			1580053512.0	11.02	20.41
26/01/2020 15:45:13	26012020	260120	154513	100.630	12.278712	-56.564057	100.730	0.180	-0.020	-0.340	100.630	-1.300	0.100																			1580053513.0	11.14	20.63
26/01/2020 15:45:14	26012020	260120	154514	100.790	12.278703	-56.564005	100.830	0.390	-0.360	-0.370	100.790	-1.600	-0.000																			1580053514.0	11.17	20.69
26/01/2020 15:45:15	26012020	260120	154515	100.890	12.278695	-56.563950	100.950	0.440	-0.430	-0.130	100.890	-1.900	0.100																			1580053515.0	11.33	20.98
26/01/2020 15:45:16	26012020	260120	154516	101.030	12.278683	-56.563900	101.120	0.220	-0.070	0.090	101.030	-1.600	0.400																			1580053516.0	11.52	21.34
26/01/2020 15:45:17	26012020	260120	154517	101.180	12.278673	-56.563850	101.210	-0.030	0.040	0.210	101.180	-1.300	0.500																			1580053517.0	11.08	20.52
26/01/2020 15:45:18	26012020	260120	154518	101.220	12.278663	-56.563800	101.120	-0.020	-0.490	0.420	101.220	-1.600	0.700																			1580053518.0	10.52	19.48
26/01/2020 15:45:19	26012020	260120	154519	101.090	12.278652	-56.563747	100.990	0.090	-1.050	0.630	101.090	-2.300	0.900																			1580053519.0	10.91	20.21
26/01/2020 15:45:20	26012020	260120	154520	100.980	12.278640	-56.563692	100.940	0.010	-0.940	0.650	100.980	-2.400	1.000																			1580053520.0	11.73	21.72
26/01/2020 15:45:21	26012020	260120	154521	100.920	12.278630	-56.563640	100.830	-0.270	-0.380	0.580	100.920	-2.000	1.000																			1580053521.0	11.76	21.78
26/01/2020 15:45:22	26012020	260120	154522	100.780	12.278618	-56.563592	100.640	-0.530	0.030	0.540	100.780	-1.500	0.900																			1580053522.0	11.07	20.50
26/01/2020 15:45:23	26012020	260120	154523	100.610	12.278607	-56.563540	100.600	-0.640	0.120	0.400	100.610	-1.300	0.800																			1580053523.0	10.75	19.91
26/01/2020 15:45:24	26012020	260120	154524	100.610	12.278595	-56.563488	100.710	-0.530	-0.030	0.220	100.620	-1.400	0.600																			1580053524.0	11.07	20.50
26/01/2020 15:45:25	26012020	260120	154525	100.730	12.278583	-56.563435	100.870	-0.220	-0.210	0.050	100.770	-1.600	0.500																			1580053525.0	11.35	21.02
26/01/2020 15:45:26	26012020	260120	154526	100.900	12.278572	-56.563382	101.020	0.080	-0.090	-0.090	100.930	-1.600	0.300																			1580053526.0	11.57	21.43
26/01/2020 15:45:27	26012020	260120	154527	101.080	12.278560	-56.563330	101.170	0.190	0.240	-0.100	101.080	-1.300	0.300																			1580053527.0	11.55	21.39
26/01/2020 15:45:28	26012020	260120	154528	101.240	12.278550	-56.563280	101.360	0.250	0.350	-0.110	101.240	-1.000	0.300																			1580053528.0	11.09	20.54
26/01/2020 15:45:29	26012020	260120	154529	101.430	12.278542	-56.563230	101.500	0.430	-0.000	-0.090	101.430	-1.200	0.200																			1580053529.0	10.71	19.83
26/01/2020 15:45:30	26012020	260120	154530	101.530	12.278532	-56.563177	101.470	0.660	-0.610	0.050	101.530	-1.800	0.300																			1580053530.0	10.87	20.13
26/01/2020 15:45:31	26012020	260120	154531	101.480	12.278523	-56.563123	101.360	0.690	-1.010	0.360	101.460	-2.300	0.600																			1580053531.0	11.32	20.96
26/01/2020 15:45:32	26012020	260120	154532	101.330	12.278512	-56.563070	101.260	0.350	-0.910	0.830	101.330	-2.400	1.000																			1580053532.0	11.60	21.48
26/01/2020 15:45:33	26012020	260120	154533	101.250	12.278500	-56.563020	101.170	-0.160	-0.510	1.180	101.230	-2.100	1.400																			1580053533.0	11.38	21.08
26/01/2020 15:45:34	26012020	260120	154534	101.150	12.278487	-56.562970	101.040	-0.550	-0.180	1.230	101.130	-1.700	1.600																			1580053534.0	10.95	20.28
26/01/2020 15:45:35	26012020	260120	154535	100.980	12.278473	-56.562920	100.850	-0.710	-0.030	1.050	100.980	-1.500	1.500																			1580053535.0	10.81	20.02
26/01/2020 15:45:36	26012020	260120	154536	100.830	12.278462	-56.562868	100.710	-0.610	-0.080	0.730	100.810	-1.400	1.200																			1580053536.0	11.04	20.45
26/01/2020 15:45:37	26012020	260120	154537	100.710	12.278450	-56.562815	100.650	-0.300	-0.360	0.380	100.700	-1.600	0.900																			1580053537.0	11.22	20.78
26/01/2020 15:45:38	26012020	260120	154538	100.660	12.278440	-56.562762	100.650	0.080	-0.620	0.100	100.660	-1.900	0.500																			1580053538.0	11.45	21.21
26/01/2020 15:45:39	26012020	260120	154539	100.670	12.278430	-56.562707	100.740	0.250	-0.430	-0.030	100.680	-1.900	0.400																			1580053539.0	11.72	21.71
26/01/2020 15:45:40	26012020	260120	154540	100.770	12.278420	-56.562655	100.970	0.110	0.200	0.050	100.800	-1.400	0.400																			1580053540.0	11.70	21.67
26/01/2020 15:45:41	26012020	260120	154541	101.060	12.278410	-56.562607	101.250	-0.140	0.700	0.230	101.060	-0.800	0.500																			1580053541.0	11.12	20.59
26/01/2020 15:45:42	26012020	260120	154542	101.280	12.278398	-56.562558	101.370	-0.210	0.530	0.430	101.320	-0.700	0.700																			1580053542.0	10.57	19.58
26/01/2020 15:45:43	26012020	260120	154543	101.380	12.278385	-56.562507	101.290	0.080	-0.310	0.540	101.370	-1.400	0.900																			1580053543.0	10.62	19.67
26/01/2020 15:45:44	26012020	260120	154544	101.290	12.278375	-56.562452	101.180	0.570	-1.120	0.400	101.260	-2.300	0.800																			1580053544.0	11.25	20.84
26/01/2020 15:45:45	26012020	260120	154545	101.180	12.278365	-56.562395	101.140	0.700	-1.030	0.230	101.170	-2.600	0.600																			1580053545.0	11.92	22.08
26/01/2020 15:45:46	26012020	260120	154546	101.150	12.278357	-56.562345	101.100	0.260	-0.230	0.260	101.140	-1.900	0.600																			1580053546.0	11.88	22.00
26/01/2020 15:45:47	26012020	260120	154547	101.100	12.278348	-56.562298	101.030	-0.340	0.290	0.410	101.090	-1.200	0.700																			1580053547.0	10.88	20.15
26/01/2020 15:45:48	26012020	260120	154548	101.030	12.278337	-56.562248	100.950	-0.500	-0.040	0.640	101.010	-1.200	0.900																			1580053548.0	10.15	18.80
26/01/2020 15:45:49	26012020	260120	154549	100.930	12.278323	-56.562195	100.900	-0.170	-0.730	0.790	100.920	-1.900	1.100																			1580053549.0	10.62	19.67
26/01/2020 15:45:50	26012020	260120	154550	100.890	12.278310	-56.562140	100.870	0.160	-0.880	0.670	100.890	-2.300	1.100																			1580053550.0	11.66	21.59
26/01/2020 15:45:51	26012020	260120	154551	100.860	12.278298	-56.562087	100.800	0.130	-0.350	0.460	100.840	-2.000	0.900																			1580053551.0	12.05	22.32
26/01/2020 15:45:52	26012020	260120	154552	100.790	12.278288	-56.562038	100.820	-0.160	0.250	0.220	100.790	-1.300	0.700																			1580053552.0	11.40	21.11
26/01/2020 15:45:53	26012020	260120	154553	100.840	12.278278	-56.561988	100.940	-0.340	0.460	-0.010	100.860	-0.900	0.400																			1580053553.0	10.67	19.76
26/01/2020 15:45:54	26012020	260120	154554	100.960	12.278268	-56.561938	101.000	-0.210	0.140	-0.140	100.980	-1.100	0.300																			1580053554.0	10.60	19.63
26/01/2020 15:45:55	26012020	260120	154555	101.020	12.278258	-56.561885	100.980	0.140	-0.500	-0.060	101.020	-1.600	0.200																			1580053555.0	10.96	20.30
26/01/2020 15:45:56	26012020	260120	154556	100.990	12.278248	-56.561830	100.890	0.360	-0.840	0.290	100.970	-2.200	0.500																			1580053556.0	11.48	21.26
26/01/2020 15:45:57	26012020	260120	154557	100.880	12.278237	-56.561777	100.800	0.270	-0.590	0.500	100.870	-2.100	0.800																			1580053557.0	11.80	21.85
26/01/2020 15:45:58	26012020	260120	154558	100.790	12.278225	-56.561728	100.780	0.050	-0.210	0.420	100.790	-1.700	0.800																			1580053558.0	11.39	21.09
26/01/2020 15:45:59	26012020	260120	154559	100.780	12.278215	-56.561677	100.800	-0.080	-0.090	0.380	100.790	-1.500	0.700	1015.80	26.40	26.50	18.90	18.90	939.00	63.00	63.00	368.00	29.70	356.00	8.90	89.00	3.20	67789	3147.00	27.60	27.60	1580053559.0	10.77	19.95
26/01/2020 15:46:00	26012020	260120	154600	100.790	12.278205	-56.561627	100.720	-0.100	-0.130	0.420	100.790	-1.500	0.800																			1580053560.0	10.81	20.02
26/01/2020 15:46:01	26012020	260120	154601	100.710	12.278193	-56.561573	100.560	-0.090	-0.120	0.500	100.670	-1.500	0.800																			1580053561.0	11.15	20.65
26/01/2020 15:46:02	26012020	260120	154602	100.550	12.278183	-56.561522	100.540	-0.110	-0.120	0.550	100.530	-1.500	0.900																			1580053562.0	11.28	20.89
26/01/2020 15:46:03	26012020	260120	154603	100.540	12.278172	-56.561470	100.690	-0.110	-0.180	0.500	100.570	-1.500	0.900																			1580053563.0	11.19	20.72
26/01/2020 15:46:04	26012020	260120	154604	100.710	12.278160	-56.561418	100.830	-0.020	-0.300	0.310	100.750	-1.600	0.700																			1580053564.0	11.16	20.67
26/01/2020 15:46:05	26012020	260120	154605	100.860	12.278150	-56.561367	100.900	0.110	-0.330	0.230	100.870	-1.700	0.600																			1580053565.0	11.19	20.72
26/01/2020 15:46:06	26012020	260120	154606	100.910	12.278140	-56.561315	100.860	0.170	-0.200	0.380	100.900	-1.600	0.700																			1580053566.0	11.24	20.82
26/01/2020 15:46:07	26012020	260120	154607	100.860	12.278128	-56.561265	100.750	0.200	-0.180	0.450	100.840	-1.500	0.800																			1580053567.0	11.11	20.58
26/01/2020 15:46:08	26012020	260120	154608	100.730	12.278120	-56.561213	100.650	0.280	-0.460	0.380	100.710	-1.700	0.800																			1580053568.0	10.92	20.22
26/01/2020 15:46:09	26012020	260120	154609	100.650	12.278110	-56.561160	100.650	0.320	-0.710	0.380	100.640	-2.000	0.700																			1580053569.0	11.09	20.54
26/01/2020 15:46:10	26012020	260120	154610	100.660	12.278100	-56.561107	100.710	0.140	-0.600	0.510	100.670	-2.100	0.800																			1580053570.0	11.50	21.30
26/01/2020 15:46:11	26012020	260120	154611	100.710	12.278090	-56.561055	100.720	-0.240	-0.190	0.840	100.720	-1.800	1.100																			1580053571.0	11.47	21.24
26/01/2020 15:46:12	26012020	260120	154612	100.700	12.278077	-56.561005	100.620	-0.640	0.230	1.090	100.680	-1.300	1.400																			1580053572.0	11.11	20.58
26/01/2020 15:46:13	26012020	260120	154613	100.600	12.278063	-56.560957	100.560	-0.750	0.240	0.910	100.590	-1.100	1.400																			1580053573.0	10.85	20.09
26/01/2020 15:46:14	26012020	260120	154614	100.550	12.278052	-56.560903	100.550	-0.390	-0.250	0.580	100.550	-1.400	1.100																			1580053574.0	10.81	20.02
26/01/2020 15:46:15	26012020	260120	154615	100.550	12.278042	-56.560850	100.550	0.200	-0.660	0.190	100.550	-1.900	0.700																			1580053575.0	11.25	20.84
26/01/2020 15:46:16	26012020	260120	154616	100.570	12.278032	-56.560795	100.610	0.560	-0.530	-0.140	100.580	-2.000	0.300																			1580053576.0	11.77	21.80
26/01/2020 15:46:17	26012020	260120	154617	100.640	12.278025	-56.560743	100.680	0.520	-0.070	-0.220	100.650	-1.600	0.200																			1580053577.0	11.66	21.59
26/01/2020 15:46:18	26012020	260120	154618	100.710	12.278017	-56.560693	100.730	0.320	0.170	-0.190	100.720	-1.300	0.200																			1580053578.0	11.02	20.41
26/01/2020 15:46:19	26012020	260120	154619	100.760	12.278007	-56.560643	100.780	0.170	-0.040	-0.020	100.770	-1.300	0.300																			1580053579.0	10.67	19.76
26/01/2020 15:46:20	26012020	260120	154620	100.800	12.277997	-56.560590	100.830	0.060	-0.370	0.390	100.810	-1.700	0.600																			1580053580.0	10.94	20.26
26/01/2020 15:46:21	26012020	260120	154621	100.830	12.277985	-56.560538	100.870	-0.090	-0.520	0.690	100.840	-1.900	1.000																			1580053581.0	11.38	21.08
26/01/2020 15:46:22	26012020	260120	154622	100.860	12.277973	-56.560487	100.800	-0.240	-0.580	0.850	100.860	-1.900	1.200																			1580053582.0	11.42	21.15
26/01/2020 15:46:23	26012020	260120	154623	100.770	12.277960	-56.560435	100.570	-0.330	-0.510	0.950	100.730	-1.900	1.300																			1580053583.0	11.20	20.74
26/01/2020 15:46:24	26012020	260120	154624	100.530	12.277948	-56.560383	100.340	-0.380	-0.200	0.820	100.480	-1.700	1.300																			1580053584.0	11.24	20.82
26/01/2020 15:46:25	26012020	260120	154625	100.310	12.277937	-56.560333	100.250	-0.330	-0.030	0.520	100.280	-1.400	1.000																			1580053585.0	11.13	20.61
26/01/2020 15:46:26	26012020	260120	154626	100.250	12.277928	-56.560282	100.340	-0.070	-0.260	0.190	100.260	-1.500	0.700																			1580053586.0	10.91	20.21
26/01/2020 15:46:27	26012020	260120	154627	100.360	12.277918	-56.560227	100.430	0.270	-0.480	-0.050	100.380	-1.800	0.400																			1580053587.0	11.11	20.58
26/01/2020 15:46:28	26012020	260120	154628	100.440	12.277908	-56.560173	100.480	0.340	-0.120	-0.160	100.450	-1.700	0.200																			1580053588.0	11.65	21.58
26/01/2020 15:46:29	26012020	260120	154629	100.500	12.277898	-56.560123	100.610	0.190	0.410	-0.110	100.510	-1.100	0.200																			1580053589.0	11.54	21.37
26/01/2020 15:46:30	26012020	260120	154630	100.640	12.277890	-56.560075	100.810	0.140	0.290	0.030	100.670	-0.900	0.400																			1580053590.0	10.74	19.89
26/01/2020 15:46:31	26012020	260120	154631	100.840	12.277880	-56.560022	100.900	0.320	-0.460	0.160	100.870	-1.600	0.500																			1580053591.0	10.52	19.48
26/01/2020 15:46:32	26012020	260120	154632	100.910	12.277870	-56.559967	100.840	0.440	-1.000	0.440	100.900	-2.300	0.700																			1580053592.0	11.27	20.87
26/01/2020 15:46:33	26012020	260120	154633	100.820	12.277860	-56.559913	100.700	0.260	-0.860	0.810	100.790	-2.400	1.000																			1580053593.0	11.87	21.98
26/01/2020 15:46:34	26012020	260120	154634	100.670	12.277848	-56.559863	100.610	-0.210	-0.300	0.960	100.650	-1.900	1.300																			1580053594.0	11.58	21.45
26/01/2020 15:46:35	26012020	260120	154635	100.590	12.277837	-56.559815	100.560	-0.700	0.060	0.870	100.570	-1.400	1.300																			1580053595.0	10.92	20.22
26/01/2020 15:46:36	26012020	260120	154636	100.550	12.277825	-56.559763	100.550	-0.880	-0.010	0.660	100.540	-1.300	1.100																			1580053596.0	10.60	19.63
26/01/2020 15:46:37	26012020	260120	154637	100.540	12.277813	-56.559712	100.510	-0.630	-0.270	0.510	100.540	-1.600	0.900																			1580053597.0	10.91	20.21
26/01/2020 15:46:38	26012020	260120	154638	100.500	12.277800	-56.559658	100.390	-0.070	-0.560	0.410	100.480	-1.900	0.800																			1580053598.0	11.37	21.06
26/01/2020 15:46:39	26012020	260120	154639	100.380	12.277788	-56.559605	100.330	0.450	-0.540	0.200	100.360	-2.000	0.600																			1580053599.0	11.61	21.50
26/01/2020 15:46:40	26012020	260120	154640	100.340	12.277780	-56.559552	100.450	0.580	-0.040	-0.010	100.350	-1.600	0.400																			1580053600.0	11.68	21.63
26/01/2020 15:46:41	26012020	260120	154641	100.480	12.277772	-56.559502	100.730	0.360	0.510	-0.220	100.530	-1.000	0.200																			1580053601.0	11.34	21.00
26/01/2020 15:46:42	26012020	260120	154642	100.780	12.277763	-56.559453	101.000	0.180	0.480	-0.380	100.830	-0.800	0.000																			1580053602.0	10.68	19.78
26/01/2020 15:46:43	26012020	260120	154643	101.040	12.277755	-56.559400	101.180	0.180	-0.070	-0.220	101.090	-1.200	0.000																			1580053603.0	10.56	19.56
26/01/2020 15:46:44	26012020	260120	154644	101.220	12.277745	-56.559347	101.290	0.180	-0.540	0.230	101.250	-1.800	0.400																			1580053604.0	11.14	20.63
26/01/2020 15:46:45	26012020	260120	154645	101.300	12.277733	-56.559295	101.250	0.090	-0.690	0.560	101.300	-2.000	0.800																			1580053605.0	11.54	21.37
26/01/2020 15:46:46	26012020	260120	154646	101.250	12.277722	-56.559245	101.090	0.010	-0.860	0.700	101.220	-2.200	1.000																			1580053606.0	11.31	20.95
26/01/2020 15:46:47	26012020	260120	154647	101.070	12.277710	-56.559192	100.890	-0.020	-1.050	0.770	101.030	-2.400	1.100																			1580053607.0	11.03	20.43
26/01/2020 15:46:48	26012020	260120	154648	100.880	12.277698	-56.559140	100.840	-0.170	-0.680	0.650	100.860	-2.300	1.100																			1580053608.0	11.31	20.95
26/01/2020 15:46:49	26012020	260120	154649	100.850	12.277687	-56.559088	100.880	-0.410	0.070	0.500	100.860	-1.600	0.900																			1580053609.0	11.48	21.26
26/01/2020 15:46:50	26012020	260120	154650	100.880	12.277675	-56.559040	100.830	-0.470	0.350	0.390	100.880	-1.000	0.800																			1580053610.0	10.90	20.19
26/01/2020 15:46:51	26012020	260120	154651	100.830	12.277663	-56.558988	100.720	-0.140	-0.150	0.220	100.820	-1.300	0.600																			1580053611.0	10.56	19.56
26/01/2020 15:46:52	26012020	260120	154652	100.730	12.277652	-56.558933	100.670	0.310	-0.570	-0.000	100.710	-1.900	0.400																			1580053612.0	11.20	20.74
26/01/2020 15:46:53	26012020	260120	154653	100.700	12.277642	-56.558878	100.820	0.420	-0.220	-0.160	100.710	-1.800	0.200																			1580053613.0	12.06	22.34
26/01/2020 15:46:54	26012020	260120	154654	100.860	12.277633	-56.558828	101.120	0.100	0.460	-0.230	100.910	-1.100	0.100																			1580053614.0	11.83	21.91
26/01/2020 15:46:55	26012020	260120	154655	101.170	12.277625	-56.558780	101.410	-0.280	0.710	-0.060	101.230	-0.700	0.200																			1580053615.0	10.82	20.04
26/01/2020 15:46:56	26012020	260120	154656	101.450	12.277613	-56.558730	101.520	-0.330	0.180	0.370	101.480	-0.900	0.600																			1580053616.0	10.35	19.17
26/01/2020 15:46:57	26012020	260120	154657	101.520	12.277598	-56.558678	101.420	0.010	-0.650	0.740	101.510	-1.700	1.000																			1580053617.0	10.75	19.91
26/01/2020 15:46:58	26012020	260120	154658	101.390	12.277585	-56.558623	101.250	0.380	-1.070	0.750	101.360	-2.400	1.200																			1580053618.0	11.53	21.35
26/01/2020 15:46:59	26012020	260120	154659	101.230	12.277575	-56.558572	101.210	0.490	-0.930	0.420	101.220	-2.400	0.900	1015.80	26.40	26.40	19.00	19.00	946.00	63.00	63.00	368.00	29.70	357.00	8.80	91.00	3.10	68054	3168.00	27.60	27.60	1580053619.0	11.77	21.80
26/01/2020 15:47:00	26012020	260120	154700	101.210	12.277567	-56.558520	101.210	0.350	-0.530	0.110	101.210	-2.000	0.600																			1580053620.0	11.31	20.95
26/01/2020 15:47:01	26012020	260120	154701	101.210	12.277558	-56.558470	101.090	0.110	-0.270	0.150	101.200	-1.700	0.400																			1580053621.0	10.82	20.04
26/01/2020 15:47:02	26012020	260120	154702	101.070	12.277548	-56.558420	100.870	-0.090	-0.290	0.480	101.030	-1.600	0.700																			1580053622.0	10.73	19.87
26/01/2020 15:47:03	26012020	260120	154703	100.850	12.277535	-56.558367	100.690	-0.260	-0.290	0.690	100.810	-1.700	1.000																			1580053623.0	11.03	20.43
26/01/2020 15:47:04	26012020	260120	154704	100.670	12.277522	-56.558315	100.620	-0.430	-0.110	0.630	100.650	-1.500	1.000																			1580053624.0	11.42	21.15
26/01/2020 15:47:05	26012020	260120	154705	100.610	12.277510	-56.558263	100.620	-0.450	-0.050	0.460	100.610	-1.400	0.900																			1580053625.0	11.36	21.04
26/01/2020 15:47:06	26012020	260120	154706	100.620	12.277498	-56.558212	100.610	-0.210	-0.190	0.350	100.620	-1.500	0.700																			1580053626.0	11.14	20.63
26/01/2020 15:47:07	26012020	260120	154707	100.600	12.277487	-56.558158	100.570	0.170	-0.260	0.260	100.590	-1.600	0.700																			1580053627.0	11.31	20.95
26/01/2020 15:47:08	26012020	260120	154708	100.560	12.277475	-56.558105	100.600	0.380	-0.010	0.070	100.560	-1.500	0.500																			1580053628.0	11.55	21.39
26/01/2020 15:47:09	26012020	260120	154709	100.610	12.277467	-56.558055	100.780	0.310	0.360	-0.090	100.650	-1.100	0.300																			1580053629.0	11.39	21.09
26/01/2020 15:47:10	26012020	260120	154710	100.810	12.277458	-56.558005	101.050	0.060	0.430	-0.060	100.860	-0.900	0.300																			1580053630.0	10.91	20.21
26/01/2020 15:47:11	26012020	260120	154711	101.080	12.277448	-56.557955	101.190	-0.070	-0.110	0.140	101.120	-1.200	0.400																			1580053631.0	10.62	19.67
26/01/2020 15:47:12	26012020	260120	154712	101.180	12.277437	-56.557902	101.050	0.030	-0.850	0.560	101.170	-2.000	0.700																			1580053632.0	10.83	20.06
26/01/2020 15:47:13	26012020	260120	154713	101.010	12.277425	-56.557848	100.740	0.180	-1.170	1.050	100.950	-2.500	1.300																			1580053633.0	11.45	21.21
26/01/2020 15:47:14	26012020	260120	154714	100.700	12.277412	-56.557797	100.430	0.230	-1.040	1.220	100.630	-2.500	1.600																			1580053634.0	11.64	21.56
26/01/2020 15:47:15	26012020	260120	154715	100.380	12.277400	-56.557747	100.200	0.190	-0.750	0.970	100.330	-2.200	1.400																			1580053635.0	11.29	20.91
26/01/2020 15:47:16	26012020	260120	154716	100.170	12.277392	-56.557693	100.090	0.060	-0.430	0.720	100.150	-1.900	1.200																			1580053636.0	11.06	20.48
26/01/2020 15:47:17	26012020	260120	154717	100.080	12.277382	-56.557642	100.050	-0.190	-0.010	0.680	100.070	-1.500	1.000																			1580053637.0	11.15	20.65
26/01/2020 15:47:18	26012020	260120	154718	100.050	12.277370	-56.557590	100.100	-0.450	0.440	0.670	100.050	-1.100	1.000																			1580053638.0	11.24	20.82
26/01/2020 15:47:19	26012020	260120	154719	100.100	12.277358	-56.557540	100.260	-0.500	0.570	0.600	100.120	-0.800	1.000																			1580053639.0	11.08	20.52
26/01/2020 15:47:20	26012020	260120	154720	100.270	12.277348	-56.557488	100.480	-0.240	0.190	0.470	100.320	-1.000	0.900																			1580053640.0	10.94	20.26
26/01/2020 15:47:21	26012020	260120	154721	100.490	12.277337	-56.557435	100.640	0.160	-0.360	0.430	100.530	-1.600	0.800																			1580053641.0	11.21	20.76
26/01/2020 15:47:22	26012020	260120	154722	100.650	12.277327	-56.557380	100.750	0.370	-0.510	0.470	100.670	-1.900	0.800																			1580053642.0	11.64	21.56
26/01/2020 15:47:23	26012020	260120	154723	100.750	12.277317	-56.557328	100.810	0.250	-0.240	0.550	100.770	-1.700	0.900																			1580053643.0	11.66	21.59
26/01/2020 15:47:24	26012020	260120	154724	100.820	12.277307	-56.557280	100.850	0.020	-0.000	0.600	100.830	-1.400	0.900																			1580053644.0	11.11	20.58
26/01/2020 15:47:25	26012020	260120	154725	100.850	12.277298	-56.557230	100.840	-0.040	-0.240	0.610	100.850	-1.500	1.000																			1580053645.0	10.58	19.59
26/01/2020 15:47:26	26012020	260120	154726	100.830	12.277288	-56.557178	100.810	0.110	-0.760	0.510	100.830	-1.900	0.900																			1580053646.0	10.70	19.82
26/01/2020 15:47:27	26012020	260120	154727	100.810	12.277277	-56.557123	100.680	0.260	-0.950	0.430	100.790	-2.300	0.800																			1580053647.0	11.31	20.95
26/01/2020 15:47:28	26012020	260120	154728	100.670	12.277267	-56.557070	100.450	0.210	-0.660	0.380	100.620	-2.200	0.800																			1580053648.0	11.68	21.63
26/01/2020 15:47:29	26012020	260120	154729	100.430	12.277257	-56.557020	100.340	0.030	-0.230	0.170	100.400	-1.800	0.600																			1580053649.0	11.38	21.08
26/01/2020 15:47:30	26012020	260120	154730	100.350	12.277248	-56.556968	100.460	-0.160	0.130	-0.080	100.370	-1.400	0.400																			1580053650.0	10.98	20.33
26/01/2020 15:47:31	26012020	260120	154731	100.500	12.277238	-56.556918	100.630	-0.270	0.260	-0.330	100.540	-1.100	0.100																			1580053651.0	10.95	20.28
26/01/2020 15:47:32	26012020	260120	154732	100.660	12.277230	-56.556865	100.720	-0.250	0.020	-0.380	100.680	-1.200	-0.100																			1580053652.0	10.97	20.32
26/01/2020 15:47:33	26012020	260120	154733	100.750	12.277218	-56.556812	100.790	-0.150	-0.340	-0.020	100.770	-1.600	0.200																			1580053653.0	11.17	20.69
26/01/2020 15:47:34	26012020	260120	154734	100.810	12.277205	-56.556760	100.840	-0.140	-0.460	0.290	100.820	-1.800	0.600																			1580053654.0	11.54	21.37
26/01/2020 15:47:35	26012020	260120	154735	100.850	12.277192	-56.556708	100.840	-0.190	-0.330	0.300	100.860	-1.800	0.700																			1580053655.0	11.57	21.43
26/01/2020 15:47:36	26012020	260120	154736	100.840	12.277180	-56.556657	100.780	-0.150	-0.150	0.270	100.840	-1.600	0.600																			1580053656.0	11.22	20.78
26/01/2020 15:47:37	26012020	260120	154737	100.780	12.277170	-56.556607	100.700	0.010	-0.100	0.230	100.770	-1.500	0.600																			1580053657.0	10.96	20.30
26/01/2020 15:47:38	26012020	260120	154738	100.710	12.277160	-56.556555	100.570	0.230	-0.380	0.160	100.680	-1.600	0.500																			1580053658.0	10.94	20.26
26/01/2020 15:47:39	26012020	260120	154739	100.580	12.277152	-56.556502	100.440	0.350	-0.600	0.250	100.550	-1.900	0.600																			1580053659.0	11.16	20.67
26/01/2020 15:47:40	26012020	260120	154740	100.450	12.277140	-56.556448	100.390	0.210	-0.310	0.380	100.430	-1.800	0.700																			1580053660.0	11.56	21.41
26/01/2020 15:47:41	26012020	260120	154741	100.400	12.277130	-56.556398	100.420	-0.050	0.120	0.480	100.400	-1.400	0.800																			1580053661.0	11.44	21.19
26/01/2020 15:47:42	26012020	260120	154742	100.440	12.277120	-56.556348	100.520	-0.180	0.120	0.520	100.450	-1.200	0.900																			1580053662.0	10.84	20.08
26/01/2020 15:47:43	26012020	260120	154743	100.550	12.277108	-56.556297	100.630	-0.050	-0.350	0.510	100.570	-1.500	0.900																			1580053663.0	10.73	19.87
26/01/2020 15:47:44	26012020	260120	154744	100.650	12.277097	-56.556242	100.730	0.160	-0.700	0.510	100.670	-2.000	0.900																			1580053664.0	11.24	20.82
26/01/2020 15:47:45	26012020	260120	154745	100.760	12.277087	-56.556188	100.820	0.190	-0.420	0.490	100.770	-2.000	0.900																			1580053665.0	11.72	21.71
26/01/2020 15:47:46	26012020	260120	154746	100.830	12.277075	-56.556140	100.820	0.000	0.110	0.440	100.840	-1.400	0.800																			1580053666.0	11.51	21.32
26/01/2020 15:47:47	26012020	260120	154747	100.830	12.277067	-56.556090	100.750	-0.120	0.030	0.400	100.820	-1.200	0.800																			1580053667.0	10.74	19.89
26/01/2020 15:47:48	26012020	260120	154748	100.760	12.277057	-56.556038	100.700	-0.070	-0.590	0.330	100.750	-1.700	0.700																			1580053668.0	10.53	19.50
26/01/2020 15:47:49	26012020	260120	154749	100.710	12.277047	-56.555983	100.680	-0.050	-0.770	0.240	100.710	-2.200	0.600																			1580053669.0	11.34	21.00
26/01/2020 15:47:50	26012020	260120	154750	100.700	12.277035	-56.555930	100.620	-0.240	-0.250	0.290	100.700	-1.900	0.600																			1580053670.0	11.89	22.02
26/01/2020 15:47:51	26012020	260120	154751	100.620	12.277025	-56.555882	100.480	-0.410	0.110	0.430	100.600	-1.300	0.700																			1580053671.0	11.29	20.91
26/01/2020 15:47:52	26012020	260120	154752	100.470	12.277013	-56.555832	100.310	-0.240	-0.290	0.540	100.430	-1.500	0.900																			1580053672.0	10.56	19.56
26/01/2020 15:47:53	26012020	260120	154753	100.310	12.277002	-56.555777	100.280	0.150	-0.760	0.520	100.290	-2.000	0.900																			1580053673.0	10.93	20.24
26/01/2020 15:47:54	26012020	260120	154754	100.290	12.276990	-56.555722	100.440	0.340	-0.470	0.360	100.320	-2.000	0.800																			1580053674.0	11.87	21.98
26/01/2020 15:47:55	26012020	260120	154755	100.470	12.276980	-56.555672	100.720	0.170	0.350	0.170	100.520	-1.300	0.600																			1580053675.0	11.88	22.00
26/01/2020 15:47:56	26012020	260120	154756	100.760	12.276972	-56.555623	100.980	-0.070	0.670	0.060	100.810	-0.700	0.400																			1580053676.0	10.91	20.21
26/01/2020 15:47:57	26012020	260120	154757	101.000	12.276962	-56.555573	101.100	-0.050	0.170	0.060	101.040	-1.000	0.400																			1580053677.0	10.28	19.04
26/01/2020 15:47:58	26012020	260120	154758	101.110	12.276952	-56.555520	101.100	0.140	-0.400	0.180	101.110	-1.600	0.500																			1580053678.0	10.83	20.06
26/01/2020 15:47:59	26012020	260120	154759	101.100	12.276942	-56.555467	101.060	0.260	-0.670	0.370	101.100	-2.000	0.700	1015.80	26.40	26.40	19.00	19.10	932.00	64.00	64.00	368.00	29.70	356.00	9.00	91.00	3.20	67305	3261.00	27.60	27.60	1580053679.0	11.58	21.45
26/01/2020 15:48:00	26012020	260120	154800	101.050	12.276930	-56.555413	100.920	0.190	-0.810	0.580	101.030	-2.100	0.900																			1580053680.0	11.47	21.24
26/01/2020 15:48:01	26012020	260120	154801	100.890	12.276920	-56.555363	100.690	-0.060	-0.790	0.720	100.850	-2.200	1.000																			1580053681.0	11.19	20.72
26/01/2020 15:48:02	26012020	260120	154802	100.660	12.276908	-56.555312	100.520	-0.320	-0.480	0.750	100.620	-2.000	1.100																			1580053682.0	11.18	20.71
26/01/2020 15:48:03	26012020	260120	154803	100.500	12.276897	-56.555262	100.500	-0.400	-0.150	0.620	100.490	-1.600	1.000																			1580053683.0	11.09	20.54
26/01/2020 15:48:04	26012020	260120	154804	100.490	12.276885	-56.555210	100.500	-0.280	-0.140	0.350	100.500	-1.500	0.800																			1580053684.0	10.89	20.17
26/01/2020 15:48:05	26012020	260120	154805	100.500	12.276875	-56.555157	100.460	-0.120	-0.270	0.080	100.490	-1.600	0.500																			1580053685.0	11.02	20.41
26/01/2020 15:48:06	26012020	260120	154806	100.460	12.276863	-56.555103	100.450	-0.050	-0.130	-0.100	100.450	-1.600	0.300																			1580053686.0	11.47	21.24
26/01/2020 15:48:07	26012020	260120	154807	100.460	12.276853	-56.555052	100.540	-0.000	0.100	-0.180	100.470	-1.300	0.200																			1580053687.0	11.53	21.35
26/01/2020 15:48:08	26012020	260120	154808	100.560	12.276843	-56.555002	100.750	0.120	0.060	-0.200	100.600	-1.300	0.200																			1580053688.0	11.09	20.54
26/01/2020 15:48:09	26012020	260120	154809	100.780	12.276833	-56.554948	100.950	0.210	-0.040	-0.010	100.830	-1.400	0.300																			1580053689.0	11.02	20.41
26/01/2020 15:48:10	26012020	260120	154810	100.970	12.276823	-56.554897	101.040	0.180	-0.030	0.260	100.990	-1.400	0.500																			1580053690.0	11.26	20.85
26/01/2020 15:48:11	26012020	260120	154811	101.050	12.276812	-56.554847	101.060	0.120	-0.140	0.450	101.050	-1.400	0.800																			1580053691.0	11.17	20.69
26/01/2020 15:48:12	26012020	260120	154812	101.050	12.276802	-56.554795	101.040	0.120	-0.490	0.550	101.050	-1.700	0.900																			1580053692.0	10.92	20.22
26/01/2020 15:48:13	26012020	260120	154813	101.030	12.276790	-56.554743	100.920	0.100	-0.720	0.520	101.010	-2.000	0.900																			1580053693.0	11.09	20.54
26/01/2020 15:48:14	26012020	260120	154814	100.900	12.276780	-56.554692	100.680	-0.000	-0.590	0.370	100.860	-2.000	0.800																			1580053694.0	11.35	21.02
26/01/2020 15:48:15	26012020	260120	154815	100.660	12.276770	-56.554640	100.400	-0.080	-0.360	0.270	100.600	-1.800	0.700																			1580053695.0	11.22	20.78
26/01/2020 15:48:16	26012020	260120	154816	100.380	12.276762	-56.554590	100.210	-0.000	-0.470	0.210	100.330	-1.800	0.600																			1580053696.0	10.89	20.17
26/01/2020 15:48:17	26012020	260120	154817	100.200	12.276750	-56.554537	100.150	0.150	-0.740	0.160	100.180	-2.000	0.500																			1580053697.0	10.97	20.32
26/01/2020 15:48:18	26012020	260120	154818	100.160	12.276740	-56.554482	100.200	0.120	-0.530	0.180	100.160	-2.000	0.500																			1580053698.0	11.54	21.37
26/01/2020 15:48:19	26012020	260120	154819	100.210	12.276728	-56.554430	100.320	-0.180	0.170	0.300	100.230	-1.500	0.600																			1580053699.0	11.76	21.78
26/01/2020 15:48:20	26012020	260120	154820	100.320	12.276717	-56.554382	100.450	-0.490	0.690	0.440	100.350	-0.800	0.800																			1580053700.0	11.18	20.71
26/01/2020 15:48:21	26012020	260120	154821	100.450	12.276705	-56.554332	100.590	-0.460	0.460	0.460	100.480	-0.800	0.800																			1580053701.0	10.58	19.59
26/01/2020 15:48:22	26012020	260120	154822	100.600	12.276693	-56.554278	100.730	-0.120	-0.200	0.400	100.620	-1.300	0.800																			1580053702.0	10.76	19.93
26/01/2020 15:48:23	26012020	260120	154823	100.730	12.276683	-56.554225	100.900	0.190	-0.550	0.340	100.770	-1.900	0.700																			1580053703.0	11.49	21.28
26/01/2020 15:48:24	26012020	260120	154824	100.900	12.276672	-56.554172	101.010	0.260	-0.360	0.240	100.940	-1.800	0.600																			1580053704.0	11.76	21.78
26/01/2020 15:48:25	26012020	260120	154825	101.000	12.276663	-56.554123	100.940	0.150	-0.150	0.180	101.000	-1.600	0.600																			1580053705.0	11.28	20.89
26/01/2020 15:48:26	26012020	260120	154826	100.930	12.276653	-56.554073	100.820	0.150	-0.360	0.150	100.900	-1.600	0.500																			1580053706.0	10.66	19.74
26/01/2020 15:48:27	26012020	260120	154827	100.810	12.276645	-56.554020	100.700	0.330	-0.720	0.110	100.780	-2.000	0.500																			1580053707.0	10.73	19.87
26/01/2020 15:48:28	26012020	260120	154828	100.680	12.276635	-56.553967	100.550	0.440	-0.730	0.170	100.660	-2.100	0.500																			1580053708.0	11.31	20.95
26/01/2020 15:48:29	26012020	260120	154829	100.540	12.276625	-56.553915	100.460	0.270	-0.440	0.260	100.510	-1.900	0.600																			1580053709.0	11.51	21.32
26/01/2020 15:48:30	26012020	260120	154830	100.450	12.276615	-56.553863	100.460	-0.030	-0.220	0.410	100.440	-1.600	0.700																			1580053710.0	11.18	20.71
26/01/2020 15:48:31	26012020	260120	154831	100.450	12.276603	-56.553813	100.450	-0.230	-0.150	0.710	100.450	-1.500	1.000																			1580053711.0	10.95	20.28
26/01/2020 15:48:32	26012020	260120	154832	100.430	12.276590	-56.553762	100.440	-0.280	-0.140	0.850	100.420	-1.500	1.200																			1580053712.0	11.10	20.56
26/01/2020 15:48:33	26012020	260120	154833	100.420	12.276578	-56.553708	100.480	-0.290	-0.100	0.780	100.420	-1.500	1.200																			1580053713.0	11.33	20.98
26/01/2020 15:48:34	26012020	260120	154834	100.470	12.276567	-56.553657	100.580	-0.320	0.020	0.540	100.490	-1.400	1.000																			1580053714.0	11.37	21.06
26/01/2020 15:48:35	26012020	260120	154835	100.570	12.276557	-56.553605	100.680	-0.360	0.080	0.220	100.600	-1.300	0.700																			1580053715.0	11.26	20.85
26/01/2020 15:48:36	26012020	260120	154836	100.680	12.276548	-56.553553	100.750	-0.260	-0.060	0.020	100.690	-1.400	0.400																			1580053716.0	11.07	20.50
26/01/2020 15:48:37	26012020	260120	154837	100.760	12.276538	-56.553502	100.820	-0.000	-0.310	-0.020	100.770	-1.600	0.300																			1580053717.0	11.06	20.48
26/01/2020 15:48:38	26012020	260120	154838	100.830	12.276527	-56.553450	100.800	0.300	-0.550	0.050	100.830	-1.800	0.400																			1580053718.0	11.24	20.82
26/01/2020 15:48:39	26012020	260120	154839	100.790	12.276517	-56.553397	100.670	0.500	-0.610	0.220	100.770	-2.000	0.500																			1580053719.0	11.33	20.98
26/01/2020 15:48:40	26012020	260120	154840	100.660	12.276507	-56.553345	100.600	0.390	-0.310	0.360	100.640	-1.800	0.700																			1580053720.0	11.36	21.04
26/01/2020 15:48:41	26012020	260120	154841	100.600	12.276497	-56.553295	100.590	0.080	-0.010	0.460	100.590	-1.500	0.800																			1580053721.0	11.19	20.72
26/01/2020 15:48:42	26012020	260120	154842	100.580	12.276487	-56.553245	100.580	-0.110	-0.120	0.510	100.580	-1.400	0.900																			1580053722.0	10.78	19.96
26/01/2020 15:48:43	26012020	260120	154843	100.580	12.276477	-56.553192	100.630	-0.050	-0.460	0.460	100.590	-1.700	0.800																			1580053723.0	10.83	20.06
26/01/2020 15:48:44	26012020	260120	154844	100.620	12.276465	-56.553138	100.620	0.100	-0.650	0.400	100.630	-2.000	0.800																			1580053724.0	11.34	21.00
26/01/2020 15:48:45	26012020	260120	154845	100.610	12.276453	-56.553085	100.520	0.140	-0.450	0.250	100.590	-1.900	0.700																			1580053725.0	11.62	21.52
26/01/2020 15:48:46	26012020	260120	154846	100.500	12.276445	-56.553033	100.480	-0.000	-0.010	0.040	100.490	-1.500	0.500																			1580053726.0	11.47	21.24
26/01/2020 15:48:47	26012020	260120	154847	100.490	12.276437	-56.552983	100.680	-0.240	0.270	-0.140	100.510	-1.200	0.300																			1580053727.0	11.03	20.43
26/01/2020 15:48:48	26012020	260120	154848	100.710	12.276427	-56.552933	100.970	-0.400	0.130	-0.240	100.780	-1.100	0.100																			1580053728.0	10.79	19.98
26/01/2020 15:48:49	26012020	260120	154849	100.990	12.276415	-56.552880	101.070	-0.330	-0.270	-0.140	101.030	-1.500	0.100																			1580053729.0	10.94	20.26
26/01/2020 15:48:50	26012020	260120	154850	101.070	12.276403	-56.552828	101.000	-0.070	-0.590	0.220	101.060	-1.900	0.400																			1580053730.0	11.31	20.95
26/01/2020 15:48:51	26012020	260120	154851	100.980	12.276390	-56.552775	100.860	0.200	-0.630	0.420	100.950	-2.000	0.800																			1580053731.0	11.53	21.35
26/01/2020 15:48:52	26012020	260120	154852	100.840	12.276378	-56.552723	100.750	0.300	-0.480	0.260	100.820	-1.900	0.700																			1580053732.0	11.43	21.17
26/01/2020 15:48:53	26012020	260120	154853	100.750	12.276370	-56.552672	100.700	0.200	-0.300	0.110	100.730	-1.700	0.500																			1580053733.0	11.17	20.69
26/01/2020 15:48:54	26012020	260120	154854	100.700	12.276360	-56.552620	100.670	0.060	-0.180	0.090	100.680	-1.600	0.400																			1580053734.0	11.05	20.46
26/01/2020 15:48:55	26012020	260120	154855	100.670	12.276350	-56.552568	100.680	-0.030	-0.200	0.130	100.670	-1.500	0.500																			1580053735.0	11.05	20.46
26/01/2020 15:48:56	26012020	260120	154856	100.680	12.276340	-56.552517	100.690	-0.010	-0.370	0.430	100.680	-1.700	0.600																			1580053736.0	11.14	20.63
26/01/2020 15:48:57	26012020	260120	154857	100.680	12.276327	-56.552463	100.650	0.020	-0.390	0.810	100.670	-1.800	1.100																			1580053737.0	11.34	21.00
26/01/2020 15:48:58	26012020	260120	154858	100.630	12.276313	-56.552412	100.630	-0.050	-0.070	0.900	100.620	-1.600	1.200																			1580053738.0	11.56	21.41
26/01/2020 15:48:59	26012020	260120	154859	100.600	12.276303	-56.552362	100.600	-0.130	0.210	0.800	100.600	-1.200	1.200	1015.80	26.40	26.50	18.50	18.60	921.00	62.00	62.00	368.00	29.70	358.00	9.20	96.00	3.50	66748	3293.00	27.60	27.60	1580053739.0	11.36	21.04
26/01/2020 15:49:00	26012020	260120	154900	100.600	12.276292	-56.552310	100.710	-0.120	0.230	0.470	100.610	-1.100	1.000																			1580053740.0	10.91	20.21
26/01/2020 15:49:01	26012020	260120	154901	100.720	12.276283	-56.552258	100.910	-0.020	0.050	0.020	100.760	-1.200	0.500																			1580053741.0	10.96	20.30
26/01/2020 15:49:02	26012020	260120	154902	100.950	12.276275	-56.552207	101.170	0.160	-0.310	-0.190	101.000	-1.500	0.200																			1580053742.0	11.10	20.56
26/01/2020 15:49:03	26012020	260120	154903	101.200	12.276265	-56.552153	101.320	0.250	-0.560	-0.120	101.250	-1.900	0.200																			1580053743.0	11.25	20.84
26/01/2020 15:49:04	26012020	260120	154904	101.330	12.276255	-56.552102	101.270	0.160	-0.570	0.150	101.330	-2.000	0.400																			1580053744.0	11.37	21.06
26/01/2020 15:49:05	26012020	260120	154905	101.260	12.276243	-56.552052	101.090	0.040	-0.580	0.450	101.230	-1.900	0.700																			1580053745.0	11.19	20.72
26/01/2020 15:49:06	26012020	260120	154906	101.070	12.276232	-56.552000	100.860	0.120	-0.820	0.560	101.030	-2.100	0.900																			1580053746.0	10.95	20.28
26/01/2020 15:49:07	26012020	260120	154907	100.850	12.276222	-56.551947	100.680	0.250	-1.000	0.530	100.810	-2.400	0.900																			1580053747.0	11.09	20.54
26/01/2020 15:49:08	26012020	260120	154908	100.670	12.276210	-56.551892	100.570	0.080	-0.550	0.500	100.650	-2.200	0.900																			1580053748.0	11.61	21.50
26/01/2020 15:49:09	26012020	260120	154909	100.570	12.276200	-56.551842	100.500	-0.390	0.290	0.450	100.550	-1.400	0.800																			1580053749.0	11.64	21.56
26/01/2020 15:49:10	26012020	260120	154910	100.500	12.276188	-56.551793	100.500	-0.750	0.670	0.350	100.500	-0.700	0.700																			1580053750.0	10.95	20.28
26/01/2020 15:49:11	26012020	260120	154911	100.510	12.276177	-56.551742	100.560	-0.640	0.280	0.250	100.520	-0.900	0.600																			1580053751.0	10.56	19.56
26/01/2020 15:49:12	26012020	260120	154912	100.590	12.276165	-56.551687	100.730	-0.180	-0.280	0.040	100.610	-1.500	0.500																			1580053752.0	11.08	20.52
26/01/2020 15:49:13	26012020	260120	154913	100.770	12.276153	-56.551633	100.950	0.210	-0.300	-0.140	100.810	-1.700	0.300																			1580053753.0	11.84	21.93
26/01/2020 15:49:14	26012020	260120	154914	100.990	12.276143	-56.551582	101.110	0.290	0.130	-0.140	101.030	-1.400	0.200																			1580053754.0	11.84	21.93
26/01/2020 15:49:15	26012020	260120	154915	101.140	12.276133	-56.551533	101.160	0.210	0.250	-0.040	101.160	-1.100	0.300																			1580053755.0	11.01	20.39
26/01/2020 15:49:16	26012020	260120	154916	101.180	12.276125	-56.551483	101.150	0.260	-0.270	0.180	101.170	-1.400	0.400																			1580053756.0	10.47	19.39
26/01/2020 15:49:17	26012020	260120	154917	101.160	12.276113	-56.551430	101.090	0.430	-0.970	0.460	101.160	-2.100	0.700																			1580053757.0	10.81	20.02
26/01/2020 15:49:18	26012020	260120	154918	101.090	12.276103	-56.551375	100.970	0.490	-1.150	0.600	101.060	-2.500	0.900																			1580053758.0	11.51	21.32
26/01/2020 15:49:19	26012020	260120	154919	100.960	12.276092	-56.551323	100.860	0.250	-0.670	0.700	100.940	-2.300	1.000																			1580053759.0	11.72	21.71
26/01/2020 15:49:20	26012020	260120	154920	100.860	12.276082	-56.551275	100.810	-0.200	-0.020	0.800	100.840	-1.600	1.100																			1580053760.0	11.22	20.78
26/01/2020 15:49:21	26012020	260120	154921	100.800	12.276070	-56.551225	100.740	-0.510	0.120	0.760	100.790	-1.200	1.100																			1580053761.0	10.60	19.63
26/01/2020 15:49:22	26012020	260120	154922	100.720	12.276058	-56.551173	100.540	-0.400	-0.360	0.640	100.690	-1.500	1.000																			1580053762.0	10.54	19.52
26/01/2020 15:49:23	26012020	260120	154923	100.520	12.276047	-56.551118	100.340	-0.070	-0.730	0.440	100.480	-2.000	0.900																			1580053763.0	11.22	20.78
26/01/2020 15:49:24	26012020	260120	154924	100.340	12.276035	-56.551065	100.370	0.070	-0.460	0.230	100.330	-2.000	0.600																			1580053764.0	11.94	22.11
26/01/2020 15:49:25	26012020	260120	154925	100.400	12.276025	-56.551013	100.580	-0.130	0.240	0.110	100.440	-1.400	0.500																			1580053765.0	11.80	21.85
26/01/2020 15:49:26	26012020	260120	154926	100.620	12.276017	-56.550965	100.760	-0.370	0.660	0.100	100.670	-0.800	0.400																			1580053766.0	11.02	20.41
26/01/2020 15:49:27	26012020	260120	154927	100.790	12.276005	-56.550915	100.790	-0.290	0.360	0.230	100.800	-0.800	0.500																			1580053767.0	10.50	19.45
26/01/2020 15:49:28	26012020	260120	154928	100.810	12.275993	-56.550862	100.850	0.110	-0.350	0.340	100.810	-1.500	0.700																			1580053768.0	10.76	19.93
26/01/2020 15:49:29	26012020	260120	154929	100.880	12.275983	-56.550807	101.090	0.430	-0.700	0.370	100.920	-2.000	0.700																			1580053769.0	11.49	21.28
26/01/2020 15:49:30	26012020	260120	154930	101.120	12.275972	-56.550755	101.270	0.370	-0.500	0.370	101.170	-2.000	0.700																			1580053770.0	11.80	21.85
26/01/2020 15:49:31	26012020	260120	154931	101.290	12.275962	-56.550705	101.220	0.140	-0.260	0.400	101.290	-1.700	0.700																			1580053771.0	11.26	20.85
26/01/2020 15:49:32	26012020	260120	154932	101.210	12.275952	-56.550657	101.010	0.040	-0.310	0.500	101.170	-1.600	0.800																			1580053772.0	10.65	19.72
26/01/2020 15:49:33	26012020	260120	154933	101.000	12.275940	-56.550605	100.800	0.080	-0.500	0.410	100.950	-1.800	0.800																			1580053773.0	10.74	19.89
26/01/2020 15:49:34	26012020	260120	154934	100.790	12.275932	-56.550552	100.650	0.180	-0.650	0.170	100.760	-2.000	0.600																			1580053774.0	11.15	20.65
26/01/2020 15:49:35	26012020	260120	154935	100.650	12.275922	-56.550498	100.560	0.220	-0.630	0.000	100.620	-2.000	0.400																			1580053775.0	11.34	21.00
26/01/2020 15:49:36	26012020	260120	154936	100.570	12.275913	-56.550447	100.540	0.050	-0.320	0.060	100.560	-1.800	0.400																			1580053776.0	11.40	21.11
26/01/2020 15:49:37	26012020	260120	154937	100.550	12.275900	-56.550395	100.580	-0.280	0.120	0.280	100.560	-1.400	0.500																			1580053777.0	11.32	20.96
26/01/2020 15:49:38	26012020	260120	154938	100.590	12.275888	-56.550345	100.710	-0.530	0.390	0.480	100.610	-1.000	0.800																			1580053778.0	11.03	20.43
26/01/2020 15:49:39	26012020	260120	154939	100.730	12.275875	-56.550295	100.870	-0.530	0.360	0.560	100.760	-0.900	0.900																			1580053779.0	10.85	20.09
26/01/2020 15:49:40	26012020	260120	154940	100.880	12.275863	-56.550243	100.950	-0.310	-0.020	0.600	100.900	-1.200	0.900																			1580053780.0	10.97	20.32
26/01/2020 15:49:41	26012020	260120	154941	100.950	12.275852	-56.550192	100.940	0.000	-0.510	0.640	100.950	-1.700	1.000																			1580053781.0	11.18	20.71
26/01/2020 15:49:42	26012020	260120	154942	100.930	12.275840	-56.550138	100.790	0.310	-0.780	0.630	100.910	-2.100	1.000																			1580053782.0	11.45	21.21
26/01/2020 15:49:43	26012020	260120	154943	100.780	12.275830	-56.550087	100.580	0.520	-0.820	0.560	100.730	-2.200	0.900																			1580053783.0	11.47	21.24
26/01/2020 15:49:44	26012020	260120	154944	100.570	12.275822	-56.550033	100.500	0.520	-0.570	0.470	100.550	-2.100	0.800																			1580053784.0	11.27	20.87
26/01/2020 15:49:45	26012020	260120	154945	100.510	12.275813	-56.549983	100.550	0.200	-0.020	0.460	100.510	-1.600	0.800																			1580053785.0	11.19	20.72
26/01/2020 15:49:46	26012020	260120	154946	100.560	12.275803	-56.549933	100.620	-0.230	0.320	0.450	100.590	-1.100	0.800																			1580053786.0	10.95	20.28
26/01/2020 15:49:47	26012020	260120	154947	100.640	12.275792	-56.549883	100.610	-0.290	-0.070	0.490	100.640	-1.200	0.800																			1580053787.0	10.58	19.59
26/01/2020 15:49:48	26012020	260120	154948	100.610	12.275780	-56.549830	100.500	0.090	-0.820	0.570	100.590	-1.900	0.900																			1580053788.0	10.84	20.08
26/01/2020 15:49:49	26012020	260120	154949	100.490	12.275768	-56.549773	100.500	0.360	-0.810	0.540	100.480	-2.300	0.900																			1580053789.0	11.73	21.72
26/01/2020 15:49:50	26012020	260120	154950	100.520	12.275758	-56.549722	100.660	0.080	0.170	0.490	100.540	-1.600	0.900																			1580053790.0	12.11	22.43
26/01/2020 15:49:51	26012020	260120	154951	100.680	12.275748	-56.549675	100.780	-0.500	0.950	0.400	100.710	-0.600	0.800																			1580053791.0	11.14	20.63
26/01/2020 15:49:52	26012020	260120	154952	100.790	12.275738	-56.549628	100.850	-0.730	0.460	0.220	100.810	-0.600	0.600																			1580053792.0	9.98	18.48
26/01/2020 15:49:53	26012020	260120	154953	100.860	12.275728	-56.549575	100.890	-0.370	-0.810	0.190	100.870	-1.700	0.500																			1580053793.0	10.19	18.87
26/01/2020 15:49:54	26012020	260120	154954	100.900	12.275717	-56.549518	100.900	0.160	-1.370	0.290	100.910	-2.600	0.600																			1580053794.0	11.60	21.48
26/01/2020 15:49:55	26012020	260120	154955	100.900	12.275703	-56.549465	100.830	0.410	-0.890	0.290	100.890	-2.500	0.600																			1580053795.0	12.33	22.84
26/01/2020 15:49:56	26012020	260120	154956	100.820	12.275693	-56.549417	100.660	0.350	-0.200	0.300	100.790	-1.800	0.600																			1580053796.0	11.47	21.24
26/01/2020 15:49:57	26012020	260120	154957	100.640	12.275683	-56.549368	100.470	0.260	0.050	0.160	100.600	-1.300	0.600																			1580053797.0	10.50	19.45
26/01/2020 15:49:58	26012020	260120	154958	100.470	12.275675	-56.549317	100.360	0.230	-0.010	-0.080	100.440	-1.300	0.400																			1580053798.0	10.47	19.39
26/01/2020 15:49:59	26012020	260120	154959	100.380	12.275668	-56.549263	100.440	0.160	-0.070	-0.170	100.390	-1.400	0.200	1015.80	26.40	26.50	18.80	18.80	921.00	62.00	62.00	368.00	29.80	354.00	9.40	87.00	3.70	66618	3182.00	27.60	27.60	1580053799.0	11.07	20.50
26/01/2020 15:50:00	26012020	260120	155000	100.480	12.275658	-56.549212	100.620	0.020	-0.150	-0.030	100.510	-1.500	0.200																			1580053800.0	11.32	20.96
26/01/2020 15:50:01	26012020	260120	155001	100.650	12.275647	-56.549160	100.680	-0.170	-0.220	0.320	100.670	-1.500	0.500																			1580053801.0	11.21	20.76
26/01/2020 15:50:02	26012020	260120	155002	100.680	12.275633	-56.549108	100.600	-0.330	-0.230	0.760	100.670	-1.600	0.900																			1580053802.0	11.17	20.69
26/01/2020 15:50:03	26012020	260120	155003	100.590	12.275620	-56.549058	100.510	-0.430	-0.210	1.060	100.560	-1.600	1.300																			1580053803.0	11.16	20.67
26/01/2020 15:50:04	26012020	260120	155004	100.490	12.275607	-56.549007	100.480	-0.390	-0.240	0.990	100.480	-1.600	1.400																			1580053804.0	11.09	20.54
26/01/2020 15:50:05	26012020	260120	155005	100.470	12.275597	-56.548957	100.500	-0.180	-0.410	0.710	100.470	-1.700	1.200																			1580053805.0	11.02	20.41
26/01/2020 15:50:06	26012020	260120	155006	100.490	12.275587	-56.548903	100.440	0.130	-0.590	0.590	100.490	-1.900	1.000																			1580053806.0	11.08	20.52
26/01/2020 15:50:07	26012020	260120	155007	100.430	12.275577	-56.548850	100.410	0.320	-0.520	0.460	100.410	-1.900	0.900																			1580053807.0	11.29	20.91
26/01/2020 15:50:08	26012020	260120	155008	100.420	12.275567	-56.548800	100.540	0.310	-0.150	0.320	100.440	-1.700	0.700																			1580053808.0	11.40	21.11
26/01/2020 15:50:09	26012020	260120	155009	100.570	12.275558	-56.548750	100.760	0.200	0.230	0.290	100.610	-1.200	0.700																			1580053809.0	11.11	20.58
26/01/2020 15:50:10	26012020	260120	155010	100.790	12.275548	-56.548700	100.940	0.130	0.260	0.230	100.830	-1.000	0.600																			1580053810.0	10.76	19.93
26/01/2020 15:50:11	26012020	260120	155011	100.960	12.275538	-56.548648	100.980	0.160	-0.140	0.300	100.980	-1.300	0.600																			1580053811.0	10.70	19.82
26/01/2020 15:50:12	26012020	260120	155012	100.980	12.275528	-56.548595	100.990	0.190	-0.550	0.520	100.980	-1.800	0.800																			1580053812.0	11.04	20.45
26/01/2020 15:50:13	26012020	260120	155013	100.990	12.275517	-56.548542	101.040	0.040	-0.560	0.610	101.000	-2.000	0.900																			1580053813.0	11.45	21.21
26/01/2020 15:50:14	26012020	260120	155014	101.040	12.275507	-56.548492	100.980	-0.200	-0.310	0.570	101.030	-1.700	0.900																			1580053814.0	11.40	21.11
26/01/2020 15:50:15	26012020	260120	155015	100.970	12.275497	-56.548443	100.800	-0.290	-0.330	0.540	100.930	-1.600	0.900																			1580053815.0	10.88	20.15
26/01/2020 15:50:16	26012020	260120	155016	100.770	12.275487	-56.548390	100.560	-0.110	-0.720	0.480	100.730	-1.900	0.900																			1580053816.0	10.69	19.80
26/01/2020 15:50:17	26012020	260120	155017	100.540	12.275475	-56.548337	100.350	0.080	-0.940	0.350	100.500	-2.300	0.800																			1580053817.0	11.17	20.69
26/01/2020 15:50:18	26012020	260120	155018	100.340	12.275465	-56.548283	100.240	0.040	-0.520	0.180	100.310	-2.100	0.600																			1580053818.0	11.73	21.72
26/01/2020 15:50:19	26012020	260120	155019	100.240	12.275455	-56.548232	100.280	-0.200	0.170	0.110	100.240	-1.400	0.500																			1580053819.0	11.58	21.45
26/01/2020 15:50:20	26012020	260120	155020	100.290	12.275445	-56.548183	100.440	-0.410	0.530	0.130	100.330	-0.900	0.500																			1580053820.0	10.94	20.26
26/01/2020 15:50:21	26012020	260120	155021	100.460	12.275432	-56.548132	100.620	-0.430	0.500	0.220	100.500	-0.800	0.500																			1580053821.0	10.70	19.82
26/01/2020 15:50:22	26012020	260120	155022	100.650	12.275420	-56.548080	100.900	-0.260	0.370	0.220	100.700	-0.900	0.600																			1580053822.0	11.01	20.39
26/01/2020 15:50:23	26012020	260120	155023	100.940	12.275408	-56.548030	101.190	-0.010	0.140	0.160	101.000	-1.100	0.500																			1580053823.0	11.25	20.84
26/01/2020 15:50:24	26012020	260120	155024	101.220	12.275398	-56.547978	101.270	0.290	-0.340	0.230	101.250	-1.500	0.500																			1580053824.0	11.07	20.50
26/01/2020 15:50:25	26012020	260120	155025	101.270	12.275388	-56.547927	101.170	0.570	-0.860	0.270	101.260	-2.100	0.600																			1580053825.0	11.05	20.46
26/01/2020 15:50:26	26012020	260120	155026	101.160	12.275378	-56.547873	100.930	0.680	-1.080	0.470	101.120	-2.400	0.700																			1580053826.0	11.24	20.82
26/01/2020 15:50:27	26012020	260120	155027	100.900	12.275370	-56.547822	100.580	0.540	-0.870	0.740	100.840	-2.300	1.000																			1580053827.0	11.34	21.00
26/01/2020 15:50:28	26012020	260120	155028	100.550	12.275360	-56.547772	100.290	0.240	-0.550	0.760	100.480	-2.000	1.100																			1580053828.0	11.10	20.56
26/01/2020 15:50:29	26012020	260120	155029	100.270	12.275352	-56.547720	100.160	-0.010	-0.430	0.740	100.230	-1.800	1.100																			1580053829.0	10.83	20.06
26/01/2020 15:50:30	26012020	260120	155030	100.150	12.275340	-56.547668	100.110	-0.190	-0.380	0.740	100.130	-1.800	1.100																			1580053830.0	10.96	20.30
26/01/2020 15:50:31	26012020	260120	155031	100.110	12.275328	-56.547615	100.120	-0.390	-0.130	0.660	100.110	-1.600	1.000																			1580053831.0	11.36	21.04
26/01/2020 15:50:32	26012020	260120	155032	100.110	12.275317	-56.547563	100.160	-0.580	0.290	0.580	100.120	-1.200	0.900																			1580053832.0	11.48	21.26
26/01/2020 15:50:33	26012020	260120	155033	100.160	12.275305	-56.547513	100.260	-0.660	0.550	0.450	100.170	-0.900	0.900																			1580053833.0	11.21	20.76
26/01/2020 15:50:34	26012020	260120	155034	100.270	12.275293	-56.547462	100.430	-0.590	0.420	0.190	100.310	-0.900	0.600																			1580053834.0	10.95	20.28
26/01/2020 15:50:35	26012020	260120	155035	100.450	12.275283	-56.547410	100.570	-0.330	-0.060	-0.050	100.490	-1.200	0.400																			1580053835.0	10.99	20.35
26/01/2020 15:50:36	26012020	260120	155036	100.590	12.275275	-56.547357	100.670	0.080	-0.540	-0.090	100.610	-1.800	0.300																			1580053836.0	11.25	20.84
26/01/2020 15:50:37	26012020	260120	155037	100.700	12.275265	-56.547303	100.810	0.460	-0.720	0.010	100.720	-2.100	0.300																			1580053837.0	11.48	21.26
26/01/2020 15:50:38	26012020	260120	155038	100.840	12.275253	-56.547252	100.880	0.660	-0.630	0.200	100.860	-2.000	0.500																			1580053838.0	11.41	21.13
26/01/2020 15:50:39	26012020	260120	155039	100.890	12.275243	-56.547202	100.760	0.640	-0.450	0.390	100.880	-1.900	0.700																			1580053839.0	11.10	20.56
26/01/2020 15:50:40	26012020	260120	155040	100.750	12.275233	-56.547152	100.540	0.510	-0.340	0.480	100.700	-1.700	0.800																			1580053840.0	10.91	20.21
26/01/2020 15:50:41	26012020	260120	155041	100.530	12.275225	-56.547100	100.470	0.370	-0.270	0.370	100.500	-1.700	0.800																			1580053841.0	10.91	20.21
26/01/2020 15:50:42	26012020	260120	155042	100.480	12.275218	-56.547047	100.580	0.140	-0.200	0.250	100.500	-1.600	0.600																			1580053842.0	11.06	20.48
26/01/2020 15:50:43	26012020	260120	155043	100.590	12.275208	-56.546995	100.660	-0.240	-0.110	0.270	100.610	-1.500	0.600																			1580053843.0	11.17	20.69
26/01/2020 15:50:44	26012020	260120	155044	100.660	12.275198	-56.546943	100.580	-0.650	-0.090	0.530	100.660	-1.400	0.800																			1580053844.0	11.16	20.67
26/01/2020 15:50:45	26012020	260120	155045	100.550	12.275185	-56.546893	100.430	-0.830	-0.230	0.860	100.510	-1.500	1.100																			1580053845.0	11.11	20.58
26/01/2020 15:50:46	26012020	260120	155046	100.400	12.275170	-56.546842	100.450	-0.650	-0.510	0.920	100.390	-1.800	1.300																			1580053846.0	11.18	20.71
26/01/2020 15:50:47	26012020	260120	155047	100.430	12.275158	-56.546788	100.610	-0.260	-0.630	0.660	100.460	-2.000	1.100																			1580053847.0	11.40	21.11
26/01/2020 15:50:48	26012020	260120	155048	100.610	12.275147	-56.546735	100.720	0.080	-0.370	0.270	100.640	-1.900	0.800																			1580053848.0	11.57	21.43
26/01/2020 15:50:49	26012020	260120	155049	100.710	12.275137	-56.546683	100.710	0.230	0.080	-0.020	100.720	-1.400	0.400																			1580053849.0	11.42	21.15
26/01/2020 15:50:50	26012020	260120	155050	100.700	12.275128	-56.546633	100.680	0.280	0.210	-0.130	100.690	-1.200	0.200																			1580053850.0	10.97	20.32
26/01/2020 15:50:51	26012020	260120	155051	100.680	12.275120	-56.546582	100.710	0.370	-0.110	-0.120	100.680	-1.300	0.200																			1580053851.0	10.76	19.93
26/01/2020 15:50:52	26012020	260120	155052	100.720	12.275112	-56.546528	100.790	0.480	-0.520	-0.040	100.730	-1.800	0.300																			1580053852.0	11.11	20.58
26/01/2020 15:50:53	26012020	260120	155053	100.800	12.275102	-56.546475	100.860	0.470	-0.510	0.200	100.820	-2.000	0.500																			1580053853.0	11.54	21.37
26/01/2020 15:50:54	26012020	260120	155054	100.860	12.275092	-56.546423	100.870	0.190	-0.030	0.480	100.870	-1.600	0.700																			1580053854.0	11.59	21.46
26/01/2020 15:50:55	26012020	260120	155055	100.860	12.275080	-56.546375	100.850	-0.220	0.350	0.610	100.840	-1.100	0.900																			1580053855.0	11.06	20.48
26/01/2020 15:50:56	26012020	260120	155056	100.840	12.275070	-56.546327	100.900	-0.440	0.170	0.520	100.850	-1.100	0.900																			1580053856.0	10.51	19.46
26/01/2020 15:50:57	26012020	260120	155057	100.890	12.275060	-56.546273	100.970	-0.310	-0.520	0.360	100.910	-1.600	0.800																			1580053857.0	10.61	19.65
26/01/2020 15:50:58	26012020	260120	155058	100.970	12.275050	-56.546220	100.970	-0.010	-1.080	0.230	100.980	-2.300	0.600																			1580053858.0	11.23	20.80
26/01/2020 15:50:59	26012020	260120	155059	100.960	12.275038	-56.546165	100.880	0.100	-0.940	0.220	100.940	-2.400	0.600	1015.80	26.40	26.40	18.90	18.90	897.00	63.00	63.00	367.00	29.70	352.00	9.10	79.00	3.60	65435	3164.00	27.60	27.60	1580053859.0	11.78	21.82
26/01/2020 15:51:00	26012020	260120	155100	100.860	12.275027	-56.546115	100.750	-0.020	-0.430	0.400	100.830	-2.000	0.700																			1580053860.0	11.65	21.58
26/01/2020 15:51:01	26012020	260120	155101	100.730	12.275017	-56.546065	100.660	-0.110	-0.210	0.620	100.700	-1.600	0.900																			1580053861.0	10.93	20.24
26/01/2020 15:51:02	26012020	260120	155102	100.640	12.275005	-56.546013	100.600	-0.020	-0.360	0.760	100.620	-1.700	1.100																			1580053862.0	10.73	19.87
26/01/2020 15:51:03	26012020	260120	155103	100.570	12.274992	-56.545960	100.520	0.090	-0.360	0.780	100.550	-1.800	1.100																			1580053863.0	11.23	20.80
26/01/2020 15:51:04	26012020	260120	155104	100.490	12.274982	-56.545907	100.520	0.010	0.130	0.670	100.480	-1.500	1.100																			1580053864.0	11.68	21.63
26/01/2020 15:51:05	26012020	260120	155105	100.510	12.274972	-56.545857	100.710	-0.200	0.680	0.450	100.540	-0.900	0.900																			1580053865.0	11.43	21.17
26/01/2020 15:51:06	26012020	260120	155106	100.720	12.274962	-56.545808	100.970	-0.260	0.640	0.140	100.770	-0.600	0.600																			1580053866.0	10.76	19.93
26/01/2020 15:51:07	26012020	260120	155107	100.990	12.274953	-56.545757	101.210	-0.030	-0.040	-0.120	101.050	-1.100	0.300																			1580053867.0	10.58	19.59
26/01/2020 15:51:08	26012020	260120	155108	101.240	12.274945	-56.545702	101.350	0.310	-0.680	-0.100	101.270	-1.900	0.200																			1580053868.0	11.13	20.61
26/01/2020 15:51:09	26012020	260120	155109	101.360	12.274935	-56.545648	101.370	0.460	-0.760	0.090	101.370	-2.200	0.400																			1580053869.0	11.71	21.69
26/01/2020 15:51:10	26012020	260120	155110	101.370	12.274923	-56.545598	101.360	0.340	-0.530	0.200	101.370	-2.000	0.500																			1580053870.0	11.50	21.30
26/01/2020 15:51:11	26012020	260120	155111	101.360	12.274913	-56.545548	101.310	0.090	-0.400	0.380	101.350	-1.800	0.700																			1580053871.0	10.92	20.22
26/01/2020 15:51:12	26012020	260120	155112	101.290	12.274902	-56.545498	101.160	-0.080	-0.490	0.470	101.270	-1.800	0.800																			1580053872.0	10.69	19.80
26/01/2020 15:51:13	26012020	260120	155113	101.140	12.274892	-56.545447	100.910	-0.010	-0.710	0.370	101.090	-2.000	0.800																			1580053873.0	10.90	20.19
26/01/2020 15:51:14	26012020	260120	155114	100.880	12.274882	-56.545392	100.680	0.130	-0.740	0.250	100.820	-2.100	0.600																			1580053874.0	11.27	20.87
26/01/2020 15:51:15	26012020	260120	155115	100.660	12.274872	-56.545340	100.570	0.080	-0.400	0.110	100.640	-1.900	0.500																			1580053875.0	11.54	21.37
26/01/2020 15:51:16	26012020	260120	155116	100.560	12.274862	-56.545288	100.560	-0.190	0.100	0.100	100.560	-1.400	0.400																			1580053876.0	11.43	21.17
26/01/2020 15:51:17	26012020	260120	155117	100.560	12.274850	-56.545238	100.600	-0.460	0.320	0.220	100.560	-1.100	0.500																			1580053877.0	11.05	20.46
26/01/2020 15:51:18	26012020	260120	155118	100.600	12.274838	-56.545187	100.770	-0.510	0.120	0.360	100.620	-1.200	0.700																			1580053878.0	10.89	20.17
26/01/2020 15:51:19	26012020	260120	155119	100.780	12.274825	-56.545133	101.050	-0.380	-0.070	0.500	100.830	-1.400	0.800																			1580053879.0	11.20	20.74
26/01/2020 15:51:20	26012020	260120	155120	101.060	12.274812	-56.545082	101.260	-0.210	0.010	0.590	101.110	-1.400	0.900																			1580053880.0	11.58	21.45
26/01/2020 15:51:21	26012020	260120	155121	101.250	12.274800	-56.545032	101.290	0.000	0.110	0.590	101.260	-1.300	1.000																			1580053881.0	11.38	21.08
26/01/2020 15:51:22	26012020	260120	155122	101.270	12.274790	-56.544980	101.290	0.330	-0.120	0.430	101.270	-1.400	0.900																			1580053882.0	10.92	20.22
26/01/2020 15:51:23	26012020	260120	155123	101.290	12.274780	-56.544928	101.370	0.640	-0.540	0.070	101.300	-1.800	0.600																			1580053883.0	10.86	20.11
26/01/2020 15:51:24	26012020	260120	155124	101.380	12.274773	-56.544875	101.420	0.660	-0.660	-0.210	101.390	-2.100	0.200																			1580053884.0	11.24	20.82
26/01/2020 15:51:25	26012020	260120	155125	101.430	12.274767	-56.544823	101.370	0.340	-0.410	-0.130	101.430	-1.900	0.100																			1580053885.0	11.45	21.21
26/01/2020 15:51:26	26012020	260120	155126	101.370	12.274757	-56.544773	101.290	-0.010	-0.240	0.230	101.340	-1.600	0.400																			1580053886.0	11.04	20.45
26/01/2020 15:51:27	26012020	260120	155127	101.270	12.274745	-56.544723	101.180	-0.070	-0.600	0.540	101.250	-1.800	0.800																			1580053887.0	10.61	19.65
26/01/2020 15:51:28	26012020	260120	155128	101.150	12.274733	-56.544670	100.970	0.090	-1.060	0.730	101.110	-2.300	1.000																			1580053888.0	10.88	20.15
26/01/2020 15:51:29	26012020	260120	155129	100.930	12.274720	-56.544615	100.680	0.110	-0.910	0.820	100.870	-2.400	1.200																			1580053889.0	11.66	21.59
26/01/2020 15:51:30	26012020	260120	155130	100.640	12.274708	-56.544563	100.510	-0.200	-0.090	0.740	100.600	-1.800	1.100																			1580053890.0	11.87	21.98
26/01/2020 15:51:31	26012020	260120	155131	100.490	12.274698	-56.544515	100.550	-0.620	0.680	0.460	100.480	-0.900	0.900																			1580053891.0	11.26	20.85
26/01/2020 15:51:32	26012020	260120	155132	100.550	12.274688	-56.544465	100.750	-0.830	0.770	0.110	100.590	-0.600	0.600																			1580053892.0	10.55	19.54
26/01/2020 15:51:33	26012020	260120	155133	100.770	12.274677	-56.544413	100.920	-0.660	0.240	-0.040	100.810	-0.900	0.300																			1580053893.0	10.61	19.65
26/01/2020 15:51:34	26012020	260120	155134	100.940	12.274665	-56.544360	101.070	-0.190	-0.390	-0.000	100.970	-1.600	0.300																			1580053894.0	11.22	20.78
26/01/2020 15:51:35	26012020	260120	155135	101.080	12.274653	-56.544307	101.180	0.290	-0.640	0.040	101.110	-2.000	0.400																			1580053895.0	11.71	21.69
26/01/2020 15:51:36	26012020	260120	155136	101.190	12.274642	-56.544255	101.190	0.560	-0.500	0.050	101.200	-2.000	0.400																			1580053896.0	11.67	21.61
26/01/2020 15:51:37	26012020	260120	155137	101.190	12.274633	-56.544203	101.130	0.600	-0.260	0.050	101.180	-1.700	0.400																			1580053897.0	11.19	20.72
26/01/2020 15:51:38	26012020	260120	155138	101.120	12.274625	-56.544153	101.120	0.520	-0.130	0.030	101.120	-1.500	0.400																			1580053898.0	10.81	20.02
26/01/2020 15:51:39	26012020	260120	155139	101.120	12.274617	-56.544103	101.170	0.430	-0.240	0.010	101.130	-1.500	0.400																			1580053899.0	10.77	19.95
26/01/2020 15:51:40	26012020	260120	155140	101.170	12.274608	-56.544050	101.140	0.390	-0.600	0.090	101.180	-1.800	0.400																			1580053900.0	10.88	20.15
26/01/2020 15:51:41	26012020	260120	155141	101.130	12.274598	-56.543997	100.980	0.230	-0.790	0.300	101.100	-2.100	0.600																			1580053901.0	11.21	20.76
26/01/2020 15:51:42	26012020	260120	155142	100.970	12.274587	-56.543945	100.860	-0.180	-0.470	0.690	100.940	-2.000	0.900																			1580053902.0	11.56	21.41
26/01/2020 15:51:43	26012020	260120	155143	100.840	12.274573	-56.543895	100.820	-0.660	0.060	1.030	100.830	-1.500	1.300																			1580053903.0	11.40	21.11
26/01/2020 15:51:44	26012020	260120	155144	100.800	12.274560	-56.543847	100.830	-0.820	0.110	0.990	100.810	-1.200	1.400																			1580053904.0	10.85	20.09
26/01/2020 15:51:45	26012020	260120	155145	100.810	12.274547	-56.543795	100.830	-0.560	-0.310	0.730	100.820	-1.500	1.200																			1580053905.0	10.69	19.80
26/01/2020 15:51:46	26012020	260120	155146	100.820	12.274535	-56.543740	100.870	-0.190	-0.490	0.550	100.830	-1.900	1.000																			1580053906.0	11.34	21.00
26/01/2020 15:51:47	26012020	260120	155147	100.870	12.274523	-56.543687	101.010	-0.020	-0.130	0.280	100.890	-1.700	0.800																			1580053907.0	11.82	21.89
26/01/2020 15:51:48	26012020	260120	155148	101.030	12.274513	-56.543638	101.250	0.050	0.330	-0.090	101.080	-1.200	0.400																			1580053908.0	11.44	21.19
26/01/2020 15:51:49	26012020	260120	155149	101.270	12.274505	-56.543588	101.430	0.240	0.210	-0.340	101.320	-1.000	0.100																			1580053909.0	10.71	19.83
26/01/2020 15:51:50	26012020	260120	155150	101.450	12.274497	-56.543535	101.480	0.560	-0.370	-0.350	101.470	-1.500	-0.000																			1580053910.0	10.59	19.61
26/01/2020 15:51:51	26012020	260120	155151	101.490	12.274487	-56.543482	101.460	0.700	-0.680	-0.120	101.490	-2.000	0.200																			1580053911.0	11.23	20.80
26/01/2020 15:51:52	26012020	260120	155152	101.460	12.274477	-56.543430	101.430	0.530	-0.550	0.180	101.460	-2.000	0.400																			1580053912.0	11.66	21.59
26/01/2020 15:51:53	26012020	260120	155153	101.420	12.274467	-56.543378	101.300	0.200	-0.370	0.530	101.400	-1.800	0.800																			1580053913.0	11.25	20.84
26/01/2020 15:51:54	26012020	260120	155154	101.280	12.274457	-56.543328	101.140	-0.120	-0.350	0.760	101.240	-1.700	1.100																			1580053914.0	10.81	20.02
26/01/2020 15:51:55	26012020	260120	155155	101.120	12.274443	-56.543277	101.110	-0.350	-0.340	0.830	101.100	-1.700	1.200																			1580053915.0	10.90	20.19
26/01/2020 15:51:56	26012020	260120	155156	101.100	12.274432	-56.543227	101.170	-0.520	-0.180	0.820	101.110	-1.600	1.200																			1580053916.0	11.19	20.72
26/01/2020 15:51:57	26012020	260120	155157	101.150	12.274418	-56.543175	101.120	-0.580	-0.060	0.650	101.160	-1.500	1.100																			1580053917.0	11.23	20.80
26/01/2020 15:51:58	26012020	260120	155158	101.100	12.274407	-56.543125	100.970	-0.430	-0.200	0.500	101.070	-1.500	0.900																			1580053918.0	11.03	20.43
26/01/2020 15:51:59	26012020	260120	155159	100.950	12.274395	-56.543072	100.950	-0.100	-0.350	0.220	100.930	-1.700	0.700	1015.70	26.40	26.40	18.80	18.90	877.00	63.00	63.00	367.00	29.70	351.00	9.00	78.00	3.50	64351	3140.00	27.60	27.60	1580053919.0	11.11	20.58
26/01/2020 15:52:00	26012020	260120	155200	100.950	12.274385	-56.543020	101.120	0.210	-0.220	-0.160	100.990	-1.700	0.300																			1580053920.0	11.42	21.15
26/01/2020 15:52:01	26012020	260120	155201	101.140	12.274375	-56.542968	101.250	0.370	-0.060	-0.290	101.180	-1.500	0.100																			1580053921.0	11.34	21.00
26/01/2020 15:52:02	26012020	260120	155202	101.260	12.274367	-56.542917	101.240	0.400	-0.110	-0.200	101.260	-1.500	0.100																			1580053922.0	11.01	20.39
26/01/2020 15:52:03	26012020	260120	155203	101.250	12.274357	-56.542865	101.260	0.320	-0.210	0.030	101.250	-1.600	0.300																			1580053923.0	10.96	20.30
26/01/2020 15:52:04	26012020	260120	155204	101.270	12.274345	-56.542813	101.310	0.190	-0.300	0.340	101.280	-1.600	0.600																			1580053924.0	11.16	20.67
26/01/2020 15:52:05	26012020	260120	155205	101.310	12.274335	-56.542762	101.260	0.130	-0.560	0.590	101.310	-1.800	0.900																			1580053925.0	11.12	20.59
26/01/2020 15:52:06	26012020	260120	155206	101.250	12.274323	-56.542710	101.120	0.070	-0.730	0.820	101.220	-2.100	1.100																			1580053926.0	11.13	20.61
26/01/2020 15:52:07	26012020	260120	155207	101.100	12.274310	-56.542657	101.030	-0.160	-0.360	1.010	101.080	-1.900	1.300																			1580053927.0	11.46	21.22
26/01/2020 15:52:08	26012020	260120	155208	101.010	12.274298	-56.542608	101.020	-0.560	0.260	0.960	101.000	-1.300	1.400																			1580053928.0	11.39	21.09
26/01/2020 15:52:09	26012020	260120	155209	101.000	12.274287	-56.542560	101.010	-0.740	0.340	0.650	101.010	-1.000	1.100																			1580053929.0	10.77	19.95
26/01/2020 15:52:10	26012020	260120	155210	101.000	12.274277	-56.542508	101.000	-0.370	-0.340	0.260	100.990	-1.400	0.800																			1580053930.0	10.46	19.37
26/01/2020 15:52:11	26012020	260120	155211	101.000	12.274265	-56.542453	101.050	0.260	-0.910	0.060	101.010	-2.200	0.500																			1580053931.0	11.14	20.63
26/01/2020 15:52:12	26012020	260120	155212	101.050	12.274253	-56.542398	101.120	0.600	-0.600	-0.030	101.070	-2.200	0.400																			1580053932.0	12.00	22.22
26/01/2020 15:52:13	26012020	260120	155213	101.140	12.274245	-56.542348	101.180	0.510	0.140	-0.070	101.150	-1.500	0.300																			1580053933.0	11.76	21.78
26/01/2020 15:52:14	26012020	260120	155214	101.200	12.274235	-56.542300	101.200	0.240	0.460	0.100	101.200	-1.000	0.400																			1580053934.0	10.73	19.87
26/01/2020 15:52:15	26012020	260120	155215	101.200	12.274225	-56.542250	101.220	0.070	0.110	0.280	101.200	-1.100	0.600																			1580053935.0	10.31	19.09
26/01/2020 15:52:16	26012020	260120	155216	101.220	12.274215	-56.542198	101.310	0.090	-0.480	0.290	101.240	-1.700	0.700																			1580053936.0	10.77	19.95
26/01/2020 15:52:17	26012020	260120	155217	101.330	12.274205	-56.542143	101.460	0.130	-0.760	0.320	101.360	-2.100	0.600																			1580053937.0	11.40	21.11
26/01/2020 15:52:18	26012020	260120	155218	101.470	12.274195	-56.542092	101.480	-0.080	-0.540	0.620	101.490	-2.000	0.900																			1580053938.0	11.59	21.46
26/01/2020 15:52:19	26012020	260120	155219	101.460	12.274182	-56.542043	101.240	-0.460	-0.280	0.920	101.430	-1.700	1.200																			1580053939.0	11.23	20.80
26/01/2020 15:52:20	26012020	260120	155220	101.180	12.274168	-56.541993	100.880	-0.630	-0.350	1.030	101.120	-1.700	1.400																			1580053940.0	10.73	19.87
26/01/2020 15:52:21	26012020	260120	155221	100.830	12.274155	-56.541942	100.710	-0.400	-0.650	0.860	100.780	-1.900	1.300																			1580053941.0	10.82	20.04
26/01/2020 15:52:22	26012020	260120	155222	100.680	12.274145	-56.541887	100.710	-0.030	-0.740	0.510	100.680	-2.200	1.000																			1580053942.0	11.32	20.96
26/01/2020 15:52:23	26012020	260120	155223	100.710	12.274135	-56.541835	100.710	0.130	-0.300	0.240	100.710	-1.900	0.700																			1580053943.0	11.66	21.59
26/01/2020 15:52:24	26012020	260120	155224	100.710	12.274123	-56.541783	100.620	0.070	0.360	0.210	100.700	-1.300	0.500																			1580053944.0	11.46	21.22
26/01/2020 15:52:25	26012020	260120	155225	100.610	12.274113	-56.541735	100.510	0.020	0.610	0.310	100.570	-0.800	0.700																			1580053945.0	10.84	20.08
26/01/2020 15:52:26	26012020	260120	155226	100.510	12.274103	-56.541683	100.600	0.140	0.290	0.170	100.510	-0.900	0.600																			1580053946.0	10.60	19.63
26/01/2020 15:52:27	26012020	260120	155227	100.620	12.274095	-56.541630	100.850	0.400	-0.230	-0.110	100.670	-1.400	0.300																			1580053947.0	10.99	20.35
26/01/2020 15:52:28	26012020	260120	155228	100.890	12.274087	-56.541577	101.110	0.550	-0.410	-0.160	100.940	-1.800	0.200																			1580053948.0	11.47	21.24
26/01/2020 15:52:29	26012020	260120	155229	101.140	12.274078	-56.541525	101.230	0.350	-0.130	0.070	101.170	-1.700	0.300																			1580053949.0	11.52	21.34
26/01/2020 15:52:30	26012020	260120	155230	101.240	12.274067	-56.541477	101.180	-0.110	0.100	0.440	101.230	-1.300	0.700																			1580053950.0	11.02	20.41
26/01/2020 15:52:31	26012020	260120	155231	101.180	12.274057	-56.541430	101.050	-0.340	-0.390	0.710	101.160	-1.500	1.000																			1580053951.0	10.39	19.24
26/01/2020 15:52:32	26012020	260120	155232	101.030	12.274045	-56.541377	100.800	-0.080	-1.350	0.830	100.990	-2.400	1.200																			1580053952.0	10.45	19.35
26/01/2020 15:52:33	26012020	260120	155233	100.760	12.274033	-56.541322	100.510	0.140	-1.620	0.810	100.710	-3.000	1.200																			1580053953.0	11.40	21.11
26/01/2020 15:52:34	26012020	260120	155234	100.470	12.274022	-56.541268	100.270	-0.080	-0.920	0.820	100.420	-2.600	1.200																			1580053954.0	12.06	22.34
26/01/2020 15:52:35	26012020	260120	155235	100.250	12.274010	-56.541220	100.170	-0.540	0.030	0.840	100.210	-1.700	1.200																			1580053955.0	11.39	21.09
26/01/2020 15:52:36	26012020	260120	155236	100.150	12.273998	-56.541172	100.180	-0.750	0.470	0.740	100.150	-1.000	1.200																			1580053956.0	10.53	19.50
26/01/2020 15:52:37	26012020	260120	155237	100.180	12.273987	-56.541120	100.190	-0.480	0.240	0.480	100.180	-1.000	1.000																			1580053957.0	10.48	19.41
26/01/2020 15:52:38	26012020	260120	155238	100.190	12.273977	-56.541067	100.240	0.030	-0.000	0.170	100.200	-1.400	0.600																			1580053958.0	11.14	20.63
26/01/2020 15:52:39	26012020	260120	155239	100.260	12.273967	-56.541012	100.440	0.360	0.200	0.000	100.290	-1.300	0.400																			1580053959.0	11.79	21.84
26/01/2020 15:52:40	26012020	260120	155240	100.480	12.273958	-56.540962	100.740	0.340	0.580	-0.160	100.540	-0.900	0.300																			1580053960.0	11.59	21.46
26/01/2020 15:52:41	26012020	260120	155241	100.780	12.273950	-56.540913	100.960	0.170	0.540	-0.210	100.840	-0.800	0.100																			1580053961.0	10.87	20.13
26/01/2020 15:52:42	26012020	260120	155242	100.990	12.273942	-56.540862	101.090	0.130	-0.080	0.050	101.020	-1.200	0.300																			1580053962.0	10.46	19.37
26/01/2020 15:52:43	26012020	260120	155243	101.120	12.273932	-56.540810	101.200	0.250	-0.850	0.440	101.140	-2.000	0.700																			1580053963.0	10.77	19.95
26/01/2020 15:52:44	26012020	260120	155244	101.210	12.273920	-56.540757	101.130	0.420	-1.380	0.720	101.210	-2.600	1.000																			1580053964.0	11.27	20.87
26/01/2020 15:52:45	26012020	260120	155245	101.120	12.273910	-56.540705	100.820	0.460	-1.370	0.930	101.070	-2.800	1.200																			1580053965.0	11.41	21.13
26/01/2020 15:52:46	26012020	260120	155246	100.780	12.273898	-56.540655	100.480	0.220	-0.820	1.010	100.700	-2.400	1.400																			1580053966.0	11.31	20.95
26/01/2020 15:52:47	26012020	260120	155247	100.450	12.273888	-56.540605	100.340	-0.190	-0.150	0.790	100.420	-1.800	1.200																			1580053967.0	10.96	20.30
26/01/2020 15:52:48	26012020	260120	155248	100.340	12.273878	-56.540557	100.320	-0.550	0.220	0.530	100.330	-1.300	1.000																			1580053968.0	10.59	19.61
26/01/2020 15:52:49	26012020	260120	155249	100.330	12.273868	-56.540505	100.380	-0.740	0.170	0.310	100.340	-1.200	0.700																			1580053969.0	10.63	19.69
26/01/2020 15:52:50	26012020	260120	155250	100.400	12.273858	-56.540452	100.450	-0.660	-0.120	0.350	100.420	-1.400	0.700																			1580053970.0	11.02	20.41
26/01/2020 15:52:51	26012020	260120	155251	100.470	12.273845	-56.540400	100.500	-0.360	-0.340	0.550	100.480	-1.700	0.800																			1580053971.0	11.40	21.11
26/01/2020 15:52:52	26012020	260120	155252	100.510	12.273832	-56.540347	100.540	-0.030	-0.250	0.560	100.520	-1.700	0.900																			1580053972.0	11.60	21.48
26/01/2020 15:52:53	26012020	260120	155253	100.550	12.273820	-56.540295	100.610	0.150	0.050	0.400	100.560	-1.500	0.800																			1580053973.0	11.49	21.28
26/01/2020 15:52:54	26012020	260120	155254	100.620	12.273810	-56.540245	100.720	0.240	0.260	0.120	100.650	-1.200	0.600																			1580053974.0	11.10	20.56
26/01/2020 15:52:55	26012020	260120	155255	100.750	12.273803	-56.540195	100.860	0.410	0.130	-0.230	100.780	-1.200	0.300																			1580053975.0	10.77	19.95
26/01/2020 15:52:56	26012020	260120	155256	100.900	12.273797	-56.540142	101.010	0.620	-0.250	-0.390	100.930	-1.500	-0.000																			1580053976.0	10.82	20.04
26/01/2020 15:52:57	26012020	260120	155257	101.050	12.273790	-56.540090	101.110	0.640	-0.550	-0.160	101.070	-1.900	0.100																			1580053977.0	11.14	20.63
26/01/2020 15:52:58	26012020	260120	155258	101.140	12.273780	-56.540038	101.180	0.350	-0.530	0.200	101.160	-2.000	0.400																			1580053978.0	11.33	20.98
26/01/2020 15:52:59	26012020	260120	155259	101.200	12.273768	-56.539988	101.170	-0.090	-0.380	0.620	101.200	-1.800	0.800	1015.70	26.40	26.40	19.10	19.10	845.00	64.00	64.00	367.00	29.60	351.00	9.20	77.00	3.60	62673	3198.00	27.60	27.60	1580053979.0	11.15	20.65
26/01/2020 15:53:00	26012020	260120	155300	101.170	12.273757	-56.539938	101.100	-0.410	-0.450	1.010	101.150	-1.800	1.200																			1580053980.0	10.77	19.95
26/01/2020 15:53:01	26012020	260120	155301	101.070	12.273742	-56.539888	100.950	-0.430	-0.660	1.250	101.050	-2.000	1.500																			1580053981.0	10.73	19.87
26/01/2020 15:53:02	26012020	260120	155302	100.900	12.273728	-56.539837	100.680	-0.250	-0.710	1.240	100.860	-2.100	1.600																			1580053982.0	11.11	20.58
26/01/2020 15:53:03	26012020	260120	155303	100.640	12.273717	-56.539783	100.490	-0.080	-0.590	0.900	100.590	-2.000	1.400																			1580053983.0	11.38	21.08
26/01/2020 15:53:04	26012020	260120	155304	100.470	12.273707	-56.539732	100.470	-0.070	-0.310	0.460	100.460	-1.800	1.000																			1580053984.0	11.34	21.00
26/01/2020 15:53:05	26012020	260120	155305	100.480	12.273698	-56.539680	100.550	-0.160	0.060	0.100	100.490	-1.500	0.600																			1580053985.0	11.23	20.80
26/01/2020 15:53:06	26012020	260120	155306	100.560	12.273688	-56.539630	100.650	-0.220	0.380	-0.080	100.580	-1.100	0.300																			1580053986.0	11.10	20.56
26/01/2020 15:53:07	26012020	260120	155307	100.670	12.273678	-56.539578	100.800	-0.230	0.560	0.000	100.700	-0.900	0.300																			1580053987.0	10.96	20.30
26/01/2020 15:53:08	26012020	260120	155308	100.820	12.273668	-56.539528	101.020	-0.120	0.390	0.140	100.870	-0.900	0.500																			1580053988.0	10.93	20.24
26/01/2020 15:53:09	26012020	260120	155309	101.050	12.273658	-56.539477	101.230	0.210	-0.220	0.190	101.090	-1.400	0.500																			1580053989.0	10.90	20.19
26/01/2020 15:53:10	26012020	260120	155310	101.230	12.273647	-56.539423	101.310	0.620	-0.900	0.260	101.260	-2.100	0.600																			1580053990.0	11.10	20.56
26/01/2020 15:53:11	26012020	260120	155311	101.300	12.273637	-56.539370	101.310	0.740	-1.050	0.320	101.310	-2.500	0.700																			1580053991.0	11.53	21.35
26/01/2020 15:53:12	26012020	260120	155312	101.290	12.273628	-56.539318	101.250	0.420	-0.470	0.440	101.280	-2.100	0.800																			1580053992.0	11.61	21.50
26/01/2020 15:53:13	26012020	260120	155313	101.230	12.273618	-56.539270	101.180	-0.100	0.220	0.500	101.220	-1.400	0.900																			1580053993.0	11.01	20.39
26/01/2020 15:53:14	26012020	260120	155314	101.160	12.273608	-56.539223	101.080	-0.320	0.050	0.420	101.140	-1.200	0.800																			1580053994.0	10.24	18.96
26/01/2020 15:53:15	26012020	260120	155315	101.060	12.273598	-56.539170	100.950	-0.130	-0.820	0.420	101.040	-1.900	0.800																			1580053995.0	10.24	18.96
26/01/2020 15:53:16	26012020	260120	155316	100.920	12.273585	-56.539115	100.800	0.070	-1.200	0.480	100.880	-2.600	0.800																			1580053996.0	11.38	21.08
26/01/2020 15:53:17	26012020	260120	155317	100.770	12.273573	-56.539062	100.660	-0.070	-0.560	0.540	100.730	-2.300	0.900																			1580053997.0	12.16	22.52
26/01/2020 15:53:18	26012020	260120	155318	100.620	12.273562	-56.539012	100.570	-0.480	0.370	0.560	100.600	-1.300	0.900																			1580053998.0	11.59	21.46
26/01/2020 15:53:19	26012020	260120	155319	100.550	12.273552	-56.538965	100.620	-0.720	0.630	0.390	100.550	-0.700	0.800																			1580053999.0	10.54	19.52
26/01/2020 15:53:20	26012020	260120	155320	100.620	12.273540	-56.538913	100.840	-0.530	0.200	0.040	100.660	-1.000	0.500																			1580054000.0	10.31	19.09
26/01/2020 15:53:21	26012020	260120	155321	100.870	12.273530	-56.538860	101.140	-0.070	-0.220	-0.170	100.930	-1.500	0.200																			1580054001.0	11.05	20.46
26/01/2020 15:53:22	26012020	260120	155322	101.160	12.273518	-56.538807	101.350	0.300	-0.270	-0.120	101.210	-1.700	0.200																			1580054002.0	11.64	21.56
26/01/2020 15:53:23	26012020	260120	155323	101.360	12.273508	-56.538757	101.430	0.400	-0.100	0.000	101.380	-1.500	0.300																			1580054003.0	11.45	21.21
26/01/2020 15:53:24	26012020	260120	155324	101.430	12.273498	-56.538707	101.440	0.390	-0.100	0.100	101.430	-1.400	0.400																			1580054004.0	10.93	20.24
26/01/2020 15:53:25	26012020	260120	155325	101.430	12.273490	-56.538657	101.350	0.480	-0.470	0.230	101.420	-1.700	0.500																			1580054005.0	10.59	19.61
26/01/2020 15:53:26	26012020	260120	155326	101.320	12.273480	-56.538605	101.100	0.640	-0.970	0.380	101.280	-2.200	0.700																			1580054006.0	10.80	20.00
26/01/2020 15:53:27	26012020	260120	155327	101.060	12.273470	-56.538552	100.810	0.590	-1.140	0.580	100.990	-2.500	0.900																			1580054007.0	11.28	20.89
26/01/2020 15:53:28	26012020	260120	155328	100.770	12.273460	-56.538498	100.630	0.160	-0.700	0.870	100.720	-2.300	1.100																			1580054008.0	11.55	21.39
26/01/2020 15:53:29	26012020	260120	155329	100.600	12.273448	-56.538448	100.580	-0.510	0.060	1.080	100.570	-1.600	1.400																			1580054009.0	11.32	20.96
26/01/2020 15:53:30	26012020	260120	155330	100.540	12.273437	-56.538402	100.570	-1.020	0.530	1.140	100.540	-1.000	1.500																			1580054010.0	10.74	19.89
26/01/2020 15:53:31	26012020	260120	155331	100.540	12.273422	-56.538352	100.610	-1.070	0.390	1.060	100.540	-0.900	1.500																			1580054011.0	10.52	19.48
26/01/2020 15:53:32	26012020	260120	155332	100.570	12.273408	-56.538300	100.700	-0.660	-0.110	0.750	100.590	-1.300	1.200																			1580054012.0	10.88	20.15
26/01/2020 15:53:33	26012020	260120	155333	100.680	12.273395	-56.538245	100.770	-0.070	-0.440	0.260	100.700	-1.800	0.800																			1580054013.0	11.47	21.24
26/01/2020 15:53:34	26012020	260120	155334	100.760	12.273387	-56.538192	100.870	0.370	-0.270	-0.160	100.780	-1.800	0.300																			1580054014.0	11.71	21.69
26/01/2020 15:53:35	26012020	260120	155335	100.880	12.273378	-56.538142	101.060	0.570	0.030	-0.400	100.910	-1.400	0.000																			1580054015.0	11.37	21.06
26/01/2020 15:53:36	26012020	260120	155336	101.090	12.273372	-56.538092	101.300	0.620	-0.040	-0.450	101.140	-1.400	-0.100																			1580054016.0	10.76	19.93
26/01/2020 15:53:37	26012020	260120	155337	101.320	12.273365	-56.538042	101.390	0.540	-0.380	-0.140	101.340	-1.600	0.100																			1580054017.0	10.62	19.67
26/01/2020 15:53:38	26012020	260120	155338	101.380	12.273353	-56.537988	101.290	0.370	-0.680	0.390	101.370	-2.000	0.600																			1580054018.0	11.02	20.41
26/01/2020 15:53:39	26012020	260120	155339	101.260	12.273342	-56.537937	101.080	0.200	-0.760	0.880	101.210	-2.200	1.100																			1580054019.0	11.23	20.80
26/01/2020 15:53:40	26012020	260120	155340	101.030	12.273330	-56.537887	100.930	0.040	-0.600	1.160	100.990	-2.100	1.400																			1580054020.0	11.21	20.76
26/01/2020 15:53:41	26012020	260120	155341	100.880	12.273318	-56.537835	100.830	-0.210	-0.360	1.160	100.860	-1.800	1.500																			1580054021.0	11.09	20.54
26/01/2020 15:53:42	26012020	260120	155342	100.780	12.273307	-56.537785	100.660	-0.490	-0.160	1.020	100.750	-1.600	1.400																			1580054022.0	10.97	20.32
26/01/2020 15:53:43	26012020	260120	155343	100.610	12.273295	-56.537735	100.440	-0.620	0.010	0.900	100.570	-1.400	1.300																			1580054023.0	11.00	20.37
26/01/2020 15:53:44	26012020	260120	155344	100.400	12.273283	-56.537683	100.350	-0.480	0.010	0.620	100.370	-1.400	1.100																			1580054024.0	11.06	20.48
26/01/2020 15:53:45	26012020	260120	155345	100.330	12.273273	-56.537632	100.410	-0.130	-0.160	0.230	100.340	-1.500	0.700																			1580054025.0	11.11	20.58
26/01/2020 15:53:46	26012020	260120	155346	100.400	12.273263	-56.537578	100.580	0.210	-0.200	-0.070	100.430	-1.600	0.400																			1580054026.0	11.29	20.91
26/01/2020 15:53:47	26012020	260120	155347	100.590	12.273255	-56.537525	100.830	0.350	-0.090	-0.160	100.640	-1.500	0.200																			1580054027.0	11.44	21.19
26/01/2020 15:53:48	26012020	260120	155348	100.840	12.273245	-56.537475	101.010	0.350	-0.050	0.010	100.890	-1.400	0.300																			1580054028.0	11.14	20.63
26/01/2020 15:53:49	26012020	260120	155349	101.010	12.273233	-56.537425	101.030	0.250	-0.070	0.300	101.020	-1.500	0.600																			1580054029.0	10.91	20.21
26/01/2020 15:53:50	26012020	260120	155350	101.010	12.273223	-56.537373	101.000	0.090	-0.120	0.580	101.000	-1.500	0.800																			1580054030.0	10.96	20.30
26/01/2020 15:53:51	26012020	260120	155351	100.970	12.273212	-56.537323	100.960	-0.010	-0.340	0.690	100.970	-1.600	1.000																			1580054031.0	10.94	20.26
26/01/2020 15:53:52	26012020	260120	155352	100.930	12.273202	-56.537272	100.930	0.040	-0.650	0.550	100.930	-1.900	1.000																			1580054032.0	10.90	20.19
26/01/2020 15:53:53	26012020	260120	155353	100.920	12.273193	-56.537220	100.930	0.090	-0.730	0.400	100.920	-2.100	0.800																			1580054033.0	11.12	20.59
26/01/2020 15:53:54	26012020	260120	155354	100.900	12.273183	-56.537168	100.800	0.020	-0.550	0.480	100.890	-2.000	0.800																			1580054034.0	11.28	20.89
26/01/2020 15:53:55	26012020	260120	155355	100.760	12.273172	-56.537118	100.580	-0.130	-0.320	0.660	100.720	-1.800	1.000																			1580054035.0	11.10	20.56
26/01/2020 15:53:56	26012020	260120	155356	100.530	12.273160	-56.537067	100.390	-0.180	-0.340	0.810	100.490	-1.700	1.100																			1580054036.0	10.91	20.21
26/01/2020 15:53:57	26012020	260120	155357	100.350	12.273150	-56.537015	100.350	-0.080	-0.470	0.850	100.330	-1.800	1.200																			1580054037.0	10.98	20.33
26/01/2020 15:53:58	26012020	260120	155358	100.320	12.273138	-56.536962	100.430	0.020	-0.330	0.740	100.340	-1.800	1.100																			1580054038.0	11.38	21.08
26/01/2020 15:53:59	26012020	260120	155359	100.410	12.273128	-56.536910	100.510	-0.020	0.030	0.590	100.430	-1.500	1.000	1015.80	26.30	26.40	18.90	19.00	762.00	63.00	63.00	366.00	29.50	350.00	9.00	74.00	3.50	58607	3232.00	27.60	27.60	1580054039.0	11.52	21.34
26/01/2020 15:54:00	26012020	260120	155400	100.500	12.273118	-56.536858	100.560	-0.140	0.310	0.560	100.510	-1.200	0.900																			1580054040.0	11.21	20.76
26/01/2020 15:54:01	26012020	260120	155401	100.540	12.273108	-56.536808	100.610	-0.220	0.400	0.490	100.550	-1.000	0.900																			1580054041.0	10.94	20.26
26/01/2020 15:54:02	26012020	260120	155402	100.590	12.273098	-56.536757	100.680	-0.150	0.210	0.310	100.600	-1.100	0.700																			1580054042.0	10.94	20.26
26/01/2020 15:54:03	26012020	260120	155403	100.670	12.273088	-56.536705	100.860	0.120	-0.260	0.080	100.710	-1.500	0.500																			1580054043.0	11.00	20.37
26/01/2020 15:54:04	26012020	260120	155404	100.870	12.273080	-56.536652	101.160	0.320	-0.520	-0.040	100.930	-1.900	0.300																			1580054044.0	11.20	20.74
26/01/2020 15:54:05	26012020	260120	155405	101.180	12.273070	-56.536600	101.350	0.210	-0.320	0.030	101.230	-1.800	0.400																			1580054045.0	11.44	21.19
26/01/2020 15:54:06	26012020	260120	155406	101.340	12.273058	-56.536552	101.160	-0.010	-0.190	0.280	101.320	-1.600	0.500																			1580054046.0	11.06	20.48
26/01/2020 15:54:07	26012020	260120	155407	101.110	12.273048	-56.536503	100.760	0.080	-0.680	0.550	101.030	-1.800	0.800																			1580054047.0	10.46	19.37
26/01/2020 15:54:08	26012020	260120	155408	100.710	12.273038	-56.536448	100.550	0.400	-1.350	0.510	100.650	-2.600	0.900																			1580054048.0	10.66	19.74
26/01/2020 15:54:09	26012020	260120	155409	100.530	12.273030	-56.536393	100.590	0.430	-1.240	0.340	100.530	-2.800	0.700																			1580054049.0	11.58	21.45
26/01/2020 15:54:10	26012020	260120	155410	100.570	12.273022	-56.536342	100.620	-0.070	-0.180	0.390	100.590	-2.000	0.700																			1580054050.0	11.94	22.11
26/01/2020 15:54:11	26012020	260120	155411	100.600	12.273010	-56.536295	100.590	-0.710	0.800	0.670	100.590	-0.900	0.900																			1580054051.0	11.12	20.59
26/01/2020 15:54:12	26012020	260120	155412	100.560	12.272997	-56.536247	100.640	-0.870	0.660	0.840	100.560	-0.600	1.200																			1580054052.0	10.14	18.78
26/01/2020 15:54:13	26012020	260120	155413	100.620	12.272983	-56.536193	100.750	-0.460	-0.120	0.700	100.650	-1.300	1.100																			1580054053.0	10.39	19.24
26/01/2020 15:54:14	26012020	260120	155414	100.730	12.272972	-56.536138	100.880	0.060	-0.450	0.350	100.760	-1.800	0.800																			1580054054.0	11.63	21.54
26/01/2020 15:54:15	26012020	260120	155415	100.880	12.272963	-56.536085	101.090	0.300	-0.150	-0.020	100.920	-1.700	0.500																			1580054055.0	12.09	22.39
26/01/2020 15:54:16	26012020	260120	155416	101.110	12.272957	-56.536035	101.340	0.280	0.140	-0.210	101.160	-1.300	0.200																			1580054056.0	11.36	21.04
26/01/2020 15:54:17	26012020	260120	155417	101.370	12.272948	-56.535987	101.580	0.190	0.080	-0.300	101.420	-1.300	0.100																			1580054057.0	10.61	19.65
26/01/2020 15:54:18	26012020	260120	155418	101.600	12.272940	-56.535935	101.690	0.100	-0.230	-0.080	101.630	-1.500	0.100																			1580054058.0	10.63	19.69
26/01/2020 15:54:19	26012020	260120	155419	101.690	12.272928	-56.535883	101.630	0.100	-0.610	0.390	101.680	-1.900	0.600																			1580054059.0	10.93	20.24
26/01/2020 15:54:20	26012020	260120	155420	101.610	12.272915	-56.535832	101.440	0.220	-0.930	0.690	101.570	-2.200	1.000																			1580054060.0	11.10	20.56
26/01/2020 15:54:21	26012020	260120	155421	101.400	12.272903	-56.535780	101.170	0.270	-0.980	0.740	101.350	-2.400	1.100																			1580054061.0	11.20	20.74
26/01/2020 15:54:22	26012020	260120	155422	101.120	12.272893	-56.535728	100.960	0.050	-0.590	0.660	101.060	-2.200	1.100																			1580054062.0	11.29	20.91
26/01/2020 15:54:23	26012020	260120	155423	100.930	12.272883	-56.535678	100.940	-0.330	-0.040	0.470	100.910	-1.600	0.900																			1580054063.0	11.15	20.65
26/01/2020 15:54:24	26012020	260120	155424	100.930	12.272873	-56.535630	100.970	-0.550	0.260	0.340	100.930	-1.200	0.700																			1580054064.0	10.77	19.95
26/01/2020 15:54:25	26012020	260120	155425	100.950	12.272862	-56.535578	101.010	-0.480	0.200	0.300	100.950	-1.200	0.700																			1580054065.0	10.65	19.72
26/01/2020 15:54:26	26012020	260120	155426	100.990	12.272850	-56.535527	101.120	-0.260	0.020	0.210	101.010	-1.300	0.600																			1580054066.0	11.02	20.41
26/01/2020 15:54:27	26012020	260120	155427	101.110	12.272838	-56.535475	101.250	0.050	-0.100	0.120	101.140	-1.500	0.500																			1580054067.0	11.34	21.00
26/01/2020 15:54:28	26012020	260120	155428	101.250	12.272828	-56.535423	101.430	0.310	-0.150	0.000	101.280	-1.500	0.400																			1580054068.0	11.32	20.96
26/01/2020 15:54:29	26012020	260120	155429	101.440	12.272820	-56.535372	101.620	0.440	-0.270	-0.030	101.480	-1.600	0.300																			1580054069.0	11.15	20.65
26/01/2020 15:54:30	26012020	260120	155430	101.610	12.272810	-56.535320	101.700	0.430	-0.440	0.150	101.640	-1.800	0.400																			1580054070.0	11.03	20.43
26/01/2020 15:54:31	26012020	260120	155431	101.680	12.272800	-56.535268	101.730	0.350	-0.530	0.460	101.690	-1.900	0.700																			1580054071.0	11.04	20.45
26/01/2020 15:54:32	26012020	260120	155432	101.700	12.272788	-56.535218	101.620	0.210	-0.500	0.810	101.680	-1.900	1.000																			1580054072.0	11.10	20.56
26/01/2020 15:54:33	26012020	260120	155433	101.560	12.272777	-56.535167	101.320	0.030	-0.470	0.970	101.510	-1.900	1.300																			1580054073.0	11.02	20.41
26/01/2020 15:54:34	26012020	260120	155434	101.250	12.272765	-56.535115	101.010	-0.190	-0.410	0.940	101.170	-1.800	1.300																			1580054074.0	11.01	20.39
26/01/2020 15:54:35	26012020	260120	155435	100.950	12.272755	-56.535063	100.970	-0.420	-0.310	0.810	100.920	-1.800	1.200																			1580054075.0	11.12	20.59
26/01/2020 15:54:36	26012020	260120	155436	100.940	12.272743	-56.535013	101.120	-0.580	-0.130	0.620	100.970	-1.600	1.000																			1580054076.0	11.16	20.67
26/01/2020 15:54:37	26012020	260120	155437	101.090	12.272732	-56.534962	101.180	-0.590	0.100	0.430	101.110	-1.400	0.900																			1580054077.0	11.13	20.61
26/01/2020 15:54:38	26012020	260120	155438	101.150	12.272720	-56.534912	101.170	-0.380	0.150	0.250	101.150	-1.200	0.700																			1580054078.0	11.04	20.45
26/01/2020 15:54:39	26012020	260120	155439	101.140	12.272708	-56.534860	101.230	0.050	-0.120	0.090	101.150	-1.400	0.500																			1580054079.0	10.95	20.28
26/01/2020 15:54:40	26012020	260120	155440	101.220	12.272698	-56.534807	101.430	0.520	-0.440	-0.150	101.260	-1.700	0.300																			1580054080.0	11.13	20.61
26/01/2020 15:54:41	26012020	260120	155441	101.440	12.272690	-56.534753	101.640	0.740	-0.430	-0.320	101.490	-1.900	0.100																			1580054081.0	11.44	21.19
26/01/2020 15:54:42	26012020	260120	155442	101.640	12.272682	-56.534703	101.730	0.590	-0.070	-0.110	101.660	-1.600	0.100																			1580054082.0	11.44	21.19
26/01/2020 15:54:43	26012020	260120	155443	101.710	12.272672	-56.534653	101.730	0.220	0.190	0.290	101.720	-1.300	0.500																			1580054083.0	11.01	20.39
26/01/2020 15:54:44	26012020	260120	155444	101.710	12.272660	-56.534605	101.710	-0.010	-0.150	0.500	101.700	-1.400	0.800																			1580054084.0	10.52	19.48
26/01/2020 15:54:45	26012020	260120	155445	101.680	12.272650	-56.534552	101.610	0.040	-0.810	0.560	101.660	-2.000	0.900																			1580054085.0	10.64	19.71
26/01/2020 15:54:46	26012020	260120	155446	101.560	12.272638	-56.534498	101.430	0.090	-1.090	0.690	101.530	-2.400	1.000																			1580054086.0	11.37	21.06
26/01/2020 15:54:47	26012020	260120	155447	101.380	12.272627	-56.534445	101.180	-0.050	-0.750	0.890	101.330	-2.300	1.200																			1580054087.0	11.75	21.76
26/01/2020 15:54:48	26012020	260120	155448	101.120	12.272613	-56.534395	100.980	-0.380	-0.060	0.920	101.070	-1.700	1.300																			1580054088.0	11.40	21.11
26/01/2020 15:54:49	26012020	260120	155449	100.930	12.272602	-56.534347	101.060	-0.710	0.410	0.650	100.930	-1.100	1.100																			1580054089.0	10.87	20.13
26/01/2020 15:54:50	26012020	260120	155450	101.050	12.272592	-56.534297	101.250	-0.770	0.340	0.300	101.090	-1.000	0.800																			1580054090.0	10.58	19.59
26/01/2020 15:54:51	26012020	260120	155451	101.240	12.272580	-56.534245	101.250	-0.390	-0.160	0.070	101.260	-1.400	0.500																			1580054091.0	10.78	19.96
26/01/2020 15:54:52	26012020	260120	155452	101.220	12.272568	-56.534192	101.130	0.210	-0.600	0.130	101.190	-1.900	0.400																			1580054092.0	11.32	20.96
26/01/2020 15:54:53	26012020	260120	155453	101.100	12.272557	-56.534137	101.150	0.590	-0.540	0.170	101.100	-2.000	0.500																			1580054093.0	11.71	21.69
26/01/2020 15:54:54	26012020	260120	155454	101.140	12.272547	-56.534087	101.230	0.560	-0.100	-0.080	101.160	-1.700	0.400																			1580054094.0	11.60	21.48
26/01/2020 15:54:55	26012020	260120	155455	101.220	12.272538	-56.534037	101.190	0.280	0.210	-0.150	101.220	-1.300	0.200																			1580054095.0	10.98	20.33
26/01/2020 15:54:56	26012020	260120	155456	101.170	12.272532	-56.533987	101.090	0.070	0.040	0.120	101.150	-1.200	0.400																			1580054096.0	10.56	19.56
26/01/2020 15:54:57	26012020	260120	155457	101.070	12.272520	-56.533935	101.070	0.100	-0.560	0.410	101.050	-1.700	0.700																			1580054097.0	10.68	19.78
26/01/2020 15:54:58	26012020	260120	155458	101.050	12.272508	-56.533882	101.070	0.220	-1.020	0.670	101.050	-2.300	0.900																			1580054098.0	11.19	20.72
26/01/2020 15:54:59	26012020	260120	155459	101.040	12.272495	-56.533828	101.050	0.070	-0.710	0.860	101.040	-2.300	1.200	1015.90	26.30	26.40	19.00	19.00	790.00	63.00	64.00	366.00	29.50	352.00	9.10	80.00	3.60	60016	3165.00	27.60	27.60	1580054099.0	11.75	21.76
26/01/2020 15:55:00	26012020	260120	155500	101.010	12.272483	-56.533778	101.020	-0.350	0.160	0.930	101.010	-1.600	1.300																			1580054100.0	11.63	21.54
26/01/2020 15:55:01	26012020	260120	155501	100.970	12.272472	-56.533732	100.960	-0.660	0.690	0.750	100.970	-0.800	1.200																			1580054101.0	10.76	19.93
26/01/2020 15:55:02	26012020	260120	155502	100.920	12.272460	-56.533683	100.930	-0.550	0.350	0.330	100.920	-0.800	0.900																			1580054102.0	10.18	18.85
26/01/2020 15:55:03	26012020	260120	155503	100.910	12.272452	-56.533630	100.990	-0.080	-0.550	-0.090	100.920	-1.600	0.400																			1580054103.0	10.55	19.54
26/01/2020 15:55:04	26012020	260120	155504	100.990	12.272443	-56.533573	100.970	0.410	-1.210	-0.150	101.000	-2.400	0.200																			1580054104.0	11.44	21.19
26/01/2020 15:55:05	26012020	260120	155505	100.950	12.272433	-56.533520	100.820	0.560	-1.020	0.050	100.920	-2.600	0.300																			1580054105.0	12.00	22.22
26/01/2020 15:55:06	26012020	260120	155506	100.790	12.272422	-56.533470	100.700	0.320	-0.250	0.390	100.760	-1.900	0.600																			1580054106.0	11.72	21.71
26/01/2020 15:55:07	26012020	260120	155507	100.670	12.272412	-56.533422	100.670	-0.020	0.290	0.700	100.660	-1.200	1.000																			1580054107.0	10.85	20.09
26/01/2020 15:55:08	26012020	260120	155508	100.640	12.272400	-56.533372	100.720	-0.200	0.270	0.710	100.650	-1.100	1.100																			1580054108.0	10.36	19.19
26/01/2020 15:55:09	26012020	260120	155509	100.700	12.272388	-56.533320	100.760	-0.180	-0.100	0.530	100.710	-1.400	1.000																			1580054109.0	10.71	19.83
26/01/2020 15:55:10	26012020	260120	155510	100.740	12.272378	-56.533267	100.720	-0.100	-0.320	0.460	100.730	-1.700	0.800																			1580054110.0	11.29	20.91
26/01/2020 15:55:11	26012020	260120	155511	100.700	12.272368	-56.533213	100.680	-0.090	-0.180	0.550	100.680	-1.700	0.900																			1580054111.0	11.55	21.39
26/01/2020 15:55:12	26012020	260120	155512	100.660	12.272357	-56.533163	100.770	-0.190	0.040	0.600	100.670	-1.400	1.000																			1580054112.0	11.29	20.91
26/01/2020 15:55:13	26012020	260120	155513	100.760	12.272347	-56.533115	100.920	-0.230	-0.050	0.520	100.780	-1.400	0.900																			1580054113.0	10.84	20.08
26/01/2020 15:55:14	26012020	260120	155514	100.910	12.272335	-56.533063	100.990	-0.060	-0.420	0.470	100.930	-1.700	0.800																			1580054114.0	10.72	19.85
26/01/2020 15:55:15	26012020	260120	155515	100.970	12.272325	-56.533010	100.910	0.260	-0.740	0.500	100.960	-2.000	0.800																			1580054115.0	11.06	20.48
26/01/2020 15:55:16	26012020	260120	155516	100.880	12.272315	-56.532958	100.730	0.520	-0.780	0.630	100.840	-2.200	0.900																			1580054116.0	11.37	21.06
26/01/2020 15:55:17	26012020	260120	155517	100.700	12.272305	-56.532907	100.670	0.510	-0.500	0.680	100.670	-2.000	1.000																			1580054117.0	11.37	21.06
26/01/2020 15:55:18	26012020	260120	155518	100.650	12.272295	-56.532855	100.710	0.240	-0.080	0.620	100.650	-1.600	1.000																			1580054118.0	11.16	20.67
26/01/2020 15:55:19	26012020	260120	155519	100.700	12.272287	-56.532805	100.700	-0.070	0.130	0.570	100.700	-1.300	0.900																			1580054119.0	10.87	20.13
26/01/2020 15:55:20	26012020	260120	155520	100.670	12.272277	-56.532755	100.630	-0.220	-0.060	0.550	100.660	-1.400	0.900																			1580054120.0	10.75	19.91
26/01/2020 15:55:21	26012020	260120	155521	100.610	12.272267	-56.532702	100.630	-0.260	-0.260	0.680	100.610	-1.600	1.000																			1580054121.0	11.04	20.45
26/01/2020 15:55:22	26012020	260120	155522	100.610	12.272255	-56.532648	100.750	-0.320	-0.170	0.740	100.630	-1.600	1.100																			1580054122.0	11.47	21.24
26/01/2020 15:55:23	26012020	260120	155523	100.750	12.272243	-56.532598	100.950	-0.350	-0.050	0.630	100.790	-1.500	1.000																			1580054123.0	11.34	21.00
26/01/2020 15:55:24	26012020	260120	155524	100.950	12.272233	-56.532548	101.050	-0.200	-0.180	0.550	100.980	-1.500	0.900																			1580054124.0	10.95	20.28
26/01/2020 15:55:25	26012020	260120	155525	101.040	12.272222	-56.532497	101.050	0.050	-0.450	0.440	101.040	-1.700	0.800																			1580054125.0	10.92	20.22
26/01/2020 15:55:26	26012020	260120	155526	101.030	12.272212	-56.532443	100.990	0.210	-0.570	0.280	101.030	-1.900	0.700																			1580054126.0	11.24	20.82
26/01/2020 15:55:27	26012020	260120	155527	100.980	12.272203	-56.532392	100.930	0.260	-0.400	0.060	100.970	-1.900	0.500																			1580054127.0	11.39	21.09
26/01/2020 15:55:28	26012020	260120	155528	100.920	12.272195	-56.532340	100.950	0.250	-0.210	-0.140	100.920	-1.600	0.300																			1580054128.0	11.17	20.69
26/01/2020 15:55:29	26012020	260120	155529	100.950	12.272187	-56.532288	101.010	0.200	-0.240	-0.130	100.970	-1.600	0.200																			1580054129.0	10.91	20.21
26/01/2020 15:55:30	26012020	260120	155530	101.010	12.272175	-56.532237	100.980	0.100	-0.340	0.130	101.010	-1.700	0.400																			1580054130.0	10.98	20.33
26/01/2020 15:55:31	26012020	260120	155531	100.970	12.272163	-56.532185	100.930	-0.110	-0.140	0.440	100.950	-1.600	0.700																			1580054131.0	11.27	20.87
26/01/2020 15:55:32	26012020	260120	155532	100.920	12.272152	-56.532135	100.960	-0.370	0.220	0.580	100.920	-1.300	0.900																			1580054132.0	11.33	20.98
26/01/2020 15:55:33	26012020	260120	155533	100.950	12.272140	-56.532085	101.070	-0.440	0.200	0.490	100.970	-1.100	0.900																			1580054133.0	10.91	20.21
26/01/2020 15:55:34	26012020	260120	155534	101.070	12.272130	-56.532033	101.230	-0.160	-0.330	0.250	101.100	-1.500	0.700																			1580054134.0	10.67	19.76
26/01/2020 15:55:35	26012020	260120	155535	101.250	12.272120	-56.531980	101.310	0.270	-0.880	0.070	101.270	-2.100	0.500																			1580054135.0	11.08	20.52
26/01/2020 15:55:36	26012020	260120	155536	101.310	12.272110	-56.531927	101.180	0.490	-0.940	0.120	101.290	-2.400	0.400																			1580054136.0	11.64	21.56
26/01/2020 15:55:37	26012020	260120	155537	101.160	12.272100	-56.531875	101.000	0.350	-0.410	0.270	101.110	-2.000	0.600																			1580054137.0	11.68	21.63
26/01/2020 15:55:38	26012020	260120	155538	100.990	12.272090	-56.531825	101.020	-0.020	0.170	0.390	100.980	-1.400	0.700																			1580054138.0	11.16	20.67
26/01/2020 15:55:39	26012020	260120	155539	101.030	12.272080	-56.531775	101.180	-0.340	0.280	0.510	101.060	-1.100	0.800																			1580054139.0	10.60	19.63
26/01/2020 15:55:40	26012020	260120	155540	101.180	12.272068	-56.531725	101.250	-0.390	-0.090	0.660	101.210	-1.300	1.000																			1580054140.0	10.61	19.65
26/01/2020 15:55:41	26012020	260120	155541	101.230	12.272055	-56.531672	101.150	-0.130	-0.550	0.770	101.220	-1.800	1.100																			1580054141.0	11.11	20.58
26/01/2020 15:55:42	26012020	260120	155542	101.120	12.272043	-56.531618	100.960	0.200	-0.690	0.780	101.090	-2.100	1.100																			1580054142.0	11.57	21.43
26/01/2020 15:55:43	26012020	260120	155543	100.930	12.272032	-56.531565	100.880	0.270	-0.420	0.600	100.900	-1.900	1.000																			1580054143.0	11.67	21.61
26/01/2020 15:55:44	26012020	260120	155544	100.870	12.272023	-56.531515	100.960	0.060	0.040	0.290	100.880	-1.500	0.800																			1580054144.0	11.35	21.02
26/01/2020 15:55:45	26012020	260120	155545	100.980	12.272015	-56.531465	101.080	-0.180	0.340	0.010	101.000	-1.100	0.500																			1580054145.0	10.93	20.24
26/01/2020 15:55:46	26012020	260120	155546	101.090	12.272007	-56.531415	101.140	-0.270	0.210	-0.130	101.110	-1.100	0.200																			1580054146.0	10.68	19.78
26/01/2020 15:55:47	26012020	260120	155547	101.150	12.271995	-56.531362	101.110	-0.110	-0.310	0.090	101.150	-1.500	0.300																			1580054147.0	10.81	20.02
26/01/2020 15:55:48	26012020	260120	155548	101.100	12.271983	-56.531308	101.090	0.140	-0.780	0.380	101.090	-2.000	0.700																			1580054148.0	11.22	20.78
26/01/2020 15:55:49	26012020	260120	155549	101.070	12.271972	-56.531255	101.100	0.230	-0.780	0.430	101.070	-2.200	0.800																			1580054149.0	11.61	21.50
26/01/2020 15:55:50	26012020	260120	155550	101.080	12.271960	-56.531205	101.090	0.090	-0.360	0.350	101.080	-1.900	0.700																			1580054150.0	11.55	21.39
26/01/2020 15:55:51	26012020	260120	155551	101.070	12.271950	-56.531155	101.100	-0.050	-0.030	0.310	101.070	-1.500	0.700																			1580054151.0	11.03	20.43
26/01/2020 15:55:52	26012020	260120	155552	101.080	12.271940	-56.531105	101.140	0.020	-0.130	0.230	101.090	-1.400	0.600																			1580054152.0	10.63	19.69
26/01/2020 15:55:53	26012020	260120	155553	101.120	12.271930	-56.531052	101.110	0.190	-0.380	0.240	101.120	-1.700	0.600																			1580054153.0	10.85	20.09
26/01/2020 15:55:54	26012020	260120	155554	101.080	12.271920	-56.530998	101.000	0.220	-0.420	0.320	101.060	-1.800	0.700																			1580054154.0	11.40	21.11
26/01/2020 15:55:55	26012020	260120	155555	100.970	12.271910	-56.530947	100.990	0.040	-0.220	0.380	100.950	-1.700	0.700																			1580054155.0	11.53	21.35
26/01/2020 15:55:56	26012020	260120	155556	100.980	12.271898	-56.530895	101.250	-0.210	0.000	0.380	101.020	-1.400	0.700																			1580054156.0	11.25	20.84
26/01/2020 15:55:57	26012020	260120	155557	101.250	12.271888	-56.530845	101.470	-0.370	0.030	0.470	101.310	-1.300	0.800																			1580054157.0	10.99	20.35
26/01/2020 15:55:58	26012020	260120	155558	101.450	12.271877	-56.530795	101.460	-0.320	-0.170	0.620	101.460	-1.500	0.900																			1580054158.0	10.92	20.22
26/01/2020 15:55:59	26012020	260120	155559	101.420	12.271863	-56.530742	101.340	-0.100	-0.460	0.720	101.390	-1.700	1.000	1015.90	26.30	26.40	19.00	19.10	764.00	64.00	64.00	366.00	29.40	352.00	9.00	80.00	3.50	58902	3283.00	27.60	27.60	1580054159.0	11.10	20.56
26/01/2020 15:56:00	26012020	260120	155600	101.290	12.271852	-56.530690	101.190	0.130	-0.660	0.810	101.260	-2.000	1.100																			1580054160.0	11.35	21.02
26/01/2020 15:56:01	26012020	260120	155601	101.120	12.271840	-56.530637	101.010	0.230	-0.610	0.760	101.090	-2.000	1.200																			1580054161.0	11.46	21.22
26/01/2020 15:56:02	26012020	260120	155602	100.950	12.271832	-56.530585	100.900	0.170	-0.310	0.600	100.920	-1.800	1.000																			1580054162.0	11.40	21.11
26/01/2020 15:56:03	26012020	260120	155603	100.850	12.271822	-56.530533	100.900	0.020	0.050	0.400	100.840	-1.500	0.800																			1580054163.0	11.20	20.74
26/01/2020 15:56:04	26012020	260120	155604	100.880	12.271812	-56.530483	101.080	-0.120	0.300	0.140	100.910	-1.200	0.600																			1580054164.0	10.98	20.33
26/01/2020 15:56:05	26012020	260120	155605	101.080	12.271803	-56.530432	101.310	-0.150	0.260	-0.090	101.120	-1.100	0.300																			1580054165.0	10.93	20.24
26/01/2020 15:56:06	26012020	260120	155606	101.310	12.271792	-56.530380	101.490	-0.010	-0.050	-0.130	101.350	-1.300	0.200																			1580054166.0	10.96	20.30
26/01/2020 15:56:07	26012020	260120	155607	101.490	12.271782	-56.530328	101.620	0.230	-0.410	0.010	101.520	-1.700	0.300																			1580054167.0	11.17	20.69
26/01/2020 15:56:08	26012020	260120	155608	101.620	12.271770	-56.530275	101.710	0.390	-0.590	0.140	101.640	-1.900	0.500																			1580054168.0	11.36	21.04
26/01/2020 15:56:09	26012020	260120	155609	101.690	12.271760	-56.530223	101.730	0.380	-0.570	0.200	101.700	-2.000	0.500																			1580054169.0	11.35	21.02
26/01/2020 15:56:10	26012020	260120	155610	101.700	12.271752	-56.530172	101.640	0.210	-0.620	0.360	101.690	-2.000	0.700																			1580054170.0	11.14	20.63
26/01/2020 15:56:11	26012020	260120	155611	101.600	12.271740	-56.530120	101.430	-0.060	-0.720	0.630	101.570	-2.100	0.900																			1580054171.0	10.99	20.35
26/01/2020 15:56:12	26012020	260120	155612	101.370	12.271728	-56.530068	101.110	-0.360	-0.650	0.930	101.310	-2.100	1.200																			1580054172.0	11.21	20.76
26/01/2020 15:56:13	26012020	260120	155613	101.040	12.271715	-56.530017	100.780	-0.590	-0.380	1.050	100.970	-1.900	1.400																			1580054173.0	11.41	21.13
26/01/2020 15:56:14	26012020	260120	155614	100.720	12.271702	-56.529965	100.570	-0.630	-0.120	0.980	100.660	-1.600	1.400																			1580054174.0	11.34	21.00
26/01/2020 15:56:15	26012020	260120	155615	100.520	12.271690	-56.529913	100.570	-0.410	-0.050	0.640	100.500	-1.400	1.100																			1580054175.0	11.23	20.80
26/01/2020 15:56:16	26012020	260120	155616	100.560	12.271678	-56.529860	100.800	-0.080	0.140	0.130	100.600	-1.300	0.700																			1580054176.0	11.33	20.98
26/01/2020 15:56:17	26012020	260120	155617	100.810	12.271668	-56.529807	101.130	0.120	0.540	-0.270	100.880	-1.000	0.200																			1580054177.0	11.54	21.37
26/01/2020 15:56:18	26012020	260120	155618	101.160	12.271660	-56.529757	101.440	0.220	0.680	-0.420	101.220	-0.700	-0.000																			1580054178.0	11.24	20.82
26/01/2020 15:56:19	26012020	260120	155619	101.450	12.271650	-56.529707	101.610	0.330	0.230	-0.320	101.490	-0.900	-0.000																			1580054179.0	10.78	19.96
26/01/2020 15:56:20	26012020	260120	155620	101.620	12.271640	-56.529653	101.780	0.480	-0.500	-0.140	101.660	-1.600	0.200																			1580054180.0	10.91	20.21
26/01/2020 15:56:21	26012020	260120	155621	101.780	12.271632	-56.529600	101.900	0.570	-1.000	0.080	101.810	-2.200	0.400																			1580054181.0	11.36	21.04
26/01/2020 15:56:22	26012020	260120	155622	101.890	12.271622	-56.529547	101.890	0.510	-1.000	0.360	101.890	-2.400	0.600																			1580054182.0	11.53	21.35
26/01/2020 15:56:23	26012020	260120	155623	101.860	12.271610	-56.529497	101.690	0.210	-0.750	0.730	101.830	-2.200	0.900																			1580054183.0	11.26	20.85
26/01/2020 15:56:24	26012020	260120	155624	101.630	12.271598	-56.529448	101.300	-0.210	-0.600	1.150	101.550	-2.000	1.400																			1580054184.0	10.87	20.13
26/01/2020 15:56:25	26012020	260120	155625	101.220	12.271585	-56.529397	100.870	-0.460	-0.640	1.330	101.130	-2.000	1.700																			1580054185.0	10.82	20.04
26/01/2020 15:56:26	26012020	260120	155626	100.790	12.271572	-56.529343	100.540	-0.430	-0.700	1.200	100.710	-2.100	1.600																			1580054186.0	11.16	20.67
26/01/2020 15:56:27	26012020	260120	155627	100.490	12.271560	-56.529290	100.500	-0.300	-0.500	0.880	100.450	-2.000	1.400																			1580054187.0	11.53	21.35
26/01/2020 15:56:28	26012020	260120	155628	100.480	12.271548	-56.529237	100.710	-0.350	0.090	0.520	100.510	-1.500	1.000																			1580054188.0	11.74	21.74
26/01/2020 15:56:29	26012020	260120	155629	100.710	12.271538	-56.529185	100.990	-0.530	0.760	0.280	100.760	-0.800	0.700																			1580054189.0	11.52	21.34
26/01/2020 15:56:30	26012020	260120	155630	101.000	12.271525	-56.529137	101.260	-0.510	0.930	0.140	101.050	-0.400	0.500																			1580054190.0	10.99	20.35
26/01/2020 15:56:31	26012020	260120	155631	101.270	12.271515	-56.529085	101.540	-0.070	0.470	-0.050	101.320	-0.700	0.400																			1580054191.0	10.74	19.89
26/01/2020 15:56:32	26012020	260120	155632	101.560	12.271505	-56.529032	101.850	0.560	-0.230	-0.260	101.620	-1.400	0.200																			1580054192.0	11.09	20.54
26/01/2020 15:56:33	26012020	260120	155633	101.870	12.271497	-56.528977	102.090	0.950	-0.640	-0.320	101.920	-1.900	0.000																			1580054193.0	11.58	21.45
26/01/2020 15:56:34	26012020	260120	155634	102.090	12.271488	-56.528925	102.140	0.810	-0.540	0.060	102.100	-2.000	0.200																			1580054194.0	11.68	21.63
26/01/2020 15:56:35	26012020	260120	155635	102.110	12.271478	-56.528875	102.100	0.320	-0.310	0.540	102.100	-1.700	0.700																			1580054195.0	11.18	20.71
26/01/2020 15:56:36	26012020	260120	155636	102.050	12.271467	-56.528827	101.960	-0.060	-0.520	0.770	102.040	-1.800	1.100																			1580054196.0	10.54	19.52
26/01/2020 15:56:37	26012020	260120	155637	101.900	12.271455	-56.528775	101.620	-0.140	-1.040	0.900	101.840	-2.200	1.200																			1580054197.0	10.51	19.46
26/01/2020 15:56:38	26012020	260120	155638	101.540	12.271443	-56.528722	101.210	-0.140	-1.170	1.020	101.460	-2.600	1.300																			1580054198.0	11.22	20.78
26/01/2020 15:56:39	26012020	260120	155639	101.140	12.271430	-56.528670	100.890	-0.250	-0.640	1.000	101.060	-2.300	1.400																			1580054199.0	11.73	21.72
26/01/2020 15:56:40	26012020	260120	155640	100.830	12.271418	-56.528620	100.670	-0.350	-0.090	0.810	100.780	-1.600	1.200																			1580054200.0	11.39	21.09
26/01/2020 15:56:41	26012020	260120	155641	100.610	12.271407	-56.528568	100.500	-0.230	-0.080	0.540	100.580	-1.400	1.000																			1580054201.0	10.81	20.02
26/01/2020 15:56:42	26012020	260120	155642	100.450	12.271395	-56.528515	100.450	-0.060	-0.070	0.310	100.440	-1.500	0.700																			1580054202.0	11.03	20.43
26/01/2020 15:56:43	26012020	260120	155643	100.440	12.271385	-56.528462	100.630	-0.150	0.430	0.130	100.460	-1.200	0.500																			1580054203.0	11.74	21.74
26/01/2020 15:56:44	26012020	260120	155644	100.660	12.271375	-56.528412	101.040	-0.360	0.870	0.030	100.730	-0.600	0.400																			1580054204.0	11.54	21.37
26/01/2020 15:56:45	26012020	260120	155645	101.070	12.271365	-56.528362	101.440	-0.310	0.550	0.120	101.160	-0.600	0.400																			1580054205.0	10.71	19.83
26/01/2020 15:56:46	26012020	260120	155646	101.450	12.271353	-56.528310	101.650	0.110	-0.380	0.320	101.510	-1.400	0.600																			1580054206.0	10.62	19.67
26/01/2020 15:56:47	26012020	260120	155647	101.640	12.271340	-56.528255	101.660	0.640	-1.020	0.440	101.650	-2.300	0.800																			1580054207.0	11.33	20.98
26/01/2020 15:56:48	26012020	260120	155648	101.640	12.271330	-56.528203	101.650	0.780	-0.770	0.460	101.640	-2.300	0.800																			1580054208.0	11.85	21.95
26/01/2020 15:56:49	26012020	260120	155649	101.640	12.271322	-56.528153	101.700	0.380	-0.140	0.370	101.640	-1.700	0.800																			1580054209.0	11.43	21.17
26/01/2020 15:56:50	26012020	260120	155650	101.680	12.271313	-56.528107	101.660	-0.100	-0.080	0.300	101.700	-1.400	0.700																			1580054210.0	10.44	19.33
26/01/2020 15:56:51	26012020	260120	155651	101.640	12.271303	-56.528057	101.400	-0.230	-0.630	0.390	101.600	-1.800	0.700																			1580054211.0	10.14	18.78
26/01/2020 15:56:52	26012020	260120	155652	101.360	12.271292	-56.528002	101.040	-0.040	-0.960	0.650	101.280	-2.300	0.900																			1580054212.0	10.94	20.26
26/01/2020 15:56:53	26012020	260120	155653	100.980	12.271278	-56.527950	100.730	0.130	-0.770	0.820	100.910	-2.300	1.200																			1580054213.0	11.71	21.69
26/01/2020 15:56:54	26012020	260120	155654	100.680	12.271267	-56.527898	100.600	0.150	-0.420	0.590	100.640	-1.900	1.100																			1580054214.0	11.53	21.35
26/01/2020 15:56:55	26012020	260120	155655	100.570	12.271257	-56.527847	100.600	0.020	-0.120	0.360	100.570	-1.600	0.800																			1580054215.0	11.12	20.59
26/01/2020 15:56:56	26012020	260120	155656	100.570	12.271247	-56.527795	100.590	-0.210	0.290	0.380	100.570	-1.300	0.700																			1580054216.0	11.13	20.61
26/01/2020 15:56:57	26012020	260120	155657	100.570	12.271237	-56.527743	100.700	-0.460	0.620	0.440	100.580	-0.900	0.800																			1580054217.0	11.20	20.74
26/01/2020 15:56:58	26012020	260120	155658	100.690	12.271225	-56.527693	100.980	-0.510	0.510	0.490	100.740	-0.800	0.800																			1580054218.0	10.97	20.32
26/01/2020 15:56:59	26012020	260120	155659	100.990	12.271212	-56.527642	101.280	-0.320	0.020	0.580	101.050	-1.200	0.900	1015.80	26.30	26.40	19.20	19.20	809.00	64.00	64.00	366.00	29.40	352.00	8.90	78.00	3.30	61172	3229.00	27.60	27.60	1580054219.0	10.88	20.15
26/01/2020 15:57:00	26012020	260120	155700	101.270	12.271200	-56.527590	101.320	0.020	-0.530	0.680	101.290	-1.700	1.000																			1580054220.0	11.20	20.74
26/01/2020 15:57:01	26012020	260120	155701	101.280	12.271188	-56.527537	101.110	0.350	-0.870	0.760	101.260	-2.200	1.100																			1580054221.0	11.41	21.13
26/01/2020 15:57:02	26012020	260120	155702	101.060	12.271178	-56.527485	100.870	0.560	-0.910	0.670	101.000	-2.300	1.100																			1580054222.0	11.40	21.11
26/01/2020 15:57:03	26012020	260120	155703	100.840	12.271170	-56.527433	100.820	0.460	-0.600	0.410	100.820	-2.100	0.900																			1580054223.0	11.22	20.78
26/01/2020 15:57:04	26012020	260120	155704	100.800	12.271162	-56.527383	100.830	0.090	-0.140	0.240	100.810	-1.700	0.600																			1580054224.0	11.06	20.48
26/01/2020 15:57:05	26012020	260120	155705	100.830	12.271153	-56.527333	100.800	-0.270	0.100	0.270	100.830	-1.300	0.600																			1580054225.0	10.78	19.96
26/01/2020 15:57:06	26012020	260120	155706	100.790	12.271142	-56.527283	100.720	-0.310	-0.070	0.510	100.770	-1.400	0.800																			1580054226.0	10.67	19.76
26/01/2020 15:57:07	26012020	260120	155707	100.690	12.271130	-56.527230	100.630	-0.090	-0.400	0.710	100.670	-1.700	1.000																			1580054227.0	10.97	20.32
26/01/2020 15:57:08	26012020	260120	155708	100.600	12.271117	-56.527177	100.550	0.150	-0.460	0.570	100.590	-1.900	1.000																			1580054228.0	11.50	21.30
26/01/2020 15:57:09	26012020	260120	155709	100.530	12.271108	-56.527123	100.490	0.200	-0.140	0.290	100.510	-1.700	0.700																			1580054229.0	11.64	21.56
26/01/2020 15:57:10	26012020	260120	155710	100.480	12.271100	-56.527073	100.590	0.080	0.130	0.150	100.490	-1.300	0.500																			1580054230.0	11.27	20.87
26/01/2020 15:57:11	26012020	260120	155711	100.590	12.271092	-56.527023	100.790	-0.010	-0.050	0.180	100.640	-1.300	0.500																			1580054231.0	10.82	20.04
26/01/2020 15:57:12	26012020	260120	155712	100.790	12.271080	-56.526970	100.870	0.010	-0.410	0.410	100.820	-1.700	0.700																			1580054232.0	10.87	20.13
26/01/2020 15:57:13	26012020	260120	155713	100.850	12.271068	-56.526917	100.780	-0.010	-0.510	0.760	100.840	-1.900	1.000																			1580054233.0	11.33	20.98
26/01/2020 15:57:14	26012020	260120	155714	100.750	12.271057	-56.526867	100.660	-0.160	-0.350	0.980	100.720	-1.800	1.300																			1580054234.0	11.49	21.28
26/01/2020 15:57:15	26012020	260120	155715	100.620	12.271045	-56.526817	100.630	-0.330	-0.150	0.950	100.610	-1.600	1.300																			1580054235.0	11.17	20.69
26/01/2020 15:57:16	26012020	260120	155716	100.600	12.271035	-56.526765	100.670	-0.350	-0.100	0.740	100.610	-1.500	1.200																			1580054236.0	10.90	20.19
26/01/2020 15:57:17	26012020	260120	155717	100.660	12.271025	-56.526715	100.700	-0.140	-0.310	0.420	100.670	-1.600	0.900																			1580054237.0	10.86	20.11
26/01/2020 15:57:18	26012020	260120	155718	100.700	12.271015	-56.526662	100.640	0.190	-0.570	0.250	100.690	-1.900	0.600																			1580054238.0	11.06	20.48
26/01/2020 15:57:19	26012020	260120	155719	100.630	12.271005	-56.526608	100.570	0.390	-0.560	0.190	100.610	-2.000	0.600																			1580054239.0	11.41	21.13
26/01/2020 15:57:20	26012020	260120	155720	100.560	12.270997	-56.526555	100.670	0.310	-0.230	0.070	100.560	-1.800	0.500																			1580054240.0	11.50	21.30
26/01/2020 15:57:21	26012020	260120	155721	100.690	12.270988	-56.526505	100.970	0.020	0.180	0.100	100.750	-1.300	0.400																			1580054241.0	11.23	20.80
26/01/2020 15:57:22	26012020	260120	155722	100.990	12.270978	-56.526455	101.190	-0.200	0.290	0.370	101.050	-1.100	0.600																			1580054242.0	10.87	20.13
26/01/2020 15:57:23	26012020	260120	155723	101.180	12.270967	-56.526405	101.160	-0.190	-0.050	0.590	101.180	-1.300	0.900																			1580054243.0	10.70	19.82
26/01/2020 15:57:24	26012020	260120	155724	101.110	12.270955	-56.526352	100.970	0.050	-0.600	0.700	101.080	-1.800	1.000																			1580054244.0	11.02	20.41
26/01/2020 15:57:25	26012020	260120	155725	100.920	12.270943	-56.526298	100.770	0.310	-0.930	0.700	100.880	-2.200	1.100																			1580054245.0	11.46	21.22
26/01/2020 15:57:26	26012020	260120	155726	100.720	12.270933	-56.526243	100.620	0.320	-0.730	0.480	100.680	-2.300	0.900																			1580054246.0	11.69	21.65
26/01/2020 15:57:27	26012020	260120	155727	100.600	12.270925	-56.526193	100.610	-0.000	-0.110	0.170	100.590	-1.700	0.600																			1580054247.0	11.52	21.34
26/01/2020 15:57:28	26012020	260120	155728	100.600	12.270917	-56.526143	100.750	-0.410	0.430	0.050	100.620	-1.100	0.400																			1580054248.0	10.99	20.35
26/01/2020 15:57:29	26012020	260120	155729	100.750	12.270907	-56.526095	100.900	-0.540	0.350	0.180	100.780	-0.900	0.500																			1580054249.0	10.53	19.50
26/01/2020 15:57:30	26012020	260120	155730	100.880	12.270895	-56.526043	100.850	-0.300	-0.300	0.440	100.890	-1.400	0.700																			1580054250.0	10.61	19.65
26/01/2020 15:57:31	26012020	260120	155731	100.810	12.270882	-56.525988	100.650	0.030	-0.770	0.670	100.780	-2.100	1.000																			1580054251.0	11.31	20.95
26/01/2020 15:57:32	26012020	260120	155732	100.600	12.270868	-56.525935	100.550	0.150	-0.590	0.700	100.570	-2.100	1.100																			1580054252.0	11.90	22.04
26/01/2020 15:57:33	26012020	260120	155733	100.530	12.270858	-56.525885	100.600	0.090	-0.200	0.460	100.530	-1.700	0.900																			1580054253.0	11.58	21.45
26/01/2020 15:57:34	26012020	260120	155734	100.600	12.270850	-56.525835	100.670	0.070	-0.160	0.180	100.610	-1.500	0.600																			1580054254.0	10.83	20.06
26/01/2020 15:57:35	26012020	260120	155735	100.670	12.270842	-56.525782	100.660	0.160	-0.380	0.180	100.670	-1.700	0.500																			1580054255.0	10.73	19.87
26/01/2020 15:57:36	26012020	260120	155736	100.660	12.270832	-56.525728	100.650	0.200	-0.320	0.320	100.650	-1.800	0.600																			1580054256.0	11.23	20.80
26/01/2020 15:57:37	26012020	260120	155737	100.640	12.270822	-56.525678	100.690	0.040	0.050	0.400	100.650	-1.500	0.700																			1580054257.0	11.48	21.26
26/01/2020 15:57:38	26012020	260120	155738	100.670	12.270812	-56.525628	100.700	-0.180	0.190	0.420	100.680	-1.200	0.800																			1580054258.0	11.10	20.56
26/01/2020 15:57:39	26012020	260120	155739	100.700	12.270802	-56.525577	100.740	-0.170	-0.180	0.380	100.700	-1.400	0.800																			1580054259.0	10.70	19.82
26/01/2020 15:57:40	26012020	260120	155740	100.730	12.270792	-56.525523	100.770	0.060	-0.650	0.440	100.730	-1.900	0.800																			1580054260.0	10.95	20.28
26/01/2020 15:57:41	26012020	260120	155741	100.740	12.270780	-56.525470	100.780	0.150	-0.660	0.560	100.740	-2.100	0.900																			1580054261.0	11.62	21.52
26/01/2020 15:57:42	26012020	260120	155742	100.760	12.270770	-56.525418	100.840	-0.000	-0.270	0.550	100.770	-1.800	0.900																			1580054262.0	11.62	21.52
26/01/2020 15:57:43	26012020	260120	155743	100.810	12.270758	-56.525370	100.840	-0.180	0.010	0.440	100.820	-1.400	0.900																			1580054263.0	11.08	20.52
26/01/2020 15:57:44	26012020	260120	155744	100.820	12.270750	-56.525318	100.850	-0.150	-0.130	0.220	100.820	-1.400	0.700																			1580054264.0	10.69	19.80
26/01/2020 15:57:45	26012020	260120	155745	100.840	12.270740	-56.525265	100.890	0.020	-0.390	0.070	100.840	-1.700	0.500																			1580054265.0	10.89	20.17
26/01/2020 15:57:46	26012020	260120	155746	100.880	12.270730	-56.525212	100.890	0.130	-0.460	0.070	100.880	-1.800	0.400																			1580054266.0	11.41	21.13
26/01/2020 15:57:47	26012020	260120	155747	100.880	12.270720	-56.525160	100.810	0.130	-0.360	0.130	100.870	-1.800	0.500																			1580054267.0	11.46	21.22
26/01/2020 15:57:48	26012020	260120	155748	100.790	12.270710	-56.525108	100.730	0.060	-0.260	0.260	100.780	-1.700	0.600																			1580054268.0	11.25	20.84
26/01/2020 15:57:49	26012020	260120	155749	100.730	12.270698	-56.525057	100.830	-0.020	-0.230	0.450	100.730	-1.600	0.700																			1580054269.0	11.11	20.58
26/01/2020 15:57:50	26012020	260120	155750	100.840	12.270687	-56.525005	101.100	-0.110	-0.060	0.550	100.890	-1.500	0.900																			1580054270.0	11.15	20.65
26/01/2020 15:57:51	26012020	260120	155751	101.110	12.270675	-56.524955	101.260	-0.270	0.260	0.670	101.160	-1.200	1.000																			1580054271.0	11.23	20.80
26/01/2020 15:57:52	26012020	260120	155752	101.260	12.270663	-56.524905	101.220	-0.390	0.300	0.770	101.260	-1.000	1.100																			1580054272.0	10.98	20.33
26/01/2020 15:57:53	26012020	260120	155753	101.200	12.270652	-56.524855	101.110	-0.220	-0.200	0.740	101.170	-1.400	1.100																			1580054273.0	10.71	19.83
26/01/2020 15:57:54	26012020	260120	155754	101.100	12.270640	-56.524802	101.090	0.170	-0.800	0.470	101.090	-2.000	0.900																			1580054274.0	10.96	20.30
26/01/2020 15:57:55	26012020	260120	155755	101.090	12.270632	-56.524747	101.080	0.500	-0.990	0.210	101.100	-2.400	0.600																			1580054275.0	11.55	21.39
26/01/2020 15:57:56	26012020	260120	155756	101.070	12.270623	-56.524695	101.010	0.560	-0.640	0.200	101.060	-2.200	0.500																			1580054276.0	11.67	21.61
26/01/2020 15:57:57	26012020	260120	155757	101.000	12.270615	-56.524645	100.970	0.330	-0.140	0.350	100.990	-1.700	0.600																			1580054277.0	11.27	20.87
26/01/2020 15:57:58	26012020	260120	155758	100.970	12.270605	-56.524595	101.000	0.040	0.020	0.510	100.970	-1.400	0.800																			1580054278.0	10.79	19.98
26/01/2020 15:57:59	26012020	260120	155759	100.990	12.270595	-56.524543	101.050	-0.090	-0.230	0.620	101.010	-1.500	0.900	1015.70	26.30	26.40	19.10	19.10	860.00	64.00	64.00	366.00	29.40	351.00	9.00	75.00	3.40	63811	3281.00	27.60	27.60	1580054279.0	10.72	19.85
26/01/2020 15:58:00	26012020	260120	155800	101.040	12.270583	-56.524490	101.100	-0.080	-0.460	0.690	101.050	-1.800	1.000																			1580054280.0	11.16	20.67
26/01/2020 15:58:01	26012020	260120	155801	101.090	12.270572	-56.524437	101.180	-0.130	-0.300	0.700	101.100	-1.800	1.100																			1580054281.0	11.59	21.46
26/01/2020 15:58:02	26012020	260120	155802	101.170	12.270560	-56.524385	101.250	-0.360	0.090	0.660	101.190	-1.400	1.000																			1580054282.0	11.53	21.35
26/01/2020 15:58:03	26012020	260120	155803	101.230	12.270550	-56.524335	101.230	-0.620	0.210	0.550	101.240	-1.200	1.000																			1580054283.0	11.05	20.46
26/01/2020 15:58:04	26012020	260120	155804	101.220	12.270538	-56.524285	101.150	-0.620	-0.160	0.380	101.200	-1.400	0.800																			1580054284.0	10.75	19.91
26/01/2020 15:58:05	26012020	260120	155805	101.140	12.270527	-56.524232	101.140	-0.280	-0.630	0.240	101.130	-1.900	0.600																			1580054285.0	11.02	20.41
26/01/2020 15:58:06	26012020	260120	155806	101.140	12.270515	-56.524177	101.200	0.150	-0.680	0.120	101.150	-2.100	0.500																			1580054286.0	11.56	21.41
26/01/2020 15:58:07	26012020	260120	155807	101.200	12.270505	-56.524125	101.170	0.380	-0.270	-0.060	101.210	-1.800	0.400																			1580054287.0	11.65	21.58
26/01/2020 15:58:08	26012020	260120	155808	101.170	12.270495	-56.524075	101.080	0.360	0.200	-0.160	101.150	-1.300	0.200																			1580054288.0	11.22	20.78
26/01/2020 15:58:09	26012020	260120	155809	101.080	12.270487	-56.524027	101.140	0.300	0.310	-0.220	101.080	-1.100	0.200																			1580054289.0	10.73	19.87
26/01/2020 15:58:10	26012020	260120	155810	101.160	12.270478	-56.523975	101.320	0.370	-0.100	-0.310	101.200	-1.300	0.100																			1580054290.0	10.65	19.72
26/01/2020 15:58:11	26012020	260120	155811	101.340	12.270468	-56.523922	101.430	0.500	-0.670	-0.260	101.370	-1.900	0.000																			1580054291.0	11.02	20.41
26/01/2020 15:58:12	26012020	260120	155812	101.440	12.270460	-56.523867	101.560	0.430	-0.730	0.100	101.460	-2.200	0.300																			1580054292.0	11.55	21.39
26/01/2020 15:58:13	26012020	260120	155813	101.560	12.270448	-56.523817	101.670	0.000	-0.300	0.590	101.590	-1.900	0.800																			1580054293.0	11.64	21.56
26/01/2020 15:58:14	26012020	260120	155814	101.650	12.270435	-56.523768	101.600	-0.530	-0.040	1.050	101.650	-1.400	1.300																			1580054294.0	11.01	20.39
26/01/2020 15:58:15	26012020	260120	155815	101.550	12.270422	-56.523718	101.390	-0.750	-0.420	1.380	101.510	-1.600	1.600																			1580054295.0	10.50	19.45
26/01/2020 15:58:16	26012020	260120	155816	101.320	12.270407	-56.523665	101.130	-0.480	-1.050	1.420	101.270	-2.200	1.800																			1580054296.0	10.84	20.08
26/01/2020 15:58:17	26012020	260120	155817	101.050	12.270393	-56.523610	100.850	-0.080	-1.050	1.160	100.990	-2.500	1.600																			1580054297.0	11.66	21.59
26/01/2020 15:58:18	26012020	260120	155818	100.790	12.270383	-56.523557	100.700	0.020	-0.250	0.740	100.750	-2.000	1.200																			1580054298.0	12.04	22.30
26/01/2020 15:58:19	26012020	260120	155819	100.670	12.270373	-56.523508	100.750	-0.190	0.630	0.410	100.670	-1.000	0.900																			1580054299.0	11.43	21.17
26/01/2020 15:58:20	26012020	260120	155820	100.750	12.270363	-56.523460	100.920	-0.300	0.830	0.120	100.780	-0.500	0.600																			1580054300.0	10.58	19.59
26/01/2020 15:58:21	26012020	260120	155821	100.920	12.270355	-56.523408	101.030	0.010	0.290	-0.130	100.940	-0.800	0.300																			1580054301.0	10.50	19.45
26/01/2020 15:58:22	26012020	260120	155822	101.050	12.270345	-56.523353	101.280	0.550	-0.410	-0.190	101.080	-1.600	0.200																			1580054302.0	11.10	20.56
26/01/2020 15:58:23	26012020	260120	155823	101.310	12.270335	-56.523298	101.680	0.790	-0.520	-0.020	101.390	-1.900	0.300																			1580054303.0	11.79	21.84
26/01/2020 15:58:24	26012020	260120	155824	101.710	12.270325	-56.523248	102.020	0.470	-0.090	0.190	101.790	-1.600	0.500																			1580054304.0	11.78	21.82
26/01/2020 15:58:25	26012020	260120	155825	102.030	12.270315	-56.523200	102.070	-0.090	0.160	0.530	102.050	-1.200	0.700																			1580054305.0	10.91	20.21
26/01/2020 15:58:26	26012020	260120	155826	102.040	12.270305	-56.523152	101.920	-0.360	-0.280	0.910	102.010	-1.400	1.200																			1580054306.0	10.21	18.91
26/01/2020 15:58:27	26012020	260120	155827	101.870	12.270292	-56.523100	101.730	-0.200	-1.070	1.030	101.830	-2.200	1.400																			1580054307.0	10.47	19.39
26/01/2020 15:58:28	26012020	260120	155828	101.660	12.270280	-56.523047	101.450	0.080	-1.480	0.930	101.610	-2.800	1.300																			1580054308.0	11.31	20.95
26/01/2020 15:58:29	26012020	260120	155829	101.380	12.270268	-56.522993	101.160	0.170	-1.160	0.810	101.310	-2.700	1.200																			1580054309.0	11.79	21.84
26/01/2020 15:58:30	26012020	260120	155830	101.100	12.270257	-56.522942	100.990	-0.020	-0.230	0.670	101.060	-2.000	1.100																			1580054310.0	11.55	21.39
26/01/2020 15:58:31	26012020	260120	155831	100.940	12.270245	-56.522893	100.960	-0.340	0.630	0.360	100.930	-1.000	0.900																			1580054311.0	10.99	20.35
26/01/2020 15:58:32	26012020	260120	155832	100.940	12.270235	-56.522845	101.050	-0.440	0.790	0.020	100.960	-0.600	0.500																			1580054312.0	10.44	19.33
26/01/2020 15:58:33	26012020	260120	155833	101.040	12.270225	-56.522793	101.170	-0.170	0.340	-0.170	101.060	-0.800	0.200																			1580054313.0	10.58	19.59
26/01/2020 15:58:34	26012020	260120	155834	101.170	12.270215	-56.522738	101.350	0.250	-0.230	-0.270	101.200	-1.400	0.100																			1580054314.0	11.23	20.80
26/01/2020 15:58:35	26012020	260120	155835	101.360	12.270205	-56.522685	101.580	0.480	-0.520	-0.140	101.400	-1.800	0.100																			1580054315.0	11.69	21.65
26/01/2020 15:58:36	26012020	260120	155836	101.570	12.270195	-56.522633	101.720	0.380	-0.440	0.280	101.610	-1.900	0.500																			1580054316.0	11.63	21.54
26/01/2020 15:58:37	26012020	260120	155837	101.690	12.270183	-56.522583	101.710	0.050	-0.180	0.680	101.700	-1.600	0.900																			1580054317.0	11.22	20.78
26/01/2020 15:58:38	26012020	260120	155838	101.660	12.270172	-56.522535	101.610	-0.220	-0.130	0.900	101.650	-1.500	1.200																			1580054318.0	10.75	19.91
26/01/2020 15:58:39	26012020	260120	155839	101.550	12.270160	-56.522485	101.470	-0.280	-0.400	1.050	101.530	-1.700	1.400																			1580054319.0	10.58	19.59
26/01/2020 15:58:40	26012020	260120	155840	101.390	12.270147	-56.522433	101.310	-0.190	-0.730	0.900	101.370	-2.000	1.300																			1580054320.0	10.87	20.13
26/01/2020 15:58:41	26012020	260120	155841	101.240	12.270135	-56.522380	101.060	-0.080	-0.810	0.700	101.200	-2.200	1.100																			1580054321.0	11.28	20.89
26/01/2020 15:58:42	26012020	260120	155842	100.990	12.270125	-56.522328	100.770	-0.010	-0.520	0.630	100.930	-2.000	1.000																			1580054322.0	11.42	21.15
26/01/2020 15:58:43	26012020	260120	155843	100.710	12.270113	-56.522278	100.630	0.030	-0.080	0.480	100.660	-1.600	0.900																			1580054323.0	11.23	20.80
26/01/2020 15:58:44	26012020	260120	155844	100.590	12.270105	-56.522227	100.720	0.070	0.190	0.270	100.600	-1.300	0.700																			1580054324.0	10.95	20.28
26/01/2020 15:58:45	26012020	260120	155845	100.710	12.270095	-56.522177	100.930	0.130	0.210	0.080	100.750	-1.100	0.500																			1580054325.0	10.88	20.15
26/01/2020 15:58:46	26012020	260120	155846	100.930	12.270085	-56.522123	101.180	0.250	0.020	-0.070	100.980	-1.300	0.300																			1580054326.0	11.04	20.45
26/01/2020 15:58:47	26012020	260120	155847	101.180	12.270075	-56.522072	101.310	0.370	-0.190	0.090	101.210	-1.500	0.400																			1580054327.0	11.20	20.74
26/01/2020 15:58:48	26012020	260120	155848	101.290	12.270065	-56.522018	101.360	0.350	-0.240	0.360	101.310	-1.600	0.600																			1580054328.0	11.33	20.98
26/01/2020 15:58:49	26012020	260120	155849	101.340	12.270055	-56.521968	101.450	0.130	-0.140	0.480	101.360	-1.600	0.800																			1580054329.0	11.24	20.82
26/01/2020 15:58:50	26012020	260120	155850	101.430	12.270045	-56.521918	101.480	-0.210	-0.130	0.590	101.440	-1.500	0.900																			1580054330.0	10.97	20.32
26/01/2020 15:58:51	26012020	260120	155851	101.450	12.270033	-56.521868	101.420	-0.410	-0.440	0.600	101.440	-1.700	1.000																			1580054331.0	10.72	19.85
26/01/2020 15:58:52	26012020	260120	155852	101.370	12.270022	-56.521817	101.230	-0.340	-0.920	0.620	101.340	-2.100	1.000																			1580054332.0	10.84	20.08
26/01/2020 15:58:53	26012020	260120	155853	101.170	12.270010	-56.521763	100.990	-0.130	-1.120	0.670	101.120	-2.500	1.000																			1580054333.0	11.24	20.82
26/01/2020 15:58:54	26012020	260120	155854	100.930	12.269998	-56.521712	100.780	-0.040	-0.850	0.630	100.880	-2.400	1.000																			1580054334.0	11.57	21.43
26/01/2020 15:58:55	26012020	260120	155855	100.720	12.269987	-56.521660	100.600	-0.040	-0.370	0.480	100.690	-1.900	0.900																			1580054335.0	11.39	21.09
26/01/2020 15:58:56	26012020	260120	155856	100.560	12.269977	-56.521608	100.520	-0.040	0.140	0.220	100.540	-1.400	0.700																			1580054336.0	11.05	20.46
26/01/2020 15:58:57	26012020	260120	155857	100.500	12.269967	-56.521558	100.670	-0.080	0.550	-0.080	100.510	-1.000	0.400																			1580054337.0	11.02	20.41
26/01/2020 15:58:58	26012020	260120	155858	100.670	12.269958	-56.521507	100.960	-0.110	0.690	-0.240	100.730	-0.700	0.100																			1580054338.0	11.01	20.39
26/01/2020 15:58:59	26012020	260120	155859	100.980	12.269948	-56.521455	101.200	-0.040	0.510	-0.170	101.030	-0.800	0.100	1015.70	26.30	26.40	19.20	19.30	882.00	65.00	65.00	367.00	29.40	352.00	9.40	81.00	3.80	65044	3228.00	27.60	27.60	1580054339.0	10.99	20.35
26/01/2020 15:59:00	26012020	260120	155900	101.200	12.269937	-56.521403	101.340	0.180	-0.010	0.030	101.230	-1.200	0.300																			1580054340.0	11.04	20.45
26/01/2020 15:59:01	26012020	260120	155901	101.340	12.269927	-56.521352	101.450	0.410	-0.590	0.250	101.360	-1.800	0.500																			1580054341.0	11.16	20.67
26/01/2020 15:59:02	26012020	260120	155902	101.440	12.269915	-56.521298	101.580	0.430	-0.720	0.450	101.470	-2.100	0.800																			1580054342.0	11.42	21.15
26/01/2020 15:59:03	26012020	260120	155903	101.560	12.269905	-56.521248	101.620	0.240	-0.490	0.540	101.580	-1.900	0.900																			1580054343.0	11.37	21.06
26/01/2020 15:59:04	26012020	260120	155904	101.570	12.269895	-56.521200	101.440	0.130	-0.530	0.580	101.550	-1.800	0.900																			1580054344.0	10.78	19.96
26/01/2020 15:59:05	26012020	260120	155905	101.380	12.269885	-56.521148	101.150	0.150	-0.880	0.580	101.320	-2.100	0.900																			1580054345.0	10.48	19.41
26/01/2020 15:59:06	26012020	260120	155906	101.080	12.269873	-56.521095	100.840	0.080	-0.990	0.560	101.010	-2.400	0.900																			1580054346.0	11.02	20.41
26/01/2020 15:59:07	26012020	260120	155907	100.780	12.269863	-56.521043	100.620	-0.200	-0.640	0.490	100.720	-2.200	0.900																			1580054347.0	11.53	21.35
26/01/2020 15:59:08	26012020	260120	155908	100.560	12.269852	-56.520992	100.510	-0.500	-0.200	0.490	100.530	-1.700	0.800																			1580054348.0	11.34	21.00
26/01/2020 15:59:09	26012020	260120	155909	100.450	12.269840	-56.520942	100.470	-0.660	0.100	0.500	100.450	-1.400	0.900																			1580054349.0	10.99	20.35
26/01/2020 15:59:10	26012020	260120	155910	100.440	12.269827	-56.520890	100.470	-0.610	0.300	0.430	100.440	-1.100	0.800																			1580054350.0	11.07	20.50
26/01/2020 15:59:11	26012020	260120	155911	100.440	12.269815	-56.520838	100.510	-0.360	0.340	0.310	100.440	-1.000	0.700																			1580054351.0	11.24	20.82
26/01/2020 15:59:12	26012020	260120	155912	100.500	12.269805	-56.520787	100.740	0.060	0.140	-0.020	100.530	-1.100	0.500																			1580054352.0	11.23	20.80
26/01/2020 15:59:13	26012020	260120	155913	100.770	12.269795	-56.520733	101.150	0.420	-0.090	-0.380	100.860	-1.400	0.100																			1580054353.0	11.29	20.91
26/01/2020 15:59:14	26012020	260120	155914	101.180	12.269787	-56.520680	101.420	0.490	-0.040	-0.400	101.260	-1.500	-0.100																			1580054354.0	11.44	21.19
26/01/2020 15:59:15	26012020	260120	155915	101.440	12.269778	-56.520630	101.450	0.340	0.120	-0.060	101.460	-1.300	0.100																			1580054355.0	11.28	20.89
26/01/2020 15:59:16	26012020	260120	155916	101.440	12.269768	-56.520582	101.350	0.290	-0.160	0.340	101.420	-1.400	0.600																			1580054356.0	10.72	19.85
26/01/2020 15:59:17	26012020	260120	155917	101.330	12.269758	-56.520530	101.300	0.360	-0.810	0.550	101.310	-1.900	0.900																			1580054357.0	10.52	19.48
26/01/2020 15:59:18	26012020	260120	155918	101.270	12.269747	-56.520477	101.220	0.300	-1.170	0.620	101.260	-2.500	1.000																			1580054358.0	11.09	20.54
26/01/2020 15:59:19	26012020	260120	155919	101.180	12.269735	-56.520425	101.000	0.040	-0.870	0.750	101.150	-2.400	1.000																			1580054359.0	11.57	21.43
26/01/2020 15:59:20	26012020	260120	155920	100.940	12.269725	-56.520375	100.690	-0.220	-0.290	0.920	100.870	-1.900	1.200																			1580054360.0	11.25	20.84
26/01/2020 15:59:21	26012020	260120	155921	100.620	12.269713	-56.520327	100.560	-0.350	0.050	0.770	100.580	-1.400	1.200																			1580054361.0	10.67	19.76
26/01/2020 15:59:22	26012020	260120	155922	100.520	12.269703	-56.520277	100.620	-0.330	-0.010	0.320	100.530	-1.300	0.800																			1580054362.0	10.60	19.63
26/01/2020 15:59:23	26012020	260120	155923	100.600	12.269693	-56.520223	100.650	-0.180	-0.300	0.080	100.610	-1.500	0.500																			1580054363.0	10.98	20.33
26/01/2020 15:59:24	26012020	260120	155924	100.640	12.269683	-56.520170	100.630	-0.020	-0.530	0.140	100.630	-1.800	0.400																			1580054364.0	11.37	21.06
26/01/2020 15:59:25	26012020	260120	155925	100.600	12.269672	-56.520117	100.600	0.010	-0.430	0.360	100.590	-1.900	0.600																			1580054365.0	11.61	21.50
26/01/2020 15:59:26	26012020	260120	155926	100.570	12.269660	-56.520065	100.710	-0.080	-0.060	0.450	100.590	-1.600	0.800																			1580054366.0	11.54	21.37
26/01/2020 15:59:27	26012020	260120	155927	100.690	12.269650	-56.520015	100.880	-0.130	0.240	0.350	100.720	-1.200	0.800																			1580054367.0	11.15	20.65
26/01/2020 15:59:28	26012020	260120	155928	100.860	12.269640	-56.519965	100.990	-0.060	0.170	0.250	100.890	-1.100	0.600																			1580054368.0	10.78	19.96
26/01/2020 15:59:29	26012020	260120	155929	100.970	12.269632	-56.519912	101.080	0.060	-0.140	0.220	100.990	-1.400	0.600																			1580054369.0	10.87	20.13
26/01/2020 15:59:30	26012020	260120	155930	101.060	12.269622	-56.519860	101.190	0.040	-0.270	0.220	101.080	-1.600	0.600																			1580054370.0	11.24	20.82
26/01/2020 15:59:31	26012020	260120	155931	101.170	12.269610	-56.519808	101.310	-0.140	-0.020	0.220	101.200	-1.500	0.600																			1580054371.0	11.41	21.13
26/01/2020 15:59:32	26012020	260120	155932	101.280	12.269600	-56.519760	101.390	-0.200	0.130	0.160	101.300	-1.200	0.600																			1580054372.0	11.01	20.39
26/01/2020 15:59:33	26012020	260120	155933	101.360	12.269590	-56.519710	101.400	0.110	-0.290	0.090	101.370	-1.400	0.500																			1580054373.0	10.51	19.46
26/01/2020 15:59:34	26012020	260120	155934	101.370	12.269580	-56.519658	101.290	0.580	-0.960	0.100	101.350	-2.100	0.500																			1580054374.0	10.64	19.71
26/01/2020 15:59:35	26012020	260120	155935	101.250	12.269570	-56.519603	101.130	0.800	-1.100	0.110	101.210	-2.500	0.500																			1580054375.0	11.41	21.13
26/01/2020 15:59:36	26012020	260120	155936	101.070	12.269562	-56.519552	101.010	0.610	-0.620	0.160	101.050	-2.200	0.500																			1580054376.0	11.70	21.67
26/01/2020 15:59:37	26012020	260120	155937	100.970	12.269552	-56.519502	100.970	0.180	-0.170	0.370	100.960	-1.700	0.600																			1580054377.0	11.14	20.63
26/01/2020 15:59:38	26012020	260120	155938	100.930	12.269542	-56.519452	100.960	-0.240	-0.040	0.700	100.930	-1.400	0.900																			1580054378.0	10.61	19.65
26/01/2020 15:59:39	26012020	260120	155939	100.920	12.269530	-56.519400	100.950	-0.550	-0.110	0.990	100.930	-1.400	1.200																			1580054379.0	10.80	20.00
26/01/2020 15:59:40	26012020	260120	155940	100.890	12.269517	-56.519348	100.840	-0.680	-0.170	1.290	100.870	-1.500	1.500																			1580054380.0	11.20	20.74
26/01/2020 15:59:41	26012020	260120	155941	100.770	12.269502	-56.519297	100.760	-0.630	-0.210	1.300	100.750	-1.600	1.700																			1580054381.0	11.38	21.08
26/01/2020 15:59:42	26012020	260120	155942	100.700	12.269490	-56.519245	100.810	-0.430	-0.250	0.900	100.710	-1.600	1.400																			1580054382.0	11.37	21.06
26/01/2020 15:59:43	26012020	260120	155943	100.780	12.269480	-56.519192	101.030	-0.190	-0.130	0.380	100.820	-1.600	0.900																			1580054383.0	11.32	20.96
26/01/2020 15:59:44	26012020	260120	155944	101.030	12.269470	-56.519142	101.340	-0.030	0.220	-0.100	101.100	-1.300	0.400																			1580054384.0	11.29	20.91
26/01/2020 15:59:45	26012020	260120	155945	101.350	12.269462	-56.519092	101.540	-0.000	0.480	-0.340	101.400	-0.900	0.100																			1580054385.0	11.03	20.43
26/01/2020 15:59:46	26012020	260120	155946	101.530	12.269453	-56.519042	101.510	0.150	0.120	-0.250	101.540	-1.000	0.100																			1580054386.0	10.66	19.74
26/01/2020 15:59:47	26012020	260120	155947	101.500	12.269443	-56.518990	101.470	0.580	-0.760	-0.180	101.480	-1.800	0.200																			1580054387.0	10.62	19.67
26/01/2020 15:59:48	26012020	260120	155948	101.460	12.269435	-56.518933	101.490	1.000	-1.300	-0.200	101.460	-2.600	0.200																			1580054388.0	11.28	20.89
26/01/2020 15:59:49	26012020	260120	155949	101.470	12.269427	-56.518880	101.480	0.950	-0.930	-0.150	101.470	-2.500	0.200																			1580054389.0	11.88	22.00
26/01/2020 15:59:50	26012020	260120	155950	101.450	12.269418	-56.518830	101.390	0.380	-0.140	0.110	101.440	-1.800	0.400																			1580054390.0	11.52	21.34
26/01/2020 15:59:51	26012020	260120	155951	101.340	12.269408	-56.518783	101.220	-0.330	0.290	0.560	101.310	-1.200	0.800																			1580054391.0	10.60	19.63
26/01/2020 15:59:52	26012020	260120	155952	101.160	12.269395	-56.518733	101.060	-0.840	0.140	0.910	101.120	-1.100	1.200																			1580054392.0	10.29	19.06
26/01/2020 15:59:53	26012020	260120	155953	100.990	12.269382	-56.518682	100.910	-0.940	-0.310	0.950	100.960	-1.500	1.300																			1580054393.0	10.80	20.00
26/01/2020 15:59:54	26012020	260120	155954	100.840	12.269368	-56.518628	100.730	-0.620	-0.690	0.840	100.810	-1.900	1.200																			1580054394.0	11.37	21.06
26/01/2020 15:59:55	26012020	260120	155955	100.670	12.269355	-56.518575	100.580	-0.160	-0.710	0.640	100.630	-2.100	1.100																			1580054395.0	11.68	21.63
26/01/2020 15:59:56	26012020	260120	155956	100.530	12.269343	-56.518523	100.580	0.140	-0.320	0.290	100.510	-1.900	0.800																			1580054396.0	11.64	21.56
26/01/2020 15:59:57	26012020	260120	155957	100.560	12.269335	-56.518473	100.760	0.200	0.200	-0.090	100.590	-1.300	0.400																			1580054397.0	11.28	20.89
26/01/2020 15:59:58	26012020	260120	155958	100.760	12.269327	-56.518423	101.010	0.170	0.410	-0.310	100.810	-1.000	0.100																			1580054398.0	10.84	20.08
26/01/2020 15:59:59	26012020	260120	155959	101.010	12.269318	-56.518372	101.250	0.190	0.190	-0.270	101.060	-1.100	0.000	1015.70	26.30	26.40	19.20	19.30	965.00	65.00	65.00	367.00	29.40	355.00	8.70	88.00	3.10	69266	3231.00	27.70	27.60	1580054399.0	10.67	19.76
26/01/2020 16:00:00	26012020	260120	160000	101.250	12.269298	-56.518268	101.440	0.230	-0.160	0.060	101.290	-1.400	0.300																			1580054400.0	10.93	20.24
26/01/2020 16:00:01	26012020	260120	160001	101.430	12.269298	-56.518268	101.530	0.270	-0.450	0.430	101.450	-1.700	0.700																			1580054401.0	11.23	20.80
26/01/2020 16:00:02	26012020	260120	160002	101.500	12.269287	-56.518217	101.530	0.260	-0.640	0.600	101.500	-1.900	0.900																			1580054402.0	11.23	20.80
26/01/2020 16:00:03	26012020	260120	160003	101.480	12.269277	-56.518165	101.470	0.150	-0.690	0.610	101.470	-2.100	1.000																			1580054403.0	11.12	20.59
26/01/2020 16:00:04	26012020	260120	160004	101.420	12.269265	-56.518113	101.370	-0.070	-0.560	0.690	101.400	-2.000	1.000																			1580054404.0	11.10	20.56
26/01/2020 16:00:05	26012020	260120	160005	101.310	12.269255	-56.518063	101.190	-0.300	-0.330	0.730	101.280	-1.800	1.100																			1580054405.0	11.04	20.45
26/01/2020 16:00:06	26012020	260120	160006	101.120	12.269243	-56.518013	100.910	-0.430	-0.180	0.690	101.070	-1.600	1.100																			1580054406.0	10.96	20.30
26/01/2020 16:00:07	26012020	260120	160007	100.840	12.269233	-56.517962	100.700	-0.320	-0.260	0.550	100.780	-1.600	1.000																			1580054407.0	10.93	20.24
26/01/2020 16:00:08	26012020	260120	160008	100.650	12.269222	-56.517908	100.680	0.020	-0.520	0.300	100.640	-1.800	0.800																			1580054408.0	11.09	20.54
26/01/2020 16:00:09	26012020	260120	160009	100.650	12.269212	-56.517855	100.730	0.340	-0.540	0.070	100.660	-2.000	0.500																			1580054409.0	11.44	21.19
26/01/2020 16:00:10	26012020	260120	160010	100.700	12.269202	-56.517802	100.840	0.350	-0.050	-0.040	100.720	-1.700	0.300																			1580054410.0	11.71	21.69
26/01/2020 16:00:11	26012020	260120	160011	100.820	12.269192	-56.517752	101.090	0.130	0.670	-0.060	100.870	-0.900	0.300																			1580054411.0	11.42	21.15
26/01/2020 16:00:12	26012020	260120	160012	101.090	12.269183	-56.517703	101.470	-0.090	0.910	-0.050	101.160	-0.500	0.300																			1580054412.0	10.70	19.82
26/01/2020 16:00:13	26012020	260120	160013	101.460	12.269173	-56.517653	101.790	-0.160	0.330	0.000	101.530	-0.800	0.300																			1580054413.0	10.33	19.13
26/01/2020 16:00:14	26012020	260120	160014	101.780	12.269162	-56.517602	101.920	-0.080	-0.650	0.270	101.820	-1.700	0.500																			1580054414.0	10.71	19.83
26/01/2020 16:00:15	26012020	260120	160015	101.880	12.269150	-56.517548	101.780	0.060	-1.230	0.680	101.870	-2.500	0.900																			1580054415.0	11.40	21.11
26/01/2020 16:00:16	26012020	260120	160016	101.700	12.269137	-56.517497	101.410	0.120	-1.200	0.960	101.640	-2.600	1.200																			1580054416.0	11.68	21.63
26/01/2020 16:00:17	26012020	260120	160017	101.320	12.269127	-56.517447	101.030	0.090	-0.940	0.950	101.240	-2.400	1.300																			1580054417.0	11.27	20.87
26/01/2020 16:00:18	26012020	260120	160018	100.960	12.269117	-56.517395	100.810	0.070	-0.720	0.720	100.900	-2.200	1.200																			1580054418.0	10.82	20.04
26/01/2020 16:00:19	26012020	260120	160019	100.750	12.269107	-56.517343	100.690	0.020	-0.370	0.470	100.720	-1.900	0.900																			1580054419.0	10.94	20.26
26/01/2020 16:00:20	26012020	260120	160020	100.650	12.269098	-56.517292	100.650	-0.120	0.130	0.330	100.640	-1.400	0.700																			1580054420.0	11.22	20.78
26/01/2020 16:00:21	26012020	260120	160021	100.610	12.269087	-56.517240	100.680	-0.240	0.500	0.290	100.610	-1.000	0.700																			1580054421.0	11.18	20.71
26/01/2020 16:00:22	26012020	260120	160022	100.640	12.269075	-56.517190	100.750	-0.150	0.440	0.280	100.650	-0.900	0.600																			1580054422.0	10.99	20.35
26/01/2020 16:00:23	26012020	260120	160023	100.730	12.269065	-56.517137	101.030	0.070	0.120	0.180	100.770	-1.100	0.600																			1580054423.0	11.06	20.48
26/01/2020 16:00:24	26012020	260120	160024	101.030	12.269057	-56.517083	101.450	0.170	-0.040	0.150	101.120	-1.400	0.500																			1580054424.0	11.41	21.13
26/01/2020 16:00:25	26012020	260120	160025	101.450	12.269045	-56.517032	101.780	0.060	-0.000	0.330	101.530	-1.400	0.600																			1580054425.0	11.48	21.26
26/01/2020 16:00:26	26012020	260120	160026	101.770	12.269035	-56.516983	101.870	-0.050	-0.110	0.580	101.790	-1.400	0.900																			1580054426.0	11.05	20.46
26/01/2020 16:00:27	26012020	260120	160027	101.820	12.269023	-56.516933	101.750	0.030	-0.520	0.730	101.810	-1.700	1.100																			1580054427.0	10.69	19.80
26/01/2020 16:00:28	26012020	260120	160028	101.690	12.269013	-56.516880	101.560	0.180	-0.910	0.670	101.650	-2.200	1.100																			1580054428.0	10.86	20.11
26/01/2020 16:00:29	26012020	260120	160029	101.500	12.269003	-56.516828	101.450	0.210	-1.000	0.470	101.480	-2.400	0.900																			1580054429.0	11.24	20.82
26/01/2020 16:00:30	26012020	260120	160030	101.420	12.268993	-56.516777	101.470	0.070	-0.750	0.280	101.410	-2.200	0.700																			1580054430.0	11.28	20.89
26/01/2020 16:00:31	26012020	260120	160031	101.430	12.268983	-56.516727	101.440	-0.110	-0.440	0.230	101.430	-1.900	0.600																			1580054431.0	11.10	20.56
26/01/2020 16:00:32	26012020	260120	160032	101.390	12.268972	-56.516675	101.260	-0.180	-0.220	0.350	101.360	-1.700	0.700																			1580054432.0	10.90	20.19
26/01/2020 16:00:33	26012020	260120	160033	101.210	12.268960	-56.516623	101.110	-0.150	-0.000	0.420	101.170	-1.500	0.800																			1580054433.0	11.02	20.41
26/01/2020 16:00:34	26012020	260120	160034	101.070	12.268950	-56.516572	101.180	-0.120	0.160	0.250	101.070	-1.200	0.700																			1580054434.0	11.22	20.78
26/01/2020 16:00:35	26012020	260120	160035	101.170	12.268940	-56.516520	101.400	-0.150	0.100	-0.050	101.220	-1.200	0.400																			1580054435.0	11.23	20.80
26/01/2020 16:00:36	26012020	260120	160036	101.390	12.268930	-56.516467	101.510	-0.160	-0.040	-0.080	101.430	-1.400	0.200																			1580054436.0	11.23	20.80
26/01/2020 16:00:37	26012020	260120	160037	101.490	12.268918	-56.516415	101.510	-0.110	-0.050	0.200	101.490	-1.400	0.500																			1580054437.0	11.36	21.04
26/01/2020 16:00:38	26012020	260120	160038	101.490	12.268907	-56.516363	101.540	-0.020	-0.020	0.340	101.490	-1.400	0.700																			1580054438.0	11.32	20.96
26/01/2020 16:00:39	26012020	260120	160039	101.530	12.268895	-56.516313	101.620	0.080	-0.170	0.280	101.540	-1.500	0.700																			1580054439.0	11.06	20.48
26/01/2020 16:00:40	26012020	260120	160040	101.610	12.268885	-56.516262	101.720	0.130	-0.340	0.110	101.630	-1.700	0.500																			1580054440.0	11.00	20.37
26/01/2020 16:00:41	26012020	260120	160041	101.710	12.268875	-56.516210	101.780	0.160	-0.360	0.060	101.730	-1.700	0.400																			1580054441.0	11.14	20.63
26/01/2020 16:00:42	26012020	260120	160042	101.770	12.268865	-56.516160	101.780	0.180	-0.270	0.100	101.770	-1.700	0.400																			1580054442.0	11.09	20.54
26/01/2020 16:00:43	26012020	260120	160043	101.770	12.268853	-56.516110	101.840	0.110	-0.200	0.130	101.770	-1.600	0.500																			1580054443.0	10.92	20.22
26/01/2020 16:00:44	26012020	260120	160044	101.820	12.268843	-56.516060	101.830	0.030	-0.410	0.230	101.830	-1.700	0.500																			1580054444.0	10.81	20.02
26/01/2020 16:00:45	26012020	260120	160045	101.790	12.268832	-56.516007	101.570	0.120	-0.920	0.560	101.760	-2.100	0.800																			1580054445.0	10.85	20.09
26/01/2020 16:00:46	26012020	260120	160046	101.500	12.268820	-56.515953	101.170	0.310	-1.220	0.920	101.420	-2.500	1.200																			1580054446.0	11.22	20.78
26/01/2020 16:00:47	26012020	260120	160047	101.090	12.268808	-56.515900	100.910	0.250	-0.840	1.010	101.010	-2.400	1.400																			1580054447.0	11.71	21.69
26/01/2020 16:00:48	26012020	260120	160048	100.850	12.268798	-56.515848	100.960	-0.130	-0.040	0.800	100.840	-1.700	1.300																			1580054448.0	11.66	21.59
26/01/2020 16:00:49	26012020	260120	160049	100.930	12.268788	-56.515798	101.170	-0.570	0.480	0.560	100.970	-1.000	1.000																			1580054449.0	11.02	20.41
26/01/2020 16:00:50	26012020	260120	160050	101.140	12.268777	-56.515748	101.350	-0.760	0.510	0.570	101.170	-0.800	0.900																			1580054450.0	10.68	19.78
26/01/2020 16:00:51	26012020	260120	160051	101.320	12.268763	-56.515697	101.480	-0.650	0.310	0.670	101.340	-1.000	1.000																			1580054451.0	11.01	20.39
26/01/2020 16:00:52	26012020	260120	160052	101.450	12.268748	-56.515643	101.590	-0.390	0.150	0.580	101.460	-1.200	1.000																			1580054452.0	11.44	21.19
26/01/2020 16:00:53	26012020	260120	160053	101.560	12.268737	-56.515592	101.730	-0.120	0.140	0.170	101.590	-1.200	0.700																			1580054453.0	11.48	21.26
26/01/2020 16:00:54	26012020	260120	160054	101.720	12.268728	-56.515542	101.910	0.150	-0.000	-0.280	101.760	-1.300	0.200																			1580054454.0	11.20	20.74
26/01/2020 16:00:55	26012020	260120	160055	101.910	12.268720	-56.515490	102.050	0.490	-0.490	-0.460	101.940	-1.700	-0.100																			1580054455.0	10.84	20.08
26/01/2020 16:00:56	26012020	260120	160056	102.040	12.268712	-56.515438	102.010	0.820	-0.970	-0.370	102.040	-2.200	-0.100																			1580054456.0	10.95	20.28
26/01/2020 16:00:57	26012020	260120	160057	101.980	12.268702	-56.515385	101.760	0.930	-1.010	-0.040	101.940	-2.400	0.200																			1580054457.0	11.34	21.00
26/01/2020 16:00:58	26012020	260120	160058	101.700	12.268692	-56.515335	101.450	0.730	-0.700	0.350	101.640	-2.200	0.600																			1580054458.0	11.35	21.02
26/01/2020 16:00:59	26012020	260120	160059	101.390	12.268682	-56.515285	101.240	0.330	-0.390	0.580	101.340	-1.800	0.900	1015.70	26.30	26.40	19.20	19.30	984.00	65.00	65.00	368.00	29.50	354.00	8.90	84.00	3.30	70299	3151.00	27.60	27.60	1580054459.0	10.98	20.33
26/01/2020 16:01:00	26012020	260120	160100	101.190	12.268672	-56.515233	101.130	-0.140	-0.240	0.670	101.160	-1.600	1.000																			1580054460.0	10.76	19.93
26/01/2020 16:01:01	26012020	260120	160101	101.070	12.268660	-56.515182	101.020	-0.570	-0.200	0.820	101.060	-1.600	1.100																			1580054461.0	10.97	20.32
26/01/2020 16:01:02	26012020	260120	160102	100.970	12.268647	-56.515130	100.910	-0.850	-0.140	1.020	100.940	-1.500	1.300																			1580054462.0	11.23	20.80
26/01/2020 16:01:03	26012020	260120	160103	100.860	12.268632	-56.515078	100.860	-0.920	-0.020	1.090	100.830	-1.400	1.400																			1580054463.0	11.39	21.09
26/01/2020 16:01:04	26012020	260120	160104	100.810	12.268617	-56.515027	100.940	-0.730	-0.040	0.890	100.820	-1.400	1.300																			1580054464.0	11.37	21.06
26/01/2020 16:01:05	26012020	260120	160105	100.890	12.268605	-56.514975	101.100	-0.340	-0.150	0.520	100.920	-1.500	1.000																			1580054465.0	11.26	20.85
26/01/2020 16:01:06	26012020	260120	160106	101.070	12.268595	-56.514922	101.380	-0.020	0.020	0.110	101.120	-1.400	0.600																			1580054466.0	11.40	21.11
26/01/2020 16:01:07	26012020	260120	160107	101.370	12.268585	-56.514872	101.680	0.130	0.320	-0.250	101.440	-1.100	0.200																			1580054467.0	11.41	21.13
26/01/2020 16:01:08	26012020	260120	160108	101.680	12.268577	-56.514822	101.840	0.340	0.190	-0.390	101.720	-1.100	-0.000																			1580054468.0	10.91	20.21
26/01/2020 16:01:09	26012020	260120	160109	101.820	12.268568	-56.514770	101.810	0.710	-0.430	-0.270	101.820	-1.500	0.000																			1580054469.0	10.63	19.69
26/01/2020 16:01:10	26012020	260120	160110	101.780	12.268558	-56.514715	101.670	1.010	-0.960	-0.090	101.750	-2.200	0.200																			1580054470.0	11.09	20.54
26/01/2020 16:01:11	26012020	260120	160111	101.630	12.268550	-56.514662	101.540	0.950	-0.980	0.120	101.600	-2.400	0.400																			1580054471.0	11.60	21.48
26/01/2020 16:01:12	26012020	260120	160112	101.490	12.268540	-56.514610	101.440	0.470	-0.550	0.440	101.470	-2.100	0.700																			1580054472.0	11.49	21.28
26/01/2020 16:01:13	26012020	260120	160113	101.390	12.268530	-56.514562	101.350	-0.260	-0.040	0.760	101.370	-1.600	1.000																			1580054473.0	11.02	20.41
26/01/2020 16:01:14	26012020	260120	160114	101.290	12.268518	-56.514513	101.360	-0.850	0.170	0.880	101.290	-1.200	1.200																			1580054474.0	10.64	19.71
26/01/2020 16:01:15	26012020	260120	160115	101.310	12.268505	-56.514462	101.340	-1.030	-0.010	0.960	101.320	-1.300	1.300																			1580054475.0	10.66	19.74
26/01/2020 16:01:16	26012020	260120	160116	101.280	12.268490	-56.514410	101.180	-0.840	-0.330	0.960	101.260	-1.600	1.300																			1580054476.0	11.05	20.46
26/01/2020 16:01:17	26012020	260120	160117	101.100	12.268475	-56.514357	100.970	-0.420	-0.590	0.720	101.060	-1.900	1.200																			1580054477.0	11.48	21.26
26/01/2020 16:01:18	26012020	260120	160118	100.910	12.268463	-56.514303	100.840	0.060	-0.660	0.330	100.880	-2.000	0.800																			1580054478.0	11.61	21.50
26/01/2020 16:01:19	26012020	260120	160119	100.810	12.268453	-56.514252	100.880	0.410	-0.420	-0.150	100.810	-1.900	0.400																			1580054479.0	11.55	21.39
26/01/2020 16:01:20	26012020	260120	160120	100.880	12.268445	-56.514200	100.990	0.480	0.080	-0.470	100.900	-1.500	-0.000																			1580054480.0	11.42	21.15
26/01/2020 16:01:21	26012020	260120	160121	101.000	12.268438	-56.514148	101.120	0.340	0.450	-0.550	101.030	-1.000	-0.200																			1580054481.0	11.08	20.52
26/01/2020 16:01:22	26012020	260120	160122	101.120	12.268430	-56.514098	101.250	0.200	0.350	-0.270	101.140	-0.900	-0.100																			1580054482.0	10.72	19.85
26/01/2020 16:01:23	26012020	260120	160123	101.250	12.268418	-56.514047	101.380	0.140	-0.160	0.270	101.270	-1.300	0.400																			1580054483.0	10.76	19.93
26/01/2020 16:01:24	26012020	260120	160124	101.340	12.268407	-56.513995	101.280	0.120	-0.710	0.740	101.340	-1.900	0.900																			1580054484.0	11.16	20.67
26/01/2020 16:01:25	26012020	260120	160125	101.210	12.268393	-56.513942	100.920	0.080	-0.870	1.030	101.140	-2.200	1.300																			1580054485.0	11.48	21.26
26/01/2020 16:01:26	26012020	260120	160126	100.830	12.268382	-56.513890	100.650	-0.050	-0.550	1.150	100.760	-2.000	1.500																			1580054486.0	11.51	21.32
26/01/2020 16:01:27	26012020	260120	160127	100.570	12.268370	-56.513842	100.620	-0.210	-0.210	0.910	100.550	-1.600	1.400																			1580054487.0	11.14	20.63
26/01/2020 16:01:28	26012020	260120	160128	100.570	12.268360	-56.513792	100.700	-0.240	-0.180	0.530	100.590	-1.500	1.000																			1580054488.0	10.72	19.85
26/01/2020 16:01:29	26012020	260120	160129	100.650	12.268352	-56.513738	100.720	-0.160	-0.250	0.440	100.650	-1.600	0.800																			1580054489.0	10.83	20.06
26/01/2020 16:01:30	26012020	260120	160130	100.670	12.268340	-56.513687	100.730	-0.120	-0.130	0.540	100.670	-1.500	0.900																			1580054490.0	11.27	20.87
26/01/2020 16:01:31	26012020	260120	160131	100.670	12.268328	-56.513635	100.750	-0.070	-0.080	0.490	100.680	-1.400	0.900																			1580054491.0	11.32	20.96
26/01/2020 16:01:32	26012020	260120	160132	100.690	12.268317	-56.513583	100.740	0.150	-0.340	0.280	100.700	-1.600	0.700																			1580054492.0	11.04	20.45
26/01/2020 16:01:33	26012020	260120	160133	100.680	12.268308	-56.513530	100.650	0.420	-0.660	0.070	100.670	-1.900	0.500																			1580054493.0	11.11	20.58
26/01/2020 16:01:34	26012020	260120	160134	100.600	12.268300	-56.513477	100.560	0.450	-0.540	-0.040	100.570	-2.000	0.400																			1580054494.0	11.53	21.35
26/01/2020 16:01:35	26012020	260120	160135	100.530	12.268292	-56.513425	100.580	0.140	-0.050	0.060	100.520	-1.600	0.400																			1580054495.0	11.59	21.46
26/01/2020 16:01:36	26012020	260120	160136	100.550	12.268282	-56.513375	100.680	-0.290	0.290	0.260	100.560	-1.100	0.500																			1580054496.0	11.06	20.48
26/01/2020 16:01:37	26012020	260120	160137	100.640	12.268270	-56.513325	100.750	-0.520	0.160	0.460	100.660	-1.100	0.700																			1580054497.0	10.64	19.71
26/01/2020 16:01:38	26012020	260120	160138	100.700	12.268258	-56.513273	100.710	-0.490	-0.200	0.620	100.700	-1.400	0.900																			1580054498.0	10.81	20.02
26/01/2020 16:01:39	26012020	260120	160139	100.650	12.268245	-56.513222	100.650	-0.320	-0.420	0.710	100.640	-1.700	1.000																			1580054499.0	11.32	20.96
26/01/2020 16:01:40	26012020	260120	160140	100.590	12.268233	-56.513170	100.590	-0.080	-0.390	0.660	100.570	-1.800	1.100																			1580054500.0	11.47	21.24
26/01/2020 16:01:41	26012020	260120	160141	100.550	12.268223	-56.513118	100.590	0.170	-0.400	0.340	100.540	-1.700	0.800																			1580054501.0	11.22	20.78
26/01/2020 16:01:42	26012020	260120	160142	100.550	12.268215	-56.513067	100.560	0.390	-0.550	0.050	100.550	-1.800	0.500																			1580054502.0	10.99	20.35
26/01/2020 16:01:43	26012020	260120	160143	100.530	12.268207	-56.513013	100.510	0.530	-0.600	-0.010	100.510	-2.000	0.400																			1580054503.0	11.12	20.59
26/01/2020 16:01:44	26012020	260120	160144	100.470	12.268197	-56.512962	100.510	0.450	-0.280	0.120	100.460	-1.800	0.400																			1580054504.0	11.35	21.02
26/01/2020 16:01:45	26012020	260120	160145	100.470	12.268187	-56.512912	100.560	0.100	0.190	0.430	100.480	-1.300	0.700																			1580054505.0	11.27	20.87
26/01/2020 16:01:46	26012020	260120	160146	100.510	12.268177	-56.512862	100.530	-0.260	0.250	0.640	100.510	-1.100	1.000																			1580054506.0	10.86	20.11
26/01/2020 16:01:47	26012020	260120	160147	100.470	12.268165	-56.512810	100.430	-0.260	-0.260	0.670	100.450	-1.400	1.000																			1580054507.0	10.65	19.72
26/01/2020 16:01:48	26012020	260120	160148	100.370	12.268155	-56.512757	100.380	0.030	-0.780	0.660	100.360	-2.000	1.000																			1580054508.0	11.09	20.54
26/01/2020 16:01:49	26012020	260120	160149	100.330	12.268143	-56.512702	100.440	0.140	-0.650	0.540	100.340	-2.100	1.000																			1580054509.0	11.73	21.72
26/01/2020 16:01:50	26012020	260120	160150	100.400	12.268133	-56.512652	100.520	-0.110	-0.030	0.420	100.420	-1.600	0.800																			1580054510.0	11.73	21.72
26/01/2020 16:01:51	26012020	260120	160151	100.480	12.268125	-56.512603	100.510	-0.390	0.230	0.490	100.490	-1.100	0.800																			1580054511.0	10.93	20.24
26/01/2020 16:01:52	26012020	260120	160152	100.470	12.268113	-56.512553	100.380	-0.340	-0.200	0.580	100.440	-1.400	0.900																			1580054512.0	10.40	19.26
26/01/2020 16:01:53	26012020	260120	160153	100.330	12.268103	-56.512498	100.260	-0.070	-0.670	0.620	100.290	-1.900	1.000																			1580054513.0	10.90	20.19
26/01/2020 16:01:54	26012020	260120	160154	100.220	12.268092	-56.512445	100.300	0.140	-0.630	0.790	100.220	-2.100	1.100																			1580054514.0	11.68	21.63
26/01/2020 16:01:55	26012020	260120	160155	100.260	12.268080	-56.512393	100.390	0.150	-0.160	0.840	100.280	-1.700	1.200																			1580054515.0	11.66	21.59
26/01/2020 16:01:56	26012020	260120	160156	100.360	12.268070	-56.512343	100.430	0.050	0.200	0.630	100.370	-1.200	1.100																			1580054516.0	11.09	20.54
26/01/2020 16:01:57	26012020	260120	160157	100.390	12.268062	-56.512293	100.400	0.040	0.070	0.470	100.380	-1.200	0.900																			1580054517.0	10.65	19.72
26/01/2020 16:01:58	26012020	260120	160158	100.370	12.268053	-56.512242	100.520	0.160	-0.230	0.360	100.380	-1.500	0.800																			1580054518.0	10.83	20.06
26/01/2020 16:01:59	26012020	260120	160159	100.500	12.268043	-56.512188	100.720	0.210	-0.280	0.290	100.550	-1.700	0.700	1015.70	26.30	26.40	19.40	19.50	979.00	65.00	65.00	367.00	29.50	350.00	8.90	75.00	3.40	70120	3364.00	27.60	27.60	1580054519.0	11.33	20.98
26/01/2020 16:02:00	26012020	260120	160200	100.690	12.268035	-56.512137	100.750	0.100	-0.170	0.410	100.710	-1.600	0.700																			1580054520.0	11.40	21.11
26/01/2020 16:02:01	26012020	260120	160201	100.700	12.268023	-56.512087	100.640	-0.030	-0.320	0.630	100.680	-1.600	0.900																			1580054521.0	11.02	20.41
26/01/2020 16:02:02	26012020	260120	160202	100.580	12.268013	-56.512035	100.540	0.040	-0.710	0.740	100.560	-1.900	1.100																			1580054522.0	10.84	20.08
26/01/2020 16:02:03	26012020	260120	160203	100.490	12.268003	-56.511982	100.470	0.170	-0.820	0.740	100.470	-2.200	1.100																			1580054523.0	11.19	20.72
26/01/2020 16:02:04	26012020	260120	160204	100.410	12.267993	-56.511928	100.460	0.090	-0.390	0.680	100.400	-1.900	1.100																			1580054524.0	11.55	21.39
26/01/2020 16:02:05	26012020	260120	160205	100.420	12.267983	-56.511878	100.560	-0.200	0.110	0.620	100.440	-1.400	1.000																			1580054525.0	11.28	20.89
26/01/2020 16:02:06	26012020	260120	160206	100.530	12.267973	-56.511830	100.700	-0.420	0.170	0.520	100.560	-1.200	0.900																			1580054526.0	10.71	19.83
26/01/2020 16:02:07	26012020	260120	160207	100.660	12.267963	-56.511778	100.720	-0.430	-0.090	0.380	100.680	-1.300	0.800																			1580054527.0	10.70	19.82
26/01/2020 16:02:08	26012020	260120	160208	100.680	12.267953	-56.511725	100.670	-0.240	-0.320	0.240	100.670	-1.600	0.700																			1580054528.0	11.20	20.74
26/01/2020 16:02:09	26012020	260120	160209	100.640	12.267943	-56.511672	100.640	0.060	-0.450	0.150	100.620	-1.800	0.500																			1580054529.0	11.43	21.17
26/01/2020 16:02:10	26012020	260120	160210	100.610	12.267933	-56.511620	100.690	0.330	-0.520	0.090	100.620	-1.900	0.500																			1580054530.0	11.35	21.02
26/01/2020 16:02:11	26012020	260120	160211	100.660	12.267925	-56.511567	100.730	0.410	-0.460	0.070	100.680	-1.900	0.400																			1580054531.0	11.28	20.89
26/01/2020 16:02:12	26012020	260120	160212	100.700	12.267915	-56.511515	100.700	0.260	-0.140	0.190	100.700	-1.600	0.500																			1580054532.0	11.27	20.87
26/01/2020 16:02:13	26012020	260120	160213	100.670	12.267905	-56.511465	100.750	-0.010	0.210	0.360	100.670	-1.200	0.700																			1580054533.0	11.13	20.61
26/01/2020 16:02:14	26012020	260120	160214	100.720	12.267895	-56.511415	100.840	-0.200	0.140	0.520	100.730	-1.100	0.800																			1580054534.0	10.82	20.04
26/01/2020 16:02:15	26012020	260120	160215	100.790	12.267883	-56.511363	100.840	-0.190	-0.210	0.630	100.790	-1.400	1.000																			1580054535.0	10.80	20.00
26/01/2020 16:02:16	26012020	260120	160216	100.790	12.267873	-56.511310	100.920	-0.070	-0.420	0.490	100.800	-1.700	0.900																			1580054536.0	11.22	20.78
26/01/2020 16:02:17	26012020	260120	160217	100.890	12.267863	-56.511258	101.080	0.010	-0.390	0.260	100.920	-1.800	0.700																			1580054537.0	11.45	21.21
26/01/2020 16:02:18	26012020	260120	160218	101.060	12.267855	-56.511207	101.240	0.020	-0.360	0.100	101.100	-1.700	0.500																			1580054538.0	11.22	20.78
26/01/2020 16:02:19	26012020	260120	160219	101.230	12.267845	-56.511155	101.350	0.010	-0.490	0.040	101.260	-1.800	0.400																			1580054539.0	10.98	20.33
26/01/2020 16:02:20	26012020	260120	160220	101.320	12.267833	-56.511103	101.230	0.050	-0.630	0.250	101.320	-1.900	0.500																			1580054540.0	11.04	20.45
26/01/2020 16:02:21	26012020	260120	160221	101.180	12.267822	-56.511052	101.040	0.110	-0.510	0.360	101.140	-1.900	0.700																			1580054541.0	11.25	20.84
26/01/2020 16:02:22	26012020	260120	160222	101.000	12.267812	-56.511000	100.950	0.030	-0.190	0.340	100.980	-1.700	0.700																			1580054542.0	11.33	20.98
26/01/2020 16:02:23	26012020	260120	160223	100.920	12.267802	-56.510948	100.920	-0.200	0.020	0.290	100.900	-1.400	0.700																			1580054543.0	11.13	20.61
26/01/2020 16:02:24	26012020	260120	160224	100.900	12.267792	-56.510898	100.970	-0.340	-0.080	0.130	100.910	-1.400	0.500																			1580054544.0	10.94	20.26
26/01/2020 16:02:25	26012020	260120	160225	100.940	12.267782	-56.510845	100.920	-0.200	-0.330	0.150	100.940	-1.600	0.500																			1580054545.0	11.05	20.46
26/01/2020 16:02:26	26012020	260120	160226	100.890	12.267770	-56.510792	100.830	0.110	-0.400	0.270	100.870	-1.800	0.600																			1580054546.0	11.40	21.11
26/01/2020 16:02:27	26012020	260120	160227	100.810	12.267758	-56.510738	100.830	0.250	-0.110	0.300	100.790	-1.600	0.700																			1580054547.0	11.59	21.46
26/01/2020 16:02:28	26012020	260120	160228	100.830	12.267748	-56.510688	101.040	0.120	0.260	0.180	100.860	-1.200	0.600																			1580054548.0	11.38	21.08
26/01/2020 16:02:29	26012020	260120	160229	101.060	12.267740	-56.510638	101.360	-0.100	0.310	0.030	101.120	-1.000	0.400																			1580054549.0	10.91	20.21
26/01/2020 16:02:30	26012020	260120	160230	101.380	12.267730	-56.510588	101.610	-0.110	-0.130	0.050	101.430	-1.300	0.400																			1580054550.0	10.71	19.83
26/01/2020 16:02:31	26012020	260120	160231	101.610	12.267718	-56.510535	101.720	0.090	-0.680	0.330	101.640	-1.900	0.600																			1580054551.0	10.97	20.32
26/01/2020 16:02:32	26012020	260120	160232	101.700	12.267705	-56.510482	101.650	0.280	-0.870	0.630	101.700	-2.200	0.900																			1580054552.0	11.46	21.22
26/01/2020 16:02:33	26012020	260120	160233	101.610	12.267693	-56.510430	101.530	0.300	-0.690	0.640	101.570	-2.100	1.000																			1580054553.0	11.51	21.32
26/01/2020 16:02:34	26012020	260120	160234	101.490	12.267683	-56.510380	101.510	0.100	-0.380	0.450	101.480	-1.800	0.900																			1580054554.0	11.16	20.67
26/01/2020 16:02:35	26012020	260120	160235	101.480	12.267675	-56.510330	101.530	-0.200	-0.170	0.270	101.490	-1.600	0.700																			1580054555.0	10.88	20.15
26/01/2020 16:02:36	26012020	260120	160236	101.500	12.267665	-56.510278	101.470	-0.390	-0.140	0.190	101.500	-1.500	0.600																			1580054556.0	10.85	20.09
26/01/2020 16:02:37	26012020	260120	160237	101.430	12.267653	-56.510227	101.320	-0.330	-0.290	0.290	101.400	-1.600	0.600																			1580054557.0	11.01	20.39
26/01/2020 16:02:38	26012020	260120	160238	101.280	12.267640	-56.510173	101.220	-0.060	-0.520	0.350	101.250	-1.800	0.700																			1580054558.0	11.25	20.84
26/01/2020 16:02:39	26012020	260120	160239	101.170	12.267628	-56.510120	101.200	0.220	-0.470	0.370	101.160	-1.900	0.700																			1580054559.0	11.53	21.35
26/01/2020 16:02:40	26012020	260120	160240	101.160	12.267618	-56.510067	101.280	0.260	-0.100	0.380	101.170	-1.600	0.700																			1580054560.0	11.64	21.56
26/01/2020 16:02:41	26012020	260120	160241	101.260	12.267608	-56.510017	101.490	0.050	0.300	0.350	101.300	-1.200	0.700																			1580054561.0	11.35	21.02
26/01/2020 16:02:42	26012020	260120	160242	101.480	12.267598	-56.509967	101.690	-0.170	0.330	0.400	101.530	-1.000	0.700																			1580054562.0	10.93	20.24
26/01/2020 16:02:43	26012020	260120	160243	101.680	12.267587	-56.509915	101.830	-0.180	-0.040	0.480	101.710	-1.200	0.800																			1580054563.0	10.85	20.09
26/01/2020 16:02:44	26012020	260120	160244	101.810	12.267573	-56.509862	101.960	-0.050	-0.310	0.520	101.830	-1.600	0.900																			1580054564.0	11.16	20.67
26/01/2020 16:02:45	26012020	260120	160245	101.940	12.267562	-56.509810	102.070	0.020	-0.230	0.560	101.960	-1.600	0.900																			1580054565.0	11.50	21.30
26/01/2020 16:02:46	26012020	260120	160246	102.040	12.267552	-56.509760	102.080	0.070	-0.320	0.530	102.050	-1.600	0.900																			1580054566.0	11.21	20.76
26/01/2020 16:02:47	26012020	260120	160247	102.030	12.267542	-56.509710	101.980	0.210	-0.740	0.500	102.010	-1.900	0.900																			1580054567.0	10.77	19.95
26/01/2020 16:02:48	26012020	260120	160248	101.930	12.267530	-56.509657	101.860	0.210	-0.790	0.510	101.910	-2.200	0.900																			1580054568.0	11.08	20.52
26/01/2020 16:02:49	26012020	260120	160249	101.800	12.267518	-56.509605	101.680	0.000	-0.340	0.490	101.770	-1.900	0.900																			1580054569.0	11.54	21.37
26/01/2020 16:02:50	26012020	260120	160250	101.620	12.267508	-56.509557	101.460	-0.120	-0.150	0.460	101.570	-1.500	0.800																			1580054570.0	11.08	20.52
26/01/2020 16:02:51	26012020	260120	160251	101.400	12.267498	-56.509505	101.280	0.070	-0.550	0.520	101.360	-1.700	0.900																			1580054571.0	10.59	19.61
26/01/2020 16:02:52	26012020	260120	160252	101.220	12.267487	-56.509450	101.250	0.320	-0.820	0.530	101.210	-2.200	0.900																			1580054572.0	11.12	20.59
26/01/2020 16:02:53	26012020	260120	160253	101.210	12.267477	-56.509395	101.420	0.240	-0.300	0.450	101.230	-1.900	0.800																			1580054573.0	11.91	22.06
26/01/2020 16:02:54	26012020	260120	160254	101.390	12.267465	-56.509345	101.700	-0.210	0.590	0.410	101.450	-1.100	0.800																			1580054574.0	11.75	21.76
26/01/2020 16:02:55	26012020	260120	160255	101.680	12.267455	-56.509297	101.940	-0.620	0.880	0.460	101.740	-0.500	0.800																			1580054575.0	10.80	20.00
26/01/2020 16:02:56	26012020	260120	160256	101.920	12.267442	-56.509248	102.060	-0.560	0.320	0.420	101.940	-0.800	0.800																			1580054576.0	10.31	19.09
26/01/2020 16:02:57	26012020	260120	160257	102.030	12.267430	-56.509193	102.160	-0.060	-0.530	0.350	102.040	-1.600	0.700																			1580054577.0	10.87	20.13
26/01/2020 16:02:58	26012020	260120	160258	102.120	12.267418	-56.509138	102.180	0.370	-0.930	0.330	102.130	-2.200	0.700																			1580054578.0	11.66	21.59
26/01/2020 16:02:59	26012020	260120	160259	102.140	12.267408	-56.509087	102.130	0.380	-0.710	0.240	102.130	-2.200	0.600	1015.70	26.30	26.40	19.00	19.20	976.00	64.00	64.00	367.00	29.50	351.00	9.20	78.00	3.60	69979	3276.00	27.60	27.60	1580054579.0	11.87	21.98
26/01/2020 16:03:00	26012020	260120	160300	102.090	12.267398	-56.509037	102.070	0.080	-0.210	0.250	102.070	-1.800	0.600																			1580054580.0	11.29	20.91
26/01/2020 16:03:01	26012020	260120	160301	102.020	12.267388	-56.508988	102.040	-0.190	0.050	0.300	102.010	-1.300	0.600																			1580054581.0	10.65	19.72
26/01/2020 16:03:02	26012020	260120	160302	101.980	12.267377	-56.508940	101.900	-0.150	-0.300	0.400	101.960	-1.500	0.700																			1580054582.0	10.41	19.28
26/01/2020 16:03:03	26012020	260120	160303	101.820	12.267365	-56.508887	101.660	0.150	-0.890	0.500	101.770	-2.100	0.800																			1580054583.0	10.79	19.98
26/01/2020 16:03:04	26012020	260120	160304	101.590	12.267353	-56.508832	101.540	0.310	-0.900	0.500	101.550	-2.400	0.900																			1580054584.0	11.58	21.45
26/01/2020 16:03:05	26012020	260120	160305	101.480	12.267342	-56.508778	101.620	0.120	-0.190	0.310	101.490	-1.900	0.800																			1580054585.0	11.91	22.06
26/01/2020 16:03:06	26012020	260120	160306	101.590	12.267332	-56.508730	101.770	-0.210	0.510	0.120	101.620	-1.000	0.500																			1580054586.0	11.24	20.82
26/01/2020 16:03:07	26012020	260120	160307	101.730	12.267322	-56.508682	101.830	-0.280	0.470	0.110	101.750	-0.800	0.500																			1580054587.0	10.45	19.35
26/01/2020 16:03:08	26012020	260120	160308	101.780	12.267310	-56.508630	101.810	-0.070	-0.160	0.150	101.770	-1.300	0.500																			1580054588.0	10.52	19.48
26/01/2020 16:03:09	26012020	260120	160309	101.760	12.267298	-56.508575	101.880	0.150	-0.550	0.250	101.770	-1.800	0.600																			1580054589.0	11.33	20.98
26/01/2020 16:03:10	26012020	260120	160310	101.840	12.267287	-56.508523	102.020	0.120	-0.310	0.320	101.870	-1.800	0.700																			1580054590.0	11.83	21.91
26/01/2020 16:03:11	26012020	260120	160311	101.980	12.267275	-56.508473	102.040	-0.120	0.050	0.410	101.990	-1.400	0.700																			1580054591.0	11.39	21.09
26/01/2020 16:03:12	26012020	260120	160312	101.980	12.267263	-56.508425	101.920	-0.270	-0.060	0.590	101.960	-1.300	0.900																			1580054592.0	10.62	19.67
26/01/2020 16:03:13	26012020	260120	160313	101.850	12.267252	-56.508375	101.740	-0.120	-0.550	0.740	101.820	-1.700	1.100																			1580054593.0	10.55	19.54
26/01/2020 16:03:14	26012020	260120	160314	101.670	12.267238	-56.508322	101.580	0.230	-0.910	0.610	101.640	-2.200	1.100																			1580054594.0	11.11	20.58
26/01/2020 16:03:15	26012020	260120	160315	101.520	12.267228	-56.508268	101.430	0.480	-0.890	0.370	101.490	-2.300	0.800																			1580054595.0	11.55	21.39
26/01/2020 16:03:16	26012020	260120	160316	101.370	12.267218	-56.508215	101.310	0.390	-0.430	0.390	101.330	-2.000	0.700																			1580054596.0	11.48	21.26
26/01/2020 16:03:17	26012020	260120	160317	101.260	12.267208	-56.508167	101.350	-0.010	0.180	0.450	101.250	-1.400	0.800																			1580054597.0	11.21	20.76
26/01/2020 16:03:18	26012020	260120	160318	101.310	12.267197	-56.508117	101.520	-0.410	0.470	0.510	101.340	-0.900	0.800																			1580054598.0	10.76	19.93
26/01/2020 16:03:19	26012020	260120	160319	101.490	12.267185	-56.508067	101.690	-0.550	0.350	0.680	101.530	-0.900	1.000																			1580054599.0	10.63	19.69
26/01/2020 16:03:20	26012020	260120	160320	101.640	12.267172	-56.508017	101.710	-0.350	-0.090	0.800	101.650	-1.300	1.100																			1580054600.0	10.90	20.19
26/01/2020 16:03:21	26012020	260120	160321	101.640	12.267160	-56.507963	101.580	0.130	-0.730	0.780	101.620	-1.900	1.200																			1580054601.0	11.19	20.72
26/01/2020 16:03:22	26012020	260120	160322	101.510	12.267148	-56.507908	101.400	0.530	-1.000	0.580	101.470	-2.400	1.000																			1580054602.0	11.47	21.24
26/01/2020 16:03:23	26012020	260120	160323	101.340	12.267140	-56.507855	101.340	0.470	-0.500	0.240	101.320	-2.100	0.700																			1580054603.0	11.76	21.78
26/01/2020 16:03:24	26012020	260120	160324	101.300	12.267132	-56.507807	101.410	0.020	0.270	0.090	101.310	-1.300	0.500																			1580054604.0	11.37	21.06
26/01/2020 16:03:25	26012020	260120	160325	101.380	12.267123	-56.507758	101.530	-0.330	0.380	0.130	101.410	-0.900	0.500																			1580054605.0	10.52	19.48
26/01/2020 16:03:26	26012020	260120	160326	101.490	12.267112	-56.507708	101.550	-0.190	-0.350	0.260	101.500	-1.400	0.600																			1580054606.0	10.23	18.95
26/01/2020 16:03:27	26012020	260120	160327	101.490	12.267098	-56.507653	101.460	0.150	-0.900	0.480	101.480	-2.200	0.800																			1580054607.0	11.03	20.43
26/01/2020 16:03:28	26012020	260120	160328	101.390	12.267085	-56.507600	101.360	0.190	-0.510	0.660	101.370	-2.100	1.000																			1580054608.0	12.00	22.22
26/01/2020 16:03:29	26012020	260120	160329	101.290	12.267073	-56.507552	101.240	-0.030	0.170	0.680	101.270	-1.400	1.000																			1580054609.0	11.65	21.58
26/01/2020 16:03:30	26012020	260120	160330	101.170	12.267063	-56.507503	101.140	-0.170	0.210	0.520	101.150	-1.100	1.000																			1580054610.0	10.55	19.54
26/01/2020 16:03:31	26012020	260120	160331	101.080	12.267053	-56.507452	101.140	-0.130	-0.250	0.180	101.070	-1.400	0.700																			1580054611.0	10.31	19.09
26/01/2020 16:03:32	26012020	260120	160332	101.100	12.267045	-56.507398	101.190	-0.090	-0.530	0.050	101.110	-1.800	0.400																			1580054612.0	11.10	20.56
26/01/2020 16:03:33	26012020	260120	160333	101.140	12.267035	-56.507347	101.170	-0.120	-0.450	0.250	101.140	-1.900	0.500																			1580054613.0	11.55	21.39
26/01/2020 16:03:34	26012020	260120	160334	101.100	12.267022	-56.507297	101.060	-0.090	-0.400	0.550	101.090	-1.800	0.800																			1580054614.0	11.23	20.80
26/01/2020 16:03:35	26012020	260120	160335	100.980	12.267008	-56.507245	100.880	0.060	-0.500	0.750	100.950	-1.800	1.100																			1580054615.0	10.91	20.21
26/01/2020 16:03:36	26012020	260120	160336	100.800	12.266995	-56.507193	100.680	0.230	-0.410	0.580	100.760	-1.800	1.000																			1580054616.0	11.11	20.58
26/01/2020 16:03:37	26012020	260120	160337	100.610	12.266987	-56.507142	100.540	0.370	-0.090	0.210	100.570	-1.600	0.700																			1580054617.0	11.33	20.98
26/01/2020 16:03:38	26012020	260120	160338	100.490	12.266980	-56.507090	100.610	0.380	0.150	-0.010	100.490	-1.300	0.400																			1580054618.0	11.09	20.54
26/01/2020 16:03:39	26012020	260120	160339	100.570	12.266972	-56.507040	100.890	0.160	0.230	-0.000	100.620	-1.100	0.300																			1580054619.0	10.92	20.22
26/01/2020 16:03:40	26012020	260120	160340	100.860	12.266963	-56.506988	101.100	-0.220	0.160	0.310	100.920	-1.200	0.500																			1580054620.0	10.97	20.32
26/01/2020 16:03:41	26012020	260120	160341	101.050	12.266950	-56.506938	101.090	-0.520	-0.050	0.750	101.060	-1.300	0.900																			1580054621.0	10.96	20.30
26/01/2020 16:03:42	26012020	260120	160342	101.030	12.266937	-56.506888	100.980	-0.490	-0.450	1.130	101.010	-1.600	1.400																			1580054622.0	10.94	20.26
26/01/2020 16:03:43	26012020	260120	160343	100.900	12.266923	-56.506837	100.770	-0.110	-1.000	1.220	100.870	-2.200	1.600																			1580054623.0	11.00	20.37
26/01/2020 16:03:44	26012020	260120	160344	100.680	12.266910	-56.506783	100.490	0.350	-1.260	0.910	100.630	-2.600	1.400																			1580054624.0	11.28	20.89
26/01/2020 16:03:45	26012020	260120	160345	100.410	12.266902	-56.506730	100.280	0.470	-0.750	0.530	100.360	-2.400	1.000																			1580054625.0	11.59	21.46
26/01/2020 16:03:46	26012020	260120	160346	100.220	12.266895	-56.506680	100.250	0.160	0.160	0.230	100.200	-1.500	0.700																			1580054626.0	11.40	21.11
26/01/2020 16:03:47	26012020	260120	160347	100.220	12.266887	-56.506632	100.410	-0.250	0.650	-0.010	100.240	-0.800	0.400																			1580054627.0	10.65	19.72
26/01/2020 16:03:48	26012020	260120	160348	100.380	12.266878	-56.506583	100.500	-0.340	0.250	0.110	100.410	-0.900	0.400																			1580054628.0	10.23	18.95
26/01/2020 16:03:49	26012020	260120	160349	100.450	12.266867	-56.506528	100.490	-0.080	-0.490	0.360	100.450	-1.600	0.600																			1580054629.0	10.73	19.87
26/01/2020 16:03:50	26012020	260120	160350	100.430	12.266855	-56.506473	100.470	0.190	-0.740	0.580	100.420	-2.100	0.900																			1580054630.0	11.65	21.58
26/01/2020 16:03:51	26012020	260120	160351	100.400	12.266843	-56.506422	100.460	0.160	-0.290	0.740	100.390	-1.900	1.100																			1580054631.0	11.94	22.11
26/01/2020 16:03:52	26012020	260120	160352	100.400	12.266833	-56.506373	100.570	-0.090	0.230	0.520	100.410	-1.300	1.000																			1580054632.0	11.29	20.91
26/01/2020 16:03:53	26012020	260120	160353	100.520	12.266825	-56.506325	100.750	-0.200	0.210	0.200	100.560	-1.100	0.700																			1580054633.0	10.49	19.43
26/01/2020 16:03:54	26012020	260120	160354	100.710	12.266817	-56.506273	100.880	-0.020	-0.250	0.110	100.750	-1.400	0.500																			1580054634.0	10.45	19.35
26/01/2020 16:03:55	26012020	260120	160355	100.830	12.266807	-56.506220	100.850	0.290	-0.680	0.240	100.830	-1.900	0.500																			1580054635.0	11.02	20.41
26/01/2020 16:03:56	26012020	260120	160356	100.780	12.266797	-56.506167	100.710	0.420	-0.680	0.330	100.750	-2.100	0.700																			1580054636.0	11.47	21.24
26/01/2020 16:03:57	26012020	260120	160357	100.640	12.266787	-56.506115	100.660	0.210	-0.360	0.340	100.620	-1.900	0.700																			1580054637.0	11.41	21.13
26/01/2020 16:03:58	26012020	260120	160358	100.610	12.266777	-56.506067	100.760	-0.230	0.020	0.350	100.620	-1.400	0.700																			1580054638.0	11.00	20.37
26/01/2020 16:03:59	26012020	260120	160359	100.720	12.266767	-56.506017	100.840	-0.510	0.030	0.310	100.740	-1.300	0.700	1015.70	26.30	26.40	19.30	19.30	970.00	65.00	65.00	367.00	29.50	354.00	8.70	83.00	3.10	69666	3181.00	27.60	27.60	1580054639.0	10.66	19.74
26/01/2020 16:04:00	26012020	260120	160400	100.790	12.266757	-56.505967	100.780	-0.380	-0.350	0.290	100.790	-1.600	0.600																			1580054640.0	10.62	19.67
26/01/2020 16:04:01	26012020	260120	160401	100.730	12.266745	-56.505913	100.720	-0.080	-0.600	0.250	100.720	-1.900	0.600																			1580054641.0	11.06	20.48
26/01/2020 16:04:02	26012020	260120	160402	100.680	12.266733	-56.505860	100.730	0.060	-0.410	0.090	100.680	-1.900	0.500																			1580054642.0	11.55	21.39
26/01/2020 16:04:03	26012020	260120	160403	100.710	12.266723	-56.505810	100.740	0.060	-0.170	-0.080	100.710	-1.600	0.300																			1580054643.0	11.34	21.00
26/01/2020 16:04:04	26012020	260120	160404	100.700	12.266715	-56.505760	100.620	0.150	-0.240	-0.120	100.680	-1.500	0.200																			1580054644.0	10.81	20.02
26/01/2020 16:04:05	26012020	260120	160405	100.560	12.266705	-56.505707	100.440	0.290	-0.410	-0.060	100.530	-1.700	0.300																			1580054645.0	10.85	20.09
26/01/2020 16:04:06	26012020	260120	160406	100.390	12.266695	-56.505653	100.450	0.280	-0.360	-0.010	100.370	-1.800	0.300																			1580054646.0	11.28	20.89
26/01/2020 16:04:07	26012020	260120	160407	100.400	12.266685	-56.505602	100.670	0.060	0.030	0.060	100.440	-1.500	0.400																			1580054647.0	11.42	21.15
26/01/2020 16:04:08	26012020	260120	160408	100.640	12.266675	-56.505553	100.870	-0.200	0.390	0.220	100.690	-1.100	0.500																			1580054648.0	11.12	20.59
26/01/2020 16:04:09	26012020	260120	160409	100.830	12.266663	-56.505503	100.940	-0.290	0.310	0.430	100.840	-1.000	0.700																			1580054649.0	10.67	19.76
26/01/2020 16:04:10	26012020	260120	160410	100.880	12.266653	-56.505453	101.020	-0.160	-0.130	0.640	100.890	-1.300	0.900																			1580054650.0	10.66	19.74
26/01/2020 16:04:11	26012020	260120	160411	100.950	12.266642	-56.505400	101.070	0.050	-0.650	0.730	100.970	-1.800	1.100																			1580054651.0	11.05	20.46
26/01/2020 16:04:12	26012020	260120	160412	101.000	12.266630	-56.505348	100.980	0.160	-0.960	0.620	100.990	-2.300	1.000																			1580054652.0	11.35	21.02
26/01/2020 16:04:13	26012020	260120	160413	100.900	12.266620	-56.505295	100.840	0.060	-0.770	0.530	100.880	-2.300	0.900																			1580054653.0	11.42	21.15
26/01/2020 16:04:14	26012020	260120	160414	100.770	12.266610	-56.505247	100.730	-0.170	-0.300	0.540	100.750	-1.800	0.900																			1580054654.0	11.23	20.80
26/01/2020 16:04:15	26012020	260120	160415	100.640	12.266600	-56.505197	100.520	-0.260	-0.180	0.480	100.610	-1.500	0.900																			1580054655.0	10.76	19.93
26/01/2020 16:04:16	26012020	260120	160416	100.440	12.266588	-56.505145	100.310	-0.090	-0.410	0.300	100.390	-1.700	0.700																			1580054656.0	10.59	19.61
26/01/2020 16:04:17	26012020	260120	160417	100.250	12.266578	-56.505092	100.240	0.150	-0.460	0.300	100.230	-1.900	0.600																			1580054657.0	11.15	20.65
26/01/2020 16:04:18	26012020	260120	160418	100.200	12.266568	-56.505038	100.310	0.250	-0.150	0.290	100.200	-1.700	0.700																			1580054658.0	11.60	21.48
26/01/2020 16:04:19	26012020	260120	160419	100.280	12.266558	-56.504988	100.440	0.210	0.230	0.210	100.310	-1.300	0.600																			1580054659.0	11.36	21.04
26/01/2020 16:04:20	26012020	260120	160420	100.410	12.266550	-56.504938	100.550	0.120	0.340	0.250	100.430	-1.000	0.600																			1580054660.0	10.91	20.21
26/01/2020 16:04:21	26012020	260120	160421	100.530	12.266540	-56.504887	100.720	0.040	0.170	0.380	100.560	-1.100	0.700																			1580054661.0	10.85	20.09
26/01/2020 16:04:22	26012020	260120	160422	100.690	12.266530	-56.504835	100.890	0.020	-0.120	0.520	100.730	-1.400	0.800																			1580054662.0	11.04	20.45
26/01/2020 16:04:23	26012020	260120	160423	100.860	12.266520	-56.504783	101.050	0.070	-0.390	0.640	100.890	-1.700	1.000																			1580054663.0	11.18	20.71
26/01/2020 16:04:24	26012020	260120	160424	101.030	12.266508	-56.504732	101.210	0.070	-0.540	0.780	101.060	-1.900	1.100																			1580054664.0	11.19	20.72
26/01/2020 16:04:25	26012020	260120	160425	101.160	12.266497	-56.504680	101.170	-0.120	-0.510	0.970	101.170	-1.900	1.300																			1580054665.0	11.17	20.69
26/01/2020 16:04:26	26012020	260120	160426	101.100	12.266485	-56.504630	101.020	-0.340	-0.390	0.950	101.070	-1.800	1.400																			1580054666.0	11.02	20.41
26/01/2020 16:04:27	26012020	260120	160427	100.950	12.266475	-56.504580	100.880	-0.300	-0.420	0.730	100.930	-1.800	1.200																			1580054667.0	10.82	20.04
26/01/2020 16:04:28	26012020	260120	160428	100.810	12.266465	-56.504528	100.750	0.020	-0.730	0.520	100.780	-2.000	1.000																			1580054668.0	10.79	19.98
26/01/2020 16:04:29	26012020	260120	160429	100.680	12.266455	-56.504475	100.650	0.330	-0.940	0.190	100.660	-2.300	0.700																			1580054669.0	11.12	20.59
26/01/2020 16:04:30	26012020	260120	160430	100.600	12.266447	-56.504422	100.630	0.350	-0.560	-0.050	100.590	-2.100	0.400																			1580054670.0	11.57	21.43
26/01/2020 16:04:31	26012020	260120	160431	100.590	12.266438	-56.504370	100.700	0.060	0.200	0.010	100.590	-1.500	0.300																			1580054671.0	11.56	21.41
26/01/2020 16:04:32	26012020	260120	160432	100.650	12.266428	-56.504322	100.770	-0.260	0.610	0.230	100.670	-0.800	0.500																			1580054672.0	10.93	20.24
26/01/2020 16:04:33	26012020	260120	160433	100.720	12.266417	-56.504272	100.810	-0.330	0.400	0.310	100.730	-0.800	0.700																			1580054673.0	10.53	19.50
26/01/2020 16:04:34	26012020	260120	160434	100.750	12.266407	-56.504218	100.860	-0.060	-0.120	0.260	100.760	-1.300	0.600																			1580054674.0	10.86	20.11
26/01/2020 16:04:35	26012020	260120	160435	100.820	12.266397	-56.504165	101.020	0.250	-0.510	0.210	100.840	-1.800	0.600																			1580054675.0	11.42	21.15
26/01/2020 16:04:36	26012020	260120	160436	100.990	12.266387	-56.504112	101.210	0.230	-0.410	0.160	101.030	-1.900	0.500																			1580054676.0	11.66	21.59
26/01/2020 16:04:37	26012020	260120	160437	101.170	12.266377	-56.504062	101.310	-0.110	-0.020	0.240	101.190	-1.500	0.500																			1580054677.0	11.43	21.17
26/01/2020 16:04:38	26012020	260120	160438	101.250	12.266367	-56.504013	101.320	-0.360	0.070	0.400	101.260	-1.300	0.700																			1580054678.0	10.80	20.00
26/01/2020 16:04:39	26012020	260120	160439	101.260	12.266355	-56.503963	101.340	-0.190	-0.390	0.450	101.260	-1.600	0.800																			1580054679.0	10.42	19.30
26/01/2020 16:04:40	26012020	260120	160440	101.260	12.266343	-56.503910	101.280	0.180	-0.820	0.420	101.260	-2.100	0.800																			1580054680.0	10.83	20.06
26/01/2020 16:04:41	26012020	260120	160441	101.190	12.266332	-56.503857	101.100	0.340	-0.700	0.360	101.160	-2.200	0.700																			1580054681.0	11.50	21.30
26/01/2020 16:04:42	26012020	260120	160442	101.010	12.266322	-56.503807	100.910	0.170	-0.260	0.240	100.970	-1.800	0.600																			1580054682.0	11.44	21.19
26/01/2020 16:04:43	26012020	260120	160443	100.820	12.266313	-56.503758	100.830	-0.060	-0.140	0.100	100.800	-1.500	0.500																			1580054683.0	10.84	20.08
26/01/2020 16:04:44	26012020	260120	160444	100.750	12.266305	-56.503707	100.860	-0.120	-0.430	0.050	100.760	-1.700	0.400																			1580054684.0	10.57	19.58
26/01/2020 16:04:45	26012020	260120	160445	100.790	12.266295	-56.503652	100.910	-0.050	-0.550	0.160	100.810	-1.900	0.500																			1580054685.0	11.08	20.52
26/01/2020 16:04:46	26012020	260120	160446	100.860	12.266283	-56.503600	100.910	-0.000	-0.310	0.440	100.860	-1.800	0.700																			1580054686.0	11.55	21.39
26/01/2020 16:04:47	26012020	260120	160447	100.840	12.266272	-56.503550	100.800	-0.040	-0.060	0.750	100.820	-1.500	1.000																			1580054687.0	11.36	21.04
26/01/2020 16:04:48	26012020	260120	160448	100.730	12.266258	-56.503498	100.790	-0.160	0.070	0.760	100.710	-1.300	1.200																			1580054688.0	11.02	20.41
26/01/2020 16:04:49	26012020	260120	160449	100.750	12.266248	-56.503447	101.020	-0.300	0.210	0.510	100.780	-1.200	1.000																			1580054689.0	11.06	20.48
26/01/2020 16:04:50	26012020	260120	160450	101.000	12.266238	-56.503397	101.280	-0.330	0.240	0.280	101.050	-1.100	0.700																			1580054690.0	11.10	20.56
26/01/2020 16:04:51	26012020	260120	160451	101.260	12.266228	-56.503345	101.350	-0.170	-0.010	0.180	101.280	-1.300	0.600																			1580054691.0	10.93	20.24
26/01/2020 16:04:52	26012020	260120	160452	101.320	12.266218	-56.503293	101.340	0.160	-0.490	0.190	101.320	-1.700	0.500																			1580054692.0	10.95	20.28
26/01/2020 16:04:53	26012020	260120	160453	101.310	12.266208	-56.503240	101.330	0.500	-0.830	0.340	101.300	-2.100	0.600																			1580054693.0	11.42	21.15
26/01/2020 16:04:54	26012020	260120	160454	101.290	12.266197	-56.503188	101.280	0.620	-0.730	0.370	101.280	-2.200	0.700																			1580054694.0	11.42	21.15
26/01/2020 16:04:55	26012020	260120	160455	101.240	12.266188	-56.503137	101.160	0.430	-0.350	0.290	101.220	-1.900	0.700																			1580054695.0	11.30	20.93
26/01/2020 16:04:56	26012020	260120	160456	101.120	12.266182	-56.503087	101.080	0.040	-0.090	0.350	101.090	-1.500	0.700																			1580054696.0	10.91	20.21
26/01/2020 16:04:57	26012020	260120	160457	101.050	12.266172	-56.503037	101.140	-0.320	-0.140	0.450	101.050	-1.500	0.800																			1580054697.0	10.71	19.83
26/01/2020 16:04:58	26012020	260120	160458	101.100	12.266158	-56.502985	101.220	-0.510	-0.310	0.540	101.120	-1.600	0.900																			1580054698.0	10.89	20.17
26/01/2020 16:04:59	26012020	260120	160459	101.180	12.266145	-56.502933	101.220	-0.500	-0.310	0.620	101.190	-1.700	0.900	1015.70	26.30	26.40	19.50	19.50	961.00	66.00	66.00	368.00	29.50	350.00	8.70	74.00	3.20	69340	3178.00	27.60	27.60	1580054699.0	11.26	20.85
26/01/2020 16:05:00	26012020	260120	160500	101.170	12.266132	-56.502882	101.150	-0.280	-0.270	0.590	101.150	-1.600	1.000																			1580054700.0	11.36	21.04
26/01/2020 16:05:01	26012020	260120	160501	101.090	12.266120	-56.502830	101.170	0.040	-0.290	0.330	101.090	-1.600	0.800																			1580054701.0	11.18	20.71
26/01/2020 16:05:02	26012020	260120	160502	101.140	12.266110	-56.502778	101.370	0.260	-0.240	-0.120	101.170	-1.600	0.400																			1580054702.0	11.21	20.76
26/01/2020 16:05:03	26012020	260120	160503	101.370	12.266103	-56.502727	101.600	0.260	-0.030	-0.430	101.420	-1.500	-0.000																			1580054703.0	11.28	20.89
26/01/2020 16:05:04	26012020	260120	160504	101.590	12.266095	-56.502675	101.690	0.100	0.150	-0.330	101.620	-1.300	-0.000																			1580054704.0	11.14	20.63
26/01/2020 16:05:05	26012020	260120	160505	101.670	12.266085	-56.502625	101.720	-0.050	0.050	0.010	101.670	-1.200	0.200																			1580054705.0	10.88	20.15
26/01/2020 16:05:06	26012020	260120	160506	101.680	12.266073	-56.502573	101.730	-0.030	-0.350	0.330	101.680	-1.500	0.600																			1580054706.0	10.86	20.11
26/01/2020 16:05:07	26012020	260120	160507	101.680	12.266062	-56.502522	101.740	0.110	-0.750	0.390	101.680	-2.000	0.800																			1580054707.0	11.12	20.59
26/01/2020 16:05:08	26012020	260120	160508	101.700	12.266050	-56.502468	101.740	0.170	-0.740	0.390	101.700	-2.200	0.700																			1580054708.0	11.45	21.21
26/01/2020 16:05:09	26012020	260120	160509	101.680	12.266038	-56.502417	101.650	0.060	-0.350	0.480	101.670	-1.900	0.800																			1580054709.0	11.47	21.24
26/01/2020 16:05:10	26012020	260120	160510	101.580	12.266027	-56.502368	101.480	-0.120	-0.030	0.530	101.550	-1.500	0.900																			1580054710.0	11.06	20.48
26/01/2020 16:05:11	26012020	260120	160511	101.400	12.266017	-56.502318	101.360	-0.200	-0.080	0.520	101.370	-1.400	0.900																			1580054711.0	10.72	19.85
26/01/2020 16:05:12	26012020	260120	160512	101.290	12.266005	-56.502265	101.320	-0.110	-0.440	0.420	101.280	-1.600	0.800																			1580054712.0	10.87	20.13
26/01/2020 16:05:13	26012020	260120	160513	101.260	12.265993	-56.502212	101.360	0.040	-0.640	0.280	101.260	-2.000	0.700																			1580054713.0	11.29	20.91
26/01/2020 16:05:14	26012020	260120	160514	101.280	12.265982	-56.502158	101.410	0.010	-0.220	0.280	101.290	-1.800	0.600																			1580054714.0	11.66	21.59
26/01/2020 16:05:15	26012020	260120	160515	101.330	12.265970	-56.502110	101.500	-0.220	0.410	0.380	101.340	-1.100	0.700																			1580054715.0	11.46	21.22
26/01/2020 16:05:16	26012020	260120	160516	101.420	12.265958	-56.502062	101.520	-0.280	0.450	0.460	101.430	-0.800	0.800																			1580054716.0	10.69	19.80
26/01/2020 16:05:17	26012020	260120	160517	101.430	12.265947	-56.502010	101.420	0.030	-0.160	0.530	101.420	-1.300	0.900																			1580054717.0	10.40	19.26
26/01/2020 16:05:18	26012020	260120	160518	101.320	12.265937	-56.501957	101.260	0.470	-0.830	0.570	101.290	-2.000	0.900																			1580054718.0	11.04	20.45
26/01/2020 16:05:19	26012020	260120	160519	101.170	12.265927	-56.501902	101.230	0.610	-0.870	0.610	101.140	-2.300	0.900																			1580054719.0	11.73	21.72
26/01/2020 16:05:20	26012020	260120	160520	101.160	12.265917	-56.501850	101.480	0.260	-0.260	0.750	101.190	-1.900	1.000																			1580054720.0	11.76	21.78
26/01/2020 16:05:21	26012020	260120	160521	101.430	12.265907	-56.501803	101.760	-0.220	0.230	0.980	101.490	-1.200	1.200																			1580054721.0	11.03	20.43
26/01/2020 16:05:22	26012020	260120	160522	101.680	12.265893	-56.501755	101.710	-0.350	0.010	1.280	101.700	-1.200	1.500																			1580054722.0	10.30	19.08
26/01/2020 16:05:23	26012020	260120	160523	101.610	12.265880	-56.501703	101.420	-0.050	-0.680	1.360	101.550	-1.800	1.700																			1580054723.0	10.52	19.48
26/01/2020 16:05:24	26012020	260120	160524	101.310	12.265868	-56.501648	101.200	0.280	-1.100	1.180	101.250	-2.400	1.600																			1580054724.0	11.37	21.06
26/01/2020 16:05:25	26012020	260120	160525	101.110	12.265858	-56.501593	101.250	0.230	-0.710	0.780	101.100	-2.300	1.300																			1580054725.0	11.95	22.13
26/01/2020 16:05:26	26012020	260120	160526	101.200	12.265848	-56.501543	101.470	-0.200	0.190	0.350	101.240	-1.500	0.800																			1580054726.0	11.65	21.58
26/01/2020 16:05:27	26012020	260120	160527	101.420	12.265840	-56.501497	101.590	-0.600	0.800	0.220	101.450	-0.700	0.600																			1580054727.0	10.77	19.95
26/01/2020 16:05:28	26012020	260120	160528	101.540	12.265828	-56.501448	101.590	-0.590	0.570	0.280	101.540	-0.600	0.600																			1580054728.0	10.20	18.89
26/01/2020 16:05:29	26012020	260120	160529	101.530	12.265817	-56.501395	101.540	-0.130	-0.260	0.210	101.510	-1.300	0.600																			1580054729.0	10.52	19.48
26/01/2020 16:05:30	26012020	260120	160530	101.490	12.265805	-56.501340	101.570	0.420	-0.950	0.020	101.490	-2.100	0.400																			1580054730.0	11.36	21.04
26/01/2020 16:05:31	26012020	260120	160531	101.520	12.265795	-56.501287	101.650	0.650	-0.910	-0.060	101.530	-2.400	0.300																			1580054731.0	11.92	22.08
26/01/2020 16:05:32	26012020	260120	160532	101.600	12.265785	-56.501235	101.760	0.410	-0.230	-0.000	101.620	-1.900	0.300																			1580054732.0	11.70	21.67
26/01/2020 16:05:33	26012020	260120	160533	101.720	12.265775	-56.501188	101.820	-0.040	0.370	0.080	101.740	-1.200	0.400																			1580054733.0	10.87	20.13
26/01/2020 16:05:34	26012020	260120	160534	101.770	12.265765	-56.501140	101.750	-0.270	0.240	0.230	101.770	-1.000	0.500																			1580054734.0	10.21	18.91
26/01/2020 16:05:35	26012020	260120	160535	101.680	12.265753	-56.501090	101.580	-0.100	-0.590	0.430	101.650	-1.600	0.700																			1580054735.0	10.32	19.11
26/01/2020 16:05:36	26012020	260120	160536	101.510	12.265742	-56.501035	101.450	0.190	-1.210	0.570	101.480	-2.400	0.900																			1580054736.0	11.17	20.69
26/01/2020 16:05:37	26012020	260120	160537	101.380	12.265728	-56.500980	101.360	0.190	-0.900	0.710	101.360	-2.500	1.000																			1580054737.0	11.97	22.17
26/01/2020 16:05:38	26012020	260120	160538	101.280	12.265717	-56.500932	101.250	-0.150	0.010	0.790	101.260	-1.700	1.100																			1580054738.0	11.73	21.72
26/01/2020 16:05:39	26012020	260120	160539	101.180	12.265705	-56.500885	101.160	-0.530	0.590	0.640	101.160	-0.900	1.100																			1580054739.0	10.74	19.89
26/01/2020 16:05:40	26012020	260120	160540	101.110	12.265693	-56.500835	101.100	-0.550	0.360	0.430	101.100	-0.800	0.800																			1580054740.0	10.18	18.85
26/01/2020 16:05:41	26012020	260120	160541	101.070	12.265682	-56.500783	101.130	-0.180	-0.290	0.200	101.070	-1.400	0.600																			1580054741.0	10.58	19.59
26/01/2020 16:05:42	26012020	260120	160542	101.110	12.265672	-56.500728	101.190	0.280	-0.650	-0.000	101.120	-1.900	0.400																			1580054742.0	11.42	21.15
26/01/2020 16:05:43	26012020	260120	160543	101.160	12.265662	-56.500675	101.160	0.520	-0.470	0.030	101.160	-1.900	0.300																			1580054743.0	11.77	21.80
26/01/2020 16:05:44	26012020	260120	160544	101.110	12.265652	-56.500625	101.100	0.480	-0.130	0.220	101.100	-1.600	0.500																			1580054744.0	11.35	21.02
26/01/2020 16:05:45	26012020	260120	160545	101.040	12.265642	-56.500577	101.100	0.300	-0.050	0.490	101.040	-1.400	0.700																			1580054745.0	10.75	19.91
26/01/2020 16:05:46	26012020	260120	160546	101.060	12.265632	-56.500527	101.150	0.160	-0.280	0.780	101.060	-1.500	1.000																			1580054746.0	10.62	19.67
26/01/2020 16:05:47	26012020	260120	160547	101.090	12.265620	-56.500473	101.120	0.070	-0.610	0.980	101.090	-1.900	1.300																			1580054747.0	10.92	20.22
26/01/2020 16:05:48	26012020	260120	160548	101.040	12.265608	-56.500422	101.010	-0.080	-0.610	1.110	101.020	-2.000	1.400																			1580054748.0	11.30	20.93
26/01/2020 16:05:49	26012020	260120	160549	100.920	12.265597	-56.500370	100.870	-0.330	-0.190	1.140	100.880	-1.700	1.500																			1580054749.0	11.42	21.15
26/01/2020 16:05:50	26012020	260120	160550	100.770	12.265585	-56.500322	100.760	-0.540	0.180	0.880	100.750	-1.300	1.400																			1580054750.0	11.07	20.50
26/01/2020 16:05:51	26012020	260120	160551	100.680	12.265573	-56.500272	100.710	-0.540	0.120	0.550	100.670	-1.200	1.000																			1580054751.0	10.62	19.67
26/01/2020 16:05:52	26012020	260120	160552	100.640	12.265563	-56.500220	100.690	-0.280	-0.220	0.330	100.630	-1.500	0.800																			1580054752.0	10.70	19.82
26/01/2020 16:05:53	26012020	260120	160553	100.630	12.265553	-56.500168	100.700	0.070	-0.480	0.180	100.640	-1.800	0.600																			1580054753.0	11.13	20.61
26/01/2020 16:05:54	26012020	260120	160554	100.650	12.265543	-56.500115	100.710	0.360	-0.570	0.140	100.650	-1.900	0.500																			1580054754.0	11.39	21.09
26/01/2020 16:05:55	26012020	260120	160555	100.660	12.265533	-56.500063	100.700	0.480	-0.510	0.310	100.660	-1.900	0.600																			1580054755.0	11.27	20.87
26/01/2020 16:05:56	26012020	260120	160556	100.640	12.265523	-56.500013	100.670	0.470	-0.340	0.500	100.630	-1.800	0.800																			1580054756.0	11.12	20.59
26/01/2020 16:05:57	26012020	260120	160557	100.610	12.265513	-56.499962	100.710	0.380	-0.100	0.520	100.620	-1.500	0.900																			1580054757.0	11.03	20.43
26/01/2020 16:05:58	26012020	260120	160558	100.660	12.265505	-56.499912	100.760	0.240	-0.000	0.550	100.670	-1.400	0.900																			1580054758.0	10.94	20.26
26/01/2020 16:05:59	26012020	260120	160559	100.710	12.265497	-56.499860	100.780	0.040	-0.130	0.560	100.710	-1.400	0.900	1015.70	26.30	26.30	19.70	19.70	954.00	67.00	67.00	368.00	29.50	349.00	9.10	72.00	3.70	68995	3221.00	27.70	27.60	1580054759.0	10.87	20.13
26/01/2020 16:06:00	26012020	260120	160600	100.720	12.265487	-56.499808	100.770	-0.180	-0.320	0.550	100.720	-1.600	0.900																			1580054760.0	11.22	20.78
26/01/2020 16:06:01	26012020	260120	160601	100.720	12.265475	-56.499755	100.720	-0.370	-0.380	0.580	100.710	-1.700	0.900																			1580054761.0	11.22	20.78
26/01/2020 16:06:02	26012020	260120	160602	100.660	12.265463	-56.499705	100.620	-0.490	-0.340	0.630	100.640	-1.700	1.000																			1580054762.0	11.25	20.84
26/01/2020 16:06:03	26012020	260120	160603	100.550	12.265452	-56.499653	100.520	-0.540	-0.210	0.510	100.530	-1.600	0.900																			1580054763.0	11.14	20.63
26/01/2020 16:06:04	26012020	260120	160604	100.470	12.265442	-56.499603	100.490	-0.500	-0.020	0.220	100.460	-1.400	0.700																			1580054764.0	11.04	20.45
26/01/2020 16:06:05	26012020	260120	160605	100.450	12.265432	-56.499553	100.500	-0.290	-0.080	-0.040	100.460	-1.400	0.400																			1580054765.0	10.94	20.26
26/01/2020 16:06:06	26012020	260120	160606	100.460	12.265422	-56.499500	100.470	0.140	-0.490	-0.110	100.460	-1.700	0.300																			1580054766.0	10.86	20.11
26/01/2020 16:06:07	26012020	260120	160607	100.430	12.265410	-56.499447	100.510	0.580	-0.780	-0.040	100.430	-2.100	0.300																			1580054767.0	11.18	20.71
26/01/2020 16:06:08	26012020	260120	160608	100.470	12.265400	-56.499393	100.620	0.690	-0.440	0.120	100.490	-2.000	0.400																			1580054768.0	11.62	21.52
26/01/2020 16:06:09	26012020	260120	160609	100.590	12.265392	-56.499343	100.680	0.450	0.190	0.300	100.620	-1.400	0.600																			1580054769.0	11.46	21.22
26/01/2020 16:06:10	26012020	260120	160610	100.650	12.265382	-56.499297	100.610	0.190	0.300	0.540	100.650	-1.000	0.800																			1580054770.0	10.68	19.78
26/01/2020 16:06:11	26012020	260120	160611	100.560	12.265373	-56.499245	100.490	0.090	-0.240	0.830	100.540	-1.400	1.100																			1580054771.0	10.37	19.21
26/01/2020 16:06:12	26012020	260120	160612	100.440	12.265362	-56.499190	100.440	-0.010	-0.680	0.930	100.420	-1.900	1.300																			1580054772.0	11.04	20.45
26/01/2020 16:06:13	26012020	260120	160613	100.400	12.265352	-56.499137	100.460	-0.290	-0.510	0.880	100.410	-2.000	1.300																			1580054773.0	11.71	21.69
26/01/2020 16:06:14	26012020	260120	160614	100.420	12.265340	-56.499087	100.450	-0.610	-0.040	0.860	100.410	-1.600	1.200																			1580054774.0	11.50	21.30
26/01/2020 16:06:15	26012020	260120	160615	100.400	12.265328	-56.499038	100.470	-0.730	0.150	0.720	100.400	-1.200	1.100																			1580054775.0	10.80	20.00
26/01/2020 16:06:16	26012020	260120	160616	100.450	12.265317	-56.498988	100.560	-0.490	-0.100	0.460	100.470	-1.300	0.900																			1580054776.0	10.54	19.52
26/01/2020 16:06:17	26012020	260120	160617	100.530	12.265307	-56.498937	100.610	-0.060	-0.410	0.200	100.540	-1.700	0.600																			1580054777.0	10.91	20.21
26/01/2020 16:06:18	26012020	260120	160618	100.570	12.265297	-56.498883	100.590	0.330	-0.540	0.020	100.580	-1.900	0.400																			1580054778.0	11.35	21.02
26/01/2020 16:06:19	26012020	260120	160619	100.550	12.265288	-56.498832	100.470	0.650	-0.680	0.040	100.530	-2.000	0.400																			1580054779.0	11.33	20.98
26/01/2020 16:06:20	26012020	260120	160620	100.430	12.265280	-56.498778	100.380	0.830	-0.780	0.210	100.400	-2.100	0.500																			1580054780.0	11.15	20.65
26/01/2020 16:06:21	26012020	260120	160621	100.340	12.265272	-56.498725	100.400	0.680	-0.460	0.450	100.330	-2.000	0.700																			1580054781.0	11.32	20.96
26/01/2020 16:06:22	26012020	260120	160622	100.360	12.265262	-56.498675	100.530	0.120	0.220	0.740	100.370	-1.400	1.000																			1580054782.0	11.39	21.09
26/01/2020 16:06:23	26012020	260120	160623	100.470	12.265252	-56.498627	100.640	-0.540	0.640	1.010	100.490	-0.800	1.300																			1580054783.0	10.90	20.19
26/01/2020 16:06:24	26012020	260120	160624	100.560	12.265240	-56.498577	100.680	-0.880	0.400	1.190	100.570	-0.800	1.500																			1580054784.0	10.45	19.35
26/01/2020 16:06:25	26012020	260120	160625	100.590	12.265227	-56.498525	100.670	-0.750	-0.250	1.150	100.590	-1.400	1.600																			1580054785.0	10.70	19.82
26/01/2020 16:06:26	26012020	260120	160626	100.580	12.265213	-56.498472	100.660	-0.330	-0.680	0.870	100.580	-1.900	1.300																			1580054786.0	11.38	21.08
26/01/2020 16:06:27	26012020	260120	160627	100.590	12.265203	-56.498418	100.730	0.090	-0.720	0.450	100.600	-2.100	1.000																			1580054787.0	11.67	21.61
26/01/2020 16:06:28	26012020	260120	160628	100.670	12.265195	-56.498367	100.830	0.350	-0.480	0.020	100.700	-1.900	0.500																			1580054788.0	11.39	21.09
26/01/2020 16:06:29	26012020	260120	160629	100.790	12.265187	-56.498317	100.970	0.390	-0.160	-0.260	100.820	-1.600	0.200																			1580054789.0	11.03	20.43
26/01/2020 16:06:30	26012020	260120	160630	100.950	12.265180	-56.498267	101.100	0.310	-0.010	-0.290	100.980	-1.400	0.100																			1580054790.0	10.79	19.98
26/01/2020 16:06:31	26012020	260120	160631	101.100	12.265172	-56.498217	101.210	0.250	-0.130	-0.120	101.120	-1.400	0.200																			1580054791.0	10.73	19.87
26/01/2020 16:06:32	26012020	260120	160632	101.180	12.265162	-56.498165	101.180	0.260	-0.470	0.140	101.180	-1.700	0.400																			1580054792.0	10.88	20.15
26/01/2020 16:06:33	26012020	260120	160633	101.120	12.265150	-56.498112	100.990	0.210	-0.680	0.410	101.090	-2.000	0.700																			1580054793.0	11.17	20.69
26/01/2020 16:06:34	26012020	260120	160634	100.930	12.265138	-56.498058	100.830	0.050	-0.580	0.640	100.880	-2.000	0.900																			1580054794.0	11.44	21.19
26/01/2020 16:06:35	26012020	260120	160635	100.770	12.265128	-56.498008	100.830	-0.160	-0.300	0.680	100.760	-1.800	1.100																			1580054795.0	11.30	20.93
26/01/2020 16:06:36	26012020	260120	160636	100.770	12.265117	-56.497957	100.850	-0.400	0.000	0.560	100.780	-1.500	1.000																			1580054796.0	11.06	20.48
26/01/2020 16:06:37	26012020	260120	160637	100.780	12.265107	-56.497907	100.770	-0.590	0.130	0.410	100.780	-1.300	0.800																			1580054797.0	10.95	20.28
26/01/2020 16:06:38	26012020	260120	160638	100.710	12.265095	-56.497855	100.670	-0.530	-0.040	0.380	100.690	-1.300	0.700																			1580054798.0	10.93	20.24
26/01/2020 16:06:39	26012020	260120	160639	100.610	12.265083	-56.497803	100.620	-0.170	-0.320	0.360	100.590	-1.600	0.700																			1580054799.0	11.10	20.56
26/01/2020 16:06:40	26012020	260120	160640	100.570	12.265073	-56.497750	100.740	0.190	-0.320	0.170	100.590	-1.700	0.600																			1580054800.0	11.39	21.09
26/01/2020 16:06:41	26012020	260120	160641	100.720	12.265063	-56.497698	100.980	0.310	-0.130	0.030	100.760	-1.600	0.400																			1580054801.0	11.48	21.26
26/01/2020 16:06:42	26012020	260120	160642	100.970	12.265055	-56.497648	101.130	0.270	-0.040	0.150	101.000	-1.400	0.400																			1580054802.0	11.08	20.52
26/01/2020 16:06:43	26012020	260120	160643	101.100	12.265043	-56.497598	101.050	0.260	-0.220	0.490	101.100	-1.500	0.700																			1580054803.0	10.79	19.98
26/01/2020 16:06:44	26012020	260120	160644	100.980	12.265032	-56.497547	100.840	0.300	-0.470	0.730	100.940	-1.700	1.000																			1580054804.0	10.91	20.21
26/01/2020 16:06:45	26012020	260120	160645	100.770	12.265022	-56.497493	100.730	0.270	-0.520	0.730	100.730	-1.900	1.100																			1580054805.0	11.21	20.76
26/01/2020 16:06:46	26012020	260120	160646	100.690	12.265013	-56.497442	100.870	0.070	-0.290	0.500	100.700	-1.800	1.000																			1580054806.0	11.30	20.93
26/01/2020 16:06:47	26012020	260120	160647	100.830	12.265005	-56.497392	101.050	-0.200	-0.060	0.330	100.870	-1.500	0.700																			1580054807.0	11.07	20.50
26/01/2020 16:06:48	26012020	260120	160648	101.000	12.264995	-56.497342	101.100	-0.300	-0.170	0.390	101.030	-1.400	0.700																			1580054808.0	10.75	19.91
26/01/2020 16:06:49	26012020	260120	160649	101.050	12.264983	-56.497290	101.080	-0.190	-0.450	0.570	101.040	-1.700	0.900																			1580054809.0	10.81	20.02
26/01/2020 16:06:50	26012020	260120	160650	101.030	12.264970	-56.497238	101.080	-0.040	-0.510	0.660	101.030	-1.900	1.000																			1580054810.0	11.25	20.84
26/01/2020 16:06:51	26012020	260120	160651	101.030	12.264960	-56.497187	101.100	0.070	-0.460	0.490	101.040	-1.800	0.900																			1580054811.0	11.44	21.19
26/01/2020 16:06:52	26012020	260120	160652	101.060	12.264950	-56.497133	101.120	0.170	-0.430	0.170	101.060	-1.800	0.600																			1580054812.0	11.17	20.69
26/01/2020 16:06:53	26012020	260120	160653	101.090	12.264942	-56.497082	101.180	0.150	-0.230	0.030	101.100	-1.700	0.400																			1580054813.0	11.15	20.65
26/01/2020 16:06:54	26012020	260120	160654	101.160	12.264932	-56.497030	101.230	-0.010	-0.010	0.170	101.170	-1.400	0.500																			1580054814.0	11.23	20.80
26/01/2020 16:06:55	26012020	260120	160655	101.190	12.264920	-56.496980	101.170	-0.160	0.000	0.380	101.180	-1.300	0.700																			1580054815.0	11.02	20.41
26/01/2020 16:06:56	26012020	260120	160656	101.120	12.264908	-56.496928	101.110	-0.250	-0.100	0.510	101.100	-1.400	0.800																			1580054816.0	10.99	20.35
26/01/2020 16:06:57	26012020	260120	160657	101.060	12.264898	-56.496877	101.150	-0.270	-0.180	0.510	101.060	-1.500	0.900																			1580054817.0	11.22	20.78
26/01/2020 16:06:58	26012020	260120	160658	101.110	12.264887	-56.496825	101.250	-0.220	-0.210	0.450	101.140	-1.600	0.800																			1580054818.0	11.26	20.85
26/01/2020 16:06:59	26012020	260120	160659	101.210	12.264875	-56.496773	101.280	-0.090	-0.230	0.360	101.220	-1.600	0.800	1015.70	26.20	26.30	19.70	19.80	957.00	67.00	67.00	369.00	29.50	347.00	9.00	68.00	3.60	69126	3160.00	27.70	27.60	1580054819.0	11.18	20.71
26/01/2020 16:07:00	26012020	260120	160700	101.220	12.264865	-56.496722	101.240	0.060	-0.230	0.260	101.220	-1.600	0.700																			1580054820.0	11.10	20.56
26/01/2020 16:07:01	26012020	260120	160701	101.200	12.264855	-56.496670	101.270	0.160	-0.130	0.060	101.200	-1.500	0.500																			1580054821.0	11.09	20.54
26/01/2020 16:07:02	26012020	260120	160702	101.230	12.264845	-56.496620	101.380	0.250	-0.130	-0.190	101.260	-1.500	0.300																			1580054822.0	11.04	20.45
26/01/2020 16:07:03	26012020	260120	160703	101.360	12.264837	-56.496568	101.510	0.360	-0.450	-0.280	101.380	-1.700	0.100																			1580054823.0	10.89	20.17
26/01/2020 16:07:04	26012020	260120	160704	101.470	12.264827	-56.496515	101.530	0.440	-0.740	-0.050	101.480	-2.000	0.200																			1580054824.0	11.01	20.39
26/01/2020 16:07:05	26012020	260120	160705	101.490	12.264815	-56.496463	101.510	0.320	-0.570	0.320	101.490	-2.000	0.600																			1580054825.0	11.42	21.15
26/01/2020 16:07:06	26012020	260120	160706	101.450	12.264803	-56.496413	101.450	0.020	-0.170	0.580	101.440	-1.700	0.900																			1580054826.0	11.37	21.06
26/01/2020 16:07:07	26012020	260120	160707	101.380	12.264792	-56.496363	101.390	-0.250	-0.070	0.630	101.370	-1.400	1.000																			1580054827.0	10.87	20.13
26/01/2020 16:07:08	26012020	260120	160708	101.330	12.264782	-56.496312	101.370	-0.330	-0.270	0.550	101.330	-1.500	0.900																			1580054828.0	10.71	19.83
26/01/2020 16:07:09	26012020	260120	160709	101.310	12.264770	-56.496260	101.230	-0.310	-0.420	0.660	101.290	-1.700	1.000																			1580054829.0	11.12	20.59
26/01/2020 16:07:10	26012020	260120	160710	101.150	12.264758	-56.496207	101.030	-0.280	-0.430	0.770	101.100	-1.800	1.100																			1580054830.0	11.43	21.17
26/01/2020 16:07:11	26012020	260120	160711	100.940	12.264747	-56.496155	100.940	-0.270	-0.350	0.780	100.900	-1.800	1.100																			1580054831.0	11.40	21.11
26/01/2020 16:07:12	26012020	260120	160712	100.860	12.264735	-56.496103	101.020	-0.260	-0.140	0.690	100.870	-1.600	1.100																			1580054832.0	11.30	20.93
26/01/2020 16:07:13	26012020	260120	160713	100.950	12.264723	-56.496052	101.190	-0.230	0.130	0.450	100.990	-1.300	0.900																			1580054833.0	11.24	20.82
26/01/2020 16:07:14	26012020	260120	160714	101.120	12.264712	-56.496002	101.300	-0.070	0.180	0.250	101.160	-1.200	0.700																			1580054834.0	11.06	20.48
26/01/2020 16:07:15	26012020	260120	160715	101.230	12.264702	-56.495950	101.310	0.240	-0.050	0.160	101.240	-1.300	0.500																			1580054835.0	10.93	20.24
26/01/2020 16:07:16	26012020	260120	160716	101.260	12.264692	-56.495898	101.390	0.510	-0.240	0.050	101.260	-1.600	0.400																			1580054836.0	11.13	20.61
26/01/2020 16:07:17	26012020	260120	160717	101.340	12.264683	-56.495845	101.510	0.580	-0.340	-0.000	101.370	-1.700	0.400																			1580054837.0	11.33	20.98
26/01/2020 16:07:18	26012020	260120	160718	101.470	12.264675	-56.495793	101.550	0.500	-0.480	0.180	101.490	-1.800	0.500																			1580054838.0	11.17	20.69
26/01/2020 16:07:19	26012020	260120	160719	101.490	12.264665	-56.495742	101.500	0.300	-0.620	0.550	101.480	-1.900	0.800																			1580054839.0	11.04	20.45
26/01/2020 16:07:20	26012020	260120	160720	101.420	12.264653	-56.495690	101.420	-0.070	-0.490	0.910	101.400	-1.900	1.100																			1580054840.0	11.16	20.67
26/01/2020 16:07:21	26012020	260120	160721	101.340	12.264642	-56.495640	101.400	-0.490	-0.100	1.100	101.330	-1.600	1.400																			1580054841.0	11.21	20.76
26/01/2020 16:07:22	26012020	260120	160722	101.320	12.264628	-56.495592	101.410	-0.660	0.050	0.950	101.320	-1.300	1.400																			1580054842.0	10.91	20.21
26/01/2020 16:07:23	26012020	260120	160723	101.330	12.264618	-56.495542	101.350	-0.390	-0.420	0.670	101.330	-1.600	1.100																			1580054843.0	10.62	19.67
26/01/2020 16:07:24	26012020	260120	160724	101.270	12.264607	-56.495487	101.240	0.040	-0.910	0.480	101.250	-2.200	0.900																			1580054844.0	11.00	20.37
26/01/2020 16:07:25	26012020	260120	160725	101.170	12.264595	-56.495432	101.190	0.200	-0.660	0.330	101.160	-2.200	0.700																			1580054845.0	11.81	21.87
26/01/2020 16:07:26	26012020	260120	160726	101.140	12.264585	-56.495382	101.180	0.040	0.020	0.220	101.140	-1.600	0.600																			1580054846.0	11.81	21.87
26/01/2020 16:07:27	26012020	260120	160727	101.130	12.264577	-56.495332	101.170	-0.090	0.320	0.200	101.130	-1.100	0.600																			1580054847.0	10.95	20.28
26/01/2020 16:07:28	26012020	260120	160728	101.130	12.264567	-56.495282	101.190	-0.010	0.160	0.210	101.130	-1.100	0.600																			1580054848.0	10.54	19.52
26/01/2020 16:07:29	26012020	260120	160729	101.140	12.264555	-56.495228	101.220	0.190	-0.160	0.260	101.150	-1.400	0.600																			1580054849.0	11.00	20.37
26/01/2020 16:07:30	26012020	260120	160730	101.180	12.264545	-56.495175	101.240	0.330	-0.320	0.360	101.190	-1.600	0.700																			1580054850.0	11.42	21.15
26/01/2020 16:07:31	26012020	260120	160731	101.190	12.264535	-56.495123	101.270	0.270	-0.260	0.350	101.190	-1.700	0.700																			1580054851.0	11.46	21.22
26/01/2020 16:07:32	26012020	260120	160732	101.220	12.264525	-56.495073	101.360	0.040	-0.140	0.350	101.230	-1.500	0.700																			1580054852.0	11.19	20.72
26/01/2020 16:07:33	26012020	260120	160733	101.310	12.264515	-56.495022	101.430	-0.220	-0.130	0.470	101.330	-1.500	0.800																			1580054853.0	10.92	20.22
26/01/2020 16:07:34	26012020	260120	160734	101.380	12.264503	-56.494972	101.390	-0.380	-0.290	0.580	101.380	-1.600	0.900																			1580054854.0	10.84	20.08
26/01/2020 16:07:35	26012020	260120	160735	101.320	12.264492	-56.494922	101.150	-0.350	-0.500	0.750	101.280	-1.800	1.000																			1580054855.0	10.93	20.24
26/01/2020 16:07:36	26012020	260120	160736	101.060	12.264478	-56.494870	100.880	-0.230	-0.600	0.850	101.000	-1.900	1.200																			1580054856.0	11.15	20.65
26/01/2020 16:07:37	26012020	260120	160737	100.800	12.264467	-56.494818	100.740	-0.060	-0.680	0.650	100.760	-2.000	1.100																			1580054857.0	11.25	20.84
26/01/2020 16:07:38	26012020	260120	160738	100.670	12.264457	-56.494765	100.710	0.150	-0.690	0.330	100.660	-2.100	0.800																			1580054858.0	11.20	20.74
26/01/2020 16:07:39	26012020	260120	160739	100.650	12.264447	-56.494712	100.710	0.310	-0.430	0.120	100.650	-1.900	0.500																			1580054859.0	11.30	20.93
26/01/2020 16:07:40	26012020	260120	160740	100.650	12.264438	-56.494660	100.710	0.340	0.020	0.120	100.650	-1.500	0.400																			1580054860.0	11.36	21.04
26/01/2020 16:07:41	26012020	260120	160741	100.650	12.264428	-56.494610	100.720	0.240	0.360	0.300	100.660	-1.100	0.600																			1580054861.0	11.11	20.58
26/01/2020 16:07:42	26012020	260120	160742	100.670	12.264418	-56.494560	100.790	0.080	0.320	0.370	100.680	-1.000	0.700																			1580054862.0	10.89	20.17
26/01/2020 16:07:43	26012020	260120	160743	100.750	12.264410	-56.494507	100.950	-0.030	-0.040	0.350	100.780	-1.300	0.700																			1580054863.0	10.94	20.26
26/01/2020 16:07:44	26012020	260120	160744	100.920	12.264400	-56.494453	101.130	-0.120	-0.360	0.390	100.950	-1.600	0.700																			1580054864.0	11.25	20.84
26/01/2020 16:07:45	26012020	260120	160745	101.100	12.264388	-56.494402	101.260	-0.240	-0.410	0.550	101.130	-1.800	0.800																			1580054865.0	11.45	21.21
26/01/2020 16:07:46	26012020	260120	160746	101.200	12.264377	-56.494352	101.200	-0.310	-0.340	0.840	101.200	-1.700	1.100																			1580054866.0	11.31	20.95
26/01/2020 16:07:47	26012020	260120	160747	101.110	12.264365	-56.494302	101.070	-0.250	-0.390	0.900	101.090	-1.700	1.300																			1580054867.0	10.98	20.33
26/01/2020 16:07:48	26012020	260120	160748	100.990	12.264353	-56.494250	101.040	-0.100	-0.550	0.640	100.980	-1.900	1.100																			1580054868.0	10.90	20.19
26/01/2020 16:07:49	26012020	260120	160749	100.990	12.264343	-56.494197	101.030	0.020	-0.550	0.360	100.990	-1.900	0.800																			1580054869.0	11.17	20.69
26/01/2020 16:07:50	26012020	260120	160750	100.980	12.264333	-56.494145	100.920	0.080	-0.330	0.220	100.970	-1.800	0.600																			1580054870.0	11.30	20.93
26/01/2020 16:07:51	26012020	260120	160751	100.870	12.264323	-56.494095	100.820	0.090	-0.060	0.150	100.840	-1.500	0.500																			1580054871.0	11.17	20.69
26/01/2020 16:07:52	26012020	260120	160752	100.780	12.264315	-56.494043	100.830	0.120	-0.030	0.150	100.770	-1.400	0.500																			1580054872.0	10.96	20.30
26/01/2020 16:07:53	26012020	260120	160753	100.810	12.264305	-56.493992	100.920	0.230	-0.330	0.200	100.830	-1.600	0.500																			1580054873.0	10.92	20.22
26/01/2020 16:07:54	26012020	260120	160754	100.890	12.264295	-56.493938	100.970	0.300	-0.580	0.370	100.900	-1.900	0.700																			1580054874.0	11.21	20.76
26/01/2020 16:07:55	26012020	260120	160755	100.940	12.264283	-56.493885	101.040	0.180	-0.440	0.650	100.940	-1.900	0.900																			1580054875.0	11.60	21.48
26/01/2020 16:07:56	26012020	260120	160756	100.980	12.264272	-56.493833	101.080	-0.070	-0.000	0.850	100.990	-1.500	1.200																			1580054876.0	11.48	21.26
26/01/2020 16:07:57	26012020	260120	160757	101.020	12.264262	-56.493785	101.130	-0.280	0.270	0.770	101.030	-1.100	1.200																			1580054877.0	11.02	20.41
26/01/2020 16:07:58	26012020	260120	160758	101.060	12.264252	-56.493733	101.150	-0.310	0.100	0.570	101.070	-1.200	1.000																			1580054878.0	10.72	19.85
26/01/2020 16:07:59	26012020	260120	160759	101.070	12.264242	-56.493682	101.150	-0.210	-0.220	0.300	101.080	-1.500	0.800	1015.70	26.30	26.30	19.80	19.90	962.00	67.00	67.00	368.00	29.50	348.00	9.00	70.00	3.50	69259	3113.00	27.60	27.60	1580054879.0	10.90	20.19
26/01/2020 16:08:00	26012020	260120	160800	101.100	12.264232	-56.493628	101.230	-0.080	-0.370	0.130	101.110	-1.700	0.500																			1580054880.0	11.32	20.96
26/01/2020 16:08:01	26012020	260120	160801	101.180	12.264223	-56.493577	101.280	0.010	-0.400	0.180	101.200	-1.800	0.500																			1580054881.0	11.36	21.04
26/01/2020 16:08:02	26012020	260120	160802	101.220	12.264212	-56.493525	101.250	0.050	-0.500	0.290	101.220	-1.800	0.600																			1580054882.0	11.15	20.65
26/01/2020 16:08:03	26012020	260120	160803	101.200	12.264202	-56.493473	101.210	0.130	-0.770	0.460	101.200	-2.000	0.700																			1580054883.0	11.02	20.41
26/01/2020 16:08:04	26012020	260120	160804	101.150	12.264188	-56.493420	101.120	0.190	-0.710	0.720	101.130	-2.200	1.000																			1580054884.0	11.22	20.78
26/01/2020 16:08:05	26012020	260120	160805	101.040	12.264177	-56.493370	101.020	0.120	-0.180	0.720	101.030	-1.800	1.100																			1580054885.0	11.50	21.30
26/01/2020 16:08:06	26012020	260120	160806	100.950	12.264168	-56.493320	100.920	-0.070	0.240	0.590	100.930	-1.200	1.000																			1580054886.0	11.15	20.65
26/01/2020 16:08:07	26012020	260120	160807	100.840	12.264158	-56.493270	100.900	-0.220	0.120	0.390	100.840	-1.100	0.800																			1580054887.0	10.68	19.78
26/01/2020 16:08:08	26012020	260120	160808	100.830	12.264150	-56.493217	100.930	-0.220	-0.310	0.180	100.830	-1.500	0.600																			1580054888.0	10.86	20.11
26/01/2020 16:08:09	26012020	260120	160809	100.870	12.264140	-56.493162	101.020	-0.090	-0.570	0.210	100.890	-1.900	0.500																			1580054889.0	11.41	21.13
26/01/2020 16:08:10	26012020	260120	160810	100.970	12.264128	-56.493108	101.090	0.050	-0.410	0.440	100.990	-1.900	0.700																			1580054890.0	11.68	21.63
26/01/2020 16:08:11	26012020	260120	160811	101.010	12.264117	-56.493058	101.080	0.050	-0.070	0.490	101.010	-1.500	0.900																			1580054891.0	11.46	21.22
26/01/2020 16:08:12	26012020	260120	160812	101.020	12.264105	-56.493008	101.140	-0.010	0.150	0.300	101.030	-1.300	0.800																			1580054892.0	11.04	20.45
26/01/2020 16:08:13	26012020	260120	160813	101.100	12.264097	-56.492958	101.310	0.010	0.120	0.000	101.140	-1.200	0.500																			1580054893.0	10.81	20.02
26/01/2020 16:08:14	26012020	260120	160814	101.300	12.264088	-56.492905	101.560	0.080	-0.090	-0.270	101.350	-1.400	0.200																			1580054894.0	10.90	20.19
26/01/2020 16:08:15	26012020	260120	160815	101.550	12.264080	-56.492853	101.760	0.110	-0.410	-0.220	101.590	-1.600	0.100																			1580054895.0	11.13	20.61
26/01/2020 16:08:16	26012020	260120	160816	101.730	12.264070	-56.492802	101.820	0.140	-0.740	0.130	101.750	-2.000	0.400																			1580054896.0	11.22	20.78
26/01/2020 16:08:17	26012020	260120	160817	101.760	12.264057	-56.492748	101.730	0.150	-0.780	0.350	101.750	-2.200	0.700																			1580054897.0	11.30	20.93
26/01/2020 16:08:18	26012020	260120	160818	101.670	12.264045	-56.492698	101.510	0.030	-0.490	0.430	101.640	-2.000	0.800																			1580054898.0	11.35	21.02
26/01/2020 16:08:19	26012020	260120	160819	101.440	12.264037	-56.492647	101.250	-0.180	-0.210	0.460	101.390	-1.600	0.800																			1580054899.0	11.09	20.54
26/01/2020 16:08:20	26012020	260120	160820	101.200	12.264027	-56.492597	101.130	-0.250	-0.320	0.380	101.160	-1.600	0.800																			1580054900.0	10.84	20.08
26/01/2020 16:08:21	26012020	260120	160821	101.070	12.264015	-56.492543	101.050	-0.110	-0.620	0.370	101.060	-1.900	0.700																			1580054901.0	10.99	20.35
26/01/2020 16:08:22	26012020	260120	160822	100.980	12.264003	-56.492488	100.950	0.010	-0.540	0.410	100.950	-2.000	0.800																			1580054902.0	11.53	21.35
26/01/2020 16:08:23	26012020	260120	160823	100.890	12.263990	-56.492437	101.030	-0.120	0.150	0.370	100.890	-1.500	0.800																			1580054903.0	11.82	21.89
26/01/2020 16:08:24	26012020	260120	160824	100.990	12.263980	-56.492387	101.310	-0.340	0.850	0.220	101.040	-0.700	0.600																			1580054904.0	11.35	21.02
26/01/2020 16:08:25	26012020	260120	160825	101.290	12.263970	-56.492340	101.690	-0.330	0.810	-0.020	101.370	-0.400	0.400																			1580054905.0	10.57	19.58
26/01/2020 16:08:26	26012020	260120	160826	101.660	12.263960	-56.492288	101.950	0.030	0.000	-0.190	101.730	-1.000	0.200																			1580054906.0	10.43	19.32
26/01/2020 16:08:27	26012020	260120	160827	101.920	12.263950	-56.492233	102.050	0.460	-0.740	-0.090	101.940	-1.900	0.200																			1580054907.0	11.12	20.59
26/01/2020 16:08:28	26012020	260120	160828	102.000	12.263940	-56.492180	102.130	0.570	-0.860	0.070	102.020	-2.200	0.400																			1580054908.0	11.78	21.82
26/01/2020 16:08:29	26012020	260120	160829	102.100	12.263930	-56.492128	102.260	0.320	-0.560	0.190	102.120	-2.000	0.500																			1580054909.0	11.56	21.41
26/01/2020 16:08:30	26012020	260120	160830	102.210	12.263920	-56.492080	102.240	-0.010	-0.390	0.340	102.220	-1.800	0.600																			1580054910.0	10.83	20.06
26/01/2020 16:08:31	26012020	260120	160831	102.170	12.263908	-56.492030	102.020	-0.110	-0.660	0.520	102.140	-1.900	0.800																			1580054911.0	10.47	19.39
26/01/2020 16:08:32	26012020	260120	160832	101.930	12.263897	-56.491978	101.710	0.060	-1.050	0.700	101.870	-2.300	1.000																			1580054912.0	10.81	20.02
26/01/2020 16:08:33	26012020	260120	160833	101.630	12.263883	-56.491923	101.400	0.240	-1.010	0.810	101.570	-2.400	1.200																			1580054913.0	11.49	21.28
26/01/2020 16:08:34	26012020	260120	160834	101.320	12.263872	-56.491872	101.140	0.180	-0.390	0.620	101.270	-2.000	1.100																			1580054914.0	11.80	21.85
26/01/2020 16:08:35	26012020	260120	160835	101.080	12.263862	-56.491820	101.130	-0.180	0.490	0.310	101.060	-1.200	0.800																			1580054915.0	11.45	21.21
26/01/2020 16:08:36	26012020	260120	160836	101.100	12.263853	-56.491772	101.410	-0.590	1.040	0.070	101.140	-0.400	0.500																			1580054916.0	10.92	20.22
26/01/2020 16:08:37	26012020	260120	160837	101.390	12.263843	-56.491722	101.760	-0.730	0.820	-0.090	101.460	-0.400	0.300																			1580054917.0	10.58	19.59
26/01/2020 16:08:38	26012020	260120	160838	101.720	12.263832	-56.491668	102.010	-0.480	0.070	-0.000	101.780	-1.000	0.300																			1580054918.0	10.79	19.98
26/01/2020 16:08:39	26012020	260120	160839	101.960	12.263818	-56.491615	102.200	-0.000	-0.610	0.190	102.000	-1.800	0.500																			1580054919.0	11.41	21.13
26/01/2020 16:08:40	26012020	260120	160840	102.150	12.263805	-56.491562	102.380	0.400	-0.730	0.270	102.190	-2.100	0.600																			1580054920.0	11.78	21.82
26/01/2020 16:08:41	26012020	260120	160841	102.330	12.263793	-56.491512	102.480	0.490	-0.390	0.180	102.350	-1.900	0.600																			1580054921.0	11.55	21.39
26/01/2020 16:08:42	26012020	260120	160842	102.430	12.263785	-56.491463	102.500	0.380	-0.200	-0.020	102.440	-1.600	0.400																			1580054922.0	10.88	20.15
26/01/2020 16:08:43	26012020	260120	160843	102.440	12.263777	-56.491413	102.360	0.390	-0.540	-0.130	102.430	-1.700	0.300																			1580054923.0	10.40	19.26
26/01/2020 16:08:44	26012020	260120	160844	102.290	12.263767	-56.491360	102.080	0.540	-1.030	-0.050	102.230	-2.200	0.300																			1580054924.0	10.67	19.76
26/01/2020 16:08:45	26012020	260120	160845	102.000	12.263757	-56.491307	101.840	0.520	-1.020	0.180	101.950	-2.500	0.500																			1580054925.0	11.42	21.15
26/01/2020 16:08:46	26012020	260120	160846	101.770	12.263745	-56.491253	101.750	0.140	-0.410	0.400	101.750	-2.000	0.700																			1580054926.0	11.70	21.67
26/01/2020 16:08:47	26012020	260120	160847	101.680	12.263733	-56.491205	101.770	-0.410	0.250	0.570	101.690	-1.300	0.900																			1580054927.0	11.25	20.84
26/01/2020 16:08:48	26012020	260120	160848	101.720	12.263720	-56.491157	101.850	-0.730	0.410	0.650	101.730	-0.900	1.000																			1580054928.0	10.68	19.78
26/01/2020 16:08:49	26012020	260120	160849	101.810	12.263707	-56.491105	101.960	-0.650	0.140	0.640	101.830	-1.100	1.000																			1580054929.0	10.69	19.80
26/01/2020 16:08:50	26012020	260120	160850	101.920	12.263693	-56.491052	102.060	-0.400	-0.050	0.460	101.940	-1.400	0.900																			1580054930.0	11.27	20.87
26/01/2020 16:08:51	26012020	260120	160851	102.030	12.263682	-56.491000	102.140	-0.170	-0.050	0.190	102.040	-1.400	0.600																			1580054931.0	11.62	21.52
26/01/2020 16:08:52	26012020	260120	160852	102.120	12.263670	-56.490948	102.260	0.020	-0.080	-0.070	102.140	-1.400	0.400																			1580054932.0	11.35	21.02
26/01/2020 16:08:53	26012020	260120	160853	102.230	12.263662	-56.490897	102.330	0.240	-0.270	-0.280	102.240	-1.500	0.200																			1580054933.0	11.02	20.41
26/01/2020 16:08:54	26012020	260120	160854	102.290	12.263652	-56.490845	102.270	0.480	-0.540	-0.350	102.290	-1.800	0.000																			1580054934.0	10.99	20.35
26/01/2020 16:08:55	26012020	260120	160855	102.230	12.263642	-56.490793	102.140	0.570	-0.620	-0.120	102.200	-2.000	0.100																			1580054935.0	11.18	20.71
26/01/2020 16:08:56	26012020	260120	160856	102.090	12.263630	-56.490742	102.050	0.380	-0.460	0.280	102.060	-1.900	0.500																			1580054936.0	11.28	20.89
26/01/2020 16:08:57	26012020	260120	160857	102.000	12.263618	-56.490692	102.010	0.070	-0.280	0.510	101.990	-1.700	0.800																			1580054937.0	11.08	20.52
26/01/2020 16:08:58	26012020	260120	160858	101.960	12.263607	-56.490642	101.970	-0.120	-0.200	0.510	101.950	-1.600	0.900																			1580054938.0	10.84	20.08
26/01/2020 16:08:59	26012020	260120	160859	101.890	12.263595	-56.490590	101.890	-0.150	-0.270	0.520	101.880	-1.600	0.900	1015.60	26.30	26.40	19.90	19.90	960.00	67.00	67.00	368.00	29.50	352.00	9.00	80.00	3.40	69248	3279.00	27.70	27.60	1580054939.0	10.89	20.17
26/01/2020 16:09:00	26012020	260120	160900	101.820	12.263583	-56.490538	101.800	-0.120	-0.380	0.580	101.810	-1.700	0.900																			1580054940.0	11.09	20.54
26/01/2020 16:09:01	26012020	260120	160901	101.750	12.263570	-56.490487	101.730	-0.160	-0.300	0.610	101.730	-1.700	1.000																			1580054941.0	11.29	20.91
26/01/2020 16:09:02	26012020	260120	160902	101.680	12.263558	-56.490435	101.740	-0.290	-0.050	0.520	101.670	-1.500	0.900																			1580054942.0	11.36	21.04
26/01/2020 16:09:03	26012020	260120	160903	101.690	12.263547	-56.490385	101.720	-0.290	-0.030	0.370	101.700	-1.300	0.800																			1580054943.0	11.08	20.52
26/01/2020 16:09:04	26012020	260120	160904	101.670	12.263535	-56.490333	101.630	-0.010	-0.370	0.280	101.650	-1.600	0.700																			1580054944.0	10.87	20.13
26/01/2020 16:09:05	26012020	260120	160905	101.560	12.263523	-56.490280	101.500	0.280	-0.540	0.310	101.530	-1.900	0.600																			1580054945.0	11.19	20.72
26/01/2020 16:09:06	26012020	260120	160906	101.440	12.263513	-56.490228	101.460	0.300	-0.200	0.360	101.430	-1.700	0.700																			1580054946.0	11.63	21.54
26/01/2020 16:09:07	26012020	260120	160907	101.410	12.263503	-56.490178	101.470	0.120	0.200	0.310	101.410	-1.300	0.700																			1580054947.0	11.36	21.04
26/01/2020 16:09:08	26012020	260120	160908	101.420	12.263493	-56.490128	101.470	0.090	0.030	0.280	101.420	-1.200	0.600																			1580054948.0	10.69	19.80
26/01/2020 16:09:09	26012020	260120	160909	101.400	12.263483	-56.490077	101.470	0.280	-0.550	0.460	101.400	-1.700	0.700																			1580054949.0	10.66	19.74
26/01/2020 16:09:10	26012020	260120	160910	101.400	12.263472	-56.490022	101.520	0.370	-0.700	0.650	101.400	-2.100	0.900																			1580054950.0	11.33	20.98
26/01/2020 16:09:11	26012020	260120	160911	101.450	12.263458	-56.489970	101.560	0.070	-0.100	0.820	101.460	-1.700	1.100																			1580054951.0	11.77	21.80
26/01/2020 16:09:12	26012020	260120	160912	101.480	12.263448	-56.489923	101.500	-0.440	0.420	0.940	101.480	-1.000	1.300																			1580054952.0	11.18	20.71
26/01/2020 16:09:13	26012020	260120	160913	101.420	12.263437	-56.489875	101.380	-0.640	0.070	0.910	101.400	-1.100	1.300																			1580054953.0	10.26	19.00
26/01/2020 16:09:14	26012020	260120	160914	101.290	12.263423	-56.489823	101.260	-0.300	-0.860	0.760	101.270	-1.900	1.200																			1580054954.0	10.40	19.26
26/01/2020 16:09:15	26012020	260120	160915	101.170	12.263412	-56.489767	101.050	0.200	-1.320	0.610	101.140	-2.600	1.000																			1580054955.0	11.42	21.15
26/01/2020 16:09:16	26012020	260120	160916	100.960	12.263402	-56.489713	100.790	0.380	-0.840	0.380	100.900	-2.500	0.800																			1580054956.0	12.08	22.37
26/01/2020 16:09:17	26012020	260120	160917	100.720	12.263393	-56.489663	100.670	0.170	0.060	0.110	100.680	-1.600	0.600																			1580054957.0	11.61	21.50
26/01/2020 16:09:18	26012020	260120	160918	100.640	12.263385	-56.489615	100.760	-0.090	0.570	-0.020	100.650	-0.900	0.400																			1580054958.0	10.69	19.80
26/01/2020 16:09:19	26012020	260120	160919	100.750	12.263375	-56.489565	100.910	-0.150	0.430	-0.030	100.770	-0.800	0.300																			1580054959.0	10.34	19.15
26/01/2020 16:09:20	26012020	260120	160920	100.880	12.263365	-56.489513	101.050	-0.000	0.000	0.090	100.900	-1.200	0.400																			1580054960.0	10.79	19.98
26/01/2020 16:09:21	26012020	260120	160921	101.000	12.263353	-56.489460	101.100	0.170	-0.350	0.310	101.020	-1.600	0.600																			1580054961.0	11.36	21.04
26/01/2020 16:09:22	26012020	260120	160922	101.060	12.263342	-56.489407	101.090	0.210	-0.540	0.530	101.060	-1.900	0.800																			1580054962.0	11.51	21.32
26/01/2020 16:09:23	26012020	260120	160923	101.040	12.263332	-56.489357	101.060	0.100	-0.600	0.720	101.040	-2.000	1.000																			1580054963.0	11.31	20.95
26/01/2020 16:09:24	26012020	260120	160924	101.000	12.263320	-56.489305	101.020	-0.080	-0.400	0.840	101.000	-1.900	1.200																			1580054964.0	11.14	20.63
26/01/2020 16:09:25	26012020	260120	160925	100.990	12.263310	-56.489255	100.980	-0.270	-0.100	0.820	100.990	-1.600	1.200																			1580054965.0	11.02	20.41
26/01/2020 16:09:26	26012020	260120	160926	100.950	12.263298	-56.489205	100.900	-0.340	-0.060	0.620	100.940	-1.400	1.100																			1580054966.0	10.79	19.98
26/01/2020 16:09:27	26012020	260120	160927	100.860	12.263288	-56.489155	100.690	-0.170	-0.470	0.460	100.820	-1.600	0.900																			1580054967.0	10.70	19.82
26/01/2020 16:09:28	26012020	260120	160928	100.650	12.263278	-56.489100	100.500	0.180	-0.820	0.320	100.600	-2.100	0.700																			1580054968.0	11.06	20.48
26/01/2020 16:09:29	26012020	260120	160929	100.490	12.263268	-56.489047	100.590	0.370	-0.530	0.100	100.490	-2.100	0.500																			1580054969.0	11.62	21.52
26/01/2020 16:09:30	26012020	260120	160930	100.600	12.263260	-56.488997	100.780	0.220	0.120	0.040	100.640	-1.500	0.400																			1580054970.0	11.59	21.46
26/01/2020 16:09:31	26012020	260120	160931	100.790	12.263250	-56.488947	100.820	-0.070	0.440	0.140	100.810	-1.000	0.500																			1580054971.0	10.86	20.11
26/01/2020 16:09:32	26012020	260120	160932	100.790	12.263240	-56.488897	100.810	-0.240	0.190	0.340	100.780	-1.000	0.600																			1580054972.0	10.47	19.39
26/01/2020 16:09:33	26012020	260120	160933	100.760	12.263228	-56.488845	100.900	-0.200	-0.280	0.560	100.770	-1.500	0.900																			1580054973.0	10.84	20.08
26/01/2020 16:09:34	26012020	260120	160934	100.860	12.263217	-56.488792	101.010	-0.050	-0.620	0.620	100.890	-1.900	1.000																			1580054974.0	11.35	21.02
26/01/2020 16:09:35	26012020	260120	160935	100.950	12.263207	-56.488740	100.900	0.110	-0.760	0.660	100.940	-2.100	1.000																			1580054975.0	11.48	21.26
26/01/2020 16:09:36	26012020	260120	160936	100.830	12.263195	-56.488688	100.670	0.180	-0.640	0.710	100.790	-2.100	1.000																			1580054976.0	11.32	20.96
26/01/2020 16:09:37	26012020	260120	160937	100.600	12.263185	-56.488637	100.490	0.080	-0.320	0.640	100.550	-1.800	1.000																			1580054977.0	11.23	20.80
26/01/2020 16:09:38	26012020	260120	160938	100.430	12.263175	-56.488587	100.490	-0.110	0.060	0.370	100.420	-1.400	0.800																			1580054978.0	11.05	20.46
26/01/2020 16:09:39	26012020	260120	160939	100.450	12.263167	-56.488535	100.590	-0.210	0.220	0.060	100.480	-1.200	0.500																			1580054979.0	10.85	20.09
26/01/2020 16:09:40	26012020	260120	160940	100.560	12.263158	-56.488485	100.580	-0.110	-0.050	0.050	100.570	-1.300	0.400																			1580054980.0	10.78	19.96
26/01/2020 16:09:41	26012020	260120	160941	100.530	12.263147	-56.488432	100.450	0.120	-0.560	0.230	100.500	-1.700	0.500																			1580054981.0	11.00	20.37
26/01/2020 16:09:42	26012020	260120	160942	100.390	12.263137	-56.488377	100.380	0.240	-0.680	0.400	100.370	-2.100	0.700																			1580054982.0	11.45	21.21
26/01/2020 16:09:43	26012020	260120	160943	100.330	12.263125	-56.488325	100.410	0.060	-0.160	0.480	100.330	-1.800	0.800																			1580054983.0	11.70	21.67
26/01/2020 16:09:44	26012020	260120	160944	100.370	12.263115	-56.488277	100.450	-0.280	0.360	0.420	100.380	-1.100	0.800																			1580054984.0	11.21	20.76
26/01/2020 16:09:45	26012020	260120	160945	100.400	12.263107	-56.488228	100.430	-0.410	0.180	0.360	100.400	-1.000	0.700																			1580054985.0	10.46	19.37
26/01/2020 16:09:46	26012020	260120	160946	100.380	12.263095	-56.488177	100.380	-0.150	-0.530	0.280	100.370	-1.600	0.700																			1580054986.0	10.50	19.45
26/01/2020 16:09:47	26012020	260120	160947	100.330	12.263085	-56.488122	100.320	0.220	-0.940	0.180	100.320	-2.200	0.600																			1580054987.0	11.30	20.93
26/01/2020 16:09:48	26012020	260120	160948	100.270	12.263075	-56.488068	100.200	0.380	-0.680	0.100	100.250	-2.200	0.500																			1580054988.0	11.84	21.93
26/01/2020 16:09:49	26012020	260120	160949	100.150	12.263067	-56.488018	100.060	0.290	-0.200	0.060	100.120	-1.700	0.400																			1580054989.0	11.49	21.28
26/01/2020 16:09:50	26012020	260120	160950	100.020	12.263057	-56.487968	100.000	0.130	0.010	0.040	100.000	-1.400	0.400																			1580054990.0	10.80	20.00
26/01/2020 16:09:51	26012020	260120	160951	99.990	12.263048	-56.487917	100.110	-0.030	-0.050	0.090	100.000	-1.400	0.400																			1580054991.0	10.69	19.80
26/01/2020 16:09:52	26012020	260120	160952	100.090	12.263038	-56.487863	100.210	-0.170	-0.130	0.310	100.120	-1.500	0.600																			1580054992.0	11.05	20.46
26/01/2020 16:09:53	26012020	260120	160953	100.170	12.263028	-56.487812	100.160	-0.290	-0.170	0.620	100.170	-1.500	0.900																			1580054993.0	11.24	20.82
26/01/2020 16:09:54	26012020	260120	160954	100.120	12.263017	-56.487762	100.110	-0.330	-0.310	0.810	100.110	-1.600	1.100																			1580054994.0	11.19	20.72
26/01/2020 16:09:55	26012020	260120	160955	100.080	12.263005	-56.487710	100.150	-0.220	-0.580	0.830	100.080	-1.800	1.200																			1580054995.0	11.13	20.61
26/01/2020 16:09:56	26012020	260120	160956	100.130	12.262993	-56.487657	100.240	-0.050	-0.580	0.680	100.150	-2.000	1.100																			1580054996.0	11.29	20.91
26/01/2020 16:09:57	26012020	260120	160957	100.230	12.262983	-56.487605	100.330	0.010	-0.180	0.500	100.250	-1.700	0.900																			1580054997.0	11.47	21.24
26/01/2020 16:09:58	26012020	260120	160958	100.310	12.262973	-56.487555	100.400	-0.020	0.220	0.320	100.330	-1.300	0.700																			1580054998.0	11.16	20.67
26/01/2020 16:09:59	26012020	260120	160959	100.380	12.262965	-56.487505	100.460	-0.040	0.270	0.090	100.390	-1.100	0.500	1015.60	26.30	26.40	19.50	19.60	957.00	66.00	66.00	368.00	29.50	355.00	8.40	84.00	2.70	68916	3230.00	27.70	27.60	1580054999.0	10.74	19.89
26/01/2020 16:10:00	26012020	260120	161000	100.450	12.262957	-56.487453	100.510	0.070	-0.100	-0.150	100.470	-1.300	0.300																			1580055000.0	10.73	19.87
26/01/2020 16:10:01	26012020	260120	161001	100.510	12.262948	-56.487400	100.600	0.330	-0.620	-0.170	100.520	-1.800	0.200																			1580055001.0	11.05	20.46
26/01/2020 16:10:02	26012020	260120	161002	100.590	12.262940	-56.487345	100.750	0.590	-0.850	-0.070	100.610	-2.200	0.300																			1580055002.0	11.44	21.19
26/01/2020 16:10:03	26012020	260120	161003	100.750	12.262930	-56.487293	100.930	0.530	-0.490	0.120	100.790	-2.000	0.400																			1580055003.0	11.60	21.48
26/01/2020 16:10:04	26012020	260120	161004	100.900	12.262920	-56.487243	100.930	0.130	0.110	0.450	100.900	-1.400	0.700																			1580055004.0	11.32	20.96
26/01/2020 16:10:05	26012020	260120	161005	100.870	12.262910	-56.487195	100.860	-0.290	0.230	0.670	100.860	-1.100	1.000																			1580055005.0	10.65	19.72
26/01/2020 16:10:06	26012020	260120	161006	100.790	12.262900	-56.487145	100.860	-0.370	-0.330	0.730	100.790	-1.400	1.100																			1580055006.0	10.41	19.28
26/01/2020 16:10:07	26012020	260120	161007	100.790	12.262888	-56.487090	100.890	-0.250	-0.920	0.650	100.810	-2.100	1.000																			1580055007.0	10.99	20.35
26/01/2020 16:10:08	26012020	260120	161008	100.840	12.262878	-56.487035	100.810	-0.240	-0.880	0.640	100.840	-2.300	1.000																			1580055008.0	11.77	21.80
26/01/2020 16:10:09	26012020	260120	161009	100.760	12.262865	-56.486983	100.620	-0.410	-0.250	0.690	100.720	-1.900	1.000																			1580055009.0	11.80	21.85
26/01/2020 16:10:10	26012020	260120	161010	100.560	12.262853	-56.486935	100.470	-0.490	0.220	0.660	100.520	-1.200	1.000																			1580055010.0	11.12	20.59
26/01/2020 16:10:11	26012020	260120	161011	100.440	12.262843	-56.486885	100.600	-0.280	0.200	0.290	100.450	-1.100	0.800																			1580055011.0	10.58	19.59
26/01/2020 16:10:12	26012020	260120	161012	100.600	12.262833	-56.486833	100.900	0.130	-0.040	-0.260	100.670	-1.300	0.300																			1580055012.0	10.85	20.09
26/01/2020 16:10:13	26012020	260120	161013	100.940	12.262827	-56.486778	101.190	0.440	-0.100	-0.540	101.000	-1.500	-0.100																			1580055013.0	11.36	21.04
26/01/2020 16:10:14	26012020	260120	161014	101.220	12.262818	-56.486727	101.400	0.530	0.020	-0.430	101.270	-1.400	-0.100																			1580055014.0	11.46	21.22
26/01/2020 16:10:15	26012020	260120	161015	101.420	12.262808	-56.486677	101.550	0.510	-0.050	-0.290	101.440	-1.300	0.000																			1580055015.0	11.08	20.52
26/01/2020 16:10:16	26012020	260120	161016	101.540	12.262800	-56.486625	101.620	0.460	-0.440	-0.070	101.560	-1.600	0.200																			1580055016.0	10.78	19.96
26/01/2020 16:10:17	26012020	260120	161017	101.570	12.262792	-56.486573	101.630	0.310	-0.750	0.250	101.570	-2.000	0.500																			1580055017.0	11.00	20.37
26/01/2020 16:10:18	26012020	260120	161018	101.560	12.262780	-56.486522	101.640	-0.020	-0.670	0.520	101.560	-2.100	0.800																			1580055018.0	11.35	21.02
26/01/2020 16:10:19	26012020	260120	161019	101.560	12.262768	-56.486472	101.590	-0.370	-0.460	0.750	101.560	-1.900	1.000																			1580055019.0	11.23	20.80
26/01/2020 16:10:20	26012020	260120	161020	101.510	12.262757	-56.486422	101.440	-0.530	-0.430	0.950	101.490	-1.800	1.200																			1580055020.0	10.85	20.09
26/01/2020 16:10:21	26012020	260120	161021	101.360	12.262743	-56.486370	101.230	-0.470	-0.560	0.960	101.320	-1.900	1.300																			1580055021.0	10.89	20.17
26/01/2020 16:10:22	26012020	260120	161022	101.170	12.262730	-56.486317	101.140	-0.290	-0.470	0.670	101.150	-1.900	1.200																			1580055022.0	11.27	20.87
26/01/2020 16:10:23	26012020	260120	161023	101.100	12.262718	-56.486265	101.220	-0.140	-0.040	0.180	101.110	-1.600	0.700																			1580055023.0	11.54	21.37
26/01/2020 16:10:24	26012020	260120	161024	101.230	12.262710	-56.486213	101.460	-0.070	0.420	-0.350	101.270	-1.100	0.200																			1580055024.0	11.32	20.96
26/01/2020 16:10:25	26012020	260120	161025	101.460	12.262700	-56.486163	101.720	0.040	0.480	-0.670	101.520	-0.800	-0.200																			1580055025.0	10.91	20.21
26/01/2020 16:10:26	26012020	260120	161026	101.710	12.262692	-56.486112	101.890	0.320	0.010	-0.650	101.750	-1.100	-0.300																			1580055026.0	10.80	20.00
26/01/2020 16:10:27	26012020	260120	161027	101.850	12.262682	-56.486058	101.950	0.600	-0.510	-0.400	101.870	-1.700	-0.100																			1580055027.0	11.11	20.58
26/01/2020 16:10:28	26012020	260120	161028	101.890	12.262672	-56.486005	102.010	0.560	-0.540	-0.110	101.900	-1.900	0.100																			1580055028.0	11.59	21.46
26/01/2020 16:10:29	26012020	260120	161029	101.950	12.262662	-56.485953	102.100	0.090	-0.210	0.280	101.960	-1.700	0.500																			1580055029.0	11.50	21.30
26/01/2020 16:10:30	26012020	260120	161030	102.040	12.262650	-56.485907	102.150	-0.430	-0.110	0.710	102.050	-1.400	0.900																			1580055030.0	10.86	20.11
26/01/2020 16:10:31	26012020	260120	161031	102.060	12.262637	-56.485857	102.000	-0.600	-0.480	1.060	102.040	-1.700	1.300																			1580055031.0	10.46	19.37
26/01/2020 16:10:32	26012020	260120	161032	101.880	12.262622	-56.485805	101.720	-0.340	-0.950	1.200	101.830	-2.200	1.500																			1580055032.0	10.82	20.04
26/01/2020 16:10:33	26012020	260120	161033	101.610	12.262608	-56.485752	101.520	0.050	-0.970	0.940	101.560	-2.400	1.400																			1580055033.0	11.48	21.26
26/01/2020 16:10:34	26012020	260120	161034	101.430	12.262597	-56.485700	101.460	0.310	-0.460	0.450	101.420	-2.100	1.000																			1580055034.0	11.66	21.59
26/01/2020 16:10:35	26012020	260120	161035	101.400	12.262588	-56.485648	101.520	0.300	0.180	0.010	101.410	-1.400	0.500																			1580055035.0	11.27	20.87
26/01/2020 16:10:36	26012020	260120	161036	101.480	12.262580	-56.485598	101.600	0.100	0.460	-0.120	101.490	-0.900	0.200																			1580055036.0	10.83	20.06
26/01/2020 16:10:37	26012020	260120	161037	101.540	12.262570	-56.485548	101.660	-0.010	0.240	0.000	101.550	-1.000	0.300																			1580055037.0	10.70	19.82
26/01/2020 16:10:38	26012020	260120	161038	101.600	12.262560	-56.485495	101.780	0.060	-0.170	0.090	101.620	-1.400	0.400																			1580055038.0	11.00	20.37
26/01/2020 16:10:39	26012020	260120	161039	101.730	12.262548	-56.485442	101.940	0.110	-0.420	0.280	101.770	-1.700	0.500																			1580055039.0	11.44	21.19
26/01/2020 16:10:40	26012020	260120	161040	101.890	12.262537	-56.485390	102.020	-0.030	-0.390	0.560	101.910	-1.800	0.800																			1580055040.0	11.52	21.34
26/01/2020 16:10:41	26012020	260120	161041	101.950	12.262523	-56.485340	102.000	-0.220	-0.240	0.730	101.960	-1.700	1.000																			1580055041.0	11.25	20.84
26/01/2020 16:10:42	26012020	260120	161042	101.910	12.262512	-56.485290	101.890	-0.230	-0.240	0.760	101.890	-1.600	1.100																			1580055042.0	10.86	20.11
26/01/2020 16:10:43	26012020	260120	161043	101.810	12.262500	-56.485240	101.830	-0.080	-0.420	0.480	101.790	-1.700	1.000																			1580055043.0	10.78	19.96
26/01/2020 16:10:44	26012020	260120	161044	101.770	12.262490	-56.485187	101.840	0.040	-0.520	0.230	101.770	-1.900	0.600																			1580055044.0	11.03	20.43
26/01/2020 16:10:45	26012020	260120	161045	101.780	12.262480	-56.485135	101.780	0.050	-0.400	0.260	101.780	-1.800	0.600																			1580055045.0	11.28	20.89
26/01/2020 16:10:46	26012020	260120	161046	101.730	12.262468	-56.485085	101.680	0.080	-0.250	0.260	101.710	-1.600	0.600																			1580055046.0	11.16	20.67
26/01/2020 16:10:47	26012020	260120	161047	101.630	12.262457	-56.485035	101.590	0.160	-0.280	0.210	101.610	-1.600	0.600																			1580055047.0	10.93	20.24
26/01/2020 16:10:48	26012020	260120	161048	101.560	12.262447	-56.484982	101.630	0.130	-0.270	0.220	101.560	-1.700	0.600																			1580055048.0	11.04	20.45
26/01/2020 16:10:49	26012020	260120	161049	101.610	12.262435	-56.484930	101.710	-0.050	-0.100	0.270	101.620	-1.500	0.600																			1580055049.0	11.29	20.91
26/01/2020 16:10:50	26012020	260120	161050	101.690	12.262425	-56.484880	101.830	-0.200	0.040	0.370	101.710	-1.400	0.700																			1580055050.0	11.16	20.67
26/01/2020 16:10:51	26012020	260120	161051	101.790	12.262413	-56.484830	101.840	-0.160	-0.140	0.560	101.810	-1.400	0.900																			1580055051.0	10.93	20.24
26/01/2020 16:10:52	26012020	260120	161052	101.790	12.262400	-56.484777	101.730	0.040	-0.540	0.620	101.780	-1.800	1.000																			1580055052.0	10.95	20.28
26/01/2020 16:10:53	26012020	260120	161053	101.670	12.262388	-56.484723	101.600	0.180	-0.650	0.630	101.640	-2.000	1.000																			1580055053.0	11.35	21.02
26/01/2020 16:10:54	26012020	260120	161054	101.550	12.262378	-56.484672	101.590	0.120	-0.290	0.520	101.540	-1.800	0.900																			1580055054.0	11.58	21.45
26/01/2020 16:10:55	26012020	260120	161055	101.560	12.262368	-56.484623	101.630	-0.050	0.110	0.270	101.570	-1.400	0.700																			1580055055.0	11.22	20.78
26/01/2020 16:10:56	26012020	260120	161056	101.600	12.262358	-56.484573	101.620	-0.150	0.130	0.180	101.600	-1.200	0.500																			1580055056.0	10.71	19.83
26/01/2020 16:10:57	26012020	260120	161057	101.570	12.262347	-56.484522	101.540	-0.090	-0.080	0.330	101.560	-1.400	0.600																			1580055057.0	10.73	19.87
26/01/2020 16:10:58	26012020	260120	161058	101.470	12.262335	-56.484470	101.420	0.090	-0.290	0.420	101.450	-1.600	0.800																			1580055058.0	11.12	20.59
26/01/2020 16:10:59	26012020	260120	161059	101.370	12.262323	-56.484418	101.380	0.290	-0.440	0.340	101.360	-1.800	0.700	1015.60	26.30	26.40	19.70	19.70	946.00	66.00	66.00	369.00	29.60	351.00	8.80	76.00	3.30	68443	3270.00	27.60	27.60	1580055059.0	11.27	20.87
26/01/2020 16:11:00	26012020	260120	161100	101.360	12.262313	-56.484365	101.430	0.340	-0.470	0.210	101.370	-1.800	0.600																			1580055060.0	11.24	20.82
26/01/2020 16:11:01	26012020	260120	161101	101.400	12.262305	-56.484313	101.430	0.140	-0.390	0.260	101.400	-1.800	0.600																			1580055061.0	11.20	20.74
26/01/2020 16:11:02	26012020	260120	161102	101.390	12.262293	-56.484263	101.460	-0.220	-0.180	0.530	101.390	-1.600	0.800																			1580055062.0	11.10	20.56
26/01/2020 16:11:03	26012020	260120	161103	101.410	12.262282	-56.484213	101.470	-0.510	-0.000	0.850	101.420	-1.400	1.100																			1580055063.0	10.99	20.35
26/01/2020 16:11:04	26012020	260120	161104	101.400	12.262268	-56.484165	101.380	-0.420	-0.350	0.980	101.390	-1.500	1.300																			1580055064.0	10.78	19.96
26/01/2020 16:11:05	26012020	260120	161105	101.300	12.262255	-56.484112	101.130	-0.000	-0.940	0.960	101.260	-2.100	1.300																			1580055065.0	10.86	20.11
26/01/2020 16:11:06	26012020	260120	161106	101.030	12.262242	-56.484057	100.830	0.290	-0.880	0.800	100.970	-2.400	1.200																			1580055066.0	11.59	21.46
26/01/2020 16:11:07	26012020	260120	161107	100.760	12.262232	-56.484005	100.740	0.230	-0.140	0.490	100.720	-1.800	1.000																			1580055067.0	11.91	22.06
26/01/2020 16:11:08	26012020	260120	161108	100.710	12.262223	-56.483957	100.970	-0.010	0.500	0.060	100.750	-1.000	0.600																			1580055068.0	11.18	20.71
26/01/2020 16:11:09	26012020	260120	161109	100.960	12.262217	-56.483907	101.290	-0.130	0.520	-0.240	101.030	-0.800	0.200																			1580055069.0	10.45	19.35
26/01/2020 16:11:10	26012020	260120	161110	101.280	12.262208	-56.483855	101.570	-0.060	0.120	-0.190	101.340	-1.100	0.100																			1580055070.0	10.62	19.67
26/01/2020 16:11:11	26012020	260120	161111	101.530	12.262197	-56.483802	101.640	0.150	-0.320	0.180	101.560	-1.500	0.400																			1580055071.0	11.16	20.67
26/01/2020 16:11:12	26012020	260120	161112	101.580	12.262185	-56.483748	101.470	0.310	-0.610	0.600	101.550	-1.900	0.800																			1580055072.0	11.43	21.17
26/01/2020 16:11:13	26012020	260120	161113	101.380	12.262172	-56.483697	101.260	0.250	-0.650	0.750	101.340	-2.000	1.100																			1580055073.0	11.40	21.11
26/01/2020 16:11:14	26012020	260120	161114	101.200	12.262162	-56.483647	101.140	-0.030	-0.440	0.700	101.170	-1.900	1.100																			1580055074.0	11.24	20.82
26/01/2020 16:11:15	26012020	260120	161115	101.090	12.262152	-56.483597	101.060	-0.270	-0.190	0.600	101.070	-1.600	1.000																			1580055075.0	10.99	20.35
26/01/2020 16:11:16	26012020	260120	161116	101.030	12.262142	-56.483547	101.080	-0.270	-0.250	0.460	101.020	-1.600	0.900																			1580055076.0	10.73	19.87
26/01/2020 16:11:17	26012020	260120	161117	101.030	12.262130	-56.483495	101.030	-0.160	-0.440	0.490	101.030	-1.700	0.800																			1580055077.0	10.82	20.04
26/01/2020 16:11:18	26012020	260120	161118	100.980	12.262118	-56.483442	100.890	-0.120	-0.360	0.610	100.960	-1.800	0.900																			1580055078.0	11.28	20.89
26/01/2020 16:11:19	26012020	260120	161119	100.850	12.262105	-56.483392	100.790	-0.100	-0.050	0.530	100.830	-1.500	0.900																			1580055079.0	11.39	21.09
26/01/2020 16:11:20	26012020	260120	161120	100.770	12.262095	-56.483342	100.780	0.020	0.040	0.310	100.760	-1.300	0.700																			1580055080.0	11.04	20.45
26/01/2020 16:11:21	26012020	260120	161121	100.760	12.262087	-56.483290	100.800	0.280	-0.330	0.090	100.760	-1.500	0.500																			1580055081.0	10.76	19.93
26/01/2020 16:11:22	26012020	260120	161122	100.780	12.262077	-56.483237	100.860	0.450	-0.580	0.010	100.780	-1.900	0.400																			1580055082.0	11.08	20.52
26/01/2020 16:11:23	26012020	260120	161123	100.840	12.262068	-56.483183	100.960	0.310	-0.300	0.190	100.860	-1.800	0.400																			1580055083.0	11.61	21.50
26/01/2020 16:11:24	26012020	260120	161124	100.920	12.262058	-56.483133	100.980	-0.090	0.110	0.550	100.930	-1.400	0.800																			1580055084.0	11.37	21.06
26/01/2020 16:11:25	26012020	260120	161125	100.920	12.262047	-56.483085	100.930	-0.470	0.120	0.840	100.910	-1.200	1.100																			1580055085.0	10.72	19.85
26/01/2020 16:11:26	26012020	260120	161126	100.870	12.262035	-56.483033	100.900	-0.500	-0.300	0.940	100.860	-1.500	1.300																			1580055086.0	10.60	19.63
26/01/2020 16:11:27	26012020	260120	161127	100.820	12.262022	-56.482980	100.800	-0.210	-0.670	0.890	100.810	-1.900	1.300																			1580055087.0	11.06	20.48
26/01/2020 16:11:28	26012020	260120	161128	100.720	12.262010	-56.482928	100.580	0.130	-0.680	0.770	100.690	-2.100	1.200																			1580055088.0	11.54	21.37
26/01/2020 16:11:29	26012020	260120	161129	100.530	12.262000	-56.482877	100.410	0.320	-0.420	0.500	100.490	-1.900	1.000																			1580055089.0	11.46	21.22
26/01/2020 16:11:30	26012020	260120	161130	100.380	12.261992	-56.482825	100.410	0.310	-0.020	0.080	100.370	-1.500	0.600																			1580055090.0	11.15	20.65
26/01/2020 16:11:31	26012020	260120	161131	100.420	12.261985	-56.482775	100.610	0.120	0.370	-0.210	100.450	-1.100	0.200																			1580055091.0	10.93	20.24
26/01/2020 16:11:32	26012020	260120	161132	100.640	12.261978	-56.482725	100.830	-0.040	0.350	-0.160	100.680	-0.900	0.100																			1580055092.0	10.78	19.96
26/01/2020 16:11:33	26012020	260120	161133	100.840	12.261968	-56.482673	100.850	0.010	-0.170	0.210	100.860	-1.300	0.400																			1580055093.0	10.68	19.78
26/01/2020 16:11:34	26012020	260120	161134	100.830	12.261955	-56.482620	100.750	0.210	-0.790	0.520	100.810	-2.000	0.800																			1580055094.0	11.01	20.39
26/01/2020 16:11:35	26012020	260120	161135	100.720	12.261945	-56.482567	100.690	0.250	-0.930	0.700	100.700	-2.300	1.000																			1580055095.0	11.53	21.35
26/01/2020 16:11:36	26012020	260120	161136	100.640	12.261933	-56.482515	100.620	-0.040	-0.540	0.760	100.630	-2.100	1.100																			1580055096.0	11.61	21.50
26/01/2020 16:11:37	26012020	260120	161137	100.590	12.261923	-56.482467	100.560	-0.430	-0.170	0.690	100.570	-1.600	1.100																			1580055097.0	11.09	20.54
26/01/2020 16:11:38	26012020	260120	161138	100.530	12.261913	-56.482417	100.450	-0.590	-0.220	0.650	100.510	-1.500	1.000																			1580055098.0	10.58	19.59
26/01/2020 16:11:39	26012020	260120	161139	100.410	12.261902	-56.482365	100.260	-0.450	-0.450	0.750	100.380	-1.700	1.100																			1580055099.0	10.75	19.91
26/01/2020 16:11:40	26012020	260120	161140	100.230	12.261888	-56.482312	100.160	-0.210	-0.420	0.820	100.200	-1.800	1.200																			1580055100.0	11.37	21.06
26/01/2020 16:11:41	26012020	260120	161141	100.150	12.261877	-56.482260	100.200	0.090	-0.180	0.620	100.150	-1.600	1.100																			1580055101.0	11.58	21.45
26/01/2020 16:11:42	26012020	260120	161142	100.220	12.261867	-56.482208	100.360	0.390	0.040	0.230	100.240	-1.400	0.700																			1580055102.0	11.07	20.50
26/01/2020 16:11:43	26012020	260120	161143	100.370	12.261860	-56.482157	100.530	0.510	0.240	-0.040	100.400	-1.200	0.400																			1580055103.0	11.07	20.50
26/01/2020 16:11:44	26012020	260120	161144	100.540	12.261852	-56.482105	100.760	0.400	0.410	-0.180	100.580	-1.000	0.200																			1580055104.0	11.08	20.52
26/01/2020 16:11:45	26012020	260120	161145	100.780	12.261845	-56.482055	101.020	0.170	0.390	-0.050	100.830	-0.900	0.200																			1580055105.0	10.95	20.28
26/01/2020 16:11:46	26012020	260120	161146	101.030	12.261837	-56.482005	101.150	-0.010	-0.050	0.340	101.060	-1.200	0.500																			1580055106.0	10.76	19.93
26/01/2020 16:11:47	26012020	260120	161147	101.120	12.261825	-56.481953	101.040	-0.010	-0.820	0.740	101.110	-1.900	0.900																			1580055107.0	10.79	19.98
26/01/2020 16:11:48	26012020	260120	161148	100.970	12.261813	-56.481900	100.730	0.120	-1.420	1.080	100.900	-2.600	1.300																			1580055108.0	11.14	20.63
26/01/2020 16:11:49	26012020	260120	161149	100.640	12.261802	-56.481847	100.430	0.150	-1.340	1.180	100.570	-2.800	1.500																			1580055109.0	11.57	21.43
26/01/2020 16:11:50	26012020	260120	161150	100.340	12.261792	-56.481797	100.240	-0.050	-0.720	1.060	100.300	-2.300	1.500																			1580055110.0	11.52	21.34
26/01/2020 16:11:51	26012020	260120	161151	100.170	12.261782	-56.481747	100.160	-0.360	-0.090	0.800	100.150	-1.600	1.200																			1580055111.0	10.98	20.33
26/01/2020 16:11:52	26012020	260120	161152	100.110	12.261772	-56.481697	100.120	-0.550	0.200	0.650	100.110	-1.200	1.000																			1580055112.0	10.62	19.67
26/01/2020 16:11:53	26012020	260120	161153	100.080	12.261760	-56.481645	100.100	-0.480	0.050	0.600	100.060	-1.200	1.000																			1580055113.0	10.77	19.95
26/01/2020 16:11:54	26012020	260120	161154	100.060	12.261748	-56.481592	100.170	-0.170	-0.170	0.520	100.060	-1.500	0.900																			1580055114.0	11.20	20.74
26/01/2020 16:11:55	26012020	260120	161155	100.140	12.261738	-56.481538	100.400	0.090	-0.010	0.410	100.170	-1.500	0.800																			1580055115.0	11.64	21.56
26/01/2020 16:11:56	26012020	260120	161156	100.370	12.261728	-56.481487	100.700	0.090	0.430	0.270	100.430	-1.100	0.700																			1580055116.0	11.60	21.48
26/01/2020 16:11:57	26012020	260120	161157	100.700	12.261720	-56.481437	101.050	-0.000	0.500	0.210	100.770	-0.800	0.600																			1580055117.0	11.01	20.39
26/01/2020 16:11:58	26012020	260120	161158	101.040	12.261712	-56.481387	101.300	0.080	-0.040	0.290	101.100	-1.200	0.600																			1580055118.0	10.54	19.52
26/01/2020 16:11:59	26012020	260120	161159	101.260	12.261702	-56.481333	101.430	0.300	-0.640	0.300	101.290	-1.800	0.700	1015.60	26.30	26.40	19.40	19.50	903.00	65.00	66.00	369.00	29.50	350.00	8.80	72.00	3.30	66214	3215.00	27.60	27.60	1580055119.0	10.84	20.08
26/01/2020 16:12:00	26012020	260120	161200	101.380	12.261693	-56.481282	101.520	0.400	-0.700	0.250	101.400	-2.100	0.600																			1580055120.0	11.42	21.15
26/01/2020 16:12:01	26012020	260120	161201	101.460	12.261685	-56.481230	101.480	0.280	-0.510	0.380	101.470	-1.900	0.700																			1580055121.0	11.36	21.04
26/01/2020 16:12:02	26012020	260120	161202	101.430	12.261675	-56.481182	101.320	0.160	-0.660	0.520	101.400	-1.900	0.800																			1580055122.0	10.75	19.91
26/01/2020 16:12:03	26012020	260120	161203	101.240	12.261665	-56.481130	101.060	0.180	-1.020	0.630	101.190	-2.300	0.900																			1580055123.0	10.60	19.63
26/01/2020 16:12:04	26012020	260120	161204	100.980	12.261653	-56.481075	100.810	0.200	-0.960	0.760	100.930	-2.400	1.100																			1580055124.0	11.22	20.78
26/01/2020 16:12:05	26012020	260120	161205	100.750	12.261642	-56.481023	100.710	-0.010	-0.290	0.710	100.710	-1.900	1.100																			1580055125.0	11.65	21.58
26/01/2020 16:12:06	26012020	260120	161206	100.660	12.261632	-56.480975	100.840	-0.400	0.450	0.470	100.680	-1.100	0.900																			1580055126.0	11.28	20.89
26/01/2020 16:12:07	26012020	260120	161207	100.820	12.261623	-56.480925	101.060	-0.690	0.670	0.310	100.860	-0.700	0.700																			1580055127.0	10.69	19.80
26/01/2020 16:12:08	26012020	260120	161208	101.050	12.261612	-56.480873	101.220	-0.610	0.240	0.240	101.090	-0.900	0.600																			1580055128.0	10.58	19.59
26/01/2020 16:12:09	26012020	260120	161209	101.210	12.261600	-56.480820	101.320	-0.230	-0.290	0.260	101.220	-1.500	0.600																			1580055129.0	11.10	20.56
26/01/2020 16:12:10	26012020	260120	161210	101.310	12.261588	-56.480767	101.500	0.090	-0.400	0.260	101.330	-1.800	0.600																			1580055130.0	11.67	21.61
26/01/2020 16:12:11	26012020	260120	161211	101.490	12.261578	-56.480715	101.720	0.130	-0.120	0.130	101.540	-1.600	0.500																			1580055131.0	11.62	21.52
26/01/2020 16:12:12	26012020	260120	161212	101.720	12.261568	-56.480667	101.920	-0.000	0.060	0.040	101.760	-1.300	0.400																			1580055132.0	11.04	20.45
26/01/2020 16:12:13	26012020	260120	161213	101.890	12.261560	-56.480617	101.980	-0.020	-0.190	0.230	101.910	-1.400	0.500																			1580055133.0	10.53	19.50
26/01/2020 16:12:14	26012020	260120	161214	101.940	12.261548	-56.480565	101.880	0.210	-0.780	0.490	101.930	-1.900	0.800																			1580055134.0	10.60	19.63
26/01/2020 16:12:15	26012020	260120	161215	101.800	12.261537	-56.480512	101.600	0.510	-1.200	0.560	101.750	-2.500	0.900																			1580055135.0	11.09	20.54
26/01/2020 16:12:16	26012020	260120	161216	101.530	12.261527	-56.480458	101.370	0.600	-1.020	0.470	101.480	-2.500	0.900																			1580055136.0	11.59	21.46
26/01/2020 16:12:17	26012020	260120	161217	101.330	12.261518	-56.480407	101.310	0.370	-0.390	0.330	101.310	-2.000	0.700																			1580055137.0	11.52	21.34
26/01/2020 16:12:18	26012020	260120	161218	101.280	12.261508	-56.480358	101.330	-0.020	0.240	0.280	101.290	-1.300	0.600																			1580055138.0	11.04	20.45
26/01/2020 16:12:19	26012020	260120	161219	101.320	12.261498	-56.480308	101.390	-0.300	0.440	0.310	101.320	-0.900	0.600																			1580055139.0	10.67	19.76
26/01/2020 16:12:20	26012020	260120	161220	101.370	12.261488	-56.480257	101.500	-0.350	0.240	0.350	101.380	-1.000	0.700																			1580055140.0	10.71	19.83
26/01/2020 16:12:21	26012020	260120	161221	101.490	12.261475	-56.480203	101.750	-0.380	0.130	0.350	101.530	-1.200	0.700																			1580055141.0	11.19	20.72
26/01/2020 16:12:22	26012020	260120	161222	101.760	12.261463	-56.480152	102.080	-0.550	0.280	0.380	101.830	-1.100	0.700																			1580055142.0	11.51	21.32
26/01/2020 16:12:23	26012020	260120	161223	102.070	12.261452	-56.480103	102.220	-0.600	0.150	0.430	102.120	-1.100	0.800																			1580055143.0	11.10	20.56
26/01/2020 16:12:24	26012020	260120	161224	102.180	12.261438	-56.480055	102.200	-0.230	-0.540	0.450	102.180	-1.600	0.800																			1580055144.0	10.58	19.59
26/01/2020 16:12:25	26012020	260120	161225	102.140	12.261427	-56.480002	102.170	0.360	-1.240	0.450	102.140	-2.400	0.800																			1580055145.0	10.86	20.11
26/01/2020 16:12:26	26012020	260120	161226	102.110	12.261417	-56.479947	102.070	0.740	-1.310	0.440	102.100	-2.700	0.800																			1580055146.0	11.53	21.35
26/01/2020 16:12:27	26012020	260120	161227	101.990	12.261407	-56.479897	101.830	0.720	-0.780	0.420	101.950	-2.400	0.800																			1580055147.0	11.58	21.45
26/01/2020 16:12:28	26012020	260120	161228	101.740	12.261397	-56.479847	101.570	0.410	-0.070	0.540	101.680	-1.700	0.800																			1580055148.0	11.03	20.43
26/01/2020 16:12:29	26012020	260120	161229	101.480	12.261387	-56.479798	101.430	0.000	0.340	0.640	101.440	-1.100	1.000																			1580055149.0	10.58	19.59
26/01/2020 16:12:30	26012020	260120	161230	101.360	12.261377	-56.479748	101.470	-0.250	0.230	0.570	101.360	-1.000	0.900																			1580055150.0	10.55	19.54
26/01/2020 16:12:31	26012020	260120	161231	101.400	12.261367	-56.479695	101.530	-0.210	-0.200	0.550	101.420	-1.400	0.900																			1580055151.0	10.89	20.17
26/01/2020 16:12:32	26012020	260120	161232	101.470	12.261355	-56.479640	101.590	-0.120	-0.450	0.610	101.480	-1.800	0.900																			1580055152.0	11.40	21.11
26/01/2020 16:12:33	26012020	260120	161233	101.540	12.261342	-56.479588	101.670	-0.230	-0.150	0.630	101.560	-1.700	1.000																			1580055153.0	11.74	21.74
26/01/2020 16:12:34	26012020	260120	161234	101.630	12.261330	-56.479538	101.780	-0.450	0.380	0.540	101.650	-1.200	0.900																			1580055154.0	11.45	21.21
26/01/2020 16:12:35	26012020	260120	161235	101.770	12.261320	-56.479492	101.980	-0.450	0.410	0.350	101.810	-0.900	0.800																			1580055155.0	10.69	19.80
26/01/2020 16:12:36	26012020	260120	161236	101.970	12.261310	-56.479442	102.070	-0.030	-0.340	0.140	102.000	-1.400	0.600																			1580055156.0	10.34	19.15
26/01/2020 16:12:37	26012020	260120	161237	102.050	12.261298	-56.479387	102.080	0.450	-1.080	-0.030	102.050	-2.200	0.400																			1580055157.0	10.89	20.17
26/01/2020 16:12:38	26012020	260120	161238	102.040	12.261288	-56.479332	102.060	0.510	-0.900	-0.030	102.040	-2.400	0.300																			1580055158.0	11.75	21.76
26/01/2020 16:12:39	26012020	260120	161239	102.030	12.261278	-56.479283	102.040	0.140	-0.110	0.030	102.030	-1.800	0.400																			1580055159.0	11.67	21.61
26/01/2020 16:12:40	26012020	260120	161240	101.990	12.261268	-56.479237	101.970	-0.250	0.270	0.040	101.980	-1.100	0.400																			1580055160.0	10.61	19.65
26/01/2020 16:12:41	26012020	260120	161241	101.920	12.261258	-56.479188	101.830	-0.240	-0.140	0.170	101.890	-1.300	0.500																			1580055161.0	10.03	18.58
26/01/2020 16:12:42	26012020	260120	161242	101.760	12.261245	-56.479135	101.690	0.130	-0.770	0.270	101.730	-1.900	0.600																			1580055162.0	10.60	19.63
26/01/2020 16:12:43	26012020	260120	161243	101.630	12.261233	-56.479080	101.630	0.470	-0.910	0.260	101.610	-2.300	0.600																			1580055163.0	11.55	21.39
26/01/2020 16:12:44	26012020	260120	161244	101.590	12.261222	-56.479028	101.590	0.430	-0.420	0.200	101.570	-2.000	0.600																			1580055164.0	11.78	21.82
26/01/2020 16:12:45	26012020	260120	161245	101.560	12.261213	-56.478978	101.630	-0.000	0.270	0.070	101.560	-1.300	0.500																			1580055165.0	11.31	20.95
26/01/2020 16:12:46	26012020	260120	161246	101.610	12.261203	-56.478930	101.740	-0.410	0.490	0.150	101.640	-0.900	0.400																			1580055166.0	10.64	19.71
26/01/2020 16:12:47	26012020	260120	161247	101.720	12.261192	-56.478880	101.830	-0.480	0.070	0.460	101.730	-1.100	0.700																			1580055167.0	10.41	19.28
26/01/2020 16:12:48	26012020	260120	161248	101.790	12.261178	-56.478827	101.940	-0.340	-0.420	0.730	101.810	-1.600	1.000																			1580055168.0	10.93	20.24
26/01/2020 16:12:49	26012020	260120	161249	101.880	12.261163	-56.478775	101.970	-0.200	-0.480	0.830	101.890	-1.900	1.200																			1580055169.0	11.58	21.45
26/01/2020 16:12:50	26012020	260120	161250	101.900	12.261150	-56.478725	101.860	-0.080	-0.240	0.710	101.890	-1.700	1.100																			1580055170.0	11.49	21.28
26/01/2020 16:12:51	26012020	260120	161251	101.790	12.261140	-56.478677	101.750	0.110	-0.180	0.430	101.760	-1.500	0.900																			1580055171.0	10.91	20.21
26/01/2020 16:12:52	26012020	260120	161252	101.680	12.261132	-56.478625	101.700	0.340	-0.380	0.180	101.670	-1.700	0.600																			1580055172.0	10.63	19.69
26/01/2020 16:12:53	26012020	260120	161253	101.650	12.261122	-56.478573	101.650	0.450	-0.430	0.060	101.650	-1.800	0.400																			1580055173.0	10.95	20.28
26/01/2020 16:12:54	26012020	260120	161254	101.600	12.261112	-56.478522	101.530	0.400	-0.280	0.140	101.580	-1.700	0.400																			1580055174.0	11.21	20.76
26/01/2020 16:12:55	26012020	260120	161255	101.480	12.261103	-56.478472	101.460	0.320	-0.280	0.430	101.460	-1.600	0.700																			1580055175.0	11.00	20.37
26/01/2020 16:12:56	26012020	260120	161256	101.410	12.261092	-56.478420	101.540	0.200	-0.430	0.670	101.420	-1.700	0.900																			1580055176.0	10.83	20.06
26/01/2020 16:12:57	26012020	260120	161257	101.480	12.261080	-56.478368	101.640	-0.110	-0.310	0.870	101.500	-1.800	1.100																			1580055177.0	11.10	20.56
26/01/2020 16:12:58	26012020	260120	161258	101.570	12.261068	-56.478318	101.690	-0.540	0.100	1.000	101.580	-1.400	1.300																			1580055178.0	11.28	20.89
26/01/2020 16:12:59	26012020	260120	161259	101.620	12.261055	-56.478270	101.760	-0.730	0.170	0.940	101.640	-1.100	1.300	1015.60	26.30	26.40	19.40	19.50	874.00	65.00	65.00	368.00	29.50	349.00	9.00	73.00	3.60	64949	3176.00	27.60	27.60	1580055179.0	10.88	20.15
26/01/2020 16:13:00	26012020	260120	161300	101.680	12.261042	-56.478220	101.760	-0.420	-0.350	0.760	101.700	-1.500	1.200																			1580055180.0	10.53	19.50
26/01/2020 16:13:01	26012020	260120	161301	101.670	12.261030	-56.478167	101.610	0.170	-0.930	0.420	101.650	-2.100	0.900																			1580055181.0	10.94	20.26
26/01/2020 16:13:02	26012020	260120	161302	101.530	12.261022	-56.478112	101.530	0.570	-0.880	0.070	101.500	-2.300	0.500																			1580055182.0	11.65	21.58
26/01/2020 16:13:03	26012020	260120	161303	101.460	12.261013	-56.478060	101.600	0.490	-0.140	0.050	101.460	-1.800	0.400																			1580055183.0	11.75	21.76
26/01/2020 16:13:04	26012020	260120	161304	101.540	12.261003	-56.478012	101.710	0.060	0.550	0.210	101.560	-1.000	0.500																			1580055184.0	11.08	20.52
26/01/2020 16:13:05	26012020	260120	161305	101.640	12.260993	-56.477965	101.760	-0.290	0.560	0.310	101.650	-0.700	0.600																			1580055185.0	10.31	19.09
26/01/2020 16:13:06	26012020	260120	161306	101.680	12.260982	-56.477913	101.800	-0.250	-0.030	0.380	101.690	-1.100	0.700																			1580055186.0	10.32	19.11
26/01/2020 16:13:07	26012020	260120	161307	101.720	12.260970	-56.477860	101.780	0.070	-0.750	0.370	101.730	-1.900	0.700																			1580055187.0	10.99	20.35
26/01/2020 16:13:08	26012020	260120	161308	101.710	12.260958	-56.477807	101.720	0.330	-1.020	0.380	101.700	-2.300	0.700																			1580055188.0	11.57	21.43
26/01/2020 16:13:09	26012020	260120	161309	101.650	12.260948	-56.477755	101.620	0.230	-0.610	0.500	101.640	-2.200	0.800																			1580055189.0	11.67	21.61
26/01/2020 16:13:10	26012020	260120	161310	101.550	12.260938	-56.477707	101.480	-0.120	0.020	0.560	101.530	-1.500	0.900																			1580055190.0	11.19	20.72
26/01/2020 16:13:11	26012020	260120	161311	101.440	12.260927	-56.477658	101.390	-0.370	0.130	0.480	101.420	-1.200	0.900																			1580055191.0	10.49	19.43
26/01/2020 16:13:12	26012020	260120	161312	101.330	12.260915	-56.477608	101.300	-0.370	-0.230	0.390	101.320	-1.400	0.800																			1580055192.0	10.35	19.17
26/01/2020 16:13:13	26012020	260120	161313	101.250	12.260903	-56.477555	101.250	-0.250	-0.430	0.260	101.240	-1.800	0.700																			1580055193.0	11.05	20.46
26/01/2020 16:13:14	26012020	260120	161314	101.210	12.260892	-56.477503	101.150	-0.070	-0.360	0.220	101.190	-1.800	0.600																			1580055194.0	11.50	21.30
26/01/2020 16:13:15	26012020	260120	161315	101.110	12.260880	-56.477453	101.000	0.230	-0.340	0.240	101.090	-1.700	0.600																			1580055195.0	11.21	20.76
26/01/2020 16:13:16	26012020	260120	161316	100.950	12.260870	-56.477402	100.880	0.480	-0.320	0.130	100.930	-1.700	0.500																			1580055196.0	10.95	20.28
26/01/2020 16:13:17	26012020	260120	161317	100.870	12.260862	-56.477350	101.000	0.400	-0.050	-0.040	100.880	-1.500	0.400																			1580055197.0	11.14	20.63
26/01/2020 16:13:18	26012020	260120	161318	101.000	12.260853	-56.477300	101.210	0.050	0.290	0.050	101.040	-1.200	0.300																			1580055198.0	11.13	20.61
26/01/2020 16:13:19	26012020	260120	161319	101.200	12.260843	-56.477250	101.350	-0.210	0.220	0.370	101.230	-1.100	0.600																			1580055199.0	10.72	19.85
26/01/2020 16:13:20	26012020	260120	161320	101.300	12.260832	-56.477200	101.370	-0.130	-0.370	0.690	101.310	-1.500	0.900																			1580055200.0	10.52	19.48
26/01/2020 16:13:21	26012020	260120	161321	101.290	12.260820	-56.477147	101.260	0.110	-0.920	0.980	101.280	-2.100	1.200																			1580055201.0	10.96	20.30
26/01/2020 16:13:22	26012020	260120	161322	101.170	12.260807	-56.477095	101.030	0.160	-0.910	1.210	101.130	-2.400	1.500																			1580055202.0	11.54	21.37
26/01/2020 16:13:23	26012020	260120	161323	100.930	12.260795	-56.477043	100.840	-0.090	-0.440	1.140	100.880	-2.000	1.500																			1580055203.0	11.49	21.28
26/01/2020 16:13:24	26012020	260120	161324	100.760	12.260785	-56.476995	100.750	-0.410	-0.060	0.970	100.730	-1.500	1.400																			1580055204.0	10.94	20.26
26/01/2020 16:13:25	26012020	260120	161325	100.670	12.260775	-56.476945	100.660	-0.440	-0.200	0.820	100.650	-1.500	1.200																			1580055205.0	10.54	19.52
26/01/2020 16:13:26	26012020	260120	161326	100.570	12.260763	-56.476893	100.510	-0.060	-0.510	0.640	100.540	-1.800	1.000																			1580055206.0	10.78	19.96
26/01/2020 16:13:27	26012020	260120	161327	100.410	12.260752	-56.476838	100.370	0.280	-0.320	0.460	100.380	-1.800	0.900																			1580055207.0	11.43	21.17
26/01/2020 16:13:28	26012020	260120	161328	100.320	12.260743	-56.476787	100.540	0.200	0.300	0.220	100.330	-1.300	0.700																			1580055208.0	11.66	21.59
26/01/2020 16:13:29	26012020	260120	161329	100.510	12.260735	-56.476738	100.890	-0.130	0.720	-0.030	100.590	-0.700	0.400																			1580055209.0	11.04	20.45
26/01/2020 16:13:30	26012020	260120	161330	100.890	12.260727	-56.476690	101.150	-0.240	0.450	-0.040	100.970	-0.700	0.300																			1580055210.0	10.39	19.24
26/01/2020 16:13:31	26012020	260120	161331	101.150	12.260717	-56.476638	101.270	0.060	-0.350	0.240	101.180	-1.400	0.500																			1580055211.0	10.45	19.35
26/01/2020 16:13:32	26012020	260120	161332	101.250	12.260705	-56.476585	101.290	0.420	-0.960	0.540	101.260	-2.200	0.800																			1580055212.0	11.12	20.59
26/01/2020 16:13:33	26012020	260120	161333	101.270	12.260693	-56.476532	101.250	0.470	-0.970	0.690	101.270	-2.400	1.000																			1580055213.0	11.60	21.48
26/01/2020 16:13:34	26012020	260120	161334	101.220	12.260683	-56.476483	101.120	0.210	-0.690	0.690	101.200	-2.100	1.000																			1580055214.0	11.35	21.02
26/01/2020 16:13:35	26012020	260120	161335	101.080	12.260675	-56.476433	100.950	-0.050	-0.540	0.610	101.050	-1.900	1.000																			1580055215.0	10.74	19.89
26/01/2020 16:13:36	26012020	260120	161336	100.920	12.260665	-56.476382	100.820	-0.220	-0.440	0.560	100.890	-1.800	0.900																			1580055216.0	10.65	19.72
26/01/2020 16:13:37	26012020	260120	161337	100.790	12.260653	-56.476330	100.670	-0.290	-0.260	0.560	100.760	-1.700	0.900																			1580055217.0	10.99	20.35
26/01/2020 16:13:38	26012020	260120	161338	100.640	12.260642	-56.476280	100.550	-0.340	0.030	0.560	100.610	-1.400	0.900																			1580055218.0	11.16	20.67
26/01/2020 16:13:39	26012020	260120	161339	100.500	12.260632	-56.476228	100.500	-0.310	0.090	0.490	100.490	-1.200	0.900																			1580055219.0	11.10	20.56
26/01/2020 16:13:40	26012020	260120	161340	100.460	12.260620	-56.476177	100.540	-0.150	-0.110	0.380	100.470	-1.400	0.800																			1580055220.0	10.98	20.33
26/01/2020 16:13:41	26012020	260120	161341	100.500	12.260610	-56.476123	100.630	-0.010	-0.090	0.180	100.510	-1.500	0.600																			1580055221.0	11.25	20.84
26/01/2020 16:13:42	26012020	260120	161342	100.590	12.260600	-56.476073	100.790	-0.030	0.360	0.030	100.620	-1.200	0.400																			1580055222.0	11.48	21.26
26/01/2020 16:13:43	26012020	260120	161343	100.770	12.260592	-56.476025	101.030	-0.110	0.570	-0.010	100.820	-0.800	0.300																			1580055223.0	11.03	20.43
26/01/2020 16:13:44	26012020	260120	161344	101.010	12.260582	-56.475975	101.150	0.060	-0.070	0.080	101.050	-1.100	0.400																			1580055224.0	10.35	19.17
26/01/2020 16:13:45	26012020	260120	161345	101.110	12.260572	-56.475922	101.010	0.440	-1.080	0.400	101.100	-2.100	0.600																			1580055225.0	10.51	19.46
26/01/2020 16:13:46	26012020	260120	161346	100.940	12.260560	-56.475868	100.670	0.680	-1.460	0.790	100.880	-2.800	1.000																			1580055226.0	11.44	21.19
26/01/2020 16:13:47	26012020	260120	161347	100.600	12.260548	-56.475815	100.400	0.560	-1.010	0.940	100.550	-2.600	1.300																			1580055227.0	11.82	21.89
26/01/2020 16:13:48	26012020	260120	161348	100.330	12.260540	-56.475767	100.200	0.130	-0.240	0.910	100.280	-1.900	1.300																			1580055228.0	11.24	20.82
26/01/2020 16:13:49	26012020	260120	161349	100.130	12.260532	-56.475718	100.140	-0.360	0.240	0.800	100.110	-1.200	1.200																			1580055229.0	10.53	19.50
26/01/2020 16:13:50	26012020	260120	161350	100.090	12.260522	-56.475668	100.200	-0.630	0.220	0.690	100.100	-1.100	1.100																			1580055230.0	10.40	19.26
26/01/2020 16:13:51	26012020	260120	161351	100.150	12.260510	-56.475617	100.230	-0.540	-0.120	0.670	100.160	-1.300	1.000																			1580055231.0	10.78	19.96
26/01/2020 16:13:52	26012020	260120	161352	100.180	12.260498	-56.475563	100.230	-0.210	-0.430	0.720	100.180	-1.700	1.000																			1580055232.0	11.29	20.91
26/01/2020 16:13:53	26012020	260120	161353	100.160	12.260487	-56.475510	100.300	0.070	-0.390	0.690	100.170	-1.800	1.100																			1580055233.0	11.59	21.46
26/01/2020 16:13:54	26012020	260120	161354	100.250	12.260477	-56.475458	100.480	0.120	0.010	0.600	100.280	-1.500	1.000																			1580055234.0	11.54	21.37
26/01/2020 16:13:55	26012020	260120	161355	100.430	12.260468	-56.475410	100.700	0.050	0.300	0.420	100.480	-1.100	0.800																			1580055235.0	11.06	20.48
26/01/2020 16:13:56	26012020	260120	161356	100.660	12.260460	-56.475360	100.840	0.080	0.100	0.240	100.700	-1.100	0.600																			1580055236.0	10.58	19.59
26/01/2020 16:13:57	26012020	260120	161357	100.790	12.260452	-56.475307	100.870	0.210	-0.320	0.230	100.810	-1.500	0.600																			1580055237.0	10.68	19.78
26/01/2020 16:13:58	26012020	260120	161358	100.830	12.260442	-56.475255	100.910	0.290	-0.600	0.300	100.830	-1.900	0.600																			1580055238.0	11.17	20.69
26/01/2020 16:13:59	26012020	260120	161359	100.870	12.260433	-56.475203	100.930	0.260	-0.650	0.380	100.870	-2.000	0.700	1015.60	26.30	26.30	19.50	19.60	908.00	66.00	66.00	368.00	29.50	350.00	8.70	73.00	3.20	66422	3125.00	27.60	27.60	1580055239.0	11.32	20.96
26/01/2020 16:14:00	26012020	260120	161400	100.880	12.260423	-56.475152	100.910	0.140	-0.510	0.560	100.880	-1.900	0.800																			1580055240.0	11.13	20.61
26/01/2020 16:14:01	26012020	260120	161401	100.840	12.260412	-56.475102	100.790	-0.010	-0.330	0.820	100.820	-1.700	1.100																			1580055241.0	10.95	20.28
26/01/2020 16:14:02	26012020	260120	161402	100.700	12.260402	-56.475052	100.610	-0.110	-0.310	0.890	100.660	-1.700	1.200																			1580055242.0	10.83	20.06
26/01/2020 16:14:03	26012020	260120	161403	100.510	12.260392	-56.475000	100.500	-0.120	-0.480	0.720	100.480	-1.800	1.100																			1580055243.0	10.90	20.19
26/01/2020 16:14:04	26012020	260120	161404	100.410	12.260382	-56.474947	100.510	-0.140	-0.460	0.530	100.410	-1.900	0.900																			1580055244.0	11.17	20.69
26/01/2020 16:14:05	26012020	260120	161405	100.450	12.260372	-56.474895	100.640	-0.260	-0.120	0.430	100.480	-1.600	0.800																			1580055245.0	11.43	21.17
26/01/2020 16:14:06	26012020	260120	161406	100.580	12.260362	-56.474845	100.740	-0.370	0.130	0.440	100.600	-1.300	0.800																			1580055246.0	11.20	20.74
26/01/2020 16:14:07	26012020	260120	161407	100.680	12.260350	-56.474795	100.760	-0.230	0.020	0.530	100.690	-1.300	0.800																			1580055247.0	10.83	20.06
26/01/2020 16:14:08	26012020	260120	161408	100.690	12.260338	-56.474742	100.700	0.100	-0.250	0.620	100.680	-1.500	0.900																			1580055248.0	10.94	20.26
26/01/2020 16:14:09	26012020	260120	161409	100.640	12.260328	-56.474688	100.770	0.320	-0.270	0.440	100.640	-1.700	0.900																			1580055249.0	11.36	21.04
26/01/2020 16:14:10	26012020	260120	161410	100.720	12.260320	-56.474637	101.060	0.240	0.060	0.090	100.770	-1.400	0.600																			1580055250.0	11.46	21.22
26/01/2020 16:14:11	26012020	260120	161411	101.030	12.260313	-56.474588	101.370	-0.030	0.360	-0.160	101.100	-1.100	0.300																			1580055251.0	11.09	20.54
26/01/2020 16:14:12	26012020	260120	161412	101.340	12.260305	-56.474538	101.580	-0.120	0.070	-0.120	101.390	-1.100	0.200																			1580055252.0	10.56	19.56
26/01/2020 16:14:13	26012020	260120	161413	101.540	12.260295	-56.474487	101.590	0.140	-0.730	0.200	101.550	-1.800	0.400																			1580055253.0	10.49	19.43
26/01/2020 16:14:14	26012020	260120	161414	101.520	12.260283	-56.474433	101.380	0.520	-1.360	0.540	101.490	-2.600	0.800																			1580055254.0	11.14	20.63
26/01/2020 16:14:15	26012020	260120	161415	101.290	12.260272	-56.474378	101.110	0.590	-1.230	0.700	101.230	-2.700	1.000																			1580055255.0	11.74	21.74
26/01/2020 16:14:16	26012020	260120	161416	101.020	12.260262	-56.474328	100.950	0.180	-0.440	0.640	100.980	-2.100	1.000																			1580055256.0	11.65	21.58
26/01/2020 16:14:17	26012020	260120	161417	100.870	12.260253	-56.474280	100.950	-0.490	0.340	0.480	100.860	-1.300	0.900																			1580055257.0	10.96	20.30
26/01/2020 16:14:18	26012020	260120	161418	100.870	12.260245	-56.474232	100.990	-0.960	0.440	0.470	100.890	-0.900	0.800																			1580055258.0	10.37	19.21
26/01/2020 16:14:19	26012020	260120	161419	100.920	12.260232	-56.474180	100.990	-0.940	-0.070	0.630	100.920	-1.200	0.900																			1580055259.0	10.49	19.43
26/01/2020 16:14:20	26012020	260120	161420	100.920	12.260217	-56.474125	101.010	-0.500	-0.510	0.700	100.920	-1.800	1.000																			1580055260.0	11.26	20.85
26/01/2020 16:14:21	26012020	260120	161421	100.930	12.260203	-56.474072	101.110	-0.010	-0.370	0.540	100.940	-1.800	1.000																			1580055261.0	11.90	22.04
26/01/2020 16:14:22	26012020	260120	161422	101.050	12.260192	-56.474022	101.330	0.290	0.100	0.150	101.090	-1.400	0.600																			1580055262.0	11.73	21.72
26/01/2020 16:14:23	26012020	260120	161423	101.280	12.260183	-56.473972	101.580	0.470	0.370	-0.360	101.330	-1.000	0.200																			1580055263.0	10.98	20.33
26/01/2020 16:14:24	26012020	260120	161424	101.540	12.260178	-56.473922	101.790	0.640	0.170	-0.740	101.590	-1.100	-0.300																			1580055264.0	10.59	19.61
26/01/2020 16:14:25	26012020	260120	161425	101.750	12.260172	-56.473868	101.960	0.700	-0.220	-0.690	101.790	-1.500	-0.400																			1580055265.0	10.78	19.96
26/01/2020 16:14:26	26012020	260120	161426	101.920	12.260163	-56.473817	102.060	0.460	-0.380	-0.300	101.940	-1.700	-0.100																			1580055266.0	11.21	20.76
26/01/2020 16:14:27	26012020	260120	161427	102.000	12.260153	-56.473765	102.070	0.020	-0.510	0.140	102.010	-1.800	0.300																			1580055267.0	11.23	20.80
26/01/2020 16:14:28	26012020	260120	161428	102.000	12.260142	-56.473715	101.920	-0.220	-0.990	0.670	101.980	-2.100	0.800																			1580055268.0	10.81	20.02
26/01/2020 16:14:29	26012020	260120	161429	101.820	12.260128	-56.473663	101.590	-0.180	-1.480	1.280	101.750	-2.700	1.400																			1580055269.0	10.85	20.09
26/01/2020 16:14:30	26012020	260120	161430	101.460	12.260113	-56.473610	101.240	-0.190	-1.240	1.650	101.380	-2.800	1.900																			1580055270.0	11.50	21.30
26/01/2020 16:14:31	26012020	260120	161431	101.110	12.260098	-56.473560	101.010	-0.480	-0.200	1.550	101.060	-2.000	2.000																			1580055271.0	11.80	21.85
26/01/2020 16:14:32	26012020	260120	161432	100.890	12.260087	-56.473512	100.910	-0.820	0.780	1.060	100.860	-0.900	1.600																			1580055272.0	11.16	20.67
26/01/2020 16:14:33	26012020	260120	161433	100.820	12.260077	-56.473463	101.000	-0.790	0.880	0.400	100.830	-0.400	1.000																			1580055273.0	10.36	19.19
26/01/2020 16:14:34	26012020	260120	161434	100.950	12.260067	-56.473410	101.220	-0.310	0.310	-0.130	100.990	-0.800	0.400																			1580055274.0	10.47	19.39
26/01/2020 16:14:35	26012020	260120	161435	101.190	12.260057	-56.473355	101.500	0.310	-0.150	-0.420	101.250	-1.400	-0.000																			1580055275.0	11.37	21.06
26/01/2020 16:14:36	26012020	260120	161436	101.480	12.260048	-56.473302	101.740	0.690	-0.140	-0.440	101.530	-1.600	-0.100																			1580055276.0	11.86	21.96
26/01/2020 16:14:37	26012020	260120	161437	101.710	12.260038	-56.473252	101.970	0.680	0.050	-0.280	101.750	-1.400	-0.000																			1580055277.0	11.48	21.26
26/01/2020 16:14:38	26012020	260120	161438	101.940	12.260030	-56.473203	102.180	0.470	-0.100	-0.080	101.990	-1.400	0.200																			1580055278.0	10.79	19.98
26/01/2020 16:14:39	26012020	260120	161439	102.120	12.260022	-56.473152	102.230	0.350	-0.590	0.170	102.150	-1.800	0.400																			1580055279.0	10.50	19.45
26/01/2020 16:14:40	26012020	260120	161440	102.150	12.260012	-56.473100	102.150	0.340	-1.030	0.480	102.140	-2.300	0.700																			1580055280.0	10.83	20.06
26/01/2020 16:14:41	26012020	260120	161441	102.060	12.260000	-56.473048	102.000	0.260	-1.110	0.800	102.030	-2.500	1.000																			1580055281.0	11.20	20.74
26/01/2020 16:14:42	26012020	260120	161442	101.890	12.259987	-56.472997	101.710	-0.050	-0.900	1.090	101.840	-2.400	1.300																			1580055282.0	11.27	20.87
26/01/2020 16:14:43	26012020	260120	161443	101.580	12.259975	-56.472947	101.320	-0.440	-0.600	1.210	101.500	-2.100	1.500																			1580055283.0	11.08	20.52
26/01/2020 16:14:44	26012020	260120	161444	101.170	12.259962	-56.472897	100.960	-0.680	-0.240	1.130	101.090	-1.700	1.500																			1580055284.0	10.99	20.35
26/01/2020 16:14:45	26012020	260120	161445	100.830	12.259948	-56.472845	100.890	-0.650	0.090	0.720	100.800	-1.400	1.200																			1580055285.0	11.10	20.56
26/01/2020 16:14:46	26012020	260120	161446	100.810	12.259938	-56.472793	101.100	-0.490	0.360	0.230	100.840	-1.100	0.700																			1580055286.0	11.18	20.71
26/01/2020 16:14:47	26012020	260120	161447	101.050	12.259928	-56.472742	101.440	-0.320	0.580	-0.080	101.120	-0.900	0.300																			1580055287.0	11.23	20.80
26/01/2020 16:14:48	26012020	260120	161448	101.390	12.259917	-56.472690	101.750	-0.120	0.560	-0.120	101.450	-0.800	0.200																			1580055288.0	11.16	20.67
26/01/2020 16:14:49	26012020	260120	161449	101.700	12.259907	-56.472640	102.010	0.190	0.270	-0.090	101.750	-1.000	0.300																			1580055289.0	11.00	20.37
26/01/2020 16:14:50	26012020	260120	161450	101.950	12.259897	-56.472588	102.200	0.600	-0.230	-0.100	101.990	-1.400	0.200																			1580055290.0	11.03	20.43
26/01/2020 16:14:51	26012020	260120	161451	102.120	12.259887	-56.472535	102.290	0.900	-0.710	-0.060	102.150	-1.900	0.300																			1580055291.0	11.12	20.59
26/01/2020 16:14:52	26012020	260120	161452	102.210	12.259878	-56.472483	102.260	0.850	-0.930	0.100	102.210	-2.300	0.400																			1580055292.0	11.24	20.82
26/01/2020 16:14:53	26012020	260120	161453	102.160	12.259870	-56.472432	102.100	0.480	-0.860	0.460	102.140	-2.300	0.700																			1580055293.0	11.21	20.76
26/01/2020 16:14:54	26012020	260120	161454	101.970	12.259858	-56.472383	101.850	0.030	-0.730	0.910	101.920	-2.100	1.100																			1580055294.0	10.91	20.21
26/01/2020 16:14:55	26012020	260120	161455	101.720	12.259847	-56.472333	101.580	-0.300	-0.660	1.270	101.660	-2.000	1.500																			1580055295.0	10.75	19.91
26/01/2020 16:14:56	26012020	260120	161456	101.420	12.259832	-56.472282	101.300	-0.480	-0.580	1.280	101.360	-2.000	1.700																			1580055296.0	10.95	20.28
26/01/2020 16:14:57	26012020	260120	161457	101.150	12.259818	-56.472230	101.170	-0.580	-0.270	0.980	101.110	-1.800	1.400																			1580055297.0	11.24	20.82
26/01/2020 16:14:58	26012020	260120	161458	101.040	12.259807	-56.472178	101.180	-0.630	0.240	0.610	101.040	-1.300	1.100																			1580055298.0	11.36	21.04
26/01/2020 16:14:59	26012020	260120	161459	101.090	12.259797	-56.472128	101.260	-0.550	0.480	0.280	101.110	-0.900	0.700	1015.60	26.30	26.40	19.40	19.40	925.00	65.00	65.00	368.00	29.50	349.00	8.40	70.00	3.00	67289	3136.00	27.60	27.60	1580055299.0	11.11	20.58
26/01/2020 16:15:00	26012020	260120	161500	101.210	12.259787	-56.472077	101.400	-0.250	0.230	0.020	101.230	-1.000	0.400																			1580055300.0	10.86	20.11
26/01/2020 16:15:01	26012020	260120	161501	101.360	12.259777	-56.472023	101.670	0.150	-0.140	-0.100	101.400	-1.400	0.300																			1580055301.0	11.11	20.58
26/01/2020 16:15:02	26012020	260120	161502	101.640	12.259765	-56.471970	101.940	0.420	-0.180	-0.030	101.700	-1.600	0.300																			1580055302.0	11.56	21.41
26/01/2020 16:15:03	26012020	260120	161503	101.910	12.259755	-56.471920	102.110	0.480	-0.020	0.130	101.950	-1.400	0.400																			1580055303.0	11.49	21.28
26/01/2020 16:15:04	26012020	260120	161504	102.060	12.259745	-56.471870	102.130	0.510	-0.100	0.260	102.070	-1.400	0.600																			1580055304.0	10.92	20.22
26/01/2020 16:15:05	26012020	260120	161505	102.060	12.259735	-56.471820	102.090	0.540	-0.430	0.410	102.060	-1.700	0.700																			1580055305.0	10.65	19.72
26/01/2020 16:15:06	26012020	260120	161506	102.010	12.259727	-56.471767	101.980	0.360	-0.660	0.570	102.000	-2.000	0.900																			1580055306.0	10.94	20.26
26/01/2020 16:15:07	26012020	260120	161507	101.900	12.259717	-56.471717	101.820	-0.040	-0.630	0.700	101.870	-2.000	1.000																			1580055307.0	11.20	20.74
26/01/2020 16:15:08	26012020	260120	161508	101.730	12.259705	-56.471667	101.620	-0.440	-0.500	0.920	101.700	-1.900	1.200																			1580055308.0	11.08	20.52
26/01/2020 16:15:09	26012020	260120	161509	101.510	12.259692	-56.471617	101.340	-0.550	-0.590	1.050	101.450	-1.900	1.400																			1580055309.0	10.86	20.11
26/01/2020 16:15:10	26012020	260120	161510	101.220	12.259678	-56.471565	101.100	-0.250	-0.840	0.910	101.170	-2.100	1.300																			1580055310.0	10.90	20.19
26/01/2020 16:15:11	26012020	260120	161511	101.000	12.259667	-56.471510	101.040	0.080	-0.650	0.640	100.980	-2.200	1.100																			1580055311.0	11.38	21.08
26/01/2020 16:15:12	26012020	260120	161512	100.950	12.259655	-56.471458	101.160	0.040	0.110	0.360	100.970	-1.600	0.800																			1580055312.0	11.71	21.69
26/01/2020 16:15:13	26012020	260120	161513	101.100	12.259645	-56.471410	101.390	-0.310	0.820	0.070	101.150	-0.700	0.500																			1580055313.0	11.25	20.84
26/01/2020 16:15:14	26012020	260120	161514	101.350	12.259637	-56.471360	101.580	-0.430	0.720	-0.070	101.390	-0.500	0.300																			1580055314.0	10.54	19.52
26/01/2020 16:15:15	26012020	260120	161515	101.540	12.259625	-56.471308	101.710	-0.060	-0.080	-0.050	101.560	-1.100	0.300																			1580055315.0	10.48	19.41
26/01/2020 16:15:16	26012020	260120	161516	101.670	12.259613	-56.471253	101.900	0.430	-0.630	-0.010	101.700	-1.900	0.300																			1580055316.0	11.28	20.89
26/01/2020 16:15:17	26012020	260120	161517	101.870	12.259603	-56.471200	102.140	0.510	-0.450	0.120	101.920	-1.900	0.400																			1580055317.0	11.91	22.06
26/01/2020 16:15:18	26012020	260120	161518	102.100	12.259593	-56.471152	102.260	0.210	-0.080	0.280	102.130	-1.600	0.600																			1580055318.0	11.43	21.17
26/01/2020 16:15:19	26012020	260120	161519	102.190	12.259583	-56.471103	102.180	-0.050	-0.170	0.480	102.180	-1.400	0.800																			1580055319.0	10.51	19.46
26/01/2020 16:15:20	26012020	260120	161520	102.090	12.259572	-56.471053	101.980	-0.040	-0.610	0.730	102.050	-1.800	1.000																			1580055320.0	10.36	19.19
26/01/2020 16:15:21	26012020	260120	161521	101.890	12.259560	-56.471000	101.750	0.090	-0.900	0.870	101.840	-2.200	1.200																			1580055321.0	10.96	20.30
26/01/2020 16:15:22	26012020	260120	161522	101.640	12.259548	-56.470948	101.420	0.100	-0.810	0.830	101.570	-2.300	1.200																			1580055322.0	11.43	21.17
26/01/2020 16:15:23	26012020	260120	161523	101.310	12.259537	-56.470898	101.080	-0.020	-0.500	0.700	101.250	-2.000	1.100																			1580055323.0	11.33	20.98
26/01/2020 16:15:24	26012020	260120	161524	100.990	12.259527	-56.470847	100.880	-0.140	-0.210	0.580	100.930	-1.700	1.000																			1580055324.0	11.04	20.45
26/01/2020 16:15:25	26012020	260120	161525	100.810	12.259515	-56.470795	100.950	-0.200	0.050	0.350	100.800	-1.400	0.800																			1580055325.0	10.96	20.30
26/01/2020 16:15:26	26012020	260120	161526	100.900	12.259505	-56.470745	101.180	-0.240	0.280	0.230	100.950	-1.200	0.600																			1580055326.0	11.08	20.52
26/01/2020 16:15:27	26012020	260120	161527	101.120	12.259493	-56.470693	101.300	-0.260	0.330	0.300	101.160	-1.000	0.600																			1580055327.0	11.09	20.54
26/01/2020 16:15:28	26012020	260120	161528	101.230	12.259480	-56.470643	101.310	-0.200	0.210	0.430	101.250	-1.100	0.700																			1580055328.0	11.01	20.39
26/01/2020 16:15:29	26012020	260120	161529	101.250	12.259468	-56.470592	101.290	-0.030	-0.050	0.540	101.240	-1.300	0.900																			1580055329.0	11.06	20.48
26/01/2020 16:15:30	26012020	260120	161530	101.210	12.259458	-56.470540	101.260	0.260	-0.520	0.550	101.200	-1.700	0.900																			1580055330.0	11.07	20.50
26/01/2020 16:15:31	26012020	260120	161531	101.180	12.259450	-56.470487	101.290	0.530	-0.950	0.500	101.180	-2.200	0.900																			1580055331.0	11.12	20.59
26/01/2020 16:15:32	26012020	260120	161532	101.240	12.259440	-56.470435	101.360	0.510	-0.860	0.530	101.260	-2.300	0.900																			1580055332.0	11.39	21.09
26/01/2020 16:15:33	26012020	260120	161533	101.300	12.259430	-56.470383	101.330	0.130	-0.280	0.680	101.300	-1.900	1.000																			1580055333.0	11.41	21.13
26/01/2020 16:15:34	26012020	260120	161534	101.250	12.259418	-56.470337	101.210	-0.320	0.200	0.830	101.230	-1.300	1.100																			1580055334.0	10.88	20.15
26/01/2020 16:15:35	26012020	260120	161535	101.110	12.259407	-56.470288	101.060	-0.430	0.020	0.830	101.080	-1.200	1.200																			1580055335.0	10.40	19.26
26/01/2020 16:15:36	26012020	260120	161536	100.970	12.259395	-56.470235	100.970	-0.140	-0.530	0.530	100.940	-1.700	1.000																			1580055336.0	10.60	19.63
26/01/2020 16:15:37	26012020	260120	161537	100.900	12.259385	-56.470180	100.940	0.160	-0.670	0.180	100.900	-2.100	0.600																			1580055337.0	11.39	21.09
26/01/2020 16:15:38	26012020	260120	161538	100.870	12.259377	-56.470128	100.750	0.170	-0.270	0.150	100.850	-1.800	0.500																			1580055338.0	11.77	21.80
26/01/2020 16:15:39	26012020	260120	161539	100.670	12.259367	-56.470078	100.490	-0.020	0.150	0.430	100.620	-1.300	0.700																			1580055339.0	11.27	20.87
26/01/2020 16:15:40	26012020	260120	161540	100.420	12.259357	-56.470028	100.390	-0.130	0.080	0.530	100.380	-1.200	0.900																			1580055340.0	10.68	19.78
26/01/2020 16:15:41	26012020	260120	161541	100.340	12.259347	-56.469977	100.520	-0.080	-0.350	0.410	100.350	-1.600	0.800																			1580055341.0	10.73	19.87
26/01/2020 16:15:42	26012020	260120	161542	100.480	12.259337	-56.469922	100.770	-0.010	-0.480	0.310	100.530	-1.900	0.700																			1580055342.0	11.30	20.93
26/01/2020 16:15:43	26012020	260120	161543	100.720	12.259325	-56.469872	100.940	-0.070	-0.100	0.440	100.770	-1.600	0.700																			1580055343.0	11.61	21.50
26/01/2020 16:15:44	26012020	260120	161544	100.860	12.259313	-56.469823	100.920	-0.150	0.220	0.700	100.870	-1.200	1.000																			1580055344.0	11.16	20.67
26/01/2020 16:15:45	26012020	260120	161545	100.830	12.259302	-56.469773	100.840	-0.050	-0.060	0.870	100.810	-1.300	1.200																			1580055345.0	10.54	19.52
26/01/2020 16:15:46	26012020	260120	161546	100.760	12.259290	-56.469722	100.880	0.210	-0.660	0.730	100.760	-1.800	1.200																			1580055346.0	10.63	19.69
26/01/2020 16:15:47	26012020	260120	161547	100.810	12.259282	-56.469667	100.920	0.360	-0.890	0.530	100.830	-2.300	0.900																			1580055347.0	11.29	20.91
26/01/2020 16:15:48	26012020	260120	161548	100.840	12.259273	-56.469615	100.780	0.240	-0.570	0.550	100.830	-2.100	0.900																			1580055348.0	11.64	21.56
26/01/2020 16:15:49	26012020	260120	161549	100.680	12.259263	-56.469565	100.580	-0.050	-0.130	0.720	100.640	-1.600	1.000																			1580055349.0	11.22	20.78
26/01/2020 16:15:50	26012020	260120	161550	100.480	12.259253	-56.469515	100.540	-0.280	0.040	0.800	100.450	-1.400	1.200																			1580055350.0	10.71	19.83
26/01/2020 16:15:51	26012020	260120	161551	100.450	12.259242	-56.469465	100.670	-0.300	-0.010	0.670	100.470	-1.400	1.100																			1580055351.0	10.71	19.83
26/01/2020 16:15:52	26012020	260120	161552	100.590	12.259232	-56.469413	100.720	-0.140	-0.210	0.580	100.620	-1.500	0.900																			1580055352.0	11.04	20.45
26/01/2020 16:15:53	26012020	260120	161553	100.640	12.259222	-56.469360	100.610	0.100	-0.470	0.630	100.620	-1.800	1.000																			1580055353.0	11.20	20.74
26/01/2020 16:15:54	26012020	260120	161554	100.500	12.259212	-56.469307	100.510	0.290	-0.540	0.630	100.480	-1.900	1.000																			1580055354.0	11.38	21.08
26/01/2020 16:15:55	26012020	260120	161555	100.420	12.259202	-56.469255	100.560	0.240	-0.220	0.540	100.420	-1.700	0.900																			1580055355.0	11.47	21.24
26/01/2020 16:15:56	26012020	260120	161556	100.490	12.259193	-56.469205	100.720	-0.040	0.230	0.420	100.530	-1.300	0.800																			1580055356.0	11.26	20.85
26/01/2020 16:15:57	26012020	260120	161557	100.650	12.259183	-56.469155	100.820	-0.270	0.310	0.390	100.680	-1.000	0.700																			1580055357.0	10.78	19.96
26/01/2020 16:15:58	26012020	260120	161558	100.750	12.259173	-56.469105	100.840	-0.260	-0.020	0.530	100.750	-1.300	0.800																			1580055358.0	10.56	19.56
26/01/2020 16:15:59	26012020	260120	161559	100.760	12.259162	-56.469052	100.860	-0.110	-0.400	0.650	100.760	-1.600	1.000	1015.50	26.30	26.40	19.60	19.60	920.00	66.00	66.00	369.00	29.50	347.00	8.80	67.00	3.40	67055	3256.00	27.70	27.60	1580055359.0	10.93	20.24
26/01/2020 16:16:00	26012020	260120	161600	100.780	12.259152	-56.469000	100.880	0.060	-0.640	0.580	100.790	-1.900	1.000																			1580055360.0	11.30	20.93
26/01/2020 16:16:01	26012020	260120	161601	100.810	12.259142	-56.468948	100.820	0.250	-0.820	0.480	100.800	-2.100	0.900																			1580055361.0	11.24	20.82
26/01/2020 16:16:02	26012020	260120	161602	100.750	12.259132	-56.468897	100.680	0.370	-0.840	0.520	100.720	-2.200	0.900																			1580055362.0	11.15	20.65
26/01/2020 16:16:03	26012020	260120	161603	100.600	12.259122	-56.468845	100.560	0.300	-0.540	0.500	100.570	-2.100	0.900																			1580055363.0	11.23	20.80
26/01/2020 16:16:04	26012020	260120	161604	100.490	12.259113	-56.468793	100.570	0.030	-0.030	0.320	100.490	-1.600	0.800																			1580055364.0	11.22	20.78
26/01/2020 16:16:05	26012020	260120	161605	100.510	12.259105	-56.468743	100.650	-0.280	0.240	0.190	100.530	-1.200	0.600																			1580055365.0	10.95	20.28
26/01/2020 16:16:06	26012020	260120	161606	100.600	12.259095	-56.468692	100.740	-0.420	0.010	0.160	100.620	-1.200	0.500																			1580055366.0	10.73	19.87
26/01/2020 16:16:07	26012020	260120	161607	100.680	12.259085	-56.468638	100.760	-0.400	-0.280	0.260	100.690	-1.600	0.600																			1580055367.0	11.02	20.41
26/01/2020 16:16:08	26012020	260120	161608	100.710	12.259073	-56.468585	100.790	-0.340	-0.180	0.500	100.710	-1.600	0.800																			1580055368.0	11.55	21.39
26/01/2020 16:16:09	26012020	260120	161609	100.730	12.259060	-56.468535	100.820	-0.250	0.040	0.600	100.750	-1.400	0.900																			1580055369.0	11.49	21.28
26/01/2020 16:16:10	26012020	260120	161610	100.760	12.259048	-56.468485	100.790	-0.080	-0.050	0.480	100.760	-1.400	0.900																			1580055370.0	10.97	20.32
26/01/2020 16:16:11	26012020	260120	161611	100.730	12.259038	-56.468433	100.740	0.160	-0.360	0.270	100.710	-1.600	0.700																			1580055371.0	10.87	20.13
26/01/2020 16:16:12	26012020	260120	161612	100.680	12.259030	-56.468380	100.760	0.390	-0.450	0.080	100.680	-1.800	0.500																			1580055372.0	11.20	20.74
26/01/2020 16:16:13	26012020	260120	161613	100.720	12.259022	-56.468328	100.870	0.420	-0.160	0.010	100.730	-1.700	0.400																			1580055373.0	11.42	21.15
26/01/2020 16:16:14	26012020	260120	161614	100.820	12.259013	-56.468278	100.980	0.290	0.050	-0.020	100.850	-1.400	0.300																			1580055374.0	11.12	20.59
26/01/2020 16:16:15	26012020	260120	161615	100.940	12.259003	-56.468228	101.020	0.220	-0.210	0.070	100.950	-1.400	0.400																			1580055375.0	10.64	19.71
26/01/2020 16:16:16	26012020	260120	161616	100.970	12.258993	-56.468177	100.950	0.310	-0.760	0.370	100.950	-1.900	0.600																			1580055376.0	10.73	19.87
26/01/2020 16:16:17	26012020	260120	161617	100.880	12.258983	-56.468122	100.840	0.340	-1.010	0.760	100.860	-2.400	1.000																			1580055377.0	11.30	20.93
26/01/2020 16:16:18	26012020	260120	161618	100.770	12.258972	-56.468070	100.770	0.070	-0.680	1.070	100.750	-2.200	1.300																			1580055378.0	11.65	21.58
26/01/2020 16:16:19	26012020	260120	161619	100.680	12.258960	-56.468020	100.700	-0.460	-0.110	1.190	100.670	-1.700	1.500																			1580055379.0	11.40	21.11
26/01/2020 16:16:20	26012020	260120	161620	100.590	12.258948	-56.467970	100.570	-0.870	0.100	1.150	100.570	-1.300	1.500																			1580055380.0	10.83	20.06
26/01/2020 16:16:21	26012020	260120	161621	100.460	12.258937	-56.467920	100.440	-0.830	-0.170	1.040	100.430	-1.400	1.400																			1580055381.0	10.67	19.76
26/01/2020 16:16:22	26012020	260120	161622	100.350	12.258925	-56.467865	100.500	-0.440	-0.410	0.750	100.350	-1.700	1.200																			1580055382.0	11.18	20.71
26/01/2020 16:16:23	26012020	260120	161623	100.440	12.258913	-56.467812	100.730	-0.050	-0.240	0.340	100.480	-1.700	0.900																			1580055383.0	11.73	21.72
26/01/2020 16:16:24	26012020	260120	161624	100.680	12.258903	-56.467760	100.990	0.170	0.210	-0.020	100.740	-1.300	0.500																			1580055384.0	11.64	21.56
26/01/2020 16:16:25	26012020	260120	161625	100.940	12.258897	-56.467710	101.230	0.230	0.610	-0.180	100.990	-0.900	0.200																			1580055385.0	11.12	20.59
26/01/2020 16:16:26	26012020	260120	161626	101.200	12.258888	-56.467660	101.480	0.290	0.510	-0.180	101.250	-0.800	0.200																			1580055386.0	10.71	19.83
26/01/2020 16:16:27	26012020	260120	161627	101.460	12.258880	-56.467608	101.730	0.490	-0.210	-0.150	101.520	-1.300	0.200																			1580055387.0	10.63	19.69
26/01/2020 16:16:28	26012020	260120	161628	101.700	12.258870	-56.467555	101.770	0.730	-1.020	0.140	101.720	-2.100	0.400																			1580055388.0	11.01	20.39
26/01/2020 16:16:29	26012020	260120	161629	101.690	12.258860	-56.467500	101.570	0.780	-1.380	0.530	101.660	-2.700	0.800																			1580055389.0	11.59	21.46
26/01/2020 16:16:30	26012020	260120	161630	101.480	12.258850	-56.467448	101.350	0.540	-1.090	0.790	101.430	-2.600	1.100																			1580055390.0	11.67	21.61
26/01/2020 16:16:31	26012020	260120	161631	101.250	12.258838	-56.467398	101.270	-0.030	-0.380	0.890	101.220	-2.000	1.200																			1580055391.0	11.29	20.91
26/01/2020 16:16:32	26012020	260120	161632	101.200	12.258828	-56.467350	101.320	-0.730	0.340	0.850	101.200	-1.300	1.200																			1580055392.0	10.83	20.06
26/01/2020 16:16:33	26012020	260120	161633	101.250	12.258817	-56.467302	101.300	-1.180	0.520	0.830	101.250	-0.800	1.200																			1580055393.0	10.49	19.43
26/01/2020 16:16:34	26012020	260120	161634	101.230	12.258803	-56.467252	101.270	-1.020	-0.060	0.750	101.220	-1.200	1.100																			1580055394.0	10.52	19.48
26/01/2020 16:16:35	26012020	260120	161635	101.180	12.258788	-56.467197	101.230	-0.340	-0.830	0.560	101.170	-2.000	1.000																			1580055395.0	11.12	20.59
26/01/2020 16:16:36	26012020	260120	161636	101.150	12.258777	-56.467140	101.260	0.260	-0.850	0.140	101.150	-2.300	0.700																			1580055396.0	11.96	22.15
26/01/2020 16:16:37	26012020	260120	161637	101.200	12.258767	-56.467088	101.360	0.360	-0.050	-0.290	101.220	-1.800	0.200																			1580055397.0	12.13	22.46
26/01/2020 16:16:38	26012020	260120	161638	101.310	12.258760	-56.467040	101.550	0.140	0.700	-0.520	101.340	-0.900	-0.100																			1580055398.0	11.24	20.82
26/01/2020 16:16:39	26012020	260120	161639	101.530	12.258752	-56.466992	101.820	0.120	0.560	-0.490	101.590	-0.700	-0.200																			1580055399.0	10.28	19.04
26/01/2020 16:16:40	26012020	260120	161640	101.810	12.258743	-56.466940	102.000	0.430	-0.310	-0.140	101.850	-1.300	0.100																			1580055400.0	10.31	19.09
26/01/2020 16:16:41	26012020	260120	161641	101.950	12.258732	-56.466885	101.900	0.830	-1.140	0.370	101.940	-2.300	0.500																			1580055401.0	11.21	20.76
26/01/2020 16:16:42	26012020	260120	161642	101.810	12.258718	-56.466830	101.660	0.860	-1.130	0.760	101.760	-2.600	1.000																			1580055402.0	11.92	22.08
26/01/2020 16:16:43	26012020	260120	161643	101.550	12.258708	-56.466780	101.480	0.320	-0.320	1.030	101.510	-2.000	1.300																			1580055403.0	11.86	21.96
26/01/2020 16:16:44	26012020	260120	161644	101.380	12.258698	-56.466732	101.470	-0.530	0.480	1.030	101.360	-1.100	1.400																			1580055404.0	10.97	20.32
26/01/2020 16:16:45	26012020	260120	161645	101.390	12.258687	-56.466685	101.580	-1.120	0.550	0.850	101.420	-0.800	1.300																			1580055405.0	10.17	18.83
26/01/2020 16:16:46	26012020	260120	161646	101.510	12.258675	-56.466635	101.530	-1.050	-0.190	0.840	101.510	-1.200	1.200																			1580055406.0	10.22	18.93
26/01/2020 16:16:47	26012020	260120	161647	101.440	12.258660	-56.466580	101.340	-0.450	-1.000	0.930	101.390	-2.100	1.300																			1580055407.0	11.01	20.39
26/01/2020 16:16:48	26012020	260120	161648	101.250	12.258645	-56.466525	101.320	0.150	-1.040	0.750	101.220	-2.500	1.200																			1580055408.0	11.91	22.06
26/01/2020 16:16:49	26012020	260120	161649	101.260	12.258633	-56.466475	101.480	0.430	-0.360	0.320	101.290	-2.000	0.800																			1580055409.0	11.99	22.21
26/01/2020 16:16:50	26012020	260120	161650	101.430	12.258625	-56.466427	101.590	0.430	0.270	-0.140	101.460	-1.300	0.400																			1580055410.0	11.11	20.58
26/01/2020 16:16:51	26012020	260120	161651	101.550	12.258618	-56.466377	101.620	0.420	0.390	-0.350	101.560	-1.000	0.000																			1580055411.0	10.40	19.26
26/01/2020 16:16:52	26012020	260120	161652	101.590	12.258610	-56.466325	101.690	0.560	-0.000	-0.340	101.600	-1.200	0.000																			1580055412.0	10.53	19.50
26/01/2020 16:16:53	26012020	260120	161653	101.660	12.258602	-56.466272	101.900	0.650	-0.480	-0.250	101.700	-1.700	0.100																			1580055413.0	11.04	20.45
26/01/2020 16:16:54	26012020	260120	161654	101.880	12.258592	-56.466218	102.100	0.370	-0.480	0.030	101.930	-1.900	0.300																			1580055414.0	11.54	21.37
26/01/2020 16:16:55	26012020	260120	161655	102.060	12.258582	-56.466168	102.140	-0.200	-0.180	0.500	102.080	-1.700	0.700																			1580055415.0	11.50	21.30
26/01/2020 16:16:56	26012020	260120	161656	102.070	12.258568	-56.466120	102.040	-0.650	-0.140	0.990	102.050	-1.500	1.200																			1580055416.0	10.83	20.06
26/01/2020 16:16:57	26012020	260120	161657	101.950	12.258553	-56.466070	101.830	-0.740	-0.430	1.310	101.920	-1.700	1.600																			1580055417.0	10.53	19.50
26/01/2020 16:16:58	26012020	260120	161658	101.720	12.258538	-56.466018	101.500	-0.560	-0.740	1.280	101.660	-2.000	1.700																			1580055418.0	10.96	20.30
26/01/2020 16:16:59	26012020	260120	161659	101.390	12.258525	-56.465967	101.200	-0.250	-0.780	0.990	101.330	-2.200	1.500	1015.50	26.30	26.30	19.50	19.50	921.00	66.00	66.00	369.00	29.50	347.00	8.90	68.00	3.50	67165	3297.00	27.70	27.70	1580055419.0	11.40	21.11
26/01/2020 16:17:00	26012020	260120	161700	101.120	12.258515	-56.465913	101.070	0.120	-0.630	0.630	101.080	-2.100	1.100																			1580055420.0	11.45	21.21
26/01/2020 16:17:01	26012020	260120	161701	101.020	12.258503	-56.465862	101.190	0.390	-0.320	0.220	101.030	-1.800	0.700																			1580055421.0	11.28	20.89
26/01/2020 16:17:02	26012020	260120	161702	101.160	12.258495	-56.465810	101.420	0.380	0.320	-0.140	101.210	-1.300	0.300																			1580055422.0	11.25	20.84
26/01/2020 16:17:03	26012020	260120	161703	101.410	12.258487	-56.465762	101.620	0.150	0.960	-0.270	101.460	-0.600	0.100																			1580055423.0	11.10	20.56
26/01/2020 16:17:04	26012020	260120	161704	101.600	12.258477	-56.465713	101.740	-0.010	0.950	-0.140	101.620	-0.300	0.100																			1580055424.0	10.57	19.58
26/01/2020 16:17:05	26012020	260120	161705	101.710	12.258467	-56.465663	101.830	0.050	0.100	0.100	101.730	-0.900	0.400																			1580055425.0	10.35	19.17
26/01/2020 16:17:06	26012020	260120	161706	101.810	12.258455	-56.465608	101.970	0.210	-0.860	0.280	101.830	-2.000	0.600																			1580055426.0	10.90	20.19
26/01/2020 16:17:07	26012020	260120	161707	101.940	12.258443	-56.465555	102.060	0.210	-1.170	0.420	101.960	-2.500	0.700																			1580055427.0	11.63	21.54
26/01/2020 16:17:08	26012020	260120	161708	102.010	12.258433	-56.465505	101.980	0.100	-0.950	0.620	102.000	-2.400	0.900																			1580055428.0	11.59	21.46
26/01/2020 16:17:09	26012020	260120	161709	101.900	12.258422	-56.465457	101.750	0.000	-0.730	0.800	101.870	-2.200	1.100																			1580055429.0	10.87	20.13
26/01/2020 16:17:10	26012020	260120	161710	101.660	12.258408	-56.465407	101.470	-0.010	-0.710	0.820	101.600	-2.100	1.200																			1580055430.0	10.55	19.54
26/01/2020 16:17:11	26012020	260120	161711	101.390	12.258398	-56.465355	101.250	0.010	-0.650	0.710	101.340	-2.100	1.100																			1580055431.0	10.86	20.11
26/01/2020 16:17:12	26012020	260120	161712	101.170	12.258387	-56.465302	101.020	-0.030	-0.330	0.550	101.120	-1.900	1.000																			1580055432.0	11.25	20.84
26/01/2020 16:17:13	26012020	260120	161713	100.940	12.258377	-56.465250	100.850	-0.150	0.090	0.360	100.890	-1.400	0.800																			1580055433.0	11.33	20.98
26/01/2020 16:17:14	26012020	260120	161714	100.790	12.258365	-56.465200	100.890	-0.320	0.410	0.210	100.780	-1.100	0.600																			1580055434.0	11.15	20.65
26/01/2020 16:17:15	26012020	260120	161715	100.860	12.258355	-56.465148	101.130	-0.460	0.550	0.180	100.900	-0.900	0.500																			1580055435.0	11.05	20.46
26/01/2020 16:17:16	26012020	260120	161716	101.100	12.258343	-56.465098	101.430	-0.420	0.470	0.150	101.160	-0.900	0.500																			1580055436.0	11.06	20.48
26/01/2020 16:17:17	26012020	260120	161717	101.400	12.258332	-56.465047	101.690	-0.120	0.110	0.180	101.460	-1.100	0.500																			1580055437.0	11.03	20.43
26/01/2020 16:17:18	26012020	260120	161718	101.640	12.258320	-56.464995	101.840	0.280	-0.400	0.380	101.670	-1.600	0.700																			1580055438.0	11.06	20.48
26/01/2020 16:17:19	26012020	260120	161719	101.770	12.258307	-56.464943	101.860	0.500	-0.710	0.560	101.780	-2.000	0.900																			1580055439.0	11.26	20.85
26/01/2020 16:17:20	26012020	260120	161720	101.770	12.258297	-56.464892	101.770	0.440	-0.630	0.610	101.760	-2.100	1.000																			1580055440.0	11.32	20.96
26/01/2020 16:17:21	26012020	260120	161721	101.690	12.258287	-56.464843	101.620	0.230	-0.400	0.570	101.660	-1.900	1.000																			1580055441.0	11.03	20.43
26/01/2020 16:17:22	26012020	260120	161722	101.540	12.258278	-56.464793	101.400	0.120	-0.500	0.540	101.500	-1.800	0.900																			1580055442.0	10.62	19.67
26/01/2020 16:17:23	26012020	260120	161723	101.310	12.258268	-56.464742	101.150	0.160	-0.830	0.500	101.260	-2.100	0.900																			1580055443.0	10.58	19.59
26/01/2020 16:17:24	26012020	260120	161724	101.070	12.258257	-56.464688	100.950	0.090	-0.720	0.520	101.030	-2.200	0.900																			1580055444.0	11.18	20.71
26/01/2020 16:17:25	26012020	260120	161725	100.870	12.258245	-56.464637	100.780	-0.180	-0.140	0.610	100.830	-1.700	0.900																			1580055445.0	11.57	21.43
26/01/2020 16:17:26	26012020	260120	161726	100.710	12.258233	-56.464588	100.720	-0.400	0.260	0.650	100.680	-1.200	1.000																			1580055446.0	11.09	20.54
26/01/2020 16:17:27	26012020	260120	161727	100.660	12.258223	-56.464538	100.760	-0.300	0.050	0.520	100.660	-1.200	0.900																			1580055447.0	10.62	19.67
26/01/2020 16:17:28	26012020	260120	161728	100.710	12.258212	-56.464483	100.940	-0.050	-0.310	0.330	100.740	-1.600	0.700																			1580055448.0	10.90	20.19
26/01/2020 16:17:29	26012020	260120	161729	100.900	12.258202	-56.464430	101.140	0.020	-0.230	0.310	100.940	-1.700	0.700																			1580055449.0	11.59	21.46
26/01/2020 16:17:30	26012020	260120	161730	101.100	12.258190	-56.464380	101.270	-0.130	0.120	0.410	101.130	-1.400	0.700																			1580055450.0	11.62	21.52
26/01/2020 16:17:31	26012020	260120	161731	101.220	12.258180	-56.464330	101.310	-0.250	0.170	0.550	101.230	-1.200	0.900																			1580055451.0	10.96	20.30
26/01/2020 16:17:32	26012020	260120	161732	101.270	12.258168	-56.464280	101.280	-0.200	-0.150	0.790	101.260	-1.400	1.100																			1580055452.0	10.59	19.61
26/01/2020 16:17:33	26012020	260120	161733	101.230	12.258155	-56.464228	101.240	-0.060	-0.500	0.930	101.220	-1.800	1.300																			1580055453.0	10.92	20.22
26/01/2020 16:17:34	26012020	260120	161734	101.180	12.258143	-56.464177	101.170	0.070	-0.630	0.830	101.170	-2.000	1.200																			1580055454.0	11.28	20.89
26/01/2020 16:17:35	26012020	260120	161735	101.110	12.258133	-56.464125	101.010	0.140	-0.430	0.700	101.090	-1.900	1.100																			1580055455.0	11.28	20.89
26/01/2020 16:17:36	26012020	260120	161736	100.970	12.258123	-56.464075	100.840	0.190	-0.170	0.550	100.930	-1.600	1.000																			1580055456.0	11.05	20.46
26/01/2020 16:17:37	26012020	260120	161737	100.790	12.258115	-56.464025	100.780	0.310	-0.210	0.240	100.770	-1.500	0.700																			1580055457.0	10.74	19.89
26/01/2020 16:17:38	26012020	260120	161738	100.750	12.258107	-56.463973	100.880	0.410	-0.400	-0.080	100.760	-1.700	0.400																			1580055458.0	10.79	19.98
26/01/2020 16:17:39	26012020	260120	161739	100.860	12.258098	-56.463920	100.970	0.370	-0.430	-0.130	100.880	-1.800	0.200																			1580055459.0	11.20	20.74
26/01/2020 16:17:40	26012020	260120	161740	100.950	12.258088	-56.463868	100.990	0.140	-0.210	0.180	100.950	-1.700	0.400																			1580055460.0	11.35	21.02
26/01/2020 16:17:41	26012020	260120	161741	100.930	12.258077	-56.463818	100.960	-0.200	0.050	0.630	100.930	-1.400	0.800																			1580055461.0	11.14	20.63
26/01/2020 16:17:42	26012020	260120	161742	100.900	12.258065	-56.463768	100.880	-0.450	-0.010	0.900	100.890	-1.300	1.200																			1580055462.0	10.86	20.11
26/01/2020 16:17:43	26012020	260120	161743	100.810	12.258052	-56.463718	100.740	-0.420	-0.450	0.910	100.780	-1.600	1.300																			1580055463.0	10.79	19.98
26/01/2020 16:17:44	26012020	260120	161744	100.670	12.258042	-56.463665	100.630	-0.210	-0.800	0.850	100.660	-2.100	1.200																			1580055464.0	11.15	20.65
26/01/2020 16:17:45	26012020	260120	161745	100.560	12.258030	-56.463612	100.510	-0.090	-0.670	0.870	100.540	-2.200	1.200																			1580055465.0	11.55	21.39
26/01/2020 16:17:46	26012020	260120	161746	100.440	12.258018	-56.463560	100.390	-0.200	-0.090	0.800	100.400	-1.700	1.200																			1580055466.0	11.55	21.39
26/01/2020 16:17:47	26012020	260120	161747	100.310	12.258007	-56.463512	100.340	-0.350	0.400	0.540	100.290	-1.100	1.000																			1580055467.0	11.05	20.46
26/01/2020 16:17:48	26012020	260120	161748	100.280	12.257998	-56.463462	100.440	-0.210	0.250	0.230	100.300	-1.000	0.700																			1580055468.0	10.53	19.50
26/01/2020 16:17:49	26012020	260120	161749	100.380	12.257988	-56.463408	100.580	0.150	-0.160	-0.040	100.410	-1.400	0.400																			1580055469.0	10.69	19.80
26/01/2020 16:17:50	26012020	260120	161750	100.540	12.257980	-56.463355	100.750	0.400	-0.240	-0.130	100.580	-1.600	0.200																			1580055470.0	11.36	21.04
26/01/2020 16:17:51	26012020	260120	161751	100.710	12.257970	-56.463305	100.850	0.410	-0.150	0.020	100.730	-1.500	0.300																			1580055471.0	11.47	21.24
26/01/2020 16:17:52	26012020	260120	161752	100.800	12.257962	-56.463255	100.880	0.340	-0.300	0.290	100.810	-1.600	0.500																			1580055472.0	10.95	20.28
26/01/2020 16:17:53	26012020	260120	161753	100.810	12.257952	-56.463203	100.800	0.300	-0.700	0.610	100.800	-1.900	0.900																			1580055473.0	10.72	19.85
26/01/2020 16:17:54	26012020	260120	161754	100.710	12.257942	-56.463150	100.610	0.240	-0.910	0.930	100.670	-2.300	1.200																			1580055474.0	11.05	20.46
26/01/2020 16:17:55	26012020	260120	161755	100.500	12.257932	-56.463098	100.350	0.030	-0.700	1.100	100.450	-2.200	1.400																			1580055475.0	11.39	21.09
26/01/2020 16:17:56	26012020	260120	161756	100.230	12.257920	-56.463048	100.080	-0.320	-0.280	1.240	100.180	-1.800	1.600																			1580055476.0	11.28	20.89
26/01/2020 16:17:57	26012020	260120	161757	99.980	12.257908	-56.462998	100.010	-0.660	0.010	1.170	99.950	-1.400	1.600																			1580055477.0	10.97	20.32
26/01/2020 16:17:58	26012020	260120	161758	99.930	12.257897	-56.462947	100.090	-0.750	0.060	0.880	99.940	-1.300	1.400																			1580055478.0	10.85	20.09
26/01/2020 16:17:59	26012020	260120	161759	100.020	12.257885	-56.462895	100.190	-0.530	0.040	0.560	100.040	-1.300	1.000	1015.50	26.30	26.30	19.60	19.60	927.00	66.00	66.00	368.00	29.40	348.00	9.00	71.00	3.60	67503	3215.00	27.70	27.60	1580055479.0	11.03	20.43
26/01/2020 16:18:00	26012020	260120	161800	100.140	12.257875	-56.462843	100.290	-0.130	-0.000	0.260	100.150	-1.400	0.700																			1580055480.0	11.25	20.84
26/01/2020 16:18:01	26012020	260120	161801	100.230	12.257865	-56.462792	100.410	0.310	-0.170	-0.010	100.260	-1.500	0.500																			1580055481.0	11.24	20.82
26/01/2020 16:18:02	26012020	260120	161802	100.370	12.257857	-56.462738	100.640	0.620	-0.310	-0.230	100.410	-1.700	0.200																			1580055482.0	11.22	20.78
26/01/2020 16:18:03	26012020	260120	161803	100.600	12.257850	-56.462685	100.910	0.640	-0.270	-0.220	100.650	-1.700	0.100																			1580055483.0	11.31	20.95
26/01/2020 16:18:04	26012020	260120	161804	100.880	12.257842	-56.462635	101.100	0.360	-0.090	0.010	100.920	-1.500	0.300																			1580055484.0	11.20	20.74
26/01/2020 16:18:05	26012020	260120	161805	101.040	12.257832	-56.462585	101.070	-0.010	-0.030	0.380	101.040	-1.400	0.600																			1580055485.0	10.89	20.17
26/01/2020 16:18:06	26012020	260120	161806	100.980	12.257822	-56.462535	100.860	-0.240	-0.330	0.860	100.940	-1.600	1.100																			1580055486.0	10.69	19.80
26/01/2020 16:18:07	26012020	260120	161807	100.750	12.257810	-56.462483	100.590	-0.240	-0.810	1.160	100.680	-2.000	1.500																			1580055487.0	10.83	20.06
26/01/2020 16:18:08	26012020	260120	161808	100.480	12.257797	-56.462430	100.410	-0.130	-0.980	1.060	100.440	-2.400	1.500																			1580055488.0	11.31	20.95
26/01/2020 16:18:09	26012020	260120	161809	100.310	12.257787	-56.462377	100.290	-0.100	-0.600	0.840	100.290	-2.200	1.300																			1580055489.0	11.58	21.45
26/01/2020 16:18:10	26012020	260120	161810	100.200	12.257777	-56.462327	100.220	-0.220	-0.050	0.620	100.180	-1.600	1.100																			1580055490.0	11.33	20.98
26/01/2020 16:18:11	26012020	260120	161811	100.150	12.257767	-56.462277	100.310	-0.290	0.170	0.320	100.150	-1.200	0.800																			1580055491.0	10.84	20.08
26/01/2020 16:18:12	26012020	260120	161812	100.250	12.257757	-56.462225	100.500	-0.170	0.050	0.100	100.290	-1.300	0.500																			1580055492.0	10.74	19.89
26/01/2020 16:18:13	26012020	260120	161813	100.460	12.257747	-56.462173	100.650	0.090	-0.120	0.040	100.490	-1.400	0.400																			1580055493.0	11.13	20.61
26/01/2020 16:18:14	26012020	260120	161814	100.610	12.257737	-56.462120	100.810	0.320	-0.160	0.020	100.650	-1.500	0.400																			1580055494.0	11.42	21.15
26/01/2020 16:18:15	26012020	260120	161815	100.780	12.257727	-56.462068	101.000	0.380	-0.060	0.160	100.820	-1.500	0.500																			1580055495.0	11.36	21.04
26/01/2020 16:18:16	26012020	260120	161816	100.950	12.257718	-56.462018	101.070	0.270	-0.080	0.300	100.980	-1.400	0.600																			1580055496.0	11.12	20.59
26/01/2020 16:18:17	26012020	260120	161817	101.010	12.257708	-56.461967	100.960	0.130	-0.400	0.480	101.000	-1.600	0.800																			1580055497.0	10.89	20.17
26/01/2020 16:18:18	26012020	260120	161818	100.890	12.257698	-56.461913	100.820	0.060	-0.740	0.700	100.860	-2.000	1.000																			1580055498.0	10.99	20.35
26/01/2020 16:18:19	26012020	260120	161819	100.760	12.257688	-56.461862	100.810	-0.040	-0.610	0.790	100.750	-2.100	1.100																			1580055499.0	11.35	21.02
26/01/2020 16:18:20	26012020	260120	161820	100.760	12.257677	-56.461810	100.830	-0.260	-0.140	0.770	100.770	-1.700	1.200																			1580055500.0	11.44	21.19
26/01/2020 16:18:21	26012020	260120	161821	100.780	12.257667	-56.461762	100.810	-0.460	0.030	0.650	100.780	-1.300	1.100																			1580055501.0	10.94	20.26
26/01/2020 16:18:22	26012020	260120	161822	100.750	12.257655	-56.461710	100.750	-0.360	-0.290	0.510	100.730	-1.500	0.900																			1580055502.0	10.62	19.67
26/01/2020 16:18:23	26012020	260120	161823	100.680	12.257643	-56.461657	100.710	-0.040	-0.580	0.330	100.670	-1.900	0.800																			1580055503.0	11.04	20.45
26/01/2020 16:18:24	26012020	260120	161824	100.650	12.257633	-56.461603	100.750	0.200	-0.420	0.130	100.650	-1.900	0.600																			1580055504.0	11.63	21.54
26/01/2020 16:18:25	26012020	260120	161825	100.690	12.257623	-56.461552	100.830	0.260	-0.040	-0.010	100.710	-1.500	0.400																			1580055505.0	11.55	21.39
26/01/2020 16:18:26	26012020	260120	161826	100.770	12.257615	-56.461502	100.910	0.210	0.140	-0.070	100.790	-1.300	0.300																			1580055506.0	11.02	20.41
26/01/2020 16:18:27	26012020	260120	161827	100.870	12.257607	-56.461450	101.090	0.120	-0.000	-0.080	100.900	-1.300	0.300																			1580055507.0	10.81	20.02
26/01/2020 16:18:28	26012020	260120	161828	101.060	12.257597	-56.461398	101.310	0.020	-0.180	0.160	101.110	-1.500	0.400																			1580055508.0	11.02	20.41
26/01/2020 16:18:29	26012020	260120	161829	101.270	12.257583	-56.461347	101.410	-0.050	-0.250	0.480	101.290	-1.600	0.700																			1580055509.0	11.28	20.89
26/01/2020 16:18:30	26012020	260120	161830	101.360	12.257572	-56.461297	101.350	-0.000	-0.410	0.670	101.360	-1.700	1.000																			1580055510.0	11.18	20.71
26/01/2020 16:18:31	26012020	260120	161831	101.280	12.257562	-56.461243	101.160	0.180	-0.740	0.720	101.250	-2.000	1.100																			1580055511.0	11.02	20.41
26/01/2020 16:18:32	26012020	260120	161832	101.100	12.257550	-56.461190	101.030	0.280	-0.860	0.600	101.060	-2.300	1.000																			1580055512.0	11.21	20.76
26/01/2020 16:18:33	26012020	260120	161833	100.970	12.257542	-56.461138	101.000	0.070	-0.400	0.530	100.950	-2.000	0.900																			1580055513.0	11.56	21.41
26/01/2020 16:18:34	26012020	260120	161834	100.940	12.257532	-56.461088	101.030	-0.310	0.210	0.450	100.940	-1.400	0.900																			1580055514.0	11.36	21.04
26/01/2020 16:18:35	26012020	260120	161835	100.990	12.257520	-56.461038	101.100	-0.450	0.310	0.270	101.000	-1.000	0.700																			1580055515.0	10.73	19.87
26/01/2020 16:18:36	26012020	260120	161836	101.060	12.257510	-56.460987	101.190	-0.260	-0.020	0.170	101.070	-1.300	0.600																			1580055516.0	10.62	19.67
26/01/2020 16:18:37	26012020	260120	161837	101.160	12.257498	-56.460933	101.320	-0.050	-0.260	0.140	101.180	-1.600	0.500																			1580055517.0	11.23	20.80
26/01/2020 16:18:38	26012020	260120	161838	101.290	12.257487	-56.460882	101.420	0.040	-0.150	0.140	101.320	-1.600	0.500																			1580055518.0	11.62	21.52
26/01/2020 16:18:39	26012020	260120	161839	101.390	12.257475	-56.460832	101.450	0.130	-0.080	0.200	101.400	-1.400	0.500																			1580055519.0	11.30	20.93
26/01/2020 16:18:40	26012020	260120	161840	101.420	12.257465	-56.460780	101.380	0.290	-0.390	0.340	101.410	-1.600	0.600																			1580055520.0	10.80	20.00
26/01/2020 16:18:41	26012020	260120	161841	101.330	12.257455	-56.460728	101.230	0.390	-0.740	0.520	101.290	-2.000	0.800																			1580055521.0	10.91	20.21
26/01/2020 16:18:42	26012020	260120	161842	101.160	12.257445	-56.460675	101.050	0.310	-0.760	0.760	101.120	-2.200	1.000																			1580055522.0	11.38	21.08
26/01/2020 16:18:43	26012020	260120	161843	100.990	12.257433	-56.460623	100.910	0.100	-0.510	0.960	100.950	-2.000	1.300																			1580055523.0	11.41	21.13
26/01/2020 16:18:44	26012020	260120	161844	100.840	12.257422	-56.460573	100.800	-0.090	-0.310	1.040	100.820	-1.700	1.400																			1580055524.0	11.13	20.61
26/01/2020 16:18:45	26012020	260120	161845	100.740	12.257410	-56.460522	100.770	-0.200	-0.180	0.960	100.720	-1.600	1.400																			1580055525.0	10.98	20.33
26/01/2020 16:18:46	26012020	260120	161846	100.710	12.257398	-56.460470	100.890	-0.290	0.140	0.690	100.730	-1.400	1.200																			1580055526.0	11.17	20.69
26/01/2020 16:18:47	26012020	260120	161847	100.860	12.257388	-56.460418	101.080	-0.350	0.430	0.390	100.890	-1.000	0.900																			1580055527.0	11.26	20.85
26/01/2020 16:18:48	26012020	260120	161848	101.050	12.257378	-56.460368	101.220	-0.200	0.210	0.150	101.070	-1.000	0.600																			1580055528.0	10.94	20.26
26/01/2020 16:18:49	26012020	260120	161849	101.210	12.257368	-56.460315	101.380	0.110	-0.230	-0.050	101.250	-1.500	0.400																			1580055529.0	10.88	20.15
26/01/2020 16:18:50	26012020	260120	161850	101.380	12.257358	-56.460262	101.570	0.270	-0.350	-0.100	101.420	-1.700	0.300																			1580055530.0	11.41	21.13
26/01/2020 16:18:51	26012020	260120	161851	101.570	12.257348	-56.460212	101.730	0.220	-0.280	0.050	101.610	-1.700	0.300																			1580055531.0	11.49	21.28
26/01/2020 16:18:52	26012020	260120	161852	101.720	12.257338	-56.460162	101.680	0.170	-0.520	0.350	101.720	-1.800	0.600																			1580055532.0	10.95	20.28
26/01/2020 16:18:53	26012020	260120	161853	101.620	12.257328	-56.460110	101.420	0.160	-0.930	0.690	101.570	-2.200	0.900																			1580055533.0	10.77	19.95
26/01/2020 16:18:54	26012020	260120	161854	101.360	12.257315	-56.460057	101.200	0.090	-1.000	0.970	101.310	-2.400	1.300																			1580055534.0	11.25	20.84
26/01/2020 16:18:55	26012020	260120	161855	101.130	12.257303	-56.460005	101.020	-0.050	-0.620	1.060	101.090	-2.200	1.400																			1580055535.0	11.55	21.39
26/01/2020 16:18:56	26012020	260120	161856	100.940	12.257292	-56.459953	100.820	-0.190	-0.150	0.960	100.890	-1.700	1.400																			1580055536.0	11.29	20.91
26/01/2020 16:18:57	26012020	260120	161857	100.750	12.257280	-56.459903	100.780	-0.280	0.160	0.620	100.730	-1.300	1.100																			1580055537.0	10.97	20.32
26/01/2020 16:18:58	26012020	260120	161858	100.720	12.257270	-56.459852	100.950	-0.290	0.300	0.170	100.740	-1.100	0.700																			1580055538.0	11.02	20.41
26/01/2020 16:18:59	26012020	260120	161859	100.910	12.257260	-56.459800	101.230	-0.240	0.370	-0.170	100.960	-1.000	0.300	1015.50	26.30	26.30	19.50	19.60	958.00	66.00	66.00	369.00	29.50	349.00	8.70	70.00	3.20	68991	3218.00	27.60	27.60	1580055539.0	11.19	20.72
26/01/2020 16:19:00	26012020	260120	161900	101.210	12.257250	-56.459748	101.440	-0.150	0.320	-0.180	101.260	-1.000	0.100																			1580055540.0	11.24	20.82
26/01/2020 16:19:01	26012020	260120	161901	101.410	12.257238	-56.459697	101.490	-0.000	0.020	0.050	101.430	-1.200	0.300																			1580055541.0	11.12	20.59
26/01/2020 16:19:02	26012020	260120	161902	101.450	12.257227	-56.459645	101.480	0.230	-0.510	0.160	101.450	-1.700	0.500																			1580055542.0	11.08	20.52
26/01/2020 16:19:03	26012020	260120	161903	101.450	12.257217	-56.459592	101.480	0.480	-0.910	0.210	101.460	-2.200	0.600																			1580055543.0	11.24	20.82
26/01/2020 16:19:04	26012020	260120	161904	101.460	12.257208	-56.459538	101.460	0.510	-0.860	0.240	101.450	-2.300	0.600																			1580055544.0	11.46	21.22
26/01/2020 16:19:05	26012020	260120	161905	101.400	12.257198	-56.459488	101.310	0.280	-0.530	0.350	101.380	-2.000	0.700																			1580055545.0	11.37	21.06
26/01/2020 16:19:06	26012020	260120	161906	101.240	12.257187	-56.459438	101.050	-0.010	-0.330	0.680	101.190	-1.800	0.900																			1580055546.0	10.93	20.24
26/01/2020 16:19:07	26012020	260120	161907	100.970	12.257175	-56.459387	100.860	-0.280	-0.180	0.880	100.920	-1.600	1.200																			1580055547.0	10.80	20.00
26/01/2020 16:19:08	26012020	260120	161908	100.790	12.257162	-56.459335	100.830	-0.450	-0.020	0.740	100.780	-1.500	1.200																			1580055548.0	11.12	20.59
26/01/2020 16:19:09	26012020	260120	161909	100.760	12.257150	-56.459285	100.840	-0.430	-0.000	0.490	100.760	-1.400	0.900																			1580055549.0	11.19	20.72
26/01/2020 16:19:10	26012020	260120	161910	100.770	12.257140	-56.459232	100.860	-0.190	-0.170	0.250	100.770	-1.500	0.700																			1580055550.0	11.14	20.63
26/01/2020 16:19:11	26012020	260120	161911	100.810	12.257130	-56.459178	100.880	0.170	-0.380	0.150	100.820	-1.700	0.500																			1580055551.0	11.27	20.87
26/01/2020 16:19:12	26012020	260120	161912	100.830	12.257120	-56.459125	100.900	0.350	-0.360	0.140	100.830	-1.800	0.500																			1580055552.0	11.47	21.24
26/01/2020 16:19:13	26012020	260120	161913	100.860	12.257110	-56.459073	101.030	0.180	-0.050	0.180	100.880	-1.600	0.500																			1580055553.0	11.51	21.32
26/01/2020 16:19:14	26012020	260120	161914	101.000	12.257100	-56.459023	101.210	-0.150	0.190	0.440	101.040	-1.200	0.700																			1580055554.0	11.18	20.71
26/01/2020 16:19:15	26012020	260120	161915	101.160	12.257088	-56.458973	101.220	-0.300	0.030	0.760	101.180	-1.200	1.000																			1580055555.0	10.76	19.93
26/01/2020 16:19:16	26012020	260120	161916	101.150	12.257075	-56.458922	101.020	-0.120	-0.540	0.950	101.110	-1.700	1.300																			1580055556.0	10.78	19.96
26/01/2020 16:19:17	26012020	260120	161917	100.940	12.257063	-56.458868	100.880	0.140	-0.910	0.980	100.900	-2.200	1.400																			1580055557.0	11.26	20.85
26/01/2020 16:19:18	26012020	260120	161918	100.820	12.257052	-56.458815	100.890	0.180	-0.680	0.790	100.810	-2.200	1.300																			1580055558.0	11.74	21.74
26/01/2020 16:19:19	26012020	260120	161919	100.850	12.257043	-56.458765	100.930	0.090	-0.240	0.500	100.870	-1.800	1.000																			1580055559.0	11.49	21.28
26/01/2020 16:19:20	26012020	260120	161920	100.900	12.257033	-56.458715	100.830	0.070	-0.070	0.380	100.890	-1.500	0.800																			1580055560.0	10.86	20.11
26/01/2020 16:19:21	26012020	260120	161921	100.780	12.257023	-56.458663	100.730	0.070	-0.050	0.420	100.750	-1.500	0.800																			1580055561.0	10.81	20.02
26/01/2020 16:19:22	26012020	260120	161922	100.700	12.257013	-56.458610	100.860	-0.090	0.100	0.500	100.710	-1.400	0.900																			1580055562.0	11.22	20.78
26/01/2020 16:19:23	26012020	260120	161923	100.850	12.257003	-56.458560	101.170	-0.290	0.130	0.500	100.900	-1.200	0.900																			1580055563.0	11.28	20.89
26/01/2020 16:19:24	26012020	260120	161924	101.160	12.256992	-56.458508	101.450	-0.260	-0.220	0.510	101.220	-1.400	0.900																			1580055564.0	10.98	20.33
26/01/2020 16:19:25	26012020	260120	161925	101.420	12.256980	-56.458455	101.540	0.030	-0.630	0.710	101.450	-1.900	1.000																			1580055565.0	11.02	20.41
26/01/2020 16:19:26	26012020	260120	161926	101.490	12.256967	-56.458403	101.420	0.270	-0.600	0.760	101.470	-2.100	1.200																			1580055566.0	11.47	21.24
26/01/2020 16:19:27	26012020	260120	161927	101.360	12.256957	-56.458352	101.230	0.290	-0.220	0.520	101.330	-1.700	1.000																			1580055567.0	11.54	21.37
26/01/2020 16:19:28	26012020	260120	161928	101.190	12.256950	-56.458302	101.150	0.210	-0.100	0.240	101.160	-1.500	0.700																			1580055568.0	11.01	20.39
26/01/2020 16:19:29	26012020	260120	161929	101.150	12.256942	-56.458250	101.290	0.150	-0.380	-0.030	101.170	-1.600	0.400																			1580055569.0	10.71	19.83
26/01/2020 16:19:30	26012020	260120	161930	101.300	12.256932	-56.458197	101.390	0.050	-0.610	0.050	101.330	-2.000	0.300																			1580055570.0	11.09	20.54
26/01/2020 16:19:31	26012020	260120	161931	101.370	12.256920	-56.458143	101.170	-0.170	-0.390	0.430	101.340	-1.900	0.700																			1580055571.0	11.53	21.35
26/01/2020 16:19:32	26012020	260120	161932	101.120	12.256907	-56.458093	100.810	-0.410	-0.010	0.710	101.050	-1.500	1.000																			1580055572.0	11.44	21.19
26/01/2020 16:19:33	26012020	260120	161933	100.760	12.256895	-56.458043	100.650	-0.470	0.020	0.660	100.700	-1.300	1.100																			1580055573.0	10.95	20.28
26/01/2020 16:19:34	26012020	260120	161934	100.620	12.256885	-56.457992	100.850	-0.330	-0.260	0.360	100.650	-1.500	0.900																			1580055574.0	10.86	20.11
26/01/2020 16:19:35	26012020	260120	161935	100.830	12.256875	-56.457938	101.080	-0.110	-0.400	0.100	100.880	-1.800	0.500																			1580055575.0	11.30	20.93
26/01/2020 16:19:36	26012020	260120	161936	101.050	12.256863	-56.457885	101.060	0.080	-0.240	0.160	101.060	-1.700	0.500																			1580055576.0	11.57	21.43
26/01/2020 16:19:37	26012020	260120	161937	101.010	12.256852	-56.457835	100.930	0.170	0.020	0.370	100.980	-1.400	0.700																			1580055577.0	11.35	21.02
26/01/2020 16:19:38	26012020	260120	161938	100.900	12.256840	-56.457785	100.930	0.200	0.080	0.360	100.890	-1.300	0.800																			1580055578.0	11.01	20.39
26/01/2020 16:19:39	26012020	260120	161939	100.910	12.256832	-56.457733	101.010	0.280	-0.190	0.150	100.920	-1.500	0.600																			1580055579.0	10.87	20.13
26/01/2020 16:19:40	26012020	260120	161940	100.980	12.256823	-56.457680	101.110	0.340	-0.380	-0.030	101.000	-1.700	0.400																			1580055580.0	11.08	20.52
26/01/2020 16:19:41	26012020	260120	161941	101.100	12.256815	-56.457627	101.160	0.280	-0.350	0.090	101.120	-1.800	0.400																			1580055581.0	11.38	21.08
26/01/2020 16:19:42	26012020	260120	161942	101.140	12.256805	-56.457577	101.110	0.140	-0.330	0.460	101.130	-1.700	0.700																			1580055582.0	11.20	20.74
26/01/2020 16:19:43	26012020	260120	161943	101.060	12.256793	-56.457525	101.010	-0.050	-0.410	0.780	101.040	-1.800	1.100																			1580055583.0	10.96	20.30
26/01/2020 16:19:44	26012020	260120	161944	100.950	12.256780	-56.457475	100.930	-0.190	-0.540	0.860	100.940	-1.900	1.200																			1580055584.0	11.07	20.50
26/01/2020 16:19:45	26012020	260120	161945	100.870	12.256768	-56.457422	100.820	-0.200	-0.650	0.750	100.850	-2.000	1.200																			1580055585.0	11.22	20.78
26/01/2020 16:19:46	26012020	260120	161946	100.770	12.256758	-56.457370	100.750	-0.120	-0.500	0.530	100.750	-2.000	1.000																			1580055586.0	11.34	21.00
26/01/2020 16:19:47	26012020	260120	161947	100.700	12.256748	-56.457318	100.690	-0.040	-0.160	0.400	100.700	-1.700	0.800																			1580055587.0	11.40	21.11
26/01/2020 16:19:48	26012020	260120	161948	100.620	12.256738	-56.457267	100.550	-0.050	0.030	0.420	100.600	-1.400	0.800																			1580055588.0	11.16	20.67
26/01/2020 16:19:49	26012020	260120	161949	100.490	12.256727	-56.457215	100.570	-0.180	0.030	0.420	100.470	-1.400	0.800																			1580055589.0	11.04	20.45
26/01/2020 16:19:50	26012020	260120	161950	100.530	12.256717	-56.457162	100.810	-0.340	0.040	0.530	100.560	-1.400	0.800																			1580055590.0	11.22	20.78
26/01/2020 16:19:51	26012020	260120	161951	100.780	12.256705	-56.457110	101.040	-0.350	-0.020	0.720	100.830	-1.400	1.000																			1580055591.0	11.33	20.98
26/01/2020 16:19:52	26012020	260120	161952	101.010	12.256692	-56.457058	101.100	-0.110	-0.220	0.790	101.040	-1.500	1.200																			1580055592.0	11.16	20.67
26/01/2020 16:19:53	26012020	260120	161953	101.060	12.256680	-56.457007	100.980	0.220	-0.310	0.790	101.040	-1.700	1.200																			1580055593.0	11.23	20.80
26/01/2020 16:19:54	26012020	260120	161954	100.940	12.256670	-56.456955	100.930	0.440	-0.260	0.580	100.920	-1.700	1.100																			1580055594.0	11.35	21.02
26/01/2020 16:19:55	26012020	260120	161955	100.900	12.256662	-56.456903	101.070	0.540	-0.270	0.040	100.920	-1.600	0.600																			1580055595.0	11.18	20.71
26/01/2020 16:19:56	26012020	260120	161956	101.070	12.256657	-56.456852	101.190	0.560	-0.460	-0.290	101.110	-1.800	0.200																			1580055596.0	10.99	20.35
26/01/2020 16:19:57	26012020	260120	161957	101.180	12.256648	-56.456798	101.120	0.420	-0.560	-0.110	101.180	-2.000	0.200																			1580055597.0	11.12	20.59
26/01/2020 16:19:58	26012020	260120	161958	101.100	12.256638	-56.456747	101.020	0.040	-0.270	0.390	101.070	-1.800	0.600																			1580055598.0	11.38	21.08
26/01/2020 16:19:59	26012020	260120	161959	100.990	12.256625	-56.456697	101.020	-0.410	0.090	0.750	100.980	-1.400	1.000	1015.50	26.30	26.40	19.20	19.30	949.00	65.00	65.00	370.00	29.50	349.00	9.10	73.00	3.60	68609	3184.00	27.60	27.60	1580055599.0	11.25	20.84
26/01/2020 16:20:00	26012020	260120	162000	100.980	12.256613	-56.456648	101.010	-0.560	-0.070	0.790	100.980	-1.300	1.200																			1580055600.0	10.77	19.95
26/01/2020 16:20:01	26012020	260120	162001	100.950	12.256602	-56.456595	100.860	-0.330	-0.670	0.810	100.930	-1.800	1.200																			1580055601.0	10.72	19.85
26/01/2020 16:20:02	26012020	260120	162002	100.780	12.256588	-56.456540	100.640	-0.030	-1.000	0.800	100.750	-2.300	1.200																			1580055602.0	11.39	21.09
26/01/2020 16:20:03	26012020	260120	162003	100.560	12.256577	-56.456487	100.540	0.020	-0.610	0.660	100.530	-2.200	1.100																			1580055603.0	11.94	22.11
26/01/2020 16:20:04	26012020	260120	162004	100.460	12.256567	-56.456437	100.590	-0.140	0.120	0.550	100.460	-1.500	1.000																			1580055604.0	11.66	21.59
26/01/2020 16:20:05	26012020	260120	162005	100.530	12.256557	-56.456387	100.690	-0.200	0.410	0.410	100.550	-1.000	0.800																			1580055605.0	10.89	20.17
26/01/2020 16:20:06	26012020	260120	162006	100.630	12.256547	-56.456335	100.750	-0.010	0.130	0.220	100.650	-1.100	0.700																			1580055606.0	10.56	19.56
26/01/2020 16:20:07	26012020	260120	162007	100.700	12.256537	-56.456282	100.870	0.240	-0.210	0.190	100.710	-1.500	0.600																			1580055607.0	11.09	20.54
26/01/2020 16:20:08	26012020	260120	162008	100.840	12.256527	-56.456228	101.150	0.270	-0.160	0.200	100.880	-1.600	0.600																			1580055608.0	11.63	21.54
26/01/2020 16:20:09	26012020	260120	162009	101.120	12.256517	-56.456177	101.390	0.060	0.070	0.200	101.180	-1.400	0.600																			1580055609.0	11.52	21.34
26/01/2020 16:20:10	26012020	260120	162010	101.360	12.256507	-56.456128	101.420	-0.120	-0.020	0.360	101.380	-1.300	0.700																			1580055610.0	10.93	20.24
26/01/2020 16:20:11	26012020	260120	162011	101.370	12.256495	-56.456077	101.240	-0.030	-0.550	0.670	101.340	-1.700	0.900																			1580055611.0	10.63	19.69
26/01/2020 16:20:12	26012020	260120	162012	101.170	12.256483	-56.456023	100.980	0.280	-1.010	0.910	101.120	-2.300	1.200																			1580055612.0	11.01	20.39
26/01/2020 16:20:13	26012020	260120	162013	100.920	12.256473	-56.455970	100.870	0.450	-0.960	0.820	100.880	-2.400	1.300																			1580055613.0	11.55	21.39
26/01/2020 16:20:14	26012020	260120	162014	100.820	12.256463	-56.455918	100.870	0.280	-0.490	0.620	100.820	-2.100	1.100																			1580055614.0	11.58	21.45
26/01/2020 16:20:15	26012020	260120	162015	100.830	12.256453	-56.455868	100.860	-0.120	0.040	0.570	100.830	-1.500	0.900																			1580055615.0	11.13	20.61
26/01/2020 16:20:16	26012020	260120	162016	100.830	12.256443	-56.455818	100.870	-0.430	0.320	0.540	100.830	-1.100	0.900																			1580055616.0	10.77	19.95
26/01/2020 16:20:17	26012020	260120	162017	100.840	12.256432	-56.455768	100.850	-0.400	0.190	0.460	100.840	-1.100	0.900																			1580055617.0	10.76	19.93
26/01/2020 16:20:18	26012020	260120	162018	100.820	12.256420	-56.455715	100.770	-0.050	-0.350	0.510	100.810	-1.500	0.900																			1580055618.0	11.01	20.39
26/01/2020 16:20:19	26012020	260120	162019	100.740	12.256410	-56.455660	100.800	0.260	-0.680	0.470	100.730	-2.000	0.900																			1580055619.0	11.44	21.19
26/01/2020 16:20:20	26012020	260120	162020	100.780	12.256398	-56.455607	100.960	0.140	-0.290	0.420	100.810	-1.900	0.800																			1580055620.0	11.89	22.02
26/01/2020 16:20:21	26012020	260120	162021	100.940	12.256390	-56.455558	101.140	-0.280	0.290	0.480	100.980	-1.300	0.800																			1580055621.0	11.54	21.37
26/01/2020 16:20:22	26012020	260120	162022	101.110	12.256378	-56.455510	101.230	-0.510	0.240	0.570	101.130	-1.000	0.900																			1580055622.0	10.62	19.67
26/01/2020 16:20:23	26012020	260120	162023	101.170	12.256367	-56.455458	101.180	-0.250	-0.450	0.610	101.170	-1.600	1.000																			1580055623.0	10.39	19.24
26/01/2020 16:20:24	26012020	260120	162024	101.130	12.256355	-56.455403	101.070	0.280	-1.030	0.600	101.110	-2.300	1.000																			1580055624.0	11.14	20.63
26/01/2020 16:20:25	26012020	260120	162025	101.020	12.256343	-56.455350	100.960	0.600	-0.930	0.500	101.000	-2.400	0.900																			1580055625.0	11.83	21.91
26/01/2020 16:20:26	26012020	260120	162026	100.900	12.256335	-56.455298	100.830	0.480	-0.300	0.380	100.880	-1.900	0.800																			1580055626.0	11.74	21.74
26/01/2020 16:20:27	26012020	260120	162027	100.780	12.256327	-56.455248	100.740	0.060	0.300	0.260	100.760	-1.300	0.700																			1580055627.0	11.06	20.48
26/01/2020 16:20:28	26012020	260120	162028	100.700	12.256317	-56.455200	100.780	-0.310	0.480	0.060	100.700	-0.900	0.500																			1580055628.0	10.57	19.58
26/01/2020 16:20:29	26012020	260120	162029	100.760	12.256308	-56.455148	100.910	-0.400	0.180	-0.070	100.780	-1.100	0.300																			1580055629.0	10.62	19.67
26/01/2020 16:20:30	26012020	260120	162030	100.880	12.256298	-56.455095	100.920	-0.200	-0.360	-0.030	100.890	-1.600	0.300																			1580055630.0	11.01	20.39
26/01/2020 16:20:31	26012020	260120	162031	100.880	12.256287	-56.455042	100.830	0.120	-0.790	0.130	100.860	-2.100	0.400																			1580055631.0	11.44	21.19
26/01/2020 16:20:32	26012020	260120	162032	100.780	12.256273	-56.454988	100.770	0.310	-0.830	0.410	100.760	-2.300	0.700																			1580055632.0	11.65	21.58
26/01/2020 16:20:33	26012020	260120	162033	100.720	12.256262	-56.454937	100.810	0.190	-0.420	0.590	100.720	-2.000	0.900																			1580055633.0	11.56	21.41
26/01/2020 16:20:34	26012020	260120	162034	100.760	12.256252	-56.454887	100.890	-0.130	0.120	0.570	100.770	-1.400	1.000																			1580055634.0	11.21	20.76
26/01/2020 16:20:35	26012020	260120	162035	100.840	12.256240	-56.454838	100.950	-0.290	0.200	0.480	100.860	-1.200	0.900																			1580055635.0	10.70	19.82
26/01/2020 16:20:36	26012020	260120	162036	100.890	12.256230	-56.454787	100.960	-0.150	-0.200	0.380	100.900	-1.400	0.800																			1580055636.0	10.57	19.58
26/01/2020 16:20:37	26012020	260120	162037	100.920	12.256218	-56.454733	101.000	0.080	-0.520	0.230	100.930	-1.800	0.700																			1580055637.0	11.13	20.61
26/01/2020 16:20:38	26012020	260120	162038	100.990	12.256208	-56.454680	101.050	0.200	-0.500	0.110	101.000	-1.900	0.500																			1580055638.0	11.59	21.46
26/01/2020 16:20:39	26012020	260120	162039	101.030	12.256200	-56.454628	101.060	0.160	-0.290	0.070	101.030	-1.800	0.500																			1580055639.0	11.43	21.17
26/01/2020 16:20:40	26012020	260120	162040	101.030	12.256190	-56.454578	101.040	0.070	-0.260	0.180	101.020	-1.600	0.500																			1580055640.0	11.07	20.50
26/01/2020 16:20:41	26012020	260120	162041	100.990	12.256180	-56.454525	100.990	-0.030	-0.290	0.450	100.980	-1.700	0.700																			1580055641.0	10.95	20.28
26/01/2020 16:20:42	26012020	260120	162042	100.950	12.256168	-56.454473	100.990	-0.180	-0.170	0.720	100.950	-1.600	1.000																			1580055642.0	11.22	20.78
26/01/2020 16:20:43	26012020	260120	162043	100.970	12.256155	-56.454423	101.050	-0.340	0.020	0.940	100.980	-1.400	1.200																			1580055643.0	11.30	20.93
26/01/2020 16:20:44	26012020	260120	162044	101.020	12.256143	-56.454373	101.080	-0.340	-0.000	0.930	101.030	-1.400	1.300																			1580055644.0	11.06	20.48
26/01/2020 16:20:45	26012020	260120	162045	101.040	12.256132	-56.454322	101.050	-0.070	-0.270	0.700	101.040	-1.600	1.200																			1580055645.0	10.98	20.33
26/01/2020 16:20:46	26012020	260120	162046	101.010	12.256120	-56.454268	100.990	0.350	-0.610	0.490	101.000	-1.900	0.900																			1580055646.0	11.17	20.69
26/01/2020 16:20:47	26012020	260120	162047	100.950	12.256112	-56.454215	100.940	0.590	-0.630	0.300	100.940	-2.100	0.800																			1580055647.0	11.46	21.22
26/01/2020 16:20:48	26012020	260120	162048	100.900	12.256103	-56.454162	100.930	0.380	-0.170	0.100	100.890	-1.800	0.500																			1580055648.0	11.57	21.43
26/01/2020 16:20:49	26012020	260120	162049	100.890	12.256095	-56.454112	100.990	-0.080	0.200	-0.010	100.900	-1.300	0.400																			1580055649.0	11.20	20.74
26/01/2020 16:20:50	26012020	260120	162050	100.950	12.256085	-56.454063	101.080	-0.360	0.050	0.110	100.980	-1.300	0.400																			1580055650.0	10.61	19.65
26/01/2020 16:20:51	26012020	260120	162051	101.050	12.256073	-56.454010	101.130	-0.320	-0.340	0.470	101.060	-1.600	0.700																			1580055651.0	10.74	19.89
26/01/2020 16:20:52	26012020	260120	162052	101.080	12.256060	-56.453958	101.070	-0.050	-0.700	0.670	101.070	-2.000	1.000																			1580055652.0	11.29	20.91
26/01/2020 16:20:53	26012020	260120	162053	101.000	12.256047	-56.453905	100.890	0.240	-0.720	0.760	100.970	-2.200	1.100																			1580055653.0	11.53	21.35
26/01/2020 16:20:54	26012020	260120	162054	100.810	12.256035	-56.453853	100.700	0.240	-0.270	0.680	100.770	-1.900	1.100																			1580055654.0	11.55	21.39
26/01/2020 16:20:55	26012020	260120	162055	100.650	12.256027	-56.453803	100.660	-0.040	0.260	0.350	100.630	-1.300	0.900																			1580055655.0	11.24	20.82
26/01/2020 16:20:56	26012020	260120	162056	100.630	12.256020	-56.453753	100.770	-0.240	0.250	-0.080	100.650	-1.100	0.400																			1580055656.0	10.70	19.82
26/01/2020 16:20:57	26012020	260120	162057	100.750	12.256012	-56.453702	100.890	-0.070	-0.340	-0.200	100.780	-1.500	0.200																			1580055657.0	10.60	19.63
26/01/2020 16:20:58	26012020	260120	162058	100.880	12.256000	-56.453647	100.930	0.240	-0.800	0.050	100.890	-2.100	0.300																			1580055658.0	11.21	20.76
26/01/2020 16:20:59	26012020	260120	162059	100.900	12.255988	-56.453593	100.900	0.280	-0.620	0.420	100.890	-2.200	0.700	1015.50	26.40	26.40	19.10	19.20	946.00	64.00	64.00	369.00	29.50	348.00	9.30	71.00	3.90	68615	3300.00	27.60	27.60	1580055659.0	11.85	21.95
26/01/2020 16:21:00	26012020	260120	162100	100.860	12.255977	-56.453543	100.870	-0.000	-0.080	0.680	100.850	-1.700	1.000																			1580055660.0	11.64	21.56
26/01/2020 16:21:01	26012020	260120	162101	100.830	12.255965	-56.453495	100.870	-0.300	0.180	0.690	100.830	-1.200	1.100																			1580055661.0	10.90	20.19
26/01/2020 16:21:02	26012020	260120	162102	100.820	12.255955	-56.453443	100.870	-0.360	-0.120	0.550	100.820	-1.400	1.000																			1580055662.0	10.54	19.52
26/01/2020 16:21:03	26012020	260120	162103	100.820	12.255945	-56.453390	100.880	-0.170	-0.610	0.510	100.820	-1.900	0.900																			1580055663.0	10.89	20.17
26/01/2020 16:21:04	26012020	260120	162104	100.820	12.255932	-56.453337	100.740	0.060	-0.710	0.610	100.790	-2.100	0.900																			1580055664.0	11.53	21.35
26/01/2020 16:21:05	26012020	260120	162105	100.660	12.255920	-56.453285	100.580	0.110	-0.280	0.620	100.630	-1.900	1.000																			1580055665.0	11.72	21.71
26/01/2020 16:21:06	26012020	260120	162106	100.510	12.255910	-56.453235	100.590	0.010	0.220	0.440	100.510	-1.300	0.900																			1580055666.0	11.29	20.91
26/01/2020 16:21:07	26012020	260120	162107	100.550	12.255902	-56.453185	100.730	-0.010	0.240	0.220	100.570	-1.100	0.700																			1580055667.0	10.72	19.85
26/01/2020 16:21:08	26012020	260120	162108	100.700	12.255893	-56.453133	100.870	0.210	-0.230	0.030	100.730	-1.400	0.500																			1580055668.0	10.63	19.69
26/01/2020 16:21:09	26012020	260120	162109	100.850	12.255883	-56.453078	100.990	0.440	-0.490	0.020	100.880	-1.900	0.400																			1580055669.0	11.17	20.69
26/01/2020 16:21:10	26012020	260120	162110	100.970	12.255873	-56.453027	101.110	0.340	-0.150	0.230	100.990	-1.700	0.500																			1580055670.0	11.69	21.65
26/01/2020 16:21:11	26012020	260120	162111	101.070	12.255863	-56.452978	101.230	-0.020	0.170	0.430	101.100	-1.300	0.700																			1580055671.0	11.30	20.93
26/01/2020 16:21:12	26012020	260120	162112	101.200	12.255853	-56.452928	101.270	-0.210	-0.170	0.620	101.220	-1.400	0.900																			1580055672.0	10.51	19.46
26/01/2020 16:21:13	26012020	260120	162113	101.220	12.255842	-56.452877	101.050	-0.050	-0.950	0.990	101.180	-2.100	1.200																			1580055673.0	10.53	19.50
26/01/2020 16:21:14	26012020	260120	162114	100.970	12.255828	-56.452822	100.680	0.190	-1.340	1.230	100.890	-2.700	1.600																			1580055674.0	11.36	21.04
26/01/2020 16:21:15	26012020	260120	162115	100.600	12.255817	-56.452768	100.430	0.220	-0.970	1.150	100.530	-2.600	1.600																			1580055675.0	11.91	22.06
26/01/2020 16:21:16	26012020	260120	162116	100.360	12.255807	-56.452717	100.420	-0.070	-0.120	0.880	100.350	-1.800	1.400																			1580055676.0	11.62	21.52
26/01/2020 16:21:17	26012020	260120	162117	100.390	12.255798	-56.452668	100.600	-0.490	0.550	0.460	100.420	-1.000	1.000																			1580055677.0	10.94	20.26
26/01/2020 16:21:18	26012020	260120	162118	100.570	12.255788	-56.452618	100.780	-0.730	0.710	0.170	100.610	-0.700	0.600																			1580055678.0	10.52	19.48
26/01/2020 16:21:19	26012020	260120	162119	100.760	12.255777	-56.452568	100.970	-0.610	0.440	0.080	100.800	-0.800	0.500																			1580055679.0	10.73	19.87
26/01/2020 16:21:20	26012020	260120	162120	100.980	12.255765	-56.452515	101.240	-0.150	-0.120	0.090	101.030	-1.300	0.500																			1580055680.0	11.11	20.58
26/01/2020 16:21:21	26012020	260120	162121	101.240	12.255753	-56.452462	101.440	0.350	-0.590	0.040	101.290	-1.900	0.400																			1580055681.0	11.39	21.09
26/01/2020 16:21:22	26012020	260120	162122	101.430	12.255743	-56.452408	101.470	0.590	-0.670	-0.050	101.450	-2.100	0.300																			1580055682.0	11.58	21.45
26/01/2020 16:21:23	26012020	260120	162123	101.450	12.255735	-56.452358	101.380	0.530	-0.420	-0.020	101.430	-1.900	0.300																			1580055683.0	11.40	21.11
26/01/2020 16:21:24	26012020	260120	162124	101.360	12.255727	-56.452308	101.310	0.350	-0.260	0.070	101.340	-1.700	0.400																			1580055684.0	10.94	20.26
26/01/2020 16:21:25	26012020	260120	162125	101.270	12.255718	-56.452257	101.170	0.250	-0.390	0.180	101.260	-1.700	0.500																			1580055685.0	10.65	19.72
26/01/2020 16:21:26	26012020	260120	162126	101.140	12.255708	-56.452205	100.920	0.210	-0.590	0.440	101.090	-1.900	0.700																			1580055686.0	10.85	20.09
26/01/2020 16:21:27	26012020	260120	162127	100.870	12.255697	-56.452152	100.710	0.080	-0.540	0.690	100.820	-2.000	1.000																			1580055687.0	11.27	20.87
26/01/2020 16:21:28	26012020	260120	162128	100.660	12.255685	-56.452100	100.670	-0.180	-0.330	0.710	100.640	-1.800	1.100																			1580055688.0	11.45	21.21
26/01/2020 16:21:29	26012020	260120	162129	100.640	12.255673	-56.452050	100.820	-0.430	-0.130	0.570	100.650	-1.600	1.000																			1580055689.0	11.22	20.78
26/01/2020 16:21:30	26012020	260120	162130	100.790	12.255662	-56.451998	101.100	-0.580	0.130	0.420	100.840	-1.400	0.800																			1580055690.0	11.11	20.58
26/01/2020 16:21:31	26012020	260120	162131	101.090	12.255650	-56.451948	101.380	-0.610	0.360	0.300	101.150	-1.100	0.700																			1580055691.0	11.11	20.58
26/01/2020 16:21:32	26012020	260120	162132	101.360	12.255638	-56.451898	101.470	-0.430	0.240	0.260	101.390	-1.100	0.600																			1580055692.0	10.97	20.32
26/01/2020 16:21:33	26012020	260120	162133	101.440	12.255625	-56.451847	101.460	-0.040	-0.330	0.190	101.450	-1.500	0.600																			1580055693.0	10.88	20.15
26/01/2020 16:21:34	26012020	260120	162134	101.450	12.255615	-56.451793	101.480	0.390	-0.840	0.040	101.460	-2.100	0.500																			1580055694.0	11.20	20.74
26/01/2020 16:21:35	26012020	260120	162135	101.480	12.255605	-56.451738	101.390	0.600	-0.860	0.050	101.470	-2.300	0.400																			1580055695.0	11.62	21.52
26/01/2020 16:21:36	26012020	260120	162136	101.360	12.255597	-56.451687	101.140	0.470	-0.460	0.290	101.320	-2.000	0.600																			1580055696.0	11.53	21.35
26/01/2020 16:21:37	26012020	260120	162137	101.100	12.255587	-56.451638	100.970	0.190	-0.100	0.560	101.050	-1.600	0.900																			1580055697.0	11.05	20.46
26/01/2020 16:21:38	26012020	260120	162138	100.950	12.255577	-56.451588	101.020	0.040	-0.140	0.610	100.940	-1.500	1.000																			1580055698.0	10.68	19.78
26/01/2020 16:21:39	26012020	260120	162139	100.980	12.255565	-56.451535	101.040	-0.030	-0.210	0.560	100.990	-1.600	1.000																			1580055699.0	10.87	20.13
26/01/2020 16:21:40	26012020	260120	162140	100.990	12.255555	-56.451482	101.020	-0.160	-0.000	0.510	100.990	-1.500	0.900																			1580055700.0	11.41	21.13
26/01/2020 16:21:41	26012020	260120	162141	100.960	12.255543	-56.451432	100.990	-0.210	0.130	0.480	100.960	-1.300	0.900																			1580055701.0	11.33	20.98
26/01/2020 16:21:42	26012020	260120	162142	100.940	12.255533	-56.451382	100.980	-0.070	-0.110	0.350	100.940	-1.400	0.800																			1580055702.0	10.94	20.26
26/01/2020 16:21:43	26012020	260120	162143	100.940	12.255522	-56.451328	101.010	0.150	-0.510	0.170	100.950	-1.800	0.600																			1580055703.0	11.03	20.43
26/01/2020 16:21:44	26012020	260120	162144	100.990	12.255512	-56.451275	101.120	0.230	-0.510	0.180	101.010	-2.000	0.500																			1580055704.0	11.45	21.21
26/01/2020 16:21:45	26012020	260120	162145	101.100	12.255502	-56.451223	101.220	0.050	-0.080	0.300	101.120	-1.600	0.600																			1580055705.0	11.57	21.43
26/01/2020 16:21:46	26012020	260120	162146	101.180	12.255490	-56.451175	101.220	-0.210	0.110	0.480	101.200	-1.300	0.800																			1580055706.0	11.02	20.41
26/01/2020 16:21:47	26012020	260120	162147	101.170	12.255480	-56.451125	101.070	-0.280	-0.320	0.720	101.150	-1.500	1.000																			1580055707.0	10.48	19.41
26/01/2020 16:21:48	26012020	260120	162148	101.000	12.255467	-56.451072	100.920	-0.100	-0.900	0.930	100.970	-2.100	1.200																			1580055708.0	10.82	20.04
26/01/2020 16:21:49	26012020	260120	162149	100.840	12.255455	-56.451018	100.850	0.050	-0.890	0.930	100.820	-2.400	1.300																			1580055709.0	11.57	21.43
26/01/2020 16:21:50	26012020	260120	162150	100.790	12.255443	-56.450967	100.850	-0.030	-0.350	0.760	100.790	-2.000	1.200																			1580055710.0	11.76	21.78
26/01/2020 16:21:51	26012020	260120	162151	100.790	12.255433	-56.450917	100.770	-0.180	0.140	0.640	100.790	-1.400	1.000																			1580055711.0	11.13	20.61
26/01/2020 16:21:52	26012020	260120	162152	100.710	12.255423	-56.450867	100.600	-0.120	0.160	0.550	100.670	-1.200	1.000																			1580055712.0	10.63	19.69
26/01/2020 16:21:53	26012020	260120	162153	100.550	12.255413	-56.450815	100.570	0.130	-0.150	0.310	100.530	-1.400	0.800																			1580055713.0	10.78	19.96
26/01/2020 16:21:54	26012020	260120	162154	100.550	12.255405	-56.450760	100.810	0.310	-0.320	0.030	100.590	-1.700	0.500																			1580055714.0	11.34	21.00
26/01/2020 16:21:55	26012020	260120	162155	100.820	12.255397	-56.450707	101.070	0.250	-0.120	0.020	100.870	-1.600	0.400																			1580055715.0	11.64	21.56
26/01/2020 16:21:56	26012020	260120	162156	101.070	12.255387	-56.450657	101.180	0.080	0.080	0.220	101.100	-1.300	0.500																			1580055716.0	11.36	21.04
26/01/2020 16:21:57	26012020	260120	162157	101.140	12.255377	-56.450607	101.140	0.050	-0.140	0.540	101.130	-1.400	0.800																			1580055717.0	10.83	20.06
26/01/2020 16:21:58	26012020	260120	162158	101.100	12.255365	-56.450555	101.110	0.160	-0.530	0.810	101.090	-1.800	1.100																			1580055718.0	10.84	20.08
26/01/2020 16:21:59	26012020	260120	162159	101.070	12.255353	-56.450502	101.110	0.160	-0.620	0.750	101.070	-2.000	1.200	1015.50	26.30	26.40	19.20	19.30	960.00	64.00	65.00	369.00	29.40	347.00	9.10	69.00	3.80	69244	3208.00	27.60	27.60	1580055719.0	11.33	20.98
26/01/2020 16:22:00	26012020	260120	162200	101.080	12.255343	-56.450450	101.140	-0.080	-0.360	0.620	101.090	-1.900	1.000																			1580055720.0	11.48	21.26
26/01/2020 16:22:01	26012020	260120	162201	101.110	12.255333	-56.450400	101.250	-0.430	-0.020	0.600	101.140	-1.500	1.000																			1580055721.0	11.14	20.63
26/01/2020 16:22:02	26012020	260120	162202	101.220	12.255322	-56.450350	101.320	-0.670	0.060	0.610	101.250	-1.300	1.000																			1580055722.0	10.76	19.93
26/01/2020 16:22:03	26012020	260120	162203	101.300	12.255308	-56.450300	101.280	-0.570	-0.170	0.550	101.300	-1.500	0.900																			1580055723.0	10.71	19.83
26/01/2020 16:22:04	26012020	260120	162204	101.260	12.255295	-56.450248	101.130	-0.110	-0.510	0.440	101.230	-1.800	0.900																			1580055724.0	10.98	20.33
26/01/2020 16:22:05	26012020	260120	162205	101.110	12.255285	-56.450195	100.990	0.460	-0.810	0.240	101.070	-2.100	0.700																			1580055725.0	11.34	21.00
26/01/2020 16:22:06	26012020	260120	162206	100.980	12.255277	-56.450142	101.010	0.770	-0.790	-0.030	100.980	-2.200	0.400																			1580055726.0	11.49	21.28
26/01/2020 16:22:07	26012020	260120	162207	101.020	12.255270	-56.450088	101.120	0.580	-0.290	-0.140	101.040	-1.900	0.200																			1580055727.0	11.56	21.41
26/01/2020 16:22:08	26012020	260120	162208	101.120	12.255262	-56.450038	101.150	0.100	0.270	0.130	101.140	-1.300	0.400																			1580055728.0	11.29	20.91
26/01/2020 16:22:09	26012020	260120	162209	101.140	12.255250	-56.449988	101.120	-0.200	0.270	0.520	101.130	-1.000	0.800																			1580055729.0	10.69	19.80
26/01/2020 16:22:10	26012020	260120	162210	101.090	12.255238	-56.449937	101.050	-0.180	-0.220	0.770	101.070	-1.400	1.100																			1580055730.0	10.66	19.74
26/01/2020 16:22:11	26012020	260120	162211	101.010	12.255225	-56.449883	101.050	-0.060	-0.580	0.720	101.000	-1.900	1.100																			1580055731.0	11.33	20.98
26/01/2020 16:22:12	26012020	260120	162212	101.020	12.255215	-56.449828	101.190	-0.110	-0.390	0.530	101.050	-1.900	0.900																			1580055732.0	11.81	21.87
26/01/2020 16:22:13	26012020	260120	162213	101.180	12.255205	-56.449778	101.350	-0.380	0.190	0.540	101.220	-1.400	0.900																			1580055733.0	11.60	21.48
26/01/2020 16:22:14	26012020	260120	162214	101.340	12.255193	-56.449732	101.470	-0.690	0.500	0.570	101.370	-0.900	0.900																			1580055734.0	10.89	20.17
26/01/2020 16:22:15	26012020	260120	162215	101.450	12.255180	-56.449682	101.540	-0.690	0.200	0.590	101.470	-1.000	0.900																			1580055735.0	10.43	19.32
26/01/2020 16:22:16	26012020	260120	162216	101.510	12.255167	-56.449630	101.490	-0.190	-0.520	0.590	101.510	-1.600	1.000																			1580055736.0	10.65	19.72
26/01/2020 16:22:17	26012020	260120	162217	101.470	12.255155	-56.449577	101.350	0.580	-1.170	0.410	101.450	-2.400	0.800																			1580055737.0	11.23	20.80
26/01/2020 16:22:18	26012020	260120	162218	101.310	12.255147	-56.449522	101.100	1.130	-1.280	0.240	101.260	-2.700	0.700																			1580055738.0	11.67	21.61
26/01/2020 16:22:19	26012020	260120	162219	101.070	12.255140	-56.449470	101.020	1.050	-0.660	0.210	101.050	-2.300	0.600																			1580055739.0	11.71	21.69
26/01/2020 16:22:20	26012020	260120	162220	101.000	12.255132	-56.449420	101.100	0.430	0.160	0.350	101.010	-1.500	0.700																			1580055740.0	11.28	20.89
26/01/2020 16:22:21	26012020	260120	162221	101.070	12.255123	-56.449372	101.160	-0.240	0.450	0.640	101.080	-1.000	0.900																			1580055741.0	10.59	19.61
26/01/2020 16:22:22	26012020	260120	162222	101.110	12.255112	-56.449320	101.150	-0.590	0.100	0.950	101.110	-1.100	1.200																			1580055742.0	10.43	19.32
26/01/2020 16:22:23	26012020	260120	162223	101.090	12.255098	-56.449267	101.160	-0.600	-0.350	1.180	101.080	-1.600	1.500																			1580055743.0	11.04	20.45
26/01/2020 16:22:24	26012020	260120	162224	101.090	12.255083	-56.449213	101.200	-0.530	-0.420	1.180	101.100	-1.800	1.600																			1580055744.0	11.71	21.69
26/01/2020 16:22:25	26012020	260120	162225	101.150	12.255070	-56.449162	101.250	-0.510	-0.200	0.950	101.160	-1.700	1.400																			1580055745.0	11.73	21.72
26/01/2020 16:22:26	26012020	260120	162226	101.210	12.255058	-56.449112	101.290	-0.460	0.030	0.540	101.220	-1.400	1.100																			1580055746.0	11.24	20.82
26/01/2020 16:22:27	26012020	260120	162227	101.260	12.255048	-56.449062	101.270	-0.220	0.030	0.060	101.260	-1.300	0.600																			1580055747.0	10.87	20.13
26/01/2020 16:22:28	26012020	260120	162228	101.260	12.255040	-56.449010	101.330	0.270	-0.280	-0.380	101.260	-1.500	0.100																			1580055748.0	10.81	20.02
26/01/2020 16:22:29	26012020	260120	162229	101.340	12.255032	-56.448957	101.490	0.750	-0.610	-0.510	101.370	-1.900	-0.100																			1580055749.0	11.09	20.54
26/01/2020 16:22:30	26012020	260120	162230	101.490	12.255023	-56.448903	101.560	0.870	-0.610	-0.300	101.520	-2.100	-0.000																			1580055750.0	11.45	21.21
26/01/2020 16:22:31	26012020	260120	162231	101.550	12.255013	-56.448852	101.510	0.530	-0.220	0.020	101.550	-1.800	0.300																			1580055751.0	11.45	21.21
26/01/2020 16:22:32	26012020	260120	162232	101.470	12.255003	-56.448803	101.400	0.030	0.120	0.410	101.450	-1.400	0.600																			1580055752.0	11.02	20.41
26/01/2020 16:22:33	26012020	260120	162233	101.360	12.254993	-56.448753	101.340	-0.280	-0.070	0.740	101.340	-1.300	1.000																			1580055753.0	10.57	19.58
26/01/2020 16:22:34	26012020	260120	162234	101.290	12.254980	-56.448702	101.220	-0.350	-0.570	0.960	101.270	-1.800	1.300																			1580055754.0	10.72	19.85
26/01/2020 16:22:35	26012020	260120	162235	101.160	12.254967	-56.448648	100.960	-0.260	-0.810	1.060	101.110	-2.200	1.400																			1580055755.0	11.36	21.04
26/01/2020 16:22:36	26012020	260120	162236	100.880	12.254955	-56.448595	100.680	-0.170	-0.570	0.990	100.820	-2.100	1.400																			1580055756.0	11.69	21.65
26/01/2020 16:22:37	26012020	260120	162237	100.620	12.254943	-56.448545	100.560	-0.180	-0.160	0.720	100.580	-1.700	1.200																			1580055757.0	11.45	21.21
26/01/2020 16:22:38	26012020	260120	162238	100.510	12.254933	-56.448493	100.610	-0.260	0.100	0.370	100.510	-1.400	0.900																			1580055758.0	11.02	20.41
26/01/2020 16:22:39	26012020	260120	162239	100.590	12.254923	-56.448443	100.800	-0.290	0.180	0.090	100.620	-1.200	0.500																			1580055759.0	10.92	20.22
26/01/2020 16:22:40	26012020	260120	162240	100.790	12.254913	-56.448392	100.980	-0.090	0.060	0.030	100.840	-1.300	0.400																			1580055760.0	11.02	20.41
26/01/2020 16:22:41	26012020	260120	162241	100.970	12.254902	-56.448340	101.060	0.300	-0.270	0.220	100.990	-1.500	0.500																			1580055761.0	11.11	20.58
26/01/2020 16:22:42	26012020	260120	162242	101.040	12.254890	-56.448287	101.080	0.600	-0.430	0.390	101.050	-1.800	0.700																			1580055762.0	11.28	20.89
26/01/2020 16:22:43	26012020	260120	162243	101.060	12.254882	-56.448235	101.100	0.520	-0.210	0.420	101.060	-1.700	0.800																			1580055763.0	11.46	21.22
26/01/2020 16:22:44	26012020	260120	162244	101.080	12.254873	-56.448185	101.240	0.110	0.060	0.310	101.100	-1.400	0.700																			1580055764.0	11.20	20.74
26/01/2020 16:22:45	26012020	260120	162245	101.230	12.254865	-56.448135	101.470	-0.310	0.020	0.280	101.280	-1.300	0.600																			1580055765.0	10.73	19.87
26/01/2020 16:22:46	26012020	260120	162246	101.480	12.254855	-56.448085	101.590	-0.460	-0.330	0.440	101.520	-1.600	0.700																			1580055766.0	10.62	19.67
26/01/2020 16:22:47	26012020	260120	162247	101.570	12.254842	-56.448033	101.390	-0.240	-0.890	0.770	101.550	-2.100	1.000																			1580055767.0	10.92	20.22
26/01/2020 16:22:48	26012020	260120	162248	101.350	12.254827	-56.447980	100.960	0.210	-1.300	1.100	101.270	-2.600	1.400																			1580055768.0	11.29	20.91
26/01/2020 16:22:49	26012020	260120	162249	100.900	12.254813	-56.447925	100.540	0.490	-1.120	1.090	100.800	-2.700	1.500																			1580055769.0	11.67	21.61
26/01/2020 16:22:50	26012020	260120	162250	100.490	12.254805	-56.447873	100.380	0.380	-0.350	0.610	100.440	-2.100	1.200																			1580055770.0	11.73	21.72
26/01/2020 16:22:51	26012020	260120	162251	100.370	12.254798	-56.447823	100.470	-0.040	0.480	0.230	100.380	-1.200	0.700																			1580055771.0	11.25	20.84
26/01/2020 16:22:52	26012020	260120	162252	100.470	12.254790	-56.447773	100.630	-0.460	0.780	0.250	100.500	-0.600	0.600																			1580055772.0	10.72	19.85
26/01/2020 16:22:53	26012020	260120	162253	100.620	12.254780	-56.447722	100.780	-0.610	0.430	0.450	100.650	-0.800	0.700																			1580055773.0	10.65	19.72
26/01/2020 16:22:54	26012020	260120	162254	100.760	12.254765	-56.447668	100.930	-0.430	-0.030	0.690	100.780	-1.300	1.000																			1580055774.0	11.13	20.61
26/01/2020 16:22:55	26012020	260120	162255	100.900	12.254752	-56.447615	101.120	-0.100	-0.260	0.720	100.930	-1.600	1.100																			1580055775.0	11.66	21.59
26/01/2020 16:22:56	26012020	260120	162256	101.100	12.254740	-56.447565	101.260	0.230	-0.390	0.490	101.140	-1.700	0.900																			1580055776.0	11.57	21.43
26/01/2020 16:22:57	26012020	260120	162257	101.240	12.254730	-56.447513	101.290	0.440	-0.400	0.240	101.250	-1.800	0.700																			1580055777.0	11.19	20.72
26/01/2020 16:22:58	26012020	260120	162258	101.270	12.254723	-56.447462	101.370	0.440	-0.220	0.070	101.270	-1.700	0.500																			1580055778.0	11.05	20.46
26/01/2020 16:22:59	26012020	260120	162259	101.360	12.254715	-56.447412	101.450	0.240	-0.130	-0.020	101.380	-1.500	0.400	1015.50	26.40	26.40	18.90	19.00	956.00	63.00	63.00	369.00	29.40	347.00	9.10	68.00	3.70	69057	3243.00	27.60	27.60	1580055779.0	10.91	20.21
26/01/2020 16:23:00	26012020	260120	162300	101.430	12.254705	-56.447362	101.320	0.020	-0.430	0.200	101.420	-1.700	0.500																			1580055780.0	10.67	19.76
26/01/2020 16:23:01	26012020	260120	162301	101.270	12.254695	-56.447310	101.030	-0.040	-0.910	0.600	101.220	-2.100	0.800																			1580055781.0	10.79	19.98
26/01/2020 16:23:02	26012020	260120	162302	100.970	12.254682	-56.447257	100.700	0.060	-1.140	0.980	100.900	-2.500	1.200																			1580055782.0	11.31	20.95
26/01/2020 16:23:03	26012020	260120	162303	100.630	12.254668	-56.447203	100.390	0.170	-0.920	1.040	100.560	-2.400	1.400																			1580055783.0	11.61	21.50
26/01/2020 16:23:04	26012020	260120	162304	100.330	12.254658	-56.447152	100.260	0.110	-0.310	0.790	100.280	-2.000	1.200																			1580055784.0	11.55	21.39
26/01/2020 16:23:05	26012020	260120	162305	100.210	12.254650	-56.447100	100.380	-0.200	0.410	0.600	100.210	-1.200	1.000																			1580055785.0	11.27	20.87
26/01/2020 16:23:06	26012020	260120	162306	100.350	12.254640	-56.447050	100.690	-0.570	0.780	0.430	100.410	-0.700	0.900																			1580055786.0	10.96	20.30
26/01/2020 16:23:07	26012020	260120	162307	100.690	12.254628	-56.447000	101.030	-0.620	0.470	0.300	100.760	-0.700	0.700																			1580055787.0	10.74	19.89
26/01/2020 16:23:08	26012020	260120	162308	101.010	12.254617	-56.446947	101.240	-0.230	-0.220	0.390	101.060	-1.400	0.700																			1580055788.0	10.97	20.32
26/01/2020 16:23:09	26012020	260120	162309	101.200	12.254605	-56.446892	101.310	0.180	-0.530	0.580	101.220	-1.900	0.900																			1580055789.0	11.57	21.43
26/01/2020 16:23:10	26012020	260120	162310	101.260	12.254593	-56.446840	101.250	0.280	-0.320	0.660	101.250	-1.800	1.000																			1580055790.0	11.86	21.96
26/01/2020 16:23:11	26012020	260120	162311	101.200	12.254583	-56.446790	101.150	0.190	-0.140	0.550	101.180	-1.600	1.000																			1580055791.0	11.26	20.85
26/01/2020 16:23:12	26012020	260120	162312	101.130	12.254575	-56.446740	101.140	0.170	-0.380	0.290	101.120	-1.700	0.700																			1580055792.0	10.61	19.65
26/01/2020 16:23:13	26012020	260120	162313	101.120	12.254567	-56.446687	101.030	0.170	-0.640	0.180	101.110	-2.000	0.600																			1580055793.0	10.78	19.96
26/01/2020 16:23:14	26012020	260120	162314	101.000	12.254557	-56.446635	100.790	0.070	-0.490	0.310	100.960	-2.000	0.600																			1580055794.0	11.32	20.96
26/01/2020 16:23:15	26012020	260120	162315	100.760	12.254547	-56.446585	100.640	-0.080	-0.140	0.520	100.710	-1.600	0.800																			1580055795.0	11.34	21.00
26/01/2020 16:23:16	26012020	260120	162316	100.600	12.254535	-56.446535	100.630	-0.110	-0.150	0.630	100.590	-1.500	1.000																			1580055796.0	10.89	20.17
26/01/2020 16:23:17	26012020	260120	162317	100.590	12.254523	-56.446483	100.670	0.010	-0.510	0.530	100.600	-1.800	0.900																			1580055797.0	10.77	19.95
26/01/2020 16:23:18	26012020	260120	162318	100.650	12.254513	-56.446428	100.710	0.110	-0.570	0.470	100.660	-2.000	0.800																			1580055798.0	11.29	20.91
26/01/2020 16:23:19	26012020	260120	162319	100.690	12.254502	-56.446377	100.750	0.030	-0.170	0.510	100.700	-1.700	0.900																			1580055799.0	11.68	21.63
26/01/2020 16:23:20	26012020	260120	162320	100.730	12.254492	-56.446327	100.830	-0.140	0.210	0.450	100.750	-1.300	0.900																			1580055800.0	11.27	20.87
26/01/2020 16:23:21	26012020	260120	162321	100.820	12.254482	-56.446277	100.910	-0.240	0.130	0.310	100.830	-1.200	0.700																			1580055801.0	10.75	19.91
26/01/2020 16:23:22	26012020	260120	162322	100.890	12.254473	-56.446225	100.900	-0.200	-0.270	0.180	100.890	-1.500	0.600																			1580055802.0	10.80	20.00
26/01/2020 16:23:23	26012020	260120	162323	100.890	12.254463	-56.446170	100.860	-0.090	-0.530	0.150	100.880	-1.900	0.500																			1580055803.0	11.25	20.84
26/01/2020 16:23:24	26012020	260120	162324	100.850	12.254453	-56.446118	100.840	0.000	-0.500	0.140	100.840	-1.900	0.500																			1580055804.0	11.54	21.37
26/01/2020 16:23:25	26012020	260120	162325	100.840	12.254442	-56.446067	100.780	0.100	-0.440	0.220	100.830	-1.800	0.500																			1580055805.0	11.34	21.00
26/01/2020 16:23:26	26012020	260120	162326	100.770	12.254432	-56.446015	100.640	0.210	-0.420	0.290	100.740	-1.800	0.700																			1580055806.0	11.07	20.50
26/01/2020 16:23:27	26012020	260120	162327	100.610	12.254422	-56.445963	100.570	0.240	-0.320	0.260	100.590	-1.800	0.600																			1580055807.0	11.17	20.69
26/01/2020 16:23:28	26012020	260120	162328	100.540	12.254413	-56.445910	100.650	0.090	-0.040	0.310	100.550	-1.600	0.600																			1580055808.0	11.30	20.93
26/01/2020 16:23:29	26012020	260120	162329	100.640	12.254403	-56.445860	100.830	-0.230	0.340	0.350	100.680	-1.200	0.700																			1580055809.0	11.24	20.82
26/01/2020 16:23:30	26012020	260120	162330	100.810	12.254392	-56.445810	100.900	-0.470	0.400	0.360	100.840	-1.000	0.700																			1580055810.0	10.97	20.32
26/01/2020 16:23:31	26012020	260120	162331	100.890	12.254382	-56.445758	100.970	-0.390	-0.090	0.420	100.890	-1.300	0.800																			1580055811.0	10.74	19.89
26/01/2020 16:23:32	26012020	260120	162332	100.940	12.254368	-56.445705	101.020	-0.070	-0.720	0.540	100.960	-1.900	0.900																			1580055812.0	11.01	20.39
26/01/2020 16:23:33	26012020	260120	162333	100.990	12.254357	-56.445652	100.970	0.210	-0.910	0.540	100.990	-2.300	0.900																			1580055813.0	11.59	21.46
26/01/2020 16:23:34	26012020	260120	162334	100.930	12.254345	-56.445600	100.780	0.290	-0.630	0.500	100.910	-2.100	0.900																			1580055814.0	11.68	21.63
26/01/2020 16:23:35	26012020	260120	162335	100.750	12.254337	-56.445550	100.590	0.280	-0.300	0.450	100.710	-1.800	0.800																			1580055815.0	11.19	20.72
26/01/2020 16:23:36	26012020	260120	162336	100.570	12.254328	-56.445500	100.520	0.240	-0.250	0.310	100.550	-1.600	0.700																			1580055816.0	10.79	19.98
26/01/2020 16:23:37	26012020	260120	162337	100.510	12.254320	-56.445447	100.530	0.140	-0.350	0.210	100.510	-1.700	0.600																			1580055817.0	10.90	20.19
26/01/2020 16:23:38	26012020	260120	162338	100.530	12.254310	-56.445393	100.550	-0.060	-0.220	0.260	100.540	-1.700	0.600																			1580055818.0	11.31	20.95
26/01/2020 16:23:39	26012020	260120	162339	100.550	12.254300	-56.445342	100.600	-0.250	0.070	0.560	100.560	-1.400	0.800																			1580055819.0	11.46	21.22
26/01/2020 16:23:40	26012020	260120	162340	100.590	12.254288	-56.445292	100.700	-0.290	0.070	0.840	100.610	-1.300	1.100																			1580055820.0	11.13	20.61
26/01/2020 16:23:41	26012020	260120	162341	100.680	12.254277	-56.445238	100.780	-0.190	-0.210	0.860	100.700	-1.500	1.200																			1580055821.0	10.97	20.32
26/01/2020 16:23:42	26012020	260120	162342	100.760	12.254265	-56.445185	100.890	-0.100	-0.310	0.680	100.770	-1.700	1.100																			1580055822.0	11.32	20.96
26/01/2020 16:23:43	26012020	260120	162343	100.890	12.254255	-56.445133	101.110	-0.110	-0.120	0.360	100.930	-1.600	0.800																			1580055823.0	11.56	21.41
26/01/2020 16:23:44	26012020	260120	162344	101.120	12.254247	-56.445083	101.320	-0.120	-0.110	0.170	101.180	-1.500	0.600																			1580055824.0	11.22	20.78
26/01/2020 16:23:45	26012020	260120	162345	101.330	12.254237	-56.445032	101.350	0.040	-0.450	0.280	101.340	-1.700	0.600																			1580055825.0	10.86	20.11
26/01/2020 16:23:46	26012020	260120	162346	101.330	12.254225	-56.444978	101.240	0.220	-0.590	0.430	101.320	-2.000	0.800																			1580055826.0	11.13	20.61
26/01/2020 16:23:47	26012020	260120	162347	101.230	12.254215	-56.444927	101.190	0.200	-0.260	0.360	101.210	-1.800	0.800																			1580055827.0	11.55	21.39
26/01/2020 16:23:48	26012020	260120	162348	101.190	12.254205	-56.444877	101.210	0.080	0.020	0.100	101.200	-1.400	0.600																			1580055828.0	11.27	20.87
26/01/2020 16:23:49	26012020	260120	162349	101.230	12.254197	-56.444825	101.250	0.090	-0.200	-0.100	101.240	-1.500	0.300																			1580055829.0	10.73	19.87
26/01/2020 16:23:50	26012020	260120	162350	101.250	12.254188	-56.444772	101.190	0.250	-0.640	-0.110	101.250	-1.900	0.200																			1580055830.0	10.87	20.13
26/01/2020 16:23:51	26012020	260120	162351	101.200	12.254177	-56.444717	101.160	0.290	-0.580	0.120	101.180	-2.100	0.400																			1580055831.0	11.49	21.28
26/01/2020 16:23:52	26012020	260120	162352	101.160	12.254167	-56.444665	101.220	0.030	-0.070	0.360	101.170	-1.700	0.700																			1580055832.0	11.74	21.74
26/01/2020 16:23:53	26012020	260120	162353	101.240	12.254155	-56.444617	101.380	-0.310	0.190	0.430	101.270	-1.200	0.800																			1580055833.0	11.14	20.63
26/01/2020 16:23:54	26012020	260120	162354	101.420	12.254143	-56.444567	101.490	-0.420	-0.110	0.420	101.450	-1.400	0.800																			1580055834.0	10.67	19.76
26/01/2020 16:23:55	26012020	260120	162355	101.510	12.254132	-56.444513	101.450	-0.290	-0.460	0.420	101.510	-1.800	0.800																			1580055835.0	10.97	20.32
26/01/2020 16:23:56	26012020	260120	162356	101.470	12.254120	-56.444460	101.400	-0.150	-0.380	0.380	101.450	-1.900	0.800																			1580055836.0	11.61	21.50
26/01/2020 16:23:57	26012020	260120	162357	101.420	12.254108	-56.444408	101.430	-0.050	-0.160	0.190	101.420	-1.600	0.600																			1580055837.0	11.58	21.45
26/01/2020 16:23:58	26012020	260120	162358	101.450	12.254098	-56.444358	101.500	0.110	-0.240	-0.100	101.460	-1.600	0.400																			1580055838.0	11.04	20.45
26/01/2020 16:23:59	26012020	260120	162359	101.510	12.254088	-56.444305	101.490	0.310	-0.470	-0.350	101.520	-1.800	0.100	1015.50	26.40	26.50	19.00	19.00	954.00	63.00	63.00	369.00	29.50	348.00	8.90	69.00	3.50	68972	3180.00	27.60	27.50	1580055839.0	10.95	20.28
26/01/2020 16:24:00	26012020	260120	162400	101.510	12.254080	-56.444252	101.440	0.350	-0.340	-0.300	101.500	-1.800	0.000																			1580055840.0	11.37	21.06
26/01/2020 16:24:01	26012020	260120	162401	101.460	12.254070	-56.444200	101.470	0.130	0.100	0.030	101.460	-1.400	0.300																			1580055841.0	11.52	21.34
26/01/2020 16:24:02	26012020	260120	162402	101.490	12.254058	-56.444150	101.570	-0.190	0.240	0.310	101.510	-1.100	0.600																			1580055842.0	11.03	20.43
26/01/2020 16:24:03	26012020	260120	162403	101.590	12.254047	-56.444100	101.580	-0.290	-0.220	0.570	101.600	-1.400	0.800																			1580055843.0	10.66	19.74
26/01/2020 16:24:04	26012020	260120	162404	101.590	12.254035	-56.444047	101.460	-0.110	-0.780	0.750	101.570	-2.000	1.000																			1580055844.0	10.98	20.33
26/01/2020 16:24:05	26012020	260120	162405	101.450	12.254022	-56.443993	101.240	0.150	-0.930	0.890	101.410	-2.300	1.200																			1580055845.0	11.64	21.56
26/01/2020 16:24:06	26012020	260120	162406	101.220	12.254008	-56.443940	101.060	0.280	-0.670	0.830	101.170	-2.200	1.200																			1580055846.0	11.75	21.76
26/01/2020 16:24:07	26012020	260120	162407	101.050	12.253998	-56.443888	101.060	0.220	-0.210	0.430	101.030	-1.800	1.000																			1580055847.0	11.40	21.11
26/01/2020 16:24:08	26012020	260120	162408	101.080	12.253990	-56.443838	101.300	-0.020	0.320	0.020	101.120	-1.300	0.500																			1580055848.0	11.11	20.58
26/01/2020 16:24:09	26012020	260120	162409	101.330	12.253982	-56.443787	101.550	-0.300	0.660	-0.090	101.390	-0.800	0.300																			1580055849.0	10.96	20.30
26/01/2020 16:24:10	26012020	260120	162410	101.580	12.253970	-56.443738	101.700	-0.390	0.490	0.060	101.620	-0.800	0.400																			1580055850.0	10.79	19.98
26/01/2020 16:24:11	26012020	260120	162411	101.720	12.253958	-56.443687	101.750	-0.100	-0.290	0.240	101.730	-1.400	0.500																			1580055851.0	10.82	20.04
26/01/2020 16:24:12	26012020	260120	162412	101.770	12.253945	-56.443632	101.780	0.420	-1.150	0.340	101.770	-2.300	0.700																			1580055852.0	11.23	20.80
26/01/2020 16:24:13	26012020	260120	162413	101.790	12.253935	-56.443575	101.810	0.630	-1.190	0.310	101.790	-2.700	0.700																			1580055853.0	11.86	21.96
26/01/2020 16:24:14	26012020	260120	162414	101.820	12.253925	-56.443525	101.760	0.290	-0.390	0.300	101.820	-2.100	0.700																			1580055854.0	11.98	22.19
26/01/2020 16:24:15	26012020	260120	162415	101.770	12.253917	-56.443477	101.620	-0.240	0.280	0.360	101.750	-1.300	0.700																			1580055855.0	11.05	20.46
26/01/2020 16:24:16	26012020	260120	162416	101.620	12.253905	-56.443428	101.470	-0.470	0.100	0.370	101.590	-1.100	0.700																			1580055856.0	10.21	18.91
26/01/2020 16:24:17	26012020	260120	162417	101.460	12.253893	-56.443375	101.360	-0.350	-0.530	0.340	101.440	-1.700	0.700																			1580055857.0	10.53	19.50
26/01/2020 16:24:18	26012020	260120	162418	101.380	12.253882	-56.443320	101.320	-0.150	-0.740	0.280	101.370	-2.100	0.700																			1580055858.0	11.56	21.41
26/01/2020 16:24:19	26012020	260120	162419	101.330	12.253868	-56.443267	101.290	-0.070	-0.360	0.290	101.330	-1.900	0.600																			1580055859.0	12.03	22.28
26/01/2020 16:24:20	26012020	260120	162420	101.290	12.253857	-56.443217	101.260	-0.050	0.170	0.260	101.280	-1.400	0.600																			1580055860.0	11.51	21.32
26/01/2020 16:24:21	26012020	260120	162421	101.280	12.253845	-56.443167	101.400	0.020	0.390	0.060	101.290	-1.000	0.500																			1580055861.0	10.89	20.17
26/01/2020 16:24:22	26012020	260120	162422	101.430	12.253835	-56.443117	101.630	0.240	0.170	-0.150	101.480	-1.100	0.300																			1580055862.0	10.76	19.93
26/01/2020 16:24:23	26012020	260120	162423	101.680	12.253827	-56.443063	101.860	0.540	-0.270	-0.260	101.720	-1.500	0.100																			1580055863.0	11.01	20.39
26/01/2020 16:24:24	26012020	260120	162424	101.900	12.253817	-56.443008	102.080	0.660	-0.480	-0.110	101.950	-1.800	0.200																			1580055864.0	11.41	21.13
26/01/2020 16:24:25	26012020	260120	162425	102.120	12.253807	-56.442957	102.190	0.430	-0.370	0.340	102.150	-1.800	0.500																			1580055865.0	11.54	21.37
26/01/2020 16:24:26	26012020	260120	162426	102.200	12.253795	-56.442908	102.100	-0.030	-0.210	0.730	102.190	-1.600	1.000																			1580055866.0	11.19	20.72
26/01/2020 16:24:27	26012020	260120	162427	102.110	12.253783	-56.442858	101.950	-0.410	-0.290	0.970	102.080	-1.600	1.300																			1580055867.0	10.78	19.96
26/01/2020 16:24:28	26012020	260120	162428	101.960	12.253770	-56.442807	101.750	-0.540	-0.560	1.060	101.920	-1.800	1.400																			1580055868.0	10.78	19.96
26/01/2020 16:24:29	26012020	260120	162429	101.750	12.253757	-56.442755	101.460	-0.410	-0.840	0.940	101.690	-2.100	1.400																			1580055869.0	11.10	20.56
26/01/2020 16:24:30	26012020	260120	162430	101.440	12.253745	-56.442702	101.150	-0.160	-0.930	0.840	101.380	-2.300	1.200																			1580055870.0	11.40	21.11
26/01/2020 16:24:31	26012020	260120	162431	101.150	12.253733	-56.442648	100.990	-0.000	-0.690	0.660	101.100	-2.200	1.100																			1580055871.0	11.55	21.39
26/01/2020 16:24:32	26012020	260120	162432	101.000	12.253722	-56.442597	101.020	-0.010	-0.160	0.330	101.000	-1.800	0.800																			1580055872.0	11.54	21.37
26/01/2020 16:24:33	26012020	260120	162433	101.050	12.253712	-56.442545	101.130	-0.020	0.330	0.160	101.070	-1.200	0.600																			1580055873.0	11.28	20.89
26/01/2020 16:24:34	26012020	260120	162434	101.160	12.253700	-56.442495	101.280	0.060	0.590	0.080	101.190	-0.900	0.500																			1580055874.0	11.02	20.41
26/01/2020 16:24:35	26012020	260120	162435	101.320	12.253690	-56.442443	101.510	0.220	0.550	-0.020	101.360	-0.800	0.400																			1580055875.0	11.04	20.45
26/01/2020 16:24:36	26012020	260120	162436	101.570	12.253680	-56.442392	101.790	0.360	0.240	0.010	101.620	-1.000	0.300																			1580055876.0	11.11	20.58
26/01/2020 16:24:37	26012020	260120	162437	101.840	12.253670	-56.442338	101.930	0.360	-0.150	0.290	101.880	-1.400	0.500																			1580055877.0	11.23	20.80
26/01/2020 16:24:38	26012020	260120	162438	101.960	12.253660	-56.442287	101.910	0.150	-0.370	0.660	101.960	-1.700	0.900																			1580055878.0	11.34	21.00
26/01/2020 16:24:39	26012020	260120	162439	101.930	12.253648	-56.442237	101.860	-0.110	-0.530	0.890	101.920	-1.900	1.200																			1580055879.0	11.21	20.76
26/01/2020 16:24:40	26012020	260120	162440	101.870	12.253637	-56.442187	101.790	-0.150	-0.820	0.920	101.860	-2.100	1.300																			1580055880.0	10.92	20.22
26/01/2020 16:24:41	26012020	260120	162441	101.780	12.253625	-56.442133	101.560	0.050	-1.160	0.870	101.740	-2.400	1.200																			1580055881.0	10.90	20.19
26/01/2020 16:24:42	26012020	260120	162442	101.540	12.253615	-56.442080	101.210	0.240	-1.230	0.830	101.470	-2.600	1.200																			1580055882.0	11.26	20.85
26/01/2020 16:24:43	26012020	260120	162443	101.180	12.253603	-56.442028	100.860	0.230	-0.870	0.800	101.100	-2.400	1.200																			1580055883.0	11.53	21.35
26/01/2020 16:24:44	26012020	260120	162444	100.830	12.253592	-56.441977	100.690	0.010	-0.180	0.740	100.790	-1.800	1.100																			1580055884.0	11.46	21.22
26/01/2020 16:24:45	26012020	260120	162445	100.680	12.253582	-56.441925	100.700	-0.350	0.500	0.600	100.670	-1.100	1.000																			1580055885.0	11.19	20.72
26/01/2020 16:24:46	26012020	260120	162446	100.710	12.253572	-56.441875	100.800	-0.600	0.730	0.330	100.720	-0.700	0.800																			1580055886.0	10.94	20.26
26/01/2020 16:24:47	26012020	260120	162447	100.830	12.253560	-56.441823	101.020	-0.530	0.370	0.130	100.870	-0.900	0.500																			1580055887.0	10.88	20.15
26/01/2020 16:24:48	26012020	260120	162448	101.060	12.253548	-56.441768	101.300	-0.200	-0.120	0.150	101.120	-1.400	0.500																			1580055888.0	11.25	20.84
26/01/2020 16:24:49	26012020	260120	162449	101.340	12.253537	-56.441715	101.520	0.050	-0.170	0.200	101.390	-1.600	0.600																			1580055889.0	11.74	21.74
26/01/2020 16:24:50	26012020	260120	162450	101.550	12.253525	-56.441663	101.650	0.060	0.130	0.130	101.580	-1.400	0.500																			1580055890.0	11.70	21.67
26/01/2020 16:24:51	26012020	260120	162451	101.680	12.253517	-56.441615	101.790	0.020	0.160	0.040	101.710	-1.200	0.400																			1580055891.0	11.01	20.39
26/01/2020 16:24:52	26012020	260120	162452	101.820	12.253508	-56.441565	101.870	0.210	-0.430	-0.020	101.840	-1.600	0.400																			1580055892.0	10.49	19.43
26/01/2020 16:24:53	26012020	260120	162453	101.880	12.253498	-56.441512	101.750	0.560	-1.180	0.050	101.870	-2.300	0.400																			1580055893.0	10.79	19.98
26/01/2020 16:24:54	26012020	260120	162454	101.740	12.253488	-56.441457	101.420	0.790	-1.430	0.290	101.680	-2.800	0.500																			1580055894.0	11.51	21.32
26/01/2020 16:24:55	26012020	260120	162455	101.400	12.253477	-56.441403	101.100	0.670	-0.980	0.550	101.320	-2.600	0.800																			1580055895.0	11.77	21.80
26/01/2020 16:24:56	26012020	260120	162456	101.080	12.253467	-56.441353	100.970	0.210	-0.260	0.670	101.040	-1.900	1.000																			1580055896.0	11.39	21.09
26/01/2020 16:24:57	26012020	260120	162457	100.960	12.253457	-56.441305	100.920	-0.300	0.210	0.650	100.950	-1.300	1.000																			1580055897.0	10.84	20.08
26/01/2020 16:24:58	26012020	260120	162458	100.910	12.253447	-56.441253	100.870	-0.630	0.290	0.600	100.900	-1.100	1.000																			1580055898.0	10.74	19.89
26/01/2020 16:24:59	26012020	260120	162459	100.850	12.253433	-56.441200	100.850	-0.710	0.170	0.600	100.840	-1.200	0.900	1015.50	26.40	26.50	19.00	19.10	952.00	63.00	63.00	369.00	29.50	348.00	8.90	68.00	3.50	68892	3289.00	27.60	27.60	1580055899.0	11.09	20.54
26/01/2020 16:25:00	26012020	260120	162500	100.840	12.253420	-56.441147	100.960	-0.670	0.150	0.590	100.860	-1.300	0.900																			1580055900.0	11.46	21.22
26/01/2020 16:25:01	26012020	260120	162501	100.970	12.253408	-56.441095	101.180	-0.650	0.250	0.420	101.010	-1.200	0.800																			1580055901.0	11.57	21.43
26/01/2020 16:25:02	26012020	260120	162502	101.210	12.253397	-56.441045	101.380	-0.480	0.120	0.120	101.250	-1.200	0.600																			1580055902.0	11.26	20.85
26/01/2020 16:25:03	26012020	260120	162503	101.410	12.253387	-56.440993	101.470	-0.000	-0.420	-0.030	101.440	-1.600	0.300																			1580055903.0	10.92	20.22
26/01/2020 16:25:04	26012020	260120	162504	101.480	12.253375	-56.440940	101.380	0.630	-1.000	0.060	101.470	-2.200	0.400																			1580055904.0	11.13	20.61
26/01/2020 16:25:05	26012020	260120	162505	101.380	12.253365	-56.440885	101.200	1.060	-1.070	0.160	101.340	-2.500	0.500																			1580055905.0	11.58	21.45
26/01/2020 16:25:06	26012020	260120	162506	101.200	12.253357	-56.440833	101.100	0.960	-0.490	0.220	101.160	-2.100	0.600																			1580055906.0	11.67	21.61
26/01/2020 16:25:07	26012020	260120	162507	101.110	12.253350	-56.440783	101.140	0.400	0.170	0.230	101.110	-1.400	0.600																			1580055907.0	11.21	20.76
26/01/2020 16:25:08	26012020	260120	162508	101.160	12.253340	-56.440735	101.200	-0.160	0.260	0.290	101.180	-1.100	0.600																			1580055908.0	10.58	19.59
26/01/2020 16:25:09	26012020	260120	162509	101.230	12.253330	-56.440683	101.150	-0.400	-0.200	0.570	101.230	-1.400	0.800																			1580055909.0	10.54	19.52
26/01/2020 16:25:10	26012020	260120	162510	101.160	12.253315	-56.440628	101.050	-0.380	-0.590	0.840	101.140	-1.900	1.100																			1580055910.0	11.23	20.80
26/01/2020 16:25:11	26012020	260120	162511	101.050	12.253302	-56.440575	101.000	-0.330	-0.450	0.790	101.040	-2.000	1.200																			1580055911.0	11.79	21.84
26/01/2020 16:25:12	26012020	260120	162512	101.000	12.253290	-56.440525	101.020	-0.400	0.050	0.590	101.000	-1.500	1.000																			1580055912.0	11.69	21.65
26/01/2020 16:25:13	26012020	260120	162513	101.020	12.253280	-56.440475	101.110	-0.450	0.300	0.360	101.030	-1.100	0.800																			1580055913.0	11.08	20.52
26/01/2020 16:25:14	26012020	260120	162514	101.120	12.253270	-56.440425	101.180	-0.230	-0.080	0.170	101.150	-1.300	0.600																			1580055914.0	10.64	19.71
26/01/2020 16:25:15	26012020	260120	162515	101.200	12.253258	-56.440372	101.130	0.170	-0.630	0.130	101.200	-1.900	0.500																			1580055915.0	10.92	20.22
26/01/2020 16:25:16	26012020	260120	162516	101.140	12.253248	-56.440317	101.030	0.430	-0.760	0.250	101.120	-2.200	0.500																			1580055916.0	11.58	21.45
26/01/2020 16:25:17	26012020	260120	162517	101.040	12.253238	-56.440265	100.920	0.420	-0.480	0.500	101.020	-2.000	0.800																			1580055917.0	11.72	21.71
26/01/2020 16:25:18	26012020	260120	162518	100.920	12.253227	-56.440215	100.770	0.290	-0.270	0.660	100.890	-1.700	1.000																			1580055918.0	11.23	20.80
26/01/2020 16:25:19	26012020	260120	162519	100.750	12.253217	-56.440163	100.580	0.190	-0.310	0.800	100.710	-1.700	1.100																			1580055919.0	10.87	20.13
26/01/2020 16:25:20	26012020	260120	162520	100.560	12.253207	-56.440110	100.500	0.100	-0.300	0.880	100.530	-1.700	1.200																			1580055920.0	11.10	20.56
26/01/2020 16:25:21	26012020	260120	162521	100.500	12.253197	-56.440058	100.670	-0.090	-0.030	0.780	100.530	-1.600	1.200																			1580055921.0	11.44	21.19
26/01/2020 16:25:22	26012020	260120	162522	100.680	12.253185	-56.440007	100.870	-0.320	0.240	0.660	100.730	-1.200	1.100																			1580055922.0	11.37	21.06
26/01/2020 16:25:23	26012020	260120	162523	100.870	12.253173	-56.439957	100.930	-0.320	0.120	0.480	100.880	-1.200	0.900																			1580055923.0	10.96	20.30
26/01/2020 16:25:24	26012020	260120	162524	100.930	12.253163	-56.439903	101.000	-0.110	-0.200	0.260	100.930	-1.300	0.800																			1580055924.0	10.92	20.22
26/01/2020 16:25:25	26012020	260120	162525	101.010	12.253153	-56.439850	101.120	0.080	-0.400	0.190	101.040	-1.700	0.600																			1580055925.0	11.33	20.98
26/01/2020 16:25:26	26012020	260120	162526	101.140	12.253143	-56.439798	101.180	0.100	-0.430	0.270	101.150	-1.800	0.600																			1580055926.0	11.45	21.21
26/01/2020 16:25:27	26012020	260120	162527	101.180	12.253133	-56.439747	101.130	-0.020	-0.310	0.500	101.180	-1.800	0.800																			1580055927.0	11.25	20.84
26/01/2020 16:25:28	26012020	260120	162528	101.110	12.253122	-56.439697	100.980	-0.140	-0.310	0.790	101.090	-1.700	1.100																			1580055928.0	11.04	20.45
26/01/2020 16:25:29	26012020	260120	162529	100.940	12.253110	-56.439647	100.740	-0.060	-0.630	0.880	100.890	-1.900	1.200																			1580055929.0	10.89	20.17
26/01/2020 16:25:30	26012020	260120	162530	100.690	12.253100	-56.439592	100.500	0.190	-0.940	0.840	100.640	-2.300	1.200																			1580055930.0	11.13	20.61
26/01/2020 16:25:31	26012020	260120	162531	100.480	12.253088	-56.439538	100.410	0.360	-0.730	0.690	100.450	-2.300	1.100																			1580055931.0	11.63	21.54
26/01/2020 16:25:32	26012020	260120	162532	100.390	12.253078	-56.439487	100.420	0.260	-0.060	0.420	100.380	-1.700	0.900																			1580055932.0	11.71	21.69
26/01/2020 16:25:33	26012020	260120	162533	100.420	12.253070	-56.439435	100.560	-0.030	0.560	0.190	100.440	-1.000	0.600																			1580055933.0	11.22	20.78
26/01/2020 16:25:34	26012020	260120	162534	100.580	12.253062	-56.439387	100.780	-0.270	0.640	0.130	100.620	-0.700	0.500																			1580055934.0	10.75	19.91
26/01/2020 16:25:35	26012020	260120	162535	100.810	12.253052	-56.439333	100.930	-0.210	0.160	0.250	100.860	-1.000	0.500																			1580055935.0	10.73	19.87
26/01/2020 16:25:36	26012020	260120	162536	100.950	12.253040	-56.439280	100.940	0.100	-0.510	0.460	100.960	-1.700	0.800																			1580055936.0	11.15	20.65
26/01/2020 16:25:37	26012020	260120	162537	100.970	12.253028	-56.439225	100.960	0.280	-0.830	0.670	100.970	-2.200	1.000																			1580055937.0	11.64	21.56
26/01/2020 16:25:38	26012020	260120	162538	100.980	12.253018	-56.439173	101.030	0.050	-0.580	0.860	100.990	-2.100	1.200																			1580055938.0	11.77	21.80
26/01/2020 16:25:39	26012020	260120	162539	101.040	12.253008	-56.439123	101.040	-0.450	-0.060	0.880	101.050	-1.600	1.200																			1580055939.0	11.38	21.08
26/01/2020 16:25:40	26012020	260120	162540	101.040	12.252997	-56.439075	100.920	-0.750	0.120	0.860	101.030	-1.300	1.200																			1580055940.0	10.72	19.85
26/01/2020 16:25:41	26012020	260120	162541	100.910	12.252985	-56.439025	100.730	-0.460	-0.400	0.780	100.870	-1.600	1.200																			1580055941.0	10.44	19.33
26/01/2020 16:25:42	26012020	260120	162542	100.710	12.252973	-56.438970	100.570	0.200	-1.100	0.490	100.670	-2.300	1.000																			1580055942.0	10.94	20.26
26/01/2020 16:25:43	26012020	260120	162543	100.570	12.252963	-56.438915	100.550	0.650	-1.060	0.160	100.560	-2.600	0.600																			1580055943.0	11.87	21.98
26/01/2020 16:25:44	26012020	260120	162544	100.550	12.252953	-56.438862	100.600	0.610	-0.170	-0.010	100.550	-2.000	0.400																			1580055944.0	12.11	22.43
26/01/2020 16:25:45	26012020	260120	162545	100.620	12.252945	-56.438813	100.800	0.250	0.700	-0.130	100.660	-1.000	0.300																			1580055945.0	11.31	20.95
26/01/2020 16:25:46	26012020	260120	162546	100.840	12.252938	-56.438765	101.060	-0.020	0.780	-0.110	100.890	-0.600	0.200																			1580055946.0	10.40	19.26
26/01/2020 16:25:47	26012020	260120	162547	101.090	12.252928	-56.438712	101.310	-0.110	0.270	0.120	101.150	-0.900	0.400																			1580055947.0	10.44	19.33
26/01/2020 16:25:48	26012020	260120	162548	101.330	12.252918	-56.438658	101.430	-0.140	-0.310	0.490	101.370	-1.500	0.700																			1580055948.0	11.16	20.67
26/01/2020 16:25:49	26012020	260120	162549	101.440	12.252905	-56.438607	101.370	-0.160	-0.750	0.920	101.440	-2.000	1.100																			1580055949.0	11.56	21.41
26/01/2020 16:25:50	26012020	260120	162550	101.350	12.252892	-56.438555	101.100	-0.110	-1.030	1.180	101.310	-2.400	1.500																			1580055950.0	11.48	21.26
26/01/2020 16:25:51	26012020	260120	162551	101.070	12.252880	-56.438502	100.810	0.020	-1.060	1.040	101.020	-2.500	1.500																			1580055951.0	11.34	21.00
26/01/2020 16:25:52	26012020	260120	162552	100.790	12.252870	-56.438450	100.690	0.080	-0.610	0.740	100.750	-2.200	1.200																			1580055952.0	11.32	20.96
26/01/2020 16:25:53	26012020	260120	162553	100.690	12.252862	-56.438398	100.770	-0.090	0.110	0.490	100.700	-1.500	0.900																			1580055953.0	11.30	20.93
26/01/2020 16:25:54	26012020	260120	162554	100.780	12.252852	-56.438350	100.850	-0.320	0.390	0.370	100.810	-1.000	0.800																			1580055954.0	10.87	20.13
26/01/2020 16:25:55	26012020	260120	162555	100.860	12.252842	-56.438298	100.830	-0.300	0.010	0.370	100.860	-1.200	0.700																			1580055955.0	10.59	19.61
26/01/2020 16:25:56	26012020	260120	162556	100.830	12.252828	-56.438245	100.830	-0.020	-0.420	0.440	100.830	-1.700	0.800																			1580055956.0	11.10	20.56
26/01/2020 16:25:57	26012020	260120	162557	100.840	12.252817	-56.438190	100.940	0.200	-0.330	0.410	100.860	-1.800	0.800																			1580055957.0	11.78	21.82
26/01/2020 16:25:58	26012020	260120	162558	100.970	12.252807	-56.438138	101.110	0.140	0.110	0.250	101.000	-1.500	0.700																			1580055958.0	11.72	21.71
26/01/2020 16:25:59	26012020	260120	162559	101.150	12.252798	-56.438090	101.240	-0.030	0.310	0.160	101.180	-1.100	0.600	1015.40	26.30	26.40	19.30	19.30	951.00	65.00	65.00	370.00	29.50	346.00	8.70	62.00	3.40	68765	3131.00	27.60	27.60	1580055959.0	11.07	20.50
26/01/2020 16:26:00	26012020	260120	162600	101.270	12.252790	-56.438040	101.270	-0.020	-0.050	0.070	101.280	-1.300	0.500																			1580055960.0	10.60	19.63
26/01/2020 16:26:01	26012020	260120	162601	101.320	12.252780	-56.437987	101.320	0.190	-0.590	0.000	101.330	-1.800	0.400																			1580055961.0	10.81	20.02
26/01/2020 16:26:02	26012020	260120	162602	101.370	12.252770	-56.437932	101.330	0.310	-0.800	0.080	101.380	-2.200	0.400																			1580055962.0	11.42	21.15
26/01/2020 16:26:03	26012020	260120	162603	101.360	12.252758	-56.437880	101.180	0.250	-0.690	0.200	101.330	-2.100	0.500																			1580055963.0	11.57	21.43
26/01/2020 16:26:04	26012020	260120	162604	101.190	12.252748	-56.437830	100.940	0.180	-0.610	0.270	101.150	-2.000	0.600																			1580055964.0	11.21	20.76
26/01/2020 16:26:05	26012020	260120	162605	100.950	12.252738	-56.437778	100.750	0.200	-0.580	0.380	100.900	-2.000	0.700																			1580055965.0	10.98	20.33
26/01/2020 16:26:06	26012020	260120	162606	100.760	12.252728	-56.437725	100.790	0.070	-0.250	0.450	100.750	-1.800	0.800																			1580055966.0	11.22	20.78
26/01/2020 16:26:07	26012020	260120	162607	100.830	12.252718	-56.437673	101.070	-0.380	0.390	0.490	100.880	-1.200	0.800																			1580055967.0	11.46	21.22
26/01/2020 16:26:08	26012020	260120	162608	101.110	12.252705	-56.437625	101.340	-0.840	0.680	0.570	101.180	-0.700	0.900																			1580055968.0	11.06	20.48
26/01/2020 16:26:09	26012020	260120	162609	101.380	12.252692	-56.437575	101.390	-0.840	0.210	0.620	101.400	-0.900	1.000																			1580055969.0	10.59	19.61
26/01/2020 16:26:10	26012020	260120	162610	101.390	12.252678	-56.437522	101.250	-0.320	-0.570	0.580	101.370	-1.700	1.000																			1580055970.0	10.88	20.15
26/01/2020 16:26:11	26012020	260120	162611	101.260	12.252667	-56.437467	101.180	0.290	-0.930	0.330	101.230	-2.300	0.800																			1580055971.0	11.65	21.58
26/01/2020 16:26:12	26012020	260120	162612	101.200	12.252658	-56.437413	101.210	0.600	-0.720	0.050	101.200	-2.300	0.500																			1580055972.0	11.91	22.06
26/01/2020 16:26:13	26012020	260120	162613	101.230	12.252650	-56.437362	101.230	0.510	-0.250	-0.100	101.240	-1.800	0.300																			1580055973.0	11.48	21.26
26/01/2020 16:26:14	26012020	260120	162614	101.260	12.252642	-56.437312	101.210	0.230	0.030	-0.080	101.260	-1.400	0.200																			1580055974.0	10.92	20.22
26/01/2020 16:26:15	26012020	260120	162615	101.230	12.252632	-56.437262	101.210	0.070	0.010	0.240	101.220	-1.400	0.500																			1580055975.0	10.71	19.83
26/01/2020 16:26:16	26012020	260120	162616	101.230	12.252620	-56.437210	101.300	0.080	-0.150	0.520	101.250	-1.500	0.800																			1580055976.0	10.94	20.26
26/01/2020 16:26:17	26012020	260120	162617	101.330	12.252607	-56.437158	101.350	0.150	-0.350	0.600	101.340	-1.700	1.000																			1580055977.0	11.27	20.87
26/01/2020 16:26:18	26012020	260120	162618	101.360	12.252597	-56.437105	101.260	0.130	-0.450	0.610	101.340	-1.800	1.000																			1580055978.0	11.36	21.04
26/01/2020 16:26:19	26012020	260120	162619	101.260	12.252587	-56.437052	101.150	-0.050	-0.270	0.610	101.240	-1.800	1.000																			1580055979.0	11.40	21.11
26/01/2020 16:26:20	26012020	260120	162620	101.170	12.252575	-56.437002	101.200	-0.320	0.080	0.460	101.170	-1.400	0.900																			1580055980.0	11.30	20.93
26/01/2020 16:26:21	26012020	260120	162621	101.240	12.252567	-56.436952	101.320	-0.490	0.090	0.230	101.270	-1.200	0.700																			1580055981.0	10.93	20.24
26/01/2020 16:26:22	26012020	260120	162622	101.360	12.252555	-56.436900	101.330	-0.340	-0.440	0.230	101.380	-1.600	0.600																			1580055982.0	10.72	19.85
26/01/2020 16:26:23	26012020	260120	162623	101.370	12.252542	-56.436847	101.170	-0.020	-0.830	0.470	101.340	-2.200	0.700																			1580055983.0	11.12	20.59
26/01/2020 16:26:24	26012020	260120	162624	101.180	12.252530	-56.436793	100.940	0.130	-0.620	0.650	101.140	-2.100	1.000																			1580055984.0	11.80	21.85
26/01/2020 16:26:25	26012020	260120	162625	100.950	12.252518	-56.436743	100.800	0.110	-0.190	0.550	100.910	-1.700	1.000																			1580055985.0	11.60	21.48
26/01/2020 16:26:26	26012020	260120	162626	100.810	12.252510	-56.436693	100.810	0.130	-0.120	0.260	100.810	-1.500	0.700																			1580055986.0	10.93	20.24
26/01/2020 16:26:27	26012020	260120	162627	100.840	12.252500	-56.436640	100.930	0.260	-0.410	0.070	100.870	-1.700	0.500																			1580055987.0	10.78	19.96
26/01/2020 16:26:28	26012020	260120	162628	100.960	12.252490	-56.436585	100.930	0.270	-0.380	0.230	100.970	-1.900	0.500																			1580055988.0	11.30	20.93
26/01/2020 16:26:29	26012020	260120	162629	100.940	12.252480	-56.436533	100.810	-0.020	0.230	0.450	100.920	-1.400	0.700																			1580055989.0	11.72	21.71
26/01/2020 16:26:30	26012020	260120	162630	100.810	12.252468	-56.436485	100.710	-0.340	0.580	0.580	100.790	-0.900	0.900																			1580055990.0	11.19	20.72
26/01/2020 16:26:31	26012020	260120	162631	100.730	12.252458	-56.436435	100.750	-0.310	0.040	0.510	100.730	-1.100	0.900																			1580055991.0	10.46	19.37
26/01/2020 16:26:32	26012020	260120	162632	100.800	12.252448	-56.436382	100.850	-0.050	-0.750	0.360	100.820	-1.900	0.800																			1580055992.0	10.76	19.93
26/01/2020 16:26:33	26012020	260120	162633	100.900	12.252438	-56.436327	100.890	0.080	-0.800	0.350	100.910	-2.300	0.700																			1580055993.0	11.73	21.72
26/01/2020 16:26:34	26012020	260120	162634	100.930	12.252427	-56.436275	100.910	-0.030	-0.190	0.420	100.930	-1.800	0.800																			1580055994.0	11.88	22.00
26/01/2020 16:26:35	26012020	260120	162635	100.940	12.252417	-56.436228	100.920	-0.060	0.070	0.380	100.950	-1.300	0.800																			1580055995.0	10.97	20.32
26/01/2020 16:26:36	26012020	260120	162636	100.970	12.252407	-56.436177	100.910	0.230	-0.420	0.190	100.970	-1.600	0.600																			1580055996.0	10.31	19.09
26/01/2020 16:26:37	26012020	260120	162637	100.950	12.252398	-56.436123	100.900	0.560	-0.770	0.070	100.950	-2.100	0.400																			1580055997.0	10.89	20.17
26/01/2020 16:26:38	26012020	260120	162638	100.930	12.252390	-56.436068	100.860	0.480	-0.440	0.200	100.930	-2.000	0.500																			1580055998.0	11.77	21.80
26/01/2020 16:26:39	26012020	260120	162639	100.880	12.252380	-56.436018	100.810	0.020	-0.000	0.430	100.870	-1.500	0.700																			1580055999.0	11.53	21.35
26/01/2020 16:26:40	26012020	260120	162640	100.830	12.252370	-56.435970	100.780	-0.460	-0.050	0.730	100.820	-1.400	1.000																			1580056000.0	10.74	19.89
26/01/2020 16:26:41	26012020	260120	162641	100.810	12.252357	-56.435918	100.830	-0.600	-0.340	1.000	100.810	-1.700	1.300																			1580056001.0	10.71	19.83
26/01/2020 16:26:42	26012020	260120	162642	100.850	12.252343	-56.435865	100.880	-0.450	-0.330	1.090	100.870	-1.800	1.400																			1580056002.0	11.29	20.91
26/01/2020 16:26:43	26012020	260120	162643	100.880	12.252330	-56.435813	100.810	-0.200	-0.160	0.940	100.880	-1.600	1.400																			1580056003.0	11.54	21.37
26/01/2020 16:26:44	26012020	260120	162644	100.810	12.252320	-56.435763	100.710	0.080	-0.160	0.550	100.790	-1.500	1.100																			1580056004.0	11.14	20.63
26/01/2020 16:26:45	26012020	260120	162645	100.750	12.252312	-56.435710	100.810	0.240	-0.190	0.120	100.750	-1.600	0.600																			1580056005.0	11.03	20.43
26/01/2020 16:26:46	26012020	260120	162646	100.860	12.252305	-56.435657	101.070	0.250	-0.140	-0.170	100.900	-1.600	0.300																			1580056006.0	11.27	20.87
26/01/2020 16:26:47	26012020	260120	162647	101.120	12.252297	-56.435607	101.280	0.250	-0.130	-0.200	101.170	-1.500	0.100																			1580056007.0	11.22	20.78
26/01/2020 16:26:48	26012020	260120	162648	101.320	12.252288	-56.435555	101.390	0.300	-0.210	0.030	101.340	-1.600	0.300																			1580056008.0	11.04	20.45
26/01/2020 16:26:49	26012020	260120	162649	101.440	12.252277	-56.435503	101.570	0.260	-0.310	0.320	101.480	-1.700	0.600																			1580056009.0	11.08	20.52
26/01/2020 16:26:50	26012020	260120	162650	101.620	12.252265	-56.435452	101.650	0.110	-0.370	0.520	101.650	-1.800	0.800																			1580056010.0	11.17	20.69
26/01/2020 16:26:51	26012020	260120	162651	101.680	12.252253	-56.435400	101.520	-0.050	-0.450	0.620	101.660	-1.800	0.900																			1580056011.0	11.12	20.59
26/01/2020 16:26:52	26012020	260120	162652	101.540	12.252243	-56.435348	101.330	-0.120	-0.490	0.620	101.500	-1.900	1.000																			1580056012.0	11.09	20.54
26/01/2020 16:26:53	26012020	260120	162653	101.370	12.252232	-56.435297	101.280	-0.190	-0.310	0.450	101.340	-1.800	0.900																			1580056013.0	11.17	20.69
26/01/2020 16:26:54	26012020	260120	162654	101.320	12.252223	-56.435247	101.330	-0.300	-0.110	0.190	101.330	-1.600	0.600																			1580056014.0	11.19	20.72
26/01/2020 16:26:55	26012020	260120	162655	101.370	12.252213	-56.435195	101.350	-0.310	-0.220	0.050	101.380	-1.500	0.400																			1580056015.0	10.99	20.35
26/01/2020 16:26:56	26012020	260120	162656	101.390	12.252202	-56.435142	101.330	-0.170	-0.440	0.130	101.390	-1.800	0.400																			1580056016.0	10.99	20.35
26/01/2020 16:26:57	26012020	260120	162657	101.380	12.252188	-56.435090	101.340	0.040	-0.390	0.180	101.380	-1.800	0.500																			1580056017.0	11.39	21.09
26/01/2020 16:26:58	26012020	260120	162658	101.400	12.252178	-56.435038	101.400	0.200	-0.130	0.100	101.410	-1.600	0.500																			1580056018.0	11.49	21.28
26/01/2020 16:26:59	26012020	260120	162659	101.470	12.252168	-56.434987	101.570	0.240	-0.030	-0.000	101.500	-1.400	0.400	1015.50	26.30	26.40	19.30	19.30	947.00	65.00	65.00	370.00	29.50	346.00	8.80	65.00	3.50	68679	3201.00	27.60	27.60	1580056019.0	11.19	20.72
26/01/2020 16:27:00	26012020	260120	162700	101.640	12.252158	-56.434935	101.700	0.180	-0.110	0.010	101.670	-1.500	0.400																			1580056020.0	10.98	20.33
26/01/2020 16:27:01	26012020	260120	162701	101.750	12.252148	-56.434883	101.670	0.020	-0.100	0.130	101.760	-1.500	0.400																			1580056021.0	11.16	20.67
26/01/2020 16:27:02	26012020	260120	162702	101.720	12.252137	-56.434832	101.500	-0.120	-0.080	0.340	101.690	-1.500	0.600																			1580056022.0	11.25	20.84
26/01/2020 16:27:03	26012020	260120	162703	101.540	12.252125	-56.434782	101.310	-0.100	-0.290	0.520	101.500	-1.600	0.800																			1580056023.0	11.06	20.48
26/01/2020 16:27:04	26012020	260120	162704	101.340	12.252113	-56.434728	101.220	0.020	-0.560	0.500	101.320	-1.900	0.900																			1580056024.0	11.05	20.46
26/01/2020 16:27:05	26012020	260120	162705	101.280	12.252103	-56.434675	101.240	0.070	-0.550	0.350	101.280	-2.000	0.800																			1580056025.0	11.37	21.06
26/01/2020 16:27:06	26012020	260120	162706	101.290	12.252093	-56.434623	101.230	-0.020	-0.270	0.260	101.290	-1.800	0.600																			1580056026.0	11.44	21.19
26/01/2020 16:27:07	26012020	260120	162707	101.280	12.252082	-56.434573	101.210	-0.090	-0.070	0.270	101.270	-1.500	0.600																			1580056027.0	11.12	20.59
26/01/2020 16:27:08	26012020	260120	162708	101.250	12.252070	-56.434523	101.150	-0.020	-0.230	0.340	101.250	-1.500	0.700																			1580056028.0	10.85	20.09
26/01/2020 16:27:09	26012020	260120	162709	101.190	12.252058	-56.434470	101.100	0.110	-0.460	0.410	101.170	-1.800	0.700																			1580056029.0	11.02	20.41
26/01/2020 16:27:10	26012020	260120	162710	101.120	12.252048	-56.434417	101.090	0.160	-0.440	0.490	101.120	-1.900	0.800																			1580056030.0	11.44	21.19
26/01/2020 16:27:11	26012020	260120	162711	101.130	12.252037	-56.434365	101.150	0.130	-0.280	0.550	101.140	-1.700	0.900																			1580056031.0	11.48	21.26
26/01/2020 16:27:12	26012020	260120	162712	101.180	12.252027	-56.434313	101.160	0.080	-0.220	0.650	101.190	-1.600	1.000																			1580056032.0	11.16	20.67
26/01/2020 16:27:13	26012020	260120	162713	101.190	12.252015	-56.434262	101.110	-0.070	-0.100	0.850	101.180	-1.600	1.100																			1580056033.0	11.10	20.56
26/01/2020 16:27:14	26012020	260120	162714	101.120	12.252003	-56.434212	101.050	-0.300	0.170	0.960	101.110	-1.300	1.300																			1580056034.0	11.27	20.87
26/01/2020 16:27:15	26012020	260120	162715	101.060	12.251992	-56.434162	101.010	-0.370	0.170	0.900	101.060	-1.200	1.300																			1580056035.0	11.10	20.56
26/01/2020 16:27:16	26012020	260120	162716	101.020	12.251982	-56.434110	100.950	-0.090	-0.380	0.790	101.010	-1.500	1.200																			1580056036.0	10.82	20.04
26/01/2020 16:27:17	26012020	260120	162717	100.970	12.251970	-56.434055	100.990	0.300	-0.880	0.580	100.970	-2.200	1.000																			1580056037.0	11.15	20.65
26/01/2020 16:27:18	26012020	260120	162718	101.030	12.251962	-56.434000	101.130	0.410	-0.590	0.290	101.050	-2.200	0.700																			1580056038.0	11.80	21.85
26/01/2020 16:27:19	26012020	260120	162719	101.180	12.251952	-56.433950	101.250	0.150	0.120	0.180	101.210	-1.500	0.600																			1580056039.0	11.72	21.71
26/01/2020 16:27:20	26012020	260120	162720	101.290	12.251943	-56.433902	101.220	-0.100	0.250	0.290	101.300	-1.100	0.600																			1580056040.0	10.77	19.95
26/01/2020 16:27:21	26012020	260120	162721	101.250	12.251932	-56.433852	101.080	0.010	-0.400	0.480	101.220	-1.500	0.800																			1580056041.0	10.32	19.11
26/01/2020 16:27:22	26012020	260120	162722	101.100	12.251922	-56.433797	101.010	0.230	-0.870	0.530	101.080	-2.200	0.900																			1580056042.0	11.06	20.48
26/01/2020 16:27:23	26012020	260120	162723	101.050	12.251910	-56.433742	101.070	0.130	-0.500	0.520	101.050	-2.100	0.900																			1580056043.0	11.96	22.15
26/01/2020 16:27:24	26012020	260120	162724	101.120	12.251900	-56.433692	101.200	-0.310	0.160	0.500	101.140	-1.400	0.900																			1580056044.0	11.67	21.61
26/01/2020 16:27:25	26012020	260120	162725	101.240	12.251890	-56.433645	101.280	-0.600	0.200	0.470	101.260	-1.100	0.800																			1580056045.0	10.68	19.78
26/01/2020 16:27:26	26012020	260120	162726	101.310	12.251878	-56.433593	101.240	-0.410	-0.400	0.490	101.310	-1.600	0.800																			1580056046.0	10.40	19.26
26/01/2020 16:27:27	26012020	260120	162727	101.260	12.251865	-56.433538	101.110	0.010	-0.770	0.470	101.240	-2.100	0.800																			1580056047.0	11.19	20.72
26/01/2020 16:27:28	26012020	260120	162728	101.140	12.251853	-56.433485	101.000	0.230	-0.470	0.340	101.120	-2.000	0.800																			1580056048.0	11.90	22.04
26/01/2020 16:27:29	26012020	260120	162729	101.040	12.251845	-56.433435	101.000	0.160	0.080	0.120	101.030	-1.500	0.600																			1580056049.0	11.59	21.46
26/01/2020 16:27:30	26012020	260120	162730	101.070	12.251837	-56.433385	101.170	-0.000	0.240	-0.160	101.090	-1.100	0.300																			1580056050.0	10.85	20.09
26/01/2020 16:27:31	26012020	260120	162731	101.260	12.251828	-56.433333	101.390	-0.040	-0.070	-0.160	101.310	-1.300	0.100																			1580056051.0	10.63	19.69
26/01/2020 16:27:32	26012020	260120	162732	101.460	12.251818	-56.433280	101.480	0.060	-0.380	0.120	101.490	-1.700	0.400																			1580056052.0	11.05	20.46
26/01/2020 16:27:33	26012020	260120	162733	101.540	12.251805	-56.433227	101.460	0.140	-0.380	0.400	101.540	-1.800	0.700																			1580056053.0	11.49	21.28
26/01/2020 16:27:34	26012020	260120	162734	101.500	12.251793	-56.433177	101.350	0.210	-0.410	0.640	101.480	-1.800	0.900																			1580056054.0	11.40	21.11
26/01/2020 16:27:35	26012020	260120	162735	101.380	12.251780	-56.433125	101.270	0.280	-0.500	0.600	101.360	-1.900	1.000																			1580056055.0	11.06	20.48
26/01/2020 16:27:36	26012020	260120	162736	101.320	12.251770	-56.433073	101.380	0.220	-0.320	0.310	101.330	-1.800	0.800																			1580056056.0	11.18	20.71
26/01/2020 16:27:37	26012020	260120	162737	101.450	12.251762	-56.433022	101.580	-0.040	0.040	0.100	101.490	-1.500	0.500																			1580056057.0	11.29	20.91
26/01/2020 16:27:38	26012020	260120	162738	101.650	12.251753	-56.432972	101.670	-0.340	0.100	0.190	101.670	-1.300	0.500																			1580056058.0	10.92	20.22
26/01/2020 16:27:39	26012020	260120	162739	101.710	12.251742	-56.432922	101.550	-0.430	-0.320	0.530	101.690	-1.500	0.800																			1580056059.0	10.69	19.80
26/01/2020 16:27:40	26012020	260120	162740	101.560	12.251728	-56.432868	101.350	-0.330	-0.780	0.760	101.520	-2.000	1.100																			1580056060.0	11.06	20.48
26/01/2020 16:27:41	26012020	260120	162741	101.350	12.251715	-56.432815	101.270	-0.220	-0.770	0.710	101.320	-2.200	1.100																			1580056061.0	11.62	21.52
26/01/2020 16:27:42	26012020	260120	162742	101.310	12.251703	-56.432763	101.410	-0.220	-0.250	0.490	101.330	-1.800	0.900																			1580056062.0	11.70	21.67
26/01/2020 16:27:43	26012020	260120	162743	101.470	12.251692	-56.432713	101.540	-0.140	0.110	0.200	101.510	-1.400	0.700																			1580056063.0	11.18	20.71
26/01/2020 16:27:44	26012020	260120	162744	101.600	12.251682	-56.432663	101.440	0.190	-0.100	0.110	101.590	-1.400	0.500																			1580056064.0	10.65	19.72
26/01/2020 16:27:45	26012020	260120	162745	101.480	12.251672	-56.432610	101.220	0.620	-0.490	0.210	101.430	-1.800	0.500																			1580056065.0	11.65	21.58
26/01/2020 16:27:46	26012020	260120	162746	101.260	12.251662	-56.432555	101.240	0.730	-0.380	0.170	101.240	-1.900	0.600																			1580056066.0	11.65	21.58
26/01/2020 16:27:47	26012020	260120	162747	101.320	12.251653	-56.432503	101.580	0.370	0.220	0.030	101.380	-1.400	0.400																			1580056067.0	11.79	21.84
26/01/2020 16:27:48	26012020	260120	162748	101.680	12.251643	-56.432455	102.000	-0.170	0.660	0.060	101.770	-0.800	0.400																			1580056068.0	11.11	20.58
26/01/2020 16:27:49	26012020	260120	162749	102.090	12.251633	-56.432405	102.190	-0.520	0.430	0.330	102.150	-0.800	0.600																			1580056069.0	10.44	19.33
26/01/2020 16:27:50	26012020	260120	162750	102.260	12.251618	-56.432355	102.080	-0.460	-0.310	0.650	102.260	-1.400	0.900																			1580056070.0	10.55	19.54
26/01/2020 16:27:51	26012020	260120	162751	102.120	12.251605	-56.432302	101.790	-0.080	-1.000	0.790	102.060	-2.200	1.100																			1580056071.0	11.14	20.63
26/01/2020 16:27:52	26012020	260120	162752	101.820	12.251592	-56.432248	101.580	0.230	-1.180	0.660	101.770	-2.600	1.100																			1580056072.0	11.63	21.54
26/01/2020 16:27:53	26012020	260120	162753	101.620	12.251583	-56.432197	101.450	0.250	-1.020	0.470	101.590	-2.500	0.900																			1580056073.0	11.59	21.46
26/01/2020 16:27:54	26012020	260120	162754	101.480	12.251573	-56.432145	101.260	0.110	-0.740	0.450	101.450	-2.300	0.800																			1580056074.0	11.14	20.63
26/01/2020 16:27:55	26012020	260120	162755	101.290	12.251562	-56.432095	101.040	-0.110	-0.320	0.640	101.250	-1.900	0.900																			1580056075.0	11.12	20.59
26/01/2020 16:27:56	26012020	260120	162756	101.050	12.251548	-56.432043	100.820	-0.240	0.040	0.770	101.010	-1.500	1.100																			1580056076.0	11.12	20.59
26/01/2020 16:27:57	26012020	260120	162757	100.840	12.251535	-56.431992	100.740	-0.120	0.140	0.660	100.820	-1.300	1.100																			1580056077.0	11.07	20.50
26/01/2020 16:27:58	26012020	260120	162758	100.780	12.251525	-56.431940	100.900	0.110	0.130	0.390	100.800	-1.300	0.800																			1580056078.0	11.21	20.76
26/01/2020 16:27:59	26012020	260120	162759	100.970	12.251515	-56.431887	101.190	0.180	0.230	0.150	101.030	-1.200	0.600	1015.40	26.40	26.40	19.10	19.20	947.00	64.00	64.00	370.00	29.40	348.00	9.00	71.00	3.60	68605	3169.00	27.70	27.60	1580056079.0	11.48	21.26
26/01/2020 16:28:00	26012020	260120	162800	101.260	12.251505	-56.431833	101.440	0.080	0.350	0.040	101.310	-1.100	0.400																			1580056080.0	11.45	21.21
26/01/2020 16:28:01	26012020	260120	162801	101.510	12.251497	-56.431783	101.700	-0.090	0.370	0.070	101.560	-1.000	0.400																			1580056081.0	11.14	20.63
26/01/2020 16:28:02	26012020	260120	162802	101.780	12.251485	-56.431733	101.930	-0.270	0.160	0.340	101.830	-1.100	0.600																			1580056082.0	10.93	20.24
26/01/2020 16:28:03	26012020	260120	162803	101.980	12.251473	-56.431683	101.920	-0.290	-0.360	0.700	102.000	-1.500	0.900																			1580056083.0	10.89	20.17
26/01/2020 16:28:04	26012020	260120	162804	101.940	12.251458	-56.431632	101.720	0.000	-0.990	0.850	101.900	-2.200	1.200																			1580056084.0	10.94	20.26
26/01/2020 16:28:05	26012020	260120	162805	101.720	12.251447	-56.431578	101.390	0.450	-1.340	0.800	101.650	-2.700	1.200																			1580056085.0	11.27	20.87
26/01/2020 16:28:06	26012020	260120	162806	101.380	12.251437	-56.431527	101.020	0.710	-1.280	0.600	101.310	-2.700	1.000																			1580056086.0	11.47	21.24
26/01/2020 16:28:07	26012020	260120	162807	101.020	12.251428	-56.431473	100.800	0.640	-0.860	0.310	100.970	-2.400	0.800																			1580056087.0	11.37	21.06
26/01/2020 16:28:08	26012020	260120	162808	100.820	12.251420	-56.431422	100.760	0.230	-0.190	0.240	100.810	-1.800	0.600																			1580056088.0	11.21	20.76
26/01/2020 16:28:09	26012020	260120	162809	100.780	12.251410	-56.431372	100.750	-0.280	0.350	0.420	100.780	-1.200	0.700																			1580056089.0	11.03	20.43
26/01/2020 16:28:10	26012020	260120	162810	100.770	12.251398	-56.431322	100.750	-0.640	0.520	0.540	100.770	-0.900	0.900																			1580056090.0	10.84	20.08
26/01/2020 16:28:11	26012020	260120	162811	100.770	12.251385	-56.431270	100.840	-0.710	0.370	0.580	100.780	-1.000	0.900																			1580056091.0	11.02	20.41
26/01/2020 16:28:12	26012020	260120	162812	100.870	12.251373	-56.431217	100.990	-0.550	0.140	0.550	100.900	-1.200	0.900																			1580056092.0	11.33	20.98
26/01/2020 16:28:13	26012020	260120	162813	101.020	12.251360	-56.431163	101.110	-0.250	-0.100	0.300	101.050	-1.400	0.800																			1580056093.0	11.51	21.32
26/01/2020 16:28:14	26012020	260120	162814	101.140	12.251350	-56.431112	101.180	0.110	-0.390	0.060	101.160	-1.700	0.500																			1580056094.0	11.40	21.11
26/01/2020 16:28:15	26012020	260120	162815	101.220	12.251340	-56.431058	101.280	0.360	-0.530	-0.000	101.240	-1.900	0.400																			1580056095.0	11.31	20.95
26/01/2020 16:28:16	26012020	260120	162816	101.330	12.251330	-56.431007	101.330	0.390	-0.370	0.120	101.340	-1.800	0.400																			1580056096.0	11.36	21.04
26/01/2020 16:28:17	26012020	260120	162817	101.370	12.251320	-56.430957	101.210	0.290	-0.160	0.350	101.360	-1.600	0.600																			1580056097.0	11.16	20.67
26/01/2020 16:28:18	26012020	260120	162818	101.230	12.251310	-56.430907	100.960	0.290	-0.290	0.540	101.180	-1.600	0.800																			1580056098.0	10.78	19.96
26/01/2020 16:28:19	26012020	260120	162819	100.980	12.251300	-56.430855	100.780	0.370	-0.690	0.660	100.940	-1.900	1.000																			1580056099.0	10.78	19.96
26/01/2020 16:28:20	26012020	260120	162820	100.800	12.251290	-56.430800	100.650	0.360	-0.840	0.570	100.770	-2.200	1.000																			1580056100.0	11.29	20.91
26/01/2020 16:28:21	26012020	260120	162821	100.680	12.251280	-56.430748	100.540	0.100	-0.390	0.480	100.660	-2.000	0.800																			1580056101.0	11.65	21.58
26/01/2020 16:28:22	26012020	260120	162822	100.560	12.251270	-56.430698	100.500	-0.350	0.330	0.580	100.550	-1.300	0.900																			1580056102.0	11.42	21.15
26/01/2020 16:28:23	26012020	260120	162823	100.540	12.251258	-56.430650	100.620	-0.680	0.560	0.590	100.550	-0.800	1.000																			1580056103.0	10.77	19.95
26/01/2020 16:28:24	26012020	260120	162824	100.650	12.251247	-56.430598	100.790	-0.630	0.050	0.490	100.680	-1.100	0.900																			1580056104.0	10.47	19.39
26/01/2020 16:28:25	26012020	260120	162825	100.830	12.251235	-56.430545	100.880	-0.250	-0.730	0.450	100.860	-1.900	0.800																			1580056105.0	10.97	20.32
26/01/2020 16:28:26	26012020	260120	162826	100.910	12.251223	-56.430490	100.870	0.190	-1.120	0.550	100.910	-2.400	0.900																			1580056106.0	11.71	21.69
26/01/2020 16:28:27	26012020	260120	162827	100.890	12.251212	-56.430437	100.850	0.380	-0.790	0.680	100.880	-2.400	1.000																			1580056107.0	11.97	22.17
26/01/2020 16:28:28	26012020	260120	162828	100.870	12.251202	-56.430387	100.830	0.300	-0.150	0.650	100.860	-1.800	1.000																			1580056108.0	11.58	21.45
26/01/2020 16:28:29	26012020	260120	162829	100.840	12.251192	-56.430337	100.770	0.180	0.150	0.480	100.840	-1.300	0.900																			1580056109.0	10.84	20.08
26/01/2020 16:28:30	26012020	260120	162830	100.790	12.251183	-56.430285	100.750	0.080	0.120	0.300	100.790	-1.300	0.700																			1580056110.0	10.64	19.71
26/01/2020 16:28:31	26012020	260120	162831	100.790	12.251175	-56.430232	100.820	-0.070	0.150	0.180	100.810	-1.300	0.600																			1580056111.0	11.12	20.59
26/01/2020 16:28:32	26012020	260120	162832	100.870	12.251165	-56.430180	100.920	-0.200	0.170	0.150	100.890	-1.200	0.500																			1580056112.0	11.38	21.08
26/01/2020 16:28:33	26012020	260120	162833	100.970	12.251157	-56.430128	101.020	-0.180	-0.090	0.210	100.990	-1.400	0.500																			1580056113.0	11.11	20.58
26/01/2020 16:28:34	26012020	260120	162834	101.070	12.251145	-56.430077	101.030	-0.080	-0.460	0.420	101.090	-1.700	0.700																			1580056114.0	11.06	20.48
26/01/2020 16:28:35	26012020	260120	162835	101.060	12.251133	-56.430023	100.960	-0.010	-0.620	0.620	101.050	-2.000	0.900																			1580056115.0	11.36	21.04
26/01/2020 16:28:36	26012020	260120	162836	100.990	12.251122	-56.429972	100.960	0.020	-0.540	0.670	100.980	-2.000	1.000																			1580056116.0	11.42	21.15
26/01/2020 16:28:37	26012020	260120	162837	101.000	12.251110	-56.429922	101.080	0.050	-0.390	0.530	101.020	-1.800	1.000																			1580056117.0	11.19	20.72
26/01/2020 16:28:38	26012020	260120	162838	101.130	12.251100	-56.429870	101.160	0.100	-0.310	0.210	101.160	-1.700	0.700																			1580056118.0	10.99	20.35
26/01/2020 16:28:39	26012020	260120	162839	101.210	12.251092	-56.429818	101.080	0.170	-0.340	-0.020	101.200	-1.700	0.400																			1580056119.0	10.98	20.33
26/01/2020 16:28:40	26012020	260120	162840	101.120	12.251082	-56.429767	100.880	0.200	-0.410	0.150	101.090	-1.800	0.400																			1580056120.0	11.12	20.59
26/01/2020 16:28:41	26012020	260120	162841	100.920	12.251072	-56.429713	100.690	0.100	-0.370	0.370	100.870	-1.800	0.700																			1580056121.0	11.29	20.91
26/01/2020 16:28:42	26012020	260120	162842	100.730	12.251060	-56.429662	100.650	-0.100	-0.230	0.270	100.710	-1.700	0.700																			1580056122.0	11.36	21.04
26/01/2020 16:28:43	26012020	260120	162843	100.710	12.251052	-56.429610	100.760	-0.210	-0.160	0.160	100.720	-1.600	0.500																			1580056123.0	11.24	20.82
26/01/2020 16:28:44	26012020	260120	162844	100.830	12.251042	-56.429557	100.910	-0.210	-0.140	0.060	100.860	-1.500	0.400																			1580056124.0	11.14	20.63
26/01/2020 16:28:45	26012020	260120	162845	100.980	12.251030	-56.429505	101.050	-0.210	-0.040	0.090	101.000	-1.500	0.400																			1580056125.0	11.30	20.93
26/01/2020 16:28:46	26012020	260120	162846	101.110	12.251020	-56.429453	101.180	-0.220	0.050	0.340	101.140	-1.400	0.600																			1580056126.0	11.31	20.95
26/01/2020 16:28:47	26012020	260120	162847	101.220	12.251007	-56.429402	101.190	-0.140	-0.080	0.560	101.230	-1.400	0.900																			1580056127.0	11.15	20.65
26/01/2020 16:28:48	26012020	260120	162848	101.220	12.250995	-56.429350	101.180	0.040	-0.370	0.600	101.220	-1.700	1.000																			1580056128.0	11.11	20.58
26/01/2020 16:28:49	26012020	260120	162849	101.220	12.250985	-56.429297	101.190	0.160	-0.490	0.530	101.220	-1.900	0.900																			1580056129.0	11.33	20.98
26/01/2020 16:28:50	26012020	260120	162850	101.240	12.250975	-56.429245	101.200	0.140	-0.330	0.380	101.240	-1.800	0.800																			1580056130.0	11.48	21.26
26/01/2020 16:28:51	26012020	260120	162851	101.230	12.250965	-56.429193	101.110	0.100	-0.240	0.270	101.220	-1.600	0.700																			1580056131.0	11.22	20.78
26/01/2020 16:28:52	26012020	260120	162852	101.140	12.250955	-56.429142	100.980	0.160	-0.390	0.200	101.120	-1.700	0.600																			1580056132.0	10.93	20.24
26/01/2020 16:28:53	26012020	260120	162853	101.020	12.250947	-56.429090	100.890	0.200	-0.490	0.140	101.000	-1.900	0.500																			1580056133.0	11.10	20.56
26/01/2020 16:28:54	26012020	260120	162854	100.950	12.250935	-56.429037	100.860	0.110	-0.250	0.140	100.940	-1.800	0.500																			1580056134.0	11.43	21.17
26/01/2020 16:28:55	26012020	260120	162855	100.920	12.250925	-56.428987	100.840	-0.040	0.050	0.210	100.910	-1.400	0.500																			1580056135.0	11.33	20.98
26/01/2020 16:28:56	26012020	260120	162856	100.900	12.250915	-56.428935	100.840	-0.110	-0.020	0.260	100.900	-1.400	0.600																			1580056136.0	10.95	20.28
26/01/2020 16:28:57	26012020	260120	162857	100.890	12.250905	-56.428883	100.870	-0.120	-0.350	0.280	100.890	-1.600	0.600																			1580056137.0	10.91	20.21
26/01/2020 16:28:58	26012020	260120	162858	100.940	12.250893	-56.428830	101.020	-0.150	-0.470	0.240	100.960	-1.900	0.600																			1580056138.0	11.37	21.06
26/01/2020 16:28:59	26012020	260120	162859	101.080	12.250883	-56.428777	101.120	-0.190	-0.390	0.440	101.100	-1.800	0.700	1015.40	26.40	26.40	19.40	19.40	946.00	65.00	65.00	370.00	29.50	350.00	8.80	74.00	3.30	68554	3246.00	27.60	27.60	1580056139.0	11.57	21.43
26/01/2020 16:29:00	26012020	260120	162900	101.160	12.250870	-56.428727	101.100	-0.140	-0.390	0.660	101.160	-1.800	0.900																			1580056140.0	11.28	20.89
26/01/2020 16:29:01	26012020	260120	162901	101.140	12.250858	-56.428673	101.060	-0.050	-0.410	0.690	101.130	-1.800	1.100																			1580056141.0	11.14	20.63
26/01/2020 16:29:02	26012020	260120	162902	101.090	12.250847	-56.428622	101.010	0.030	-0.290	0.550	101.070	-1.800	1.000																			1580056142.0	11.34	21.00
26/01/2020 16:29:03	26012020	260120	162903	101.040	12.250837	-56.428570	100.930	0.130	-0.170	0.250	101.030	-1.600	0.700																			1580056143.0	11.34	21.00
26/01/2020 16:29:04	26012020	260120	162904	100.980	12.250828	-56.428517	100.920	0.240	-0.160	-0.070	100.970	-1.600	0.400																			1580056144.0	11.18	20.71
26/01/2020 16:29:05	26012020	260120	162905	100.980	12.250820	-56.428463	101.030	0.170	-0.120	-0.190	101.000	-1.600	0.200																			1580056145.0	11.24	20.82
26/01/2020 16:29:06	26012020	260120	162906	101.110	12.250810	-56.428412	101.160	-0.120	0.100	0.050	101.140	-1.400	0.300																			1580056146.0	11.40	21.11
26/01/2020 16:29:07	26012020	260120	162907	101.220	12.250798	-56.428362	101.200	-0.360	0.210	0.410	101.230	-1.200	0.700																			1580056147.0	11.24	20.82
26/01/2020 16:29:08	26012020	260120	162908	101.240	12.250787	-56.428312	101.240	-0.300	-0.060	0.490	101.240	-1.300	0.900																			1580056148.0	10.92	20.22
26/01/2020 16:29:09	26012020	260120	162909	101.290	12.250775	-56.428258	101.400	0.000	-0.510	0.350	101.320	-1.800	0.800																			1580056149.0	11.02	20.41
26/01/2020 16:29:10	26012020	260120	162910	101.460	12.250763	-56.428205	101.530	0.320	-0.800	0.290	101.500	-2.100	0.700																			1580056150.0	11.40	21.11
26/01/2020 16:29:11	26012020	260120	162911	101.580	12.250752	-56.428152	101.490	0.410	-0.650	0.220	101.580	-2.200	0.600																			1580056151.0	11.57	21.43
26/01/2020 16:29:12	26012020	260120	162912	101.530	12.250743	-56.428102	101.360	0.210	-0.220	0.130	101.510	-1.800	0.500																			1580056152.0	11.41	21.13
26/01/2020 16:29:13	26012020	260120	162913	101.400	12.250733	-56.428052	101.310	-0.030	-0.080	0.150	101.390	-1.500	0.500																			1580056153.0	10.95	20.28
26/01/2020 16:29:14	26012020	260120	162914	101.360	12.250723	-56.428000	101.340	-0.100	-0.350	0.220	101.360	-1.600	0.500																			1580056154.0	10.72	19.85
26/01/2020 16:29:15	26012020	260120	162915	101.380	12.250712	-56.427947	101.270	-0.070	-0.620	0.350	101.380	-2.000	0.600																			1580056155.0	11.14	20.63
26/01/2020 16:29:16	26012020	260120	162916	101.300	12.250700	-56.427892	101.050	-0.100	-0.510	0.630	101.260	-2.000	0.900																			1580056156.0	11.63	21.54
26/01/2020 16:29:17	26012020	260120	162917	101.070	12.250688	-56.427840	100.920	-0.200	-0.170	0.800	101.040	-1.700	1.100																			1580056157.0	11.63	21.54
26/01/2020 16:29:18	26012020	260120	162918	100.980	12.250677	-56.427790	101.030	-0.250	0.020	0.630	100.990	-1.400	1.100																			1580056158.0	11.26	20.85
26/01/2020 16:29:19	26012020	260120	162919	101.110	12.250665	-56.427738	101.220	-0.220	0.020	0.340	101.150	-1.400	0.800																			1580056159.0	11.06	20.48
26/01/2020 16:29:20	26012020	260120	162920	101.300	12.250655	-56.427685	101.290	-0.170	0.070	0.240	101.330	-1.400	0.600																			1580056160.0	11.26	20.85
26/01/2020 16:29:21	26012020	260120	162921	101.360	12.250643	-56.427633	101.250	-0.070	0.100	0.300	101.350	-1.300	0.600																			1580056161.0	11.36	21.04
26/01/2020 16:29:22	26012020	260120	162922	101.320	12.250632	-56.427582	101.310	0.120	-0.100	0.280	101.320	-1.400	0.700																			1580056162.0	11.18	20.71
26/01/2020 16:29:23	26012020	260120	162923	101.380	12.250622	-56.427530	101.460	0.250	-0.290	0.140	101.400	-1.600	0.600																			1580056163.0	11.16	20.67
26/01/2020 16:29:24	26012020	260120	162924	101.540	12.250613	-56.427477	101.590	0.240	-0.290	0.060	101.570	-1.700	0.400																			1580056164.0	11.35	21.02
26/01/2020 16:29:25	26012020	260120	162925	101.650	12.250603	-56.427427	101.550	0.180	-0.260	0.270	101.660	-1.700	0.500																			1580056165.0	11.23	20.80
26/01/2020 16:29:26	26012020	260120	162926	101.590	12.250592	-56.427375	101.370	0.180	-0.520	0.510	101.560	-1.800	0.800																			1580056166.0	10.92	20.22
26/01/2020 16:29:27	26012020	260120	162927	101.420	12.250582	-56.427323	101.230	0.250	-0.950	0.530	101.380	-2.200	0.900																			1580056167.0	10.94	20.26
26/01/2020 16:29:28	26012020	260120	162928	101.280	12.250572	-56.427268	101.170	0.250	-0.990	0.500	101.270	-2.500	0.900																			1580056168.0	11.41	21.13
26/01/2020 16:29:29	26012020	260120	162929	101.230	12.250562	-56.427217	101.110	0.050	-0.490	0.470	101.210	-2.100	0.800																			1580056169.0	11.70	21.67
26/01/2020 16:29:30	26012020	260120	162930	101.160	12.250550	-56.427165	101.090	-0.300	0.050	0.470	101.160	-1.500	0.800																			1580056170.0	11.35	21.02
26/01/2020 16:29:31	26012020	260120	162931	101.160	12.250538	-56.427115	101.170	-0.560	0.250	0.560	101.170	-1.200	0.900																			1580056171.0	10.90	20.19
26/01/2020 16:29:32	26012020	260120	162932	101.250	12.250527	-56.427063	101.250	-0.550	0.110	0.570	101.260	-1.200	0.900																			1580056172.0	10.94	20.26
26/01/2020 16:29:33	26012020	260120	162933	101.320	12.250513	-56.427010	101.310	-0.300	-0.130	0.500	101.330	-1.500	0.900																			1580056173.0	11.29	20.91
26/01/2020 16:29:34	26012020	260120	162934	101.380	12.250502	-56.426957	101.400	-0.030	-0.190	0.420	101.380	-1.500	0.800																			1580056174.0	11.58	21.45
26/01/2020 16:29:35	26012020	260120	162935	101.470	12.250490	-56.426905	101.540	0.050	-0.050	0.170	101.500	-1.500	0.600																			1580056175.0	11.63	21.54
26/01/2020 16:29:36	26012020	260120	162936	101.620	12.250480	-56.426853	101.720	0.010	0.090	-0.200	101.660	-1.400	0.300																			1580056176.0	11.32	20.96
26/01/2020 16:29:37	26012020	260120	162937	101.820	12.250472	-56.426802	101.900	0.050	0.000	-0.380	101.850	-1.300	-0.000																			1580056177.0	10.99	20.35
26/01/2020 16:29:38	26012020	260120	162938	101.980	12.250462	-56.426752	101.910	0.280	-0.410	-0.160	102.000	-1.700	0.100																			1580056178.0	10.90	20.19
26/01/2020 16:29:39	26012020	260120	162939	101.960	12.250450	-56.426698	101.800	0.550	-0.770	0.120	101.940	-2.100	0.400																			1580056179.0	11.11	20.58
26/01/2020 16:29:40	26012020	260120	162940	101.840	12.250440	-56.426645	101.680	0.620	-0.790	0.270	101.820	-2.200	0.600																			1580056180.0	11.50	21.30
26/01/2020 16:29:41	26012020	260120	162941	101.720	12.250430	-56.426593	101.570	0.470	-0.620	0.310	101.690	-2.100	0.700																			1580056181.0	11.46	21.22
26/01/2020 16:29:42	26012020	260120	162942	101.610	12.250418	-56.426542	101.550	0.160	-0.300	0.290	101.600	-1.800	0.600																			1580056182.0	11.18	20.71
26/01/2020 16:29:43	26012020	260120	162943	101.600	12.250408	-56.426490	101.570	-0.260	0.120	0.330	101.600	-1.400	0.700																			1580056183.0	11.12	20.59
26/01/2020 16:29:44	26012020	260120	162944	101.630	12.250397	-56.426440	101.560	-0.600	0.240	0.360	101.630	-1.200	0.700																			1580056184.0	10.99	20.35
26/01/2020 16:29:45	26012020	260120	162945	101.620	12.250385	-56.426390	101.530	-0.660	-0.080	0.370	101.610	-1.300	0.700																			1580056185.0	10.88	20.15
26/01/2020 16:29:46	26012020	260120	162946	101.590	12.250372	-56.426337	101.520	-0.420	-0.590	0.330	101.580	-1.800	0.700																			1580056186.0	11.17	20.69
26/01/2020 16:29:47	26012020	260120	162947	101.600	12.250358	-56.426282	101.580	-0.120	-0.830	0.280	101.610	-2.200	0.600																			1580056187.0	11.65	21.58
26/01/2020 16:29:48	26012020	260120	162948	101.650	12.250345	-56.426228	101.590	-0.010	-0.470	0.270	101.660	-2.100	0.600																			1580056188.0	11.87	21.98
26/01/2020 16:29:49	26012020	260120	162949	101.640	12.250333	-56.426178	101.450	-0.060	0.090	0.320	101.620	-1.500	0.700																			1580056189.0	11.54	21.37
26/01/2020 16:29:50	26012020	260120	162950	101.500	12.250322	-56.426128	101.240	0.040	0.120	0.300	101.460	-1.200	0.700																			1580056190.0	10.86	20.11
26/01/2020 16:29:51	26012020	260120	162951	101.280	12.250312	-56.426077	101.130	0.350	-0.300	0.140	101.250	-1.600	0.600																			1580056191.0	10.71	19.83
26/01/2020 16:29:52	26012020	260120	162952	101.200	12.250302	-56.426022	101.280	0.510	-0.300	0.000	101.220	-1.800	0.400																			1580056192.0	11.40	21.11
26/01/2020 16:29:53	26012020	260120	162953	101.370	12.250293	-56.425968	101.500	0.300	0.210	0.060	101.420	-1.400	0.400																			1580056193.0	11.87	21.98
26/01/2020 16:29:54	26012020	260120	162954	101.570	12.250283	-56.425920	101.550	0.010	0.410	0.260	101.590	-1.000	0.500																			1580056194.0	11.17	20.69
26/01/2020 16:29:55	26012020	260120	162955	101.600	12.250272	-56.425870	101.530	-0.010	-0.100	0.510	101.590	-1.300	0.800																			1580056195.0	10.49	19.43
26/01/2020 16:29:56	26012020	260120	162956	101.580	12.250260	-56.425817	101.570	0.120	-0.770	0.720	101.590	-2.000	1.000																			1580056196.0	10.85	20.09
26/01/2020 16:29:57	26012020	260120	162957	101.620	12.250247	-56.425763	101.600	0.110	-0.870	0.890	101.630	-2.300	1.200																			1580056197.0	11.64	21.56
26/01/2020 16:29:58	26012020	260120	162958	101.640	12.250235	-56.425712	101.530	-0.110	-0.470	0.920	101.640	-2.300	1.200																			1580056198.0	11.70	21.67
26/01/2020 16:29:59	26012020	260120	162959	101.550	12.250223	-56.425663	101.320	-0.290	-0.310	0.860	101.510	-1.700	1.200	1015.40	26.30	26.40	19.40	19.50	943.00	65.00	66.00	371.00	29.50	347.00	8.80	66.00	3.50	68459	3245.00	27.60	27.60	1580056199.0	11.05	20.46
26/01/2020 16:30:00	26012020	260120	163000	101.340	12.250212	-56.425612	101.120	-0.230	-0.560	0.710	101.300	-1.900	1.100																			1580056200.0	10.61	19.65
26/01/2020 16:30:01	26012020	260120	163001	101.150	12.250200	-56.425558	100.990	-0.070	-0.710	0.460	101.120	-2.100	0.900																			1580056201.0	11.09	20.54
26/01/2020 16:30:02	26012020	260120	163002	101.020	12.250188	-56.425505	100.790	0.030	-0.490	0.350	100.990	-2.000	0.700																			1580056202.0	11.66	21.59
26/01/2020 16:30:03	26012020	260120	163003	100.820	12.250178	-56.425453	100.610	0.080	-0.080	0.290	100.770	-1.600	0.700																			1580056203.0	11.55	21.39
26/01/2020 16:30:04	26012020	260120	163004	100.650	12.250168	-56.425402	100.620	0.070	0.290	0.180	100.640	-1.200	0.600																			1580056204.0	11.20	20.74
26/01/2020 16:30:05	26012020	260120	163005	100.670	12.250158	-56.425350	100.730	0.020	0.400	0.070	100.700	-1.000	0.500																			1580056205.0	11.06	20.48
26/01/2020 16:30:06	26012020	260120	163006	100.800	12.250148	-56.425298	100.870	0.010	0.210	0.110	100.830	-1.100	0.400																			1580056206.0	11.06	20.48
26/01/2020 16:30:07	26012020	260120	163007	100.920	12.250138	-56.425245	101.010	0.040	-0.050	0.430	100.950	-1.400	0.600																			1580056207.0	11.20	20.74
26/01/2020 16:30:08	26012020	260120	163008	101.050	12.250125	-56.425193	101.150	0.020	-0.200	0.750	101.090	-1.600	1.000																			1580056208.0	11.40	21.11
26/01/2020 16:30:09	26012020	260120	163009	101.180	12.250113	-56.425143	101.180	-0.060	-0.320	0.860	101.200	-1.700	1.200																			1580056209.0	11.33	20.98
26/01/2020 16:30:10	26012020	260120	163010	101.210	12.250102	-56.425092	101.120	-0.110	-0.410	0.780	101.210	-1.800	1.200																			1580056210.0	11.11	20.58
26/01/2020 16:30:11	26012020	260120	163011	101.140	12.250092	-56.425042	101.020	-0.000	-0.550	0.570	101.120	-1.900	1.000																			1580056211.0	11.02	20.41
26/01/2020 16:30:12	26012020	260120	163012	101.050	12.250082	-56.424988	100.900	0.220	-0.750	0.320	101.030	-2.100	0.800																			1580056212.0	11.02	20.41
26/01/2020 16:30:13	26012020	260120	163013	100.930	12.250073	-56.424937	100.670	0.360	-0.850	0.240	100.900	-2.200	0.600																			1580056213.0	11.15	20.65
26/01/2020 16:30:14	26012020	260120	163014	100.700	12.250063	-56.424883	100.370	0.270	-0.640	0.360	100.640	-2.100	0.700																			1580056214.0	11.35	21.02
26/01/2020 16:30:15	26012020	260120	163015	100.400	12.250052	-56.424832	100.140	0.030	-0.260	0.530	100.350	-1.800	0.800																			1580056215.0	11.36	21.04
26/01/2020 16:30:16	26012020	260120	163016	100.170	12.250042	-56.424782	99.980	-0.140	-0.110	0.770	100.120	-1.500	1.000																			1580056216.0	11.09	20.54
26/01/2020 16:30:17	26012020	260120	163017	99.990	12.250030	-56.424728	99.940	-0.210	-0.130	0.900	99.980	-1.500	1.200																			1580056217.0	11.04	20.45
26/01/2020 16:30:18	26012020	260120	163018	99.970	12.250018	-56.424675	100.040	-0.250	0.030	0.880	99.980	-1.500	1.200																			1580056218.0	11.41	21.13
26/01/2020 16:30:19	26012020	260120	163019	100.080	12.250007	-56.424623	100.200	-0.290	0.380	0.780	100.110	-1.100	1.200																			1580056219.0	11.54	21.37
26/01/2020 16:30:20	26012020	260120	163020	100.230	12.249997	-56.424573	100.340	-0.250	0.380	0.610	100.270	-1.000	1.000																			1580056220.0	11.20	20.74
26/01/2020 16:30:21	26012020	260120	163021	100.380	12.249987	-56.424522	100.500	-0.040	-0.150	0.420	100.410	-1.300	0.800																			1580056221.0	10.88	20.15
26/01/2020 16:30:22	26012020	260120	163022	100.560	12.249977	-56.424467	100.770	0.160	-0.510	0.240	100.610	-1.800	0.700																			1580056222.0	11.21	20.76
26/01/2020 16:30:23	26012020	260120	163023	100.830	12.249968	-56.424413	100.960	0.160	-0.340	0.130	100.880	-1.800	0.500																			1580056223.0	11.69	21.65
26/01/2020 16:30:24	26012020	260120	163024	100.990	12.249958	-56.424365	100.880	0.130	-0.230	0.150	100.990	-1.600	0.500																			1580056224.0	11.30	20.93
26/01/2020 16:30:25	26012020	260120	163025	100.890	12.249948	-56.424313	100.660	0.260	-0.580	0.340	100.840	-1.800	0.600																			1580056225.0	10.68	19.78
26/01/2020 16:30:26	26012020	260120	163026	100.660	12.249938	-56.424260	100.500	0.360	-0.910	0.570	100.620	-2.200	0.900																			1580056226.0	10.88	20.15
26/01/2020 16:30:27	26012020	260120	163027	100.510	12.249928	-56.424207	100.410	0.250	-0.770	0.640	100.500	-2.300	1.000																			1580056227.0	11.51	21.32
26/01/2020 16:30:28	26012020	260120	163028	100.420	12.249918	-56.424157	100.270	-0.050	-0.320	0.640	100.390	-1.900	1.000																			1580056228.0	11.51	21.32
26/01/2020 16:30:29	26012020	260120	163029	100.270	12.249907	-56.424105	100.190	-0.370	0.070	0.610	100.250	-1.400	1.000																			1580056229.0	11.08	20.52
26/01/2020 16:30:30	26012020	260120	163030	100.200	12.249897	-56.424055	100.210	-0.550	0.150	0.500	100.200	-1.200	0.900																			1580056230.0	10.86	20.11
26/01/2020 16:30:31	26012020	260120	163031	100.230	12.249885	-56.424003	100.240	-0.450	-0.110	0.320	100.240	-1.400	0.700																			1580056231.0	10.99	20.35
26/01/2020 16:30:32	26012020	260120	163032	100.270	12.249875	-56.423948	100.300	-0.120	-0.390	0.210	100.270	-1.700	0.600																			1580056232.0	11.32	20.96
26/01/2020 16:30:33	26012020	260120	163033	100.320	12.249863	-56.423895	100.410	0.140	-0.280	0.150	100.340	-1.800	0.500																			1580056233.0	11.64	21.56
26/01/2020 16:30:34	26012020	260120	163034	100.440	12.249853	-56.423843	100.520	0.220	0.010	-0.010	100.470	-1.500	0.400																			1580056234.0	11.62	21.52
26/01/2020 16:30:35	26012020	260120	163035	100.560	12.249845	-56.423793	100.560	0.320	-0.030	-0.080	100.570	-1.400	0.300																			1580056235.0	11.09	20.54
26/01/2020 16:30:36	26012020	260120	163036	100.580	12.249837	-56.423740	100.570	0.440	-0.310	0.090	100.580	-1.600	0.400																			1580056236.0	10.87	20.13
26/01/2020 16:30:37	26012020	260120	163037	100.590	12.249827	-56.423687	100.640	0.290	-0.290	0.400	100.600	-1.700	0.600																			1580056237.0	11.29	20.91
26/01/2020 16:30:38	26012020	260120	163038	100.650	12.249817	-56.423635	100.660	-0.190	-0.060	0.700	100.660	-1.500	1.000																			1580056238.0	11.48	21.26
26/01/2020 16:30:39	26012020	260120	163039	100.660	12.249807	-56.423587	100.600	-0.590	-0.150	0.930	100.660	-1.500	1.200																			1580056239.0	10.99	20.35
26/01/2020 16:30:40	26012020	260120	163040	100.590	12.249793	-56.423535	100.490	-0.590	-0.620	1.010	100.570	-1.800	1.400																			1580056240.0	10.71	19.83
26/01/2020 16:30:41	26012020	260120	163041	100.470	12.249780	-56.423482	100.370	-0.310	-0.900	0.860	100.440	-2.300	1.300																			1580056241.0	11.16	20.67
26/01/2020 16:30:42	26012020	260120	163042	100.350	12.249768	-56.423428	100.240	-0.030	-0.680	0.560	100.330	-2.200	1.000																			1580056242.0	11.69	21.65
26/01/2020 16:30:43	26012020	260120	163043	100.220	12.249758	-56.423377	100.120	0.170	-0.270	0.310	100.200	-1.800	0.800																			1580056243.0	11.49	21.28
26/01/2020 16:30:44	26012020	260120	163044	100.110	12.249750	-56.423327	100.100	0.300	-0.020	0.060	100.100	-1.500	0.500																			1580056244.0	11.04	20.45
26/01/2020 16:30:45	26012020	260120	163045	100.110	12.249742	-56.423273	100.240	0.350	0.140	-0.180	100.130	-1.300	0.300																			1580056245.0	10.97	20.32
26/01/2020 16:30:46	26012020	260120	163046	100.260	12.249733	-56.423222	100.440	0.260	0.290	-0.290	100.310	-1.200	0.100																			1580056246.0	11.17	20.69
26/01/2020 16:30:47	26012020	260120	163047	100.470	12.249725	-56.423170	100.590	0.110	0.240	-0.200	100.500	-1.100	0.100																			1580056247.0	11.15	20.65
26/01/2020 16:30:48	26012020	260120	163048	100.610	12.249717	-56.423118	100.690	0.030	-0.120	0.170	100.640	-1.400	0.400																			1580056248.0	11.02	20.41
26/01/2020 16:30:49	26012020	260120	163049	100.700	12.249705	-56.423067	100.750	0.030	-0.560	0.520	100.720	-1.800	0.800																			1580056249.0	11.10	20.56
26/01/2020 16:30:50	26012020	260120	163050	100.740	12.249693	-56.423013	100.730	-0.010	-0.740	0.720	100.740	-2.100	1.000																			1580056250.0	11.39	21.09
26/01/2020 16:30:51	26012020	260120	163051	100.710	12.249683	-56.422962	100.590	-0.110	-0.710	0.870	100.680	-2.100	1.200																			1580056251.0	11.41	21.13
26/01/2020 16:30:52	26012020	260120	163052	100.570	12.249672	-56.422910	100.390	-0.190	-0.700	0.910	100.540	-2.100	1.300																			1580056252.0	11.17	20.69
26/01/2020 16:30:53	26012020	260120	163053	100.360	12.249662	-56.422858	100.180	-0.180	-0.730	0.750	100.320	-2.100	1.200																			1580056253.0	11.08	20.52
26/01/2020 16:30:54	26012020	260120	163054	100.160	12.249650	-56.422805	100.050	-0.150	-0.480	0.470	100.130	-2.000	0.900																			1580056254.0	11.30	20.93
26/01/2020 16:30:55	26012020	260120	163055	100.050	12.249640	-56.422753	100.030	-0.200	0.090	0.290	100.040	-1.500	0.700																			1580056255.0	11.48	21.26
26/01/2020 16:30:56	26012020	260120	163056	100.040	12.249630	-56.422703	100.140	-0.310	0.490	0.210	100.050	-1.000	0.600																			1580056256.0	11.22	20.78
26/01/2020 16:30:57	26012020	260120	163057	100.150	12.249620	-56.422652	100.360	-0.270	0.350	0.140	100.200	-0.900	0.500																			1580056257.0	10.87	20.13
26/01/2020 16:30:58	26012020	260120	163058	100.380	12.249608	-56.422598	100.490	0.020	-0.140	0.190	100.430	-1.400	0.500																			1580056258.0	10.98	20.33
26/01/2020 16:30:59	26012020	260120	163059	100.520	12.249597	-56.422545	100.540	0.380	-0.320	0.300	100.530	-1.700	0.600	1015.40	26.30	26.40	19.40	19.40	942.00	65.00	65.00	371.00	29.40	349.00	9.10	71.00	3.60	68351	3139.00	27.60	27.60	1580056259.0	11.48	21.26
26/01/2020 16:31:00	26012020	260120	163100	100.570	12.249588	-56.422493	100.680	0.490	-0.000	0.230	100.590	-1.600	0.600																			1580056260.0	11.73	21.72
26/01/2020 16:31:01	26012020	260120	163101	100.720	12.249580	-56.422443	100.910	0.330	0.180	0.010	100.760	-1.200	0.400																			1580056261.0	11.22	20.78
26/01/2020 16:31:02	26012020	260120	163102	100.950	12.249575	-56.422393	101.050	0.200	-0.330	-0.010	101.000	-1.500	0.300																			1580056262.0	10.57	19.58
26/01/2020 16:31:03	26012020	260120	163103	101.090	12.249565	-56.422338	100.990	0.150	-1.040	0.330	101.090	-2.200	0.500																			1580056263.0	10.73	19.87
26/01/2020 16:31:04	26012020	260120	163104	101.000	12.249553	-56.422285	100.730	0.030	-1.140	0.800	100.960	-2.600	1.000																			1580056264.0	11.54	21.37
26/01/2020 16:31:05	26012020	260120	163105	100.720	12.249540	-56.422233	100.460	-0.150	-0.650	1.110	100.660	-2.200	1.400																			1580056265.0	11.77	21.80
26/01/2020 16:31:06	26012020	260120	163106	100.450	12.249528	-56.422185	100.400	-0.230	-0.250	1.000	100.430	-1.800	1.400																			1580056266.0	11.17	20.69
26/01/2020 16:31:07	26012020	260120	163107	100.410	12.249517	-56.422133	100.440	-0.180	-0.240	0.600	100.420	-1.600	1.100																			1580056267.0	10.74	19.89
26/01/2020 16:31:08	26012020	260120	163108	100.460	12.249508	-56.422080	100.520	-0.100	-0.260	0.110	100.480	-1.700	0.600																			1580056268.0	11.04	20.45
26/01/2020 16:31:09	26012020	260120	163109	100.550	12.249498	-56.422027	100.670	-0.060	0.040	-0.230	100.580	-1.500	0.200																			1580056269.0	11.52	21.34
26/01/2020 16:31:10	26012020	260120	163110	100.720	12.249490	-56.421975	100.870	-0.060	0.330	-0.230	100.760	-1.100	0.100																			1580056270.0	11.49	21.28
26/01/2020 16:31:11	26012020	260120	163111	100.910	12.249480	-56.421923	101.060	-0.100	0.220	-0.100	100.950	-1.100	0.200																			1580056271.0	11.04	20.45
26/01/2020 16:31:12	26012020	260120	163112	101.110	12.249470	-56.421872	101.300	-0.230	0.010	0.110	101.160	-1.300	0.400																			1580056272.0	11.02	20.41
26/01/2020 16:31:13	26012020	260120	163113	101.340	12.249458	-56.421820	101.410	-0.340	-0.120	0.380	101.380	-1.500	0.600																			1580056273.0	11.33	20.98
26/01/2020 16:31:14	26012020	260120	163114	101.430	12.249447	-56.421768	101.280	-0.250	-0.450	0.620	101.420	-1.700	0.900																			1580056274.0	11.20	20.74
26/01/2020 16:31:15	26012020	260120	163115	101.280	12.249433	-56.421717	101.050	0.040	-0.920	0.650	101.230	-2.200	1.000																			1580056275.0	11.05	20.46
26/01/2020 16:31:16	26012020	260120	163116	101.060	12.249423	-56.421663	100.910	0.320	-0.980	0.490	101.030	-2.400	0.900																			1580056276.0	11.38	21.08
26/01/2020 16:31:17	26012020	260120	163117	100.940	12.249413	-56.421610	100.920	0.390	-0.460	0.190	100.940	-2.100	0.700																			1580056277.0	11.61	21.50
26/01/2020 16:31:18	26012020	260120	163118	100.970	12.249403	-56.421560	100.990	0.270	0.090	-0.040	100.980	-1.500	0.400																			1580056278.0	11.24	20.82
26/01/2020 16:31:19	26012020	260120	163119	101.040	12.249395	-56.421510	101.050	0.170	0.190	-0.030	101.050	-1.200	0.300																			1580056279.0	10.72	19.85
26/01/2020 16:31:20	26012020	260120	163120	101.100	12.249385	-56.421458	101.150	0.200	0.020	0.000	101.120	-1.300	0.400																			1580056280.0	10.76	19.93
26/01/2020 16:31:21	26012020	260120	163121	101.200	12.249375	-56.421405	101.230	0.230	-0.140	0.050	101.220	-1.500	0.400																			1580056281.0	11.24	20.82
26/01/2020 16:31:22	26012020	260120	163122	101.270	12.249365	-56.421353	101.260	0.150	-0.220	0.250	101.270	-1.600	0.500																			1580056282.0	11.42	21.15
26/01/2020 16:31:23	26012020	260120	163123	101.290	12.249353	-56.421302	101.350	-0.090	-0.290	0.470	101.300	-1.700	0.800																			1580056283.0	11.31	20.95
26/01/2020 16:31:24	26012020	260120	163124	101.380	12.249342	-56.421250	101.430	-0.380	-0.340	0.650	101.400	-1.700	0.900																			1580056284.0	11.16	20.67
26/01/2020 16:31:25	26012020	260120	163125	101.440	12.249330	-56.421198	101.370	-0.570	-0.340	0.840	101.440	-1.700	1.100																			1580056285.0	11.15	20.65
26/01/2020 16:31:26	26012020	260120	163126	101.370	12.249317	-56.421148	101.220	-0.510	-0.450	0.880	101.340	-1.800	1.200																			1580056286.0	11.11	20.58
26/01/2020 16:31:27	26012020	260120	163127	101.220	12.249303	-56.421097	101.040	-0.220	-0.720	0.680	101.180	-2.000	1.100																			1580056287.0	11.09	20.54
26/01/2020 16:31:28	26012020	260120	163128	101.040	12.249292	-56.421043	100.870	0.160	-0.890	0.330	101.000	-2.300	0.800																			1580056288.0	11.32	20.96
26/01/2020 16:31:29	26012020	260120	163129	100.890	12.249283	-56.420988	100.840	0.400	-0.620	0.050	100.880	-2.200	0.500																			1580056289.0	11.63	21.54
26/01/2020 16:31:30	26012020	260120	163130	100.870	12.249275	-56.420937	100.950	0.340	0.110	-0.120	100.880	-1.600	0.300																			1580056290.0	11.64	21.56
26/01/2020 16:31:31	26012020	260120	163131	101.000	12.249265	-56.420887	101.170	0.080	0.650	-0.220	101.050	-0.900	0.200																			1580056291.0	11.19	20.72
26/01/2020 16:31:32	26012020	260120	163132	101.230	12.249257	-56.420837	101.320	-0.130	0.520	-0.070	101.270	-0.800	0.200																			1580056292.0	10.66	19.74
26/01/2020 16:31:33	26012020	260120	163133	101.380	12.249245	-56.420783	101.380	-0.220	0.040	0.330	101.390	-1.200	0.500																			1580056293.0	10.82	20.04
26/01/2020 16:31:34	26012020	260120	163134	101.410	12.249232	-56.420732	101.400	-0.170	-0.320	0.680	101.410	-1.600	0.900																			1580056294.0	11.42	21.15
26/01/2020 16:31:35	26012020	260120	163135	101.420	12.249218	-56.420678	101.410	-0.020	-0.500	0.730	101.430	-1.900	1.100																			1580056295.0	11.57	21.43
26/01/2020 16:31:36	26012020	260120	163136	101.440	12.249207	-56.420627	101.410	0.100	-0.460	0.590	101.440	-1.900	1.000																			1580056296.0	11.36	21.04
26/01/2020 16:31:37	26012020	260120	163137	101.450	12.249197	-56.420577	101.400	0.190	-0.390	0.340	101.450	-1.800	0.800																			1580056297.0	11.14	20.63
26/01/2020 16:31:38	26012020	260120	163138	101.440	12.249188	-56.420525	101.320	0.340	-0.450	0.110	101.430	-1.800	0.500																			1580056298.0	10.92	20.22
26/01/2020 16:31:39	26012020	260120	163139	101.370	12.249180	-56.420473	101.230	0.450	-0.610	0.070	101.340	-1.900	0.400																			1580056299.0	10.97	20.32
26/01/2020 16:31:40	26012020	260120	163140	101.270	12.249170	-56.420420	101.140	0.430	-0.740	0.220	101.250	-2.100	0.500																			1580056300.0	11.23	20.80
26/01/2020 16:31:41	26012020	260120	163141	101.160	12.249158	-56.420367	100.990	0.210	-0.590	0.480	101.140	-2.100	0.700																			1580056301.0	11.41	21.13
26/01/2020 16:31:42	26012020	260120	163142	101.010	12.249147	-56.420315	100.930	-0.190	-0.080	0.750	100.990	-1.700	1.000																			1580056302.0	11.48	21.26
26/01/2020 16:31:43	26012020	260120	163143	100.960	12.249133	-56.420267	101.040	-0.600	0.330	0.870	100.970	-1.200	1.200																			1580056303.0	11.23	20.80
26/01/2020 16:31:44	26012020	260120	163144	101.080	12.249122	-56.420217	101.200	-0.730	0.210	0.790	101.120	-1.100	1.200																			1580056304.0	10.82	20.04
26/01/2020 16:31:45	26012020	260120	163145	101.250	12.249110	-56.420163	101.250	-0.570	-0.220	0.650	101.270	-1.500	1.100																			1580056305.0	10.92	20.22
26/01/2020 16:31:46	26012020	260120	163146	101.280	12.249097	-56.420108	101.180	-0.300	-0.500	0.520	101.270	-1.800	0.900																			1580056306.0	11.46	21.22
26/01/2020 16:31:47	26012020	260120	163147	101.220	12.249085	-56.420057	101.140	-0.040	-0.390	0.400	101.210	-1.900	0.800																			1580056307.0	11.73	21.72
26/01/2020 16:31:48	26012020	260120	163148	101.170	12.249075	-56.420005	101.120	0.180	-0.190	0.220	101.170	-1.600	0.700																			1580056308.0	11.47	21.24
26/01/2020 16:31:49	26012020	260120	163149	101.170	12.249067	-56.419953	101.170	0.350	-0.160	-0.040	101.170	-1.600	0.400																			1580056309.0	11.04	20.45
26/01/2020 16:31:50	26012020	260120	163150	101.230	12.249058	-56.419902	101.240	0.390	-0.180	-0.200	101.240	-1.600	0.200																			1580056310.0	11.02	20.41
26/01/2020 16:31:51	26012020	260120	163151	101.310	12.249048	-56.419850	101.320	0.400	-0.270	-0.030	101.330	-1.600	0.200																			1580056311.0	11.22	20.78
26/01/2020 16:31:52	26012020	260120	163152	101.380	12.249037	-56.419797	101.330	0.480	-0.410	0.330	101.390	-1.800	0.600																			1580056312.0	11.19	20.72
26/01/2020 16:31:53	26012020	260120	163153	101.370	12.249025	-56.419745	101.320	0.490	-0.420	0.480	101.370	-1.800	0.800																			1580056313.0	11.28	20.89
26/01/2020 16:31:54	26012020	260120	163154	101.370	12.249015	-56.419693	101.440	0.260	-0.140	0.530	101.380	-1.700	0.900																			1580056314.0	11.40	21.11
26/01/2020 16:31:55	26012020	260120	163155	101.490	12.249005	-56.419642	101.630	-0.200	0.240	0.500	101.520	-1.300	0.900																			1580056315.0	11.22	20.78
26/01/2020 16:31:56	26012020	260120	163156	101.680	12.248995	-56.419593	101.720	-0.650	0.280	0.490	101.710	-1.100	0.800																			1580056316.0	10.86	20.11
26/01/2020 16:31:57	26012020	260120	163157	101.770	12.248982	-56.419543	101.690	-0.780	-0.250	0.580	101.760	-1.400	0.900																			1580056317.0	10.66	19.74
26/01/2020 16:31:58	26012020	260120	163158	101.720	12.248968	-56.419490	101.610	-0.480	-0.980	0.620	101.700	-2.100	1.000																			1580056318.0	10.97	20.32
26/01/2020 16:31:59	26012020	260120	163159	101.640	12.248955	-56.419435	101.470	0.010	-1.240	0.540	101.610	-2.600	0.900	1015.40	26.40	26.40	18.90	19.10	938.00	63.00	64.00	371.00	29.40	348.00	9.10	71.00	3.60	68244	3235.00	27.60	27.60	1580056319.0	11.62	21.52
26/01/2020 16:32:00	26012020	260120	163200	101.490	12.248943	-56.419382	101.230	0.330	-0.970	0.430	101.450	-2.500	0.800																			1580056320.0	11.85	21.95
26/01/2020 16:32:01	26012020	260120	163201	101.250	12.248933	-56.419332	101.030	0.370	-0.420	0.340	101.200	-2.000	0.700																			1580056321.0	11.47	21.24
26/01/2020 16:32:02	26012020	260120	163202	101.050	12.248923	-56.419280	100.990	0.220	0.100	0.170	101.040	-1.500	0.600																			1580056322.0	11.11	20.58
26/01/2020 16:32:03	26012020	260120	163203	101.040	12.248915	-56.419228	101.020	0.040	0.310	0.090	101.040	-1.100	0.500																			1580056323.0	10.94	20.26
26/01/2020 16:32:04	26012020	260120	163204	101.070	12.248905	-56.419177	101.110	-0.080	0.240	0.140	101.090	-1.100	0.500																			1580056324.0	11.03	20.43
26/01/2020 16:32:05	26012020	260120	163205	101.170	12.248893	-56.419123	101.250	-0.100	0.050	0.320	101.190	-1.300	0.600																			1580056325.0	11.30	20.93
26/01/2020 16:32:06	26012020	260120	163206	101.280	12.248882	-56.419070	101.390	-0.120	-0.060	0.610	101.310	-1.400	0.900																			1580056326.0	11.47	21.24
26/01/2020 16:32:07	26012020	260120	163207	101.400	12.248868	-56.419018	101.500	-0.260	0.040	0.800	101.430	-1.400	1.100																			1580056327.0	11.51	21.32
26/01/2020 16:32:08	26012020	260120	163208	101.510	12.248855	-56.418968	101.580	-0.400	0.170	0.880	101.530	-1.200	1.200																			1580056328.0	11.30	20.93
26/01/2020 16:32:09	26012020	260120	163209	101.590	12.248843	-56.418920	101.600	-0.260	-0.090	0.700	101.600	-1.300	1.200																			1580056329.0	10.89	20.17
26/01/2020 16:32:10	26012020	260120	163210	101.620	12.248833	-56.418867	101.590	0.230	-0.710	0.260	101.620	-1.900	0.800																			1580056330.0	10.76	19.93
26/01/2020 16:32:11	26012020	260120	163211	101.620	12.248823	-56.418813	101.620	0.690	-1.030	-0.090	101.620	-2.400	0.400																			1580056331.0	11.22	20.78
26/01/2020 16:32:12	26012020	260120	163212	101.650	12.248815	-56.418760	101.650	0.770	-0.770	-0.230	101.660	-2.300	0.200																			1580056332.0	11.67	21.61
26/01/2020 16:32:13	26012020	260120	163213	101.680	12.248807	-56.418710	101.560	0.490	-0.330	-0.060	101.670	-1.900	0.200																			1580056333.0	11.36	21.04
26/01/2020 16:32:14	26012020	260120	163214	101.570	12.248797	-56.418660	101.360	0.160	-0.210	0.360	101.540	-1.600	0.600																			1580056334.0	10.79	19.98
26/01/2020 16:32:15	26012020	260120	163215	101.370	12.248785	-56.418608	101.250	-0.080	-0.390	0.610	101.330	-1.700	0.900																			1580056335.0	10.71	19.83
26/01/2020 16:32:16	26012020	260120	163216	101.260	12.248773	-56.418555	101.230	-0.270	-0.470	0.680	101.260	-1.900	1.000																			1580056336.0	11.21	20.76
26/01/2020 16:32:17	26012020	260120	163217	101.220	12.248762	-56.418502	101.130	-0.510	-0.280	0.710	101.210	-1.800	1.100																			1580056337.0	11.56	21.41
26/01/2020 16:32:18	26012020	260120	163218	101.120	12.248748	-56.418452	101.020	-0.740	-0.030	0.730	101.100	-1.500	1.100																			1580056338.0	11.46	21.22
26/01/2020 16:32:19	26012020	260120	163219	101.000	12.248735	-56.418400	100.910	-0.730	-0.070	0.710	100.980	-1.400	1.100																			1580056339.0	11.17	20.69
26/01/2020 16:32:20	26012020	260120	163220	100.890	12.248722	-56.418347	100.800	-0.360	-0.370	0.660	100.870	-1.600	1.000																			1580056340.0	11.14	20.63
26/01/2020 16:32:21	26012020	260120	163221	100.790	12.248710	-56.418293	100.830	0.140	-0.430	0.390	100.790	-1.900	0.900																			1580056341.0	11.50	21.30
26/01/2020 16:32:22	26012020	260120	163222	100.830	12.248698	-56.418240	101.000	0.320	0.130	0.090	100.860	-1.500	0.500																			1580056342.0	11.83	21.91
26/01/2020 16:32:23	26012020	260120	163223	101.010	12.248690	-56.418190	101.200	0.120	0.830	-0.110	101.050	-0.800	0.300																			1580056343.0	11.51	21.32
26/01/2020 16:32:24	26012020	260120	163224	101.220	12.248682	-56.418143	101.370	-0.000	0.850	-0.270	101.270	-0.400	0.100																			1580056344.0	10.62	19.67
26/01/2020 16:32:25	26012020	260120	163225	101.400	12.248673	-56.418092	101.460	0.320	-0.040	-0.270	101.430	-1.000	0.100																			1580056345.0	10.23	18.95
26/01/2020 16:32:26	26012020	260120	163226	101.490	12.248663	-56.418037	101.550	0.790	-1.080	-0.060	101.510	-2.200	0.200																			1580056346.0	10.87	20.13
26/01/2020 16:32:27	26012020	260120	163227	101.580	12.248653	-56.417982	101.610	0.860	-1.370	0.410	101.600	-2.800	0.600																			1580056347.0	11.77	21.80
26/01/2020 16:32:28	26012020	260120	163228	101.620	12.248642	-56.417932	101.480	0.390	-0.870	0.870	101.600	-2.500	1.100																			1580056348.0	11.85	21.95
26/01/2020 16:32:29	26012020	260120	163229	101.460	12.248630	-56.417883	101.170	-0.280	-0.310	1.120	101.400	-1.900	1.400																			1580056349.0	11.03	20.43
26/01/2020 16:32:30	26012020	260120	163230	101.140	12.248618	-56.417835	100.860	-0.660	-0.280	1.180	101.070	-1.600	1.500																			1580056350.0	10.35	19.17
26/01/2020 16:32:31	26012020	260120	163231	100.820	12.248607	-56.417783	100.630	-0.570	-0.700	1.050	100.770	-1.900	1.500																			1580056351.0	10.52	19.48
26/01/2020 16:32:32	26012020	260120	163232	100.610	12.248593	-56.417728	100.460	-0.240	-0.970	0.890	100.570	-2.300	1.300																			1580056352.0	11.32	20.96
26/01/2020 16:32:33	26012020	260120	163233	100.430	12.248582	-56.417673	100.280	-0.090	-0.580	0.820	100.390	-2.200	1.200																			1580056353.0	11.93	22.09
26/01/2020 16:32:34	26012020	260120	163234	100.250	12.248568	-56.417622	100.160	-0.290	0.350	0.700	100.210	-1.400	1.100																			1580056354.0	11.91	22.06
26/01/2020 16:32:35	26012020	260120	163235	100.150	12.248558	-56.417573	100.350	-0.560	1.110	0.370	100.160	-0.500	0.900																			1580056355.0	11.23	20.80
26/01/2020 16:32:36	26012020	260120	163236	100.360	12.248548	-56.417525	100.820	-0.470	1.000	-0.120	100.450	-0.300	0.400																			1580056356.0	10.54	19.52
26/01/2020 16:32:37	26012020	260120	163237	100.860	12.248542	-56.417472	101.280	0.080	0.130	-0.440	100.970	-0.900	-0.000																			1580056357.0	10.55	19.54
26/01/2020 16:32:38	26012020	260120	163238	101.320	12.248532	-56.417417	101.540	0.660	-0.600	-0.330	101.390	-1.800	-0.100																			1580056358.0	11.33	20.98
26/01/2020 16:32:39	26012020	260120	163239	101.560	12.248522	-56.417362	101.610	0.810	-0.630	0.060	101.580	-2.100	0.300																			1580056359.0	11.92	22.08
26/01/2020 16:32:40	26012020	260120	163240	101.600	12.248512	-56.417313	101.530	0.520	-0.340	0.360	101.590	-1.800	0.600																			1580056360.0	11.56	21.41
26/01/2020 16:32:41	26012020	260120	163241	101.510	12.248502	-56.417265	101.370	0.150	-0.340	0.510	101.480	-1.700	0.800																			1580056361.0	10.66	19.74
26/01/2020 16:32:42	26012020	260120	163242	101.350	12.248492	-56.417215	101.270	-0.030	-0.600	0.450	101.330	-1.900	0.800																			1580056362.0	10.39	19.24
26/01/2020 16:32:43	26012020	260120	163243	101.250	12.248482	-56.417163	101.130	-0.020	-0.850	0.470	101.220	-2.200	0.800																			1580056363.0	10.81	20.02
26/01/2020 16:32:44	26012020	260120	163244	101.100	12.248470	-56.417110	100.860	0.030	-0.940	0.710	101.060	-2.300	1.000																			1580056364.0	11.19	20.72
26/01/2020 16:32:45	26012020	260120	163245	100.800	12.248458	-56.417058	100.530	-0.080	-0.710	0.980	100.730	-2.200	1.300																			1580056365.0	11.34	21.00
26/01/2020 16:32:46	26012020	260120	163246	100.480	12.248445	-56.417007	100.330	-0.380	-0.170	0.970	100.430	-1.800	1.400																			1580056366.0	11.40	21.11
26/01/2020 16:32:47	26012020	260120	163247	100.300	12.248433	-56.416957	100.330	-0.610	0.340	0.630	100.290	-1.200	1.100																			1580056367.0	11.17	20.69
26/01/2020 16:32:48	26012020	260120	163248	100.320	12.248423	-56.416907	100.460	-0.420	0.330	0.190	100.350	-1.000	0.700																			1580056368.0	10.82	20.04
26/01/2020 16:32:49	26012020	260120	163249	100.460	12.248413	-56.416853	100.540	0.070	-0.030	-0.040	100.480	-1.300	0.400																			1580056369.0	10.85	20.09
26/01/2020 16:32:50	26012020	260120	163250	100.550	12.248403	-56.416800	100.680	0.380	-0.200	-0.010	100.570	-1.600	0.300																			1580056370.0	11.43	21.17
26/01/2020 16:32:51	26012020	260120	163251	100.690	12.248393	-56.416747	100.850	0.340	-0.060	0.160	100.730	-1.500	0.500																			1580056371.0	11.72	21.71
26/01/2020 16:32:52	26012020	260120	163252	100.860	12.248383	-56.416697	100.930	0.150	0.050	0.300	100.880	-1.400	0.600																			1580056372.0	11.27	20.87
26/01/2020 16:32:53	26012020	260120	163253	100.930	12.248373	-56.416647	100.950	0.090	-0.130	0.320	100.940	-1.400	0.700																			1580056373.0	10.79	19.98
26/01/2020 16:32:54	26012020	260120	163254	100.950	12.248365	-56.416595	100.970	0.200	-0.510	0.320	100.950	-1.800	0.700																			1580056374.0	10.79	19.98
26/01/2020 16:32:55	26012020	260120	163255	100.970	12.248355	-56.416542	101.020	0.190	-0.590	0.390	100.980	-2.000	0.700																			1580056375.0	11.12	20.59
26/01/2020 16:32:56	26012020	260120	163256	101.020	12.248343	-56.416492	101.020	-0.110	-0.250	0.530	101.030	-1.800	0.800																			1580056376.0	11.37	21.06
26/01/2020 16:32:57	26012020	260120	163257	101.010	12.248332	-56.416443	100.880	-0.410	-0.140	0.650	100.990	-1.500	1.000																			1580056377.0	10.97	20.32
26/01/2020 16:32:58	26012020	260120	163258	100.840	12.248320	-56.416393	100.630	-0.310	-0.550	0.700	100.800	-1.800	1.000																			1580056378.0	10.49	19.43
26/01/2020 16:32:59	26012020	260120	163259	100.580	12.248308	-56.416340	100.330	0.040	-0.920	0.670	100.520	-2.200	1.100	1015.50	26.40	26.50	19.00	19.10	938.00	63.00	63.00	372.00	29.50	354.00	9.00	84.00	3.40	68144	3133.00	27.60	27.60	1580056379.0	10.90	20.19
26/01/2020 16:33:00	26012020	260120	163300	100.310	12.248298	-56.416287	100.200	0.260	-0.730	0.410	100.270	-2.200	0.900																			1580056380.0	11.61	21.50
26/01/2020 16:33:01	26012020	260120	163301	100.200	12.248288	-56.416235	100.190	0.190	-0.140	0.200	100.190	-1.700	0.600																			1580056381.0	11.62	21.52
26/01/2020 16:33:02	26012020	260120	163302	100.180	12.248280	-56.416185	100.230	-0.030	0.360	0.170	100.180	-1.200	0.500																			1580056382.0	11.08	20.52
26/01/2020 16:33:03	26012020	260120	163303	100.230	12.248270	-56.416135	100.390	-0.210	0.460	0.220	100.260	-0.900	0.600																			1580056383.0	10.72	19.85
26/01/2020 16:33:04	26012020	260120	163304	100.420	12.248258	-56.416083	100.670	-0.130	0.100	0.310	100.470	-1.100	0.600																			1580056384.0	10.79	19.98
26/01/2020 16:33:05	26012020	260120	163305	100.700	12.248247	-56.416030	100.930	0.180	-0.330	0.480	100.760	-1.600	0.800																			1580056385.0	11.10	20.56
26/01/2020 16:33:06	26012020	260120	163306	100.940	12.248237	-56.415977	100.990	0.370	-0.380	0.590	100.970	-1.800	0.900																			1580056386.0	11.50	21.30
26/01/2020 16:33:07	26012020	260120	163307	101.000	12.248227	-56.415927	101.000	0.290	-0.240	0.500	101.000	-1.700	0.900																			1580056387.0	11.44	21.19
26/01/2020 16:33:08	26012020	260120	163308	101.000	12.248218	-56.415877	101.080	0.060	-0.240	0.340	101.020	-1.600	0.800																			1580056388.0	10.93	20.24
26/01/2020 16:33:09	26012020	260120	163309	101.090	12.248208	-56.415825	101.130	-0.150	-0.440	0.300	101.110	-1.700	0.700																			1580056389.0	10.72	19.85
26/01/2020 16:33:10	26012020	260120	163310	101.130	12.248198	-56.415773	100.980	-0.290	-0.660	0.510	101.110	-2.000	0.800																			1580056390.0	10.92	20.22
26/01/2020 16:33:11	26012020	260120	163311	100.950	12.248187	-56.415722	100.700	-0.310	-0.670	0.850	100.890	-2.100	1.100																			1580056391.0	11.18	20.71
26/01/2020 16:33:12	26012020	260120	163312	100.660	12.248173	-56.415672	100.470	-0.240	-0.470	0.980	100.610	-1.900	1.300																			1580056392.0	11.28	20.89
26/01/2020 16:33:13	26012020	260120	163313	100.430	12.248162	-56.415620	100.310	-0.070	-0.320	0.780	100.400	-1.700	1.200																			1580056393.0	11.17	20.69
26/01/2020 16:33:14	26012020	260120	163314	100.280	12.248152	-56.415568	100.170	0.170	-0.290	0.470	100.260	-1.700	0.900																			1580056394.0	11.09	20.54
26/01/2020 16:33:15	26012020	260120	163315	100.150	12.248143	-56.415515	100.170	0.310	-0.100	0.140	100.140	-1.600	0.600																			1580056395.0	11.24	20.82
26/01/2020 16:33:16	26012020	260120	163316	100.180	12.248135	-56.415462	100.380	0.170	0.310	-0.090	100.220	-1.200	0.300																			1580056396.0	11.44	21.19
26/01/2020 16:33:17	26012020	260120	163317	100.400	12.248127	-56.415412	100.640	-0.070	0.500	0.020	100.450	-0.900	0.300																			1580056397.0	11.19	20.72
26/01/2020 16:33:18	26012020	260120	163318	100.660	12.248117	-56.415362	100.860	-0.160	0.180	0.300	100.710	-1.100	0.600																			1580056398.0	10.75	19.91
26/01/2020 16:33:19	26012020	260120	163319	100.870	12.248105	-56.415310	100.980	-0.120	-0.270	0.500	100.890	-1.500	0.800																			1580056399.0	10.90	20.19
26/01/2020 16:33:20	26012020	260120	163320	100.980	12.248093	-56.415257	101.070	-0.060	-0.540	0.620	100.990	-1.900	0.900																			1580056400.0	11.33	20.98
26/01/2020 16:33:21	26012020	260120	163321	101.060	12.248082	-56.415207	101.150	0.000	-0.600	0.550	101.090	-2.000	1.000																			1580056401.0	11.32	20.96
26/01/2020 16:33:22	26012020	260120	163322	101.150	12.248072	-56.415157	101.080	0.120	-0.660	0.400	101.150	-2.000	0.800																			1580056402.0	11.04	20.45
26/01/2020 16:33:23	26012020	260120	163323	101.060	12.248062	-56.415105	100.860	0.230	-0.700	0.350	101.030	-2.100	0.700																			1580056403.0	10.90	20.19
26/01/2020 16:33:24	26012020	260120	163324	100.840	12.248052	-56.415053	100.630	0.230	-0.540	0.300	100.790	-2.000	0.700																			1580056404.0	11.08	20.52
26/01/2020 16:33:25	26012020	260120	163325	100.600	12.248042	-56.415002	100.460	0.150	-0.230	0.220	100.560	-1.700	0.600																			1580056405.0	11.18	20.71
26/01/2020 16:33:26	26012020	260120	163326	100.450	12.248033	-56.414950	100.450	0.060	-0.070	0.090	100.440	-1.500	0.500																			1580056406.0	11.03	20.43
26/01/2020 16:33:27	26012020	260120	163327	100.460	12.248025	-56.414898	100.560	0.000	-0.160	0.060	100.480	-1.500	0.400																			1580056407.0	10.96	20.30
26/01/2020 16:33:28	26012020	260120	163328	100.560	12.248013	-56.414845	100.580	-0.130	-0.180	0.340	100.580	-1.600	0.600																			1580056408.0	11.19	20.72
26/01/2020 16:33:29	26012020	260120	163329	100.560	12.248002	-56.414793	100.430	-0.330	-0.030	0.690	100.540	-1.500	0.900																			1580056409.0	11.47	21.24
26/01/2020 16:33:30	26012020	260120	163330	100.390	12.247988	-56.414743	100.300	-0.400	-0.020	0.830	100.360	-1.400	1.200																			1580056410.0	11.29	20.91
26/01/2020 16:33:31	26012020	260120	163331	100.270	12.247978	-56.414692	100.350	-0.250	-0.260	0.630	100.270	-1.600	1.100																			1580056411.0	11.03	20.43
26/01/2020 16:33:32	26012020	260120	163332	100.330	12.247968	-56.414638	100.510	-0.060	-0.420	0.320	100.370	-1.800	0.800																			1580056412.0	11.19	20.72
26/01/2020 16:33:33	26012020	260120	163333	100.510	12.247958	-56.414585	100.620	-0.020	-0.250	0.260	100.540	-1.700	0.600																			1580056413.0	11.47	21.24
26/01/2020 16:33:34	26012020	260120	163334	100.620	12.247947	-56.414535	100.610	-0.080	0.100	0.430	100.620	-1.400	0.700																			1580056414.0	11.29	20.91
26/01/2020 16:33:35	26012020	260120	163335	100.590	12.247937	-56.414487	100.610	-0.100	0.200	0.410	100.590	-1.200	0.800																			1580056415.0	10.86	20.11
26/01/2020 16:33:36	26012020	260120	163336	100.600	12.247927	-56.414435	100.710	0.030	-0.150	0.150	100.620	-1.400	0.600																			1580056416.0	10.64	19.71
26/01/2020 16:33:37	26012020	260120	163337	100.710	12.247918	-56.414382	100.700	0.250	-0.580	-0.070	100.720	-1.800	0.400																			1580056417.0	10.90	20.19
26/01/2020 16:33:38	26012020	260120	163338	100.690	12.247910	-56.414328	100.610	0.440	-0.760	-0.140	100.670	-2.100	0.200																			1580056418.0	11.35	21.02
26/01/2020 16:33:39	26012020	260120	163339	100.600	12.247902	-56.414277	100.560	0.510	-0.740	0.060	100.590	-2.200	0.300																			1580056419.0	11.38	21.08
26/01/2020 16:33:40	26012020	260120	163340	100.540	12.247892	-56.414225	100.570	0.350	-0.520	0.320	100.540	-2.000	0.600																			1580056420.0	11.19	20.72
26/01/2020 16:33:41	26012020	260120	163341	100.550	12.247882	-56.414175	100.550	-0.040	-0.160	0.510	100.550	-1.700	0.800																			1580056421.0	11.14	20.63
26/01/2020 16:33:42	26012020	260120	163342	100.530	12.247872	-56.414125	100.460	-0.370	0.010	0.750	100.510	-1.400	1.000																			1580056422.0	10.99	20.35
26/01/2020 16:33:43	26012020	260120	163343	100.440	12.247860	-56.414073	100.430	-0.390	-0.250	0.850	100.420	-1.500	1.200																			1580056423.0	10.85	20.09
26/01/2020 16:33:44	26012020	260120	163344	100.400	12.247848	-56.414018	100.490	-0.200	-0.550	0.770	100.400	-1.900	1.200																			1580056424.0	11.14	20.63
26/01/2020 16:33:45	26012020	260120	163345	100.470	12.247837	-56.413965	100.650	-0.110	-0.310	0.520	100.490	-1.900	1.000																			1580056425.0	11.68	21.63
26/01/2020 16:33:46	26012020	260120	163346	100.640	12.247827	-56.413913	100.820	-0.270	0.330	0.280	100.670	-1.300	0.700																			1580056426.0	11.69	21.65
26/01/2020 16:33:47	26012020	260120	163347	100.820	12.247817	-56.413865	100.960	-0.430	0.610	0.070	100.860	-0.800	0.500																			1580056427.0	10.99	20.35
26/01/2020 16:33:48	26012020	260120	163348	100.970	12.247808	-56.413815	101.040	-0.290	0.100	-0.070	100.990	-1.000	0.300																			1580056428.0	10.43	19.32
26/01/2020 16:33:49	26012020	260120	163349	101.060	12.247798	-56.413762	101.150	0.090	-0.660	-0.150	101.080	-1.800	0.200																			1580056429.0	10.79	19.98
26/01/2020 16:33:50	26012020	260120	163350	101.170	12.247788	-56.413707	101.280	0.340	-0.870	-0.050	101.200	-2.300	0.200																			1580056430.0	11.61	21.50
26/01/2020 16:33:51	26012020	260120	163351	101.280	12.247778	-56.413655	101.330	0.320	-0.560	0.260	101.290	-2.100	0.500																			1580056431.0	11.77	21.80
26/01/2020 16:33:52	26012020	260120	163352	101.310	12.247767	-56.413607	101.350	0.230	-0.260	0.440	101.320	-1.700	0.800																			1580056432.0	11.11	20.58
26/01/2020 16:33:53	26012020	260120	163353	101.330	12.247755	-56.413557	101.310	0.210	-0.250	0.390	101.330	-1.600	0.800																			1580056433.0	10.64	19.71
26/01/2020 16:33:54	26012020	260120	163354	101.290	12.247747	-56.413505	101.230	0.180	-0.330	0.220	101.270	-1.700	0.600																			1580056434.0	10.81	20.02
26/01/2020 16:33:55	26012020	260120	163355	101.220	12.247737	-56.413452	101.210	0.080	-0.290	0.120	101.220	-1.700	0.500																			1580056435.0	11.19	20.72
26/01/2020 16:33:56	26012020	260120	163356	101.220	12.247727	-56.413400	101.280	-0.070	-0.150	0.070	101.220	-1.700	0.500																			1580056436.0	11.32	20.96
26/01/2020 16:33:57	26012020	260120	163357	101.280	12.247717	-56.413348	101.420	-0.190	-0.060	0.020	101.310	-1.500	0.400																			1580056437.0	11.15	20.65
26/01/2020 16:33:58	26012020	260120	163358	101.440	12.247707	-56.413298	101.640	-0.230	-0.120	0.090	101.480	-1.500	0.400																			1580056438.0	11.05	20.46
26/01/2020 16:33:59	26012020	260120	163359	101.650	12.247695	-56.413245	101.760	-0.160	-0.230	0.260	101.680	-1.600	0.500	1015.50	26.40	26.50	18.90	19.00	934.00	63.00	63.00	373.00	29.50	353.00	9.20	83.00	3.60	67971	3183.00	27.60	27.60	1580056439.0	11.10	20.56
26/01/2020 16:34:00	26012020	260120	163400	101.760	12.247682	-56.413193	101.700	-0.040	-0.280	0.420	101.760	-1.700	0.700																			1580056440.0	11.26	20.85
26/01/2020 16:34:01	26012020	260120	163401	101.680	12.247670	-56.413143	101.570	0.070	-0.310	0.560	101.660	-1.700	0.900																			1580056441.0	11.27	20.87
26/01/2020 16:34:02	26012020	260120	163402	101.570	12.247658	-56.413092	101.540	0.130	-0.380	0.420	101.560	-1.700	0.900																			1580056442.0	11.18	20.71
26/01/2020 16:34:03	26012020	260120	163403	101.560	12.247650	-56.413038	101.560	0.090	-0.420	0.100	101.570	-1.800	0.600																			1580056443.0	11.16	20.67
26/01/2020 16:34:04	26012020	260120	163404	101.570	12.247640	-56.412987	101.450	-0.050	-0.350	0.080	101.560	-1.800	0.400																			1580056444.0	11.24	20.82
26/01/2020 16:34:05	26012020	260120	163405	101.450	12.247628	-56.412935	101.270	-0.190	-0.200	0.330	101.420	-1.600	0.600																			1580056445.0	11.24	20.82
26/01/2020 16:34:06	26012020	260120	163406	101.260	12.247617	-56.412885	101.160	-0.170	-0.150	0.440	101.230	-1.500	0.800																			1580056446.0	11.09	20.54
26/01/2020 16:34:07	26012020	260120	163407	101.170	12.247605	-56.412833	101.210	-0.050	-0.230	0.330	101.160	-1.600	0.700																			1580056447.0	11.06	20.48
26/01/2020 16:34:08	26012020	260120	163408	101.230	12.247593	-56.412780	101.420	0.010	-0.240	0.100	101.270	-1.600	0.500																			1580056448.0	11.22	20.78
26/01/2020 16:34:09	26012020	260120	163409	101.450	12.247583	-56.412728	101.610	-0.030	-0.040	-0.080	101.500	-1.500	0.300																			1580056449.0	11.35	21.02
26/01/2020 16:34:10	26012020	260120	163410	101.640	12.247573	-56.412678	101.610	-0.040	0.110	-0.040	101.650	-1.300	0.300																			1580056450.0	11.18	20.71
26/01/2020 16:34:11	26012020	260120	163411	101.620	12.247562	-56.412628	101.550	0.100	-0.110	0.110	101.610	-1.400	0.400																			1580056451.0	10.89	20.17
26/01/2020 16:34:12	26012020	260120	163412	101.580	12.247552	-56.412575	101.660	0.350	-0.490	0.160	101.590	-1.800	0.500																			1580056452.0	10.95	20.28
26/01/2020 16:34:13	26012020	260120	163413	101.700	12.247542	-56.412522	101.830	0.500	-0.670	0.020	101.730	-2.000	0.400																			1580056453.0	11.35	21.02
26/01/2020 16:34:14	26012020	260120	163414	101.850	12.247532	-56.412468	101.900	0.390	-0.560	-0.020	101.880	-2.000	0.300																			1580056454.0	11.49	21.28
26/01/2020 16:34:15	26012020	260120	163415	101.930	12.247523	-56.412418	101.940	0.010	-0.250	0.180	101.940	-1.800	0.400																			1580056455.0	11.29	20.91
26/01/2020 16:34:16	26012020	260120	163416	101.960	12.247510	-56.412368	101.910	-0.460	0.060	0.560	101.960	-1.400	0.800																			1580056456.0	11.05	20.46
26/01/2020 16:34:17	26012020	260120	163417	101.920	12.247497	-56.412318	101.750	-0.680	-0.010	0.810	101.890	-1.300	1.100																			1580056457.0	10.83	20.06
26/01/2020 16:34:18	26012020	260120	163418	101.740	12.247482	-56.412268	101.480	-0.430	-0.570	0.770	101.690	-1.700	1.200																			1580056458.0	10.83	20.06
26/01/2020 16:34:19	26012020	260120	163419	101.460	12.247468	-56.412213	101.220	0.100	-1.040	0.560	101.400	-2.300	1.000																			1580056459.0	11.29	20.91
26/01/2020 16:34:20	26012020	260120	163420	101.220	12.247458	-56.412158	101.160	0.380	-0.720	0.260	101.190	-2.300	0.700																			1580056460.0	11.92	22.08
26/01/2020 16:34:21	26012020	260120	163421	101.180	12.247448	-56.412107	101.270	0.180	0.180	-0.010	101.200	-1.500	0.400																			1580056461.0	11.89	22.02
26/01/2020 16:34:22	26012020	260120	163422	101.290	12.247440	-56.412058	101.360	-0.150	0.710	-0.100	101.320	-0.800	0.300																			1580056462.0	11.02	20.41
26/01/2020 16:34:23	26012020	260120	163423	101.380	12.247428	-56.412008	101.470	-0.220	0.450	0.000	101.400	-0.800	0.300																			1580056463.0	10.38	19.22
26/01/2020 16:34:24	26012020	260120	163424	101.500	12.247417	-56.411955	101.710	0.030	-0.100	0.080	101.530	-1.300	0.400																			1580056464.0	10.78	19.96
26/01/2020 16:34:25	26012020	260120	163425	101.750	12.247405	-56.411902	102.050	0.330	-0.380	0.050	101.820	-1.700	0.400																			1580056465.0	11.50	21.30
26/01/2020 16:34:26	26012020	260120	163426	102.090	12.247393	-56.411850	102.280	0.380	-0.290	0.040	102.150	-1.700	0.400																			1580056466.0	11.64	21.56
26/01/2020 16:34:27	26012020	260120	163427	102.310	12.247383	-56.411800	102.330	0.190	-0.210	0.130	102.340	-1.600	0.400																			1580056467.0	11.19	20.72
26/01/2020 16:34:28	26012020	260120	163428	102.340	12.247373	-56.411752	102.170	0.010	-0.430	0.310	102.320	-1.700	0.600																			1580056468.0	10.74	19.89
26/01/2020 16:34:29	26012020	260120	163429	102.150	12.247362	-56.411700	101.830	0.020	-0.870	0.460	102.090	-2.100	0.800																			1580056469.0	10.75	19.91
26/01/2020 16:34:30	26012020	260120	163430	101.800	12.247350	-56.411647	101.410	0.100	-1.150	0.620	101.720	-2.500	0.900																			1580056470.0	11.17	20.69
26/01/2020 16:34:31	26012020	260120	163431	101.380	12.247338	-56.411593	101.030	0.050	-1.000	0.740	101.290	-2.500	1.100																			1580056471.0	11.56	21.41
26/01/2020 16:34:32	26012020	260120	163432	101.000	12.247327	-56.411540	100.800	-0.130	-0.580	0.690	100.940	-2.100	1.100																			1580056472.0	11.56	21.41
26/01/2020 16:34:33	26012020	260120	163433	100.780	12.247315	-56.411488	100.760	-0.280	-0.130	0.600	100.760	-1.700	1.000																			1580056473.0	11.29	20.91
26/01/2020 16:34:34	26012020	260120	163434	100.760	12.247302	-56.411437	100.870	-0.360	0.380	0.470	100.770	-1.200	0.900																			1580056474.0	11.21	20.76
26/01/2020 16:34:35	26012020	260120	163435	100.880	12.247290	-56.411387	101.010	-0.400	0.810	0.250	100.900	-0.700	0.700																			1580056475.0	11.27	20.87
26/01/2020 16:34:36	26012020	260120	163436	101.020	12.247278	-56.411337	101.160	-0.320	0.870	0.050	101.050	-0.500	0.500																			1580056476.0	11.09	20.54
26/01/2020 16:34:37	26012020	260120	163437	101.180	12.247267	-56.411285	101.370	-0.030	0.420	-0.110	101.220	-0.800	0.300																			1580056477.0	10.95	20.28
26/01/2020 16:34:38	26012020	260120	163438	101.410	12.247257	-56.411232	101.600	0.350	-0.260	-0.200	101.450	-1.400	0.200																			1580056478.0	11.12	20.59
26/01/2020 16:34:39	26012020	260120	163439	101.640	12.247248	-56.411178	101.760	0.550	-0.630	-0.120	101.680	-1.900	0.200																			1580056479.0	11.46	21.22
26/01/2020 16:34:40	26012020	260120	163440	101.780	12.247238	-56.411127	101.810	0.470	-0.610	0.140	101.790	-2.000	0.400																			1580056480.0	11.52	21.34
26/01/2020 16:34:41	26012020	260120	163441	101.820	12.247228	-56.411077	101.800	0.320	-0.660	0.460	101.810	-2.000	0.700																			1580056481.0	11.04	20.45
26/01/2020 16:34:42	26012020	260120	163442	101.780	12.247217	-56.411027	101.690	0.240	-0.910	0.770	101.770	-2.200	1.000																			1580056482.0	10.64	19.71
26/01/2020 16:34:43	26012020	260120	163443	101.660	12.247205	-56.410975	101.410	0.220	-1.100	0.960	101.610	-2.400	1.300																			1580056483.0	10.90	20.19
26/01/2020 16:34:44	26012020	260120	163444	101.360	12.247193	-56.410922	100.940	0.210	-1.100	1.080	101.270	-2.500	1.400																			1580056484.0	11.31	20.95
26/01/2020 16:34:45	26012020	260120	163445	100.870	12.247180	-56.410868	100.500	0.100	-0.830	1.150	100.760	-2.400	1.500																			1580056485.0	11.47	21.24
26/01/2020 16:34:46	26012020	260120	163446	100.440	12.247170	-56.410817	100.360	-0.220	-0.200	0.910	100.390	-1.800	1.400																			1580056486.0	11.53	21.35
26/01/2020 16:34:47	26012020	260120	163447	100.340	12.247158	-56.410765	100.500	-0.700	0.620	0.580	100.360	-1.100	1.000																			1580056487.0	11.46	21.22
26/01/2020 16:34:48	26012020	260120	163448	100.500	12.247148	-56.410715	100.710	-1.050	1.150	0.510	100.540	-0.400	0.900																			1580056488.0	11.11	20.58
26/01/2020 16:34:49	26012020	260120	163449	100.720	12.247135	-56.410665	100.850	-0.920	0.860	0.550	100.750	-0.300	0.900																			1580056489.0	10.77	19.95
26/01/2020 16:34:50	26012020	260120	163450	100.870	12.247122	-56.410612	101.020	-0.280	-0.050	0.360	100.890	-1.100	0.800																			1580056490.0	10.93	20.24
26/01/2020 16:34:51	26012020	260120	163451	101.050	12.247108	-56.410555	101.290	0.460	-0.550	-0.050	101.100	-1.900	0.500																			1580056491.0	11.65	21.58
26/01/2020 16:34:52	26012020	260120	163452	101.340	12.247100	-56.410502	101.600	0.780	-0.250	-0.510	101.400	-1.800	0.000																			1580056492.0	12.08	22.37
26/01/2020 16:34:53	26012020	260120	163453	101.650	12.247095	-56.410453	101.770	0.670	0.160	-0.720	101.700	-1.300	-0.300																			1580056493.0	11.40	21.11
26/01/2020 16:34:54	26012020	260120	163454	101.810	12.247088	-56.410405	101.720	0.570	-0.250	-0.470	101.810	-1.400	-0.300																			1580056494.0	10.36	19.19
26/01/2020 16:34:55	26012020	260120	163455	101.720	12.247078	-56.410353	101.460	0.690	-1.310	0.110	101.670	-2.300	0.200																			1580056495.0	10.26	19.00
26/01/2020 16:34:56	26012020	260120	163456	101.430	12.247067	-56.410298	101.100	0.670	-1.740	0.640	101.360	-3.100	0.800																			1580056496.0	11.26	20.85
26/01/2020 16:34:57	26012020	260120	163457	101.050	12.247053	-56.410245	100.730	0.230	-1.020	0.960	100.970	-2.800	1.200																			1580056497.0	12.12	22.45
26/01/2020 16:34:58	26012020	260120	163458	100.670	12.247042	-56.410197	100.450	-0.390	-0.030	1.160	100.600	-1.700	1.500																			1580056498.0	11.50	21.30
26/01/2020 16:34:59	26012020	260120	163459	100.390	12.247030	-56.410148	100.290	-0.800	0.290	1.130	100.360	-1.100	1.500	1015.50	26.40	26.40	19.30	19.30	935.00	65.00	65.00	373.00	29.50	353.00	9.10	82.00	3.50	68018	3139.00	27.60	27.60	1580056499.0	10.46	19.37
26/01/2020 16:35:00	26012020	260120	163500	100.250	12.247017	-56.410097	100.230	-0.900	0.140	0.860	100.230	-1.200	1.300																			1580056500.0	10.50	19.45
26/01/2020 16:35:01	26012020	260120	163501	100.200	12.247005	-56.410043	100.300	-0.830	0.200	0.600	100.200	-1.200	1.000																			1580056501.0	11.35	21.02
26/01/2020 16:35:02	26012020	260120	163502	100.280	12.246993	-56.409992	100.540	-0.670	0.360	0.370	100.320	-1.100	0.800																			1580056502.0	11.70	21.67
26/01/2020 16:35:03	26012020	260120	163503	100.540	12.246982	-56.409940	100.780	-0.320	0.170	0.220	100.600	-1.100	0.600																			1580056503.0	11.25	20.84
26/01/2020 16:35:04	26012020	260120	163504	100.770	12.246970	-56.409888	100.800	0.200	-0.360	0.230	100.790	-1.500	0.600																			1580056504.0	10.99	20.35
26/01/2020 16:35:05	26012020	260120	163505	100.770	12.246960	-56.409833	100.630	0.720	-0.700	0.280	100.730	-2.000	0.600																			1580056505.0	11.30	20.93
26/01/2020 16:35:06	26012020	260120	163506	100.600	12.246950	-56.409782	100.590	0.910	-0.470	0.210	100.570	-2.000	0.600																			1580056506.0	11.61	21.50
26/01/2020 16:35:07	26012020	260120	163507	100.570	12.246943	-56.409732	100.700	0.660	0.020	0.110	100.590	-1.500	0.500																			1580056507.0	11.37	21.06
26/01/2020 16:35:08	26012020	260120	163508	100.700	12.246937	-56.409682	100.830	0.220	0.140	0.110	100.730	-1.200	0.500																			1580056508.0	10.71	19.83
26/01/2020 16:35:09	26012020	260120	163509	100.820	12.246927	-56.409632	100.880	-0.060	-0.220	0.220	100.840	-1.400	0.500																			1580056509.0	10.42	19.30
26/01/2020 16:35:10	26012020	260120	163510	100.860	12.246915	-56.409580	100.750	-0.040	-0.720	0.520	100.850	-1.900	0.800																			1580056510.0	10.82	20.04
26/01/2020 16:35:11	26012020	260120	163511	100.700	12.246902	-56.409527	100.430	0.140	-0.980	0.750	100.640	-2.300	1.100																			1580056511.0	11.36	21.04
26/01/2020 16:35:12	26012020	260120	163512	100.380	12.246892	-56.409473	100.230	0.210	-0.780	0.620	100.330	-2.300	1.100																			1580056512.0	11.57	21.43
26/01/2020 16:35:13	26012020	260120	163513	100.210	12.246882	-56.409423	100.280	-0.020	-0.210	0.430	100.210	-1.800	0.800																			1580056513.0	11.42	21.15
26/01/2020 16:35:14	26012020	260120	163514	100.280	12.246873	-56.409373	100.390	-0.460	0.310	0.400	100.300	-1.200	0.700																			1580056514.0	11.04	20.45
26/01/2020 16:35:15	26012020	260120	163515	100.380	12.246862	-56.409323	100.360	-0.790	0.320	0.580	100.380	-1.000	0.800																			1580056515.0	10.67	19.76
26/01/2020 16:35:16	26012020	260120	163516	100.330	12.246850	-56.409272	100.250	-0.710	-0.230	0.870	100.310	-1.400	1.100																			1580056516.0	10.70	19.82
26/01/2020 16:35:17	26012020	260120	163517	100.210	12.246835	-56.409218	100.160	-0.300	-0.770	0.880	100.200	-2.000	1.300																			1580056517.0	11.27	20.87
26/01/2020 16:35:18	26012020	260120	163518	100.140	12.246823	-56.409163	100.080	0.150	-0.790	0.650	100.120	-2.200	1.100																			1580056518.0	11.87	21.98
26/01/2020 16:35:19	26012020	260120	163519	100.050	12.246813	-56.409110	100.040	0.380	-0.240	0.350	100.040	-1.900	0.800																			1580056519.0	11.82	21.89
26/01/2020 16:35:20	26012020	260120	163520	100.030	12.246805	-56.409062	100.130	0.330	0.390	0.020	100.040	-1.200	0.500																			1580056520.0	11.27	20.87
26/01/2020 16:35:21	26012020	260120	163521	100.140	12.246798	-56.409012	100.340	0.210	0.520	-0.250	100.180	-0.900	0.200																			1580056521.0	10.65	19.72
26/01/2020 16:35:22	26012020	260120	163522	100.370	12.246790	-56.408960	100.550	0.160	0.250	-0.230	100.420	-1.000	0.100																			1580056522.0	10.54	19.52
26/01/2020 16:35:23	26012020	260120	163523	100.570	12.246780	-56.408908	100.640	0.210	-0.130	0.030	100.610	-1.400	0.300																			1580056523.0	10.99	20.35
26/01/2020 16:35:24	26012020	260120	163524	100.640	12.246770	-56.408857	100.580	0.350	-0.570	0.380	100.640	-1.800	0.600																			1580056524.0	11.20	20.74
26/01/2020 16:35:25	26012020	260120	163525	100.560	12.246760	-56.408805	100.490	0.440	-0.920	0.710	100.540	-2.200	1.000																			1580056525.0	11.20	20.74
26/01/2020 16:35:26	26012020	260120	163526	100.460	12.246750	-56.408752	100.400	0.270	-0.930	0.810	100.440	-2.400	1.200																			1580056526.0	11.27	20.87
26/01/2020 16:35:27	26012020	260120	163527	100.370	12.246740	-56.408700	100.330	-0.130	-0.660	0.750	100.360	-2.200	1.100																			1580056527.0	11.31	20.95
26/01/2020 16:35:28	26012020	260120	163528	100.280	12.246730	-56.408650	100.190	-0.440	-0.390	0.870	100.260	-1.900	1.200																			1580056528.0	11.03	20.43
26/01/2020 16:35:29	26012020	260120	163529	100.140	12.246717	-56.408600	100.020	-0.500	-0.210	0.930	100.100	-1.600	1.300																			1580056529.0	10.87	20.13
26/01/2020 16:35:30	26012020	260120	163530	99.980	12.246705	-56.408548	99.880	-0.360	-0.240	0.800	99.950	-1.600	1.200																			1580056530.0	11.05	20.46
26/01/2020 16:35:31	26012020	260120	163531	99.840	12.246695	-56.408495	99.750	-0.140	-0.330	0.720	99.810	-1.700	1.100																			1580056531.0	11.25	20.84
26/01/2020 16:35:32	26012020	260120	163532	99.720	12.246685	-56.408440	99.810	-0.050	-0.170	0.480	99.720	-1.700	1.000																			1580056532.0	11.51	21.32
26/01/2020 16:35:33	26012020	260120	163533	99.820	12.246675	-56.408388	100.100	-0.220	0.360	0.120	99.870	-1.300	0.600																			1580056533.0	11.61	21.50
26/01/2020 16:35:34	26012020	260120	163534	100.130	12.246667	-56.408338	100.440	-0.470	0.800	-0.030	100.210	-0.700	0.400																			1580056534.0	11.24	20.82
26/01/2020 16:35:35	26012020	260120	163535	100.470	12.246657	-56.408290	100.740	-0.390	0.550	-0.020	100.540	-0.700	0.300																			1580056535.0	10.63	19.69
26/01/2020 16:35:36	26012020	260120	163536	100.770	12.246647	-56.408238	100.950	0.170	-0.320	0.060	100.830	-1.400	0.400																			1580056536.0	10.54	19.52
26/01/2020 16:35:37	26012020	260120	163537	100.970	12.246635	-56.408183	100.930	0.850	-1.110	0.250	100.970	-2.300	0.500																			1580056537.0	11.19	20.72
26/01/2020 16:35:38	26012020	260120	163538	100.930	12.246625	-56.408130	100.800	1.090	-1.190	0.390	100.900	-2.700	0.700																			1580056538.0	11.79	21.84
26/01/2020 16:35:39	26012020	260120	163539	100.770	12.246617	-56.408078	100.620	0.690	-0.570	0.430	100.740	-2.200	0.800																			1580056539.0	11.70	21.67
26/01/2020 16:35:40	26012020	260120	163540	100.590	12.246610	-56.408030	100.460	0.040	0.040	0.390	100.550	-1.500	0.800																			1580056540.0	10.95	20.28
26/01/2020 16:35:41	26012020	260120	163541	100.440	12.246602	-56.407982	100.400	-0.330	-0.020	0.330	100.430	-1.300	0.700																			1580056541.0	10.31	19.09
26/01/2020 16:35:42	26012020	260120	163542	100.380	12.246592	-56.407928	100.360	-0.360	-0.520	0.370	100.370	-1.700	0.700																			1580056542.0	10.48	19.41
26/01/2020 16:35:43	26012020	260120	163543	100.330	12.246580	-56.407873	100.320	-0.340	-0.650	0.440	100.330	-2.100	0.800																			1580056543.0	11.38	21.08
26/01/2020 16:35:44	26012020	260120	163544	100.290	12.246567	-56.407822	100.330	-0.460	-0.210	0.490	100.290	-1.800	0.800																			1580056544.0	11.86	21.96
26/01/2020 16:35:45	26012020	260120	163545	100.310	12.246555	-56.407772	100.440	-0.610	0.260	0.470	100.320	-1.300	0.900																			1580056545.0	11.40	21.11
26/01/2020 16:35:46	26012020	260120	163546	100.430	12.246543	-56.407722	100.640	-0.520	0.230	0.290	100.470	-1.100	0.700																			1580056546.0	10.78	19.96
26/01/2020 16:35:47	26012020	260120	163547	100.620	12.246532	-56.407670	100.750	-0.090	-0.240	0.060	100.660	-1.400	0.500																			1580056547.0	10.74	19.89
26/01/2020 16:35:48	26012020	260120	163548	100.730	12.246522	-56.407617	100.780	0.400	-0.510	-0.120	100.750	-1.900	0.300																			1580056548.0	11.28	20.89
26/01/2020 16:35:49	26012020	260120	163549	100.770	12.246513	-56.407563	100.820	0.590	-0.240	-0.140	100.770	-1.800	0.200																			1580056549.0	11.67	21.61
26/01/2020 16:35:50	26012020	260120	163550	100.820	12.246505	-56.407513	100.930	0.440	0.090	-0.030	100.840	-1.400	0.300																			1580056550.0	11.36	21.04
26/01/2020 16:35:51	26012020	260120	163551	100.930	12.246497	-56.407463	100.930	0.220	-0.090	0.220	100.940	-1.400	0.500																			1580056551.0	10.69	19.80
26/01/2020 16:35:52	26012020	260120	163552	100.900	12.246487	-56.407412	100.770	0.150	-0.580	0.590	100.870	-1.800	0.800																			1580056552.0	10.64	19.71
26/01/2020 16:35:53	26012020	260120	163553	100.720	12.246475	-56.407358	100.650	0.130	-0.810	0.780	100.690	-2.200	1.100																			1580056553.0	11.21	20.76
26/01/2020 16:35:54	26012020	260120	163554	100.610	12.246463	-56.407305	100.670	0.010	-0.570	0.830	100.610	-2.100	1.200																			1580056554.0	11.58	21.45
26/01/2020 16:35:55	26012020	260120	163555	100.640	12.246453	-56.407255	100.710	-0.230	-0.170	0.790	100.650	-1.700	1.200																			1580056555.0	11.31	20.95
26/01/2020 16:35:56	26012020	260120	163556	100.670	12.246442	-56.407205	100.700	-0.470	0.050	0.630	100.670	-1.400	1.000																			1580056556.0	10.89	20.17
26/01/2020 16:35:57	26012020	260120	163557	100.670	12.246432	-56.407155	100.680	-0.520	-0.010	0.430	100.660	-1.400	0.900																			1580056557.0	10.80	20.00
26/01/2020 16:35:58	26012020	260120	163558	100.660	12.246420	-56.407103	100.740	-0.300	-0.260	0.160	100.660	-1.600	0.600																			1580056558.0	11.00	20.37
26/01/2020 16:35:59	26012020	260120	163559	100.740	12.246410	-56.407050	100.880	0.060	-0.460	-0.070	100.770	-1.800	0.300	1015.40	26.40	26.40	19.50	19.50	933.00	66.00	65.00	374.00	29.50	352.00	9.20	79.00	3.60	67889	3255.00	27.70	27.60	1580056559.0	11.27	20.87
26/01/2020 16:36:00	26012020	260120	163600	100.870	12.246400	-56.406997	100.900	0.300	-0.400	-0.070	100.880	-1.900	0.300																			1580056560.0	11.47	21.24
26/01/2020 16:36:01	26012020	260120	163601	100.880	12.246390	-56.406945	100.860	0.330	-0.100	-0.050	100.870	-1.600	0.300																			1580056561.0	11.43	21.17
26/01/2020 16:36:02	26012020	260120	163602	100.830	12.246382	-56.406895	100.910	0.240	0.090	0.030	100.830	-1.300	0.300																			1580056562.0	11.07	20.50
26/01/2020 16:36:03	26012020	260120	163603	100.890	12.246372	-56.406843	100.980	0.150	-0.080	0.250	100.910	-1.400	0.500																			1580056563.0	10.80	20.00
26/01/2020 16:36:04	26012020	260120	163604	100.950	12.246362	-56.406792	100.940	0.060	-0.430	0.470	100.950	-1.700	0.800																			1580056564.0	10.93	20.24
26/01/2020 16:36:05	26012020	260120	163605	100.900	12.246350	-56.406738	100.840	-0.010	-0.620	0.730	100.880	-2.000	1.000																			1580056565.0	11.28	20.89
26/01/2020 16:36:06	26012020	260120	163606	100.790	12.246340	-56.406687	100.790	-0.070	-0.500	0.870	100.770	-2.000	1.200																			1580056566.0	11.43	21.17
26/01/2020 16:36:07	26012020	260120	163607	100.750	12.246328	-56.406637	100.830	-0.120	-0.340	0.740	100.760	-1.800	1.200																			1580056567.0	11.28	20.89
26/01/2020 16:36:08	26012020	260120	163608	100.790	12.246318	-56.406585	100.860	-0.190	-0.220	0.480	100.800	-1.700	0.900																			1580056568.0	11.03	20.43
26/01/2020 16:36:09	26012020	260120	163609	100.830	12.246307	-56.406533	100.820	-0.250	-0.030	0.300	100.830	-1.500	0.700																			1580056569.0	11.08	20.52
26/01/2020 16:36:10	26012020	260120	163610	100.790	12.246297	-56.406483	100.750	-0.190	0.080	0.200	100.780	-1.300	0.600																			1580056570.0	11.11	20.58
26/01/2020 16:36:11	26012020	260120	163611	100.730	12.246287	-56.406432	100.790	0.020	-0.180	0.040	100.730	-1.400	0.500																			1580056571.0	10.96	20.30
26/01/2020 16:36:12	26012020	260120	163612	100.790	12.246277	-56.406378	100.920	0.230	-0.510	-0.030	100.820	-1.800	0.300																			1580056572.0	11.08	20.52
26/01/2020 16:36:13	26012020	260120	163613	100.930	12.246267	-56.406325	101.000	0.260	-0.450	0.090	100.950	-1.900	0.400																			1580056573.0	11.50	21.30
26/01/2020 16:36:14	26012020	260120	163614	101.000	12.246257	-56.406273	100.980	0.150	-0.090	0.310	100.990	-1.600	0.600																			1580056574.0	11.49	21.28
26/01/2020 16:36:15	26012020	260120	163615	100.960	12.246247	-56.406223	100.940	-0.010	0.050	0.530	100.950	-1.300	0.800																			1580056575.0	11.01	20.39
26/01/2020 16:36:16	26012020	260120	163616	100.910	12.246237	-56.406173	100.980	-0.070	-0.320	0.530	100.910	-1.600	0.900																			1580056576.0	10.69	19.80
26/01/2020 16:36:17	26012020	260120	163617	100.970	12.246227	-56.406120	101.150	-0.070	-0.660	0.400	100.990	-2.000	0.800																			1580056577.0	11.00	20.37
26/01/2020 16:36:18	26012020	260120	163618	101.150	12.246215	-56.406067	101.330	-0.160	-0.410	0.400	101.180	-1.900	0.700																			1580056578.0	11.58	21.45
26/01/2020 16:36:19	26012020	260120	163619	101.310	12.246203	-56.406017	101.340	-0.300	0.000	0.460	101.320	-1.500	0.800																			1580056579.0	11.47	21.24
26/01/2020 16:36:20	26012020	260120	163620	101.310	12.246192	-56.405967	101.260	-0.270	-0.050	0.480	101.290	-1.400	0.800																			1580056580.0	10.79	19.98
26/01/2020 16:36:21	26012020	260120	163621	101.220	12.246182	-56.405915	101.190	0.050	-0.520	0.370	101.200	-1.700	0.800																			1580056581.0	10.70	19.82
26/01/2020 16:36:22	26012020	260120	163622	101.160	12.246172	-56.405860	101.130	0.480	-0.870	0.160	101.150	-2.200	0.600																			1580056582.0	11.26	20.85
26/01/2020 16:36:23	26012020	260120	163623	101.110	12.246162	-56.405807	101.120	0.600	-0.580	-0.030	101.110	-2.200	0.400																			1580056583.0	11.77	21.80
26/01/2020 16:36:24	26012020	260120	163624	101.110	12.246153	-56.405755	101.140	0.250	0.160	0.070	101.120	-1.500	0.400																			1580056584.0	11.70	21.67
26/01/2020 16:36:25	26012020	260120	163625	101.130	12.246143	-56.405707	101.160	-0.260	0.630	0.400	101.130	-0.900	0.700																			1580056585.0	11.01	20.39
26/01/2020 16:36:26	26012020	260120	163626	101.150	12.246132	-56.405657	101.290	-0.510	0.380	0.490	101.170	-0.900	0.900																			1580056586.0	10.44	19.33
26/01/2020 16:36:27	26012020	260120	163627	101.290	12.246120	-56.405605	101.510	-0.420	-0.160	0.480	101.330	-1.400	0.800																			1580056587.0	10.70	19.82
26/01/2020 16:36:28	26012020	260120	163628	101.500	12.246108	-56.405552	101.690	-0.300	-0.400	0.480	101.550	-1.800	0.800																			1580056588.0	11.43	21.17
26/01/2020 16:36:29	26012020	260120	163629	101.690	12.246095	-56.405500	101.760	-0.180	-0.410	0.360	101.720	-1.800	0.800																			1580056589.0	11.57	21.43
26/01/2020 16:36:30	26012020	260120	163630	101.750	12.246085	-56.405450	101.710	0.060	-0.550	0.190	101.750	-1.900	0.600																			1580056590.0	11.09	20.54
26/01/2020 16:36:31	26012020	260120	163631	101.710	12.246075	-56.405398	101.700	0.360	-0.750	-0.060	101.700	-2.100	0.400																			1580056591.0	10.88	20.15
26/01/2020 16:36:32	26012020	260120	163632	101.700	12.246065	-56.405347	101.730	0.520	-0.760	-0.230	101.710	-2.200	0.200																			1580056592.0	11.13	20.61
26/01/2020 16:36:33	26012020	260120	163633	101.740	12.246057	-56.405293	101.690	0.390	-0.470	-0.100	101.740	-2.000	0.200																			1580056593.0	11.29	20.91
26/01/2020 16:36:34	26012020	260120	163634	101.680	12.246047	-56.405243	101.530	0.080	-0.170	0.270	101.660	-1.700	0.500																			1580056594.0	11.17	20.69
26/01/2020 16:36:35	26012020	260120	163635	101.500	12.246035	-56.405193	101.320	-0.140	-0.210	0.580	101.450	-1.600	0.900																			1580056595.0	10.90	20.19
26/01/2020 16:36:36	26012020	260120	163636	101.280	12.246022	-56.405140	101.180	-0.150	-0.390	0.740	101.250	-1.800	1.100																			1580056596.0	10.99	20.35
26/01/2020 16:36:37	26012020	260120	163637	101.160	12.246010	-56.405087	101.200	-0.170	-0.190	0.640	101.150	-1.700	1.100																			1580056597.0	11.49	21.28
26/01/2020 16:36:38	26012020	260120	163638	101.190	12.245998	-56.405035	101.380	-0.360	0.320	0.450	101.220	-1.300	0.900																			1580056598.0	11.66	21.59
26/01/2020 16:36:39	26012020	260120	163639	101.390	12.245988	-56.404985	101.630	-0.550	0.590	0.310	101.440	-0.900	0.700																			1580056599.0	11.16	20.67
26/01/2020 16:36:40	26012020	260120	163640	101.650	12.245977	-56.404935	101.860	-0.470	0.350	0.170	101.700	-0.900	0.600																			1580056600.0	10.70	19.82
26/01/2020 16:36:41	26012020	260120	163641	101.890	12.245965	-56.404883	102.000	-0.090	-0.230	0.120	101.920	-1.400	0.500																			1580056601.0	10.83	20.06
26/01/2020 16:36:42	26012020	260120	163642	102.010	12.245952	-56.404830	102.030	0.380	-0.690	0.190	102.030	-2.000	0.500																			1580056602.0	11.30	20.93
26/01/2020 16:36:43	26012020	260120	163643	102.050	12.245940	-56.404778	102.050	0.600	-0.740	0.110	102.050	-2.200	0.500																			1580056603.0	11.58	21.45
26/01/2020 16:36:44	26012020	260120	163644	102.060	12.245932	-56.404727	102.050	0.460	-0.440	0.020	102.070	-2.000	0.400																			1580056604.0	11.37	21.06
26/01/2020 16:36:45	26012020	260120	163645	102.060	12.245922	-56.404678	101.970	0.160	-0.180	0.200	102.050	-1.600	0.500																			1580056605.0	10.91	20.21
26/01/2020 16:36:46	26012020	260120	163646	101.960	12.245912	-56.404628	101.820	-0.020	-0.340	0.420	101.940	-1.600	0.700																			1580056606.0	10.58	19.59
26/01/2020 16:36:47	26012020	260120	163647	101.810	12.245900	-56.404577	101.630	0.060	-0.800	0.560	101.770	-2.100	0.900																			1580056607.0	10.70	19.82
26/01/2020 16:36:48	26012020	260120	163648	101.610	12.245888	-56.404522	101.500	0.130	-0.850	0.610	101.580	-2.300	1.000																			1580056608.0	11.32	20.96
26/01/2020 16:36:49	26012020	260120	163649	101.490	12.245877	-56.404470	101.410	-0.010	-0.410	0.580	101.470	-2.000	1.000																			1580056609.0	11.73	21.72
26/01/2020 16:36:50	26012020	260120	163650	101.400	12.245865	-56.404420	101.300	-0.230	0.050	0.530	101.380	-1.500	0.900																			1580056610.0	11.33	20.98
26/01/2020 16:36:51	26012020	260120	163651	101.280	12.245853	-56.404370	101.220	-0.330	0.150	0.410	101.260	-1.200	0.800																			1580056611.0	10.88	20.15
26/01/2020 16:36:52	26012020	260120	163652	101.220	12.245842	-56.404317	101.360	-0.340	0.070	0.270	101.240	-1.300	0.700																			1580056612.0	10.97	20.32
26/01/2020 16:36:53	26012020	260120	163653	101.380	12.245832	-56.404263	101.670	-0.320	0.120	0.100	101.440	-1.300	0.500																			1580056613.0	11.37	21.06
26/01/2020 16:36:54	26012020	260120	163654	101.710	12.245820	-56.404213	101.920	-0.240	0.210	-0.010	101.770	-1.200	0.400																			1580056614.0	11.42	21.15
26/01/2020 16:36:55	26012020	260120	163655	101.940	12.245808	-56.404162	101.950	-0.040	-0.020	0.050	101.950	-1.300	0.400																			1580056615.0	11.08	20.52
26/01/2020 16:36:56	26012020	260120	163656	101.950	12.245797	-56.404110	101.910	0.240	-0.510	0.180	101.940	-1.700	0.500																			1580056616.0	10.96	20.30
26/01/2020 16:36:57	26012020	260120	163657	101.910	12.245785	-56.404057	101.900	0.350	-0.690	0.310	101.900	-2.100	0.600																			1580056617.0	11.28	20.89
26/01/2020 16:36:58	26012020	260120	163658	101.900	12.245773	-56.404007	101.910	0.230	-0.410	0.390	101.910	-1.900	0.700																			1580056618.0	11.52	21.34
26/01/2020 16:36:59	26012020	260120	163659	101.900	12.245763	-56.403957	101.780	0.070	-0.200	0.490	101.880	-1.600	0.800	1015.40	26.40	26.40	19.60	19.60	930.00	66.00	66.00	374.00	29.50	353.00	9.40	82.00	3.80	67824	3289.00	27.70	27.60	1580056619.0	11.09	20.54
26/01/2020 16:37:00	26012020	260120	163700	101.750	12.245752	-56.403907	101.620	0.030	-0.300	0.670	101.710	-1.600	1.000																			1580056620.0	10.62	19.67
26/01/2020 16:37:01	26012020	260120	163701	101.590	12.245738	-56.403855	101.470	0.080	-0.500	0.730	101.560	-1.800	1.100																			1580056621.0	10.84	20.08
26/01/2020 16:37:02	26012020	260120	163702	101.440	12.245727	-56.403803	101.240	0.180	-0.570	0.620	101.400	-2.000	1.000																			1580056622.0	11.25	20.84
26/01/2020 16:37:03	26012020	260120	163703	101.210	12.245717	-56.403750	101.030	0.290	-0.510	0.490	101.160	-1.900	0.900																			1580056623.0	11.40	21.11
26/01/2020 16:37:04	26012020	260120	163704	101.010	12.245707	-56.403698	101.010	0.260	-0.300	0.310	100.990	-1.800	0.700																			1580056624.0	11.33	20.98
26/01/2020 16:37:05	26012020	260120	163705	101.010	12.245698	-56.403647	101.190	0.010	0.060	0.140	101.030	-1.500	0.500																			1580056625.0	11.30	20.93
26/01/2020 16:37:06	26012020	260120	163706	101.210	12.245688	-56.403595	101.440	-0.380	0.360	0.230	101.250	-1.100	0.500																			1580056626.0	11.15	20.65
26/01/2020 16:37:07	26012020	260120	163707	101.450	12.245675	-56.403547	101.580	-0.630	0.290	0.490	101.480	-1.000	0.700																			1580056627.0	10.90	20.19
26/01/2020 16:37:08	26012020	260120	163708	101.580	12.245662	-56.403495	101.610	-0.550	-0.140	0.780	101.590	-1.400	1.000																			1580056628.0	10.86	20.11
26/01/2020 16:37:09	26012020	260120	163709	101.590	12.245647	-56.403443	101.490	-0.240	-0.600	0.910	101.560	-1.900	1.300																			1580056629.0	11.19	20.72
26/01/2020 16:37:10	26012020	260120	163710	101.460	12.245635	-56.403390	101.350	0.090	-0.800	0.730	101.430	-2.200	1.200																			1580056630.0	11.51	21.32
26/01/2020 16:37:11	26012020	260120	163711	101.330	12.245623	-56.403338	101.190	0.300	-0.660	0.470	101.290	-2.100	0.900																			1580056631.0	11.51	21.32
26/01/2020 16:37:12	26012020	260120	163712	101.160	12.245613	-56.403287	100.970	0.420	-0.380	0.230	101.110	-1.900	0.700																			1580056632.0	11.25	20.84
26/01/2020 16:37:13	26012020	260120	163713	100.940	12.245605	-56.403235	100.770	0.480	-0.250	-0.030	100.900	-1.700	0.400																			1580056633.0	10.99	20.35
26/01/2020 16:37:14	26012020	260120	163714	100.760	12.245598	-56.403183	100.730	0.400	-0.160	-0.120	100.740	-1.600	0.200																			1580056634.0	11.00	20.37
26/01/2020 16:37:15	26012020	260120	163715	100.730	12.245588	-56.403130	100.850	0.170	0.090	0.070	100.750	-1.400	0.300																			1580056635.0	11.28	20.89
26/01/2020 16:37:16	26012020	260120	163716	100.870	12.245577	-56.403080	101.050	-0.110	0.290	0.380	100.900	-1.200	0.600																			1580056636.0	11.24	20.82
26/01/2020 16:37:17	26012020	260120	163717	101.050	12.245565	-56.403030	101.150	-0.290	0.120	0.660	101.080	-1.200	0.900																			1580056637.0	10.97	20.32
26/01/2020 16:37:18	26012020	260120	163718	101.140	12.245552	-56.402978	101.190	-0.320	-0.310	0.850	101.150	-1.600	1.200																			1580056638.0	10.95	20.28
26/01/2020 16:37:19	26012020	260120	163719	101.170	12.245538	-56.402925	101.180	-0.280	-0.550	0.840	101.170	-1.900	1.200																			1580056639.0	11.30	20.93
26/01/2020 16:37:20	26012020	260120	163720	101.160	12.245527	-56.402873	101.130	-0.250	-0.440	0.670	101.150	-1.900	1.100																			1580056640.0	11.49	21.28
26/01/2020 16:37:21	26012020	260120	163721	101.110	12.245517	-56.402823	101.070	-0.180	-0.390	0.480	101.100	-1.800	0.900																			1580056641.0	11.19	20.72
26/01/2020 16:37:22	26012020	260120	163722	101.060	12.245507	-56.402772	101.010	0.010	-0.620	0.380	101.050	-1.900	0.800																			1580056642.0	10.85	20.09
26/01/2020 16:37:23	26012020	260120	163723	100.980	12.245495	-56.402720	100.750	0.230	-0.760	0.430	100.930	-2.200	0.800																			1580056643.0	11.04	20.45
26/01/2020 16:37:24	26012020	260120	163724	100.710	12.245483	-56.402667	100.440	0.340	-0.500	0.490	100.640	-2.000	0.800																			1580056644.0	11.48	21.26
26/01/2020 16:37:25	26012020	260120	163725	100.400	12.245473	-56.402615	100.250	0.320	-0.080	0.470	100.350	-1.600	0.900																			1580056645.0	11.45	21.21
26/01/2020 16:37:26	26012020	260120	163726	100.230	12.245465	-56.402563	100.290	0.250	0.140	0.290	100.230	-1.300	0.700																			1580056646.0	11.06	20.48
26/01/2020 16:37:27	26012020	260120	163727	100.290	12.245457	-56.402512	100.450	0.130	0.070	0.200	100.320	-1.300	0.600																			1580056647.0	10.97	20.32
26/01/2020 16:37:28	26012020	260120	163728	100.460	12.245447	-56.402458	100.630	-0.080	0.020	0.450	100.500	-1.400	0.700																			1580056648.0	11.20	20.74
26/01/2020 16:37:29	26012020	260120	163729	100.640	12.245435	-56.402407	100.790	-0.350	0.130	0.740	100.670	-1.300	1.000																			1580056649.0	11.40	21.11
26/01/2020 16:37:30	26012020	260120	163730	100.790	12.245422	-56.402357	100.880	-0.480	0.080	0.910	100.810	-1.300	1.200																			1580056650.0	11.24	20.82
26/01/2020 16:37:31	26012020	260120	163731	100.860	12.245410	-56.402307	100.850	-0.290	-0.420	0.940	100.860	-1.600	1.300																			1580056651.0	10.90	20.19
26/01/2020 16:37:32	26012020	260120	163732	100.820	12.245398	-56.402253	100.770	0.030	-0.880	0.730	100.810	-2.200	1.200																			1580056652.0	11.04	20.45
26/01/2020 16:37:33	26012020	260120	163733	100.740	12.245388	-56.402200	100.600	0.140	-0.690	0.420	100.720	-2.200	0.900																			1580056653.0	11.59	21.46
26/01/2020 16:37:34	26012020	260120	163734	100.570	12.245380	-56.402150	100.350	0.070	-0.200	0.250	100.520	-1.800	0.700																			1580056654.0	11.49	21.28
26/01/2020 16:37:35	26012020	260120	163735	100.320	12.245370	-56.402100	100.150	0.100	-0.130	0.160	100.270	-1.500	0.600																			1580056655.0	10.78	19.96
26/01/2020 16:37:36	26012020	260120	163736	100.140	12.245362	-56.402048	100.060	0.260	-0.480	0.140	100.110	-1.800	0.500																			1580056656.0	10.60	19.63
26/01/2020 16:37:37	26012020	260120	163737	100.040	12.245352	-56.401993	100.050	0.240	-0.470	0.280	100.040	-1.900	0.600																			1580056657.0	11.24	20.82
26/01/2020 16:37:38	26012020	260120	163738	100.040	12.245340	-56.401942	100.100	0.030	-0.020	0.440	100.050	-1.600	0.700																			1580056658.0	11.71	21.69
26/01/2020 16:37:39	26012020	260120	163739	100.090	12.245330	-56.401892	100.150	-0.080	0.100	0.570	100.090	-1.300	0.900																			1580056659.0	11.16	20.67
26/01/2020 16:37:40	26012020	260120	163740	100.130	12.245320	-56.401840	100.190	0.040	-0.310	0.590	100.140	-1.500	1.000																			1580056660.0	10.67	19.76
26/01/2020 16:37:41	26012020	260120	163741	100.170	12.245310	-56.401787	100.270	0.040	-0.420	0.520	100.180	-1.900	0.900																			1580056661.0	11.16	20.67
26/01/2020 16:37:42	26012020	260120	163742	100.260	12.245300	-56.401735	100.370	-0.250	-0.010	0.520	100.280	-1.600	0.900																			1580056662.0	11.71	21.69
26/01/2020 16:37:43	26012020	260120	163743	100.360	12.245290	-56.401685	100.430	-0.530	0.130	0.520	100.370	-1.200	0.900																			1580056663.0	11.19	20.72
26/01/2020 16:37:44	26012020	260120	163744	100.390	12.245278	-56.401635	100.310	-0.440	-0.400	0.510	100.380	-1.600	0.900																			1580056664.0	10.52	19.48
26/01/2020 16:37:45	26012020	260120	163745	100.270	12.245267	-56.401582	100.110	-0.050	-0.890	0.390	100.230	-2.200	0.800																			1580056665.0	10.91	20.21
26/01/2020 16:37:46	26012020	260120	163746	100.070	12.245257	-56.401527	99.950	0.280	-0.720	0.130	100.030	-2.300	0.600																			1580056666.0	11.71	21.69
26/01/2020 16:37:47	26012020	260120	163747	99.920	12.245248	-56.401475	99.930	0.330	-0.100	-0.000	99.900	-1.700	0.400																			1580056667.0	11.67	21.61
26/01/2020 16:37:48	26012020	260120	163748	99.920	12.245240	-56.401427	100.070	0.150	0.320	-0.050	99.950	-1.200	0.300																			1580056668.0	11.00	20.37
26/01/2020 16:37:49	26012020	260120	163749	100.080	12.245232	-56.401377	100.230	-0.030	0.270	-0.030	100.120	-1.100	0.300																			1580056669.0	10.60	19.63
26/01/2020 16:37:50	26012020	260120	163750	100.230	12.245222	-56.401325	100.340	-0.000	-0.050	0.170	100.260	-1.300	0.500																			1580056670.0	10.79	19.98
26/01/2020 16:37:51	26012020	260120	163751	100.330	12.245210	-56.401272	100.470	0.170	-0.290	0.350	100.360	-1.600	0.700																			1580056671.0	11.20	20.74
26/01/2020 16:37:52	26012020	260120	163752	100.470	12.245198	-56.401220	100.650	0.240	-0.350	0.350	100.500	-1.700	0.700																			1580056672.0	11.39	21.09
26/01/2020 16:37:53	26012020	260120	163753	100.640	12.245190	-56.401168	100.720	0.090	-0.370	0.380	100.660	-1.800	0.700																			1580056673.0	11.22	20.78
26/01/2020 16:37:54	26012020	260120	163754	100.700	12.245180	-56.401118	100.670	-0.150	-0.420	0.490	100.700	-1.800	0.700																			1580056674.0	10.98	20.33
26/01/2020 16:37:55	26012020	260120	163755	100.640	12.245170	-56.401067	100.500	-0.230	-0.550	0.510	100.600	-1.900	0.900																			1580056675.0	10.91	20.21
26/01/2020 16:37:56	26012020	260120	163756	100.440	12.245160	-56.401015	100.290	-0.070	-0.860	0.400	100.400	-2.100	0.800																			1580056676.0	10.97	20.32
26/01/2020 16:37:57	26012020	260120	163757	100.250	12.245150	-56.400962	100.150	0.150	-1.020	0.310	100.220	-2.400	0.700																			1580056677.0	11.19	20.72
26/01/2020 16:37:58	26012020	260120	163758	100.110	12.245140	-56.400908	100.020	0.110	-0.540	0.330	100.090	-2.200	0.700																			1580056678.0	11.60	21.48
26/01/2020 16:37:59	26012020	260120	163759	99.980	12.245128	-56.400857	99.990	-0.200	0.210	0.300	99.970	-1.400	0.700	1015.40	26.30	26.40	19.20	19.30	930.00	65.00	65.00	374.00	29.50	354.00	9.50	87.00	3.90	67724	3445.00	27.70	27.70	1580056679.0	11.56	21.41
26/01/2020 16:38:00	26012020	260120	163800	99.970	12.245118	-56.400808	100.080	-0.420	0.480	0.290	99.980	-0.900	0.600																			1580056680.0	10.89	20.17
26/01/2020 16:38:01	26012020	260120	163801	100.070	12.245107	-56.400757	100.230	-0.320	0.250	0.240	100.100	-1.000	0.600																			1580056681.0	10.68	19.78
26/01/2020 16:38:02	26012020	260120	163802	100.230	12.245095	-56.400702	100.450	-0.080	0.160	0.040	100.270	-1.200	0.500																			1580056682.0	11.24	20.82
26/01/2020 16:38:03	26012020	260120	163803	100.470	12.245087	-56.400650	100.770	0.040	0.400	-0.180	100.530	-1.100	0.200																			1580056683.0	11.63	21.54
26/01/2020 16:38:04	26012020	260120	163804	100.800	12.245077	-56.400602	101.110	0.070	0.430	-0.210	100.870	-0.900	0.100																			1580056684.0	11.22	20.78
26/01/2020 16:38:05	26012020	260120	163805	101.130	12.245068	-56.400552	101.310	0.220	-0.220	-0.090	101.180	-1.300	0.200																			1580056685.0	10.61	19.65
26/01/2020 16:38:06	26012020	260120	163806	101.310	12.245058	-56.400498	101.240	0.540	-1.210	0.190	101.320	-2.300	0.400																			1580056686.0	10.69	19.80
26/01/2020 16:38:07	26012020	260120	163807	101.220	12.245047	-56.400443	101.020	0.690	-1.470	0.550	101.180	-2.900	0.800																			1580056687.0	11.42	21.15
26/01/2020 16:38:08	26012020	260120	163808	100.980	12.245037	-56.400392	100.780	0.360	-0.780	0.870	100.930	-2.500	1.100																			1580056688.0	11.82	21.89
26/01/2020 16:38:09	26012020	260120	163809	100.730	12.245025	-56.400345	100.590	-0.170	-0.140	0.940	100.690	-1.700	1.300																			1580056689.0	11.08	20.52
26/01/2020 16:38:10	26012020	260120	163810	100.550	12.245015	-56.400297	100.410	-0.360	-0.400	0.820	100.510	-1.600	1.200																			1580056690.0	10.17	18.83
26/01/2020 16:38:11	26012020	260120	163811	100.360	12.245003	-56.400242	100.190	-0.180	-0.880	0.750	100.310	-2.200	1.100																			1580056691.0	10.54	19.52
26/01/2020 16:38:12	26012020	260120	163812	100.140	12.244992	-56.400187	100.080	-0.040	-0.610	0.730	100.110	-2.200	1.100																			1580056692.0	11.78	21.82
26/01/2020 16:38:13	26012020	260120	163813	100.050	12.244980	-56.400135	100.190	-0.160	0.280	0.630	100.050	-1.500	1.000																			1580056693.0	12.06	22.34
26/01/2020 16:38:14	26012020	260120	163814	100.170	12.244970	-56.400087	100.480	-0.450	1.010	0.310	100.230	-0.600	0.800																			1580056694.0	11.23	20.80
26/01/2020 16:38:15	26012020	260120	163815	100.490	12.244960	-56.400037	100.850	-0.610	0.980	-0.040	100.570	-0.300	0.400																			1580056695.0	10.53	19.50
26/01/2020 16:38:16	26012020	260120	163816	100.880	12.244950	-56.399985	101.190	-0.350	0.280	-0.090	100.950	-0.800	0.200																			1580056696.0	10.54	19.52
26/01/2020 16:38:17	26012020	260120	163817	101.210	12.244940	-56.399932	101.400	0.160	-0.410	0.000	101.270	-1.600	0.300																			1580056697.0	11.13	20.61
26/01/2020 16:38:18	26012020	260120	163818	101.380	12.244928	-56.399878	101.530	0.520	-0.730	-0.030	101.420	-1.800	0.400																			1580056698.0	11.62	21.52
26/01/2020 16:38:19	26012020	260120	163819	101.540	12.244920	-56.399828	101.590	0.580	-0.810	0.040	101.550	-2.200	0.400																			1580056699.0	11.42	21.15
26/01/2020 16:38:20	26012020	260120	163820	101.590	12.244910	-56.399778	101.500	0.460	-0.760	0.220	101.570	-2.200	0.500																			1580056700.0	10.97	20.32
26/01/2020 16:38:21	26012020	260120	163821	101.470	12.244900	-56.399728	101.280	0.310	-0.610	0.290	101.430	-2.100	0.600																			1580056701.0	10.79	19.98
26/01/2020 16:38:22	26012020	260120	163822	101.240	12.244890	-56.399678	100.980	0.200	-0.530	0.380	101.180	-1.900	0.700																			1580056702.0	10.78	19.96
26/01/2020 16:38:23	26012020	260120	163823	100.940	12.244880	-56.399627	100.760	0.160	-0.580	0.420	100.880	-2.000	0.800																			1580056703.0	10.87	20.13
26/01/2020 16:38:24	26012020	260120	163824	100.740	12.244868	-56.399573	100.730	0.130	-0.530	0.320	100.730	-2.000	0.700																			1580056704.0	11.11	20.58
26/01/2020 16:38:25	26012020	260120	163825	100.720	12.244858	-56.399520	100.760	-0.120	-0.100	0.220	100.720	-1.700	0.600																			1580056705.0	11.40	21.11
26/01/2020 16:38:26	26012020	260120	163826	100.750	12.244847	-56.399470	100.810	-0.600	0.490	0.290	100.760	-1.100	0.600																			1580056706.0	11.36	21.04
26/01/2020 16:38:27	26012020	260120	163827	100.790	12.244835	-56.399422	100.900	-0.950	0.660	0.430	100.810	-0.700	0.700																			1580056707.0	10.90	20.19
26/01/2020 16:38:28	26012020	260120	163828	100.880	12.244822	-56.399372	100.960	-0.810	0.130	0.470	100.900	-1.000	0.800																			1580056708.0	10.62	19.67
26/01/2020 16:38:29	26012020	260120	163829	100.940	12.244808	-56.399318	100.980	-0.220	-0.630	0.380	100.950	-1.800	0.800																			1580056709.0	11.00	20.37
26/01/2020 16:38:30	26012020	260120	163830	100.970	12.244797	-56.399263	101.030	0.450	-0.900	0.270	100.980	-2.300	0.700																			1580056710.0	11.66	21.59
26/01/2020 16:38:31	26012020	260120	163831	101.020	12.244785	-56.399212	101.110	0.800	-0.540	0.160	101.030	-2.100	0.600																			1580056711.0	11.85	21.95
26/01/2020 16:38:32	26012020	260120	163832	101.100	12.244777	-56.399162	101.200	0.730	0.040	-0.050	101.120	-1.600	0.400																			1580056712.0	11.29	20.91
26/01/2020 16:38:33	26012020	260120	163833	101.200	12.244770	-56.399113	101.310	0.400	0.370	-0.230	101.220	-1.100	0.200																			1580056713.0	10.65	19.72
26/01/2020 16:38:34	26012020	260120	163834	101.320	12.244762	-56.399063	101.440	0.050	0.200	-0.210	101.350	-1.100	0.100																			1580056714.0	10.41	19.28
26/01/2020 16:38:35	26012020	260120	163835	101.440	12.244752	-56.399012	101.450	-0.120	-0.310	0.050	101.450	-1.500	0.300																			1580056715.0	10.64	19.71
26/01/2020 16:38:36	26012020	260120	163836	101.430	12.244740	-56.398960	101.270	-0.090	-0.850	0.500	101.400	-2.100	0.700																			1580056716.0	11.08	20.52
26/01/2020 16:38:37	26012020	260120	163837	101.230	12.244727	-56.398907	100.980	0.020	-1.120	0.970	101.180	-2.500	1.200																			1580056717.0	11.37	21.06
26/01/2020 16:38:38	26012020	260120	163838	100.920	12.244713	-56.398855	100.640	-0.010	-0.950	1.240	100.850	-2.500	1.500																			1580056718.0	11.47	21.24
26/01/2020 16:38:39	26012020	260120	163839	100.570	12.244702	-56.398805	100.350	-0.210	-0.500	1.170	100.510	-2.100	1.600																			1580056719.0	11.36	21.04
26/01/2020 16:38:40	26012020	260120	163840	100.280	12.244690	-56.398753	100.170	-0.390	-0.150	0.990	100.230	-1.700	1.400																			1580056720.0	11.05	20.46
26/01/2020 16:38:41	26012020	260120	163841	100.120	12.244678	-56.398703	100.160	-0.410	0.120	0.760	100.110	-1.400	1.200																			1580056721.0	10.95	20.28
26/01/2020 16:38:42	26012020	260120	163842	100.110	12.244667	-56.398652	100.240	-0.270	0.380	0.470	100.120	-1.300	1.100																			1580056722.0	11.16	20.67
26/01/2020 16:38:43	26012020	260120	163843	100.220	12.244657	-56.398600	100.430	-0.060	0.480	0.150	100.260	-0.900	0.600																			1580056723.0	11.22	20.78
26/01/2020 16:38:44	26012020	260120	163844	100.440	12.244647	-56.398548	100.730	0.110	0.390	-0.110	100.500	-1.000	0.300																			1580056724.0	11.12	20.59
26/01/2020 16:38:45	26012020	260120	163845	100.760	12.244637	-56.398497	101.050	0.220	0.210	-0.290	100.830	-1.100	0.100																			1580056725.0	11.11	20.58
26/01/2020 16:38:46	26012020	260120	163846	101.090	12.244628	-56.398445	101.280	0.350	-0.140	-0.290	101.140	-1.400	0.000																			1580056726.0	11.04	20.45
26/01/2020 16:38:47	26012020	260120	163847	101.310	12.244620	-56.398393	101.390	0.490	-0.670	0.050	101.330	-1.900	0.300																			1580056727.0	10.92	20.22
26/01/2020 16:38:48	26012020	260120	163848	101.390	12.244610	-56.398342	101.360	0.490	-1.110	0.510	101.390	-2.400	0.700																			1580056728.0	11.03	20.43
26/01/2020 16:38:49	26012020	260120	163849	101.330	12.244598	-56.398290	101.170	0.300	-1.190	0.930	101.290	-2.600	1.100																			1580056729.0	11.22	20.78
26/01/2020 16:38:50	26012020	260120	163850	101.110	12.244587	-56.398240	100.870	-0.030	-0.860	1.260	101.050	-2.400	1.500																			1580056730.0	11.22	20.78
26/01/2020 16:38:51	26012020	260120	163851	100.790	12.244573	-56.398190	100.510	-0.330	-0.450	1.320	100.710	-2.000	1.700																			1580056731.0	11.03	20.43
26/01/2020 16:38:52	26012020	260120	163852	100.430	12.244562	-56.398140	100.190	-0.400	-0.360	1.090	100.370	-1.700	1.500																			1580056732.0	10.80	20.00
26/01/2020 16:38:53	26012020	260120	163853	100.120	12.244552	-56.398087	99.980	-0.210	-0.500	0.740	100.070	-1.900	1.200																			1580056733.0	10.95	20.28
26/01/2020 16:38:54	26012020	260120	163854	99.930	12.244540	-56.398032	99.940	-0.050	-0.270	0.480	99.910	-1.800	0.900																			1580056734.0	11.50	21.30
26/01/2020 16:38:55	26012020	260120	163855	99.920	12.244530	-56.397978	100.090	-0.160	0.480	0.340	99.930	-1.200	0.700																			1580056735.0	11.85	21.95
26/01/2020 16:38:56	26012020	260120	163856	100.080	12.244520	-56.397930	100.380	-0.470	1.140	0.230	100.130	-0.400	0.600																			1580056736.0	11.39	21.09
26/01/2020 16:38:57	26012020	260120	163857	100.380	12.244510	-56.397882	100.770	-0.600	1.060	0.180	100.460	-0.200	0.500																			1580056737.0	10.65	19.72
26/01/2020 16:38:58	26012020	260120	163858	100.780	12.244498	-56.397830	101.160	-0.290	0.220	0.230	100.870	-0.800	0.600																			1580056738.0	10.49	19.43
26/01/2020 16:38:59	26012020	260120	163859	101.170	12.244487	-56.397777	101.360	0.300	-0.700	0.380	101.220	-1.800	0.700	1015.40	26.30	26.40	19.60	19.60	929.00	66.00	66.00	375.00	29.50	351.00	9.70	78.00	4.10	67678	3126.00	27.70	27.70	1580056739.0	11.02	20.41
26/01/2020 16:39:00	26012020	260120	163900	101.340	12.244477	-56.397723	101.360	0.700	-1.070	0.520	101.350	-2.400	0.800																			1580056740.0	11.62	21.52
26/01/2020 16:39:01	26012020	260120	163901	101.310	12.244465	-56.397672	101.240	0.660	-0.820	0.570	101.290	-2.300	0.900																			1580056741.0	11.59	21.46
26/01/2020 16:39:02	26012020	260120	163902	101.180	12.244457	-56.397625	101.110	0.370	-0.500	0.450	101.160	-2.000	0.900																			1580056742.0	10.93	20.24
26/01/2020 16:39:03	26012020	260120	163903	101.060	12.244448	-56.397575	100.950	0.120	-0.550	0.310	101.040	-1.900	0.700																			1580056743.0	10.37	19.21
26/01/2020 16:39:04	26012020	260120	163904	100.910	12.244440	-56.397523	100.720	0.080	-0.910	0.290	100.870	-2.200	0.600																			1580056744.0	10.49	19.43
26/01/2020 16:39:05	26012020	260120	163905	100.670	12.244430	-56.397470	100.410	0.190	-1.160	0.450	100.610	-2.500	0.700																			1580056745.0	11.10	20.56
26/01/2020 16:39:06	26012020	260120	163906	100.350	12.244418	-56.397415	100.130	0.110	-0.760	0.780	100.280	-2.400	1.000																			1580056746.0	11.64	21.56
26/01/2020 16:39:07	26012020	260120	163907	100.070	12.244405	-56.397363	100.010	-0.340	0.180	1.040	100.030	-1.600	1.300																			1580056747.0	11.73	21.72
26/01/2020 16:39:08	26012020	260120	163908	99.970	12.244393	-56.397317	100.100	-0.890	0.920	0.940	99.970	-0.700	1.400																			1580056748.0	11.17	20.69
26/01/2020 16:39:09	26012020	260120	163909	100.070	12.244382	-56.397267	100.280	-1.020	0.840	0.660	100.110	-0.400	1.100																			1580056749.0	10.57	19.58
26/01/2020 16:39:10	26012020	260120	163910	100.270	12.244370	-56.397213	100.510	-0.660	0.240	0.390	100.310	-0.900	0.800																			1580056750.0	10.67	19.76
26/01/2020 16:39:11	26012020	260120	163911	100.510	12.244360	-56.397158	100.770	-0.160	-0.240	0.200	100.560	-1.500	0.600																			1580056751.0	11.46	21.22
26/01/2020 16:39:12	26012020	260120	163912	100.770	12.244348	-56.397107	100.950	0.200	-0.360	0.180	100.810	-1.700	0.500																			1580056752.0	11.77	21.80
26/01/2020 16:39:13	26012020	260120	163913	100.930	12.244338	-56.397057	101.020	0.350	-0.210	0.230	100.950	-1.700	0.600																			1580056753.0	11.41	21.13
26/01/2020 16:39:14	26012020	260120	163914	101.000	12.244328	-56.397007	101.030	0.430	-0.150	0.200	101.000	-1.500	0.600																			1580056754.0	10.91	20.21
26/01/2020 16:39:15	26012020	260120	163915	101.000	12.244320	-56.396957	100.980	0.610	-0.480	0.160	101.000	-1.700	0.500																			1580056755.0	10.55	19.54
26/01/2020 16:39:16	26012020	260120	163916	100.950	12.244312	-56.396905	100.870	0.830	-0.910	0.180	100.940	-2.200	0.500																			1580056756.0	10.68	19.78
26/01/2020 16:39:17	26012020	260120	163917	100.830	12.244303	-56.396852	100.710	0.720	-0.830	0.390	100.800	-2.300	0.700																			1580056757.0	11.21	20.76
26/01/2020 16:39:18	26012020	260120	163918	100.670	12.244293	-56.396802	100.640	0.160	-0.310	0.720	100.640	-1.900	1.000																			1580056758.0	11.40	21.11
26/01/2020 16:39:19	26012020	260120	163919	100.600	12.244282	-56.396753	100.600	-0.480	0.010	0.950	100.600	-1.400	1.200																			1580056759.0	10.87	20.13
26/01/2020 16:39:20	26012020	260120	163920	100.550	12.244270	-56.396703	100.450	-0.720	-0.230	1.090	100.550	-1.400	1.300																			1580056760.0	10.47	19.39
26/01/2020 16:39:21	26012020	260120	163921	100.380	12.244257	-56.396650	100.260	-0.450	-0.750	1.070	100.340	-2.000	1.500																			1580056761.0	10.80	20.00
26/01/2020 16:39:22	26012020	260120	163922	100.200	12.244245	-56.396595	100.160	-0.070	-0.840	0.880	100.170	-2.300	1.300																			1580056762.0	11.55	21.39
26/01/2020 16:39:23	26012020	260120	163923	100.100	12.244233	-56.396543	100.090	-0.010	-0.170	0.560	100.090	-1.900	1.000																			1580056763.0	11.94	22.11
26/01/2020 16:39:24	26012020	260120	163924	100.040	12.244225	-56.396493	100.090	-0.300	0.630	0.180	100.040	-1.000	0.700																			1580056764.0	11.49	21.28
26/01/2020 16:39:25	26012020	260120	163925	100.070	12.244217	-56.396445	100.240	-0.530	0.770	0.020	100.090	-0.600	0.400																			1580056765.0	10.63	19.69
26/01/2020 16:39:26	26012020	260120	163926	100.230	12.244207	-56.396393	100.500	-0.400	0.270	-0.010	100.280	-0.900	0.400																			1580056766.0	10.43	19.32
26/01/2020 16:39:27	26012020	260120	163927	100.510	12.244195	-56.396340	100.750	0.040	-0.270	0.020	100.570	-1.500	0.400																			1580056767.0	11.01	20.39
26/01/2020 16:39:28	26012020	260120	163928	100.730	12.244185	-56.396288	100.790	0.440	-0.460	0.150	100.760	-1.800	0.500																			1580056768.0	11.53	21.35
26/01/2020 16:39:29	26012020	260120	163929	100.770	12.244175	-56.396237	100.720	0.580	-0.420	0.320	100.760	-1.800	0.600																			1580056769.0	11.37	21.06
26/01/2020 16:39:30	26012020	260120	163930	100.680	12.244165	-56.396187	100.580	0.500	-0.490	0.440	100.660	-1.800	0.800																			1580056770.0	10.91	20.21
26/01/2020 16:39:31	26012020	260120	163931	100.550	12.244157	-56.396137	100.450	0.450	-0.830	0.430	100.510	-2.100	0.800																			1580056771.0	10.68	19.78
26/01/2020 16:39:32	26012020	260120	163932	100.410	12.244148	-56.396083	100.340	0.450	-1.000	0.410	100.390	-2.400	0.800																			1580056772.0	10.89	20.17
26/01/2020 16:39:33	26012020	260120	163933	100.300	12.244138	-56.396030	100.220	0.220	-0.540	0.450	100.280	-2.200	0.800																			1580056773.0	11.37	21.06
26/01/2020 16:39:34	26012020	260120	163934	100.200	12.244128	-56.395982	100.030	-0.310	0.140	0.530	100.160	-1.900	0.800																			1580056774.0	11.33	20.98
26/01/2020 16:39:35	26012020	260120	163935	99.980	12.244118	-56.395933	99.950	-0.760	0.380	0.590	99.950	-1.000	1.000																			1580056775.0	10.70	19.82
26/01/2020 16:39:36	26012020	260120	163936	99.900	12.244105	-56.395882	100.010	-0.810	0.060	0.480	99.910	-1.200	0.900																			1580056776.0	10.55	19.54
26/01/2020 16:39:37	26012020	260120	163937	99.980	12.244093	-56.395828	100.070	-0.470	-0.460	0.270	99.990	-1.700	0.700																			1580056777.0	11.03	20.43
26/01/2020 16:39:38	26012020	260120	163938	100.030	12.244083	-56.395773	100.080	-0.060	-0.540	0.090	100.030	-2.000	0.500																			1580056778.0	11.59	21.46
26/01/2020 16:39:39	26012020	260120	163939	100.040	12.244073	-56.395722	100.170	0.080	0.020	0.010	100.050	-1.600	0.400																			1580056779.0	11.78	21.82
26/01/2020 16:39:40	26012020	260120	163940	100.140	12.244063	-56.395673	100.360	0.030	0.380	0.000	100.170	-1.100	0.400																			1580056780.0	11.17	20.69
26/01/2020 16:39:41	26012020	260120	163941	100.340	12.244053	-56.395625	100.520	0.110	-0.030	0.020	100.380	-1.200	0.400																			1580056781.0	10.39	19.24
26/01/2020 16:39:42	26012020	260120	163942	100.500	12.244045	-56.395572	100.520	0.370	-0.690	0.180	100.500	-1.900	0.500																			1580056782.0	10.62	19.67
26/01/2020 16:39:43	26012020	260120	163943	100.480	12.244033	-56.395517	100.410	0.560	-0.820	0.510	100.450	-2.200	0.800																			1580056783.0	11.46	21.22
26/01/2020 16:39:44	26012020	260120	163944	100.360	12.244023	-56.395467	100.380	0.520	-0.420	0.690	100.340	-2.000	1.000																			1580056784.0	11.65	21.58
26/01/2020 16:39:45	26012020	260120	163945	100.330	12.244015	-56.395417	100.490	0.270	-0.050	0.650	100.350	-1.500	1.100																			1580056785.0	11.06	20.48
26/01/2020 16:39:46	26012020	260120	163946	100.440	12.244007	-56.395367	100.620	-0.050	-0.020	0.540	100.470	-1.400	0.900																			1580056786.0	10.58	19.59
26/01/2020 16:39:47	26012020	260120	163947	100.570	12.243997	-56.395315	100.720	-0.360	-0.110	0.540	100.600	-1.500	0.900																			1580056787.0	10.70	19.82
26/01/2020 16:39:48	26012020	260120	163948	100.670	12.243985	-56.395265	100.720	-0.540	-0.190	0.640	100.680	-1.500	1.000																			1580056788.0	11.06	20.48
26/01/2020 16:39:49	26012020	260120	163949	100.660	12.243973	-56.395213	100.620	-0.490	-0.380	0.640	100.650	-1.700	1.000																			1580056789.0	11.11	20.58
26/01/2020 16:39:50	26012020	260120	163950	100.550	12.243962	-56.395162	100.540	-0.250	-0.550	0.510	100.530	-1.900	0.900																			1580056790.0	11.11	20.58
26/01/2020 16:39:51	26012020	260120	163951	100.490	12.243952	-56.395108	100.590	-0.000	-0.490	0.300	100.490	-1.900	0.800																			1580056791.0	11.30	20.93
26/01/2020 16:39:52	26012020	260120	163952	100.560	12.243942	-56.395058	100.690	0.150	-0.220	0.080	100.590	-1.700	0.500																			1580056792.0	11.31	20.95
26/01/2020 16:39:53	26012020	260120	163953	100.660	12.243933	-56.395007	100.730	0.240	-0.040	-0.200	100.670	-1.500	0.300																			1580056793.0	11.08	20.52
26/01/2020 16:39:54	26012020	260120	163954	100.700	12.243925	-56.394955	100.780	0.380	-0.200	-0.330	100.710	-1.500	0.100																			1580056794.0	10.84	20.08
26/01/2020 16:39:55	26012020	260120	163955	100.760	12.243915	-56.394903	100.880	0.460	-0.370	-0.240	100.780	-1.700	0.100																			1580056795.0	11.00	20.37
26/01/2020 16:39:56	26012020	260120	163956	100.860	12.243905	-56.394850	100.960	0.280	-0.180	0.010	100.880	-1.700	0.300																			1580056796.0	11.39	21.09
26/01/2020 16:39:57	26012020	260120	163957	100.930	12.243895	-56.394800	100.920	-0.090	0.190	0.360	100.920	-1.300	0.600																			1580056797.0	11.31	20.95
26/01/2020 16:39:58	26012020	260120	163958	100.860	12.243885	-56.394752	100.810	-0.350	0.150	0.630	100.830	-1.200	0.900																			1580056798.0	10.79	19.98
26/01/2020 16:39:59	26012020	260120	163959	100.750	12.243873	-56.394700	100.780	-0.280	-0.500	0.660	100.740	-1.600	1.000	1015.40	26.30	26.40	19.60	19.60	928.00	66.00	66.00	375.00	29.50	355.00	9.20	87.00	3.60	67586	3205.00	27.70	27.70	1580056799.0	10.55	19.54
26/01/2020 16:40:00	26012020	260120	164000	100.720	12.243862	-56.394647	100.830	-0.060	-1.010	0.570	100.720	-2.300	1.000																			1580056800.0	11.07	20.50
26/01/2020 16:40:01	26012020	260120	164001	100.780	12.243850	-56.394592	100.980	-0.040	-0.530	0.400	100.810	-2.200	0.800																			1580056801.0	11.80	21.85
26/01/2020 16:40:02	26012020	260120	164002	100.930	12.243838	-56.394545	101.070	-0.260	0.410	0.140	100.950	-1.300	0.600																			1580056802.0	11.59	21.46
26/01/2020 16:40:03	26012020	260120	164003	101.010	12.243830	-56.394498	101.020	-0.310	0.550	-0.110	101.000	-0.800	0.300																			1580056803.0	10.45	19.35
26/01/2020 16:40:04	26012020	260120	164004	100.960	12.243820	-56.394447	101.000	0.080	-0.290	-0.250	100.950	-1.300	0.200																			1580056804.0	9.96	18.45
26/01/2020 16:40:05	26012020	260120	164005	100.950	12.243812	-56.394392	101.080	0.570	-1.070	-0.290	100.970	-2.300	0.100																			1580056805.0	10.92	20.22
26/01/2020 16:40:06	26012020	260120	164006	101.050	12.243802	-56.394337	101.070	0.720	-1.070	-0.100	101.060	-2.600	0.200																			1580056806.0	11.96	22.15
26/01/2020 16:40:07	26012020	260120	164007	101.010	12.243792	-56.394285	100.860	0.380	-0.450	0.330	100.970	-2.100	0.500																			1580056807.0	11.81	21.87
26/01/2020 16:40:08	26012020	260120	164008	100.780	12.243782	-56.394237	100.700	-0.170	0.130	0.700	100.730	-1.400	1.000																			1580056808.0	11.01	20.39
26/01/2020 16:40:09	26012020	260120	164009	100.630	12.243770	-56.394188	100.730	-0.570	0.250	0.790	100.630	-1.100	1.100																			1580056809.0	10.46	19.37
26/01/2020 16:40:10	26012020	260120	164010	100.670	12.243758	-56.394137	100.830	-0.620	0.040	0.740	100.690	-1.300	1.100																			1580056810.0	10.64	19.71
26/01/2020 16:40:11	26012020	260120	164011	100.770	12.243745	-56.394085	100.910	-0.370	-0.290	0.580	100.790	-1.600	1.000																			1580056811.0	11.12	20.59
26/01/2020 16:40:12	26012020	260120	164012	100.850	12.243733	-56.394032	100.940	-0.030	-0.430	0.360	100.870	-1.800	0.800																			1580056812.0	11.39	21.09
26/01/2020 16:40:13	26012020	260120	164013	100.890	12.243722	-56.393980	100.930	0.180	-0.190	0.170	100.890	-1.700	0.600																			1580056813.0	11.48	21.26
26/01/2020 16:40:14	26012020	260120	164014	100.890	12.243713	-56.393930	100.980	0.170	0.180	-0.090	100.890	-1.300	0.400																			1580056814.0	11.24	20.82
26/01/2020 16:40:15	26012020	260120	164015	100.950	12.243705	-56.393880	101.190	0.090	0.260	-0.380	100.980	-1.100	0.100																			1580056815.0	10.77	19.95
26/01/2020 16:40:16	26012020	260120	164016	101.180	12.243698	-56.393830	101.550	0.100	-0.030	-0.500	101.250	-1.300	-0.100																			1580056816.0	10.59	19.61
26/01/2020 16:40:17	26012020	260120	164017	101.560	12.243688	-56.393778	101.840	0.210	-0.470	-0.340	101.630	-1.700	-0.100																			1580056817.0	10.84	20.08
26/01/2020 16:40:18	26012020	260120	164018	101.820	12.243677	-56.393727	101.820	0.340	-0.820	0.030	101.840	-2.100	0.300																			1580056818.0	11.13	20.61
26/01/2020 16:40:19	26012020	260120	164019	101.750	12.243665	-56.393675	101.470	0.420	-1.030	0.470	101.700	-2.400	0.700																			1580056819.0	11.22	20.78
26/01/2020 16:40:20	26012020	260120	164020	101.380	12.243653	-56.393623	101.110	0.370	-1.030	0.720	101.300	-2.400	1.000																			1580056820.0	11.19	20.72
26/01/2020 16:40:21	26012020	260120	164021	101.020	12.243643	-56.393570	100.900	0.180	-0.800	0.710	100.970	-2.300	1.100																			1580056821.0	11.21	20.76
26/01/2020 16:40:22	26012020	260120	164022	100.830	12.243633	-56.393518	100.850	-0.160	-0.340	0.720	100.820	-1.900	1.100																			1580056822.0	11.22	20.78
26/01/2020 16:40:23	26012020	260120	164023	100.790	12.243622	-56.393468	100.840	-0.620	0.250	0.780	100.790	-1.400	1.100																			1580056823.0	11.18	20.71
26/01/2020 16:40:24	26012020	260120	164024	100.790	12.243608	-56.393418	100.900	-1.030	0.750	0.790	100.790	-1.100	1.100																			1580056824.0	11.07	20.50
26/01/2020 16:40:25	26012020	260120	164025	100.850	12.243595	-56.393368	101.140	-1.090	0.820	0.570	100.890	-0.500	1.000																			1580056825.0	10.91	20.21
26/01/2020 16:40:26	26012020	260120	164026	101.120	12.243583	-56.393318	101.480	-0.610	0.350	0.100	101.180	-0.800	0.600																			1580056826.0	10.87	20.13
26/01/2020 16:40:27	26012020	260120	164027	101.480	12.243572	-56.393265	101.750	0.190	-0.270	-0.370	101.540	-1.500	0.100																			1580056827.0	11.13	20.61
26/01/2020 16:40:28	26012020	260120	164028	101.750	12.243562	-56.393210	101.890	0.820	-0.530	-0.580	101.780	-1.900	-0.200																			1580056828.0	11.54	21.37
26/01/2020 16:40:29	26012020	260120	164029	101.890	12.243553	-56.393158	102.020	0.980	-0.400	-0.550	101.920	-1.900	-0.200																			1580056829.0	11.55	21.39
26/01/2020 16:40:30	26012020	260120	164030	102.030	12.243545	-56.393110	102.130	0.800	-0.300	-0.420	102.050	-1.700	-0.100																			1580056830.0	11.02	20.41
26/01/2020 16:40:31	26012020	260120	164031	102.140	12.243538	-56.393060	102.120	0.590	-0.580	-0.200	102.150	-1.800	0.100																			1580056831.0	10.51	19.46
26/01/2020 16:40:32	26012020	260120	164032	102.100	12.243528	-56.393008	101.910	0.400	-1.010	0.330	102.070	-2.300	0.500																			1580056832.0	10.61	19.65
26/01/2020 16:40:33	26012020	260120	164033	101.850	12.243515	-56.392957	101.540	0.140	-1.120	0.970	101.780	-2.500	1.100																			1580056833.0	11.15	20.65
26/01/2020 16:40:34	26012020	260120	164034	101.460	12.243502	-56.392905	101.100	-0.210	-0.830	1.370	101.370	-2.400	1.600																			1580056834.0	11.44	21.19
26/01/2020 16:40:35	26012020	260120	164035	101.010	12.243487	-56.392853	100.760	-0.550	-0.360	1.380	100.930	-1.900	1.800																			1580056835.0	11.29	20.91
26/01/2020 16:40:36	26012020	260120	164036	100.680	12.243475	-56.392803	100.620	-0.790	0.080	1.050	100.640	-1.400	1.500																			1580056836.0	11.11	20.58
26/01/2020 16:40:37	26012020	260120	164037	100.550	12.243463	-56.392752	100.570	-0.750	0.280	0.730	100.540	-1.200	1.200																			1580056837.0	11.06	20.48
26/01/2020 16:40:38	26012020	260120	164038	100.520	12.243452	-56.392700	100.650	-0.490	0.380	0.480	100.520	-1.100	0.900																			1580056838.0	11.15	20.65
26/01/2020 16:40:39	26012020	260120	164039	100.620	12.243440	-56.392648	101.020	-0.240	0.530	0.090	100.680	-0.900	0.600																			1580056839.0	11.39	21.09
26/01/2020 16:40:40	26012020	260120	164040	101.040	12.243428	-56.392597	101.530	-0.120	0.600	-0.240	101.140	-0.800	0.200																			1580056840.0	11.34	21.00
26/01/2020 16:40:41	26012020	260120	164041	101.540	12.243418	-56.392547	101.800	0.030	0.360	-0.270	101.610	-0.900	0.100																			1580056841.0	11.01	20.39
26/01/2020 16:40:42	26012020	260120	164042	101.780	12.243408	-56.392497	101.840	0.380	-0.300	-0.110	101.800	-1.400	0.200																			1580056842.0	10.78	19.96
26/01/2020 16:40:43	26012020	260120	164043	101.820	12.243398	-56.392443	101.890	0.860	-1.010	-0.010	101.830	-2.200	0.300																			1580056843.0	10.92	20.22
26/01/2020 16:40:44	26012020	260120	164044	101.870	12.243388	-56.392392	101.890	1.120	-1.270	0.030	101.880	-2.600	0.400																			1580056844.0	11.27	20.87
26/01/2020 16:40:45	26012020	260120	164045	101.850	12.243382	-56.392340	101.680	0.900	-1.050	0.190	101.820	-2.500	0.500																			1580056845.0	11.36	21.04
26/01/2020 16:40:46	26012020	260120	164046	101.610	12.243372	-56.392290	101.300	0.330	-0.720	0.600	101.530	-2.200	0.800																			1580056846.0	10.99	20.35
26/01/2020 16:40:47	26012020	260120	164047	101.210	12.243360	-56.392240	100.950	-0.260	-0.420	1.050	101.130	-1.900	1.300																			1580056847.0	10.71	19.83
26/01/2020 16:40:48	26012020	260120	164048	100.870	12.243347	-56.392190	100.740	-0.670	-0.130	1.190	100.820	-1.600	1.600																			1580056848.0	10.84	20.08
26/01/2020 16:40:49	26012020	260120	164049	100.670	12.243333	-56.392138	100.640	-0.790	0.040	1.010	100.640	-1.400	1.400																			1580056849.0	11.10	20.56
26/01/2020 16:40:50	26012020	260120	164050	100.570	12.243322	-56.392087	100.630	-0.640	0.010	0.750	100.570	-1.300	1.200																			1580056850.0	11.16	20.67
26/01/2020 16:40:51	26012020	260120	164051	100.580	12.243308	-56.392033	100.760	-0.380	-0.020	0.400	100.600	-1.400	0.900																			1580056851.0	11.33	20.98
26/01/2020 16:40:52	26012020	260120	164052	100.730	12.243297	-56.391980	100.960	-0.180	0.130	0.080	100.770	-1.300	0.500																			1580056852.0	11.54	21.37
26/01/2020 16:40:53	26012020	260120	164053	100.940	12.243287	-56.391930	101.130	-0.020	0.270	-0.100	100.970	-1.100	0.300																			1580056853.0	11.40	21.11
26/01/2020 16:40:54	26012020	260120	164054	101.120	12.243278	-56.391878	101.280	0.130	0.200	-0.120	101.150	-1.100	0.200																			1580056854.0	11.03	20.43
26/01/2020 16:40:55	26012020	260120	164055	101.260	12.243268	-56.391827	101.370	0.250	-0.120	0.130	101.280	-1.400	0.400																			1580056855.0	10.92	20.22
26/01/2020 16:40:56	26012020	260120	164056	101.340	12.243257	-56.391775	101.400	0.350	-0.550	0.470	101.360	-1.800	0.700																			1580056856.0	11.01	20.39
26/01/2020 16:40:57	26012020	260120	164057	101.360	12.243245	-56.391723	101.310	0.380	-0.730	0.700	101.350	-2.100	1.000																			1580056857.0	11.19	20.72
26/01/2020 16:40:58	26012020	260120	164058	101.250	12.243233	-56.391673	101.120	0.300	-0.590	0.810	101.210	-2.000	1.200																			1580056858.0	11.26	20.85
26/01/2020 16:40:59	26012020	260120	164059	101.050	12.243223	-56.391623	100.940	0.140	-0.390	0.710	101.010	-1.800	1.100	1015.40	26.30	26.40	19.30	19.40	928.00	65.00	65.00	375.00	29.50	356.00	9.30	91.00	3.70	67532	3315.00	27.70	27.60	1580056859.0	11.02	20.41
26/01/2020 16:41:00	26012020	260120	164100	100.880	12.243213	-56.391573	100.870	0.050	-0.290	0.490	100.870	-1.700	0.900																			1580056860.0	10.78	19.96
26/01/2020 16:41:01	26012020	260120	164101	100.820	12.243205	-56.391522	100.840	0.070	-0.300	0.300	100.820	-1.700	0.700																			1580056861.0	10.81	20.02
26/01/2020 16:41:02	26012020	260120	164102	100.790	12.243195	-56.391470	100.780	0.080	-0.360	0.200	100.780	-1.700	0.600																			1580056862.0	11.01	20.39
26/01/2020 16:41:03	26012020	260120	164103	100.730	12.243185	-56.391418	100.730	-0.020	-0.340	0.290	100.720	-1.700	0.600																			1580056863.0	11.20	20.74
26/01/2020 16:41:04	26012020	260120	164104	100.690	12.243173	-56.391367	100.750	-0.200	-0.240	0.540	100.690	-1.700	0.800																			1580056864.0	11.28	20.89
26/01/2020 16:41:05	26012020	260120	164105	100.710	12.243162	-56.391315	100.800	-0.320	-0.130	0.710	100.720	-1.500	1.000																			1580056865.0	11.21	20.76
26/01/2020 16:41:06	26012020	260120	164106	100.750	12.243150	-56.391263	100.760	-0.320	-0.140	0.860	100.750	-1.500	1.200																			1580056866.0	11.12	20.59
26/01/2020 16:41:07	26012020	260120	164107	100.690	12.243137	-56.391212	100.630	-0.220	-0.220	0.930	100.660	-1.600	1.300																			1580056867.0	11.14	20.63
26/01/2020 16:41:08	26012020	260120	164108	100.550	12.243127	-56.391160	100.520	-0.060	-0.310	0.750	100.530	-1.700	1.200																			1580056868.0	11.26	20.85
26/01/2020 16:41:09	26012020	260120	164109	100.460	12.243117	-56.391107	100.520	0.120	-0.350	0.470	100.450	-1.700	0.900																			1580056869.0	11.32	20.96
26/01/2020 16:41:10	26012020	260120	164110	100.470	12.243107	-56.391055	100.550	0.190	-0.220	0.260	100.480	-1.700	0.700																			1580056870.0	11.32	20.96
26/01/2020 16:41:11	26012020	260120	164111	100.500	12.243098	-56.391003	100.530	0.110	0.030	0.150	100.500	-1.400	0.500																			1580056871.0	11.26	20.85
26/01/2020 16:41:12	26012020	260120	164112	100.490	12.243088	-56.390953	100.540	-0.080	0.200	0.180	100.490	-1.200	0.500																			1580056872.0	11.03	20.43
26/01/2020 16:41:13	26012020	260120	164113	100.510	12.243078	-56.390903	100.640	-0.240	0.140	0.310	100.520	-1.200	0.600																			1580056873.0	10.86	20.11
26/01/2020 16:41:14	26012020	260120	164114	100.610	12.243067	-56.390852	100.740	-0.250	-0.130	0.500	100.640	-1.400	0.800																			1580056874.0	10.87	20.13
26/01/2020 16:41:15	26012020	260120	164115	100.690	12.243055	-56.390800	100.680	-0.050	-0.530	0.650	100.690	-1.800	1.000																			1580056875.0	11.00	20.37
26/01/2020 16:41:16	26012020	260120	164116	100.610	12.243043	-56.390748	100.440	0.240	-0.860	0.790	100.570	-2.200	1.100																			1580056876.0	11.17	20.69
26/01/2020 16:41:17	26012020	260120	164117	100.350	12.243033	-56.390695	100.160	0.430	-0.900	0.770	100.290	-2.300	1.200																			1580056877.0	11.35	21.02
26/01/2020 16:41:18	26012020	260120	164118	100.080	12.243023	-56.390643	100.010	0.440	-0.700	0.480	100.050	-2.200	1.000																			1580056878.0	11.36	21.04
26/01/2020 16:41:19	26012020	260120	164119	99.960	12.243017	-56.390592	99.990	0.290	-0.360	0.270	99.950	-1.900	0.700																			1580056879.0	11.19	20.72
26/01/2020 16:41:20	26012020	260120	164120	99.950	12.243008	-56.390540	100.010	0.040	0.010	0.390	99.960	-1.500	0.700																			1580056880.0	11.10	20.56
26/01/2020 16:41:21	26012020	260120	164121	99.970	12.242998	-56.390488	99.990	-0.220	0.300	0.660	99.970	-1.200	0.900																			1580056881.0	11.03	20.43
26/01/2020 16:41:22	26012020	260120	164122	99.940	12.242987	-56.390438	100.000	-0.400	0.260	0.760	99.940	-1.100	1.100																			1580056882.0	11.01	20.39
26/01/2020 16:41:23	26012020	260120	164123	99.960	12.242975	-56.390387	100.100	-0.380	-0.170	0.680	99.980	-1.400	1.100																			1580056883.0	11.03	20.43
26/01/2020 16:41:24	26012020	260120	164124	100.060	12.242965	-56.390332	100.240	-0.250	-0.520	0.470	100.090	-1.800	0.900																			1580056884.0	11.32	20.96
26/01/2020 16:41:25	26012020	260120	164125	100.200	12.242955	-56.390278	100.360	-0.170	-0.400	0.270	100.220	-1.900	0.700																			1580056885.0	11.66	21.59
26/01/2020 16:41:26	26012020	260120	164126	100.320	12.242947	-56.390228	100.530	-0.190	-0.020	0.250	100.350	-1.500	0.600																			1580056886.0	11.46	21.22
26/01/2020 16:41:27	26012020	260120	164127	100.500	12.242937	-56.390178	100.640	-0.190	0.080	0.440	100.540	-1.300	0.700																			1580056887.0	10.92	20.22
26/01/2020 16:41:28	26012020	260120	164128	100.600	12.242925	-56.390128	100.590	-0.040	-0.330	0.570	100.590	-1.500	0.900																			1580056888.0	10.61	19.65
26/01/2020 16:41:29	26012020	260120	164129	100.540	12.242913	-56.390075	100.510	0.200	-0.810	0.550	100.530	-2.100	0.900																			1580056889.0	10.96	20.30
26/01/2020 16:41:30	26012020	260120	164130	100.450	12.242903	-56.390020	100.460	0.360	-0.790	0.470	100.440	-2.300	0.900																			1580056890.0	11.56	21.41
26/01/2020 16:41:31	26012020	260120	164131	100.420	12.242895	-56.389968	100.500	0.340	-0.310	0.190	100.420	-1.900	0.700																			1580056891.0	11.62	21.52
26/01/2020 16:41:32	26012020	260120	164132	100.470	12.242887	-56.389918	100.560	0.170	0.080	-0.060	100.490	-1.400	0.400																			1580056892.0	11.11	20.58
26/01/2020 16:41:33	26012020	260120	164133	100.540	12.242878	-56.389868	100.530	0.000	0.090	-0.050	100.540	-1.300	0.300																			1580056893.0	10.71	19.83
26/01/2020 16:41:34	26012020	260120	164134	100.490	12.242868	-56.389817	100.390	-0.070	-0.130	0.150	100.460	-1.400	0.400																			1580056894.0	10.87	20.13
26/01/2020 16:41:35	26012020	260120	164135	100.340	12.242858	-56.389763	100.330	-0.070	-0.280	0.330	100.320	-1.600	0.600																			1580056895.0	11.26	20.85
26/01/2020 16:41:36	26012020	260120	164136	100.280	12.242847	-56.389710	100.340	-0.100	-0.350	0.440	100.280	-1.700	0.800																			1580056896.0	11.45	21.21
26/01/2020 16:41:37	26012020	260120	164137	100.290	12.242837	-56.389658	100.330	-0.190	-0.340	0.520	100.290	-1.700	0.900																			1580056897.0	11.32	20.96
26/01/2020 16:41:38	26012020	260120	164138	100.280	12.242825	-56.389607	100.350	-0.280	-0.250	0.540	100.280	-1.700	0.900																			1580056898.0	11.24	20.82
26/01/2020 16:41:39	26012020	260120	164139	100.310	12.242813	-56.389557	100.450	-0.300	-0.180	0.540	100.320	-1.600	0.900																			1580056899.0	11.15	20.65
26/01/2020 16:41:40	26012020	260120	164140	100.410	12.242803	-56.389505	100.530	-0.200	-0.160	0.380	100.430	-1.500	0.800																			1580056900.0	11.07	20.50
26/01/2020 16:41:41	26012020	260120	164141	100.490	12.242792	-56.389453	100.560	-0.010	-0.250	0.080	100.490	-1.600	0.500																			1580056901.0	11.10	20.56
26/01/2020 16:41:42	26012020	260120	164142	100.520	12.242783	-56.389402	100.630	0.240	-0.400	-0.170	100.530	-1.700	0.300																			1580056902.0	11.13	20.61
26/01/2020 16:41:43	26012020	260120	164143	100.610	12.242775	-56.389348	100.720	0.450	-0.440	-0.220	100.630	-1.800	0.100																			1580056903.0	11.24	20.82
26/01/2020 16:41:44	26012020	260120	164144	100.700	12.242765	-56.389297	100.690	0.440	-0.350	-0.010	100.700	-1.800	0.300																			1580056904.0	11.28	20.89
26/01/2020 16:41:45	26012020	260120	164145	100.640	12.242757	-56.389245	100.510	0.090	-0.100	0.340	100.600	-1.600	0.600																			1580056905.0	11.20	20.74
26/01/2020 16:41:46	26012020	260120	164146	100.460	12.242747	-56.389195	100.410	-0.360	0.020	0.630	100.430	-1.400	0.900																			1580056906.0	10.85	20.09
26/01/2020 16:41:47	26012020	260120	164147	100.370	12.242735	-56.389143	100.430	-0.530	-0.320	0.740	100.370	-1.500	1.100																			1580056907.0	10.85	20.09
26/01/2020 16:41:48	26012020	260120	164148	100.390	12.242723	-56.389090	100.430	-0.300	-0.810	0.710	100.390	-2.000	1.100																			1580056908.0	11.03	20.43
26/01/2020 16:41:49	26012020	260120	164149	100.400	12.242710	-56.389035	100.390	0.080	-0.800	0.610	100.390	-2.300	1.000																			1580056909.0	11.61	21.50
26/01/2020 16:41:50	26012020	260120	164150	100.340	12.242700	-56.388983	100.360	0.270	-0.200	0.420	100.330	-1.900	0.900																			1580056910.0	11.82	21.89
26/01/2020 16:41:51	26012020	260120	164151	100.330	12.242690	-56.388933	100.490	0.110	0.420	0.120	100.340	-1.200	0.600																			1580056911.0	11.32	20.96
26/01/2020 16:41:52	26012020	260120	164152	100.480	12.242683	-56.388883	100.750	-0.200	0.500	-0.160	100.530	-0.800	0.300																			1580056912.0	10.72	19.85
26/01/2020 16:41:53	26012020	260120	164153	100.750	12.242675	-56.388832	101.010	-0.260	0.020	-0.200	100.810	-1.200	0.100																			1580056913.0	10.63	19.69
26/01/2020 16:41:54	26012020	260120	164154	100.990	12.242663	-56.388778	101.110	-0.030	-0.460	0.070	101.020	-1.700	0.300																			1580056914.0	11.11	20.58
26/01/2020 16:41:55	26012020	260120	164155	101.070	12.242650	-56.388725	101.090	0.180	-0.520	0.260	101.070	-1.900	0.600																			1580056915.0	11.57	21.43
26/01/2020 16:41:56	26012020	260120	164156	101.040	12.242640	-56.388675	101.070	0.180	-0.270	0.310	101.040	-1.700	0.700																			1580056916.0	11.50	21.30
26/01/2020 16:41:57	26012020	260120	164157	101.030	12.242630	-56.388625	101.110	0.120	-0.270	0.250	101.040	-1.600	0.600																			1580056917.0	10.96	20.30
26/01/2020 16:41:58	26012020	260120	164158	101.080	12.242622	-56.388573	101.120	0.210	-0.700	0.090	101.090	-1.900	0.500																			1580056918.0	10.62	19.67
26/01/2020 16:41:59	26012020	260120	164159	101.070	12.242612	-56.388520	101.040	0.300	-0.920	0.030	101.060	-2.300	0.400	1015.40	26.40	26.40	19.50	19.60	924.00	66.00	66.00	375.00	29.50	353.00	9.50	82.00	3.90	67360	3337.00	27.60	27.60	1580056919.0	11.05	20.46
26/01/2020 16:42:00	26012020	260120	164200	100.990	12.242602	-56.388467	100.920	0.170	-0.490	0.270	100.970	-2.100	0.500																			1580056920.0	11.62	21.52
26/01/2020 16:42:01	26012020	260120	164201	100.870	12.242590	-56.388417	100.860	-0.120	0.110	0.560	100.850	-1.500	0.800																			1580056921.0	11.45	21.21
26/01/2020 16:42:02	26012020	260120	164202	100.810	12.242578	-56.388368	100.920	-0.350	0.190	0.590	100.820	-1.200	1.000																			1580056922.0	10.78	19.96
26/01/2020 16:42:03	26012020	260120	164203	100.860	12.242567	-56.388317	100.990	-0.320	-0.220	0.470	100.880	-1.500	0.900																			1580056923.0	10.70	19.82
26/01/2020 16:42:04	26012020	260120	164204	100.930	12.242557	-56.388262	101.080	-0.150	-0.460	0.340	100.940	-1.600	0.800																			1580056924.0	11.28	20.89
26/01/2020 16:42:05	26012020	260120	164205	101.030	12.242545	-56.388208	101.200	-0.050	-0.180	0.210	101.050	-1.700	0.600																			1580056925.0	11.79	21.84
26/01/2020 16:42:06	26012020	260120	164206	101.170	12.242535	-56.388158	101.390	-0.120	0.190	-0.010	101.200	-1.300	0.400																			1580056926.0	11.50	21.30
26/01/2020 16:42:07	26012020	260120	164207	101.380	12.242525	-56.388108	101.590	-0.160	0.130	-0.100	101.420	-1.200	0.300																			1580056927.0	10.86	20.11
26/01/2020 16:42:08	26012020	260120	164208	101.560	12.242515	-56.388057	101.720	-0.010	-0.320	-0.020	101.590	-1.500	0.300																			1580056928.0	10.71	19.83
26/01/2020 16:42:09	26012020	260120	164209	101.680	12.242503	-56.388003	101.780	0.240	-0.610	0.040	101.700	-1.900	0.400																			1580056929.0	11.16	20.67
26/01/2020 16:42:10	26012020	260120	164210	101.730	12.242492	-56.387952	101.730	0.380	-0.530	0.190	101.720	-2.000	0.500																			1580056930.0	11.53	21.35
26/01/2020 16:42:11	26012020	260120	164211	101.660	12.242482	-56.387900	101.610	0.340	-0.290	0.340	101.640	-1.800	0.700																			1580056931.0	11.32	20.96
26/01/2020 16:42:12	26012020	260120	164212	101.550	12.242470	-56.387850	101.560	0.240	-0.180	0.350	101.530	-1.600	0.700																			1580056932.0	10.94	20.26
26/01/2020 16:42:13	26012020	260120	164213	101.500	12.242460	-56.387798	101.620	0.130	-0.240	0.180	101.510	-1.600	0.600																			1580056933.0	10.86	20.11
26/01/2020 16:42:14	26012020	260120	164214	101.570	12.242452	-56.387747	101.730	-0.070	-0.200	0.030	101.590	-1.600	0.400																			1580056934.0	11.07	20.50
26/01/2020 16:42:15	26012020	260120	164215	101.690	12.242440	-56.387695	101.800	-0.300	-0.100	0.090	101.710	-1.500	0.400																			1580056935.0	11.25	20.84
26/01/2020 16:42:16	26012020	260120	164216	101.750	12.242428	-56.387645	101.710	-0.320	-0.290	0.310	101.730	-1.600	0.600																			1580056936.0	11.05	20.46
26/01/2020 16:42:17	26012020	260120	164217	101.650	12.242415	-56.387593	101.550	-0.070	-0.720	0.580	101.610	-2.000	0.900																			1580056937.0	10.97	20.32
26/01/2020 16:42:18	26012020	260120	164218	101.480	12.242402	-56.387540	101.440	0.150	-0.720	0.680	101.450	-2.200	1.000																			1580056938.0	11.42	21.15
26/01/2020 16:42:19	26012020	260120	164219	101.380	12.242390	-56.387487	101.410	0.130	-0.290	0.560	101.370	-1.900	1.000																			1580056939.0	11.74	21.74
26/01/2020 16:42:20	26012020	260120	164220	101.360	12.242378	-56.387437	101.360	0.000	0.040	0.300	101.350	-1.400	0.800																			1580056940.0	11.24	20.82
26/01/2020 16:42:21	26012020	260120	164221	101.310	12.242370	-56.387387	101.360	-0.080	0.070	0.110	101.300	-1.300	0.500																			1580056941.0	10.81	20.02
26/01/2020 16:42:22	26012020	260120	164222	101.310	12.242360	-56.387333	101.460	-0.090	0.020	0.130	101.330	-1.400	0.500																			1580056942.0	11.00	20.37
26/01/2020 16:42:23	26012020	260120	164223	101.430	12.242348	-56.387282	101.620	-0.070	0.010	0.210	101.460	-1.400	0.500																			1580056943.0	11.27	20.87
26/01/2020 16:42:24	26012020	260120	164224	101.580	12.242335	-56.387232	101.720	-0.040	-0.070	0.330	101.610	-1.400	0.600																			1580056944.0	11.25	20.84
26/01/2020 16:42:25	26012020	260120	164225	101.680	12.242323	-56.387180	101.730	0.020	-0.210	0.550	101.690	-1.600	0.800																			1580056945.0	11.12	20.59
26/01/2020 16:42:26	26012020	260120	164226	101.670	12.242310	-56.387130	101.640	0.110	-0.330	0.620	101.650	-1.700	1.000																			1580056946.0	11.10	20.56
26/01/2020 16:42:27	26012020	260120	164227	101.570	12.242300	-56.387078	101.530	0.220	-0.500	0.540	101.560	-1.800	0.900																			1580056947.0	11.11	20.58
26/01/2020 16:42:28	26012020	260120	164228	101.460	12.242290	-56.387027	101.350	0.370	-0.800	0.520	101.430	-2.100	0.900																			1580056948.0	11.07	20.50
26/01/2020 16:42:29	26012020	260120	164229	101.280	12.242280	-56.386972	101.180	0.420	-0.900	0.450	101.240	-2.300	0.800																			1580056949.0	11.21	20.76
26/01/2020 16:42:30	26012020	260120	164230	101.100	12.242270	-56.386920	101.090	0.140	-0.370	0.450	101.080	-2.000	0.800																			1580056950.0	11.52	21.34
26/01/2020 16:42:31	26012020	260120	164231	101.030	12.242260	-56.386870	101.070	-0.340	0.310	0.560	101.030	-1.300	0.900																			1580056951.0	11.40	21.11
26/01/2020 16:42:32	26012020	260120	164232	101.010	12.242248	-56.386822	101.050	-0.580	0.370	0.690	101.000	-1.000	1.000																			1580056952.0	10.66	19.74
26/01/2020 16:42:33	26012020	260120	164233	100.990	12.242235	-56.386770	101.110	-0.380	-0.150	0.670	100.990	-1.400	1.000																			1580056953.0	10.56	19.56
26/01/2020 16:42:34	26012020	260120	164234	101.040	12.242222	-56.386717	101.250	-0.050	-0.530	0.570	101.070	-1.900	1.000																			1580056954.0	11.28	20.89
26/01/2020 16:42:35	26012020	260120	164235	101.190	12.242210	-56.386663	101.400	0.130	-0.360	0.450	101.220	-1.900	0.900																			1580056955.0	11.83	21.91
26/01/2020 16:42:36	26012020	260120	164236	101.340	12.242200	-56.386612	101.440	0.120	-0.010	0.310	101.360	-1.500	0.700																			1580056956.0	11.55	21.39
26/01/2020 16:42:37	26012020	260120	164237	101.370	12.242190	-56.386563	101.380	0.100	-0.000	0.150	101.360	-1.400	0.600																			1580056957.0	10.86	20.11
26/01/2020 16:42:38	26012020	260120	164238	101.310	12.242182	-56.386512	101.410	0.150	-0.310	0.030	101.310	-1.600	0.400																			1580056958.0	10.69	19.80
26/01/2020 16:42:39	26012020	260120	164239	101.360	12.242172	-56.386458	101.530	0.180	-0.510	0.050	101.390	-1.900	0.400																			1580056959.0	11.10	20.56
26/01/2020 16:42:40	26012020	260120	164240	101.490	12.242162	-56.386407	101.570	0.140	-0.560	0.310	101.500	-1.900	0.600																			1580056960.0	11.39	21.09
26/01/2020 16:42:41	26012020	260120	164241	101.490	12.242148	-56.386355	101.360	0.090	-0.600	0.810	101.460	-2.000	1.000																			1580056961.0	11.24	20.82
26/01/2020 16:42:42	26012020	260120	164242	101.320	12.242135	-56.386303	101.040	0.040	-0.530	1.170	101.250	-2.000	1.200																			1580056962.0	11.17	20.69
26/01/2020 16:42:43	26012020	260120	164243	100.940	12.242122	-56.386252	100.940	-0.080	-0.180	0.980	100.890	-1.700	1.500																			1580056963.0	11.32	20.96
26/01/2020 16:42:44	26012020	260120	164244	100.880	12.242112	-56.386200	101.110	-0.250	0.250	0.510	100.900	-1.300	1.000																			1580056964.0	11.28	20.89
26/01/2020 16:42:45	26012020	260120	164245	101.070	12.242103	-56.386150	101.360	-0.350	0.350	0.160	101.120	-1.000	0.600																			1580056965.0	10.92	20.22
26/01/2020 16:42:46	26012020	260120	164246	101.320	12.242093	-56.386100	101.490	-0.270	0.060	0.100	101.360	-1.200	0.500																			1580056966.0	10.80	20.00
26/01/2020 16:42:47	26012020	260120	164247	101.440	12.242080	-56.386047	101.520	-0.040	-0.330	0.180	101.440	-1.600	0.500																			1580056967.0	11.08	20.52
26/01/2020 16:42:48	26012020	260120	164248	101.460	12.242068	-56.385993	101.530	0.260	-0.540	0.120	101.460	-1.900	0.500																			1580056968.0	11.41	21.13
26/01/2020 16:42:49	26012020	260120	164249	101.480	12.242058	-56.385942	101.550	0.460	-0.560	0.020	101.490	-2.000	0.400																			1580056969.0	11.41	21.13
26/01/2020 16:42:50	26012020	260120	164250	101.500	12.242050	-56.385890	101.520	0.410	-0.520	-0.020	101.500	-1.900	0.300																			1580056970.0	11.21	20.76
26/01/2020 16:42:51	26012020	260120	164251	101.460	12.242040	-56.385840	101.360	0.180	-0.470	0.140	101.430	-1.900	0.400																			1580056971.0	11.06	20.48
26/01/2020 16:42:52	26012020	260120	164252	101.290	12.242028	-56.385788	101.080	-0.150	-0.310	0.430	101.230	-1.800	0.700																			1580056972.0	11.07	20.50
26/01/2020 16:42:53	26012020	260120	164253	100.990	12.242017	-56.385737	100.760	-0.410	-0.140	0.680	100.930	-1.600	1.000																			1580056973.0	11.12	20.59
26/01/2020 16:42:54	26012020	260120	164254	100.670	12.242003	-56.385687	100.610	-0.460	-0.120	0.690	100.630	-1.500	1.100																			1580056974.0	11.05	20.46
26/01/2020 16:42:55	26012020	260120	164255	100.540	12.241992	-56.385635	100.640	-0.300	-0.260	0.550	100.540	-1.600	1.000																			1580056975.0	11.08	20.52
26/01/2020 16:42:56	26012020	260120	164256	100.580	12.241980	-56.385582	100.670	-0.060	-0.350	0.460	100.590	-1.700	0.800																			1580056976.0	11.28	20.89
26/01/2020 16:42:57	26012020	260120	164257	100.610	12.241968	-56.385530	100.660	0.110	-0.230	0.420	100.610	-1.700	0.800																			1580056977.0	11.47	21.24
26/01/2020 16:42:58	26012020	260120	164258	100.610	12.241958	-56.385478	100.710	0.210	-0.110	0.360	100.620	-1.500	0.800																			1580056978.0	11.36	21.04
26/01/2020 16:42:59	26012020	260120	164259	100.670	12.241948	-56.385427	100.800	0.270	-0.090	0.270	100.700	-1.500	0.700	1015.40	26.30	26.40	19.50	19.60	922.00	66.00	66.00	375.00	29.50	350.00	9.70	78.00	4.10	67256	3282.00	27.60	27.60	1580056979.0	11.10	20.56
26/01/2020 16:43:00	26012020	260120	164300	100.780	12.241938	-56.385375	100.880	0.240	-0.070	0.260	100.790	-1.500	0.600																			1580056980.0	11.09	20.54
26/01/2020 16:43:01	26012020	260120	164301	100.840	12.241930	-56.385323	100.900	0.090	-0.100	0.430	100.840	-1.500	0.700																			1580056981.0	11.15	20.65
26/01/2020 16:43:02	26012020	260120	164302	100.860	12.241920	-56.385272	100.910	-0.110	-0.270	0.750	100.860	-1.600	1.000																			1580056982.0	11.09	20.54
26/01/2020 16:43:03	26012020	260120	164303	100.840	12.241907	-56.385220	100.800	-0.170	-0.590	1.040	100.830	-1.900	1.300																			1580056983.0	11.07	20.50
26/01/2020 16:43:04	26012020	260120	164304	100.710	12.241895	-56.385168	100.670	-0.140	-0.740	1.020	100.670	-2.100	1.400																			1580056984.0	11.21	20.76
26/01/2020 16:43:05	26012020	260120	164305	100.590	12.241883	-56.385115	100.700	-0.180	-0.400	0.890	100.590	-2.000	1.300																			1580056985.0	11.47	21.24
26/01/2020 16:43:06	26012020	260120	164306	100.640	12.241873	-56.385065	100.770	-0.300	0.090	0.770	100.660	-1.500	1.200																			1580056986.0	11.33	20.98
26/01/2020 16:43:07	26012020	260120	164307	100.700	12.241862	-56.385017	100.700	-0.230	0.040	0.500	100.700	-1.300	1.000																			1580056987.0	10.77	19.95
26/01/2020 16:43:08	26012020	260120	164308	100.630	12.241852	-56.384963	100.610	0.120	-0.480	0.200	100.610	-1.700	0.700																			1580056988.0	10.65	19.72
26/01/2020 16:43:09	26012020	260120	164309	100.560	12.241843	-56.384908	100.630	0.470	-0.690	0.030	100.560	-2.100	0.400																			1580056989.0	11.34	21.00
26/01/2020 16:43:10	26012020	260120	164310	100.590	12.241833	-56.384855	100.680	0.530	-0.380	-0.030	100.600	-1.900	0.400																			1580056990.0	11.85	21.95
26/01/2020 16:43:11	26012020	260120	164311	100.640	12.241825	-56.384805	100.770	0.300	0.040	0.060	100.650	-1.500	0.400																			1580056991.0	11.42	21.15
26/01/2020 16:43:12	26012020	260120	164312	100.730	12.241815	-56.384755	100.860	-0.020	0.160	0.430	100.750	-1.300	0.600																			1580056992.0	10.87	20.13
26/01/2020 16:43:13	26012020	260120	164313	100.810	12.241803	-56.384703	100.880	-0.250	-0.030	0.730	100.820	-1.400	1.000																			1580056993.0	10.79	19.98
26/01/2020 16:43:14	26012020	260120	164314	100.810	12.241790	-56.384652	100.800	-0.330	-0.210	0.810	100.790	-1.600	1.200																			1580056994.0	11.10	20.56
26/01/2020 16:43:15	26012020	260120	164315	100.710	12.241780	-56.384600	100.660	-0.250	-0.320	0.860	100.680	-1.700	1.200																			1580056995.0	11.34	21.00
26/01/2020 16:43:16	26012020	260120	164316	100.570	12.241768	-56.384548	100.650	-0.100	-0.470	0.710	100.560	-1.800	1.200																			1580056996.0	11.23	20.80
26/01/2020 16:43:17	26012020	260120	164317	100.590	12.241758	-56.384495	100.750	-0.030	-0.580	0.390	100.600	-2.000	0.900																			1580056997.0	11.20	20.74
26/01/2020 16:43:18	26012020	260120	164318	100.700	12.241748	-56.384443	100.800	-0.080	-0.450	0.190	100.720	-1.900	0.600																			1580056998.0	11.28	20.89
26/01/2020 16:43:19	26012020	260120	164319	100.750	12.241738	-56.384393	100.640	-0.130	-0.180	0.310	100.730	-1.700	0.600																			1580056999.0	11.26	20.85
26/01/2020 16:43:20	26012020	260120	164320	100.570	12.241727	-56.384342	100.400	-0.030	-0.120	0.450	100.520	-1.500	0.800																			1580057000.0	11.00	20.37
26/01/2020 16:43:21	26012020	260120	164321	100.330	12.241717	-56.384290	100.350	0.190	-0.250	0.320	100.310	-1.600	0.800																			1580057001.0	10.92	20.22
26/01/2020 16:43:22	26012020	260120	164322	100.320	12.241707	-56.384237	100.490	0.280	-0.260	0.120	100.350	-1.700	0.500																			1580057002.0	11.20	20.74
26/01/2020 16:43:23	26012020	260120	164323	100.470	12.241698	-56.384185	100.530	0.170	-0.060	0.150	100.490	-1.600	0.500																			1580057003.0	11.43	21.17
26/01/2020 16:43:24	26012020	260120	164324	100.490	12.241688	-56.384135	100.480	0.010	0.030	0.370	100.480	-1.400	0.700																			1580057004.0	11.18	20.71
26/01/2020 16:43:25	26012020	260120	164325	100.430	12.241677	-56.384083	100.470	0.010	-0.220	0.570	100.420	-1.500	0.900																			1580057005.0	10.89	20.17
26/01/2020 16:43:26	26012020	260120	164326	100.420	12.241667	-56.384032	100.460	0.150	-0.620	0.650	100.410	-1.900	1.000																			1580057006.0	11.01	20.39
26/01/2020 16:43:27	26012020	260120	164327	100.380	12.241655	-56.383977	100.410	0.170	-0.600	0.600	100.370	-2.100	1.000																			1580057007.0	11.42	21.15
26/01/2020 16:43:28	26012020	260120	164328	100.350	12.241647	-56.383927	100.540	-0.060	-0.130	0.430	100.370	-1.700	0.900																			1580057008.0	11.59	21.46
26/01/2020 16:43:29	26012020	260120	164329	100.500	12.241637	-56.383877	100.780	-0.340	0.200	0.300	100.550	-1.300	0.700																			1580057009.0	11.07	20.50
26/01/2020 16:43:30	26012020	260120	164330	100.730	12.241627	-56.383827	100.810	-0.370	-0.090	0.390	100.760	-1.300	0.700																			1580057010.0	10.54	19.52
26/01/2020 16:43:31	26012020	260120	164331	100.720	12.241615	-56.383775	100.560	-0.140	-0.660	0.560	100.680	-1.900	0.900																			1580057011.0	10.75	19.91
26/01/2020 16:43:32	26012020	260120	164332	100.470	12.241603	-56.383720	100.400	0.100	-0.820	0.620	100.470	-2.100	0.900																			1580057012.0	11.48	21.26
26/01/2020 16:43:33	26012020	260120	164333	100.320	12.241592	-56.383667	100.400	0.120	-0.350	0.430	100.320	-2.000	0.900																			1580057013.0	11.79	21.84
26/01/2020 16:43:34	26012020	260120	164334	100.340	12.241583	-56.383618	100.390	-0.020	0.110	0.130	100.350	-1.400	0.600																			1580057014.0	11.33	20.98
26/01/2020 16:43:35	26012020	260120	164335	100.320	12.241575	-56.383568	100.260	-0.050	-0.050	0.060	100.310	-1.300	0.400																			1580057015.0	10.65	19.72
26/01/2020 16:43:36	26012020	260120	164336	100.190	12.241565	-56.383513	100.170	0.100	-0.370	0.240	100.160	-1.700	0.500																			1580057016.0	10.79	19.98
26/01/2020 16:43:37	26012020	260120	164337	100.110	12.241553	-56.383460	100.230	0.170	-0.230	0.330	100.110	-1.700	0.700																			1580057017.0	11.52	21.34
26/01/2020 16:43:38	26012020	260120	164338	100.200	12.241543	-56.383410	100.440	0.080	0.160	0.200	100.230	-1.400	0.600																			1580057018.0	11.61	21.50
26/01/2020 16:43:39	26012020	260120	164339	100.400	12.241533	-56.383360	100.650	-0.030	0.210	0.090	100.450	-1.200	0.500																			1580057019.0	10.96	20.30
26/01/2020 16:43:40	26012020	260120	164340	100.610	12.241525	-56.383310	100.770	0.000	-0.210	0.210	100.650	-1.400	0.500																			1580057020.0	10.62	19.67
26/01/2020 16:43:41	26012020	260120	164341	100.710	12.241513	-56.383257	100.770	0.040	-0.570	0.460	100.710	-1.900	0.700																			1580057021.0	10.99	20.35
26/01/2020 16:43:42	26012020	260120	164342	100.700	12.241502	-56.383203	100.750	-0.050	-0.490	0.740	100.700	-2.000	1.000																			1580057022.0	11.45	21.21
26/01/2020 16:43:43	26012020	260120	164343	100.670	12.241492	-56.383155	100.670	-0.140	-0.380	0.840	100.660	-1.800	1.200																			1580057023.0	11.29	20.91
26/01/2020 16:43:44	26012020	260120	164344	100.600	12.241480	-56.383103	100.460	-0.040	-0.650	0.770	100.560	-1.800	1.200																			1580057024.0	10.77	19.95
26/01/2020 16:43:45	26012020	260120	164345	100.340	12.241470	-56.383050	100.220	0.130	-0.850	0.590	100.290	-2.200	1.000																			1580057025.0	10.92	20.22
26/01/2020 16:43:46	26012020	260120	164346	100.140	12.241460	-56.382997	100.100	0.180	-0.630	0.430	100.110	-2.200	0.800																			1580057026.0	11.49	21.28
26/01/2020 16:43:47	26012020	260120	164347	100.010	12.241452	-56.382945	100.000	0.110	-0.130	0.320	100.000	-1.700	0.700																			1580057027.0	11.49	21.28
26/01/2020 16:43:48	26012020	260120	164348	99.930	12.241442	-56.382895	100.000	-0.010	0.220	0.210	99.930	-1.300	0.600																			1580057028.0	11.11	20.58
26/01/2020 16:43:49	26012020	260120	164349	99.960	12.241433	-56.382843	100.230	-0.120	0.260	0.160	99.990	-1.100	0.500																			1580057029.0	10.89	20.17
26/01/2020 16:43:50	26012020	260120	164350	100.200	12.241423	-56.382790	100.560	-0.230	0.190	0.220	100.260	-1.200	0.600																			1580057030.0	11.08	20.52
26/01/2020 16:43:51	26012020	260120	164351	100.540	12.241412	-56.382738	100.860	-0.330	0.150	0.380	100.600	-1.200	0.700																			1580057031.0	11.31	20.95
26/01/2020 16:43:52	26012020	260120	164352	100.810	12.241398	-56.382688	101.030	-0.300	0.010	0.580	100.850	-1.300	0.900																			1580057032.0	11.22	20.78
26/01/2020 16:43:53	26012020	260120	164353	100.960	12.241387	-56.382638	101.070	-0.030	-0.270	0.700	100.980	-1.600	1.000																			1580057033.0	11.04	20.45
26/01/2020 16:43:54	26012020	260120	164354	100.980	12.241375	-56.382587	100.940	0.350	-0.580	0.640	100.970	-1.900	1.100																			1580057034.0	11.04	20.45
26/01/2020 16:43:55	26012020	260120	164355	100.860	12.241367	-56.382533	100.850	0.590	-0.730	0.240	100.830	-2.100	0.800																			1580057035.0	11.16	20.67
26/01/2020 16:43:56	26012020	260120	164356	100.790	12.241362	-56.382482	100.870	0.540	-0.630	0.030	100.800	-2.100	0.400																			1580057036.0	11.22	20.78
26/01/2020 16:43:57	26012020	260120	164357	100.820	12.241353	-56.382430	100.820	0.280	-0.450	0.180	100.820	-1.900	0.500																			1580057037.0	11.14	20.63
26/01/2020 16:43:58	26012020	260120	164358	100.750	12.241343	-56.382380	100.700	0.030	-0.410	0.380	100.720	-1.800	0.700																			1580057038.0	10.90	20.19
26/01/2020 16:43:59	26012020	260120	164359	100.610	12.241332	-56.382328	100.660	-0.100	-0.460	0.490	100.600	-1.900	0.800	1015.40	26.30	26.40	19.50	19.60	923.00	66.00	66.00	375.00	29.50	352.00	10.00	81.00	4.40	67199	3364.00	27.60	27.60	1580057039.0	10.94	20.26
26/01/2020 16:44:00	26012020	260120	164400	100.600	12.241320	-56.382275	100.730	-0.140	-0.430	0.400	100.610	-1.900	0.800																			1580057040.0	11.24	20.82
26/01/2020 16:44:01	26012020	260120	164401	100.670	12.241310	-56.382223	100.780	-0.180	-0.260	0.320	100.690	-1.700	0.700																			1580057041.0	11.41	21.13
26/01/2020 16:44:02	26012020	260120	164402	100.730	12.241298	-56.382172	100.830	-0.280	0.060	0.360	100.740	-1.500	0.700																			1580057042.0	11.37	21.06
26/01/2020 16:44:03	26012020	260120	164403	100.770	12.241287	-56.382120	100.880	-0.440	0.350	0.350	100.780	-1.100	0.700																			1580057043.0	11.22	20.78
26/01/2020 16:44:04	26012020	260120	164404	100.810	12.241277	-56.382070	100.900	-0.480	0.270	0.250	100.810	-1.100	0.700																			1580057044.0	10.98	20.33
26/01/2020 16:44:05	26012020	260120	164405	100.840	12.241267	-56.382018	100.980	-0.300	-0.180	0.100	100.860	-1.400	0.500																			1580057045.0	10.91	20.21
26/01/2020 16:44:06	26012020	260120	164406	100.940	12.241255	-56.381965	101.100	-0.000	-0.600	-0.010	100.970	-1.900	0.400																			1580057046.0	11.25	20.84
26/01/2020 16:44:07	26012020	260120	164407	101.040	12.241245	-56.381912	101.050	0.260	-0.650	0.110	101.040	-2.100	0.400																			1580057047.0	11.58	21.45
26/01/2020 16:44:08	26012020	260120	164408	101.000	12.241233	-56.381860	100.920	0.450	-0.390	0.250	100.980	-2.000	0.500																			1580057048.0	11.47	21.24
26/01/2020 16:44:09	26012020	260120	164409	100.840	12.241223	-56.381810	100.870	0.560	-0.130	0.250	100.830	-1.600	0.600																			1580057049.0	11.09	20.54
26/01/2020 16:44:10	26012020	260120	164410	100.820	12.241215	-56.381758	100.990	0.510	0.050	0.140	100.840	-1.400	0.600																			1580057050.0	10.85	20.09
26/01/2020 16:44:11	26012020	260120	164411	100.960	12.241207	-56.381708	101.250	0.220	0.110	0.020	101.000	-1.300	0.400																			1580057051.0	10.91	20.21
26/01/2020 16:44:12	26012020	260120	164412	101.210	12.241197	-56.381657	101.400	-0.120	-0.030	0.160	101.250	-1.400	0.400																			1580057052.0	10.95	20.28
26/01/2020 16:44:13	26012020	260120	164413	101.330	12.241187	-56.381607	101.320	-0.240	-0.440	0.510	101.330	-1.700	0.700																			1580057053.0	10.93	20.24
26/01/2020 16:44:14	26012020	260120	164414	101.230	12.241173	-56.381553	101.130	-0.060	-1.000	0.750	101.200	-2.200	1.000																			1580057054.0	11.08	20.52
26/01/2020 16:44:15	26012020	260120	164415	101.040	12.241160	-56.381500	100.990	0.130	-1.170	0.810	101.000	-2.600	1.200																			1580057055.0	11.43	21.17
26/01/2020 16:44:16	26012020	260120	164416	100.910	12.241150	-56.381447	100.910	0.010	-0.580	0.680	100.890	-2.200	1.100																			1580057056.0	11.74	21.74
26/01/2020 16:44:17	26012020	260120	164417	100.840	12.241140	-56.381398	100.850	-0.300	0.110	0.490	100.830	-1.500	0.900																			1580057057.0	11.38	21.08
26/01/2020 16:44:18	26012020	260120	164418	100.780	12.241130	-56.381348	100.800	-0.450	0.140	0.350	100.770	-1.200	0.800																			1580057058.0	10.60	19.63
26/01/2020 16:44:19	26012020	260120	164419	100.730	12.241120	-56.381295	100.780	-0.330	-0.220	0.170	100.730	-1.500	0.600																			1580057059.0	10.66	19.74
26/01/2020 16:44:20	26012020	260120	164420	100.720	12.241108	-56.381240	100.850	-0.080	-0.330	0.060	100.730	-1.700	0.400																			1580057060.0	11.45	21.21
26/01/2020 16:44:21	26012020	260120	164421	100.810	12.241098	-56.381187	101.040	0.080	-0.000	0.080	100.840	-1.600	0.400																			1580057061.0	11.83	21.91
26/01/2020 16:44:22	26012020	260120	164422	101.000	12.241087	-56.381137	101.250	0.100	0.340	0.040	101.050	-1.200	0.400																			1580057062.0	11.46	21.22
26/01/2020 16:44:23	26012020	260120	164423	101.230	12.241077	-56.381087	101.430	0.110	0.330	0.030	101.270	-1.000	0.400																			1580057063.0	10.89	20.17
26/01/2020 16:44:24	26012020	260120	164424	101.410	12.241067	-56.381037	101.620	0.180	0.050	0.030	101.440	-1.300	0.400																			1580057064.0	10.78	19.96
26/01/2020 16:44:25	26012020	260120	164425	101.600	12.241057	-56.380983	101.800	0.290	-0.280	0.050	101.630	-1.600	0.400																			1580057065.0	11.05	20.46
26/01/2020 16:44:26	26012020	260120	164426	101.750	12.241047	-56.380932	101.790	0.360	-0.650	0.250	101.760	-1.900	0.500																			1580057066.0	11.17	20.69
26/01/2020 16:44:27	26012020	260120	164427	101.720	12.241037	-56.380880	101.570	0.340	-0.950	0.540	101.680	-2.300	0.800																			1580057067.0	11.16	20.67
26/01/2020 16:44:28	26012020	260120	164428	101.490	12.241025	-56.380828	101.350	0.190	-0.900	0.760	101.440	-2.400	1.100																			1580057068.0	11.23	20.80
26/01/2020 16:44:29	26012020	260120	164429	101.260	12.241015	-56.380777	101.250	-0.070	-0.550	0.740	101.230	-2.100	1.100																			1580057069.0	11.29	20.91
26/01/2020 16:44:30	26012020	260120	164430	101.190	12.241003	-56.380727	101.240	-0.300	-0.290	0.550	101.190	-1.800	1.000																			1580057070.0	11.02	20.41
26/01/2020 16:44:31	26012020	260120	164431	101.170	12.240992	-56.380677	101.110	-0.350	-0.270	0.430	101.160	-1.700	0.800																			1580057071.0	10.85	20.09
26/01/2020 16:44:32	26012020	260120	164432	101.030	12.240980	-56.380623	100.900	-0.220	-0.340	0.480	100.980	-1.700	0.800																			1580057072.0	11.09	20.54
26/01/2020 16:44:33	26012020	260120	164433	100.800	12.240967	-56.380570	100.810	-0.060	-0.210	0.420	100.770	-1.700	0.800																			1580057073.0	11.47	21.24
26/01/2020 16:44:34	26012020	260120	164434	100.730	12.240957	-56.380517	100.990	0.000	0.160	0.140	100.750	-1.400	0.600																			1580057074.0	11.59	21.46
26/01/2020 16:44:35	26012020	260120	164435	100.930	12.240948	-56.380467	101.320	-0.020	0.440	-0.090	101.000	-1.000	0.300																			1580057075.0	11.33	20.98
26/01/2020 16:44:36	26012020	260120	164436	101.290	12.240938	-56.380415	101.620	-0.080	0.380	-0.120	101.360	-1.000	0.200																			1580057076.0	10.99	20.35
26/01/2020 16:44:37	26012020	260120	164437	101.600	12.240928	-56.380363	101.780	-0.130	0.040	0.040	101.640	-1.200	0.300																			1580057077.0	10.98	20.33
26/01/2020 16:44:38	26012020	260120	164438	101.740	12.240917	-56.380312	101.820	-0.040	-0.350	0.300	101.750	-1.600	0.600																			1580057078.0	11.17	20.69
26/01/2020 16:44:39	26012020	260120	164439	101.770	12.240905	-56.380260	101.890	0.160	-0.590	0.360	101.780	-1.900	0.700																			1580057079.0	11.26	20.85
26/01/2020 16:44:40	26012020	260120	164440	101.840	12.240895	-56.380208	101.950	0.310	-0.760	0.220	101.870	-2.100	0.600																			1580057080.0	11.25	20.84
26/01/2020 16:44:41	26012020	260120	164441	101.890	12.240885	-56.380157	101.810	0.340	-0.940	0.230	101.880	-2.300	0.600																			1580057081.0	11.10	20.56
26/01/2020 16:44:42	26012020	260120	164442	101.730	12.240873	-56.380103	101.520	0.240	-0.910	0.440	101.670	-2.400	0.700																			1580057082.0	11.14	20.63
26/01/2020 16:44:43	26012020	260120	164443	101.420	12.240862	-56.380052	101.240	0.090	-0.610	0.730	101.370	-2.100	1.000																			1580057083.0	11.32	20.96
26/01/2020 16:44:44	26012020	260120	164444	101.160	12.240850	-56.380002	101.080	-0.110	-0.170	0.810	101.110	-1.700	1.200																			1580057084.0	11.25	20.84
26/01/2020 16:44:45	26012020	260120	164445	101.010	12.240838	-56.379950	101.050	-0.360	0.270	0.560	101.000	-1.300	1.000																			1580057085.0	11.16	20.67
26/01/2020 16:44:46	26012020	260120	164446	100.990	12.240827	-56.379898	101.160	-0.590	0.560	0.310	101.000	-0.900	0.700																			1580057086.0	11.09	20.54
26/01/2020 16:44:47	26012020	260120	164447	101.110	12.240817	-56.379848	101.360	-0.590	0.530	0.160	101.150	-0.800	0.600																			1580057087.0	11.04	20.45
26/01/2020 16:44:48	26012020	260120	164448	101.330	12.240805	-56.379797	101.580	-0.260	0.010	0.000	101.380	-1.200	0.400																			1580057088.0	11.01	20.39
26/01/2020 16:44:49	26012020	260120	164449	101.540	12.240793	-56.379743	101.630	0.310	-0.720	0.060	101.560	-1.900	0.400																			1580057089.0	11.21	20.76
26/01/2020 16:44:50	26012020	260120	164450	101.570	12.240782	-56.379688	101.640	0.740	-0.980	0.200	101.570	-2.400	0.500																			1580057090.0	11.65	21.58
26/01/2020 16:44:51	26012020	260120	164451	101.580	12.240772	-56.379635	101.750	0.660	-0.450	0.270	101.600	-2.100	0.600																			1580057091.0	11.89	22.02
26/01/2020 16:44:52	26012020	260120	164452	101.700	12.240763	-56.379587	101.880	0.180	0.260	0.270	101.730	-1.400	0.600																			1580057092.0	11.35	21.02
26/01/2020 16:44:53	26012020	260120	164453	101.830	12.240753	-56.379538	101.900	-0.240	0.360	0.210	101.840	-1.000	0.600																			1580057093.0	10.43	19.32
26/01/2020 16:44:54	26012020	260120	164454	101.840	12.240743	-56.379488	101.800	-0.260	-0.320	0.210	101.830	-1.400	0.600																			1580057094.0	10.24	18.96
26/01/2020 16:44:55	26012020	260120	164455	101.750	12.240732	-56.379433	101.640	0.030	-1.120	0.280	101.720	-2.300	0.600																			1580057095.0	10.93	20.24
26/01/2020 16:44:56	26012020	260120	164456	101.580	12.240720	-56.379378	101.420	0.180	-1.210	0.310	101.540	-2.700	0.700																			1580057096.0	11.80	21.85
26/01/2020 16:44:57	26012020	260120	164457	101.350	12.240708	-56.379327	101.230	-0.060	-0.550	0.300	101.310	-2.200	0.700																			1580057097.0	12.00	22.22
26/01/2020 16:44:58	26012020	260120	164458	101.160	12.240697	-56.379277	101.130	-0.460	0.080	0.370	101.140	-1.500	0.700																			1580057098.0	11.30	20.93
26/01/2020 16:44:59	26012020	260120	164459	101.060	12.240683	-56.379228	101.080	-0.660	0.330	0.390	101.040	-1.100	0.800	1015.40	26.30	26.40	19.50	19.60	921.00	66.00	66.00	375.00	29.50	352.00	9.60	83.00	4.00	67142	3248.00	27.60	27.60	1580057099.0	10.64	19.71
26/01/2020 16:45:00	26012020	260120	164500	101.000	12.240672	-56.379177	101.100	-0.560	0.310	0.180	101.000	-1.100	0.600																			1580057100.0	10.83	20.06
26/01/2020 16:45:01	26012020	260120	164501	101.030	12.240660	-56.379123	101.200	-0.150	-0.000	-0.010	101.040	-1.300	0.400																			1580057101.0	11.20	20.74
26/01/2020 16:45:02	26012020	260120	164502	101.140	12.240648	-56.379070	101.350	0.330	-0.330	-0.090	101.160	-1.700	0.300																			1580057102.0	11.38	21.08
26/01/2020 16:45:03	26012020	260120	164503	101.290	12.240637	-56.379017	101.550	0.540	-0.220	-0.220	101.330	-1.700	0.200																			1580057103.0	11.65	21.58
26/01/2020 16:45:04	26012020	260120	164504	101.510	12.240628	-56.378967	101.730	0.410	0.160	-0.260	101.550	-1.400	0.100																			1580057104.0	11.53	21.35
26/01/2020 16:45:05	26012020	260120	164505	101.690	12.240620	-56.378918	101.860	0.270	0.150	-0.090	101.720	-1.200	0.200																			1580057105.0	10.87	20.13
26/01/2020 16:45:06	26012020	260120	164506	101.820	12.240610	-56.378867	101.910	0.320	-0.430	0.180	101.830	-1.600	0.400																			1580057106.0	10.48	19.41
26/01/2020 16:45:07	26012020	260120	164507	101.850	12.240598	-56.378813	101.870	0.360	-0.970	0.510	101.850	-2.200	0.800																			1580057107.0	10.91	20.21
26/01/2020 16:45:08	26012020	260120	164508	101.780	12.240585	-56.378760	101.660	0.160	-0.970	0.820	101.750	-2.400	1.100																			1580057108.0	11.56	21.41
26/01/2020 16:45:09	26012020	260120	164509	101.550	12.240573	-56.378710	101.370	-0.240	-0.560	1.010	101.490	-2.100	1.300																			1580057109.0	11.50	21.30
26/01/2020 16:45:10	26012020	260120	164510	101.260	12.240562	-56.378662	101.110	-0.540	-0.280	1.030	101.200	-1.700	1.400																			1580057110.0	10.98	20.33
26/01/2020 16:45:11	26012020	260120	164511	101.000	12.240550	-56.378610	100.880	-0.540	-0.400	0.870	100.950	-1.700	1.300																			1580057111.0	10.70	19.82
26/01/2020 16:45:12	26012020	260120	164512	100.760	12.240537	-56.378557	100.630	-0.330	-0.530	0.740	100.710	-1.900	1.100																			1580057112.0	11.08	20.52
26/01/2020 16:45:13	26012020	260120	164513	100.530	12.240525	-56.378503	100.530	-0.150	-0.220	0.520	100.490	-1.800	1.000																			1580057113.0	11.66	21.59
26/01/2020 16:45:14	26012020	260120	164514	100.450	12.240513	-56.378452	100.680	-0.080	0.330	0.090	100.470	-1.300	0.600																			1580057114.0	11.70	21.67
26/01/2020 16:45:15	26012020	260120	164515	100.650	12.240505	-56.378402	101.020	0.020	0.560	-0.340	100.710	-0.900	0.100																			1580057115.0	11.16	20.67
26/01/2020 16:45:16	26012020	260120	164516	101.010	12.240497	-56.378350	101.350	0.180	0.370	-0.460	101.080	-1.000	-0.100																			1580057116.0	10.81	20.02
26/01/2020 16:45:17	26012020	260120	164517	101.320	12.240487	-56.378297	101.550	0.250	0.100	-0.250	101.370	-1.200	0.000																			1580057117.0	11.10	20.56
26/01/2020 16:45:18	26012020	260120	164518	101.500	12.240475	-56.378245	101.640	0.200	-0.120	0.110	101.530	-1.500	0.300																			1580057118.0	11.31	20.95
26/01/2020 16:45:19	26012020	260120	164519	101.580	12.240463	-56.378195	101.630	0.110	-0.410	0.460	101.590	-1.700	0.700																			1580057119.0	11.15	20.65
26/01/2020 16:45:20	26012020	260120	164520	101.550	12.240452	-56.378143	101.460	0.140	-0.880	0.660	101.520	-2.100	1.000																			1580057120.0	10.95	20.28
26/01/2020 16:45:21	26012020	260120	164521	101.360	12.240440	-56.378092	101.230	0.240	-1.150	0.630	101.320	-2.500	1.000																			1580057121.0	11.02	20.41
26/01/2020 16:45:22	26012020	260120	164522	101.140	12.240430	-56.378040	101.000	0.210	-0.890	0.570	101.090	-2.400	0.900																			1580057122.0	11.36	21.04
26/01/2020 16:45:23	26012020	260120	164523	100.900	12.240420	-56.377988	100.740	0.010	-0.440	0.560	100.860	-2.000	0.900																			1580057123.0	11.27	20.87
26/01/2020 16:45:24	26012020	260120	164524	100.700	12.240410	-56.377938	100.520	-0.200	-0.160	0.540	100.660	-1.900	0.900																			1580057124.0	10.87	20.13
26/01/2020 16:45:25	26012020	260120	164525	100.440	12.240398	-56.377887	100.400	-0.270	-0.150	0.530	100.410	-1.500	0.900																			1580057125.0	10.87	20.13
26/01/2020 16:45:26	26012020	260120	164526	100.330	12.240387	-56.377833	100.410	-0.150	-0.250	0.480	100.330	-1.600	0.900																			1580057126.0	11.19	20.72
26/01/2020 16:45:27	26012020	260120	164527	100.370	12.240375	-56.377780	100.540	0.010	-0.170	0.320	100.380	-1.600	0.700																			1580057127.0	11.53	21.35
26/01/2020 16:45:28	26012020	260120	164528	100.510	12.240365	-56.377727	100.820	-0.050	0.250	0.190	100.550	-1.300	0.600																			1580057128.0	11.65	21.58
26/01/2020 16:45:29	26012020	260120	164529	100.780	12.240355	-56.377677	101.150	-0.350	0.720	0.210	100.850	-0.800	0.500																			1580057129.0	11.42	21.15
26/01/2020 16:45:30	26012020	260120	164530	101.100	12.240345	-56.377628	101.380	-0.580	0.700	0.310	101.160	-0.600	0.600																			1580057130.0	10.84	20.08
26/01/2020 16:45:31	26012020	260120	164531	101.320	12.240333	-56.377578	101.410	-0.340	-0.130	0.460	101.340	-1.200	0.800																			1580057131.0	10.52	19.48
26/01/2020 16:45:32	26012020	260120	164532	101.330	12.240320	-56.377525	101.340	0.300	-1.210	0.560	101.320	-2.300	0.900																			1580057132.0	10.89	20.17
26/01/2020 16:45:33	26012020	260120	164533	101.260	12.240308	-56.377468	101.230	0.760	-1.450	0.570	101.240	-2.900	0.900																			1580057133.0	11.73	21.72
26/01/2020 16:45:34	26012020	260120	164534	101.160	12.240298	-56.377417	101.050	0.640	-0.680	0.490	101.130	-2.400	0.900																			1580057134.0	12.03	22.28
26/01/2020 16:45:35	26012020	260120	164535	100.970	12.240292	-56.377370	100.780	0.170	0.110	0.380	100.920	-1.500	0.800																			1580057135.0	11.12	20.59
26/01/2020 16:45:36	26012020	260120	164536	100.700	12.240283	-56.377322	100.530	-0.120	0.070	0.230	100.650	-1.200	0.700																			1580057136.0	10.14	18.78
26/01/2020 16:45:37	26012020	260120	164537	100.470	12.240273	-56.377268	100.450	-0.060	-0.490	0.050	100.430	-1.700	0.500																			1580057137.0	10.34	19.15
26/01/2020 16:45:38	26012020	260120	164538	100.390	12.240263	-56.377213	100.580	0.080	-0.690	-0.080	100.400	-2.100	0.300																			1580057138.0	11.41	21.13
26/01/2020 16:45:39	26012020	260120	164539	100.540	12.240253	-56.377160	100.720	-0.030	-0.230	0.090	100.570	-1.900	0.400																			1580057139.0	11.99	22.21
26/01/2020 16:45:40	26012020	260120	164540	100.650	12.240240	-56.377110	100.670	-0.350	0.430	0.410	100.650	-1.200	0.700																			1580057140.0	11.52	21.34
26/01/2020 16:45:41	26012020	260120	164541	100.570	12.240227	-56.377062	100.540	-0.590	0.630	0.550	100.540	-0.800	0.900																			1580057141.0	10.78	19.96
26/01/2020 16:45:42	26012020	260120	164542	100.460	12.240217	-56.377012	100.620	-0.470	0.160	0.320	100.470	-1.000	0.800																			1580057142.0	10.51	19.46
26/01/2020 16:45:43	26012020	260120	164543	100.560	12.240207	-56.376958	100.830	-0.070	-0.570	-0.030	100.600	-1.700	0.400																			1580057143.0	10.90	20.19
26/01/2020 16:45:44	26012020	260120	164544	100.790	12.240197	-56.376903	101.010	0.250	-0.880	-0.200	100.830	-2.300	0.200																			1580057144.0	11.54	21.37
26/01/2020 16:45:45	26012020	260120	164545	100.960	12.240187	-56.376852	100.990	0.320	-0.600	0.070	100.970	-2.200	0.300																			1580057145.0	11.73	21.72
26/01/2020 16:45:46	26012020	260120	164546	100.900	12.240175	-56.376803	100.810	0.220	-0.090	0.430	100.870	-1.700	0.700																			1580057146.0	11.20	20.74
26/01/2020 16:45:47	26012020	260120	164547	100.700	12.240165	-56.376755	100.610	0.110	0.040	0.530	100.660	-1.400	0.900																			1580057147.0	10.62	19.67
26/01/2020 16:45:48	26012020	260120	164548	100.540	12.240155	-56.376703	100.430	0.160	-0.400	0.360	100.510	-1.400	0.900																			1580057148.0	10.45	19.35
26/01/2020 16:45:49	26012020	260120	164549	100.340	12.240147	-56.376650	100.280	0.330	-0.910	0.230	100.320	-2.200	0.600																			1580057149.0	10.94	20.26
26/01/2020 16:45:50	26012020	260120	164550	100.210	12.240138	-56.376595	100.230	0.350	-0.870	0.310	100.190	-2.400	0.600																			1580057150.0	11.63	21.54
26/01/2020 16:45:51	26012020	260120	164551	100.170	12.240128	-56.376543	100.310	0.050	-0.260	0.540	100.170	-1.900	0.800																			1580057151.0	11.75	21.76
26/01/2020 16:45:52	26012020	260120	164552	100.250	12.240117	-56.376493	100.420	-0.450	0.460	0.760	100.270	-1.200	1.000																			1580057152.0	11.22	20.78
26/01/2020 16:45:53	26012020	260120	164553	100.340	12.240103	-56.376445	100.480	-0.750	0.640	0.920	100.360	-0.800	1.200																			1580057153.0	10.65	19.72
26/01/2020 16:45:54	26012020	260120	164554	100.390	12.240092	-56.376395	100.590	-0.630	0.220	0.940	100.410	-1.000	1.300																			1580057154.0	10.50	19.45
26/01/2020 16:45:55	26012020	260120	164555	100.510	12.240078	-56.376342	100.750	-0.230	-0.300	0.730	100.550	-1.500	1.200																			1580057155.0	11.02	20.41
26/01/2020 16:45:56	26012020	260120	164556	100.670	12.240068	-56.376288	100.770	0.190	-0.600	0.450	100.680	-1.900	0.900																			1580057156.0	11.53	21.35
26/01/2020 16:45:57	26012020	260120	164557	100.690	12.240058	-56.376237	100.680	0.450	-0.570	0.230	100.670	-2.000	0.700																			1580057157.0	11.50	21.30
26/01/2020 16:45:58	26012020	260120	164558	100.600	12.240052	-56.376185	100.660	0.520	-0.370	-0.010	100.590	-1.900	0.400																			1580057158.0	11.21	20.76
26/01/2020 16:45:59	26012020	260120	164559	100.610	12.240045	-56.376135	100.770	0.420	-0.180	-0.270	100.630	-1.600	0.200	1015.40	26.30	26.40	19.50	19.60	919.00	66.00	66.00	376.00	29.50	352.00	9.50	82.00	3.90	66989	3235.00	27.60	27.60	1580057159.0	10.90	20.19
26/01/2020 16:46:00	26012020	260120	164600	100.730	12.240037	-56.376085	100.860	0.210	-0.160	-0.330	100.750	-1.600	0.000																			1580057160.0	10.80	20.00
26/01/2020 16:46:01	26012020	260120	164601	100.810	12.240028	-56.376033	100.860	0.020	-0.330	-0.030	100.810	-1.700	0.200																			1580057161.0	10.83	20.06
26/01/2020 16:46:02	26012020	260120	164602	100.790	12.240017	-56.375982	100.740	-0.020	-0.600	0.520	100.770	-1.900	0.700																			1580057162.0	11.00	20.37
26/01/2020 16:46:03	26012020	260120	164603	100.650	12.240003	-56.375930	100.540	0.100	-0.810	0.860	100.600	-2.200	1.100																			1580057163.0	11.22	20.78
26/01/2020 16:46:04	26012020	260120	164604	100.430	12.239990	-56.375877	100.400	0.160	-0.730	0.750	100.400	-2.200	1.200																			1580057164.0	11.42	21.15
26/01/2020 16:46:05	26012020	260120	164605	100.310	12.239982	-56.375823	100.430	-0.070	-0.140	0.520	100.310	-1.800	0.900																			1580057165.0	11.50	21.30
26/01/2020 16:46:06	26012020	260120	164606	100.380	12.239972	-56.375775	100.590	-0.540	0.580	0.400	100.400	-1.100	0.800																			1580057166.0	11.28	20.89
26/01/2020 16:46:07	26012020	260120	164607	100.540	12.239962	-56.375727	100.710	-0.830	0.690	0.330	100.570	-0.700	0.700																			1580057167.0	10.64	19.71
26/01/2020 16:46:08	26012020	260120	164608	100.650	12.239950	-56.375677	100.720	-0.600	0.060	0.330	100.650	-1.100	0.700																			1580057168.0	10.42	19.30
26/01/2020 16:46:09	26012020	260120	164609	100.660	12.239938	-56.375622	100.740	-0.020	-0.740	0.410	100.660	-1.900	0.700																			1580057169.0	11.02	20.41
26/01/2020 16:46:10	26012020	260120	164610	100.660	12.239927	-56.375567	100.770	0.420	-0.990	0.420	100.660	-2.400	0.800																			1580057170.0	11.77	21.80
26/01/2020 16:46:11	26012020	260120	164611	100.710	12.239917	-56.375515	100.900	0.470	-0.520	0.250	100.730	-2.200	0.700																			1580057171.0	11.87	21.98
26/01/2020 16:46:12	26012020	260120	164612	100.860	12.239908	-56.375465	101.080	0.260	0.170	0.030	100.890	-1.500	0.500																			1580057172.0	11.24	20.82
26/01/2020 16:46:13	26012020	260120	164613	101.040	12.239900	-56.375418	101.200	0.060	0.390	-0.090	101.070	-1.000	0.300																			1580057173.0	10.48	19.41
26/01/2020 16:46:14	26012020	260120	164614	101.140	12.239890	-56.375368	101.140	0.080	-0.050	-0.000	101.150	-1.000	0.300																			1580057174.0	10.29	19.06
26/01/2020 16:46:15	26012020	260120	164615	101.060	12.239878	-56.375315	100.970	0.290	-0.690	0.220	101.030	-1.900	0.500																			1580057175.0	10.81	20.02
26/01/2020 16:46:16	26012020	260120	164616	100.930	12.239868	-56.375260	100.920	0.400	-0.820	0.280	100.900	-2.100	0.600																			1580057176.0	11.50	21.30
26/01/2020 16:46:17	26012020	260120	164617	100.870	12.239858	-56.375208	100.960	0.180	-0.400	0.190	100.880	-2.000	0.600																			1580057177.0	11.69	21.65
26/01/2020 16:46:18	26012020	260120	164618	100.910	12.239850	-56.375160	100.960	-0.210	0.010	0.230	100.920	-1.500	0.500																			1580057178.0	11.12	20.59
26/01/2020 16:46:19	26012020	260120	164619	100.890	12.239838	-56.375110	100.850	-0.420	-0.010	0.380	100.880	-1.400	0.700																			1580057179.0	10.55	19.54
26/01/2020 16:46:20	26012020	260120	164620	100.770	12.239827	-56.375058	100.670	-0.240	-0.500	0.520	100.730	-1.700	0.800																			1580057180.0	10.62	19.67
26/01/2020 16:46:21	26012020	260120	164621	100.570	12.239815	-56.375005	100.530	0.060	-0.870	0.620	100.540	-2.200	0.900																			1580057181.0	11.18	20.71
26/01/2020 16:46:22	26012020	260120	164622	100.450	12.239803	-56.374952	100.500	-0.000	-0.500	0.670	100.440	-2.100	1.000																			1580057182.0	11.78	21.82
26/01/2020 16:46:23	26012020	260120	164623	100.430	12.239792	-56.374902	100.610	-0.440	0.220	0.650	100.440	-1.400	1.000																			1580057183.0	11.66	21.59
26/01/2020 16:46:24	26012020	260120	164624	100.540	12.239782	-56.374853	100.800	-0.750	0.480	0.600	100.570	-0.900	1.000																			1580057184.0	10.79	19.98
26/01/2020 16:46:25	26012020	260120	164625	100.730	12.239768	-56.374803	100.960	-0.520	0.090	0.460	100.780	-1.100	0.900																			1580057185.0	10.42	19.30
26/01/2020 16:46:26	26012020	260120	164626	100.890	12.239755	-56.374750	100.940	0.120	-0.370	0.230	100.890	-1.700	0.700																			1580057186.0	10.93	20.24
26/01/2020 16:46:27	26012020	260120	164627	100.870	12.239745	-56.374697	100.900	0.690	-0.340	-0.130	100.850	-1.800	0.400																			1580057187.0	11.60	21.48
26/01/2020 16:46:28	26012020	260120	164628	100.860	12.239738	-56.374645	101.110	0.800	0.020	-0.460	100.880	-1.500	0.000																			1580057188.0	11.56	21.41
26/01/2020 16:46:29	26012020	260120	164629	101.110	12.239732	-56.374595	101.500	0.540	0.190	-0.590	101.180	-1.200	-0.200																			1580057189.0	10.94	20.26
26/01/2020 16:46:30	26012020	260120	164630	101.490	12.239725	-56.374547	101.670	0.230	-0.190	-0.320	101.540	-1.400	-0.100																			1580057190.0	10.48	19.41
26/01/2020 16:46:31	26012020	260120	164631	101.600	12.239713	-56.374495	101.450	0.120	-0.880	0.320	101.570	-2.100	0.400																			1580057191.0	10.60	19.63
26/01/2020 16:46:32	26012020	260120	164632	101.340	12.239700	-56.374442	101.110	0.080	-1.180	0.930	101.270	-2.600	1.100																			1580057192.0	11.18	20.71
26/01/2020 16:46:33	26012020	260120	164633	100.990	12.239687	-56.374390	100.820	-0.100	-0.890	1.180	100.920	-2.500	1.500																			1580057193.0	11.60	21.48
26/01/2020 16:46:34	26012020	260120	164634	100.710	12.239675	-56.374340	100.650	-0.410	-0.430	1.130	100.670	-2.000	1.500																			1580057194.0	11.29	20.91
26/01/2020 16:46:35	26012020	260120	164635	100.560	12.239663	-56.374290	100.560	-0.590	-0.200	0.960	100.540	-1.700	1.400																			1580057195.0	10.83	20.06
26/01/2020 16:46:36	26012020	260120	164636	100.470	12.239652	-56.374238	100.470	-0.500	-0.200	0.820	100.450	-1.600	1.200																			1580057196.0	10.83	20.06
26/01/2020 16:46:37	26012020	260120	164637	100.370	12.239638	-56.374185	100.390	-0.280	-0.050	0.570	100.360	-1.600	1.000																			1580057197.0	11.23	20.80
26/01/2020 16:46:38	26012020	260120	164638	100.320	12.239628	-56.374133	100.500	-0.100	0.310	0.190	100.330	-1.200	0.700																			1580057198.0	11.55	21.39
26/01/2020 16:46:39	26012020	260120	164639	100.450	12.239618	-56.374083	100.790	0.030	0.490	-0.190	100.510	-0.900	0.300																			1580057199.0	11.28	20.89
26/01/2020 16:46:40	26012020	260120	164640	100.770	12.239610	-56.374032	101.170	0.130	0.350	-0.420	100.840	-1.000	-0.000																			1580057200.0	10.92	20.22
26/01/2020 16:46:41	26012020	260120	164641	101.150	12.239602	-56.373980	101.520	0.150	0.140	-0.390	101.220	-1.200	-0.100																			1580057201.0	10.98	20.33
26/01/2020 16:46:42	26012020	260120	164642	101.490	12.239590	-56.373930	101.750	0.160	-0.070	-0.130	101.550	-1.400	0.100																			1580057202.0	11.11	20.58
26/01/2020 16:46:43	26012020	260120	164643	101.710	12.239578	-56.373880	101.810	0.290	-0.430	0.120	101.740	-1.700	0.400																			1580057203.0	10.93	20.24
26/01/2020 16:46:44	26012020	260120	164644	101.740	12.239568	-56.373828	101.650	0.540	-0.940	0.290	101.720	-2.200	0.600																			1580057204.0	10.78	19.96
26/01/2020 16:46:45	26012020	260120	164645	101.560	12.239558	-56.373777	101.360	0.750	-1.300	0.420	101.500	-2.600	0.800																			1580057205.0	10.96	20.30
26/01/2020 16:46:46	26012020	260120	164646	101.260	12.239548	-56.373723	101.040	0.620	-1.140	0.450	101.200	-2.700	0.800																			1580057206.0	11.25	20.84
26/01/2020 16:46:47	26012020	260120	164647	100.960	12.239540	-56.373673	100.710	0.060	-0.540	0.580	100.890	-2.200	0.900																			1580057207.0	11.34	21.00
26/01/2020 16:46:48	26012020	260120	164648	100.610	12.239530	-56.373623	100.370	-0.610	-0.020	0.850	100.540	-1.600	1.100																			1580057208.0	10.96	20.30
26/01/2020 16:46:49	26012020	260120	164649	100.280	12.239517	-56.373573	100.230	-0.900	0.090	0.980	100.220	-1.300	1.300																			1580057209.0	10.65	19.72
26/01/2020 16:46:50	26012020	260120	164650	100.160	12.239503	-56.373522	100.340	-0.780	-0.050	0.930	100.170	-1.400	1.300																			1580057210.0	10.92	20.22
26/01/2020 16:46:51	26012020	260120	164651	100.280	12.239488	-56.373468	100.490	-0.550	-0.050	0.740	100.310	-1.500	1.200																			1580057211.0	11.46	21.22
26/01/2020 16:46:52	26012020	260120	164652	100.430	12.239475	-56.373417	100.590	-0.330	0.190	0.510	100.450	-1.300	0.900																			1580057212.0	11.68	21.63
26/01/2020 16:46:53	26012020	260120	164653	100.540	12.239463	-56.373367	100.700	-0.040	0.400	0.260	100.560	-1.100	0.700																			1580057213.0	11.35	21.02
26/01/2020 16:46:54	26012020	260120	164654	100.660	12.239455	-56.373315	100.880	0.330	0.200	-0.100	100.680	-1.100	0.400																			1580057214.0	10.89	20.17
26/01/2020 16:46:55	26012020	260120	164655	100.860	12.239447	-56.373263	101.140	0.630	-0.240	-0.440	100.900	-1.500	0.000																			1580057215.0	10.85	20.09
26/01/2020 16:46:56	26012020	260120	164656	101.120	12.239440	-56.373210	101.370	0.650	-0.420	-0.530	101.170	-1.800	-0.200																			1580057216.0	11.20	20.74
26/01/2020 16:46:57	26012020	260120	164657	101.360	12.239432	-56.373160	101.540	0.380	-0.210	-0.230	101.390	-1.700	-0.000																			1580057217.0	11.33	20.98
26/01/2020 16:46:58	26012020	260120	164658	101.500	12.239422	-56.373112	101.570	0.040	-0.080	0.240	101.510	-1.500	0.400																			1580057218.0	10.87	20.13
26/01/2020 16:46:59	26012020	260120	164659	101.500	12.239410	-56.373063	101.370	-0.060	-0.430	0.650	101.480	-1.700	0.900	1015.30	26.30	26.40	19.40	19.50	919.00	66.00	66.00	375.00	29.50	351.00	9.80	79.00	4.30	66984	3176.00	27.70	27.60	1580057219.0	10.36	19.19
26/01/2020 16:47:00	26012020	260120	164700	101.270	12.239397	-56.373012	100.990	0.090	-1.060	0.830	101.200	-2.300	1.100																			1580057220.0	10.52	19.48
26/01/2020 16:47:01	26012020	260120	164701	100.880	12.239387	-56.372958	100.600	0.300	-1.440	0.830	100.800	-2.800	1.200																			1580057221.0	11.16	20.67
26/01/2020 16:47:02	26012020	260120	164702	100.510	12.239377	-56.372905	100.410	0.310	-1.160	0.720	100.460	-2.800	1.100																			1580057222.0	11.63	21.54
26/01/2020 16:47:03	26012020	260120	164703	100.330	12.239367	-56.372853	100.310	0.020	-0.390	0.660	100.300	-2.100	1.000																			1580057223.0	11.58	21.45
26/01/2020 16:47:04	26012020	260120	164704	100.240	12.239355	-56.372803	100.280	-0.440	0.370	0.700	100.220	-1.800	1.000																			1580057224.0	11.07	20.50
26/01/2020 16:47:05	26012020	260120	164705	100.200	12.239343	-56.372753	100.380	-0.830	0.890	0.710	100.210	-0.700	1.100																			1580057225.0	10.76	19.93
26/01/2020 16:47:06	26012020	260120	164706	100.310	12.239332	-56.372705	100.530	-0.900	0.790	0.640	100.340	-0.500	1.000																			1580057226.0	10.76	19.93
26/01/2020 16:47:07	26012020	260120	164707	100.470	12.239318	-56.372652	100.650	-0.540	0.080	0.500	100.490	-1.100	0.900																			1580057227.0	10.86	20.11
26/01/2020 16:47:08	26012020	260120	164708	100.600	12.239307	-56.372598	100.790	-0.020	-0.460	0.300	100.620	-1.800	0.700																			1580057228.0	11.34	21.00
26/01/2020 16:47:09	26012020	260120	164709	100.750	12.239297	-56.372545	100.950	0.280	-0.360	0.090	100.780	-1.900	0.500																			1580057229.0	11.83	21.91
26/01/2020 16:47:10	26012020	260120	164710	100.890	12.239287	-56.372495	101.030	0.330	-0.060	0.000	100.920	-1.600	0.400																			1580057230.0	11.44	21.19
26/01/2020 16:47:11	26012020	260120	164711	100.970	12.239278	-56.372447	101.010	0.400	-0.160	0.040	100.970	-1.500	0.400																			1580057231.0	10.60	19.63
26/01/2020 16:47:12	26012020	260120	164712	100.940	12.239268	-56.372397	100.950	0.590	-0.570	0.140	100.930	-1.800	0.500																			1580057232.0	10.39	19.24
26/01/2020 16:47:13	26012020	260120	164713	100.880	12.239260	-56.372343	100.860	0.710	-0.790	0.280	100.860	-2.200	0.600																			1580057233.0	10.92	20.22
26/01/2020 16:47:14	26012020	260120	164714	100.770	12.239250	-56.372292	100.760	0.600	-0.680	0.380	100.760	-2.200	0.700																			1580057234.0	11.28	20.89
26/01/2020 16:47:15	26012020	260120	164715	100.690	12.239242	-56.372242	100.700	0.220	-0.450	0.630	100.680	-2.000	0.900																			1580057235.0	11.12	20.59
26/01/2020 16:47:16	26012020	260120	164716	100.610	12.239230	-56.372192	100.590	-0.300	-0.250	0.980	100.590	-1.700	1.200																			1580057236.0	10.90	20.19
26/01/2020 16:47:17	26012020	260120	164717	100.490	12.239218	-56.372140	100.410	-0.720	-0.140	1.200	100.460	-1.600	1.500																			1580057237.0	10.87	20.13
26/01/2020 16:47:18	26012020	260120	164718	100.310	12.239205	-56.372090	100.190	-0.800	-0.200	1.170	100.260	-1.600	1.600																			1580057238.0	10.98	20.33
26/01/2020 16:47:19	26012020	260120	164719	100.080	12.239193	-56.372038	100.030	-0.500	-0.480	0.900	100.040	-1.800	1.400																			1580057239.0	11.09	20.54
26/01/2020 16:47:20	26012020	260120	164720	99.930	12.239182	-56.371983	99.950	-0.080	-0.620	0.630	99.910	-2.000	1.100																			1580057240.0	11.34	21.00
26/01/2020 16:47:21	26012020	260120	164721	99.850	12.239172	-56.371930	99.920	0.120	-0.360	0.390	99.840	-1.900	0.800																			1580057241.0	11.64	21.56
26/01/2020 16:47:22	26012020	260120	164722	99.830	12.239162	-56.371878	100.010	-0.000	0.280	0.220	99.840	-1.400	0.600																			1580057242.0	11.52	21.34
26/01/2020 16:47:23	26012020	260120	164723	99.950	12.239153	-56.371830	100.350	-0.270	0.860	0.090	100.010	-0.700	0.500																			1580057243.0	11.07	20.50
26/01/2020 16:47:24	26012020	260120	164724	100.330	12.239143	-56.371782	100.830	-0.340	0.860	-0.030	100.430	-0.500	0.400																			1580057244.0	10.53	19.50
26/01/2020 16:47:25	26012020	260120	164725	100.810	12.239133	-56.371732	101.080	0.020	0.090	0.020	100.880	-1.000	0.300																			1580057245.0	10.38	19.22
26/01/2020 16:47:26	26012020	260120	164726	101.030	12.239123	-56.371678	100.980	0.620	-0.960	0.210	101.020	-2.000	0.500																			1580057246.0	10.83	20.06
26/01/2020 16:47:27	26012020	260120	164727	100.900	12.239113	-56.371623	100.840	0.990	-1.330	0.330	100.870	-2.700	0.700																			1580057247.0	11.56	21.41
26/01/2020 16:47:28	26012020	260120	164728	100.770	12.239105	-56.371572	100.820	0.820	-0.840	0.310	100.770	-2.700	0.700																			1580057248.0	11.80	21.85
26/01/2020 16:47:29	26012020	260120	164729	100.760	12.239098	-56.371523	100.840	0.290	-0.260	0.170	100.770	-1.800	0.600																			1580057249.0	11.08	20.52
26/01/2020 16:47:30	26012020	260120	164730	100.770	12.239090	-56.371475	100.700	-0.190	-0.280	0.330	100.760	-1.600	0.600																			1580057250.0	10.27	19.02
26/01/2020 16:47:31	26012020	260120	164731	100.610	12.239080	-56.371423	100.440	-0.410	-0.720	0.820	100.560	-2.000	1.000																			1580057251.0	10.41	19.28
26/01/2020 16:47:32	26012020	260120	164732	100.340	12.239065	-56.371368	100.250	-0.530	-0.780	1.080	100.300	-2.300	1.400																			1580057252.0	11.27	20.87
26/01/2020 16:47:33	26012020	260120	164733	100.140	12.239050	-56.371317	100.110	-0.680	-0.200	0.970	100.110	-1.900	1.400																			1580057253.0	11.87	21.98
26/01/2020 16:47:34	26012020	260120	164734	100.010	12.239038	-56.371267	100.110	-0.780	0.510	0.660	100.000	-1.100	1.100																			1580057254.0	11.47	21.24
26/01/2020 16:47:35	26012020	260120	164735	100.040	12.239027	-56.371218	100.310	-0.620	0.690	0.180	100.070	-0.700	0.700																			1580057255.0	10.75	19.91
26/01/2020 16:47:36	26012020	260120	164736	100.260	12.239017	-56.371167	100.560	-0.130	0.270	-0.290	100.320	-1.000	0.200																			1580057256.0	10.57	19.58
26/01/2020 16:47:37	26012020	260120	164737	100.510	12.239008	-56.371113	100.710	0.420	-0.230	-0.510	100.550	-1.500	-0.100																			1580057257.0	11.05	20.46
26/01/2020 16:47:38	26012020	260120	164738	100.660	12.239000	-56.371060	100.820	0.680	-0.390	-0.430	100.680	-1.800	-0.100																			1580057258.0	11.55	21.39
26/01/2020 16:47:39	26012020	260120	164739	100.770	12.238992	-56.371010	100.940	0.580	-0.290	-0.150	100.800	-1.700	0.100																			1580057259.0	11.43	21.17
26/01/2020 16:47:40	26012020	260120	164740	100.890	12.238982	-56.370960	100.960	0.330	-0.350	0.250	100.900	-1.700	0.500																			1580057260.0	10.91	20.21
26/01/2020 16:47:41	26012020	260120	164741	100.880	12.238972	-56.370910	100.790	0.170	-0.600	0.630	100.860	-1.900	0.900																			1580057261.0	10.62	19.67
26/01/2020 16:47:42	26012020	260120	164742	100.750	12.238960	-56.370858	100.550	0.140	-0.770	0.890	100.710	-2.000	1.000																			1580057262.0	10.85	20.09
26/01/2020 16:47:43	26012020	260120	164743	100.440	12.238950	-56.370807	100.280	0.120	-0.790	1.000	100.380	-2.200	1.300																			1580057263.0	11.15	20.65
26/01/2020 16:47:44	26012020	260120	164744	100.180	12.238938	-56.370755	100.110	-0.010	-0.580	0.950	100.180	-2.200	1.400																			1580057264.0	11.18	20.71
26/01/2020 16:47:45	26012020	260120	164745	100.020	12.238928	-56.370703	100.110	-0.300	-0.100	0.750	100.010	-1.700	1.200																			1580057265.0	11.20	20.74
26/01/2020 16:47:46	26012020	260120	164746	100.030	12.238918	-56.370653	100.200	-0.590	0.350	0.560	100.040	-1.200	1.000																			1580057266.0	11.06	20.48
26/01/2020 16:47:47	26012020	260120	164747	100.120	12.238908	-56.370605	100.340	-0.620	0.320	0.340	100.150	-1.000	0.800																			1580057267.0	10.75	19.91
26/01/2020 16:47:48	26012020	260120	164748	100.280	12.238897	-56.370552	100.570	-0.360	-0.110	0.110	100.330	-1.400	0.500																			1580057268.0	10.77	19.95
26/01/2020 16:47:49	26012020	260120	164749	100.520	12.238887	-56.370498	100.810	-0.050	-0.330	-0.030	100.570	-1.700	0.400																			1580057269.0	11.27	20.87
26/01/2020 16:47:50	26012020	260120	164750	100.750	12.238877	-56.370447	100.880	0.150	-0.270	-0.060	100.780	-1.700	0.300																			1580057270.0	11.57	21.43
26/01/2020 16:47:51	26012020	260120	164751	100.830	12.238867	-56.370397	100.850	0.330	-0.280	0.080	100.820	-1.700	0.400																			1580057271.0	11.18	20.71
26/01/2020 16:47:52	26012020	260120	164752	100.770	12.238857	-56.370345	100.800	0.530	-0.480	0.230	100.760	-1.800	0.600																			1580057272.0	10.83	20.06
26/01/2020 16:47:53	26012020	260120	164753	100.720	12.238847	-56.370293	100.800	0.600	-0.520	0.230	100.720	-2.000	0.600																			1580057273.0	11.00	20.37
26/01/2020 16:47:54	26012020	260120	164754	100.730	12.238838	-56.370242	100.780	0.370	-0.200	0.170	100.730	-1.700	0.600																			1580057274.0	11.27	20.87
26/01/2020 16:47:55	26012020	260120	164755	100.720	12.238830	-56.370192	100.780	-0.050	0.100	0.220	100.710	-1.400	0.600																			1580057275.0	11.07	20.50
26/01/2020 16:47:56	26012020	260120	164756	100.710	12.238820	-56.370142	100.780	-0.360	-0.030	0.310	100.710	-1.300	0.600																			1580057276.0	10.66	19.74
26/01/2020 16:47:57	26012020	260120	164757	100.700	12.238810	-56.370090	100.780	-0.380	-0.420	0.300	100.700	-1.700	0.700																			1580057277.0	10.70	19.82
26/01/2020 16:47:58	26012020	260120	164758	100.680	12.238798	-56.370037	100.750	-0.220	-0.640	0.330	100.680	-2.000	0.700																			1580057278.0	11.18	20.71
26/01/2020 16:47:59	26012020	260120	164759	100.670	12.238787	-56.369985	100.740	-0.060	-0.590	0.310	100.670	-2.000	0.700	1015.30	26.30	26.40	19.30	19.40	918.00	65.00	65.00	375.00	29.40	354.00	9.70	85.00	4.10	66819	3294.00	27.70	27.60	1580057279.0	11.48	21.26
26/01/2020 16:48:00	26012020	260120	164800	100.660	12.238775	-56.369933	100.750	0.010	-0.320	0.160	100.660	-1.800	0.600																			1580057280.0	11.34	21.00
26/01/2020 16:48:01	26012020	260120	164801	100.670	12.238765	-56.369883	100.780	-0.030	0.010	-0.100	100.680	-1.500	0.400																			1580057281.0	11.09	20.54
26/01/2020 16:48:02	26012020	260120	164802	100.730	12.238755	-56.369833	100.860	-0.110	0.200	-0.320	100.750	-1.200	0.100																			1580057282.0	10.91	20.21
26/01/2020 16:48:03	26012020	260120	164803	100.830	12.238747	-56.369783	100.920	-0.090	0.070	-0.380	100.840	-1.200	-0.000																			1580057283.0	10.78	19.96
26/01/2020 16:48:04	26012020	260120	164804	100.870	12.238737	-56.369732	100.870	0.050	-0.320	-0.170	100.860	-1.600	0.100																			1580057284.0	10.87	20.13
26/01/2020 16:48:05	26012020	260120	164805	100.800	12.238725	-56.369678	100.800	0.190	-0.640	0.160	100.780	-2.000	0.400																			1580057285.0	11.17	20.69
26/01/2020 16:48:06	26012020	260120	164806	100.730	12.238713	-56.369625	100.730	0.210	-0.690	0.400	100.720	-2.100	0.700																			1580057286.0	11.45	21.21
26/01/2020 16:48:07	26012020	260120	164807	100.640	12.238703	-56.369575	100.590	0.160	-0.520	0.550	100.610	-2.000	0.900																			1580057287.0	11.36	21.04
26/01/2020 16:48:08	26012020	260120	164808	100.500	12.238692	-56.369523	100.580	0.060	-0.170	0.470	100.490	-1.700	0.900																			1580057288.0	11.12	20.59
26/01/2020 16:48:09	26012020	260120	164809	100.510	12.238682	-56.369473	100.680	-0.070	0.160	0.300	100.530	-1.300	0.700																			1580057289.0	10.99	20.35
26/01/2020 16:48:10	26012020	260120	164810	100.620	12.238672	-56.369423	100.790	-0.150	0.210	0.170	100.650	-1.200	0.600																			1580057290.0	10.83	20.06
26/01/2020 16:48:11	26012020	260120	164811	100.730	12.238663	-56.369372	100.870	-0.170	0.040	0.120	100.750	-1.300	0.500																			1580057291.0	10.84	20.08
26/01/2020 16:48:12	26012020	260120	164812	100.810	12.238652	-56.369320	100.960	-0.140	-0.220	0.240	100.820	-1.500	0.500																			1580057292.0	11.08	20.52
26/01/2020 16:48:13	26012020	260120	164813	100.890	12.238640	-56.369268	101.050	0.010	-0.550	0.410	100.920	-1.800	0.700																			1580057293.0	11.20	20.74
26/01/2020 16:48:14	26012020	260120	164814	100.970	12.238628	-56.369215	101.040	0.240	-0.790	0.590	100.980	-2.100	0.900																			1580057294.0	11.21	20.76
26/01/2020 16:48:15	26012020	260120	164815	100.950	12.238617	-56.369163	100.940	0.320	-0.610	0.790	100.940	-2.100	1.100																			1580057295.0	11.35	21.02
26/01/2020 16:48:16	26012020	260120	164816	100.850	12.238607	-56.369113	100.840	0.210	-0.180	0.720	100.830	-1.700	1.100																			1580057296.0	11.33	20.98
26/01/2020 16:48:17	26012020	260120	164817	100.740	12.238597	-56.369063	100.780	0.100	-0.060	0.430	100.720	-1.400	0.900																			1580057297.0	10.87	20.13
26/01/2020 16:48:18	26012020	260120	164818	100.700	12.238588	-56.369012	100.830	0.020	-0.180	0.140	100.710	-1.500	0.600																			1580057298.0	10.67	19.76
26/01/2020 16:48:19	26012020	260120	164819	100.780	12.238580	-56.368958	100.960	-0.150	-0.230	0.020	100.810	-1.600	0.400																			1580057299.0	11.12	20.59
26/01/2020 16:48:20	26012020	260120	164820	100.900	12.238570	-56.368907	100.980	-0.340	-0.220	0.240	100.920	-1.600	0.500																			1580057300.0	11.33	20.98
26/01/2020 16:48:21	26012020	260120	164821	100.900	12.238558	-56.368857	100.840	-0.380	-0.250	0.610	100.880	-1.600	0.900																			1580057301.0	11.17	20.69
26/01/2020 16:48:22	26012020	260120	164822	100.750	12.238545	-56.368805	100.730	-0.250	-0.320	0.700	100.720	-1.700	1.100																			1580057302.0	11.09	20.54
26/01/2020 16:48:23	26012020	260120	164823	100.650	12.238532	-56.368753	100.770	-0.040	-0.310	0.430	100.650	-1.700	0.900																			1580057303.0	11.20	20.74
26/01/2020 16:48:24	26012020	260120	164824	100.720	12.238523	-56.368702	100.950	0.130	-0.150	0.130	100.750	-1.600	0.600																			1580057304.0	11.26	20.85
26/01/2020 16:48:25	26012020	260120	164825	100.920	12.238513	-56.368650	101.120	0.240	-0.100	-0.140	100.950	-1.500	0.300																			1580057305.0	11.14	20.63
26/01/2020 16:48:26	26012020	260120	164826	101.090	12.238505	-56.368598	101.260	0.300	-0.140	-0.250	101.120	-1.500	0.100																			1580057306.0	10.96	20.30
26/01/2020 16:48:27	26012020	260120	164827	101.240	12.238495	-56.368548	101.380	0.320	-0.120	-0.130	101.270	-1.500	0.200																			1580057307.0	11.08	20.52
26/01/2020 16:48:28	26012020	260120	164828	101.360	12.238485	-56.368497	101.410	0.340	-0.150	0.070	101.370	-1.500	0.400																			1580057308.0	11.11	20.58
26/01/2020 16:48:29	26012020	260120	164829	101.360	12.238475	-56.368445	101.310	0.330	-0.360	0.250	101.340	-1.700	0.500																			1580057309.0	10.95	20.28
26/01/2020 16:48:30	26012020	260120	164830	101.270	12.238465	-56.368393	101.200	0.160	-0.530	0.480	101.240	-1.800	0.600																			1580057310.0	11.03	20.43
26/01/2020 16:48:31	26012020	260120	164831	101.130	12.238455	-56.368342	101.210	-0.160	-0.510	0.630	101.120	-1.900	1.000																			1580057311.0	11.23	20.80
26/01/2020 16:48:32	26012020	260120	164832	101.140	12.238443	-56.368292	101.240	-0.520	-0.390	0.660	101.140	-1.900	1.000																			1580057312.0	11.18	20.71
26/01/2020 16:48:33	26012020	260120	164833	101.160	12.238432	-56.368240	101.120	-0.660	-0.460	0.790	101.150	-1.800	1.100																			1580057313.0	11.01	20.39
26/01/2020 16:48:34	26012020	260120	164834	101.010	12.238417	-56.368188	100.860	-0.430	-0.690	0.930	100.970	-2.000	1.300																			1580057314.0	10.98	20.33
26/01/2020 16:48:35	26012020	260120	164835	100.750	12.238402	-56.368135	100.640	-0.050	-0.590	0.720	100.700	-2.100	1.200																			1580057315.0	11.38	21.08
26/01/2020 16:48:36	26012020	260120	164836	100.560	12.238392	-56.368083	100.650	0.170	-0.040	0.160	100.550	-1.700	0.700																			1580057316.0	11.68	21.63
26/01/2020 16:48:37	26012020	260120	164837	100.610	12.238383	-56.368033	100.850	0.150	0.460	-0.340	100.640	-1.100	0.200																			1580057317.0	11.31	20.95
26/01/2020 16:48:38	26012020	260120	164838	100.820	12.238375	-56.367982	101.110	0.040	0.530	-0.490	100.870	-0.900	-0.100																			1580057318.0	10.82	20.04
26/01/2020 16:48:39	26012020	260120	164839	101.090	12.238365	-56.367932	101.370	0.020	0.270	-0.310	101.140	-1.000	-0.000																			1580057319.0	10.79	19.98
26/01/2020 16:48:40	26012020	260120	164840	101.330	12.238353	-56.367880	101.520	0.180	-0.040	-0.070	101.370	-1.300	0.200																			1580057320.0	11.10	20.56
26/01/2020 16:48:41	26012020	260120	164841	101.480	12.238343	-56.367828	101.570	0.400	-0.350	0.030	101.490	-1.600	0.400																			1580057321.0	11.22	20.78
26/01/2020 16:48:42	26012020	260120	164842	101.510	12.238333	-56.367777	101.580	0.480	-0.590	0.090	101.520	-1.900	0.400																			1580057322.0	11.14	20.63
26/01/2020 16:48:43	26012020	260120	164843	101.530	12.238325	-56.367725	101.540	0.330	-0.670	0.180	101.530	-2.000	0.500																			1580057323.0	11.10	20.56
26/01/2020 16:48:44	26012020	260120	164844	101.500	12.238315	-56.367675	101.380	0.080	-0.780	0.330	101.480	-2.100	0.500																			1580057324.0	11.01	20.39
26/01/2020 16:48:45	26012020	260120	164845	101.310	12.238303	-56.367623	101.120	-0.150	-0.890	0.610	101.260	-2.300	0.900																			1580057325.0	10.93	20.24
26/01/2020 16:48:46	26012020	260120	164846	101.030	12.238290	-56.367572	100.880	-0.340	-0.790	0.890	100.980	-2.300	1.200																			1580057326.0	11.14	20.63
26/01/2020 16:48:47	26012020	260120	164847	100.800	12.238277	-56.367520	100.700	-0.470	-0.500	1.010	100.760	-2.000	1.400																			1580057327.0	11.32	20.96
26/01/2020 16:48:48	26012020	260120	164848	100.620	12.238263	-56.367468	100.500	-0.460	-0.200	0.940	100.580	-1.700	1.300																			1580057328.0	11.26	20.85
26/01/2020 16:48:49	26012020	260120	164849	100.420	12.238250	-56.367417	100.320	-0.320	0.020	0.680	100.370	-1.400	1.100																			1580057329.0	11.21	20.76
26/01/2020 16:48:50	26012020	260120	164850	100.250	12.238238	-56.367365	100.320	-0.110	0.200	0.330	100.230	-1.300	0.800																			1580057330.0	11.28	20.89
26/01/2020 16:48:51	26012020	260120	164851	100.270	12.238230	-56.367312	100.560	0.040	0.420	0.010	100.310	-1.100	0.500																			1580057331.0	11.34	21.00
26/01/2020 16:48:52	26012020	260120	164852	100.540	12.238222	-56.367260	100.970	0.040	0.630	-0.200	100.620	-0.800	0.200																			1580057332.0	11.28	20.89
26/01/2020 16:48:53	26012020	260120	164853	100.970	12.238212	-56.367210	101.360	0.030	0.510	-0.200	101.050	-0.800	0.100																			1580057333.0	11.03	20.43
26/01/2020 16:48:54	26012020	260120	164854	101.340	12.238202	-56.367160	101.580	0.180	-0.060	0.080	101.400	-1.200	0.300																			1580057334.0	10.79	19.98
26/01/2020 16:48:55	26012020	260120	164855	101.540	12.238190	-56.367108	101.660	0.450	-0.740	0.330	101.550	-1.900	0.600																			1580057335.0	10.94	20.26
26/01/2020 16:48:56	26012020	260120	164856	101.600	12.238178	-56.367055	101.650	0.610	-1.030	0.380	101.600	-2.400	0.700																			1580057336.0	11.33	20.98
26/01/2020 16:48:57	26012020	260120	164857	101.580	12.238170	-56.367003	101.550	0.510	-0.890	0.440	101.560	-2.400	0.800																			1580057337.0	11.37	21.06
26/01/2020 16:48:58	26012020	260120	164858	101.460	12.238162	-56.366955	101.310	0.220	-0.710	0.550	101.430	-2.200	0.900																			1580057338.0	10.99	20.35
26/01/2020 16:48:59	26012020	260120	164859	101.200	12.238150	-56.366903	100.930	-0.080	-0.760	0.690	101.130	-2.100	1.000	1015.30	26.30	26.40	19.50	19.50	911.00	66.00	65.00	375.00	29.40	352.00	10.10	82.00	4.50	66538	3302.00	27.70	27.60	1580057339.0	10.70	19.82
26/01/2020 16:49:00	26012020	260120	164900	100.820	12.238138	-56.366852	100.600	-0.280	-0.840	0.870	100.750	-2.200	1.200																			1580057340.0	10.91	20.21
26/01/2020 16:49:01	26012020	260120	164901	100.480	12.238125	-56.366798	100.400	-0.360	-0.610	0.950	100.430	-2.100	1.300																			1580057341.0	11.39	21.09
26/01/2020 16:49:02	26012020	260120	164902	100.300	12.238112	-56.366747	100.380	-0.450	0.010	0.800	100.290	-1.600	1.200																			1580057342.0	11.60	21.48
26/01/2020 16:49:03	26012020	260120	164903	100.300	12.238100	-56.366695	100.500	-0.590	0.640	0.520	100.320	-1.000	1.000																			1580057343.0	11.38	21.08
26/01/2020 16:49:04	26012020	260120	164904	100.450	12.238090	-56.366645	100.790	-0.610	0.840	0.210	100.500	-0.600	0.700																			1580057344.0	10.97	20.32
26/01/2020 16:49:05	26012020	260120	164905	100.760	12.238078	-56.366595	101.140	-0.380	0.560	-0.140	100.830	-0.700	0.300																			1580057345.0	10.83	20.06
26/01/2020 16:49:06	26012020	260120	164906	101.110	12.238068	-56.366542	101.430	0.080	0.030	-0.310	101.180	-1.200	0.100																			1580057346.0	11.09	20.54
26/01/2020 16:49:07	26012020	260120	164907	101.390	12.238060	-56.366488	101.550	0.550	-0.530	-0.230	101.430	-1.700	0.100																			1580057347.0	11.37	21.06
26/01/2020 16:49:08	26012020	260120	164908	101.510	12.238050	-56.366435	101.570	0.790	-0.810	-0.070	101.520	-2.200	0.200																			1580057348.0	11.44	21.19
26/01/2020 16:49:09	26012020	260120	164909	101.510	12.238040	-56.366383	101.530	0.640	-0.610	0.160	101.500	-2.100	0.500																			1580057349.0	11.41	21.13
26/01/2020 16:49:10	26012020	260120	164910	101.470	12.238032	-56.366335	101.510	0.230	-0.290	0.390	101.460	-1.800	0.700																			1580057350.0	11.07	20.50
26/01/2020 16:49:11	26012020	260120	164911	101.440	12.238020	-56.366287	101.320	-0.080	-0.380	0.670	101.420	-1.700	0.900																			1580057351.0	10.58	19.59
26/01/2020 16:49:12	26012020	260120	164912	101.220	12.238008	-56.366235	100.930	-0.120	-0.840	0.930	101.150	-2.100	1.200																			1580057352.0	10.55	19.54
26/01/2020 16:49:13	26012020	260120	164913	100.820	12.237995	-56.366180	100.600	-0.060	-0.960	0.960	100.750	-2.400	1.400																			1580057353.0	11.20	20.74
26/01/2020 16:49:14	26012020	260120	164914	100.520	12.237982	-56.366128	100.530	-0.110	-0.420	0.700	100.490	-2.000	1.200																			1580057354.0	11.78	21.82
26/01/2020 16:49:15	26012020	260120	164915	100.470	12.237972	-56.366078	100.580	-0.260	0.210	0.390	100.470	-1.400	0.900																			1580057355.0	11.42	21.15
26/01/2020 16:49:16	26012020	260120	164916	100.530	12.237963	-56.366028	100.670	-0.410	0.380	0.230	100.540	-1.000	0.600																			1580057356.0	10.80	20.00
26/01/2020 16:49:17	26012020	260120	164917	100.610	12.237952	-56.365977	100.790	-0.400	0.130	0.280	100.640	-1.200	0.600																			1580057357.0	10.77	19.95
26/01/2020 16:49:18	26012020	260120	164918	100.750	12.237940	-56.365923	100.920	-0.190	-0.210	0.360	100.770	-1.500	0.700																			1580057358.0	11.20	20.74
26/01/2020 16:49:19	26012020	260120	164919	100.870	12.237927	-56.365870	101.000	0.070	-0.340	0.380	100.890	-1.700	0.700																			1580057359.0	11.50	21.30
26/01/2020 16:49:20	26012020	260120	164920	100.950	12.237917	-56.365818	101.070	0.130	-0.160	0.370	100.970	-1.600	0.800																			1580057360.0	11.53	21.35
26/01/2020 16:49:21	26012020	260120	164921	101.020	12.237907	-56.365768	101.130	0.050	0.040	0.310	101.040	-1.400	0.700																			1580057361.0	11.20	20.74
26/01/2020 16:49:22	26012020	260120	164922	101.070	12.237897	-56.365718	101.100	0.080	-0.150	0.250	101.070	-1.400	0.600																			1580057362.0	10.77	19.95
26/01/2020 16:49:23	26012020	260120	164923	101.030	12.237887	-56.365667	101.010	0.330	-0.600	0.190	101.010	-1.900	0.600																			1580057363.0	10.72	19.85
26/01/2020 16:49:24	26012020	260120	164924	100.940	12.237877	-56.365613	100.970	0.500	-0.700	-0.010	100.930	-2.100	0.400																			1580057364.0	11.21	20.76
26/01/2020 16:49:25	26012020	260120	164925	100.930	12.237868	-56.365562	101.000	0.290	-0.280	-0.090	100.940	-1.900	0.300																			1580057365.0	11.54	21.37
26/01/2020 16:49:26	26012020	260120	164926	100.950	12.237860	-56.365512	100.940	-0.130	0.040	0.090	100.940	-1.400	0.400																			1580057366.0	11.13	20.61
26/01/2020 16:49:27	26012020	260120	164927	100.880	12.237848	-56.365463	100.820	-0.350	-0.190	0.290	100.860	-1.500	0.600																			1580057367.0	10.54	19.52
26/01/2020 16:49:28	26012020	260120	164928	100.750	12.237837	-56.365410	100.630	-0.250	-0.700	0.570	100.710	-1.900	0.800																			1580057368.0	10.72	19.85
26/01/2020 16:49:29	26012020	260120	164929	100.550	12.237823	-56.365357	100.440	-0.030	-0.960	0.740	100.500	-2.300	1.100																			1580057369.0	11.41	21.13
26/01/2020 16:49:30	26012020	260120	164930	100.350	12.237810	-56.365303	100.340	0.020	-0.620	0.580	100.320	-2.200	1.000																			1580057370.0	11.81	21.87
26/01/2020 16:49:31	26012020	260120	164931	100.260	12.237798	-56.365253	100.370	-0.180	0.190	0.370	100.270	-1.500	0.800																			1580057371.0	11.58	21.45
26/01/2020 16:49:32	26012020	260120	164932	100.320	12.237790	-56.365205	100.430	-0.400	0.760	0.300	100.330	-0.800	0.700																			1580057372.0	10.93	20.24
26/01/2020 16:49:33	26012020	260120	164933	100.380	12.237778	-56.365157	100.500	-0.320	0.470	0.220	100.390	-0.700	0.600																			1580057373.0	10.39	19.24
26/01/2020 16:49:34	26012020	260120	164934	100.430	12.237768	-56.365103	100.610	0.100	-0.390	0.140	100.450	-0.900	0.600																			1580057374.0	10.60	19.63
26/01/2020 16:49:35	26012020	260120	164935	100.560	12.237758	-56.365047	100.680	0.480	-0.810	0.310	100.580	-2.200	0.600																			1580057375.0	11.47	21.24
26/01/2020 16:49:36	26012020	260120	164936	100.620	12.237747	-56.364995	100.730	0.480	-0.450	0.420	100.620	-2.000	0.800																			1580057376.0	11.98	22.19
26/01/2020 16:49:37	26012020	260120	164937	100.660	12.237738	-56.364945	100.800	0.200	0.020	0.360	100.670	-1.500	0.800																			1580057377.0	11.36	21.04
26/01/2020 16:49:38	26012020	260120	164938	100.750	12.237730	-56.364897	100.910	-0.050	0.020	0.280	100.770	-1.300	0.700																			1580057378.0	10.50	19.45
26/01/2020 16:49:39	26012020	260120	164939	100.870	12.237720	-56.364847	100.970	-0.130	-0.360	0.280	100.890	-1.600	0.700																			1580057379.0	10.45	19.35
26/01/2020 16:49:40	26012020	260120	164940	100.920	12.237708	-56.364793	100.860	-0.110	-0.610	0.380	100.900	-2.000	0.700																			1580057380.0	11.02	20.41
26/01/2020 16:49:41	26012020	260120	164941	100.770	12.237697	-56.364742	100.560	-0.050	-0.640	0.520	100.720	-2.000	0.900																			1580057381.0	11.38	21.08
26/01/2020 16:49:42	26012020	260120	164942	100.470	12.237687	-56.364690	100.300	0.040	-0.660	0.490	100.420	-2.100	0.900																			1580057382.0	11.23	20.80
26/01/2020 16:49:43	26012020	260120	164943	100.230	12.237675	-56.364638	100.200	0.090	-0.620	0.280	100.210	-2.100	0.700																			1580057383.0	11.13	20.61
26/01/2020 16:49:44	26012020	260120	164944	100.150	12.237667	-56.364585	100.190	0.010	-0.260	0.130	100.150	-1.800	0.500																			1580057384.0	11.28	20.89
26/01/2020 16:49:45	26012020	260120	164945	100.170	12.237657	-56.364535	100.280	-0.200	0.330	0.040	100.180	-1.300	0.400																			1580057385.0	11.30	20.93
26/01/2020 16:49:46	26012020	260120	164946	100.260	12.237645	-56.364485	100.390	-0.340	0.560	0.070	100.280	-0.900	0.400																			1580057386.0	10.93	20.24
26/01/2020 16:49:47	26012020	260120	164947	100.360	12.237635	-56.364435	100.460	-0.290	0.230	0.240	100.380	-1.000	0.500																			1580057387.0	10.65	19.72
26/01/2020 16:49:48	26012020	260120	164948	100.430	12.237623	-56.364382	100.520	-0.080	-0.260	0.370	100.440	-1.500	0.700																			1580057388.0	10.99	20.35
26/01/2020 16:49:49	26012020	260120	164949	100.490	12.237612	-56.364328	100.630	0.180	-0.570	0.390	100.510	-1.900	0.800																			1580057389.0	11.43	21.17
26/01/2020 16:49:50	26012020	260120	164950	100.610	12.237602	-56.364277	100.790	0.310	-0.590	0.380	100.640	-2.000	0.800																			1580057390.0	11.49	21.28
26/01/2020 16:49:51	26012020	260120	164951	100.770	12.237592	-56.364225	100.930	0.260	-0.470	0.370	100.810	-1.900	0.800																			1580057391.0	11.25	20.84
26/01/2020 16:49:52	26012020	260120	164952	100.900	12.237582	-56.364175	100.940	0.160	-0.370	0.330	100.920	-1.800	0.700																			1580057392.0	10.96	20.30
26/01/2020 16:49:53	26012020	260120	164953	100.900	12.237572	-56.364125	100.800	0.150	-0.310	0.240	100.880	-1.700	0.700																			1580057393.0	10.87	20.13
26/01/2020 16:49:54	26012020	260120	164954	100.750	12.237563	-56.364073	100.670	0.160	-0.350	0.110	100.720	-1.700	0.500																			1580057394.0	10.95	20.28
26/01/2020 16:49:55	26012020	260120	164955	100.630	12.237553	-56.364020	100.630	0.070	-0.410	0.030	100.620	-1.800	0.400																			1580057395.0	11.08	20.52
26/01/2020 16:49:56	26012020	260120	164956	100.590	12.237543	-56.363968	100.570	-0.140	-0.290	-0.010	100.580	-1.800	0.400																			1580057396.0	11.25	20.84
26/01/2020 16:49:57	26012020	260120	164957	100.530	12.237533	-56.363917	100.450	-0.310	-0.090	-0.010	100.510	-1.600	0.400																			1580057397.0	11.28	20.89
26/01/2020 16:49:58	26012020	260120	164958	100.410	12.237523	-56.363867	100.360	-0.240	-0.190	0.040	100.410	-1.500	0.400																			1580057398.0	11.03	20.43
26/01/2020 16:49:59	26012020	260120	164959	100.320	12.237510	-56.363813	100.320	-0.020	-0.410	0.110	100.310	-1.800	0.500	1015.30	26.30	26.30	19.50	19.50	909.00	66.00	66.00	375.00	29.40	352.00	9.60	81.00	4.00	66378	3282.00	27.70	27.70	1580057399.0	11.02	20.41
26/01/2020 16:50:00	26012020	260120	165000	100.280	12.237498	-56.363760	100.330	0.050	-0.290	0.110	100.280	-1.800	0.500																			1580057400.0	11.44	21.19
26/01/2020 16:50:01	26012020	260120	165001	100.310	12.237488	-56.363708	100.470	-0.130	0.230	0.090	100.320	-1.400	0.500																			1580057401.0	11.58	21.45
26/01/2020 16:50:02	26012020	260120	165002	100.440	12.237478	-56.363660	100.710	-0.330	0.580	0.040	100.480	-0.900	0.400																			1580057402.0	11.08	20.52
26/01/2020 16:50:03	26012020	260120	165003	100.700	12.237468	-56.363612	101.000	-0.240	0.220	-0.150	100.760	-1.000	0.300																			1580057403.0	10.52	19.48
26/01/2020 16:50:04	26012020	260120	165004	100.990	12.237458	-56.363558	101.150	0.140	-0.580	-0.180	101.040	-1.700	0.200																			1580057404.0	10.60	19.63
26/01/2020 16:50:05	26012020	260120	165005	101.110	12.237447	-56.363505	101.020	0.500	-1.050	-0.030	101.100	-2.400	0.300																			1580057405.0	11.30	20.93
26/01/2020 16:50:06	26012020	260120	165006	100.950	12.237435	-56.363452	100.730	0.570	-0.900	0.110	100.890	-2.400	0.400																			1580057406.0	11.73	21.72
26/01/2020 16:50:07	26012020	260120	165007	100.650	12.237427	-56.363402	100.560	0.360	-0.510	0.180	100.600	-2.000	0.500																			1580057407.0	11.35	21.02
26/01/2020 16:50:08	26012020	260120	165008	100.490	12.237418	-56.363352	100.570	0.120	-0.360	0.210	100.490	-1.800	0.600																			1580057408.0	10.79	19.98
26/01/2020 16:50:09	26012020	260120	165009	100.520	12.237408	-56.363300	100.590	0.010	-0.490	0.290	100.530	-1.800	0.600																			1580057409.0	10.72	19.85
26/01/2020 16:50:10	26012020	260120	165010	100.520	12.237397	-56.363247	100.440	-0.040	-0.450	0.540	100.500	-1.900	0.800																			1580057410.0	11.16	20.67
26/01/2020 16:50:11	26012020	260120	165011	100.350	12.237383	-56.363195	100.290	-0.210	-0.060	0.750	100.310	-1.600	1.100																			1580057411.0	11.57	21.43
26/01/2020 16:50:12	26012020	260120	165012	100.200	12.237372	-56.363143	100.350	-0.500	0.420	0.670	100.190	-1.100	1.100																			1580057412.0	11.46	21.22
26/01/2020 16:50:13	26012020	260120	165013	100.280	12.237360	-56.363093	100.590	-0.620	0.540	0.370	100.330	-0.900	0.800																			1580057413.0	11.00	20.37
26/01/2020 16:50:14	26012020	260120	165014	100.540	12.237350	-56.363043	100.780	-0.380	0.240	0.080	100.590	-1.000	0.600																			1580057414.0	10.80	20.00
26/01/2020 16:50:15	26012020	260120	165015	100.740	12.237340	-56.362990	100.910	0.030	-0.200	-0.110	100.770	-1.500	0.300																			1580057415.0	11.06	20.48
26/01/2020 16:50:16	26012020	260120	165016	100.870	12.237330	-56.362937	101.010	0.300	-0.500	-0.050	100.890	-1.800	0.300																			1580057416.0	11.41	21.13
26/01/2020 16:50:17	26012020	260120	165017	100.970	12.237320	-56.362885	101.090	0.350	-0.580	0.170	100.980	-2.000	0.500																			1580057417.0	11.44	21.19
26/01/2020 16:50:18	26012020	260120	165018	101.030	12.237308	-56.362835	101.140	0.290	-0.490	0.350	101.040	-1.900	0.700																			1580057418.0	11.17	20.69
26/01/2020 16:50:19	26012020	260120	165019	101.070	12.237297	-56.362785	101.100	0.200	-0.340	0.430	101.060	-1.800	0.800																			1580057419.0	10.95	20.28
26/01/2020 16:50:20	26012020	260120	165020	101.030	12.237287	-56.362735	100.990	0.210	-0.420	0.380	101.010	-1.800	0.800																			1580057420.0	10.80	20.00
26/01/2020 16:50:21	26012020	260120	165021	100.920	12.237278	-56.362683	100.890	0.360	-0.700	0.220	100.890	-2.000	0.700																			1580057421.0	10.81	20.02
26/01/2020 16:50:22	26012020	260120	165022	100.830	12.237268	-56.362628	100.880	0.460	-0.750	0.020	100.820	-2.200	0.500																			1580057422.0	11.19	20.72
26/01/2020 16:50:23	26012020	260120	165023	100.820	12.237260	-56.362577	100.890	0.230	-0.300	-0.020	100.820	-1.900	0.300																			1580057423.0	11.55	21.39
26/01/2020 16:50:24	26012020	260120	165024	100.840	12.237250	-56.362525	100.910	-0.250	0.210	0.140	100.840	-1.400	0.400																			1580057424.0	11.34	21.00
26/01/2020 16:50:25	26012020	260120	165025	100.860	12.237238	-56.362477	100.990	-0.640	0.300	0.350	100.870	-1.100	0.700																			1580057425.0	10.81	20.02
26/01/2020 16:50:26	26012020	260120	165026	100.920	12.237227	-56.362425	101.020	-0.660	-0.140	0.620	100.940	-1.100	0.700																			1580057426.0	10.72	19.85
26/01/2020 16:50:27	26012020	260120	165027	100.950	12.237212	-56.362372	100.920	-0.450	-0.590	0.840	100.940	-1.900	1.100																			1580057427.0	11.18	20.71
26/01/2020 16:50:28	26012020	260120	165028	100.820	12.237198	-56.362318	100.760	-0.280	-0.500	0.920	100.790	-2.000	1.300																			1580057428.0	11.76	21.78
26/01/2020 16:50:29	26012020	260120	165029	100.660	12.237187	-56.362267	100.660	-0.210	-0.040	0.710	100.640	-1.600	1.200																			1580057429.0	11.70	21.67
26/01/2020 16:50:30	26012020	260120	165030	100.580	12.237177	-56.362218	100.650	-0.030	0.080	0.290	100.570	-1.300	0.800																			1580057430.0	11.04	20.45
26/01/2020 16:50:31	26012020	260120	165031	100.570	12.237167	-56.362167	100.670	0.330	-0.280	-0.160	100.580	-1.600	0.400																			1580057431.0	10.64	19.71
26/01/2020 16:50:32	26012020	260120	165032	100.620	12.237160	-56.362112	100.770	0.620	-0.390	-0.450	100.640	-1.800	0.000																			1580057432.0	11.11	20.58
26/01/2020 16:50:33	26012020	260120	165033	100.730	12.237152	-56.362060	100.910	0.560	0.060	-0.400	100.760	-1.600	-0.100																			1580057433.0	11.61	21.50
26/01/2020 16:50:34	26012020	260120	165034	100.880	12.237142	-56.362012	101.060	0.270	0.380	-0.130	100.910	-1.100	0.100																			1580057434.0	11.17	20.69
26/01/2020 16:50:35	26012020	260120	165035	101.020	12.237132	-56.361963	101.180	0.060	-0.000	0.190	101.050	-1.200	0.400																			1580057435.0	10.42	19.30
26/01/2020 16:50:36	26012020	260120	165036	101.140	12.237120	-56.361910	101.200	0.110	-0.740	0.520	101.150	-1.900	0.800																			1580057436.0	10.54	19.52
26/01/2020 16:50:37	26012020	260120	165037	101.130	12.237108	-56.361857	101.070	0.220	-1.160	0.720	101.110	-2.500	1.000																			1580057437.0	11.26	20.85
26/01/2020 16:50:38	26012020	260120	165038	100.980	12.237097	-56.361805	100.840	0.160	-1.020	0.800	100.930	-2.500	1.200																			1580057438.0	11.65	21.58
26/01/2020 16:50:39	26012020	260120	165039	100.740	12.237087	-56.361753	100.650	-0.120	-0.590	0.700	100.700	-2.200	1.100																			1580057439.0	11.39	21.09
26/01/2020 16:50:40	26012020	260120	165040	100.550	12.237077	-56.361703	100.540	-0.450	-0.160	0.570	100.530	-1.700	1.000																			1580057440.0	10.96	20.30
26/01/2020 16:50:41	26012020	260120	165041	100.470	12.237065	-56.361653	100.510	-0.660	0.020	0.480	100.470	-1.400	0.900																			1580057441.0	10.86	20.11
26/01/2020 16:50:42	26012020	260120	165042	100.440	12.237053	-56.361602	100.460	-0.590	-0.080	0.500	100.430	-1.500	0.900																			1580057442.0	10.96	20.30
26/01/2020 16:50:43	26012020	260120	165043	100.390	12.237042	-56.361548	100.500	-0.380	-0.040	0.490	100.390	-1.500	0.900																			1580057443.0	11.28	20.89
26/01/2020 16:50:44	26012020	260120	165044	100.440	12.237028	-56.361495	100.620	-0.240	0.260	0.410	100.460	-1.300	0.800																			1580057444.0	11.61	21.50
26/01/2020 16:50:45	26012020	260120	165045	100.570	12.237017	-56.361445	100.800	-0.070	0.380	0.140	100.610	-1.000	0.600																			1580057445.0	11.31	20.95
26/01/2020 16:50:46	26012020	260120	165046	100.760	12.237008	-56.361395	101.000	0.310	0.030	-0.220	100.790	-1.200	0.300																			1580057446.0	10.83	20.06
26/01/2020 16:50:47	26012020	260120	165047	100.980	12.237000	-56.361342	101.310	0.710	-0.340	-0.430	101.040	-1.700	-0.000																			1580057447.0	10.92	20.22
26/01/2020 16:50:48	26012020	260120	165048	101.280	12.236993	-56.361288	101.510	0.770	-0.390	-0.280	101.280	-1.800	-0.100																			1580057448.0	11.40	21.11
26/01/2020 16:50:49	26012020	260120	165049	101.480	12.236983	-56.361238	101.490	0.530	-0.390	0.070	101.490	-1.800	0.300																			1580057449.0	11.28	20.89
26/01/2020 16:50:50	26012020	260120	165050	101.440	12.236973	-56.361188	101.390	0.220	-0.540	0.420	101.420	-1.900	0.700																			1580057450.0	10.79	19.98
26/01/2020 16:50:51	26012020	260120	165051	101.320	12.236962	-56.361138	101.250	-0.020	-0.630	0.680	101.300	-2.000	1.000																			1580057451.0	10.80	20.00
26/01/2020 16:50:52	26012020	260120	165052	101.180	12.236950	-56.361087	101.090	-0.200	-0.590	0.720	101.160	-2.000	1.100																			1580057452.0	11.06	20.48
26/01/2020 16:50:53	26012020	260120	165053	101.020	12.236938	-56.361037	100.910	-0.360	-0.500	0.640	100.990	-1.900	1.000																			1580057453.0	11.06	20.48
26/01/2020 16:50:54	26012020	260120	165054	100.830	12.236927	-56.360985	100.700	-0.500	-0.450	0.610	100.780	-1.900	1.000																			1580057454.0	11.04	20.45
26/01/2020 16:50:55	26012020	260120	165055	100.620	12.236915	-56.360933	100.540	-0.520	-0.380	0.590	100.580	-1.800	1.000																			1580057455.0	11.12	20.59
26/01/2020 16:50:56	26012020	260120	165056	100.450	12.236902	-56.360882	100.460	-0.360	-0.300	0.490	100.430	-1.800	0.900																			1580057456.0	11.26	20.85
26/01/2020 16:50:57	26012020	260120	165057	100.400	12.236890	-56.360828	100.550	-0.130	-0.120	0.260	100.410	-1.600	0.700																			1580057457.0	11.34	21.00
26/01/2020 16:50:58	26012020	260120	165058	100.500	12.236880	-56.360777	100.720	0.070	0.160	-0.040	100.540	-1.400	0.400																			1580057458.0	11.36	21.04
26/01/2020 16:50:59	26012020	260120	165059	100.690	12.236870	-56.360727	100.890	0.220	0.350	-0.240	100.730	-1.100	0.200	1015.30	26.30	26.40	19.40	19.50	908.00	66.00	65.00	375.00	29.40	354.00	9.90	86.00	4.20	66246	3212.00	27.60	27.60	1580057459.0	11.20	20.74
26/01/2020 16:51:00	26012020	260120	165100	100.850	12.236860	-56.360675	100.960	0.350	0.220	-0.270	100.870	-1.100	0.100																			1580057460.0	10.98	20.33
26/01/2020 16:51:01	26012020	260120	165101	100.920	12.236852	-56.360623	101.080	0.400	-0.060	-0.220	100.940	-1.400	0.100																			1580057461.0	10.98	20.33
26/01/2020 16:51:02	26012020	260120	165102	101.050	12.236842	-56.360570	101.300	0.250	-0.150	0.030	101.100	-1.600	0.300																			1580057462.0	11.20	20.74
26/01/2020 16:51:03	26012020	260120	165103	101.270	12.236832	-56.360520	101.440	0.010	-0.250	0.410	101.310	-1.600	0.600																			1580057463.0	11.19	20.72
26/01/2020 16:51:04	26012020	260120	165104	101.390	12.236822	-56.360472	101.300	-0.040	-0.730	0.760	101.380	-2.000	1.000																			1580057464.0	10.79	19.98
26/01/2020 16:51:05	26012020	260120	165105	101.230	12.236808	-56.360418	101.050	0.050	-1.140	1.050	101.180	-2.500	1.300																			1580057465.0	10.85	20.09
26/01/2020 16:51:06	26012020	260120	165106	100.940	12.236795	-56.360365	100.790	0.010	-0.950	1.110	100.880	-2.500	1.500																			1580057466.0	11.42	21.15
26/01/2020 16:51:07	26012020	260120	165107	100.690	12.236783	-56.360315	100.600	-0.200	-0.390	0.900	100.650	-2.000	1.400																			1580057467.0	11.48	21.26
26/01/2020 16:51:08	26012020	260120	165108	100.510	12.236773	-56.360267	100.470	-0.340	-0.000	0.620	100.480	-1.500	1.100																			1580057468.0	10.94	20.26
26/01/2020 16:51:09	26012020	260120	165109	100.390	12.236763	-56.360215	100.440	-0.220	-0.060	0.290	100.380	-1.400	0.800																			1580057469.0	10.69	19.80
26/01/2020 16:51:10	26012020	260120	165110	100.380	12.236752	-56.360162	100.530	0.030	-0.180	-0.050	100.390	-1.600	0.400																			1580057470.0	11.01	20.39
26/01/2020 16:51:11	26012020	260120	165111	100.500	12.236743	-56.360108	100.740	0.100	0.110	-0.220	100.540	-1.500	0.200																			1580057471.0	11.53	21.35
26/01/2020 16:51:12	26012020	260120	165112	100.720	12.236733	-56.360058	100.980	-0.040	0.430	-0.200	100.770	-1.100	0.100																			1580057472.0	11.50	21.30
26/01/2020 16:51:13	26012020	260120	165113	100.970	12.236723	-56.360008	101.170	-0.080	0.220	-0.030	101.010	-1.100	0.300																			1580057473.0	10.83	20.06
26/01/2020 16:51:14	26012020	260120	165114	101.140	12.236713	-56.359957	101.260	0.080	-0.350	0.230	101.160	-1.600	0.500																			1580057474.0	10.70	19.82
26/01/2020 16:51:15	26012020	260120	165115	101.220	12.236702	-56.359903	101.260	0.250	-0.760	0.480	101.220	-2.100	0.800																			1580057475.0	11.18	20.71
26/01/2020 16:51:16	26012020	260120	165116	101.200	12.236690	-56.359852	101.160	0.190	-0.670	0.570	101.180	-2.200	0.900																			1580057476.0	11.51	21.32
26/01/2020 16:51:17	26012020	260120	165117	101.100	12.236680	-56.359802	101.030	-0.050	-0.360	0.580	101.070	-1.900	0.900																			1580057477.0	11.30	20.93
26/01/2020 16:51:18	26012020	260120	165118	100.950	12.236668	-56.359752	100.900	-0.200	-0.360	0.580	100.930	-1.700	0.900																			1580057478.0	10.78	19.96
26/01/2020 16:51:19	26012020	260120	165119	100.820	12.236658	-56.359700	100.740	-0.110	-0.640	0.500	100.790	-2.000	0.900																			1580057479.0	10.66	19.74
26/01/2020 16:51:20	26012020	260120	165120	100.660	12.236647	-56.359647	100.580	0.060	-0.630	0.370	100.630	-2.100	0.800																			1580057480.0	11.18	20.71
26/01/2020 16:51:21	26012020	260120	165121	100.510	12.236635	-56.359595	100.570	0.000	-0.050	0.220	100.490	-1.700	0.600																			1580057481.0	11.61	21.50
26/01/2020 16:51:22	26012020	260120	165122	100.510	12.236625	-56.359545	100.710	-0.230	0.570	-0.060	100.530	-1.000	0.400																			1580057482.0	11.31	20.95
26/01/2020 16:51:23	26012020	260120	165123	100.660	12.236617	-56.359497	100.820	-0.260	0.440	-0.240	100.690	-0.800	0.200																			1580057483.0	10.61	19.65
26/01/2020 16:51:24	26012020	260120	165124	100.780	12.236607	-56.359445	100.840	0.110	-0.400	-0.090	100.790	-1.500	0.200																			1580057484.0	10.48	19.41
26/01/2020 16:51:25	26012020	260120	165125	100.810	12.236595	-56.359388	100.860	0.470	-0.850	0.190	100.810	-2.200	0.500																			1580057485.0	11.30	20.93
26/01/2020 16:51:26	26012020	260120	165126	100.830	12.236583	-56.359337	100.960	0.310	-0.380	0.350	100.850	-2.000	0.700																			1580057486.0	12.04	22.30
26/01/2020 16:51:27	26012020	260120	165127	100.940	12.236573	-56.359288	101.110	-0.220	0.320	0.500	100.980	-1.300	0.800																			1580057487.0	11.48	21.26
26/01/2020 16:51:28	26012020	260120	165128	101.090	12.236562	-56.359242	101.150	-0.560	0.300	0.610	101.100	-1.000	0.900																			1580057488.0	10.31	19.09
26/01/2020 16:51:29	26012020	260120	165129	101.100	12.236550	-56.359192	100.950	-0.320	-0.520	0.580	101.070	-1.600	1.000																			1580057489.0	10.09	18.69
26/01/2020 16:51:30	26012020	260120	165130	100.880	12.236538	-56.359137	100.630	0.250	-1.320	0.520	100.820	-2.500	0.900																			1580057490.0	10.91	20.21
26/01/2020 16:51:31	26012020	260120	165131	100.560	12.236527	-56.359082	100.430	0.560	-1.200	0.460	100.510	-2.800	0.900																			1580057491.0	11.87	21.98
26/01/2020 16:51:32	26012020	260120	165132	100.390	12.236517	-56.359030	100.500	0.330	-0.280	0.190	100.390	-2.100	0.700																			1580057492.0	11.94	22.11
26/01/2020 16:51:33	26012020	260120	165133	100.480	12.236508	-56.358983	100.690	-0.170	0.530	-0.030	100.520	-1.100	0.400																			1580057493.0	11.00	20.37
26/01/2020 16:51:34	26012020	260120	165134	100.670	12.236500	-56.358935	100.840	-0.440	0.600	0.040	100.710	-0.800	0.300																			1580057494.0	10.23	18.95
26/01/2020 16:51:35	26012020	260120	165135	100.830	12.236487	-56.358883	100.890	-0.270	0.020	0.290	100.840	-1.200	0.500																			1580057495.0	10.36	19.19
26/01/2020 16:51:36	26012020	260120	165136	100.860	12.236473	-56.358830	100.830	0.080	-0.490	0.560	100.850	-1.800	0.800																			1580057496.0	11.14	20.63
26/01/2020 16:51:37	26012020	260120	165137	100.790	12.236462	-56.358777	100.800	0.140	-0.310	0.620	100.770	-1.900	1.000																			1580057497.0	11.78	21.82
26/01/2020 16:51:38	26012020	260120	165138	100.760	12.236452	-56.358728	100.850	-0.100	0.120	0.430	100.770	-1.400	0.900																			1580057498.0	11.52	21.34
26/01/2020 16:51:39	26012020	260120	165139	100.810	12.236443	-56.358680	100.830	-0.210	-0.020	0.290	100.820	-1.300	0.700																			1580057499.0	10.61	19.65
26/01/2020 16:51:40	26012020	260120	165140	100.780	12.236433	-56.358628	100.670	0.050	-0.800	0.390	100.750	-1.900	0.700																			1580057500.0	10.30	19.08
26/01/2020 16:51:41	26012020	260120	165141	100.610	12.236420	-56.358573	100.520	0.300	-1.090	0.580	100.570	-2.500	0.900																			1580057501.0	11.06	20.48
26/01/2020 16:51:42	26012020	260120	165142	100.450	12.236408	-56.358522	100.510	0.170	-0.320	0.660	100.440	-2.100	1.000																			1580057502.0	11.86	21.96
26/01/2020 16:51:43	26012020	260120	165143	100.450	12.236397	-56.358477	100.600	-0.160	0.510	0.560	100.470	-1.100	1.000																			1580057503.0	11.26	20.85
26/01/2020 16:51:44	26012020	260120	165144	100.550	12.236388	-56.358430	100.640	-0.140	0.260	0.330	100.570	-0.900	0.800																			1580057504.0	10.05	18.61
26/01/2020 16:51:45	26012020	260120	165145	100.580	12.236378	-56.358377	100.560	0.270	-0.700	0.090	100.560	-1.800	0.500																			1580057505.0	10.06	18.63
26/01/2020 16:51:46	26012020	260120	165146	100.500	12.236368	-56.358320	100.530	0.580	-1.040	0.090	100.490	-2.500	0.400																			1580057506.0	11.37	21.06
26/01/2020 16:51:47	26012020	260120	165147	100.480	12.236358	-56.358268	100.610	0.380	-0.340	0.300	100.490	-2.100	0.600																			1580057507.0	12.09	22.39
26/01/2020 16:51:48	26012020	260120	165148	100.570	12.236348	-56.358220	100.700	-0.190	0.470	0.470	100.600	-1.200	0.800																			1580057508.0	11.29	20.91
26/01/2020 16:51:49	26012020	260120	165149	100.650	12.236338	-56.358175	100.670	-0.620	0.450	0.710	100.650	-0.900	1.000																			1580057509.0	10.15	18.80
26/01/2020 16:51:50	26012020	260120	165150	100.610	12.236325	-56.358123	100.580	-0.580	-0.290	0.990	100.600	-1.400	1.300																			1580057510.0	10.07	18.65
26/01/2020 16:51:51	26012020	260120	165151	100.500	12.236312	-56.358070	100.390	-0.200	-0.890	1.060	100.470	-2.200	1.400																			1580057511.0	11.03	20.43
26/01/2020 16:51:52	26012020	260120	165152	100.360	12.236298	-56.358017	100.220	0.170	-0.820	0.890	100.320	-2.300	1.400																			1580057512.0	11.76	21.78
26/01/2020 16:51:53	26012020	260120	165153	100.150	12.236290	-56.357967	100.180	0.250	-0.280	0.650	100.130	-1.900	1.100																			1580057513.0	11.56	21.41
26/01/2020 16:51:54	26012020	260120	165154	100.120	12.236282	-56.357918	100.250	0.080	0.180	0.360	100.140	-1.400	0.800																			1580057514.0	10.91	20.21
26/01/2020 16:51:55	26012020	260120	165155	100.210	12.236272	-56.357868	100.310	-0.090	0.240	0.180	100.220	-1.200	0.600																			1580057515.0	10.45	19.35
26/01/2020 16:51:56	26012020	260120	165156	100.280	12.236263	-56.357818	100.340	-0.020	-0.050	0.150	100.290	-1.400	0.500																			1580057516.0	10.53	19.50
26/01/2020 16:51:57	26012020	260120	165157	100.290	12.236252	-56.357765	100.290	0.230	-0.400	0.200	100.290	-1.700	0.500																			1580057517.0	10.93	20.24
26/01/2020 16:51:58	26012020	260120	165158	100.260	12.236242	-56.357713	100.260	0.400	-0.510	0.360	100.250	-1.900	0.700																			1580057518.0	11.24	20.82
26/01/2020 16:51:59	26012020	260120	165159	100.220	12.236232	-56.357663	100.290	0.310	-0.300	0.480	100.220	-1.800	0.800	1015.30	26.30	26.40	19.00	19.10	908.00	64.00	64.00	375.00	29.40	352.00	9.30	81.00	3.80	66165	3268.00	27.70	27.60	1580057519.0	11.28	20.89
26/01/2020 16:52:00	26012020	260120	165200	100.260	12.236222	-56.357613	100.280	0.070	-0.110	0.560	100.270	-1.600	0.900																			1580057520.0	10.97	20.32
26/01/2020 16:52:01	26012020	260120	165201	100.230	12.236212	-56.357563	100.210	-0.100	-0.230	0.620	100.220	-1.600	1.000																			1580057521.0	10.60	19.63
26/01/2020 16:52:02	26012020	260120	165202	100.160	12.236202	-56.357513	100.170	-0.170	-0.460	0.660	100.150	-1.800	1.000																			1580057522.0	10.68	19.78
26/01/2020 16:52:03	26012020	260120	165203	100.120	12.236190	-56.357462	100.120	-0.240	-0.420	0.610	100.110	-1.900	1.000																			1580057523.0	11.11	20.58
26/01/2020 16:52:04	26012020	260120	165204	100.070	12.236180	-56.357410	100.060	-0.290	-0.270	0.450	100.060	-1.700	0.900																			1580057524.0	11.19	20.72
26/01/2020 16:52:05	26012020	260120	165205	100.010	12.236172	-56.357360	99.970	-0.180	-0.330	0.330	99.990	-1.700	0.700																			1580057525.0	10.88	20.15
26/01/2020 16:52:06	26012020	260120	165206	99.930	12.236160	-56.357308	99.910	0.060	-0.490	0.190	99.910	-1.900	0.600																			1580057526.0	10.85	20.09
26/01/2020 16:52:07	26012020	260120	165207	99.880	12.236152	-56.357255	99.900	0.200	-0.390	0.060	99.880	-1.900	0.500																			1580057527.0	11.20	20.74
26/01/2020 16:52:08	26012020	260120	165208	99.860	12.236142	-56.357205	99.870	0.160	-0.040	0.030	99.860	-1.600	0.400																			1580057528.0	11.33	20.98
26/01/2020 16:52:09	26012020	260120	165209	99.830	12.236132	-56.357155	99.850	-0.000	0.220	0.140	99.820	-1.300	0.400																			1580057529.0	11.03	20.43
26/01/2020 16:52:10	26012020	260120	165210	99.810	12.236122	-56.357105	99.850	-0.090	0.080	0.280	99.810	-1.300	0.600																			1580057530.0	10.72	19.85
26/01/2020 16:52:11	26012020	260120	165211	99.800	12.236112	-56.357053	99.870	-0.070	-0.240	0.390	99.800	-1.600	0.700																			1580057531.0	10.80	20.00
26/01/2020 16:52:12	26012020	260120	165212	99.820	12.236100	-56.357000	99.920	-0.060	-0.300	0.510	99.830	-1.700	0.800																			1580057532.0	11.21	20.76
26/01/2020 16:52:13	26012020	260120	165213	99.880	12.236090	-56.356950	99.980	-0.090	-0.170	0.650	99.890	-1.600	1.000																			1580057533.0	11.31	20.95
26/01/2020 16:52:14	26012020	260120	165214	99.930	12.236080	-56.356900	100.020	-0.050	-0.250	0.790	99.940	-1.600	1.100																			1580057534.0	10.91	20.21
26/01/2020 16:52:15	26012020	260120	165215	99.960	12.236068	-56.356850	100.020	0.120	-0.550	0.860	99.970	-1.900	1.200																			1580057535.0	10.68	19.78
26/01/2020 16:52:16	26012020	260120	165216	99.970	12.236058	-56.356797	99.930	0.320	-0.680	0.810	99.950	-2.100	1.200																			1580057536.0	11.00	20.37
26/01/2020 16:52:17	26012020	260120	165217	99.860	12.236048	-56.356745	99.750	0.350	-0.400	0.750	99.820	-2.000	1.100																			1580057537.0	11.30	20.93
26/01/2020 16:52:18	26012020	260120	165218	99.690	12.236040	-56.356695	99.670	0.130	0.040	0.620	99.660	-1.500	1.000																			1580057538.0	11.14	20.63
26/01/2020 16:52:19	26012020	260120	165219	99.620	12.236033	-56.356647	99.710	-0.130	0.130	0.380	99.630	-1.300	0.800																			1580057539.0	10.73	19.87
26/01/2020 16:52:20	26012020	260120	165220	99.680	12.236027	-56.356595	99.760	-0.210	-0.250	0.240	99.690	-1.500	0.600																			1580057540.0	10.56	19.56
26/01/2020 16:52:21	26012020	260120	165221	99.710	12.236017	-56.356542	99.720	-0.120	-0.740	0.380	99.710	-2.000	0.700																			1580057541.0	10.96	20.30
26/01/2020 16:52:22	26012020	260120	165222	99.660	12.236005	-56.356488	99.610	-0.020	-0.830	0.690	99.640	-2.300	0.900																			1580057542.0	11.50	21.30
26/01/2020 16:52:23	26012020	260120	165223	99.550	12.235992	-56.356435	99.590	-0.130	-0.270	0.790	99.530	-1.900	1.100																			1580057543.0	11.66	21.59
26/01/2020 16:52:24	26012020	260120	165224	99.540	12.235982	-56.356387	99.740	-0.350	0.430	0.600	99.560	-1.200	1.000																			1580057544.0	11.29	20.91
26/01/2020 16:52:25	26012020	260120	165225	99.700	12.235972	-56.356340	99.930	-0.380	0.510	0.320	99.750	-0.800	0.800																			1580057545.0	10.52	19.48
26/01/2020 16:52:26	26012020	260120	165226	99.890	12.235963	-56.356288	100.040	-0.040	-0.130	0.060	99.920	-1.300	0.500																			1580057546.0	10.32	19.11
26/01/2020 16:52:27	26012020	260120	165227	100.000	12.235955	-56.356233	100.090	0.410	-0.740	-0.020	100.010	-2.000	0.400																			1580057547.0	10.99	20.35
26/01/2020 16:52:28	26012020	260120	165228	100.060	12.235947	-56.356180	100.170	0.550	-0.650	0.010	100.070	-2.200	0.400																			1580057548.0	11.71	21.69
26/01/2020 16:52:29	26012020	260120	165229	100.130	12.235938	-56.356130	100.230	0.260	-0.080	0.170	100.140	-1.700	0.500																			1580057549.0	11.60	21.48
26/01/2020 16:52:30	26012020	260120	165230	100.180	12.235928	-56.356082	100.300	-0.190	0.260	0.460	100.190	-1.500	0.500																			1580057550.0	10.75	19.91
26/01/2020 16:52:31	26012020	260120	165231	100.250	12.235918	-56.356033	100.330	-0.380	-0.090	0.670	100.260	-1.300	1.000																			1580057551.0	10.25	18.98
26/01/2020 16:52:32	26012020	260120	165232	100.270	12.235907	-56.355980	100.270	-0.150	-0.870	0.680	100.260	-2.000	1.100																			1580057552.0	10.53	19.50
26/01/2020 16:52:33	26012020	260120	165233	100.200	12.235897	-56.355925	100.150	0.230	-1.210	0.580	100.180	-2.600	1.000																			1580057553.0	11.35	21.02
26/01/2020 16:52:34	26012020	260120	165234	100.100	12.235887	-56.355872	100.110	0.340	-0.650	0.460	100.090	-2.400	0.900																			1580057554.0	11.87	21.98
26/01/2020 16:52:35	26012020	260120	165235	100.080	12.235877	-56.355823	100.160	0.060	0.220	0.260	100.090	-1.500	0.700																			1580057555.0	11.48	21.26
26/01/2020 16:52:36	26012020	260120	165236	100.140	12.235868	-56.355775	100.280	-0.330	0.620	0.100	100.160	-0.900	0.500																			1580057556.0	10.58	19.59
26/01/2020 16:52:37	26012020	260120	165237	100.270	12.235860	-56.355725	100.470	-0.560	0.470	0.080	100.310	-0.900	0.400																			1580057557.0	10.30	19.08
26/01/2020 16:52:38	26012020	260120	165238	100.450	12.235848	-56.355673	100.640	-0.470	-0.040	0.150	100.490	-1.200	0.500																			1580057558.0	10.76	19.93
26/01/2020 16:52:39	26012020	260120	165239	100.620	12.235837	-56.355622	100.740	-0.030	-0.730	0.210	100.650	-1.900	0.500																			1580057559.0	11.15	20.65
26/01/2020 16:52:40	26012020	260120	165240	100.720	12.235827	-56.355567	100.790	0.440	-1.040	0.270	100.730	-2.400	0.600																			1580057560.0	11.43	21.17
26/01/2020 16:52:41	26012020	260120	165241	100.760	12.235815	-56.355515	100.850	0.480	-0.550	0.270	100.760	-2.200	0.600																			1580057561.0	11.68	21.63
26/01/2020 16:52:42	26012020	260120	165242	100.790	12.235807	-56.355467	100.930	0.120	0.230	0.170	100.810	-2.000	0.600																			1580057562.0	11.29	20.91
26/01/2020 16:52:43	26012020	260120	165243	100.890	12.235798	-56.355420	100.950	-0.210	0.470	0.060	100.900	-0.900	0.500																			1580057563.0	10.40	19.26
26/01/2020 16:52:44	26012020	260120	165244	100.920	12.235788	-56.355370	100.870	-0.190	-0.070	0.020	100.920	-0.900	0.400																			1580057564.0	10.08	18.67
26/01/2020 16:52:45	26012020	260120	165245	100.820	12.235778	-56.355315	100.740	0.110	-0.900	0.010	100.790	-2.100	0.400																			1580057565.0	10.72	19.85
26/01/2020 16:52:46	26012020	260120	165246	100.700	12.235768	-56.355260	100.780	0.310	-1.100	-0.020	100.700	-2.600	0.400																			1580057566.0	11.56	21.41
26/01/2020 16:52:47	26012020	260120	165247	100.770	12.235758	-56.355208	100.960	0.080	-0.440	0.090	100.800	-2.200	0.400																			1580057567.0	11.91	22.06
26/01/2020 16:52:48	26012020	260120	165248	100.940	12.235747	-56.355162	101.100	-0.400	0.340	0.280	100.980	-1.300	0.600																			1580057568.0	11.24	20.82
26/01/2020 16:52:49	26012020	260120	165249	101.060	12.235735	-56.355113	101.140	-0.610	0.430	0.400	101.070	-0.900	0.700																			1580057569.0	10.32	19.11
26/01/2020 16:52:50	26012020	260120	165250	101.090	12.235723	-56.355063	101.110	-0.300	-0.150	0.390	101.090	-1.300	0.800																			1580057570.0	10.25	18.98
26/01/2020 16:52:51	26012020	260120	165251	101.050	12.235710	-56.355010	101.100	0.250	-0.780	0.210	101.040	-2.000	0.600																			1580057571.0	11.01	20.39
26/01/2020 16:52:52	26012020	260120	165252	101.050	12.235700	-56.354955	101.200	0.480	-0.660	-0.010	101.070	-2.200	0.400																			1580057572.0	11.75	21.76
26/01/2020 16:52:53	26012020	260120	165253	101.170	12.235692	-56.354905	101.340	0.210	0.140	-0.130	101.210	-1.600	0.300																			1580057573.0	11.77	21.80
26/01/2020 16:52:54	26012020	260120	165254	101.310	12.235682	-56.354858	101.330	-0.180	0.580	-0.150	101.310	-1.300	0.200																			1580057574.0	10.82	20.04
26/01/2020 16:52:55	26012020	260120	165255	101.300	12.235673	-56.354810	101.240	-0.190	0.060	-0.040	101.280	-1.100	0.300																			1580057575.0	10.00	18.52
26/01/2020 16:52:56	26012020	260120	165256	101.230	12.235662	-56.354757	101.240	0.100	-0.780	0.240	101.210	-1.400	0.300																			1580057576.0	10.42	19.30
26/01/2020 16:52:57	26012020	260120	165257	101.210	12.235650	-56.354702	101.330	0.260	-0.950	0.540	101.230	-2.400	0.800																			1580057577.0	11.51	21.32
26/01/2020 16:52:58	26012020	260120	165258	101.290	12.235637	-56.354652	101.320	0.110	-0.420	0.730	101.290	-2.100	1.000																			1580057578.0	11.77	21.80
26/01/2020 16:52:59	26012020	260120	165259	101.250	12.235625	-56.354605	101.140	-0.090	0.090	0.780	101.220	-1.500	1.100	1015.30	26.30	26.40	19.50	19.50	904.00	66.00	66.00	375.00	29.40	349.00	9.60	75.00	4.10	65970	3215.00	27.70	27.60	1580057579.0	11.02	20.41
26/01/2020 16:53:00	26012020	260120	165300	101.070	12.235613	-56.354557	100.990	-0.120	0.050	0.600	101.030	-1.300	1.000																			1580057580.0	10.30	19.08
26/01/2020 16:53:01	26012020	260120	165301	100.930	12.235603	-56.354505	100.940	-0.020	-0.300	0.280	100.910	-1.600	0.800																			1580057581.0	10.46	19.37
26/01/2020 16:53:02	26012020	260120	165302	100.910	12.235595	-56.354452	101.020	0.090	-0.580	0.010	100.920	-1.900	0.400																			1580057582.0	11.09	20.54
26/01/2020 16:53:03	26012020	260120	165303	101.000	12.235585	-56.354400	101.080	0.120	-0.600	-0.000	101.020	-2.000	0.300																			1580057583.0	11.38	21.08
26/01/2020 16:53:04	26012020	260120	165304	101.040	12.235573	-56.354348	101.080	0.020	-0.320	0.280	101.040	-1.900	0.500																			1580057584.0	11.30	20.93
26/01/2020 16:53:05	26012020	260120	165305	101.030	12.235562	-56.354298	101.180	-0.120	0.090	0.530	101.040	-1.500	0.800																			1580057585.0	11.06	20.48
26/01/2020 16:53:06	26012020	260120	165306	101.140	12.235550	-56.354250	101.350	-0.180	0.330	0.540	101.170	-1.100	0.900																			1580057586.0	10.79	19.98
26/01/2020 16:53:07	26012020	260120	165307	101.310	12.235538	-56.354202	101.470	-0.070	0.120	0.340	101.340	-1.200	0.800																			1580057587.0	10.60	19.63
26/01/2020 16:53:08	26012020	260120	165308	101.440	12.235528	-56.354150	101.510	0.160	-0.400	0.210	101.450	-1.600	0.600																			1580057588.0	10.72	19.85
26/01/2020 16:53:09	26012020	260120	165309	101.480	12.235518	-56.354097	101.580	0.350	-0.750	0.120	101.480	-2.100	0.500																			1580057589.0	11.16	20.67
26/01/2020 16:53:10	26012020	260120	165310	101.540	12.235507	-56.354043	101.620	0.270	-0.540	0.050	101.550	-2.100	0.400																			1580057590.0	11.48	21.26
26/01/2020 16:53:11	26012020	260120	165311	101.570	12.235498	-56.353995	101.600	-0.030	-0.060	0.130	101.580	-1.600	0.400																			1580057591.0	11.25	20.84
26/01/2020 16:53:12	26012020	260120	165312	101.560	12.235487	-56.353947	101.550	-0.250	0.110	0.340	101.550	-1.300	0.600																			1580057592.0	10.62	19.67
26/01/2020 16:53:13	26012020	260120	165313	101.490	12.235475	-56.353897	101.450	-0.170	-0.220	0.580	101.480	-1.500	0.900																			1580057593.0	10.38	19.22
26/01/2020 16:53:14	26012020	260120	165314	101.380	12.235462	-56.353845	101.260	0.080	-0.750	0.650	101.340	-2.000	1.000																			1580057594.0	10.75	19.91
26/01/2020 16:53:15	26012020	260120	165315	101.180	12.235450	-56.353792	101.070	0.240	-0.840	0.520	101.140	-2.300	0.900																			1580057595.0	11.36	21.04
26/01/2020 16:53:16	26012020	260120	165316	101.010	12.235440	-56.353740	101.010	0.140	-0.320	0.360	100.990	-2.000	0.800																			1580057596.0	11.60	21.48
26/01/2020 16:53:17	26012020	260120	165317	100.960	12.235432	-56.353692	101.030	-0.140	0.250	0.250	100.960	-1.300	0.600																			1580057597.0	11.17	20.69
26/01/2020 16:53:18	26012020	260120	165318	100.980	12.235420	-56.353643	101.090	-0.250	0.240	0.220	100.990	-1.200	0.600																			1580057598.0	10.53	19.50
26/01/2020 16:53:19	26012020	260120	165319	101.060	12.235408	-56.353592	101.190	-0.040	-0.260	0.200	101.080	-1.500	0.600																			1580057599.0	10.51	19.46
26/01/2020 16:53:20	26012020	260120	165320	101.170	12.235397	-56.353537	101.410	0.190	-0.430	0.170	101.210	-1.900	0.500																			1580057600.0	11.18	20.71
26/01/2020 16:53:21	26012020	260120	165321	101.400	12.235385	-56.353487	101.690	0.130	0.000	0.230	101.450	-1.600	0.600																			1580057601.0	11.66	21.59
26/01/2020 16:53:22	26012020	260120	165322	101.670	12.235373	-56.353438	101.820	-0.080	0.310	0.350	101.710	-1.100	0.700																			1580057602.0	11.12	20.59
26/01/2020 16:53:23	26012020	260120	165323	101.770	12.235363	-56.353390	101.680	-0.070	-0.090	0.540	101.760	-1.300	0.800																			1580057603.0	10.33	19.13
26/01/2020 16:53:24	26012020	260120	165324	101.610	12.235352	-56.353338	101.410	0.150	-0.770	0.680	101.560	-2.000	1.000																			1580057604.0	10.46	19.37
26/01/2020 16:53:25	26012020	260120	165325	101.330	12.235342	-56.353285	101.170	0.270	-0.990	0.720	101.280	-2.400	1.100																			1580057605.0	11.26	20.85
26/01/2020 16:53:26	26012020	260120	165326	101.100	12.235332	-56.353233	101.050	0.100	-0.650	0.630	101.070	-2.200	1.000																			1580057606.0	11.57	21.43
26/01/2020 16:53:27	26012020	260120	165327	100.990	12.235322	-56.353185	101.030	-0.170	-0.290	0.510	100.990	-1.800	0.900																			1580057607.0	11.11	20.58
26/01/2020 16:53:28	26012020	260120	165328	100.970	12.235310	-56.353135	101.030	-0.270	-0.150	0.490	100.970	-1.600	0.900																			1580057608.0	10.64	19.71
26/01/2020 16:53:29	26012020	260120	165329	100.970	12.235297	-56.353083	101.050	-0.210	-0.020	0.350	100.980	-1.500	0.800																			1580057609.0	10.80	20.00
26/01/2020 16:53:30	26012020	260120	165330	101.000	12.235285	-56.353033	101.110	-0.120	0.100	0.170	101.010	-1.300	0.600																			1580057610.0	11.11	20.58
26/01/2020 16:53:31	26012020	260120	165331	101.060	12.235275	-56.352982	101.210	-0.010	0.060	0.150	101.080	-1.300	0.500																			1580057611.0	11.06	20.48
26/01/2020 16:53:32	26012020	260120	165332	101.160	12.235263	-56.352930	101.270	0.080	-0.130	0.140	101.170	-1.500	0.500																			1580057612.0	11.00	20.37
26/01/2020 16:53:33	26012020	260120	165333	101.220	12.235253	-56.352878	101.270	0.140	-0.330	0.100	101.230	-1.700	0.500																			1580057613.0	11.08	20.52
26/01/2020 16:53:34	26012020	260120	165334	101.220	12.235245	-56.352827	101.260	0.160	-0.440	0.250	101.220	-1.800	0.500																			1580057614.0	11.15	20.65
26/01/2020 16:53:35	26012020	260120	165335	101.200	12.235233	-56.352777	101.280	0.060	-0.350	0.610	101.200	-1.800	0.800																			1580057615.0	11.12	20.59
26/01/2020 16:53:36	26012020	260120	165336	101.210	12.235220	-56.352727	101.240	-0.160	-0.190	0.900	101.210	-1.600	1.200																			1580057616.0	11.06	20.48
26/01/2020 16:53:37	26012020	260120	165337	101.160	12.235208	-56.352677	101.080	-0.300	-0.190	0.950	101.130	-1.600	1.300																			1580057617.0	10.82	20.04
26/01/2020 16:53:38	26012020	260120	165338	100.980	12.235197	-56.352627	100.850	-0.220	-0.260	0.850	100.930	-1.600	1.300																			1580057618.0	10.96	20.30
26/01/2020 16:53:39	26012020	260120	165339	100.760	12.235185	-56.352575	100.670	0.040	-0.470	0.660	100.720	-1.800	1.100																			1580057619.0	10.96	20.30
26/01/2020 16:53:40	26012020	260120	165340	100.590	12.235175	-56.352523	100.560	0.300	-0.650	0.360	100.560	-2.000	0.800																			1580057620.0	11.07	20.50
26/01/2020 16:53:41	26012020	260120	165341	100.500	12.235167	-56.352470	100.560	0.310	-0.390	0.090	100.500	-1.900	0.500																			1580057621.0	11.34	21.00
26/01/2020 16:53:42	26012020	260120	165342	100.510	12.235157	-56.352420	100.670	0.070	0.130	0.000	100.530	-1.400	0.400																			1580057622.0	11.33	20.98
26/01/2020 16:53:43	26012020	260120	165343	100.640	12.235148	-56.352372	100.870	-0.200	0.370	0.100	100.680	-1.100	0.400																			1580057623.0	10.81	20.02
26/01/2020 16:53:44	26012020	260120	165344	100.810	12.235137	-56.352322	100.920	-0.260	0.010	0.420	100.830	-1.000	0.500																			1580057624.0	10.49	19.43
26/01/2020 16:53:45	26012020	260120	165345	100.860	12.235123	-56.352270	100.790	-0.060	-0.670	0.780	100.840	-1.800	1.000																			1580057625.0	10.76	19.93
26/01/2020 16:53:46	26012020	260120	165346	100.720	12.235110	-56.352217	100.640	0.180	-0.980	0.920	100.680	-2.400	1.300																			1580057626.0	11.38	21.08
26/01/2020 16:53:47	26012020	260120	165347	100.570	12.235100	-56.352163	100.580	0.170	-0.550	0.830	100.550	-2.200	1.200																			1580057627.0	11.73	21.72
26/01/2020 16:53:48	26012020	260120	165348	100.530	12.235090	-56.352115	100.610	-0.060	0.120	0.600	100.540	-1.500	1.000																			1580057628.0	11.30	20.93
26/01/2020 16:53:49	26012020	260120	165349	100.570	12.235082	-56.352067	100.600	-0.250	0.290	0.420	100.570	-1.100	0.800																			1580057629.0	10.53	19.50
26/01/2020 16:53:50	26012020	260120	165350	100.550	12.235072	-56.352017	100.530	-0.230	-0.070	0.370	100.540	-1.300	0.700																			1580057630.0	10.35	19.17
26/01/2020 16:53:51	26012020	260120	165351	100.480	12.235060	-56.351963	100.520	-0.070	-0.450	0.420	100.480	-1.800	0.800																			1580057631.0	10.95	20.28
26/01/2020 16:53:52	26012020	260120	165352	100.480	12.235050	-56.351910	100.620	0.060	-0.470	0.430	100.490	-1.900	0.800																			1580057632.0	11.45	21.21
26/01/2020 16:53:53	26012020	260120	165353	100.590	12.235038	-56.351860	100.760	0.060	-0.240	0.460	100.620	-1.700	0.800																			1580057633.0	11.41	21.13
26/01/2020 16:53:54	26012020	260120	165354	100.720	12.235028	-56.351810	100.790	-0.010	-0.110	0.590	100.730	-1.500	0.900																			1580057634.0	10.98	20.33
26/01/2020 16:53:55	26012020	260120	165355	100.740	12.235018	-56.351760	100.720	0.020	-0.190	0.720	100.730	-1.500	1.000																			1580057635.0	10.73	19.87
26/01/2020 16:53:56	26012020	260120	165356	100.670	12.235007	-56.351708	100.680	0.190	-0.460	0.730	100.660	-1.800	1.100																			1580057636.0	10.86	20.11
26/01/2020 16:53:57	26012020	260120	165357	100.650	12.234997	-56.351655	100.690	0.340	-0.660	0.570	100.650	-2.000	1.000																			1580057637.0	11.12	20.59
26/01/2020 16:53:58	26012020	260120	165358	100.670	12.234988	-56.351603	100.660	0.250	-0.490	0.410	100.660	-2.000	0.800																			1580057638.0	11.37	21.06
26/01/2020 16:53:59	26012020	260120	165359	100.640	12.234978	-56.351552	100.630	-0.080	-0.020	0.450	100.630	-1.600	0.800	1015.20	26.30	26.40	19.60	19.70	903.00	66.00	66.00	375.00	29.40	351.00	10.00	80.00	4.50	65788	3410.00	27.70	27.60	1580057639.0	11.31	20.95
26/01/2020 16:54:00	26012020	260120	165400	100.600	12.234968	-56.351503	100.590	-0.380	0.270	0.620	100.600	-1.200	0.900																			1580057640.0	10.89	20.17
26/01/2020 16:54:01	26012020	260120	165401	100.550	12.234957	-56.351453	100.500	-0.420	0.100	0.660	100.530	-1.200	1.000																			1580057641.0	10.54	19.52
26/01/2020 16:54:02	26012020	260120	165402	100.450	12.234945	-56.351402	100.420	-0.310	-0.220	0.510	100.440	-1.500	0.900																			1580057642.0	10.79	19.98
26/01/2020 16:54:03	26012020	260120	165403	100.380	12.234935	-56.351350	100.390	-0.180	-0.430	0.410	100.380	-1.800	0.800																			1580057643.0	11.25	20.84
26/01/2020 16:54:04	26012020	260120	165404	100.360	12.234923	-56.351298	100.340	-0.030	-0.510	0.380	100.350	-1.900	0.700																			1580057644.0	11.33	20.98
26/01/2020 16:54:05	26012020	260120	165405	100.290	12.234913	-56.351247	100.230	0.190	-0.560	0.350	100.270	-1.900	0.700																			1580057645.0	11.14	20.63
26/01/2020 16:54:06	26012020	260120	165406	100.180	12.234903	-56.351195	100.200	0.400	-0.500	0.240	100.170	-1.900	0.600																			1580057646.0	11.08	20.52
26/01/2020 16:54:07	26012020	260120	165407	100.170	12.234895	-56.351143	100.310	0.420	-0.170	0.060	100.180	-1.700	0.500																			1580057647.0	11.16	20.67
26/01/2020 16:54:08	26012020	260120	165408	100.290	12.234887	-56.351093	100.470	0.220	0.210	-0.080	100.320	-1.300	0.300																			1580057648.0	11.09	20.54
26/01/2020 16:54:09	26012020	260120	165409	100.450	12.234878	-56.351043	100.560	0.030	0.080	0.020	100.480	-1.200	0.300																			1580057649.0	10.72	19.85
26/01/2020 16:54:10	26012020	260120	165410	100.510	12.234868	-56.350992	100.480	0.060	-0.490	0.330	100.510	-1.700	0.600																			1580057650.0	10.62	19.67
26/01/2020 16:54:11	26012020	260120	165411	100.420	12.234857	-56.350938	100.260	0.110	-0.830	0.650	100.370	-2.200	0.900																			1580057651.0	11.17	20.69
26/01/2020 16:54:12	26012020	260120	165412	100.180	12.234845	-56.350885	100.070	-0.100	-0.550	0.950	100.140	-2.100	1.200																			1580057652.0	11.68	21.63
26/01/2020 16:54:13	26012020	260120	165413	99.990	12.234833	-56.350837	100.010	-0.530	0.030	1.110	99.980	-1.600	1.400																			1580057653.0	11.41	21.13
26/01/2020 16:54:14	26012020	260120	165414	99.940	12.234822	-56.350788	99.990	-0.820	0.240	0.980	99.930	-1.200	1.400																			1580057654.0	10.72	19.85
26/01/2020 16:54:15	26012020	260120	165415	99.900	12.234810	-56.350738	99.830	-0.640	-0.160	0.860	99.880	-1.400	1.200																			1580057655.0	10.47	19.39
26/01/2020 16:54:16	26012020	260120	165416	99.730	12.234798	-56.350683	99.640	-0.100	-0.630	0.740	99.690	-1.900	1.200																			1580057656.0	10.94	20.26
26/01/2020 16:54:17	26012020	260120	165417	99.560	12.234787	-56.350630	99.650	0.430	-0.530	0.420	99.550	-2.100	0.900																			1580057657.0	11.65	21.58
26/01/2020 16:54:18	26012020	260120	165418	99.600	12.234778	-56.350578	99.860	0.630	0.050	-0.050	99.630	-1.600	0.500																			1580057658.0	11.70	21.67
26/01/2020 16:54:19	26012020	260120	165419	99.830	12.234773	-56.350530	100.160	0.540	0.420	-0.500	99.900	-1.100	0.000																			1580057659.0	11.02	20.41
26/01/2020 16:54:20	26012020	260120	165420	100.140	12.234767	-56.350480	100.390	0.380	0.190	-0.520	100.200	-1.100	-0.200																			1580057660.0	10.42	19.30
26/01/2020 16:54:21	26012020	260120	165421	100.360	12.234758	-56.350428	100.480	0.300	-0.370	-0.040	100.390	-1.600	0.100																			1580057661.0	10.60	19.63
26/01/2020 16:54:22	26012020	260120	165422	100.420	12.234748	-56.350375	100.410	0.190	-0.730	0.570	100.410	-2.000	0.700																			1580057662.0	11.13	20.61
26/01/2020 16:54:23	26012020	260120	165423	100.330	12.234735	-56.350323	100.270	-0.050	-0.750	1.000	100.310	-2.200	1.200																			1580057663.0	11.39	21.09
26/01/2020 16:54:24	26012020	260120	165424	100.170	12.234723	-56.350273	100.130	-0.390	-0.590	1.160	100.140	-2.000	1.500																			1580057664.0	11.17	20.69
26/01/2020 16:54:25	26012020	260120	165425	100.030	12.234712	-56.350225	100.040	-0.600	-0.510	1.100	100.010	-1.900	1.500																			1580057665.0	10.87	20.13
26/01/2020 16:54:26	26012020	260120	165426	99.930	12.234700	-56.350173	99.880	-0.540	-0.450	0.880	99.900	-1.900	1.300																			1580057666.0	10.83	20.06
26/01/2020 16:54:27	26012020	260120	165427	99.770	12.234690	-56.350122	99.690	-0.300	-0.320	0.620	99.730	-1.800	1.100																			1580057667.0	11.07	20.50
26/01/2020 16:54:28	26012020	260120	165428	99.600	12.234680	-56.350070	99.660	0.020	-0.210	0.320	99.580	-1.600	0.800																			1580057668.0	11.22	20.78
26/01/2020 16:54:29	26012020	260120	165429	99.600	12.234672	-56.350017	99.890	0.290	-0.110	-0.020	99.640	-1.600	0.500																			1580057669.0	11.21	20.76
26/01/2020 16:54:30	26012020	260120	165430	99.860	12.234663	-56.349963	100.130	0.310	0.160	-0.270	99.920	-1.400	0.200																			1580057670.0	11.29	20.91
26/01/2020 16:54:31	26012020	260120	165431	100.100	12.234655	-56.349913	100.240	0.130	0.400	-0.250	100.130	-1.100	0.000																			1580057671.0	11.25	20.84
26/01/2020 16:54:32	26012020	260120	165432	100.200	12.234647	-56.349863	100.300	0.070	0.280	0.120	100.210	-1.000	0.300																			1580057672.0	10.89	20.17
26/01/2020 16:54:33	26012020	260120	165433	100.250	12.234635	-56.349812	100.380	0.180	-0.140	0.450	100.260	-1.400	0.700																			1580057673.0	10.77	19.95
26/01/2020 16:54:34	26012020	260120	165434	100.320	12.234625	-56.349760	100.460	0.200	-0.400	0.510	100.340	-1.800	0.900																			1580057674.0	11.09	20.54
26/01/2020 16:54:35	26012020	260120	165435	100.400	12.234615	-56.349708	100.520	-0.000	-0.370	0.470	100.410	-1.800	0.800																			1580057675.0	11.30	20.93
26/01/2020 16:54:36	26012020	260120	165436	100.460	12.234605	-56.349658	100.600	-0.310	-0.250	0.480	100.480	-1.700	0.800																			1580057676.0	11.02	20.41
26/01/2020 16:54:37	26012020	260120	165437	100.540	12.234595	-56.349610	100.640	-0.440	-0.350	0.450	100.550	-1.700	0.800																			1580057677.0	10.65	19.72
26/01/2020 16:54:38	26012020	260120	165438	100.570	12.234583	-56.349560	100.570	-0.180	-0.730	0.260	100.560	-2.000	0.700																			1580057678.0	10.58	19.59
26/01/2020 16:54:39	26012020	260120	165439	100.490	12.234573	-56.349507	100.370	0.340	-1.050	0.080	100.460	-2.400	0.500																			1580057679.0	10.90	20.19
26/01/2020 16:54:40	26012020	260120	165440	100.290	12.234563	-56.349453	100.140	0.690	-0.910	0.040	100.240	-2.400	0.400																			1580057680.0	11.37	21.06
26/01/2020 16:54:41	26012020	260120	165441	100.060	12.234555	-56.349402	100.030	0.610	-0.410	-0.030	100.030	-2.000	0.400																			1580057681.0	11.44	21.19
26/01/2020 16:54:42	26012020	260120	165442	99.970	12.234548	-56.349352	100.020	0.230	0.030	0.030	99.950	-1.500	0.300																			1580057682.0	11.09	20.54
26/01/2020 16:54:43	26012020	260120	165443	99.950	12.234538	-56.349300	100.070	-0.220	0.230	0.280	99.970	-1.200	0.500																			1580057683.0	10.82	20.04
26/01/2020 16:54:44	26012020	260120	165444	100.020	12.234528	-56.349248	100.210	-0.560	0.250	0.610	100.040	-1.100	0.900																			1580057684.0	10.96	20.30
26/01/2020 16:54:45	26012020	260120	165445	100.150	12.234515	-56.349197	100.400	-0.690	0.220	0.820	100.180	-1.200	1.100																			1580057685.0	11.20	20.74
26/01/2020 16:54:46	26012020	260120	165446	100.330	12.234503	-56.349147	100.650	-0.630	0.110	0.770	100.380	-1.200	1.200																			1580057686.0	11.27	20.87
26/01/2020 16:54:47	26012020	260120	165447	100.590	12.234490	-56.349095	100.940	-0.410	-0.010	0.490	100.650	-1.400	0.900																			1580057687.0	11.18	20.71
26/01/2020 16:54:48	26012020	260120	165448	100.890	12.234480	-56.349043	101.150	-0.100	-0.210	0.180	100.940	-1.500	0.600																			1580057688.0	11.11	20.58
26/01/2020 16:54:49	26012020	260120	165449	101.100	12.234472	-56.348993	101.170	0.210	-0.460	-0.050	101.110	-1.800	0.400																			1580057689.0	11.00	20.37
26/01/2020 16:54:50	26012020	260120	165450	101.100	12.234462	-56.348942	101.060	0.400	-0.500	-0.200	101.080	-1.900	0.200																			1580057690.0	11.05	20.46
26/01/2020 16:54:51	26012020	260120	165451	100.990	12.234453	-56.348890	100.990	0.470	-0.380	-0.260	100.970	-1.800	0.100																			1580057691.0	11.09	20.54
26/01/2020 16:54:52	26012020	260120	165452	100.930	12.234445	-56.348840	101.030	0.560	-0.420	-0.300	100.930	-1.800	0.100																			1580057692.0	10.82	20.04
26/01/2020 16:54:53	26012020	260120	165453	100.980	12.234437	-56.348790	101.080	0.660	-0.640	-0.220	101.000	-1.900	0.100																			1580057693.0	10.72	19.85
26/01/2020 16:54:54	26012020	260120	165454	101.020	12.234427	-56.348737	100.980	0.630	-0.750	0.070	101.010	-2.100	0.300																			1580057694.0	11.02	20.41
26/01/2020 16:54:55	26012020	260120	165455	100.910	12.234415	-56.348685	100.840	0.320	-0.430	0.360	100.880	-2.000	0.600																			1580057695.0	11.33	20.98
26/01/2020 16:54:56	26012020	260120	165456	100.760	12.234405	-56.348635	100.740	-0.170	0.120	0.530	100.730	-1.400	0.800																			1580057696.0	11.28	20.89
26/01/2020 16:54:57	26012020	260120	165457	100.660	12.234395	-56.348585	100.740	-0.570	0.270	0.470	100.660	-1.100	0.900																			1580057697.0	10.81	20.02
26/01/2020 16:54:58	26012020	260120	165458	100.670	12.234385	-56.348533	100.860	-0.670	-0.190	0.320	100.680	-1.100	0.800																			1580057698.0	10.61	19.65
26/01/2020 16:54:59	26012020	260120	165459	100.820	12.234373	-56.348480	101.040	-0.630	-0.610	0.410	100.860	-1.900	0.700	1015.20	26.30	26.40	19.60	19.60	905.00	66.00	66.00	375.00	29.40	354.00	9.60	86.00	3.90	65866	3136.00	27.70	27.60	1580057699.0	11.09	20.54
26/01/2020 16:55:00	26012020	260120	165500	100.990	12.234360	-56.348427	101.180	-0.690	-0.360	0.600	101.020	-1.900	0.900																			1580057700.0	11.78	21.82
26/01/2020 16:55:01	26012020	260120	165501	101.120	12.234345	-56.348378	101.210	-0.700	0.210	0.660	101.140	-1.400	1.000																			1580057701.0	11.62	21.52
26/01/2020 16:55:02	26012020	260120	165502	101.140	12.234332	-56.348330	101.150	-0.320	0.260	0.410	101.120	-1.000	0.900																			1580057702.0	10.77	19.95
26/01/2020 16:55:03	26012020	260120	165503	101.090	12.234322	-56.348280	101.150	0.420	-0.350	-0.130	101.080	-1.500	0.400																			1580057703.0	10.39	19.24
26/01/2020 16:55:04	26012020	260120	165504	101.110	12.234315	-56.348223	101.240	1.020	-0.810	-0.610	101.130	-2.100	-0.100																			1580057704.0	11.03	20.43
26/01/2020 16:55:05	26012020	260120	165505	101.210	12.234308	-56.348170	101.330	1.050	-0.450	-0.730	101.230	-2.100	-0.400																			1580057705.0	11.78	21.82
26/01/2020 16:55:06	26012020	260120	165506	101.310	12.234300	-56.348120	101.410	0.540	0.320	-0.450	101.330	-1.300	-0.200																			1580057706.0	11.53	21.35
26/01/2020 16:55:07	26012020	260120	165507	101.380	12.234292	-56.348075	101.420	-0.020	0.510	0.020	101.390	-0.800	0.200																			1580057707.0	10.51	19.46
26/01/2020 16:55:08	26012020	260120	165508	101.370	12.234280	-56.348025	101.350	-0.230	-0.180	0.340	101.350	-1.300	0.600																			1580057708.0	10.02	18.56
26/01/2020 16:55:09	26012020	260120	165509	101.280	12.234268	-56.347972	101.280	-0.110	-0.990	0.530	101.270	-2.100	0.800																			1580057709.0	10.68	19.78
26/01/2020 16:55:10	26012020	260120	165510	101.220	12.234255	-56.347917	101.250	-0.050	-1.110	0.730	101.220	-2.400	0.900																			1580057710.0	11.64	21.56
26/01/2020 16:55:11	26012020	260120	165511	101.180	12.234242	-56.347867	101.190	-0.240	-0.600	0.820	101.170	-2.200	1.100																			1580057711.0	11.75	21.76
26/01/2020 16:55:12	26012020	260120	165512	101.120	12.234230	-56.347818	101.070	-0.530	-0.030	0.730	101.100	-1.600	1.100																			1580057712.0	11.09	20.54
26/01/2020 16:55:13	26012020	260120	165513	101.000	12.234218	-56.347770	100.970	-0.580	0.080	0.480	100.980	-1.300	0.900																			1580057713.0	10.51	19.46
26/01/2020 16:55:14	26012020	260120	165514	100.930	12.234207	-56.347720	101.030	-0.260	-0.220	0.050	100.930	-1.500	0.500																			1580057714.0	10.54	19.52
26/01/2020 16:55:15	26012020	260120	165515	101.010	12.234197	-56.347665	101.160	0.180	-0.390	-0.280	101.040	-1.800	0.100																			1580057715.0	11.11	20.58
26/01/2020 16:55:16	26012020	260120	165516	101.140	12.234187	-56.347613	101.200	0.420	-0.170	-0.280	101.160	-1.700	0.000																			1580057716.0	11.56	21.41
26/01/2020 16:55:17	26012020	260120	165517	101.180	12.234177	-56.347563	101.210	0.430	0.160	-0.110	101.170	-1.300	0.200																			1580057717.0	11.32	20.96
26/01/2020 16:55:18	26012020	260120	165518	101.180	12.234167	-56.347513	101.310	0.360	0.170	-0.070	101.190	-1.200	0.300																			1580057718.0	10.80	20.00
26/01/2020 16:55:19	26012020	260120	165519	101.290	12.234158	-56.347462	101.490	0.250	-0.060	-0.120	101.320	-1.400	0.300																			1580057719.0	10.67	19.76
26/01/2020 16:55:20	26012020	260120	165520	101.470	12.234148	-56.347410	101.630	0.020	-0.200	-0.060	101.510	-1.600	0.300																			1580057720.0	10.97	20.32
26/01/2020 16:55:21	26012020	260120	165521	101.600	12.234138	-56.347360	101.660	-0.260	-0.270	0.140	101.620	-1.600	0.400																			1580057721.0	11.12	20.59
26/01/2020 16:55:22	26012020	260120	165522	101.620	12.234127	-56.347310	101.550	-0.300	-0.610	0.470	101.620	-1.700	0.500																			1580057722.0	10.89	20.17
26/01/2020 16:55:23	26012020	260120	165523	101.490	12.234113	-56.347260	101.340	-0.090	-1.040	0.750	101.440	-2.300	1.000																			1580057723.0	10.78	19.96
26/01/2020 16:55:24	26012020	260120	165524	101.270	12.234100	-56.347207	101.190	0.040	-0.960	0.790	101.240	-2.400	1.100																			1580057724.0	11.28	20.89
26/01/2020 16:55:25	26012020	260120	165525	101.140	12.234087	-56.347157	101.140	-0.150	-0.260	0.580	101.120	-1.900	1.000																			1580057725.0	11.53	21.35
26/01/2020 16:55:26	26012020	260120	165526	101.080	12.234077	-56.347108	101.100	-0.410	0.410	0.250	101.070	-1.200	0.700																			1580057726.0	11.03	20.43
26/01/2020 16:55:27	26012020	260120	165527	101.050	12.234067	-56.347060	101.080	-0.280	0.320	-0.060	101.050	-0.900	0.400																			1580057727.0	10.37	19.21
26/01/2020 16:55:28	26012020	260120	165528	101.050	12.234057	-56.347007	101.110	0.230	-0.280	-0.240	101.050	-1.500	0.200																			1580057728.0	10.45	19.35
26/01/2020 16:55:29	26012020	260120	165529	101.070	12.234047	-56.346952	101.260	0.560	-0.380	-0.380	101.100	-1.800	0.000																			1580057729.0	11.34	21.00
26/01/2020 16:55:30	26012020	260120	165530	101.250	12.234037	-56.346900	101.540	0.400	0.150	-0.250	101.290	-1.400	0.000																			1580057730.0	11.84	21.93
26/01/2020 16:55:31	26012020	260120	165531	101.530	12.234028	-56.346853	101.800	0.040	0.440	0.120	101.590	-1.000	0.300																			1580057731.0	11.04	20.45
26/01/2020 16:55:32	26012020	260120	165532	101.760	12.234017	-56.346805	101.870	-0.080	-0.080	0.470	101.780	-1.200	0.700																			1580057732.0	10.19	18.87
26/01/2020 16:55:33	26012020	260120	165533	101.800	12.234003	-56.346753	101.750	0.060	-0.860	0.750	101.780	-2.000	1.000																			1580057733.0	10.43	19.32
26/01/2020 16:55:34	26012020	260120	165534	101.670	12.233992	-56.346700	101.530	0.180	-1.160	0.930	101.630	-2.500	1.200																			1580057734.0	11.33	20.98
26/01/2020 16:55:35	26012020	260120	165535	101.440	12.233980	-56.346650	101.250	0.120	-0.900	0.930	101.380	-2.400	1.300																			1580057735.0	11.58	21.45
26/01/2020 16:55:36	26012020	260120	165536	101.150	12.233968	-56.346600	101.020	-0.150	-0.420	0.800	101.100	-2.000	1.200																			1580057736.0	11.13	20.61
26/01/2020 16:55:37	26012020	260120	165537	100.950	12.233958	-56.346550	100.940	-0.480	-0.060	0.570	100.930	-1.500	1.000																			1580057737.0	10.74	19.89
26/01/2020 16:55:38	26012020	260120	165538	100.880	12.233947	-56.346500	100.950	-0.640	0.140	0.380	100.880	-1.300	0.800																			1580057738.0	10.67	19.76
26/01/2020 16:55:39	26012020	260120	165539	100.900	12.233935	-56.346450	101.040	-0.540	0.310	0.200	100.910	-1.100	0.600																			1580057739.0	10.87	20.13
26/01/2020 16:55:40	26012020	260120	165540	101.000	12.233922	-56.346400	101.140	-0.190	0.230	-0.000	101.030	-1.100	0.400																			1580057740.0	11.01	20.39
26/01/2020 16:55:41	26012020	260120	165541	101.090	12.233912	-56.346348	101.210	0.300	-0.160	-0.180	101.110	-1.400	0.200																			1580057741.0	10.93	20.24
26/01/2020 16:55:42	26012020	260120	165542	101.170	12.233902	-56.346295	101.310	0.620	-0.440	-0.250	101.190	-1.800	0.100																			1580057742.0	11.14	20.63
26/01/2020 16:55:43	26012020	260120	165543	101.280	12.233893	-56.346243	101.420	0.610	-0.360	-0.090	101.300	-1.800	0.200																			1580057743.0	11.41	21.13
26/01/2020 16:55:44	26012020	260120	165544	101.380	12.233883	-56.346193	101.470	0.380	-0.130	0.200	101.390	-1.600	0.400																			1580057744.0	11.16	20.67
26/01/2020 16:55:45	26012020	260120	165545	101.420	12.233873	-56.346145	101.450	0.090	-0.080	0.540	101.410	-1.400	0.800																			1580057745.0	10.67	19.76
26/01/2020 16:55:46	26012020	260120	165546	101.380	12.233862	-56.346095	101.370	-0.120	-0.280	0.840	101.360	-1.600	1.100																			1580057746.0	10.52	19.48
26/01/2020 16:55:47	26012020	260120	165547	101.290	12.233848	-56.346045	101.220	-0.170	-0.650	0.880	101.260	-1.900	1.200																			1580057747.0	10.74	19.89
26/01/2020 16:55:48	26012020	260120	165548	101.130	12.233838	-56.345993	100.940	-0.040	-0.980	0.820	101.080	-2.300	1.200																			1580057748.0	11.05	20.46
26/01/2020 16:55:49	26012020	260120	165549	100.850	12.233827	-56.345940	100.660	0.080	-0.960	0.820	100.790	-2.400	1.200																			1580057749.0	11.29	20.91
26/01/2020 16:55:50	26012020	260120	165550	100.570	12.233815	-56.345888	100.550	-0.050	-0.400	0.690	100.540	-2.000	1.100																			1580057750.0	11.42	21.15
26/01/2020 16:55:51	26012020	260120	165551	100.500	12.233805	-56.345838	100.650	-0.420	0.340	0.570	100.510	-1.300	0.900																			1580057751.0	11.20	20.74
26/01/2020 16:55:52	26012020	260120	165552	100.600	12.233793	-56.345792	100.780	-0.750	0.670	0.440	100.630	-0.800	0.800																			1580057752.0	10.67	19.76
26/01/2020 16:55:53	26012020	260120	165553	100.730	12.233782	-56.345742	100.870	-0.690	0.390	0.290	100.750	-0.800	0.700																			1580057753.0	10.47	19.39
26/01/2020 16:55:54	26012020	260120	165554	100.820	12.233770	-56.345688	100.940	-0.170	-0.210	0.150	100.840	-1.400	0.500																			1580057754.0	10.82	20.04
26/01/2020 16:55:55	26012020	260120	165555	100.900	12.233758	-56.345635	101.000	0.480	-0.570	0.010	100.910	-1.900	0.400																			1580057755.0	11.36	21.04
26/01/2020 16:55:56	26012020	260120	165556	100.950	12.233748	-56.345583	101.030	0.830	-0.500	-0.170	100.970	-1.900	0.200																			1580057756.0	11.58	21.45
26/01/2020 16:55:57	26012020	260120	165557	100.990	12.233740	-56.345533	101.030	0.730	-0.220	-0.220	100.990	-1.700	0.100																			1580057757.0	11.25	20.84
26/01/2020 16:55:58	26012020	260120	165558	100.990	12.233733	-56.345483	101.010	0.380	-0.010	-0.090	100.980	-1.400	0.200																			1580057758.0	10.78	19.96
26/01/2020 16:55:59	26012020	260120	165559	100.970	12.233725	-56.345433	101.030	0.050	-0.110	0.180	100.970	-1.400	0.400	1015.20	26.30	26.40	19.60	19.60	902.00	66.00	66.00	375.00	29.40	355.00	9.70	89.00	4.10	65674	3153.00	27.70	27.60	1580057759.0	10.54	19.52
26/01/2020 16:56:00	26012020	260120	165600	100.980	12.233715	-56.345383	101.030	-0.140	-0.480	0.540	100.980	-1.700	0.800																			1580057760.0	10.61	19.65
26/01/2020 16:56:01	26012020	260120	165601	100.980	12.233702	-56.345332	100.980	-0.230	-0.750	0.920	100.970	-2.100	1.100																			1580057761.0	10.99	20.35
26/01/2020 16:56:02	26012020	260120	165602	100.900	12.233688	-56.345280	100.790	-0.270	-0.810	1.200	100.870	-2.200	1.500																			1580057762.0	11.29	20.91
26/01/2020 16:56:03	26012020	260120	165603	100.690	12.233673	-56.345230	100.460	-0.250	-0.710	1.250	100.630	-2.100	1.600																			1580057763.0	11.27	20.87
26/01/2020 16:56:04	26012020	260120	165604	100.350	12.233662	-56.345178	100.200	-0.220	-0.450	0.910	100.290	-1.900	1.400																			1580057764.0	11.17	20.69
26/01/2020 16:56:05	26012020	260120	165605	100.110	12.233653	-56.345127	100.170	-0.250	0.030	0.410	100.090	-1.500	0.900																			1580057765.0	11.15	20.65
26/01/2020 16:56:06	26012020	260120	165606	100.110	12.233645	-56.345077	100.280	-0.330	0.460	0.040	100.140	-1.000	0.500																			1580057766.0	11.06	20.48
26/01/2020 16:56:07	26012020	260120	165607	100.230	12.233635	-56.345027	100.350	-0.280	0.400	-0.050	100.250	-0.900	0.300																			1580057767.0	10.80	20.00
26/01/2020 16:56:08	26012020	260120	165608	100.290	12.233625	-56.344975	100.420	-0.030	-0.010	-0.010	100.310	-1.200	0.300																			1580057768.0	10.78	19.96
26/01/2020 16:56:09	26012020	260120	165609	100.360	12.233613	-56.344922	100.580	0.300	-0.290	0.040	100.390	-1.600	0.400																			1580057769.0	11.25	20.84
26/01/2020 16:56:10	26012020	260120	165610	100.550	12.233603	-56.344868	100.830	0.490	-0.250	0.020	100.600	-1.700	0.400																			1580057770.0	11.49	21.28
26/01/2020 16:56:11	26012020	260120	165611	100.790	12.233593	-56.344818	101.010	0.430	-0.080	-0.000	100.840	-1.500	0.300																			1580057771.0	11.20	20.74
26/01/2020 16:56:12	26012020	260120	165612	100.970	12.233585	-56.344770	101.070	0.250	-0.040	0.090	100.990	-1.400	0.400																			1580057772.0	10.77	19.95
26/01/2020 16:56:13	26012020	260120	165613	101.010	12.233577	-56.344720	100.990	0.120	-0.350	0.260	101.010	-1.600	0.500																			1580057773.0	10.55	19.54
26/01/2020 16:56:14	26012020	260120	165614	100.940	12.233567	-56.344668	100.780	0.120	-0.870	0.410	100.910	-1.700	0.600																			1580057774.0	10.66	19.74
26/01/2020 16:56:15	26012020	260120	165615	100.690	12.233555	-56.344615	100.540	0.090	-1.100	0.540	100.640	-2.400	0.800																			1580057775.0	11.11	20.58
26/01/2020 16:56:16	26012020	260120	165616	100.450	12.233545	-56.344563	100.290	-0.090	-0.890	0.650	100.400	-2.400	1.000																			1580057776.0	11.43	21.17
26/01/2020 16:56:17	26012020	260120	165617	100.180	12.233533	-56.344513	100.020	-0.370	-0.450	0.670	100.130	-2.000	1.000																			1580057777.0	11.25	20.84
26/01/2020 16:56:18	26012020	260120	165618	99.930	12.233522	-56.344463	99.960	-0.610	0.030	0.500	99.900	-1.500	0.900																			1580057778.0	10.97	20.32
26/01/2020 16:56:19	26012020	260120	165619	99.900	12.233512	-56.344413	100.060	-0.630	0.220	0.370	99.920	-1.200	0.700																			1580057779.0	10.88	20.15
26/01/2020 16:56:20	26012020	260120	165620	99.990	12.233498	-56.344362	100.130	-0.320	-0.030	0.280	100.010	-1.300	0.700																			1580057780.0	10.88	20.15
26/01/2020 16:56:21	26012020	260120	165621	100.060	12.233487	-56.344307	100.210	0.100	-0.170	0.170	100.080	-1.600	0.600																			1580057781.0	11.23	20.80
26/01/2020 16:56:22	26012020	260120	165622	100.160	12.233475	-56.344255	100.440	0.250	0.210	-0.010	100.200	-1.400	0.400																			1580057782.0	11.69	21.65
26/01/2020 16:56:23	26012020	260120	165623	100.400	12.233467	-56.344205	100.730	0.160	0.610	-0.200	100.460	-0.900	0.200																			1580057783.0	11.39	21.09
26/01/2020 16:56:24	26012020	260120	165624	100.680	12.233460	-56.344157	100.930	0.120	0.390	-0.160	100.730	-0.800	0.100																			1580057784.0	10.57	19.58
26/01/2020 16:56:25	26012020	260120	165625	100.870	12.233450	-56.344107	100.980	0.280	-0.400	0.210	100.890	-1.500	0.400																			1580057785.0	10.41	19.28
26/01/2020 16:56:26	26012020	260120	165626	100.900	12.233438	-56.344053	100.890	0.510	-1.040	0.590	100.890	-2.300	0.800																			1580057786.0	10.98	20.33
26/01/2020 16:56:27	26012020	260120	165627	100.800	12.233427	-56.344000	100.740	0.490	-0.950	0.750	100.770	-2.400	1.100																			1580057787.0	11.54	21.37
26/01/2020 16:56:28	26012020	260120	165628	100.650	12.233418	-56.343952	100.620	0.180	-0.440	0.720	100.620	-2.000	1.100																			1580057788.0	11.37	21.06
26/01/2020 16:56:29	26012020	260120	165629	100.540	12.233410	-56.343903	100.470	-0.140	-0.290	0.610	100.510	-1.700	1.000																			1580057789.0	10.61	19.65
26/01/2020 16:56:30	26012020	260120	165630	100.380	12.233400	-56.343852	100.260	-0.250	-0.510	0.470	100.340	-1.800	0.900																			1580057790.0	10.35	19.17
26/01/2020 16:56:31	26012020	260120	165631	100.170	12.233390	-56.343798	100.100	-0.190	-0.730	0.410	100.130	-2.100	0.800																			1580057791.0	10.91	20.21
26/01/2020 16:56:32	26012020	260120	165632	100.030	12.233378	-56.343745	100.060	-0.180	-0.640	0.510	100.010	-2.100	0.800																			1580057792.0	11.45	21.21
26/01/2020 16:56:33	26012020	260120	165633	100.000	12.233367	-56.343693	100.090	-0.310	-0.240	0.630	100.000	-1.800	0.900																			1580057793.0	11.53	21.35
26/01/2020 16:56:34	26012020	260120	165634	100.010	12.233353	-56.343643	100.160	-0.480	0.260	0.660	100.030	-1.300	1.000																			1580057794.0	11.28	20.89
26/01/2020 16:56:35	26012020	260120	165635	100.090	12.233342	-56.343595	100.290	-0.510	0.580	0.620	100.120	-0.900	1.000																			1580057795.0	10.98	20.33
26/01/2020 16:56:36	26012020	260120	165636	100.220	12.233330	-56.343545	100.420	-0.230	0.430	0.440	100.250	-0.900	0.900																			1580057796.0	10.79	19.98
26/01/2020 16:56:37	26012020	260120	165637	100.360	12.233320	-56.343492	100.530	0.270	-0.090	0.140	100.380	-1.300	0.600																			1580057797.0	10.84	20.08
26/01/2020 16:56:38	26012020	260120	165638	100.470	12.233312	-56.343438	100.620	0.580	-0.400	-0.010	100.470	-1.500	0.500																			1580057798.0	11.24	20.82
26/01/2020 16:56:39	26012020	260120	165639	100.560	12.233303	-56.343387	100.670	0.450	-0.270	0.070	100.570	-1.700	0.400																			1580057799.0	11.55	21.39
26/01/2020 16:56:40	26012020	260120	165640	100.600	12.233295	-56.343337	100.670	0.150	-0.110	0.220	100.610	-1.700	0.400																			1580057800.0	11.13	20.61
26/01/2020 16:56:41	26012020	260120	165641	100.610	12.233287	-56.343288	100.600	0.120	-0.400	0.460	100.600	-1.600	0.700																			1580057801.0	10.52	19.48
26/01/2020 16:56:42	26012020	260120	165642	100.520	12.233277	-56.343237	100.460	0.370	-0.950	0.670	100.490	-2.200	1.000																			1580057802.0	10.53	19.50
26/01/2020 16:56:43	26012020	260120	165643	100.380	12.233265	-56.343183	100.390	0.450	-1.000	0.700	100.360	-2.500	1.000																			1580057803.0	11.19	20.72
26/01/2020 16:56:44	26012020	260120	165644	100.320	12.233255	-56.343132	100.410	0.120	-0.420	0.800	100.320	-2.100	1.100																			1580057804.0	11.61	21.50
26/01/2020 16:56:45	26012020	260120	165645	100.340	12.233243	-56.343083	100.420	-0.380	0.190	0.870	100.350	-1.400	1.200																			1580057805.0	11.09	20.54
26/01/2020 16:56:46	26012020	260120	165646	100.340	12.233233	-56.343035	100.390	-0.660	0.180	0.650	100.340	-1.100	1.100																			1580057806.0	10.45	19.35
26/01/2020 16:56:47	26012020	260120	165647	100.330	12.233222	-56.342983	100.430	-0.550	-0.290	0.400	100.330	-1.500	0.800																			1580057807.0	10.49	19.43
26/01/2020 16:56:48	26012020	260120	165648	100.380	12.233212	-56.342928	100.460	-0.250	-0.520	0.310	100.380	-1.900	0.700																			1580057808.0	11.21	20.76
26/01/2020 16:56:49	26012020	260120	165649	100.410	12.233200	-56.342877	100.480	0.010	-0.330	0.190	100.410	-1.800	0.600																			1580057809.0	11.66	21.59
26/01/2020 16:56:50	26012020	260120	165650	100.430	12.233190	-56.342827	100.500	0.160	-0.080	0.120	100.430	-1.600	0.500																			1580057810.0	11.31	20.95
26/01/2020 16:56:51	26012020	260120	165651	100.440	12.233180	-56.342777	100.490	0.210	-0.030	0.150	100.440	-1.400	0.500																			1580057811.0	10.87	20.13
26/01/2020 16:56:52	26012020	260120	165652	100.430	12.233172	-56.342725	100.480	0.200	-0.110	0.150	100.430	-1.500	0.500																			1580057812.0	10.83	20.06
26/01/2020 16:56:53	26012020	260120	165653	100.430	12.233162	-56.342673	100.520	0.190	-0.120	0.270	100.430	-1.500	0.500																			1580057813.0	11.03	20.43
26/01/2020 16:56:54	26012020	260120	165654	100.470	12.233153	-56.342622	100.610	0.150	-0.040	0.490	100.480	-1.500	0.800																			1580057814.0	11.12	20.59
26/01/2020 16:56:55	26012020	260120	165655	100.550	12.233142	-56.342572	100.670	0.070	-0.070	0.580	100.560	-1.400	0.900																			1580057815.0	10.98	20.33
26/01/2020 16:56:56	26012020	260120	165656	100.610	12.233132	-56.342522	100.700	0.040	-0.380	0.500	100.620	-1.700	0.900																			1580057816.0	10.82	20.04
26/01/2020 16:56:57	26012020	260120	165657	100.640	12.233122	-56.342470	100.710	0.090	-0.760	0.490	100.640	-2.000	0.800																			1580057817.0	10.95	20.28
26/01/2020 16:56:58	26012020	260120	165658	100.650	12.233110	-56.342417	100.720	0.110	-0.780	0.500	100.650	-2.200	0.800																			1580057818.0	11.26	20.85
26/01/2020 16:56:59	26012020	260120	165659	100.650	12.233098	-56.342365	100.650	-0.000	-0.260	0.410	100.640	-1.900	0.800	1015.20	26.30	26.40	19.50	19.50	902.00	66.00	66.00	375.00	29.40	355.00	9.70	89.00	4.10	65628	3146.00	27.60	27.60	1580057819.0	11.40	21.11
26/01/2020 16:57:00	26012020	260120	165700	100.580	12.233088	-56.342317	100.520	-0.180	0.230	0.200	100.550	-1.300	0.600																			1580057820.0	11.01	20.39
26/01/2020 16:57:01	26012020	260120	165701	100.450	12.233080	-56.342268	100.440	-0.180	0.030	0.000	100.430	-1.200	0.400																			1580057821.0	10.43	19.32
26/01/2020 16:57:02	26012020	260120	165702	100.400	12.233072	-56.342215	100.590	-0.030	-0.540	-0.150	100.420	-1.800	0.200																			1580057822.0	10.54	19.52
26/01/2020 16:57:03	26012020	260120	165703	100.570	12.233062	-56.342162	100.770	0.010	-0.640	-0.050	100.610	-2.100	0.200																			1580057823.0	11.35	21.02
26/01/2020 16:57:04	26012020	260120	165704	100.730	12.233050	-56.342110	100.750	-0.170	-0.150	0.330	100.730	-2.000	0.300																			1580057824.0	11.71	21.69
26/01/2020 16:57:05	26012020	260120	165705	100.700	12.233038	-56.342062	100.640	-0.340	0.220	0.620	100.670	-1.300	0.900																			1580057825.0	11.10	20.56
26/01/2020 16:57:06	26012020	260120	165706	100.570	12.233027	-56.342013	100.570	-0.180	-0.080	0.520	100.550	-1.300	0.900																			1580057826.0	10.46	19.37
26/01/2020 16:57:07	26012020	260120	165707	100.510	12.233017	-56.341960	100.530	0.270	-0.700	0.250	100.510	-1.900	0.700																			1580057827.0	10.66	19.74
26/01/2020 16:57:08	26012020	260120	165708	100.480	12.233008	-56.341905	100.540	0.580	-0.810	0.020	100.470	-2.300	0.400																			1580057828.0	11.44	21.19
26/01/2020 16:57:09	26012020	260120	165709	100.510	12.233000	-56.341852	100.670	0.450	-0.270	0.080	100.530	-1.900	0.400																			1580057829.0	11.83	21.91
26/01/2020 16:57:10	26012020	260120	165710	100.640	12.232990	-56.341803	100.850	0.020	0.350	0.300	100.680	-1.200	0.600																			1580057830.0	11.22	20.78
26/01/2020 16:57:11	26012020	260120	165711	100.810	12.232978	-56.341755	100.940	-0.340	0.470	0.460	100.840	-0.900	0.800																			1580057831.0	10.50	19.45
26/01/2020 16:57:12	26012020	260120	165712	100.890	12.232967	-56.341705	100.920	-0.390	0.080	0.500	100.890	-1.200	0.800																			1580057832.0	10.41	19.28
26/01/2020 16:57:13	26012020	260120	165713	100.860	12.232955	-56.341653	100.900	-0.180	-0.430	0.430	100.850	-1.700	0.800																			1580057833.0	10.89	20.17
26/01/2020 16:57:14	26012020	260120	165714	100.840	12.232945	-56.341600	101.010	0.030	-0.640	0.250	100.850	-2.000	0.700																			1580057834.0	11.34	21.00
26/01/2020 16:57:15	26012020	260120	165715	100.970	12.232935	-56.341548	101.200	0.060	-0.490	0.050	101.010	-2.000	0.500																			1580057835.0	11.39	21.09
26/01/2020 16:57:16	26012020	260120	165716	101.160	12.232925	-56.341500	101.240	-0.020	-0.260	0.020	101.180	-1.700	0.400																			1580057836.0	11.05	20.46
26/01/2020 16:57:17	26012020	260120	165717	101.170	12.232915	-56.341452	101.040	0.050	-0.350	0.170	101.150	-1.700	0.500																			1580057837.0	10.63	19.69
26/01/2020 16:57:18	26012020	260120	165718	100.950	12.232905	-56.341400	100.800	0.260	-0.670	0.280	100.900	-2.000	0.600																			1580057838.0	10.63	19.69
26/01/2020 16:57:19	26012020	260120	165719	100.720	12.232893	-56.341347	100.710	0.320	-0.710	0.430	100.700	-2.200	0.700																			1580057839.0	11.13	20.61
26/01/2020 16:57:20	26012020	260120	165720	100.650	12.232883	-56.341293	100.770	0.100	-0.310	0.540	100.650	-1.900	0.900																			1580057840.0	11.49	21.28
26/01/2020 16:57:21	26012020	260120	165721	100.720	12.232872	-56.341245	100.870	-0.180	0.100	0.630	100.740	-1.400	0.900																			1580057841.0	11.20	20.74
26/01/2020 16:57:22	26012020	260120	165722	100.800	12.232862	-56.341195	100.870	-0.230	0.100	0.770	100.810	-1.300	1.100																			1580057842.0	10.73	19.87
26/01/2020 16:57:23	26012020	260120	165723	100.790	12.232848	-56.341143	100.840	-0.060	-0.100	0.690	100.780	-1.500	1.100																			1580057843.0	10.78	19.96
26/01/2020 16:57:24	26012020	260120	165724	100.770	12.232838	-56.341090	100.930	0.060	-0.010	0.300	100.780	-1.500	0.800																			1580057844.0	11.30	20.93
26/01/2020 16:57:25	26012020	260120	165725	100.890	12.232830	-56.341040	101.170	0.000	0.200	-0.100	100.930	-1.300	0.400																			1580057845.0	11.39	21.09
26/01/2020 16:57:26	26012020	260120	165726	101.160	12.232822	-56.340990	101.440	-0.100	0.030	-0.250	101.220	-1.300	0.100																			1580057846.0	10.93	20.24
26/01/2020 16:57:27	26012020	260120	165727	101.420	12.232812	-56.340938	101.560	-0.060	-0.550	-0.050	101.450	-1.700	0.200																			1580057847.0	10.66	19.74
26/01/2020 16:57:28	26012020	260120	165728	101.530	12.232800	-56.340885	101.500	0.060	-0.880	0.300	101.520	-2.200	0.500																			1580057848.0	11.06	20.48
26/01/2020 16:57:29	26012020	260120	165729	101.440	12.232787	-56.340833	101.360	0.000	-0.550	0.540	101.410	-2.100	0.800																			1580057849.0	11.49	21.28
26/01/2020 16:57:30	26012020	260120	165730	101.290	12.232775	-56.340787	101.250	-0.220	-0.070	0.500	101.270	-1.600	0.900																			1580057850.0	11.21	20.76
26/01/2020 16:57:31	26012020	260120	165731	101.170	12.232763	-56.340738	101.070	-0.270	-0.160	0.350	101.150	-1.400	0.700																			1580057851.0	10.50	19.45
26/01/2020 16:57:32	26012020	260120	165732	101.010	12.232753	-56.340687	100.900	-0.020	-0.610	0.240	100.970	-1.900	0.600																			1580057852.0	10.43	19.32
26/01/2020 16:57:33	26012020	260120	165733	100.840	12.232742	-56.340632	100.800	0.230	-0.630	0.170	100.820	-2.100	0.500																			1580057853.0	11.21	20.76
26/01/2020 16:57:34	26012020	260120	165734	100.760	12.232732	-56.340580	100.740	0.300	-0.220	0.170	100.750	-1.800	0.500																			1580057854.0	11.66	21.59
26/01/2020 16:57:35	26012020	260120	165735	100.700	12.232722	-56.340530	100.720	0.230	0.170	0.120	100.680	-1.300	0.500																			1580057855.0	11.17	20.69
26/01/2020 16:57:36	26012020	260120	165736	100.680	12.232712	-56.340480	100.880	0.170	0.210	-0.060	100.710	-1.200	0.400																			1580057856.0	10.74	19.89
26/01/2020 16:57:37	26012020	260120	165737	100.870	12.232703	-56.340428	101.170	0.160	-0.040	-0.100	100.930	-1.300	0.200																			1580057857.0	10.78	19.96
26/01/2020 16:57:38	26012020	260120	165738	101.150	12.232693	-56.340377	101.360	0.130	-0.280	0.170	101.200	-1.600	0.400																			1580057858.0	11.09	20.54
26/01/2020 16:57:39	26012020	260120	165739	101.310	12.232682	-56.340325	101.360	-0.060	-0.370	0.530	101.320	-1.800	0.800																			1580057859.0	11.29	20.91
26/01/2020 16:57:40	26012020	260120	165740	101.290	12.232668	-56.340275	101.290	-0.360	-0.330	0.820	101.280	-1.700	1.100																			1580057860.0	11.21	20.76
26/01/2020 16:57:41	26012020	260120	165741	101.210	12.232657	-56.340225	101.210	-0.550	-0.380	0.990	101.200	-1.700	1.300																			1580057861.0	10.95	20.28
26/01/2020 16:57:42	26012020	260120	165742	101.150	12.232643	-56.340175	101.060	-0.460	-0.610	0.920	101.130	-1.800	1.300																			1580057862.0	10.82	20.04
26/01/2020 16:57:43	26012020	260120	165743	100.970	12.232630	-56.340123	100.790	-0.210	-0.720	0.690	100.920	-2.100	1.100																			1580057863.0	11.02	20.41
26/01/2020 16:57:44	26012020	260120	165744	100.690	12.232618	-56.340070	100.540	-0.020	-0.410	0.430	100.640	-2.000	0.900																			1580057864.0	11.34	21.00
26/01/2020 16:57:45	26012020	260120	165745	100.460	12.232608	-56.340020	100.390	0.090	0.040	0.170	100.430	-1.500	0.600																			1580057865.0	11.27	20.87
26/01/2020 16:57:46	26012020	260120	165746	100.330	12.232600	-56.339970	100.380	0.240	0.130	-0.090	100.320	-1.300	0.300																			1580057866.0	10.85	20.09
26/01/2020 16:57:47	26012020	260120	165747	100.340	12.232592	-56.339918	100.550	0.410	-0.060	-0.270	100.360	-1.400	0.100																			1580057867.0	10.75	19.91
26/01/2020 16:57:48	26012020	260120	165748	100.530	12.232583	-56.339865	100.790	0.420	-0.020	-0.150	100.580	-1.500	0.100																			1580057868.0	11.18	20.71
26/01/2020 16:57:49	26012020	260120	165749	100.760	12.232572	-56.339815	100.960	0.210	0.280	0.180	100.800	-1.200	0.400																			1580057869.0	11.39	21.09
26/01/2020 16:57:50	26012020	260120	165750	100.930	12.232562	-56.339767	101.120	-0.040	0.260	0.440	100.950	-1.100	0.700																			1580057870.0	10.93	20.24
26/01/2020 16:57:51	26012020	260120	165751	101.070	12.232550	-56.339717	101.220	-0.110	-0.340	0.570	101.100	-1.500	0.900																			1580057871.0	10.50	19.45
26/01/2020 16:57:52	26012020	260120	165752	101.160	12.232540	-56.339663	101.130	0.120	-1.190	0.630	101.150	-2.300	1.000																			1580057872.0	10.78	19.96
26/01/2020 16:57:53	26012020	260120	165753	101.040	12.232528	-56.339610	100.850	0.400	-1.580	0.660	100.990	-2.900	1.000																			1580057873.0	11.37	21.06
26/01/2020 16:57:54	26012020	260120	165754	100.760	12.232518	-56.339557	100.650	0.250	-1.010	0.620	100.700	-2.700	1.000																			1580057874.0	11.77	21.80
26/01/2020 16:57:55	26012020	260120	165755	100.560	12.232508	-56.339508	100.590	-0.380	0.070	0.570	100.550	-1.700	0.900																			1580057875.0	11.49	21.28
26/01/2020 16:57:56	26012020	260120	165756	100.510	12.232497	-56.339462	100.590	-0.990	0.650	0.490	100.510	-0.900	0.900																			1580057876.0	10.56	19.56
26/01/2020 16:57:57	26012020	260120	165757	100.510	12.232485	-56.339412	100.530	-1.030	0.330	0.430	100.500	-0.900	0.800																			1580057877.0	10.10	18.71
26/01/2020 16:57:58	26012020	260120	165758	100.450	12.232470	-56.339358	100.490	-0.540	-0.260	0.310	100.440	-1.500	0.700																			1580057878.0	10.73	19.87
26/01/2020 16:57:59	26012020	260120	165759	100.420	12.232458	-56.339303	100.560	0.090	-0.370	0.060	100.430	-1.800	0.500	1015.10	26.30	26.40	19.40	19.50	894.00	65.00	65.00	376.00	29.40	356.00	9.90	91.00	4.20	65233	3411.00	27.70	27.60	1580057879.0	11.71	21.69
26/01/2020 16:58:00	26012020	260120	165800	100.510	12.232447	-56.339252	100.700	0.510	0.040	-0.190	100.540	-1.500	0.200																			1580057880.0	11.86	21.96
26/01/2020 16:58:01	26012020	260120	165801	100.660	12.232438	-56.339203	100.830	0.630	0.360	-0.380	100.690	-1.100	0.000																			1580057881.0	11.19	20.72
26/01/2020 16:58:02	26012020	260120	165802	100.790	12.232432	-56.339153	100.900	0.580	0.150	-0.390	100.810	-1.100	-0.100																			1580057882.0	10.54	19.52
26/01/2020 16:58:03	26012020	260120	165803	100.870	12.232425	-56.339102	100.920	0.450	-0.270	-0.080	100.870	-1.500	0.100																			1580057883.0	10.59	19.61
26/01/2020 16:58:04	26012020	260120	165804	100.880	12.232415	-56.339050	100.940	0.270	-0.580	0.390	100.880	-1.900	0.600																			1580057884.0	11.05	20.46
26/01/2020 16:58:05	26012020	260120	165805	100.880	12.232403	-56.339000	100.860	0.150	-0.950	0.900	100.880	-2.200	1.100																			1580057885.0	11.11	20.58
26/01/2020 16:58:06	26012020	260120	165806	100.770	12.232390	-56.338948	100.590	0.080	-1.210	1.300	100.720	-2.600	1.500																			1580057886.0	10.99	20.35
26/01/2020 16:58:07	26012020	260120	165807	100.470	12.232377	-56.338897	100.240	-0.060	-0.930	1.400	100.390	-2.500	1.700																			1580057887.0	11.25	20.84
26/01/2020 16:58:08	26012020	260120	165808	100.180	12.232365	-56.338847	100.070	-0.340	-0.160	1.160	100.120	-2.300	1.700																			1580057888.0	11.36	21.04
26/01/2020 16:58:09	26012020	260120	165809	99.970	12.232355	-56.338798	100.080	-0.570	0.310	0.790	99.970	-1.200	1.300																			1580057889.0	10.87	20.13
26/01/2020 16:58:10	26012020	260120	165810	100.000	12.232345	-56.338748	100.130	-0.580	0.120	0.400	100.010	-1.200	0.900																			1580057890.0	10.42	19.30
26/01/2020 16:58:11	26012020	260120	165811	100.060	12.232333	-56.338695	100.220	-0.480	-0.130	0.090	100.080	-1.500	0.500																			1580057891.0	10.85	20.09
26/01/2020 16:58:12	26012020	260120	165812	100.160	12.232323	-56.338642	100.360	-0.420	0.060	0.000	100.180	-1.500	0.400																			1580057892.0	11.57	21.43
26/01/2020 16:58:13	26012020	260120	165813	100.310	12.232313	-56.338592	100.510	-0.280	0.290	0.040	100.350	-1.200	0.400																			1580057893.0	11.43	21.17
26/01/2020 16:58:14	26012020	260120	165814	100.460	12.232303	-56.338542	100.540	0.130	-0.090	0.170	100.480	-1.300	0.500																			1580057894.0	10.75	19.91
26/01/2020 16:58:15	26012020	260120	165815	100.470	12.232292	-56.338490	100.460	0.680	-0.780	0.240	100.450	-2.000	0.600																			1580057895.0	10.68	19.78
26/01/2020 16:58:16	26012020	260120	165816	100.390	12.232283	-56.338435	100.500	0.950	-0.790	0.190	100.390	-2.300	0.600																			1580057896.0	11.43	21.17
26/01/2020 16:58:17	26012020	260120	165817	100.450	12.232275	-56.338383	100.640	0.720	-0.050	0.220	100.480	-1.800	0.500																			1580057897.0	11.75	21.76
26/01/2020 16:58:18	26012020	260120	165818	100.560	12.232267	-56.338337	100.720	0.190	0.500	0.270	100.590	-1.400	0.600																			1580057898.0	10.89	20.17
26/01/2020 16:58:19	26012020	260120	165819	100.660	12.232258	-56.338288	100.670	-0.190	0.180	0.390	100.660	-1.000	0.700																			1580057899.0	10.04	18.59
26/01/2020 16:58:20	26012020	260120	165820	100.600	12.232247	-56.338237	100.530	-0.170	-0.740	0.590	100.570	-1.800	0.900																			1580057900.0	10.27	19.02
26/01/2020 16:58:21	26012020	260120	165821	100.450	12.232235	-56.338182	100.390	0.060	-1.340	0.720	100.430	-2.600	1.000																			1580057901.0	11.20	20.74
26/01/2020 16:58:22	26012020	260120	165822	100.310	12.232223	-56.338128	100.290	0.010	-0.960	0.850	100.290	-2.600	1.100																			1580057902.0	11.89	22.02
26/01/2020 16:58:23	26012020	260120	165823	100.210	12.232212	-56.338080	100.290	-0.450	0.050	0.900	100.200	-1.700	1.200																			1580057903.0	11.62	21.52
26/01/2020 16:58:24	26012020	260120	165824	100.210	12.232200	-56.338035	100.400	-0.930	0.700	0.780	100.220	-0.800	1.200																			1580057904.0	10.62	19.67
26/01/2020 16:58:25	26012020	260120	165825	100.330	12.232188	-56.337987	100.510	-0.910	0.330	0.560	100.360	-0.800	1.000																			1580057905.0	9.99	18.50
26/01/2020 16:58:26	26012020	260120	165826	100.440	12.232177	-56.337933	100.520	-0.320	-0.580	0.250	100.450	-1.700	0.700																			1580057906.0	10.43	19.32
26/01/2020 16:58:27	26012020	260120	165827	100.450	12.232167	-56.337877	100.520	0.420	-0.980	-0.000	100.450	-2.400	0.400																			1580057907.0	11.51	21.32
26/01/2020 16:58:28	26012020	260120	165828	100.470	12.232157	-56.337823	100.580	0.790	-0.490	-0.130	100.480	-2.100	0.300																			1580057908.0	12.05	22.32
26/01/2020 16:58:29	26012020	260120	165829	100.540	12.232148	-56.337775	100.650	0.720	0.160	-0.150	100.550	-1.400	0.200																			1580057909.0	11.44	21.19
26/01/2020 16:58:30	26012020	260120	165830	100.610	12.232142	-56.337727	100.670	0.500	0.290	-0.110	100.610	-1.100	0.200																			1580057910.0	10.46	19.37
26/01/2020 16:58:31	26012020	260120	165831	100.630	12.232135	-56.337677	100.720	0.310	-0.010	0.020	100.640	-1.300	0.300																			1580057911.0	10.34	19.15
26/01/2020 16:58:32	26012020	260120	165832	100.680	12.232125	-56.337623	100.780	0.120	-0.370	0.360	100.700	-1.700	0.600																			1580057912.0	10.91	20.21
26/01/2020 16:58:33	26012020	260120	165833	100.730	12.232113	-56.337572	100.780	-0.100	-0.520	0.770	100.730	-1.900	1.000																			1580057913.0	11.27	20.87
26/01/2020 16:58:34	26012020	260120	165834	100.710	12.232102	-56.337520	100.710	-0.390	-0.390	1.030	100.700	-1.900	1.300																			1580057914.0	11.27	20.87
26/01/2020 16:58:35	26012020	260120	165835	100.630	12.232088	-56.337472	100.610	-0.650	-0.170	1.170	100.610	-1.600	1.500																			1580057915.0	11.04	20.45
26/01/2020 16:58:36	26012020	260120	165836	100.530	12.232075	-56.337422	100.550	-0.730	-0.110	1.010	100.510	-1.500	1.400																			1580057916.0	10.79	19.98
26/01/2020 16:58:37	26012020	260120	165837	100.480	12.232063	-56.337372	100.570	-0.510	-0.270	0.570	100.490	-1.600	1.100																			1580057917.0	10.72	19.85
26/01/2020 16:58:38	26012020	260120	165838	100.510	12.232053	-56.337320	100.530	-0.070	-0.460	0.190	100.510	-1.800	0.700																			1580057918.0	10.92	20.22
26/01/2020 16:58:39	26012020	260120	165839	100.480	12.232043	-56.337268	100.430	0.370	-0.480	-0.080	100.450	-1.900	0.400																			1580057919.0	11.17	20.69
26/01/2020 16:58:40	26012020	260120	165840	100.380	12.232033	-56.337217	100.390	0.660	-0.390	-0.330	100.370	-1.800	0.100																			1580057920.0	11.21	20.76
26/01/2020 16:58:41	26012020	260120	165841	100.370	12.232027	-56.337165	100.440	0.740	-0.310	-0.440	100.370	-1.700	-0.100																			1580057921.0	11.05	20.46
26/01/2020 16:58:42	26012020	260120	165842	100.430	12.232018	-56.337115	100.530	0.610	-0.200	-0.250	100.440	-1.700	0.000																			1580057922.0	11.00	20.37
26/01/2020 16:58:43	26012020	260120	165843	100.520	12.232010	-56.337063	100.610	0.300	-0.040	0.140	100.540	-1.500	0.300																			1580057923.0	11.03	20.43
26/01/2020 16:58:44	26012020	260120	165844	100.570	12.232000	-56.337013	100.560	-0.020	-0.060	0.680	100.570	-1.400	0.800																			1580057924.0	10.94	20.26
26/01/2020 16:58:45	26012020	260120	165845	100.500	12.231987	-56.336962	100.440	-0.320	-0.200	1.160	100.480	-1.600	1.400																			1580057925.0	10.87	20.13
26/01/2020 16:58:46	26012020	260120	165846	100.380	12.231975	-56.336912	100.370	-0.570	-0.240	1.320	100.360	-1.600	1.700																			1580057926.0	11.10	20.56
26/01/2020 16:58:47	26012020	260120	165847	100.310	12.231962	-56.336860	100.350	-0.670	-0.200	1.160	100.300	-1.600	1.600																			1580057927.0	11.20	20.74
26/01/2020 16:58:48	26012020	260120	165848	100.280	12.231950	-56.336810	100.350	-0.490	-0.310	0.770	100.280	-1.600	1.300																			1580057928.0	11.01	20.39
26/01/2020 16:58:49	26012020	260120	165849	100.290	12.231940	-56.336758	100.400	-0.090	-0.550	0.280	100.290	-1.900	0.800																			1580057929.0	10.93	20.24
26/01/2020 16:58:50	26012020	260120	165850	100.360	12.231932	-56.336705	100.540	0.230	-0.500	-0.050	100.380	-2.000	0.400																			1580057930.0	11.18	20.71
26/01/2020 16:58:51	26012020	260120	165851	100.510	12.231923	-56.336653	100.680	0.240	-0.030	-0.100	100.550	-1.600	0.200																			1580057931.0	11.39	21.09
26/01/2020 16:58:52	26012020	260120	165852	100.650	12.231913	-56.336605	100.680	0.110	0.240	0.020	100.660	-1.200	0.300																			1580057932.0	11.00	20.37
26/01/2020 16:58:53	26012020	260120	165853	100.620	12.231903	-56.336555	100.560	0.180	-0.120	0.150	100.600	-1.300	0.500																			1580057933.0	10.45	19.35
26/01/2020 16:58:54	26012020	260120	165854	100.510	12.231893	-56.336503	100.550	0.380	-0.670	0.190	100.500	-1.900	0.500																			1580057934.0	10.69	19.80
26/01/2020 16:58:55	26012020	260120	165855	100.510	12.231883	-56.336448	100.600	0.430	-0.780	0.240	100.520	-2.200	0.600																			1580057935.0	11.42	21.15
26/01/2020 16:58:56	26012020	260120	165856	100.550	12.231873	-56.336397	100.570	0.190	-0.280	0.350	100.550	-1.900	0.700																			1580057936.0	11.60	21.48
26/01/2020 16:58:57	26012020	260120	165857	100.500	12.231863	-56.336348	100.450	-0.230	0.330	0.370	100.480	-1.200	0.700																			1580057937.0	11.10	20.56
26/01/2020 16:58:58	26012020	260120	165858	100.390	12.231855	-56.336302	100.380	-0.440	0.270	0.330	100.370	-1.000	0.700																			1580057938.0	10.45	19.35
26/01/2020 16:58:59	26012020	260120	165859	100.340	12.231843	-56.336250	100.450	-0.280	-0.410	0.220	100.340	-1.600	0.600	1015.10	26.30	26.40	19.40	19.40	896.00	65.00	65.00	375.00	29.40	355.00	9.60	89.00	3.90	65224	3200.00	27.70	27.60	1580057939.0	10.34	19.15
26/01/2020 16:59:00	26012020	260120	165900	100.420	12.231833	-56.336195	100.610	-0.060	-0.790	0.080	100.440	-2.100	0.500																			1580057940.0	11.16	20.67
26/01/2020 16:59:01	26012020	260120	165901	100.590	12.231822	-56.336142	100.750	-0.060	-0.480	0.100	100.620	-2.000	0.400																			1580057941.0	11.80	21.85
26/01/2020 16:59:02	26012020	260120	165902	100.720	12.231810	-56.336093	100.830	-0.160	0.130	0.190	100.740	-1.500	0.500																			1580057942.0	11.41	21.13
26/01/2020 16:59:03	26012020	260120	165903	100.790	12.231798	-56.336047	100.900	-0.120	0.360	0.050	100.810	-1.000	0.500																			1580057943.0	10.61	19.65
26/01/2020 16:59:04	26012020	260120	165904	100.880	12.231790	-56.335997	100.940	0.220	-0.190	-0.140	100.890	-1.300	0.300																			1580057944.0	10.27	19.02
26/01/2020 16:59:05	26012020	260120	165905	100.900	12.231782	-56.335942	100.840	0.570	-0.930	-0.050	100.890	-2.100	0.200																			1580057945.0	10.70	19.82
26/01/2020 16:59:06	26012020	260120	165906	100.790	12.231772	-56.335887	100.680	0.510	-0.980	0.240	100.760	-2.500	0.500																			1580057946.0	11.61	21.50
26/01/2020 16:59:07	26012020	260120	165907	100.630	12.231762	-56.335837	100.520	0.020	-0.370	0.600	100.590	-2.000	0.800																			1580057947.0	11.79	21.84
26/01/2020 16:59:08	26012020	260120	165908	100.470	12.231750	-56.335788	100.460	-0.520	0.170	0.850	100.470	-1.800	0.900																			1580057948.0	10.99	20.35
26/01/2020 16:59:09	26012020	260120	165909	100.420	12.231738	-56.335740	100.540	-0.730	0.200	0.820	100.420	-1.200	1.200																			1580057949.0	10.38	19.22
26/01/2020 16:59:10	26012020	260120	165910	100.500	12.231727	-56.335688	100.630	-0.530	-0.160	0.630	100.530	-1.400	1.000																			1580057950.0	10.57	19.58
26/01/2020 16:59:11	26012020	260120	165911	100.590	12.231713	-56.335637	100.660	-0.130	-0.360	0.400	100.590	-1.700	0.800																			1580057951.0	11.17	20.69
26/01/2020 16:59:12	26012020	260120	165912	100.620	12.231702	-56.335583	100.720	0.220	-0.220	0.150	100.630	-1.700	0.600																			1580057952.0	11.53	21.35
26/01/2020 16:59:13	26012020	260120	165913	100.690	12.231693	-56.335533	100.880	0.420	-0.010	-0.190	100.720	-1.500	0.300																			1580057953.0	11.27	20.87
26/01/2020 16:59:14	26012020	260120	165914	100.870	12.231685	-56.335483	101.050	0.440	0.120	-0.520	100.920	-1.300	-0.100																			1580057954.0	10.86	20.11
26/01/2020 16:59:15	26012020	260120	165915	101.050	12.231678	-56.335433	101.080	0.260	0.060	-0.500	101.060	-1.300	-0.200																			1580057955.0	10.76	19.93
26/01/2020 16:59:16	26012020	260120	165916	101.060	12.231670	-56.335382	101.010	0.050	-0.280	-0.080	101.050	-1.500	0.100																			1580057956.0	10.78	19.96
26/01/2020 16:59:17	26012020	260120	165917	100.980	12.231658	-56.335332	100.960	0.040	-0.800	0.290	100.960	-2.000	0.500																			1580057957.0	10.83	20.06
26/01/2020 16:59:18	26012020	260120	165918	100.920	12.231647	-56.335278	100.930	0.150	-1.070	0.450	100.920	-2.400	0.700																			1580057958.0	11.13	20.61
26/01/2020 16:59:19	26012020	260120	165919	100.880	12.231635	-56.335227	100.800	0.190	-0.910	0.590	100.870	-2.400	0.900																			1580057959.0	11.41	21.13
26/01/2020 16:59:20	26012020	260120	165920	100.730	12.231623	-56.335177	100.620	0.060	-0.430	0.640	100.690	-2.000	1.000																			1580057960.0	11.30	20.93
26/01/2020 16:59:21	26012020	260120	165921	100.550	12.231612	-56.335127	100.600	-0.200	0.110	0.470	100.540	-1.500	0.900																			1580057961.0	10.97	20.32
26/01/2020 16:59:22	26012020	260120	165922	100.540	12.231602	-56.335077	100.730	-0.480	0.430	0.220	100.560	-1.300	0.800																			1580057962.0	10.75	19.91
26/01/2020 16:59:23	26012020	260120	165923	100.690	12.231592	-56.335027	100.810	-0.630	0.380	0.090	100.710	-1.000	0.400																			1580057963.0	10.70	19.82
26/01/2020 16:59:24	26012020	260120	165924	100.770	12.231580	-56.334975	100.790	-0.520	0.020	0.160	100.770	-1.200	0.500																			1580057964.0	10.86	20.11
26/01/2020 16:59:25	26012020	260120	165925	100.740	12.231568	-56.334923	100.760	-0.190	-0.430	0.280	100.730	-1.700	0.600																			1580057965.0	11.14	20.63
26/01/2020 16:59:26	26012020	260120	165926	100.710	12.231557	-56.334870	100.750	0.240	-0.740	0.280	100.720	-2.100	0.600																			1580057966.0	11.39	21.09
26/01/2020 16:59:27	26012020	260120	165927	100.700	12.231547	-56.334817	100.700	0.570	-0.780	0.220	100.690	-2.200	0.600																			1580057967.0	11.43	21.17
26/01/2020 16:59:28	26012020	260120	165928	100.640	12.231537	-56.334765	100.680	0.660	-0.430	0.190	100.630	-2.000	0.500																			1580057968.0	11.34	21.00
26/01/2020 16:59:29	26012020	260120	165929	100.630	12.231528	-56.334715	100.770	0.480	0.100	0.180	100.650	-1.500	0.500																			1580057969.0	11.12	20.59
26/01/2020 16:59:30	26012020	260120	165930	100.730	12.231520	-56.334667	100.880	0.120	0.400	0.160	100.760	-1.100	0.500																			1580057970.0	10.76	19.93
26/01/2020 16:59:31	26012020	260120	165931	100.830	12.231510	-56.334617	100.880	-0.150	0.170	0.230	100.840	-1.100	0.500																			1580057971.0	10.54	19.52
26/01/2020 16:59:32	26012020	260120	165932	100.820	12.231500	-56.334565	100.880	-0.220	-0.360	0.390	100.810	-1.600	0.700																			1580057972.0	10.73	19.87
26/01/2020 16:59:33	26012020	260120	165933	100.820	12.231487	-56.334512	100.970	-0.200	-0.590	0.480	100.830	-2.000	0.800																			1580057973.0	11.24	20.82
26/01/2020 16:59:34	26012020	260120	165934	100.890	12.231475	-56.334460	101.040	-0.270	-0.370	0.410	100.910	-2.000	0.800																			1580057974.0	11.52	21.34
26/01/2020 16:59:35	26012020	260120	165935	100.970	12.231463	-56.334412	100.980	-0.300	-0.220	0.230	100.970	-1.600	0.600																			1580057975.0	11.12	20.59
26/01/2020 16:59:36	26012020	260120	165936	100.920	12.231453	-56.334362	100.860	-0.070	-0.470	0.070	100.890	-1.700	0.500																			1580057976.0	10.62	19.67
26/01/2020 16:59:37	26012020	260120	165937	100.810	12.231443	-56.334308	100.860	0.290	-0.740	-0.200	100.800	-2.100	0.200																			1580057977.0	10.82	20.04
26/01/2020 16:59:38	26012020	260120	165938	100.850	12.231435	-56.334255	101.030	0.450	-0.610	-0.370	100.880	-2.100	0.000																			1580057978.0	11.38	21.08
26/01/2020 16:59:39	26012020	260120	165939	101.010	12.231425	-56.334205	101.140	0.330	-0.280	-0.170	101.040	-1.800	0.100																			1580057979.0	11.44	21.19
26/01/2020 16:59:40	26012020	260120	165940	101.110	12.231415	-56.334155	101.090	0.110	-0.120	0.250	101.110	-1.600	0.400																			1580057980.0	11.00	20.37
26/01/2020 16:59:41	26012020	260120	165941	101.040	12.231402	-56.334103	100.940	-0.110	-0.050	0.590	101.010	-1.500	0.800																			1580057981.0	10.88	20.15
26/01/2020 16:59:42	26012020	260120	165942	100.890	12.231390	-56.334052	100.840	-0.330	0.050	0.670	100.860	-1.400	1.000																			1580057982.0	11.14	20.63
26/01/2020 16:59:43	26012020	260120	165943	100.790	12.231378	-56.334000	100.880	-0.420	0.050	0.520	100.790	-1.300	0.900																			1580057983.0	11.19	20.72
26/01/2020 16:59:44	26012020	260120	165944	100.840	12.231367	-56.333948	100.930	-0.330	-0.140	0.380	100.860	-1.500	0.800																			1580057984.0	11.06	20.48
26/01/2020 16:59:45	26012020	260120	165945	100.890	12.231355	-56.333897	100.960	-0.180	-0.250	0.220	100.900	-1.600	0.600																			1580057985.0	11.16	20.67
26/01/2020 16:59:46	26012020	260120	165946	100.930	12.231345	-56.333845	101.090	-0.070	-0.110	0.130	100.950	-1.600	0.500																			1580057986.0	11.32	20.96
26/01/2020 16:59:47	26012020	260120	165947	101.070	12.231333	-56.333795	101.290	0.050	0.080	0.120	101.120	-1.400	0.500																			1580057987.0	11.17	20.69
26/01/2020 16:59:48	26012020	260120	165948	101.270	12.231322	-56.333747	101.400	0.320	-0.140	0.010	101.300	-1.400	0.400																			1580057988.0	10.78	19.96
26/01/2020 16:59:49	26012020	260120	165949	101.380	12.231312	-56.333695	101.330	0.640	-0.630	-0.010	101.380	-1.900	0.300																			1580057989.0	10.69	19.80
26/01/2020 16:59:50	26012020	260120	165950	101.290	12.231303	-56.333642	101.130	0.760	-0.850	0.160	101.260	-2.200	0.400																			1580057990.0	11.16	20.67
26/01/2020 16:59:51	26012020	260120	165951	101.100	12.231293	-56.333590	101.060	0.510	-0.540	0.380	101.060	-2.100	0.600																			1580057991.0	11.49	21.28
26/01/2020 16:59:52	26012020	260120	165952	101.040	12.231283	-56.333540	101.160	-0.060	-0.020	0.640	101.040	-1.900	0.700																			1580057992.0	11.18	20.71
26/01/2020 16:59:53	26012020	260120	165953	101.140	12.231272	-56.333492	101.170	-0.550	0.040	0.990	101.150	-1.300	1.200																			1580057993.0	10.63	19.69
26/01/2020 16:59:54	26012020	260120	165954	101.120	12.231258	-56.333442	101.000	-0.590	-0.500	1.190	101.090	-1.700	1.500																			1580057994.0	10.45	19.35
26/01/2020 16:59:55	26012020	260120	165955	100.920	12.231243	-56.333388	100.730	-0.220	-1.040	1.100	100.870	-2.300	1.500																			1580057995.0	11.06	20.48
26/01/2020 16:59:56	26012020	260120	165956	100.650	12.231232	-56.333333	100.600	0.090	-0.810	0.790	100.610	-2.400	1.300																			1580057996.0	11.83	21.91
26/01/2020 16:59:57	26012020	260120	165957	100.560	12.231222	-56.333282	100.710	0.030	0.050	0.350	100.570	-1.700	0.900																			1580057997.0	11.90	22.04
26/01/2020 16:59:58	26012020	260120	165958	100.650	12.231213	-56.333233	100.870	-0.210	0.620	0.040	100.680	-1.300	0.700																			1580057998.0	11.06	20.48
26/01/2020 16:59:59	26012020	260120	165959	100.850	12.231203	-56.333183	100.940	-0.290	0.430	0.060	100.870	-0.800	0.400	1015.10	26.30	26.40	19.50	19.50	896.00	66.00	66.00	375.00	29.40	354.00	9.50	87.00	3.90	65188	3177.00	27.70	27.70	1580057999.0	10.36	19.19
26/01/2020 17:00:00	26012020	260120	170000	100.900	12.231180	-56.333078	100.970	-0.140	-0.060	0.200	100.900	-1.300	0.500																			1580058000.0	10.70	19.82
26/01/2020 17:00:01	26012020	260120	170001	100.930	12.231180	-56.333078	101.010	0.120	-0.290	0.250	100.940	-1.600	0.600																			1580058001.0	11.55	21.39
26/01/2020 17:00:02	26012020	260120	170002	100.970	12.231168	-56.333027	101.030	0.330	-0.320	0.200	100.980	-1.700	0.600																			1580058002.0	11.55	21.39
26/01/2020 17:00:03	26012020	260120	170003	100.990	12.231158	-56.332975	101.080	0.370	-0.370	0.070	100.990	-1.800	0.500																			1580058003.0	11.14	20.63
26/01/2020 17:00:04	26012020	260120	170004	101.040	12.231150	-56.332925	101.140	0.230	-0.350	-0.090	101.060	-1.800	0.300																			1580058004.0	10.92	20.22
26/01/2020 17:00:05	26012020	260120	170005	101.110	12.231140	-56.332875	101.110	0.020	-0.200	-0.070	101.110	-1.600	0.200																			1580058005.0	10.98	20.33
26/01/2020 17:00:06	26012020	260120	170006	101.060	12.231130	-56.332825	101.010	-0.060	-0.270	0.100	101.040	-1.600	0.400																			1580058006.0	10.83	20.06
26/01/2020 17:00:07	26012020	260120	170007	100.950	12.231118	-56.332773	100.940	0.020	-0.580	0.240	100.940	-1.900	0.500																			1580058007.0	10.71	19.83
26/01/2020 17:00:08	26012020	260120	170008	100.880	12.231107	-56.332722	100.860	0.150	-0.790	0.320	100.870	-2.100	0.600																			1580058008.0	11.05	20.46
26/01/2020 17:00:09	26012020	260120	170009	100.790	12.231095	-56.332668	100.760	0.200	-0.690	0.510	100.770	-2.200	0.800																			1580058009.0	11.38	21.08
26/01/2020 17:00:10	26012020	260120	170010	100.680	12.231083	-56.332618	100.730	0.040	-0.320	0.660	100.670	-1.900	1.000																			1580058010.0	11.35	21.02
26/01/2020 17:00:11	26012020	260120	170011	100.660	12.231072	-56.332568	100.680	-0.310	0.130	0.700	100.650	-1.400	1.000																			1580058011.0	11.15	20.65
26/01/2020 17:00:12	26012020	260120	170012	100.610	12.231060	-56.332518	100.560	-0.540	0.260	0.650	100.610	-1.300	1.000																			1580058012.0	10.88	20.15
26/01/2020 17:00:13	26012020	260120	170013	100.480	12.231050	-56.332467	100.450	-0.370	-0.140	0.520	100.440	-1.400	0.900																			1580058013.0	10.73	19.87
26/01/2020 17:00:14	26012020	260120	170014	100.370	12.231040	-56.332413	100.430	-0.010	-0.590	0.340	100.370	-1.900	0.700																			1580058014.0	11.08	20.52
26/01/2020 17:00:15	26012020	260120	170015	100.360	12.231028	-56.332358	100.440	0.160	-0.530	0.260	100.370	-2.000	0.600																			1580058015.0	11.69	21.65
26/01/2020 17:00:16	26012020	260120	170016	100.380	12.231018	-56.332307	100.460	0.010	0.050	0.320	100.380	-1.600	0.600																			1580058016.0	11.70	21.67
26/01/2020 17:00:17	26012020	260120	170017	100.390	12.231008	-56.332260	100.510	-0.200	0.510	0.420	100.400	-1.000	0.700																			1580058017.0	11.07	20.50
26/01/2020 17:00:18	26012020	260120	170018	100.440	12.230997	-56.332210	100.630	-0.090	0.210	0.440	100.470	-1.000	0.800																			1580058018.0	10.43	19.32
26/01/2020 17:00:19	26012020	260120	170019	100.570	12.230987	-56.332158	100.750	0.320	-0.490	0.330	100.610	-1.600	0.700																			1580058019.0	10.55	19.54
26/01/2020 17:00:20	26012020	260120	170020	100.700	12.230977	-56.332103	100.820	0.590	-0.680	0.210	100.720	-2.100	0.600																			1580058020.0	11.39	21.09
26/01/2020 17:00:21	26012020	260120	170021	100.760	12.230968	-56.332052	100.890	0.470	-0.300	0.200	100.780	-1.800	0.500																			1580058021.0	11.70	21.67
26/01/2020 17:00:22	26012020	260120	170022	100.840	12.230958	-56.332003	100.940	0.130	-0.090	0.300	100.860	-1.500	0.600																			1580058022.0	11.01	20.39
26/01/2020 17:00:23	26012020	260120	170023	100.880	12.230948	-56.331955	100.840	-0.090	-0.490	0.490	100.870	-1.700	0.800																			1580058023.0	10.38	19.22
26/01/2020 17:00:24	26012020	260120	170024	100.760	12.230938	-56.331902	100.620	-0.170	-0.930	0.820	100.760	-1.900	0.800																			1580058024.0	10.69	19.80
26/01/2020 17:00:25	26012020	260120	170025	100.530	12.230925	-56.331848	100.410	-0.260	-0.790	1.040	100.480	-2.300	1.300																			1580058025.0	11.44	21.19
26/01/2020 17:00:26	26012020	260120	170026	100.320	12.230913	-56.331798	100.290	-0.400	-0.330	0.900	100.320	-2.200	1.400																			1580058026.0	11.57	21.43
26/01/2020 17:00:27	26012020	260120	170027	100.200	12.230902	-56.331748	100.200	-0.420	-0.080	0.650	100.180	-1.500	1.100																			1580058027.0	11.00	20.37
26/01/2020 17:00:28	26012020	260120	170028	100.110	12.230892	-56.331697	100.090	-0.250	-0.110	0.450	100.090	-1.500	0.900																			1580058028.0	10.80	20.00
26/01/2020 17:00:29	26012020	260120	170029	100.010	12.230880	-56.331643	100.050	0.020	-0.110	0.250	100.000	-1.500	0.700																			1580058029.0	11.14	20.63
26/01/2020 17:00:30	26012020	260120	170030	99.980	12.230870	-56.331592	100.090	0.240	0.100	0.090	99.990	-1.400	0.500																			1580058030.0	11.45	21.21
26/01/2020 17:00:31	26012020	260120	170031	100.030	12.230862	-56.331540	100.220	0.310	0.270	-0.060	100.050	-1.100	0.300																			1580058031.0	11.33	20.98
26/01/2020 17:00:32	26012020	260120	170032	100.180	12.230853	-56.331488	100.510	0.280	0.160	-0.070	100.230	-1.200	0.300																			1580058032.0	11.00	20.37
26/01/2020 17:00:33	26012020	260120	170033	100.480	12.230845	-56.331437	100.870	0.190	-0.010	0.110	100.550	-1.400	0.400																			1580058033.0	10.96	20.30
26/01/2020 17:00:34	26012020	260120	170034	100.830	12.230835	-56.331387	101.100	0.040	-0.060	0.390	100.890	-1.400	0.600																			1580058034.0	11.12	20.59
26/01/2020 17:00:35	26012020	260120	170035	101.030	12.230823	-56.331337	101.090	-0.090	-0.240	0.720	101.040	-1.500	1.000																			1580058035.0	10.98	20.33
26/01/2020 17:00:36	26012020	260120	170036	100.990	12.230812	-56.331287	100.940	-0.110	-0.710	0.880	100.970	-1.900	1.200																			1580058036.0	10.72	19.85
26/01/2020 17:00:37	26012020	260120	170037	100.830	12.230800	-56.331235	100.650	-0.010	-1.260	0.840	100.780	-2.500	1.200																			1580058037.0	10.88	20.15
26/01/2020 17:00:38	26012020	260120	170038	100.550	12.230790	-56.331182	100.340	0.050	-1.410	0.760	100.480	-2.800	1.100																			1580058038.0	11.28	20.89
26/01/2020 17:00:39	26012020	260120	170039	100.230	12.230780	-56.331128	100.080	-0.050	-0.810	0.660	100.180	-2.500	1.000																			1580058039.0	11.57	21.43
26/01/2020 17:00:40	26012020	260120	170040	99.980	12.230770	-56.331078	99.850	-0.210	-0.040	0.560	99.940	-1.700	0.900																			1580058040.0	11.33	20.98
26/01/2020 17:00:41	26012020	260120	170041	99.760	12.230760	-56.331028	99.740	-0.240	0.180	0.340	99.720	-1.200	0.800																			1580058041.0	10.72	19.85
26/01/2020 17:00:42	26012020	260120	170042	99.670	12.230750	-56.330975	99.880	-0.130	0.100	0.070	99.690	-1.300	0.500																			1580058042.0	10.76	19.93
26/01/2020 17:00:43	26012020	260120	170043	99.840	12.230740	-56.330922	100.210	-0.120	0.360	-0.090	99.900	-1.200	0.300																			1580058043.0	11.47	21.24
26/01/2020 17:00:44	26012020	260120	170044	100.190	12.230730	-56.330872	100.580	-0.210	0.730	-0.130	100.270	-0.800	0.200																			1580058044.0	11.62	21.52
26/01/2020 17:00:45	26012020	260120	170045	100.550	12.230720	-56.330822	100.840	-0.160	0.600	0.010	100.610	-0.700	0.300																			1580058045.0	10.98	20.33
26/01/2020 17:00:46	26012020	260120	170046	100.790	12.230708	-56.330770	100.990	0.110	-0.030	0.210	100.820	-1.200	0.500																			1580058046.0	10.63	19.69
26/01/2020 17:00:47	26012020	260120	170047	100.940	12.230698	-56.330718	101.180	0.370	-0.620	0.180	100.970	-1.800	0.600																			1580058047.0	11.05	20.46
26/01/2020 17:00:48	26012020	260120	170048	101.140	12.230688	-56.330665	101.360	0.430	-0.870	0.090	101.140	-2.000	0.500																			1580058048.0	11.40	21.11
26/01/2020 17:00:49	26012020	260120	170049	101.310	12.230680	-56.330615	101.300	0.310	-0.910	0.160	101.320	-2.300	0.500																			1580058049.0	11.22	20.78
26/01/2020 17:00:50	26012020	260120	170050	101.220	12.230670	-56.330565	100.930	0.150	-0.960	0.460	101.220	-2.300	0.500																			1580058050.0	10.88	20.15
26/01/2020 17:00:51	26012020	260120	170051	100.820	12.230658	-56.330513	100.450	0.090	-1.030	0.810	100.720	-2.400	1.100																			1580058051.0	10.80	20.00
26/01/2020 17:00:52	26012020	260120	170052	100.340	12.230647	-56.330462	100.090	0.070	-0.830	0.890	100.260	-2.300	1.200																			1580058052.0	11.07	20.50
26/01/2020 17:00:53	26012020	260120	170053	99.990	12.230637	-56.330410	99.890	-0.150	-0.290	0.690	99.940	-1.900	1.100																			1580058053.0	11.37	21.06
26/01/2020 17:00:54	26012020	260120	170054	99.810	12.230627	-56.330358	99.820	-0.520	0.230	0.510	99.780	-1.300	0.900																			1580058054.0	11.29	20.91
26/01/2020 17:00:55	26012020	260120	170055	99.750	12.230615	-56.330307	99.830	-0.740	0.490	0.530	99.750	-1.000	0.900																			1580058055.0	11.00	20.37
26/01/2020 17:00:56	26012020	260120	170056	99.760	12.230602	-56.330257	99.920	-0.650	0.520	0.520	99.770	-0.900	0.900																			1580058056.0	11.04	20.45
26/01/2020 17:00:57	26012020	260120	170057	99.860	12.230590	-56.330203	100.150	-0.370	0.430	0.330	99.900	-0.900	0.700																			1580058057.0	11.26	20.85
26/01/2020 17:00:58	26012020	260120	170058	100.110	12.230580	-56.330152	100.510	-0.050	0.280	0.110	100.180	-1.000	0.500																			1580058058.0	11.31	20.95
26/01/2020 17:00:59	26012020	260120	170059	100.480	12.230570	-56.330102	100.880	0.270	-0.060	-0.050	100.560	-1.300	0.300	1015.10	26.30	26.40	19.40	19.50	890.00	66.00	66.00	375.00	29.40	355.00	9.40	88.00	3.80	64849	3244.00	27.70	27.60	1580058059.0	11.16	20.67
26/01/2020 17:01:00	26012020	260120	170100	100.840	12.230562	-56.330050	101.020	0.660	-0.670	0.050	100.890	-1.800	0.300																			1580058060.0	10.99	20.35
26/01/2020 17:01:01	26012020	260120	170101	100.950	12.230552	-56.329997	100.920	0.890	-1.100	0.350	100.940	-2.400	0.600																			1580058061.0	11.07	20.50
26/01/2020 17:01:02	26012020	260120	170102	100.830	12.230543	-56.329943	100.770	0.660	-0.750	0.660	100.830	-2.500	0.700																			1580058062.0	11.42	21.15
26/01/2020 17:01:03	26012020	260120	170103	100.690	12.230533	-56.329897	100.630	0.160	-0.140	0.780	100.660	-1.700	1.100																			1580058063.0	11.24	20.82
26/01/2020 17:01:04	26012020	260120	170104	100.550	12.230525	-56.329848	100.420	-0.120	-0.270	0.660	100.510	-1.500	1.100																			1580058064.0	10.33	19.13
26/01/2020 17:01:05	26012020	260120	170105	100.330	12.230515	-56.329797	100.230	-0.040	-0.990	0.660	100.290	-2.100	1.000																			1580058065.0	10.22	18.93
26/01/2020 17:01:06	26012020	260120	170106	100.150	12.230503	-56.329740	100.160	-0.040	-1.120	0.850	100.120	-2.600	1.100																			1580058066.0	11.32	20.96
26/01/2020 17:01:07	26012020	260120	170107	100.090	12.230492	-56.329687	100.160	-0.370	-0.310	0.980	100.080	-2.000	1.300																			1580058067.0	12.12	22.45
26/01/2020 17:01:08	26012020	260120	170108	100.090	12.230478	-56.329638	100.220	-0.800	0.670	0.940	100.090	-1.000	1.300																			1580058068.0	11.49	21.28
26/01/2020 17:01:09	26012020	260120	170109	100.160	12.230467	-56.329592	100.410	-0.950	0.970	0.730	100.190	-0.400	1.200																			1580058069.0	10.50	19.45
26/01/2020 17:01:10	26012020	260120	170110	100.360	12.230455	-56.329542	100.650	-0.620	0.410	0.340	100.400	-0.700	0.800																			1580058070.0	10.34	19.15
26/01/2020 17:01:11	26012020	260120	170111	100.610	12.230445	-56.329487	100.840	0.050	-0.400	-0.060	100.660	-1.500	0.400																			1580058071.0	10.96	20.30
26/01/2020 17:01:12	26012020	260120	170112	100.810	12.230437	-56.329432	100.980	0.620	-0.650	-0.280	100.840	-2.000	0.100																			1580058072.0	11.70	21.67
26/01/2020 17:01:13	26012020	260120	170113	100.950	12.230428	-56.329380	101.130	0.770	-0.350	-0.260	100.980	-1.900	0.100																			1580058073.0	11.81	21.87
26/01/2020 17:01:14	26012020	260120	170114	101.110	12.230420	-56.329332	101.290	0.630	-0.110	-0.120	101.110	-1.700	0.100																			1580058074.0	11.07	20.50
26/01/2020 17:01:15	26012020	260120	170115	101.260	12.230410	-56.329283	101.300	0.480	-0.230	0.080	101.270	-1.500	0.400																			1580058075.0	10.41	19.28
26/01/2020 17:01:16	26012020	260120	170116	101.240	12.230402	-56.329232	101.110	0.340	-0.560	0.400	101.240	-1.600	0.400																			1580058076.0	10.54	19.52
26/01/2020 17:01:17	26012020	260120	170117	101.040	12.230390	-56.329180	100.920	0.100	-0.700	0.680	100.990	-2.100	0.900																			1580058077.0	10.99	20.35
26/01/2020 17:01:18	26012020	260120	170118	100.840	12.230378	-56.329128	100.820	-0.270	-0.480	0.830	100.820	-2.000	1.100																			1580058078.0	11.27	20.87
26/01/2020 17:01:19	26012020	260120	170119	100.750	12.230367	-56.329080	100.720	-0.570	-0.270	0.780	100.730	-1.700	1.200																			1580058079.0	11.07	20.50
26/01/2020 17:01:20	26012020	260120	170120	100.640	12.230357	-56.329028	100.550	-0.560	-0.380	0.640	100.610	-1.700	1.000																			1580058080.0	10.75	19.91
26/01/2020 17:01:21	26012020	260120	170121	100.480	12.230345	-56.328977	100.430	-0.330	-0.550	0.490	100.440	-1.900	0.900																			1580058081.0	10.91	20.21
26/01/2020 17:01:22	26012020	260120	170122	100.370	12.230332	-56.328923	100.400	-0.090	-0.450	0.390	100.350	-1.900	0.800																			1580058082.0	11.39	21.09
26/01/2020 17:01:23	26012020	260120	170123	100.350	12.230320	-56.328872	100.510	-0.070	0.080	0.220	100.370	-1.500	0.600																			1580058083.0	11.53	21.35
26/01/2020 17:01:24	26012020	260120	170124	100.480	12.230310	-56.328823	100.670	-0.190	0.660	0.020	100.510	-0.900	0.400																			1580058084.0	11.23	20.80
26/01/2020 17:01:25	26012020	260120	170125	100.640	12.230300	-56.328775	100.780	-0.140	0.640	-0.130	100.660	-0.600	0.300																			1580058085.0	10.63	19.69
26/01/2020 17:01:26	26012020	260120	170126	100.740	12.230292	-56.328723	100.850	0.210	-0.040	-0.180	100.760	-1.200	0.200																			1580058086.0	10.43	19.32
26/01/2020 17:01:27	26012020	260120	170127	100.810	12.230282	-56.328670	100.900	0.620	-0.700	-0.030	100.820	-1.900	0.300																			1580058087.0	11.00	20.37
26/01/2020 17:01:28	26012020	260120	170128	100.860	12.230272	-56.328617	100.970	0.760	-0.820	0.130	100.860	-2.100	0.300																			1580058088.0	11.60	21.48
26/01/2020 17:01:29	26012020	260120	170129	100.930	12.230262	-56.328565	101.050	0.530	-0.430	0.310	100.950	-2.000	0.600																			1580058089.0	11.47	21.24
26/01/2020 17:01:30	26012020	260120	170130	101.010	12.230253	-56.328517	101.070	0.100	-0.120	0.620	101.020	-1.600	0.900																			1580058090.0	10.83	20.06
26/01/2020 17:01:31	26012020	260120	170131	101.020	12.230243	-56.328468	101.000	-0.240	-0.270	0.910	101.010	-1.500	1.200																			1580058091.0	10.35	19.17
26/01/2020 17:01:32	26012020	260120	170132	100.930	12.230230	-56.328418	100.830	-0.270	-0.730	1.030	100.900	-2.000	1.300																			1580058092.0	10.51	19.46
26/01/2020 17:01:33	26012020	260120	170133	100.750	12.230218	-56.328365	100.540	-0.150	-0.990	1.050	100.690	-2.300	1.400																			1580058093.0	11.14	20.63
26/01/2020 17:01:34	26012020	260120	170134	100.450	12.230207	-56.328312	100.310	-0.150	-0.760	0.960	100.390	-2.300	1.400																			1580058094.0	11.58	21.45
26/01/2020 17:01:35	26012020	260120	170135	100.230	12.230195	-56.328260	100.310	-0.390	-0.080	0.750	100.220	-1.700	1.200																			1580058095.0	11.49	21.28
26/01/2020 17:01:36	26012020	260120	170136	100.260	12.230185	-56.328212	100.430	-0.650	0.540	0.440	100.280	-1.000	0.900																			1580058096.0	11.07	20.50
26/01/2020 17:01:37	26012020	260120	170137	100.390	12.230173	-56.328162	100.580	-0.630	0.550	0.060	100.420	-0.800	0.500																			1580058097.0	10.60	19.63
26/01/2020 17:01:38	26012020	260120	170138	100.540	12.230163	-56.328110	100.770	-0.260	0.130	-0.200	100.570	-1.100	0.200																			1580058098.0	10.66	19.74
26/01/2020 17:01:39	26012020	260120	170139	100.750	12.230152	-56.328057	101.080	0.280	-0.160	-0.340	100.810	-1.500	0.000																			1580058099.0	11.22	20.78
26/01/2020 17:01:40	26012020	260120	170140	101.060	12.230142	-56.328005	101.330	0.700	-0.250	-0.360	101.120	-1.600	-0.000																			1580058100.0	11.50	21.30
26/01/2020 17:01:41	26012020	260120	170141	101.310	12.230133	-56.327955	101.420	0.870	-0.330	-0.220	101.330	-1.700	0.100																			1580058101.0	11.17	20.69
26/01/2020 17:01:42	26012020	260120	170142	101.380	12.230125	-56.327903	101.410	0.720	-0.310	0.050	101.380	-1.700	0.300																			1580058102.0	10.90	20.19
26/01/2020 17:01:43	26012020	260120	170143	101.360	12.230117	-56.327855	101.310	0.370	-0.310	0.410	101.340	-1.700	0.600																			1580058103.0	10.85	20.09
26/01/2020 17:01:44	26012020	260120	170144	101.240	12.230107	-56.327805	101.120	0.020	-0.560	0.770	101.210	-1.800	1.000																			1580058104.0	10.68	19.78
26/01/2020 17:01:45	26012020	260120	170145	101.040	12.230093	-56.327753	100.820	-0.190	-0.920	1.100	100.980	-2.200	1.300																			1580058105.0	10.78	19.96
26/01/2020 17:01:46	26012020	260120	170146	100.720	12.230082	-56.327700	100.470	-0.290	-0.990	1.260	100.640	-2.400	1.600																			1580058106.0	11.18	20.71
26/01/2020 17:01:47	26012020	260120	170147	100.370	12.230068	-56.327648	100.280	-0.360	-0.600	1.070	100.320	-2.200	1.500																			1580058107.0	11.46	21.22
26/01/2020 17:01:48	26012020	260120	170148	100.210	12.230057	-56.327598	100.350	-0.460	0.050	0.700	100.210	-1.600	1.200																			1580058108.0	11.31	20.95
26/01/2020 17:01:49	26012020	260120	170149	100.310	12.230045	-56.327548	100.580	-0.520	0.540	0.320	100.350	-1.000	0.800																			1580058109.0	10.93	20.24
26/01/2020 17:01:50	26012020	260120	170150	100.550	12.230035	-56.327500	100.830	-0.450	0.530	-0.010	100.610	-0.800	0.400																			1580058110.0	10.68	19.78
26/01/2020 17:01:51	26012020	260120	170151	100.790	12.230023	-56.327448	100.970	-0.150	0.100	-0.150	100.830	-1.100	0.200																			1580058111.0	10.78	19.96
26/01/2020 17:01:52	26012020	260120	170152	100.930	12.230013	-56.327395	101.070	0.210	-0.240	-0.190	100.930	-1.300	0.200																			1580058112.0	11.16	20.67
26/01/2020 17:01:53	26012020	260120	170153	101.030	12.230003	-56.327343	101.160	0.420	-0.280	-0.150	101.050	-1.700	0.200																			1580058113.0	11.47	21.24
26/01/2020 17:01:54	26012020	260120	170154	101.110	12.229995	-56.327293	101.130	0.480	-0.380	0.040	101.110	-1.700	0.300																			1580058114.0	11.17	20.69
26/01/2020 17:01:55	26012020	260120	170155	101.060	12.229985	-56.327242	101.010	0.440	-0.650	0.320	101.040	-1.900	0.600																			1580058115.0	10.76	19.93
26/01/2020 17:01:56	26012020	260120	170156	100.920	12.229975	-56.327190	100.830	0.310	-0.800	0.620	100.880	-2.200	0.900																			1580058116.0	10.90	20.19
26/01/2020 17:01:57	26012020	260120	170157	100.740	12.229965	-56.327138	100.710	0.100	-0.690	0.810	100.710	-2.100	1.100																			1580058117.0	11.15	20.65
26/01/2020 17:01:58	26012020	260120	170158	100.620	12.229953	-56.327088	100.550	-0.090	-0.430	0.880	100.600	-1.900	1.200																			1580058118.0	11.14	20.63
26/01/2020 17:01:59	26012020	260120	170159	100.460	12.229942	-56.327038	100.250	-0.200	-0.280	0.990	100.400	-1.700	1.300	1015.10	26.30	26.30	19.60	19.70	888.00	66.00	66.00	376.00	29.40	353.00	10.20	86.00	4.60	64742	3408.00	27.70	27.70	1580058119.0	10.98	20.33
26/01/2020 17:02:00	26012020	260120	170200	100.150	12.229928	-56.326987	100.090	-0.260	-0.080	0.920	100.100	-1.600	1.300																			1580058120.0	10.99	20.35
26/01/2020 17:02:01	26012020	260120	170201	100.030	12.229918	-56.326935	100.280	-0.370	0.340	0.550	100.050	-1.200	1.000																			1580058121.0	11.22	20.78
26/01/2020 17:02:02	26012020	260120	170202	100.260	12.229908	-56.326885	100.570	-0.480	0.550	0.220	100.320	-0.900	0.700																			1580058122.0	11.11	20.58
26/01/2020 17:02:03	26012020	260120	170203	100.530	12.229898	-56.326835	100.690	-0.370	0.160	0.120	100.560	-1.000	0.500																			1580058123.0	10.70	19.82
26/01/2020 17:02:04	26012020	260120	170204	100.620	12.229888	-56.326782	100.830	-0.040	-0.440	0.180	100.640	-1.200	0.500																			1580058124.0	10.82	20.04
26/01/2020 17:02:05	26012020	260120	170205	100.780	12.229877	-56.326730	101.010	0.280	-0.630	0.310	100.820	-2.000	0.600																			1580058125.0	11.38	21.08
26/01/2020 17:02:06	26012020	260120	170206	100.970	12.229865	-56.326678	101.090	0.430	-0.420	0.320	100.970	-2.000	0.700																			1580058126.0	11.50	21.30
26/01/2020 17:02:07	26012020	260120	170207	101.030	12.229855	-56.326630	101.020	0.450	-0.350	0.170	101.030	-1.700	0.600																			1580058127.0	10.94	20.26
26/01/2020 17:02:08	26012020	260120	170208	100.950	12.229848	-56.326580	100.890	0.410	-0.530	0.110	100.930	-1.800	0.500																			1580058128.0	10.56	19.56
26/01/2020 17:02:09	26012020	260120	170209	100.830	12.229840	-56.326527	100.820	0.240	-0.640	0.110	100.820	-2.000	0.500																			1580058129.0	10.86	20.11
26/01/2020 17:02:10	26012020	260120	170210	100.760	12.229830	-56.326475	100.710	-0.010	-0.590	0.310	100.750	-2.000	0.600																			1580058130.0	11.21	20.76
26/01/2020 17:02:11	26012020	260120	170211	100.640	12.229818	-56.326423	100.470	-0.220	-0.460	0.730	100.590	-1.900	0.900																			1580058131.0	11.15	20.65
26/01/2020 17:02:12	26012020	260120	170212	100.380	12.229805	-56.326373	100.180	-0.350	-0.240	1.060	100.310	-1.700	1.300																			1580058132.0	11.12	20.59
26/01/2020 17:02:13	26012020	260120	170213	100.090	12.229792	-56.326322	100.080	-0.390	-0.020	0.990	100.050	-1.500	1.400																			1580058133.0	11.18	20.71
26/01/2020 17:02:14	26012020	260120	170214	100.010	12.229782	-56.326270	100.230	-0.380	0.160	0.630	100.030	-1.300	1.100																			1580058134.0	11.16	20.67
26/01/2020 17:02:15	26012020	260120	170215	100.190	12.229772	-56.326218	100.530	-0.340	0.330	0.310	100.250	-1.100	0.800																			1580058135.0	11.14	20.63
26/01/2020 17:02:16	26012020	260120	170216	100.490	12.229762	-56.326168	100.770	-0.240	0.330	0.140	100.550	-1.000	0.500																			1580058136.0	11.09	20.54
26/01/2020 17:02:17	26012020	260120	170217	100.730	12.229750	-56.326118	100.900	0.040	-0.000	0.170	100.760	-1.200	0.500																			1580058137.0	10.94	20.26
26/01/2020 17:02:18	26012020	260120	170218	100.840	12.229740	-56.326065	101.010	0.400	-0.460	0.240	100.860	-1.700	0.600																			1580058138.0	10.96	20.30
26/01/2020 17:02:19	26012020	260120	170219	100.960	12.229730	-56.326013	101.170	0.520	-0.550	0.220	100.990	-1.900	0.600																			1580058139.0	11.27	20.87
26/01/2020 17:02:20	26012020	260120	170220	101.120	12.229722	-56.325963	101.220	0.340	-0.340	0.190	101.140	-1.800	0.600																			1580058140.0	11.33	20.98
26/01/2020 17:02:21	26012020	260120	170221	101.150	12.229712	-56.325913	101.100	0.150	-0.350	0.290	101.140	-1.700	0.600																			1580058141.0	10.81	20.02
26/01/2020 17:02:22	26012020	260120	170222	101.010	12.229702	-56.325863	100.920	0.100	-0.660	0.430	100.980	-1.900	0.700																			1580058142.0	10.52	19.48
26/01/2020 17:02:23	26012020	260120	170223	100.830	12.229690	-56.325810	100.730	0.100	-0.800	0.510	100.790	-2.200	0.900																			1580058143.0	10.91	20.21
26/01/2020 17:02:24	26012020	260120	170224	100.630	12.229680	-56.325758	100.500	0.020	-0.660	0.420	100.590	-2.100	0.800																			1580058144.0	11.33	20.98
26/01/2020 17:02:25	26012020	260120	170225	100.410	12.229670	-56.325707	100.290	-0.070	-0.470	0.400	100.360	-1.900	0.800																			1580058145.0	11.23	20.80
26/01/2020 17:02:26	26012020	260120	170226	100.200	12.229660	-56.325655	100.210	-0.160	-0.260	0.430	100.170	-1.700	0.800																			1580058146.0	11.05	20.46
26/01/2020 17:02:27	26012020	260120	170227	100.150	12.229650	-56.325603	100.300	-0.330	0.070	0.340	100.160	-1.400	0.700																			1580058147.0	11.18	20.71
26/01/2020 17:02:28	26012020	260120	170228	100.250	12.229638	-56.325552	100.450	-0.550	0.440	0.310	100.250	-1.300	0.700																			1580058148.0	11.25	20.84
26/01/2020 17:02:29	26012020	260120	170229	100.390	12.229627	-56.325503	100.610	-0.580	0.490	0.400	100.420	-0.800	0.700																			1580058149.0	11.04	20.45
26/01/2020 17:02:30	26012020	260120	170230	100.550	12.229613	-56.325452	100.790	-0.250	0.060	0.290	100.550	-0.900	0.700																			1580058150.0	10.85	20.09
26/01/2020 17:02:31	26012020	260120	170231	100.730	12.229602	-56.325398	100.910	0.290	-0.510	0.040	100.760	-1.700	0.500																			1580058151.0	11.06	20.48
26/01/2020 17:02:32	26012020	260120	170232	100.850	12.229593	-56.325345	100.950	0.650	-0.650	-0.210	100.860	-2.000	0.200																			1580058152.0	11.51	21.32
26/01/2020 17:02:33	26012020	260120	170233	100.890	12.229585	-56.325293	100.910	0.580	-0.210	-0.200	100.880	-1.800	0.100																			1580058153.0	11.58	21.45
26/01/2020 17:02:34	26012020	260120	170234	100.840	12.229577	-56.325245	100.820	0.190	0.270	0.040	100.820	-1.200	0.300																			1580058154.0	11.05	20.46
26/01/2020 17:02:35	26012020	260120	170235	100.740	12.229568	-56.325198	100.760	-0.130	0.100	0.300	100.720	-1.100	0.600																			1580058155.0	10.33	19.13
26/01/2020 17:02:36	26012020	260120	170236	100.670	12.229558	-56.325147	100.690	-0.090	-0.720	0.560	100.660	-1.800	0.800																			1580058156.0	10.28	19.04
26/01/2020 17:02:37	26012020	260120	170237	100.590	12.229545	-56.325092	100.500	0.160	-1.390	0.820	100.550	-2.600	1.100																			1580058157.0	11.03	20.43
26/01/2020 17:02:38	26012020	260120	170238	100.380	12.229533	-56.325038	100.260	0.230	-1.160	0.980	100.330	-2.700	1.300																			1580058158.0	11.81	21.87
26/01/2020 17:02:39	26012020	260120	170239	100.140	12.229522	-56.324988	100.110	-0.000	-0.280	0.960	100.100	-2.000	1.300																			1580058159.0	11.77	21.80
26/01/2020 17:02:40	26012020	260120	170240	100.000	12.229512	-56.324940	100.110	-0.280	0.290	0.680	100.000	-1.600	1.300																			1580058160.0	10.90	20.19
26/01/2020 17:02:41	26012020	260120	170241	100.020	12.229503	-56.324890	100.180	-0.370	0.210	0.320	100.040	-1.100	0.800																			1580058161.0	10.33	19.13
26/01/2020 17:02:42	26012020	260120	170242	100.110	12.229493	-56.324837	100.260	-0.290	-0.070	0.190	100.110	-1.100	0.700																			1580058162.0	10.79	19.98
26/01/2020 17:02:43	26012020	260120	170243	100.180	12.229483	-56.324783	100.310	-0.160	-0.170	0.240	100.190	-1.500	0.600																			1580058163.0	11.46	21.22
26/01/2020 17:02:44	26012020	260120	170244	100.230	12.229472	-56.324732	100.430	-0.080	-0.110	0.290	100.250	-1.500	0.600																			1580058164.0	11.54	21.37
26/01/2020 17:02:45	26012020	260120	170245	100.360	12.229462	-56.324680	100.610	-0.050	-0.050	0.320	100.390	-1.400	0.700																			1580058165.0	11.25	20.84
26/01/2020 17:02:46	26012020	260120	170246	100.540	12.229452	-56.324630	100.800	0.000	0.030	0.320	100.570	-1.400	0.700																			1580058166.0	11.02	20.41
26/01/2020 17:02:47	26012020	260120	170247	100.730	12.229442	-56.324578	100.910	0.130	-0.040	0.290	100.760	-1.300	0.700																			1580058167.0	10.95	20.28
26/01/2020 17:02:48	26012020	260120	170248	100.830	12.229432	-56.324528	100.930	0.350	-0.360	0.240	100.840	-1.600	0.600																			1580058168.0	10.86	20.11
26/01/2020 17:02:49	26012020	260120	170249	100.840	12.229422	-56.324475	100.960	0.470	-0.570	0.050	100.840	-1.900	0.500																			1580058169.0	11.00	20.37
26/01/2020 17:02:50	26012020	260120	170250	100.880	12.229413	-56.324423	101.070	0.340	-0.420	-0.180	100.900	-1.900	0.200																			1580058170.0	11.30	20.93
26/01/2020 17:02:51	26012020	260120	170251	101.010	12.229407	-56.324373	101.200	0.070	-0.240	-0.240	101.040	-1.600	0.100																			1580058171.0	11.12	20.59
26/01/2020 17:02:52	26012020	260120	170252	101.120	12.229397	-56.324323	101.190	-0.120	-0.310	-0.090	101.140	-1.600	0.200																			1580058172.0	10.73	19.87
26/01/2020 17:02:53	26012020	260120	170253	101.090	12.229385	-56.324272	101.060	-0.190	-0.490	0.130	101.070	-1.800	0.400																			1580058173.0	10.76	19.93
26/01/2020 17:02:54	26012020	260120	170254	100.950	12.229373	-56.324220	100.950	-0.200	-0.570	0.320	100.930	-1.900	0.600																			1580058174.0	11.13	20.61
26/01/2020 17:02:55	26012020	260120	170255	100.860	12.229362	-56.324168	100.910	-0.170	-0.510	0.340	100.840	-1.900	0.700																			1580058175.0	11.30	20.93
26/01/2020 17:02:56	26012020	260120	170256	100.820	12.229350	-56.324117	100.870	-0.080	-0.480	0.230	100.820	-1.900	0.700																			1580058176.0	11.24	20.82
26/01/2020 17:02:57	26012020	260120	170257	100.780	12.229338	-56.324065	100.790	0.010	-0.370	0.160	100.770	-1.800	0.500																			1580058177.0	11.18	20.71
26/01/2020 17:02:58	26012020	260120	170258	100.710	12.229328	-56.324012	100.790	-0.020	0.010	0.040	100.700	-1.500	0.400																			1580058178.0	11.33	20.98
26/01/2020 17:02:59	26012020	260120	170259	100.720	12.229318	-56.323962	100.870	-0.150	0.370	-0.180	100.730	-1.100	0.300	1015.00	26.20	26.30	19.70	19.70	893.00	67.00	67.00	375.00	29.40	355.00	9.50	88.00	3.80	64850	3438.00	27.70	27.70	1580058179.0	11.28	20.89
26/01/2020 17:03:00	26012020	260120	170300	100.810	12.229308	-56.323912	100.940	-0.200	0.310	-0.290	100.830	-1.000	0.100																			1580058180.0	10.90	20.19
26/01/2020 17:03:01	26012020	260120	170301	100.870	12.229298	-56.323860	100.980	-0.120	-0.000	-0.170	100.880	-1.200	0.100																			1580058181.0	10.87	20.13
26/01/2020 17:03:02	26012020	260120	170302	100.910	12.229287	-56.323807	101.100	0.030	-0.230	0.020	100.930	-1.500	0.300																			1580058182.0	11.24	20.82
26/01/2020 17:03:03	26012020	260120	170303	101.030	12.229275	-56.323755	101.230	0.140	-0.330	0.200	101.050	-1.700	0.500																			1580058183.0	11.40	21.11
26/01/2020 17:03:04	26012020	260120	170304	101.140	12.229265	-56.323705	101.260	0.140	-0.380	0.290	101.160	-1.700	0.600																			1580058184.0	11.19	20.72
26/01/2020 17:03:05	26012020	260120	170305	101.160	12.229253	-56.323653	101.240	0.070	-0.370	0.430	101.160	-1.700	0.700																			1580058185.0	11.02	20.41
26/01/2020 17:03:06	26012020	260120	170306	101.140	12.229242	-56.323603	101.210	0.050	-0.400	0.510	101.140	-1.700	0.900																			1580058186.0	10.95	20.28
26/01/2020 17:03:07	26012020	260120	170307	101.100	12.229232	-56.323553	101.050	0.170	-0.610	0.440	101.070	-1.900	0.800																			1580058187.0	10.88	20.15
26/01/2020 17:03:08	26012020	260120	170308	100.930	12.229220	-56.323500	100.810	0.330	-0.830	0.290	100.930	-2.000	0.800																			1580058188.0	11.01	20.39
26/01/2020 17:03:09	26012020	260120	170309	100.690	12.229212	-56.323447	100.650	0.300	-0.630	0.100	100.660	-2.100	0.500																			1580058189.0	11.37	21.06
26/01/2020 17:03:10	26012020	260120	170310	100.570	12.229203	-56.323395	100.670	-0.010	-0.000	-0.000	100.560	-1.600	0.400																			1580058190.0	11.48	21.26
26/01/2020 17:03:11	26012020	260120	170311	100.600	12.229193	-56.323347	100.760	-0.390	0.440	0.040	100.620	-1.000	0.400																			1580058191.0	11.06	20.48
26/01/2020 17:03:12	26012020	260120	170312	100.680	12.229182	-56.323297	100.780	-0.540	0.220	0.260	100.690	-1.000	0.500																			1580058192.0	10.58	19.59
26/01/2020 17:03:13	26012020	260120	170313	100.700	12.229168	-56.323243	100.810	-0.340	-0.400	0.470	100.700	-1.500	0.800																			1580058193.0	10.79	19.98
26/01/2020 17:03:14	26012020	260120	170314	100.720	12.229155	-56.323188	100.890	-0.010	-0.610	0.580	100.740	-2.000	0.900																			1580058194.0	11.52	21.34
26/01/2020 17:03:15	26012020	260120	170315	100.800	12.229143	-56.323137	100.900	0.160	-0.320	0.550	100.810	-1.800	0.900																			1580058195.0	11.86	21.96
26/01/2020 17:03:16	26012020	260120	170316	100.810	12.229133	-56.323087	100.870	0.190	-0.120	0.330	100.810	-1.500	0.800																			1580058196.0	11.33	20.98
26/01/2020 17:03:17	26012020	260120	170317	100.790	12.229125	-56.323035	100.860	0.230	-0.260	0.150	100.790	-1.500	0.600																			1580058197.0	10.80	20.00
26/01/2020 17:03:18	26012020	260120	170318	100.780	12.229117	-56.322983	100.920	0.260	-0.420	0.040	100.790	-1.700	0.400																			1580058198.0	10.99	20.35
26/01/2020 17:03:19	26012020	260120	170319	100.860	12.229107	-56.322930	101.120	0.140	-0.240	0.010	100.890	-1.700	0.400																			1580058199.0	11.37	21.06
26/01/2020 17:03:20	26012020	260120	170320	101.080	12.229097	-56.322878	101.370	-0.150	0.170	0.140	101.080	-1.600	0.400																			1580058200.0	11.38	21.08
26/01/2020 17:03:21	26012020	260120	170321	101.320	12.229085	-56.322830	101.470	-0.370	0.250	0.300	101.360	-1.100	0.600																			1580058201.0	10.92	20.22
26/01/2020 17:03:22	26012020	260120	170322	101.390	12.229072	-56.322780	101.410	-0.270	-0.180	0.460	101.380	-1.400	0.800																			1580058202.0	10.60	19.63
26/01/2020 17:03:23	26012020	260120	170323	101.320	12.229060	-56.322727	101.360	0.040	-0.580	0.520	101.310	-1.800	0.900																			1580058203.0	10.96	20.30
26/01/2020 17:03:24	26012020	260120	170324	101.270	12.229048	-56.322675	101.280	0.280	-0.670	0.480	101.250	-2.000	0.900																			1580058204.0	11.50	21.30
26/01/2020 17:03:25	26012020	260120	170325	101.180	12.229038	-56.322623	101.180	0.320	-0.590	0.370	101.170	-2.000	0.800																			1580058205.0	11.42	21.15
26/01/2020 17:03:26	26012020	260120	170326	101.090	12.229028	-56.322572	101.050	0.170	-0.400	0.320	101.070	-1.800	0.700																			1580058206.0	11.13	20.61
26/01/2020 17:03:27	26012020	260120	170327	100.970	12.229020	-56.322520	100.900	-0.050	-0.180	0.360	100.930	-1.600	0.700																			1580058207.0	11.04	20.45
26/01/2020 17:03:28	26012020	260120	170328	100.810	12.229008	-56.322470	100.780	-0.110	-0.220	0.360	100.780	-1.500	0.700																			1580058208.0	10.96	20.30
26/01/2020 17:03:29	26012020	260120	170329	100.700	12.228998	-56.322417	100.770	0.010	-0.420	0.380	100.690	-1.700	0.700																			1580058209.0	11.00	20.37
26/01/2020 17:03:30	26012020	260120	170330	100.700	12.228987	-56.322363	100.840	0.100	-0.440	0.470	100.710	-1.800	0.800																			1580058210.0	11.38	21.08
26/01/2020 17:03:31	26012020	260120	170331	100.760	12.228975	-56.322312	100.890	-0.030	-0.080	0.660	100.770	-1.600	0.900																			1580058211.0	11.60	21.48
26/01/2020 17:03:32	26012020	260120	170332	100.790	12.228963	-56.322262	100.920	-0.270	0.360	0.740	100.790	-1.400	1.000																			1580058212.0	11.37	21.06
26/01/2020 17:03:33	26012020	260120	170333	100.830	12.228952	-56.322212	101.030	-0.380	0.360	0.610	100.850	-0.900	1.000																			1580058213.0	10.84	20.08
26/01/2020 17:03:34	26012020	260120	170334	100.940	12.228942	-56.322162	101.140	-0.210	-0.140	0.400	100.970	-1.300	0.800																			1580058214.0	10.67	19.76
26/01/2020 17:03:35	26012020	260120	170335	101.040	12.228932	-56.322107	101.130	0.090	-0.670	0.110	101.050	-1.900	0.600																			1580058215.0	11.09	20.54
26/01/2020 17:03:36	26012020	260120	170336	101.030	12.228922	-56.322053	101.070	0.280	-0.780	-0.070	101.010	-2.100	0.300																			1580058216.0	11.59	21.46
26/01/2020 17:03:37	26012020	260120	170337	100.980	12.228912	-56.322002	101.060	0.250	-0.410	-0.010	100.980	-1.900	0.300																			1580058217.0	11.60	21.48
26/01/2020 17:03:38	26012020	260120	170338	100.970	12.228902	-56.321952	101.080	0.070	0.030	0.120	100.980	-1.400	0.400																			1580058218.0	11.14	20.63
26/01/2020 17:03:39	26012020	260120	170339	100.990	12.228892	-56.321903	101.040	-0.010	-0.020	0.270	100.980	-1.300	0.600																			1580058219.0	10.64	19.71
26/01/2020 17:03:40	26012020	260120	170340	100.930	12.228882	-56.321852	100.970	0.080	-0.410	0.440	100.920	-1.600	0.700																			1580058220.0	10.61	19.65
26/01/2020 17:03:41	26012020	260120	170341	100.860	12.228870	-56.321797	100.980	0.090	-0.510	0.590	100.860	-1.900	0.900																			1580058221.0	11.24	20.82
26/01/2020 17:03:42	26012020	260120	170342	100.880	12.228858	-56.321745	101.050	-0.090	-0.230	0.740	100.900	-1.700	1.000																			1580058222.0	11.61	21.50
26/01/2020 17:03:43	26012020	260120	170343	100.940	12.228847	-56.321697	101.020	-0.210	-0.080	0.770	100.950	-1.400	1.100																			1580058223.0	11.21	20.76
26/01/2020 17:03:44	26012020	260120	170344	100.900	12.228835	-56.321645	100.860	-0.050	-0.400	0.620	100.880	-1.600	1.000																			1580058224.0	10.78	19.96
26/01/2020 17:03:45	26012020	260120	170345	100.740	12.228825	-56.321592	100.660	0.260	-0.780	0.400	100.700	-2.000	0.800																			1580058225.0	11.00	20.37
26/01/2020 17:03:46	26012020	260120	170346	100.550	12.228817	-56.321537	100.620	0.340	-0.550	0.150	100.550	-2.100	0.800																			1580058226.0	11.65	21.58
26/01/2020 17:03:47	26012020	260120	170347	100.560	12.228808	-56.321485	100.850	-0.020	0.180	-0.070	100.590	-1.400	0.300																			1580058227.0	11.73	21.72
26/01/2020 17:03:48	26012020	260120	170348	100.800	12.228798	-56.321437	101.080	-0.530	0.600	-0.010	100.850	-0.800	0.300																			1580058228.0	11.02	20.41
26/01/2020 17:03:49	26012020	260120	170349	101.010	12.228787	-56.321388	101.170	-0.710	0.300	0.150	101.030	-0.900	0.500																			1580058229.0	10.42	19.30
26/01/2020 17:03:50	26012020	260120	170350	101.090	12.228773	-56.321335	101.240	-0.360	-0.370	0.160	101.100	-1.500	0.500																			1580058230.0	10.69	19.80
26/01/2020 17:03:51	26012020	260120	170351	101.150	12.228762	-56.321282	101.310	0.200	-0.740	0.040	101.160	-2.000	0.400																			1580058231.0	11.42	21.15
26/01/2020 17:03:52	26012020	260120	170352	101.230	12.228750	-56.321228	101.350	0.520	-0.660	-0.150	101.250	-2.100	0.300																			1580058232.0	11.74	21.74
26/01/2020 17:03:53	26012020	260120	170353	101.260	12.228742	-56.321178	101.260	0.500	-0.350	-0.210	101.250	-1.800	0.100																			1580058233.0	11.38	21.08
26/01/2020 17:03:54	26012020	260120	170354	101.170	12.228733	-56.321128	101.130	0.270	-0.090	-0.100	101.150	-1.500	0.200																			1580058234.0	10.94	20.26
26/01/2020 17:03:55	26012020	260120	170355	101.040	12.228723	-56.321078	101.030	0.060	-0.160	0.090	101.010	-1.400	0.400																			1580058235.0	10.74	19.89
26/01/2020 17:03:56	26012020	260120	170356	100.940	12.228713	-56.321025	100.970	-0.010	-0.450	0.390	100.930	-1.700	0.600																			1580058236.0	10.84	20.08
26/01/2020 17:03:57	26012020	260120	170357	100.870	12.228702	-56.320972	100.890	-0.060	-0.520	0.720	100.860	-1.900	1.000																			1580058237.0	11.27	20.87
26/01/2020 17:03:58	26012020	260120	170358	100.780	12.228688	-56.320920	100.780	-0.190	-0.370	0.920	100.760	-1.800	1.200																			1580058238.0	11.54	21.37
26/01/2020 17:03:59	26012020	260120	170359	100.680	12.228675	-56.320870	100.730	-0.300	-0.180	0.910	100.660	-1.600	1.300	1015.10	26.20	26.30	19.70	19.80	888.00	67.00	67.00	376.00	29.40	355.00	9.50	88.00	3.80	64697	3257.00	27.70	27.70	1580058239.0	11.30	20.93
26/01/2020 17:04:00	26012020	260120	170400	100.630	12.228663	-56.320818	100.770	-0.300	-0.040	0.740	100.640	-1.400	1.200																			1580058240.0	11.07	20.50
26/01/2020 17:04:01	26012020	260120	170401	100.680	12.228653	-56.320767	100.860	-0.230	0.040	0.480	100.710	-1.300	0.900																			1580058241.0	11.07	20.50
26/01/2020 17:04:02	26012020	260120	170402	100.780	12.228643	-56.320715	100.950	-0.140	0.070	0.230	100.810	-1.300	0.700																			1580058242.0	11.12	20.59
26/01/2020 17:04:03	26012020	260120	170403	100.880	12.228633	-56.320665	101.070	0.010	-0.070	0.010	100.900	-1.400	0.400																			1580058243.0	11.11	20.58
26/01/2020 17:04:04	26012020	260120	170404	101.010	12.228623	-56.320612	101.240	0.220	-0.310	-0.120	101.050	-1.600	0.300																			1580058244.0	11.07	20.50
26/01/2020 17:04:05	26012020	260120	170405	101.190	12.228613	-56.320560	101.370	0.370	-0.420	-0.090	101.220	-1.800	0.200																			1580058245.0	11.19	20.72
26/01/2020 17:04:06	26012020	260120	170406	101.310	12.228603	-56.320508	101.360	0.370	-0.390	0.060	101.320	-1.700	0.400																			1580058246.0	11.27	20.87
26/01/2020 17:04:07	26012020	260120	170407	101.280	12.228593	-56.320458	101.200	0.330	-0.480	0.340	101.250	-1.800	0.600																			1580058247.0	11.07	20.50
26/01/2020 17:04:08	26012020	260120	170408	101.100	12.228583	-56.320407	101.040	0.280	-0.730	0.640	101.100	-1.800	0.700																			1580058248.0	10.93	20.24
26/01/2020 17:04:09	26012020	260120	170409	100.940	12.228573	-56.320353	100.950	0.110	-0.770	0.730	100.930	-2.100	1.100																			1580058249.0	11.21	20.76
26/01/2020 17:04:10	26012020	260120	170410	100.870	12.228562	-56.320300	100.890	-0.250	-0.390	0.750	100.870	-2.100	1.100																			1580058250.0	11.53	21.35
26/01/2020 17:04:11	26012020	260120	170411	100.810	12.228550	-56.320250	100.890	-0.630	0.180	0.740	100.810	-1.400	1.100																			1580058251.0	11.36	21.04
26/01/2020 17:04:12	26012020	260120	170412	100.820	12.228537	-56.320200	100.940	-0.730	0.420	0.600	100.830	-1.000	1.000																			1580058252.0	10.92	20.22
26/01/2020 17:04:13	26012020	260120	170413	100.870	12.228525	-56.320150	101.000	-0.470	0.170	0.290	100.880	-1.100	0.800																			1580058253.0	10.74	19.89
26/01/2020 17:04:14	26012020	260120	170414	100.930	12.228515	-56.320097	101.070	-0.040	-0.250	-0.010	100.950	-1.500	0.400																			1580058254.0	11.08	20.52
26/01/2020 17:04:15	26012020	260120	170415	101.010	12.228503	-56.320043	101.180	0.290	-0.350	-0.150	101.040	-1.700	0.300																			1580058255.0	11.54	21.37
26/01/2020 17:04:16	26012020	260120	170416	101.120	12.228493	-56.319992	101.310	0.400	-0.070	-0.260	101.150	-1.500	0.100																			1580058256.0	11.59	21.46
26/01/2020 17:04:17	26012020	260120	170417	101.260	12.228485	-56.319942	101.400	0.370	0.060	-0.270	101.280	-1.300	0.100																			1580058257.0	11.10	20.56
26/01/2020 17:04:18	26012020	260120	170418	101.340	12.228477	-56.319892	101.330	0.410	-0.340	-0.000	101.330	-1.500	0.200																			1580058258.0	10.59	19.61
26/01/2020 17:04:19	26012020	260120	170419	101.250	12.228467	-56.319840	101.120	0.530	-0.930	0.410	101.210	-2.100	0.600																			1580058259.0	10.75	19.91
26/01/2020 17:04:20	26012020	260120	170420	101.030	12.228455	-56.319785	100.980	0.460	-1.030	0.810	100.990	-2.400	1.000																			1580058260.0	11.40	21.11
26/01/2020 17:04:21	26012020	260120	170421	100.890	12.228443	-56.319733	100.930	0.060	-0.530	1.010	100.880	-2.100	1.300																			1580058261.0	11.69	21.65
26/01/2020 17:04:22	26012020	260120	170422	100.840	12.228432	-56.319685	100.840	-0.450	0.060	0.940	100.840	-1.900	1.400																			1580058262.0	11.22	20.78
26/01/2020 17:04:23	26012020	260120	170423	100.760	12.228420	-56.319635	100.730	-0.750	0.220	0.850	100.730	-1.100	1.200																			1580058263.0	10.65	19.72
26/01/2020 17:04:24	26012020	260120	170424	100.650	12.228408	-56.319585	100.640	-0.660	-0.090	0.770	100.620	-1.300	1.200																			1580058264.0	10.64	19.71
26/01/2020 17:04:25	26012020	260120	170425	100.560	12.228395	-56.319530	100.620	-0.320	-0.450	0.570	100.550	-1.700	1.000																			1580058265.0	11.16	20.67
26/01/2020 17:04:26	26012020	260120	170426	100.540	12.228383	-56.319477	100.650	-0.030	-0.430	0.380	100.550	-1.800	0.800																			1580058266.0	11.65	21.58
26/01/2020 17:04:27	26012020	260120	170427	100.580	12.228373	-56.319425	100.700	0.090	-0.130	0.280	100.590	-1.600	0.700																			1580058267.0	11.65	21.58
26/01/2020 17:04:28	26012020	260120	170428	100.640	12.228363	-56.319375	100.820	0.150	0.100	0.080	100.660	-1.300	0.500																			1580058268.0	11.20	20.74
26/01/2020 17:04:29	26012020	260120	170429	100.760	12.228353	-56.319323	100.970	0.270	0.100	-0.070	100.790	-1.200	0.300																			1580058269.0	10.85	20.09
26/01/2020 17:04:30	26012020	260120	170430	100.910	12.228345	-56.319272	101.070	0.390	-0.030	-0.060	100.930	-1.300	0.300																			1580058270.0	10.91	20.21
26/01/2020 17:04:31	26012020	260120	170431	101.000	12.228337	-56.319220	101.150	0.430	-0.210	0.040	101.020	-1.500	0.400																			1580058271.0	11.10	20.56
26/01/2020 17:04:32	26012020	260120	170432	101.070	12.228327	-56.319168	101.160	0.380	-0.430	0.290	101.080	-1.700	0.600																			1580058272.0	11.13	20.61
26/01/2020 17:04:33	26012020	260120	170433	101.070	12.228317	-56.319117	101.120	0.250	-0.660	0.650	101.070	-1.900	0.900																			1580058273.0	11.12	20.59
26/01/2020 17:04:34	26012020	260120	170434	101.030	12.228305	-56.319065	101.090	0.020	-0.680	0.880	101.020	-2.100	1.200																			1580058274.0	11.17	20.69
26/01/2020 17:04:35	26012020	260120	170435	100.990	12.228293	-56.319013	101.050	-0.310	-0.390	1.030	100.990	-1.900	1.400																			1580058275.0	11.26	20.85
26/01/2020 17:04:36	26012020	260120	170436	100.950	12.228282	-56.318965	100.990	-0.560	-0.170	1.050	100.950	-1.700	1.400																			1580058276.0	11.09	20.54
26/01/2020 17:04:37	26012020	260120	170437	100.870	12.228268	-56.318913	100.850	-0.530	-0.310	0.860	100.860	-1.600	1.300																			1580058277.0	10.80	20.00
26/01/2020 17:04:38	26012020	260120	170438	100.730	12.228257	-56.318862	100.670	-0.250	-0.580	0.550	100.700	-1.900	1.000																			1580058278.0	10.99	20.35
26/01/2020 17:04:39	26012020	260120	170439	100.560	12.228247	-56.318807	100.540	0.060	-0.550	0.200	100.530	-2.000	0.700																			1580058279.0	11.49	21.28
26/01/2020 17:04:40	26012020	260120	170440	100.460	12.228237	-56.318755	100.570	0.190	-0.120	-0.140	100.450	-1.700	0.300																			1580058280.0	11.66	21.59
26/01/2020 17:04:41	26012020	260120	170441	100.510	12.228228	-56.318703	100.720	0.150	0.340	-0.350	100.540	-1.200	0.100																			1580058281.0	11.35	21.02
26/01/2020 17:04:42	26012020	260120	170442	100.670	12.228220	-56.318653	100.900	0.120	0.390	-0.330	100.710	-0.900	0.000																			1580058282.0	10.87	20.13
26/01/2020 17:04:43	26012020	260120	170443	100.850	12.228210	-56.318602	101.040	0.130	0.150	-0.040	100.880	-1.100	0.200																			1580058283.0	10.80	20.00
26/01/2020 17:04:44	26012020	260120	170444	100.980	12.228198	-56.318550	101.180	0.090	-0.060	0.300	101.000	-1.400	0.600																			1580058284.0	11.18	20.71
26/01/2020 17:04:45	26012020	260120	170445	101.110	12.228188	-56.318498	101.360	0.010	-0.260	0.450	101.150	-1.500	0.800																			1580058285.0	11.28	20.89
26/01/2020 17:04:46	26012020	260120	170446	101.280	12.228177	-56.318447	101.380	-0.020	-0.570	0.540	101.300	-1.800	0.900																			1580058286.0	11.09	20.54
26/01/2020 17:04:47	26012020	260120	170447	101.290	12.228165	-56.318395	101.200	-0.000	-0.920	0.620	101.260	-2.200	1.000																			1580058287.0	11.02	20.41
26/01/2020 17:04:48	26012020	260120	170448	101.090	12.228153	-56.318343	100.920	0.070	-0.980	0.640	101.030	-2.400	1.000																			1580058288.0	11.23	20.80
26/01/2020 17:04:49	26012020	260120	170449	100.800	12.228143	-56.318292	100.680	0.130	-0.690	0.570	100.750	-2.200	1.000																			1580058289.0	11.36	21.04
26/01/2020 17:04:50	26012020	260120	170450	100.570	12.228133	-56.318240	100.600	0.070	-0.310	0.370	100.550	-1.800	0.800																			1580058290.0	11.21	20.76
26/01/2020 17:04:51	26012020	260120	170451	100.520	12.228123	-56.318188	100.660	-0.140	0.070	0.130	100.530	-1.400	0.600																			1580058291.0	11.03	20.43
26/01/2020 17:04:52	26012020	260120	170452	100.600	12.228113	-56.318138	100.730	-0.360	0.340	0.100	100.620	-1.100	0.400																			1580058292.0	11.03	20.43
26/01/2020 17:04:53	26012020	260120	170453	100.670	12.228100	-56.318087	100.790	-0.380	0.330	0.200	100.670	-1.000	0.500																			1580058293.0	11.01	20.39
26/01/2020 17:04:54	26012020	260120	170454	100.720	12.228088	-56.318035	100.880	-0.120	-0.020	0.300	100.730	-1.200	0.600																			1580058294.0	11.03	20.43
26/01/2020 17:04:55	26012020	260120	170455	100.810	12.228078	-56.317982	100.960	0.270	-0.430	0.330	100.820	-1.700	0.700																			1580058295.0	11.24	20.82
26/01/2020 17:04:56	26012020	260120	170456	100.870	12.228068	-56.317928	100.980	0.470	-0.520	0.330	100.870	-1.900	0.700																			1580058296.0	11.52	21.34
26/01/2020 17:04:57	26012020	260120	170457	100.890	12.228058	-56.317877	101.040	0.310	-0.260	0.290	100.900	-1.700	0.700																			1580058297.0	11.53	21.35
26/01/2020 17:04:58	26012020	260120	170458	100.950	12.228050	-56.317827	101.140	-0.070	0.030	0.250	100.980	-1.400	0.600																			1580058298.0	11.16	20.67
26/01/2020 17:04:59	26012020	260120	170459	101.060	12.228040	-56.317778	101.140	-0.290	-0.090	0.240	101.070	-1.400	0.600	1015.10	26.30	26.30	19.70	19.70	887.00	67.00	67.00	376.00	29.40	351.00	10.30	81.00	4.80	64538	3406.00	27.70	27.60	1580058299.0	10.72	19.85
26/01/2020 17:05:00	26012020	260120	170500	101.050	12.228028	-56.317727	100.980	-0.110	-0.710	0.250	101.050	-1.500	0.600																			1580058300.0	10.67	19.76
26/01/2020 17:05:01	26012020	260120	170501	100.860	12.228017	-56.317672	100.780	0.290	-1.140	0.300	100.820	-2.400	0.700																			1580058301.0	11.17	20.69
26/01/2020 17:05:02	26012020	260120	170502	100.670	12.228005	-56.317617	100.710	0.360	-0.670	0.220	100.650	-2.300	0.600																			1580058302.0	11.83	21.91
26/01/2020 17:05:03	26012020	260120	170503	100.620	12.227995	-56.317568	100.710	-0.070	0.290	0.090	100.620	-1.400	0.500																			1580058303.0	11.71	21.69
26/01/2020 17:05:04	26012020	260120	170504	100.620	12.227987	-56.317520	100.660	-0.540	0.660	0.080	100.610	-0.700	0.400																			1580058304.0	10.71	19.83
26/01/2020 17:05:05	26012020	260120	170505	100.560	12.227975	-56.317470	100.570	-0.490	0.020	0.090	100.540	-1.000	0.500																			1580058305.0	10.14	18.78
26/01/2020 17:05:06	26012020	260120	170506	100.480	12.227963	-56.317415	100.540	-0.060	-0.800	0.150	100.470	-1.900	0.500																			1580058306.0	10.83	20.06
26/01/2020 17:05:07	26012020	260120	170507	100.440	12.227952	-56.317360	100.550	0.210	-0.850	0.300	100.450	-2.300	0.600																			1580058307.0	11.93	22.09
26/01/2020 17:05:08	26012020	260120	170508	100.460	12.227940	-56.317308	100.560	0.090	-0.180	0.470	100.460	-1.800	0.800																			1580058308.0	12.09	22.39
26/01/2020 17:05:09	26012020	260120	170509	100.460	12.227928	-56.317260	100.560	-0.140	0.400	0.550	100.460	-1.100	0.900																			1580058309.0	11.15	20.65
26/01/2020 17:05:10	26012020	260120	170510	100.460	12.227917	-56.317212	100.530	-0.100	0.270	0.560	100.460	-1.000	0.900																			1580058310.0	10.37	19.21
26/01/2020 17:05:11	26012020	260120	170511	100.430	12.227907	-56.317160	100.460	0.270	-0.400	0.440	100.420	-1.500	0.900																			1580058311.0	10.50	19.45
26/01/2020 17:05:12	26012020	260120	170512	100.360	12.227898	-56.317105	100.460	0.600	-0.720	0.230	100.360	-1.800	0.800																			1580058312.0	11.29	20.91
26/01/2020 17:05:13	26012020	260120	170513	100.370	12.227890	-56.317052	100.610	0.460	-0.350	0.150	100.390	-1.900	0.500																			1580058313.0	11.84	21.93
26/01/2020 17:05:14	26012020	260120	170514	100.550	12.227880	-56.317003	100.830	-0.050	0.210	0.250	100.590	-1.300	0.600																			1580058314.0	11.40	21.11
26/01/2020 17:05:15	26012020	260120	170515	100.760	12.227870	-56.316955	100.920	-0.450	0.250	0.500	100.780	-1.000	0.800																			1580058315.0	10.52	19.48
26/01/2020 17:05:16	26012020	260120	170516	100.810	12.227858	-56.316905	100.770	-0.400	-0.320	0.860	100.790	-1.400	1.100																			1580058316.0	10.29	19.06
26/01/2020 17:05:17	26012020	260120	170517	100.640	12.227845	-56.316852	100.520	-0.000	-0.990	1.110	100.590	-2.100	1.400																			1580058317.0	10.88	20.15
26/01/2020 17:05:18	26012020	260120	170518	100.390	12.227832	-56.316798	100.300	0.360	-1.220	1.050	100.340	-2.600	1.500																			1580058318.0	11.58	21.45
26/01/2020 17:05:19	26012020	260120	170519	100.170	12.227822	-56.316745	100.120	0.340	-0.760	0.810	100.130	-2.300	1.300																			1580058319.0	11.77	21.80
26/01/2020 17:05:20	26012020	260120	170520	100.010	12.227813	-56.316695	100.050	-0.030	0.020	0.550	99.990	-1.600	1.000																			1580058320.0	11.40	21.11
26/01/2020 17:05:21	26012020	260120	170521	99.970	12.227805	-56.316647	100.150	-0.410	0.500	0.340	99.980	-1.000	0.800																			1580058321.0	10.76	19.93
26/01/2020 17:05:22	26012020	260120	170522	100.080	12.227795	-56.316597	100.350	-0.560	0.490	0.240	100.120	-0.800	0.600																			1580058322.0	10.51	19.46
26/01/2020 17:05:23	26012020	260120	170523	100.280	12.227785	-56.316543	100.570	-0.380	0.050	0.220	100.330	-1.100	0.600																			1580058323.0	10.83	20.06
26/01/2020 17:05:24	26012020	260120	170524	100.460	12.227773	-56.316490	100.670	0.060	-0.550	0.410	100.490	-1.300	0.600																			1580058324.0	11.25	20.84
26/01/2020 17:05:25	26012020	260120	170525	100.560	12.227760	-56.316437	100.650	0.490	-0.740	0.540	100.550	-2.100	0.900																			1580058325.0	11.61	21.50
26/01/2020 17:05:26	26012020	260120	170526	100.540	12.227750	-56.316385	100.730	0.520	-0.250	0.310	100.550	-2.100	0.900																			1580058326.0	11.72	21.71
26/01/2020 17:05:27	26012020	260120	170527	100.650	12.227743	-56.316335	100.850	0.210	0.360	0.090	100.680	-1.200	0.500																			1580058327.0	11.24	20.82
26/01/2020 17:05:28	26012020	260120	170528	100.770	12.227737	-56.316288	100.880	-0.070	0.320	0.100	100.780	-0.900	0.400																			1580058328.0	10.43	19.32
26/01/2020 17:05:29	26012020	260120	170529	100.790	12.227727	-56.316237	100.880	-0.080	-0.370	0.230	100.790	-1.500	0.500																			1580058329.0	10.27	19.02
26/01/2020 17:05:30	26012020	260120	170530	100.790	12.227715	-56.316183	100.900	0.000	-0.850	0.460	100.790	-2.100	0.700																			1580058330.0	11.01	20.39
26/01/2020 17:05:31	26012020	260120	170531	100.800	12.227703	-56.316130	100.820	-0.000	-0.650	0.700	100.790	-2.100	1.000																			1580058331.0	11.68	21.63
26/01/2020 17:05:32	26012020	260120	170532	100.710	12.227692	-56.316082	100.680	-0.100	-0.210	0.730	100.680	-1.700	1.100																			1580058332.0	11.40	21.11
26/01/2020 17:05:33	26012020	260120	170533	100.560	12.227680	-56.316032	100.590	-0.120	-0.190	0.460	100.540	-1.500	0.900																			1580058333.0	10.68	19.78
26/01/2020 17:05:34	26012020	260120	170534	100.500	12.227672	-56.315980	100.530	0.060	-0.600	0.220	100.490	-1.800	0.600																			1580058334.0	10.52	19.48
26/01/2020 17:05:35	26012020	260120	170535	100.440	12.227662	-56.315927	100.440	0.290	-0.860	0.160	100.430	-2.200	0.500																			1580058335.0	11.11	20.58
26/01/2020 17:05:36	26012020	260120	170536	100.350	12.227653	-56.315873	100.340	0.280	-0.590	0.280	100.330	-2.100	0.600																			1580058336.0	11.67	21.61
26/01/2020 17:05:37	26012020	260120	170537	100.260	12.227642	-56.315822	100.280	-0.000	-0.070	0.570	100.240	-1.600	0.800																			1580058337.0	11.57	21.43
26/01/2020 17:05:38	26012020	260120	170538	100.190	12.227630	-56.315772	100.280	-0.320	0.290	0.720	100.190	-1.400	0.900																			1580058338.0	11.04	20.45
26/01/2020 17:05:39	26012020	260120	170539	100.190	12.227618	-56.315722	100.390	-0.470	0.420	0.690	100.210	-1.000	1.100																			1580058339.0	10.82	20.04
26/01/2020 17:05:40	26012020	260120	170540	100.320	12.227608	-56.315670	100.540	-0.440	0.370	0.520	100.320	-0.900	1.000																			1580058340.0	10.98	20.33
26/01/2020 17:05:41	26012020	260120	170541	100.470	12.227598	-56.315618	100.640	-0.300	0.110	0.280	100.490	-1.100	0.700																			1580058341.0	11.08	20.52
26/01/2020 17:05:42	26012020	260120	170542	100.570	12.227588	-56.315567	100.760	-0.070	-0.260	0.040	100.590	-1.500	0.500																			1580058342.0	11.10	20.56
26/01/2020 17:05:43	26012020	260120	170543	100.700	12.227578	-56.315515	100.950	0.150	-0.470	-0.140	100.740	-1.800	0.300																			1580058343.0	11.21	20.76
26/01/2020 17:05:44	26012020	260120	170544	100.900	12.227570	-56.315463	101.110	0.240	-0.410	-0.160	100.930	-1.800	0.200																			1580058344.0	11.23	20.80
26/01/2020 17:05:45	26012020	260120	170545	101.040	12.227560	-56.315413	101.100	0.230	-0.280	-0.030	101.050	-1.700	0.300																			1580058345.0	11.01	20.39
26/01/2020 17:05:46	26012020	260120	170546	101.010	12.227550	-56.315365	100.920	0.310	-0.510	0.220	100.980	-1.700	0.500																			1580058346.0	10.69	19.80
26/01/2020 17:05:47	26012020	260120	170547	100.810	12.227540	-56.315312	100.650	0.550	-1.090	0.540	100.760	-2.200	0.800																			1580058347.0	10.64	19.71
26/01/2020 17:05:48	26012020	260120	170548	100.540	12.227530	-56.315258	100.370	0.710	-1.370	0.760	100.480	-2.700	1.100																			1580058348.0	11.19	20.72
26/01/2020 17:05:49	26012020	260120	170549	100.250	12.227520	-56.315203	100.150	0.430	-0.810	0.840	100.200	-2.500	1.200																			1580058349.0	11.78	21.82
26/01/2020 17:05:50	26012020	260120	170550	100.040	12.227510	-56.315153	100.090	-0.270	0.300	0.890	100.040	-2.200	1.200																			1580058350.0	11.64	21.56
26/01/2020 17:05:51	26012020	260120	170551	100.000	12.227500	-56.315107	100.220	-0.960	1.000	0.790	100.010	-0.500	1.200																			1580058351.0	10.82	20.04
26/01/2020 17:05:52	26012020	260120	170552	100.150	12.227488	-56.315057	100.450	-1.140	0.690	0.530	100.190	-0.500	1.000																			1580058352.0	10.24	18.96
26/01/2020 17:05:53	26012020	260120	170553	100.380	12.227477	-56.315003	100.660	-0.790	-0.100	0.290	100.430	-1.200	0.700																			1580058353.0	10.67	19.76
26/01/2020 17:05:54	26012020	260120	170554	100.600	12.227463	-56.314948	100.840	-0.270	-0.490	0.150	100.640	-1.800	0.500																			1580058354.0	11.68	21.63
26/01/2020 17:05:55	26012020	260120	170555	100.780	12.227452	-56.314897	101.030	0.140	-0.280	0.020	100.820	-1.700	0.400																			1580058355.0	11.98	22.19
26/01/2020 17:05:56	26012020	260120	170556	100.970	12.227442	-56.314847	101.170	0.400	0.010	-0.190	101.000	-1.400	0.300																			1580058356.0	11.35	21.02
26/01/2020 17:05:57	26012020	260120	170557	101.110	12.227435	-56.314797	101.270	0.540	-0.000	-0.330	101.140	-1.300	0.100																			1580058357.0	10.65	19.72
26/01/2020 17:05:58	26012020	260120	170558	101.220	12.227427	-56.314747	101.410	0.560	-0.260	-0.330	101.240	-1.500	0.000																			1580058358.0	10.58	19.59
26/01/2020 17:05:59	26012020	260120	170559	101.360	12.227420	-56.314695	101.520	0.550	-0.630	-0.100	101.390	-1.800	0.200	1015.00	26.20	26.30	19.50	19.60	888.00	66.00	66.00	375.00	29.30	353.00	10.00	84.00	4.40	64502	3454.00	27.70	27.60	1580058359.0	10.86	20.11
26/01/2020 17:06:00	26012020	260120	170600	101.440	12.227410	-56.314643	101.360	0.510	-0.990	0.360	101.420	-2.200	0.500																			1580058360.0	11.05	20.46
26/01/2020 17:06:01	26012020	260120	170601	101.250	12.227398	-56.314590	101.030	0.290	-1.020	0.880	101.180	-2.400	1.100																			1580058361.0	11.22	20.78
26/01/2020 17:06:02	26012020	260120	170602	100.900	12.227385	-56.314540	100.740	-0.130	-0.560	1.290	100.900	-2.400	1.200																			1580058362.0	11.36	21.04
26/01/2020 17:06:03	26012020	260120	170603	100.620	12.227373	-56.314490	100.580	-0.590	0.010	1.280	100.570	-1.500	1.700																			1580058363.0	11.15	20.65
26/01/2020 17:06:04	26012020	260120	170604	100.480	12.227362	-56.314442	100.560	-0.770	0.120	0.880	100.480	-1.400	1.600																			1580058364.0	10.75	19.91
26/01/2020 17:06:05	26012020	260120	170605	100.470	12.227350	-56.314388	100.570	-0.580	-0.180	0.520	100.470	-1.400	1.000																			1580058365.0	10.72	19.85
26/01/2020 17:06:06	26012020	260120	170606	100.480	12.227338	-56.314333	100.610	-0.220	-0.270	0.280	100.480	-1.600	0.700																			1580058366.0	11.33	20.98
26/01/2020 17:06:07	26012020	260120	170607	100.540	12.227328	-56.314282	100.800	0.000	0.110	0.120	100.570	-1.400	0.500																			1580058367.0	11.73	21.72
26/01/2020 17:06:08	26012020	260120	170608	100.740	12.227318	-56.314232	101.030	0.070	0.500	0.090	100.780	-1.000	0.500																			1580058368.0	11.40	21.11
26/01/2020 17:06:09	26012020	260120	170609	100.970	12.227308	-56.314182	101.250	0.140	0.360	0.080	101.010	-0.900	0.400																			1580058369.0	10.75	19.91
26/01/2020 17:06:10	26012020	260120	170610	101.190	12.227298	-56.314132	101.460	0.300	-0.230	0.130	101.230	-1.400	0.500																			1580058370.0	10.61	19.65
26/01/2020 17:06:11	26012020	260120	170611	101.390	12.227290	-56.314078	101.570	0.480	-0.770	0.290	101.420	-2.000	0.600																			1580058371.0	11.08	20.52
26/01/2020 17:06:12	26012020	260120	170612	101.480	12.227280	-56.314025	101.520	0.510	-0.890	0.360	101.480	-2.300	0.700																			1580058372.0	11.43	21.17
26/01/2020 17:06:13	26012020	260120	170613	101.420	12.227270	-56.313975	101.450	0.220	-0.550	0.510	101.400	-2.100	0.800																			1580058373.0	11.35	21.02
26/01/2020 17:06:14	26012020	260120	170614	101.340	12.227260	-56.313925	101.410	-0.240	-0.140	0.660	101.340	-1.900	0.900																			1580058374.0	10.95	20.28
26/01/2020 17:06:15	26012020	260120	170615	101.310	12.227248	-56.313877	101.370	-0.530	-0.170	0.600	101.310	-1.500	1.000																			1580058375.0	10.53	19.50
26/01/2020 17:06:16	26012020	260120	170616	101.270	12.227237	-56.313825	101.180	-0.450	-0.600	0.590	101.260	-1.500	1.000																			1580058376.0	10.56	19.56
26/01/2020 17:06:17	26012020	260120	170617	101.050	12.227223	-56.313772	100.910	-0.130	-0.870	0.600	100.990	-2.200	1.000																			1580058377.0	11.15	20.65
26/01/2020 17:06:18	26012020	260120	170618	100.780	12.227210	-56.313718	100.760	0.130	-0.510	0.410	100.740	-2.100	0.900																			1580058378.0	11.73	21.72
26/01/2020 17:06:19	26012020	260120	170619	100.650	12.227202	-56.313668	100.790	0.210	0.090	0.080	100.650	-1.500	0.600																			1580058379.0	11.57	21.43
26/01/2020 17:06:20	26012020	260120	170620	100.710	12.227193	-56.313618	100.940	0.130	0.400	-0.150	100.740	-1.000	0.300																			1580058380.0	10.95	20.28
26/01/2020 17:06:21	26012020	260120	170621	100.870	12.227185	-56.313567	101.160	-0.010	0.410	-0.070	100.920	-0.900	0.200																			1580058381.0	10.74	19.89
26/01/2020 17:06:22	26012020	260120	170622	101.100	12.227173	-56.313515	101.390	-0.090	0.220	0.190	101.150	-1.000	0.500																			1580058382.0	10.99	20.35
26/01/2020 17:06:23	26012020	260120	170623	101.320	12.227162	-56.313463	101.470	0.020	-0.200	0.390	101.340	-1.400	0.700																			1580058383.0	11.11	20.58
26/01/2020 17:06:24	26012020	260120	170624	101.370	12.227150	-56.313412	101.400	0.230	-0.600	0.500	101.360	-1.900	0.800																			1580058384.0	11.15	20.65
26/01/2020 17:06:25	26012020	260120	170625	101.290	12.227138	-56.313360	101.370	0.240	-0.640	0.470	101.280	-2.000	0.900																			1580058385.0	11.35	21.02
26/01/2020 17:06:26	26012020	260120	170626	101.280	12.227130	-56.313308	101.430	0.050	-0.420	0.380	101.290	-1.900	0.800																			1580058386.0	11.31	20.95
26/01/2020 17:06:27	26012020	260120	170627	101.350	12.227120	-56.313260	101.460	-0.140	-0.380	0.310	101.360	-1.700	0.700																			1580058387.0	10.88	20.15
26/01/2020 17:06:28	26012020	260120	170628	101.370	12.227108	-56.313208	101.460	-0.180	-0.530	0.260	101.370	-1.800	0.600																			1580058388.0	10.66	19.74
26/01/2020 17:06:29	26012020	260120	170629	101.370	12.227097	-56.313157	101.420	-0.200	-0.490	0.330	101.370	-1.900	0.600																			1580058389.0	11.01	20.39
26/01/2020 17:06:30	26012020	260120	170630	101.320	12.227085	-56.313105	101.280	-0.250	-0.190	0.460	101.290	-1.700	0.800																			1580058390.0	11.31	20.95
26/01/2020 17:06:31	26012020	260120	170631	101.170	12.227072	-56.313057	101.090	-0.190	-0.100	0.480	101.130	-1.400	0.800																			1580058391.0	11.08	20.52
26/01/2020 17:06:32	26012020	260120	170632	100.980	12.227062	-56.313005	100.960	0.050	-0.350	0.400	100.940	-1.600	0.800																			1580058392.0	10.84	20.08
26/01/2020 17:06:33	26012020	260120	170633	100.860	12.227050	-56.312950	100.920	0.290	-0.520	0.270	100.840	-1.900	0.700																			1580058393.0	11.15	20.65
26/01/2020 17:06:34	26012020	260120	170634	100.830	12.227042	-56.312897	100.950	0.300	-0.250	0.150	100.830	-1.800	0.500																			1580058394.0	11.58	21.45
26/01/2020 17:06:35	26012020	260120	170635	100.860	12.227032	-56.312847	101.030	0.070	0.240	0.170	100.880	-1.300	0.500																			1580058395.0	11.49	21.28
26/01/2020 17:06:36	26012020	260120	170636	100.950	12.227022	-56.312797	101.140	-0.160	0.420	0.380	100.980	-0.900	0.700																			1580058396.0	10.96	20.30
26/01/2020 17:06:37	26012020	260120	170637	101.070	12.227010	-56.312747	101.280	-0.150	0.080	0.500	101.090	-1.100	0.800																			1580058397.0	10.66	19.74
26/01/2020 17:06:38	26012020	260120	170638	101.200	12.226998	-56.312693	101.450	0.080	-0.390	0.450	101.230	-1.600	0.800																			1580058398.0	10.95	20.28
26/01/2020 17:06:39	26012020	260120	170639	101.380	12.226988	-56.312640	101.590	0.280	-0.580	0.410	101.420	-1.900	0.800																			1580058399.0	11.42	21.15
26/01/2020 17:06:40	26012020	260120	170640	101.510	12.226978	-56.312590	101.630	0.260	-0.420	0.450	101.510	-1.900	0.800																			1580058400.0	11.47	21.24
26/01/2020 17:06:41	26012020	260120	170641	101.540	12.226967	-56.312540	101.640	0.000	-0.150	0.520	101.540	-1.600	0.800																			1580058401.0	11.12	20.59
26/01/2020 17:06:42	26012020	260120	170642	101.550	12.226957	-56.312492	101.690	-0.290	-0.060	0.630	101.560	-1.400	0.900																			1580058402.0	10.74	19.89
26/01/2020 17:06:43	26012020	260120	170643	101.600	12.226945	-56.312442	101.650	-0.410	-0.360	0.700	101.600	-1.600	1.000																			1580058403.0	10.59	19.61
26/01/2020 17:06:44	26012020	260120	170644	101.540	12.226933	-56.312388	101.460	-0.250	-0.890	0.740	101.510	-2.100	1.100																			1580058404.0	10.83	20.06
26/01/2020 17:06:45	26012020	260120	170645	101.330	12.226920	-56.312335	101.150	0.050	-1.130	0.750	101.270	-2.500	1.100																			1580058405.0	11.31	20.95
26/01/2020 17:06:46	26012020	260120	170646	101.030	12.226908	-56.312282	100.920	0.230	-0.740	0.630	100.970	-2.300	1.000																			1580058406.0	11.68	21.63
26/01/2020 17:06:47	26012020	260120	170647	100.810	12.226898	-56.312232	100.850	0.210	-0.080	0.370	100.790	-1.600	0.800																			1580058407.0	11.54	21.37
26/01/2020 17:06:48	26012020	260120	170648	100.770	12.226890	-56.312182	100.900	0.160	0.230	0.110	100.770	-1.200	0.500																			1580058408.0	10.95	20.28
26/01/2020 17:06:49	26012020	260120	170649	100.830	12.226882	-56.312128	101.020	0.090	0.250	0.040	100.840	-1.100	0.400																			1580058409.0	10.80	20.00
26/01/2020 17:06:50	26012020	260120	170650	100.950	12.226872	-56.312075	101.230	-0.100	0.340	0.180	100.990	-1.100	0.500																			1580058410.0	11.24	20.82
26/01/2020 17:06:51	26012020	260120	170651	101.160	12.226860	-56.312025	101.440	-0.300	0.400	0.440	101.210	-0.900	0.700																			1580058411.0	11.40	21.11
26/01/2020 17:06:52	26012020	260120	170652	101.330	12.226848	-56.311975	101.650	-0.300	0.090	0.550	101.360	-1.000	0.800																			1580058412.0	11.06	20.48
26/01/2020 17:06:53	26012020	260120	170653	101.560	12.226837	-56.311923	101.900	-0.140	-0.380	0.430	101.610	-1.600	0.800																			1580058413.0	10.94	20.26
26/01/2020 17:06:54	26012020	260120	170654	101.820	12.226825	-56.311870	102.030	0.000	-0.600	0.320	101.820	-1.700	0.800																			1580058414.0	11.27	20.87
26/01/2020 17:06:55	26012020	260120	170655	101.930	12.226813	-56.311820	101.930	0.080	-0.500	0.220	101.920	-1.900	0.600																			1580058415.0	11.32	20.96
26/01/2020 17:06:56	26012020	260120	170656	101.810	12.226803	-56.311770	101.720	0.160	-0.370	0.090	101.770	-1.700	0.500																			1580058416.0	10.99	20.35
26/01/2020 17:06:57	26012020	260120	170657	101.610	12.226793	-56.311720	101.580	0.270	-0.520	-0.080	101.570	-1.800	0.300																			1580058417.0	10.67	19.76
26/01/2020 17:06:58	26012020	260120	170658	101.480	12.226785	-56.311668	101.460	0.380	-0.810	-0.180	101.460	-2.100	0.200																			1580058418.0	10.77	19.95
26/01/2020 17:06:59	26012020	260120	170659	101.360	12.226775	-56.311615	101.240	0.410	-0.920	-0.080	101.320	-2.300	0.200	1015.00	26.20	26.30	19.60	19.60	884.00	66.00	66.00	375.00	29.30	353.00	10.10	85.00	4.50	64306	3261.00	27.70	27.70	1580058419.0	11.19	20.72
26/01/2020 17:07:00	26012020	260120	170700	101.120	12.226765	-56.311562	100.990	0.260	-0.620	0.250	101.060	-2.100	0.500																			1580058420.0	11.47	21.24
26/01/2020 17:07:01	26012020	260120	170701	100.870	12.226753	-56.311512	100.870	-0.030	-0.090	0.650	100.830	-1.600	0.900																			1580058421.0	11.42	21.15
26/01/2020 17:07:02	26012020	260120	170702	100.750	12.226740	-56.311462	100.850	-0.350	0.220	0.880	100.740	-1.200	1.200																			1580058422.0	11.09	20.54
26/01/2020 17:07:03	26012020	260120	170703	100.730	12.226728	-56.311410	100.870	-0.590	0.250	0.940	100.730	-1.100	1.300																			1580058423.0	10.94	20.26
26/01/2020 17:07:04	26012020	260120	170704	100.740	12.226715	-56.311357	100.940	-0.650	0.200	0.820	100.750	-1.100	1.300																			1580058424.0	11.19	20.72
26/01/2020 17:07:05	26012020	260120	170705	100.830	12.226703	-56.311305	101.050	-0.470	0.010	0.580	100.850	-1.200	1.000																			1580058425.0	11.36	21.04
26/01/2020 17:07:06	26012020	260120	170706	100.940	12.226692	-56.311253	101.180	-0.160	-0.240	0.350	100.940	-1.300	0.900																			1580058426.0	11.29	20.91
26/01/2020 17:07:07	26012020	260120	170707	101.070	12.226680	-56.311200	101.340	0.010	-0.140	0.100	101.100	-1.600	0.500																			1580058427.0	11.40	21.11
26/01/2020 17:07:08	26012020	260120	170708	101.250	12.226672	-56.311150	101.510	0.030	0.190	-0.200	101.280	-1.300	0.300																			1580058428.0	11.36	21.04
26/01/2020 17:07:09	26012020	260120	170709	101.410	12.226663	-56.311102	101.580	0.150	0.040	-0.340	101.430	-1.200	0.000																			1580058429.0	10.78	19.96
26/01/2020 17:07:10	26012020	260120	170710	101.470	12.226655	-56.311050	101.590	0.480	-0.680	-0.250	101.480	-1.800	0.100																			1580058430.0	10.44	19.33
26/01/2020 17:07:11	26012020	260120	170711	101.490	12.226643	-56.310997	101.640	0.700	-1.070	-0.050	101.500	-2.400	0.200																			1580058431.0	11.02	20.41
26/01/2020 17:07:12	26012020	260120	170712	101.550	12.226633	-56.310943	101.610	0.560	-0.760	0.270	101.550	-2.300	0.500																			1580058432.0	11.66	21.59
26/01/2020 17:07:13	26012020	260120	170713	101.490	12.226622	-56.310895	101.380	0.210	-0.340	0.630	101.450	-1.800	0.900																			1580058433.0	11.27	20.87
26/01/2020 17:07:14	26012020	260120	170714	101.240	12.226610	-56.310847	101.020	-0.050	-0.360	0.850	101.170	-1.600	1.200																			1580058434.0	10.61	19.65
26/01/2020 17:07:15	26012020	260120	170715	100.870	12.226598	-56.310793	100.690	-0.140	-0.550	0.880	100.790	-1.800	1.300																			1580058435.0	10.71	19.83
26/01/2020 17:07:16	26012020	260120	170716	100.550	12.226588	-56.310740	100.550	-0.260	-0.390	0.740	100.500	-1.800	1.200																			1580058436.0	11.35	21.02
26/01/2020 17:07:17	26012020	260120	170717	100.430	12.226578	-56.310688	100.630	-0.500	0.010	0.560	100.440	-1.500	1.000																			1580058437.0	11.62	21.52
26/01/2020 17:07:18	26012020	260120	170718	100.500	12.226567	-56.310637	100.790	-0.690	0.230	0.450	100.530	-1.300	0.900																			1580058438.0	11.23	20.80
26/01/2020 17:07:19	26012020	260120	170719	100.680	12.226555	-56.310585	100.950	-0.620	0.150	0.340	100.710	-1.200	0.700																			1580058439.0	10.96	20.30
26/01/2020 17:07:20	26012020	260120	170720	100.840	12.226542	-56.310533	101.090	-0.280	0.020	0.270	100.870	-1.300	0.600																			1580058440.0	11.15	20.65
26/01/2020 17:07:21	26012020	260120	170721	100.990	12.226530	-56.310482	101.210	0.140	-0.090	0.170	101.010	-1.400	0.600																			1580058441.0	11.38	21.08
26/01/2020 17:07:22	26012020	260120	170722	101.100	12.226518	-56.310430	101.340	0.430	-0.170	-0.030	101.130	-1.500	0.400																			1580058442.0	11.31	20.95
26/01/2020 17:07:23	26012020	260120	170723	101.240	12.226510	-56.310378	101.460	0.480	-0.180	-0.100	101.270	-1.500	0.300																			1580058443.0	11.20	20.74
26/01/2020 17:07:24	26012020	260120	170724	101.370	12.226502	-56.310328	101.540	0.360	-0.180	0.010	101.380	-1.500	0.300																			1580058444.0	11.04	20.45
26/01/2020 17:07:25	26012020	260120	170725	101.420	12.226492	-56.310278	101.480	0.240	-0.340	0.230	101.420	-1.600	0.500																			1580058445.0	10.86	20.11
26/01/2020 17:07:26	26012020	260120	170726	101.340	12.226482	-56.310227	101.240	0.210	-0.680	0.580	101.300	-1.900	0.800																			1580058446.0	10.81	20.02
26/01/2020 17:07:27	26012020	260120	170727	101.090	12.226470	-56.310173	101.020	0.190	-0.870	0.800	101.040	-2.200	1.100																			1580058447.0	11.05	20.46
26/01/2020 17:07:28	26012020	260120	170728	100.890	12.226458	-56.310122	101.000	0.020	-0.600	0.750	100.870	-2.100	1.100																			1580058448.0	11.37	21.06
26/01/2020 17:07:29	26012020	260120	170729	100.870	12.226448	-56.310072	100.990	-0.300	-0.080	0.610	100.880	-1.600	1.000																			1580058449.0	11.30	20.93
26/01/2020 17:07:30	26012020	260120	170730	100.880	12.226438	-56.310022	100.820	-0.500	0.090	0.570	100.860	-1.400	1.000																			1580058450.0	10.85	20.09
26/01/2020 17:07:31	26012020	260120	170731	100.670	12.226427	-56.309972	100.610	-0.370	-0.240	0.610	100.630	-1.400	1.000																			1580058451.0	10.64	19.71
26/01/2020 17:07:32	26012020	260120	170732	100.480	12.226415	-56.309917	100.580	0.000	-0.640	0.490	100.470	-1.900	0.900																			1580058452.0	11.13	20.61
26/01/2020 17:07:33	26012020	260120	170733	100.480	12.226403	-56.309863	100.650	0.300	-0.640	0.290	100.490	-2.000	0.700																			1580058453.0	11.71	21.69
26/01/2020 17:07:34	26012020	260120	170734	100.540	12.226393	-56.309810	100.710	0.270	-0.110	0.140	100.550	-1.700	0.500																			1580058454.0	11.79	21.84
26/01/2020 17:07:35	26012020	260120	170735	100.610	12.226383	-56.309760	100.790	-0.000	0.560	0.050	100.630	-1.000	0.400																			1580058455.0	11.36	21.04
26/01/2020 17:07:36	26012020	260120	170736	100.700	12.226375	-56.309712	100.880	-0.170	0.580	0.030	100.720	-0.700	0.400																			1580058456.0	10.67	19.76
26/01/2020 17:07:37	26012020	260120	170737	100.780	12.226365	-56.309660	100.940	-0.080	-0.120	0.220	100.800	-1.200	0.500																			1580058457.0	10.44	19.33
26/01/2020 17:07:38	26012020	260120	170738	100.820	12.226353	-56.309607	100.930	0.040	-0.720	0.450	100.820	-1.900	0.700																			1580058458.0	11.09	20.54
26/01/2020 17:07:39	26012020	260120	170739	100.810	12.226342	-56.309553	100.910	-0.050	-0.580	0.650	100.810	-2.100	0.900																			1580058459.0	11.77	21.80
26/01/2020 17:07:40	26012020	260120	170740	100.780	12.226330	-56.309503	100.820	-0.290	-0.100	0.830	100.760	-1.600	1.100																			1580058460.0	11.54	21.37
26/01/2020 17:07:41	26012020	260120	170741	100.680	12.226318	-56.309457	100.750	-0.340	-0.080	0.750	100.670	-1.300	1.200																			1580058461.0	10.66	19.74
26/01/2020 17:07:42	26012020	260120	170742	100.630	12.226308	-56.309405	100.740	-0.020	-0.590	0.410	100.630	-1.400	1.100																			1580058462.0	10.37	19.21
26/01/2020 17:07:43	26012020	260120	170743	100.630	12.226298	-56.309352	100.680	0.370	-0.870	0.170	100.620	-2.200	0.600																			1580058463.0	11.01	20.39
26/01/2020 17:07:44	26012020	260120	170744	100.560	12.226290	-56.309298	100.590	0.510	-0.560	0.050	100.550	-2.000	0.400																			1580058464.0	11.67	21.61
26/01/2020 17:07:45	26012020	260120	170745	100.480	12.226282	-56.309247	100.600	0.360	-0.120	0.070	100.480	-1.600	0.400																			1580058465.0	11.43	21.17
26/01/2020 17:07:46	26012020	260120	170746	100.500	12.226272	-56.309197	100.650	0.190	-0.050	0.230	100.510	-1.400	0.500																			1580058466.0	10.83	20.06
26/01/2020 17:07:47	26012020	260120	170747	100.540	12.226262	-56.309145	100.590	0.170	-0.300	0.430	100.530	-1.500	0.700																			1580058467.0	10.76	19.93
26/01/2020 17:07:48	26012020	260120	170748	100.470	12.226252	-56.309092	100.510	0.110	-0.290	0.610	100.450	-1.700	0.900																			1580058468.0	11.23	20.80
26/01/2020 17:07:49	26012020	260120	170749	100.380	12.226242	-56.309040	100.460	-0.180	-0.000	0.750	100.370	-1.400	1.100																			1580058469.0	11.57	21.43
26/01/2020 17:07:50	26012020	260120	170750	100.340	12.226230	-56.308990	100.550	-0.540	0.140	0.670	100.360	-1.200	1.100																			1580058470.0	11.23	20.80
26/01/2020 17:07:51	26012020	260120	170751	100.440	12.226220	-56.308938	100.700	-0.670	-0.070	0.550	100.470	-1.300	0.900																			1580058471.0	10.85	20.09
26/01/2020 17:07:52	26012020	260120	170752	100.580	12.226208	-56.308887	100.740	-0.500	-0.420	0.500	100.600	-1.700	0.900																			1580058472.0	10.98	20.33
26/01/2020 17:07:53	26012020	260120	170753	100.610	12.226195	-56.308833	100.690	-0.260	-0.400	0.420	100.600	-1.800	0.800																			1580058473.0	11.35	21.02
26/01/2020 17:07:54	26012020	260120	170754	100.560	12.226183	-56.308783	100.690	-0.140	0.020	0.270	100.560	-1.500	0.700																			1580058474.0	11.50	21.30
26/01/2020 17:07:55	26012020	260120	170755	100.560	12.226173	-56.308735	100.740	0.040	0.100	0.030	100.570	-1.200	0.500																			1580058475.0	10.97	20.32
26/01/2020 17:07:56	26012020	260120	170756	100.620	12.226165	-56.308683	100.780	0.450	-0.400	-0.270	100.620	-1.200	0.400																			1580058476.0	10.49	19.43
26/01/2020 17:07:57	26012020	260120	170757	100.660	12.226157	-56.308630	100.740	0.880	-0.900	-0.450	100.660	-2.100	-0.100																			1580058477.0	10.92	20.22
26/01/2020 17:07:58	26012020	260120	170758	100.620	12.226150	-56.308575	100.670	1.010	-0.830	-0.300	100.600	-2.300	-0.000																			1580058478.0	11.60	21.48
26/01/2020 17:07:59	26012020	260120	170759	100.540	12.226142	-56.308523	100.610	0.680	-0.250	0.110	100.520	-1.800	0.300	1015.00	26.30	26.30	19.30	19.40	882.00	65.00	65.00	375.00	29.30	354.00	9.70	87.00	4.00	64134	3443.00	27.70	27.70	1580058479.0	11.61	21.50
26/01/2020 17:08:00	26012020	260120	170800	100.480	12.226132	-56.308475	100.600	0.070	0.160	0.480	100.470	-1.300	0.700																			1580058480.0	11.03	20.43
26/01/2020 17:08:01	26012020	260120	170801	100.470	12.226122	-56.308425	100.650	-0.440	-0.010	0.730	100.480	-1.200	1.000																			1580058481.0	10.50	19.45
26/01/2020 17:08:02	26012020	260120	170802	100.500	12.226110	-56.308372	100.670	-0.670	-0.390	0.970	100.500	-1.600	1.200																			1580058482.0	10.75	19.91
26/01/2020 17:08:03	26012020	260120	170803	100.510	12.226095	-56.308320	100.670	-0.760	-0.410	1.000	100.510	-1.800	1.400																			1580058483.0	11.43	21.17
26/01/2020 17:08:04	26012020	260120	170804	100.510	12.226082	-56.308268	100.610	-0.770	-0.110	0.810	100.500	-1.600	1.200																			1580058484.0	11.65	21.58
26/01/2020 17:08:05	26012020	260120	170805	100.450	12.226070	-56.308218	100.530	-0.620	0.070	0.480	100.430	-1.300	1.000																			1580058485.0	11.17	20.69
26/01/2020 17:08:06	26012020	260120	170806	100.380	12.226060	-56.308168	100.510	-0.210	-0.170	0.040	100.380	-1.400	0.600																			1580058486.0	10.81	20.02
26/01/2020 17:08:07	26012020	260120	170807	100.390	12.226052	-56.308115	100.580	0.350	-0.590	-0.410	100.400	-1.800	0.100																			1580058487.0	10.94	20.26
26/01/2020 17:08:08	26012020	260120	170808	100.470	12.226043	-56.308060	100.640	0.740	-0.630	-0.640	100.470	-1.900	-0.000																			1580058488.0	11.42	21.15
26/01/2020 17:08:09	26012020	260120	170809	100.540	12.226037	-56.308008	100.740	0.710	-0.170	-0.520	100.550	-1.700	-0.200																			1580058489.0	11.63	21.54
26/01/2020 17:08:10	26012020	260120	170810	100.650	12.226028	-56.307958	100.910	0.420	0.210	-0.170	100.680	-1.200	0.100																			1580058490.0	11.16	20.67
26/01/2020 17:08:11	26012020	260120	170811	100.790	12.226017	-56.307910	100.900	0.190	0.120	0.250	100.790	-1.100	0.500																			1580058491.0	10.58	19.59
26/01/2020 17:08:12	26012020	260120	170812	100.740	12.226007	-56.307858	100.690	0.220	-0.440	0.610	100.710	-1.500	0.900																			1580058492.0	10.64	19.71
26/01/2020 17:08:13	26012020	260120	170813	100.510	12.225995	-56.307803	100.550	0.300	-0.830	0.790	100.470	-2.100	1.100																			1580058493.0	11.14	20.63
26/01/2020 17:08:14	26012020	260120	170814	100.390	12.225985	-56.307750	100.660	-0.040	-0.400	0.800	100.400	-2.000	1.200																			1580058494.0	11.72	21.71
26/01/2020 17:08:15	26012020	260120	170815	100.530	12.225973	-56.307702	100.870	-0.730	0.360	0.750	100.570	-1.200	1.100																			1580058495.0	11.53	21.35
26/01/2020 17:08:16	26012020	260120	170816	100.750	12.225963	-56.307655	100.960	-1.150	0.500	0.700	100.780	-0.800	1.100																			1580058496.0	10.52	19.48
26/01/2020 17:08:17	26012020	260120	170817	100.810	12.225950	-56.307607	100.870	-0.790	-0.320	0.620	100.800	-1.300	1.000																			1580058497.0	10.11	18.72
26/01/2020 17:08:18	26012020	260120	170818	100.720	12.225937	-56.307552	100.770	0.170	-1.290	0.400	100.700	-2.400	0.900																			1580058498.0	10.84	20.08
26/01/2020 17:08:19	26012020	260120	170819	100.630	12.225925	-56.307495	100.760	0.930	-1.320	-0.000	100.620	-2.800	0.500																			1580058499.0	11.95	22.13
26/01/2020 17:08:20	26012020	260120	170820	100.650	12.225917	-56.307443	100.840	0.960	-0.320	-0.290	100.650	-2.600	0.400																			1580058500.0	12.16	22.52
26/01/2020 17:08:21	26012020	260120	170821	100.740	12.225912	-56.307395	100.940	0.410	0.690	-0.360	100.760	-0.900	0.000																			1580058501.0	11.17	20.69
26/01/2020 17:08:22	26012020	260120	170822	100.840	12.225903	-56.307348	100.980	-0.110	0.700	-0.180	100.860	-0.500	0.100																			1580058502.0	10.07	18.65
26/01/2020 17:08:23	26012020	260120	170823	100.870	12.225893	-56.307297	100.990	-0.230	-0.120	0.210	100.870	-1.100	0.400																			1580058503.0	10.06	18.63
26/01/2020 17:08:24	26012020	260120	170824	100.860	12.225882	-56.307242	101.020	-0.140	-0.690	0.560	100.870	-1.900	0.800																			1580058504.0	11.12	20.59
26/01/2020 17:08:25	26012020	260120	170825	100.880	12.225868	-56.307190	101.000	-0.120	-0.580	0.770	100.880	-2.000	1.100																			1580058505.0	11.90	22.04
26/01/2020 17:08:26	26012020	260120	170826	100.850	12.225857	-56.307140	100.930	-0.230	-0.270	0.760	100.830	-1.700	1.100																			1580058506.0	11.50	21.30
26/01/2020 17:08:27	26012020	260120	170827	100.780	12.225845	-56.307092	100.950	-0.350	-0.170	0.560	100.780	-1.500	1.000																			1580058507.0	10.76	19.93
26/01/2020 17:08:28	26012020	260120	170828	100.810	12.225835	-56.307040	100.980	-0.340	-0.250	0.420	100.830	-1.600	0.800																			1580058508.0	10.65	19.72
26/01/2020 17:08:29	26012020	260120	170829	100.840	12.225823	-56.306988	100.920	-0.120	-0.300	0.320	100.840	-1.600	0.700																			1580058509.0	10.94	20.26
26/01/2020 17:08:30	26012020	260120	170830	100.780	12.225812	-56.306938	100.830	0.220	-0.290	0.090	100.760	-1.600	0.500																			1580058510.0	11.13	20.61
26/01/2020 17:08:31	26012020	260120	170831	100.710	12.225803	-56.306887	100.850	0.500	-0.300	-0.120	100.700	-1.600	0.300																			1580058511.0	11.11	20.58
26/01/2020 17:08:32	26012020	260120	170832	100.750	12.225795	-56.306835	100.990	0.570	-0.210	-0.160	100.750	-1.600	0.200																			1580058512.0	11.08	20.52
26/01/2020 17:08:33	26012020	260120	170833	100.880	12.225785	-56.306783	101.070	0.430	-0.050	-0.100	100.900	-1.400	0.200																			1580058513.0	11.11	20.58
26/01/2020 17:08:34	26012020	260120	170834	100.940	12.225777	-56.306733	101.060	0.250	-0.120	0.090	100.940	-1.400	0.400																			1580058514.0	10.91	20.21
26/01/2020 17:08:35	26012020	260120	170835	100.940	12.225767	-56.306682	101.120	0.090	-0.310	0.450	100.950	-1.600	0.700																			1580058515.0	10.79	19.98
26/01/2020 17:08:36	26012020	260120	170836	101.000	12.225755	-56.306630	101.170	-0.140	-0.330	0.810	101.010	-1.700	1.000																			1580058516.0	11.08	20.52
26/01/2020 17:08:37	26012020	260120	170837	101.040	12.225742	-56.306580	101.100	-0.370	-0.290	0.990	101.030	-1.600	1.300																			1580058517.0	11.17	20.69
26/01/2020 17:08:38	26012020	260120	170838	100.940	12.225730	-56.306530	100.970	-0.420	-0.400	0.990	100.910	-1.700	1.300																			1580058518.0	10.93	20.24
26/01/2020 17:08:39	26012020	260120	170839	100.820	12.225718	-56.306480	100.850	-0.250	-0.630	0.870	100.790	-1.900	1.300																			1580058519.0	10.91	20.21
26/01/2020 17:08:40	26012020	260120	170840	100.690	12.225707	-56.306427	100.710	0.040	-0.730	0.630	100.660	-2.100	1.100																			1580058520.0	11.16	20.67
26/01/2020 17:08:41	26012020	260120	170841	100.560	12.225697	-56.306373	100.710	0.210	-0.400	0.270	100.550	-1.900	0.700																			1580058521.0	11.41	21.13
26/01/2020 17:08:42	26012020	260120	170842	100.590	12.225687	-56.306323	100.830	0.160	0.150	0.010	100.610	-1.400	0.400																			1580058522.0	11.36	21.04
26/01/2020 17:08:43	26012020	260120	170843	100.720	12.225678	-56.306273	100.940	0.040	0.410	-0.120	100.750	-1.000	0.300																			1580058523.0	10.89	20.17
26/01/2020 17:08:44	26012020	260120	170844	100.810	12.225670	-56.306223	100.990	0.000	0.200	-0.090	100.830	-0.900	0.200																			1580058524.0	10.63	19.69
26/01/2020 17:08:45	26012020	260120	170845	100.870	12.225660	-56.306170	101.050	-0.000	-0.100	0.180	100.880	-1.400	0.400																			1580058525.0	10.89	20.17
26/01/2020 17:08:46	26012020	260120	170846	100.940	12.225647	-56.306118	101.150	-0.070	-0.200	0.420	100.940	-1.400	0.500																			1580058526.0	11.34	21.00
26/01/2020 17:08:47	26012020	260120	170847	101.030	12.225635	-56.306068	101.230	-0.060	-0.240	0.430	101.040	-1.500	0.800																			1580058527.0	11.26	20.85
26/01/2020 17:08:48	26012020	260120	170848	101.100	12.225625	-56.306018	101.250	0.140	-0.470	0.320	101.100	-1.600	0.800																			1580058528.0	10.89	20.17
26/01/2020 17:08:49	26012020	260120	170849	101.120	12.225615	-56.305967	101.230	0.390	-0.720	0.230	101.120	-2.000	0.600																			1580058529.0	10.85	20.09
26/01/2020 17:08:50	26012020	260120	170850	101.100	12.225607	-56.305915	101.160	0.410	-0.760	0.250	101.090	-2.100	0.600																			1580058530.0	11.14	20.63
26/01/2020 17:08:51	26012020	260120	170851	101.020	12.225597	-56.305863	101.070	0.140	-0.520	0.420	101.000	-2.000	0.700																			1580058531.0	11.25	20.84
26/01/2020 17:08:52	26012020	260120	170852	100.940	12.225585	-56.305813	101.030	-0.230	-0.140	0.630	100.930	-1.600	0.900																			1580058532.0	11.08	20.52
26/01/2020 17:08:53	26012020	260120	170853	100.890	12.225573	-56.305763	100.950	-0.430	0.000	0.810	100.880	-1.300	1.100																			1580058533.0	10.84	20.08
26/01/2020 17:08:54	26012020	260120	170854	100.790	12.225560	-56.305713	100.840	-0.340	-0.240	0.910	100.760	-1.500	1.200																			1580058534.0	10.74	19.89
26/01/2020 17:08:55	26012020	260120	170855	100.680	12.225548	-56.305660	100.840	-0.100	-0.430	0.840	100.670	-1.700	1.200																			1580058535.0	11.10	20.56
26/01/2020 17:08:56	26012020	260120	170856	100.700	12.225537	-56.305607	100.970	0.010	-0.170	0.550	100.720	-1.600	1.000																			1580058536.0	11.53	21.35
26/01/2020 17:08:57	26012020	260120	170857	100.840	12.225527	-56.305557	101.120	-0.050	0.220	0.200	100.870	-1.200	0.700																			1580058537.0	11.45	21.21
26/01/2020 17:08:58	26012020	260120	170858	100.990	12.225518	-56.305507	101.220	-0.090	0.230	-0.030	100.990	-1.100	0.600																			1580058538.0	10.88	20.15
26/01/2020 17:08:59	26012020	260120	170859	101.100	12.225508	-56.305455	101.280	0.010	-0.100	-0.070	101.120	-1.300	0.300	1015.00	26.30	26.40	19.80	19.90	882.00	67.00	67.00	376.00	29.30	353.00	9.60	84.00	4.00	64111	3277.00	27.70	27.70	1580058539.0	10.69	19.80
26/01/2020 17:09:00	26012020	260120	170900	101.150	12.225500	-56.305403	101.260	0.220	-0.510	0.040	101.150	-1.700	0.300																			1580058540.0	11.05	20.46
26/01/2020 17:09:01	26012020	260120	170901	101.120	12.225488	-56.305350	101.170	0.390	-0.740	0.290	101.110	-2.000	0.600																			1580058541.0	11.32	20.96
26/01/2020 17:09:02	26012020	260120	170902	101.030	12.225478	-56.305298	101.140	0.310	-0.580	0.500	101.010	-2.000	0.800																			1580058542.0	11.41	21.13
26/01/2020 17:09:03	26012020	260120	170903	101.000	12.225467	-56.305248	101.210	0.000	-0.180	0.600	101.010	-1.700	0.900																			1580058543.0	11.26	20.85
26/01/2020 17:09:04	26012020	260120	170904	101.070	12.225457	-56.305198	101.250	-0.270	0.080	0.550	101.090	-1.300	0.900																			1580058544.0	10.87	20.13
26/01/2020 17:09:05	26012020	260120	170905	101.110	12.225445	-56.305148	101.220	-0.260	-0.080	0.360	101.100	-1.300	0.800																			1580058545.0	10.61	19.65
26/01/2020 17:09:06	26012020	260120	170906	101.090	12.225435	-56.305097	101.240	-0.090	-0.330	0.140	101.090	-1.600	0.600																			1580058546.0	10.83	20.06
26/01/2020 17:09:07	26012020	260120	170907	101.120	12.225425	-56.305043	101.320	0.030	-0.390	-0.010	101.140	-1.700	0.400																			1580058547.0	11.30	20.93
26/01/2020 17:09:08	26012020	260120	170908	101.200	12.225415	-56.304992	101.360	0.010	-0.350	0.000	101.210	-1.700	0.300																			1580058548.0	11.37	21.06
26/01/2020 17:09:09	26012020	260120	170909	101.220	12.225403	-56.304942	101.310	-0.030	-0.360	0.210	101.220	-1.700	0.500																			1580058549.0	11.11	20.58
26/01/2020 17:09:10	26012020	260120	170910	101.160	12.225392	-56.304890	101.200	-0.070	-0.280	0.520	101.160	-1.700	0.600																			1580058550.0	11.06	20.48
26/01/2020 17:09:11	26012020	260120	170911	101.050	12.225380	-56.304838	101.110	-0.110	-0.190	0.620	101.030	-1.600	1.000																			1580058551.0	11.16	20.67
26/01/2020 17:09:12	26012020	260120	170912	100.950	12.225370	-56.304788	101.040	-0.000	-0.400	0.490	100.930	-1.600	0.900																			1580058552.0	11.04	20.45
26/01/2020 17:09:13	26012020	260120	170913	100.890	12.225358	-56.304735	101.040	0.180	-0.620	0.330	100.890	-1.900	0.700																			1580058553.0	11.06	20.48
26/01/2020 17:09:14	26012020	260120	170914	100.890	12.225348	-56.304682	101.140	0.120	-0.340	0.180	100.910	-1.900	0.600																			1580058554.0	11.50	21.30
26/01/2020 17:09:15	26012020	260120	170915	101.020	12.225338	-56.304630	101.320	-0.190	0.300	0.090	101.050	-1.300	0.500																			1580058555.0	11.54	21.37
26/01/2020 17:09:16	26012020	260120	170916	101.200	12.225328	-56.304582	101.430	-0.430	0.690	0.090	101.220	-0.700	0.400																			1580058556.0	10.90	20.19
26/01/2020 17:09:17	26012020	260120	170917	101.290	12.225317	-56.304533	101.490	-0.330	0.330	0.080	101.310	-0.800	0.400																			1580058557.0	10.41	19.28
26/01/2020 17:09:18	26012020	260120	170918	101.360	12.225305	-56.304482	101.590	0.060	-0.510	0.040	101.370	-1.500	0.400																			1580058558.0	10.62	19.67
26/01/2020 17:09:19	26012020	260120	170919	101.460	12.225295	-56.304427	101.700	0.410	-0.950	0.040	101.480	-2.200	0.400																			1580058559.0	11.36	21.04
26/01/2020 17:09:20	26012020	260120	170920	101.560	12.225285	-56.304373	101.750	0.400	-0.680	0.180	101.590	-2.200	0.500																			1580058560.0	11.82	21.89
26/01/2020 17:09:21	26012020	260120	170921	101.620	12.225275	-56.304325	101.710	0.100	-0.220	0.400	101.610	-1.700	0.700																			1580058561.0	11.31	20.95
26/01/2020 17:09:22	26012020	260120	170922	101.560	12.225263	-56.304277	101.530	-0.090	-0.210	0.700	101.560	-1.600	0.800																			1580058562.0	10.54	19.52
26/01/2020 17:09:23	26012020	260120	170923	101.370	12.225252	-56.304227	101.240	0.060	-0.680	0.910	101.310	-1.800	1.200																			1580058563.0	10.46	19.37
26/01/2020 17:09:24	26012020	260120	170924	101.060	12.225240	-56.304172	100.960	0.270	-0.980	0.880	101.060	-2.000	1.300																			1580058564.0	11.10	20.56
26/01/2020 17:09:25	26012020	260120	170925	100.810	12.225228	-56.304117	100.890	0.140	-0.510	0.750	100.780	-2.100	1.200																			1580058565.0	11.80	21.85
26/01/2020 17:09:26	26012020	260120	170926	100.750	12.225218	-56.304068	100.910	-0.290	0.330	0.610	100.760	-1.300	1.000																			1580058566.0	11.66	21.59
26/01/2020 17:09:27	26012020	260120	170927	100.790	12.225208	-56.304020	101.000	-0.600	0.630	0.380	100.810	-0.700	0.800																			1580058567.0	10.76	19.93
26/01/2020 17:09:28	26012020	260120	170928	100.890	12.225198	-56.303968	101.140	-0.590	0.300	0.140	100.930	-0.900	0.600																			1580058568.0	10.39	19.24
26/01/2020 17:09:29	26012020	260120	170929	101.030	12.225187	-56.303915	101.260	-0.380	-0.130	0.090	101.050	-1.400	0.400																			1580058569.0	10.97	20.32
26/01/2020 17:09:30	26012020	260120	170930	101.160	12.225175	-56.303863	101.390	-0.140	-0.260	0.140	101.180	-1.600	0.500																			1580058570.0	11.53	21.35
26/01/2020 17:09:31	26012020	260120	170931	101.280	12.225163	-56.303812	101.490	0.080	-0.260	0.150	101.310	-1.600	0.500																			1580058571.0	11.44	21.19
26/01/2020 17:09:32	26012020	260120	170932	101.380	12.225152	-56.303762	101.550	0.340	-0.390	0.200	101.400	-1.700	0.500																			1580058572.0	10.99	20.35
26/01/2020 17:09:33	26012020	260120	170933	101.440	12.225142	-56.303712	101.560	0.560	-0.490	0.210	101.440	-1.800	0.600																			1580058573.0	10.85	20.09
26/01/2020 17:09:34	26012020	260120	170934	101.450	12.225132	-56.303660	101.540	0.620	-0.470	0.260	101.450	-1.800	0.600																			1580058574.0	11.03	20.43
26/01/2020 17:09:35	26012020	260120	170935	101.420	12.225122	-56.303610	101.420	0.480	-0.470	0.380	101.400	-1.800	0.700																			1580058575.0	11.00	20.37
26/01/2020 17:09:36	26012020	260120	170936	101.290	12.225113	-56.303558	101.280	0.190	-0.410	0.510	101.290	-1.800	0.700																			1580058576.0	10.94	20.26
26/01/2020 17:09:37	26012020	260120	170937	101.150	12.225103	-56.303507	101.150	-0.160	-0.290	0.600	101.120	-1.700	0.900																			1580058577.0	11.03	20.43
26/01/2020 17:09:38	26012020	260120	170938	101.010	12.225092	-56.303457	100.990	-0.390	-0.290	0.640	100.990	-1.600	1.000																			1580058578.0	11.01	20.39
26/01/2020 17:09:39	26012020	260120	170939	100.850	12.225080	-56.303405	100.800	-0.410	-0.440	0.650	100.810	-1.700	1.000																			1580058579.0	11.00	20.37
26/01/2020 17:09:40	26012020	260120	170940	100.650	12.225068	-56.303352	100.640	-0.270	-0.570	0.670	100.610	-1.900	1.000																			1580058580.0	11.22	20.78
26/01/2020 17:09:41	26012020	260120	170941	100.500	12.225055	-56.303298	100.660	-0.160	-0.340	0.520	100.490	-1.800	0.900																			1580058581.0	11.49	21.28
26/01/2020 17:09:42	26012020	260120	170942	100.550	12.225043	-56.303247	100.820	-0.290	0.320	0.240	100.570	-1.300	0.700																			1580058582.0	11.54	21.37
26/01/2020 17:09:43	26012020	260120	170943	100.710	12.225033	-56.303198	100.980	-0.490	0.760	0.000	100.750	-0.700	0.400																			1580058583.0	11.10	20.56
26/01/2020 17:09:44	26012020	260120	170944	100.870	12.225023	-56.303150	101.130	-0.390	0.440	-0.160	100.900	-0.700	0.300																			1580058584.0	10.47	19.39
26/01/2020 17:09:45	26012020	260120	170945	101.010	12.225012	-56.303098	101.280	0.160	-0.400	-0.300	101.050	-1.400	0.100																			1580058585.0	10.57	19.58
26/01/2020 17:09:46	26012020	260120	170946	101.170	12.225002	-56.303043	101.420	0.730	-0.970	-0.340	101.210	-2.200	0.000																			1580058586.0	11.31	20.95
26/01/2020 17:09:47	26012020	260120	170947	101.320	12.224993	-56.302990	101.510	0.840	-0.760	-0.130	101.330	-2.300	0.100																			1580058587.0	11.82	21.89
26/01/2020 17:09:48	26012020	260120	170948	101.390	12.224983	-56.302940	101.550	0.430	-0.070	0.250	101.390	-2.100	0.200																			1580058588.0	11.47	21.24
26/01/2020 17:09:49	26012020	260120	170949	101.420	12.224973	-56.302893	101.480	-0.040	0.190	0.510	101.410	-1.200	0.800																			1580058589.0	10.56	19.56
26/01/2020 17:09:50	26012020	260120	170950	101.340	12.224963	-56.302845	101.290	-0.180	-0.330	0.730	101.310	-1.400	1.000																			1580058590.0	10.09	18.69
26/01/2020 17:09:51	26012020	260120	170951	101.140	12.224950	-56.302792	101.090	-0.030	-1.040	0.880	101.100	-2.200	1.200																			1580058591.0	10.67	19.76
26/01/2020 17:09:52	26012020	260120	170952	100.940	12.224938	-56.302737	100.990	0.070	-1.110	0.800	100.920	-2.500	1.200																			1580058592.0	11.63	21.54
26/01/2020 17:09:53	26012020	260120	170953	100.860	12.224927	-56.302685	100.950	-0.100	-0.400	0.660	100.860	-2.100	1.100																			1580058593.0	11.91	22.06
26/01/2020 17:09:54	26012020	260120	170954	100.820	12.224915	-56.302637	100.860	-0.380	0.370	0.540	100.790	-1.200	0.900																			1580058594.0	11.27	20.87
26/01/2020 17:09:55	26012020	260120	170955	100.710	12.224905	-56.302588	100.780	-0.510	0.540	0.330	100.690	-0.800	0.800																			1580058595.0	10.50	19.45
26/01/2020 17:09:56	26012020	260120	170956	100.650	12.224893	-56.302537	100.850	-0.380	0.220	-0.010	100.650	-1.000	0.500																			1580058596.0	10.51	19.46
26/01/2020 17:09:57	26012020	260120	170957	100.740	12.224883	-56.302483	101.010	-0.080	-0.180	-0.170	100.770	-1.400	0.200																			1580058597.0	11.09	20.54
26/01/2020 17:09:58	26012020	260120	170958	100.900	12.224873	-56.302430	101.120	0.200	-0.450	-0.100	100.930	-1.700	0.200																			1580058598.0	11.47	21.24
26/01/2020 17:09:59	26012020	260120	170959	101.010	12.224863	-56.302378	101.170	0.270	-0.460	0.110	101.020	-1.900	0.400	1015.00	26.20	26.30	19.80	19.90	875.00	67.00	67.00	376.00	29.30	352.00	9.90	83.00	4.30	63796	3263.00	27.70	27.60	1580058599.0	11.43	21.17
26/01/2020 17:10:00	26012020	260120	171000	101.040	12.224852	-56.302328	101.170	0.130	-0.190	0.410	101.040	-1.800	0.500																			1580058600.0	11.22	20.78
26/01/2020 17:10:01	26012020	260120	171001	101.040	12.224840	-56.302280	101.140	0.010	0.030	0.510	101.040	-1.400	0.900																			1580058601.0	10.91	20.21
26/01/2020 17:10:02	26012020	260120	171002	101.000	12.224830	-56.302230	101.030	0.160	-0.300	0.410	100.990	-1.500	0.800																			1580058602.0	10.54	19.52
26/01/2020 17:10:03	26012020	260120	171003	100.890	12.224820	-56.302177	100.930	0.490	-0.940	0.370	100.870	-2.100	0.700																			1580058603.0	10.64	19.71
26/01/2020 17:10:04	26012020	260120	171004	100.800	12.224810	-56.302123	100.860	0.610	-0.990	0.400	100.780	-2.400	0.700																			1580058604.0	11.39	21.09
26/01/2020 17:10:05	26012020	260120	171005	100.730	12.224798	-56.302072	100.850	0.260	-0.220	0.390	100.720	-1.900	0.800																			1580058605.0	11.80	21.85
26/01/2020 17:10:06	26012020	260120	171006	100.720	12.224790	-56.302023	100.890	-0.300	0.550	0.420	100.730	-1.000	0.700																			1580058606.0	11.17	20.69
26/01/2020 17:10:07	26012020	260120	171007	100.770	12.224778	-56.301977	100.890	-0.640	0.560	0.520	100.770	-0.700	0.800																			1580058607.0	10.26	19.00
26/01/2020 17:10:08	26012020	260120	171008	100.760	12.224767	-56.301925	100.840	-0.580	-0.050	0.560	100.750	-1.200	0.900																			1580058608.0	10.29	19.06
26/01/2020 17:10:09	26012020	260120	171009	100.700	12.224755	-56.301872	100.800	-0.280	-0.610	0.540	100.680	-1.800	0.900																			1580058609.0	11.09	20.54
26/01/2020 17:10:10	26012020	260120	171010	100.660	12.224743	-56.301818	100.850	0.000	-0.680	0.450	100.660	-2.100	0.800																			1580058610.0	11.67	21.61
26/01/2020 17:10:11	26012020	260120	171011	100.720	12.224733	-56.301767	100.910	0.180	-0.510	0.280	100.740	-1.900	0.700																			1580058611.0	11.49	21.28
26/01/2020 17:10:12	26012020	260120	171012	100.780	12.224723	-56.301717	100.790	0.330	-0.520	0.240	100.780	-1.900	0.600																			1580058612.0	10.95	20.28
26/01/2020 17:10:13	26012020	260120	171013	100.640	12.224713	-56.301665	100.570	0.410	-0.560	0.320	100.590	-1.900	0.600																			1580058613.0	10.83	20.06
26/01/2020 17:10:14	26012020	260120	171014	100.450	12.224703	-56.301613	100.430	0.310	-0.320	0.440	100.400	-1.900	0.700																			1580058614.0	11.17	20.69
26/01/2020 17:10:15	26012020	260120	171015	100.280	12.224693	-56.301562	100.440	-0.010	0.160	0.520	100.270	-1.400	0.900																			1580058615.0	11.26	20.85
26/01/2020 17:10:16	26012020	260120	171016	100.310	12.224683	-56.301513	100.570	-0.310	0.340	0.520	100.330	-1.000	0.900																			1580058616.0	10.93	20.24
26/01/2020 17:10:17	26012020	260120	171017	100.430	12.224673	-56.301463	100.640	-0.320	-0.060	0.570	100.450	-1.200	0.900																			1580058617.0	10.62	19.67
26/01/2020 17:10:18	26012020	260120	171018	100.490	12.224660	-56.301410	100.620	-0.100	-0.480	0.710	100.490	-1.700	1.000																			1580058618.0	10.94	20.26
26/01/2020 17:10:19	26012020	260120	171019	100.460	12.224648	-56.301357	100.570	0.050	-0.320	0.700	100.450	-1.800	1.100																			1580058619.0	11.56	21.41
26/01/2020 17:10:20	26012020	260120	171020	100.410	12.224638	-56.301307	100.540	0.010	0.050	0.470	100.400	-1.400	0.900																			1580058620.0	11.50	21.30
26/01/2020 17:10:21	26012020	260120	171021	100.390	12.224630	-56.301258	100.590	-0.030	-0.030	0.220	100.390	-1.300	0.700																			1580058621.0	10.78	19.96
26/01/2020 17:10:22	26012020	260120	171022	100.450	12.224622	-56.301205	100.720	0.010	-0.380	0.020	100.480	-1.600	0.400																			1580058622.0	10.55	19.54
26/01/2020 17:10:23	26012020	260120	171023	100.590	12.224612	-56.301153	100.810	-0.030	-0.500	0.010	100.620	-1.900	0.300																			1580058623.0	11.09	20.54
26/01/2020 17:10:24	26012020	260120	171024	100.680	12.224602	-56.301102	100.780	-0.090	-0.360	0.350	100.680	-1.800	0.600																			1580058624.0	11.33	20.98
26/01/2020 17:10:25	26012020	260120	171025	100.620	12.224588	-56.301053	100.590	0.040	-0.380	0.610	100.590	-1.700	0.900																			1580058625.0	10.98	20.33
26/01/2020 17:10:26	26012020	260120	171026	100.460	12.224577	-56.301002	100.280	0.440	-0.770	0.500	100.400	-1.700	1.000																			1580058626.0	10.76	19.93
26/01/2020 17:10:27	26012020	260120	171027	100.100	12.224568	-56.300948	100.040	0.750	-0.930	0.320	100.040	-2.300	0.700																			1580058627.0	11.08	20.52
26/01/2020 17:10:28	26012020	260120	171028	99.890	12.224560	-56.300893	100.100	0.530	-0.300	0.130	99.890	-2.000	0.600																			1580058628.0	11.66	21.59
26/01/2020 17:10:29	26012020	260120	171029	99.980	12.224553	-56.300845	100.340	-0.150	0.550	0.030	100.030	-1.100	0.400																			1580058629.0	11.46	21.22
26/01/2020 17:10:30	26012020	260120	171030	100.230	12.224545	-56.300797	100.510	-0.740	0.610	0.310	100.270	-0.700	0.500																			1580058630.0	10.52	19.48
26/01/2020 17:10:31	26012020	260120	171031	100.360	12.224532	-56.300747	100.530	-0.830	-0.090	0.780	100.370	-1.200	1.000																			1580058631.0	10.25	18.98
26/01/2020 17:10:32	26012020	260120	171032	100.370	12.224517	-56.300692	100.560	-0.580	-0.520	1.010	100.380	-1.800	1.300																			1580058632.0	11.16	20.67
26/01/2020 17:10:33	26012020	260120	171033	100.390	12.224503	-56.300640	100.590	-0.310	-0.350	0.900	100.400	-1.800	1.300																			1580058633.0	11.91	22.06
26/01/2020 17:10:34	26012020	260120	171034	100.430	12.224492	-56.300590	100.640	-0.050	-0.180	0.480	100.440	-1.600	1.000																			1580058634.0	11.43	21.17
26/01/2020 17:10:35	26012020	260120	171035	100.500	12.224483	-56.300540	100.710	0.250	-0.420	-0.020	100.520	-1.700	0.500																			1580058635.0	10.70	19.82
26/01/2020 17:10:36	26012020	260120	171036	100.580	12.224477	-56.300487	100.800	0.450	-0.630	-0.230	100.590	-2.000	0.200																			1580058636.0	10.81	20.02
26/01/2020 17:10:37	26012020	260120	171037	100.660	12.224467	-56.300435	100.930	0.360	-0.290	-0.090	100.680	-1.800	0.200																			1580058637.0	11.37	21.06
26/01/2020 17:10:38	26012020	260120	171038	100.790	12.224457	-56.300387	101.060	0.070	0.240	0.100	100.830	-1.300	0.400																			1580058638.0	11.25	20.84
26/01/2020 17:10:39	26012020	260120	171039	100.920	12.224447	-56.300338	101.090	-0.100	0.220	0.230	100.930	-1.100	0.500																			1580058639.0	10.56	19.56
26/01/2020 17:10:40	26012020	260120	171040	100.930	12.224435	-56.300287	100.950	0.010	-0.410	0.360	100.920	-1.500	0.700																			1580058640.0	10.34	19.15
26/01/2020 17:10:41	26012020	260120	171041	100.790	12.224423	-56.300233	100.740	0.250	-0.940	0.480	100.750	-2.200	0.800																			1580058641.0	11.01	20.39
26/01/2020 17:10:42	26012020	260120	171042	100.570	12.224413	-56.300180	100.620	0.370	-0.750	0.390	100.540	-2.300	0.800																			1580058642.0	11.68	21.63
26/01/2020 17:10:43	26012020	260120	171043	100.470	12.224403	-56.300130	100.670	0.190	-0.010	0.080	100.480	-1.600	0.500																			1580058643.0	11.57	21.43
26/01/2020 17:10:44	26012020	260120	171044	100.550	12.224397	-56.300082	100.790	-0.140	0.440	-0.110	100.570	-1.000	0.300																			1580058644.0	10.84	20.08
26/01/2020 17:10:45	26012020	260120	171045	100.660	12.224388	-56.300032	100.850	-0.300	0.100	-0.020	100.670	-1.100	0.300																			1580058645.0	10.29	19.06
26/01/2020 17:10:46	26012020	260120	171046	100.710	12.224377	-56.299978	100.850	-0.240	-0.520	0.290	100.710	-1.700	0.500																			1580058646.0	10.60	19.63
26/01/2020 17:10:47	26012020	260120	171047	100.700	12.224363	-56.299925	100.760	-0.190	-0.740	0.670	100.680	-2.100	0.900																			1580058647.0	11.46	21.22
26/01/2020 17:10:48	26012020	260120	171048	100.590	12.224350	-56.299875	100.590	-0.220	-0.600	0.880	100.550	-2.000	1.200																			1580058648.0	11.68	21.63
26/01/2020 17:10:49	26012020	260120	171049	100.420	12.224337	-56.299825	100.510	-0.230	-0.400	0.800	100.390	-1.800	1.200																			1580058649.0	11.22	20.78
26/01/2020 17:10:50	26012020	260120	171050	100.340	12.224327	-56.299773	100.520	-0.180	-0.250	0.550	100.340	-1.800	1.100																			1580058650.0	10.91	20.21
26/01/2020 17:10:51	26012020	260120	171051	100.370	12.224315	-56.299723	100.500	-0.100	-0.110	0.340	100.380	-1.500	0.700																			1580058651.0	10.96	20.30
26/01/2020 17:10:52	26012020	260120	171052	100.350	12.224305	-56.299672	100.360	-0.000	0.080	0.280	100.330	-1.300	0.600																			1580058652.0	11.07	20.50
26/01/2020 17:10:53	26012020	260120	171053	100.190	12.224295	-56.299622	100.210	0.120	0.170	0.250	100.160	-1.200	0.600																			1580058653.0	11.03	20.43
26/01/2020 17:10:54	26012020	260120	171054	100.060	12.224287	-56.299570	100.300	0.230	0.050	0.170	100.070	-1.300	0.600																			1580058654.0	10.94	20.26
26/01/2020 17:10:55	26012020	260120	171055	100.180	12.224277	-56.299518	100.530	0.230	-0.080	0.120	100.220	-1.400	0.500																			1580058655.0	11.02	20.41
26/01/2020 17:10:56	26012020	260120	171056	100.400	12.224268	-56.299467	100.770	0.180	-0.160	0.130	100.450	-1.500	0.500																			1580058656.0	11.15	20.65
26/01/2020 17:10:57	26012020	260120	171057	100.640	12.224258	-56.299417	100.910	0.220	-0.350	0.430	100.680	-1.600	0.600																			1580058657.0	11.00	20.37
26/01/2020 17:10:58	26012020	260120	171058	100.760	12.224247	-56.299365	100.930	0.270	-0.490	0.780	100.770	-1.800	1.000																			1580058658.0	10.90	20.19
26/01/2020 17:10:59	26012020	260120	171059	100.780	12.224237	-56.299315	100.940	0.190	-0.500	0.730	100.780	-1.900	1.100	1015.00	26.20	26.30	19.80	19.80	876.00	67.00	67.00	376.00	29.30	353.00	9.30	83.00	3.70	63745	3090.00	27.60	27.60	1580058659.0	11.03	20.43
26/01/2020 17:11:00	26012020	260120	171100	100.780	12.224227	-56.299263	100.880	0.110	-0.660	0.570	100.780	-1.900	1.100																			1580058660.0	10.97	20.32
26/01/2020 17:11:01	26012020	260120	171101	100.720	12.224218	-56.299212	100.720	0.140	-0.960	0.550	100.690	-2.200	0.900																			1580058661.0	11.20	20.74
26/01/2020 17:11:02	26012020	260120	171102	100.550	12.224208	-56.299158	100.520	0.110	-0.910	0.600	100.550	-2.300	0.900																			1580058662.0	11.20	20.74
26/01/2020 17:11:03	26012020	260120	171103	100.360	12.224197	-56.299107	100.330	-0.180	-0.280	0.730	100.320	-1.900	1.000																			1580058663.0	11.54	21.37
26/01/2020 17:11:04	26012020	260120	171104	100.170	12.224185	-56.299057	100.220	-0.610	0.390	0.810	100.150	-1.200	1.100																			1580058664.0	11.26	20.85
26/01/2020 17:11:05	26012020	260120	171105	100.060	12.224173	-56.299008	100.220	-0.830	0.500	0.750	100.050	-0.800	1.100																			1580058665.0	10.70	19.82
26/01/2020 17:11:06	26012020	260120	171106	100.080	12.224162	-56.298957	100.400	-0.650	0.080	0.520	100.100	-1.100	1.000																			1580058666.0	10.68	19.78
26/01/2020 17:11:07	26012020	260120	171107	100.270	12.224150	-56.298902	100.660	-0.250	-0.220	0.250	100.320	-1.500	0.700																			1580058667.0	11.26	20.85
26/01/2020 17:11:08	26012020	260120	171108	100.540	12.224140	-56.298848	100.920	0.050	0.030	0.020	100.590	-1.500	0.400																			1580058668.0	11.74	21.74
26/01/2020 17:11:09	26012020	260120	171109	100.810	12.224130	-56.298800	101.130	0.170	0.400	-0.170	100.850	-1.100	0.300																			1580058669.0	11.42	21.15
26/01/2020 17:11:10	26012020	260120	171110	101.010	12.224122	-56.298752	101.280	0.280	0.230	-0.380	101.050	-1.000	0.000																			1580058670.0	10.64	19.71
26/01/2020 17:11:11	26012020	260120	171111	101.160	12.224113	-56.298700	101.350	0.560	-0.510	-0.480	101.180	-1.600	-0.100																			1580058671.0	10.38	19.22
26/01/2020 17:11:12	26012020	260120	171112	101.230	12.224105	-56.298647	101.350	0.870	-1.180	-0.380	101.240	-2.400	-0.100																			1580058672.0	10.92	20.22
26/01/2020 17:11:13	26012020	260120	171113	101.220	12.224097	-56.298593	101.200	0.920	-1.170	-0.010	101.200	-2.600	0.200																			1580058673.0	11.54	21.37
26/01/2020 17:11:14	26012020	260120	171114	101.090	12.224087	-56.298542	100.970	0.580	-0.640	0.410	101.050	-2.500	0.400																			1580058674.0	11.50	21.30
26/01/2020 17:11:15	26012020	260120	171115	100.810	12.224077	-56.298493	100.820	0.000	-0.130	0.600	100.770	-1.600	0.900																			1580058675.0	10.88	20.15
26/01/2020 17:11:16	26012020	260120	171116	100.660	12.224067	-56.298445	100.730	-0.520	-0.020	0.710	100.660	-1.500	1.000																			1580058676.0	10.50	19.45
26/01/2020 17:11:17	26012020	260120	171117	100.570	12.224053	-56.298393	100.610	-0.770	-0.260	0.810	100.550	-1.500	1.100																			1580058677.0	10.68	19.78
26/01/2020 17:11:18	26012020	260120	171118	100.440	12.224040	-56.298340	100.410	-0.710	-0.550	0.890	100.400	-1.800	1.200																			1580058678.0	11.17	20.69
26/01/2020 17:11:19	26012020	260120	171119	100.230	12.224027	-56.298287	100.290	-0.520	-0.460	0.900	100.190	-1.900	1.300																			1580058679.0	11.61	21.50
26/01/2020 17:11:20	26012020	260120	171120	100.130	12.224013	-56.298235	100.420	-0.480	0.080	0.680	100.150	-1.500	1.100																			1580058680.0	11.72	21.71
26/01/2020 17:11:21	26012020	260120	171121	100.280	12.224003	-56.298185	100.620	-0.540	0.610	0.290	100.320	-0.900	0.800																			1580058681.0	11.30	20.93
26/01/2020 17:11:22	26012020	260120	171122	100.480	12.223993	-56.298137	100.760	-0.400	0.600	-0.100	100.520	-0.700	0.400																			1580058682.0	10.70	19.82
26/01/2020 17:11:23	26012020	260120	171123	100.640	12.223983	-56.298085	100.910	0.120	0.000	-0.380	100.670	-1.100	0.100																			1580058683.0	10.57	19.58
26/01/2020 17:11:24	26012020	260120	171124	100.790	12.223975	-56.298032	101.070	0.830	-0.770	-0.510	100.830	-1.900	-0.100																			1580058684.0	11.03	20.43
26/01/2020 17:11:25	26012020	260120	171125	100.950	12.223967	-56.297977	101.180	1.220	-0.960	-0.390	100.980	-2.400	-0.100																			1580058685.0	11.57	21.43
26/01/2020 17:11:26	26012020	260120	171126	101.060	12.223957	-56.297925	101.240	0.920	-0.270	-0.090	101.070	-1.900	0.200																			1580058686.0	11.75	21.76
26/01/2020 17:11:27	26012020	260120	171127	101.120	12.223948	-56.297878	101.310	0.170	0.480	0.250	101.130	-1.100	0.500																			1580058687.0	11.05	20.46
26/01/2020 17:11:28	26012020	260120	171128	101.180	12.223940	-56.297832	101.330	-0.370	0.250	0.570	101.190	-0.900	0.800																			1580058688.0	9.99	18.50
26/01/2020 17:11:29	26012020	260120	171129	101.170	12.223928	-56.297782	101.210	-0.330	-0.850	0.820	101.150	-1.800	1.100																			1580058689.0	9.94	18.41
26/01/2020 17:11:30	26012020	260120	171130	101.030	12.223915	-56.297725	100.960	-0.010	-1.630	0.980	100.990	-2.800	1.300																			1580058690.0	11.08	20.52
26/01/2020 17:11:31	26012020	260120	171131	100.760	12.223902	-56.297672	100.690	0.070	-1.250	1.070	100.700	-2.900	1.400																			1580058691.0	12.13	22.46
26/01/2020 17:11:32	26012020	260120	171132	100.490	12.223890	-56.297622	100.580	-0.270	-0.110	0.870	100.450	-1.900	1.300																			1580058692.0	11.90	22.04
26/01/2020 17:11:33	26012020	260120	171133	100.410	12.223880	-56.297575	100.670	-0.610	0.660	0.370	100.420	-0.900	0.900																			1580058693.0	10.78	19.96
26/01/2020 17:11:34	26012020	260120	171134	100.530	12.223870	-56.297527	100.800	-0.490	0.480	-0.090	100.560	-0.700	0.400																			1580058694.0	10.07	18.65
26/01/2020 17:11:35	26012020	260120	171135	100.670	12.223860	-56.297472	100.930	0.000	-0.090	-0.320	100.700	-1.300	0.100																			1580058695.0	10.55	19.54
26/01/2020 17:11:36	26012020	260120	171136	100.800	12.223850	-56.297417	101.120	0.360	-0.200	-0.320	100.830	-1.600	0.000																			1580058696.0	11.57	21.43
26/01/2020 17:11:37	26012020	260120	171137	100.990	12.223840	-56.297367	101.350	0.290	0.170	-0.150	101.040	-1.400	0.100																			1580058697.0	11.81	21.87
26/01/2020 17:11:38	26012020	260120	171138	101.220	12.223830	-56.297318	101.560	-0.010	0.400	0.030	101.270	-1.000	0.300																			1580058698.0	11.08	20.52
26/01/2020 17:11:39	26012020	260120	171139	101.420	12.223820	-56.297270	101.630	-0.160	-0.050	0.190	101.440	-1.200	0.500																			1580058699.0	10.35	19.17
26/01/2020 17:11:40	26012020	260120	171140	101.470	12.223808	-56.297218	101.540	0.020	-0.880	0.410	101.470	-1.400	0.500																			1580058700.0	10.42	19.30
26/01/2020 17:11:41	26012020	260120	171141	101.370	12.223797	-56.297165	101.400	0.270	-1.290	0.520	101.340	-2.600	0.900																			1580058701.0	11.12	20.59
26/01/2020 17:11:42	26012020	260120	171142	101.220	12.223785	-56.297113	101.260	0.200	-0.920	0.580	101.200	-2.500	0.900																			1580058702.0	11.62	21.52
26/01/2020 17:11:43	26012020	260120	171143	101.080	12.223773	-56.297065	101.050	-0.090	-0.280	0.640	101.050	-1.800	1.000																			1580058703.0	11.26	20.85
26/01/2020 17:11:44	26012020	260120	171144	100.860	12.223762	-56.297017	100.730	-0.140	-0.120	0.500	100.800	-1.500	0.900																			1580058704.0	10.49	19.43
26/01/2020 17:11:45	26012020	260120	171145	100.540	12.223752	-56.296965	100.490	0.220	-0.390	0.210	100.470	-1.700	0.700																			1580058705.0	10.40	19.26
26/01/2020 17:11:46	26012020	260120	171146	100.330	12.223742	-56.296912	100.570	0.470	-0.290	0.020	100.330	-1.800	0.400																			1580058706.0	11.13	20.61
26/01/2020 17:11:47	26012020	260120	171147	100.440	12.223733	-56.296858	100.850	0.210	0.410	-0.060	100.490	-1.200	0.300																			1580058707.0	11.73	21.72
26/01/2020 17:11:48	26012020	260120	171148	100.730	12.223723	-56.296812	101.160	-0.300	0.970	-0.030	100.800	-0.500	0.300																			1580058708.0	11.16	20.67
26/01/2020 17:11:49	26012020	260120	171149	101.040	12.223713	-56.296763	101.460	-0.560	0.660	0.200	101.110	-0.500	0.500																			1580058709.0	10.28	19.04
26/01/2020 17:11:50	26012020	260120	171150	101.340	12.223700	-56.296713	101.680	-0.380	-0.300	0.530	101.390	-1.300	0.800																			1580058710.0	10.27	19.02
26/01/2020 17:11:51	26012020	260120	171151	101.540	12.223687	-56.296660	101.680	0.080	-1.140	0.670	101.560	-2.300	1.000																			1580058711.0	11.07	20.50
26/01/2020 17:11:52	26012020	260120	171152	101.540	12.223675	-56.296607	101.470	0.390	-1.250	0.670	101.510	-2.500	1.000																			1580058712.0	11.65	21.58
26/01/2020 17:11:53	26012020	260120	171153	101.300	12.223665	-56.296557	101.240	0.310	-0.760	0.650	101.250	-2.300	1.000																			1580058713.0	11.49	21.28
26/01/2020 17:11:54	26012020	260120	171154	101.060	12.223655	-56.296510	101.080	-0.010	-0.260	0.490	101.060	-2.100	1.000																			1580058714.0	10.79	19.98
26/01/2020 17:11:55	26012020	260120	171155	100.910	12.223645	-56.296462	100.970	-0.270	-0.090	0.290	100.890	-1.500	0.700																			1580058715.0	10.31	19.09
26/01/2020 17:11:56	26012020	260120	171156	100.820	12.223635	-56.296410	100.870	-0.330	-0.210	0.260	100.810	-1.500	0.600																			1580058716.0	10.46	19.37
26/01/2020 17:11:57	26012020	260120	171157	100.700	12.223623	-56.296358	100.640	-0.170	-0.440	0.420	100.660	-1.700	0.700																			1580058717.0	10.93	20.24
26/01/2020 17:11:58	26012020	260120	171158	100.450	12.223610	-56.296307	100.410	0.130	-0.450	0.480	100.390	-1.900	0.800																			1580058718.0	11.29	20.91
26/01/2020 17:11:59	26012020	260120	171159	100.240	12.223598	-56.296253	100.490	0.380	-0.120	0.210	100.230	-1.600	0.700	1015.00	26.20	26.30	19.70	19.80	880.00	67.00	67.00	376.00	29.30	354.00	9.80	86.00	4.20	63835	3555.00	27.70	27.70	1580058719.0	11.45	21.21
26/01/2020 17:12:00	26012020	260120	171200	100.370	12.223590	-56.296203	100.880	0.370	0.350	-0.160	100.440	-1.200	0.300																			1580058720.0	11.26	20.85
26/01/2020 17:12:01	26012020	260120	171201	100.780	12.223583	-56.296153	101.290	0.080	0.620	-0.210	100.880	-0.800	0.100																			1580058721.0	10.88	20.15
26/01/2020 17:12:02	26012020	260120	171202	101.170	12.223573	-56.296105	101.470	-0.230	0.460	0.110	101.220	-0.800	0.300																			1580058722.0	10.59	19.61
26/01/2020 17:12:03	26012020	260120	171203	101.320	12.223562	-56.296055	101.450	-0.330	-0.080	0.420	101.330	-1.200	0.700																			1580058723.0	10.60	19.63
26/01/2020 17:12:04	26012020	260120	171204	101.310	12.223548	-56.296003	101.370	-0.140	-0.860	0.600	101.290	-1.500	0.800																			1580058724.0	10.85	20.09
26/01/2020 17:12:05	26012020	260120	171205	101.200	12.223537	-56.295950	101.200	0.160	-1.380	0.700	101.170	-2.600	1.000																			1580058725.0	11.16	20.67
26/01/2020 17:12:06	26012020	260120	171206	101.020	12.223525	-56.295898	101.000	0.250	-1.070	0.600	100.980	-2.600	1.000																			1580058726.0	11.49	21.28
26/01/2020 17:12:07	26012020	260120	171207	100.820	12.223515	-56.295850	100.810	0.020	-0.200	0.480	100.780	-1.900	0.900																			1580058727.0	11.31	20.95
26/01/2020 17:12:08	26012020	260120	171208	100.640	12.223505	-56.295803	100.660	-0.270	0.370	0.320	100.610	-1.100	0.700																			1580058728.0	10.56	19.56
26/01/2020 17:12:09	26012020	260120	171209	100.500	12.223495	-56.295755	100.540	-0.230	0.120	0.100	100.470	-1.100	0.500																			1580058729.0	10.06	18.63
26/01/2020 17:12:10	26012020	260120	171210	100.390	12.223485	-56.295702	100.510	0.150	-0.500	-0.210	100.370	-1.700	0.200																			1580058730.0	10.47	19.39
26/01/2020 17:12:11	26012020	260120	171211	100.380	12.223475	-56.295647	100.600	0.450	-0.650	-0.310	100.390	-2.100	0.000																			1580058731.0	11.40	21.11
26/01/2020 17:12:12	26012020	260120	171212	100.480	12.223467	-56.295595	100.720	0.370	-0.240	-0.070	100.500	-1.800	0.200																			1580058732.0	11.78	21.82
26/01/2020 17:12:13	26012020	260120	171213	100.580	12.223455	-56.295547	100.730	0.050	0.110	0.300	100.590	-1.300	0.500																			1580058733.0	11.20	20.74
26/01/2020 17:12:14	26012020	260120	171214	100.560	12.223443	-56.295497	100.620	-0.190	-0.020	0.680	100.540	-1.300	0.900																			1580058734.0	10.53	19.50
26/01/2020 17:12:15	26012020	260120	171215	100.440	12.223432	-56.295447	100.540	-0.270	-0.350	0.880	100.420	-1.600	1.200																			1580058735.0	10.66	19.74
26/01/2020 17:12:16	26012020	260120	171216	100.360	12.223420	-56.295393	100.560	-0.250	-0.450	0.830	100.360	-1.800	1.200																			1580058736.0	11.20	20.74
26/01/2020 17:12:17	26012020	260120	171217	100.380	12.223408	-56.295342	100.560	-0.240	-0.200	0.720	100.390	-1.700	1.100																			1580058737.0	11.37	21.06
26/01/2020 17:12:18	26012020	260120	171218	100.370	12.223398	-56.295293	100.550	-0.300	0.180	0.570	100.370	-1.300	1.000																			1580058738.0	11.11	20.58
26/01/2020 17:12:19	26012020	260120	171219	100.380	12.223387	-56.295243	100.660	-0.280	0.290	0.320	100.390	-1.100	0.800																			1580058739.0	10.72	19.85
26/01/2020 17:12:20	26012020	260120	171220	100.500	12.223377	-56.295195	100.770	-0.020	-0.090	0.040	100.530	-1.300	0.500																			1580058740.0	10.52	19.48
26/01/2020 17:12:21	26012020	260120	171221	100.610	12.223367	-56.295142	100.750	0.450	-0.670	-0.130	100.610	-1.900	0.300																			1580058741.0	10.73	19.87
26/01/2020 17:12:22	26012020	260120	171222	100.560	12.223358	-56.295088	100.610	0.800	-0.860	-0.140	100.540	-2.200	0.200																			1580058742.0	11.25	20.84
26/01/2020 17:12:23	26012020	260120	171223	100.440	12.223350	-56.295037	100.520	0.780	-0.530	0.040	100.420	-2.100	0.300																			1580058743.0	11.47	21.24
26/01/2020 17:12:24	26012020	260120	171224	100.360	12.223342	-56.294988	100.500	0.460	-0.140	0.340	100.340	-1.600	0.600																			1580058744.0	11.05	20.46
26/01/2020 17:12:25	26012020	260120	171225	100.330	12.223332	-56.294940	100.490	-0.010	-0.080	0.650	100.330	-1.400	0.900																			1580058745.0	10.53	19.50
26/01/2020 17:12:26	26012020	260120	171226	100.310	12.223320	-56.294888	100.400	-0.450	-0.250	0.920	100.280	-1.500	1.200																			1580058746.0	10.56	19.56
26/01/2020 17:12:27	26012020	260120	171227	100.200	12.223308	-56.294837	100.280	-0.670	-0.430	1.130	100.180	-1.800	1.400																			1580058747.0	10.97	20.32
26/01/2020 17:12:28	26012020	260120	171228	100.080	12.223295	-56.294785	100.140	-0.610	-0.510	1.180	100.050	-1.900	1.500																			1580058748.0	11.21	20.76
26/01/2020 17:12:29	26012020	260120	171229	99.940	12.223282	-56.294735	100.040	-0.360	-0.460	0.920	99.920	-1.900	1.400																			1580058749.0	11.28	20.89
26/01/2020 17:12:30	26012020	260120	171230	99.860	12.223272	-56.294683	100.040	-0.110	-0.240	0.490	99.860	-1.800	1.300																			1580058750.0	11.24	20.82
26/01/2020 17:12:31	26012020	260120	171231	99.880	12.223262	-56.294632	100.110	0.020	0.080	0.060	99.890	-1.400	0.600																			1580058751.0	11.17	20.69
26/01/2020 17:12:32	26012020	260120	171232	99.960	12.223253	-56.294582	100.250	0.070	0.320	-0.300	99.980	-1.100	0.200																			1580058752.0	10.99	20.35
26/01/2020 17:12:33	26012020	260120	171233	100.120	12.223247	-56.294530	100.510	0.140	0.320	-0.510	100.170	-1.000	-0.100																			1580058753.0	10.83	20.06
26/01/2020 17:12:34	26012020	260120	171234	100.400	12.223238	-56.294480	100.740	0.320	0.000	-0.420	100.450	-1.200	-0.100																			1580058754.0	10.79	19.98
26/01/2020 17:12:35	26012020	260120	171235	100.590	12.223228	-56.294428	100.740	0.530	-0.480	-0.120	100.610	-1.700	0.100																			1580058755.0	10.93	20.24
26/01/2020 17:12:36	26012020	260120	171236	100.560	12.223218	-56.294375	100.600	0.600	-0.790	0.250	100.540	-2.100	0.500																			1580058756.0	11.18	20.71
26/01/2020 17:12:37	26012020	260120	171237	100.420	12.223208	-56.294323	100.540	0.360	-0.590	0.570	100.390	-2.100	0.800																			1580058757.0	11.32	20.96
26/01/2020 17:12:38	26012020	260120	171238	100.370	12.223198	-56.294275	100.560	-0.190	-0.090	0.680	100.370	-1.700	1.000																			1580058758.0	11.14	20.63
26/01/2020 17:12:39	26012020	260120	171239	100.390	12.223188	-56.294227	100.460	-0.680	0.000	0.700	100.380	-1.300	1.000																			1580058759.0	10.58	19.59
26/01/2020 17:12:40	26012020	260120	171240	100.280	12.223177	-56.294177	100.150	-0.660	-0.600	0.870	100.220	-1.700	1.100																			1580058760.0	10.26	19.00
26/01/2020 17:12:41	26012020	260120	171241	99.940	12.223163	-56.294123	99.760	-0.230	-1.200	1.040	99.860	-2.400	1.300																			1580058761.0	10.83	20.06
26/01/2020 17:12:42	26012020	260120	171242	99.550	12.223150	-56.294068	99.510	0.150	-1.060	0.980	99.550	-2.600	1.400																			1580058762.0	11.79	21.84
26/01/2020 17:12:43	26012020	260120	171243	99.330	12.223140	-56.294017	99.520	0.200	-0.270	0.640	99.320	-2.000	1.100																			1580058763.0	11.91	22.06
26/01/2020 17:12:44	26012020	260120	171244	99.340	12.223132	-56.293968	99.760	-0.000	0.590	0.220	99.370	-1.700	1.000																			1580058764.0	11.17	20.69
26/01/2020 17:12:45	26012020	260120	171245	99.640	12.223123	-56.293918	100.130	-0.230	0.970	-0.040	99.700	-0.500	0.400																			1580058765.0	10.54	19.52
26/01/2020 17:12:46	26012020	260120	171246	100.020	12.223115	-56.293868	100.460	-0.210	0.670	-0.070	100.090	-0.600	0.300																			1580058766.0	10.41	19.28
26/01/2020 17:12:47	26012020	260120	171247	100.330	12.223105	-56.293817	100.660	0.050	0.010	0.030	100.380	-1.100	0.400																			1580058767.0	10.75	19.91
26/01/2020 17:12:48	26012020	260120	171248	100.530	12.223095	-56.293763	100.850	0.360	-0.580	0.100	100.560	-1.800	0.400																			1580058768.0	11.27	20.87
26/01/2020 17:12:49	26012020	260120	171249	100.710	12.223085	-56.293712	101.010	0.490	-0.750	0.140	100.750	-2.100	0.500																			1580058769.0	11.45	21.21
26/01/2020 17:12:50	26012020	260120	171250	100.870	12.223077	-56.293662	101.050	0.310	-0.500	0.180	100.880	-2.000	0.500																			1580058770.0	11.27	20.87
26/01/2020 17:12:51	26012020	260120	171251	100.890	12.223067	-56.293613	100.910	0.050	-0.450	0.310	100.870	-1.800	0.600																			1580058771.0	10.78	19.96
26/01/2020 17:12:52	26012020	260120	171252	100.720	12.223057	-56.293563	100.630	0.020	-0.870	0.510	100.670	-2.100	0.800																			1580058772.0	10.35	19.17
26/01/2020 17:12:53	26012020	260120	171253	100.440	12.223045	-56.293510	100.370	0.050	-1.000	0.480	100.380	-2.400	0.900																			1580058773.0	10.80	20.00
26/01/2020 17:12:54	26012020	260120	171254	100.190	12.223035	-56.293457	100.220	-0.170	-0.490	0.380	100.150	-2.100	0.800																			1580058774.0	11.52	21.34
26/01/2020 17:12:55	26012020	260120	171255	100.050	12.223025	-56.293408	100.190	-0.470	0.150	0.270	100.030	-1.400	0.700																			1580058775.0	11.30	20.93
26/01/2020 17:12:56	26012020	260120	171256	100.030	12.223015	-56.293360	100.220	-0.520	0.290	0.140	100.040	-1.100	0.500																			1580058776.0	10.63	19.69
26/01/2020 17:12:57	26012020	260120	171257	100.070	12.223003	-56.293308	100.300	-0.280	-0.020	-0.010	100.080	-1.300	0.400																			1580058777.0	10.58	19.59
26/01/2020 17:12:58	26012020	260120	171258	100.160	12.222993	-56.293253	100.480	-0.010	-0.200	-0.080	100.180	-1.600	0.300																			1580058778.0	11.19	20.72
26/01/2020 17:12:59	26012020	260120	171259	100.330	12.222982	-56.293202	100.680	0.040	0.040	-0.080	100.380	-1.500	0.300	1014.90	26.30	26.30	19.60	19.60	877.00	66.00	66.00	376.00	29.30	353.00	9.80	84.00	4.20	63670	3099.00	27.70	27.70	1580058779.0	11.63	21.54
26/01/2020 17:13:00	26012020	260120	171300	100.530	12.222972	-56.293152	100.820	-0.040	0.290	0.050	100.560	-1.200	0.300																			1580058780.0	11.31	20.95
26/01/2020 17:13:01	26012020	260120	171301	100.660	12.222962	-56.293103	100.920	-0.050	0.130	0.220	100.680	-1.200	0.500																			1580058781.0	10.67	19.76
26/01/2020 17:13:02	26012020	260120	171302	100.760	12.222950	-56.293053	101.020	0.140	-0.300	0.300	100.780	-1.500	0.600																			1580058782.0	10.58	19.59
26/01/2020 17:13:03	26012020	260120	171303	100.840	12.222940	-56.293000	101.010	0.460	-0.770	0.400	100.860	-2.000	0.700																			1580058783.0	10.95	20.28
26/01/2020 17:13:04	26012020	260120	171304	100.820	12.222930	-56.292948	100.910	0.690	-1.000	0.540	100.810	-2.400	0.900																			1580058784.0	11.20	20.74
26/01/2020 17:13:05	26012020	260120	171305	100.720	12.222920	-56.292897	100.820	0.510	-0.670	0.600	100.700	-2.200	0.900																			1580058785.0	11.32	20.96
26/01/2020 17:13:06	26012020	260120	171306	100.640	12.222912	-56.292847	100.760	-0.020	-0.020	0.640	100.620	-1.600	1.000																			1580058786.0	11.17	20.69
26/01/2020 17:13:07	26012020	260120	171307	100.570	12.222902	-56.292800	100.680	-0.500	0.250	0.720	100.550	-1.200	1.000																			1580058787.0	10.57	19.58
26/01/2020 17:13:08	26012020	260120	171308	100.500	12.222892	-56.292750	100.720	-0.620	-0.080	0.710	100.500	-1.100	1.100																			1580058788.0	10.30	19.08
26/01/2020 17:13:09	26012020	260120	171309	100.550	12.222878	-56.292697	100.780	-0.470	-0.560	0.610	100.570	-1.800	1.000																			1580058789.0	10.80	20.00
26/01/2020 17:13:10	26012020	260120	171310	100.610	12.222867	-56.292643	100.710	-0.280	-0.620	0.500	100.610	-2.000	0.900																			1580058790.0	11.49	21.28
26/01/2020 17:13:11	26012020	260120	171311	100.520	12.222855	-56.292592	100.540	-0.140	-0.210	0.330	100.490	-1.800	0.800																			1580058791.0	11.61	21.50
26/01/2020 17:13:12	26012020	260120	171312	100.360	12.222845	-56.292543	100.510	-0.020	0.130	0.050	100.340	-1.300	0.500																			1580058792.0	11.09	20.54
26/01/2020 17:13:13	26012020	260120	171313	100.350	12.222837	-56.292493	100.630	0.170	-0.000	-0.300	100.380	-1.300	0.200																			1580058793.0	10.60	19.63
26/01/2020 17:13:14	26012020	260120	171314	100.490	12.222828	-56.292440	100.740	0.370	-0.380	-0.530	100.530	-1.600	-0.100																			1580058794.0	10.74	19.89
26/01/2020 17:13:15	26012020	260120	171315	100.590	12.222820	-56.292387	100.720	0.480	-0.550	-0.420	100.600	-1.900	-0.200																			1580058795.0	11.24	20.82
26/01/2020 17:13:16	26012020	260120	171316	100.570	12.222810	-56.292335	100.780	0.350	-0.300	-0.030	100.570	-1.800	0.200																			1580058796.0	11.46	21.22
26/01/2020 17:13:17	26012020	260120	171317	100.640	12.222800	-56.292287	100.990	0.010	0.130	0.340	100.670	-1.400	0.600																			1580058797.0	11.20	20.74
26/01/2020 17:13:18	26012020	260120	171318	100.830	12.222788	-56.292238	101.130	-0.330	0.210	0.570	100.870	-1.100	0.900																			1580058798.0	10.70	19.82
26/01/2020 17:13:19	26012020	260120	171319	100.950	12.222777	-56.292188	101.130	-0.440	-0.150	0.600	100.960	-1.400	1.000																			1580058799.0	10.47	19.39
26/01/2020 17:13:20	26012020	260120	171320	100.950	12.222763	-56.292137	101.050	-0.280	-0.600	0.560	100.940	-1.500	0.900																			1580058800.0	10.84	20.08
26/01/2020 17:13:21	26012020	260120	171321	100.860	12.222752	-56.292083	100.970	-0.050	-0.740	0.450	100.840	-2.100	0.800																			1580058801.0	11.31	20.95
26/01/2020 17:13:22	26012020	260120	171322	100.790	12.222742	-56.292032	100.950	0.020	-0.440	0.240	100.780	-2.000	0.700																			1580058802.0	11.40	21.11
26/01/2020 17:13:23	26012020	260120	171323	100.770	12.222733	-56.291983	100.950	-0.040	-0.100	0.100	100.780	-1.600	0.500																			1580058803.0	11.09	20.54
26/01/2020 17:13:24	26012020	260120	171324	100.780	12.222723	-56.291933	100.920	-0.010	-0.190	0.100	100.770	-1.500	0.400																			1580058804.0	10.64	19.71
26/01/2020 17:13:25	26012020	260120	171325	100.750	12.222713	-56.291882	100.880	0.170	-0.490	0.200	100.750	-1.800	0.500																			1580058805.0	10.68	19.78
26/01/2020 17:13:26	26012020	260120	171326	100.710	12.222702	-56.291828	100.850	0.340	-0.550	0.330	100.700	-2.000	0.700																			1580058806.0	11.26	20.85
26/01/2020 17:13:27	26012020	260120	171327	100.670	12.222690	-56.291777	100.910	0.380	-0.190	0.310	100.680	-1.700	0.700																			1580058807.0	11.50	21.30
26/01/2020 17:13:28	26012020	260120	171328	100.750	12.222680	-56.291727	101.110	0.240	0.250	0.220	100.780	-1.300	0.600																			1580058808.0	11.24	20.82
26/01/2020 17:13:29	26012020	260120	171329	100.960	12.222672	-56.291677	101.340	-0.020	0.300	0.150	101.010	-1.100	0.500																			1580058809.0	10.75	19.91
26/01/2020 17:13:30	26012020	260120	171330	101.170	12.222662	-56.291627	101.400	-0.310	0.060	0.260	101.200	-1.200	0.500																			1580058810.0	10.63	19.69
26/01/2020 17:13:31	26012020	260120	171331	101.210	12.222650	-56.291575	101.340	-0.500	-0.140	0.530	101.210	-1.500	0.800																			1580058811.0	10.96	20.30
26/01/2020 17:13:32	26012020	260120	171332	101.160	12.222638	-56.291525	101.270	-0.460	-0.450	0.630	101.150	-1.500	0.900																			1580058812.0	11.11	20.58
26/01/2020 17:13:33	26012020	260120	171333	101.090	12.222625	-56.291473	101.230	-0.130	-0.960	0.440	101.090	-2.200	0.900																			1580058813.0	10.97	20.32
26/01/2020 17:13:34	26012020	260120	171334	101.050	12.222615	-56.291420	101.160	0.220	-1.160	0.140	101.050	-2.500	0.600																			1580058814.0	11.17	20.69
26/01/2020 17:13:35	26012020	260120	171335	100.990	12.222605	-56.291367	101.090	0.300	-0.600	-0.010	100.980	-2.200	0.400																			1580058815.0	11.56	21.41
26/01/2020 17:13:36	26012020	260120	171336	100.930	12.222595	-56.291318	101.050	0.170	0.130	0.020	100.920	-1.500	0.400																			1580058816.0	11.30	20.93
26/01/2020 17:13:37	26012020	260120	171337	100.890	12.222585	-56.291270	101.080	0.060	0.350	0.090	100.890	-1.000	0.400																			1580058817.0	10.52	19.48
26/01/2020 17:13:38	26012020	260120	171338	100.940	12.222573	-56.291220	101.140	0.010	0.160	0.250	100.950	-1.100	0.500																			1580058818.0	10.44	19.33
26/01/2020 17:13:39	26012020	260120	171339	100.990	12.222562	-56.291167	101.080	0.000	-0.070	0.510	100.990	-1.400	0.800																			1580058819.0	11.04	20.45
26/01/2020 17:13:40	26012020	260120	171340	100.900	12.222550	-56.291115	100.920	0.020	-0.180	0.600	100.870	-1.500	0.900																			1580058820.0	11.35	21.02
26/01/2020 17:13:41	26012020	260120	171341	100.750	12.222540	-56.291063	100.910	0.060	-0.290	0.490	100.730	-1.600	0.900																			1580058821.0	11.25	20.84
26/01/2020 17:13:42	26012020	260120	171342	100.760	12.222530	-56.291012	101.130	0.040	-0.390	0.310	100.790	-1.700	0.700																			1580058822.0	11.07	20.50
26/01/2020 17:13:43	26012020	260120	171343	101.000	12.222520	-56.290962	101.340	-0.110	-0.280	0.200	101.060	-1.700	0.600																			1580058823.0	11.10	20.56
26/01/2020 17:13:44	26012020	260120	171344	101.180	12.222510	-56.290912	101.330	-0.260	-0.120	0.340	101.210	-1.600	0.500																			1580058824.0	11.05	20.46
26/01/2020 17:13:45	26012020	260120	171345	101.170	12.222497	-56.290862	101.190	-0.170	-0.260	0.560	101.140	-1.600	0.900																			1580058825.0	10.74	19.89
26/01/2020 17:13:46	26012020	260120	171346	101.020	12.222485	-56.290812	101.090	0.150	-0.610	0.480	100.990	-1.900	0.900																			1580058826.0	10.72	19.85
26/01/2020 17:13:47	26012020	260120	171347	100.930	12.222475	-56.290758	101.050	0.390	-0.830	0.200	100.920	-2.200	0.700																			1580058827.0	11.12	20.59
26/01/2020 17:13:48	26012020	260120	171348	100.890	12.222467	-56.290705	101.040	0.350	-0.650	0.060	100.890	-2.100	0.400																			1580058828.0	11.41	21.13
26/01/2020 17:13:49	26012020	260120	171349	100.890	12.222457	-56.290655	101.100	0.030	-0.100	0.110	100.900	-1.700	0.400																			1580058829.0	11.35	21.02
26/01/2020 17:13:50	26012020	260120	171350	100.950	12.222445	-56.290607	101.130	-0.340	0.420	0.310	100.960	-1.100	0.600																			1580058830.0	10.96	20.30
26/01/2020 17:13:51	26012020	260120	171351	100.970	12.222433	-56.290557	101.050	-0.490	0.360	0.490	100.960	-0.900	0.800																			1580058831.0	10.56	19.56
26/01/2020 17:13:52	26012020	260120	171352	100.880	12.222422	-56.290507	100.990	-0.360	-0.200	0.500	100.870	-1.400	0.900																			1580058832.0	10.59	19.61
26/01/2020 17:13:53	26012020	260120	171353	100.820	12.222410	-56.290452	100.980	-0.090	-0.630	0.520	100.820	-1.900	0.900																			1580058833.0	11.20	20.74
26/01/2020 17:13:54	26012020	260120	171354	100.820	12.222397	-56.290400	100.980	0.120	-0.530	0.380	100.820	-2.000	0.800																			1580058834.0	11.68	21.63
26/01/2020 17:13:55	26012020	260120	171355	100.810	12.222387	-56.290348	100.940	0.200	-0.180	0.110	100.800	-1.700	0.500																			1580058835.0	11.45	21.21
26/01/2020 17:13:56	26012020	260120	171356	100.770	12.222378	-56.290300	100.930	0.200	0.020	-0.030	100.770	-1.400	0.400																			1580058836.0	10.87	20.13
26/01/2020 17:13:57	26012020	260120	171357	100.770	12.222370	-56.290250	100.960	0.220	-0.060	-0.090	100.770	-1.400	0.300																			1580058837.0	10.65	19.72
26/01/2020 17:13:58	26012020	260120	171358	100.790	12.222360	-56.290198	100.940	0.290	-0.400	0.020	100.800	-1.600	0.300																			1580058838.0	10.83	20.06
26/01/2020 17:13:59	26012020	260120	171359	100.770	12.222350	-56.290145	100.850	0.350	-0.720	0.340	100.760	-2.000	0.600	1014.90	26.20	26.30	19.90	19.90	878.00	68.00	68.00	376.00	29.20	350.00	9.90	79.00	4.40	63729	3611.00	27.70	27.70	1580058839.0	11.09	20.54
26/01/2020 17:14:00	26012020	260120	171400	100.670	12.222338	-56.290092	100.780	0.240	-0.570	0.600	100.650	-2.100	0.900																			1580058840.0	11.39	21.09
26/01/2020 17:14:01	26012020	260120	171401	100.600	12.222327	-56.290042	100.780	-0.110	-0.040	0.700	100.590	-1.600	1.000																			1580058841.0	11.40	21.11
26/01/2020 17:14:02	26012020	260120	171402	100.600	12.222315	-56.289993	100.760	-0.510	0.240	0.760	100.600	-1.200	1.100																			1580058842.0	10.87	20.13
26/01/2020 17:14:03	26012020	260120	171403	100.570	12.222303	-56.289945	100.670	-0.680	-0.020	0.800	100.560	-1.300	1.100																			1580058843.0	10.47	19.39
26/01/2020 17:14:04	26012020	260120	171404	100.480	12.222290	-56.289892	100.580	-0.540	-0.470	0.730	100.460	-1.700	1.100																			1580058844.0	10.77	19.95
26/01/2020 17:14:05	26012020	260120	171405	100.390	12.222278	-56.289840	100.540	-0.260	-0.580	0.490	100.380	-2.000	0.900																			1580058845.0	11.37	21.06
26/01/2020 17:14:06	26012020	260120	171406	100.360	12.222268	-56.289788	100.510	0.010	-0.370	0.160	100.360	-1.800	0.600																			1580058846.0	11.53	21.35
26/01/2020 17:14:07	26012020	260120	171407	100.340	12.222258	-56.289738	100.460	0.250	-0.260	-0.020	100.340	-1.600	0.400																			1580058847.0	11.12	20.59
26/01/2020 17:14:08	26012020	260120	171408	100.290	12.222250	-56.289687	100.410	0.490	-0.390	-0.040	100.280	-1.700	0.300																			1580058848.0	10.82	20.04
26/01/2020 17:14:09	26012020	260120	171409	100.250	12.222240	-56.289633	100.350	0.600	-0.390	0.170	100.230	-1.800	0.400																			1580058849.0	11.05	20.46
26/01/2020 17:14:10	26012020	260120	171410	100.180	12.222230	-56.289582	100.310	0.480	-0.150	0.460	100.160	-1.600	0.700																			1580058850.0	11.36	21.04
26/01/2020 17:14:11	26012020	260120	171411	100.140	12.222220	-56.289530	100.450	0.230	0.040	0.530	100.160	-1.400	0.900																			1580058851.0	11.18	20.71
26/01/2020 17:14:12	26012020	260120	171412	100.310	12.222212	-56.289480	100.760	-0.090	0.130	0.560	100.370	-1.300	0.900																			1580058852.0	10.91	20.21
26/01/2020 17:14:13	26012020	260120	171413	100.620	12.222200	-56.289430	100.980	-0.410	0.140	0.640	100.680	-1.200	1.000																			1580058853.0	10.95	20.28
26/01/2020 17:14:14	26012020	260120	171414	100.820	12.222188	-56.289380	100.970	-0.530	-0.080	0.720	100.830	-1.400	1.000																			1580058854.0	10.92	20.22
26/01/2020 17:14:15	26012020	260120	171415	100.790	12.222177	-56.289328	100.870	-0.350	-0.460	0.800	100.780	-1.700	1.100																			1580058855.0	10.89	20.17
26/01/2020 17:14:16	26012020	260120	171416	100.690	12.222165	-56.289277	100.770	-0.060	-0.770	0.680	100.670	-2.100	1.100																			1580058856.0	11.11	20.58
26/01/2020 17:14:17	26012020	260120	171417	100.580	12.222153	-56.289223	100.660	0.070	-0.750	0.360	100.560	-2.200	0.800																			1580058857.0	11.33	20.98
26/01/2020 17:14:18	26012020	260120	171418	100.480	12.222145	-56.289173	100.540	0.040	-0.480	0.150	100.460	-1.900	0.600																			1580058858.0	11.30	20.93
26/01/2020 17:14:19	26012020	260120	171419	100.370	12.222137	-56.289123	100.440	0.090	-0.290	0.050	100.340	-1.700	0.400																			1580058859.0	10.95	20.28
26/01/2020 17:14:20	26012020	260120	171420	100.280	12.222127	-56.289072	100.410	0.210	-0.270	0.020	100.270	-1.600	0.400																			1580058860.0	10.78	19.96
26/01/2020 17:14:21	26012020	260120	171421	100.270	12.222117	-56.289018	100.500	0.200	-0.200	0.180	100.280	-1.600	0.500																			1580058861.0	11.05	20.46
26/01/2020 17:14:22	26012020	260120	171422	100.350	12.222105	-56.288968	100.640	-0.010	0.060	0.460	100.350	-1.600	0.500																			1580058862.0	11.30	20.93
26/01/2020 17:14:23	26012020	260120	171423	100.480	12.222093	-56.288918	100.710	-0.160	0.270	0.570	100.500	-1.100	0.900																			1580058863.0	11.18	20.71
26/01/2020 17:14:24	26012020	260120	171424	100.540	12.222082	-56.288868	100.650	-0.020	0.050	0.480	100.540	-1.200	0.900																			1580058864.0	10.83	20.06
26/01/2020 17:14:25	26012020	260120	171425	100.470	12.222073	-56.288815	100.580	0.270	-0.480	0.330	100.450	-1.700	0.700																			1580058865.0	10.81	20.02
26/01/2020 17:14:26	26012020	260120	171426	100.420	12.222065	-56.288762	100.640	0.330	-0.680	0.290	100.420	-2.100	0.600																			1580058866.0	11.32	20.96
26/01/2020 17:14:27	26012020	260120	171427	100.490	12.222055	-56.288708	100.710	-0.030	-0.260	0.380	100.500	-1.800	0.700																			1580058867.0	11.64	21.56
26/01/2020 17:14:28	26012020	260120	171428	100.540	12.222043	-56.288662	100.690	-0.500	0.200	0.600	100.540	-1.300	0.900																			1580058868.0	11.16	20.67
26/01/2020 17:14:29	26012020	260120	171429	100.510	12.222032	-56.288613	100.600	-0.640	0.060	0.810	100.490	-1.200	1.100																			1580058869.0	10.42	19.30
26/01/2020 17:14:30	26012020	260120	171430	100.410	12.222018	-56.288562	100.480	-0.280	-0.660	0.900	100.390	-1.800	1.200																			1580058870.0	10.41	19.28
26/01/2020 17:14:31	26012020	260120	171431	100.290	12.222007	-56.288508	100.390	0.220	-1.080	0.850	100.270	-2.400	1.200																			1580058871.0	11.16	20.67
26/01/2020 17:14:32	26012020	260120	171432	100.210	12.221995	-56.288455	100.350	0.380	-0.620	0.570	100.210	-2.200	1.000																			1580058872.0	11.87	21.98
26/01/2020 17:14:33	26012020	260120	171433	100.190	12.221987	-56.288405	100.340	0.210	0.180	0.250	100.190	-1.500	0.700																			1580058873.0	11.53	21.35
26/01/2020 17:14:34	26012020	260120	171434	100.170	12.221978	-56.288357	100.270	0.030	0.430	0.090	100.160	-0.900	0.500																			1580058874.0	10.56	19.56
26/01/2020 17:14:35	26012020	260120	171435	100.100	12.221972	-56.288307	100.220	0.130	-0.070	0.070	100.090	-1.200	0.400																			1580058875.0	10.24	18.96
26/01/2020 17:14:36	26012020	260120	171436	100.060	12.221962	-56.288252	100.300	0.370	-0.680	0.200	100.070	-1.900	0.500																			1580058876.0	10.86	20.11
26/01/2020 17:14:37	26012020	260120	171437	100.150	12.221952	-56.288198	100.460	0.320	-0.620	0.460	100.170	-2.100	0.700																			1580058877.0	11.67	21.61
26/01/2020 17:14:38	26012020	260120	171438	100.310	12.221940	-56.288148	100.650	-0.180	0.080	0.750	100.340	-1.600	1.000																			1580058878.0	11.76	21.78
26/01/2020 17:14:39	26012020	260120	171439	100.490	12.221928	-56.288102	100.790	-0.750	0.590	0.970	100.520	-0.900	1.300																			1580058879.0	10.90	20.19
26/01/2020 17:14:40	26012020	260120	171440	100.610	12.221917	-56.288053	100.810	-0.770	0.130	0.980	100.620	-1.000	1.400																			1580058880.0	10.11	18.72
26/01/2020 17:14:41	26012020	260120	171441	100.630	12.221905	-56.288002	100.690	-0.150	-0.950	0.740	100.610	-2.000	1.200																			1580058881.0	10.30	19.08
26/01/2020 17:14:42	26012020	260120	171442	100.510	12.221893	-56.287945	100.530	0.530	-1.470	0.370	100.480	-2.800	0.900																			1580058882.0	11.42	21.15
26/01/2020 17:14:43	26012020	260120	171443	100.350	12.221885	-56.287892	100.480	0.690	-0.790	-0.020	100.330	-2.500	0.500																			1580058883.0	12.18	22.56
26/01/2020 17:14:44	26012020	260120	171444	100.330	12.221878	-56.287843	100.640	0.260	0.440	-0.320	100.360	-1.400	0.100																			1580058884.0	11.59	21.46
26/01/2020 17:14:45	26012020	260120	171445	100.520	12.221872	-56.287797	100.890	-0.300	1.010	-0.360	100.570	-0.500	-0.000																			1580058885.0	10.32	19.11
26/01/2020 17:14:46	26012020	260120	171446	100.780	12.221862	-56.287748	101.090	-0.450	0.420	-0.100	100.820	-0.700	0.100																			1580058886.0	9.73	18.02
26/01/2020 17:14:47	26012020	260120	171447	100.950	12.221850	-56.287697	101.090	-0.070	-0.660	0.230	100.970	-1.700	0.500																			1580058887.0	10.40	19.26
26/01/2020 17:14:48	26012020	260120	171448	100.930	12.221835	-56.287640	100.950	0.400	-1.180	0.430	100.910	-2.500	0.700																			1580058888.0	11.56	21.41
26/01/2020 17:14:49	26012020	260120	171449	100.780	12.221823	-56.287588	100.820	0.460	-0.760	0.420	100.750	-2.400	0.800																			1580058889.0	12.04	22.30
26/01/2020 17:14:50	26012020	260120	171450	100.660	12.221815	-56.287540	100.810	0.070	0.030	0.310	100.650	-1.600	0.700																			1580058890.0	11.40	21.11
26/01/2020 17:14:51	26012020	260120	171451	100.660	12.221807	-56.287493	100.870	-0.390	0.390	0.240	100.670	-1.100	0.600																			1580058891.0	10.41	19.28
26/01/2020 17:14:52	26012020	260120	171452	100.720	12.221797	-56.287443	100.860	-0.580	0.050	0.240	100.730	-1.200	0.600																			1580058892.0	10.08	18.67
26/01/2020 17:14:53	26012020	260120	171453	100.710	12.221785	-56.287392	100.710	-0.350	-0.650	0.340	100.680	-1.800	0.600																			1580058893.0	10.56	19.56
26/01/2020 17:14:54	26012020	260120	171454	100.530	12.221772	-56.287338	100.500	0.040	-0.950	0.520	100.490	-2.300	0.800																			1580058894.0	11.35	21.02
26/01/2020 17:14:55	26012020	260120	171455	100.320	12.221760	-56.287285	100.400	0.300	-0.540	0.630	100.290	-2.100	1.000																			1580058895.0	11.77	21.80
26/01/2020 17:14:56	26012020	260120	171456	100.230	12.221748	-56.287237	100.460	0.360	0.040	0.480	100.240	-1.500	0.900																			1580058896.0	11.33	20.98
26/01/2020 17:14:57	26012020	260120	171457	100.300	12.221740	-56.287188	100.520	0.360	0.250	0.260	100.320	-1.200	0.700																			1580058897.0	10.59	19.61
26/01/2020 17:14:58	26012020	260120	171458	100.370	12.221732	-56.287137	100.620	0.320	0.080	0.120	100.390	-1.200	0.500																			1580058898.0	10.46	19.37
26/01/2020 17:14:59	26012020	260120	171459	100.480	12.221723	-56.287085	100.830	0.110	0.060	0.110	100.510	-1.400	0.400	1014.90	26.20	26.20	20.00	20.00	877.00	68.00	68.00	376.00	29.20	349.00	10.20	76.00	4.80	63565	3716.00	27.70	27.70	1580058899.0	10.89	20.17
26/01/2020 17:15:00	26012020	260120	171500	100.700	12.221713	-56.287035	101.060	-0.250	0.260	0.320	100.700	-1.300	0.500																			1580058900.0	11.20	20.74
26/01/2020 17:15:01	26012020	260120	171501	100.910	12.221702	-56.286988	101.090	-0.440	0.040	0.630	100.930	-1.200	0.900																			1580058901.0	10.78	19.96
26/01/2020 17:15:02	26012020	260120	171502	100.910	12.221690	-56.286938	100.900	-0.170	-0.820	0.850	100.880	-1.900	1.100																			1580058902.0	10.36	19.19
26/01/2020 17:15:03	26012020	260120	171503	100.710	12.221678	-56.286883	100.660	0.280	-1.530	0.980	100.660	-2.700	1.300																			1580058903.0	10.86	20.11
26/01/2020 17:15:04	26012020	260120	171504	100.470	12.221667	-56.286830	100.480	0.490	-1.440	0.880	100.430	-3.000	1.300																			1580058904.0	11.70	21.67
26/01/2020 17:15:05	26012020	260120	171505	100.310	12.221657	-56.286778	100.400	0.240	-0.520	0.590	100.280	-2.300	1.000																			1580058905.0	11.68	21.63
26/01/2020 17:15:06	26012020	260120	171506	100.230	12.221648	-56.286732	100.380	-0.270	0.540	0.390	100.230	-1.200	0.800																			1580058906.0	10.98	20.33
26/01/2020 17:15:07	26012020	260120	171507	100.230	12.221638	-56.286685	100.450	-0.600	0.920	0.280	100.230	-0.500	0.700																			1580058907.0	10.23	18.95
26/01/2020 17:15:08	26012020	260120	171508	100.320	12.221628	-56.286635	100.620	-0.490	0.430	0.100	100.350	-0.700	0.500																			1580058908.0	10.10	18.71
26/01/2020 17:15:09	26012020	260120	171509	100.500	12.221618	-56.286582	100.740	-0.070	-0.310	-0.040	100.540	-1.500	0.300																			1580058909.0	10.81	20.02
26/01/2020 17:15:10	26012020	260120	171510	100.610	12.221607	-56.286527	100.780	0.270	-0.630	0.030	100.620	-2.000	0.300																			1580058910.0	11.59	21.46
26/01/2020 17:15:11	26012020	260120	171511	100.650	12.221597	-56.286475	100.860	0.310	-0.320	0.220	100.660	-1.900	0.500																			1580058911.0	11.74	21.74
26/01/2020 17:15:12	26012020	260120	171512	100.700	12.221585	-56.286427	100.950	0.180	0.090	0.410	100.720	-1.700	0.600																			1580058912.0	11.13	20.61
26/01/2020 17:15:13	26012020	260120	171513	100.810	12.221575	-56.286380	101.000	0.160	-0.040	0.450	100.830	-1.300	0.800																			1580058913.0	10.37	19.21
26/01/2020 17:15:14	26012020	260120	171514	100.840	12.221565	-56.286328	100.940	0.250	-0.460	0.410	100.840	-1.700	0.800																			1580058914.0	10.33	19.13
26/01/2020 17:15:15	26012020	260120	171515	100.780	12.221555	-56.286277	100.820	0.250	-0.600	0.350	100.760	-2.000	0.700																			1580058915.0	10.96	20.30
26/01/2020 17:15:16	26012020	260120	171516	100.660	12.221547	-56.286225	100.690	0.130	-0.480	0.200	100.630	-1.900	0.600																			1580058916.0	11.26	20.85
26/01/2020 17:15:17	26012020	260120	171517	100.540	12.221538	-56.286175	100.640	-0.030	-0.430	0.150	100.520	-1.800	0.500																			1580058917.0	10.91	20.21
26/01/2020 17:15:18	26012020	260120	171518	100.490	12.221528	-56.286125	100.670	-0.180	-0.450	0.290	100.490	-1.800	0.600																			1580058918.0	10.74	19.89
26/01/2020 17:15:19	26012020	260120	171519	100.500	12.221517	-56.286073	100.600	-0.290	-0.370	0.490	100.500	-1.800	0.800																			1580058919.0	10.91	20.21
26/01/2020 17:15:20	26012020	260120	171520	100.420	12.221503	-56.286023	100.380	-0.280	-0.250	0.660	100.380	-1.700	1.000																			1580058920.0	11.07	20.50
26/01/2020 17:15:21	26012020	260120	171521	100.180	12.221492	-56.285973	100.220	-0.130	-0.250	0.670	100.140	-1.600	1.000																			1580058921.0	10.99	20.35
26/01/2020 17:15:22	26012020	260120	171522	100.040	12.221480	-56.285922	100.300	0.010	-0.230	0.420	100.050	-1.600	0.900																			1580058922.0	11.02	20.41
26/01/2020 17:15:23	26012020	260120	171523	100.150	12.221470	-56.285870	100.470	0.010	-0.010	0.090	100.190	-1.500	0.500																			1580058923.0	11.20	20.74
26/01/2020 17:15:24	26012020	260120	171524	100.330	12.221462	-56.285820	100.550	-0.100	0.280	-0.060	100.350	-1.200	0.300																			1580058924.0	11.15	20.65
26/01/2020 17:15:25	26012020	260120	171525	100.400	12.221453	-56.285770	100.630	-0.130	0.350	-0.020	100.410	-1.000	0.300																			1580058925.0	10.80	20.00
26/01/2020 17:15:26	26012020	260120	171526	100.490	12.221442	-56.285720	100.710	-0.060	0.050	0.210	100.510	-1.200	0.500																			1580058926.0	10.64	19.71
26/01/2020 17:15:27	26012020	260120	171527	100.570	12.221432	-56.285668	100.660	0.090	-0.500	0.410	100.570	-1.700	0.700																			1580058927.0	10.79	19.98
26/01/2020 17:15:28	26012020	260120	171528	100.510	12.221422	-56.285617	100.530	0.250	-0.930	0.560	100.480	-2.200	0.900																			1580058928.0	11.07	20.50
26/01/2020 17:15:29	26012020	260120	171529	100.370	12.221412	-56.285565	100.450	0.300	-0.920	0.750	100.350	-2.300	1.000																			1580058929.0	11.32	20.96
26/01/2020 17:15:30	26012020	260120	171530	100.290	12.221400	-56.285513	100.440	0.230	-0.590	0.760	100.290	-2.100	1.100																			1580058930.0	11.24	20.82
26/01/2020 17:15:31	26012020	260120	171531	100.280	12.221390	-56.285463	100.400	0.130	-0.260	0.590	100.280	-1.700	1.000																			1580058931.0	10.89	20.17
26/01/2020 17:15:32	26012020	260120	171532	100.250	12.221380	-56.285413	100.410	-0.010	0.060	0.420	100.240	-1.400	0.800																			1580058932.0	10.74	19.89
26/01/2020 17:15:33	26012020	260120	171533	100.270	12.221370	-56.285363	100.570	-0.130	0.250	0.190	100.290	-1.200	0.600																			1580058933.0	10.84	20.08
26/01/2020 17:15:34	26012020	260120	171534	100.450	12.221362	-56.285313	100.800	-0.120	0.160	-0.120	100.500	-1.200	0.300																			1580058934.0	10.84	20.08
26/01/2020 17:15:35	26012020	260120	171535	100.690	12.221352	-56.285262	100.940	-0.050	-0.150	-0.250	100.730	-1.400	0.100																			1580058935.0	10.89	20.17
26/01/2020 17:15:36	26012020	260120	171536	100.820	12.221342	-56.285208	100.980	-0.020	-0.390	-0.040	100.830	-1.700	0.200																			1580058936.0	11.14	20.63
26/01/2020 17:15:37	26012020	260120	171537	100.860	12.221332	-56.285157	101.060	-0.110	-0.410	0.170	100.870	-1.800	0.500																			1580058937.0	11.26	20.85
26/01/2020 17:15:38	26012020	260120	171538	100.940	12.221320	-56.285107	101.170	-0.240	-0.360	0.230	100.940	-1.800	0.500																			1580058938.0	11.12	20.59
26/01/2020 17:15:39	26012020	260120	171539	101.040	12.221310	-56.285057	101.240	-0.330	-0.430	0.290	101.050	-1.800	0.600																			1580058939.0	10.85	20.09
26/01/2020 17:15:40	26012020	260120	171540	101.090	12.221298	-56.285007	101.200	-0.290	-0.560	0.420	101.090	-1.900	0.700																			1580058940.0	10.83	20.06
26/01/2020 17:15:41	26012020	260120	171541	101.040	12.221285	-56.284955	101.020	-0.080	-0.650	0.500	101.010	-2.000	0.800																			1580058941.0	11.03	20.43
26/01/2020 17:15:42	26012020	260120	171542	100.830	12.221273	-56.284903	100.730	0.250	-0.620	0.360	100.770	-2.000	0.800																			1580058942.0	11.20	20.74
26/01/2020 17:15:43	26012020	260120	171543	100.540	12.221262	-56.284852	100.560	0.460	-0.300	-0.000	100.490	-1.800	0.500																			1580058943.0	11.27	20.87
26/01/2020 17:15:44	26012020	260120	171544	100.400	12.221255	-56.284800	100.640	0.430	0.200	-0.370	100.410	-1.300	0.100																			1580058944.0	11.27	20.87
26/01/2020 17:15:45	26012020	260120	171545	100.520	12.221248	-56.284750	100.830	0.180	0.560	-0.520	100.560	-0.900	-0.100																			1580058945.0	11.00	20.37
26/01/2020 17:15:46	26012020	260120	171546	100.710	12.221238	-56.284700	100.980	-0.150	0.530	-0.300	100.750	-0.800	-0.100																			1580058946.0	10.76	19.93
26/01/2020 17:15:47	26012020	260120	171547	100.860	12.221228	-56.284648	101.170	-0.370	0.110	0.160	100.890	-1.100	0.400																			1580058947.0	10.77	19.95
26/01/2020 17:15:48	26012020	260120	171548	101.000	12.221215	-56.284597	101.430	-0.400	-0.350	0.530	101.050	-1.300	0.500																			1580058948.0	11.01	20.39
26/01/2020 17:15:49	26012020	260120	171549	101.290	12.221200	-56.284547	101.500	-0.280	-0.650	0.730	101.330	-1.900	1.000																			1580058949.0	11.26	20.85
26/01/2020 17:15:50	26012020	260120	171550	101.350	12.221188	-56.284497	101.350	-0.090	-0.860	0.740	101.350	-2.000	1.100																			1580058950.0	11.18	20.71
26/01/2020 17:15:51	26012020	260120	171551	101.170	12.221175	-56.284445	101.110	0.110	-0.940	0.660	101.120	-2.300	1.000																			1580058951.0	11.02	20.41
26/01/2020 17:15:52	26012020	260120	171552	100.930	12.221165	-56.284393	100.900	0.280	-0.740	0.500	100.890	-2.200	0.900																			1580058952.0	11.06	20.48
26/01/2020 17:15:53	26012020	260120	171553	100.740	12.221155	-56.284343	100.740	0.350	-0.370	0.180	100.710	-1.900	0.700																			1580058953.0	11.05	20.46
26/01/2020 17:15:54	26012020	260120	171554	100.590	12.221147	-56.284293	100.590	0.330	-0.160	-0.090	100.550	-1.600	0.300																			1580058954.0	10.89	20.17
26/01/2020 17:15:55	26012020	260120	171555	100.440	12.221138	-56.284240	100.500	0.240	-0.130	-0.140	100.420	-1.500	0.200																			1580058955.0	10.87	20.13
26/01/2020 17:15:56	26012020	260120	171556	100.360	12.221128	-56.284188	100.540	0.080	-0.010	-0.010	100.360	-1.400	0.300																			1580058956.0	11.14	20.63
26/01/2020 17:15:57	26012020	260120	171557	100.410	12.221118	-56.284137	100.670	-0.150	0.230	0.270	100.430	-1.200	0.500																			1580058957.0	11.34	21.00
26/01/2020 17:15:58	26012020	260120	171558	100.540	12.221107	-56.284087	100.810	-0.390	0.270	0.540	100.560	-1.100	0.800																			1580058958.0	11.15	20.65
26/01/2020 17:15:59	26012020	260120	171559	100.670	12.221095	-56.284035	100.880	-0.470	-0.060	0.770	100.690	-1.300	1.100	1014.90	26.20	26.20	20.00	20.00	872.00	68.00	68.00	376.00	29.20	349.00	9.70	75.00	4.30	63364	3052.00	27.70	27.70	1580058959.0	10.93	20.24
26/01/2020 17:16:00	26012020	260120	171600	100.740	12.221082	-56.283983	100.910	-0.320	-0.480	0.830	100.750	-1.700	1.200																			1580058960.0	11.04	20.45
26/01/2020 17:16:01	26012020	260120	171601	100.760	12.221068	-56.283930	100.940	-0.140	-0.560	0.710	100.770	-1.900	1.100																			1580058961.0	11.39	21.09
26/01/2020 17:16:02	26012020	260120	171602	100.790	12.221058	-56.283880	100.980	-0.090	-0.380	0.520	100.790	-1.900	1.100																			1580058962.0	11.43	21.17
26/01/2020 17:16:03	26012020	260120	171603	100.840	12.221048	-56.283830	100.970	-0.080	-0.300	0.380	100.850	-1.700	0.800																			1580058963.0	11.03	20.43
26/01/2020 17:16:04	26012020	260120	171604	100.820	12.221037	-56.283778	100.870	-0.010	-0.320	0.260	100.810	-1.700	0.700																			1580058964.0	10.78	19.96
26/01/2020 17:16:05	26012020	260120	171605	100.730	12.221027	-56.283728	100.800	0.120	-0.270	0.050	100.710	-1.700	0.500																			1580058965.0	10.97	20.32
26/01/2020 17:16:06	26012020	260120	171606	100.660	12.221017	-56.283677	100.750	0.300	-0.220	-0.100	100.650	-1.600	0.300																			1580058966.0	11.07	20.50
26/01/2020 17:16:07	26012020	260120	171607	100.610	12.221008	-56.283625	100.760	0.480	-0.300	-0.130	100.610	-1.600	0.200																			1580058967.0	11.01	20.39
26/01/2020 17:16:08	26012020	260120	171608	100.630	12.220998	-56.283573	100.820	0.590	-0.360	-0.080	100.650	-1.700	0.300																			1580058968.0	11.07	20.50
26/01/2020 17:16:09	26012020	260120	171609	100.700	12.220988	-56.283520	100.880	0.480	-0.140	0.050	100.720	-1.600	0.300																			1580058969.0	11.25	20.84
26/01/2020 17:16:10	26012020	260120	171610	100.760	12.220978	-56.283470	100.920	0.120	0.150	0.430	100.770	-1.300	0.600																			1580058970.0	11.21	20.76
26/01/2020 17:16:11	26012020	260120	171611	100.780	12.220968	-56.283422	100.910	-0.220	0.030	0.800	100.770	-1.200	1.000																			1580058971.0	10.82	20.04
26/01/2020 17:16:12	26012020	260120	171612	100.770	12.220957	-56.283370	100.860	-0.350	-0.550	0.930	100.760	-1.300	1.200																			1580058972.0	10.68	19.78
26/01/2020 17:16:13	26012020	260120	171613	100.700	12.220945	-56.283317	100.830	-0.310	-1.020	0.890	100.680	-2.300	1.300																			1580058973.0	11.15	20.65
26/01/2020 17:16:14	26012020	260120	171614	100.670	12.220933	-56.283262	100.880	-0.330	-0.820	0.810	100.680	-2.300	1.200																			1580058974.0	11.71	21.69
26/01/2020 17:16:15	26012020	260120	171615	100.730	12.220920	-56.283212	100.880	-0.480	-0.190	0.710	100.740	-1.800	1.100																			1580058975.0	11.63	21.54
26/01/2020 17:16:16	26012020	260120	171616	100.710	12.220908	-56.283163	100.740	-0.580	0.230	0.630	100.680	-1.200	1.000																			1580058976.0	10.96	20.30
26/01/2020 17:16:17	26012020	260120	171617	100.570	12.220897	-56.283113	100.630	-0.420	0.150	0.380	100.540	-1.100	0.800																			1580058977.0	10.57	19.58
26/01/2020 17:16:18	26012020	260120	171618	100.470	12.220885	-56.283062	100.530	-0.000	-0.170	-0.030	100.460	-1.400	0.500																			1580058978.0	10.86	20.11
26/01/2020 17:16:19	26012020	260120	171619	100.400	12.220877	-56.283007	100.490	0.440	-0.410	-0.400	100.380	-1.700	0.100																			1580058979.0	11.35	21.02
26/01/2020 17:16:20	26012020	260120	171620	100.380	12.220868	-56.282953	100.580	0.660	-0.380	-0.480	100.390	-1.800	-0.100																			1580058980.0	11.56	21.41
26/01/2020 17:16:21	26012020	260120	171621	100.480	12.220860	-56.282902	100.670	0.600	-0.200	-0.210	100.500	-1.600	0.000																			1580058981.0	11.42	21.15
26/01/2020 17:16:22	26012020	260120	171622	100.560	12.220850	-56.282852	100.750	0.330	0.060	0.170	100.570	-1.400	0.400																			1580058982.0	11.09	20.54
26/01/2020 17:16:23	26012020	260120	171623	100.630	12.220838	-56.282802	100.870	-0.020	0.320	0.480	100.650	-1.100	0.700																			1580058983.0	10.92	20.22
26/01/2020 17:16:24	26012020	260120	171624	100.760	12.220828	-56.282753	101.030	-0.250	0.250	0.580	100.790	-1.000	0.900																			1580058984.0	10.75	19.91
26/01/2020 17:16:25	26012020	260120	171625	100.900	12.220817	-56.282703	101.040	-0.250	-0.370	0.600	100.920	-1.500	0.900																			1580058985.0	10.64	19.71
26/01/2020 17:16:26	26012020	260120	171626	100.900	12.220805	-56.282650	100.950	-0.090	-1.010	0.670	100.880	-2.200	1.000																			1580058986.0	10.93	20.24
26/01/2020 17:16:27	26012020	260120	171627	100.790	12.220793	-56.282597	100.840	-0.030	-1.030	0.680	100.770	-2.500	1.000																			1580058987.0	11.55	21.39
26/01/2020 17:16:28	26012020	260120	171628	100.670	12.220782	-56.282545	100.590	-0.080	-0.670	0.620	100.670	-2.400	1.000																			1580058988.0	11.57	21.43
26/01/2020 17:16:29	26012020	260120	171629	100.400	12.220772	-56.282497	100.200	-0.020	-0.590	0.590	100.330	-1.900	0.900																			1580058989.0	10.94	20.26
26/01/2020 17:16:30	26012020	260120	171630	100.000	12.220760	-56.282443	99.940	0.190	-0.680	0.460	99.940	-2.000	0.900																			1580058990.0	10.75	19.91
26/01/2020 17:16:31	26012020	260120	171631	99.780	12.220750	-56.282388	99.990	0.270	-0.410	0.260	99.780	-1.900	0.700																			1580058991.0	11.34	21.00
26/01/2020 17:16:32	26012020	260120	171632	99.860	12.220742	-56.282337	100.150	0.000	0.310	0.080	99.900	-1.300	0.500																			1580058992.0	11.67	21.61
26/01/2020 17:16:33	26012020	260120	171633	100.030	12.220732	-56.282288	100.280	-0.390	0.930	0.010	100.060	-0.600	0.400																			1580058993.0	11.24	20.82
26/01/2020 17:16:34	26012020	260120	171634	100.150	12.220722	-56.282238	100.490	-0.510	0.770	0.050	100.180	-0.400	0.400																			1580058994.0	10.60	19.63
26/01/2020 17:16:35	26012020	260120	171635	100.370	12.220710	-56.282187	100.790	-0.280	0.010	0.200	100.430	-1.100	0.500																			1580058995.0	10.58	19.59
26/01/2020 17:16:36	26012020	260120	171636	100.660	12.220698	-56.282132	100.940	-0.010	-0.550	0.360	100.710	-1.800	0.700																			1580058996.0	11.30	20.93
26/01/2020 17:16:37	26012020	260120	171637	100.790	12.220687	-56.282080	100.970	0.050	-0.600	0.480	100.810	-2.000	0.800																			1580058997.0	11.75	21.76
26/01/2020 17:16:38	26012020	260120	171638	100.810	12.220677	-56.282030	101.000	-0.030	-0.440	0.570	100.810	-2.000	0.800																			1580058998.0	11.34	21.00
26/01/2020 17:16:39	26012020	260120	171639	100.840	12.220667	-56.281982	100.960	-0.030	-0.520	0.510	100.840	-1.800	0.900																			1580058999.0	10.73	19.87
26/01/2020 17:16:40	26012020	260120	171640	100.780	12.220657	-56.281930	100.700	0.210	-0.830	0.330	100.780	-1.900	0.900																			1580059000.0	10.61	19.65
26/01/2020 17:16:41	26012020	260120	171641	100.530	12.220647	-56.281877	100.430	0.570	-0.970	0.120	100.460	-2.300	0.500																			1580059001.0	11.02	20.41
26/01/2020 17:16:42	26012020	260120	171642	100.250	12.220638	-56.281823	100.280	0.710	-0.620	-0.060	100.220	-2.200	0.400																			1580059002.0	11.45	21.21
26/01/2020 17:16:43	26012020	260120	171643	100.120	12.220630	-56.281772	100.230	0.470	-0.040	-0.280	100.110	-1.600	0.100																			1580059003.0	11.43	21.17
26/01/2020 17:16:44	26012020	260120	171644	100.090	12.220622	-56.281722	100.260	-0.050	0.440	-0.320	100.090	-1.100	0.000																			1580059004.0	10.99	20.35
26/01/2020 17:16:45	26012020	260120	171645	100.120	12.220613	-56.281672	100.400	-0.570	0.690	-0.090	100.140	-0.700	0.200																			1580059005.0	10.80	20.00
26/01/2020 17:16:46	26012020	260120	171646	100.270	12.220602	-56.281622	100.680	-0.800	0.480	0.110	100.330	-0.700	0.400																			1580059006.0	10.80	20.00
26/01/2020 17:16:47	26012020	260120	171647	100.550	12.220588	-56.281570	100.900	-0.590	-0.200	0.250	100.600	-1.300	0.500																			1580059007.0	10.86	20.11
26/01/2020 17:16:48	26012020	260120	171648	100.760	12.220575	-56.281517	100.920	-0.120	-0.910	0.440	100.770	-2.100	0.700																			1580059008.0	11.23	20.80
26/01/2020 17:16:49	26012020	260120	171649	100.770	12.220562	-56.281463	100.790	0.290	-1.110	0.570	100.750	-2.500	0.900																			1580059009.0	11.66	21.59
26/01/2020 17:16:50	26012020	260120	171650	100.610	12.220550	-56.281412	100.570	0.390	-0.700	0.540	100.570	-2.300	0.900																			1580059010.0	11.67	21.61
26/01/2020 17:16:51	26012020	260120	171651	100.390	12.220542	-56.281363	100.340	0.220	-0.150	0.310	100.340	-1.700	0.800																			1580059011.0	11.17	20.69
26/01/2020 17:16:52	26012020	260120	171652	100.170	12.220533	-56.281313	100.150	0.030	-0.000	0.080	100.170	-1.500	0.700																			1580059012.0	10.61	19.65
26/01/2020 17:16:53	26012020	260120	171653	100.000	12.220525	-56.281262	100.110	-0.050	-0.150	-0.040	99.980	-1.500	0.300																			1580059013.0	10.60	19.63
26/01/2020 17:16:54	26012020	260120	171654	99.980	12.220515	-56.281208	100.260	-0.140	-0.140	-0.100	99.990	-1.500	0.300																			1580059014.0	11.14	20.63
26/01/2020 17:16:55	26012020	260120	171655	100.150	12.220505	-56.281157	100.490	-0.260	0.030	-0.010	100.180	-1.400	0.300																			1580059015.0	11.43	21.17
26/01/2020 17:16:56	26012020	260120	171656	100.370	12.220493	-56.281107	100.680	-0.230	0.040	0.310	100.420	-1.300	0.500																			1580059016.0	11.13	20.61
26/01/2020 17:16:57	26012020	260120	171657	100.550	12.220480	-56.281055	100.770	0.070	-0.280	0.490	100.570	-1.500	0.800																			1580059017.0	10.89	20.17
26/01/2020 17:16:58	26012020	260120	171658	100.620	12.220470	-56.281003	100.740	0.490	-0.650	0.450	100.620	-1.900	0.800																			1580059018.0	11.06	20.48
26/01/2020 17:16:59	26012020	260120	171659	100.580	12.220460	-56.280950	100.660	0.700	-0.670	0.270	100.560	-2.100	0.700	1014.90	26.20	26.30	20.20	20.20	868.00	69.00	69.00	375.00	29.10	353.00	9.70	85.00	4.00	63006	3214.00	27.70	27.70	1580059019.0	11.41	21.13
26/01/2020 17:17:00	26012020	260120	171700	100.500	12.220453	-56.280897	100.690	0.490	-0.300	0.080	100.500	-1.800	0.500																			1580059020.0	11.49	21.28
26/01/2020 17:17:01	26012020	260120	171701	100.560	12.220445	-56.280847	100.750	-0.030	0.070	0.120	100.570	-1.400	0.400																			1580059021.0	11.15	20.65
26/01/2020 17:17:02	26012020	260120	171702	100.610	12.220435	-56.280798	100.690	-0.530	0.100	0.400	100.610	-1.200	0.600																			1580059022.0	10.73	19.87
26/01/2020 17:17:03	26012020	260120	171703	100.530	12.220423	-56.280747	100.600	-0.700	-0.170	0.660	100.510	-1.400	0.900																			1580059023.0	10.72	19.85
26/01/2020 17:17:04	26012020	260120	171704	100.450	12.220408	-56.280695	100.620	-0.530	-0.430	0.750	100.450	-1.700	1.100																			1580059024.0	11.10	20.56
26/01/2020 17:17:05	26012020	260120	171705	100.470	12.220395	-56.280643	100.650	-0.220	-0.450	0.510	100.480	-1.800	1.000																			1580059025.0	11.44	21.19
26/01/2020 17:17:06	26012020	260120	171706	100.510	12.220385	-56.280592	100.630	0.070	-0.320	0.050	100.510	-1.800	0.500																			1580059026.0	11.39	21.09
26/01/2020 17:17:07	26012020	260120	171707	100.490	12.220377	-56.280540	100.560	0.300	-0.180	-0.270	100.470	-1.600	0.200																			1580059027.0	11.11	20.58
26/01/2020 17:17:08	26012020	260120	171708	100.430	12.220368	-56.280488	100.630	0.490	-0.190	-0.490	100.430	-1.500	-0.100																			1580059028.0	10.95	20.28
26/01/2020 17:17:09	26012020	260120	171709	100.530	12.220362	-56.280437	100.820	0.540	-0.340	-0.550	100.570	-1.700	-0.200																			1580059029.0	10.97	20.32
26/01/2020 17:17:10	26012020	260120	171710	100.720	12.220352	-56.280383	100.910	0.340	-0.340	-0.210	100.750	-1.800	-0.000																			1580059030.0	11.18	20.71
26/01/2020 17:17:11	26012020	260120	171711	100.790	12.220340	-56.280333	100.870	-0.070	-0.150	0.340	100.780	-1.600	0.500																			1580059031.0	11.31	20.95
26/01/2020 17:17:12	26012020	260120	171712	100.720	12.220328	-56.280283	100.750	-0.390	-0.060	0.740	100.700	-1.400	1.000																			1580059032.0	11.09	20.54
26/01/2020 17:17:13	26012020	260120	171713	100.590	12.220315	-56.280233	100.560	-0.360	-0.390	0.870	100.560	-1.600	1.200																			1580059033.0	10.83	20.06
26/01/2020 17:17:14	26012020	260120	171714	100.380	12.220303	-56.280180	100.290	-0.080	-0.770	0.800	100.330	-2.100	1.200																			1580059034.0	11.00	20.37
26/01/2020 17:17:15	26012020	260120	171715	100.130	12.220292	-56.280125	100.150	0.110	-0.660	0.520	100.090	-2.100	1.000																			1580059035.0	11.54	21.37
26/01/2020 17:17:16	26012020	260120	171716	100.010	12.220283	-56.280073	100.190	0.000	-0.120	0.270	100.010	-1.700	0.700																			1580059036.0	11.64	21.56
26/01/2020 17:17:17	26012020	260120	171717	100.070	12.220273	-56.280025	100.310	-0.260	0.330	0.170	100.100	-1.200	0.500																			1580059037.0	11.13	20.61
26/01/2020 17:17:18	26012020	260120	171718	100.200	12.220263	-56.279975	100.340	-0.320	0.280	0.190	100.200	-1.100	0.500																			1580059038.0	10.66	19.74
26/01/2020 17:17:19	26012020	260120	171719	100.220	12.220253	-56.279923	100.330	-0.070	-0.120	0.310	100.210	-1.400	0.600																			1580059039.0	10.74	19.89
26/01/2020 17:17:20	26012020	260120	171720	100.210	12.220242	-56.279870	100.470	0.270	-0.430	0.330	100.220	-1.700	0.700																			1580059040.0	11.24	20.82
26/01/2020 17:17:21	26012020	260120	171721	100.370	12.220232	-56.279817	100.710	0.410	-0.400	0.190	100.420	-1.800	0.600																			1580059041.0	11.55	21.39
26/01/2020 17:17:22	26012020	260120	171722	100.610	12.220223	-56.279765	100.840	0.270	-0.130	0.010	100.650	-1.600	0.400																			1580059042.0	11.38	21.08
26/01/2020 17:17:23	26012020	260120	171723	100.720	12.220213	-56.279717	100.810	0.010	0.030	0.010	100.720	-1.400	0.300																			1580059043.0	10.93	20.24
26/01/2020 17:17:24	26012020	260120	171724	100.670	12.220203	-56.279667	100.710	-0.070	-0.240	0.080	100.650	-1.500	0.400																			1580059044.0	10.63	19.69
26/01/2020 17:17:25	26012020	260120	171725	100.560	12.220193	-56.279615	100.620	0.130	-0.850	0.090	100.550	-2.000	0.400																			1580059045.0	10.74	19.89
26/01/2020 17:17:26	26012020	260120	171726	100.480	12.220183	-56.279560	100.550	0.330	-1.140	0.120	100.470	-2.500	0.400																			1580059046.0	11.27	20.87
26/01/2020 17:17:27	26012020	260120	171727	100.410	12.220173	-56.279507	100.510	0.170	-0.680	0.240	100.400	-2.300	0.500																			1580059047.0	11.76	21.78
26/01/2020 17:17:28	26012020	260120	171728	100.370	12.220162	-56.279457	100.540	-0.320	0.150	0.370	100.370	-1.500	0.700																			1580059048.0	11.51	21.32
26/01/2020 17:17:29	26012020	260120	171729	100.400	12.220152	-56.279410	100.590	-0.730	0.550	0.440	100.410	-0.900	0.800																			1580059049.0	10.74	19.89
26/01/2020 17:17:30	26012020	260120	171730	100.450	12.220138	-56.279360	100.550	-0.600	0.030	0.420	100.450	-1.100	0.800																			1580059050.0	10.34	19.15
26/01/2020 17:17:31	26012020	260120	171731	100.400	12.220127	-56.279305	100.410	-0.070	-0.750	0.350	100.370	-1.900	0.700																			1580059051.0	10.85	20.09
26/01/2020 17:17:32	26012020	260120	171732	100.270	12.220115	-56.279248	100.400	0.310	-0.690	0.160	100.260	-2.200	0.600																			1580059052.0	11.91	22.06
26/01/2020 17:17:33	26012020	260120	171733	100.290	12.220107	-56.279197	100.570	0.240	0.110	-0.050	100.310	-1.600	0.400																			1580059053.0	12.14	22.48
26/01/2020 17:17:34	26012020	260120	171734	100.480	12.220098	-56.279148	100.830	-0.020	0.670	-0.250	100.530	-0.800	0.200																			1580059054.0	11.12	20.59
26/01/2020 17:17:35	26012020	260120	171735	100.750	12.220088	-56.279100	101.060	-0.090	0.470	-0.360	100.800	-0.800	0.000																			1580059055.0	10.25	18.98
26/01/2020 17:17:36	26012020	260120	171736	100.970	12.220078	-56.279048	101.140	0.190	-0.270	-0.300	101.000	-1.400	0.000																			1580059056.0	10.46	19.37
26/01/2020 17:17:37	26012020	260120	171737	101.030	12.220068	-56.278995	101.150	0.580	-0.840	-0.120	101.030	-2.100	0.200																			1580059057.0	11.20	20.74
26/01/2020 17:17:38	26012020	260120	171738	101.040	12.220057	-56.278942	101.230	0.610	-0.720	0.100	101.050	-2.200	0.400																			1580059058.0	11.68	21.63
26/01/2020 17:17:39	26012020	260120	171739	101.120	12.220047	-56.278892	101.300	0.240	-0.260	0.240	101.140	-1.800	0.500																			1580059059.0	11.45	21.21
26/01/2020 17:17:40	26012020	260120	171740	101.170	12.220037	-56.278843	101.160	-0.150	-0.270	0.380	101.160	-1.600	0.700																			1580059060.0	10.62	19.67
26/01/2020 17:17:41	26012020	260120	171741	101.000	12.220027	-56.278793	100.830	-0.300	-0.740	0.640	100.940	-2.000	0.900																			1580059061.0	10.35	19.17
26/01/2020 17:17:42	26012020	260120	171742	100.730	12.220013	-56.278740	100.640	-0.390	-0.890	0.720	100.670	-2.100	1.000																			1580059062.0	11.05	20.46
26/01/2020 17:17:43	26012020	260120	171743	100.500	12.220002	-56.278687	100.590	-0.540	-0.480	0.620	100.480	-2.000	1.000																			1580059063.0	11.69	21.65
26/01/2020 17:17:44	26012020	260120	171744	100.450	12.219988	-56.278638	100.520	-0.550	-0.070	0.510	100.450	-1.900	1.000																			1580059064.0	11.37	21.06
26/01/2020 17:17:45	26012020	260120	171745	100.380	12.219977	-56.278587	100.430	-0.200	-0.170	0.310	100.370	-1.500	0.700																			1580059065.0	10.81	20.02
26/01/2020 17:17:46	26012020	260120	171746	100.310	12.219965	-56.278533	100.440	0.290	-0.290	0.010	100.300	-1.700	0.500																			1580059066.0	11.01	20.39
26/01/2020 17:17:47	26012020	260120	171747	100.330	12.219955	-56.278480	100.650	0.480	0.170	-0.340	100.370	-1.400	0.100																			1580059067.0	11.67	21.61
26/01/2020 17:17:48	26012020	260120	171748	100.580	12.219948	-56.278428	101.060	0.290	0.820	-0.550	100.660	-0.800	-0.200																			1580059068.0	11.60	21.48
26/01/2020 17:17:49	26012020	260120	171749	101.000	12.219940	-56.278380	101.380	0.020	0.740	-0.450	101.070	-0.500	-0.200																			1580059069.0	10.74	19.89
26/01/2020 17:17:50	26012020	260120	171750	101.290	12.219930	-56.278330	101.470	-0.050	-0.070	0.010	101.320	-1.100	0.200																			1580059070.0	10.34	19.15
26/01/2020 17:17:51	26012020	260120	171751	101.340	12.219917	-56.278277	101.510	0.050	-0.730	0.380	101.350	-1.900	0.600																			1580059071.0	10.98	20.33
26/01/2020 17:17:52	26012020	260120	171752	101.380	12.219903	-56.278225	101.600	0.150	-0.780	0.470	101.400	-2.200	0.800																			1580059072.0	11.61	21.50
26/01/2020 17:17:53	26012020	260120	171753	101.480	12.219893	-56.278175	101.600	0.160	-0.690	0.430	101.490	-2.100	0.800																			1580059073.0	11.30	20.93
26/01/2020 17:17:54	26012020	260120	171754	101.460	12.219882	-56.278127	101.390	0.150	-0.840	0.410	101.430	-2.200	0.800																			1580059074.0	10.68	19.78
26/01/2020 17:17:55	26012020	260120	171755	101.220	12.219870	-56.278075	101.030	0.170	-0.970	0.420	101.150	-2.300	0.800																			1580059075.0	10.69	19.80
26/01/2020 17:17:56	26012020	260120	171756	100.860	12.219858	-56.278023	100.710	0.130	-0.650	0.380	100.790	-2.200	0.700																			1580059076.0	11.19	20.72
26/01/2020 17:17:57	26012020	260120	171757	100.540	12.219848	-56.277972	100.460	-0.030	-0.120	0.310	100.490	-1.700	0.700																			1580059077.0	11.31	20.95
26/01/2020 17:17:58	26012020	260120	171758	100.300	12.219840	-56.277922	100.300	-0.170	0.090	0.190	100.300	-1.500	0.700																			1580059078.0	10.93	20.24
26/01/2020 17:17:59	26012020	260120	171759	100.160	12.219830	-56.277870	100.360	-0.160	-0.050	0.110	100.150	-1.400	0.500	1014.90	26.20	26.30	19.90	20.00	873.00	68.00	68.00	374.00	29.20	359.00	9.50	97.00	3.80	63202	3396.00	27.70	27.60	1580059079.0	10.82	20.04
26/01/2020 17:18:00	26012020	260120	171800	100.250	12.219818	-56.277815	100.620	-0.150	-0.110	0.070	100.290	-1.500	0.400																			1580059080.0	11.26	20.85
26/01/2020 17:18:01	26012020	260120	171801	100.510	12.219807	-56.277763	100.880	-0.230	0.070	0.170	100.570	-1.400	0.500																			1580059081.0	11.62	21.52
26/01/2020 17:18:02	26012020	260120	171802	100.780	12.219795	-56.277713	101.100	-0.350	0.340	0.430	100.820	-1.100	0.700																			1580059082.0	11.41	21.13
26/01/2020 17:18:03	26012020	260120	171803	100.990	12.219782	-56.277663	101.270	-0.360	0.350	0.630	101.020	-1.000	0.900																			1580059083.0	11.01	20.39
26/01/2020 17:18:04	26012020	260120	171804	101.150	12.219768	-56.277613	101.400	-0.130	-0.070	0.590	101.180	-1.300	1.000																			1580059084.0	10.79	19.98
26/01/2020 17:18:05	26012020	260120	171805	101.280	12.219758	-56.277560	101.530	0.230	-0.540	0.340	101.320	-1.800	0.800																			1580059085.0	10.94	20.26
26/01/2020 17:18:06	26012020	260120	171806	101.420	12.219748	-56.277508	101.570	0.430	-0.680	0.150	101.440	-2.100	0.500																			1580059086.0	11.32	20.96
26/01/2020 17:18:07	26012020	260120	171807	101.450	12.219740	-56.277458	101.460	0.440	-0.560	0.100	101.440	-2.000	0.500																			1580059087.0	11.31	20.95
26/01/2020 17:18:08	26012020	260120	171808	101.330	12.219730	-56.277408	101.290	0.390	-0.490	0.120	101.330	-1.900	0.500																			1580059088.0	10.91	20.21
26/01/2020 17:18:09	26012020	260120	171809	101.160	12.219720	-56.277357	101.180	0.390	-0.560	0.170	101.140	-1.900	0.500																			1580059089.0	10.73	19.87
26/01/2020 17:18:10	26012020	260120	171810	101.040	12.219710	-56.277305	101.050	0.380	-0.550	0.290	101.010	-2.000	0.600																			1580059090.0	10.95	20.28
26/01/2020 17:18:11	26012020	260120	171811	100.900	12.219700	-56.277253	100.990	0.180	-0.200	0.410	100.880	-1.700	0.700																			1580059091.0	11.26	20.85
26/01/2020 17:18:12	26012020	260120	171812	100.860	12.219688	-56.277203	101.090	-0.190	0.240	0.560	100.870	-1.300	0.800																			1580059092.0	11.25	20.84
26/01/2020 17:18:13	26012020	260120	171813	100.970	12.219677	-56.277153	101.210	-0.420	0.140	0.680	101.000	-1.100	1.000																			1580059093.0	10.84	20.08
26/01/2020 17:18:14	26012020	260120	171814	101.070	12.219665	-56.277102	101.180	-0.300	-0.520	0.710	101.080	-1.600	1.000																			1580059094.0	10.69	19.80
26/01/2020 17:18:15	26012020	260120	171815	101.030	12.219652	-56.277047	101.060	-0.090	-0.860	0.740	101.000	-2.200	1.100																			1580059095.0	11.30	20.93
26/01/2020 17:18:16	26012020	260120	171816	100.910	12.219640	-56.276993	101.060	-0.190	-0.310	0.720	100.900	-2.000	1.100																			1580059096.0	11.99	22.21
26/01/2020 17:18:17	26012020	260120	171817	100.920	12.219628	-56.276945	101.180	-0.510	0.380	0.630	100.940	-1.200	1.000																			1580059097.0	11.55	21.39
26/01/2020 17:18:18	26012020	260120	171818	101.060	12.219618	-56.276897	101.300	-0.610	0.390	0.380	101.090	-0.900	0.800																			1580059098.0	10.49	19.43
26/01/2020 17:18:19	26012020	260120	171819	101.180	12.219607	-56.276847	101.330	-0.330	-0.160	0.020	101.190	-1.300	0.500																			1580059099.0	10.33	19.13
26/01/2020 17:18:20	26012020	260120	171820	101.230	12.219597	-56.276792	101.370	0.130	-0.600	-0.210	101.230	-1.500	0.400																			1580059100.0	11.09	20.54
26/01/2020 17:18:21	26012020	260120	171821	101.270	12.219585	-56.276740	101.380	0.460	-0.490	-0.310	101.270	-2.000	0.100																			1580059101.0	11.63	21.54
26/01/2020 17:18:22	26012020	260120	171822	101.270	12.219575	-56.276690	101.320	0.590	-0.230	-0.400	101.260	-1.700	-0.000																			1580059102.0	11.42	21.15
26/01/2020 17:18:23	26012020	260120	171823	101.200	12.219568	-56.276640	101.190	0.670	-0.370	-0.330	101.170	-1.700	-0.000																			1580059103.0	10.78	19.96
26/01/2020 17:18:24	26012020	260120	171824	101.060	12.219558	-56.276587	101.050	0.650	-0.570	-0.060	101.030	-1.900	0.200																			1580059104.0	10.71	19.83
26/01/2020 17:18:25	26012020	260120	171825	100.920	12.219548	-56.276533	101.000	0.250	-0.310	0.200	100.900	-1.800	0.400																			1580059105.0	11.28	20.89
26/01/2020 17:18:26	26012020	260120	171826	100.870	12.219538	-56.276485	101.000	-0.400	0.100	0.570	100.870	-1.400	0.800																			1580059106.0	11.36	21.04
26/01/2020 17:18:27	26012020	260120	171827	100.860	12.219525	-56.276435	100.970	-0.830	0.110	0.920	100.860	-1.200	1.200																			1580059107.0	10.79	19.98
26/01/2020 17:18:28	26012020	260120	171828	100.810	12.219508	-56.276385	100.830	-0.780	-0.170	0.890	100.790	-1.400	1.300																			1580059108.0	10.65	19.72
26/01/2020 17:18:29	26012020	260120	171829	100.680	12.219495	-56.276333	100.690	-0.370	-0.430	0.610	100.650	-1.700	1.100																			1580059109.0	11.14	20.63
26/01/2020 17:18:30	26012020	260120	171830	100.540	12.219485	-56.276280	100.620	0.110	-0.520	0.330	100.530	-1.900	0.800																			1580059110.0	11.40	21.11
26/01/2020 17:18:31	26012020	260120	171831	100.500	12.219475	-56.276228	100.650	0.400	-0.420	0.090	100.500	-1.800	0.500																			1580059111.0	11.36	21.04
26/01/2020 17:18:32	26012020	260120	171832	100.550	12.219465	-56.276178	100.750	0.420	-0.270	-0.130	100.550	-1.800	0.400																			1580059112.0	11.18	20.71
26/01/2020 17:18:33	26012020	260120	171833	100.660	12.219457	-56.276127	100.840	0.260	-0.120	-0.120	100.680	-1.500	0.200																			1580059113.0	10.98	20.33
26/01/2020 17:18:34	26012020	260120	171834	100.730	12.219447	-56.276077	100.850	0.060	-0.010	0.190	100.740	-1.400	0.400																			1580059114.0	10.94	20.26
26/01/2020 17:18:35	26012020	260120	171835	100.730	12.219435	-56.276027	100.800	-0.050	-0.170	0.570	100.720	-1.500	0.800																			1580059115.0	10.90	20.19
26/01/2020 17:18:36	26012020	260120	171836	100.670	12.219423	-56.275975	100.680	-0.000	-0.520	0.790	100.650	-1.800	1.100																			1580059116.0	10.91	20.21
26/01/2020 17:18:37	26012020	260120	171837	100.540	12.219410	-56.275922	100.520	0.030	-0.620	0.760	100.510	-2.000	1.100																			1580059117.0	11.23	20.80
26/01/2020 17:18:38	26012020	260120	171838	100.380	12.219400	-56.275870	100.400	-0.110	-0.310	0.580	100.350	-1.800	1.000																			1580059118.0	11.47	21.24
26/01/2020 17:18:39	26012020	260120	171839	100.270	12.219392	-56.275820	100.380	-0.350	0.080	0.450	100.270	-1.400	0.800																			1580059119.0	11.23	20.80
26/01/2020 17:18:40	26012020	260120	171840	100.260	12.219380	-56.275770	100.390	-0.470	0.120	0.430	100.270	-1.200	0.800																			1580059120.0	10.77	19.95
26/01/2020 17:18:41	26012020	260120	171841	100.270	12.219368	-56.275718	100.340	-0.280	-0.220	0.450	100.260	-1.500	0.800																			1580059121.0	10.72	19.85
26/01/2020 17:18:42	26012020	260120	171842	100.210	12.219357	-56.275667	100.290	0.110	-0.510	0.430	100.190	-1.800	0.800																			1580059122.0	11.12	20.59
26/01/2020 17:18:43	26012020	260120	171843	100.170	12.219347	-56.275613	100.390	0.480	-0.490	0.370	100.170	-1.900	0.700																			1580059123.0	11.52	21.34
26/01/2020 17:18:44	26012020	260120	171844	100.270	12.219337	-56.275562	100.580	0.600	-0.220	0.210	100.310	-1.700	0.600																			1580059124.0	11.45	21.21
26/01/2020 17:18:45	26012020	260120	171845	100.480	12.219328	-56.275512	100.760	0.450	0.090	0.080	100.520	-1.400	0.400																			1580059125.0	11.11	20.58
26/01/2020 17:18:46	26012020	260120	171846	100.660	12.219320	-56.275462	100.890	0.190	0.200	0.070	100.680	-1.200	0.400																			1580059126.0	10.80	20.00
26/01/2020 17:18:47	26012020	260120	171847	100.780	12.219312	-56.275412	101.030	-0.010	-0.070	0.130	100.810	-1.300	0.400																			1580059127.0	10.67	19.76
26/01/2020 17:18:48	26012020	260120	171848	100.910	12.219302	-56.275358	101.040	-0.150	-0.600	0.350	100.920	-1.800	0.600																			1580059128.0	10.82	20.04
26/01/2020 17:18:49	26012020	260120	171849	100.900	12.219290	-56.275305	100.930	-0.340	-0.870	0.670	100.880	-2.200	0.900																			1580059129.0	11.23	20.80
26/01/2020 17:18:50	26012020	260120	171850	100.780	12.219277	-56.275255	100.800	-0.550	-0.620	0.950	100.750	-2.100	1.200																			1580059130.0	11.51	21.32
26/01/2020 17:18:51	26012020	260120	171851	100.640	12.219263	-56.275205	100.570	-0.550	-0.360	1.040	100.600	-1.800	1.400																			1580059131.0	11.22	20.78
26/01/2020 17:18:52	26012020	260120	171852	100.390	12.219250	-56.275155	100.230	-0.320	-0.340	0.830	100.330	-1.700	1.300																			1580059132.0	10.79	19.98
26/01/2020 17:18:53	26012020	260120	171853	100.060	12.219238	-56.275103	99.960	-0.050	-0.340	0.390	100.000	-1.700	0.900																			1580059133.0	10.98	20.33
26/01/2020 17:18:54	26012020	260120	171854	99.830	12.219230	-56.275050	99.970	0.140	-0.120	-0.090	99.820	-1.600	0.400																			1580059134.0	11.36	21.04
26/01/2020 17:18:55	26012020	260120	171855	99.890	12.219222	-56.274998	100.160	0.290	0.050	-0.440	99.930	-1.400	0.000																			1580059135.0	11.35	21.02
26/01/2020 17:18:56	26012020	260120	171856	100.080	12.219215	-56.274947	100.310	0.450	0.010	-0.480	100.080	-1.300	-0.100																			1580059136.0	11.06	20.48
26/01/2020 17:18:57	26012020	260120	171857	100.230	12.219205	-56.274893	100.520	0.480	0.080	-0.230	100.260	-1.400	0.000																			1580059137.0	11.12	20.59
26/01/2020 17:18:58	26012020	260120	171858	100.420	12.219195	-56.274843	100.720	0.280	0.330	0.090	100.420	-1.300	0.100																			1580059138.0	11.33	20.98
26/01/2020 17:18:59	26012020	260120	171859	100.620	12.219183	-56.274793	100.870	0.010	0.260	0.290	100.650	-1.000	0.600	1014.80	26.20	26.30	20.00	20.10	876.00	69.00	69.00	374.00	29.20	355.00	9.60	89.00	3.90	63177	3416.00	27.70	27.70	1580059139.0	10.98	20.33
26/01/2020 17:19:00	26012020	260120	171900	100.760	12.219173	-56.274743	100.990	-0.120	-0.260	0.330	100.780	-1.400	0.700																			1580059140.0	10.61	19.65
26/01/2020 17:19:01	26012020	260120	171901	100.870	12.219163	-56.274692	100.980	-0.180	-0.840	0.420	100.880	-2.000	0.700																			1580059141.0	10.85	20.09
26/01/2020 17:19:02	26012020	260120	171902	100.840	12.219152	-56.274638	100.800	-0.250	-1.090	0.540	100.810	-2.400	0.800																			1580059142.0	11.31	20.95
26/01/2020 17:19:03	26012020	260120	171903	100.640	12.219140	-56.274587	100.490	-0.300	-0.960	0.640	100.580	-2.400	0.900																			1580059143.0	11.32	20.96
26/01/2020 17:19:04	26012020	260120	171904	100.310	12.219128	-56.274537	100.100	-0.280	-0.690	0.680	100.230	-2.200	1.000																			1580059144.0	11.11	20.58
26/01/2020 17:19:05	26012020	260120	171905	99.930	12.219117	-56.274487	99.780	-0.200	-0.490	0.550	99.860	-1.900	1.000																			1580059145.0	10.92	20.22
26/01/2020 17:19:06	26012020	260120	171906	99.630	12.219107	-56.274435	99.660	-0.070	-0.270	0.300	99.590	-1.700	0.700																			1580059146.0	11.03	20.43
26/01/2020 17:19:07	26012020	260120	171907	99.540	12.219095	-56.274382	99.740	0.090	0.030	0.020	99.550	-1.500	0.500																			1580059147.0	11.29	20.91
26/01/2020 17:19:08	26012020	260120	171908	99.630	12.219087	-56.274330	99.870	0.170	0.370	-0.230	99.660	-1.100	0.200																			1580059148.0	11.30	20.93
26/01/2020 17:19:09	26012020	260120	171909	99.770	12.219077	-56.274278	100.010	0.180	0.540	-0.280	99.800	-0.900	0.100																			1580059149.0	11.17	20.69
26/01/2020 17:19:10	26012020	260120	171910	99.900	12.219068	-56.274227	100.150	0.140	0.460	-0.120	99.900	-0.800	0.100																			1580059150.0	11.03	20.43
26/01/2020 17:19:11	26012020	260120	171911	100.040	12.219060	-56.274175	100.380	0.010	0.170	0.100	100.090	-1.100	0.400																			1580059151.0	11.02	20.41
26/01/2020 17:19:12	26012020	260120	171912	100.270	12.219048	-56.274125	100.640	-0.140	-0.250	0.390	100.320	-1.500	0.600																			1580059152.0	11.11	20.58
26/01/2020 17:19:13	26012020	260120	171913	100.530	12.219038	-56.274073	100.840	-0.140	-0.700	0.660	100.570	-1.900	0.900																			1580059153.0	11.11	20.58
26/01/2020 17:19:14	26012020	260120	171914	100.710	12.219025	-56.274022	100.830	0.050	-1.020	0.850	100.720	-2.300	1.100																			1580059154.0	11.09	20.54
26/01/2020 17:19:15	26012020	260120	171915	100.670	12.219013	-56.273970	100.580	0.240	-1.080	0.920	100.640	-2.500	1.300																			1580059155.0	11.16	20.67
26/01/2020 17:19:16	26012020	260120	171916	100.410	12.219003	-56.273918	100.230	0.250	-0.860	0.840	100.340	-2.400	1.200																			1580059156.0	11.17	20.69
26/01/2020 17:19:17	26012020	260120	171917	100.050	12.218993	-56.273868	99.940	0.090	-0.460	0.610	99.990	-2.000	1.100																			1580059157.0	11.11	20.58
26/01/2020 17:19:18	26012020	260120	171918	99.790	12.218985	-56.273817	99.820	-0.020	-0.170	0.260	99.770	-1.600	0.700																			1580059158.0	10.97	20.32
26/01/2020 17:19:19	26012020	260120	171919	99.710	12.218977	-56.273765	99.890	-0.060	0.010	-0.090	99.710	-1.500	0.400																			1580059159.0	10.93	20.24
26/01/2020 17:19:20	26012020	260120	171920	99.800	12.218967	-56.273712	100.130	-0.190	0.320	-0.140	99.840	-1.200	0.200																			1580059160.0	11.21	20.76
26/01/2020 17:19:21	26012020	260120	171921	100.040	12.218957	-56.273662	100.390	-0.400	0.540	0.050	100.100	-0.900	0.300																			1580059161.0	11.31	20.95
26/01/2020 17:19:22	26012020	260120	171922	100.300	12.218945	-56.273612	100.490	-0.410	0.250	0.300	100.300	-0.900	0.400																			1580059162.0	10.96	20.30
26/01/2020 17:19:23	26012020	260120	171923	100.370	12.218933	-56.273558	100.460	-0.110	-0.350	0.490	100.360	-1.500	0.800																			1580059163.0	10.92	20.22
26/01/2020 17:19:24	26012020	260120	171924	100.330	12.218922	-56.273505	100.560	0.240	-0.700	0.410	100.330	-1.700	0.800																			1580059164.0	11.39	21.09
26/01/2020 17:19:25	26012020	260120	171925	100.450	12.218912	-56.273452	100.720	0.340	-0.580	0.170	100.480	-2.100	0.600																			1580059165.0	11.65	21.58
26/01/2020 17:19:26	26012020	260120	171926	100.620	12.218903	-56.273402	100.790	0.190	-0.260	0.040	100.620	-2.000	0.500																			1580059166.0	11.32	20.96
26/01/2020 17:19:27	26012020	260120	171927	100.670	12.218893	-56.273353	100.720	0.030	-0.160	0.060	100.660	-1.500	0.400																			1580059167.0	10.81	20.02
26/01/2020 17:19:28	26012020	260120	171928	100.590	12.218883	-56.273302	100.610	0.040	-0.330	0.250	100.570	-1.600	0.500																			1580059168.0	10.63	19.69
26/01/2020 17:19:29	26012020	260120	171929	100.480	12.218872	-56.273250	100.520	0.150	-0.560	0.390	100.460	-1.900	0.700																			1580059169.0	10.94	20.26
26/01/2020 17:19:30	26012020	260120	171930	100.390	12.218862	-56.273197	100.490	0.220	-0.580	0.330	100.380	-2.000	0.700																			1580059170.0	11.29	20.91
26/01/2020 17:19:31	26012020	260120	171931	100.380	12.218852	-56.273145	100.560	0.070	-0.230	0.180	100.390	-1.800	0.600																			1580059171.0	11.39	21.09
26/01/2020 17:19:32	26012020	260120	171932	100.450	12.218842	-56.273095	100.620	-0.250	0.210	0.160	100.470	-1.300	0.500																			1580059172.0	11.23	20.80
26/01/2020 17:19:33	26012020	260120	171933	100.500	12.218832	-56.273045	100.570	-0.400	0.150	0.250	100.500	-1.200	0.600																			1580059173.0	10.78	19.96
26/01/2020 17:19:34	26012020	260120	171934	100.430	12.218820	-56.272993	100.450	-0.270	-0.290	0.280	100.400	-1.500	0.600																			1580059174.0	10.68	19.78
26/01/2020 17:19:35	26012020	260120	171935	100.320	12.218808	-56.272940	100.390	-0.050	-0.580	0.250	100.300	-1.900	0.600																			1580059175.0	11.26	20.85
26/01/2020 17:19:36	26012020	260120	171936	100.260	12.218798	-56.272887	100.370	0.090	-0.570	0.230	100.260	-2.000	0.600																			1580059176.0	11.64	21.56
26/01/2020 17:19:37	26012020	260120	171937	100.250	12.218788	-56.272835	100.360	0.120	-0.380	0.270	100.250	-1.800	0.600																			1580059177.0	11.41	21.13
26/01/2020 17:19:38	26012020	260120	171938	100.230	12.218777	-56.272785	100.320	0.060	-0.160	0.390	100.230	-1.600	0.700																			1580059178.0	11.13	20.61
26/01/2020 17:19:39	26012020	260120	171939	100.200	12.218767	-56.272733	100.280	-0.000	-0.060	0.540	100.190	-1.500	0.800																			1580059179.0	10.99	20.35
26/01/2020 17:19:40	26012020	260120	171940	100.150	12.218755	-56.272683	100.260	0.040	-0.140	0.600	100.150	-1.500	0.900																			1580059180.0	10.99	20.35
26/01/2020 17:19:41	26012020	260120	171941	100.150	12.218745	-56.272630	100.340	0.130	-0.220	0.570	100.150	-1.600	0.900																			1580059181.0	11.14	20.63
26/01/2020 17:19:42	26012020	260120	171942	100.230	12.218735	-56.272578	100.490	0.130	-0.170	0.480	100.270	-1.600	0.900																			1580059182.0	11.29	20.91
26/01/2020 17:19:43	26012020	260120	171943	100.390	12.218725	-56.272527	100.640	0.020	-0.020	0.370	100.420	-1.500	0.800																			1580059183.0	11.27	20.87
26/01/2020 17:19:44	26012020	260120	171944	100.530	12.218715	-56.272477	100.750	-0.110	0.040	0.280	100.550	-1.400	0.700																			1580059184.0	11.04	20.45
26/01/2020 17:19:45	26012020	260120	171945	100.650	12.218705	-56.272425	100.860	-0.200	-0.090	0.190	100.670	-1.400	0.600																			1580059185.0	10.86	20.11
26/01/2020 17:19:46	26012020	260120	171946	100.740	12.218695	-56.272375	100.910	-0.220	-0.410	0.070	100.760	-1.500	0.500																			1580059186.0	10.93	20.24
26/01/2020 17:19:47	26012020	260120	171947	100.810	12.218685	-56.272322	100.870	-0.090	-0.780	0.090	100.810	-2.100	0.400																			1580059187.0	11.10	20.56
26/01/2020 17:19:48	26012020	260120	171948	100.750	12.218673	-56.272270	100.790	0.130	-0.890	0.210	100.730	-2.300	0.500																			1580059188.0	11.30	20.93
26/01/2020 17:19:49	26012020	260120	171949	100.680	12.218662	-56.272217	100.730	0.290	-0.720	0.270	100.670	-2.200	0.600																			1580059189.0	11.41	21.13
26/01/2020 17:19:50	26012020	260120	171950	100.610	12.218652	-56.272167	100.570	0.340	-0.480	0.320	100.590	-1.900	0.600																			1580059190.0	11.24	20.82
26/01/2020 17:19:51	26012020	260120	171951	100.440	12.218642	-56.272113	100.340	0.250	-0.280	0.420	100.380	-1.700	0.700																			1580059191.0	11.07	20.50
26/01/2020 17:19:52	26012020	260120	171952	100.210	12.218632	-56.272062	100.250	0.000	-0.020	0.590	100.180	-1.500	0.900																			1580059192.0	11.18	20.71
26/01/2020 17:19:53	26012020	260120	171953	100.130	12.218622	-56.272010	100.330	-0.320	0.300	0.720	100.140	-1.200	1.000																			1580059193.0	11.29	20.91
26/01/2020 17:19:54	26012020	260120	171954	100.220	12.218610	-56.271958	100.560	-0.520	0.470	0.610	100.270	-0.900	1.000																			1580059194.0	11.21	20.76
26/01/2020 17:19:55	26012020	260120	171955	100.470	12.218598	-56.271908	100.840	-0.460	0.280	0.440	100.530	-1.000	0.800																			1580059195.0	11.01	20.39
26/01/2020 17:19:56	26012020	260120	171956	100.750	12.218587	-56.271855	101.020	-0.170	-0.070	0.340	100.790	-1.300	0.700																			1580059196.0	11.06	20.48
26/01/2020 17:19:57	26012020	260120	171957	100.930	12.218577	-56.271803	101.160	0.160	-0.360	0.170	100.950	-1.700	0.600																			1580059197.0	11.31	20.95
26/01/2020 17:19:58	26012020	260120	171958	101.070	12.218567	-56.271752	101.330	0.380	-0.530	-0.020	101.110	-1.900	0.400																			1580059198.0	11.38	21.08
26/01/2020 17:19:59	26012020	260120	171959	101.230	12.218557	-56.271700	101.390	0.420	-0.580	-0.140	101.250	-2.000	0.200	1014.80	26.20	26.30	20.20	20.30	871.00	69.00	69.00	374.00	29.20	353.00	9.80	84.00	4.20	62879	3423.00	27.70	27.70	1580059199.0	11.23	20.80
26/01/2020 17:20:00	26012020	260120	172000	101.270	12.218548	-56.271648	101.320	0.290	-0.410	-0.190	101.270	-2.000	0.200																			1580059200.0	11.09	20.54
26/01/2020 17:20:01	26012020	260120	172001	101.200	12.218538	-56.271598	101.160	0.150	-0.300	-0.070	101.160	-1.700	0.200																			1580059201.0	10.95	20.28
26/01/2020 17:20:02	26012020	260120	172002	101.020	12.218528	-56.271548	100.960	0.120	-0.510	0.200	100.980	-1.800	0.500																			1580059202.0	10.76	19.93
26/01/2020 17:20:03	26012020	260120	172003	100.790	12.218518	-56.271495	100.690	0.150	-0.890	0.460	100.750	-2.100	0.700																			1580059203.0	10.91	20.21
26/01/2020 17:20:04	26012020	260120	172004	100.520	12.218505	-56.271442	100.420	0.050	-0.920	0.680	100.460	-2.400	1.000																			1580059204.0	11.43	21.17
26/01/2020 17:20:05	26012020	260120	172005	100.260	12.218493	-56.271388	100.370	-0.240	-0.310	0.720	100.230	-2.000	1.100																			1580059205.0	11.76	21.78
26/01/2020 17:20:06	26012020	260120	172006	100.250	12.218482	-56.271338	100.550	-0.580	0.390	0.570	100.280	-1.200	1.000																			1580059206.0	11.46	21.22
26/01/2020 17:20:07	26012020	260120	172007	100.430	12.218472	-56.271290	100.620	-0.630	0.460	0.470	100.460	-0.900	0.900																			1580059207.0	10.78	19.96
26/01/2020 17:20:08	26012020	260120	172008	100.490	12.218458	-56.271237	100.600	-0.380	0.060	0.370	100.490	-1.200	0.800																			1580059208.0	10.71	19.83
26/01/2020 17:20:09	26012020	260120	172009	100.480	12.218447	-56.271182	100.690	-0.040	-0.230	0.230	100.480	-1.500	0.600																			1580059209.0	11.41	21.13
26/01/2020 17:20:10	26012020	260120	172010	100.580	12.218437	-56.271128	100.940	0.170	-0.150	0.030	100.620	-1.600	0.500																			1580059210.0	11.78	21.82
26/01/2020 17:20:11	26012020	260120	172011	100.850	12.218427	-56.271078	101.180	0.220	0.110	-0.180	100.900	-1.400	0.200																			1580059211.0	11.51	21.32
26/01/2020 17:20:12	26012020	260120	172012	101.080	12.218418	-56.271028	101.250	0.250	0.110	-0.210	101.080	-1.300	0.200																			1580059212.0	10.95	20.28
26/01/2020 17:20:13	26012020	260120	172013	101.130	12.218408	-56.270978	101.200	0.420	-0.300	-0.080	101.120	-1.500	0.200																			1580059213.0	10.68	19.78
26/01/2020 17:20:14	26012020	260120	172014	101.090	12.218398	-56.270925	101.200	0.600	-0.700	0.050	101.090	-1.700	0.300																			1580059214.0	10.92	20.22
26/01/2020 17:20:15	26012020	260120	172015	101.100	12.218388	-56.270872	101.230	0.550	-0.760	0.190	101.100	-2.100	0.500																			1580059215.0	11.36	21.04
26/01/2020 17:20:16	26012020	260120	172016	101.110	12.218378	-56.270822	101.200	0.220	-0.600	0.510	101.110	-2.000	0.700																			1580059216.0	11.35	21.02
26/01/2020 17:20:17	26012020	260120	172017	101.060	12.218367	-56.270772	101.120	-0.180	-0.430	0.930	101.040	-1.900	1.100																			1580059217.0	11.02	20.41
26/01/2020 17:20:18	26012020	260120	172018	100.970	12.218353	-56.270720	100.990	-0.470	-0.310	1.110	100.940	-1.700	1.400																			1580059218.0	10.91	20.21
26/01/2020 17:20:19	26012020	260120	172019	100.820	12.218340	-56.270670	100.740	-0.550	-0.350	1.010	100.780	-1.700	1.400																			1580059219.0	11.01	20.39
26/01/2020 17:20:20	26012020	260120	172020	100.560	12.218328	-56.270617	100.470	-0.370	-0.610	0.800	100.500	-1.900	1.200																			1580059220.0	11.14	20.63
26/01/2020 17:20:21	26012020	260120	172021	100.320	12.218317	-56.270563	100.400	-0.110	-0.670	0.510	100.290	-2.100	1.000																			1580059221.0	11.44	21.19
26/01/2020 17:20:22	26012020	260120	172022	100.280	12.218307	-56.270508	100.530	-0.060	-0.200	0.200	100.290	-1.800	0.700																			1580059222.0	11.77	21.80
26/01/2020 17:20:23	26012020	260120	172023	100.420	12.218297	-56.270458	100.690	-0.200	0.450	-0.080	100.450	-1.100	0.400																			1580059223.0	11.61	21.50
26/01/2020 17:20:24	26012020	260120	172024	100.590	12.218287	-56.270408	100.780	-0.240	0.750	-0.170	100.610	-0.700	0.200																			1580059224.0	10.98	20.33
26/01/2020 17:20:25	26012020	260120	172025	100.660	12.218277	-56.270358	100.880	-0.030	0.530	-0.180	100.680	-0.700	0.200																			1580059225.0	10.68	19.78
26/01/2020 17:20:26	26012020	260120	172026	100.780	12.218267	-56.270305	101.080	0.280	-0.010	-0.150	100.820	-1.200	0.200																			1580059226.0	10.95	20.28
26/01/2020 17:20:27	26012020	260120	172027	100.990	12.218257	-56.270252	101.260	0.500	-0.550	-0.050	101.030	-1.800	0.300																			1580059227.0	11.34	21.00
26/01/2020 17:20:28	26012020	260120	172028	101.160	12.218247	-56.270198	101.390	0.570	-0.800	0.170	101.190	-2.100	0.400																			1580059228.0	11.47	21.24
26/01/2020 17:20:29	26012020	260120	172029	101.280	12.218237	-56.270148	101.480	0.450	-0.690	0.380	101.300	-2.100	0.700																			1580059229.0	11.37	21.06
26/01/2020 17:20:30	26012020	260120	172030	101.370	12.218225	-56.270098	101.490	0.160	-0.460	0.520	101.370	-1.900	0.900																			1580059230.0	11.08	20.52
26/01/2020 17:20:31	26012020	260120	172031	101.370	12.218215	-56.270048	101.420	-0.110	-0.410	0.510	101.360	-1.800	0.900																			1580059231.0	10.77	19.95
26/01/2020 17:20:32	26012020	260120	172032	101.280	12.218203	-56.269997	101.180	-0.190	-0.620	0.530	101.240	-1.900	0.900																			1580059232.0	10.75	19.91
26/01/2020 17:20:33	26012020	260120	172033	101.020	12.218192	-56.269943	100.830	-0.130	-0.780	0.540	100.950	-2.100	0.900																			1580059233.0	11.08	20.52
26/01/2020 17:20:34	26012020	260120	172034	100.680	12.218180	-56.269890	100.540	-0.130	-0.630	0.480	100.620	-2.100	0.900																			1580059234.0	11.51	21.32
26/01/2020 17:20:35	26012020	260120	172035	100.400	12.218168	-56.269838	100.320	-0.310	-0.160	0.440	100.350	-1.700	0.800																			1580059235.0	11.58	21.45
26/01/2020 17:20:36	26012020	260120	172036	100.190	12.218157	-56.269788	100.260	-0.550	0.340	0.240	100.190	-1.500	0.800																			1580059236.0	11.32	20.96
26/01/2020 17:20:37	26012020	260120	172037	100.160	12.218147	-56.269737	100.420	-0.580	0.460	-0.030	100.170	-0.900	0.400																			1580059237.0	11.01	20.39
26/01/2020 17:20:38	26012020	260120	172038	100.330	12.218135	-56.269685	100.710	-0.300	0.140	-0.220	100.330	-0.900	0.300																			1580059238.0	10.93	20.24
26/01/2020 17:20:39	26012020	260120	172039	100.640	12.218125	-56.269632	101.010	0.120	-0.200	-0.310	100.700	-1.500	0.100																			1580059239.0	11.29	20.91
26/01/2020 17:20:40	26012020	260120	172040	100.940	12.218113	-56.269578	101.280	0.390	-0.180	-0.280	100.990	-1.600	0.100																			1580059240.0	11.65	21.58
26/01/2020 17:20:41	26012020	260120	172041	101.200	12.218102	-56.269527	101.450	0.470	-0.050	-0.110	101.230	-1.500	0.200																			1580059241.0	11.49	21.28
26/01/2020 17:20:42	26012020	260120	172042	101.340	12.218092	-56.269478	101.440	0.500	-0.230	0.190	101.340	-1.500	0.400																			1580059242.0	10.94	20.26
26/01/2020 17:20:43	26012020	260120	172043	101.310	12.218082	-56.269427	101.280	0.550	-0.670	0.420	101.290	-1.900	0.700																			1580059243.0	10.74	19.89
26/01/2020 17:20:44	26012020	260120	172044	101.140	12.218072	-56.269373	101.080	0.460	-0.880	0.490	101.100	-2.200	0.800																			1580059244.0	11.11	20.58
26/01/2020 17:20:45	26012020	260120	172045	100.950	12.218063	-56.269320	100.930	0.070	-0.630	0.690	100.920	-2.100	1.000																			1580059245.0	11.46	21.22
26/01/2020 17:20:46	26012020	260120	172046	100.790	12.218052	-56.269270	100.750	-0.490	-0.190	1.000	100.760	-1.700	1.300																			1580059246.0	11.30	20.93
26/01/2020 17:20:47	26012020	260120	172047	100.620	12.218037	-56.269222	100.570	-0.800	-0.090	1.110	100.580	-1.500	1.500																			1580059247.0	10.85	20.09
26/01/2020 17:20:48	26012020	260120	172048	100.470	12.218023	-56.269170	100.360	-0.610	-0.340	0.940	100.420	-1.500	1.500																			1580059248.0	10.79	19.98
26/01/2020 17:20:49	26012020	260120	172049	100.220	12.218010	-56.269117	100.240	-0.130	-0.530	0.550	100.190	-1.900	1.100																			1580059249.0	11.28	20.89
26/01/2020 17:20:50	26012020	260120	172050	100.120	12.218000	-56.269062	100.240	0.230	-0.290	0.180	100.120	-1.900	0.900																			1580059250.0	11.72	21.71
26/01/2020 17:20:51	26012020	260120	172051	100.140	12.217992	-56.269010	100.380	0.230	0.220	-0.030	100.150	-1.300	0.400																			1580059251.0	11.65	21.58
26/01/2020 17:20:52	26012020	260120	172052	100.290	12.217982	-56.268960	100.640	0.040	0.470	-0.090	100.340	-0.900	0.300																			1580059252.0	11.13	20.61
26/01/2020 17:20:53	26012020	260120	172053	100.560	12.217973	-56.268910	100.870	-0.060	0.190	0.080	100.610	-1.100	0.400																			1580059253.0	10.73	19.87
26/01/2020 17:20:54	26012020	260120	172054	100.770	12.217962	-56.268857	100.970	0.040	-0.280	0.360	100.800	-1.500	0.600																			1580059254.0	10.90	20.19
26/01/2020 17:20:55	26012020	260120	172055	100.860	12.217950	-56.268805	100.990	0.200	-0.610	0.450	100.860	-1.900	0.800																			1580059255.0	11.33	20.98
26/01/2020 17:20:56	26012020	260120	172056	100.870	12.217938	-56.268753	100.920	0.290	-0.750	0.450	100.870	-2.100	0.800																			1580059256.0	11.41	21.13
26/01/2020 17:20:57	26012020	260120	172057	100.780	12.217928	-56.268702	100.690	0.260	-0.750	0.480	100.740	-2.100	0.800																			1580059257.0	11.24	20.82
26/01/2020 17:20:58	26012020	260120	172058	100.550	12.217920	-56.268650	100.470	0.100	-0.590	0.380	100.500	-2.000	0.800																			1580059258.0	11.15	20.65
26/01/2020 17:20:59	26012020	260120	172059	100.330	12.217910	-56.268598	100.330	-0.110	-0.320	0.320	100.300	-1.800	0.700	1014.80	26.10	26.20	20.00	20.10	864.00	69.00	69.00	375.00	29.20	352.00	9.70	82.00	4.10	62525	3452.00	27.70	27.70	1580059259.0	11.11	20.58
26/01/2020 17:21:00	26012020	260120	172100	100.220	12.217900	-56.268547	100.230	-0.320	-0.060	0.320	100.200	-1.700	0.700																			1580059260.0	11.09	20.54
26/01/2020 17:21:01	26012020	260120	172101	100.110	12.217888	-56.268495	100.190	-0.400	0.050	0.280	100.100	-1.400	0.600																			1580059261.0	11.07	20.50
26/01/2020 17:21:02	26012020	260120	172102	100.070	12.217877	-56.268443	100.190	-0.300	-0.030	0.340	100.070	-1.300	0.600																			1580059262.0	11.10	20.56
26/01/2020 17:21:03	26012020	260120	172103	100.080	12.217865	-56.268390	100.270	-0.070	-0.190	0.400	100.090	-1.500	0.700																			1580059263.0	11.28	20.89
26/01/2020 17:21:04	26012020	260120	172104	100.160	12.217853	-56.268338	100.380	0.100	-0.220	0.350	100.180	-1.600	0.700																			1580059264.0	11.46	21.22
26/01/2020 17:21:05	26012020	260120	172105	100.270	12.217842	-56.268285	100.470	0.160	-0.040	0.280	100.290	-1.500	0.700																			1580059265.0	11.51	21.32
26/01/2020 17:21:06	26012020	260120	172106	100.370	12.217833	-56.268235	100.580	0.160	0.090	0.220	100.380	-1.300	0.600																			1580059266.0	11.25	20.84
26/01/2020 17:21:07	26012020	260120	172107	100.480	12.217823	-56.268185	100.730	0.160	-0.090	0.120	100.510	-1.400	0.500																			1580059267.0	10.89	20.17
26/01/2020 17:21:08	26012020	260120	172108	100.630	12.217815	-56.268132	100.800	0.080	-0.340	0.120	100.650	-1.600	0.500																			1580059268.0	10.90	20.19
26/01/2020 17:21:09	26012020	260120	172109	100.670	12.217805	-56.268080	100.680	-0.070	-0.510	0.370	100.660	-1.800	0.600																			1580059269.0	11.20	20.74
26/01/2020 17:21:10	26012020	260120	172110	100.540	12.217793	-56.268028	100.480	-0.070	-0.770	0.680	100.490	-2.000	0.900																			1580059270.0	11.18	20.71
26/01/2020 17:21:11	26012020	260120	172111	100.330	12.217780	-56.267977	100.300	0.170	-1.030	0.800	100.290	-2.300	1.200																			1580059271.0	11.11	20.58
26/01/2020 17:21:12	26012020	260120	172112	100.150	12.217768	-56.267923	100.140	0.330	-0.830	0.620	100.120	-2.400	1.100																			1580059272.0	11.38	21.08
26/01/2020 17:21:13	26012020	260120	172113	100.010	12.217760	-56.267872	100.070	0.180	-0.130	0.240	99.990	-1.800	0.700																			1580059273.0	11.59	21.46
26/01/2020 17:21:14	26012020	260120	172114	99.970	12.217753	-56.267822	100.150	-0.160	0.500	-0.020	99.970	-1.500	0.600																			1580059274.0	11.18	20.71
26/01/2020 17:21:15	26012020	260120	172115	100.050	12.217745	-56.267772	100.300	-0.360	0.430	0.010	100.080	-0.800	0.300																			1580059275.0	10.67	19.76
26/01/2020 17:21:16	26012020	260120	172116	100.200	12.217733	-56.267718	100.440	-0.300	-0.160	0.120	100.230	-1.300	0.400																			1580059276.0	10.75	19.91
26/01/2020 17:21:17	26012020	260120	172117	100.330	12.217722	-56.267663	100.480	-0.140	-0.540	0.340	100.350	-1.900	0.600																			1580059277.0	11.48	21.26
26/01/2020 17:21:18	26012020	260120	172118	100.360	12.217710	-56.267610	100.460	-0.060	-0.380	0.520	100.350	-1.900	0.800																			1580059278.0	11.94	22.11
26/01/2020 17:21:19	26012020	260120	172119	100.340	12.217698	-56.267560	100.490	-0.080	-0.020	0.400	100.340	-1.500	0.800																			1580059279.0	11.58	21.45
26/01/2020 17:21:20	26012020	260120	172120	100.380	12.217688	-56.267510	100.570	-0.130	0.130	0.080	100.400	-1.300	0.500																			1580059280.0	10.94	20.26
26/01/2020 17:21:21	26012020	260120	172121	100.470	12.217680	-56.267458	100.670	-0.180	0.040	-0.100	100.490	-1.300	0.300																			1580059281.0	10.72	19.85
26/01/2020 17:21:22	26012020	260120	172122	100.570	12.217670	-56.267408	100.720	-0.110	-0.210	-0.060	100.590	-1.500	0.300																			1580059282.0	10.91	20.21
26/01/2020 17:21:23	26012020	260120	172123	100.610	12.217658	-56.267357	100.540	0.200	-0.680	0.170	100.600	-1.900	0.400																			1580059283.0	11.04	20.45
26/01/2020 17:21:24	26012020	260120	172124	100.400	12.217647	-56.267303	100.200	0.680	-1.150	0.340	100.330	-2.400	0.700																			1580059284.0	11.16	20.67
26/01/2020 17:21:25	26012020	260120	172125	100.050	12.217637	-56.267248	100.000	0.960	-1.090	0.260	99.990	-2.600	0.700																			1580059285.0	11.52	21.34
26/01/2020 17:21:26	26012020	260120	172126	99.880	12.217630	-56.267195	100.110	0.690	-0.330	0.090	99.880	-2.000	0.500																			1580059286.0	11.72	21.71
26/01/2020 17:21:27	26012020	260120	172127	100.020	12.217622	-56.267147	100.430	-0.050	0.620	0.090	100.080	-1.100	0.400																			1580059287.0	11.29	20.91
26/01/2020 17:21:28	26012020	260120	172128	100.340	12.217612	-56.267098	100.700	-0.780	0.980	0.280	100.400	-0.400	0.500																			1580059288.0	10.54	19.52
26/01/2020 17:21:29	26012020	260120	172129	100.600	12.217600	-56.267050	100.770	-1.010	0.340	0.610	100.620	-0.700	0.800																			1580059289.0	10.25	18.98
26/01/2020 17:21:30	26012020	260120	172130	100.640	12.217585	-56.266995	100.670	-0.640	-0.800	0.910	100.620	-1.800	1.200																			1580059290.0	10.78	19.96
26/01/2020 17:21:31	26012020	260120	172131	100.530	12.217570	-56.266940	100.560	-0.130	-1.360	0.980	100.500	-2.700	1.400																			1580059291.0	11.78	21.82
26/01/2020 17:21:32	26012020	260120	172132	100.420	12.217558	-56.266887	100.450	0.100	-0.930	0.720	100.390	-2.600	1.200																			1580059292.0	12.30	22.78
26/01/2020 17:21:33	26012020	260120	172133	100.310	12.217548	-56.266837	100.330	0.080	-0.160	0.340	100.290	-1.800	0.800																			1580059293.0	11.65	21.58
26/01/2020 17:21:34	26012020	260120	172134	100.210	12.217542	-56.266788	100.300	0.120	0.180	-0.020	100.200	-1.300	0.500																			1580059294.0	10.62	19.67
26/01/2020 17:21:35	26012020	260120	172135	100.210	12.217533	-56.266737	100.380	0.270	0.040	-0.270	100.220	-1.300	0.200																			1580059295.0	10.46	19.37
26/01/2020 17:21:36	26012020	260120	172136	100.300	12.217525	-56.266682	100.510	0.390	-0.150	-0.340	100.320	-1.500	0.000																			1580059296.0	11.04	20.45
26/01/2020 17:21:37	26012020	260120	172137	100.430	12.217515	-56.266630	100.650	0.330	-0.070	-0.140	100.460	-1.500	0.100																			1580059297.0	11.51	21.32
26/01/2020 17:21:38	26012020	260120	172138	100.560	12.217505	-56.266578	100.800	0.100	0.160	0.150	100.590	-1.300	0.400																			1580059298.0	11.42	21.15
26/01/2020 17:21:39	26012020	260120	172139	100.710	12.217495	-56.266528	100.990	-0.150	0.160	0.240	100.750	-1.200	0.600																			1580059299.0	11.00	20.37
26/01/2020 17:21:40	26012020	260120	172140	100.880	12.217483	-56.266478	101.100	-0.190	-0.350	0.320	100.880	-1.200	0.600																			1580059300.0	10.71	19.83
26/01/2020 17:21:41	26012020	260120	172141	100.990	12.217472	-56.266425	101.070	-0.020	-0.940	0.400	100.990	-2.200	0.700																			1580059301.0	10.92	20.22
26/01/2020 17:21:42	26012020	260120	172142	100.940	12.217460	-56.266372	100.970	0.060	-0.900	0.370	100.930	-2.400	0.700																			1580059302.0	11.50	21.30
26/01/2020 17:21:43	26012020	260120	172143	100.840	12.217448	-56.266322	100.850	-0.060	-0.350	0.270	100.820	-1.900	0.700																			1580059303.0	11.63	21.54
26/01/2020 17:21:44	26012020	260120	172144	100.730	12.217438	-56.266273	100.700	-0.130	-0.130	0.160	100.700	-1.500	0.600																			1580059304.0	10.94	20.26
26/01/2020 17:21:45	26012020	260120	172145	100.570	12.217428	-56.266222	100.550	0.040	-0.440	0.040	100.540	-1.700	0.400																			1580059305.0	10.49	19.43
26/01/2020 17:21:46	26012020	260120	172146	100.430	12.217418	-56.266167	100.450	0.250	-0.590	-0.080	100.400	-2.000	0.300																			1580059306.0	11.04	20.45
26/01/2020 17:21:47	26012020	260120	172147	100.340	12.217408	-56.266113	100.470	0.170	-0.060	-0.220	100.340	-1.700	0.200																			1580059307.0	11.75	21.76
26/01/2020 17:21:48	26012020	260120	172148	100.380	12.217400	-56.266063	100.670	-0.240	0.680	-0.250	100.420	-0.900	0.100																			1580059308.0	11.54	21.37
26/01/2020 17:21:49	26012020	260120	172149	100.600	12.217390	-56.266017	100.960	-0.570	0.720	-0.080	100.660	-0.600	0.200																			1580059309.0	10.68	19.78
26/01/2020 17:21:50	26012020	260120	172150	100.880	12.217377	-56.265965	101.090	-0.420	-0.210	0.260	100.920	-1.200	0.500																			1580059310.0	10.31	19.09
26/01/2020 17:21:51	26012020	260120	172151	100.970	12.217363	-56.265912	100.930	0.160	-1.260	0.610	100.950	-2.400	0.800																			1580059311.0	10.96	20.30
26/01/2020 17:21:52	26012020	260120	172152	100.780	12.217350	-56.265855	100.710	0.610	-1.330	0.850	100.780	-2.700	1.000																			1580059312.0	12.00	22.22
26/01/2020 17:21:53	26012020	260120	172153	100.570	12.217338	-56.265803	100.620	0.490	-0.380	0.730	100.550	-2.200	1.200																			1580059313.0	12.14	22.48
26/01/2020 17:21:54	26012020	260120	172154	100.500	12.217330	-56.265757	100.580	-0.000	0.490	0.330	100.500	-1.100	0.800																			1580059314.0	11.11	20.58
26/01/2020 17:21:55	26012020	260120	172155	100.480	12.217322	-56.265710	100.500	-0.270	0.400	0.070	100.470	-0.900	0.500																			1580059315.0	10.03	18.58
26/01/2020 17:21:56	26012020	260120	172156	100.390	12.217313	-56.265657	100.440	-0.100	-0.380	0.080	100.370	-1.500	0.400																			1580059316.0	10.19	18.87
26/01/2020 17:21:57	26012020	260120	172157	100.330	12.217302	-56.265602	100.420	0.160	-0.890	0.270	100.330	-2.200	0.600																			1580059317.0	11.29	20.91
26/01/2020 17:21:58	26012020	260120	172158	100.300	12.217290	-56.265548	100.370	0.170	-0.610	0.510	100.280	-2.200	0.800																			1580059318.0	12.01	22.24
26/01/2020 17:21:59	26012020	260120	172159	100.250	12.217278	-56.265498	100.440	-0.090	0.050	0.610	100.250	-1.600	1.000	1014.80	26.20	26.30	20.00	20.10	860.00	69.00	69.00	375.00	29.20	354.00	10.10	87.00	4.40	62339	3316.00	27.70	27.70	1580059319.0	11.66	21.59
26/01/2020 17:22:00	26012020	260120	172200	100.330	12.217268	-56.265450	100.700	-0.420	0.480	0.520	100.380	-1.000	0.900																			1580059320.0	10.82	20.04
26/01/2020 17:22:01	26012020	260120	172201	100.600	12.217257	-56.265402	100.920	-0.510	0.380	0.320	100.660	-0.900	0.700																			1580059321.0	10.41	19.28
26/01/2020 17:22:02	26012020	260120	172202	100.820	12.217247	-56.265350	100.940	-0.220	-0.210	0.180	100.830	-1.400	0.600																			1580059322.0	10.60	19.63
26/01/2020 17:22:03	26012020	260120	172203	100.820	12.217235	-56.265297	100.880	0.310	-0.850	0.110	100.810	-2.100	0.500																			1580059323.0	11.07	20.50
26/01/2020 17:22:04	26012020	260120	172204	100.770	12.217225	-56.265242	100.900	0.590	-0.910	0.010	100.770	-2.200	0.500																			1580059324.0	11.56	21.41
26/01/2020 17:22:05	26012020	260120	172205	100.810	12.217217	-56.265192	100.910	0.420	-0.430	-0.020	100.810	-2.000	0.300																			1580059325.0	11.64	21.56
26/01/2020 17:22:06	26012020	260120	172206	100.810	12.217207	-56.265143	100.830	0.050	-0.030	0.090	100.800	-1.500	0.400																			1580059326.0	10.99	20.35
26/01/2020 17:22:07	26012020	260120	172207	100.720	12.217197	-56.265093	100.750	-0.150	-0.110	0.340	100.710	-1.400	0.600																			1580059327.0	10.45	19.35
26/01/2020 17:22:08	26012020	260120	172208	100.640	12.217185	-56.265042	100.700	-0.040	-0.510	0.590	100.640	-1.800	0.900																			1580059328.0	10.64	19.71
26/01/2020 17:22:09	26012020	260120	172209	100.590	12.217173	-56.264988	100.600	0.210	-0.720	0.610	100.560	-2.100	1.000																			1580059329.0	11.25	20.84
26/01/2020 17:22:10	26012020	260120	172210	100.480	12.217162	-56.264935	100.570	0.240	-0.340	0.470	100.470	-1.900	0.900																			1580059330.0	11.67	21.61
26/01/2020 17:22:11	26012020	260120	172211	100.480	12.217152	-56.264885	100.730	-0.110	0.350	0.330	100.500	-1.300	0.700																			1580059331.0	11.50	21.30
26/01/2020 17:22:12	26012020	260120	172212	100.650	12.217142	-56.264837	100.920	-0.530	0.640	0.210	100.700	-0.800	0.600																			1580059332.0	10.83	20.06
26/01/2020 17:22:13	26012020	260120	172213	100.840	12.217132	-56.264787	101.010	-0.620	0.270	0.110	100.870	-0.900	0.500																			1580059333.0	10.38	19.22
26/01/2020 17:22:14	26012020	260120	172214	100.920	12.217120	-56.264735	101.010	-0.330	-0.470	0.150	100.930	-1.600	0.500																			1580059334.0	10.72	19.85
26/01/2020 17:22:15	26012020	260120	172215	100.920	12.217108	-56.264680	101.020	0.060	-0.930	0.290	100.920	-2.200	0.600																			1580059335.0	11.37	21.06
26/01/2020 17:22:16	26012020	260120	172216	100.920	12.217097	-56.264628	100.960	0.250	-0.720	0.350	100.920	-2.200	0.700																			1580059336.0	11.69	21.65
26/01/2020 17:22:17	26012020	260120	172217	100.840	12.217085	-56.264578	100.770	0.270	-0.260	0.310	100.810	-1.800	0.700																			1580059337.0	11.37	21.06
26/01/2020 17:22:18	26012020	260120	172218	100.660	12.217077	-56.264530	100.650	0.330	-0.160	0.130	100.620	-1.500	0.600																			1580059338.0	10.66	19.74
26/01/2020 17:22:19	26012020	260120	172219	100.550	12.217067	-56.264478	100.650	0.460	-0.360	-0.080	100.550	-1.700	0.300																			1580059339.0	10.54	19.52
26/01/2020 17:22:20	26012020	260120	172220	100.560	12.217058	-56.264425	100.660	0.440	-0.390	-0.140	100.570	-1.800	0.200																			1580059340.0	11.06	20.48
26/01/2020 17:22:21	26012020	260120	172221	100.590	12.217048	-56.264373	100.670	0.160	-0.040	-0.030	100.590	-1.600	0.300																			1580059341.0	11.44	21.19
26/01/2020 17:22:22	26012020	260120	172222	100.610	12.217038	-56.264325	100.670	-0.180	0.270	0.220	100.610	-1.200	0.500																			1580059342.0	11.15	20.65
26/01/2020 17:22:23	26012020	260120	172223	100.590	12.217028	-56.264275	100.650	-0.330	-0.000	0.490	100.590	-1.200	0.800																			1580059343.0	10.63	19.69
26/01/2020 17:22:24	26012020	260120	172224	100.560	12.217017	-56.264223	100.670	-0.270	-0.630	0.620	100.570	-1.800	0.900																			1580059344.0	10.69	19.80
26/01/2020 17:22:25	26012020	260120	172225	100.590	12.217003	-56.264168	100.660	-0.130	-0.980	0.690	100.590	-2.300	1.000																			1580059345.0	11.33	20.98
26/01/2020 17:22:26	26012020	260120	172226	100.560	12.216992	-56.264117	100.580	-0.120	-0.620	0.620	100.550	-2.200	1.000																			1580059346.0	11.71	21.69
26/01/2020 17:22:27	26012020	260120	172227	100.480	12.216980	-56.264067	100.470	-0.260	-0.000	0.470	100.450	-1.600	0.900																			1580059347.0	11.46	21.22
26/01/2020 17:22:28	26012020	260120	172228	100.390	12.216968	-56.264018	100.330	-0.320	0.210	0.350	100.360	-1.400	0.800																			1580059348.0	10.74	19.89
26/01/2020 17:22:29	26012020	260120	172229	100.220	12.216958	-56.263967	100.260	-0.160	0.060	0.100	100.200	-1.300	0.600																			1580059349.0	10.53	19.50
26/01/2020 17:22:30	26012020	260120	172230	100.180	12.216950	-56.263915	100.370	0.120	-0.120	-0.270	100.180	-1.300	0.400																			1580059350.0	11.02	20.41
26/01/2020 17:22:31	26012020	260120	172231	100.310	12.216940	-56.263862	100.610	0.330	-0.200	-0.470	100.350	-1.600	-0.100																			1580059351.0	11.33	20.98
26/01/2020 17:22:32	26012020	260120	172232	100.560	12.216932	-56.263810	100.870	0.380	-0.170	-0.400	100.610	-1.600	-0.100																			1580059352.0	11.28	20.89
26/01/2020 17:22:33	26012020	260120	172233	100.810	12.216922	-56.263760	101.010	0.300	-0.060	-0.100	100.840	-1.500	0.100																			1580059353.0	11.10	20.56
26/01/2020 17:22:34	26012020	260120	172234	100.930	12.216910	-56.263710	101.010	0.150	-0.010	0.220	100.930	-1.400	0.500																			1580059354.0	10.88	20.15
26/01/2020 17:22:35	26012020	260120	172235	100.910	12.216900	-56.263662	100.870	0.080	-0.340	0.440	100.890	-1.600	0.700																			1580059355.0	10.69	19.80
26/01/2020 17:22:36	26012020	260120	172236	100.740	12.216890	-56.263610	100.540	0.190	-1.030	0.580	100.680	-2.200	0.900																			1580059356.0	10.72	19.85
26/01/2020 17:22:37	26012020	260120	172237	100.400	12.216878	-56.263555	100.170	0.280	-1.410	0.690	100.330	-2.800	1.000																			1580059357.0	11.19	20.72
26/01/2020 17:22:38	26012020	260120	172238	100.040	12.216868	-56.263502	99.950	0.080	-0.920	0.680	99.980	-2.600	1.100																			1580059358.0	11.77	21.80
26/01/2020 17:22:39	26012020	260120	172239	99.840	12.216858	-56.263452	99.930	-0.330	-0.010	0.590	99.830	-1.700	1.000																			1580059359.0	11.58	21.45
26/01/2020 17:22:40	26012020	260120	172240	99.830	12.216847	-56.263403	99.960	-0.630	0.470	0.530	99.840	-1.000	0.900																			1580059360.0	10.75	19.91
26/01/2020 17:22:41	26012020	260120	172241	99.860	12.216833	-56.263353	99.930	-0.600	0.340	0.500	99.860	-1.000	0.900																			1580059361.0	10.46	19.37
26/01/2020 17:22:42	26012020	260120	172242	99.830	12.216822	-56.263300	99.970	-0.340	0.120	0.390	99.830	-1.100	0.900																			1580059362.0	11.01	20.39
26/01/2020 17:22:43	26012020	260120	172243	99.890	12.216810	-56.263247	100.210	-0.100	0.190	0.170	99.930	-1.300	0.600																			1580059363.0	11.59	21.46
26/01/2020 17:22:44	26012020	260120	172244	100.170	12.216802	-56.263195	100.540	0.050	0.280	-0.070	100.170	-1.200	0.500																			1580059364.0	11.46	21.22
26/01/2020 17:22:45	26012020	260120	172245	100.490	12.216792	-56.263145	100.780	0.220	-0.080	-0.180	100.540	-1.300	0.200																			1580059365.0	10.90	20.19
26/01/2020 17:22:46	26012020	260120	172246	100.720	12.216783	-56.263093	100.930	0.450	-0.610	-0.130	100.750	-1.900	0.200																			1580059366.0	10.76	19.93
26/01/2020 17:22:47	26012020	260120	172247	100.860	12.216773	-56.263042	101.020	0.530	-0.660	0.020	100.880	-2.100	0.300																			1580059367.0	11.19	20.72
26/01/2020 17:22:48	26012020	260120	172248	100.930	12.216763	-56.262992	100.930	0.390	-0.430	0.320	100.920	-1.900	0.600																			1580059368.0	11.30	20.93
26/01/2020 17:22:49	26012020	260120	172249	100.820	12.216755	-56.262943	100.700	0.220	-0.490	0.540	100.770	-1.800	0.800																			1580059369.0	10.74	19.89
26/01/2020 17:22:50	26012020	260120	172250	100.570	12.216745	-56.262892	100.390	0.220	-0.960	0.690	100.510	-2.200	1.000																			1580059370.0	10.50	19.45
26/01/2020 17:22:51	26012020	260120	172251	100.260	12.216733	-56.262837	100.050	0.320	-1.350	0.790	100.190	-2.700	1.100																			1580059371.0	11.02	20.41
26/01/2020 17:22:52	26012020	260120	172252	99.920	12.216722	-56.262783	99.810	0.140	-0.860	0.750	99.860	-2.500	1.100																			1580059372.0	11.72	21.71
26/01/2020 17:22:53	26012020	260120	172253	99.700	12.216712	-56.262732	99.780	-0.480	0.430	0.710	99.670	-1.500	1.100																			1580059373.0	11.84	21.93
26/01/2020 17:22:54	26012020	260120	172254	99.690	12.216702	-56.262685	99.930	-1.140	1.310	0.570	99.710	-0.300	1.000																			1580059374.0	10.95	20.28
26/01/2020 17:22:55	26012020	260120	172255	99.860	12.216690	-56.262638	100.170	-1.210	0.880	0.360	99.910	-0.200	0.800																			1580059375.0	10.02	18.56
26/01/2020 17:22:56	26012020	260120	172256	100.100	12.216677	-56.262583	100.450	-0.620	-0.230	0.150	100.150	-1.300	0.600																			1580059376.0	10.39	19.24
26/01/2020 17:22:57	26012020	260120	172257	100.390	12.216665	-56.262528	100.740	0.100	-0.720	-0.100	100.440	-2.100	0.300																			1580059377.0	11.73	21.72
26/01/2020 17:22:58	26012020	260120	172258	100.680	12.216655	-56.262475	100.950	0.520	-0.300	-0.290	100.730	-1.900	0.100																			1580059378.0	12.23	22.65
26/01/2020 17:22:59	26012020	260120	172259	100.870	12.216647	-56.262428	101.010	0.620	0.130	-0.400	100.890	-1.300	-0.000	1014.70	26.20	26.30	19.70	19.80	859.00	67.00	67.00	375.00	29.20	354.00	9.90	88.00	4.30	62186	3096.00	27.80	27.70	1580059379.0	11.31	20.95
26/01/2020 17:23:00	26012020	260120	172300	100.930	12.216638	-56.262380	100.970	0.700	-0.160	-0.400	100.920	-1.400	-0.100																			1580059380.0	10.22	18.93
26/01/2020 17:23:01	26012020	260120	172301	100.870	12.216632	-56.262328	100.860	0.780	-0.810	-0.220	100.850	-2.000	0.100																			1580059381.0	10.26	19.00
26/01/2020 17:23:02	26012020	260120	172302	100.750	12.216623	-56.262273	100.720	0.680	-0.990	0.150	100.720	-2.400	0.400																			1580059382.0	11.14	20.63
26/01/2020 17:23:03	26012020	260120	172303	100.600	12.216613	-56.262223	100.550	0.320	-0.630	0.510	100.560	-2.200	0.700																			1580059383.0	11.52	21.34
26/01/2020 17:23:04	26012020	260120	172304	100.420	12.216603	-56.262173	100.390	-0.190	-0.250	0.810	100.380	-1.700	1.100																			1580059384.0	11.04	20.45
26/01/2020 17:23:05	26012020	260120	172305	100.250	12.216592	-56.262123	100.270	-0.630	-0.170	1.000	100.220	-1.600	1.300																			1580059385.0	10.62	19.67
26/01/2020 17:23:06	26012020	260120	172306	100.140	12.216578	-56.262073	100.190	-0.830	-0.280	0.940	100.120	-1.600	1.300																			1580059386.0	10.77	19.95
26/01/2020 17:23:07	26012020	260120	172307	100.080	12.216565	-56.262020	100.120	-0.790	-0.270	0.780	100.060	-1.700	1.200																			1580059387.0	11.20	20.74
26/01/2020 17:23:08	26012020	260120	172308	100.020	12.216552	-56.261968	100.190	-0.620	-0.050	0.540	100.020	-1.700	1.100																			1580059388.0	11.43	21.17
26/01/2020 17:23:09	26012020	260120	172309	100.120	12.216540	-56.261918	100.460	-0.400	0.180	0.170	100.170	-1.300	0.700																			1580059389.0	11.27	20.87
26/01/2020 17:23:10	26012020	260120	172310	100.420	12.216530	-56.261868	100.700	-0.130	0.280	-0.280	100.470	-1.100	0.200																			1580059390.0	11.00	20.37
26/01/2020 17:23:11	26012020	260120	172311	100.670	12.216522	-56.261817	100.840	0.210	0.130	-0.590	100.710	-1.200	-0.200																			1580059391.0	10.88	20.15
26/01/2020 17:23:12	26012020	260120	172312	100.790	12.216513	-56.261765	100.870	0.580	-0.130	-0.590	100.800	-1.400	-0.300																			1580059392.0	10.89	20.17
26/01/2020 17:23:13	26012020	260120	172313	100.810	12.216507	-56.261713	100.880	0.850	-0.480	-0.420	100.820	-1.700	-0.100																			1580059393.0	11.04	20.45
26/01/2020 17:23:14	26012020	260120	172314	100.820	12.216498	-56.261662	100.820	0.930	-0.890	-0.220	100.810	-2.200	0.100																			1580059394.0	11.07	20.50
26/01/2020 17:23:15	26012020	260120	172315	100.730	12.216488	-56.261608	100.670	0.720	-0.940	0.160	100.700	-2.400	0.400																			1580059395.0	11.17	20.69
26/01/2020 17:23:16	26012020	260120	172316	100.560	12.216478	-56.261558	100.560	0.200	-0.420	0.600	100.530	-2.000	0.800																			1580059396.0	11.35	21.02
26/01/2020 17:23:17	26012020	260120	172317	100.450	12.216467	-56.261510	100.550	-0.390	0.130	0.840	100.440	-1.400	1.100																			1580059397.0	11.03	20.43
26/01/2020 17:23:18	26012020	260120	172318	100.450	12.216455	-56.261462	100.630	-0.720	0.140	0.880	100.460	-1.200	1.200																			1580059398.0	10.46	19.37
26/01/2020 17:23:19	26012020	260120	172319	100.540	12.216443	-56.261410	100.690	-0.760	-0.190	0.820	100.550	-1.500	1.200																			1580059399.0	10.55	19.54
26/01/2020 17:23:20	26012020	260120	172320	100.580	12.216430	-56.261357	100.600	-0.620	-0.400	0.640	100.580	-1.600	1.200																			1580059400.0	11.19	20.72
26/01/2020 17:23:21	26012020	260120	172321	100.490	12.216417	-56.261305	100.490	-0.390	-0.400	0.380	100.470	-1.800	0.800																			1580059401.0	11.49	21.28
26/01/2020 17:23:22	26012020	260120	172322	100.380	12.216407	-56.261253	100.470	-0.140	-0.290	0.060	100.370	-1.700	0.500																			1580059402.0	11.30	20.93
26/01/2020 17:23:23	26012020	260120	172323	100.390	12.216397	-56.261203	100.560	0.050	-0.140	-0.300	100.400	-1.600	0.200																			1580059403.0	11.09	20.54
26/01/2020 17:23:24	26012020	260120	172324	100.500	12.216390	-56.261152	100.700	0.240	-0.120	-0.530	100.530	-1.500	-0.100																			1580059404.0	10.97	20.32
26/01/2020 17:23:25	26012020	260120	172325	100.620	12.216380	-56.261100	100.770	0.480	-0.250	-0.450	100.640	-1.600	-0.200																			1580059405.0	10.92	20.22
26/01/2020 17:23:26	26012020	260120	172326	100.680	12.216372	-56.261048	100.810	0.620	-0.330	-0.270	100.690	-1.700	0.000																			1580059406.0	11.05	20.46
26/01/2020 17:23:27	26012020	260120	172327	100.710	12.216362	-56.260997	100.820	0.500	-0.240	-0.080	100.710	-1.700	0.200																			1580059407.0	11.23	20.80
26/01/2020 17:23:28	26012020	260120	172328	100.730	12.216352	-56.260947	100.850	0.210	-0.080	0.200	100.740	-1.500	0.500																			1580059408.0	11.15	20.65
26/01/2020 17:23:29	26012020	260120	172329	100.760	12.216342	-56.260897	100.840	-0.060	-0.100	0.450	100.760	-1.500	0.700																			1580059409.0	10.90	20.19
26/01/2020 17:23:30	26012020	260120	172330	100.750	12.216330	-56.260845	100.770	-0.220	-0.280	0.620	100.730	-1.600	0.900																			1580059410.0	10.80	20.00
26/01/2020 17:23:31	26012020	260120	172331	100.660	12.216318	-56.260793	100.670	-0.350	-0.430	0.730	100.640	-1.800	1.000																			1580059411.0	11.02	20.41
26/01/2020 17:23:32	26012020	260120	172332	100.560	12.216307	-56.260742	100.560	-0.430	-0.470	0.720	100.560	-1.800	1.100																			1580059412.0	11.22	20.78
26/01/2020 17:23:33	26012020	260120	172333	100.450	12.216295	-56.260692	100.500	-0.390	-0.450	0.520	100.430	-1.900	0.900																			1580059413.0	11.17	20.69
26/01/2020 17:23:34	26012020	260120	172334	100.400	12.216283	-56.260640	100.480	-0.210	-0.370	0.230	100.400	-1.800	0.700																			1580059414.0	11.10	20.56
26/01/2020 17:23:35	26012020	260120	172335	100.400	12.216273	-56.260588	100.460	0.030	-0.290	-0.070	100.400	-1.700	0.400																			1580059415.0	11.09	20.54
26/01/2020 17:23:36	26012020	260120	172336	100.390	12.216263	-56.260537	100.470	0.250	-0.230	-0.300	100.390	-1.600	0.100																			1580059416.0	11.10	20.56
26/01/2020 17:23:37	26012020	260120	172337	100.400	12.216255	-56.260485	100.550	0.380	-0.150	-0.370	100.420	-1.600	0.000																			1580059417.0	11.14	20.63
26/01/2020 17:23:38	26012020	260120	172338	100.490	12.216245	-56.260433	100.720	0.290	0.070	-0.340	100.520	-1.400	0.000																			1580059418.0	11.19	20.72
26/01/2020 17:23:39	26012020	260120	172339	100.670	12.216235	-56.260383	100.890	0.020	0.320	-0.150	100.710	-1.100	0.100																			1580059419.0	11.12	20.59
26/01/2020 17:23:40	26012020	260120	172340	100.830	12.216225	-56.260333	100.920	-0.210	0.220	0.210	100.840	-1.100	0.400																			1580059420.0	10.84	20.08
26/01/2020 17:23:41	26012020	260120	172341	100.830	12.216213	-56.260283	100.860	-0.140	-0.370	0.480	100.820	-1.500	0.800																			1580059421.0	10.67	19.76
26/01/2020 17:23:42	26012020	260120	172342	100.760	12.216202	-56.260230	100.790	0.140	-1.000	0.540	100.750	-2.200	0.900																			1580059422.0	10.96	20.30
26/01/2020 17:23:43	26012020	260120	172343	100.680	12.216190	-56.260177	100.680	0.320	-1.090	0.490	100.660	-2.500	0.900																			1580059423.0	11.53	21.35
26/01/2020 17:23:44	26012020	260120	172344	100.560	12.216182	-56.260125	100.520	0.200	-0.590	0.450	100.540	-2.200	0.800																			1580059424.0	11.63	21.54
26/01/2020 17:23:45	26012020	260120	172345	100.420	12.216172	-56.260075	100.380	-0.120	0.010	0.450	100.390	-1.600	0.800																			1580059425.0	11.14	20.63
26/01/2020 17:23:46	26012020	260120	172346	100.280	12.216162	-56.260027	100.270	-0.360	0.100	0.450	100.260	-1.200	0.800																			1580059426.0	10.60	19.63
26/01/2020 17:23:47	26012020	260120	172347	100.180	12.216150	-56.259975	100.190	-0.300	-0.290	0.400	100.170	-1.500	0.800																			1580059427.0	10.61	19.65
26/01/2020 17:23:48	26012020	260120	172348	100.100	12.216138	-56.259920	100.180	-0.070	-0.470	0.280	100.090	-1.800	0.700																			1580059428.0	11.23	20.80
26/01/2020 17:23:49	26012020	260120	172349	100.100	12.216127	-56.259867	100.310	0.070	-0.180	0.150	100.120	-1.700	0.500																			1580059429.0	11.78	21.82
26/01/2020 17:23:50	26012020	260120	172350	100.250	12.216117	-56.259817	100.520	0.030	0.210	0.030	100.290	-1.300	0.400																			1580059430.0	11.47	21.24
26/01/2020 17:23:51	26012020	260120	172351	100.470	12.216108	-56.259767	100.720	-0.110	0.410	-0.090	100.510	-1.000	0.300																			1580059431.0	10.90	20.19
26/01/2020 17:23:52	26012020	260120	172352	100.670	12.216098	-56.259717	100.850	-0.160	0.210	-0.110	100.700	-1.000	0.200																			1580059432.0	10.71	19.83
26/01/2020 17:23:53	26012020	260120	172353	100.770	12.216088	-56.259665	100.950	0.000	-0.370	-0.050	100.790	-1.500	0.300																			1580059433.0	10.76	19.93
26/01/2020 17:23:54	26012020	260120	172354	100.870	12.216078	-56.259612	101.080	0.230	-0.790	0.060	100.890	-2.100	0.400																			1580059434.0	11.11	20.58
26/01/2020 17:23:55	26012020	260120	172355	100.990	12.216067	-56.259560	101.080	0.280	-0.740	0.380	101.000	-2.200	0.600																			1580059435.0	11.49	21.28
26/01/2020 17:23:56	26012020	260120	172356	100.990	12.216055	-56.259510	100.850	0.200	-0.500	0.670	100.960	-2.100	0.700																			1580059436.0	11.29	20.91
26/01/2020 17:23:57	26012020	260120	172357	100.710	12.216043	-56.259460	100.550	0.210	-0.460	0.680	100.650	-1.800	1.100																			1580059437.0	10.82	20.04
26/01/2020 17:23:58	26012020	260120	172358	100.420	12.216033	-56.259408	100.410	0.320	-0.560	0.490	100.420	-1.800	1.000																			1580059438.0	10.78	19.96
26/01/2020 17:23:59	26012020	260120	172359	100.310	12.216025	-56.259355	100.540	0.280	-0.410	0.140	100.320	-1.900	0.600	1014.80	26.20	26.30	19.90	19.90	858.00	68.00	68.00	375.00	29.20	355.00	9.60	89.00	4.00	62134	3351.00	27.70	27.70	1580059439.0	11.19	20.72
26/01/2020 17:24:00	26012020	260120	172400	100.470	12.216017	-56.259303	100.770	-0.100	0.120	-0.000	100.510	-1.500	0.400																			1580059440.0	11.46	21.22
26/01/2020 17:24:01	26012020	260120	172401	100.690	12.216007	-56.259253	100.890	-0.560	0.470	0.190	100.720	-1.000	0.500																			1580059441.0	11.16	20.67
26/01/2020 17:24:02	26012020	260120	172402	100.810	12.215995	-56.259205	100.980	-0.650	0.100	0.370	100.830	-1.100	0.700																			1580059442.0	10.61	19.65
26/01/2020 17:24:03	26012020	260120	172403	100.900	12.215982	-56.259152	101.060	-0.320	-0.570	0.410	100.920	-1.800	0.800																			1580059443.0	10.78	19.96
26/01/2020 17:24:04	26012020	260120	172404	100.990	12.215968	-56.259097	101.170	0.020	-0.690	0.220	101.010	-2.100	0.700																			1580059444.0	11.58	21.45
26/01/2020 17:24:05	26012020	260120	172405	101.080	12.215958	-56.259045	101.240	0.100	-0.220	-0.010	101.100	-1.800	0.400																			1580059445.0	11.83	21.91
26/01/2020 17:24:06	26012020	260120	172406	101.150	12.215950	-56.258997	101.270	0.000	0.130	-0.130	101.160	-1.300	0.300																			1580059446.0	11.14	20.63
26/01/2020 17:24:07	26012020	260120	172407	101.180	12.215940	-56.258947	101.280	0.030	-0.170	-0.210	101.180	-1.400	0.200																			1580059447.0	10.46	19.37
26/01/2020 17:24:08	26012020	260120	172408	101.190	12.215930	-56.258893	101.250	0.190	-0.620	-0.060	101.180	-1.900	0.200																			1580059448.0	10.66	19.74
26/01/2020 17:24:09	26012020	260120	172409	101.150	12.215918	-56.258840	101.170	0.200	-0.480	0.220	101.130	-2.000	0.500																			1580059449.0	11.45	21.21
26/01/2020 17:24:10	26012020	260120	172410	101.060	12.215907	-56.258790	101.120	0.070	0.010	0.260	101.060	-1.900	0.600																			1580059450.0	11.59	21.46
26/01/2020 17:24:11	26012020	260120	172411	101.020	12.215897	-56.258742	101.130	0.050	0.060	0.120	101.020	-1.300	0.500																			1580059451.0	10.86	20.11
26/01/2020 17:24:12	26012020	260120	172412	101.030	12.215887	-56.258690	101.110	0.240	-0.350	-0.040	101.030	-1.600	0.400																			1580059452.0	10.52	19.48
26/01/2020 17:24:13	26012020	260120	172413	101.030	12.215877	-56.258637	101.190	0.330	-0.480	-0.190	101.030	-1.900	0.200																			1580059453.0	11.09	20.54
26/01/2020 17:24:14	26012020	260120	172414	101.110	12.215867	-56.258585	101.310	0.120	-0.140	-0.040	101.140	-1.700	0.200																			1580059454.0	11.60	21.48
26/01/2020 17:24:15	26012020	260120	172415	101.230	12.215855	-56.258537	101.360	-0.160	0.100	0.190	101.250	-1.300	0.500																			1580059455.0	11.17	20.69
26/01/2020 17:24:16	26012020	260120	172416	101.250	12.215843	-56.258487	101.280	-0.230	-0.220	0.390	101.240	-1.400	0.700																			1580059456.0	10.57	19.58
26/01/2020 17:24:17	26012020	260120	172417	101.160	12.215830	-56.258435	101.190	-0.150	-0.690	0.660	101.140	-1.900	0.900																			1580059457.0	10.73	19.87
26/01/2020 17:24:18	26012020	260120	172418	101.070	12.215817	-56.258382	101.150	-0.100	-0.790	0.790	101.060	-2.200	1.100																			1580059458.0	11.40	21.11
26/01/2020 17:24:19	26012020	260120	172419	101.040	12.215805	-56.258330	101.150	-0.150	-0.460	0.670	101.040	-2.000	1.100																			1580059459.0	11.57	21.43
26/01/2020 17:24:20	26012020	260120	172420	101.040	12.215795	-56.258280	101.140	-0.260	-0.030	0.530	101.040	-1.600	0.900																			1580059460.0	11.18	20.71
26/01/2020 17:24:21	26012020	260120	172421	101.040	12.215783	-56.258230	101.100	-0.270	0.080	0.310	101.030	-1.300	0.700																			1580059461.0	10.80	20.00
26/01/2020 17:24:22	26012020	260120	172422	101.000	12.215773	-56.258180	101.080	-0.020	-0.190	0.050	101.000	-1.300	0.700																			1580059462.0	10.72	19.85
26/01/2020 17:24:23	26012020	260120	172423	100.990	12.215762	-56.258125	101.110	0.320	-0.420	-0.110	101.000	-1.800	0.300																			1580059463.0	11.12	20.59
26/01/2020 17:24:24	26012020	260120	172424	101.050	12.215752	-56.258073	101.260	0.430	-0.200	-0.220	101.050	-1.800	0.200																			1580059464.0	11.55	21.39
26/01/2020 17:24:25	26012020	260120	172425	101.210	12.215743	-56.258022	101.500	0.220	0.240	-0.220	101.250	-1.300	0.100																			1580059465.0	11.47	21.24
26/01/2020 17:24:26	26012020	260120	172426	101.450	12.215733	-56.257973	101.670	-0.010	0.300	-0.050	101.490	-1.000	0.200																			1580059466.0	10.86	20.11
26/01/2020 17:24:27	26012020	260120	172427	101.600	12.215722	-56.257923	101.640	0.020	-0.240	0.270	101.600	-1.400	0.500																			1580059467.0	10.50	19.45
26/01/2020 17:24:28	26012020	260120	172428	101.530	12.215708	-56.257870	101.490	0.130	-0.770	0.570	101.500	-2.000	0.800																			1580059468.0	10.91	20.21
26/01/2020 17:24:29	26012020	260120	172429	101.360	12.215695	-56.257817	101.350	0.120	-0.820	0.700	101.320	-2.200	1.000																			1580059469.0	11.56	21.41
26/01/2020 17:24:30	26012020	260120	172430	101.220	12.215685	-56.257767	101.270	-0.000	-0.530	0.600	101.200	-2.000	1.000																			1580059470.0	11.49	21.28
26/01/2020 17:24:31	26012020	260120	172431	101.140	12.215673	-56.257717	101.140	-0.180	-0.290	0.430	101.120	-1.700	0.800																			1580059471.0	11.00	20.37
26/01/2020 17:24:32	26012020	260120	172432	101.030	12.215662	-56.257667	101.020	-0.330	-0.200	0.270	101.000	-1.600	0.700																			1580059472.0	10.77	19.95
26/01/2020 17:24:33	26012020	260120	172433	100.920	12.215650	-56.257615	100.980	-0.380	-0.030	0.150	100.910	-1.500	0.500																			1580059473.0	10.95	20.28
26/01/2020 17:24:34	26012020	260120	172434	100.890	12.215638	-56.257565	100.960	-0.280	0.140	0.030	100.890	-1.400	0.500																			1580059474.0	11.14	20.63
26/01/2020 17:24:35	26012020	260120	172435	100.880	12.215628	-56.257515	100.940	0.010	-0.110	-0.040	100.880	-1.400	0.300																			1580059475.0	10.97	20.32
26/01/2020 17:24:36	26012020	260120	172436	100.870	12.215617	-56.257462	101.010	0.350	-0.570	-0.000	100.870	-1.800	0.300																			1580059476.0	10.96	20.30
26/01/2020 17:24:37	26012020	260120	172437	100.940	12.215605	-56.257407	101.090	0.460	-0.600	0.200	100.950	-2.000	0.500																			1580059477.0	11.47	21.24
26/01/2020 17:24:38	26012020	260120	172438	101.000	12.215593	-56.257357	101.090	0.290	-0.150	0.470	101.010	-1.700	0.700																			1580059478.0	11.65	21.58
26/01/2020 17:24:39	26012020	260120	172439	100.990	12.215582	-56.257308	101.030	0.040	0.230	0.670	100.980	-1.200	1.000																			1580059479.0	11.11	20.58
26/01/2020 17:24:40	26012020	260120	172440	100.930	12.215572	-56.257258	101.000	-0.100	0.030	0.680	100.920	-1.200	1.100																			1580059480.0	10.56	19.56
26/01/2020 17:24:41	26012020	260120	172441	100.920	12.215562	-56.257207	101.010	-0.150	-0.400	0.560	100.920	-1.700	0.900																			1580059481.0	10.67	19.76
26/01/2020 17:24:42	26012020	260120	172442	100.910	12.215550	-56.257153	100.910	-0.220	-0.520	0.520	100.900	-1.900	0.900																			1580059482.0	11.29	20.91
26/01/2020 17:24:43	26012020	260120	172443	100.810	12.215538	-56.257102	100.740	-0.290	-0.350	0.480	100.770	-1.800	0.900																			1580059483.0	11.46	21.22
26/01/2020 17:24:44	26012020	260120	172444	100.650	12.215528	-56.257052	100.650	-0.230	-0.330	0.300	100.620	-1.700	0.700																			1580059484.0	11.08	20.52
26/01/2020 17:24:45	26012020	260120	172445	100.570	12.215517	-56.257002	100.570	0.030	-0.640	0.190	100.550	-1.900	0.600																			1580059485.0	10.80	20.00
26/01/2020 17:24:46	26012020	260120	172446	100.480	12.215505	-56.256947	100.420	0.280	-0.740	0.220	100.480	-2.000	0.500																			1580059486.0	11.11	20.58
26/01/2020 17:24:47	26012020	260120	172447	100.330	12.215493	-56.256895	100.310	0.280	-0.190	0.310	100.300	-1.800	0.600																			1580059487.0	11.60	21.48
26/01/2020 17:24:48	26012020	260120	172448	100.210	12.215483	-56.256845	100.250	0.120	0.410	0.450	100.200	-1.100	0.800																			1580059488.0	11.38	21.08
26/01/2020 17:24:49	26012020	260120	172449	100.170	12.215473	-56.256797	100.330	0.060	0.390	0.400	100.170	-0.900	0.800																			1580059489.0	10.64	19.71
26/01/2020 17:24:50	26012020	260120	172450	100.270	12.215463	-56.256745	100.530	0.140	-0.100	0.250	100.310	-1.300	0.600																			1580059490.0	10.57	19.58
26/01/2020 17:24:51	26012020	260120	172451	100.480	12.215455	-56.256690	100.810	0.150	-0.340	0.250	100.540	-1.700	0.600																			1580059491.0	11.23	20.80
26/01/2020 17:24:52	26012020	260120	172452	100.770	12.215445	-56.256638	101.090	-0.090	-0.110	0.470	100.830	-1.600	0.700																			1580059492.0	11.60	21.48
26/01/2020 17:24:53	26012020	260120	172453	101.030	12.215433	-56.256590	101.140	-0.390	-0.040	0.830	101.060	-1.400	1.000																			1580059493.0	11.14	20.63
26/01/2020 17:24:54	26012020	260120	172454	101.050	12.215420	-56.256542	100.920	-0.410	-0.540	1.130	101.010	-1.700	1.400																			1580059494.0	10.54	19.52
26/01/2020 17:24:55	26012020	260120	172455	100.790	12.215407	-56.256488	100.580	-0.100	-1.160	1.060	100.720	-2.400	1.500																			1580059495.0	10.76	19.93
26/01/2020 17:24:56	26012020	260120	172456	100.470	12.215395	-56.256435	100.390	0.230	-1.160	0.680	100.420	-2.600	1.200																			1580059496.0	11.50	21.30
26/01/2020 17:24:57	26012020	260120	172457	100.310	12.215385	-56.256382	100.390	0.250	-0.480	0.230	100.290	-2.200	0.700																			1580059497.0	11.73	21.72
26/01/2020 17:24:58	26012020	260120	172458	100.320	12.215377	-56.256333	100.410	0.020	0.290	-0.070	100.330	-1.300	0.400																			1580059498.0	11.21	20.76
26/01/2020 17:24:59	26012020	260120	172459	100.340	12.215368	-56.256285	100.380	-0.150	0.450	-0.190	100.330	-0.900	0.200	1014.70	26.20	26.30	20.00	20.10	862.00	68.00	68.00	375.00	29.20	355.00	9.80	89.00	4.10	62125	3226.00	27.60	27.60	1580059499.0	10.53	19.50
26/01/2020 17:25:00	26012020	260120	172500	100.300	12.215360	-56.256232	100.330	-0.000	-0.000	-0.100	100.290	-1.200	0.200																			1580059500.0	10.50	19.45
26/01/2020 17:25:01	26012020	260120	172501	100.260	12.215348	-56.256178	100.380	0.220	-0.370	0.040	100.260	-1.700	0.400																			1580059501.0	11.16	20.67
26/01/2020 17:25:02	26012020	260120	172502	100.320	12.215338	-56.256125	100.540	0.180	-0.240	0.080	100.340	-1.700	0.400																			1580059502.0	11.77	21.80
26/01/2020 17:25:03	26012020	260120	172503	100.470	12.215328	-56.256073	100.650	-0.110	0.080	0.170	100.490	-1.400	0.500																			1580059503.0	11.54	21.37
26/01/2020 17:25:04	26012020	260120	172504	100.570	12.215317	-56.256025	100.680	-0.350	0.120	0.300	100.590	-1.200	0.600																			1580059504.0	10.87	20.13
26/01/2020 17:25:05	26012020	260120	172505	100.580	12.215305	-56.255975	100.650	-0.340	-0.270	0.320	100.570	-1.500	0.700																			1580059505.0	10.61	19.65
26/01/2020 17:25:06	26012020	260120	172506	100.550	12.215295	-56.255922	100.670	-0.140	-0.640	0.200	100.550	-1.900	0.600																			1580059506.0	10.94	20.26
26/01/2020 17:25:07	26012020	260120	172507	100.590	12.215283	-56.255870	100.740	0.040	-0.630	0.060	100.610	-2.100	0.500																			1580059507.0	11.38	21.08
26/01/2020 17:25:08	26012020	260120	172508	100.650	12.215273	-56.255820	100.600	0.110	-0.390	-0.020	100.640	-1.900	0.400																			1580059508.0	11.35	21.02
26/01/2020 17:25:09	26012020	260120	172509	100.490	12.215262	-56.255770	100.270	0.160	-0.310	0.020	100.430	-1.700	0.300																			1580059509.0	10.92	20.22
26/01/2020 17:25:10	26012020	260120	172510	100.230	12.215252	-56.255718	100.050	0.200	-0.340	0.110	100.160	-1.700	0.400																			1580059510.0	10.80	20.00
26/01/2020 17:25:11	26012020	260120	172511	99.960	12.215242	-56.255667	100.040	0.170	-0.270	0.130	99.940	-1.700	0.500																			1580059511.0	11.05	20.46
26/01/2020 17:25:12	26012020	260120	172512	99.950	12.215232	-56.255615	100.100	0.020	-0.060	0.130	99.950	-1.700	0.500																			1580059512.0	11.22	20.78
26/01/2020 17:25:13	26012020	260120	172513	100.000	12.215222	-56.255565	100.040	-0.140	-0.060	0.290	100.000	-1.400	0.600																			1580059513.0	11.05	20.46
26/01/2020 17:25:14	26012020	260120	172514	99.930	12.215210	-56.255513	99.860	-0.120	-0.320	0.600	99.930	-1.400	0.600																			1580059514.0	10.89	20.17
26/01/2020 17:25:15	26012020	260120	172515	99.740	12.215198	-56.255460	99.800	-0.020	-0.470	0.790	99.720	-1.800	1.100																			1580059515.0	11.15	20.65
26/01/2020 17:25:16	26012020	260120	172516	99.690	12.215187	-56.255408	99.840	0.050	-0.400	0.810	99.690	-1.800	1.200																			1580059516.0	11.48	21.26
26/01/2020 17:25:17	26012020	260120	172517	99.730	12.215177	-56.255357	99.850	0.050	-0.250	0.660	99.740	-1.700	1.100																			1580059517.0	11.32	20.96
26/01/2020 17:25:18	26012020	260120	172518	99.740	12.215167	-56.255305	99.800	-0.050	-0.010	0.520	99.730	-1.500	0.900																			1580059518.0	11.10	20.56
26/01/2020 17:25:19	26012020	260120	172519	99.700	12.215158	-56.255255	99.790	-0.220	0.200	0.440	99.700	-1.200	0.800																			1580059519.0	11.03	20.43
26/01/2020 17:25:20	26012020	260120	172520	99.720	12.215148	-56.255205	99.940	-0.260	0.010	0.300	99.730	-1.300	0.700																			1580059520.0	10.85	20.09
26/01/2020 17:25:21	26012020	260120	172521	99.870	12.215138	-56.255152	100.150	-0.070	-0.440	0.130	99.910	-1.700	0.500																			1580059521.0	10.83	20.06
26/01/2020 17:25:22	26012020	260120	172522	100.090	12.215128	-56.255098	100.260	0.170	-0.680	0.150	100.130	-2.000	0.500																			1580059522.0	11.22	20.78
26/01/2020 17:25:23	26012020	260120	172523	100.170	12.215118	-56.255047	100.140	0.240	-0.480	0.330	100.160	-2.000	0.600																			1580059523.0	11.51	21.32
26/01/2020 17:25:24	26012020	260120	172524	100.030	12.215107	-56.254997	99.950	0.170	-0.190	0.370	99.980	-1.600	0.700																			1580059524.0	11.25	20.84
26/01/2020 17:25:25	26012020	260120	172525	99.840	12.215098	-56.254947	99.930	0.140	-0.240	0.280	99.830	-1.600	0.700																			1580059525.0	10.77	19.95
26/01/2020 17:25:26	26012020	260120	172526	99.840	12.215090	-56.254895	100.060	0.140	-0.450	0.210	99.840	-1.600	0.600																			1580059526.0	10.76	19.93
26/01/2020 17:25:27	26012020	260120	172527	99.980	12.215080	-56.254842	100.090	-0.030	-0.330	0.240	99.990	-1.800	0.600																			1580059527.0	11.26	20.85
26/01/2020 17:25:28	26012020	260120	172528	99.980	12.215070	-56.254790	99.950	-0.290	0.020	0.400	99.980	-1.700	0.600																			1580059528.0	11.43	21.17
26/01/2020 17:25:29	26012020	260120	172529	99.830	12.215058	-56.254742	99.890	-0.380	0.110	0.470	99.810	-1.300	0.800																			1580059529.0	10.99	20.35
26/01/2020 17:25:30	26012020	260120	172530	99.790	12.215047	-56.254690	99.970	-0.180	-0.210	0.320	99.810	-1.500	0.700																			1580059530.0	10.73	19.87
26/01/2020 17:25:31	26012020	260120	172531	99.880	12.215037	-56.254637	99.980	0.160	-0.550	0.070	99.890	-1.900	0.500																			1580059531.0	11.06	20.48
26/01/2020 17:25:32	26012020	260120	172532	99.900	12.215028	-56.254583	100.000	0.330	-0.420	-0.180	99.900	-1.900	0.300																			1580059532.0	11.48	21.26
26/01/2020 17:25:33	26012020	260120	172533	99.940	12.215022	-56.254532	100.190	0.220	-0.020	-0.270	99.970	-1.500	0.100																			1580059533.0	11.46	21.22
26/01/2020 17:25:34	26012020	260120	172534	100.120	12.215013	-56.254483	100.430	-0.020	0.070	-0.200	100.170	-1.300	0.100																			1580059534.0	10.91	20.21
26/01/2020 17:25:35	26012020	260120	172535	100.350	12.215003	-56.254432	100.510	-0.150	-0.240	0.050	100.380	-1.500	0.300																			1580059535.0	10.60	19.63
26/01/2020 17:25:36	26012020	260120	172536	100.410	12.214992	-56.254380	100.380	-0.110	-0.640	0.390	100.410	-1.600	0.400																			1580059536.0	10.91	20.21
26/01/2020 17:25:37	26012020	260120	172537	100.260	12.214978	-56.254327	100.210	-0.000	-0.750	0.620	100.220	-2.100	0.900																			1580059537.0	11.37	21.06
26/01/2020 17:25:38	26012020	260120	172538	100.080	12.214967	-56.254275	100.080	0.000	-0.550	0.560	100.080	-2.100	1.000																			1580059538.0	11.48	21.26
26/01/2020 17:25:39	26012020	260120	172539	99.960	12.214957	-56.254225	99.970	-0.060	-0.290	0.300	99.940	-1.800	0.700																			1580059539.0	11.22	20.78
26/01/2020 17:25:40	26012020	260120	172540	99.880	12.214948	-56.254173	99.950	-0.080	-0.080	0.140	99.870	-1.500	0.500																			1580059540.0	10.99	20.35
26/01/2020 17:25:41	26012020	260120	172541	99.870	12.214938	-56.254122	100.040	-0.080	0.070	-0.000	99.880	-1.400	0.400																			1580059541.0	11.01	20.39
26/01/2020 17:25:42	26012020	260120	172542	99.980	12.214928	-56.254070	100.210	-0.090	0.150	-0.120	99.980	-1.300	0.400																			1580059542.0	11.12	20.59
26/01/2020 17:25:43	26012020	260120	172543	100.140	12.214918	-56.254018	100.400	-0.070	0.120	-0.170	100.170	-1.200	0.200																			1580059543.0	11.11	20.58
26/01/2020 17:25:44	26012020	260120	172544	100.330	12.214908	-56.253967	100.600	0.000	0.010	-0.110	100.370	-1.300	0.200																			1580059544.0	11.09	20.54
26/01/2020 17:25:45	26012020	260120	172545	100.530	12.214898	-56.253917	100.740	0.070	-0.190	0.080	100.560	-1.500	0.400																			1580059545.0	11.10	20.56
26/01/2020 17:25:46	26012020	260120	172546	100.670	12.214888	-56.253865	100.790	0.160	-0.450	0.300	100.680	-1.700	0.600																			1580059546.0	11.08	20.52
26/01/2020 17:25:47	26012020	260120	172547	100.710	12.214877	-56.253813	100.700	0.280	-0.700	0.430	100.700	-2.000	0.800																			1580059547.0	11.08	20.52
26/01/2020 17:25:48	26012020	260120	172548	100.650	12.214867	-56.253762	100.510	0.380	-0.890	0.420	100.620	-2.100	0.800																			1580059548.0	11.13	20.61
26/01/2020 17:25:49	26012020	260120	172549	100.420	12.214857	-56.253708	100.270	0.320	-0.830	0.350	100.370	-2.300	0.700																			1580059549.0	11.22	20.78
26/01/2020 17:25:50	26012020	260120	172550	100.170	12.214847	-56.253657	100.110	0.010	-0.370	0.260	100.170	-2.200	0.700																			1580059550.0	11.32	20.96
26/01/2020 17:25:51	26012020	260120	172551	100.020	12.214838	-56.253607	100.060	-0.390	0.110	0.220	100.000	-1.400	0.600																			1580059551.0	11.17	20.69
26/01/2020 17:25:52	26012020	260120	172552	99.980	12.214828	-56.253557	100.070	-0.600	0.170	0.170	99.980	-1.200	0.500																			1580059552.0	10.80	20.00
26/01/2020 17:25:53	26012020	260120	172553	99.980	12.214817	-56.253505	100.080	-0.440	-0.140	0.180	99.980	-1.400	0.500																			1580059553.0	10.82	20.04
26/01/2020 17:25:54	26012020	260120	172554	100.000	12.214803	-56.253450	100.230	-0.110	-0.300	0.210	100.030	-1.700	0.600																			1580059554.0	11.32	20.96
26/01/2020 17:25:55	26012020	260120	172555	100.170	12.214792	-56.253398	100.470	0.070	-0.060	0.100	100.220	-1.600	0.500																			1580059555.0	11.71	21.69
26/01/2020 17:25:56	26012020	260120	172556	100.420	12.214782	-56.253348	100.670	0.050	0.250	-0.060	100.460	-1.200	0.300																			1580059556.0	11.44	21.19
26/01/2020 17:25:57	26012020	260120	172557	100.610	12.214772	-56.253298	100.830	0.050	0.220	-0.170	100.650	-1.100	0.200																			1580059557.0	10.86	20.11
26/01/2020 17:25:58	26012020	260120	172558	100.770	12.214763	-56.253247	101.010	0.190	-0.210	-0.270	100.810	-1.400	0.100																			1580059558.0	10.69	19.80
26/01/2020 17:25:59	26012020	260120	172559	100.950	12.214753	-56.253193	101.110	0.430	-0.720	-0.230	100.990	-1.900	0.100	1014.70	26.20	26.30	19.90	20.00	858.00	68.00	68.00	375.00	29.20	356.00	9.90	91.00	4.20	61868	3520.00	27.70	27.60	1580059559.0	10.99	20.35
26/01/2020 17:26:00	26012020	260120	172600	101.030	12.214743	-56.253140	100.980	0.560	-0.870	0.020	101.010	-2.300	0.300																			1580059560.0	11.37	21.06
26/01/2020 17:26:01	26012020	260120	172601	100.880	12.214733	-56.253088	100.780	0.420	-0.610	0.360	100.840	-2.100	0.600																			1580059561.0	11.47	21.24
26/01/2020 17:26:02	26012020	260120	172602	100.670	12.214722	-56.253040	100.620	0.050	-0.270	0.600	100.670	-2.000	0.700																			1580059562.0	11.12	20.59
26/01/2020 17:26:03	26012020	260120	172603	100.510	12.214712	-56.252990	100.530	-0.320	-0.170	0.570	100.480	-1.600	1.000																			1580059563.0	10.77	19.95
26/01/2020 17:26:04	26012020	260120	172604	100.430	12.214700	-56.252938	100.480	-0.540	-0.290	0.490	100.430	-1.600	0.900																			1580059564.0	10.81	20.02
26/01/2020 17:26:05	26012020	260120	172605	100.370	12.214688	-56.252885	100.420	-0.540	-0.340	0.500	100.360	-1.700	0.800																			1580059565.0	11.15	20.65
26/01/2020 17:26:06	26012020	260120	172606	100.310	12.214677	-56.252833	100.380	-0.300	-0.340	0.460	100.290	-1.700	0.800																			1580059566.0	11.39	21.09
26/01/2020 17:26:07	26012020	260120	172607	100.280	12.214665	-56.252782	100.440	0.030	-0.340	0.350	100.290	-1.700	0.700																			1580059567.0	11.34	21.00
26/01/2020 17:26:08	26012020	260120	172608	100.350	12.214653	-56.252728	100.520	0.190	-0.170	0.190	100.370	-1.600	0.600																			1580059568.0	11.36	21.04
26/01/2020 17:26:09	26012020	260120	172609	100.450	12.214643	-56.252677	100.570	0.140	0.120	-0.060	100.470	-1.400	0.400																			1580059569.0	11.37	21.06
26/01/2020 17:26:10	26012020	260120	172610	100.500	12.214633	-56.252627	100.580	0.140	0.190	-0.240	100.510	-1.200	0.200																			1580059570.0	11.11	20.58
26/01/2020 17:26:11	26012020	260120	172611	100.540	12.214625	-56.252575	100.720	0.280	-0.050	-0.320	100.560	-1.400	0.000																			1580059571.0	10.85	20.09
26/01/2020 17:26:12	26012020	260120	172612	100.670	12.214617	-56.252522	100.890	0.310	-0.210	-0.240	100.710	-1.600	0.100																			1580059572.0	11.10	20.56
26/01/2020 17:26:13	26012020	260120	172613	100.840	12.214607	-56.252470	100.940	0.100	-0.100	0.030	100.860	-1.600	0.300																			1580059573.0	11.37	21.06
26/01/2020 17:26:14	26012020	260120	172614	100.870	12.214595	-56.252422	100.870	-0.210	-0.020	0.380	100.860	-1.400	0.600																			1580059574.0	11.12	20.59
26/01/2020 17:26:15	26012020	260120	172615	100.770	12.214583	-56.252372	100.760	-0.350	-0.350	0.680	100.750	-1.600	0.900																			1580059575.0	10.71	19.83
26/01/2020 17:26:16	26012020	260120	172616	100.660	12.214572	-56.252320	100.660	-0.200	-0.980	0.760	100.640	-2.100	1.100																			1580059576.0	10.73	19.87
26/01/2020 17:26:17	26012020	260120	172617	100.560	12.214558	-56.252267	100.510	0.120	-1.320	0.640	100.530	-2.700	1.000																			1580059577.0	11.27	20.87
26/01/2020 17:26:18	26012020	260120	172618	100.400	12.214548	-56.252212	100.350	0.340	-1.020	0.490	100.370	-2.600	0.900																			1580059578.0	11.70	21.67
26/01/2020 17:26:19	26012020	260120	172619	100.240	12.214538	-56.252162	100.240	0.270	-0.250	0.310	100.210	-1.900	0.700																			1580059579.0	11.59	21.46
26/01/2020 17:26:20	26012020	260120	172620	100.160	12.214528	-56.252112	100.250	0.040	0.430	0.020	100.160	-1.100	0.500																			1580059580.0	11.05	20.46
26/01/2020 17:26:21	26012020	260120	172621	100.180	12.214520	-56.252062	100.370	-0.150	0.650	-0.260	100.210	-0.800	0.200																			1580059581.0	10.65	19.72
26/01/2020 17:26:22	26012020	260120	172622	100.330	12.214510	-56.252010	100.540	-0.190	0.340	-0.310	100.360	-0.900	0.000																			1580059582.0	10.73	19.87
26/01/2020 17:26:23	26012020	260120	172623	100.490	12.214500	-56.251957	100.630	-0.100	-0.160	-0.100	100.510	-1.400	0.200																			1580059583.0	11.14	20.63
26/01/2020 17:26:24	26012020	260120	172624	100.570	12.214490	-56.251903	100.690	-0.000	-0.390	0.150	100.590	-1.800	0.400																			1580059584.0	11.53	21.35
26/01/2020 17:26:25	26012020	260120	172625	100.620	12.214478	-56.251852	100.760	0.020	-0.280	0.360	100.640	-1.700	0.600																			1580059585.0	11.60	21.48
26/01/2020 17:26:26	26012020	260120	172626	100.680	12.214467	-56.251802	100.790	-0.040	-0.190	0.450	100.680	-1.700	0.700																			1580059586.0	11.21	20.76
26/01/2020 17:26:27	26012020	260120	172627	100.710	12.214455	-56.251752	100.770	-0.040	-0.370	0.370	100.710	-1.700	0.800																			1580059587.0	10.80	20.00
26/01/2020 17:26:28	26012020	260120	172628	100.670	12.214445	-56.251700	100.700	0.040	-0.590	0.230	100.660	-1.900	0.600																			1580059588.0	10.86	20.11
26/01/2020 17:26:29	26012020	260120	172629	100.610	12.214435	-56.251647	100.670	0.100	-0.550	0.070	100.610	-2.000	0.500																			1580059589.0	11.22	20.78
26/01/2020 17:26:30	26012020	260120	172630	100.600	12.214425	-56.251595	100.590	0.060	-0.390	-0.020	100.590	-1.800	0.300																			1580059590.0	11.28	20.89
26/01/2020 17:26:31	26012020	260120	172631	100.510	12.214415	-56.251545	100.470	0.080	-0.420	0.040	100.490	-1.800	0.400																			1580059591.0	11.03	20.43
26/01/2020 17:26:32	26012020	260120	172632	100.380	12.214405	-56.251493	100.350	0.240	-0.660	0.180	100.350	-2.000	0.500																			1580059592.0	10.96	20.30
26/01/2020 17:26:33	26012020	260120	172633	100.260	12.214393	-56.251438	100.330	0.350	-0.620	0.250	100.250	-2.100	0.600																			1580059593.0	11.31	20.95
26/01/2020 17:26:34	26012020	260120	172634	100.260	12.214382	-56.251387	100.420	0.160	-0.010	0.270	100.270	-1.700	0.600																			1580059594.0	11.65	21.58
26/01/2020 17:26:35	26012020	260120	172635	100.350	12.214372	-56.251337	100.510	-0.270	0.790	0.270	100.370	-0.800	0.600																			1580059595.0	11.40	21.11
26/01/2020 17:26:36	26012020	260120	172636	100.440	12.214362	-56.251288	100.570	-0.580	0.860	0.320	100.450	-0.400	0.600																			1580059596.0	10.30	19.08
26/01/2020 17:26:37	26012020	260120	172637	100.490	12.214352	-56.251238	100.630	-0.470	-0.030	0.470	100.500	-1.000	0.800																			1580059597.0	10.30	19.08
26/01/2020 17:26:38	26012020	260120	172638	100.530	12.214340	-56.251183	100.660	-0.080	-1.010	0.560	100.540	-1.400	0.800																			1580059598.0	11.02	20.41
26/01/2020 17:26:39	26012020	260120	172639	100.570	12.214327	-56.251128	100.670	0.230	-1.120	0.560	100.570	-2.600	0.900																			1580059599.0	11.97	22.17
26/01/2020 17:26:40	26012020	260120	172640	100.560	12.214317	-56.251077	100.580	0.280	-0.520	0.570	100.560	-2.500	0.900																			1580059600.0	11.97	22.17
26/01/2020 17:26:41	26012020	260120	172641	100.470	12.214307	-56.251028	100.440	0.240	-0.090	0.530	100.450	-1.600	0.900																			1580059601.0	11.02	20.41
26/01/2020 17:26:42	26012020	260120	172642	100.350	12.214298	-56.250978	100.400	0.270	-0.150	0.380	100.330	-1.500	0.800																			1580059602.0	10.38	19.22
26/01/2020 17:26:43	26012020	260120	172643	100.320	12.214290	-56.250925	100.490	0.250	-0.290	0.210	100.340	-1.600	0.600																			1580059603.0	10.76	19.93
26/01/2020 17:26:44	26012020	260120	172644	100.440	12.214280	-56.250873	100.590	0.120	-0.240	0.120	100.460	-1.700	0.500																			1580059604.0	11.34	21.00
26/01/2020 17:26:45	26012020	260120	172645	100.510	12.214270	-56.250822	100.570	-0.050	-0.130	0.210	100.510	-1.500	0.500																			1580059605.0	11.36	21.04
26/01/2020 17:26:46	26012020	260120	172646	100.480	12.214260	-56.250770	100.570	-0.160	-0.120	0.310	100.480	-1.500	0.600																			1580059606.0	11.08	20.52
26/01/2020 17:26:47	26012020	260120	172647	100.500	12.214248	-56.250718	100.690	-0.250	-0.160	0.340	100.510	-1.500	0.700																			1580059607.0	11.03	20.43
26/01/2020 17:26:48	26012020	260120	172648	100.630	12.214238	-56.250667	100.910	-0.390	-0.090	0.350	100.670	-1.500	0.700																			1580059608.0	11.16	20.67
26/01/2020 17:26:49	26012020	260120	172649	100.840	12.214227	-56.250617	101.090	-0.460	-0.050	0.300	100.880	-1.400	0.700																			1580059609.0	11.15	20.65
26/01/2020 17:26:50	26012020	260120	172650	100.990	12.214215	-56.250567	101.050	-0.280	-0.340	0.220	101.000	-1.600	0.600																			1580059610.0	10.92	20.22
26/01/2020 17:26:51	26012020	260120	172651	100.950	12.214203	-56.250513	100.910	0.140	-0.840	0.240	100.920	-2.100	0.600																			1580059611.0	10.95	20.28
26/01/2020 17:26:52	26012020	260120	172652	100.810	12.214193	-56.250460	100.860	0.550	-1.000	0.210	100.810	-2.200	0.600																			1580059612.0	11.38	21.08
26/01/2020 17:26:53	26012020	260120	172653	100.770	12.214183	-56.250407	100.940	0.620	-0.500	-0.000	100.780	-2.100	0.400																			1580059613.0	11.71	21.69
26/01/2020 17:26:54	26012020	260120	172654	100.870	12.214175	-56.250357	101.040	0.320	0.230	-0.200	100.870	-1.900	0.400																			1580059614.0	11.43	21.17
26/01/2020 17:26:55	26012020	260120	172655	100.970	12.214167	-56.250307	101.050	-0.030	0.480	-0.120	100.970	-0.900	0.200																			1580059615.0	10.73	19.87
26/01/2020 17:26:56	26012020	260120	172656	100.970	12.214157	-56.250257	101.040	-0.160	0.150	0.090	100.960	-1.100	0.400																			1580059616.0	10.53	19.50
26/01/2020 17:26:57	26012020	260120	172657	100.940	12.214145	-56.250203	101.080	-0.110	-0.320	0.220	100.940	-1.600	0.500																			1580059617.0	11.01	20.39
26/01/2020 17:26:58	26012020	260120	172658	100.990	12.214133	-56.250150	101.260	-0.130	-0.390	0.310	101.020	-1.800	0.600																			1580059618.0	11.58	21.45
26/01/2020 17:26:59	26012020	260120	172659	101.180	12.214122	-56.250098	101.500	-0.320	-0.140	0.340	101.230	-1.600	0.700	1014.70	26.20	26.30	20.10	20.10	842.00	69.00	69.00	375.00	29.20	356.00	9.60	91.00	3.90	61131	3410.00	27.70	27.70	1580059619.0	11.62	21.52
26/01/2020 17:27:00	26012020	260120	172700	101.430	12.214110	-56.250050	101.630	-0.440	-0.090	0.220	101.460	-1.400	0.600																			1580059620.0	11.07	20.50
26/01/2020 17:27:01	26012020	260120	172701	101.530	12.214098	-56.250000	101.570	-0.250	-0.440	0.090	101.530	-1.700	0.500																			1580059621.0	10.65	19.72
26/01/2020 17:27:02	26012020	260120	172702	101.450	12.214087	-56.249947	101.500	0.070	-0.660	-0.120	101.430	-2.000	0.300																			1580059622.0	10.95	20.28
26/01/2020 17:27:03	26012020	260120	172703	101.390	12.214077	-56.249893	101.490	0.260	-0.530	-0.310	101.390	-2.000	0.100																			1580059623.0	11.43	21.17
26/01/2020 17:27:04	26012020	260120	172704	101.390	12.214067	-56.249843	101.400	0.250	-0.350	-0.360	101.390	-1.900	0.000																			1580059624.0	11.29	20.91
26/01/2020 17:27:05	26012020	260120	172705	101.310	12.214057	-56.249792	101.250	0.190	-0.370	-0.190	101.280	-1.700	0.100																			1580059625.0	10.95	20.28
26/01/2020 17:27:06	26012020	260120	172706	101.150	12.214045	-56.249740	101.160	0.110	-0.380	0.090	101.130	-1.800	0.400																			1580059626.0	11.00	20.37
26/01/2020 17:27:07	26012020	260120	172707	101.070	12.214033	-56.249688	101.140	0.040	-0.170	0.240	101.070	-1.600	0.600																			1580059627.0	11.33	20.98
26/01/2020 17:27:08	26012020	260120	172708	101.050	12.214022	-56.249637	101.140	-0.010	-0.020	0.250	101.050	-1.400	0.600																			1580059628.0	11.30	20.93
26/01/2020 17:27:09	26012020	260120	172709	101.050	12.214010	-56.249585	101.150	-0.020	-0.090	0.240	101.060	-1.400	0.600																			1580059629.0	11.06	20.48
26/01/2020 17:27:10	26012020	260120	172710	101.080	12.214000	-56.249533	101.210	-0.060	-0.150	0.240	101.090	-1.500	0.600																			1580059630.0	11.16	20.67
26/01/2020 17:27:11	26012020	260120	172711	101.120	12.213988	-56.249482	101.260	-0.140	-0.130	0.130	101.140	-1.500	0.500																			1580059631.0	11.36	21.04
26/01/2020 17:27:12	26012020	260120	172712	101.190	12.213977	-56.249430	101.290	-0.230	-0.090	0.030	101.200	-1.500	0.400																			1580059632.0	11.27	20.87
26/01/2020 17:27:13	26012020	260120	172713	101.220	12.213965	-56.249378	101.270	-0.270	-0.070	0.000	101.220	-1.500	0.400																			1580059633.0	11.15	20.65
26/01/2020 17:27:14	26012020	260120	172714	101.200	12.213953	-56.249328	101.240	-0.210	-0.140	-0.050	101.190	-1.500	0.300																			1580059634.0	11.07	20.50
26/01/2020 17:27:15	26012020	260120	172715	101.170	12.213942	-56.249277	101.240	-0.010	-0.350	-0.100	101.170	-1.700	0.300																			1580059635.0	11.01	20.39
26/01/2020 17:27:16	26012020	260120	172716	101.170	12.213932	-56.249225	101.180	0.220	-0.590	-0.100	101.170	-1.800	0.300																			1580059636.0	11.07	20.50
26/01/2020 17:27:17	26012020	260120	172717	101.110	12.213920	-56.249172	101.060	0.290	-0.610	-0.060	101.090	-2.000	0.300																			1580059637.0	11.26	20.85
26/01/2020 17:27:18	26012020	260120	172718	100.990	12.213910	-56.249122	100.930	0.180	-0.390	0.150	100.960	-1.900	0.400																			1580059638.0	11.34	21.00
26/01/2020 17:27:19	26012020	260120	172719	100.860	12.213898	-56.249070	100.810	0.050	-0.210	0.480	100.830	-1.600	0.700																			1580059639.0	11.11	20.58
26/01/2020 17:27:20	26012020	260120	172720	100.730	12.213887	-56.249020	100.670	0.020	-0.220	0.660	100.710	-1.600	1.000																			1580059640.0	10.90	20.19
26/01/2020 17:27:21	26012020	260120	172721	100.570	12.213875	-56.248968	100.510	0.110	-0.440	0.620	100.540	-1.700	1.000																			1580059641.0	11.02	20.41
26/01/2020 17:27:22	26012020	260120	172722	100.410	12.213863	-56.248915	100.430	0.200	-0.550	0.500	100.390	-1.900	0.900																			1580059642.0	11.30	20.93
26/01/2020 17:27:23	26012020	260120	172723	100.360	12.213853	-56.248862	100.510	0.120	-0.250	0.340	100.370	-1.800	0.700																			1580059643.0	11.61	21.50
26/01/2020 17:27:24	26012020	260120	172724	100.430	12.213843	-56.248810	100.590	-0.150	0.250	0.210	100.450	-1.300	0.600																			1580059644.0	11.51	21.32
26/01/2020 17:27:25	26012020	260120	172725	100.540	12.213833	-56.248760	100.790	-0.370	0.420	0.150	100.560	-1.000	0.500																			1580059645.0	11.01	20.39
26/01/2020 17:27:26	26012020	260120	172726	100.750	12.213822	-56.248710	101.100	-0.370	0.110	0.110	100.810	-1.100	0.500																			1580059646.0	10.71	19.83
26/01/2020 17:27:27	26012020	260120	172727	101.050	12.213810	-56.248657	101.290	-0.220	-0.290	0.100	101.100	-1.600	0.400																			1580059647.0	11.01	20.39
26/01/2020 17:27:28	26012020	260120	172728	101.200	12.213798	-56.248605	101.260	-0.050	-0.470	0.150	101.210	-1.700	0.400																			1580059648.0	11.41	21.13
26/01/2020 17:27:29	26012020	260120	172729	101.170	12.213787	-56.248553	101.130	0.090	-0.560	0.310	101.150	-1.900	0.600																			1580059649.0	11.36	21.04
26/01/2020 17:27:30	26012020	260120	172730	101.030	12.213777	-56.248502	100.920	0.260	-0.800	0.490	101.000	-2.100	0.800																			1580059650.0	11.08	20.52
26/01/2020 17:27:31	26012020	260120	172731	100.810	12.213767	-56.248450	100.630	0.390	-1.000	0.660	100.760	-2.400	1.000																			1580059651.0	11.06	20.48
26/01/2020 17:27:32	26012020	260120	172732	100.500	12.213755	-56.248397	100.350	0.310	-0.680	0.820	100.500	-2.400	1.000																			1580059652.0	11.44	21.19
26/01/2020 17:27:33	26012020	260120	172733	100.240	12.213743	-56.248345	100.260	-0.010	0.110	0.870	100.210	-1.600	1.200																			1580059653.0	11.55	21.39
26/01/2020 17:27:34	26012020	260120	172734	100.170	12.213733	-56.248297	100.390	-0.350	0.710	0.730	100.190	-0.800	1.100																			1580059654.0	11.06	20.48
26/01/2020 17:27:35	26012020	260120	172735	100.320	12.213722	-56.248247	100.570	-0.410	0.530	0.470	100.360	-0.700	0.900																			1580059655.0	10.57	19.58
26/01/2020 17:27:36	26012020	260120	172736	100.510	12.213712	-56.248193	100.690	-0.090	-0.200	0.220	100.550	-1.300	0.700																			1580059656.0	10.71	19.83
26/01/2020 17:27:37	26012020	260120	172737	100.640	12.213702	-56.248138	100.810	0.280	-0.620	0.030	100.660	-1.900	0.400																			1580059657.0	11.46	21.22
26/01/2020 17:27:38	26012020	260120	172738	100.760	12.213692	-56.248085	100.950	0.330	-0.390	-0.020	100.780	-1.900	0.300																			1580059658.0	11.96	22.15
26/01/2020 17:27:39	26012020	260120	172739	100.900	12.213682	-56.248035	101.100	0.040	0.020	0.020	100.940	-1.500	0.400																			1580059659.0	11.48	21.26
26/01/2020 17:27:40	26012020	260120	172740	101.050	12.213673	-56.247987	101.150	-0.260	-0.050	0.200	101.060	-1.300	0.500																			1580059660.0	10.68	19.78
26/01/2020 17:27:41	26012020	260120	172741	101.070	12.213662	-56.247937	100.990	-0.210	-0.700	0.500	101.050	-1.900	0.800																			1580059661.0	10.45	19.35
26/01/2020 17:27:42	26012020	260120	172742	100.880	12.213648	-56.247882	100.690	0.080	-1.180	0.700	100.880	-2.100	0.900																			1580059662.0	11.03	20.43
26/01/2020 17:27:43	26012020	260120	172743	100.560	12.213637	-56.247828	100.390	0.170	-0.920	0.710	100.500	-2.500	1.100																			1580059663.0	11.78	21.82
26/01/2020 17:27:44	26012020	260120	172744	100.270	12.213627	-56.247777	100.230	-0.000	-0.350	0.530	100.270	-2.300	1.100																			1580059664.0	11.67	21.61
26/01/2020 17:27:45	26012020	260120	172745	100.150	12.213617	-56.247727	100.230	-0.200	0.010	0.330	100.140	-1.500	0.700																			1580059665.0	10.99	20.35
26/01/2020 17:27:46	26012020	260120	172746	100.160	12.213607	-56.247675	100.250	-0.180	0.070	0.190	100.170	-1.300	0.600																			1580059666.0	10.79	19.98
26/01/2020 17:27:47	26012020	260120	172747	100.200	12.213595	-56.247622	100.240	-0.070	0.130	0.130	100.200	-1.300	0.500																			1580059667.0	11.14	20.63
26/01/2020 17:27:48	26012020	260120	172748	100.180	12.213585	-56.247570	100.280	-0.020	0.290	0.190	100.180	-1.200	0.500																			1580059668.0	11.47	21.24
26/01/2020 17:27:49	26012020	260120	172749	100.230	12.213573	-56.247518	100.430	-0.010	0.370	0.280	100.260	-1.000	0.600																			1580059669.0	11.35	21.02
26/01/2020 17:27:50	26012020	260120	172750	100.390	12.213563	-56.247468	100.630	0.030	0.190	0.230	100.430	-1.100	0.600																			1580059670.0	11.06	20.48
26/01/2020 17:27:51	26012020	260120	172751	100.600	12.213553	-56.247417	100.810	0.120	-0.130	0.160	100.640	-1.400	0.500																			1580059671.0	10.99	20.35
26/01/2020 17:27:52	26012020	260120	172752	100.760	12.213543	-56.247365	100.870	0.260	-0.540	0.250	100.770	-1.800	0.500																			1580059672.0	11.10	20.56
26/01/2020 17:27:53	26012020	260120	172753	100.790	12.213533	-56.247312	100.830	0.380	-0.910	0.490	100.790	-2.200	0.800																			1580059673.0	11.14	20.63
26/01/2020 17:27:54	26012020	260120	172754	100.730	12.213523	-56.247260	100.730	0.290	-0.910	0.610	100.730	-2.300	0.800																			1580059674.0	11.24	20.82
26/01/2020 17:27:55	26012020	260120	172755	100.630	12.213513	-56.247210	100.610	-0.050	-0.610	0.660	100.600	-2.100	1.000																			1580059675.0	11.29	20.91
26/01/2020 17:27:56	26012020	260120	172756	100.500	12.213503	-56.247160	100.410	-0.310	-0.530	0.710	100.470	-1.900	1.000																			1580059676.0	10.95	20.28
26/01/2020 17:27:57	26012020	260120	172757	100.290	12.213492	-56.247108	100.140	-0.260	-0.820	0.680	100.240	-2.100	1.100																			1580059677.0	10.73	19.87
26/01/2020 17:27:58	26012020	260120	172758	100.030	12.213480	-56.247053	99.920	-0.100	-0.840	0.520	99.980	-2.300	0.900																			1580059678.0	11.22	20.78
26/01/2020 17:27:59	26012020	260120	172759	99.810	12.213468	-56.247000	99.810	-0.120	-0.190	0.240	99.780	-1.900	0.700	1014.70	26.20	26.30	20.10	20.10	832.00	69.00	69.00	375.00	29.20	356.00	9.60	91.00	3.90	60598	3354.00	27.70	27.70	1580059679.0	11.86	21.96
26/01/2020 17:28:00	26012020	260120	172800	99.720	12.213458	-56.246948	99.870	-0.290	0.620	-0.120	99.720	-1.000	0.400																			1580059680.0	11.63	21.54
26/01/2020 17:28:01	26012020	260120	172801	99.790	12.213450	-56.246900	100.050	-0.360	0.900	-0.330	99.830	-0.500	0.100																			1580059681.0	10.88	20.15
26/01/2020 17:28:02	26012020	260120	172802	99.990	12.213440	-56.246848	100.300	-0.190	0.520	-0.370	100.040	-0.700	-0.000																			1580059682.0	10.66	19.74
26/01/2020 17:28:03	26012020	260120	172803	100.260	12.213430	-56.246793	100.590	0.090	-0.040	-0.270	100.320	-1.300	0.000																			1580059683.0	11.12	20.59
26/01/2020 17:28:04	26012020	260120	172804	100.540	12.213420	-56.246740	100.820	0.270	-0.280	0.020	100.600	-1.600	0.300																			1580059684.0	11.62	21.52
26/01/2020 17:28:05	26012020	260120	172805	100.760	12.213408	-56.246690	100.900	0.280	-0.230	0.290	100.790	-1.600	0.600																			1580059685.0	11.56	21.41
26/01/2020 17:28:06	26012020	260120	172806	100.820	12.213398	-56.246640	100.820	0.280	-0.410	0.380	100.820	-1.600	0.600																			1580059686.0	11.01	20.39
26/01/2020 17:28:07	26012020	260120	172807	100.750	12.213388	-56.246588	100.690	0.400	-0.900	0.360	100.720	-2.100	0.700																			1580059687.0	10.66	19.74
26/01/2020 17:28:08	26012020	260120	172808	100.620	12.213378	-56.246535	100.620	0.430	-1.070	0.250	100.620	-2.300	0.700																			1580059688.0	11.00	20.37
26/01/2020 17:28:09	26012020	260120	172809	100.550	12.213370	-56.246483	100.520	0.120	-0.630	0.250	100.530	-2.200	0.600																			1580059689.0	11.48	21.26
26/01/2020 17:28:10	26012020	260120	172810	100.430	12.213360	-56.246435	100.260	-0.250	-0.260	0.420	100.390	-1.700	0.700																			1580059690.0	11.18	20.71
26/01/2020 17:28:11	26012020	260120	172811	100.170	12.213348	-56.246385	100.010	-0.270	-0.490	0.600	100.110	-1.800	0.900																			1580059691.0	10.59	19.61
26/01/2020 17:28:12	26012020	260120	172812	99.920	12.213335	-56.246330	99.840	-0.060	-0.770	0.710	99.880	-2.100	1.000																			1580059692.0	10.89	20.17
26/01/2020 17:28:13	26012020	260120	172813	99.770	12.213323	-56.246275	99.830	-0.030	-0.350	0.670	99.750	-2.000	1.000																			1580059693.0	11.78	21.82
26/01/2020 17:28:14	26012020	260120	172814	99.770	12.213313	-56.246225	100.000	-0.280	0.510	0.520	99.790	-1.200	0.900																			1580059694.0	11.87	21.98
26/01/2020 17:28:15	26012020	260120	172815	99.950	12.213303	-56.246177	100.260	-0.540	0.920	0.330	100.000	-0.500	0.800																			1580059695.0	11.02	20.41
26/01/2020 17:28:16	26012020	260120	172816	100.220	12.213293	-56.246125	100.500	-0.500	0.500	0.100	100.270	-0.700	0.500																			1580059696.0	10.46	19.37
26/01/2020 17:28:17	26012020	260120	172817	100.470	12.213283	-56.246072	100.750	-0.160	-0.220	-0.080	100.510	-1.400	0.300																			1580059697.0	10.85	20.09
26/01/2020 17:28:18	26012020	260120	172818	100.660	12.213273	-56.246017	100.940	0.250	-0.560	-0.120	100.710	-1.600	0.300																			1580059698.0	11.59	21.46
26/01/2020 17:28:19	26012020	260120	172819	100.880	12.213263	-56.245965	101.030	0.480	-0.500	-0.040	100.900	-1.900	0.300																			1580059699.0	11.73	21.72
26/01/2020 17:28:20	26012020	260120	172820	100.950	12.213253	-56.245915	101.030	0.510	-0.430	0.070	100.950	-1.900	0.300																			1580059700.0	11.19	20.72
26/01/2020 17:28:21	26012020	260120	172821	100.970	12.213243	-56.245865	100.980	0.480	-0.520	0.170	100.950	-1.900	0.500																			1580059701.0	10.77	19.95
26/01/2020 17:28:22	26012020	260120	172822	100.890	12.213235	-56.245813	100.870	0.460	-0.710	0.280	100.880	-2.000	0.600																			1580059702.0	10.81	20.02
26/01/2020 17:28:23	26012020	260120	172823	100.780	12.213225	-56.245762	100.770	0.360	-0.770	0.460	100.760	-2.200	0.700																			1580059703.0	11.10	20.56
26/01/2020 17:28:24	26012020	260120	172824	100.670	12.213213	-56.245708	100.710	0.020	-0.420	0.680	100.650	-2.000	1.000																			1580059704.0	11.34	21.00
26/01/2020 17:28:25	26012020	260120	172825	100.610	12.213202	-56.245658	100.680	-0.490	0.130	0.810	100.600	-1.400	1.100																			1580059705.0	11.31	20.95
26/01/2020 17:28:26	26012020	260120	172826	100.590	12.213190	-56.245610	100.700	-0.780	0.300	0.830	100.590	-1.100	1.200																			1580059706.0	10.87	20.13
26/01/2020 17:28:27	26012020	260120	172827	100.600	12.213178	-56.245558	100.700	-0.620	-0.040	0.690	100.610	-1.300	1.100																			1580059707.0	10.66	19.74
26/01/2020 17:28:28	26012020	260120	172828	100.630	12.213167	-56.245505	100.700	-0.170	-0.520	0.340	100.630	-1.800	0.800																			1580059708.0	11.07	20.50
26/01/2020 17:28:29	26012020	260120	172829	100.620	12.213157	-56.245450	100.620	0.200	-0.720	0.020	100.610	-2.100	0.500																			1580059709.0	11.61	21.50
26/01/2020 17:28:30	26012020	260120	172830	100.550	12.213147	-56.245397	100.600	0.280	-0.400	-0.120	100.540	-2.000	0.300																			1580059710.0	11.77	21.80
26/01/2020 17:28:31	26012020	260120	172831	100.550	12.213137	-56.245347	100.710	0.120	0.160	-0.160	100.560	-1.400	0.200																			1580059711.0	11.46	21.22
26/01/2020 17:28:32	26012020	260120	172832	100.670	12.213128	-56.245298	100.810	-0.010	0.330	-0.130	100.670	-1.200	0.200																			1580059712.0	10.85	20.09
26/01/2020 17:28:33	26012020	260120	172833	100.750	12.213118	-56.245247	100.780	0.070	-0.030	-0.000	100.740	-1.300	0.300																			1580059713.0	10.59	19.61
26/01/2020 17:28:34	26012020	260120	172834	100.710	12.213107	-56.245193	100.790	0.240	-0.460	0.230	100.700	-1.700	0.500																			1580059714.0	11.02	20.41
26/01/2020 17:28:35	26012020	260120	172835	100.740	12.213095	-56.245140	100.920	0.270	-0.460	0.330	100.760	-1.900	0.700																			1580059715.0	11.55	21.39
26/01/2020 17:28:36	26012020	260120	172836	100.880	12.213085	-56.245090	101.070	0.060	-0.090	0.250	100.880	-1.900	0.700																			1580059716.0	11.55	21.39
26/01/2020 17:28:37	26012020	260120	172837	101.020	12.213075	-56.245040	101.080	-0.170	0.000	0.180	101.040	-1.400	0.500																			1580059717.0	10.96	20.30
26/01/2020 17:28:38	26012020	260120	172838	101.030	12.213065	-56.244990	100.940	-0.150	-0.440	0.240	101.000	-1.600	0.600																			1580059718.0	10.50	19.45
26/01/2020 17:28:39	26012020	260120	172839	100.860	12.213053	-56.244937	100.760	0.040	-0.900	0.370	100.820	-2.200	0.700																			1580059719.0	10.85	20.09
26/01/2020 17:28:40	26012020	260120	172840	100.670	12.213042	-56.244883	100.590	0.130	-0.860	0.530	100.640	-2.300	0.800																			1580059720.0	11.53	21.35
26/01/2020 17:28:41	26012020	260120	172841	100.500	12.213030	-56.244832	100.450	0.040	-0.430	0.530	100.470	-2.000	0.900																			1580059721.0	11.63	21.54
26/01/2020 17:28:42	26012020	260120	172842	100.380	12.213020	-56.244782	100.380	-0.060	-0.020	0.330	100.360	-1.500	0.800																			1580059722.0	11.15	20.65
26/01/2020 17:28:43	26012020	260120	172843	100.320	12.213010	-56.244732	100.370	-0.080	0.160	0.150	100.320	-1.300	0.600																			1580059723.0	10.84	20.08
26/01/2020 17:28:44	26012020	260120	172844	100.320	12.213000	-56.244680	100.420	-0.050	0.150	-0.020	100.320	-1.200	0.500																			1580059724.0	10.94	20.26
26/01/2020 17:28:45	26012020	260120	172845	100.380	12.212992	-56.244627	100.540	-0.070	0.040	-0.010	100.390	-1.300	0.300																			1580059725.0	11.18	20.71
26/01/2020 17:28:46	26012020	260120	172846	100.480	12.212980	-56.244575	100.710	-0.130	-0.130	0.120	100.510	-1.500	0.400																			1580059726.0	11.29	20.91
26/01/2020 17:28:47	26012020	260120	172847	100.650	12.212970	-56.244523	100.850	-0.190	-0.290	0.360	100.680	-1.600	0.600																			1580059727.0	11.28	20.89
26/01/2020 17:28:48	26012020	260120	172848	100.780	12.212957	-56.244472	100.890	-0.190	-0.330	0.630	100.790	-1.700	0.900																			1580059728.0	11.26	20.85
26/01/2020 17:28:49	26012020	260120	172849	100.800	12.212943	-56.244422	100.870	-0.100	-0.310	0.650	100.790	-1.700	1.000																			1580059729.0	11.20	20.74
26/01/2020 17:28:50	26012020	260120	172850	100.790	12.212933	-56.244370	100.830	0.160	-0.520	0.400	100.780	-1.800	0.900																			1580059730.0	11.01	20.39
26/01/2020 17:28:51	26012020	260120	172851	100.760	12.212923	-56.244318	100.780	0.510	-0.820	0.100	100.750	-2.100	0.600																			1580059731.0	10.97	20.32
26/01/2020 17:28:52	26012020	260120	172852	100.730	12.212915	-56.244263	100.820	0.630	-0.640	-0.120	100.740	-2.200	0.300																			1580059732.0	11.33	20.98
26/01/2020 17:28:53	26012020	260120	172853	100.780	12.212907	-56.244212	100.850	0.330	0.010	-0.190	100.790	-1.600	0.200																			1580059733.0	11.56	21.41
26/01/2020 17:28:54	26012020	260120	172854	100.790	12.212898	-56.244163	100.820	-0.120	0.450	-0.080	100.780	-1.000	0.200																			1580059734.0	11.03	20.43
26/01/2020 17:28:55	26012020	260120	172855	100.780	12.212888	-56.244113	100.910	-0.340	0.210	0.110	100.780	-1.000	0.400																			1580059735.0	10.50	19.45
26/01/2020 17:28:56	26012020	260120	172856	100.840	12.212877	-56.244060	101.010	-0.250	-0.460	0.360	100.870	-1.200	0.500																			1580059736.0	10.70	19.82
26/01/2020 17:28:57	26012020	260120	172857	100.970	12.212863	-56.244007	101.020	-0.150	-0.740	0.590	100.980	-2.100	0.900																			1580059737.0	11.47	21.24
26/01/2020 17:28:58	26012020	260120	172858	100.970	12.212850	-56.243953	100.960	-0.250	-0.360	0.620	100.970	-2.100	0.900																			1580059738.0	11.89	22.02
26/01/2020 17:28:59	26012020	260120	172859	100.890	12.212838	-56.243905	100.880	-0.390	0.110	0.400	100.870	-1.400	0.900	1014.70	26.20	26.30	20.20	20.30	839.00	69.00	69.00	375.00	29.20	356.00	9.90	92.00	4.20	60862	3287.00	27.70	27.70	1580059739.0	11.41	21.13
26/01/2020 17:29:00	26012020	260120	172900	100.810	12.212828	-56.243857	100.870	-0.290	0.080	-0.010	100.810	-1.200	0.500																			1580059740.0	10.66	19.74
26/01/2020 17:29:01	26012020	260120	172901	100.820	12.212820	-56.243803	100.980	0.110	-0.430	-0.440	100.840	-1.600	0.000																			1580059741.0	10.58	19.59
26/01/2020 17:29:02	26012020	260120	172902	100.940	12.212812	-56.243750	101.060	0.480	-0.820	-0.530	100.970	-2.100	-0.200																			1580059742.0	11.17	20.69
26/01/2020 17:29:03	26012020	260120	172903	101.000	12.212802	-56.243695	101.020	0.510	-0.650	-0.270	100.990	-2.200	-0.000																			1580059743.0	11.72	21.71
26/01/2020 17:29:04	26012020	260120	172904	100.940	12.212790	-56.243645	100.990	0.200	-0.130	0.020	100.930	-1.700	0.300																			1580059744.0	11.54	21.37
26/01/2020 17:29:05	26012020	260120	172905	100.930	12.212780	-56.243597	101.030	-0.130	0.150	0.240	100.940	-1.300	0.500																			1580059745.0	10.92	20.22
26/01/2020 17:29:06	26012020	260120	172906	100.960	12.212767	-56.243547	100.990	-0.170	-0.080	0.310	100.960	-1.300	0.700																			1580059746.0	10.58	19.59
26/01/2020 17:29:07	26012020	260120	172907	100.910	12.212755	-56.243493	100.880	0.030	-0.430	0.240	100.890	-1.700	0.600																			1580059747.0	10.90	20.19
26/01/2020 17:29:08	26012020	260120	172908	100.810	12.212745	-56.243440	100.850	0.120	-0.370	0.150	100.800	-1.800	0.500																			1580059748.0	11.48	21.26
26/01/2020 17:29:09	26012020	260120	172909	100.800	12.212735	-56.243388	100.940	-0.100	0.110	-0.020	100.810	-1.400	0.400																			1580059749.0	11.61	21.50
26/01/2020 17:29:10	26012020	260120	172910	100.900	12.212725	-56.243340	101.040	-0.380	0.260	-0.170	100.900	-1.300	0.300																			1580059750.0	11.07	20.50
26/01/2020 17:29:11	26012020	260120	172911	101.000	12.212715	-56.243290	101.050	-0.340	-0.190	-0.090	101.000	-1.400	0.200																			1580059751.0	10.54	19.52
26/01/2020 17:29:12	26012020	260120	172912	101.000	12.212702	-56.243237	101.000	0.000	-0.710	0.120	101.000	-2.000	0.400																			1580059752.0	10.88	20.15
26/01/2020 17:29:13	26012020	260120	172913	100.960	12.212690	-56.243183	100.960	0.290	-0.690	0.260	100.950	-2.100	0.600																			1580059753.0	11.56	21.41
26/01/2020 17:29:14	26012020	260120	172914	100.900	12.212678	-56.243132	100.900	0.300	-0.280	0.320	100.890	-1.800	0.700																			1580059754.0	11.62	21.52
26/01/2020 17:29:15	26012020	260120	172915	100.840	12.212667	-56.243083	100.850	0.170	-0.050	0.190	100.830	-1.500	0.600																			1580059755.0	11.03	20.43
26/01/2020 17:29:16	26012020	260120	172916	100.790	12.212658	-56.243032	100.820	0.110	-0.210	0.050	100.790	-1.500	0.400																			1580059756.0	10.61	19.65
26/01/2020 17:29:17	26012020	260120	172917	100.760	12.212648	-56.242980	100.850	0.120	-0.450	0.100	100.760	-1.800	0.400																			1580059757.0	10.86	20.11
26/01/2020 17:29:18	26012020	260120	172918	100.790	12.212638	-56.242927	100.900	0.040	-0.450	0.250	100.800	-1.900	0.500																			1580059758.0	11.35	21.02
26/01/2020 17:29:19	26012020	260120	172919	100.830	12.212627	-56.242875	100.860	-0.150	-0.290	0.410	100.830	-1.700	0.700																			1580059759.0	11.43	21.17
26/01/2020 17:29:20	26012020	260120	172920	100.780	12.212613	-56.242825	100.780	-0.380	-0.020	0.590	100.760	-1.500	0.900																			1580059760.0	11.17	20.69
26/01/2020 17:29:21	26012020	260120	172921	100.700	12.212600	-56.242775	100.760	-0.420	0.080	0.650	100.680	-1.300	1.000																			1580059761.0	11.00	20.37
26/01/2020 17:29:22	26012020	260120	172922	100.680	12.212588	-56.242725	100.780	-0.100	-0.290	0.490	100.680	-1.300	1.000																			1580059762.0	10.84	20.08
26/01/2020 17:29:23	26012020	260120	172923	100.720	12.212578	-56.242672	100.780	0.300	-0.700	0.310	100.720	-2.000	0.700																			1580059763.0	11.03	20.43
26/01/2020 17:29:24	26012020	260120	172924	100.710	12.212568	-56.242617	100.770	0.400	-0.570	0.250	100.700	-2.100	0.600																			1580059764.0	11.60	21.48
26/01/2020 17:29:25	26012020	260120	172925	100.720	12.212558	-56.242565	100.860	0.090	0.080	0.220	100.730	-1.500	0.600																			1580059765.0	11.67	21.61
26/01/2020 17:29:26	26012020	260120	172926	100.820	12.212550	-56.242518	100.980	-0.240	0.460	0.190	100.840	-1.000	0.500																			1580059766.0	11.01	20.39
26/01/2020 17:29:27	26012020	260120	172927	100.930	12.212538	-56.242468	101.090	-0.210	0.060	0.200	100.950	-1.100	0.500																			1580059767.0	10.37	19.21
26/01/2020 17:29:28	26012020	260120	172928	101.050	12.212527	-56.242415	101.190	0.070	-0.510	0.260	101.080	-1.700	0.600																			1580059768.0	10.69	19.80
26/01/2020 17:29:29	26012020	260120	172929	101.140	12.212515	-56.242362	101.160	0.210	-0.560	0.260	101.140	-2.000	0.600																			1580059769.0	11.54	21.37
26/01/2020 17:29:30	26012020	260120	172930	101.110	12.212505	-56.242312	101.050	0.180	-0.330	0.270	101.090	-1.800	0.600																			1580059770.0	11.59	21.46
26/01/2020 17:29:31	26012020	260120	172931	100.980	12.212493	-56.242262	100.950	0.120	-0.210	0.350	100.960	-1.600	0.700																			1580059771.0	10.97	20.32
26/01/2020 17:29:32	26012020	260120	172932	100.890	12.212483	-56.242210	100.900	0.010	-0.240	0.390	100.870	-1.600	0.700																			1580059772.0	10.73	19.87
26/01/2020 17:29:33	26012020	260120	172933	100.840	12.212473	-56.242160	100.880	-0.130	-0.370	0.340	100.840	-1.700	0.700																			1580059773.0	10.92	20.22
26/01/2020 17:29:34	26012020	260120	172934	100.820	12.212463	-56.242108	100.850	-0.210	-0.480	0.340	100.820	-1.800	0.700																			1580059774.0	11.07	20.50
26/01/2020 17:29:35	26012020	260120	172935	100.810	12.212452	-56.242057	100.780	-0.200	-0.550	0.490	100.800	-1.900	0.800																			1580059775.0	11.18	20.71
26/01/2020 17:29:36	26012020	260120	172936	100.730	12.212438	-56.242005	100.610	-0.080	-0.620	0.670	100.700	-2.000	1.000																			1580059776.0	11.20	20.74
26/01/2020 17:29:37	26012020	260120	172937	100.550	12.212427	-56.241952	100.410	0.060	-0.470	0.710	100.510	-1.900	1.100																			1580059777.0	11.28	20.89
26/01/2020 17:29:38	26012020	260120	172938	100.360	12.212415	-56.241900	100.370	0.100	-0.020	0.470	100.340	-1.600	0.900																			1580059778.0	11.40	21.11
26/01/2020 17:29:39	26012020	260120	172939	100.360	12.212407	-56.241850	100.550	0.010	0.380	0.130	100.380	-1.100	0.600																			1580059779.0	11.21	20.76
26/01/2020 17:29:40	26012020	260120	172940	100.530	12.212397	-56.241798	100.700	-0.110	0.360	-0.080	100.570	-1.000	0.300																			1580059780.0	10.86	20.11
26/01/2020 17:29:41	26012020	260120	172941	100.670	12.212387	-56.241747	100.760	-0.150	0.050	-0.140	100.680	-1.200	0.200																			1580059781.0	10.87	20.13
26/01/2020 17:29:42	26012020	260120	172942	100.730	12.212377	-56.241695	100.920	-0.110	-0.180	-0.030	100.750	-1.500	0.300																			1580059782.0	11.20	20.74
26/01/2020 17:29:43	26012020	260120	172943	100.880	12.212365	-56.241643	101.140	-0.050	-0.180	0.130	100.930	-1.600	0.400																			1580059783.0	11.35	21.02
26/01/2020 17:29:44	26012020	260120	172944	101.100	12.212355	-56.241593	101.180	0.030	-0.250	0.240	101.130	-1.600	0.600																			1580059784.0	11.14	20.63
26/01/2020 17:29:45	26012020	260120	172945	101.120	12.212343	-56.241543	100.960	0.150	-0.610	0.350	101.080	-1.800	0.700																			1580059785.0	10.82	20.04
26/01/2020 17:29:46	26012020	260120	172946	100.930	12.212332	-56.241490	100.760	0.290	-0.920	0.330	100.880	-2.000	0.700																			1580059786.0	10.93	20.24
26/01/2020 17:29:47	26012020	260120	172947	100.680	12.212322	-56.241438	100.680	0.360	-0.870	0.130	100.660	-2.300	0.600																			1580059787.0	11.31	20.95
26/01/2020 17:29:48	26012020	260120	172948	100.610	12.212313	-56.241387	100.580	0.330	-0.660	0.030	100.600	-2.200	0.500																			1580059788.0	11.33	20.98
26/01/2020 17:29:49	26012020	260120	172949	100.490	12.212305	-56.241335	100.490	0.130	-0.380	0.150	100.470	-1.900	0.400																			1580059789.0	11.09	20.54
26/01/2020 17:29:50	26012020	260120	172950	100.390	12.212293	-56.241283	100.430	-0.280	0.060	0.450	100.370	-1.500	0.700																			1580059790.0	11.14	20.63
26/01/2020 17:29:51	26012020	260120	172951	100.340	12.212280	-56.241233	100.430	-0.690	0.380	0.720	100.340	-1.100	1.000																			1580059791.0	11.13	20.61
26/01/2020 17:29:52	26012020	260120	172952	100.330	12.212267	-56.241183	100.440	-0.820	0.330	0.750	100.330	-1.000	1.100																			1580059792.0	10.96	20.30
26/01/2020 17:29:53	26012020	260120	172953	100.340	12.212253	-56.241132	100.410	-0.510	-0.110	0.540	100.330	-1.300	1.000																			1580059793.0	10.99	20.35
26/01/2020 17:29:54	26012020	260120	172954	100.320	12.212242	-56.241077	100.430	-0.050	-0.430	0.280	100.320	-1.700	0.700																			1580059794.0	11.32	20.96
26/01/2020 17:29:55	26012020	260120	172955	100.350	12.212232	-56.241023	100.540	0.200	-0.280	-0.050	100.370	-1.800	0.400																			1580059795.0	11.69	21.65
26/01/2020 17:29:56	26012020	260120	172956	100.500	12.212223	-56.240973	100.720	0.200	0.010	-0.340	100.540	-1.400	0.100																			1580059796.0	11.46	21.22
26/01/2020 17:29:57	26012020	260120	172957	100.670	12.212215	-56.240923	100.750	0.250	-0.130	-0.370	100.690	-1.400	-0.000																			1580059797.0	10.83	20.06
26/01/2020 17:29:58	26012020	260120	172958	100.700	12.212205	-56.240872	100.650	0.480	-0.590	-0.110	100.680	-1.500	-0.000																			1580059798.0	10.66	19.74
26/01/2020 17:29:59	26012020	260120	172959	100.590	12.212195	-56.240818	100.590	0.610	-0.640	0.140	100.560	-2.100	0.400	1014.60	26.20	26.30	19.80	19.90	849.00	68.00	68.00	375.00	29.20	355.00	10.20	89.00	4.60	61244	3541.00	27.70	27.70	1580059799.0	11.18	20.71
26/01/2020 17:30:00	26012020	260120	173000	100.530	12.212185	-56.240767	100.600	0.420	-0.200	0.200	100.530	-2.000	0.500																			1580059800.0	11.54	21.37
26/01/2020 17:30:01	26012020	260120	173001	100.540	12.212175	-56.240718	100.550	-0.010	0.060	0.220	100.540	-1.400	0.600																			1580059801.0	11.06	20.48
26/01/2020 17:30:02	26012020	260120	173002	100.490	12.212167	-56.240668	100.390	-0.350	-0.270	0.340	100.490	-1.300	0.600																			1580059802.0	10.52	19.48
26/01/2020 17:30:03	26012020	260120	173003	100.320	12.212153	-56.240615	100.260	-0.440	-0.770	0.540	100.290	-2.000	0.800																			1580059803.0	10.77	19.95
26/01/2020 17:30:04	26012020	260120	173004	100.170	12.212142	-56.240562	100.110	-0.340	-0.810	0.760	100.150	-2.200	1.000																			1580059804.0	11.47	21.24
26/01/2020 17:30:05	26012020	260120	173005	100.010	12.212127	-56.240510	99.890	-0.180	-0.540	0.910	99.970	-2.000	1.200																			1580059805.0	11.71	21.69
26/01/2020 17:30:06	26012020	260120	173006	99.790	12.212115	-56.240458	99.730	-0.150	-0.180	0.860	99.760	-1.700	1.300																			1580059806.0	11.32	20.96
26/01/2020 17:30:07	26012020	260120	173007	99.660	12.212103	-56.240408	99.720	-0.260	0.260	0.610	99.650	-1.300	1.100																			1580059807.0	11.14	20.63
26/01/2020 17:30:08	26012020	260120	173008	99.670	12.212095	-56.240357	99.850	-0.350	0.470	0.210	99.690	-0.900	0.700																			1580059808.0	11.07	20.50
26/01/2020 17:30:09	26012020	260120	173009	99.820	12.212087	-56.240307	100.140	-0.140	0.110	-0.160	99.870	-1.100	0.300																			1580059809.0	10.84	20.08
26/01/2020 17:30:10	26012020	260120	173010	100.050	12.212077	-56.240252	100.420	0.260	-0.440	-0.250	100.120	-1.300	0.200																			1580059810.0	11.00	20.37
26/01/2020 17:30:11	26012020	260120	173011	100.390	12.212067	-56.240198	100.580	0.530	-0.520	-0.070	100.430	-1.900	0.200																			1580059811.0	11.57	21.43
26/01/2020 17:30:12	26012020	260120	173012	100.530	12.212055	-56.240147	100.650	0.450	-0.020	0.080	100.530	-1.900	0.300																			1580059812.0	11.68	21.63
26/01/2020 17:30:13	26012020	260120	173013	100.590	12.212047	-56.240100	100.630	0.200	0.310	0.160	100.590	-1.100	0.500																			1580059813.0	11.02	20.41
26/01/2020 17:30:14	26012020	260120	173014	100.570	12.212038	-56.240050	100.510	0.100	-0.210	0.170	100.560	-1.100	0.500																			1580059814.0	10.29	19.06
26/01/2020 17:30:15	26012020	260120	173015	100.440	12.212028	-56.239997	100.410	0.180	-0.970	0.100	100.420	-2.100	0.500																			1580059815.0	10.51	19.46
26/01/2020 17:30:16	26012020	260120	173016	100.350	12.212020	-56.239942	100.310	0.150	-1.040	0.180	100.330	-2.500	0.500																			1580059816.0	11.50	21.30
26/01/2020 17:30:17	26012020	260120	173017	100.250	12.212008	-56.239890	100.190	-0.110	-0.580	0.330	100.220	-2.100	0.600																			1580059817.0	11.78	21.82
26/01/2020 17:30:18	26012020	260120	173018	100.110	12.211997	-56.239842	100.010	-0.380	-0.240	0.480	100.070	-1.700	0.800																			1580059818.0	11.09	20.54
26/01/2020 17:30:19	26012020	260120	173019	99.900	12.211985	-56.239792	99.800	-0.400	-0.310	0.510	99.860	-1.600	0.900																			1580059819.0	10.68	19.78
26/01/2020 17:30:20	26012020	260120	173020	99.710	12.211972	-56.239738	99.730	-0.180	-0.400	0.270	99.690	-1.800	0.700																			1580059820.0	11.02	20.41
26/01/2020 17:30:21	26012020	260120	173021	99.670	12.211962	-56.239683	99.820	0.000	-0.080	0.040	99.690	-1.600	0.500																			1580059821.0	11.57	21.43
26/01/2020 17:30:22	26012020	260120	173022	99.790	12.211952	-56.239633	100.120	-0.040	0.430	-0.190	99.840	-1.100	0.200																			1580059822.0	11.57	21.43
26/01/2020 17:30:23	26012020	260120	173023	100.110	12.211943	-56.239583	100.460	-0.210	0.690	-0.270	100.180	-0.700	0.100																			1580059823.0	11.03	20.43
26/01/2020 17:30:24	26012020	260120	173024	100.440	12.211932	-56.239533	100.560	-0.270	0.370	-0.020	100.480	-0.800	0.200																			1580059824.0	10.68	19.78
26/01/2020 17:30:25	26012020	260120	173025	100.510	12.211920	-56.239482	100.450	-0.080	-0.350	0.230	100.490	-1.500	0.500																			1580059825.0	10.75	19.91
26/01/2020 17:30:26	26012020	260120	173026	100.390	12.211910	-56.239428	100.370	0.220	-0.880	0.320	100.360	-2.100	0.700																			1580059826.0	11.24	20.82
26/01/2020 17:30:27	26012020	260120	173027	100.340	12.211900	-56.239375	100.430	0.330	-0.840	0.250	100.340	-2.300	0.600																			1580059827.0	11.59	21.46
26/01/2020 17:30:28	26012020	260120	173028	100.390	12.211890	-56.239325	100.410	0.180	-0.450	0.150	100.390	-2.000	0.500																			1580059828.0	11.37	21.06
26/01/2020 17:30:29	26012020	260120	173029	100.360	12.211880	-56.239277	100.220	0.060	-0.340	0.250	100.330	-1.700	0.500																			1580059829.0	10.76	19.93
26/01/2020 17:30:30	26012020	260120	173030	100.140	12.211870	-56.239227	99.870	0.260	-0.720	0.430	100.070	-1.900	0.700																			1580059830.0	10.49	19.43
26/01/2020 17:30:31	26012020	260120	173031	99.780	12.211858	-56.239172	99.720	0.530	-0.910	0.460	99.730	-2.300	0.800																			1580059831.0	11.00	20.37
26/01/2020 17:30:32	26012020	260120	173032	99.680	12.211848	-56.239118	99.900	0.390	-0.280	0.430	99.710	-2.000	0.800																			1580059832.0	11.77	21.80
26/01/2020 17:30:33	26012020	260120	173033	99.870	12.211838	-56.239068	100.070	-0.140	0.690	0.400	99.920	-1.000	0.800																			1580059833.0	11.60	21.48
26/01/2020 17:30:34	26012020	260120	173034	100.040	12.211828	-56.239022	100.090	-0.550	0.880	0.420	100.050	-0.400	0.800																			1580059834.0	10.62	19.67
26/01/2020 17:30:35	26012020	260120	173035	100.050	12.211818	-56.238970	100.120	-0.490	0.090	0.560	100.060	-1.000	0.900																			1580059835.0	10.14	18.78
26/01/2020 17:30:36	26012020	260120	173036	100.080	12.211807	-56.238915	100.230	-0.220	-0.690	0.610	100.100	-1.900	1.000																			1580059836.0	10.99	20.35
26/01/2020 17:30:37	26012020	260120	173037	100.210	12.211795	-56.238862	100.440	-0.130	-0.680	0.540	100.250	-2.100	0.900																			1580059837.0	11.94	22.11
26/01/2020 17:30:38	26012020	260120	173038	100.390	12.211783	-56.238812	100.590	-0.240	-0.200	0.500	100.430	-2.100	0.900																			1580059838.0	11.75	21.76
26/01/2020 17:30:39	26012020	260120	173039	100.550	12.211772	-56.238765	100.490	-0.250	-0.040	0.430	100.540	-1.400	0.800																			1580059839.0	10.78	19.96
26/01/2020 17:30:40	26012020	260120	173040	100.450	12.211762	-56.238715	100.330	0.080	-0.500	0.280	100.420	-1.700	0.700																			1580059840.0	10.31	19.09
26/01/2020 17:30:41	26012020	260120	173041	100.290	12.211752	-56.238660	100.200	0.570	-0.980	0.160	100.260	-2.200	0.600																			1580059841.0	10.76	19.93
26/01/2020 17:30:42	26012020	260120	173042	100.160	12.211743	-56.238607	100.130	0.750	-0.840	-0.020	100.140	-2.400	0.400																			1580059842.0	11.55	21.39
26/01/2020 17:30:43	26012020	260120	173043	100.090	12.211735	-56.238555	100.120	0.400	-0.070	-0.160	100.090	-1.700	0.200																			1580059843.0	11.67	21.61
26/01/2020 17:30:44	26012020	260120	173044	100.090	12.211727	-56.238507	100.220	-0.200	0.640	-0.120	100.100	-0.900	0.200																			1580059844.0	11.04	20.45
26/01/2020 17:30:45	26012020	260120	173045	100.210	12.211717	-56.238458	100.380	-0.520	0.610	0.100	100.250	-0.700	0.400																			1580059845.0	10.35	19.17
26/01/2020 17:30:46	26012020	260120	173046	100.370	12.211705	-56.238408	100.430	-0.290	-0.110	0.400	100.380	-1.200	0.700																			1580059846.0	10.36	19.19
26/01/2020 17:30:47	26012020	260120	173047	100.390	12.211692	-56.238353	100.370	0.240	-0.790	0.430	100.380	-2.000	0.800																			1580059847.0	11.11	20.58
26/01/2020 17:30:48	26012020	260120	173048	100.330	12.211680	-56.238300	100.330	0.510	-0.810	0.280	100.320	-2.300	0.700																			1580059848.0	11.81	21.87
26/01/2020 17:30:49	26012020	260120	173049	100.290	12.211672	-56.238248	100.350	0.300	-0.320	0.200	100.290	-1.900	0.600																			1580059849.0	11.72	21.71
26/01/2020 17:30:50	26012020	260120	173050	100.320	12.211662	-56.238200	100.390	-0.120	0.070	0.120	100.320	-1.700	0.600																			1580059850.0	10.98	20.33
26/01/2020 17:30:51	26012020	260120	173051	100.380	12.211653	-56.238150	100.350	-0.320	0.010	0.180	100.380	-1.300	0.500																			1580059851.0	10.42	19.30
26/01/2020 17:30:52	26012020	260120	173052	100.330	12.211642	-56.238100	100.250	-0.250	-0.310	0.310	100.310	-1.600	0.600																			1580059852.0	10.56	19.56
26/01/2020 17:30:53	26012020	260120	173053	100.240	12.211632	-56.238047	100.240	-0.150	-0.580	0.450	100.230	-1.900	0.700																			1580059853.0	11.11	20.58
26/01/2020 17:30:54	26012020	260120	173054	100.210	12.211618	-56.237995	100.130	-0.140	-0.630	0.750	100.200	-2.000	1.000																			1580059854.0	11.40	21.11
26/01/2020 17:30:55	26012020	260120	173055	100.090	12.211605	-56.237943	99.930	-0.120	-0.490	0.940	100.040	-1.900	1.300																			1580059855.0	11.33	20.98
26/01/2020 17:30:56	26012020	260120	173056	99.860	12.211593	-56.237893	99.750	0.030	-0.310	0.810	99.810	-1.700	1.200																			1580059856.0	11.13	20.61
26/01/2020 17:30:57	26012020	260120	173057	99.690	12.211583	-56.237842	99.740	0.240	-0.110	0.380	99.670	-1.600	0.900																			1580059857.0	11.01	20.39
26/01/2020 17:30:58	26012020	260120	173058	99.720	12.211575	-56.237790	99.920	0.290	0.140	-0.100	99.760	-1.300	0.400																			1580059858.0	11.07	20.50
26/01/2020 17:30:59	26012020	260120	173059	99.940	12.211568	-56.237740	100.130	0.130	0.310	-0.320	99.980	-1.100	0.100	1014.60	26.20	26.30	19.90	20.00	851.00	68.00	68.00	375.00	29.20	354.00	9.90	87.00	4.30	61270	3466.00	27.70	27.70	1580059859.0	11.07	20.50
26/01/2020 17:31:00	26012020	260120	173100	100.100	12.211560	-56.237688	100.270	-0.060	0.290	-0.160	100.130	-1.100	0.000																			1580059860.0	10.92	20.22
26/01/2020 17:31:01	26012020	260120	173101	100.260	12.211550	-56.237638	100.350	-0.070	0.010	0.130	100.280	-1.200	0.400																			1580059861.0	10.84	20.08
26/01/2020 17:31:02	26012020	260120	173102	100.330	12.211538	-56.237587	100.370	0.130	-0.520	0.200	100.330	-1.400	0.500																			1580059862.0	10.88	20.15
26/01/2020 17:31:03	26012020	260120	173103	100.340	12.211528	-56.237533	100.310	0.360	-0.960	0.240	100.330	-2.200	0.600																			1580059863.0	11.11	20.58
26/01/2020 17:31:04	26012020	260120	173104	100.260	12.211518	-56.237482	100.180	0.410	-1.030	0.410	100.260	-2.300	0.600																			1580059864.0	11.38	21.08
26/01/2020 17:31:05	26012020	260120	173105	100.110	12.211508	-56.237430	100.080	0.170	-0.660	0.530	100.090	-2.200	0.900																			1580059865.0	11.37	21.06
26/01/2020 17:31:06	26012020	260120	173106	100.010	12.211498	-56.237380	100.010	-0.250	-0.050	0.570	100.000	-1.600	0.900																			1580059866.0	11.10	20.56
26/01/2020 17:31:07	26012020	260120	173107	99.950	12.211487	-56.237332	99.910	-0.520	0.170	0.580	99.930	-1.200	0.900																			1580059867.0	10.71	19.83
26/01/2020 17:31:08	26012020	260120	173108	99.850	12.211477	-56.237282	99.850	-0.410	-0.230	0.440	99.830	-1.400	0.900																			1580059868.0	10.50	19.45
26/01/2020 17:31:09	26012020	260120	173109	99.810	12.211465	-56.237227	99.940	-0.160	-0.560	0.280	99.820	-1.900	0.700																			1580059869.0	11.04	20.45
26/01/2020 17:31:10	26012020	260120	173110	99.930	12.211455	-56.237173	100.160	-0.120	-0.230	0.150	99.970	-1.800	0.600																			1580059870.0	11.79	21.84
26/01/2020 17:31:11	26012020	260120	173111	100.160	12.211443	-56.237123	100.460	-0.260	0.420	-0.070	100.220	-1.200	0.400																			1580059871.0	11.61	21.50
26/01/2020 17:31:12	26012020	260120	173112	100.470	12.211433	-56.237075	100.710	-0.260	0.550	-0.230	100.530	-0.800	0.200																			1580059872.0	10.76	19.93
26/01/2020 17:31:13	26012020	260120	173113	100.720	12.211423	-56.237025	100.800	0.060	0.030	-0.250	100.750	-1.100	0.100																			1580059873.0	10.31	19.09
26/01/2020 17:31:14	26012020	260120	173114	100.780	12.211413	-56.236972	100.750	0.460	-0.550	-0.240	100.780	-1.400	0.100																			1580059874.0	10.84	20.08
26/01/2020 17:31:15	26012020	260120	173115	100.730	12.211405	-56.236918	100.770	0.660	-0.700	-0.200	100.730	-2.100	0.100																			1580059875.0	11.47	21.24
26/01/2020 17:31:16	26012020	260120	173116	100.760	12.211397	-56.236867	100.910	0.520	-0.510	-0.120	100.780	-2.000	0.200																			1580059876.0	11.44	21.19
26/01/2020 17:31:17	26012020	260120	173117	100.880	12.211387	-56.236818	100.970	0.170	-0.330	0.110	100.900	-1.800	0.400																			1580059877.0	10.99	20.35
26/01/2020 17:31:18	26012020	260120	173118	100.910	12.211377	-56.236768	100.790	-0.070	-0.410	0.600	100.890	-1.700	0.800																			1580059878.0	10.65	19.72
26/01/2020 17:31:19	26012020	260120	173119	100.710	12.211363	-56.236717	100.510	-0.040	-0.650	0.920	100.640	-1.900	1.200																			1580059879.0	10.76	19.93
26/01/2020 17:31:20	26012020	260120	173120	100.420	12.211352	-56.236665	100.360	0.090	-0.700	0.760	100.380	-2.100	1.200																			1580059880.0	11.17	20.69
26/01/2020 17:31:21	26012020	260120	173121	100.290	12.211342	-56.236612	100.350	0.020	-0.360	0.460	100.280	-1.900	0.900																			1580059881.0	11.47	21.24
26/01/2020 17:31:22	26012020	260120	173122	100.300	12.211332	-56.236562	100.390	-0.340	0.130	0.270	100.310	-1.400	0.700																			1580059882.0	11.35	21.02
26/01/2020 17:31:23	26012020	260120	173123	100.350	12.211322	-56.236512	100.390	-0.690	0.340	0.210	100.360	-1.100	0.600																			1580059883.0	10.92	20.22
26/01/2020 17:31:24	26012020	260120	173124	100.370	12.211310	-56.236460	100.420	-0.730	0.170	0.310	100.370	-1.100	0.600																			1580059884.0	10.72	19.85
26/01/2020 17:31:25	26012020	260120	173125	100.390	12.211297	-56.236408	100.580	-0.490	-0.100	0.400	100.410	-1.400	0.700																			1580059885.0	10.98	20.33
26/01/2020 17:31:26	26012020	260120	173126	100.530	12.211283	-56.236357	100.810	-0.130	-0.250	0.310	100.570	-1.500	0.700																			1580059886.0	11.35	21.02
26/01/2020 17:31:27	26012020	260120	173127	100.790	12.211272	-56.236307	100.800	0.300	-0.400	0.140	100.810	-1.700	0.600																			1580059887.0	11.31	20.95
26/01/2020 17:31:28	26012020	260120	173128	100.750	12.211262	-56.236253	100.640	0.690	-0.480	-0.140	100.750	-1.800	0.500																			1580059888.0	11.10	20.56
26/01/2020 17:31:29	26012020	260120	173129	100.590	12.211255	-56.236202	100.630	0.830	-0.250	-0.470	100.570	-1.700	-0.000																			1580059889.0	11.16	20.67
26/01/2020 17:31:30	26012020	260120	173130	100.610	12.211250	-56.236152	100.860	0.640	0.060	-0.750	100.640	-1.400	-0.300																			1580059890.0	11.09	20.54
26/01/2020 17:31:31	26012020	260120	173131	100.860	12.211243	-56.236102	101.120	0.230	0.050	-0.710	100.920	-1.300	-0.400																			1580059891.0	10.77	19.95
26/01/2020 17:31:32	26012020	260120	173132	101.110	12.211233	-56.236052	101.170	-0.160	-0.360	-0.130	101.130	-1.600	-0.000																			1580059892.0	10.64	19.71
26/01/2020 17:31:33	26012020	260120	173133	101.130	12.211218	-56.236000	101.040	-0.320	-0.770	0.570	101.110	-2.000	0.700																			1580059893.0	10.91	20.21
26/01/2020 17:31:34	26012020	260120	173134	100.960	12.211203	-56.235948	100.770	-0.240	-0.850	0.890	100.910	-2.200	1.200																			1580059894.0	11.35	21.02
26/01/2020 17:31:35	26012020	260120	173135	100.680	12.211190	-56.235897	100.490	-0.090	-0.700	0.820	100.620	-2.100	1.200																			1580059895.0	11.42	21.15
26/01/2020 17:31:36	26012020	260120	173136	100.400	12.211180	-56.235845	100.240	-0.030	-0.520	0.660	100.360	-1.900	1.100																			1580059896.0	11.14	20.63
26/01/2020 17:31:37	26012020	260120	173137	100.180	12.211170	-56.235793	100.160	-0.120	-0.330	0.440	100.160	-1.800	0.900																			1580059897.0	11.07	20.50
26/01/2020 17:31:38	26012020	260120	173138	100.120	12.211160	-56.235742	100.210	-0.280	-0.120	0.290	100.120	-1.700	0.800																			1580059898.0	11.17	20.69
26/01/2020 17:31:39	26012020	260120	173139	100.180	12.211148	-56.235690	100.260	-0.390	0.150	0.270	100.190	-1.300	0.600																			1580059899.0	11.20	20.74
26/01/2020 17:31:40	26012020	260120	173140	100.230	12.211137	-56.235638	100.370	-0.430	0.430	0.270	100.230	-1.200	0.600																			1580059900.0	11.21	20.76
26/01/2020 17:31:41	26012020	260120	173141	100.350	12.211125	-56.235588	100.580	-0.330	0.480	0.250	100.390	-0.900	0.600																			1580059901.0	11.11	20.58
26/01/2020 17:31:42	26012020	260120	173142	100.560	12.211113	-56.235538	100.770	0.010	0.190	0.150	100.610	-1.100	0.500																			1580059902.0	10.93	20.24
26/01/2020 17:31:43	26012020	260120	173143	100.770	12.211103	-56.235487	100.950	0.460	-0.180	-0.010	100.800	-1.400	0.400																			1580059903.0	11.01	20.39
26/01/2020 17:31:44	26012020	260120	173144	100.940	12.211095	-56.235433	101.110	0.710	-0.440	-0.080	100.980	-1.700	0.300																			1580059904.0	11.23	20.80
26/01/2020 17:31:45	26012020	260120	173145	101.100	12.211087	-56.235382	101.220	0.630	-0.670	0.060	101.120	-2.000	0.300																			1580059905.0	11.21	20.76
26/01/2020 17:31:46	26012020	260120	173146	101.170	12.211077	-56.235332	101.190	0.330	-0.780	0.390	101.170	-2.100	0.600																			1580059906.0	11.03	20.43
26/01/2020 17:31:47	26012020	260120	173147	101.120	12.211065	-56.235280	100.970	0.010	-0.730	0.750	101.080	-2.100	1.000																			1580059907.0	11.01	20.39
26/01/2020 17:31:48	26012020	260120	173148	100.860	12.211053	-56.235230	100.580	-0.190	-0.630	0.960	100.780	-2.000	1.300																			1580059908.0	10.95	20.28
26/01/2020 17:31:49	26012020	260120	173149	100.450	12.211042	-56.235178	100.250	-0.250	-0.530	0.880	100.380	-1.900	1.300																			1580059909.0	10.96	20.30
26/01/2020 17:31:50	26012020	260120	173150	100.150	12.211030	-56.235127	100.140	-0.260	-0.410	0.610	100.120	-1.800	1.100																			1580059910.0	11.10	20.56
26/01/2020 17:31:51	26012020	260120	173151	100.080	12.211020	-56.235075	100.120	-0.240	-0.290	0.280	100.080	-1.700	0.700																			1580059911.0	11.25	20.84
26/01/2020 17:31:52	26012020	260120	173152	100.080	12.211010	-56.235022	100.150	-0.170	-0.090	0.070	100.080	-1.700	0.600																			1580059912.0	11.31	20.95
26/01/2020 17:31:53	26012020	260120	173153	100.120	12.210998	-56.234970	100.280	-0.130	0.220	-0.030	100.140	-1.300	0.300																			1580059913.0	11.33	20.98
26/01/2020 17:31:54	26012020	260120	173154	100.260	12.210988	-56.234918	100.470	-0.190	0.540	-0.090	100.260	-1.100	0.300																			1580059914.0	11.26	20.85
26/01/2020 17:31:55	26012020	260120	173155	100.460	12.210978	-56.234868	100.690	-0.260	0.580	-0.050	100.500	-0.800	0.300																			1580059915.0	11.02	20.41
26/01/2020 17:31:56	26012020	260120	173156	100.680	12.210968	-56.234818	100.950	-0.170	0.140	0.040	100.730	-1.000	0.400																			1580059916.0	10.83	20.06
26/01/2020 17:31:57	26012020	260120	173157	100.930	12.210957	-56.234767	101.180	0.160	-0.590	0.120	100.990	-1.700	0.400																			1580059917.0	10.94	20.26
26/01/2020 17:31:58	26012020	260120	173158	101.150	12.210945	-56.234712	101.220	0.500	-1.020	0.290	101.170	-2.300	0.600																			1580059918.0	11.32	20.96
26/01/2020 17:31:59	26012020	260120	173159	101.160	12.210935	-56.234660	101.050	0.500	-0.770	0.400	101.140	-2.300	0.700	1014.60	26.20	26.30	19.70	19.80	851.00	67.00	67.00	375.00	29.20	355.00	9.40	89.00	3.70	61216	3195.00	27.70	27.70	1580059919.0	11.60	21.48
26/01/2020 17:32:00	26012020	260120	173200	100.980	12.210925	-56.234612	100.800	0.180	-0.290	0.390	100.930	-1.800	0.800																			1580059920.0	11.27	20.87
26/01/2020 17:32:01	26012020	260120	173201	100.730	12.210917	-56.234563	100.600	-0.090	-0.280	0.270	100.690	-1.600	0.700																			1580059921.0	10.57	19.58
26/01/2020 17:32:02	26012020	260120	173202	100.570	12.210907	-56.234510	100.470	-0.070	-0.780	0.150	100.550	-1.700	0.600																			1580059922.0	10.44	19.33
26/01/2020 17:32:03	26012020	260120	173203	100.410	12.210897	-56.234455	100.270	0.030	-0.970	0.230	100.380	-2.400	0.500																			1580059923.0	11.18	20.71
26/01/2020 17:32:04	26012020	260120	173204	100.260	12.210885	-56.234402	100.100	-0.110	-0.360	0.410	100.220	-2.300	0.600																			1580059924.0	11.89	22.02
26/01/2020 17:32:05	26012020	260120	173205	100.040	12.210872	-56.234353	100.100	-0.430	0.480	0.590	100.020	-1.100	0.900																			1580059925.0	11.63	21.54
26/01/2020 17:32:06	26012020	260120	173206	100.050	12.210860	-56.234305	100.270	-0.570	0.720	0.500	100.050	-0.900	0.900																			1580059926.0	10.74	19.89
26/01/2020 17:32:07	26012020	260120	173207	100.260	12.210850	-56.234253	100.560	-0.290	0.230	0.090	100.320	-0.900	0.600																			1580059927.0	10.47	19.39
26/01/2020 17:32:08	26012020	260120	173208	100.570	12.210840	-56.234198	100.840	0.140	-0.350	-0.110	100.620	-1.600	0.300																			1580059928.0	11.06	20.48
26/01/2020 17:32:09	26012020	260120	173209	100.840	12.210830	-56.234145	101.070	0.320	-0.330	-0.030	100.890	-1.800	0.300																			1580059929.0	11.74	21.74
26/01/2020 17:32:10	26012020	260120	173210	101.050	12.210820	-56.234095	101.230	0.120	0.070	0.000	101.090	-1.400	0.300																			1580059930.0	11.66	21.59
26/01/2020 17:32:11	26012020	260120	173211	101.180	12.210810	-56.234047	101.250	-0.100	0.140	0.040	101.200	-1.200	0.400																			1580059931.0	10.83	20.06
26/01/2020 17:32:12	26012020	260120	173212	101.180	12.210800	-56.233998	101.200	0.040	-0.430	0.060	101.170	-1.500	0.400																			1580059932.0	10.30	19.08
26/01/2020 17:32:13	26012020	260120	173213	101.110	12.210790	-56.233945	101.070	0.470	-1.150	-0.030	101.100	-2.300	0.400																			1580059933.0	10.67	19.76
26/01/2020 17:32:14	26012020	260120	173214	100.990	12.210780	-56.233890	100.850	0.710	-1.360	-0.080	100.950	-2.700	0.300																			1580059934.0	11.46	21.22
26/01/2020 17:32:15	26012020	260120	173215	100.780	12.210770	-56.233837	100.630	0.450	-0.860	0.070	100.730	-2.500	0.400																			1580059935.0	11.75	21.76
26/01/2020 17:32:16	26012020	260120	173216	100.560	12.210760	-56.233787	100.540	-0.150	-0.060	0.300	100.530	-1.700	0.600																			1580059936.0	11.35	21.02
26/01/2020 17:32:17	26012020	260120	173217	100.480	12.210748	-56.233738	100.590	-0.680	0.440	0.360	100.490	-1.000	0.700																			1580059937.0	10.72	19.85
26/01/2020 17:32:18	26012020	260120	173218	100.550	12.210737	-56.233690	100.630	-0.820	0.320	0.380	100.560	-0.900	0.700																			1580059938.0	10.51	19.46
26/01/2020 17:32:19	26012020	260120	173219	100.590	12.210723	-56.233637	100.610	-0.590	-0.040	0.410	100.590	-1.300	0.700																			1580059939.0	10.87	20.13
26/01/2020 17:32:20	26012020	260120	173220	100.560	12.210710	-56.233583	100.600	-0.300	-0.170	0.300	100.560	-1.500	0.700																			1580059940.0	11.52	21.34
26/01/2020 17:32:21	26012020	260120	173221	100.570	12.210698	-56.233532	100.710	-0.110	-0.070	0.020	100.590	-1.500	0.500																			1580059941.0	11.68	21.63
26/01/2020 17:32:22	26012020	260120	173222	100.690	12.210688	-56.233480	100.900	0.080	-0.020	-0.350	100.720	-1.400	0.100																			1580059942.0	11.26	20.85
26/01/2020 17:32:23	26012020	260120	173223	100.900	12.210678	-56.233430	101.130	0.340	-0.130	-0.610	100.950	-1.400	-0.200																			1580059943.0	10.90	20.19
26/01/2020 17:32:24	26012020	260120	173224	101.120	12.210670	-56.233378	101.220	0.560	-0.250	-0.530	101.150	-1.600	-0.300																			1580059944.0	10.92	20.22
26/01/2020 17:32:25	26012020	260120	173225	101.190	12.210660	-56.233327	101.210	0.590	-0.310	-0.300	101.190	-1.700	-0.000																			1580059945.0	11.07	20.50
26/01/2020 17:32:26	26012020	260120	173226	101.170	12.210650	-56.233277	101.190	0.500	-0.450	-0.090	101.170	-1.800	0.200																			1580059946.0	11.02	20.41
26/01/2020 17:32:27	26012020	260120	173227	101.140	12.210640	-56.233225	101.140	0.410	-0.730	0.150	101.120	-2.000	0.400																			1580059947.0	10.93	20.24
26/01/2020 17:32:28	26012020	260120	173228	101.060	12.210628	-56.233173	101.050	0.260	-0.860	0.330	101.040	-2.200	0.600																			1580059948.0	11.05	20.46
26/01/2020 17:32:29	26012020	260120	173229	100.980	12.210618	-56.233120	100.980	-0.180	-0.420	0.600	100.970	-2.000	0.800																			1580059949.0	11.35	21.02
26/01/2020 17:32:30	26012020	260120	173230	100.920	12.210605	-56.233072	100.930	-0.800	0.200	0.870	100.910	-1.800	0.900																			1580059950.0	11.30	20.93
26/01/2020 17:32:31	26012020	260120	173231	100.840	12.210592	-56.233025	100.790	-1.060	0.120	0.930	100.820	-1.100	1.300																			1580059951.0	10.64	19.71
26/01/2020 17:32:32	26012020	260120	173232	100.670	12.210578	-56.232973	100.500	-0.670	-0.740	0.850	100.620	-1.800	1.200																			1580059952.0	10.47	19.39
26/01/2020 17:32:33	26012020	260120	173233	100.380	12.210563	-56.232917	100.190	-0.030	-1.200	0.610	100.320	-2.500	1.000																			1580059953.0	11.37	21.06
26/01/2020 17:32:34	26012020	260120	173234	100.090	12.210552	-56.232862	100.040	0.320	-0.470	0.240	100.050	-2.200	0.700																			1580059954.0	12.34	22.85
26/01/2020 17:32:35	26012020	260120	173235	99.980	12.210542	-56.232812	100.170	0.250	0.740	-0.230	99.990	-1.000	0.300																			1580059955.0	11.90	22.04
26/01/2020 17:32:36	26012020	260120	173236	100.150	12.210535	-56.232765	100.510	0.100	1.160	-0.620	100.220	-0.200	-0.200																			1580059956.0	10.57	19.58
26/01/2020 17:32:37	26012020	260120	173237	100.520	12.210528	-56.232715	100.840	0.200	0.550	-0.710	100.590	-0.500	-0.400																			1580059957.0	9.97	18.46
26/01/2020 17:32:38	26012020	260120	173238	100.840	12.210518	-56.232662	101.070	0.430	-0.190	-0.470	100.890	-1.300	-0.200																			1580059958.0	10.72	19.85
26/01/2020 17:32:39	26012020	260120	173239	101.040	12.210508	-56.232608	101.230	0.470	-0.510	-0.050	101.070	-1.800	0.100																			1580059959.0	11.60	21.48
26/01/2020 17:32:40	26012020	260120	173240	101.200	12.210497	-56.232558	101.370	0.290	-0.610	0.310	101.230	-1.900	0.500																			1580059960.0	11.47	21.24
26/01/2020 17:32:41	26012020	260120	173241	101.330	12.210485	-56.232510	101.300	0.120	-0.820	0.560	101.340	-2.100	0.800																			1580059961.0	10.86	20.11
26/01/2020 17:32:42	26012020	260120	173242	101.230	12.210473	-56.232458	100.960	0.020	-1.090	0.770	101.230	-2.200	0.900																			1580059962.0	10.66	19.74
26/01/2020 17:32:43	26012020	260120	173243	100.860	12.210460	-56.232407	100.500	-0.100	-1.070	0.860	100.770	-2.500	1.200																			1580059963.0	10.96	20.30
26/01/2020 17:32:44	26012020	260120	173244	100.400	12.210450	-56.232357	100.100	-0.240	-0.790	0.770	100.400	-2.400	1.200																			1580059964.0	11.20	20.74
26/01/2020 17:32:45	26012020	260120	173245	100.010	12.210438	-56.232305	99.800	-0.300	-0.580	0.640	99.950	-2.000	1.000																			1580059965.0	11.08	20.52
26/01/2020 17:32:46	26012020	260120	173246	99.730	12.210427	-56.232253	99.610	-0.290	-0.360	0.470	99.690	-1.800	0.900																			1580059966.0	11.07	20.50
26/01/2020 17:32:47	26012020	260120	173247	99.550	12.210415	-56.232200	99.520	-0.290	0.100	0.350	99.510	-1.500	0.700																			1580059967.0	11.38	21.08
26/01/2020 17:32:48	26012020	260120	173248	99.460	12.210403	-56.232148	99.640	-0.300	0.770	0.200	99.470	-0.800	0.600																			1580059968.0	11.49	21.28
26/01/2020 17:32:49	26012020	260120	173249	99.610	12.210393	-56.232098	100.020	-0.290	1.140	-0.010	99.680	-0.300	0.400																			1580059969.0	11.16	20.67
26/01/2020 17:32:50	26012020	260120	173250	100.030	12.210383	-56.232048	100.530	-0.190	0.890	-0.250	100.130	-0.300	0.200																			1580059970.0	10.75	19.91
26/01/2020 17:32:51	26012020	260120	173251	100.540	12.210373	-56.231997	101.000	0.020	0.260	-0.450	100.650	-0.900	-0.100																			1580059971.0	10.81	20.02
26/01/2020 17:32:52	26012020	260120	173252	101.020	12.210363	-56.231945	101.330	0.320	-0.350	-0.430	101.100	-1.500	-0.100																			1580059972.0	11.15	20.65
26/01/2020 17:32:53	26012020	260120	173253	101.310	12.210353	-56.231893	101.380	0.610	-0.820	-0.150	101.340	-2.000	0.100																			1580059973.0	11.22	20.78
26/01/2020 17:32:54	26012020	260120	173254	101.330	12.210343	-56.231843	101.220	0.790	-1.200	0.210	101.300	-2.400	0.400																			1580059974.0	11.03	20.43
26/01/2020 17:32:55	26012020	260120	173255	101.140	12.210333	-56.231792	100.910	0.850	-1.520	0.530	101.090	-2.800	0.800																			1580059975.0	10.87	20.13
26/01/2020 17:32:56	26012020	260120	173256	100.800	12.210323	-56.231740	100.450	0.710	-1.490	0.750	100.800	-2.900	0.900																			1580059976.0	10.98	20.33
26/01/2020 17:32:57	26012020	260120	173257	100.340	12.210313	-56.231688	100.100	0.220	-0.760	0.730	100.260	-2.500	1.100																			1580059977.0	11.25	20.84
26/01/2020 17:32:58	26012020	260120	173258	100.000	12.210303	-56.231638	99.980	-0.490	0.270	0.750	99.970	-1.400	1.100																			1580059978.0	11.20	20.74
26/01/2020 17:32:59	26012020	260120	173259	99.890	12.210292	-56.231592	100.000	-1.000	0.680	0.780	99.890	-0.700	1.100	1014.60	26.20	26.30	20.00	20.00	849.00	68.00	68.00	375.00	29.20	354.00	9.90	87.00	4.30	61064	3636.00	27.70	27.70	1580059979.0	10.63	19.69
26/01/2020 17:33:00	26012020	260120	173300	99.930	12.210280	-56.231540	100.080	-1.020	0.280	0.560	99.940	-0.900	1.000																			1580059980.0	10.40	19.26
26/01/2020 17:33:01	26012020	260120	173301	100.040	12.210267	-56.231485	100.240	-0.750	-0.130	0.380	100.070	-1.400	0.800																			1580059981.0	11.17	20.69
26/01/2020 17:33:02	26012020	260120	173302	100.200	12.210252	-56.231432	100.420	-0.500	0.050	0.260	100.230	-1.500	0.700																			1580059982.0	11.99	22.21
26/01/2020 17:33:03	26012020	260120	173303	100.390	12.210240	-56.231382	100.620	-0.310	0.420	-0.010	100.430	-1.100	0.400																			1580059983.0	11.77	21.80
26/01/2020 17:33:04	26012020	260120	173304	100.600	12.210230	-56.231332	100.780	-0.000	0.280	-0.340	100.640	-1.000	0.100																			1580059984.0	10.86	20.11
26/01/2020 17:33:05	26012020	260120	173305	100.760	12.210222	-56.231282	100.840	0.480	-0.420	-0.490	100.770	-1.500	-0.100																			1580059985.0	10.51	19.46
26/01/2020 17:33:06	26012020	260120	173306	100.810	12.210213	-56.231227	100.830	0.940	-0.990	-0.440	100.810	-2.200	-0.100																			1580059986.0	11.03	20.43
26/01/2020 17:33:07	26012020	260120	173307	100.790	12.210205	-56.231173	100.770	1.080	-0.880	-0.220	100.780	-2.400	0.000																			1580059987.0	11.60	21.48
26/01/2020 17:33:08	26012020	260120	173308	100.700	12.210195	-56.231123	100.670	0.740	-0.310	0.110	100.700	-2.300	0.100																			1580059988.0	11.42	21.15
26/01/2020 17:33:09	26012020	260120	173309	100.600	12.210185	-56.231077	100.600	0.070	0.170	0.510	100.590	-1.300	0.700																			1580059989.0	10.74	19.89
26/01/2020 17:33:10	26012020	260120	173310	100.530	12.210173	-56.231028	100.480	-0.520	0.190	0.800	100.510	-1.100	1.100																			1580059990.0	10.32	19.11
26/01/2020 17:33:11	26012020	260120	173311	100.400	12.210160	-56.230978	100.270	-0.670	-0.210	0.900	100.370	-1.400	1.200																			1580059991.0	10.45	19.35
26/01/2020 17:33:12	26012020	260120	173312	100.190	12.210148	-56.230925	100.100	-0.440	-0.620	0.790	100.150	-1.900	1.200																			1580059992.0	10.95	20.28
26/01/2020 17:33:13	26012020	260120	173313	100.030	12.210137	-56.230873	100.090	-0.130	-0.690	0.500	100.010	-2.100	0.900																			1580059993.0	11.43	21.17
26/01/2020 17:33:14	26012020	260120	173314	100.050	12.210125	-56.230822	100.170	0.030	-0.480	0.210	100.060	-1.900	0.600																			1580059994.0	11.48	21.26
26/01/2020 17:33:15	26012020	260120	173315	100.130	12.210115	-56.230772	100.120	0.110	-0.330	0.060	100.130	-1.700	0.400																			1580059995.0	11.12	20.59
26/01/2020 17:33:16	26012020	260120	173316	100.070	12.210105	-56.230720	99.980	0.140	-0.270	0.130	100.040	-1.700	0.400																			1580059996.0	10.88	20.15
26/01/2020 17:33:17	26012020	260120	173317	99.910	12.210095	-56.230668	99.860	0.140	-0.150	0.290	99.880	-1.600	0.600																			1580059997.0	11.04	20.45
26/01/2020 17:33:18	26012020	260120	173318	99.810	12.210085	-56.230617	99.830	0.110	-0.090	0.370	99.800	-1.500	0.600																			1580059998.0	11.13	20.61
26/01/2020 17:33:19	26012020	260120	173319	99.790	12.210077	-56.230565	99.860	0.100	-0.220	0.450	99.790	-1.500	0.800																			1580059999.0	11.05	20.46
26/01/2020 17:33:20	26012020	260120	173320	99.810	12.210067	-56.230513	99.850	0.060	-0.350	0.600	99.810	-1.600	0.800																			1580060000.0	11.10	20.56
26/01/2020 17:33:21	26012020	260120	173321	99.780	12.210055	-56.230460	99.830	-0.130	-0.190	0.770	99.770	-1.700	1.100																			1580060001.0	11.32	20.96
26/01/2020 17:33:22	26012020	260120	173322	99.750	12.210043	-56.230410	99.920	-0.410	0.140	0.800	99.760	-1.300	1.200																			1580060002.0	11.33	20.98
26/01/2020 17:33:23	26012020	260120	173323	99.840	12.210032	-56.230362	100.160	-0.570	0.300	0.580	99.880	-1.100	1.000																			1580060003.0	10.94	20.26
26/01/2020 17:33:24	26012020	260120	173324	100.100	12.210020	-56.230312	100.410	-0.440	0.160	0.220	100.150	-1.200	0.700																			1580060004.0	10.68	19.78
26/01/2020 17:33:25	26012020	260120	173325	100.340	12.210010	-56.230260	100.490	-0.040	-0.150	-0.080	100.380	-1.400	0.300																			1580060005.0	10.81	20.02
26/01/2020 17:33:26	26012020	260120	173326	100.420	12.210000	-56.230208	100.420	0.440	-0.480	-0.250	100.420	-1.800	0.100																			1580060006.0	11.01	20.39
26/01/2020 17:33:27	26012020	260120	173327	100.370	12.209992	-56.230157	100.370	0.760	-0.750	-0.320	100.360	-2.000	0.000																			1580060007.0	11.14	20.63
26/01/2020 17:33:28	26012020	260120	173328	100.320	12.209985	-56.230103	100.380	0.770	-0.820	-0.250	100.320	-2.200	0.000																			1580060008.0	11.17	20.69
26/01/2020 17:33:29	26012020	260120	173329	100.340	12.209977	-56.230053	100.380	0.460	-0.550	0.140	100.340	-2.000	0.300																			1580060009.0	11.16	20.67
26/01/2020 17:33:30	26012020	260120	173330	100.340	12.209965	-56.230003	100.270	0.030	-0.230	0.580	100.330	-1.900	0.500																			1580060010.0	11.01	20.39
26/01/2020 17:33:31	26012020	260120	173331	100.180	12.209953	-56.229953	99.990	-0.160	-0.370	0.850	100.140	-1.600	1.100																			1580060011.0	10.68	19.78
26/01/2020 17:33:32	26012020	260120	173332	99.950	12.209942	-56.229902	99.680	-0.110	-0.780	0.930	99.890	-1.800	1.200																			1580060012.0	10.77	19.95
26/01/2020 17:33:33	26012020	260120	173333	99.610	12.209930	-56.229847	99.530	-0.110	-0.750	0.830	99.570	-2.200	1.200																			1580060013.0	11.47	21.24
26/01/2020 17:33:34	26012020	260120	173334	99.480	12.209920	-56.229793	99.550	-0.370	-0.070	0.620	99.480	-2.100	1.200																			1580060014.0	11.87	21.98
26/01/2020 17:33:35	26012020	260120	173335	99.500	12.209908	-56.229745	99.710	-0.720	0.660	0.390	99.530	-0.900	0.800																			1580060015.0	11.40	21.11
26/01/2020 17:33:36	26012020	260120	173336	99.690	12.209898	-56.229695	99.960	-0.840	0.820	0.250	99.730	-0.500	0.600																			1580060016.0	10.64	19.71
26/01/2020 17:33:37	26012020	260120	173337	99.940	12.209887	-56.229645	100.210	-0.640	0.470	0.110	100.000	-0.800	0.500																			1580060017.0	10.54	19.52
26/01/2020 17:33:38	26012020	260120	173338	100.200	12.209875	-56.229593	100.440	-0.270	0.030	-0.040	100.250	-1.200	0.300																			1580060018.0	11.03	20.43
26/01/2020 17:33:39	26012020	260120	173339	100.430	12.209863	-56.229542	100.590	0.200	-0.270	-0.110	100.470	-1.600	0.200																			1580060019.0	11.34	21.00
26/01/2020 17:33:40	26012020	260120	173340	100.570	12.209853	-56.229490	100.650	0.710	-0.570	-0.160	100.590	-1.800	0.200																			1580060020.0	11.17	20.69
26/01/2020 17:33:41	26012020	260120	173341	100.610	12.209845	-56.229438	100.600	1.090	-0.960	-0.240	100.610	-2.200	0.100																			1580060021.0	10.91	20.21
26/01/2020 17:33:42	26012020	260120	173342	100.550	12.209838	-56.229387	100.450	1.180	-1.190	-0.090	100.530	-2.500	0.200																			1580060022.0	10.99	20.35
26/01/2020 17:33:43	26012020	260120	173343	100.400	12.209830	-56.229333	100.220	0.870	-0.890	0.370	100.350	-2.400	0.500																			1580060023.0	11.25	20.84
26/01/2020 17:33:44	26012020	260120	173344	100.180	12.209820	-56.229283	99.970	0.210	-0.300	0.820	100.140	-2.300	0.700																			1580060024.0	11.20	20.74
26/01/2020 17:33:45	26012020	260120	173345	99.880	12.209810	-56.229235	99.770	-0.480	0.040	1.040	99.830	-1.400	1.300																			1580060025.0	10.78	19.96
26/01/2020 17:33:46	26012020	260120	173346	99.670	12.209797	-56.229185	99.630	-0.930	-0.000	1.090	99.640	-1.300	1.400																			1580060026.0	10.64	19.71
26/01/2020 17:33:47	26012020	260120	173347	99.550	12.209783	-56.229132	99.600	-1.080	-0.060	1.020	99.530	-1.400	1.400																			1580060027.0	11.03	20.43
26/01/2020 17:33:48	26012020	260120	173348	99.540	12.209770	-56.229080	99.670	-1.060	0.070	0.760	99.550	-1.400	1.200																			1580060028.0	11.47	21.24
26/01/2020 17:33:49	26012020	260120	173349	99.610	12.209758	-56.229028	99.690	-0.770	0.070	0.440	99.630	-1.300	0.900																			1580060029.0	11.41	21.13
26/01/2020 17:33:50	26012020	260120	173350	99.640	12.209747	-56.228978	99.690	-0.090	-0.320	0.060	99.640	-1.500	0.600																			1580060030.0	11.05	20.46
26/01/2020 17:33:51	26012020	260120	173351	99.670	12.209737	-56.228923	99.900	0.660	-0.520	-0.430	99.700	-1.900	0.100																			1580060031.0	11.16	20.67
26/01/2020 17:33:52	26012020	260120	173352	99.900	12.209730	-56.228870	100.230	0.940	-0.110	-0.720	99.970	-1.700	-0.300																			1580060032.0	11.63	21.54
26/01/2020 17:33:53	26012020	260120	173353	100.230	12.209723	-56.228822	100.440	0.670	0.450	-0.640	100.290	-1.100	-0.400																			1580060033.0	11.36	21.04
26/01/2020 17:33:54	26012020	260120	173354	100.430	12.209715	-56.228773	100.460	0.230	0.430	-0.230	100.440	-0.900	-0.100																			1580060034.0	10.51	19.46
26/01/2020 17:33:55	26012020	260120	173355	100.420	12.209705	-56.228723	100.400	0.030	-0.270	0.230	100.400	-1.400	0.400																			1580060035.0	10.21	18.91
26/01/2020 17:33:56	26012020	260120	173356	100.320	12.209693	-56.228670	100.290	0.160	-1.100	0.530	100.310	-2.200	0.800																			1580060036.0	10.75	19.91
26/01/2020 17:33:57	26012020	260120	173357	100.210	12.209683	-56.228617	100.110	0.340	-1.460	0.670	100.170	-2.800	1.000																			1580060037.0	11.47	21.24
26/01/2020 17:33:58	26012020	260120	173358	100.030	12.209672	-56.228563	99.950	0.240	-1.010	0.780	99.990	-2.600	1.100																			1580060038.0	11.70	21.67
26/01/2020 17:33:59	26012020	260120	173359	99.870	12.209660	-56.228515	99.810	-0.240	-0.130	0.830	99.840	-1.800	1.200	1014.60	26.20	26.30	20.10	20.20	849.00	69.00	69.00	375.00	29.20	353.00	9.80	84.00	4.20	60948	3343.00	27.70	27.70	1580060039.0	11.35	21.02
26/01/2020 17:34:00	26012020	260120	173400	99.730	12.209650	-56.228467	99.690	-0.770	0.460	0.620	99.700	-1.100	1.000																			1580060040.0	10.66	19.74
26/01/2020 17:34:01	26012020	260120	173401	99.610	12.209640	-56.228418	99.590	-0.890	0.320	0.400	99.590	-0.900	0.800																			1580060041.0	10.31	19.09
26/01/2020 17:34:02	26012020	260120	173402	99.510	12.209628	-56.228365	99.490	-0.490	-0.400	0.320	99.500	-1.500	0.700																			1580060042.0	10.66	19.74
26/01/2020 17:34:03	26012020	260120	173403	99.430	12.209617	-56.228308	99.460	0.080	-0.840	0.220	99.420	-2.200	0.600																			1580060043.0	11.48	21.26
26/01/2020 17:34:04	26012020	260120	173404	99.390	12.209605	-56.228255	99.560	0.330	-0.330	0.080	99.400	-2.000	0.500																			1580060044.0	12.12	22.45
26/01/2020 17:34:05	26012020	260120	173405	99.500	12.209595	-56.228207	99.780	0.220	0.600	-0.010	99.540	-1.100	0.400																			1580060045.0	11.74	21.74
26/01/2020 17:34:06	26012020	260120	173406	99.750	12.209588	-56.228160	100.040	0.070	0.880	-0.080	99.810	-0.500	0.300																			1580060046.0	10.55	19.54
26/01/2020 17:34:07	26012020	260120	173407	100.010	12.209580	-56.228110	100.230	0.130	0.200	-0.060	100.060	-0.900	0.200																			1580060047.0	9.99	18.50
26/01/2020 17:34:08	26012020	260120	173408	100.170	12.209570	-56.228057	100.340	0.360	-0.720	0.170	100.200	-1.200	0.300																			1580060048.0	10.62	19.67
26/01/2020 17:34:09	26012020	260120	173409	100.290	12.209560	-56.228002	100.390	0.430	-0.910	0.430	100.310	-2.300	0.700																			1580060049.0	11.53	21.35
26/01/2020 17:34:10	26012020	260120	173410	100.330	12.209550	-56.227952	100.360	0.180	-0.500	0.590	100.330	-2.300	0.800																			1580060050.0	11.69	21.65
26/01/2020 17:34:11	26012020	260120	173411	100.280	12.209538	-56.227905	100.220	-0.070	-0.340	0.540	100.260	-1.700	0.900																			1580060051.0	10.82	20.04
26/01/2020 17:34:12	26012020	260120	173412	100.140	12.209530	-56.227855	100.000	-0.000	-0.720	0.380	100.100	-1.900	0.800																			1580060052.0	10.23	18.95
26/01/2020 17:34:13	26012020	260120	173413	99.900	12.209520	-56.227802	99.810	0.160	-0.980	0.250	99.870	-2.300	0.600																			1580060053.0	10.74	19.89
26/01/2020 17:34:14	26012020	260120	173414	99.730	12.209512	-56.227748	99.670	0.070	-0.630	0.190	99.700	-2.200	0.500																			1580060054.0	11.54	21.37
26/01/2020 17:34:15	26012020	260120	173415	99.600	12.209502	-56.227697	99.580	-0.270	-0.030	0.240	99.580	-1.600	0.500																			1580060055.0	11.50	21.30
26/01/2020 17:34:16	26012020	260120	173416	99.530	12.209490	-56.227648	99.660	-0.580	0.300	0.310	99.530	-1.200	0.600																			1580060056.0	10.89	20.17
26/01/2020 17:34:17	26012020	260120	173417	99.620	12.209478	-56.227597	99.840	-0.630	0.250	0.400	99.660	-1.100	0.700																			1580060057.0	10.71	19.83
26/01/2020 17:34:18	26012020	260120	173418	99.800	12.209467	-56.227545	99.980	-0.400	0.030	0.450	99.830	-1.300	0.800																			1580060058.0	10.98	20.33
26/01/2020 17:34:19	26012020	260120	173419	99.940	12.209455	-56.227493	100.100	-0.060	-0.120	0.430	99.970	-1.500	0.800																			1580060059.0	11.32	20.96
26/01/2020 17:34:20	26012020	260120	173420	100.060	12.209443	-56.227440	100.250	0.150	-0.120	0.410	100.090	-1.500	0.700																			1580060060.0	11.40	21.11
26/01/2020 17:34:21	26012020	260120	173421	100.210	12.209433	-56.227390	100.440	0.150	0.020	0.300	100.250	-1.400	0.700																			1580060061.0	11.24	20.82
26/01/2020 17:34:22	26012020	260120	173422	100.370	12.209425	-56.227340	100.610	0.060	0.160	0.070	100.410	-1.400	0.600																			1580060062.0	10.95	20.28
26/01/2020 17:34:23	26012020	260120	173423	100.570	12.209417	-56.227292	100.680	0.130	-0.010	-0.170	100.590	-1.300	0.200																			1580060063.0	10.66	19.74
26/01/2020 17:34:24	26012020	260120	173424	100.650	12.209408	-56.227240	100.750	0.420	-0.650	-0.280	100.650	-1.400	0.200																			1580060064.0	10.56	19.56
26/01/2020 17:34:25	26012020	260120	173425	100.720	12.209400	-56.227187	100.780	0.690	-1.110	-0.240	100.730	-2.400	0.100																			1580060065.0	10.92	20.22
26/01/2020 17:34:26	26012020	260120	173426	100.740	12.209390	-56.227133	100.670	0.640	-0.870	-0.060	100.730	-2.400	0.200																			1580060066.0	11.49	21.28
26/01/2020 17:34:27	26012020	260120	173427	100.610	12.209380	-56.227085	100.400	0.280	-0.270	0.220	100.560	-1.900	0.500																			1580060067.0	11.34	21.00
26/01/2020 17:34:28	26012020	260120	173428	100.320	12.209370	-56.227037	100.170	-0.110	-0.060	0.330	100.260	-1.400	0.700																			1580060068.0	10.64	19.71
26/01/2020 17:34:29	26012020	260120	173429	100.110	12.209360	-56.226985	100.170	-0.310	-0.340	0.230	100.090	-1.600	0.600																			1580060069.0	10.42	19.30
26/01/2020 17:34:30	26012020	260120	173430	100.120	12.209350	-56.226932	100.250	-0.370	-0.530	0.180	100.140	-1.900	0.500																			1580060070.0	11.01	20.39
26/01/2020 17:34:31	26012020	260120	173431	100.200	12.209338	-56.226878	100.250	-0.390	-0.360	0.300	100.200	-1.800	0.600																			1580060071.0	11.58	21.45
26/01/2020 17:34:32	26012020	260120	173432	100.170	12.209325	-56.226828	100.170	-0.420	-0.070	0.500	100.160	-1.500	0.700																			1580060072.0	11.46	21.22
26/01/2020 17:34:33	26012020	260120	173433	100.090	12.209312	-56.226777	100.120	-0.430	0.040	0.650	100.080	-1.400	0.900																			1580060073.0	11.10	20.56
26/01/2020 17:34:34	26012020	260120	173434	100.050	12.209300	-56.226727	100.240	-0.430	0.050	0.510	100.060	-1.400	1.000																			1580060074.0	11.03	20.43
26/01/2020 17:34:35	26012020	260120	173435	100.180	12.209290	-56.226675	100.440	-0.390	0.230	0.260	100.230	-1.200	0.700																			1580060075.0	11.21	20.76
26/01/2020 17:34:36	26012020	260120	173436	100.370	12.209280	-56.226625	100.690	-0.240	0.350	0.010	100.410	-1.200	0.600																			1580060076.0	11.15	20.65
26/01/2020 17:34:37	26012020	260120	173437	100.660	12.209270	-56.226575	100.880	0.150	-0.030	-0.220	100.710	-1.200	0.200																			1580060077.0	10.77	19.95
26/01/2020 17:34:38	26012020	260120	173438	100.810	12.209260	-56.226522	100.930	0.660	-0.630	-0.280	100.830	-1.400	0.100																			1580060078.0	10.74	19.89
26/01/2020 17:34:39	26012020	260120	173439	100.860	12.209252	-56.226468	100.850	0.960	-0.860	-0.280	100.850	-2.200	0.100																			1580060079.0	11.29	20.91
26/01/2020 17:34:40	26012020	260120	173440	100.790	12.209242	-56.226417	100.810	0.860	-0.540	-0.200	100.770	-2.100	0.100																			1580060080.0	11.50	21.30
26/01/2020 17:34:41	26012020	260120	173441	100.730	12.209235	-56.226368	100.830	0.440	-0.070	0.010	100.730	-1.600	0.300																			1580060081.0	11.12	20.59
26/01/2020 17:34:42	26012020	260120	173442	100.760	12.209225	-56.226318	100.860	0.040	-0.110	0.360	100.770	-1.400	0.600																			1580060082.0	10.54	19.52
26/01/2020 17:34:43	26012020	260120	173443	100.800	12.209215	-56.226268	100.850	-0.150	-0.550	0.750	100.810	-1.800	1.000																			1580060083.0	10.46	19.37
26/01/2020 17:34:44	26012020	260120	173444	100.780	12.209200	-56.226215	100.780	-0.290	-0.630	0.960	100.770	-2.100	1.200																			1580060084.0	11.14	20.63
26/01/2020 17:34:45	26012020	260120	173445	100.700	12.209187	-56.226163	100.660	-0.500	-0.270	0.970	100.670	-1.800	1.300																			1580060085.0	11.62	21.52
26/01/2020 17:34:46	26012020	260120	173446	100.570	12.209175	-56.226113	100.560	-0.630	-0.010	0.740	100.560	-1.400	1.200																			1580060086.0	11.21	20.76
26/01/2020 17:34:47	26012020	260120	173447	100.490	12.209163	-56.226063	100.540	-0.530	-0.190	0.350	100.480	-1.500	0.800																			1580060087.0	10.73	19.87
26/01/2020 17:34:48	26012020	260120	173448	100.490	12.209153	-56.226010	100.610	-0.260	-0.480	-0.040	100.500	-1.800	0.400																			1580060088.0	10.90	20.19
26/01/2020 17:34:49	26012020	260120	173449	100.560	12.209143	-56.225957	100.650	-0.010	-0.390	-0.350	100.570	-1.900	0.100																			1580060089.0	11.46	21.22
26/01/2020 17:34:50	26012020	260120	173450	100.600	12.209133	-56.225905	100.640	0.140	-0.100	-0.390	100.600	-1.600	-0.100																			1580060090.0	11.51	21.32
26/01/2020 17:34:51	26012020	260120	173451	100.600	12.209123	-56.225855	100.660	0.230	0.050	-0.190	100.600	-1.400	0.100																			1580060091.0	11.08	20.52
26/01/2020 17:34:52	26012020	260120	173452	100.610	12.209113	-56.225805	100.720	0.260	0.020	-0.110	100.620	-1.300	0.200																			1580060092.0	10.87	20.13
26/01/2020 17:34:53	26012020	260120	173453	100.700	12.209103	-56.225753	100.810	0.270	-0.120	-0.100	100.730	-1.400	0.200																			1580060093.0	11.02	20.41
26/01/2020 17:34:54	26012020	260120	173454	100.790	12.209093	-56.225702	100.780	0.260	-0.220	0.040	100.780	-1.600	0.300																			1580060094.0	11.12	20.59
26/01/2020 17:34:55	26012020	260120	173455	100.730	12.209082	-56.225650	100.710	0.150	-0.150	0.190	100.720	-1.600	0.500																			1580060095.0	11.19	20.72
26/01/2020 17:34:56	26012020	260120	173456	100.670	12.209072	-56.225600	100.700	-0.040	-0.060	0.220	100.660	-1.500	0.600																			1580060096.0	11.10	20.56
26/01/2020 17:34:57	26012020	260120	173457	100.660	12.209062	-56.225550	100.800	-0.130	-0.270	0.140	100.680	-1.500	0.500																			1580060097.0	10.84	20.08
26/01/2020 17:34:58	26012020	260120	173458	100.780	12.209050	-56.225498	100.920	-0.100	-0.560	0.060	100.810	-1.900	0.400																			1580060098.0	10.80	20.00
26/01/2020 17:34:59	26012020	260120	173459	100.890	12.209038	-56.225445	100.850	-0.070	-0.590	0.080	100.890	-2.000	0.400	1014.60	26.20	26.30	20.00	20.10	846.00	69.00	68.00	375.00	29.20	353.00	9.30	83.00	3.70	60723	3493.00	27.70	27.60	1580060099.0	11.17	20.69
26/01/2020 17:35:00	26012020	260120	173500	100.810	12.209027	-56.225395	100.560	-0.040	-0.480	0.260	100.810	-2.000	0.400																			1580060100.0	11.29	20.91
26/01/2020 17:35:01	26012020	260120	173501	100.500	12.209015	-56.225345	100.320	0.050	-0.470	0.400	100.440	-1.800	0.700																			1580060101.0	10.98	20.33
26/01/2020 17:35:02	26012020	260120	173502	100.270	12.209005	-56.225293	100.300	0.130	-0.500	0.300	100.260	-1.900	0.700																			1580060102.0	10.96	20.30
26/01/2020 17:35:03	26012020	260120	173503	100.260	12.208995	-56.225240	100.330	0.080	-0.390	0.080	100.270	-1.800	0.500																			1580060103.0	11.18	20.71
26/01/2020 17:35:04	26012020	260120	173504	100.290	12.208985	-56.225188	100.380	-0.110	-0.050	0.060	100.300	-1.600	0.400																			1580060104.0	11.30	20.93
26/01/2020 17:35:05	26012020	260120	173505	100.340	12.208973	-56.225138	100.420	-0.260	0.170	0.250	100.350	-1.300	0.500																			1580060105.0	11.14	20.63
26/01/2020 17:35:06	26012020	260120	173506	100.350	12.208962	-56.225088	100.380	-0.150	-0.070	0.380	100.340	-1.300	0.700																			1580060106.0	10.86	20.11
26/01/2020 17:35:07	26012020	260120	173507	100.310	12.208950	-56.225035	100.410	0.100	-0.380	0.280	100.310	-1.700	0.700																			1580060107.0	11.02	20.41
26/01/2020 17:35:08	26012020	260120	173508	100.350	12.208940	-56.224982	100.540	0.200	-0.300	0.160	100.370	-1.800	0.500																			1580060108.0	11.51	21.32
26/01/2020 17:35:09	26012020	260120	173509	100.490	12.208932	-56.224930	100.710	0.020	0.010	0.060	100.530	-1.500	0.400																			1580060109.0	11.52	21.34
26/01/2020 17:35:10	26012020	260120	173510	100.640	12.208922	-56.224880	100.790	-0.220	0.140	0.080	100.670	-1.400	0.400																			1580060110.0	11.00	20.37
26/01/2020 17:35:11	26012020	260120	173511	100.740	12.208910	-56.224830	100.730	-0.300	-0.010	0.310	100.730	-1.300	0.500																			1580060111.0	10.70	19.82
26/01/2020 17:35:12	26012020	260120	173512	100.660	12.208898	-56.224780	100.580	-0.080	-0.420	0.460	100.660	-1.400	0.600																			1580060112.0	10.87	20.13
26/01/2020 17:35:13	26012020	260120	173513	100.520	12.208887	-56.224727	100.480	0.230	-0.740	0.440	100.490	-2.100	0.800																			1580060113.0	11.15	20.65
26/01/2020 17:35:14	26012020	260120	173514	100.420	12.208875	-56.224673	100.440	0.300	-0.620	0.290	100.420	-2.100	0.800																			1580060114.0	11.49	21.28
26/01/2020 17:35:15	26012020	260120	173515	100.390	12.208865	-56.224623	100.420	0.140	-0.210	0.130	100.390	-1.800	0.500																			1580060115.0	11.39	21.09
26/01/2020 17:35:16	26012020	260120	173516	100.400	12.208857	-56.224573	100.460	0.040	0.020	0.010	100.400	-1.400	0.400																			1580060116.0	10.91	20.21
26/01/2020 17:35:17	26012020	260120	173517	100.420	12.208847	-56.224523	100.470	0.110	-0.150	-0.170	100.420	-1.400	0.200																			1580060117.0	10.61	19.65
26/01/2020 17:35:18	26012020	260120	173518	100.420	12.208837	-56.224470	100.470	0.200	-0.460	-0.280	100.420	-1.800	0.100																			1580060118.0	10.88	20.15
26/01/2020 17:35:19	26012020	260120	173519	100.420	12.208827	-56.224417	100.480	0.130	-0.480	-0.130	100.420	-1.900	0.100																			1580060119.0	11.38	21.08
26/01/2020 17:35:20	26012020	260120	173520	100.450	12.208817	-56.224367	100.560	-0.050	-0.280	0.120	100.460	-1.800	0.400																			1580060120.0	11.48	21.26
26/01/2020 17:35:21	26012020	260120	173521	100.510	12.208805	-56.224317	100.580	-0.230	-0.140	0.430	100.520	-1.600	0.600																			1580060121.0	11.09	20.54
26/01/2020 17:35:22	26012020	260120	173522	100.500	12.208792	-56.224265	100.440	-0.320	-0.210	0.770	100.490	-1.600	1.000																			1580060122.0	10.89	20.17
26/01/2020 17:35:23	26012020	260120	173523	100.350	12.208780	-56.224213	100.220	-0.230	-0.470	0.910	100.300	-1.800	1.200																			1580060123.0	10.99	20.35
26/01/2020 17:35:24	26012020	260120	173524	100.120	12.208768	-56.224160	100.120	-0.040	-0.640	0.760	100.120	-1.900	1.200																			1580060124.0	11.27	20.87
26/01/2020 17:35:25	26012020	260120	173525	100.050	12.208757	-56.224107	100.290	-0.010	-0.370	0.540	100.070	-1.900	0.900																			1580060125.0	11.57	21.43
26/01/2020 17:35:26	26012020	260120	173526	100.260	12.208747	-56.224057	100.570	-0.260	0.350	0.270	100.320	-1.300	0.700																			1580060126.0	11.54	21.37
26/01/2020 17:35:27	26012020	260120	173527	100.540	12.208735	-56.224008	100.680	-0.500	0.870	0.070	100.570	-0.600	0.400																			1580060127.0	10.99	20.35
26/01/2020 17:35:28	26012020	260120	173528	100.630	12.208725	-56.223960	100.600	-0.320	0.460	0.060	100.620	-0.700	0.400																			1580060128.0	10.36	19.19
26/01/2020 17:35:29	26012020	260120	173529	100.550	12.208715	-56.223908	100.550	0.370	-0.710	0.100	100.530	-1.700	0.400																			1580060129.0	10.42	19.30
26/01/2020 17:35:30	26012020	260120	173530	100.490	12.208703	-56.223852	100.560	1.030	-1.410	0.030	100.490	-2.700	0.400																			1580060130.0	11.39	21.09
26/01/2020 17:35:31	26012020	260120	173531	100.530	12.208695	-56.223797	100.600	1.050	-0.880	-0.040	100.540	-2.600	0.300																			1580060131.0	12.21	22.61
26/01/2020 17:35:32	26012020	260120	173532	100.560	12.208687	-56.223748	100.510	0.430	0.190	0.120	100.550	-1.600	0.400																			1580060132.0	11.69	21.65
26/01/2020 17:35:33	26012020	260120	173533	100.450	12.208678	-56.223703	100.430	-0.260	0.660	0.350	100.430	-0.800	0.600																			1580060133.0	10.32	19.11
26/01/2020 17:35:34	26012020	260120	173534	100.370	12.208668	-56.223655	100.450	-0.510	0.060	0.490	100.370	-1.000	0.800																			1580060134.0	9.78	18.11
26/01/2020 17:35:35	26012020	260120	173535	100.390	12.208655	-56.223600	100.510	-0.370	-0.930	0.570	100.410	-2.000	0.900																			1580060135.0	10.50	19.45
26/01/2020 17:35:36	26012020	260120	173536	100.450	12.208642	-56.223545	100.480	-0.230	-1.230	0.670	100.450	-2.600	1.000																			1580060136.0	11.69	21.65
26/01/2020 17:35:37	26012020	260120	173537	100.410	12.208628	-56.223493	100.360	-0.290	-0.620	0.670	100.390	-2.300	1.000																			1580060137.0	12.11	22.43
26/01/2020 17:35:38	26012020	260120	173538	100.280	12.208617	-56.223445	100.260	-0.390	0.060	0.460	100.280	-2.000	1.000																			1580060138.0	11.36	21.04
26/01/2020 17:35:39	26012020	260120	173539	100.200	12.208607	-56.223397	100.270	-0.290	0.160	0.110	100.200	-1.200	0.600																			1580060139.0	10.43	19.32
26/01/2020 17:35:40	26012020	260120	173540	100.240	12.208598	-56.223345	100.330	-0.060	-0.100	-0.230	100.250	-1.400	0.200																			1580060140.0	10.51	19.46
26/01/2020 17:35:41	26012020	260120	173541	100.290	12.208588	-56.223290	100.310	0.140	-0.200	-0.260	100.290	-1.600	0.100																			1580060141.0	11.20	20.74
26/01/2020 17:35:42	26012020	260120	173542	100.260	12.208578	-56.223238	100.300	0.210	0.000	-0.130	100.250	-1.500	0.200																			1580060142.0	11.53	21.35
26/01/2020 17:35:43	26012020	260120	173543	100.250	12.208568	-56.223188	100.440	0.200	0.190	-0.070	100.270	-1.200	0.300																			1580060143.0	11.23	20.80
26/01/2020 17:35:44	26012020	260120	173544	100.400	12.208558	-56.223138	100.650	0.180	0.100	-0.060	100.440	-1.200	0.300																			1580060144.0	10.83	20.06
26/01/2020 17:35:45	26012020	260120	173545	100.620	12.208548	-56.223088	100.810	0.210	-0.160	0.010	100.660	-1.500	0.300																			1580060145.0	10.78	19.96
26/01/2020 17:35:46	26012020	260120	173546	100.760	12.208537	-56.223037	100.810	0.290	-0.400	0.140	100.770	-1.700	0.400																			1580060146.0	11.01	20.39
26/01/2020 17:35:47	26012020	260120	173547	100.760	12.208527	-56.222985	100.740	0.390	-0.620	0.170	100.750	-1.900	0.500																			1580060147.0	11.07	20.50
26/01/2020 17:35:48	26012020	260120	173548	100.710	12.208517	-56.222933	100.660	0.340	-0.710	0.180	100.690	-2.000	0.500																			1580060148.0	11.06	20.48
26/01/2020 17:35:49	26012020	260120	173549	100.600	12.208507	-56.222883	100.610	0.030	-0.570	0.190	100.590	-2.000	0.500																			1580060149.0	11.10	20.56
26/01/2020 17:35:50	26012020	260120	173550	100.550	12.208497	-56.222833	100.540	-0.380	-0.300	0.300	100.550	-2.000	0.500																			1580060150.0	11.04	20.45
26/01/2020 17:35:51	26012020	260120	173551	100.470	12.208485	-56.222783	100.370	-0.620	-0.160	0.550	100.430	-1.600	0.800																			1580060151.0	10.82	20.04
26/01/2020 17:35:52	26012020	260120	173552	100.270	12.208470	-56.222733	100.160	-0.510	-0.320	0.630	100.230	-1.600	1.000																			1580060152.0	10.75	19.91
26/01/2020 17:35:53	26012020	260120	173553	100.070	12.208458	-56.222680	100.020	-0.180	-0.590	0.490	100.040	-1.900	0.900																			1580060153.0	11.01	20.39
26/01/2020 17:35:54	26012020	260120	173554	99.940	12.208447	-56.222627	99.950	0.130	-0.560	0.220	99.930	-2.000	0.700																			1580060154.0	11.43	21.17
26/01/2020 17:35:55	26012020	260120	173555	99.900	12.208437	-56.222575	100.000	0.180	-0.050	0.010	99.900	-1.700	0.400																			1580060155.0	11.61	21.50
26/01/2020 17:35:56	26012020	260120	173556	99.950	12.208427	-56.222525	100.160	0.040	0.510	-0.160	99.980	-1.100	0.200																			1580060156.0	11.29	20.91
26/01/2020 17:35:57	26012020	260120	173557	100.130	12.208418	-56.222475	100.380	-0.040	0.600	-0.230	100.170	-0.800	0.100																			1580060157.0	10.70	19.82
26/01/2020 17:35:58	26012020	260120	173558	100.360	12.208410	-56.222425	100.570	0.080	0.070	-0.070	100.390	-1.100	0.200																			1580060158.0	10.54	19.52
26/01/2020 17:35:59	26012020	260120	173559	100.520	12.208398	-56.222372	100.650	0.310	-0.590	0.130	100.550	-1.800	0.400	1014.60	26.20	26.30	19.90	20.00	841.00	68.00	68.00	375.00	29.10	353.00	9.90	85.00	4.30	60483	3738.00	27.60	27.60	1580060159.0	10.94	20.26
26/01/2020 17:36:00	26012020	260120	173600	100.600	12.208387	-56.222318	100.610	0.400	-0.750	0.340	100.600	-2.000	0.500																			1580060160.0	11.51	21.32
26/01/2020 17:36:01	26012020	260120	173601	100.530	12.208377	-56.222268	100.420	0.250	-0.470	0.570	100.490	-2.000	0.800																			1580060161.0	11.54	21.37
26/01/2020 17:36:02	26012020	260120	173602	100.340	12.208367	-56.222218	100.230	0.010	-0.300	0.620	100.340	-1.900	0.900																			1580060162.0	10.95	20.28
26/01/2020 17:36:03	26012020	260120	173603	100.160	12.208357	-56.222168	100.050	-0.130	-0.430	0.550	100.120	-1.800	0.900																			1580060163.0	10.56	19.56
26/01/2020 17:36:04	26012020	260120	173604	99.980	12.208347	-56.222117	99.940	-0.170	-0.630	0.390	99.980	-1.800	0.900																			1580060164.0	10.80	20.00
26/01/2020 17:36:05	26012020	260120	173605	99.870	12.208335	-56.222063	99.890	-0.170	-0.520	0.250	99.860	-2.000	0.600																			1580060165.0	11.23	20.80
26/01/2020 17:36:06	26012020	260120	173606	99.810	12.208325	-56.222013	99.820	-0.210	-0.160	0.270	99.800	-1.700	0.600																			1580060166.0	11.36	21.04
26/01/2020 17:36:07	26012020	260120	173607	99.750	12.208313	-56.221963	99.750	-0.220	0.000	0.380	99.730	-1.400	0.700																			1580060167.0	11.09	20.54
26/01/2020 17:36:08	26012020	260120	173608	99.690	12.208300	-56.221912	99.770	-0.060	-0.160	0.420	99.690	-1.500	0.800																			1580060168.0	10.86	20.11
26/01/2020 17:36:09	26012020	260120	173609	99.720	12.208288	-56.221858	99.880	0.140	-0.130	0.280	99.730	-1.600	0.700																			1580060169.0	11.15	20.65
26/01/2020 17:36:10	26012020	260120	173610	99.830	12.208278	-56.221807	100.060	0.120	0.320	-0.000	99.870	-1.300	0.400																			1580060170.0	11.49	21.28
26/01/2020 17:36:11	26012020	260120	173611	100.030	12.208272	-56.221758	100.270	-0.050	0.540	-0.240	100.080	-0.900	0.200																			1580060171.0	11.13	20.61
26/01/2020 17:36:12	26012020	260120	173612	100.230	12.208265	-56.221708	100.390	-0.040	-0.030	-0.170	100.260	-1.200	0.100																			1580060172.0	10.45	19.35
26/01/2020 17:36:13	26012020	260120	173613	100.330	12.208255	-56.221655	100.410	0.180	-0.920	0.190	100.330	-2.100	0.400																			1580060173.0	10.59	19.61
26/01/2020 17:36:14	26012020	260120	173614	100.330	12.208243	-56.221602	100.300	0.330	-1.330	0.570	100.320	-2.700	0.800																			1580060174.0	11.43	21.17
26/01/2020 17:36:15	26012020	260120	173615	100.210	12.208232	-56.221548	100.060	0.250	-0.990	0.870	100.160	-2.600	1.100																			1580060175.0	11.78	21.82
26/01/2020 17:36:16	26012020	260120	173616	99.960	12.208220	-56.221500	99.850	-0.040	-0.290	0.920	99.910	-1.900	1.300																			1580060176.0	11.35	21.02
26/01/2020 17:36:17	26012020	260120	173617	99.750	12.208208	-56.221452	99.700	-0.340	0.170	0.740	99.720	-1.300	1.200																			1580060177.0	10.72	19.85
26/01/2020 17:36:18	26012020	260120	173618	99.640	12.208198	-56.221402	99.690	-0.390	0.150	0.390	99.640	-1.200	1.100																			1580060178.0	10.48	19.41
26/01/2020 17:36:19	26012020	260120	173619	99.660	12.208188	-56.221348	99.850	-0.160	-0.100	0.020	99.690	-1.400	0.500																			1580060179.0	10.82	20.04
26/01/2020 17:36:20	26012020	260120	173620	99.830	12.208180	-56.221295	100.020	0.110	-0.200	-0.130	99.870	-1.600	0.200																			1580060180.0	11.32	20.96
26/01/2020 17:36:21	26012020	260120	173621	100.000	12.208170	-56.221243	100.150	0.140	-0.050	-0.050	100.030	-1.500	0.200																			1580060181.0	11.53	21.35
26/01/2020 17:36:22	26012020	260120	173622	100.130	12.208158	-56.221192	100.280	-0.040	0.220	0.120	100.160	-1.300	0.400																			1580060182.0	11.28	20.89
26/01/2020 17:36:23	26012020	260120	173623	100.260	12.208148	-56.221143	100.410	-0.200	0.260	0.200	100.280	-1.100	0.500																			1580060183.0	10.87	20.13
26/01/2020 17:36:24	26012020	260120	173624	100.380	12.208138	-56.221093	100.520	-0.080	-0.250	0.090	100.400	-1.400	0.500																			1580060184.0	10.59	19.61
26/01/2020 17:36:25	26012020	260120	173625	100.490	12.208130	-56.221040	100.510	0.340	-1.090	0.000	100.500	-2.200	0.400																			1580060185.0	10.74	19.89
26/01/2020 17:36:26	26012020	260120	173626	100.450	12.208120	-56.220985	100.410	0.550	-1.210	-0.020	100.430	-2.700	0.300																			1580060186.0	11.40	21.11
26/01/2020 17:36:27	26012020	260120	173627	100.370	12.208110	-56.220933	100.450	0.190	-0.350	0.010	100.370	-2.100	0.300																			1580060187.0	11.88	22.00
26/01/2020 17:36:28	26012020	260120	173628	100.420	12.208100	-56.220887	100.540	-0.370	0.460	0.030	100.420	-1.800	0.300																			1580060188.0	11.10	20.56
26/01/2020 17:36:29	26012020	260120	173629	100.500	12.208090	-56.220840	100.480	-0.510	0.210	-0.070	100.500	-1.000	0.300																			1580060189.0	10.01	18.54
26/01/2020 17:36:30	26012020	260120	173630	100.420	12.208078	-56.220788	100.260	-0.090	-0.730	-0.120	100.380	-1.800	0.200																			1580060190.0	10.15	18.80
26/01/2020 17:36:31	26012020	260120	173631	100.200	12.208078	-56.220788	100.120	0.330	-1.070	-0.010	100.160	-2.500	0.300																			1580060191.0	11.43	21.17
26/01/2020 17:36:32	26012020	260120	173632	100.080	12.208057	-56.220678	100.210	0.220	-0.310	0.040	100.090	-2.100	0.400																			1580060192.0	12.26	22.71
26/01/2020 17:36:33	26012020	260120	173633	100.190	12.208045	-56.220630	100.410	-0.300	0.700	0.130	100.230	-1.000	0.400																			1580060193.0	11.54	21.37
26/01/2020 17:36:34	26012020	260120	173634	100.390	12.208035	-56.220585	100.500	-0.670	0.860	0.330	100.420	-0.500	0.600																			1580060194.0	10.22	18.93
26/01/2020 17:36:35	26012020	260120	173635	100.440	12.208022	-56.220535	100.430	-0.500	0.020	0.510	100.430	-1.000	0.800																			1580060195.0	9.93	18.39
26/01/2020 17:36:36	26012020	260120	173636	100.360	12.208008	-56.220482	100.320	-0.030	-0.830	0.600	100.340	-2.000	0.900																			1580060196.0	10.83	20.06
26/01/2020 17:36:37	26012020	260120	173637	100.260	12.207997	-56.220427	100.300	0.340	-0.870	0.540	100.240	-2.400	0.900																			1580060197.0	11.83	21.91
26/01/2020 17:36:38	26012020	260120	173638	100.230	12.207987	-56.220377	100.400	0.420	-0.380	0.310	100.250	-2.300	0.900																			1580060198.0	11.72	21.71
26/01/2020 17:36:39	26012020	260120	173639	100.370	12.207978	-56.220328	100.540	0.370	-0.150	0.100	100.400	-1.600	0.500																			1580060199.0	10.81	20.02
26/01/2020 17:36:40	26012020	260120	173640	100.480	12.207978	-56.220328	100.590	0.360	-0.300	0.030	100.500	-1.600	0.400																			1580060200.0	10.32	19.11
26/01/2020 17:36:41	26012020	260120	173641	100.540	12.207970	-56.220278	100.630	0.300	-0.290	0.060	100.550	-1.700	0.400																			1580060201.0	10.73	19.87
26/01/2020 17:36:42	26012020	260120	173642	100.580	12.207948	-56.220177	100.710	0.140	-0.100	0.240	100.590	-1.600	0.500																			1580060202.0	11.18	20.71
26/01/2020 17:36:43	26012020	260120	173643	100.650	12.207938	-56.220127	100.730	-0.030	-0.090	0.410	100.660	-1.500	0.700																			1580060203.0	10.93	20.24
26/01/2020 17:36:44	26012020	260120	173644	100.650	12.207938	-56.220127	100.600	-0.140	-0.290	0.550	100.640	-1.600	0.800																			1580060204.0	10.72	19.85
26/01/2020 17:36:45	26012020	260120	173645	100.520	12.207917	-56.220025	100.420	-0.220	-0.470	0.670	100.480	-1.800	1.000																			1580060205.0	10.92	20.22
26/01/2020 17:36:46	26012020	260120	173646	100.330	12.207905	-56.219973	100.260	-0.300	-0.530	0.690	100.290	-1.900	1.000																			1580060206.0	11.17	20.69
26/01/2020 17:36:47	26012020	260120	173647	100.180	12.207893	-56.219922	100.200	-0.350	-0.500	0.560	100.160	-1.900	1.000																			1580060207.0	11.17	20.69
26/01/2020 17:36:48	26012020	260120	173648	100.140	12.207883	-56.219872	100.190	-0.350	-0.350	0.400	100.140	-1.800	0.800																			1580060208.0	11.10	20.56
26/01/2020 17:36:49	26012020	260120	173649	100.120	12.207872	-56.219820	100.120	-0.290	-0.140	0.240	100.110	-1.600	0.600																			1580060209.0	11.10	20.56
26/01/2020 17:36:50	26012020	260120	173650	100.060	12.207860	-56.219770	100.010	-0.100	-0.050	0.080	100.050	-1.500	0.600																			1580060210.0	11.02	20.41
26/01/2020 17:36:51	26012020	260120	173651	99.930	12.207848	-56.219718	99.920	0.210	-0.080	-0.090	99.900	-1.500	0.300																			1580060211.0	10.97	20.32
26/01/2020 17:36:52	26012020	260120	173652	99.850	12.207848	-56.219718	99.980	0.420	0.000	-0.310	99.850	-1.500	0.200																			1580060212.0	11.15	20.65
26/01/2020 17:36:53	26012020	260120	173653	99.940	12.207830	-56.219615	100.250	0.340	0.280	-0.520	99.990	-1.200	-0.100																			1580060213.0	11.23	20.80
26/01/2020 17:36:54	26012020	260120	173654	100.160	12.207822	-56.219565	100.590	0.060	0.500	-0.580	100.230	-1.100	-0.200																			1580060214.0	11.00	20.37
26/01/2020 17:36:55	26012020	260120	173655	100.570	12.207813	-56.219517	100.850	-0.070	0.200	-0.390	100.630	-1.000	-0.200																			1580060215.0	10.55	19.54
26/01/2020 17:36:56	26012020	260120	173656	100.810	12.207802	-56.219467	100.890	0.150	-0.640	0.110	100.820	-1.700	0.300																			1580060216.0	10.43	19.32
26/01/2020 17:36:57	26012020	260120	173657	100.810	12.207790	-56.219413	100.740	0.480	-1.400	0.590	100.780	-2.600	0.800																			1580060217.0	10.91	20.21
26/01/2020 17:36:58	26012020	260120	173658	100.650	12.207777	-56.219360	100.580	0.530	-1.410	0.770	100.610	-2.900	1.100																			1580060218.0	11.56	21.41
26/01/2020 17:36:59	26012020	260120	173659	100.480	12.207767	-56.219310	100.380	0.190	-0.720	0.750	100.440	-2.400	1.100	1014.60	26.20	26.30	19.80	19.90	837.00	67.00	67.00	375.00	29.10	356.00	10.10	91.00	4.50	60242	3364.00	27.60	27.60	1580060219.0	11.56	21.41
26/01/2020 17:37:00	26012020	260120	173700	100.290	12.207758	-56.219262	100.130	-0.240	-0.160	0.750	100.250	-1.700	1.100																			1580060220.0	10.87	20.13
26/01/2020 17:37:01	26012020	260120	173701	100.040	12.207747	-56.219213	99.860	-0.450	-0.150	0.750	99.990	-1.500	1.100																			1580060221.0	10.34	19.15
26/01/2020 17:37:02	26012020	260120	173702	99.790	12.207735	-56.219160	99.710	-0.510	-0.200	0.710	99.750	-1.600	1.100																			1580060222.0	10.77	19.95
26/01/2020 17:37:03	26012020	260120	173703	99.650	12.207723	-56.219107	99.670	-0.570	0.130	0.540	99.640	-1.400	0.900																			1580060223.0	11.51	21.32
26/01/2020 17:37:04	26012020	260120	173704	99.640	12.207712	-56.219057	99.760	-0.600	0.520	0.330	99.660	-1.000	0.700																			1580060224.0	11.52	21.34
26/01/2020 17:37:05	26012020	260120	173705	99.740	12.207712	-56.219057	99.950	-0.390	0.400	0.100	99.770	-0.900	0.500																			1580060225.0	10.95	20.28
26/01/2020 17:37:06	26012020	260120	173706	99.930	12.207690	-56.218953	100.200	-0.000	-0.050	-0.200	99.980	-1.300	0.200																			1580060226.0	10.78	19.96
26/01/2020 17:37:07	26012020	260120	173707	100.190	12.207680	-56.218902	100.440	0.320	-0.230	-0.360	100.230	-1.600	0.000																			1580060227.0	11.26	20.85
26/01/2020 17:37:08	26012020	260120	173708	100.420	12.207670	-56.218850	100.670	0.440	-0.050	-0.340	100.470	-1.500	-0.000																			1580060228.0	11.43	21.17
26/01/2020 17:37:09	26012020	260120	173709	100.650	12.207660	-56.218802	100.860	0.480	-0.010	-0.250	100.700	-1.400	0.000																			1580060229.0	10.93	20.24
26/01/2020 17:37:10	26012020	260120	173710	100.820	12.207652	-56.218753	100.860	0.540	-0.380	-0.050	100.830	-1.600	0.200																			1580060230.0	10.41	19.28
26/01/2020 17:37:11	26012020	260120	173711	100.790	12.207642	-56.218702	100.700	0.560	-0.870	0.240	100.760	-2.100	0.500																			1580060231.0	10.55	19.54
26/01/2020 17:37:12	26012020	260120	173712	100.610	12.207632	-56.218650	100.490	0.450	-1.010	0.480	100.560	-2.400	0.700																			1580060232.0	11.04	20.45
26/01/2020 17:37:13	26012020	260120	173713	100.400	12.207622	-56.218598	100.270	0.220	-0.860	0.640	100.360	-2.300	0.900																			1580060233.0	11.22	20.78
26/01/2020 17:37:14	26012020	260120	173714	100.160	12.207610	-56.218548	99.950	-0.100	-0.600	0.770	100.100	-2.100	1.100																			1580060234.0	10.98	20.33
26/01/2020 17:37:15	26012020	260120	173715	99.830	12.207600	-56.218498	99.610	-0.470	-0.280	0.850	99.760	-1.800	1.200																			1580060235.0	10.89	20.17
26/01/2020 17:37:16	26012020	260120	173716	99.500	12.207588	-56.218447	99.420	-0.700	-0.090	0.790	99.440	-1.500	1.200																			1580060236.0	10.97	20.32
26/01/2020 17:37:17	26012020	260120	173717	99.330	12.207577	-56.218395	99.420	-0.660	-0.120	0.620	99.320	-1.500	1.000																			1580060237.0	11.01	20.39
26/01/2020 17:37:18	26012020	260120	173718	99.360	12.207565	-56.218342	99.540	-0.470	-0.080	0.370	99.360	-1.500	0.900																			1580060238.0	11.23	20.80
26/01/2020 17:37:19	26012020	260120	173719	99.490	12.207553	-56.218290	99.700	-0.340	0.210	0.200	99.520	-1.300	0.600																			1580060239.0	11.51	21.32
26/01/2020 17:37:20	26012020	260120	173720	99.670	12.207542	-56.218240	99.910	-0.270	0.530	0.080	99.710	-1.000	0.500																			1580060240.0	11.33	20.98
26/01/2020 17:37:21	26012020	260120	173721	99.900	12.207530	-56.218192	100.090	-0.080	0.440	-0.010	99.940	-0.900	0.400																			1580060241.0	10.87	20.13
26/01/2020 17:37:22	26012020	260120	173722	100.090	12.207522	-56.218140	100.280	0.290	-0.120	-0.080	100.120	-1.300	0.300																			1580060242.0	10.64	19.71
26/01/2020 17:37:23	26012020	260120	173723	100.260	12.207512	-56.218087	100.450	0.630	-0.580	-0.130	100.290	-1.900	0.200																			1580060243.0	10.95	20.28
26/01/2020 17:37:24	26012020	260120	173724	100.400	12.207503	-56.218035	100.540	0.730	-0.530	-0.040	100.430	-2.000	0.300																			1580060244.0	11.37	21.06
26/01/2020 17:37:25	26012020	260120	173725	100.480	12.207495	-56.217987	100.480	0.560	-0.250	0.180	100.470	-1.700	0.400																			1580060245.0	11.13	20.61
26/01/2020 17:37:26	26012020	260120	173726	100.400	12.207485	-56.217938	100.280	0.330	-0.330	0.510	100.370	-1.600	0.700																			1580060246.0	10.53	19.50
26/01/2020 17:37:27	26012020	260120	173727	100.180	12.207475	-56.217888	100.030	0.170	-0.770	0.750	100.120	-2.000	1.000																			1580060247.0	10.36	19.19
26/01/2020 17:37:28	26012020	260120	173728	99.920	12.207465	-56.217835	99.860	0.050	-1.100	0.770	99.920	-2.200	1.100																			1580060248.0	10.88	20.15
26/01/2020 17:37:29	26012020	260120	173729	99.780	12.207453	-56.217782	99.780	-0.110	-0.970	0.800	99.780	-2.500	1.100																			1580060249.0	11.44	21.19
26/01/2020 17:37:30	26012020	260120	173730	99.700	12.207442	-56.217730	99.690	-0.340	-0.450	0.750	99.700	-2.400	1.100																			1580060250.0	11.45	21.21
26/01/2020 17:37:31	26012020	260120	173731	99.610	12.207430	-56.217680	99.600	-0.540	0.150	0.660	99.610	-1.400	1.000																			1580060251.0	11.15	20.65
26/01/2020 17:37:32	26012020	260120	173732	99.530	12.207418	-56.217632	99.630	-0.670	0.540	0.480	99.510	-1.000	0.900																			1580060252.0	10.85	20.09
26/01/2020 17:37:33	26012020	260120	173733	99.590	12.207408	-56.217580	99.920	-0.690	0.670	0.140	99.640	-0.800	0.600																			1580060253.0	10.83	20.06
26/01/2020 17:37:34	26012020	260120	173734	99.890	12.207397	-56.217530	100.210	-0.490	0.380	-0.170	99.950	-0.900	0.300																			1580060254.0	10.92	20.22
26/01/2020 17:37:35	26012020	260120	173735	100.150	12.207387	-56.217478	100.310	0.020	-0.300	-0.300	100.180	-1.500	0.100																			1580060255.0	10.96	20.30
26/01/2020 17:37:36	26012020	260120	173736	100.250	12.207377	-56.217423	100.340	0.610	-0.820	-0.260	100.260	-2.100	0.000																			1580060256.0	11.22	20.78
26/01/2020 17:37:37	26012020	260120	173737	100.260	12.207368	-56.217372	100.280	0.860	-0.710	-0.150	100.260	-2.200	0.200																			1580060257.0	11.60	21.48
26/01/2020 17:37:38	26012020	260120	173738	100.200	12.207360	-56.217322	100.200	0.620	-0.190	-0.070	100.180	-1.800	0.200																			1580060258.0	11.39	21.09
26/01/2020 17:37:39	26012020	260120	173739	100.130	12.207360	-56.217322	100.230	0.200	0.020	0.080	100.130	-1.600	0.300																			1580060259.0	10.70	19.82
26/01/2020 17:37:40	26012020	260120	173740	100.170	12.207343	-56.217223	100.330	-0.030	-0.360	0.230	100.170	-1.400	0.400																			1580060260.0	10.29	19.06
26/01/2020 17:37:41	26012020	260120	173741	100.260	12.207332	-56.217170	100.340	-0.120	-0.650	0.490	100.260	-1.800	0.600																			1580060261.0	10.73	19.87
26/01/2020 17:37:42	26012020	260120	173742	100.260	12.207317	-56.217118	100.190	-0.230	-0.390	0.790	100.240	-2.100	0.800																			1580060262.0	11.46	21.22
26/01/2020 17:37:43	26012020	260120	173743	100.080	12.207303	-56.217070	99.990	-0.310	0.030	0.800	100.080	-1.800	1.100																			1580060263.0	11.35	21.02
26/01/2020 17:37:44	26012020	260120	173744	99.900	12.207293	-56.217020	99.920	-0.240	-0.010	0.460	99.900	-1.400	1.100																			1580060264.0	10.74	19.89
26/01/2020 17:37:45	26012020	260120	173745	99.840	12.207283	-56.216968	99.910	-0.080	-0.380	0.070	99.840	-1.700	0.500																			1580060265.0	10.63	19.69
26/01/2020 17:37:46	26012020	260120	173746	99.840	12.207275	-56.216915	99.960	0.020	-0.490	-0.200	99.840	-1.800	0.400																			1580060266.0	11.16	20.67
26/01/2020 17:37:47	26012020	260120	173747	99.900	12.207265	-56.216863	100.030	-0.000	-0.210	-0.190	99.920	-1.700	0.100																			1580060267.0	11.48	21.26
26/01/2020 17:37:48	26012020	260120	173748	99.970	12.207255	-56.216813	100.050	0.010	-0.120	0.010	99.980	-1.500	0.300																			1580060268.0	11.11	20.58
26/01/2020 17:37:49	26012020	260120	173749	99.980	12.207245	-56.216763	100.010	0.160	-0.380	0.190	99.970	-1.700	0.500																			1580060269.0	10.68	19.78
26/01/2020 17:37:50	26012020	260120	173750	99.940	12.207233	-56.216710	100.000	0.300	-0.510	0.310	99.930	-1.900	0.600																			1580060270.0	10.98	20.33
26/01/2020 17:37:51	26012020	260120	173751	99.910	12.207223	-56.216658	99.990	0.220	-0.240	0.430	99.910	-1.900	0.700																			1580060271.0	11.39	21.09
26/01/2020 17:37:52	26012020	260120	173752	99.890	12.207213	-56.216608	100.020	-0.090	0.100	0.440	99.890	-1.700	0.800																			1580060272.0	11.23	20.80
26/01/2020 17:37:53	26012020	260120	173753	99.930	12.207203	-56.216560	100.110	-0.380	0.080	0.330	99.930	-1.300	0.700																			1580060273.0	10.76	19.93
26/01/2020 17:37:54	26012020	260120	173754	100.010	12.207193	-56.216508	100.150	-0.430	-0.230	0.260	100.030	-1.300	0.700																			1580060274.0	10.65	19.72
26/01/2020 17:37:55	26012020	260120	173755	100.050	12.207182	-56.216457	100.050	-0.260	-0.390	0.230	100.050	-1.600	0.600																			1580060275.0	11.07	20.50
26/01/2020 17:37:56	26012020	260120	173756	99.950	12.207170	-56.216405	99.930	-0.050	-0.270	0.110	99.950	-1.800	0.600																			1580060276.0	11.38	21.08
26/01/2020 17:37:57	26012020	260120	173757	99.840	12.207160	-56.216353	99.950	0.100	-0.110	-0.110	99.840	-1.700	0.400																			1580060277.0	11.18	20.71
26/01/2020 17:37:58	26012020	260120	173758	99.890	12.207150	-56.216303	100.120	0.210	-0.140	-0.320	99.890	-1.500	0.100																			1580060278.0	10.85	20.09
26/01/2020 17:37:59	26012020	260120	173759	100.090	12.207142	-56.216253	100.310	0.330	-0.410	-0.400	100.090	-1.600	0.000	1014.60	26.20	26.30	19.70	19.80	840.00	67.00	67.00	375.00	29.10	356.00	10.10	91.00	4.50	60206	3640.00	27.70	27.60	1580060279.0	10.78	19.96
26/01/2020 17:38:00	26012020	260120	173800	100.230	12.207132	-56.216200	100.270	0.460	-0.680	-0.160	100.250	-1.800	-0.100																			1580060280.0	10.99	20.35
26/01/2020 17:38:01	26012020	260120	173801	100.160	12.207122	-56.216148	100.060	0.420	-0.620	0.270	100.160	-2.100	0.500																			1580060281.0	11.28	20.89
26/01/2020 17:38:02	26012020	260120	173802	99.940	12.207110	-56.216097	99.910	0.130	-0.230	0.560	99.940	-2.000	0.600																			1580060282.0	11.34	21.00
26/01/2020 17:38:03	26012020	260120	173803	99.840	12.207100	-56.216048	99.920	-0.310	0.160	0.540	99.840	-1.600	0.900																			1580060283.0	11.02	20.41
26/01/2020 17:38:04	26012020	260120	173804	99.850	12.207090	-56.215998	99.900	-0.640	0.150	0.500	99.850	-1.300	0.900																			1580060284.0	10.66	19.74
26/01/2020 17:38:05	26012020	260120	173805	99.800	12.207090	-56.215998	99.740	-0.580	-0.360	0.650	99.800	-1.500	0.900																			1580060285.0	10.64	19.71
26/01/2020 17:38:06	26012020	260120	173806	99.640	12.207065	-56.215893	99.620	-0.170	-0.880	0.730	99.640	-1.800	1.000																			1580060286.0	11.07	20.50
26/01/2020 17:38:07	26012020	260120	173807	99.540	12.207053	-56.215840	99.610	0.190	-0.730	0.580	99.540	-2.300	1.100																			1580060287.0	11.69	21.65
26/01/2020 17:38:08	26012020	260120	173808	99.550	12.207042	-56.215788	99.680	0.180	-0.000	0.290	99.550	-2.100	0.900																			1580060288.0	11.77	21.80
26/01/2020 17:38:09	26012020	260120	173809	99.640	12.207033	-56.215740	99.770	0.020	0.540	-0.010	99.640	-1.400	0.600																			1580060289.0	11.01	20.39
26/01/2020 17:38:10	26012020	260120	173810	99.750	12.207025	-56.215692	99.940	0.040	0.450	-0.260	99.750	-0.900	0.300																			1580060290.0	10.34	19.15
26/01/2020 17:38:11	26012020	260120	173811	99.910	12.207017	-56.215640	100.170	0.190	-0.010	-0.300	99.910	-1.000	0.100																			1580060291.0	10.52	19.48
26/01/2020 17:38:12	26012020	260120	173812	100.140	12.207017	-56.215640	100.380	0.220	-0.390	-0.070	100.140	-1.400	0.000																			1580060292.0	11.13	20.61
26/01/2020 17:38:13	26012020	260120	173813	100.320	12.206997	-56.215535	100.450	0.090	-0.540	0.240	100.320	-1.800	0.300																			1580060293.0	11.39	21.09
26/01/2020 17:38:14	26012020	260120	173814	100.340	12.206997	-56.215535	100.250	0.030	-0.680	0.580	100.340	-1.900	0.600																			1580060294.0	11.14	20.63
26/01/2020 17:38:15	26012020	260120	173815	100.130	12.206985	-56.215485	99.950	0.170	-0.900	0.730	100.130	-2.100	0.900																			1580060295.0	10.87	20.13
26/01/2020 17:38:16	26012020	260120	173816	99.830	12.206963	-56.215382	99.750	0.340	-0.960	0.660	99.830	-2.300	1.100																			1580060296.0	11.02	20.41
26/01/2020 17:38:17	26012020	260120	173817	99.650	12.206953	-56.215330	99.650	0.290	-0.650	0.480	99.650	-2.200	0.900																			1580060297.0	11.31	20.95
26/01/2020 17:38:18	26012020	260120	173818	99.550	12.206945	-56.215278	99.630	-0.040	-0.060	0.290	99.550	-2.000	0.800																			1580060298.0	11.32	20.96
26/01/2020 17:38:19	26012020	260120	173819	99.540	12.206933	-56.215228	99.710	-0.480	0.540	0.180	99.540	-1.100	0.500																			1580060299.0	11.02	20.41
26/01/2020 17:38:20	26012020	260120	173820	99.640	12.206923	-56.215180	99.890	-0.750	0.800	0.120	99.640	-0.900	0.500																			1580060300.0	10.77	19.95
26/01/2020 17:38:21	26012020	260120	173821	99.840	12.206912	-56.215130	100.080	-0.610	0.460	0.110	99.840	-0.600	0.500																			1580060301.0	10.67	19.76
26/01/2020 17:38:22	26012020	260120	173822	100.030	12.206912	-56.215130	100.250	-0.190	-0.150	0.060	100.030	-1.000	0.400																			1580060302.0	10.88	20.15
26/01/2020 17:38:23	26012020	260120	173823	100.200	12.206890	-56.215023	100.430	0.140	-0.460	0.070	100.200	-1.600	0.400																			1580060303.0	11.39	21.09
26/01/2020 17:38:24	26012020	260120	173824	100.370	12.206880	-56.214972	100.550	0.270	-0.540	0.230	100.370	-1.900	0.400																			1580060304.0	11.49	21.28
26/01/2020 17:38:25	26012020	260120	173825	100.450	12.206868	-56.214922	100.490	0.340	-0.750	0.370	100.450	-1.900	0.600																			1580060305.0	11.02	20.41
26/01/2020 17:38:26	26012020	260120	173826	100.390	12.206868	-56.214922	100.290	0.450	-1.010	0.550	100.390	-2.200	0.700																			1580060306.0	10.77	19.95
26/01/2020 17:38:27	26012020	260120	173827	100.160	12.206847	-56.214818	99.990	0.460	-0.900	0.760	100.160	-2.400	0.900																			1580060307.0	11.10	20.56
26/01/2020 17:38:28	26012020	260120	173828	99.860	12.206837	-56.214767	99.800	0.290	-0.400	0.690	99.860	-2.300	1.100																			1580060308.0	11.34	21.00
26/01/2020 17:38:29	26012020	260120	173829	99.690	12.206827	-56.214717	99.760	0.060	0.040	0.460	99.690	-1.800	1.000																			1580060309.0	11.06	20.48
26/01/2020 17:38:30	26012020	260120	173830	99.670	12.206818	-56.214667	99.820	-0.060	0.140	0.310	99.680	-1.400	0.800																			1580060310.0	10.77	19.95
26/01/2020 17:38:31	26012020	260120	173831	99.750	12.206808	-56.214615	99.870	-0.170	0.190	0.220	99.750	-1.300	0.600																			1580060311.0	10.92	20.22
26/01/2020 17:38:32	26012020	260120	173832	99.800	12.206808	-56.214615	99.960	-0.390	0.360	0.240	99.800	-1.200	0.600																			1580060312.0	11.29	20.91
26/01/2020 17:38:33	26012020	260120	173833	99.910	12.206798	-56.214562	100.220	-0.630	0.390	0.350	99.910	-1.000	0.600																			1580060313.0	11.19	20.72
26/01/2020 17:38:34	26012020	260120	173834	100.170	12.206775	-56.214462	100.450	-0.590	-0.020	0.510	100.170	-1.000	0.700																			1580060314.0	10.86	20.11
26/01/2020 17:38:35	26012020	260120	173835	100.370	12.206763	-56.214410	100.400	-0.170	-0.760	0.630	100.370	-1.400	0.800																			1580060315.0	10.84	20.08
26/01/2020 17:38:36	26012020	260120	173836	100.310	12.206750	-56.214357	100.190	0.340	-1.160	0.630	100.310	-2.200	1.000																			1580060316.0	11.28	20.89
26/01/2020 17:38:37	26012020	260120	173837	100.100	12.206740	-56.214305	100.060	0.550	-0.860	0.470	100.100	-2.600	1.000																			1580060317.0	11.67	21.61
26/01/2020 17:38:38	26012020	260120	173838	100.010	12.206732	-56.214255	100.110	0.390	-0.280	0.210	100.010	-2.300	0.800																			1580060318.0	11.36	21.04
26/01/2020 17:38:39	26012020	260120	173839	100.040	12.206732	-56.214255	100.080	0.120	-0.020	-0.090	100.040	-1.700	0.500																			1580060319.0	10.70	19.82
26/01/2020 17:38:40	26012020	260120	173840	100.020	12.206723	-56.214205	100.030	-0.010	-0.070	-0.240	100.020	-1.400	0.300																			1580060320.0	10.53	19.50
26/01/2020 17:38:41	26012020	260120	173841	99.950	12.206705	-56.214102	100.070	0.040	-0.140	-0.130	99.950	-1.500	0.200																			1580060321.0	10.96	20.30
26/01/2020 17:38:42	26012020	260120	173842	99.990	12.206693	-56.214050	100.160	0.150	-0.160	0.080	99.990	-1.500	0.200																			1580060322.0	11.28	20.89
26/01/2020 17:38:43	26012020	260120	173843	100.080	12.206693	-56.214050	100.220	0.090	-0.130	0.190	100.080	-1.600	0.500																			1580060323.0	11.27	20.87
26/01/2020 17:38:44	26012020	260120	173844	100.120	12.206682	-56.213998	100.290	-0.210	0.050	0.290	100.120	-1.500	0.500																			1580060324.0	11.23	20.80
26/01/2020 17:38:45	26012020	260120	173845	100.200	12.206660	-56.213897	100.360	-0.500	0.110	0.390	100.200	-1.300	0.600																			1580060325.0	11.09	20.54
26/01/2020 17:38:46	26012020	260120	173846	100.270	12.206648	-56.213847	100.360	-0.400	-0.330	0.400	100.270	-1.300	0.700																			1580060326.0	10.77	19.95
26/01/2020 17:38:47	26012020	260120	173847	100.260	12.206638	-56.213793	100.260	0.030	-0.930	0.280	100.260	-1.700	0.700																			1580060327.0	10.86	20.11
26/01/2020 17:38:48	26012020	260120	173848	100.160	12.206627	-56.213740	100.140	0.350	-0.980	0.110	100.160	-2.300	0.600																			1580060328.0	11.48	21.26
26/01/2020 17:38:49	26012020	260120	173849	100.060	12.206617	-56.213688	100.100	0.280	-0.360	-0.000	100.060	-2.400	0.400																			1580060329.0	11.74	21.74
26/01/2020 17:38:50	26012020	260120	173850	100.040	12.206608	-56.213638	100.100	0.010	0.260	0.020	100.040	-1.800	0.300																			1580060330.0	11.19	20.72
26/01/2020 17:38:51	26012020	260120	173851	100.060	12.206598	-56.213590	100.110	-0.100	0.270	0.080	100.060	-1.100	0.400																			1580060331.0	10.48	19.41
26/01/2020 17:38:52	26012020	260120	173852	100.060	12.206587	-56.213538	100.150	-0.020	-0.100	0.160	100.060	-1.100	0.400																			1580060332.0	10.53	19.50
26/01/2020 17:38:53	26012020	260120	173853	100.100	12.206577	-56.213485	100.240	-0.010	-0.270	0.410	100.100	-1.500	0.500																			1580060333.0	11.22	20.78
26/01/2020 17:38:54	26012020	260120	173854	100.180	12.206577	-56.213485	100.360	-0.120	-0.210	0.690	100.180	-1.700	0.800																			1580060334.0	11.55	21.39
26/01/2020 17:38:55	26012020	260120	173855	100.280	12.206552	-56.213383	100.410	-0.180	-0.270	0.820	100.280	-1.600	1.100																			1580060335.0	11.18	20.71
26/01/2020 17:38:56	26012020	260120	173856	100.330	12.206538	-56.213333	100.390	-0.050	-0.460	0.890	100.330	-1.700	1.200																			1580060336.0	10.89	20.17
26/01/2020 17:38:57	26012020	260120	173857	100.300	12.206527	-56.213282	100.400	0.140	-0.490	0.630	100.300	-1.900	1.200																			1580060337.0	11.09	20.54
26/01/2020 17:38:58	26012020	260120	173858	100.340	12.206518	-56.213230	100.480	0.180	-0.260	0.160	100.340	-1.900	1.000																			1580060338.0	11.27	20.87
26/01/2020 17:38:59	26012020	260120	173859	100.430	12.206510	-56.213178	100.520	0.090	-0.110	-0.070	100.430	-1.600	0.500	1014.60	26.20	26.30	19.90	19.90	834.00	68.00	68.00	375.00	29.10	354.00	9.70	85.00	4.10	59918	3726.00	27.60	27.60	1580060339.0	11.09	20.54
26/01/2020 17:39:00	26012020	260120	173900	100.450	12.206502	-56.213128	100.450	0.030	-0.290	0.000	100.450	-1.500	0.300																			1580060340.0	10.79	19.98
26/01/2020 17:39:01	26012020	260120	173901	100.360	12.206490	-56.213075	100.280	0.090	-0.620	0.220	100.360	-1.700	0.400																			1580060341.0	10.91	20.21
26/01/2020 17:39:02	26012020	260120	173902	100.180	12.206480	-56.213022	100.090	0.130	-0.680	0.390	100.180	-2.000	0.600																			1580060342.0	11.31	20.95
26/01/2020 17:39:03	26012020	260120	173903	100.010	12.206480	-56.213022	100.090	-0.060	-0.220	0.430	100.010	-2.100	0.700																			1580060343.0	11.57	21.43
26/01/2020 17:39:04	26012020	260120	173904	100.030	12.206457	-56.212920	100.230	-0.380	0.330	0.350	100.030	-1.600	0.800																			1580060344.0	11.32	20.96
26/01/2020 17:39:05	26012020	260120	173905	100.160	12.206447	-56.212872	100.310	-0.480	0.350	0.220	100.160	-1.100	0.700																			1580060345.0	10.72	19.85
26/01/2020 17:39:06	26012020	260120	173906	100.220	12.206435	-56.212820	100.290	-0.210	-0.130	0.060	100.220	-1.000	0.600																			1580060346.0	10.59	19.61
26/01/2020 17:39:07	26012020	260120	173907	100.180	12.206423	-56.212767	100.220	0.260	-0.540	-0.000	100.180	-1.800	0.400																			1580060347.0	11.15	20.65
26/01/2020 17:39:08	26012020	260120	173908	100.130	12.206423	-56.212767	100.250	0.570	-0.550	-0.160	100.130	-1.900	0.300																			1580060348.0	11.63	21.54
26/01/2020 17:39:09	26012020	260120	173909	100.170	12.206405	-56.212662	100.300	0.540	-0.340	-0.300	100.170	-1.800	0.100																			1580060349.0	11.49	21.28
26/01/2020 17:39:10	26012020	260120	173910	100.210	12.206397	-56.212612	100.310	0.210	-0.160	0.020	100.210	-1.700	0.000																			1580060350.0	11.07	20.50
26/01/2020 17:39:11	26012020	260120	173911	100.220	12.206385	-56.212562	100.340	-0.210	-0.090	0.540	100.220	-1.500	0.400																			1580060351.0	10.85	20.09
26/01/2020 17:39:12	26012020	260120	173912	100.250	12.206372	-56.212510	100.280	-0.500	-0.080	0.820	100.250	-1.500	0.900																			1580060352.0	10.88	20.15
26/01/2020 17:39:13	26012020	260120	173913	100.170	12.206358	-56.212460	100.090	-0.550	-0.180	0.880	100.170	-1.500	1.200																			1580060353.0	11.00	20.37
26/01/2020 17:39:14	26012020	260120	173914	99.980	12.206347	-56.212410	99.920	-0.320	-0.520	0.720	99.980	-1.600	1.200																			1580060354.0	11.02	20.41
26/01/2020 17:39:15	26012020	260120	173915	99.820	12.206335	-56.212357	99.770	0.100	-0.900	0.450	99.820	-1.900	1.100																			1580060355.0	11.15	20.65
26/01/2020 17:39:16	26012020	260120	173916	99.690	12.206325	-56.212302	99.670	0.400	-0.840	0.160	99.690	-2.300	0.800																			1580060356.0	11.48	21.26
26/01/2020 17:39:17	26012020	260120	173917	99.590	12.206325	-56.212302	99.640	0.380	-0.230	-0.070	99.590	-2.200	0.500																			1580060357.0	11.64	21.56
26/01/2020 17:39:18	26012020	260120	173918	99.570	12.206315	-56.212250	99.680	0.160	0.370	-0.100	99.570	-1.600	0.300																			1580060358.0	11.21	20.76
26/01/2020 17:39:19	26012020	260120	173919	99.600	12.206298	-56.212152	99.810	-0.030	0.470	-0.010	99.600	-1.000	0.200																			1580060359.0	10.62	19.67
26/01/2020 17:39:20	26012020	260120	173920	99.730	12.206288	-56.212100	99.960	-0.060	0.110	0.250	99.730	-0.900	0.300																			1580060360.0	10.64	19.71
26/01/2020 17:39:21	26012020	260120	173921	99.860	12.206288	-56.212100	100.020	0.000	-0.340	0.570	99.860	-1.300	0.600																			1580060361.0	11.11	20.58
26/01/2020 17:39:22	26012020	260120	173922	99.900	12.206277	-56.212047	100.060	0.050	-0.500	0.760	99.900	-1.700	0.900																			1580060362.0	11.50	21.30
26/01/2020 17:39:23	26012020	260120	173923	99.940	12.206265	-56.211993	100.060	-0.040	-0.340	0.790	99.940	-1.900	1.100																			1580060363.0	11.49	21.28
26/01/2020 17:39:24	26012020	260120	173924	99.950	12.206243	-56.211892	99.990	-0.200	-0.220	0.620	99.950	-1.700	1.100																			1580060364.0	11.13	20.61
26/01/2020 17:39:25	26012020	260120	173925	99.880	12.206243	-56.211892	99.900	-0.180	-0.440	0.410	99.880	-1.600	0.900																			1580060365.0	10.76	19.93
26/01/2020 17:39:26	26012020	260120	173926	99.780	12.206233	-56.211842	99.810	0.100	-0.800	0.270	99.780	-1.800	0.800																			1580060366.0	10.84	20.08
26/01/2020 17:39:27	26012020	260120	173927	99.690	12.206223	-56.211790	99.710	0.360	-0.800	0.160	99.690	-2.200	0.600																			1580060367.0	11.32	20.96
26/01/2020 17:39:28	26012020	260120	173928	99.600	12.206203	-56.211683	99.690	0.240	-0.270	0.110	99.600	-2.200	0.500																			1580060368.0	11.60	21.48
26/01/2020 17:39:29	26012020	260120	173929	99.610	12.206203	-56.211683	99.810	-0.190	0.350	0.240	99.610	-1.700	0.500																			1580060369.0	11.29	20.91
26/01/2020 17:39:30	26012020	260120	173930	99.730	12.206183	-56.211585	99.950	-0.460	0.440	0.450	99.730	-1.100	0.600																			1580060370.0	10.71	19.83
26/01/2020 17:39:31	26012020	260120	173931	99.850	12.206170	-56.211535	100.040	-0.250	-0.080	0.550	99.850	-1.000	0.800																			1580060371.0	10.54	19.52
26/01/2020 17:39:32	26012020	260120	173932	99.920	12.206158	-56.211480	100.110	0.180	-0.590	0.480	99.920	-1.500	0.900																			1580060372.0	11.10	20.56
26/01/2020 17:39:33	26012020	260120	173933	99.980	12.206148	-56.211425	100.150	0.390	-0.510	0.270	99.980	-2.000	0.700																			1580060373.0	11.75	21.76
26/01/2020 17:39:34	26012020	260120	173934	100.030	12.206148	-56.211425	100.200	0.210	-0.010	0.030	100.030	-1.900	0.600																			1580060374.0	11.65	21.58
26/01/2020 17:39:35	26012020	260120	173935	100.100	12.206132	-56.211327	100.300	-0.100	0.240	-0.050	100.100	-1.400	0.400																			1580060375.0	10.94	20.26
26/01/2020 17:39:36	26012020	260120	173936	100.200	12.206123	-56.211277	100.310	-0.180	-0.130	-0.040	100.200	-1.200	0.300																			1580060376.0	10.43	19.32
26/01/2020 17:39:37	26012020	260120	173937	100.200	12.206112	-56.211223	100.220	-0.000	-0.750	0.100	100.200	-1.500	0.300																			1580060377.0	10.70	19.82
26/01/2020 17:39:38	26012020	260120	173938	100.090	12.206112	-56.211223	100.130	0.190	-0.980	0.380	100.090	-2.200	0.400																			1580060378.0	11.40	21.11
26/01/2020 17:39:39	26012020	260120	173939	100.020	12.206088	-56.211117	100.130	0.180	-0.660	0.550	100.020	-2.400	0.700																			1580060379.0	11.71	21.69
26/01/2020 17:39:40	26012020	260120	173940	100.050	12.206088	-56.211117	100.140	-0.000	-0.200	0.570	100.050	-2.100	0.900																			1580060380.0	11.32	20.96
26/01/2020 17:39:41	26012020	260120	173941	100.070	12.206077	-56.211068	100.100	-0.200	0.080	0.460	100.070	-1.600	0.900																			1580060381.0	10.83	20.06
26/01/2020 17:39:42	26012020	260120	173942	100.020	12.206067	-56.211018	100.020	-0.240	0.080	0.240	100.020	-1.300	0.800																			1580060382.0	10.77	19.95
26/01/2020 17:39:43	26012020	260120	173943	99.940	12.206055	-56.210967	99.980	-0.080	-0.080	-0.020	99.940	-1.300	0.600																			1580060383.0	11.00	20.37
26/01/2020 17:39:44	26012020	260120	173944	99.910	12.206045	-56.210915	99.990	0.130	-0.220	-0.220	99.910	-1.500	0.300																			1580060384.0	11.25	20.84
26/01/2020 17:39:45	26012020	260120	173945	99.920	12.206027	-56.210810	100.010	0.240	-0.230	-0.260	99.920	-1.600	0.100																			1580060385.0	11.39	21.09
26/01/2020 17:39:46	26012020	260120	173946	99.950	12.206017	-56.210758	100.080	0.150	-0.090	-0.070	99.950	-1.600	0.100																			1580060386.0	11.31	20.95
26/01/2020 17:39:47	26012020	260120	173947	100.000	12.206007	-56.210708	100.120	-0.050	-0.030	0.240	100.000	-1.500	0.300																			1580060387.0	11.10	20.56
26/01/2020 17:39:48	26012020	260120	173948	100.030	12.206007	-56.210708	100.150	-0.210	-0.200	0.460	100.030	-1.400	0.600																			1580060388.0	10.88	20.15
26/01/2020 17:39:49	26012020	260120	173949	100.040	12.205983	-56.210605	100.150	-0.220	-0.430	0.670	100.040	-1.600	0.800																			1580060389.0	10.95	20.28
26/01/2020 17:39:50	26012020	260120	173950	100.040	12.205983	-56.210605	100.150	-0.100	-0.610	0.750	100.040	-1.800	1.000																			1580060390.0	11.19	20.72
26/01/2020 17:39:51	26012020	260120	173951	100.040	12.205958	-56.210502	100.070	0.110	-0.710	0.650	100.040	-2.000	1.100																			1580060391.0	11.25	20.84
26/01/2020 17:39:52	26012020	260120	173952	99.960	12.205958	-56.210502	99.940	0.260	-0.580	0.410	99.960	-2.100	1.000																			1580060392.0	11.27	20.87
26/01/2020 17:39:53	26012020	260120	173953	99.840	12.205938	-56.210398	99.870	0.210	-0.140	0.140	99.840	-2.000	0.700																			1580060393.0	11.28	20.89
26/01/2020 17:39:54	26012020	260120	173954	99.780	12.205938	-56.210398	99.900	0.050	0.170	-0.040	99.780	-1.500	0.500																			1580060394.0	11.07	20.50
26/01/2020 17:39:55	26012020	260120	173955	99.810	12.205922	-56.210297	100.010	-0.040	0.090	-0.050	99.810	-1.200	0.300																			1580060395.0	10.76	19.93
26/01/2020 17:39:56	26012020	260120	173956	99.910	12.205912	-56.210245	100.080	-0.080	-0.160	0.200	99.910	-1.300	0.300																			1580060396.0	10.91	20.21
26/01/2020 17:39:57	26012020	260120	173957	99.960	12.205898	-56.210193	100.050	-0.100	-0.330	0.450	99.960	-1.700	0.700																			1580060397.0	11.30	20.93
26/01/2020 17:39:58	26012020	260120	173958	99.930	12.205887	-56.210142	100.010	-0.060	-0.440	0.510	99.930	-1.700	0.800																			1580060398.0	11.39	21.09
26/01/2020 17:39:59	26012020	260120	173959	99.880	12.205877	-56.210088	99.990	0.040	-0.510	0.450	99.880	-1.900	0.800	1014.60	26.20	26.30	19.90	20.00	834.00	68.00	68.00	375.00	29.10	355.00	10.10	88.00	4.40	59897	3260.00	27.60	27.60	1580060399.0	11.25	20.84
26/01/2020 17:40:00	26012020	260120	174000	99.860	12.205877	-56.210088	100.050	0.070	-0.420	0.290	99.860	-1.900	0.800																			1580060400.0	11.23	20.80
26/01/2020 17:40:01	26012020	260120	174001	99.920	12.205857	-56.209985	100.110	-0.070	-0.110	0.250	99.920	-1.800	0.600																			1580060401.0	11.26	20.85
26/01/2020 17:40:02	26012020	260120	174002	99.990	12.205847	-56.209935	100.180	-0.320	0.210	0.340	99.990	-1.500	0.600																			1580060402.0	11.10	20.56
26/01/2020 17:40:03	26012020	260120	174003	100.040	12.205835	-56.209885	100.240	-0.400	0.090	0.350	100.040	-1.200	0.700																			1580060403.0	10.81	20.02
26/01/2020 17:40:04	26012020	260120	174004	100.120	12.205823	-56.209833	100.270	-0.130	-0.440	0.300	100.120	-1.300	0.700																			1580060404.0	10.75	19.91
26/01/2020 17:40:05	26012020	260120	174005	100.150	12.205823	-56.209833	100.190	0.280	-0.770	0.280	100.150	-1.800	0.600																			1580060405.0	11.23	20.80
26/01/2020 17:40:06	26012020	260120	174006	100.070	12.205802	-56.209727	100.110	0.510	-0.550	0.280	100.070	-2.200	0.600																			1580060406.0	11.69	21.65
26/01/2020 17:40:07	26012020	260120	174007	99.990	12.205792	-56.209677	100.150	0.400	-0.030	0.290	99.990	-1.900	0.600																			1580060407.0	11.45	21.21
26/01/2020 17:40:08	26012020	260120	174008	100.040	12.205792	-56.209677	100.310	0.140	0.230	0.220	100.040	-1.400	0.600																			1580060408.0	10.86	20.11
26/01/2020 17:40:09	26012020	260120	174009	100.220	12.205773	-56.209577	100.450	-0.030	-0.060	0.140	100.220	-1.200	0.600																			1580060409.0	10.53	19.50
26/01/2020 17:40:10	26012020	260120	174010	100.360	12.205763	-56.209525	100.430	-0.070	-0.500	0.310	100.360	-1.500	0.500																			1580060410.0	10.83	20.06
26/01/2020 17:40:11	26012020	260120	174011	100.320	12.205752	-56.209472	100.280	-0.020	-0.710	0.630	100.320	-2.100	0.900																			1580060411.0	11.39	21.09
26/01/2020 17:40:12	26012020	260120	174012	100.170	12.205738	-56.209420	100.140	0.000	-0.590	0.720	100.170	-2.100	1.000																			1580060412.0	11.53	21.35
26/01/2020 17:40:13	26012020	260120	174013	100.030	12.205728	-56.209368	100.030	-0.080	-0.260	0.490	100.030	-2.000	1.100																			1580060413.0	11.32	20.96
26/01/2020 17:40:14	26012020	260120	174014	99.930	12.205718	-56.209318	100.000	-0.250	-0.070	0.220	99.930	-1.700	0.800																			1580060414.0	11.04	20.45
26/01/2020 17:40:15	26012020	260120	174015	99.900	12.205718	-56.209318	100.120	-0.380	0.030	0.110	99.900	-1.500	0.600																			1580060415.0	10.89	20.17
26/01/2020 17:40:16	26012020	260120	174016	100.040	12.205698	-56.209215	100.340	-0.430	0.110	0.050	100.040	-1.400	0.400																			1580060416.0	11.06	20.48
26/01/2020 17:40:17	26012020	260120	174017	100.270	12.205698	-56.209215	100.500	-0.270	-0.090	0.130	100.270	-1.300	0.400																			1580060417.0	11.08	20.52
26/01/2020 17:40:18	26012020	260120	174018	100.380	12.205675	-56.209112	100.450	0.120	-0.550	0.350	100.380	-1.500	0.500																			1580060418.0	11.01	20.39
26/01/2020 17:40:19	26012020	260120	174019	100.310	12.205675	-56.209112	100.300	0.440	-0.690	0.410	100.310	-2.000	0.700																			1580060419.0	11.32	20.96
26/01/2020 17:40:20	26012020	260120	174020	100.170	12.205652	-56.209007	100.230	0.440	-0.360	0.240	100.170	-2.100	0.700																			1580060420.0	11.62	21.52
26/01/2020 17:40:21	26012020	260120	174021	100.140	12.205652	-56.209007	100.250	0.210	0.030	0.090	100.140	-1.800	0.600																			1580060421.0	11.25	20.84
26/01/2020 17:40:22	26012020	260120	174022	100.160	12.205637	-56.208907	100.190	0.030	-0.000	0.070	100.160	-1.400	0.400																			1580060422.0	10.72	19.85
26/01/2020 17:40:23	26012020	260120	174023	100.080	12.205637	-56.208907	100.050	0.030	-0.380	0.210	100.080	-1.600	0.500																			1580060423.0	10.71	19.83
26/01/2020 17:40:24	26012020	260120	174024	99.940	12.205615	-56.208802	100.130	0.150	-0.590	0.370	99.940	-1.800	0.600																			1580060424.0	11.22	20.78
26/01/2020 17:40:25	26012020	260120	174025	100.030	12.205615	-56.208802	100.320	0.110	-0.250	0.480	100.030	-2.000	0.700																			1580060425.0	11.61	21.50
26/01/2020 17:40:26	26012020	260120	174026	100.210	12.205590	-56.208698	100.410	-0.160	0.240	0.440	100.210	-1.700	0.800																			1580060426.0	11.42	21.15
26/01/2020 17:40:27	26012020	260120	174027	100.280	12.205590	-56.208698	100.350	-0.390	0.280	0.550	100.280	-1.200	0.800																			1580060427.0	10.78	19.96
26/01/2020 17:40:28	26012020	260120	174028	100.210	12.205568	-56.208600	100.280	-0.300	-0.170	0.720	100.210	-1.100	0.900																			1580060428.0	10.51	19.46
26/01/2020 17:40:29	26012020	260120	174029	100.150	12.205568	-56.208600	100.320	-0.030	-0.600	0.450	100.150	-1.600	1.000																			1580060429.0	10.99	20.35
26/01/2020 17:40:30	26012020	260120	174030	100.220	12.205547	-56.208493	100.350	0.200	-0.800	0.160	100.220	-2.000	0.800																			1580060430.0	11.48	21.26
26/01/2020 17:40:31	26012020	260120	174031	100.230	12.205537	-56.208442	100.160	0.290	-0.750	0.170	100.230	-2.200	0.500																			1580060431.0	11.42	21.15
26/01/2020 17:40:32	26012020	260120	174032	100.030	12.205527	-56.208390	99.940	0.190	-0.470	0.310	100.030	-2.200	0.500																			1580060432.0	11.24	20.82
26/01/2020 17:40:33	26012020	260120	174033	99.820	12.205527	-56.208390	99.870	0.020	-0.200	0.500	99.820	-1.900	0.700																			1580060433.0	11.08	20.52
26/01/2020 17:40:34	26012020	260120	174034	99.760	12.205507	-56.208288	99.910	-0.110	-0.150	0.530	99.760	-1.600	0.800																			1580060434.0	10.91	20.21
26/01/2020 17:40:35	26012020	260120	174035	99.800	12.205507	-56.208288	99.960	-0.180	-0.160	0.410	99.800	-1.600	0.800																			1580060435.0	11.02	20.41
26/01/2020 17:40:36	26012020	260120	174036	99.860	12.205495	-56.208237	100.000	-0.170	-0.080	0.400	99.860	-1.600	0.700																			1580060436.0	11.28	20.89
26/01/2020 17:40:37	26012020	260120	174037	99.890	12.205473	-56.208133	100.060	-0.050	-0.020	0.260	99.890	-1.500	0.700																			1580060437.0	11.32	20.96
26/01/2020 17:40:38	26012020	260120	174038	99.960	12.205462	-56.208082	100.140	0.120	-0.040	0.010	99.960	-1.400	0.600																			1580060438.0	11.19	20.72
26/01/2020 17:40:39	26012020	260120	174039	100.050	12.205453	-56.208028	100.210	0.150	-0.060	-0.140	100.050	-1.400	0.300																			1580060439.0	11.17	20.69
26/01/2020 17:40:40	26012020	260120	174040	100.120	12.205453	-56.208028	100.300	-0.060	0.050	-0.130	100.120	-1.500	0.200																			1580060440.0	11.22	20.78
26/01/2020 17:40:41	26012020	260120	174041	100.230	12.205433	-56.207927	100.440	-0.330	0.150	0.050	100.230	-1.400	0.200																			1580060441.0	11.11	20.58
26/01/2020 17:40:42	26012020	260120	174042	100.360	12.205422	-56.207878	100.510	-0.310	-0.140	0.280	100.360	-1.300	0.400																			1580060442.0	10.81	20.02
26/01/2020 17:40:43	26012020	260120	174043	100.420	12.205422	-56.207878	100.510	0.060	-0.760	0.430	100.420	-1.500	0.600																			1580060443.0	10.74	19.89
26/01/2020 17:40:44	26012020	260120	174044	100.400	12.205398	-56.207773	100.450	0.490	-1.140	0.470	100.400	-2.200	0.800																			1580060444.0	11.20	20.74
26/01/2020 17:40:45	26012020	260120	174045	100.350	12.205398	-56.207773	100.360	0.630	-0.870	0.330	100.350	-2.500	0.800																			1580060445.0	11.65	21.58
26/01/2020 17:40:46	26012020	260120	174046	100.250	12.205387	-56.207720	100.230	0.440	-0.260	0.100	100.250	-2.300	0.700																			1580060446.0	11.44	21.19
26/01/2020 17:40:47	26012020	260120	174047	100.140	12.205370	-56.207620	100.150	0.110	0.070	0.010	100.140	-1.400	0.400																			1580060447.0	10.82	20.04
26/01/2020 17:40:48	26012020	260120	174048	100.070	12.205370	-56.207620	100.160	-0.100	-0.100	-0.020	100.060	-1.300	0.400																			1580060448.0	10.57	19.58
26/01/2020 17:40:49	26012020	260120	174049	100.070	12.205362	-56.207568	100.220	-0.190	-0.380	0.070	100.070	-1.700	0.400																			1580060449.0	10.96	20.30
26/01/2020 17:40:50	26012020	260120	174050	100.110	12.205352	-56.207515	100.270	-0.360	-0.300	0.340	100.120	-1.800	0.400																			1580060450.0	11.52	21.34
26/01/2020 17:40:51	26012020	260120	174051	100.140	12.205325	-56.207412	100.290	-0.670	0.100	0.740	100.140	-1.700	0.700																			1580060451.0	11.64	21.56
26/01/2020 17:40:52	26012020	260120	174052	100.170	12.205325	-56.207412	100.350	-0.900	0.350	0.940	100.170	-1.300	1.100																			1580060452.0	11.21	20.76
26/01/2020 17:40:53	26012020	260120	174053	100.210	12.205310	-56.207362	100.330	-0.670	0.010	0.770	100.210	-1.100	1.300																			1580060453.0	10.78	19.96
26/01/2020 17:40:54	26012020	260120	174054	100.200	12.205285	-56.207260	100.220	0.030	-0.660	0.370	100.200	-1.400	1.100																			1580060454.0	10.86	20.11
26/01/2020 17:40:55	26012020	260120	174055	100.110	12.205275	-56.207205	100.150	0.680	-0.830	-0.070	100.110	-2.100	0.700																			1580060455.0	11.49	21.28
26/01/2020 17:40:56	26012020	260120	174056	100.080	12.205275	-56.207205	100.240	0.800	-0.290	-0.290	100.080	-2.200	0.300																			1580060456.0	11.89	22.02
26/01/2020 17:40:57	26012020	260120	174057	100.170	12.205268	-56.207152	100.350	0.540	0.260	-0.210	100.170	-1.700	0.100																			1580060457.0	11.31	20.95
26/01/2020 17:40:58	26012020	260120	174058	100.290	12.205260	-56.207103	100.430	0.270	0.230	0.000	100.290	-1.100	0.100																			1580060458.0	10.45	19.35
26/01/2020 17:40:59	26012020	260120	174059	100.360	12.205252	-56.207053	100.420	0.210	-0.230	0.280	100.360	-1.200	0.300	1014.50	26.20	26.30	19.80	19.90	836.00	68.00	68.00	376.00	29.10	354.00	10.50	87.00	4.90	59882	3567.00	27.70	27.60	1580060459.0	10.49	19.43
26/01/2020 17:41:00	26012020	260120	174100	100.340	12.205240	-56.207003	100.360	0.210	-0.540	0.550	100.330	-1.600	0.600																			1580060460.0	11.10	20.56
26/01/2020 17:41:01	26012020	260120	174101	100.260	12.205217	-56.206898	100.300	0.120	-0.470	0.580	100.260	-1.900	0.900																			1580060461.0	11.51	21.32
26/01/2020 17:41:02	26012020	260120	174102	100.210	12.205217	-56.206898	100.230	-0.120	-0.310	0.450	100.210	-1.900	0.900																			1580060462.0	11.27	20.87
26/01/2020 17:41:03	26012020	260120	174103	100.120	12.205207	-56.206847	100.070	-0.360	-0.360	0.480	100.120	-1.700	0.800																			1580060463.0	10.88	20.15
26/01/2020 17:41:04	26012020	260120	174104	99.960	12.205185	-56.206745	99.950	-0.480	-0.510	0.540	99.960	-1.800	0.800																			1580060464.0	10.83	20.06
26/01/2020 17:41:05	26012020	260120	174105	99.860	12.205173	-56.206693	99.950	-0.480	-0.520	0.520	99.860	-1.900	0.900																			1580060465.0	11.15	20.65
26/01/2020 17:41:06	26012020	260120	174106	99.880	12.205160	-56.206642	99.970	-0.420	-0.370	0.510	99.880	-1.900	0.900																			1580060466.0	11.35	21.02
26/01/2020 17:41:07	26012020	260120	174107	99.890	12.205160	-56.206642	99.880	-0.250	-0.290	0.570	99.890	-1.800	0.800																			1580060467.0	11.24	20.82
26/01/2020 17:41:08	26012020	260120	174108	99.790	12.205135	-56.206540	99.760	0.060	-0.230	0.410	99.790	-1.700	0.900																			1580060468.0	11.12	20.59
26/01/2020 17:41:09	26012020	260120	174109	99.680	12.205135	-56.206540	99.730	0.370	-0.100	0.110	99.680	-1.600	0.700																			1580060469.0	11.25	20.84
26/01/2020 17:41:10	26012020	260120	174110	99.660	12.205117	-56.206435	99.800	0.480	0.000	0.000	99.660	-1.500	0.400																			1580060470.0	11.27	20.87
26/01/2020 17:41:11	26012020	260120	174111	99.730	12.205117	-56.206435	99.940	0.320	0.080	0.060	99.730	-1.400	0.300																			1580060471.0	11.21	20.76
26/01/2020 17:41:12	26012020	260120	174112	99.850	12.205108	-56.206383	100.030	0.090	0.160	0.330	99.850	-1.300	0.400																			1580060472.0	11.15	20.65
26/01/2020 17:41:13	26012020	260120	174113	99.920	12.205100	-56.206332	100.040	-0.030	0.080	0.620	99.920	-1.300	0.700																			1580060473.0	11.04	20.45
26/01/2020 17:41:14	26012020	260120	174114	99.900	12.205077	-56.206230	100.050	0.060	-0.350	0.730	99.900	-1.300	1.000																			1580060474.0	10.92	20.22
26/01/2020 17:41:15	26012020	260120	174115	99.900	12.205065	-56.206177	100.120	0.180	-0.710	0.610	99.900	-1.800	1.100																			1580060475.0	11.08	20.52
26/01/2020 17:41:16	26012020	260120	174116	99.990	12.205055	-56.206125	100.190	0.040	-0.450	0.420	99.990	-2.100	0.900																			1580060476.0	11.46	21.22
26/01/2020 17:41:17	26012020	260120	174117	100.080	12.205045	-56.206075	100.130	-0.310	0.090	0.400	100.080	-1.900	0.800																			1580060477.0	11.36	21.04
26/01/2020 17:41:18	26012020	260120	174118	100.010	12.205045	-56.206075	99.950	-0.440	0.030	0.430	100.010	-1.300	0.700																			1580060478.0	10.59	19.61
26/01/2020 17:41:19	26012020	260120	174119	99.810	12.205035	-56.206028	99.710	-0.090	-0.770	0.420	99.810	-1.400	0.800																			1580060479.0	10.28	19.04
26/01/2020 17:41:20	26012020	260120	174120	99.600	12.205025	-56.205977	99.550	0.370	-1.370	0.450	99.600	-2.200	0.800																			1580060480.0	11.04	20.45
26/01/2020 17:41:21	26012020	260120	174121	99.470	12.205013	-56.205922	99.540	0.380	-0.970	0.570	99.470	-2.800	0.800																			1580060481.0	11.99	22.21
26/01/2020 17:41:22	26012020	260120	174122	99.460	12.204992	-56.205817	99.620	-0.080	-0.000	0.780	99.460	-2.400	0.900																			1580060482.0	11.87	21.98
26/01/2020 17:41:23	26012020	260120	174123	99.530	12.204980	-56.205770	99.660	-0.460	0.540	0.960	99.530	-1.400	1.100																			1580060483.0	10.84	20.08
26/01/2020 17:41:24	26012020	260120	174124	99.530	12.204980	-56.205770	99.610	-0.410	0.350	0.980	99.530	-0.900	1.300																			1580060484.0	10.30	19.08
26/01/2020 17:41:25	26012020	260120	174125	99.490	12.204967	-56.205720	99.650	-0.100	-0.020	0.790	99.490	-1.300	1.200																			1580060485.0	10.86	20.11
26/01/2020 17:41:26	26012020	260120	174126	99.540	12.204957	-56.205667	99.770	0.140	-0.190	0.500	99.540	-1.400	1.100																			1580060486.0	11.57	21.43
26/01/2020 17:41:27	26012020	260120	174127	99.670	12.204938	-56.205560	99.940	0.190	-0.150	0.150	99.670	-1.600	0.800																			1580060487.0	11.59	21.46
26/01/2020 17:41:28	26012020	260120	174128	99.870	12.204938	-56.205560	100.200	0.070	0.000	-0.010	99.870	-1.500	0.500																			1580060488.0	11.22	20.78
26/01/2020 17:41:29	26012020	260120	174129	100.140	12.204930	-56.205508	100.400	-0.060	0.060	0.050	100.140	-1.400	0.300																			1580060489.0	10.92	20.22
26/01/2020 17:41:30	26012020	260120	174130	100.330	12.204910	-56.205410	100.410	0.010	-0.200	0.270	100.330	-1.300	0.400																			1580060490.0	10.70	19.82
26/01/2020 17:41:31	26012020	260120	174131	100.290	12.204898	-56.205358	100.260	0.310	-0.710	0.420	100.290	-1.600	0.600																			1580060491.0	10.71	19.83
26/01/2020 17:41:32	26012020	260120	174132	100.120	12.204898	-56.205358	100.170	0.550	-1.030	0.320	100.120	-2.100	0.800																			1580060492.0	11.10	20.56
26/01/2020 17:41:33	26012020	260120	174133	100.060	12.204880	-56.205252	100.140	0.410	-0.830	0.230	100.060	-2.400	0.700																			1580060493.0	11.46	21.22
26/01/2020 17:41:34	26012020	260120	174134	100.050	12.204880	-56.205252	100.100	-0.090	-0.280	0.270	100.050	-2.200	0.600																			1580060494.0	11.36	21.04
26/01/2020 17:41:35	26012020	260120	174135	99.990	12.204870	-56.205202	99.930	-0.550	0.080	0.480	99.990	-1.700	0.600																			1580060495.0	10.83	20.06
26/01/2020 17:41:36	26012020	260120	174136	99.820	12.204858	-56.205153	99.710	-0.610	-0.130	0.630	99.820	-1.300	0.800																			1580060496.0	10.53	19.50
26/01/2020 17:41:37	26012020	260120	174137	99.590	12.204833	-56.205050	99.550	-0.280	-0.530	0.750	99.590	-1.800	1.000																			1580060497.0	10.88	20.15
26/01/2020 17:41:38	26012020	260120	174138	99.460	12.204833	-56.205050	99.560	0.010	-0.490	0.730	99.460	-1.900	1.100																			1580060498.0	11.57	21.43
26/01/2020 17:41:39	26012020	260120	174139	99.480	12.204810	-56.204945	99.640	-0.020	0.080	0.570	99.480	-1.600	1.000																			1580060499.0	11.80	21.85
26/01/2020 17:41:40	26012020	260120	174140	99.590	12.204800	-56.204895	99.780	-0.220	0.510	0.450	99.590	-1.300	0.900																			1580060500.0	11.26	20.85
26/01/2020 17:41:41	26012020	260120	174141	99.740	12.204800	-56.204895	99.990	-0.200	0.210	0.290	99.740	-0.900	0.800																			1580060501.0	10.57	19.58
26/01/2020 17:41:42	26012020	260120	174142	99.940	12.204790	-56.204847	100.140	0.010	-0.250	0.170	99.940	-1.200	0.600																			1580060502.0	10.68	19.78
26/01/2020 17:41:43	26012020	260120	174143	100.080	12.204770	-56.204740	100.270	0.120	-0.220	0.110	100.080	-1.700	0.500																			1580060503.0	11.43	21.17
26/01/2020 17:41:44	26012020	260120	174144	100.210	12.204770	-56.204740	100.370	0.120	-0.070	0.060	100.210	-1.600	0.500																			1580060504.0	11.43	21.17
26/01/2020 17:41:45	26012020	260120	174145	100.310	12.204752	-56.204642	100.390	0.260	-0.340	0.060	100.310	-1.500	0.400																			1580060505.0	10.73	19.87
26/01/2020 17:41:46	26012020	260120	174146	100.310	12.204752	-56.204642	100.260	0.570	-0.920	0.140	100.310	-1.800	0.400																			1580060506.0	10.58	19.59
26/01/2020 17:41:47	26012020	260120	174147	100.160	12.204742	-56.204590	100.080	0.780	-1.170	0.330	100.160	-2.300	0.500																			1580060507.0	11.15	20.65
26/01/2020 17:41:48	26012020	260120	174148	99.990	12.204732	-56.204535	99.980	0.570	-0.670	0.570	99.990	-2.600	0.700																			1580060508.0	11.59	21.46
26/01/2020 17:41:49	26012020	260120	174149	99.900	12.204722	-56.204483	100.010	-0.070	0.180	0.700	99.900	-2.100	0.900																			1580060509.0	11.37	21.06
26/01/2020 17:41:50	26012020	260120	174150	99.910	12.204712	-56.204433	100.060	-0.710	0.550	0.660	99.930	-1.200	1.000																			1580060510.0	10.63	19.69
26/01/2020 17:41:51	26012020	260120	174151	99.980	12.204690	-56.204337	100.060	-0.950	0.170	0.500	99.980	-0.900	1.000																			1580060511.0	10.28	19.04
26/01/2020 17:41:52	26012020	260120	174152	99.990	12.204690	-56.204337	100.080	-0.750	-0.400	0.420	99.990	-1.200	0.800																			1580060512.0	10.81	20.02
26/01/2020 17:41:53	26012020	260120	174153	100.010	12.204678	-56.204283	100.050	-0.420	-0.580	0.420	100.010	-1.800	0.800																			1580060513.0	11.58	21.45
26/01/2020 17:41:54	26012020	260120	174154	99.960	12.204665	-56.204228	99.950	-0.120	-0.410	0.160	99.960	-2.000	0.800																			1580060514.0	11.72	21.71
26/01/2020 17:41:55	26012020	260120	174155	99.880	12.204652	-56.204178	99.910	0.190	-0.290	-0.190	99.880	-1.800	0.500																			1580060515.0	11.24	20.82
26/01/2020 17:41:56	26012020	260120	174156	99.870	12.204642	-56.204127	99.940	0.530	-0.450	-0.310	99.870	-1.700	0.100																			1580060516.0	10.86	20.11
26/01/2020 17:41:57	26012020	260120	174157	99.900	12.204633	-56.204075	100.000	0.710	-0.460	-0.250	99.900	-1.900	0.000																			1580060517.0	11.03	20.43
26/01/2020 17:41:58	26012020	260120	174158	99.960	12.204625	-56.204023	100.040	0.510	-0.020	-0.020	99.960	-1.900	0.100																			1580060518.0	11.39	21.09
26/01/2020 17:41:59	26012020	260120	174159	99.990	12.204615	-56.203970	100.020	0.050	0.410	0.340	99.990	-1.400	0.300	1014.50	26.20	26.30	19.90	20.00	837.00	68.00	68.00	376.00	29.10	352.00	10.40	83.00	4.70	59785	3270.00	27.70	27.70	1580060519.0	11.22	20.78
26/01/2020 17:42:00	26012020	260120	174200	99.970	12.204605	-56.203922	100.000	-0.320	0.350	0.620	99.970	-1.000	0.700																			1580060520.0	10.62	19.67
26/01/2020 17:42:01	26012020	260120	174201	99.920	12.204593	-56.203873	99.930	-0.390	-0.170	0.790	99.920	-1.400	1.100																			1580060521.0	10.57	19.58
26/01/2020 17:42:02	26012020	260120	174202	99.850	12.204582	-56.203822	99.900	-0.210	-0.700	0.790	99.850	-1.600	1.100																			1580060522.0	11.02	20.41
26/01/2020 17:42:03	26012020	260120	174203	99.810	12.204570	-56.203770	99.850	-0.000	-0.840	0.660	99.810	-2.100	1.100																			1580060523.0	11.45	21.21
26/01/2020 17:42:04	26012020	260120	174204	99.770	12.204548	-56.203665	99.720	0.040	-0.550	0.490	99.760	-2.200	1.000																			1580060524.0	11.47	21.24
26/01/2020 17:42:05	26012020	260120	174205	99.620	12.204548	-56.203665	99.590	-0.010	-0.220	0.260	99.620	-2.000	0.800																			1580060525.0	11.09	20.54
26/01/2020 17:42:06	26012020	260120	174206	99.510	12.204538	-56.203615	99.590	0.020	-0.130	0.070	99.510	-1.600	0.600																			1580060526.0	10.72	19.85
26/01/2020 17:42:07	26012020	260120	174207	99.510	12.204528	-56.203565	99.710	0.170	-0.240	-0.080	99.510	-1.600	0.400																			1580060527.0	10.77	19.95
26/01/2020 17:42:08	26012020	260120	174208	99.630	12.204520	-56.203513	99.790	0.320	-0.360	-0.060	99.630	-1.700	0.300																			1580060528.0	11.09	20.54
26/01/2020 17:42:09	26012020	260120	174209	99.710	12.204500	-56.203408	99.820	0.290	-0.290	0.160	99.710	-1.800	0.300																			1580060529.0	11.31	20.95
26/01/2020 17:42:10	26012020	260120	174210	99.710	12.204500	-56.203408	99.800	0.130	-0.170	0.480	99.710	-1.700	0.500																			1580060530.0	11.30	20.93
26/01/2020 17:42:11	26012020	260120	174211	99.690	12.204490	-56.203358	99.790	-0.080	-0.120	0.670	99.690	-1.600	0.800																			1580060531.0	11.05	20.46
26/01/2020 17:42:12	26012020	260120	174212	99.700	12.204478	-56.203307	99.870	-0.310	-0.080	0.610	99.700	-1.500	1.000																			1580060532.0	10.98	20.33
26/01/2020 17:42:13	26012020	260120	174213	99.810	12.204468	-56.203255	99.970	-0.470	-0.150	0.530	99.810	-1.500	1.000																			1580060533.0	11.07	20.50
26/01/2020 17:42:14	26012020	260120	174214	99.910	12.204458	-56.203205	99.920	-0.460	-0.390	0.560	99.910	-1.600	0.900																			1580060534.0	11.02	20.41
26/01/2020 17:42:15	26012020	260120	174215	99.840	12.204447	-56.203153	99.760	-0.270	-0.640	0.580	99.840	-2.000	0.900																			1580060535.0	11.13	20.61
26/01/2020 17:42:16	26012020	260120	174216	99.700	12.204435	-56.203102	99.700	0.030	-0.590	0.560	99.700	-2.100	0.900																			1580060536.0	11.38	21.08
26/01/2020 17:42:17	26012020	260120	174217	99.640	12.204423	-56.203048	99.730	0.310	-0.250	0.360	99.640	-2.000	0.900																			1580060537.0	11.43	21.17
26/01/2020 17:42:18	26012020	260120	174218	99.670	12.204412	-56.202997	99.780	0.400	0.170	-0.060	99.670	-1.700	0.700																			1580060538.0	11.17	20.69
26/01/2020 17:42:19	26012020	260120	174219	99.720	12.204402	-56.202947	99.840	0.320	0.340	-0.300	99.720	-1.300	0.300																			1580060539.0	10.87	20.13
26/01/2020 17:42:20	26012020	260120	174220	99.790	12.204388	-56.202845	99.980	0.210	0.170	-0.270	99.790	-1.100	0.000																			1580060540.0	10.78	19.96
26/01/2020 17:42:21	26012020	260120	174221	99.950	12.204388	-56.202845	100.150	0.180	-0.230	-0.110	99.950	-1.200	0.100																			1580060541.0	10.94	20.26
26/01/2020 17:42:22	26012020	260120	174222	100.120	12.204378	-56.202793	100.270	0.140	-0.580	0.120	100.120	-1.600	0.200																			1580060542.0	11.17	20.69
26/01/2020 17:42:23	26012020	260120	174223	100.230	12.204368	-56.202740	100.420	-0.020	-0.560	0.330	100.230	-2.000	0.500																			1580060543.0	11.38	21.08
26/01/2020 17:42:24	26012020	260120	174224	100.370	12.204357	-56.202688	100.490	-0.260	-0.220	0.490	100.370	-2.000	0.700																			1580060544.0	11.29	20.91
26/01/2020 17:42:25	26012020	260120	174225	100.400	12.204333	-56.202590	100.350	-0.360	-0.210	0.510	100.400	-1.600	0.900																			1580060545.0	10.84	20.08
26/01/2020 17:42:26	26012020	260120	174226	100.250	12.204333	-56.202590	100.130	-0.170	-0.670	0.400	100.250	-1.600	0.800																			1580060546.0	10.53	19.50
26/01/2020 17:42:27	26012020	260120	174227	100.010	12.204312	-56.202485	99.950	0.120	-1.060	0.230	100.010	-2.400	0.600																			1580060547.0	11.01	20.39
26/01/2020 17:42:28	26012020	260120	174228	99.860	12.204312	-56.202485	99.740	0.270	-0.890	0.080	99.820	-2.500	0.600																			1580060548.0	11.66	21.59
26/01/2020 17:42:29	26012020	260120	174229	99.610	12.204302	-56.202430	99.600	0.150	-0.250	-0.040	99.610	-1.900	0.300																			1580060549.0	11.68	21.63
26/01/2020 17:42:30	26012020	260120	174230	99.510	12.204292	-56.202378	99.590	-0.130	0.400	-0.010	99.500	-1.700	0.300																			1580060550.0	11.18	20.71
26/01/2020 17:42:31	26012020	260120	174231	99.510	12.204283	-56.202328	99.670	-0.360	0.620	0.130	99.510	-1.000	0.300																			1580060551.0	10.78	19.96
26/01/2020 17:42:32	26012020	260120	174232	99.600	12.204273	-56.202278	99.800	-0.360	0.270	0.280	99.600	-0.800	0.500																			1580060552.0	10.74	19.89
26/01/2020 17:42:33	26012020	260120	174233	99.730	12.204262	-56.202227	99.980	-0.160	-0.240	0.510	99.730	-1.100	0.600																			1580060553.0	11.12	20.59
26/01/2020 17:42:34	26012020	260120	174234	99.910	12.204250	-56.202173	100.150	-0.010	-0.340	0.730	99.910	-1.700	0.800																			1580060554.0	11.62	21.52
26/01/2020 17:42:35	26012020	260120	174235	100.070	12.204225	-56.202070	100.270	-0.020	-0.080	0.750	100.070	-1.800	1.100																			1580060555.0	11.67	21.61
26/01/2020 17:42:36	26012020	260120	174236	100.170	12.204225	-56.202070	100.300	0.000	-0.010	0.570	100.170	-1.500	1.100																			1580060556.0	11.06	20.48
26/01/2020 17:42:37	26012020	260120	174237	100.180	12.204213	-56.202020	100.340	0.210	-0.280	0.220	100.180	-1.400	0.900																			1580060557.0	10.60	19.63
26/01/2020 17:42:38	26012020	260120	174238	100.230	12.204203	-56.201970	100.430	0.470	-0.610	-0.160	100.230	-1.700	0.600																			1580060558.0	10.82	20.04
26/01/2020 17:42:39	26012020	260120	174239	100.350	12.204197	-56.201918	100.470	0.570	-0.670	-0.260	100.350	-2.000	0.200																			1580060559.0	11.21	20.76
26/01/2020 17:42:40	26012020	260120	174240	100.390	12.204188	-56.201865	100.390	0.430	-0.510	-0.030	100.390	-2.100	0.100																			1580060560.0	11.28	20.89
26/01/2020 17:42:41	26012020	260120	174241	100.290	12.204170	-56.201763	100.190	0.150	-0.400	0.340	100.290	-1.900	0.300																			1580060561.0	10.99	20.35
26/01/2020 17:42:42	26012020	260120	174242	100.100	12.204158	-56.201713	100.030	-0.120	-0.440	0.520	100.100	-1.800	0.700																			1580060562.0	10.85	20.09
26/01/2020 17:42:43	26012020	260120	174243	99.940	12.204158	-56.201713	99.940	-0.270	-0.450	0.470	99.940	-1.900	0.900																			1580060563.0	11.05	20.46
26/01/2020 17:42:44	26012020	260120	174244	99.860	12.204135	-56.201608	99.960	-0.300	-0.380	0.410	99.860	-1.900	0.800																			1580060564.0	11.28	20.89
26/01/2020 17:42:45	26012020	260120	174245	99.880	12.204135	-56.201608	100.010	-0.310	-0.200	0.430	99.880	-1.800	0.700																			1580060565.0	11.32	20.96
26/01/2020 17:42:46	26012020	260120	174246	99.930	12.204112	-56.201505	100.030	-0.360	0.010	0.460	99.930	-1.600	0.800																			1580060566.0	11.31	20.95
26/01/2020 17:42:47	26012020	260120	174247	99.940	12.204112	-56.201505	100.070	-0.330	0.040	0.370	99.940	-1.400	0.800																			1580060567.0	11.18	20.71
26/01/2020 17:42:48	26012020	260120	174248	99.980	12.204100	-56.201453	100.230	-0.150	-0.100	0.180	99.980	-1.400	0.700																			1580060568.0	11.11	20.58
26/01/2020 17:42:49	26012020	260120	174249	100.150	12.204090	-56.201402	100.380	0.030	-0.110	0.050	100.150	-1.500	0.500																			1580060569.0	11.28	20.89
26/01/2020 17:42:50	26012020	260120	174250	100.290	12.204078	-56.201348	100.370	0.060	0.070	-0.100	100.290	-1.500	0.400																			1580060570.0	11.42	21.15
26/01/2020 17:42:51	26012020	260120	174251	100.270	12.204058	-56.201247	100.320	0.060	0.190	-0.210	100.270	-1.300	0.200																			1580060571.0	11.15	20.65
26/01/2020 17:42:52	26012020	260120	174252	100.240	12.204058	-56.201247	100.440	0.170	-0.020	-0.190	100.240	-1.200	0.100																			1580060572.0	10.81	20.02
26/01/2020 17:42:53	26012020	260120	174253	100.370	12.204050	-56.201197	100.660	0.380	-0.550	-0.190	100.370	-1.800	0.100																			1580060573.0	10.79	19.98
26/01/2020 17:42:54	26012020	260120	174254	100.600	12.204032	-56.201092	100.800	0.510	-0.940	-0.050	100.600	-2.000	0.100																			1580060574.0	11.13	20.61
26/01/2020 17:42:55	26012020	260120	174255	100.720	12.204032	-56.201092	100.750	0.430	-0.750	0.400	100.720	-2.400	0.300																			1580060575.0	11.48	21.26
26/01/2020 17:42:56	26012020	260120	174256	100.640	12.204020	-56.201038	100.520	0.140	-0.220	0.830	100.640	-2.200	0.700																			1580060576.0	11.36	21.04
26/01/2020 17:42:57	26012020	260120	174257	100.380	12.204007	-56.200990	100.270	-0.150	-0.000	0.850	100.380	-1.600	1.200																			1580060577.0	10.81	20.02
26/01/2020 17:42:58	26012020	260120	174258	100.140	12.203985	-56.200890	100.190	-0.190	-0.330	0.530	100.140	-1.400	1.200																			1580060578.0	10.52	19.48
26/01/2020 17:42:59	26012020	260120	174259	100.070	12.203977	-56.200837	100.210	-0.080	-0.700	0.200	100.070	-1.700	0.900	1014.50	26.20	26.30	20.00	20.00	832.00	68.00	68.00	376.00	29.10	353.00	10.10	85.00	4.50	59544	3108.00	27.70	27.70	1580060579.0	10.94	20.26
26/01/2020 17:43:00	26012020	260120	174300	100.100	12.203977	-56.200837	100.210	-0.160	-0.470	0.100	100.100	-2.100	0.500																			1580060580.0	11.62	21.52
26/01/2020 17:43:01	26012020	260120	174301	100.120	12.203955	-56.200732	100.120	-0.440	0.150	0.300	100.120	-1.900	0.400																			1580060581.0	11.70	21.67
26/01/2020 17:43:02	26012020	260120	174302	100.040	12.203955	-56.200732	100.030	-0.560	0.360	0.520	100.040	-1.300	0.600																			1580060582.0	10.97	20.32
26/01/2020 17:43:03	26012020	260120	174303	99.980	12.203942	-56.200683	100.080	-0.270	-0.170	0.420	99.980	-1.100	0.900																			1580060583.0	10.54	19.52
26/01/2020 17:43:04	26012020	260120	174304	100.050	12.203930	-56.200633	100.180	0.240	-0.760	0.180	100.050	-1.600	0.800																			1580060584.0	11.00	20.37
26/01/2020 17:43:05	26012020	260120	174305	100.160	12.203920	-56.200578	100.280	0.440	-0.590	0.110	100.160	-2.200	0.400																			1580060585.0	11.81	21.87
26/01/2020 17:43:06	26012020	260120	174306	100.240	12.203910	-56.200523	100.360	0.190	0.130	0.190	100.240	-2.000	0.400																			1580060586.0	11.84	21.93
26/01/2020 17:43:07	26012020	260120	174307	100.310	12.203900	-56.200473	100.420	-0.170	0.500	0.260	100.310	-1.300	0.500																			1580060587.0	10.90	20.19
26/01/2020 17:43:08	26012020	260120	174308	100.370	12.203888	-56.200425	100.550	-0.230	0.140	0.240	100.370	-0.900	0.600																			1580060588.0	10.25	18.98
26/01/2020 17:43:09	26012020	260120	174309	100.500	12.203878	-56.200377	100.680	0.030	-0.480	0.240	100.500	-1.300	0.600																			1580060589.0	10.63	19.69
26/01/2020 17:43:10	26012020	260120	174310	100.610	12.203857	-56.200270	100.690	0.320	-0.740	0.280	100.610	-1.900	0.600																			1580060590.0	11.38	21.08
26/01/2020 17:43:11	26012020	260120	174311	100.600	12.203847	-56.200218	100.580	0.380	-0.520	0.340	100.600	-2.100	0.600																			1580060591.0	11.59	21.46
26/01/2020 17:43:12	26012020	260120	174312	100.480	12.203847	-56.200218	100.540	0.170	-0.210	0.470	100.480	-1.900	0.700																			1580060592.0	11.20	20.74
26/01/2020 17:43:13	26012020	260120	174313	100.450	12.203837	-56.200168	100.640	-0.070	-0.190	0.500	100.450	-1.600	0.800																			1580060593.0	10.71	19.83
26/01/2020 17:43:14	26012020	260120	174314	100.550	12.203827	-56.200118	100.760	-0.190	-0.320	0.400	100.550	-1.600	0.800																			1580060594.0	10.69	19.80
26/01/2020 17:43:15	26012020	260120	174315	100.640	12.203815	-56.200068	100.740	-0.210	-0.330	0.440	100.640	-1.700	0.700																			1580060595.0	11.06	20.48
26/01/2020 17:43:16	26012020	260120	174316	100.600	12.203805	-56.200017	100.610	-0.110	-0.360	0.570	100.600	-1.700	0.800																			1580060596.0	11.21	20.76
26/01/2020 17:43:17	26012020	260120	174317	100.440	12.203793	-56.199965	100.420	0.130	-0.620	0.620	100.440	-1.900	1.000																			1580060597.0	11.07	20.50
26/01/2020 17:43:18	26012020	260120	174318	100.290	12.203782	-56.199913	100.300	0.300	-0.720	0.520	100.260	-2.000	1.000																			1580060598.0	11.20	20.74
26/01/2020 17:43:19	26012020	260120	174319	100.150	12.203770	-56.199860	100.300	0.180	-0.290	0.290	100.150	-1.900	0.700																			1580060599.0	11.59	21.46
26/01/2020 17:43:20	26012020	260120	174320	100.160	12.203760	-56.199807	100.380	-0.140	0.330	-0.010	100.160	-1.700	0.600																			1580060600.0	11.45	21.21
26/01/2020 17:43:21	26012020	260120	174321	100.280	12.203750	-56.199757	100.530	-0.360	0.480	-0.090	100.280	-1.100	0.300																			1580060601.0	10.81	20.02
26/01/2020 17:43:22	26012020	260120	174322	100.450	12.203742	-56.199707	100.680	-0.430	0.250	0.090	100.450	-0.900	0.300																			1580060602.0	10.57	19.58
26/01/2020 17:43:23	26012020	260120	174323	100.590	12.203730	-56.199657	100.720	-0.420	0.030	0.260	100.590	-1.200	0.400																			1580060603.0	11.06	20.48
26/01/2020 17:43:24	26012020	260120	174324	100.630	12.203717	-56.199605	100.640	-0.240	-0.300	0.290	100.630	-1.400	0.600																			1580060604.0	11.28	20.89
26/01/2020 17:43:25	26012020	260120	174325	100.550	12.203705	-56.199553	100.570	0.130	-0.790	0.220	100.550	-1.700	0.600																			1580060605.0	11.08	20.52
26/01/2020 17:43:26	26012020	260120	174326	100.480	12.203693	-56.199502	100.570	0.440	-1.010	0.060	100.480	-2.200	0.600																			1580060606.0	11.20	20.74
26/01/2020 17:43:27	26012020	260120	174327	100.500	12.203682	-56.199450	100.590	0.500	-0.660	-0.130	100.500	-2.400	0.400																			1580060607.0	11.47	21.24
26/01/2020 17:43:28	26012020	260120	174328	100.500	12.203672	-56.199397	100.540	0.310	0.060	-0.160	100.500	-2.100	0.200																			1580060608.0	11.24	20.82
26/01/2020 17:43:29	26012020	260120	174329	100.440	12.203663	-56.199347	100.460	0.060	0.480	-0.030	100.440	-1.300	0.200																			1580060609.0	10.69	19.80
26/01/2020 17:43:30	26012020	260120	174330	100.370	12.203655	-56.199300	100.370	0.050	0.060	0.200	100.370	-0.900	0.300																			1580060610.0	10.30	19.08
26/01/2020 17:43:31	26012020	260120	174331	100.280	12.203643	-56.199250	100.300	0.340	-0.850	0.370	100.280	-1.400	0.500																			1580060611.0	10.63	19.69
26/01/2020 17:43:32	26012020	260120	174332	100.210	12.203633	-56.199197	100.300	0.500	-1.070	0.530	100.210	-2.300	0.700																			1580060612.0	11.57	21.43
26/01/2020 17:43:33	26012020	260120	174333	100.230	12.203622	-56.199140	100.400	0.080	-0.250	0.740	100.230	-2.500	0.900																			1580060613.0	12.17	22.54
26/01/2020 17:43:34	26012020	260120	174334	100.320	12.203600	-56.199042	100.520	-0.640	0.660	0.810	100.320	-1.700	1.100																			1580060614.0	11.36	21.04
26/01/2020 17:43:35	26012020	260120	174335	100.450	12.203600	-56.199042	100.610	-0.990	0.560	0.780	100.450	-0.800	1.100																			1580060615.0	10.16	18.82
26/01/2020 17:43:36	26012020	260120	174336	100.540	12.203588	-56.198995	100.690	-0.700	-0.410	0.590	100.540	-0.900	1.100																			1580060616.0	10.05	18.61
26/01/2020 17:43:37	26012020	260120	174337	100.600	12.203575	-56.198943	100.710	-0.210	-1.070	0.320	100.600	-1.800	0.900																			1580060617.0	11.18	20.71
26/01/2020 17:43:38	26012020	260120	174338	100.590	12.203562	-56.198888	100.630	0.050	-0.770	0.120	100.590	-2.500	0.700																			1580060618.0	12.12	22.45
26/01/2020 17:43:39	26012020	260120	174339	100.510	12.203538	-56.198785	100.540	0.060	-0.050	-0.070	100.510	-2.200	0.500																			1580060619.0	11.69	21.65
26/01/2020 17:43:40	26012020	260120	174340	100.420	12.203528	-56.198738	100.440	0.130	0.210	-0.270	100.420	-1.400	0.300																			1580060620.0	10.63	19.69
26/01/2020 17:43:41	26012020	260120	174341	100.340	12.203528	-56.198738	100.390	0.390	-0.080	-0.370	100.340	-1.400	0.000																			1580060621.0	10.26	19.00
26/01/2020 17:43:42	26012020	260120	174342	100.320	12.203520	-56.198688	100.480	0.640	-0.350	-0.370	100.320	-1.500	-0.000																			1580060622.0	10.85	20.09
26/01/2020 17:43:43	26012020	260120	174343	100.420	12.203512	-56.198635	100.610	0.630	-0.280	-0.250	100.420	-1.700	0.000																			1580060623.0	11.45	21.21
26/01/2020 17:43:44	26012020	260120	174344	100.540	12.203502	-56.198582	100.700	0.310	-0.020	0.130	100.540	-1.700	0.100																			1580060624.0	11.34	21.00
26/01/2020 17:43:45	26012020	260120	174345	100.630	12.203492	-56.198532	100.710	-0.140	0.150	0.650	100.630	-1.400	0.500																			1580060625.0	10.90	20.19
26/01/2020 17:43:46	26012020	260120	174346	100.600	12.203480	-56.198482	100.540	-0.440	0.090	1.000	100.600	-1.300	1.000																			1580060626.0	10.66	19.74
26/01/2020 17:43:47	26012020	260120	174347	100.410	12.203467	-56.198433	100.310	-0.390	-0.290	1.030	100.410	-1.300	1.300																			1580060627.0	10.69	19.80
26/01/2020 17:43:48	26012020	260120	174348	100.200	12.203453	-56.198383	100.160	-0.110	-0.860	0.810	100.200	-1.700	1.400																			1580060628.0	10.88	20.15
26/01/2020 17:43:49	26012020	260120	174349	100.080	12.203442	-56.198332	100.110	0.110	-1.130	0.570	100.080	-2.300	1.100																			1580060629.0	11.25	20.84
26/01/2020 17:43:50	26012020	260120	174350	100.010	12.203432	-56.198278	99.980	0.050	-0.740	0.580	100.010	-2.500	0.900																			1580060630.0	11.54	21.37
26/01/2020 17:43:51	26012020	260120	174351	99.860	12.203422	-56.198227	99.720	-0.150	-0.130	0.710	99.860	-2.100	0.900																			1580060631.0	11.28	20.89
26/01/2020 17:43:52	26012020	260120	174352	99.600	12.203410	-56.198177	99.480	-0.170	0.050	0.690	99.600	-1.500	1.100																			1580060632.0	10.65	19.72
26/01/2020 17:43:53	26012020	260120	174353	99.370	12.203398	-56.198128	99.410	0.060	-0.190	0.510	99.370	-1.400	1.000																			1580060633.0	10.58	19.59
26/01/2020 17:43:54	26012020	260120	174354	99.330	12.203387	-56.198077	99.510	0.250	-0.270	0.280	99.330	-1.600	0.900																			1580060634.0	11.15	20.65
26/01/2020 17:43:55	26012020	260120	174355	99.470	12.203377	-56.198023	99.670	0.140	0.120	0.130	99.470	-1.500	0.500																			1580060635.0	11.60	21.48
26/01/2020 17:43:56	26012020	260120	174356	99.640	12.203367	-56.197970	99.850	-0.140	0.470	0.190	99.640	-1.300	0.500																			1580060636.0	11.29	20.91
26/01/2020 17:43:57	26012020	260120	174357	99.780	12.203358	-56.197922	99.970	-0.250	0.190	0.400	99.780	-0.900	0.500																			1580060637.0	10.61	19.65
26/01/2020 17:43:58	26012020	260120	174358	99.890	12.203348	-56.197872	100.050	-0.120	-0.360	0.460	99.890	-1.200	0.700																			1580060638.0	10.58	19.59
26/01/2020 17:43:59	26012020	260120	174359	99.980	12.203337	-56.197820	100.110	-0.020	-0.480	0.370	99.980	-1.800	0.800	1014.50	26.20	26.30	19.90	20.00	829.00	68.00	68.00	375.00	29.00	351.00	10.20	80.00	4.70	59333	3414.00	27.70	27.60	1580060639.0	11.24	20.82
26/01/2020 17:44:00	26012020	260120	174400	100.030	12.203327	-56.197768	100.020	-0.020	-0.350	0.400	100.030	-1.900	0.700																			1580060640.0	11.43	21.17
26/01/2020 17:44:01	26012020	260120	174401	99.930	12.203307	-56.197668	99.810	0.030	-0.470	0.420	99.930	-1.700	0.700																			1580060641.0	10.84	20.08
26/01/2020 17:44:02	26012020	260120	174402	99.730	12.203307	-56.197668	99.580	0.210	-0.840	0.410	99.730	-1.900	0.800																			1580060642.0	10.61	19.65
26/01/2020 17:44:03	26012020	260120	174403	99.490	12.203297	-56.197617	99.360	0.390	-0.950	0.450	99.490	-2.200	0.800																			1580060643.0	11.04	20.45
26/01/2020 17:44:04	26012020	260120	174404	99.300	12.203275	-56.197512	99.300	0.360	-0.460	0.370	99.300	-2.300	0.800																			1580060644.0	11.47	21.24
26/01/2020 17:44:05	26012020	260120	174405	99.260	12.203275	-56.197512	99.340	0.090	0.270	0.220	99.260	-1.900	0.700																			1580060645.0	11.32	20.96
26/01/2020 17:44:06	26012020	260120	174406	99.310	12.203265	-56.197462	99.460	-0.170	0.590	0.070	99.310	-1.100	0.600																			1580060646.0	10.71	19.83
26/01/2020 17:44:07	26012020	260120	174407	99.420	12.203257	-56.197413	99.590	-0.240	0.300	-0.140	99.420	-1.000	0.300																			1580060647.0	10.43	19.32
26/01/2020 17:44:08	26012020	260120	174408	99.550	12.203247	-56.197363	99.740	-0.160	-0.180	-0.190	99.550	-1.100	0.200																			1580060648.0	10.79	19.98
26/01/2020 17:44:09	26012020	260120	174409	99.700	12.203238	-56.197310	99.810	-0.160	-0.480	0.070	99.700	-1.800	0.300																			1580060649.0	11.33	20.98
26/01/2020 17:44:10	26012020	260120	174410	99.750	12.203228	-56.197258	99.710	-0.260	-0.630	0.480	99.750	-1.900	0.400																			1580060650.0	11.41	21.13
26/01/2020 17:44:11	26012020	260120	174411	99.620	12.203203	-56.197155	99.490	-0.330	-0.740	0.900	99.620	-2.000	0.800																			1580060651.0	11.13	20.61
26/01/2020 17:44:12	26012020	260120	174412	99.370	12.203203	-56.197155	99.310	-0.280	-0.740	1.170	99.370	-2.100	1.200																			1580060652.0	11.05	20.46
26/01/2020 17:44:13	26012020	260120	174413	99.170	12.203190	-56.197105	99.110	-0.130	-0.590	1.110	99.170	-2.100	1.500																			1580060653.0	11.14	20.63
26/01/2020 17:44:14	26012020	260120	174414	98.960	12.203178	-56.197053	98.850	0.030	-0.310	0.830	98.960	-2.000	1.400																			1580060654.0	11.20	20.74
26/01/2020 17:44:15	26012020	260120	174415	98.720	12.203167	-56.197002	98.680	0.170	0.060	0.500	98.720	-1.700	1.200																			1580060655.0	11.16	20.67
26/01/2020 17:44:16	26012020	260120	174416	98.590	12.203157	-56.196950	98.780	0.280	0.350	0.050	98.590	-1.300	0.800																			1580060656.0	11.07	20.50
26/01/2020 17:44:17	26012020	260120	174417	98.730	12.203148	-56.196900	99.160	0.320	0.450	-0.400	98.730	-1.000	0.400																			1580060657.0	10.97	20.32
26/01/2020 17:44:18	26012020	260120	174418	99.150	12.203142	-56.196848	99.610	0.230	0.400	-0.470	99.150	-1.000	-0.100																			1580060658.0	10.98	20.33
26/01/2020 17:44:19	26012020	260120	174419	99.580	12.203135	-56.196797	99.890	0.020	0.260	-0.130	99.580	-1.000	-0.100																			1580060659.0	11.02	20.41
26/01/2020 17:44:20	26012020	260120	174420	99.840	12.203127	-56.196745	99.980	-0.140	-0.120	0.310	99.840	-1.100	0.200																			1580060660.0	10.90	20.19
26/01/2020 17:44:21	26012020	260120	174421	99.890	12.203117	-56.196695	99.870	-0.050	-0.850	0.700	99.890	-1.500	0.700																			1580060661.0	10.76	19.93
26/01/2020 17:44:22	26012020	260120	174422	99.770	12.203105	-56.196645	99.660	0.220	-1.610	0.890	99.770	-2.300	1.000																			1580060662.0	10.92	20.22
26/01/2020 17:44:23	26012020	260120	174423	99.580	12.203093	-56.196593	99.430	0.390	-1.780	0.930	99.580	-3.000	1.200																			1580060663.0	11.41	21.13
26/01/2020 17:44:24	26012020	260120	174424	99.400	12.203082	-56.196538	99.110	0.150	-0.980	0.960	99.350	-3.200	1.300																			1580060664.0	11.69	21.65
26/01/2020 17:44:25	26012020	260120	174425	99.030	12.203072	-56.196487	98.750	-0.400	0.290	0.800	99.030	-2.400	1.300																			1580060665.0	11.35	21.02
26/01/2020 17:44:26	26012020	260120	174426	98.690	12.203060	-56.196438	98.570	-0.790	0.940	0.480	98.690	-1.100	1.100																			1580060666.0	10.49	19.43
26/01/2020 17:44:27	26012020	260120	174427	98.520	12.203050	-56.196392	98.670	-0.640	0.490	0.070	98.520	-0.500	0.800																			1580060667.0	10.09	18.69
26/01/2020 17:44:28	26012020	260120	174428	98.660	12.203042	-56.196340	99.020	-0.210	-0.200	-0.340	98.660	-0.900	0.400																			1580060668.0	10.81	20.02
26/01/2020 17:44:29	26012020	260120	174429	99.040	12.203033	-56.196285	99.380	0.050	-0.220	-0.360	99.040	-1.600	0.000																			1580060669.0	11.92	22.08
26/01/2020 17:44:30	26012020	260120	174430	99.390	12.203023	-56.196230	99.630	0.050	0.200	-0.100	99.390	-1.600	-0.000																			1580060670.0	11.95	22.13
26/01/2020 17:44:31	26012020	260120	174431	99.620	12.203013	-56.196178	99.780	0.110	0.210	0.050	99.620	-1.200	0.200																			1580060671.0	10.98	20.33
26/01/2020 17:44:32	26012020	260120	174432	99.760	12.203002	-56.196132	99.870	0.390	-0.350	0.110	99.760	-1.200	0.400																			1580060672.0	10.37	19.21
26/01/2020 17:44:33	26012020	260120	174433	99.860	12.202992	-56.196082	99.980	0.560	-0.700	0.100	99.860	-2.000	0.500																			1580060673.0	10.80	20.00
26/01/2020 17:44:34	26012020	260120	174434	99.960	12.202983	-56.196028	100.040	0.350	-0.470	0.030	99.960	-2.100	0.400																			1580060674.0	11.42	21.15
26/01/2020 17:44:35	26012020	260120	174435	99.990	12.202967	-56.195928	99.860	-0.030	-0.280	0.150	99.990	-1.900	0.400																			1580060675.0	11.07	20.50
26/01/2020 17:44:36	26012020	260120	174436	99.800	12.202967	-56.195928	99.570	-0.150	-0.550	0.440	99.800	-1.700	0.500																			1580060676.0	10.42	19.30
26/01/2020 17:44:37	26012020	260120	174437	99.480	12.202957	-56.195878	99.380	0.030	-0.910	0.630	99.480	-1.900	0.800																			1580060677.0	10.58	19.59
26/01/2020 17:44:38	26012020	260120	174438	99.300	12.202945	-56.195827	99.320	0.130	-0.720	0.670	99.300	-2.300	1.000																			1580060678.0	11.32	20.96
26/01/2020 17:44:39	26012020	260120	174439	99.260	12.202933	-56.195773	99.400	-0.090	0.000	0.580	99.260	-2.100	1.000																			1580060679.0	11.55	21.39
26/01/2020 17:44:40	26012020	260120	174440	99.360	12.202922	-56.195722	99.550	-0.460	0.580	0.510	99.360	-1.400	0.900																			1580060680.0	11.00	20.37
26/01/2020 17:44:41	26012020	260120	174441	99.500	12.202912	-56.195675	99.700	-0.540	0.380	0.420	99.500	-0.800	0.900																			1580060681.0	10.40	19.26
26/01/2020 17:44:42	26012020	260120	174442	99.650	12.202902	-56.195625	99.860	-0.160	-0.380	0.250	99.650	-1.000	0.800																			1580060682.0	10.50	19.45
26/01/2020 17:44:43	26012020	260120	174443	99.810	12.202890	-56.195573	99.910	0.340	-0.870	0.160	99.810	-1.800	0.600																			1580060683.0	11.31	20.95
26/01/2020 17:44:44	26012020	260120	174444	99.840	12.202880	-56.195518	99.900	0.490	-0.600	0.140	99.840	-2.300	0.500																			1580060684.0	11.88	22.00
26/01/2020 17:44:45	26012020	260120	174445	99.860	12.202870	-56.195465	100.000	0.170	0.090	0.200	99.860	-2.000	0.500																			1580060685.0	11.55	21.39
26/01/2020 17:44:46	26012020	260120	174446	99.940	12.202860	-56.195415	100.150	-0.250	0.480	0.320	99.940	-1.300	0.500																			1580060686.0	10.67	19.76
26/01/2020 17:44:47	26012020	260120	174447	100.080	12.202852	-56.195368	100.290	-0.380	0.190	0.360	100.080	-0.900	0.700																			1580060687.0	10.19	18.87
26/01/2020 17:44:48	26012020	260120	174448	100.210	12.202840	-56.195320	100.320	-0.110	-0.520	0.430	100.210	-1.200	0.700																			1580060688.0	10.46	19.37
26/01/2020 17:44:49	26012020	260120	174449	100.220	12.202830	-56.195268	100.230	0.200	-0.890	0.570	100.220	-1.900	0.800																			1580060689.0	11.18	20.71
26/01/2020 17:44:50	26012020	260120	174450	100.120	12.202818	-56.195215	100.140	0.230	-0.560	0.590	100.120	-2.300	0.900																			1580060690.0	11.65	21.58
26/01/2020 17:44:51	26012020	260120	174451	100.030	12.202807	-56.195162	100.190	0.050	-0.030	0.460	100.030	-1.900	0.900																			1580060691.0	11.27	20.87
26/01/2020 17:44:52	26012020	260120	174452	100.090	12.202787	-56.195065	100.270	-0.000	-0.030	0.250	100.090	-1.400	0.800																			1580060692.0	10.49	19.43
26/01/2020 17:44:53	26012020	260120	174453	100.160	12.202787	-56.195065	100.240	0.220	-0.530	0.030	100.160	-1.400	0.600																			1580060693.0	10.36	19.19
26/01/2020 17:44:54	26012020	260120	174454	100.150	12.202778	-56.195013	100.250	0.410	-0.700	0.040	100.150	-1.900	0.400																			1580060694.0	11.05	20.46
26/01/2020 17:44:55	26012020	260120	174455	100.150	12.202770	-56.194960	100.270	0.220	-0.230	0.290	100.150	-2.100	0.400																			1580060695.0	11.65	21.58
26/01/2020 17:44:56	26012020	260120	174456	100.160	12.202760	-56.194908	100.260	-0.260	0.250	0.560	100.160	-1.600	0.600																			1580060696.0	11.27	20.87
26/01/2020 17:44:57	26012020	260120	174457	100.120	12.202748	-56.194858	100.180	-0.550	0.190	0.770	100.120	-1.100	0.900																			1580060697.0	10.54	19.52
26/01/2020 17:44:58	26012020	260120	174458	100.050	12.202735	-56.194812	100.120	-0.360	-0.360	0.670	100.050	-1.200	1.100																			1580060698.0	10.50	19.45
26/01/2020 17:44:59	26012020	260120	174459	100.000	12.202722	-56.194760	100.080	-0.010	-0.670	0.340	100.000	-1.800	1.000	1014.50	26.20	26.30	20.00	20.00	829.00	68.00	68.00	375.00	29.00	351.00	10.40	80.00	4.80	59207	3141.00	27.70	27.70	1580060699.0	11.12	20.59
26/01/2020 17:45:00	26012020	260120	174500	99.990	12.202712	-56.194707	100.070	0.080	-0.340	0.150	99.990	-2.100	0.700																			1580060700.0	11.63	21.54
26/01/2020 17:45:01	26012020	260120	174501	99.990	12.202702	-56.194653	100.100	-0.070	0.120	0.150	99.990	-1.700	0.500																			1580060701.0	11.30	20.93
26/01/2020 17:45:02	26012020	260120	174502	100.020	12.202693	-56.194605	100.040	-0.150	0.050	0.250	100.020	-1.300	0.500																			1580060702.0	10.54	19.52
26/01/2020 17:45:03	26012020	260120	174503	99.950	12.202682	-56.194557	99.980	0.050	-0.540	0.400	99.950	-1.300	0.600																			1580060703.0	10.40	19.26
26/01/2020 17:45:04	26012020	260120	174504	99.880	12.202672	-56.194507	100.060	0.330	-0.860	0.410	99.880	-1.900	0.800																			1580060704.0	11.05	20.46
26/01/2020 17:45:05	26012020	260120	174505	99.980	12.202648	-56.194400	100.250	0.430	-0.440	0.290	99.980	-2.300	0.800																			1580060705.0	11.66	21.59
26/01/2020 17:45:06	26012020	260120	174506	100.190	12.202648	-56.194400	100.500	0.260	0.280	0.110	100.190	-1.800	0.600																			1580060706.0	11.34	21.00
26/01/2020 17:45:07	26012020	260120	174507	100.440	12.202640	-56.194350	100.700	-0.030	0.590	0.010	100.440	-1.100	0.400																			1580060707.0	10.53	19.50
26/01/2020 17:45:08	26012020	260120	174508	100.620	12.202630	-56.194303	100.690	-0.190	0.140	0.090	100.620	-0.800	0.400																			1580060708.0	10.19	18.87
26/01/2020 17:45:09	26012020	260120	174509	100.590	12.202620	-56.194255	100.470	-0.110	-0.620	0.210	100.590	-1.300	0.400																			1580060709.0	10.57	19.58
26/01/2020 17:45:10	26012020	260120	174510	100.360	12.202610	-56.194202	100.270	0.080	-1.090	0.270	100.360	-2.000	0.600																			1580060710.0	11.30	20.93
26/01/2020 17:45:11	26012020	260120	174511	100.170	12.202598	-56.194148	100.220	0.180	-1.070	0.370	100.170	-2.500	0.600																			1580060711.0	11.61	21.50
26/01/2020 17:45:12	26012020	260120	174512	100.120	12.202590	-56.194095	100.210	0.040	-0.650	0.620	100.120	-2.500	0.700																			1580060712.0	11.36	21.04
26/01/2020 17:45:13	26012020	260120	174513	100.100	12.202578	-56.194045	100.150	-0.330	-0.020	0.910	100.100	-2.100	1.000																			1580060713.0	11.05	20.46
26/01/2020 17:45:14	26012020	260120	174514	100.000	12.202565	-56.193995	99.950	-0.600	0.420	1.110	100.000	-1.400	1.300																			1580060714.0	10.78	19.96
26/01/2020 17:45:15	26012020	260120	174515	99.800	12.202552	-56.193947	99.810	-0.450	0.290	0.890	99.800	-1.000	1.500																			1580060715.0	10.60	19.63
26/01/2020 17:45:16	26012020	260120	174516	99.680	12.202538	-56.193898	99.900	0.130	-0.260	0.210	99.680	-1.100	1.200																			1580060716.0	10.78	19.96
26/01/2020 17:45:17	26012020	260120	174517	99.830	12.202527	-56.193847	100.210	0.630	-0.510	-0.380	99.830	-1.700	0.600																			1580060717.0	11.34	21.00
26/01/2020 17:45:18	26012020	260120	174518	100.170	12.202520	-56.193792	100.540	0.570	-0.010	-0.470	100.170	-1.900	-0.000																			1580060718.0	11.77	21.80
26/01/2020 17:45:19	26012020	260120	174519	100.480	12.202512	-56.193738	100.750	0.030	0.630	-0.220	100.480	-1.400	-0.100																			1580060719.0	11.30	20.93
26/01/2020 17:45:20	26012020	260120	174520	100.670	12.202503	-56.193690	100.780	-0.390	0.520	0.110	100.670	-0.800	0.100																			1580060720.0	10.25	18.98
26/01/2020 17:45:21	26012020	260120	174521	100.680	12.202493	-56.193645	100.610	-0.340	-0.410	0.430	100.680	-0.900	0.500																			1580060721.0	9.95	18.43
26/01/2020 17:45:22	26012020	260120	174522	100.490	12.202480	-56.193595	100.360	0.060	-1.370	0.510	100.490	-1.800	0.800																			1580060722.0	10.73	19.87
26/01/2020 17:45:23	26012020	260120	174523	100.250	12.202468	-56.193542	100.150	0.410	-1.570	0.480	100.250	-3.000	0.800																			1580060723.0	11.60	21.48
26/01/2020 17:45:24	26012020	260120	174524	100.040	12.202457	-56.193488	99.950	0.410	-1.010	0.490	100.040	-3.000	0.800																			1580060724.0	11.73	21.72
26/01/2020 17:45:25	26012020	260120	174525	99.840	12.202447	-56.193437	99.740	0.160	-0.330	0.470	99.840	-2.400	0.800																			1580060725.0	11.08	20.52
26/01/2020 17:45:26	26012020	260120	174526	99.670	12.202437	-56.193388	99.590	-0.060	0.080	0.480	99.630	-1.700	0.800																			1580060726.0	10.51	19.46
26/01/2020 17:45:27	26012020	260120	174527	99.470	12.202427	-56.193338	99.540	-0.150	0.270	0.460	99.470	-1.300	0.800																			1580060727.0	10.63	19.69
26/01/2020 17:45:28	26012020	260120	174528	99.450	12.202415	-56.193288	99.700	-0.200	0.350	0.250	99.450	-1.100	0.800																			1580060728.0	11.02	20.41
26/01/2020 17:45:29	26012020	260120	174529	99.640	12.202405	-56.193237	99.930	-0.250	0.330	0.090	99.640	-1.100	0.600																			1580060729.0	11.19	20.72
26/01/2020 17:45:30	26012020	260120	174530	99.870	12.202395	-56.193185	100.110	-0.230	0.180	0.120	99.870	-1.100	0.400																			1580060730.0	11.11	20.58
26/01/2020 17:45:31	26012020	260120	174531	100.060	12.202385	-56.193133	100.260	-0.150	-0.070	0.300	100.060	-1.200	0.500																			1580060731.0	11.02	20.41
26/01/2020 17:45:32	26012020	260120	174532	100.200	12.202373	-56.193083	100.370	-0.080	-0.240	0.560	100.200	-1.500	0.600																			1580060732.0	11.05	20.46
26/01/2020 17:45:33	26012020	260120	174533	100.300	12.202362	-56.193032	100.330	-0.060	-0.300	0.660	100.300	-1.700	0.900																			1580060733.0	11.04	20.45
26/01/2020 17:45:34	26012020	260120	174534	100.220	12.202348	-56.192982	100.130	0.060	-0.490	0.560	100.220	-1.700	1.000																			1580060734.0	10.84	20.08
26/01/2020 17:45:35	26012020	260120	174535	100.030	12.202338	-56.192933	100.060	0.340	-0.910	0.420	100.030	-1.900	0.900																			1580060735.0	10.67	19.76
26/01/2020 17:45:36	26012020	260120	174536	99.970	12.202328	-56.192882	100.030	0.630	-1.190	0.210	99.960	-2.300	0.800																			1580060736.0	10.93	20.24
26/01/2020 17:45:37	26012020	260120	174537	99.950	12.202320	-56.192830	100.000	0.610	-0.750	-0.010	99.950	-2.600	0.600																			1580060737.0	11.37	21.06
26/01/2020 17:45:38	26012020	260120	174538	99.930	12.202302	-56.192727	100.020	0.200	0.220	-0.030	99.930	-2.200	0.300																			1580060738.0	11.39	21.09
26/01/2020 17:45:39	26012020	260120	174539	99.970	12.202302	-56.192727	100.160	-0.280	0.800	0.060	99.970	-1.200	0.300																			1580060739.0	10.70	19.82
26/01/2020 17:45:40	26012020	260120	174540	100.100	12.202292	-56.192680	100.330	-0.380	0.410	0.090	100.100	-0.600	0.400																			1580060740.0	10.10	18.71
26/01/2020 17:45:41	26012020	260120	174541	100.270	12.202282	-56.192632	100.380	-0.120	-0.480	0.340	100.270	-1.000	0.400																			1580060741.0	10.48	19.41
26/01/2020 17:45:42	26012020	260120	174542	100.300	12.202272	-56.192578	100.230	0.100	-0.960	0.690	100.280	-1.900	0.700																			1580060742.0	11.47	21.24
26/01/2020 17:45:43	26012020	260120	174543	100.120	12.202258	-56.192523	100.060	-0.050	-0.670	0.900	100.120	-2.400	1.000																			1580060743.0	11.93	22.09
26/01/2020 17:45:44	26012020	260120	174544	99.950	12.202247	-56.192470	99.910	-0.440	-0.160	0.970	99.950	-2.100	1.200																			1580060744.0	11.44	21.19
26/01/2020 17:45:45	26012020	260120	174545	99.790	12.202235	-56.192422	99.740	-0.650	-0.030	0.870	99.790	-1.600	1.300																			1580060745.0	10.62	19.67
26/01/2020 17:45:46	26012020	260120	174546	99.640	12.202223	-56.192373	99.630	-0.460	-0.160	0.650	99.640	-1.400	1.200																			1580060746.0	10.50	19.45
26/01/2020 17:45:47	26012020	260120	174547	99.550	12.202212	-56.192323	99.660	-0.000	-0.250	0.280	99.550	-1.600	0.800																			1580060747.0	11.02	20.41
26/01/2020 17:45:48	26012020	260120	174548	99.580	12.202200	-56.192270	99.790	0.440	-0.270	-0.130	99.590	-1.600	0.600																			1580060748.0	11.28	20.89
26/01/2020 17:45:49	26012020	260120	174549	99.720	12.202190	-56.192218	99.970	0.620	-0.080	-0.420	99.720	-1.600	0.000																			1580060749.0	11.24	20.82
26/01/2020 17:45:50	26012020	260120	174550	99.870	12.202182	-56.192167	100.200	0.470	0.280	-0.460	99.910	-1.500	-0.100																			1580060750.0	11.15	20.65
26/01/2020 17:45:51	26012020	260120	174551	100.150	12.202173	-56.192117	100.430	0.170	0.450	-0.160	100.150	-1.100	-0.100																			1580060751.0	10.83	20.06
26/01/2020 17:45:52	26012020	260120	174552	100.350	12.202165	-56.192067	100.530	0.010	0.080	0.210	100.350	-0.900	0.200																			1580060752.0	10.45	19.35
26/01/2020 17:45:53	26012020	260120	174553	100.420	12.202155	-56.192018	100.470	0.060	-0.720	0.480	100.420	-1.300	0.600																			1580060753.0	10.50	19.45
26/01/2020 17:45:54	26012020	260120	174554	100.340	12.202143	-56.191968	100.300	0.080	-1.340	0.760	100.340	-2.100	0.800																			1580060754.0	11.04	20.45
26/01/2020 17:45:55	26012020	260120	174555	100.170	12.202133	-56.191915	100.030	-0.150	-1.220	1.050	100.170	-2.700	1.100																			1580060755.0	11.56	21.41
26/01/2020 17:45:56	26012020	260120	174556	99.890	12.202120	-56.191862	99.690	-0.480	-0.540	1.080	99.890	-2.600	1.400																			1580060756.0	11.45	21.21
26/01/2020 17:45:57	26012020	260120	174557	99.550	12.202107	-56.191812	99.330	-0.560	-0.130	0.890	99.550	-1.900	1.400																			1580060757.0	10.78	19.96
26/01/2020 17:45:58	26012020	260120	174558	99.210	12.202095	-56.191765	99.160	-0.240	-0.310	0.540	99.210	-1.500	1.200																			1580060758.0	10.39	19.24
26/01/2020 17:45:59	26012020	260120	174559	99.090	12.202085	-56.191715	99.230	0.160	-0.480	0.120	99.090	-1.700	0.900	1014.40	26.20	26.30	20.10	20.20	826.00	69.00	69.00	376.00	29.00	351.00	10.20	80.00	4.70	59008	3421.00	27.70	27.70	1580060759.0	10.92	20.22
26/01/2020 17:46:00	26012020	260120	174600	99.160	12.202075	-56.191660	99.340	0.190	0.130	-0.060	99.160	-1.900	0.500																			1580060760.0	11.72	21.71
26/01/2020 17:46:01	26012020	260120	174601	99.280	12.202065	-56.191605	99.480	-0.100	0.950	-0.080	99.280	-0.700	0.300																			1580060761.0	11.64	21.56
26/01/2020 17:46:02	26012020	260120	174602	99.420	12.202055	-56.191557	99.680	-0.210	0.900	-0.040	99.420	-0.400	0.300																			1580060762.0	10.57	19.58
26/01/2020 17:46:03	26012020	260120	174603	99.620	12.202047	-56.191510	99.930	0.040	0.030	0.080	99.620	-0.500	0.300																			1580060763.0	10.15	18.80
26/01/2020 17:46:04	26012020	260120	174604	99.880	12.202037	-56.191458	100.120	0.380	-0.730	0.210	99.880	-1.400	0.400																			1580060764.0	10.98	20.33
26/01/2020 17:46:05	26012020	260120	174605	100.060	12.202027	-56.191405	100.170	0.430	-0.750	0.400	100.060	-2.100	0.600																			1580060765.0	11.69	21.65
26/01/2020 17:46:06	26012020	260120	174606	100.090	12.202015	-56.191352	100.130	0.140	-0.340	0.690	100.090	-2.100	0.800																			1580060766.0	11.41	21.13
26/01/2020 17:46:07	26012020	260120	174607	100.020	12.202005	-56.191303	99.990	-0.140	-0.290	0.800	100.020	-1.700	1.000																			1580060767.0	10.54	19.52
26/01/2020 17:46:08	26012020	260120	174608	99.880	12.201995	-56.191257	99.840	-0.120	-0.730	0.660	99.880	-1.700	1.200																			1580060768.0	10.14	18.78
26/01/2020 17:46:09	26012020	260120	174609	99.730	12.201983	-56.191207	99.690	0.040	-0.960	0.590	99.730	-2.100	1.000																			1580060769.0	10.72	19.85
26/01/2020 17:46:10	26012020	260120	174610	99.560	12.201973	-56.191153	99.500	0.060	-0.620	0.550	99.560	-2.400	0.900																			1580060770.0	11.40	21.11
26/01/2020 17:46:11	26012020	260120	174611	99.380	12.201963	-56.191102	99.330	-0.070	-0.140	0.450	99.380	-1.700	0.800																			1580060771.0	11.25	20.84
26/01/2020 17:46:12	26012020	260120	174612	99.230	12.201953	-56.191052	99.280	-0.140	0.010	0.310	99.230	-1.500	0.800																			1580060772.0	10.73	19.87
26/01/2020 17:46:13	26012020	260120	174613	99.230	12.201943	-56.191002	99.430	-0.130	-0.020	0.030	99.230	-1.400	0.500																			1580060773.0	10.71	19.83
26/01/2020 17:46:14	26012020	260120	174614	99.400	12.201933	-56.190950	99.640	-0.100	0.090	-0.170	99.400	-1.400	0.400																			1580060774.0	11.14	20.63
26/01/2020 17:46:15	26012020	260120	174615	99.610	12.201925	-56.190898	99.790	-0.080	0.260	-0.060	99.610	-1.300	0.200																			1580060775.0	11.23	20.80
26/01/2020 17:46:16	26012020	260120	174616	99.750	12.201915	-56.190848	99.860	-0.070	0.160	0.220	99.750	-1.100	0.300																			1580060776.0	10.95	20.28
26/01/2020 17:46:17	26012020	260120	174617	99.820	12.201903	-56.190798	99.900	0.010	-0.260	0.340	99.820	-1.200	0.600																			1580060777.0	10.78	19.96
26/01/2020 17:46:18	26012020	260120	174618	99.850	12.201893	-56.190747	99.890	0.170	-0.690	0.320	99.850	-1.700	0.700																			1580060778.0	10.98	20.33
26/01/2020 17:46:19	26012020	260120	174619	99.830	12.201882	-56.190695	99.840	0.320	-0.860	0.350	99.830	-2.100	0.700																			1580060779.0	11.26	20.85
26/01/2020 17:46:20	26012020	260120	174620	99.760	12.201873	-56.190643	99.720	0.280	-0.660	0.390	99.760	-2.300	0.700																			1580060780.0	11.27	20.87
26/01/2020 17:46:21	26012020	260120	174621	99.650	12.201863	-56.190592	99.710	-0.040	-0.120	0.320	99.650	-2.100	0.700																			1580060781.0	11.11	20.58
26/01/2020 17:46:22	26012020	260120	174622	99.640	12.201852	-56.190542	99.680	-0.440	0.370	0.330	99.640	-1.500	0.700																			1580060782.0	10.80	20.00
26/01/2020 17:46:23	26012020	260120	174623	99.590	12.201842	-56.190493	99.560	-0.560	0.300	0.330	99.590	-1.000	0.700																			1580060783.0	10.44	19.33
26/01/2020 17:46:24	26012020	260120	174624	99.480	12.201832	-56.190445	99.500	-0.220	-0.330	0.180	99.480	-1.100	0.700																			1580060784.0	10.45	19.35
26/01/2020 17:46:25	26012020	260120	174625	99.440	12.201820	-56.190393	99.520	0.290	-0.900	0.090	99.440	-2.200	0.500																			1580060785.0	11.05	20.46
26/01/2020 17:46:26	26012020	260120	174626	99.450	12.201810	-56.190340	99.580	0.510	-0.820	0.120	99.470	-2.300	0.400																			1580060786.0	11.67	21.61
26/01/2020 17:46:27	26012020	260120	174627	99.530	12.201800	-56.190285	99.640	0.280	-0.160	0.290	99.530	-1.800	0.600																			1580060787.0	11.63	21.54
26/01/2020 17:46:28	26012020	260120	174628	99.590	12.201790	-56.190235	99.720	-0.120	0.420	0.480	99.590	-1.600	0.600																			1580060788.0	10.91	20.21
26/01/2020 17:46:29	26012020	260120	174629	99.650	12.201780	-56.190187	99.760	-0.260	0.290	0.600	99.650	-1.000	0.800																			1580060789.0	10.28	19.04
26/01/2020 17:46:30	26012020	260120	174630	99.690	12.201770	-56.190140	99.740	0.010	-0.430	0.710	99.690	-1.100	0.900																			1580060790.0	10.39	19.24
26/01/2020 17:46:31	26012020	260120	174631	99.650	12.201758	-56.190088	99.710	0.370	-0.870	0.750	99.650	-1.800	1.100																			1580060791.0	11.14	20.63
26/01/2020 17:46:32	26012020	260120	174632	99.630	12.201747	-56.190033	99.790	0.360	-0.540	0.740	99.630	-2.300	1.100																			1580060792.0	11.78	21.82
26/01/2020 17:46:33	26012020	260120	174633	99.700	12.201737	-56.189980	99.840	-0.030	0.060	0.700	99.700	-1.900	1.100																			1580060793.0	11.45	21.21
26/01/2020 17:46:34	26012020	260120	174634	99.760	12.201728	-56.189932	99.870	-0.410	0.270	0.550	99.760	-1.300	1.000																			1580060794.0	10.56	19.56
26/01/2020 17:46:35	26012020	260120	174635	99.790	12.201718	-56.189883	99.920	-0.500	-0.040	0.440	99.790	-1.300	0.800																			1580060795.0	10.28	19.04
26/01/2020 17:46:36	26012020	260120	174636	99.840	12.201708	-56.189833	99.970	-0.290	-0.560	0.320	99.840	-1.400	0.800																			1580060796.0	10.74	19.89
26/01/2020 17:46:37	26012020	260120	174637	99.900	12.201698	-56.189782	99.920	-0.010	-0.790	0.200	99.900	-2.200	0.600																			1580060797.0	11.29	20.91
26/01/2020 17:46:38	26012020	260120	174638	99.830	12.201687	-56.189728	99.800	0.110	-0.540	0.090	99.830	-2.200	0.500																			1580060798.0	11.50	21.30
26/01/2020 17:46:39	26012020	260120	174639	99.710	12.201677	-56.189677	99.710	0.070	-0.180	0.150	99.710	-1.700	0.500																			1580060799.0	11.23	20.80
26/01/2020 17:46:40	26012020	260120	174640	99.640	12.201667	-56.189627	99.650	0.070	-0.120	0.290	99.620	-1.600	0.500																			1580060800.0	10.76	19.93
26/01/2020 17:46:41	26012020	260120	174641	99.560	12.201657	-56.189577	99.610	0.230	-0.300	0.330	99.560	-1.500	0.600																			1580060801.0	10.71	19.83
26/01/2020 17:46:42	26012020	260120	174642	99.530	12.201645	-56.189525	99.660	0.340	-0.240	0.350	99.530	-1.700	0.700																			1580060802.0	11.13	20.61
26/01/2020 17:46:43	26012020	260120	174643	99.590	12.201635	-56.189473	99.830	0.130	0.280	0.470	99.590	-1.600	0.700																			1580060803.0	11.44	21.19
26/01/2020 17:46:44	26012020	260120	174644	99.790	12.201625	-56.189422	100.060	-0.300	0.770	0.510	99.790	-1.100	0.800																			1580060804.0	11.10	20.56
26/01/2020 17:46:45	26012020	260120	174645	100.020	12.201615	-56.189373	100.190	-0.480	0.360	0.490	100.020	-0.600	0.900																			1580060805.0	10.36	19.19
26/01/2020 17:46:46	26012020	260120	174646	100.140	12.201605	-56.189327	100.200	-0.100	-0.820	0.590	100.140	-1.000	0.800																			1580060806.0	10.22	18.93
26/01/2020 17:46:47	26012020	260120	174647	100.130	12.201595	-56.189275	100.220	0.420	-1.480	0.670	100.130	-2.200	0.900																			1580060807.0	11.15	20.65
26/01/2020 17:46:48	26012020	260120	174648	100.150	12.201582	-56.189218	100.200	0.490	-0.950	0.670	100.150	-2.900	1.000																			1580060808.0	12.05	22.32
26/01/2020 17:46:49	26012020	260120	174649	100.130	12.201572	-56.189167	100.100	0.120	-0.080	0.600	100.130	-2.300	1.000																			1580060809.0	11.47	21.24
26/01/2020 17:46:50	26012020	260120	174650	100.000	12.201562	-56.189118	99.970	-0.210	0.120	0.440	100.000	-1.500	0.900																			1580060810.0	10.23	18.95
26/01/2020 17:46:51	26012020	260120	174651	99.870	12.201552	-56.189072	99.910	-0.210	-0.300	0.240	99.870	-1.300	0.800																			1580060811.0	10.05	18.61
26/01/2020 17:46:52	26012020	260120	174652	99.830	12.201542	-56.189022	99.980	-0.040	-0.620	0.050	99.840	-1.700	0.600																			1580060812.0	10.90	20.19
26/01/2020 17:46:53	26012020	260120	174653	99.920	12.201533	-56.188967	100.100	-0.030	-0.230	-0.060	99.920	-2.000	0.400																			1580060813.0	11.64	21.56
26/01/2020 17:46:54	26012020	260120	174654	100.050	12.201522	-56.188913	100.180	-0.240	0.370	0.030	100.050	-1.600	0.300																			1580060814.0	11.49	21.28
26/01/2020 17:46:55	26012020	260120	174655	100.110	12.201512	-56.188865	100.180	-0.360	0.330	0.220	100.110	-1.000	0.400																			1580060815.0	10.63	19.69
26/01/2020 17:46:56	26012020	260120	174656	100.090	12.201502	-56.188817	100.090	-0.140	-0.320	0.420	100.090	-1.100	0.600																			1580060816.0	10.36	19.19
26/01/2020 17:46:57	26012020	260120	174657	99.990	12.201490	-56.188767	99.980	0.170	-0.770	0.560	99.990	-1.700	0.800																			1580060817.0	11.05	20.46
26/01/2020 17:46:58	26012020	260120	174658	99.890	12.201478	-56.188712	99.940	0.270	-0.620	0.660	99.890	-2.200	0.900																			1580060818.0	11.69	21.65
26/01/2020 17:46:59	26012020	260120	174659	99.870	12.201467	-56.188660	100.010	0.150	-0.200	0.610	99.870	-2.000	1.000	1014.40	26.20	26.30	20.10	20.20	825.00	69.00	69.00	376.00	29.00	352.00	10.30	81.00	4.80	58868	3304.00	27.70	27.70	1580060819.0	11.41	21.13
26/01/2020 17:47:00	26012020	260120	174700	99.950	12.201457	-56.188610	100.030	-0.010	0.060	0.410	99.950	-1.600	1.000																			1580060820.0	10.79	19.98
26/01/2020 17:47:01	26012020	260120	174701	99.960	12.201447	-56.188562	100.010	-0.040	0.070	0.160	99.960	-1.300	0.600																			1580060821.0	10.57	19.58
26/01/2020 17:47:02	26012020	260120	174702	99.960	12.201435	-56.188512	100.120	0.050	0.090	-0.060	99.960	-1.300	0.500																			1580060822.0	10.76	19.93
26/01/2020 17:47:03	26012020	260120	174703	100.090	12.201427	-56.188460	100.360	0.170	0.060	-0.280	100.090	-1.300	0.100																			1580060823.0	10.97	20.32
26/01/2020 17:47:04	26012020	260120	174704	100.330	12.201417	-56.188410	100.530	0.210	-0.160	-0.370	100.330	-1.300	0.100																			1580060824.0	10.84	20.08
26/01/2020 17:47:05	26012020	260120	174705	100.480	12.201407	-56.188360	100.510	0.120	-0.460	-0.190	100.480	-1.600	-0.000																			1580060825.0	10.81	20.02
26/01/2020 17:47:06	26012020	260120	174706	100.440	12.201398	-56.188308	100.420	0.020	-0.650	0.210	100.440	-1.900	0.200																			1580060826.0	10.96	20.30
26/01/2020 17:47:07	26012020	260120	174707	100.340	12.201387	-56.188258	100.270	0.030	-0.850	0.580	100.340	-2.000	0.600																			1580060827.0	10.97	20.32
26/01/2020 17:47:08	26012020	260120	174708	100.170	12.201375	-56.188208	99.950	0.130	-1.100	0.700	100.170	-2.200	0.900																			1580060828.0	10.92	20.22
26/01/2020 17:47:09	26012020	260120	174709	99.840	12.201363	-56.188157	99.540	0.100	-1.060	0.780	99.840	-2.500	1.100																			1580060829.0	11.15	20.65
26/01/2020 17:47:10	26012020	260120	174710	99.430	12.201352	-56.188103	99.200	-0.130	-0.500	0.960	99.430	-2.500	1.100																			1580060830.0	11.45	21.21
26/01/2020 17:47:11	26012020	260120	174711	99.120	12.201342	-56.188052	99.140	-0.390	0.270	0.880	99.120	-1.900	1.300																			1580060831.0	11.31	20.95
26/01/2020 17:47:12	26012020	260120	174712	99.080	12.201328	-56.188002	99.330	-0.530	0.710	0.580	99.080	-1.100	1.200																			1580060832.0	10.87	20.13
26/01/2020 17:47:13	26012020	260120	174713	99.300	12.201318	-56.187952	99.650	-0.530	0.710	0.340	99.300	-0.700	0.900																			1580060833.0	10.71	19.83
26/01/2020 17:47:14	26012020	260120	174714	99.620	12.201307	-56.187902	99.980	-0.350	0.540	0.250	99.620	-0.700	0.700																			1580060834.0	10.96	20.30
26/01/2020 17:47:15	26012020	260120	174715	99.950	12.201297	-56.187850	100.240	0.040	0.290	0.160	99.950	-1.000	0.500																			1580060835.0	11.20	20.74
26/01/2020 17:47:16	26012020	260120	174716	100.160	12.201285	-56.187798	100.450	0.520	-0.210	0.000	100.200	-1.100	0.500																			1580060836.0	11.07	20.50
26/01/2020 17:47:17	26012020	260120	174717	100.400	12.201273	-56.187748	100.610	0.850	-0.700	-0.110	100.400	-2.000	0.300																			1580060837.0	10.97	20.32
26/01/2020 17:47:18	26012020	260120	174718	100.540	12.201265	-56.187697	100.760	0.800	-0.740	-0.020	100.570	-2.100	0.200																			1580060838.0	11.13	20.61
26/01/2020 17:47:19	26012020	260120	174719	100.710	12.201258	-56.187645	100.810	0.430	-0.570	0.290	100.710	-2.100	0.300																			1580060839.0	11.05	20.46
26/01/2020 17:47:20	26012020	260120	174720	100.720	12.201250	-56.187595	100.640	0.060	-0.740	0.710	100.720	-2.000	0.700																			1580060840.0	10.52	19.48
26/01/2020 17:47:21	26012020	260120	174721	100.510	12.201240	-56.187547	100.290	-0.100	-1.100	1.090	100.510	-2.100	1.100																			1580060841.0	10.41	19.28
26/01/2020 17:47:22	26012020	260120	174722	100.140	12.201227	-56.187497	99.950	-0.140	-1.050	1.130	100.140	-2.500	1.400																			1580060842.0	11.08	20.52
26/01/2020 17:47:23	26012020	260120	174723	99.820	12.201213	-56.187443	99.790	-0.210	-0.490	0.860	99.820	-2.500	1.500																			1580060843.0	11.52	21.34
26/01/2020 17:47:24	26012020	260120	174724	99.680	12.201202	-56.187392	99.750	-0.410	0.220	0.510	99.680	-1.900	1.200																			1580060844.0	11.25	20.84
26/01/2020 17:47:25	26012020	260120	174725	99.670	12.201192	-56.187342	99.850	-0.680	0.640	0.100	99.670	-0.900	0.600																			1580060845.0	10.84	20.08
26/01/2020 17:47:26	26012020	260120	174726	99.810	12.201182	-56.187292	100.100	-0.770	0.580	-0.220	99.810	-0.800	0.400																			1580060846.0	10.72	19.85
26/01/2020 17:47:27	26012020	260120	174727	100.070	12.201172	-56.187242	100.380	-0.490	0.120	-0.300	100.070	-1.100	0.100																			1580060847.0	10.90	20.19
26/01/2020 17:47:28	26012020	260120	174728	100.360	12.201162	-56.187190	100.570	0.030	-0.360	-0.220	100.360	-1.300	0.100																			1580060848.0	11.25	20.84
26/01/2020 17:47:29	26012020	260120	174729	100.530	12.201148	-56.187137	100.600	0.500	-0.550	-0.100	100.530	-1.900	0.200																			1580060849.0	11.54	21.37
26/01/2020 17:47:30	26012020	260120	174730	100.550	12.201137	-56.187083	100.510	0.740	-0.430	0.060	100.550	-1.900	0.300																			1580060850.0	11.45	21.21
26/01/2020 17:47:31	26012020	260120	174731	100.460	12.201125	-56.187033	100.400	0.650	-0.170	0.160	100.460	-1.800	0.400																			1580060851.0	11.07	20.50
26/01/2020 17:47:32	26012020	260120	174732	100.340	12.201115	-56.186983	100.350	0.320	0.030	0.100	100.340	-1.600	0.500																			1580060852.0	10.76	19.93
26/01/2020 17:47:33	26012020	260120	174733	100.290	12.201107	-56.186933	100.370	-0.010	-0.040	-0.010	100.290	-1.400	0.400																			1580060853.0	10.60	19.63
26/01/2020 17:47:34	26012020	260120	174734	100.310	12.201098	-56.186883	100.320	-0.180	-0.320	0.160	100.310	-1.400	0.300																			1580060854.0	10.63	19.69
26/01/2020 17:47:35	26012020	260120	174735	100.260	12.201088	-56.186833	100.190	-0.230	-0.500	0.410	100.260	-1.700	0.500																			1580060855.0	10.92	20.22
26/01/2020 17:47:36	26012020	260120	174736	100.130	12.201077	-56.186782	100.090	-0.210	-0.450	0.560	100.130	-1.900	0.800																			1580060856.0	11.17	20.69
26/01/2020 17:47:37	26012020	260120	174737	100.030	12.201063	-56.186732	100.030	-0.170	-0.290	0.540	100.030	-1.900	0.900																			1580060857.0	11.10	20.56
26/01/2020 17:47:38	26012020	260120	174738	99.980	12.201052	-56.186682	100.010	-0.050	-0.420	0.300	99.980	-1.700	0.900																			1580060858.0	10.85	20.09
26/01/2020 17:47:39	26012020	260120	174739	99.950	12.201040	-56.186632	99.940	0.200	-0.810	0.130	99.950	-1.800	0.600																			1580060859.0	10.79	19.98
26/01/2020 17:47:40	26012020	260120	174740	99.870	12.201030	-56.186580	99.840	0.390	-0.800	0.150	99.870	-2.200	0.500																			1580060860.0	11.20	20.74
26/01/2020 17:47:41	26012020	260120	174741	99.770	12.201020	-56.186527	99.750	0.290	-0.240	0.320	99.770	-1.900	0.600																			1580060861.0	11.60	21.48
26/01/2020 17:47:42	26012020	260120	174742	99.690	12.201010	-56.186475	99.680	-0.020	0.240	0.560	99.680	-1.600	0.700																			1580060862.0	11.19	20.72
26/01/2020 17:47:43	26012020	260120	174743	99.600	12.200998	-56.186425	99.650	-0.280	0.230	0.770	99.600	-1.200	0.900																			1580060863.0	10.63	19.69
26/01/2020 17:47:44	26012020	260120	174744	99.570	12.200988	-56.186375	99.720	-0.370	-0.060	0.860	99.570	-1.200	1.100																			1580060864.0	10.73	19.87
26/01/2020 17:47:45	26012020	260120	174745	99.640	12.200977	-56.186323	99.810	-0.330	-0.280	0.840	99.640	-1.500	1.200																			1580060865.0	11.22	20.78
26/01/2020 17:47:46	26012020	260120	174746	99.750	12.200965	-56.186272	99.870	-0.260	-0.220	0.790	99.750	-1.700	1.200																			1580060866.0	11.45	21.21
26/01/2020 17:47:47	26012020	260120	174747	99.810	12.200953	-56.186218	99.950	-0.210	0.020	0.610	99.810	-1.600	1.100																			1580060867.0	11.30	20.93
26/01/2020 17:47:48	26012020	260120	174748	99.880	12.200942	-56.186168	100.050	-0.110	0.090	0.210	99.880	-1.400	1.000																			1580060868.0	10.94	20.26
26/01/2020 17:47:49	26012020	260120	174749	100.000	12.200932	-56.186118	100.170	0.080	-0.040	-0.220	100.000	-1.300	0.600																			1580060869.0	10.72	19.85
26/01/2020 17:47:50	26012020	260120	174750	100.130	12.200922	-56.186068	100.290	0.280	-0.230	-0.510	100.130	-1.500	0.100																			1580060870.0	10.85	20.09
26/01/2020 17:47:51	26012020	260120	174751	100.250	12.200913	-56.186017	100.380	0.420	-0.390	-0.570	100.250	-1.700	-0.200																			1580060871.0	11.00	20.37
26/01/2020 17:47:52	26012020	260120	174752	100.330	12.200905	-56.185967	100.360	0.500	-0.510	-0.330	100.340	-1.800	-0.200																			1580060872.0	10.98	20.33
26/01/2020 17:47:53	26012020	260120	174753	100.310	12.200897	-56.185915	100.260	0.540	-0.650	-0.040	100.310	-2.000	0.200																			1580060873.0	10.92	20.22
26/01/2020 17:47:54	26012020	260120	174754	100.200	12.200885	-56.185865	100.170	0.500	-0.810	0.160	100.200	-2.100	0.300																			1580060874.0	10.95	20.28
26/01/2020 17:47:55	26012020	260120	174755	100.100	12.200875	-56.185813	100.070	0.250	-0.690	0.400	100.100	-2.200	0.500																			1580060875.0	11.10	20.56
26/01/2020 17:47:56	26012020	260120	174756	99.980	12.200865	-56.185762	99.950	-0.220	-0.320	0.570	99.980	-2.100	0.800																			1580060876.0	11.23	20.80
26/01/2020 17:47:57	26012020	260120	174757	99.870	12.200855	-56.185710	99.830	-0.640	-0.070	0.690	99.870	-1.700	0.900																			1580060877.0	11.02	20.41
26/01/2020 17:47:58	26012020	260120	174758	99.740	12.200843	-56.185660	99.700	-0.800	-0.150	0.740	99.740	-1.500	1.000																			1580060878.0	10.81	20.02
26/01/2020 17:47:59	26012020	260120	174759	99.600	12.200830	-56.185610	99.600	-0.670	-0.390	0.550	99.600	-1.600	1.100	1014.40	26.20	26.30	19.80	19.90	823.00	68.00	68.00	376.00	29.00	353.00	10.50	86.00	4.90	58757	3125.00	27.70	27.70	1580060879.0	11.06	20.48
26/01/2020 17:48:00	26012020	260120	174800	99.520	12.200817	-56.185557	99.560	-0.380	-0.350	0.340	99.520	-1.800	0.900																			1580060880.0	11.47	21.24
26/01/2020 17:48:01	26012020	260120	174801	99.490	12.200805	-56.185503	99.540	-0.200	0.130	0.170	99.490	-1.800	0.700																			1580060881.0	11.66	21.59
26/01/2020 17:48:02	26012020	260120	174802	99.490	12.200793	-56.185452	99.630	-0.170	0.610	-0.050	99.490	-1.300	0.500																			1580060882.0	11.33	20.98
26/01/2020 17:48:03	26012020	260120	174803	99.610	12.200782	-56.185402	99.840	-0.070	0.570	-0.240	99.610	-0.800	0.200																			1580060883.0	10.71	19.83
26/01/2020 17:48:04	26012020	260120	174804	99.820	12.200772	-56.185353	100.060	0.260	-0.030	-0.310	99.820	-0.900	0.100																			1580060884.0	10.56	19.56
26/01/2020 17:48:05	26012020	260120	174805	100.030	12.200763	-56.185302	100.120	0.730	-0.680	-0.210	100.030	-1.900	0.100																			1580060885.0	10.97	20.32
26/01/2020 17:48:06	26012020	260120	174806	100.080	12.200753	-56.185248	100.080	0.940	-0.730	0.060	100.080	-2.100	0.200																			1580060886.0	11.47	21.24
26/01/2020 17:48:07	26012020	260120	174807	100.010	12.200743	-56.185195	100.020	0.680	-0.250	0.350	100.010	-1.800	0.600																			1580060887.0	11.48	21.26
26/01/2020 17:48:08	26012020	260120	174808	99.960	12.200733	-56.185145	99.980	0.210	-0.050	0.560	99.950	-1.700	0.700																			1580060888.0	10.76	19.93
26/01/2020 17:48:09	26012020	260120	174809	99.900	12.200725	-56.185098	99.900	-0.050	-0.560	0.620	99.900	-1.500	0.900																			1580060889.0	10.19	18.87
26/01/2020 17:48:10	26012020	260120	174810	99.820	12.200715	-56.185048	99.770	-0.060	-1.150	0.740	99.820	-2.000	1.000																			1580060890.0	10.60	19.63
26/01/2020 17:48:11	26012020	260120	174811	99.690	12.200705	-56.184995	99.620	-0.150	-1.010	0.930	99.690	-2.600	1.100																			1580060891.0	11.52	21.34
26/01/2020 17:48:12	26012020	260120	174812	99.540	12.200692	-56.184942	99.500	-0.420	-0.420	0.850	99.540	-2.400	1.300																			1580060892.0	11.72	21.71
26/01/2020 17:48:13	26012020	260120	174813	99.440	12.200680	-56.184892	99.430	-0.620	-0.120	0.610	99.440	-1.800	1.200																			1580060893.0	11.01	20.39
26/01/2020 17:48:14	26012020	260120	174814	99.370	12.200668	-56.184842	99.290	-0.550	-0.200	0.450	99.370	-1.500	1.000																			1580060894.0	10.67	19.76
26/01/2020 17:48:15	26012020	260120	174815	99.200	12.200657	-56.184792	99.130	-0.330	-0.170	0.370	99.200	-1.600	0.700																			1580060895.0	11.15	20.65
26/01/2020 17:48:16	26012020	260120	174816	99.060	12.200645	-56.184737	99.220	-0.170	0.190	0.250	99.060	-1.600	0.700																			1580060896.0	11.61	21.50
26/01/2020 17:48:17	26012020	260120	174817	99.160	12.200633	-56.184685	99.520	-0.160	0.610	0.080	99.160	-0.900	0.500																			1580060897.0	11.42	21.15
26/01/2020 17:48:18	26012020	260120	174818	99.410	12.200623	-56.184633	99.870	-0.120	0.590	-0.070	99.490	-0.800	0.400																			1580060898.0	10.93	20.24
26/01/2020 17:48:19	26012020	260120	174819	99.830	12.200615	-56.184585	100.070	0.140	0.100	-0.020	99.830	-1.100	0.300																			1580060899.0	10.69	19.80
26/01/2020 17:48:20	26012020	260120	174820	100.030	12.200605	-56.184533	100.200	0.560	-0.380	0.120	100.030	-1.300	0.300																			1580060900.0	10.98	20.33
26/01/2020 17:48:21	26012020	260120	174821	100.160	12.200593	-56.184480	100.340	0.770	-0.470	0.110	100.160	-1.800	0.500																			1580060901.0	11.38	21.08
26/01/2020 17:48:22	26012020	260120	174822	100.320	12.200583	-56.184428	100.490	0.610	-0.320	0.020	100.320	-1.900	0.500																			1580060902.0	11.25	20.84
26/01/2020 17:48:23	26012020	260120	174823	100.470	12.200575	-56.184378	100.530	0.300	-0.310	0.020	100.470	-1.700	0.400																			1580060903.0	10.74	19.89
26/01/2020 17:48:24	26012020	260120	174824	100.490	12.200567	-56.184330	100.420	0.170	-0.740	0.080	100.490	-1.700	0.400																			1580060904.0	10.41	19.28
26/01/2020 17:48:25	26012020	260120	174825	100.360	12.200558	-56.184280	100.160	0.210	-1.300	0.260	100.360	-2.200	0.400																			1580060905.0	10.63	19.69
26/01/2020 17:48:26	26012020	260120	174826	100.080	12.200548	-56.184228	99.820	0.130	-1.270	0.590	100.080	-2.700	0.600																			1580060906.0	11.32	20.96
26/01/2020 17:48:27	26012020	260120	174827	99.740	12.200537	-56.184175	99.520	-0.240	-0.630	0.790	99.740	-2.700	0.900																			1580060907.0	11.66	21.59
26/01/2020 17:48:28	26012020	260120	174828	99.450	12.200523	-56.184123	99.280	-0.660	-0.030	0.780	99.450	-2.000	1.100																			1580060908.0	11.20	20.74
26/01/2020 17:48:29	26012020	260120	174829	99.210	12.200512	-56.184073	99.110	-0.850	0.150	0.640	99.210	-1.400	1.100																			1580060909.0	10.70	19.82
26/01/2020 17:48:30	26012020	260120	174830	99.050	12.200498	-56.184023	99.090	-0.790	0.170	0.430	99.030	-1.300	1.000																			1580060910.0	10.92	20.22
26/01/2020 17:48:31	26012020	260120	174831	99.030	12.200487	-56.183972	99.240	-0.570	0.280	0.190	99.030	-1.300	0.800																			1580060911.0	11.43	21.17
26/01/2020 17:48:32	26012020	260120	174832	99.150	12.200475	-56.183918	99.500	-0.240	0.380	-0.100	99.190	-1.100	0.500																			1580060912.0	11.50	21.30
26/01/2020 17:48:33	26012020	260120	174833	99.450	12.200463	-56.183867	99.750	0.120	0.340	-0.320	99.450	-1.000	0.200																			1580060913.0	11.22	20.78
26/01/2020 17:48:34	26012020	260120	174834	99.710	12.200453	-56.183815	99.990	0.430	0.220	-0.430	99.710	-1.100	0.000																			1580060914.0	11.11	20.58
26/01/2020 17:48:35	26012020	260120	174835	99.950	12.200443	-56.183763	100.210	0.660	0.010	-0.380	99.950	-1.200	-0.100																			1580060915.0	11.05	20.46
26/01/2020 17:48:36	26012020	260120	174836	100.160	12.200435	-56.183713	100.320	0.820	-0.370	-0.130	100.160	-1.400	-0.000																			1580060916.0	10.90	20.19
26/01/2020 17:48:37	26012020	260120	174837	100.260	12.200425	-56.183662	100.320	0.850	-0.760	0.110	100.260	-1.800	0.200																			1580060917.0	10.88	20.15
26/01/2020 17:48:38	26012020	260120	174838	100.260	12.200417	-56.183612	100.250	0.630	-0.920	0.390	100.260	-2.200	0.500																			1580060918.0	11.01	20.39
26/01/2020 17:48:39	26012020	260120	174839	100.170	12.200408	-56.183560	100.060	0.170	-0.810	0.770	100.170	-2.300	0.800																			1580060919.0	11.08	20.52
26/01/2020 17:48:40	26012020	260120	174840	99.960	12.200398	-56.183508	99.790	-0.340	-0.620	1.050	99.960	-2.200	1.100																			1580060920.0	10.90	20.19
26/01/2020 17:48:41	26012020	260120	174841	99.690	12.200387	-56.183460	99.440	-0.690	-0.540	1.160	99.690	-2.000	1.500																			1580060921.0	10.77	19.95
26/01/2020 17:48:42	26012020	260120	174842	99.320	12.200373	-56.183410	99.030	-0.760	-0.560	1.120	99.320	-2.000	1.500																			1580060922.0	10.88	20.15
26/01/2020 17:48:43	26012020	260120	174843	98.920	12.200360	-56.183358	98.760	-0.560	-0.610	0.880	98.920	-2.000	1.300																			1580060923.0	11.19	20.72
26/01/2020 17:48:44	26012020	260120	174844	98.670	12.200347	-56.183307	98.680	-0.260	-0.480	0.540	98.670	-2.000	1.200																			1580060924.0	11.44	21.19
26/01/2020 17:48:45	26012020	260120	174845	98.600	12.200335	-56.183253	98.700	-0.070	-0.020	0.220	98.600	-1.900	0.900																			1580060925.0	11.61	21.50
26/01/2020 17:48:46	26012020	260120	174846	98.640	12.200325	-56.183200	98.850	-0.050	0.550	-0.080	98.640	-1.400	0.600																			1580060926.0	11.47	21.24
26/01/2020 17:48:47	26012020	260120	174847	98.820	12.200315	-56.183148	99.150	-0.040	0.880	-0.190	98.820	-0.900	0.300																			1580060927.0	11.08	20.52
26/01/2020 17:48:48	26012020	260120	174848	99.140	12.200307	-56.183098	99.580	0.060	0.670	-0.210	99.140	-0.500	0.200																			1580060928.0	10.80	20.00
26/01/2020 17:48:49	26012020	260120	174849	99.550	12.200298	-56.183047	100.040	0.300	0.040	-0.160	99.550	-0.800	0.200																			1580060929.0	10.84	20.08
26/01/2020 17:48:50	26012020	260120	174850	100.010	12.200288	-56.182995	100.440	0.500	-0.510	0.020	100.010	-1.400	0.200																			1580060930.0	11.17	20.69
26/01/2020 17:48:51	26012020	260120	174851	100.420	12.200278	-56.182942	100.690	0.450	-0.560	0.220	100.420	-1.900	0.400																			1580060931.0	11.43	21.17
26/01/2020 17:48:52	26012020	260120	174852	100.640	12.200268	-56.182890	100.660	0.160	-0.370	0.520	100.640	-2.000	0.600																			1580060932.0	11.17	20.69
26/01/2020 17:48:53	26012020	260120	174853	100.570	12.200258	-56.182842	100.360	-0.090	-0.490	0.750	100.570	-1.800	1.100																			1580060933.0	10.55	19.54
26/01/2020 17:48:54	26012020	260120	174854	100.250	12.200247	-56.182793	100.010	-0.090	-1.070	0.680	100.250	-1.900	1.100																			1580060934.0	10.33	19.13
26/01/2020 17:48:55	26012020	260120	174855	99.900	12.200237	-56.182743	99.690	0.110	-1.570	0.480	99.900	-2.900	0.900																			1580060935.0	10.85	20.09
26/01/2020 17:48:56	26012020	260120	174856	99.590	12.200227	-56.182690	99.380	0.230	-1.400	0.360	99.590	-3.000	0.800																			1580060936.0	11.57	21.43
26/01/2020 17:48:57	26012020	260120	174857	99.280	12.200217	-56.182635	99.160	0.010	-0.450	0.410	99.280	-2.200	0.700																			1580060937.0	11.77	21.80
26/01/2020 17:48:58	26012020	260120	174858	99.080	12.200207	-56.182583	99.160	-0.420	0.620	0.500	99.080	-1.900	0.800																			1580060938.0	11.32	20.96
26/01/2020 17:48:59	26012020	260120	174859	99.100	12.200195	-56.182533	99.340	-0.670	1.060	0.390	99.100	-0.800	0.800	1014.30	26.20	26.30	20.00	20.10	822.00	68.00	68.00	376.00	29.00	356.00	10.00	91.00	4.30	58539	3800.00	27.70	27.70	1580060939.0	10.64	19.71
26/01/2020 17:49:00	26012020	260120	174900	99.290	12.200183	-56.182485	99.620	-0.570	0.790	0.150	99.290	-0.400	0.700																			1580060940.0	10.55	19.54
26/01/2020 17:49:01	26012020	260120	174901	99.550	12.200172	-56.182435	99.920	-0.300	0.300	-0.050	99.550	-0.600	0.500																			1580060941.0	11.10	20.56
26/01/2020 17:49:02	26012020	260120	174902	99.860	12.200162	-56.182380	100.170	-0.020	-0.050	-0.120	99.860	-1.100	0.300																			1580060942.0	11.61	21.50
26/01/2020 17:49:03	26012020	260120	174903	100.110	12.200150	-56.182327	100.310	0.210	-0.280	-0.090	100.110	-1.500	0.200																			1580060943.0	11.51	21.32
26/01/2020 17:49:04	26012020	260120	174904	100.250	12.200140	-56.182277	100.380	0.400	-0.430	-0.080	100.250	-1.700	0.300																			1580060944.0	11.14	20.63
26/01/2020 17:49:05	26012020	260120	174905	100.330	12.200128	-56.182225	100.400	0.500	-0.570	-0.000	100.330	-1.900	0.300																			1580060945.0	10.91	20.21
26/01/2020 17:49:06	26012020	260120	174906	100.330	12.200120	-56.182175	100.310	0.480	-0.720	0.200	100.330	-2.000	0.400																			1580060946.0	10.80	20.00
26/01/2020 17:49:07	26012020	260120	174907	100.230	12.200112	-56.182125	100.120	0.320	-0.780	0.500	100.230	-2.200	0.700																			1580060947.0	10.84	20.08
26/01/2020 17:49:08	26012020	260120	174908	100.050	12.200102	-56.182073	99.810	0.090	-0.700	0.850	100.050	-2.200	0.900																			1580060948.0	10.97	20.32
26/01/2020 17:49:09	26012020	260120	174909	99.710	12.200090	-56.182023	99.380	-0.070	-0.590	1.030	99.710	-2.100	1.400																			1580060949.0	10.99	20.35
26/01/2020 17:49:10	26012020	260120	174910	99.280	12.200077	-56.181973	99.040	-0.160	-0.420	0.910	99.280	-2.000	1.400																			1580060950.0	11.05	20.46
26/01/2020 17:49:11	26012020	260120	174911	98.970	12.200065	-56.181922	99.010	-0.240	-0.170	0.620	98.970	-1.800	1.300																			1580060951.0	11.21	20.76
26/01/2020 17:49:12	26012020	260120	174912	98.970	12.200055	-56.181868	99.230	-0.360	0.140	0.320	98.970	-1.600	1.000																			1580060952.0	11.24	20.82
26/01/2020 17:49:13	26012020	260120	174913	99.190	12.200045	-56.181817	99.380	-0.510	0.390	0.120	99.190	-1.300	0.700																			1580060953.0	11.15	20.65
26/01/2020 17:49:14	26012020	260120	174914	99.340	12.200035	-56.181767	99.400	-0.470	0.300	0.170	99.340	-1.000	0.500																			1580060954.0	11.02	20.41
26/01/2020 17:49:15	26012020	260120	174915	99.340	12.200025	-56.181715	99.390	-0.060	-0.200	0.380	99.340	-1.100	0.500																			1580060955.0	10.92	20.22
26/01/2020 17:49:16	26012020	260120	174916	99.320	12.200013	-56.181663	99.410	0.420	-0.580	0.330	99.320	-1.600	0.700																			1580060956.0	11.23	20.80
26/01/2020 17:49:17	26012020	260120	174917	99.350	12.200002	-56.181610	99.520	0.510	-0.390	0.010	99.350	-2.000	0.700																			1580060957.0	11.63	21.54
26/01/2020 17:49:18	26012020	260120	174918	99.490	12.199992	-56.181557	99.690	0.210	0.060	-0.110	99.490	-1.800	0.400																			1580060958.0	11.41	21.13
26/01/2020 17:49:19	26012020	260120	174919	99.660	12.199985	-56.181507	99.800	-0.100	0.110	0.060	99.660	-1.400	0.300																			1580060959.0	10.68	19.78
26/01/2020 17:49:20	26012020	260120	174920	99.740	12.199977	-56.181458	99.790	-0.140	-0.350	0.300	99.740	-1.300	0.400																			1580060960.0	10.37	19.21
26/01/2020 17:49:21	26012020	260120	174921	99.700	12.199967	-56.181408	99.730	0.070	-0.780	0.450	99.700	-2.100	0.800																			1580060961.0	10.83	20.06
26/01/2020 17:49:22	26012020	260120	174922	99.660	12.199953	-56.181357	99.680	0.270	-0.750	0.440	99.650	-2.200	0.800																			1580060962.0	11.42	21.15
26/01/2020 17:49:23	26012020	260120	174923	99.610	12.199943	-56.181303	99.550	0.250	-0.480	0.290	99.610	-2.200	0.800																			1580060963.0	11.37	21.06
26/01/2020 17:49:24	26012020	260120	174924	99.520	12.199933	-56.181253	99.370	0.020	-0.280	0.180	99.490	-1.900	0.600																			1580060964.0	10.99	20.35
26/01/2020 17:49:25	26012020	260120	174925	99.300	12.199923	-56.181203	99.270	-0.250	-0.120	0.170	99.300	-1.700	0.500																			1580060965.0	10.84	20.08
26/01/2020 17:49:26	26012020	260120	174926	99.210	12.199913	-56.181152	99.310	-0.410	0.090	0.130	99.210	-1.500	0.500																			1580060966.0	11.01	20.39
26/01/2020 17:49:27	26012020	260120	174927	99.260	12.199903	-56.181100	99.420	-0.320	0.040	0.000	99.260	-1.300	0.500																			1580060967.0	11.03	20.43
26/01/2020 17:49:28	26012020	260120	174928	99.340	12.199893	-56.181050	99.460	0.010	-0.400	-0.030	99.340	-1.400	0.400																			1580060968.0	10.93	20.24
26/01/2020 17:49:29	26012020	260120	174929	99.390	12.199883	-56.180998	99.550	0.280	-0.620	0.110	99.390	-1.800	0.300																			1580060969.0	11.24	20.82
26/01/2020 17:49:30	26012020	260120	174930	99.500	12.199873	-56.180943	99.640	0.210	-0.270	0.330	99.500	-2.000	0.500																			1580060970.0	11.67	21.61
26/01/2020 17:49:31	26012020	260120	174931	99.580	12.199862	-56.180892	99.580	-0.130	0.200	0.610	99.580	-1.400	0.900																			1580060971.0	11.39	21.09
26/01/2020 17:49:32	26012020	260120	174932	99.500	12.199850	-56.180842	99.500	-0.370	0.230	0.770	99.500	-1.200	1.000																			1580060972.0	10.70	19.82
26/01/2020 17:49:33	26012020	260120	174933	99.420	12.199838	-56.180793	99.530	-0.280	-0.180	0.620	99.420	-1.400	1.100																			1580060973.0	10.54	19.52
26/01/2020 17:49:34	26012020	260120	174934	99.440	12.199828	-56.180742	99.610	0.060	-0.660	0.310	99.440	-1.600	1.000																			1580060974.0	11.01	20.39
26/01/2020 17:49:35	26012020	260120	174935	99.540	12.199818	-56.180690	99.690	0.340	-0.740	0.110	99.540	-2.100	0.700																			1580060975.0	11.42	21.15
26/01/2020 17:49:36	26012020	260120	174936	99.610	12.199808	-56.180637	99.640	0.290	-0.320	0.060	99.610	-2.200	0.500																			1580060976.0	11.51	21.32
26/01/2020 17:49:37	26012020	260120	174937	99.570	12.199798	-56.180585	99.520	-0.000	0.170	0.130	99.570	-1.700	0.400																			1580060977.0	11.13	20.61
26/01/2020 17:49:38	26012020	260120	174938	99.460	12.199788	-56.180535	99.500	-0.180	0.210	0.160	99.460	-1.200	0.500																			1580060978.0	10.57	19.58
26/01/2020 17:49:39	26012020	260120	174939	99.470	12.199780	-56.180487	99.640	-0.010	-0.270	0.090	99.470	-1.200	0.500																			1580060979.0	10.49	19.43
26/01/2020 17:49:40	26012020	260120	174940	99.620	12.199770	-56.180435	99.740	0.350	-0.800	0.080	99.620	-1.700	0.500																			1580060980.0	10.99	20.35
26/01/2020 17:49:41	26012020	260120	174941	99.710	12.199760	-56.180382	99.780	0.500	-0.840	0.210	99.710	-2.200	0.400																			1580060981.0	11.58	21.45
26/01/2020 17:49:42	26012020	260120	174942	99.750	12.199750	-56.180327	99.860	0.260	-0.340	0.460	99.750	-2.200	0.600																			1580060982.0	11.67	21.61
26/01/2020 17:49:43	26012020	260120	174943	99.820	12.199740	-56.180275	99.890	-0.210	0.240	0.620	99.820	-1.700	0.800																			1580060983.0	11.16	20.67
26/01/2020 17:49:44	26012020	260120	174944	99.870	12.199728	-56.180227	99.880	-0.600	0.360	0.520	99.870	-1.200	1.000																			1580060984.0	10.61	19.65
26/01/2020 17:49:45	26012020	260120	174945	99.830	12.199718	-56.180178	99.840	-0.630	-0.140	0.280	99.830	-1.300	0.700																			1580060985.0	10.48	19.41
26/01/2020 17:49:46	26012020	260120	174946	99.780	12.199708	-56.180128	99.810	-0.300	-0.750	0.100	99.780	-1.600	0.600																			1580060986.0	10.95	20.28
26/01/2020 17:49:47	26012020	260120	174947	99.750	12.199697	-56.180073	99.780	0.030	-0.790	0.030	99.750	-2.200	0.500																			1580060987.0	11.61	21.50
26/01/2020 17:49:48	26012020	260120	174948	99.740	12.199687	-56.180020	99.730	0.130	-0.310	0.010	99.730	-2.200	0.400																			1580060988.0	11.73	21.72
26/01/2020 17:49:49	26012020	260120	174949	99.660	12.199675	-56.179968	99.620	0.110	0.080	-0.040	99.660	-1.700	0.400																			1580060989.0	11.11	20.58
26/01/2020 17:49:50	26012020	260120	174950	99.550	12.199665	-56.179920	99.580	0.190	0.070	-0.140	99.550	-1.300	0.300																			1580060990.0	10.59	19.61
26/01/2020 17:49:51	26012020	260120	174951	99.530	12.199655	-56.179870	99.680	0.360	-0.170	-0.190	99.530	-1.400	0.200																			1580060991.0	10.74	19.89
26/01/2020 17:49:52	26012020	260120	174952	99.640	12.199647	-56.179818	99.820	0.400	-0.230	-0.100	99.640	-1.600	0.200																			1580060992.0	11.21	20.76
26/01/2020 17:49:53	26012020	260120	174953	99.770	12.199637	-56.179765	99.910	0.220	-0.130	0.170	99.770	-1.600	0.300																			1580060993.0	11.40	21.11
26/01/2020 17:49:54	26012020	260120	174954	99.860	12.199628	-56.179713	99.950	-0.040	-0.060	0.480	99.860	-1.500	0.500																			1580060994.0	11.10	20.56
26/01/2020 17:49:55	26012020	260120	174955	99.890	12.199617	-56.179663	99.950	-0.210	-0.160	0.700	99.890	-1.500	0.800																			1580060995.0	10.84	20.08
26/01/2020 17:49:56	26012020	260120	174956	99.890	12.199605	-56.179613	99.970	-0.220	-0.450	0.680	99.890	-1.600	1.100																			1580060996.0	10.87	20.13
26/01/2020 17:49:57	26012020	260120	174957	99.910	12.199593	-56.179562	99.970	-0.120	-0.740	0.460	99.910	-2.100	0.900																			1580060997.0	11.05	20.46
26/01/2020 17:49:58	26012020	260120	174958	99.900	12.199582	-56.179510	99.920	-0.020	-0.790	0.230	99.900	-2.200	0.800																			1580060998.0	11.25	20.84
26/01/2020 17:49:59	26012020	260120	174959	99.860	12.199572	-56.179458	99.900	-0.000	-0.510	0.090	99.860	-2.000	0.500	1014.30	26.20	26.30	19.90	19.90	819.00	68.00	68.00	376.00	29.00	358.00	10.00	94.00	4.30	58338	3529.00	27.70	27.70	1580060999.0	11.34	21.00
26/01/2020 17:50:00	26012020	260120	175000	99.850	12.199563	-56.179405	99.940	-0.050	-0.120	0.040	99.860	-1.900	0.400																			1580061000.0	11.14	20.63
26/01/2020 17:50:01	26012020	260120	175001	99.890	12.199552	-56.179355	99.920	-0.080	0.070	0.020	99.890	-1.500	0.400																			1580061001.0	10.89	20.17
26/01/2020 17:50:02	26012020	260120	175002	99.860	12.199542	-56.179305	99.800	0.000	0.010	0.070	99.860	-1.300	0.400																			1580061002.0	10.84	20.08
26/01/2020 17:50:03	26012020	260120	175003	99.760	12.199530	-56.179255	99.700	0.200	-0.120	0.160	99.760	-1.400	0.400																			1580061003.0	11.06	20.48
26/01/2020 17:50:04	26012020	260120	175004	99.660	12.199520	-56.179202	99.720	0.390	-0.230	0.060	99.660	-1.500	0.500																			1580061004.0	11.29	20.91
26/01/2020 17:50:05	26012020	260120	175005	99.690	12.199510	-56.179150	99.820	0.390	-0.270	-0.020	99.690	-1.600	0.400																			1580061005.0	11.33	20.98
26/01/2020 17:50:06	26012020	260120	175006	99.790	12.199502	-56.179097	99.910	0.100	-0.150	0.200	99.790	-1.700	0.300																			1580061006.0	11.26	20.85
26/01/2020 17:50:07	26012020	260120	175007	99.880	12.199493	-56.179045	100.030	-0.380	0.170	0.530	99.880	-1.600	0.600																			1580061007.0	11.17	20.69
26/01/2020 17:50:08	26012020	260120	175008	100.000	12.199482	-56.178995	100.190	-0.730	0.250	0.680	100.000	-1.200	0.900																			1580061008.0	10.91	20.21
26/01/2020 17:50:09	26012020	260120	175009	100.140	12.199468	-56.178947	100.250	-0.620	-0.310	0.560	100.140	-1.200	1.000																			1580061009.0	10.61	19.65
26/01/2020 17:50:10	26012020	260120	175010	100.200	12.199455	-56.178897	100.090	0.030	-1.090	0.380	100.190	-1.700	0.900																			1580061010.0	10.80	20.00
26/01/2020 17:50:11	26012020	260120	175011	100.030	12.199443	-56.178843	99.890	0.660	-1.230	0.200	100.030	-2.500	0.700																			1580061011.0	11.50	21.30
26/01/2020 17:50:12	26012020	260120	175012	99.880	12.199432	-56.178790	99.750	0.720	-0.550	-0.050	99.840	-2.600	0.600																			1580061012.0	11.88	22.00
26/01/2020 17:50:13	26012020	260120	175013	99.720	12.199422	-56.178737	99.730	0.290	0.180	-0.270	99.720	-2.000	0.300																			1580061013.0	11.27	20.87
26/01/2020 17:50:14	26012020	260120	175014	99.710	12.199415	-56.178688	99.810	-0.100	0.300	-0.290	99.720	-1.200	0.100																			1580061014.0	10.42	19.30
26/01/2020 17:50:15	26012020	260120	175015	99.790	12.199407	-56.178640	99.790	-0.120	-0.180	-0.010	99.790	-1.100	0.100																			1580061015.0	10.41	19.28
26/01/2020 17:50:16	26012020	260120	175016	99.730	12.199397	-56.178588	99.670	0.020	-0.570	0.360	99.730	-1.600	0.400																			1580061016.0	11.11	20.58
26/01/2020 17:50:17	26012020	260120	175017	99.600	12.199385	-56.178533	99.670	-0.060	-0.240	0.680	99.600	-2.000	0.700																			1580061017.0	11.79	21.84
26/01/2020 17:50:18	26012020	260120	175018	99.610	12.199372	-56.178480	99.790	-0.380	0.310	0.760	99.610	-1.600	1.000																			1580061018.0	11.65	21.58
26/01/2020 17:50:19	26012020	260120	175019	99.730	12.199360	-56.178432	99.910	-0.550	0.270	0.570	99.730	-1.100	1.100																			1580061019.0	10.75	19.91
26/01/2020 17:50:20	26012020	260120	175020	99.860	12.199348	-56.178383	100.040	-0.350	-0.250	0.370	99.860	-1.100	0.900																			1580061020.0	10.45	19.35
26/01/2020 17:50:21	26012020	260120	175021	99.970	12.199338	-56.178332	100.140	-0.040	-0.470	0.310	99.970	-1.900	0.700																			1580061021.0	11.10	20.56
26/01/2020 17:50:22	26012020	260120	175022	100.060	12.199327	-56.178278	100.210	0.130	-0.240	0.170	100.060	-1.900	0.700																			1580061022.0	11.59	21.46
26/01/2020 17:50:23	26012020	260120	175023	100.150	12.199315	-56.178227	100.240	0.270	-0.170	-0.100	100.150	-1.500	0.400																			1580061023.0	11.13	20.61
26/01/2020 17:50:24	26012020	260120	175024	100.180	12.199305	-56.178178	100.210	0.560	-0.570	-0.300	100.180	-1.600	0.300																			1580061024.0	10.58	19.59
26/01/2020 17:50:25	26012020	260120	175025	100.150	12.199295	-56.178128	100.120	0.880	-0.990	-0.300	100.150	-2.000	0.100																			1580061025.0	10.79	19.98
26/01/2020 17:50:26	26012020	260120	175026	100.100	12.199287	-56.178075	100.030	0.850	-0.810	-0.040	100.080	-2.400	0.100																			1580061026.0	11.43	21.17
26/01/2020 17:50:27	26012020	260120	175027	99.980	12.199278	-56.178020	99.980	0.290	-0.110	0.300	99.980	-2.200	0.300																			1580061027.0	11.54	21.37
26/01/2020 17:50:28	26012020	260120	175028	99.940	12.199268	-56.177970	100.000	-0.510	0.480	0.550	99.940	-1.500	0.700																			1580061028.0	10.95	20.28
26/01/2020 17:50:29	26012020	260120	175029	99.950	12.199258	-56.177922	100.040	-1.080	0.450	0.700	99.950	-0.900	0.900																			1580061029.0	10.40	19.26
26/01/2020 17:50:30	26012020	260120	175030	100.000	12.199247	-56.177873	100.130	-1.130	-0.100	0.740	100.000	-1.000	1.100																			1580061030.0	10.50	19.45
26/01/2020 17:50:31	26012020	260120	175031	100.070	12.199233	-56.177822	100.130	-0.800	-0.590	0.620	100.070	-1.500	1.100																			1580061031.0	11.16	20.67
26/01/2020 17:50:32	26012020	260120	175032	100.050	12.199218	-56.177770	99.980	-0.330	-0.660	0.380	100.050	-2.000	1.000																			1580061032.0	11.67	21.61
26/01/2020 17:50:33	26012020	260120	175033	99.910	12.199205	-56.177717	99.850	0.150	-0.500	0.030	99.910	-2.100	0.700																			1580061033.0	11.54	21.37
26/01/2020 17:50:34	26012020	260120	175034	99.780	12.199193	-56.177665	99.840	0.600	-0.350	-0.340	99.780	-1.900	0.400																			1580061034.0	11.11	20.58
26/01/2020 17:50:35	26012020	260120	175035	99.780	12.199183	-56.177615	99.820	0.960	-0.310	-0.610	99.780	-1.700	-0.200																			1580061035.0	10.92	20.22
26/01/2020 17:50:36	26012020	260120	175036	99.760	12.199175	-56.177563	99.740	1.030	-0.170	-0.610	99.760	-1.700	-0.200																			1580061036.0	11.03	20.43
26/01/2020 17:50:37	26012020	260120	175037	99.690	12.199168	-56.177510	99.710	0.700	0.150	-0.230	99.690	-1.400	-0.000																			1580061037.0	11.22	20.78
26/01/2020 17:50:38	26012020	260120	175038	99.690	12.199162	-56.177458	99.880	0.130	0.330	0.210	99.690	-1.200	0.100																			1580061038.0	11.03	20.43
26/01/2020 17:50:39	26012020	260120	175039	99.860	12.199152	-56.177410	100.070	-0.360	0.130	0.620	99.860	-1.100	0.600																			1580061039.0	10.69	19.80
26/01/2020 17:50:40	26012020	260120	175040	100.020	12.199140	-56.177360	100.100	-0.600	-0.270	1.000	100.020	-1.300	1.000																			1580061040.0	10.76	19.93
26/01/2020 17:50:41	26012020	260120	175041	100.030	12.199127	-56.177310	100.070	-0.660	-0.500	1.140	100.030	-1.700	1.400																			1580061041.0	11.10	20.56
26/01/2020 17:50:42	26012020	260120	175042	99.990	12.199112	-56.177258	100.020	-0.630	-0.510	0.960	99.990	-1.900	1.500																			1580061042.0	11.29	20.91
26/01/2020 17:50:43	26012020	260120	175043	99.940	12.199098	-56.177208	99.910	-0.420	-0.600	0.610	99.940	-1.900	1.300																			1580061043.0	11.05	20.46
26/01/2020 17:50:44	26012020	260120	175044	99.830	12.199087	-56.177158	99.740	-0.020	-0.850	0.240	99.830	-2.000	1.000																			1580061044.0	10.81	20.02
26/01/2020 17:50:45	26012020	260120	175045	99.660	12.199077	-56.177107	99.530	0.380	-0.890	-0.060	99.660	-2.300	0.600																			1580061045.0	11.06	20.48
26/01/2020 17:50:46	26012020	260120	175046	99.470	12.199067	-56.177053	99.320	0.600	-0.580	-0.160	99.470	-2.300	0.300																			1580061046.0	11.39	21.09
26/01/2020 17:50:47	26012020	260120	175047	99.250	12.199057	-56.177002	99.120	0.620	-0.140	-0.110	99.250	-1.700	0.200																			1580061047.0	11.29	20.91
26/01/2020 17:50:48	26012020	260120	175048	99.050	12.199048	-56.176950	99.130	0.470	0.200	-0.030	99.050	-1.500	0.300																			1580061048.0	11.02	20.41
26/01/2020 17:50:49	26012020	260120	175049	99.080	12.199040	-56.176898	99.350	0.140	0.460	0.220	99.080	-1.000	0.500																			1580061049.0	10.96	20.30
26/01/2020 17:50:50	26012020	260120	175050	99.250	12.199030	-56.176848	99.670	-0.290	0.560	0.590	99.300	-1.000	0.600																			1580061050.0	11.05	20.46
26/01/2020 17:50:51	26012020	260120	175051	99.590	12.199020	-56.176797	99.870	-0.550	0.260	0.920	99.590	-0.900	0.900																			1580061051.0	10.96	20.30
26/01/2020 17:50:52	26012020	260120	175052	99.760	12.199008	-56.176747	99.840	-0.460	-0.370	1.040	99.760	-1.200	1.300																			1580061052.0	10.92	20.22
26/01/2020 17:50:53	26012020	260120	175053	99.750	12.198995	-56.176695	99.780	-0.210	-0.730	0.930	99.750	-1.800	1.400																			1580061053.0	11.26	20.85
26/01/2020 17:50:54	26012020	260120	175054	99.690	12.198982	-56.176642	99.760	-0.030	-0.590	0.640	99.690	-2.100	1.300																			1580061054.0	11.55	21.39
26/01/2020 17:50:55	26012020	260120	175055	99.690	12.198970	-56.176590	99.730	0.020	-0.280	0.210	99.690	-2.000	1.000																			1580061055.0	11.20	20.74
26/01/2020 17:50:56	26012020	260120	175056	99.670	12.198960	-56.176542	99.680	0.090	-0.220	-0.160	99.670	-1.700	0.600																			1580061056.0	10.67	19.76
26/01/2020 17:50:57	26012020	260120	175057	99.630	12.198953	-56.176492	99.690	0.190	-0.420	-0.280	99.630	-1.600	0.200																			1580061057.0	10.55	19.54
26/01/2020 17:50:58	26012020	260120	175058	99.640	12.198945	-56.176442	99.660	0.260	-0.610	-0.150	99.640	-1.800	0.100																			1580061058.0	10.93	20.24
26/01/2020 17:50:59	26012020	260120	175059	99.600	12.198935	-56.176388	99.530	0.340	-0.620	0.020	99.600	-2.000	0.300	1014.30	26.20	26.30	19.80	19.90	817.00	67.00	67.00	376.00	29.00	357.00	10.10	94.00	4.40	58132	3638.00	27.70	27.70	1580061059.0	11.23	20.80
26/01/2020 17:51:00	26012020	260120	175100	99.490	12.198923	-56.176337	99.410	0.380	-0.420	0.170	99.470	-2.000	0.400																			1580061060.0	11.24	20.82
26/01/2020 17:51:01	26012020	260120	175101	99.340	12.198913	-56.176285	99.350	0.260	-0.150	0.240	99.340	-1.800	0.500																			1580061061.0	11.16	20.67
26/01/2020 17:51:02	26012020	260120	175102	99.280	12.198903	-56.176233	99.260	-0.020	-0.010	0.250	99.280	-1.500	0.600																			1580061062.0	11.04	20.45
26/01/2020 17:51:03	26012020	260120	175103	99.200	12.198893	-56.176183	99.190	-0.340	0.020	0.280	99.200	-1.400	0.600																			1580061063.0	10.99	20.35
26/01/2020 17:51:04	26012020	260120	175104	99.130	12.198883	-56.176132	99.220	-0.560	-0.000	0.300	99.120	-1.400	0.600																			1580061064.0	11.10	20.56
26/01/2020 17:51:05	26012020	260120	175105	99.160	12.198873	-56.176080	99.330	-0.630	-0.050	0.340	99.160	-1.400	0.700																			1580061065.0	11.18	20.71
26/01/2020 17:51:06	26012020	260120	175106	99.260	12.198862	-56.176028	99.380	-0.490	-0.230	0.370	99.260	-1.400	0.700																			1580061066.0	11.16	20.67
26/01/2020 17:51:07	26012020	260120	175107	99.300	12.198850	-56.175977	99.350	-0.170	-0.470	0.270	99.300	-1.600	0.700																			1580061067.0	11.15	20.65
26/01/2020 17:51:08	26012020	260120	175108	99.260	12.198837	-56.175925	99.310	0.170	-0.500	-0.010	99.260	-1.900	0.600																			1580061068.0	11.29	20.91
26/01/2020 17:51:09	26012020	260120	175109	99.220	12.198825	-56.175873	99.310	0.370	-0.230	-0.230	99.220	-1.900	0.300																			1580061069.0	11.35	21.02
26/01/2020 17:51:10	26012020	260120	175110	99.250	12.198817	-56.175822	99.360	0.370	0.110	-0.330	99.250	-1.600	0.100																			1580061070.0	11.11	20.58
26/01/2020 17:51:11	26012020	260120	175111	99.320	12.198808	-56.175770	99.400	0.280	0.140	-0.330	99.320	-1.200	0.000																			1580061071.0	10.76	19.93
26/01/2020 17:51:12	26012020	260120	175112	99.340	12.198800	-56.175722	99.350	0.280	-0.260	-0.110	99.340	-1.300	0.000																			1580061072.0	10.64	19.71
26/01/2020 17:51:13	26012020	260120	175113	99.280	12.198792	-56.175670	99.310	0.340	-0.690	0.250	99.280	-2.000	0.500																			1580061073.0	10.92	20.22
26/01/2020 17:51:14	26012020	260120	175114	99.240	12.198782	-56.175617	99.340	0.220	-0.630	0.580	99.230	-2.100	0.600																			1580061074.0	11.41	21.13
26/01/2020 17:51:15	26012020	260120	175115	99.260	12.198770	-56.175563	99.390	-0.150	-0.230	0.810	99.260	-2.000	0.900																			1580061075.0	11.49	21.28
26/01/2020 17:51:16	26012020	260120	175116	99.300	12.198758	-56.175513	99.330	-0.490	-0.090	0.910	99.300	-1.600	1.200																			1580061076.0	10.95	20.28
26/01/2020 17:51:17	26012020	260120	175117	99.230	12.198748	-56.175465	99.090	-0.480	-0.420	0.840	99.230	-1.500	1.300																			1580061077.0	10.58	19.59
26/01/2020 17:51:18	26012020	260120	175118	98.980	12.198737	-56.175415	98.850	-0.230	-0.800	0.690	98.980	-1.800	1.200																			1580061078.0	10.95	20.28
26/01/2020 17:51:19	26012020	260120	175119	98.750	12.198725	-56.175362	98.830	-0.010	-0.720	0.480	98.750	-2.200	1.000																			1580061079.0	11.59	21.46
26/01/2020 17:51:20	26012020	260120	175120	98.750	12.198715	-56.175307	98.970	-0.060	-0.160	0.260	98.750	-2.100	0.800																			1580061080.0	11.69	21.65
26/01/2020 17:51:21	26012020	260120	175121	98.910	12.198705	-56.175255	99.130	-0.240	0.390	0.170	98.910	-1.600	0.600																			1580061081.0	11.24	20.82
26/01/2020 17:51:22	26012020	260120	175122	99.070	12.198695	-56.175205	99.270	-0.260	0.490	0.130	99.070	-1.000	0.500																			1580061082.0	10.71	19.83
26/01/2020 17:51:23	26012020	260120	175123	99.220	12.198685	-56.175155	99.450	0.030	0.200	0.030	99.220	-1.100	0.400																			1580061083.0	10.67	19.76
26/01/2020 17:51:24	26012020	260120	175124	99.400	12.198675	-56.175105	99.690	0.430	-0.180	-0.050	99.400	-1.200	0.400																			1580061084.0	11.08	20.52
26/01/2020 17:51:25	26012020	260120	175125	99.640	12.198665	-56.175052	99.900	0.570	-0.270	-0.080	99.640	-1.700	0.300																			1580061085.0	11.39	21.09
26/01/2020 17:51:26	26012020	260120	175126	99.820	12.198657	-56.174998	100.030	0.330	-0.240	0.020	99.850	-1.700	0.300																			1580061086.0	11.36	21.04
26/01/2020 17:51:27	26012020	260120	175127	99.940	12.198648	-56.174947	99.960	0.050	-0.440	0.340	99.940	-1.600	0.400																			1580061087.0	10.91	20.21
26/01/2020 17:51:28	26012020	260120	175128	99.880	12.198638	-56.174898	99.740	-0.040	-0.770	0.660	99.850	-1.800	0.700																			1580061088.0	10.71	19.83
26/01/2020 17:51:29	26012020	260120	175129	99.650	12.198628	-56.174847	99.530	-0.080	-0.860	0.720	99.650	-2.200	1.000																			1580061089.0	11.06	20.48
26/01/2020 17:51:30	26012020	260120	175130	99.440	12.198617	-56.174795	99.390	-0.240	-0.560	0.650	99.440	-2.300	1.100																			1580061090.0	11.33	20.98
26/01/2020 17:51:31	26012020	260120	175131	99.310	12.198605	-56.174743	99.330	-0.450	-0.170	0.580	99.310	-2.000	1.000																			1580061091.0	11.18	20.71
26/01/2020 17:51:32	26012020	260120	175132	99.240	12.198595	-56.174693	99.300	-0.480	-0.230	0.420	99.240	-1.600	0.900																			1580061092.0	10.80	20.00
26/01/2020 17:51:33	26012020	260120	175133	99.220	12.198585	-56.174643	99.280	-0.260	-0.540	0.290	99.220	-1.600	0.800																			1580061093.0	10.84	20.08
26/01/2020 17:51:34	26012020	260120	175134	99.190	12.198573	-56.174590	99.220	0.030	-0.440	0.210	99.190	-1.900	0.600																			1580061094.0	11.45	21.21
26/01/2020 17:51:35	26012020	260120	175135	99.140	12.198562	-56.174535	99.240	0.220	0.120	-0.020	99.140	-1.800	0.600																			1580061095.0	11.76	21.78
26/01/2020 17:51:36	26012020	260120	175136	99.170	12.198550	-56.174483	99.410	0.290	0.580	-0.300	99.170	-1.300	0.300																			1580061096.0	11.25	20.84
26/01/2020 17:51:37	26012020	260120	175137	99.370	12.198542	-56.174433	99.690	0.250	0.530	-0.420	99.370	-0.800	-0.000																			1580061097.0	10.70	19.82
26/01/2020 17:51:38	26012020	260120	175138	99.590	12.198535	-56.174383	99.990	0.110	0.160	-0.370	99.650	-0.900	-0.100																			1580061098.0	10.74	19.89
26/01/2020 17:51:39	26012020	260120	175139	99.940	12.198527	-56.174332	100.200	-0.070	-0.190	-0.010	99.940	-1.500	0.200																			1580061099.0	11.12	20.59
26/01/2020 17:51:40	26012020	260120	175140	100.140	12.198518	-56.174278	100.270	-0.140	-0.480	0.460	100.140	-1.600	0.400																			1580061100.0	11.22	20.78
26/01/2020 17:51:41	26012020	260120	175141	100.180	12.198507	-56.174228	100.100	-0.050	-0.850	0.700	100.180	-1.900	0.800																			1580061101.0	11.04	20.45
26/01/2020 17:51:42	26012020	260120	175142	99.990	12.198493	-56.174178	99.830	0.140	-1.190	0.730	99.990	-2.200	1.100																			1580061102.0	11.01	20.39
26/01/2020 17:51:43	26012020	260120	175143	99.720	12.198482	-56.174127	99.620	0.200	-1.150	0.630	99.720	-2.600	1.100																			1580061103.0	11.23	20.80
26/01/2020 17:51:44	26012020	260120	175144	99.520	12.198472	-56.174073	99.520	0.060	-0.580	0.330	99.520	-2.500	1.000																			1580061104.0	11.42	21.15
26/01/2020 17:51:45	26012020	260120	175145	99.440	12.198462	-56.174022	99.570	-0.200	0.160	0.050	99.440	-2.000	0.700																			1580061105.0	11.18	20.71
26/01/2020 17:51:46	26012020	260120	175146	99.510	12.198452	-56.173972	99.700	-0.340	0.450	-0.050	99.510	-1.200	0.400																			1580061106.0	10.72	19.85
26/01/2020 17:51:47	26012020	260120	175147	99.630	12.198443	-56.173923	99.770	-0.260	0.160	-0.040	99.630	-1.000	0.300																			1580061107.0	10.60	19.63
26/01/2020 17:51:48	26012020	260120	175148	99.710	12.198432	-56.173872	99.870	-0.110	-0.170	0.010	99.710	-1.200	0.300																			1580061108.0	11.09	20.54
26/01/2020 17:51:49	26012020	260120	175149	99.810	12.198422	-56.173817	99.950	-0.060	-0.160	0.190	99.810	-1.600	0.400																			1580061109.0	11.63	21.54
26/01/2020 17:51:50	26012020	260120	175150	99.880	12.198410	-56.173763	100.060	-0.060	-0.030	0.180	99.890	-1.600	0.500																			1580061110.0	11.53	21.35
26/01/2020 17:51:51	26012020	260120	175151	100.010	12.198398	-56.173713	100.170	-0.000	-0.050	0.010	100.010	-1.400	0.400																			1580061111.0	11.02	20.41
26/01/2020 17:51:52	26012020	260120	175152	100.120	12.198388	-56.173663	100.200	0.110	-0.210	-0.040	100.120	-1.500	0.400																			1580061112.0	10.87	20.13
26/01/2020 17:51:53	26012020	260120	175153	100.150	12.198378	-56.173612	100.240	0.260	-0.410	-0.110	100.150	-1.600	0.300																			1580061113.0	11.00	20.37
26/01/2020 17:51:54	26012020	260120	175154	100.190	12.198370	-56.173560	100.190	0.370	-0.510	-0.110	100.190	-1.800	0.200																			1580061114.0	11.12	20.59
26/01/2020 17:51:55	26012020	260120	175155	100.140	12.198360	-56.173508	100.040	0.330	-0.480	0.010	100.140	-1.900	0.300																			1580061115.0	11.19	20.72
26/01/2020 17:51:56	26012020	260120	175156	99.980	12.198350	-56.173457	99.940	0.180	-0.470	0.110	99.980	-1.900	0.400																			1580061116.0	11.11	20.58
26/01/2020 17:51:57	26012020	260120	175157	99.880	12.198340	-56.173405	99.990	0.030	-0.510	0.140	99.880	-1.900	0.500																			1580061117.0	11.01	20.39
26/01/2020 17:51:58	26012020	260120	175158	99.930	12.198330	-56.173353	100.020	-0.140	-0.350	0.370	99.930	-1.900	0.500																			1580061118.0	11.14	20.63
26/01/2020 17:51:59	26012020	260120	175159	99.940	12.198318	-56.173302	99.960	-0.340	-0.060	0.660	99.940	-1.700	0.700	1014.30	26.20	26.30	20.00	20.10	803.00	68.00	68.00	377.00	29.00	359.00	9.90	97.00	4.10	57502	3371.00	27.70	27.70	1580061119.0	11.26	20.85
26/01/2020 17:52:00	26012020	260120	175200	99.870	12.198307	-56.173252	99.830	-0.430	-0.020	0.730	99.870	-1.500	1.000																			1580061120.0	11.05	20.46
26/01/2020 17:52:01	26012020	260120	175201	99.730	12.198293	-56.173202	99.700	-0.330	-0.260	0.600	99.730	-1.400	1.100																			1580061121.0	10.93	20.24
26/01/2020 17:52:02	26012020	260120	175202	99.610	12.198280	-56.173150	99.730	-0.140	-0.430	0.230	99.610	-1.700	0.900																			1580061122.0	11.21	20.76
26/01/2020 17:52:03	26012020	260120	175203	99.650	12.198270	-56.173097	99.800	0.010	-0.290	-0.080	99.650	-1.800	0.600																			1580061123.0	11.50	21.30
26/01/2020 17:52:04	26012020	260120	175204	99.720	12.198260	-56.173043	99.790	0.090	0.010	-0.090	99.730	-1.700	0.300																			1580061124.0	11.36	21.04
26/01/2020 17:52:05	26012020	260120	175205	99.720	12.198250	-56.172993	99.740	0.130	0.120	-0.030	99.720	-1.400	0.300																			1580061125.0	11.02	20.41
26/01/2020 17:52:06	26012020	260120	175206	99.670	12.198242	-56.172942	99.780	0.180	-0.080	0.010	99.670	-1.300	0.300																			1580061126.0	10.85	20.09
26/01/2020 17:52:07	26012020	260120	175207	99.720	12.198232	-56.172892	99.950	0.300	-0.360	-0.080	99.720	-1.500	0.400																			1580061127.0	11.04	20.45
26/01/2020 17:52:08	26012020	260120	175208	99.920	12.198222	-56.172838	100.140	0.380	-0.440	-0.120	99.920	-1.800	0.300																			1580061128.0	11.33	20.98
26/01/2020 17:52:09	26012020	260120	175209	100.090	12.198213	-56.172785	100.230	0.280	-0.310	0.120	100.090	-1.900	0.200																			1580061129.0	11.39	21.09
26/01/2020 17:52:10	26012020	260120	175210	100.150	12.198203	-56.172733	100.260	0.010	-0.130	0.410	100.150	-1.700	0.500																			1580061130.0	11.17	20.69
26/01/2020 17:52:11	26012020	260120	175211	100.170	12.198192	-56.172683	100.230	-0.210	-0.200	0.460	100.170	-1.500	0.800																			1580061131.0	10.90	20.19
26/01/2020 17:52:12	26012020	260120	175212	100.150	12.198180	-56.172633	100.190	-0.180	-0.560	0.340	100.150	-1.600	0.800																			1580061132.0	10.84	20.08
26/01/2020 17:52:13	26012020	260120	175213	100.100	12.198168	-56.172582	100.150	0.020	-0.820	0.200	100.100	-2.000	0.700																			1580061133.0	11.11	20.58
26/01/2020 17:52:14	26012020	260120	175214	100.060	12.198158	-56.172528	100.090	0.090	-0.560	0.130	100.060	-2.200	0.600																			1580061134.0	11.52	21.34
26/01/2020 17:52:15	26012020	260120	175215	100.000	12.198147	-56.172475	99.970	-0.100	-0.080	0.190	100.000	-1.600	0.500																			1580061135.0	11.49	21.28
26/01/2020 17:52:16	26012020	260120	175216	99.880	12.198137	-56.172425	99.920	-0.340	0.110	0.270	99.880	-1.500	0.500																			1580061136.0	10.95	20.28
26/01/2020 17:52:17	26012020	260120	175217	99.840	12.198127	-56.172375	100.040	-0.460	0.030	0.290	99.840	-1.300	0.600																			1580061137.0	11.13	20.61
26/01/2020 17:52:18	26012020	260120	175218	99.970	12.198115	-56.172323	100.210	-0.400	-0.050	0.250	99.970	-1.400	0.600																			1580061138.0	11.13	20.61
26/01/2020 17:52:19	26012020	260120	175219	100.120	12.198102	-56.172272	100.280	-0.100	-0.230	0.260	100.120	-1.500	0.600																			1580061139.0	11.34	21.00
26/01/2020 17:52:20	26012020	260120	175220	100.170	12.198090	-56.172220	100.250	0.350	-0.470	0.260	100.170	-1.600	0.600																			1580061140.0	11.26	20.85
26/01/2020 17:52:21	26012020	260120	175221	100.170	12.198078	-56.172168	100.340	0.630	-0.410	0.050	100.170	-1.900	0.600																			1580061141.0	11.39	21.09
26/01/2020 17:52:22	26012020	260120	175222	100.290	12.198068	-56.172115	100.530	0.540	-0.050	-0.170	100.290	-1.800	0.400																			1580061142.0	11.49	21.28
26/01/2020 17:52:23	26012020	260120	175223	100.520	12.198060	-56.172063	100.720	0.240	0.210	-0.230	100.520	-1.500	0.200																			1580061143.0	11.10	20.56
26/01/2020 17:52:24	26012020	260120	175224	100.710	12.198052	-56.172013	100.860	0.040	0.030	-0.150	100.710	-1.200	0.100																			1580061144.0	10.68	19.78
26/01/2020 17:52:25	26012020	260120	175225	100.840	12.198043	-56.171963	100.880	0.040	-0.470	0.190	100.840	-1.400	0.200																			1580061145.0	10.72	19.85
26/01/2020 17:52:26	26012020	260120	175226	100.810	12.198033	-56.171912	100.690	0.030	-0.830	0.580	100.810	-1.900	0.500																			1580061146.0	11.19	20.72
26/01/2020 17:52:27	26012020	260120	175227	100.600	12.198020	-56.171858	100.470	-0.100	-0.840	0.830	100.600	-2.200	0.900																			1580061147.0	11.56	21.41
26/01/2020 17:52:28	26012020	260120	175228	100.380	12.198007	-56.171805	100.300	-0.280	-0.580	0.900	100.380	-2.300	1.200																			1580061148.0	11.42	21.15
26/01/2020 17:52:29	26012020	260120	175229	100.210	12.197995	-56.171755	100.210	-0.470	-0.190	0.650	100.210	-1.700	1.100																			1580061149.0	11.18	20.71
26/01/2020 17:52:30	26012020	260120	175230	100.120	12.197982	-56.171703	100.120	-0.520	0.090	0.290	100.120	-1.600	1.000																			1580061150.0	11.02	20.41
26/01/2020 17:52:31	26012020	260120	175231	100.050	12.197970	-56.171653	100.120	-0.320	0.100	-0.060	100.050	-1.300	0.600																			1580061151.0	10.92	20.22
26/01/2020 17:52:32	26012020	260120	175232	100.060	12.197960	-56.171602	100.280	0.040	-0.100	-0.390	100.060	-1.300	0.300																			1580061152.0	11.06	20.48
26/01/2020 17:52:33	26012020	260120	175233	100.230	12.197948	-56.171550	100.460	0.310	-0.170	-0.550	100.230	-1.500	-0.000																			1580061153.0	11.34	21.00
26/01/2020 17:52:34	26012020	260120	175234	100.420	12.197938	-56.171497	100.540	0.350	0.020	-0.370	100.420	-1.600	-0.200																			1580061154.0	11.52	21.34
26/01/2020 17:52:35	26012020	260120	175235	100.490	12.197928	-56.171445	100.530	0.320	0.030	-0.100	100.490	-1.400	-0.000																			1580061155.0	11.24	20.82
26/01/2020 17:52:36	26012020	260120	175236	100.480	12.197918	-56.171395	100.540	0.350	-0.350	0.070	100.480	-1.400	0.300																			1580061156.0	10.82	20.04
26/01/2020 17:52:37	26012020	260120	175237	100.500	12.197908	-56.171343	100.620	0.370	-0.720	0.180	100.500	-1.800	0.400																			1580061157.0	10.99	20.35
26/01/2020 17:52:38	26012020	260120	175238	100.560	12.197898	-56.171290	100.540	0.140	-0.600	0.340	100.560	-2.100	0.500																			1580061158.0	11.46	21.22
26/01/2020 17:52:39	26012020	260120	175239	100.470	12.197888	-56.171237	100.350	-0.260	-0.270	0.550	100.470	-2.000	0.700																			1580061159.0	11.42	21.15
26/01/2020 17:52:40	26012020	260120	175240	100.250	12.197877	-56.171187	100.230	-0.480	-0.230	0.630	100.250	-1.700	0.900																			1580061160.0	10.88	20.15
26/01/2020 17:52:41	26012020	260120	175241	100.120	12.197863	-56.171138	100.170	-0.410	-0.370	0.530	100.120	-1.700	0.900																			1580061161.0	10.74	19.89
26/01/2020 17:52:42	26012020	260120	175242	100.070	12.197852	-56.171087	100.080	-0.200	-0.350	0.260	100.050	-1.800	0.900																			1580061162.0	11.20	20.74
26/01/2020 17:52:43	26012020	260120	175243	99.970	12.197840	-56.171033	100.010	-0.030	-0.090	0.000	99.970	-1.800	0.600																			1580061163.0	11.45	21.21
26/01/2020 17:52:44	26012020	260120	175244	99.920	12.197828	-56.170982	100.120	0.060	0.100	-0.200	99.920	-1.500	0.400																			1580061164.0	11.26	20.85
26/01/2020 17:52:45	26012020	260120	175245	100.060	12.197818	-56.170932	100.380	0.140	-0.040	-0.340	100.060	-1.300	0.200																			1580061165.0	10.97	20.32
26/01/2020 17:52:46	26012020	260120	175246	100.340	12.197808	-56.170880	100.600	0.190	-0.280	-0.230	100.340	-1.400	0.000																			1580061166.0	11.02	20.41
26/01/2020 17:52:47	26012020	260120	175247	100.550	12.197798	-56.170827	100.640	0.140	-0.280	0.100	100.550	-1.700	0.100																			1580061167.0	11.31	20.95
26/01/2020 17:52:48	26012020	260120	175248	100.560	12.197787	-56.170775	100.510	-0.020	-0.190	0.380	100.560	-1.700	0.500																			1580061168.0	11.33	20.98
26/01/2020 17:52:49	26012020	260120	175249	100.400	12.197775	-56.170725	100.400	-0.130	-0.340	0.560	100.400	-1.600	0.700																			1580061169.0	10.88	20.15
26/01/2020 17:52:50	26012020	260120	175250	100.290	12.197765	-56.170675	100.320	-0.080	-0.680	0.550	100.290	-1.800	0.900																			1580061170.0	10.88	20.15
26/01/2020 17:52:51	26012020	260120	175251	100.210	12.197753	-56.170623	100.110	0.060	-0.810	0.510	100.210	-2.200	0.900																			1580061171.0	11.22	20.78
26/01/2020 17:52:52	26012020	260120	175252	99.980	12.197742	-56.170570	99.860	0.110	-0.480	0.470	99.980	-2.200	0.900																			1580061172.0	11.52	21.34
26/01/2020 17:52:53	26012020	260120	175253	99.750	12.197730	-56.170517	99.800	0.050	0.010	0.250	99.750	-1.600	0.700																			1580061173.0	11.40	21.11
26/01/2020 17:52:54	26012020	260120	175254	99.710	12.197718	-56.170467	99.930	0.020	0.260	-0.130	99.710	-1.400	0.600																			1580061174.0	10.97	20.32
26/01/2020 17:52:55	26012020	260120	175255	99.870	12.197710	-56.170417	100.100	0.090	0.100	-0.470	99.870	-1.200	0.200																			1580061175.0	10.80	20.00
26/01/2020 17:52:56	26012020	260120	175256	100.050	12.197700	-56.170365	100.200	0.170	-0.120	-0.430	100.050	-1.300	-0.100																			1580061176.0	11.05	20.46
26/01/2020 17:52:57	26012020	260120	175257	100.130	12.197692	-56.170312	100.240	0.120	-0.170	-0.040	100.130	-1.500	-0.100																			1580061177.0	11.43	21.17
26/01/2020 17:52:58	26012020	260120	175258	100.180	12.197682	-56.170258	100.350	-0.060	-0.180	0.350	100.180	-1.600	0.300																			1580061178.0	11.37	21.06
26/01/2020 17:52:59	26012020	260120	175259	100.270	12.197668	-56.170208	100.450	-0.270	-0.240	0.530	100.270	-1.600	0.700	1014.20	26.20	26.30	20.00	20.10	791.00	69.00	68.00	377.00	29.00	357.00	10.00	92.00	4.30	56868	3370.00	27.70	27.70	1580061179.0	11.10	20.56
26/01/2020 17:53:00	26012020	260120	175300	100.350	12.197657	-56.170157	100.420	-0.410	-0.300	0.540	100.350	-1.600	0.900																			1580061180.0	11.04	20.45
26/01/2020 17:53:01	26012020	260120	175301	100.310	12.197643	-56.170107	100.180	-0.370	-0.400	0.520	100.310	-1.700	0.900																			1580061181.0	11.02	20.41
26/01/2020 17:53:02	26012020	260120	175302	100.060	12.197632	-56.170055	99.870	-0.130	-0.590	0.430	100.060	-1.800	0.900																			1580061182.0	11.02	20.41
26/01/2020 17:53:03	26012020	260120	175303	99.740	12.197620	-56.170005	99.650	0.240	-0.890	0.260	99.740	-2.000	0.800																			1580061183.0	11.08	20.52
26/01/2020 17:53:04	26012020	260120	175304	99.540	12.197610	-56.169952	99.570	0.540	-0.940	0.010	99.540	-2.300	0.600																			1580061184.0	11.31	20.95
26/01/2020 17:53:05	26012020	260120	175305	99.470	12.197600	-56.169898	99.560	0.510	-0.400	-0.080	99.470	-2.000	0.300																			1580061185.0	11.61	21.50
26/01/2020 17:53:06	26012020	260120	175306	99.460	12.197590	-56.169845	99.580	0.200	0.360	0.070	99.460	-1.800	0.300																			1580061186.0	11.46	21.22
26/01/2020 17:53:07	26012020	260120	175307	99.480	12.197580	-56.169795	99.630	-0.100	0.660	0.300	99.480	-0.800	0.600																			1580061187.0	10.84	20.08
26/01/2020 17:53:08	26012020	260120	175308	99.500	12.197570	-56.169747	99.750	-0.180	0.370	0.420	99.510	-0.800	0.600																			1580061188.0	10.59	19.61
26/01/2020 17:53:09	26012020	260120	175309	99.640	12.197560	-56.169695	100.020	-0.130	-0.170	0.350	99.640	-1.000	0.800																			1580061189.0	11.01	20.39
26/01/2020 17:53:10	26012020	260120	175310	99.930	12.197548	-56.169642	100.250	-0.110	-0.550	0.390	99.930	-1.600	0.700																			1580061190.0	11.51	21.32
26/01/2020 17:53:11	26012020	260120	175311	100.150	12.197538	-56.169588	100.200	-0.140	-0.590	0.630	100.150	-1.900	0.700																			1580061191.0	11.60	21.48
26/01/2020 17:53:12	26012020	260120	175312	100.060	12.197527	-56.169535	99.980	-0.160	-0.400	0.770	100.060	-2.000	1.000																			1580061192.0	11.35	21.02
26/01/2020 17:53:13	26012020	260120	175313	99.850	12.197515	-56.169485	99.870	-0.140	-0.290	0.650	99.850	-1.800	1.100																			1580061193.0	11.03	20.43
26/01/2020 17:53:14	26012020	260120	175314	99.760	12.197503	-56.169435	99.850	-0.040	-0.390	0.390	99.760	-1.700	1.000																			1580061194.0	10.86	20.11
26/01/2020 17:53:15	26012020	260120	175315	99.760	12.197493	-56.169383	99.850	0.080	-0.430	0.050	99.760	-1.900	0.500																			1580061195.0	10.99	20.35
26/01/2020 17:53:16	26012020	260120	175316	99.790	12.197483	-56.169332	99.940	0.100	-0.250	-0.100	99.790	-1.800	0.400																			1580061196.0	11.27	20.87
26/01/2020 17:53:17	26012020	260120	175317	99.860	12.197473	-56.169280	99.970	0.080	-0.140	0.000	99.860	-1.600	0.300																			1580061197.0	11.22	20.78
26/01/2020 17:53:18	26012020	260120	175318	99.890	12.197463	-56.169228	99.970	0.100	-0.150	0.110	99.890	-1.600	0.400																			1580061198.0	11.03	20.43
26/01/2020 17:53:19	26012020	260120	175319	99.890	12.197452	-56.169177	99.930	0.200	-0.170	0.130	99.890	-1.600	0.500																			1580061199.0	11.22	20.78
26/01/2020 17:53:20	26012020	260120	175320	99.860	12.197442	-56.169125	99.840	0.260	-0.170	0.050	99.840	-1.600	0.500																			1580061200.0	11.22	20.78
26/01/2020 17:53:21	26012020	260120	175321	99.730	12.197432	-56.169073	99.750	0.230	-0.310	-0.070	99.730	-1.600	0.400																			1580061201.0	11.18	20.71
26/01/2020 17:53:22	26012020	260120	175322	99.650	12.197422	-56.169022	99.770	0.120	-0.570	-0.090	99.650	-1.700	0.300																			1580061202.0	11.14	20.63
26/01/2020 17:53:23	26012020	260120	175323	99.690	12.197415	-56.168968	99.820	-0.090	-0.610	0.080	99.690	-2.000	0.300																			1580061203.0	11.31	20.95
26/01/2020 17:53:24	26012020	260120	175324	99.720	12.197405	-56.168915	99.720	-0.380	-0.240	0.390	99.720	-2.000	0.400																			1580061204.0	11.49	21.28
26/01/2020 17:53:25	26012020	260120	175325	99.600	12.197392	-56.168863	99.580	-0.570	0.130	0.590	99.600	-1.600	0.700																			1580061205.0	11.28	20.89
26/01/2020 17:53:26	26012020	260120	175326	99.460	12.197378	-56.168813	99.620	-0.440	-0.010	0.480	99.460	-1.300	0.900																			1580061206.0	10.86	20.11
26/01/2020 17:53:27	26012020	260120	175327	99.520	12.197367	-56.168763	99.730	-0.050	-0.380	0.170	99.520	-1.400	0.800																			1580061207.0	10.91	20.21
26/01/2020 17:53:28	26012020	260120	175328	99.630	12.197355	-56.168712	99.710	0.210	-0.330	-0.110	99.630	-1.800	0.500																			1580061208.0	11.47	21.24
26/01/2020 17:53:29	26012020	260120	175329	99.620	12.197343	-56.168657	99.660	0.130	0.140	-0.220	99.620	-1.700	0.200																			1580061209.0	11.70	21.67
26/01/2020 17:53:30	26012020	260120	175330	99.570	12.197335	-56.168605	99.720	-0.030	0.290	-0.160	99.570	-1.300	0.100																			1580061210.0	11.09	20.54
26/01/2020 17:53:31	26012020	260120	175331	99.640	12.197327	-56.168557	99.810	0.080	-0.210	-0.060	99.640	-1.100	0.200																			1580061211.0	10.53	19.50
26/01/2020 17:53:32	26012020	260120	175332	99.710	12.197317	-56.168505	99.800	0.350	-0.800	0.090	99.720	-1.600	0.300																			1580061212.0	10.85	20.09
26/01/2020 17:53:33	26012020	260120	175333	99.690	12.197307	-56.168452	99.700	0.400	-0.790	0.380	99.690	-2.200	0.400																			1580061213.0	11.59	21.46
26/01/2020 17:53:34	26012020	260120	175334	99.590	12.197295	-56.168398	99.640	0.170	-0.350	0.630	99.570	-2.200	0.700																			1580061214.0	11.67	21.61
26/01/2020 17:53:35	26012020	260120	175335	99.510	12.197285	-56.168347	99.590	-0.070	-0.170	0.650	99.510	-1.800	1.000																			1580061215.0	10.98	20.33
26/01/2020 17:53:36	26012020	260120	175336	99.450	12.197273	-56.168298	99.440	-0.100	-0.450	0.580	99.450	-1.600	1.000																			1580061216.0	10.60	19.63
26/01/2020 17:53:37	26012020	260120	175337	99.300	12.197263	-56.168247	99.270	-0.020	-0.680	0.500	99.300	-1.900	0.900																			1580061217.0	11.04	20.45
26/01/2020 17:53:38	26012020	260120	175338	99.140	12.197253	-56.168193	99.230	-0.040	-0.390	0.360	99.140	-2.100	0.900																			1580061218.0	11.64	21.56
26/01/2020 17:53:39	26012020	260120	175339	99.120	12.197242	-56.168140	99.310	-0.200	0.160	0.140	99.120	-1.800	0.700																			1580061219.0	11.64	21.56
26/01/2020 17:53:40	26012020	260120	175340	99.200	12.197232	-56.168088	99.400	-0.300	0.350	0.020	99.200	-1.300	0.500																			1580061220.0	11.01	20.39
26/01/2020 17:53:41	26012020	260120	175341	99.300	12.197223	-56.168038	99.570	-0.290	0.220	0.020	99.300	-1.100	0.400																			1580061221.0	10.75	19.91
26/01/2020 17:53:42	26012020	260120	175342	99.440	12.197213	-56.167987	99.780	-0.270	0.090	0.130	99.480	-1.200	0.400																			1580061222.0	11.11	20.58
26/01/2020 17:53:43	26012020	260120	175343	99.710	12.197202	-56.167935	99.970	-0.220	-0.030	0.250	99.710	-1.300	0.500																			1580061223.0	11.32	20.96
26/01/2020 17:53:44	26012020	260120	175344	99.860	12.197190	-56.167883	100.020	0.000	-0.400	0.420	99.880	-1.500	0.600																			1580061224.0	11.11	20.58
26/01/2020 17:53:45	26012020	260120	175345	99.910	12.197180	-56.167832	99.940	0.420	-0.900	0.510	99.910	-1.800	0.800																			1580061225.0	11.01	20.39
26/01/2020 17:53:46	26012020	260120	175346	99.820	12.197167	-56.167780	99.870	0.770	-1.040	0.380	99.820	-2.300	0.900																			1580061226.0	11.30	20.93
26/01/2020 17:53:47	26012020	260120	175347	99.770	12.197157	-56.167727	99.930	0.730	-0.570	0.120	99.770	-2.400	0.700																			1580061227.0	11.55	21.39
26/01/2020 17:53:48	26012020	260120	175348	99.830	12.197148	-56.167675	100.010	0.300	0.080	-0.090	99.830	-2.000	0.500																			1580061228.0	11.25	20.84
26/01/2020 17:53:49	26012020	260120	175349	99.900	12.197142	-56.167625	99.930	-0.150	0.200	-0.140	99.900	-1.400	0.300																			1580061229.0	10.64	19.71
26/01/2020 17:53:50	26012020	260120	175350	99.820	12.197133	-56.167575	99.750	-0.310	-0.300	0.050	99.820	-1.200	0.200																			1580061230.0	10.48	19.41
26/01/2020 17:53:51	26012020	260120	175351	99.640	12.197125	-56.167523	99.590	-0.300	-0.760	0.340	99.640	-1.700	0.400																			1580061231.0	11.11	20.58
26/01/2020 17:53:52	26012020	260120	175352	99.490	12.197112	-56.167470	99.500	-0.390	-0.540	0.560	99.490	-2.200	0.700																			1580061232.0	11.87	21.98
26/01/2020 17:53:53	26012020	260120	175353	99.400	12.197100	-56.167415	99.470	-0.550	0.050	0.560	99.400	-1.900	0.900																			1580061233.0	11.82	21.89
26/01/2020 17:53:54	26012020	260120	175354	99.370	12.197087	-56.167365	99.480	-0.590	0.380	0.350	99.370	-1.400	0.900																			1580061234.0	11.06	20.48
26/01/2020 17:53:55	26012020	260120	175355	99.380	12.197073	-56.167315	99.600	-0.370	0.230	0.030	99.380	-1.100	0.500																			1580061235.0	10.68	19.78
26/01/2020 17:53:56	26012020	260120	175356	99.470	12.197063	-56.167265	99.830	0.130	-0.220	-0.360	99.510	-1.200	0.400																			1580061236.0	10.93	20.24
26/01/2020 17:53:57	26012020	260120	175357	99.770	12.197053	-56.167213	100.060	0.620	-0.470	-0.570	99.770	-1.600	-0.000																			1580061237.0	11.35	21.02
26/01/2020 17:53:58	26012020	260120	175358	99.970	12.197043	-56.167158	100.260	0.760	-0.360	-0.520	100.010	-1.900	-0.200																			1580061238.0	11.62	21.52
26/01/2020 17:53:59	26012020	260120	175359	100.200	12.197035	-56.167105	100.410	0.490	-0.070	-0.230	100.200	-1.800	-0.200	1014.20	26.20	26.30	20.20	20.20	793.00	69.00	69.00	378.00	29.00	356.00	10.00	90.00	4.30	56811	3174.00	27.70	27.70	1580061239.0	11.31	20.95
26/01/2020 17:54:00	26012020	260120	175400	100.340	12.197027	-56.167055	100.410	0.050	0.080	0.160	100.340	-1.500	0.100																			1580061240.0	10.82	20.04
26/01/2020 17:54:01	26012020	260120	175401	100.320	12.197015	-56.167007	100.190	-0.160	-0.290	0.580	100.320	-1.300	0.500																			1580061241.0	10.54	19.52
26/01/2020 17:54:02	26012020	260120	175402	100.050	12.197005	-56.166958	99.790	-0.030	-1.060	0.930	100.050	-1.700	0.900																			1580061242.0	10.63	19.69
26/01/2020 17:54:03	26012020	260120	175403	99.630	12.196992	-56.166905	99.440	0.130	-1.410	1.010	99.630	-2.500	1.300																			1580061243.0	11.33	20.98
26/01/2020 17:54:04	26012020	260120	175404	99.280	12.196980	-56.166850	99.220	0.040	-0.970	0.880	99.280	-2.800	1.400																			1580061244.0	11.92	22.08
26/01/2020 17:54:05	26012020	260120	175405	99.080	12.196968	-56.166797	99.130	-0.300	-0.060	0.760	99.080	-2.400	1.200																			1580061245.0	11.64	21.56
26/01/2020 17:54:06	26012020	260120	175406	99.010	12.196958	-56.166747	99.230	-0.620	0.710	0.510	99.010	-1.500	1.100																			1580061246.0	10.96	20.30
26/01/2020 17:54:07	26012020	260120	175407	99.150	12.196947	-56.166698	99.480	-0.610	0.880	0.120	99.150	-0.500	0.600																			1580061247.0	10.58	19.59
26/01/2020 17:54:08	26012020	260120	175408	99.400	12.196935	-56.166648	99.730	-0.190	0.360	-0.140	99.400	-0.600	0.500																			1580061248.0	10.67	19.76
26/01/2020 17:54:09	26012020	260120	175409	99.650	12.196925	-56.166597	100.060	0.340	-0.290	-0.270	99.650	-1.500	0.100																			1580061249.0	11.18	20.71
26/01/2020 17:54:10	26012020	260120	175410	99.930	12.196915	-56.166542	100.450	0.530	-0.360	-0.250	100.010	-1.700	0.100																			1580061250.0	11.74	21.74
26/01/2020 17:54:11	26012020	260120	175411	100.390	12.196905	-56.166488	100.640	0.260	0.000	-0.020	100.390	-1.800	0.100																			1580061251.0	11.69	21.65
26/01/2020 17:54:12	26012020	260120	175412	100.560	12.196895	-56.166438	100.570	-0.080	0.040	0.360	100.560	-1.400	0.300																			1580061252.0	10.81	20.02
26/01/2020 17:54:13	26012020	260120	175413	100.470	12.196885	-56.166390	100.340	-0.020	-0.610	0.670	100.470	-1.400	0.700																			1580061253.0	10.18	18.85
26/01/2020 17:54:14	26012020	260120	175414	100.210	12.196873	-56.166342	100.030	0.340	-1.400	0.720	100.210	-2.000	1.000																			1580061254.0	10.57	19.58
26/01/2020 17:54:15	26012020	260120	175415	99.900	12.196862	-56.166290	99.760	0.560	-1.620	0.720	99.900	-2.800	1.100																			1580061255.0	11.45	21.21
26/01/2020 17:54:16	26012020	260120	175416	99.620	12.196852	-56.166235	99.550	0.280	-0.920	0.830	99.620	-3.000	1.100																			1580061256.0	11.82	21.89
26/01/2020 17:54:17	26012020	260120	175417	99.410	12.196842	-56.166182	99.400	-0.340	0.240	0.840	99.410	-2.300	1.200																			1580061257.0	11.41	21.13
26/01/2020 17:54:18	26012020	260120	175418	99.280	12.196830	-56.166133	99.360	-0.760	0.880	0.600	99.280	-1.200	1.200																			1580061258.0	10.58	19.59
26/01/2020 17:54:19	26012020	260120	175419	99.250	12.196818	-56.166087	99.440	-0.600	0.510	0.290	99.250	-0.600	0.900																			1580061259.0	10.14	18.78
26/01/2020 17:54:20	26012020	260120	175420	99.340	12.196807	-56.166037	99.670	-0.050	-0.210	-0.060	99.340	-0.900	0.600																			1580061260.0	10.70	19.82
26/01/2020 17:54:21	26012020	260120	175421	99.600	12.196797	-56.165983	100.040	0.290	-0.290	-0.310	99.600	-1.600	0.300																			1580061261.0	11.68	21.63
26/01/2020 17:54:22	26012020	260120	175422	99.900	12.196787	-56.165928	100.380	0.100	0.330	-0.190	99.970	-1.700	0.000																			1580061262.0	11.87	21.98
26/01/2020 17:54:23	26012020	260120	175423	100.310	12.196778	-56.165877	100.600	-0.310	0.640	0.150	100.310	-1.100	0.200																			1580061263.0	10.84	20.08
26/01/2020 17:54:24	26012020	260120	175424	100.470	12.196767	-56.165832	100.600	-0.330	-0.060	0.450	100.490	-0.800	0.500																			1580061264.0	9.80	18.15
26/01/2020 17:54:25	26012020	260120	175425	100.470	12.196755	-56.165787	100.430	0.150	-1.160	0.620	100.470	-1.500	0.800																			1580061265.0	10.00	18.52
26/01/2020 17:54:26	26012020	260120	175426	100.270	12.196743	-56.165737	100.160	0.680	-1.610	0.570	100.270	-2.600	1.000																			1580061266.0	11.05	20.46
26/01/2020 17:54:27	26012020	260120	175427	100.010	12.196732	-56.165683	99.930	0.770	-1.100	0.490	100.010	-3.000	0.900																			1580061267.0	10.90	20.19
26/01/2020 17:54:28	26012020	260120	175428	99.790	12.196722	-56.165632	99.780	0.350	-0.200	0.420	99.790	-2.500	0.800																			1580061268.0	10.90	20.19
26/01/2020 17:54:29	26012020	260120	175429	99.650	12.196713	-56.165585	99.690	-0.230	0.340	0.340	99.650	-1.600	0.800																			1580061269.0	10.04	18.59
26/01/2020 17:54:30	26012020	260120	175430	99.580	12.196705	-56.165540	99.630	-0.480	0.220	0.280	99.580	-1.100	0.700																			1580061270.0	9.72	18.00
26/01/2020 17:54:31	26012020	260120	175431	99.510	12.196695	-56.165493	99.570	-0.300	-0.220	0.260	99.510	-1.500	0.600																			1580061271.0	10.17	18.83
26/01/2020 17:54:32	26012020	260120	175432	99.460	12.196683	-56.165443	99.630	-0.010	-0.380	0.240	99.450	-1.600	0.600																			1580061272.0	10.87	20.13
26/01/2020 17:54:33	26012020	260120	175433	99.520	12.196673	-56.165392	99.820	0.040	-0.170	0.200	99.520	-1.800	0.600																			1580061273.0	11.15	20.65
26/01/2020 17:54:34	26012020	260120	175434	99.700	12.196662	-56.165342	99.980	-0.150	0.120	0.270	99.700	-1.600	0.500																			1580061274.0	10.75	19.91
26/01/2020 17:54:35	26012020	260120	175435	99.860	12.196652	-56.165295	100.040	-0.300	0.120	0.440	99.860	-1.300	0.600																			1580061275.0	10.18	18.85
26/01/2020 17:54:36	26012020	260120	175436	99.890	12.196642	-56.165250	99.990	-0.190	-0.260	0.570	99.890	-1.300	0.800																			1580061276.0	9.98	18.48
26/01/2020 17:54:37	26012020	260120	175437	99.830	12.196630	-56.165202	99.920	0.090	-0.660	0.610	99.830	-1.700	0.900																			1580061277.0	10.24	18.96
26/01/2020 17:54:38	26012020	260120	175438	99.780	12.196618	-56.165153	99.920	0.210	-0.590	0.590	99.770	-2.100	1.000																			1580061278.0	10.63	19.69
26/01/2020 17:54:39	26012020	260120	175439	99.780	12.196608	-56.165105	99.930	0.030	-0.050	0.510	99.780	-2.000	0.900																			1580061279.0	10.63	19.69
26/01/2020 17:54:40	26012020	260120	175440	99.800	12.196598	-56.165058	99.910	-0.190	0.300	0.330	99.800	-1.500	0.900																			1580061280.0	10.04	18.59
26/01/2020 17:54:41	26012020	260120	175441	99.780	12.196588	-56.165013	99.860	-0.070	-0.090	0.130	99.780	-1.100	0.700																			1580061281.0	9.45	17.50
26/01/2020 17:54:42	26012020	260120	175442	99.740	12.196580	-56.164970	99.760	0.360	-0.770	-0.010	99.740	-1.500	0.500																			1580061282.0	9.65	17.87
26/01/2020 17:54:43	26012020	260120	175443	99.630	12.196570	-56.164922	99.610	0.670	-0.890	-0.170	99.630	-2.200	0.300																			1580061283.0	10.49	19.43
26/01/2020 17:54:44	26012020	260120	175444	99.480	12.196562	-56.164870	99.520	0.540	-0.340	-0.220	99.480	-2.300	0.200																			1580061284.0	10.80	20.00
26/01/2020 17:54:45	26012020	260120	175445	99.400	12.196553	-56.164823	99.580	0.090	0.200	-0.040	99.400	-1.400	0.200																			1580061285.0	10.15	18.80
26/01/2020 17:54:46	26012020	260120	175446	99.440	12.196547	-56.164780	99.650	-0.320	0.130	0.340	99.460	-1.200	0.300																			1580061286.0	9.41	17.43
26/01/2020 17:54:47	26012020	260120	175447	99.510	12.196538	-56.164735	99.580	-0.470	-0.300	0.770	99.510	-1.600	1.000																			1580061287.0	9.41	17.43
26/01/2020 17:54:48	26012020	260120	175448	99.430	12.196527	-56.164690	99.400	-0.450	-0.530	1.080	99.430	-1.700	1.100																			1580061288.0	10.09	18.69
26/01/2020 17:54:49	26012020	260120	175449	99.240	12.196513	-56.164642	99.230	-0.390	-0.440	1.190	99.240	-1.900	1.400																			1580061289.0	10.16	18.82
26/01/2020 17:54:50	26012020	260120	175450	99.090	12.196500	-56.164597	99.220	-0.320	-0.190	0.910	99.090	-1.900	1.500																			1580061290.0	10.16	18.82
26/01/2020 17:54:51	26012020	260120	175451	99.110	12.196487	-56.164552	99.310	-0.200	0.070	0.410	99.110	-1.600	1.300																			1580061291.0	9.81	18.17
26/01/2020 17:54:52	26012020	260120	175452	99.210	12.196478	-56.164507	99.390	-0.010	0.130	-0.080	99.210	-1.400	0.800																			1580061292.0	9.55	17.69
26/01/2020 17:54:53	26012020	260120	175453	99.320	12.196470	-56.164463	99.460	0.230	-0.080	-0.380	99.320	-1.300	0.300																			1580061293.0	9.44	17.48
26/01/2020 17:54:54	26012020	260120	175454	99.400	12.196463	-56.164418	99.440	0.420	-0.370	-0.330	99.400	-1.500	-0.000																			1580061294.0	9.59	17.76
26/01/2020 17:54:55	26012020	260120	175455	99.370	12.196457	-56.164373	99.300	0.510	-0.560	-0.140	99.370	-1.800	0.000																			1580061295.0	9.80	18.15
26/01/2020 17:54:56	26012020	260120	175456	99.200	12.196447	-56.164327	99.100	0.500	-0.610	0.090	99.200	-2.000	0.200																			1580061296.0	9.79	18.13
26/01/2020 17:54:57	26012020	260120	175457	99.010	12.196438	-56.164282	99.010	0.360	-0.460	0.380	99.010	-2.000	0.500																			1580061297.0	9.70	17.96
26/01/2020 17:54:58	26012020	260120	175458	98.920	12.196432	-56.164238	98.960	0.090	-0.210	0.670	98.920	-1.900	0.800																			1580061298.0	9.59	17.76
26/01/2020 17:54:59	26012020	260120	175459	98.860	12.196422	-56.164193	98.880	-0.310	0.100	0.890	98.860	-1.400	1.200	1014.20	26.20	26.30	20.30	20.30	798.00	70.00	70.00	378.00	29.00	350.00	10.10	78.00	4.90	56976	3279.00	27.70	27.70	1580061299.0	9.44	17.48
26/01/2020 17:55:00	26012020	260120	175500	98.780	12.196412	-56.164152	98.860	-0.660	0.310	0.960	98.770	-1.300	1.200																			1580061300.0	9.35	17.32
26/01/2020 17:55:01	26012020	260120	175501	98.740	12.196402	-56.164108	98.910	-0.690	0.130	0.790	98.740	-1.100	1.300																			1580061301.0	9.22	17.08
26/01/2020 17:55:02	26012020	260120	175502	98.800	12.196390	-56.164067	99.000	-0.290	-0.410	0.460	98.800	-1.300	1.100																			1580061302.0	9.19	17.02
26/01/2020 17:55:03	26012020	260120	175503	98.880	12.196380	-56.164023	98.970	0.210	-0.790	0.190	98.880	-1.800	0.800																			1580061303.0	9.54	17.67
26/01/2020 17:55:04	26012020	260120	175504	98.860	12.196372	-56.163977	98.900	0.370	-0.580	-0.010	98.860	-2.200	0.500																			1580061304.0	9.91	18.35
26/01/2020 17:55:05	26012020	260120	175505	98.780	12.196363	-56.163932	98.910	0.130	0.020	-0.080	98.780	-2.000	0.400																			1580061305.0	9.71	17.98
26/01/2020 17:55:06	26012020	260120	175506	98.800	12.196355	-56.163890	98.990	-0.170	0.390	-0.040	98.800	-1.400	0.300																			1580061306.0	8.97	16.61
26/01/2020 17:55:07	26012020	260120	175507	98.870	12.196348	-56.163850	98.980	-0.150	-0.040	0.090	98.870	-1.000	0.300																			1580061307.0	8.44	15.63
26/01/2020 17:55:08	26012020	260120	175508	98.840	12.196342	-56.163810	98.820	0.210	-0.940	0.370	98.840	-1.500	0.500																			1580061308.0	8.67	16.06
26/01/2020 17:55:09	26012020	260120	175509	98.670	12.196333	-56.163767	98.590	0.470	-1.240	0.770	98.670	-2.400	0.700																			1580061309.0	9.58	17.74
26/01/2020 17:55:10	26012020	260120	175510	98.440	12.196322	-56.163718	98.380	0.300	-0.520	1.050	98.440	-2.600	1.100																			1580061310.0	10.19	18.87
26/01/2020 17:55:11	26012020	260120	175511	98.240	12.196312	-56.163675	98.270	-0.180	0.510	1.010	98.240	-1.900	1.400																			1580061311.0	9.57	17.72
26/01/2020 17:55:12	26012020	260120	175512	98.150	12.196302	-56.163637	98.340	-0.530	1.020	0.610	98.140	-0.900	1.400																			1580061312.0	8.49	15.72
26/01/2020 17:55:13	26012020	260120	175513	98.260	12.196295	-56.163598	98.590	-0.490	0.670	0.110	98.260	-0.400	1.000																			1580061313.0	8.10	15.00
26/01/2020 17:55:14	26012020	260120	175514	98.480	12.196288	-56.163558	98.770	-0.110	-0.240	-0.150	98.540	-0.800	0.500																			1580061314.0	8.52	15.78
26/01/2020 17:55:15	26012020	260120	175515	98.710	12.196282	-56.163515	98.750	0.340	-0.940	-0.130	98.710	-1.700	0.200																			1580061315.0	9.26	17.15
26/01/2020 17:55:16	26012020	260120	175516	98.690	12.196273	-56.163470	98.650	0.460	-0.860	0.020	98.690	-2.400	0.200																			1580061316.0	9.73	18.02
26/01/2020 17:55:17	26012020	260120	175517	98.570	12.196265	-56.163427	98.630	0.130	-0.210	0.220	98.570	-2.300	0.400																			1580061317.0	9.42	17.45
26/01/2020 17:55:18	26012020	260120	175518	98.550	12.196257	-56.163387	98.680	-0.350	0.250	0.420	98.550	-1.600	0.600																			1580061318.0	8.55	15.83
26/01/2020 17:55:19	26012020	260120	175519	98.600	12.196250	-56.163350	98.680	-0.450	-0.110	0.510	98.600	-1.200	0.800																			1580061319.0	7.87	14.58
26/01/2020 17:55:20	26012020	260120	175520	98.590	12.196240	-56.163313	98.520	-0.000	-1.010	0.600	98.590	-1.500	0.900																			1580061320.0	8.10	15.00
26/01/2020 17:55:21	26012020	260120	175521	98.390	12.196232	-56.163272	98.210	0.530	-1.390	0.740	98.390	-2.400	1.000																			1580061321.0	9.08	16.82
26/01/2020 17:55:22	26012020	260120	175522	98.090	12.196222	-56.163227	97.970	0.560	-0.570	0.650	98.090	-2.800	1.100																			1580061322.0	9.85	18.24
26/01/2020 17:55:23	26012020	260120	175523	97.900	12.196212	-56.163183	98.010	0.060	0.810	0.270	97.900	-1.100	0.800																			1580061323.0	9.37	17.35
26/01/2020 17:55:24	26012020	260120	175524	97.980	12.196205	-56.163145	98.280	-0.470	1.410	-0.170	97.980	-0.600	0.600																			1580061324.0	8.03	14.87
26/01/2020 17:55:25	26012020	260120	175525	98.270	12.196200	-56.163112	98.610	-0.530	0.650	-0.450	98.270	-0.000	0.200																			1580061325.0	7.30	13.52
26/01/2020 17:55:26	26012020	260120	175526	98.580	12.196197	-56.163073	98.780	-0.140	-0.650	-0.380	98.580	-0.800	-0.100																			1580061326.0	8.00	14.82
26/01/2020 17:55:27	26012020	260120	175527	98.720	12.196190	-56.163030	98.670	0.210	-1.180	0.080	98.720	-2.100	-0.000																			1580061327.0	9.32	17.26
26/01/2020 17:55:28	26012020	260120	175528	98.590	12.196180	-56.162985	98.450	0.190	-0.650	0.520	98.590	-2.600	0.400																			1580061328.0	9.76	18.08
26/01/2020 17:55:29	26012020	260120	175529	98.360	12.196168	-56.162945	98.340	-0.040	0.050	0.640	98.360	-2.100	0.900																			1580061329.0	8.82	16.33
26/01/2020 17:55:30	26012020	260120	175530	98.260	12.196158	-56.162910	98.320	-0.120	0.080	0.530	98.260	-1.400	1.000																			1580061330.0	7.65	14.17
26/01/2020 17:55:31	26012020	260120	175531	98.250	12.196152	-56.162875	98.310	0.020	-0.360	0.370	98.250	-1.300	0.900																			1580061331.0	7.54	13.96
26/01/2020 17:55:32	26012020	260120	175532	98.240	12.196145	-56.162837	98.290	0.110	-0.540	0.200	98.240	-1.800	0.700																			1580061332.0	8.36	15.48
26/01/2020 17:55:33	26012020	260120	175533	98.210	12.196138	-56.162795	98.280	0.040	-0.230	0.090	98.210	-2.000	0.600																			1580061333.0	8.85	16.39
26/01/2020 17:55:34	26012020	260120	175534	98.210	12.196130	-56.162755	98.370	-0.080	0.200	-0.030	98.210	-1.600	0.400																			1580061334.0	8.52	15.78
26/01/2020 17:55:35	26012020	260120	175535	98.320	12.196123	-56.162718	98.510	-0.020	0.140	-0.130	98.320	-1.200	0.300																			1580061335.0	7.93	14.69
26/01/2020 17:55:36	26012020	260120	175536	98.440	12.196117	-56.162683	98.540	0.270	-0.430	-0.100	98.470	-1.300	0.200																			1580061336.0	7.76	14.37
26/01/2020 17:55:37	26012020	260120	175537	98.480	12.196110	-56.162643	98.440	0.480	-0.820	0.100	98.480	-1.900	0.300																			1580061337.0	8.31	15.39
26/01/2020 17:55:38	26012020	260120	175538	98.380	12.196103	-56.162603	98.360	0.360	-0.560	0.420	98.360	-2.200	0.500																			1580061338.0	8.90	16.48
26/01/2020 17:55:39	26012020	260120	175539	98.260	12.196095	-56.162562	98.360	-0.040	0.050	0.710	98.260	-2.000	0.800																			1580061339.0	8.66	16.04
26/01/2020 17:55:40	26012020	260120	175540	98.270	12.196088	-56.162525	98.410	-0.440	0.440	0.830	98.270	-1.400	1.100																			1580061340.0	7.97	14.76
26/01/2020 17:55:41	26012020	260120	175541	98.320	12.196078	-56.162490	98.460	-0.560	0.310	0.710	98.320	-1.000	1.200																			1580061341.0	7.61	14.09
26/01/2020 17:55:42	26012020	260120	175542	98.370	12.196070	-56.162455	98.550	-0.400	-0.080	0.430	98.370	-1.100	1.100																			1580061342.0	7.83	14.50
26/01/2020 17:55:43	26012020	260120	175543	98.480	12.196062	-56.162417	98.690	-0.160	-0.340	0.200	98.480	-1.500	0.800																			1580061343.0	8.29	15.35
26/01/2020 17:55:44	26012020	260120	175544	98.610	12.196055	-56.162377	98.770	-0.020	-0.320	0.010	98.610	-1.800	0.600																			1580061344.0	8.45	15.65
26/01/2020 17:55:45	26012020	260120	175545	98.710	12.196048	-56.162340	98.840	0.030	-0.220	-0.220	98.710	-1.700	0.400																			1580061345.0	8.20	15.19
26/01/2020 17:55:46	26012020	260120	175546	98.780	12.196042	-56.162303	98.830	0.180	-0.410	-0.290	98.780	-1.600	0.100																			1580061346.0	7.81	14.46
26/01/2020 17:55:47	26012020	260120	175547	98.760	12.196035	-56.162267	98.690	0.490	-0.770	-0.130	98.760	-2.100	0.200																			1580061347.0	7.74	14.33
26/01/2020 17:55:48	26012020	260120	175548	98.640	12.196028	-56.162228	98.520	0.680	-0.790	-0.010	98.600	-2.200	0.200																			1580061348.0	8.15	15.09
26/01/2020 17:55:49	26012020	260120	175549	98.440	12.196022	-56.162190	98.490	0.460	-0.310	0.100	98.440	-1.900	0.400																			1580061349.0	8.46	15.67
26/01/2020 17:55:50	26012020	260120	175550	98.440	12.196015	-56.162152	98.740	-0.110	0.360	0.260	98.460	-1.700	0.500																			1580061350.0	8.16	15.11
26/01/2020 17:55:51	26012020	260120	175551	98.700	12.196008	-56.162117	98.970	-0.640	0.740	0.410	98.700	-1.100	0.600																			1580061351.0	7.63	14.13
26/01/2020 17:55:52	26012020	260120	175552	98.910	12.196000	-56.162082	99.000	-0.730	0.490	0.470	98.910	-0.700	0.800																			1580061352.0	7.39	13.69
26/01/2020 17:55:53	26012020	260120	175553	98.930	12.195990	-56.162048	98.960	-0.310	-0.280	0.440	98.930	-0.900	0.800																			1580061353.0	7.59	14.06
26/01/2020 17:55:54	26012020	260120	175554	98.870	12.195980	-56.162010	99.040	0.200	-0.780	0.250	98.870	-1.700	0.800																			1580061354.0	8.19	15.17
26/01/2020 17:55:55	26012020	260120	175555	98.970	12.195972	-56.161970	99.260	0.360	-0.580	-0.060	98.970	-2.200	0.600																			1580061355.0	8.67	16.06
26/01/2020 17:55:56	26012020	260120	175556	99.200	12.195965	-56.161932	99.400	0.160	-0.120	-0.290	99.200	-2.000	0.300																			1580061356.0	8.27	15.32
26/01/2020 17:55:57	26012020	260120	175557	99.330	12.195960	-56.161897	99.300	-0.040	-0.010	-0.190	99.330	-1.500	0.100																			1580061357.0	7.42	13.74
26/01/2020 17:55:58	26012020	260120	175558	99.200	12.195955	-56.161863	99.150	-0.070	-0.200	0.060	99.200	-1.400	0.200																			1580061358.0	7.20	13.33
26/01/2020 17:55:59	26012020	260120	175559	99.050	12.195947	-56.161828	99.090	0.040	-0.460	0.260	99.050	-1.600	0.400	1014.20	26.20	26.20	20.10	20.20	792.00	69.00	69.00	378.00	29.00	351.00	8.50	80.00	4.20	56572	3514.00	27.80	27.70	1580061359.0	7.64	14.15
26/01/2020 17:56:00	26012020	260120	175600	99.010	12.195938	-56.161792	99.070	0.150	-0.570	0.400	99.000	-1.900	0.600																			1580061360.0	7.99	14.80
26/01/2020 17:56:01	26012020	260120	175601	98.980	12.195930	-56.161755	99.040	0.140	-0.430	0.410	98.980	-2.000	0.800																			1580061361.0	8.08	14.96
26/01/2020 17:56:02	26012020	260120	175602	98.950	12.195922	-56.161718	99.070	-0.020	-0.130	0.330	98.950	-1.800	0.800																			1580061362.0	7.97	14.76
26/01/2020 17:56:03	26012020	260120	175603	99.000	12.195913	-56.161682	99.200	-0.180	0.190	0.210	99.000	-1.500	0.700																			1580061363.0	7.75	14.35
26/01/2020 17:56:04	26012020	260120	175604	99.090	12.195905	-56.161647	99.340	-0.270	0.410	-0.010	99.120	-1.200	0.600																			1580061364.0	7.57	14.02
26/01/2020 17:56:05	26012020	260120	175605	99.270	12.195898	-56.161612	99.420	-0.260	0.410	-0.260	99.270	-1.000	0.300																			1580061365.0	7.51	13.91
26/01/2020 17:56:06	26012020	260120	175606	99.360	12.195892	-56.161578	99.490	-0.150	0.100	-0.410	99.360	-1.000	0.100																			1580061366.0	7.49	13.87
26/01/2020 17:56:07	26012020	260120	175607	99.440	12.195885	-56.161542	99.620	0.040	-0.440	-0.330	99.440	-1.300	-0.000																			1580061367.0	7.56	14.00
26/01/2020 17:56:08	26012020	260120	175608	99.550	12.195880	-56.161507	99.670	0.250	-0.900	-0.030	99.550	-1.900	0.000																			1580061368.0	7.78	14.41
26/01/2020 17:56:09	26012020	260120	175609	99.580	12.195872	-56.161470	99.520	0.330	-0.880	0.320	99.580	-2.300	0.300																			1580061369.0	8.01	14.83
26/01/2020 17:56:10	26012020	260120	175610	99.390	12.195862	-56.161433	99.260	0.260	-0.460	0.570	99.390	-2.300	0.700																			1580061370.0	8.00	14.82
26/01/2020 17:56:11	26012020	260120	175611	99.130	12.195852	-56.161398	99.090	0.130	-0.060	0.680	99.130	-1.900	0.900																			1580061371.0	7.56	14.00
26/01/2020 17:56:12	26012020	260120	175612	98.970	12.195843	-56.161365	99.030	0.030	0.040	0.570	98.970	-1.500	1.000																			1580061372.0	7.22	13.37
26/01/2020 17:56:13	26012020	260120	175613	98.930	12.195837	-56.161332	99.050	-0.060	-0.040	0.320	98.930	-1.400	0.900																			1580061373.0	7.36	13.63
26/01/2020 17:56:14	26012020	260120	175614	98.960	12.195830	-56.161295	99.080	-0.160	-0.110	0.170	98.960	-1.400	0.700																			1580061374.0	7.67	14.20
26/01/2020 17:56:15	26012020	260120	175615	98.990	12.195823	-56.161258	99.170	-0.260	0.030	0.080	98.990	-1.500	0.500																			1580061375.0	7.82	14.48
26/01/2020 17:56:16	26012020	260120	175616	99.100	12.195817	-56.161223	99.310	-0.370	0.300	-0.070	99.100	-1.400	0.400																			1580061376.0	7.73	14.32
26/01/2020 17:56:17	26012020	260120	175617	99.260	12.195808	-56.161190	99.420	-0.400	0.340	-0.170	99.260	-1.100	0.300																			1580061377.0	7.42	13.74
26/01/2020 17:56:18	26012020	260120	175618	99.370	12.195800	-56.161157	99.440	-0.230	-0.090	-0.110	99.370	-1.100	0.200																			1580061378.0	7.13	13.20
26/01/2020 17:56:19	26012020	260120	175619	99.390	12.195793	-56.161123	99.410	0.110	-0.620	0.050	99.390	-1.500	0.300																			1580061379.0	7.31	13.54
26/01/2020 17:56:20	26012020	260120	175620	99.330	12.195785	-56.161087	99.300	0.440	-0.840	0.230	99.330	-2.000	0.400																			1580061380.0	7.76	14.37
26/01/2020 17:56:21	26012020	260120	175621	99.200	12.195777	-56.161050	99.170	0.620	-0.740	0.360	99.200	-2.200	0.600																			1580061381.0	7.86	14.56
26/01/2020 17:56:22	26012020	260120	175622	99.080	12.195770	-56.161015	99.180	0.580	-0.470	0.310	99.080	-2.100	0.700																			1580061382.0	7.58	14.04
26/01/2020 17:56:23	26012020	260120	175623	99.110	12.195763	-56.160982	99.220	0.310	-0.090	0.200	99.110	-1.900	0.700																			1580061383.0	7.38	13.67
26/01/2020 17:56:24	26012020	260120	175624	99.130	12.195757	-56.160948	99.150	-0.080	0.230	0.200	99.130	-1.500	0.600																			1580061384.0	7.30	13.52
26/01/2020 17:56:25	26012020	260120	175625	99.050	12.195752	-56.160913	99.010	-0.360	0.210	0.350	99.050	-1.100	0.700																			1580061385.0	7.18	13.30
26/01/2020 17:56:26	26012020	260120	175626	98.930	12.195745	-56.160882	98.860	-0.390	-0.160	0.520	98.900	-1.200	0.700																			1580061386.0	7.19	13.32
26/01/2020 17:56:27	26012020	260120	175627	98.760	12.195737	-56.160847	98.830	-0.310	-0.370	0.550	98.760	-1.600	0.900																			1580061387.0	7.57	14.02
26/01/2020 17:56:28	26012020	260120	175628	98.720	12.195727	-56.160810	98.940	-0.320	-0.100	0.390	98.720	-1.800	0.900																			1580061388.0	7.94	14.70
26/01/2020 17:56:29	26012020	260120	175629	98.860	12.195718	-56.160775	99.150	-0.410	0.400	0.120	98.860	-1.500	0.700																			1580061389.0	7.69	14.24
26/01/2020 17:56:30	26012020	260120	175630	99.080	12.195710	-56.160742	99.310	-0.420	0.560	-0.130	99.080	-1.000	0.500																			1580061390.0	7.05	13.06
26/01/2020 17:56:31	26012020	260120	175631	99.230	12.195703	-56.160712	99.380	-0.120	0.060	-0.350	99.230	-0.800	0.200																			1580061391.0	6.67	12.35
26/01/2020 17:56:32	26012020	260120	175632	99.310	12.195697	-56.160680	99.370	0.440	-0.780	-0.430	99.310	-1.400	0.000																			1580061392.0	6.96	12.89
26/01/2020 17:56:33	26012020	260120	175633	99.280	12.195690	-56.160643	99.280	0.860	-1.220	-0.340	99.280	-2.200	-0.100																			1580061393.0	7.62	14.11
26/01/2020 17:56:34	26012020	260120	175634	99.190	12.195683	-56.160607	99.150	0.840	-0.950	-0.100	99.190	-2.600	0.000																			1580061394.0	7.99	14.80
26/01/2020 17:56:35	26012020	260120	175635	99.050	12.195678	-56.160572	98.990	0.460	-0.400	0.300	99.050	-2.300	0.300																			1580061395.0	7.59	14.06
26/01/2020 17:56:36	26012020	260120	175636	98.870	12.195672	-56.160540	98.850	0.050	-0.040	0.700	98.870	-1.800	0.700																			1580061396.0	6.93	12.83
26/01/2020 17:56:37	26012020	260120	175637	98.720	12.195663	-56.160508	98.770	-0.180	0.050	0.880	98.720	-1.400	1.200																			1580061397.0	6.82	12.63
26/01/2020 17:56:38	26012020	260120	175638	98.650	12.195655	-56.160475	98.750	-0.310	0.110	0.870	98.650	-1.400	1.200																			1580061398.0	7.20	13.33
26/01/2020 17:56:39	26012020	260120	175639	98.650	12.195647	-56.160442	98.800	-0.480	0.310	0.760	98.650	-1.200	1.200																			1580061399.0	7.49	13.87
26/01/2020 17:56:40	26012020	260120	175640	98.690	12.195638	-56.160407	98.960	-0.710	0.620	0.520	98.710	-1.100	1.100																			1580061400.0	7.47	13.83
26/01/2020 17:56:41	26012020	260120	175641	98.910	12.195630	-56.160373	99.230	-0.800	0.650	0.140	98.910	-0.800	0.900																			1580061401.0	7.11	13.17
26/01/2020 17:56:42	26012020	260120	175642	99.190	12.195623	-56.160343	99.450	-0.500	0.090	-0.180	99.190	-0.800	0.500																			1580061402.0	6.77	12.54
26/01/2020 17:56:43	26012020	260120	175643	99.390	12.195617	-56.160310	99.540	0.160	-0.870	-0.340	99.390	-1.300	0.200																			1580061403.0	6.86	12.70
26/01/2020 17:56:44	26012020	260120	175644	99.450	12.195610	-56.160277	99.400	0.810	-1.510	-0.300	99.450	-2.300	0.000																			1580061404.0	7.45	13.80
26/01/2020 17:56:45	26012020	260120	175645	99.280	12.195603	-56.160240	99.090	1.060	-1.280	-0.110	99.280	-2.900	0.100																			1580061405.0	7.92	14.67
26/01/2020 17:56:46	26012020	260120	175646	98.970	12.195597	-56.160203	98.840	0.800	-0.300	0.120	98.970	-2.700	0.300																			1580061406.0	7.69	14.24
26/01/2020 17:56:47	26012020	260120	175647	98.740	12.195590	-56.160172	98.800	0.260	0.620	0.210	98.740	-1.700	0.500																			1580061407.0	6.91	12.80
26/01/2020 17:56:48	26012020	260120	175648	98.750	12.195585	-56.160143	99.010	-0.210	0.760	0.060	98.750	-0.800	0.600																			1580061408.0	6.21	11.50
26/01/2020 17:56:49	26012020	260120	175649	98.970	12.195580	-56.160113	99.210	-0.410	0.170	-0.010	98.970	-0.700	0.400																			1580061409.0	6.30	11.67
26/01/2020 17:56:50	26012020	260120	175650	99.160	12.195573	-56.160082	99.240	-0.430	-0.400	0.260	99.160	-1.200	0.400																			1580061410.0	7.08	13.11
26/01/2020 17:56:51	26012020	260120	175651	99.180	12.195565	-56.160045	99.220	-0.460	-0.420	0.620	99.180	-1.800	0.600																			1580061411.0	7.78	14.41
26/01/2020 17:56:52	26012020	260120	175652	99.140	12.195555	-56.160010	99.170	-0.530	-0.070	0.830	99.130	-1.800	1.000																			1580061412.0	7.69	14.24
26/01/2020 17:56:53	26012020	260120	175653	99.050	12.195545	-56.159978	99.070	-0.430	0.090	0.780	99.050	-1.500	1.200																			1580061413.0	7.03	13.02
26/01/2020 17:56:54	26012020	260120	175654	98.980	12.195535	-56.159950	98.990	0.020	-0.270	0.450	98.960	-1.300	1.100																			1580061414.0	6.57	12.17
26/01/2020 17:56:55	26012020	260120	175655	98.900	12.195527	-56.159918	98.930	0.590	-0.740	-0.020	98.900	-1.700	0.800																			1580061415.0	6.78	12.56
26/01/2020 17:56:56	26012020	260120	175656	98.870	12.195522	-56.159883	98.990	0.810	-0.640	-0.420	98.870	-2.100	0.300																			1580061416.0	7.42	13.74
26/01/2020 17:56:57	26012020	260120	175657	98.950	12.195518	-56.159848	99.100	0.540	-0.070	-0.590	98.950	-2.000	-0.100																			1580061417.0	7.59	14.06
26/01/2020 17:56:58	26012020	260120	175658	99.050	12.195515	-56.159815	99.140	0.120	0.320	-0.440	99.050	-1.500	-0.200																			1580061418.0	6.92	12.82
26/01/2020 17:56:59	26012020	260120	175659	99.070	12.195510	-56.159785	99.110	-0.070	0.150	-0.080	99.070	-1.100	-0.100	1014.20	26.20	26.30	20.20	20.30	771.00	69.00	69.00	378.00	29.00	353.00	8.50	86.00	4.70	55672	3815.00	27.80	27.80	1580061419.0	6.34	11.74
26/01/2020 17:57:00	26012020	260120	175700	99.020	12.195503	-56.159755	99.080	-0.030	-0.210	0.320	99.020	-1.300	0.300																			1580061420.0	6.59	12.20
26/01/2020 17:57:01	26012020	260120	175701	98.990	12.195493	-56.159723	99.030	-0.030	-0.230	0.650	98.990	-1.600	0.700																			1580061421.0	7.24	13.41
26/01/2020 17:57:02	26012020	260120	175702	98.940	12.195483	-56.159688	98.970	-0.230	0.020	0.760	98.940	-1.600	1.000																			1580061422.0	7.39	13.69
26/01/2020 17:57:03	26012020	260120	175703	98.890	12.195475	-56.159658	98.930	-0.460	0.070	0.700	98.890	-1.300	1.100																			1580061423.0	6.88	12.74
26/01/2020 17:57:04	26012020	260120	175704	98.850	12.195468	-56.159628	98.870	-0.450	-0.270	0.610	98.850	-1.300	1.100																			1580061424.0	6.49	12.02
26/01/2020 17:57:05	26012020	260120	175705	98.790	12.195462	-56.159597	98.800	-0.190	-0.660	0.530	98.790	-1.700	1.000																			1580061425.0	6.70	12.41
26/01/2020 17:57:06	26012020	260120	175706	98.710	12.195453	-56.159565	98.670	0.120	-0.750	0.450	98.710	-2.100	0.900																			1580061426.0	7.14	13.22
26/01/2020 17:57:07	26012020	260120	175707	98.590	12.195447	-56.159530	98.530	0.270	-0.430	0.280	98.590	-2.200	0.800																			1580061427.0	7.28	13.48
26/01/2020 17:57:08	26012020	260120	175708	98.440	12.195438	-56.159498	98.440	0.280	0.020	-0.010	98.440	-1.800	0.600																			1580061428.0	7.04	13.04
26/01/2020 17:57:09	26012020	260120	175709	98.380	12.195433	-56.159468	98.510	0.290	0.220	-0.300	98.380	-1.400	0.400																			1580061429.0	6.62	12.26
26/01/2020 17:57:10	26012020	260120	175710	98.470	12.195428	-56.159437	98.690	0.320	0.160	-0.540	98.470	-1.200	0.100																			1580061430.0	6.48	12.00
26/01/2020 17:57:11	26012020	260120	175711	98.650	12.195423	-56.159405	98.830	0.270	0.080	-0.630	98.650	-1.200	-0.200																			1580061431.0	6.75	12.50
26/01/2020 17:57:12	26012020	260120	175712	98.780	12.195418	-56.159373	98.820	0.120	0.020	-0.350	98.780	-1.300	-0.300																			1580061432.0	6.92	12.82
26/01/2020 17:57:13	26012020	260120	175713	98.750	12.195413	-56.159342	98.710	-0.070	-0.070	0.220	98.750	-1.400	0.000																			1580061433.0	6.80	12.59
26/01/2020 17:57:14	26012020	260120	175714	98.620	12.195405	-56.159312	98.570	-0.280	-0.200	0.730	98.620	-1.500	0.600																			1580061434.0	6.71	12.43
26/01/2020 17:57:15	26012020	260120	175715	98.470	12.195397	-56.159280	98.470	-0.420	-0.370	0.990	98.470	-1.600	1.100																			1580061435.0	6.72	12.45
26/01/2020 17:57:16	26012020	260120	175716	98.390	12.195387	-56.159250	98.400	-0.420	-0.470	1.080	98.370	-1.800	1.300																			1580061436.0	6.76	12.52
26/01/2020 17:57:17	26012020	260120	175717	98.280	12.195378	-56.159220	98.350	-0.240	-0.500	1.000	98.280	-1.900	1.400																			1580061437.0	6.78	12.56
26/01/2020 17:57:18	26012020	260120	175718	98.230	12.195370	-56.159188	98.300	0.040	-0.540	0.740	98.230	-1.900	1.400																			1580061438.0	6.74	12.48
26/01/2020 17:57:19	26012020	260120	175719	98.200	12.195363	-56.159157	98.200	0.290	-0.520	0.420	98.200	-1.900	1.100																			1580061439.0	6.73	12.46
26/01/2020 17:57:20	26012020	260120	175720	98.100	12.195357	-56.159125	98.060	0.330	-0.300	0.120	98.100	-1.900	0.800																			1580061440.0	6.86	12.70
26/01/2020 17:57:21	26012020	260120	175721	97.990	12.195352	-56.159093	98.020	0.180	0.140	-0.150	97.990	-1.700	0.500																			1580061441.0	6.89	12.76
26/01/2020 17:57:22	26012020	260120	175722	97.980	12.195347	-56.159062	98.090	-0.050	0.570	-0.370	97.980	-1.300	0.200																			1580061442.0	6.67	12.35
26/01/2020 17:57:23	26012020	260120	175723	98.060	12.195343	-56.159033	98.150	-0.200	0.620	-0.430	98.060	-0.900	-0.000																			1580061443.0	6.37	11.80
26/01/2020 17:57:24	26012020	260120	175724	98.130	12.195338	-56.159003	98.200	-0.170	0.230	-0.300	98.130	-0.800	-0.100																			1580061444.0	6.25	11.58
26/01/2020 17:57:25	26012020	260120	175725	98.160	12.195332	-56.158973	98.240	0.000	-0.310	-0.130	98.160	-1.200	0.100																			1580061445.0	6.52	12.08
26/01/2020 17:57:26	26012020	260120	175726	98.210	12.195325	-56.158942	98.320	0.200	-0.610	0.090	98.210	-1.700	0.200																			1580061446.0	6.87	12.72
26/01/2020 17:57:27	26012020	260120	175727	98.280	12.195318	-56.158910	98.380	0.290	-0.590	0.370	98.280	-2.000	0.600																			1580061447.0	6.94	12.85
26/01/2020 17:57:28	26012020	260120	175728	98.320	12.195310	-56.158878	98.280	0.220	-0.490	0.700	98.320	-2.000	0.700																			1580061448.0	6.67	12.35
26/01/2020 17:57:29	26012020	260120	175729	98.220	12.195303	-56.158850	98.090	0.080	-0.480	0.990	98.220	-1.900	1.300																			1580061449.0	6.39	11.83
26/01/2020 17:57:30	26012020	260120	175730	98.060	12.195297	-56.158820	97.890	-0.060	-0.470	1.140	98.020	-1.900	1.300																			1580061450.0	6.41	11.87
26/01/2020 17:57:31	26012020	260120	175731	97.810	12.195288	-56.158790	97.760	-0.230	-0.320	1.060	97.810	-1.900	1.500																			1580061451.0	6.61	12.24
26/01/2020 17:57:32	26012020	260120	175732	97.700	12.195282	-56.158758	97.740	-0.430	-0.060	0.830	97.700	-1.700	1.400																			1580061452.0	6.69	12.39
26/01/2020 17:57:33	26012020	260120	175733	97.700	12.195275	-56.158728	97.730	-0.530	0.130	0.640	97.700	-1.500	1.200																			1580061453.0	6.58	12.19
26/01/2020 17:57:34	26012020	260120	175734	97.670	12.195268	-56.158698	97.680	-0.400	0.160	0.380	97.670	-1.300	1.000																			1580061454.0	6.45	11.95
26/01/2020 17:57:35	26012020	260120	175735	97.630	12.195262	-56.158668	97.690	-0.090	0.140	-0.070	97.630	-1.300	0.700																			1580061455.0	6.53	12.09
26/01/2020 17:57:36	26012020	260120	175736	97.650	12.195255	-56.158638	97.780	0.180	0.200	-0.530	97.650	-1.300	0.300																			1580061456.0	6.67	12.35
26/01/2020 17:57:37	26012020	260120	175737	97.760	12.195252	-56.158607	97.960	0.280	0.280	-0.850	97.760	-1.200	-0.200																			1580061457.0	6.63	12.28
26/01/2020 17:57:38	26012020	260120	175738	97.980	12.195248	-56.158577	98.250	0.310	0.120	-0.930	97.980	-1.100	-0.500																			1580061458.0	6.36	11.78
26/01/2020 17:57:39	26012020	260120	175739	98.270	12.195245	-56.158548	98.480	0.390	-0.330	-0.710	98.270	-1.300	-0.600																			1580061459.0	6.18	11.45
26/01/2020 17:57:40	26012020	260120	175740	98.470	12.195240	-56.158518	98.450	0.470	-0.810	-0.140	98.470	-1.700	-0.300																			1580061460.0	6.32	11.70
26/01/2020 17:57:41	26012020	260120	175741	98.400	12.195233	-56.158488	98.180	0.390	-0.990	0.690	98.400	-2.200	0.200																			1580061461.0	6.61	12.24
26/01/2020 17:57:42	26012020	260120	175742	98.150	12.195225	-56.158457	97.820	0.100	-0.790	1.460	98.080	-2.400	1.100																			1580061462.0	6.74	12.48
26/01/2020 17:57:43	26012020	260120	175743	97.690	12.195217	-56.158428	97.540	-0.260	-0.420	1.880	97.690	-2.200	1.800																			1580061463.0	6.55	12.13
26/01/2020 17:57:44	26012020	260120	175744	97.450	12.195207	-56.158400	97.440	-0.540	-0.110	1.890	97.410	-1.800	2.200																			1580061464.0	6.31	11.69
26/01/2020 17:57:45	26012020	260120	175745	97.340	12.195198	-56.158372	97.510	-0.650	0.090	1.540	97.340	-1.500	2.200																			1580061465.0	6.31	11.69
26/01/2020 17:57:46	26012020	260120	175746	97.430	12.195192	-56.158342	97.680	-0.590	0.260	0.890	97.430	-1.300	1.900																			1580061466.0	6.45	11.95
26/01/2020 17:57:47	26012020	260120	175747	97.610	12.195183	-56.158312	97.830	-0.400	0.470	0.140	97.610	-1.100	1.200																			1580061467.0	6.55	12.13
26/01/2020 17:57:48	26012020	260120	175748	97.800	12.195178	-56.158282	97.940	-0.130	0.500	-0.510	97.800	-0.900	0.500																			1580061468.0	6.45	11.95
26/01/2020 17:57:49	26012020	260120	175749	97.890	12.195175	-56.158252	97.970	0.200	0.180	-0.990	97.890	-0.900	-0.200																			1580061469.0	6.23	11.54
26/01/2020 17:57:50	26012020	260120	175750	97.940	12.195172	-56.158223	98.040	0.490	-0.280	-1.280	97.940	-1.200	-0.600																			1580061470.0	6.29	11.65
26/01/2020 17:57:51	26012020	260120	175751	98.030	12.195170	-56.158192	98.150	0.630	-0.570	-1.200	98.030	-1.700	-0.900																			1580061471.0	6.51	12.06
26/01/2020 17:57:52	26012020	260120	175752	98.140	12.195167	-56.158162	98.260	0.550	-0.570	-0.740	98.140	-2.000	-0.800																			1580061472.0	6.56	12.15
26/01/2020 17:57:53	26012020	260120	175753	98.230	12.195162	-56.158132	98.280	0.290	-0.400	-0.020	98.230	-1.900	0.100																			1580061473.0	6.36	11.78
26/01/2020 17:57:54	26012020	260120	175754	98.230	12.195155	-56.158103	98.180	-0.010	-0.300	0.770	98.230	-1.800	0.300																			1580061474.0	6.11	11.32
26/01/2020 17:57:55	26012020	260120	175755	98.090	12.195147	-56.158077	97.970	-0.170	-0.390	1.420	98.090	-1.700	1.100																			1580061475.0	6.04	11.19
26/01/2020 17:57:56	26012020	260120	175756	97.890	12.195137	-56.158048	97.690	-0.150	-0.540	1.810	97.830	-1.800	1.800																			1580061476.0	6.24	11.56
26/01/2020 17:57:57	26012020	260120	175757	97.540	12.195127	-56.158020	97.580	-0.150	-0.440	1.770	97.540	-1.900	2.200																			1580061477.0	6.54	12.11
26/01/2020 17:57:58	26012020	260120	175758	97.440	12.195118	-56.157990	97.640	-0.310	-0.080	1.300	97.440	-1.900	2.100																			1580061478.0	6.65	12.32
26/01/2020 17:57:59	26012020	260120	175759	97.540	12.195112	-56.157960	97.710	-0.510	0.310	0.700	97.540	-1.500	1.700	1014.20	26.10	26.20	20.10	20.20	788.00	69.00	69.00	378.00	29.00	350.00	8.00	81.00	4.70	56261	3675.00	27.80	27.80	1580061479.0	6.42	11.89
26/01/2020 17:58:00	26012020	260120	175800	97.650	12.195107	-56.157932	97.800	-0.500	0.480	0.150	97.650	-1.100	1.100																			1580061480.0	6.08	11.26
26/01/2020 17:58:01	26012020	260120	175801	97.770	12.195103	-56.157903	97.950	-0.210	0.320	-0.420	97.770	-0.900	0.500																			1580061481.0	6.00	11.11
26/01/2020 17:58:02	26012020	260120	175802	97.920	12.195098	-56.157875	98.050	0.180	-0.040	-0.910	97.920	-1.100	-0.100																			1580061482.0	6.14	11.37
26/01/2020 17:58:03	26012020	260120	175803	98.040	12.195095	-56.157845	98.110	0.440	-0.270	-1.120	98.040	-1.500	-0.600																			1580061483.0	6.40	11.85
26/01/2020 17:58:04	26012020	260120	175804	98.100	12.195092	-56.157813	98.130	0.490	-0.290	-0.960	98.100	-1.700	-0.800																			1580061484.0	6.48	12.00
26/01/2020 17:58:05	26012020	260120	175805	98.110	12.195088	-56.157785	98.140	0.420	-0.320	-0.570	98.110	-1.700	-0.400																			1580061485.0	6.21	11.50
26/01/2020 17:58:06	26012020	260120	175806	98.100	12.195083	-56.157757	98.090	0.320	-0.500	-0.050	98.100	-1.700	-0.200																			1580061486.0	5.93	10.98
26/01/2020 17:58:07	26012020	260120	175807	98.030	12.195077	-56.157730	97.990	0.180	-0.620	0.600	98.030	-1.900	0.300																			1580061487.0	5.99	11.09
26/01/2020 17:58:08	26012020	260120	175808	97.940	12.195068	-56.157702	97.910	-0.060	-0.390	1.180	97.920	-2.000	1.000																			1580061488.0	6.28	11.63
26/01/2020 17:58:09	26012020	260120	175809	97.830	12.195060	-56.157673	97.910	-0.360	0.050	1.460	97.830	-1.800	1.500																			1580061489.0	6.30	11.67
26/01/2020 17:58:10	26012020	260120	175810	97.820	12.195050	-56.157647	97.950	-0.570	0.270	1.390	97.820	-1.400	1.800																			1580061490.0	5.97	11.06
26/01/2020 17:58:11	26012020	260120	175811	97.860	12.195043	-56.157620	97.970	-0.520	0.090	1.080	97.860	-1.100	1.700																			1580061491.0	5.73	10.61
26/01/2020 17:58:12	26012020	260120	175812	97.910	12.195035	-56.157593	97.960	-0.240	-0.300	0.630	97.910	-1.300	1.400																			1580061492.0	5.90	10.93
26/01/2020 17:58:13	26012020	260120	175813	97.890	12.195030	-56.157563	97.900	0.120	-0.540	0.130	97.890	-1.700	1.000																			1580061493.0	6.27	11.61
26/01/2020 17:58:14	26012020	260120	175814	97.840	12.195025	-56.157533	97.840	0.360	-0.470	-0.320	97.840	-2.000	0.500																			1580061494.0	6.44	11.93
26/01/2020 17:58:15	26012020	260120	175815	97.810	12.195022	-56.157505	97.810	0.370	-0.140	-0.600	97.810	-1.900	0.000																			1580061495.0	6.31	11.69
26/01/2020 17:58:16	26012020	260120	175816	97.780	12.195018	-56.157477	97.770	0.210	0.210	-0.670	97.780	-1.600	-0.200																			1580061496.0	5.99	11.09
26/01/2020 17:58:17	26012020	260120	175817	97.750	12.195015	-56.157450	97.800	0.060	0.350	-0.620	97.750	-1.100	-0.300																			1580061497.0	5.72	10.59
26/01/2020 17:58:18	26012020	260120	175818	97.770	12.195012	-56.157423	97.910	0.010	0.140	-0.490	97.780	-1.100	-0.300																			1580061498.0	5.63	10.43
26/01/2020 17:58:19	26012020	260120	175819	97.890	12.195007	-56.157397	98.050	0.060	-0.250	-0.210	97.890	-1.500	0.000																			1580061499.0	5.77	10.69
26/01/2020 17:58:20	26012020	260120	175820	98.000	12.195000	-56.157368	98.120	0.080	-0.480	0.230	98.020	-1.700	0.100																			1580061500.0	6.05	11.20
26/01/2020 17:58:21	26012020	260120	175821	98.070	12.194993	-56.157340	98.080	-0.020	-0.460	0.770	98.070	-1.900	0.600																			1580061501.0	6.20	11.48
26/01/2020 17:58:22	26012020	260120	175822	97.990	12.194985	-56.157313	97.920	-0.200	-0.310	1.160	97.990	-1.900	1.100																			1580061502.0	6.04	11.19
26/01/2020 17:58:23	26012020	260120	175823	97.820	12.194977	-56.157287	97.790	-0.330	-0.180	1.280	97.820	-1.700	1.500																			1580061503.0	5.81	10.76
26/01/2020 17:58:24	26012020	260120	175824	97.680	12.194968	-56.157262	97.770	-0.310	-0.100	1.170	97.680	-1.600	1.600																			1580061504.0	5.72	10.59
26/01/2020 17:58:25	26012020	260120	175825	97.660	12.194962	-56.157235	97.810	-0.150	-0.070	0.780	97.660	-1.500	1.500																			1580061505.0	5.74	10.63
26/01/2020 17:58:26	26012020	260120	175826	97.710	12.194955	-56.157208	97.790	0.070	-0.070	0.210	97.710	-1.500	1.100																			1580061506.0	5.79	10.72
26/01/2020 17:58:27	26012020	260120	175827	97.690	12.194952	-56.157182	97.640	0.270	-0.190	-0.220	97.690	-1.500	0.600																			1580061507.0	5.80	10.74
26/01/2020 17:58:28	26012020	260120	175828	97.560	12.194948	-56.157153	97.480	0.410	-0.420	-0.400	97.560	-1.600	0.100																			1580061508.0	5.82	10.78
26/01/2020 17:58:29	26012020	260120	175829	97.430	12.194945	-56.157125	97.500	0.400	-0.440	-0.560	97.430	-1.800	-0.000																			1580061509.0	5.96	11.04
26/01/2020 17:58:30	26012020	260120	175830	97.500	12.194942	-56.157097	97.730	0.160	-0.050	-0.670	97.500	-1.900	-0.200																			1580061510.0	6.12	11.33
26/01/2020 17:58:31	26012020	260120	175831	97.680	12.194938	-56.157070	97.920	-0.210	0.440	-0.500	97.720	-1.500	-0.300																			1580061511.0	5.85	10.83
26/01/2020 17:58:32	26012020	260120	175832	97.890	12.194933	-56.157045	98.030	-0.460	0.500	-0.060	97.920	-1.000	-0.100																			1580061512.0	5.29	9.80
26/01/2020 17:58:33	26012020	260120	175833	97.980	12.194928	-56.157022	97.970	-0.410	-0.000	0.460	97.980	-0.900	0.300																			1580061513.0	5.12	9.48
26/01/2020 17:58:34	26012020	260120	175834	97.930	12.194920	-56.156997	97.820	-0.100	-0.700	0.890	97.900	-1.400	0.800																			1580061514.0	5.55	10.28
26/01/2020 17:58:35	26012020	260120	175835	97.750	12.194910	-56.156970	97.700	0.190	-0.990	1.180	97.750	-2.100	1.200																			1580061515.0	6.13	11.35
26/01/2020 17:58:36	26012020	260120	175836	97.630	12.194902	-56.156940	97.630	0.220	-0.570	1.170	97.630	-2.400	1.500																			1580061516.0	6.36	11.78
26/01/2020 17:58:37	26012020	260120	175837	97.560	12.194895	-56.156913	97.620	0.020	0.190	0.830	97.560	-2.000	1.500																			1580061517.0	5.95	11.02
26/01/2020 17:58:38	26012020	260120	175838	97.570	12.194890	-56.156890	97.630	-0.120	0.510	0.400	97.570	-1.200	1.200																			1580061518.0	5.18	9.59
26/01/2020 17:58:39	26012020	260120	175839	97.590	12.194887	-56.156867	97.630	-0.020	0.120	0.020	97.590	-0.900	0.800																			1580061519.0	4.82	8.93
26/01/2020 17:58:40	26012020	260120	175840	97.600	12.194883	-56.156842	97.630	0.200	-0.500	-0.360	97.600	-1.300	0.400																			1580061520.0	5.30	9.82
26/01/2020 17:58:41	26012020	260120	175841	97.610	12.194880	-56.156813	97.670	0.230	-0.650	-0.570	97.610	-2.100	-0.200																			1580061521.0	6.04	11.19
26/01/2020 17:58:42	26012020	260120	175842	97.650	12.194877	-56.156785	97.750	-0.010	-0.200	-0.490	97.650	-2.100	-0.200																			1580061522.0	6.23	11.54
26/01/2020 17:58:43	26012020	260120	175843	97.720	12.194872	-56.156758	97.850	-0.310	0.280	-0.290	97.720	-1.600	-0.100																			1580061523.0	5.62	10.41
26/01/2020 17:58:44	26012020	260120	175844	97.800	12.194867	-56.156735	97.850	-0.360	0.330	-0.030	97.810	-1.100	0.100																			1580061524.0	4.96	9.19
26/01/2020 17:58:45	26012020	260120	175845	97.810	12.194860	-56.156713	97.740	-0.130	-0.020	0.270	97.810	-1.100	0.300																			1580061525.0	4.96	9.19
26/01/2020 17:58:46	26012020	260120	175846	97.680	12.194852	-56.156688	97.600	0.200	-0.490	0.550	97.680	-1.400	0.600																			1580061526.0	5.41	10.02
26/01/2020 17:58:47	26012020	260120	175847	97.510	12.194845	-56.156662	97.560	0.420	-0.720	0.620	97.510	-1.900	0.900																			1580061527.0	5.79	10.72
26/01/2020 17:58:48	26012020	260120	175848	97.490	12.194840	-56.156635	97.680	0.340	-0.400	0.490	97.490	-2.100	1.000																			1580061528.0	5.93	10.98
26/01/2020 17:58:49	26012020	260120	175849	97.650	12.194835	-56.156608	97.870	0.010	0.230	0.420	97.650	-1.800	0.900																			1580061529.0	5.67	10.50
26/01/2020 17:58:50	26012020	260120	175850	97.830	12.194830	-56.156585	97.920	-0.290	0.460	0.490	97.830	-1.200	0.800																			1580061530.0	5.06	9.37
26/01/2020 17:58:51	26012020	260120	175851	97.870	12.194825	-56.156563	97.880	-0.260	-0.040	0.480	97.870	-1.000	0.900																			1580061531.0	4.69	8.69
26/01/2020 17:58:52	26012020	260120	175852	97.820	12.194818	-56.156540	97.810	-0.020	-0.570	0.360	97.820	-1.500	0.800																			1580061532.0	5.16	9.56
26/01/2020 17:58:53	26012020	260120	175853	97.750	12.194813	-56.156513	97.730	0.090	-0.540	0.240	97.750	-2.000	0.700																			1580061533.0	5.91	10.95
26/01/2020 17:58:54	26012020	260120	175854	97.670	12.194807	-56.156485	97.660	-0.030	-0.170	0.070	97.670	-2.000	0.600																			1580061534.0	5.85	10.83
26/01/2020 17:58:55	26012020	260120	175855	97.630	12.194803	-56.156462	97.670	-0.210	0.060	-0.140	97.630	-1.400	0.300																			1580061535.0	5.19	9.61
26/01/2020 17:58:56	26012020	260120	175856	97.640	12.194800	-56.156438	97.720	-0.290	-0.040	-0.220	97.650	-1.400	0.200																			1580061536.0	4.81	8.91
26/01/2020 17:58:57	26012020	260120	175857	97.680	12.194797	-56.156415	97.710	-0.230	-0.250	-0.120	97.680	-1.500	0.100																			1580061537.0	5.07	9.39
26/01/2020 17:58:58	26012020	260120	175858	97.680	12.194790	-56.156390	97.680	-0.080	-0.260	-0.000	97.670	-1.700	0.200																			1580061538.0	5.45	10.09
26/01/2020 17:58:59	26012020	260120	175859	97.640	12.194783	-56.156365	97.650	0.130	-0.030	0.090	97.640	-1.700	0.400	1014.20	26.10	26.20	20.20	20.30	785.00	69.00	69.00	378.00	29.00	352.00	7.20	85.00	4.30	56019	3577.00	27.80	27.70	1580061539.0	5.58	10.33
26/01/2020 17:59:00	26012020	260120	175900	97.620	12.194777	-56.156340	97.640	0.310	0.220	0.160	97.620	-1.500	0.500																			1580061540.0	5.34	9.89
26/01/2020 17:59:01	26012020	260120	175901	97.610	12.194772	-56.156318	97.630	0.420	0.190	0.080	97.610	-1.200	0.500																			1580061541.0	5.05	9.35
26/01/2020 17:59:02	26012020	260120	175902	97.600	12.194767	-56.156295	97.670	0.510	-0.180	-0.090	97.600	-1.200	0.400																			1580061542.0	4.95	9.17
26/01/2020 17:59:03	26012020	260120	175903	97.640	12.194763	-56.156270	97.720	0.500	-0.540	-0.140	97.640	-1.600	0.300																			1580061543.0	5.17	9.57
26/01/2020 17:59:04	26012020	260120	175904	97.690	12.194760	-56.156245	97.760	0.240	-0.550	-0.020	97.690	-2.000	0.200																			1580061544.0	5.50	10.19
26/01/2020 17:59:05	26012020	260120	175905	97.710	12.194757	-56.156220	97.730	-0.230	-0.250	0.300	97.710	-2.000	0.300																			1580061545.0	5.44	10.07
26/01/2020 17:59:06	26012020	260120	175906	97.670	12.194752	-56.156197	97.650	-0.600	0.030	0.610	97.670	-1.700	0.700																			1580061546.0	5.07	9.39
26/01/2020 17:59:07	26012020	260120	175907	97.550	12.194743	-56.156175	97.590	-0.750	0.130	0.760	97.550	-1.300	1.300																			1580061547.0	4.78	8.85
26/01/2020 17:59:08	26012020	260120	175908	97.430	12.194737	-56.156153	97.500	-0.870	0.110	0.990	97.430	-1.300	1.300																			1580061548.0	4.81	8.91
26/01/2020 17:59:09	26012020	260120	175909	97.330	12.194728	-56.156130	97.410	-0.610	-0.320	1.010	97.330	-2.000	1.300																			1580061549.0	5.15	9.54
26/01/2020 17:59:10	26012020	260120	175910	97.250	12.194720	-56.156105	97.290	-0.110	-0.800	0.840	97.230	-2.200	1.200																			1580061550.0	5.62	10.41
26/01/2020 17:59:11	26012020	260120	175911	97.170	12.194715	-56.156078	97.230	0.330	-0.700	0.470	97.170	-2.200	0.900																			1580061551.0	5.82	10.78
26/01/2020 17:59:12	26012020	260120	175912	97.170	12.194710	-56.156053	97.220	0.500	0.050	-0.090	97.170	-1.500	0.400																			1580061552.0	5.32	9.85
26/01/2020 17:59:13	26012020	260120	175913	97.230	12.194708	-56.156032	97.280	0.450	0.740	-0.680	97.230	-0.800	-0.200																			1580061553.0	4.54	8.41
26/01/2020 17:59:14	26012020	260120	175914	97.390	12.194708	-56.156012	97.430	0.380	0.760	-1.110	97.390	-0.600	-0.700																			1580061554.0	4.40	8.15
26/01/2020 17:59:15	26012020	260120	175915	97.570	12.194708	-56.155988	97.610	0.350	0.230	-1.260	97.570	-1.100	-0.900																			1580061555.0	4.92	9.11
26/01/2020 17:59:16	26012020	260120	175916	97.670	12.194707	-56.155962	97.700	0.260	-0.300	-1.030	97.670	-1.600	-0.700																			1580061556.0	5.38	9.96
26/01/2020 17:59:17	26012020	260120	175917	97.650	12.194702	-56.155938	97.690	0.040	-0.560	-0.400	97.650	-2.000	-0.200																			1580061557.0	5.30	9.82
26/01/2020 17:59:18	26012020	260120	175918	97.500	12.194693	-56.155915	97.560	-0.240	-0.650	0.570	97.500	-2.100	0.800																			1580061558.0	5.02	9.30
26/01/2020 17:59:19	26012020	260120	175919	97.190	12.194683	-56.155893	97.260	-0.400	-0.750	1.580	97.190	-2.200	1.800																			1580061559.0	5.02	9.30
26/01/2020 17:59:20	26012020	260120	175920	96.920	12.194673	-56.155872	96.960	-0.360	-0.750	2.210	96.860	-2.200	2.500																			1580061560.0	5.28	9.78
26/01/2020 17:59:21	26012020	260120	175921	96.700	12.194662	-56.155848	96.800	-0.240	-0.470	2.260	96.670	-2.000	2.600																			1580061561.0	5.33	9.87
26/01/2020 17:59:22	26012020	260120	175922	96.690	12.194655	-56.155827	96.830	-0.150	-0.000	1.720	96.710	-1.500	2.200																			1580061562.0	5.05	9.35
26/01/2020 17:59:23	26012020	260120	175923	96.830	12.194652	-56.155803	96.920	-0.070	0.420	0.810	96.830	-1.100	1.300																			1580061563.0	4.75	8.80
26/01/2020 17:59:24	26012020	260120	175924	96.930	12.194650	-56.155782	97.020	0.060	0.510	-0.210	96.950	-0.900	0.300																			1580061564.0	4.73	8.76
26/01/2020 17:59:25	26012020	260120	175925	97.100	12.194652	-56.155758	97.150	0.270	0.280	-1.160	97.100	-1.100	-0.600																			1580061565.0	4.98	9.22
26/01/2020 17:59:26	26012020	260120	175926	97.280	12.194653	-56.155733	97.310	0.400	0.040	-1.760	97.280	-1.400	-1.300																			1580061566.0	5.26	9.74
26/01/2020 17:59:27	26012020	260120	175927	97.370	12.194653	-56.155710	97.390	0.330	-0.080	-1.780	97.370	-1.500	-1.500																			1580061567.0	5.11	9.46
26/01/2020 17:59:28	26012020	260120	175928	97.290	12.194650	-56.155687	97.320	0.090	-0.240	-1.230	97.290	-1.600	-1.000																			1580061568.0	4.77	8.83
26/01/2020 17:59:29	26012020	260120	175929	97.150	12.194643	-56.155665	97.180	-0.140	-0.440	-0.400	97.150	-1.800	-0.200																			1580061569.0	4.78	8.85
26/01/2020 17:59:30	26012020	260120	175930	97.080	12.194635	-56.155643	97.150	-0.260	-0.520	0.470	97.080	-1.900	0.700																			1580061570.0	4.94	9.15
26/01/2020 17:59:31	26012020	260120	175931	97.000	12.194627	-56.155622	97.100	-0.210	-0.520	1.310	97.000	-2.000	1.500																			1580061571.0	4.99	9.24
26/01/2020 17:59:32	26012020	260120	175932	96.850	12.194615	-56.155600	96.920	-0.040	-0.490	1.930	96.810	-1.900	2.200																			1580061572.0	5.04	9.33
26/01/2020 17:59:33	26012020	260120	175933	96.650	12.194607	-56.155578	96.740	0.100	-0.390	2.050	96.630	-1.800	2.400																			1580061573.0	5.10	9.45
26/01/2020 17:59:34	26012020	260120	175934	96.580	12.194600	-56.155555	96.710	0.130	-0.100	1.620	96.590	-1.600	2.100																			1580061574.0	5.02	9.30
26/01/2020 17:59:35	26012020	260120	175935	96.710	12.194597	-56.155533	96.860	0.020	0.340	0.820	96.750	-1.200	1.300																			1580061575.0	4.78	8.85
26/01/2020 17:59:36	26012020	260120	175936	97.000	12.194597	-56.155512	97.320	-0.080	0.440	-0.840	97.060	-0.800	0.400																			1580061576.0	4.48	8.30
26/01/2020 17:59:37	26012020	260120	175937	97.270	12.194597	-56.155492	97.290	0.090	-0.160	-1.280	97.270	-1.000	-0.400																			1580061577.0	4.48	8.30
26/01/2020 17:59:38	26012020	260120	175938	97.250	12.194597	-56.155468	97.110	0.220	-0.700	-1.210	97.250	-1.500	-0.900																			1580061578.0	4.86	9.00
26/01/2020 17:59:39	26012020	260120	175939	97.070	12.194595	-56.155443	96.980	0.170	-0.770	-0.820	97.070	-2.100	-0.900																			1580061579.0	5.25	9.72
26/01/2020 17:59:40	26012020	260120	175940	96.930	12.194590	-56.155420	96.940	-0.010	-0.400	-0.320	96.930	-2.200	-0.500																			1580061580.0	5.17	9.57
26/01/2020 17:59:41	26012020	260120	175941	96.900	12.194585	-56.155398	96.960	-0.160	0.040	0.210	96.900	-1.900	0.000																			1580061581.0	4.75	8.80
26/01/2020 17:59:42	26012020	260120	175942	96.900	12.194577	-56.155378	96.950	-0.190	0.280	0.700	96.900	-1.400	0.500																			1580061582.0	4.41	8.17
26/01/2020 17:59:43	26012020	260120	175943	96.880	12.194570	-56.155358	96.970	-0.110	0.190	0.930	96.880	-1.200	1.000																			1580061583.0	4.43	8.20
26/01/2020 17:59:44	26012020	260120	175944	96.910	12.194562	-56.155338	97.040	0.030	-0.140	0.870	96.920	-1.200	1.300																			1580061584.0	4.64	8.59
26/01/2020 17:59:45	26012020	260120	175945	96.970	12.194555	-56.155317	97.050	0.160	-0.450	0.730	96.980	-1.800	1.200																			1580061585.0	4.85	8.98
26/01/2020 17:59:46	26012020	260120	175946	96.990	12.194552	-56.155293	97.060	0.180	-0.520	0.570	96.990	-1.900	1.100																			1580061586.0	5.02	9.30
26/01/2020 17:59:47	26012020	260120	175947	96.990	12.194548	-56.155270	97.090	0.090	-0.370	0.420	97.000	-1.900	0.900																			1580061587.0	4.96	9.19
26/01/2020 17:59:48	26012020	260120	175948	97.020	12.194543	-56.155248	97.020	-0.100	-0.070	0.300	97.020	-1.800	0.800																			1580061588.0	4.73	8.76
26/01/2020 17:59:49	26012020	260120	175949	96.960	12.194540	-56.155227	96.870	-0.300	0.270	0.120	96.940	-1.500	0.700																			1580061589.0	4.54	8.41
26/01/2020 17:59:50	26012020	260120	175950	96.800	12.194535	-56.155207	96.830	-0.370	0.420	-0.190	96.800	-1.200	0.500																			1580061590.0	4.42	8.19
26/01/2020 17:59:51	26012020	260120	175951	96.780	12.194532	-56.155187	96.980	-0.220	0.210	-0.530	96.780	-1.000	0.200																			1580061591.0	4.31	7.98
26/01/2020 17:59:52	26012020	260120	175952	96.940	12.194528	-56.155165	97.210	0.110	-0.220	-0.760	96.940	-1.200	-0.100																			1580061592.0	4.40	8.15
26/01/2020 17:59:53	26012020	260120	175953	97.190	12.194525	-56.155143	97.330	0.420	-0.570	-0.810	97.190	-1.600	-0.400																			1580061593.0	4.72	8.74
26/01/2020 17:59:54	26012020	260120	175954	97.300	12.194522	-56.155120	97.220	0.530	-0.700	-0.550	97.300	-2.000	-0.500																			1580061594.0	4.92	9.11
26/01/2020 17:59:55	26012020	260120	175955	97.180	12.194518	-56.155098	96.910	0.400	-0.630	0.100	97.180	-2.100	-0.200																			1580061595.0	4.85	8.98
26/01/2020 17:59:56	26012020	260120	175956	96.860	12.194515	-56.155077	96.610	0.130	-0.390	0.800	96.860	-2.100	0.400																			1580061596.0	4.69	8.69
26/01/2020 17:59:57	26012020	260120	175957	96.600	12.194508	-56.155055	96.520	-0.210	-0.040	1.200	96.550	-1.800	1.100																			1580061597.0	4.63	8.57
26/01/2020 17:59:58	26012020	260120	175958	96.450	12.194500	-56.155035	96.650	-0.540	0.310	1.270	96.450	-1.500	1.500																			1580061598.0	4.59	8.50
26/01/2020 17:59:59	26012020	260120	175959	96.530	12.194493	-56.155015	96.810	-0.720	0.480	1.090	96.560	-1.000	1.500	1014.20	26.20	26.20	20.30	20.30	780.00	70.00	69.00	378.00	29.00	355.00	6.40	90.00	3.90	55758	3531.00	27.80	27.70	1580061599.0	4.47	8.28
26/01/2020 18:00:00	26012020	260120	180000	96.700	12.194488	-56.154995	96.920	-0.590	0.370	0.700	96.720	-0.900	1.500																			1580061600.0	4.38	8.11
26/01/2020 18:00:01	26012020	260120	180001	96.820	12.194482	-56.154975	96.980	-0.160	0.010	0.250	96.830	-1.000	1.100																			1580061601.0	4.42	8.19
26/01/2020 18:00:02	26012020	260120	180002	96.880	12.194478	-56.154953	97.060	0.340	-0.300	-0.250	96.890	-1.400	0.600																			1580061602.0	4.63	8.57
26/01/2020 18:00:03	26012020	260120	180003	97.000	12.194475	-56.154932	97.210	0.600	-0.340	-0.730	97.000	-1.700	0.100																			1580061603.0	4.81	8.91
26/01/2020 18:00:04	26012020	260120	180004	97.170	12.194472	-56.154908	97.290	0.540	-0.200	-0.960	97.170	-1.800	-0.300																			1580061604.0	4.73	8.76
26/01/2020 18:00:05	26012020	260120	180005	97.260	12.194472	-56.154888	97.190	0.340	-0.210	-0.840	97.260	-1.600	-0.600																			1580061605.0	4.35	8.06
26/01/2020 18:00:06	26012020	260120	180006	97.180	12.194470	-56.154868	96.900	0.190	-0.530	-0.460	97.140	-1.600	-0.500																			1580061606.0	4.10	7.59
26/01/2020 18:00:07	26012020	260120	180007	96.850	12.194468	-56.154848	96.600	0.110	-0.900	0.130	96.850	-1.900	-0.100																			1580061607.0	4.29	7.95
26/01/2020 18:00:08	26012020	260120	180008	96.590	12.194463	-56.154827	96.460	-0.040	-0.870	0.800	96.540	-2.300	0.500																			1580061608.0	4.75	8.80
26/01/2020 18:00:09	26012020	260120	180009	96.400	12.194457	-56.154805	96.510	-0.330	-0.330	1.270	96.380	-2.300	1.100																			1580061609.0	5.04	9.33
26/01/2020 18:00:10	26012020	260120	180010	96.420	12.194448	-56.154783	96.620	-0.650	0.410	1.440	96.420	-1.800	1.600																			1580061610.0	4.85	8.98
26/01/2020 18:00:11	26012020	260120	180011	96.500	12.194440	-56.154763	96.680	-0.750	0.960	1.320	96.530	-1.100	1.800																			1580061611.0	4.43	8.20
26/01/2020 18:00:12	26012020	260120	180012	96.580	12.194432	-56.154745	96.750	-0.560	1.070	0.850	96.580	-0.500	1.700																			1580061612.0	4.16	7.70
26/01/2020 18:00:13	26012020	260120	180013	96.630	12.194425	-56.154727	96.950	-0.130	0.630	0.030	96.650	-0.300	1.200																			1580061613.0	4.14	7.67
26/01/2020 18:00:14	26012020	260120	180014	96.820	12.194422	-56.154707	97.260	0.390	-0.190	-0.880	96.880	-0.800	0.400																			1580061614.0	4.28	7.93
26/01/2020 18:00:15	26012020	260120	180015	97.210	12.194422	-56.154685	97.480	0.780	-0.910	-1.490	97.210	-1.600	-0.500																			1580061615.0	4.65	8.61
26/01/2020 18:00:16	26012020	260120	180016	97.450	12.194423	-56.154662	97.480	0.830	-1.090	-1.520	97.450	-2.300	-1.100																			1580061616.0	4.97	9.20
26/01/2020 18:00:17	26012020	260120	180017	97.440	12.194423	-56.154638	97.290	0.510	-0.760	-0.970	97.440	-2.500	-1.200																			1580061617.0	4.82	8.93
26/01/2020 18:00:18	26012020	260120	180018	97.290	12.194422	-56.154618	96.990	0.030	-0.330	-0.040	97.240	-2.200	-0.700																			1580061618.0	4.27	7.91
26/01/2020 18:00:19	26012020	260120	180019	96.920	12.194417	-56.154602	96.670	-0.320	-0.210	0.950	96.920	-1.800	0.300																			1580061619.0	3.86	7.15
26/01/2020 18:00:20	26012020	260120	180020	96.580	12.194408	-56.154583	96.430	-0.370	-0.430	1.670	96.580	-1.600	1.300																			1580061620.0	4.04	7.48
26/01/2020 18:00:21	26012020	260120	180021	96.370	12.194400	-56.154565	96.350	-0.220	-0.600	1.960	96.330	-1.800	2.000																			1580061621.0	4.58	8.48
26/01/2020 18:00:22	26012020	260120	180022	96.240	12.194390	-56.154542	96.500	-0.150	-0.160	1.760	96.240	-2.000	2.300																			1580061622.0	5.09	9.43
26/01/2020 18:00:23	26012020	260120	180023	96.390	12.194382	-56.154520	96.810	-0.270	0.730	1.160	96.390	-1.100	1.800																			1580061623.0	5.10	9.45
26/01/2020 18:00:24	26012020	260120	180024	96.720	12.194377	-56.154500	97.130	-0.400	1.340	0.300	96.720	-0.700	1.500																			1580061624.0	4.35	8.06
26/01/2020 18:00:25	26012020	260120	180025	97.000	12.194375	-56.154483	97.410	-0.300	1.140	-0.660	97.060	-0.100	0.700																			1580061625.0	3.62	6.70
26/01/2020 18:00:26	26012020	260120	180026	97.360	12.194375	-56.154465	97.600	0.040	0.240	-1.410	97.360	-0.200	-0.200																			1580061626.0	3.64	6.74
26/01/2020 18:00:27	26012020	260120	180027	97.570	12.194375	-56.154445	97.590	0.410	-0.820	-1.650	97.570	-1.100	-1.000																			1580061627.0	4.25	7.87
26/01/2020 18:00:28	26012020	260120	180028	97.580	12.194375	-56.154423	97.360	0.610	-1.470	-1.360	97.550	-2.200	-1.300																			1580061628.0	4.76	8.82
26/01/2020 18:00:29	26012020	260120	180029	97.310	12.194373	-56.154400	97.030	0.530	-1.410	-0.660	97.310	-2.900	-1.000																			1580061629.0	4.83	8.95
26/01/2020 18:00:30	26012020	260120	180030	96.970	12.194370	-56.154378	96.740	0.240	-0.880	0.210	96.970	-2.900	-0.400																			1580061630.0	4.52	8.37
26/01/2020 18:00:31	26012020	260120	180031	96.650	12.194363	-56.154360	96.620	-0.100	-0.250	0.950	96.650	-2.300	0.500																			1580061631.0	4.10	7.59
26/01/2020 18:00:32	26012020	260120	180032	96.520	12.194357	-56.154343	96.690	-0.360	0.280	1.400	96.520	-1.700	1.300																			1580061632.0	4.00	7.41
26/01/2020 18:00:33	26012020	260120	180033	96.570	12.194347	-56.154327	96.910	-0.460	0.620	1.440	96.570	-1.200	1.700																			1580061633.0	4.16	7.70
26/01/2020 18:00:34	26012020	260120	180034	96.780	12.194338	-56.154308	97.120	-0.380	0.700	1.140	96.780	-0.800	1.800																			1580061634.0	4.26	7.89
26/01/2020 18:00:35	26012020	260120	180035	96.950	12.194332	-56.154288	97.260	-0.170	0.450	0.590	96.990	-0.800	1.200																			1580061635.0	4.27	7.91
26/01/2020 18:00:36	26012020	260120	180036	97.110	12.194328	-56.154268	97.340	0.090	-0.070	-0.040	97.140	-0.900	1.000																			1580061636.0	4.30	7.96
26/01/2020 18:00:37	26012020	260120	180037	97.240	12.194325	-56.154248	97.340	0.360	-0.560	-0.540	97.250	-1.500	0.400																			1580061637.0	4.42	8.19
26/01/2020 18:00:38	26012020	260120	180038	97.260	12.194325	-56.154227	97.240	0.510	-0.660	-0.830	97.260	-2.000	-0.100																			1580061638.0	4.60	8.52
26/01/2020 18:00:39	26012020	260120	180039	97.200	12.194323	-56.154205	97.140	0.420	-0.330	-0.900	97.170	-2.100	-0.400																			1580061639.0	4.55	8.43
26/01/2020 18:00:40	26012020	260120	180040	97.110	12.194323	-56.154185	97.100	0.100	0.060	-0.690	97.090	-1.800	-0.500																			1580061640.0	4.16	7.70
26/01/2020 18:00:41	26012020	260120	180041	97.060	12.194320	-56.154168	97.070	-0.240	0.190	-0.240	97.050	-1.400	-0.400																			1580061641.0	3.74	6.93
26/01/2020 18:00:42	26012020	260120	180042	97.010	12.194317	-56.154150	97.050	-0.410	0.020	0.270	97.000	-1.200	0.100																			1580061642.0	3.68	6.82
26/01/2020 18:00:43	26012020	260120	180043	96.960	12.194310	-56.154133	97.080	-0.360	-0.240	0.610	96.950	-1.400	0.600																			1580061643.0	4.04	7.48
26/01/2020 18:00:44	26012020	260120	180044	96.970	12.194303	-56.154113	97.170	-0.190	-0.420	0.790	96.980	-1.600	0.900																			1580061644.0	4.37	8.09
26/01/2020 18:00:45	26012020	260120	180045	97.060	12.194295	-56.154093	97.220	-0.040	-0.530	0.930	97.080	-1.800	1.100																			1580061645.0	4.43	8.20
26/01/2020 18:00:46	26012020	260120	180046	97.130	12.194290	-56.154075	97.060	0.060	-0.540	1.020	97.110	-1.900	1.300																			1580061646.0	4.36	8.07
26/01/2020 18:00:47	26012020	260120	180047	96.990	12.194283	-56.154055	96.780	0.060	-0.350	0.950	96.940	-1.900	1.400																			1580061647.0	4.33	8.02
26/01/2020 18:00:48	26012020	260120	180048	96.710	12.194278	-56.154035	96.590	-0.020	0.060	0.630	96.650	-1.800	1.300																			1580061648.0	4.30	7.96
26/01/2020 18:00:49	26012020	260120	180049	96.500	12.194273	-56.154017	96.610	-0.060	0.410	0.100	96.480	-1.100	0.700																			1580061649.0	4.12	7.63
26/01/2020 18:00:50	26012020	260120	180050	96.490	12.194272	-56.153998	96.760	0.050	0.430	-0.600	96.500	-1.000	0.500																			1580061650.0	3.85	7.13
26/01/2020 18:00:51	26012020	260120	180051	96.640	12.194270	-56.153980	96.990	0.260	0.180	-1.220	96.690	-1.000	-0.200																			1580061651.0	3.85	7.13
26/01/2020 18:00:52	26012020	260120	180052	96.940	12.194270	-56.153960	97.210	0.400	-0.070	-1.440	96.940	-1.200	-0.800																			1580061652.0	4.16	7.70
26/01/2020 18:00:53	26012020	260120	180053	97.150	12.194270	-56.153940	97.250	0.350	-0.200	-1.150	97.150	-1.500	-1.100																			1580061653.0	4.35	8.06
26/01/2020 18:00:54	26012020	260120	180054	97.180	12.194268	-56.153920	97.100	0.140	-0.280	-0.460	97.180	-1.600	-0.800																			1580061654.0	4.18	7.74
26/01/2020 18:00:55	26012020	260120	180055	97.060	12.194263	-56.153902	96.840	-0.090	-0.370	0.430	97.020	-1.700	-0.200																			1580061655.0	3.99	7.39
26/01/2020 18:00:56	26012020	260120	180056	96.800	12.194257	-56.153883	96.610	-0.270	-0.500	1.240	96.750	-1.800	0.700																			1580061656.0	4.00	7.41
26/01/2020 18:00:57	26012020	260120	180057	96.540	12.194248	-56.153867	96.500	-0.370	-0.630	1.790	96.500	-1.900	1.500																			1580061657.0	4.12	7.63
26/01/2020 18:00:58	26012020	260120	180058	96.370	12.194240	-56.153848	96.500	-0.380	-0.570	1.990	96.370	-2.000	2.100																			1580061658.0	4.29	7.95
26/01/2020 18:00:59	26012020	260120	180059	96.360	12.194232	-56.153828	96.500	-0.320	-0.210	1.770	96.370	-2.000	2.300	1014.20	26.20	26.30	20.30	20.40	779.00	70.00	70.00	378.00	29.10	358.00	6.20	93.00	4.00	55591	3721.00	27.80	27.80	1580061659.0	4.44	8.22
26/01/2020 18:01:00	26012020	260120	180100	96.390	12.194225	-56.153810	96.460	-0.170	0.270	1.160	96.390	-1.600	2.100																			1580061660.0	4.32	8.00
26/01/2020 18:01:01	26012020	260120	180101	96.370	12.194220	-56.153792	96.370	0.040	0.510	0.280	96.360	-1.200	1.500																			1580061661.0	3.94	7.30
26/01/2020 18:01:02	26012020	260120	180102	96.300	12.194217	-56.153775	96.310	0.260	0.330	-0.640	96.280	-0.900	0.700																			1580061662.0	3.71	6.87
26/01/2020 18:01:03	26012020	260120	180103	96.230	12.194218	-56.153757	96.400	0.390	-0.070	-1.490	96.230	-1.100	-0.200																			1580061663.0	3.93	7.28
26/01/2020 18:01:04	26012020	260120	180104	96.320	12.194220	-56.153735	96.620	0.380	-0.400	-2.020	96.360	-1.400	-1.100																			1580061664.0	4.32	8.00
26/01/2020 18:01:05	26012020	260120	180105	96.540	12.194223	-56.153715	96.720	0.210	-0.450	-1.930	96.580	-1.800	-1.600																			1580061665.0	4.47	8.28
26/01/2020 18:01:06	26012020	260120	180106	96.660	12.194223	-56.153695	96.650	-0.040	-0.180	-1.200	96.660	-1.900	-1.600																			1580061666.0	4.28	7.93
26/01/2020 18:01:07	26012020	260120	180107	96.590	12.194220	-56.153677	96.520	-0.290	0.170	-0.090	96.560	-1.600	-0.900																			1580061667.0	3.94	7.30
26/01/2020 18:01:08	26012020	260120	180108	96.440	12.194213	-56.153660	96.400	-0.380	0.220	1.030	96.410	-1.300	0.200																			1580061668.0	3.76	6.96
26/01/2020 18:01:09	26012020	260120	180109	96.290	12.194202	-56.153645	96.290	-0.220	-0.200	1.740	96.260	-1.200	1.300																			1580061669.0	3.93	7.28
26/01/2020 18:01:10	26012020	260120	180110	96.150	12.194192	-56.153628	96.260	0.120	-0.770	1.870	96.150	-1.600	2.100																			1580061670.0	4.27	7.91
26/01/2020 18:01:11	26012020	260120	180111	96.130	12.194182	-56.153608	96.300	0.400	-0.920	1.590	96.130	-2.100	2.200																			1580061671.0	4.55	8.43
26/01/2020 18:01:12	26012020	260120	180112	96.160	12.194177	-56.153588	96.300	0.390	-0.440	1.060	96.160	-2.300	2.000																			1580061672.0	4.61	8.54
26/01/2020 18:01:13	26012020	260120	180113	96.170	12.194175	-56.153568	96.230	0.100	0.250	0.430	96.170	-1.400	1.000																			1580061673.0	4.19	7.76
26/01/2020 18:01:14	26012020	260120	180114	96.110	12.194175	-56.153552	96.100	-0.260	0.560	-0.160	96.110	-1.200	0.800																			1580061674.0	3.59	6.65
26/01/2020 18:01:15	26012020	260120	180115	96.020	12.194175	-56.153535	96.030	-0.430	0.310	-0.600	95.990	-0.900	0.200																			1580061675.0	3.37	6.24
26/01/2020 18:01:16	26012020	260120	180116	95.930	12.194175	-56.153518	96.090	-0.340	-0.100	-0.930	95.930	-1.100	-0.200																			1580061676.0	3.69	6.83
26/01/2020 18:01:17	26012020	260120	180117	95.990	12.194172	-56.153498	96.250	-0.140	-0.220	-1.080	96.030	-1.500	-0.600																			1580061677.0	4.21	7.80
26/01/2020 18:01:18	26012020	260120	180118	96.180	12.194170	-56.153478	96.320	-0.010	-0.050	-1.000	96.180	-1.600	-0.700																			1580061678.0	4.36	8.07
26/01/2020 18:01:19	26012020	260120	180119	96.250	12.194165	-56.153458	96.310	0.010	0.100	-0.730	96.250	-1.500	-0.700																			1580061679.0	3.99	7.39
26/01/2020 18:01:20	26012020	260120	180120	96.240	12.194162	-56.153443	96.260	0.030	-0.020	-0.290	96.240	-1.300	-0.400																			1580061680.0	3.63	6.72
26/01/2020 18:01:21	26012020	260120	180121	96.190	12.194157	-56.153427	96.170	0.150	-0.430	0.220	96.170	-1.400	0.000																			1580061681.0	3.58	6.63
26/01/2020 18:01:22	26012020	260120	180122	96.070	12.194152	-56.153408	96.060	0.330	-0.900	0.710	96.070	-1.800	0.500																			1580061682.0	3.84	7.11
26/01/2020 18:01:23	26012020	260120	180123	95.980	12.194147	-56.153390	95.960	0.400	-0.980	1.150	95.950	-2.300	1.000																			1580061683.0	4.20	7.78
26/01/2020 18:01:24	26012020	260120	180124	95.830	12.194140	-56.153370	95.870	0.220	-0.460	1.460	95.830	-2.400	1.500																			1580061684.0	4.44	8.22
26/01/2020 18:01:25	26012020	260120	180125	95.750	12.194135	-56.153350	95.770	-0.120	0.350	1.490	95.730	-1.400	1.900																			1580061685.0	4.23	7.83
26/01/2020 18:01:26	26012020	260120	180126	95.650	12.194128	-56.153333	95.730	-0.350	0.870	1.090	95.640	-1.100	1.800																			1580061686.0	3.70	6.85
26/01/2020 18:01:27	26012020	260120	180127	95.610	12.194123	-56.153318	95.890	-0.330	0.750	0.320	95.620	-0.600	1.500																			1580061687.0	3.34	6.19
26/01/2020 18:01:28	26012020	260120	180128	95.800	12.194122	-56.153303	96.160	-0.090	0.170	-0.520	95.800	-0.600	0.700																			1580061688.0	3.46	6.41
26/01/2020 18:01:29	26012020	260120	180129	96.040	12.194122	-56.153283	96.390	0.150	-0.410	-1.160	96.100	-1.200	-0.100																			1580061689.0	3.98	7.37
26/01/2020 18:01:30	26012020	260120	180130	96.310	12.194122	-56.153263	96.380	0.210	-0.630	-1.330	96.350	-1.800	-0.800																			1580061690.0	4.38	8.11
26/01/2020 18:01:31	26012020	260120	180131	96.370	12.194122	-56.153243	96.140	0.040	-0.470	-0.990	96.340	-2.000	-1.000																			1580061691.0	4.28	7.93
26/01/2020 18:01:32	26012020	260120	180132	96.140	12.194120	-56.153225	95.900	-0.240	-0.170	-0.370	96.080	-1.900	-0.700																			1580061692.0	3.87	7.17
26/01/2020 18:01:33	26012020	260120	180133	95.870	12.194115	-56.153208	95.820	-0.390	-0.090	0.260	95.830	-1.600	-0.100																			1580061693.0	3.54	6.56
26/01/2020 18:01:34	26012020	260120	180134	95.740	12.194110	-56.153193	95.860	-0.280	-0.330	0.710	95.730	-1.500	0.600																			1580061694.0	3.50	6.48
26/01/2020 18:01:35	26012020	260120	180135	95.740	12.194102	-56.153177	95.910	0.030	-0.620	0.930	95.750	-1.700	1.000																			1580061695.0	3.79	7.02
26/01/2020 18:01:36	26012020	260120	180136	95.800	12.194097	-56.153158	95.890	0.330	-0.580	1.040	95.800	-2.000	1.200																			1580061696.0	4.23	7.83
26/01/2020 18:01:37	26012020	260120	180137	95.780	12.194090	-56.153138	95.780	0.460	-0.160	1.010	95.770	-2.000	1.400																			1580061697.0	4.38	8.11
26/01/2020 18:01:38	26012020	260120	180138	95.680	12.194085	-56.153120	95.780	0.390	0.360	0.650	95.650	-1.600	1.400																			1580061698.0	4.10	7.59
26/01/2020 18:01:39	26012020	260120	180139	95.640	12.194082	-56.153103	95.990	0.200	0.640	0.040	95.660	-0.900	0.600																			1580061699.0	3.68	6.82
26/01/2020 18:01:40	26012020	260120	180140	95.830	12.194080	-56.153087	96.230	-0.020	0.550	-0.470	95.880	-0.800	0.400																			1580061700.0	3.49	6.46
26/01/2020 18:01:41	26012020	260120	180141	96.090	12.194082	-56.153068	96.270	-0.190	0.230	-0.700	96.130	-0.800	-0.100																			1580061701.0	3.63	6.72
26/01/2020 18:01:42	26012020	260120	180142	96.190	12.194082	-56.153052	96.170	-0.250	-0.140	-0.640	96.190	-1.200	-0.400																			1580061702.0	3.81	7.06
26/01/2020 18:01:43	26012020	260120	180143	96.110	12.194078	-56.153033	96.050	-0.210	-0.490	-0.400	96.080	-1.500	-0.300																			1580061703.0	3.89	7.20
26/01/2020 18:01:44	26012020	260120	180144	95.960	12.194075	-56.153015	95.970	-0.070	-0.790	-0.040	95.960	-1.900	-0.100																			1580061704.0	3.86	7.15
26/01/2020 18:01:45	26012020	260120	180145	95.890	12.194070	-56.152997	95.920	0.050	-0.910	0.320	95.880	-2.200	0.300																			1580061705.0	3.91	7.24
26/01/2020 18:01:46	26012020	260120	180146	95.830	12.194063	-56.152980	95.920	0.040	-0.640	0.560	95.830	-2.300	0.600																			1580061706.0	4.04	7.48
26/01/2020 18:01:47	26012020	260120	180147	95.810	12.194058	-56.152962	95.910	-0.100	-0.090	0.690	95.810	-2.100	0.900																			1580061707.0	4.00	7.41
26/01/2020 18:01:48	26012020	260120	180148	95.800	12.194053	-56.152945	95.850	-0.220	0.330	0.700	95.800	-1.500	1.000																			1580061708.0	3.70	6.85
26/01/2020 18:01:49	26012020	260120	180149	95.750	12.194048	-56.152928	95.800	-0.160	0.300	0.530	95.740	-1.100	1.000																			1580061709.0	3.42	6.33
26/01/2020 18:01:50	26012020	260120	180150	95.700	12.194045	-56.152913	95.800	0.080	-0.030	0.200	95.690	-1.100	0.900																			1580061710.0	3.55	6.57
26/01/2020 18:01:51	26012020	260120	180151	95.690	12.194042	-56.152895	95.790	0.330	-0.230	-0.150	95.690	-1.400	0.600																			1580061711.0	3.99	7.39
26/01/2020 18:01:52	26012020	260120	180152	95.690	12.194038	-56.152873	95.860	0.390	-0.050	-0.560	95.690	-1.600	0.200																			1580061712.0	4.30	7.96
26/01/2020 18:01:53	26012020	260120	180153	95.760	12.194037	-56.152855	96.080	0.230	0.360	-0.920	95.780	-1.500	-0.200																			1580061713.0	4.12	7.63
26/01/2020 18:01:54	26012020	260120	180154	95.970	12.194037	-56.152837	96.280	0.020	0.540	-1.000	96.020	-1.100	-0.600																			1580061714.0	3.62	6.70
26/01/2020 18:01:55	26012020	260120	180155	96.220	12.194037	-56.152822	96.350	-0.080	0.130	-0.700	96.220	-0.900	-0.700																			1580061715.0	3.19	5.91
26/01/2020 18:01:56	26012020	260120	180156	96.300	12.194035	-56.152807	96.280	-0.030	-0.710	-0.070	96.300	-1.200	-0.400																			1580061716.0	3.26	6.04
26/01/2020 18:01:57	26012020	260120	180157	96.240	12.194030	-56.152790	96.080	-0.000	-1.280	0.710	96.210	-2.100	0.200																			1580061717.0	3.87	7.17
26/01/2020 18:01:58	26012020	260120	180158	95.980	12.194023	-56.152770	95.870	-0.120	-1.040	1.380	95.980	-2.700	1.000																			1580061718.0	4.50	8.33
26/01/2020 18:01:59	26012020	260120	180159	95.780	12.194015	-56.152750	95.700	-0.330	-0.270	1.710	95.740	-2.500	1.700	1014.20	26.20	26.30	20.10	20.20	777.00	69.00	69.00	378.00	29.10	359.00	5.70	94.00	3.60	55390	3668.00	27.90	27.80	1580061719.0	4.48	8.30
26/01/2020 18:02:00	26012020	260120	180200	95.540	12.194007	-56.152733	95.590	-0.390	0.340	1.590	95.540	-1.700	2.000																			1580061720.0	3.79	7.02
26/01/2020 18:02:01	26012020	260120	180201	95.460	12.194002	-56.152720	95.690	-0.200	0.440	0.980	95.450	-1.100	1.900																			1580061721.0	3.24	6.00
26/01/2020 18:02:02	26012020	260120	180202	95.530	12.193997	-56.152705	95.910	0.090	0.290	0.080	95.570	-1.000	1.400																			1580061722.0	3.35	6.20
26/01/2020 18:02:03	26012020	260120	180203	95.760	12.193997	-56.152687	96.060	0.240	0.180	-0.760	95.810	-1.100	0.500																			1580061723.0	3.88	7.19
26/01/2020 18:02:04	26012020	260120	180204	95.980	12.193997	-56.152667	96.120	0.230	0.090	-1.310	95.980	-1.300	-0.400																			1580061724.0	4.08	7.56
26/01/2020 18:02:05	26012020	260120	180205	96.050	12.193997	-56.152648	96.110	0.200	-0.100	-1.510	96.060	-1.300	-0.900																			1580061725.0	3.87	7.17
26/01/2020 18:02:06	26012020	260120	180206	96.070	12.193997	-56.152632	96.050	0.220	-0.350	-1.350	96.070	-1.500	-1.200																			1580061726.0	3.66	6.78
26/01/2020 18:02:07	26012020	260120	180207	96.010	12.193997	-56.152613	96.000	0.210	-0.470	-0.890	95.990	-1.800	-1.000																			1580061727.0	3.68	6.82
26/01/2020 18:02:08	26012020	260120	180208	95.950	12.193993	-56.152597	96.010	0.100	-0.420	-0.240	95.950	-1.900	-0.600																			1580061728.0	3.75	6.95
26/01/2020 18:02:09	26012020	260120	180209	95.940	12.193988	-56.152580	95.950	-0.080	-0.320	0.490	95.940	-1.900	0.100																			1580061729.0	3.71	6.87
26/01/2020 18:02:10	26012020	260120	180210	95.870	12.193983	-56.152563	95.850	-0.220	-0.220	1.160	95.870	-1.800	0.800																			1580061730.0	3.70	6.85
26/01/2020 18:02:11	26012020	260120	180211	95.760	12.193975	-56.152547	95.800	-0.250	-0.100	1.550	95.740	-1.700	1.500																			1580061731.0	3.81	7.06
26/01/2020 18:02:12	26012020	260120	180212	95.680	12.193967	-56.152530	95.880	-0.190	0.040	1.520	95.680	-1.500	1.900																			1580061732.0	3.92	7.26
26/01/2020 18:02:13	26012020	260120	180213	95.740	12.193960	-56.152513	95.970	-0.070	0.050	1.150	95.760	-1.400	1.900																			1580061733.0	3.84	7.11
26/01/2020 18:02:14	26012020	260120	180214	95.850	12.193957	-56.152497	95.960	0.050	-0.050	0.590	95.870	-1.400	1.500																			1580061734.0	3.70	6.85
26/01/2020 18:02:15	26012020	260120	180215	95.890	12.193953	-56.152478	95.890	0.060	-0.050	0.010	95.890	-1.500	0.600																			1580061735.0	3.77	6.98
26/01/2020 18:02:16	26012020	260120	180216	95.820	12.193953	-56.152460	95.850	-0.030	0.050	-0.550	95.820	-1.500	0.400																			1580061736.0	3.87	7.17
26/01/2020 18:02:17	26012020	260120	180217	95.800	12.193953	-56.152443	95.930	-0.100	0.040	-1.030	95.810	-1.400	-0.200																			1580061737.0	3.68	6.82
26/01/2020 18:02:18	26012020	260120	180218	95.890	12.193952	-56.152427	96.020	-0.020	-0.120	-1.220	95.890	-1.400	-0.700																			1580061738.0	3.50	6.48
26/01/2020 18:02:19	26012020	260120	180219	95.970	12.193952	-56.152410	96.050	0.140	-0.340	-1.100	95.990	-1.500	-0.900																			1580061739.0	3.55	6.57
26/01/2020 18:02:20	26012020	260120	180220	96.010	12.193950	-56.152393	96.040	0.270	-0.500	-0.790	96.010	-1.800	-0.800																			1580061740.0	3.75	6.95
26/01/2020 18:02:21	26012020	260120	180221	95.990	12.193945	-56.152375	95.990	0.270	-0.460	-0.310	95.990	-1.900	-0.500																			1580061741.0	3.88	7.19
26/01/2020 18:02:22	26012020	260120	180222	95.930	12.193940	-56.152357	95.910	0.150	-0.140	0.300	95.910	-1.900	-0.000																			1580061742.0	3.90	7.22
26/01/2020 18:02:23	26012020	260120	180223	95.830	12.193935	-56.152340	95.930	-0.010	0.170	0.740	95.820	-1.600	0.600																			1580061743.0	3.75	6.95
26/01/2020 18:02:24	26012020	260120	180224	95.820	12.193930	-56.152325	96.040	-0.090	0.170	0.920	95.820	-1.300	1.000																			1580061744.0	3.51	6.50
26/01/2020 18:02:25	26012020	260120	180225	95.910	12.193925	-56.152308	96.090	-0.140	-0.090	0.960	95.930	-1.300	1.200																			1580061745.0	3.49	6.46
26/01/2020 18:02:26	26012020	260120	180226	95.980	12.193920	-56.152292	96.050	-0.220	-0.260	0.920	95.980	-1.500	1.300																			1580061746.0	3.80	7.04
26/01/2020 18:02:27	26012020	260120	180227	95.960	12.193915	-56.152273	96.020	-0.310	-0.160	0.770	95.940	-1.700	1.300																			1580061747.0	4.04	7.48
26/01/2020 18:02:28	26012020	260120	180228	95.920	12.193912	-56.152255	96.030	-0.310	0.020	0.470	95.910	-1.600	1.100																			1580061748.0	3.88	7.19
26/01/2020 18:02:29	26012020	260120	180229	95.920	12.193908	-56.152238	95.950	-0.120	-0.060	0.110	95.920	-1.400	0.600																			1580061749.0	3.51	6.50
26/01/2020 18:02:30	26012020	260120	180230	95.880	12.193905	-56.152223	95.810	0.180	-0.370	-0.240	95.860	-1.500	0.500																			1580061750.0	3.39	6.28
26/01/2020 18:02:31	26012020	260120	180231	95.750	12.193903	-56.152205	95.790	0.370	-0.480	-0.590	95.730	-1.800	0.100																			1580061751.0	3.75	6.95
26/01/2020 18:02:32	26012020	260120	180232	95.710	12.193902	-56.152187	95.950	0.340	-0.110	-0.940	95.710	-1.900	-0.200																			1580061752.0	4.10	7.59
26/01/2020 18:02:33	26012020	260120	180233	95.840	12.193900	-56.152168	96.170	0.210	0.350	-1.140	95.890	-1.600	-0.600																			1580061753.0	3.89	7.20
26/01/2020 18:02:34	26012020	260120	180234	96.070	12.193898	-56.152152	96.310	0.130	0.350	-1.040	96.110	-1.100	-0.800																			1580061754.0	3.31	6.13
26/01/2020 18:02:35	26012020	260120	180235	96.220	12.193898	-56.152138	96.350	0.130	-0.100	-0.600	96.250	-1.100	-0.700																			1580061755.0	3.13	5.80
26/01/2020 18:02:36	26012020	260120	180236	96.280	12.193895	-56.152120	96.280	0.050	-0.500	0.130	96.280	-1.500	-0.300																			1580061756.0	3.59	6.65
26/01/2020 18:02:37	26012020	260120	180237	96.220	12.193890	-56.152102	96.120	-0.190	-0.490	0.910	96.200	-1.900	0.400																			1580061757.0	4.14	7.67
26/01/2020 18:02:38	26012020	260120	180238	96.000	12.193882	-56.152083	95.880	-0.440	-0.260	1.490	96.000	-1.900	1.200																			1580061758.0	4.18	7.74
26/01/2020 18:02:39	26012020	260120	180239	95.790	12.193873	-56.152068	95.690	-0.470	-0.170	1.680	95.740	-1.700	1.800																			1580061759.0	3.79	7.02
26/01/2020 18:02:40	26012020	260120	180240	95.580	12.193867	-56.152053	95.750	-0.230	-0.280	1.390	95.560	-1.600	2.000																			1580061760.0	3.54	6.56
26/01/2020 18:02:41	26012020	260120	180241	95.600	12.193862	-56.152037	95.950	0.040	-0.260	0.790	95.630	-1.700	1.800																			1580061761.0	3.68	6.82
26/01/2020 18:02:42	26012020	260120	180242	95.800	12.193858	-56.152018	96.110	0.120	0.030	0.110	95.840	-1.700	1.200																			1580061762.0	3.94	7.30
26/01/2020 18:02:43	26012020	260120	180243	95.980	12.193858	-56.152000	96.190	0.050	0.320	-0.490	96.000	-1.400	0.500																			1580061763.0	3.84	7.11
26/01/2020 18:02:44	26012020	260120	180244	96.080	12.193857	-56.151983	96.210	0.060	0.270	-0.890	96.090	-1.100	-0.100																			1580061764.0	3.49	6.46
26/01/2020 18:02:45	26012020	260120	180245	96.130	12.193857	-56.151967	96.170	0.270	-0.080	-1.070	96.130	-1.100	-0.500																			1580061765.0	3.39	6.28
26/01/2020 18:02:46	26012020	260120	180246	96.110	12.193855	-56.151950	96.180	0.530	-0.340	-1.130	96.110	-1.500	-0.700																			1580061766.0	3.69	6.83
26/01/2020 18:02:47	26012020	260120	180247	96.110	12.193853	-56.151932	96.210	0.570	-0.260	-0.990	96.110	-1.800	-0.800																			1580061767.0	3.98	7.37
26/01/2020 18:02:48	26012020	260120	180248	96.150	12.193850	-56.151913	96.240	0.290	-0.010	-0.570	96.160	-1.700	-0.700																			1580061768.0	3.87	7.17
26/01/2020 18:02:49	26012020	260120	180249	96.170	12.193848	-56.151897	96.180	-0.160	0.060	0.040	96.170	-1.400	-0.300																			1580061769.0	3.46	6.41
26/01/2020 18:02:50	26012020	260120	180250	96.130	12.193845	-56.151882	96.140	-0.500	-0.170	0.710	96.110	-1.400	0.400																			1580061770.0	3.27	6.06
26/01/2020 18:02:51	26012020	260120	180251	96.050	12.193838	-56.151867	96.100	-0.550	-0.520	1.280	96.040	-1.600	1.000																			1580061771.0	3.51	6.50
26/01/2020 18:02:52	26012020	260120	180252	95.990	12.193832	-56.151848	96.040	-0.380	-0.730	1.670	95.970	-1.900	1.600																			1580061772.0	3.93	7.28
26/01/2020 18:02:53	26012020	260120	180253	95.910	12.193823	-56.151832	95.980	-0.170	-0.610	1.760	95.890	-2.100	2.100																			1580061773.0	4.18	7.74
26/01/2020 18:02:54	26012020	260120	180254	95.850	12.193817	-56.151813	95.960	-0.040	-0.170	1.460	95.830	-2.100	2.100																			1580061774.0	4.17	7.72
26/01/2020 18:02:55	26012020	260120	180255	95.820	12.193810	-56.151795	95.960	0.020	0.290	0.730	95.820	-1.600	1.800																			1580061775.0	3.89	7.20
26/01/2020 18:02:56	26012020	260120	180256	95.850	12.193807	-56.151780	96.030	0.090	0.500	-0.220	95.850	-1.200	1.100																			1580061776.0	3.50	6.48
26/01/2020 18:02:57	26012020	260120	180257	95.920	12.193805	-56.151763	96.140	0.190	0.410	-1.090	95.940	-0.900	0.200																			1580061777.0	3.43	6.35
26/01/2020 18:02:58	26012020	260120	180258	96.040	12.193807	-56.151747	96.230	0.270	0.160	-1.710	96.060	-1.000	-0.700																			1580061778.0	3.67	6.80
26/01/2020 18:02:59	26012020	260120	180259	96.160	12.193810	-56.151728	96.350	0.280	-0.090	-1.950	96.180	-1.300	-1.300	1014.20	26.20	26.30	20.30	20.40	774.00	70.00	69.00	379.00	29.20	356.00	6.50	90.00	4.50	55094	3383.00	27.80	27.80	1580061779.0	3.87	7.17
26/01/2020 18:03:00	26012020	260120	180300	96.310	12.193810	-56.151710	96.470	0.230	-0.260	-1.730	96.310	-1.500	-1.600																			1580061780.0	3.85	7.13
26/01/2020 18:03:01	26012020	260120	180301	96.400	12.193810	-56.151692	96.440	0.120	-0.390	-1.000	96.420	-1.700	-1.400																			1580061781.0	3.70	6.85
26/01/2020 18:03:02	26012020	260120	180302	96.380	12.193807	-56.151675	96.330	-0.000	-0.440	0.050	96.380	-1.800	-0.700																			1580061782.0	3.61	6.69
26/01/2020 18:03:03	26012020	260120	180303	96.260	12.193800	-56.151658	96.200	-0.120	-0.430	1.060	96.240	-1.900	0.300																			1580061783.0	3.73	6.91
26/01/2020 18:03:04	26012020	260120	180304	96.120	12.193790	-56.151643	96.060	-0.140	-0.440	1.750	96.090	-1.900	1.300																			1580061784.0	3.92	7.26
26/01/2020 18:03:05	26012020	260120	180305	95.970	12.193780	-56.151627	95.950	-0.060	-0.450	1.980	95.940	-1.900	2.300																			1580061785.0	3.96	7.33
26/01/2020 18:03:06	26012020	260120	180306	95.830	12.193773	-56.151610	95.890	0.040	-0.360	1.830	95.810	-1.900	2.300																			1580061786.0	3.94	7.30
26/01/2020 18:03:07	26012020	260120	180307	95.750	12.193768	-56.151592	95.930	0.010	-0.080	1.270	95.740	-1.800	2.200																			1580061787.0	3.96	7.33
26/01/2020 18:03:08	26012020	260120	180308	95.770	12.193765	-56.151575	96.110	-0.170	0.320	0.400	95.800	-1.500	1.700																			1580061788.0	3.87	7.17
26/01/2020 18:03:09	26012020	260120	180309	95.950	12.193763	-56.151557	96.350	-0.400	0.620	-0.470	96.000	-1.100	0.800																			1580061789.0	3.67	6.80
26/01/2020 18:03:10	26012020	260120	180310	96.260	12.193763	-56.151540	96.480	-0.490	0.600	-1.100	96.260	-0.800	-0.100																			1580061790.0	3.47	6.43
26/01/2020 18:03:11	26012020	260120	180311	96.400	12.193763	-56.151525	96.490	-0.290	0.140	-1.400	96.420	-0.800	-0.700																			1580061791.0	3.37	6.24
26/01/2020 18:03:12	26012020	260120	180312	96.430	12.193763	-56.151508	96.380	0.110	-0.580	-1.340	96.430	-1.300	-1.000																			1580061792.0	3.53	6.54
26/01/2020 18:03:13	26012020	260120	180313	96.350	12.193760	-56.151490	96.220	0.470	-1.100	-0.980	96.320	-2.000	-1.000																			1580061793.0	3.92	7.26
26/01/2020 18:03:14	26012020	260120	180314	96.170	12.193757	-56.151470	96.090	0.570	-0.950	-0.450	96.170	-2.500	-0.700																			1580061794.0	4.24	7.85
26/01/2020 18:03:15	26012020	260120	180315	96.050	12.193752	-56.151450	96.060	0.340	-0.090	0.060	96.020	-2.400	-0.100																			1580061795.0	4.22	7.82
26/01/2020 18:03:16	26012020	260120	180316	95.960	12.193747	-56.151433	96.140	-0.020	0.760	0.400	95.960	-1.600	0.400																			1580061796.0	3.69	6.83
26/01/2020 18:03:17	26012020	260120	180317	96.030	12.193742	-56.151422	96.310	-0.190	0.830	0.560	96.050	-0.500	0.800																			1580061797.0	2.98	5.52
26/01/2020 18:03:18	26012020	260120	180318	96.180	12.193737	-56.151408	96.390	-0.070	0.080	0.620	96.210	-0.600	0.900																			1580061798.0	2.88	5.33
26/01/2020 18:03:19	26012020	260120	180319	96.280	12.193732	-56.151392	96.420	0.090	-0.710	0.650	96.300	-1.900	1.000																			1580061799.0	3.61	6.69
26/01/2020 18:03:20	26012020	260120	180320	96.330	12.193728	-56.151372	96.410	0.080	-0.890	0.690	96.330	-2.100	1.000																			1580061800.0	4.40	8.15
26/01/2020 18:03:21	26012020	260120	180321	96.320	12.193723	-56.151352	96.310	-0.100	-0.590	0.770	96.310	-2.300	1.000																			1580061801.0	4.41	8.17
26/01/2020 18:03:22	26012020	260120	180322	96.200	12.193720	-56.151333	96.160	-0.220	-0.280	0.750	96.200	-2.000	1.100																			1580061802.0	3.78	7.00
26/01/2020 18:03:23	26012020	260120	180323	96.080	12.193715	-56.151318	96.050	-0.210	-0.120	0.550	96.050	-1.700	1.100																			1580061803.0	3.39	6.28
26/01/2020 18:03:24	26012020	260120	180324	95.950	12.193712	-56.151302	96.050	-0.180	0.050	0.220	95.950	-1.500	0.900																			1580061804.0	3.55	6.57
26/01/2020 18:03:25	26012020	260120	180325	95.960	12.193707	-56.151285	96.140	-0.220	0.340	-0.160	95.980	-1.400	0.600																			1580061805.0	3.82	7.07
26/01/2020 18:03:26	26012020	260120	180326	96.060	12.193703	-56.151267	96.200	-0.240	0.590	-0.510	96.080	-1.100	0.200																			1580061806.0	3.79	7.02
26/01/2020 18:03:27	26012020	260120	180327	96.130	12.193702	-56.151250	96.220	-0.140	0.570	-0.840	96.140	-0.800	-0.100																			1580061807.0	3.56	6.59
26/01/2020 18:03:28	26012020	260120	180328	96.190	12.193698	-56.151233	96.290	0.120	0.130	-1.070	96.190	-0.800	-0.500																			1580061808.0	3.44	6.37
26/01/2020 18:03:29	26012020	260120	180329	96.250	12.193697	-56.151217	96.360	0.440	-0.620	-1.090	96.260	-1.300	-0.700																			1580061809.0	3.53	6.54
26/01/2020 18:03:30	26012020	260120	180330	96.330	12.193697	-56.151198	96.410	0.660	-1.180	-0.830	96.330	-2.000	-0.800																			1580061810.0	3.91	7.24
26/01/2020 18:03:31	26012020	260120	180331	96.360	12.193693	-56.151178	96.370	0.600	-1.030	-0.250	96.360	-2.600	-0.500																			1580061811.0	4.25	7.87
26/01/2020 18:03:32	26012020	260120	180332	96.330	12.193690	-56.151160	96.260	0.230	-0.280	0.500	96.320	-2.500	0.100																			1580061812.0	4.20	7.78
26/01/2020 18:03:33	26012020	260120	180333	96.220	12.193685	-56.151143	96.210	-0.010	0.130	0.850	96.190	-1.700	0.800																			1580061813.0	3.70	6.85
26/01/2020 18:03:34	26012020	260120	180334	96.080	12.193677	-56.151130	96.150	-0.300	0.480	1.200	96.060	-1.000	1.400																			1580061814.0	3.28	6.07
26/01/2020 18:03:35	26012020	260120	180335	96.000	12.193670	-56.151115	96.090	-0.620	0.580	1.530	96.000	-0.800	1.800																			1580061815.0	3.38	6.26
26/01/2020 18:03:36	26012020	260120	180336	95.990	12.193662	-56.151098	96.090	-0.630	0.200	1.480	95.990	-1.100	1.800																			1580061816.0	3.84	7.11
26/01/2020 18:03:37	26012020	260120	180337	96.020	12.193657	-56.151080	96.110	-0.390	-0.250	1.110	96.020	-1.600	1.500																			1580061817.0	4.21	7.80
26/01/2020 18:03:38	26012020	260120	180338	96.060	12.193653	-56.151060	96.130	-0.090	-0.470	0.540	96.070	-1.900	1.000																			1580061818.0	4.22	7.82
26/01/2020 18:03:39	26012020	260120	180339	96.090	12.193652	-56.151042	96.150	0.120	-0.360	-0.090	96.090	-1.800	0.300																			1580061819.0	3.98	7.37
26/01/2020 18:03:40	26012020	260120	180340	96.090	12.193652	-56.151023	96.130	0.210	-0.120	-0.680	96.090	-1.600	-0.300																			1580061820.0	3.66	6.78
26/01/2020 18:03:41	26012020	260120	180341	96.050	12.193652	-56.151007	96.100	0.260	-0.030	-1.060	96.050	-1.400	-0.700																			1580061821.0	3.53	6.54
26/01/2020 18:03:42	26012020	260120	180342	96.010	12.193650	-56.150990	96.050	0.250	-0.080	-1.130	96.000	-1.500	-0.800																			1580061822.0	3.69	6.83
26/01/2020 18:03:43	26012020	260120	180343	95.960	12.193648	-56.150972	96.000	0.140	-0.100	-0.870	95.940	-1.500	-0.600																			1580061823.0	3.87	7.17
26/01/2020 18:03:44	26012020	260120	180344	95.920	12.193645	-56.150953	95.980	-0.010	-0.040	-0.470	95.920	-1.500	-0.200																			1580061824.0	3.85	7.13
26/01/2020 18:03:45	26012020	260120	180345	95.940	12.193638	-56.150937	96.020	-0.090	0.010	-0.030	95.950	-1.400	0.200																			1580061825.0	3.79	7.02
26/01/2020 18:03:46	26012020	260120	180346	96.010	12.193632	-56.150920	96.110	-0.040	-0.010	0.390	96.020	-1.400	0.700																			1580061826.0	3.82	7.07
26/01/2020 18:03:47	26012020	260120	180347	96.050	12.193625	-56.150903	96.120	0.070	-0.090	0.750	96.050	-1.500	1.000																			1580061827.0	3.90	7.22
26/01/2020 18:03:48	26012020	260120	180348	96.000	12.193618	-56.150887	96.080	0.140	-0.190	0.930	96.000	-1.600	1.300																			1580061828.0	3.91	7.24
26/01/2020 18:03:49	26012020	260120	180349	95.920	12.193613	-56.150868	95.980	0.140	-0.280	0.890	95.890	-1.700	1.200																			1580061829.0	3.87	7.17
26/01/2020 18:03:50	26012020	260120	180350	95.780	12.193612	-56.150850	95.840	0.080	-0.340	0.730	95.740	-1.700	1.100																			1580061830.0	3.82	7.07
26/01/2020 18:03:51	26012020	260120	180351	95.620	12.193610	-56.150832	95.700	-0.030	-0.400	0.500	95.600	-1.800	0.900																			1580061831.0	3.84	7.11
26/01/2020 18:03:52	26012020	260120	180352	95.540	12.193608	-56.150813	95.640	-0.180	-0.400	0.260	95.530	-1.800	0.600																			1580061832.0	3.92	7.26
26/01/2020 18:03:53	26012020	260120	180353	95.530	12.193605	-56.150795	95.630	-0.350	-0.230	0.110	95.540	-1.700	0.500																			1580061833.0	3.95	7.32
26/01/2020 18:03:54	26012020	260120	180354	95.620	12.193600	-56.150778	95.720	-0.460	0.140	-0.030	95.620	-1.300	0.300																			1580061834.0	3.87	7.17
26/01/2020 18:03:55	26012020	260120	180355	95.660	12.193595	-56.150762	95.760	-0.430	0.450	-0.220	95.670	-0.900	0.000																			1580061835.0	3.66	6.78
26/01/2020 18:03:56	26012020	260120	180356	95.670	12.193592	-56.150745	95.760	-0.210	0.440	-0.390	95.670	-0.900	-0.000																			1580061836.0	3.60	6.67
26/01/2020 18:03:57	26012020	260120	180357	95.690	12.193587	-56.150727	95.790	0.200	0.070	-0.520	95.690	-1.300	-0.200																			1580061837.0	3.80	7.04
26/01/2020 18:03:58	26012020	260120	180358	95.720	12.193583	-56.150708	95.810	0.660	-0.390	-0.650	95.730	-1.700	-0.300																			1580061838.0	4.09	7.57
26/01/2020 18:03:59	26012020	260120	180359	95.740	12.193582	-56.150688	95.790	0.910	-0.630	-0.750	95.720	-2.000	-0.400	1014.20	26.20	26.30	20.10	20.20	769.00	69.00	69.00	378.00	29.20	354.00	6.30	88.00	4.40	54867	3423.00	27.90	27.80	1580061839.0	4.19	7.76
26/01/2020 18:04:00	26012020	260120	180400	95.640	12.193582	-56.150670	95.710	0.820	-0.600	-0.610	95.640	-2.000	-0.300																			1580061840.0	4.02	7.45
26/01/2020 18:04:01	26012020	260120	180401	95.550	12.193580	-56.150652	95.610	0.430	-0.410	-0.180	95.540	-1.800	0.100																			1580061841.0	3.80	7.04
26/01/2020 18:04:02	26012020	260120	180402	95.440	12.193577	-56.150635	95.510	-0.120	-0.100	0.470	95.440	-1.600	0.700																			1580061842.0	3.74	6.93
26/01/2020 18:04:03	26012020	260120	180403	95.360	12.193570	-56.150618	95.430	-0.660	0.270	1.160	95.350	-1.200	1.400																			1580061843.0	3.80	7.04
26/01/2020 18:04:04	26012020	260120	180404	95.310	12.193562	-56.150602	95.410	-0.970	0.450	1.590	95.310	-0.900	1.900																			1580061844.0	3.81	7.06
26/01/2020 18:04:05	26012020	260120	180405	95.350	12.193553	-56.150585	95.480	-0.910	0.200	1.610	95.370	-1.100	2.000																			1580061845.0	3.89	7.20
26/01/2020 18:04:06	26012020	260120	180406	95.470	12.193547	-56.150567	95.630	-0.500	-0.340	1.270	95.500	-1.700	1.700																			1580061846.0	4.16	7.70
26/01/2020 18:04:07	26012020	260120	180407	95.610	12.193542	-56.150547	95.770	0.010	-0.700	0.700	95.630	-2.100	0.700																			1580061847.0	4.44	8.22
26/01/2020 18:04:08	26012020	260120	180408	95.650	12.193538	-56.150527	95.760	0.350	-0.540	0.060	95.630	-2.000	0.500																			1580061848.0	4.29	7.95
26/01/2020 18:04:09	26012020	260120	180409	95.550	12.193538	-56.150508	95.620	0.430	0.010	-0.630	95.530	-1.100	-0.600																			1580061849.0	3.79	7.02
26/01/2020 18:04:10	26012020	260120	180410	95.430	12.193538	-56.150493	95.490	0.380	0.440	-1.220	95.420	-1.000	-0.800																			1580061850.0	3.33	6.17
26/01/2020 18:04:11	26012020	260120	180411	95.380	12.193542	-56.150477	95.450	0.370	0.290	-1.570	95.380	-1.000	-1.200																			1580061851.0	3.39	6.28
26/01/2020 18:04:12	26012020	260120	180412	95.370	12.193542	-56.150458	95.440	0.450	-0.390	-1.590	95.370	-1.700	-1.300																			1580061852.0	3.92	7.26
26/01/2020 18:04:13	26012020	260120	180413	95.330	12.193540	-56.150437	95.390	0.470	-0.950	-1.190	95.320	-2.300	-0.900																			1580061853.0	4.53	8.39
26/01/2020 18:04:14	26012020	260120	180414	95.270	12.193537	-56.150417	95.370	0.280	-0.770	-0.400	95.260	-2.200	-0.200																			1580061854.0	4.60	8.52
26/01/2020 18:04:15	26012020	260120	180415	95.220	12.193528	-56.150398	95.330	-0.090	-0.010	0.540	95.210	-1.500	0.700																			1580061855.0	4.07	7.54
26/01/2020 18:04:16	26012020	260120	180416	95.220	12.193520	-56.150385	95.350	-0.480	0.690	1.310	95.220	-0.800	1.600																			1580061856.0	3.58	6.63
26/01/2020 18:04:17	26012020	260120	180417	95.280	12.193512	-56.150370	95.450	-0.730	0.810	1.670	95.300	-0.600	2.000																			1580061857.0	3.56	6.59
26/01/2020 18:04:18	26012020	260120	180418	95.410	12.193503	-56.150353	95.570	-0.720	0.370	1.560	95.430	-0.900	1.900																			1580061858.0	3.84	7.11
26/01/2020 18:04:19	26012020	260120	180419	95.500	12.193498	-56.150335	95.600	-0.420	-0.270	1.190	95.500	-1.600	1.600																			1580061859.0	4.16	7.70
26/01/2020 18:04:20	26012020	260120	180420	95.480	12.193495	-56.150315	95.540	0.040	-0.710	0.750	95.460	-2.100	1.200																			1580061860.0	4.30	7.96
26/01/2020 18:04:21	26012020	260120	180421	95.370	12.193493	-56.150295	95.410	0.430	-0.800	0.200	95.350	-2.200	0.600																			1580061861.0	4.15	7.69
26/01/2020 18:04:22	26012020	260120	180422	95.250	12.193493	-56.150277	95.280	0.590	-0.670	-0.460	95.230	-2.100	-0.000																			1580061862.0	3.90	7.22
26/01/2020 18:04:23	26012020	260120	180423	95.140	12.193493	-56.150258	95.160	0.540	-0.460	-0.970	95.130	-1.900	-0.600																			1580061863.0	3.83	7.09
26/01/2020 18:04:24	26012020	260120	180424	95.070	12.193495	-56.150240	95.120	0.350	-0.170	-1.110	95.060	-1.600	-0.800																			1580061864.0	3.86	7.15
26/01/2020 18:04:25	26012020	260120	180425	95.070	12.193495	-56.150222	95.130	0.050	0.220	-0.950	95.080	-1.200	-0.600																			1580061865.0	3.83	7.09
26/01/2020 18:04:26	26012020	260120	180426	95.130	12.193492	-56.150205	95.200	-0.240	0.520	-0.630	95.140	-0.900	-0.300																			1580061866.0	3.72	6.89
26/01/2020 18:04:27	26012020	260120	180427	95.240	12.193485	-56.150188	95.330	-0.400	0.490	-0.220	95.260	-0.900	0.100																			1580061867.0	3.78	7.00
26/01/2020 18:04:28	26012020	260120	180428	95.410	12.193478	-56.150170	95.470	-0.380	0.190	0.270	95.410	-1.200	0.500																			1580061868.0	4.08	7.56
26/01/2020 18:04:29	26012020	260120	180429	95.510	12.193470	-56.150152	95.610	-0.260	-0.090	0.710	95.530	-1.500	1.000																			1580061869.0	4.35	8.06
26/01/2020 18:04:30	26012020	260120	180430	95.580	12.193463	-56.150133	95.650	-0.110	-0.230	0.920	95.580	-1.600	1.200																			1580061870.0	4.20	7.78
26/01/2020 18:04:31	26012020	260120	180431	95.550	12.193458	-56.150115	95.610	0.030	-0.320	0.880	95.540	-1.700	1.200																			1580061871.0	3.86	7.15
26/01/2020 18:04:32	26012020	260120	180432	95.460	12.193455	-56.150098	95.490	0.190	-0.530	0.700	95.430	-1.900	1.100																			1580061872.0	3.71	6.87
26/01/2020 18:04:33	26012020	260120	180433	95.290	12.193453	-56.150080	95.310	0.350	-0.810	0.480	95.250	-2.200	0.900																			1580061873.0	3.93	7.28
26/01/2020 18:04:34	26012020	260120	180434	95.130	12.193452	-56.150060	95.170	0.430	-0.880	0.190	95.110	-2.300	0.600																			1580061874.0	4.21	7.80
26/01/2020 18:04:35	26012020	260120	180435	95.070	12.193452	-56.150040	95.130	0.340	-0.480	-0.070	95.070	-2.000	0.300																			1580061875.0	4.25	7.87
26/01/2020 18:04:36	26012020	260120	180436	95.070	12.193448	-56.150022	95.120	0.060	0.290	-0.230	95.070	-1.200	0.100																			1580061876.0	3.90	7.22
26/01/2020 18:04:37	26012020	260120	180437	95.090	12.193447	-56.150005	95.140	-0.300	0.930	-0.340	95.100	-0.500	0.000																			1580061877.0	3.46	6.41
26/01/2020 18:04:38	26012020	260120	180438	95.210	12.193443	-56.149990	95.310	-0.550	0.980	-0.420	95.260	-0.400	-0.100																			1580061878.0	3.42	6.33
26/01/2020 18:04:39	26012020	260120	180439	95.470	12.193440	-56.149972	95.580	-0.540	0.470	-0.440	95.520	-0.800	-0.100																			1580061879.0	3.81	7.06
26/01/2020 18:04:40	26012020	260120	180440	95.710	12.193435	-56.149952	95.810	-0.310	-0.250	-0.340	95.750	-1.500	-0.000																			1580061880.0	4.24	7.85
26/01/2020 18:04:41	26012020	260120	180441	95.810	12.193430	-56.149932	95.880	0.000	-0.840	-0.090	95.810	-2.100	0.200																			1580061881.0	4.41	8.17
26/01/2020 18:04:42	26012020	260120	180442	95.740	12.193425	-56.149913	95.770	0.250	-1.020	0.270	95.700	-2.400	0.600																			1580061882.0	4.33	8.02
26/01/2020 18:04:43	26012020	260120	180443	95.520	12.193418	-56.149895	95.550	0.330	-0.750	0.620	95.460	-2.200	0.900																			1580061883.0	4.05	7.50
26/01/2020 18:04:44	26012020	260120	180444	95.220	12.193413	-56.149877	95.260	0.280	-0.260	0.840	95.170	-1.700	1.200																			1580061884.0	3.70	6.85
26/01/2020 18:04:45	26012020	260120	180445	95.010	12.193410	-56.149862	95.080	0.210	0.050	0.770	94.990	-1.300	1.000																			1580061885.0	3.54	6.56
26/01/2020 18:04:46	26012020	260120	180446	95.000	12.193408	-56.149843	95.110	0.190	0.060	0.370	95.020	-1.300	0.800																			1580061886.0	3.79	7.02
26/01/2020 18:04:47	26012020	260120	180447	95.150	12.193408	-56.149823	95.270	0.150	-0.020	-0.160	95.190	-1.400	0.300																			1580061887.0	4.16	7.70
26/01/2020 18:04:48	26012020	260120	180448	95.350	12.193408	-56.149803	95.580	-0.090	0.120	-0.540	95.380	-1.400	-0.100																			1580061888.0	4.27	7.91
26/01/2020 18:04:49	26012020	260120	180449	95.520	12.193405	-56.149785	95.660	-0.290	0.270	-0.390	95.550	-1.200	-0.200																			1580061889.0	4.09	7.57
26/01/2020 18:04:50	26012020	260120	180450	95.630	12.193402	-56.149767	95.720	-0.430	0.270	-0.200	95.630	-1.100	-0.000																			1580061890.0	3.87	7.17
26/01/2020 18:04:51	26012020	260120	180451	95.660	12.193397	-56.149748	95.780	-0.420	0.040	0.000	95.670	-1.100	0.200																			1580061891.0	3.81	7.06
26/01/2020 18:04:52	26012020	260120	180452	95.710	12.193392	-56.149732	95.790	-0.260	-0.240	0.310	95.710	-1.400	0.400																			1580061892.0	3.92	7.26
26/01/2020 18:04:53	26012020	260120	180453	95.690	12.193385	-56.149713	95.720	0.010	-0.510	0.550	95.680	-1.600	0.700																			1580061893.0	4.06	7.52
26/01/2020 18:04:54	26012020	260120	180454	95.600	12.193380	-56.149695	95.560	0.330	-0.750	0.560	95.580	-1.900	0.900																			1580061894.0	4.10	7.59
26/01/2020 18:04:55	26012020	260120	180455	95.450	12.193375	-56.149675	95.340	0.560	-0.770	0.450	95.410	-2.100	0.900																			1580061895.0	4.13	7.65
26/01/2020 18:04:56	26012020	260120	180456	95.240	12.193372	-56.149657	95.240	0.550	-0.390	0.280	95.200	-2.100	0.800																			1580061896.0	4.22	7.82
26/01/2020 18:04:57	26012020	260120	180457	95.140	12.193370	-56.149637	95.390	0.270	0.170	-0.070	95.150	-1.400	0.400																			1580061897.0	4.10	7.59
26/01/2020 18:04:58	26012020	260120	180458	95.300	12.193370	-56.149618	95.690	-0.070	0.480	-0.420	95.360	-1.200	0.200																			1580061898.0	3.75	6.95
26/01/2020 18:04:59	26012020	260120	180459	95.610	12.193368	-56.149602	95.900	-0.250	0.380	-0.470	95.660	-0.900	-0.100	1014.20	26.20	26.30	20.20	20.30	769.00	69.00	69.00	378.00	29.30	357.00	5.70	90.00	3.70	54723	3304.00	27.80	27.80	1580061899.0	3.59	6.65
26/01/2020 18:05:00	26012020	260120	180500	95.820	12.193367	-56.149585	95.890	-0.260	0.020	-0.240	95.840	-1.000	-0.100																			1580061900.0	3.81	7.06
26/01/2020 18:05:01	26012020	260120	180501	95.810	12.193363	-56.149565	95.760	-0.230	-0.320	0.080	95.780	-1.400	0.100																			1580061901.0	4.21	7.80
26/01/2020 18:05:02	26012020	260120	180502	95.620	12.193357	-56.149545	95.620	-0.250	-0.420	0.400	95.620	-1.700	0.500																			1580061902.0	4.42	8.19
26/01/2020 18:05:03	26012020	260120	180503	95.530	12.193352	-56.149525	95.620	-0.290	-0.250	0.660	95.520	-1.800	0.800																			1580061903.0	4.36	8.07
26/01/2020 18:05:04	26012020	260120	180504	95.530	12.193345	-56.149507	95.750	-0.280	0.040	0.660	95.540	-1.600	1.000																			1580061904.0	4.10	7.59
26/01/2020 18:05:05	26012020	260120	180505	95.660	12.193340	-56.149490	95.930	-0.110	0.160	0.370	95.690	-1.300	1.000																			1580061905.0	3.84	7.11
26/01/2020 18:05:06	26012020	260120	180506	95.880	12.193335	-56.149472	96.080	0.210	-0.010	-0.020	95.880	-1.200	0.700																			1580061906.0	3.70	6.85
26/01/2020 18:05:07	26012020	260120	180507	95.980	12.193333	-56.149455	96.110	0.500	-0.300	-0.310	96.000	-1.400	0.300																			1580061907.0	3.87	7.17
26/01/2020 18:05:08	26012020	260120	180508	96.000	12.193332	-56.149435	96.030	0.590	-0.500	-0.420	96.000	-1.700	0.000																			1580061908.0	4.18	7.74
26/01/2020 18:05:09	26012020	260120	180509	95.920	12.193330	-56.149415	95.840	0.460	-0.530	-0.370	95.890	-1.900	-0.100																			1580061909.0	4.26	7.89
26/01/2020 18:05:10	26012020	260120	180510	95.730	12.193328	-56.149395	95.690	0.180	-0.350	-0.230	95.690	-1.900	-0.000																			1580061910.0	4.20	7.78
26/01/2020 18:05:11	26012020	260120	180511	95.570	12.193327	-56.149375	95.670	-0.120	-0.140	-0.030	95.550	-1.700	0.100																			1580061911.0	4.04	7.48
26/01/2020 18:05:12	26012020	260120	180512	95.540	12.193323	-56.149357	95.790	-0.350	0.040	0.190	95.550	-1.500	0.300																			1580061912.0	3.95	7.32
26/01/2020 18:05:13	26012020	260120	180513	95.670	12.193318	-56.149338	95.960	-0.490	0.190	0.410	95.700	-1.300	0.600																			1580061913.0	4.01	7.43
26/01/2020 18:05:14	26012020	260120	180514	95.830	12.193313	-56.149320	96.030	-0.540	0.290	0.590	95.860	-1.200	0.800																			1580061914.0	4.10	7.59
26/01/2020 18:05:15	26012020	260120	180515	95.910	12.193307	-56.149302	96.060	-0.500	0.260	0.650	95.910	-1.100	0.900																			1580061915.0	4.14	7.67
26/01/2020 18:05:16	26012020	260120	180516	95.940	12.193300	-56.149283	96.190	-0.370	0.110	0.510	95.960	-1.100	1.000																			1580061916.0	4.11	7.61
26/01/2020 18:05:17	26012020	260120	180517	96.080	12.193295	-56.149265	96.390	-0.140	-0.090	0.230	96.130	-1.300	0.800																			1580061917.0	4.09	7.57
26/01/2020 18:05:18	26012020	260120	180518	96.330	12.193290	-56.149247	96.440	0.210	-0.400	-0.120	96.330	-1.500	0.500																			1580061918.0	4.06	7.52
26/01/2020 18:05:19	26012020	260120	180519	96.360	12.193287	-56.149228	96.250	0.630	-0.720	-0.380	96.330	-1.800	0.200																			1580061919.0	4.06	7.52
26/01/2020 18:05:20	26012020	260120	180520	96.100	12.193285	-56.149208	96.010	0.910	-0.800	-0.540	96.100	-2.100	-0.100																			1580061920.0	4.22	7.82
26/01/2020 18:05:21	26012020	260120	180521	95.920	12.193285	-56.149187	95.960	0.800	-0.460	-0.580	95.890	-2.200	-0.200																			1580061921.0	4.36	8.07
26/01/2020 18:05:22	26012020	260120	180522	95.880	12.193283	-56.149167	96.100	0.300	0.120	-0.430	95.890	-1.800	-0.200																			1580061922.0	4.23	7.83
26/01/2020 18:05:23	26012020	260120	180523	96.020	12.193283	-56.149150	96.220	-0.310	0.510	-0.130	96.050	-0.900	0.100																			1580061923.0	3.81	7.06
26/01/2020 18:05:24	26012020	260120	180524	96.140	12.193280	-56.149133	96.210	-0.660	0.410	0.270	96.150	-0.900	0.300																			1580061924.0	3.58	6.63
26/01/2020 18:05:25	26012020	260120	180525	96.140	12.193273	-56.149115	96.110	-0.610	-0.130	0.750	96.110	-1.000	0.700																			1580061925.0	3.85	7.13
26/01/2020 18:05:26	26012020	260120	180526	95.980	12.193267	-56.149097	96.020	-0.330	-0.610	1.100	95.980	-1.600	1.100																			1580061926.0	4.45	8.24
26/01/2020 18:05:27	26012020	260120	180527	95.920	12.193258	-56.149075	96.110	-0.110	-0.560	1.010	95.930	-2.000	1.500																			1580061927.0	4.87	9.02
26/01/2020 18:05:28	26012020	260120	180528	96.070	12.193252	-56.149053	96.390	-0.080	-0.010	0.560	96.070	-1.900	1.300																			1580061928.0	4.68	8.67
26/01/2020 18:05:29	26012020	260120	180529	96.310	12.193247	-56.149035	96.660	-0.130	0.490	0.080	96.370	-1.300	0.900																			1580061929.0	4.00	7.41
26/01/2020 18:05:30	26012020	260120	180530	96.620	12.193245	-56.149018	96.720	-0.120	0.550	-0.040	96.620	-0.900	0.400																			1580061930.0	3.47	6.43
26/01/2020 18:05:31	26012020	260120	180531	96.690	12.193243	-56.149002	96.770	-0.020	0.370	-0.360	96.690	-0.900	0.100																			1580061931.0	3.56	6.59
26/01/2020 18:05:32	26012020	260120	180532	96.630	12.193240	-56.148983	96.690	0.200	-0.160	-0.590	96.630	-1.400	-0.200																			1580061932.0	4.08	7.56
26/01/2020 18:05:33	26012020	260120	180533	96.520	12.193238	-56.148962	96.550	0.420	-0.680	-0.650	96.480	-2.000	-0.300																			1580061933.0	4.43	8.20
26/01/2020 18:05:34	26012020	260120	180534	96.320	12.193237	-56.148942	96.340	0.530	-0.890	-0.520	96.270	-2.300	-0.200																			1580061934.0	4.48	8.30
26/01/2020 18:05:35	26012020	260120	180535	96.100	12.193233	-56.148922	96.140	0.450	-0.730	-0.270	96.070	-2.000	0.200																			1580061935.0	4.29	7.95
26/01/2020 18:05:36	26012020	260120	180536	95.990	12.193230	-56.148902	96.100	0.200	-0.320	0.010	95.990	-1.800	0.300																			1580061936.0	4.08	7.56
26/01/2020 18:05:37	26012020	260120	180537	96.070	12.193225	-56.148883	96.230	-0.150	0.170	0.230	96.090	-1.300	0.500																			1580061937.0	3.94	7.30
26/01/2020 18:05:38	26012020	260120	180538	96.220	12.193220	-56.148867	96.380	-0.450	0.500	0.430	96.250	-0.900	0.700																			1580061938.0	3.90	7.22
26/01/2020 18:05:39	26012020	260120	180539	96.330	12.193213	-56.148848	96.480	-0.570	0.530	0.640	96.350	-0.800	0.900																			1580061939.0	3.99	7.39
26/01/2020 18:05:40	26012020	260120	180540	96.430	12.193208	-56.148830	96.550	-0.490	0.260	0.700	96.430	-1.000	1.100																			1580061940.0	4.21	7.80
26/01/2020 18:05:41	26012020	260120	180541	96.480	12.193202	-56.148810	96.600	-0.250	-0.130	0.580	96.480	-1.400	1.000																			1580061941.0	4.39	8.13
26/01/2020 18:05:42	26012020	260120	180542	96.500	12.193197	-56.148790	96.600	0.080	-0.450	0.310	96.500	-1.800	0.700																			1580061942.0	4.45	8.24
26/01/2020 18:05:43	26012020	260120	180543	96.520	12.193193	-56.148770	96.600	0.360	-0.490	-0.070	96.520	-1.900	0.400																			1580061943.0	4.35	8.06
26/01/2020 18:05:44	26012020	260120	180544	96.470	12.193192	-56.148750	96.520	0.460	-0.310	-0.430	96.440	-1.700	-0.000																			1580061944.0	4.09	7.57
26/01/2020 18:05:45	26012020	260120	180545	96.350	12.193190	-56.148732	96.390	0.370	-0.160	-0.680	96.320	-1.600	-0.300																			1580061945.0	3.87	7.17
26/01/2020 18:05:46	26012020	260120	180546	96.250	12.193190	-56.148713	96.300	0.160	-0.140	-0.750	96.250	-1.500	-0.400																			1580061946.0	3.91	7.24
26/01/2020 18:05:47	26012020	260120	180547	96.180	12.193188	-56.148693	96.220	-0.040	-0.230	-0.540	96.160	-1.700	-0.000																			1580061947.0	4.07	7.54
26/01/2020 18:05:48	26012020	260120	180548	96.040	12.193185	-56.148675	96.080	-0.110	-0.410	-0.110	96.000	-1.700	0.100																			1580061948.0	4.25	7.87
26/01/2020 18:05:49	26012020	260120	180549	95.880	12.193178	-56.148653	95.960	-0.050	-0.470	0.380	95.870	-1.700	0.900																			1580061949.0	4.54	8.41
26/01/2020 18:05:50	26012020	260120	180550	95.850	12.193170	-56.148633	95.980	-0.040	-0.130	0.660	95.860	-1.600	1.000																			1580061950.0	4.63	8.57
26/01/2020 18:05:51	26012020	260120	180551	95.990	12.193163	-56.148615	96.170	-0.170	0.480	0.650	96.030	-1.000	1.000																			1580061951.0	4.23	7.83
26/01/2020 18:05:52	26012020	260120	180552	96.240	12.193158	-56.148598	96.350	-0.370	0.830	0.480	96.240	-0.600	0.900																			1580061952.0	3.70	6.85
26/01/2020 18:05:53	26012020	260120	180553	96.350	12.193155	-56.148582	96.470	-0.410	0.580	0.250	96.360	-0.700	0.700																			1580061953.0	3.66	6.78
26/01/2020 18:05:54	26012020	260120	180554	96.410	12.193152	-56.148562	96.500	-0.180	-0.160	-0.040	96.410	-1.400	0.400																			1580061954.0	4.07	7.54
26/01/2020 18:05:55	26012020	260120	180555	96.370	12.193148	-56.148542	96.430	0.190	-0.920	-0.280	96.350	-2.100	0.100																			1580061955.0	4.53	8.39
26/01/2020 18:05:56	26012020	260120	180556	96.220	12.193147	-56.148518	96.260	0.450	-1.210	-0.370	96.180	-2.600	0.000																			1580061956.0	4.71	8.72
26/01/2020 18:05:57	26012020	260120	180557	96.020	12.193143	-56.148498	96.060	0.440	-0.890	-0.290	95.970	-2.400	0.000																			1580061957.0	4.43	8.20
26/01/2020 18:05:58	26012020	260120	180558	95.770	12.193142	-56.148480	95.820	0.260	-0.290	-0.040	95.720	-1.800	0.300																			1580061958.0	3.94	7.30
26/01/2020 18:05:59	26012020	260120	180559	95.540	12.193137	-56.148463	95.600	0.100	0.110	0.260	95.500	-1.300	0.600	1014.20	26.20	26.30	20.30	20.40	766.00	70.00	70.00	378.00	29.30	1.00	5.40	97.00	3.30	54517	3578.00	27.90	27.80	1580061959.0	3.74	6.93
26/01/2020 18:06:00	26012020	260120	180600	95.470	12.193132	-56.148443	95.620	0.040	0.170	0.350	95.490	-1.200	0.700																			1580061960.0	4.06	7.52
26/01/2020 18:06:01	26012020	260120	180601	95.620	12.193128	-56.148423	95.810	-0.050	0.250	0.270	95.670	-1.200	0.600																			1580061961.0	4.47	8.28
26/01/2020 18:06:02	26012020	260120	180602	95.860	12.193123	-56.148403	96.020	-0.260	0.550	0.160	95.890	-0.900	0.500																			1580061962.0	4.44	8.22
26/01/2020 18:06:03	26012020	260120	180603	96.050	12.193118	-56.148385	96.210	-0.460	0.750	0.090	96.080	-0.600	0.400																			1580061963.0	3.99	7.39
26/01/2020 18:06:04	26012020	260120	180604	96.220	12.193115	-56.148367	96.380	-0.430	0.450	-0.030	96.250	-0.800	0.400																			1580061964.0	3.76	6.96
26/01/2020 18:06:05	26012020	260120	180605	96.350	12.193110	-56.148348	96.490	-0.110	-0.270	-0.160	96.370	-1.500	0.200																			1580061965.0	4.05	7.50
26/01/2020 18:06:06	26012020	260120	180606	96.310	12.193107	-56.148328	96.430	0.280	-0.940	-0.160	96.310	-2.200	0.200																			1580061966.0	4.47	8.28
26/01/2020 18:06:07	26012020	260120	180607	96.160	12.193103	-56.148307	96.220	0.450	-1.130	-0.050	96.120	-2.500	0.300																			1580061967.0	4.56	8.45
26/01/2020 18:06:08	26012020	260120	180608	95.940	12.193102	-56.148287	96.000	0.270	-0.810	0.160	95.900	-2.300	0.500																			1580061968.0	4.25	7.87
26/01/2020 18:06:09	26012020	260120	180609	95.760	12.193098	-56.148268	95.850	-0.030	-0.340	0.420	95.730	-1.800	0.700																			1580061969.0	3.85	7.13
26/01/2020 18:06:10	26012020	260120	180610	95.670	12.193093	-56.148252	95.800	-0.190	-0.120	0.600	95.670	-1.500	0.900																			1580061970.0	3.84	7.11
26/01/2020 18:06:11	26012020	260120	180611	95.700	12.193087	-56.148232	95.820	-0.140	-0.090	0.640	95.700	-1.400	1.000																			1580061971.0	4.27	7.91
26/01/2020 18:06:12	26012020	260120	180612	95.690	12.193082	-56.148212	95.790	0.000	0.040	0.530	95.680	-1.400	0.900																			1580061972.0	4.59	8.50
26/01/2020 18:06:13	26012020	260120	180613	95.620	12.193077	-56.148190	95.730	0.120	0.370	0.250	95.610	-0.900	0.400																			1580061973.0	4.47	8.28
26/01/2020 18:06:14	26012020	260120	180614	95.690	12.193075	-56.148172	95.850	0.160	0.600	-0.170	95.720	-0.800	0.300																			1580061974.0	4.11	7.61
26/01/2020 18:06:15	26012020	260120	180615	95.950	12.193073	-56.148152	96.160	0.130	0.470	-0.640	96.010	-0.900	-0.200																			1580061975.0	3.98	7.37
26/01/2020 18:06:16	26012020	260120	180616	96.250	12.193073	-56.148133	96.420	0.030	0.060	-1.000	96.290	-1.200	-0.600																			1580061976.0	4.18	7.74
26/01/2020 18:06:17	26012020	260120	180617	96.380	12.193072	-56.148112	96.490	-0.110	-0.270	-0.960	96.380	-1.600	-0.700																			1580061977.0	4.35	8.06
26/01/2020 18:06:18	26012020	260120	180618	96.320	12.193068	-56.148092	96.410	-0.250	-0.340	-0.460	96.300	-1.700	-0.200																			1580061978.0	4.23	7.83
26/01/2020 18:06:19	26012020	260120	180619	96.190	12.193062	-56.148075	96.280	-0.270	-0.370	0.220	96.160	-1.700	0.400																			1580061979.0	4.02	7.45
26/01/2020 18:06:20	26012020	260120	180620	96.070	12.193055	-56.148057	96.170	-0.120	-0.580	0.730	96.040	-1.900	1.000																			1580061980.0	4.05	7.50
26/01/2020 18:06:21	26012020	260120	180621	95.930	12.193047	-56.148038	96.000	0.130	-0.830	0.980	95.890	-2.200	1.300																			1580061981.0	4.34	8.04
26/01/2020 18:06:22	26012020	260120	180622	95.710	12.193042	-56.148017	95.770	0.330	-0.820	1.040	95.660	-2.200	1.400																			1580061982.0	4.56	8.45
26/01/2020 18:06:23	26012020	260120	180623	95.500	12.193037	-56.147997	95.610	0.360	-0.450	0.940	95.480	-1.900	1.300																			1580061983.0	4.47	8.28
26/01/2020 18:06:24	26012020	260120	180624	95.460	12.193035	-56.147977	95.610	0.210	0.080	0.560	95.470	-1.400	1.000																			1580061984.0	4.20	7.78
26/01/2020 18:06:25	26012020	260120	180625	95.600	12.193033	-56.147958	95.790	-0.030	0.500	-0.030	95.650	-0.800	0.100																			1580061985.0	4.01	7.43
26/01/2020 18:06:26	26012020	260120	180626	95.860	12.193032	-56.147938	96.020	-0.260	0.670	-0.550	95.910	-0.700	-0.100																			1580061986.0	4.03	7.46
26/01/2020 18:06:27	26012020	260120	180627	96.080	12.193032	-56.147920	96.200	-0.380	0.580	-0.840	96.110	-0.800	-0.400																			1580061987.0	4.12	7.63
26/01/2020 18:06:28	26012020	260120	180628	96.190	12.193028	-56.147900	96.270	-0.330	0.270	-0.850	96.190	-1.000	-0.500																			1580061988.0	4.20	7.78
26/01/2020 18:06:29	26012020	260120	180629	96.160	12.193025	-56.147880	96.200	-0.110	-0.220	-0.600	96.140	-1.500	-0.300																			1580061989.0	4.27	7.91
26/01/2020 18:06:30	26012020	260120	180630	96.070	12.193020	-56.147860	96.120	0.220	-0.740	-0.250	96.070	-2.000	0.000																			1580061990.0	4.45	8.24
26/01/2020 18:06:31	26012020	260120	180631	96.050	12.193013	-56.147838	96.100	0.430	-0.940	0.020	96.050	-2.300	0.300																			1580061991.0	4.62	8.56
26/01/2020 18:06:32	26012020	260120	180632	96.030	12.193008	-56.147818	96.080	0.350	-0.610	0.250	96.020	-2.100	0.600																			1580061992.0	4.46	8.26
26/01/2020 18:06:33	26012020	260120	180633	96.020	12.193005	-56.147800	96.090	-0.000	0.020	0.470	96.030	-1.500	0.800																			1580061993.0	3.95	7.32
26/01/2020 18:06:34	26012020	260120	180634	96.070	12.193002	-56.147783	96.140	-0.330	0.370	0.640	96.070	-1.000	1.000																			1580061994.0	3.59	6.65
26/01/2020 18:06:35	26012020	260120	180635	96.060	12.192997	-56.147767	96.100	-0.370	0.140	0.720	96.050	-1.100	1.100																			1580061995.0	3.82	7.07
26/01/2020 18:06:36	26012020	260120	180636	96.000	12.192990	-56.147745	96.030	-0.170	-0.290	0.620	95.990	-1.600	1.000																			1580061996.0	4.46	8.26
26/01/2020 18:06:37	26012020	260120	180637	95.930	12.192987	-56.147723	95.980	0.010	-0.350	0.400	95.930	-1.600	0.600																			1580061997.0	4.77	8.83
26/01/2020 18:06:38	26012020	260120	180638	95.930	12.192982	-56.147703	95.990	0.050	-0.050	0.110	95.940	-1.500	0.500																			1580061998.0	4.39	8.13
26/01/2020 18:06:39	26012020	260120	180639	96.030	12.192980	-56.147685	96.120	0.100	0.110	-0.290	96.050	-1.300	-0.100																			1580061999.0	3.89	7.20
26/01/2020 18:06:40	26012020	260120	180640	96.150	12.192978	-56.147667	96.220	0.280	-0.160	-0.710	96.170	-1.400	-0.300																			1580062000.0	3.93	7.28
26/01/2020 18:06:41	26012020	260120	180641	96.220	12.192978	-56.147645	96.280	0.430	-0.470	-0.890	96.230	-1.800	-0.500																			1580062001.0	4.47	8.28
26/01/2020 18:06:42	26012020	260120	180642	96.270	12.192977	-56.147623	96.350	0.300	-0.380	-0.720	96.280	-1.800	-0.400																			1580062002.0	4.66	8.63
26/01/2020 18:06:43	26012020	260120	180643	96.320	12.192973	-56.147603	96.410	-0.120	0.040	-0.310	96.330	-1.400	-0.100																			1580062003.0	4.26	7.89
26/01/2020 18:06:44	26012020	260120	180644	96.330	12.192968	-56.147587	96.400	-0.540	0.330	0.220	96.330	-1.100	0.400																			1580062004.0	3.84	7.11
26/01/2020 18:06:45	26012020	260120	180645	96.250	12.192960	-56.147568	96.300	-0.650	0.210	0.730	96.230	-1.100	1.000																			1580062005.0	3.94	7.30
26/01/2020 18:06:46	26012020	260120	180646	96.130	12.192952	-56.147550	96.210	-0.380	-0.180	1.040	96.110	-1.500	1.400																			1580062006.0	4.39	8.13
26/01/2020 18:06:47	26012020	260120	180647	96.080	12.192945	-56.147530	96.190	0.060	-0.500	1.010	96.080	-1.800	1.400																			1580062007.0	4.71	8.72
26/01/2020 18:06:48	26012020	260120	180648	96.150	12.192938	-56.147508	96.280	0.370	-0.460	0.610	96.190	-1.900	1.100																			1580062008.0	4.61	8.54
26/01/2020 18:06:49	26012020	260120	180649	96.330	12.192937	-56.147488	96.450	0.440	-0.120	0.030	96.360	-1.600	0.500																			1580062009.0	4.23	7.83
26/01/2020 18:06:50	26012020	260120	180650	96.460	12.192937	-56.147470	96.530	0.330	0.200	-0.490	96.470	-1.200	-0.000																			1580062010.0	3.86	7.15
26/01/2020 18:06:51	26012020	260120	180651	96.450	12.192937	-56.147452	96.470	0.170	0.220	-0.790	96.430	-1.100	-0.400																			1580062011.0	3.79	7.02
26/01/2020 18:06:52	26012020	260120	180652	96.380	12.192937	-56.147433	96.430	0.050	-0.150	-0.820	96.380	-1.400	-0.500																			1580062012.0	4.02	7.45
26/01/2020 18:06:53	26012020	260120	180653	96.390	12.192935	-56.147412	96.480	-0.050	-0.640	-0.620	96.400	-1.900	-0.300																			1580062013.0	4.43	8.20
26/01/2020 18:06:54	26012020	260120	180654	96.410	12.192930	-56.147390	96.490	-0.150	-0.790	-0.190	96.410	-2.200	0.100																			1580062014.0	4.72	8.74
26/01/2020 18:06:55	26012020	260120	180655	96.310	12.192923	-56.147370	96.350	-0.260	-0.440	0.380	96.260	-1.900	0.600																			1580062015.0	4.61	8.54
26/01/2020 18:06:56	26012020	260120	180656	96.080	12.192915	-56.147352	96.140	-0.270	0.110	0.860	96.040	-1.400	1.100																			1580062016.0	4.23	7.83
26/01/2020 18:06:57	26012020	260120	180657	95.920	12.192907	-56.147335	96.040	-0.110	0.350	0.960	95.910	-1.000	1.300																			1580062017.0	3.98	7.37
26/01/2020 18:06:58	26012020	260120	180658	95.990	12.192902	-56.147317	96.160	0.140	0.180	0.590	96.030	-1.100	1.000																			1580062018.0	4.13	7.65
26/01/2020 18:06:59	26012020	260120	180659	96.230	12.192898	-56.147295	96.370	0.240	0.010	0.000	96.280	-1.400	0.500	1014.20	26.20	26.30	20.40	20.40	764.00	70.00	70.00	379.00	29.40	358.00	6.00	93.00	3.80	54345	3748.00	27.90	27.80	1580062019.0	4.52	8.37
26/01/2020 18:07:00	26012020	260120	180700	96.500	12.192898	-56.147273	96.630	0.050	0.160	-0.500	96.550	-1.300	-0.100																			1580062020.0	4.50	8.33
26/01/2020 18:07:01	26012020	260120	180701	96.700	12.192898	-56.147255	96.790	-0.230	0.410	-0.720	96.730	-1.000	-0.400																			1580062021.0	3.96	7.33
26/01/2020 18:07:02	26012020	260120	180702	96.760	12.192895	-56.147238	96.810	-0.320	0.240	-0.640	96.750	-1.000	-0.300																			1580062022.0	3.57	6.61
26/01/2020 18:07:03	26012020	260120	180703	96.660	12.192892	-56.147220	96.670	-0.070	-0.520	-0.340	96.630	-2.300	0.200																			1580062023.0	3.86	7.15
26/01/2020 18:07:04	26012020	260120	180704	96.440	12.192885	-56.147200	96.410	0.360	-1.460	0.070	96.390	-2.700	0.300																			1580062024.0	4.62	8.56
26/01/2020 18:07:05	26012020	260120	180705	96.120	12.192880	-56.147175	96.120	0.600	-1.630	0.470	96.060	-3.100	0.700																			1580062025.0	5.19	9.61
26/01/2020 18:07:06	26012020	260120	180706	95.870	12.192873	-56.147153	95.940	0.400	-0.580	0.720	95.850	-2.200	1.000																			1580062026.0	4.80	8.89
26/01/2020 18:07:07	26012020	260120	180707	95.860	12.192870	-56.147137	96.000	-0.090	0.870	0.710	95.880	-0.800	1.100																			1580062027.0	3.60	6.67
26/01/2020 18:07:08	26012020	260120	180708	96.030	12.192867	-56.147123	96.200	-0.490	1.470	0.440	96.080	0.100	0.900																			1580062028.0	2.93	5.43
26/01/2020 18:07:09	26012020	260120	180709	96.320	12.192863	-56.147107	96.500	-0.520	0.900	-0.080	96.390	-0.300	0.400																			1580062029.0	3.50	6.48
26/01/2020 18:07:10	26012020	260120	180710	96.690	12.192862	-56.147085	96.780	-0.250	-0.140	-0.530	96.690	-1.300	-0.100																			1580062030.0	4.61	8.54
26/01/2020 18:07:11	26012020	260120	180711	96.820	12.192858	-56.147062	96.890	0.080	-0.800	-0.610	96.840	-2.100	-0.300																			1580062031.0	5.10	9.45
26/01/2020 18:07:12	26012020	260120	180712	96.820	12.192853	-56.147040	96.840	0.260	-0.860	-0.410	96.800	-2.300	-0.100																			1580062032.0	4.74	8.78
26/01/2020 18:07:13	26012020	260120	180713	96.660	12.192848	-56.147022	96.640	0.230	-0.530	-0.180	96.620	-2.000	0.100																			1580062033.0	4.14	7.67
26/01/2020 18:07:14	26012020	260120	180714	96.450	12.192845	-56.147003	96.440	0.060	-0.120	-0.010	96.410	-1.600	0.300																			1580062034.0	3.74	6.93
26/01/2020 18:07:15	26012020	260120	180715	96.300	12.192842	-56.146987	96.310	-0.120	0.080	0.160	96.270	-1.300	0.600																			1580062035.0	3.68	6.82
26/01/2020 18:07:16	26012020	260120	180716	96.190	12.192837	-56.146968	96.230	-0.190	-0.040	0.360	96.190	-1.400	0.700																			1580062036.0	3.95	7.32
26/01/2020 18:07:17	26012020	260120	180717	96.190	12.192832	-56.146948	96.240	-0.160	-0.270	0.420	96.200	-1.600	0.800																			1580062037.0	4.38	8.11
26/01/2020 18:07:18	26012020	260120	180718	96.280	12.192827	-56.146928	96.320	-0.100	-0.240	0.290	96.280	-1.600	0.700																			1580062038.0	4.58	8.48
26/01/2020 18:07:19	26012020	260120	180719	96.380	12.192822	-56.146908	96.450	-0.030	0.110	0.010	96.410	-1.300	0.400																			1580062039.0	4.31	7.98
26/01/2020 18:07:20	26012020	260120	180720	96.540	12.192818	-56.146890	96.590	0.150	0.350	-0.320	96.540	-1.000	0.100																			1580062040.0	3.87	7.17
26/01/2020 18:07:21	26012020	260120	180721	96.620	12.192817	-56.146872	96.700	0.450	0.160	-0.520	96.630	-1.100	-0.100																			1580062041.0	3.81	7.06
26/01/2020 18:07:22	26012020	260120	180722	96.670	12.192815	-56.146852	96.750	0.630	-0.240	-0.570	96.670	-1.500	-0.200																			1580062042.0	4.25	7.87
26/01/2020 18:07:23	26012020	260120	180723	96.690	12.192813	-56.146830	96.750	0.430	-0.450	-0.410	96.690	-1.800	-0.100																			1580062043.0	4.51	8.35
26/01/2020 18:07:24	26012020	260120	180724	96.620	12.192810	-56.146810	96.680	-0.080	-0.440	0.050	96.620	-1.800	0.300																			1580062044.0	4.30	7.96
26/01/2020 18:07:25	26012020	260120	180725	96.500	12.192805	-56.146792	96.540	-0.570	-0.380	0.730	96.460	-1.700	0.900																			1580062045.0	4.08	7.56
26/01/2020 18:07:26	26012020	260120	180726	96.250	12.192797	-56.146773	96.330	-0.800	-0.310	1.360	96.250	-1.700	1.600																			1580062046.0	4.23	7.83
26/01/2020 18:07:27	26012020	260120	180727	96.100	12.192787	-56.146755	96.160	-0.730	-0.210	1.640	96.070	-1.500	2.000																			1580062047.0	4.42	8.19
26/01/2020 18:07:28	26012020	260120	180728	95.990	12.192778	-56.146737	96.090	-0.400	-0.110	1.480	95.990	-1.500	1.900																			1580062048.0	4.39	8.13
26/01/2020 18:07:29	26012020	260120	180729	96.050	12.192772	-56.146717	96.170	0.050	-0.000	0.830	96.080	-1.300	0.800																			1580062049.0	4.32	8.00
26/01/2020 18:07:30	26012020	260120	180730	96.260	12.192770	-56.146697	96.390	0.460	0.130	-0.110	96.310	-1.300	0.400																			1580062050.0	4.26	7.89
26/01/2020 18:07:31	26012020	260120	180731	96.500	12.192772	-56.146677	96.590	0.720	0.210	-1.030	96.540	-1.200	-0.500																			1580062051.0	4.24	7.85
26/01/2020 18:07:32	26012020	260120	180732	96.670	12.192773	-56.146657	96.740	0.780	0.230	-1.620	96.700	-1.100	-1.200																			1580062052.0	4.26	7.89
26/01/2020 18:07:33	26012020	260120	180733	96.760	12.192775	-56.146637	96.800	0.600	0.140	-1.700	96.760	-1.200	-1.400																			1580062053.0	4.17	7.72
26/01/2020 18:07:34	26012020	260120	180734	96.760	12.192775	-56.146618	96.810	0.260	-0.170	-1.270	96.760	-1.400	-1.000																			1580062054.0	4.03	7.46
26/01/2020 18:07:35	26012020	260120	180735	96.740	12.192772	-56.146598	96.830	-0.080	-0.670	-0.440	96.740	-1.900	-0.300																			1580062055.0	4.19	7.76
26/01/2020 18:07:36	26012020	260120	180736	96.670	12.192763	-56.146578	96.770	-0.370	-0.920	0.590	96.650	-2.300	0.700																			1580062056.0	4.61	8.54
26/01/2020 18:07:37	26012020	260120	180737	96.500	12.192753	-56.146558	96.580	-0.610	-0.620	1.630	96.460	-2.100	1.800																			1580062057.0	4.76	8.82
26/01/2020 18:07:38	26012020	260120	180738	96.220	12.192742	-56.146542	96.290	-0.740	-0.060	2.310	96.160	-1.500	2.600																			1580062058.0	4.47	8.28
26/01/2020 18:07:39	26012020	260120	180739	95.960	12.192730	-56.146525	96.060	-0.600	0.260	2.280	95.920	-1.100	2.700																			1580062059.0	4.13	7.65
26/01/2020 18:07:40	26012020	260120	180740	95.890	12.192725	-56.146507	96.040	-0.210	0.120	1.580	95.910	-1.200	2.100																			1580062060.0	4.07	7.54
26/01/2020 18:07:41	26012020	260120	180741	96.060	12.192723	-56.146487	96.240	0.290	-0.260	0.440	96.110	-1.500	1.000																			1580062061.0	4.47	8.28
26/01/2020 18:07:42	26012020	260120	180742	96.350	12.192723	-56.146463	96.500	0.620	-0.390	-0.830	96.410	-1.700	-0.200																			1580062062.0	4.87	9.02
26/01/2020 18:07:43	26012020	260120	180743	96.630	12.192728	-56.146440	96.720	0.650	-0.030	-1.750	96.670	-1.500	-1.300																			1580062063.0	4.75	8.80
26/01/2020 18:07:44	26012020	260120	180744	96.800	12.192730	-56.146422	96.830	0.420	0.460	-1.990	96.810	-1.000	-1.600																			1580062064.0	4.09	7.57
26/01/2020 18:07:45	26012020	260120	180745	96.810	12.192730	-56.146405	96.800	0.090	0.610	-1.600	96.790	-0.700	-1.400																			1580062065.0	3.62	6.70
26/01/2020 18:07:46	26012020	260120	180746	96.700	12.192725	-56.146387	96.700	-0.190	0.270	-0.880	96.670	-1.000	-0.700																			1580062066.0	3.80	7.04
26/01/2020 18:07:47	26012020	260120	180747	96.550	12.192718	-56.146368	96.570	-0.300	-0.370	-0.050	96.520	-1.600	0.100																			1580062067.0	4.28	7.93
26/01/2020 18:07:48	26012020	260120	180748	96.390	12.192710	-56.146348	96.420	-0.230	-0.920	0.840	96.360	-2.200	1.000																			1580062068.0	4.64	8.59
26/01/2020 18:07:49	26012020	260120	180749	96.270	12.192700	-56.146327	96.350	-0.110	-1.000	1.560	96.260	-2.400	1.800																			1580062069.0	4.79	8.87
26/01/2020 18:07:50	26012020	260120	180750	96.270	12.192692	-56.146308	96.390	-0.110	-0.650	1.820	96.270	-2.100	2.100																			1580062070.0	4.51	8.35
26/01/2020 18:07:51	26012020	260120	180751	96.250	12.192685	-56.146290	96.300	-0.210	-0.140	1.720	96.230	-1.600	2.100																			1580062071.0	4.07	7.54
26/01/2020 18:07:52	26012020	260120	180752	96.080	12.192680	-56.146273	96.090	-0.220	0.160	1.370	96.030	-1.200	1.800																			1580062072.0	3.87	7.17
26/01/2020 18:07:53	26012020	260120	180753	95.880	12.192677	-56.146253	95.920	-0.020	0.100	0.650	95.860	-1.400	0.600																			1580062073.0	4.04	7.48
26/01/2020 18:07:54	26012020	260120	180754	95.880	12.192675	-56.146233	95.970	0.320	-0.160	-0.320	95.900	-1.500	0.200																			1580062074.0	4.47	8.28
26/01/2020 18:07:55	26012020	260120	180755	96.050	12.192677	-56.146210	96.170	0.550	-0.210	-1.240	96.100	-1.600	-0.700																			1580062075.0	4.79	8.87
26/01/2020 18:07:56	26012020	260120	180756	96.340	12.192680	-56.146188	96.400	0.460	0.110	-1.830	96.340	-1.300	-1.400																			1580062076.0	4.63	8.57
26/01/2020 18:07:57	26012020	260120	180757	96.450	12.192680	-56.146168	96.500	0.080	0.560	-1.810	96.460	-0.900	-1.500																			1580062077.0	4.09	7.57
26/01/2020 18:07:58	26012020	260120	180758	96.440	12.192678	-56.146152	96.470	-0.370	0.770	-1.210	96.430	-0.600	-1.000																			1580062078.0	3.67	6.80
26/01/2020 18:07:59	26012020	260120	180759	96.390	12.192672	-56.146135	96.460	-0.620	0.450	-0.390	96.390	-0.800	-0.200	1014.20	26.20	26.30	20.50	20.50	764.00	70.00	70.00	379.00	29.40	355.00	5.70	89.00	3.60	54284	3337.00	27.80	27.80	1580062079.0	3.73	6.91
26/01/2020 18:08:00	26012020	260120	180800	96.410	12.192663	-56.146117	96.510	-0.530	-0.370	0.420	96.410	-1.500	0.600																			1580062080.0	4.23	7.83
26/01/2020 18:08:01	26012020	260120	180801	96.380	12.192655	-56.146097	96.470	-0.200	-1.210	1.230	96.360	-2.400	1.400																			1580062081.0	4.78	8.85
26/01/2020 18:08:02	26012020	260120	180802	96.220	12.192645	-56.146075	96.290	0.110	-1.510	1.870	96.170	-2.900	2.100																			1580062082.0	5.06	9.37
26/01/2020 18:08:03	26012020	260120	180803	95.970	12.192635	-56.146055	96.020	0.220	-1.040	2.030	95.910	-2.500	2.400																			1580062083.0	4.74	8.78
26/01/2020 18:08:04	26012020	260120	180804	95.740	12.192630	-56.146037	95.820	0.200	-0.240	1.680	95.700	-1.800	2.100																			1580062084.0	4.04	7.48
26/01/2020 18:08:05	26012020	260120	180805	95.600	12.192627	-56.146020	95.690	0.210	0.280	0.950	95.590	-1.000	0.900																			1580062085.0	3.66	6.78
26/01/2020 18:08:06	26012020	260120	180806	95.590	12.192627	-56.146000	95.720	0.300	0.410	-0.070	95.610	-0.900	0.500																			1580062086.0	3.99	7.39
26/01/2020 18:08:07	26012020	260120	180807	95.770	12.192628	-56.145978	95.900	0.340	0.420	-1.110	95.820	-0.900	-1.100																			1580062087.0	4.52	8.37
26/01/2020 18:08:08	26012020	260120	180808	96.000	12.192632	-56.145958	96.100	0.210	0.520	-1.750	96.030	-0.900	-1.300																			1580062088.0	4.62	8.56
26/01/2020 18:08:09	26012020	260120	180809	96.120	12.192633	-56.145937	96.200	-0.110	0.580	-1.820	96.140	-0.800	-1.500																			1580062089.0	4.26	7.89
26/01/2020 18:08:10	26012020	260120	180810	96.190	12.192632	-56.145918	96.260	-0.450	0.360	-1.380	96.190	-0.900	-1.200																			1580062090.0	3.96	7.33
26/01/2020 18:08:11	26012020	260120	180811	96.220	12.192627	-56.145900	96.320	-0.580	-0.240	-0.550	96.240	-1.400	-0.400																			1580062091.0	4.08	7.56
26/01/2020 18:08:12	26012020	260120	180812	96.250	12.192617	-56.145880	96.370	-0.420	-0.930	0.390	96.240	-2.100	0.500																			1580062092.0	4.55	8.43
26/01/2020 18:08:13	26012020	260120	180813	96.180	12.192607	-56.145860	96.310	-0.140	-1.220	1.250	96.150	-2.500	1.400																			1580062093.0	4.90	9.07
26/01/2020 18:08:14	26012020	260120	180814	96.000	12.192597	-56.145840	96.120	0.050	-0.890	1.850	95.960	-2.300	2.100																			1580062094.0	4.74	8.78
26/01/2020 18:08:15	26012020	260120	180815	95.810	12.192588	-56.145823	95.930	0.110	-0.310	1.970	95.780	-1.800	2.300																			1580062095.0	4.18	7.74
26/01/2020 18:08:16	26012020	260120	180816	95.700	12.192582	-56.145805	95.820	0.170	0.030	1.560	95.680	-1.400	2.000																			1580062096.0	3.82	7.07
26/01/2020 18:08:17	26012020	260120	180817	95.620	12.192580	-56.145787	95.730	0.310	0.050	0.810	95.610	-1.300	0.800																			1580062097.0	4.07	7.54
26/01/2020 18:08:18	26012020	260120	180818	95.610	12.192580	-56.145765	95.750	0.380	0.100	-0.150	95.630	-1.300	0.400																			1580062098.0	4.54	8.41
26/01/2020 18:08:19	26012020	260120	180819	95.780	12.192582	-56.145743	95.950	0.250	0.420	-1.090	95.840	-0.800	-1.100																			1580062099.0	4.59	8.50
26/01/2020 18:08:20	26012020	260120	180820	96.080	12.192585	-56.145723	96.220	-0.020	0.710	-1.720	96.130	-0.700	-1.300																			1580062100.0	4.17	7.72
26/01/2020 18:08:21	26012020	260120	180821	96.260	12.192587	-56.145707	96.350	-0.200	0.480	-1.750	96.270	-0.800	-1.400																			1580062101.0	3.81	7.06
26/01/2020 18:08:22	26012020	260120	180822	96.270	12.192585	-56.145687	96.340	-0.180	-0.240	-1.250	96.260	-1.400	-1.000																			1580062102.0	4.09	7.57
26/01/2020 18:08:23	26012020	260120	180823	96.220	12.192578	-56.145665	96.330	-0.130	-0.850	-0.410	96.210	-2.100	-0.300																			1580062103.0	4.66	8.63
26/01/2020 18:08:24	26012020	260120	180824	96.200	12.192570	-56.145643	96.340	-0.220	-0.930	0.560	96.200	-2.300	0.700																			1580062104.0	4.81	8.91
26/01/2020 18:08:25	26012020	260120	180825	96.160	12.192560	-56.145625	96.280	-0.380	-0.620	1.470	96.140	-2.000	1.600																			1580062105.0	4.55	8.43
26/01/2020 18:08:26	26012020	260120	180826	96.030	12.192550	-56.145608	96.130	-0.420	-0.280	2.030	96.000	-1.700	2.300																			1580062106.0	4.32	8.00
26/01/2020 18:08:27	26012020	260120	180827	95.880	12.192540	-56.145592	95.980	-0.180	-0.120	2.040	95.860	-1.500	2.400																			1580062107.0	4.23	7.83
26/01/2020 18:08:28	26012020	260120	180828	95.800	12.192533	-56.145572	95.880	0.240	-0.130	1.490	95.790	-1.500	2.000																			1580062108.0	4.30	7.96
26/01/2020 18:08:29	26012020	260120	180829	95.760	12.192532	-56.145550	95.840	0.560	-0.040	0.550	95.770	-1.400	1.100																			1580062109.0	4.49	8.32
26/01/2020 18:08:30	26012020	260120	180830	95.880	12.192533	-56.145530	95.950	0.570	0.300	-0.550	95.880	-1.100	0.000																			1580062110.0	4.50	8.33
26/01/2020 18:08:31	26012020	260120	180831	96.130	12.192537	-56.145510	96.260	0.320	0.660	-1.510	96.210	-0.700	-1.000																			1580062111.0	4.20	7.78
26/01/2020 18:08:32	26012020	260120	180832	96.510	12.192540	-56.145492	96.600	0.070	0.560	-2.020	96.560	-0.700	-1.600																			1580062112.0	3.88	7.19
26/01/2020 18:08:33	26012020	260120	180833	96.710	12.192540	-56.145473	96.730	0.020	-0.150	-1.880	96.720	-1.300	-1.600																			1580062113.0	4.03	7.46
26/01/2020 18:08:34	26012020	260120	180834	96.660	12.192538	-56.145452	96.650	0.030	-0.900	-1.070	96.630	-2.100	-0.900																			1580062114.0	4.63	8.57
26/01/2020 18:08:35	26012020	260120	180835	96.450	12.192530	-56.145430	96.440	-0.120	-0.990	0.160	96.390	-2.400	0.200																			1580062115.0	4.93	9.13
26/01/2020 18:08:36	26012020	260120	180836	96.170	12.192520	-56.145410	96.190	-0.390	-0.530	1.330	96.120	-2.000	1.400																			1580062116.0	4.62	8.56
26/01/2020 18:08:37	26012020	260120	180837	95.930	12.192508	-56.145395	96.000	-0.540	-0.170	2.040	95.900	-1.600	2.300																			1580062117.0	4.18	7.74
26/01/2020 18:08:38	26012020	260120	180838	95.810	12.192498	-56.145377	95.920	-0.410	-0.230	2.160	95.800	-1.500	2.500																			1580062118.0	4.15	7.69
26/01/2020 18:08:39	26012020	260120	180839	95.820	12.192492	-56.145357	95.970	-0.140	-0.310	1.760	95.840	-1.700	2.200																			1580062119.0	4.56	8.45
26/01/2020 18:08:40	26012020	260120	180840	95.970	12.192487	-56.145335	96.140	0.030	-0.000	0.940	96.020	-1.400	1.500																			1580062120.0	4.68	8.67
26/01/2020 18:08:41	26012020	260120	180841	96.190	12.192485	-56.145315	96.340	0.090	0.560	-0.090	96.240	-0.600	-0.200																			1580062121.0	4.20	7.78
26/01/2020 18:08:42	26012020	260120	180842	96.370	12.192487	-56.145298	96.480	0.190	0.860	-1.070	96.390	-0.500	-0.500																			1580062122.0	3.75	6.95
26/01/2020 18:08:43	26012020	260120	180843	96.480	12.192488	-56.145280	96.560	0.410	0.550	-1.820	96.500	-1.100	-1.700																			1580062123.0	3.80	7.04
26/01/2020 18:08:44	26012020	260120	180844	96.540	12.192490	-56.145260	96.600	0.630	-0.250	-2.160	96.550	-1.400	-1.800																			1580062124.0	4.29	7.95
26/01/2020 18:08:45	26012020	260120	180845	96.600	12.192492	-56.145237	96.660	0.620	-0.950	-1.950	96.610	-2.200	-1.700																			1580062125.0	4.72	8.74
26/01/2020 18:08:46	26012020	260120	180846	96.640	12.192488	-56.145215	96.680	0.300	-1.090	-1.170	96.640	-2.500	-1.000																			1580062126.0	4.69	8.69
26/01/2020 18:08:47	26012020	260120	180847	96.540	12.192483	-56.145197	96.540	-0.200	-0.710	0.070	96.490	-2.200	0.100																			1580062127.0	4.32	8.00
26/01/2020 18:08:48	26012020	260120	180848	96.140	12.192473	-56.145180	96.210	-0.640	-0.210	1.450	96.140	-1.700	1.500																			1580062128.0	4.15	7.69
26/01/2020 18:08:49	26012020	260120	180849	95.840	12.192460	-56.145163	95.890	-0.800	0.050	2.420	95.780	-1.300	2.600																			1580062129.0	4.35	8.06
26/01/2020 18:08:50	26012020	260120	180850	95.640	12.192448	-56.145145	95.760	-0.600	-0.030	2.670	95.630	-1.300	3.000																			1580062130.0	4.56	8.45
26/01/2020 18:08:51	26012020	260120	180851	95.700	12.192440	-56.145125	95.870	-0.210	-0.160	2.230	95.740	-1.500	2.700																			1580062131.0	4.73	8.76
26/01/2020 18:08:52	26012020	260120	180852	95.920	12.192435	-56.145103	96.080	0.100	0.080	1.230	95.970	-1.400	1.800																			1580062132.0	4.68	8.67
26/01/2020 18:08:53	26012020	260120	180853	96.130	12.192433	-56.145083	96.250	0.200	0.570	-0.040	96.170	-0.900	0.600																			1580062133.0	4.24	7.85
26/01/2020 18:08:54	26012020	260120	180854	96.380	12.192437	-56.145065	96.420	0.190	0.790	-1.280	96.380	-0.600	-0.700																			1580062134.0	3.81	7.06
26/01/2020 18:08:55	26012020	260120	180855	96.530	12.192440	-56.145047	96.570	0.240	0.330	-2.110	96.550	-1.400	-1.900																			1580062135.0	3.84	7.11
26/01/2020 18:08:56	26012020	260120	180856	96.550	12.192443	-56.145027	96.530	0.440	-0.600	-2.270	96.530	-1.700	-1.900																			1580062136.0	4.28	7.93
26/01/2020 18:08:57	26012020	260120	180857	96.390	12.192442	-56.145005	96.340	0.600	-1.280	-1.840	96.350	-2.700	-1.100																			1580062137.0	4.77	8.83
26/01/2020 18:08:58	26012020	260120	180858	96.140	12.192438	-56.144983	96.090	0.460	-1.190	-0.940	96.090	-2.600	-0.800																			1580062138.0	4.74	8.78
26/01/2020 18:08:59	26012020	260120	180859	95.870	12.192432	-56.144963	95.870	-0.020	-0.460	0.180	95.820	-2.000	0.300	1014.20	26.20	26.30	20.50	20.60	761.00	71.00	70.00	380.00	29.50	358.00	5.70	93.00	3.40	54030	3483.00	27.80	27.80	1580062139.0	4.26	7.89
26/01/2020 18:09:00	26012020	260120	180900	95.680	12.192423	-56.144948	95.710	-0.570	0.280	1.220	95.660	-1.200	1.400																			1580062140.0	3.86	7.15
26/01/2020 18:09:01	26012020	260120	180901	95.600	12.192413	-56.144932	95.680	-0.840	0.510	1.910	95.590	-0.800	2.100																			1580062141.0	3.96	7.33
26/01/2020 18:09:02	26012020	260120	180902	95.590	12.192403	-56.144915	95.680	-0.700	0.220	2.070	95.590	-1.000	2.400																			1580062142.0	4.36	8.07
26/01/2020 18:09:03	26012020	260120	180903	95.660	12.192395	-56.144893	95.790	-0.260	-0.170	1.690	95.690	-1.500	2.200																			1580062143.0	4.75	8.80
26/01/2020 18:09:04	26012020	260120	180904	95.860	12.192390	-56.144872	95.960	0.190	-0.230	0.950	95.860	-1.600	1.500																			1580062144.0	4.77	8.83
26/01/2020 18:09:05	26012020	260120	180905	96.030	12.192388	-56.144850	96.140	0.400	0.100	-0.010	96.080	-1.300	0.500																			1580062145.0	4.37	8.09
26/01/2020 18:09:06	26012020	260120	180906	96.220	12.192390	-56.144833	96.260	0.360	0.380	-0.870	96.220	-1.000	-0.400																			1580062146.0	3.84	7.11
26/01/2020 18:09:07	26012020	260120	180907	96.210	12.192392	-56.144815	96.180	0.280	0.130	-1.320	96.180	-1.500	-1.000																			1580062147.0	3.69	6.83
26/01/2020 18:09:08	26012020	260120	180908	96.030	12.192392	-56.144797	95.990	0.300	-0.480	-1.350	95.990	-1.700	-1.000																			1580062148.0	4.08	7.56
26/01/2020 18:09:09	26012020	260120	180909	95.830	12.192390	-56.144775	95.830	0.310	-0.890	-1.100	95.800	-2.300	-0.500																			1580062149.0	4.56	8.45
26/01/2020 18:09:10	26012020	260120	180910	95.690	12.192387	-56.144753	95.690	0.160	-0.810	-0.560	95.660	-2.200	-0.400																			1580062150.0	4.57	8.46
26/01/2020 18:09:11	26012020	260120	180911	95.580	12.192380	-56.144733	95.610	-0.140	-0.340	0.170	95.550	-1.800	0.400																			1580062151.0	4.25	7.87
26/01/2020 18:09:12	26012020	260120	180912	95.460	12.192372	-56.144717	95.540	-0.390	0.200	0.790	95.460	-1.300	1.000																			1580062152.0	4.04	7.48
26/01/2020 18:09:13	26012020	260120	180913	95.430	12.192365	-56.144700	95.540	-0.440	0.530	1.030	95.430	-0.900	1.300																			1580062153.0	3.93	7.28
26/01/2020 18:09:14	26012020	260120	180914	95.540	12.192358	-56.144682	95.670	-0.320	0.410	1.000	95.540	-0.900	1.400																			1580062154.0	3.98	7.37
26/01/2020 18:09:15	26012020	260120	180915	95.680	12.192353	-56.144663	95.840	-0.140	-0.040	0.830	95.710	-1.300	1.200																			1580062155.0	4.28	7.93
26/01/2020 18:09:16	26012020	260120	180916	95.870	12.192348	-56.144642	95.990	0.020	-0.490	0.500	95.870	-1.800	0.900																			1580062156.0	4.57	8.46
26/01/2020 18:09:17	26012020	260120	180917	95.890	12.192345	-56.144620	95.980	0.160	-0.590	0.170	95.880	-2.000	0.600																			1580062157.0	4.58	8.48
26/01/2020 18:09:18	26012020	260120	180918	95.720	12.192343	-56.144600	95.790	0.220	-0.270	-0.020	95.720	-1.700	0.400																			1580062158.0	4.30	7.96
26/01/2020 18:09:19	26012020	260120	180919	95.570	12.192340	-56.144582	95.600	0.190	0.160	-0.160	95.540	-1.300	0.200																			1580062159.0	3.86	7.15
26/01/2020 18:09:20	26012020	260120	180920	95.460	12.192338	-56.144565	95.540	0.150	0.270	-0.370	95.460	-1.100	0.000																			1580062160.0	3.66	6.78
26/01/2020 18:09:21	26012020	260120	180921	95.500	12.192337	-56.144547	95.590	0.160	0.010	-0.630	95.530	-1.300	-0.200																			1580062161.0	3.92	7.26
26/01/2020 18:09:22	26012020	260120	180922	95.640	12.192335	-56.144527	95.690	0.180	-0.310	-0.770	95.640	-1.600	-0.400																			1580062162.0	4.32	8.00
26/01/2020 18:09:23	26012020	260120	180923	95.660	12.192332	-56.144505	95.700	0.140	-0.440	-0.570	95.650	-1.800	-0.300																			1580062163.0	4.43	8.20
26/01/2020 18:09:24	26012020	260120	180924	95.550	12.192328	-56.144485	95.580	0.030	-0.410	-0.080	95.520	-1.800	0.200																			1580062164.0	4.27	7.91
26/01/2020 18:09:25	26012020	260120	180925	95.370	12.192323	-56.144467	95.420	-0.090	-0.330	0.460	95.330	-1.700	0.700																			1580062165.0	4.19	7.76
26/01/2020 18:09:26	26012020	260120	180926	95.240	12.192317	-56.144447	95.350	-0.190	-0.250	0.930	95.240	-1.600	1.200																			1580062166.0	4.24	7.85
26/01/2020 18:09:27	26012020	260120	180927	95.250	12.192310	-56.144428	95.360	-0.260	-0.160	1.190	95.260	-1.500	1.500																			1580062167.0	4.34	8.04
26/01/2020 18:09:28	26012020	260120	180928	95.330	12.192303	-56.144408	95.430	-0.310	0.040	1.130	95.330	-1.400	1.500																			1580062168.0	4.36	8.07
26/01/2020 18:09:29	26012020	260120	180929	95.360	12.192297	-56.144390	95.440	-0.310	0.330	0.840	95.360	-1.100	1.300																			1580062169.0	4.22	7.82
26/01/2020 18:09:30	26012020	260120	180930	95.400	12.192293	-56.144372	95.510	-0.240	0.570	0.400	95.420	-0.800	0.900																			1580062170.0	3.98	7.37
26/01/2020 18:09:31	26012020	260120	180931	95.530	12.192292	-56.144353	95.660	-0.080	0.440	-0.170	95.570	-1.200	-0.100																			1580062171.0	3.82	7.07
26/01/2020 18:09:32	26012020	260120	180932	95.690	12.192290	-56.144335	95.770	0.200	-0.220	-0.730	95.690	-1.400	-0.300																			1580062172.0	4.00	7.41
26/01/2020 18:09:33	26012020	260120	180933	95.720	12.192290	-56.144313	95.770	0.520	-0.980	-1.100	95.720	-2.200	-0.700																			1580062173.0	4.55	8.43
26/01/2020 18:09:34	26012020	260120	180934	95.650	12.192290	-56.144290	95.680	0.660	-1.130	-1.040	95.650	-2.500	-0.700																			1580062174.0	4.85	8.98
26/01/2020 18:09:35	26012020	260120	180935	95.530	12.192287	-56.144268	95.530	0.450	-0.620	-0.540	95.490	-2.100	-0.300																			1580062175.0	4.41	8.17
26/01/2020 18:09:36	26012020	260120	180936	95.310	12.192282	-56.144252	95.350	0.040	0.050	0.140	95.310	-1.400	0.400																			1580062176.0	3.82	7.07
26/01/2020 18:09:37	26012020	260120	180937	95.170	12.192275	-56.144235	95.210	-0.270	0.380	0.640	95.140	-1.000	0.900																			1580062177.0	3.72	6.89
26/01/2020 18:09:38	26012020	260120	180938	95.100	12.192270	-56.144218	95.190	-0.300	0.210	0.850	95.100	-1.100	1.200																			1580062178.0	4.05	7.50
26/01/2020 18:09:39	26012020	260120	180939	95.200	12.192263	-56.144197	95.300	-0.170	-0.140	0.860	95.230	-1.400	1.200																			1580062179.0	4.54	8.41
26/01/2020 18:09:40	26012020	260120	180940	95.420	12.192258	-56.144175	95.490	-0.130	-0.120	0.770	95.420	-1.500	1.100																			1580062180.0	4.78	8.85
26/01/2020 18:09:41	26012020	260120	180941	95.550	12.192253	-56.144155	95.660	-0.270	0.300	0.450	95.590	-1.200	0.900																			1580062181.0	4.36	8.07
26/01/2020 18:09:42	26012020	260120	180942	95.720	12.192250	-56.144138	95.800	-0.380	0.510	0.040	95.720	-0.900	0.500																			1580062182.0	3.68	6.82
26/01/2020 18:09:43	26012020	260120	180943	95.740	12.192248	-56.144120	95.800	-0.200	0.060	-0.230	95.740	-1.200	0.200																			1580062183.0	3.63	6.72
26/01/2020 18:09:44	26012020	260120	180944	95.690	12.192247	-56.144100	95.750	0.160	-0.660	-0.360	95.690	-1.900	0.000																			1580062184.0	4.30	7.96
26/01/2020 18:09:45	26012020	260120	180945	95.640	12.192243	-56.144078	95.680	0.390	-0.960	-0.440	95.620	-2.300	-0.100																			1580062185.0	4.76	8.82
26/01/2020 18:09:46	26012020	260120	180946	95.480	12.192242	-56.144057	95.530	0.330	-0.680	-0.300	95.480	-2.100	0.000																			1580062186.0	4.46	8.26
26/01/2020 18:09:47	26012020	260120	180947	95.340	12.192238	-56.144038	95.370	0.140	-0.230	0.010	95.310	-1.700	0.300																			1580062187.0	3.93	7.28
26/01/2020 18:09:48	26012020	260120	180948	95.220	12.192233	-56.144022	95.300	0.020	0.010	0.260	95.220	-1.400	0.600																			1580062188.0	3.84	7.11
26/01/2020 18:09:49	26012020	260120	180949	95.210	12.192227	-56.144003	95.300	0.040	0.010	0.340	95.210	-1.300	0.700																			1580062189.0	4.14	7.67
26/01/2020 18:09:50	26012020	260120	180950	95.210	12.192223	-56.143982	95.300	0.100	0.030	0.300	95.210	-1.400	0.700																			1580062190.0	4.44	8.22
26/01/2020 18:09:51	26012020	260120	180951	95.260	12.192220	-56.143962	95.410	0.050	0.300	0.140	95.290	-1.200	0.500																			1580062191.0	4.43	8.20
26/01/2020 18:09:52	26012020	260120	180952	95.490	12.192217	-56.143943	95.680	-0.120	0.600	-0.080	95.550	-0.800	0.300																			1580062192.0	4.04	7.48
26/01/2020 18:09:53	26012020	260120	180953	95.850	12.192215	-56.143925	96.020	-0.280	0.490	-0.250	95.910	-0.800	0.100																			1580062193.0	3.72	6.89
26/01/2020 18:09:54	26012020	260120	180954	96.060	12.192212	-56.143907	96.160	-0.260	-0.180	-0.220	96.060	-1.400	0.100																			1580062194.0	3.94	7.30
26/01/2020 18:09:55	26012020	260120	180955	95.940	12.192207	-56.143887	95.950	-0.090	-0.920	0.080	95.880	-2.200	0.400																			1580062195.0	4.53	8.39
26/01/2020 18:09:56	26012020	260120	180956	95.580	12.192202	-56.143863	95.660	0.070	-1.120	0.500	95.580	-2.500	0.800																			1580062196.0	4.81	8.91
26/01/2020 18:09:57	26012020	260120	180957	95.400	12.192195	-56.143843	95.480	0.080	-0.780	0.780	95.360	-1.900	1.200																			1580062197.0	4.45	8.24
26/01/2020 18:09:58	26012020	260120	180958	95.260	12.192190	-56.143827	95.360	0.020	-0.310	0.790	95.240	-1.800	1.200																			1580062198.0	3.99	7.39
26/01/2020 18:09:59	26012020	260120	180959	95.220	12.192185	-56.143808	95.360	-0.000	-0.010	0.510	95.220	-1.400	0.900	1014.20	26.20	26.30	20.40	20.40	762.00	70.00	70.00	380.00	29.50	357.00	5.80	91.00	3.60	53963	3758.00	27.80	27.80	1580062199.0	3.90	7.22
26/01/2020 18:10:00	26012020	260120	181000	95.300	12.192183	-56.143788	95.440	0.050	0.140	0.130	95.300	-1.300	0.600																			1580062200.0	4.16	7.70
26/01/2020 18:10:01	26012020	260120	181001	95.380	12.192180	-56.143768	95.530	0.100	0.360	-0.190	95.410	-1.100	0.200																			1580062201.0	4.38	8.11
26/01/2020 18:10:02	26012020	260120	181002	95.570	12.192178	-56.143748	95.700	0.090	0.620	-0.500	95.570	-0.800	-0.100																			1580062202.0	4.27	7.91
26/01/2020 18:10:03	26012020	260120	181003	95.750	12.192177	-56.143728	95.900	0.050	0.660	-0.800	95.800	-0.700	-0.400																			1580062203.0	4.02	7.45
26/01/2020 18:10:04	26012020	260120	181004	96.010	12.192173	-56.143710	96.130	0.060	0.310	-0.950	96.010	-1.000	-0.600																			1580062204.0	3.97	7.35
26/01/2020 18:10:05	26012020	260120	181005	96.130	12.192172	-56.143690	96.260	0.130	-0.330	-0.760	96.140	-1.500	-0.500																			1580062205.0	4.19	7.76
26/01/2020 18:10:06	26012020	260120	181006	96.080	12.192168	-56.143670	96.170	0.180	-0.940	-0.220	96.080	-2.200	-0.000																			1580062206.0	4.46	8.26
26/01/2020 18:10:07	26012020	260120	181007	95.900	12.192163	-56.143648	95.930	0.120	-1.150	0.490	95.850	-2.500	0.700																			1580062207.0	4.58	8.48
26/01/2020 18:10:08	26012020	260120	181008	95.630	12.192155	-56.143630	95.680	-0.060	-0.890	1.140	95.570	-2.300	1.400																			1580062208.0	4.44	8.22
26/01/2020 18:10:09	26012020	260120	181009	95.390	12.192148	-56.143612	95.470	-0.250	-0.440	1.570	95.350	-1.900	1.900																			1580062209.0	4.21	7.80
26/01/2020 18:10:10	26012020	260120	181010	95.220	12.192140	-56.143593	95.360	-0.330	-0.070	1.620	95.220	-1.500	2.000																			1580062210.0	4.12	7.63
26/01/2020 18:10:11	26012020	260120	181011	95.200	12.192135	-56.143573	95.340	-0.280	0.150	1.230	95.210	-1.300	1.700																			1580062211.0	4.25	7.87
26/01/2020 18:10:12	26012020	260120	181012	95.300	12.192132	-56.143553	95.470	-0.150	0.390	0.500	95.330	-1.000	1.000																			1580062212.0	4.40	8.15
26/01/2020 18:10:13	26012020	260120	181013	95.560	12.192130	-56.143533	95.760	-0.000	0.610	-0.350	95.630	-0.800	0.200																			1580062213.0	4.32	8.00
26/01/2020 18:10:14	26012020	260120	181014	95.910	12.192130	-56.143513	96.090	0.110	0.630	-1.090	95.980	-0.700	-0.600																			1580062214.0	4.17	7.72
26/01/2020 18:10:15	26012020	260120	181015	96.210	12.192132	-56.143493	96.360	0.150	0.330	-1.540	96.260	-1.000	-1.100																			1580062215.0	4.13	7.65
26/01/2020 18:10:16	26012020	260120	181016	96.400	12.192130	-56.143473	96.490	0.160	-0.200	-1.530	96.400	-1.400	-1.200																			1580062216.0	4.26	7.89
26/01/2020 18:10:17	26012020	260120	181017	96.350	12.192127	-56.143453	96.380	0.180	-0.640	-1.000	96.320	-1.900	-0.800																			1580062217.0	4.39	8.13
26/01/2020 18:10:18	26012020	260120	181018	96.050	12.192122	-56.143433	96.110	0.200	-0.850	-0.160	96.050	-2.200	-0.000																			1580062218.0	4.37	8.09
26/01/2020 18:10:19	26012020	260120	181019	95.810	12.192115	-56.143413	95.800	0.250	-0.940	0.730	95.740	-2.300	0.900																			1580062219.0	4.29	7.95
26/01/2020 18:10:20	26012020	260120	181020	95.530	12.192108	-56.143395	95.550	0.240	-0.890	1.390	95.480	-2.300	1.600																			1580062220.0	4.41	8.17
26/01/2020 18:10:21	26012020	260120	181021	95.380	12.192100	-56.143373	95.500	0.040	-0.480	1.640	95.380	-2.000	2.000																			1580062221.0	4.56	8.45
26/01/2020 18:10:22	26012020	260120	181022	95.490	12.192095	-56.143355	95.630	-0.310	0.240	1.540	95.490	-1.300	1.900																			1580062222.0	4.32	8.00
26/01/2020 18:10:23	26012020	260120	181023	95.690	12.192090	-56.143337	95.870	-0.550	0.820	1.170	95.740	-0.500	1.300																			1580062223.0	3.91	7.24
26/01/2020 18:10:24	26012020	260120	181024	95.960	12.192085	-56.143318	96.080	-0.490	0.850	0.550	95.960	-0.500	1.000																			1580062224.0	3.85	7.13
26/01/2020 18:10:25	26012020	260120	181025	96.100	12.192083	-56.143300	96.230	-0.200	0.420	-0.200	96.130	-0.800	0.300																			1580062225.0	4.22	7.82
26/01/2020 18:10:26	26012020	260120	181026	96.280	12.192082	-56.143278	96.370	0.070	-0.160	-0.840	96.280	-1.400	-0.400																			1580062226.0	4.61	8.54
26/01/2020 18:10:27	26012020	260120	181027	96.380	12.192082	-56.143255	96.490	0.210	-0.580	-1.220	96.410	-1.900	-0.800																			1580062227.0	4.66	8.63
26/01/2020 18:10:28	26012020	260120	181028	96.430	12.192080	-56.143235	96.500	0.260	-0.650	-1.220	96.430	-2.000	-0.900																			1580062228.0	4.46	8.26
26/01/2020 18:10:29	26012020	260120	181029	96.360	12.192077	-56.143215	96.400	0.240	-0.420	-0.910	96.330	-1.900	-0.700																			1580062229.0	4.15	7.69
26/01/2020 18:10:30	26012020	260120	181030	96.150	12.192073	-56.143197	96.230	0.160	-0.240	-0.400	96.150	-1.600	-0.200																			1580062230.0	3.92	7.26
26/01/2020 18:10:31	26012020	260120	181031	95.980	12.192067	-56.143178	96.020	0.050	-0.260	0.240	95.940	-1.600	0.400																			1580062231.0	4.04	7.48
26/01/2020 18:10:32	26012020	260120	181032	95.820	12.192060	-56.143160	95.910	-0.010	-0.330	0.740	95.810	-1.700	1.000																			1580062232.0	4.40	8.15
26/01/2020 18:10:33	26012020	260120	181033	95.770	12.192053	-56.143138	95.890	0.020	-0.280	0.980	95.770	-1.700	1.300																			1580062233.0	4.57	8.46
26/01/2020 18:10:34	26012020	260120	181034	95.780	12.192048	-56.143118	95.920	0.080	-0.110	0.990	95.780	-1.500	1.300																			1580062234.0	4.47	8.28
26/01/2020 18:10:35	26012020	260120	181035	95.840	12.192043	-56.143098	95.990	0.030	0.130	0.760	95.860	-1.100	0.900																			1580062235.0	4.34	8.04
26/01/2020 18:10:36	26012020	260120	181036	96.030	12.192040	-56.143078	96.170	-0.140	0.380	0.380	96.030	-1.100	0.800																			1580062236.0	4.19	7.76
26/01/2020 18:10:37	26012020	260120	181037	96.200	12.192038	-56.143060	96.370	-0.280	0.440	0.000	96.240	-0.900	0.400																			1580062237.0	4.02	7.45
26/01/2020 18:10:38	26012020	260120	181038	96.360	12.192035	-56.143042	96.500	-0.270	0.170	-0.270	96.370	-1.100	0.100																			1580062238.0	4.04	7.48
26/01/2020 18:10:39	26012020	260120	181039	96.370	12.192033	-56.143020	96.470	-0.090	-0.290	-0.370	96.360	-1.600	-0.000																			1580062239.0	4.32	8.00
26/01/2020 18:10:40	26012020	260120	181040	96.260	12.192028	-56.143000	96.330	0.110	-0.640	-0.240	96.220	-2.000	0.100																			1580062240.0	4.56	8.45
26/01/2020 18:10:41	26012020	260120	181041	96.090	12.192023	-56.142978	96.170	0.160	-0.660	-0.020	96.060	-2.100	0.300																			1580062241.0	4.55	8.43
26/01/2020 18:10:42	26012020	260120	181042	95.930	12.192018	-56.142960	96.050	0.050	-0.390	0.130	95.930	-1.800	0.400																			1580062242.0	4.27	7.91
26/01/2020 18:10:43	26012020	260120	181043	95.870	12.192013	-56.142942	95.970	-0.050	-0.180	0.210	95.860	-1.600	0.500																			1580062243.0	3.97	7.35
26/01/2020 18:10:44	26012020	260120	181044	95.830	12.192010	-56.142922	95.930	0.010	-0.210	0.240	95.820	-1.600	0.600																			1580062244.0	4.05	7.50
26/01/2020 18:10:45	26012020	260120	181045	95.830	12.192005	-56.142902	95.960	0.150	-0.280	0.180	95.830	-1.700	0.500																			1580062245.0	4.45	8.24
26/01/2020 18:10:46	26012020	260120	181046	95.870	12.192002	-56.142880	95.980	0.180	-0.090	0.050	95.870	-1.500	0.400																			1580062246.0	4.60	8.52
26/01/2020 18:10:47	26012020	260120	181047	95.890	12.191998	-56.142860	96.020	0.080	0.280	-0.050	95.910	-1.000	0.300																			1580062247.0	4.32	8.00
26/01/2020 18:10:48	26012020	260120	181048	96.020	12.191995	-56.142842	96.130	-0.020	0.460	-0.150	96.020	-0.900	0.200																			1580062248.0	3.99	7.39
26/01/2020 18:10:49	26012020	260120	181049	96.130	12.191992	-56.142823	96.250	-0.050	0.250	-0.250	96.160	-1.100	0.100																			1580062249.0	4.03	7.46
26/01/2020 18:10:50	26012020	260120	181050	96.220	12.191988	-56.142803	96.310	-0.070	-0.160	-0.250	96.220	-1.500	0.100																			1580062250.0	4.36	8.07
26/01/2020 18:10:51	26012020	260120	181051	96.160	12.191985	-56.142782	96.200	-0.120	-0.470	-0.010	96.140	-1.800	0.300																			1580062251.0	4.54	8.41
26/01/2020 18:10:52	26012020	260120	181052	95.990	12.191980	-56.142762	96.020	-0.170	-0.510	0.400	95.940	-1.900	0.700																			1580062252.0	4.48	8.30
26/01/2020 18:10:53	26012020	260120	181053	95.820	12.191973	-56.142742	95.900	-0.200	-0.310	0.700	95.810	-1.800	1.000																			1580062253.0	4.33	8.02
26/01/2020 18:10:54	26012020	260120	181054	95.800	12.191967	-56.142723	95.910	-0.200	-0.070	0.730	95.800	-1.500	1.100																			1580062254.0	4.15	7.69
26/01/2020 18:10:55	26012020	260120	181055	95.870	12.191962	-56.142705	96.000	-0.140	-0.020	0.540	95.900	-1.400	0.900																			1580062255.0	4.07	7.54
26/01/2020 18:10:56	26012020	260120	181056	95.990	12.191957	-56.142685	96.080	0.040	-0.170	0.180	96.000	-1.500	0.600																			1580062256.0	4.21	7.80
26/01/2020 18:10:57	26012020	260120	181057	96.010	12.191953	-56.142665	96.070	0.310	-0.360	-0.180	96.000	-1.700	0.200																			1580062257.0	4.41	8.17
26/01/2020 18:10:58	26012020	260120	181058	95.910	12.191952	-56.142643	95.960	0.500	-0.390	-0.430	95.910	-1.800	-0.000																			1580062258.0	4.54	8.41
26/01/2020 18:10:59	26012020	260120	181059	95.820	12.191950	-56.142622	95.850	0.430	-0.210	-0.510	95.800	-1.600	-0.200	1014.20	26.20	26.30	20.50	20.60	760.00	71.00	71.00	380.00	29.60	0.00	5.60	96.00	3.40	53778	3211.00	27.80	27.80	1580062259.0	4.45	8.24
26/01/2020 18:11:00	26012020	260120	181100	95.750	12.191948	-56.142602	95.820	0.120	0.010	-0.420	95.750	-1.400	-0.100																			1580062260.0	4.23	7.83
26/01/2020 18:11:01	26012020	260120	181101	95.750	12.191947	-56.142583	95.840	-0.220	0.140	-0.150	95.750	-1.300	0.100																			1580062261.0	4.14	7.67
26/01/2020 18:11:02	26012020	260120	181102	95.810	12.191942	-56.142563	95.910	-0.420	0.120	0.140	95.820	-1.300	0.400																			1580062262.0	4.25	7.87
26/01/2020 18:11:03	26012020	260120	181103	95.890	12.191935	-56.142543	96.020	-0.400	0.030	0.380	95.910	-1.300	0.700																			1580062263.0	4.42	8.19
26/01/2020 18:11:04	26012020	260120	181104	95.940	12.191928	-56.142523	96.050	-0.240	-0.020	0.630	95.950	-1.400	0.900																			1580062264.0	4.53	8.39
26/01/2020 18:11:05	26012020	260120	181105	95.960	12.191920	-56.142503	96.060	-0.050	0.010	0.750	95.960	-1.400	1.100																			1580062265.0	4.46	8.26
26/01/2020 18:11:06	26012020	260120	181106	96.020	12.191915	-56.142485	96.140	0.090	0.030	0.540	96.040	-1.400	1.000																			1580062266.0	4.26	7.89
26/01/2020 18:11:07	26012020	260120	181107	96.160	12.191912	-56.142465	96.300	0.170	-0.070	0.130	96.190	-1.400	0.600																			1580062267.0	4.08	7.56
26/01/2020 18:11:08	26012020	260120	181108	96.220	12.191910	-56.142447	96.270	0.240	-0.440	-0.140	96.210	-1.700	0.200																			1580062268.0	4.11	7.61
26/01/2020 18:11:09	26012020	260120	181109	96.030	12.191908	-56.142425	96.020	0.300	-0.900	-0.160	95.970	-2.200	0.200																			1580062269.0	4.43	8.20
26/01/2020 18:11:10	26012020	260120	181110	95.650	12.191905	-56.142403	95.710	0.220	-0.990	-0.020	95.650	-2.400	0.300																			1580062270.0	4.75	8.80
26/01/2020 18:11:11	26012020	260120	181111	95.520	12.191902	-56.142382	95.600	-0.020	-0.500	0.150	95.500	-2.000	0.500																			1580062271.0	4.63	8.57
26/01/2020 18:11:12	26012020	260120	181112	95.570	12.191897	-56.142363	95.690	-0.320	0.320	0.230	95.600	-1.200	0.600																			1580062272.0	4.18	7.74
26/01/2020 18:11:13	26012020	260120	181113	95.750	12.191890	-56.142345	95.890	-0.460	0.900	0.170	95.780	-0.600	0.500																			1580062273.0	3.80	7.04
26/01/2020 18:11:14	26012020	260120	181114	95.910	12.191885	-56.142328	96.020	-0.300	0.810	-0.050	95.930	-0.500	0.400																			1580062274.0	3.84	7.11
26/01/2020 18:11:15	26012020	260120	181115	96.010	12.191882	-56.142308	96.120	0.100	0.140	-0.310	96.030	-1.100	0.100																			1580062275.0	4.34	8.04
26/01/2020 18:11:16	26012020	260120	181116	96.140	12.191878	-56.142285	96.230	0.510	-0.580	-0.470	96.140	-1.800	-0.100																			1580062276.0	4.89	9.06
26/01/2020 18:11:17	26012020	260120	181117	96.230	12.191877	-56.142262	96.340	0.660	-0.840	-0.510	96.250	-2.200	-0.200																			1580062277.0	4.98	9.22
26/01/2020 18:11:18	26012020	260120	181118	96.300	12.191873	-56.142240	96.370	0.410	-0.570	-0.390	96.300	-2.000	-0.100																			1580062278.0	4.53	8.39
26/01/2020 18:11:19	26012020	260120	181119	96.300	12.191872	-56.142222	96.380	-0.110	-0.060	-0.040	96.300	-1.600	0.200																			1580062279.0	3.95	7.32
26/01/2020 18:11:20	26012020	260120	181120	96.260	12.191867	-56.142205	96.330	-0.600	0.290	0.560	96.240	-1.100	0.800																			1580062280.0	3.70	6.85
26/01/2020 18:11:21	26012020	260120	181121	96.100	12.191858	-56.142188	96.160	-0.780	0.230	1.190	96.060	-1.100	1.400																			1580062281.0	4.01	7.43
26/01/2020 18:11:22	26012020	260120	181122	95.870	12.191848	-56.142168	95.970	-0.640	-0.140	1.450	95.870	-1.400	1.800																			1580062282.0	4.55	8.43
26/01/2020 18:11:23	26012020	260120	181123	95.790	12.191840	-56.142148	95.900	-0.290	-0.480	1.190	95.780	-1.800	1.600																			1580062283.0	4.83	8.95
26/01/2020 18:11:24	26012020	260120	181124	95.860	12.191835	-56.142127	95.970	0.160	-0.500	0.620	95.860	-1.900	1.100																			1580062284.0	4.71	8.72
26/01/2020 18:11:25	26012020	260120	181125	96.000	12.191832	-56.142105	96.130	0.560	-0.330	-0.130	96.040	-1.600	-0.100																			1580062285.0	4.39	8.13
26/01/2020 18:11:26	26012020	260120	181126	96.220	12.191832	-56.142085	96.300	0.790	-0.180	-0.920	96.220	-1.600	-0.400																			1580062286.0	4.22	7.82
26/01/2020 18:11:27	26012020	260120	181127	96.270	12.191835	-56.142065	96.330	0.730	-0.060	-1.440	96.270	-1.500	-1.000																			1580062287.0	4.34	8.04
26/01/2020 18:11:28	26012020	260120	181128	96.210	12.191835	-56.142045	96.260	0.370	0.120	-1.420	96.200	-1.300	-1.100																			1580062288.0	4.35	8.06
26/01/2020 18:11:29	26012020	260120	181129	96.160	12.191833	-56.142025	96.240	-0.090	0.270	-0.900	96.160	-1.100	-0.700																			1580062289.0	4.15	7.69
26/01/2020 18:11:30	26012020	260120	181130	96.220	12.191828	-56.142007	96.320	-0.430	0.210	-0.150	96.220	-1.100	0.000																			1580062290.0	4.13	7.65
26/01/2020 18:11:31	26012020	260120	181131	96.260	12.191820	-56.141988	96.340	-0.510	-0.100	0.560	96.260	-1.400	0.800																			1580062291.0	4.41	8.17
26/01/2020 18:11:32	26012020	260120	181132	96.130	12.191810	-56.141968	96.210	-0.400	-0.390	1.160	96.130	-1.700	1.400																			1580062292.0	4.71	8.72
26/01/2020 18:11:33	26012020	260120	181133	95.980	12.191802	-56.141947	96.030	-0.250	-0.450	1.530	95.940	-1.800	1.800																			1580062293.0	4.74	8.78
26/01/2020 18:11:34	26012020	260120	181134	95.860	12.191793	-56.141927	95.960	-0.170	-0.290	1.570	95.860	-1.700	1.900																			1580062294.0	4.46	8.26
26/01/2020 18:11:35	26012020	260120	181135	95.860	12.191788	-56.141908	95.940	-0.130	-0.100	1.230	95.870	-1.500	1.700																			1580062295.0	4.15	7.69
26/01/2020 18:11:36	26012020	260120	181136	95.890	12.191785	-56.141890	95.940	-0.010	-0.100	0.570	95.890	-1.500	1.100																			1580062296.0	4.04	7.48
26/01/2020 18:11:37	26012020	260120	181137	95.920	12.191783	-56.141870	95.930	0.230	-0.230	-0.170	95.920	-1.700	-0.100																			1580062297.0	4.24	7.85
26/01/2020 18:11:38	26012020	260120	181138	95.880	12.191783	-56.141848	95.890	0.470	-0.300	-0.740	95.870	-1.700	-0.300																			1580062298.0	4.50	8.33
26/01/2020 18:11:39	26012020	260120	181139	95.830	12.191782	-56.141827	95.860	0.530	-0.230	-1.080	95.820	-1.600	-0.700																			1580062299.0	4.51	8.35
26/01/2020 18:11:40	26012020	260120	181140	95.830	12.191782	-56.141807	95.880	0.380	-0.100	-1.180	95.830	-1.500	-0.800																			1580062300.0	4.35	8.06
26/01/2020 18:11:41	26012020	260120	181141	95.850	12.191778	-56.141787	95.930	0.130	0.030	-0.970	95.860	-1.400	-0.700																			1580062301.0	4.21	7.80
26/01/2020 18:11:42	26012020	260120	181142	95.880	12.191775	-56.141767	95.960	-0.110	0.170	-0.480	95.880	-1.200	-0.300																			1580062302.0	4.19	7.76
26/01/2020 18:11:43	26012020	260120	181143	95.880	12.191768	-56.141748	95.970	-0.290	0.210	0.190	95.870	-1.200	0.400																			1580062303.0	4.20	7.78
26/01/2020 18:11:44	26012020	260120	181144	95.740	12.191762	-56.141730	95.840	-0.390	0.060	0.890	95.740	-1.300	1.100																			1580062304.0	4.32	8.00
26/01/2020 18:11:45	26012020	260120	181145	95.590	12.191753	-56.141710	95.670	-0.380	-0.260	1.310	95.560	-1.600	1.600																			1580062305.0	4.52	8.37
26/01/2020 18:11:46	26012020	260120	181146	95.500	12.191745	-56.141690	95.630	-0.240	-0.530	1.320	95.500	-1.900	1.700																			1580062306.0	4.63	8.57
26/01/2020 18:11:47	26012020	260120	181147	95.550	12.191740	-56.141668	95.680	-0.080	-0.460	1.070	95.570	-1.900	1.500																			1580062307.0	4.58	8.48
26/01/2020 18:11:48	26012020	260120	181148	95.630	12.191737	-56.141648	95.720	0.010	-0.140	0.700	95.630	-1.600	1.100																			1580062308.0	4.26	7.89
26/01/2020 18:11:49	26012020	260120	181149	95.630	12.191733	-56.141630	95.700	0.100	0.020	0.240	95.620	-1.400	0.700																			1580062309.0	3.93	7.28
26/01/2020 18:11:50	26012020	260120	181150	95.530	12.191732	-56.141612	95.600	0.290	-0.190	-0.250	95.530	-1.500	0.200																			1580062310.0	4.05	7.50
26/01/2020 18:11:51	26012020	260120	181151	95.430	12.191730	-56.141590	95.450	0.500	-0.530	-0.610	95.400	-1.900	-0.200																			1580062311.0	4.52	8.37
26/01/2020 18:11:52	26012020	260120	181152	95.300	12.191728	-56.141568	95.340	0.540	-0.520	-0.760	95.290	-1.900	-0.400																			1580062312.0	4.81	8.91
26/01/2020 18:11:53	26012020	260120	181153	95.250	12.191727	-56.141547	95.320	0.250	0.000	-0.690	95.250	-1.500	-0.400																			1580062313.0	4.55	8.43
26/01/2020 18:11:54	26012020	260120	181154	95.290	12.191723	-56.141528	95.380	-0.280	0.580	-0.460	95.300	-0.900	-0.200																			1580062314.0	3.94	7.30
26/01/2020 18:11:55	26012020	260120	181155	95.380	12.191720	-56.141512	95.490	-0.700	0.700	-0.110	95.390	-0.700	0.200																			1580062315.0	3.68	6.82
26/01/2020 18:11:56	26012020	260120	181156	95.470	12.191713	-56.141493	95.570	-0.760	0.270	0.250	95.470	-1.000	0.500																			1580062316.0	4.05	7.50
26/01/2020 18:11:57	26012020	260120	181157	95.510	12.191707	-56.141472	95.620	-0.470	-0.320	0.580	95.520	-1.600	0.900																			1580062317.0	4.62	8.56
26/01/2020 18:11:58	26012020	260120	181158	95.550	12.191698	-56.141452	95.660	-0.050	-0.660	0.810	95.560	-2.000	1.100																			1580062318.0	4.84	8.96
26/01/2020 18:11:59	26012020	260120	181159	95.550	12.191690	-56.141430	95.630	0.350	-0.690	0.880	95.540	-2.100	1.200	1014.10	26.20	26.30	20.50	20.50	756.00	70.00	70.00	381.00	29.60	353.00	6.60	86.00	4.40	53519	3579.00	27.80	27.80	1580062319.0	4.64	8.59
26/01/2020 18:12:00	26012020	260120	181200	95.470	12.191685	-56.141410	95.520	0.610	-0.530	0.680	95.440	-1.900	1.100																			1580062320.0	4.30	7.96
26/01/2020 18:12:01	26012020	260120	181201	95.360	12.191683	-56.141392	95.410	0.670	-0.300	0.220	95.340	-1.700	0.700																			1580062321.0	4.15	7.69
26/01/2020 18:12:02	26012020	260120	181202	95.290	12.191683	-56.141372	95.330	0.490	-0.080	-0.210	95.270	-1.500	0.200																			1580062322.0	4.17	7.72
26/01/2020 18:12:03	26012020	260120	181203	95.200	12.191683	-56.141352	95.210	0.120	0.040	-0.350	95.180	-1.300	0.000																			1580062323.0	4.18	7.74
26/01/2020 18:12:04	26012020	260120	181204	95.090	12.191682	-56.141332	95.140	-0.270	-0.010	-0.280	95.080	-1.400	0.000																			1580062324.0	4.21	7.80
26/01/2020 18:12:05	26012020	260120	181205	95.070	12.191678	-56.141312	95.120	-0.490	-0.160	-0.110	95.070	-1.500	0.200																			1580062325.0	4.40	8.15
26/01/2020 18:12:06	26012020	260120	181206	95.060	12.191672	-56.141290	95.110	-0.480	-0.210	0.130	95.060	-1.600	0.400																			1580062326.0	4.62	8.56
26/01/2020 18:12:07	26012020	260120	181207	95.040	12.191665	-56.141270	95.100	-0.330	-0.020	0.340	95.040	-1.500	0.700																			1580062327.0	4.65	8.61
26/01/2020 18:12:08	26012020	260120	181208	95.090	12.191658	-56.141250	95.200	-0.190	0.340	0.390	95.110	-1.100	0.800																			1580062328.0	4.41	8.17
26/01/2020 18:12:09	26012020	260120	181209	95.290	12.191652	-56.141232	95.420	-0.120	0.610	0.180	95.340	-0.800	0.600																			1580062329.0	4.03	7.46
26/01/2020 18:12:10	26012020	260120	181210	95.580	12.191650	-56.141215	95.680	-0.030	0.410	-0.170	95.630	-0.900	0.300																			1580062330.0	3.81	7.06
26/01/2020 18:12:11	26012020	260120	181211	95.740	12.191648	-56.141195	95.790	0.170	-0.350	-0.420	95.750	-1.500	-0.000																			1580062331.0	4.09	7.57
26/01/2020 18:12:12	26012020	260120	181212	95.640	12.191645	-56.141173	95.660	0.430	-1.120	-0.360	95.640	-2.400	-0.100																			1580062332.0	4.68	8.67
26/01/2020 18:12:13	26012020	260120	181213	95.420	12.191642	-56.141150	95.390	0.560	-1.270	0.020	95.350	-2.700	0.300																			1580062333.0	4.93	9.13
26/01/2020 18:12:14	26012020	260120	181214	95.080	12.191637	-56.141130	95.070	0.490	-0.840	0.490	95.010	-2.300	0.800																			1580062334.0	4.51	8.35
26/01/2020 18:12:15	26012020	260120	181215	94.800	12.191632	-56.141110	94.810	0.280	-0.230	0.690	94.750	-1.400	1.000																			1580062335.0	4.07	7.54
26/01/2020 18:12:16	26012020	260120	181216	94.660	12.191628	-56.141092	94.730	0.040	0.250	0.600	94.660	-1.200	1.000																			1580062336.0	3.98	7.37
26/01/2020 18:12:17	26012020	260120	181217	94.730	12.191625	-56.141073	94.870	-0.200	0.540	0.430	94.760	-0.900	0.800																			1580062337.0	4.18	7.74
26/01/2020 18:12:18	26012020	260120	181218	95.030	12.191622	-56.141053	95.150	-0.460	0.700	0.230	95.030	-0.700	0.600																			1580062338.0	4.33	8.02
26/01/2020 18:12:19	26012020	260120	181219	95.290	12.191617	-56.141033	95.440	-0.650	0.660	0.000	95.360	-0.700	0.400																			1580062339.0	4.29	7.95
26/01/2020 18:12:20	26012020	260120	181220	95.580	12.191612	-56.141013	95.670	-0.600	0.370	-0.180	95.580	-0.900	0.200																			1580062340.0	4.23	7.83
26/01/2020 18:12:21	26012020	260120	181221	95.660	12.191608	-56.140993	95.760	-0.320	-0.120	-0.260	95.680	-1.400	0.100																			1580062341.0	4.29	7.95
26/01/2020 18:12:22	26012020	260120	181222	95.690	12.191603	-56.140973	95.770	0.080	-0.680	-0.250	95.690	-1.900	0.100																			1580062342.0	4.40	8.15
26/01/2020 18:12:23	26012020	260120	181223	95.650	12.191598	-56.140953	95.690	0.460	-1.190	-0.140	95.630	-2.500	0.200																			1580062343.0	4.49	8.32
26/01/2020 18:12:24	26012020	260120	181224	95.470	12.191595	-56.140932	95.490	0.720	-1.320	0.090	95.420	-2.700	0.400																			1580062344.0	4.63	8.57
26/01/2020 18:12:25	26012020	260120	181225	95.240	12.191592	-56.140910	95.270	0.650	-0.750	0.310	95.200	-2.300	0.600																			1580062345.0	4.62	8.56
26/01/2020 18:12:26	26012020	260120	181226	95.080	12.191588	-56.140890	95.180	0.250	0.270	0.440	95.080	-1.300	0.800																			1580062346.0	4.11	7.61
26/01/2020 18:12:27	26012020	260120	181227	95.070	12.191585	-56.140873	95.180	-0.240	0.970	0.530	95.080	-0.300	0.900																			1580062347.0	3.60	6.67
26/01/2020 18:12:28	26012020	260120	181228	95.160	12.191580	-56.140857	95.270	-0.500	0.940	0.520	95.160	-0.400	0.900																			1580062348.0	3.71	6.87
26/01/2020 18:12:29	26012020	260120	181229	95.300	12.191577	-56.140837	95.480	-0.430	0.300	0.270	95.350	-0.900	0.700																			1580062349.0	4.32	8.00
26/01/2020 18:12:30	26012020	260120	181230	95.540	12.191572	-56.140815	95.690	-0.180	-0.410	0.020	95.570	-1.700	0.400																			1580062350.0	4.87	9.02
26/01/2020 18:12:31	26012020	260120	181231	95.660	12.191567	-56.140792	95.770	-0.030	-0.700	-0.010	95.670	-2.100	0.300																			1580062351.0	4.98	9.22
26/01/2020 18:12:32	26012020	260120	181232	95.650	12.191562	-56.140770	95.730	-0.010	-0.480	0.070	95.630	-1.900	0.400																			1580062352.0	4.55	8.43
26/01/2020 18:12:33	26012020	260120	181233	95.520	12.191557	-56.140752	95.580	0.030	-0.150	0.060	95.480	-1.600	0.400																			1580062353.0	3.97	7.35
26/01/2020 18:12:34	26012020	260120	181234	95.270	12.191553	-56.140735	95.360	0.210	-0.110	0.020	95.270	-1.500	0.400																			1580062354.0	3.77	6.98
26/01/2020 18:12:35	26012020	260120	181235	95.160	12.191550	-56.140715	95.240	0.400	-0.310	-0.070	95.150	-1.600	0.300																			1580062355.0	4.15	7.69
26/01/2020 18:12:36	26012020	260120	181236	95.200	12.191548	-56.140695	95.270	0.380	-0.400	-0.160	95.200	-1.800	0.200																			1580062356.0	4.56	8.45
26/01/2020 18:12:37	26012020	260120	181237	95.280	12.191545	-56.140673	95.360	0.120	-0.170	-0.130	95.300	-1.600	0.200																			1580062357.0	4.53	8.39
26/01/2020 18:12:38	26012020	260120	181238	95.350	12.191543	-56.140653	95.430	-0.220	0.230	0.020	95.350	-1.200	0.300																			1580062358.0	4.17	7.72
26/01/2020 18:12:39	26012020	260120	181239	95.360	12.191538	-56.140635	95.420	-0.380	0.370	0.270	95.350	-1.000	0.600																			1580062359.0	3.90	7.22
26/01/2020 18:12:40	26012020	260120	181240	95.270	12.191532	-56.140617	95.360	-0.280	0.060	0.590	95.270	-1.200	0.900																			1580062360.0	4.13	7.65
26/01/2020 18:12:41	26012020	260120	181241	95.250	12.191525	-56.140597	95.350	-0.070	-0.320	0.740	95.250	-1.600	1.100																			1580062361.0	4.65	8.61
26/01/2020 18:12:42	26012020	260120	181242	95.270	12.191518	-56.140575	95.360	0.040	-0.400	0.630	95.270	-1.800	1.000																			1580062362.0	4.75	8.80
26/01/2020 18:12:43	26012020	260120	181243	95.290	12.191515	-56.140555	95.380	0.010	-0.210	0.390	95.290	-1.600	0.800																			1580062363.0	4.35	8.06
26/01/2020 18:12:44	26012020	260120	181244	95.270	12.191512	-56.140537	95.360	-0.000	-0.090	0.120	95.270	-1.500	0.500																			1580062364.0	3.95	7.32
26/01/2020 18:12:45	26012020	260120	181245	95.260	12.191510	-56.140517	95.340	0.080	-0.180	-0.140	95.250	-1.500	0.300																			1580062365.0	4.00	7.41
26/01/2020 18:12:46	26012020	260120	181246	95.210	12.191507	-56.140497	95.280	0.170	-0.280	-0.330	95.210	-1.600	0.100																			1580062366.0	4.32	8.00
26/01/2020 18:12:47	26012020	260120	181247	95.180	12.191505	-56.140477	95.240	0.150	-0.210	-0.400	95.180	-1.600	-0.000																			1580062367.0	4.41	8.17
26/01/2020 18:12:48	26012020	260120	181248	95.230	12.191502	-56.140457	95.300	0.070	-0.040	-0.370	95.230	-1.400	-0.000																			1580062368.0	4.24	7.85
26/01/2020 18:12:49	26012020	260120	181249	95.260	12.191498	-56.140437	95.350	0.040	0.030	-0.290	95.270	-1.300	0.000																			1580062369.0	4.11	7.61
26/01/2020 18:12:50	26012020	260120	181250	95.260	12.191493	-56.140418	95.340	0.080	-0.040	-0.140	95.260	-1.400	0.200																			1580062370.0	4.17	7.72
26/01/2020 18:12:51	26012020	260120	181251	95.200	12.191490	-56.140398	95.250	0.070	-0.180	0.140	95.180	-1.500	0.400																			1580062371.0	4.34	8.04
26/01/2020 18:12:52	26012020	260120	181252	95.120	12.191485	-56.140378	95.200	-0.020	-0.270	0.460	95.110	-1.600	0.700																			1580062372.0	4.44	8.22
26/01/2020 18:12:53	26012020	260120	181253	95.090	12.191480	-56.140357	95.190	-0.100	-0.220	0.680	95.090	-1.500	1.100																			1580062373.0	4.44	8.22
26/01/2020 18:12:54	26012020	260120	181254	95.090	12.191473	-56.140338	95.180	-0.120	-0.050	0.730	95.090	-1.500	1.100																			1580062374.0	4.30	7.96
26/01/2020 18:12:55	26012020	260120	181255	95.100	12.191468	-56.140318	95.200	-0.090	0.080	0.620	95.110	-1.300	1.000																			1580062375.0	4.13	7.65
26/01/2020 18:12:56	26012020	260120	181256	95.130	12.191465	-56.140300	95.200	-0.070	0.070	0.420	95.130	-1.300	0.800																			1580062376.0	4.12	7.63
26/01/2020 18:12:57	26012020	260120	181257	95.140	12.191462	-56.140280	95.220	-0.080	-0.050	0.130	95.150	-1.400	0.500																			1580062377.0	4.19	7.76
26/01/2020 18:12:58	26012020	260120	181258	95.180	12.191458	-56.140260	95.260	-0.030	-0.270	-0.170	95.190	-1.600	0.200																			1580062378.0	4.25	7.87
26/01/2020 18:12:59	26012020	260120	181259	95.200	12.191457	-56.140240	95.280	0.110	-0.480	-0.330	95.200	-1.800	0.000	1014.10	26.20	26.30	20.40	20.40	753.00	70.00	70.00	380.00	29.60	351.00	7.20	82.00	5.00	53281	3646.00	27.80	27.80	1580062379.0	4.37	8.09
26/01/2020 18:13:00	26012020	260120	181300	95.190	12.191453	-56.140220	95.250	0.220	-0.510	-0.340	95.190	-1.900	0.000																			1580062380.0	4.46	8.26
26/01/2020 18:13:01	26012020	260120	181301	95.140	12.191450	-56.140198	95.190	0.170	-0.300	-0.210	95.130	-1.700	0.100																			1580062381.0	4.42	8.19
26/01/2020 18:13:02	26012020	260120	181302	95.060	12.191445	-56.140180	95.100	-0.000	0.080	-0.040	95.040	-1.400	0.300																			1580062382.0	4.20	7.78
26/01/2020 18:13:03	26012020	260120	181303	95.010	12.191440	-56.140162	95.080	-0.160	0.360	0.120	95.010	-1.000	0.400																			1580062383.0	3.98	7.37
26/01/2020 18:13:04	26012020	260120	181304	95.020	12.191435	-56.140143	95.100	-0.170	0.260	0.210	95.020	-1.100	0.500																			1580062384.0	3.97	7.35
26/01/2020 18:13:05	26012020	260120	181305	95.020	12.191432	-56.140123	95.090	-0.010	-0.190	0.200	95.020	-1.800	0.500																			1580062385.0	4.26	7.89
26/01/2020 18:13:06	26012020	260120	181306	95.010	12.191428	-56.140102	95.100	0.200	-0.600	0.130	95.010	-1.900	0.500																			1580062386.0	4.67	8.65
26/01/2020 18:13:07	26012020	260120	181307	95.010	12.191425	-56.140080	95.090	0.300	-0.630	0.120	95.010	-2.000	0.500																			1580062387.0	4.74	8.78
26/01/2020 18:13:08	26012020	260120	181308	95.000	12.191422	-56.140058	95.100	0.170	-0.230	0.240	95.000	-1.700	0.600																			1580062388.0	4.43	8.20
26/01/2020 18:13:09	26012020	260120	181309	95.020	12.191418	-56.140040	95.140	-0.120	0.290	0.330	95.040	-1.200	0.700																			1580062389.0	3.99	7.39
26/01/2020 18:13:10	26012020	260120	181310	95.160	12.191413	-56.140023	95.310	-0.390	0.540	0.260	95.210	-0.900	0.600																			1580062390.0	3.76	6.96
26/01/2020 18:13:11	26012020	260120	181311	95.400	12.191410	-56.140005	95.520	-0.430	0.310	0.100	95.440	-1.000	0.500																			1580062391.0	3.91	7.24
26/01/2020 18:13:12	26012020	260120	181312	95.540	12.191405	-56.139985	95.600	-0.230	-0.240	0.070	95.540	-1.500	0.400																			1580062392.0	4.34	8.04
26/01/2020 18:13:13	26012020	260120	181313	95.460	12.191400	-56.139963	95.450	0.060	-0.710	0.170	95.420	-2.000	0.500																			1580062393.0	4.73	8.76
26/01/2020 18:13:14	26012020	260120	181314	95.240	12.191393	-56.139942	95.230	0.250	-0.720	0.200	95.200	-2.100	0.600																			1580062394.0	4.75	8.80
26/01/2020 18:13:15	26012020	260120	181315	95.050	12.191390	-56.139922	95.080	0.270	-0.340	0.060	95.030	-1.800	0.400																			1580062395.0	4.30	7.96
26/01/2020 18:13:16	26012020	260120	181316	94.970	12.191388	-56.139903	95.030	0.200	-0.010	-0.170	94.970	-1.400	0.200																			1580062396.0	3.87	7.17
26/01/2020 18:13:17	26012020	260120	181317	94.960	12.191387	-56.139885	95.010	0.110	-0.010	-0.350	94.960	-1.500	-0.100																			1580062397.0	3.92	7.26
26/01/2020 18:13:18	26012020	260120	181318	94.980	12.191385	-56.139865	95.040	0.040	-0.220	-0.470	94.980	-1.500	-0.100																			1580062398.0	4.32	8.00
26/01/2020 18:13:19	26012020	260120	181319	95.050	12.191383	-56.139843	95.130	-0.050	-0.250	-0.450	95.070	-1.600	-0.100																			1580062399.0	4.66	8.63
26/01/2020 18:13:20	26012020	260120	181320	95.150	12.191378	-56.139822	95.230	-0.150	0.080	-0.190	95.160	-1.400	0.100																			1580062400.0	4.56	8.45
26/01/2020 18:13:21	26012020	260120	181321	95.230	12.191373	-56.139803	95.310	-0.230	0.460	0.190	95.250	-1.000	0.500																			1580062401.0	4.18	7.74
26/01/2020 18:13:22	26012020	260120	181322	95.340	12.191367	-56.139785	95.420	-0.190	0.470	0.380	95.360	-0.900	0.700																			1580062402.0	3.95	7.32
26/01/2020 18:13:23	26012020	260120	181323	95.410	12.191360	-56.139767	95.470	0.000	0.010	0.390	95.410	-1.200	0.700																			1580062403.0	4.14	7.67
26/01/2020 18:13:24	26012020	260120	181324	95.370	12.191357	-56.139745	95.450	0.200	-0.510	0.400	95.370	-1.800	0.700																			1580062404.0	4.54	8.41
26/01/2020 18:13:25	26012020	260120	181325	95.320	12.191353	-56.139723	95.380	0.200	-0.710	0.420	95.310	-2.100	0.800																			1580062405.0	4.69	8.69
26/01/2020 18:13:26	26012020	260120	181326	95.330	12.191348	-56.139703	95.440	-0.000	-0.510	0.340	95.360	-1.900	0.700																			1580062406.0	4.41	8.17
26/01/2020 18:13:27	26012020	260120	181327	95.460	12.191345	-56.139685	95.560	-0.230	-0.120	0.270	95.460	-1.600	0.600																			1580062407.0	4.01	7.43
26/01/2020 18:13:28	26012020	260120	181328	95.380	12.191340	-56.139667	95.380	-0.280	0.110	0.300	95.330	-1.300	0.600																			1580062408.0	3.81	7.06
26/01/2020 18:13:29	26012020	260120	181329	95.100	12.191337	-56.139648	95.070	-0.080	-0.070	0.260	95.040	-1.400	0.600																			1580062409.0	3.98	7.37
26/01/2020 18:13:30	26012020	260120	181330	94.870	12.191333	-56.139628	94.940	0.220	-0.450	0.060	94.870	-1.700	0.500																			1580062410.0	4.47	8.28
26/01/2020 18:13:31	26012020	260120	181331	94.910	12.191330	-56.139605	95.010	0.360	-0.500	-0.190	94.940	-1.900	0.200																			1580062411.0	4.82	8.93
26/01/2020 18:13:32	26012020	260120	181332	95.180	12.191328	-56.139583	95.320	0.220	-0.130	-0.510	95.240	-1.600	-0.100																			1580062412.0	4.57	8.46
26/01/2020 18:13:33	26012020	260120	181333	95.550	12.191327	-56.139565	95.690	-0.020	0.310	-0.730	95.620	-1.100	-0.400																			1580062413.0	4.06	7.52
26/01/2020 18:13:34	26012020	260120	181334	95.820	12.191325	-56.139547	95.890	-0.160	0.460	-0.580	95.850	-0.900	-0.300																			1580062414.0	3.85	7.13
26/01/2020 18:13:35	26012020	260120	181335	95.880	12.191320	-56.139528	95.930	-0.170	0.270	-0.130	95.870	-1.000	0.100																			1580062415.0	4.10	7.59
26/01/2020 18:13:36	26012020	260120	181336	95.780	12.191313	-56.139508	95.810	-0.120	-0.160	0.430	95.750	-1.400	0.700																			1580062416.0	4.42	8.19
26/01/2020 18:13:37	26012020	260120	181337	95.580	12.191305	-56.139488	95.610	-0.050	-0.600	0.890	95.540	-1.900	1.100																			1580062417.0	4.64	8.59
26/01/2020 18:13:38	26012020	260120	181338	95.420	12.191300	-56.139467	95.490	0.010	-0.720	1.090	95.400	-2.100	1.400																			1580062418.0	4.69	8.69
26/01/2020 18:13:39	26012020	260120	181339	95.350	12.191293	-56.139447	95.430	-0.010	-0.420	1.110	95.340	-1.900	1.500																			1580062419.0	4.46	8.26
26/01/2020 18:13:40	26012020	260120	181340	95.310	12.191290	-56.139427	95.410	-0.080	-0.020	0.890	95.310	-1.500	1.300																			1580062420.0	4.09	7.57
26/01/2020 18:13:41	26012020	260120	181341	95.360	12.191287	-56.139408	95.470	-0.130	0.200	0.370	95.380	-1.200	0.800																			1580062421.0	3.93	7.28
26/01/2020 18:13:42	26012020	260120	181342	95.520	12.191283	-56.139390	95.650	-0.100	0.250	-0.250	95.560	-1.100	0.200																			1580062422.0	4.11	7.61
26/01/2020 18:13:43	26012020	260120	181343	95.750	12.191283	-56.139370	95.880	-0.010	0.220	-0.720	95.790	-1.100	-0.300																			1580062423.0	4.24	7.85
26/01/2020 18:13:44	26012020	260120	181344	95.940	12.191282	-56.139350	96.040	0.100	0.020	-0.970	95.970	-1.300	-0.600																			1580062424.0	4.19	7.76
26/01/2020 18:13:45	26012020	260120	181345	95.990	12.191280	-56.139330	96.040	0.230	-0.390	-0.900	95.970	-1.700	-0.600																			1580062425.0	4.26	7.89
26/01/2020 18:13:46	26012020	260120	181346	95.800	12.191277	-56.139308	95.780	0.310	-0.820	-0.510	95.750	-2.100	-0.300																			1580062426.0	4.52	8.37
26/01/2020 18:13:47	26012020	260120	181347	95.530	12.191272	-56.139287	95.550	0.250	-0.910	0.050	95.490	-2.300	0.300																			1580062427.0	4.75	8.80
26/01/2020 18:13:48	26012020	260120	181348	95.380	12.191265	-56.139267	95.480	0.060	-0.480	0.570	95.370	-2.000	0.800																			1580062428.0	4.64	8.59
26/01/2020 18:13:49	26012020	260120	181349	95.410	12.191258	-56.139247	95.560	-0.190	0.180	0.860	95.430	-1.300	1.200																			1580062429.0	4.24	7.85
26/01/2020 18:13:50	26012020	260120	181350	95.620	12.191252	-56.139230	95.760	-0.370	0.610	0.850	95.620	-0.800	1.200																			1580062430.0	3.95	7.32
26/01/2020 18:13:51	26012020	260120	181351	95.780	12.191247	-56.139212	95.950	-0.400	0.660	0.640	95.820	-0.700	1.000																			1580062431.0	4.01	7.43
26/01/2020 18:13:52	26012020	260120	181352	95.940	12.191242	-56.139192	96.030	-0.290	0.390	0.390	95.940	-0.900	0.800																			1580062432.0	4.25	7.87
26/01/2020 18:13:53	26012020	260120	181353	95.940	12.191238	-56.139172	96.000	-0.100	-0.080	0.140	95.930	-1.300	0.500																			1580062433.0	4.42	8.19
26/01/2020 18:13:54	26012020	260120	181354	95.870	12.191235	-56.139150	95.930	0.110	-0.570	-0.120	95.860	-1.800	0.300																			1580062434.0	4.53	8.39
26/01/2020 18:13:55	26012020	260120	181355	95.820	12.191233	-56.139128	95.890	0.280	-0.830	-0.390	95.810	-2.200	0.000																			1580062435.0	4.58	8.48
26/01/2020 18:13:56	26012020	260120	181356	95.780	12.191232	-56.139107	95.840	0.360	-0.730	-0.450	95.770	-2.100	-0.100																			1580062436.0	4.48	8.30
26/01/2020 18:13:57	26012020	260120	181357	95.680	12.191228	-56.139088	95.720	0.290	-0.350	-0.280	95.650	-1.800	0.000																			1580062437.0	4.24	7.85
26/01/2020 18:13:58	26012020	260120	181358	95.590	12.191225	-56.139068	95.660	0.100	0.050	-0.080	95.590	-1.400	0.200																			1580062438.0	4.05	7.50
26/01/2020 18:13:59	26012020	260120	181359	95.650	12.191220	-56.139050	95.760	-0.110	0.300	0.090	95.670	-1.100	0.400	1014.10	26.20	26.30	20.50	20.50	746.00	70.00	70.00	380.00	29.50	352.00	6.80	84.00	4.60	52902	3460.00	27.80	27.80	1580062439.0	4.05	7.50
26/01/2020 18:14:00	26012020	260120	181400	95.760	12.191215	-56.139032	95.850	-0.260	0.340	0.280	95.770	-1.000	0.600																			1580062440.0	4.15	7.69
26/01/2020 18:14:01	26012020	260120	181401	95.790	12.191208	-56.139012	95.860	-0.260	0.080	0.380	95.780	-1.200	0.700																			1580062441.0	4.28	7.93
26/01/2020 18:14:02	26012020	260120	181402	95.750	12.191203	-56.138992	95.790	-0.090	-0.390	0.420	95.730	-1.700	0.800																			1580062442.0	4.50	8.33
26/01/2020 18:14:03	26012020	260120	181403	95.660	12.191200	-56.138970	95.720	0.120	-0.710	0.480	95.650	-2.000	0.800																			1580062443.0	4.80	8.89
26/01/2020 18:14:04	26012020	260120	181404	95.650	12.191195	-56.138947	95.740	0.200	-0.530	0.490	95.660	-2.000	0.800																			1580062444.0	4.79	8.87
26/01/2020 18:14:05	26012020	260120	181405	95.740	12.191190	-56.138927	95.850	0.080	0.080	0.310	95.760	-1.400	0.700																			1580062445.0	4.36	8.07
26/01/2020 18:14:06	26012020	260120	181406	95.840	12.191187	-56.138910	95.900	-0.110	0.630	0.020	95.850	-0.800	0.400																			1580062446.0	3.78	7.00
26/01/2020 18:14:07	26012020	260120	181407	95.820	12.191183	-56.138893	95.860	-0.180	0.590	-0.230	95.810	-0.700	0.200																			1580062447.0	3.63	6.72
26/01/2020 18:14:08	26012020	260120	181408	95.770	12.191182	-56.138873	95.830	-0.030	-0.160	-0.450	95.770	-1.300	-0.100																			1580062448.0	4.09	7.57
26/01/2020 18:14:09	26012020	260120	181409	95.770	12.191180	-56.138850	95.830	0.160	-0.940	-0.490	95.770	-2.200	-0.200																			1580062449.0	4.86	9.00
26/01/2020 18:14:10	26012020	260120	181410	95.730	12.191175	-56.138827	95.780	0.140	-1.000	-0.270	95.720	-2.400	0.000																			1580062450.0	5.08	9.41
26/01/2020 18:14:11	26012020	260120	181411	95.640	12.191172	-56.138807	95.690	-0.080	-0.390	0.040	95.620	-1.900	0.300																			1580062451.0	4.49	8.32
26/01/2020 18:14:12	26012020	260120	181412	95.520	12.191165	-56.138788	95.600	-0.240	0.200	0.300	95.520	-1.300	0.600																			1580062452.0	3.83	7.09
26/01/2020 18:14:13	26012020	260120	181413	95.480	12.191158	-56.138772	95.550	-0.200	0.380	0.510	95.480	-1.000	0.800																			1580062453.0	3.86	7.15
26/01/2020 18:14:14	26012020	260120	181414	95.520	12.191153	-56.138752	95.610	-0.060	0.240	0.500	95.540	-1.100	0.900																			1580062454.0	4.31	7.98
26/01/2020 18:14:15	26012020	260120	181415	95.660	12.191148	-56.138732	95.770	0.050	0.050	0.230	95.710	-1.300	0.700																			1580062455.0	4.55	8.43
26/01/2020 18:14:16	26012020	260120	181416	95.860	12.191145	-56.138710	95.950	0.120	-0.070	-0.130	95.900	-1.400	0.300																			1580062456.0	4.47	8.28
26/01/2020 18:14:17	26012020	260120	181417	95.980	12.191143	-56.138690	96.030	0.200	-0.190	-0.300	95.990	-1.500	0.100																			1580062457.0	4.28	7.93
26/01/2020 18:14:18	26012020	260120	181418	95.940	12.191142	-56.138670	95.980	0.260	-0.410	-0.220	95.940	-1.700	0.100																			1580062458.0	4.23	7.83
26/01/2020 18:14:19	26012020	260120	181419	95.850	12.191137	-56.138650	95.850	0.230	-0.600	0.030	95.820	-1.900	0.300																			1580062459.0	4.40	8.15
26/01/2020 18:14:20	26012020	260120	181420	95.690	12.191133	-56.138630	95.690	0.100	-0.560	0.290	95.650	-2.000	0.600																			1580062460.0	4.50	8.33
26/01/2020 18:14:21	26012020	260120	181421	95.510	12.191127	-56.138610	95.510	-0.080	-0.200	0.520	95.470	-1.700	0.800																			1580062461.0	4.41	8.17
26/01/2020 18:14:22	26012020	260120	181422	95.350	12.191122	-56.138590	95.390	-0.220	0.220	0.660	95.330	-1.200	1.000																			1580062462.0	4.15	7.69
26/01/2020 18:14:23	26012020	260120	181423	95.330	12.191117	-56.138572	95.450	-0.250	0.390	0.530	95.360	-1.000	0.900																			1580062463.0	4.04	7.48
26/01/2020 18:14:24	26012020	260120	181424	95.530	12.191113	-56.138553	95.700	-0.170	0.270	0.150	95.590	-1.100	0.600																			1580062464.0	4.19	7.76
26/01/2020 18:14:25	26012020	260120	181425	95.820	12.191110	-56.138532	95.970	-0.030	0.030	-0.300	95.870	-1.300	0.100																			1580062465.0	4.40	8.15
26/01/2020 18:14:26	26012020	260120	181426	96.030	12.191107	-56.138512	96.120	0.100	-0.230	-0.580	96.050	-1.500	-0.200																			1580062466.0	4.45	8.24
26/01/2020 18:14:27	26012020	260120	181427	96.050	12.191105	-56.138490	96.090	0.200	-0.450	-0.570	96.030	-1.800	-0.300																			1580062467.0	4.40	8.15
26/01/2020 18:14:28	26012020	260120	181428	95.900	12.191102	-56.138470	95.960	0.200	-0.550	-0.300	95.900	-1.900	-0.000																			1580062468.0	4.39	8.13
26/01/2020 18:14:29	26012020	260120	181429	95.770	12.191098	-56.138450	95.810	0.100	-0.510	0.070	95.740	-1.900	0.300																			1580062469.0	4.37	8.09
26/01/2020 18:14:30	26012020	260120	181430	95.590	12.191092	-56.138430	95.630	-0.040	-0.400	0.510	95.550	-1.800	0.800																			1580062470.0	4.34	8.04
26/01/2020 18:14:31	26012020	260120	181431	95.390	12.191087	-56.138410	95.450	-0.160	-0.210	0.820	95.360	-1.600	1.100																			1580062471.0	4.40	8.15
26/01/2020 18:14:32	26012020	260120	181432	95.320	12.191080	-56.138390	95.440	-0.210	0.090	0.800	95.320	-1.300	1.200																			1580062472.0	4.44	8.22
26/01/2020 18:14:33	26012020	260120	181433	95.450	12.191075	-56.138370	95.610	-0.200	0.440	0.580	95.490	-0.800	0.800																			1580062473.0	4.31	7.98
26/01/2020 18:14:34	26012020	260120	181434	95.750	12.191070	-56.138352	95.860	-0.130	0.610	0.250	95.750	-0.800	0.700																			1580062474.0	4.12	7.63
26/01/2020 18:14:35	26012020	260120	181435	95.930	12.191067	-56.138333	96.050	0.030	0.370	-0.240	95.970	-0.900	0.200																			1580062475.0	4.07	7.54
26/01/2020 18:14:36	26012020	260120	181436	96.060	12.191065	-56.138312	96.130	0.290	-0.240	-0.670	96.070	-1.500	-0.300																			1580062476.0	4.31	7.98
26/01/2020 18:14:37	26012020	260120	181437	96.040	12.191063	-56.138290	96.060	0.510	-0.770	-0.770	96.010	-2.000	-0.400																			1580062477.0	4.67	8.65
26/01/2020 18:14:38	26012020	260120	181438	95.870	12.191062	-56.138268	95.880	0.490	-0.890	-0.560	95.830	-2.300	-0.300																			1580062478.0	4.71	8.72
26/01/2020 18:14:39	26012020	260120	181439	95.690	12.191058	-56.138248	95.700	0.230	-0.650	-0.260	95.660	-2.100	0.000																			1580062479.0	4.39	8.13
26/01/2020 18:14:40	26012020	260120	181440	95.550	12.191055	-56.138228	95.620	-0.110	-0.300	0.120	95.550	-1.700	0.400																			1580062480.0	4.12	7.63
26/01/2020 18:14:41	26012020	260120	181441	95.520	12.191048	-56.138210	95.590	-0.350	0.020	0.580	95.520	-1.400	0.800																			1580062481.0	4.15	7.69
26/01/2020 18:14:42	26012020	260120	181442	95.520	12.191042	-56.138190	95.590	-0.470	0.240	0.910	95.520	-1.200	1.200																			1580062482.0	4.35	8.06
26/01/2020 18:14:43	26012020	260120	181443	95.530	12.191035	-56.138172	95.600	-0.490	0.330	0.990	95.530	-1.000	1.300																			1580062483.0	4.46	8.26
26/01/2020 18:14:44	26012020	260120	181444	95.600	12.191028	-56.138152	95.690	-0.400	0.250	0.810	95.600	-1.100	1.200																			1580062484.0	4.47	8.28
26/01/2020 18:14:45	26012020	260120	181445	95.740	12.191023	-56.138130	95.870	-0.170	0.080	0.410	95.770	-1.400	0.500																			1580062485.0	4.50	8.33
26/01/2020 18:14:46	26012020	260120	181446	95.930	12.191018	-56.138110	96.040	0.120	-0.100	-0.190	95.970	-1.400	0.300																			1580062486.0	4.45	8.24
26/01/2020 18:14:47	26012020	260120	181447	96.070	12.191018	-56.138088	96.120	0.350	-0.240	-0.760	96.080	-1.600	-0.300																			1580062487.0	4.40	8.15
26/01/2020 18:14:48	26012020	260120	181448	96.090	12.191018	-56.138068	96.100	0.420	-0.300	-1.030	96.080	-1.700	-0.700																			1580062488.0	4.34	8.04
26/01/2020 18:14:49	26012020	260120	181449	95.970	12.191017	-56.138048	95.940	0.330	-0.330	-0.880	95.930	-1.700	-0.600																			1580062489.0	4.22	7.82
26/01/2020 18:14:50	26012020	260120	181450	95.770	12.191013	-56.138028	95.760	0.210	-0.490	-0.490	95.740	-1.800	-0.200																			1580062490.0	4.18	7.74
26/01/2020 18:14:51	26012020	260120	181451	95.590	12.191008	-56.138008	95.600	0.190	-0.710	-0.010	95.550	-2.000	0.200																			1580062491.0	4.44	8.22
26/01/2020 18:14:52	26012020	260120	181452	95.410	12.191003	-56.137987	95.480	0.190	-0.620	0.460	95.410	-2.000	0.700																			1580062492.0	4.79	8.87
26/01/2020 18:14:53	26012020	260120	181453	95.370	12.190997	-56.137965	95.460	0.060	-0.090	0.740	95.380	-1.600	1.000																			1580062493.0	4.71	8.72
26/01/2020 18:14:54	26012020	260120	181454	95.500	12.190990	-56.137947	95.610	-0.230	0.570	0.800	95.500	-0.900	1.100																			1580062494.0	4.23	7.83
26/01/2020 18:14:55	26012020	260120	181455	95.680	12.190985	-56.137928	95.830	-0.540	0.920	0.680	95.720	-0.500	1.100																			1580062495.0	3.87	7.17
26/01/2020 18:14:56	26012020	260120	181456	95.930	12.190982	-56.137910	96.010	-0.650	0.690	0.440	95.930	-0.600	0.800																			1580062496.0	3.95	7.32
26/01/2020 18:14:57	26012020	260120	181457	96.040	12.190977	-56.137890	96.120	-0.470	0.000	0.180	96.060	-1.200	0.600																			1580062497.0	4.34	8.04
26/01/2020 18:14:58	26012020	260120	181458	96.030	12.190972	-56.137868	96.060	-0.070	-0.710	-0.020	96.010	-2.000	0.400																			1580062498.0	4.76	8.82
26/01/2020 18:14:59	26012020	260120	181459	95.890	12.190968	-56.137847	95.900	0.340	-1.030	-0.190	95.860	-2.400	0.200	1014.10	26.20	26.30	20.30	20.40	742.00	70.00	70.00	380.00	29.50	355.00	6.50	88.00	4.20	52564	3286.00	27.80	27.80	1580062499.0	4.87	9.02
26/01/2020 18:15:00	26012020	260120	181500	95.730	12.190965	-56.137825	95.760	0.550	-0.890	-0.400	95.710	-2.300	-0.000																			1580062500.0	4.56	8.45
26/01/2020 18:15:01	26012020	260120	181501	95.610	12.190963	-56.137805	95.630	0.540	-0.530	-0.540	95.590	-2.000	-0.200																			1580062501.0	4.20	7.78
26/01/2020 18:15:02	26012020	260120	181502	95.500	12.190960	-56.137787	95.530	0.410	-0.180	-0.560	95.480	-1.600	-0.200																			1580062502.0	4.06	7.52
26/01/2020 18:15:03	26012020	260120	181503	95.460	12.190958	-56.137767	95.530	0.200	0.110	-0.510	95.460	-1.300	-0.200																			1580062503.0	4.20	7.78
26/01/2020 18:15:04	26012020	260120	181504	95.500	12.190955	-56.137747	95.570	-0.110	0.430	-0.340	95.510	-1.000	-0.100																			1580062504.0	4.35	8.06
26/01/2020 18:15:05	26012020	260120	181505	95.550	12.190952	-56.137727	95.630	-0.450	0.680	-0.030	95.570	-0.700	0.200																			1580062505.0	4.28	7.93
26/01/2020 18:15:06	26012020	260120	181506	95.640	12.190945	-56.137707	95.770	-0.620	0.570	0.340	95.680	-0.700	0.600																			1580062506.0	4.18	7.74
26/01/2020 18:15:07	26012020	260120	181507	95.820	12.190938	-56.137688	95.960	-0.480	0.040	0.590	95.860	-1.200	0.900																			1580062507.0	4.38	8.11
26/01/2020 18:15:08	26012020	260120	181508	95.960	12.190932	-56.137667	96.050	-0.130	-0.570	0.730	95.960	-1.800	1.000																			1580062508.0	4.74	8.78
26/01/2020 18:15:09	26012020	260120	181509	95.920	12.190925	-56.137645	95.960	0.230	-0.910	0.790	95.890	-2.200	1.100																			1580062509.0	4.85	8.98
26/01/2020 18:15:10	26012020	260120	181510	95.770	12.190920	-56.137623	95.820	0.400	-0.800	0.750	95.740	-2.200	1.100																			1580062510.0	4.64	8.59
26/01/2020 18:15:11	26012020	260120	181511	95.660	12.190915	-56.137603	95.740	0.340	-0.370	0.560	95.650	-1.800	0.900																			1580062511.0	4.26	7.89
26/01/2020 18:15:12	26012020	260120	181512	95.580	12.190913	-56.137585	95.620	0.160	0.030	0.250	95.550	-1.400	0.700																			1580062512.0	3.94	7.30
26/01/2020 18:15:13	26012020	260120	181513	95.440	12.190912	-56.137567	95.460	0.040	0.120	-0.100	95.410	-1.200	0.300																			1580062513.0	3.97	7.35
26/01/2020 18:15:14	26012020	260120	181514	95.350	12.190910	-56.137547	95.410	0.020	0.000	-0.500	95.350	-1.300	-0.100																			1580062514.0	4.35	8.06
26/01/2020 18:15:15	26012020	260120	181515	95.390	12.190908	-56.137523	95.480	0.060	-0.060	-0.820	95.420	-1.400	-0.400																			1580062515.0	4.64	8.59
26/01/2020 18:15:16	26012020	260120	181516	95.580	12.190907	-56.137503	95.650	0.050	0.040	-0.950	95.580	-1.400	-0.600																			1580062516.0	4.58	8.48
26/01/2020 18:15:17	26012020	260120	181517	95.700	12.190903	-56.137482	95.780	-0.040	0.200	-0.840	95.710	-1.200	-0.500																			1580062517.0	4.35	8.06
26/01/2020 18:15:18	26012020	260120	181518	95.770	12.190898	-56.137463	95.860	-0.180	0.240	-0.540	95.780	-1.100	-0.300																			1580062518.0	4.16	7.70
26/01/2020 18:15:19	26012020	260120	181519	95.820	12.190893	-56.137443	95.920	-0.280	0.040	-0.080	95.820	-1.300	0.100																			1580062519.0	4.19	7.76
26/01/2020 18:15:20	26012020	260120	181520	95.810	12.190887	-56.137425	95.910	-0.310	-0.370	0.500	95.810	-1.600	0.700																			1580062520.0	4.42	8.19
26/01/2020 18:15:21	26012020	260120	181521	95.750	12.190880	-56.137403	95.840	-0.220	-0.780	1.040	95.740	-2.200	1.500																			1580062521.0	4.70	8.70
26/01/2020 18:15:22	26012020	260120	181522	95.660	12.190872	-56.137382	95.740	-0.060	-0.900	1.360	95.640	-2.300	1.600																			1580062522.0	4.82	8.93
26/01/2020 18:15:23	26012020	260120	181523	95.530	12.190865	-56.137362	95.580	0.110	-0.600	1.460	95.490	-2.100	1.800																			1580062523.0	4.67	8.65
26/01/2020 18:15:24	26012020	260120	181524	95.350	12.190858	-56.137342	95.400	0.200	-0.010	1.360	95.300	-1.500	1.700																			1580062524.0	4.34	8.04
26/01/2020 18:15:25	26012020	260120	181525	95.160	12.190855	-56.137323	95.230	0.190	0.470	0.880	95.140	-1.000	1.400																			1580062525.0	4.05	7.50
26/01/2020 18:15:26	26012020	260120	181526	95.130	12.190853	-56.137303	95.220	0.170	0.540	-0.000	95.140	-0.800	0.500																			1580062526.0	4.04	7.48
26/01/2020 18:15:27	26012020	260120	181527	95.310	12.190855	-56.137283	95.430	0.210	0.230	-1.020	95.370	-1.000	-0.500																			1580062527.0	4.40	8.15
26/01/2020 18:15:28	26012020	260120	181528	95.630	12.190857	-56.137260	95.730	0.280	-0.160	-1.770	95.690	-1.400	-1.300																			1580062528.0	4.76	8.82
26/01/2020 18:15:29	26012020	260120	181529	95.860	12.190858	-56.137238	95.880	0.210	-0.280	-1.980	95.870	-1.600	-1.600																			1580062529.0	4.78	8.85
26/01/2020 18:15:30	26012020	260120	181530	95.850	12.190857	-56.137217	95.860	-0.020	-0.180	-1.580	95.850	-1.600	-1.400																			1580062530.0	4.39	8.13
26/01/2020 18:15:31	26012020	260120	181531	95.740	12.190852	-56.137198	95.730	-0.240	-0.210	-0.690	95.700	-1.500	-0.600																			1580062531.0	4.09	7.57
26/01/2020 18:15:32	26012020	260120	181532	95.540	12.190843	-56.137180	95.560	-0.300	-0.490	0.410	95.500	-1.800	0.500																			1580062532.0	4.35	8.06
26/01/2020 18:15:33	26012020	260120	181533	95.380	12.190833	-56.137160	95.450	-0.260	-0.700	1.380	95.360	-2.000	1.500																			1580062533.0	4.85	8.98
26/01/2020 18:15:34	26012020	260120	181534	95.310	12.190823	-56.137138	95.400	-0.240	-0.530	2.000	95.300	-2.000	2.200																			1580062534.0	4.96	9.19
26/01/2020 18:15:35	26012020	260120	181535	95.290	12.190815	-56.137118	95.390	-0.270	-0.060	2.240	95.280	-1.200	2.600																			1580062535.0	4.60	8.52
26/01/2020 18:15:36	26012020	260120	181536	95.290	12.190808	-56.137100	95.400	-0.260	0.310	2.060	95.290	-1.100	2.500																			1580062536.0	4.23	7.83
26/01/2020 18:15:37	26012020	260120	181537	95.330	12.190803	-56.137080	95.460	-0.130	0.380	1.410	95.350	-1.000	1.900																			1580062537.0	4.18	7.74
26/01/2020 18:15:38	26012020	260120	181538	95.450	12.190802	-56.137060	95.580	0.080	0.220	0.380	95.480	-1.100	1.000																			1580062538.0	4.39	8.13
26/01/2020 18:15:39	26012020	260120	181539	95.620	12.190802	-56.137038	95.730	0.320	0.000	-0.830	95.660	-1.300	-0.200																			1580062539.0	4.59	8.50
26/01/2020 18:15:40	26012020	260120	181540	95.770	12.190805	-56.137017	95.810	0.540	-0.190	-1.910	95.770	-1.500	-1.400																			1580062540.0	4.63	8.57
26/01/2020 18:15:41	26012020	260120	181541	95.750	12.190808	-56.136995	95.720	0.640	-0.400	-2.460	95.720	-1.700	-2.000																			1580062541.0	4.60	8.52
26/01/2020 18:15:42	26012020	260120	181542	95.640	12.190810	-56.136973	95.620	0.530	-0.550	-2.420	95.620	-1.900	-2.100																			1580062542.0	4.53	8.39
26/01/2020 18:15:43	26012020	260120	181543	95.590	12.190808	-56.136952	95.620	0.170	-0.500	-1.850	95.590	-1.900	-1.700																			1580062543.0	4.49	8.32
26/01/2020 18:15:44	26012020	260120	181544	95.600	12.190803	-56.136932	95.660	-0.320	-0.220	-0.800	95.600	-1.700	-0.700																			1580062544.0	4.39	8.13
26/01/2020 18:15:45	26012020	260120	181545	95.600	12.190795	-56.136913	95.690	-0.720	0.070	0.540	95.600	-1.400	0.600																			1580062545.0	4.40	8.15
26/01/2020 18:15:46	26012020	260120	181546	95.590	12.190783	-56.136895	95.710	-0.850	0.200	1.830	95.590	-1.200	1.900																			1580062546.0	4.67	8.65
26/01/2020 18:15:47	26012020	260120	181547	95.590	12.190770	-56.136877	95.730	-0.700	0.100	2.720	95.590	-1.400	3.300																			1580062547.0	4.96	9.19
26/01/2020 18:15:48	26012020	260120	181548	95.580	12.190758	-56.136855	95.710	-0.370	-0.090	2.990	95.580	-1.400	3.300																			1580062548.0	5.03	9.32
26/01/2020 18:15:49	26012020	260120	181549	95.580	12.190748	-56.136835	95.710	-0.030	-0.160	2.500	95.580	-1.500	3.000																			1580062549.0	4.82	8.93
26/01/2020 18:15:50	26012020	260120	181550	95.640	12.190745	-56.136813	95.750	0.230	-0.160	1.360	95.640	-1.500	2.000																			1580062550.0	4.47	8.28
26/01/2020 18:15:51	26012020	260120	181551	95.680	12.190747	-56.136793	95.760	0.480	-0.310	-0.080	95.690	-1.600	0.600																			1580062551.0	4.36	8.07
26/01/2020 18:15:52	26012020	260120	181552	95.660	12.190752	-56.136772	95.710	0.730	-0.520	-1.450	95.660	-1.900	-0.800																			1580062552.0	4.69	8.69
26/01/2020 18:15:53	26012020	260120	181553	95.620	12.190757	-56.136748	95.650	0.760	-0.360	-2.430	95.610	-1.800	-1.900																			1580062553.0	4.95	9.17
26/01/2020 18:15:54	26012020	260120	181554	95.630	12.190760	-56.136727	95.680	0.420	0.130	-2.820	95.640	-1.300	-2.400																			1580062554.0	4.58	8.48
26/01/2020 18:15:55	26012020	260120	181555	95.720	12.190760	-56.136708	95.800	-0.080	0.390	-2.550	95.750	-1.000	-2.300																			1580062555.0	3.94	7.30
26/01/2020 18:15:56	26012020	260120	181556	95.900	12.190757	-56.136690	95.970	-0.400	0.130	-1.750	95.900	-1.100	-1.600																			1580062556.0	3.99	7.39
26/01/2020 18:15:57	26012020	260120	181557	95.970	12.190750	-56.136670	96.060	-0.400	-0.350	-0.530	95.970	-1.600	-0.500																			1580062557.0	4.67	8.65
26/01/2020 18:15:58	26012020	260120	181558	95.880	12.190738	-56.136647	95.970	-0.280	-0.550	0.920	95.880	-1.900	1.000																			1580062558.0	5.21	9.65
26/01/2020 18:15:59	26012020	260120	181559	95.760	12.190727	-56.136627	95.850	-0.260	-0.390	2.270	95.720	-1.800	2.300	1014.10	26.20	26.30	20.50	20.50	730.00	70.00	70.00	381.00	29.60	356.00	6.30	90.00	4.00	52025	3742.00	27.80	27.80	1580062559.0	5.18	9.59
26/01/2020 18:16:00	26012020	260120	181600	95.610	12.190713	-56.136608	95.750	-0.370	-0.070	3.140	95.610	-1.500	3.300																			1580062560.0	4.81	8.91
26/01/2020 18:16:01	26012020	260120	181601	95.570	12.190703	-56.136590	95.730	-0.410	0.100	3.280	95.570	-1.300	3.600																			1580062561.0	4.43	8.20
26/01/2020 18:16:02	26012020	260120	181602	95.620	12.190697	-56.136570	95.800	-0.270	0.010	2.660	95.640	-1.300	3.200																			1580062562.0	4.32	8.00
26/01/2020 18:16:03	26012020	260120	181603	95.710	12.190695	-56.136548	95.850	-0.020	-0.160	1.540	95.720	-1.500	2.100																			1580062563.0	4.49	8.32
26/01/2020 18:16:04	26012020	260120	181604	95.770	12.190695	-56.136527	95.880	0.240	-0.230	0.140	95.780	-1.600	0.800																			1580062564.0	4.63	8.57
26/01/2020 18:16:05	26012020	260120	181605	95.830	12.190697	-56.136505	95.900	0.440	-0.190	-1.150	95.840	-1.600	-0.600																			1580062565.0	4.58	8.48
26/01/2020 18:16:06	26012020	260120	181606	95.890	12.190702	-56.136485	95.930	0.630	-0.130	-2.510	95.910	-1.500	-1.900																			1580062566.0	4.52	8.37
26/01/2020 18:16:07	26012020	260120	181607	96.000	12.190705	-56.136463	96.060	0.620	-0.110	-3.300	96.030	-1.500	-2.800																			1580062567.0	4.55	8.43
26/01/2020 18:16:08	26012020	260120	181608	96.160	12.190708	-56.136443	96.200	0.370	-0.100	-3.340	96.190	-1.500	-3.100																			1580062568.0	4.50	8.33
26/01/2020 18:16:09	26012020	260120	181609	96.220	12.190707	-56.136422	96.240	-0.040	-0.120	-2.390	96.210	-1.500	-2.300																			1580062569.0	4.35	8.06
26/01/2020 18:16:10	26012020	260120	181610	96.110	12.190700	-56.136402	96.110	-0.410	-0.180	-0.730	96.070	-1.500	-0.800																			1580062570.0	4.49	8.32
26/01/2020 18:16:11	26012020	260120	181611	95.850	12.190687	-56.136383	95.860	-0.570	-0.240	1.140	95.790	-1.600	2.200																			1580062571.0	4.93	9.13
26/01/2020 18:16:12	26012020	260120	181612	95.580	12.190672	-56.136363	95.680	-0.510	-0.270	2.710	95.550	-1.600	2.800																			1580062572.0	5.19	9.61
26/01/2020 18:16:13	26012020	260120	181613	95.520	12.190658	-56.136343	95.720	-0.370	-0.230	3.590	95.540	-1.500	4.000																			1580062573.0	5.15	9.54
26/01/2020 18:16:14	26012020	260120	181614	95.700	12.190648	-56.136323	95.950	-0.270	-0.100	3.630	95.750	-1.500	4.000																			1580062574.0	4.83	8.95
26/01/2020 18:16:15	26012020	260120	181615	95.930	12.190640	-56.136303	96.130	-0.190	0.010	2.970	95.960	-1.400	3.500																			1580062575.0	4.44	8.22
26/01/2020 18:16:16	26012020	260120	181616	96.000	12.190637	-56.136283	96.110	0.010	-0.060	1.790	95.990	-1.400	2.400																			1580062576.0	4.26	7.89
26/01/2020 18:16:17	26012020	260120	181617	95.930	12.190637	-56.136263	95.980	0.340	-0.210	0.290	95.910	-1.600	1.000																			1580062577.0	4.50	8.33
26/01/2020 18:16:18	26012020	260120	181618	95.850	12.190642	-56.136240	95.890	0.580	-0.200	-1.250	95.840	-1.600	-0.600																			1580062578.0	4.80	8.89
26/01/2020 18:16:19	26012020	260120	181619	95.870	12.190647	-56.136218	95.920	0.570	-0.040	-2.560	95.880	-1.400	-1.900																			1580062579.0	4.77	8.83
26/01/2020 18:16:20	26012020	260120	181620	95.990	12.190652	-56.136198	96.030	0.350	0.050	-3.360	96.020	-1.300	-2.900																			1580062580.0	4.50	8.33
26/01/2020 18:16:21	26012020	260120	181621	96.130	12.190653	-56.136178	96.160	0.110	-0.050	-3.360	96.150	-1.400	-3.100																			1580062581.0	4.32	8.00
26/01/2020 18:16:22	26012020	260120	181622	96.180	12.190652	-56.136157	96.200	-0.090	-0.210	-2.460	96.170	-1.600	-2.400																			1580062582.0	4.39	8.13
26/01/2020 18:16:23	26012020	260120	181623	96.120	12.190645	-56.136137	96.150	-0.270	-0.310	-0.950	96.100	-1.700	-0.900																			1580062583.0	4.65	8.61
26/01/2020 18:16:24	26012020	260120	181624	95.990	12.190632	-56.136117	96.070	-0.430	-0.260	0.800	95.970	-1.600	0.800																			1580062584.0	4.94	9.15
26/01/2020 18:16:25	26012020	260120	181625	95.880	12.190618	-56.136097	96.030	-0.530	-0.140	2.350	95.880	-1.500	3.200																			1580062585.0	5.08	9.41
26/01/2020 18:16:26	26012020	260120	181626	95.910	12.190603	-56.136078	96.090	-0.490	-0.080	3.220	95.910	-1.400	3.500																			1580062586.0	4.99	9.24
26/01/2020 18:16:27	26012020	260120	181627	95.990	12.190592	-56.136060	96.190	-0.240	-0.130	3.420	96.000	-1.500	3.800																			1580062587.0	4.74	8.78
26/01/2020 18:16:28	26012020	260120	181628	96.090	12.190585	-56.136040	96.240	0.080	-0.260	2.880	96.090	-1.600	3.400																			1580062588.0	4.56	8.45
26/01/2020 18:16:29	26012020	260120	181629	96.050	12.190582	-56.136018	96.130	0.380	-0.370	1.890	96.030	-1.700	2.500																			1580062589.0	4.57	8.46
26/01/2020 18:16:30	26012020	260120	181630	95.850	12.190582	-56.135995	95.910	0.560	-0.370	0.630	95.850	-1.800	1.300																			1580062590.0	4.65	8.61
26/01/2020 18:16:31	26012020	260120	181631	95.700	12.190585	-56.135973	95.720	0.550	-0.240	-0.730	95.670	-1.600	-0.100																			1580062591.0	4.72	8.74
26/01/2020 18:16:32	26012020	260120	181632	95.650	12.190590	-56.135952	95.670	0.330	0.010	-1.980	95.650	-1.400	-1.400																			1580062592.0	4.70	8.70
26/01/2020 18:16:33	26012020	260120	181633	95.740	12.190595	-56.135932	95.800	-0.010	0.290	-2.800	95.780	-1.100	-2.300																			1580062593.0	4.52	8.37
26/01/2020 18:16:34	26012020	260120	181634	95.970	12.190597	-56.135912	95.990	-0.310	0.330	-2.960	95.970	-1.000	-2.600																			1580062594.0	4.26	7.89
26/01/2020 18:16:35	26012020	260120	181635	96.080	12.190593	-56.135892	96.130	-0.440	0.130	-2.400	96.090	-1.200	-2.200																			1580062595.0	4.31	7.98
26/01/2020 18:16:36	26012020	260120	181636	96.100	12.190585	-56.135870	96.160	-0.420	-0.060	-1.300	96.100	-1.400	-1.200																			1580062596.0	4.69	8.69
26/01/2020 18:16:37	26012020	260120	181637	96.100	12.190573	-56.135850	96.190	-0.310	-0.090	-0.000	96.110	-1.500	0.900																			1580062597.0	4.87	9.02
26/01/2020 18:16:38	26012020	260120	181638	96.100	12.190562	-56.135832	96.200	-0.100	-0.190	1.250	96.100	-1.500	1.300																			1580062598.0	4.68	8.67
26/01/2020 18:16:39	26012020	260120	181639	96.030	12.190552	-56.135813	96.110	0.240	-0.600	2.280	96.000	-1.900	2.400																			1580062599.0	4.63	8.57
26/01/2020 18:16:40	26012020	260120	181640	95.820	12.190542	-56.135792	95.890	0.560	-1.010	2.870	95.770	-2.300	3.100																			1580062600.0	4.90	9.07
26/01/2020 18:16:41	26012020	260120	181641	95.560	12.190535	-56.135768	95.640	0.600	-0.940	2.950	95.520	-2.400	3.300																			1580062601.0	5.04	9.33
26/01/2020 18:16:42	26012020	260120	181642	95.350	12.190530	-56.135747	95.480	0.260	-0.280	2.540	95.350	-1.800	3.000																			1580062602.0	4.71	8.72
26/01/2020 18:16:43	26012020	260120	181643	95.340	12.190528	-56.135728	95.500	-0.260	0.540	1.590	95.360	-1.000	2.200																			1580062603.0	4.09	7.57
26/01/2020 18:16:44	26012020	260120	181644	95.510	12.190528	-56.135710	95.680	-0.580	0.840	0.210	95.560	-0.500	0.900																			1580062604.0	3.76	6.96
26/01/2020 18:16:45	26012020	260120	181645	95.740	12.190530	-56.135690	95.860	-0.480	0.440	-1.150	95.780	-0.800	-0.500																			1580062605.0	4.14	7.67
26/01/2020 18:16:46	26012020	260120	181646	95.870	12.190532	-56.135668	95.900	-0.130	-0.170	-2.100	95.870	-1.400	-1.600																			1580062606.0	4.87	9.02
26/01/2020 18:16:47	26012020	260120	181647	95.880	12.190532	-56.135643	95.900	0.140	-0.350	-2.580	95.880	-1.700	-2.200																			1580062607.0	5.08	9.41
26/01/2020 18:16:48	26012020	260120	181648	95.900	12.190530	-56.135622	95.930	0.190	-0.070	-2.640	95.900	-1.500	-2.300																			1580062608.0	4.56	8.45
26/01/2020 18:16:49	26012020	260120	181649	95.910	12.190527	-56.135603	95.940	0.100	0.140	-2.090	95.900	-1.300	-1.300																			1580062609.0	3.90	7.22
26/01/2020 18:16:50	26012020	260120	181650	95.870	12.190522	-56.135587	95.900	0.070	-0.150	-1.060	95.860	-1.400	-0.900																			1580062610.0	3.86	7.15
26/01/2020 18:16:51	26012020	260120	181651	95.780	12.190515	-56.135567	95.810	0.160	-0.800	0.220	95.750	-2.000	0.300																			1580062611.0	4.50	8.33
26/01/2020 18:16:52	26012020	260120	181652	95.540	12.190505	-56.135543	95.560	0.230	-1.190	1.590	95.480	-2.500	1.600																			1580062612.0	5.21	9.65
26/01/2020 18:16:53	26012020	260120	181653	95.250	12.190493	-56.135522	95.320	0.110	-0.850	2.760	95.210	-2.300	2.900																			1580062613.0	5.35	9.91
26/01/2020 18:16:54	26012020	260120	181654	95.100	12.190482	-56.135502	95.250	-0.160	0.030	3.390	95.100	-1.500	3.700																			1580062614.0	4.81	8.91
26/01/2020 18:16:55	26012020	260120	181655	95.140	12.190473	-56.135485	95.330	-0.380	0.800	3.240	95.170	-0.700	3.700																			1580062615.0	4.09	7.57
26/01/2020 18:16:56	26012020	260120	181656	95.330	12.190468	-56.135468	95.520	-0.320	0.900	2.280	95.380	-0.400	2.900																			1580062616.0	3.79	7.02
26/01/2020 18:16:57	26012020	260120	181657	95.600	12.190467	-56.135448	95.750	-0.030	0.370	0.750	95.650	-0.900	1.500																			1580062617.0	4.22	7.82
26/01/2020 18:16:58	26012020	260120	181658	95.800	12.190470	-56.135425	95.860	0.270	-0.260	-0.820	95.800	-1.500	-0.100																			1580062618.0	4.91	9.09
26/01/2020 18:16:59	26012020	260120	181659	95.810	12.190473	-56.135402	95.810	0.360	-0.530	-1.980	95.800	-1.900	-1.400	1014.10	26.20	26.30	20.30	20.40	726.00	70.00	70.00	381.00	29.50	353.00	6.20	84.00	3.80	51543	3207.00	27.90	27.80	1580062619.0	5.07	9.39
26/01/2020 18:17:00	26012020	260120	181700	95.780	12.190477	-56.135380	95.790	0.240	-0.450	-2.630	95.780	-1.800	-2.200																			1580062620.0	4.64	8.59
26/01/2020 18:17:01	26012020	260120	181701	95.790	12.190478	-56.135360	95.790	0.030	-0.280	-2.670	95.780	-1.700	-2.400																			1580062621.0	4.11	7.61
26/01/2020 18:17:02	26012020	260120	181702	95.720	12.190475	-56.135342	95.680	-0.120	-0.320	-2.050	95.690	-1.700	-1.900																			1580062622.0	3.94	7.30
26/01/2020 18:17:03	26012020	260120	181703	95.510	12.190470	-56.135322	95.490	-0.120	-0.530	-1.040	95.460	-2.000	0.000																			1580062623.0	4.31	7.98
26/01/2020 18:17:04	26012020	260120	181704	95.250	12.190460	-56.135302	95.250	-0.030	-0.620	0.450	95.200	-2.000	0.500																			1580062624.0	4.91	9.09
26/01/2020 18:17:05	26012020	260120	181705	95.070	12.190447	-56.135280	95.150	0.030	-0.320	1.620	95.050	-1.800	1.800																			1580062625.0	5.10	9.45
26/01/2020 18:17:06	26012020	260120	181706	95.140	12.190437	-56.135262	95.270	-0.000	0.220	2.260	95.140	-1.300	2.500																			1580062626.0	4.81	8.91
26/01/2020 18:17:07	26012020	260120	181707	95.340	12.190427	-56.135243	95.530	-0.030	0.620	2.300	95.390	-0.800	2.700																			1580062627.0	4.29	7.95
26/01/2020 18:17:08	26012020	260120	181708	95.600	12.190422	-56.135225	95.740	0.010	0.600	1.870	95.640	-0.800	2.300																			1580062628.0	4.05	7.50
26/01/2020 18:17:09	26012020	260120	181709	95.750	12.190420	-56.135203	95.840	0.110	0.140	0.980	95.770	-1.100	1.500																			1580062629.0	4.28	7.93
26/01/2020 18:17:10	26012020	260120	181710	95.750	12.190420	-56.135182	95.800	0.120	-0.340	0.190	95.750	-1.600	0.700																			1580062630.0	4.63	8.57
26/01/2020 18:17:11	26012020	260120	181711	95.690	12.190422	-56.135160	95.730	0.030	-0.590	-0.410	95.680	-1.900	0.100																			1580062631.0	4.67	8.65
26/01/2020 18:17:12	26012020	260120	181712	95.590	12.190420	-56.135140	95.610	-0.110	-0.540	-0.760	95.560	-1.900	-0.400																			1580062632.0	4.42	8.19
26/01/2020 18:17:13	26012020	260120	181713	95.440	12.190418	-56.135120	95.450	-0.290	-0.240	-1.030	95.410	-1.700	-0.600																			1580062633.0	4.13	7.65
26/01/2020 18:17:14	26012020	260120	181714	95.300	12.190415	-56.135102	95.340	-0.310	-0.080	-1.110	95.300	-1.500	-0.800																			1580062634.0	3.92	7.26
26/01/2020 18:17:15	26012020	260120	181715	95.270	12.190410	-56.135083	95.310	-0.060	-0.260	-0.950	95.270	-1.800	-0.500																			1580062635.0	4.08	7.56
26/01/2020 18:17:16	26012020	260120	181716	95.250	12.190405	-56.135062	95.290	0.290	-0.500	-0.620	95.230	-1.900	-0.300																			1580062636.0	4.56	8.45
26/01/2020 18:17:17	26012020	260120	181717	95.190	12.190398	-56.135040	95.230	0.570	-0.440	-0.200	95.180	-1.900	0.100																			1580062637.0	4.87	9.02
26/01/2020 18:17:18	26012020	260120	181718	95.220	12.190393	-56.135018	95.320	0.470	0.050	0.100	95.240	-1.400	0.400																			1580062638.0	4.61	8.54
26/01/2020 18:17:19	26012020	260120	181719	95.380	12.190388	-56.135000	95.490	0.160	0.530	0.370	95.420	-0.900	0.700																			1580062639.0	4.06	7.52
26/01/2020 18:17:20	26012020	260120	181720	95.550	12.190385	-56.134983	95.640	-0.140	0.630	0.680	95.570	-0.700	1.000																			1580062640.0	3.79	7.02
26/01/2020 18:17:21	26012020	260120	181721	95.630	12.190380	-56.134963	95.710	-0.210	0.050	0.950	95.640	-1.200	1.200																			1580062641.0	4.09	7.57
26/01/2020 18:17:22	26012020	260120	181722	95.610	12.190373	-56.134943	95.670	-0.120	-0.550	1.150	95.590	-1.900	1.400																			1580062642.0	4.69	8.69
26/01/2020 18:17:23	26012020	260120	181723	95.480	12.190368	-56.134920	95.520	-0.080	-0.810	1.350	95.440	-2.200	1.700																			1580062643.0	4.94	9.15
26/01/2020 18:17:24	26012020	260120	181724	95.270	12.190362	-56.134900	95.360	-0.180	-0.460	1.390	95.270	-1.900	1.700																			1580062644.0	4.59	8.50
26/01/2020 18:17:25	26012020	260120	181725	95.240	12.190357	-56.134882	95.330	-0.290	-0.030	1.100	95.250	-1.400	1.500																			1580062645.0	4.01	7.43
26/01/2020 18:17:26	26012020	260120	181726	95.300	12.190353	-56.134863	95.390	-0.270	0.260	0.490	95.310	-1.100	0.900																			1580062646.0	3.79	7.02
26/01/2020 18:17:27	26012020	260120	181727	95.320	12.190352	-56.134845	95.370	-0.080	0.190	-0.240	95.310	-1.100	0.200																			1580062647.0	3.99	7.39
26/01/2020 18:17:28	26012020	260120	181728	95.290	12.190350	-56.134825	95.330	0.140	-0.080	-0.810	95.290	-1.400	-0.400																			1580062648.0	4.32	8.00
26/01/2020 18:17:29	26012020	260120	181729	95.330	12.190350	-56.134803	95.390	0.320	-0.410	-1.350	95.360	-1.900	-1.200																			1580062649.0	4.57	8.46
26/01/2020 18:17:30	26012020	260120	181730	95.460	12.190350	-56.134782	95.520	0.370	-0.550	-1.600	95.480	-1.900	-1.200																			1580062650.0	4.60	8.52
26/01/2020 18:17:31	26012020	260120	181731	95.540	12.190347	-56.134760	95.580	0.300	-0.430	-1.390	95.540	-1.800	-1.100																			1580062651.0	4.44	8.22
26/01/2020 18:17:32	26012020	260120	181732	95.490	12.190343	-56.134740	95.540	0.150	-0.130	-0.770	95.490	-1.500	-0.500																			1580062652.0	4.24	7.85
26/01/2020 18:17:33	26012020	260120	181733	95.410	12.190335	-56.134722	95.450	-0.020	0.200	0.080	95.380	-1.200	0.300																			1580062653.0	4.17	7.72
26/01/2020 18:17:34	26012020	260120	181734	95.250	12.190327	-56.134705	95.340	-0.140	0.310	0.930	95.250	-1.100	1.200																			1580062654.0	4.22	7.82
26/01/2020 18:17:35	26012020	260120	181735	95.190	12.190318	-56.134685	95.280	-0.180	0.090	1.520	95.180	-1.200	1.800																			1580062655.0	4.38	8.11
26/01/2020 18:17:36	26012020	260120	181736	95.230	12.190312	-56.134665	95.370	-0.140	-0.230	1.700	95.260	-1.600	2.000																			1580062656.0	4.59	8.50
26/01/2020 18:17:37	26012020	260120	181737	95.430	12.190307	-56.134643	95.570	-0.060	-0.370	1.460	95.470	-1.700	1.900																			1580062657.0	4.59	8.50
26/01/2020 18:17:38	26012020	260120	181738	95.570	12.190302	-56.134623	95.650	-0.010	-0.300	1.190	95.570	-1.700	1.600																			1580062658.0	4.36	8.07
26/01/2020 18:17:39	26012020	260120	181739	95.480	12.190300	-56.134605	95.510	-0.020	-0.140	0.880	95.430	-1.500	1.000																			1580062659.0	4.13	7.65
26/01/2020 18:17:40	26012020	260120	181740	95.220	12.190297	-56.134585	95.230	-0.080	-0.100	0.480	95.160	-1.500	0.900																			1580062660.0	4.06	7.52
26/01/2020 18:17:41	26012020	260120	181741	95.000	12.190295	-56.134565	95.050	-0.110	-0.250	-0.040	94.990	-1.600	0.400																			1580062661.0	4.22	7.82
26/01/2020 18:17:42	26012020	260120	181742	95.030	12.190293	-56.134545	95.110	-0.080	-0.360	-0.630	95.060	-1.700	-0.200																			1580062662.0	4.45	8.24
26/01/2020 18:17:43	26012020	260120	181743	95.180	12.190292	-56.134523	95.240	0.010	-0.200	-1.100	95.200	-1.600	-0.700																			1580062663.0	4.45	8.24
26/01/2020 18:17:44	26012020	260120	181744	95.250	12.190288	-56.134505	95.280	0.110	0.110	-1.350	95.250	-1.300	-1.000																			1580062664.0	4.17	7.72
26/01/2020 18:17:45	26012020	260120	181745	95.230	12.190287	-56.134485	95.250	0.170	0.260	-1.310	95.220	-1.100	-1.000																			1580062665.0	3.95	7.32
26/01/2020 18:17:46	26012020	260120	181746	95.170	12.190283	-56.134467	95.220	0.190	0.010	-0.960	95.170	-1.300	-0.700																			1580062666.0	4.08	7.56
26/01/2020 18:17:47	26012020	260120	181747	95.140	12.190278	-56.134447	95.200	0.180	-0.400	-0.380	95.140	-1.700	-0.100																			1580062667.0	4.51	8.35
26/01/2020 18:17:48	26012020	260120	181748	95.170	12.190272	-56.134425	95.240	0.090	-0.550	0.270	95.170	-1.900	0.500																			1580062668.0	4.74	8.78
26/01/2020 18:17:49	26012020	260120	181749	95.210	12.190265	-56.134405	95.310	-0.080	-0.300	0.890	95.220	-1.700	1.200																			1580062669.0	4.53	8.39
26/01/2020 18:17:50	26012020	260120	181750	95.180	12.190257	-56.134387	95.260	-0.270	0.080	1.460	95.160	-1.300	1.700																			1580062670.0	4.17	7.72
26/01/2020 18:17:51	26012020	260120	181751	95.010	12.190250	-56.134368	95.070	-0.340	0.260	1.910	94.970	-1.200	2.300																			1580062671.0	4.04	7.48
26/01/2020 18:17:52	26012020	260120	181752	94.810	12.190242	-56.134350	94.920	-0.200	0.070	1.980	94.810	-1.300	2.300																			1580062672.0	4.22	7.82
26/01/2020 18:17:53	26012020	260120	181753	94.850	12.190237	-56.134330	94.980	0.080	-0.300	1.440	94.880	-1.800	1.300																			1580062673.0	4.51	8.35
26/01/2020 18:17:54	26012020	260120	181754	95.070	12.190235	-56.134308	95.190	0.290	-0.440	0.480	95.120	-1.800	0.900																			1580062674.0	4.64	8.59
26/01/2020 18:17:55	26012020	260120	181755	95.300	12.190237	-56.134287	95.370	0.260	-0.230	-0.510	95.330	-1.600	-0.100																			1580062675.0	4.44	8.22
26/01/2020 18:17:56	26012020	260120	181756	95.350	12.190238	-56.134268	95.360	0.050	0.050	-1.120	95.320	-1.300	-0.700																			1580062676.0	4.03	7.46
26/01/2020 18:17:57	26012020	260120	181757	95.150	12.190237	-56.134250	95.140	-0.130	0.030	-1.280	95.100	-1.300	-0.900																			1580062677.0	3.81	7.06
26/01/2020 18:17:58	26012020	260120	181758	94.860	12.190235	-56.134230	94.900	-0.150	-0.300	-1.110	94.860	-1.600	-0.800																			1580062678.0	4.12	7.63
26/01/2020 18:17:59	26012020	260120	181759	94.710	12.190230	-56.134210	94.750	-0.060	-0.600	-0.760	94.690	-1.900	-0.500	1014.10	26.20	26.30	20.50	20.50	721.00	70.00	70.00	381.00	29.50	350.00	6.80	80.00	4.60	51359	3639.00	27.90	27.80	1580062679.0	4.58	8.48
26/01/2020 18:18:00	26012020	260120	181800	94.640	12.190225	-56.134188	94.710	-0.010	-0.580	-0.340	94.640	-2.000	-0.100																			1580062680.0	4.69	8.69
26/01/2020 18:18:01	26012020	260120	181801	94.680	12.190218	-56.134168	94.780	-0.060	-0.240	0.100	94.700	-1.700	0.400																			1580062681.0	4.48	8.30
26/01/2020 18:18:02	26012020	260120	181802	94.770	12.190212	-56.134150	94.870	-0.110	0.240	0.560	94.790	-1.200	0.800																			1580062682.0	4.22	7.82
26/01/2020 18:18:03	26012020	260120	181803	94.880	12.190205	-56.134132	95.000	-0.090	0.580	0.910	94.910	-0.800	1.200																			1580062683.0	4.08	7.56
26/01/2020 18:18:04	26012020	260120	181804	95.040	12.190198	-56.134113	95.170	-0.020	0.570	0.940	95.080	-0.800	1.300																			1580062684.0	4.05	7.50
26/01/2020 18:18:05	26012020	260120	181805	95.250	12.190193	-56.134093	95.370	0.040	0.230	0.680	95.290	-1.300	0.900																			1580062685.0	4.20	7.78
26/01/2020 18:18:06	26012020	260120	181806	95.430	12.190192	-56.134073	95.500	0.060	-0.140	0.430	95.430	-1.500	0.800																			1580062686.0	4.35	8.06
26/01/2020 18:18:07	26012020	260120	181807	95.420	12.190190	-56.134053	95.450	0.040	-0.440	0.320	95.390	-1.800	0.700																			1580062687.0	4.27	7.91
26/01/2020 18:18:08	26012020	260120	181808	95.220	12.190187	-56.134033	95.220	0.040	-0.750	0.300	95.170	-2.100	0.600																			1580062688.0	4.14	7.67
26/01/2020 18:18:09	26012020	260120	181809	94.900	12.190183	-56.134013	94.900	0.080	-0.990	0.370	94.830	-2.300	0.700																			1580062689.0	4.31	7.98
26/01/2020 18:18:10	26012020	260120	181810	94.550	12.190178	-56.133993	94.620	0.090	-0.920	0.430	94.550	-2.300	0.800																			1580062690.0	4.46	8.26
26/01/2020 18:18:11	26012020	260120	181811	94.470	12.190173	-56.133973	94.540	0.070	-0.530	0.270	94.480	-2.000	0.600																			1580062691.0	4.36	8.07
26/01/2020 18:18:12	26012020	260120	181812	94.530	12.190170	-56.133953	94.620	0.050	0.010	-0.070	94.560	-1.400	0.300																			1580062692.0	4.16	7.70
26/01/2020 18:18:13	26012020	260120	181813	94.680	12.190168	-56.133935	94.760	-0.010	0.530	-0.480	94.710	-0.900	-0.100																			1580062693.0	4.06	7.52
26/01/2020 18:18:14	26012020	260120	181814	94.840	12.190167	-56.133917	94.900	-0.140	0.810	-0.820	94.870	-0.600	-0.500																			1580062694.0	4.00	7.41
26/01/2020 18:18:15	26012020	260120	181815	95.000	12.190165	-56.133897	95.070	-0.240	0.650	-0.930	95.040	-0.700	-0.600																			1580062695.0	4.05	7.50
26/01/2020 18:18:16	26012020	260120	181816	95.180	12.190162	-56.133877	95.230	-0.210	0.160	-0.780	95.210	-1.200	-0.500																			1580062696.0	4.34	8.04
26/01/2020 18:18:17	26012020	260120	181817	95.320	12.190157	-56.133855	95.370	-0.090	-0.290	-0.430	95.330	-1.800	0.200																			1580062697.0	4.60	8.52
26/01/2020 18:18:18	26012020	260120	181818	95.340	12.190150	-56.133835	95.380	-0.020	-0.420	0.100	95.330	-1.800	0.400																			1580062698.0	4.54	8.41
26/01/2020 18:18:19	26012020	260120	181819	95.220	12.190143	-56.133817	95.250	-0.020	-0.350	0.680	95.200	-1.700	0.900																			1580062699.0	4.21	7.80
26/01/2020 18:18:20	26012020	260120	181820	95.100	12.190137	-56.133800	95.140	-0.000	-0.310	1.090	95.080	-1.700	1.400																			1580062700.0	4.00	7.41
26/01/2020 18:18:21	26012020	260120	181821	95.040	12.190130	-56.133782	95.090	0.100	-0.400	1.240	95.030	-1.700	1.600																			1580062701.0	4.02	7.45
26/01/2020 18:18:22	26012020	260120	181822	94.980	12.190125	-56.133762	95.030	0.220	-0.540	1.180	94.970	-1.900	1.500																			1580062702.0	4.20	7.78
26/01/2020 18:18:23	26012020	260120	181823	94.830	12.190122	-56.133742	94.850	0.260	-0.580	0.980	94.790	-1.900	1.300																			1580062703.0	4.36	8.07
26/01/2020 18:18:24	26012020	260120	181824	94.600	12.190120	-56.133722	94.620	0.190	-0.450	0.660	94.560	-1.800	1.000																			1580062704.0	4.36	8.07
26/01/2020 18:18:25	26012020	260120	181825	94.430	12.190118	-56.133702	94.480	0.080	-0.230	0.210	94.420	-1.600	0.600																			1580062705.0	4.28	7.93
26/01/2020 18:18:26	26012020	260120	181826	94.440	12.190117	-56.133682	94.510	-0.020	0.030	-0.330	94.460	-1.400	0.100																			1580062706.0	4.26	7.89
26/01/2020 18:18:27	26012020	260120	181827	94.590	12.190115	-56.133662	94.670	-0.130	0.370	-0.800	94.630	-1.000	-0.400																			1580062707.0	4.24	7.85
26/01/2020 18:18:28	26012020	260120	181828	94.820	12.190113	-56.133642	94.920	-0.250	0.670	-1.160	94.870	-0.700	-0.800																			1580062708.0	4.08	7.56
26/01/2020 18:18:29	26012020	260120	181829	95.100	12.190112	-56.133623	95.180	-0.290	0.650	-1.310	95.150	-0.900	-0.900																			1580062709.0	3.94	7.30
26/01/2020 18:18:30	26012020	260120	181830	95.310	12.190108	-56.133605	95.390	-0.190	0.240	-1.150	95.340	-1.100	-0.800																			1580062710.0	4.09	7.57
26/01/2020 18:18:31	26012020	260120	181831	95.390	12.190103	-56.133585	95.450	-0.020	-0.290	-0.670	95.390	-1.600	-0.400																			1580062711.0	4.37	8.09
26/01/2020 18:18:32	26012020	260120	181832	95.360	12.190097	-56.133563	95.420	0.130	-0.660	0.020	95.340	-2.000	0.300																			1580062712.0	4.47	8.28
26/01/2020 18:18:33	26012020	260120	181833	95.210	12.190090	-56.133545	95.270	0.210	-0.850	0.860	95.180	-2.200	1.100																			1580062713.0	4.37	8.09
26/01/2020 18:18:34	26012020	260120	181834	94.970	12.190082	-56.133525	95.030	0.180	-0.810	1.670	94.920	-2.200	1.900																			1580062714.0	4.38	8.11
26/01/2020 18:18:35	26012020	260120	181835	94.720	12.190075	-56.133507	94.800	0.010	-0.530	2.140	94.680	-1.900	2.400																			1580062715.0	4.35	8.06
26/01/2020 18:18:36	26012020	260120	181836	94.540	12.190068	-56.133488	94.610	-0.170	-0.170	2.140	94.510	-1.600	2.500																			1580062716.0	4.15	7.69
26/01/2020 18:18:37	26012020	260120	181837	94.430	12.190063	-56.133470	94.530	-0.190	0.070	1.680	94.430	-1.300	2.100																			1580062717.0	4.06	7.52
26/01/2020 18:18:38	26012020	260120	181838	94.510	12.190060	-56.133450	94.600	-0.030	0.190	0.850	94.510	-1.200	1.300																			1580062718.0	4.19	7.76
26/01/2020 18:18:39	26012020	260120	181839	94.680	12.190060	-56.133430	94.780	0.190	0.220	-0.260	94.720	-1.100	0.200																			1580062719.0	4.33	8.02
26/01/2020 18:18:40	26012020	260120	181840	95.000	12.190062	-56.133408	95.040	0.340	0.180	-1.450	95.000	-1.200	-1.000																			1580062720.0	4.38	8.11
26/01/2020 18:18:41	26012020	260120	181841	95.210	12.190063	-56.133388	95.250	0.340	0.100	-2.340	95.250	-1.300	-1.900																			1580062721.0	4.40	8.15
26/01/2020 18:18:42	26012020	260120	181842	95.350	12.190067	-56.133368	95.370	0.220	0.100	-2.520	95.350	-1.300	-2.200																			1580062722.0	4.29	7.95
26/01/2020 18:18:43	26012020	260120	181843	95.310	12.190065	-56.133350	95.320	-0.010	0.080	-1.940	95.290	-1.400	-1.100																			1580062723.0	4.00	7.41
26/01/2020 18:18:44	26012020	260120	181844	95.210	12.190060	-56.133332	95.280	-0.270	-0.150	-0.910	95.210	-1.500	-0.700																			1580062724.0	3.94	7.30
26/01/2020 18:18:45	26012020	260120	181845	95.200	12.190053	-56.133313	95.270	-0.480	-0.570	0.340	95.190	-1.900	0.500																			1580062725.0	4.33	8.02
26/01/2020 18:18:46	26012020	260120	181846	95.050	12.190042	-56.133293	95.160	-0.530	-0.880	1.750	95.050	-2.200	1.900																			1580062726.0	4.82	8.93
26/01/2020 18:18:47	26012020	260120	181847	94.830	12.190027	-56.133273	94.890	-0.350	-0.880	2.940	94.770	-2.300	3.200																			1580062727.0	5.10	9.45
26/01/2020 18:18:48	26012020	260120	181848	94.550	12.190015	-56.133253	94.640	0.000	-0.540	3.460	94.510	-2.000	3.800																			1580062728.0	4.92	9.11
26/01/2020 18:18:49	26012020	260120	181849	94.430	12.190005	-56.133235	94.560	0.320	0.040	3.100	94.440	-1.400	3.500																			1580062729.0	4.42	8.19
26/01/2020 18:18:50	26012020	260120	181850	94.570	12.190003	-56.133217	94.710	0.470	0.560	1.860	94.630	-0.900	2.400																			1580062730.0	3.93	7.28
26/01/2020 18:18:51	26012020	260120	181851	94.870	12.190007	-56.133198	94.970	0.480	0.670	0.010	94.940	-0.700	0.600																			1580062731.0	3.95	7.32
26/01/2020 18:18:52	26012020	260120	181852	95.240	12.190013	-56.133178	95.240	0.440	0.380	-1.830	95.240	-0.900	-1.300																			1580062732.0	4.51	8.35
26/01/2020 18:18:53	26012020	260120	181853	95.390	12.190022	-56.133157	95.420	0.380	-0.100	-3.050	95.420	-1.400	-2.600																			1580062733.0	4.82	8.93
26/01/2020 18:18:54	26012020	260120	181854	95.460	12.190025	-56.133135	95.450	0.210	-0.490	-3.410	95.460	-1.800	-3.100																			1580062734.0	4.68	8.67
26/01/2020 18:18:55	26012020	260120	181855	95.380	12.190025	-56.133115	95.340	-0.120	-0.600	-2.850	95.340	-1.900	-1.900																			1580062735.0	4.35	8.06
26/01/2020 18:18:56	26012020	260120	181856	95.160	12.190020	-56.133097	95.130	-0.500	-0.500	-1.470	95.110	-1.900	-1.300																			1580062736.0	4.13	7.65
26/01/2020 18:18:57	26012020	260120	181857	94.920	12.190008	-56.133078	94.940	-0.740	-0.390	0.290	94.880	-1.800	0.400																			1580062737.0	4.39	8.13
26/01/2020 18:18:58	26012020	260120	181858	94.770	12.189993	-56.133062	94.870	-0.690	-0.310	1.880	94.770	-1.700	2.100																			1580062738.0	4.87	9.02
26/01/2020 18:18:59	26012020	260120	181859	94.810	12.189978	-56.133043	94.930	-0.370	-0.230	2.900	94.830	-1.600	3.200	1014.10	26.20	26.30	20.40	20.50	723.00	70.00	70.00	381.00	29.50	353.00	7.10	85.00	4.90	51361	3633.00	27.90	27.90	1580062739.0	5.04	9.33
26/01/2020 18:19:00	26012020	260120	181900	94.940	12.189967	-56.133023	95.090	-0.010	-0.020	3.210	94.970	-1.400	3.500																			1580062740.0	4.83	8.95
26/01/2020 18:19:01	26012020	260120	181901	95.070	12.189960	-56.133005	95.200	0.240	0.250	2.700	95.090	-1.100	3.100																			1580062741.0	4.30	7.96
26/01/2020 18:19:02	26012020	260120	181902	95.160	12.189958	-56.132987	95.260	0.430	0.290	1.500	95.180	-1.100	2.000																			1580062742.0	3.93	7.28
26/01/2020 18:19:03	26012020	260120	181903	95.220	12.189962	-56.132967	95.290	0.620	-0.030	-0.000	95.230	-1.400	0.500																			1580062743.0	4.19	7.76
26/01/2020 18:19:04	26012020	260120	181904	95.290	12.189967	-56.132945	95.320	0.720	-0.420	-1.420	95.290	-1.800	-0.900																			1580062744.0	4.71	8.72
26/01/2020 18:19:05	26012020	260120	181905	95.360	12.189973	-56.132923	95.380	0.550	-0.500	-2.460	95.370	-1.900	-2.000																			1580062745.0	4.84	8.96
26/01/2020 18:19:06	26012020	260120	181906	95.360	12.189977	-56.132903	95.340	0.110	-0.190	-2.780	95.330	-1.600	-2.400																			1580062746.0	4.36	8.07
26/01/2020 18:19:07	26012020	260120	181907	95.200	12.189977	-56.132885	95.170	-0.380	0.170	-2.220	95.160	-1.200	-2.000																			1580062747.0	3.73	6.91
26/01/2020 18:19:08	26012020	260120	181908	95.000	12.189970	-56.132868	95.000	-0.640	0.190	-1.060	94.970	-1.200	-0.900																			1580062748.0	3.77	6.98
26/01/2020 18:19:09	26012020	260120	181909	94.910	12.189958	-56.132850	94.970	-0.600	-0.150	0.220	94.910	-1.700	1.100																			1580062749.0	4.42	8.19
26/01/2020 18:19:10	26012020	260120	181910	94.980	12.189947	-56.132832	95.070	-0.370	-0.500	1.210	94.980	-1.800	1.400																			1580062750.0	4.95	9.17
26/01/2020 18:19:11	26012020	260120	181911	95.090	12.189937	-56.132810	95.210	-0.130	-0.450	1.820	95.120	-1.800	2.100																			1580062751.0	4.93	9.13
26/01/2020 18:19:12	26012020	260120	181912	95.240	12.189928	-56.132792	95.350	0.040	-0.100	2.010	95.260	-1.500	2.300																			1580062752.0	4.34	8.04
26/01/2020 18:19:13	26012020	260120	181913	95.370	12.189922	-56.132775	95.480	0.190	0.140	1.760	95.390	-1.200	2.100																			1580062753.0	3.81	7.06
26/01/2020 18:19:14	26012020	260120	181914	95.440	12.189920	-56.132757	95.530	0.310	0.060	1.170	95.440	-1.300	1.600																			1580062754.0	3.82	7.07
26/01/2020 18:19:15	26012020	260120	181915	95.380	12.189920	-56.132737	95.420	0.300	-0.240	0.450	95.350	-1.600	0.900																			1580062755.0	4.16	7.70
26/01/2020 18:19:16	26012020	260120	181916	95.170	12.189920	-56.132717	95.160	0.140	-0.540	-0.150	95.120	-1.900	0.300																			1580062756.0	4.43	8.20
26/01/2020 18:19:17	26012020	260120	181917	94.940	12.189922	-56.132695	94.930	-0.070	-0.580	-0.570	94.910	-2.000	-0.200																			1580062757.0	4.43	8.20
26/01/2020 18:19:18	26012020	260120	181918	94.820	12.189918	-56.132675	94.840	-0.190	-0.260	-0.870	94.820	-1.700	-0.500																			1580062758.0	4.24	7.85
26/01/2020 18:19:19	26012020	260120	181919	94.840	12.189917	-56.132657	94.880	-0.170	0.210	-1.120	94.860	-1.200	-0.800																			1580062759.0	3.92	7.26
26/01/2020 18:19:20	26012020	260120	181920	95.000	12.189913	-56.132640	95.040	-0.060	0.510	-1.270	95.000	-0.900	-0.900																			1580062760.0	3.78	7.00
26/01/2020 18:19:21	26012020	260120	181921	95.190	12.189910	-56.132622	95.280	0.070	0.510	-1.290	95.240	-0.800	-1.000																			1580062761.0	3.89	7.20
26/01/2020 18:19:22	26012020	260120	181922	95.420	12.189907	-56.132603	95.490	0.190	0.310	-1.100	95.440	-1.000	-0.800																			1580062762.0	4.04	7.48
26/01/2020 18:19:23	26012020	260120	181923	95.500	12.189903	-56.132583	95.540	0.280	-0.090	-0.600	95.490	-1.400	-0.300																			1580062763.0	4.07	7.54
26/01/2020 18:19:24	26012020	260120	181924	95.430	12.189898	-56.132565	95.460	0.330	-0.710	0.150	95.410	-2.000	0.400																			1580062764.0	4.18	7.74
26/01/2020 18:19:25	26012020	260120	181925	95.310	12.189892	-56.132543	95.370	0.270	-1.250	1.040	95.290	-2.600	1.300																			1580062765.0	4.53	8.39
26/01/2020 18:19:26	26012020	260120	181926	95.190	12.189885	-56.132523	95.260	-0.020	-1.210	1.860	95.160	-2.600	2.100																			1580062766.0	4.75	8.80
26/01/2020 18:19:27	26012020	260120	181927	94.990	12.189875	-56.132503	95.040	-0.460	-0.490	2.490	94.930	-2.000	2.800																			1580062767.0	4.46	8.26
26/01/2020 18:19:28	26012020	260120	181928	94.700	12.189867	-56.132488	94.760	-0.800	0.410	2.760	94.640	-1.000	3.100																			1580062768.0	3.94	7.30
26/01/2020 18:19:29	26012020	260120	181929	94.480	12.189858	-56.132472	94.560	-0.770	0.790	2.390	94.460	-0.600	2.800																			1580062769.0	3.67	6.80
26/01/2020 18:19:30	26012020	260120	181930	94.510	12.189855	-56.132453	94.630	-0.380	0.540	1.280	94.560	-0.800	1.800																			1580062770.0	3.97	7.35
26/01/2020 18:19:31	26012020	260120	181931	94.900	12.189855	-56.132433	95.030	0.100	0.110	-0.460	95.010	-1.200	0.100																			1580062771.0	4.52	8.37
26/01/2020 18:19:32	26012020	260120	181932	95.500	12.189858	-56.132410	95.600	0.410	-0.080	-2.270	95.610	-1.400	-1.800																			1580062772.0	4.76	8.82
26/01/2020 18:19:33	26012020	260120	181933	95.940	12.189865	-56.132390	95.950	0.500	-0.050	-3.400	95.980	-1.400	-3.200																			1580062773.0	4.49	8.32
26/01/2020 18:19:34	26012020	260120	181934	95.910	12.189870	-56.132372	95.870	0.510	-0.070	-3.460	95.910	-1.400	-3.200																			1580062774.0	3.96	7.33
26/01/2020 18:19:35	26012020	260120	181935	95.630	12.189868	-56.132355	95.550	0.530	-0.400	-2.620	95.550	-1.700	-2.400																			1580062775.0	3.72	6.89
26/01/2020 18:19:36	26012020	260120	181936	95.270	12.189863	-56.132335	95.240	0.540	-0.880	-1.290	95.210	-2.200	-1.100																			1580062776.0	4.16	7.70
26/01/2020 18:19:37	26012020	260120	181937	95.050	12.189855	-56.132315	95.100	0.360	-1.000	0.290	95.030	-2.400	0.400																			1580062777.0	4.71	8.72
26/01/2020 18:19:38	26012020	260120	181938	95.020	12.189845	-56.132295	95.130	-0.120	-0.480	1.800	95.040	-1.900	2.000																			1580062778.0	4.73	8.76
26/01/2020 18:19:39	26012020	260120	181939	95.140	12.189833	-56.132280	95.300	-0.690	0.300	2.880	95.180	-1.200	3.100																			1580062779.0	4.32	8.00
26/01/2020 18:19:40	26012020	260120	181940	95.300	12.189822	-56.132265	95.460	-1.000	0.740	3.390	95.320	-0.700	3.700																			1580062780.0	3.97	7.35
26/01/2020 18:19:41	26012020	260120	181941	95.370	12.189812	-56.132248	95.510	-0.880	0.520	3.330	95.380	-0.800	3.700																			1580062781.0	4.02	7.45
26/01/2020 18:19:42	26012020	260120	181942	95.420	12.189805	-56.132228	95.550	-0.460	-0.090	2.640	95.440	-1.400	3.100																			1580062782.0	4.41	8.17
26/01/2020 18:19:43	26012020	260120	181943	95.500	12.189802	-56.132207	95.610	-0.010	-0.550	1.310	95.520	-1.900	1.800																			1580062783.0	4.65	8.61
26/01/2020 18:19:44	26012020	260120	181944	95.620	12.189803	-56.132185	95.680	0.300	-0.490	-0.430	95.620	-1.900	0.100																			1580062784.0	4.53	8.39
26/01/2020 18:19:45	26012020	260120	181945	95.710	12.189808	-56.132167	95.760	0.470	-0.080	-2.120	95.740	-1.300	-2.500																			1580062785.0	4.20	7.78
26/01/2020 18:19:46	26012020	260120	181946	95.790	12.189815	-56.132150	95.790	0.610	0.120	-3.360	95.800	-1.200	-2.900																			1580062786.0	3.93	7.28
26/01/2020 18:19:47	26012020	260120	181947	95.810	12.189822	-56.132132	95.780	0.720	-0.140	-3.910	95.800	-1.500	-3.500																			1580062787.0	4.02	7.45
26/01/2020 18:19:48	26012020	260120	181948	95.750	12.189823	-56.132110	95.730	0.640	-0.510	-3.560	95.740	-1.800	-3.300																			1580062788.0	4.37	8.09
26/01/2020 18:19:49	26012020	260120	181949	95.710	12.189820	-56.132090	95.730	0.260	-0.480	-2.290	95.710	-1.900	-2.100																			1580062789.0	4.46	8.26
26/01/2020 18:19:50	26012020	260120	181950	95.740	12.189812	-56.132072	95.820	-0.330	-0.040	-0.410	95.760	-1.500	-0.300																			1580062790.0	4.33	8.02
26/01/2020 18:19:51	26012020	260120	181951	95.790	12.189797	-56.132057	95.900	-0.800	0.330	1.590	95.790	-1.100	1.700																			1580062791.0	4.39	8.13
26/01/2020 18:19:52	26012020	260120	181952	95.750	12.189782	-56.132042	95.860	-0.870	0.220	3.270	95.740	-1.100	3.400																			1580062792.0	4.67	8.65
26/01/2020 18:19:53	26012020	260120	181953	95.670	12.189765	-56.132025	95.810	-0.570	-0.220	4.320	95.650	-1.500	4.600																			1580062793.0	4.92	9.11
26/01/2020 18:19:54	26012020	260120	181954	95.630	12.189753	-56.132005	95.800	-0.190	-0.530	4.520	95.630	-1.900	4.900																			1580062794.0	4.92	9.11
26/01/2020 18:19:55	26012020	260120	181955	95.650	12.189747	-56.131985	95.810	0.030	-0.500	3.800	95.650	-1.900	4.200																			1580062795.0	4.46	8.26
26/01/2020 18:19:56	26012020	260120	181956	95.680	12.189745	-56.131967	95.820	0.120	-0.250	2.270	95.690	-1.600	2.800																			1580062796.0	3.96	7.33
26/01/2020 18:19:57	26012020	260120	181957	95.750	12.189748	-56.131948	95.850	0.260	0.000	0.250	95.770	-1.300	-0.600																			1580062797.0	3.91	7.24
26/01/2020 18:19:58	26012020	260120	181958	95.870	12.189755	-56.131930	95.930	0.500	0.100	-1.860	95.890	-1.300	-1.300																			1580062798.0	4.22	7.82
26/01/2020 18:19:59	26012020	260120	181959	95.970	12.189763	-56.131910	95.970	0.710	0.020	-3.500	95.970	-1.400	-3.700	1014.10	26.10	26.20	20.50	20.50	720.00	71.00	70.00	382.00	29.50	353.00	6.60	85.00	4.40	50922	3253.00	27.90	27.90	1580062799.0	4.53	8.39
26/01/2020 18:20:00	26012020	260120	182000	95.940	12.189770	-56.131890	95.910	0.690	-0.120	-4.270	95.930	-1.500	-3.900																			1580062800.0	4.52	8.37
26/01/2020 18:20:01	26012020	260120	182001	95.910	12.189772	-56.131870	95.900	0.360	-0.110	-4.110	95.920	-1.500	-3.800																			1580062801.0	4.25	7.87
26/01/2020 18:20:02	26012020	260120	182002	96.000	12.189770	-56.131852	96.050	-0.140	0.060	-3.040	96.030	-1.300	-2.900																			1580062802.0	3.90	7.22
26/01/2020 18:20:03	26012020	260120	182003	96.110	12.189762	-56.131835	96.180	-0.590	0.090	-1.170	96.120	-1.300	-1.100																			1580062803.0	3.86	7.15
26/01/2020 18:20:04	26012020	260120	182004	96.060	12.189748	-56.131818	96.110	-0.780	-0.260	1.090	96.030	-1.600	1.200																			1580062804.0	4.47	8.28
26/01/2020 18:20:05	26012020	260120	182005	95.830	12.189732	-56.131802	95.910	-0.690	-0.770	3.210	95.780	-2.100	3.300																			1580062805.0	5.30	9.82
26/01/2020 18:20:06	26012020	260120	182006	95.600	12.189713	-56.131782	95.730	-0.460	-0.860	4.740	95.570	-2.200	4.900																			1580062806.0	5.65	10.46
26/01/2020 18:20:07	26012020	260120	182007	95.510	12.189698	-56.131763	95.700	-0.220	-0.420	5.290	95.520	-1.800	5.600																			1580062807.0	5.13	9.50
26/01/2020 18:20:08	26012020	260120	182008	95.560	12.189688	-56.131747	95.740	0.070	0.120	4.620	95.580	-1.300	5.100																			1580062808.0	4.09	7.57
26/01/2020 18:20:09	26012020	260120	182009	95.650	12.189685	-56.131730	95.790	0.420	0.390	2.850	95.660	-1.000	3.400																			1580062809.0	3.59	6.65
26/01/2020 18:20:10	26012020	260120	182010	95.740	12.189692	-56.131712	95.840	0.680	0.320	0.460	95.760	-1.000	1.000																			1580062810.0	4.17	7.72
26/01/2020 18:20:11	26012020	260120	182011	95.860	12.189700	-56.131690	95.890	0.720	0.130	-1.930	95.880	-1.300	-2.700																			1580062811.0	4.85	8.98
26/01/2020 18:20:12	26012020	260120	182012	95.990	12.189712	-56.131670	95.990	0.520	0.030	-3.760	96.020	-1.300	-3.300																			1580062812.0	4.95	9.17
26/01/2020 18:20:13	26012020	260120	182013	96.100	12.189720	-56.131650	96.090	0.190	-0.020	-4.570	96.110	-1.400	-4.200																			1580062813.0	4.44	8.22
26/01/2020 18:20:14	26012020	260120	182014	96.140	12.189722	-56.131632	96.130	-0.140	-0.180	-4.280	96.140	-1.500	-4.000																			1580062814.0	3.85	7.13
26/01/2020 18:20:15	26012020	260120	182015	96.070	12.189718	-56.131615	96.060	-0.380	-0.510	-2.980	96.040	-1.800	-2.800																			1580062815.0	3.84	7.11
26/01/2020 18:20:16	26012020	260120	182016	95.870	12.189708	-56.131597	95.880	-0.510	-0.840	-0.920	95.810	-2.200	-0.800																			1580062816.0	4.45	8.24
26/01/2020 18:20:17	26012020	260120	182017	95.580	12.189692	-56.131578	95.650	-0.550	-0.900	1.450	95.530	-2.300	1.500																			1580062817.0	5.19	9.61
26/01/2020 18:20:18	26012020	260120	182018	95.380	12.189673	-56.131560	95.520	-0.520	-0.530	3.450	95.360	-2.000	3.600																			1580062818.0	5.54	10.26
26/01/2020 18:20:19	26012020	260120	182019	95.360	12.189655	-56.131545	95.550	-0.420	0.090	4.520	95.370	-1.300	4.800																			1580062819.0	5.16	9.56
26/01/2020 18:20:20	26012020	260120	182020	95.460	12.189642	-56.131528	95.640	-0.180	0.510	4.440	95.480	-0.900	4.800																			1580062820.0	4.30	7.96
26/01/2020 18:20:21	26012020	260120	182021	95.540	12.189637	-56.131512	95.690	0.210	0.510	3.340	95.550	-0.900	3.800																			1580062821.0	3.83	7.09
26/01/2020 18:20:22	26012020	260120	182022	95.590	12.189638	-56.131492	95.700	0.570	0.300	1.540	95.600	-1.100	2.100																			1580062822.0	4.14	7.67
26/01/2020 18:20:23	26012020	260120	182023	95.660	12.189645	-56.131472	95.730	0.720	0.100	-0.560	95.680	-1.400	-1.300																			1580062823.0	4.58	8.48
26/01/2020 18:20:24	26012020	260120	182024	95.770	12.189655	-56.131452	95.810	0.620	-0.110	-2.430	95.790	-1.400	-1.900																			1580062824.0	4.70	8.70
26/01/2020 18:20:25	26012020	260120	182025	95.860	12.189663	-56.131432	95.850	0.370	-0.400	-3.540	95.860	-1.700	-3.100																			1580062825.0	4.48	8.30
26/01/2020 18:20:26	26012020	260120	182026	95.790	12.189667	-56.131412	95.750	0.080	-0.700	-3.590	95.760	-2.000	-3.300																			1580062826.0	4.18	7.74
26/01/2020 18:20:27	26012020	260120	182027	95.550	12.189663	-56.131393	95.500	-0.210	-0.770	-2.660	95.490	-2.100	-2.500																			1580062827.0	4.10	7.59
26/01/2020 18:20:28	26012020	260120	182028	95.200	12.189653	-56.131375	95.260	-0.500	-0.540	-1.060	95.200	-1.900	-0.900																			1580062828.0	4.28	7.93
26/01/2020 18:20:29	26012020	260120	182029	95.030	12.189640	-56.131358	95.090	-0.710	-0.140	0.710	95.000	-1.500	0.800																			1580062829.0	4.55	8.43
26/01/2020 18:20:30	26012020	260120	182030	94.970	12.189625	-56.131343	95.100	-0.760	0.220	2.170	94.980	-1.200	2.300																			1580062830.0	4.67	8.65
26/01/2020 18:20:31	26012020	260120	182031	95.070	12.189612	-56.131327	95.230	-0.570	0.320	3.020	95.100	-1.000	3.300																			1580062831.0	4.55	8.43
26/01/2020 18:20:32	26012020	260120	182032	95.210	12.189600	-56.131308	95.370	-0.150	0.110	3.170	95.230	-1.200	3.500																			1580062832.0	4.41	8.17
26/01/2020 18:20:33	26012020	260120	182033	95.260	12.189593	-56.131290	95.390	0.380	-0.180	2.770	95.260	-1.500	3.200																			1580062833.0	4.41	8.17
26/01/2020 18:20:34	26012020	260120	182034	95.250	12.189590	-56.131268	95.340	0.790	-0.220	1.800	95.250	-1.600	2.300																			1580062834.0	4.36	8.07
26/01/2020 18:20:35	26012020	260120	182035	95.290	12.189593	-56.131250	95.370	0.880	0.010	0.350	95.300	-1.300	-0.100																			1580062835.0	4.11	7.61
26/01/2020 18:20:36	26012020	260120	182036	95.340	12.189598	-56.131232	95.350	0.670	0.150	-1.110	95.330	-1.200	-0.600																			1580062836.0	3.97	7.35
26/01/2020 18:20:37	26012020	260120	182037	95.280	12.189607	-56.131215	95.270	0.310	-0.090	-2.110	95.260	-1.400	-1.700																			1580062837.0	4.01	7.43
26/01/2020 18:20:38	26012020	260120	182038	95.180	12.189610	-56.131195	95.160	-0.090	-0.570	-2.440	95.150	-1.900	-2.100																			1580062838.0	4.16	7.70
26/01/2020 18:20:39	26012020	260120	182039	95.030	12.189608	-56.131175	95.020	-0.470	-0.830	-2.030	94.990	-2.200	-1.800																			1580062839.0	4.31	7.98
26/01/2020 18:20:40	26012020	260120	182040	94.810	12.189602	-56.131157	94.810	-0.780	-0.590	-0.950	94.760	-2.000	-0.800																			1580062840.0	4.36	8.07
26/01/2020 18:20:41	26012020	260120	182041	94.550	12.189588	-56.131138	94.580	-0.870	-0.040	0.280	94.510	-1.500	0.500																			1580062841.0	4.37	8.09
26/01/2020 18:20:42	26012020	260120	182042	94.390	12.189575	-56.131123	94.460	-0.630	0.300	1.220	94.380	-1.100	1.500																			1580062842.0	4.34	8.04
26/01/2020 18:20:43	26012020	260120	182043	94.420	12.189565	-56.131107	94.540	-0.070	0.210	1.610	94.440	-1.100	1.900																			1580062843.0	4.34	8.04
26/01/2020 18:20:44	26012020	260120	182044	94.640	12.189557	-56.131087	94.790	0.510	-0.010	1.430	94.710	-1.400	1.800																			1580062844.0	4.45	8.24
26/01/2020 18:20:45	26012020	260120	182045	94.990	12.189553	-56.131067	95.130	0.750	0.100	0.750	95.060	-1.300	1.200																			1580062845.0	4.32	8.00
26/01/2020 18:20:46	26012020	260120	182046	95.310	12.189555	-56.131048	95.370	0.570	0.400	-0.070	95.310	-1.000	0.300																			1580062846.0	3.82	7.07
26/01/2020 18:20:47	26012020	260120	182047	95.320	12.189557	-56.131033	95.330	0.240	0.350	-0.590	95.280	-1.300	-0.300																			1580062847.0	3.40	6.30
26/01/2020 18:20:48	26012020	260120	182048	94.920	12.189558	-56.131017	94.970	0.070	-0.340	-0.610	94.920	-1.600	-0.300																			1580062848.0	3.54	6.56
26/01/2020 18:20:49	26012020	260120	182049	94.540	12.189557	-56.130997	94.510	0.090	-1.240	-0.330	94.460	-2.900	0.200																			1580062849.0	4.21	7.80
26/01/2020 18:20:50	26012020	260120	182050	94.140	12.189552	-56.130975	94.150	0.090	-1.560	0.090	94.080	-2.900	0.400																			1580062850.0	4.75	8.80
26/01/2020 18:20:51	26012020	260120	182051	93.910	12.189545	-56.130955	93.950	-0.160	-0.910	0.510	93.890	-2.400	0.800																			1580062851.0	4.52	8.37
26/01/2020 18:20:52	26012020	260120	182052	93.880	12.189538	-56.130938	93.950	-0.570	0.270	0.740	93.900	-1.200	1.100																			1580062852.0	3.78	7.00
26/01/2020 18:20:53	26012020	260120	182053	94.020	12.189532	-56.130925	94.080	-0.840	1.140	0.670	94.050	-0.300	1.000																			1580062853.0	3.24	6.00
26/01/2020 18:20:54	26012020	260120	182054	94.210	12.189525	-56.130910	94.290	-0.720	1.200	0.400	94.260	-0.100	0.800																			1580062854.0	3.32	6.15
26/01/2020 18:20:55	26012020	260120	182055	94.410	12.189522	-56.130892	94.470	-0.210	0.500	-0.010	94.440	-0.800	0.400																			1580062855.0	3.88	7.19
26/01/2020 18:20:56	26012020	260120	182056	94.550	12.189518	-56.130872	94.590	0.440	-0.410	-0.520	94.550	-1.700	-0.100																			1580062856.0	4.48	8.30
26/01/2020 18:20:57	26012020	260120	182057	94.600	12.189517	-56.130850	94.620	0.890	-0.940	-0.950	94.610	-2.300	-0.600																			1580062857.0	4.66	8.63
26/01/2020 18:20:58	26012020	260120	182058	94.590	12.189517	-56.130828	94.600	0.920	-0.810	-1.000	94.590	-2.200	-0.700																			1580062858.0	4.26	7.89
26/01/2020 18:20:59	26012020	260120	182059	94.510	12.189517	-56.130812	94.490	0.590	-0.280	-0.650	94.480	-1.700	-0.400	1014.10	26.20	26.30	20.60	20.70	715.00	71.00	71.00	382.00	29.50	353.00	6.10	84.00	3.90	50799	3405.00	27.90	27.80	1580062859.0	3.56	6.59
26/01/2020 18:21:00	26012020	260120	182100	94.300	12.189513	-56.130797	94.330	0.150	0.110	-0.120	94.300	-1.300	0.200																			1580062860.0	3.21	5.94
26/01/2020 18:21:01	26012020	260120	182101	94.140	12.189508	-56.130782	94.170	-0.210	0.110	0.440	94.110	-1.200	0.700																			1580062861.0	3.44	6.37
26/01/2020 18:21:02	26012020	260120	182102	94.020	12.189503	-56.130763	94.080	-0.450	-0.100	1.020	94.010	-1.400	1.300																			1580062862.0	3.96	7.33
26/01/2020 18:21:03	26012020	260120	182103	93.970	12.189495	-56.130745	94.050	-0.570	-0.280	1.530	93.970	-1.600	1.800																			1580062863.0	4.31	7.98
26/01/2020 18:21:04	26012020	260120	182104	93.950	12.189487	-56.130727	94.040	-0.570	-0.300	1.760	93.950	-1.700	2.100																			1580062864.0	4.32	8.00
26/01/2020 18:21:05	26012020	260120	182105	93.960	12.189480	-56.130708	94.060	-0.410	-0.200	1.600	93.970	-1.600	2.000																			1580062865.0	4.12	7.63
26/01/2020 18:21:06	26012020	260120	182106	94.020	12.189475	-56.130690	94.100	-0.100	-0.110	1.070	94.030	-1.500	1.500																			1580062866.0	3.90	7.22
26/01/2020 18:21:07	26012020	260120	182107	94.030	12.189472	-56.130673	94.070	0.260	-0.130	0.350	94.010	-1.500	0.800																			1580062867.0	3.86	7.15
26/01/2020 18:21:08	26012020	260120	182108	93.950	12.189472	-56.130653	93.970	0.500	-0.160	-0.470	93.940	-1.500	-0.000																			1580062868.0	4.01	7.43
26/01/2020 18:21:09	26012020	260120	182109	93.960	12.189473	-56.130635	94.010	0.460	0.060	-1.320	93.980	-1.300	-0.900																			1580062869.0	4.05	7.50
26/01/2020 18:21:10	26012020	260120	182110	94.110	12.189475	-56.130617	94.170	0.190	0.360	-1.890	94.150	-1.000	-1.500																			1580062870.0	3.72	6.89
26/01/2020 18:21:11	26012020	260120	182111	94.290	12.189477	-56.130602	94.360	-0.040	0.320	-1.990	94.310	-1.000	-1.700																			1580062871.0	3.43	6.35
26/01/2020 18:21:12	26012020	260120	182112	94.370	12.189475	-56.130583	94.420	-0.040	-0.130	-1.610	94.370	-1.400	-1.300																			1580062872.0	3.66	6.78
26/01/2020 18:21:13	26012020	260120	182113	94.280	12.189470	-56.130565	94.320	0.110	-0.660	-0.770	94.240	-2.200	0.100																			1580062873.0	4.19	7.76
26/01/2020 18:21:14	26012020	260120	182114	94.050	12.189462	-56.130545	94.080	0.240	-0.860	0.370	94.000	-2.200	0.600																			1580062874.0	4.49	8.32
26/01/2020 18:21:15	26012020	260120	182115	93.810	12.189453	-56.130527	93.870	0.180	-0.580	1.500	93.770	-2.000	1.700																			1580062875.0	4.42	8.19
26/01/2020 18:21:16	26012020	260120	182116	93.690	12.189443	-56.130510	93.800	-0.080	0.000	2.220	93.690	-1.400	2.500																			1580062876.0	4.07	7.54
26/01/2020 18:21:17	26012020	260120	182117	93.750	12.189435	-56.130495	93.870	-0.360	0.430	2.390	93.770	-1.000	2.700																			1580062877.0	3.65	6.76
26/01/2020 18:21:18	26012020	260120	182118	93.840	12.189430	-56.130478	93.920	-0.410	0.330	2.090	93.850	-1.000	2.500																			1580062878.0	3.56	6.59
26/01/2020 18:21:19	26012020	260120	182119	93.860	12.189427	-56.130460	93.910	-0.180	-0.150	1.460	93.860	-1.500	1.900																			1580062879.0	3.99	7.39
26/01/2020 18:21:20	26012020	260120	182120	93.850	12.189425	-56.130440	93.870	0.100	-0.460	0.590	93.840	-1.800	1.000																			1580062880.0	4.39	8.13
26/01/2020 18:21:21	26012020	260120	182121	93.840	12.189425	-56.130420	93.850	0.200	-0.310	-0.400	93.840	-1.700	0.100																			1580062881.0	4.23	7.83
26/01/2020 18:21:22	26012020	260120	182122	93.870	12.189427	-56.130402	93.880	0.120	0.020	-1.340	93.880	-1.400	-0.900																			1580062882.0	3.73	6.91
26/01/2020 18:21:23	26012020	260120	182123	93.930	12.189428	-56.130387	93.950	0.040	0.140	-1.990	93.950	-1.200	-1.600																			1580062883.0	3.48	6.44
26/01/2020 18:21:24	26012020	260120	182124	93.990	12.189430	-56.130368	93.990	0.040	-0.090	-2.160	93.990	-1.400	-1.800																			1580062884.0	3.65	6.76
26/01/2020 18:21:25	26012020	260120	182125	93.970	12.189428	-56.130350	93.940	0.090	-0.400	-1.820	93.940	-1.800	-1.100																			1580062885.0	4.02	7.45
26/01/2020 18:21:26	26012020	260120	182126	93.840	12.189423	-56.130330	93.840	0.080	-0.460	-1.040	93.810	-1.800	-0.800																			1580062886.0	4.23	7.83
26/01/2020 18:21:27	26012020	260120	182127	93.690	12.189417	-56.130312	93.740	0.030	-0.240	-0.010	93.660	-1.600	0.200																			1580062887.0	4.14	7.67
26/01/2020 18:21:28	26012020	260120	182128	93.580	12.189408	-56.130295	93.670	0.020	0.070	1.020	93.570	-1.300	1.200																			1580062888.0	4.02	7.45
26/01/2020 18:21:29	26012020	260120	182129	93.550	12.189398	-56.130278	93.690	0.010	0.260	1.780	93.570	-1.100	2.000																			1580062889.0	4.00	7.41
26/01/2020 18:21:30	26012020	260120	182130	93.660	12.189392	-56.130262	93.810	-0.070	0.290	2.060	93.700	-1.100	2.400																			1580062890.0	3.96	7.33
26/01/2020 18:21:31	26012020	260120	182131	93.820	12.189385	-56.130245	93.930	-0.190	0.120	1.890	93.840	-1.200	2.300																			1580062891.0	3.82	7.07
26/01/2020 18:21:32	26012020	260120	182132	93.870	12.189382	-56.130227	93.930	-0.180	-0.260	1.420	93.860	-1.600	1.800																			1580062892.0	3.81	7.06
26/01/2020 18:21:33	26012020	260120	182133	93.780	12.189380	-56.130208	93.800	0.020	-0.720	0.810	93.750	-2.000	1.200																			1580062893.0	3.99	7.39
26/01/2020 18:21:34	26012020	260120	182134	93.600	12.189380	-56.130188	93.600	0.300	-0.960	0.160	93.560	-2.300	0.600																			1580062894.0	4.20	7.78
26/01/2020 18:21:35	26012020	260120	182135	93.470	12.189380	-56.130168	93.490	0.390	-0.710	-0.500	93.460	-2.100	-0.100																			1580062895.0	4.18	7.74
26/01/2020 18:21:36	26012020	260120	182136	93.500	12.189380	-56.130150	93.530	0.180	-0.020	-1.130	93.530	-1.500	-0.700																			1580062896.0	3.84	7.11
26/01/2020 18:21:37	26012020	260120	182137	93.670	12.189382	-56.130135	93.700	-0.200	0.690	-1.610	93.720	-0.500	-1.400																			1580062897.0	3.37	6.24
26/01/2020 18:21:38	26012020	260120	182138	93.900	12.189382	-56.130120	93.940	-0.460	0.840	-1.700	93.930	-0.500	-1.400																			1580062898.0	3.22	5.96
26/01/2020 18:21:39	26012020	260120	182139	94.020	12.189378	-56.130103	94.050	-0.400	0.340	-1.290	94.020	-1.400	-0.500																			1580062899.0	3.64	6.74
26/01/2020 18:21:40	26012020	260120	182140	93.960	12.189373	-56.130083	93.980	-0.100	-0.420	-0.500	93.930	-1.700	-0.300																			1580062900.0	4.35	8.06
26/01/2020 18:21:41	26012020	260120	182141	93.800	12.189365	-56.130062	93.840	0.210	-0.890	0.410	93.770	-2.200	0.700																			1580062901.0	4.75	8.80
26/01/2020 18:21:42	26012020	260120	182142	93.650	12.189357	-56.130042	93.700	0.370	-0.840	1.180	93.630	-2.200	1.400																			1580062902.0	4.57	8.46
26/01/2020 18:21:43	26012020	260120	182143	93.590	12.189348	-56.130025	93.680	0.340	-0.330	1.560	93.600	-1.800	1.900																			1580062903.0	4.04	7.48
26/01/2020 18:21:44	26012020	260120	182144	93.760	12.189343	-56.130008	93.840	0.130	0.290	1.450	93.760	-1.100	1.800																			1580062904.0	3.51	6.50
26/01/2020 18:21:45	26012020	260120	182145	93.930	12.189342	-56.129993	94.030	-0.120	0.620	0.970	93.970	-0.800	1.400																			1580062905.0	3.23	5.98
26/01/2020 18:21:46	26012020	260120	182146	94.080	12.189340	-56.129978	94.140	-0.240	0.380	0.390	94.100	-0.900	0.800																			1580062906.0	3.42	6.33
26/01/2020 18:21:47	26012020	260120	182147	94.150	12.189340	-56.129960	94.170	-0.170	-0.210	-0.100	94.150	-1.500	0.300																			1580062907.0	3.93	7.28
26/01/2020 18:21:48	26012020	260120	182148	94.090	12.189338	-56.129938	94.090	-0.030	-0.680	-0.380	94.070	-2.000	-0.000																			1580062908.0	4.33	8.02
26/01/2020 18:21:49	26012020	260120	182149	93.940	12.189337	-56.129918	93.930	0.030	-0.730	-0.520	93.910	-2.100	-0.200																			1580062909.0	4.25	7.87
26/01/2020 18:21:50	26012020	260120	182150	93.800	12.189335	-56.129900	93.820	-0.010	-0.390	-0.590	93.790	-1.800	-0.200																			1580062910.0	3.88	7.19
26/01/2020 18:21:51	26012020	260120	182151	93.770	12.189332	-56.129885	93.810	-0.030	0.000	-0.630	93.770	-1.400	-0.300																			1580062911.0	3.51	6.50
26/01/2020 18:21:52	26012020	260120	182152	93.820	12.189328	-56.129868	93.880	0.030	0.070	-0.600	93.830	-1.300	-0.300																			1580062912.0	3.49	6.46
26/01/2020 18:21:53	26012020	260120	182153	93.910	12.189325	-56.129850	93.970	0.160	-0.150	-0.460	93.920	-1.500	-0.100																			1580062913.0	3.88	7.19
26/01/2020 18:21:54	26012020	260120	182154	93.960	12.189322	-56.129830	94.020	0.180	-0.300	-0.150	93.950	-1.600	0.200																			1580062914.0	4.27	7.91
26/01/2020 18:21:55	26012020	260120	182155	93.900	12.189317	-56.129810	93.960	0.000	-0.140	0.270	93.880	-1.500	0.600																			1580062915.0	4.23	7.83
26/01/2020 18:21:56	26012020	260120	182156	93.830	12.189312	-56.129793	93.920	-0.250	0.230	0.680	93.830	-1.200	1.000																			1580062916.0	3.89	7.20
26/01/2020 18:21:57	26012020	260120	182157	93.910	12.189305	-56.129777	94.040	-0.360	0.500	0.880	93.950	-0.900	1.200																			1580062917.0	3.62	6.70
26/01/2020 18:21:58	26012020	260120	182158	94.130	12.189300	-56.129762	94.250	-0.240	0.370	0.840	94.170	-0.900	1.200																			1580062918.0	3.56	6.59
26/01/2020 18:21:59	26012020	260120	182159	94.260	12.189297	-56.129743	94.340	-0.000	-0.060	0.610	94.270	-1.400	1.000	1014.10	26.20	26.30	20.90	20.90	711.00	72.00	72.00	382.00	29.50	359.00	5.40	93.00	3.40	50364	3312.00	27.80	27.80	1580062919.0	3.81	7.06
26/01/2020 18:22:00	26012020	260120	182200	94.210	12.189293	-56.129725	94.270	0.220	-0.510	0.300	94.210	-1.800	0.700																			1580062920.0	4.07	7.54
26/01/2020 18:22:01	26012020	260120	182201	94.120	12.189293	-56.129705	94.150	0.390	-0.760	0.070	94.090	-2.100	0.400																			1580062921.0	4.05	7.50
26/01/2020 18:22:02	26012020	260120	182202	94.010	12.189292	-56.129687	94.040	0.460	-0.770	-0.150	93.980	-2.100	0.200																			1580062922.0	3.95	7.32
26/01/2020 18:22:03	26012020	260120	182203	93.880	12.189292	-56.129668	93.900	0.360	-0.570	-0.300	93.850	-1.700	0.000																			1580062923.0	3.85	7.13
26/01/2020 18:22:04	26012020	260120	182204	93.750	12.189290	-56.129652	93.790	0.060	-0.230	-0.340	93.740	-1.600	0.000																			1580062924.0	3.75	6.95
26/01/2020 18:22:05	26012020	260120	182205	93.720	12.189288	-56.129633	93.800	-0.310	0.110	-0.250	93.720	-1.300	0.100																			1580062925.0	3.70	6.85
26/01/2020 18:22:06	26012020	260120	182206	93.810	12.189285	-56.129617	93.880	-0.550	0.270	-0.060	93.810	-1.100	0.300																			1580062926.0	3.76	6.96
26/01/2020 18:22:07	26012020	260120	182207	93.920	12.189278	-56.129598	94.020	-0.540	0.240	0.210	93.950	-1.100	0.500																			1580062927.0	4.01	7.43
26/01/2020 18:22:08	26012020	260120	182208	94.040	12.189270	-56.129580	94.130	-0.320	0.180	0.410	94.050	-1.200	0.700																			1580062928.0	4.23	7.83
26/01/2020 18:22:09	26012020	260120	182209	94.070	12.189263	-56.129562	94.130	0.020	0.140	0.410	94.070	-1.200	0.800																			1580062929.0	4.11	7.61
26/01/2020 18:22:10	26012020	260120	182210	94.070	12.189260	-56.129543	94.130	0.320	0.050	0.160	94.070	-1.300	0.500																			1580062930.0	3.89	7.20
26/01/2020 18:22:11	26012020	260120	182211	94.140	12.189260	-56.129525	94.220	0.450	-0.040	-0.220	94.160	-1.400	0.200																			1580062931.0	3.81	7.06
26/01/2020 18:22:12	26012020	260120	182212	94.300	12.189260	-56.129508	94.400	0.350	-0.140	-0.530	94.330	-1.500	-0.200																			1580062932.0	3.76	6.96
26/01/2020 18:22:13	26012020	260120	182213	94.450	12.189262	-56.129490	94.540	0.150	-0.360	-0.590	94.470	-1.700	-0.300																			1580062933.0	3.68	6.82
26/01/2020 18:22:14	26012020	260120	182214	94.400	12.189260	-56.129473	94.480	0.040	-0.680	-0.270	94.400	-2.000	0.000																			1580062934.0	3.79	7.02
26/01/2020 18:22:15	26012020	260120	182215	94.190	12.189255	-56.129453	94.210	0.050	-0.920	0.330	94.120	-2.300	1.100																			1580062935.0	4.11	7.61
26/01/2020 18:22:16	26012020	260120	182216	93.740	12.189248	-56.129435	93.850	0.100	-0.840	1.040	93.740	-2.200	1.300																			1580062936.0	4.33	8.02
26/01/2020 18:22:17	26012020	260120	182217	93.550	12.189240	-56.129417	93.640	0.030	-0.380	1.480	93.530	-1.800	1.800																			1580062937.0	4.28	7.93
26/01/2020 18:22:18	26012020	260120	182218	93.620	12.189233	-56.129398	93.770	-0.170	0.270	1.350	93.660	-1.100	1.700																			1580062938.0	3.92	7.26
26/01/2020 18:22:19	26012020	260120	182219	94.000	12.189230	-56.129382	94.180	-0.370	0.790	0.680	94.100	-0.600	1.100																			1580062939.0	3.59	6.65
26/01/2020 18:22:20	26012020	260120	182220	94.470	12.189230	-56.129365	94.610	-0.460	1.010	-0.150	94.540	-0.300	0.300																			1580062940.0	3.54	6.56
26/01/2020 18:22:21	26012020	260120	182221	94.770	12.189230	-56.129348	94.860	-0.400	0.790	-0.770	94.810	-0.500	-0.400																			1580062941.0	3.62	6.70
26/01/2020 18:22:22	26012020	260120	182222	94.870	12.189228	-56.129330	94.900	-0.140	0.090	-1.160	94.870	-1.200	-0.800																			1580062942.0	3.79	7.02
26/01/2020 18:22:23	26012020	260120	182223	94.810	12.189227	-56.129310	94.820	0.260	-0.820	-1.330	94.790	-2.100	-1.000																			1580062943.0	4.15	7.69
26/01/2020 18:22:24	26012020	260120	182224	94.650	12.189227	-56.129290	94.640	0.560	-1.370	-1.140	94.610	-2.700	-0.800																			1580062944.0	4.43	8.20
26/01/2020 18:22:25	26012020	260120	182225	94.440	12.189223	-56.129270	94.450	0.580	-1.250	-0.640	94.400	-2.600	-0.400																			1580062945.0	4.24	7.85
26/01/2020 18:22:26	26012020	260120	182226	94.270	12.189220	-56.129252	94.310	0.300	-0.610	-0.020	94.250	-2.000	0.300																			1580062946.0	3.80	7.04
26/01/2020 18:22:27	26012020	260120	182227	94.220	12.189215	-56.129237	94.310	-0.080	0.140	0.560	94.230	-1.300	0.900																			1580062947.0	3.52	6.52
26/01/2020 18:22:28	26012020	260120	182228	94.320	12.189208	-56.129222	94.450	-0.320	0.580	1.000	94.360	-0.800	1.300																			1580062948.0	3.53	6.54
26/01/2020 18:22:29	26012020	260120	182229	94.540	12.189202	-56.129205	94.680	-0.310	0.530	1.190	94.580	-1.000	1.500																			1580062949.0	3.85	7.13
26/01/2020 18:22:30	26012020	260120	182230	94.750	12.189195	-56.129185	94.880	-0.130	0.190	1.140	94.790	-1.100	1.500																			1580062950.0	4.24	7.85
26/01/2020 18:22:31	26012020	260120	182231	94.900	12.189190	-56.129165	95.010	0.050	-0.060	0.820	94.920	-1.400	1.200																			1580062951.0	4.36	8.07
26/01/2020 18:22:32	26012020	260120	182232	94.970	12.189188	-56.129147	95.060	0.100	-0.070	0.290	94.980	-1.400	0.700																			1580062952.0	4.12	7.63
26/01/2020 18:22:33	26012020	260120	182233	95.000	12.189188	-56.129128	95.090	0.020	0.020	-0.250	95.020	-1.300	0.200																			1580062953.0	3.75	6.95
26/01/2020 18:22:34	26012020	260120	182234	95.030	12.189190	-56.129112	95.090	-0.110	-0.080	-0.680	95.030	-1.400	-0.300																			1580062954.0	3.58	6.63
26/01/2020 18:22:35	26012020	260120	182235	95.030	12.189188	-56.129093	95.080	-0.190	-0.380	-0.890	95.020	-1.700	-0.500																			1580062955.0	3.72	6.89
26/01/2020 18:22:36	26012020	260120	182236	94.960	12.189187	-56.129075	94.980	-0.180	-0.710	-0.810	94.930	-2.000	-0.500																			1580062956.0	3.99	7.39
26/01/2020 18:22:37	26012020	260120	182237	94.820	12.189183	-56.129055	94.840	-0.090	-0.820	-0.500	94.790	-2.100	-0.200																			1580062957.0	4.18	7.74
26/01/2020 18:22:38	26012020	260120	182238	94.720	12.189178	-56.129037	94.760	0.040	-0.580	-0.100	94.710	-1.900	0.200																			1580062958.0	4.19	7.76
26/01/2020 18:22:39	26012020	260120	182239	94.700	12.189172	-56.129018	94.770	0.150	-0.090	0.260	94.710	-1.500	0.600																			1580062959.0	4.02	7.45
26/01/2020 18:22:40	26012020	260120	182240	94.770	12.189165	-56.129002	94.870	0.230	0.390	0.410	94.810	-1.000	0.700																			1580062960.0	3.81	7.06
26/01/2020 18:22:41	26012020	260120	182241	94.950	12.189162	-56.128985	95.050	0.240	0.620	0.280	94.990	-0.700	0.600																			1580062961.0	3.70	6.85
26/01/2020 18:22:42	26012020	260120	182242	95.150	12.189160	-56.128967	95.250	0.160	0.550	0.020	95.190	-0.800	0.400																			1580062962.0	3.77	6.98
26/01/2020 18:22:43	26012020	260120	182243	95.310	12.189158	-56.128948	95.380	0.050	0.250	-0.160	95.330	-1.000	0.200																			1580062963.0	3.88	7.19
26/01/2020 18:22:44	26012020	260120	182244	95.370	12.189157	-56.128930	95.430	-0.040	-0.230	-0.170	95.380	-1.500	0.200																			1580062964.0	3.95	7.32
26/01/2020 18:22:45	26012020	260120	182245	95.340	12.189155	-56.128912	95.380	-0.100	-0.720	0.030	95.320	-2.000	0.400																			1580062965.0	4.09	7.57
26/01/2020 18:22:46	26012020	260120	182246	95.180	12.189150	-56.128892	95.200	-0.200	-0.910	0.410	95.140	-2.200	0.700																			1580062966.0	4.20	7.78
26/01/2020 18:22:47	26012020	260120	182247	94.980	12.189145	-56.128873	95.030	-0.320	-0.710	0.750	94.960	-2.100	1.100																			1580062967.0	4.07	7.54
26/01/2020 18:22:48	26012020	260120	182248	94.880	12.189138	-56.128857	94.940	-0.330	-0.360	0.930	94.870	-1.700	1.300																			1580062968.0	3.81	7.06
26/01/2020 18:22:49	26012020	260120	182249	94.870	12.189133	-56.128840	94.940	-0.140	-0.140	0.890	94.870	-1.500	1.200																			1580062969.0	3.78	7.00
26/01/2020 18:22:50	26012020	260120	182250	94.920	12.189128	-56.128822	94.990	0.160	-0.020	0.570	94.940	-1.400	1.000																			1580062970.0	3.99	7.39
26/01/2020 18:22:51	26012020	260120	182251	95.060	12.189125	-56.128802	95.150	0.350	0.200	-0.020	95.100	-1.200	0.400																			1580062971.0	4.14	7.67
26/01/2020 18:22:52	26012020	260120	182252	95.280	12.189125	-56.128783	95.360	0.310	0.510	-0.660	95.320	-0.900	-0.300																			1580062972.0	3.99	7.39
26/01/2020 18:22:53	26012020	260120	182253	95.430	12.189127	-56.128765	95.500	0.140	0.700	-1.080	95.460	-0.700	-0.800																			1580062973.0	3.70	6.85
26/01/2020 18:22:54	26012020	260120	182254	95.540	12.189127	-56.128748	95.600	0.030	0.430	-1.230	95.570	-0.800	-0.900																			1580062974.0	3.55	6.57
26/01/2020 18:22:55	26012020	260120	182255	95.680	12.189127	-56.128730	95.750	0.090	-0.360	-1.130	95.700	-1.600	-0.800																			1580062975.0	3.82	7.07
26/01/2020 18:22:56	26012020	260120	182256	95.720	12.189123	-56.128710	95.750	0.150	-1.150	-0.650	95.700	-2.400	-0.400																			1580062976.0	4.39	8.13
26/01/2020 18:22:57	26012020	260120	182257	95.550	12.189117	-56.128690	95.560	-0.010	-1.230	0.240	95.500	-2.600	0.500																			1580062977.0	4.63	8.57
26/01/2020 18:22:58	26012020	260120	182258	95.300	12.189108	-56.128672	95.330	-0.360	-0.580	1.180	95.260	-2.000	1.400																			1580062978.0	4.24	7.85
26/01/2020 18:22:59	26012020	260120	182259	95.130	12.189098	-56.128657	95.200	-0.590	0.180	1.760	95.110	-1.200	2.100	1014.10	26.20	26.30	20.70	20.70	706.00	71.00	71.00	382.00	29.60	1.00	5.50	96.00	3.40	50139	3331.00	27.90	27.80	1580062979.0	3.69	6.83
26/01/2020 18:23:00	26012020	260120	182300	95.060	12.189092	-56.128643	95.150	-0.420	0.360	1.840	95.060	-1.000	2.200																			1580062980.0	3.46	6.41
26/01/2020 18:23:01	26012020	260120	182301	95.070	12.189087	-56.128625	95.150	0.080	-0.090	1.460	95.070	-1.400	1.900																			1580062981.0	3.91	7.24
26/01/2020 18:23:02	26012020	260120	182302	95.140	12.189083	-56.128603	95.250	0.550	-0.500	0.710	95.180	-1.800	1.100																			1580062982.0	4.62	8.56
26/01/2020 18:23:03	26012020	260120	182303	95.360	12.189085	-56.128582	95.490	0.590	-0.210	-0.200	95.420	-1.600	0.200																			1580062983.0	4.70	8.70
26/01/2020 18:23:04	26012020	260120	182304	95.780	12.189087	-56.128563	95.830	0.170	0.640	-1.010	95.780	-0.800	-0.600																			1580062984.0	3.92	7.26
26/01/2020 18:23:05	26012020	260120	182305	96.030	12.189088	-56.128548	96.120	-0.340	1.230	-1.490	96.080	-0.100	-1.100																			1580062985.0	3.01	5.57
26/01/2020 18:23:06	26012020	260120	182306	96.190	12.189088	-56.128535	96.240	-0.550	0.890	-1.510	96.200	-0.400	-1.200																			1580062986.0	2.89	5.35
26/01/2020 18:23:07	26012020	260120	182307	96.140	12.189085	-56.128518	96.150	-0.290	-0.270	-1.110	96.100	-1.500	-0.800																			1580062987.0	3.63	6.72
26/01/2020 18:23:08	26012020	260120	182308	95.910	12.189078	-56.128497	95.910	0.270	-1.580	-0.440	95.870	-2.800	-0.200																			1580062988.0	4.52	8.37
26/01/2020 18:23:09	26012020	260120	182309	95.700	12.189072	-56.128475	95.710	0.700	-2.170	0.310	95.670	-3.500	0.600																			1580062989.0	4.97	9.20
26/01/2020 18:23:10	26012020	260120	182310	95.590	12.189065	-56.128455	95.620	0.640	-1.590	1.030	95.570	-3.000	1.300																			1580062990.0	4.60	8.52
26/01/2020 18:23:11	26012020	260120	182311	95.550	12.189058	-56.128438	95.610	0.130	-0.190	1.550	95.550	-1.700	1.800																			1580062991.0	3.75	6.95
26/01/2020 18:23:12	26012020	260120	182312	95.570	12.189052	-56.128425	95.640	-0.480	1.100	1.700	95.580	-0.400	2.000																			1580062992.0	3.05	5.65
26/01/2020 18:23:13	26012020	260120	182313	95.610	12.189047	-56.128412	95.700	-0.820	1.510	1.420	95.630	0.200	1.800																			1580062993.0	2.98	5.52
26/01/2020 18:23:14	26012020	260120	182314	95.720	12.189043	-56.128395	95.810	-0.700	0.940	0.730	95.760	-0.300	1.200																			1580062994.0	3.62	6.70
26/01/2020 18:23:15	26012020	260120	182315	95.940	12.189043	-56.128373	96.040	-0.280	0.010	-0.160	96.000	-1.300	0.300																			1580062995.0	4.46	8.26
26/01/2020 18:23:16	26012020	260120	182316	96.190	12.189042	-56.128352	96.280	0.120	-0.500	-0.960	96.240	-1.800	-0.500																			1580062996.0	4.75	8.80
26/01/2020 18:23:17	26012020	260120	182317	96.410	12.189042	-56.128332	96.470	0.260	-0.290	-1.580	96.450	-1.400	-1.500																			1580062997.0	4.18	7.74
26/01/2020 18:23:18	26012020	260120	182318	96.570	12.189042	-56.128317	96.600	0.220	0.090	-1.900	96.590	-1.300	-1.500																			1580062998.0	3.27	6.06
26/01/2020 18:23:19	26012020	260120	182319	96.570	12.189042	-56.128303	96.560	0.250	0.010	-1.720	96.540	-1.700	-1.000																			1580062999.0	2.92	5.41
26/01/2020 18:23:20	26012020	260120	182320	96.320	12.189038	-56.128287	96.290	0.440	-0.660	-1.040	96.260	-1.900	-0.800																			1580063000.0	3.45	6.39
26/01/2020 18:23:21	26012020	260120	182321	96.000	12.189033	-56.128267	96.010	0.600	-1.300	-0.120	95.960	-2.600	0.100																			1580063001.0	4.29	7.95
26/01/2020 18:23:22	26012020	260120	182322	95.780	12.189027	-56.128247	95.870	0.440	-1.300	0.820	95.780	-2.700	1.100																			1580063002.0	4.61	8.54
26/01/2020 18:23:23	26012020	260120	182323	95.750	12.189018	-56.128228	95.860	-0.040	-0.530	1.670	95.750	-2.000	1.900																			1580063003.0	4.26	7.89
26/01/2020 18:23:24	26012020	260120	182324	95.810	12.189010	-56.128213	95.940	-0.550	0.450	2.140	95.830	-1.000	2.400																			1580063004.0	3.69	6.83
26/01/2020 18:23:25	26012020	260120	182325	95.910	12.189002	-56.128200	96.040	-0.740	0.920	2.150	95.930	-0.400	2.500																			1580063005.0	3.39	6.28
26/01/2020 18:23:26	26012020	260120	182326	95.980	12.188995	-56.128183	96.090	-0.540	0.770	1.730	95.990	-0.500	2.100																			1580063006.0	3.66	6.78
26/01/2020 18:23:27	26012020	260120	182327	96.090	12.188992	-56.128163	96.190	-0.190	0.340	0.890	96.120	-1.000	1.300																			1580063007.0	4.13	7.65
26/01/2020 18:23:28	26012020	260120	182328	96.350	12.188992	-56.128143	96.420	0.100	0.020	-0.210	96.350	-1.300	0.300																			1580063008.0	4.25	7.87
26/01/2020 18:23:29	26012020	260120	182329	96.520	12.188993	-56.128125	96.610	0.260	-0.130	-1.210	96.550	-1.500	-0.800																			1580063009.0	4.05	7.50
26/01/2020 18:23:30	26012020	260120	182330	96.600	12.188997	-56.128107	96.650	0.310	-0.150	-1.860	96.600	-1.500	-1.500																			1580063010.0	3.80	7.04
26/01/2020 18:23:31	26012020	260120	182331	96.580	12.188997	-56.128090	96.600	0.250	-0.170	-2.080	96.570	-1.500	-1.700																			1580063011.0	3.54	6.56
26/01/2020 18:23:32	26012020	260120	182332	96.540	12.188997	-56.128073	96.550	0.140	-0.340	-1.820	96.530	-1.600	-1.500																			1580063012.0	3.44	6.37
26/01/2020 18:23:33	26012020	260120	182333	96.450	12.188992	-56.128057	96.470	0.060	-0.680	-1.040	96.420	-2.000	-0.800																			1580063013.0	3.63	6.72
26/01/2020 18:23:34	26012020	260120	182334	96.270	12.188985	-56.128040	96.300	0.070	-0.970	0.030	96.230	-2.300	0.300																			1580063014.0	4.08	7.56
26/01/2020 18:23:35	26012020	260120	182335	96.070	12.188975	-56.128022	96.110	0.120	-0.950	1.070	96.030	-2.300	1.300																			1580063015.0	4.35	8.06
26/01/2020 18:23:36	26012020	260120	182336	95.830	12.188967	-56.128003	95.870	0.150	-0.620	1.930	95.780	-2.000	2.200																			1580063016.0	4.28	7.93
26/01/2020 18:23:37	26012020	260120	182337	95.640	12.188957	-56.127987	95.740	0.080	-0.070	2.410	95.630	-1.500	2.700																			1580063017.0	4.12	7.63
26/01/2020 18:23:38	26012020	260120	182338	95.670	12.188950	-56.127968	95.810	-0.110	0.600	2.230	95.710	-0.800	2.600																			1580063018.0	3.90	7.22
26/01/2020 18:23:39	26012020	260120	182339	95.890	12.188947	-56.127952	96.030	-0.350	1.080	1.460	95.950	-0.300	1.900																			1580063019.0	3.55	6.57
26/01/2020 18:23:40	26012020	260120	182340	96.180	12.188947	-56.127937	96.310	-0.440	1.040	0.390	96.240	-0.300	0.900																			1580063020.0	3.46	6.41
26/01/2020 18:23:41	26012020	260120	182341	96.440	12.188948	-56.127918	96.550	-0.300	0.480	-0.680	96.480	-0.800	-0.200																			1580063021.0	3.79	7.02
26/01/2020 18:23:42	26012020	260120	182342	96.600	12.188948	-56.127898	96.670	-0.040	-0.180	-1.530	96.620	-1.500	-1.100																			1580063022.0	4.15	7.69
26/01/2020 18:23:43	26012020	260120	182343	96.630	12.188948	-56.127880	96.630	0.160	-0.590	-2.000	96.610	-2.000	-1.700																			1580063023.0	4.08	7.56
26/01/2020 18:23:44	26012020	260120	182344	96.490	12.188948	-56.127862	96.470	0.240	-0.810	-1.950	96.460	-2.100	-1.600																			1580063024.0	3.73	6.91
26/01/2020 18:23:45	26012020	260120	182345	96.250	12.188947	-56.127845	96.240	0.250	-0.990	-1.390	96.200	-2.300	-1.100																			1580063025.0	3.59	6.65
26/01/2020 18:23:46	26012020	260120	182346	95.990	12.188940	-56.127828	96.000	0.240	-1.050	-0.540	95.940	-2.400	-0.300																			1580063026.0	3.81	7.06
26/01/2020 18:23:47	26012020	260120	182347	95.740	12.188933	-56.127810	95.760	0.210	-0.820	0.400	95.700	-2.200	0.600																			1580063027.0	4.09	7.57
26/01/2020 18:23:48	26012020	260120	182348	95.540	12.188925	-56.127792	95.620	0.120	-0.290	1.230	95.540	-1.700	1.500																			1580063028.0	4.14	7.67
26/01/2020 18:23:49	26012020	260120	182349	95.530	12.188917	-56.127775	95.650	-0.040	0.360	1.730	95.550	-1.000	2.000																			1580063029.0	3.99	7.39
26/01/2020 18:23:50	26012020	260120	182350	95.710	12.188910	-56.127758	95.810	-0.190	0.820	1.760	95.710	-0.500	2.100																			1580063030.0	3.76	6.96
26/01/2020 18:23:51	26012020	260120	182351	95.910	12.188905	-56.127742	96.040	-0.270	0.870	1.320	95.960	-0.500	1.700																			1580063031.0	3.68	6.82
26/01/2020 18:23:52	26012020	260120	182352	96.200	12.188903	-56.127725	96.270	-0.240	0.490	0.650	96.200	-0.800	1.100																			1580063032.0	3.84	7.11
26/01/2020 18:23:53	26012020	260120	182353	96.300	12.188902	-56.127705	96.360	-0.120	-0.050	-0.010	96.300	-1.300	0.400																			1580063033.0	4.08	7.56
26/01/2020 18:23:54	26012020	260120	182354	96.240	12.188902	-56.127685	96.260	0.040	-0.410	-0.510	96.210	-1.700	-0.100																			1580063034.0	4.15	7.69
26/01/2020 18:23:55	26012020	260120	182355	96.090	12.188900	-56.127667	96.090	0.120	-0.440	-0.850	96.060	-1.700	-0.600																			1580063035.0	3.92	7.26
26/01/2020 18:23:56	26012020	260120	182356	95.990	12.188898	-56.127650	96.000	0.070	-0.370	-1.010	95.970	-1.700	-0.600																			1580063036.0	3.57	6.61
26/01/2020 18:23:57	26012020	260120	182357	95.920	12.188897	-56.127633	95.950	-0.020	-0.440	-0.940	95.910	-1.800	-0.600																			1580063037.0	3.44	6.37
26/01/2020 18:23:58	26012020	260120	182358	95.850	12.188893	-56.127617	95.880	-0.040	-0.650	-0.670	95.830	-2.000	-0.400																			1580063038.0	3.71	6.87
26/01/2020 18:23:59	26012020	260120	182359	95.760	12.188888	-56.127598	95.810	0.010	-0.690	-0.230	95.750	-2.000	0.100	1014.10	26.20	26.30	20.60	20.70	696.00	71.00	71.00	383.00	29.60	0.00	5.50	96.00	3.50	49566	3354.00	27.80	27.80	1580063039.0	4.08	7.56
26/01/2020 18:24:00	26012020	260120	182400	95.690	12.188882	-56.127580	95.740	0.060	-0.410	0.260	95.670	-1.800	0.500																			1580063040.0	4.15	7.69
26/01/2020 18:24:01	26012020	260120	182401	95.630	12.188875	-56.127562	95.710	0.090	-0.010	0.680	95.630	-1.400	1.000																			1580063041.0	3.96	7.33
26/01/2020 18:24:02	26012020	260120	182402	95.610	12.188868	-56.127545	95.690	0.130	0.320	0.920	95.610	-1.000	1.300																			1580063042.0	3.85	7.13
26/01/2020 18:24:03	26012020	260120	182403	95.620	12.188863	-56.127528	95.700	0.140	0.470	0.900	95.630	-0.900	1.300																			1580063043.0	3.83	7.09
26/01/2020 18:24:04	26012020	260120	182404	95.690	12.188860	-56.127510	95.760	0.080	0.420	0.600	95.690	-0.900	1.000																			1580063044.0	3.84	7.11
26/01/2020 18:24:05	26012020	260120	182405	95.810	12.188860	-56.127492	95.900	-0.050	0.260	0.140	95.840	-1.100	0.500																			1580063045.0	3.88	7.19
26/01/2020 18:24:06	26012020	260120	182406	96.020	12.188858	-56.127473	96.080	-0.200	0.010	-0.270	96.020	-1.300	0.100																			1580063046.0	3.85	7.13
26/01/2020 18:24:07	26012020	260120	182407	96.100	12.188858	-56.127455	96.160	-0.270	-0.350	-0.420	96.110	-1.900	-0.000																			1580063047.0	3.82	7.07
26/01/2020 18:24:08	26012020	260120	182408	96.050	12.188855	-56.127437	96.070	-0.240	-0.690	-0.290	96.020	-2.000	0.000																			1580063048.0	3.94	7.30
26/01/2020 18:24:09	26012020	260120	182409	95.830	12.188848	-56.127418	95.830	-0.150	-0.790	0.070	95.770	-2.000	0.700																			1580063049.0	4.08	7.56
26/01/2020 18:24:10	26012020	260120	182410	95.500	12.188842	-56.127402	95.510	-0.050	-0.550	0.490	95.440	-1.900	0.800																			1580063050.0	4.00	7.41
26/01/2020 18:24:11	26012020	260120	182411	95.220	12.188837	-56.127385	95.270	0.060	-0.150	0.690	95.190	-1.500	1.000																			1580063051.0	3.79	7.02
26/01/2020 18:24:12	26012020	260120	182412	95.230	12.188832	-56.127368	95.320	0.170	0.140	0.410	95.230	-1.200	0.800																			1580063052.0	3.64	6.74
26/01/2020 18:24:13	26012020	260120	182413	95.480	12.188830	-56.127350	95.630	0.260	0.180	-0.200	95.550	-1.100	0.200																			1580063053.0	3.74	6.93
26/01/2020 18:24:14	26012020	260120	182414	95.810	12.188830	-56.127332	95.920	0.280	0.050	-0.680	95.850	-1.300	-0.300																			1580063054.0	3.98	7.37
26/01/2020 18:24:15	26012020	260120	182415	95.920	12.188830	-56.127312	96.000	0.210	-0.050	-0.780	95.920	-1.400	-0.400																			1580063055.0	4.10	7.59
26/01/2020 18:24:16	26012020	260120	182416	95.830	12.188827	-56.127293	95.920	0.070	0.040	-0.490	95.830	-1.300	-0.200																			1580063056.0	3.99	7.39
26/01/2020 18:24:17	26012020	260120	182417	95.710	12.188823	-56.127277	95.780	-0.130	0.150	-0.000	95.680	-1.200	0.300																			1580063057.0	3.71	6.87
26/01/2020 18:24:18	26012020	260120	182418	95.540	12.188817	-56.127260	95.630	-0.290	-0.080	0.530	95.510	-1.400	0.800																			1580063058.0	3.66	6.78
26/01/2020 18:24:19	26012020	260120	182419	95.380	12.188812	-56.127242	95.480	-0.290	-0.610	0.940	95.350	-1.900	1.200																			1580063059.0	3.98	7.37
26/01/2020 18:24:20	26012020	260120	182420	95.270	12.188805	-56.127222	95.400	-0.150	-0.940	1.170	95.270	-2.300	1.500																			1580063060.0	4.43	8.20
26/01/2020 18:24:21	26012020	260120	182421	95.310	12.188800	-56.127202	95.450	-0.060	-0.600	1.200	95.330	-1.500	1.400																			1580063061.0	4.38	8.11
26/01/2020 18:24:22	26012020	260120	182422	95.450	12.188795	-56.127185	95.580	-0.100	0.220	0.970	95.480	-1.200	1.300																			1580063062.0	3.76	6.96
26/01/2020 18:24:23	26012020	260120	182423	95.610	12.188792	-56.127170	95.720	-0.170	0.810	0.490	95.630	-0.600	0.900																			1580063063.0	3.17	5.87
26/01/2020 18:24:24	26012020	260120	182424	95.740	12.188790	-56.127155	95.830	-0.100	0.720	-0.170	95.770	-0.600	0.200																			1580063064.0	3.25	6.02
26/01/2020 18:24:25	26012020	260120	182425	95.860	12.188788	-56.127137	95.920	0.130	0.110	-0.800	95.870	-1.100	-0.400																			1580063065.0	3.86	7.15
26/01/2020 18:24:26	26012020	260120	182426	95.890	12.188790	-56.127117	95.920	0.400	-0.560	-1.180	95.880	-1.800	-0.800																			1580063066.0	4.33	8.02
26/01/2020 18:24:27	26012020	260120	182427	95.790	12.188790	-56.127097	95.800	0.530	-0.960	-1.240	95.760	-2.300	-0.900																			1580063067.0	4.36	8.07
26/01/2020 18:24:28	26012020	260120	182428	95.600	12.188788	-56.127077	95.610	0.400	-0.970	-0.970	95.550	-2.300	-0.700																			1580063068.0	4.13	7.65
26/01/2020 18:24:29	26012020	260120	182429	95.440	12.188785	-56.127058	95.500	0.070	-0.640	-0.420	95.420	-2.000	-0.100																			1580063069.0	3.88	7.19
26/01/2020 18:24:30	26012020	260120	182430	95.420	12.188778	-56.127042	95.530	-0.310	-0.130	0.320	95.430	-1.500	0.600																			1580063070.0	3.81	7.06
26/01/2020 18:24:31	26012020	260120	182431	95.500	12.188770	-56.127025	95.630	-0.590	0.400	1.030	95.520	-1.000	1.300																			1580063071.0	3.90	7.22
26/01/2020 18:24:32	26012020	260120	182432	95.600	12.188762	-56.127010	95.730	-0.660	0.710	1.370	95.620	-0.600	1.700																			1580063072.0	3.89	7.20
26/01/2020 18:24:33	26012020	260120	182433	95.690	12.188753	-56.126993	95.820	-0.470	0.600	1.260	95.710	-0.700	1.600																			1580063073.0	3.86	7.15
26/01/2020 18:24:34	26012020	260120	182434	95.800	12.188750	-56.126975	95.920	-0.110	0.200	0.880	95.820	-1.100	1.300																			1580063074.0	3.98	7.37
26/01/2020 18:24:35	26012020	260120	182435	95.990	12.188748	-56.126955	96.120	0.240	-0.230	0.280	96.030	-1.500	0.700																			1580063075.0	4.15	7.69
26/01/2020 18:24:36	26012020	260120	182436	96.210	12.188748	-56.126935	96.310	0.440	-0.470	-0.400	96.240	-1.800	0.000																			1580063076.0	4.14	7.67
26/01/2020 18:24:37	26012020	260120	182437	96.310	12.188748	-56.126917	96.370	0.460	-0.500	-0.900	96.310	-1.800	-0.500																			1580063077.0	3.94	7.30
26/01/2020 18:24:38	26012020	260120	182438	96.210	12.188750	-56.126898	96.230	0.350	-0.460	-0.960	96.170	-1.800	-0.600																			1580063078.0	3.72	6.89
26/01/2020 18:24:39	26012020	260120	182439	95.970	12.188747	-56.126882	95.980	0.200	-0.490	-0.630	95.910	-1.800	-0.300																			1580063079.0	3.68	6.82
26/01/2020 18:24:40	26012020	260120	182440	95.710	12.188743	-56.126863	95.730	0.070	-0.550	-0.110	95.660	-1.900	0.200																			1580063080.0	3.92	7.26
26/01/2020 18:24:41	26012020	260120	182441	95.520	12.188737	-56.126845	95.570	-0.070	-0.420	0.430	95.500	-1.800	0.700																			1580063081.0	4.19	7.76
26/01/2020 18:24:42	26012020	260120	182442	95.480	12.188730	-56.126827	95.570	-0.230	-0.000	0.770	95.490	-1.400	1.100																			1580063082.0	4.13	7.65
26/01/2020 18:24:43	26012020	260120	182443	95.580	12.188723	-56.126810	95.710	-0.320	0.390	0.820	95.610	-1.000	1.200																			1580063083.0	3.79	7.02
26/01/2020 18:24:44	26012020	260120	182444	95.760	12.188718	-56.126793	95.900	-0.240	0.430	0.590	95.810	-0.900	1.000																			1580063084.0	3.66	6.78
26/01/2020 18:24:45	26012020	260120	182445	96.030	12.188715	-56.126775	96.160	-0.040	0.140	0.140	96.080	-1.400	0.300																			1580063085.0	3.95	7.32
26/01/2020 18:24:46	26012020	260120	182446	96.270	12.188713	-56.126755	96.390	0.070	-0.170	-0.250	96.310	-1.500	0.100																			1580063086.0	4.23	7.83
26/01/2020 18:24:47	26012020	260120	182447	96.410	12.188712	-56.126735	96.500	-0.000	-0.190	-0.380	96.420	-1.500	-0.000																			1580063087.0	4.17	7.72
26/01/2020 18:24:48	26012020	260120	182448	96.390	12.188710	-56.126718	96.450	-0.150	0.050	-0.290	96.370	-1.300	0.000																			1580063088.0	3.78	7.00
26/01/2020 18:24:49	26012020	260120	182449	96.210	12.188705	-56.126702	96.260	-0.160	0.170	-0.100	96.170	-1.200	0.200																			1580063089.0	3.40	6.30
26/01/2020 18:24:50	26012020	260120	182450	95.970	12.188702	-56.126687	96.020	0.080	-0.210	0.090	95.920	-1.500	0.400																			1580063090.0	3.51	6.50
26/01/2020 18:24:51	26012020	260120	182451	95.810	12.188697	-56.126667	95.900	0.400	-0.800	0.170	95.800	-2.100	0.500																			1580063091.0	4.10	7.59
26/01/2020 18:24:52	26012020	260120	182452	95.850	12.188693	-56.126647	95.970	0.460	-0.940	0.160	95.870	-2.300	0.500																			1580063092.0	4.48	8.30
26/01/2020 18:24:53	26012020	260120	182453	96.000	12.188692	-56.126627	96.130	0.170	-0.390	0.130	96.030	-1.800	0.500																			1580063093.0	4.11	7.61
26/01/2020 18:24:54	26012020	260120	182454	96.130	12.188688	-56.126612	96.250	-0.240	0.340	0.200	96.130	-1.000	0.500																			1580063094.0	3.38	6.26
26/01/2020 18:24:55	26012020	260120	182455	96.110	12.188683	-56.126597	96.210	-0.380	0.500	0.390	96.090	-0.800	0.700																			1580063095.0	3.16	5.85
26/01/2020 18:24:56	26012020	260120	182456	95.980	12.188677	-56.126580	96.090	-0.150	-0.070	0.500	95.980	-1.300	0.800																			1580063096.0	3.77	6.98
26/01/2020 18:24:57	26012020	260120	182457	95.920	12.188672	-56.126560	96.020	0.210	-0.720	0.410	95.920	-2.000	0.800																			1580063097.0	4.58	8.48
26/01/2020 18:24:58	26012020	260120	182458	95.940	12.188668	-56.126538	96.040	0.350	-0.700	0.150	95.940	-2.100	0.500																			1580063098.0	4.74	8.78
26/01/2020 18:24:59	26012020	260120	182459	96.030	12.188667	-56.126518	96.150	0.110	0.040	-0.180	96.060	-0.800	-0.000	1014.10	26.20	26.30	20.60	20.70	699.00	71.00	71.00	383.00	29.60	357.00	5.60	92.00	3.60	49509	3671.00	27.80	27.80	1580063099.0	4.05	7.50
26/01/2020 18:25:00	26012020	260120	182500	96.200	12.188665	-56.126503	96.340	-0.310	0.810	-0.500	96.240	-0.600	-0.100																			1580063100.0	3.21	5.94
26/01/2020 18:25:01	26012020	260120	182501	96.410	12.188665	-56.126490	96.540	-0.570	0.960	-0.700	96.440	-0.400	-0.300																			1580063101.0	2.98	5.52
26/01/2020 18:25:02	26012020	260120	182502	96.530	12.188662	-56.126473	96.640	-0.510	0.440	-0.630	96.540	-0.800	-0.300																			1580063102.0	3.46	6.41
26/01/2020 18:25:03	26012020	260120	182503	96.520	12.188657	-56.126455	96.600	-0.190	-0.410	-0.310	96.490	-1.600	-0.000																			1580063103.0	4.10	7.59
26/01/2020 18:25:04	26012020	260120	182504	96.390	12.188650	-56.126435	96.470	0.210	-1.050	0.090	96.360	-2.300	0.400																			1580063104.0	4.48	8.30
26/01/2020 18:25:05	26012020	260120	182505	96.210	12.188645	-56.126415	96.290	0.470	-1.140	0.440	96.170	-2.500	0.700																			1580063105.0	4.35	8.06
26/01/2020 18:25:06	26012020	260120	182506	96.010	12.188640	-56.126397	96.090	0.480	-0.780	0.710	95.970	-2.200	1.000																			1580063106.0	3.89	7.20
26/01/2020 18:25:07	26012020	260120	182507	95.860	12.188635	-56.126382	95.960	0.320	-0.340	0.860	95.830	-1.700	1.200																			1580063107.0	3.55	6.57
26/01/2020 18:25:08	26012020	260120	182508	95.790	12.188630	-56.126365	95.910	0.160	-0.040	0.790	95.790	-1.400	1.200																			1580063108.0	3.57	6.61
26/01/2020 18:25:09	26012020	260120	182509	95.810	12.188628	-56.126347	95.940	0.100	0.120	0.470	95.830	-1.200	0.900																			1580063109.0	3.80	7.04
26/01/2020 18:25:10	26012020	260120	182510	95.940	12.188625	-56.126328	96.050	0.080	0.230	-0.000	95.940	-1.100	0.400																			1580063110.0	3.98	7.37
26/01/2020 18:25:11	26012020	260120	182511	96.070	12.188625	-56.126310	96.200	-0.050	0.350	-0.430	96.100	-1.000	-0.000																			1580063111.0	4.02	7.45
26/01/2020 18:25:12	26012020	260120	182512	96.250	12.188623	-56.126292	96.390	-0.320	0.500	-0.670	96.290	-0.800	-0.300																			1580063112.0	3.87	7.17
26/01/2020 18:25:13	26012020	260120	182513	96.430	12.188620	-56.126273	96.560	-0.550	0.500	-0.690	96.450	-0.800	-0.400																			1580063113.0	3.64	6.74
26/01/2020 18:25:14	26012020	260120	182514	96.510	12.188617	-56.126258	96.630	-0.540	0.200	-0.460	96.520	-1.100	-0.200																			1580063114.0	3.57	6.61
26/01/2020 18:25:15	26012020	260120	182515	96.500	12.188612	-56.126240	96.610	-0.290	-0.350	-0.120	96.490	-1.600	0.200																			1580063115.0	3.81	7.06
26/01/2020 18:25:16	26012020	260120	182516	96.380	12.188607	-56.126222	96.490	0.060	-0.870	0.320	96.350	-2.100	0.600																			1580063116.0	4.12	7.63
26/01/2020 18:25:17	26012020	260120	182517	96.190	12.188600	-56.126203	96.290	0.320	-1.100	0.750	96.150	-2.400	1.000																			1580063117.0	4.23	7.83
26/01/2020 18:25:18	26012020	260120	182518	96.010	12.188593	-56.126185	96.130	0.460	-0.930	1.060	95.980	-2.300	1.400																			1580063118.0	4.13	7.65
26/01/2020 18:25:19	26012020	260120	182519	95.890	12.188587	-56.126167	96.020	0.480	-0.440	1.070	95.880	-1.800	1.400																			1580063119.0	3.87	7.17
26/01/2020 18:25:20	26012020	260120	182520	95.880	12.188583	-56.126150	96.020	0.390	0.130	0.720	95.890	-1.300	1.100																			1580063120.0	3.62	6.70
26/01/2020 18:25:21	26012020	260120	182521	95.960	12.188582	-56.126133	96.090	0.200	0.510	0.150	95.970	-0.900	0.600																			1580063121.0	3.56	6.59
26/01/2020 18:25:22	26012020	260120	182522	96.070	12.188582	-56.126117	96.160	-0.010	0.550	-0.450	96.070	-0.800	-0.000																			1580063122.0	3.70	6.85
26/01/2020 18:25:23	26012020	260120	182523	96.160	12.188582	-56.126098	96.280	-0.160	0.340	-0.950	96.190	-1.100	-0.800																			1580063123.0	3.94	7.30
26/01/2020 18:25:24	26012020	260120	182524	96.320	12.188582	-56.126078	96.420	-0.210	0.060	-1.170	96.320	-1.200	-0.800																			1580063124.0	4.07	7.54
26/01/2020 18:25:25	26012020	260120	182525	96.360	12.188578	-56.126060	96.470	-0.240	-0.130	-1.060	96.370	-1.400	-0.700																			1580063125.0	4.01	7.43
26/01/2020 18:25:26	26012020	260120	182526	96.360	12.188575	-56.126042	96.460	-0.270	-0.250	-0.700	96.350	-1.600	-0.400																			1580063126.0	3.85	7.13
26/01/2020 18:25:27	26012020	260120	182527	96.330	12.188570	-56.126025	96.440	-0.240	-0.390	-0.190	96.320	-1.700	0.100																			1580063127.0	3.82	7.07
26/01/2020 18:25:28	26012020	260120	182528	96.310	12.188562	-56.126007	96.420	-0.140	-0.470	0.410	96.310	-1.800	0.700																			1580063128.0	3.97	7.35
26/01/2020 18:25:29	26012020	260120	182529	96.290	12.188555	-56.125990	96.410	-0.060	-0.400	0.950	96.280	-1.700	1.200																			1580063129.0	4.05	7.50
26/01/2020 18:25:30	26012020	260120	182530	96.230	12.188547	-56.125973	96.310	-0.010	-0.260	1.310	96.200	-1.600	1.600																			1580063130.0	3.94	7.30
26/01/2020 18:25:31	26012020	260120	182531	96.030	12.188540	-56.125957	96.100	0.110	-0.230	1.430	95.980	-1.500	1.800																			1580063131.0	3.84	7.11
26/01/2020 18:25:32	26012020	260120	182532	95.780	12.188535	-56.125938	95.850	0.290	-0.320	1.230	95.740	-1.600	1.600																			1580063132.0	3.93	7.28
26/01/2020 18:25:33	26012020	260120	182533	95.630	12.188533	-56.125918	95.710	0.420	-0.350	0.710	95.620	-1.700	1.100																			1580063133.0	4.12	7.63
26/01/2020 18:25:34	26012020	260120	182534	95.650	12.188533	-56.125898	95.740	0.370	-0.140	-0.010	95.650	-1.500	0.400																			1580063134.0	4.16	7.70
26/01/2020 18:25:35	26012020	260120	182535	95.780	12.188533	-56.125880	95.920	0.110	0.310	-0.790	95.830	-0.800	-0.800																			1580063135.0	3.95	7.32
26/01/2020 18:25:36	26012020	260120	182536	96.070	12.188535	-56.125863	96.230	-0.210	0.770	-1.450	96.140	-0.600	-1.100																			1580063136.0	3.58	6.63
26/01/2020 18:25:37	26012020	260120	182537	96.380	12.188535	-56.125848	96.510	-0.380	0.820	-1.700	96.430	-0.500	-1.400																			1580063137.0	3.32	6.15
26/01/2020 18:25:38	26012020	260120	182538	96.510	12.188533	-56.125832	96.600	-0.280	0.220	-1.420	96.510	-1.000	-1.100																			1580063138.0	3.51	6.50
26/01/2020 18:25:39	26012020	260120	182539	96.430	12.188528	-56.125813	96.500	0.020	-0.780	-0.740	96.400	-2.000	-0.500																			1580063139.0	4.14	7.67
26/01/2020 18:25:40	26012020	260120	182540	96.210	12.188520	-56.125792	96.330	0.250	-1.420	0.130	96.210	-2.700	0.400																			1580063140.0	4.70	8.70
26/01/2020 18:25:41	26012020	260120	182541	96.030	12.188512	-56.125772	96.130	0.220	-1.230	1.060	95.990	-2.600	1.300																			1580063141.0	4.58	8.48
26/01/2020 18:25:42	26012020	260120	182542	95.830	12.188503	-56.125755	95.970	-0.050	-0.480	1.790	95.800	-1.900	2.100																			1580063142.0	3.97	7.35
26/01/2020 18:25:43	26012020	260120	182543	95.690	12.188497	-56.125740	95.840	-0.350	0.220	2.150	95.680	-1.200	2.500																			1580063143.0	3.49	6.46
26/01/2020 18:25:44	26012020	260120	182544	95.610	12.188490	-56.125725	95.750	-0.440	0.450	2.030	95.600	-0.900	2.400																			1580063144.0	3.51	6.50
26/01/2020 18:25:45	26012020	260120	182545	95.590	12.188485	-56.125707	95.720	-0.220	0.250	1.470	95.600	-1.100	1.900																			1580063145.0	3.92	7.26
26/01/2020 18:25:46	26012020	260120	182546	95.680	12.188482	-56.125687	95.800	0.170	-0.020	0.490	95.720	-1.300	0.900																			1580063146.0	4.33	8.02
26/01/2020 18:25:47	26012020	260120	182547	95.920	12.188482	-56.125667	96.040	0.470	0.050	-0.720	95.980	-1.100	-1.000																			1580063147.0	4.37	8.09
26/01/2020 18:25:48	26012020	260120	182548	96.230	12.188485	-56.125648	96.330	0.480	0.380	-1.800	96.290	-1.000	-1.400																			1580063148.0	4.01	7.43
26/01/2020 18:25:49	26012020	260120	182549	96.470	12.188488	-56.125632	96.530	0.270	0.580	-2.440	96.500	-0.900	-2.200																			1580063149.0	3.58	6.63
26/01/2020 18:25:50	26012020	260120	182550	96.540	12.188492	-56.125615	96.570	0.050	0.200	-2.460	96.530	-1.100	-2.100																			1580063150.0	3.39	6.28
26/01/2020 18:25:51	26012020	260120	182551	96.430	12.188490	-56.125598	96.440	-0.000	-0.700	-1.730	96.390	-1.900	-1.500																			1580063151.0	3.74	6.93
26/01/2020 18:25:52	26012020	260120	182552	96.130	12.188483	-56.125578	96.220	0.040	-1.500	-0.390	96.130	-2.800	-0.200																			1580063152.0	4.48	8.30
26/01/2020 18:25:53	26012020	260120	182553	95.890	12.188473	-56.125557	95.950	-0.050	-1.540	1.130	95.830	-2.900	1.300																			1580063153.0	4.89	9.06
26/01/2020 18:25:54	26012020	260120	182554	95.610	12.188460	-56.125540	95.700	-0.350	-0.720	2.420	95.550	-2.200	2.600																			1580063154.0	4.63	8.57
26/01/2020 18:25:55	26012020	260120	182555	95.360	12.188448	-56.125525	95.460	-0.660	0.360	3.190	95.310	-1.100	3.500																			1580063155.0	4.05	7.50
26/01/2020 18:25:56	26012020	260120	182556	95.210	12.188438	-56.125512	95.350	-0.650	0.970	3.150	95.210	-0.400	3.500																			1580063156.0	3.59	6.65
26/01/2020 18:25:57	26012020	260120	182557	95.330	12.188432	-56.125495	95.500	-0.270	0.780	2.130	95.390	-0.500	2.600																			1580063157.0	3.61	6.69
26/01/2020 18:25:58	26012020	260120	182558	95.840	12.188432	-56.125475	95.910	0.250	0.180	0.390	95.840	-1.100	0.900																			1580063158.0	4.25	7.87
26/01/2020 18:25:59	26012020	260120	182559	96.230	12.188437	-56.125453	96.350	0.580	-0.200	-1.400	96.310	-1.500	-0.900	1014.10	26.20	26.30	20.70	20.80	701.00	71.00	71.00	382.00	29.60	358.00	5.90	93.00	3.90	49462	3462.00	27.90	27.80	1580063159.0	4.75	8.80
26/01/2020 18:26:00	26012020	260120	182600	96.520	12.188442	-56.125433	96.550	0.590	-0.120	-2.650	96.520	-1.500	-2.200																			1580063160.0	4.49	8.32
26/01/2020 18:26:01	26012020	260120	182601	96.440	12.188447	-56.125415	96.410	0.410	0.070	-3.160	96.390	-1.300	-2.800																			1580063161.0	3.76	6.96
26/01/2020 18:26:02	26012020	260120	182602	96.170	12.188450	-56.125400	96.130	0.190	-0.080	-2.850	96.110	-1.400	-2.600																			1580063162.0	3.37	6.24
26/01/2020 18:26:03	26012020	260120	182603	95.880	12.188448	-56.125383	95.880	0.010	-0.530	-1.820	95.830	-1.800	-1.600																			1580063163.0	3.58	6.63
26/01/2020 18:26:04	26012020	260120	182604	95.660	12.188442	-56.125365	95.700	-0.140	-0.940	-0.390	95.630	-2.200	-0.200																			1580063164.0	4.15	7.69
26/01/2020 18:26:05	26012020	260120	182605	95.510	12.188430	-56.125347	95.590	-0.260	-0.960	1.130	95.480	-2.300	1.300																			1580063165.0	4.60	8.52
26/01/2020 18:26:06	26012020	260120	182606	95.360	12.188417	-56.125328	95.490	-0.310	-0.570	2.410	95.360	-1.900	2.600																			1580063166.0	4.67	8.65
26/01/2020 18:26:07	26012020	260120	182607	95.300	12.188403	-56.125312	95.440	-0.250	0.010	3.090	95.290	-1.400	3.400																			1580063167.0	4.44	8.22
26/01/2020 18:26:08	26012020	260120	182608	95.350	12.188393	-56.125297	95.510	-0.120	0.540	2.880	95.380	-0.800	3.300																			1580063168.0	4.00	7.41
26/01/2020 18:26:09	26012020	260120	182609	95.600	12.188390	-56.125280	95.750	-0.070	0.850	1.830	95.660	-0.500	2.300																			1580063169.0	3.58	6.63
26/01/2020 18:26:10	26012020	260120	182610	95.980	12.188392	-56.125263	96.030	-0.120	0.730	0.370	95.980	-0.600	0.900																			1580063170.0	3.58	6.63
26/01/2020 18:26:11	26012020	260120	182611	96.050	12.188395	-56.125245	96.090	-0.090	0.050	-1.000	96.040	-1.200	-0.500																			1580063171.0	3.94	7.30
26/01/2020 18:26:12	26012020	260120	182612	95.810	12.188400	-56.125225	95.840	0.110	-0.830	-1.910	95.810	-2.100	-1.500																			1580063172.0	4.42	8.19
26/01/2020 18:26:13	26012020	260120	182613	95.570	12.188402	-56.125203	95.550	0.350	-1.190	-2.320	95.520	-2.400	-2.000																			1580063173.0	4.59	8.50
26/01/2020 18:26:14	26012020	260120	182614	95.410	12.188402	-56.125183	95.470	0.400	-0.780	-2.300	95.410	-2.200	-2.000																			1580063174.0	4.15	7.69
26/01/2020 18:26:15	26012020	260120	182615	95.500	12.188400	-56.125167	95.610	0.190	-0.060	-1.940	95.540	-1.400	-1.700																			1580063175.0	3.46	6.41
26/01/2020 18:26:16	26012020	260120	182616	95.750	12.188395	-56.125153	95.840	-0.080	0.390	-1.290	95.750	-1.000	-1.000																			1580063176.0	3.23	5.98
26/01/2020 18:26:17	26012020	260120	182617	95.840	12.188388	-56.125137	95.960	-0.190	0.320	-0.320	95.850	-1.000	-0.100																			1580063177.0	3.62	6.70
26/01/2020 18:26:18	26012020	260120	182618	95.800	12.188378	-56.125120	95.910	-0.110	0.020	0.840	95.770	-1.300	1.000																			1580063178.0	4.25	7.87
26/01/2020 18:26:19	26012020	260120	182619	95.690	12.188368	-56.125100	95.830	-0.010	-0.120	1.820	95.680	-1.400	2.100																			1580063179.0	4.52	8.37
26/01/2020 18:26:20	26012020	260120	182620	95.640	12.188360	-56.125083	95.780	-0.050	-0.040	2.360	95.630	-1.400	2.600																			1580063180.0	4.20	7.78
26/01/2020 18:26:21	26012020	260120	182621	95.640	12.188353	-56.125067	95.790	-0.160	0.010	2.380	95.650	-1.300	2.700																			1580063181.0	3.74	6.93
26/01/2020 18:26:22	26012020	260120	182622	95.740	12.188350	-56.125050	95.880	-0.180	-0.170	1.910	95.760	-1.500	2.300																			1580063182.0	3.60	6.67
26/01/2020 18:26:23	26012020	260120	182623	95.860	12.188348	-56.125032	95.980	-0.040	-0.490	1.080	95.870	-1.800	1.500																			1580063183.0	3.82	7.07
26/01/2020 18:26:24	26012020	260120	182624	95.890	12.188348	-56.125013	95.970	0.160	-0.740	0.200	95.880	-2.000	0.600																			1580063184.0	4.10	7.59
26/01/2020 18:26:25	26012020	260120	182625	95.820	12.188348	-56.124993	95.880	0.260	-0.630	-0.590	95.790	-1.800	-0.600																			1580063185.0	4.14	7.67
26/01/2020 18:26:26	26012020	260120	182626	95.680	12.188348	-56.124975	95.740	0.200	-0.240	-1.210	95.650	-1.600	-0.800																			1580063186.0	3.90	7.22
26/01/2020 18:26:27	26012020	260120	182627	95.550	12.188350	-56.124957	95.620	0.050	0.180	-1.640	95.540	-1.200	-1.300																			1580063187.0	3.64	6.74
26/01/2020 18:26:28	26012020	260120	182628	95.500	12.188350	-56.124940	95.590	-0.090	0.400	-1.790	95.520	-0.900	-1.400																			1580063188.0	3.60	6.67
26/01/2020 18:26:29	26012020	260120	182629	95.610	12.188348	-56.124923	95.730	-0.200	0.460	-1.630	95.650	-0.900	-1.300																			1580063189.0	3.73	6.91
26/01/2020 18:26:30	26012020	260120	182630	95.860	12.188343	-56.124905	96.020	-0.270	0.370	-1.230	95.910	-0.900	-0.900																			1580063190.0	3.82	7.07
26/01/2020 18:26:31	26012020	260120	182631	96.100	12.188337	-56.124888	96.270	-0.260	0.130	-0.540	96.140	-1.200	-0.300																			1580063191.0	3.92	7.26
26/01/2020 18:26:32	26012020	260120	182632	96.210	12.188330	-56.124870	96.370	-0.160	-0.180	0.340	96.210	-1.500	0.600																			1580063192.0	4.05	7.50
26/01/2020 18:26:33	26012020	260120	182633	96.160	12.188320	-56.124853	96.320	0.040	-0.490	1.170	96.140	-1.800	1.400																			1580063193.0	4.13	7.65
26/01/2020 18:26:34	26012020	260120	182634	96.020	12.188312	-56.124837	96.170	0.300	-0.780	1.770	95.980	-2.100	2.100																			1580063194.0	4.08	7.56
26/01/2020 18:26:35	26012020	260120	182635	95.800	12.188305	-56.124818	95.930	0.470	-0.950	2.070	95.750	-2.300	2.400																			1580063195.0	4.06	7.52
26/01/2020 18:26:36	26012020	260120	182636	95.530	12.188302	-56.124800	95.640	0.410	-0.810	2.020	95.480	-2.200	2.400																			1580063196.0	4.05	7.50
26/01/2020 18:26:37	26012020	260120	182637	95.330	12.188298	-56.124782	95.450	0.150	-0.310	1.530	95.320	-1.300	1.500																			1580063197.0	3.91	7.24
26/01/2020 18:26:38	26012020	260120	182638	95.340	12.188298	-56.124763	95.470	-0.160	0.300	0.690	95.360	-1.100	1.100																			1580063198.0	3.63	6.72
26/01/2020 18:26:39	26012020	260120	182639	95.500	12.188298	-56.124747	95.620	-0.340	0.670	-0.290	95.540	-0.600	-0.500																			1580063199.0	3.55	6.57
26/01/2020 18:26:40	26012020	260120	182640	95.740	12.188300	-56.124730	95.870	-0.340	0.680	-1.260	95.780	-0.600	-0.800																			1580063200.0	3.72	6.89
26/01/2020 18:26:41	26012020	260120	182641	95.970	12.188300	-56.124710	96.080	-0.220	0.370	-1.930	96.000	-0.900	-1.500																			1580063201.0	3.96	7.33
26/01/2020 18:26:42	26012020	260120	182642	96.130	12.188300	-56.124692	96.220	-0.060	-0.070	-2.120	96.150	-1.400	-1.800																			1580063202.0	4.08	7.56
26/01/2020 18:26:43	26012020	260120	182643	96.180	12.188297	-56.124672	96.260	0.030	-0.410	-1.750	96.170	-1.700	-1.500																			1580063203.0	4.08	7.56
26/01/2020 18:26:44	26012020	260120	182644	96.100	12.188292	-56.124655	96.170	0.010	-0.540	-0.950	96.070	-1.900	-0.700																			1580063204.0	3.98	7.37
26/01/2020 18:26:45	26012020	260120	182645	95.920	12.188285	-56.124638	95.980	-0.060	-0.480	0.060	95.870	-1.800	0.300																			1580063205.0	3.88	7.19
26/01/2020 18:26:46	26012020	260120	182646	95.710	12.188277	-56.124622	95.820	-0.100	-0.340	1.100	95.680	-1.700	1.300																			1580063206.0	3.84	7.11
26/01/2020 18:26:47	26012020	260120	182647	95.580	12.188268	-56.124605	95.710	-0.030	-0.260	1.890	95.560	-1.600	2.200																			1580063207.0	3.91	7.24
26/01/2020 18:26:48	26012020	260120	182648	95.540	12.188260	-56.124588	95.690	0.130	-0.310	2.210	95.550	-1.600	2.500																			1580063208.0	4.04	7.48
26/01/2020 18:26:49	26012020	260120	182649	95.620	12.188253	-56.124570	95.780	0.310	-0.370	1.990	95.650	-1.700	2.400																			1580063209.0	4.12	7.63
26/01/2020 18:26:50	26012020	260120	182650	95.750	12.188250	-56.124550	95.890	0.410	-0.220	1.330	95.780	-1.600	1.700																			1580063210.0	4.11	7.61
26/01/2020 18:26:51	26012020	260120	182651	95.890	12.188250	-56.124532	96.010	0.340	0.130	0.370	95.920	-1.300	0.800																			1580063211.0	3.92	7.26
26/01/2020 18:26:52	26012020	260120	182652	96.000	12.188253	-56.124515	96.090	0.140	0.390	-0.600	96.010	-1.000	-0.200																			1580063212.0	3.69	6.83
26/01/2020 18:26:53	26012020	260120	182653	96.030	12.188257	-56.124497	96.100	-0.110	0.240	-1.280	96.030	-1.100	-0.900																			1580063213.0	3.71	6.87
26/01/2020 18:26:54	26012020	260120	182654	95.980	12.188258	-56.124478	96.040	-0.340	-0.160	-1.520	95.960	-1.500	-1.200																			1580063214.0	3.96	7.33
26/01/2020 18:26:55	26012020	260120	182655	95.860	12.188257	-56.124458	95.920	-0.550	-0.420	-1.340	95.830	-1.800	-1.000																			1580063215.0	4.18	7.74
26/01/2020 18:26:56	26012020	260120	182656	95.750	12.188250	-56.124440	95.830	-0.670	-0.330	-0.840	95.730	-1.700	-0.600																			1580063216.0	4.14	7.67
26/01/2020 18:26:57	26012020	260120	182657	95.750	12.188242	-56.124423	95.870	-0.590	-0.020	-0.270	95.770	-1.400	0.000																			1580063217.0	3.95	7.32
26/01/2020 18:26:58	26012020	260120	182658	95.920	12.188233	-56.124408	96.070	-0.250	0.220	0.130	95.960	-1.200	0.400																			1580063218.0	3.78	7.00
26/01/2020 18:26:59	26012020	260120	182659	96.130	12.188227	-56.124392	96.290	0.240	0.120	0.310	96.160	-1.200	0.600	1014.00	26.20	26.30	20.70	20.70	703.00	71.00	71.00	382.00	29.60	356.00	6.40	90.00	4.40	49492	3558.00	27.80	27.80	1580063219.0	3.68	6.82
26/01/2020 18:27:00	26012020	260120	182700	96.240	12.188222	-56.124375	96.360	0.690	-0.340	0.410	96.240	-1.600	0.700																			1580063220.0	3.85	7.13
26/01/2020 18:27:01	26012020	260120	182701	96.140	12.188218	-56.124355	96.250	0.890	-0.850	0.520	96.100	-2.200	0.800																			1580063221.0	4.22	7.82
26/01/2020 18:27:02	26012020	260120	182702	95.930	12.188217	-56.124335	96.030	0.710	-0.870	0.630	95.890	-2.200	1.000																			1580063222.0	4.39	8.13
26/01/2020 18:27:03	26012020	260120	182703	95.760	12.188213	-56.124315	95.890	0.270	-0.280	0.710	95.740	-1.200	1.100																			1580063223.0	3.98	7.37
26/01/2020 18:27:04	26012020	260120	182704	95.700	12.188212	-56.124300	95.830	-0.170	0.400	0.670	95.700	-1.000	1.000																			1580063224.0	3.36	6.22
26/01/2020 18:27:05	26012020	260120	182705	95.750	12.188208	-56.124285	95.900	-0.420	0.590	0.460	95.760	-0.800	0.800																			1580063225.0	3.24	6.00
26/01/2020 18:27:06	26012020	260120	182706	95.870	12.188205	-56.124268	96.030	-0.490	0.310	0.150	95.890	-1.000	0.500																			1580063226.0	3.73	6.91
26/01/2020 18:27:07	26012020	260120	182707	96.020	12.188202	-56.124248	96.180	-0.470	-0.060	-0.110	96.040	-1.400	0.200																			1580063227.0	4.15	7.69
26/01/2020 18:27:08	26012020	260120	182708	96.150	12.188198	-56.124230	96.310	-0.370	-0.220	-0.280	96.170	-1.600	0.100																			1580063228.0	4.17	7.72
26/01/2020 18:27:09	26012020	260120	182709	96.250	12.188193	-56.124212	96.410	-0.180	-0.240	-0.410	96.260	-1.600	-0.100																			1580063229.0	3.91	7.24
26/01/2020 18:27:10	26012020	260120	182710	96.280	12.188190	-56.124193	96.410	0.080	-0.270	-0.520	96.280	-1.600	-0.200																			1580063230.0	3.71	6.87
26/01/2020 18:27:11	26012020	260120	182711	96.200	12.188187	-56.124177	96.290	0.320	-0.420	-0.480	96.160	-1.700	-0.200																			1580063231.0	3.74	6.93
26/01/2020 18:27:12	26012020	260120	182712	95.980	12.188185	-56.124158	96.060	0.460	-0.550	-0.230	95.930	-1.900	0.100																			1580063232.0	3.94	7.30
26/01/2020 18:27:13	26012020	260120	182713	95.820	12.188182	-56.124140	95.940	0.430	-0.460	0.010	95.810	-1.800	0.300																			1580063233.0	4.04	7.48
26/01/2020 18:27:14	26012020	260120	182714	95.820	12.188177	-56.124122	95.960	0.220	-0.110	0.170	95.820	-1.500	0.500																			1580063234.0	3.92	7.26
26/01/2020 18:27:15	26012020	260120	182715	95.860	12.188173	-56.124105	96.000	-0.070	0.300	0.370	95.860	-0.900	0.800																			1580063235.0	3.70	6.85
26/01/2020 18:27:16	26012020	260120	182716	95.880	12.188168	-56.124088	96.050	-0.290	0.480	0.520	95.890	-0.900	0.800																			1580063236.0	3.60	6.67
26/01/2020 18:27:17	26012020	260120	182717	95.980	12.188163	-56.124072	96.160	-0.330	0.360	0.490	96.010	-1.000	0.800																			1580063237.0	3.71	6.87
26/01/2020 18:27:18	26012020	260120	182718	96.150	12.188158	-56.124053	96.320	-0.210	0.060	0.330	96.180	-1.300	0.700																			1580063238.0	3.88	7.19
26/01/2020 18:27:19	26012020	260120	182719	96.300	12.188155	-56.124035	96.430	-0.030	-0.300	0.120	96.310	-1.600	0.500																			1580063239.0	3.95	7.32
26/01/2020 18:27:20	26012020	260120	182720	96.330	12.188153	-56.124017	96.430	0.150	-0.640	-0.020	96.320	-1.900	0.300																			1580063240.0	3.98	7.37
26/01/2020 18:27:21	26012020	260120	182721	96.190	12.188150	-56.123998	96.250	0.260	-0.850	-0.010	96.140	-2.200	0.300																			1580063241.0	4.06	7.52
26/01/2020 18:27:22	26012020	260120	182722	95.900	12.188147	-56.123978	95.970	0.220	-0.660	0.140	95.850	-2.000	0.500																			1580063242.0	4.08	7.56
26/01/2020 18:27:23	26012020	260120	182723	95.680	12.188143	-56.123962	95.780	0.050	-0.110	0.260	95.650	-1.500	0.600																			1580063243.0	3.81	7.06
26/01/2020 18:27:24	26012020	260120	182724	95.640	12.188140	-56.123945	95.790	-0.140	0.350	0.230	95.660	-1.000	0.600																			1580063244.0	3.46	6.41
26/01/2020 18:27:25	26012020	260120	182725	95.770	12.188137	-56.123928	95.940	-0.210	0.380	0.100	95.810	-0.900	0.500																			1580063245.0	3.52	6.52
26/01/2020 18:27:26	26012020	260120	182726	95.960	12.188133	-56.123910	96.080	-0.140	0.100	-0.050	95.960	-1.200	0.300																			1580063246.0	3.93	7.28
26/01/2020 18:27:27	26012020	260120	182727	96.020	12.188128	-56.123892	96.150	-0.020	-0.190	-0.130	96.030	-1.500	0.200																			1580063247.0	4.24	7.85
26/01/2020 18:27:28	26012020	260120	182728	96.050	12.188123	-56.123872	96.200	0.080	-0.250	-0.130	96.060	-1.600	0.200																			1580063248.0	4.21	7.80
26/01/2020 18:27:29	26012020	260120	182729	96.070	12.188120	-56.123853	96.220	0.120	-0.030	-0.100	96.070	-1.200	0.200																			1580063249.0	3.90	7.22
26/01/2020 18:27:30	26012020	260120	182730	96.100	12.188117	-56.123837	96.250	0.100	0.220	-0.160	96.100	-1.200	0.200																			1580063250.0	3.52	6.52
26/01/2020 18:27:31	26012020	260120	182731	96.130	12.188115	-56.123822	96.290	0.080	0.090	-0.210	96.130	-1.200	0.100																			1580063251.0	3.37	6.24
26/01/2020 18:27:32	26012020	260120	182732	96.060	12.188112	-56.123803	96.220	0.120	-0.450	-0.130	96.060	-1.700	0.200																			1580063252.0	3.75	6.95
26/01/2020 18:27:33	26012020	260120	182733	95.940	12.188108	-56.123783	96.080	0.120	-0.860	0.140	95.910	-2.200	0.400																			1580063253.0	4.30	7.96
26/01/2020 18:27:34	26012020	260120	182734	95.770	12.188105	-56.123763	95.910	-0.020	-0.690	0.530	95.750	-2.100	0.800																			1580063254.0	4.32	8.00
26/01/2020 18:27:35	26012020	260120	182735	95.670	12.188098	-56.123747	95.820	-0.220	-0.160	0.860	95.660	-1.600	1.200																			1580063255.0	3.86	7.15
26/01/2020 18:27:36	26012020	260120	182736	95.690	12.188093	-56.123732	95.860	-0.290	0.240	0.910	95.700	-1.100	1.300																			1580063256.0	3.52	6.52
26/01/2020 18:27:37	26012020	260120	182737	95.800	12.188088	-56.123715	95.970	-0.190	0.290	0.680	95.820	-1.000	1.000																			1580063257.0	3.62	6.70
26/01/2020 18:27:38	26012020	260120	182738	95.870	12.188085	-56.123697	96.010	0.030	0.070	0.350	95.870	-1.200	0.700																			1580063258.0	3.93	7.28
26/01/2020 18:27:39	26012020	260120	182739	95.850	12.188082	-56.123677	95.990	0.250	-0.240	0.040	95.840	-1.600	0.400																			1580063259.0	4.15	7.69
26/01/2020 18:27:40	26012020	260120	182740	95.850	12.188080	-56.123657	96.010	0.380	-0.350	-0.320	95.850	-1.700	0.100																			1580063260.0	4.24	7.85
26/01/2020 18:27:41	26012020	260120	182741	95.970	12.188078	-56.123638	96.160	0.240	-0.060	-0.680	96.000	-1.400	-0.300																			1580063261.0	4.06	7.52
26/01/2020 18:27:42	26012020	260120	182742	96.180	12.188078	-56.123622	96.350	-0.150	0.370	-0.830	96.180	-1.000	-0.500																			1580063262.0	3.55	6.57
26/01/2020 18:27:43	26012020	260120	182743	96.240	12.188075	-56.123607	96.390	-0.490	0.440	-0.640	96.240	-0.900	-0.300																			1580063263.0	3.22	5.96
26/01/2020 18:27:44	26012020	260120	182744	96.170	12.188070	-56.123590	96.300	-0.490	0.020	-0.200	96.150	-1.300	0.100																			1580063264.0	3.51	6.50
26/01/2020 18:27:45	26012020	260120	182745	96.010	12.188063	-56.123572	96.130	-0.120	-0.620	0.310	95.970	-1.900	0.600																			1580063265.0	4.08	7.56
26/01/2020 18:27:46	26012020	260120	182746	95.830	12.188057	-56.123552	95.990	0.360	-1.090	0.710	95.830	-2.400	1.000																			1580063266.0	4.41	8.17
26/01/2020 18:27:47	26012020	260120	182747	95.760	12.188052	-56.123532	95.900	0.620	-1.090	0.990	95.740	-2.500	1.300																			1580063267.0	4.42	8.19
26/01/2020 18:27:48	26012020	260120	182748	95.680	12.188047	-56.123513	95.830	0.490	-0.500	1.090	95.660	-1.900	1.400																			1580063268.0	4.12	7.63
26/01/2020 18:27:49	26012020	260120	182749	95.660	12.188043	-56.123497	95.830	0.080	0.420	0.910	95.680	-1.000	1.300																			1580063269.0	3.58	6.63
26/01/2020 18:27:50	26012020	260120	182750	95.800	12.188042	-56.123482	95.980	-0.320	1.070	0.450	95.850	-0.300	0.800																			1580063270.0	3.12	5.78
26/01/2020 18:27:51	26012020	260120	182751	96.050	12.188040	-56.123467	96.230	-0.430	0.880	-0.100	96.110	-0.900	-0.000																			1580063271.0	3.17	5.87
26/01/2020 18:27:52	26012020	260120	182752	96.300	12.188038	-56.123448	96.410	-0.210	-0.070	-0.510	96.300	-1.300	-0.100																			1580063272.0	3.89	7.20
26/01/2020 18:27:53	26012020	260120	182753	96.270	12.188037	-56.123427	96.340	0.030	-0.880	-0.660	96.240	-2.300	-0.300																			1580063273.0	4.68	8.67
26/01/2020 18:27:54	26012020	260120	182754	96.020	12.188033	-56.123405	96.070	0.040	-0.840	-0.530	95.970	-2.200	-0.200																			1580063274.0	4.59	8.50
26/01/2020 18:27:55	26012020	260120	182755	95.730	12.188028	-56.123388	95.820	-0.120	-0.240	-0.270	95.690	-1.700	0.000																			1580063275.0	3.71	6.87
26/01/2020 18:27:56	26012020	260120	182756	95.610	12.188023	-56.123375	95.740	-0.190	0.190	-0.080	95.610	-1.200	0.200																			1580063276.0	3.12	5.78
26/01/2020 18:27:57	26012020	260120	182757	95.690	12.188020	-56.123360	95.850	-0.020	0.050	-0.020	95.710	-1.300	0.300																			1580063277.0	3.32	6.15
26/01/2020 18:27:58	26012020	260120	182758	95.820	12.188017	-56.123342	95.970	0.250	-0.360	-0.030	95.820	-1.700	0.300																			1580063278.0	3.97	7.35
26/01/2020 18:27:59	26012020	260120	182759	95.830	12.188013	-56.123322	95.980	0.370	-0.450	0.030	95.820	-1.800	0.400	1014.00	26.20	26.30	20.50	20.60	695.00	71.00	71.00	382.00	29.60	355.00	5.90	88.00	3.90	48975	3430.00	27.90	27.90	1580063279.0	4.34	8.04
26/01/2020 18:28:00	26012020	260120	182800	95.780	12.188010	-56.123302	95.920	0.240	-0.070	0.230	95.770	-1.500	0.500																			1580063280.0	4.03	7.46
26/01/2020 18:28:01	26012020	260120	182801	95.760	12.188005	-56.123287	95.910	0.040	0.310	0.400	95.770	-1.100	0.700																			1580063281.0	3.48	6.44
26/01/2020 18:28:02	26012020	260120	182802	95.820	12.188002	-56.123270	95.980	-0.050	0.230	0.430	95.830	-1.100	0.800																			1580063282.0	3.35	6.20
26/01/2020 18:28:03	26012020	260120	182803	95.870	12.187998	-56.123253	96.020	-0.010	-0.190	0.440	95.880	-1.500	0.800																			1580063283.0	3.79	7.02
26/01/2020 18:28:04	26012020	260120	182804	95.810	12.187995	-56.123233	95.950	-0.010	-0.490	0.540	95.810	-1.800	0.900																			1580063284.0	4.19	7.76
26/01/2020 18:28:05	26012020	260120	182805	95.690	12.187990	-56.123215	95.800	-0.130	-0.390	0.680	95.660	-1.600	1.000																			1580063285.0	4.12	7.63
26/01/2020 18:28:06	26012020	260120	182806	95.550	12.187985	-56.123198	95.670	-0.300	-0.080	0.690	95.530	-1.500	1.000																			1580063286.0	3.73	6.91
26/01/2020 18:28:07	26012020	260120	182807	95.510	12.187982	-56.123182	95.640	-0.370	0.060	0.470	95.510	-1.300	0.800																			1580063287.0	3.44	6.37
26/01/2020 18:28:08	26012020	260120	182808	95.540	12.187978	-56.123165	95.670	-0.220	-0.160	0.110	95.550	-1.500	0.500																			1580063288.0	3.57	6.61
26/01/2020 18:28:09	26012020	260120	182809	95.520	12.187975	-56.123147	95.610	0.070	-0.480	-0.220	95.500	-1.800	0.200																			1580063289.0	4.03	7.46
26/01/2020 18:28:10	26012020	260120	182810	95.410	12.187973	-56.123127	95.510	0.270	-0.410	-0.470	95.410	-1.800	-0.100																			1580063290.0	4.26	7.89
26/01/2020 18:28:11	26012020	260120	182811	95.430	12.187972	-56.123108	95.560	0.250	0.140	-0.700	95.450	-1.300	-0.300																			1580063291.0	3.88	7.19
26/01/2020 18:28:12	26012020	260120	182812	95.660	12.187972	-56.123093	95.780	0.140	0.630	-0.900	95.660	-0.800	-0.500																			1580063292.0	3.29	6.09
26/01/2020 18:28:13	26012020	260120	182813	95.860	12.187970	-56.123078	96.020	0.130	0.470	-0.920	95.900	-0.800	-0.600																			1580063293.0	3.18	5.89
26/01/2020 18:28:14	26012020	260120	182814	96.000	12.187967	-56.123060	96.130	0.300	-0.270	-0.620	96.000	-1.500	-0.300																			1580063294.0	3.77	6.98
26/01/2020 18:28:15	26012020	260120	182815	95.930	12.187962	-56.123040	96.050	0.420	-0.840	-0.040	95.900	-2.200	0.200																			1580063295.0	4.45	8.24
26/01/2020 18:28:16	26012020	260120	182816	95.740	12.187957	-56.123020	95.860	0.240	-0.750	0.660	95.700	-2.100	0.900																			1580063296.0	4.39	8.13
26/01/2020 18:28:17	26012020	260120	182817	95.580	12.187950	-56.123003	95.720	-0.220	-0.240	1.270	95.550	-1.400	1.900																			1580063297.0	3.72	6.89
26/01/2020 18:28:18	26012020	260120	182818	95.490	12.187945	-56.122988	95.650	-0.620	0.070	1.730	95.480	-1.300	2.000																			1580063298.0	3.30	6.11
26/01/2020 18:28:19	26012020	260120	182819	95.410	12.187938	-56.122973	95.550	-0.740	-0.020	1.940	95.390	-1.500	2.200																			1580063299.0	3.60	6.67
26/01/2020 18:28:20	26012020	260120	182820	95.360	12.187932	-56.122955	95.510	-0.590	-0.170	1.770	95.370	-1.500	2.100																			1580063300.0	4.07	7.54
26/01/2020 18:28:21	26012020	260120	182821	95.430	12.187927	-56.122937	95.580	-0.310	-0.130	1.170	95.460	-1.500	1.600																			1580063301.0	4.14	7.67
26/01/2020 18:28:22	26012020	260120	182822	95.620	12.187923	-56.122918	95.730	0.040	0.040	0.270	95.620	-1.300	0.700																			1580063302.0	3.86	7.15
26/01/2020 18:28:23	26012020	260120	182823	95.720	12.187923	-56.122900	95.830	0.440	0.110	-0.700	95.740	-1.200	-0.300																			1580063303.0	3.70	6.85
26/01/2020 18:28:24	26012020	260120	182824	95.810	12.187925	-56.122883	95.900	0.740	0.080	-1.610	95.840	-1.300	-1.200																			1580063304.0	3.84	7.11
26/01/2020 18:28:25	26012020	260120	182825	96.000	12.187928	-56.122865	96.120	0.760	0.060	-2.300	96.050	-1.300	-1.900																			1580063305.0	3.95	7.32
26/01/2020 18:28:26	26012020	260120	182826	96.300	12.187932	-56.122847	96.330	0.540	-0.090	-2.410	96.300	-1.400	-2.100																			1580063306.0	3.80	7.04
26/01/2020 18:28:27	26012020	260120	182827	96.350	12.187932	-56.122830	96.370	0.260	-0.460	-1.740	96.320	-1.800	-1.500																			1580063307.0	3.71	6.87
26/01/2020 18:28:28	26012020	260120	182828	96.040	12.187927	-56.122812	96.130	0.000	-0.750	-0.420	96.040	-2.100	-0.200																			1580063308.0	4.06	7.52
26/01/2020 18:28:29	26012020	260120	182829	95.720	12.187917	-56.122793	95.770	-0.300	-0.610	1.150	95.640	-2.000	1.300																			1580063309.0	4.41	8.17
26/01/2020 18:28:30	26012020	260120	182830	95.400	12.187905	-56.122777	95.560	-0.620	-0.140	2.500	95.400	-1.500	2.700																			1580063310.0	4.34	8.04
26/01/2020 18:28:31	26012020	260120	182831	95.400	12.187893	-56.122762	95.590	-0.800	0.260	3.170	95.430	-1.100	3.500																			1580063311.0	4.03	7.46
26/01/2020 18:28:32	26012020	260120	182832	95.590	12.187883	-56.122747	95.790	-0.710	0.330	3.030	95.630	-1.000	3.400																			1580063312.0	3.80	7.04
26/01/2020 18:28:33	26012020	260120	182833	95.860	12.187878	-56.122728	96.020	-0.380	0.090	2.190	95.910	-1.200	2.700																			1580063313.0	3.85	7.13
26/01/2020 18:28:34	26012020	260120	182834	96.170	12.187877	-56.122710	96.300	0.020	-0.200	0.890	96.240	-1.500	1.400																			1580063314.0	4.06	7.52
26/01/2020 18:28:35	26012020	260120	182835	96.460	12.187878	-56.122690	96.530	0.310	-0.280	-0.490	96.500	-1.600	0.000																			1580063315.0	4.16	7.70
26/01/2020 18:28:36	26012020	260120	182836	96.550	12.187882	-56.122672	96.570	0.430	-0.070	-1.570	96.540	-1.500	-1.100																			1580063316.0	3.97	7.35
26/01/2020 18:28:37	26012020	260120	182837	96.430	12.187885	-56.122655	96.420	0.450	0.100	-2.270	96.380	-1.300	-1.900																			1580063317.0	3.59	6.65
26/01/2020 18:28:38	26012020	260120	182838	96.150	12.187888	-56.122638	96.180	0.510	-0.160	-2.550	96.150	-1.400	-2.200																			1580063318.0	3.49	6.46
26/01/2020 18:28:39	26012020	260120	182839	96.000	12.187888	-56.122620	96.030	0.600	-0.750	-2.350	95.980	-2.000	-2.000																			1580063319.0	3.91	7.24
26/01/2020 18:28:40	26012020	260120	182840	95.950	12.187887	-56.122600	96.030	0.540	-1.040	-1.690	95.960	-2.400	-1.400																			1580063320.0	4.44	8.22
26/01/2020 18:28:41	26012020	260120	182841	96.000	12.187882	-56.122580	96.130	0.150	-0.500	-0.640	96.020	-1.900	-0.400																			1580063321.0	4.38	8.11
26/01/2020 18:28:42	26012020	260120	182842	96.100	12.187873	-56.122563	96.270	-0.490	0.570	0.630	96.120	-0.900	0.800																			1580063322.0	3.77	6.98
26/01/2020 18:28:43	26012020	260120	182843	96.210	12.187862	-56.122552	96.420	-1.020	1.290	1.820	96.240	-0.100	2.600																			1580063323.0	3.38	6.26
26/01/2020 18:28:44	26012020	260120	182844	96.330	12.187850	-56.122540	96.520	-1.080	0.970	2.630	96.350	-0.300	2.900																			1580063324.0	3.60	6.67
26/01/2020 18:28:45	26012020	260120	182845	96.370	12.187840	-56.122523	96.540	-0.620	-0.150	2.930	96.370	-1.400	3.300																			1580063325.0	4.21	7.80
26/01/2020 18:28:46	26012020	260120	182846	96.360	12.187832	-56.122502	96.510	0.010	-1.130	2.650	96.360	-2.400	3.000																			1580063326.0	4.77	8.83
26/01/2020 18:28:47	26012020	260120	182847	96.380	12.187828	-56.122480	96.510	0.410	-1.230	1.840	96.390	-2.600	2.300																			1580063327.0	4.59	8.50
26/01/2020 18:28:48	26012020	260120	182848	96.430	12.187828	-56.122463	96.530	0.460	-0.570	0.740	96.440	-2.000	1.200																			1580063328.0	3.77	6.98
26/01/2020 18:28:49	26012020	260120	182849	96.440	12.187832	-56.122448	96.510	0.350	0.140	-0.490	96.440	-1.300	0.000																			1580063329.0	3.12	5.78
26/01/2020 18:28:50	26012020	260120	182850	96.390	12.187835	-56.122433	96.430	0.320	0.270	-1.630	96.380	-1.100	-1.200																			1580063330.0	3.20	5.93
26/01/2020 18:28:51	26012020	260120	182851	96.280	12.187840	-56.122417	96.310	0.430	-0.130	-2.390	96.250	-1.400	-2.000																			1580063331.0	3.84	7.11
26/01/2020 18:28:52	26012020	260120	182852	96.130	12.187842	-56.122395	96.200	0.450	-0.490	-2.600	96.130	-1.800	-2.300																			1580063332.0	4.38	8.11
26/01/2020 18:28:53	26012020	260120	182853	96.120	12.187842	-56.122375	96.200	0.190	-0.330	-2.260	96.140	-1.700	-2.000																			1580063333.0	4.31	7.98
26/01/2020 18:28:54	26012020	260120	182854	96.260	12.187837	-56.122358	96.380	-0.240	0.200	-1.470	96.300	-1.200	-1.200																			1580063334.0	3.74	6.93
26/01/2020 18:28:55	26012020	260120	182855	96.460	12.187830	-56.122343	96.600	-0.540	0.520	-0.370	96.490	-0.900	0.600																			1580063335.0	3.43	6.35
26/01/2020 18:28:56	26012020	260120	182856	96.570	12.187820	-56.122328	96.710	-0.510	0.300	0.840	96.580	-1.000	1.100																			1580063336.0	3.75	6.95
26/01/2020 18:28:57	26012020	260120	182857	96.560	12.187808	-56.122312	96.710	-0.270	-0.160	1.920	96.550	-1.700	2.700																			1580063337.0	4.31	7.98
26/01/2020 18:28:58	26012020	260120	182858	96.500	12.187798	-56.122293	96.650	-0.060	-0.410	2.640	96.480	-1.800	2.900																			1580063338.0	4.50	8.33
26/01/2020 18:28:59	26012020	260120	182859	96.460	12.187788	-56.122277	96.620	-0.020	-0.260	2.830	96.460	-1.600	3.200	1014.00	26.20	26.30	20.50	20.60	695.00	71.00	71.00	382.00	29.60	356.00	6.30	90.00	4.30	48920	3421.00	27.90	27.90	1580063339.0	4.11	7.61
26/01/2020 18:29:00	26012020	260120	182900	96.520	12.187783	-56.122262	96.670	-0.050	0.020	2.350	96.520	-1.400	2.800																			1580063340.0	3.46	6.41
26/01/2020 18:29:01	26012020	260120	182901	96.610	12.187782	-56.122247	96.740	-0.010	0.010	1.320	96.630	-1.300	1.800																			1580063341.0	3.19	5.91
26/01/2020 18:29:02	26012020	260120	182902	96.660	12.187783	-56.122228	96.720	0.130	-0.350	0.110	96.640	-1.700	0.600																			1580063342.0	3.58	6.63
26/01/2020 18:29:03	26012020	260120	182903	96.500	12.187787	-56.122210	96.520	0.300	-0.750	-0.920	96.440	-2.100	-0.500																			1580063343.0	4.07	7.54
26/01/2020 18:29:04	26012020	260120	182904	96.140	12.187788	-56.122190	96.200	0.440	-0.890	-1.670	96.140	-2.300	-1.200																			1580063344.0	4.23	7.83
26/01/2020 18:29:05	26012020	260120	182905	95.990	12.187790	-56.122170	96.020	0.500	-0.620	-2.150	95.980	-2.000	-1.800																			1580063345.0	4.11	7.61
26/01/2020 18:29:06	26012020	260120	182906	96.020	12.187792	-56.122153	96.060	0.350	-0.020	-2.270	96.020	-1.400	-1.900																			1580063346.0	3.79	7.02
26/01/2020 18:29:07	26012020	260120	182907	96.170	12.187790	-56.122137	96.280	-0.010	0.630	-2.000	96.220	-0.500	-1.400																			1580063347.0	3.45	6.39
26/01/2020 18:29:08	26012020	260120	182908	96.480	12.187785	-56.122122	96.550	-0.450	0.950	-1.350	96.480	-0.400	-1.100																			1580063348.0	3.34	6.19
26/01/2020 18:29:09	26012020	260120	182909	96.610	12.187778	-56.122107	96.740	-0.740	0.780	-0.290	96.630	-0.900	0.700																			1580063349.0	3.61	6.69
26/01/2020 18:29:10	26012020	260120	182910	96.620	12.187768	-56.122090	96.770	-0.730	0.230	0.990	96.620	-1.100	1.200																			1580063350.0	4.11	7.61
26/01/2020 18:29:11	26012020	260120	182911	96.560	12.187757	-56.122072	96.720	-0.440	-0.370	2.120	96.540	-1.700	2.300																			1580063351.0	4.48	8.30
26/01/2020 18:29:12	26012020	260120	182912	96.490	12.187745	-56.122055	96.690	-0.030	-0.800	2.770	96.490	-2.100	3.100																			1580063352.0	4.42	8.19
26/01/2020 18:29:13	26012020	260120	182913	96.480	12.187737	-56.122038	96.650	0.340	-1.020	2.810	96.470	-2.400	3.200																			1580063353.0	4.06	7.52
26/01/2020 18:29:14	26012020	260120	182914	96.330	12.187732	-56.122020	96.480	0.560	-0.980	2.310	96.330	-2.400	2.700																			1580063354.0	3.82	7.07
26/01/2020 18:29:15	26012020	260120	182915	96.090	12.187730	-56.122003	96.140	0.610	-0.590	1.420	96.020	-2.000	1.900																			1580063355.0	3.72	6.89
26/01/2020 18:29:16	26012020	260120	182916	95.770	12.187733	-56.121985	95.810	0.460	0.030	0.250	95.720	-1.400	0.700																			1580063356.0	3.63	6.72
26/01/2020 18:29:17	26012020	260120	182917	95.640	12.187738	-56.121970	95.710	0.210	0.470	-1.030	95.640	-0.900	-0.500																			1580063357.0	3.59	6.65
26/01/2020 18:29:18	26012020	260120	182918	95.810	12.187743	-56.121953	95.840	-0.040	0.450	-2.190	95.810	-0.900	-1.700																			1580063358.0	3.78	7.00
26/01/2020 18:29:19	26012020	260120	182919	96.010	12.187748	-56.121933	96.090	-0.190	0.040	-2.910	96.070	-1.300	-2.500																			1580063359.0	4.09	7.57
26/01/2020 18:29:20	26012020	260120	182920	96.220	12.187748	-56.121913	96.270	-0.270	-0.330	-2.890	96.250	-1.700	-2.600																			1580063360.0	4.29	7.95
26/01/2020 18:29:21	26012020	260120	182921	96.300	12.187743	-56.121893	96.350	-0.380	-0.260	-2.030	96.300	-1.700	-1.800																			1580063361.0	4.28	7.93
26/01/2020 18:29:22	26012020	260120	182922	96.280	12.187733	-56.121877	96.360	-0.550	0.300	-0.600	96.280	-1.100	-0.400																			1580063362.0	4.06	7.52
26/01/2020 18:29:23	26012020	260120	182923	96.270	12.187722	-56.121865	96.410	-0.630	0.790	0.850	96.280	-0.600	1.000																			1580063363.0	3.77	6.98
26/01/2020 18:29:24	26012020	260120	182924	96.280	12.187708	-56.121853	96.440	-0.390	0.510	1.920	96.280	-0.800	2.200																			1580063364.0	3.58	6.63
26/01/2020 18:29:25	26012020	260120	182925	96.260	12.187700	-56.121838	96.390	0.200	-0.580	2.490	96.250	-1.800	2.800																			1580063365.0	3.84	7.11
26/01/2020 18:29:26	26012020	260120	182926	96.150	12.187693	-56.121817	96.270	0.760	-1.610	2.700	96.120	-2.900	3.000																			1580063366.0	4.54	8.41
26/01/2020 18:29:27	26012020	260120	182927	95.960	12.187688	-56.121795	96.050	0.910	-1.720	2.600	95.910	-3.100	3.000																			1580063367.0	4.67	8.65
26/01/2020 18:29:28	26012020	260120	182928	95.710	12.187687	-56.121777	95.840	0.650	-0.810	2.020	95.710	-2.300	2.500																			1580063368.0	3.94	7.30
26/01/2020 18:29:29	26012020	260120	182929	95.650	12.187687	-56.121763	95.760	0.200	0.460	0.990	95.650	-1.000	1.500																			1580063369.0	3.07	5.69
26/01/2020 18:29:30	26012020	260120	182930	95.750	12.187690	-56.121750	95.840	-0.200	1.220	-0.320	95.750	-0.200	0.200																			1580063370.0	2.82	5.22
26/01/2020 18:29:31	26012020	260120	182931	95.910	12.187695	-56.121735	96.010	-0.390	1.060	-1.590	95.940	-0.300	-1.100																			1580063371.0	3.30	6.11
26/01/2020 18:29:32	26012020	260120	182932	96.140	12.187698	-56.121717	96.190	-0.390	0.290	-2.480	96.140	-1.000	-2.100																			1580063372.0	4.02	7.45
26/01/2020 18:29:33	26012020	260120	182933	96.270	12.187700	-56.121695	96.340	-0.320	-0.400	-2.750	96.300	-1.900	-2.300																			1580063373.0	4.43	8.20
26/01/2020 18:29:34	26012020	260120	182934	96.380	12.187697	-56.121675	96.450	-0.290	-0.510	-2.370	96.390	-1.900	-2.100																			1580063374.0	4.21	7.80
26/01/2020 18:29:35	26012020	260120	182935	96.410	12.187690	-56.121660	96.480	-0.280	-0.200	-1.440	96.410	-1.600	-1.200																			1580063375.0	3.63	6.72
26/01/2020 18:29:36	26012020	260120	182936	96.400	12.187682	-56.121647	96.520	-0.220	-0.060	-0.210	96.390	-1.400	0.000																			1580063376.0	3.36	6.22
26/01/2020 18:29:37	26012020	260120	182937	96.360	12.187672	-56.121632	96.480	-0.050	-0.360	1.020	96.330	-1.700	1.200																			1580063377.0	3.67	6.80
26/01/2020 18:29:38	26012020	260120	182938	96.200	12.187662	-56.121615	96.320	0.190	-0.740	2.070	96.150	-2.100	2.300																			1580063378.0	4.19	7.76
26/01/2020 18:29:39	26012020	260120	182939	95.950	12.187652	-56.121598	96.090	0.350	-0.730	2.660	95.910	-2.100	3.000																			1580063379.0	4.32	8.00
26/01/2020 18:29:40	26012020	260120	182940	95.770	12.187645	-56.121580	95.920	0.400	-0.340	2.650	95.750	-1.700	3.000																			1580063380.0	3.86	7.15
26/01/2020 18:29:41	26012020	260120	182941	95.730	12.187642	-56.121565	95.890	0.410	0.040	2.090	95.740	-1.400	2.500																			1580063381.0	3.41	6.32
26/01/2020 18:29:42	26012020	260120	182942	95.800	12.187642	-56.121548	95.950	0.400	0.190	1.040	95.820	-1.200	1.500																			1580063382.0	3.48	6.44
26/01/2020 18:29:43	26012020	260120	182943	95.950	12.187645	-56.121530	96.090	0.250	0.260	-0.300	95.980	-1.100	0.200																			1580063383.0	3.85	7.13
26/01/2020 18:29:44	26012020	260120	182944	96.110	12.187650	-56.121512	96.230	-0.090	0.340	-1.450	96.140	-1.000	-1.000																			1580063384.0	3.97	7.35
26/01/2020 18:29:45	26012020	260120	182945	96.200	12.187653	-56.121495	96.290	-0.480	0.340	-1.950	96.200	-1.100	-1.600																			1580063385.0	3.69	6.83
26/01/2020 18:29:46	26012020	260120	182946	96.200	12.187653	-56.121478	96.300	-0.690	0.120	-1.840	96.200	-1.200	-1.500																			1580063386.0	3.42	6.33
26/01/2020 18:29:47	26012020	260120	182947	96.190	12.187648	-56.121463	96.310	-0.600	-0.300	-1.360	96.190	-1.600	-1.100																			1580063387.0	3.60	6.67
26/01/2020 18:29:48	26012020	260120	182948	96.150	12.187642	-56.121445	96.260	-0.320	-0.720	-0.600	96.130	-2.000	-0.300																			1580063388.0	3.96	7.33
26/01/2020 18:29:49	26012020	260120	182949	95.980	12.187632	-56.121428	96.090	-0.010	-0.870	0.380	95.930	-2.200	0.600																			1580063389.0	4.20	7.78
26/01/2020 18:29:50	26012020	260120	182950	95.750	12.187622	-56.121412	95.890	0.220	-0.620	1.190	95.710	-2.000	1.500																			1580063390.0	4.16	7.70
26/01/2020 18:29:51	26012020	260120	182951	95.630	12.187613	-56.121395	95.810	0.340	-0.070	1.490	95.630	-1.500	1.800																			1580063391.0	3.74	6.93
26/01/2020 18:29:52	26012020	260120	182952	95.710	12.187610	-56.121382	95.920	0.400	0.370	1.240	95.740	-1.000	1.600																			1580063392.0	3.26	6.04
26/01/2020 18:29:53	26012020	260120	182953	95.910	12.187610	-56.121365	96.110	0.410	0.350	0.650	95.960	-1.000	1.100																			1580063393.0	3.26	6.04
26/01/2020 18:29:54	26012020	260120	182954	96.090	12.187610	-56.121348	96.260	0.360	-0.000	0.060	96.110	-1.300	0.500																			1580063394.0	3.75	6.95
26/01/2020 18:29:55	26012020	260120	182955	96.130	12.187612	-56.121328	96.260	0.190	-0.260	-0.280	96.130	-1.600	0.100																			1580063395.0	4.07	7.54
26/01/2020 18:29:56	26012020	260120	182956	96.050	12.187610	-56.121310	96.160	-0.110	-0.200	-0.350	96.030	-1.600	0.000																			1580063396.0	3.88	7.19
26/01/2020 18:29:57	26012020	260120	182957	95.930	12.187608	-56.121293	96.050	-0.370	-0.020	-0.230	95.900	-1.400	0.200																			1580063397.0	3.47	6.43
26/01/2020 18:29:58	26012020	260120	182958	95.800	12.187603	-56.121278	95.920	-0.450	-0.060	0.010	95.770	-1.400	0.300																			1580063398.0	3.34	6.19
26/01/2020 18:29:59	26012020	260120	182959	95.690	12.187598	-56.121263	95.840	-0.330	-0.330	0.210	95.690	-1.800	0.600	1014.00	26.20	26.30	20.50	20.60	699.00	71.00	71.00	383.00	29.60	353.00	6.20	86.00	4.30	48929	3179.00	27.90	27.90	1580063399.0	3.61	6.69
26/01/2020 18:30:00	26012020	260120	183000	95.710	12.187593	-56.121245	95.880	-0.150	-0.550	0.230	95.730	-1.900	0.600																			1580063400.0	3.95	7.32
26/01/2020 18:30:01	26012020	260120	183001	95.800	12.187588	-56.121227	95.960	-0.060	-0.450	0.200	95.820	-1.800	0.500																			1580063401.0	3.96	7.33
26/01/2020 18:30:02	26012020	260120	183002	95.850	12.187585	-56.121210	95.990	-0.070	-0.070	0.220	95.840	-1.500	0.600																			1580063402.0	3.67	6.80
26/01/2020 18:30:03	26012020	260120	183003	95.810	12.187580	-56.121195	95.920	-0.070	0.310	0.210	95.800	-1.100	0.600																			1580063403.0	3.38	6.26
26/01/2020 18:30:04	26012020	260120	183004	95.780	12.187577	-56.121178	95.910	0.050	0.390	-0.000	95.780	-1.000	0.400																			1580063404.0	3.30	6.11
26/01/2020 18:30:05	26012020	260120	183005	95.840	12.187575	-56.121163	95.970	0.300	0.110	-0.330	95.860	-1.200	0.100																			1580063405.0	3.52	6.52
26/01/2020 18:30:06	26012020	260120	183006	95.940	12.187575	-56.121145	96.070	0.510	-0.270	-0.540	95.960	-1.600	-0.200																			1580063406.0	3.87	7.17
26/01/2020 18:30:07	26012020	260120	183007	96.030	12.187575	-56.121125	96.150	0.500	-0.430	-0.600	96.040	-1.800	-0.200																			1580063407.0	3.98	7.37
26/01/2020 18:30:08	26012020	260120	183008	96.090	12.187573	-56.121108	96.210	0.250	-0.290	-0.500	96.100	-1.700	-0.200																			1580063408.0	3.70	6.85
26/01/2020 18:30:09	26012020	260120	183009	96.100	12.187570	-56.121092	96.210	-0.090	-0.120	-0.170	96.090	-1.500	0.100																			1580063409.0	3.37	6.24
26/01/2020 18:30:10	26012020	260120	183010	95.980	12.187565	-56.121077	96.130	-0.320	-0.110	0.410	95.980	-1.500	0.700																			1580063410.0	3.36	6.22
26/01/2020 18:30:11	26012020	260120	183011	95.860	12.187560	-56.121062	95.990	-0.430	-0.220	0.970	95.830	-1.600	1.300																			1580063411.0	3.67	6.80
26/01/2020 18:30:12	26012020	260120	183012	95.750	12.187552	-56.121043	95.910	-0.440	-0.350	1.320	95.750	-1.700	1.600																			1580063412.0	3.89	7.20
26/01/2020 18:30:13	26012020	260120	183013	95.720	12.187545	-56.121027	95.870	-0.360	-0.370	1.430	95.720	-1.700	1.800																			1580063413.0	3.95	7.32
26/01/2020 18:30:14	26012020	260120	183014	95.670	12.187540	-56.121010	95.800	-0.240	-0.220	1.280	95.660	-1.600	1.700																			1580063414.0	3.87	7.17
26/01/2020 18:30:15	26012020	260120	183015	95.600	12.187537	-56.120992	95.720	-0.040	-0.010	0.800	95.590	-1.400	1.200																			1580063415.0	3.66	6.78
26/01/2020 18:30:16	26012020	260120	183016	95.640	12.187535	-56.120975	95.740	0.240	0.120	-0.000	95.640	-1.300	0.500																			1580063416.0	3.57	6.61
26/01/2020 18:30:17	26012020	260120	183017	95.800	12.187537	-56.120958	95.940	0.480	0.150	-1.000	95.860	-1.200	-0.500																			1580063417.0	3.69	6.83
26/01/2020 18:30:18	26012020	260120	183018	96.150	12.187538	-56.120940	96.230	0.570	0.090	-1.830	96.150	-1.300	-1.400																			1580063418.0	3.83	7.09
26/01/2020 18:30:19	26012020	260120	183019	96.330	12.187542	-56.120922	96.450	0.420	0.020	-2.160	96.360	-1.400	-1.800																			1580063419.0	3.85	7.13
26/01/2020 18:30:20	26012020	260120	183020	96.410	12.187542	-56.120905	96.500	0.090	-0.030	-1.820	96.410	-1.400	-1.500																			1580063420.0	3.65	6.76
26/01/2020 18:30:21	26012020	260120	183021	96.300	12.187538	-56.120888	96.370	-0.210	-0.130	-0.920	96.250	-1.500	-0.700																			1580063421.0	3.49	6.46
26/01/2020 18:30:22	26012020	260120	183022	96.000	12.187532	-56.120873	96.160	-0.300	-0.350	0.270	96.000	-1.700	0.500																			1580063422.0	3.71	6.87
26/01/2020 18:30:23	26012020	260120	183023	95.850	12.187522	-56.120857	96.010	-0.260	-0.540	1.460	95.830	-1.900	2.300																			1580063423.0	4.07	7.54
26/01/2020 18:30:24	26012020	260120	183024	95.770	12.187512	-56.120840	95.960	-0.240	-0.530	2.260	95.770	-1.900	2.500																			1580063424.0	4.19	7.76
26/01/2020 18:30:25	26012020	260120	183025	95.800	12.187503	-56.120823	95.990	-0.240	-0.370	2.440	95.810	-1.800	2.800																			1580063425.0	3.92	7.26
26/01/2020 18:30:26	26012020	260120	183026	95.850	12.187498	-56.120807	96.020	-0.150	-0.130	2.160	95.860	-1.500	2.500																			1580063426.0	3.66	6.78
26/01/2020 18:30:27	26012020	260120	183027	95.880	12.187495	-56.120790	96.020	0.010	0.100	1.550	95.880	-1.300	2.000																			1580063427.0	3.58	6.63
26/01/2020 18:30:28	26012020	260120	183028	95.930	12.187495	-56.120773	96.050	0.170	0.190	0.590	95.950	-1.200	1.100																			1580063428.0	3.60	6.67
26/01/2020 18:30:29	26012020	260120	183029	96.080	12.187497	-56.120755	96.220	0.260	0.100	-0.630	96.120	-1.300	-0.100																			1580063429.0	3.79	7.02
26/01/2020 18:30:30	26012020	260120	183030	96.310	12.187500	-56.120737	96.430	0.260	-0.080	-1.720	96.350	-1.400	-1.300																			1580063430.0	3.99	7.39
26/01/2020 18:30:31	26012020	260120	183031	96.500	12.187503	-56.120718	96.600	0.200	-0.210	-2.360	96.530	-1.600	-2.000																			1580063431.0	3.98	7.37
26/01/2020 18:30:32	26012020	260120	183032	96.600	12.187503	-56.120700	96.690	0.140	-0.290	-2.410	96.610	-1.700	-2.100																			1580063432.0	3.80	7.04
26/01/2020 18:30:33	26012020	260120	183033	96.590	12.187502	-56.120683	96.660	0.040	-0.260	-1.840	96.570	-1.600	-1.600																			1580063433.0	3.70	6.85
26/01/2020 18:30:34	26012020	260120	183034	96.380	12.187497	-56.120667	96.510	-0.150	-0.070	-0.810	96.380	-1.500	-0.600																			1580063434.0	3.71	6.87
26/01/2020 18:30:35	26012020	260120	183035	96.240	12.187488	-56.120652	96.370	-0.350	0.170	0.330	96.220	-1.100	1.200																			1580063435.0	3.72	6.89
26/01/2020 18:30:36	26012020	260120	183036	96.230	12.187478	-56.120637	96.420	-0.420	0.250	1.260	96.250	-1.100	1.500																			1580063436.0	3.72	6.89
26/01/2020 18:30:37	26012020	260120	183037	96.410	12.187470	-56.120620	96.640	-0.250	0.020	1.790	96.440	-1.300	2.100																			1580063437.0	3.77	6.98
26/01/2020 18:30:38	26012020	260120	183038	96.630	12.187463	-56.120603	96.840	0.060	-0.410	1.890	96.660	-1.700	2.200																			1580063438.0	3.93	7.28
26/01/2020 18:30:39	26012020	260120	183039	96.750	12.187458	-56.120585	96.920	0.300	-0.650	1.650	96.750	-2.000	2.000																			1580063439.0	4.08	7.56
26/01/2020 18:30:40	26012020	260120	183040	96.710	12.187457	-56.120567	96.840	0.360	-0.550	1.190	96.690	-1.900	1.600																			1580063440.0	3.90	7.22
26/01/2020 18:30:41	26012020	260120	183041	96.580	12.187455	-56.120550	96.680	0.270	-0.270	0.560	96.550	-1.700	1.000																			1580063441.0	3.57	6.61
26/01/2020 18:30:42	26012020	260120	183042	96.430	12.187457	-56.120533	96.520	0.180	-0.110	-0.180	96.410	-1.500	0.300																			1580063442.0	3.45	6.39
26/01/2020 18:30:43	26012020	260120	183043	96.360	12.187458	-56.120517	96.470	0.100	-0.150	-0.900	96.360	-1.500	-0.500																			1580063443.0	3.72	6.89
26/01/2020 18:30:44	26012020	260120	183044	96.440	12.187460	-56.120497	96.570	-0.070	-0.070	-1.460	96.470	-1.400	-1.000																			1580063444.0	3.99	7.39
26/01/2020 18:30:45	26012020	260120	183045	96.620	12.187460	-56.120478	96.760	-0.330	0.300	-1.720	96.660	-1.100	-1.300																			1580063445.0	3.85	7.13
26/01/2020 18:30:46	26012020	260120	183046	96.780	12.187457	-56.120463	96.920	-0.520	0.650	-1.600	96.810	-0.700	-1.300																			1580063446.0	3.41	6.32
26/01/2020 18:30:47	26012020	260120	183047	96.900	12.187452	-56.120448	97.050	-0.450	0.600	-1.160	96.930	-0.700	-0.900																			1580063447.0	3.28	6.07
26/01/2020 18:30:48	26012020	260120	183048	97.040	12.187445	-56.120432	97.220	-0.130	0.050	-0.550	97.070	-1.300	-0.300																			1580063448.0	3.62	6.70
26/01/2020 18:30:49	26012020	260120	183049	97.160	12.187438	-56.120415	97.320	0.260	-0.620	0.140	97.160	-2.300	0.900																			1580063449.0	4.05	7.50
26/01/2020 18:30:50	26012020	260120	183050	97.080	12.187432	-56.120397	97.210	0.460	-1.040	0.880	97.040	-2.400	1.100																			1580063450.0	4.20	7.78
26/01/2020 18:30:51	26012020	260120	183051	96.810	12.187425	-56.120378	96.920	0.410	-1.040	1.550	96.750	-2.400	1.800																			1580063451.0	4.03	7.46
26/01/2020 18:30:52	26012020	260120	183052	96.530	12.187420	-56.120362	96.670	0.200	-0.720	1.910	96.480	-2.100	2.200																			1580063452.0	3.78	7.00
26/01/2020 18:30:53	26012020	260120	183053	96.350	12.187415	-56.120345	96.520	0.030	-0.260	1.930	96.330	-1.700	2.300																			1580063453.0	3.57	6.61
26/01/2020 18:30:54	26012020	260120	183054	96.330	12.187412	-56.120328	96.520	-0.050	0.220	1.520	96.350	-1.200	1.900																			1580063454.0	3.55	6.57
26/01/2020 18:30:55	26012020	260120	183055	96.510	12.187410	-56.120312	96.710	-0.110	0.590	0.630	96.560	-0.800	1.100																			1580063455.0	3.54	6.56
26/01/2020 18:30:56	26012020	260120	183056	96.780	12.187410	-56.120295	96.970	-0.170	0.680	-0.470	96.830	-0.700	0.000																			1580063456.0	3.61	6.69
26/01/2020 18:30:57	26012020	260120	183057	97.020	12.187413	-56.120277	97.180	-0.220	0.480	-1.350	97.060	-0.900	-0.900																			1580063457.0	3.79	7.02
26/01/2020 18:30:58	26012020	260120	183058	97.240	12.187415	-56.120258	97.390	-0.240	0.180	-1.860	97.280	-1.200	-1.500																			1580063458.0	3.90	7.22
26/01/2020 18:30:59	26012020	260120	183059	97.420	12.187413	-56.120242	97.540	-0.210	-0.120	-1.930	97.430	-1.500	-1.600	1014.00	26.20	26.30	20.60	20.70	681.00	71.00	71.00	383.00	29.60	357.00	5.80	92.00	3.90	48149	3280.00	27.90	27.90	1580063459.0	3.76	6.96
26/01/2020 18:31:00	26012020	260120	183100	97.410	12.187410	-56.120223	97.530	-0.070	-0.480	-1.480	97.410	-1.800	-1.200																			1580063460.0	3.64	6.74
26/01/2020 18:31:01	26012020	260120	183101	97.260	12.187405	-56.120207	97.360	0.180	-0.900	-0.620	97.210	-2.200	-0.400																			1580063461.0	3.79	7.02
26/01/2020 18:31:02	26012020	260120	183102	97.000	12.187397	-56.120190	97.130	0.370	-1.060	0.450	96.950	-2.400	0.700																			1580063462.0	4.10	7.59
26/01/2020 18:31:03	26012020	260120	183103	96.780	12.187388	-56.120172	96.960	0.360	-0.720	1.380	96.760	-2.100	1.600																			1580063463.0	4.13	7.65
26/01/2020 18:31:04	26012020	260120	183104	96.740	12.187380	-56.120157	96.960	0.180	-0.100	1.820	96.750	-1.500	2.100																			1580063464.0	3.74	6.93
26/01/2020 18:31:05	26012020	260120	183105	96.850	12.187375	-56.120142	97.090	0.040	0.310	1.710	96.880	-1.100	2.100																			1580063465.0	3.36	6.22
26/01/2020 18:31:06	26012020	260120	183106	97.030	12.187372	-56.120125	97.260	0.050	0.330	1.240	97.060	-1.000	1.700																			1580063466.0	3.52	6.52
26/01/2020 18:31:07	26012020	260120	183107	97.190	12.187372	-56.120107	97.400	0.040	0.190	0.610	97.220	-1.200	1.000																			1580063467.0	3.95	7.32
26/01/2020 18:31:08	26012020	260120	183108	97.360	12.187372	-56.120087	97.550	-0.140	0.190	-0.070	97.390	-1.200	0.400																			1580063468.0	4.05	7.50
26/01/2020 18:31:09	26012020	260120	183109	97.520	12.187372	-56.120070	97.690	-0.410	0.260	-0.660	97.550	-1.100	-0.300																			1580063469.0	3.74	6.93
26/01/2020 18:31:10	26012020	260120	183110	97.650	12.187372	-56.120053	97.810	-0.550	0.160	-1.000	97.670	-1.200	-0.600																			1580063470.0	3.46	6.41
26/01/2020 18:31:11	26012020	260120	183111	97.670	12.187368	-56.120037	97.810	-0.400	-0.240	-1.030	97.660	-1.600	-0.700																			1580063471.0	3.51	6.50
26/01/2020 18:31:12	26012020	260120	183112	97.530	12.187365	-56.120018	97.650	-0.040	-0.730	-0.790	97.490	-2.100	-0.500																			1580063472.0	3.86	7.15
26/01/2020 18:31:13	26012020	260120	183113	97.300	12.187358	-56.120000	97.430	0.290	-0.880	-0.380	97.250	-2.100	0.200																			1580063473.0	4.14	7.67
26/01/2020 18:31:14	26012020	260120	183114	97.150	12.187353	-56.119983	97.330	0.400	-0.480	-0.020	97.140	-1.900	0.300																			1580063474.0	3.96	7.33
26/01/2020 18:31:15	26012020	260120	183115	97.220	12.187348	-56.119967	97.460	0.320	0.180	0.130	97.260	-1.300	0.500																			1580063475.0	3.41	6.32
26/01/2020 18:31:16	26012020	260120	183116	97.490	12.187345	-56.119953	97.740	0.210	0.550	0.070	97.550	-0.800	0.400																			1580063476.0	3.02	5.59
26/01/2020 18:31:17	26012020	260120	183117	97.770	12.187342	-56.119938	97.990	0.180	0.300	-0.010	97.810	-1.000	0.400																			1580063477.0	3.20	5.93
26/01/2020 18:31:18	26012020	260120	183118	97.840	12.187340	-56.119920	98.010	0.220	-0.330	0.040	97.830	-1.600	0.400																			1580063478.0	3.79	7.02
26/01/2020 18:31:19	26012020	260120	183119	97.700	12.187337	-56.119902	97.830	0.200	-0.810	0.270	97.650	-2.100	0.600																			1580063479.0	4.19	7.76
26/01/2020 18:31:20	26012020	260120	183120	97.440	12.187333	-56.119882	97.600	0.050	-0.870	0.650	97.390	-2.300	1.000																			1580063480.0	4.12	7.63
26/01/2020 18:31:21	26012020	260120	183121	97.220	12.187328	-56.119865	97.420	-0.180	-0.500	1.020	97.200	-1.900	1.300																			1580063481.0	3.84	7.11
26/01/2020 18:31:22	26012020	260120	183122	97.180	12.187322	-56.119848	97.420	-0.440	0.130	1.110	97.200	-1.300	1.500																			1580063482.0	3.55	6.57
26/01/2020 18:31:23	26012020	260120	183123	97.370	12.187317	-56.119835	97.630	-0.640	0.720	0.770	97.420	-0.700	1.200																			1580063483.0	3.30	6.11
26/01/2020 18:31:24	26012020	260120	183124	97.690	12.187313	-56.119820	97.880	-0.660	0.910	0.180	97.690	-0.500	0.600																			1580063484.0	3.13	5.80
26/01/2020 18:31:25	26012020	260120	183125	97.830	12.187312	-56.119805	98.020	-0.390	0.540	-0.430	97.860	-1.200	-0.400																			1580063485.0	3.31	6.13
26/01/2020 18:31:26	26012020	260120	183126	97.940	12.187310	-56.119787	98.090	0.110	-0.190	-0.980	97.940	-1.500	-0.600																			1580063486.0	3.76	6.96
26/01/2020 18:31:27	26012020	260120	183127	97.990	12.187308	-56.119768	98.150	0.600	-0.780	-1.430	98.000	-2.300	-1.200																			1580063487.0	4.07	7.54
26/01/2020 18:31:28	26012020	260120	183128	98.000	12.187308	-56.119748	98.140	0.780	-0.910	-1.580	98.000	-2.300	-1.200																			1580063488.0	3.95	7.32
26/01/2020 18:31:29	26012020	260120	183129	97.950	12.187308	-56.119733	98.080	0.600	-0.640	-1.320	97.930	-2.100	-1.000																			1580063489.0	3.50	6.48
26/01/2020 18:31:30	26012020	260120	183130	97.770	12.187305	-56.119718	97.930	0.240	-0.290	-0.680	97.770	-1.700	-0.400																			1580063490.0	3.11	5.76
26/01/2020 18:31:31	26012020	260120	183131	97.590	12.187300	-56.119703	97.730	-0.020	-0.200	0.230	97.550	-1.600	0.500																			1580063491.0	3.18	5.89
26/01/2020 18:31:32	26012020	260120	183132	97.430	12.187293	-56.119688	97.630	-0.100	-0.340	1.120	97.420	-1.700	1.400																			1580063492.0	3.75	6.95
26/01/2020 18:31:33	26012020	260120	183133	97.420	12.187283	-56.119670	97.670	-0.120	-0.330	1.750	97.440	-1.700	2.000																			1580063493.0	4.21	7.80
26/01/2020 18:31:34	26012020	260120	183134	97.540	12.187275	-56.119653	97.760	-0.240	0.100	1.920	97.540	-1.300	2.300																			1580063494.0	4.08	7.56
26/01/2020 18:31:35	26012020	260120	183135	97.650	12.187270	-56.119638	97.880	-0.430	0.760	1.570	97.690	-0.700	2.000																			1580063495.0	3.41	6.32
26/01/2020 18:31:36	26012020	260120	183136	97.880	12.187267	-56.119625	98.040	-0.500	1.030	0.810	97.880	-0.400	1.200																			1580063496.0	2.85	5.28
26/01/2020 18:31:37	26012020	260120	183137	98.030	12.187267	-56.119610	98.190	-0.310	0.500	-0.080	98.050	-1.400	-0.200																			1580063497.0	3.02	5.59
26/01/2020 18:31:38	26012020	260120	183138	98.110	12.187268	-56.119593	98.230	0.040	-0.500	-0.880	98.100	-1.800	-0.400																			1580063498.0	3.73	6.91
26/01/2020 18:31:39	26012020	260120	183139	98.060	12.187268	-56.119573	98.150	0.320	-1.200	-1.450	98.040	-2.500	-1.000																			1580063499.0	4.22	7.82
26/01/2020 18:31:40	26012020	260120	183140	97.950	12.187268	-56.119553	98.040	0.380	-1.120	-1.690	97.920	-2.500	-1.300																			1580063500.0	3.98	7.37
26/01/2020 18:31:41	26012020	260120	183141	97.820	12.187267	-56.119538	97.920	0.270	-0.460	-1.490	97.800	-1.900	-1.200																			1580063501.0	3.24	6.00
26/01/2020 18:31:42	26012020	260120	183142	97.710	12.187263	-56.119527	97.840	0.140	0.160	-1.010	97.700	-1.300	-0.700																			1580063502.0	2.73	5.06
26/01/2020 18:31:43	26012020	260120	183143	97.690	12.187258	-56.119513	97.830	0.050	0.380	-0.440	97.680	-1.000	-0.200																			1580063503.0	2.89	5.35
26/01/2020 18:31:44	26012020	260120	183144	97.670	12.187253	-56.119498	97.840	-0.020	0.190	0.190	97.670	-1.200	0.500																			1580063504.0	3.36	6.22
26/01/2020 18:31:45	26012020	260120	183145	97.700	12.187247	-56.119482	97.900	-0.060	-0.130	0.780	97.720	-1.500	1.100																			1580063505.0	3.76	6.96
26/01/2020 18:31:46	26012020	260120	183146	97.800	12.187240	-56.119465	98.010	-0.020	-0.410	1.200	97.820	-1.800	1.500																			1580063506.0	3.87	7.17
26/01/2020 18:31:47	26012020	260120	183147	97.860	12.187233	-56.119448	98.040	0.090	-0.490	1.450	97.850	-1.900	1.800																			1580063507.0	3.79	7.02
26/01/2020 18:31:48	26012020	260120	183148	97.730	12.187228	-56.119432	97.910	0.130	-0.260	1.470	97.730	-1.700	1.800																			1580063508.0	3.59	6.65
26/01/2020 18:31:49	26012020	260120	183149	97.630	12.187225	-56.119418	97.790	-0.040	0.200	1.170	97.610	-1.200	1.600																			1580063509.0	3.23	5.98
26/01/2020 18:31:50	26012020	260120	183150	97.630	12.187223	-56.119403	97.810	-0.320	0.530	0.620	97.650	-0.900	1.000																			1580063510.0	2.88	5.33
26/01/2020 18:31:51	26012020	260120	183151	97.780	12.187223	-56.119390	97.970	-0.480	0.480	-0.080	97.820	-0.900	0.400																			1580063511.0	2.90	5.37
26/01/2020 18:31:52	26012020	260120	183152	97.960	12.187223	-56.119375	98.120	-0.380	0.060	-0.790	97.980	-1.300	-0.400																			1580063512.0	3.18	5.89
26/01/2020 18:31:53	26012020	260120	183153	98.010	12.187222	-56.119358	98.130	-0.020	-0.520	-1.310	98.000	-1.800	-0.900																			1580063513.0	3.49	6.46
26/01/2020 18:31:54	26012020	260120	183154	97.920	12.187220	-56.119342	98.020	0.440	-0.970	-1.500	97.890	-2.300	-1.100																			1580063514.0	3.68	6.82
26/01/2020 18:31:55	26012020	260120	183155	97.830	12.187218	-56.119325	97.940	0.730	-0.970	-1.350	97.810	-2.400	-1.000																			1580063515.0	3.67	6.80
26/01/2020 18:31:56	26012020	260120	183156	97.750	12.187215	-56.119308	97.870	0.610	-0.490	-0.920	97.720	-1.900	-0.600																			1580063516.0	3.35	6.20
26/01/2020 18:31:57	26012020	260120	183157	97.640	12.187212	-56.119295	97.770	0.150	0.150	-0.330	97.610	-1.300	-0.100																			1580063517.0	2.91	5.39
26/01/2020 18:31:58	26012020	260120	183158	97.550	12.187207	-56.119283	97.720	-0.370	0.580	0.240	97.550	-0.800	0.500																			1580063518.0	2.79	5.17
26/01/2020 18:31:59	26012020	260120	183159	97.550	12.187202	-56.119270	97.740	-0.630	0.620	0.780	97.550	-0.800	1.100	1014.00	26.20	26.30	20.60	20.70	688.00	71.00	71.00	383.00	29.60	358.00	5.50	94.00	3.60	48336	3247.00	27.90	27.80	1580063519.0	3.00	5.56
26/01/2020 18:32:00	26012020	260120	183200	97.560	12.187195	-56.119257	97.760	-0.550	0.240	1.240	97.570	-1.100	1.500																			1580063520.0	3.35	6.20
26/01/2020 18:32:01	26012020	260120	183201	97.600	12.187187	-56.119240	97.810	-0.250	-0.290	1.480	97.610	-1.600	1.800																			1580063521.0	3.71	6.87
26/01/2020 18:32:02	26012020	260120	183202	97.720	12.187180	-56.119223	97.930	0.060	-0.550	1.300	97.750	-1.900	1.700																			1580063522.0	3.77	6.98
26/01/2020 18:32:03	26012020	260120	183203	97.860	12.187177	-56.119208	98.030	0.220	-0.420	0.810	97.880	-1.800	1.200																			1580063523.0	3.40	6.30
26/01/2020 18:32:04	26012020	260120	183204	97.880	12.187177	-56.119193	98.010	0.230	-0.150	0.210	97.870	-1.600	0.600																			1580063524.0	2.94	5.44
26/01/2020 18:32:05	26012020	260120	183205	97.760	12.187177	-56.119180	97.850	0.210	-0.120	-0.360	97.720	-1.500	0.000																			1580063525.0	2.81	5.20
26/01/2020 18:32:06	26012020	260120	183206	97.560	12.187178	-56.119167	97.650	0.200	-0.340	-0.780	97.520	-1.700	-0.400																			1580063526.0	3.12	5.78
26/01/2020 18:32:07	26012020	260120	183207	97.380	12.187178	-56.119150	97.500	0.150	-0.460	-1.020	97.360	-1.900	-0.700																			1580063527.0	3.43	6.35
26/01/2020 18:32:08	26012020	260120	183208	97.320	12.187177	-56.119133	97.470	0.030	-0.250	-1.120	97.320	-1.700	-0.800																			1580063528.0	3.40	6.30
26/01/2020 18:32:09	26012020	260120	183209	97.360	12.187173	-56.119120	97.510	-0.130	0.150	-1.040	97.370	-1.300	-0.700																			1580063529.0	3.08	5.70
26/01/2020 18:32:10	26012020	260120	183210	97.470	12.187170	-56.119107	97.620	-0.230	0.450	-0.770	97.470	-1.000	-0.500																			1580063530.0	2.86	5.30
26/01/2020 18:32:11	26012020	260120	183211	97.590	12.187165	-56.119093	97.780	-0.240	0.470	-0.360	97.620	-0.900	-0.100																			1580063531.0	2.92	5.41
26/01/2020 18:32:12	26012020	260120	183212	97.730	12.187160	-56.119080	97.920	-0.210	0.240	0.100	97.750	-1.100	0.400																			1580063532.0	3.09	5.72
26/01/2020 18:32:13	26012020	260120	183213	97.790	12.187153	-56.119067	97.950	-0.130	-0.210	0.570	97.780	-1.600	0.900																			1580063533.0	3.23	5.98
26/01/2020 18:32:14	26012020	260120	183214	97.630	12.187147	-56.119052	97.810	-0.010	-0.720	1.030	97.630	-2.100	1.300																			1580063534.0	3.35	6.20
26/01/2020 18:32:15	26012020	260120	183215	97.430	12.187142	-56.119037	97.570	0.150	-1.000	1.330	97.380	-2.400	1.600																			1580063535.0	3.45	6.39
26/01/2020 18:32:16	26012020	260120	183216	97.160	12.187138	-56.119022	97.340	0.250	-0.890	1.450	97.160	-2.300	1.800																			1580063536.0	3.34	6.19
26/01/2020 18:32:17	26012020	260120	183217	97.050	12.187135	-56.119007	97.200	0.210	-0.440	1.330	97.030	-1.500	1.500																			1580063537.0	3.10	5.74
26/01/2020 18:32:18	26012020	260120	183218	97.020	12.187132	-56.118993	97.190	0.050	0.110	0.890	97.030	-1.300	1.300																			1580063538.0	2.87	5.32
26/01/2020 18:32:19	26012020	260120	183219	97.100	12.187130	-56.118980	97.250	-0.090	0.510	0.130	97.110	-0.900	0.600																			1580063539.0	2.79	5.17
26/01/2020 18:32:20	26012020	260120	183220	97.200	12.187132	-56.118967	97.320	-0.120	0.660	-0.700	97.200	-0.700	-0.300																			1580063540.0	2.92	5.41
26/01/2020 18:32:21	26012020	260120	183221	97.310	12.187132	-56.118952	97.440	-0.060	0.540	-1.390	97.340	-0.800	-1.000																			1580063541.0	3.08	5.70
26/01/2020 18:32:22	26012020	260120	183222	97.540	12.187133	-56.118937	97.630	0.020	0.250	-1.830	97.540	-1.100	-1.400																			1580063542.0	3.14	5.82
26/01/2020 18:32:23	26012020	260120	183223	97.660	12.187132	-56.118922	97.780	0.060	-0.150	-1.860	97.690	-1.500	-1.500																			1580063543.0	3.12	5.78
26/01/2020 18:32:24	26012020	260120	183224	97.670	12.187130	-56.118908	97.770	0.030	-0.510	-1.420	97.670	-1.900	-1.100																			1580063544.0	3.08	5.70
26/01/2020 18:32:25	26012020	260120	183225	97.530	12.187125	-56.118895	97.610	-0.030	-0.770	-0.530	97.490	-2.100	-0.300																			1580063545.0	3.08	5.70
26/01/2020 18:32:26	26012020	260120	183226	97.280	12.187118	-56.118882	97.370	-0.080	-0.880	0.630	97.220	-2.300	0.800																			1580063546.0	3.20	5.93
26/01/2020 18:32:27	26012020	260120	183227	97.000	12.187108	-56.118868	97.110	-0.120	-0.790	1.740	96.940	-2.000	2.500																			1580063547.0	3.41	6.32
26/01/2020 18:32:28	26012020	260120	183228	96.750	12.187100	-56.118855	96.880	-0.130	-0.470	2.500	96.700	-1.900	2.800																			1580063548.0	3.47	6.43
26/01/2020 18:32:29	26012020	260120	183229	96.570	12.187092	-56.118842	96.730	-0.110	-0.010	2.660	96.550	-1.500	3.000																			1580063549.0	3.28	6.07
26/01/2020 18:32:30	26012020	260120	183230	96.600	12.187087	-56.118828	96.780	-0.030	0.410	2.030	96.640	-1.000	2.500																			1580063550.0	2.96	5.48
26/01/2020 18:32:31	26012020	260120	183231	96.870	12.187085	-56.118815	97.040	0.110	0.650	0.780	96.930	-0.800	1.300																			1580063551.0	2.84	5.26
26/01/2020 18:32:32	26012020	260120	183232	97.240	12.187088	-56.118802	97.320	0.280	0.590	-0.660	97.240	-0.800	-0.200																			1580063552.0	3.06	5.67
26/01/2020 18:32:33	26012020	260120	183233	97.380	12.187093	-56.118787	97.460	0.430	0.210	-1.910	97.400	-1.100	-1.400																			1580063553.0	3.36	6.22
26/01/2020 18:32:34	26012020	260120	183234	97.450	12.187100	-56.118770	97.510	0.430	-0.260	-2.650	97.450	-1.600	-2.300																			1580063554.0	3.54	6.56
26/01/2020 18:32:35	26012020	260120	183235	97.410	12.187102	-56.118755	97.440	0.170	-0.550	-2.590	97.380	-1.900	-2.300																			1580063555.0	3.36	6.22
26/01/2020 18:32:36	26012020	260120	183236	97.170	12.187100	-56.118742	97.260	-0.270	-0.550	-1.630	97.170	-2.000	-1.400																			1580063556.0	2.94	5.44
26/01/2020 18:32:37	26012020	260120	183237	96.970	12.187093	-56.118730	97.050	-0.640	-0.400	-0.190	96.920	-1.800	0.000																			1580063557.0	2.94	5.44
26/01/2020 18:32:38	26012020	260120	183238	96.740	12.187082	-56.118720	96.890	-0.710	-0.330	1.170	96.740	-1.700	1.400																			1580063558.0	3.35	6.20
26/01/2020 18:32:39	26012020	260120	183239	96.610	12.187068	-56.118708	96.770	-0.450	-0.390	2.210	96.580	-1.800	2.500																			1580063559.0	3.60	6.67
26/01/2020 18:32:40	26012020	260120	183240	96.480	12.187058	-56.118695	96.640	-0.010	-0.440	2.770	96.460	-1.800	3.100																			1580063560.0	3.62	6.70
26/01/2020 18:32:41	26012020	260120	183241	96.430	12.187050	-56.118680	96.610	0.360	-0.270	2.620	96.440	-1.700	3.000																			1580063561.0	3.40	6.30
26/01/2020 18:32:42	26012020	260120	183242	96.560	12.187048	-56.118667	96.730	0.510	0.110	1.680	96.610	-1.300	2.200																			1580063562.0	2.98	5.52
26/01/2020 18:32:43	26012020	260120	183243	96.800	12.187050	-56.118653	96.930	0.450	0.430	0.300	96.850	-1.000	0.800																			1580063563.0	2.80	5.19
26/01/2020 18:32:44	26012020	260120	183244	96.980	12.187057	-56.118640	97.050	0.310	0.420	-1.040	96.990	-1.000	-0.600																			1580063564.0	3.01	5.57
26/01/2020 18:32:45	26012020	260120	183245	96.990	12.187062	-56.118627	97.030	0.170	0.120	-1.960	96.980	-1.300	-1.500																			1580063565.0	3.22	5.96
26/01/2020 18:32:46	26012020	260120	183246	96.920	12.187065	-56.118612	96.950	0.010	-0.190	-2.370	96.900	-1.600	-2.000																			1580063566.0	3.22	5.96
26/01/2020 18:32:47	26012020	260120	183247	96.840	12.187065	-56.118598	96.890	-0.190	-0.320	-2.230	96.830	-1.700	-1.900																			1580063567.0	2.98	5.52
26/01/2020 18:32:48	26012020	260120	183248	96.760	12.187062	-56.118585	96.810	-0.320	-0.340	-1.510	96.730	-1.800	-1.300																			1580063568.0	2.77	5.13
26/01/2020 18:32:49	26012020	260120	183249	96.600	12.187055	-56.118573	96.680	-0.320	-0.380	-0.410	96.560	-1.800	-0.200																			1580063569.0	2.90	5.37
26/01/2020 18:32:50	26012020	260120	183250	96.410	12.187047	-56.118562	96.540	-0.220	-0.400	0.690	96.370	-1.800	0.900																			1580063570.0	3.21	5.94
26/01/2020 18:32:51	26012020	260120	183251	96.310	12.187037	-56.118548	96.490	-0.080	-0.350	1.510	96.310	-1.700	2.100																			1580063571.0	3.33	6.17
26/01/2020 18:32:52	26012020	260120	183252	96.360	12.187028	-56.118537	96.560	0.010	-0.210	1.940	96.380	-1.600	2.300																			1580063572.0	3.19	5.91
26/01/2020 18:32:53	26012020	260120	183253	96.460	12.187022	-56.118523	96.640	0.050	-0.040	1.920	96.480	-1.400	2.100																			1580063573.0	2.91	5.39
26/01/2020 18:32:54	26012020	260120	183254	96.520	12.187018	-56.118512	96.660	0.090	0.030	1.450	96.520	-1.400	1.900																			1580063574.0	2.71	5.02
26/01/2020 18:32:55	26012020	260120	183255	96.490	12.187018	-56.118498	96.590	0.120	0.030	0.680	96.470	-1.400	1.100																			1580063575.0	2.77	5.13
26/01/2020 18:32:56	26012020	260120	183256	96.360	12.187020	-56.118485	96.430	0.130	0.050	-0.110	96.330	-1.400	0.300																			1580063576.0	2.88	5.33
26/01/2020 18:32:57	26012020	260120	183257	96.240	12.187022	-56.118472	96.310	0.110	0.030	-0.800	96.220	-1.400	-0.400																			1580063577.0	2.84	5.26
26/01/2020 18:32:58	26012020	260120	183258	96.200	12.187025	-56.118458	96.300	0.120	-0.080	-1.360	96.200	-1.500	-1.000																			1580063578.0	2.79	5.17
26/01/2020 18:32:59	26012020	260120	183259	96.270	12.187025	-56.118445	96.390	0.130	-0.190	-1.770	96.300	-1.600	-1.400	1014.00	26.20	26.30	20.70	20.80	681.00	71.00	71.00	383.00	29.60	356.00	4.90	91.00	3.30	47800	3473.00	27.90	27.80	1580063579.0	2.85	5.28
26/01/2020 18:33:00	26012020	260120	183300	96.420	12.187025	-56.118432	96.540	0.090	-0.170	-1.840	96.460	-1.600	-1.500																			1580063580.0	2.82	5.22
26/01/2020 18:33:01	26012020	260120	183301	96.530	12.187023	-56.118420	96.630	-0.040	-0.080	-1.390	96.530	-1.500	-1.100																			1580063581.0	2.62	4.85
26/01/2020 18:33:02	26012020	260120	183302	96.460	12.187018	-56.118408	96.550	-0.170	-0.100	-0.480	96.430	-1.500	-0.300																			1580063582.0	2.61	4.83
26/01/2020 18:33:03	26012020	260120	183303	96.270	12.187010	-56.118397	96.370	-0.230	-0.270	0.600	96.220	-1.700	0.800																			1580063583.0	2.92	5.41
26/01/2020 18:33:04	26012020	260120	183304	96.050	12.187002	-56.118385	96.170	-0.240	-0.430	1.580	96.010	-1.800	1.800																			1580063584.0	3.16	5.85
26/01/2020 18:33:05	26012020	260120	183305	95.880	12.186993	-56.118373	96.030	-0.240	-0.470	2.220	95.860	-1.800	2.700																			1580063585.0	3.17	5.87
26/01/2020 18:33:06	26012020	260120	183306	95.790	12.186987	-56.118360	95.960	-0.200	-0.330	2.350	95.790	-1.800	2.700																			1580063586.0	2.99	5.54
26/01/2020 18:33:07	26012020	260120	183307	95.800	12.186982	-56.118348	95.980	-0.100	-0.060	1.950	95.820	-1.500	2.400																			1580063587.0	2.72	5.04
26/01/2020 18:33:08	26012020	260120	183308	95.920	12.186980	-56.118337	96.100	0.070	0.220	1.080	95.960	-1.200	1.500																			1580063588.0	2.53	4.69
26/01/2020 18:33:09	26012020	260120	183309	96.090	12.186982	-56.118325	96.240	0.250	0.390	-0.030	96.120	-1.000	0.400																			1580063589.0	2.52	4.67
26/01/2020 18:33:10	26012020	260120	183310	96.210	12.186985	-56.118313	96.300	0.360	0.360	-1.130	96.210	-1.000	-0.700																			1580063590.0	2.66	4.93
26/01/2020 18:33:11	26012020	260120	183311	96.220	12.186990	-56.118300	96.290	0.400	0.090	-2.020	96.220	-1.300	-1.600																			1580063591.0	2.81	5.20
26/01/2020 18:33:12	26012020	260120	183312	96.140	12.186993	-56.118287	96.200	0.390	-0.380	-2.410	96.140	-1.700	-2.000																			1580063592.0	2.89	5.35
26/01/2020 18:33:13	26012020	260120	183313	96.010	12.186995	-56.118273	96.040	0.310	-0.820	-2.140	95.970	-2.200	-1.800																			1580063593.0	2.91	5.39
26/01/2020 18:33:14	26012020	260120	183314	95.830	12.186993	-56.118260	95.880	0.050	-0.900	-1.270	95.800	-2.300	-1.000																			1580063594.0	2.90	5.37
26/01/2020 18:33:15	26012020	260120	183315	95.720	12.186987	-56.118248	95.830	-0.360	-0.500	-0.100	95.710	-2.000	0.100																			1580063595.0	2.86	5.30
26/01/2020 18:33:16	26012020	260120	183316	95.710	12.186977	-56.118238	95.860	-0.770	0.110	1.090	95.710	-1.400	1.300																			1580063596.0	2.89	5.35
26/01/2020 18:33:17	26012020	260120	183317	95.730	12.186967	-56.118230	95.900	-0.940	0.590	1.990	95.740	-0.700	2.600																			1580063597.0	2.97	5.50
26/01/2020 18:33:18	26012020	260120	183318	95.780	12.186955	-56.118222	95.970	-0.760	0.680	2.410	95.800	-0.700	2.700																			1580063598.0	2.90	5.37
26/01/2020 18:33:19	26012020	260120	183319	95.890	12.186948	-56.118212	96.090	-0.270	0.370	2.200	95.920	-1.000	2.600																			1580063599.0	2.71	5.02
26/01/2020 18:33:20	26012020	260120	183320	96.050	12.186945	-56.118198	96.220	0.320	-0.160	1.410	96.070	-1.500	1.900																			1580063600.0	2.65	4.91
26/01/2020 18:33:21	26012020	260120	183321	96.090	12.186947	-56.118185	96.190	0.740	-0.610	0.320	96.070	-2.000	0.800																			1580063601.0	2.82	5.22
26/01/2020 18:33:22	26012020	260120	183322	95.900	12.186952	-56.118173	95.990	0.880	-0.770	-0.730	95.900	-2.200	-0.300																			1580063602.0	2.98	5.52
26/01/2020 18:33:23	26012020	260120	183323	95.740	12.186958	-56.118160	95.780	0.730	-0.630	-1.460	95.700	-2.100	-1.000																			1580063603.0	2.88	5.33
26/01/2020 18:33:24	26012020	260120	183324	95.580	12.186962	-56.118150	95.650	0.380	-0.300	-1.730	95.580	-1.800	-1.400																			1580063604.0	2.47	4.57
26/01/2020 18:33:25	26012020	260120	183325	95.520	12.186963	-56.118140	95.590	-0.030	-0.020	-1.530	95.510	-1.500	-1.200																			1580063605.0	2.08	3.85
26/01/2020 18:33:26	26012020	260120	183326	95.480	12.186962	-56.118130	95.570	-0.360	0.060	-0.960	95.480	-1.400	-0.700																			1580063606.0	2.11	3.91
26/01/2020 18:33:27	26012020	260120	183327	95.470	12.186955	-56.118120	95.570	-0.510	0.020	-0.070	95.470	-1.400	0.200																			1580063607.0	2.51	4.65
26/01/2020 18:33:28	26012020	260120	183328	95.440	12.186947	-56.118110	95.580	-0.490	0.040	0.950	95.440	-1.400	1.200																			1580063608.0	2.87	5.32
26/01/2020 18:33:29	26012020	260120	183329	95.390	12.186937	-56.118100	95.520	-0.380	0.160	1.770	95.370	-1.300	2.000																			1580063609.0	2.89	5.35
26/01/2020 18:33:30	26012020	260120	183330	95.220	12.186930	-56.118092	95.380	-0.260	0.290	2.220	95.220	-1.100	2.500																			1580063610.0	2.54	4.70
26/01/2020 18:33:31	26012020	260120	183331	95.080	12.186925	-56.118082	95.200	-0.190	0.310	2.220	95.050	-1.100	2.600																			1580063611.0	2.10	3.89
26/01/2020 18:33:32	26012020	260120	183332	94.950	12.186923	-56.118073	95.070	-0.110	0.110	1.740	94.930	-1.300	2.200																			1580063612.0	1.86	3.44
26/01/2020 18:33:33	26012020	260120	183333	94.850	12.186923	-56.118065	94.950	0.100	-0.350	1.000	94.830	-1.700	1.400																			1580063613.0	1.97	3.65
26/01/2020 18:33:34	26012020	260120	183334	94.680	12.186927	-56.118053	94.720	0.410	-0.890	0.240	94.630	-2.300	0.700																			1580063614.0	2.32	4.30
26/01/2020 18:33:35	26012020	260120	183335	94.410	12.186930	-56.118042	94.420	0.610	-1.110	-0.430	94.350	-2.500	-0.000																			1580063615.0	2.57	4.76
26/01/2020 18:33:36	26012020	260120	183336	93.990	12.186932	-56.118032	94.040	0.550	-0.810	-0.920	93.990	-2.300	-0.500																			1580063616.0	2.38	4.41
26/01/2020 18:33:37	26012020	260120	183337	93.650	12.186935	-56.118022	93.610	0.350	-0.210	-1.080	93.570	-1.700	-0.700																			1580063617.0	1.91	3.54
26/01/2020 18:33:38	26012020	260120	183338	93.190	12.186935	-56.118015	93.250	0.140	0.310	-0.940	93.190	-1.200	-0.600																			1580063618.0	1.58	2.93
26/01/2020 18:33:39	26012020	260120	183339	93.050	12.186935	-56.118007	93.110	-0.030	0.590	-0.690	93.040	-0.900	-0.400																			1580063619.0	1.65	3.06
26/01/2020 18:33:40	26012020	260120	183340	93.050	12.186933	-56.117998	93.130	-0.250	0.620	-0.370	93.060	-0.800	-0.100																			1580063620.0	1.82	3.37
26/01/2020 18:33:41	26012020	260120	183341	93.090	12.186930	-56.117990	93.150	-0.490	0.470	0.070	93.080	-0.900	0.400																			1580063621.0	1.91	3.54
26/01/2020 18:33:42	26012020	260120	183342	92.990	12.186927	-56.117982	93.030	-0.640	0.140	0.780	92.940	-1.200	1.000																			1580063622.0	1.96	3.63
26/01/2020 18:33:43	26012020	260120	183343	92.660	12.186920	-56.117973	92.670	-0.570	-0.250	1.670	92.570	-1.600	1.900																			1580063623.0	2.16	4.00
26/01/2020 18:33:44	26012020	260120	183344	92.130	12.186913	-56.117965	92.140	-0.330	-0.550	2.450	92.010	-1.900	2.700																			1580063624.0	2.33	4.32
26/01/2020 18:33:45	26012020	260120	183345	91.580	12.186907	-56.117957	91.610	-0.020	-0.710	2.740	91.480	-2.100	3.100																			1580063625.0	2.15	3.98
26/01/2020 18:33:46	26012020	260120	183346	91.030	12.186905	-56.117950	91.150	0.250	-0.730	2.440	91.030	-2.100	2.800																			1580063626.0	1.78	3.30
26/01/2020 18:33:47	26012020	260120	183347	90.690	12.186905	-56.117942	90.720	0.460	-0.560	1.650	90.620	-2.000	2.100																			1580063627.0	1.66	3.07
26/01/2020 18:33:48	26012020	260120	183348	90.330	12.186910	-56.117933	90.350	0.570	-0.250	0.520	90.270	-1.700	1.000																			1580063628.0	1.85	3.43
26/01/2020 18:33:49	26012020	260120	183349	90.080	12.186917	-56.117927	90.080	0.580	-0.000	-0.750	90.040	-1.400	-0.300																			1580063629.0	2.15	3.98
26/01/2020 18:33:50	26012020	260120	183350	89.900	12.186925	-56.117920	89.880	0.470	0.130	-1.760	89.860	-1.300	-1.300																			1580063630.0	2.37	4.39
26/01/2020 18:33:51	26012020	260120	183351	89.680	12.186932	-56.117912	89.630	0.240	0.210	-2.190	89.620	-1.200	-1.800																			1580063631.0	2.22	4.11
26/01/2020 18:33:52	26012020	260120	183352	89.260	12.186935	-56.117905	89.290	-0.100	0.280	-1.950	89.260	-1.100	-1.600																			1580063632.0	1.74	3.22
26/01/2020 18:33:53	26012020	260120	183353	88.930	12.186935	-56.117898	88.900	-0.450	0.280	-1.150	88.850	-1.100	-0.900																			1580063633.0	1.41	2.61
26/01/2020 18:33:54	26012020	260120	183354	88.400	12.186932	-56.117892	88.480	-0.700	0.130	0.020	88.400	-1.300	0.200																			1580063634.0	1.61	2.98
26/01/2020 18:33:55	26012020	260120	183355	88.040	12.186925	-56.117885	88.050	-0.740	-0.160	1.230	87.960	-1.700	2.100																			1580063635.0	2.03	3.76
26/01/2020 18:33:56	26012020	260120	183356	87.630	12.186917	-56.117877	87.660	-0.560	-0.420	2.210	87.550	-1.800	2.500																			1580063636.0	2.24	4.15
26/01/2020 18:33:57	26012020	260120	183357	87.170	12.186910	-56.117870	87.200	-0.250	-0.510	2.840	87.080	-1.900	3.300																			1580063637.0	2.12	3.93
26/01/2020 18:33:58	26012020	260120	183358	86.640	12.186905	-56.117863	86.660	0.120	-0.480	2.980	86.530	-1.900	3.300																			1580063638.0	1.72	3.19
26/01/2020 18:33:59	26012020	260120	183359	86.080	12.186905	-56.117857	86.080	0.490	-0.450	2.510	85.970	-1.900	2.900	1014.00	26.20	26.30	20.80	20.90	682.00	72.00	72.00	383.00	29.60	352.00	5.30	83.00	4.10	47622	3425.00	27.90	27.90	1580063639.0	1.33	2.46
26/01/2020 18:34:00	26012020	260120	183400	85.480	12.186908	-56.117852	85.570	0.730	-0.410	1.460	85.480	-1.800	1.900																			1580063640.0	1.54	2.85
26/01/2020 18:34:01	26012020	260120	183401	85.210	12.186915	-56.117845	85.200	0.730	-0.260	0.060	85.150	-1.700	0.600																			1580063641.0	2.13	3.94
26/01/2020 18:34:02	26012020	260120	183402	84.950	12.186925	-56.117838	84.910	0.460	0.050	-1.240	84.900	-1.400	-0.700																			1580063642.0	2.43	4.50
26/01/2020 18:34:03	26012020	260120	183403	84.630	12.186935	-56.117835	84.540	0.060	0.300	-2.000	84.550	-1.100	-1.600																			1580063643.0	2.17	4.02
26/01/2020 18:34:04	26012020	260120	183404	84.160	12.186940	-56.117830	84.020	-0.300	0.390	-2.080	84.030	-1.000	-1.700																			1580063644.0	1.55	2.87
26/01/2020 18:34:05	26012020	260120	183405	83.510	12.186942	-56.117825	83.360	-0.470	0.280	-1.560	83.370	-1.100	-1.300																			1580063645.0	1.11	2.06
26/01/2020 18:34:06	26012020	260120	183406	82.820	12.186940	-56.117820	82.700	-0.430	-0.030	-0.720	82.680	-1.400	-0.500																			1580063646.0	1.27	2.35
26/01/2020 18:34:07	26012020	260120	183407	82.240	12.186937	-56.117813	82.190	-0.260	-0.430	0.170	82.150	-2.000	0.900																			1580063647.0	1.57	2.91
26/01/2020 18:34:08	26012020	260120	183408	81.870	12.186933	-56.117805	81.890	-0.100	-0.690	0.930	81.820	-2.100	1.200																			1580063648.0	1.72	3.19
26/01/2020 18:34:09	26012020	260120	183409	81.600	12.186930	-56.117798	81.620	-0.060	-0.510	1.560	81.530	-2.000	1.800																			1580063649.0	1.65	3.06
26/01/2020 18:34:10	26012020	260120	183410	81.180	12.186927	-56.117793	81.180	-0.170	0.020	2.030	81.080	-1.400	2.300																			1580063650.0	1.32	2.44
26/01/2020 18:34:11	26012020	260120	183411	80.530	12.186923	-56.117792	80.480	-0.250	0.390	2.210	80.390	-1.000	2.500																			1580063651.0	0.90	1.67
26/01/2020 18:34:12	26012020	260120	183412	79.550	12.186922	-56.117788	79.650	-0.080	0.200	1.980	79.550	-1.200	2.400																			1580063652.0	0.62	1.15
26/01/2020 18:34:13	26012020	260120	183413	78.950	12.186925	-56.117783	78.890	0.300	-0.420	1.360	78.810	-1.800	1.800																			1580063653.0	1.19	2.20
26/01/2020 18:34:14	26012020	260120	183414	78.240	12.186932	-56.117777	78.300	0.660	-0.890	0.430	78.240	-2.300	0.900																			1580063654.0	1.95	3.61
26/01/2020 18:34:15	26012020	260120	183415	77.890	12.186940	-56.117770	77.850	0.720	-0.760	-0.600	77.810	-2.200	-0.100																			1580063655.0	2.20	4.07
26/01/2020 18:34:16	26012020	260120	183416	77.510	12.186948	-56.117767	77.440	0.460	-0.140	-1.430	77.430	-1.600	-1.000																			1580063656.0	1.97	3.65
26/01/2020 18:34:17	26012020	260120	183417	77.110	12.186955	-56.117767	77.030	0.000	0.490	-1.760	77.030	-1.000	-1.400																			1580063657.0	1.54	2.85
26/01/2020 18:34:18	26012020	260120	183418	76.660	12.186958	-56.117765	76.580	-0.440	0.740	-1.460	76.560	-0.700	-1.200																			1580063658.0	0.87	1.61
26/01/2020 18:34:19	26012020	260120	183419	76.130	12.186958	-56.117763	76.030	-0.710	0.580	-0.620	76.000	-0.800	-0.400																			1580063659.0	0.59	1.09
26/01/2020 18:34:20	26012020	260120	183420	75.330	12.186955	-56.117758	75.380	-0.750	0.160	0.480	75.330	-1.200	0.700																			1580063660.0	1.29	2.39
26/01/2020 18:34:21	26012020	260120	183421	74.780	12.186950	-56.117752	74.700	-0.580	-0.380	1.490	74.640	-1.700	1.700																			1580063661.0	1.75	3.24
26/01/2020 18:34:22	26012020	260120	183422	74.050	12.186945	-56.117745	73.990	-0.260	-0.800	2.230	73.910	-2.200	2.500																			1580063662.0	1.75	3.24
26/01/2020 18:34:23	26012020	260120	183423	73.300	12.186942	-56.117740	73.250	0.140	-0.920	2.550	73.160	-2.300	2.900																			1580063663.0	1.39	2.57
26/01/2020 18:34:24	26012020	260120	183424	72.630	12.186942	-56.117735	72.610	0.520	-0.730	2.270	72.520	-2.200	2.700																			1580063664.0	0.89	1.65
26/01/2020 18:34:25	26012020	260120	183425	72.150	12.186945	-56.117733	72.150	0.780	-0.370	1.420	72.070	-1.800	1.900																			1580063665.0	0.87	1.61
26/01/2020 18:34:26	26012020	260120	183426	71.610	12.186952	-56.117732	71.680	0.810	-0.020	0.350	71.610	-1.500	0.800																			1580063666.0	1.43	2.65
26/01/2020 18:34:27	26012020	260120	183427	71.160	12.186960	-56.117732	71.070	0.570	0.220	-0.620	71.030	-1.200	-0.200																			1580063667.0	1.80	3.33
26/01/2020 18:34:28	26012020	260120	183428	70.310	12.186968	-56.117732	70.340	0.120	0.350	-1.270	70.310	-1.100	-0.800																			1580063668.0	1.82	3.37
26/01/2020 18:34:29	26012020	260120	183429	69.730	12.186975	-56.117730	69.610	-0.370	0.340	-1.520	69.590	-1.100	-1.100																			1580063669.0	1.45	2.69
26/01/2020 18:34:30	26012020	260120	183430	69.070	12.186980	-56.117728	68.960	-0.660	0.230	-1.390	68.950	-1.200	-1.100																			1580063670.0	0.93	1.72
26/01/2020 18:34:31	26012020	260120	183431	68.470	12.186980	-56.117725	68.390	-0.680	0.070	-0.910	68.360	-1.300	-0.600																			1580063671.0	0.65	1.20
26/01/2020 18:34:32	26012020	260120	183432	67.770	12.186978	-56.117722	67.810	-0.500	-0.120	-0.250	67.770	-1.500	0.000																			1580063672.0	0.87	1.61
26/01/2020 18:34:33	26012020	260120	183433	67.250	12.186977	-56.117717	67.160	-0.260	-0.320	0.460	67.110	-1.800	1.100																			1580063673.0	1.09	2.02
26/01/2020 18:34:34	26012020	260120	183434	66.400	12.186973	-56.117713	66.460	-0.050	-0.470	0.990	66.400	-1.900	1.300																			1580063674.0	1.04	1.93
26/01/2020 18:34:35	26012020	260120	183435	65.820	12.186973	-56.117708	65.740	0.130	-0.460	1.250	65.690	-1.900	1.600																			1580063675.0	0.81	1.50
26/01/2020 18:34:36	26012020	260120	183436	65.000	12.186973	-56.117707	65.060	0.290	-0.330	1.260	65.000	-1.700	1.600																			1580063676.0	0.58	1.07
26/01/2020 18:34:37	26012020	260120	183437	64.460	12.186977	-56.117705	64.380	0.400	-0.250	1.000	64.330	-1.700	1.400																			1580063677.0	0.59	1.09
26/01/2020 18:34:38	26012020	260120	183438	63.890	12.186980	-56.117703	63.820	0.440	-0.280	0.400	63.780	-1.700	0.800																			1580063678.0	0.90	1.67
26/01/2020 18:34:39	26012020	260120	183439	63.390	12.186987	-56.117702	63.310	0.370	-0.240	-0.360	63.290	-1.700	0.100																			1580063679.0	1.33	2.46
26/01/2020 18:34:40	26012020	260120	183440	62.870	12.186992	-56.117702	62.760	0.230	-0.060	-0.930	62.760	-1.500	-0.500																			1580063680.0	1.40	2.59
26/01/2020 18:34:41	26012020	260120	183441	62.340	12.186997	-56.117700	62.210	0.040	0.120	-1.200	62.230	-1.300	-0.800																			1580063681.0	1.08	2.00
26/01/2020 18:34:42	26012020	260120	183442	61.790	12.187000	-56.117698	61.660	-0.180	0.180	-1.150	61.680	-1.200	-0.800																			1580063682.0	0.73	1.35
26/01/2020 18:34:43	26012020	260120	183443	61.230	12.187002	-56.117697	61.110	-0.340	0.140	-0.900	61.120	-1.300	-0.600																			1580063683.0	0.63	1.17
26/01/2020 18:34:44	26012020	260120	183444	60.560	12.187002	-56.117693	60.550	-0.380	0.110	-0.580	60.560	-1.300	-0.300																			1580063684.0	0.69	1.28
26/01/2020 18:34:45	26012020	260120	183445	60.120	12.187002	-56.117690	60.020	-0.280	0.070	-0.200	60.010	-1.400	0.400																			1580063685.0	0.67	1.24
26/01/2020 18:34:46	26012020	260120	183446	59.540	12.187002	-56.117687	59.430	-0.150	0.020	0.280	59.410	-1.400	0.600																			1580063686.0	0.63	1.17
26/01/2020 18:34:47	26012020	260120	183447	58.870	12.187002	-56.117683	58.770	-0.120	-0.060	0.760	58.740	-1.500	1.300																			1580063687.0	0.61	1.13
26/01/2020 18:34:48	26012020	260120	183448	58.220	12.187002	-56.117682	58.130	-0.160	-0.230	0.980	58.110	-1.600	1.300																			1580063688.0	0.53	0.98
26/01/2020 18:34:49	26012020	260120	183449	57.700	12.187003	-56.117680	57.640	-0.120	-0.510	0.820	57.620	-1.900	1.200																			1580063689.0	0.54	1.00
26/01/2020 18:34:50	26012020	260120	183450	57.330	12.187007	-56.117677	57.270	0.080	-0.800	0.450	57.260	-2.200	0.900																			1580063690.0	0.85	1.57
26/01/2020 18:34:51	26012020	260120	183451	56.980	12.187010	-56.117675	56.900	0.380	-0.810	0.090	56.900	-2.200	0.500																			1580063691.0	1.05	1.94
26/01/2020 18:34:52	26012020	260120	183452	56.600	12.187013	-56.117673	56.500	0.590	-0.440	-0.160	56.510	-1.900	0.200																			1580063692.0	0.93	1.72
26/01/2020 18:34:53	26012020	260120	183453	56.160	12.187017	-56.117672	56.040	0.570	0.110	-0.380	56.070	-1.400	0.000																			1580063693.0	0.61	1.13
26/01/2020 18:34:54	26012020	260120	183454	55.640	12.187018	-56.117672	55.490	0.340	0.560	-0.520	55.510	-0.900	-0.100																			1580063694.0	0.46	0.85
26/01/2020 18:34:55	26012020	260120	183455	54.980	12.187022	-56.117672	54.800	0.040	0.690	-0.440	54.840	-0.700	-0.100																			1580063695.0	0.48	0.89
26/01/2020 18:34:56	26012020	260120	183456	54.270	12.187023	-56.117670	54.100	-0.210	0.400	-0.190	54.140	-1.000	0.200																			1580063696.0	0.51	0.94
26/01/2020 18:34:57	26012020	260120	183457	53.640	12.187025	-56.117668	53.520	-0.410	-0.090	0.030	53.530	-1.400	0.400																			1580063697.0	0.74	1.37
26/01/2020 18:34:58	26012020	260120	183458	53.130	12.187027	-56.117663	53.060	-0.550	-0.410	0.140	53.040	-1.800	0.500																			1580063698.0	0.89	1.65
26/01/2020 18:34:59	26012020	260120	183459	52.710	12.187028	-56.117662	52.670	-0.610	-0.390	0.160	52.640	-1.800	0.500	1014.00	26.10	26.20	20.70	20.80	675.00	71.00	71.00	383.00	29.60	4.00	4.60	74.00	4.10	47203	3397.00	27.90	27.90	1580063699.0	0.68	1.26
26/01/2020 18:35:00	26012020	260120	183500	52.370	12.187030	-56.117660	52.360	-0.490	-0.230	0.090	52.310	-1.600	0.500																			1580063700.0	0.31	0.57
26/01/2020 18:35:01	26012020	260120	183501	52.090	12.187030	-56.117660	52.100	-0.180	-0.140	-0.030	52.040	-1.500	0.300																			1580063701.0	0.13	0.24
26/01/2020 18:35:02	26012020	260120	183502	51.780	12.187030	-56.117658	51.780	0.230	-0.220	-0.140	51.710	-1.600	0.200																			1580063702.0	0.27	0.50
26/01/2020 18:35:03	26012020	260120	183503	51.370	12.187033	-56.117658	51.360	0.600	-0.410	-0.270	51.270	-1.800	0.100																			1580063703.0	0.50	0.93
26/01/2020 18:35:04	26012020	260120	183504	50.870	12.187035	-56.117657	50.840	0.800	-0.550	-0.350	50.760	-1.900	0.000																			1580063704.0	0.70	1.30
26/01/2020 18:35:05	26012020	260120	183505	50.300	12.187038	-56.117655	50.260	0.730	-0.490	-0.320	50.170	-1.900	0.000																			1580063705.0	0.74	1.37
26/01/2020 18:35:06	26012020	260120	183506	49.690	12.187042	-56.117653	49.650	0.370	-0.170	-0.170	49.560	-1.600	0.200																			1580063706.0	0.61	1.13
26/01/2020 18:35:07	26012020	260120	183507	49.080	12.187043	-56.117653	49.040	-0.090	0.240	0.010	48.960	-1.200	0.400																			1580063707.0	0.37	0.69
26/01/2020 18:35:08	26012020	260120	183508	48.560	12.187045	-56.117655	48.560	-0.430	0.460	0.060	48.480	-1.000	0.400																			1580063708.0	0.20	0.37
26/01/2020 18:35:09	26012020	260120	183509	48.300	12.187045	-56.117655	48.350	-0.500	0.360	-0.130	48.270	-1.000	0.300																			1580063709.0	0.22	0.41
26/01/2020 18:35:10	26012020	260120	183510	48.260	12.187047	-56.117653	48.340	-0.390	0.080	-0.410	48.260	-1.300	-0.000																			1580063710.0	0.36	0.67
26/01/2020 18:35:11	26012020	260120	183511	48.190	12.187048	-56.117652	48.210	-0.280	-0.090	-0.520	48.140	-1.500	-0.200																			1580063711.0	0.46	0.85
26/01/2020 18:35:12	26012020	260120	183512	47.770	12.187048	-56.117650	47.720	-0.250	-0.020	-0.290	47.650	-1.400	0.000																			1580063712.0	0.32	0.59
26/01/2020 18:35:13	26012020	260120	183513	47.060	12.187047	-56.117650	46.990	-0.210	-0.020	0.060	46.920	-1.400	0.400																			1580063713.0	0.41	0.76
26/01/2020 18:35:14	26012020	260120	183514	46.360	12.187045	-56.117648	46.330	-0.000	-0.400	0.170	46.240	-1.700	0.500																			1580063714.0	0.28	0.52
26/01/2020 18:35:15	26012020	260120	183515	45.860	12.187047	-56.117648	45.870	0.330	-0.890	-0.010	45.790	-2.300	0.400																			1580063715.0	0.39	0.72
26/01/2020 18:35:16	26012020	260120	183516	45.480	12.187050	-56.117648	45.560	0.570	-0.980	-0.290	45.480	-2.400	0.100																			1580063716.0	0.89	1.65
26/01/2020 18:35:17	26012020	260120	183517	45.250	12.187055	-56.117650	45.260	0.530	-0.520	-0.510	45.190	-2.000	-0.100																			1580063717.0	0.80	1.48
26/01/2020 18:35:18	26012020	260120	183518	44.910	12.187055	-56.117652	44.890	0.250	0.210	-0.550	44.820	-1.300	-0.200																			1580063718.0	0.52	0.96
26/01/2020 18:35:19	26012020	260120	183519	44.480	12.187053	-56.117655	44.460	-0.110	0.730	-0.410	44.390	-0.700	-0.100																			1580063719.0	0.48	0.89
26/01/2020 18:35:20	26012020	260120	183520	44.090	12.187052	-56.117655	44.110	-0.340	0.660	-0.330	44.030	-0.700	0.000																			1580063720.0	0.44	0.81
26/01/2020 18:35:21	26012020	260120	183521	43.890	12.187052	-56.117653	43.940	-0.360	0.110	-0.430	43.860	-1.200	-0.100																			1580063721.0	0.23	0.43
26/01/2020 18:35:22	26012020	260120	183522	43.800	12.187053	-56.117652	43.850	-0.170	-0.400	-0.580	43.780	-1.800	-0.200																			1580063722.0	0.54	1.00
26/01/2020 18:35:23	26012020	260120	183523	43.610	12.187057	-56.117652	43.610	0.070	-0.500	-0.550	43.550	-1.800	-0.100																			1580063723.0	0.50	0.93
26/01/2020 18:35:24	26012020	260120	183524	43.210	12.187057	-56.117652	43.170	0.170	-0.240	-0.260	43.100	-1.700	0.100																			1580063724.0	0.10	0.19
26/01/2020 18:35:25	26012020	260120	183525	42.610	12.187053	-56.117650	42.570	0.080	0.060	0.160	42.490	-1.400	0.500																			1580063725.0	0.45	0.83
26/01/2020 18:35:26	26012020	260120	183526	41.980	12.187052	-56.117650	41.960	-0.040	0.110	0.460	41.880	-1.300	0.800																			1580063726.0	0.48	0.89
26/01/2020 18:35:27	26012020	260120	183527	41.530	12.187052	-56.117650	41.570	-0.050	-0.150	0.450	41.480	-1.500	0.800																			1580063727.0	0.08	0.15
26/01/2020 18:35:28	26012020	260120	183528	41.370	12.187053	-56.117650	41.440	0.060	-0.520	0.140	41.360	-1.900	0.500																			1580063728.0	0.43	0.80
26/01/2020 18:35:29	26012020	260120	183529	41.320	12.187057	-56.117652	41.370	0.120	-0.590	-0.210	41.300	-2.000	0.200																			1580063729.0	0.72	1.33
26/01/2020 18:35:30	26012020	260120	183530	41.130	12.187058	-56.117652	41.110	0.000	-0.210	-0.320	41.050	-1.700	0.000																			1580063730.0	0.48	0.89
26/01/2020 18:35:31	26012020	260120	183531	40.640	12.187058	-56.117652	40.590	-0.210	0.370	-0.080	40.510	-1.100	0.200																			1580063731.0	0.17	0.31
26/01/2020 18:35:32	26012020	260120	183532	39.830	12.187055	-56.117652	39.920	-0.290	0.620	0.310	39.830	-0.800	0.600																			1580063732.0	0.55	1.02
26/01/2020 18:35:33	26012020	260120	183533	39.300	12.187053	-56.117652	39.270	-0.100	0.300	0.550	39.180	-1.000	0.900																			1580063733.0	0.47	0.87
26/01/2020 18:35:34	26012020	260120	183534	38.780	12.187055	-56.117650	38.790	0.260	-0.360	0.460	38.710	-1.700	0.900																			1580063734.0	0.34	0.63
26/01/2020 18:35:35	26012020	260120	183535	38.510	12.187058	-56.117650	38.560	0.550	-0.880	0.040	38.490	-2.400	0.100																			1580063735.0	0.81	1.50
26/01/2020 18:35:36	26012020	260120	183536	38.320	12.187063	-56.117650	38.380	0.550	-0.900	-0.390	38.320	-2.300	0.000																			1580063736.0	1.05	1.94
26/01/2020 18:35:37	26012020	260120	183537	38.070	12.187067	-56.117652	38.070	0.250	-0.320	-0.420	38.000	-1.800	-0.100																			1580063737.0	0.83	1.54
26/01/2020 18:35:38	26012020	260120	183538	37.640	12.187067	-56.117655	37.620	-0.190	0.400	-0.120	37.550	-1.100	0.200																			1580063738.0	0.38	0.70
26/01/2020 18:35:39	26012020	260120	183539	37.150	12.187063	-56.117655	37.120	-0.500	0.740	0.280	37.040	-0.700	0.600																			1580063739.0	0.59	1.09
26/01/2020 18:35:40	26012020	260120	183540	36.610	12.187062	-56.117653	36.580	-0.520	0.500	0.640	36.490	-0.800	1.000																			1580063740.0	0.56	1.04
26/01/2020 18:35:41	26012020	260120	183541	36.040	12.187060	-56.117652	36.020	-0.240	-0.140	0.860	35.930	-1.400	1.200																			1580063741.0	0.52	0.96
26/01/2020 18:35:42	26012020	260120	183542	35.490	12.187062	-56.117648	35.460	0.150	-0.680	0.910	35.380	-2.000	1.300																			1580063742.0	0.65	1.20
26/01/2020 18:35:43	26012020	260120	183543	35.010	12.187065	-56.117648	34.990	0.400	-0.810	0.680	34.920	-2.200	1.100																			1580063743.0	0.59	1.09
26/01/2020 18:35:44	26012020	260120	183544	34.610	12.187067	-56.117650	34.580	0.400	-0.490	0.240	34.520	-1.900	0.700																			1580063744.0	0.63	1.17
26/01/2020 18:35:45	26012020	260120	183545	34.200	12.187070	-56.117653	34.170	0.150	0.040	-0.250	34.110	-1.400	0.200																			1580063745.0	0.98	1.81
26/01/2020 18:35:46	26012020	260120	183546	33.770	12.187070	-56.117658	33.760	-0.200	0.420	-0.620	33.690	-1.000	-0.200																			1580063746.0	1.17	2.17
26/01/2020 18:35:47	26012020	260120	183547	33.430	12.187072	-56.117663	33.440	-0.410	0.370	-0.850	33.370	-1.200	-0.500																			1580063747.0	1.03	1.91
26/01/2020 18:35:48	26012020	260120	183548	33.140	12.187073	-56.117667	33.230	-0.360	-0.000	-0.860	33.140	-1.400	-0.500																			1580063748.0	0.65	1.20
26/01/2020 18:35:49	26012020	260120	183549	32.940	12.187075	-56.117665	32.970	-0.110	-0.340	-0.570	32.880	-1.700	-0.200																			1580063749.0	0.35	0.65
26/01/2020 18:35:50	26012020	260120	183550	32.530	12.187075	-56.117663	32.510	0.170	-0.440	0.020	32.420	-1.800	0.300																			1580063750.0	0.56	1.04
26/01/2020 18:35:51	26012020	260120	183551	31.860	12.187073	-56.117660	31.810	0.340	-0.390	0.710	31.710	-1.800	1.000																			1580063751.0	0.90	1.67
26/01/2020 18:35:52	26012020	260120	183552	30.980	12.187072	-56.117655	31.090	0.370	-0.410	1.130	30.980	-1.800	1.500																			1580063752.0	0.92	1.70
26/01/2020 18:35:53	26012020	260120	183553	30.540	12.187072	-56.117653	30.540	0.300	-0.460	1.010	30.440	-1.800	1.400																			1580063753.0	0.42	0.78
26/01/2020 18:35:54	26012020	260120	183554	30.130	12.187073	-56.117655	30.150	0.130	-0.230	0.480	30.060	-1.700	0.900																			1580063754.0	0.59	1.09
26/01/2020 18:35:55	26012020	260120	183555	29.840	12.187077	-56.117660	29.860	-0.080	0.270	-0.220	29.790	-1.200	0.200																			1580063755.0	1.23	2.28
26/01/2020 18:35:56	26012020	260120	183556	29.620	12.187080	-56.117667	29.630	-0.230	0.640	-0.860	29.580	-0.800	-0.400																			1580063756.0	1.53	2.83
26/01/2020 18:35:57	26012020	260120	183557	29.340	12.187082	-56.117672	29.310	-0.290	0.610	-1.210	29.270	-0.800	-0.800																			1580063757.0	1.28	2.37
26/01/2020 18:35:58	26012020	260120	183558	28.920	12.187082	-56.117675	28.850	-0.300	0.200	-1.210	28.810	-1.100	-0.900																			1580063758.0	0.64	1.19
26/01/2020 18:35:59	26012020	260120	183559	28.420	12.187083	-56.117675	28.380	-0.290	-0.360	-0.960	28.330	-1.700	-0.600	1014.00	26.20	26.20	20.80	20.80	567.00	71.00	71.00	383.00	29.60	39.00	4.20	82.00	4.10	42502	3465.00	28.00	27.90	1580063759.0	0.25	0.46
26/01/2020 18:36:00	26012020	260120	183600	28.030	12.187085	-56.117673	28.080	-0.200	-0.840	-0.640	28.030	-2.200	-0.300																			1580063760.0	0.37	0.69
26/01/2020 18:36:01	26012020	260120	183601	27.890	12.187087	-56.117672	27.910	-0.020	-1.000	-0.390	27.870	-2.400	-0.100																			1580063761.0	0.39	0.72
26/01/2020 18:36:02	26012020	260120	183602	27.690	12.187087	-56.117672	27.680	0.180	-0.700	-0.110	27.630	-2.100	0.200																			1580063762.0	0.28	0.52
26/01/2020 18:36:03	26012020	260120	183603	27.260	12.187087	-56.117670	27.230	0.280	-0.040	0.300	27.160	-1.500	0.600																			1580063763.0	0.25	0.46
26/01/2020 18:36:04	26012020	260120	183604	26.640	12.187083	-56.117670	26.610	0.250	0.540	0.770	26.500	-0.900	1.100																			1580063764.0	0.58	1.07
26/01/2020 18:36:05	26012020	260120	183605	25.990	12.187082	-56.117668	26.000	0.180	0.530	0.980	25.880	-0.800	1.300																			1580063765.0	0.59	1.09
26/01/2020 18:36:06	26012020	260120	183606	25.570	12.187082	-56.117668	25.640	0.150	-0.040	0.660	25.520	-1.300	1.100																			1580063766.0	0.19	0.35
26/01/2020 18:36:07	26012020	260120	183607	25.430	12.187085	-56.117668	25.550	0.110	-0.560	-0.170	25.430	-1.900	0.300																			1580063767.0	0.98	1.81
26/01/2020 18:36:08	26012020	260120	183608	25.460	12.187092	-56.117673	25.560	-0.040	-0.530	-1.130	25.460	-1.900	-0.700																			1580063768.0	1.50	2.78
26/01/2020 18:36:09	26012020	260120	183609	25.400	12.187095	-56.117680	25.450	-0.280	0.030	-1.710	25.360	-1.400	-1.300																			1580063769.0	1.57	2.91
26/01/2020 18:36:10	26012020	260120	183610	25.140	12.187095	-56.117685	25.170	-0.440	0.570	-1.680	25.070	-0.900	-1.300																			1580063770.0	1.24	2.30
26/01/2020 18:36:11	26012020	260120	183611	24.760	12.187093	-56.117688	24.800	-0.430	0.570	-1.150	24.680	-0.800	-0.900																			1580063771.0	0.60	1.11
26/01/2020 18:36:12	26012020	260120	183612	24.360	12.187093	-56.117685	24.500	-0.270	-0.080	-0.520	24.360	-1.400	-0.200																			1580063772.0	0.54	1.00
26/01/2020 18:36:13	26012020	260120	183613	24.180	12.187093	-56.117682	24.280	-0.040	-0.880	-0.040	24.140	-2.200	0.300																			1580063773.0	0.97	1.80
26/01/2020 18:36:14	26012020	260120	183614	23.940	12.187097	-56.117677	24.090	0.220	-1.170	0.340	23.940	-2.500	0.600																			1580063774.0	0.98	1.81
26/01/2020 18:36:15	26012020	260120	183615	23.760	12.187097	-56.117675	23.870	0.460	-0.790	0.690	23.720	-2.200	1.000																			1580063775.0	0.59	1.09
26/01/2020 18:36:16	26012020	260120	183616	23.480	12.187097	-56.117673	23.640	0.590	-0.150	0.920	23.480	-1.600	1.300																			1580063776.0	0.32	0.59
26/01/2020 18:36:17	26012020	260120	183617	23.320	12.187095	-56.117673	23.460	0.530	0.270	0.770	23.300	-1.100	1.200																			1580063777.0	0.25	0.46
26/01/2020 18:36:18	26012020	260120	183618	23.190	12.187097	-56.117675	23.320	0.260	0.440	0.270	23.170	-0.900	0.700																			1580063778.0	0.40	0.74
26/01/2020 18:36:19	26012020	260120	183619	23.080	12.187098	-56.117678	23.190	-0.150	0.500	-0.370	23.070	-0.900	0.100																			1580063779.0	0.93	1.72
26/01/2020 18:36:20	26012020	260120	183620	22.970	12.187102	-56.117683	23.060	-0.550	0.470	-0.880	22.950	-0.900	-0.500																			1580063780.0	1.13	2.09
26/01/2020 18:36:21	26012020	260120	183621	22.880	12.187103	-56.117687	22.980	-0.780	0.290	-1.180	22.870	-1.100	-0.800																			1580063781.0	0.99	1.83
26/01/2020 18:36:22	26012020	260120	183622	22.880	12.187105	-56.117690	22.980	-0.730	-0.060	-1.300	22.880	-1.400	-0.900																			1580063782.0	0.58	1.07
26/01/2020 18:36:23	26012020	260120	183623	22.840	12.187105	-56.117690	22.920	-0.450	-0.460	-1.140	22.810	-1.800	-0.800																			1580063783.0	0.21	0.39
26/01/2020 18:36:24	26012020	260120	183624	22.530	12.187107	-56.117688	22.660	-0.090	-0.710	-0.620	22.530	-2.100	-0.300																			1580063784.0	0.34	0.63
26/01/2020 18:36:25	26012020	260120	183625	22.260	12.187105	-56.117687	22.330	0.240	-0.780	0.000	22.200	-2.100	0.600																			1580063785.0	0.63	1.17
26/01/2020 18:36:26	26012020	260120	183626	22.010	12.187105	-56.117683	22.090	0.480	-0.700	0.420	21.970	-2.100	0.700																			1580063786.0	0.60	1.11
26/01/2020 18:36:27	26012020	260120	183627	21.870	12.187105	-56.117682	21.990	0.620	-0.520	0.560	21.860	-1.900	0.900																			1580063787.0	0.31	0.57
26/01/2020 18:36:28	26012020	260120	183628	21.810	12.187107	-56.117682	21.940	0.690	-0.280	0.490	21.810	-1.700	0.900																			1580063788.0	0.23	0.43
26/01/2020 18:36:29	26012020	260120	183629	21.760	12.187108	-56.117683	21.870	0.660	0.010	0.360	21.750	-1.400	0.700																			1580063789.0	0.46	0.85
26/01/2020 18:36:30	26012020	260120	183630	21.690	12.187110	-56.117685	21.780	0.450	0.360	0.170	21.670	-1.100	0.600																			1580063790.0	0.46	0.85
26/01/2020 18:36:31	26012020	260120	183631	21.570	12.187112	-56.117685	21.640	0.010	0.710	-0.100	21.530	-0.700	0.300																			1580063791.0	0.36	0.67
26/01/2020 18:36:32	26012020	260120	183632	21.380	12.187112	-56.117688	21.450	-0.570	0.900	-0.430	21.340	-0.500	-0.000																			1580063792.0	0.50	0.93
26/01/2020 18:36:33	26012020	260120	183633	21.250	12.187112	-56.117692	21.340	-0.980	0.690	-0.800	21.250	-0.600	-0.400																			1580063793.0	0.80	1.48
26/01/2020 18:36:34	26012020	260120	183634	21.370	12.187113	-56.117695	21.450	-0.960	0.020	-1.130	21.370	-1.300	-0.700																			1580063794.0	0.87	1.61
26/01/2020 18:36:35	26012020	260120	183635	21.530	12.187115	-56.117698	21.640	-0.550	-0.770	-1.230	21.570	-2.100	-0.900																			1580063795.0	0.72	1.33
26/01/2020 18:36:36	26012020	260120	183636	21.630	12.187118	-56.117697	21.720	-0.080	-1.200	-0.990	21.630	-2.500	-0.700																			1580063796.0	0.55	1.02
26/01/2020 18:36:37	26012020	260120	183637	21.530	12.187118	-56.117693	21.580	0.180	-1.060	-0.460	21.480	-2.500	-0.200																			1580063797.0	0.66	1.22
26/01/2020 18:36:38	26012020	260120	183638	21.200	12.187117	-56.117690	21.230	0.250	-0.540	0.180	21.120	-2.000	0.500																			1580063798.0	0.80	1.48
26/01/2020 18:36:39	26012020	260120	183639	20.800	12.187115	-56.117688	20.850	0.290	-0.030	0.620	20.740	-1.400	1.000																			1580063799.0	0.69	1.28
26/01/2020 18:36:40	26012020	260120	183640	20.580	12.187113	-56.117688	20.680	0.470	0.130	0.580	20.570	-1.200	1.000																			1580063800.0	0.28	0.52
26/01/2020 18:36:41	26012020	260120	183641	20.680	12.187115	-56.117690	20.830	0.700	-0.040	0.030	20.720	-1.400	0.500																			1580063801.0	0.57	1.06
26/01/2020 18:36:42	26012020	260120	183642	21.010	12.187120	-56.117695	21.090	0.770	-0.190	-0.590	21.010	-1.600	-0.200																			1580063802.0	1.22	2.26
26/01/2020 18:36:43	26012020	260120	183643	21.180	12.187123	-56.117698	21.290	0.500	-0.030	-0.980	21.200	-1.400	-0.600																			1580063803.0	1.23	2.28
26/01/2020 18:36:44	26012020	260120	183644	21.260	12.187125	-56.117702	21.350	-0.060	0.410	-1.050	21.260	-1.000	-0.700																			1580063804.0	0.76	1.41
26/01/2020 18:36:45	26012020	260120	183645	21.230	12.187125	-56.117703	21.310	-0.640	0.790	-0.810	21.210	-0.600	-0.500																			1580063805.0	0.39	0.72
26/01/2020 18:36:46	26012020	260120	183646	21.180	12.187122	-56.117702	21.280	-0.960	0.720	-0.370	21.180	-0.600	-0.100																			1580063806.0	0.55	1.02
26/01/2020 18:36:47	26012020	260120	183647	21.150	12.187120	-56.117700	21.260	-0.900	0.160	0.090	21.150	-1.100	0.400																			1580063807.0	0.72	1.33
26/01/2020 18:36:48	26012020	260120	183648	21.150	12.187120	-56.117695	21.280	-0.540	-0.590	0.410	21.150	-1.900	0.700																			1580063808.0	0.82	1.52
26/01/2020 18:36:49	26012020	260120	183649	21.180	12.187120	-56.117692	21.320	-0.070	-1.190	0.460	21.190	-2.500	0.800																			1580063809.0	0.73	1.35
26/01/2020 18:36:50	26012020	260120	183650	21.240	12.187122	-56.117692	21.360	0.320	-1.320	0.210	21.240	-2.700	0.600																			1580063810.0	0.40	0.74
26/01/2020 18:36:51	26012020	260120	183651	21.260	12.187123	-56.117693	21.380	0.560	-0.900	-0.190	21.270	-2.300	0.200																			1580063811.0	0.57	1.06
26/01/2020 18:36:52	26012020	260120	183652	21.250	12.187125	-56.117698	21.350	0.620	-0.170	-0.500	21.250	-1.600	-0.100																			1580063812.0	0.96	1.78
26/01/2020 18:36:53	26012020	260120	183653	21.180	12.187125	-56.117703	21.270	0.520	0.470	-0.620	21.160	-0.900	-0.300																			1580063813.0	1.02	1.89
26/01/2020 18:36:54	26012020	260120	183654	21.130	12.187125	-56.117707	21.250	0.340	0.730	-0.620	21.140	-0.600	-0.300																			1580063814.0	0.79	1.46
26/01/2020 18:36:55	26012020	260120	183655	21.290	12.187125	-56.117708	21.460	0.160	0.510	-0.640	21.350	-0.800	-0.300																			1580063815.0	0.37	0.69
26/01/2020 18:36:56	26012020	260120	183656	21.650	12.187127	-56.117707	21.840	-0.030	0.020	-0.700	21.740	-1.300	-0.300																			1580063816.0	0.33	0.61
26/01/2020 18:36:57	26012020	260120	183657	22.060	12.187128	-56.117705	22.230	-0.250	-0.350	-0.690	22.120	-1.700	-0.400																			1580063817.0	0.58	1.07
26/01/2020 18:36:58	26012020	260120	183658	22.300	12.187128	-56.117703	22.450	-0.460	-0.300	-0.440	22.320	-1.700	-0.100																			1580063818.0	0.51	0.94
26/01/2020 18:36:59	26012020	260120	183659	22.280	12.187127	-56.117702	22.380	-0.540	0.050	0.020	22.240	-1.400	0.300	1014.00	26.30	26.20	20.80	20.70	648.00	71.00	71.00	383.00	29.60	57.00	3.90	84.00	3.80	45852	3347.00	28.00	27.80	1580063819.0	0.51	0.94
26/01/2020 18:37:00	26012020	260120	183700	21.990	12.187125	-56.117700	22.060	-0.400	0.270	0.490	21.920	-1.100	0.800																			1580063820.0	0.68	1.26
26/01/2020 18:37:01	26012020	260120	183701	21.660	12.187122	-56.117700	21.760	-0.050	0.050	0.650	21.620	-1.300	1.000																			1580063821.0	0.46	0.85
26/01/2020 18:37:02	26012020	260120	183702	21.620	12.187123	-56.117700	21.790	0.330	-0.510	0.310	21.660	-1.800	0.700																			1580063822.0	0.19	0.35
26/01/2020 18:37:03	26012020	260120	183703	21.900	12.187125	-56.117703	22.090	0.470	-0.900	-0.320	21.970	-2.300	-0.300																			1580063823.0	0.76	1.41
26/01/2020 18:37:04	26012020	260120	183704	22.230	12.187130	-56.117705	22.400	0.260	-0.730	-0.930	22.290	-2.100	-0.500																			1580063824.0	0.96	1.78
26/01/2020 18:37:05	26012020	260120	183705	22.480	12.187130	-56.117708	22.620	-0.090	-0.150	-1.300	22.520	-1.600	-0.900																			1580063825.0	0.81	1.50
26/01/2020 18:37:06	26012020	260120	183706	22.630	12.187130	-56.117712	22.740	-0.260	0.300	-1.380	22.640	-1.100	-1.000																			1580063826.0	0.69	1.28
26/01/2020 18:37:07	26012020	260120	183707	22.640	12.187128	-56.117713	22.740	-0.130	0.330	-1.160	22.630	-1.000	-0.800																			1580063827.0	0.38	0.70
26/01/2020 18:37:08	26012020	260120	183708	22.540	12.187128	-56.117712	22.640	0.190	0.060	-0.720	22.520	-1.300	-0.400																			1580063828.0	0.24	0.44
26/01/2020 18:37:09	26012020	260120	183709	22.410	12.187128	-56.117710	22.510	0.400	-0.180	-0.240	22.390	-1.500	0.100																			1580063829.0	0.58	1.07
26/01/2020 18:37:10	26012020	260120	183710	22.320	12.187130	-56.117707	22.450	0.350	-0.210	0.100	22.320	-1.600	0.400																			1580063830.0	0.57	1.06
26/01/2020 18:37:11	26012020	260120	183711	22.360	12.187128	-56.117705	22.510	0.030	-0.000	0.200	22.380	-1.400	0.600																			1580063831.0	0.29	0.54
26/01/2020 18:37:12	26012020	260120	183712	22.470	12.187128	-56.117705	22.610	-0.390	0.240	0.090	22.490	-1.100	0.500																			1580063832.0	0.27	0.50
26/01/2020 18:37:13	26012020	260120	183713	22.570	12.187127	-56.117708	22.690	-0.660	0.250	-0.140	22.580	-1.100	0.200																			1580063833.0	0.48	0.89
26/01/2020 18:37:14	26012020	260120	183714	22.650	12.187125	-56.117710	22.780	-0.590	-0.090	-0.340	22.670	-1.400	0.000																			1580063834.0	0.45	0.83
26/01/2020 18:37:15	26012020	260120	183715	22.750	12.187127	-56.117710	22.870	-0.220	-0.510	-0.470	22.760	-2.000	-0.100																			1580063835.0	0.23	0.43
26/01/2020 18:37:16	26012020	260120	183716	22.730	12.187127	-56.117710	22.840	0.190	-0.680	-0.490	22.730	-2.000	-0.100																			1580063836.0	0.24	0.44
26/01/2020 18:37:17	26012020	260120	183717	22.620	12.187127	-56.117708	22.710	0.410	-0.580	-0.530	22.590	-2.000	-0.200																			1580063837.0	0.18	0.33
26/01/2020 18:37:18	26012020	260120	183718	22.480	12.187127	-56.117710	22.590	0.410	-0.300	-0.690	22.480	-1.700	-0.300																			1580063838.0	0.13	0.24
26/01/2020 18:37:19	26012020	260120	183719	22.410	12.187127	-56.117712	22.510	0.300	0.010	-0.870	22.410	-1.400	-0.500																			1580063839.0	0.39	0.72
26/01/2020 18:37:20	26012020	260120	183720	22.450	12.187127	-56.117713	22.600	0.200	0.150	-1.030	22.480	-1.200	-0.700																			1580063840.0	0.53	0.98
26/01/2020 18:37:21	26012020	260120	183721	22.650	12.187127	-56.117715	22.810	0.140	0.050	-1.150	22.700	-1.300	-0.800																			1580063841.0	0.43	0.80
26/01/2020 18:37:22	26012020	260120	183722	22.890	12.187128	-56.117717	23.010	0.040	-0.070	-1.090	22.890	-1.400	-0.800																			1580063842.0	0.30	0.56
26/01/2020 18:37:23	26012020	260120	183723	22.930	12.187128	-56.117715	23.040	-0.120	-0.020	-0.760	22.930	-1.400	-0.500																			1580063843.0	0.18	0.33
26/01/2020 18:37:24	26012020	260120	183724	22.870	12.187127	-56.117713	23.000	-0.290	0.120	-0.220	22.870	-1.300	0.100																			1580063844.0	0.50	0.93
26/01/2020 18:37:25	26012020	260120	183725	22.820	12.187123	-56.117712	22.950	-0.350	0.190	0.320	22.810	-1.200	0.600																			1580063845.0	0.84	1.56
26/01/2020 18:37:26	26012020	260120	183726	22.740	12.187122	-56.117708	22.880	-0.320	0.130	0.690	22.720	-1.200	1.000																			1580063846.0	0.92	1.70
26/01/2020 18:37:27	26012020	260120	183727	22.610	12.187118	-56.117705	22.740	-0.270	-0.020	0.740	22.580	-1.400	1.100																			1580063847.0	0.68	1.26
26/01/2020 18:37:28	26012020	260120	183728	22.550	12.187118	-56.117705	22.710	-0.200	-0.250	0.390	22.570	-1.600	0.800																			1580063848.0	0.19	0.35
26/01/2020 18:37:29	26012020	260120	183729	22.730	12.187118	-56.117708	22.940	-0.010	-0.530	-0.310	22.800	-1.900	0.100																			1580063849.0	0.63	1.17
26/01/2020 18:37:30	26012020	260120	183730	23.200	12.187120	-56.117713	23.330	0.280	-0.760	-1.090	23.200	-2.100	-0.700																			1580063850.0	0.96	1.78
26/01/2020 18:37:31	26012020	260120	183731	23.420	12.187123	-56.117717	23.560	0.450	-0.730	-1.560	23.450	-2.100	-1.200																			1580063851.0	0.89	1.65
26/01/2020 18:37:32	26012020	260120	183732	23.430	12.187123	-56.117718	23.550	0.340	-0.350	-1.540	23.430	-1.800	-1.200																			1580063852.0	0.49	0.91
26/01/2020 18:37:33	26012020	260120	183733	23.300	12.187123	-56.117718	23.380	0.090	0.180	-1.110	23.260	-1.200	-0.800																			1580063853.0	0.25	0.46
26/01/2020 18:37:34	26012020	260120	183734	23.130	12.187120	-56.117718	23.230	-0.080	0.490	-0.460	23.090	-0.900	-0.200																			1580063854.0	0.67	1.24
26/01/2020 18:37:35	26012020	260120	183735	23.030	12.187117	-56.117715	23.170	-0.050	0.400	0.120	23.020	-0.900	0.400																			1580063855.0	0.88	1.63
26/01/2020 18:37:36	26012020	260120	183736	23.070	12.187117	-56.117710	23.230	0.040	0.100	0.390	23.080	-1.200	0.700																			1580063856.0	0.83	1.54
26/01/2020 18:37:37	26012020	260120	183737	23.180	12.187117	-56.117708	23.350	0.010	-0.060	0.390	23.200	-1.400	0.700																			1580063857.0	0.55	1.02
26/01/2020 18:37:38	26012020	260120	183738	23.310	12.187115	-56.117708	23.500	-0.190	-0.010	0.180	23.350	-1.400	0.500																			1580063858.0	0.16	0.30
26/01/2020 18:37:39	26012020	260120	183739	23.510	12.187115	-56.117708	23.690	-0.430	-0.040	-0.240	23.550	-1.500	-0.100																			1580063859.0	0.41	0.76
26/01/2020 18:37:40	26012020	260120	183740	23.750	12.187113	-56.117712	23.890	-0.440	-0.300	-0.670	23.750	-1.600	-0.300																			1580063860.0	0.61	1.13
26/01/2020 18:37:41	26012020	260120	183741	23.830	12.187115	-56.117715	23.970	-0.130	-0.600	-0.890	23.850	-1.900	-0.500																			1580063861.0	0.56	1.04
26/01/2020 18:37:42	26012020	260120	183742	23.830	12.187117	-56.117715	23.950	0.330	-0.680	-0.850	23.830	-2.100	-0.500																			1580063862.0	0.30	0.56
26/01/2020 18:37:43	26012020	260120	183743	23.750	12.187117	-56.117713	23.850	0.590	-0.500	-0.680	23.730	-1.900	-0.400																			1580063863.0	0.24	0.44
26/01/2020 18:37:44	26012020	260120	183744	23.650	12.187115	-56.117712	23.770	0.450	-0.150	-0.580	23.640	-1.600	-0.200																			1580063864.0	0.39	0.72
26/01/2020 18:37:45	26012020	260120	183745	23.680	12.187113	-56.117712	23.840	0.060	0.200	-0.630	23.710	-1.200	-0.300																			1580063865.0	0.27	0.50
26/01/2020 18:37:46	26012020	260120	183746	23.900	12.187113	-56.117713	24.090	-0.280	0.360	-0.740	23.950	-1.000	-0.400																			1580063866.0	0.34	0.63
26/01/2020 18:37:47	26012020	260120	183747	24.190	12.187112	-56.117715	24.380	-0.410	0.350	-0.760	24.250	-1.000	-0.400																			1580063867.0	0.25	0.46
26/01/2020 18:37:48	26012020	260120	183748	24.430	12.187112	-56.117715	24.560	-0.350	0.240	-0.590	24.430	-1.100	-0.300																			1580063868.0	0.10	0.19
26/01/2020 18:37:49	26012020	260120	183749	24.440	12.187110	-56.117713	24.570	-0.150	0.050	-0.230	24.430	-1.300	0.000																			1580063869.0	0.43	0.80
26/01/2020 18:37:50	26012020	260120	183750	24.330	12.187108	-56.117710	24.450	0.130	-0.270	0.170	24.310	-1.600	0.500																			1580063870.0	0.72	1.33
26/01/2020 18:37:51	26012020	260120	183751	24.240	12.187108	-56.117707	24.370	0.320	-0.690	0.310	24.230	-2.000	0.600																			1580063871.0	0.82	1.52
26/01/2020 18:37:52	26012020	260120	183752	24.300	12.187108	-56.117703	24.430	0.310	-0.850	0.040	24.300	-2.200	0.400																			1580063872.0	0.46	0.85
26/01/2020 18:37:53	26012020	260120	183753	24.420	12.187110	-56.117705	24.570	0.130	-0.490	-0.420	24.460	-1.500	-0.300																			1580063873.0	0.49	0.91
26/01/2020 18:37:54	26012020	260120	183754	24.580	12.187110	-56.117710	24.710	-0.080	0.200	-0.760	24.610	-1.200	-0.400																			1580063874.0	0.92	1.70
26/01/2020 18:37:55	26012020	260120	183755	24.760	12.187108	-56.117713	24.900	-0.210	0.590	-0.950	24.810	-0.800	-0.600																			1580063875.0	0.91	1.69
26/01/2020 18:37:56	26012020	260120	183756	25.140	12.187107	-56.117715	25.240	-0.220	0.340	-1.060	25.140	-1.000	-0.700																			1580063876.0	0.48	0.89
26/01/2020 18:37:57	26012020	260120	183757	25.400	12.187108	-56.117715	25.550	-0.130	-0.210	-0.960	25.440	-1.500	-0.700																			1580063877.0	0.26	0.48
26/01/2020 18:37:58	26012020	260120	183758	25.490	12.187108	-56.117710	25.600	0.000	-0.510	-0.510	25.480	-1.900	-0.300																			1580063878.0	0.77	1.43
26/01/2020 18:37:59	26012020	260120	183759	25.320	12.187108	-56.117707	25.410	0.120	-0.390	0.100	25.270	-1.800	0.400	1014.00	26.30	26.30	20.70	20.80	645.00	71.00	71.00	383.00	29.70	64.00	4.30	90.00	4.20	45575	3494.00	27.90	27.70	1580063879.0	1.00	1.85
26/01/2020 18:38:00	26012020	260120	183800	25.090	12.187105	-56.117702	25.220	0.170	-0.170	0.480	25.090	-1.500	0.800																			1580063880.0	1.11	2.06
26/01/2020 18:38:01	26012020	260120	183801	25.070	12.187102	-56.117700	25.210	0.200	-0.130	0.430	25.080	-1.500	0.800																			1580063881.0	0.72	1.33
26/01/2020 18:38:02	26012020	260120	183802	25.210	12.187102	-56.117700	25.370	0.250	-0.240	0.010	25.250	-1.600	0.400																			1580063882.0	0.05	0.09
26/01/2020 18:38:03	26012020	260120	183803	25.420	12.187105	-56.117702	25.580	0.250	-0.210	-0.490	25.460	-1.600	-0.100																			1580063883.0	0.61	1.13
26/01/2020 18:38:04	26012020	260120	183804	25.540	12.187107	-56.117705	25.630	0.050	0.100	-0.900	25.540	-1.300	-0.500																			1580063884.0	0.69	1.28
26/01/2020 18:38:05	26012020	260120	183805	25.530	12.187107	-56.117708	25.610	-0.340	0.470	-1.150	25.530	-0.800	-0.900																			1580063885.0	0.64	1.19
26/01/2020 18:38:06	26012020	260120	183806	25.540	12.187105	-56.117710	25.660	-0.670	0.530	-1.210	25.570	-0.800	-0.900																			1580063886.0	0.69	1.28
26/01/2020 18:38:07	26012020	260120	183807	25.740	12.187103	-56.117712	25.900	-0.610	0.130	-1.090	25.790	-1.600	-0.600																			1580063887.0	0.44	0.81
26/01/2020 18:38:08	26012020	260120	183808	26.040	12.187103	-56.117712	26.200	-0.150	-0.520	-0.760	26.090	-1.800	-0.500																			1580063888.0	0.24	0.44
26/01/2020 18:38:09	26012020	260120	183809	26.270	12.187103	-56.117707	26.400	0.360	-1.020	-0.300	26.300	-2.300	-0.000																			1580063889.0	1.02	1.89
26/01/2020 18:38:10	26012020	260120	183810	26.320	12.187103	-56.117700	26.420	0.540	-1.040	0.140	26.300	-2.400	0.400																			1580063890.0	1.44	2.67
26/01/2020 18:38:11	26012020	260120	183811	26.130	12.187100	-56.117695	26.190	0.340	-0.530	0.530	26.080	-2.000	0.800																			1580063891.0	1.21	2.24
26/01/2020 18:38:12	26012020	260120	183812	25.830	12.187098	-56.117692	25.940	0.090	0.110	0.650	25.830	-1.300	1.000																			1580063892.0	0.73	1.35
26/01/2020 18:38:13	26012020	260120	183813	25.770	12.187097	-56.117693	25.890	0.090	0.390	0.320	25.770	-1.000	0.700																			1580063893.0	0.47	0.87
26/01/2020 18:38:14	26012020	260120	183814	25.820	12.187097	-56.117697	25.920	0.270	0.300	-0.240	25.830	-1.000	0.100																			1580063894.0	0.63	1.17
26/01/2020 18:38:15	26012020	260120	183815	25.860	12.187100	-56.117700	25.960	0.360	0.150	-0.760	25.870	-1.200	-0.400																			1580063895.0	0.89	1.65
26/01/2020 18:38:16	26012020	260120	183816	25.890	12.187102	-56.117702	25.990	0.150	0.160	-1.120	25.900	-1.200	-0.800																			1580063896.0	0.72	1.33
26/01/2020 18:38:17	26012020	260120	183817	25.920	12.187103	-56.117703	26.000	-0.270	0.230	-1.290	25.920	-1.100	-1.000																			1580063897.0	0.36	0.67
26/01/2020 18:38:18	26012020	260120	183818	25.990	12.187102	-56.117705	26.110	-0.630	0.140	-1.330	26.030	-1.200	-1.000																			1580063898.0	0.28	0.52
26/01/2020 18:38:19	26012020	260120	183819	26.220	12.187102	-56.117705	26.390	-0.710	-0.140	-1.240	26.290	-1.500	-0.900																			1580063899.0	0.23	0.43
26/01/2020 18:38:20	26012020	260120	183820	26.530	12.187100	-56.117703	26.680	-0.560	-0.370	-0.940	26.570	-1.700	-0.700																			1580063900.0	0.36	0.67
26/01/2020 18:38:21	26012020	260120	183821	26.600	12.187098	-56.117700	26.690	-0.340	-0.340	-0.320	26.580	-1.700	-0.100																			1580063901.0	0.74	1.37
26/01/2020 18:38:22	26012020	260120	183822	26.300	12.187095	-56.117697	26.430	-0.110	-0.280	0.400	26.300	-1.600	0.600																			1580063902.0	1.08	2.00
26/01/2020 18:38:23	26012020	260120	183823	26.040	12.187092	-56.117692	26.130	0.190	-0.460	0.890	25.990	-1.800	1.200																			1580063903.0	1.05	1.94
26/01/2020 18:38:24	26012020	260120	183824	25.810	12.187092	-56.117690	25.970	0.660	-0.800	1.030	25.810	-2.100	1.400																			1580063904.0	0.64	1.19
26/01/2020 18:38:25	26012020	260120	183825	25.850	12.187093	-56.117687	26.020	1.110	-1.040	0.750	25.880	-2.400	1.100																			1580063905.0	0.56	1.04
26/01/2020 18:38:26	26012020	260120	183826	26.040	12.187095	-56.117687	26.200	1.170	-0.770	0.110	26.080	-2.200	0.500																			1580063906.0	0.62	1.15
26/01/2020 18:38:27	26012020	260120	183827	26.180	12.187098	-56.117688	26.300	0.680	0.150	-0.580	26.190	-1.300	-0.200																			1580063907.0	0.64	1.19
26/01/2020 18:38:28	26012020	260120	183828	26.160	12.187098	-56.117692	26.240	-0.160	1.270	-1.090	26.140	-0.200	-0.700																			1580063908.0	0.94	1.74
26/01/2020 18:38:29	26012020	260120	183829	26.010	12.187095	-56.117697	26.090	-0.950	1.850	-1.350	25.980	0.400	-1.000																			1580063909.0	1.15	2.13
26/01/2020 18:38:30	26012020	260120	183830	25.830	12.187093	-56.117700	25.920	-1.340	1.490	-1.360	25.810	0.200	-1.000																			1580063910.0	0.88	1.63
26/01/2020 18:38:31	26012020	260120	183831	25.820	12.187092	-56.117702	25.950	-1.190	0.290	-1.260	25.850	-0.900	-0.900																			1580063911.0	0.18	0.33
26/01/2020 18:38:32	26012020	260120	183832	26.050	12.187093	-56.117698	26.210	-0.630	-1.150	-1.180	26.100	-2.400	-0.900																			1580063912.0	0.62	1.15
26/01/2020 18:38:33	26012020	260120	183833	26.250	12.187095	-56.117695	26.350	0.000	-2.010	-0.930	26.250	-3.300	-0.700																			1580063913.0	1.00	1.85
26/01/2020 18:38:34	26012020	260120	183834	26.120	12.187097	-56.117690	26.170	0.490	-1.850	-0.360	26.050	-3.300	-0.100																			1580063914.0	0.87	1.61
26/01/2020 18:38:35	26012020	260120	183835	25.750	12.187093	-56.117687	25.810	0.800	-0.960	0.340	25.680	-2.400	0.600																			1580063915.0	0.86	1.59
26/01/2020 18:38:36	26012020	260120	183836	25.430	12.187088	-56.117685	25.510	0.930	-0.080	0.800	25.380	-1.500	1.100																			1580063916.0	1.15	2.13
26/01/2020 18:38:37	26012020	260120	183837	25.270	12.187085	-56.117683	25.380	0.760	0.390	0.730	25.260	-1.000	1.100																			1580063917.0	0.84	1.56
26/01/2020 18:38:38	26012020	260120	183838	25.280	12.187085	-56.117683	25.400	0.300	0.570	0.190	25.300	-0.800	0.600																			1580063918.0	0.13	0.24
26/01/2020 18:38:39	26012020	260120	183839	25.390	12.187088	-56.117687	25.520	-0.170	0.670	-0.460	25.420	-0.700	-0.100																			1580063919.0	1.04	1.93
26/01/2020 18:38:40	26012020	260120	183840	25.560	12.187092	-56.117692	25.650	-0.370	0.610	-0.880	25.560	-0.700	-0.500																			1580063920.0	1.16	2.15
26/01/2020 18:38:41	26012020	260120	183841	25.650	12.187092	-56.117695	25.760	-0.300	0.270	-0.960	25.660	-1.000	-0.600																			1580063921.0	0.52	0.96
26/01/2020 18:38:42	26012020	260120	183842	25.650	12.187093	-56.117693	25.770	-0.190	-0.190	-0.750	25.650	-1.500	-0.500																			1580063922.0	0.36	0.67
26/01/2020 18:38:43	26012020	260120	183843	25.570	12.187092	-56.117688	25.650	-0.220	-0.410	-0.390	25.530	-1.800	-0.100																			1580063923.0	0.90	1.67
26/01/2020 18:38:44	26012020	260120	183844	25.350	12.187090	-56.117683	25.420	-0.360	-0.270	-0.020	25.290	-1.600	0.300																			1580063924.0	1.05	1.94
26/01/2020 18:38:45	26012020	260120	183845	25.040	12.187087	-56.117682	25.110	-0.430	-0.060	0.280	24.980	-1.400	0.600																			1580063925.0	0.92	1.70
26/01/2020 18:38:46	26012020	260120	183846	24.720	12.187083	-56.117682	24.850	-0.290	-0.140	0.280	24.720	-1.500	0.600																			1580063926.0	0.59	1.09
26/01/2020 18:38:47	26012020	260120	183847	24.620	12.187083	-56.117683	24.720	0.040	-0.490	-0.020	24.600	-1.800	0.300																			1580063927.0	0.32	0.59
26/01/2020 18:38:48	26012020	260120	183848	24.610	12.187085	-56.117685	24.710	0.420	-0.820	-0.450	24.610	-2.100	-0.100																			1580063928.0	0.75	1.39
26/01/2020 18:38:49	26012020	260120	183849	24.700	12.187088	-56.117688	24.820	0.680	-0.890	-0.790	24.740	-2.300	-0.400																			1580063929.0	0.87	1.61
26/01/2020 18:38:50	26012020	260120	183850	24.910	12.187092	-56.117688	25.020	0.740	-0.600	-0.900	24.950	-2.000	-0.600																			1580063930.0	0.53	0.98
26/01/2020 18:38:51	26012020	260120	183851	25.090	12.187092	-56.117688	25.180	0.570	-0.060	-0.740	25.100	-1.500	-0.400																			1580063931.0	0.13	0.24
26/01/2020 18:38:52	26012020	260120	183852	25.090	12.187090	-56.117687	25.150	0.210	0.540	-0.320	25.050	-0.900	-0.100																			1580063932.0	0.65	1.20
26/01/2020 18:38:53	26012020	260120	183853	24.860	12.187087	-56.117683	24.910	-0.220	0.930	0.230	24.800	-0.500	0.500																			1580063933.0	0.88	1.63
26/01/2020 18:38:54	26012020	260120	183854	24.500	12.187083	-56.117680	24.630	-0.550	0.940	0.640	24.500	-0.400	0.900																			1580063934.0	0.82	1.52
26/01/2020 18:38:55	26012020	260120	183855	24.300	12.187083	-56.117678	24.380	-0.630	0.530	0.710	24.260	-1.200	0.900																			1580063935.0	0.46	0.85
26/01/2020 18:38:56	26012020	260120	183856	24.150	12.187083	-56.117678	24.260	-0.450	-0.150	0.460	24.140	-1.400	0.800																			1580063936.0	0.10	0.19
26/01/2020 18:38:57	26012020	260120	183857	24.180	12.187085	-56.117678	24.310	-0.150	-0.810	0.040	24.200	-2.100	0.400																			1580063937.0	0.44	0.81
26/01/2020 18:38:58	26012020	260120	183858	24.330	12.187087	-56.117680	24.470	0.100	-1.060	-0.390	24.360	-2.400	-0.000																			1580063938.0	0.56	1.04
26/01/2020 18:38:59	26012020	260120	183859	24.410	12.187088	-56.117682	24.500	0.180	-0.780	-0.640	24.400	-2.200	-0.300	1014.00	26.20	26.30	20.70	20.70	664.00	71.00	71.00	382.00	29.70	70.00	4.30	100.00	4.20	46165	3453.00	27.80	27.60	1580063939.0	0.32	0.59
26/01/2020 18:39:00	26012020	260120	183900	24.280	12.187087	-56.117682	24.320	0.130	-0.280	-0.680	24.240	-1.700	-0.400																			1580063940.0	0.32	0.59
26/01/2020 18:39:01	26012020	260120	183901	24.040	12.187085	-56.117683	24.100	0.070	0.030	-0.590	24.000	-1.300	-0.300																			1580063941.0	0.47	0.87
26/01/2020 18:39:02	26012020	260120	183902	23.900	12.187083	-56.117682	24.000	0.110	-0.040	-0.580	23.900	-1.400	-0.300																			1580063942.0	0.26	0.48
26/01/2020 18:39:03	26012020	260120	183903	23.930	12.187085	-56.117682	24.050	0.250	-0.280	-0.690	23.940	-1.600	-0.400																			1580063943.0	0.24	0.44
26/01/2020 18:39:04	26012020	260120	183904	24.020	12.187087	-56.117682	24.150	0.420	-0.350	-0.670	24.040	-1.700	-0.400																			1580063944.0	0.56	1.04
26/01/2020 18:39:05	26012020	260120	183905	24.090	12.187088	-56.117682	24.200	0.490	-0.110	-0.410	24.090	-1.500	-0.100																			1580063945.0	0.38	0.70
26/01/2020 18:39:06	26012020	260120	183906	24.070	12.187088	-56.117680	24.180	0.360	0.310	0.020	24.050	-1.100	0.300																			1580063946.0	0.34	0.63
26/01/2020 18:39:07	26012020	260120	183907	23.970	12.187087	-56.117678	24.080	0.040	0.610	0.440	23.950	-0.800	0.700																			1580063947.0	0.77	1.43
26/01/2020 18:39:08	26012020	260120	183908	23.850	12.187083	-56.117675	23.960	-0.340	0.530	0.740	23.820	-0.800	1.000																			1580063948.0	0.88	1.63
26/01/2020 18:39:09	26012020	260120	183909	23.680	12.187082	-56.117672	23.790	-0.620	0.150	0.860	23.650	-1.200	1.200																			1580063949.0	0.63	1.17
26/01/2020 18:39:10	26012020	260120	183910	23.560	12.187082	-56.117672	23.690	-0.730	-0.280	0.620	23.550	-1.600	1.000																			1580063950.0	0.30	0.56
26/01/2020 18:39:11	26012020	260120	183911	23.540	12.187083	-56.117672	23.680	-0.610	-0.550	0.100	23.550	-1.900	0.500																			1580063951.0	0.34	0.63
26/01/2020 18:39:12	26012020	260120	183912	23.600	12.187085	-56.117675	23.730	-0.310	-0.610	-0.440	23.610	-2.000	-0.100																			1580063952.0	0.66	1.22
26/01/2020 18:39:13	26012020	260120	183913	23.660	12.187085	-56.117678	23.780	0.070	-0.520	-0.880	23.670	-1.900	-0.500																			1580063953.0	0.73	1.35
26/01/2020 18:39:14	26012020	260120	183914	23.650	12.187085	-56.117680	23.740	0.450	-0.400	-1.080	23.640	-1.800	-0.700																			1580063954.0	0.58	1.07
26/01/2020 18:39:15	26012020	260120	183915	23.590	12.187087	-56.117682	23.690	0.740	-0.400	-1.020	23.590	-1.700	-0.700																			1580063955.0	0.20	0.37
26/01/2020 18:39:16	26012020	260120	183916	23.620	12.187087	-56.117680	23.740	0.850	-0.540	-0.860	23.630	-1.900	-0.600																			1580063956.0	0.31	0.57
26/01/2020 18:39:17	26012020	260120	183917	23.700	12.187088	-56.117678	23.820	0.710	-0.470	-0.650	23.710	-1.800	-0.400																			1580063957.0	0.62	1.15
26/01/2020 18:39:18	26012020	260120	183918	23.710	12.187088	-56.117675	23.820	0.370	0.010	-0.280	23.700	-1.400	0.000																			1580063958.0	0.50	0.93
26/01/2020 18:39:19	26012020	260120	183919	23.650	12.187087	-56.117673	23.760	-0.070	0.630	0.140	23.640	-0.800	0.400																			1580063959.0	0.44	0.81
26/01/2020 18:39:20	26012020	260120	183920	23.590	12.187085	-56.117672	23.710	-0.480	1.010	0.450	23.580	-0.400	0.700																			1580063960.0	0.59	1.09
26/01/2020 18:39:21	26012020	260120	183921	23.530	12.187083	-56.117672	23.650	-0.780	0.910	0.620	23.520	-0.700	1.000																			1580063961.0	0.48	0.89
26/01/2020 18:39:22	26012020	260120	183922	23.520	12.187082	-56.117670	23.660	-0.880	0.410	0.610	23.520	-0.900	0.900																			1580063962.0	0.23	0.43
26/01/2020 18:39:23	26012020	260120	183923	23.590	12.187082	-56.117670	23.750	-0.750	-0.260	0.460	23.620	-1.500	0.800																			1580063963.0	0.16	0.30
26/01/2020 18:39:24	26012020	260120	183924	23.740	12.187083	-56.117670	23.900	-0.420	-0.830	0.180	23.770	-2.100	0.500																			1580063964.0	0.22	0.41
26/01/2020 18:39:25	26012020	260120	183925	23.870	12.187083	-56.117668	23.980	-0.030	-1.110	-0.170	23.880	-2.500	0.200																			1580063965.0	0.20	0.37
26/01/2020 18:39:26	26012020	260120	183926	23.830	12.187083	-56.117668	23.890	0.290	-1.010	-0.420	23.800	-2.400	-0.100																			1580063966.0	0.06	0.11
26/01/2020 18:39:27	26012020	260120	183927	23.590	12.187083	-56.117668	23.610	0.550	-0.690	-0.550	23.530	-2.100	-0.200																			1580063967.0	0.18	0.33
26/01/2020 18:39:28	26012020	260120	183928	23.330	12.187083	-56.117672	23.420	0.780	-0.470	-0.720	23.330	-1.800	-0.400																			1580063968.0	0.39	0.72
26/01/2020 18:39:29	26012020	260120	183929	23.350	12.187085	-56.117673	23.460	0.930	-0.350	-1.010	23.380	-1.700	-0.600																			1580063969.0	0.66	1.22
26/01/2020 18:39:30	26012020	260120	183930	23.560	12.187088	-56.117675	23.690	0.820	-0.010	-1.160	23.620	-1.400	-0.800																			1580063970.0	0.84	1.56
26/01/2020 18:39:31	26012020	260120	183931	23.820	12.187090	-56.117677	23.950	0.350	0.620	-0.940	23.870	-0.800	-0.700																			1580063971.0	0.39	0.72
26/01/2020 18:39:32	26012020	260120	183932	24.020	12.187088	-56.117675	24.140	-0.360	1.190	-0.340	24.040	-0.200	-0.100																			1580063972.0	0.52	0.96
26/01/2020 18:39:33	26012020	260120	183933	24.070	12.187083	-56.117672	24.190	-1.010	1.330	0.450	24.070	-0.000	0.700																			1580063973.0	1.26	2.33
26/01/2020 18:39:34	26012020	260120	183934	24.020	12.187080	-56.117665	24.150	-1.270	0.700	1.030	24.020	-0.600	1.300																			1580063974.0	1.52	2.82
26/01/2020 18:39:35	26012020	260120	183935	23.960	12.187078	-56.117660	24.070	-0.980	-0.460	1.240	23.940	-1.700	1.600																			1580063975.0	1.14	2.11
26/01/2020 18:39:36	26012020	260120	183936	23.820	12.187080	-56.117657	23.950	-0.310	-1.470	1.190	23.820	-2.700	1.500																			1580063976.0	0.80	1.48
26/01/2020 18:39:37	26012020	260120	183937	23.730	12.187083	-56.117657	23.840	0.400	-1.710	1.000	23.700	-3.100	1.400																			1580063977.0	0.69	1.28
26/01/2020 18:39:38	26012020	260120	183938	23.660	12.187083	-56.117657	23.790	0.800	-1.100	0.580	23.650	-2.500	1.000																			1580063978.0	0.39	0.72
26/01/2020 18:39:39	26012020	260120	183939	23.640	12.187083	-56.117660	23.750	0.730	-0.090	-0.030	23.630	-1.600	0.400																			1580063979.0	0.70	1.30
26/01/2020 18:39:40	26012020	260120	183940	23.580	12.187082	-56.117665	23.680	0.290	0.710	-0.640	23.580	-0.700	-0.200																			1580063980.0	1.01	1.87
26/01/2020 18:39:41	26012020	260120	183941	23.580	12.187080	-56.117670	23.690	-0.210	0.800	-1.180	23.600	-0.500	-0.800																			1580063981.0	1.01	1.87
26/01/2020 18:39:42	26012020	260120	183942	23.780	12.187082	-56.117673	23.940	-0.350	0.160	-1.660	23.850	-1.100	-1.300																			1580063982.0	1.01	1.87
26/01/2020 18:39:43	26012020	260120	183943	24.150	12.187087	-56.117677	24.310	-0.040	-0.620	-1.770	24.230	-1.900	-1.400																			1580063983.0	1.11	2.06
26/01/2020 18:39:44	26012020	260120	183944	24.440	12.187090	-56.117675	24.560	0.390	-0.820	-1.270	24.470	-2.200	-1.000																			1580063984.0	0.92	1.70
26/01/2020 18:39:45	26012020	260120	183945	24.430	12.187090	-56.117668	24.500	0.480	-0.330	-0.280	24.400	-1.300	0.600																			1580063985.0	1.29	2.39
26/01/2020 18:39:46	26012020	260120	183946	24.020	12.187085	-56.117660	24.150	0.090	0.420	0.770	24.020	-1.000	1.000																			1580063986.0	1.93	3.57
26/01/2020 18:39:47	26012020	260120	183947	23.600	12.187078	-56.117655	23.660	-0.490	0.870	1.500	23.510	-0.500	1.800																			1580063987.0	1.77	3.28
26/01/2020 18:39:48	26012020	260120	183948	23.180	12.187075	-56.117653	23.340	-0.790	0.670	1.580	23.180	-0.600	1.900																			1580063988.0	0.86	1.59
26/01/2020 18:39:49	26012020	260120	183949	23.240	12.187077	-56.117655	23.430	-0.580	-0.140	0.870	23.290	-1.400	1.300																			1580063989.0	0.51	0.94
26/01/2020 18:39:50	26012020	260120	183950	23.610	12.187082	-56.117660	23.810	-0.000	-0.940	-0.210	23.700	-2.200	0.200																			1580063990.0	1.54	2.85
26/01/2020 18:39:51	26012020	260120	183951	23.990	12.187087	-56.117667	24.130	0.500	-1.130	-0.960	24.040	-2.500	-0.600																			1580063991.0	1.63	3.02
26/01/2020 18:39:52	26012020	260120	183952	24.120	12.187088	-56.117668	24.210	0.580	-0.720	-1.110	24.120	-2.100	-0.800																			1580063992.0	0.72	1.33
26/01/2020 18:39:53	26012020	260120	183953	24.020	12.187087	-56.117668	24.060	0.250	-0.130	-0.850	23.970	-1.600	-0.600																			1580063993.0	0.38	0.70
26/01/2020 18:39:54	26012020	260120	183954	23.740	12.187083	-56.117667	23.770	-0.190	0.320	-0.430	23.680	-1.100	-0.100																			1580063994.0	0.82	1.52
26/01/2020 18:39:55	26012020	260120	183955	23.430	12.187082	-56.117663	23.490	-0.410	0.460	-0.150	23.380	-0.900	0.200																			1580063995.0	0.69	1.28
26/01/2020 18:39:56	26012020	260120	183956	23.260	12.187080	-56.117663	23.360	-0.260	0.210	-0.120	23.250	-1.100	0.200																			1580063996.0	0.19	0.35
26/01/2020 18:39:57	26012020	260120	183957	23.320	12.187082	-56.117663	23.450	0.120	-0.240	-0.270	23.360	-1.600	0.100																			1580063997.0	0.36	0.67
26/01/2020 18:39:58	26012020	260120	183958	23.470	12.187085	-56.117665	23.590	0.440	-0.480	-0.310	23.490	-1.800	0.000																			1580063998.0	0.62	1.15
26/01/2020 18:39:59	26012020	260120	183959	23.470	12.187087	-56.117665	23.550	0.450	-0.240	-0.060	23.440	-1.600	0.200	1014.00	26.30	26.30	20.80	20.80	665.00	72.00	71.00	382.00	29.80	72.00	3.80	100.00	3.70	46099	3482.00	27.80	27.70	1580063999.0	0.38	0.70
26/01/2020 18:40:00	26012020	260120	184000	23.300	12.187085	-56.117663	23.370	0.150	0.140	0.270	23.260	-1.300	0.600																			1580064000.0	0.33	0.61
26/01/2020 18:40:01	26012020	260120	184001	23.160	12.187083	-56.117662	23.270	-0.310	0.220	0.330	23.160	-1.100	0.700																			1580064001.0	0.61	1.13
26/01/2020 18:40:02	26012020	260120	184002	23.190	12.187083	-56.117662	23.300	-0.620	0.010	0.180	23.200	-1.300	0.500																			1580064002.0	0.19	0.35
26/01/2020 18:40:03	26012020	260120	184003	23.230	12.187083	-56.117662	23.330	-0.600	-0.120	0.090	23.220	-1.500	0.400																			1580064003.0	0.29	0.54
26/01/2020 18:40:04	26012020	260120	184004	23.200	12.187085	-56.117663	23.300	-0.230	-0.160	0.100	23.190	-1.500	0.400																			1580064004.0	0.18	0.33
26/01/2020 18:40:05	26012020	260120	184005	23.140	12.187083	-56.117662	23.230	0.240	-0.370	0.040	23.130	-1.700	0.400																			1580064005.0	0.17	0.31
26/01/2020 18:40:06	26012020	260120	184006	23.020	12.187083	-56.117660	23.090	0.530	-0.650	-0.110	22.990	-2.000	0.200																			1580064006.0	0.30	0.56
26/01/2020 18:40:07	26012020	260120	184007	22.820	12.187085	-56.117660	22.870	0.480	-0.580	-0.240	22.780	-2.000	0.100																			1580064007.0	0.38	0.70
26/01/2020 18:40:08	26012020	260120	184008	22.610	12.187087	-56.117662	22.660	0.220	-0.130	-0.350	22.580	-1.500	0.000																			1580064008.0	0.30	0.56
26/01/2020 18:40:09	26012020	260120	184009	22.470	12.187087	-56.117663	22.530	-0.030	0.330	-0.500	22.450	-0.900	-0.300																			1580064009.0	0.55	1.02
26/01/2020 18:40:10	26012020	260120	184010	22.450	12.187087	-56.117667	22.540	-0.160	0.450	-0.740	22.460	-0.900	-0.400																			1580064010.0	0.68	1.26
26/01/2020 18:40:11	26012020	260120	184011	22.580	12.187087	-56.117670	22.710	-0.190	0.230	-0.920	22.630	-1.100	-0.600																			1580064011.0	0.65	1.20
26/01/2020 18:40:12	26012020	260120	184012	22.820	12.187088	-56.117672	22.950	-0.190	-0.090	-0.870	22.870	-1.400	-0.600																			1580064012.0	0.46	0.85
26/01/2020 18:40:13	26012020	260120	184013	23.010	12.187090	-56.117670	23.120	-0.230	-0.290	-0.480	23.030	-1.600	-0.200																			1580064013.0	0.35	0.65
26/01/2020 18:40:14	26012020	260120	184014	23.030	12.187088	-56.117665	23.120	-0.270	-0.310	0.150	23.020	-1.700	0.400																			1580064014.0	0.84	1.56
26/01/2020 18:40:15	26012020	260120	184015	22.900	12.187087	-56.117660	22.960	-0.210	-0.210	0.750	22.850	-1.600	1.000																			1580064015.0	1.22	2.26
26/01/2020 18:40:16	26012020	260120	184016	22.590	12.187083	-56.117657	22.630	-0.060	-0.130	1.170	22.520	-1.500	1.500																			1580064016.0	1.13	2.09
26/01/2020 18:40:17	26012020	260120	184017	22.240	12.187082	-56.117653	22.300	0.150	-0.260	1.190	22.180	-1.600	1.500																			1580064017.0	0.57	1.06
26/01/2020 18:40:18	26012020	260120	184018	22.050	12.187083	-56.117655	22.150	0.380	-0.490	0.690	22.040	-1.800	1.100																			1580064018.0	0.36	0.67
26/01/2020 18:40:19	26012020	260120	184019	22.080	12.187087	-56.117660	22.200	0.570	-0.540	-0.120	22.110	-1.900	0.300																			1580064019.0	1.21	2.24
26/01/2020 18:40:20	26012020	260120	184020	22.300	12.187090	-56.117665	22.450	0.580	-0.270	-0.940	22.370	-1.700	-0.500																			1580064020.0	1.38	2.56
26/01/2020 18:40:21	26012020	260120	184021	22.660	12.187092	-56.117668	22.790	0.220	0.240	-1.530	22.730	-1.200	-1.100																			1580064021.0	0.94	1.74
26/01/2020 18:40:22	26012020	260120	184022	22.960	12.187092	-56.117672	23.020	-0.440	0.740	-1.680	22.960	-0.700	-1.300																			1580064022.0	0.54	1.00
26/01/2020 18:40:23	26012020	260120	184023	22.950	12.187090	-56.117672	22.980	-1.010	0.890	-1.370	22.920	-0.600	-0.700																			1580064023.0	0.52	0.96
26/01/2020 18:40:24	26012020	260120	184024	22.770	12.187087	-56.117672	22.810	-1.050	0.440	-0.780	22.730	-0.800	-0.500																			1580064024.0	0.44	0.81
26/01/2020 18:40:25	26012020	260120	184025	22.650	12.187087	-56.117670	22.750	-0.450	-0.530	-0.180	22.650	-1.800	0.100																			1580064025.0	0.48	0.89
26/01/2020 18:40:26	26012020	260120	184026	22.760	12.187088	-56.117665	22.870	0.420	-1.430	0.340	22.760	-2.700	0.600																			1580064026.0	0.97	1.80
26/01/2020 18:40:27	26012020	260120	184027	22.880	12.187092	-56.117660	23.020	0.950	-1.480	0.800	22.900	-2.900	1.100																			1580064027.0	1.21	2.24
26/01/2020 18:40:28	26012020	260120	184028	22.910	12.187090	-56.117655	23.010	0.810	-0.600	1.090	22.890	-2.100	1.400																			1580064028.0	1.01	1.87
26/01/2020 18:40:29	26012020	260120	184029	22.770	12.187087	-56.117655	22.870	0.220	0.460	1.020	22.750	-1.000	1.400																			1580064029.0	0.92	1.70
26/01/2020 18:40:30	26012020	260120	184030	22.660	12.187083	-56.117657	22.780	-0.280	0.900	0.510	22.660	-0.500	0.900																			1580064030.0	0.89	1.65
26/01/2020 18:40:31	26012020	260120	184031	22.690	12.187083	-56.117662	22.810	-0.370	0.620	-0.300	22.710	-0.700	0.100																			1580064031.0	1.00	1.85
26/01/2020 18:40:32	26012020	260120	184032	22.800	12.187087	-56.117667	22.920	-0.150	0.070	-1.060	22.830	-1.200	-0.700																			1580064032.0	1.42	2.63
26/01/2020 18:40:33	26012020	260120	184033	22.980	12.187092	-56.117670	23.100	0.070	-0.320	-1.570	23.020	-1.700	-1.200																			1580064033.0	1.34	2.48
26/01/2020 18:40:34	26012020	260120	184034	23.190	12.187095	-56.117673	23.300	0.060	-0.420	-1.730	23.230	-1.800	-1.400																			1580064034.0	0.73	1.35
26/01/2020 18:40:35	26012020	260120	184035	23.290	12.187095	-56.117673	23.380	-0.150	-0.240	-1.490	23.290	-1.500	-0.900																			1580064035.0	0.02	0.04
26/01/2020 18:40:36	26012020	260120	184036	23.260	12.187092	-56.117672	23.350	-0.370	-0.020	-0.920	23.250	-1.400	-0.700																			1580064036.0	0.56	1.04
26/01/2020 18:40:37	26012020	260120	184037	23.250	12.187090	-56.117668	23.370	-0.380	0.020	-0.280	23.260	-1.400	0.300																			1580064037.0	0.85	1.57
26/01/2020 18:40:38	26012020	260120	184038	23.320	12.187087	-56.117665	23.450	-0.160	-0.150	0.240	23.340	-1.500	0.500																			1580064038.0	0.81	1.50
26/01/2020 18:40:39	26012020	260120	184039	23.380	12.187087	-56.117663	23.510	0.150	-0.400	0.630	23.380	-1.700	0.900																			1580064039.0	0.60	1.11
26/01/2020 18:40:40	26012020	260120	184040	23.350	12.187087	-56.117662	23.480	0.420	-0.510	0.930	23.350	-1.900	1.200																			1580064040.0	0.45	0.83
26/01/2020 18:40:41	26012020	260120	184041	23.330	12.187087	-56.117660	23.460	0.560	-0.380	1.100	23.330	-1.800	1.400																			1580064041.0	0.35	0.65
26/01/2020 18:40:42	26012020	260120	184042	23.350	12.187087	-56.117658	23.470	0.510	-0.200	1.010	23.350	-1.600	1.400																			1580064042.0	0.34	0.63
26/01/2020 18:40:43	26012020	260120	184043	23.400	12.187087	-56.117657	23.530	0.250	-0.070	0.520	23.420	-1.400	0.900																			1580064043.0	0.13	0.24
26/01/2020 18:40:44	26012020	260120	184044	23.550	12.187088	-56.117660	23.690	-0.120	0.080	-0.250	23.590	-1.300	0.200																			1580064044.0	0.45	0.83
26/01/2020 18:40:45	26012020	260120	184045	23.670	12.187090	-56.117663	23.740	-0.460	0.370	-0.900	23.680	-1.000	-0.500																			1580064045.0	0.94	1.74
26/01/2020 18:40:46	26012020	260120	184046	23.620	12.187090	-56.117668	23.640	-0.660	0.640	-1.230	23.580	-0.700	-0.900																			1580064046.0	1.00	1.85
26/01/2020 18:40:47	26012020	260120	184047	23.460	12.187090	-56.117672	23.510	-0.580	0.520	-1.330	23.440	-1.200	-1.000																			1580064047.0	0.80	1.48
26/01/2020 18:40:48	26012020	260120	184048	23.430	12.187090	-56.117673	23.510	-0.230	-0.150	-1.330	23.430	-1.400	-1.000																			1580064048.0	0.37	0.69
26/01/2020 18:40:49	26012020	260120	184049	23.600	12.187092	-56.117673	23.740	0.220	-1.000	-1.230	23.660	-2.300	-0.900																			1580064049.0	0.39	0.72
26/01/2020 18:40:50	26012020	260120	184050	23.930	12.187093	-56.117670	24.060	0.520	-1.320	-0.960	23.980	-2.700	-0.700																			1580064050.0	0.75	1.39
26/01/2020 18:40:51	26012020	260120	184051	24.110	12.187093	-56.117667	24.200	0.520	-0.780	-0.380	24.110	-2.200	-0.100																			1580064051.0	0.69	1.28
26/01/2020 18:40:52	26012020	260120	184052	23.940	12.187090	-56.117663	24.040	0.280	0.160	0.400	23.940	-1.300	0.600																			1580064052.0	0.93	1.72
26/01/2020 18:40:53	26012020	260120	184053	23.730	12.187087	-56.117662	23.800	-0.010	0.690	1.000	23.690	-0.700	1.300																			1580064053.0	1.15	2.13
26/01/2020 18:40:54	26012020	260120	184054	23.590	12.187083	-56.117660	23.720	-0.130	0.480	1.170	23.590	-0.800	1.500																			1580064054.0	0.68	1.26
26/01/2020 18:40:55	26012020	260120	184055	23.680	12.187083	-56.117660	23.850	-0.120	-0.110	0.880	23.720	-1.400	1.300																			1580064055.0	0.32	0.59
26/01/2020 18:40:56	26012020	260120	184056	23.880	12.187087	-56.117660	24.050	-0.110	-0.460	0.350	23.920	-1.800	0.700																			1580064056.0	0.71	1.31
26/01/2020 18:40:57	26012020	260120	184057	24.010	12.187090	-56.117662	24.110	-0.150	-0.300	-0.140	24.010	-1.700	0.200																			1580064057.0	0.70	1.30
26/01/2020 18:40:58	26012020	260120	184058	23.900	12.187090	-56.117663	24.000	-0.170	0.110	-0.410	23.900	-1.300	-0.100																			1580064058.0	0.63	1.17
26/01/2020 18:40:59	26012020	260120	184059	23.810	12.187090	-56.117667	23.910	-0.080	0.240	-0.660	23.810	-1.200	-0.500	1014.00	26.30	26.30	21.00	21.00	658.00	72.00	72.00	383.00	29.90	62.00	3.60	89.00	3.50	45705	3427.00	27.80	27.80	1580064059.0	0.63	1.17
26/01/2020 18:41:00	26012020	260120	184100	23.830	12.187088	-56.117668	23.940	0.020	-0.020	-0.960	23.850	-1.400	-0.600																			1580064060.0	0.34	0.63
26/01/2020 18:41:01	26012020	260120	184101	23.940	12.187090	-56.117668	24.050	0.030	-0.310	-1.150	23.970	-1.700	-0.800																			1580064061.0	0.32	0.59
26/01/2020 18:41:02	26012020	260120	184102	24.080	12.187092	-56.117670	24.190	-0.070	-0.380	-1.180	24.120	-1.800	-0.900																			1580064062.0	0.27	0.50
26/01/2020 18:41:03	26012020	260120	184103	24.260	12.187092	-56.117670	24.370	-0.120	-0.280	-1.070	24.290	-1.700	-0.800																			1580064063.0	0.08	0.15
26/01/2020 18:41:04	26012020	260120	184104	24.380	12.187090	-56.117670	24.480	0.000	-0.200	-0.690	24.390	-1.600	-0.400																			1580064064.0	0.21	0.39
26/01/2020 18:41:05	26012020	260120	184105	24.380	12.187090	-56.117667	24.480	0.220	-0.260	-0.150	24.370	-1.600	0.100																			1580064065.0	0.50	0.93
26/01/2020 18:41:06	26012020	260120	184106	24.240	12.187088	-56.117663	24.310	0.380	-0.300	0.470	24.190	-1.700	0.700																			1580064066.0	0.70	1.30
26/01/2020 18:41:07	26012020	260120	184107	23.990	12.187088	-56.117662	24.100	0.380	-0.190	0.960	23.950	-1.600	1.200																			1580064067.0	0.68	1.26
26/01/2020 18:41:08	26012020	260120	184108	23.910	12.187087	-56.117658	24.060	0.260	-0.120	1.000	23.920	-1.500	1.300																			1580064068.0	0.48	0.89
26/01/2020 18:41:09	26012020	260120	184109	24.100	12.187088	-56.117658	24.300	0.090	-0.120	0.580	24.160	-1.500	1.000																			1580064069.0	0.07	0.13
26/01/2020 18:41:10	26012020	260120	184110	24.400	12.187090	-56.117660	24.590	-0.120	0.040	0.030	24.450	-1.400	0.400																			1580064070.0	0.51	0.94
26/01/2020 18:41:11	26012020	260120	184111	24.590	12.187090	-56.117663	24.730	-0.380	0.360	-0.390	24.600	-1.000	-0.000																			1580064071.0	0.61	1.13
26/01/2020 18:41:12	26012020	260120	184112	24.590	12.187090	-56.117665	24.690	-0.630	0.610	-0.600	24.570	-0.800	-0.300																			1580064072.0	0.52	0.96
26/01/2020 18:41:13	26012020	260120	184113	24.440	12.187088	-56.117667	24.510	-0.730	0.590	-0.650	24.410	-0.800	-0.300																			1580064073.0	0.46	0.85
26/01/2020 18:41:14	26012020	260120	184114	24.290	12.187087	-56.117668	24.380	-0.520	0.160	-0.650	24.270	-1.100	-0.300																			1580064074.0	0.34	0.63
26/01/2020 18:41:15	26012020	260120	184115	24.300	12.187087	-56.117667	24.430	-0.030	-0.670	-0.700	24.320	-1.900	-0.400																			1580064075.0	0.15	0.28
26/01/2020 18:41:16	26012020	260120	184116	24.480	12.187088	-56.117667	24.620	0.510	-1.470	-0.850	24.520	-2.800	-0.500																			1580064076.0	0.48	0.89
26/01/2020 18:41:17	26012020	260120	184117	24.650	12.187092	-56.117665	24.760	0.820	-1.590	-0.900	24.660	-3.000	-0.600																			1580064077.0	0.70	1.30
26/01/2020 18:41:18	26012020	260120	184118	24.620	12.187093	-56.117665	24.690	0.790	-0.850	-0.660	24.590	-2.300	-0.400																			1580064078.0	0.36	0.67
26/01/2020 18:41:19	26012020	260120	184119	24.430	12.187092	-56.117665	24.510	0.540	0.260	-0.230	24.390	-1.200	0.000																			1580064079.0	0.35	0.65
26/01/2020 18:41:20	26012020	260120	184120	24.310	12.187088	-56.117667	24.430	0.250	0.930	0.150	24.310	-0.500	0.400																			1580064080.0	0.73	1.35
26/01/2020 18:41:21	26012020	260120	184121	24.420	12.187087	-56.117665	24.590	-0.030	0.860	0.310	24.470	-0.500	0.600																			1580064081.0	0.53	0.98
26/01/2020 18:41:22	26012020	260120	184122	24.680	12.187087	-56.117663	24.850	-0.330	0.440	0.360	24.720	-0.900	0.700																			1580064082.0	0.44	0.81
26/01/2020 18:41:23	26012020	260120	184123	24.860	12.187088	-56.117662	24.990	-0.600	0.140	0.390	24.870	-1.200	0.700																			1580064083.0	0.54	1.00
26/01/2020 18:41:24	26012020	260120	184124	24.860	12.187088	-56.117660	24.960	-0.710	0.050	0.440	24.840	-1.300	0.800																			1580064084.0	0.30	0.56
26/01/2020 18:41:25	26012020	260120	184125	24.690	12.187087	-56.117658	24.740	-0.590	-0.060	0.450	24.630	-1.400	0.800																			1580064085.0	0.35	0.65
26/01/2020 18:41:26	26012020	260120	184126	24.390	12.187085	-56.117658	24.430	-0.280	-0.300	0.350	24.330	-1.600	0.700																			1580064086.0	0.26	0.48
26/01/2020 18:41:27	26012020	260120	184127	24.140	12.187085	-56.117660	24.210	0.120	-0.610	0.030	24.120	-1.900	0.400																			1580064087.0	0.21	0.39
26/01/2020 18:41:28	26012020	260120	184128	24.140	12.187087	-56.117662	24.270	0.450	-0.830	-0.570	24.180	-2.200	-0.200																			1580064088.0	0.51	0.94
26/01/2020 18:41:29	26012020	260120	184129	24.400	12.187088	-56.117665	24.520	0.560	-0.790	-1.280	24.460	-2.200	-0.900																			1580064089.0	0.88	1.63
26/01/2020 18:41:30	26012020	260120	184130	24.680	12.187092	-56.117670	24.790	0.470	-0.450	-1.740	24.730	-1.900	-1.400																			1580064090.0	1.06	1.96
26/01/2020 18:41:31	26012020	260120	184131	24.870	12.187092	-56.117673	24.960	0.270	-0.060	-1.730	24.890	-1.500	-1.400																			1580064091.0	0.74	1.37
26/01/2020 18:41:32	26012020	260120	184132	24.920	12.187092	-56.117673	24.990	0.060	0.250	-1.190	24.910	-1.100	-0.900																			1580064092.0	0.16	0.30
26/01/2020 18:41:33	26012020	260120	184133	24.820	12.187090	-56.117672	24.900	-0.030	0.370	-0.210	24.800	-1.000	-0.000																			1580064093.0	0.63	1.17
26/01/2020 18:41:34	26012020	260120	184134	24.730	12.187088	-56.117665	24.850	0.030	0.230	0.830	24.730	-1.100	1.000																			1580064094.0	1.31	2.43
26/01/2020 18:41:35	26012020	260120	184135	24.710	12.187085	-56.117658	24.820	0.100	0.020	1.560	24.690	-1.300	1.800																			1580064095.0	1.73	3.20
26/01/2020 18:41:36	26012020	260120	184136	24.590	12.187083	-56.117650	24.690	-0.000	-0.010	1.880	24.540	-1.400	2.200																			1580064096.0	1.54	2.85
26/01/2020 18:41:37	26012020	260120	184137	24.330	12.187082	-56.117648	24.430	-0.280	0.060	1.650	24.280	-1.300	1.600																			1580064097.0	0.74	1.37
26/01/2020 18:41:38	26012020	260120	184138	24.110	12.187082	-56.117650	24.230	-0.480	-0.030	0.850	24.090	-1.400	1.300																			1580064098.0	0.53	0.98
26/01/2020 18:41:39	26012020	260120	184139	24.110	12.187085	-56.117657	24.250	-0.350	-0.300	-0.340	24.140	-1.600	0.100																			1580064099.0	1.60	2.96
26/01/2020 18:41:40	26012020	260120	184140	24.380	12.187090	-56.117667	24.510	0.040	-0.530	-1.530	24.440	-1.900	-1.100																			1580064100.0	2.07	3.83
26/01/2020 18:41:41	26012020	260120	184141	24.720	12.187093	-56.117673	24.810	0.310	-0.450	-2.230	24.760	-1.800	-1.900																			1580064101.0	1.71	3.17
26/01/2020 18:41:42	26012020	260120	184142	24.810	12.187095	-56.117677	24.850	0.190	-0.090	-2.190	24.800	-1.500	-1.900																			1580064102.0	0.73	1.35
26/01/2020 18:41:43	26012020	260120	184143	24.640	12.187092	-56.117675	24.650	-0.210	0.190	-1.610	24.590	-1.200	-1.400																			1580064103.0	0.47	0.87
26/01/2020 18:41:44	26012020	260120	184144	24.450	12.187088	-56.117673	24.500	-0.450	0.090	-0.830	24.430	-1.200	-0.600																			1580064104.0	0.92	1.70
26/01/2020 18:41:45	26012020	260120	184145	24.390	12.187087	-56.117668	24.490	-0.220	-0.390	-0.080	24.390	-1.700	0.100																			1580064105.0	0.93	1.72
26/01/2020 18:41:46	26012020	260120	184146	24.420	12.187087	-56.117665	24.530	0.370	-0.820	0.570	24.420	-2.100	0.800																			1580064106.0	0.98	1.81
26/01/2020 18:41:47	26012020	260120	184147	24.450	12.187088	-56.117660	24.560	0.880	-0.810	1.110	24.450	-2.200	1.400																			1580064107.0	1.01	1.87
26/01/2020 18:41:48	26012020	260120	184148	24.450	12.187088	-56.117657	24.570	0.920	-0.300	1.390	24.450	-1.700	1.700																			1580064108.0	0.81	1.50
26/01/2020 18:41:49	26012020	260120	184149	24.400	12.187087	-56.117653	24.500	0.450	0.480	1.360	24.380	-0.500	1.500																			1580064109.0	0.53	0.98
26/01/2020 18:41:50	26012020	260120	184150	24.230	12.187083	-56.117655	24.300	-0.280	1.140	1.040	24.170	-0.300	1.400																			1580064110.0	0.56	1.04
26/01/2020 18:41:51	26012020	260120	184151	23.940	12.187082	-56.117658	24.000	-0.890	1.190	0.410	23.880	-0.100	0.800																			1580064111.0	0.81	1.50
26/01/2020 18:41:52	26012020	260120	184152	23.750	12.187083	-56.117663	23.830	-1.040	0.460	-0.470	23.740	-0.800	-0.000																			1580064112.0	1.08	2.00
26/01/2020 18:41:53	26012020	260120	184153	23.820	12.187087	-56.117668	23.940	-0.690	-0.720	-1.480	23.860	-2.000	-1.000																			1580064113.0	1.42	2.63
26/01/2020 18:41:54	26012020	260120	184154	24.100	12.187092	-56.117673	24.210	-0.070	-1.580	-2.280	24.170	-2.900	-1.900																			1580064114.0	1.62	3.00
26/01/2020 18:41:55	26012020	260120	184155	24.360	12.187097	-56.117677	24.420	0.410	-1.530	-2.540	24.400	-2.900	-2.200																			1580064115.0	1.18	2.19
26/01/2020 18:41:56	26012020	260120	184156	24.400	12.187098	-56.117677	24.390	0.500	-0.680	-2.090	24.360	-2.200	-1.900																			1580064116.0	0.18	0.33
26/01/2020 18:41:57	26012020	260120	184157	24.160	12.187093	-56.117675	24.120	0.280	0.340	-1.140	24.090	-1.100	-0.900																			1580064117.0	0.87	1.61
26/01/2020 18:41:58	26012020	260120	184158	23.740	12.187088	-56.117673	23.810	0.030	0.900	-0.030	23.740	-0.500	0.200																			1580064118.0	1.33	2.46
26/01/2020 18:41:59	26012020	260120	184159	23.550	12.187083	-56.117668	23.620	0.000	0.740	0.880	23.520	-0.600	1.100	1014.00	26.30	26.30	21.00	21.00	647.00	72.00	72.00	383.00	30.00	73.00	3.60	102.00	3.50	45033	3323.00	27.80	27.90	1580064119.0	1.23	2.28
26/01/2020 18:42:00	26012020	260120	184200	23.510	12.187083	-56.117665	23.640	0.140	0.090	1.420	23.520	-1.200	1.700																			1580064120.0	1.00	1.85
26/01/2020 18:42:01	26012020	260120	184201	23.640	12.187085	-56.117660	23.800	0.220	-0.510	1.510	23.680	-1.800	1.800																			1580064121.0	0.86	1.59
26/01/2020 18:42:02	26012020	260120	184202	23.820	12.187087	-56.117658	23.980	0.140	-0.690	1.200	23.850	-2.100	1.600																			1580064122.0	0.56	1.04
26/01/2020 18:42:03	26012020	260120	184203	23.900	12.187088	-56.117660	24.010	0.010	-0.400	0.790	23.900	-1.800	1.200																			1580064123.0	0.41	0.76
26/01/2020 18:42:04	26012020	260120	184204	23.850	12.187088	-56.117663	23.930	-0.070	0.000	0.380	23.840	-1.400	0.700																			1580064124.0	0.56	1.04
26/01/2020 18:42:05	26012020	260120	184205	23.820	12.187087	-56.117665	23.900	-0.100	0.120	-0.100	23.810	-1.200	0.300																			1580064125.0	0.49	0.91
26/01/2020 18:42:06	26012020	260120	184206	23.770	12.187087	-56.117665	23.820	-0.180	0.010	-0.590	23.750	-1.300	-0.200																			1580064126.0	0.19	0.35
26/01/2020 18:42:07	26012020	260120	184207	23.540	12.187087	-56.117667	23.530	-0.350	-0.030	-1.000	23.470	-1.400	-0.600																			1580064127.0	0.36	0.67
26/01/2020 18:42:08	26012020	260120	184208	23.160	12.187088	-56.117670	23.120	-0.400	0.050	-1.280	23.080	-1.300	-0.900																			1580064128.0	0.71	1.31
26/01/2020 18:42:09	26012020	260120	184209	22.840	12.187090	-56.117675	22.850	-0.170	-0.050	-1.500	22.810	-1.400	-1.100																			1580064129.0	0.96	1.78
26/01/2020 18:42:10	26012020	260120	184210	22.800	12.187092	-56.117678	22.850	0.230	-0.400	-1.640	22.820	-1.700	-1.300																			1580064130.0	0.85	1.57
26/01/2020 18:42:11	26012020	260120	184211	23.010	12.187093	-56.117680	23.090	0.430	-0.580	-1.620	23.060	-1.900	-1.300																			1580064131.0	0.67	1.24
26/01/2020 18:42:12	26012020	260120	184212	23.260	12.187095	-56.117680	23.350	0.260	-0.280	-1.240	23.300	-1.700	-1.000																			1580064132.0	0.34	0.63
26/01/2020 18:42:13	26012020	260120	184213	23.410	12.187093	-56.117680	23.500	-0.080	0.230	-0.500	23.430	-1.200	-0.300																			1580064133.0	0.38	0.70
26/01/2020 18:42:14	26012020	260120	184214	23.490	12.187090	-56.117677	23.600	-0.240	0.360	0.410	23.510	-1.000	0.600																			1580064134.0	1.06	1.96
26/01/2020 18:42:15	26012020	260120	184215	23.550	12.187087	-56.117672	23.680	-0.130	-0.040	1.230	23.560	-1.700	1.900																			1580064135.0	1.36	2.52
26/01/2020 18:42:16	26012020	260120	184216	23.510	12.187085	-56.117665	23.600	0.090	-0.500	1.860	23.470	-1.800	2.100																			1580064136.0	1.48	2.74
26/01/2020 18:42:17	26012020	260120	184217	23.210	12.187085	-56.117658	23.270	0.190	-0.510	2.180	23.140	-1.900	2.500																			1580064137.0	1.33	2.46
26/01/2020 18:42:18	26012020	260120	184218	22.670	12.187085	-56.117655	22.810	0.090	-0.160	1.910	22.670	-1.600	2.300																			1580064138.0	0.68	1.26
26/01/2020 18:42:19	26012020	260120	184219	22.350	12.187083	-56.117657	22.430	-0.050	0.100	0.920	22.300	-1.300	1.400																			1580064139.0	0.44	0.81
26/01/2020 18:42:20	26012020	260120	184220	22.230	12.187085	-56.117663	22.320	-0.080	0.050	-0.610	22.240	-1.300	-0.100																			1580064140.0	1.46	2.70
26/01/2020 18:42:21	26012020	260120	184221	22.370	12.187090	-56.117673	22.440	-0.010	-0.120	-2.200	22.420	-1.500	-1.700																			1580064141.0	2.27	4.20
26/01/2020 18:42:22	26012020	260120	184222	22.570	12.187095	-56.117683	22.590	0.000	-0.140	-3.330	22.600	-1.500	-2.900																			1580064142.0	2.43	4.50
26/01/2020 18:42:23	26012020	260120	184223	22.710	12.187098	-56.117692	22.720	-0.100	-0.010	-3.740	22.740	-1.400	-3.400																			1580064143.0	1.89	3.50
26/01/2020 18:42:24	26012020	260120	184224	22.850	12.187100	-56.117697	22.870	-0.260	0.090	-3.350	22.870	-1.300	-3.100																			1580064144.0	0.90	1.67
26/01/2020 18:42:25	26012020	260120	184225	22.940	12.187098	-56.117695	22.970	-0.360	0.100	-2.130	22.950	-1.300	-2.000																			1580064145.0	0.39	0.72
26/01/2020 18:42:26	26012020	260120	184226	22.930	12.187095	-56.117688	23.000	-0.320	-0.040	-0.390	22.930	-1.400	-0.300																			1580064146.0	1.51	2.80
26/01/2020 18:42:27	26012020	260120	184227	22.970	12.187090	-56.117678	23.090	-0.090	-0.400	1.270	22.990	-1.700	1.400																			1580064147.0	2.20	4.07
26/01/2020 18:42:28	26012020	260120	184228	23.080	12.187088	-56.117668	23.230	0.270	-0.790	2.510	23.090	-2.100	2.700																			1580064148.0	2.26	4.19
26/01/2020 18:42:29	26012020	260120	184229	23.030	12.187087	-56.117660	23.130	0.580	-0.780	3.350	22.980	-2.200	3.600																			1580064149.0	1.97	3.65
26/01/2020 18:42:30	26012020	260120	184230	22.690	12.187083	-56.117653	22.770	0.640	-0.300	3.590	22.600	-1.700	3.900																			1580064150.0	1.48	2.74
26/01/2020 18:42:31	26012020	260120	184231	22.250	12.187082	-56.117650	22.350	0.410	0.180	2.890	22.190	-1.200	3.300																			1580064151.0	0.65	1.20
26/01/2020 18:42:32	26012020	260120	184232	22.020	12.187083	-56.117655	22.140	0.050	0.320	1.170	22.020	-1.000	1.700																			1580064152.0	0.93	1.72
26/01/2020 18:42:33	26012020	260120	184233	22.130	12.187087	-56.117667	22.250	-0.230	0.230	-1.190	22.190	-1.100	-0.600																			1580064153.0	2.52	4.67
26/01/2020 18:42:34	26012020	260120	184234	22.460	12.187093	-56.117680	22.530	-0.410	0.210	-3.390	22.530	-1.200	-2.800																			1580064154.0	3.46	6.41
26/01/2020 18:42:35	26012020	260120	184235	22.780	12.187100	-56.117695	22.800	-0.570	0.330	-4.720	22.830	-1.000	-4.300																			1580064155.0	3.21	5.94
26/01/2020 18:42:36	26012020	260120	184236	22.990	12.187102	-56.117703	22.980	-0.690	0.330	-4.870	23.020	-1.000	-4.600																			1580064156.0	2.01	3.72
26/01/2020 18:42:37	26012020	260120	184237	23.120	12.187102	-56.117707	23.110	-0.620	-0.020	-3.950	23.140	-1.300	-3.800																			1580064157.0	0.49	0.91
26/01/2020 18:42:38	26012020	260120	184238	23.200	12.187098	-56.117700	23.240	-0.260	-0.680	-2.240	23.220	-2.000	-2.100																			1580064158.0	1.24	2.30
26/01/2020 18:42:39	26012020	260120	184239	23.270	12.187097	-56.117690	23.360	0.240	-1.260	-0.220	23.290	-2.700	1.100																			1580064159.0	2.51	4.65
26/01/2020 18:42:40	26012020	260120	184240	23.250	12.187093	-56.117675	23.350	0.580	-1.300	1.640	23.250	-2.700	1.800																			1580064160.0	3.03	5.61
26/01/2020 18:42:41	26012020	260120	184241	23.080	12.187088	-56.117663	23.170	0.620	-0.640	3.060	23.020	-2.100	3.200																			1580064161.0	2.58	4.78
26/01/2020 18:42:42	26012020	260120	184242	22.740	12.187085	-56.117657	22.910	0.490	0.260	3.750	22.740	-1.200	4.000																			1580064162.0	1.64	3.04
26/01/2020 18:42:43	26012020	260120	184243	22.540	12.187082	-56.117657	22.690	0.380	0.780	3.510	22.510	-0.600	3.900																			1580064163.0	0.65	1.20
26/01/2020 18:42:44	26012020	260120	184244	22.460	12.187082	-56.117660	22.630	0.320	0.700	2.280	22.470	-0.600	2.800																			1580064164.0	0.74	1.37
26/01/2020 18:42:45	26012020	260120	184245	22.620	12.187087	-56.117667	22.800	0.190	0.280	0.390	22.680	-1.000	0.900																			1580064165.0	1.67	3.09
26/01/2020 18:42:46	26012020	260120	184246	23.040	12.187092	-56.117675	23.110	-0.140	-0.060	-1.620	23.040	-1.400	-1.100																			1580064166.0	2.21	4.09
26/01/2020 18:42:47	26012020	260120	184247	23.270	12.187097	-56.117685	23.320	-0.580	-0.130	-3.200	23.300	-1.500	-2.700																			1580064167.0	2.22	4.11
26/01/2020 18:42:48	26012020	260120	184248	23.290	12.187100	-56.117692	23.260	-0.870	-0.050	-3.920	23.260	-1.400	-3.500																			1580064168.0	1.81	3.35
26/01/2020 18:42:49	26012020	260120	184249	23.100	12.187100	-56.117697	23.050	-0.840	-0.110	-3.820	23.060	-1.500	-3.500																			1580064169.0	1.02	1.89
26/01/2020 18:42:50	26012020	260120	184250	22.960	12.187100	-56.117698	22.950	-0.510	-0.360	-3.130	22.960	-1.700	-2.900																			1580064170.0	0.22	0.41
26/01/2020 18:42:51	26012020	260120	184251	22.990	12.187098	-56.117695	23.020	-0.060	-0.520	-1.980	23.010	-1.900	-1.800																			1580064171.0	0.58	1.07
26/01/2020 18:42:52	26012020	260120	184252	23.110	12.187097	-56.117690	23.130	0.340	-0.470	-0.520	23.110	-1.800	-0.400																			1580064172.0	1.22	2.26
26/01/2020 18:42:53	26012020	260120	184253	23.210	12.187093	-56.117682	23.300	0.540	-0.400	0.930	23.240	-1.800	1.100																			1580064173.0	1.84	3.41
26/01/2020 18:42:54	26012020	260120	184254	23.350	12.187090	-56.117673	23.470	0.540	-0.400	2.110	23.370	-1.800	2.300																			1580064174.0	2.00	3.70
26/01/2020 18:42:55	26012020	260120	184255	23.410	12.187088	-56.117667	23.540	0.430	-0.350	2.830	23.410	-1.700	3.100																			1580064175.0	1.58	2.93
26/01/2020 18:42:56	26012020	260120	184256	23.310	12.187087	-56.117662	23.440	0.360	-0.180	2.950	23.310	-1.600	3.300																			1580064176.0	0.89	1.65
26/01/2020 18:42:57	26012020	260120	184257	23.150	12.187087	-56.117662	23.240	0.350	0.060	2.420	23.100	-1.300	2.800																			1580064177.0	0.15	0.28
26/01/2020 18:42:58	26012020	260120	184258	22.910	12.187090	-56.117665	23.030	0.340	0.250	1.410	22.910	-1.100	1.900																			1580064178.0	0.84	1.56
26/01/2020 18:42:59	26012020	260120	184259	22.870	12.187092	-56.117672	22.980	0.170	0.350	0.060	22.880	-1.000	0.500	1014.00	26.40	26.30	21.00	20.90	630.00	72.00	72.00	382.00	30.00	76.00	4.20	109.00	4.10	44352	3461.00	27.80	27.90	1580064179.0	1.41	2.61
26/01/2020 18:43:00	26012020	260120	184300	23.020	12.187097	-56.117678	23.090	-0.250	0.440	-1.410	23.020	-0.900	-0.900																			1580064180.0	1.68	3.11
26/01/2020 18:43:01	26012020	260120	184301	23.230	12.187098	-56.117687	23.320	-0.850	0.490	-2.710	23.290	-0.900	-2.200																			1580064181.0	1.70	3.15
26/01/2020 18:43:02	26012020	260120	184302	23.530	12.187100	-56.117693	23.590	-1.280	0.350	-3.520	23.580	-1.000	-3.100																			1580064182.0	1.50	2.78
26/01/2020 18:43:03	26012020	260120	184303	23.730	12.187100	-56.117698	23.740	-1.220	0.030	-3.560	23.740	-1.300	-3.300																			1580064183.0	1.02	1.89
26/01/2020 18:43:04	26012020	260120	184304	23.720	12.187100	-56.117698	23.730	-0.590	-0.430	-2.780	23.700	-1.700	-2.600																			1580064184.0	0.17	0.31
26/01/2020 18:43:05	26012020	260120	184305	23.590	12.187098	-56.117693	23.620	0.320	-0.990	-1.480	23.570	-2.600	-0.400																			1580064185.0	1.01	1.87
26/01/2020 18:43:06	26012020	260120	184306	23.510	12.187097	-56.117685	23.580	1.060	-1.450	-0.110	23.510	-2.800	0.100																			1580064186.0	1.75	3.24
26/01/2020 18:43:07	26012020	260120	184307	23.520	12.187095	-56.117677	23.630	1.330	-1.440	1.000	23.520	-2.500	1.800																			1580064187.0	1.86	3.44
26/01/2020 18:43:08	26012020	260120	184308	23.530	12.187095	-56.117670	23.630	1.100	-0.800	1.750	23.520	-2.300	2.000																			1580064188.0	1.35	2.50
26/01/2020 18:43:09	26012020	260120	184309	23.510	12.187093	-56.117668	23.630	0.610	0.170	2.020	23.510	-1.300	2.300																			1580064189.0	0.60	1.11
26/01/2020 18:43:10	26012020	260120	184310	23.540	12.187092	-56.117668	23.660	0.110	0.960	1.830	23.550	-0.500	2.200																			1580064190.0	0.31	0.57
26/01/2020 18:43:11	26012020	260120	184311	23.600	12.187092	-56.117672	23.730	-0.300	1.320	1.290	23.620	-0.100	1.700																			1580064191.0	0.50	0.93
26/01/2020 18:43:12	26012020	260120	184312	23.650	12.187092	-56.117673	23.770	-0.640	1.250	0.530	23.660	-0.100	0.900																			1580064192.0	0.61	1.13
26/01/2020 18:43:13	26012020	260120	184313	23.730	12.187093	-56.117677	23.830	-0.860	0.780	-0.410	23.760	-0.500	0.000																			1580064193.0	0.70	1.30
26/01/2020 18:43:14	26012020	260120	184314	23.920	12.187095	-56.117680	24.000	-0.860	0.030	-1.440	23.960	-1.300	-1.000																			1580064194.0	0.81	1.50
26/01/2020 18:43:15	26012020	260120	184315	24.100	12.187097	-56.117683	24.150	-0.650	-0.690	-2.230	24.120	-2.000	-1.800																			1580064195.0	0.91	1.69
26/01/2020 18:43:16	26012020	260120	184316	24.120	12.187100	-56.117687	24.130	-0.320	-1.060	-2.580	24.100	-2.400	-2.200																			1580064196.0	0.79	1.46
26/01/2020 18:43:17	26012020	260120	184317	24.040	12.187100	-56.117688	24.070	0.060	-1.140	-2.480	24.030	-2.500	-2.200																			1580064197.0	0.47	0.87
26/01/2020 18:43:18	26012020	260120	184318	24.030	12.187100	-56.117690	24.090	0.440	-1.090	-2.010	24.040	-2.500	-1.800																			1580064198.0	0.17	0.31
26/01/2020 18:43:19	26012020	260120	184319	24.120	12.187098	-56.117688	24.190	0.760	-0.890	-1.310	24.130	-2.300	-1.100																			1580064199.0	0.34	0.63
26/01/2020 18:43:20	26012020	260120	184320	24.190	12.187098	-56.117685	24.290	0.890	-0.410	-0.350	24.200	-1.800	-0.200																			1580064200.0	0.75	1.39
26/01/2020 18:43:21	26012020	260120	184321	24.200	12.187097	-56.117680	24.310	0.750	0.180	0.700	24.190	-1.200	0.900																			1580064201.0	1.14	2.11
26/01/2020 18:43:22	26012020	260120	184322	24.190	12.187093	-56.117675	24.330	0.360	0.630	1.560	24.190	-0.800	1.800																			1580064202.0	1.33	2.46
26/01/2020 18:43:23	26012020	260120	184323	24.240	12.187092	-56.117670	24.410	-0.120	0.810	1.930	24.270	-0.600	2.200																			1580064203.0	1.08	2.00
26/01/2020 18:43:24	26012020	260120	184324	24.430	12.187090	-56.117668	24.610	-0.500	0.720	1.660	24.480	-0.600	2.000																			1580064204.0	0.44	0.81
26/01/2020 18:43:25	26012020	260120	184325	24.630	12.187092	-56.117668	24.760	-0.630	0.490	1.010	24.650	-0.900	1.400																			1580064205.0	0.30	0.56
26/01/2020 18:43:26	26012020	260120	184326	24.700	12.187092	-56.117672	24.790	-0.530	0.160	0.320	24.700	-1.200	0.700																			1580064206.0	0.71	1.31
26/01/2020 18:43:27	26012020	260120	184327	24.680	12.187093	-56.117675	24.740	-0.300	-0.250	-0.270	24.670	-1.600	0.100																			1580064207.0	0.70	1.30
26/01/2020 18:43:28	26012020	260120	184328	24.650	12.187095	-56.117677	24.690	-0.070	-0.710	-0.850	24.650	-2.000	-0.500																			1580064208.0	0.53	0.98
26/01/2020 18:43:29	26012020	260120	184329	24.670	12.187097	-56.117678	24.710	0.100	-0.980	-1.370	24.680	-2.400	-1.300																			1580064209.0	0.45	0.83
26/01/2020 18:43:30	26012020	260120	184330	24.750	12.187097	-56.117680	24.780	0.200	-0.930	-1.740	24.760	-2.300	-1.400																			1580064210.0	0.42	0.78
26/01/2020 18:43:31	26012020	260120	184331	24.870	12.187098	-56.117682	24.910	0.270	-0.630	-1.880	24.900	-2.000	-1.600																			1580064211.0	0.35	0.65
26/01/2020 18:43:32	26012020	260120	184332	25.010	12.187097	-56.117683	25.050	0.280	-0.210	-1.710	25.030	-1.600	-1.400																			1580064212.0	0.21	0.39
26/01/2020 18:43:33	26012020	260120	184333	25.020	12.187097	-56.117683	25.040	0.200	0.250	-1.160	25.000	-1.200	-0.900																			1580064213.0	0.11	0.20
26/01/2020 18:43:34	26012020	260120	184334	24.890	12.187095	-56.117682	24.930	0.090	0.530	-0.370	24.860	-0.900	-0.200																			1580064214.0	0.38	0.70
26/01/2020 18:43:35	26012020	260120	184335	24.810	12.187093	-56.117680	24.900	0.060	0.430	0.420	24.820	-0.900	0.600																			1580064215.0	0.66	1.22
26/01/2020 18:43:36	26012020	260120	184336	24.960	12.187093	-56.117675	25.050	0.110	0.060	1.040	24.960	-1.300	1.300																			1580064216.0	0.88	1.63
26/01/2020 18:43:37	26012020	260120	184337	25.190	12.187093	-56.117670	25.350	0.100	-0.250	1.350	25.250	-1.600	1.600																			1580064217.0	1.01	1.87
26/01/2020 18:43:38	26012020	260120	184338	25.470	12.187092	-56.117667	25.590	-0.040	-0.280	1.310	25.500	-1.700	1.600																			1580064218.0	0.79	1.46
26/01/2020 18:43:39	26012020	260120	184339	25.520	12.187092	-56.117665	25.580	-0.280	-0.020	1.160	25.490	-1.400	1.500																			1580064219.0	0.34	0.63
26/01/2020 18:43:40	26012020	260120	184340	25.300	12.187090	-56.117667	25.300	-0.420	0.250	0.970	25.230	-1.100	1.300																			1580064220.0	0.39	0.72
26/01/2020 18:43:41	26012020	260120	184341	24.970	12.187088	-56.117668	24.990	-0.310	0.120	0.540	24.920	-1.200	0.900																			1580064221.0	0.52	0.96
26/01/2020 18:43:42	26012020	260120	184342	24.820	12.187088	-56.117670	24.860	0.010	-0.420	-0.250	24.820	-1.700	0.200																			1580064222.0	0.55	1.02
26/01/2020 18:43:43	26012020	260120	184343	24.930	12.187093	-56.117673	25.000	0.320	-0.970	-1.240	24.970	-2.400	-1.400																			1580064223.0	0.96	1.78
26/01/2020 18:43:44	26012020	260120	184344	25.180	12.187097	-56.117677	25.250	0.380	-1.000	-2.060	25.240	-2.400	-1.700																			1580064224.0	1.19	2.20
26/01/2020 18:43:45	26012020	260120	184345	25.430	12.187100	-56.117680	25.460	0.180	-0.390	-2.460	25.460	-1.900	-2.100																			1580064225.0	1.03	1.91
26/01/2020 18:43:46	26012020	260120	184346	25.580	12.187100	-56.117685	25.590	-0.100	0.430	-2.300	25.580	-1.000	-2.000																			1580064226.0	0.76	1.41
26/01/2020 18:43:47	26012020	260120	184347	25.550	12.187097	-56.117685	25.560	-0.230	0.890	-1.530	25.530	-0.500	-1.300																			1580064227.0	0.67	1.24
26/01/2020 18:43:48	26012020	260120	184348	25.320	12.187093	-56.117683	25.380	-0.170	0.700	-0.320	25.320	-0.600	-0.200																			1580064228.0	0.93	1.72
26/01/2020 18:43:49	26012020	260120	184349	25.160	12.187090	-56.117677	25.200	-0.030	0.030	0.920	25.130	-1.300	1.100																			1580064229.0	1.54	2.85
26/01/2020 18:43:50	26012020	260120	184350	25.090	12.187090	-56.117668	25.180	0.050	-0.630	1.780	25.090	-1.900	2.000																			1580064230.0	1.80	3.33
26/01/2020 18:43:51	26012020	260120	184351	25.170	12.187090	-56.117662	25.280	0.020	-0.900	2.080	25.200	-2.300	2.400																			1580064231.0	1.40	2.59
26/01/2020 18:43:52	26012020	260120	184352	25.320	12.187088	-56.117658	25.410	-0.020	-0.660	1.900	25.320	-2.100	2.200																			1580064232.0	0.46	0.85
26/01/2020 18:43:53	26012020	260120	184353	25.350	12.187088	-56.117662	25.410	0.060	-0.160	1.440	25.350	-1.600	1.800																			1580064233.0	0.40	0.74
26/01/2020 18:43:54	26012020	260120	184354	25.260	12.187088	-56.117665	25.290	0.220	0.230	0.830	25.220	-1.200	1.200																			1580064234.0	0.76	1.41
26/01/2020 18:43:55	26012020	260120	184355	25.090	12.187088	-56.117668	25.120	0.260	0.250	0.100	25.070	-1.300	-0.000																			1580064235.0	0.68	1.26
26/01/2020 18:43:56	26012020	260120	184356	25.020	12.187090	-56.117670	25.060	0.130	-0.040	-0.760	25.030	-1.400	-0.300																			1580064236.0	0.71	1.31
26/01/2020 18:43:57	26012020	260120	184357	25.150	12.187093	-56.117673	25.210	-0.100	-0.310	-1.640	25.190	-1.700	-1.200																			1580064237.0	1.01	1.87
26/01/2020 18:43:58	26012020	260120	184358	25.350	12.187097	-56.117678	25.390	-0.270	-0.200	-2.160	25.370	-1.600	-1.800																			1580064238.0	1.06	1.96
26/01/2020 18:43:59	26012020	260120	184359	25.370	12.187097	-56.117680	25.380	-0.350	0.170	-2.110	25.350	-1.200	-1.800	1014.00	26.30	26.30	20.80	20.80	626.00	71.00	71.00	382.00	30.00	77.00	3.60	107.00	3.50	43953	3301.00	27.80	27.90	1580064239.0	0.58	1.07
26/01/2020 18:44:00	26012020	260120	184400	25.230	12.187095	-56.117682	25.240	-0.290	0.290	-1.600	25.200	-1.100	-1.400																			1580064240.0	0.46	0.85
26/01/2020 18:44:01	26012020	260120	184401	25.100	12.187092	-56.117680	25.140	-0.110	-0.120	-0.890	25.090	-1.400	-0.700																			1580064241.0	0.64	1.19
26/01/2020 18:44:02	26012020	260120	184402	25.080	12.187092	-56.117675	25.150	0.130	-0.680	-0.150	25.080	-2.000	0.100																			1580064242.0	0.92	1.70
26/01/2020 18:44:03	26012020	260120	184403	25.110	12.187092	-56.117670	25.180	0.250	-0.840	0.520	25.110	-2.200	0.800																			1580064243.0	1.10	2.04
26/01/2020 18:44:04	26012020	260120	184404	25.070	12.187092	-56.117667	25.140	0.210	-0.450	1.100	25.070	-1.900	1.300																			1580064244.0	0.81	1.50
26/01/2020 18:44:05	26012020	260120	184405	24.920	12.187090	-56.117665	24.940	0.100	0.200	1.560	24.870	-1.200	1.800																			1580064245.0	0.56	1.04
26/01/2020 18:44:06	26012020	260120	184406	24.690	12.187087	-56.117663	24.730	0.030	0.560	1.650	24.660	-0.800	2.000																			1580064246.0	0.62	1.15
26/01/2020 18:44:07	26012020	260120	184407	24.610	12.187085	-56.117663	24.680	0.010	0.350	1.200	24.620	-1.000	1.600																			1580064247.0	0.34	0.63
26/01/2020 18:44:08	26012020	260120	184408	24.730	12.187087	-56.117665	24.810	-0.020	-0.160	0.370	24.770	-1.500	0.800																			1580064248.0	0.41	0.76
26/01/2020 18:44:09	26012020	260120	184409	24.900	12.187090	-56.117668	24.940	-0.090	-0.420	-0.480	24.920	-1.800	-0.100																			1580064249.0	0.91	1.69
26/01/2020 18:44:10	26012020	260120	184410	24.970	12.187093	-56.117670	24.990	-0.160	-0.300	-1.130	24.970	-1.700	-0.700																			1580064250.0	0.84	1.56
26/01/2020 18:44:11	26012020	260120	184411	24.900	12.187093	-56.117673	24.880	-0.170	-0.100	-1.500	24.870	-1.500	-1.100																			1580064251.0	0.62	1.15
26/01/2020 18:44:12	26012020	260120	184412	24.730	12.187093	-56.117675	24.720	-0.120	-0.090	-1.590	24.690	-1.400	-1.300																			1580064252.0	0.42	0.78
26/01/2020 18:44:13	26012020	260120	184413	24.600	12.187093	-56.117677	24.600	-0.030	-0.220	-1.490	24.580	-1.600	-1.200																			1580064253.0	0.14	0.26
26/01/2020 18:44:14	26012020	260120	184414	24.530	12.187093	-56.117675	24.560	0.060	-0.210	-1.150	24.520	-1.600	-0.900																			1580064254.0	0.17	0.31
26/01/2020 18:44:15	26012020	260120	184415	24.430	12.187093	-56.117675	24.450	0.090	-0.010	-0.550	24.410	-1.400	-0.300																			1580064255.0	0.28	0.52
26/01/2020 18:44:16	26012020	260120	184416	24.350	12.187092	-56.117672	24.410	0.070	0.040	0.010	24.350	-1.300	0.300																			1580064256.0	0.62	1.15
26/01/2020 18:44:17	26012020	260120	184417	24.370	12.187090	-56.117670	24.440	0.020	-0.200	0.360	24.370	-1.500	0.600																			1580064257.0	0.66	1.22
26/01/2020 18:44:18	26012020	260120	184418	24.400	12.187090	-56.117668	24.470	-0.030	-0.440	0.630	24.400	-1.800	0.900																			1580064258.0	0.49	0.91
26/01/2020 18:44:19	26012020	260120	184419	24.370	12.187090	-56.117667	24.430	-0.050	-0.370	0.890	24.360	-1.800	1.200																			1580064259.0	0.38	0.70
26/01/2020 18:44:20	26012020	260120	184420	24.260	12.187090	-56.117665	24.320	0.020	-0.070	1.070	24.240	-1.500	1.400																			1580064260.0	0.17	0.31
26/01/2020 18:44:21	26012020	260120	184421	24.170	12.187090	-56.117665	24.240	0.150	0.110	0.950	24.160	-1.300	1.300																			1580064261.0	0.29	0.54
26/01/2020 18:44:22	26012020	260120	184422	24.190	12.187088	-56.117665	24.250	0.240	0.080	0.540	24.200	-1.300	0.900																			1580064262.0	0.13	0.24
26/01/2020 18:44:23	26012020	260120	184423	24.260	12.187090	-56.117665	24.320	0.160	0.010	-0.000	24.270	-1.400	0.400																			1580064263.0	0.14	0.26
26/01/2020 18:44:24	26012020	260120	184424	24.260	12.187090	-56.117667	24.270	-0.110	0.020	-0.560	24.240	-1.400	-0.200																			1580064264.0	0.28	0.52
26/01/2020 18:44:25	26012020	260120	184425	24.120	12.187092	-56.117668	24.110	-0.420	0.070	-1.050	24.080	-1.300	-0.700																			1580064265.0	0.52	0.96
26/01/2020 18:44:26	26012020	260120	184426	23.910	12.187092	-56.117672	23.900	-0.510	0.020	-1.360	23.860	-1.300	-1.000																			1580064266.0	0.79	1.46
26/01/2020 18:44:27	26012020	260120	184427	23.730	12.187093	-56.117675	23.750	-0.250	-0.220	-1.470	23.710	-1.600	-1.100																			1580064267.0	0.81	1.50
26/01/2020 18:44:28	26012020	260120	184428	23.700	12.187095	-56.117677	23.740	0.190	-0.550	-1.390	23.700	-1.900	-1.100																			1580064268.0	0.50	0.93
26/01/2020 18:44:29	26012020	260120	184429	23.770	12.187095	-56.117677	23.850	0.450	-0.690	-1.090	23.800	-2.100	-0.800																			1580064269.0	0.34	0.63
26/01/2020 18:44:30	26012020	260120	184430	23.880	12.187095	-56.117673	23.960	0.310	-0.420	-0.610	23.900	-1.800	-0.400																			1580064270.0	0.52	0.96
26/01/2020 18:44:31	26012020	260120	184431	23.930	12.187093	-56.117672	24.000	-0.050	0.140	-0.030	23.930	-1.300	0.200																			1580064271.0	0.67	1.24
26/01/2020 18:44:32	26012020	260120	184432	23.860	12.187090	-56.117670	23.960	-0.290	0.540	0.590	23.860	-0.900	0.800																			1580064272.0	0.86	1.59
26/01/2020 18:44:33	26012020	260120	184433	23.770	12.187087	-56.117667	23.860	-0.220	0.380	1.080	23.750	-0.900	1.300																			1580064273.0	0.90	1.67
26/01/2020 18:44:34	26012020	260120	184434	23.680	12.187087	-56.117663	23.770	0.060	-0.220	1.280	23.680	-1.500	1.600																			1580064274.0	0.71	1.31
26/01/2020 18:44:35	26012020	260120	184435	23.640	12.187088	-56.117660	23.710	0.320	-0.730	1.220	23.630	-2.100	1.500																			1580064275.0	0.75	1.39
26/01/2020 18:44:36	26012020	260120	184436	23.550	12.187090	-56.117658	23.600	0.370	-0.700	0.870	23.530	-2.100	1.200																			1580064276.0	0.59	1.09
26/01/2020 18:44:37	26012020	260120	184437	23.430	12.187092	-56.117660	23.470	0.200	-0.220	0.260	23.410	-1.700	0.700																			1580064277.0	0.30	0.56
26/01/2020 18:44:38	26012020	260120	184438	23.260	12.187092	-56.117663	23.320	-0.020	0.330	-0.450	23.260	-1.100	-0.100																			1580064278.0	0.86	1.59
26/01/2020 18:44:39	26012020	260120	184439	23.150	12.187092	-56.117670	23.170	-0.160	0.520	-1.120	23.130	-0.900	-0.700																			1580064279.0	1.17	2.17
26/01/2020 18:44:40	26012020	260120	184440	23.150	12.187092	-56.117675	23.180	-0.200	0.230	-1.670	23.150	-1.100	-1.300																			1580064280.0	1.09	2.02
26/01/2020 18:44:41	26012020	260120	184441	23.340	12.187095	-56.117678	23.440	-0.210	-0.220	-2.010	23.410	-1.600	-1.700																			1580064281.0	0.95	1.76
26/01/2020 18:44:42	26012020	260120	184442	23.630	12.187097	-56.117680	23.700	-0.210	-0.390	-1.880	23.660	-1.800	-1.600																			1580064282.0	0.65	1.20
26/01/2020 18:44:43	26012020	260120	184443	23.680	12.187097	-56.117678	23.720	-0.220	-0.200	-1.150	23.650	-1.600	-0.900																			1580064283.0	0.35	0.65
26/01/2020 18:44:44	26012020	260120	184444	23.500	12.187093	-56.117673	23.590	-0.190	-0.080	-0.180	23.500	-1.500	0.000																			1580064284.0	1.31	2.43
26/01/2020 18:44:45	26012020	260120	184445	23.390	12.187088	-56.117667	23.460	-0.040	-0.280	0.720	23.360	-1.600	0.900																			1580064285.0	1.57	2.91
26/01/2020 18:44:46	26012020	260120	184446	23.210	12.187087	-56.117662	23.330	0.260	-0.560	1.400	23.210	-1.900	1.600																			1580064286.0	1.25	2.31
26/01/2020 18:44:47	26012020	260120	184447	23.050	12.187087	-56.117658	23.150	0.550	-0.590	1.720	23.010	-2.000	2.000																			1580064287.0	0.81	1.50
26/01/2020 18:44:48	26012020	260120	184448	22.860	12.187088	-56.117657	22.960	0.630	-0.310	1.530	22.840	-1.700	1.900																			1580064288.0	0.26	0.48
26/01/2020 18:44:49	26012020	260120	184449	22.790	12.187088	-56.117658	22.910	0.410	0.090	0.850	22.800	-1.300	1.300																			1580064289.0	0.51	0.94
26/01/2020 18:44:50	26012020	260120	184450	22.910	12.187090	-56.117663	23.030	-0.010	0.380	-0.100	22.950	-1.000	0.300																			1580064290.0	1.02	1.89
26/01/2020 18:44:51	26012020	260120	184451	23.130	12.187090	-56.117670	23.230	-0.390	0.470	-0.970	23.180	-0.900	-0.600																			1580064291.0	1.18	2.19
26/01/2020 18:44:52	26012020	260120	184452	23.340	12.187092	-56.117673	23.380	-0.520	0.320	-1.500	23.340	-1.000	-1.100																			1580064292.0	0.94	1.74
26/01/2020 18:44:53	26012020	260120	184453	23.390	12.187092	-56.117675	23.420	-0.400	-0.060	-1.650	23.380	-1.400	-1.300																			1580064293.0	0.37	0.69
26/01/2020 18:44:54	26012020	260120	184454	23.250	12.187093	-56.117673	23.280	-0.180	-0.490	-1.470	23.250	-1.800	-1.200																			1580064294.0	0.28	0.52
26/01/2020 18:44:55	26012020	260120	184455	23.020	12.187093	-56.117672	23.010	0.020	-0.660	-1.030	22.960	-2.000	-0.800																			1580064295.0	0.50	0.93
26/01/2020 18:44:56	26012020	260120	184456	22.790	12.187093	-56.117670	22.840	0.160	-0.540	-0.550	22.770	-1.900	-0.300																			1580064296.0	0.50	0.93
26/01/2020 18:44:57	26012020	260120	184457	22.820	12.187092	-56.117668	22.920	0.240	-0.280	-0.230	22.860	-1.700	0.100																			1580064297.0	0.49	0.91
26/01/2020 18:44:58	26012020	260120	184458	22.950	12.187090	-56.117667	23.040	0.210	0.050	0.050	22.960	-1.400	0.300																			1580064298.0	0.35	0.65
26/01/2020 18:44:59	26012020	260120	184459	22.960	12.187088	-56.117667	23.050	0.080	0.360	0.390	22.950	-1.000	0.700	1014.00	26.30	26.30	20.90	20.90	621.00	72.00	72.00	382.00	30.10	76.00	3.60	105.00	3.60	43564	3392.00	27.80	28.00	1580064299.0	0.31	0.57
26/01/2020 18:45:00	26012020	260120	184500	22.900	12.187087	-56.117667	23.000	-0.090	0.400	0.700	22.890	-1.000	1.000																			1580064300.0	0.32	0.59
26/01/2020 18:45:01	26012020	260120	184501	22.850	12.187087	-56.117665	22.940	-0.180	0.040	0.850	22.850	-1.300	1.200																			1580064301.0	0.31	0.57
26/01/2020 18:45:02	26012020	260120	184502	22.820	12.187087	-56.117663	22.900	-0.180	-0.500	0.760	22.810	-1.800	1.100																			1580064302.0	0.38	0.70
26/01/2020 18:45:03	26012020	260120	184503	22.780	12.187088	-56.117663	22.850	-0.050	-0.800	0.530	22.770	-2.200	0.900																			1580064303.0	0.44	0.81
26/01/2020 18:45:04	26012020	260120	184504	22.740	12.187090	-56.117663	22.810	0.200	-0.650	0.270	22.730	-2.100	0.600																			1580064304.0	0.32	0.59
26/01/2020 18:45:05	26012020	260120	184505	22.680	12.187090	-56.117663	22.740	0.440	-0.270	-0.010	22.660	-1.700	0.300																			1580064305.0	0.16	0.30
26/01/2020 18:45:06	26012020	260120	184506	22.580	12.187088	-56.117665	22.630	0.490	0.140	-0.380	22.550	-1.300	-0.000																			1580064306.0	0.25	0.46
26/01/2020 18:45:07	26012020	260120	184507	22.490	12.187088	-56.117667	22.550	0.220	0.440	-0.860	22.480	-1.000	-0.500																			1580064307.0	0.39	0.72
26/01/2020 18:45:08	26012020	260120	184508	22.510	12.187088	-56.117670	22.580	-0.210	0.500	-1.400	22.530	-0.900	-1.000																			1580064308.0	0.67	1.24
26/01/2020 18:45:09	26012020	260120	184509	22.620	12.187090	-56.117673	22.680	-0.520	0.270	-1.710	22.630	-1.100	-1.400																			1580064309.0	0.88	1.63
26/01/2020 18:45:10	26012020	260120	184510	22.680	12.187092	-56.117677	22.720	-0.540	-0.060	-1.530	22.680	-1.400	-1.200																			1580064310.0	0.71	1.31
26/01/2020 18:45:11	26012020	260120	184511	22.630	12.187092	-56.117677	22.660	-0.290	-0.340	-0.890	22.600	-1.700	-0.600																			1580064311.0	0.12	0.22
26/01/2020 18:45:12	26012020	260120	184512	22.480	12.187090	-56.117672	22.530	-0.000	-0.540	-0.080	22.460	-1.900	0.200																			1580064312.0	0.87	1.61
26/01/2020 18:45:13	26012020	260120	184513	22.320	12.187088	-56.117667	22.390	0.150	-0.700	0.580	22.290	-2.100	0.800																			1580064313.0	1.29	2.39
26/01/2020 18:45:14	26012020	260120	184514	22.170	12.187087	-56.117662	22.250	0.150	-0.730	0.950	22.140	-2.100	1.200																			1580064314.0	1.05	1.94
26/01/2020 18:45:15	26012020	260120	184515	22.050	12.187087	-56.117660	22.160	0.150	-0.440	1.030	22.030	-1.900	1.400																			1580064315.0	0.32	0.59
26/01/2020 18:45:16	26012020	260120	184516	22.020	12.187087	-56.117662	22.150	0.240	0.110	0.840	22.030	-1.300	1.200																			1580064316.0	0.37	0.69
26/01/2020 18:45:17	26012020	260120	184517	22.110	12.187087	-56.117665	22.250	0.360	0.520	0.430	22.140	-0.900	0.800																			1580064317.0	0.70	1.30
26/01/2020 18:45:18	26012020	260120	184518	22.280	12.187087	-56.117668	22.420	0.350	0.520	-0.100	22.320	-0.800	0.300																			1580064318.0	0.61	1.13
26/01/2020 18:45:19	26012020	260120	184519	22.470	12.187087	-56.117670	22.570	0.120	0.210	-0.560	22.490	-1.100	-0.200																			1580064319.0	0.35	0.65
26/01/2020 18:45:20	26012020	260120	184520	22.540	12.187088	-56.117670	22.610	-0.220	-0.170	-0.810	22.540	-1.500	-0.500																			1580064320.0	0.25	0.46
26/01/2020 18:45:21	26012020	260120	184521	22.470	12.187088	-56.117670	22.490	-0.430	-0.460	-0.860	22.430	-1.800	-0.500																			1580064321.0	0.21	0.39
26/01/2020 18:45:22	26012020	260120	184522	22.270	12.187090	-56.117668	22.280	-0.370	-0.560	-0.790	22.210	-1.900	-0.500																			1580064322.0	0.16	0.30
26/01/2020 18:45:23	26012020	260120	184523	21.970	12.187090	-56.117668	21.980	-0.100	-0.460	-0.580	21.910	-1.700	-0.100																			1580064323.0	0.06	0.11
26/01/2020 18:45:24	26012020	260120	184524	21.690	12.187090	-56.117668	21.720	0.180	-0.220	-0.360	21.650	-1.600	-0.100																			1580064324.0	0.05	0.09
26/01/2020 18:45:25	26012020	260120	184525	21.570	12.187088	-56.117668	21.670	0.280	0.070	-0.280	21.580	-1.300	0.000																			1580064325.0	0.14	0.26
26/01/2020 18:45:26	26012020	260120	184526	21.650	12.187088	-56.117670	21.780	0.160	0.280	-0.340	21.690	-1.100	0.000																			1580064326.0	0.24	0.44
26/01/2020 18:45:27	26012020	260120	184527	21.860	12.187088	-56.117672	22.000	-0.080	0.260	-0.460	21.910	-1.100	-0.100																			1580064327.0	0.29	0.54
26/01/2020 18:45:28	26012020	260120	184528	22.140	12.187088	-56.117672	22.230	-0.260	-0.020	-0.520	22.140	-1.400	-0.200																			1580064328.0	0.29	0.54
26/01/2020 18:45:29	26012020	260120	184529	22.300	12.187088	-56.117673	22.420	-0.260	-0.340	-0.370	22.330	-1.700	-0.100																			1580064329.0	0.23	0.43
26/01/2020 18:45:30	26012020	260120	184530	22.400	12.187090	-56.117672	22.500	-0.110	-0.500	-0.020	22.400	-1.900	0.300																			1580064330.0	0.32	0.59
26/01/2020 18:45:31	26012020	260120	184531	22.340	12.187088	-56.117668	22.430	0.100	-0.440	0.420	22.310	-1.800	0.700																			1580064331.0	0.62	1.15
26/01/2020 18:45:32	26012020	260120	184532	22.190	12.187087	-56.117665	22.280	0.340	-0.330	0.820	22.160	-1.700	1.100																			1580064332.0	0.80	1.48
26/01/2020 18:45:33	26012020	260120	184533	22.060	12.187085	-56.117662	22.150	0.540	-0.340	1.000	22.030	-1.700	1.300																			1580064333.0	0.78	1.44
26/01/2020 18:45:34	26012020	260120	184534	21.920	12.187085	-56.117660	22.000	0.550	-0.270	0.800	21.890	-1.700	1.200																			1580064334.0	0.52	0.96
26/01/2020 18:45:35	26012020	260120	184535	21.740	12.187087	-56.117660	21.810	0.250	0.130	0.260	21.700	-1.000	0.200																			1580064335.0	0.27	0.50
26/01/2020 18:45:36	26012020	260120	184536	21.550	12.187088	-56.117663	21.640	-0.230	0.650	-0.480	21.550	-0.800	-0.100																			1580064336.0	0.86	1.59
26/01/2020 18:45:37	26012020	260120	184537	21.560	12.187088	-56.117670	21.660	-0.610	0.750	-1.250	21.580	-0.600	-0.800																			1580064337.0	1.38	2.56
26/01/2020 18:45:38	26012020	260120	184538	21.790	12.187088	-56.117677	21.930	-0.650	0.300	-1.830	21.850	-1.000	-1.400																			1580064338.0	1.40	2.59
26/01/2020 18:45:39	26012020	260120	184539	22.130	12.187092	-56.117680	22.250	-0.390	-0.340	-1.980	22.180	-1.700	-1.700																			1580064339.0	0.92	1.70
26/01/2020 18:45:40	26012020	260120	184540	22.290	12.187093	-56.117680	22.370	-0.130	-0.710	-1.620	22.290	-2.100	-1.400																			1580064340.0	0.38	0.70
26/01/2020 18:45:41	26012020	260120	184541	22.190	12.187092	-56.117675	22.260	-0.020	-0.740	-0.860	22.160	-2.100	-0.600																			1580064341.0	0.82	1.52
26/01/2020 18:45:42	26012020	260120	184542	21.990	12.187090	-56.117672	22.110	0.020	-0.640	0.000	21.990	-2.000	0.200																			1580064342.0	1.15	2.13
26/01/2020 18:45:43	26012020	260120	184543	21.900	12.187087	-56.117667	22.000	0.180	-0.590	0.710	21.880	-2.000	1.000																			1580064343.0	0.95	1.76
26/01/2020 18:45:44	26012020	260120	184544	21.820	12.187087	-56.117665	21.940	0.490	-0.430	1.170	21.820	-1.800	1.500																			1580064344.0	0.54	1.00
26/01/2020 18:45:45	26012020	260120	184545	21.800	12.187087	-56.117663	21.910	0.730	-0.040	1.420	21.790	-1.500	1.700																			1580064345.0	0.33	0.61
26/01/2020 18:45:46	26012020	260120	184546	21.770	12.187087	-56.117662	21.900	0.610	0.450	1.360	21.770	-1.000	1.700																			1580064346.0	0.31	0.57
26/01/2020 18:45:47	26012020	260120	184547	21.770	12.187085	-56.117662	21.880	0.100	0.750	1.000	21.770	-0.700	1.400																			1580064347.0	0.32	0.59
26/01/2020 18:45:48	26012020	260120	184548	21.790	12.187085	-56.117663	21.890	-0.490	0.660	0.390	21.790	-0.700	0.800																			1580064348.0	0.34	0.63
26/01/2020 18:45:49	26012020	260120	184549	21.840	12.187085	-56.117665	21.950	-0.800	0.130	-0.460	21.860	-1.200	-0.000																			1580064349.0	0.64	1.19
26/01/2020 18:45:50	26012020	260120	184550	21.930	12.187088	-56.117670	22.030	-0.690	-0.480	-1.340	21.950	-1.800	-0.900																			1580064350.0	1.10	2.04
26/01/2020 18:45:51	26012020	260120	184551	21.980	12.187092	-56.117675	22.050	-0.310	-0.720	-1.890	21.970	-2.100	-1.500																			1580064351.0	1.29	2.39
26/01/2020 18:45:52	26012020	260120	184552	21.870	12.187093	-56.117678	21.930	0.080	-0.540	-1.950	21.870	-2.000	-1.600																			1580064352.0	0.91	1.69
26/01/2020 18:45:53	26012020	260120	184553	21.750	12.187093	-56.117680	21.790	0.330	-0.310	-1.590	21.720	-1.700	-1.300																			1580064353.0	0.41	0.76
26/01/2020 18:45:54	26012020	260120	184554	21.690	12.187092	-56.117680	21.770	0.440	-0.310	-1.020	21.690	-1.700	-0.800																			1580064354.0	0.36	0.67
26/01/2020 18:45:55	26012020	260120	184555	21.770	12.187092	-56.117677	21.900	0.440	-0.430	-0.410	21.810	-1.800	-0.200																			1580064355.0	0.58	1.07
26/01/2020 18:45:56	26012020	260120	184556	22.030	12.187092	-56.117673	22.140	0.300	-0.350	0.140	22.030	-1.700	0.400																			1580064356.0	0.82	1.52
26/01/2020 18:45:57	26012020	260120	184557	22.200	12.187090	-56.117670	22.350	0.050	0.030	0.670	22.230	-1.400	0.900																			1580064357.0	0.75	1.39
26/01/2020 18:45:58	26012020	260120	184558	22.250	12.187088	-56.117667	22.370	-0.240	0.500	1.190	22.250	-0.900	1.500																			1580064358.0	0.75	1.39
26/01/2020 18:45:59	26012020	260120	184559	22.180	12.187085	-56.117663	22.280	-0.430	0.690	1.510	22.150	-0.800	1.900	1014.00	26.30	26.30	20.80	20.80	605.00	71.00	72.00	382.00	30.10	67.00	3.90	92.00	3.80	42862	3351.00	27.90	28.00	1580064359.0	0.84	1.56
26/01/2020 18:46:00	26012020	260120	184600	22.020	12.187083	-56.117662	22.120	-0.430	0.460	1.470	22.020	-0.900	1.800																			1580064360.0	0.64	1.19
26/01/2020 18:46:01	26012020	260120	184601	21.920	12.187083	-56.117662	21.990	-0.280	-0.050	1.030	21.900	-1.400	1.400																			1580064361.0	0.16	0.30
26/01/2020 18:46:02	26012020	260120	184602	21.840	12.187085	-56.117663	21.910	-0.080	-0.530	0.270	21.840	-1.900	0.700																			1580064362.0	0.55	1.02
26/01/2020 18:46:03	26012020	260120	184603	21.860	12.187088	-56.117667	21.940	0.120	-0.760	-0.590	21.870	-2.100	-0.200																			1580064363.0	1.10	2.04
26/01/2020 18:46:04	26012020	260120	184604	21.970	12.187092	-56.117672	22.050	0.270	-0.740	-1.400	21.990	-2.100	-1.000																			1580064364.0	1.30	2.41
26/01/2020 18:46:05	26012020	260120	184605	22.090	12.187093	-56.117677	22.150	0.330	-0.560	-1.950	22.100	-2.000	-1.600																			1580064365.0	1.10	2.04
26/01/2020 18:46:06	26012020	260120	184606	22.160	12.187093	-56.117680	22.210	0.240	-0.280	-2.050	22.160	-1.700	-1.700																			1580064366.0	0.73	1.35
26/01/2020 18:46:07	26012020	260120	184607	22.190	12.187095	-56.117682	22.280	0.090	-0.010	-1.690	22.210	-1.400	-1.400																			1580064367.0	0.29	0.54
26/01/2020 18:46:08	26012020	260120	184608	22.300	12.187093	-56.117680	22.420	-0.020	0.160	-1.010	22.340	-1.200	-0.800																			1580064368.0	0.27	0.50
26/01/2020 18:46:09	26012020	260120	184609	22.450	12.187093	-56.117677	22.580	-0.070	0.250	-0.180	22.470	-1.100	0.000																			1580064369.0	0.75	1.39
26/01/2020 18:46:10	26012020	260120	184610	22.530	12.187092	-56.117673	22.650	-0.090	0.350	0.690	22.530	-1.000	0.900																			1580064370.0	1.08	2.00
26/01/2020 18:46:11	26012020	260120	184611	22.500	12.187088	-56.117667	22.620	-0.150	0.410	1.430	22.480	-1.000	1.700																			1580064371.0	1.26	2.33
26/01/2020 18:46:12	26012020	260120	184612	22.380	12.187087	-56.117663	22.520	-0.240	0.270	1.840	22.380	-1.100	2.100																			1580064372.0	1.13	2.09
26/01/2020 18:46:13	26012020	260120	184613	22.350	12.187085	-56.117660	22.490	-0.260	-0.120	1.720	22.360	-1.400	2.100																			1580064373.0	0.61	1.13
26/01/2020 18:46:14	26012020	260120	184614	22.500	12.187085	-56.117660	22.610	-0.160	-0.610	1.030	22.500	-1.900	1.400																			1580064374.0	0.14	0.26
26/01/2020 18:46:15	26012020	260120	184615	22.630	12.187088	-56.117663	22.740	-0.010	-0.860	0.140	22.650	-2.200	0.500																			1580064375.0	0.82	1.52
26/01/2020 18:46:16	26012020	260120	184616	22.700	12.187090	-56.117667	22.770	0.070	-0.660	-0.650	22.700	-2.100	-0.300																			1580064376.0	1.04	1.93
26/01/2020 18:46:17	26012020	260120	184617	22.680	12.187092	-56.117672	22.740	0.070	-0.230	-1.250	22.660	-1.700	-0.900																			1580064377.0	0.98	1.81
26/01/2020 18:46:18	26012020	260120	184618	22.580	12.187092	-56.117677	22.650	0.090	0.040	-1.600	22.580	-1.400	-1.200																			1580064378.0	0.89	1.65
26/01/2020 18:46:19	26012020	260120	184619	22.570	12.187092	-56.117678	22.650	0.200	-0.060	-1.780	22.580	-1.400	-1.400																			1580064379.0	0.56	1.04
26/01/2020 18:46:20	26012020	260120	184620	22.700	12.187093	-56.117680	22.810	0.340	-0.320	-1.830	22.740	-1.700	-1.500																			1580064380.0	0.48	0.89
26/01/2020 18:46:21	26012020	260120	184621	22.930	12.187097	-56.117680	23.060	0.390	-0.340	-1.530	22.970	-1.700	-1.300																			1580064381.0	0.58	1.07
26/01/2020 18:46:22	26012020	260120	184622	23.130	12.187097	-56.117678	23.260	0.250	0.020	-0.820	23.160	-1.400	-0.600																			1580064382.0	0.41	0.76
26/01/2020 18:46:23	26012020	260120	184623	23.270	12.187095	-56.117675	23.400	-0.080	0.560	0.100	23.290	-0.900	0.300																			1580064383.0	0.87	1.61
26/01/2020 18:46:24	26012020	260120	184624	23.290	12.187090	-56.117670	23.410	-0.480	0.880	1.040	23.290	-0.500	1.300																			1580064384.0	1.35	2.50
26/01/2020 18:46:25	26012020	260120	184625	23.240	12.187087	-56.117665	23.340	-0.770	0.670	1.700	23.230	-1.000	2.200																			1580064385.0	1.41	2.61
26/01/2020 18:46:26	26012020	260120	184626	23.220	12.187083	-56.117662	23.310	-0.770	-0.010	1.870	23.220	-1.300	2.200																			1580064386.0	0.92	1.70
26/01/2020 18:46:27	26012020	260120	184627	23.280	12.187085	-56.117660	23.390	-0.470	-0.760	1.570	23.290	-2.100	1.900																			1580064387.0	0.38	0.70
26/01/2020 18:46:28	26012020	260120	184628	23.340	12.187087	-56.117660	23.420	0.020	-1.130	0.990	23.340	-2.500	1.400																			1580064388.0	0.45	0.83
26/01/2020 18:46:29	26012020	260120	184629	23.290	12.187088	-56.117662	23.320	0.480	-1.080	0.320	23.260	-2.500	0.700																			1580064389.0	0.59	1.09
26/01/2020 18:46:30	26012020	260120	184630	23.170	12.187090	-56.117665	23.230	0.730	-0.760	-0.450	23.170	-2.200	-0.000																			1580064390.0	0.74	1.37
26/01/2020 18:46:31	26012020	260120	184631	23.190	12.187090	-56.117670	23.250	0.710	-0.390	-1.300	23.210	-1.800	-0.900																			1580064391.0	0.93	1.72
26/01/2020 18:46:32	26012020	260120	184632	23.340	12.187093	-56.117675	23.400	0.450	0.000	-2.040	23.370	-1.400	-1.600																			1580064392.0	1.17	2.17
26/01/2020 18:46:33	26012020	260120	184633	23.530	12.187095	-56.117680	23.600	0.130	0.440	-2.370	23.570	-1.000	-2.000																			1580064393.0	1.26	2.33
26/01/2020 18:46:34	26012020	260120	184634	23.770	12.187097	-56.117683	23.860	-0.080	0.720	-2.120	23.820	-0.700	-1.800																			1580064394.0	0.80	1.48
26/01/2020 18:46:35	26012020	260120	184635	24.060	12.187095	-56.117683	24.160	-0.160	0.600	-1.420	24.120	-0.700	-1.200																			1580064395.0	0.30	0.56
26/01/2020 18:46:36	26012020	260120	184636	24.250	12.187093	-56.117677	24.320	-0.280	0.230	-0.340	24.260	-1.100	-0.100																			1580064396.0	1.29	2.39
26/01/2020 18:46:37	26012020	260120	184637	24.180	12.187092	-56.117668	24.210	-0.510	-0.050	0.930	24.130	-1.400	1.100																			1580064397.0	1.84	3.41
26/01/2020 18:46:38	26012020	260120	184638	23.880	12.187088	-56.117662	23.920	-0.680	-0.130	1.970	23.810	-1.500	2.200																			1580064398.0	1.71	3.17
26/01/2020 18:46:39	26012020	260120	184639	23.550	12.187085	-56.117657	23.610	-0.520	-0.220	2.420	23.490	-1.600	2.700																			1580064399.0	1.18	2.19
26/01/2020 18:46:40	26012020	260120	184640	23.330	12.187083	-56.117655	23.420	-0.050	-0.520	2.170	23.310	-1.900	2.500																			1580064400.0	0.51	0.94
26/01/2020 18:46:41	26012020	260120	184641	23.350	12.187083	-56.117657	23.480	0.440	-0.860	1.280	23.380	-2.200	1.700																			1580064401.0	0.31	0.57
26/01/2020 18:46:42	26012020	260120	184642	23.610	12.187087	-56.117660	23.740	0.620	-0.850	0.010	23.680	-2.200	0.500																			1580064402.0	1.13	2.09
26/01/2020 18:46:43	26012020	260120	184643	23.910	12.187090	-56.117668	23.990	0.460	-0.410	-1.270	23.950	-1.800	-0.800																			1580064403.0	1.62	3.00
26/01/2020 18:46:44	26012020	260120	184644	24.070	12.187093	-56.117675	24.100	0.140	0.160	-2.200	24.080	-1.300	-1.800																			1580064404.0	1.73	3.20
26/01/2020 18:46:45	26012020	260120	184645	24.090	12.187093	-56.117682	24.100	-0.110	0.470	-2.550	24.080	-0.900	-2.200																			1580064405.0	1.43	2.65
26/01/2020 18:46:46	26012020	260120	184646	24.070	12.187095	-56.117685	24.090	-0.160	0.390	-2.260	24.070	-1.000	-2.000																			1580064406.0	0.74	1.37
26/01/2020 18:46:47	26012020	260120	184647	24.080	12.187095	-56.117685	24.120	-0.030	0.090	-1.390	24.090	-1.300	-1.200																			1580064407.0	0.26	0.48
26/01/2020 18:46:48	26012020	260120	184648	24.130	12.187093	-56.117678	24.190	0.110	-0.190	-0.240	24.140	-1.500	-0.000																			1580064408.0	1.26	2.33
26/01/2020 18:46:49	26012020	260120	184649	24.250	12.187092	-56.117670	24.350	0.120	-0.410	0.710	24.280	-1.900	1.400																			1580064409.0	1.95	3.61
26/01/2020 18:46:50	26012020	260120	184650	24.380	12.187088	-56.117662	24.460	-0.040	-0.510	1.290	24.380	-1.900	1.600																			1580064410.0	1.87	3.46
26/01/2020 18:46:51	26012020	260120	184651	24.290	12.187087	-56.117657	24.310	-0.240	-0.230	1.650	24.240	-1.600	1.900																			1580064411.0	1.04	1.93
26/01/2020 18:46:52	26012020	260120	184652	23.860	12.187085	-56.117657	23.930	-0.270	0.300	1.760	23.860	-1.100	2.100																			1580064412.0	0.31	0.57
26/01/2020 18:46:53	26012020	260120	184653	23.540	12.187083	-56.117658	23.550	-0.150	0.510	1.350	23.490	-0.900	1.800																			1580064413.0	0.61	1.13
26/01/2020 18:46:54	26012020	260120	184654	23.370	12.187085	-56.117663	23.430	-0.020	0.160	0.320	23.380	-1.200	0.800																			1580064414.0	0.99	1.83
26/01/2020 18:46:55	26012020	260120	184655	23.570	12.187088	-56.117670	23.670	0.030	-0.420	-1.030	23.650	-1.700	-0.500																			1580064415.0	1.71	3.17
26/01/2020 18:46:56	26012020	260120	184656	24.040	12.187095	-56.117678	24.150	0.030	-0.730	-2.200	24.140	-2.100	-1.700																			1580064416.0	2.05	3.80
26/01/2020 18:46:57	26012020	260120	184657	24.510	12.187098	-56.117685	24.590	0.050	-0.610	-2.750	24.580	-2.000	-2.400																			1580064417.0	1.55	2.87
26/01/2020 18:46:58	26012020	260120	184658	24.790	12.187098	-56.117687	24.840	0.090	-0.280	-2.480	24.790	-1.700	-2.200																			1580064418.0	0.52	0.96
26/01/2020 18:46:59	26012020	260120	184659	24.800	12.187097	-56.117683	24.850	0.090	-0.050	-1.520	24.780	-1.400	-1.300	1013.90	26.30	26.20	20.70	20.70	605.00	71.00	71.00	382.00	30.20	60.00	3.60	90.00	3.30	42783	3464.00	27.90	27.90	1580064419.0	0.77	1.43
26/01/2020 18:47:00	26012020	260120	184700	24.640	12.187093	-56.117677	24.690	0.000	0.060	-0.260	24.600	-1.300	-0.100																			1580064420.0	1.62	3.00
26/01/2020 18:47:01	26012020	260120	184701	24.400	12.187090	-56.117670	24.460	-0.110	0.130	0.850	24.350	-1.200	1.100																			1580064421.0	1.81	3.35
26/01/2020 18:47:02	26012020	260120	184702	24.190	12.187087	-56.117663	24.270	-0.110	0.140	1.570	24.150	-1.200	1.800																			1580064422.0	1.38	2.56
26/01/2020 18:47:03	26012020	260120	184703	24.050	12.187085	-56.117660	24.160	0.040	0.010	1.810	24.050	-1.300	2.100																			1580064423.0	0.75	1.39
26/01/2020 18:47:04	26012020	260120	184704	24.080	12.187085	-56.117660	24.190	0.270	-0.270	1.580	24.080	-1.600	1.900																			1580064424.0	0.14	0.26
26/01/2020 18:47:05	26012020	260120	184705	24.190	12.187087	-56.117662	24.320	0.370	-0.530	0.940	24.230	-1.900	1.400																			1580064425.0	0.55	1.02
26/01/2020 18:47:06	26012020	260120	184706	24.350	12.187090	-56.117665	24.420	0.240	-0.440	0.150	24.350	-1.900	0.600																			1580064426.0	1.01	1.87
26/01/2020 18:47:07	26012020	260120	184707	24.370	12.187093	-56.117670	24.410	-0.070	-0.000	-0.570	24.370	-1.400	-0.100																			1580064427.0	1.13	2.09
26/01/2020 18:47:08	26012020	260120	184708	24.340	12.187093	-56.117675	24.360	-0.370	0.450	-1.080	24.340	-1.000	-0.700																			1580064428.0	1.04	1.93
26/01/2020 18:47:09	26012020	260120	184709	24.350	12.187092	-56.117678	24.370	-0.520	0.570	-1.300	24.360	-0.800	-0.900																			1580064429.0	0.82	1.52
26/01/2020 18:47:10	26012020	260120	184710	24.420	12.187092	-56.117680	24.460	-0.470	0.280	-1.270	24.430	-1.000	-0.900																			1580064430.0	0.36	0.67
26/01/2020 18:47:11	26012020	260120	184711	24.480	12.187092	-56.117678	24.520	-0.270	-0.250	-1.090	24.490	-1.600	-0.800																			1580064431.0	0.11	0.20
26/01/2020 18:47:12	26012020	260120	184712	24.510	12.187093	-56.117677	24.560	0.040	-0.750	-0.780	24.510	-2.100	-0.500																			1580064432.0	0.39	0.72
26/01/2020 18:47:13	26012020	260120	184713	24.520	12.187093	-56.117675	24.560	0.390	-1.020	-0.330	24.520	-2.400	-0.100																			1580064433.0	0.50	0.93
26/01/2020 18:47:14	26012020	260120	184714	24.480	12.187093	-56.117672	24.520	0.640	-0.920	0.300	24.450	-2.300	0.600																			1580064434.0	0.65	1.20
26/01/2020 18:47:15	26012020	260120	184715	24.310	12.187093	-56.117668	24.340	0.580	-0.390	0.910	24.310	-1.800	1.200																			1580064435.0	0.85	1.57
26/01/2020 18:47:16	26012020	260120	184716	24.100	12.187090	-56.117665	24.150	0.230	0.360	1.220	24.070	-1.100	1.500																			1580064436.0	0.78	1.44
26/01/2020 18:47:17	26012020	260120	184717	23.950	12.187088	-56.117665	24.020	-0.200	0.880	1.110	23.950	-0.500	1.500																			1580064437.0	0.56	1.04
26/01/2020 18:47:18	26012020	260120	184718	23.930	12.187087	-56.117667	24.010	-0.430	0.760	0.580	23.940	-0.600	1.000																			1580064438.0	0.46	0.85
26/01/2020 18:47:19	26012020	260120	184719	24.050	12.187088	-56.117670	24.120	-0.380	0.160	-0.200	24.090	-1.100	0.200																			1580064439.0	0.79	1.46
26/01/2020 18:47:20	26012020	260120	184720	24.230	12.187092	-56.117673	24.260	-0.150	-0.430	-0.920	24.250	-1.800	-0.500																			1580064440.0	1.18	2.19
26/01/2020 18:47:21	26012020	260120	184721	24.280	12.187097	-56.117677	24.280	0.090	-0.650	-1.300	24.260	-2.000	-0.900																			1580064441.0	1.02	1.89
26/01/2020 18:47:22	26012020	260120	184722	24.120	12.187097	-56.117678	24.090	0.150	-0.480	-1.270	24.060	-1.900	-1.000																			1580064442.0	0.42	0.78
26/01/2020 18:47:23	26012020	260120	184723	23.830	12.187097	-56.117678	23.830	0.040	-0.250	-0.970	23.790	-1.700	-0.700																			1580064443.0	0.24	0.44
26/01/2020 18:47:24	26012020	260120	184724	23.670	12.187095	-56.117678	23.710	-0.100	-0.130	-0.670	23.660	-1.500	-0.400																			1580064444.0	0.33	0.61
26/01/2020 18:47:25	26012020	260120	184725	23.700	12.187095	-56.117677	23.780	-0.130	-0.050	-0.420	23.730	-1.400	-0.100																			1580064445.0	0.15	0.28
26/01/2020 18:47:26	26012020	260120	184726	23.900	12.187093	-56.117677	23.970	-0.070	0.020	-0.210	23.900	-1.400	0.100																			1580064446.0	0.13	0.24
26/01/2020 18:47:27	26012020	260120	184727	24.050	12.187093	-56.117675	24.150	-0.010	0.010	-0.040	24.090	-1.400	0.300																			1580064447.0	0.25	0.46
26/01/2020 18:47:28	26012020	260120	184728	24.160	12.187093	-56.117675	24.230	-0.010	-0.080	0.190	24.160	-1.400	0.500																			1580064448.0	0.32	0.59
26/01/2020 18:47:29	26012020	260120	184729	24.100	12.187093	-56.117673	24.140	0.020	-0.170	0.570	24.070	-1.500	0.800																			1580064449.0	0.39	0.72
26/01/2020 18:47:30	26012020	260120	184730	23.920	12.187092	-56.117670	23.970	0.170	-0.290	0.870	23.880	-1.600	1.200																			1580064450.0	0.49	0.91
26/01/2020 18:47:31	26012020	260120	184731	23.770	12.187092	-56.117668	23.820	0.370	-0.450	0.820	23.750	-1.800	1.200																			1580064451.0	0.46	0.85
26/01/2020 18:47:32	26012020	260120	184732	23.680	12.187093	-56.117667	23.730	0.410	-0.440	0.420	23.660	-1.800	0.800																			1580064452.0	0.30	0.56
26/01/2020 18:47:33	26012020	260120	184733	23.590	12.187095	-56.117668	23.630	0.180	-0.080	-0.090	23.570	-1.500	0.300																			1580064453.0	0.48	0.89
26/01/2020 18:47:34	26012020	260120	184734	23.510	12.187095	-56.117673	23.550	-0.180	0.400	-0.610	23.500	-1.000	-0.200																			1580064454.0	0.87	1.61
26/01/2020 18:47:35	26012020	260120	184735	23.550	12.187095	-56.117678	23.630	-0.370	0.530	-1.170	23.590	-0.800	-0.800																			1580064455.0	1.09	2.02
26/01/2020 18:47:36	26012020	260120	184736	23.790	12.187097	-56.117682	23.880	-0.290	0.190	-1.600	23.840	-1.100	-1.200																			1580064456.0	0.85	1.57
26/01/2020 18:47:37	26012020	260120	184737	23.990	12.187098	-56.117683	24.050	-0.180	-0.210	-1.640	24.000	-1.600	-1.300																			1580064457.0	0.42	0.78
26/01/2020 18:47:38	26012020	260120	184738	23.930	12.187100	-56.117682	23.950	-0.250	-0.330	-1.250	23.900	-1.700	-1.000																			1580064458.0	0.36	0.67
26/01/2020 18:47:39	26012020	260120	184739	23.710	12.187098	-56.117680	23.730	-0.350	-0.300	-0.690	23.710	-1.700	-0.400																			1580064459.0	0.41	0.76
26/01/2020 18:47:40	26012020	260120	184740	23.590	12.187097	-56.117678	23.670	-0.200	-0.410	-0.200	23.590	-1.800	0.100																			1580064460.0	0.38	0.70
26/01/2020 18:47:41	26012020	260120	184741	23.680	12.187097	-56.117678	23.790	0.270	-0.660	0.140	23.710	-2.000	0.400																			1580064461.0	0.20	0.37
26/01/2020 18:47:42	26012020	260120	184742	23.850	12.187098	-56.117677	23.950	0.720	-0.610	0.520	23.870	-2.000	0.800																			1580064462.0	0.45	0.83
26/01/2020 18:47:43	26012020	260120	184743	23.900	12.187097	-56.117673	23.970	0.750	-0.110	0.960	23.880	-1.600	1.200																			1580064463.0	0.63	1.17
26/01/2020 18:47:44	26012020	260120	184744	23.770	12.187095	-56.117670	23.830	0.270	0.430	1.200	23.740	-1.000	1.500																			1580064464.0	0.92	1.70
26/01/2020 18:47:45	26012020	260120	184745	23.630	12.187092	-56.117668	23.690	-0.360	0.570	0.970	23.610	-0.800	1.300																			1580064465.0	0.74	1.37
26/01/2020 18:47:46	26012020	260120	184746	23.550	12.187092	-56.117668	23.630	-0.660	0.280	0.340	23.550	-1.100	0.700																			1580064466.0	0.25	0.46
26/01/2020 18:47:47	26012020	260120	184747	23.540	12.187093	-56.117673	23.580	-0.440	-0.170	-0.430	23.530	-1.500	-0.000																			1580064467.0	0.95	1.76
26/01/2020 18:47:48	26012020	260120	184748	23.510	12.187098	-56.117677	23.550	0.100	-0.520	-1.100	23.510	-1.900	-0.700																			1580064468.0	1.26	2.33
26/01/2020 18:47:49	26012020	260120	184749	23.490	12.187102	-56.117682	23.510	0.520	-0.580	-1.550	23.490	-2.000	-1.200																			1580064469.0	1.03	1.91
26/01/2020 18:47:50	26012020	260120	184750	23.510	12.187102	-56.117683	23.540	0.510	-0.370	-1.790	23.520	-1.800	-1.500																			1580064470.0	0.64	1.19
26/01/2020 18:47:51	26012020	260120	184751	23.610	12.187102	-56.117685	23.660	0.090	-0.070	-1.870	23.610	-1.500	-1.500																			1580064471.0	0.41	0.76
26/01/2020 18:47:52	26012020	260120	184752	23.790	12.187102	-56.117687	23.810	-0.420	0.200	-1.620	23.790	-1.200	-1.400																			1580064472.0	0.40	0.74
26/01/2020 18:47:53	26012020	260120	184753	23.910	12.187102	-56.117688	23.980	-0.640	0.300	-1.010	23.910	-1.100	-0.800																			1580064473.0	0.23	0.43
26/01/2020 18:47:54	26012020	260120	184754	24.030	12.187100	-56.117685	24.120	-0.500	0.150	-0.100	24.040	-1.200	0.100																			1580064474.0	0.63	1.17
26/01/2020 18:47:55	26012020	260120	184755	24.040	12.187097	-56.117680	24.120	-0.180	-0.100	0.940	24.030	-1.500	1.100																			1580064475.0	1.28	2.37
26/01/2020 18:47:56	26012020	260120	184756	23.890	12.187095	-56.117673	23.960	0.120	-0.300	1.840	23.850	-1.700	2.100																			1580064476.0	1.64	3.04
26/01/2020 18:47:57	26012020	260120	184757	23.690	12.187092	-56.117667	23.770	0.360	-0.530	2.180	23.660	-1.900	2.500																			1580064477.0	1.45	2.69
26/01/2020 18:47:58	26012020	260120	184758	23.620	12.187092	-56.117663	23.720	0.580	-0.800	1.770	23.620	-2.200	2.200																			1580064478.0	0.70	1.30
26/01/2020 18:47:59	26012020	260120	184759	23.640	12.187093	-56.117663	23.700	0.660	-0.720	0.840	23.640	-2.100	1.300	1013.90	26.30	26.30	20.80	20.80	612.00	71.00	71.00	382.00	30.20	63.00	3.80	91.00	3.70	43000	3409.00	27.80	27.90	1580064479.0	0.56	1.04
26/01/2020 18:48:00	26012020	260120	184800	23.590	12.187097	-56.117670	23.620	0.490	-0.120	-0.220	23.580	-1.600	0.200																			1580064480.0	1.34	2.48
26/01/2020 18:48:01	26012020	260120	184801	23.550	12.187098	-56.117677	23.590	0.100	0.560	-1.250	23.560	-0.900	-0.800																			1580064481.0	1.75	3.24
26/01/2020 18:48:02	26012020	260120	184802	23.680	12.187100	-56.117685	23.730	-0.300	0.740	-2.160	23.720	-0.600	-1.800																			1580064482.0	1.80	3.33
26/01/2020 18:48:03	26012020	260120	184803	23.930	12.187102	-56.117692	23.980	-0.490	0.420	-2.640	23.980	-0.900	-2.300																			1580064483.0	1.36	2.52
26/01/2020 18:48:04	26012020	260120	184804	24.150	12.187103	-56.117693	24.200	-0.490	-0.010	-2.460	24.180	-1.400	-2.200																			1580064484.0	0.61	1.13
26/01/2020 18:48:05	26012020	260120	184805	24.240	12.187103	-56.117692	24.300	-0.420	-0.290	-1.690	24.240	-1.700	-1.500																			1580064485.0	0.55	1.02
26/01/2020 18:48:06	26012020	260120	184806	24.210	12.187102	-56.117685	24.270	-0.320	-0.400	-0.620	24.190	-1.800	-0.400																			1580064486.0	1.26	2.33
26/01/2020 18:48:07	26012020	260120	184807	24.040	12.187098	-56.117680	24.100	-0.170	-0.400	0.520	24.010	-1.800	0.700																			1580064487.0	1.56	2.89
26/01/2020 18:48:08	26012020	260120	184808	23.830	12.187095	-56.117673	23.920	0.050	-0.470	1.390	23.800	-1.800	1.600																			1580064488.0	1.48	2.74
26/01/2020 18:48:09	26012020	260120	184809	23.730	12.187093	-56.117668	23.850	0.350	-0.640	1.680	23.730	-2.000	2.000																			1580064489.0	0.98	1.81
26/01/2020 18:48:10	26012020	260120	184810	23.830	12.187093	-56.117668	23.950	0.610	-0.670	1.430	23.830	-2.100	1.800																			1580064490.0	0.32	0.59
26/01/2020 18:48:11	26012020	260120	184811	23.960	12.187095	-56.117668	24.080	0.690	-0.320	0.910	23.980	-1.800	1.300																			1580064491.0	0.48	0.89
26/01/2020 18:48:12	26012020	260120	184812	24.060	12.187097	-56.117672	24.160	0.480	0.230	0.240	24.080	-1.200	0.600																			1580064492.0	0.67	1.24
26/01/2020 18:48:13	26012020	260120	184813	24.130	12.187097	-56.117677	24.200	0.120	0.590	-0.480	24.140	-0.800	-0.100																			1580064493.0	0.89	1.65
26/01/2020 18:48:14	26012020	260120	184814	24.160	12.187098	-56.117680	24.210	-0.210	0.610	-1.080	24.160	-0.800	-0.700																			1580064494.0	0.96	1.78
26/01/2020 18:48:15	26012020	260120	184815	24.140	12.187100	-56.117683	24.170	-0.400	0.400	-1.420	24.130	-1.000	-1.100																			1580064495.0	0.75	1.39
26/01/2020 18:48:16	26012020	260120	184816	24.050	12.187100	-56.117685	24.090	-0.520	0.110	-1.480	24.050	-1.300	-1.200																			1580064496.0	0.35	0.65
26/01/2020 18:48:17	26012020	260120	184817	24.020	12.187100	-56.117685	24.080	-0.600	-0.210	-1.330	24.020	-1.600	-1.000																			1580064497.0	0.03	0.06
26/01/2020 18:48:18	26012020	260120	184818	24.140	12.187100	-56.117685	24.260	-0.510	-0.610	-1.170	24.190	-2.000	-0.900																			1580064498.0	0.14	0.26
26/01/2020 18:48:19	26012020	260120	184819	24.420	12.187100	-56.117683	24.520	-0.180	-0.900	-0.920	24.470	-2.300	-0.700																			1580064499.0	0.24	0.44
26/01/2020 18:48:20	26012020	260120	184820	24.540	12.187100	-56.117682	24.590	0.260	-0.800	-0.300	24.520	-2.200	-0.100																			1580064500.0	0.51	0.94
26/01/2020 18:48:21	26012020	260120	184821	24.390	12.187098	-56.117677	24.450	0.580	-0.370	0.520	24.350	-1.800	0.700																			1580064501.0	0.92	1.70
26/01/2020 18:48:22	26012020	260120	184822	24.160	12.187095	-56.117673	24.270	0.640	0.000	1.050	24.160	-1.400	1.300																			1580064502.0	1.18	2.19
26/01/2020 18:48:23	26012020	260120	184823	24.080	12.187093	-56.117670	24.170	0.470	0.120	1.020	24.070	-1.300	1.400																			1580064503.0	0.72	1.33
26/01/2020 18:48:24	26012020	260120	184824	24.100	12.187093	-56.117670	24.210	0.200	0.090	0.570	24.130	-1.300	0.900																			1580064504.0	0.20	0.37
26/01/2020 18:48:25	26012020	260120	184825	24.240	12.187095	-56.117673	24.360	-0.040	0.140	-0.020	24.270	-1.300	0.400																			1580064505.0	0.88	1.63
26/01/2020 18:48:26	26012020	260120	184826	24.400	12.187098	-56.117678	24.510	-0.250	0.280	-0.520	24.430	-1.100	-0.200																			1580064506.0	1.00	1.85
26/01/2020 18:48:27	26012020	260120	184827	24.510	12.187098	-56.117682	24.590	-0.410	0.340	-0.850	24.520	-1.000	-0.500																			1580064507.0	0.73	1.35
26/01/2020 18:48:28	26012020	260120	184828	24.530	12.187098	-56.117683	24.600	-0.460	0.200	-0.930	24.520	-1.200	-0.600																			1580064508.0	0.37	0.69
26/01/2020 18:48:29	26012020	260120	184829	24.460	12.187098	-56.117683	24.530	-0.350	-0.170	-0.770	24.460	-1.500	-0.500																			1580064509.0	0.15	0.28
26/01/2020 18:48:30	26012020	260120	184830	24.420	12.187097	-56.117680	24.500	-0.080	-0.650	-0.550	24.420	-2.000	-0.300																			1580064510.0	0.49	0.91
26/01/2020 18:48:31	26012020	260120	184831	24.480	12.187098	-56.117678	24.580	0.180	-0.890	-0.420	24.490	-2.300	-0.100																			1580064511.0	0.63	1.17
26/01/2020 18:48:32	26012020	260120	184832	24.510	12.187098	-56.117675	24.590	0.260	-0.620	-0.310	24.510	-2.100	-0.000																			1580064512.0	0.42	0.78
26/01/2020 18:48:33	26012020	260120	184833	24.450	12.187097	-56.117675	24.520	0.150	-0.070	-0.170	24.430	-1.500	0.100																			1580064513.0	0.23	0.43
26/01/2020 18:48:34	26012020	260120	184834	24.400	12.187095	-56.117677	24.480	0.010	0.260	-0.100	24.400	-1.100	0.200																			1580064514.0	0.46	0.85
26/01/2020 18:48:35	26012020	260120	184835	24.430	12.187095	-56.117678	24.530	-0.050	0.240	-0.140	24.430	-1.100	0.200																			1580064515.0	0.29	0.54
26/01/2020 18:48:36	26012020	260120	184836	24.450	12.187095	-56.117678	24.540	-0.010	0.090	-0.130	24.440	-1.300	0.200																			1580064516.0	0.29	0.54
26/01/2020 18:48:37	26012020	260120	184837	24.410	12.187097	-56.117678	24.500	0.110	-0.060	0.000	24.410	-1.400	0.300																			1580064517.0	0.23	0.43
26/01/2020 18:48:38	26012020	260120	184838	24.420	12.187097	-56.117677	24.520	0.240	-0.290	0.100	24.430	-1.700	0.400																			1580064518.0	0.27	0.50
26/01/2020 18:48:39	26012020	260120	184839	24.470	12.187097	-56.117675	24.580	0.240	-0.400	0.120	24.480	-1.800	0.400																			1580064519.0	0.45	0.83
26/01/2020 18:48:40	26012020	260120	184840	24.430	12.187097	-56.117673	24.500	0.050	-0.180	0.090	24.410	-1.600	0.400																			1580064520.0	0.35	0.65
26/01/2020 18:48:41	26012020	260120	184841	24.310	12.187095	-56.117673	24.360	-0.210	0.180	-0.060	24.290	-1.200	0.300																			1580064521.0	0.22	0.41
26/01/2020 18:48:42	26012020	260120	184842	24.260	12.187095	-56.117675	24.340	-0.370	0.310	-0.380	24.270	-1.100	-0.000																			1580064522.0	0.51	0.94
26/01/2020 18:48:43	26012020	260120	184843	24.410	12.187095	-56.117678	24.530	-0.340	0.070	-0.780	24.410	-1.300	-0.400																			1580064523.0	0.55	1.02
26/01/2020 18:48:44	26012020	260120	184844	24.640	12.187097	-56.117680	24.740	-0.180	-0.310	-1.020	24.680	-1.700	-0.700																			1580064524.0	0.56	1.04
26/01/2020 18:48:45	26012020	260120	184845	24.700	12.187098	-56.117682	24.760	0.010	-0.470	-0.850	24.690	-1.900	-0.600																			1580064525.0	0.43	0.80
26/01/2020 18:48:46	26012020	260120	184846	24.550	12.187098	-56.117680	24.590	0.170	-0.380	-0.410	24.520	-1.800	-0.200																			1580064526.0	0.25	0.46
26/01/2020 18:48:47	26012020	260120	184847	24.330	12.187097	-56.117677	24.370	0.280	-0.280	0.090	24.290	-1.700	0.300																			1580064527.0	0.71	1.31
26/01/2020 18:48:48	26012020	260120	184848	24.160	12.187093	-56.117673	24.240	0.310	-0.300	0.470	24.140	-1.700	0.700																			1580064528.0	0.83	1.54
26/01/2020 18:48:49	26012020	260120	184849	24.180	12.187093	-56.117672	24.300	0.260	-0.360	0.480	24.210	-1.800	0.800																			1580064529.0	0.61	1.13
26/01/2020 18:48:50	26012020	260120	184850	24.370	12.187095	-56.117670	24.440	0.110	-0.170	0.160	24.370	-1.600	0.500																			1580064530.0	0.24	0.44
26/01/2020 18:48:51	26012020	260120	184851	24.410	12.187095	-56.117672	24.470	-0.120	0.320	-0.180	24.400	-1.100	0.200																			1580064531.0	0.45	0.83
26/01/2020 18:48:52	26012020	260120	184852	24.280	12.187095	-56.117677	24.320	-0.320	0.720	-0.400	24.240	-0.700	-0.100																			1580064532.0	0.76	1.41
26/01/2020 18:48:53	26012020	260120	184853	24.130	12.187093	-56.117680	24.190	-0.350	0.610	-0.530	24.120	-0.800	-0.200																			1580064533.0	0.77	1.43
26/01/2020 18:48:54	26012020	260120	184854	24.140	12.187095	-56.117682	24.240	-0.190	-0.010	-0.640	24.160	-1.300	-0.300																			1580064534.0	0.43	0.80
26/01/2020 18:48:55	26012020	260120	184855	24.320	12.187097	-56.117682	24.450	0.020	-0.650	-0.680	24.320	-2.000	-0.400																			1580064535.0	0.38	0.70
26/01/2020 18:48:56	26012020	260120	184856	24.560	12.187097	-56.117678	24.690	0.070	-0.900	-0.640	24.600	-2.300	-0.400																			1580064536.0	0.54	1.00
26/01/2020 18:48:57	26012020	260120	184857	24.700	12.187097	-56.117677	24.790	-0.050	-0.670	-0.510	24.700	-2.100	-0.200																			1580064537.0	0.56	1.04
26/01/2020 18:48:58	26012020	260120	184858	24.540	12.187095	-56.117675	24.630	-0.160	-0.200	-0.180	24.540	-1.600	0.100																			1580064538.0	0.60	1.11
26/01/2020 18:48:59	26012020	260120	184859	24.270	12.187092	-56.117673	24.300	-0.040	0.050	0.210	24.200	-1.400	0.500	1013.90	26.30	26.30	20.80	20.80	630.00	71.00	71.00	383.00	30.30	61.00	4.40	88.00	4.30	43470	3368.00	27.80	27.90	1580064539.0	0.65	1.20
26/01/2020 18:49:00	26012020	260120	184900	23.870	12.187090	-56.117673	23.980	0.320	-0.160	0.420	23.870	-1.500	0.700																			1580064540.0	0.34	0.63
26/01/2020 18:49:01	26012020	260120	184901	23.710	12.187092	-56.117672	23.780	0.680	-0.410	0.410	23.690	-1.800	0.700																			1580064541.0	0.44	0.81
26/01/2020 18:49:02	26012020	260120	184902	23.680	12.187095	-56.117672	23.760	0.710	-0.270	0.160	23.690	-1.700	0.500																			1580064542.0	0.64	1.19
26/01/2020 18:49:03	26012020	260120	184903	23.810	12.187097	-56.117673	23.910	0.280	0.290	-0.370	23.850	-1.200	0.000																			1580064543.0	0.47	0.87
26/01/2020 18:49:04	26012020	260120	184904	24.020	12.187097	-56.117677	24.120	-0.420	0.910	-0.920	24.070	-0.600	-0.500																			1580064544.0	0.78	1.44
26/01/2020 18:49:05	26012020	260120	184905	24.210	12.187093	-56.117682	24.280	-0.990	1.100	-1.190	24.240	-0.300	-0.900																			1580064545.0	1.01	1.87
26/01/2020 18:49:06	26012020	260120	184906	24.310	12.187092	-56.117683	24.380	-1.080	0.540	-1.120	24.320	-0.800	-0.800																			1580064546.0	0.70	1.30
26/01/2020 18:49:07	26012020	260120	184907	24.340	12.187092	-56.117683	24.410	-0.650	-0.550	-0.860	24.350	-1.800	-0.600																			1580064547.0	0.11	0.20
26/01/2020 18:49:08	26012020	260120	184908	24.350	12.187093	-56.117680	24.410	0.060	-1.550	-0.470	24.340	-2.900	-0.200																			1580064548.0	0.77	1.43
26/01/2020 18:49:09	26012020	260120	184909	24.290	12.187095	-56.117677	24.320	0.710	-1.860	0.030	24.260	-3.300	0.300																			1580064549.0	0.99	1.83
26/01/2020 18:49:10	26012020	260120	184910	24.130	12.187095	-56.117672	24.170	1.050	-1.270	0.540	24.090	-2.800	0.800																			1580064550.0	0.89	1.65
26/01/2020 18:49:11	26012020	260120	184911	23.910	12.187093	-56.117668	23.950	0.920	-0.090	0.910	23.870	-1.600	1.200																			1580064551.0	0.94	1.74
26/01/2020 18:49:12	26012020	260120	184912	23.650	12.187088	-56.117667	23.690	0.360	1.020	0.950	23.590	-0.500	1.300																			1580064552.0	0.99	1.83
26/01/2020 18:49:13	26012020	260120	184913	23.430	12.187085	-56.117668	23.500	-0.340	1.470	0.490	23.420	0.100	0.900																			1580064553.0	0.77	1.43
26/01/2020 18:49:14	26012020	260120	184914	23.530	12.187085	-56.117673	23.580	-0.770	1.070	-0.440	23.530	-0.300	-0.000																			1580064554.0	1.12	2.07
26/01/2020 18:49:15	26012020	260120	184915	23.820	12.187090	-56.117682	23.940	-0.680	0.120	-1.410	23.910	-1.200	-1.000																			1580064555.0	1.69	3.13
26/01/2020 18:49:16	26012020	260120	184916	24.200	12.187095	-56.117687	24.270	-0.220	-0.720	-1.900	24.250	-2.100	-1.600																			1580064556.0	1.60	2.96
26/01/2020 18:49:17	26012020	260120	184917	24.310	12.187098	-56.117687	24.320	0.190	-0.980	-1.690	24.290	-2.400	-1.400																			1580064557.0	0.72	1.33
26/01/2020 18:49:18	26012020	260120	184918	24.120	12.187097	-56.117683	24.110	0.290	-0.680	-0.970	24.070	-2.100	-0.800																			1580064558.0	0.64	1.19
26/01/2020 18:49:19	26012020	260120	184919	23.830	12.187093	-56.117680	23.840	0.130	-0.290	-0.140	23.830	-1.700	0.100																			1580064559.0	1.34	2.48
26/01/2020 18:49:20	26012020	260120	184920	23.620	12.187088	-56.117675	23.670	-0.060	-0.120	0.420	23.590	-1.500	0.700																			1580064560.0	1.29	2.39
26/01/2020 18:49:21	26012020	260120	184921	23.540	12.187087	-56.117673	23.610	-0.070	-0.160	0.540	23.550	-1.500	0.900																			1580064561.0	0.61	1.13
26/01/2020 18:49:22	26012020	260120	184922	23.590	12.187088	-56.117673	23.670	0.100	-0.230	0.430	23.600	-1.600	0.800																			1580064562.0	0.19	0.35
26/01/2020 18:49:23	26012020	260120	184923	23.660	12.187090	-56.117675	23.740	0.300	-0.200	0.300	23.680	-1.600	0.600																			1580064563.0	0.50	0.93
26/01/2020 18:49:24	26012020	260120	184924	23.710	12.187092	-56.117675	23.760	0.310	0.040	0.210	23.700	-1.400	0.500																			1580064564.0	0.38	0.70
26/01/2020 18:49:25	26012020	260120	184925	23.630	12.187092	-56.117677	23.670	0.090	0.410	0.150	23.590	-1.000	0.500																			1580064565.0	0.14	0.26
26/01/2020 18:49:26	26012020	260120	184926	23.460	12.187088	-56.117677	23.490	-0.230	0.600	0.020	23.420	-0.800	0.300																			1580064566.0	0.42	0.78
26/01/2020 18:49:27	26012020	260120	184927	23.310	12.187087	-56.117677	23.350	-0.450	0.290	-0.220	23.300	-1.100	0.100																			1580064567.0	0.39	0.72
26/01/2020 18:49:28	26012020	260120	184928	23.290	12.187088	-56.117678	23.350	-0.400	-0.370	-0.610	23.300	-1.700	-0.300																			1580064568.0	0.31	0.57
26/01/2020 18:49:29	26012020	260120	184929	23.350	12.187092	-56.117680	23.400	-0.090	-0.900	-0.950	23.360	-2.300	-0.600																			1580064569.0	0.78	1.44
26/01/2020 18:49:30	26012020	260120	184930	23.390	12.187095	-56.117682	23.430	0.280	-0.930	-1.040	23.400	-2.300	-0.700																			1580064570.0	0.78	1.44
26/01/2020 18:49:31	26012020	260120	184931	23.370	12.187095	-56.117683	23.400	0.480	-0.480	-0.830	23.350	-1.900	-0.600																			1580064571.0	0.19	0.35
26/01/2020 18:49:32	26012020	260120	184932	23.230	12.187093	-56.117682	23.250	0.360	0.140	-0.420	23.190	-1.300	-0.200																			1580064572.0	0.48	0.89
26/01/2020 18:49:33	26012020	260120	184933	23.020	12.187090	-56.117680	23.050	0.020	0.520	-0.040	22.980	-0.900	0.200																			1580064573.0	0.81	1.50
26/01/2020 18:49:34	26012020	260120	184934	22.880	12.187087	-56.117678	22.950	-0.260	0.450	0.200	22.870	-0.900	0.500																			1580064574.0	0.58	1.07
26/01/2020 18:49:35	26012020	260120	184935	22.910	12.187087	-56.117678	23.010	-0.280	0.010	0.260	22.940	-1.300	0.600																			1580064575.0	0.13	0.24
26/01/2020 18:49:36	26012020	260120	184936	23.070	12.187088	-56.117678	23.160	-0.080	-0.470	0.150	23.100	-1.800	0.500																			1580064576.0	0.40	0.74
26/01/2020 18:49:37	26012020	260120	184937	23.150	12.187092	-56.117678	23.200	0.110	-0.610	0.040	23.140	-2.000	0.400																			1580064577.0	0.50	0.93
26/01/2020 18:49:38	26012020	260120	184938	22.980	12.187092	-56.117678	22.980	0.160	-0.330	0.110	22.920	-1.800	0.400																			1580064578.0	0.20	0.37
26/01/2020 18:49:39	26012020	260120	184939	22.680	12.187092	-56.117678	22.680	0.090	0.050	0.260	22.620	-1.400	0.600																			1580064579.0	0.29	0.54
26/01/2020 18:49:40	26012020	260120	184940	22.450	12.187088	-56.117678	22.490	0.020	0.170	0.230	22.430	-1.200	0.600																			1580064580.0	0.44	0.81
26/01/2020 18:49:41	26012020	260120	184941	22.410	12.187088	-56.117678	22.470	0.010	0.010	-0.120	22.420	-1.400	0.200																			1580064581.0	0.12	0.22
26/01/2020 18:49:42	26012020	260120	184942	22.440	12.187090	-56.117680	22.460	0.020	-0.200	-0.590	22.430	-1.600	-0.200																			1580064582.0	0.42	0.78
26/01/2020 18:49:43	26012020	260120	184943	22.360	12.187092	-56.117682	22.350	-0.080	-0.160	-0.930	22.340	-1.600	-0.600																			1580064583.0	0.66	1.22
26/01/2020 18:49:44	26012020	260120	184944	22.220	12.187093	-56.117683	22.210	-0.280	0.110	-1.070	22.200	-1.300	-0.700																			1580064584.0	0.61	1.13
26/01/2020 18:49:45	26012020	260120	184945	22.180	12.187092	-56.117687	22.200	-0.400	0.280	-1.150	22.180	-1.100	-0.800																			1580064585.0	0.61	1.13
26/01/2020 18:49:46	26012020	260120	184946	22.340	12.187092	-56.117688	22.360	-0.310	0.040	-1.210	22.340	-1.300	-0.900																			1580064586.0	0.46	0.85
26/01/2020 18:49:47	26012020	260120	184947	22.450	12.187092	-56.117688	22.500	-0.050	-0.420	-1.040	22.470	-1.800	-0.800																			1580064587.0	0.06	0.11
26/01/2020 18:49:48	26012020	260120	184948	22.460	12.187092	-56.117687	22.480	0.230	-0.720	-0.490	22.450	-2.100	-0.300																			1580064588.0	0.47	0.87
26/01/2020 18:49:49	26012020	260120	184949	22.320	12.187092	-56.117683	22.350	0.400	-0.730	0.220	22.270	-2.100	0.500																			1580064589.0	0.78	1.44
26/01/2020 18:49:50	26012020	260120	184950	22.100	12.187092	-56.117678	22.120	0.470	-0.550	0.750	22.060	-2.000	1.000																			1580064590.0	0.90	1.67
26/01/2020 18:49:51	26012020	260120	184951	21.880	12.187090	-56.117677	21.890	0.420	-0.190	0.960	21.840	-1.600	1.300																			1580064591.0	0.67	1.24
26/01/2020 18:49:52	26012020	260120	184952	21.690	12.187090	-56.117675	21.740	0.250	0.310	0.880	21.670	-1.100	1.200																			1580064592.0	0.25	0.46
26/01/2020 18:49:53	26012020	260120	184953	21.660	12.187088	-56.117677	21.710	-0.020	0.630	0.460	21.670	-0.800	0.800																			1580064593.0	0.30	0.56
26/01/2020 18:49:54	26012020	260120	184954	21.810	12.187088	-56.117680	21.850	-0.310	0.580	-0.210	21.810	-0.800	0.200																			1580064594.0	0.60	1.11
26/01/2020 18:49:55	26012020	260120	184955	21.970	12.187090	-56.117683	22.040	-0.530	0.230	-0.970	22.010	-1.100	-0.600																			1580064595.0	0.81	1.50
26/01/2020 18:49:56	26012020	260120	184956	22.150	12.187093	-56.117687	22.190	-0.580	-0.140	-1.560	22.180	-1.500	-1.200																			1580064596.0	0.91	1.69
26/01/2020 18:49:57	26012020	260120	184957	22.200	12.187095	-56.117688	22.200	-0.440	-0.370	-1.740	22.190	-1.800	-1.400																			1580064597.0	0.70	1.30
26/01/2020 18:49:58	26012020	260120	184958	22.060	12.187095	-56.117690	22.040	-0.160	-0.450	-1.440	22.000	-1.800	-1.200																			1580064598.0	0.20	0.37
26/01/2020 18:49:59	26012020	260120	184959	21.780	12.187093	-56.117688	21.790	0.140	-0.440	-0.830	21.730	-1.800	-0.600	1013.90	26.30	26.30	20.80	20.80	621.00	71.00	72.00	383.00	30.30	67.00	4.40	94.00	4.40	43113	3411.00	27.80	27.90	1580064599.0	0.33	0.61
26/01/2020 18:50:00	26012020	260120	185000	21.600	12.187092	-56.117687	21.670	0.350	-0.400	-0.290	21.600	-1.800	-0.000																			1580064600.0	0.61	1.13
26/01/2020 18:50:01	26012020	260120	185001	21.650	12.187092	-56.117683	21.750	0.430	-0.430	-0.040	21.680	-1.800	0.300																			1580064601.0	0.54	1.00
26/01/2020 18:50:02	26012020	260120	185002	21.840	12.187092	-56.117683	21.960	0.400	-0.400	0.040	21.890	-1.800	0.300																			1580064602.0	0.27	0.50
26/01/2020 18:50:03	26012020	260120	185003	22.070	12.187092	-56.117682	22.180	0.310	-0.190	0.170	22.100	-1.600	0.500																			1580064603.0	0.17	0.31
26/01/2020 18:50:04	26012020	260120	185004	22.210	12.187092	-56.117682	22.300	0.160	0.060	0.350	22.230	-1.400	0.600																			1580064604.0	0.25	0.46
26/01/2020 18:50:05	26012020	260120	185005	22.260	12.187090	-56.117680	22.330	-0.020	0.180	0.430	22.250	-1.200	0.700																			1580064605.0	0.42	0.78
26/01/2020 18:50:06	26012020	260120	185006	22.220	12.187090	-56.117678	22.280	-0.190	0.190	0.320	22.210	-1.200	0.600																			1580064606.0	0.28	0.52
26/01/2020 18:50:07	26012020	260120	185007	22.190	12.187090	-56.117678	22.230	-0.230	0.140	0.110	22.180	-1.300	0.400																			1580064607.0	0.18	0.33
26/01/2020 18:50:08	26012020	260120	185008	22.140	12.187092	-56.117680	22.180	-0.110	0.090	-0.070	22.130	-1.300	0.300																			1580064608.0	0.38	0.70
26/01/2020 18:50:09	26012020	260120	185009	22.040	12.187093	-56.117680	22.070	-0.060	0.060	-0.220	22.020	-1.300	0.100																			1580064609.0	0.22	0.41
26/01/2020 18:50:10	26012020	260120	185010	21.900	12.187092	-56.117682	21.950	-0.210	0.080	-0.460	21.900	-1.300	-0.100																			1580064610.0	0.10	0.19
26/01/2020 18:50:11	26012020	260120	185011	21.870	12.187092	-56.117683	21.910	-0.440	0.020	-0.790	21.870	-1.400	-0.400																			1580064611.0	0.34	0.63
26/01/2020 18:50:12	26012020	260120	185012	21.910	12.187092	-56.117685	21.970	-0.440	-0.260	-1.080	21.930	-1.600	-0.700																			1580064612.0	0.53	0.98
26/01/2020 18:50:13	26012020	260120	185013	22.060	12.187092	-56.117687	22.140	-0.070	-0.740	-1.280	22.090	-2.100	-0.900																			1580064613.0	0.49	0.91
26/01/2020 18:50:14	26012020	260120	185014	22.290	12.187095	-56.117688	22.390	0.440	-1.080	-1.330	22.350	-2.500	-1.000																			1580064614.0	0.55	1.02
26/01/2020 18:50:15	26012020	260120	185015	22.520	12.187097	-56.117688	22.600	0.740	-0.880	-1.090	22.560	-2.300	-0.800																			1580064615.0	0.52	0.96
26/01/2020 18:50:16	26012020	260120	185016	22.630	12.187097	-56.117687	22.680	0.650	-0.140	-0.510	22.620	-1.600	-0.300																			1580064616.0	0.27	0.50
26/01/2020 18:50:17	26012020	260120	185017	22.560	12.187095	-56.117683	22.600	0.220	0.700	0.260	22.530	-0.800	0.500																			1580064617.0	0.85	1.57
26/01/2020 18:50:18	26012020	260120	185018	22.420	12.187090	-56.117680	22.470	-0.290	1.030	0.950	22.400	-0.400	1.200																			1580064618.0	1.21	2.24
26/01/2020 18:50:19	26012020	260120	185019	22.370	12.187087	-56.117677	22.450	-0.560	0.620	1.290	22.370	-0.700	1.600																			1580064619.0	0.98	1.81
26/01/2020 18:50:20	26012020	260120	185020	22.440	12.187087	-56.117675	22.530	-0.470	-0.200	1.210	22.460	-1.500	1.500																			1580064620.0	0.61	1.13
26/01/2020 18:50:21	26012020	260120	185021	22.510	12.187090	-56.117673	22.560	-0.160	-0.730	0.920	22.500	-2.100	1.300																			1580064621.0	0.69	1.28
26/01/2020 18:50:22	26012020	260120	185022	22.410	12.187092	-56.117673	22.430	0.120	-0.710	0.580	22.370	-2.100	0.900																			1580064622.0	0.46	0.85
26/01/2020 18:50:23	26012020	260120	185023	22.230	12.187092	-56.117675	22.240	0.250	-0.420	0.050	22.230	-1.900	0.400																			1580064623.0	0.34	0.63
26/01/2020 18:50:24	26012020	260120	185024	22.100	12.187092	-56.117678	22.110	0.250	-0.190	-0.700	22.090	-1.600	-0.300																			1580064624.0	0.73	1.35
26/01/2020 18:50:25	26012020	260120	185025	22.070	12.187093	-56.117683	22.090	0.170	-0.020	-1.450	22.080	-1.400	-1.100																			1580064625.0	1.04	1.93
26/01/2020 18:50:26	26012020	260120	185026	22.220	12.187095	-56.117688	22.280	0.060	0.070	-2.040	22.270	-1.300	-1.700																			1580064626.0	1.19	2.20
26/01/2020 18:50:27	26012020	260120	185027	22.530	12.187097	-56.117693	22.610	-0.050	0.070	-2.290	22.600	-1.300	-2.000																			1580064627.0	1.06	1.96
26/01/2020 18:50:28	26012020	260120	185028	22.870	12.187098	-56.117695	22.970	-0.160	0.040	-2.020	22.930	-1.400	-1.800																			1580064628.0	0.55	1.02
26/01/2020 18:50:29	26012020	260120	185029	23.120	12.187097	-56.117693	23.210	-0.270	0.020	-1.220	23.150	-1.400	-1.000																			1580064629.0	0.38	0.70
26/01/2020 18:50:30	26012020	260120	185030	23.190	12.187095	-56.117687	23.280	-0.360	-0.030	-0.050	23.180	-1.400	0.100																			1580064630.0	1.34	2.48
26/01/2020 18:50:31	26012020	260120	185031	23.050	12.187092	-56.117680	23.110	-0.330	-0.140	1.270	23.000	-1.500	1.400																			1580064631.0	1.90	3.52
26/01/2020 18:50:32	26012020	260120	185032	22.760	12.187087	-56.117672	22.820	-0.090	-0.370	2.300	22.700	-1.700	2.500																			1580064632.0	1.95	3.61
26/01/2020 18:50:33	26012020	260120	185033	22.490	12.187085	-56.117665	22.560	0.320	-0.670	2.590	22.450	-2.000	2.900																			1580064633.0	1.41	2.61
26/01/2020 18:50:34	26012020	260120	185034	22.320	12.187087	-56.117662	22.390	0.730	-0.740	2.130	22.300	-2.200	2.500																			1580064634.0	0.50	0.93
26/01/2020 18:50:35	26012020	260120	185035	22.240	12.187088	-56.117665	22.300	0.880	-0.370	1.190	22.240	-1.800	1.600																			1580064635.0	0.72	1.33
26/01/2020 18:50:36	26012020	260120	185036	22.240	12.187090	-56.117670	22.290	0.590	0.210	-0.090	22.250	-1.300	0.400																			1580064636.0	1.24	2.30
26/01/2020 18:50:37	26012020	260120	185037	22.350	12.187092	-56.117678	22.410	-0.070	0.600	-1.450	22.350	-0.800	-1.000																			1580064637.0	1.67	3.09
26/01/2020 18:50:38	26012020	260120	185038	22.600	12.187095	-56.117687	22.670	-0.720	0.600	-2.550	22.660	-0.800	-2.100																			1580064638.0	1.91	3.54
26/01/2020 18:50:39	26012020	260120	185039	22.980	12.187097	-56.117693	23.070	-1.020	0.320	-3.120	23.060	-1.000	-2.800																			1580064639.0	1.66	3.07
26/01/2020 18:50:40	26012020	260120	185040	23.350	12.187098	-56.117697	23.440	-0.870	-0.000	-2.940	23.410	-1.400	-2.700																			1580064640.0	0.81	1.50
26/01/2020 18:50:41	26012020	260120	185041	23.530	12.187098	-56.117695	23.590	-0.450	-0.230	-1.970	23.530	-1.600	-1.800																			1580064641.0	0.44	0.81
26/01/2020 18:50:42	26012020	260120	185042	23.400	12.187095	-56.117688	23.440	-0.040	-0.380	-0.430	23.340	-1.800	-0.300																			1580064642.0	1.60	2.96
26/01/2020 18:50:43	26012020	260120	185043	23.090	12.187090	-56.117678	23.160	0.280	-0.630	1.150	23.030	-2.000	1.300																			1580064643.0	2.27	4.20
26/01/2020 18:50:44	26012020	260120	185044	22.880	12.187087	-56.117670	23.000	0.540	-0.970	2.260	22.870	-2.300	2.500																			1580064644.0	2.14	3.96
26/01/2020 18:50:45	26012020	260120	185045	22.880	12.187087	-56.117663	23.030	0.750	-1.120	2.650	22.900	-2.500	2.900																			1580064645.0	1.42	2.63
26/01/2020 18:50:46	26012020	260120	185046	22.970	12.187087	-56.117660	23.100	0.800	-0.740	2.340	22.980	-2.200	2.700																			1580064646.0	0.61	1.13
26/01/2020 18:50:47	26012020	260120	185047	22.970	12.187088	-56.117662	23.050	0.580	0.120	1.620	22.970	-1.400	2.000																			1580064647.0	0.49	0.91
26/01/2020 18:50:48	26012020	260120	185048	22.810	12.187088	-56.117667	22.850	0.130	1.020	0.710	22.780	-0.500	1.100																			1580064648.0	1.05	1.94
26/01/2020 18:50:49	26012020	260120	185049	22.720	12.187088	-56.117673	22.770	-0.400	1.380	-0.400	22.730	-0.000	0.100																			1580064649.0	1.34	2.48
26/01/2020 18:50:50	26012020	260120	185050	22.870	12.187090	-56.117680	22.950	-0.770	0.990	-1.670	22.930	-0.400	-1.200																			1580064650.0	1.41	2.61
26/01/2020 18:50:51	26012020	260120	185051	23.220	12.187093	-56.117687	23.300	-0.840	0.080	-2.790	23.300	-1.200	-2.400																			1580064651.0	1.48	2.74
26/01/2020 18:50:52	26012020	260120	185052	23.580	12.187097	-56.117690	23.650	-0.640	-0.810	-3.380	23.640	-2.100	-3.000																			1580064652.0	1.33	2.46
26/01/2020 18:50:53	26012020	260120	185053	23.710	12.187100	-56.117692	23.730	-0.280	-1.230	-3.090	23.700	-2.600	-2.800																			1580064653.0	0.80	1.48
26/01/2020 18:50:54	26012020	260120	185054	23.580	12.187100	-56.117690	23.590	0.110	-1.110	-2.040	23.540	-2.600	-1.900																			1580064654.0	0.35	0.65
26/01/2020 18:50:55	26012020	260120	185055	23.340	12.187098	-56.117685	23.380	0.430	-0.690	-0.570	23.290	-2.100	-0.400																			1580064655.0	1.22	2.26
26/01/2020 18:50:56	26012020	260120	185056	23.140	12.187093	-56.117678	23.210	0.550	-0.230	0.850	23.110	-1.700	1.000																			1580064656.0	1.85	3.43
26/01/2020 18:50:57	26012020	260120	185057	23.050	12.187088	-56.117670	23.160	0.390	0.190	1.820	23.040	-1.300	2.100																			1580064657.0	1.88	3.48
26/01/2020 18:50:58	26012020	260120	185058	23.020	12.187085	-56.117665	23.150	0.020	0.560	2.210	23.030	-0.900	2.500																			1580064658.0	1.29	2.39
26/01/2020 18:50:59	26012020	260120	185059	23.100	12.187083	-56.117663	23.250	-0.300	0.650	2.020	23.130	-0.800	2.400	1013.90	26.30	26.30	20.70	20.70	627.00	71.00	71.00	383.00	30.30	71.00	4.00	99.00	3.80	43276	3331.00	27.80	27.90	1580064659.0	0.49	0.91
26/01/2020 18:51:00	26012020	260120	185100	23.360	12.187083	-56.117665	23.450	-0.310	0.250	1.340	23.360	-1.100	1.700																			1580064660.0	0.32	0.59
26/01/2020 18:51:01	26012020	260120	185101	23.490	12.187087	-56.117668	23.570	-0.010	-0.380	0.500	23.510	-1.700	0.900																			1580064661.0	0.83	1.54
26/01/2020 18:51:02	26012020	260120	185102	23.510	12.187090	-56.117672	23.540	0.370	-0.810	-0.310	23.490	-2.200	0.100																			1580064662.0	1.06	1.96
26/01/2020 18:51:03	26012020	260120	185103	23.410	12.187093	-56.117673	23.410	0.530	-0.760	-0.970	23.380	-2.200	-0.600																			1580064663.0	0.87	1.61
26/01/2020 18:51:04	26012020	260120	185104	23.230	12.187095	-56.117677	23.200	0.330	-0.250	-1.390	23.180	-1.700	-1.000																			1580064664.0	0.66	1.22
26/01/2020 18:51:05	26012020	260120	185105	22.990	12.187095	-56.117680	22.970	-0.100	0.350	-1.550	22.950	-1.100	-1.200																			1580064665.0	0.70	1.30
26/01/2020 18:51:06	26012020	260120	185106	22.900	12.187093	-56.117682	22.950	-0.500	0.570	-1.640	22.920	-0.800	-1.300																			1580064666.0	0.71	1.31
26/01/2020 18:51:07	26012020	260120	185107	23.080	12.187093	-56.117685	23.190	-0.680	0.340	-1.610	23.140	-1.000	-1.300																			1580064667.0	0.46	0.85
26/01/2020 18:51:08	26012020	260120	185108	23.400	12.187095	-56.117685	23.520	-0.580	-0.050	-1.260	23.460	-1.400	-1.000																			1580064668.0	0.21	0.39
26/01/2020 18:51:09	26012020	260120	185109	23.660	12.187095	-56.117682	23.760	-0.290	-0.310	-0.500	23.690	-1.700	-0.300																			1580064669.0	0.56	1.04
26/01/2020 18:51:10	26012020	260120	185110	23.690	12.187093	-56.117677	23.740	0.010	-0.350	0.540	23.650	-1.800	0.700																			1580064670.0	1.30	2.41
26/01/2020 18:51:11	26012020	260120	185111	23.430	12.187088	-56.117668	23.450	0.220	-0.380	1.520	23.360	-1.800	1.700																			1580064671.0	1.75	3.24
26/01/2020 18:51:12	26012020	260120	185112	23.040	12.187085	-56.117663	23.140	0.360	-0.620	2.010	23.040	-2.000	2.300																			1580064672.0	1.53	2.83
26/01/2020 18:51:13	26012020	260120	185113	22.950	12.187085	-56.117660	23.040	0.530	-0.920	1.780	22.960	-2.300	2.100																			1580064673.0	0.69	1.28
26/01/2020 18:51:14	26012020	260120	185114	23.070	12.187088	-56.117660	23.140	0.640	-0.800	1.040	23.070	-2.200	1.400																			1580064674.0	0.76	1.41
26/01/2020 18:51:15	26012020	260120	185115	23.130	12.187093	-56.117665	23.200	0.550	-0.020	0.150	23.140	-1.500	0.600																			1580064675.0	1.30	2.41
26/01/2020 18:51:16	26012020	260120	185116	23.070	12.187093	-56.117672	23.120	0.200	0.940	-0.580	23.070	-0.600	-0.200																			1580064676.0	1.46	2.70
26/01/2020 18:51:17	26012020	260120	185117	22.980	12.187093	-56.117678	23.000	-0.280	1.380	-1.070	22.970	-0.000	-0.700																			1580064677.0	1.27	2.35
26/01/2020 18:51:18	26012020	260120	185118	22.930	12.187092	-56.117680	22.970	-0.700	0.980	-1.340	22.930	-0.300	-1.000																			1580064678.0	0.69	1.28
26/01/2020 18:51:19	26012020	260120	185119	23.000	12.187092	-56.117682	23.070	-0.880	-0.020	-1.510	23.030	-1.300	-1.200																			1580064679.0	0.11	0.20
26/01/2020 18:51:20	26012020	260120	185120	23.230	12.187095	-56.117680	23.320	-0.740	-1.030	-1.630	23.290	-2.300	-1.300																			1580064680.0	0.58	1.07
26/01/2020 18:51:21	26012020	260120	185121	23.480	12.187097	-56.117678	23.550	-0.330	-1.420	-1.450	23.510	-2.800	-1.200																			1580064681.0	0.66	1.22
26/01/2020 18:51:22	26012020	260120	185122	23.480	12.187098	-56.117677	23.500	0.180	-1.060	-0.750	23.440	-2.500	-0.500																			1580064682.0	0.38	0.70
26/01/2020 18:51:23	26012020	260120	185123	23.240	12.187095	-56.117673	23.250	0.600	-0.430	0.220	23.180	-1.900	0.400																			1580064683.0	0.94	1.74
26/01/2020 18:51:24	26012020	260120	185124	22.960	12.187090	-56.117670	22.990	0.830	-0.060	1.020	22.910	-1.500	1.300																			1580064684.0	1.33	2.46
26/01/2020 18:51:25	26012020	260120	185125	22.750	12.187088	-56.117665	22.800	0.790	-0.000	1.400	22.750	-1.400	1.700																			1580064685.0	1.08	2.00
26/01/2020 18:51:26	26012020	260120	185126	22.690	12.187088	-56.117663	22.770	0.490	0.010	1.310	22.690	-1.400	1.700																			1580064686.0	0.57	1.06
26/01/2020 18:51:27	26012020	260120	185127	22.760	12.187090	-56.117663	22.860	0.000	0.210	0.800	22.760	-1.200	1.200																			1580064687.0	0.44	0.81
26/01/2020 18:51:28	26012020	260120	185128	22.900	12.187092	-56.117667	22.970	-0.490	0.560	0.050	22.920	-0.900	0.500																			1580064688.0	0.92	1.70
26/01/2020 18:51:29	26012020	260120	185129	22.970	12.187093	-56.117673	23.000	-0.760	0.790	-0.570	22.970	-0.600	-0.200																			1580064689.0	1.27	2.35
26/01/2020 18:51:30	26012020	260120	185130	22.990	12.187093	-56.117677	23.030	-0.680	0.530	-0.920	23.000	-0.800	-0.600																			1580064690.0	0.96	1.78
26/01/2020 18:51:31	26012020	260120	185131	23.050	12.187093	-56.117678	23.090	-0.350	-0.150	-1.020	23.060	-1.500	-0.700																			1580064691.0	0.26	0.48
26/01/2020 18:51:32	26012020	260120	185132	23.100	12.187093	-56.117677	23.150	0.000	-0.830	-0.930	23.110	-2.200	-0.600																			1580064692.0	0.47	0.87
26/01/2020 18:51:33	26012020	260120	185133	23.120	12.187093	-56.117673	23.170	0.190	-1.180	-0.780	23.120	-2.600	-0.500																			1580064693.0	0.77	1.43
26/01/2020 18:51:34	26012020	260120	185134	23.030	12.187093	-56.117670	23.040	0.180	-1.060	-0.620	22.990	-2.500	-0.300																			1580064694.0	0.58	1.07
26/01/2020 18:51:35	26012020	260120	185135	22.800	12.187093	-56.117670	22.810	0.170	-0.570	-0.440	22.750	-2.000	-0.100																			1580064695.0	0.07	0.13
26/01/2020 18:51:36	26012020	260120	185136	22.580	12.187093	-56.117672	22.620	0.320	-0.030	-0.240	22.570	-1.500	0.100																			1580064696.0	0.45	0.83
26/01/2020 18:51:37	26012020	260120	185137	22.620	12.187093	-56.117673	22.720	0.610	0.250	-0.070	22.660	-1.200	0.200																			1580064697.0	0.39	0.72
26/01/2020 18:51:38	26012020	260120	185138	22.880	12.187093	-56.117673	22.990	0.710	0.300	0.090	22.940	-1.100	0.400																			1580064698.0	0.16	0.30
26/01/2020 18:51:39	26012020	260120	185139	23.090	12.187093	-56.117670	23.150	0.330	0.340	0.240	23.100	-1.100	0.500																			1580064699.0	0.63	1.17
26/01/2020 18:51:40	26012020	260120	185140	23.040	12.187093	-56.117668	23.050	-0.350	0.460	0.310	23.010	-1.000	0.600																			1580064700.0	0.58	1.07
26/01/2020 18:51:41	26012020	260120	185141	22.790	12.187092	-56.117667	22.770	-0.890	0.510	0.320	22.730	-0.900	0.600																			1580064701.0	0.31	0.57
26/01/2020 18:51:42	26012020	260120	185142	22.470	12.187090	-56.117668	22.460	-0.950	0.300	0.260	22.410	-1.100	0.600																			1580064702.0	0.32	0.59
26/01/2020 18:51:43	26012020	260120	185143	22.290	12.187090	-56.117668	22.330	-0.580	-0.260	-0.040	22.290	-1.600	0.300																			1580064703.0	0.32	0.59
26/01/2020 18:51:44	26012020	260120	185144	22.430	12.187092	-56.117672	22.530	-0.060	-0.950	-0.710	22.500	-2.300	-0.300																			1580064704.0	0.61	1.13
26/01/2020 18:51:45	26012020	260120	185145	22.790	12.187095	-56.117675	22.870	0.290	-1.200	-1.380	22.860	-2.600	-1.000																			1580064705.0	1.00	1.85
26/01/2020 18:51:46	26012020	260120	185146	23.010	12.187098	-56.117677	23.040	0.360	-0.680	-1.570	23.020	-2.200	-1.300																			1580064706.0	0.85	1.57
26/01/2020 18:51:47	26012020	260120	185147	22.950	12.187097	-56.117680	22.970	0.270	0.170	-1.150	22.910	-1.300	-0.900																			1580064707.0	0.48	0.89
26/01/2020 18:51:48	26012020	260120	185148	22.760	12.187092	-56.117678	22.800	0.240	0.500	-0.480	22.740	-0.900	-0.200																			1580064708.0	0.98	1.81
26/01/2020 18:51:49	26012020	260120	185149	22.680	12.187088	-56.117673	22.750	0.310	0.050	0.040	22.670	-1.300	0.300																			1580064709.0	1.10	2.04
26/01/2020 18:51:50	26012020	260120	185150	22.690	12.187090	-56.117668	22.760	0.340	-0.570	0.340	22.690	-1.900	0.600																			1580064710.0	1.08	2.00
26/01/2020 18:51:51	26012020	260120	185151	22.680	12.187092	-56.117665	22.730	0.250	-0.660	0.490	22.660	-2.100	0.800																			1580064711.0	0.93	1.72
26/01/2020 18:51:52	26012020	260120	185152	22.590	12.187093	-56.117665	22.630	0.070	-0.130	0.560	22.570	-1.600	0.900																			1580064712.0	0.32	0.59
26/01/2020 18:51:53	26012020	260120	185153	22.490	12.187093	-56.117667	22.530	-0.050	0.460	0.510	22.470	-1.000	0.900																			1580064713.0	0.42	0.78
26/01/2020 18:51:54	26012020	260120	185154	22.460	12.187092	-56.117668	22.530	-0.140	0.620	0.260	22.470	-0.800	0.600																			1580064714.0	0.56	1.04
26/01/2020 18:51:55	26012020	260120	185155	22.540	12.187092	-56.117670	22.610	-0.290	0.460	-0.120	22.570	-0.900	0.300																			1580064715.0	0.32	0.59
26/01/2020 18:51:56	26012020	260120	185156	22.680	12.187092	-56.117672	22.750	-0.530	0.260	-0.520	22.710	-1.100	-0.200																			1580064716.0	0.35	0.65
26/01/2020 18:51:57	26012020	260120	185157	22.840	12.187092	-56.117673	22.910	-0.680	0.050	-0.890	22.870	-1.300	-0.500																			1580064717.0	0.44	0.81
26/01/2020 18:51:58	26012020	260120	185158	23.010	12.187092	-56.117677	23.080	-0.530	-0.400	-1.090	23.050	-1.700	-0.800																			1580064718.0	0.42	0.78
26/01/2020 18:51:59	26012020	260120	185159	23.190	12.187092	-56.117677	23.260	-0.100	-1.060	-1.100	23.220	-2.400	-0.800	1013.90	26.30	26.30	20.90	20.90	631.00	72.00	72.00	383.00	30.30	64.00	3.90	91.00	3.80	43258	3488.00	27.80	27.90	1580064719.0	0.07	0.13
26/01/2020 18:52:00	26012020	260120	185200	23.240	12.187093	-56.117675	23.250	0.380	-1.400	-0.810	23.210	-2.800	-0.600																			1580064720.0	0.52	0.96
26/01/2020 18:52:01	26012020	260120	185201	22.960	12.187095	-56.117672	22.910	0.680	-0.960	-0.140	22.860	-2.400	0.100																			1580064721.0	0.66	1.22
26/01/2020 18:52:02	26012020	260120	185202	22.370	12.187092	-56.117668	22.430	0.700	-0.040	0.590	22.370	-1.500	0.800																			1580064722.0	0.81	1.50
26/01/2020 18:52:03	26012020	260120	185203	22.150	12.187088	-56.117667	22.210	0.560	0.550	0.830	22.150	-0.900	1.100																			1580064723.0	1.02	1.89
26/01/2020 18:52:04	26012020	260120	185204	22.320	12.187087	-56.117665	22.470	0.400	0.460	0.360	22.400	-0.900	0.700																			1580064724.0	0.38	0.70
26/01/2020 18:52:05	26012020	260120	185205	22.800	12.187088	-56.117668	22.940	0.180	0.200	-0.410	22.880	-1.200	-0.000																			1580064725.0	0.76	1.41
26/01/2020 18:52:06	26012020	260120	185206	23.140	12.187093	-56.117672	23.210	-0.150	0.300	-0.920	23.170	-1.100	-0.600																			1580064726.0	1.19	2.20
26/01/2020 18:52:07	26012020	260120	185207	23.150	12.187093	-56.117677	23.170	-0.540	0.610	-0.970	23.130	-0.800	-0.700																			1580064727.0	0.84	1.56
26/01/2020 18:52:08	26012020	260120	185208	22.990	12.187092	-56.117678	23.020	-0.770	0.510	-0.670	22.960	-0.900	-0.400																			1580064728.0	0.61	1.13
26/01/2020 18:52:09	26012020	260120	185209	22.950	12.187090	-56.117677	23.020	-0.670	-0.200	-0.330	22.960	-1.500	-0.100																			1580064729.0	0.57	1.06
26/01/2020 18:52:10	26012020	260120	185210	23.120	12.187090	-56.117673	23.180	-0.320	-1.080	-0.110	23.120	-2.400	0.200																			1580064730.0	0.83	1.54
26/01/2020 18:52:11	26012020	260120	185211	23.230	12.187090	-56.117668	23.300	0.040	-1.400	0.060	23.240	-2.800	0.300																			1580064731.0	0.98	1.81
26/01/2020 18:52:12	26012020	260120	185212	23.170	12.187090	-56.117665	23.190	0.270	-0.890	0.280	23.130	-2.400	0.600																			1580064732.0	0.66	1.22
26/01/2020 18:52:13	26012020	260120	185213	22.880	12.187088	-56.117665	22.870	0.350	-0.050	0.460	22.810	-1.500	0.800																			1580064733.0	0.56	1.04
26/01/2020 18:52:14	26012020	260120	185214	22.560	12.187085	-56.117665	22.560	0.360	0.450	0.320	22.490	-1.000	0.700																			1580064734.0	0.66	1.22
26/01/2020 18:52:15	26012020	260120	185215	22.340	12.187085	-56.117668	22.370	0.340	0.510	-0.130	22.340	-0.900	0.200																			1580064735.0	0.59	1.09
26/01/2020 18:52:16	26012020	260120	185216	22.300	12.187087	-56.117672	22.350	0.310	0.320	-0.750	22.320	-1.100	-0.400																			1580064736.0	0.99	1.83
26/01/2020 18:52:17	26012020	260120	185217	22.490	12.187090	-56.117677	22.580	0.230	-0.040	-1.340	22.490	-1.400	-1.000																			1580064737.0	1.16	2.15
26/01/2020 18:52:18	26012020	260120	185218	22.870	12.187093	-56.117680	22.970	0.090	-0.460	-1.710	22.960	-1.800	-1.400																			1580064738.0	1.01	1.87
26/01/2020 18:52:19	26012020	260120	185219	23.240	12.187095	-56.117682	23.300	-0.100	-0.570	-1.590	23.280	-2.000	-1.300																			1580064739.0	0.64	1.19
26/01/2020 18:52:20	26012020	260120	185220	23.320	12.187095	-56.117680	23.340	-0.300	-0.170	-0.830	23.300	-1.600	-0.600																			1580064740.0	0.35	0.65
26/01/2020 18:52:21	26012020	260120	185221	23.090	12.187092	-56.117675	23.090	-0.470	0.390	0.320	23.020	-1.100	0.500																			1580064741.0	1.37	2.54
26/01/2020 18:52:22	26012020	260120	185222	22.730	12.187085	-56.117668	22.740	-0.520	0.520	1.290	22.650	-0.900	1.500																			1580064742.0	1.95	3.61
26/01/2020 18:52:23	26012020	260120	185223	22.430	12.187082	-56.117663	22.490	-0.370	0.030	1.670	22.390	-1.300	2.000																			1580064743.0	1.51	2.80
26/01/2020 18:52:24	26012020	260120	185224	22.350	12.187082	-56.117660	22.460	-0.030	-0.670	1.380	22.360	-2.000	1.700																			1580064744.0	0.53	0.98
26/01/2020 18:52:25	26012020	260120	185225	22.510	12.187085	-56.117662	22.640	0.380	-1.050	0.650	22.560	-2.400	1.000																			1580064745.0	0.85	1.57
26/01/2020 18:52:26	26012020	260120	185226	22.760	12.187088	-56.117667	22.860	0.630	-0.830	-0.180	22.800	-2.300	0.200																			1580064746.0	1.24	2.30
26/01/2020 18:52:27	26012020	260120	185227	22.840	12.187092	-56.117672	22.860	0.550	-0.100	-0.720	22.810	-1.600	-0.400																			1580064747.0	1.17	2.17
26/01/2020 18:52:28	26012020	260120	185228	22.620	12.187090	-56.117675	22.620	0.200	0.660	-0.840	22.560	-0.800	-0.500																			1580064748.0	0.90	1.67
26/01/2020 18:52:29	26012020	260120	185229	22.340	12.187087	-56.117677	22.370	-0.200	0.840	-0.800	22.310	-0.600	-0.500																			1580064749.0	0.74	1.37
26/01/2020 18:52:30	26012020	260120	185230	22.290	12.187087	-56.117678	22.370	-0.400	0.320	-0.910	22.310	-1.000	-0.600																			1580064750.0	0.30	0.56
26/01/2020 18:52:31	26012020	260120	185231	22.470	12.187088	-56.117678	22.550	-0.330	-0.370	-1.040	22.510	-1.700	-0.700																			1580064751.0	0.50	0.93
26/01/2020 18:52:32	26012020	260120	185232	22.620	12.187092	-56.117680	22.670	-0.100	-0.700	-0.880	22.630	-2.100	-0.600																			1580064752.0	0.68	1.26
26/01/2020 18:52:33	26012020	260120	185233	22.640	12.187092	-56.117678	22.690	0.110	-0.680	-0.420	22.630	-2.100	-0.200																			1580064753.0	0.29	0.54
26/01/2020 18:52:34	26012020	260120	185234	22.600	12.187090	-56.117675	22.650	0.170	-0.520	0.110	22.590	-1.900	0.400																			1580064754.0	0.67	1.24
26/01/2020 18:52:35	26012020	260120	185235	22.550	12.187088	-56.117672	22.600	0.110	-0.240	0.600	22.540	-1.700	0.900																			1580064755.0	0.85	1.57
26/01/2020 18:52:36	26012020	260120	185236	22.490	12.187087	-56.117668	22.540	0.030	0.100	0.950	22.470	-1.400	1.200																			1580064756.0	0.77	1.43
26/01/2020 18:52:37	26012020	260120	185237	22.370	12.187085	-56.117667	22.420	-0.030	0.350	1.030	22.340	-1.100	1.300																			1580064757.0	0.56	1.04
26/01/2020 18:52:38	26012020	260120	185238	22.230	12.187083	-56.117667	22.260	-0.100	0.420	0.760	22.200	-1.000	1.100																			1580064758.0	0.16	0.30
26/01/2020 18:52:39	26012020	260120	185239	22.130	12.187085	-56.117670	22.180	-0.150	0.300	0.250	22.130	-1.100	0.600																			1580064759.0	0.55	1.02
26/01/2020 18:52:40	26012020	260120	185240	22.080	12.187087	-56.117673	22.120	-0.160	0.070	-0.340	22.080	-1.300	0.000																			1580064760.0	0.88	1.63
26/01/2020 18:52:41	26012020	260120	185241	22.080	12.187088	-56.117678	22.130	-0.110	-0.270	-0.890	22.100	-1.600	-0.500																			1580064761.0	0.87	1.61
26/01/2020 18:52:42	26012020	260120	185242	22.210	12.187090	-56.117680	22.270	-0.020	-0.660	-1.310	22.240	-2.000	-1.000																			1580064762.0	0.67	1.24
26/01/2020 18:52:43	26012020	260120	185243	22.410	12.187092	-56.117682	22.470	0.040	-0.820	-1.490	22.440	-2.200	-1.200																			1580064763.0	0.44	0.81
26/01/2020 18:52:44	26012020	260120	185244	22.520	12.187092	-56.117682	22.540	0.040	-0.570	-1.340	22.520	-2.000	-1.100																			1580064764.0	0.20	0.37
26/01/2020 18:52:45	26012020	260120	185245	22.420	12.187092	-56.117682	22.420	0.040	-0.100	-0.860	22.380	-1.600	-0.600																			1580064765.0	0.22	0.41
26/01/2020 18:52:46	26012020	260120	185246	22.210	12.187088	-56.117680	22.250	0.060	0.220	-0.260	22.180	-1.200	-0.000																			1580064766.0	0.57	1.06
26/01/2020 18:52:47	26012020	260120	185247	22.130	12.187087	-56.117678	22.210	0.130	0.140	0.230	22.140	-1.200	0.500																			1580064767.0	0.61	1.13
26/01/2020 18:52:48	26012020	260120	185248	22.240	12.187087	-56.117675	22.350	0.190	-0.150	0.550	22.270	-1.500	0.800																			1580064768.0	0.50	0.93
26/01/2020 18:52:49	26012020	260120	185249	22.420	12.187088	-56.117673	22.530	0.200	-0.260	0.760	22.450	-1.700	1.000																			1580064769.0	0.55	1.02
26/01/2020 18:52:50	26012020	260120	185250	22.520	12.187088	-56.117672	22.590	0.080	-0.060	0.850	22.520	-1.500	1.200																			1580064770.0	0.38	0.70
26/01/2020 18:52:51	26012020	260120	185251	22.490	12.187088	-56.117672	22.540	-0.150	0.310	0.800	22.470	-1.100	1.100																			1580064771.0	0.22	0.41
26/01/2020 18:52:52	26012020	260120	185252	22.400	12.187087	-56.117672	22.450	-0.390	0.570	0.580	22.380	-0.900	0.900																			1580064772.0	0.41	0.76
26/01/2020 18:52:53	26012020	260120	185253	22.340	12.187085	-56.117673	22.390	-0.510	0.480	0.220	22.340	-0.900	0.600																			1580064773.0	0.52	0.96
26/01/2020 18:52:54	26012020	260120	185254	22.350	12.187085	-56.117677	22.420	-0.430	-0.050	-0.260	22.370	-1.400	0.100																			1580064774.0	0.51	0.94
26/01/2020 18:52:55	26012020	260120	185255	22.480	12.187087	-56.117678	22.550	-0.160	-0.750	-0.830	22.510	-2.100	-0.400																			1580064775.0	0.70	1.30
26/01/2020 18:52:56	26012020	260120	185256	22.660	12.187090	-56.117682	22.720	0.230	-1.210	-1.260	22.690	-2.600	-0.900																			1580064776.0	0.89	1.65
26/01/2020 18:52:57	26012020	260120	185257	22.820	12.187093	-56.117683	22.880	0.580	-1.190	-1.350	22.860	-2.600	-1.000																			1580064777.0	0.65	1.20
26/01/2020 18:52:58	26012020	260120	185258	22.950	12.187093	-56.117682	22.990	0.690	-0.740	-1.070	22.970	-2.200	-0.800																			1580064778.0	0.16	0.30
26/01/2020 18:52:59	26012020	260120	185259	22.980	12.187092	-56.117680	23.000	0.460	-0.030	-0.580	22.970	-1.500	-0.300	1013.90	26.40	26.30	21.00	21.00	612.00	72.00	72.00	383.00	30.40	77.00	4.10	104.00	4.10	42389	3334.00	27.80	27.90	1580064779.0	0.53	0.98
26/01/2020 18:53:00	26012020	260120	185300	22.880	12.187090	-56.117678	22.890	-0.010	0.670	-0.000	22.860	-0.800	0.200																			1580064780.0	0.68	1.26
26/01/2020 18:53:01	26012020	260120	185301	22.760	12.187087	-56.117677	22.810	-0.390	1.060	0.520	22.760	-0.400	0.800																			1580064781.0	0.56	1.04
26/01/2020 18:53:02	26012020	260120	185302	22.810	12.187085	-56.117677	22.850	-0.430	0.830	0.830	22.810	-0.500	1.100																			1580064782.0	0.37	0.69
26/01/2020 18:53:03	26012020	260120	185303	22.930	12.187085	-56.117675	23.010	-0.200	0.160	0.940	22.970	-1.200	1.200																			1580064783.0	0.28	0.52
26/01/2020 18:53:04	26012020	260120	185304	23.100	12.187087	-56.117673	23.180	-0.000	-0.420	0.900	23.130	-1.800	1.200																			1580064784.0	0.56	1.04
26/01/2020 18:53:05	26012020	260120	185305	23.200	12.187088	-56.117672	23.250	-0.010	-0.590	0.770	23.200	-2.000	1.100																			1580064785.0	0.41	0.76
26/01/2020 18:53:06	26012020	260120	185306	23.130	12.187088	-56.117672	23.170	-0.150	-0.420	0.570	23.130	-1.800	0.900																			1580064786.0	0.10	0.19
26/01/2020 18:53:07	26012020	260120	185307	23.020	12.187087	-56.117673	23.030	-0.250	-0.210	0.270	23.020	-1.600	0.600																			1580064787.0	0.43	0.80
26/01/2020 18:53:08	26012020	260120	185308	22.960	12.187085	-56.117675	22.980	-0.200	-0.230	-0.190	22.970	-1.600	0.200																			1580064788.0	0.57	1.06
26/01/2020 18:53:09	26012020	260120	185309	23.070	12.187087	-56.117678	23.120	-0.000	-0.470	-0.740	23.110	-1.800	-0.400																			1580064789.0	0.71	1.31
26/01/2020 18:53:10	26012020	260120	185310	23.350	12.187090	-56.117682	23.350	0.260	-0.620	-1.160	23.350	-2.000	-0.800																			1580064790.0	0.88	1.63
26/01/2020 18:53:11	26012020	260120	185311	23.520	12.187092	-56.117683	23.560	0.440	-0.440	-1.200	23.550	-1.900	-0.900																			1580064791.0	0.64	1.19
26/01/2020 18:53:12	26012020	260120	185312	23.610	12.187092	-56.117683	23.630	0.470	-0.090	-0.850	23.610	-1.500	-0.600																			1580064792.0	0.10	0.19
26/01/2020 18:53:13	26012020	260120	185313	23.570	12.187090	-56.117680	23.590	0.360	0.140	-0.320	23.550	-1.300	-0.100																			1580064793.0	0.59	1.09
26/01/2020 18:53:14	26012020	260120	185314	23.460	12.187090	-56.117677	23.520	0.170	0.210	0.240	23.460	-1.200	0.500																			1580064794.0	0.76	1.41
26/01/2020 18:53:15	26012020	260120	185315	23.430	12.187088	-56.117675	23.500	-0.020	0.240	0.700	23.440	-1.200	1.000																			1580064795.0	0.61	1.13
26/01/2020 18:53:16	26012020	260120	185316	23.440	12.187088	-56.117672	23.510	-0.170	0.370	1.050	23.440	-1.000	1.300																			1580064796.0	0.38	0.70
26/01/2020 18:53:17	26012020	260120	185317	23.440	12.187088	-56.117672	23.520	-0.340	0.450	1.170	23.440	-0.900	1.500																			1580064797.0	0.32	0.59
26/01/2020 18:53:18	26012020	260120	185318	23.510	12.187087	-56.117672	23.570	-0.520	0.220	0.930	23.510	-1.100	1.300																			1580064798.0	0.32	0.59
26/01/2020 18:53:19	26012020	260120	185319	23.620	12.187087	-56.117672	23.700	-0.640	-0.220	0.470	23.650	-1.600	0.800																			1580064799.0	0.16	0.30
26/01/2020 18:53:20	26012020	260120	185320	23.790	12.187087	-56.117673	23.850	-0.580	-0.570	0.020	23.810	-1.900	0.400																			1580064800.0	0.39	0.72
26/01/2020 18:53:21	26012020	260120	185321	23.860	12.187088	-56.117675	23.890	-0.280	-0.720	-0.350	23.860	-2.100	0.000																			1580064801.0	0.48	0.89
26/01/2020 18:53:22	26012020	260120	185322	23.870	12.187090	-56.117677	23.930	0.240	-0.820	-0.640	23.880	-2.200	-0.300																			1580064802.0	0.46	0.85
26/01/2020 18:53:23	26012020	260120	185323	23.960	12.187090	-56.117678	24.010	0.750	-0.870	-0.850	23.970	-2.300	-0.500																			1580064803.0	0.37	0.69
26/01/2020 18:53:24	26012020	260120	185324	24.020	12.187092	-56.117678	24.070	0.980	-0.610	-0.810	24.020	-2.000	-0.500																			1580064804.0	0.34	0.63
26/01/2020 18:53:25	26012020	260120	185325	23.970	12.187092	-56.117678	24.000	0.750	-0.010	-0.550	23.950	-1.500	-0.300																			1580064805.0	0.19	0.35
26/01/2020 18:53:26	26012020	260120	185326	23.890	12.187092	-56.117677	23.930	0.230	0.550	-0.260	23.880	-0.900	0.000																			1580064806.0	0.32	0.59
26/01/2020 18:53:27	26012020	260120	185327	23.930	12.187090	-56.117677	24.010	-0.250	0.760	-0.020	23.960	-0.600	0.300																			1580064807.0	0.30	0.56
26/01/2020 18:53:28	26012020	260120	185328	24.110	12.187090	-56.117677	24.220	-0.460	0.590	0.200	24.160	-0.800	0.500																			1580064808.0	0.10	0.19
26/01/2020 18:53:29	26012020	260120	185329	24.380	12.187090	-56.117675	24.490	-0.420	0.200	0.420	24.380	-1.200	0.700																			1580064809.0	0.31	0.57
26/01/2020 18:53:30	26012020	260120	185330	24.570	12.187090	-56.117673	24.640	-0.340	-0.110	0.700	24.580	-1.500	1.000																			1580064810.0	0.60	1.11
26/01/2020 18:53:31	26012020	260120	185331	24.470	12.187088	-56.117670	24.490	-0.350	-0.150	0.990	24.420	-1.600	1.300																			1580064811.0	0.77	1.43
26/01/2020 18:53:32	26012020	260120	185332	24.160	12.187087	-56.117667	24.200	-0.420	-0.140	1.120	24.110	-1.500	1.400																			1580064812.0	0.73	1.35
26/01/2020 18:53:33	26012020	260120	185333	23.970	12.187085	-56.117667	24.050	-0.340	-0.420	0.840	23.960	-1.800	1.200																			1580064813.0	0.42	0.78
26/01/2020 18:53:34	26012020	260120	185334	24.050	12.187085	-56.117668	24.160	0.010	-0.920	0.120	24.090	-2.300	0.500																			1580064814.0	0.53	0.98
26/01/2020 18:53:35	26012020	260120	185335	24.330	12.187090	-56.117673	24.430	0.500	-1.120	-0.690	24.390	-2.500	-0.300																			1580064815.0	1.25	2.31
26/01/2020 18:53:36	26012020	260120	185336	24.580	12.187093	-56.117677	24.640	0.790	-0.670	-1.170	24.600	-2.100	-0.800																			1580064816.0	1.24	2.30
26/01/2020 18:53:37	26012020	260120	185337	24.650	12.187095	-56.117680	24.680	0.640	0.150	-1.220	24.650	-1.300	-0.900																			1580064817.0	0.59	1.09
26/01/2020 18:53:38	26012020	260120	185338	24.580	12.187092	-56.117680	24.600	0.120	0.730	-0.950	24.560	-0.700	-0.700																			1580064818.0	0.52	0.96
26/01/2020 18:53:39	26012020	260120	185339	24.450	12.187090	-56.117680	24.480	-0.380	0.770	-0.450	24.430	-0.600	-0.200																			1580064819.0	0.51	0.94
26/01/2020 18:53:40	26012020	260120	185340	24.410	12.187088	-56.117678	24.500	-0.470	0.310	0.080	24.430	-1.000	0.400																			1580064820.0	0.34	0.63
26/01/2020 18:53:41	26012020	260120	185341	24.600	12.187090	-56.117677	24.750	-0.100	-0.420	0.470	24.600	-1.700	0.700																			1580064821.0	0.64	1.19
26/01/2020 18:53:42	26012020	260120	185342	24.930	12.187092	-56.117672	25.070	0.320	-0.880	0.690	24.990	-2.200	1.000																			1580064822.0	1.00	1.85
26/01/2020 18:53:43	26012020	260120	185343	25.070	12.187092	-56.117667	25.130	0.320	-0.600	0.920	25.070	-2.100	1.200																			1580064823.0	0.97	1.80
26/01/2020 18:53:44	26012020	260120	185344	24.790	12.187090	-56.117665	24.780	-0.140	0.280	1.190	24.690	-1.200	1.500																			1580064824.0	0.75	1.39
26/01/2020 18:53:45	26012020	260120	185345	24.230	12.187085	-56.117665	24.220	-0.660	1.000	1.190	24.130	-0.400	1.500																			1580064825.0	0.99	1.83
26/01/2020 18:53:46	26012020	260120	185346	23.810	12.187082	-56.117668	23.840	-0.730	0.820	0.660	23.770	-0.500	1.100																			1580064826.0	1.00	1.85
26/01/2020 18:53:47	26012020	260120	185347	23.740	12.187083	-56.117673	23.810	-0.260	-0.240	-0.310	23.760	-1.500	0.100																			1580064827.0	1.07	1.98
26/01/2020 18:53:48	26012020	260120	185348	24.100	12.187088	-56.117678	24.120	0.400	-1.370	-1.440	24.100	-2.700	-1.000																			1580064828.0	1.72	3.19
26/01/2020 18:53:49	26012020	260120	185349	24.490	12.187097	-56.117683	24.590	0.790	-1.770	-2.310	24.590	-3.200	-1.900																			1580064829.0	1.84	3.41
26/01/2020 18:53:50	26012020	260120	185350	24.880	12.187100	-56.117685	24.930	0.670	-1.160	-2.490	24.920	-2.700	-2.200																			1580064830.0	1.14	2.11
26/01/2020 18:53:51	26012020	260120	185351	24.900	12.187100	-56.117687	24.880	0.220	0.110	-1.760	24.850	-1.400	-1.600																			1580064831.0	0.30	0.56
26/01/2020 18:53:52	26012020	260120	185352	24.440	12.187095	-56.117685	24.490	-0.230	1.190	-0.370	24.440	-0.300	-0.200																			1580064832.0	1.21	2.24
26/01/2020 18:53:53	26012020	260120	185353	24.100	12.187088	-56.117680	24.120	-0.410	1.410	1.050	24.040	0.000	1.200																			1580064833.0	1.79	3.32
26/01/2020 18:53:54	26012020	260120	185354	23.900	12.187083	-56.117673	23.990	-0.250	0.740	2.010	23.880	-0.600	2.200																			1580064834.0	1.71	3.17
26/01/2020 18:53:55	26012020	260120	185355	23.920	12.187083	-56.117667	24.050	0.070	-0.260	2.380	23.920	-1.600	2.700																			1580064835.0	1.43	2.65
26/01/2020 18:53:56	26012020	260120	185356	24.010	12.187085	-56.117662	24.120	0.230	-0.910	2.250	24.020	-2.300	2.600																			1580064836.0	1.09	2.02
26/01/2020 18:53:57	26012020	260120	185357	23.980	12.187087	-56.117660	24.050	0.090	-0.890	1.740	23.980	-2.300	2.100																			1580064837.0	0.46	0.85
26/01/2020 18:53:58	26012020	260120	185358	23.810	12.187087	-56.117662	23.840	-0.250	-0.460	0.930	23.770	-1.900	1.300																			1580064838.0	0.50	0.93
26/01/2020 18:53:59	26012020	260120	185359	23.640	12.187087	-56.117668	23.670	-0.450	-0.070	-0.110	23.620	-1.500	0.300	1013.80	26.40	26.30	21.00	20.90	602.00	72.00	72.00	383.00	30.40	61.00	4.00	88.00	3.80	42011	3207.00	27.80	27.90	1580064839.0	1.34	2.48
26/01/2020 18:54:00	26012020	260120	185400	23.540	12.187088	-56.117677	23.550	-0.300	0.030	-1.120	23.540	-1.400	-0.700																			1580064840.0	1.81	3.35
26/01/2020 18:54:01	26012020	260120	185401	23.540	12.187092	-56.117685	23.540	0.070	-0.090	-1.810	23.550	-1.500	-1.400																			1580064841.0	1.76	3.26
26/01/2020 18:54:02	26012020	260120	185402	23.640	12.187095	-56.117690	23.650	0.380	-0.200	-2.020	23.640	-1.600	-1.700																			1580064842.0	1.22	2.26
26/01/2020 18:54:03	26012020	260120	185403	23.740	12.187097	-56.117690	23.750	0.450	-0.150	-1.740	23.760	-1.600	-1.500																			1580064843.0	0.40	0.74
26/01/2020 18:54:04	26012020	260120	185404	23.790	12.187095	-56.117688	23.810	0.290	0.000	-1.020	23.790	-1.400	-0.800																			1580064844.0	0.56	1.04
26/01/2020 18:54:05	26012020	260120	185405	23.780	12.187093	-56.117683	23.810	0.100	0.010	-0.030	23.770	-1.400	0.200																			1580064845.0	1.22	2.26
26/01/2020 18:54:06	26012020	260120	185406	23.690	12.187090	-56.117677	23.740	-0.000	-0.140	0.940	23.690	-1.500	1.200																			1580064846.0	1.45	2.69
26/01/2020 18:54:07	26012020	260120	185407	23.530	12.187088	-56.117670	23.530	-0.010	-0.230	1.760	23.470	-1.600	2.000																			1580064847.0	1.31	2.43
26/01/2020 18:54:08	26012020	260120	185408	23.200	12.187088	-56.117667	23.210	0.020	-0.110	2.260	23.130	-1.500	2.500																			1580064848.0	0.91	1.69
26/01/2020 18:54:09	26012020	260120	185409	22.890	12.187087	-56.117665	22.920	0.020	0.060	2.270	22.850	-1.400	2.600																			1580064849.0	0.40	0.74
26/01/2020 18:54:10	26012020	260120	185410	22.750	12.187087	-56.117665	22.810	-0.050	0.070	1.610	22.750	-1.300	2.000																			1580064850.0	0.17	0.31
26/01/2020 18:54:11	26012020	260120	185411	22.800	12.187088	-56.117668	22.850	-0.240	-0.030	0.440	22.820	-1.400	0.900																			1580064851.0	0.76	1.41
26/01/2020 18:54:12	26012020	260120	185412	22.880	12.187090	-56.117675	22.900	-0.460	-0.060	-0.800	22.900	-1.500	-0.400																			1580064852.0	1.42	2.63
26/01/2020 18:54:13	26012020	260120	185413	22.920	12.187093	-56.117683	22.910	-0.510	-0.030	-1.720	22.930	-1.400	-1.300																			1580064853.0	1.74	3.22
26/01/2020 18:54:14	26012020	260120	185414	23.010	12.187095	-56.117690	23.040	-0.230	-0.210	-2.260	23.040	-1.600	-1.900																			1580064854.0	1.46	2.70
26/01/2020 18:54:15	26012020	260120	185415	23.190	12.187097	-56.117693	23.230	0.280	-0.630	-2.350	23.230	-2.000	-2.000																			1580064855.0	0.80	1.48
26/01/2020 18:54:16	26012020	260120	185416	23.250	12.187098	-56.117692	23.240	0.670	-0.820	-1.790	23.230	-2.200	-1.600																			1580064856.0	0.46	0.85
26/01/2020 18:54:17	26012020	260120	185417	23.040	12.187098	-56.117687	23.020	0.670	-0.480	-0.690	22.980	-1.900	-0.500																			1580064857.0	0.99	1.83
26/01/2020 18:54:18	26012020	260120	185418	22.770	12.187095	-56.117680	22.810	0.320	0.110	0.450	22.740	-1.300	0.700																			1580064858.0	1.45	2.69
26/01/2020 18:54:19	26012020	260120	185419	22.640	12.187092	-56.117675	22.700	-0.090	0.500	1.320	22.630	-0.900	1.600																			1580064859.0	1.37	2.54
26/01/2020 18:54:20	26012020	260120	185420	22.590	12.187088	-56.117673	22.670	-0.330	0.540	1.810	22.580	-0.900	2.100																			1580064860.0	0.90	1.67
26/01/2020 18:54:21	26012020	260120	185421	22.530	12.187088	-56.117672	22.610	-0.330	0.290	1.880	22.530	-1.100	2.200																			1580064861.0	0.37	0.69
26/01/2020 18:54:22	26012020	260120	185422	22.500	12.187088	-56.117670	22.580	-0.220	-0.060	1.580	22.500	-1.400	1.900																			1580064862.0	0.21	0.39
26/01/2020 18:54:23	26012020	260120	185423	22.530	12.187090	-56.117672	22.590	-0.150	-0.360	1.000	22.540	-1.700	1.400																			1580064863.0	0.32	0.59
26/01/2020 18:54:24	26012020	260120	185424	22.600	12.187092	-56.117673	22.640	-0.190	-0.530	0.170	22.620	-1.900	0.600																			1580064864.0	0.51	0.94
26/01/2020 18:54:25	26012020	260120	185425	22.590	12.187093	-56.117678	22.580	-0.180	-0.490	-0.640	22.580	-1.900	-0.200																			1580064865.0	1.05	1.94
26/01/2020 18:54:26	26012020	260120	185426	22.490	12.187095	-56.117683	22.470	0.020	-0.350	-1.250	22.480	-1.800	-0.900																			1580064866.0	1.31	2.43
26/01/2020 18:54:27	26012020	260120	185427	22.470	12.187097	-56.117688	22.480	0.290	-0.250	-1.640	22.480	-1.700	-1.300																			1580064867.0	1.07	1.98
26/01/2020 18:54:28	26012020	260120	185428	22.600	12.187098	-56.117692	22.650	0.410	-0.170	-1.710	22.640	-1.600	-1.400																			1580064868.0	0.62	1.15
26/01/2020 18:54:29	26012020	260120	185429	22.790	12.187098	-56.117692	22.850	0.270	0.040	-1.320	22.820	-1.400	-1.100																			1580064869.0	0.10	0.19
26/01/2020 18:54:30	26012020	260120	185430	22.870	12.187098	-56.117688	22.910	-0.020	0.320	-0.550	22.870	-1.100	-0.300																			1580064870.0	0.68	1.26
26/01/2020 18:54:31	26012020	260120	185431	22.800	12.187095	-56.117683	22.810	-0.310	0.340	0.260	22.760	-1.000	0.500																			1580064871.0	1.24	2.30
26/01/2020 18:54:32	26012020	260120	185432	22.590	12.187092	-56.117678	22.600	-0.410	0.070	0.860	22.540	-1.300	1.100																			1580064872.0	1.12	2.07
26/01/2020 18:54:33	26012020	260120	185433	22.430	12.187092	-56.117677	22.490	-0.200	-0.360	1.150	22.420	-1.700	1.500																			1580064873.0	0.59	1.09
26/01/2020 18:54:34	26012020	260120	185434	22.470	12.187093	-56.117675	22.530	0.190	-0.700	1.120	22.470	-2.100	1.500																			1580064874.0	0.35	0.65
26/01/2020 18:54:35	26012020	260120	185435	22.540	12.187095	-56.117675	22.600	0.410	-0.650	0.890	22.560	-2.100	1.300																			1580064875.0	0.41	0.76
26/01/2020 18:54:36	26012020	260120	185436	22.630	12.187095	-56.117677	22.670	0.260	-0.200	0.490	22.630	-1.700	0.900																			1580064876.0	0.42	0.78
26/01/2020 18:54:37	26012020	260120	185437	22.680	12.187095	-56.117680	22.730	-0.100	0.310	-0.020	22.690	-1.100	0.400																			1580064877.0	0.71	1.31
26/01/2020 18:54:38	26012020	260120	185438	22.750	12.187095	-56.117683	22.790	-0.380	0.480	-0.550	22.760	-0.900	-0.200																			1580064878.0	0.87	1.61
26/01/2020 18:54:39	26012020	260120	185439	22.860	12.187095	-56.117687	22.910	-0.320	0.180	-0.960	22.900	-1.200	-0.600																			1580064879.0	0.71	1.31
26/01/2020 18:54:40	26012020	260120	185440	23.010	12.187097	-56.117688	23.050	0.010	-0.340	-1.070	23.040	-1.700	-0.700																			1580064880.0	0.43	0.80
26/01/2020 18:54:41	26012020	260120	185441	23.090	12.187098	-56.117687	23.110	0.310	-0.690	-0.880	23.090	-2.100	-0.600																			1580064881.0	0.55	1.02
26/01/2020 18:54:42	26012020	260120	185442	23.030	12.187098	-56.117683	23.040	0.260	-0.580	-0.640	23.030	-2.000	-0.300																			1580064882.0	0.73	1.35
26/01/2020 18:54:43	26012020	260120	185443	22.900	12.187098	-56.117682	22.880	-0.050	-0.080	-0.380	22.860	-1.500	-0.100																			1580064883.0	0.44	0.81
26/01/2020 18:54:44	26012020	260120	185444	22.740	12.187097	-56.117682	22.750	-0.310	0.360	-0.120	22.730	-1.100	0.200																			1580064884.0	0.44	0.81
26/01/2020 18:54:45	26012020	260120	185445	22.740	12.187095	-56.117683	22.780	-0.270	0.370	0.060	22.740	-1.000	0.400																			1580064885.0	0.46	0.85
26/01/2020 18:54:46	26012020	260120	185446	22.900	12.187095	-56.117685	22.970	-0.070	0.020	0.100	22.950	-1.300	0.400																			1580064886.0	0.13	0.24
26/01/2020 18:54:47	26012020	260120	185447	23.140	12.187097	-56.117683	23.180	0.050	-0.260	0.100	23.170	-1.600	0.400																			1580064887.0	0.31	0.57
26/01/2020 18:54:48	26012020	260120	185448	23.260	12.187097	-56.117683	23.280	0.010	-0.240	0.240	23.260	-1.600	0.500																			1580064888.0	0.25	0.46
26/01/2020 18:54:49	26012020	260120	185449	23.210	12.187097	-56.117682	23.220	-0.060	-0.120	0.480	23.200	-1.500	0.800																			1580064889.0	0.28	0.52
26/01/2020 18:54:50	26012020	260120	185450	23.160	12.187093	-56.117682	23.190	0.010	-0.260	0.540	23.160	-1.600	0.900																			1580064890.0	0.48	0.89
26/01/2020 18:54:51	26012020	260120	185451	23.250	12.187093	-56.117680	23.310	0.200	-0.620	0.280	23.290	-2.000	0.700																			1580064891.0	0.26	0.48
26/01/2020 18:54:52	26012020	260120	185452	23.430	12.187097	-56.117680	23.470	0.370	-0.730	-0.090	23.450	-2.100	0.300																			1580064892.0	0.46	0.85
26/01/2020 18:54:53	26012020	260120	185453	23.500	12.187098	-56.117682	23.520	0.370	-0.370	-0.350	23.500	-1.800	0.000																			1580064893.0	0.57	1.06
26/01/2020 18:54:54	26012020	260120	185454	23.460	12.187098	-56.117683	23.480	0.190	0.240	-0.470	23.460	-1.200	-0.100																			1580064894.0	0.40	0.74
26/01/2020 18:54:55	26012020	260120	185455	23.410	12.187097	-56.117685	23.430	-0.100	0.660	-0.450	23.400	-0.800	-0.100																			1580064895.0	0.43	0.80
26/01/2020 18:54:56	26012020	260120	185456	23.410	12.187097	-56.117685	23.460	-0.370	0.640	-0.380	23.430	-0.700	-0.100																			1580064896.0	0.31	0.57
26/01/2020 18:54:57	26012020	260120	185457	23.570	12.187095	-56.117685	23.640	-0.530	0.260	-0.460	23.610	-1.100	-0.100																			1580064897.0	0.12	0.22
26/01/2020 18:54:58	26012020	260120	185458	23.810	12.187097	-56.117683	23.880	-0.530	-0.150	-0.550	23.850	-1.500	-0.200																			1580064898.0	0.22	0.41
26/01/2020 18:54:59	26012020	260120	185459	23.960	12.187097	-56.117683	24.010	-0.390	-0.330	-0.420	23.970	-1.700	-0.100	1013.80	26.40	26.30	20.90	20.90	607.00	72.00	72.00	383.00	30.40	65.00	4.30	92.00	4.10	41980	3351.00	27.80	27.90	1580064899.0	0.17	0.31
26/01/2020 18:55:00	26012020	260120	185500	23.920	12.187097	-56.117683	23.950	-0.110	-0.400	-0.080	23.900	-1.800	0.200																			1580064900.0	0.14	0.26
26/01/2020 18:55:01	26012020	260120	185501	23.830	12.187095	-56.117683	23.890	0.280	-0.590	0.210	23.830	-2.000	0.500																			1580064901.0	0.29	0.54
26/01/2020 18:55:02	26012020	260120	185502	23.870	12.187095	-56.117682	23.940	0.640	-0.790	0.340	23.880	-2.200	0.700																			1580064902.0	0.25	0.46
26/01/2020 18:55:03	26012020	260120	185503	23.960	12.187097	-56.117680	24.040	0.730	-0.730	0.420	23.980	-2.100	0.700																			1580064903.0	0.37	0.69
26/01/2020 18:55:04	26012020	260120	185504	24.120	12.187097	-56.117678	24.190	0.440	-0.330	0.420	24.120	-1.800	0.700																			1580064904.0	0.29	0.54
26/01/2020 18:55:05	26012020	260120	185505	24.290	12.187097	-56.117678	24.390	-0.050	0.200	0.260	24.330	-1.200	0.600																			1580064905.0	0.12	0.22
26/01/2020 18:55:06	26012020	260120	185506	24.500	12.187095	-56.117680	24.600	-0.420	0.590	0.030	24.530	-0.800	0.400																			1580064906.0	0.30	0.56
26/01/2020 18:55:07	26012020	260120	185507	24.600	12.187095	-56.117682	24.670	-0.470	0.670	-0.050	24.600	-0.700	0.300																			1580064907.0	0.27	0.50
26/01/2020 18:55:08	26012020	260120	185508	24.550	12.187095	-56.117680	24.600	-0.300	0.460	0.020	24.530	-0.900	0.300																			1580064908.0	0.10	0.19
26/01/2020 18:55:09	26012020	260120	185509	24.460	12.187095	-56.117678	24.510	-0.140	0.090	0.010	24.440	-1.300	0.300																			1580064909.0	0.32	0.59
26/01/2020 18:55:10	26012020	260120	185510	24.430	12.187095	-56.117678	24.490	-0.090	-0.260	-0.150	24.440	-1.600	0.200																			1580064910.0	0.22	0.41
26/01/2020 18:55:11	26012020	260120	185511	24.480	12.187095	-56.117678	24.550	-0.050	-0.520	-0.390	24.490	-1.900	-0.000																			1580064911.0	0.16	0.30
26/01/2020 18:55:12	26012020	260120	185512	24.550	12.187095	-56.117680	24.620	0.100	-0.710	-0.550	24.570	-2.100	-0.200																			1580064912.0	0.42	0.78
26/01/2020 18:55:13	26012020	260120	185513	24.630	12.187097	-56.117682	24.690	0.300	-0.780	-0.550	24.640	-2.200	-0.200																			1580064913.0	0.36	0.67
26/01/2020 18:55:14	26012020	260120	185514	24.720	12.187098	-56.117682	24.780	0.340	-0.600	-0.430	24.740	-2.000	-0.100																			1580064914.0	0.18	0.33
26/01/2020 18:55:15	26012020	260120	185515	24.790	12.187098	-56.117682	24.840	0.140	-0.150	-0.280	24.800	-1.600	0.000																			1580064915.0	0.07	0.13
26/01/2020 18:55:16	26012020	260120	185516	24.830	12.187097	-56.117682	24.890	-0.130	0.300	-0.060	24.840	-1.100	0.200																			1580064916.0	0.28	0.52
26/01/2020 18:55:17	26012020	260120	185517	24.880	12.187095	-56.117680	24.950	-0.280	0.490	0.260	24.900	-0.900	0.500																			1580064917.0	0.43	0.80
26/01/2020 18:55:18	26012020	260120	185518	24.980	12.187093	-56.117678	25.070	-0.190	0.330	0.560	25.010	-1.000	0.900																			1580064918.0	0.46	0.85
26/01/2020 18:55:19	26012020	260120	185519	25.150	12.187093	-56.117677	25.270	0.050	-0.040	0.640	25.190	-1.400	1.000																			1580064919.0	0.54	1.00
26/01/2020 18:55:20	26012020	260120	185520	25.300	12.187093	-56.117673	25.390	0.270	-0.320	0.570	25.310	-1.700	0.900																			1580064920.0	0.53	0.98
26/01/2020 18:55:21	26012020	260120	185521	25.240	12.187093	-56.117672	25.290	0.310	-0.300	0.540	25.240	-1.700	0.900																			1580064921.0	0.33	0.61
26/01/2020 18:55:22	26012020	260120	185522	25.010	12.187093	-56.117672	25.040	0.160	-0.140	0.450	24.960	-1.500	0.800																			1580064922.0	0.18	0.33
26/01/2020 18:55:23	26012020	260120	185523	24.790	12.187092	-56.117673	24.840	-0.110	-0.050	0.190	24.790	-1.400	0.500																			1580064923.0	0.23	0.43
26/01/2020 18:55:24	26012020	260120	185524	24.700	12.187093	-56.117675	24.770	-0.350	-0.060	-0.240	24.700	-1.400	0.100																			1580064924.0	0.56	1.04
26/01/2020 18:55:25	26012020	260120	185525	24.830	12.187095	-56.117680	24.930	-0.370	-0.140	-0.750	24.870	-1.500	-0.400																			1580064925.0	0.95	1.76
26/01/2020 18:55:26	26012020	260120	185526	25.130	12.187097	-56.117683	25.240	-0.130	-0.240	-1.120	25.190	-1.600	-0.800																			1580064926.0	0.95	1.76
26/01/2020 18:55:27	26012020	260120	185527	25.480	12.187097	-56.117685	25.590	0.160	-0.330	-1.160	25.540	-1.700	-0.900																			1580064927.0	0.38	0.70
26/01/2020 18:55:28	26012020	260120	185528	25.710	12.187097	-56.117683	25.780	0.260	-0.310	-0.780	25.720	-1.700	-0.500																			1580064928.0	0.35	0.65
26/01/2020 18:55:29	26012020	260120	185529	25.660	12.187095	-56.117680	25.690	0.150	-0.110	-0.050	25.610	-1.500	0.200																			1580064929.0	0.88	1.63
26/01/2020 18:55:30	26012020	260120	185530	25.330	12.187092	-56.117675	25.420	0.000	0.050	0.700	25.330	-1.400	0.900																			1580064930.0	1.16	2.15
26/01/2020 18:55:31	26012020	260120	185531	25.150	12.187090	-56.117672	25.240	-0.030	-0.060	1.100	25.130	-1.400	1.400																			1580064931.0	0.99	1.83
26/01/2020 18:55:32	26012020	260120	185532	25.100	12.187090	-56.117668	25.210	0.070	-0.260	1.040	25.100	-1.600	1.400																			1580064932.0	0.43	0.80
26/01/2020 18:55:33	26012020	260120	185533	25.150	12.187092	-56.117670	25.250	0.180	-0.250	0.730	25.160	-1.700	1.100																			1580064933.0	0.38	0.70
26/01/2020 18:55:34	26012020	260120	185534	25.220	12.187093	-56.117672	25.320	0.180	0.010	0.340	25.240	-1.400	0.700																			1580064934.0	0.61	1.13
26/01/2020 18:55:35	26012020	260120	185535	25.330	12.187093	-56.117675	25.440	0.060	0.260	-0.060	25.330	-1.100	0.300																			1580064935.0	0.62	1.15
26/01/2020 18:55:36	26012020	260120	185536	25.470	12.187092	-56.117677	25.570	-0.160	0.230	-0.440	25.490	-1.100	-0.100																			1580064936.0	0.45	0.83
26/01/2020 18:55:37	26012020	260120	185537	25.550	12.187092	-56.117678	25.630	-0.390	-0.050	-0.730	25.550	-1.400	-0.400																			1580064937.0	0.23	0.43
26/01/2020 18:55:38	26012020	260120	185538	25.570	12.187093	-56.117678	25.630	-0.470	-0.330	-0.830	25.560	-1.700	-0.500																			1580064938.0	0.23	0.43
26/01/2020 18:55:39	26012020	260120	185539	25.560	12.187093	-56.117678	25.630	-0.320	-0.400	-0.720	25.560	-1.800	-0.400																			1580064939.0	0.14	0.26
26/01/2020 18:55:40	26012020	260120	185540	25.550	12.187093	-56.117678	25.620	-0.050	-0.300	-0.480	25.540	-1.700	-0.200																			1580064940.0	0.18	0.33
26/01/2020 18:55:41	26012020	260120	185541	25.490	12.187092	-56.117677	25.550	0.210	-0.190	-0.180	25.470	-1.600	0.100																			1580064941.0	0.32	0.59
26/01/2020 18:55:42	26012020	260120	185542	25.370	12.187092	-56.117677	25.430	0.420	-0.180	0.190	25.350	-1.600	0.500																			1580064942.0	0.31	0.57
26/01/2020 18:55:43	26012020	260120	185543	25.290	12.187090	-56.117673	25.400	0.520	-0.290	0.520	25.300	-1.700	0.800																			1580064943.0	0.47	0.87
26/01/2020 18:55:44	26012020	260120	185544	25.390	12.187090	-56.117672	25.530	0.450	-0.380	0.530	25.430	-1.800	0.900																			1580064944.0	0.63	1.17
26/01/2020 18:55:45	26012020	260120	185545	25.580	12.187090	-56.117670	25.700	0.180	-0.240	0.340	25.610	-1.700	0.700																			1580064945.0	0.37	0.69
26/01/2020 18:55:46	26012020	260120	185546	25.600	12.187090	-56.117670	25.680	-0.190	0.170	0.260	25.580	-1.300	0.600																			1580064946.0	0.14	0.26
26/01/2020 18:55:47	26012020	260120	185547	25.420	12.187090	-56.117672	25.470	-0.480	0.550	0.280	25.420	-0.900	0.600																			1580064947.0	0.41	0.76
26/01/2020 18:55:48	26012020	260120	185548	25.250	12.187088	-56.117673	25.330	-0.510	0.460	0.180	25.240	-0.900	0.500																			1580064948.0	0.48	0.89
26/01/2020 18:55:49	26012020	260120	185549	25.260	12.187088	-56.117675	25.370	-0.290	-0.070	-0.130	25.290	-1.400	0.200																			1580064949.0	0.27	0.50
26/01/2020 18:55:50	26012020	260120	185550	25.410	12.187090	-56.117675	25.510	0.020	-0.560	-0.370	25.430	-1.900	-0.000																			1580064950.0	0.46	0.85
26/01/2020 18:55:51	26012020	260120	185551	25.510	12.187092	-56.117675	25.590	0.200	-0.610	-0.350	25.520	-2.000	-0.000																			1580064951.0	0.38	0.70
26/01/2020 18:55:52	26012020	260120	185552	25.490	12.187092	-56.117673	25.550	0.190	-0.350	-0.220	25.470	-1.800	0.100																			1580064952.0	0.36	0.67
26/01/2020 18:55:53	26012020	260120	185553	25.360	12.187090	-56.117672	25.410	0.070	-0.160	-0.210	25.330	-1.600	0.100																			1580064953.0	0.55	1.02
26/01/2020 18:55:54	26012020	260120	185554	25.200	12.187088	-56.117672	25.240	-0.000	-0.110	-0.200	25.160	-1.500	0.100																			1580064954.0	0.21	0.39
26/01/2020 18:55:55	26012020	260120	185555	25.050	12.187088	-56.117673	25.130	0.060	-0.060	-0.140	25.040	-1.500	0.200																			1580064955.0	0.29	0.54
26/01/2020 18:55:56	26012020	260120	185556	25.030	12.187090	-56.117675	25.130	0.180	-0.030	-0.120	25.040	-1.400	0.200																			1580064956.0	0.35	0.65
26/01/2020 18:55:57	26012020	260120	185557	25.150	12.187090	-56.117675	25.280	0.230	-0.040	-0.190	25.190	-1.400	0.100																			1580064957.0	0.27	0.50
26/01/2020 18:55:58	26012020	260120	185558	25.350	12.187092	-56.117675	25.440	0.100	-0.060	-0.170	25.350	-1.400	0.100																			1580064958.0	0.09	0.17
26/01/2020 18:55:59	26012020	260120	185559	25.420	12.187090	-56.117675	25.520	-0.150	-0.010	0.090	25.420	-1.400	0.400	1013.80	26.30	26.20	20.70	20.80	601.00	71.00	72.00	383.00	30.40	59.00	4.20	85.00	4.20	41573	3316.00	27.80	27.90	1580064959.0	0.29	0.54
26/01/2020 18:56:00	26012020	260120	185600	25.420	12.187088	-56.117672	25.530	-0.390	0.060	0.440	25.410	-1.300	0.700																			1580064960.0	0.67	1.24
26/01/2020 18:56:01	26012020	260120	185601	25.350	12.187087	-56.117668	25.440	-0.450	0.010	0.700	25.310	-1.400	1.000																			1580064961.0	0.79	1.46
26/01/2020 18:56:02	26012020	260120	185602	25.150	12.187085	-56.117667	25.250	-0.260	-0.180	0.740	25.110	-1.500	1.100																			1580064962.0	0.52	0.96
26/01/2020 18:56:03	26012020	260120	185603	24.940	12.187085	-56.117667	25.030	0.130	-0.450	0.530	24.910	-1.800	0.900																			1580064963.0	0.14	0.26
26/01/2020 18:56:04	26012020	260120	185604	24.820	12.187087	-56.117667	24.940	0.520	-0.620	0.140	24.820	-2.000	0.500																			1580064964.0	0.34	0.63
26/01/2020 18:56:05	26012020	260120	185605	24.860	12.187090	-56.117668	24.970	0.630	-0.520	-0.360	24.880	-1.900	0.000																			1580064965.0	0.56	1.04
26/01/2020 18:56:06	26012020	260120	185606	24.900	12.187092	-56.117672	24.980	0.380	-0.070	-0.780	24.900	-1.500	-0.400																			1580064966.0	0.71	1.31
26/01/2020 18:56:07	26012020	260120	185607	24.850	12.187092	-56.117675	24.900	-0.050	0.440	-1.010	24.840	-1.000	-0.700																			1580064967.0	0.84	1.56
26/01/2020 18:56:08	26012020	260120	185608	24.880	12.187090	-56.117678	24.950	-0.350	0.590	-1.040	24.880	-0.800	-0.700																			1580064968.0	0.75	1.39
26/01/2020 18:56:09	26012020	260120	185609	25.030	12.187090	-56.117680	25.130	-0.410	0.300	-0.850	25.080	-1.000	-0.600																			1580064969.0	0.27	0.50
26/01/2020 18:56:10	26012020	260120	185610	25.260	12.187090	-56.117678	25.320	-0.330	-0.150	-0.430	25.260	-1.500	-0.200																			1580064970.0	0.36	0.67
26/01/2020 18:56:11	26012020	260120	185611	25.270	12.187090	-56.117673	25.330	-0.250	-0.420	0.250	25.250	-1.800	0.500																			1580064971.0	0.86	1.59
26/01/2020 18:56:12	26012020	260120	185612	25.060	12.187088	-56.117668	25.150	-0.220	-0.420	1.000	25.060	-1.800	1.200																			1580064972.0	1.21	2.24
26/01/2020 18:56:13	26012020	260120	185613	24.880	12.187085	-56.117663	24.940	-0.160	-0.370	1.500	24.840	-1.800	1.800																			1580064973.0	1.33	2.46
26/01/2020 18:56:14	26012020	260120	185614	24.660	12.187083	-56.117660	24.720	0.050	-0.420	1.600	24.620	-1.800	1.900																			1580064974.0	0.93	1.72
26/01/2020 18:56:15	26012020	260120	185615	24.390	12.187083	-56.117658	24.450	0.380	-0.440	1.270	24.340	-1.800	1.600																			1580064975.0	0.21	0.39
26/01/2020 18:56:16	26012020	260120	185616	24.160	12.187085	-56.117660	24.240	0.670	-0.350	0.590	24.140	-1.800	1.000																			1580064976.0	0.54	1.00
26/01/2020 18:56:17	26012020	260120	185617	24.130	12.187087	-56.117665	24.210	0.750	-0.160	-0.360	24.150	-1.600	0.100																			1580064977.0	1.11	2.06
26/01/2020 18:56:18	26012020	260120	185618	24.300	12.187090	-56.117670	24.390	0.510	0.130	-1.310	24.350	-1.300	-0.900																			1580064978.0	1.43	2.65
26/01/2020 18:56:19	26012020	260120	185619	24.550	12.187093	-56.117677	24.620	0.010	0.440	-1.970	24.600	-1.000	-1.600																			1580064979.0	1.31	2.43
26/01/2020 18:56:20	26012020	260120	185620	24.760	12.187093	-56.117680	24.800	-0.580	0.590	-2.120	24.790	-0.800	-1.800																			1580064980.0	0.88	1.63
26/01/2020 18:56:21	26012020	260120	185621	24.860	12.187093	-56.117682	24.880	-0.940	0.410	-1.630	24.860	-0.900	-1.400																			1580064981.0	0.31	0.57
26/01/2020 18:56:22	26012020	260120	185622	24.830	12.187092	-56.117680	24.850	-0.880	-0.050	-0.640	24.810	-1.400	-0.400																			1580064982.0	0.66	1.22
26/01/2020 18:56:23	26012020	260120	185623	24.630	12.187090	-56.117673	24.650	-0.460	-0.510	0.570	24.580	-1.900	0.800																			1580064983.0	1.41	2.61
26/01/2020 18:56:24	26012020	260120	185624	24.240	12.187087	-56.117665	24.340	0.080	-0.770	1.660	24.240	-2.100	1.900																			1580064984.0	1.83	3.39
26/01/2020 18:56:25	26012020	260120	185625	23.970	12.187085	-56.117657	24.020	0.450	-0.800	2.280	23.970	-2.200	2.600																			1580064985.0	1.70	3.15
26/01/2020 18:56:26	26012020	260120	185626	23.740	12.187083	-56.117653	23.820	0.530	-0.590	2.160	23.710	-2.000	2.500																			1580064986.0	0.98	1.81
26/01/2020 18:56:27	26012020	260120	185627	23.730	12.187083	-56.117653	23.830	0.400	-0.280	1.240	23.750	-1.700	1.700																			1580064987.0	0.17	0.31
26/01/2020 18:56:28	26012020	260120	185628	23.980	12.187085	-56.117660	24.040	0.270	-0.040	-0.090	23.980	-1.400	0.400																			1580064988.0	1.36	2.52
26/01/2020 18:56:29	26012020	260120	185629	24.190	12.187088	-56.117668	24.270	0.270	0.110	-1.220	24.220	-1.300	-0.800																			1580064989.0	1.96	3.63
26/01/2020 18:56:30	26012020	260120	185630	24.310	12.187092	-56.117675	24.350	0.280	0.210	-1.820	24.310	-1.200	-1.500																			1580064990.0	1.57	2.91
26/01/2020 18:56:31	26012020	260120	185631	24.260	12.187093	-56.117677	24.250	0.070	0.270	-1.880	24.230	-1.100	-1.600																			1580064991.0	0.64	1.19
26/01/2020 18:56:32	26012020	260120	185632	24.080	12.187093	-56.117677	24.060	-0.380	0.340	-1.520	24.040	-1.100	-1.200																			1580064992.0	0.10	0.19
26/01/2020 18:56:33	26012020	260120	185633	23.920	12.187092	-56.117675	23.950	-0.780	0.360	-0.930	23.910	-1.000	-0.700																			1580064993.0	0.43	0.80
26/01/2020 18:56:34	26012020	260120	185634	23.880	12.187090	-56.117673	23.940	-0.790	0.180	-0.220	23.880	-1.200	0.000																			1580064994.0	0.60	1.11
26/01/2020 18:56:35	26012020	260120	185635	23.880	12.187088	-56.117670	23.960	-0.380	-0.240	0.490	23.880	-1.600	0.700																			1580064995.0	0.81	1.50
26/01/2020 18:56:36	26012020	260120	185636	23.860	12.187087	-56.117665	23.950	0.130	-0.700	1.140	23.850	-2.100	1.400																			1580064996.0	1.07	1.98
26/01/2020 18:56:37	26012020	260120	185637	23.800	12.187085	-56.117660	23.890	0.410	-0.930	1.610	23.780	-2.300	1.900																			1580064997.0	1.15	2.13
26/01/2020 18:56:38	26012020	260120	185638	23.700	12.187085	-56.117657	23.790	0.390	-0.830	1.670	23.680	-2.200	2.000																			1580064998.0	0.87	1.61
26/01/2020 18:56:39	26012020	260120	185639	23.550	12.187085	-56.117655	23.620	0.230	-0.500	1.240	23.510	-1.900	1.600																			1580064999.0	0.13	0.24
26/01/2020 18:56:40	26012020	260120	185640	23.350	12.187085	-56.117660	23.410	0.170	-0.050	0.510	23.310	-1.500	0.900																			1580065000.0	0.82	1.52
26/01/2020 18:56:41	26012020	260120	185641	23.240	12.187088	-56.117665	23.320	0.300	0.270	-0.230	23.240	-1.100	0.200																			1580065001.0	1.39	2.57
26/01/2020 18:56:42	26012020	260120	185642	23.340	12.187090	-56.117670	23.440	0.490	0.300	-0.860	23.380	-1.100	-0.500																			1580065002.0	1.24	2.30
26/01/2020 18:56:43	26012020	260120	185643	23.520	12.187092	-56.117673	23.590	0.380	0.270	-1.290	23.540	-1.100	-0.900																			1580065003.0	0.69	1.28
26/01/2020 18:56:44	26012020	260120	185644	23.540	12.187093	-56.117673	23.560	-0.130	0.410	-1.400	23.520	-1.000	-1.100																			1580065004.0	0.24	0.44
26/01/2020 18:56:45	26012020	260120	185645	23.350	12.187092	-56.117673	23.350	-0.760	0.510	-1.200	23.300	-0.900	-0.900																			1580065005.0	0.23	0.43
26/01/2020 18:56:46	26012020	260120	185646	23.150	12.187090	-56.117673	23.200	-1.020	0.210	-0.940	23.130	-1.100	-0.600																			1580065006.0	0.41	0.76
26/01/2020 18:56:47	26012020	260120	185647	23.120	12.187090	-56.117673	23.190	-0.680	-0.460	-0.600	23.120	-1.800	-0.300																			1580065007.0	0.12	0.22
26/01/2020 18:56:48	26012020	260120	185648	23.100	12.187092	-56.117673	23.160	-0.010	-0.940	-0.010	23.090	-2.300	0.200																			1580065008.0	0.40	0.74
26/01/2020 18:56:49	26012020	260120	185649	22.980	12.187092	-56.117670	23.020	0.480	-0.850	0.710	22.980	-2.300	0.900																			1580065009.0	0.72	1.33
26/01/2020 18:56:50	26012020	260120	185650	22.790	12.187090	-56.117665	22.840	0.530	-0.400	1.270	22.750	-1.800	1.500																			1580065010.0	1.03	1.91
26/01/2020 18:56:51	26012020	260120	185651	22.610	12.187087	-56.117662	22.690	0.320	-0.060	1.480	22.590	-1.500	1.800																			1580065011.0	0.99	1.83
26/01/2020 18:56:52	26012020	260120	185652	22.580	12.187085	-56.117662	22.690	0.180	-0.070	1.190	22.600	-1.400	1.600																			1580065012.0	0.46	0.85
26/01/2020 18:56:53	26012020	260120	185653	22.730	12.187087	-56.117662	22.840	0.250	-0.300	0.480	22.760	-1.700	0.900																			1580065013.0	0.38	0.70
26/01/2020 18:56:54	26012020	260120	185654	22.900	12.187090	-56.117665	23.000	0.350	-0.370	-0.380	22.920	-1.800	0.000																			1580065014.0	1.03	1.91
26/01/2020 18:56:55	26012020	260120	185655	22.980	12.187093	-56.117670	23.030	0.250	-0.080	-1.060	22.970	-1.500	-0.700																			1580065015.0	1.23	2.28
26/01/2020 18:56:56	26012020	260120	185656	22.850	12.187095	-56.117673	22.850	-0.060	0.530	-1.320	22.800	-0.900	-1.000																			1580065016.0	1.06	1.96
26/01/2020 18:56:57	26012020	260120	185657	22.550	12.187095	-56.117677	22.540	-0.370	0.970	-1.090	22.480	-0.400	-0.800																			1580065017.0	0.76	1.41
26/01/2020 18:56:58	26012020	260120	185658	22.230	12.187092	-56.117678	22.300	-0.470	0.760	-0.650	22.230	-0.600	-0.400																			1580065018.0	0.60	1.11
26/01/2020 18:56:59	26012020	260120	185659	22.230	12.187090	-56.117675	22.330	-0.390	-0.110	-0.400	22.260	-1.400	-0.100	1013.80	26.40	26.30	20.90	20.90	586.00	72.00	72.00	383.00	30.40	70.00	4.70	99.00	4.60	40815	3469.00	27.80	27.90	1580065019.0	0.64	1.19
26/01/2020 18:57:00	26012020	260120	185700	22.430	12.187092	-56.117672	22.550	-0.270	-0.990	-0.400	22.480	-2.300	-0.100																			1580065020.0	0.71	1.31
26/01/2020 18:57:01	26012020	260120	185701	22.610	12.187095	-56.117672	22.690	-0.150	-1.210	-0.320	22.610	-2.600	-0.000																			1580065021.0	0.63	1.17
26/01/2020 18:57:02	26012020	260120	185702	22.630	12.187095	-56.117672	22.680	0.010	-0.800	-0.000	22.620	-2.200	0.300																			1580065022.0	0.11	0.20
26/01/2020 18:57:03	26012020	260120	185703	22.560	12.187093	-56.117672	22.600	0.220	-0.290	0.430	22.540	-1.700	0.700																			1580065023.0	0.46	0.85
26/01/2020 18:57:04	26012020	260120	185704	22.490	12.187090	-56.117670	22.550	0.370	0.010	0.760	22.480	-1.400	1.000																			1580065024.0	0.62	1.15
26/01/2020 18:57:05	26012020	260120	185705	22.430	12.187088	-56.117667	22.490	0.360	0.160	0.880	22.420	-1.200	1.200																			1580065025.0	0.51	0.94
26/01/2020 18:57:06	26012020	260120	185706	22.380	12.187088	-56.117667	22.450	0.200	0.210	0.760	22.380	-1.200	1.100																			1580065026.0	0.27	0.50
26/01/2020 18:57:07	26012020	260120	185707	22.390	12.187090	-56.117667	22.470	0.070	0.140	0.390	22.400	-1.200	0.800																			1580065027.0	0.19	0.35
26/01/2020 18:57:08	26012020	260120	185708	22.410	12.187092	-56.117668	22.470	0.080	-0.040	-0.040	22.400	-1.400	0.300																			1580065028.0	0.56	1.04
26/01/2020 18:57:09	26012020	260120	185709	22.360	12.187093	-56.117672	22.410	0.140	-0.170	-0.400	22.350	-1.500	-0.000																			1580065029.0	0.62	1.15
26/01/2020 18:57:10	26012020	260120	185710	22.330	12.187095	-56.117672	22.390	0.090	-0.190	-0.690	22.340	-1.600	-0.300																			1580065030.0	0.43	0.80
26/01/2020 18:57:11	26012020	260120	185711	22.350	12.187095	-56.117673	22.400	-0.170	0.010	-0.900	22.350	-1.400	-0.600																			1580065031.0	0.27	0.50
26/01/2020 18:57:12	26012020	260120	185712	22.280	12.187095	-56.117675	22.310	-0.510	0.350	-0.880	22.250	-1.100	-0.600																			1580065032.0	0.37	0.69
26/01/2020 18:57:13	26012020	260120	185713	22.140	12.187093	-56.117677	22.180	-0.660	0.400	-0.670	22.120	-1.000	-0.400																			1580065033.0	0.55	1.02
26/01/2020 18:57:14	26012020	260120	185714	22.090	12.187092	-56.117677	22.160	-0.460	-0.100	-0.450	22.100	-1.400	-0.200																			1580065034.0	0.33	0.61
26/01/2020 18:57:15	26012020	260120	185715	22.210	12.187092	-56.117677	22.310	-0.020	-0.880	-0.330	22.210	-2.200	-0.000																			1580065035.0	0.30	0.56
26/01/2020 18:57:16	26012020	260120	185716	22.440	12.187095	-56.117675	22.530	0.380	-1.340	-0.190	22.480	-2.700	0.100																			1580065036.0	0.72	1.33
26/01/2020 18:57:17	26012020	260120	185717	22.580	12.187097	-56.117672	22.630	0.510	-0.980	0.150	22.580	-2.400	0.400																			1580065037.0	0.69	1.28
26/01/2020 18:57:18	26012020	260120	185718	22.480	12.187095	-56.117670	22.500	0.390	0.030	0.690	22.440	-1.500	0.900																			1580065038.0	0.57	1.06
26/01/2020 18:57:19	26012020	260120	185719	22.200	12.187090	-56.117667	22.220	0.210	0.840	1.070	22.140	-0.600	1.400																			1580065039.0	1.02	1.89
26/01/2020 18:57:20	26012020	260120	185720	21.970	12.187087	-56.117667	22.040	0.100	0.820	0.910	21.950	-0.500	1.300																			1580065040.0	0.78	1.44
26/01/2020 18:57:21	26012020	260120	185721	22.000	12.187088	-56.117668	22.100	0.100	0.180	0.280	22.040	-1.100	0.700																			1580065041.0	0.27	0.50
26/01/2020 18:57:22	26012020	260120	185722	22.310	12.187092	-56.117670	22.360	0.090	-0.410	-0.450	22.310	-1.700	-0.100																			1580065042.0	1.05	1.94
26/01/2020 18:57:23	26012020	260120	185723	22.470	12.187097	-56.117673	22.520	-0.070	-0.490	-0.950	22.480	-1.900	-0.600																			1580065043.0	1.13	2.09
26/01/2020 18:57:24	26012020	260120	185724	22.410	12.187098	-56.117677	22.420	-0.310	-0.120	-1.040	22.370	-1.500	-0.700																			1580065044.0	0.75	1.39
26/01/2020 18:57:25	26012020	260120	185725	22.180	12.187097	-56.117678	22.180	-0.430	0.210	-0.790	22.140	-1.200	-0.500																			1580065045.0	0.55	1.02
26/01/2020 18:57:26	26012020	260120	185726	21.980	12.187093	-56.117678	22.040	-0.350	0.090	-0.450	21.980	-1.300	-0.200																			1580065046.0	0.65	1.20
26/01/2020 18:57:27	26012020	260120	185727	21.960	12.187092	-56.117675	22.030	-0.170	-0.350	-0.180	21.960	-1.700	0.100																			1580065047.0	0.62	1.15
26/01/2020 18:57:28	26012020	260120	185728	22.030	12.187093	-56.117673	22.120	0.030	-0.660	-0.040	22.060	-2.000	0.300																			1580065048.0	0.51	0.94
26/01/2020 18:57:29	26012020	260120	185729	22.200	12.187095	-56.117672	22.310	0.210	-0.610	0.010	22.250	-2.000	0.300																			1580065049.0	0.32	0.59
26/01/2020 18:57:30	26012020	260120	185730	22.420	12.187095	-56.117673	22.510	0.360	-0.370	0.040	22.450	-1.800	0.400																			1580065050.0	0.16	0.30
26/01/2020 18:57:31	26012020	260120	185731	22.580	12.187095	-56.117673	22.660	0.400	-0.120	0.110	22.600	-1.500	0.400																			1580065051.0	0.11	0.20
26/01/2020 18:57:32	26012020	260120	185732	22.630	12.187093	-56.117673	22.700	0.280	0.120	0.310	22.630	-1.300	0.600																			1580065052.0	0.21	0.39
26/01/2020 18:57:33	26012020	260120	185733	22.560	12.187092	-56.117670	22.610	0.060	0.340	0.630	22.520	-1.100	0.900																			1580065053.0	0.44	0.81
26/01/2020 18:57:34	26012020	260120	185734	22.340	12.187092	-56.117668	22.390	-0.140	0.450	0.910	22.290	-0.900	1.200																			1580065054.0	0.54	1.00
26/01/2020 18:57:35	26012020	260120	185735	22.100	12.187090	-56.117667	22.170	-0.190	0.310	0.930	22.070	-1.000	1.300																			1580065055.0	0.41	0.76
26/01/2020 18:57:36	26012020	260120	185736	21.960	12.187090	-56.117667	22.050	-0.150	-0.090	0.500	21.960	-1.400	0.900																			1580065056.0	0.05	0.09
26/01/2020 18:57:37	26012020	260120	185737	21.950	12.187092	-56.117668	22.040	-0.110	-0.520	-0.260	21.960	-1.900	0.100																			1580065057.0	0.59	1.09
26/01/2020 18:57:38	26012020	260120	185738	22.080	12.187095	-56.117673	22.170	-0.080	-0.720	-1.040	22.120	-2.100	-0.600																			1580065058.0	1.16	2.15
26/01/2020 18:57:39	26012020	260120	185739	22.330	12.187097	-56.117678	22.440	0.020	-0.640	-1.570	22.390	-2.000	-1.200																			1580065059.0	1.25	2.31
26/01/2020 18:57:40	26012020	260120	185740	22.600	12.187098	-56.117682	22.680	0.180	-0.420	-1.640	22.640	-1.800	-1.300																			1580065060.0	0.76	1.41
26/01/2020 18:57:41	26012020	260120	185741	22.690	12.187098	-56.117682	22.720	0.230	-0.050	-1.150	22.680	-1.500	-0.900																			1580065061.0	0.10	0.19
26/01/2020 18:57:42	26012020	260120	185742	22.520	12.187095	-56.117678	22.530	0.020	0.400	-0.300	22.470	-1.000	-0.100																			1580065062.0	0.90	1.67
26/01/2020 18:57:43	26012020	260120	185743	22.270	12.187092	-56.117673	22.310	-0.290	0.600	0.450	22.230	-0.800	0.700																			1580065063.0	1.22	2.26
26/01/2020 18:57:44	26012020	260120	185744	22.180	12.187090	-56.117672	22.280	-0.380	0.250	0.800	22.190	-1.100	1.100																			1580065064.0	0.83	1.54
26/01/2020 18:57:45	26012020	260120	185745	22.340	12.187090	-56.117670	22.470	-0.100	-0.420	0.820	22.390	-1.700	1.100																			1580065065.0	0.25	0.46
26/01/2020 18:57:46	26012020	260120	185746	22.550	12.187093	-56.117670	22.660	0.360	-0.840	0.800	22.570	-2.200	1.100																			1580065066.0	0.62	1.15
26/01/2020 18:57:47	26012020	260120	185747	22.570	12.187095	-56.117668	22.640	0.570	-0.650	0.850	22.540	-2.100	1.200																			1580065067.0	0.47	0.87
26/01/2020 18:57:48	26012020	260120	185748	22.380	12.187093	-56.117668	22.440	0.340	-0.090	0.820	22.340	-1.500	1.100																			1580065068.0	0.31	0.57
26/01/2020 18:57:49	26012020	260120	185749	22.140	12.187092	-56.117668	22.200	-0.150	0.380	0.600	22.100	-1.000	0.900																			1580065069.0	0.53	0.98
26/01/2020 18:57:50	26012020	260120	185750	22.020	12.187090	-56.117670	22.090	-0.470	0.460	0.100	22.020	-0.900	0.500																			1580065070.0	0.59	1.09
26/01/2020 18:57:51	26012020	260120	185751	22.070	12.187090	-56.117673	22.150	-0.420	0.210	-0.580	22.090	-1.100	-0.200																			1580065071.0	0.77	1.43
26/01/2020 18:57:52	26012020	260120	185752	22.230	12.187092	-56.117678	22.300	-0.160	-0.200	-1.290	22.270	-1.500	-0.900																			1580065072.0	0.89	1.65
26/01/2020 18:57:53	26012020	260120	185753	22.370	12.187095	-56.117680	22.410	0.070	-0.550	-1.710	22.370	-1.900	-1.400																			1580065073.0	0.90	1.67
26/01/2020 18:57:54	26012020	260120	185754	22.360	12.187097	-56.117683	22.370	0.210	-0.640	-1.600	22.350	-2.000	-1.300																			1580065074.0	0.68	1.26
26/01/2020 18:57:55	26012020	260120	185755	22.290	12.187097	-56.117683	22.300	0.280	-0.530	-1.090	22.270	-1.900	-0.800																			1580065075.0	0.06	0.11
26/01/2020 18:57:56	26012020	260120	185756	22.250	12.187097	-56.117680	22.280	0.280	-0.400	-0.450	22.240	-1.800	-0.200																			1580065076.0	0.59	1.09
26/01/2020 18:57:57	26012020	260120	185757	22.230	12.187095	-56.117677	22.280	0.140	-0.180	0.170	22.220	-1.600	0.400																			1580065077.0	0.80	1.48
26/01/2020 18:57:58	26012020	260120	185758	22.200	12.187093	-56.117673	22.300	-0.090	0.190	0.750	22.200	-1.200	1.000																			1580065078.0	0.69	1.28
26/01/2020 18:57:59	26012020	260120	185759	22.230	12.187092	-56.117672	22.350	-0.260	0.540	1.190	22.240	-0.900	1.500	1013.80	26.30	26.30	20.80	20.80	560.00	71.00	72.00	383.00	30.40	77.00	4.60	102.00	4.50	39669	3406.00	27.80	27.90	1580065079.0	0.54	1.00
26/01/2020 18:58:00	26012020	260120	185800	22.270	12.187090	-56.117670	22.390	-0.240	0.650	1.400	22.270	-0.700	1.700																			1580065080.0	0.53	0.98
26/01/2020 18:58:01	26012020	260120	185801	22.250	12.187088	-56.117668	22.340	-0.090	0.420	1.400	22.230	-0.900	1.700																			1580065081.0	0.49	0.91
26/01/2020 18:58:02	26012020	260120	185802	22.160	12.187088	-56.117667	22.230	0.010	-0.110	1.110	22.140	-1.400	1.500																			1580065082.0	0.38	0.70
26/01/2020 18:58:03	26012020	260120	185803	22.080	12.187088	-56.117667	22.140	-0.020	-0.720	0.460	22.070	-2.000	0.900																			1580065083.0	0.23	0.43
26/01/2020 18:58:04	26012020	260120	185804	22.060	12.187092	-56.117670	22.120	-0.080	-1.020	-0.410	22.060	-2.400	0.000																			1580065084.0	0.82	1.52
26/01/2020 18:58:05	26012020	260120	185805	22.040	12.187095	-56.117675	22.080	-0.030	-0.820	-1.170	22.040	-2.200	-0.800																			1580065085.0	1.42	2.63
26/01/2020 18:58:06	26012020	260120	185806	21.990	12.187097	-56.117682	22.030	0.170	-0.350	-1.570	21.990	-1.800	-1.200																			1580065086.0	1.45	2.69
26/01/2020 18:58:07	26012020	260120	185807	22.050	12.187097	-56.117687	22.110	0.330	0.010	-1.640	22.050	-1.400	-1.300																			1580065087.0	0.93	1.72
26/01/2020 18:58:08	26012020	260120	185808	22.270	12.187097	-56.117687	22.360	0.250	0.160	-1.410	22.330	-1.200	-1.100																			1580065088.0	0.19	0.35
26/01/2020 18:58:09	26012020	260120	185809	22.560	12.187097	-56.117685	22.650	-0.080	0.270	-0.900	22.610	-1.100	-0.700																			1580065089.0	0.50	0.93
26/01/2020 18:58:10	26012020	260120	185810	22.740	12.187095	-56.117680	22.800	-0.450	0.470	-0.100	22.740	-0.900	0.100																			1580065090.0	0.94	1.74
26/01/2020 18:58:11	26012020	260120	185811	22.630	12.187092	-56.117675	22.670	-0.580	0.540	0.870	22.580	-0.800	1.100																			1580065091.0	1.26	2.33
26/01/2020 18:58:12	26012020	260120	185812	22.310	12.187088	-56.117670	22.370	-0.330	0.110	1.620	22.240	-1.200	1.900																			1580065092.0	1.33	2.46
26/01/2020 18:58:13	26012020	260120	185813	22.010	12.187087	-56.117667	22.120	0.220	-0.740	1.920	21.970	-2.000	2.200																			1580065093.0	0.86	1.59
26/01/2020 18:58:14	26012020	260120	185814	21.970	12.187090	-56.117665	22.130	0.750	-1.360	1.630	22.000	-2.700	2.000																			1580065094.0	0.74	1.37
26/01/2020 18:58:15	26012020	260120	185815	22.210	12.187093	-56.117665	22.390	0.880	-1.130	0.910	22.270	-2.600	1.300																			1580065095.0	0.84	1.56
26/01/2020 18:58:16	26012020	260120	185816	22.470	12.187095	-56.117668	22.580	0.430	-0.030	0.110	22.470	-1.500	0.500																			1580065096.0	0.80	1.48
26/01/2020 18:58:17	26012020	260120	185817	22.480	12.187093	-56.117675	22.560	-0.370	1.150	-0.540	22.470	-0.300	-0.200																			1580065097.0	1.25	2.31
26/01/2020 18:58:18	26012020	260120	185818	22.390	12.187090	-56.117680	22.470	-1.020	1.480	-1.080	22.390	0.100	-0.700																			1580065098.0	1.47	2.72
26/01/2020 18:58:19	26012020	260120	185819	22.420	12.187088	-56.117685	22.510	-1.080	0.650	-1.510	22.450	-0.600	-1.100																			1580065099.0	0.98	1.81
26/01/2020 18:58:20	26012020	260120	185820	22.600	12.187092	-56.117687	22.690	-0.520	-0.680	-1.710	22.640	-1.900	-1.400																			1580065100.0	0.83	1.54
26/01/2020 18:58:21	26012020	260120	185821	22.800	12.187097	-56.117687	22.870	0.260	-1.480	-1.480	22.830	-2.800	-1.200																			1580065101.0	1.07	1.98
26/01/2020 18:58:22	26012020	260120	185822	22.870	12.187098	-56.117682	22.900	0.730	-1.260	-0.810	22.850	-2.700	-0.600																			1580065102.0	0.91	1.69
26/01/2020 18:58:23	26012020	260120	185823	22.730	12.187095	-56.117677	22.740	0.630	-0.400	-0.000	22.680	-1.900	0.200																			1580065103.0	1.27	2.35
26/01/2020 18:58:24	26012020	260120	185824	22.450	12.187090	-56.117673	22.500	0.180	0.340	0.620	22.400	-1.100	0.900																			1580065104.0	1.41	2.61
26/01/2020 18:58:25	26012020	260120	185825	22.290	12.187087	-56.117672	22.390	-0.150	0.460	0.870	22.280	-0.900	1.200																			1580065105.0	0.83	1.54
26/01/2020 18:58:26	26012020	260120	185826	22.390	12.187087	-56.117673	22.560	-0.110	0.040	0.700	22.450	-1.300	1.100																			1580065106.0	0.17	0.31
26/01/2020 18:58:27	26012020	260120	185827	22.730	12.187090	-56.117675	22.910	0.130	-0.380	0.320	22.800	-1.700	0.700																			1580065107.0	0.82	1.52
26/01/2020 18:58:28	26012020	260120	185828	23.070	12.187093	-56.117677	23.180	0.250	-0.270	0.080	23.070	-1.700	0.400																			1580065108.0	0.84	1.56
26/01/2020 18:58:29	26012020	260120	185829	23.040	12.187093	-56.117677	23.110	0.080	0.280	0.160	23.040	-1.200	0.500																			1580065109.0	0.14	0.26
26/01/2020 18:58:30	26012020	260120	185830	22.700	12.187092	-56.117677	22.810	-0.250	0.660	0.350	22.700	-0.700	0.600																			1580065110.0	0.67	1.24
26/01/2020 18:58:31	26012020	260120	185831	22.490	12.187088	-56.117675	22.570	-0.420	0.420	0.340	22.470	-0.900	0.700																			1580065111.0	0.69	1.28
26/01/2020 18:58:32	26012020	260120	185832	22.460	12.187088	-56.117677	22.580	-0.280	-0.330	0.000	22.480	-1.600	0.400																			1580065112.0	0.05	0.09
26/01/2020 18:58:33	26012020	260120	185833	22.690	12.187092	-56.117677	22.850	0.010	-1.000	-0.580	22.750	-2.300	-0.200																			1580065113.0	0.73	1.35
26/01/2020 18:58:34	26012020	260120	185834	23.030	12.187095	-56.117680	23.160	0.170	-1.020	-1.080	23.080	-2.400	-0.700																			1580065114.0	0.95	1.76
26/01/2020 18:58:35	26012020	260120	185835	23.210	12.187097	-56.117682	23.300	0.080	-0.310	-1.100	23.230	-1.800	-0.800																			1580065115.0	0.60	1.11
26/01/2020 18:58:36	26012020	260120	185836	23.150	12.187093	-56.117683	23.220	-0.150	0.500	-0.620	23.150	-0.900	-0.400																			1580065116.0	0.67	1.24
26/01/2020 18:58:37	26012020	260120	185837	23.040	12.187088	-56.117682	23.110	-0.270	0.630	-0.070	23.030	-0.700	0.200																			1580065117.0	1.09	2.02
26/01/2020 18:58:38	26012020	260120	185838	22.980	12.187085	-56.117678	23.080	-0.140	0.070	0.270	22.980	-1.200	0.600																			1580065118.0	0.78	1.44
26/01/2020 18:58:39	26012020	260120	185839	22.980	12.187087	-56.117677	23.090	0.200	-0.570	0.500	22.980	-1.900	0.800																			1580065119.0	0.65	1.20
26/01/2020 18:58:40	26012020	260120	185840	22.970	12.187088	-56.117673	23.080	0.550	-0.870	0.730	22.970	-2.200	1.000																			1580065120.0	0.70	1.30
26/01/2020 18:58:41	26012020	260120	185841	22.920	12.187090	-56.117672	23.010	0.710	-0.780	0.820	22.910	-2.200	1.100																			1580065121.0	0.46	0.85
26/01/2020 18:58:42	26012020	260120	185842	22.840	12.187092	-56.117672	22.930	0.550	-0.350	0.630	22.820	-1.800	1.000																			1580065122.0	0.14	0.26
26/01/2020 18:58:43	26012020	260120	185843	22.790	12.187092	-56.117673	22.900	0.130	0.270	0.220	22.790	-1.200	0.600																			1580065123.0	0.37	0.69
26/01/2020 18:58:44	26012020	260120	185844	22.870	12.187090	-56.117677	23.020	-0.350	0.790	-0.290	22.910	-0.600	0.100																			1580065124.0	0.79	1.46
26/01/2020 18:58:45	26012020	260120	185845	23.110	12.187090	-56.117682	23.260	-0.720	0.980	-0.690	23.160	-0.400	-0.300																			1580065125.0	0.85	1.57
26/01/2020 18:58:46	26012020	260120	185846	23.410	12.187090	-56.117683	23.490	-0.870	0.770	-0.850	23.410	-0.600	-0.500																			1580065126.0	0.52	0.96
26/01/2020 18:58:47	26012020	260120	185847	23.520	12.187088	-56.117683	23.610	-0.780	0.210	-0.750	23.530	-1.100	-0.400																			1580065127.0	0.15	0.28
26/01/2020 18:58:48	26012020	260120	185848	23.520	12.187088	-56.117682	23.580	-0.420	-0.580	-0.440	23.500	-1.900	-0.200																			1580065128.0	0.45	0.83
26/01/2020 18:58:49	26012020	260120	185849	23.370	12.187088	-56.117678	23.400	0.110	-1.310	-0.030	23.320	-2.600	0.200																			1580065129.0	0.76	1.41
26/01/2020 18:58:50	26012020	260120	185850	23.090	12.187088	-56.117675	23.120	0.630	-1.580	0.340	23.030	-2.900	0.600																			1580065130.0	0.76	1.41
26/01/2020 18:58:51	26012020	260120	185851	22.840	12.187088	-56.117673	22.890	0.960	-1.250	0.570	22.800	-2.700	0.900																			1580065131.0	0.40	0.74
26/01/2020 18:58:52	26012020	260120	185852	22.750	12.187088	-56.117673	22.850	0.970	-0.510	0.560	22.750	-2.000	0.900																			1580065132.0	0.07	0.13
26/01/2020 18:58:53	26012020	260120	185853	22.880	12.187088	-56.117675	23.040	0.670	0.300	0.280	22.930	-1.100	0.600																			1580065133.0	0.45	0.83
26/01/2020 18:58:54	26012020	260120	185854	23.200	12.187088	-56.117678	23.370	0.160	0.890	-0.100	23.280	-0.500	0.300																			1580065134.0	0.60	1.11
26/01/2020 18:58:55	26012020	260120	185855	23.540	12.187088	-56.117680	23.670	-0.390	1.170	-0.300	23.540	-0.200	0.000																			1580065135.0	0.40	0.74
26/01/2020 18:58:56	26012020	260120	185856	23.640	12.187088	-56.117680	23.710	-0.870	1.170	-0.160	23.630	-0.200	0.100																			1580065136.0	0.19	0.35
26/01/2020 18:58:57	26012020	260120	185857	23.480	12.187087	-56.117677	23.540	-1.120	0.770	0.130	23.480	-0.500	0.400																			1580065137.0	0.65	1.20
26/01/2020 18:58:58	26012020	260120	185858	23.210	12.187083	-56.117675	23.310	-1.000	0.020	0.270	23.210	-1.300	0.600																			1580065138.0	0.71	1.31
26/01/2020 18:58:59	26012020	260120	185859	23.070	12.187083	-56.117673	23.150	-0.480	-0.880	0.170	23.040	-2.200	0.500	1013.80	26.40	26.30	20.80	20.80	544.00	71.00	72.00	383.00	30.40	81.00	4.00	109.00	4.00	38868	3391.00	27.80	27.90	1580065139.0	0.33	0.61
26/01/2020 18:59:00	26012020	260120	185900	22.960	12.187085	-56.117673	23.060	0.270	-1.590	-0.040	22.950	-2.900	0.300																			1580065140.0	0.41	0.76
26/01/2020 18:59:01	26012020	260120	185901	22.970	12.187088	-56.117675	23.100	0.960	-1.850	-0.340	22.990	-3.200	0.000																			1580065141.0	0.75	1.39
26/01/2020 18:59:02	26012020	260120	185902	23.120	12.187092	-56.117678	23.250	1.290	-1.440	-0.610	23.160	-2.900	-0.300																			1580065142.0	0.80	1.48
26/01/2020 18:59:03	26012020	260120	185903	23.300	12.187092	-56.117680	23.400	1.050	-0.320	-0.580	23.320	-1.800	-0.300																			1580065143.0	0.45	0.83
26/01/2020 18:59:04	26012020	260120	185904	23.340	12.187090	-56.117680	23.420	0.300	1.030	-0.190	23.340	-0.500	0.100																			1580065144.0	0.50	0.93
26/01/2020 18:59:05	26012020	260120	185905	23.300	12.187085	-56.117680	23.390	-0.520	1.790	0.260	23.300	0.400	0.500																			1580065145.0	1.06	1.96
26/01/2020 18:59:06	26012020	260120	185906	23.380	12.187082	-56.117677	23.520	-0.950	1.440	0.500	23.420	0.100	0.800																			1580065146.0	0.95	1.76
26/01/2020 18:59:07	26012020	260120	185907	23.560	12.187082	-56.117675	23.700	-0.850	0.350	0.590	23.580	-0.900	0.900																			1580065147.0	0.63	1.17
26/01/2020 18:59:08	26012020	260120	185908	23.570	12.187083	-56.117672	23.650	-0.440	-0.640	0.690	23.530	-1.900	1.000																			1580065148.0	0.93	1.72
26/01/2020 18:59:09	26012020	260120	185909	23.320	12.187085	-56.117668	23.370	0.000	-1.070	0.750	23.250	-2.400	1.100																			1580065149.0	0.74	1.37
26/01/2020 18:59:10	26012020	260120	185910	23.020	12.187085	-56.117667	23.100	0.290	-1.040	0.610	22.970	-2.400	1.000																			1580065150.0	0.20	0.37
26/01/2020 18:59:11	26012020	260120	185911	22.880	12.187085	-56.117668	22.980	0.360	-0.750	0.190	22.870	-2.200	0.600																			1580065151.0	0.33	0.61
26/01/2020 18:59:12	26012020	260120	185912	22.920	12.187085	-56.117673	23.050	0.270	-0.250	-0.410	22.950	-1.700	-0.000																			1580065152.0	0.86	1.59
26/01/2020 18:59:13	26012020	260120	185913	23.130	12.187087	-56.117678	23.270	0.120	0.230	-1.010	23.180	-1.200	-0.600																			1580065153.0	1.17	2.17
26/01/2020 18:59:14	26012020	260120	185914	23.440	12.187087	-56.117683	23.520	-0.030	0.440	-1.290	23.440	-1.000	-0.900																			1580065154.0	0.93	1.72
26/01/2020 18:59:15	26012020	260120	185915	23.550	12.187087	-56.117683	23.650	-0.160	0.320	-1.090	23.570	-1.000	-0.800																			1580065155.0	0.30	0.56
26/01/2020 18:59:16	26012020	260120	185916	23.570	12.187087	-56.117682	23.670	-0.190	-0.060	-0.560	23.570	-1.400	-0.300																			1580065156.0	0.42	0.78
26/01/2020 18:59:17	26012020	260120	185917	23.580	12.187085	-56.117678	23.700	-0.000	-0.540	0.040	23.580	-1.900	0.300																			1580065157.0	0.93	1.72
26/01/2020 18:59:18	26012020	260120	185918	23.480	12.187087	-56.117672	23.620	0.290	-0.790	0.670	23.480	-2.200	0.900																			1580065158.0	1.16	2.15
26/01/2020 18:59:19	26012020	260120	185919	23.290	12.187085	-56.117667	23.380	0.470	-0.520	1.250	23.220	-1.900	1.500																			1580065159.0	1.08	2.00
26/01/2020 18:59:20	26012020	260120	185920	22.940	12.187085	-56.117663	23.100	0.340	0.080	1.520	22.940	-1.400	1.800																			1580065160.0	0.78	1.44
26/01/2020 18:59:21	26012020	260120	185921	22.830	12.187082	-56.117663	22.970	-0.030	0.530	1.230	22.820	-0.900	1.600																			1580065161.0	0.48	0.89
26/01/2020 18:59:22	26012020	260120	185922	22.910	12.187082	-56.117667	23.080	-0.400	0.610	0.410	22.950	-0.800	0.800																			1580065162.0	0.64	1.19
26/01/2020 18:59:23	26012020	260120	185923	23.140	12.187083	-56.117672	23.300	-0.560	0.420	-0.550	23.190	-0.900	-0.100																			1580065163.0	1.18	2.19
26/01/2020 18:59:24	26012020	260120	185924	23.360	12.187085	-56.117677	23.450	-0.470	0.100	-1.230	23.360	-1.300	-0.800																			1580065164.0	1.29	2.39
26/01/2020 18:59:25	26012020	260120	185925	23.410	12.187087	-56.117682	23.500	-0.260	-0.330	-1.510	23.410	-1.700	-1.200																			1580065165.0	0.83	1.54
26/01/2020 18:59:26	26012020	260120	185926	23.410	12.187088	-56.117682	23.500	-0.060	-0.740	-1.480	23.420	-2.100	-1.200																			1580065166.0	0.28	0.52
26/01/2020 18:59:27	26012020	260120	185927	23.430	12.187088	-56.117680	23.510	0.090	-0.960	-1.150	23.430	-2.300	-0.900																			1580065167.0	0.24	0.44
26/01/2020 18:59:28	26012020	260120	185928	23.420	12.187088	-56.117678	23.500	0.250	-0.890	-0.540	23.420	-2.300	-0.300																			1580065168.0	0.44	0.81
26/01/2020 18:59:29	26012020	260120	185929	23.400	12.187088	-56.117675	23.480	0.420	-0.560	0.180	23.390	-2.000	0.400																			1580065169.0	0.73	1.35
26/01/2020 18:59:30	26012020	260120	185930	23.370	12.187085	-56.117672	23.470	0.460	-0.100	0.730	23.370	-1.500	1.000																			1580065170.0	1.03	1.91
26/01/2020 18:59:31	26012020	260120	185931	23.310	12.187083	-56.117667	23.410	0.270	0.390	1.120	23.290	-1.000	1.400																			1580065171.0	0.91	1.69
26/01/2020 18:59:32	26012020	260120	185932	23.140	12.187082	-56.117665	23.270	0.010	0.770	1.330	23.140	-0.600	1.600																			1580065172.0	0.52	0.96
26/01/2020 18:59:33	26012020	260120	185933	23.070	12.187082	-56.117665	23.200	-0.100	0.700	1.190	23.070	-0.700	1.500																			1580065173.0	0.23	0.43
26/01/2020 18:59:34	26012020	260120	185934	23.090	12.187082	-56.117667	23.240	0.010	0.170	0.670	23.100	-1.200	1.100																			1580065174.0	0.38	0.70
26/01/2020 18:59:35	26012020	260120	185935	23.200	12.187085	-56.117670	23.350	0.140	-0.430	-0.020	23.230	-1.800	0.400																			1580065175.0	0.82	1.52
26/01/2020 18:59:36	26012020	260120	185936	23.320	12.187088	-56.117672	23.440	-0.010	-0.580	-0.640	23.340	-2.000	-0.300																			1580065176.0	0.90	1.67
26/01/2020 18:59:37	26012020	260120	185937	23.360	12.187090	-56.117675	23.440	-0.450	-0.220	-1.010	23.350	-1.700	-0.700																			1580065177.0	0.66	1.22
26/01/2020 18:59:38	26012020	260120	185938	23.270	12.187088	-56.117678	23.330	-0.830	0.220	-1.090	23.250	-1.200	-0.800																			1580065178.0	0.76	1.41
26/01/2020 18:59:39	26012020	260120	185939	23.180	12.187087	-56.117680	23.250	-0.780	0.180	-0.970	23.160	-1.200	-0.700																			1580065179.0	0.75	1.39
26/01/2020 18:59:40	26012020	260120	185940	23.200	12.187085	-56.117680	23.280	-0.220	-0.410	-0.700	23.200	-1.700	-0.400																			1580065180.0	0.19	0.35
26/01/2020 18:59:41	26012020	260120	185941	23.300	12.187087	-56.117677	23.400	0.500	-0.980	-0.300	23.320	-2.300	-0.000																			1580065181.0	0.67	1.24
26/01/2020 18:59:42	26012020	260120	185942	23.350	12.187088	-56.117673	23.440	0.890	-1.000	0.180	23.340	-2.400	0.400																			1580065182.0	1.06	1.96
26/01/2020 18:59:43	26012020	260120	185943	23.240	12.187088	-56.117668	23.310	0.760	-0.490	0.520	23.200	-1.900	0.800																			1580065183.0	0.92	1.70
26/01/2020 18:59:44	26012020	260120	185944	23.010	12.187087	-56.117667	23.090	0.300	0.200	0.620	22.960	-1.300	0.900																			1580065184.0	0.52	0.96
26/01/2020 18:59:45	26012020	260120	185945	22.790	12.187085	-56.117668	22.890	-0.110	0.660	0.540	22.760	-0.800	0.900																			1580065185.0	0.42	0.78
26/01/2020 18:59:46	26012020	260120	185946	22.680	12.187085	-56.117672	22.810	-0.210	0.720	0.340	22.680	-0.700	0.700																			1580065186.0	0.68	1.26
26/01/2020 18:59:47	26012020	260120	185947	22.730	12.187087	-56.117675	22.890	-0.070	0.400	0.060	22.750	-0.900	0.400																			1580065187.0	0.73	1.35
26/01/2020 18:59:48	26012020	260120	185948	22.880	12.187088	-56.117675	23.040	0.020	-0.050	-0.260	22.910	-1.400	0.100																			1580065188.0	0.54	1.00
26/01/2020 18:59:49	26012020	260120	185949	23.060	12.187090	-56.117675	23.210	-0.190	-0.330	-0.590	23.090	-1.700	-0.200																			1580065189.0	0.37	0.69
26/01/2020 18:59:50	26012020	260120	185950	23.190	12.187092	-56.117675	23.290	-0.550	-0.260	-0.770	23.200	-1.700	-0.400																			1580065190.0	0.11	0.20
26/01/2020 18:59:51	26012020	260120	185951	23.170	12.187090	-56.117677	23.240	-0.710	-0.040	-0.630	23.140	-1.400	-0.300																			1580065191.0	0.34	0.63
26/01/2020 18:59:52	26012020	260120	185952	23.020	12.187087	-56.117677	23.070	-0.450	-0.080	-0.220	22.970	-1.400	0.000																			1580065192.0	0.56	1.04
26/01/2020 18:59:53	26012020	260120	185953	22.820	12.187085	-56.117675	22.900	0.110	-0.550	0.180	22.800	-1.900	0.500																			1580065193.0	0.52	0.96
26/01/2020 18:59:54	26012020	260120	185954	22.730	12.187087	-56.117672	22.840	0.600	-1.080	0.270	22.730	-2.400	0.600																			1580065194.0	0.69	1.28
26/01/2020 18:59:55	26012020	260120	185955	22.700	12.187088	-56.117670	22.800	0.690	-1.060	0.180	22.690	-2.500	0.500																			1580065195.0	0.73	1.35
26/01/2020 18:59:56	26012020	260120	185956	22.630	12.187090	-56.117670	22.740	0.430	-0.290	0.130	22.620	-1.800	0.400																			1580065196.0	0.47	0.87
26/01/2020 18:59:57	26012020	260120	185957	22.590	12.187090	-56.117673	22.710	0.100	0.670	0.130	22.590	-0.800	0.400																			1580065197.0	0.66	1.22
26/01/2020 18:59:58	26012020	260120	185958	22.650	12.187087	-56.117677	22.780	-0.110	1.140	0.010	22.670	-0.300	0.400																			1580065198.0	0.81	1.50
26/01/2020 18:59:59	26012020	260120	185959	22.770	12.187087	-56.117678	22.900	-0.200	0.910	-0.160	22.790	-0.400	0.200	1013.80	26.40	26.30	20.90	20.90	541.00	71.00	72.00	383.00	30.40	83.00	3.70	111.00	3.70	38559	3405.00	27.80	27.90	1580065199.0	0.44	0.81
26/01/2020 19:00:00	26012020	260120	190000	22.860	12.187087	-56.117678	22.980	-0.230	0.230	-0.170	22.870	-1.100	0.100																			1580065200.0	0.13	0.24
26/01/2020 19:00:01	26012020	260120	190001	22.950	12.187090	-56.117675	23.080	-0.210	-0.610	-0.140	22.970	-1.900	0.200																			1580065201.0	0.44	0.81
26/01/2020 19:00:02	26012020	260120	190002	23.130	12.187090	-56.117675	23.280	-0.120	-1.210	-0.190	23.170	-2.500	0.100																			1580065202.0	0.59	1.09
26/01/2020 19:00:03	26012020	260120	190003	23.300	12.187092	-56.117673	23.420	0.040	-1.200	-0.170	23.310	-2.600	0.100																			1580065203.0	0.47	0.87
26/01/2020 19:00:04	26012020	260120	190004	23.220	12.187092	-56.117673	23.300	0.200	-0.530	0.160	23.170	-2.000	0.400																			1580065204.0	0.11	0.20
26/01/2020 19:00:05	26012020	260120	190005	22.870	12.187090	-56.117672	22.930	0.260	0.360	0.650	22.790	-1.100	0.900																			1580065205.0	0.58	1.07
26/01/2020 19:00:06	26012020	260120	190006	22.450	12.187085	-56.117670	22.530	0.150	0.840	0.920	22.380	-0.600	1.200																			1580065206.0	0.94	1.74
26/01/2020 19:00:07	26012020	260120	190007	22.240	12.187083	-56.117670	22.390	-0.060	0.630	0.640	22.240	-0.700	1.000																			1580065207.0	0.54	1.00
26/01/2020 19:00:08	26012020	260120	190008	22.410	12.187083	-56.117672	22.600	-0.230	-0.040	-0.150	22.480	-1.400	0.300																			1580065208.0	0.44	0.81
26/01/2020 19:00:09	26012020	260120	190009	22.810	12.187088	-56.117675	22.990	-0.260	-0.670	-1.040	22.900	-2.000	-0.600																			1580065209.0	1.22	2.26
26/01/2020 19:00:10	26012020	260120	190010	23.260	12.187093	-56.117680	23.340	-0.150	-0.890	-1.570	23.260	-2.300	-1.200																			1580065210.0	1.41	2.61
26/01/2020 19:00:11	26012020	260120	190011	23.430	12.187095	-56.117683	23.520	0.060	-0.630	-1.510	23.440	-2.100	-1.200																			1580065211.0	0.93	1.72
26/01/2020 19:00:12	26012020	260120	190012	23.380	12.187095	-56.117685	23.420	0.240	-0.110	-0.820	23.340	-1.500	-0.600																			1580065212.0	0.17	0.31
26/01/2020 19:00:13	26012020	260120	190013	23.090	12.187092	-56.117682	23.130	0.320	0.240	0.220	23.030	-1.200	0.400																			1580065213.0	0.97	1.80
26/01/2020 19:00:14	26012020	260120	190014	22.810	12.187088	-56.117677	22.930	0.290	0.180	1.110	22.810	-1.200	1.300																			1580065214.0	1.42	2.63
26/01/2020 19:00:15	26012020	260120	190015	22.790	12.187087	-56.117670	22.940	0.190	-0.100	1.560	22.800	-1.400	1.800																			1580065215.0	1.28	2.37
26/01/2020 19:00:16	26012020	260120	190016	22.950	12.187087	-56.117667	23.090	0.020	-0.220	1.570	22.950	-1.600	1.900																			1580065216.0	0.84	1.56
26/01/2020 19:00:17	26012020	260120	190017	23.040	12.187087	-56.117665	23.200	-0.230	-0.080	1.210	23.060	-1.500	1.600																			1580065217.0	0.24	0.44
26/01/2020 19:00:18	26012020	260120	190018	23.100	12.187087	-56.117668	23.230	-0.410	0.170	0.620	23.100	-1.200	1.000																			1580065218.0	0.47	0.87
26/01/2020 19:00:19	26012020	260120	190019	23.080	12.187087	-56.117672	23.180	-0.390	0.240	-0.010	23.080	-1.100	0.400																			1580065219.0	0.91	1.69
26/01/2020 19:00:20	26012020	260120	190020	23.020	12.187088	-56.117677	23.090	-0.140	0.010	-0.510	22.990	-1.300	-0.100																			1580065220.0	0.89	1.65
26/01/2020 19:00:21	26012020	260120	190021	22.880	12.187090	-56.117678	22.930	0.130	-0.350	-0.810	22.860	-1.700	-0.500																			1580065221.0	0.65	1.20
26/01/2020 19:00:22	26012020	260120	190022	22.800	12.187092	-56.117680	22.860	0.260	-0.580	-1.010	22.800	-1.900	-0.700																			1580065222.0	0.51	0.94
26/01/2020 19:00:23	26012020	260120	190023	22.860	12.187093	-56.117682	22.930	0.250	-0.570	-1.100	22.880	-2.000	-0.800																			1580065223.0	0.40	0.74
26/01/2020 19:00:24	26012020	260120	190024	22.950	12.187093	-56.117682	23.000	0.180	-0.350	-0.890	22.960	-1.800	-0.600																			1580065224.0	0.17	0.31
26/01/2020 19:00:25	26012020	260120	190025	22.950	12.187092	-56.117682	23.000	0.120	-0.090	-0.400	22.950	-1.500	-0.100																			1580065225.0	0.28	0.52
26/01/2020 19:00:26	26012020	260120	190026	22.920	12.187090	-56.117678	22.980	0.020	-0.000	0.150	22.920	-1.400	0.400																			1580065226.0	0.76	1.41
26/01/2020 19:00:27	26012020	260120	190027	22.900	12.187090	-56.117673	22.980	-0.100	-0.090	0.540	22.900	-1.500	0.800																			1580065227.0	0.86	1.59
26/01/2020 19:00:28	26012020	260120	190028	22.870	12.187090	-56.117672	22.960	-0.140	-0.130	0.750	22.870	-1.500	1.000																			1580065228.0	0.56	1.04
26/01/2020 19:00:29	26012020	260120	190029	22.840	12.187090	-56.117670	22.940	0.040	-0.070	0.830	22.830	-1.500	1.100																			1580065229.0	0.23	0.43
26/01/2020 19:00:30	26012020	260120	190030	22.740	12.187092	-56.117672	22.840	0.270	0.090	0.830	22.740	-1.300	1.100																			1580065230.0	0.16	0.30
26/01/2020 19:00:31	26012020	260120	190031	22.620	12.187092	-56.117672	22.680	0.240	0.310	0.680	22.590	-1.100	1.000																			1580065231.0	0.14	0.26
26/01/2020 19:00:32	26012020	260120	190032	22.520	12.187092	-56.117673	22.600	-0.110	0.480	0.370	22.520	-0.900	0.700																			1580065232.0	0.33	0.61
26/01/2020 19:00:33	26012020	260120	190033	22.570	12.187090	-56.117675	22.680	-0.550	0.400	-0.100	22.600	-1.000	0.300																			1580065233.0	0.55	1.02
26/01/2020 19:00:34	26012020	260120	190034	22.810	12.187090	-56.117678	22.870	-0.720	0.020	-0.600	22.810	-1.300	-0.200																			1580065234.0	0.58	1.07
26/01/2020 19:00:35	26012020	260120	190035	22.980	12.187092	-56.117680	23.080	-0.470	-0.590	-0.910	22.980	-1.900	-0.600																			1580065235.0	0.38	0.70
26/01/2020 19:00:36	26012020	260120	190036	23.140	12.187092	-56.117680	23.210	0.010	-1.170	-0.970	23.150	-2.500	-0.700																			1580065236.0	0.31	0.57
26/01/2020 19:00:37	26012020	260120	190037	23.130	12.187093	-56.117677	23.160	0.420	-1.320	-0.830	23.130	-2.700	-0.500																			1580065237.0	0.60	1.11
26/01/2020 19:00:38	26012020	260120	190038	22.880	12.187095	-56.117675	22.870	0.580	-0.820	-0.490	22.820	-2.300	-0.200																			1580065238.0	0.45	0.83
26/01/2020 19:00:39	26012020	260120	190039	22.470	12.187093	-56.117675	22.460	0.550	-0.010	-0.040	22.380	-1.500	0.200																			1580065239.0	0.21	0.39
26/01/2020 19:00:40	26012020	260120	190040	22.120	12.187092	-56.117675	22.190	0.480	0.520	0.280	22.120	-0.900	0.600																			1580065240.0	0.41	0.76
26/01/2020 19:00:41	26012020	260120	190041	22.210	12.187092	-56.117677	22.350	0.380	0.520	0.220	22.270	-0.800	0.600																			1580065241.0	0.18	0.33
26/01/2020 19:00:42	26012020	260120	190042	22.720	12.187093	-56.117677	22.790	0.150	0.340	-0.100	22.720	-1.000	0.300																			1580065242.0	0.42	0.78
26/01/2020 19:00:43	26012020	260120	190043	23.000	12.187095	-56.117677	23.120	-0.310	0.380	-0.280	23.040	-1.000	0.000																			1580065243.0	0.47	0.87
26/01/2020 19:00:44	26012020	260120	190044	23.100	12.187095	-56.117677	23.160	-0.820	0.570	-0.130	23.090	-0.800	0.200																			1580065244.0	0.04	0.07
26/01/2020 19:00:45	26012020	260120	190045	22.980	12.187093	-56.117677	23.040	-1.080	0.550	0.220	22.950	-0.800	0.500																			1580065245.0	0.55	1.02
26/01/2020 19:00:46	26012020	260120	190046	22.810	12.187090	-56.117677	22.910	-0.850	0.040	0.470	22.810	-1.300	0.800																			1580065246.0	0.64	1.19
26/01/2020 19:00:47	26012020	260120	190047	22.760	12.187090	-56.117675	22.850	-0.190	-0.800	0.500	22.750	-2.100	0.800																			1580065247.0	0.40	0.74
26/01/2020 19:00:48	26012020	260120	190048	22.730	12.187090	-56.117672	22.810	0.510	-1.400	0.410	22.730	-2.700	0.700																			1580065248.0	0.52	0.96
26/01/2020 19:00:49	26012020	260120	190049	22.750	12.187092	-56.117670	22.840	0.910	-1.440	0.210	22.760	-2.800	0.500																			1580065249.0	0.48	0.89
26/01/2020 19:00:50	26012020	260120	190050	22.840	12.187093	-56.117670	22.920	0.910	-0.980	-0.130	22.850	-2.400	0.200																			1580065250.0	0.20	0.37
26/01/2020 19:00:51	26012020	260120	190051	22.860	12.187093	-56.117673	22.920	0.640	-0.170	-0.480	22.850	-1.600	-0.100																			1580065251.0	0.43	0.80
26/01/2020 19:00:52	26012020	260120	190052	22.800	12.187093	-56.117677	22.840	0.250	0.610	-0.720	22.780	-0.800	-0.400																			1580065252.0	0.68	1.26
26/01/2020 19:00:53	26012020	260120	190053	22.730	12.187093	-56.117678	22.780	-0.110	0.990	-0.790	22.720	-0.400	-0.500																			1580065253.0	0.69	1.28
26/01/2020 19:00:54	26012020	260120	190054	22.710	12.187093	-56.117682	22.790	-0.380	0.900	-0.630	22.710	-0.400	-0.300																			1580065254.0	0.40	0.74
26/01/2020 19:00:55	26012020	260120	190055	22.780	12.187093	-56.117680	22.880	-0.540	0.530	-0.420	22.810	-0.800	-0.100																			1580065255.0	0.13	0.24
26/01/2020 19:00:56	26012020	260120	190056	22.930	12.187095	-56.117680	23.040	-0.550	0.060	-0.170	22.960	-1.300	0.100																			1580065256.0	0.35	0.65
26/01/2020 19:00:57	26012020	260120	190057	23.070	12.187093	-56.117677	23.180	-0.400	-0.350	0.190	23.090	-1.700	0.500																			1580065257.0	0.52	0.96
26/01/2020 19:00:58	26012020	260120	190058	23.190	12.187093	-56.117673	23.320	-0.170	-0.660	0.510	23.220	-2.000	0.800																			1580065258.0	0.77	1.43
26/01/2020 19:00:59	26012020	260120	190059	23.260	12.187092	-56.117670	23.360	0.030	-0.790	0.740	23.260	-2.200	1.000	1013.70	26.40	26.30	21.00	21.00	540.00	72.00	72.00	383.00	30.30	73.00	4.30	98.00	4.30	38371	3349.00	27.80	27.90	1580065259.0	0.74	1.37
26/01/2020 19:01:00	26012020	260120	190100	23.100	12.187090	-56.117668	23.220	0.170	-0.650	0.860	23.100	-2.000	1.200																			1580065260.0	0.40	0.74
26/01/2020 19:01:01	26012020	260120	190101	22.970	12.187090	-56.117668	23.070	0.300	-0.430	0.740	22.950	-1.800	1.100																			1580065261.0	0.15	0.28
26/01/2020 19:01:02	26012020	260120	190102	22.960	12.187090	-56.117670	23.090	0.450	-0.300	0.310	22.980	-1.700	0.700																			1580065262.0	0.42	0.78
26/01/2020 19:01:03	26012020	260120	190103	23.120	12.187092	-56.117673	23.250	0.520	-0.160	-0.220	23.150	-1.500	0.200																			1580065263.0	0.63	1.17
26/01/2020 19:01:04	26012020	260120	190104	23.300	12.187093	-56.117675	23.410	0.380	0.060	-0.610	23.330	-1.300	-0.300																			1580065264.0	0.59	1.09
26/01/2020 19:01:05	26012020	260120	190105	23.380	12.187093	-56.117677	23.450	0.040	0.310	-0.710	23.380	-1.100	-0.400																			1580065265.0	0.29	0.54
26/01/2020 19:01:06	26012020	260120	190106	23.310	12.187093	-56.117677	23.360	-0.310	0.400	-0.610	23.290	-1.000	-0.300																			1580065266.0	0.09	0.17
26/01/2020 19:01:07	26012020	260120	190107	23.210	12.187093	-56.117677	23.270	-0.480	0.250	-0.480	23.200	-1.100	-0.200																			1580065267.0	0.16	0.30
26/01/2020 19:01:08	26012020	260120	190108	23.220	12.187093	-56.117675	23.290	-0.390	-0.030	-0.390	23.220	-1.400	-0.100																			1580065268.0	0.18	0.33
26/01/2020 19:01:09	26012020	260120	190109	23.290	12.187093	-56.117675	23.390	-0.170	-0.260	-0.270	23.310	-1.600	0.000																			1580065269.0	0.23	0.43
26/01/2020 19:01:10	26012020	260120	190110	23.400	12.187093	-56.117673	23.500	0.020	-0.350	-0.110	23.420	-1.700	0.200																			1580065270.0	0.21	0.39
26/01/2020 19:01:11	26012020	260120	190111	23.520	12.187093	-56.117673	23.630	0.110	-0.320	0.090	23.540	-1.700	0.400																			1580065271.0	0.19	0.35
26/01/2020 19:01:12	26012020	260120	190112	23.600	12.187092	-56.117672	23.690	0.130	-0.270	0.280	23.600	-1.600	0.600																			1580065272.0	0.25	0.46
26/01/2020 19:01:13	26012020	260120	190113	23.580	12.187092	-56.117672	23.660	0.120	-0.290	0.420	23.560	-1.700	0.700																			1580065273.0	0.23	0.43
26/01/2020 19:01:14	26012020	260120	190114	23.500	12.187092	-56.117670	23.580	0.100	-0.350	0.520	23.480	-1.700	0.800																			1580065274.0	0.20	0.37
26/01/2020 19:01:15	26012020	260120	190115	23.440	12.187092	-56.117670	23.550	0.060	-0.310	0.580	23.440	-1.700	0.900																			1580065275.0	0.22	0.41
26/01/2020 19:01:16	26012020	260120	190116	23.510	12.187092	-56.117670	23.620	0.010	-0.090	0.480	23.540	-1.500	0.800																			1580065276.0	0.14	0.26
26/01/2020 19:01:17	26012020	260120	190117	23.690	12.187092	-56.117670	23.810	-0.040	0.190	0.200	23.730	-1.200	0.500																			1580065277.0	0.08	0.15
26/01/2020 19:01:18	26012020	260120	190118	23.820	12.187090	-56.117670	23.910	-0.080	0.350	-0.120	23.830	-1.000	0.200																			1580065278.0	0.25	0.46
26/01/2020 19:01:19	26012020	260120	190119	23.810	12.187090	-56.117672	23.880	-0.100	0.250	-0.360	23.810	-1.100	-0.000																			1580065279.0	0.30	0.56
26/01/2020 19:01:20	26012020	260120	190120	23.820	12.187092	-56.117673	23.900	-0.060	-0.130	-0.570	23.830	-1.500	-0.200																			1580065280.0	0.25	0.46
26/01/2020 19:01:21	26012020	260120	190121	23.910	12.187093	-56.117673	24.000	0.040	-0.530	-0.670	23.930	-1.900	-0.400																			1580065281.0	0.35	0.65
26/01/2020 19:01:22	26012020	260120	190122	23.960	12.187095	-56.117673	24.030	0.180	-0.630	-0.550	23.960	-2.000	-0.300																			1580065282.0	0.36	0.67
26/01/2020 19:01:23	26012020	260120	190123	23.880	12.187095	-56.117672	23.940	0.300	-0.400	-0.200	23.860	-1.800	0.100																			1580065283.0	0.25	0.46
26/01/2020 19:01:24	26012020	260120	190124	23.720	12.187093	-56.117670	23.800	0.250	-0.120	0.180	23.720	-1.500	0.500																			1580065284.0	0.60	1.11
26/01/2020 19:01:25	26012020	260120	190125	23.680	12.187092	-56.117668	23.760	-0.000	0.040	0.300	23.680	-1.400	0.600																			1580065285.0	0.60	1.11
26/01/2020 19:01:26	26012020	260120	190126	23.810	12.187090	-56.117667	23.880	-0.330	0.150	0.140	23.810	-1.200	0.500																			1580065286.0	0.08	0.15
26/01/2020 19:01:27	26012020	260120	190127	23.990	12.187092	-56.117670	24.110	-0.500	0.240	-0.110	24.040	-1.200	0.200																			1580065287.0	0.48	0.89
26/01/2020 19:01:28	26012020	260120	190128	24.260	12.187092	-56.117672	24.330	-0.410	0.210	-0.220	24.260	-1.200	0.100																			1580065288.0	0.60	1.11
26/01/2020 19:01:29	26012020	260120	190129	24.360	12.187092	-56.117673	24.450	-0.120	0.070	-0.070	24.380	-1.300	0.200																			1580065289.0	0.28	0.52
26/01/2020 19:01:30	26012020	260120	190130	24.410	12.187092	-56.117672	24.480	0.150	-0.180	0.260	24.410	-1.500	0.500																			1580065290.0	0.34	0.63
26/01/2020 19:01:31	26012020	260120	190131	24.370	12.187090	-56.117668	24.440	0.230	-0.510	0.550	24.360	-1.900	0.800																			1580065291.0	0.86	1.59
26/01/2020 19:01:32	26012020	260120	190132	24.240	12.187090	-56.117665	24.330	0.130	-0.690	0.690	24.240	-2.100	1.000																			1580065292.0	0.81	1.50
26/01/2020 19:01:33	26012020	260120	190133	24.100	12.187090	-56.117663	24.170	0.040	-0.540	0.710	24.070	-1.900	1.000																			1580065293.0	0.32	0.59
26/01/2020 19:01:34	26012020	260120	190134	23.970	12.187090	-56.117663	24.050	0.090	-0.260	0.510	23.950	-1.700	0.900																			1580065294.0	0.14	0.26
26/01/2020 19:01:35	26012020	260120	190135	23.950	12.187090	-56.117667	24.060	0.210	-0.050	0.050	23.970	-1.400	0.400																			1580065295.0	0.48	0.89
26/01/2020 19:01:36	26012020	260120	190136	24.120	12.187092	-56.117670	24.200	0.270	0.100	-0.460	24.120	-1.300	-0.100																			1580065296.0	0.72	1.33
26/01/2020 19:01:37	26012020	260120	190137	24.310	12.187093	-56.117672	24.450	0.180	0.210	-0.850	24.370	-1.200	-0.500																			1580065297.0	0.64	1.19
26/01/2020 19:01:38	26012020	260120	190138	24.590	12.187093	-56.117673	24.710	-0.050	0.160	-1.050	24.640	-1.200	-0.700																			1580065298.0	0.31	0.57
26/01/2020 19:01:39	26012020	260120	190139	24.700	12.187093	-56.117673	24.770	-0.320	0.120	-0.910	24.690	-1.300	-0.600																			1580065299.0	0.07	0.13
26/01/2020 19:01:40	26012020	260120	190140	24.520	12.187093	-56.117672	24.550	-0.500	0.210	-0.410	24.470	-1.200	-0.200																			1580065300.0	0.27	0.50
26/01/2020 19:01:41	26012020	260120	190141	24.240	12.187092	-56.117670	24.290	-0.480	0.150	0.130	24.200	-1.200	0.400																			1580065301.0	0.56	1.04
26/01/2020 19:01:42	26012020	260120	190142	24.100	12.187090	-56.117668	24.200	-0.210	-0.280	0.480	24.100	-1.600	0.800																			1580065302.0	0.50	0.93
26/01/2020 19:01:43	26012020	260120	190143	24.130	12.187090	-56.117667	24.250	0.130	-0.760	0.660	24.140	-2.100	1.000																			1580065303.0	0.37	0.69
26/01/2020 19:01:44	26012020	260120	190144	24.240	12.187092	-56.117665	24.340	0.330	-0.890	0.690	24.240	-2.300	1.000																			1580065304.0	0.48	0.89
26/01/2020 19:01:45	26012020	260120	190145	24.310	12.187092	-56.117665	24.420	0.280	-0.530	0.600	24.320	-2.000	0.900																			1580065305.0	0.24	0.44
26/01/2020 19:01:46	26012020	260120	190146	24.300	12.187092	-56.117665	24.380	0.080	0.110	0.520	24.290	-1.300	0.800																			1580065306.0	0.26	0.48
26/01/2020 19:01:47	26012020	260120	190147	24.210	12.187088	-56.117667	24.300	-0.050	0.520	0.360	24.200	-0.900	0.700																			1580065307.0	0.54	1.00
26/01/2020 19:01:48	26012020	260120	190148	24.220	12.187087	-56.117667	24.340	-0.010	0.310	-0.020	24.240	-1.000	0.300																			1580065308.0	0.37	0.69
26/01/2020 19:01:49	26012020	260120	190149	24.350	12.187088	-56.117668	24.460	0.090	-0.150	-0.480	24.370	-1.500	-0.100																			1580065309.0	0.46	0.85
26/01/2020 19:01:50	26012020	260120	190150	24.440	12.187092	-56.117670	24.520	0.140	-0.320	-0.760	24.450	-1.700	-0.400																			1580065310.0	0.83	1.54
26/01/2020 19:01:51	26012020	260120	190151	24.460	12.187095	-56.117672	24.530	0.100	-0.160	-0.780	24.460	-1.600	-0.500																			1580065311.0	0.59	1.09
26/01/2020 19:01:52	26012020	260120	190152	24.380	12.187093	-56.117673	24.440	0.040	-0.030	-0.490	24.350	-1.400	-0.200																			1580065312.0	0.21	0.39
26/01/2020 19:01:53	26012020	260120	190153	24.200	12.187092	-56.117672	24.250	-0.060	-0.110	-0.010	24.160	-1.500	0.300																			1580065313.0	0.56	1.04
26/01/2020 19:01:54	26012020	260120	190154	24.020	12.187090	-56.117667	24.080	-0.210	-0.310	0.390	23.990	-1.700	0.700																			1580065314.0	0.84	1.56
26/01/2020 19:01:55	26012020	260120	190155	23.920	12.187090	-56.117665	24.010	-0.330	-0.370	0.580	23.910	-1.800	0.900																			1580065315.0	0.64	1.19
26/01/2020 19:01:56	26012020	260120	190156	23.910	12.187090	-56.117663	24.020	-0.290	-0.170	0.530	23.920	-1.600	0.900																			1580065316.0	0.09	0.17
26/01/2020 19:01:57	26012020	260120	190157	23.980	12.187090	-56.117667	24.100	0.000	0.060	0.360	23.990	-1.300	0.700																			1580065317.0	0.48	0.89
26/01/2020 19:01:58	26012020	260120	190158	24.100	12.187090	-56.117668	24.230	0.370	0.100	0.120	24.130	-1.300	0.500																			1580065318.0	0.50	0.93
26/01/2020 19:01:59	26012020	260120	190159	24.250	12.187090	-56.117670	24.370	0.480	-0.010	-0.060	24.270	-1.400	0.300	1013.70	26.30	26.30	20.80	20.80	550.00	71.00	72.00	383.00	30.30	70.00	4.60	96.00	4.50	38682	3384.00	27.80	27.90	1580065319.0	0.19	0.35
26/01/2020 19:02:00	26012020	260120	190200	24.320	12.187092	-56.117668	24.400	0.190	0.000	-0.090	24.310	-1.400	0.200																			1580065320.0	0.13	0.24
26/01/2020 19:02:01	26012020	260120	190201	24.220	12.187090	-56.117668	24.270	-0.310	0.130	0.000	24.180	-1.300	0.300																			1580065321.0	0.22	0.41
26/01/2020 19:02:02	26012020	260120	190202	23.990	12.187088	-56.117668	24.040	-0.580	0.040	0.070	23.940	-1.300	0.400																			1580065322.0	0.36	0.67
26/01/2020 19:02:03	26012020	260120	190203	23.810	12.187088	-56.117670	23.900	-0.340	-0.500	0.050	23.800	-1.800	0.400																			1580065323.0	0.20	0.37
26/01/2020 19:02:04	26012020	260120	190204	23.850	12.187090	-56.117670	23.980	0.230	-1.100	-0.090	23.880	-2.400	0.300																			1580065324.0	0.49	0.91
26/01/2020 19:02:05	26012020	260120	190205	23.980	12.187093	-56.117668	24.080	0.620	-1.030	-0.200	23.990	-2.500	0.100																			1580065325.0	0.76	1.41
26/01/2020 19:02:06	26012020	260120	190206	23.920	12.187095	-56.117668	23.970	0.510	-0.160	-0.060	23.870	-1.700	0.200																			1580065326.0	0.26	0.48
26/01/2020 19:02:07	26012020	260120	190207	23.640	12.187092	-56.117668	23.690	0.050	0.850	0.220	23.590	-0.600	0.500																			1580065327.0	0.63	1.17
26/01/2020 19:02:08	26012020	260120	190208	23.440	12.187088	-56.117668	23.540	-0.340	1.100	0.280	23.430	-0.300	0.600																			1580065328.0	0.96	1.78
26/01/2020 19:02:09	26012020	260120	190209	23.480	12.187087	-56.117668	23.610	-0.450	0.520	0.010	23.510	-0.800	0.400																			1580065329.0	0.36	0.67
26/01/2020 19:02:10	26012020	260120	190210	23.620	12.187088	-56.117670	23.740	-0.340	-0.240	-0.360	23.640	-1.600	0.000																			1580065330.0	0.55	1.02
26/01/2020 19:02:11	26012020	260120	190211	23.680	12.187092	-56.117672	23.770	-0.150	-0.610	-0.570	23.680	-2.000	-0.200																			1580065331.0	0.85	1.57
26/01/2020 19:02:12	26012020	260120	190212	23.590	12.187093	-56.117673	23.680	0.000	-0.590	-0.570	23.590	-2.000	-0.300																			1580065332.0	0.51	0.94
26/01/2020 19:02:13	26012020	260120	190213	23.510	12.187093	-56.117675	23.600	0.060	-0.470	-0.360	23.500	-1.900	-0.100																			1580065333.0	0.29	0.54
26/01/2020 19:02:14	26012020	260120	190214	23.510	12.187092	-56.117675	23.620	0.100	-0.380	-0.040	23.510	-1.800	0.200																			1580065334.0	0.24	0.44
26/01/2020 19:02:15	26012020	260120	190215	23.560	12.187090	-56.117673	23.670	0.180	-0.270	0.340	23.560	-1.700	0.600																			1580065335.0	0.33	0.61
26/01/2020 19:02:16	26012020	260120	190216	23.490	12.187090	-56.117670	23.620	0.260	-0.080	0.760	23.490	-1.500	1.000																			1580065336.0	0.63	1.17
26/01/2020 19:02:17	26012020	260120	190217	23.340	12.187088	-56.117667	23.420	0.220	0.060	1.020	23.340	-1.300	1.300																			1580065337.0	0.83	1.54
26/01/2020 19:02:18	26012020	260120	190218	23.120	12.187087	-56.117665	23.200	0.050	0.070	0.950	23.080	-1.300	1.300																			1580065338.0	0.57	1.06
26/01/2020 19:02:19	26012020	260120	190219	22.970	12.187087	-56.117665	23.070	-0.110	-0.040	0.570	22.960	-1.400	0.900																			1580065339.0	0.07	0.13
26/01/2020 19:02:20	26012020	260120	190220	23.020	12.187088	-56.117667	23.130	-0.110	-0.180	-0.050	23.020	-1.600	0.300																			1580065340.0	0.70	1.30
26/01/2020 19:02:21	26012020	260120	190221	23.150	12.187092	-56.117672	23.290	0.040	-0.240	-0.620	23.190	-1.600	-0.300																			1580065341.0	1.05	1.94
26/01/2020 19:02:22	26012020	260120	190222	23.300	12.187093	-56.117675	23.390	0.150	-0.110	-0.920	23.300	-1.500	-0.600																			1580065342.0	0.86	1.59
26/01/2020 19:02:23	26012020	260120	190223	23.290	12.187093	-56.117677	23.350	0.030	0.180	-0.890	23.260	-1.300	-0.600																			1580065343.0	0.32	0.59
26/01/2020 19:02:24	26012020	260120	190224	23.120	12.187092	-56.117677	23.180	-0.260	0.410	-0.610	23.080	-1.000	-0.300																			1580065344.0	0.36	0.67
26/01/2020 19:02:25	26012020	260120	190225	22.880	12.187090	-56.117675	22.950	-0.460	0.290	-0.210	22.840	-1.100	0.100																			1580065345.0	0.57	1.06
26/01/2020 19:02:26	26012020	260120	190226	22.690	12.187088	-56.117675	22.790	-0.380	-0.230	0.150	22.670	-1.600	0.400																			1580065346.0	0.42	0.78
26/01/2020 19:02:27	26012020	260120	190227	22.660	12.187090	-56.117673	22.800	-0.020	-0.810	0.330	22.680	-2.200	0.600																			1580065347.0	0.35	0.65
26/01/2020 19:02:28	26012020	260120	190228	22.760	12.187092	-56.117672	22.880	0.350	-0.970	0.400	22.760	-2.400	0.700																			1580065348.0	0.50	0.93
26/01/2020 19:02:29	26012020	260120	190229	22.800	12.187092	-56.117672	22.920	0.480	-0.640	0.460	22.810	-2.100	0.800																			1580065349.0	0.24	0.44
26/01/2020 19:02:30	26012020	260120	190230	22.830	12.187092	-56.117672	22.950	0.370	-0.070	0.530	22.840	-1.500	0.800																			1580065350.0	0.18	0.33
26/01/2020 19:02:31	26012020	260120	190231	22.870	12.187090	-56.117672	22.980	0.160	0.340	0.570	22.880	-1.100	0.900																			1580065351.0	0.43	0.80
26/01/2020 19:02:32	26012020	260120	190232	22.870	12.187088	-56.117672	22.970	-0.030	0.400	0.550	22.860	-1.000	0.900																			1580065352.0	0.44	0.81
26/01/2020 19:02:33	26012020	260120	190233	22.750	12.187088	-56.117670	22.810	-0.190	0.270	0.440	22.720	-1.100	0.800																			1580065353.0	0.27	0.50
26/01/2020 19:02:34	26012020	260120	190234	22.520	12.187088	-56.117670	22.610	-0.250	0.120	0.150	22.520	-1.300	0.500																			1580065354.0	0.16	0.30
26/01/2020 19:02:35	26012020	260120	190235	22.410	12.187090	-56.117672	22.470	-0.150	-0.120	-0.290	22.380	-1.500	0.100																			1580065355.0	0.45	0.83
26/01/2020 19:02:36	26012020	260120	190236	22.340	12.187092	-56.117675	22.400	0.110	-0.440	-0.700	22.340	-1.800	-0.300																			1580065356.0	0.75	1.39
26/01/2020 19:02:37	26012020	260120	190237	22.360	12.187093	-56.117677	22.430	0.300	-0.540	-0.940	22.360	-1.900	-0.600																			1580065357.0	0.76	1.41
26/01/2020 19:02:38	26012020	260120	190238	22.350	12.187095	-56.117678	22.390	0.190	-0.250	-0.980	22.340	-1.700	-0.700																			1580065358.0	0.46	0.85
26/01/2020 19:02:39	26012020	260120	190239	22.270	12.187095	-56.117680	22.320	-0.200	0.150	-0.840	22.260	-1.300	-0.500																			1580065359.0	0.31	0.57
26/01/2020 19:02:40	26012020	260120	190240	22.270	12.187093	-56.117682	22.340	-0.560	0.280	-0.610	22.270	-1.100	-0.300																			1580065360.0	0.44	0.81
26/01/2020 19:02:41	26012020	260120	190241	22.370	12.187092	-56.117682	22.490	-0.560	0.010	-0.320	22.410	-1.300	-0.000																			1580065361.0	0.24	0.44
26/01/2020 19:02:42	26012020	260120	190242	22.580	12.187092	-56.117680	22.680	-0.130	-0.420	0.120	22.580	-1.800	0.400																			1580065362.0	0.33	0.61
26/01/2020 19:02:43	26012020	260120	190243	22.680	12.187092	-56.117677	22.790	0.440	-0.670	0.640	22.680	-2.000	0.900																			1580065363.0	0.77	1.43
26/01/2020 19:02:44	26012020	260120	190244	22.660	12.187092	-56.117672	22.750	0.730	-0.560	1.080	22.640	-2.000	1.300																			1580065364.0	1.05	1.94
26/01/2020 19:02:45	26012020	260120	190245	22.490	12.187090	-56.117667	22.560	0.550	-0.130	1.290	22.440	-1.600	1.600																			1580065365.0	0.91	1.69
26/01/2020 19:02:46	26012020	260120	190246	22.210	12.187088	-56.117667	22.290	0.100	0.360	1.190	22.150	-1.100	1.500																			1580065366.0	0.43	0.80
26/01/2020 19:02:47	26012020	260120	190247	21.970	12.187088	-56.117668	22.060	-0.290	0.540	0.760	21.930	-0.900	1.100																			1580065367.0	0.52	0.96
26/01/2020 19:02:48	26012020	260120	190248	21.870	12.187088	-56.117673	21.980	-0.390	0.240	0.030	21.870	-1.100	0.400																			1580065368.0	0.96	1.78
26/01/2020 19:02:49	26012020	260120	190249	21.970	12.187092	-56.117678	22.110	-0.230	-0.320	-0.810	22.020	-1.700	-0.400																			1580065369.0	1.29	2.39
26/01/2020 19:02:50	26012020	260120	190250	22.340	12.187097	-56.117682	22.420	0.000	-0.710	-1.530	22.340	-2.100	-1.200																			1580065370.0	1.25	2.31
26/01/2020 19:02:51	26012020	260120	190251	22.570	12.187098	-56.117683	22.680	0.090	-0.570	-1.780	22.600	-2.000	-1.500																			1580065371.0	0.78	1.44
26/01/2020 19:02:52	26012020	260120	190252	22.620	12.187098	-56.117685	22.690	-0.040	0.010	-1.450	22.600	-1.400	-1.200																			1580065372.0	0.08	0.15
26/01/2020 19:02:53	26012020	260120	190253	22.450	12.187095	-56.117683	22.480	-0.230	0.500	-0.820	22.450	-0.900	-0.600																			1580065373.0	0.74	1.37
26/01/2020 19:02:54	26012020	260120	190254	22.210	12.187092	-56.117682	22.270	-0.280	0.430	-0.240	22.180	-0.900	0.000																			1580065374.0	0.82	1.52
26/01/2020 19:02:55	26012020	260120	190255	22.100	12.187092	-56.117680	22.210	-0.070	-0.110	0.200	22.100	-1.400	0.500																			1580065375.0	0.34	0.63
26/01/2020 19:02:56	26012020	260120	190256	22.150	12.187093	-56.117678	22.290	0.300	-0.690	0.600	22.180	-2.000	0.900																			1580065376.0	0.49	0.91
26/01/2020 19:02:57	26012020	260120	190257	22.350	12.187095	-56.117675	22.530	0.520	-0.900	0.890	22.400	-2.300	1.200																			1580065377.0	0.66	1.22
26/01/2020 19:02:58	26012020	260120	190258	22.590	12.187095	-56.117673	22.750	0.380	-0.610	1.020	22.620	-2.100	1.300																			1580065378.0	0.58	1.07
26/01/2020 19:02:59	26012020	260120	190259	22.630	12.187095	-56.117672	22.750	-0.010	0.020	1.100	22.610	-1.400	1.400	1013.70	26.40	26.30	21.00	21.00	560.00	72.00	72.00	383.00	30.30	73.00	4.30	99.00	4.20	38914	3308.00	27.80	27.90	1580065379.0	0.38	0.70
26/01/2020 19:03:00	26012020	260120	190300	22.490	12.187092	-56.117672	22.600	-0.300	0.510	1.050	22.460	-0.900	1.400																			1580065380.0	0.49	0.91
26/01/2020 19:03:01	26012020	260120	190301	22.380	12.187090	-56.117672	22.510	-0.300	0.490	0.660	22.370	-0.900	1.000																			1580065381.0	0.38	0.70
26/01/2020 19:03:02	26012020	260120	190302	22.360	12.187092	-56.117673	22.480	-0.090	0.120	0.010	22.360	-1.200	0.400																			1580065382.0	0.31	0.57
26/01/2020 19:03:03	26012020	260120	190303	22.350	12.187093	-56.117675	22.450	0.120	-0.250	-0.660	22.350	-1.600	-0.300																			1580065383.0	0.79	1.46
26/01/2020 19:03:04	26012020	260120	190304	22.340	12.187097	-56.117678	22.430	0.210	-0.360	-1.210	22.340	-1.800	-0.800																			1580065384.0	1.00	1.85
26/01/2020 19:03:05	26012020	260120	190305	22.340	12.187098	-56.117683	22.410	0.170	-0.250	-1.520	22.340	-1.700	-1.200																			1580065385.0	0.93	1.72
26/01/2020 19:03:06	26012020	260120	190306	22.360	12.187100	-56.117685	22.460	0.070	-0.130	-1.560	22.380	-1.500	-1.200																			1580065386.0	0.66	1.22
26/01/2020 19:03:07	26012020	260120	190307	22.480	12.187100	-56.117687	22.600	-0.120	-0.150	-1.370	22.520	-1.500	-1.100																			1580065387.0	0.26	0.48
26/01/2020 19:03:08	26012020	260120	190308	22.690	12.187098	-56.117687	22.800	-0.330	-0.210	-0.990	22.730	-1.600	-0.700																			1580065388.0	0.09	0.17
26/01/2020 19:03:09	26012020	260120	190309	22.880	12.187098	-56.117685	23.010	-0.450	-0.160	-0.340	22.910	-1.600	-0.100																			1580065389.0	0.30	0.56
26/01/2020 19:03:10	26012020	260120	190310	23.020	12.187098	-56.117682	23.150	-0.330	-0.030	0.510	23.040	-1.400	0.700																			1580065390.0	0.66	1.22
26/01/2020 19:03:11	26012020	260120	190311	23.090	12.187095	-56.117678	23.230	-0.020	0.010	1.420	23.090	-1.400	1.600																			1580065391.0	1.13	2.09
26/01/2020 19:03:12	26012020	260120	190312	22.990	12.187093	-56.117672	23.120	0.320	-0.100	2.140	22.950	-1.500	2.400																			1580065392.0	1.39	2.57
26/01/2020 19:03:13	26012020	260120	190313	22.760	12.187090	-56.117667	22.890	0.520	-0.310	2.320	22.710	-1.700	2.600																			1580065393.0	1.29	2.39
26/01/2020 19:03:14	26012020	260120	190314	22.570	12.187090	-56.117663	22.730	0.520	-0.510	1.750	22.570	-1.900	2.100																			1580065394.0	0.69	1.28
26/01/2020 19:03:15	26012020	260120	190315	22.620	12.187093	-56.117665	22.780	0.360	-0.530	0.610	22.650	-1.900	1.000																			1580065395.0	0.55	1.02
26/01/2020 19:03:16	26012020	260120	190316	22.840	12.187097	-56.117670	22.990	0.140	-0.250	-0.740	22.890	-1.700	-0.300																			1580065396.0	1.55	2.87
26/01/2020 19:03:17	26012020	260120	190317	23.020	12.187100	-56.117680	23.100	-0.100	0.260	-1.830	23.030	-1.200	-1.400																			1580065397.0	2.09	3.87
26/01/2020 19:03:18	26012020	260120	190318	23.020	12.187102	-56.117688	23.060	-0.290	0.750	-2.270	23.010	-0.700	-1.900																			1580065398.0	1.90	3.52
26/01/2020 19:03:19	26012020	260120	190319	23.010	12.187102	-56.117693	23.070	-0.400	0.770	-2.170	23.020	-0.600	-1.900																			1580065399.0	1.06	1.96
26/01/2020 19:03:20	26012020	260120	190320	23.180	12.187100	-56.117693	23.270	-0.430	0.140	-1.780	23.230	-1.200	-1.500																			1580065400.0	0.27	0.50
26/01/2020 19:03:21	26012020	260120	190321	23.410	12.187100	-56.117690	23.510	-0.410	-0.630	-1.030	23.440	-2.000	-0.800																			1580065401.0	0.82	1.52
26/01/2020 19:03:22	26012020	260120	190322	23.460	12.187102	-56.117683	23.540	-0.330	-0.980	0.050	23.440	-2.400	0.200																			1580065402.0	1.20	2.22
26/01/2020 19:03:23	26012020	260120	190323	23.350	12.187100	-56.117678	23.460	-0.070	-0.920	1.110	23.320	-2.300	1.300																			1580065403.0	1.28	2.37
26/01/2020 19:03:24	26012020	260120	190324	23.310	12.187097	-56.117673	23.460	0.330	-0.700	1.790	23.310	-2.100	2.000																			1580065404.0	1.24	2.30
26/01/2020 19:03:25	26012020	260120	190325	23.330	12.187095	-56.117668	23.490	0.650	-0.320	2.110	23.340	-1.800	2.400																			1580065405.0	0.96	1.78
26/01/2020 19:03:26	26012020	260120	190326	23.270	12.187093	-56.117667	23.430	0.630	0.250	2.060	23.270	-1.200	2.400																			1580065406.0	0.56	1.04
26/01/2020 19:03:27	26012020	260120	190327	23.160	12.187092	-56.117667	23.290	0.280	0.730	1.490	23.140	-0.700	1.900																			1580065407.0	0.25	0.46
26/01/2020 19:03:28	26012020	260120	190328	23.100	12.187092	-56.117670	23.240	-0.120	0.760	0.470	23.100	-0.600	0.900																			1580065408.0	0.82	1.52
26/01/2020 19:03:29	26012020	260120	190329	23.160	12.187095	-56.117677	23.300	-0.310	0.270	-0.740	23.160	-1.100	-0.300																			1580065409.0	1.37	2.54
26/01/2020 19:03:30	26012020	260120	190330	23.350	12.187098	-56.117683	23.440	-0.220	-0.450	-1.790	23.350	-1.800	-1.400																			1580065410.0	1.56	2.89
26/01/2020 19:03:31	26012020	260120	190331	23.490	12.187103	-56.117687	23.600	-0.030	-0.930	-2.460	23.520	-2.300	-2.100																			1580065411.0	1.43	2.65
26/01/2020 19:03:32	26012020	260120	190332	23.570	12.187107	-56.117690	23.640	0.050	-0.820	-2.530	23.560	-2.300	-2.200																			1580065412.0	0.92	1.70
26/01/2020 19:03:33	26012020	260120	190333	23.470	12.187107	-56.117690	23.530	-0.040	-0.270	-1.970	23.440	-1.700	-1.700																			1580065413.0	0.10	0.19
26/01/2020 19:03:34	26012020	260120	190334	23.300	12.187103	-56.117688	23.400	-0.220	0.270	-1.070	23.270	-1.200	-0.900																			1580065414.0	0.74	1.37
26/01/2020 19:03:35	26012020	260120	190335	23.210	12.187100	-56.117687	23.330	-0.320	0.470	-0.110	23.200	-0.900	0.100																			1580065415.0	1.02	1.89
26/01/2020 19:03:36	26012020	260120	190336	23.260	12.187097	-56.117682	23.400	-0.260	0.290	0.710	23.260	-1.100	0.900																			1580065416.0	1.00	1.85
26/01/2020 19:03:37	26012020	260120	190337	23.380	12.187095	-56.117678	23.590	-0.060	-0.090	1.350	23.420	-1.400	1.600																			1580065417.0	0.92	1.70
26/01/2020 19:03:38	26012020	260120	190338	23.590	12.187095	-56.117675	23.790	0.140	-0.420	1.750	23.630	-1.800	2.000																			1580065418.0	0.86	1.59
26/01/2020 19:03:39	26012020	260120	190339	23.720	12.187095	-56.117670	23.900	0.240	-0.570	1.880	23.730	-2.000	2.200																			1580065419.0	0.77	1.43
26/01/2020 19:03:40	26012020	260120	190340	23.650	12.187095	-56.117668	23.840	0.200	-0.470	1.720	23.650	-1.900	2.000																			1580065420.0	0.46	0.85
26/01/2020 19:03:41	26012020	260120	190341	23.490	12.187093	-56.117668	23.620	0.140	-0.220	1.270	23.450	-1.600	1.600																			1580065421.0	0.10	0.19
26/01/2020 19:03:42	26012020	260120	190342	23.270	12.187095	-56.117672	23.370	0.170	-0.030	0.570	23.230	-1.400	1.000																			1580065422.0	0.63	1.17
26/01/2020 19:03:43	26012020	260120	190343	23.130	12.187097	-56.117677	23.250	0.240	0.020	-0.280	23.130	-1.400	0.100																			1580065423.0	0.99	1.83
26/01/2020 19:03:44	26012020	260120	190344	23.160	12.187098	-56.117682	23.290	0.220	0.000	-1.180	23.190	-1.400	-0.800																			1580065424.0	1.12	2.07
26/01/2020 19:03:45	26012020	260120	190345	23.370	12.187102	-56.117685	23.480	-0.000	-0.010	-1.990	23.410	-1.400	-1.600																			1580065425.0	1.08	2.00
26/01/2020 19:03:46	26012020	260120	190346	23.600	12.187103	-56.117690	23.660	-0.340	0.060	-2.410	23.600	-1.300	-2.100																			1580065426.0	0.97	1.80
26/01/2020 19:03:47	26012020	260120	190347	23.630	12.187103	-56.117692	23.680	-0.550	0.170	-2.150	23.620	-1.200	-1.900																			1580065427.0	0.59	1.09
26/01/2020 19:03:48	26012020	260120	190348	23.530	12.187102	-56.117692	23.610	-0.460	0.070	-1.330	23.530	-1.300	-1.100																			1580065428.0	0.31	0.57
26/01/2020 19:03:49	26012020	260120	190349	23.500	12.187100	-56.117688	23.610	-0.140	-0.350	-0.360	23.500	-1.700	-0.200																			1580065429.0	0.99	1.83
26/01/2020 19:03:50	26012020	260120	190350	23.530	12.187098	-56.117682	23.640	0.180	-0.740	0.480	23.530	-2.100	0.700																			1580065430.0	1.31	2.43
26/01/2020 19:03:51	26012020	260120	190351	23.540	12.187098	-56.117677	23.670	0.300	-0.650	1.160	23.540	-2.100	1.400																			1580065431.0	1.15	2.13
26/01/2020 19:03:52	26012020	260120	190352	23.550	12.187097	-56.117673	23.690	0.250	-0.090	1.640	23.550	-1.500	1.900																			1580065432.0	0.76	1.41
26/01/2020 19:03:53	26012020	260120	190353	23.560	12.187095	-56.117672	23.700	0.100	0.410	1.820	23.550	-1.000	2.100																			1580065433.0	0.70	1.30
26/01/2020 19:03:54	26012020	260120	190354	23.540	12.187092	-56.117672	23.680	-0.070	0.500	1.630	23.530	-0.900	2.000																			1580065434.0	0.54	1.00
26/01/2020 19:03:55	26012020	260120	190355	23.520	12.187092	-56.117673	23.670	-0.170	0.180	1.090	23.520	-1.200	1.500																			1580065435.0	0.25	0.46
26/01/2020 19:03:56	26012020	260120	190356	23.550	12.187093	-56.117675	23.680	-0.120	-0.270	0.340	23.550	-1.600	0.700																			1580065436.0	0.61	1.13
26/01/2020 19:03:57	26012020	260120	190357	23.570	12.187097	-56.117677	23.690	0.050	-0.610	-0.400	23.570	-2.000	-0.000																			1580065437.0	0.82	1.52
26/01/2020 19:03:58	26012020	260120	190358	23.580	12.187098	-56.117680	23.670	0.210	-0.740	-1.000	23.580	-2.100	-0.600																			1580065438.0	0.68	1.26
26/01/2020 19:03:59	26012020	260120	190359	23.590	12.187100	-56.117682	23.690	0.220	-0.650	-1.470	23.600	-2.100	-1.100	1013.70	26.40	26.30	20.90	20.90	579.00	71.00	72.00	383.00	30.30	75.00	3.90	104.00	3.90	39532	3382.00	27.80	27.90	1580065439.0	0.46	0.85
26/01/2020 19:04:00	26012020	260120	190400	23.590	12.187102	-56.117683	23.660	0.060	-0.310	-1.700	23.570	-1.700	-1.400																			1580065440.0	0.45	0.83
26/01/2020 19:04:01	26012020	260120	190401	23.460	12.187102	-56.117685	23.510	-0.110	0.250	-1.550	23.420	-1.200	-1.300																			1580065441.0	0.58	1.07
26/01/2020 19:04:02	26012020	260120	190402	23.300	12.187100	-56.117688	23.390	-0.130	0.680	-1.090	23.290	-0.700	-0.800																			1580065442.0	0.51	0.94
26/01/2020 19:04:03	26012020	260120	190403	23.350	12.187098	-56.117688	23.510	-0.050	0.580	-0.590	23.400	-0.800	-0.300																			1580065443.0	0.39	0.72
26/01/2020 19:04:04	26012020	260120	190404	23.610	12.187098	-56.117685	23.790	-0.050	0.110	-0.050	23.660	-1.200	0.200																			1580065444.0	0.53	0.98
26/01/2020 19:04:05	26012020	260120	190405	23.850	12.187098	-56.117682	24.030	-0.210	-0.290	0.600	23.870	-1.600	0.800																			1580065445.0	0.89	1.65
26/01/2020 19:04:06	26012020	260120	190406	23.930	12.187097	-56.117677	24.100	-0.390	-0.420	1.260	23.930	-1.800	1.500																			1580065446.0	1.08	2.00
26/01/2020 19:04:07	26012020	260120	190407	23.870	12.187095	-56.117672	24.030	-0.370	-0.390	1.770	23.850	-1.800	2.000																			1580065447.0	1.15	2.13
26/01/2020 19:04:08	26012020	260120	190408	23.680	12.187092	-56.117668	23.810	-0.100	-0.340	2.000	23.630	-1.700	2.300																			1580065448.0	1.00	1.85
26/01/2020 19:04:09	26012020	260120	190409	23.370	12.187090	-56.117665	23.480	0.250	-0.270	1.820	23.300	-1.700	2.200																			1580065449.0	0.60	1.11
26/01/2020 19:04:10	26012020	260120	190410	23.020	12.187090	-56.117667	23.130	0.450	-0.280	1.140	22.970	-1.700	1.500																			1580065450.0	0.08	0.15
26/01/2020 19:04:11	26012020	260120	190411	22.870	12.187092	-56.117670	23.020	0.400	-0.380	-0.100	22.880	-1.700	0.400																			1580065451.0	0.93	1.72
26/01/2020 19:04:12	26012020	260120	190412	23.080	12.187097	-56.117678	23.240	0.210	-0.460	-1.600	23.150	-1.800	-1.100																			1580065452.0	1.88	3.48
26/01/2020 19:04:13	26012020	260120	190413	23.490	12.187102	-56.117687	23.630	0.040	-0.330	-2.770	23.580	-1.700	-2.400																			1580065453.0	2.31	4.28
26/01/2020 19:04:14	26012020	260120	190414	23.860	12.187105	-56.117695	23.950	-0.060	0.050	-3.070	23.900	-1.400	-2.800																			1580065454.0	1.72	3.19
26/01/2020 19:04:15	26012020	260120	190415	23.970	12.187105	-56.117697	24.020	-0.170	0.500	-2.360	23.960	-0.900	-2.200																			1580065455.0	0.42	0.78
26/01/2020 19:04:16	26012020	260120	190416	23.790	12.187102	-56.117693	23.870	-0.270	0.660	-0.940	23.790	-0.700	-0.800																			1580065456.0	1.08	2.00
26/01/2020 19:04:17	26012020	260120	190417	23.640	12.187097	-56.117685	23.730	-0.300	0.350	0.560	23.620	-1.000	0.700																			1580065457.0	2.01	3.72
26/01/2020 19:04:18	26012020	260120	190418	23.550	12.187093	-56.117675	23.690	-0.210	-0.190	1.700	23.550	-1.500	1.900																			1580065458.0	2.20	4.07
26/01/2020 19:04:19	26012020	260120	190419	23.510	12.187092	-56.117667	23.650	-0.110	-0.510	2.380	23.500	-1.900	2.600																			1580065459.0	1.78	3.30
26/01/2020 19:04:20	26012020	260120	190420	23.400	12.187090	-56.117662	23.530	-0.070	-0.500	2.600	23.370	-1.900	2.900																			1580065460.0	1.02	1.89
26/01/2020 19:04:21	26012020	260120	190421	23.280	12.187088	-56.117662	23.430	-0.030	-0.430	2.270	23.270	-1.800	2.600																			1580065461.0	0.23	0.43
26/01/2020 19:04:22	26012020	260120	190422	23.320	12.187090	-56.117665	23.470	0.150	-0.510	1.400	23.320	-1.900	1.800																			1580065462.0	0.81	1.50
26/01/2020 19:04:23	26012020	260120	190423	23.410	12.187092	-56.117672	23.560	0.430	-0.530	0.300	23.430	-1.900	0.700																			1580065463.0	1.43	2.65
26/01/2020 19:04:24	26012020	260120	190424	23.450	12.187097	-56.117677	23.570	0.550	-0.280	-0.690	23.450	-1.700	-0.300																			1580065464.0	1.46	2.70
26/01/2020 19:04:25	26012020	260120	190425	23.440	12.187098	-56.117682	23.550	0.340	0.120	-1.400	23.440	-1.300	-1.000																			1580065465.0	1.13	2.09
26/01/2020 19:04:26	26012020	260120	190426	23.490	12.187098	-56.117687	23.600	-0.060	0.400	-1.800	23.510	-1.000	-1.400																			1580065466.0	0.82	1.52
26/01/2020 19:04:27	26012020	260120	190427	23.620	12.187098	-56.117688	23.720	-0.370	0.380	-1.830	23.640	-1.000	-1.500																			1580065467.0	0.42	0.78
26/01/2020 19:04:28	26012020	260120	190428	23.730	12.187098	-56.117688	23.810	-0.440	0.110	-1.460	23.730	-1.200	-1.200																			1580065468.0	0.10	0.19
26/01/2020 19:04:29	26012020	260120	190429	23.730	12.187098	-56.117685	23.820	-0.340	-0.230	-0.830	23.730	-1.600	-0.600																			1580065469.0	0.59	1.09
26/01/2020 19:04:30	26012020	260120	190430	23.660	12.187098	-56.117682	23.760	-0.170	-0.370	-0.000	23.650	-1.700	0.200																			1580065470.0	0.84	1.56
26/01/2020 19:04:31	26012020	260120	190431	23.570	12.187097	-56.117677	23.690	0.030	-0.300	0.850	23.550	-1.700	1.100																			1580065471.0	1.01	1.87
26/01/2020 19:04:32	26012020	260120	190432	23.460	12.187093	-56.117672	23.590	0.210	-0.170	1.550	23.430	-1.600	1.800																			1580065472.0	1.16	2.15
26/01/2020 19:04:33	26012020	260120	190433	23.290	12.187090	-56.117668	23.420	0.270	-0.070	1.950	23.290	-1.500	2.200																			1580065473.0	1.06	1.96
26/01/2020 19:04:34	26012020	260120	190434	23.100	12.187090	-56.117665	23.230	0.190	-0.070	1.850	23.060	-1.400	2.200																			1580065474.0	0.57	1.06
26/01/2020 19:04:35	26012020	260120	190435	22.960	12.187090	-56.117667	23.100	0.070	-0.180	1.200	22.950	-1.500	1.600																			1580065475.0	0.26	0.48
26/01/2020 19:04:36	26012020	260120	190436	22.960	12.187092	-56.117672	23.110	-0.010	-0.320	0.170	22.990	-1.700	0.600																			1580065476.0	1.14	2.11
26/01/2020 19:04:37	26012020	260120	190437	23.160	12.187097	-56.117678	23.320	-0.040	-0.380	-0.940	23.230	-1.800	-0.500																			1580065477.0	1.65	3.06
26/01/2020 19:04:38	26012020	260120	190438	23.470	12.187100	-56.117685	23.600	-0.060	-0.210	-1.670	23.520	-1.600	-1.300																			1580065478.0	1.61	2.98
26/01/2020 19:04:39	26012020	260120	190439	23.680	12.187102	-56.117688	23.800	-0.120	0.150	-1.740	23.710	-1.300	-1.500																			1580065479.0	0.90	1.67
26/01/2020 19:04:40	26012020	260120	190440	23.760	12.187100	-56.117688	23.850	-0.200	0.360	-1.280	23.760	-1.000	-1.000																			1580065480.0	0.33	0.61
26/01/2020 19:04:41	26012020	260120	190441	23.720	12.187097	-56.117685	23.800	-0.240	0.240	-0.480	23.690	-1.100	-0.300																			1580065481.0	1.06	1.96
26/01/2020 19:04:42	26012020	260120	190442	23.510	12.187093	-56.117678	23.570	-0.190	-0.110	0.420	23.460	-1.400	0.600																			1580065482.0	1.49	2.76
26/01/2020 19:04:43	26012020	260120	190443	23.230	12.187092	-56.117672	23.320	-0.050	-0.540	1.090	23.190	-1.900	1.300																			1580065483.0	1.46	2.70
26/01/2020 19:04:44	26012020	260120	190444	23.070	12.187092	-56.117667	23.200	0.140	-0.780	1.290	23.050	-2.100	1.600																			1580065484.0	0.92	1.70
26/01/2020 19:04:45	26012020	260120	190445	23.040	12.187093	-56.117667	23.200	0.320	-0.600	1.100	23.040	-2.000	1.400																			1580065485.0	0.28	0.52
26/01/2020 19:04:46	26012020	260120	190446	23.090	12.187093	-56.117668	23.230	0.410	-0.060	0.680	23.090	-1.500	1.000																			1580065486.0	0.61	1.13
26/01/2020 19:04:47	26012020	260120	190447	23.110	12.187093	-56.117673	23.250	0.310	0.400	0.180	23.110	-1.000	0.500																			1580065487.0	0.90	1.67
26/01/2020 19:04:48	26012020	260120	190448	23.220	12.187093	-56.117677	23.360	0.100	0.390	-0.320	23.250	-1.000	0.000																			1580065488.0	0.89	1.65
26/01/2020 19:04:49	26012020	260120	190449	23.380	12.187095	-56.117680	23.510	-0.120	0.060	-0.620	23.410	-1.300	-0.300																			1580065489.0	0.65	1.20
26/01/2020 19:04:50	26012020	260120	190450	23.480	12.187097	-56.117680	23.570	-0.260	-0.210	-0.660	23.480	-1.600	-0.400																			1580065490.0	0.42	0.78
26/01/2020 19:04:51	26012020	260120	190451	23.460	12.187098	-56.117678	23.550	-0.350	-0.230	-0.510	23.450	-1.600	-0.200																			1580065491.0	0.37	0.69
26/01/2020 19:04:52	26012020	260120	190452	23.370	12.187097	-56.117677	23.480	-0.410	-0.130	-0.220	23.370	-1.500	0.000																			1580065492.0	0.61	1.13
26/01/2020 19:04:53	26012020	260120	190453	23.320	12.187095	-56.117675	23.440	-0.370	-0.100	0.070	23.320	-1.500	0.300																			1580065493.0	0.64	1.19
26/01/2020 19:04:54	26012020	260120	190454	23.310	12.187093	-56.117673	23.440	-0.170	-0.230	0.220	23.310	-1.600	0.500																			1580065494.0	0.37	0.69
26/01/2020 19:04:55	26012020	260120	190455	23.320	12.187093	-56.117673	23.450	0.180	-0.380	0.230	23.320	-1.800	0.500																			1580065495.0	0.08	0.15
26/01/2020 19:04:56	26012020	260120	190456	23.310	12.187095	-56.117673	23.430	0.470	-0.370	0.270	23.300	-1.800	0.600																			1580065496.0	0.23	0.43
26/01/2020 19:04:57	26012020	260120	190457	23.270	12.187095	-56.117673	23.390	0.510	-0.160	0.390	23.270	-1.600	0.700																			1580065497.0	0.10	0.19
26/01/2020 19:04:58	26012020	260120	190458	23.250	12.187093	-56.117672	23.390	0.260	-0.000	0.420	23.250	-1.400	0.700																			1580065498.0	0.28	0.52
26/01/2020 19:04:59	26012020	260120	190459	23.230	12.187093	-56.117672	23.350	-0.110	0.050	0.290	23.230	-1.300	0.600	1013.70	26.40	26.30	20.90	20.90	583.00	71.00	72.00	384.00	30.40	74.00	4.10	103.00	4.00	39543	3333.00	27.80	27.90	1580065499.0	0.20	0.37
26/01/2020 19:05:00	26012020	260120	190500	23.200	12.187093	-56.117672	23.320	-0.350	0.110	0.080	23.190	-1.300	0.400																			1580065500.0	0.11	0.20
26/01/2020 19:05:01	26012020	260120	190501	23.180	12.187093	-56.117673	23.310	-0.320	0.090	-0.140	23.180	-1.300	0.200																			1580065501.0	0.30	0.56
26/01/2020 19:05:02	26012020	260120	190502	23.200	12.187093	-56.117675	23.330	-0.070	-0.170	-0.320	23.210	-1.500	0.000																			1580065502.0	0.36	0.67
26/01/2020 19:05:03	26012020	260120	190503	23.270	12.187095	-56.117675	23.410	0.210	-0.490	-0.440	23.300	-1.900	-0.100																			1580065503.0	0.39	0.72
26/01/2020 19:05:04	26012020	260120	190504	23.450	12.187097	-56.117675	23.560	0.310	-0.560	-0.520	23.450	-2.000	-0.200																			1580065504.0	0.41	0.76
26/01/2020 19:05:05	26012020	260120	190505	23.580	12.187098	-56.117675	23.720	0.170	-0.270	-0.490	23.620	-1.700	-0.200																			1580065505.0	0.18	0.33
26/01/2020 19:05:06	26012020	260120	190506	23.650	12.187097	-56.117675	23.760	-0.110	0.270	-0.170	23.650	-1.200	0.100																			1580065506.0	0.33	0.61
26/01/2020 19:05:07	26012020	260120	190507	23.520	12.187093	-56.117673	23.600	-0.350	0.730	0.420	23.470	-0.700	0.700																			1580065507.0	0.75	1.39
26/01/2020 19:05:08	26012020	260120	190508	23.240	12.187090	-56.117670	23.300	-0.460	0.700	0.930	23.180	-0.700	1.200																			1580065508.0	1.00	1.85
26/01/2020 19:05:09	26012020	260120	190509	22.980	12.187087	-56.117668	23.070	-0.380	0.030	1.030	22.980	-1.300	1.300																			1580065509.0	0.73	1.35
26/01/2020 19:05:10	26012020	260120	190510	22.950	12.187088	-56.117667	23.060	-0.150	-0.900	0.660	22.950	-2.200	1.000																			1580065510.0	0.36	0.67
26/01/2020 19:05:11	26012020	260120	190511	23.130	12.187093	-56.117668	23.310	0.170	-1.450	0.000	23.190	-2.800	0.400																			1580065511.0	0.93	1.72
26/01/2020 19:05:12	26012020	260120	190512	23.460	12.187097	-56.117672	23.580	0.490	-1.190	-0.490	23.460	-2.600	-0.200																			1580065512.0	1.15	2.13
26/01/2020 19:05:13	26012020	260120	190513	23.550	12.187098	-56.117675	23.670	0.640	-0.320	-0.540	23.550	-1.800	-0.300																			1580065513.0	0.71	1.31
26/01/2020 19:05:14	26012020	260120	190514	23.540	12.187097	-56.117675	23.650	0.540	0.480	-0.340	23.530	-1.000	-0.100																			1580065514.0	0.53	0.98
26/01/2020 19:05:15	26012020	260120	190515	23.510	12.187093	-56.117675	23.610	0.200	0.780	-0.150	23.490	-0.600	0.100																			1580065515.0	0.67	1.24
26/01/2020 19:05:16	26012020	260120	190516	23.420	12.187092	-56.117673	23.510	-0.210	0.740	0.060	23.390	-0.600	0.300																			1580065516.0	0.44	0.81
26/01/2020 19:05:17	26012020	260120	190517	23.280	12.187092	-56.117672	23.390	-0.490	0.550	0.270	23.260	-0.800	0.600																			1580065517.0	0.31	0.57
26/01/2020 19:05:18	26012020	260120	190518	23.260	12.187090	-56.117670	23.370	-0.540	0.060	0.320	23.260	-1.300	0.600																			1580065518.0	0.24	0.44
26/01/2020 19:05:19	26012020	260120	190519	23.370	12.187092	-56.117670	23.530	-0.370	-0.620	0.210	23.410	-1.900	0.500																			1580065519.0	0.16	0.30
26/01/2020 19:05:20	26012020	260120	190520	23.570	12.187093	-56.117670	23.700	-0.090	-1.020	0.120	23.590	-2.400	0.400																			1580065520.0	0.46	0.85
26/01/2020 19:05:21	26012020	260120	190521	23.590	12.187095	-56.117670	23.680	0.140	-0.780	0.280	23.550	-2.200	0.600																			1580065521.0	0.31	0.57
26/01/2020 19:05:22	26012020	260120	190522	23.340	12.187093	-56.117668	23.410	0.210	-0.150	0.610	23.270	-1.600	0.900																			1580065522.0	0.43	0.80
26/01/2020 19:05:23	26012020	260120	190523	23.070	12.187090	-56.117668	23.170	0.190	0.190	0.680	23.040	-1.200	1.000																			1580065523.0	0.85	1.57
26/01/2020 19:05:24	26012020	260120	190524	23.040	12.187088	-56.117667	23.190	0.190	0.040	0.330	23.060	-1.300	0.700																			1580065524.0	0.43	0.80
26/01/2020 19:05:25	26012020	260120	190525	23.180	12.187088	-56.117668	23.320	0.210	-0.250	-0.210	23.210	-1.600	0.200																			1580065525.0	0.43	0.80
26/01/2020 19:05:26	26012020	260120	190526	23.330	12.187093	-56.117672	23.450	0.200	-0.300	-0.690	23.360	-1.700	-0.300																			1580065526.0	0.96	1.78
26/01/2020 19:05:27	26012020	260120	190527	23.440	12.187095	-56.117675	23.550	0.120	-0.070	-0.930	23.460	-1.500	-0.600																			1580065527.0	0.91	1.69
26/01/2020 19:05:28	26012020	260120	190528	23.470	12.187095	-56.117677	23.560	-0.010	0.190	-0.850	23.470	-1.200	-0.600																			1580065528.0	0.54	1.00
26/01/2020 19:05:29	26012020	260120	190529	23.380	12.187095	-56.117677	23.440	-0.150	0.320	-0.350	23.350	-1.100	-0.100																			1580065529.0	0.24	0.44
26/01/2020 19:05:30	26012020	260120	190530	23.170	12.187092	-56.117675	23.240	-0.240	0.180	0.360	23.130	-1.200	0.600																			1580065530.0	0.75	1.39
26/01/2020 19:05:31	26012020	260120	190531	23.000	12.187090	-56.117670	23.110	-0.230	-0.200	0.930	22.990	-1.500	1.200																			1580065531.0	1.08	2.00
26/01/2020 19:05:32	26012020	260120	190532	23.020	12.187090	-56.117665	23.180	-0.120	-0.620	1.100	23.050	-2.000	1.400																			1580065532.0	0.93	1.72
26/01/2020 19:05:33	26012020	260120	190533	23.200	12.187090	-56.117663	23.370	0.020	-0.690	0.940	23.240	-2.100	1.300																			1580065533.0	0.50	0.93
26/01/2020 19:05:34	26012020	260120	190534	23.260	12.187092	-56.117663	23.390	0.110	-0.290	0.690	23.260	-1.700	1.000																			1580065534.0	0.14	0.26
26/01/2020 19:05:35	26012020	260120	190535	23.070	12.187090	-56.117665	23.140	0.120	0.300	0.510	23.070	-1.100	0.800																			1580065535.0	0.45	0.83
26/01/2020 19:05:36	26012020	260120	190536	22.740	12.187088	-56.117668	22.820	0.110	0.500	0.300	22.690	-0.900	0.700																			1580065536.0	0.67	1.24
26/01/2020 19:05:37	26012020	260120	190537	22.610	12.187088	-56.117670	22.750	0.140	0.040	-0.160	22.610	-1.300	0.200																			1580065537.0	0.49	0.91
26/01/2020 19:05:38	26012020	260120	190538	22.790	12.187092	-56.117672	22.950	0.230	-0.640	-0.750	22.840	-2.000	-0.400																			1580065538.0	0.79	1.46
26/01/2020 19:05:39	26012020	260120	190539	23.050	12.187095	-56.117675	23.180	0.280	-0.860	-1.110	23.080	-2.300	-0.800																			1580065539.0	1.01	1.87
26/01/2020 19:05:40	26012020	260120	190540	23.150	12.187097	-56.117675	23.260	0.180	-0.520	-1.050	23.150	-2.000	-0.800																			1580065540.0	0.46	0.85
26/01/2020 19:05:41	26012020	260120	190541	23.100	12.187097	-56.117673	23.190	-0.090	0.050	-0.690	23.080	-1.400	-0.400																			1580065541.0	0.30	0.56
26/01/2020 19:05:42	26012020	260120	190542	22.920	12.187093	-56.117673	23.000	-0.360	0.550	-0.090	22.870	-0.900	0.200																			1580065542.0	0.70	1.30
26/01/2020 19:05:43	26012020	260120	190543	22.630	12.187090	-56.117670	22.710	-0.480	0.770	0.570	22.570	-0.600	0.800																			1580065543.0	0.79	1.46
26/01/2020 19:05:44	26012020	260120	190544	22.330	12.187088	-56.117668	22.480	-0.340	0.550	0.990	22.330	-0.800	1.300																			1580065544.0	0.65	1.20
26/01/2020 19:05:45	26012020	260120	190545	22.290	12.187087	-56.117667	22.440	-0.020	-0.110	1.000	22.290	-1.400	1.300																			1580065545.0	0.29	0.54
26/01/2020 19:05:46	26012020	260120	190546	22.380	12.187088	-56.117667	22.560	0.300	-0.810	0.760	22.420	-2.100	1.100																			1580065546.0	0.40	0.74
26/01/2020 19:05:47	26012020	260120	190547	22.640	12.187092	-56.117667	22.850	0.400	-1.130	0.320	22.710	-2.500	0.700																			1580065547.0	0.51	0.94
26/01/2020 19:05:48	26012020	260120	190548	22.990	12.187093	-56.117667	23.120	0.250	-0.880	-0.110	22.990	-2.300	0.200																			1580065548.0	0.33	0.61
26/01/2020 19:05:49	26012020	260120	190549	23.010	12.187093	-56.117668	23.110	-0.040	-0.250	-0.280	22.980	-1.700	0.000																			1580065549.0	0.26	0.48
26/01/2020 19:05:50	26012020	260120	190550	22.730	12.187092	-56.117670	22.780	-0.180	0.320	-0.170	22.650	-1.100	0.100																			1580065550.0	0.50	0.93
26/01/2020 19:05:51	26012020	260120	190551	22.280	12.187090	-56.117672	22.330	0.020	0.480	0.050	22.200	-0.900	0.400																			1580065551.0	0.43	0.80
26/01/2020 19:05:52	26012020	260120	190552	21.950	12.187090	-56.117672	22.020	0.410	0.170	0.160	21.910	-1.200	0.500																			1580065552.0	0.04	0.07
26/01/2020 19:05:53	26012020	260120	190553	21.890	12.187092	-56.117670	22.020	0.570	-0.260	0.000	21.910	-1.600	0.400																			1580065553.0	0.50	0.93
26/01/2020 19:05:54	26012020	260120	190554	22.100	12.187093	-56.117668	22.270	0.260	-0.380	-0.370	22.170	-1.800	0.000																			1580065554.0	0.55	1.02
26/01/2020 19:05:55	26012020	260120	190555	22.410	12.187095	-56.117670	22.580	-0.350	-0.030	-0.660	22.470	-1.500	-0.300																			1580065555.0	0.48	0.89
26/01/2020 19:05:56	26012020	260120	190556	22.620	12.187095	-56.117673	22.730	-0.790	0.470	-0.640	22.620	-1.000	-0.300																			1580065556.0	0.74	1.37
26/01/2020 19:05:57	26012020	260120	190557	22.580	12.187093	-56.117677	22.680	-0.750	0.620	-0.230	22.560	-0.800	0.000																			1580065557.0	0.69	1.28
26/01/2020 19:05:58	26012020	260120	190558	22.420	12.187090	-56.117675	22.510	-0.350	0.210	0.400	22.380	-1.100	0.700																			1580065558.0	0.59	1.09
26/01/2020 19:05:59	26012020	260120	190559	22.230	12.187088	-56.117670	22.330	0.040	-0.500	0.970	22.230	-1.800	1.200	1013.70	26.40	26.30	21.10	21.10	571.00	72.00	73.00	384.00	30.40	72.00	3.70	98.00	3.70	39015	3333.00	27.80	27.90	1580065559.0	1.08	2.00
26/01/2020 19:06:00	26012020	260120	190600	22.100	12.187088	-56.117663	22.240	0.220	-1.030	1.200	22.080	-2.400	1.500																			1580065560.0	1.18	2.19
26/01/2020 19:06:01	26012020	260120	190601	22.070	12.187090	-56.117662	22.230	0.250	-1.050	1.070	22.070	-2.400	1.400																			1580065561.0	0.57	1.06
26/01/2020 19:06:02	26012020	260120	190602	22.030	12.187090	-56.117663	22.190	0.320	-0.590	0.780	22.020	-2.000	1.100																			1580065562.0	0.32	0.59
26/01/2020 19:06:03	26012020	260120	190603	21.930	12.187090	-56.117667	22.070	0.420	-0.090	0.340	21.920	-1.500	0.700																			1580065563.0	0.73	1.35
26/01/2020 19:06:04	26012020	260120	190604	21.880	12.187092	-56.117670	22.020	0.480	0.110	-0.230	21.880	-1.300	0.200																			1580065564.0	0.90	1.67
26/01/2020 19:06:05	26012020	260120	190605	21.990	12.187093	-56.117675	22.160	0.450	0.040	-0.770	22.040	-1.300	-0.400																			1580065565.0	0.93	1.72
26/01/2020 19:06:06	26012020	260120	190606	22.260	12.187097	-56.117677	22.430	0.280	-0.020	-1.100	22.320	-1.400	-0.800																			1580065566.0	0.78	1.44
26/01/2020 19:06:07	26012020	260120	190607	22.510	12.187098	-56.117677	22.610	-0.010	0.160	-1.080	22.520	-1.300	-0.800																			1580065567.0	0.41	0.76
26/01/2020 19:06:08	26012020	260120	190608	22.450	12.187098	-56.117675	22.500	-0.390	0.580	-0.610	22.400	-0.900	-0.400																			1580065568.0	0.30	0.56
26/01/2020 19:06:09	26012020	260120	190609	22.140	12.187095	-56.117673	22.190	-0.710	0.760	0.030	22.070	-0.600	0.300																			1580065569.0	0.85	1.57
26/01/2020 19:06:10	26012020	260120	190610	21.870	12.187092	-56.117670	21.960	-0.790	0.370	0.540	21.840	-0.900	0.800																			1580065570.0	0.87	1.61
26/01/2020 19:06:11	26012020	260120	190611	21.800	12.187090	-56.117668	21.940	-0.540	-0.290	0.750	21.810	-1.600	1.100																			1580065571.0	0.45	0.83
26/01/2020 19:06:12	26012020	260120	190612	21.900	12.187092	-56.117667	22.050	-0.140	-0.750	0.690	21.920	-2.100	1.000																			1580065572.0	0.35	0.65
26/01/2020 19:06:13	26012020	260120	190613	22.000	12.187092	-56.117667	22.120	0.180	-0.800	0.510	22.000	-2.200	0.800																			1580065573.0	0.16	0.30
26/01/2020 19:06:14	26012020	260120	190614	21.950	12.187092	-56.117668	22.040	0.320	-0.690	0.360	21.920	-2.100	0.700																			1580065574.0	0.23	0.43
26/01/2020 19:06:15	26012020	260120	190615	21.820	12.187092	-56.117670	21.930	0.380	-0.710	0.150	21.810	-2.100	0.500																			1580065575.0	0.35	0.65
26/01/2020 19:06:16	26012020	260120	190616	21.810	12.187093	-56.117672	21.950	0.490	-0.730	-0.180	21.840	-2.100	0.200																			1580065576.0	0.58	1.07
26/01/2020 19:06:17	26012020	260120	190617	21.980	12.187097	-56.117675	22.120	0.620	-0.480	-0.500	22.020	-1.900	-0.200																			1580065577.0	0.79	1.46
26/01/2020 19:06:18	26012020	260120	190618	22.190	12.187098	-56.117677	22.320	0.600	0.120	-0.560	22.220	-1.300	-0.200																			1580065578.0	0.50	0.93
26/01/2020 19:06:19	26012020	260120	190619	22.240	12.187098	-56.117675	22.330	0.230	0.850	-0.310	22.210	-0.600	-0.000																			1580065579.0	0.17	0.31
26/01/2020 19:06:20	26012020	260120	190620	22.090	12.187095	-56.117673	22.170	-0.360	1.250	-0.000	22.050	-0.200	0.300																			1580065580.0	0.67	1.24
26/01/2020 19:06:21	26012020	260120	190621	21.930	12.187092	-56.117673	22.030	-0.800	0.990	0.180	21.910	-0.300	0.500																			1580065581.0	0.56	1.04
26/01/2020 19:06:22	26012020	260120	190622	21.920	12.187092	-56.117673	22.060	-0.760	0.110	0.220	21.930	-1.200	0.500																			1580065582.0	0.13	0.24
26/01/2020 19:06:23	26012020	260120	190623	22.030	12.187093	-56.117672	22.170	-0.360	-0.810	0.230	22.050	-2.100	0.500																			1580065583.0	0.50	0.93
26/01/2020 19:06:24	26012020	260120	190624	22.120	12.187097	-56.117670	22.240	-0.040	-1.170	0.220	22.130	-2.500	0.500																			1580065584.0	0.64	1.19
26/01/2020 19:06:25	26012020	260120	190625	22.040	12.187097	-56.117668	22.120	-0.010	-0.880	0.200	22.040	-2.300	0.500																			1580065585.0	0.25	0.46
26/01/2020 19:06:26	26012020	260120	190626	21.770	12.187095	-56.117670	21.830	-0.100	-0.350	0.100	21.700	-1.800	0.400																			1580065586.0	0.42	0.78
26/01/2020 19:06:27	26012020	260120	190627	21.490	12.187093	-56.117673	21.590	0.020	-0.020	-0.080	21.460	-1.400	0.300																			1580065587.0	0.79	1.46
26/01/2020 19:06:28	26012020	260120	190628	21.450	12.187093	-56.117677	21.580	0.420	-0.050	-0.330	21.470	-1.400	0.000																			1580065588.0	0.76	1.41
26/01/2020 19:06:29	26012020	260120	190629	21.630	12.187097	-56.117678	21.780	0.750	-0.270	-0.600	21.680	-1.600	-0.200																			1580065589.0	0.61	1.13
26/01/2020 19:06:30	26012020	260120	190630	21.830	12.187098	-56.117678	21.960	0.650	-0.270	-0.770	21.860	-1.700	-0.400																			1580065590.0	0.62	1.15
26/01/2020 19:06:31	26012020	260120	190631	21.930	12.187100	-56.117680	22.050	0.130	0.040	-0.730	21.960	-1.400	-0.400																			1580065591.0	0.31	0.57
26/01/2020 19:06:32	26012020	260120	190632	22.050	12.187100	-56.117680	22.180	-0.400	0.330	-0.530	22.080	-1.100	-0.200																			1580065592.0	0.18	0.33
26/01/2020 19:06:33	26012020	260120	190633	22.180	12.187098	-56.117678	22.300	-0.550	0.320	-0.150	22.190	-1.000	0.100																			1580065593.0	0.37	0.69
26/01/2020 19:06:34	26012020	260120	190634	22.200	12.187097	-56.117677	22.300	-0.300	0.130	0.410	22.180	-1.200	0.700																			1580065594.0	0.55	1.02
26/01/2020 19:06:35	26012020	260120	190635	22.010	12.187097	-56.117672	22.110	0.020	-0.040	1.030	21.950	-1.400	1.300																			1580065595.0	0.97	1.80
26/01/2020 19:06:36	26012020	260120	190636	21.700	12.187095	-56.117667	21.810	0.090	-0.130	1.330	21.640	-1.500	1.600																			1580065596.0	1.07	1.98
26/01/2020 19:06:37	26012020	260120	190637	21.470	12.187093	-56.117665	21.600	-0.090	-0.220	1.060	21.450	-1.600	1.400																			1580065597.0	0.52	0.96
26/01/2020 19:06:38	26012020	260120	190638	21.400	12.187093	-56.117667	21.540	-0.280	-0.270	0.370	21.400	-1.700	0.800																			1580065598.0	0.50	0.93
26/01/2020 19:06:39	26012020	260120	190639	21.450	12.187095	-56.117673	21.600	-0.250	-0.330	-0.460	21.470	-1.700	-0.100																			1580065599.0	1.28	2.37
26/01/2020 19:06:40	26012020	260120	190640	21.650	12.187098	-56.117680	21.820	-0.030	-0.480	-1.220	21.700	-1.900	-0.800																			1580065600.0	1.55	2.87
26/01/2020 19:06:41	26012020	260120	190641	21.960	12.187102	-56.117685	22.120	0.240	-0.580	-1.740	22.020	-2.000	-1.400																			1580065601.0	1.37	2.54
26/01/2020 19:06:42	26012020	260120	190642	22.190	12.187103	-56.117688	22.300	0.370	-0.390	-1.730	22.210	-1.800	-1.400																			1580065602.0	0.86	1.59
26/01/2020 19:06:43	26012020	260120	190643	22.190	12.187103	-56.117688	22.270	0.310	0.040	-1.090	22.180	-1.400	-0.900																			1580065603.0	0.02	0.04
26/01/2020 19:06:44	26012020	260120	190644	22.070	12.187102	-56.117685	22.190	0.130	0.280	-0.100	22.070	-1.100	0.100																			1580065604.0	0.92	1.70
26/01/2020 19:06:45	26012020	260120	190645	22.090	12.187098	-56.117680	22.260	-0.040	0.130	0.790	22.120	-1.200	1.000																			1580065605.0	1.38	2.56
26/01/2020 19:06:46	26012020	260120	190646	22.270	12.187097	-56.117673	22.420	-0.130	-0.080	1.280	22.270	-1.500	1.600																			1580065606.0	1.34	2.48
26/01/2020 19:06:47	26012020	260120	190647	22.350	12.187097	-56.117668	22.500	-0.130	-0.040	1.470	22.350	-1.400	1.800																			1580065607.0	0.97	1.80
26/01/2020 19:06:48	26012020	260120	190648	22.300	12.187095	-56.117667	22.450	-0.080	0.090	1.420	22.290	-1.300	1.700																			1580065608.0	0.44	0.81
26/01/2020 19:06:49	26012020	260120	190649	22.240	12.187095	-56.117667	22.370	0.020	0.000	1.050	22.240	-1.400	1.400																			1580065609.0	0.19	0.35
26/01/2020 19:06:50	26012020	260120	190650	22.180	12.187095	-56.117670	22.300	0.060	-0.170	0.420	22.170	-1.600	0.800																			1580065610.0	0.58	1.07
26/01/2020 19:06:51	26012020	260120	190651	22.100	12.187098	-56.117673	22.210	-0.020	-0.140	-0.310	22.090	-1.500	0.100																			1580065611.0	1.08	2.00
26/01/2020 19:06:52	26012020	260120	190652	22.080	12.187100	-56.117680	22.210	-0.150	-0.010	-1.020	22.090	-1.400	-0.600																			1580065612.0	1.30	2.41
26/01/2020 19:06:53	26012020	260120	190653	22.190	12.187100	-56.117685	22.340	-0.220	-0.100	-1.560	22.230	-1.500	-1.200																			1580065613.0	1.21	2.24
26/01/2020 19:06:54	26012020	260120	190654	22.460	12.187102	-56.117690	22.610	-0.190	-0.420	-1.810	22.520	-1.800	-1.500																			1580065614.0	0.79	1.46
26/01/2020 19:06:55	26012020	260120	190655	22.760	12.187103	-56.117690	22.910	-0.050	-0.670	-1.590	22.820	-2.000	-1.300																			1580065615.0	0.37	0.69
26/01/2020 19:06:56	26012020	260120	190656	23.010	12.187103	-56.117688	23.120	0.120	-0.630	-0.950	23.010	-2.000	-0.700																			1580065616.0	0.52	0.96
26/01/2020 19:06:57	26012020	260120	190657	23.050	12.187103	-56.117683	23.180	0.250	-0.360	-0.080	23.040	-1.800	0.100																			1580065617.0	1.01	1.87
26/01/2020 19:06:58	26012020	260120	190658	22.890	12.187100	-56.117678	23.040	0.310	0.030	0.820	22.890	-1.400	1.000																			1580065618.0	1.25	2.31
26/01/2020 19:06:59	26012020	260120	190659	22.720	12.187098	-56.117673	22.850	0.320	0.320	1.510	22.690	-1.100	1.800	1013.70	26.50	26.40	21.20	21.20	556.00	72.00	73.00	384.00	30.40	71.00	4.10	98.00	4.00	38340	3405.00	27.80	27.90	1580065619.0	1.17	2.17
26/01/2020 19:07:00	26012020	260120	190700	22.640	12.187095	-56.117670	22.810	0.310	0.360	1.740	22.640	-1.000	2.100																			1580065620.0	0.82	1.52
26/01/2020 19:07:01	26012020	260120	190701	22.740	12.187095	-56.117668	22.930	0.190	0.280	1.490	22.770	-1.100	1.800																			1580065621.0	0.26	0.48
26/01/2020 19:07:02	26012020	260120	190702	22.920	12.187097	-56.117670	23.100	-0.090	0.230	0.860	22.960	-1.200	1.300																			1580065622.0	0.40	0.74
26/01/2020 19:07:03	26012020	260120	190703	23.080	12.187098	-56.117673	23.240	-0.430	0.160	0.030	23.100	-1.200	0.400																			1580065623.0	0.84	1.56
26/01/2020 19:07:04	26012020	260120	190704	23.150	12.187100	-56.117678	23.280	-0.680	-0.010	-0.710	23.160	-1.400	-0.300																			1580065624.0	1.08	2.00
26/01/2020 19:07:05	26012020	260120	190705	23.160	12.187100	-56.117683	23.280	-0.710	-0.310	-1.180	23.160	-1.700	-0.800																			1580065625.0	0.98	1.81
26/01/2020 19:07:06	26012020	260120	190706	23.190	12.187102	-56.117685	23.310	-0.460	-0.630	-1.390	23.200	-2.000	-1.100																			1580065626.0	0.63	1.17
26/01/2020 19:07:07	26012020	260120	190707	23.250	12.187102	-56.117687	23.360	-0.010	-0.830	-1.340	23.260	-2.200	-1.000																			1580065627.0	0.24	0.44
26/01/2020 19:07:08	26012020	260120	190708	23.290	12.187103	-56.117685	23.390	0.450	-0.830	-1.030	23.290	-2.200	-0.800																			1580065628.0	0.24	0.44
26/01/2020 19:07:09	26012020	260120	190709	23.300	12.187102	-56.117683	23.430	0.720	-0.610	-0.610	23.310	-2.000	-0.300																			1580065629.0	0.47	0.87
26/01/2020 19:07:10	26012020	260120	190710	23.360	12.187102	-56.117680	23.480	0.750	-0.190	-0.160	23.360	-1.600	0.100																			1580065630.0	0.53	0.98
26/01/2020 19:07:11	26012020	260120	190711	23.410	12.187100	-56.117678	23.560	0.530	0.260	0.260	23.420	-1.200	0.500																			1580065631.0	0.58	1.07
26/01/2020 19:07:12	26012020	260120	190712	23.520	12.187098	-56.117677	23.690	0.170	0.530	0.570	23.550	-0.900	0.900																			1580065632.0	0.49	0.91
26/01/2020 19:07:13	26012020	260120	190713	23.700	12.187098	-56.117675	23.890	-0.170	0.540	0.710	23.750	-0.800	1.000																			1580065633.0	0.23	0.43
26/01/2020 19:07:14	26012020	260120	190714	23.900	12.187098	-56.117675	24.080	-0.350	0.400	0.780	23.930	-1.000	1.100																			1580065634.0	0.07	0.13
26/01/2020 19:07:15	26012020	260120	190715	23.960	12.187098	-56.117675	24.080	-0.410	0.290	0.860	23.960	-1.100	1.200																			1580065635.0	0.13	0.24
26/01/2020 19:07:16	26012020	260120	190716	23.790	12.187098	-56.117673	23.930	-0.450	0.160	0.910	23.790	-1.200	1.200																			1580065636.0	0.30	0.56
26/01/2020 19:07:17	26012020	260120	190717	23.660	12.187097	-56.117673	23.790	-0.500	-0.140	0.800	23.640	-1.500	1.100																			1580065637.0	0.39	0.72
26/01/2020 19:07:18	26012020	260120	190718	23.620	12.187095	-56.117672	23.780	-0.500	-0.630	0.380	23.630	-2.000	0.800																			1580065638.0	0.16	0.30
26/01/2020 19:07:19	26012020	260120	190719	23.740	12.187097	-56.117673	23.920	-0.350	-1.060	-0.330	23.780	-2.400	0.100																			1580065639.0	0.44	0.81
26/01/2020 19:07:20	26012020	260120	190720	23.910	12.187100	-56.117678	24.060	0.050	-1.120	-1.010	23.940	-2.500	-0.600																			1580065640.0	1.04	1.93
26/01/2020 19:07:21	26012020	260120	190721	24.020	12.187102	-56.117682	24.130	0.580	-0.730	-1.300	24.030	-2.200	-1.000																			1580065641.0	1.06	1.96
26/01/2020 19:07:22	26012020	260120	190722	24.080	12.187102	-56.117685	24.220	0.950	-0.170	-1.240	24.100	-1.600	-0.900																			1580065642.0	0.55	1.02
26/01/2020 19:07:23	26012020	260120	190723	24.180	12.187102	-56.117685	24.310	0.910	0.250	-0.970	24.210	-1.200	-0.700																			1580065643.0	0.24	0.44
26/01/2020 19:07:24	26012020	260120	190724	24.300	12.187100	-56.117683	24.430	0.430	0.480	-0.590	24.320	-0.900	-0.300																			1580065644.0	0.44	0.81
26/01/2020 19:07:25	26012020	260120	190725	24.390	12.187100	-56.117682	24.510	-0.240	0.610	-0.060	24.400	-0.800	0.200																			1580065645.0	0.48	0.89
26/01/2020 19:07:26	26012020	260120	190726	24.470	12.187098	-56.117680	24.600	-0.690	0.640	0.530	24.490	-0.700	0.800																			1580065646.0	0.47	0.87
26/01/2020 19:07:27	26012020	260120	190727	24.590	12.187097	-56.117677	24.740	-0.710	0.320	1.040	24.610	-1.000	1.300																			1580065647.0	0.69	1.28
26/01/2020 19:07:28	26012020	260120	190728	24.650	12.187095	-56.117673	24.770	-0.410	-0.250	1.390	24.640	-1.600	1.700																			1580065648.0	0.84	1.56
26/01/2020 19:07:29	26012020	260120	190729	24.540	12.187095	-56.117668	24.630	-0.080	-0.690	1.570	24.510	-2.000	1.900																			1580065649.0	0.90	1.67
26/01/2020 19:07:30	26012020	260120	190730	24.350	12.187093	-56.117665	24.440	0.060	-0.780	1.400	24.310	-2.200	1.700																			1580065650.0	0.67	1.24
26/01/2020 19:07:31	26012020	260120	190731	24.180	12.187093	-56.117667	24.280	0.030	-0.540	0.840	24.150	-2.000	1.200																			1580065651.0	0.08	0.15
26/01/2020 19:07:32	26012020	260120	190732	24.070	12.187093	-56.117670	24.170	-0.010	-0.120	0.010	24.050	-1.500	0.400																			1580065652.0	0.98	1.81
26/01/2020 19:07:33	26012020	260120	190733	24.090	12.187095	-56.117678	24.220	0.060	0.070	-0.930	24.120	-1.300	-0.500																			1580065653.0	1.55	2.87
26/01/2020 19:07:34	26012020	260120	190734	24.440	12.187097	-56.117685	24.520	0.240	-0.150	-1.760	24.440	-1.500	-1.400																			1580065654.0	1.59	2.94
26/01/2020 19:07:35	26012020	260120	190735	24.770	12.187102	-56.117690	24.920	0.370	-0.420	-2.110	24.850	-1.800	-1.800																			1580065655.0	1.22	2.26
26/01/2020 19:07:36	26012020	260120	190736	25.050	12.187103	-56.117690	25.160	0.300	-0.360	-1.790	25.070	-1.800	-1.500																			1580065656.0	0.51	0.94
26/01/2020 19:07:37	26012020	260120	190737	25.040	12.187102	-56.117685	25.110	0.030	0.010	-0.890	25.010	-1.400	-0.700																			1580065657.0	0.85	1.57
26/01/2020 19:07:38	26012020	260120	190738	24.760	12.187098	-56.117680	24.880	-0.250	0.360	0.210	24.760	-1.000	0.400																			1580065658.0	1.51	2.80
26/01/2020 19:07:39	26012020	260120	190739	24.530	12.187093	-56.117675	24.610	-0.330	0.470	1.170	24.530	-0.900	1.400																			1580065659.0	1.54	2.85
26/01/2020 19:07:40	26012020	260120	190740	24.240	12.187092	-56.117670	24.370	-0.210	0.320	1.700	24.240	-1.000	2.000																			1580065660.0	1.00	1.85
26/01/2020 19:07:41	26012020	260120	190741	24.100	12.187090	-56.117668	24.220	-0.000	0.020	1.790	24.090	-1.300	2.100																			1580065661.0	0.32	0.59
26/01/2020 19:07:42	26012020	260120	190742	24.140	12.187092	-56.117670	24.280	0.140	-0.370	1.450	24.140	-1.700	1.800																			1580065662.0	0.19	0.35
26/01/2020 19:07:43	26012020	260120	190743	24.300	12.187093	-56.117672	24.470	0.140	-0.720	0.820	24.340	-2.100	1.200																			1580065663.0	0.47	0.87
26/01/2020 19:07:44	26012020	260120	190744	24.530	12.187095	-56.117673	24.690	0.020	-0.840	0.090	24.570	-2.200	0.500																			1580065664.0	0.58	1.07
26/01/2020 19:07:45	26012020	260120	190745	24.680	12.187097	-56.117675	24.780	-0.100	-0.590	-0.540	24.690	-2.000	-0.200																			1580065665.0	0.57	1.06
26/01/2020 19:07:46	26012020	260120	190746	24.600	12.187097	-56.117677	24.640	-0.170	-0.050	-0.900	24.550	-1.500	-0.600																			1580065666.0	0.49	0.91
26/01/2020 19:07:47	26012020	260120	190747	24.310	12.187095	-56.117680	24.330	-0.160	0.450	-0.960	24.240	-1.000	-0.600																			1580065667.0	0.55	1.02
26/01/2020 19:07:48	26012020	260120	190748	24.020	12.187095	-56.117682	24.070	-0.040	0.580	-0.870	23.980	-0.800	-0.600																			1580065668.0	0.53	0.98
26/01/2020 19:07:49	26012020	260120	190749	23.920	12.187093	-56.117683	24.030	0.170	0.280	-0.780	23.930	-1.100	-0.500																			1580065669.0	0.24	0.44
26/01/2020 19:07:50	26012020	260120	190750	24.040	12.187095	-56.117683	24.170	0.310	-0.230	-0.710	24.080	-1.600	-0.400																			1580065670.0	0.23	0.43
26/01/2020 19:07:51	26012020	260120	190751	24.220	12.187097	-56.117682	24.350	0.230	-0.600	-0.510	24.250	-1.900	-0.200																			1580065671.0	0.47	0.87
26/01/2020 19:07:52	26012020	260120	190752	24.350	12.187097	-56.117678	24.470	-0.020	-0.620	-0.140	24.360	-2.000	0.100																			1580065672.0	0.51	0.94
26/01/2020 19:07:53	26012020	260120	190753	24.330	12.187097	-56.117677	24.420	-0.240	-0.320	0.380	24.330	-1.700	0.600																			1580065673.0	0.53	0.98
26/01/2020 19:07:54	26012020	260120	190754	24.080	12.187093	-56.117673	24.140	-0.270	0.080	1.020	24.010	-1.300	1.300																			1580065674.0	0.74	1.37
26/01/2020 19:07:55	26012020	260120	190755	23.680	12.187090	-56.117672	23.760	-0.120	0.270	1.490	23.610	-1.100	1.800																			1580065675.0	0.90	1.67
26/01/2020 19:07:56	26012020	260120	190756	23.380	12.187088	-56.117668	23.490	0.080	0.140	1.480	23.350	-1.200	1.800																			1580065676.0	0.64	1.19
26/01/2020 19:07:57	26012020	260120	190757	23.250	12.187090	-56.117668	23.390	0.200	-0.180	0.960	23.250	-1.500	1.300																			1580065677.0	0.14	0.26
26/01/2020 19:07:58	26012020	260120	190758	23.290	12.187092	-56.117672	23.450	0.210	-0.460	0.090	23.320	-1.800	0.500																			1580065678.0	0.82	1.52
26/01/2020 19:07:59	26012020	260120	190759	23.490	12.187095	-56.117677	23.660	0.120	-0.500	-0.860	23.550	-1.900	-0.400	1013.70	26.40	26.30	21.10	21.10	540.00	72.00	73.00	384.00	30.40	67.00	4.10	95.00	4.00	37648	3416.00	27.80	27.90	1580065679.0	1.29	2.39
26/01/2020 19:08:00	26012020	260120	190800	23.750	12.187098	-56.117682	23.910	0.010	-0.260	-1.530	23.800	-1.700	-1.200																			1580065680.0	1.31	2.43
26/01/2020 19:08:01	26012020	260120	190801	23.890	12.187100	-56.117685	23.980	-0.120	0.150	-1.610	23.880	-1.300	-1.300																			1580065681.0	0.81	1.50
26/01/2020 19:08:02	26012020	260120	190802	23.720	12.187098	-56.117685	23.760	-0.250	0.500	-1.050	23.650	-0.900	-0.800																			1580065682.0	0.37	0.69
26/01/2020 19:08:03	26012020	260120	190803	23.330	12.187095	-56.117683	23.370	-0.350	0.480	-0.220	23.250	-0.900	0.000																			1580065683.0	0.97	1.80
26/01/2020 19:08:04	26012020	260120	190804	23.010	12.187092	-56.117678	23.150	-0.290	-0.030	0.430	23.010	-1.300	0.700																			1580065684.0	1.08	2.00
26/01/2020 19:08:05	26012020	260120	190805	23.010	12.187092	-56.117675	23.180	-0.030	-0.740	0.680	23.010	-2.100	1.000																			1580065685.0	0.80	1.48
26/01/2020 19:08:06	26012020	260120	190806	23.100	12.187093	-56.117672	23.280	0.300	-1.120	0.670	23.120	-2.500	1.000																			1580065686.0	0.69	1.28
26/01/2020 19:08:07	26012020	260120	190807	23.140	12.187097	-56.117672	23.310	0.460	-0.870	0.550	23.140	-2.300	0.900																			1580065687.0	0.45	0.83
26/01/2020 19:08:08	26012020	260120	190808	23.060	12.187097	-56.117672	23.180	0.380	-0.160	0.480	23.030	-1.600	0.800																			1580065688.0	0.14	0.26
26/01/2020 19:08:09	26012020	260120	190809	22.810	12.187093	-56.117673	22.920	0.150	0.530	0.450	22.750	-0.900	0.800																			1580065689.0	0.49	0.91
26/01/2020 19:08:10	26012020	260120	190810	22.540	12.187092	-56.117675	22.660	-0.050	0.750	0.290	22.500	-0.600	0.600																			1580065690.0	0.55	1.02
26/01/2020 19:08:11	26012020	260120	190811	22.450	12.187093	-56.117677	22.610	-0.110	0.380	-0.190	22.470	-0.900	0.200																			1580065691.0	0.44	0.81
26/01/2020 19:08:12	26012020	260120	190812	22.650	12.187095	-56.117680	22.770	-0.140	-0.180	-0.830	22.650	-1.500	-0.400																			1580065692.0	0.81	1.50
26/01/2020 19:08:13	26012020	260120	190813	22.810	12.187100	-56.117683	22.950	-0.240	-0.390	-1.270	22.840	-1.800	-0.900																			1580065693.0	1.00	1.85
26/01/2020 19:08:14	26012020	260120	190814	22.910	12.187100	-56.117685	23.030	-0.380	-0.190	-1.280	22.920	-1.600	-1.000																			1580065694.0	0.57	1.06
26/01/2020 19:08:15	26012020	260120	190815	22.880	12.187098	-56.117685	22.990	-0.360	0.020	-0.840	22.860	-1.400	-0.600																			1580065695.0	0.40	0.74
26/01/2020 19:08:16	26012020	260120	190816	22.710	12.187095	-56.117682	22.850	-0.120	-0.120	-0.170	22.710	-1.500	0.100																			1580065696.0	0.95	1.76
26/01/2020 19:08:17	26012020	260120	190817	22.560	12.187093	-56.117677	22.670	0.170	-0.540	0.390	22.520	-1.900	0.700																			1580065697.0	1.31	2.43
26/01/2020 19:08:18	26012020	260120	190818	22.360	12.187093	-56.117672	22.480	0.310	-0.770	0.680	22.320	-2.100	1.000																			1580065698.0	1.09	2.02
26/01/2020 19:08:19	26012020	260120	190819	22.180	12.187095	-56.117670	22.290	0.310	-0.580	0.650	22.150	-2.000	1.000																			1580065699.0	0.44	0.81
26/01/2020 19:08:20	26012020	260120	190820	22.080	12.187095	-56.117672	22.230	0.330	-0.200	0.290	22.080	-1.600	0.700																			1580065700.0	0.48	0.89
26/01/2020 19:08:21	26012020	260120	190821	22.130	12.187097	-56.117677	22.290	0.370	0.140	-0.200	22.140	-1.300	0.200																			1580065701.0	0.89	1.65
26/01/2020 19:08:22	26012020	260120	190822	22.190	12.187097	-56.117680	22.340	0.250	0.440	-0.550	22.200	-1.000	-0.200																			1580065702.0	0.86	1.59
26/01/2020 19:08:23	26012020	260120	190823	22.220	12.187098	-56.117683	22.350	-0.110	0.600	-0.720	22.230	-0.800	-0.400																			1580065703.0	0.56	1.04
26/01/2020 19:08:24	26012020	260120	190824	22.240	12.187097	-56.117683	22.370	-0.520	0.460	-0.730	22.240	-0.900	-0.400																			1580065704.0	0.32	0.59
26/01/2020 19:08:25	26012020	260120	190825	22.250	12.187097	-56.117685	22.400	-0.660	0.050	-0.580	22.260	-1.300	-0.300																			1580065705.0	0.08	0.15
26/01/2020 19:08:26	26012020	260120	190826	22.380	12.187098	-56.117683	22.530	-0.400	-0.560	-0.370	22.380	-1.900	-0.100																			1580065706.0	0.30	0.56
26/01/2020 19:08:27	26012020	260120	190827	22.520	12.187098	-56.117680	22.680	0.050	-1.000	-0.140	22.540	-2.400	0.100																			1580065707.0	0.69	1.28
26/01/2020 19:08:28	26012020	260120	190828	22.530	12.187098	-56.117677	22.640	0.330	-0.810	0.160	22.500	-2.300	0.400																			1580065708.0	0.84	1.56
26/01/2020 19:08:29	26012020	260120	190829	22.310	12.187097	-56.117673	22.370	0.260	-0.150	0.450	22.250	-1.600	0.700																			1580065709.0	0.76	1.41
26/01/2020 19:08:30	26012020	260120	190830	21.970	12.187093	-56.117672	22.110	0.050	0.400	0.520	21.970	-1.000	0.800																			1580065710.0	0.73	1.35
26/01/2020 19:08:31	26012020	260120	190831	21.850	12.187092	-56.117675	21.970	-0.020	0.420	0.270	21.830	-0.900	0.600																			1580065711.0	0.59	1.09
26/01/2020 19:08:32	26012020	260120	190832	21.820	12.187093	-56.117677	21.960	0.120	-0.020	-0.210	21.830	-1.400	0.200																			1580065712.0	0.69	1.28
26/01/2020 19:08:33	26012020	260120	190833	21.920	12.187097	-56.117680	22.070	0.290	-0.530	-0.740	21.950	-1.900	-0.400																			1580065713.0	0.99	1.83
26/01/2020 19:08:34	26012020	260120	190834	22.100	12.187100	-56.117683	22.250	0.280	-0.700	-1.100	22.140	-2.100	-0.800																			1580065714.0	0.97	1.80
26/01/2020 19:08:35	26012020	260120	190835	22.260	12.187102	-56.117683	22.380	0.100	-0.370	-1.060	22.280	-1.800	-0.800																			1580065715.0	0.55	1.02
26/01/2020 19:08:36	26012020	260120	190836	22.310	12.187102	-56.117683	22.420	-0.090	0.200	-0.660	22.310	-1.200	-0.400																			1580065716.0	0.19	0.35
26/01/2020 19:08:37	26012020	260120	190837	22.230	12.187098	-56.117682	22.330	-0.240	0.610	-0.120	22.210	-0.800	0.100																			1580065717.0	0.86	1.59
26/01/2020 19:08:38	26012020	260120	190838	22.100	12.187095	-56.117678	22.240	-0.370	0.580	0.230	22.100	-0.800	0.500																			1580065718.0	1.04	1.93
26/01/2020 19:08:39	26012020	260120	190839	22.080	12.187093	-56.117677	22.240	-0.400	0.130	0.370	22.090	-1.200	0.700																			1580065719.0	0.55	1.02
26/01/2020 19:08:40	26012020	260120	190840	22.210	12.187093	-56.117677	22.360	-0.230	-0.480	0.380	22.210	-1.800	0.700																			1580065720.0	0.20	0.37
26/01/2020 19:08:41	26012020	260120	190841	22.340	12.187097	-56.117677	22.520	0.120	-0.890	0.300	22.370	-2.300	0.600																			1580065721.0	0.52	0.96
26/01/2020 19:08:42	26012020	260120	190842	22.430	12.187098	-56.117678	22.590	0.460	-0.870	0.300	22.440	-2.300	0.600																			1580065722.0	0.44	0.81
26/01/2020 19:08:43	26012020	260120	190843	22.410	12.187098	-56.117677	22.550	0.540	-0.470	0.400	22.410	-1.900	0.700																			1580065723.0	0.14	0.26
26/01/2020 19:08:44	26012020	260120	190844	22.270	12.187097	-56.117675	22.400	0.300	0.080	0.480	22.230	-1.400	0.800																			1580065724.0	0.49	0.91
26/01/2020 19:08:45	26012020	260120	190845	22.120	12.187093	-56.117675	22.260	-0.070	0.420	0.320	22.100	-1.000	0.700																			1580065725.0	0.53	0.98
26/01/2020 19:08:46	26012020	260120	190846	22.050	12.187093	-56.117677	22.210	-0.300	0.410	-0.110	22.050	-1.000	0.300																			1580065726.0	0.33	0.61
26/01/2020 19:08:47	26012020	260120	190847	22.080	12.187095	-56.117680	22.240	-0.270	0.130	-0.690	22.100	-1.200	-0.300																			1580065727.0	0.71	1.31
26/01/2020 19:08:48	26012020	260120	190848	22.290	12.187097	-56.117683	22.410	-0.050	-0.210	-1.200	22.290	-1.600	-0.800																			1580065728.0	1.04	1.93
26/01/2020 19:08:49	26012020	260120	190849	22.500	12.187100	-56.117687	22.670	0.150	-0.410	-1.430	22.550	-1.800	-1.100																			1580065729.0	0.88	1.63
26/01/2020 19:08:50	26012020	260120	190850	22.720	12.187102	-56.117687	22.840	0.130	-0.340	-1.260	22.720	-1.800	-1.000																			1580065730.0	0.32	0.59
26/01/2020 19:08:51	26012020	260120	190851	22.730	12.187100	-56.117685	22.850	-0.130	-0.120	-0.770	22.720	-1.500	-0.500																			1580065731.0	0.43	0.80
26/01/2020 19:08:52	26012020	260120	190852	22.630	12.187097	-56.117683	22.770	-0.380	0.050	-0.130	22.630	-1.400	0.100																			1580065732.0	0.83	1.54
26/01/2020 19:08:53	26012020	260120	190853	22.570	12.187095	-56.117680	22.710	-0.340	0.010	0.460	22.560	-1.400	0.700																			1580065733.0	0.83	1.54
26/01/2020 19:08:54	26012020	260120	190854	22.530	12.187093	-56.117677	22.690	0.030	-0.230	0.880	22.520	-1.600	1.100																			1580065734.0	0.65	1.20
26/01/2020 19:08:55	26012020	260120	190855	22.510	12.187093	-56.117675	22.680	0.490	-0.480	1.080	22.510	-1.900	1.400																			1580065735.0	0.48	0.89
26/01/2020 19:08:56	26012020	260120	190856	22.480	12.187095	-56.117673	22.650	0.700	-0.470	1.030	22.460	-1.900	1.400																			1580065736.0	0.39	0.72
26/01/2020 19:08:57	26012020	260120	190857	22.380	12.187095	-56.117673	22.550	0.480	-0.140	0.750	22.370	-1.600	1.100																			1580065737.0	0.14	0.26
26/01/2020 19:08:58	26012020	260120	190858	22.400	12.187095	-56.117675	22.590	-0.020	0.250	0.190	22.430	-1.200	0.600																			1580065738.0	0.39	0.72
26/01/2020 19:08:59	26012020	260120	190859	22.640	12.187093	-56.117678	22.840	-0.480	0.370	-0.500	22.700	-1.000	-0.100	1013.60	26.30	26.30	20.90	20.90	533.00	72.00	72.00	384.00	30.40	70.00	5.00	96.00	4.90	37172	3429.00	27.80	27.90	1580065739.0	0.75	1.39
26/01/2020 19:09:00	26012020	260120	190900	22.940	12.187095	-56.117682	23.120	-0.610	0.190	-1.060	22.990	-1.200	-0.700																			1580065740.0	0.84	1.56
26/01/2020 19:09:01	26012020	260120	190901	23.130	12.187097	-56.117685	23.250	-0.390	-0.130	-1.320	23.140	-1.500	-1.000																			1580065741.0	0.64	1.19
26/01/2020 19:09:02	26012020	260120	190902	23.090	12.187098	-56.117685	23.170	-0.000	-0.430	-1.220	23.060	-1.800	-0.900																			1580065742.0	0.31	0.57
26/01/2020 19:09:03	26012020	260120	190903	22.910	12.187098	-56.117685	22.990	0.310	-0.590	-0.830	22.880	-2.000	-0.600																			1580065743.0	0.30	0.56
26/01/2020 19:09:04	26012020	260120	190904	22.820	12.187098	-56.117682	22.960	0.440	-0.550	-0.360	22.820	-2.000	-0.100																			1580065744.0	0.48	0.89
26/01/2020 19:09:05	26012020	260120	190905	22.870	12.187097	-56.117680	23.030	0.370	-0.250	0.110	22.880	-1.700	0.400																			1580065745.0	0.56	1.04
26/01/2020 19:09:06	26012020	260120	190906	22.940	12.187095	-56.117678	23.120	0.130	0.210	0.460	22.960	-1.200	0.700																			1580065746.0	0.57	1.06
26/01/2020 19:09:07	26012020	260120	190907	23.020	12.187093	-56.117677	23.210	-0.220	0.560	0.600	23.040	-0.800	0.900																			1580065747.0	0.57	1.06
26/01/2020 19:09:08	26012020	260120	190908	23.110	12.187092	-56.117677	23.300	-0.500	0.530	0.580	23.130	-0.800	0.900																			1580065748.0	0.47	0.87
26/01/2020 19:09:09	26012020	260120	190909	23.190	12.187090	-56.117677	23.340	-0.520	0.080	0.450	23.200	-1.200	0.800																			1580065749.0	0.17	0.31
26/01/2020 19:09:10	26012020	260120	190910	23.240	12.187092	-56.117677	23.380	-0.210	-0.560	0.270	23.250	-1.900	0.600																			1580065750.0	0.30	0.56
26/01/2020 19:09:11	26012020	260120	190911	23.260	12.187093	-56.117677	23.390	0.270	-0.950	0.120	23.260	-2.300	0.400																			1580065751.0	0.50	0.93
26/01/2020 19:09:12	26012020	260120	190912	23.230	12.187095	-56.117677	23.330	0.610	-0.860	-0.020	23.210	-2.300	0.300																			1580065752.0	0.36	0.67
26/01/2020 19:09:13	26012020	260120	190913	23.190	12.187095	-56.117677	23.310	0.600	-0.400	-0.220	23.190	-1.800	0.100																			1580065753.0	0.05	0.09
26/01/2020 19:09:14	26012020	260120	190914	23.240	12.187095	-56.117678	23.380	0.310	0.150	-0.440	23.260	-1.300	-0.100																			1580065754.0	0.36	0.67
26/01/2020 19:09:15	26012020	260120	190915	23.400	12.187093	-56.117680	23.550	-0.030	0.420	-0.610	23.430	-1.000	-0.300																			1580065755.0	0.46	0.85
26/01/2020 19:09:16	26012020	260120	190916	23.650	12.187093	-56.117682	23.770	-0.270	0.300	-0.710	23.650	-1.000	-0.400																			1580065756.0	0.21	0.39
26/01/2020 19:09:17	26012020	260120	190917	23.800	12.187095	-56.117682	23.920	-0.370	0.020	-0.670	23.820	-1.300	-0.400																			1580065757.0	0.21	0.39
26/01/2020 19:09:18	26012020	260120	190918	23.800	12.187095	-56.117680	23.880	-0.370	-0.080	-0.400	23.780	-1.500	-0.100																			1580065758.0	0.34	0.63
26/01/2020 19:09:19	26012020	260120	190919	23.620	12.187095	-56.117678	23.690	-0.260	0.030	0.090	23.620	-1.400	0.300																			1580065759.0	0.37	0.69
26/01/2020 19:09:20	26012020	260120	190920	23.370	12.187093	-56.117677	23.450	-0.060	0.080	0.550	23.330	-1.300	0.800																			1580065760.0	0.62	1.15
26/01/2020 19:09:21	26012020	260120	190921	23.240	12.187090	-56.117675	23.380	0.180	-0.160	0.760	23.240	-1.500	1.100																			1580065761.0	0.60	1.11
26/01/2020 19:09:22	26012020	260120	190922	23.340	12.187090	-56.117673	23.520	0.320	-0.530	0.590	23.380	-1.900	0.900																			1580065762.0	0.27	0.50
26/01/2020 19:09:23	26012020	260120	190923	23.590	12.187092	-56.117673	23.770	0.250	-0.650	0.130	23.640	-2.000	0.500																			1580065763.0	0.36	0.67
26/01/2020 19:09:24	26012020	260120	190924	23.850	12.187093	-56.117677	24.000	0.010	-0.380	-0.370	23.890	-1.800	0.000																			1580065764.0	0.64	1.19
26/01/2020 19:09:25	26012020	260120	190925	23.990	12.187093	-56.117680	24.120	-0.180	0.070	-0.570	24.000	-1.400	-0.200																			1580065765.0	0.75	1.39
26/01/2020 19:09:26	26012020	260120	190926	23.970	12.187093	-56.117682	24.080	-0.160	0.290	-0.370	23.970	-1.100	-0.100																			1580065766.0	0.50	0.93
26/01/2020 19:09:27	26012020	260120	190927	23.910	12.187090	-56.117680	24.020	0.020	0.010	-0.070	23.900	-1.300	0.200																			1580065767.0	0.50	0.93
26/01/2020 19:09:28	26012020	260120	190928	23.870	12.187090	-56.117677	23.980	0.200	-0.500	0.090	23.870	-1.800	0.400																			1580065768.0	0.80	1.48
26/01/2020 19:09:29	26012020	260120	190929	23.840	12.187092	-56.117673	23.940	0.270	-0.690	0.130	23.830	-2.100	0.400																			1580065769.0	0.81	1.50
26/01/2020 19:09:30	26012020	260120	190930	23.810	12.187093	-56.117672	23.920	0.170	-0.350	0.030	23.800	-1.800	0.400																			1580065770.0	0.40	0.74
26/01/2020 19:09:31	26012020	260120	190931	23.800	12.187093	-56.117673	23.910	0.000	0.250	-0.160	23.800	-1.200	0.200																			1580065771.0	0.33	0.61
26/01/2020 19:09:32	26012020	260120	190932	23.870	12.187092	-56.117677	23.980	-0.110	0.640	-0.350	23.870	-0.800	-0.000																			1580065772.0	0.76	1.41
26/01/2020 19:09:33	26012020	260120	190933	23.930	12.187092	-56.117678	24.040	-0.120	0.610	-0.420	23.940	-0.800	-0.100																			1580065773.0	0.62	1.15
26/01/2020 19:09:34	26012020	260120	190934	23.970	12.187092	-56.117680	24.070	-0.140	0.210	-0.350	23.980	-1.100	-0.000																			1580065774.0	0.10	0.19
26/01/2020 19:09:35	26012020	260120	190935	23.990	12.187092	-56.117678	24.080	-0.220	-0.350	-0.210	23.990	-1.700	0.100																			1580065775.0	0.35	0.65
26/01/2020 19:09:36	26012020	260120	190936	24.030	12.187092	-56.117675	24.130	-0.280	-0.780	-0.070	24.040	-2.100	0.200																			1580065776.0	0.46	0.85
26/01/2020 19:09:37	26012020	260120	190937	24.080	12.187093	-56.117675	24.170	-0.190	-0.810	0.120	24.090	-2.200	0.400																			1580065777.0	0.33	0.61
26/01/2020 19:09:38	26012020	260120	190938	24.060	12.187092	-56.117673	24.150	0.040	-0.510	0.360	24.060	-1.900	0.600																			1580065778.0	0.21	0.39
26/01/2020 19:09:39	26012020	260120	190939	24.040	12.187090	-56.117673	24.130	0.290	-0.160	0.450	24.030	-1.600	0.800																			1580065779.0	0.41	0.76
26/01/2020 19:09:40	26012020	260120	190940	24.080	12.187088	-56.117672	24.160	0.350	0.020	0.310	24.080	-1.400	0.600																			1580065780.0	0.41	0.76
26/01/2020 19:09:41	26012020	260120	190941	24.140	12.187088	-56.117672	24.240	0.180	0.090	0.070	24.150	-1.300	0.400																			1580065781.0	0.10	0.19
26/01/2020 19:09:42	26012020	260120	190942	24.190	12.187088	-56.117672	24.280	-0.100	0.150	-0.150	24.200	-1.200	0.200																			1580065782.0	0.19	0.35
26/01/2020 19:09:43	26012020	260120	190943	24.180	12.187090	-56.117673	24.270	-0.220	0.170	-0.360	24.170	-1.200	-0.000																			1580065783.0	0.39	0.72
26/01/2020 19:09:44	26012020	260120	190944	24.090	12.187090	-56.117675	24.180	-0.090	0.050	-0.470	24.090	-1.300	-0.100																			1580065784.0	0.47	0.87
26/01/2020 19:09:45	26012020	260120	190945	24.020	12.187092	-56.117677	24.100	0.170	-0.250	-0.450	24.020	-1.600	-0.100																			1580065785.0	0.30	0.56
26/01/2020 19:09:46	26012020	260120	190946	24.050	12.187093	-56.117677	24.140	0.340	-0.510	-0.400	24.050	-1.900	-0.100																			1580065786.0	0.28	0.52
26/01/2020 19:09:47	26012020	260120	190947	24.180	12.187093	-56.117675	24.300	0.260	-0.480	-0.330	24.180	-1.900	-0.000																			1580065787.0	0.34	0.63
26/01/2020 19:09:48	26012020	260120	190948	24.330	12.187093	-56.117673	24.450	-0.040	-0.140	-0.220	24.360	-1.600	0.100																			1580065788.0	0.33	0.61
26/01/2020 19:09:49	26012020	260120	190949	24.400	12.187092	-56.117673	24.490	-0.390	0.310	-0.010	24.380	-1.100	0.300																			1580065789.0	0.48	0.89
26/01/2020 19:09:50	26012020	260120	190950	24.240	12.187088	-56.117672	24.320	-0.630	0.580	0.270	24.240	-0.800	0.600																			1580065790.0	0.57	1.06
26/01/2020 19:09:51	26012020	260120	190951	24.080	12.187087	-56.117672	24.140	-0.570	0.440	0.480	24.040	-0.900	0.800																			1580065791.0	0.47	0.87
26/01/2020 19:09:52	26012020	260120	190952	23.980	12.187087	-56.117672	24.090	-0.200	-0.110	0.480	23.980	-1.400	0.800																			1580065792.0	0.15	0.28
26/01/2020 19:09:53	26012020	260120	190953	24.080	12.187087	-56.117670	24.200	0.270	-0.800	0.250	24.120	-2.100	0.600																			1580065793.0	0.32	0.59
26/01/2020 19:09:54	26012020	260120	190954	24.350	12.187090	-56.117670	24.420	0.550	-1.170	-0.090	24.350	-2.500	0.300																			1580065794.0	0.56	1.04
26/01/2020 19:09:55	26012020	260120	190955	24.480	12.187092	-56.117670	24.560	0.510	-0.990	-0.390	24.510	-2.400	-0.000																			1580065795.0	0.45	0.83
26/01/2020 19:09:56	26012020	260120	190956	24.460	12.187092	-56.117672	24.520	0.270	-0.340	-0.480	24.460	-1.800	-0.200																			1580065796.0	0.25	0.46
26/01/2020 19:09:57	26012020	260120	190957	24.290	12.187092	-56.117672	24.300	0.050	0.370	-0.340	24.240	-1.100	-0.000																			1580065797.0	0.41	0.76
26/01/2020 19:09:58	26012020	260120	190958	24.030	12.187090	-56.117673	24.100	-0.060	0.740	-0.100	24.030	-0.700	0.200																			1580065798.0	0.45	0.83
26/01/2020 19:09:59	26012020	260120	190959	23.910	12.187088	-56.117673	23.970	-0.100	0.740	0.080	23.890	-0.600	0.400	1013.60	26.30	26.20	20.80	20.90	519.00	71.00	72.00	383.00	30.30	67.00	4.60	92.00	4.60	36531	3406.00	27.80	27.90	1580065799.0	0.24	0.44
26/01/2020 19:10:00	26012020	260120	191000	23.830	12.187088	-56.117672	23.920	-0.140	0.490	0.120	23.830	-0.900	0.400																			1580065800.0	0.14	0.26
26/01/2020 19:10:01	26012020	260120	191001	23.940	12.187088	-56.117672	24.080	-0.200	0.040	-0.020	23.980	-1.300	0.300																			1580065801.0	0.11	0.20
26/01/2020 19:10:02	26012020	260120	191002	24.240	12.187088	-56.117672	24.370	-0.220	-0.490	-0.210	24.300	-1.800	0.100																			1580065802.0	0.16	0.30
26/01/2020 19:10:03	26012020	260120	191003	24.460	12.187090	-56.117672	24.550	-0.170	-0.820	-0.260	24.470	-2.200	0.100																			1580065803.0	0.24	0.44
26/01/2020 19:10:04	26012020	260120	191004	24.440	12.187090	-56.117670	24.500	-0.090	-0.790	-0.090	24.410	-2.200	0.200																			1580065804.0	0.26	0.48
26/01/2020 19:10:05	26012020	260120	191005	24.270	12.187090	-56.117668	24.310	-0.020	-0.520	0.160	24.230	-1.900	0.400																			1580065805.0	0.44	0.81
26/01/2020 19:10:06	26012020	260120	191006	24.020	12.187088	-56.117667	24.110	0.050	-0.200	0.360	24.020	-1.600	0.700																			1580065806.0	0.46	0.85
26/01/2020 19:10:07	26012020	260120	191007	23.830	12.187087	-56.117667	23.870	0.120	0.070	0.490	23.790	-1.300	0.800																			1580065807.0	0.28	0.52
26/01/2020 19:10:08	26012020	260120	191008	23.640	12.187087	-56.117667	23.700	0.230	0.150	0.350	23.620	-1.200	0.700																			1580065808.0	0.08	0.15
26/01/2020 19:10:09	26012020	260120	191009	23.580	12.187087	-56.117668	23.670	0.310	0.030	-0.060	23.590	-1.300	0.300																			1580065809.0	0.34	0.63
26/01/2020 19:10:10	26012020	260120	191010	23.680	12.187090	-56.117670	23.790	0.320	-0.120	-0.580	23.710	-1.500	-0.200																			1580065810.0	0.69	1.28
26/01/2020 19:10:11	26012020	260120	191011	23.870	12.187092	-56.117673	23.970	0.190	-0.100	-0.960	23.910	-1.500	-0.600																			1580065811.0	0.77	1.43
26/01/2020 19:10:12	26012020	260120	191012	24.010	12.187093	-56.117675	24.080	-0.050	0.110	-0.970	24.020	-1.300	-0.700																			1580065812.0	0.46	0.85
26/01/2020 19:10:13	26012020	260120	191013	24.010	12.187092	-56.117675	24.050	-0.360	0.300	-0.620	23.990	-1.100	-0.300																			1580065813.0	0.21	0.39
26/01/2020 19:10:14	26012020	260120	191014	23.880	12.187090	-56.117673	23.950	-0.610	0.300	-0.080	23.860	-1.100	0.200																			1580065814.0	0.63	1.17
26/01/2020 19:10:15	26012020	260120	191015	23.740	12.187087	-56.117670	23.810	-0.640	0.070	0.410	23.710	-1.300	0.700																			1580065815.0	0.82	1.52
26/01/2020 19:10:16	26012020	260120	191016	23.600	12.187085	-56.117667	23.690	-0.390	-0.330	0.770	23.580	-1.700	1.000																			1580065816.0	0.83	1.54
26/01/2020 19:10:17	26012020	260120	191017	23.460	12.187085	-56.117663	23.550	0.030	-0.730	0.920	23.430	-2.100	1.200																			1580065817.0	0.74	1.37
26/01/2020 19:10:18	26012020	260120	191018	23.340	12.187085	-56.117660	23.440	0.440	-0.950	0.820	23.330	-2.300	1.200																			1580065818.0	0.45	0.83
26/01/2020 19:10:19	26012020	260120	191019	23.310	12.187087	-56.117662	23.440	0.710	-0.890	0.410	23.310	-2.300	0.800																			1580065819.0	0.33	0.61
26/01/2020 19:10:20	26012020	260120	191020	23.310	12.187090	-56.117663	23.420	0.740	-0.510	-0.170	23.310	-1.900	0.200																			1580065820.0	0.76	1.41
26/01/2020 19:10:21	26012020	260120	191021	23.270	12.187092	-56.117668	23.350	0.510	0.180	-0.630	23.260	-1.300	-0.300																			1580065821.0	1.03	1.91
26/01/2020 19:10:22	26012020	260120	191022	23.200	12.187092	-56.117672	23.280	0.070	0.880	-0.790	23.200	-0.600	-0.500																			1580065822.0	0.89	1.65
26/01/2020 19:10:23	26012020	260120	191023	23.180	12.187090	-56.117675	23.280	-0.420	1.160	-0.710	23.180	-0.200	-0.400																			1580065823.0	0.59	1.09
26/01/2020 19:10:24	26012020	260120	191024	23.240	12.187088	-56.117675	23.360	-0.760	0.710	-0.520	23.260	-0.600	-0.200																			1580065824.0	0.42	0.78
26/01/2020 19:10:25	26012020	260120	191025	23.360	12.187088	-56.117672	23.490	-0.800	-0.240	-0.320	23.380	-1.500	-0.000																			1580065825.0	0.58	1.07
26/01/2020 19:10:26	26012020	260120	191026	23.440	12.187090	-56.117668	23.550	-0.520	-0.990	-0.020	23.440	-2.300	0.300																			1580065826.0	0.86	1.59
26/01/2020 19:10:27	26012020	260120	191027	23.360	12.187092	-56.117665	23.440	-0.080	-1.070	0.420	23.320	-2.500	0.700																			1580065827.0	0.81	1.50
26/01/2020 19:10:28	26012020	260120	191028	23.040	12.187090	-56.117662	23.150	0.330	-0.660	0.770	23.040	-2.100	1.100																			1580065828.0	0.69	1.28
26/01/2020 19:10:29	26012020	260120	191029	22.760	12.187087	-56.117660	22.810	0.530	-0.160	0.890	22.690	-1.600	1.200																			1580065829.0	0.62	1.15
26/01/2020 19:10:30	26012020	260120	191030	22.430	12.187085	-56.117660	22.500	0.520	0.220	0.760	22.380	-1.200	1.100																			1580065830.0	0.40	0.74
26/01/2020 19:10:31	26012020	260120	191031	22.280	12.187085	-56.117663	22.420	0.360	0.270	0.280	22.300	-1.100	0.700																			1580065831.0	0.47	0.87
26/01/2020 19:10:32	26012020	260120	191032	22.570	12.187087	-56.117667	22.680	0.170	-0.030	-0.530	22.570	-1.400	-0.100																			1580065832.0	0.89	1.65
26/01/2020 19:10:33	26012020	260120	191033	22.890	12.187090	-56.117672	23.080	-0.020	-0.350	-1.280	22.970	-1.700	-0.900																			1580065833.0	1.29	2.39
26/01/2020 19:10:34	26012020	260120	191034	23.230	12.187095	-56.117675	23.320	-0.210	-0.320	-1.570	23.230	-1.700	-1.200																			1580065834.0	1.07	1.98
26/01/2020 19:10:35	26012020	260120	191035	23.270	12.187095	-56.117675	23.370	-0.390	-0.030	-1.230	23.270	-1.400	-1.000																			1580065835.0	0.20	0.37
26/01/2020 19:10:36	26012020	260120	191036	23.190	12.187093	-56.117673	23.260	-0.430	0.160	-0.450	23.150	-1.200	-0.200																			1580065836.0	0.72	1.33
26/01/2020 19:10:37	26012020	260120	191037	22.960	12.187090	-56.117668	23.030	-0.220	0.070	0.470	22.960	-1.300	0.700																			1580065837.0	1.23	2.28
26/01/2020 19:10:38	26012020	260120	191038	22.620	12.187087	-56.117662	22.700	0.160	-0.160	1.250	22.560	-1.500	1.500																			1580065838.0	1.37	2.54
26/01/2020 19:10:39	26012020	260120	191039	22.290	12.187087	-56.117657	22.400	0.450	-0.350	1.580	22.240	-1.700	1.900																			1580065839.0	1.21	2.24
26/01/2020 19:10:40	26012020	260120	191040	22.060	12.187087	-56.117653	22.220	0.400	-0.290	1.320	22.060	-1.700	1.700																			1580065840.0	0.58	1.07
26/01/2020 19:10:41	26012020	260120	191041	22.070	12.187087	-56.117657	22.240	0.020	-0.020	0.520	22.100	-1.400	0.900																			1580065841.0	0.47	0.87
26/01/2020 19:10:42	26012020	260120	191042	22.350	12.187088	-56.117663	22.450	-0.370	0.150	-0.540	22.350	-1.200	-0.100																			1580065842.0	1.47	2.72
26/01/2020 19:10:43	26012020	260120	191043	22.590	12.187090	-56.117672	22.740	-0.460	0.050	-1.360	22.650	-1.300	-1.000																			1580065843.0	1.84	3.41
26/01/2020 19:10:44	26012020	260120	191044	22.880	12.187093	-56.117677	22.970	-0.240	-0.180	-1.640	22.880	-1.500	-1.300																			1580065844.0	1.33	2.46
26/01/2020 19:10:45	26012020	260120	191045	22.950	12.187095	-56.117678	23.050	0.080	-0.360	-1.350	22.930	-1.700	-1.100																			1580065845.0	0.33	0.61
26/01/2020 19:10:46	26012020	260120	191046	22.810	12.187093	-56.117675	22.880	0.290	-0.430	-0.590	22.760	-1.800	-0.400																			1580065846.0	0.74	1.37
26/01/2020 19:10:47	26012020	260120	191047	22.540	12.187092	-56.117668	22.620	0.360	-0.440	0.300	22.480	-1.800	0.500																			1580065847.0	1.31	2.43
26/01/2020 19:10:48	26012020	260120	191048	22.300	12.187090	-56.117663	22.450	0.360	-0.400	0.930	22.300	-1.800	1.200																			1580065848.0	1.31	2.43
26/01/2020 19:10:49	26012020	260120	191049	22.190	12.187090	-56.117658	22.330	0.290	-0.220	1.210	22.170	-1.600	1.500																			1580065849.0	0.80	1.48
26/01/2020 19:10:50	26012020	260120	191050	22.130	12.187090	-56.117658	22.270	0.170	0.110	1.100	22.130	-1.300	1.400																			1580065850.0	0.13	0.24
26/01/2020 19:10:51	26012020	260120	191051	22.170	12.187090	-56.117660	22.320	0.010	0.370	0.680	22.180	-1.000	1.100																			1580065851.0	0.41	0.76
26/01/2020 19:10:52	26012020	260120	191052	22.300	12.187090	-56.117663	22.460	-0.220	0.380	0.120	22.330	-1.000	0.500																			1580065852.0	0.57	1.06
26/01/2020 19:10:53	26012020	260120	191053	22.410	12.187090	-56.117665	22.540	-0.490	0.260	-0.340	22.410	-1.100	0.000																			1580065853.0	0.54	1.00
26/01/2020 19:10:54	26012020	260120	191054	22.370	12.187092	-56.117667	22.450	-0.670	0.150	-0.570	22.340	-1.200	-0.200																			1580065854.0	0.52	0.96
26/01/2020 19:10:55	26012020	260120	191055	22.200	12.187092	-56.117670	22.270	-0.550	-0.040	-0.670	22.160	-1.400	-0.300																			1580065855.0	0.49	0.91
26/01/2020 19:10:56	26012020	260120	191056	22.050	12.187092	-56.117672	22.150	-0.110	-0.420	-0.750	22.030	-1.800	-0.400																			1580065856.0	0.37	0.69
26/01/2020 19:10:57	26012020	260120	191057	22.030	12.187093	-56.117672	22.140	0.400	-0.870	-0.730	22.040	-2.200	-0.400																			1580065857.0	0.21	0.39
26/01/2020 19:10:58	26012020	260120	191058	22.100	12.187095	-56.117670	22.260	0.650	-1.040	-0.540	22.130	-2.400	-0.300																			1580065858.0	0.41	0.76
26/01/2020 19:10:59	26012020	260120	191059	22.190	12.187095	-56.117668	22.330	0.520	-0.750	-0.310	22.190	-2.200	-0.000	1013.60	26.30	26.20	20.80	20.80	533.00	71.00	72.00	383.00	30.30	71.00	4.70	97.00	4.60	36866	3450.00	27.80	27.90	1580065859.0	0.44	0.81
26/01/2020 19:11:00	26012020	260120	191100	22.250	12.187095	-56.117668	22.370	0.200	-0.150	-0.100	22.250	-1.600	0.200																			1580065860.0	0.21	0.39
26/01/2020 19:11:01	26012020	260120	191101	22.230	12.187093	-56.117668	22.330	-0.050	0.410	0.190	22.230	-1.000	0.500																			1580065861.0	0.28	0.52
26/01/2020 19:11:02	26012020	260120	191102	22.090	12.187092	-56.117668	22.190	-0.130	0.720	0.590	22.060	-0.700	0.900																			1580065862.0	0.30	0.56
26/01/2020 19:11:03	26012020	260120	191103	21.920	12.187092	-56.117667	22.050	-0.120	0.680	0.900	21.910	-0.700	1.200																			1580065863.0	0.41	0.76
26/01/2020 19:11:04	26012020	260120	191104	21.900	12.187090	-56.117663	22.060	-0.130	0.260	0.900	21.920	-1.100	1.200																			1580065864.0	0.49	0.91
26/01/2020 19:11:05	26012020	260120	191105	22.010	12.187092	-56.117662	22.160	-0.200	-0.230	0.590	22.030	-1.600	0.900																			1580065865.0	0.38	0.70
26/01/2020 19:11:06	26012020	260120	191106	22.070	12.187093	-56.117663	22.180	-0.290	-0.450	0.130	22.060	-1.800	0.500																			1580065866.0	0.40	0.74
26/01/2020 19:11:07	26012020	260120	191107	21.980	12.187095	-56.117667	22.070	-0.250	-0.380	-0.230	21.950	-1.800	0.100																			1580065867.0	0.70	1.30
26/01/2020 19:11:08	26012020	260120	191108	21.860	12.187095	-56.117670	21.960	-0.020	-0.350	-0.500	21.850	-1.700	-0.100																			1580065868.0	0.78	1.44
26/01/2020 19:11:09	26012020	260120	191109	21.890	12.187095	-56.117672	22.030	0.280	-0.530	-0.760	21.920	-1.900	-0.400																			1580065869.0	0.54	1.00
26/01/2020 19:11:10	26012020	260120	191110	22.050	12.187097	-56.117673	22.190	0.380	-0.610	-0.920	22.080	-2.000	-0.600																			1580065870.0	0.36	0.67
26/01/2020 19:11:11	26012020	260120	191111	22.180	12.187098	-56.117673	22.310	0.190	-0.340	-0.850	22.180	-1.800	-0.600																			1580065871.0	0.26	0.48
26/01/2020 19:11:12	26012020	260120	191112	22.230	12.187097	-56.117673	22.360	-0.130	0.090	-0.620	22.230	-1.300	-0.300																			1580065872.0	0.13	0.24
26/01/2020 19:11:13	26012020	260120	191113	22.220	12.187095	-56.117672	22.350	-0.310	0.390	-0.310	22.220	-1.000	-0.000																			1580065873.0	0.34	0.63
26/01/2020 19:11:14	26012020	260120	191114	22.130	12.187095	-56.117672	22.240	-0.250	0.440	0.100	22.100	-0.900	0.400																			1580065874.0	0.29	0.54
26/01/2020 19:11:15	26012020	260120	191115	21.990	12.187093	-56.117670	22.110	-0.030	0.200	0.530	21.970	-1.200	0.800																			1580065875.0	0.33	0.61
26/01/2020 19:11:16	26012020	260120	191116	21.920	12.187095	-56.117668	22.070	0.180	-0.210	0.790	21.920	-1.600	1.100																			1580065876.0	0.45	0.83
26/01/2020 19:11:17	26012020	260120	191117	21.990	12.187095	-56.117667	22.190	0.250	-0.520	0.740	22.030	-1.900	1.100																			1580065877.0	0.45	0.83
26/01/2020 19:11:18	26012020	260120	191118	22.270	12.187097	-56.117665	22.430	0.170	-0.550	0.400	22.270	-1.900	0.800																			1580065878.0	0.25	0.46
26/01/2020 19:11:19	26012020	260120	191119	22.500	12.187097	-56.117667	22.680	0.020	-0.300	-0.020	22.550	-1.700	0.300																			1580065879.0	0.21	0.39
26/01/2020 19:11:20	26012020	260120	191120	22.700	12.187097	-56.117668	22.830	-0.120	0.030	-0.340	22.710	-1.400	0.000																			1580065880.0	0.39	0.72
26/01/2020 19:11:21	26012020	260120	191121	22.680	12.187095	-56.117670	22.750	-0.190	0.220	-0.430	22.650	-1.200	-0.100																			1580065881.0	0.41	0.76
26/01/2020 19:11:22	26012020	260120	191122	22.480	12.187095	-56.117672	22.540	-0.140	0.140	-0.380	22.430	-1.200	-0.100																			1580065882.0	0.26	0.48
26/01/2020 19:11:23	26012020	260120	191123	22.300	12.187095	-56.117672	22.380	-0.010	-0.140	-0.370	22.280	-1.500	-0.000																			1580065883.0	0.20	0.37
26/01/2020 19:11:24	26012020	260120	191124	22.270	12.187097	-56.117673	22.400	0.140	-0.460	-0.420	22.290	-1.800	-0.100																			1580065884.0	0.37	0.69
26/01/2020 19:11:25	26012020	260120	191125	22.410	12.187100	-56.117673	22.560	0.190	-0.560	-0.490	22.410	-1.900	-0.200																			1580065885.0	0.40	0.74
26/01/2020 19:11:26	26012020	260120	191126	22.620	12.187100	-56.117673	22.770	0.050	-0.270	-0.500	22.670	-1.700	-0.200																			1580065886.0	0.19	0.35
26/01/2020 19:11:27	26012020	260120	191127	22.830	12.187100	-56.117673	22.980	-0.190	0.230	-0.340	22.830	-1.200	-0.100																			1580065887.0	0.20	0.37
26/01/2020 19:11:28	26012020	260120	191128	22.930	12.187097	-56.117673	23.070	-0.310	0.530	-0.030	22.940	-0.900	0.200																			1580065888.0	0.52	0.96
26/01/2020 19:11:29	26012020	260120	191129	22.940	12.187095	-56.117672	23.060	-0.230	0.320	0.310	22.930	-1.000	0.600																			1580065889.0	0.54	1.00
26/01/2020 19:11:30	26012020	260120	191130	22.930	12.187093	-56.117670	23.060	0.020	-0.270	0.560	22.930	-1.600	0.900																			1580065890.0	0.46	0.85
26/01/2020 19:11:31	26012020	260120	191131	23.010	12.187095	-56.117667	23.150	0.250	-0.820	0.600	23.040	-2.200	0.900																			1580065891.0	0.64	1.19
26/01/2020 19:11:32	26012020	260120	191132	23.190	12.187097	-56.117665	23.330	0.320	-0.900	0.450	23.220	-2.300	0.800																			1580065892.0	0.57	1.06
26/01/2020 19:11:33	26012020	260120	191133	23.280	12.187098	-56.117667	23.370	0.230	-0.420	0.300	23.270	-1.900	0.600																			1580065893.0	0.25	0.46
26/01/2020 19:11:34	26012020	260120	191134	23.210	12.187097	-56.117668	23.280	0.100	0.240	0.250	23.190	-1.200	0.600																			1580065894.0	0.42	0.78
26/01/2020 19:11:35	26012020	260120	191135	23.100	12.187095	-56.117668	23.150	-0.040	0.570	0.140	23.080	-0.800	0.500																			1580065895.0	0.55	1.02
26/01/2020 19:11:36	26012020	260120	191136	22.990	12.187093	-56.117670	23.050	-0.190	0.440	-0.110	22.970	-0.900	0.200																			1580065896.0	0.30	0.56
26/01/2020 19:11:37	26012020	260120	191137	22.930	12.187095	-56.117672	23.020	-0.250	-0.000	-0.410	22.950	-1.400	-0.100																			1580065897.0	0.43	0.80
26/01/2020 19:11:38	26012020	260120	191138	23.120	12.187098	-56.117673	23.190	-0.110	-0.510	-0.700	23.120	-1.900	-0.400																			1580065898.0	0.75	1.39
26/01/2020 19:11:39	26012020	260120	191139	23.370	12.187102	-56.117675	23.490	0.120	-0.690	-0.840	23.430	-2.100	-0.500																			1580065899.0	0.70	1.30
26/01/2020 19:11:40	26012020	260120	191140	23.630	12.187102	-56.117675	23.740	0.180	-0.350	-0.720	23.660	-1.800	-0.400																			1580065900.0	0.23	0.43
26/01/2020 19:11:41	26012020	260120	191141	23.750	12.187100	-56.117673	23.820	-0.050	0.260	-0.400	23.750	-1.200	-0.100																			1580065901.0	0.57	1.06
26/01/2020 19:11:42	26012020	260120	191142	23.720	12.187095	-56.117672	23.770	-0.380	0.600	0.060	23.700	-0.800	0.300																			1580065902.0	0.99	1.83
26/01/2020 19:11:43	26012020	260120	191143	23.580	12.187092	-56.117670	23.640	-0.480	0.370	0.570	23.550	-1.000	0.800																			1580065903.0	0.85	1.57
26/01/2020 19:11:44	26012020	260120	191144	23.440	12.187092	-56.117668	23.510	-0.230	-0.360	0.960	23.410	-1.700	1.200																			1580065904.0	0.42	0.78
26/01/2020 19:11:45	26012020	260120	191145	23.370	12.187093	-56.117667	23.450	0.260	-1.100	1.050	23.370	-2.400	1.400																			1580065905.0	0.58	1.07
26/01/2020 19:11:46	26012020	260120	191146	23.410	12.187097	-56.117667	23.500	0.690	-1.290	0.890	23.410	-2.700	1.200																			1580065906.0	0.77	1.43
26/01/2020 19:11:47	26012020	260120	191147	23.430	12.187098	-56.117667	23.500	0.770	-0.750	0.670	23.430	-2.200	1.000																			1580065907.0	0.43	0.80
26/01/2020 19:11:48	26012020	260120	191148	23.410	12.187098	-56.117667	23.470	0.410	0.140	0.360	23.410	-1.300	0.700																			1580065908.0	0.23	0.43
26/01/2020 19:11:49	26012020	260120	191149	23.420	12.187095	-56.117668	23.500	-0.140	0.820	-0.080	23.430	-0.600	0.300																			1580065909.0	0.64	1.19
26/01/2020 19:11:50	26012020	260120	191150	23.540	12.187095	-56.117672	23.620	-0.530	1.040	-0.580	23.570	-0.400	-0.200																			1580065910.0	0.81	1.50
26/01/2020 19:11:51	26012020	260120	191151	23.700	12.187095	-56.117677	23.770	-0.560	0.780	-1.000	23.730	-0.600	-0.600																			1580065911.0	0.89	1.65
26/01/2020 19:11:52	26012020	260120	191152	23.840	12.187097	-56.117680	23.890	-0.320	0.210	-1.140	23.860	-1.100	-0.800																			1580065912.0	0.73	1.35
26/01/2020 19:11:53	26012020	260120	191153	23.880	12.187098	-56.117680	23.910	-0.070	-0.380	-0.900	23.870	-1.700	-0.600																			1580065913.0	0.30	0.56
26/01/2020 19:11:54	26012020	260120	191154	23.810	12.187098	-56.117677	23.830	-0.000	-0.740	-0.370	23.790	-2.100	-0.100																			1580065914.0	0.56	1.04
26/01/2020 19:11:55	26012020	260120	191155	23.720	12.187097	-56.117673	23.770	-0.070	-0.860	0.190	23.710	-2.200	0.500																			1580065915.0	0.97	1.80
26/01/2020 19:11:56	26012020	260120	191156	23.670	12.187093	-56.117670	23.730	-0.070	-0.870	0.620	23.660	-2.300	0.900																			1580065916.0	0.90	1.67
26/01/2020 19:11:57	26012020	260120	191157	23.610	12.187093	-56.117668	23.660	0.130	-0.800	0.810	23.590	-2.200	1.100																			1580065917.0	0.46	0.85
26/01/2020 19:11:58	26012020	260120	191158	23.520	12.187093	-56.117667	23.560	0.440	-0.560	0.770	23.490	-2.000	1.100																			1580065918.0	0.15	0.28
26/01/2020 19:11:59	26012020	260120	191159	23.410	12.187095	-56.117668	23.470	0.580	-0.020	0.540	23.400	-1.500	0.900	1013.60	26.30	26.20	20.80	20.80	538.00	71.00	72.00	384.00	30.30	75.00	4.10	100.00	4.10	36932	3429.00	27.80	27.90	1580065919.0	0.36	0.67
26/01/2020 19:12:00	26012020	260120	191200	23.370	12.187095	-56.117670	23.450	0.410	0.640	0.250	23.380	-0.800	0.600																			1580065920.0	0.51	0.94
26/01/2020 19:12:01	26012020	260120	191201	23.490	12.187095	-56.117673	23.600	0.020	0.980	-0.170	23.540	-0.400	0.200																			1580065921.0	0.66	1.22
26/01/2020 19:12:02	26012020	260120	191202	23.760	12.187093	-56.117677	23.880	-0.330	0.760	-0.680	23.820	-0.600	-0.300																			1580065922.0	0.62	1.15
26/01/2020 19:12:03	26012020	260120	191203	23.980	12.187095	-56.117678	24.080	-0.450	0.200	-0.940	24.010	-1.100	-0.600																			1580065923.0	0.54	1.00
26/01/2020 19:12:04	26012020	260120	191204	24.080	12.187097	-56.117678	24.120	-0.350	-0.400	-0.820	24.070	-1.700	-0.500																			1580065924.0	0.31	0.57
26/01/2020 19:12:05	26012020	260120	191205	23.970	12.187097	-56.117677	24.000	-0.180	-0.770	-0.430	23.940	-2.100	-0.200																			1580065925.0	0.42	0.78
26/01/2020 19:12:06	26012020	260120	191206	23.750	12.187097	-56.117675	23.780	-0.050	-0.780	0.070	23.710	-2.200	0.300																			1580065926.0	0.59	1.09
26/01/2020 19:12:07	26012020	260120	191207	23.550	12.187093	-56.117672	23.610	0.040	-0.540	0.490	23.530	-2.000	0.800																			1580065927.0	0.68	1.26
26/01/2020 19:12:08	26012020	260120	191208	23.520	12.187092	-56.117670	23.610	0.120	-0.280	0.650	23.530	-1.700	1.000																			1580065928.0	0.62	1.15
26/01/2020 19:12:09	26012020	260120	191209	23.630	12.187090	-56.117670	23.720	0.200	-0.150	0.510	23.660	-1.600	0.900																			1580065929.0	0.34	0.63
26/01/2020 19:12:10	26012020	260120	191210	23.750	12.187090	-56.117670	23.800	0.220	-0.070	0.160	23.750	-1.500	0.500																			1580065930.0	0.14	0.26
26/01/2020 19:12:11	26012020	260120	191211	23.710	12.187092	-56.117672	23.740	0.160	0.100	-0.120	23.690	-1.300	0.200																			1580065931.0	0.53	0.98
26/01/2020 19:12:12	26012020	260120	191212	23.630	12.187093	-56.117675	23.680	0.090	0.220	-0.310	23.630	-1.200	0.000																			1580065932.0	0.53	0.98
26/01/2020 19:12:13	26012020	260120	191213	23.710	12.187093	-56.117677	23.780	0.000	0.090	-0.530	23.740	-1.300	-0.200																			1580065933.0	0.31	0.57
26/01/2020 19:12:14	26012020	260120	191214	23.860	12.187093	-56.117677	23.920	-0.120	-0.100	-0.690	23.880	-1.500	-0.400																			1580065934.0	0.23	0.43
26/01/2020 19:12:15	26012020	260120	191215	23.910	12.187095	-56.117678	23.930	-0.200	-0.110	-0.600	23.900	-1.500	-0.300																			1580065935.0	0.29	0.54
26/01/2020 19:12:16	26012020	260120	191216	23.810	12.187093	-56.117678	23.840	-0.110	-0.040	-0.260	23.790	-1.400	0.000																			1580065936.0	0.09	0.17
26/01/2020 19:12:17	26012020	260120	191217	23.740	12.187093	-56.117677	23.770	0.100	-0.140	0.130	23.740	-1.500	0.400																			1580065937.0	0.45	0.83
26/01/2020 19:12:18	26012020	260120	191218	23.750	12.187092	-56.117673	23.820	0.170	-0.330	0.340	23.760	-1.700	0.600																			1580065938.0	0.73	1.35
26/01/2020 19:12:19	26012020	260120	191219	23.780	12.187092	-56.117670	23.830	-0.040	-0.340	0.330	23.770	-1.800	0.700																			1580065939.0	0.59	1.09
26/01/2020 19:12:20	26012020	260120	191220	23.760	12.187090	-56.117670	23.810	-0.350	-0.120	0.240	23.760	-1.600	0.600																			1580065940.0	0.04	0.07
26/01/2020 19:12:21	26012020	260120	191221	23.800	12.187090	-56.117673	23.880	-0.380	0.040	0.090	23.820	-1.400	0.400																			1580065941.0	0.51	0.94
26/01/2020 19:12:22	26012020	260120	191222	23.920	12.187090	-56.117675	23.990	-0.010	-0.050	-0.010	23.930	-1.400	0.300																			1580065942.0	0.51	0.94
26/01/2020 19:12:23	26012020	260120	191223	23.920	12.187090	-56.117675	23.950	0.430	-0.240	0.020	23.890	-1.600	0.300																			1580065943.0	0.12	0.22
26/01/2020 19:12:24	26012020	260120	191224	23.740	12.187092	-56.117673	23.770	0.500	-0.270	0.070	23.700	-1.700	0.400																			1580065944.0	0.39	0.72
26/01/2020 19:12:25	26012020	260120	191225	23.620	12.187090	-56.117673	23.680	0.140	-0.140	-0.050	23.600	-1.600	0.300																			1580065945.0	0.30	0.56
26/01/2020 19:12:26	26012020	260120	191226	23.610	12.187090	-56.117673	23.680	-0.280	-0.040	-0.300	23.620	-1.400	0.000																			1580065946.0	0.28	0.52
26/01/2020 19:12:27	26012020	260120	191227	23.680	12.187090	-56.117677	23.740	-0.360	-0.100	-0.540	23.700	-1.500	-0.200																			1580065947.0	0.73	1.35
26/01/2020 19:12:28	26012020	260120	191228	23.790	12.187092	-56.117680	23.870	-0.010	-0.210	-0.590	23.810	-1.600	-0.300																			1580065948.0	0.73	1.35
26/01/2020 19:12:29	26012020	260120	191229	23.850	12.187093	-56.117680	23.910	0.390	-0.210	-0.360	23.850	-1.600	-0.100																			1580065949.0	0.27	0.50
26/01/2020 19:12:30	26012020	260120	191230	23.770	12.187093	-56.117678	23.810	0.410	-0.100	0.020	23.750	-1.500	0.300																			1580065950.0	0.55	1.02
26/01/2020 19:12:31	26012020	260120	191231	23.650	12.187092	-56.117675	23.700	0.000	0.050	0.270	23.640	-1.400	0.600																			1580065951.0	0.80	1.48
26/01/2020 19:12:32	26012020	260120	191232	23.650	12.187090	-56.117673	23.730	-0.460	0.090	0.200	23.670	-1.300	0.500																			1580065952.0	0.45	0.83
26/01/2020 19:12:33	26012020	260120	191233	23.770	12.187090	-56.117675	23.850	-0.570	-0.060	-0.060	23.800	-1.400	0.300																			1580065953.0	0.28	0.52
26/01/2020 19:12:34	26012020	260120	191234	23.850	12.187092	-56.117678	23.890	-0.230	-0.230	-0.120	23.840	-1.600	0.200																			1580065954.0	0.69	1.28
26/01/2020 19:12:35	26012020	260120	191235	23.770	12.187092	-56.117680	23.790	0.270	-0.250	0.100	23.740	-1.700	0.400																			1580065955.0	0.49	0.91
26/01/2020 19:12:36	26012020	260120	191236	23.620	12.187092	-56.117678	23.660	0.510	-0.150	0.390	23.590	-1.600	0.700																			1580065956.0	0.19	0.35
26/01/2020 19:12:37	26012020	260120	191237	23.500	12.187090	-56.117677	23.560	0.330	-0.100	0.480	23.490	-1.500	0.800																			1580065957.0	0.63	1.17
26/01/2020 19:12:38	26012020	260120	191238	23.520	12.187088	-56.117673	23.580	-0.140	-0.160	0.240	23.530	-1.600	0.600																			1580065958.0	0.50	0.93
26/01/2020 19:12:39	26012020	260120	191239	23.610	12.187090	-56.117675	23.710	-0.540	-0.240	-0.210	23.640	-1.600	0.200																			1580065959.0	0.20	0.37
26/01/2020 19:12:40	26012020	260120	191240	23.790	12.187092	-56.117678	23.850	-0.540	-0.180	-0.600	23.810	-1.600	-0.200																			1580065960.0	0.94	1.74
26/01/2020 19:12:41	26012020	260120	191241	23.840	12.187093	-56.117683	23.880	-0.080	-0.080	-0.660	23.840	-1.500	-0.300																			1580065961.0	1.10	2.04
26/01/2020 19:12:42	26012020	260120	191242	23.790	12.187093	-56.117687	23.820	0.520	-0.090	-0.370	23.770	-1.500	-0.100																			1580065962.0	0.48	0.89
26/01/2020 19:12:43	26012020	260120	191243	23.740	12.187093	-56.117683	23.790	0.780	-0.220	0.060	23.740	-1.600	0.300																			1580065963.0	0.46	0.85
26/01/2020 19:12:44	26012020	260120	191244	23.740	12.187092	-56.117680	23.790	0.470	-0.240	0.430	23.740	-1.700	0.700																			1580065964.0	1.02	1.89
26/01/2020 19:12:45	26012020	260120	191245	23.740	12.187092	-56.117675	23.800	-0.160	-0.100	0.630	23.730	-1.500	0.900																			1580065965.0	0.87	1.61
26/01/2020 19:12:46	26012020	260120	191246	23.730	12.187090	-56.117675	23.800	-0.580	0.020	0.530	23.730	-1.400	0.900																			1580065966.0	0.27	0.50
26/01/2020 19:12:47	26012020	260120	191247	23.750	12.187090	-56.117677	23.830	-0.480	-0.020	0.260	23.760	-1.400	0.600																			1580065967.0	0.46	0.85
26/01/2020 19:12:48	26012020	260120	191248	23.810	12.187092	-56.117680	23.880	-0.050	-0.160	-0.010	23.820	-1.500	0.300																			1580065968.0	0.68	1.26
26/01/2020 19:12:49	26012020	260120	191249	23.870	12.187093	-56.117682	23.930	0.270	-0.220	-0.250	23.880	-1.600	0.100																			1580065969.0	0.53	0.98
26/01/2020 19:12:50	26012020	260120	191250	23.900	12.187095	-56.117683	23.950	0.230	-0.100	-0.390	23.900	-1.500	-0.100																			1580065970.0	0.31	0.57
26/01/2020 19:12:51	26012020	260120	191251	23.880	12.187095	-56.117683	23.900	-0.030	0.080	-0.350	23.870	-1.300	-0.000																			1580065971.0	0.20	0.37
26/01/2020 19:12:52	26012020	260120	191252	23.760	12.187093	-56.117683	23.790	-0.210	0.120	-0.100	23.740	-1.300	0.200																			1580065972.0	0.25	0.46
26/01/2020 19:12:53	26012020	260120	191253	23.680	12.187092	-56.117683	23.720	-0.190	-0.090	0.100	23.670	-1.500	0.400																			1580065973.0	0.25	0.46
26/01/2020 19:12:54	26012020	260120	191254	23.670	12.187092	-56.117682	23.710	-0.130	-0.380	0.070	23.680	-1.800	0.400																			1580065974.0	0.34	0.63
26/01/2020 19:12:55	26012020	260120	191255	23.710	12.187093	-56.117682	23.780	-0.130	-0.470	-0.090	23.730	-1.900	0.200																			1580065975.0	0.25	0.46
26/01/2020 19:12:56	26012020	260120	191256	23.880	12.187093	-56.117682	23.940	-0.110	-0.310	-0.250	23.910	-1.700	0.100																			1580065976.0	0.21	0.39
26/01/2020 19:12:57	26012020	260120	191257	24.050	12.187093	-56.117683	24.110	0.050	-0.110	-0.280	24.080	-1.500	0.000																			1580065977.0	0.23	0.43
26/01/2020 19:12:58	26012020	260120	191258	24.140	12.187093	-56.117683	24.170	0.320	-0.060	-0.170	24.140	-1.500	0.100																			1580065978.0	0.13	0.24
26/01/2020 19:12:59	26012020	260120	191259	24.050	12.187093	-56.117682	24.070	0.500	-0.090	-0.020	24.020	-1.500	0.300	1013.60	26.40	26.30	21.00	21.00	545.00	72.00	72.00	384.00	30.30	76.00	3.80	102.00	3.70	37104	3491.00	27.80	27.90	1580065979.0	0.24	0.44
26/01/2020 19:13:00	26012020	260120	191300	23.860	12.187093	-56.117680	23.880	0.440	-0.080	0.110	23.820	-1.500	0.400																			1580065980.0	0.28	0.52
26/01/2020 19:13:01	26012020	260120	191301	23.730	12.187093	-56.117680	23.760	0.190	-0.120	0.130	23.710	-1.500	0.500																			1580065981.0	0.12	0.22
26/01/2020 19:13:02	26012020	260120	191302	23.720	12.187093	-56.117680	23.770	-0.130	-0.200	-0.040	23.740	-1.600	0.300																			1580065982.0	0.19	0.35
26/01/2020 19:13:03	26012020	260120	191303	23.800	12.187095	-56.117682	23.850	-0.400	-0.100	-0.280	23.820	-1.500	0.100																			1580065983.0	0.52	0.96
26/01/2020 19:13:04	26012020	260120	191304	23.900	12.187097	-56.117685	23.940	-0.530	0.170	-0.400	23.910	-1.300	-0.100																			1580065984.0	0.53	0.98
26/01/2020 19:13:05	26012020	260120	191305	23.960	12.187095	-56.117687	24.020	-0.510	0.330	-0.340	23.970	-1.100	-0.000																			1580065985.0	0.36	0.67
26/01/2020 19:13:06	26012020	260120	191306	24.050	12.187095	-56.117687	24.120	-0.330	0.120	-0.180	24.080	-1.300	0.100																			1580065986.0	0.29	0.54
26/01/2020 19:13:07	26012020	260120	191307	24.150	12.187093	-56.117683	24.230	-0.060	-0.280	-0.010	24.170	-1.600	0.300																			1580065987.0	0.42	0.78
26/01/2020 19:13:08	26012020	260120	191308	24.240	12.187093	-56.117682	24.300	0.200	-0.550	0.160	24.250	-1.900	0.500																			1580065988.0	0.61	1.13
26/01/2020 19:13:09	26012020	260120	191309	24.230	12.187093	-56.117678	24.280	0.300	-0.530	0.230	24.210	-1.900	0.500																			1580065989.0	0.56	1.04
26/01/2020 19:13:10	26012020	260120	191310	24.160	12.187093	-56.117678	24.210	0.250	-0.320	0.170	24.150	-1.700	0.500																			1580065990.0	0.28	0.52
26/01/2020 19:13:11	26012020	260120	191311	24.090	12.187092	-56.117678	24.120	0.130	-0.140	0.040	24.070	-1.600	0.400																			1580065991.0	0.23	0.43
26/01/2020 19:13:12	26012020	260120	191312	23.950	12.187093	-56.117680	23.990	0.090	-0.130	-0.070	23.920	-1.500	0.300																			1580065992.0	0.46	0.85
26/01/2020 19:13:13	26012020	260120	191313	23.870	12.187095	-56.117683	23.920	0.160	-0.310	-0.240	23.880	-1.700	0.100																			1580065993.0	0.59	1.09
26/01/2020 19:13:14	26012020	260120	191314	24.010	12.187097	-56.117685	24.090	0.270	-0.410	-0.480	24.050	-1.800	-0.100																			1580065994.0	0.74	1.37
26/01/2020 19:13:15	26012020	260120	191315	24.240	12.187100	-56.117685	24.320	0.290	-0.110	-0.530	24.270	-1.600	-0.200																			1580065995.0	0.55	1.02
26/01/2020 19:13:16	26012020	260120	191316	24.330	12.187100	-56.117685	24.380	0.110	0.430	-0.240	24.330	-1.000	0.000																			1580065996.0	0.16	0.30
26/01/2020 19:13:17	26012020	260120	191317	24.270	12.187097	-56.117683	24.300	-0.250	0.810	0.210	24.240	-0.600	0.500																			1580065997.0	0.86	1.59
26/01/2020 19:13:18	26012020	260120	191318	24.140	12.187092	-56.117680	24.160	-0.650	0.710	0.490	24.110	-0.700	0.800																			1580065998.0	1.06	1.96
26/01/2020 19:13:19	26012020	260120	191319	24.020	12.187090	-56.117677	24.050	-0.890	0.170	0.460	24.000	-1.200	0.800																			1580065999.0	0.57	1.06
26/01/2020 19:13:20	26012020	260120	191320	23.990	12.187092	-56.117678	24.060	-0.760	-0.560	0.110	24.010	-1.900	0.500																			1580066000.0	0.27	0.50
26/01/2020 19:13:21	26012020	260120	191321	24.150	12.187095	-56.117682	24.240	-0.210	-1.190	-0.370	24.200	-2.500	0.000																			1580066001.0	0.88	1.63
26/01/2020 19:13:22	26012020	260120	191322	24.420	12.187098	-56.117683	24.500	0.490	-1.360	-0.670	24.470	-2.800	-0.300																			1580066002.0	0.95	1.76
26/01/2020 19:13:23	26012020	260120	191323	24.530	12.187100	-56.117685	24.550	0.910	-0.890	-0.560	24.510	-2.400	-0.300																			1580066003.0	0.41	0.76
26/01/2020 19:13:24	26012020	260120	191324	24.330	12.187098	-56.117683	24.320	0.810	-0.000	-0.130	24.260	-1.500	0.100																			1580066004.0	0.35	0.65
26/01/2020 19:13:25	26012020	260120	191325	24.010	12.187095	-56.117682	24.020	0.390	0.610	0.280	23.960	-0.800	0.600																			1580066005.0	0.84	1.56
26/01/2020 19:13:26	26012020	260120	191326	23.890	12.187092	-56.117682	23.980	0.020	0.510	0.290	23.910	-0.800	0.600																			1580066006.0	0.64	1.19
26/01/2020 19:13:27	26012020	260120	191327	24.110	12.187093	-56.117680	24.220	-0.100	-0.000	-0.060	24.170	-1.400	0.300																			1580066007.0	0.26	0.48
26/01/2020 19:13:28	26012020	260120	191328	24.380	12.187097	-56.117682	24.470	-0.100	-0.230	-0.330	24.420	-1.600	0.000																			1580066008.0	0.80	1.48
26/01/2020 19:13:29	26012020	260120	191329	24.450	12.187098	-56.117682	24.460	-0.180	0.080	-0.270	24.430	-1.400	0.000																			1580066009.0	0.48	0.89
26/01/2020 19:13:30	26012020	260120	191330	24.200	12.187097	-56.117682	24.170	-0.430	0.510	0.020	24.130	-0.900	0.300																			1580066010.0	0.35	0.65
26/01/2020 19:13:31	26012020	260120	191331	23.900	12.187093	-56.117682	23.820	-0.670	0.570	0.270	23.830	-0.800	0.600																			1580066011.0	0.74	1.37
26/01/2020 19:13:32	26012020	260120	191332	23.620	12.187092	-56.117682	23.670	-0.620	0.050	0.260	23.620	-1.300	0.600																			1580066012.0	0.43	0.80
26/01/2020 19:13:33	26012020	260120	191333	23.760	12.187093	-56.117682	23.870	-0.200	-0.810	-0.050	23.820	-2.100	0.300																			1580066013.0	0.29	0.54
26/01/2020 19:13:34	26012020	260120	191334	24.110	12.187097	-56.117683	24.210	0.310	-1.330	-0.420	24.170	-2.700	-0.100																			1580066014.0	0.72	1.33
26/01/2020 19:13:35	26012020	260120	191335	24.290	12.187098	-56.117683	24.330	0.520	-1.010	-0.550	24.290	-2.500	-0.200																			1580066015.0	0.53	0.98
26/01/2020 19:13:36	26012020	260120	191336	24.160	12.187097	-56.117683	24.160	0.400	-0.230	-0.390	24.120	-1.700	-0.100																			1580066016.0	0.25	0.46
26/01/2020 19:13:37	26012020	260120	191337	23.910	12.187093	-56.117683	23.910	0.220	0.300	-0.090	23.860	-1.100	0.200																			1580066017.0	0.73	1.35
26/01/2020 19:13:38	26012020	260120	191338	23.710	12.187092	-56.117683	23.740	0.200	0.230	0.140	23.690	-1.100	0.400																			1580066018.0	0.47	0.87
26/01/2020 19:13:39	26012020	260120	191339	23.650	12.187093	-56.117682	23.720	0.340	-0.120	0.180	23.660	-1.500	0.500																			1580066019.0	0.29	0.54
26/01/2020 19:13:40	26012020	260120	191340	23.710	12.187097	-56.117682	23.790	0.440	-0.230	0.130	23.730	-1.600	0.400																			1580066020.0	0.68	1.26
26/01/2020 19:13:41	26012020	260120	191341	23.760	12.187098	-56.117682	23.810	0.290	0.110	0.160	23.750	-1.300	0.500																			1580066021.0	0.38	0.70
26/01/2020 19:13:42	26012020	260120	191342	23.700	12.187097	-56.117682	23.730	-0.190	0.550	0.270	23.680	-0.900	0.600																			1580066022.0	0.38	0.70
26/01/2020 19:13:43	26012020	260120	191343	23.620	12.187093	-56.117680	23.660	-0.770	0.630	0.280	23.600	-0.800	0.600																			1580066023.0	0.74	1.37
26/01/2020 19:13:44	26012020	260120	191344	23.610	12.187092	-56.117680	23.670	-1.080	0.240	0.070	23.610	-1.100	0.400																			1580066024.0	0.43	0.80
26/01/2020 19:13:45	26012020	260120	191345	23.620	12.187092	-56.117682	23.670	-0.870	-0.310	-0.230	23.620	-1.700	0.100																			1580066025.0	0.36	0.67
26/01/2020 19:13:46	26012020	260120	191346	23.550	12.187093	-56.117683	23.580	-0.240	-0.660	-0.390	23.520	-2.000	-0.100																			1580066026.0	0.71	1.31
26/01/2020 19:13:47	26012020	260120	191347	23.370	12.187095	-56.117687	23.390	0.430	-0.720	-0.360	23.320	-2.100	-0.000																			1580066027.0	0.51	0.94
26/01/2020 19:13:48	26012020	260120	191348	23.180	12.187095	-56.117687	23.210	0.760	-0.640	-0.270	23.150	-2.000	0.000																			1580066028.0	0.15	0.28
26/01/2020 19:13:49	26012020	260120	191349	23.160	12.187095	-56.117687	23.240	0.670	-0.580	-0.320	23.190	-2.000	0.000																			1580066029.0	0.19	0.35
26/01/2020 19:13:50	26012020	260120	191350	23.370	12.187095	-56.117687	23.490	0.350	-0.450	-0.440	23.430	-1.900	-0.100																			1580066030.0	0.01	0.02
26/01/2020 19:13:51	26012020	260120	191351	23.670	12.187095	-56.117687	23.790	0.080	-0.180	-0.430	23.730	-1.600	-0.100																			1580066031.0	0.17	0.31
26/01/2020 19:13:52	26012020	260120	191352	23.910	12.187095	-56.117687	23.990	0.010	0.150	-0.210	23.930	-1.300	0.100																			1580066032.0	0.03	0.06
26/01/2020 19:13:53	26012020	260120	191353	23.920	12.187093	-56.117685	23.960	0.090	0.420	0.220	23.890	-1.000	0.500																			1580066033.0	0.36	0.67
26/01/2020 19:13:54	26012020	260120	191354	23.690	12.187092	-56.117683	23.720	0.150	0.520	0.780	23.630	-0.900	1.000																			1580066034.0	0.78	1.44
26/01/2020 19:13:55	26012020	260120	191355	23.420	12.187090	-56.117678	23.390	0.120	0.350	1.230	23.360	-1.000	1.500																			1580066035.0	1.03	1.91
26/01/2020 19:13:56	26012020	260120	191356	23.090	12.187088	-56.117675	23.140	-0.030	-0.060	1.240	23.050	-1.400	1.600																			1580066036.0	0.91	1.69
26/01/2020 19:13:57	26012020	260120	191357	22.980	12.187090	-56.117673	23.050	-0.280	-0.390	0.700	22.980	-1.800	1.100																			1580066037.0	0.30	0.56
26/01/2020 19:13:58	26012020	260120	191358	23.030	12.187092	-56.117677	23.110	-0.490	-0.420	-0.160	23.050	-1.800	0.200																			1580066038.0	0.90	1.67
26/01/2020 19:13:59	26012020	260120	191359	23.120	12.187093	-56.117683	23.170	-0.540	-0.180	-0.960	23.130	-1.600	-0.600	1013.60	26.40	26.30	21.00	21.00	547.00	72.00	72.00	385.00	30.30	78.00	3.90	104.00	3.80	37118	3431.00	27.80	27.90	1580066039.0	1.59	2.94
26/01/2020 19:14:00	26012020	260120	191400	23.150	12.187095	-56.117692	23.170	-0.360	0.040	-1.390	23.150	-1.400	-1.000																			1580066040.0	1.57	2.91
26/01/2020 19:14:01	26012020	260120	191401	23.160	12.187095	-56.117695	23.190	-0.070	-0.010	-1.420	23.170	-1.400	-1.100																			1580066041.0	0.88	1.63
26/01/2020 19:14:02	26012020	260120	191402	23.290	12.187093	-56.117695	23.360	0.200	-0.380	-1.190	23.340	-1.700	-0.900																			1580066042.0	0.15	0.28
26/01/2020 19:14:03	26012020	260120	191403	23.560	12.187095	-56.117692	23.640	0.380	-0.770	-0.800	23.610	-2.100	-0.500																			1580066043.0	0.65	1.20
26/01/2020 19:14:04	26012020	260120	191404	23.710	12.187095	-56.117688	23.750	0.440	-0.790	-0.220	23.710	-2.200	0.000																			1580066044.0	0.91	1.69
26/01/2020 19:14:05	26012020	260120	191405	23.620	12.187093	-56.117683	23.640	0.420	-0.390	0.490	23.580	-1.800	0.700																			1580066045.0	0.93	1.72
26/01/2020 19:14:06	26012020	260120	191406	23.410	12.187092	-56.117680	23.430	0.310	0.120	1.090	23.360	-1.300	1.300																			1580066046.0	0.92	1.70
26/01/2020 19:14:07	26012020	260120	191407	23.160	12.187090	-56.117677	23.200	0.180	0.470	1.510	23.120	-0.900	1.800																			1580066047.0	0.74	1.37
26/01/2020 19:14:08	26012020	260120	191408	22.950	12.187088	-56.117675	23.000	0.040	0.560	1.630	22.920	-0.800	1.900																			1580066048.0	0.51	0.94
26/01/2020 19:14:09	26012020	260120	191409	22.890	12.187087	-56.117675	22.970	-0.070	0.320	1.210	22.900	-1.000	1.600																			1580066049.0	0.26	0.48
26/01/2020 19:14:10	26012020	260120	191410	22.980	12.187088	-56.117675	23.040	-0.190	-0.030	0.390	22.990	-1.400	0.800																			1580066050.0	0.28	0.52
26/01/2020 19:14:11	26012020	260120	191411	23.020	12.187090	-56.117678	23.030	-0.370	-0.200	-0.540	23.010	-1.600	-0.100																			1580066051.0	0.75	1.39
26/01/2020 19:14:12	26012020	260120	191412	22.910	12.187093	-56.117682	22.900	-0.520	-0.180	-1.310	22.890	-1.600	-0.900																			1580066052.0	1.12	2.07
26/01/2020 19:14:13	26012020	260120	191413	22.850	12.187093	-56.117688	22.850	-0.510	-0.260	-1.860	22.860	-1.600	-1.500																			1580066053.0	1.32	2.44
26/01/2020 19:14:14	26012020	260120	191414	22.980	12.187095	-56.117693	23.010	-0.240	-0.500	-2.170	23.020	-1.900	-1.800																			1580066054.0	1.20	2.22
26/01/2020 19:14:15	26012020	260120	191415	23.180	12.187097	-56.117697	23.180	0.140	-0.600	-1.990	23.190	-2.000	-1.700																			1580066055.0	0.77	1.43
26/01/2020 19:14:16	26012020	260120	191416	23.200	12.187098	-56.117697	23.180	0.380	-0.390	-1.170	23.180	-1.800	-1.000																			1580066056.0	0.21	0.39
26/01/2020 19:14:17	26012020	260120	191417	23.100	12.187095	-56.117692	23.120	0.370	-0.150	-0.010	23.090	-1.500	0.200																			1580066057.0	1.14	2.11
26/01/2020 19:14:18	26012020	260120	191418	23.070	12.187092	-56.117685	23.130	0.250	-0.160	1.070	23.070	-1.500	1.300																			1580066058.0	1.63	3.02
26/01/2020 19:14:19	26012020	260120	191419	23.110	12.187090	-56.117677	23.200	0.160	-0.240	1.850	23.120	-1.600	2.100																			1580066059.0	1.62	3.00
26/01/2020 19:14:20	26012020	260120	191420	23.110	12.187088	-56.117672	23.170	0.090	-0.040	2.220	23.090	-1.500	2.500																			1580066060.0	1.29	2.39
26/01/2020 19:14:21	26012020	260120	191421	22.910	12.187087	-56.117668	22.920	-0.030	0.400	2.110	22.850	-1.000	2.500																			1580066061.0	0.73	1.35
26/01/2020 19:14:22	26012020	260120	191422	22.590	12.187085	-56.117668	22.610	-0.130	0.590	1.490	22.540	-0.800	1.900																			1580066062.0	0.36	0.67
26/01/2020 19:14:23	26012020	260120	191423	22.410	12.187085	-56.117672	22.450	-0.120	0.230	0.450	22.410	-1.100	0.900																			1580066063.0	0.78	1.44
26/01/2020 19:14:24	26012020	260120	191424	22.470	12.187088	-56.117678	22.520	-0.030	-0.380	-0.820	22.510	-1.700	-0.400																			1580066064.0	1.37	2.54
26/01/2020 19:14:25	26012020	260120	191425	22.630	12.187093	-56.117685	22.640	-0.040	-0.690	-2.010	22.650	-2.100	-1.600																			1580066065.0	1.78	3.30
26/01/2020 19:14:26	26012020	260120	191426	22.710	12.187098	-56.117692	22.680	-0.220	-0.490	-2.770	22.710	-1.900	-2.400																			1580066066.0	1.68	3.11
26/01/2020 19:14:27	26012020	260120	191427	22.700	12.187100	-56.117697	22.670	-0.430	-0.040	-2.850	22.700	-1.500	-2.500																			1580066067.0	1.28	2.37
26/01/2020 19:14:28	26012020	260120	191428	22.670	12.187098	-56.117700	22.660	-0.400	0.180	-2.200	22.660	-1.200	-2.000																			1580066068.0	0.68	1.26
26/01/2020 19:14:29	26012020	260120	191429	22.700	12.187095	-56.117697	22.730	-0.090	-0.080	-1.070	22.720	-1.400	-0.900																			1580066069.0	0.79	1.46
26/01/2020 19:14:30	26012020	260120	191430	22.820	12.187093	-56.117690	22.890	0.270	-0.580	0.170	22.850	-1.900	0.400																			1580066070.0	1.65	3.06
26/01/2020 19:14:31	26012020	260120	191431	22.940	12.187092	-56.117680	23.010	0.440	-0.770	1.270	22.950	-2.200	1.500																			1580066071.0	1.99	3.69
26/01/2020 19:14:32	26012020	260120	191432	22.880	12.187090	-56.117672	22.930	0.430	-0.460	2.160	22.840	-1.900	2.400																			1580066072.0	1.71	3.17
26/01/2020 19:14:33	26012020	260120	191433	22.620	12.187088	-56.117667	22.660	0.360	0.080	2.680	22.560	-1.400	3.000																			1580066073.0	1.28	2.37
26/01/2020 19:14:34	26012020	260120	191434	22.260	12.187085	-56.117663	22.280	0.240	0.460	2.610	22.180	-0.900	3.000																			1580066074.0	0.85	1.57
26/01/2020 19:14:35	26012020	260120	191435	21.920	12.187085	-56.117665	21.970	-0.010	0.540	1.800	21.880	-0.800	2.200																			1580066075.0	0.17	0.31
26/01/2020 19:14:36	26012020	260120	191436	21.820	12.187087	-56.117670	21.900	-0.340	0.440	0.390	21.830	-0.900	0.900																			1580066076.0	1.22	2.26
26/01/2020 19:14:37	26012020	260120	191437	22.020	12.187090	-56.117678	22.110	-0.570	0.260	-1.240	22.080	-1.100	-0.700																			1580066077.0	2.08	3.85
26/01/2020 19:14:38	26012020	260120	191438	22.360	12.187093	-56.117688	22.430	-0.600	-0.060	-2.590	22.430	-1.400	-2.100																			1580066078.0	2.23	4.13
26/01/2020 19:14:39	26012020	260120	191439	22.630	12.187097	-56.117697	22.660	-0.400	-0.550	-3.260	22.670	-1.900	-2.900																			1580066079.0	1.66	3.07
26/01/2020 19:14:40	26012020	260120	191440	22.770	12.187098	-56.117698	22.780	-0.080	-1.030	-3.090	22.780	-2.400	-2.800																			1580066080.0	0.67	1.24
26/01/2020 19:14:41	26012020	260120	191441	22.790	12.187100	-56.117697	22.790	0.230	-1.170	-2.210	22.780	-2.600	-2.000																			1580066081.0	0.59	1.09
26/01/2020 19:14:42	26012020	260120	191442	22.660	12.187098	-56.117690	22.640	0.460	-0.830	-0.800	22.610	-2.300	-0.600																			1580066082.0	1.37	2.54
26/01/2020 19:14:43	26012020	260120	191443	22.360	12.187095	-56.117682	22.360	0.530	-0.180	0.750	22.300	-1.600	0.900																			1580066083.0	1.92	3.56
26/01/2020 19:14:44	26012020	260120	191444	22.060	12.187090	-56.117673	22.100	0.420	0.450	1.900	22.010	-1.000	2.100																			1580066084.0	1.98	3.67
26/01/2020 19:14:45	26012020	260120	191445	21.900	12.187087	-56.117668	21.980	0.150	0.830	2.340	21.880	-0.600	2.600																			1580066085.0	1.37	2.54
26/01/2020 19:14:46	26012020	260120	191446	21.930	12.187085	-56.117667	22.070	-0.150	0.780	2.050	21.970	-0.600	2.400																			1580066086.0	0.43	0.80
26/01/2020 19:14:47	26012020	260120	191447	22.140	12.187085	-56.117668	22.350	-0.340	0.340	1.230	22.200	-1.000	1.600																			1580066087.0	0.52	0.96
26/01/2020 19:14:48	26012020	260120	191448	22.460	12.187088	-56.117673	22.560	-0.400	-0.170	0.350	22.480	-1.500	0.800																			1580066088.0	1.07	1.98
26/01/2020 19:14:49	26012020	260120	191449	22.500	12.187092	-56.117677	22.540	-0.360	-0.490	-0.340	22.480	-1.900	0.100																			1580066089.0	1.03	1.91
26/01/2020 19:14:50	26012020	260120	191450	22.360	12.187093	-56.117680	22.350	-0.210	-0.560	-0.750	22.310	-1.900	-0.400																			1580066090.0	0.72	1.33
26/01/2020 19:14:51	26012020	260120	191451	22.110	12.187093	-56.117682	22.100	0.020	-0.560	-0.910	22.070	-1.900	-0.600																			1580066091.0	0.35	0.65
26/01/2020 19:14:52	26012020	260120	191452	21.980	12.187092	-56.117682	22.010	0.260	-0.620	-1.070	21.980	-2.000	-0.700																			1580066092.0	0.14	0.26
26/01/2020 19:14:53	26012020	260120	191453	22.070	12.187093	-56.117682	22.120	0.360	-0.600	-1.250	22.100	-2.000	-0.900																			1580066093.0	0.11	0.20
26/01/2020 19:14:54	26012020	260120	191454	22.240	12.187093	-56.117682	22.280	0.300	-0.320	-1.250	22.270	-1.700	-0.900																			1580066094.0	0.28	0.52
26/01/2020 19:14:55	26012020	260120	191455	22.350	12.187093	-56.117683	22.380	0.150	0.150	-0.940	22.350	-1.300	-0.700																			1580066095.0	0.13	0.24
26/01/2020 19:14:56	26012020	260120	191456	22.340	12.187093	-56.117682	22.370	-0.030	0.540	-0.380	22.340	-0.900	-0.100																			1580066096.0	0.32	0.59
26/01/2020 19:14:57	26012020	260120	191457	22.320	12.187090	-56.117680	22.360	-0.190	0.600	0.270	22.320	-0.800	0.500																			1580066097.0	0.72	1.33
26/01/2020 19:14:58	26012020	260120	191458	22.320	12.187088	-56.117677	22.380	-0.260	0.300	0.910	22.320	-1.000	1.200																			1580066098.0	0.87	1.61
26/01/2020 19:14:59	26012020	260120	191459	22.300	12.187088	-56.117672	22.370	-0.210	-0.210	1.410	22.300	-1.500	1.700	1013.60	26.40	26.30	21.00	21.00	552.00	72.00	72.00	386.00	30.30	75.00	4.00	104.00	3.90	37160	3304.00	27.80	27.90	1580066099.0	0.91	1.69
26/01/2020 19:15:00	26012020	260120	191500	22.230	12.187088	-56.117668	22.290	-0.040	-0.640	1.620	22.210	-2.000	1.900																			1580066100.0	0.81	1.50
26/01/2020 19:15:01	26012020	260120	191501	22.090	12.187088	-56.117665	22.140	0.120	-0.730	1.480	22.070	-2.100	1.800																			1580066101.0	0.52	0.96
26/01/2020 19:15:02	26012020	260120	191502	21.990	12.187090	-56.117667	22.040	0.170	-0.460	0.950	21.980	-1.900	1.300																			1580066102.0	0.09	0.17
26/01/2020 19:15:03	26012020	260120	191503	21.960	12.187090	-56.117668	22.000	0.090	-0.080	0.190	21.950	-1.500	0.600																			1580066103.0	0.65	1.20
26/01/2020 19:15:04	26012020	260120	191504	21.960	12.187090	-56.117673	21.990	-0.030	0.240	-0.550	21.960	-1.200	-0.100																			1580066104.0	1.10	2.04
26/01/2020 19:15:05	26012020	260120	191505	21.990	12.187090	-56.117680	22.030	-0.080	0.340	-1.140	22.010	-1.000	-0.700																			1580066105.0	1.18	2.19
26/01/2020 19:15:06	26012020	260120	191506	22.130	12.187092	-56.117683	22.170	0.000	0.120	-1.540	22.170	-1.200	-1.200																			1580066106.0	0.84	1.56
26/01/2020 19:15:07	26012020	260120	191507	22.370	12.187093	-56.117685	22.420	0.110	-0.320	-1.650	22.430	-1.700	-1.300																			1580066107.0	0.35	0.65
26/01/2020 19:15:08	26012020	260120	191508	22.610	12.187095	-56.117682	22.640	0.100	-0.680	-1.360	22.640	-2.000	-1.100																			1580066108.0	0.51	0.94
26/01/2020 19:15:09	26012020	260120	191509	22.650	12.187095	-56.117678	22.600	-0.040	-0.630	-0.680	22.630	-2.000	-0.400																			1580066109.0	0.87	1.61
26/01/2020 19:15:10	26012020	260120	191510	22.350	12.187093	-56.117673	22.310	-0.180	-0.200	0.210	22.270	-1.600	0.400																			1580066110.0	1.06	1.96
26/01/2020 19:15:11	26012020	260120	191511	21.950	12.187090	-56.117670	21.920	-0.190	0.250	0.990	21.870	-1.200	1.200																			1580066111.0	1.07	1.98
26/01/2020 19:15:12	26012020	260120	191512	21.630	12.187087	-56.117667	21.660	-0.040	0.390	1.410	21.590	-1.000	1.700																			1580066112.0	0.77	1.43
26/01/2020 19:15:13	26012020	260120	191513	21.580	12.187087	-56.117667	21.670	0.160	0.220	1.270	21.600	-1.100	1.600																			1580066113.0	0.22	0.41
26/01/2020 19:15:14	26012020	260120	191514	21.740	12.187088	-56.117667	21.850	0.230	-0.020	0.740	21.790	-1.400	1.100																			1580066114.0	0.34	0.63
26/01/2020 19:15:15	26012020	260120	191515	21.970	12.187090	-56.117670	22.070	0.120	-0.210	0.070	22.020	-1.600	0.500																			1580066115.0	0.66	1.22
26/01/2020 19:15:16	26012020	260120	191516	22.190	12.187092	-56.117673	22.260	-0.050	-0.380	-0.530	22.230	-1.700	-0.100																			1580066116.0	0.72	1.33
26/01/2020 19:15:17	26012020	260120	191517	22.300	12.187092	-56.117675	22.330	-0.140	-0.520	-0.890	22.300	-1.900	-0.500																			1580066117.0	0.57	1.06
26/01/2020 19:15:18	26012020	260120	191518	22.270	12.187093	-56.117677	22.290	-0.090	-0.540	-0.930	22.250	-1.900	-0.600																			1580066118.0	0.31	0.57
26/01/2020 19:15:19	26012020	260120	191519	22.170	12.187093	-56.117677	22.190	0.040	-0.350	-0.650	22.150	-1.800	-0.400																			1580066119.0	0.15	0.28
26/01/2020 19:15:20	26012020	260120	191520	22.020	12.187093	-56.117673	22.050	0.110	0.030	-0.200	21.990	-1.400	0.100																			1580066120.0	0.52	0.96
26/01/2020 19:15:21	26012020	260120	191521	21.920	12.187090	-56.117670	21.970	-0.020	0.310	0.050	21.910	-1.100	0.400																			1580066121.0	0.86	1.59
26/01/2020 19:15:22	26012020	260120	191522	21.950	12.187088	-56.117668	22.030	-0.240	0.300	-0.030	21.970	-1.100	0.300																			1580066122.0	0.56	1.04
26/01/2020 19:15:23	26012020	260120	191523	22.040	12.187088	-56.117670	22.140	-0.300	0.100	-0.200	22.060	-1.300	0.100																			1580066123.0	0.14	0.26
26/01/2020 19:15:24	26012020	260120	191524	22.160	12.187090	-56.117670	22.220	-0.050	-0.160	-0.270	22.170	-1.500	0.100																			1580066124.0	0.41	0.76
26/01/2020 19:15:25	26012020	260120	191525	22.170	12.187092	-56.117672	22.210	0.350	-0.470	-0.200	22.170	-1.800	0.100																			1580066125.0	0.27	0.50
26/01/2020 19:15:26	26012020	260120	191526	22.090	12.187092	-56.117670	22.120	0.580	-0.670	0.010	22.070	-2.000	0.300																			1580066126.0	0.30	0.56
26/01/2020 19:15:27	26012020	260120	191527	21.990	12.187093	-56.117670	22.050	0.470	-0.530	0.250	21.980	-1.900	0.600																			1580066127.0	0.38	0.70
26/01/2020 19:15:28	26012020	260120	191528	22.000	12.187093	-56.117668	22.090	0.110	-0.070	0.340	22.020	-1.500	0.700																			1580066128.0	0.29	0.54
26/01/2020 19:15:29	26012020	260120	191529	22.130	12.187092	-56.117668	22.220	-0.280	0.420	0.270	22.150	-1.000	0.600																			1580066129.0	0.38	0.70
26/01/2020 19:15:30	26012020	260120	191530	22.250	12.187088	-56.117668	22.340	-0.530	0.590	0.130	22.270	-0.800	0.500																			1580066130.0	0.46	0.85
26/01/2020 19:15:31	26012020	260120	191531	22.310	12.187088	-56.117668	22.390	-0.550	0.320	0.020	22.320	-1.000	0.400																			1580066131.0	0.23	0.43
26/01/2020 19:15:32	26012020	260120	191532	22.360	12.187088	-56.117668	22.450	-0.350	-0.180	-0.090	22.380	-1.500	0.200																			1580066132.0	0.14	0.26
26/01/2020 19:15:33	26012020	260120	191533	22.440	12.187090	-56.117668	22.520	-0.050	-0.630	-0.220	22.450	-2.000	0.100																			1580066133.0	0.34	0.63
26/01/2020 19:15:34	26012020	260120	191534	22.460	12.187092	-56.117668	22.510	0.200	-0.730	-0.230	22.450	-2.100	0.100																			1580066134.0	0.33	0.61
26/01/2020 19:15:35	26012020	260120	191535	22.420	12.187092	-56.117667	22.470	0.290	-0.520	-0.130	22.410	-1.900	0.200																			1580066135.0	0.12	0.22
26/01/2020 19:15:36	26012020	260120	191536	22.380	12.187090	-56.117667	22.440	0.230	-0.220	-0.060	22.380	-1.600	0.300																			1580066136.0	0.26	0.48
26/01/2020 19:15:37	26012020	260120	191537	22.370	12.187090	-56.117667	22.430	0.200	-0.020	-0.030	22.370	-1.400	0.300																			1580066137.0	0.23	0.43
26/01/2020 19:15:38	26012020	260120	191538	22.310	12.187088	-56.117667	22.370	0.260	0.040	0.060	22.300	-1.300	0.400																			1580066138.0	0.08	0.15
26/01/2020 19:15:39	26012020	260120	191539	22.200	12.187090	-56.117667	22.260	0.360	0.020	0.200	22.190	-1.400	0.500																			1580066139.0	0.16	0.30
26/01/2020 19:15:40	26012020	260120	191540	22.200	12.187090	-56.117665	22.300	0.350	-0.050	0.190	22.230	-1.400	0.500																			1580066140.0	0.25	0.46
26/01/2020 19:15:41	26012020	260120	191541	22.390	12.187090	-56.117665	22.510	0.140	-0.090	-0.130	22.440	-1.500	0.200																			1580066141.0	0.21	0.39
26/01/2020 19:15:42	26012020	260120	191542	22.590	12.187092	-56.117665	22.690	-0.250	0.070	-0.430	22.620	-1.300	-0.100																			1580066142.0	0.27	0.50
26/01/2020 19:15:43	26012020	260120	191543	22.660	12.187092	-56.117667	22.720	-0.640	0.370	-0.450	22.650	-1.000	-0.100																			1580066143.0	0.37	0.69
26/01/2020 19:15:44	26012020	260120	191544	22.630	12.187090	-56.117668	22.710	-0.760	0.420	-0.230	22.630	-0.900	0.100																			1580066144.0	0.46	0.85
26/01/2020 19:15:45	26012020	260120	191545	22.640	12.187088	-56.117668	22.740	-0.500	-0.020	-0.000	22.650	-1.300	0.300																			1580066145.0	0.38	0.70
26/01/2020 19:15:46	26012020	260120	191546	22.680	12.187088	-56.117665	22.770	-0.040	-0.640	0.180	22.690	-2.000	0.500																			1580066146.0	0.51	0.94
26/01/2020 19:15:47	26012020	260120	191547	22.650	12.187090	-56.117662	22.700	0.320	-0.970	0.350	22.640	-2.300	0.600																			1580066147.0	0.76	1.41
26/01/2020 19:15:48	26012020	260120	191548	22.490	12.187090	-56.117660	22.550	0.430	-0.800	0.450	22.460	-2.200	0.800																			1580066148.0	0.57	1.06
26/01/2020 19:15:49	26012020	260120	191549	22.360	12.187088	-56.117658	22.440	0.370	-0.360	0.350	22.360	-1.800	0.700																			1580066149.0	0.21	0.39
26/01/2020 19:15:50	26012020	260120	191550	22.380	12.187088	-56.117660	22.470	0.280	-0.020	-0.020	22.400	-1.400	0.400																			1580066150.0	0.35	0.65
26/01/2020 19:15:51	26012020	260120	191551	22.490	12.187088	-56.117663	22.560	0.240	0.190	-0.400	22.500	-1.200	-0.000																			1580066151.0	0.72	1.33
26/01/2020 19:15:52	26012020	260120	191552	22.530	12.187090	-56.117667	22.590	0.250	0.340	-0.520	22.530	-1.100	-0.200																			1580066152.0	0.84	1.56
26/01/2020 19:15:53	26012020	260120	191553	22.530	12.187092	-56.117668	22.600	0.240	0.350	-0.370	22.530	-1.000	-0.100																			1580066153.0	0.33	0.61
26/01/2020 19:15:54	26012020	260120	191554	22.610	12.187092	-56.117667	22.700	0.070	0.110	-0.230	22.640	-1.200	0.100																			1580066154.0	0.36	0.67
26/01/2020 19:15:55	26012020	260120	191555	22.800	12.187090	-56.117663	22.900	-0.260	-0.230	-0.170	22.840	-1.600	0.100																			1580066155.0	0.70	1.30
26/01/2020 19:15:56	26012020	260120	191556	22.920	12.187090	-56.117660	22.990	-0.610	-0.330	-0.020	22.920	-1.700	0.300																			1580066156.0	0.59	1.09
26/01/2020 19:15:57	26012020	260120	191557	22.840	12.187090	-56.117660	22.870	-0.750	-0.120	0.300	22.790	-1.500	0.600																			1580066157.0	0.32	0.59
26/01/2020 19:15:58	26012020	260120	191558	22.520	12.187088	-56.117658	22.530	-0.570	0.130	0.660	22.430	-1.300	1.000																			1580066158.0	0.36	0.67
26/01/2020 19:15:59	26012020	260120	191559	22.230	12.187087	-56.117658	22.220	-0.110	0.050	0.750	22.170	-1.300	1.100	1013.60	26.40	26.30	21.10	21.10	558.00	72.00	73.00	386.00	30.30	72.00	4.40	96.00	4.30	37348	3477.00	27.80	27.90	1580066159.0	0.39	0.72
26/01/2020 19:16:00	26012020	260120	191600	22.060	12.187087	-56.117660	22.160	0.390	-0.390	0.420	22.070	-1.700	0.800																			1580066160.0	0.14	0.26
26/01/2020 19:16:01	26012020	260120	191601	22.170	12.187088	-56.117662	22.360	0.690	-0.740	-0.100	22.210	-2.100	0.300																			1580066161.0	0.57	1.06
26/01/2020 19:16:02	26012020	260120	191602	22.500	12.187092	-56.117663	22.630	0.650	-0.620	-0.560	22.540	-2.000	-0.200																			1580066162.0	0.65	1.20
26/01/2020 19:16:03	26012020	260120	191603	22.700	12.187092	-56.117665	22.800	0.320	-0.200	-0.790	22.730	-1.600	-0.400																			1580066163.0	0.36	0.67
26/01/2020 19:16:04	26012020	260120	191604	22.770	12.187090	-56.117665	22.850	-0.100	0.100	-0.850	22.780	-1.300	-0.500																			1580066164.0	0.32	0.59
26/01/2020 19:16:05	26012020	260120	191605	22.800	12.187090	-56.117667	22.870	-0.360	0.110	-0.740	22.800	-1.300	-0.400																			1580066165.0	0.16	0.30
26/01/2020 19:16:06	26012020	260120	191606	22.840	12.187092	-56.117665	22.910	-0.340	-0.010	-0.420	22.840	-1.400	-0.100																			1580066166.0	0.16	0.30
26/01/2020 19:16:07	26012020	260120	191607	22.810	12.187092	-56.117663	22.880	-0.090	-0.060	0.090	22.790	-1.400	0.300																			1580066167.0	0.46	0.85
26/01/2020 19:16:08	26012020	260120	191608	22.600	12.187092	-56.117660	22.640	0.130	0.060	0.720	22.540	-1.300	1.000																			1580066168.0	0.78	1.44
26/01/2020 19:16:09	26012020	260120	191609	22.270	12.187088	-56.117655	22.320	0.180	0.200	1.150	22.210	-1.200	1.400																			1580066169.0	0.97	1.80
26/01/2020 19:16:10	26012020	260120	191610	22.090	12.187087	-56.117653	22.200	0.070	0.100	1.110	22.100	-1.300	1.500																			1580066170.0	0.69	1.28
26/01/2020 19:16:11	26012020	260120	191611	22.230	12.187087	-56.117653	22.380	-0.080	-0.140	0.580	22.290	-1.500	1.000																			1580066171.0	0.09	0.17
26/01/2020 19:16:12	26012020	260120	191612	22.570	12.187088	-56.117657	22.730	-0.190	-0.290	-0.220	22.640	-1.700	0.200																			1580066172.0	0.86	1.59
26/01/2020 19:16:13	26012020	260120	191613	22.850	12.187092	-56.117663	23.030	-0.220	-0.270	-0.850	22.900	-1.700	-0.500																			1580066173.0	1.24	2.30
26/01/2020 19:16:14	26012020	260120	191614	23.100	12.187092	-56.117667	23.200	-0.140	-0.250	-1.040	23.120	-1.600	-0.700																			1580066174.0	0.92	1.70
26/01/2020 19:16:15	26012020	260120	191615	23.130	12.187092	-56.117668	23.190	-0.010	-0.350	-0.800	23.110	-1.700	-0.500																			1580066175.0	0.18	0.33
26/01/2020 19:16:16	26012020	260120	191616	22.960	12.187092	-56.117665	23.000	0.140	-0.460	-0.250	22.920	-1.800	0.000																			1580066176.0	0.50	0.93
26/01/2020 19:16:17	26012020	260120	191617	22.740	12.187090	-56.117662	22.800	0.320	-0.520	0.360	22.700	-1.900	0.600																			1580066177.0	0.87	1.61
26/01/2020 19:16:18	26012020	260120	191618	22.620	12.187090	-56.117657	22.720	0.450	-0.470	0.720	22.610	-1.900	1.000																			1580066178.0	0.98	1.81
26/01/2020 19:16:19	26012020	260120	191619	22.590	12.187090	-56.117653	22.700	0.370	-0.160	0.720	22.590	-1.600	1.100																			1580066179.0	0.65	1.20
26/01/2020 19:16:20	26012020	260120	191620	22.600	12.187090	-56.117653	22.700	0.060	0.390	0.430	22.600	-1.100	0.800																			1580066180.0	0.03	0.06
26/01/2020 19:16:21	26012020	260120	191621	22.580	12.187090	-56.117657	22.670	-0.280	0.840	0.070	22.580	-0.600	0.400																			1580066181.0	0.69	1.28
26/01/2020 19:16:22	26012020	260120	191622	22.590	12.187088	-56.117662	22.690	-0.440	0.740	-0.270	22.600	-0.600	0.100																			1580066182.0	0.85	1.57
26/01/2020 19:16:23	26012020	260120	191623	22.720	12.187090	-56.117663	22.850	-0.390	0.070	-0.620	22.770	-1.200	-0.300																			1580066183.0	0.52	0.96
26/01/2020 19:16:24	26012020	260120	191624	22.980	12.187092	-56.117663	23.110	-0.280	-0.590	-0.900	23.040	-1.900	-0.600																			1580066184.0	0.52	0.96
26/01/2020 19:16:25	26012020	260120	191625	23.150	12.187093	-56.117663	23.230	-0.190	-0.730	-0.890	23.160	-2.100	-0.600																			1580066185.0	0.46	0.85
26/01/2020 19:16:26	26012020	260120	191626	23.020	12.187093	-56.117663	23.030	-0.090	-0.410	-0.470	22.960	-1.800	-0.200																			1580066186.0	0.10	0.19
26/01/2020 19:16:27	26012020	260120	191627	22.710	12.187090	-56.117663	22.630	0.080	-0.160	0.190	22.620	-1.500	0.400																			1580066187.0	0.65	1.20
26/01/2020 19:16:28	26012020	260120	191628	22.300	12.187088	-56.117662	22.370	0.330	-0.370	0.680	22.280	-1.700	1.000																			1580066188.0	0.69	1.28
26/01/2020 19:16:29	26012020	260120	191629	22.320	12.187088	-56.117658	22.460	0.570	-0.890	0.670	22.370	-2.200	1.000																			1580066189.0	0.50	0.93
26/01/2020 19:16:30	26012020	260120	191630	22.600	12.187092	-56.117657	22.760	0.670	-0.980	0.390	22.670	-2.400	0.700																			1580066190.0	0.80	1.48
26/01/2020 19:16:31	26012020	260120	191631	22.900	12.187095	-56.117657	23.020	0.480	-0.240	0.170	22.940	-1.700	0.500																			1580066191.0	0.59	1.09
26/01/2020 19:16:32	26012020	260120	191632	22.980	12.187093	-56.117658	23.050	-0.000	0.880	0.110	22.960	-0.600	0.400																			1580066192.0	0.29	0.54
26/01/2020 19:16:33	26012020	260120	191633	22.800	12.187090	-56.117658	22.830	-0.540	1.530	0.140	22.740	0.100	0.500																			1580066193.0	0.88	1.63
26/01/2020 19:16:34	26012020	260120	191634	22.530	12.187087	-56.117660	22.570	-0.830	1.220	0.060	22.490	-0.100	0.400																			1580066194.0	0.71	1.31
26/01/2020 19:16:35	26012020	260120	191635	22.380	12.187087	-56.117662	22.450	-0.710	0.150	-0.280	22.380	-1.100	0.100																			1580066195.0	0.28	0.52
26/01/2020 19:16:36	26012020	260120	191636	22.400	12.187092	-56.117663	22.470	-0.290	-0.960	-0.680	22.410	-2.300	-0.300																			1580066196.0	0.96	1.78
26/01/2020 19:16:37	26012020	260120	191637	22.430	12.187097	-56.117665	22.500	0.180	-1.400	-0.840	22.430	-2.800	-0.500																			1580066197.0	1.15	2.13
26/01/2020 19:16:38	26012020	260120	191638	22.410	12.187098	-56.117667	22.460	0.450	-1.050	-0.660	22.400	-2.500	-0.400																			1580066198.0	0.56	1.04
26/01/2020 19:16:39	26012020	260120	191639	22.410	12.187097	-56.117668	22.490	0.420	-0.440	-0.390	22.430	-1.900	-0.100																			1580066199.0	0.46	0.85
26/01/2020 19:16:40	26012020	260120	191640	22.570	12.187093	-56.117667	22.670	0.190	-0.050	-0.170	22.600	-1.500	0.100																			1580066200.0	0.74	1.37
26/01/2020 19:16:41	26012020	260120	191641	22.750	12.187090	-56.117665	22.850	-0.030	0.090	0.130	22.770	-1.300	0.400																			1580066201.0	0.56	1.04
26/01/2020 19:16:42	26012020	260120	191642	22.800	12.187090	-56.117662	22.880	-0.100	0.120	0.500	22.790	-1.300	0.800																			1580066202.0	0.56	1.04
26/01/2020 19:16:43	26012020	260120	191643	22.720	12.187090	-56.117660	22.790	0.030	0.040	0.780	22.690	-1.300	1.100																			1580066203.0	0.57	1.06
26/01/2020 19:16:44	26012020	260120	191644	22.590	12.187090	-56.117657	22.650	0.260	-0.060	0.870	22.560	-1.400	1.200																			1580066204.0	0.46	0.85
26/01/2020 19:16:45	26012020	260120	191645	22.450	12.187092	-56.117657	22.510	0.400	-0.090	0.730	22.420	-1.500	1.100																			1580066205.0	0.29	0.54
26/01/2020 19:16:46	26012020	260120	191646	22.340	12.187092	-56.117657	22.400	0.290	0.010	0.360	22.320	-1.400	0.700																			1580066206.0	0.26	0.48
26/01/2020 19:16:47	26012020	260120	191647	22.310	12.187093	-56.117660	22.360	-0.070	0.180	-0.180	22.310	-1.200	0.200																			1580066207.0	0.62	1.15
26/01/2020 19:16:48	26012020	260120	191648	22.320	12.187095	-56.117665	22.370	-0.480	0.320	-0.650	22.320	-1.100	-0.300																			1580066208.0	0.98	1.81
26/01/2020 19:16:49	26012020	260120	191649	22.330	12.187095	-56.117668	22.370	-0.720	0.280	-0.930	22.340	-1.100	-0.600																			1580066209.0	0.96	1.78
26/01/2020 19:16:50	26012020	260120	191650	22.390	12.187095	-56.117672	22.440	-0.650	-0.040	-1.020	22.410	-1.400	-0.700																			1580066210.0	0.61	1.13
26/01/2020 19:16:51	26012020	260120	191651	22.520	12.187095	-56.117672	22.580	-0.320	-0.500	-0.910	22.550	-1.800	-0.600																			1580066211.0	0.10	0.19
26/01/2020 19:16:52	26012020	260120	191652	22.690	12.187095	-56.117670	22.740	0.080	-0.870	-0.670	22.720	-2.200	-0.400																			1580066212.0	0.38	0.70
26/01/2020 19:16:53	26012020	260120	191653	22.820	12.187095	-56.117668	22.870	0.390	-0.980	-0.300	22.840	-2.400	-0.000																			1580066213.0	0.64	1.19
26/01/2020 19:16:54	26012020	260120	191654	22.870	12.187095	-56.117665	22.900	0.530	-0.690	0.160	22.860	-2.100	0.400																			1580066214.0	0.70	1.30
26/01/2020 19:16:55	26012020	260120	191655	22.750	12.187093	-56.117662	22.750	0.510	-0.110	0.630	22.700	-1.500	0.900																			1580066215.0	0.63	1.17
26/01/2020 19:16:56	26012020	260120	191656	22.490	12.187092	-56.117660	22.500	0.400	0.400	0.960	22.430	-1.000	1.300																			1580066216.0	0.52	0.96
26/01/2020 19:16:57	26012020	260120	191657	22.300	12.187090	-56.117660	22.350	0.270	0.510	0.940	22.290	-0.900	1.300																			1580066217.0	0.29	0.54
26/01/2020 19:16:58	26012020	260120	191658	22.350	12.187092	-56.117660	22.440	0.100	0.210	0.470	22.380	-1.100	0.900																			1580066218.0	0.22	0.41
26/01/2020 19:16:59	26012020	260120	191659	22.560	12.187093	-56.117663	22.650	-0.110	-0.060	-0.160	22.600	-1.400	0.200	1013.60	26.30	26.30	21.00	21.00	564.00	72.00	72.00	385.00	30.30	71.00	4.30	97.00	4.20	37335	3455.00	27.80	27.90	1580066219.0	0.79	1.46
26/01/2020 19:17:00	26012020	260120	191700	22.730	12.187097	-56.117667	22.800	-0.320	0.020	-0.600	22.760	-1.400	-0.200																			1580066220.0	0.92	1.70
26/01/2020 19:17:01	26012020	260120	191701	22.820	12.187097	-56.117668	22.870	-0.440	0.160	-0.780	22.840	-1.200	-0.400																			1580066221.0	0.55	1.02
26/01/2020 19:17:02	26012020	260120	191702	22.850	12.187097	-56.117670	22.870	-0.450	0.070	-0.820	22.850	-1.300	-0.500																			1580066222.0	0.36	0.67
26/01/2020 19:17:03	26012020	260120	191703	22.840	12.187095	-56.117670	22.860	-0.380	-0.240	-0.770	22.840	-1.600	-0.400																			1580066223.0	0.18	0.33
26/01/2020 19:17:04	26012020	260120	191704	22.810	12.187095	-56.117670	22.830	-0.210	-0.530	-0.620	22.810	-1.900	-0.300																			1580066224.0	0.12	0.22
26/01/2020 19:17:05	26012020	260120	191705	22.820	12.187097	-56.117668	22.870	0.030	-0.640	-0.400	22.840	-2.000	-0.100																			1580066225.0	0.16	0.30
26/01/2020 19:17:06	26012020	260120	191706	22.930	12.187097	-56.117668	23.000	0.280	-0.600	-0.180	22.960	-2.000	0.100																			1580066226.0	0.16	0.30
26/01/2020 19:17:07	26012020	260120	191707	23.090	12.187095	-56.117667	23.160	0.410	-0.390	0.030	23.110	-1.800	0.300																			1580066227.0	0.21	0.39
26/01/2020 19:17:08	26012020	260120	191708	23.150	12.187095	-56.117667	23.200	0.370	-0.040	0.290	23.150	-1.400	0.600																			1580066228.0	0.22	0.41
26/01/2020 19:17:09	26012020	260120	191709	23.110	12.187095	-56.117665	23.160	0.250	0.250	0.570	23.100	-1.100	0.900																			1580066229.0	0.29	0.54
26/01/2020 19:17:10	26012020	260120	191710	23.100	12.187093	-56.117663	23.170	0.180	0.240	0.660	23.110	-1.100	1.000																			1580066230.0	0.34	0.63
26/01/2020 19:17:11	26012020	260120	191711	23.150	12.187093	-56.117663	23.230	0.140	0.010	0.520	23.160	-1.300	0.900																			1580066231.0	0.22	0.41
26/01/2020 19:17:12	26012020	260120	191712	23.170	12.187095	-56.117663	23.230	0.050	-0.120	0.260	23.170	-1.500	0.600																			1580066232.0	0.31	0.57
26/01/2020 19:17:13	26012020	260120	191713	23.150	12.187095	-56.117663	23.200	-0.090	-0.070	-0.030	23.140	-1.400	0.300																			1580066233.0	0.37	0.69
26/01/2020 19:17:14	26012020	260120	191714	23.140	12.187097	-56.117667	23.190	-0.210	-0.040	-0.260	23.140	-1.400	0.100																			1580066234.0	0.41	0.76
26/01/2020 19:17:15	26012020	260120	191715	23.180	12.187097	-56.117668	23.270	-0.270	-0.160	-0.520	23.190	-1.500	-0.200																			1580066235.0	0.36	0.67
26/01/2020 19:17:16	26012020	260120	191716	23.360	12.187097	-56.117668	23.440	-0.300	-0.280	-0.840	23.400	-1.600	-0.500																			1580066236.0	0.35	0.65
26/01/2020 19:17:17	26012020	260120	191717	23.520	12.187098	-56.117670	23.630	-0.330	-0.150	-1.000	23.560	-1.600	-0.700																			1580066237.0	0.39	0.72
26/01/2020 19:17:18	26012020	260120	191718	23.660	12.187098	-56.117672	23.710	-0.330	0.160	-0.820	23.660	-1.300	-0.500																			1580066238.0	0.24	0.44
26/01/2020 19:17:19	26012020	260120	191719	23.620	12.187095	-56.117672	23.660	-0.190	0.230	-0.340	23.600	-1.100	-0.100																			1580066239.0	0.50	0.93
26/01/2020 19:17:20	26012020	260120	191720	23.580	12.187093	-56.117670	23.650	0.110	-0.160	0.170	23.580	-1.500	0.400																			1580066240.0	0.66	1.22
26/01/2020 19:17:21	26012020	260120	191721	23.600	12.187093	-56.117665	23.690	0.430	-0.710	0.550	23.600	-2.000	0.800																			1580066241.0	0.80	1.48
26/01/2020 19:17:22	26012020	260120	191722	23.580	12.187093	-56.117662	23.660	0.560	-0.970	0.730	23.580	-2.300	1.000																			1580066242.0	0.84	1.56
26/01/2020 19:17:23	26012020	260120	191723	23.530	12.187095	-56.117660	23.600	0.490	-0.730	0.670	23.520	-2.200	1.000																			1580066243.0	0.43	0.80
26/01/2020 19:17:24	26012020	260120	191724	23.470	12.187097	-56.117662	23.530	0.300	-0.130	0.440	23.450	-1.600	0.800																			1580066244.0	0.34	0.63
26/01/2020 19:17:25	26012020	260120	191725	23.410	12.187097	-56.117665	23.480	0.080	0.500	0.180	23.400	-0.900	0.500																			1580066245.0	0.68	1.26
26/01/2020 19:17:26	26012020	260120	191726	23.410	12.187095	-56.117668	23.500	-0.140	0.810	-0.030	23.420	-0.600	0.300																			1580066246.0	0.71	1.31
26/01/2020 19:17:27	26012020	260120	191727	23.550	12.187095	-56.117670	23.680	-0.330	0.630	-0.330	23.600	-0.700	0.000																			1580066247.0	0.41	0.76
26/01/2020 19:17:28	26012020	260120	191728	23.830	12.187095	-56.117670	23.960	-0.470	0.160	-0.690	23.890	-1.200	-0.300																			1580066248.0	0.18	0.33
26/01/2020 19:17:29	26012020	260120	191729	24.040	12.187097	-56.117670	24.120	-0.500	-0.220	-0.820	24.050	-1.600	-0.500																			1580066249.0	0.26	0.48
26/01/2020 19:17:30	26012020	260120	191730	24.040	12.187097	-56.117670	24.080	-0.360	-0.440	-0.640	24.020	-1.800	-0.400																			1580066250.0	0.13	0.24
26/01/2020 19:17:31	26012020	260120	191731	23.910	12.187095	-56.117668	23.960	-0.080	-0.650	-0.320	23.890	-2.000	-0.000																			1580066251.0	0.35	0.65
26/01/2020 19:17:32	26012020	260120	191732	23.820	12.187095	-56.117667	23.900	0.220	-0.860	-0.010	23.810	-2.200	0.300																			1580066252.0	0.42	0.78
26/01/2020 19:17:33	26012020	260120	191733	23.810	12.187095	-56.117665	23.890	0.370	-0.790	0.220	23.810	-2.200	0.500																			1580066253.0	0.43	0.80
26/01/2020 19:17:34	26012020	260120	191734	23.790	12.187095	-56.117663	23.850	0.300	-0.240	0.370	23.760	-1.700	0.700																			1580066254.0	0.27	0.50
26/01/2020 19:17:35	26012020	260120	191735	23.640	12.187093	-56.117663	23.680	0.090	0.540	0.500	23.590	-0.900	0.800																			1580066255.0	0.35	0.65
26/01/2020 19:17:36	26012020	260120	191736	23.420	12.187092	-56.117665	23.480	-0.050	0.850	0.510	23.390	-0.500	0.800																			1580066256.0	0.67	1.24
26/01/2020 19:17:37	26012020	260120	191737	23.380	12.187090	-56.117667	23.490	0.020	0.330	0.170	23.410	-1.000	0.500																			1580066257.0	0.44	0.81
26/01/2020 19:17:38	26012020	260120	191738	23.620	12.187093	-56.117668	23.770	0.180	-0.580	-0.470	23.690	-1.900	-0.100																			1580066258.0	0.68	1.26
26/01/2020 19:17:39	26012020	260120	191739	23.940	12.187098	-56.117670	24.050	0.180	-0.970	-0.990	23.990	-2.300	-0.600																			1580066259.0	1.15	2.13
26/01/2020 19:17:40	26012020	260120	191740	24.060	12.187102	-56.117672	24.110	-0.050	-0.510	-1.030	24.050	-2.000	-0.700																			1580066260.0	0.80	1.48
26/01/2020 19:17:41	26012020	260120	191741	23.980	12.187100	-56.117673	24.030	-0.290	0.220	-0.670	23.960	-1.200	-0.400																			1580066261.0	0.48	0.89
26/01/2020 19:17:42	26012020	260120	191742	23.910	12.187095	-56.117673	23.990	-0.300	0.480	-0.170	23.910	-0.900	0.100																			1580066262.0	0.82	1.52
26/01/2020 19:17:43	26012020	260120	191743	23.930	12.187093	-56.117672	24.030	-0.120	0.170	0.280	23.930	-1.200	0.600																			1580066263.0	0.90	1.67
26/01/2020 19:17:44	26012020	260120	191744	23.950	12.187092	-56.117667	24.050	-0.010	-0.210	0.640	23.940	-1.600	0.900																			1580066264.0	1.08	2.00
26/01/2020 19:17:45	26012020	260120	191745	23.860	12.187092	-56.117662	23.930	-0.090	-0.240	0.880	23.820	-1.600	1.200																			1580066265.0	0.94	1.74
26/01/2020 19:17:46	26012020	260120	191746	23.650	12.187090	-56.117660	23.710	-0.210	-0.060	0.860	23.600	-1.500	1.200																			1580066266.0	0.46	0.85
26/01/2020 19:17:47	26012020	260120	191747	23.480	12.187090	-56.117662	23.550	-0.150	-0.080	0.510	23.460	-1.500	0.900																			1580066267.0	0.43	0.80
26/01/2020 19:17:48	26012020	260120	191748	23.420	12.187090	-56.117665	23.500	0.170	-0.440	-0.120	23.430	-1.800	0.300																			1580066268.0	0.85	1.57
26/01/2020 19:17:49	26012020	260120	191749	23.470	12.187093	-56.117670	23.550	0.540	-0.780	-0.800	23.490	-2.100	-0.400																			1580066269.0	1.28	2.37
26/01/2020 19:17:50	26012020	260120	191750	23.590	12.187098	-56.117675	23.650	0.680	-0.700	-1.220	23.600	-2.100	-0.900																			1580066270.0	1.27	2.35
26/01/2020 19:17:51	26012020	260120	191751	23.650	12.187100	-56.117677	23.690	0.430	-0.120	-1.140	23.650	-1.600	-0.800																			1580066271.0	0.68	1.26
26/01/2020 19:17:52	26012020	260120	191752	23.650	12.187098	-56.117678	23.710	-0.100	0.500	-0.730	23.650	-0.900	-0.400																			1580066272.0	0.34	0.63
26/01/2020 19:17:53	26012020	260120	191753	23.680	12.187095	-56.117677	23.780	-0.570	0.690	-0.290	23.690	-0.700	-0.000																			1580066273.0	0.73	1.35
26/01/2020 19:17:54	26012020	260120	191754	23.810	12.187093	-56.117673	23.910	-0.700	0.410	0.080	23.830	-0.900	0.400																			1580066274.0	0.70	1.30
26/01/2020 19:17:55	26012020	260120	191755	23.920	12.187092	-56.117670	24.010	-0.470	-0.030	0.480	23.930	-1.400	0.800																			1580066275.0	0.73	1.35
26/01/2020 19:17:56	26012020	260120	191756	23.930	12.187092	-56.117667	24.010	-0.090	-0.360	0.890	23.920	-1.700	1.200																			1580066276.0	0.83	1.54
26/01/2020 19:17:57	26012020	260120	191757	23.770	12.187092	-56.117663	23.810	0.220	-0.460	1.220	23.710	-1.800	1.500																			1580066277.0	0.78	1.44
26/01/2020 19:17:58	26012020	260120	191758	23.430	12.187090	-56.117660	23.460	0.350	-0.440	1.320	23.360	-1.800	1.600																			1580066278.0	0.55	1.02
26/01/2020 19:17:59	26012020	260120	191759	23.130	12.187090	-56.117660	23.190	0.340	-0.480	0.990	23.100	-1.900	1.400	1013.60	26.40	26.30	20.90	21.00	555.00	72.00	72.00	385.00	30.30	70.00	4.10	96.00	4.10	36870	3387.00	27.80	27.80	1580066279.0	0.11	0.20
26/01/2020 19:18:00	26012020	260120	191800	23.080	12.187090	-56.117663	23.170	0.270	-0.520	0.190	23.100	-1.900	0.600																			1580066280.0	0.75	1.39
26/01/2020 19:18:01	26012020	260120	191801	23.300	12.187095	-56.117670	23.400	0.200	-0.400	-0.830	23.360	-1.800	-0.400																			1580066281.0	1.43	2.65
26/01/2020 19:18:02	26012020	260120	191802	23.590	12.187097	-56.117677	23.670	0.110	-0.020	-1.540	23.630	-1.500	-1.200																			1580066282.0	1.57	2.91
26/01/2020 19:18:03	26012020	260120	191803	23.760	12.187098	-56.117682	23.820	-0.050	0.420	-1.640	23.790	-1.000	-1.300																			1580066283.0	1.01	1.87
26/01/2020 19:18:04	26012020	260120	191804	23.850	12.187097	-56.117682	23.890	-0.250	0.560	-1.280	23.850	-0.800	-1.000																			1580066284.0	0.33	0.61
26/01/2020 19:18:05	26012020	260120	191805	23.820	12.187095	-56.117678	23.820	-0.420	0.340	-0.650	23.800	-1.000	-0.400																			1580066285.0	0.69	1.28
26/01/2020 19:18:06	26012020	260120	191806	23.570	12.187093	-56.117675	23.600	-0.430	0.020	0.150	23.520	-1.400	0.400																			1580066286.0	0.85	1.57
26/01/2020 19:18:07	26012020	260120	191807	23.320	12.187093	-56.117672	23.400	-0.210	-0.290	0.870	23.300	-1.700	1.100																			1580066287.0	0.86	1.59
26/01/2020 19:18:08	26012020	260120	191808	23.290	12.187092	-56.117668	23.420	0.130	-0.640	1.250	23.310	-2.000	1.500																			1580066288.0	0.76	1.41
26/01/2020 19:18:09	26012020	260120	191809	23.470	12.187092	-56.117665	23.610	0.340	-0.880	1.180	23.510	-2.300	1.500																			1580066289.0	0.58	1.07
26/01/2020 19:18:10	26012020	260120	191810	23.650	12.187093	-56.117663	23.760	0.270	-0.720	0.870	23.680	-2.200	1.200																			1580066290.0	0.32	0.59
26/01/2020 19:18:11	26012020	260120	191811	23.660	12.187093	-56.117665	23.710	0.040	-0.110	0.570	23.630	-1.600	0.900																			1580066291.0	0.20	0.37
26/01/2020 19:18:12	26012020	260120	191812	23.430	12.187092	-56.117667	23.450	-0.110	0.490	0.280	23.370	-1.000	0.600																			1580066292.0	0.59	1.09
26/01/2020 19:18:13	26012020	260120	191813	23.160	12.187092	-56.117670	23.190	-0.020	0.560	-0.210	23.130	-0.800	0.200																			1580066293.0	0.75	1.39
26/01/2020 19:18:14	26012020	260120	191814	23.080	12.187092	-56.117673	23.140	0.190	0.110	-0.860	23.090	-1.200	-0.500																			1580066294.0	0.83	1.54
26/01/2020 19:18:15	26012020	260120	191815	23.240	12.187097	-56.117678	23.340	0.290	-0.410	-1.470	23.300	-1.800	-1.100																			1580066295.0	1.11	2.06
26/01/2020 19:18:16	26012020	260120	191816	23.580	12.187100	-56.117680	23.670	0.160	-0.620	-1.850	23.640	-2.000	-1.500																			1580066296.0	1.08	2.00
26/01/2020 19:18:17	26012020	260120	191817	23.840	12.187103	-56.117682	23.910	-0.140	-0.360	-1.680	23.870	-1.800	-1.400																			1580066297.0	0.62	1.15
26/01/2020 19:18:18	26012020	260120	191818	23.860	12.187102	-56.117682	23.890	-0.450	0.210	-0.830	23.830	-1.300	-0.600																			1580066298.0	0.29	0.54
26/01/2020 19:18:19	26012020	260120	191819	23.630	12.187097	-56.117678	23.660	-0.640	0.610	0.360	23.570	-0.800	0.600																			1580066299.0	1.29	2.39
26/01/2020 19:18:20	26012020	260120	191820	23.330	12.187092	-56.117672	23.390	-0.580	0.430	1.310	23.290	-0.900	1.600																			1580066300.0	1.76	3.26
26/01/2020 19:18:21	26012020	260120	191821	23.190	12.187088	-56.117667	23.300	-0.280	-0.300	1.650	23.180	-1.600	2.000																			1580066301.0	1.42	2.63
26/01/2020 19:18:22	26012020	260120	191822	23.210	12.187090	-56.117663	23.340	0.150	-0.990	1.520	23.230	-2.300	1.900																			1580066302.0	0.74	1.37
26/01/2020 19:18:23	26012020	260120	191823	23.270	12.187093	-56.117663	23.390	0.540	-1.080	1.150	23.290	-2.500	1.500																			1580066303.0	0.78	1.44
26/01/2020 19:18:24	26012020	260120	191824	23.330	12.187095	-56.117667	23.430	0.800	-0.640	0.640	23.350	-2.100	1.000																			1580066304.0	1.00	1.85
26/01/2020 19:18:25	26012020	260120	191825	23.410	12.187097	-56.117672	23.490	0.780	-0.070	0.010	23.430	-1.500	0.400																			1580066305.0	0.95	1.76
26/01/2020 19:18:26	26012020	260120	191826	23.520	12.187097	-56.117675	23.590	0.370	0.370	-0.560	23.540	-1.100	-0.200																			1580066306.0	0.75	1.39
26/01/2020 19:18:27	26012020	260120	191827	23.640	12.187097	-56.117678	23.710	-0.260	0.630	-0.890	23.660	-0.800	-0.500																			1580066307.0	0.53	0.98
26/01/2020 19:18:28	26012020	260120	191828	23.750	12.187097	-56.117678	23.820	-0.750	0.610	-1.020	23.770	-0.800	-0.700																			1580066308.0	0.27	0.50
26/01/2020 19:18:29	26012020	260120	191829	23.820	12.187095	-56.117678	23.890	-0.840	0.230	-1.050	23.830	-1.100	-0.700																			1580066309.0	0.08	0.15
26/01/2020 19:18:30	26012020	260120	191830	23.860	12.187097	-56.117678	23.900	-0.510	-0.330	-0.900	23.850	-1.700	-0.600																			1580066310.0	0.22	0.41
26/01/2020 19:18:31	26012020	260120	191831	23.770	12.187098	-56.117678	23.740	-0.010	-0.610	-0.410	23.730	-2.000	-0.200																			1580066311.0	0.41	0.76
26/01/2020 19:18:32	26012020	260120	191832	23.400	12.187098	-56.117675	23.410	0.340	-0.410	0.310	23.330	-1.800	0.500																			1580066312.0	0.45	0.83
26/01/2020 19:18:33	26012020	260120	191833	23.060	12.187095	-56.117673	23.100	0.360	-0.100	0.910	23.010	-1.500	1.200																			1580066313.0	0.82	1.52
26/01/2020 19:18:34	26012020	260120	191834	22.950	12.187092	-56.117670	23.050	0.140	-0.180	0.970	22.970	-1.500	1.300																			1580066314.0	0.86	1.59
26/01/2020 19:18:35	26012020	260120	191835	23.210	12.187092	-56.117670	23.370	-0.110	-0.600	0.350	23.310	-2.000	0.800																			1580066315.0	0.07	0.13
26/01/2020 19:18:36	26012020	260120	191836	23.740	12.187095	-56.117673	23.890	-0.200	-0.750	-0.450	23.850	-2.200	-0.000																			1580066316.0	1.03	1.91
26/01/2020 19:18:37	26012020	260120	191837	24.210	12.187100	-56.117678	24.310	-0.070	-0.290	-0.890	24.280	-1.800	-0.500																			1580066317.0	1.33	2.46
26/01/2020 19:18:38	26012020	260120	191838	24.380	12.187100	-56.117682	24.400	0.180	0.400	-0.720	24.360	-1.100	-0.400																			1580066318.0	0.77	1.43
26/01/2020 19:18:39	26012020	260120	191839	24.210	12.187097	-56.117682	24.210	0.330	0.660	-0.120	24.150	-0.700	0.100																			1580066319.0	0.62	1.15
26/01/2020 19:18:40	26012020	260120	191840	23.950	12.187093	-56.117677	23.970	0.260	0.240	0.450	23.910	-1.100	0.700																			1580066320.0	1.13	2.09
26/01/2020 19:18:41	26012020	260120	191841	23.810	12.187093	-56.117672	23.870	0.060	-0.400	0.680	23.810	-1.800	1.000																			1580066321.0	1.09	2.02
26/01/2020 19:18:42	26012020	260120	191842	23.870	12.187095	-56.117670	23.960	-0.090	-0.670	0.510	23.900	-2.100	0.900																			1580066322.0	0.67	1.24
26/01/2020 19:18:43	26012020	260120	191843	23.980	12.187097	-56.117670	24.060	-0.160	-0.370	0.190	23.990	-1.800	0.500																			1580066323.0	0.32	0.59
26/01/2020 19:18:44	26012020	260120	191844	23.980	12.187097	-56.117673	24.000	-0.240	0.200	-0.030	23.950	-1.300	0.300																			1580066324.0	0.61	1.13
26/01/2020 19:18:45	26012020	260120	191845	23.790	12.187095	-56.117677	23.790	-0.340	0.530	-0.190	23.740	-0.900	0.200																			1580066325.0	0.88	1.63
26/01/2020 19:18:46	26012020	260120	191846	23.610	12.187095	-56.117680	23.650	-0.290	0.290	-0.370	23.600	-1.100	-0.000																			1580066326.0	0.81	1.50
26/01/2020 19:18:47	26012020	260120	191847	23.710	12.187095	-56.117683	23.810	-0.010	-0.480	-0.680	23.770	-1.800	-0.300																			1580066327.0	0.55	1.02
26/01/2020 19:18:48	26012020	260120	191848	24.080	12.187098	-56.117683	24.190	0.330	-1.140	-0.900	24.160	-2.500	-0.600																			1580066328.0	0.73	1.35
26/01/2020 19:18:49	26012020	260120	191849	24.400	12.187102	-56.117682	24.470	0.430	-1.040	-0.780	24.440	-2.500	-0.500																			1580066329.0	0.71	1.31
26/01/2020 19:18:50	26012020	260120	191850	24.460	12.187102	-56.117680	24.460	0.170	-0.210	-0.380	24.420	-1.700	-0.100																			1580066330.0	0.49	0.91
26/01/2020 19:18:51	26012020	260120	191851	24.180	12.187097	-56.117678	24.150	-0.200	0.750	0.210	24.100	-0.700	0.500																			1580066331.0	0.89	1.65
26/01/2020 19:18:52	26012020	260120	191852	23.760	12.187092	-56.117677	23.760	-0.330	1.060	0.780	23.680	-0.300	1.100																			1580066332.0	1.08	2.00
26/01/2020 19:18:53	26012020	260120	191853	23.520	12.187090	-56.117675	23.590	-0.090	0.390	0.960	23.510	-0.900	1.300																			1580066333.0	0.64	1.19
26/01/2020 19:18:54	26012020	260120	191854	23.610	12.187092	-56.117673	23.710	0.270	-0.690	0.610	23.640	-2.000	1.000																			1580066334.0	0.55	1.02
26/01/2020 19:18:55	26012020	260120	191855	23.750	12.187097	-56.117673	23.840	0.400	-1.150	0.090	23.770	-2.500	0.500																			1580066335.0	1.12	2.07
26/01/2020 19:18:56	26012020	260120	191856	23.770	12.187100	-56.117677	23.790	0.190	-0.620	-0.290	23.740	-2.100	0.100																			1580066336.0	0.87	1.61
26/01/2020 19:18:57	26012020	260120	191857	23.630	12.187100	-56.117680	23.580	-0.140	0.280	-0.390	23.580	-1.200	-0.100																			1580066337.0	0.82	1.52
26/01/2020 19:18:58	26012020	260120	191858	23.390	12.187097	-56.117683	23.410	-0.300	0.660	-0.370	23.370	-0.700	-0.000																			1580066338.0	0.99	1.83
26/01/2020 19:18:59	26012020	260120	191859	23.370	12.187095	-56.117683	23.430	-0.260	0.300	-0.440	23.390	-1.000	-0.100	1013.60	26.40	26.30	20.80	20.90	530.00	71.00	72.00	384.00	30.30	69.00	3.60	99.00	3.40	35900	3362.00	27.80	27.80	1580066339.0	0.45	0.83
26/01/2020 19:19:00	26012020	260120	191900	23.480	12.187095	-56.117683	23.550	-0.170	-0.250	-0.580	23.510	-1.600	-0.200																			1580066340.0	0.30	0.56
26/01/2020 19:19:01	26012020	260120	191901	23.590	12.187098	-56.117683	23.650	-0.140	-0.490	-0.640	23.610	-1.900	-0.300																			1580066341.0	0.50	0.93
26/01/2020 19:19:02	26012020	260120	191902	23.640	12.187098	-56.117683	23.690	-0.090	-0.420	-0.500	23.640	-1.800	-0.200																			1580066342.0	0.16	0.30
26/01/2020 19:19:03	26012020	260120	191903	23.570	12.187098	-56.117683	23.600	0.090	-0.330	-0.140	23.540	-1.700	0.100																			1580066343.0	0.21	0.39
26/01/2020 19:19:04	26012020	260120	191904	23.360	12.187097	-56.117682	23.370	0.370	-0.320	0.320	23.310	-1.700	0.600																			1580066344.0	0.36	0.67
26/01/2020 19:19:05	26012020	260120	191905	23.090	12.187097	-56.117680	23.110	0.560	-0.310	0.720	23.040	-1.700	1.000																			1580066345.0	0.46	0.85
26/01/2020 19:19:06	26012020	260120	191906	22.880	12.187097	-56.117677	22.940	0.480	-0.160	0.870	22.870	-1.600	1.200																			1580066346.0	0.40	0.74
26/01/2020 19:19:07	26012020	260120	191907	22.860	12.187097	-56.117677	22.950	0.180	0.150	0.720	22.870	-1.300	1.100																			1580066347.0	0.09	0.17
26/01/2020 19:19:08	26012020	260120	191908	22.960	12.187095	-56.117678	23.060	-0.190	0.460	0.380	22.990	-1.000	0.800																			1580066348.0	0.27	0.50
26/01/2020 19:19:09	26012020	260120	191909	23.060	12.187095	-56.117680	23.130	-0.450	0.480	-0.010	23.070	-0.900	0.400																			1580066349.0	0.43	0.80
26/01/2020 19:19:10	26012020	260120	191910	23.050	12.187095	-56.117682	23.110	-0.530	0.180	-0.380	23.040	-1.200	-0.000																			1580066350.0	0.38	0.70
26/01/2020 19:19:11	26012020	260120	191911	22.990	12.187097	-56.117683	23.040	-0.420	-0.260	-0.690	22.980	-1.600	-0.300																			1580066351.0	0.35	0.65
26/01/2020 19:19:12	26012020	260120	191912	22.970	12.187097	-56.117685	23.030	-0.200	-0.620	-0.940	22.980	-2.000	-0.600																			1580066352.0	0.41	0.76
26/01/2020 19:19:13	26012020	260120	191913	23.000	12.187098	-56.117687	23.050	0.090	-0.740	-1.010	23.000	-2.100	-0.700																			1580066353.0	0.47	0.87
26/01/2020 19:19:14	26012020	260120	191914	22.960	12.187100	-56.117687	22.990	0.350	-0.550	-0.800	22.930	-2.000	-0.500																			1580066354.0	0.32	0.59
26/01/2020 19:19:15	26012020	260120	191915	22.850	12.187098	-56.117687	22.900	0.480	-0.260	-0.430	22.840	-1.700	-0.100																			1580066355.0	0.15	0.28
26/01/2020 19:19:16	26012020	260120	191916	22.790	12.187098	-56.117687	22.850	0.440	-0.040	0.010	22.770	-1.500	0.300																			1580066356.0	0.42	0.78
26/01/2020 19:19:17	26012020	260120	191917	22.740	12.187097	-56.117683	22.820	0.270	0.110	0.450	22.740	-1.300	0.700																			1580066357.0	0.58	1.07
26/01/2020 19:19:18	26012020	260120	191918	22.800	12.187095	-56.117680	22.920	0.060	0.120	0.650	22.840	-1.300	1.000																			1580066358.0	0.65	1.20
26/01/2020 19:19:19	26012020	260120	191919	23.030	12.187095	-56.117678	23.170	-0.130	-0.050	0.510	23.090	-1.400	0.900																			1580066359.0	0.46	0.85
26/01/2020 19:19:20	26012020	260120	191920	23.250	12.187095	-56.117678	23.340	-0.270	-0.130	0.250	23.260	-1.500	0.600																			1580066360.0	0.23	0.43
26/01/2020 19:19:21	26012020	260120	191921	23.240	12.187097	-56.117678	23.230	-0.340	0.150	0.120	23.210	-1.300	0.500																			1580066361.0	0.38	0.70
26/01/2020 19:19:22	26012020	260120	191922	22.900	12.187097	-56.117682	22.890	-0.300	0.530	0.190	22.820	-0.900	0.500																			1580066362.0	0.47	0.87
26/01/2020 19:19:23	26012020	260120	191923	22.600	12.187095	-56.117683	22.640	-0.160	0.330	0.110	22.570	-1.000	0.500																			1580066363.0	0.57	1.06
26/01/2020 19:19:24	26012020	260120	191924	22.650	12.187095	-56.117683	22.760	0.050	-0.510	-0.350	22.700	-1.800	0.000																			1580066364.0	0.20	0.37
26/01/2020 19:19:25	26012020	260120	191925	23.060	12.187098	-56.117685	23.190	0.230	-1.250	-0.970	23.160	-2.600	-0.600																			1580066365.0	0.80	1.48
26/01/2020 19:19:26	26012020	260120	191926	23.480	12.187102	-56.117687	23.570	0.270	-1.140	-1.300	23.540	-2.600	-1.000																			1580066366.0	0.93	1.72
26/01/2020 19:19:27	26012020	260120	191927	23.670	12.187103	-56.117687	23.710	0.140	-0.270	-1.140	23.680	-1.800	-0.900																			1580066367.0	0.18	0.33
26/01/2020 19:19:28	26012020	260120	191928	23.610	12.187098	-56.117687	23.620	-0.030	0.580	-0.620	23.580	-0.900	-0.400																			1580066368.0	0.78	1.44
26/01/2020 19:19:29	26012020	260120	191929	23.410	12.187095	-56.117685	23.420	-0.100	0.800	-0.000	23.360	-0.600	0.300																			1580066369.0	0.94	1.74
26/01/2020 19:19:30	26012020	260120	191930	23.160	12.187093	-56.117683	23.210	0.010	0.400	0.510	23.130	-0.900	0.800																			1580066370.0	0.58	1.07
26/01/2020 19:19:31	26012020	260120	191931	23.130	12.187093	-56.117682	23.250	0.210	-0.270	0.720	23.170	-1.600	1.000																			1580066371.0	0.56	1.04
26/01/2020 19:19:32	26012020	260120	191932	23.410	12.187097	-56.117678	23.560	0.320	-0.750	0.620	23.480	-2.100	1.000																			1580066372.0	0.65	1.20
26/01/2020 19:19:33	26012020	260120	191933	23.690	12.187098	-56.117678	23.870	0.220	-0.720	0.400	23.750	-2.100	0.700																			1580066373.0	0.46	0.85
26/01/2020 19:19:34	26012020	260120	191934	23.920	12.187098	-56.117678	24.000	-0.010	-0.280	0.290	23.930	-1.700	0.600																			1580066374.0	0.17	0.31
26/01/2020 19:19:35	26012020	260120	191935	23.940	12.187097	-56.117680	24.000	-0.190	0.160	0.290	23.940	-1.300	0.600																			1580066375.0	0.37	0.69
26/01/2020 19:19:36	26012020	260120	191936	23.920	12.187095	-56.117680	23.980	-0.290	0.330	0.200	23.920	-1.100	0.500																			1580066376.0	0.42	0.78
26/01/2020 19:19:37	26012020	260120	191937	23.870	12.187093	-56.117680	23.920	-0.380	0.300	0.020	23.860	-1.100	0.400																			1580066377.0	0.19	0.35
26/01/2020 19:19:38	26012020	260120	191938	23.800	12.187095	-56.117680	23.850	-0.420	0.210	-0.240	23.790	-1.200	0.100																			1580066378.0	0.16	0.30
26/01/2020 19:19:39	26012020	260120	191939	23.810	12.187095	-56.117682	23.880	-0.270	-0.050	-0.540	23.830	-1.400	-0.200																			1580066379.0	0.47	0.87
26/01/2020 19:19:40	26012020	260120	191940	23.970	12.187097	-56.117685	24.050	0.110	-0.510	-0.820	24.010	-1.800	-0.500																			1580066380.0	0.53	0.98
26/01/2020 19:19:41	26012020	260120	191941	24.180	12.187098	-56.117685	24.260	0.540	-0.920	-0.960	24.220	-2.300	-0.600																			1580066381.0	0.50	0.93
26/01/2020 19:19:42	26012020	260120	191942	24.320	12.187100	-56.117685	24.370	0.720	-0.910	-0.850	24.330	-2.300	-0.500																			1580066382.0	0.47	0.87
26/01/2020 19:19:43	26012020	260120	191943	24.350	12.187100	-56.117683	24.400	0.490	-0.370	-0.490	24.350	-1.800	-0.200																			1580066383.0	0.27	0.50
26/01/2020 19:19:44	26012020	260120	191944	24.360	12.187098	-56.117683	24.430	0.020	0.350	-0.010	24.360	-1.100	0.300																			1580066384.0	0.52	0.96
26/01/2020 19:19:45	26012020	260120	191945	24.400	12.187095	-56.117682	24.530	-0.370	0.760	0.400	24.420	-0.700	0.700																			1580066385.0	0.72	1.33
26/01/2020 19:19:46	26012020	260120	191946	24.540	12.187093	-56.117680	24.660	-0.430	0.620	0.710	24.570	-0.700	1.000																			1580066386.0	0.54	1.00
26/01/2020 19:19:47	26012020	260120	191947	24.630	12.187092	-56.117678	24.770	-0.250	0.120	0.940	24.650	-1.200	1.200																			1580066387.0	0.50	0.93
26/01/2020 19:19:48	26012020	260120	191948	24.660	12.187093	-56.117675	24.760	-0.080	-0.360	1.010	24.650	-1.700	1.300																			1580066388.0	0.71	1.31
26/01/2020 19:19:49	26012020	260120	191949	24.590	12.187093	-56.117672	24.680	-0.080	-0.640	0.750	24.580	-2.000	1.100																			1580066389.0	0.55	1.02
26/01/2020 19:19:50	26012020	260120	191950	24.590	12.187095	-56.117673	24.700	-0.150	-0.650	0.220	24.600	-2.100	0.600																			1580066390.0	0.25	0.46
26/01/2020 19:19:51	26012020	260120	191951	24.770	12.187097	-56.117677	24.910	-0.070	-0.450	-0.450	24.830	-1.900	-0.100																			1580066391.0	0.84	1.56
26/01/2020 19:19:52	26012020	260120	191952	25.080	12.187097	-56.117682	25.200	0.180	-0.170	-1.010	25.140	-1.600	-0.600																			1580066392.0	1.01	1.87
26/01/2020 19:19:53	26012020	260120	191953	25.260	12.187098	-56.117685	25.340	0.360	0.120	-1.220	25.280	-1.300	-0.900																			1580066393.0	0.74	1.37
26/01/2020 19:19:54	26012020	260120	191954	25.260	12.187098	-56.117687	25.310	0.280	0.290	-1.090	25.240	-1.100	-0.800																			1580066394.0	0.29	0.54
26/01/2020 19:19:55	26012020	260120	191955	25.200	12.187097	-56.117685	25.280	0.020	0.220	-0.770	25.200	-1.200	-0.500																			1580066395.0	0.25	0.46
26/01/2020 19:19:56	26012020	260120	191956	25.250	12.187095	-56.117683	25.370	-0.210	-0.100	-0.340	25.280	-1.500	-0.100																			1580066396.0	0.41	0.76
26/01/2020 19:19:57	26012020	260120	191957	25.430	12.187095	-56.117682	25.580	-0.220	-0.450	0.070	25.480	-1.800	0.300																			1580066397.0	0.55	1.02
26/01/2020 19:19:58	26012020	260120	191958	25.660	12.187097	-56.117678	25.830	-0.070	-0.620	0.380	25.710	-2.000	0.700																			1580066398.0	0.63	1.17
26/01/2020 19:19:59	26012020	260120	191959	25.850	12.187097	-56.117675	26.020	0.100	-0.430	0.670	25.880	-1.900	0.900	1013.60	26.40	26.30	20.90	20.90	535.00	72.00	72.00	384.00	30.30	67.00	3.50	94.00	3.40	35845	3268.00	27.80	27.90	1580066399.0	0.58	1.07
26/01/2020 19:20:00	26012020	260120	192000	25.940	12.187095	-56.117673	26.100	0.170	-0.030	0.920	25.960	-1.500	1.200																			1580066400.0	0.60	1.11
26/01/2020 19:20:01	26012020	260120	192001	25.970	12.187092	-56.117672	26.120	0.100	0.310	0.990	25.970	-1.100	1.300																			1580066401.0	0.65	1.20
26/01/2020 19:20:02	26012020	260120	192002	26.000	12.187090	-56.117670	26.160	-0.070	0.330	0.670	26.010	-1.100	1.000																			1580066402.0	0.42	0.78
26/01/2020 19:20:03	26012020	260120	192003	26.100	12.187090	-56.117672	26.270	-0.220	0.130	0.010	26.130	-1.200	0.400																			1580066403.0	0.35	0.65
26/01/2020 19:20:04	26012020	260120	192004	26.280	12.187093	-56.117677	26.450	-0.240	-0.120	-0.700	26.320	-1.500	-0.300																			1580066404.0	1.01	1.87
26/01/2020 19:20:05	26012020	260120	192005	26.500	12.187095	-56.117682	26.660	-0.060	-0.370	-1.150	26.550	-1.700	-0.800																			1580066405.0	1.20	2.22
26/01/2020 19:20:06	26012020	260120	192006	26.750	12.187098	-56.117683	26.910	0.180	-0.550	-1.280	26.800	-1.900	-1.000																			1580066406.0	0.78	1.44
26/01/2020 19:20:07	26012020	260120	192007	26.980	12.187098	-56.117683	27.130	0.250	-0.530	-1.070	27.020	-1.900	-0.800																			1580066407.0	0.17	0.31
26/01/2020 19:20:08	26012020	260120	192008	27.110	12.187097	-56.117682	27.250	0.040	-0.250	-0.590	27.130	-1.700	-0.300																			1580066408.0	0.60	1.11
26/01/2020 19:20:09	26012020	260120	192009	27.160	12.187095	-56.117678	27.320	-0.250	0.140	0.030	27.170	-1.300	0.300																			1580066409.0	0.96	1.78
26/01/2020 19:20:10	26012020	260120	192010	27.260	12.187090	-56.117675	27.430	-0.310	0.250	0.550	27.290	-1.100	0.800																			1580066410.0	1.03	1.91
26/01/2020 19:20:11	26012020	260120	192011	27.380	12.187088	-56.117672	27.580	-0.010	-0.030	0.840	27.410	-1.400	1.100																			1580066411.0	0.75	1.39
26/01/2020 19:20:12	26012020	260120	192012	27.520	12.187088	-56.117668	27.680	0.380	-0.350	0.950	27.530	-1.700	1.300																			1580066412.0	0.59	1.09
26/01/2020 19:20:13	26012020	260120	192013	27.590	12.187090	-56.117667	27.750	0.500	-0.410	0.820	27.610	-1.800	1.200																			1580066413.0	0.52	0.96
26/01/2020 19:20:14	26012020	260120	192014	27.780	12.187090	-56.117667	27.970	0.220	-0.220	0.340	27.830	-1.600	0.700																			1580066414.0	0.17	0.31
26/01/2020 19:20:15	26012020	260120	192015	28.130	12.187092	-56.117670	28.310	-0.220	0.150	-0.310	28.200	-1.300	0.100																			1580066415.0	0.69	1.28
26/01/2020 19:20:16	26012020	260120	192016	28.410	12.187092	-56.117675	28.560	-0.500	0.560	-0.700	28.440	-0.900	-0.400																			1580066416.0	1.09	2.02
26/01/2020 19:20:17	26012020	260120	192017	28.530	12.187092	-56.117680	28.660	-0.450	0.560	-0.710	28.540	-0.800	-0.400																			1580066417.0	0.89	1.65
26/01/2020 19:20:18	26012020	260120	192018	28.630	12.187090	-56.117680	28.780	-0.150	-0.100	-0.540	28.660	-1.400	-0.200																			1580066418.0	0.28	0.52
26/01/2020 19:20:19	26012020	260120	192019	28.850	12.187090	-56.117677	29.040	0.150	-0.940	-0.390	28.910	-2.300	-0.100																			1580066419.0	0.58	1.07
26/01/2020 19:20:20	26012020	260120	192020	29.120	12.187092	-56.117673	29.300	0.250	-1.220	-0.210	29.170	-2.600	0.100																			1580066420.0	0.91	1.69
26/01/2020 19:20:21	26012020	260120	192021	29.270	12.187092	-56.117670	29.440	0.160	-0.690	0.140	29.290	-2.200	0.400																			1580066421.0	0.62	1.15
26/01/2020 19:20:22	26012020	260120	192022	29.290	12.187090	-56.117670	29.430	0.050	0.140	0.590	29.280	-1.300	0.900																			1580066422.0	0.63	1.17
26/01/2020 19:20:23	26012020	260120	192023	29.280	12.187085	-56.117668	29.480	0.060	0.550	0.860	29.300	-0.900	1.200																			1580066423.0	0.88	1.63
26/01/2020 19:20:24	26012020	260120	192024	29.530	12.187083	-56.117667	29.750	0.120	0.290	0.650	29.600	-1.100	1.000																			1580066424.0	0.57	1.06
26/01/2020 19:20:25	26012020	260120	192025	29.940	12.187085	-56.117667	30.150	0.060	-0.140	0.110	30.010	-1.500	0.500																			1580066425.0	0.34	0.63
26/01/2020 19:20:26	26012020	260120	192026	30.270	12.187088	-56.117667	30.420	-0.130	-0.200	-0.400	30.300	-1.600	-0.000																			1580066426.0	0.65	1.20
26/01/2020 19:20:27	26012020	260120	192027	30.340	12.187090	-56.117670	30.450	-0.300	0.100	-0.640	30.330	-1.300	-0.300																			1580066427.0	0.68	1.26
26/01/2020 19:20:28	26012020	260120	192028	30.280	12.187088	-56.117673	30.390	-0.270	0.220	-0.660	30.280	-1.200	-0.300																			1580066428.0	0.76	1.41
26/01/2020 19:20:29	26012020	260120	192029	30.330	12.187088	-56.117675	30.470	-0.020	-0.070	-0.590	30.360	-1.400	-0.300																			1580066429.0	0.51	0.94
26/01/2020 19:20:30	26012020	260120	192030	30.570	12.187090	-56.117675	30.750	0.250	-0.500	-0.480	30.650	-1.900	-0.200																			1580066430.0	0.15	0.28
26/01/2020 19:20:31	26012020	260120	192031	30.980	12.187090	-56.117673	31.190	0.310	-0.670	-0.310	31.080	-2.100	-0.000																			1580066431.0	0.46	0.85
26/01/2020 19:20:32	26012020	260120	192032	31.440	12.187088	-56.117670	31.650	0.120	-0.470	-0.050	31.530	-1.900	0.200																			1580066432.0	0.64	1.19
26/01/2020 19:20:33	26012020	260120	192033	31.780	12.187087	-56.117668	31.950	-0.160	-0.030	0.300	31.830	-1.500	0.600																			1580066433.0	0.83	1.54
26/01/2020 19:20:34	26012020	260120	192034	31.920	12.187083	-56.117665	32.040	-0.340	0.320	0.650	31.920	-1.100	0.900																			1580066434.0	0.95	1.76
26/01/2020 19:20:35	26012020	260120	192035	31.920	12.187080	-56.117663	32.010	-0.290	0.330	0.880	31.910	-1.100	1.200																			1580066435.0	0.79	1.46
26/01/2020 19:20:36	26012020	260120	192036	31.830	12.187078	-56.117662	31.930	-0.050	0.020	0.900	31.810	-1.300	1.200																			1580066436.0	0.36	0.67
26/01/2020 19:20:37	26012020	260120	192037	31.810	12.187080	-56.117662	31.970	0.240	-0.460	0.610	31.830	-1.800	1.000																			1580066437.0	0.24	0.44
26/01/2020 19:20:38	26012020	260120	192038	32.090	12.187082	-56.117662	32.260	0.420	-0.790	-0.010	32.160	-2.200	0.400																			1580066438.0	0.64	1.19
26/01/2020 19:20:39	26012020	260120	192039	32.470	12.187087	-56.117665	32.620	0.340	-0.560	-0.620	32.530	-2.000	-0.200																			1580066439.0	0.88	1.63
26/01/2020 19:20:40	26012020	260120	192040	32.740	12.187088	-56.117668	32.850	0.020	0.160	-0.970	32.780	-1.300	-0.600																			1580066440.0	0.80	1.48
26/01/2020 19:20:41	26012020	260120	192041	32.950	12.187087	-56.117672	33.080	-0.330	0.740	-1.030	33.000	-0.700	-0.700																			1580066441.0	0.82	1.52
26/01/2020 19:20:42	26012020	260120	192042	33.270	12.187083	-56.117673	33.420	-0.480	0.690	-0.900	33.340	-0.700	-0.600																			1580066442.0	0.68	1.26
26/01/2020 19:20:43	26012020	260120	192043	33.670	12.187083	-56.117673	33.830	-0.380	0.140	-0.600	33.750	-1.200	-0.300																			1580066443.0	0.35	0.65
26/01/2020 19:20:44	26012020	260120	192044	34.010	12.187082	-56.117670	34.160	-0.170	-0.450	-0.150	34.060	-1.800	0.100																			1580066444.0	0.77	1.43
26/01/2020 19:20:45	26012020	260120	192045	34.180	12.187080	-56.117665	34.300	0.040	-0.810	0.460	34.200	-2.200	0.700																			1580066445.0	1.03	1.91
26/01/2020 19:20:46	26012020	260120	192046	34.210	12.187078	-56.117660	34.330	0.230	-0.910	1.020	34.210	-2.300	1.300																			1580066446.0	1.03	1.91
26/01/2020 19:20:47	26012020	260120	192047	34.250	12.187077	-56.117657	34.400	0.440	-0.790	1.260	34.280	-2.200	1.600																			1580066447.0	0.80	1.48
26/01/2020 19:20:48	26012020	260120	192048	34.440	12.187077	-56.117655	34.610	0.580	-0.440	1.070	34.490	-1.900	1.400																			1580066448.0	0.40	0.74
26/01/2020 19:20:49	26012020	260120	192049	34.660	12.187075	-56.117655	34.810	0.460	0.130	0.650	34.700	-1.300	1.000																			1580066449.0	0.10	0.19
26/01/2020 19:20:50	26012020	260120	192050	34.840	12.187075	-56.117658	34.980	0.070	0.670	0.070	34.890	-0.800	0.500																			1580066450.0	0.55	1.02
26/01/2020 19:20:51	26012020	260120	192051	35.110	12.187077	-56.117662	35.250	-0.360	0.800	-0.590	35.180	-0.600	-0.200																			1580066451.0	0.90	1.67
26/01/2020 19:20:52	26012020	260120	192052	35.460	12.187078	-56.117667	35.590	-0.570	0.470	-1.110	35.540	-0.900	-0.700																			1580066452.0	0.99	1.83
26/01/2020 19:20:53	26012020	260120	192053	35.820	12.187082	-56.117668	35.940	-0.480	-0.050	-1.310	35.890	-1.400	-1.000																			1580066453.0	0.77	1.43
26/01/2020 19:20:54	26012020	260120	192054	36.140	12.187082	-56.117668	36.250	-0.240	-0.480	-1.150	36.200	-1.800	-0.900																			1580066454.0	0.29	0.54
26/01/2020 19:20:55	26012020	260120	192055	36.410	12.187082	-56.117667	36.510	-0.060	-0.660	-0.690	36.460	-2.000	-0.400																			1580066455.0	0.56	1.04
26/01/2020 19:20:56	26012020	260120	192056	36.620	12.187078	-56.117663	36.710	0.030	-0.530	-0.010	36.650	-2.000	0.200																			1580066456.0	0.96	1.78
26/01/2020 19:20:57	26012020	260120	192057	36.690	12.187075	-56.117660	36.780	0.080	-0.260	0.750	36.690	-1.700	1.000																			1580066457.0	1.18	2.19
26/01/2020 19:20:58	26012020	260120	192058	36.710	12.187070	-56.117657	36.800	0.130	-0.170	1.220	36.720	-1.600	1.500																			1580066458.0	1.18	2.19
26/01/2020 19:20:59	26012020	260120	192059	36.820	12.187068	-56.117653	37.020	0.200	-0.350	1.140	36.880	-1.700	1.500	1013.70	26.40	26.30	21.00	21.00	539.00	72.00	72.00	384.00	30.30	57.00	3.30	93.00	3.20	35735	3346.00	27.80	27.90	1580066459.0	0.67	1.24
26/01/2020 19:21:00	26012020	260120	192100	37.290	12.187068	-56.117653	37.450	0.270	-0.470	0.680	37.390	-1.900	1.000																			1580066460.0	0.31	0.57
26/01/2020 19:21:01	26012020	260120	192101	37.680	12.187072	-56.117655	37.880	0.290	-0.200	0.170	37.760	-1.600	0.500																			1580066461.0	0.68	1.26
26/01/2020 19:21:02	26012020	260120	192102	38.030	12.187073	-56.117657	38.100	0.230	0.290	-0.130	38.060	-1.200	0.200																			1580066462.0	0.62	1.15
26/01/2020 19:21:03	26012020	260120	192103	38.090	12.187073	-56.117660	38.130	0.120	0.550	-0.190	38.090	-0.900	0.100																			1580066463.0	0.52	0.96
26/01/2020 19:21:04	26012020	260120	192104	38.110	12.187072	-56.117660	38.170	-0.010	0.320	-0.190	38.130	-1.000	0.100																			1580066464.0	0.30	0.56
26/01/2020 19:21:05	26012020	260120	192105	38.320	12.187072	-56.117660	38.430	-0.140	-0.220	-0.320	38.390	-1.600	0.000																			1580066465.0	0.17	0.31
26/01/2020 19:21:06	26012020	260120	192106	38.730	12.187073	-56.117658	38.860	-0.270	-0.540	-0.510	38.810	-1.900	-0.200																			1580066466.0	0.43	0.80
26/01/2020 19:21:07	26012020	260120	192107	39.110	12.187075	-56.117658	39.220	-0.400	-0.350	-0.470	39.170	-1.800	-0.200																			1580066467.0	0.29	0.54
26/01/2020 19:21:08	26012020	260120	192108	39.300	12.187073	-56.117658	39.370	-0.470	0.150	-0.110	39.310	-1.300	0.200																			1580066468.0	0.33	0.61
26/01/2020 19:21:09	26012020	260120	192109	39.330	12.187068	-56.117658	39.390	-0.420	0.390	0.350	39.330	-1.000	0.600																			1580066469.0	0.91	1.69
26/01/2020 19:21:10	26012020	260120	192110	39.450	12.187065	-56.117657	39.570	-0.200	0.020	0.580	39.510	-1.300	0.900																			1580066470.0	0.94	1.74
26/01/2020 19:21:11	26012020	260120	192111	39.800	12.187063	-56.117655	39.950	0.130	-0.670	0.500	39.890	-2.000	0.800																			1580066471.0	0.60	1.11
26/01/2020 19:21:12	26012020	260120	192112	40.130	12.187065	-56.117652	40.240	0.390	-0.990	0.400	40.180	-2.400	0.700																			1580066472.0	0.62	1.15
26/01/2020 19:21:13	26012020	260120	192113	40.260	12.187067	-56.117652	40.350	0.480	-0.710	0.330	40.280	-2.100	0.700																			1580066473.0	0.37	0.69
26/01/2020 19:21:14	26012020	260120	192114	40.350	12.187067	-56.117652	40.420	0.430	-0.110	0.200	40.370	-1.600	0.500																			1580066474.0	0.22	0.41
26/01/2020 19:21:15	26012020	260120	192115	40.440	12.187065	-56.117655	40.500	0.310	0.350	0.020	40.460	-1.100	0.400																			1580066475.0	0.50	0.93
26/01/2020 19:21:16	26012020	260120	192116	40.560	12.187065	-56.117657	40.640	0.180	0.460	-0.170	40.590	-0.900	0.200																			1580066476.0	0.45	0.83
26/01/2020 19:21:17	26012020	260120	192117	40.750	12.187065	-56.117658	40.850	0.040	0.290	-0.350	40.800	-1.100	0.000																			1580066477.0	0.33	0.61
26/01/2020 19:21:18	26012020	260120	192118	41.020	12.187067	-56.117658	41.130	-0.110	0.030	-0.520	41.090	-1.300	-0.200																			1580066478.0	0.36	0.67
26/01/2020 19:21:19	26012020	260120	192119	41.350	12.187068	-56.117658	41.470	-0.270	-0.150	-0.580	41.420	-1.500	-0.300																			1580066479.0	0.32	0.59
26/01/2020 19:21:20	26012020	260120	192120	41.680	12.187068	-56.117658	41.790	-0.410	-0.200	-0.410	41.740	-1.600	-0.100																			1580066480.0	0.05	0.09
26/01/2020 19:21:21	26012020	260120	192121	41.990	12.187067	-56.117658	42.100	-0.470	-0.180	-0.000	42.040	-1.600	0.300																			1580066481.0	0.43	0.80
26/01/2020 19:21:22	26012020	260120	192122	42.220	12.187063	-56.117655	42.310	-0.410	-0.130	0.580	42.240	-1.500	0.800																			1580066482.0	0.92	1.70
26/01/2020 19:21:23	26012020	260120	192123	42.290	12.187058	-56.117652	42.380	-0.230	-0.170	1.100	42.300	-1.600	1.400																			1580066483.0	1.30	2.41
26/01/2020 19:21:24	26012020	260120	192124	42.330	12.187055	-56.117648	42.430	0.030	-0.360	1.170	42.340	-1.700	1.500																			1580066484.0	1.20	2.22
26/01/2020 19:21:25	26012020	260120	192125	42.390	12.187053	-56.117647	42.500	0.300	-0.490	0.810	42.400	-1.900	1.200																			1580066485.0	0.46	0.85
26/01/2020 19:21:26	26012020	260120	192126	42.500	12.187055	-56.117647	42.580	0.500	-0.390	0.220	42.520	-1.800	0.600																			1580066486.0	0.48	0.89
26/01/2020 19:21:27	26012020	260120	192127	42.630	12.187058	-56.117652	42.790	0.570	-0.160	-0.510	42.690	-1.600	-0.100																			1580066487.0	1.14	2.11
26/01/2020 19:21:28	26012020	260120	192128	43.000	12.187063	-56.117657	43.100	0.460	0.060	-1.130	43.060	-1.400	-0.800																			1580066488.0	1.43	2.65
26/01/2020 19:21:29	26012020	260120	192129	43.320	12.187067	-56.117662	43.410	0.180	0.200	-1.380	43.380	-1.200	-1.000																			1580066489.0	1.15	2.13
26/01/2020 19:21:30	26012020	260120	192130	43.640	12.187067	-56.117663	43.740	-0.210	0.210	-1.170	43.700	-1.200	-0.900																			1580066490.0	0.36	0.67
26/01/2020 19:21:31	26012020	260120	192131	43.970	12.187065	-56.117662	44.090	-0.530	0.070	-0.610	44.040	-1.300	-0.400																			1580066491.0	0.53	0.98
26/01/2020 19:21:32	26012020	260120	192132	44.280	12.187062	-56.117657	44.390	-0.610	-0.180	0.170	44.320	-1.500	0.400																			1580066492.0	1.17	2.17
26/01/2020 19:21:33	26012020	260120	192133	44.490	12.187057	-56.117652	44.610	-0.390	-0.400	0.900	44.530	-1.800	1.100																			1580066493.0	1.52	2.82
26/01/2020 19:21:34	26012020	260120	192134	44.620	12.187052	-56.117647	44.710	-0.020	-0.420	1.340	44.630	-1.800	1.600																			1580066494.0	1.52	2.82
26/01/2020 19:21:35	26012020	260120	192135	44.580	12.187048	-56.117643	44.640	0.270	-0.180	1.460	44.540	-1.600	1.800																			1580066495.0	1.01	1.87
26/01/2020 19:21:36	26012020	260120	192136	44.400	12.187047	-56.117643	44.440	0.370	0.090	1.300	44.360	-1.300	1.600																			1580066496.0	0.34	0.63
26/01/2020 19:21:37	26012020	260120	192137	44.330	12.187048	-56.117647	44.430	0.330	0.090	0.730	44.360	-1.300	1.100																			1580066497.0	0.68	1.26
26/01/2020 19:21:38	26012020	260120	192138	44.630	12.187052	-56.117650	44.780	0.210	-0.210	-0.270	44.730	-1.600	0.200																			1580066498.0	1.26	2.33
26/01/2020 19:21:39	26012020	260120	192139	45.180	12.187058	-56.117655	45.320	0.030	-0.390	-1.240	45.300	-1.800	-0.800																			1580066499.0	1.60	2.96
26/01/2020 19:21:40	26012020	260120	192140	45.740	12.187062	-56.117658	45.840	-0.210	-0.160	-1.640	45.820	-1.600	-1.300																			1580066500.0	1.20	2.22
26/01/2020 19:21:41	26012020	260120	192141	46.090	12.187062	-56.117660	46.160	-0.430	0.290	-1.320	46.130	-1.100	-1.100																			1580066501.0	0.33	0.61
26/01/2020 19:21:42	26012020	260120	192142	46.190	12.187057	-56.117658	46.230	-0.460	0.410	-0.520	46.190	-1.000	-0.300																			1580066502.0	1.11	2.06
26/01/2020 19:21:43	26012020	260120	192143	46.170	12.187050	-56.117655	46.210	-0.220	-0.090	0.300	46.160	-1.400	0.500																			1580066503.0	1.57	2.91
26/01/2020 19:21:44	26012020	260120	192144	46.140	12.187047	-56.117650	46.190	0.190	-0.810	0.860	46.130	-2.100	1.100																			1580066504.0	1.38	2.56
26/01/2020 19:21:45	26012020	260120	192145	46.150	12.187047	-56.117645	46.230	0.530	-1.040	1.100	46.160	-2.400	1.400																			1580066505.0	0.96	1.78
26/01/2020 19:21:46	26012020	260120	192146	46.230	12.187048	-56.117643	46.340	0.630	-0.630	1.110	46.260	-2.100	1.400																			1580066506.0	0.33	0.61
26/01/2020 19:21:47	26012020	260120	192147	46.390	12.187048	-56.117645	46.510	0.450	-0.020	0.970	46.430	-1.500	1.300																			1580066507.0	0.34	0.63
26/01/2020 19:21:48	26012020	260120	192148	46.650	12.187048	-56.117648	46.790	0.070	0.400	0.670	46.710	-1.000	1.000																			1580066508.0	0.50	0.93
26/01/2020 19:21:49	26012020	260120	192149	46.910	12.187048	-56.117650	47.110	-0.340	0.600	0.230	46.980	-0.800	0.600																			1580066509.0	0.43	0.80
26/01/2020 19:21:50	26012020	260120	192150	47.260	12.187048	-56.117652	47.350	-0.570	0.670	-0.110	47.290	-0.700	0.200																			1580066510.0	0.42	0.78
26/01/2020 19:21:51	26012020	260120	192151	47.330	12.187048	-56.117653	47.370	-0.540	0.530	-0.210	47.320	-0.800	0.100																			1580066511.0	0.27	0.50
26/01/2020 19:21:52	26012020	260120	192152	47.230	12.187047	-56.117653	47.280	-0.340	0.110	-0.210	47.210	-1.200	0.100																			1580066512.0	0.30	0.56
26/01/2020 19:21:53	26012020	260120	192153	47.210	12.187047	-56.117652	47.300	-0.080	-0.540	-0.340	47.240	-1.900	0.000																			1580066513.0	0.25	0.46
26/01/2020 19:21:54	26012020	260120	192154	47.440	12.187048	-56.117652	47.570	0.170	-1.110	-0.590	47.510	-2.400	-0.300																			1580066514.0	0.28	0.52
26/01/2020 19:21:55	26012020	260120	192155	47.800	12.187050	-56.117653	47.930	0.400	-1.260	-0.750	47.870	-2.600	-0.400																			1580066515.0	0.67	1.24
26/01/2020 19:21:56	26012020	260120	192156	48.100	12.187053	-56.117653	48.200	0.560	-0.900	-0.550	48.130	-2.300	-0.300																			1580066516.0	0.53	0.98
26/01/2020 19:21:57	26012020	260120	192157	48.180	12.187052	-56.117653	48.240	0.470	-0.190	0.080	48.170	-1.700	0.300																			1580066517.0	0.22	0.41
26/01/2020 19:21:58	26012020	260120	192158	48.080	12.187047	-56.117653	48.150	0.120	0.480	0.870	48.050	-1.000	1.100																			1580066518.0	0.98	1.81
26/01/2020 19:21:59	26012020	260120	192159	47.990	12.187042	-56.117650	48.090	-0.270	0.770	1.440	47.980	-0.600	1.700	1013.60	26.60	26.30	21.10	21.00	514.00	71.00	72.00	385.00	30.30	37.00	4.30	83.00	4.00	34724	3480.00	27.80	27.90	1580066519.0	1.30	2.41
26/01/2020 19:22:00	26012020	260120	192200	48.020	12.187038	-56.117648	48.160	-0.440	0.590	1.580	48.040	-0.800	1.900																			1580066520.0	0.98	1.81
26/01/2020 19:22:01	26012020	260120	192201	48.160	12.187037	-56.117647	48.320	-0.320	0.140	1.290	48.200	-1.200	1.600																			1580066521.0	0.36	0.67
26/01/2020 19:22:02	26012020	260120	192202	48.330	12.187040	-56.117647	48.480	-0.050	-0.220	0.720	48.370	-1.600	1.100																			1580066522.0	0.44	0.81
26/01/2020 19:22:03	26012020	260120	192203	48.460	12.187042	-56.117648	48.600	0.150	-0.320	0.060	48.490	-1.700	0.400																			1580066523.0	0.73	1.35
26/01/2020 19:22:04	26012020	260120	192204	48.640	12.187045	-56.117652	48.730	0.150	-0.250	-0.580	48.660	-1.600	-0.200																			1580066524.0	0.86	1.59
26/01/2020 19:22:05	26012020	260120	192205	48.770	12.187047	-56.117655	48.840	0.010	-0.180	-1.070	48.790	-1.600	-0.700																			1580066525.0	0.90	1.67
26/01/2020 19:22:06	26012020	260120	192206	48.830	12.187048	-56.117658	48.880	-0.160	-0.110	-1.230	48.830	-1.500	-0.900																			1580066526.0	0.83	1.54
26/01/2020 19:22:07	26012020	260120	192207	48.860	12.187050	-56.117662	48.910	-0.210	-0.120	-1.030	48.870	-1.500	-0.700																			1580066527.0	0.58	1.07
26/01/2020 19:22:08	26012020	260120	192208	48.930	12.187048	-56.117662	49.000	-0.140	-0.280	-0.570	48.950	-1.600	-0.300																			1580066528.0	0.19	0.35
26/01/2020 19:22:09	26012020	260120	192209	49.040	12.187047	-56.117660	49.130	-0.010	-0.520	0.040	49.060	-1.900	0.300																			1580066529.0	0.49	0.91
26/01/2020 19:22:10	26012020	260120	192210	49.120	12.187045	-56.117657	49.220	0.130	-0.640	0.710	49.140	-2.000	1.000																			1580066530.0	0.93	1.72
26/01/2020 19:22:11	26012020	260120	192211	49.210	12.187042	-56.117652	49.330	0.270	-0.530	1.260	49.230	-1.900	1.500																			1580066531.0	1.19	2.20
26/01/2020 19:22:12	26012020	260120	192212	49.310	12.187037	-56.117648	49.440	0.370	-0.210	1.530	49.330	-1.600	1.800																			1580066532.0	1.14	2.11
26/01/2020 19:22:13	26012020	260120	192213	49.360	12.187035	-56.117647	49.490	0.370	0.180	1.370	49.370	-1.200	1.700																			1580066533.0	0.66	1.22
26/01/2020 19:22:14	26012020	260120	192214	49.390	12.187035	-56.117648	49.510	0.250	0.500	0.770	49.400	-0.900	1.200																			1580066534.0	0.27	0.50
26/01/2020 19:22:15	26012020	260120	192215	49.420	12.187038	-56.117652	49.520	0.030	0.680	0.000	49.430	-0.700	0.400																			1580066535.0	1.02	1.89
26/01/2020 19:22:16	26012020	260120	192216	49.490	12.187042	-56.117657	49.570	-0.270	0.630	-0.660	49.500	-0.700	-0.300																			1580066536.0	1.32	2.44
26/01/2020 19:22:17	26012020	260120	192217	49.580	12.187045	-56.117662	49.700	-0.570	0.270	-1.130	49.610	-1.100	-0.800																			1580066537.0	1.13	2.09
26/01/2020 19:22:18	26012020	260120	192218	49.800	12.187047	-56.117663	49.880	-0.730	-0.260	-1.320	49.830	-1.600	-1.000																			1580066538.0	0.71	1.31
26/01/2020 19:22:19	26012020	260120	192219	49.980	12.187048	-56.117663	50.060	-0.630	-0.690	-1.190	50.010	-2.000	-0.900																			1580066539.0	0.20	0.37
26/01/2020 19:22:20	26012020	260120	192220	50.130	12.187047	-56.117663	50.210	-0.250	-0.910	-0.780	50.160	-2.300	-0.500																			1580066540.0	0.38	0.70
26/01/2020 19:22:21	26012020	260120	192221	50.280	12.187043	-56.117660	50.370	0.230	-0.970	-0.250	50.310	-2.300	0.000																			1580066541.0	0.80	1.48
26/01/2020 19:22:22	26012020	260120	192222	50.430	12.187040	-56.117658	50.540	0.630	-0.840	0.230	50.460	-2.200	0.500																			1580066542.0	0.80	1.48
26/01/2020 19:22:23	26012020	260120	192223	50.540	12.187038	-56.117657	50.650	0.780	-0.460	0.640	50.560	-1.900	0.900																			1580066543.0	0.50	0.93
26/01/2020 19:22:24	26012020	260120	192224	50.650	12.187038	-56.117657	50.780	0.660	0.070	0.960	50.670	-1.400	1.200																			1580066544.0	0.25	0.46
26/01/2020 19:22:25	26012020	260120	192225	50.830	12.187037	-56.117657	50.970	0.340	0.470	1.130	50.870	-0.900	1.400																			1580066545.0	0.28	0.52
26/01/2020 19:22:26	26012020	260120	192226	51.080	12.187035	-56.117657	51.240	-0.060	0.610	1.100	51.130	-0.800	1.400																			1580066546.0	0.24	0.44
26/01/2020 19:22:27	26012020	260120	192227	51.330	12.187035	-56.117657	51.480	-0.410	0.560	0.910	51.370	-0.800	1.200																			1580066547.0	0.17	0.31
26/01/2020 19:22:28	26012020	260120	192228	51.520	12.187033	-56.117655	51.630	-0.610	0.430	0.580	51.550	-0.900	0.900																			1580066548.0	0.12	0.22
26/01/2020 19:22:29	26012020	260120	192229	51.640	12.187033	-56.117657	51.730	-0.650	0.240	0.160	51.660	-1.100	0.500																			1580066549.0	0.11	0.20
26/01/2020 19:22:30	26012020	260120	192230	51.720	12.187035	-56.117658	51.800	-0.500	-0.030	-0.310	51.740	-1.400	0.100																			1580066550.0	0.44	0.81
26/01/2020 19:22:31	26012020	260120	192231	51.850	12.187037	-56.117662	51.920	-0.180	-0.380	-0.820	51.880	-1.700	-0.400																			1580066551.0	0.73	1.35
26/01/2020 19:22:32	26012020	260120	192232	52.080	12.187040	-56.117663	52.150	0.210	-0.780	-1.230	52.130	-2.100	-0.900																			1580066552.0	0.85	1.57
26/01/2020 19:22:33	26012020	260120	192233	52.360	12.187043	-56.117665	52.440	0.520	-1.050	-1.350	52.410	-2.400	-1.000																			1580066553.0	0.78	1.44
26/01/2020 19:22:34	26012020	260120	192234	52.580	12.187045	-56.117667	52.640	0.640	-0.970	-1.000	52.600	-2.400	-0.700																			1580066554.0	0.41	0.76
26/01/2020 19:22:35	26012020	260120	192235	52.690	12.187043	-56.117665	52.750	0.500	-0.540	-0.300	52.700	-2.000	-0.100																			1580066555.0	0.32	0.59
26/01/2020 19:22:36	26012020	260120	192236	52.770	12.187040	-56.117663	52.860	0.160	0.020	0.440	52.790	-1.400	0.700																			1580066556.0	0.89	1.65
26/01/2020 19:22:37	26012020	260120	192237	52.910	12.187035	-56.117662	53.040	-0.190	0.480	1.020	52.940	-0.900	1.300																			1580066557.0	1.02	1.89
26/01/2020 19:22:38	26012020	260120	192238	53.090	12.187032	-56.117660	53.240	-0.380	0.690	1.370	53.120	-0.700	1.700																			1580066558.0	0.80	1.48
26/01/2020 19:22:39	26012020	260120	192239	53.260	12.187030	-56.117658	53.500	-0.350	0.590	1.400	53.320	-0.800	1.700																			1580066559.0	0.55	1.02
26/01/2020 19:22:40	26012020	260120	192240	53.650	12.187028	-56.117658	53.850	-0.180	0.230	1.080	53.720	-1.100	1.400																			1580066560.0	0.25	0.46
26/01/2020 19:22:41	26012020	260120	192241	53.920	12.187030	-56.117658	54.140	-0.020	-0.160	0.630	53.970	-1.500	1.000																			1580066561.0	0.21	0.39
26/01/2020 19:22:42	26012020	260120	192242	54.110	12.187032	-56.117658	54.230	0.050	-0.380	0.210	54.110	-1.700	0.600																			1580066562.0	0.36	0.67
26/01/2020 19:22:43	26012020	260120	192243	54.070	12.187033	-56.117658	54.140	0.060	-0.400	-0.160	54.050	-1.800	0.200																			1580066563.0	0.43	0.80
26/01/2020 19:22:44	26012020	260120	192244	53.960	12.187035	-56.117662	54.020	0.080	-0.350	-0.570	53.940	-1.700	-0.200																			1580066564.0	0.59	1.09
26/01/2020 19:22:45	26012020	260120	192245	53.970	12.187037	-56.117665	54.060	0.180	-0.410	-1.010	54.000	-1.800	-0.600																			1580066565.0	0.78	1.44
26/01/2020 19:22:46	26012020	260120	192246	54.180	12.187040	-56.117667	54.290	0.280	-0.490	-1.280	54.250	-1.900	-0.900																			1580066566.0	0.90	1.67
26/01/2020 19:22:47	26012020	260120	192247	54.470	12.187043	-56.117668	54.550	0.260	-0.320	-1.180	54.510	-1.700	-0.900																			1580066567.0	0.65	1.20
26/01/2020 19:22:48	26012020	260120	192248	54.670	12.187042	-56.117668	54.750	0.000	0.090	-0.770	54.710	-1.300	-0.500																			1580066568.0	0.06	0.11
26/01/2020 19:22:49	26012020	260120	192249	54.840	12.187040	-56.117668	54.930	-0.360	0.380	-0.220	54.880	-1.000	0.000																			1580066569.0	0.65	1.20
26/01/2020 19:22:50	26012020	260120	192250	55.010	12.187035	-56.117668	55.120	-0.570	0.290	0.420	55.050	-1.100	0.700																			1580066570.0	0.93	1.72
26/01/2020 19:22:51	26012020	260120	192251	55.200	12.187032	-56.117665	55.340	-0.410	-0.160	1.040	55.250	-1.500	1.300																			1580066571.0	0.99	1.83
26/01/2020 19:22:52	26012020	260120	192252	55.460	12.187028	-56.117662	55.640	0.060	-0.640	1.400	55.530	-2.000	1.700																			1580066572.0	1.03	1.91
26/01/2020 19:22:53	26012020	260120	192253	55.700	12.187027	-56.117657	55.900	0.520	-0.740	1.420	55.740	-2.100	1.800																			1580066573.0	0.89	1.65
26/01/2020 19:22:54	26012020	260120	192254	55.860	12.187027	-56.117655	55.960	0.670	-0.340	1.200	55.850	-1.800	1.600																			1580066574.0	0.42	0.78
26/01/2020 19:22:55	26012020	260120	192255	55.820	12.187025	-56.117657	55.860	0.460	0.270	0.870	55.790	-1.200	1.200																			1580066575.0	0.29	0.54
26/01/2020 19:22:56	26012020	260120	192256	55.650	12.187027	-56.117660	55.730	0.080	0.640	0.360	55.640	-0.800	0.800																			1580066576.0	0.72	1.33
26/01/2020 19:22:57	26012020	260120	192257	55.640	12.187028	-56.117663	55.740	-0.250	0.520	-0.410	55.670	-0.800	0.000																			1580066577.0	1.05	1.94
26/01/2020 19:22:58	26012020	260120	192258	55.880	12.187033	-56.117668	56.000	-0.380	0.040	-1.330	55.950	-1.300	-0.900																			1580066578.0	1.45	2.69
26/01/2020 19:22:59	26012020	260120	192259	56.280	12.187042	-56.117672	56.420	-0.350	-0.400	-1.980	56.380	-1.700	-1.600	1013.60	26.70	26.20	21.00	20.90	516.00	70.00	72.00	385.00	30.30	34.00	3.80	88.00	3.50	34516	3503.00	27.80	27.90	1580066579.0	1.59	2.94
26/01/2020 19:23:00	26012020	260120	192300	56.740	12.187045	-56.117672	56.880	-0.280	-0.580	-2.050	56.830	-2.000	-1.700																			1580066580.0	0.98	1.81
26/01/2020 19:23:01	26012020	260120	192301	57.160	12.187045	-56.117672	57.300	-0.210	-0.500	-1.480	57.230	-1.900	-1.200																			1580066581.0	0.09	0.17
26/01/2020 19:23:02	26012020	260120	192302	57.440	12.187040	-56.117670	57.570	-0.160	-0.300	-0.470	57.480	-1.700	-0.200																			1580066582.0	1.13	2.09
26/01/2020 19:23:03	26012020	260120	192303	57.530	12.187033	-56.117667	57.640	-0.110	-0.100	0.610	57.520	-1.500	0.900																			1580066583.0	1.73	3.20
26/01/2020 19:23:04	26012020	260120	192304	57.480	12.187027	-56.117663	57.590	0.020	-0.070	1.440	57.460	-1.400	1.700																			1580066584.0	1.63	3.02
26/01/2020 19:23:05	26012020	260120	192305	57.440	12.187022	-56.117660	57.600	0.260	-0.270	1.830	57.450	-1.600	2.200																			1580066585.0	1.00	1.85
26/01/2020 19:23:06	26012020	260120	192306	57.620	12.187022	-56.117658	57.820	0.530	-0.460	1.720	57.680	-1.800	2.100																			1580066586.0	0.39	0.72
26/01/2020 19:23:07	26012020	260120	192307	57.890	12.187023	-56.117658	58.160	0.630	-0.360	1.190	57.960	-1.800	1.600																			1580066587.0	0.46	0.85
26/01/2020 19:23:08	26012020	260120	192308	58.310	12.187027	-56.117660	58.480	0.450	0.010	0.500	58.370	-1.400	0.900																			1580066588.0	0.63	1.17
26/01/2020 19:23:09	26012020	260120	192309	58.580	12.187028	-56.117662	58.710	0.050	0.370	-0.180	58.620	-1.000	0.200																			1580066589.0	0.79	1.46
26/01/2020 19:23:10	26012020	260120	192310	58.730	12.187032	-56.117665	58.830	-0.360	0.560	-0.700	58.750	-0.800	-0.300																			1580066590.0	0.80	1.48
26/01/2020 19:23:11	26012020	260120	192311	58.850	12.187033	-56.117667	58.970	-0.590	0.500	-1.050	58.890	-0.900	-0.700																			1580066591.0	0.67	1.24
26/01/2020 19:23:12	26012020	260120	192312	59.100	12.187035	-56.117668	59.230	-0.600	0.160	-1.260	59.160	-1.200	-0.900																			1580066592.0	0.43	0.80
26/01/2020 19:23:13	26012020	260120	192313	59.440	12.187035	-56.117668	59.580	-0.410	-0.320	-1.310	59.510	-1.600	-1.000																			1580066593.0	0.20	0.37
26/01/2020 19:23:14	26012020	260120	192314	59.770	12.187037	-56.117668	59.910	-0.140	-0.700	-1.080	59.830	-2.000	-0.800																			1580066594.0	0.20	0.37
26/01/2020 19:23:15	26012020	260120	192315	60.010	12.187035	-56.117667	60.130	0.110	-0.820	-0.520	60.040	-2.200	-0.300																			1580066595.0	0.43	0.80
26/01/2020 19:23:16	26012020	260120	192316	60.160	12.187032	-56.117665	60.280	0.280	-0.660	0.180	60.180	-2.100	0.400																			1580066596.0	0.73	1.35
26/01/2020 19:23:17	26012020	260120	192317	60.270	12.187028	-56.117663	60.390	0.330	-0.360	0.850	60.280	-1.800	1.100																			1580066597.0	0.90	1.67
26/01/2020 19:23:18	26012020	260120	192318	60.340	12.187025	-56.117662	60.460	0.250	-0.070	1.350	60.350	-1.500	1.600																			1580066598.0	0.83	1.54
26/01/2020 19:23:19	26012020	260120	192319	60.410	12.187022	-56.117660	60.540	0.100	0.130	1.580	60.430	-1.300	1.900																			1580066599.0	0.61	1.13
26/01/2020 19:23:20	26012020	260120	192320	60.530	12.187020	-56.117660	60.680	-0.070	0.250	1.440	60.560	-1.100	1.800																			1580066600.0	0.32	0.59
26/01/2020 19:23:21	26012020	260120	192321	60.790	12.187022	-56.117660	60.970	-0.140	0.210	0.890	60.860	-1.200	1.300																			1580066601.0	0.11	0.20
26/01/2020 19:23:22	26012020	260120	192322	61.220	12.187023	-56.117660	61.390	-0.040	0.050	0.090	61.310	-1.300	0.500																			1580066602.0	0.58	1.07
26/01/2020 19:23:23	26012020	260120	192323	61.640	12.187027	-56.117662	61.780	0.110	-0.060	-0.650	61.710	-1.400	-0.300																			1580066603.0	0.79	1.46
26/01/2020 19:23:24	26012020	260120	192324	61.900	12.187030	-56.117662	61.990	0.140	-0.060	-1.060	61.930	-1.400	-0.700																			1580066604.0	0.62	1.15
26/01/2020 19:23:25	26012020	260120	192325	61.970	12.187032	-56.117663	62.040	-0.010	-0.010	-1.100	61.970	-1.400	-0.800																			1580066605.0	0.30	0.56
26/01/2020 19:23:26	26012020	260120	192326	61.960	12.187030	-56.117665	62.030	-0.220	-0.000	-0.910	61.960	-1.400	-0.600																			1580066606.0	0.20	0.37
26/01/2020 19:23:27	26012020	260120	192327	61.960	12.187030	-56.117665	62.050	-0.310	-0.150	-0.560	61.960	-1.500	-0.300																			1580066607.0	0.24	0.44
26/01/2020 19:23:28	26012020	260120	192328	62.030	12.187028	-56.117665	62.160	-0.210	-0.390	-0.200	62.060	-1.700	0.100																			1580066608.0	0.27	0.50
26/01/2020 19:23:29	26012020	260120	192329	62.190	12.187028	-56.117663	62.400	0.010	-0.630	0.130	62.240	-2.000	0.400																			1580066609.0	0.36	0.67
26/01/2020 19:23:30	26012020	260120	192330	62.520	12.187027	-56.117662	62.690	0.220	-0.680	0.500	62.570	-2.100	0.800																			1580066610.0	0.47	0.87
26/01/2020 19:23:31	26012020	260120	192331	62.740	12.187025	-56.117658	62.900	0.270	-0.440	0.880	62.780	-1.800	1.200																			1580066611.0	0.58	1.07
26/01/2020 19:23:32	26012020	260120	192332	62.910	12.187022	-56.117658	63.060	0.150	0.040	1.100	62.940	-1.400	1.400																			1580066612.0	0.62	1.15
26/01/2020 19:23:33	26012020	260120	192333	63.050	12.187020	-56.117658	63.190	-0.030	0.440	1.070	63.070	-1.000	1.400																			1580066613.0	0.56	1.04
26/01/2020 19:23:34	26012020	260120	192334	63.150	12.187018	-56.117658	63.260	-0.120	0.560	0.840	63.160	-0.800	1.200																			1580066614.0	0.39	0.72
26/01/2020 19:23:35	26012020	260120	192335	63.190	12.187018	-56.117660	63.290	-0.100	0.330	0.480	63.200	-1.000	0.900																			1580066615.0	0.14	0.26
26/01/2020 19:23:36	26012020	260120	192336	63.290	12.187020	-56.117660	63.400	-0.010	-0.130	0.010	63.330	-1.400	0.400																			1580066616.0	0.38	0.70
26/01/2020 19:23:37	26012020	260120	192337	63.550	12.187023	-56.117660	63.670	0.090	-0.560	-0.550	63.620	-1.900	-0.100																			1580066617.0	0.72	1.33
26/01/2020 19:23:38	26012020	260120	192338	63.900	12.187027	-56.117660	64.000	0.130	-0.670	-1.020	63.960	-2.000	-0.600																			1580066618.0	0.84	1.56
26/01/2020 19:23:39	26012020	260120	192339	64.180	12.187030	-56.117660	64.260	0.090	-0.410	-1.160	64.220	-1.800	-0.800																			1580066619.0	0.60	1.11
26/01/2020 19:23:40	26012020	260120	192340	64.280	12.187030	-56.117662	64.310	-0.030	-0.030	-0.780	64.260	-1.400	-0.500																			1580066620.0	0.28	0.52
26/01/2020 19:23:41	26012020	260120	192341	64.180	12.187027	-56.117663	64.220	-0.140	0.230	-0.040	64.160	-1.200	0.200																			1580066621.0	0.67	1.24
26/01/2020 19:23:42	26012020	260120	192342	64.070	12.187022	-56.117662	64.130	-0.150	0.190	0.690	64.050	-1.200	1.000																			1580066622.0	1.06	1.96
26/01/2020 19:23:43	26012020	260120	192343	64.050	12.187017	-56.117660	64.180	-0.050	-0.140	1.110	64.060	-1.500	1.400																			1580066623.0	1.01	1.87
26/01/2020 19:23:44	26012020	260120	192344	64.290	12.187015	-56.117657	64.450	0.120	-0.540	1.050	64.370	-1.900	1.400																			1580066624.0	0.63	1.17
26/01/2020 19:23:45	26012020	260120	192345	64.740	12.187017	-56.117655	64.900	0.250	-0.660	0.650	64.830	-2.000	1.000																			1580066625.0	0.47	0.87
26/01/2020 19:23:46	26012020	260120	192346	65.170	12.187020	-56.117655	65.310	0.210	-0.290	0.300	65.230	-1.700	0.700																			1580066626.0	0.55	1.02
26/01/2020 19:23:47	26012020	260120	192347	65.400	12.187020	-56.117657	65.490	-0.000	0.310	0.210	65.410	-1.100	0.500																			1580066627.0	0.48	0.89
26/01/2020 19:23:48	26012020	260120	192348	65.430	12.187020	-56.117660	65.510	-0.220	0.590	0.220	65.430	-0.800	0.600																			1580066628.0	0.57	1.06
26/01/2020 19:23:49	26012020	260120	192349	65.460	12.187018	-56.117660	65.530	-0.270	0.330	0.170	65.470	-1.000	0.500																			1580066629.0	0.43	0.80
26/01/2020 19:23:50	26012020	260120	192350	65.540	12.187018	-56.117660	65.620	-0.150	-0.180	0.100	65.560	-1.500	0.400																			1580066630.0	0.27	0.50
26/01/2020 19:23:51	26012020	260120	192351	65.670	12.187018	-56.117658	65.760	0.010	-0.540	0.070	65.700	-1.900	0.400																			1580066631.0	0.46	0.85
26/01/2020 19:23:52	26012020	260120	192352	65.840	12.187018	-56.117657	65.950	0.080	-0.560	-0.040	65.870	-1.900	0.300																			1580066632.0	0.28	0.52
26/01/2020 19:23:53	26012020	260120	192353	66.030	12.187018	-56.117657	66.150	0.080	-0.320	-0.270	66.070	-1.700	0.100																			1580066633.0	0.22	0.41
26/01/2020 19:23:54	26012020	260120	192354	66.200	12.187020	-56.117658	66.310	0.090	-0.060	-0.420	66.230	-1.400	-0.100																			1580066634.0	0.52	0.96
26/01/2020 19:23:55	26012020	260120	192355	66.310	12.187020	-56.117660	66.440	0.140	0.010	-0.310	66.330	-1.400	0.000																			1580066635.0	0.41	0.76
26/01/2020 19:23:56	26012020	260120	192356	66.430	12.187020	-56.117660	66.540	0.190	-0.130	0.030	66.460	-1.500	0.300																			1580066636.0	0.12	0.22
26/01/2020 19:23:57	26012020	260120	192357	66.530	12.187018	-56.117660	66.670	0.180	-0.300	0.380	66.560	-1.700	0.700																			1580066637.0	0.41	0.76
26/01/2020 19:23:58	26012020	260120	192358	66.710	12.187018	-56.117657	66.840	0.110	-0.310	0.620	66.750	-1.700	0.900																			1580066638.0	0.47	0.87
26/01/2020 19:23:59	26012020	260120	192359	66.900	12.187017	-56.117657	67.030	0.010	-0.130	0.790	66.930	-1.500	1.100	1013.70	26.70	26.30	21.00	20.90	488.00	70.00	72.00	385.00	30.30	30.00	3.50	94.00	3.30	33364	3335.00	27.70	27.90	1580066639.0	0.37	0.69
26/01/2020 19:24:00	26012020	260120	192400	67.090	12.187015	-56.117657	67.220	-0.090	0.080	0.910	67.130	-1.300	1.200																			1580066640.0	0.35	0.65
26/01/2020 19:24:01	26012020	260120	192401	67.280	12.187013	-56.117657	67.410	-0.190	0.160	0.900	67.320	-1.200	1.200																			1580066641.0	0.33	0.61
26/01/2020 19:24:02	26012020	260120	192402	67.470	12.187013	-56.117657	67.590	-0.230	0.110	0.730	67.500	-1.300	1.100																			1580066642.0	0.14	0.26
26/01/2020 19:24:03	26012020	260120	192403	67.540	12.187013	-56.117657	67.620	-0.220	0.080	0.580	67.540	-1.300	0.900																			1580066643.0	0.07	0.13
26/01/2020 19:24:04	26012020	260120	192404	67.510	12.187013	-56.117657	67.570	-0.170	0.130	0.430	67.500	-1.200	0.800																			1580066644.0	0.10	0.19
26/01/2020 19:24:05	26012020	260120	192405	67.530	12.187013	-56.117658	67.630	-0.070	0.050	0.110	67.560	-1.300	0.500																			1580066645.0	0.26	0.48
26/01/2020 19:24:06	26012020	260120	192406	67.710	12.187015	-56.117660	67.810	0.060	-0.250	-0.370	67.760	-1.600	0.000																			1580066646.0	0.41	0.76
26/01/2020 19:24:07	26012020	260120	192407	67.950	12.187018	-56.117660	68.040	0.170	-0.600	-0.750	67.990	-1.900	-0.400																			1580066647.0	0.70	1.30
26/01/2020 19:24:08	26012020	260120	192408	68.140	12.187022	-56.117660	68.210	0.220	-0.770	-0.860	68.170	-2.100	-0.500																			1580066648.0	0.75	1.39
26/01/2020 19:24:09	26012020	260120	192409	68.230	12.187023	-56.117662	68.300	0.200	-0.660	-0.620	68.240	-2.000	-0.300																			1580066649.0	0.41	0.76
26/01/2020 19:24:10	26012020	260120	192410	68.230	12.187022	-56.117662	68.290	0.140	-0.400	-0.040	68.230	-1.800	0.200																			1580066650.0	0.17	0.31
26/01/2020 19:24:11	26012020	260120	192411	68.190	12.187018	-56.117660	68.250	0.050	-0.090	0.680	68.180	-1.500	0.900																			1580066651.0	0.79	1.46
26/01/2020 19:24:12	26012020	260120	192412	68.130	12.187013	-56.117658	68.210	-0.090	0.260	1.230	68.130	-1.100	1.500																			1580066652.0	1.12	2.07
26/01/2020 19:24:13	26012020	260120	192413	68.150	12.187010	-56.117657	68.270	-0.200	0.500	1.320	68.180	-0.900	1.700																			1580066653.0	0.91	1.69
26/01/2020 19:24:14	26012020	260120	192414	68.400	12.187008	-56.117658	68.560	-0.150	0.460	0.830	68.480	-0.900	1.200																			1580066654.0	0.29	0.54
26/01/2020 19:24:15	26012020	260120	192415	68.900	12.187010	-56.117658	69.080	0.070	0.130	-0.040	69.010	-1.200	0.400																			1580066655.0	0.54	1.00
26/01/2020 19:24:16	26012020	260120	192416	69.400	12.187015	-56.117660	69.530	0.270	-0.210	-0.760	69.480	-1.600	-0.400																			1580066656.0	1.04	1.93
26/01/2020 19:24:17	26012020	260120	192417	69.650	12.187020	-56.117660	69.710	0.230	-0.280	-1.010	69.660	-1.700	-0.700																			1580066657.0	0.96	1.78
26/01/2020 19:24:18	26012020	260120	192418	69.640	12.187022	-56.117662	69.670	-0.080	-0.130	-0.880	69.620	-1.500	-0.600																			1580066658.0	0.49	0.91
26/01/2020 19:24:19	26012020	260120	192419	69.550	12.187020	-56.117663	69.560	-0.450	-0.000	-0.470	69.530	-1.400	-0.200																			1580066659.0	0.44	0.81
26/01/2020 19:24:20	26012020	260120	192420	69.420	12.187018	-56.117665	69.490	-0.580	-0.120	0.130	69.410	-1.500	0.400																			1580066660.0	0.60	1.11
26/01/2020 19:24:21	26012020	260120	192421	69.430	12.187015	-56.117665	69.580	-0.340	-0.480	0.670	69.450	-1.800	1.000																			1580066661.0	0.76	1.41
26/01/2020 19:24:22	26012020	260120	192422	69.660	12.187012	-56.117662	69.830	0.090	-0.830	0.980	69.710	-2.200	1.300																			1580066662.0	0.89	1.65
26/01/2020 19:24:23	26012020	260120	192423	69.940	12.187010	-56.117658	70.100	0.440	-0.810	1.010	69.990	-2.200	1.400																			1580066663.0	0.79	1.46
26/01/2020 19:24:24	26012020	260120	192424	70.170	12.187008	-56.117657	70.310	0.550	-0.310	0.830	70.200	-1.800	1.200																			1580066664.0	0.34	0.63
26/01/2020 19:24:25	26012020	260120	192425	70.280	12.187010	-56.117658	70.400	0.390	0.340	0.560	70.300	-1.100	0.900																			1580066665.0	0.22	0.41
26/01/2020 19:24:26	26012020	260120	192426	70.330	12.187012	-56.117660	70.440	0.100	0.720	0.300	70.330	-0.700	0.700																			1580066666.0	0.62	1.15
26/01/2020 19:24:27	26012020	260120	192427	70.360	12.187013	-56.117663	70.470	-0.190	0.660	0.080	70.370	-0.700	0.400																			1580066667.0	0.65	1.20
26/01/2020 19:24:28	26012020	260120	192428	70.430	12.187015	-56.117663	70.550	-0.340	0.240	-0.110	70.460	-1.100	0.300																			1580066668.0	0.48	0.89
26/01/2020 19:24:29	26012020	260120	192429	70.570	12.187017	-56.117662	70.700	-0.290	-0.310	-0.260	70.590	-1.600	0.100																			1580066669.0	0.39	0.72
26/01/2020 19:24:30	26012020	260120	192430	70.660	12.187018	-56.117660	70.750	-0.080	-0.660	-0.250	70.660	-2.000	0.100																			1580066670.0	0.44	0.81
26/01/2020 19:24:31	26012020	260120	192431	70.620	12.187017	-56.117658	70.690	0.180	-0.650	-0.150	70.590	-2.000	0.200																			1580066671.0	0.37	0.69
26/01/2020 19:24:32	26012020	260120	192432	70.500	12.187017	-56.117658	70.570	0.340	-0.400	-0.030	70.480	-1.800	0.300																			1580066672.0	0.16	0.30
26/01/2020 19:24:33	26012020	260120	192433	70.420	12.187017	-56.117658	70.470	0.280	-0.080	0.070	70.400	-1.500	0.400																			1580066673.0	0.16	0.30
26/01/2020 19:24:34	26012020	260120	192434	70.330	12.187017	-56.117660	70.420	-0.010	0.210	0.190	70.330	-1.200	0.500																			1580066674.0	0.28	0.52
26/01/2020 19:24:35	26012020	260120	192435	70.320	12.187017	-56.117662	70.430	-0.330	0.330	0.320	70.330	-1.000	0.600																			1580066675.0	0.31	0.57
26/01/2020 19:24:36	26012020	260120	192436	70.380	12.187017	-56.117662	70.500	-0.480	0.120	0.420	70.400	-1.200	0.800																			1580066676.0	0.18	0.33
26/01/2020 19:24:37	26012020	260120	192437	70.450	12.187015	-56.117662	70.560	-0.340	-0.310	0.490	70.460	-1.600	0.800																			1580066677.0	0.37	0.69
26/01/2020 19:24:38	26012020	260120	192438	70.480	12.187015	-56.117658	70.580	-0.030	-0.650	0.490	70.470	-2.000	0.800																			1580066678.0	0.62	1.15
26/01/2020 19:24:39	26012020	260120	192439	70.430	12.187013	-56.117657	70.510	0.250	-0.640	0.400	70.410	-2.000	0.800																			1580066679.0	0.56	1.04
26/01/2020 19:24:40	26012020	260120	192440	70.330	12.187013	-56.117655	70.400	0.360	-0.310	0.120	70.310	-1.700	0.500																			1580066680.0	0.15	0.28
26/01/2020 19:24:41	26012020	260120	192441	70.290	12.187015	-56.117657	70.360	0.310	0.130	-0.310	70.290	-1.300	0.100																			1580066681.0	0.51	0.94
26/01/2020 19:24:42	26012020	260120	192442	70.330	12.187018	-56.117660	70.420	0.190	0.400	-0.700	70.360	-1.000	-0.300																			1580066682.0	0.84	1.56
26/01/2020 19:24:43	26012020	260120	192443	70.420	12.187020	-56.117662	70.500	0.080	0.300	-0.850	70.440	-1.100	-0.500																			1580066683.0	0.71	1.31
26/01/2020 19:24:44	26012020	260120	192444	70.480	12.187022	-56.117662	70.570	0.030	-0.060	-0.740	70.490	-1.400	-0.400																			1580066684.0	0.30	0.56
26/01/2020 19:24:45	26012020	260120	192445	70.510	12.187022	-56.117660	70.580	-0.000	-0.350	-0.490	70.510	-1.700	-0.200																			1580066685.0	0.37	0.69
26/01/2020 19:24:46	26012020	260120	192446	70.480	12.187022	-56.117658	70.550	-0.090	-0.330	-0.160	70.470	-1.700	0.100																			1580066686.0	0.42	0.78
26/01/2020 19:24:47	26012020	260120	192447	70.420	12.187020	-56.117658	70.500	-0.210	-0.110	0.310	70.410	-1.500	0.600																			1580066687.0	0.42	0.78
26/01/2020 19:24:48	26012020	260120	192448	70.410	12.187017	-56.117658	70.520	-0.280	-0.020	0.760	70.420	-1.400	1.000																			1580066688.0	0.66	1.22
26/01/2020 19:24:49	26012020	260120	192449	70.530	12.187013	-56.117658	70.680	-0.220	-0.140	1.000	70.570	-1.500	1.300																			1580066689.0	0.67	1.24
26/01/2020 19:24:50	26012020	260120	192450	70.680	12.187012	-56.117657	70.800	-0.040	-0.270	1.050	70.690	-1.600	1.400																			1580066690.0	0.52	0.96
26/01/2020 19:24:51	26012020	260120	192451	70.660	12.187010	-56.117655	70.750	0.140	-0.220	1.040	70.630	-1.600	1.400																			1580066691.0	0.35	0.65
26/01/2020 19:24:52	26012020	260120	192452	70.480	12.187010	-56.117655	70.550	0.220	-0.060	0.920	70.440	-1.400	1.300																			1580066692.0	0.12	0.22
26/01/2020 19:24:53	26012020	260120	192453	70.300	12.187010	-56.117655	70.390	0.190	0.010	0.570	70.280	-1.400	0.900																			1580066693.0	0.19	0.35
26/01/2020 19:24:54	26012020	260120	192454	70.250	12.187013	-56.117657	70.350	0.160	-0.140	-0.020	70.260	-1.500	0.400																			1580066694.0	0.56	1.04
26/01/2020 19:24:55	26012020	260120	192455	70.360	12.187017	-56.117657	70.470	0.160	-0.360	-0.610	70.390	-1.700	-0.200																			1580066695.0	0.89	1.65
26/01/2020 19:24:56	26012020	260120	192456	70.530	12.187020	-56.117657	70.620	0.160	-0.410	-0.930	70.560	-1.800	-0.600																			1580066696.0	0.89	1.65
26/01/2020 19:24:57	26012020	260120	192457	70.650	12.187023	-56.117657	70.720	0.090	-0.190	-0.850	70.650	-1.600	-0.500																			1580066697.0	0.44	0.81
26/01/2020 19:24:58	26012020	260120	192458	70.630	12.187022	-56.117657	70.660	-0.050	0.160	-0.470	70.600	-1.200	-0.200																			1580066698.0	0.22	0.41
26/01/2020 19:24:59	26012020	260120	192459	70.440	12.187018	-56.117657	70.460	-0.210	0.400	0.050	70.380	-1.000	0.300	1013.70	26.60	26.30	21.10	21.10	493.00	71.00	73.00	386.00	30.20	14.00	3.80	84.00	3.70	33221	3504.00	27.80	27.90	1580066699.0	0.70	1.30
26/01/2020 19:25:00	26012020	260120	192500	70.120	12.187015	-56.117657	70.140	-0.300	0.360	0.600	70.050	-1.000	0.900																			1580066700.0	0.74	1.37
26/01/2020 19:25:01	26012020	260120	192501	69.850	12.187013	-56.117657	69.930	-0.270	0.020	0.980	69.830	-1.300	1.300																			1580066701.0	0.50	0.93
26/01/2020 19:25:02	26012020	260120	192502	69.840	12.187012	-56.117655	69.980	-0.100	-0.480	1.060	69.870	-1.800	1.400																			1580066702.0	0.26	0.48
26/01/2020 19:25:03	26012020	260120	192503	70.050	12.187013	-56.117653	70.200	0.120	-0.820	0.890	70.100	-2.200	1.200																			1580066703.0	0.38	0.70
26/01/2020 19:25:04	26012020	260120	192504	70.250	12.187013	-56.117653	70.370	0.270	-0.700	0.700	70.260	-2.100	1.100																			1580066704.0	0.33	0.61
26/01/2020 19:25:05	26012020	260120	192505	70.210	12.187013	-56.117653	70.280	0.240	-0.200	0.570	70.170	-1.600	0.900																			1580066705.0	0.10	0.19
26/01/2020 19:25:06	26012020	260120	192506	69.930	12.187013	-56.117653	69.980	0.090	0.330	0.390	69.870	-1.100	0.800																			1580066706.0	0.37	0.69
26/01/2020 19:25:07	26012020	260120	192507	69.610	12.187013	-56.117657	69.650	0.000	0.460	0.040	69.550	-0.900	0.400																			1580066707.0	0.51	0.94
26/01/2020 19:25:08	26012020	260120	192508	69.390	12.187015	-56.117658	69.450	0.090	0.140	-0.450	69.370	-1.200	-0.100																			1580066708.0	0.66	1.22
26/01/2020 19:25:09	26012020	260120	192509	69.350	12.187020	-56.117658	69.440	0.230	-0.300	-0.930	69.360	-1.600	-0.500																			1580066709.0	0.97	1.80
26/01/2020 19:25:10	26012020	260120	192510	69.470	12.187025	-56.117658	69.580	0.250	-0.560	-1.220	69.510	-1.900	-0.900																			1580066710.0	1.01	1.87
26/01/2020 19:25:11	26012020	260120	192511	69.680	12.187027	-56.117657	69.790	0.060	-0.550	-1.210	69.720	-1.900	-0.900																			1580066711.0	0.60	1.11
26/01/2020 19:25:12	26012020	260120	192512	69.830	12.187027	-56.117657	69.910	-0.260	-0.270	-0.840	69.840	-1.700	-0.600																			1580066712.0	0.16	0.30
26/01/2020 19:25:13	26012020	260120	192513	69.770	12.187023	-56.117655	69.830	-0.540	0.220	-0.130	69.740	-1.200	0.100																			1580066713.0	0.75	1.39
26/01/2020 19:25:14	26012020	260120	192514	69.550	12.187018	-56.117655	69.620	-0.600	0.660	0.650	69.520	-0.700	0.900																			1580066714.0	1.20	2.22
26/01/2020 19:25:15	26012020	260120	192515	69.390	12.187012	-56.117655	69.490	-0.370	0.660	1.110	69.380	-0.700	1.400																			1580066715.0	1.21	2.24
26/01/2020 19:25:16	26012020	260120	192516	69.400	12.187010	-56.117655	69.540	0.070	0.070	1.150	69.430	-1.200	1.500																			1580066716.0	0.63	1.17
26/01/2020 19:25:17	26012020	260120	192517	69.570	12.187010	-56.117653	69.730	0.480	-0.760	0.910	69.620	-2.100	1.300																			1580066717.0	0.38	0.70
26/01/2020 19:25:18	26012020	260120	192518	69.790	12.187013	-56.117652	69.930	0.630	-1.180	0.540	69.820	-2.500	0.900																			1580066718.0	0.91	1.69
26/01/2020 19:25:19	26012020	260120	192519	69.920	12.187018	-56.117652	70.030	0.480	-0.930	0.250	69.930	-2.400	0.600																			1580066719.0	0.87	1.61
26/01/2020 19:25:20	26012020	260120	192520	69.930	12.187020	-56.117652	70.010	0.180	-0.260	0.190	69.910	-1.700	0.500																			1580066720.0	0.55	1.02
26/01/2020 19:25:21	26012020	260120	192521	69.800	12.187020	-56.117655	69.870	-0.130	0.390	0.340	69.760	-1.000	0.700																			1580066721.0	0.46	0.85
26/01/2020 19:25:22	26012020	260120	192522	69.630	12.187018	-56.117655	69.700	-0.320	0.640	0.470	69.600	-0.700	0.800																			1580066722.0	0.55	1.02
26/01/2020 19:25:23	26012020	260120	192523	69.570	12.187017	-56.117655	69.680	-0.320	0.420	0.400	69.570	-0.900	0.800																			1580066723.0	0.35	0.65
26/01/2020 19:25:24	26012020	260120	192524	69.680	12.187017	-56.117655	69.810	-0.160	-0.030	0.140	69.710	-1.400	0.500																			1580066724.0	0.27	0.50
26/01/2020 19:25:25	26012020	260120	192525	69.880	12.187018	-56.117653	70.010	0.060	-0.390	-0.210	69.920	-1.700	0.200																			1580066725.0	0.54	1.00
26/01/2020 19:25:26	26012020	260120	192526	70.090	12.187022	-56.117652	70.210	0.230	-0.530	-0.510	70.120	-1.900	-0.100																			1580066726.0	0.60	1.11
26/01/2020 19:25:27	26012020	260120	192527	70.220	12.187023	-56.117652	70.310	0.270	-0.470	-0.530	70.230	-1.900	-0.200																			1580066727.0	0.48	0.89
26/01/2020 19:25:28	26012020	260120	192528	70.160	12.187023	-56.117653	70.220	0.120	-0.170	-0.170	70.130	-1.600	0.100																			1580066728.0	0.14	0.26
26/01/2020 19:25:29	26012020	260120	192529	69.940	12.187022	-56.117653	70.000	-0.190	0.280	0.430	69.900	-1.100	0.700																			1580066729.0	0.34	0.63
26/01/2020 19:25:30	26012020	260120	192530	69.730	12.187020	-56.117655	69.810	-0.500	0.550	0.960	69.690	-0.800	1.200																			1580066730.0	0.67	1.24
26/01/2020 19:25:31	26012020	260120	192531	69.640	12.187017	-56.117655	69.780	-0.560	0.340	1.150	69.650	-1.000	1.500																			1580066731.0	0.58	1.07
26/01/2020 19:25:32	26012020	260120	192532	69.780	12.187017	-56.117655	69.960	-0.260	-0.320	0.960	69.830	-1.600	1.300																			1580066732.0	0.14	0.26
26/01/2020 19:25:33	26012020	260120	192533	70.040	12.187018	-56.117653	70.190	0.280	-1.020	0.620	70.080	-2.300	1.000																			1580066733.0	0.51	0.94
26/01/2020 19:25:34	26012020	260120	192534	70.160	12.187020	-56.117650	70.270	0.680	-1.170	0.430	70.150	-2.600	0.800																			1580066734.0	0.71	1.31
26/01/2020 19:25:35	26012020	260120	192535	70.070	12.187022	-56.117650	70.080	0.670	-0.630	0.320	70.030	-2.100	0.700																			1580066735.0	0.34	0.63
26/01/2020 19:25:36	26012020	260120	192536	69.730	12.187022	-56.117652	69.770	0.270	0.180	0.130	69.670	-1.300	0.500																			1580066736.0	0.37	0.69
26/01/2020 19:25:37	26012020	260120	192537	69.530	12.187022	-56.117655	69.570	-0.190	0.670	-0.200	69.500	-0.700	0.200																			1580066737.0	0.80	1.48
26/01/2020 19:25:38	26012020	260120	192538	69.540	12.187025	-56.117658	69.660	-0.390	0.600	-0.610	69.580	-0.800	-0.200																			1580066738.0	0.82	1.52
26/01/2020 19:25:39	26012020	260120	192539	69.830	12.187028	-56.117658	69.970	-0.280	0.170	-1.010	69.900	-1.200	-0.600																			1580066739.0	0.70	1.30
26/01/2020 19:25:40	26012020	260120	192540	70.150	12.187030	-56.117657	70.260	-0.090	-0.170	-1.210	70.200	-1.500	-0.900																			1580066740.0	0.64	1.19
26/01/2020 19:25:41	26012020	260120	192541	70.330	12.187032	-56.117657	70.400	-0.050	-0.190	-1.110	70.350	-1.600	-0.800																			1580066741.0	0.35	0.65
26/01/2020 19:25:42	26012020	260120	192542	70.370	12.187032	-56.117657	70.430	-0.160	0.020	-0.640	70.360	-1.400	-0.400																			1580066742.0	0.17	0.31
26/01/2020 19:25:43	26012020	260120	192543	70.330	12.187028	-56.117658	70.400	-0.270	0.100	0.080	70.330	-1.300	0.300																			1580066743.0	0.64	1.19
26/01/2020 19:25:44	26012020	260120	192544	70.310	12.187025	-56.117658	70.390	-0.210	-0.180	0.800	70.300	-1.500	1.100																			1580066744.0	0.82	1.52
26/01/2020 19:25:45	26012020	260120	192545	70.270	12.187022	-56.117658	70.370	0.040	-0.710	1.390	70.260	-2.000	1.700																			1580066745.0	0.74	1.37
26/01/2020 19:25:46	26012020	260120	192546	70.180	12.187020	-56.117655	70.290	0.320	-1.000	1.840	70.160	-2.400	2.100																			1580066746.0	0.76	1.41
26/01/2020 19:25:47	26012020	260120	192547	70.100	12.187018	-56.117652	70.230	0.420	-0.780	1.980	70.100	-2.200	2.300																			1580066747.0	0.66	1.22
26/01/2020 19:25:48	26012020	260120	192548	70.110	12.187017	-56.117652	70.250	0.280	-0.160	1.700	70.120	-1.600	2.100																			1580066748.0	0.21	0.39
26/01/2020 19:25:49	26012020	260120	192549	70.160	12.187018	-56.117653	70.290	0.020	0.490	1.070	70.180	-0.900	1.500																			1580066749.0	0.45	0.83
26/01/2020 19:25:50	26012020	260120	192550	70.260	12.187020	-56.117657	70.390	-0.170	0.770	0.260	70.290	-0.600	0.700																			1580066750.0	0.90	1.67
26/01/2020 19:25:51	26012020	260120	192551	70.470	12.187025	-56.117660	70.590	-0.180	0.540	-0.640	70.520	-0.800	-0.200																			1580066751.0	1.13	2.09
26/01/2020 19:25:52	26012020	260120	192552	70.700	12.187030	-56.117660	70.790	-0.070	0.000	-1.350	70.740	-1.300	-0.900																			1580066752.0	1.17	2.17
26/01/2020 19:25:53	26012020	260120	192553	70.800	12.187035	-56.117660	70.840	0.030	-0.430	-1.630	70.800	-1.800	-1.300																			1580066753.0	0.99	1.83
26/01/2020 19:25:54	26012020	260120	192554	70.720	12.187038	-56.117658	70.750	0.020	-0.490	-1.420	70.700	-1.900	-1.100																			1580066754.0	0.54	1.00
26/01/2020 19:25:55	26012020	260120	192555	70.570	12.187037	-56.117658	70.600	-0.070	-0.280	-0.860	70.530	-1.700	-0.600																			1580066755.0	0.09	0.17
26/01/2020 19:25:56	26012020	260120	192556	70.430	12.187035	-56.117658	70.500	-0.130	-0.090	-0.150	70.410	-1.500	0.100																			1580066756.0	0.51	0.94
26/01/2020 19:25:57	26012020	260120	192557	70.340	12.187032	-56.117658	70.420	-0.130	-0.090	0.580	70.320	-1.400	0.800																			1580066757.0	0.63	1.17
26/01/2020 19:25:58	26012020	260120	192558	70.250	12.187030	-56.117658	70.360	-0.090	-0.180	1.210	70.240	-1.500	1.500																			1580066758.0	0.61	1.13
26/01/2020 19:25:59	26012020	260120	192559	70.200	12.187027	-56.117657	70.310	-0.060	-0.240	1.630	70.190	-1.600	1.900	1013.70	26.50	26.30	21.10	21.20	469.00	72.00	73.00	387.00	30.20	12.00	3.70	83.00	3.40	32171	3291.00	27.80	27.90	1580066759.0	0.61	1.13
26/01/2020 19:26:00	26012020	260120	192600	70.130	12.187025	-56.117655	70.240	-0.080	-0.250	1.800	70.100	-1.600	2.100																			1580066760.0	0.56	1.04
26/01/2020 19:26:01	26012020	260120	192601	70.030	12.187023	-56.117653	70.100	-0.110	-0.230	1.710	70.000	-1.600	2.100																			1580066761.0	0.40	0.74
26/01/2020 19:26:02	26012020	260120	192602	69.820	12.187023	-56.117653	69.910	-0.030	-0.230	1.300	69.790	-1.600	1.700																			1580066762.0	0.11	0.20
26/01/2020 19:26:03	26012020	260120	192603	69.670	12.187025	-56.117653	69.760	0.170	-0.240	0.510	69.650	-1.600	0.900																			1580066763.0	0.42	0.78
26/01/2020 19:26:04	26012020	260120	192604	69.640	12.187030	-56.117655	69.720	0.410	-0.190	-0.560	69.640	-1.600	-0.100																			1580066764.0	1.01	1.87
26/01/2020 19:26:05	26012020	260120	192605	69.710	12.187037	-56.117657	69.780	0.480	-0.030	-1.580	69.730	-1.400	-1.100																			1580066765.0	1.50	2.78
26/01/2020 19:26:06	26012020	260120	192606	69.800	12.187043	-56.117658	69.850	0.240	0.250	-2.190	69.810	-1.200	-1.800																			1580066766.0	1.57	2.91
26/01/2020 19:26:07	26012020	260120	192607	69.850	12.187048	-56.117662	69.890	-0.250	0.480	-2.210	69.860	-0.900	-1.900																			1580066767.0	1.11	2.06
26/01/2020 19:26:08	26012020	260120	192608	69.840	12.187048	-56.117663	69.870	-0.680	0.430	-1.670	69.830	-0.900	-1.400																			1580066768.0	0.42	0.78
26/01/2020 19:26:09	26012020	260120	192609	69.760	12.187045	-56.117663	69.800	-0.740	-0.010	-0.750	69.740	-1.300	-0.500																			1580066769.0	0.67	1.24
26/01/2020 19:26:10	26012020	260120	192610	69.620	12.187040	-56.117660	69.650	-0.380	-0.660	0.290	69.580	-2.000	0.500																			1580066770.0	1.29	2.39
26/01/2020 19:26:11	26012020	260120	192611	69.390	12.187033	-56.117655	69.430	0.150	-1.070	1.220	69.340	-2.400	1.500																			1580066771.0	1.54	2.85
26/01/2020 19:26:12	26012020	260120	192612	69.180	12.187030	-56.117652	69.250	0.490	-0.940	1.800	69.150	-2.300	2.100																			1580066772.0	1.25	2.31
26/01/2020 19:26:13	26012020	260120	192613	69.100	12.187027	-56.117652	69.210	0.480	-0.400	1.850	69.100	-1.800	2.200																			1580066773.0	0.54	1.00
26/01/2020 19:26:14	26012020	260120	192614	69.210	12.187027	-56.117653	69.360	0.210	0.160	1.390	69.250	-1.300	1.800																			1580066774.0	0.35	0.65
26/01/2020 19:26:15	26012020	260120	192615	69.480	12.187030	-56.117655	69.630	-0.100	0.450	0.610	69.540	-0.900	1.000																			1580066775.0	0.73	1.35
26/01/2020 19:26:16	26012020	260120	192616	69.760	12.187033	-56.117657	69.870	-0.260	0.450	-0.210	69.800	-0.900	0.200																			1580066776.0	0.81	1.50
26/01/2020 19:26:17	26012020	260120	192617	69.880	12.187035	-56.117658	69.930	-0.260	0.320	-0.790	69.880	-1.000	-0.400																			1580066777.0	0.66	1.22
26/01/2020 19:26:18	26012020	260120	192618	69.810	12.187038	-56.117658	69.840	-0.160	0.190	-1.130	69.780	-1.200	-0.800																			1580066778.0	0.41	0.76
26/01/2020 19:26:19	26012020	260120	192619	69.650	12.187038	-56.117658	69.670	-0.000	-0.010	-1.300	69.620	-1.400	-0.900																			1580066779.0	0.25	0.46
26/01/2020 19:26:20	26012020	260120	192620	69.540	12.187040	-56.117658	69.570	0.190	-0.410	-1.340	69.530	-1.700	-1.000																			1580066780.0	0.30	0.56
26/01/2020 19:26:21	26012020	260120	192621	69.570	12.187042	-56.117658	69.640	0.320	-0.850	-1.230	69.600	-2.200	-0.900																			1580066781.0	0.43	0.80
26/01/2020 19:26:22	26012020	260120	192622	69.710	12.187043	-56.117657	69.780	0.240	-0.930	-0.880	69.740	-2.300	-0.600																			1580066782.0	0.49	0.91
26/01/2020 19:26:23	26012020	260120	192623	69.800	12.187043	-56.117657	69.850	-0.060	-0.420	-0.170	69.790	-1.900	0.100																			1580066783.0	0.24	0.44
26/01/2020 19:26:24	26012020	260120	192624	69.750	12.187040	-56.117657	69.810	-0.410	0.310	0.770	69.730	-1.100	1.000																			1580066784.0	0.87	1.61
26/01/2020 19:26:25	26012020	260120	192625	69.650	12.187032	-56.117657	69.700	-0.560	0.660	1.690	69.630	-0.700	1.900																			1580066785.0	1.54	2.85
26/01/2020 19:26:26	26012020	260120	192626	69.520	12.187025	-56.117657	69.630	-0.370	0.380	2.230	69.520	-0.900	2.500																			1580066786.0	1.57	2.91
26/01/2020 19:26:27	26012020	260120	192627	69.540	12.187022	-56.117653	69.700	0.060	-0.190	2.110	69.560	-1.500	2.500																			1580066787.0	1.10	2.04
26/01/2020 19:26:28	26012020	260120	192628	69.760	12.187022	-56.117650	69.910	0.470	-0.540	1.340	69.810	-1.900	1.800																			1580066788.0	0.62	1.15
26/01/2020 19:26:29	26012020	260120	192629	70.030	12.187027	-56.117650	70.150	0.660	-0.490	0.230	70.070	-1.900	0.700																			1580066789.0	0.97	1.80
26/01/2020 19:26:30	26012020	260120	192630	70.160	12.187032	-56.117653	70.220	0.560	-0.210	-0.740	70.160	-1.600	-0.300																			1580066790.0	1.49	2.76
26/01/2020 19:26:31	26012020	260120	192631	70.030	12.187038	-56.117657	70.020	0.230	0.070	-1.210	69.970	-1.300	-0.800																			1580066791.0	1.50	2.78
26/01/2020 19:26:32	26012020	260120	192632	69.710	12.187042	-56.117660	69.690	-0.170	0.180	-1.140	69.640	-1.200	-0.800																			1580066792.0	0.98	1.81
26/01/2020 19:26:33	26012020	260120	192633	69.460	12.187042	-56.117660	69.490	-0.480	0.030	-0.830	69.430	-1.300	-0.500																			1580066793.0	0.26	0.48
26/01/2020 19:26:34	26012020	260120	192634	69.430	12.187042	-56.117660	69.510	-0.590	-0.240	-0.500	69.450	-1.600	-0.200																			1580066794.0	0.35	0.65
26/01/2020 19:26:35	26012020	260120	192635	69.600	12.187038	-56.117657	69.710	-0.510	-0.380	-0.180	69.650	-1.800	0.100																			1580066795.0	0.69	1.28
26/01/2020 19:26:36	26012020	260120	192636	69.830	12.187035	-56.117655	69.960	-0.300	-0.230	0.170	69.870	-1.600	0.500																			1580066796.0	0.85	1.57
26/01/2020 19:26:37	26012020	260120	192637	69.990	12.187032	-56.117655	70.090	-0.020	0.040	0.560	70.010	-1.400	0.900																			1580066797.0	0.92	1.70
26/01/2020 19:26:38	26012020	260120	192638	69.980	12.187027	-56.117655	70.040	0.300	0.120	0.870	69.960	-1.300	1.200																			1580066798.0	0.81	1.50
26/01/2020 19:26:39	26012020	260120	192639	69.790	12.187025	-56.117655	69.830	0.580	-0.110	0.980	69.740	-1.500	1.300																			1580066799.0	0.39	0.72
26/01/2020 19:26:40	26012020	260120	192640	69.560	12.187027	-56.117653	69.620	0.760	-0.500	0.870	69.530	-1.800	1.200																			1580066800.0	0.27	0.50
26/01/2020 19:26:41	26012020	260120	192641	69.440	12.187030	-56.117653	69.520	0.690	-0.720	0.690	69.420	-2.100	1.000																			1580066801.0	0.71	1.31
26/01/2020 19:26:42	26012020	260120	192642	69.360	12.187033	-56.117652	69.440	0.320	-0.480	0.540	69.350	-1.900	0.900																			1580066802.0	0.73	1.35
26/01/2020 19:26:43	26012020	260120	192643	69.290	12.187035	-56.117653	69.360	-0.230	0.120	0.400	69.270	-1.300	0.800																			1580066803.0	0.46	0.85
26/01/2020 19:26:44	26012020	260120	192644	69.230	12.187035	-56.117655	69.300	-0.660	0.640	0.240	69.220	-0.800	0.600																			1580066804.0	0.54	1.00
26/01/2020 19:26:45	26012020	260120	192645	69.240	12.187035	-56.117658	69.340	-0.720	0.640	0.030	69.260	-0.700	0.400																			1580066805.0	0.51	0.94
26/01/2020 19:26:46	26012020	260120	192646	69.360	12.187035	-56.117658	69.460	-0.480	0.210	-0.180	69.380	-1.100	0.200																			1580066806.0	0.08	0.15
26/01/2020 19:26:47	26012020	260120	192647	69.470	12.187035	-56.117657	69.560	-0.190	-0.200	-0.300	69.480	-1.600	0.000																			1580066807.0	0.37	0.69
26/01/2020 19:26:48	26012020	260120	192648	69.540	12.187035	-56.117655	69.620	-0.030	-0.340	-0.350	69.550	-1.700	-0.000																			1580066808.0	0.30	0.56
26/01/2020 19:26:49	26012020	260120	192649	69.560	12.187035	-56.117655	69.620	0.040	-0.330	-0.280	69.550	-1.700	0.000																			1580066809.0	0.10	0.19
26/01/2020 19:26:50	26012020	260120	192650	69.460	12.187035	-56.117657	69.500	0.120	-0.370	-0.030	69.430	-1.700	0.300																			1580066810.0	0.29	0.54
26/01/2020 19:26:51	26012020	260120	192651	69.240	12.187035	-56.117658	69.260	0.250	-0.510	0.320	69.190	-1.900	0.600																			1580066811.0	0.17	0.31
26/01/2020 19:26:52	26012020	260120	192652	69.010	12.187033	-56.117657	69.060	0.360	-0.690	0.620	68.970	-2.100	0.900																			1580066812.0	0.16	0.30
26/01/2020 19:26:53	26012020	260120	192653	68.890	12.187033	-56.117655	68.980	0.390	-0.710	0.820	68.880	-2.100	1.100																			1580066813.0	0.33	0.61
26/01/2020 19:26:54	26012020	260120	192654	68.950	12.187033	-56.117653	69.080	0.310	-0.390	0.780	68.980	-1.800	1.100																			1580066814.0	0.33	0.61
26/01/2020 19:26:55	26012020	260120	192655	69.160	12.187033	-56.117653	69.310	0.160	0.210	0.490	69.220	-1.200	0.900																			1580066815.0	0.03	0.06
26/01/2020 19:26:56	26012020	260120	192656	69.430	12.187035	-56.117655	69.560	-0.020	0.780	0.010	69.480	-0.700	0.400																			1580066816.0	0.42	0.78
26/01/2020 19:26:57	26012020	260120	192657	69.650	12.187037	-56.117658	69.750	-0.180	0.960	-0.480	69.690	-0.400	-0.100																			1580066817.0	0.73	1.35
26/01/2020 19:26:58	26012020	260120	192658	69.800	12.187038	-56.117660	69.880	-0.300	0.650	-0.770	69.820	-0.700	-0.400																			1580066818.0	0.73	1.35
26/01/2020 19:26:59	26012020	260120	192659	69.850	12.187042	-56.117662	69.910	-0.370	-0.030	-0.750	69.850	-1.300	-0.400	1013.70	26.50	26.30	21.20	21.20	494.00	72.00	73.00	387.00	30.10	20.00	3.90	91.00	3.60	32723	3385.00	27.80	27.80	1580066819.0	0.48	0.89
26/01/2020 19:27:00	26012020	260120	192700	69.800	12.187042	-56.117660	69.850	-0.380	-0.710	-0.430	69.790	-2.000	-0.100																			1580066820.0	0.33	0.61
26/01/2020 19:27:01	26012020	260120	192701	69.710	12.187040	-56.117658	69.770	-0.330	-1.030	0.040	69.690	-2.400	0.300																			1580066821.0	0.50	0.93
26/01/2020 19:27:02	26012020	260120	192702	69.670	12.187038	-56.117657	69.770	-0.220	-0.900	0.470	69.680	-2.300	0.800																			1580066822.0	0.64	1.19
26/01/2020 19:27:03	26012020	260120	192703	69.710	12.187035	-56.117657	69.850	-0.030	-0.460	0.750	69.730	-1.900	1.100																			1580066823.0	0.68	1.26
26/01/2020 19:27:04	26012020	260120	192704	69.870	12.187032	-56.117657	70.020	0.170	0.020	0.790	69.910	-1.400	1.100																			1580066824.0	0.61	1.13
26/01/2020 19:27:05	26012020	260120	192705	70.120	12.187032	-56.117658	70.260	0.330	0.260	0.570	70.170	-1.100	0.900																			1580066825.0	0.34	0.63
26/01/2020 19:27:06	26012020	260120	192706	70.410	12.187032	-56.117658	70.550	0.410	0.180	0.170	70.470	-1.200	0.500																			1580066826.0	0.32	0.59
26/01/2020 19:27:07	26012020	260120	192707	70.640	12.187035	-56.117658	70.730	0.420	-0.050	-0.190	70.660	-1.400	0.200																			1580066827.0	0.70	1.30
26/01/2020 19:27:08	26012020	260120	192708	70.660	12.187038	-56.117658	70.710	0.320	-0.150	-0.230	70.640	-1.500	0.100																			1580066828.0	0.75	1.39
26/01/2020 19:27:09	26012020	260120	192709	70.540	12.187040	-56.117658	70.600	0.090	-0.090	0.050	70.520	-1.500	0.400																			1580066829.0	0.35	0.65
26/01/2020 19:27:10	26012020	260120	192710	70.480	12.187040	-56.117658	70.570	-0.210	-0.060	0.340	70.490	-1.400	0.600																			1580066830.0	0.16	0.30
26/01/2020 19:27:11	26012020	260120	192711	70.520	12.187038	-56.117658	70.610	-0.470	-0.080	0.470	70.530	-1.500	0.800																			1580066831.0	0.39	0.72
26/01/2020 19:27:12	26012020	260120	192712	70.550	12.187037	-56.117657	70.640	-0.560	-0.030	0.510	70.560	-1.400	0.800																			1580066832.0	0.37	0.69
26/01/2020 19:27:13	26012020	260120	192713	70.620	12.187035	-56.117657	70.730	-0.440	0.050	0.420	70.650	-1.300	0.800																			1580066833.0	0.28	0.52
26/01/2020 19:27:14	26012020	260120	192714	70.800	12.187035	-56.117657	70.920	-0.110	-0.050	0.150	70.850	-1.400	0.500																			1580066834.0	0.13	0.24
26/01/2020 19:27:15	26012020	260120	192715	71.000	12.187037	-56.117658	71.150	0.300	-0.280	-0.240	71.040	-1.600	0.100																			1580066835.0	0.26	0.48
26/01/2020 19:27:16	26012020	260120	192716	71.210	12.187038	-56.117657	71.290	0.600	-0.440	-0.540	71.240	-1.800	-0.200																			1580066836.0	0.55	1.02
26/01/2020 19:27:17	26012020	260120	192717	71.250	12.187042	-56.117657	71.280	0.640	-0.410	-0.590	71.240	-1.800	-0.300																			1580066837.0	0.59	1.09
26/01/2020 19:27:18	26012020	260120	192718	71.100	12.187043	-56.117658	71.110	0.380	-0.240	-0.310	71.050	-1.600	-0.000																			1580066838.0	0.34	0.63
26/01/2020 19:27:19	26012020	260120	192719	70.810	12.187043	-56.117658	70.830	-0.080	-0.050	0.160	70.760	-1.400	0.400																			1580066839.0	0.05	0.09
26/01/2020 19:27:20	26012020	260120	192720	70.590	12.187042	-56.117658	70.660	-0.500	0.050	0.570	70.570	-1.300	0.900																			1580066840.0	0.34	0.63
26/01/2020 19:27:21	26012020	260120	192721	70.580	12.187038	-56.117657	70.690	-0.670	0.120	0.760	70.600	-1.300	1.100																			1580066841.0	0.48	0.89
26/01/2020 19:27:22	26012020	260120	192722	70.750	12.187037	-56.117657	70.890	-0.520	0.130	0.680	70.800	-1.200	1.000																			1580066842.0	0.49	0.91
26/01/2020 19:27:23	26012020	260120	192723	70.990	12.187035	-56.117655	71.130	-0.140	0.020	0.400	71.040	-1.300	0.800																			1580066843.0	0.35	0.65
26/01/2020 19:27:24	26012020	260120	192724	71.150	12.187035	-56.117655	71.250	0.260	-0.190	0.100	71.160	-1.500	0.400																			1580066844.0	0.16	0.30
26/01/2020 19:27:25	26012020	260120	192725	71.160	12.187037	-56.117653	71.210	0.490	-0.310	-0.190	71.140	-1.700	0.200																			1580066845.0	0.27	0.50
26/01/2020 19:27:26	26012020	260120	192726	71.040	12.187038	-56.117653	71.080	0.470	-0.300	-0.420	71.010	-1.700	-0.100																			1580066846.0	0.42	0.78
26/01/2020 19:27:27	26012020	260120	192727	70.880	12.187040	-56.117655	70.930	0.320	-0.210	-0.570	70.860	-1.600	-0.200																			1580066847.0	0.61	1.13
26/01/2020 19:27:28	26012020	260120	192728	70.770	12.187043	-56.117657	70.830	0.170	-0.130	-0.620	70.760	-1.500	-0.300																			1580066848.0	0.67	1.24
26/01/2020 19:27:29	26012020	260120	192729	70.790	12.187045	-56.117657	70.870	0.040	-0.120	-0.540	70.800	-1.500	-0.200																			1580066849.0	0.48	0.89
26/01/2020 19:27:30	26012020	260120	192730	70.920	12.187047	-56.117657	71.010	-0.130	-0.180	-0.250	70.940	-1.500	0.000																			1580066850.0	0.12	0.22
26/01/2020 19:27:31	26012020	260120	192731	71.030	12.187045	-56.117655	71.120	-0.340	-0.200	0.240	71.040	-1.600	0.500																			1580066851.0	0.44	0.81
26/01/2020 19:27:32	26012020	260120	192732	71.040	12.187042	-56.117653	71.120	-0.470	-0.120	0.830	71.030	-1.500	1.100																			1580066852.0	0.84	1.56
26/01/2020 19:27:33	26012020	260120	192733	70.990	12.187037	-56.117652	71.080	-0.440	0.020	1.260	70.990	-1.400	1.500																			1580066853.0	1.04	1.93
26/01/2020 19:27:34	26012020	260120	192734	70.960	12.187033	-56.117650	71.050	-0.220	0.090	1.360	70.950	-1.300	1.700																			1580066854.0	0.95	1.76
26/01/2020 19:27:35	26012020	260120	192735	70.920	12.187030	-56.117648	71.010	0.100	0.070	1.140	70.910	-1.300	1.500																			1580066855.0	0.58	1.07
26/01/2020 19:27:36	26012020	260120	192736	70.890	12.187030	-56.117648	70.960	0.390	-0.050	0.680	70.880	-1.400	1.100																			1580066856.0	0.11	0.20
26/01/2020 19:27:37	26012020	260120	192737	70.880	12.187033	-56.117648	70.940	0.560	-0.200	-0.010	70.880	-1.600	0.400																			1580066857.0	0.56	1.04
26/01/2020 19:27:38	26012020	260120	192738	70.920	12.187038	-56.117650	70.970	0.540	-0.330	-0.870	70.930	-1.700	-0.500																			1580066858.0	1.21	2.24
26/01/2020 19:27:39	26012020	260120	192739	70.990	12.187045	-56.117652	71.060	0.340	-0.360	-1.550	71.010	-1.700	-1.200																			1580066859.0	1.63	3.02
26/01/2020 19:27:40	26012020	260120	192740	71.080	12.187052	-56.117653	71.120	0.020	-0.310	-1.610	71.090	-1.700	-1.300																			1580066860.0	1.38	2.56
26/01/2020 19:27:41	26012020	260120	192741	71.080	12.187053	-56.117653	71.110	-0.300	-0.200	-0.920	71.070	-1.600	-0.700																			1580066861.0	0.32	0.59
26/01/2020 19:27:42	26012020	260120	192742	70.970	12.187048	-56.117652	71.020	-0.520	-0.040	0.180	70.940	-1.400	0.400																			1580066862.0	0.99	1.83
26/01/2020 19:27:43	26012020	260120	192743	70.810	12.187040	-56.117650	70.880	-0.550	0.110	1.210	70.790	-1.300	1.400																			1580066863.0	1.84	3.41
26/01/2020 19:27:44	26012020	260120	192744	70.680	12.187032	-56.117647	70.760	-0.400	0.160	1.750	70.660	-1.200	2.100																			1580066864.0	1.84	3.41
26/01/2020 19:27:45	26012020	260120	192745	70.650	12.187028	-56.117645	70.780	-0.070	0.010	1.680	70.670	-1.300	2.000																			1580066865.0	1.10	2.04
26/01/2020 19:27:46	26012020	260120	192746	70.790	12.187028	-56.117643	70.930	0.310	-0.280	1.090	70.820	-1.600	1.500																			1580066866.0	0.18	0.33
26/01/2020 19:27:47	26012020	260120	192747	70.990	12.187032	-56.117643	71.120	0.590	-0.500	0.300	71.030	-1.900	0.700																			1580066867.0	0.95	1.76
26/01/2020 19:27:48	26012020	260120	192748	71.160	12.187038	-56.117645	71.250	0.630	-0.440	-0.400	71.180	-1.800	0.000																			1580066868.0	1.30	2.41
26/01/2020 19:27:49	26012020	260120	192749	71.210	12.187043	-56.117645	71.260	0.370	-0.130	-0.750	71.200	-1.500	-0.400																			1580066869.0	1.09	2.02
26/01/2020 19:27:50	26012020	260120	192750	71.100	12.187045	-56.117647	71.120	-0.090	0.240	-0.700	71.070	-1.200	-0.400																			1580066870.0	0.53	0.98
26/01/2020 19:27:51	26012020	260120	192751	70.900	12.187043	-56.117648	70.910	-0.510	0.380	-0.430	70.850	-1.000	-0.100																			1580066871.0	0.34	0.63
26/01/2020 19:27:52	26012020	260120	192752	70.680	12.187042	-56.117648	70.700	-0.630	0.170	-0.080	70.630	-1.200	0.200																			1580066872.0	0.52	0.96
26/01/2020 19:27:53	26012020	260120	192753	70.530	12.187040	-56.117647	70.560	-0.360	-0.290	0.240	70.510	-1.600	0.500																			1580066873.0	0.56	1.04
26/01/2020 19:27:54	26012020	260120	192754	70.530	12.187038	-56.117645	70.630	0.080	-0.710	0.380	70.560	-2.100	0.700																			1580066874.0	0.62	1.15
26/01/2020 19:27:55	26012020	260120	192755	70.730	12.187038	-56.117642	70.850	0.410	-0.750	0.320	70.770	-2.100	0.700																			1580066875.0	0.53	0.98
26/01/2020 19:27:56	26012020	260120	192756	70.890	12.187038	-56.117642	70.980	0.440	-0.260	0.210	70.910	-1.700	0.600																			1580066876.0	0.24	0.44
26/01/2020 19:27:57	26012020	260120	192757	70.890	12.187040	-56.117643	70.940	0.210	0.410	0.190	70.870	-1.000	0.500																			1580066877.0	0.38	0.70
26/01/2020 19:27:58	26012020	260120	192758	70.760	12.187038	-56.117647	70.810	-0.060	0.670	0.310	70.730	-0.700	0.600																			1580066878.0	0.63	1.17
26/01/2020 19:27:59	26012020	260120	192759	70.650	12.187038	-56.117647	70.720	-0.200	0.240	0.430	70.640	-1.100	0.800	1013.70	26.40	26.30	21.10	21.20	504.00	72.00	73.00	387.00	30.00	18.00	3.80	90.00	3.60	32799	3402.00	27.80	27.80	1580066879.0	0.31	0.57
26/01/2020 19:28:00	26012020	260120	192800	70.650	12.187038	-56.117645	70.750	-0.180	-0.500	0.490	70.660	-1.800	0.800																			1580066880.0	0.37	0.69
26/01/2020 19:28:01	26012020	260120	192801	70.700	12.187038	-56.117642	70.800	-0.110	-0.920	0.550	70.700	-2.300	0.900																			1580066881.0	0.76	1.41
26/01/2020 19:28:02	26012020	260120	192802	70.710	12.187038	-56.117638	70.810	-0.070	-0.700	0.580	70.710	-2.100	0.900																			1580066882.0	0.64	1.19
26/01/2020 19:28:03	26012020	260120	192803	70.700	12.187037	-56.117638	70.780	-0.070	-0.040	0.470	70.690	-1.500	0.800																			1580066883.0	0.40	0.74
26/01/2020 19:28:04	26012020	260120	192804	70.630	12.187035	-56.117640	70.690	-0.040	0.510	0.280	70.600	-0.900	0.600																			1580066884.0	0.57	1.06
26/01/2020 19:28:05	26012020	260120	192805	70.550	12.187035	-56.117643	70.610	0.080	0.550	-0.050	70.540	-0.800	0.300																			1580066885.0	0.52	0.96
26/01/2020 19:28:06	26012020	260120	192806	70.520	12.187037	-56.117645	70.600	0.270	0.130	-0.500	70.530	-1.200	-0.100																			1580066886.0	0.62	1.15
26/01/2020 19:28:07	26012020	260120	192807	70.570	12.187042	-56.117645	70.680	0.390	-0.350	-0.880	70.590	-1.700	-0.500																			1580066887.0	1.10	2.04
26/01/2020 19:28:08	26012020	260120	192808	70.720	12.187048	-56.117645	70.800	0.300	-0.590	-0.980	70.740	-2.000	-0.700																			1580066888.0	1.14	2.11
26/01/2020 19:28:09	26012020	260120	192809	70.820	12.187050	-56.117645	70.890	-0.010	-0.500	-0.680	70.830	-1.900	-0.400																			1580066889.0	0.61	1.13
26/01/2020 19:28:10	26012020	260120	192810	70.820	12.187048	-56.117645	70.880	-0.430	-0.250	0.060	70.810	-1.700	0.300																			1580066890.0	0.27	0.50
26/01/2020 19:28:11	26012020	260120	192811	70.740	12.187043	-56.117643	70.810	-0.680	-0.040	1.020	70.720	-1.400	1.300																			1580066891.0	1.16	2.15
26/01/2020 19:28:12	26012020	260120	192812	70.670	12.187037	-56.117642	70.780	-0.590	-0.010	1.790	70.670	-1.400	2.100																			1580066892.0	1.66	3.07
26/01/2020 19:28:13	26012020	260120	192813	70.710	12.187030	-56.117638	70.850	-0.190	-0.170	2.050	70.730	-1.500	2.400																			1580066893.0	1.52	2.82
26/01/2020 19:28:14	26012020	260120	192814	70.830	12.187027	-56.117637	70.960	0.280	-0.280	1.730	70.850	-1.700	2.100																			1580066894.0	0.88	1.63
26/01/2020 19:28:15	26012020	260120	192815	70.940	12.187028	-56.117635	71.070	0.550	-0.110	0.930	70.970	-1.500	1.300																			1580066895.0	0.34	0.63
26/01/2020 19:28:16	26012020	260120	192816	71.080	12.187032	-56.117637	71.180	0.550	0.240	-0.120	71.100	-1.200	0.300																			1580066896.0	1.04	1.93
26/01/2020 19:28:17	26012020	260120	192817	71.220	12.187038	-56.117640	71.310	0.380	0.440	-1.110	71.260	-1.000	-0.700																			1580066897.0	1.64	3.04
26/01/2020 19:28:18	26012020	260120	192818	71.360	12.187045	-56.117645	71.410	0.150	0.240	-1.720	71.380	-1.100	-1.300																			1580066898.0	1.72	3.19
26/01/2020 19:28:19	26012020	260120	192819	71.400	12.187052	-56.117647	71.430	-0.050	-0.230	-1.720	71.390	-1.600	-1.400																			1580066899.0	1.21	2.24
26/01/2020 19:28:20	26012020	260120	192820	71.300	12.187053	-56.117647	71.320	-0.240	-0.660	-1.180	71.270	-2.000	-0.900																			1580066900.0	0.42	0.78
26/01/2020 19:28:21	26012020	260120	192821	71.120	12.187050	-56.117643	71.150	-0.400	-0.850	-0.300	71.080	-2.200	-0.100																			1580066901.0	0.65	1.20
26/01/2020 19:28:22	26012020	260120	192822	70.940	12.187047	-56.117642	71.000	-0.500	-0.680	0.690	70.920	-2.100	0.900																			1580066902.0	1.18	2.19
26/01/2020 19:28:23	26012020	260120	192823	70.870	12.187040	-56.117640	70.990	-0.500	-0.200	1.510	70.880	-1.600	1.800																			1580066903.0	1.43	2.65
26/01/2020 19:28:24	26012020	260120	192824	71.010	12.187033	-56.117638	71.180	-0.370	0.280	1.860	71.070	-1.100	2.200																			1580066904.0	1.32	2.44
26/01/2020 19:28:25	26012020	260120	192825	71.380	12.187030	-56.117638	71.590	-0.110	0.440	1.590	71.480	-0.900	2.000																			1580066905.0	0.82	1.52
26/01/2020 19:28:26	26012020	260120	192826	71.850	12.187030	-56.117638	72.010	0.240	0.260	0.900	71.920	-1.100	1.300																			1580066906.0	0.08	0.15
26/01/2020 19:28:27	26012020	260120	192827	72.130	12.187032	-56.117638	72.230	0.560	-0.030	0.140	72.150	-1.400	0.500																			1580066907.0	0.61	1.13
26/01/2020 19:28:28	26012020	260120	192828	72.170	12.187037	-56.117638	72.230	0.710	-0.230	-0.470	72.160	-1.600	-0.100																			1580066908.0	0.92	1.70
26/01/2020 19:28:29	26012020	260120	192829	72.120	12.187042	-56.117640	72.170	0.600	-0.300	-0.880	72.110	-1.700	-0.500																			1580066909.0	1.00	1.85
26/01/2020 19:28:30	26012020	260120	192830	72.100	12.187045	-56.117642	72.150	0.280	-0.270	-1.020	72.090	-1.700	-0.700																			1580066910.0	0.95	1.76
26/01/2020 19:28:31	26012020	260120	192831	72.080	12.187048	-56.117643	72.140	-0.120	-0.150	-0.850	72.080	-1.500	-0.500																			1580066911.0	0.67	1.24
26/01/2020 19:28:32	26012020	260120	192832	72.080	12.187048	-56.117643	72.150	-0.450	-0.030	-0.390	72.080	-1.400	-0.100																			1580066912.0	0.26	0.48
26/01/2020 19:28:33	26012020	260120	192833	72.100	12.187047	-56.117643	72.190	-0.630	-0.060	0.230	72.100	-1.400	0.500																			1580066913.0	0.51	0.94
26/01/2020 19:28:34	26012020	260120	192834	72.150	12.187042	-56.117643	72.260	-0.640	-0.180	0.860	72.160	-1.500	1.100																			1580066914.0	1.00	1.85
26/01/2020 19:28:35	26012020	260120	192835	72.230	12.187037	-56.117640	72.360	-0.520	-0.250	1.230	72.250	-1.600	1.500																			1580066915.0	1.22	2.26
26/01/2020 19:28:36	26012020	260120	192836	72.380	12.187033	-56.117638	72.530	-0.260	-0.190	1.210	72.420	-1.600	1.600																			1580066916.0	0.91	1.69
26/01/2020 19:28:37	26012020	260120	192837	72.640	12.187032	-56.117638	72.820	0.100	-0.080	0.770	72.710	-1.500	1.200																			1580066917.0	0.22	0.41
26/01/2020 19:28:38	26012020	260120	192838	72.990	12.187033	-56.117640	73.150	0.480	-0.100	0.100	73.050	-1.500	0.500																			1580066918.0	0.46	0.85
26/01/2020 19:28:39	26012020	260120	192839	73.220	12.187037	-56.117640	73.320	0.720	-0.210	-0.490	73.240	-1.600	-0.100																			1580066919.0	0.83	1.54
26/01/2020 19:28:40	26012020	260120	192840	73.200	12.187042	-56.117640	73.240	0.670	-0.240	-0.740	73.170	-1.600	-0.400																			1580066920.0	0.85	1.57
26/01/2020 19:28:41	26012020	260120	192841	73.050	12.187043	-56.117640	73.050	0.340	-0.120	-0.640	73.020	-1.500	-0.300																			1580066921.0	0.55	1.02
26/01/2020 19:28:42	26012020	260120	192842	72.850	12.187045	-56.117642	72.910	-0.080	0.010	-0.390	72.830	-1.400	-0.100																			1580066922.0	0.16	0.30
26/01/2020 19:28:43	26012020	260120	192843	72.790	12.187043	-56.117642	72.880	-0.390	0.060	-0.160	72.790	-1.300	0.200																			1580066923.0	0.19	0.35
26/01/2020 19:28:44	26012020	260120	192844	72.780	12.187042	-56.117642	72.900	-0.520	0.070	0.080	72.790	-1.300	0.400																			1580066924.0	0.30	0.56
26/01/2020 19:28:45	26012020	260120	192845	72.810	12.187040	-56.117642	72.920	-0.470	0.040	0.340	72.810	-1.300	0.600																			1580066925.0	0.44	0.81
26/01/2020 19:28:46	26012020	260120	192846	72.820	12.187037	-56.117640	72.930	-0.310	-0.040	0.570	72.820	-1.400	0.900																			1580066926.0	0.56	1.04
26/01/2020 19:28:47	26012020	260120	192847	72.820	12.187035	-56.117640	72.940	-0.110	-0.200	0.630	72.820	-1.600	0.900																			1580066927.0	0.54	1.00
26/01/2020 19:28:48	26012020	260120	192848	72.840	12.187033	-56.117640	72.970	0.090	-0.400	0.440	72.850	-1.800	0.800																			1580066928.0	0.29	0.54
26/01/2020 19:28:49	26012020	260120	192849	72.830	12.187035	-56.117638	72.940	0.220	-0.500	0.190	72.820	-1.900	0.500																			1580066929.0	0.20	0.37
26/01/2020 19:28:50	26012020	260120	192850	72.780	12.187037	-56.117638	72.870	0.260	-0.390	-0.040	72.780	-1.800	0.300																			1580066930.0	0.42	0.78
26/01/2020 19:28:51	26012020	260120	192851	72.800	12.187038	-56.117640	72.900	0.190	-0.120	-0.270	72.810	-1.500	0.100																			1580066931.0	0.47	0.87
26/01/2020 19:28:52	26012020	260120	192852	72.880	12.187040	-56.117642	72.980	0.090	0.130	-0.420	72.890	-1.300	-0.100																			1580066932.0	0.47	0.87
26/01/2020 19:28:53	26012020	260120	192853	72.920	12.187040	-56.117643	73.000	0.030	0.150	-0.370	72.910	-1.200	-0.100																			1580066933.0	0.34	0.63
26/01/2020 19:28:54	26012020	260120	192854	72.800	12.187040	-56.117643	72.860	0.070	-0.070	-0.080	72.760	-1.400	0.200																			1580066934.0	0.17	0.31
26/01/2020 19:28:55	26012020	260120	192855	72.610	12.187038	-56.117642	72.620	0.140	-0.330	0.290	72.570	-1.700	0.600																			1580066935.0	0.50	0.93
26/01/2020 19:28:56	26012020	260120	192856	72.400	12.187035	-56.117640	72.480	0.130	-0.430	0.510	72.390	-1.800	0.800																			1580066936.0	0.63	1.17
26/01/2020 19:28:57	26012020	260120	192857	72.370	12.187035	-56.117638	72.480	-0.030	-0.220	0.560	72.380	-1.600	0.900																			1580066937.0	0.39	0.72
26/01/2020 19:28:58	26012020	260120	192858	72.460	12.187033	-56.117638	72.580	-0.300	0.280	0.480	72.480	-1.200	0.800																			1580066938.0	0.15	0.28
26/01/2020 19:28:59	26012020	260120	192859	72.590	12.187033	-56.117642	72.700	-0.530	0.720	0.310	72.610	-0.700	0.700	1013.70	26.40	26.30	21.10	21.20	501.00	72.00	73.00	387.00	30.00	14.00	3.50	88.00	3.20	32392	3391.00	27.80	27.80	1580066939.0	0.55	1.02
26/01/2020 19:29:00	26012020	260120	192900	72.680	12.187033	-56.117645	72.780	-0.570	0.680	0.120	72.690	-0.700	0.500																			1580066940.0	0.70	1.30
26/01/2020 19:29:01	26012020	260120	192901	72.660	12.187032	-56.117647	72.720	-0.310	0.040	-0.020	72.640	-1.300	0.300																			1580066941.0	0.38	0.70
26/01/2020 19:29:02	26012020	260120	192902	72.500	12.187032	-56.117645	72.540	0.150	-0.830	-0.080	72.460	-2.100	0.300																			1580066942.0	0.19	0.35
26/01/2020 19:29:03	26012020	260120	192903	72.260	12.187033	-56.117643	72.300	0.600	-1.410	-0.010	72.210	-2.800	0.300																			1580066943.0	0.58	1.07
26/01/2020 19:29:04	26012020	260120	192904	72.080	12.187035	-56.117640	72.130	0.800	-1.390	0.060	72.050	-2.800	0.400																			1580066944.0	0.53	0.98
26/01/2020 19:29:05	26012020	260120	192905	72.040	12.187035	-56.117640	72.130	0.650	-0.730	0.080	72.050	-2.200	0.400																			1580066945.0	0.19	0.35
26/01/2020 19:29:06	26012020	260120	192906	72.110	12.187035	-56.117642	72.210	0.230	0.280	0.070	72.130	-1.200	0.400																			1580066946.0	0.32	0.59
26/01/2020 19:29:07	26012020	260120	192907	72.200	12.187035	-56.117645	72.290	-0.260	1.090	0.050	72.210	-0.400	0.400																			1580066947.0	0.69	1.28
26/01/2020 19:29:08	26012020	260120	192908	72.260	12.187033	-56.117648	72.350	-0.570	1.260	0.060	72.260	-0.100	0.400																			1580066948.0	0.68	1.26
26/01/2020 19:29:09	26012020	260120	192909	72.250	12.187032	-56.117648	72.330	-0.540	0.760	0.170	72.240	-0.600	0.500																			1580066949.0	0.34	0.63
26/01/2020 19:29:10	26012020	260120	192910	72.220	12.187030	-56.117647	72.320	-0.250	-0.100	0.310	72.220	-1.400	0.600																			1580066950.0	0.47	0.87
26/01/2020 19:29:11	26012020	260120	192911	72.210	12.187030	-56.117643	72.310	0.050	-0.800	0.430	72.200	-2.100	0.700																			1580066951.0	0.67	1.24
26/01/2020 19:29:12	26012020	260120	192912	72.160	12.187028	-56.117642	72.260	0.140	-0.940	0.460	72.150	-2.300	0.800																			1580066952.0	0.48	0.89
26/01/2020 19:29:13	26012020	260120	192913	72.090	12.187028	-56.117642	72.170	0.030	-0.550	0.340	72.070	-2.000	0.700																			1580066953.0	0.15	0.28
26/01/2020 19:29:14	26012020	260120	192914	71.950	12.187028	-56.117645	72.010	-0.090	-0.030	0.250	71.920	-1.500	0.600																			1580066954.0	0.68	1.26
26/01/2020 19:29:15	26012020	260120	192915	71.790	12.187028	-56.117648	71.860	-0.080	0.150	0.210	71.760	-1.200	0.600																			1580066955.0	0.78	1.44
26/01/2020 19:29:16	26012020	260120	192916	71.740	12.187028	-56.117652	71.840	0.050	-0.140	0.050	71.760	-1.500	0.400																			1580066956.0	0.40	0.74
26/01/2020 19:29:17	26012020	260120	192917	71.830	12.187028	-56.117650	71.930	0.230	-0.560	-0.190	71.850	-1.900	0.200																			1580066957.0	0.28	0.52
26/01/2020 19:29:18	26012020	260120	192918	71.910	12.187032	-56.117648	71.990	0.380	-0.690	-0.320	71.920	-2.100	0.000																			1580066958.0	0.52	0.96
26/01/2020 19:29:19	26012020	260120	192919	71.930	12.187032	-56.117648	71.990	0.420	-0.430	-0.260	71.930	-1.900	0.100																			1580066959.0	0.29	0.54
26/01/2020 19:29:20	26012020	260120	192920	71.870	12.187032	-56.117648	71.930	0.280	0.070	-0.040	71.850	-1.400	0.300																			1580066960.0	0.15	0.28
26/01/2020 19:29:21	26012020	260120	192921	71.760	12.187030	-56.117648	71.830	-0.020	0.610	0.220	71.740	-0.800	0.500																			1580066961.0	0.42	0.78
26/01/2020 19:29:22	26012020	260120	192922	71.720	12.187028	-56.117652	71.810	-0.360	0.870	0.370	71.720	-0.500	0.700																			1580066962.0	0.57	1.06
26/01/2020 19:29:23	26012020	260120	192923	71.800	12.187027	-56.117653	71.910	-0.550	0.640	0.390	71.810	-0.700	0.700																			1580066963.0	0.47	0.87
26/01/2020 19:29:24	26012020	260120	192924	71.920	12.187027	-56.117653	72.020	-0.500	0.020	0.400	71.930	-1.300	0.700																			1580066964.0	0.16	0.30
26/01/2020 19:29:25	26012020	260120	192925	71.990	12.187025	-56.117652	72.090	-0.260	-0.600	0.500	72.000	-1.900	0.800																			1580066965.0	0.27	0.50
26/01/2020 19:29:26	26012020	260120	192926	71.990	12.187025	-56.117650	72.080	0.030	-0.930	0.610	71.990	-2.300	0.900																			1580066966.0	0.42	0.78
26/01/2020 19:29:27	26012020	260120	192927	71.930	12.187023	-56.117650	72.010	0.270	-0.900	0.640	71.920	-2.300	1.000																			1580066967.0	0.32	0.59
26/01/2020 19:29:28	26012020	260120	192928	71.820	12.187022	-56.117650	71.880	0.390	-0.560	0.600	71.790	-2.000	0.900																			1580066968.0	0.23	0.43
26/01/2020 19:29:29	26012020	260120	192929	71.650	12.187022	-56.117652	71.700	0.370	-0.090	0.550	71.610	-1.500	0.900																			1580066969.0	0.34	0.63
26/01/2020 19:29:30	26012020	260120	192930	71.490	12.187022	-56.117655	71.550	0.250	0.270	0.360	71.480	-1.100	0.700																			1580066970.0	0.48	0.89
26/01/2020 19:29:31	26012020	260120	192931	71.470	12.187023	-56.117657	71.540	0.110	0.330	0.010	71.480	-1.000	0.400																			1580066971.0	0.58	1.07
26/01/2020 19:29:32	26012020	260120	192932	71.560	12.187027	-56.117658	71.630	0.020	0.100	-0.380	71.590	-1.300	0.000																			1580066972.0	0.69	1.28
26/01/2020 19:29:33	26012020	260120	192933	71.680	12.187030	-56.117658	71.780	-0.010	-0.220	-0.620	71.700	-1.600	-0.300																			1580066973.0	0.67	1.24
26/01/2020 19:29:34	26012020	260120	192934	71.880	12.187032	-56.117657	71.960	-0.050	-0.430	-0.590	71.920	-1.800	-0.300																			1580066974.0	0.40	0.74
26/01/2020 19:29:35	26012020	260120	192935	71.990	12.187030	-56.117655	72.060	-0.130	-0.310	-0.230	71.990	-1.700	0.100																			1580066975.0	0.32	0.59
26/01/2020 19:29:36	26012020	260120	192936	71.930	12.187027	-56.117655	71.980	-0.260	0.100	0.320	71.910	-1.300	0.600																			1580066976.0	0.77	1.43
26/01/2020 19:29:37	26012020	260120	192937	71.810	12.187022	-56.117657	71.860	-0.350	0.480	0.730	71.790	-0.900	1.000																			1580066977.0	1.05	1.94
26/01/2020 19:29:38	26012020	260120	192938	71.730	12.187018	-56.117658	71.800	-0.280	0.480	0.800	71.730	-0.900	1.100																			1580066978.0	0.84	1.56
26/01/2020 19:29:39	26012020	260120	192939	71.770	12.187018	-56.117660	71.880	-0.030	0.090	0.520	71.810	-1.200	0.900																			1580066979.0	0.31	0.57
26/01/2020 19:29:40	26012020	260120	192940	71.980	12.187022	-56.117660	72.100	0.270	-0.470	0.090	72.040	-1.800	0.500																			1580066980.0	0.54	1.00
26/01/2020 19:29:41	26012020	260120	192941	72.210	12.187025	-56.117660	72.300	0.460	-0.900	-0.180	72.240	-2.200	0.200																			1580066981.0	0.76	1.41
26/01/2020 19:29:42	26012020	260120	192942	72.260	12.187027	-56.117660	72.300	0.410	-0.960	-0.090	72.240	-2.300	0.200																			1580066982.0	0.44	0.81
26/01/2020 19:29:43	26012020	260120	192943	72.090	12.187027	-56.117660	72.090	0.140	-0.630	0.240	72.040	-2.000	0.500																			1580066983.0	0.13	0.24
26/01/2020 19:29:44	26012020	260120	192944	71.850	12.187023	-56.117660	71.880	-0.160	-0.100	0.550	71.810	-1.500	0.900																			1580066984.0	0.51	0.94
26/01/2020 19:29:45	26012020	260120	192945	71.760	12.187022	-56.117662	71.860	-0.300	0.330	0.620	71.770	-1.100	1.000																			1580066985.0	0.60	1.11
26/01/2020 19:29:46	26012020	260120	192946	71.920	12.187020	-56.117662	72.040	-0.230	0.520	0.460	71.970	-0.900	0.800																			1580066986.0	0.39	0.72
26/01/2020 19:29:47	26012020	260120	192947	72.130	12.187020	-56.117663	72.300	-0.060	0.500	0.140	72.180	-0.900	0.500																			1580066987.0	0.14	0.26
26/01/2020 19:29:48	26012020	260120	192948	72.430	12.187022	-56.117663	72.540	0.100	0.260	-0.210	72.480	-1.100	0.200																			1580066988.0	0.32	0.59
26/01/2020 19:29:49	26012020	260120	192949	72.640	12.187023	-56.117663	72.720	0.180	-0.110	-0.430	72.670	-1.500	-0.100																			1580066989.0	0.46	0.85
26/01/2020 19:29:50	26012020	260120	192950	72.740	12.187025	-56.117663	72.790	0.160	-0.420	-0.380	72.730	-1.800	-0.100																			1580066990.0	0.33	0.61
26/01/2020 19:29:51	26012020	260120	192951	72.670	12.187025	-56.117663	72.710	0.050	-0.490	-0.080	72.650	-1.900	0.200																			1580066991.0	0.04	0.07
26/01/2020 19:29:52	26012020	260120	192952	72.550	12.187023	-56.117665	72.590	-0.080	-0.410	0.340	72.530	-1.800	0.600																			1580066992.0	0.28	0.52
26/01/2020 19:29:53	26012020	260120	192953	72.480	12.187022	-56.117665	72.560	-0.150	-0.320	0.770	72.480	-1.700	1.100																			1580066993.0	0.53	0.98
26/01/2020 19:29:54	26012020	260120	192954	72.480	12.187018	-56.117665	72.570	-0.160	-0.210	1.050	72.490	-1.600	1.400																			1580066994.0	0.66	1.22
26/01/2020 19:29:55	26012020	260120	192955	72.480	12.187015	-56.117665	72.560	-0.140	-0.010	1.060	72.470	-1.400	1.400																			1580066995.0	0.58	1.07
26/01/2020 19:29:56	26012020	260120	192956	72.420	12.187015	-56.117665	72.490	-0.060	0.170	0.810	72.410	-1.200	1.200																			1580066996.0	0.27	0.50
26/01/2020 19:29:57	26012020	260120	192957	72.410	12.187015	-56.117667	72.500	0.150	0.110	0.360	72.420	-1.300	0.700																			1580066997.0	0.34	0.63
26/01/2020 19:29:58	26012020	260120	192958	72.460	12.187018	-56.117667	72.540	0.400	-0.230	-0.130	72.470	-1.600	0.300																			1580066998.0	0.60	1.11
26/01/2020 19:29:59	26012020	260120	192959	72.490	12.187022	-56.117667	72.550	0.500	-0.560	-0.470	72.480	-1.900	-0.100	1013.70	26.40	26.30	21.20	21.20	474.00	73.00	73.00	388.00	30.00	8.00	3.30	81.00	3.20	31372	3368.00	27.80	27.80	1580066999.0	0.81	1.50
26/01/2020 19:30:00	26012020	260120	193000	72.470	12.187025	-56.117665	72.520	0.330	-0.550	-0.630	72.470	-1.900	-0.300																			1580067000.0	0.76	1.41
26/01/2020 19:30:01	26012020	260120	193001	72.450	12.187027	-56.117665	72.500	-0.020	-0.120	-0.560	72.440	-1.600	-0.200																			1580067001.0	0.38	0.70
26/01/2020 19:30:02	26012020	260120	193002	72.400	12.187027	-56.117667	72.460	-0.370	0.450	-0.210	72.390	-1.000	0.100																			1580067002.0	0.34	0.63
26/01/2020 19:30:03	26012020	260120	193003	72.320	12.187023	-56.117670	72.390	-0.540	0.740	0.300	72.310	-0.700	0.600																			1580067003.0	0.76	1.41
26/01/2020 19:30:04	26012020	260120	193004	72.300	12.187020	-56.117670	72.400	-0.450	0.520	0.700	72.310	-0.800	1.000																			1580067004.0	0.86	1.59
26/01/2020 19:30:05	26012020	260120	193005	72.330	12.187017	-56.117670	72.420	-0.190	-0.070	0.890	72.330	-1.400	1.200																			1580067005.0	0.66	1.22
26/01/2020 19:30:06	26012020	260120	193006	72.240	12.187015	-56.117668	72.300	0.100	-0.660	1.020	72.200	-2.000	1.300																			1580067006.0	0.42	0.78
26/01/2020 19:30:07	26012020	260120	193007	71.970	12.187015	-56.117667	72.010	0.310	-1.000	1.140	71.910	-2.400	1.500																			1580067007.0	0.30	0.56
26/01/2020 19:30:08	26012020	260120	193008	71.690	12.187015	-56.117667	71.760	0.400	-1.030	1.070	71.650	-2.400	1.400																			1580067008.0	0.14	0.26
26/01/2020 19:30:09	26012020	260120	193009	71.590	12.187017	-56.117667	71.680	0.370	-0.730	0.730	71.580	-2.200	1.100																			1580067009.0	0.21	0.39
26/01/2020 19:30:10	26012020	260120	193010	71.610	12.187018	-56.117667	71.710	0.200	-0.090	0.220	71.620	-1.500	0.600																			1580067010.0	0.41	0.76
26/01/2020 19:30:11	26012020	260120	193011	71.650	12.187020	-56.117670	71.720	-0.060	0.670	-0.300	71.650	-0.800	0.100																			1580067011.0	0.63	1.17
26/01/2020 19:30:12	26012020	260120	193012	71.660	12.187022	-56.117673	71.720	-0.260	1.030	-0.790	71.660	-0.400	-0.400																			1580067012.0	0.85	1.57
26/01/2020 19:30:13	26012020	260120	193013	71.680	12.187023	-56.117677	71.730	-0.260	0.690	-1.210	71.690	-0.600	-0.800																			1580067013.0	0.75	1.39
26/01/2020 19:30:14	26012020	260120	193014	71.720	12.187025	-56.117677	71.780	-0.080	-0.100	-1.430	71.740	-1.400	-1.100																			1580067014.0	0.60	1.11
26/01/2020 19:30:15	26012020	260120	193015	71.790	12.187028	-56.117675	71.860	0.110	-0.770	-1.320	71.800	-2.100	-1.000																			1580067015.0	0.65	1.20
26/01/2020 19:30:16	26012020	260120	193016	71.820	12.187028	-56.117673	71.870	0.070	-0.870	-0.820	71.820	-2.300	-0.500																			1580067016.0	0.44	0.81
26/01/2020 19:30:17	26012020	260120	193017	71.740	12.187027	-56.117672	71.760	-0.200	-0.440	-0.030	71.700	-1.900	0.200																			1580067017.0	0.60	1.11
26/01/2020 19:30:18	26012020	260120	193018	71.530	12.187020	-56.117673	71.570	-0.490	0.050	0.790	71.480	-1.400	1.000																			1580067018.0	1.24	2.30
26/01/2020 19:30:19	26012020	260120	193019	71.320	12.187013	-56.117675	71.390	-0.490	0.160	1.380	71.290	-1.200	1.700																			1580067019.0	1.41	2.61
26/01/2020 19:30:20	26012020	260120	193020	71.200	12.187008	-56.117673	71.300	-0.090	-0.150	1.570	71.190	-1.500	1.900																			1580067020.0	1.08	2.00
26/01/2020 19:30:21	26012020	260120	193021	71.190	12.187007	-56.117672	71.320	0.500	-0.520	1.300	71.210	-1.900	1.700																			1580067021.0	0.63	1.17
26/01/2020 19:30:22	26012020	260120	193022	71.330	12.187008	-56.117668	71.480	0.910	-0.550	0.560	71.380	-1.900	1.000																			1580067022.0	0.61	1.13
26/01/2020 19:30:23	26012020	260120	193023	71.540	12.187013	-56.117670	71.710	0.880	-0.120	-0.410	71.590	-1.600	0.000																			1580067023.0	1.05	1.94
26/01/2020 19:30:24	26012020	260120	193024	71.770	12.187020	-56.117673	71.840	0.380	0.510	-1.160	71.790	-0.900	-0.800																			1580067024.0	1.44	2.67
26/01/2020 19:30:25	26012020	260120	193025	71.790	12.187025	-56.117677	71.790	-0.320	0.860	-1.290	71.770	-0.500	-1.000																			1580067025.0	1.36	2.52
26/01/2020 19:30:26	26012020	260120	193026	71.630	12.187025	-56.117680	71.660	-0.860	0.590	-0.860	71.590	-0.700	-0.600																			1580067026.0	0.70	1.30
26/01/2020 19:30:27	26012020	260120	193027	71.510	12.187023	-56.117680	71.580	-1.000	-0.220	-0.200	71.490	-1.500	0.100																			1580067027.0	0.50	0.93
26/01/2020 19:30:28	26012020	260120	193028	71.470	12.187018	-56.117677	71.550	-0.710	-1.080	0.490	71.460	-2.400	0.800																			1580067028.0	1.25	2.31
26/01/2020 19:30:29	26012020	260120	193029	71.430	12.187013	-56.117670	71.530	-0.210	-1.410	1.130	71.420	-2.800	1.400																			1580067029.0	1.62	3.00
26/01/2020 19:30:30	26012020	260120	193030	71.360	12.187008	-56.117667	71.450	0.230	-0.980	1.530	71.330	-2.400	1.800																			1580067030.0	1.50	2.78
26/01/2020 19:30:31	26012020	260120	193031	71.260	12.187003	-56.117665	71.330	0.490	-0.080	1.440	71.240	-1.600	1.800																			1580067031.0	0.96	1.78
26/01/2020 19:30:32	26012020	260120	193032	71.200	12.187002	-56.117668	71.270	0.600	0.650	0.840	71.190	-0.800	1.300																			1580067032.0	0.57	1.06
26/01/2020 19:30:33	26012020	260120	193033	71.180	12.187005	-56.117672	71.240	0.580	0.830	-0.050	71.190	-0.600	0.400																			1580067033.0	0.96	1.78
26/01/2020 19:30:34	26012020	260120	193034	71.220	12.187012	-56.117673	71.270	0.400	0.490	-0.890	71.230	-0.900	-0.500																			1580067034.0	1.43	2.65
26/01/2020 19:30:35	26012020	260120	193035	71.270	12.187018	-56.117675	71.320	0.100	-0.070	-1.400	71.290	-1.400	-1.000																			1580067035.0	1.53	2.83
26/01/2020 19:30:36	26012020	260120	193036	71.330	12.187023	-56.117673	71.370	-0.200	-0.500	-1.460	71.330	-1.900	-1.100																			1580067036.0	1.08	2.00
26/01/2020 19:30:37	26012020	260120	193037	71.360	12.187025	-56.117673	71.410	-0.380	-0.630	-1.080	71.360	-2.000	-0.800																			1580067037.0	0.35	0.65
26/01/2020 19:30:38	26012020	260120	193038	71.350	12.187022	-56.117672	71.410	-0.420	-0.500	-0.370	71.340	-1.900	-0.100																			1580067038.0	0.65	1.20
26/01/2020 19:30:39	26012020	260120	193039	71.290	12.187017	-56.117670	71.350	-0.370	-0.240	0.510	71.260	-1.700	0.800																			1580067039.0	1.29	2.39
26/01/2020 19:30:40	26012020	260120	193040	71.160	12.187008	-56.117668	71.230	-0.280	0.020	1.310	71.130	-1.400	1.600																			1580067040.0	1.58	2.93
26/01/2020 19:30:41	26012020	260120	193041	71.040	12.187002	-56.117667	71.120	-0.150	0.120	1.790	71.020	-1.300	2.100																			1580067041.0	1.41	2.61
26/01/2020 19:30:42	26012020	260120	193042	70.990	12.186998	-56.117667	71.080	0.060	-0.040	1.780	70.990	-1.400	2.100																			1580067042.0	0.83	1.54
26/01/2020 19:30:43	26012020	260120	193043	71.020	12.186998	-56.117665	71.120	0.300	-0.330	1.300	71.030	-1.700	1.700																			1580067043.0	0.26	0.48
26/01/2020 19:30:44	26012020	260120	193044	71.080	12.187002	-56.117663	71.160	0.430	-0.490	0.540	71.090	-1.900	1.000																			1580067044.0	0.72	1.33
26/01/2020 19:30:45	26012020	260120	193045	71.120	12.187007	-56.117663	71.180	0.370	-0.290	-0.200	71.120	-1.700	0.200																			1580067045.0	1.04	1.93
26/01/2020 19:30:46	26012020	260120	193046	71.100	12.187010	-56.117665	71.140	0.170	0.140	-0.680	71.090	-1.300	-0.300																			1580067046.0	0.97	1.80
26/01/2020 19:30:47	26012020	260120	193047	71.070	12.187013	-56.117668	71.100	-0.050	0.420	-0.910	71.060	-1.000	-0.500																			1580067047.0	0.74	1.37
26/01/2020 19:30:48	26012020	260120	193048	71.070	12.187015	-56.117670	71.120	-0.170	0.330	-1.000	71.070	-1.000	-0.700																			1580067048.0	0.42	0.78
26/01/2020 19:30:49	26012020	260120	193049	71.130	12.187015	-56.117668	71.200	-0.170	-0.020	-0.920	71.150	-1.400	-0.600																			1580067049.0	0.15	0.28
26/01/2020 19:30:50	26012020	260120	193050	71.270	12.187015	-56.117668	71.370	-0.100	-0.380	-0.620	71.310	-1.700	-0.300																			1580067050.0	0.33	0.61
26/01/2020 19:30:51	26012020	260120	193051	71.460	12.187013	-56.117665	71.550	-0.060	-0.530	-0.060	71.480	-1.900	0.200																			1580067051.0	0.55	1.02
26/01/2020 19:30:52	26012020	260120	193052	71.500	12.187010	-56.117663	71.580	-0.090	-0.410	0.730	71.480	-1.800	1.000																			1580067052.0	0.94	1.74
26/01/2020 19:30:53	26012020	260120	193053	71.350	12.187003	-56.117662	71.410	-0.180	-0.200	1.510	71.300	-1.600	1.800																			1580067053.0	1.30	2.41
26/01/2020 19:30:54	26012020	260120	193054	71.100	12.186998	-56.117662	71.170	-0.220	-0.120	2.010	71.060	-1.500	2.300																			1580067054.0	1.27	2.35
26/01/2020 19:30:55	26012020	260120	193055	70.910	12.186995	-56.117660	71.000	-0.130	-0.170	2.040	70.880	-1.500	2.400																			1580067055.0	0.82	1.52
26/01/2020 19:30:56	26012020	260120	193056	70.850	12.186993	-56.117658	70.960	0.090	-0.210	1.540	70.860	-1.600	2.000																			1580067056.0	0.26	0.48
26/01/2020 19:30:57	26012020	260120	193057	70.970	12.186997	-56.117658	71.080	0.320	-0.160	0.630	71.020	-1.600	1.100																			1580067057.0	0.58	1.07
26/01/2020 19:30:58	26012020	260120	193058	71.230	12.187002	-56.117660	71.330	0.420	-0.020	-0.460	71.290	-1.400	-0.000																			1580067058.0	1.08	2.00
26/01/2020 19:30:59	26012020	260120	193059	71.430	12.187008	-56.117662	71.540	0.370	0.100	-1.330	71.470	-1.300	-0.900	1013.70	26.30	26.30	21.00	21.10	405.00	72.00	73.00	388.00	29.90	359.00	3.30	71.00	3.00	29226	3342.00	27.80	27.80	1580067059.0	1.35	2.50
26/01/2020 19:31:00	26012020	260120	193100	71.580	12.187013	-56.117663	71.610	0.220	0.090	-1.660	71.590	-1.300	-1.300																			1580067060.0	1.21	2.24
26/01/2020 19:31:01	26012020	260120	193101	71.590	12.187015	-56.117663	71.620	0.030	-0.040	-1.460	71.590	-1.400	-1.200																			1580067061.0	0.63	1.17
26/01/2020 19:31:02	26012020	260120	193102	71.550	12.187015	-56.117663	71.590	-0.200	-0.130	-0.830	71.540	-1.500	-0.600																			1580067062.0	0.17	0.31
26/01/2020 19:31:03	26012020	260120	193103	71.430	12.187012	-56.117662	71.460	-0.450	-0.040	0.180	71.400	-1.400	0.400																			1580067063.0	0.80	1.48
26/01/2020 19:31:04	26012020	260120	193104	71.260	12.187005	-56.117660	71.320	-0.640	0.040	1.320	71.240	-1.400	1.500																			1580067064.0	1.41	2.61
26/01/2020 19:31:05	26012020	260120	193105	71.180	12.186998	-56.117658	71.280	-0.620	-0.100	2.150	71.180	-1.500	2.400																			1580067065.0	1.69	3.13
26/01/2020 19:31:06	26012020	260120	193106	71.230	12.186992	-56.117655	71.370	-0.340	-0.400	2.370	71.250	-1.800	2.700																			1580067066.0	1.39	2.57
26/01/2020 19:31:07	26012020	260120	193107	71.360	12.186990	-56.117653	71.490	0.100	-0.580	2.040	71.380	-2.000	2.400																			1580067067.0	0.70	1.30
26/01/2020 19:31:08	26012020	260120	193108	71.460	12.186990	-56.117653	71.560	0.510	-0.490	1.420	71.470	-1.900	1.800																			1580067068.0	0.29	0.54
26/01/2020 19:31:09	26012020	260120	193109	71.460	12.186993	-56.117653	71.520	0.700	-0.210	0.660	71.440	-1.600	1.100																			1580067069.0	0.63	1.17
26/01/2020 19:31:10	26012020	260120	193110	71.340	12.186997	-56.117655	71.380	0.620	0.050	-0.140	71.310	-1.400	0.300																			1580067070.0	0.99	1.83
26/01/2020 19:31:11	26012020	260120	193111	71.230	12.187003	-56.117658	71.250	0.380	0.110	-0.870	71.210	-1.300	-0.500																			1580067071.0	1.29	2.39
26/01/2020 19:31:12	26012020	260120	193112	71.180	12.187008	-56.117658	71.240	0.130	-0.020	-1.350	71.190	-1.400	-1.000																			1580067072.0	1.32	2.44
26/01/2020 19:31:13	26012020	260120	193113	71.220	12.187013	-56.117660	71.290	-0.100	-0.160	-1.440	71.230	-1.500	-1.100																			1580067073.0	0.96	1.78
26/01/2020 19:31:14	26012020	260120	193114	71.270	12.187015	-56.117658	71.330	-0.350	-0.130	-1.060	71.270	-1.500	-0.800																			1580067074.0	0.35	0.65
26/01/2020 19:31:15	26012020	260120	193115	71.250	12.187013	-56.117658	71.320	-0.590	0.050	-0.380	71.240	-1.400	-0.100																			1580067075.0	0.52	0.96
26/01/2020 19:31:16	26012020	260120	193116	71.210	12.187007	-56.117657	71.320	-0.680	0.250	0.410	71.210	-1.200	0.700																			1580067076.0	1.11	2.06
26/01/2020 19:31:17	26012020	260120	193117	71.210	12.187000	-56.117657	71.320	-0.530	0.240	1.170	71.210	-1.100	1.400																			1580067077.0	1.44	2.67
26/01/2020 19:31:18	26012020	260120	193118	71.220	12.186995	-56.117655	71.350	-0.220	-0.020	1.660	71.220	-1.400	2.000																			1580067078.0	1.39	2.57
26/01/2020 19:31:19	26012020	260120	193119	71.260	12.186990	-56.117653	71.400	0.110	-0.340	1.660	71.270	-1.700	2.000																			1580067079.0	0.90	1.67
26/01/2020 19:31:20	26012020	260120	193120	71.330	12.186990	-56.117652	71.450	0.380	-0.550	1.130	71.350	-1.900	1.500																			1580067080.0	0.18	0.33
26/01/2020 19:31:21	26012020	260120	193121	71.370	12.186993	-56.117653	71.460	0.510	-0.540	0.370	71.370	-1.900	0.800																			1580067081.0	0.74	1.37
26/01/2020 19:31:22	26012020	260120	193122	71.330	12.186998	-56.117655	71.400	0.490	-0.410	-0.270	71.320	-1.800	0.100																			1580067082.0	1.18	2.19
26/01/2020 19:31:23	26012020	260120	193123	71.280	12.187003	-56.117657	71.340	0.330	-0.310	-0.680	71.270	-1.700	-0.300																			1580067083.0	1.14	2.11
26/01/2020 19:31:24	26012020	260120	193124	71.280	12.187007	-56.117658	71.350	0.100	-0.270	-0.860	71.290	-1.700	-0.500																			1580067084.0	0.79	1.46
26/01/2020 19:31:25	26012020	260120	193125	71.310	12.187008	-56.117657	71.390	-0.100	-0.160	-0.790	71.320	-1.600	-0.500																			1580067085.0	0.36	0.67
26/01/2020 19:31:26	26012020	260120	193126	71.400	12.187008	-56.117657	71.490	-0.210	0.080	-0.520	71.420	-1.300	-0.200																			1580067086.0	0.28	0.52
26/01/2020 19:31:27	26012020	260120	193127	71.500	12.187005	-56.117655	71.640	-0.250	0.350	-0.140	71.530	-1.100	0.200																			1580067087.0	0.65	1.20
26/01/2020 19:31:28	26012020	260120	193128	71.670	12.187002	-56.117655	71.790	-0.280	0.530	0.270	71.690	-0.900	0.600																			1580067088.0	0.81	1.50
26/01/2020 19:31:29	26012020	260120	193129	71.800	12.186998	-56.117653	71.920	-0.300	0.450	0.600	71.820	-0.900	0.900																			1580067089.0	0.69	1.28
26/01/2020 19:31:30	26012020	260120	193130	71.950	12.186997	-56.117653	72.080	-0.250	0.080	0.740	71.980	-1.300	1.100																			1580067090.0	0.36	0.67
26/01/2020 19:31:31	26012020	260120	193131	72.060	12.186997	-56.117653	72.170	-0.110	-0.340	0.780	72.070	-1.700	1.100																			1580067091.0	0.17	0.31
26/01/2020 19:31:32	26012020	260120	193132	72.040	12.186997	-56.117652	72.140	0.070	-0.560	0.890	72.020	-1.900	1.200																			1580067092.0	0.21	0.39
26/01/2020 19:31:33	26012020	260120	193133	71.900	12.186997	-56.117652	71.970	0.200	-0.590	1.120	71.850	-2.000	1.400																			1580067093.0	0.16	0.30
26/01/2020 19:31:34	26012020	260120	193134	71.680	12.186995	-56.117650	71.750	0.210	-0.540	1.260	71.630	-1.900	1.600																			1580067094.0	0.30	0.56
26/01/2020 19:31:35	26012020	260120	193135	71.470	12.186995	-56.117650	71.550	0.130	-0.480	1.090	71.430	-1.900	1.500																			1580067095.0	0.17	0.31
26/01/2020 19:31:36	26012020	260120	193136	71.330	12.186997	-56.117650	71.430	0.080	-0.390	0.580	71.320	-1.800	1.000																			1580067096.0	0.30	0.56
26/01/2020 19:31:37	26012020	260120	193137	71.350	12.187000	-56.117650	71.460	0.130	-0.210	-0.110	71.370	-1.600	0.300																			1580067097.0	0.71	1.31
26/01/2020 19:31:38	26012020	260120	193138	71.510	12.187003	-56.117650	71.620	0.210	0.030	-0.740	71.550	-1.400	-0.300																			1580067098.0	0.84	1.56
26/01/2020 19:31:39	26012020	260120	193139	71.690	12.187007	-56.117652	71.770	0.190	0.300	-1.090	71.710	-1.100	-0.700																			1580067099.0	0.68	1.26
26/01/2020 19:31:40	26012020	260120	193140	71.760	12.187008	-56.117652	71.820	0.000	0.480	-1.120	71.760	-0.900	-0.800																			1580067100.0	0.35	0.65
26/01/2020 19:31:41	26012020	260120	193141	71.720	12.187008	-56.117652	71.760	-0.250	0.460	-0.910	71.700	-0.900	-0.600																			1580067101.0	0.07	0.13
26/01/2020 19:31:42	26012020	260120	193142	71.590	12.187007	-56.117652	71.650	-0.410	0.210	-0.480	71.560	-1.200	-0.200																			1580067102.0	0.18	0.33
26/01/2020 19:31:43	26012020	260120	193143	71.450	12.187005	-56.117650	71.520	-0.340	-0.170	0.090	71.420	-1.500	0.400																			1580067103.0	0.42	0.78
26/01/2020 19:31:44	26012020	260120	193144	71.320	12.187003	-56.117648	71.390	-0.120	-0.540	0.690	71.290	-1.900	1.000																			1580067104.0	0.66	1.22
26/01/2020 19:31:45	26012020	260120	193145	71.180	12.187000	-56.117647	71.270	0.080	-0.670	1.180	71.150	-2.100	1.500																			1580067105.0	0.74	1.37
26/01/2020 19:31:46	26012020	260120	193146	71.080	12.186998	-56.117645	71.180	0.120	-0.540	1.380	71.070	-1.900	1.700																			1580067106.0	0.59	1.09
26/01/2020 19:31:47	26012020	260120	193147	71.090	12.186997	-56.117647	71.220	0.060	-0.320	1.160	71.110	-1.700	1.500																			1580067107.0	0.31	0.57
26/01/2020 19:31:48	26012020	260120	193148	71.210	12.186997	-56.117647	71.320	0.040	-0.190	0.650	71.240	-1.600	1.000																			1580067108.0	0.22	0.41
26/01/2020 19:31:49	26012020	260120	193149	71.300	12.186998	-56.117647	71.390	0.090	-0.110	0.130	71.310	-1.500	0.500																			1580067109.0	0.44	0.81
26/01/2020 19:31:50	26012020	260120	193150	71.330	12.187002	-56.117648	71.400	0.130	-0.020	-0.290	71.330	-1.400	0.100																			1580067110.0	0.50	0.93
26/01/2020 19:31:51	26012020	260120	193151	71.290	12.187003	-56.117648	71.330	0.110	0.040	-0.620	71.270	-1.400	-0.300																			1580067111.0	0.43	0.80
26/01/2020 19:31:52	26012020	260120	193152	71.180	12.187005	-56.117648	71.220	0.060	0.020	-0.820	71.160	-1.400	-0.500																			1580067112.0	0.39	0.72
26/01/2020 19:31:53	26012020	260120	193153	71.100	12.187007	-56.117648	71.160	0.020	-0.020	-0.850	71.100	-1.400	-0.500																			1580067113.0	0.36	0.67
26/01/2020 19:31:54	26012020	260120	193154	71.170	12.187007	-56.117647	71.270	-0.010	-0.010	-0.750	71.200	-1.400	-0.400																			1580067114.0	0.18	0.33
26/01/2020 19:31:55	26012020	260120	193155	71.380	12.187007	-56.117647	71.500	-0.060	0.010	-0.530	71.430	-1.400	-0.200																			1580067115.0	0.12	0.22
26/01/2020 19:31:56	26012020	260120	193156	71.580	12.187005	-56.117647	71.680	-0.140	0.050	-0.120	71.600	-1.300	0.200																			1580067116.0	0.36	0.67
26/01/2020 19:31:57	26012020	260120	193157	71.590	12.187002	-56.117647	71.650	-0.210	0.090	0.470	71.550	-1.300	0.700																			1580067117.0	0.62	1.15
26/01/2020 19:31:58	26012020	260120	193158	71.370	12.186998	-56.117645	71.410	-0.200	-0.000	1.100	71.320	-1.400	1.400																			1580067118.0	0.80	1.48
26/01/2020 19:31:59	26012020	260120	193159	71.110	12.186995	-56.117645	71.150	-0.050	-0.310	1.530	71.060	-1.700	1.800	1013.70	26.30	26.30	21.10	21.20	458.00	72.00	73.00	388.00	29.90	352.00	3.20	63.00	3.00	30530	3325.00	27.80	27.80	1580067119.0	0.74	1.37
26/01/2020 19:32:00	26012020	260120	193200	70.910	12.186993	-56.117643	70.970	0.170	-0.660	1.660	70.880	-2.000	2.000																			1580067120.0	0.51	0.94
26/01/2020 19:32:01	26012020	260120	193201	70.810	12.186993	-56.117642	70.900	0.340	-0.780	1.480	70.810	-2.200	1.900																			1580067121.0	0.37	0.69
26/01/2020 19:32:02	26012020	260120	193202	70.850	12.186995	-56.117640	70.930	0.360	-0.580	1.020	70.860	-2.000	1.400																			1580067122.0	0.38	0.70
26/01/2020 19:32:03	26012020	260120	193203	70.920	12.186998	-56.117642	71.040	0.230	-0.200	0.400	70.940	-1.600	0.800																			1580067123.0	0.56	1.04
26/01/2020 19:32:04	26012020	260120	193204	71.040	12.187002	-56.117643	71.120	0.030	0.170	-0.190	71.050	-1.300	0.200																			1580067124.0	0.72	1.33
26/01/2020 19:32:05	26012020	260120	193205	71.090	12.187003	-56.117643	71.140	-0.120	0.410	-0.580	71.080	-1.000	-0.200																			1580067125.0	0.61	1.13
26/01/2020 19:32:06	26012020	260120	193206	71.030	12.187005	-56.117645	71.080	-0.210	0.470	-0.680	71.020	-0.900	-0.300																			1580067126.0	0.26	0.48
26/01/2020 19:32:07	26012020	260120	193207	70.930	12.187003	-56.117643	70.970	-0.220	0.350	-0.510	70.900	-1.000	-0.200																			1580067127.0	0.13	0.24
26/01/2020 19:32:08	26012020	260120	193208	70.760	12.187002	-56.117643	70.800	-0.200	0.110	-0.200	70.720	-1.300	0.100																			1580067128.0	0.41	0.76
26/01/2020 19:32:09	26012020	260120	193209	70.550	12.187000	-56.117642	70.570	-0.180	-0.160	0.080	70.500	-1.500	0.400																			1580067129.0	0.43	0.80
26/01/2020 19:32:10	26012020	260120	193210	70.310	12.187000	-56.117642	70.340	-0.110	-0.340	0.260	70.260	-1.700	0.600																			1580067130.0	0.18	0.33
26/01/2020 19:32:11	26012020	260120	193211	70.140	12.187000	-56.117642	70.210	0.020	-0.420	0.340	70.120	-1.800	0.700																			1580067131.0	0.11	0.20
26/01/2020 19:32:12	26012020	260120	193212	70.090	12.187002	-56.117643	70.200	0.210	-0.520	0.330	70.100	-1.900	0.700																			1580067132.0	0.26	0.48
26/01/2020 19:32:13	26012020	260120	193213	70.150	12.187002	-56.117643	70.260	0.340	-0.640	0.300	70.160	-2.000	0.600																			1580067133.0	0.24	0.44
26/01/2020 19:32:14	26012020	260120	193214	70.190	12.187003	-56.117642	70.310	0.320	-0.650	0.350	70.200	-2.000	0.700																			1580067134.0	0.26	0.48
26/01/2020 19:32:15	26012020	260120	193215	70.210	12.187003	-56.117642	70.310	0.170	-0.440	0.430	70.200	-1.900	0.800																			1580067135.0	0.25	0.46
26/01/2020 19:32:16	26012020	260120	193216	70.160	12.187002	-56.117640	70.250	0.010	-0.050	0.520	70.140	-1.500	0.800																			1580067136.0	0.31	0.57
26/01/2020 19:32:17	26012020	260120	193217	70.060	12.187000	-56.117640	70.100	-0.110	0.400	0.590	70.030	-1.000	0.900																			1580067137.0	0.46	0.85
26/01/2020 19:32:18	26012020	260120	193218	69.820	12.186998	-56.117640	69.890	-0.210	0.700	0.560	69.780	-0.700	0.900																			1580067138.0	0.49	0.91
26/01/2020 19:32:19	26012020	260120	193219	69.680	12.186997	-56.117640	69.760	-0.260	0.630	0.300	69.670	-0.700	0.700																			1580067139.0	0.26	0.48
26/01/2020 19:32:20	26012020	260120	193220	69.760	12.186998	-56.117640	69.880	-0.200	0.150	-0.270	69.810	-1.200	0.100																			1580067140.0	0.32	0.59
26/01/2020 19:32:21	26012020	260120	193221	70.060	12.187002	-56.117640	70.200	-0.000	-0.420	-0.920	70.130	-1.800	-0.500																			1580067141.0	0.88	1.63
26/01/2020 19:32:22	26012020	260120	193222	70.360	12.187007	-56.117640	70.450	0.160	-0.630	-1.220	70.390	-2.000	-0.900																			1580067142.0	1.01	1.87
26/01/2020 19:32:23	26012020	260120	193223	70.420	12.187010	-56.117640	70.450	0.120	-0.340	-0.940	70.390	-1.800	-0.700																			1580067143.0	0.48	0.89
26/01/2020 19:32:24	26012020	260120	193224	70.200	12.187007	-56.117642	70.220	-0.080	0.080	-0.200	70.130	-1.400	0.000																			1580067144.0	0.50	0.93
26/01/2020 19:32:25	26012020	260120	193225	69.880	12.187003	-56.117643	69.920	-0.230	0.140	0.640	69.820	-1.200	0.900																			1580067145.0	1.01	1.87
26/01/2020 19:32:26	26012020	260120	193226	69.700	12.186998	-56.117643	69.790	-0.110	-0.370	1.250	69.690	-1.700	1.500																			1580067146.0	0.92	1.70
26/01/2020 19:32:27	26012020	260120	193227	69.750	12.186997	-56.117640	69.870	0.210	-1.040	1.520	69.780	-2.400	1.800																			1580067147.0	0.80	1.48
26/01/2020 19:32:28	26012020	260120	193228	69.880	12.186997	-56.117635	69.980	0.450	-1.190	1.560	69.900	-2.600	1.900																			1580067148.0	0.93	1.72
26/01/2020 19:32:29	26012020	260120	193229	69.880	12.186997	-56.117633	69.930	0.390	-0.560	1.470	69.860	-2.000	1.800																			1580067149.0	0.57	1.06
26/01/2020 19:32:30	26012020	260120	193230	69.740	12.186997	-56.117633	69.780	0.090	0.430	1.220	69.710	-1.100	1.600																			1580067150.0	0.20	0.37
26/01/2020 19:32:31	26012020	260120	193231	69.620	12.186997	-56.117637	69.660	-0.220	1.130	0.660	69.620	-0.300	1.100																			1580067151.0	0.72	1.33
26/01/2020 19:32:32	26012020	260120	193232	69.690	12.186998	-56.117642	69.750	-0.300	1.150	-0.190	69.730	-0.200	0.300																			1580067152.0	0.88	1.63
26/01/2020 19:32:33	26012020	260120	193233	69.940	12.187003	-56.117643	70.010	-0.130	0.550	-1.090	70.000	-0.800	-0.700																			1580067153.0	1.05	1.94
26/01/2020 19:32:34	26012020	260120	193234	70.190	12.187008	-56.117643	70.240	0.080	-0.250	-1.630	70.230	-1.600	-1.300																			1580067154.0	1.16	2.15
26/01/2020 19:32:35	26012020	260120	193235	70.240	12.187012	-56.117642	70.240	0.110	-0.790	-1.650	70.210	-2.200	-1.300																			1580067155.0	0.88	1.63
26/01/2020 19:32:36	26012020	260120	193236	69.990	12.187013	-56.117642	69.970	-0.070	-0.840	-1.130	69.910	-2.300	-0.900																			1580067156.0	0.29	0.54
26/01/2020 19:32:37	26012020	260120	193237	69.570	12.187012	-56.117642	69.560	-0.310	-0.590	-0.170	69.480	-2.000	0.100																			1580067157.0	0.43	0.80
26/01/2020 19:32:38	26012020	260120	193238	69.180	12.187007	-56.117642	69.230	-0.380	-0.310	0.910	69.120	-1.700	1.200																			1580067158.0	0.96	1.78
26/01/2020 19:32:39	26012020	260120	193239	68.980	12.187002	-56.117642	69.050	-0.240	-0.170	1.720	68.950	-1.600	2.000																			1580067159.0	1.18	2.19
26/01/2020 19:32:40	26012020	260120	193240	68.940	12.186997	-56.117640	69.080	0.030	-0.200	1.940	68.970	-1.600	2.300																			1580067160.0	0.96	1.78
26/01/2020 19:32:41	26012020	260120	193241	69.100	12.186995	-56.117638	69.310	0.330	-0.290	1.580	69.150	-1.700	2.000																			1580067161.0	0.41	0.76
26/01/2020 19:32:42	26012020	260120	193242	69.450	12.186997	-56.117637	69.560	0.520	-0.250	0.940	69.490	-1.700	1.300																			1580067162.0	0.44	0.81
26/01/2020 19:32:43	26012020	260120	193243	69.570	12.187000	-56.117637	69.610	0.490	0.020	0.300	69.570	-1.400	0.700																			1580067163.0	0.65	1.20
26/01/2020 19:32:44	26012020	260120	193244	69.490	12.187003	-56.117638	69.500	0.250	0.380	-0.240	69.460	-1.100	0.200																			1580067164.0	0.79	1.46
26/01/2020 19:32:45	26012020	260120	193245	69.310	12.187007	-56.117642	69.310	-0.090	0.590	-0.720	69.270	-0.800	-0.300																			1580067165.0	0.94	1.74
26/01/2020 19:32:46	26012020	260120	193246	69.140	12.187012	-56.117645	69.160	-0.320	0.420	-1.090	69.120	-0.900	-0.700																			1580067166.0	1.02	1.89
26/01/2020 19:32:47	26012020	260120	193247	69.110	12.187015	-56.117647	69.170	-0.320	-0.160	-1.290	69.130	-1.500	-0.900																			1580067167.0	0.85	1.57
26/01/2020 19:32:48	26012020	260120	193248	69.250	12.187017	-56.117645	69.350	-0.190	-0.740	-1.200	69.290	-2.100	-0.900																			1580067168.0	0.54	1.00
26/01/2020 19:32:49	26012020	260120	193249	69.400	12.187017	-56.117643	69.500	-0.170	-0.830	-0.750	69.420	-2.200	-0.500																			1580067169.0	0.52	0.96
26/01/2020 19:32:50	26012020	260120	193250	69.440	12.187013	-56.117642	69.530	-0.320	-0.410	-0.090	69.430	-1.900	0.200																			1580067170.0	0.88	1.63
26/01/2020 19:32:51	26012020	260120	193251	69.340	12.187008	-56.117642	69.400	-0.450	0.190	0.510	69.310	-1.300	0.800																			1580067171.0	1.20	2.22
26/01/2020 19:32:52	26012020	260120	193252	69.160	12.187003	-56.117643	69.210	-0.290	0.420	0.890	69.130	-1.000	1.200																			1580067172.0	1.15	2.13
26/01/2020 19:32:53	26012020	260120	193253	69.050	12.187000	-56.117643	69.100	0.210	0.050	0.920	69.030	-1.300	1.300																			1580067173.0	0.55	1.02
26/01/2020 19:32:54	26012020	260120	193254	69.030	12.187002	-56.117643	69.110	0.790	-0.610	0.730	69.040	-2.000	1.100																			1580067174.0	0.33	0.61
26/01/2020 19:32:55	26012020	260120	193255	69.090	12.187005	-56.117642	69.200	1.030	-0.970	0.440	69.110	-2.400	0.800																			1580067175.0	0.95	1.76
26/01/2020 19:32:56	26012020	260120	193256	69.210	12.187010	-56.117640	69.290	0.750	-0.660	0.150	69.230	-2.100	0.500																			1580067176.0	1.02	1.89
26/01/2020 19:32:57	26012020	260120	193257	69.300	12.187013	-56.117642	69.380	0.100	0.100	-0.040	69.320	-1.400	0.300																			1580067177.0	0.84	1.56
26/01/2020 19:32:58	26012020	260120	193258	69.380	12.187015	-56.117645	69.460	-0.530	0.750	-0.030	69.390	-0.700	0.300																			1580067178.0	0.80	1.48
26/01/2020 19:32:59	26012020	260120	193259	69.400	12.187013	-56.117648	69.480	-0.860	0.920	0.170	69.400	-0.500	0.500	1013.70	26.40	26.40	21.30	21.30	362.00	73.00	73.00	389.00	29.80	10.00	4.20	81.00	3.90	27572	3481.00	27.80	27.80	1580067179.0	0.70	1.30
26/01/2020 19:33:00	26012020	260120	193300	69.360	12.187010	-56.117648	69.430	-0.820	0.580	0.450	69.360	-0.800	0.800																			1580067180.0	0.68	1.26
26/01/2020 19:33:01	26012020	260120	193301	69.340	12.187007	-56.117647	69.420	-0.520	0.010	0.600	69.340	-1.300	0.900																			1580067181.0	0.72	1.33
26/01/2020 19:33:02	26012020	260120	193302	69.340	12.187005	-56.117645	69.400	-0.140	-0.460	0.540	69.320	-1.800	0.900																			1580067182.0	0.53	0.98
26/01/2020 19:33:03	26012020	260120	193303	69.300	12.187005	-56.117645	69.360	0.200	-0.720	0.280	69.290	-2.100	0.700																			1580067183.0	0.09	0.17
26/01/2020 19:33:04	26012020	260120	193304	69.270	12.187007	-56.117647	69.320	0.470	-0.900	-0.110	69.260	-2.300	0.300																			1580067184.0	0.45	0.83
26/01/2020 19:33:05	26012020	260120	193305	69.240	12.187010	-56.117648	69.270	0.640	-0.940	-0.420	69.240	-2.300	-0.000																			1580067185.0	0.80	1.48
26/01/2020 19:33:06	26012020	260120	193306	69.150	12.187013	-56.117648	69.180	0.600	-0.650	-0.480	69.120	-2.100	-0.100																			1580067186.0	0.81	1.50
26/01/2020 19:33:07	26012020	260120	193307	69.060	12.187015	-56.117650	69.070	0.320	-0.050	-0.320	69.030	-1.500	0.000																			1580067187.0	0.49	0.91
26/01/2020 19:33:08	26012020	260120	193308	69.000	12.187015	-56.117652	69.070	-0.040	0.520	-0.100	69.010	-0.900	0.200																			1580067188.0	0.36	0.67
26/01/2020 19:33:09	26012020	260120	193309	69.040	12.187015	-56.117653	69.130	-0.260	0.720	0.170	69.050	-0.700	0.500																			1580067189.0	0.41	0.76
26/01/2020 19:33:10	26012020	260120	193310	69.100	12.187013	-56.117653	69.200	-0.250	0.490	0.430	69.120	-0.900	0.800																			1580067190.0	0.37	0.69
26/01/2020 19:33:11	26012020	260120	193311	69.180	12.187012	-56.117652	69.280	-0.130	0.060	0.610	69.200	-1.300	0.900																			1580067191.0	0.48	0.89
26/01/2020 19:33:12	26012020	260120	193312	69.230	12.187010	-56.117648	69.320	-0.080	-0.250	0.700	69.240	-1.600	1.000																			1580067192.0	0.49	0.91
26/01/2020 19:33:13	26012020	260120	193313	69.230	12.187010	-56.117648	69.300	-0.170	-0.320	0.730	69.220	-1.700	1.100																			1580067193.0	0.24	0.44
26/01/2020 19:33:14	26012020	260120	193314	69.180	12.187010	-56.117648	69.250	-0.300	-0.220	0.740	69.160	-1.600	1.100																			1580067194.0	0.17	0.31
26/01/2020 19:33:15	26012020	260120	193315	69.090	12.187008	-56.117650	69.150	-0.350	-0.110	0.730	69.070	-1.500	1.100																			1580067195.0	0.38	0.70
26/01/2020 19:33:16	26012020	260120	193316	68.960	12.187008	-56.117652	69.000	-0.260	-0.130	0.550	68.920	-1.500	0.900																			1580067196.0	0.38	0.70
26/01/2020 19:33:17	26012020	260120	193317	68.800	12.187008	-56.117653	68.840	0.020	-0.330	0.180	68.780	-1.700	0.600																			1580067197.0	0.32	0.59
26/01/2020 19:33:18	26012020	260120	193318	68.740	12.187012	-56.117655	68.810	0.410	-0.630	-0.290	68.750	-2.000	0.100																			1580067198.0	0.55	1.02
26/01/2020 19:33:19	26012020	260120	193319	68.820	12.187015	-56.117653	68.910	0.710	-0.740	-0.680	68.850	-2.100	-0.300																			1580067199.0	0.82	1.52
26/01/2020 19:33:20	26012020	260120	193320	68.960	12.187018	-56.117653	69.040	0.720	-0.470	-0.880	68.980	-1.900	-0.500																			1580067200.0	0.78	1.44
26/01/2020 19:33:21	26012020	260120	193321	69.060	12.187022	-56.117655	69.120	0.440	0.060	-0.840	69.070	-1.400	-0.500																			1580067201.0	0.57	1.06
26/01/2020 19:33:22	26012020	260120	193322	69.130	12.187022	-56.117657	69.200	0.020	0.470	-0.510	69.140	-1.000	-0.200																			1580067202.0	0.48	0.89
26/01/2020 19:33:23	26012020	260120	193323	69.180	12.187022	-56.117658	69.260	-0.340	0.500	0.130	69.180	-0.900	0.400																			1580067203.0	0.36	0.67
26/01/2020 19:33:24	26012020	260120	193324	69.140	12.187018	-56.117657	69.220	-0.560	0.280	0.980	69.120	-1.100	1.200																			1580067204.0	0.74	1.37
26/01/2020 19:33:25	26012020	260120	193325	69.000	12.187013	-56.117655	69.090	-0.640	0.060	1.730	68.970	-1.300	2.000																			1580067205.0	1.23	2.28
26/01/2020 19:33:26	26012020	260120	193326	68.850	12.187007	-56.117653	68.950	-0.540	-0.080	2.060	68.840	-1.500	2.400																			1580067206.0	1.25	2.31
26/01/2020 19:33:27	26012020	260120	193327	68.790	12.187003	-56.117652	68.910	-0.240	-0.210	1.880	68.790	-1.600	2.300																			1580067207.0	0.71	1.31
26/01/2020 19:33:28	26012020	260120	193328	68.830	12.187005	-56.117653	68.940	0.160	-0.320	1.220	68.850	-1.700	1.600																			1580067208.0	0.18	0.33
26/01/2020 19:33:29	26012020	260120	193329	68.950	12.187008	-56.117655	69.100	0.490	-0.390	0.200	68.980	-1.800	0.700																			1580067209.0	0.99	1.83
26/01/2020 19:33:30	26012020	260120	193330	69.210	12.187015	-56.117658	69.310	0.610	-0.500	-0.840	69.250	-1.900	-0.400																			1580067210.0	1.60	2.96
26/01/2020 19:33:31	26012020	260120	193331	69.330	12.187023	-56.117662	69.370	0.490	-0.560	-1.480	69.320	-2.000	-1.100																			1580067211.0	1.76	3.26
26/01/2020 19:33:32	26012020	260120	193332	69.230	12.187028	-56.117663	69.260	0.230	-0.500	-1.490	69.200	-1.900	-1.200																			1580067212.0	1.30	2.41
26/01/2020 19:33:33	26012020	260120	193333	69.070	12.187030	-56.117663	69.120	-0.040	-0.280	-0.920	69.040	-1.700	-0.600																			1580067213.0	0.41	0.76
26/01/2020 19:33:34	26012020	260120	193334	68.960	12.187028	-56.117663	69.030	-0.280	0.050	-0.010	68.950	-1.400	0.200																			1580067214.0	0.60	1.11
26/01/2020 19:33:35	26012020	260120	193335	68.950	12.187022	-56.117662	69.060	-0.460	0.370	0.910	68.960	-1.100	1.200																			1580067215.0	1.34	2.48
26/01/2020 19:33:36	26012020	260120	193336	69.030	12.187015	-56.117660	69.160	-0.530	0.520	1.520	69.050	-0.900	1.800																			1580067216.0	1.55	2.87
26/01/2020 19:33:37	26012020	260120	193337	69.130	12.187010	-56.117658	69.250	-0.410	0.420	1.630	69.150	-1.000	2.000																			1580067217.0	1.14	2.11
26/01/2020 19:33:38	26012020	260120	193338	69.200	12.187008	-56.117658	69.290	-0.110	0.120	1.270	69.200	-1.300	1.700																			1580067218.0	0.34	0.63
26/01/2020 19:33:39	26012020	260120	193339	69.210	12.187010	-56.117658	69.290	0.280	-0.260	0.620	69.220	-1.600	1.100																			1580067219.0	0.55	1.02
26/01/2020 19:33:40	26012020	260120	193340	69.300	12.187017	-56.117660	69.400	0.600	-0.610	-0.140	69.330	-2.000	0.300																			1580067220.0	1.23	2.28
26/01/2020 19:33:41	26012020	260120	193341	69.450	12.187023	-56.117662	69.600	0.690	-0.790	-0.770	69.490	-2.200	-0.400																			1580067221.0	1.54	2.85
26/01/2020 19:33:42	26012020	260120	193342	69.640	12.187028	-56.117663	69.730	0.470	-0.640	-1.010	69.660	-2.100	-0.700																			1580067222.0	1.33	2.46
26/01/2020 19:33:43	26012020	260120	193343	69.680	12.187032	-56.117665	69.750	-0.020	-0.170	-0.790	69.670	-1.600	-0.500																			1580067223.0	0.67	1.24
26/01/2020 19:33:44	26012020	260120	193344	69.580	12.187030	-56.117667	69.660	-0.550	0.300	-0.240	69.550	-1.100	0.100																			1580067224.0	0.50	0.93
26/01/2020 19:33:45	26012020	260120	193345	69.470	12.187025	-56.117668	69.570	-0.770	0.340	0.360	69.460	-1.000	0.700																			1580067225.0	1.00	1.85
26/01/2020 19:33:46	26012020	260120	193346	69.460	12.187020	-56.117667	69.580	-0.590	-0.000	0.780	69.470	-1.400	1.100																			1580067226.0	1.07	1.98
26/01/2020 19:33:47	26012020	260120	193347	69.540	12.187018	-56.117663	69.670	-0.210	-0.320	0.970	69.570	-1.700	1.300																			1580067227.0	0.93	1.72
26/01/2020 19:33:48	26012020	260120	193348	69.700	12.187017	-56.117662	69.830	0.100	-0.290	0.850	69.740	-1.700	1.200																			1580067228.0	0.56	1.04
26/01/2020 19:33:49	26012020	260120	193349	69.900	12.187017	-56.117662	70.010	0.230	0.030	0.380	69.930	-1.400	0.800																			1580067229.0	0.14	0.26
26/01/2020 19:33:50	26012020	260120	193350	70.080	12.187020	-56.117665	70.160	0.250	0.290	-0.290	70.110	-1.100	0.100																			1580067230.0	0.83	1.54
26/01/2020 19:33:51	26012020	260120	193351	70.200	12.187023	-56.117668	70.250	0.280	0.160	-0.830	70.210	-1.200	-0.400																			1580067231.0	1.19	2.20
26/01/2020 19:33:52	26012020	260120	193352	70.260	12.187028	-56.117670	70.330	0.300	-0.300	-1.010	70.280	-1.700	-0.700																			1580067232.0	1.06	1.96
26/01/2020 19:33:53	26012020	260120	193353	70.320	12.187032	-56.117670	70.410	0.250	-0.710	-0.830	70.330	-2.100	-0.500																			1580067233.0	0.66	1.22
26/01/2020 19:33:54	26012020	260120	193354	70.400	12.187032	-56.117668	70.480	0.090	-0.720	-0.470	70.400	-2.100	-0.200																			1580067234.0	0.37	0.69
26/01/2020 19:33:55	26012020	260120	193355	70.400	12.187030	-56.117667	70.470	-0.140	-0.330	-0.020	70.380	-1.800	0.300																			1580067235.0	0.37	0.69
26/01/2020 19:33:56	26012020	260120	193356	70.330	12.187027	-56.117668	70.420	-0.320	0.140	0.380	70.320	-1.300	0.700																			1580067236.0	0.64	1.19
26/01/2020 19:33:57	26012020	260120	193357	70.360	12.187023	-56.117668	70.500	-0.330	0.320	0.640	70.380	-1.100	1.000																			1580067237.0	0.71	1.31
26/01/2020 19:33:58	26012020	260120	193358	70.580	12.187022	-56.117668	70.710	-0.160	0.150	0.740	70.620	-1.200	1.100																			1580067238.0	0.50	0.93
26/01/2020 19:33:59	26012020	260120	193359	70.800	12.187022	-56.117667	70.910	0.030	-0.090	0.620	70.830	-1.500	1.000	1013.70	26.30	26.30	21.00	21.10	438.00	72.00	73.00	388.00	29.80	11.00	4.00	82.00	3.70	29230	3437.00	27.80	27.80	1580067239.0	0.34	0.63
26/01/2020 19:34:00	26012020	260120	193400	70.960	12.187022	-56.117667	71.040	0.130	-0.200	0.290	70.980	-1.600	0.700																			1580067240.0	0.28	0.52
26/01/2020 19:34:01	26012020	260120	193401	71.060	12.187023	-56.117667	71.130	0.100	-0.110	-0.090	71.080	-1.500	0.300																			1580067241.0	0.43	0.80
26/01/2020 19:34:02	26012020	260120	193402	71.100	12.187025	-56.117667	71.140	-0.030	0.070	-0.330	71.100	-1.400	0.000																			1580067242.0	0.52	0.96
26/01/2020 19:34:03	26012020	260120	193403	71.100	12.187027	-56.117670	71.150	-0.180	0.180	-0.410	71.100	-1.200	-0.100																			1580067243.0	0.46	0.85
26/01/2020 19:34:04	26012020	260120	193404	71.160	12.187027	-56.117670	71.240	-0.230	0.060	-0.500	71.190	-1.300	-0.100																			1580067244.0	0.34	0.63
26/01/2020 19:34:05	26012020	260120	193405	71.340	12.187028	-56.117672	71.420	-0.120	-0.310	-0.600	71.370	-1.700	-0.300																			1580067245.0	0.18	0.33
26/01/2020 19:34:06	26012020	260120	193406	71.480	12.187028	-56.117672	71.530	0.110	-0.750	-0.540	71.490	-2.100	-0.200																			1580067246.0	0.22	0.41
26/01/2020 19:34:07	26012020	260120	193407	71.490	12.187028	-56.117670	71.520	0.350	-0.930	-0.240	71.480	-2.300	0.100																			1580067247.0	0.37	0.69
26/01/2020 19:34:08	26012020	260120	193408	71.410	12.187028	-56.117667	71.440	0.470	-0.690	0.170	71.390	-2.100	0.500																			1580067248.0	0.42	0.78
26/01/2020 19:34:09	26012020	260120	193409	71.350	12.187027	-56.117667	71.400	0.380	-0.130	0.530	71.350	-1.600	0.800																			1580067249.0	0.40	0.74
26/01/2020 19:34:10	26012020	260120	193410	71.390	12.187025	-56.117667	71.470	0.100	0.510	0.720	71.410	-1.000	1.100																			1580067250.0	0.44	0.81
26/01/2020 19:34:11	26012020	260120	193411	71.500	12.187023	-56.117668	71.580	-0.250	0.850	0.780	71.530	-0.600	1.100																			1580067251.0	0.47	0.87
26/01/2020 19:34:12	26012020	260120	193412	71.680	12.187022	-56.117670	71.760	-0.490	0.710	0.600	71.710	-0.700	1.000																			1580067252.0	0.34	0.63
26/01/2020 19:34:13	26012020	260120	193413	71.870	12.187022	-56.117670	71.950	-0.460	0.150	0.260	71.910	-1.200	0.600																			1580067253.0	0.03	0.06
26/01/2020 19:34:14	26012020	260120	193414	72.020	12.187023	-56.117668	72.090	-0.210	-0.450	-0.070	72.050	-1.800	0.300																			1580067254.0	0.39	0.72
26/01/2020 19:34:15	26012020	260120	193415	72.140	12.187025	-56.117667	72.190	0.120	-0.770	-0.310	72.160	-2.200	0.100																			1580067255.0	0.46	0.85
26/01/2020 19:34:16	26012020	260120	193416	72.220	12.187027	-56.117667	72.250	0.320	-0.730	-0.480	72.220	-2.200	-0.100																			1580067256.0	0.33	0.61
26/01/2020 19:34:17	26012020	260120	193417	72.160	12.187027	-56.117667	72.150	0.270	-0.350	-0.440	72.130	-1.800	-0.100																			1580067257.0	0.21	0.39
26/01/2020 19:34:18	26012020	260120	193418	71.980	12.187027	-56.117668	71.990	0.030	0.080	-0.190	71.950	-1.400	0.100																			1580067258.0	0.39	0.72
26/01/2020 19:34:19	26012020	260120	193419	71.880	12.187025	-56.117670	71.930	-0.160	0.140	0.080	71.880	-1.300	0.400																			1580067259.0	0.48	0.89
26/01/2020 19:34:20	26012020	260120	193420	71.960	12.187023	-56.117670	72.040	-0.130	-0.210	0.180	72.000	-1.600	0.500																			1580067260.0	0.26	0.48
26/01/2020 19:34:21	26012020	260120	193421	72.150	12.187023	-56.117668	72.240	0.080	-0.510	0.200	72.190	-1.900	0.500																			1580067261.0	0.49	0.91
26/01/2020 19:34:22	26012020	260120	193422	72.300	12.187023	-56.117665	72.360	0.240	-0.320	0.290	72.310	-1.800	0.600																			1580067262.0	0.56	1.04
26/01/2020 19:34:23	26012020	260120	193423	72.350	12.187022	-56.117665	72.390	0.180	0.240	0.390	72.350	-1.200	0.700																			1580067263.0	0.35	0.65
26/01/2020 19:34:24	26012020	260120	193424	72.350	12.187020	-56.117667	72.400	-0.010	0.650	0.380	72.350	-0.800	0.700																			1580067264.0	0.57	1.06
26/01/2020 19:34:25	26012020	260120	193425	72.370	12.187018	-56.117668	72.420	-0.140	0.500	0.230	72.380	-0.900	0.600																			1580067265.0	0.51	0.94
26/01/2020 19:34:26	26012020	260120	193426	72.440	12.187020	-56.117670	72.490	-0.090	-0.160	0.010	72.460	-1.500	0.400																			1580067266.0	0.30	0.56
26/01/2020 19:34:27	26012020	260120	193427	72.500	12.187023	-56.117668	72.540	0.030	-0.820	-0.040	72.500	-2.200	0.300																			1580067267.0	0.67	1.24
26/01/2020 19:34:28	26012020	260120	193428	72.460	12.187025	-56.117665	72.500	0.060	-0.980	0.150	72.440	-2.400	0.500																			1580067268.0	0.62	1.15
26/01/2020 19:34:29	26012020	260120	193429	72.350	12.187023	-56.117663	72.390	-0.060	-0.600	0.430	72.320	-2.100	0.700																			1580067269.0	0.39	0.72
26/01/2020 19:34:30	26012020	260120	193430	72.210	12.187020	-56.117665	72.260	-0.190	0.010	0.630	72.190	-1.400	1.000																			1580067270.0	0.72	1.33
26/01/2020 19:34:31	26012020	260120	193431	72.150	12.187017	-56.117665	72.220	-0.160	0.470	0.580	72.160	-1.000	0.900																			1580067271.0	0.80	1.48
26/01/2020 19:34:32	26012020	260120	193432	72.240	12.187015	-56.117667	72.330	0.020	0.550	0.260	72.270	-0.800	0.600																			1580067272.0	0.41	0.76
26/01/2020 19:34:33	26012020	260120	193433	72.400	12.187017	-56.117667	72.550	0.220	0.250	-0.260	72.440	-1.100	0.100																			1580067273.0	0.34	0.63
26/01/2020 19:34:34	26012020	260120	193434	72.660	12.187020	-56.117667	72.740	0.270	-0.170	-0.730	72.700	-1.500	-0.300																			1580067274.0	0.80	1.48
26/01/2020 19:34:35	26012020	260120	193435	72.780	12.187023	-56.117667	72.830	0.150	-0.440	-0.900	72.780	-1.800	-0.600																			1580067275.0	0.81	1.50
26/01/2020 19:34:36	26012020	260120	193436	72.720	12.187025	-56.117667	72.740	-0.010	-0.530	-0.600	72.690	-1.900	-0.300																			1580067276.0	0.39	0.72
26/01/2020 19:34:37	26012020	260120	193437	72.480	12.187025	-56.117667	72.490	-0.070	-0.490	0.130	72.420	-1.900	0.400																			1580067277.0	0.29	0.54
26/01/2020 19:34:38	26012020	260120	193438	72.150	12.187020	-56.117665	72.170	-0.030	-0.340	0.950	72.090	-1.800	1.200																			1580067278.0	0.95	1.76
26/01/2020 19:34:39	26012020	260120	193439	71.900	12.187015	-56.117663	71.960	0.020	-0.160	1.420	71.880	-1.600	1.700																			1580067279.0	1.16	2.15
26/01/2020 19:34:40	26012020	260120	193440	71.920	12.187012	-56.117662	72.030	0.010	-0.020	1.350	71.960	-1.400	1.700																			1580067280.0	0.78	1.44
26/01/2020 19:34:41	26012020	260120	193441	72.190	12.187012	-56.117662	72.310	-0.050	0.120	0.850	72.260	-1.300	1.300																			1580067281.0	0.13	0.24
26/01/2020 19:34:42	26012020	260120	193442	72.510	12.187013	-56.117662	72.610	-0.120	0.270	0.220	72.570	-1.100	0.600																			1580067282.0	0.42	0.78
26/01/2020 19:34:43	26012020	260120	193443	72.730	12.187015	-56.117663	72.790	-0.160	0.300	-0.360	72.750	-1.100	0.000																			1580067283.0	0.67	1.24
26/01/2020 19:34:44	26012020	260120	193444	72.770	12.187018	-56.117665	72.790	-0.150	0.100	-0.650	72.760	-1.300	-0.300																			1580067284.0	0.63	1.17
26/01/2020 19:34:45	26012020	260120	193445	72.660	12.187020	-56.117667	72.610	-0.060	-0.220	-0.580	72.630	-1.600	-0.300																			1580067285.0	0.30	0.56
26/01/2020 19:34:46	26012020	260120	193446	72.390	12.187018	-56.117665	72.380	0.090	-0.510	-0.250	72.340	-1.900	0.100																			1580067286.0	0.18	0.33
26/01/2020 19:34:47	26012020	260120	193447	72.220	12.187017	-56.117663	72.220	0.220	-0.660	0.100	72.190	-2.000	0.400																			1580067287.0	0.50	0.93
26/01/2020 19:34:48	26012020	260120	193448	72.100	12.187015	-56.117662	72.140	0.260	-0.650	0.350	72.090	-2.100	0.700																			1580067288.0	0.55	1.02
26/01/2020 19:34:49	26012020	260120	193449	72.050	12.187013	-56.117662	72.100	0.170	-0.390	0.520	72.040	-1.800	0.900																			1580067289.0	0.37	0.69
26/01/2020 19:34:50	26012020	260120	193450	72.030	12.187013	-56.117662	72.070	-0.010	0.090	0.550	72.030	-1.400	0.900																			1580067290.0	0.13	0.24
26/01/2020 19:34:51	26012020	260120	193451	72.030	12.187013	-56.117663	72.090	-0.160	0.490	0.410	72.040	-0.900	0.800																			1580067291.0	0.31	0.57
26/01/2020 19:34:52	26012020	260120	193452	72.080	12.187013	-56.117665	72.140	-0.170	0.490	0.190	72.090	-0.900	0.600																			1580067292.0	0.41	0.76
26/01/2020 19:34:53	26012020	260120	193453	72.120	12.187013	-56.117665	72.170	-0.060	0.100	0.030	72.130	-1.300	0.400																			1580067293.0	0.25	0.46
26/01/2020 19:34:54	26012020	260120	193454	72.150	12.187015	-56.117663	72.210	0.060	-0.360	0.040	72.160	-1.700	0.400																			1580067294.0	0.32	0.59
26/01/2020 19:34:55	26012020	260120	193455	72.180	12.187015	-56.117662	72.230	0.090	-0.580	0.130	72.180	-2.000	0.500																			1580067295.0	0.41	0.76
26/01/2020 19:34:56	26012020	260120	193456	72.140	12.187015	-56.117660	72.170	0.020	-0.440	0.190	72.110	-1.900	0.500																			1580067296.0	0.29	0.54
26/01/2020 19:34:57	26012020	260120	193457	72.030	12.187013	-56.117662	72.050	-0.080	-0.110	0.230	72.000	-1.500	0.600																			1580067297.0	0.20	0.37
26/01/2020 19:34:58	26012020	260120	193458	71.910	12.187013	-56.117663	71.930	-0.130	0.190	0.310	71.890	-1.200	0.600																			1580067298.0	0.34	0.63
26/01/2020 19:34:59	26012020	260120	193459	71.820	12.187012	-56.117663	71.860	-0.150	0.260	0.410	71.810	-1.100	0.700	1013.60	26.30	26.30	21.00	21.00	380.00	72.00	72.00	388.00	29.70	10.00	4.20	83.00	4.10	27106	3404.00	27.70	27.80	1580067299.0	0.37	0.69
26/01/2020 19:35:00	26012020	260120	193500	71.770	12.187010	-56.117665	71.800	-0.180	0.060	0.470	71.760	-1.300	0.800																			1580067300.0	0.24	0.44
26/01/2020 19:35:01	26012020	260120	193501	71.700	12.187010	-56.117663	71.720	-0.200	-0.260	0.470	71.680	-1.600	0.800																			1580067301.0	0.15	0.28
26/01/2020 19:35:02	26012020	260120	193502	71.610	12.187010	-56.117663	71.650	-0.110	-0.550	0.400	71.600	-1.900	0.800																			1580067302.0	0.17	0.31
26/01/2020 19:35:03	26012020	260120	193503	71.580	12.187010	-56.117662	71.620	0.120	-0.690	0.270	71.590	-2.100	0.600																			1580067303.0	0.20	0.37
26/01/2020 19:35:04	26012020	260120	193504	71.600	12.187010	-56.117662	71.620	0.380	-0.550	0.130	71.590	-2.000	0.500																			1580067304.0	0.19	0.35
26/01/2020 19:35:05	26012020	260120	193505	71.550	12.187010	-56.117662	71.570	0.460	-0.120	0.030	71.530	-1.600	0.400																			1580067305.0	0.05	0.09
26/01/2020 19:35:06	26012020	260120	193506	71.430	12.187012	-56.117662	71.440	0.310	0.330	-0.060	71.410	-1.100	0.300																			1580067306.0	0.24	0.44
26/01/2020 19:35:07	26012020	260120	193507	71.360	12.187012	-56.117665	71.380	0.050	0.490	-0.220	71.360	-0.900	0.200																			1580067307.0	0.44	0.81
26/01/2020 19:35:08	26012020	260120	193508	71.410	12.187013	-56.117665	71.440	-0.160	0.280	-0.400	71.430	-1.100	-0.000																			1580067308.0	0.50	0.93
26/01/2020 19:35:09	26012020	260120	193509	71.490	12.187017	-56.117665	71.550	-0.250	-0.080	-0.390	71.510	-1.400	-0.100																			1580067309.0	0.47	0.87
26/01/2020 19:35:10	26012020	260120	193510	71.560	12.187017	-56.117665	71.600	-0.280	-0.290	-0.070	71.560	-1.700	0.200																			1580067310.0	0.26	0.48
26/01/2020 19:35:11	26012020	260120	193511	71.550	12.187015	-56.117663	71.600	-0.300	-0.330	0.470	71.540	-1.700	0.800																			1580067311.0	0.55	1.02
26/01/2020 19:35:12	26012020	260120	193512	71.500	12.187010	-56.117662	71.560	-0.310	-0.300	0.950	71.490	-1.700	1.300																			1580067312.0	1.00	1.85
26/01/2020 19:35:13	26012020	260120	193513	71.460	12.187005	-56.117662	71.500	-0.240	-0.230	1.120	71.450	-1.600	1.500																			1580067313.0	1.01	1.87
26/01/2020 19:35:14	26012020	260120	193514	71.390	12.187002	-56.117662	71.400	-0.090	-0.060	0.990	71.370	-1.500	1.400																			1580067314.0	0.59	1.09
26/01/2020 19:35:15	26012020	260120	193515	71.290	12.187002	-56.117662	71.300	0.070	0.090	0.660	71.270	-1.300	1.100																			1580067315.0	0.20	0.37
26/01/2020 19:35:16	26012020	260120	193516	71.240	12.187003	-56.117663	71.260	0.200	0.040	0.170	71.250	-1.300	0.600																			1580067316.0	0.56	1.04
26/01/2020 19:35:17	26012020	260120	193517	71.310	12.187008	-56.117665	71.340	0.280	-0.280	-0.370	71.340	-1.600	0.000																			1580067317.0	0.84	1.56
26/01/2020 19:35:18	26012020	260120	193518	71.460	12.187012	-56.117665	71.490	0.340	-0.680	-0.780	71.490	-2.000	-0.400																			1580067318.0	0.90	1.67
26/01/2020 19:35:19	26012020	260120	193519	71.600	12.187015	-56.117665	71.640	0.340	-0.830	-0.900	71.620	-2.200	-0.500																			1580067319.0	0.73	1.35
26/01/2020 19:35:20	26012020	260120	193520	71.680	12.187015	-56.117663	71.700	0.220	-0.470	-0.710	71.680	-1.900	-0.400																			1580067320.0	0.37	0.69
26/01/2020 19:35:21	26012020	260120	193521	71.640	12.187013	-56.117662	71.660	-0.030	0.300	-0.300	71.610	-1.200	0.000																			1580067321.0	0.39	0.72
26/01/2020 19:35:22	26012020	260120	193522	71.530	12.187010	-56.117663	71.570	-0.280	0.910	0.210	71.520	-0.500	0.500																			1580067322.0	0.85	1.57
26/01/2020 19:35:23	26012020	260120	193523	71.510	12.187007	-56.117667	71.600	-0.320	0.810	0.600	71.520	-0.500	0.900																			1580067323.0	0.92	1.70
26/01/2020 19:35:24	26012020	260120	193524	71.650	12.187005	-56.117665	71.750	-0.140	0.060	0.750	71.690	-1.300	1.100																			1580067324.0	0.46	0.85
26/01/2020 19:35:25	26012020	260120	193525	71.820	12.187005	-56.117663	71.940	0.050	-0.690	0.690	71.860	-2.000	1.100																			1580067325.0	0.60	1.11
26/01/2020 19:35:26	26012020	260120	193526	72.000	12.187007	-56.117660	72.060	0.050	-0.890	0.660	72.010	-2.300	1.000																			1580067326.0	0.66	1.22
26/01/2020 19:35:27	26012020	260120	193527	71.980	12.187007	-56.117660	72.020	-0.160	-0.450	0.790	71.960	-1.900	1.100																			1580067327.0	0.12	0.22
26/01/2020 19:35:28	26012020	260120	193528	71.860	12.187005	-56.117662	71.890	-0.380	0.170	0.980	71.830	-1.300	1.300																			1580067328.0	0.63	1.17
26/01/2020 19:35:29	26012020	260120	193529	71.750	12.187000	-56.117663	71.790	-0.370	0.390	0.990	71.740	-1.000	1.300																			1580067329.0	0.95	1.76
26/01/2020 19:35:30	26012020	260120	193530	71.750	12.186998	-56.117665	71.800	-0.070	0.020	0.650	71.770	-1.300	1.000																			1580067330.0	0.56	1.04
26/01/2020 19:35:31	26012020	260120	193531	71.850	12.186998	-56.117663	71.900	0.350	-0.510	0.020	71.870	-1.900	0.400																			1580067331.0	0.31	0.57
26/01/2020 19:35:32	26012020	260120	193532	71.940	12.187003	-56.117662	71.970	0.590	-0.720	-0.710	71.960	-2.100	-0.300																			1580067332.0	0.87	1.61
26/01/2020 19:35:33	26012020	260120	193533	71.970	12.187008	-56.117662	71.960	0.540	-0.480	-1.220	71.960	-1.900	-0.800																			1580067333.0	1.14	2.11
26/01/2020 19:35:34	26012020	260120	193534	71.920	12.187012	-56.117663	71.920	0.340	-0.100	-1.290	71.920	-1.500	-0.900																			1580067334.0	1.04	1.93
26/01/2020 19:35:35	26012020	260120	193535	71.910	12.187013	-56.117667	71.920	0.130	0.120	-0.920	71.910	-1.300	-0.600																			1580067335.0	0.53	0.98
26/01/2020 19:35:36	26012020	260120	193536	71.880	12.187013	-56.117667	71.910	-0.100	0.210	-0.230	71.870	-1.200	0.000																			1580067336.0	0.27	0.50
26/01/2020 19:35:37	26012020	260120	193537	71.830	12.187008	-56.117665	71.860	-0.380	0.290	0.600	71.820	-1.100	0.900																			1580067337.0	0.86	1.59
26/01/2020 19:35:38	26012020	260120	193538	71.800	12.187003	-56.117663	71.870	-0.590	0.260	1.300	71.800	-1.100	1.600																			1580067338.0	1.20	2.22
26/01/2020 19:35:39	26012020	260120	193539	71.810	12.186998	-56.117662	71.890	-0.580	0.060	1.680	71.820	-1.300	2.000																			1580067339.0	1.24	2.30
26/01/2020 19:35:40	26012020	260120	193540	71.840	12.186993	-56.117660	71.910	-0.340	-0.230	1.700	71.850	-1.600	2.100																			1580067340.0	0.96	1.78
26/01/2020 19:35:41	26012020	260120	193541	71.850	12.186992	-56.117658	71.910	0.040	-0.410	1.350	71.860	-1.800	1.700																			1580067341.0	0.45	0.83
26/01/2020 19:35:42	26012020	260120	193542	71.860	12.186993	-56.117658	71.880	0.370	-0.430	0.740	71.850	-1.800	1.200																			1580067342.0	0.19	0.35
26/01/2020 19:35:43	26012020	260120	193543	71.810	12.186997	-56.117660	71.810	0.500	-0.330	0.070	71.800	-1.700	0.500																			1580067343.0	0.71	1.31
26/01/2020 19:35:44	26012020	260120	193544	71.700	12.187000	-56.117662	71.660	0.380	-0.200	-0.530	71.660	-1.600	-0.100																			1580067344.0	0.97	1.80
26/01/2020 19:35:45	26012020	260120	193545	71.490	12.187003	-56.117665	71.440	0.120	-0.130	-0.900	71.440	-1.500	-0.500																			1580067345.0	0.95	1.76
26/01/2020 19:35:46	26012020	260120	193546	71.250	12.187007	-56.117665	71.220	-0.110	-0.150	-1.020	71.210	-1.500	-0.700																			1580067346.0	0.72	1.33
26/01/2020 19:35:47	26012020	260120	193547	71.140	12.187008	-56.117667	71.150	-0.160	-0.230	-0.960	71.150	-1.600	-0.600																			1580067347.0	0.37	0.69
26/01/2020 19:35:48	26012020	260120	193548	71.240	12.187008	-56.117665	71.290	-0.030	-0.320	-0.750	71.280	-1.700	-0.400																			1580067348.0	0.17	0.31
26/01/2020 19:35:49	26012020	260120	193549	71.430	12.187007	-56.117663	71.500	0.120	-0.280	-0.330	71.470	-1.700	-0.000																			1580067349.0	0.49	0.91
26/01/2020 19:35:50	26012020	260120	193550	71.570	12.187005	-56.117662	71.620	0.120	0.040	0.230	71.580	-1.400	0.500																			1580067350.0	0.79	1.46
26/01/2020 19:35:51	26012020	260120	193551	71.500	12.187000	-56.117660	71.510	-0.060	0.540	0.820	71.460	-0.900	1.100																			1580067351.0	1.00	1.85
26/01/2020 19:35:52	26012020	260120	193552	71.260	12.186995	-56.117662	71.250	-0.280	0.780	1.250	71.200	-0.600	1.600																			1580067352.0	1.05	1.94
26/01/2020 19:35:53	26012020	260120	193553	71.050	12.186992	-56.117663	71.070	-0.360	0.450	1.330	71.030	-0.900	1.700																			1580067353.0	0.71	1.31
26/01/2020 19:35:54	26012020	260120	193554	70.970	12.186992	-56.117663	70.980	-0.220	-0.370	1.140	70.960	-1.700	1.500																			1580067354.0	0.02	0.04
26/01/2020 19:35:55	26012020	260120	193555	70.900	12.186995	-56.117662	70.910	0.030	-1.140	0.850	70.870	-2.500	1.200																			1580067355.0	0.58	1.07
26/01/2020 19:35:56	26012020	260120	193556	70.780	12.186997	-56.117658	70.800	0.220	-1.350	0.530	70.760	-2.700	0.900																			1580067356.0	0.74	1.37
26/01/2020 19:35:57	26012020	260120	193557	70.680	12.186998	-56.117658	70.700	0.240	-0.800	0.180	70.660	-2.300	0.600																			1580067357.0	0.40	0.74
26/01/2020 19:35:58	26012020	260120	193558	70.640	12.186998	-56.117660	70.660	0.110	0.120	-0.220	70.640	-1.400	0.200																			1580067358.0	0.41	0.76
26/01/2020 19:35:59	26012020	260120	193559	70.710	12.187000	-56.117663	70.760	0.030	0.770	-0.660	70.740	-0.700	-0.300	1013.70	26.30	26.30	21.00	21.00	318.00	72.00	72.00	388.00	29.60	18.00	4.00	91.00	3.70	24767	3422.00	27.80	27.80	1580067359.0	0.80	1.48
26/01/2020 19:36:00	26012020	260120	193600	70.880	12.187002	-56.117667	70.940	0.120	0.750	-1.010	70.920	-0.600	-0.600																			1580067360.0	0.76	1.41
26/01/2020 19:36:01	26012020	260120	193601	71.010	12.187003	-56.117668	71.070	0.270	0.230	-1.070	71.030	-1.100	-0.700																			1580067361.0	0.52	0.96
26/01/2020 19:36:02	26012020	260120	193602	71.030	12.187005	-56.117667	71.050	0.250	-0.310	-0.760	71.020	-1.700	-0.500																			1580067362.0	0.52	0.96
26/01/2020 19:36:03	26012020	260120	193603	70.880	12.187005	-56.117663	70.890	-0.030	-0.510	-0.080	70.830	-1.900	0.200																			1580067363.0	0.50	0.93
26/01/2020 19:36:04	26012020	260120	193604	70.630	12.187002	-56.117662	70.660	-0.400	-0.410	0.830	70.580	-1.800	1.100																			1580067364.0	0.74	1.37
26/01/2020 19:36:05	26012020	260120	193605	70.400	12.186997	-56.117662	70.450	-0.590	-0.250	1.580	70.360	-1.600	1.900																			1580067365.0	1.12	2.07
26/01/2020 19:36:06	26012020	260120	193606	70.290	12.186992	-56.117662	70.380	-0.480	-0.170	1.900	70.290	-1.600	2.200																			1580067366.0	1.06	1.96
26/01/2020 19:36:07	26012020	260120	193607	70.370	12.186988	-56.117660	70.500	-0.160	-0.200	1.700	70.420	-1.600	2.100																			1580067367.0	0.59	1.09
26/01/2020 19:36:08	26012020	260120	193608	70.620	12.186988	-56.117660	70.730	0.190	-0.180	1.110	70.670	-1.600	1.500																			1580067368.0	0.10	0.19
26/01/2020 19:36:09	26012020	260120	193609	70.830	12.186992	-56.117660	70.900	0.420	-0.060	0.400	70.860	-1.500	0.800																			1580067369.0	0.46	0.85
26/01/2020 19:36:10	26012020	260120	193610	70.910	12.186993	-56.117662	70.930	0.460	0.080	-0.240	70.910	-1.300	0.200																			1580067370.0	0.69	1.28
26/01/2020 19:36:11	26012020	260120	193611	70.870	12.186997	-56.117663	70.870	0.370	0.070	-0.730	70.860	-1.300	-0.300																			1580067371.0	0.79	1.46
26/01/2020 19:36:12	26012020	260120	193612	70.820	12.187000	-56.117665	70.840	0.210	-0.040	-1.030	70.820	-1.400	-0.700																			1580067372.0	0.80	1.48
26/01/2020 19:36:13	26012020	260120	193613	70.840	12.187003	-56.117665	70.890	0.050	-0.130	-1.060	70.850	-1.500	-0.700																			1580067373.0	0.64	1.19
26/01/2020 19:36:14	26012020	260120	193614	70.900	12.187005	-56.117667	70.940	-0.100	-0.190	-0.740	70.910	-1.600	-0.400																			1580067374.0	0.24	0.44
26/01/2020 19:36:15	26012020	260120	193615	70.870	12.187003	-56.117665	70.900	-0.230	-0.240	-0.130	70.860	-1.600	0.200																			1580067375.0	0.27	0.50
26/01/2020 19:36:16	26012020	260120	193616	70.750	12.187000	-56.117665	70.770	-0.330	-0.280	0.620	70.710	-1.700	0.900																			1580067376.0	0.74	1.37
26/01/2020 19:36:17	26012020	260120	193617	70.540	12.186997	-56.117662	70.560	-0.370	-0.220	1.360	70.490	-1.600	1.600																			1580067377.0	1.02	1.89
26/01/2020 19:36:18	26012020	260120	193618	70.370	12.186992	-56.117660	70.440	-0.330	-0.030	1.830	70.360	-1.400	2.200																			1580067378.0	1.03	1.91
26/01/2020 19:36:19	26012020	260120	193619	70.410	12.186988	-56.117660	70.520	-0.160	0.140	1.770	70.440	-1.300	2.100																			1580067379.0	0.67	1.24
26/01/2020 19:36:20	26012020	260120	193620	70.610	12.186988	-56.117662	70.710	0.110	0.070	1.200	70.650	-1.300	1.600																			1580067380.0	0.18	0.33
26/01/2020 19:36:21	26012020	260120	193621	70.820	12.186992	-56.117662	70.890	0.390	-0.230	0.390	70.850	-1.600	0.800																			1580067381.0	0.72	1.33
26/01/2020 19:36:22	26012020	260120	193622	70.940	12.186997	-56.117663	70.980	0.550	-0.570	-0.320	70.960	-1.900	0.100																			1580067382.0	1.14	2.11
26/01/2020 19:36:23	26012020	260120	193623	70.930	12.187002	-56.117662	70.950	0.480	-0.650	-0.640	70.910	-2.000	-0.300																			1580067383.0	1.10	2.04
26/01/2020 19:36:24	26012020	260120	193624	70.810	12.187005	-56.117662	70.820	0.170	-0.300	-0.570	70.780	-1.700	-0.200																			1580067384.0	0.58	1.07
26/01/2020 19:36:25	26012020	260120	193625	70.720	12.187005	-56.117663	70.750	-0.210	0.250	-0.370	70.710	-1.200	-0.000																			1580067385.0	0.22	0.41
26/01/2020 19:36:26	26012020	260120	193626	70.700	12.187002	-56.117665	70.760	-0.430	0.550	-0.150	70.710	-0.900	0.200																			1580067386.0	0.61	1.13
26/01/2020 19:36:27	26012020	260120	193627	70.710	12.187000	-56.117667	70.780	-0.360	0.380	0.090	70.710	-1.000	0.400																			1580067387.0	0.56	1.04
26/01/2020 19:36:28	26012020	260120	193628	70.700	12.186998	-56.117665	70.760	-0.140	-0.010	0.340	70.690	-1.400	0.700																			1580067388.0	0.46	0.85
26/01/2020 19:36:29	26012020	260120	193629	70.630	12.186997	-56.117663	70.670	0.040	-0.290	0.510	70.610	-1.700	0.800																			1580067389.0	0.42	0.78
26/01/2020 19:36:30	26012020	260120	193630	70.560	12.186997	-56.117663	70.630	0.080	-0.380	0.520	70.560	-1.800	0.900																			1580067390.0	0.12	0.22
26/01/2020 19:36:31	26012020	260120	193631	70.600	12.186998	-56.117663	70.690	0.080	-0.420	0.330	70.630	-1.800	0.700																			1580067391.0	0.32	0.59
26/01/2020 19:36:32	26012020	260120	193632	70.720	12.187000	-56.117665	70.810	0.110	-0.470	0.110	70.750	-1.800	0.500																			1580067392.0	0.58	1.07
26/01/2020 19:36:33	26012020	260120	193633	70.880	12.187003	-56.117665	70.980	0.140	-0.400	0.010	70.920	-1.800	0.400																			1580067393.0	0.52	0.96
26/01/2020 19:36:34	26012020	260120	193634	71.080	12.187003	-56.117667	71.180	0.110	-0.200	0.010	71.120	-1.600	0.400																			1580067394.0	0.20	0.37
26/01/2020 19:36:35	26012020	260120	193635	71.250	12.187003	-56.117667	71.330	0.000	0.040	0.090	71.260	-1.400	0.400																			1580067395.0	0.15	0.28
26/01/2020 19:36:36	26012020	260120	193636	71.280	12.187002	-56.117667	71.340	-0.150	0.160	0.300	71.270	-1.200	0.600																			1580067396.0	0.35	0.65
26/01/2020 19:36:37	26012020	260120	193637	71.250	12.187000	-56.117665	71.310	-0.280	0.190	0.490	71.250	-1.200	0.800																			1580067397.0	0.42	0.78
26/01/2020 19:36:38	26012020	260120	193638	71.270	12.186998	-56.117665	71.340	-0.310	0.210	0.520	71.290	-1.200	0.900																			1580067398.0	0.33	0.61
26/01/2020 19:36:39	26012020	260120	193639	71.380	12.186997	-56.117665	71.450	-0.190	0.150	0.340	71.410	-1.200	0.700																			1580067399.0	0.13	0.24
26/01/2020 19:36:40	26012020	260120	193640	71.540	12.186998	-56.117667	71.610	0.040	-0.120	0.090	71.580	-1.500	0.500																			1580067400.0	0.21	0.39
26/01/2020 19:36:41	26012020	260120	193641	71.750	12.187000	-56.117665	71.810	0.290	-0.530	-0.120	71.790	-1.900	0.300																			1580067401.0	0.44	0.81
26/01/2020 19:36:42	26012020	260120	193642	71.940	12.187003	-56.117665	71.990	0.440	-0.740	-0.230	71.970	-2.100	0.100																			1580067402.0	0.59	1.09
26/01/2020 19:36:43	26012020	260120	193643	72.020	12.187005	-56.117663	72.050	0.400	-0.520	-0.140	72.020	-1.900	0.200																			1580067403.0	0.51	0.94
26/01/2020 19:36:44	26012020	260120	193644	71.950	12.187005	-56.117663	71.960	0.190	-0.040	0.180	71.930	-1.500	0.500																			1580067404.0	0.12	0.22
26/01/2020 19:36:45	26012020	260120	193645	71.810	12.187003	-56.117665	71.830	-0.100	0.280	0.590	71.790	-1.100	0.900																			1580067405.0	0.36	0.67
26/01/2020 19:36:46	26012020	260120	193646	71.690	12.187002	-56.117665	71.720	-0.320	0.240	0.910	71.670	-1.100	1.200																			1580067406.0	0.38	0.70
26/01/2020 19:36:47	26012020	260120	193647	71.630	12.187002	-56.117663	71.670	-0.340	-0.040	0.990	71.630	-1.400	1.300																			1580067407.0	0.31	0.57
26/01/2020 19:36:48	26012020	260120	193648	71.710	12.187002	-56.117662	71.780	-0.180	-0.280	0.750	71.750	-1.600	1.100																			1580067408.0	0.49	0.91
26/01/2020 19:36:49	26012020	260120	193649	71.920	12.187003	-56.117660	72.080	0.010	-0.270	0.280	71.980	-1.700	0.700																			1580067409.0	0.52	0.96
26/01/2020 19:36:50	26012020	260120	193650	72.320	12.187007	-56.117660	72.390	0.080	-0.010	-0.170	72.370	-1.400	0.200																			1580067410.0	0.44	0.81
26/01/2020 19:36:51	26012020	260120	193651	72.470	12.187007	-56.117660	72.480	-0.020	0.280	-0.350	72.470	-1.100	0.000																			1580067411.0	0.37	0.69
26/01/2020 19:36:52	26012020	260120	193652	72.280	12.187007	-56.117662	72.230	-0.190	0.340	-0.220	72.210	-1.000	0.100																			1580067412.0	0.30	0.56
26/01/2020 19:36:53	26012020	260120	193653	71.850	12.187007	-56.117663	71.800	-0.290	0.020	0.000	71.760	-1.300	0.300																			1580067413.0	0.17	0.31
26/01/2020 19:36:54	26012020	260120	193654	71.420	12.187007	-56.117662	71.390	-0.170	-0.560	0.150	71.350	-1.900	0.500																			1580067414.0	0.21	0.39
26/01/2020 19:36:55	26012020	260120	193655	71.130	12.187008	-56.117660	71.130	0.130	-1.040	0.150	71.090	-2.400	0.500																			1580067415.0	0.55	1.02
26/01/2020 19:36:56	26012020	260120	193656	71.010	12.187010	-56.117657	71.030	0.450	-1.090	0.040	70.990	-2.500	0.400																			1580067416.0	0.68	1.26
26/01/2020 19:36:57	26012020	260120	193657	71.010	12.187012	-56.117655	71.050	0.590	-0.650	-0.170	71.020	-2.100	0.200																			1580067417.0	0.52	0.96
26/01/2020 19:36:58	26012020	260120	193658	71.110	12.187013	-56.117655	71.170	0.450	0.010	-0.450	71.140	-1.400	-0.100																			1580067418.0	0.35	0.65
26/01/2020 19:36:59	26012020	260120	193659	71.300	12.187015	-56.117657	71.360	0.080	0.640	-0.660	71.330	-0.800	-0.300	1013.70	26.30	26.30	21.00	21.00	296.00	72.00	72.00	388.00	29.50	16.00	3.80	88.00	3.60	23689	3364.00	27.80	27.80	1580067419.0	0.34	0.63
26/01/2020 19:37:00	26012020	260120	193700	71.440	12.187015	-56.117657	71.480	-0.340	1.050	-0.690	71.450	-0.400	-0.400																			1580067420.0	0.29	0.54
26/01/2020 19:37:01	26012020	260120	193701	71.420	12.187015	-56.117658	71.430	-0.600	1.070	-0.510	71.400	-0.300	-0.200																			1580067421.0	0.27	0.50
26/01/2020 19:37:02	26012020	260120	193702	71.250	12.187013	-56.117658	71.260	-0.590	0.550	-0.220	71.210	-0.800	0.100																			1580067422.0	0.36	0.67
26/01/2020 19:37:03	26012020	260120	193703	71.110	12.187012	-56.117657	71.120	-0.330	-0.330	0.000	71.090	-1.600	0.300																			1580067423.0	0.41	0.76
26/01/2020 19:37:04	26012020	260120	193704	71.070	12.187012	-56.117655	71.120	-0.020	-1.130	0.090	71.080	-2.400	0.400																			1580067424.0	0.55	1.02
26/01/2020 19:37:05	26012020	260120	193705	71.130	12.187013	-56.117652	71.190	0.220	-1.370	0.170	71.130	-2.700	0.500																			1580067425.0	0.53	0.98
26/01/2020 19:37:06	26012020	260120	193706	71.140	12.187013	-56.117652	71.190	0.320	-1.010	0.320	71.130	-2.400	0.600																			1580067426.0	0.16	0.30
26/01/2020 19:37:07	26012020	260120	193707	71.050	12.187012	-56.117653	71.070	0.290	-0.380	0.520	71.020	-1.800	0.800																			1580067427.0	0.32	0.59
26/01/2020 19:37:08	26012020	260120	193708	70.860	12.187010	-56.117653	70.880	0.190	0.100	0.650	70.820	-1.300	1.000																			1580067428.0	0.51	0.94
26/01/2020 19:37:09	26012020	260120	193709	70.720	12.187008	-56.117653	70.760	0.080	0.260	0.560	70.710	-1.100	0.900																			1580067429.0	0.34	0.63
26/01/2020 19:37:10	26012020	260120	193710	70.750	12.187008	-56.117653	70.820	-0.000	0.230	0.240	70.780	-1.100	0.600																			1580067430.0	0.20	0.37
26/01/2020 19:37:11	26012020	260120	193711	70.900	12.187010	-56.117652	70.960	-0.040	0.210	-0.150	70.920	-1.200	0.200																			1580067431.0	0.42	0.78
26/01/2020 19:37:12	26012020	260120	193712	71.050	12.187012	-56.117652	71.120	-0.050	0.280	-0.540	71.080	-1.100	-0.200																			1580067432.0	0.41	0.76
26/01/2020 19:37:13	26012020	260120	193713	71.190	12.187013	-56.117652	71.230	-0.090	0.360	-0.870	71.200	-1.000	-0.500																			1580067433.0	0.39	0.72
26/01/2020 19:37:14	26012020	260120	193714	71.220	12.187015	-56.117653	71.260	-0.140	0.310	-0.990	71.220	-1.100	-0.600																			1580067434.0	0.47	0.87
26/01/2020 19:37:15	26012020	260120	193715	71.190	12.187017	-56.117655	71.190	-0.100	0.010	-0.800	71.180	-1.300	-0.500																			1580067435.0	0.38	0.70
26/01/2020 19:37:16	26012020	260120	193716	71.110	12.187017	-56.117655	71.140	0.050	-0.510	-0.330	71.100	-1.800	-0.000																			1580067436.0	0.05	0.09
26/01/2020 19:37:17	26012020	260120	193717	71.070	12.187015	-56.117653	71.110	0.220	-1.010	0.280	71.060	-2.300	0.600																			1580067437.0	0.50	0.93
26/01/2020 19:37:18	26012020	260120	193718	70.980	12.187012	-56.117650	71.030	0.260	-1.090	0.890	70.960	-2.500	1.200																			1580067438.0	0.84	1.56
26/01/2020 19:37:19	26012020	260120	193719	70.820	12.187008	-56.117648	70.860	0.120	-0.610	1.370	70.790	-2.000	1.700																			1580067439.0	0.87	1.61
26/01/2020 19:37:20	26012020	260120	193720	70.640	12.187005	-56.117648	70.690	-0.060	0.100	1.610	70.600	-1.300	1.900																			1580067440.0	0.74	1.37
26/01/2020 19:37:21	26012020	260120	193721	70.530	12.187003	-56.117648	70.610	-0.150	0.530	1.450	70.530	-0.900	1.800																			1580067441.0	0.59	1.09
26/01/2020 19:37:22	26012020	260120	193722	70.580	12.187003	-56.117650	70.660	-0.100	0.480	0.880	70.600	-0.900	1.300																			1580067442.0	0.21	0.39
26/01/2020 19:37:23	26012020	260120	193723	70.720	12.187005	-56.117650	70.800	-0.020	0.200	0.120	70.750	-1.100	0.500																			1580067443.0	0.59	1.09
26/01/2020 19:37:24	26012020	260120	193724	70.880	12.187010	-56.117650	70.940	-0.020	-0.040	-0.570	70.910	-1.400	-0.200																			1580067444.0	0.90	1.67
26/01/2020 19:37:25	26012020	260120	193725	71.000	12.187013	-56.117650	71.050	-0.070	-0.150	-1.030	71.020	-1.500	-0.600																			1580067445.0	0.82	1.52
26/01/2020 19:37:26	26012020	260120	193726	71.010	12.187015	-56.117650	71.000	-0.090	-0.170	-1.140	70.980	-1.500	-0.800																			1580067446.0	0.45	0.83
26/01/2020 19:37:27	26012020	260120	193727	70.770	12.187015	-56.117650	70.720	-0.020	-0.090	-0.800	70.690	-1.500	-0.500																			1580067447.0	0.11	0.20
26/01/2020 19:37:28	26012020	260120	193728	70.350	12.187013	-56.117652	70.310	0.100	-0.070	-0.200	70.270	-1.400	0.100																			1580067448.0	0.43	0.80
26/01/2020 19:37:29	26012020	260120	193729	70.030	12.187012	-56.117652	70.050	0.230	-0.290	0.330	69.990	-1.600	0.600																			1580067449.0	0.48	0.89
26/01/2020 19:37:30	26012020	260120	193730	69.960	12.187010	-56.117650	70.050	0.330	-0.660	0.610	69.970	-2.000	0.900																			1580067450.0	0.29	0.54
26/01/2020 19:37:31	26012020	260120	193731	70.060	12.187012	-56.117648	70.160	0.330	-0.790	0.760	70.080	-2.200	1.100																			1580067451.0	0.44	0.81
26/01/2020 19:37:32	26012020	260120	193732	70.140	12.187012	-56.117647	70.230	0.170	-0.440	0.920	70.140	-1.900	1.300																			1580067452.0	0.34	0.63
26/01/2020 19:37:33	26012020	260120	193733	70.090	12.187012	-56.117647	70.160	-0.120	0.230	1.200	70.060	-1.200	1.500																			1580067453.0	0.23	0.43
26/01/2020 19:37:34	26012020	260120	193734	69.920	12.187008	-56.117648	70.000	-0.360	0.690	1.400	69.890	-0.700	1.700																			1580067454.0	0.72	1.33
26/01/2020 19:37:35	26012020	260120	193735	69.800	12.187005	-56.117648	69.890	-0.390	0.540	1.260	69.790	-0.800	1.600																			1580067455.0	0.67	1.24
26/01/2020 19:37:36	26012020	260120	193736	69.760	12.187005	-56.117648	69.850	-0.210	0.040	0.760	69.760	-1.300	1.200																			1580067456.0	0.19	0.35
26/01/2020 19:37:37	26012020	260120	193737	69.710	12.187007	-56.117647	69.780	-0.010	-0.360	0.140	69.700	-1.700	0.600																			1580067457.0	0.61	1.13
26/01/2020 19:37:38	26012020	260120	193738	69.590	12.187010	-56.117647	69.630	0.050	-0.420	-0.430	69.560	-1.800	-0.000																			1580067458.0	0.78	1.44
26/01/2020 19:37:39	26012020	260120	193739	69.450	12.187013	-56.117647	69.480	-0.010	-0.230	-0.890	69.420	-1.600	-0.500																			1580067459.0	0.83	1.54
26/01/2020 19:37:40	26012020	260120	193740	69.380	12.187017	-56.117650	69.430	-0.050	-0.130	-1.200	69.380	-1.500	-0.800																			1580067460.0	0.87	1.61
26/01/2020 19:37:41	26012020	260120	193741	69.400	12.187018	-56.117652	69.480	0.050	-0.300	-1.290	69.410	-1.700	-0.900																			1580067461.0	0.65	1.20
26/01/2020 19:37:42	26012020	260120	193742	69.500	12.187020	-56.117652	69.570	0.270	-0.540	-1.120	69.520	-1.900	-0.800																			1580067462.0	0.32	0.59
26/01/2020 19:37:43	26012020	260120	193743	69.600	12.187020	-56.117650	69.690	0.430	-0.480	-0.690	69.620	-1.900	-0.400																			1580067463.0	0.43	0.80
26/01/2020 19:37:44	26012020	260120	193744	69.640	12.187018	-56.117648	69.710	0.360	-0.020	-0.030	69.630	-1.400	0.300																			1580067464.0	0.56	1.04
26/01/2020 19:37:45	26012020	260120	193745	69.530	12.187015	-56.117648	69.600	0.080	0.520	0.680	69.500	-0.900	1.000																			1580067465.0	0.80	1.48
26/01/2020 19:37:46	26012020	260120	193746	69.420	12.187012	-56.117648	69.510	-0.210	0.620	1.150	69.410	-0.700	1.500																			1580067466.0	0.83	1.54
26/01/2020 19:37:47	26012020	260120	193747	69.470	12.187010	-56.117650	69.610	-0.360	0.140	1.330	69.500	-1.200	1.700																			1580067467.0	0.38	0.70
26/01/2020 19:37:48	26012020	260120	193748	69.620	12.187010	-56.117648	69.770	-0.370	-0.480	1.380	69.640	-1.800	1.700																			1580067468.0	0.39	0.72
26/01/2020 19:37:49	26012020	260120	193749	69.710	12.187010	-56.117645	69.840	-0.360	-0.670	1.360	69.720	-2.000	1.700																			1580067469.0	0.56	1.04
26/01/2020 19:37:50	26012020	260120	193750	69.740	12.187010	-56.117643	69.860	-0.330	-0.370	1.160	69.740	-1.800	1.500																			1580067470.0	0.30	0.56
26/01/2020 19:37:51	26012020	260120	193751	69.760	12.187008	-56.117645	69.860	-0.180	-0.020	0.710	69.770	-1.400	1.100																			1580067471.0	0.42	0.78
26/01/2020 19:37:52	26012020	260120	193752	69.790	12.187008	-56.117647	69.880	0.160	-0.030	0.060	69.790	-1.400	0.500																			1580067472.0	0.45	0.83
26/01/2020 19:37:53	26012020	260120	193753	69.790	12.187010	-56.117648	69.870	0.550	-0.340	-0.570	69.790	-1.700	-0.200																			1580067473.0	0.57	1.06
26/01/2020 19:37:54	26012020	260120	193754	69.740	12.187015	-56.117648	69.780	0.770	-0.560	-1.050	69.730	-1.900	-0.700																			1580067474.0	0.97	1.80
26/01/2020 19:37:55	26012020	260120	193755	69.680	12.187020	-56.117647	69.700	0.620	-0.350	-1.330	69.660	-1.800	-1.000																			1580067475.0	1.10	2.04
26/01/2020 19:37:56	26012020	260120	193756	69.650	12.187023	-56.117648	69.700	0.170	0.210	-1.360	69.650	-1.200	-1.000																			1580067476.0	0.97	1.80
26/01/2020 19:37:57	26012020	260120	193757	69.700	12.187027	-56.117652	69.780	-0.340	0.740	-0.990	69.720	-0.700	-0.700																			1580067477.0	0.76	1.41
26/01/2020 19:37:58	26012020	260120	193758	69.810	12.187025	-56.117653	69.920	-0.690	0.800	-0.250	69.840	-0.600	0.000																			1580067478.0	0.58	1.07
26/01/2020 19:37:59	26012020	260120	193759	69.930	12.187020	-56.117653	70.050	-0.770	0.260	0.740	69.940	-1.000	1.000	1013.70	26.30	26.30	21.00	21.10	304.00	72.00	73.00	388.00	29.40	14.00	3.50	86.00	3.30	23638	3297.00	27.80	27.70	1580067479.0	0.92	1.70
26/01/2020 19:38:00	26012020	260120	193800	69.970	12.187015	-56.117650	70.100	-0.630	-0.510	1.690	69.970	-1.800	1.900																			1580067480.0	1.40	2.59
26/01/2020 19:38:01	26012020	260120	193801	69.940	12.187010	-56.117645	70.080	-0.320	-0.980	2.370	69.930	-2.300	2.700																			1580067481.0	1.52	2.82
26/01/2020 19:38:02	26012020	260120	193802	69.850	12.187005	-56.117642	69.960	0.100	-0.950	2.630	69.810	-2.300	3.000																			1580067482.0	1.20	2.22
26/01/2020 19:38:03	26012020	260120	193803	69.640	12.187002	-56.117642	69.720	0.550	-0.690	2.420	69.580	-2.100	2.800																			1580067483.0	0.68	1.26
26/01/2020 19:38:04	26012020	260120	193804	69.380	12.187002	-56.117642	69.470	0.830	-0.400	1.770	69.330	-1.800	2.200																			1580067484.0	0.16	0.30
26/01/2020 19:38:05	26012020	260120	193805	69.200	12.187005	-56.117643	69.280	0.790	-0.070	0.710	69.180	-1.500	1.200																			1580067485.0	0.89	1.65
26/01/2020 19:38:06	26012020	260120	193806	69.130	12.187013	-56.117647	69.200	0.400	0.330	-0.650	69.130	-1.100	-0.200																			1580067486.0	1.67	3.09
26/01/2020 19:38:07	26012020	260120	193807	69.130	12.187022	-56.117650	69.200	-0.150	0.630	-1.900	69.140	-0.800	-1.400																			1580067487.0	2.19	4.06
26/01/2020 19:38:08	26012020	260120	193808	69.240	12.187030	-56.117655	69.290	-0.580	0.630	-2.660	69.270	-0.700	-2.200																			1580067488.0	2.08	3.85
26/01/2020 19:38:09	26012020	260120	193809	69.420	12.187035	-56.117658	69.490	-0.730	0.310	-2.720	69.450	-1.000	-2.400																			1580067489.0	1.23	2.28
26/01/2020 19:38:10	26012020	260120	193810	69.510	12.187037	-56.117657	69.570	-0.650	-0.130	-2.000	69.510	-1.500	-1.700																			1580067490.0	0.09	0.17
26/01/2020 19:38:11	26012020	260120	193811	69.410	12.187032	-56.117655	69.460	-0.450	-0.490	-0.780	69.370	-1.800	-0.600																			1580067491.0	1.18	2.19
26/01/2020 19:38:12	26012020	260120	193812	69.170	12.187023	-56.117652	69.220	-0.180	-0.690	0.540	69.120	-2.100	0.800																			1580067492.0	1.79	3.32
26/01/2020 19:38:13	26012020	260120	193813	68.920	12.187017	-56.117648	69.020	0.140	-0.670	1.550	68.890	-2.100	1.800																			1580067493.0	1.68	3.11
26/01/2020 19:38:14	26012020	260120	193814	68.820	12.187012	-56.117647	68.960	0.430	-0.500	2.000	68.830	-1.900	2.300																			1580067494.0	1.07	1.98
26/01/2020 19:38:15	26012020	260120	193815	68.910	12.187010	-56.117648	69.070	0.610	-0.260	1.890	68.950	-1.700	2.300																			1580067495.0	0.31	0.57
26/01/2020 19:38:16	26012020	260120	193816	69.080	12.187012	-56.117648	69.210	0.590	-0.020	1.380	69.100	-1.400	1.800																			1580067496.0	0.42	0.78
26/01/2020 19:38:17	26012020	260120	193817	69.150	12.187015	-56.117650	69.250	0.350	0.180	0.720	69.150	-1.200	1.100																			1580067497.0	0.83	1.54
26/01/2020 19:38:18	26012020	260120	193818	69.110	12.187018	-56.117653	69.180	0.000	0.260	0.080	69.090	-1.100	0.500																			1580067498.0	0.97	1.80
26/01/2020 19:38:19	26012020	260120	193819	69.030	12.187023	-56.117653	69.100	-0.300	0.120	-0.460	69.020	-1.300	-0.100																			1580067499.0	0.86	1.59
26/01/2020 19:38:20	26012020	260120	193820	69.010	12.187025	-56.117655	69.070	-0.450	-0.170	-0.880	69.010	-1.500	-0.500																			1580067500.0	0.64	1.19
26/01/2020 19:38:21	26012020	260120	193821	69.030	12.187027	-56.117653	69.100	-0.440	-0.350	-1.090	69.030	-1.700	-0.700																			1580067501.0	0.44	0.81
26/01/2020 19:38:22	26012020	260120	193822	69.030	12.187028	-56.117653	69.100	-0.370	-0.230	-1.060	69.030	-1.600	-0.700																			1580067502.0	0.22	0.41
26/01/2020 19:38:23	26012020	260120	193823	69.020	12.187027	-56.117652	69.100	-0.250	-0.030	-0.910	69.030	-1.400	-0.600																			1580067503.0	0.34	0.63
26/01/2020 19:38:24	26012020	260120	193824	69.100	12.187023	-56.117653	69.200	-0.070	0.090	-0.750	69.130	-1.300	-0.400																			1580067504.0	0.41	0.76
26/01/2020 19:38:25	26012020	260120	193825	69.240	12.187023	-56.117653	69.330	0.140	0.110	-0.540	69.260	-1.300	-0.200																			1580067505.0	0.23	0.43
26/01/2020 19:38:26	26012020	260120	193826	69.330	12.187023	-56.117653	69.410	0.290	0.120	-0.260	69.340	-1.300	0.100																			1580067506.0	0.07	0.13
26/01/2020 19:38:27	26012020	260120	193827	69.320	12.187023	-56.117653	69.410	0.360	0.020	0.110	69.320	-1.300	0.400																			1580067507.0	0.15	0.28
26/01/2020 19:38:28	26012020	260120	193828	69.280	12.187023	-56.117655	69.360	0.370	-0.340	0.510	69.260	-1.700	0.800																			1580067508.0	0.11	0.20
26/01/2020 19:38:29	26012020	260120	193829	69.220	12.187022	-56.117653	69.290	0.350	-0.870	0.980	69.200	-2.200	1.300																			1580067509.0	0.23	0.43
26/01/2020 19:38:30	26012020	260120	193830	69.070	12.187022	-56.117650	69.160	0.240	-1.090	1.530	69.040	-2.500	1.800																			1580067510.0	0.65	1.20
26/01/2020 19:38:31	26012020	260120	193831	68.950	12.187020	-56.117647	69.070	-0.020	-0.670	1.900	68.930	-2.100	2.200																			1580067511.0	0.82	1.52
26/01/2020 19:38:32	26012020	260120	193832	68.900	12.187017	-56.117647	69.020	-0.370	0.150	1.840	68.900	-1.300	2.200																			1580067512.0	0.79	1.46
26/01/2020 19:38:33	26012020	260120	193833	68.930	12.187013	-56.117647	69.070	-0.640	0.840	1.250	68.960	-0.600	1.700																			1580067513.0	0.70	1.30
26/01/2020 19:38:34	26012020	260120	193834	69.080	12.187013	-56.117650	69.200	-0.610	1.010	0.280	69.110	-0.400	0.700																			1580067514.0	0.56	1.04
26/01/2020 19:38:35	26012020	260120	193835	69.260	12.187017	-56.117652	69.350	-0.260	0.600	-0.840	69.290	-0.700	-0.400																			1580067515.0	0.82	1.52
26/01/2020 19:38:36	26012020	260120	193836	69.410	12.187022	-56.117653	69.480	0.230	-0.140	-1.850	69.440	-1.400	-1.400																			1580067516.0	1.21	2.24
26/01/2020 19:38:37	26012020	260120	193837	69.500	12.187028	-56.117653	69.540	0.560	-0.710	-2.460	69.500	-2.100	-2.100																			1580067517.0	1.44	2.67
26/01/2020 19:38:38	26012020	260120	193838	69.470	12.187035	-56.117653	69.490	0.530	-0.770	-2.440	69.450	-2.200	-2.100																			1580067518.0	1.16	2.15
26/01/2020 19:38:39	26012020	260120	193839	69.340	12.187037	-56.117653	69.380	0.240	-0.470	-1.890	69.310	-1.900	-1.500																			1580067519.0	0.48	0.89
26/01/2020 19:38:40	26012020	260120	193840	69.200	12.187035	-56.117655	69.260	-0.160	-0.120	-0.720	69.180	-1.500	-0.500																			1580067520.0	0.57	1.06
26/01/2020 19:38:41	26012020	260120	193841	69.090	12.187030	-56.117657	69.190	-0.280	-0.150	0.560	69.080	-1.500	0.800																			1580067521.0	1.03	1.91
26/01/2020 19:38:42	26012020	260120	193842	69.060	12.187023	-56.117653	69.190	-0.150	-0.420	1.790	69.060	-1.800	2.000																			1580067522.0	1.41	2.61
26/01/2020 19:38:43	26012020	260120	193843	69.080	12.187017	-56.117648	69.240	-0.010	-0.520	2.720	69.090	-1.900	3.000																			1580067523.0	1.68	3.11
26/01/2020 19:38:44	26012020	260120	193844	69.130	12.187012	-56.117645	69.290	-0.010	-0.210	3.050	69.130	-1.600	3.400																			1580067524.0	1.53	2.83
26/01/2020 19:38:45	26012020	260120	193845	69.190	12.187007	-56.117643	69.350	-0.060	0.250	2.640	69.200	-1.200	3.000																			1580067525.0	0.89	1.65
26/01/2020 19:38:46	26012020	260120	193846	69.280	12.187007	-56.117645	69.420	0.030	0.490	1.640	69.300	-0.900	2.100																			1580067526.0	0.34	0.63
26/01/2020 19:38:47	26012020	260120	193847	69.390	12.187010	-56.117647	69.490	0.260	0.320	0.280	69.410	-1.000	0.800																			1580067527.0	0.93	1.72
26/01/2020 19:38:48	26012020	260120	193848	69.510	12.187018	-56.117650	69.580	0.410	-0.010	-1.170	69.530	-1.400	-0.700																			1580067528.0	1.60	2.96
26/01/2020 19:38:49	26012020	260120	193849	69.610	12.187027	-56.117652	69.680	0.310	-0.180	-2.320	69.630	-1.600	-1.900																			1580067529.0	1.98	3.67
26/01/2020 19:38:50	26012020	260120	193850	69.650	12.187035	-56.117653	69.690	-0.010	-0.160	-2.850	69.650	-1.600	-2.500																			1580067530.0	1.74	3.22
26/01/2020 19:38:51	26012020	260120	193851	69.620	12.187038	-56.117657	69.640	-0.340	-0.090	-2.640	69.600	-1.500	-2.300																			1580067531.0	1.05	1.94
26/01/2020 19:38:52	26012020	260120	193852	69.500	12.187038	-56.117658	69.540	-0.490	-0.160	-1.750	69.470	-1.500	-1.500																			1580067532.0	0.37	0.69
26/01/2020 19:38:53	26012020	260120	193853	69.370	12.187033	-56.117658	69.460	-0.360	-0.430	-0.460	69.360	-1.800	-0.200																			1580067533.0	0.92	1.70
26/01/2020 19:38:54	26012020	260120	193854	69.340	12.187027	-56.117655	69.460	-0.030	-0.730	0.910	69.340	-2.100	1.100																			1580067534.0	1.61	2.98
26/01/2020 19:38:55	26012020	260120	193855	69.380	12.187020	-56.117650	69.570	0.250	-0.750	2.010	69.400	-2.100	2.300																			1580067535.0	1.92	3.56
26/01/2020 19:38:56	26012020	260120	193856	69.540	12.187012	-56.117647	69.730	0.330	-0.360	2.580	69.570	-1.800	2.900																			1580067536.0	1.68	3.11
26/01/2020 19:38:57	26012020	260120	193857	69.670	12.187008	-56.117645	69.890	0.230	0.210	2.490	69.700	-1.200	2.900																			1580067537.0	0.99	1.83
26/01/2020 19:38:58	26012020	260120	193858	69.800	12.187007	-56.117647	69.960	0.100	0.570	1.850	69.810	-0.800	2.300																			1580067538.0	0.37	0.69
26/01/2020 19:38:59	26012020	260120	193859	69.850	12.187010	-56.117650	69.970	0.020	0.550	0.900	69.860	-0.800	1.400	1013.70	26.30	26.30	21.10	21.20	383.00	73.00	73.00	389.00	29.40	14.00	3.50	85.00	3.00	25855	3448.00	27.80	27.70	1580067539.0	0.89	1.65
26/01/2020 19:39:00	26012020	260120	193900	69.840	12.187017	-56.117652	69.920	-0.010	0.270	0.020	69.820	-1.100	0.400																			1580067540.0	1.30	2.41
26/01/2020 19:39:01	26012020	260120	193901	69.750	12.187022	-56.117653	69.800	-0.060	-0.190	-0.920	69.740	-1.500	-0.500																			1580067541.0	1.34	2.48
26/01/2020 19:39:02	26012020	260120	193902	69.710	12.187027	-56.117655	69.770	-0.130	-0.510	-1.550	69.720	-1.900	-1.100																			1580067542.0	1.11	2.06
26/01/2020 19:39:03	26012020	260120	193903	69.810	12.187030	-56.117655	69.880	-0.180	-0.560	-1.840	69.840	-2.000	-1.500																			1580067543.0	0.74	1.37
26/01/2020 19:39:04	26012020	260120	193904	69.960	12.187032	-56.117655	70.020	-0.190	-0.330	-1.740	69.980	-1.700	-1.400																			1580067544.0	0.21	0.39
26/01/2020 19:39:05	26012020	260120	193905	70.050	12.187030	-56.117655	70.120	-0.170	-0.020	-1.320	70.060	-1.400	-1.000																			1580067545.0	0.39	0.72
26/01/2020 19:39:06	26012020	260120	193906	70.100	12.187027	-56.117657	70.160	-0.090	0.180	-0.680	70.100	-1.200	-0.400																			1580067546.0	0.70	1.30
26/01/2020 19:39:07	26012020	260120	193907	70.110	12.187023	-56.117657	70.190	0.080	0.100	0.130	70.100	-1.300	0.400																			1580067547.0	0.79	1.46
26/01/2020 19:39:08	26012020	260120	193908	70.080	12.187020	-56.117655	70.170	0.300	-0.230	0.980	70.070	-1.600	1.200																			1580067548.0	0.82	1.52
26/01/2020 19:39:09	26012020	260120	193909	70.040	12.187017	-56.117653	70.150	0.460	-0.600	1.680	70.030	-1.900	2.000																			1580067549.0	0.85	1.57
26/01/2020 19:39:10	26012020	260120	193910	70.040	12.187013	-56.117650	70.160	0.460	-0.740	2.050	70.040	-2.100	2.400																			1580067550.0	0.76	1.41
26/01/2020 19:39:11	26012020	260120	193911	70.060	12.187013	-56.117648	70.190	0.230	-0.450	2.050	70.070	-1.900	2.400																			1580067551.0	0.45	0.83
26/01/2020 19:39:12	26012020	260120	193912	70.080	12.187013	-56.117648	70.200	-0.130	0.180	1.740	70.080	-1.300	2.100																			1580067552.0	0.06	0.11
26/01/2020 19:39:13	26012020	260120	193913	70.090	12.187013	-56.117652	70.190	-0.470	0.780	1.140	70.090	-0.600	1.600																			1580067553.0	0.55	1.02
26/01/2020 19:39:14	26012020	260120	193914	70.140	12.187015	-56.117655	70.250	-0.620	0.840	0.310	70.160	-0.500	0.800																			1580067554.0	0.79	1.46
26/01/2020 19:39:15	26012020	260120	193915	70.300	12.187018	-56.117657	70.380	-0.520	0.360	-0.540	70.330	-1.000	-0.200																			1580067555.0	0.80	1.48
26/01/2020 19:39:16	26012020	260120	193916	70.480	12.187022	-56.117657	70.570	-0.210	-0.460	-1.410	70.520	-1.800	-1.000																			1580067556.0	0.92	1.70
26/01/2020 19:39:17	26012020	260120	193917	70.630	12.187025	-56.117655	70.700	0.080	-0.870	-1.860	70.650	-2.200	-1.500																			1580067557.0	0.90	1.67
26/01/2020 19:39:18	26012020	260120	193918	70.690	12.187028	-56.117655	70.740	0.270	-0.790	-1.850	70.690	-2.200	-1.500																			1580067558.0	0.46	0.85
26/01/2020 19:39:19	26012020	260120	193919	70.620	12.187027	-56.117657	70.640	0.360	-0.420	-1.400	70.590	-1.800	-1.100																			1580067559.0	0.22	0.41
26/01/2020 19:39:20	26012020	260120	193920	70.460	12.187025	-56.117657	70.520	0.360	-0.090	-0.740	70.430	-1.500	-0.400																			1580067560.0	0.58	1.07
26/01/2020 19:39:21	26012020	260120	193921	70.350	12.187022	-56.117658	70.420	0.330	0.050	0.090	70.320	-1.300	0.400																			1580067561.0	0.63	1.17
26/01/2020 19:39:22	26012020	260120	193922	70.320	12.187020	-56.117657	70.450	0.250	-0.100	0.880	70.330	-1.500	1.200																			1580067562.0	0.54	1.00
26/01/2020 19:39:23	26012020	260120	193923	70.410	12.187018	-56.117655	70.550	0.120	-0.230	1.420	70.420	-1.600	1.700																			1580067563.0	0.58	1.07
26/01/2020 19:39:24	26012020	260120	193924	70.480	12.187017	-56.117653	70.630	-0.100	-0.080	1.830	70.490	-1.500	2.100																			1580067564.0	0.61	1.13
26/01/2020 19:39:25	26012020	260120	193925	70.540	12.187013	-56.117652	70.700	-0.360	0.280	2.030	70.550	-1.100	2.400																			1580067565.0	0.62	1.15
26/01/2020 19:39:26	26012020	260120	193926	70.630	12.187010	-56.117653	70.780	-0.520	0.470	1.870	70.660	-0.900	2.200																			1580067566.0	0.68	1.26
26/01/2020 19:39:27	26012020	260120	193927	70.800	12.187008	-56.117655	70.950	-0.490	0.280	1.190	70.840	-1.100	1.600																			1580067567.0	0.41	0.76
26/01/2020 19:39:28	26012020	260120	193928	70.990	12.187010	-56.117655	71.110	-0.250	-0.170	0.290	71.020	-1.500	0.700																			1580067568.0	0.31	0.57
26/01/2020 19:39:29	26012020	260120	193929	71.090	12.187013	-56.117655	71.170	0.060	-0.530	-0.600	71.100	-1.900	-0.200																			1580067569.0	0.80	1.48
26/01/2020 19:39:30	26012020	260120	193930	71.080	12.187018	-56.117655	71.130	0.260	-0.560	-1.230	71.070	-2.000	-0.900																			1580067570.0	0.94	1.74
26/01/2020 19:39:31	26012020	260120	193931	70.990	12.187022	-56.117657	71.040	0.310	-0.380	-1.620	70.970	-1.800	-1.300																			1580067571.0	0.90	1.67
26/01/2020 19:39:32	26012020	260120	193932	70.870	12.187025	-56.117660	70.890	0.210	-0.240	-1.590	70.840	-1.600	-1.300																			1580067572.0	0.74	1.37
26/01/2020 19:39:33	26012020	260120	193933	70.730	12.187025	-56.117662	70.760	0.100	-0.270	-1.160	70.700	-1.700	-0.900																			1580067573.0	0.33	0.61
26/01/2020 19:39:34	26012020	260120	193934	70.640	12.187025	-56.117660	70.700	0.020	-0.300	-0.580	70.630	-1.700	-0.200																			1580067574.0	0.22	0.41
26/01/2020 19:39:35	26012020	260120	193935	70.680	12.187022	-56.117658	70.780	-0.040	-0.190	0.070	70.710	-1.600	0.400																			1580067575.0	0.62	1.15
26/01/2020 19:39:36	26012020	260120	193936	70.860	12.187018	-56.117657	70.990	-0.050	0.050	0.630	70.910	-1.300	1.000																			1580067576.0	0.85	1.57
26/01/2020 19:39:37	26012020	260120	193937	71.100	12.187015	-56.117657	71.230	-0.030	0.280	1.100	71.140	-1.100	1.400																			1580067577.0	0.94	1.74
26/01/2020 19:39:38	26012020	260120	193938	71.270	12.187010	-56.117655	71.410	0.020	0.370	1.470	71.290	-1.000	1.800																			1580067578.0	0.85	1.57
26/01/2020 19:39:39	26012020	260120	193939	71.280	12.187008	-56.117655	71.380	0.040	0.220	1.570	71.260	-1.100	1.900																			1580067579.0	0.59	1.09
26/01/2020 19:39:40	26012020	260120	193940	71.150	12.187007	-56.117655	71.230	0.010	-0.100	1.390	71.130	-1.500	1.700																			1580067580.0	0.11	0.20
26/01/2020 19:39:41	26012020	260120	193941	71.040	12.187010	-56.117655	71.120	-0.040	-0.520	0.960	71.020	-1.900	1.300																			1580067581.0	0.38	0.70
26/01/2020 19:39:42	26012020	260120	193942	70.990	12.187012	-56.117655	71.070	-0.090	-0.690	0.490	70.990	-2.100	0.800																			1580067582.0	0.60	1.11
26/01/2020 19:39:43	26012020	260120	193943	70.970	12.187013	-56.117655	71.040	-0.170	-0.370	0.060	70.970	-1.700	0.400																			1580067583.0	0.46	0.85
26/01/2020 19:39:44	26012020	260120	193944	70.960	12.187015	-56.117657	71.030	-0.250	0.170	-0.390	70.960	-1.200	-0.000																			1580067584.0	0.49	0.91
26/01/2020 19:39:45	26012020	260120	193945	70.990	12.187015	-56.117660	71.070	-0.200	0.330	-0.890	71.010	-1.100	-0.500																			1580067585.0	0.71	1.31
26/01/2020 19:39:46	26012020	260120	193946	71.100	12.187018	-56.117662	71.160	0.040	-0.030	-1.280	71.120	-1.400	-0.900																			1580067586.0	0.60	1.11
26/01/2020 19:39:47	26012020	260120	193947	71.170	12.187020	-56.117662	71.240	0.330	-0.530	-1.350	71.180	-1.900	-1.000																			1580067587.0	0.63	1.17
26/01/2020 19:39:48	26012020	260120	193948	71.180	12.187022	-56.117660	71.240	0.450	-0.730	-1.030	71.160	-2.100	-0.700																			1580067588.0	0.58	1.07
26/01/2020 19:39:49	26012020	260120	193949	71.070	12.187022	-56.117658	71.150	0.290	-0.510	-0.320	71.040	-1.900	0.000																			1580067589.0	0.38	0.70
26/01/2020 19:39:50	26012020	260120	193950	70.920	12.187018	-56.117657	71.020	-0.020	-0.060	0.570	70.900	-1.400	0.900																			1580067590.0	0.79	1.46
26/01/2020 19:39:51	26012020	260120	193951	70.820	12.187013	-56.117657	70.940	-0.280	0.350	1.310	70.810	-1.000	1.600																			1580067591.0	1.15	2.13
26/01/2020 19:39:52	26012020	260120	193952	70.850	12.187008	-56.117657	70.990	-0.380	0.550	1.680	70.870	-0.800	2.000																			1580067592.0	1.08	2.00
26/01/2020 19:39:53	26012020	260120	193953	71.010	12.187005	-56.117657	71.150	-0.310	0.470	1.610	71.050	-0.900	1.900																			1580067593.0	0.66	1.22
26/01/2020 19:39:54	26012020	260120	193954	71.190	12.187003	-56.117657	71.300	-0.130	0.210	1.220	71.210	-1.200	1.600																			1580067594.0	0.13	0.24
26/01/2020 19:39:55	26012020	260120	193955	71.240	12.187005	-56.117657	71.320	0.070	-0.130	0.650	71.240	-1.500	1.000																			1580067595.0	0.36	0.67
26/01/2020 19:39:56	26012020	260120	193956	71.170	12.187008	-56.117658	71.240	0.220	-0.500	0.020	71.150	-1.900	0.400																			1580067596.0	0.74	1.37
26/01/2020 19:39:57	26012020	260120	193957	71.070	12.187013	-56.117660	71.140	0.310	-0.810	-0.520	71.050	-2.200	-0.200																			1580067597.0	0.96	1.78
26/01/2020 19:39:58	26012020	260120	193958	71.020	12.187017	-56.117660	71.080	0.290	-0.920	-0.850	71.010	-2.300	-0.500																			1580067598.0	0.95	1.76
26/01/2020 19:39:59	26012020	260120	193959	71.020	12.187020	-56.117660	71.090	0.130	-0.680	-0.860	71.020	-2.100	-0.500	1013.70	26.30	26.30	21.10	21.10	398.00	72.00	73.00	391.00	29.40	6.00	3.60	77.00	3.30	26184	3439.00	27.80	27.70	1580067599.0	0.59	1.09
26/01/2020 19:40:00	26012020	260120	194000	71.050	12.187020	-56.117662	71.140	-0.090	-0.180	-0.570	71.060	-1.600	-0.200																			1580067600.0	0.10	0.19
26/01/2020 19:40:01	26012020	260120	194001	71.070	12.187017	-56.117662	71.150	-0.280	0.310	-0.120	71.050	-1.100	0.200																			1580067601.0	0.63	1.17
26/01/2020 19:40:02	26012020	260120	194002	70.990	12.187013	-56.117662	71.090	-0.340	0.600	0.380	70.980	-0.800	0.700																			1580067602.0	0.97	1.80
26/01/2020 19:40:03	26012020	260120	194003	70.910	12.187008	-56.117660	71.000	-0.250	0.590	0.770	70.900	-0.800	1.100																			1580067603.0	1.01	1.87
26/01/2020 19:40:04	26012020	260120	194004	70.910	12.187005	-56.117658	71.020	-0.080	0.320	0.900	70.930	-1.100	1.200																			1580067604.0	0.70	1.30
26/01/2020 19:40:05	26012020	260120	194005	71.070	12.187005	-56.117658	71.190	0.110	-0.090	0.730	71.110	-1.500	1.100																			1580067605.0	0.19	0.35
26/01/2020 19:40:06	26012020	260120	194006	71.270	12.187007	-56.117658	71.380	0.230	-0.410	0.310	71.300	-1.800	0.700																			1580067606.0	0.44	0.81
26/01/2020 19:40:07	26012020	260120	194007	71.360	12.187010	-56.117658	71.430	0.230	-0.500	-0.060	71.350	-1.900	0.300																			1580067607.0	0.75	1.39
26/01/2020 19:40:08	26012020	260120	194008	71.240	12.187013	-56.117662	71.300	0.120	-0.430	-0.140	71.190	-1.800	0.200																			1580067608.0	0.73	1.35
26/01/2020 19:40:09	26012020	260120	194009	71.050	12.187013	-56.117663	71.060	-0.010	-0.400	0.090	71.000	-1.800	0.400																			1580067609.0	0.40	0.74
26/01/2020 19:40:10	26012020	260120	194010	70.790	12.187013	-56.117663	70.870	-0.100	-0.420	0.440	70.760	-1.800	0.800																			1580067610.0	0.21	0.39
26/01/2020 19:40:11	26012020	260120	194011	70.700	12.187010	-56.117662	70.780	-0.160	-0.360	0.680	70.690	-1.700	1.000																			1580067611.0	0.49	0.91
26/01/2020 19:40:12	26012020	260120	194012	70.710	12.187008	-56.117660	70.820	-0.160	-0.130	0.650	70.730	-1.500	1.000																			1580067612.0	0.50	0.93
26/01/2020 19:40:13	26012020	260120	194013	70.860	12.187008	-56.117660	70.970	-0.060	0.140	0.340	70.900	-1.300	0.700																			1580067613.0	0.27	0.50
26/01/2020 19:40:14	26012020	260120	194014	71.050	12.187008	-56.117662	71.150	0.110	0.310	-0.060	71.090	-1.100	0.300																			1580067614.0	0.15	0.28
26/01/2020 19:40:15	26012020	260120	194015	71.240	12.187008	-56.117662	71.320	0.250	0.310	-0.410	71.270	-1.100	-0.100																			1580067615.0	0.35	0.65
26/01/2020 19:40:16	26012020	260120	194016	71.370	12.187012	-56.117663	71.450	0.270	0.140	-0.640	71.400	-1.200	-0.300																			1580067616.0	0.47	0.87
26/01/2020 19:40:17	26012020	260120	194017	71.430	12.187013	-56.117663	71.500	0.190	-0.140	-0.640	71.420	-1.500	-0.300																			1580067617.0	0.49	0.91
26/01/2020 19:40:18	26012020	260120	194018	71.310	12.187015	-56.117663	71.380	0.010	-0.370	-0.280	71.260	-1.800	0.100																			1580067618.0	0.25	0.46
26/01/2020 19:40:19	26012020	260120	194019	71.030	12.187013	-56.117663	71.100	-0.230	-0.460	0.380	70.970	-1.800	0.700																			1580067619.0	0.26	0.48
26/01/2020 19:40:20	26012020	260120	194020	70.720	12.187010	-56.117663	70.810	-0.480	-0.380	1.080	70.680	-1.800	1.400																			1580067620.0	0.71	1.31
26/01/2020 19:40:21	26012020	260120	194021	70.550	12.187007	-56.117662	70.670	-0.600	-0.210	1.530	70.550	-1.600	1.900																			1580067621.0	0.91	1.69
26/01/2020 19:40:22	26012020	260120	194022	70.610	12.187002	-56.117662	70.730	-0.500	-0.050	1.540	70.640	-1.400	1.900																			1580067622.0	0.78	1.44
26/01/2020 19:40:23	26012020	260120	194023	70.780	12.187000	-56.117662	70.950	-0.160	0.020	1.090	70.830	-1.400	1.400																			1580067623.0	0.38	0.70
26/01/2020 19:40:24	26012020	260120	194024	71.140	12.187002	-56.117662	71.230	0.300	0.010	0.310	71.210	-1.400	0.700																			1580067624.0	0.19	0.35
26/01/2020 19:40:25	26012020	260120	194025	71.380	12.187005	-56.117663	71.490	0.680	-0.080	-0.550	71.430	-1.500	-0.200																			1580067625.0	0.73	1.35
26/01/2020 19:40:26	26012020	260120	194026	71.520	12.187010	-56.117665	71.550	0.820	-0.200	-1.120	71.500	-1.600	-0.800																			1580067626.0	1.06	1.96
26/01/2020 19:40:27	26012020	260120	194027	71.310	12.187013	-56.117665	71.340	0.670	-0.280	-1.220	71.250	-1.700	-0.900																			1580067627.0	1.03	1.91
26/01/2020 19:40:28	26012020	260120	194028	71.000	12.187017	-56.117667	71.040	0.290	-0.280	-0.920	70.940	-1.700	-0.600																			1580067628.0	0.69	1.28
26/01/2020 19:40:29	26012020	260120	194029	70.820	12.187018	-56.117667	70.890	-0.150	-0.210	-0.380	70.800	-1.600	-0.000																			1580067629.0	0.19	0.35
26/01/2020 19:40:30	26012020	260120	194030	70.810	12.187017	-56.117667	70.910	-0.520	-0.100	0.350	70.820	-1.500	0.700																			1580067630.0	0.43	0.80
26/01/2020 19:40:31	26012020	260120	194031	70.900	12.187012	-56.117665	71.030	-0.720	0.020	1.070	70.930	-1.400	1.400																			1580067631.0	1.03	1.91
26/01/2020 19:40:32	26012020	260120	194032	71.020	12.187005	-56.117663	71.160	-0.700	0.050	1.580	71.040	-1.300	1.900																			1580067632.0	1.32	2.44
26/01/2020 19:40:33	26012020	260120	194033	71.090	12.187000	-56.117662	71.220	-0.490	0.040	1.770	71.100	-1.300	2.100																			1580067633.0	1.17	2.17
26/01/2020 19:40:34	26012020	260120	194034	71.130	12.186997	-56.117662	71.250	-0.170	0.080	1.570	71.140	-1.300	1.900																			1580067634.0	0.71	1.31
26/01/2020 19:40:35	26012020	260120	194035	71.160	12.186997	-56.117662	71.260	0.170	0.160	0.980	71.170	-1.200	1.300																			1580067635.0	0.13	0.24
26/01/2020 19:40:36	26012020	260120	194036	71.220	12.187000	-56.117663	71.300	0.470	0.050	0.080	71.240	-1.300	0.400																			1580067636.0	0.71	1.31
26/01/2020 19:40:37	26012020	260120	194037	71.320	12.187005	-56.117667	71.400	0.680	-0.380	-0.900	71.350	-1.800	-0.500																			1580067637.0	1.27	2.35
26/01/2020 19:40:38	26012020	260120	194038	71.430	12.187012	-56.117667	71.460	0.730	-0.860	-1.570	71.430	-2.300	-1.200																			1580067638.0	1.61	2.98
26/01/2020 19:40:39	26012020	260120	194039	71.370	12.187018	-56.117668	71.400	0.530	-0.910	-1.690	71.350	-2.300	-1.300																			1580067639.0	1.41	2.61
26/01/2020 19:40:40	26012020	260120	194040	71.180	12.187022	-56.117668	71.210	0.080	-0.440	-1.200	71.140	-1.800	-0.800																			1580067640.0	0.64	1.19
26/01/2020 19:40:41	26012020	260120	194041	71.000	12.187020	-56.117670	71.060	-0.460	0.240	-0.350	70.980	-1.200	0.000																			1580067641.0	0.49	0.91
26/01/2020 19:40:42	26012020	260120	194042	70.980	12.187013	-56.117670	71.080	-0.830	0.650	0.580	71.000	-0.700	0.900																			1580067642.0	1.23	2.28
26/01/2020 19:40:43	26012020	260120	194043	71.160	12.187007	-56.117668	71.290	-0.840	0.550	1.320	71.210	-0.800	1.700																			1580067643.0	1.53	2.83
26/01/2020 19:40:44	26012020	260120	194044	71.450	12.187000	-56.117667	71.590	-0.470	0.080	1.670	71.510	-1.300	2.000																			1580067644.0	1.45	2.69
26/01/2020 19:40:45	26012020	260120	194045	71.720	12.186997	-56.117663	71.840	0.100	-0.410	1.610	71.760	-1.800	1.900																			1580067645.0	1.08	2.00
26/01/2020 19:40:46	26012020	260120	194046	71.840	12.186997	-56.117660	71.920	0.540	-0.570	1.230	71.830	-2.000	1.600																			1580067646.0	0.51	0.94
26/01/2020 19:40:47	26012020	260120	194047	71.740	12.186998	-56.117660	71.790	0.660	-0.350	0.710	71.690	-1.700	1.100																			1580067647.0	0.39	0.72
26/01/2020 19:40:48	26012020	260120	194048	71.490	12.187002	-56.117663	71.520	0.460	0.030	0.150	71.440	-1.400	0.500																			1580067648.0	1.00	1.85
26/01/2020 19:40:49	26012020	260120	194049	71.330	12.187007	-56.117668	71.340	0.150	0.250	-0.470	71.310	-1.100	-0.100																			1580067649.0	1.37	2.54
26/01/2020 19:40:50	26012020	260120	194050	71.340	12.187012	-56.117672	71.390	-0.080	0.110	-1.030	71.370	-1.300	-0.700																			1580067650.0	1.40	2.59
26/01/2020 19:40:51	26012020	260120	194051	71.530	12.187017	-56.117673	71.600	-0.150	-0.240	-1.310	71.580	-1.600	-0.900																			1580067651.0	1.03	1.91
26/01/2020 19:40:52	26012020	260120	194052	71.710	12.187018	-56.117672	71.780	-0.170	-0.450	-1.130	71.740	-1.800	-0.800																			1580067652.0	0.42	0.78
26/01/2020 19:40:53	26012020	260120	194053	71.740	12.187017	-56.117670	71.800	-0.230	-0.400	-0.550	71.720	-1.800	-0.200																			1580067653.0	0.53	0.98
26/01/2020 19:40:54	26012020	260120	194054	71.600	12.187012	-56.117670	71.670	-0.280	-0.260	0.220	71.560	-1.700	0.600																			1580067654.0	1.12	2.07
26/01/2020 19:40:55	26012020	260120	194055	71.440	12.187005	-56.117668	71.530	-0.220	-0.200	0.890	71.420	-1.600	1.200																			1580067655.0	1.27	2.35
26/01/2020 19:40:56	26012020	260120	194056	71.400	12.187002	-56.117667	71.510	-0.010	-0.150	1.210	71.400	-1.500	1.600																			1580067656.0	0.97	1.80
26/01/2020 19:40:57	26012020	260120	194057	71.450	12.187000	-56.117665	71.560	0.230	-0.040	1.150	71.470	-1.400	1.500																			1580067657.0	0.43	0.80
26/01/2020 19:40:58	26012020	260120	194058	71.520	12.187000	-56.117665	71.610	0.360	0.080	0.820	71.520	-1.300	1.200																			1580067658.0	0.12	0.22
26/01/2020 19:40:59	26012020	260120	194059	71.520	12.187002	-56.117667	71.570	0.340	0.130	0.380	71.500	-1.300	0.700	1013.70	26.30	26.30	21.00	21.10	393.00	72.00	73.00	393.00	29.40	12.00	4.10	85.00	3.80	25962	3235.00	27.80	27.80	1580067659.0	0.56	1.04
26/01/2020 19:41:00	26012020	260120	194100	71.410	12.187007	-56.117668	71.470	0.180	0.060	-0.050	71.400	-1.300	0.300																			1580067660.0	0.79	1.46
26/01/2020 19:41:01	26012020	260120	194101	71.360	12.187010	-56.117670	71.420	-0.040	-0.060	-0.420	71.370	-1.400	-0.100																			1580067661.0	0.82	1.52
26/01/2020 19:41:02	26012020	260120	194102	71.430	12.187012	-56.117670	71.500	-0.200	-0.110	-0.650	71.460	-1.500	-0.300																			1580067662.0	0.62	1.15
26/01/2020 19:41:03	26012020	260120	194103	71.550	12.187013	-56.117672	71.620	-0.250	-0.110	-0.680	71.570	-1.500	-0.300																			1580067663.0	0.29	0.54
26/01/2020 19:41:04	26012020	260120	194104	71.600	12.187012	-56.117672	71.670	-0.170	-0.140	-0.480	71.600	-1.500	-0.100																			1580067664.0	0.21	0.39
26/01/2020 19:41:05	26012020	260120	194105	71.550	12.187010	-56.117672	71.620	-0.030	-0.270	-0.100	71.540	-1.700	0.200																			1580067665.0	0.45	0.83
26/01/2020 19:41:06	26012020	260120	194106	71.430	12.187008	-56.117670	71.510	0.100	-0.430	0.320	71.410	-1.800	0.700																			1580067666.0	0.56	1.04
26/01/2020 19:41:07	26012020	260120	194107	71.290	12.187007	-56.117670	71.370	0.140	-0.490	0.720	71.270	-1.900	1.100																			1580067667.0	0.53	0.98
26/01/2020 19:41:08	26012020	260120	194108	71.250	12.187005	-56.117668	71.350	0.100	-0.390	0.980	71.260	-1.800	1.300																			1580067668.0	0.40	0.74
26/01/2020 19:41:09	26012020	260120	194109	71.330	12.187003	-56.117668	71.440	0.020	-0.220	1.000	71.350	-1.600	1.400																			1580067669.0	0.27	0.50
26/01/2020 19:41:10	26012020	260120	194110	71.380	12.187002	-56.117668	71.470	-0.060	0.020	0.860	71.380	-1.400	1.200																			1580067670.0	0.16	0.30
26/01/2020 19:41:11	26012020	260120	194111	71.320	12.187002	-56.117668	71.400	-0.090	0.280	0.660	71.300	-1.100	1.000																			1580067671.0	0.10	0.19
26/01/2020 19:41:12	26012020	260120	194112	71.220	12.187002	-56.117668	71.310	-0.060	0.450	0.360	71.210	-0.900	0.700																			1580067672.0	0.20	0.37
26/01/2020 19:41:13	26012020	260120	194113	71.180	12.187003	-56.117670	71.260	-0.000	0.400	-0.120	71.180	-1.000	0.200																			1580067673.0	0.43	0.80
26/01/2020 19:41:14	26012020	260120	194114	71.270	12.187007	-56.117672	71.330	0.070	0.110	-0.710	71.300	-1.300	-0.400																			1580067674.0	0.76	1.41
26/01/2020 19:41:15	26012020	260120	194115	71.440	12.187012	-56.117673	71.510	0.130	-0.320	-1.190	71.480	-1.700	-0.800																			1580067675.0	0.96	1.78
26/01/2020 19:41:16	26012020	260120	194116	71.570	12.187015	-56.117673	71.630	0.140	-0.690	-1.250	71.580	-2.100	-0.900																			1580067676.0	0.85	1.57
26/01/2020 19:41:17	26012020	260120	194117	71.540	12.187017	-56.117673	71.590	0.070	-0.840	-0.740	71.520	-2.200	-0.400																			1580067677.0	0.29	0.54
26/01/2020 19:41:18	26012020	260120	194118	71.400	12.187013	-56.117672	71.470	-0.070	-0.690	0.140	71.360	-2.100	0.500																			1580067678.0	0.62	1.15
26/01/2020 19:41:19	26012020	260120	194119	71.220	12.187008	-56.117670	71.320	-0.230	-0.300	1.040	71.190	-1.700	1.400																			1580067679.0	1.22	2.26
26/01/2020 19:41:20	26012020	260120	194120	71.130	12.187002	-56.117668	71.250	-0.280	0.140	1.610	71.120	-1.300	2.000																			1580067680.0	1.36	2.52
26/01/2020 19:41:21	26012020	260120	194121	71.150	12.186997	-56.117668	71.280	-0.180	0.440	1.690	71.170	-1.000	2.000																			1580067681.0	1.06	1.96
26/01/2020 19:41:22	26012020	260120	194122	71.270	12.186995	-56.117668	71.400	0.040	0.470	1.250	71.310	-0.900	1.600																			1580067682.0	0.40	0.74
26/01/2020 19:41:23	26012020	260120	194123	71.480	12.186998	-56.117668	71.580	0.260	0.230	0.460	71.520	-1.200	0.800																			1580067683.0	0.47	0.87
26/01/2020 19:41:24	26012020	260120	194124	71.700	12.187003	-56.117670	71.780	0.360	-0.140	-0.470	71.740	-1.500	-0.100																			1580067684.0	1.17	2.17
26/01/2020 19:41:25	26012020	260120	194125	71.830	12.187010	-56.117670	71.900	0.280	-0.390	-1.240	71.850	-1.800	-0.900																			1580067685.0	1.49	2.76
26/01/2020 19:41:26	26012020	260120	194126	71.850	12.187015	-56.117672	71.880	0.070	-0.470	-1.520	71.830	-1.900	-1.100																			1580067686.0	1.22	2.26
26/01/2020 19:41:27	26012020	260120	194127	71.770	12.187017	-56.117673	71.790	-0.110	-0.430	-1.200	71.750	-1.800	-0.800																			1580067687.0	0.41	0.76
26/01/2020 19:41:28	26012020	260120	194128	71.660	12.187015	-56.117672	71.720	-0.230	-0.310	-0.530	71.650	-1.700	-0.200																			1580067688.0	0.51	0.94
26/01/2020 19:41:29	26012020	260120	194129	71.660	12.187010	-56.117670	71.750	-0.280	-0.110	0.110	71.660	-1.500	0.500																			1580067689.0	1.00	1.85
26/01/2020 19:41:30	26012020	260120	194130	71.710	12.187007	-56.117670	71.810	-0.270	0.110	0.560	71.720	-1.300	0.900																			1580067690.0	0.95	1.76
26/01/2020 19:41:31	26012020	260120	194131	71.770	12.187003	-56.117670	71.860	-0.220	0.230	0.820	71.780	-1.200	1.200																			1580067691.0	0.67	1.24
26/01/2020 19:41:32	26012020	260120	194132	71.800	12.187002	-56.117670	71.890	-0.110	0.130	0.930	71.810	-1.300	1.300																			1580067692.0	0.34	0.63
26/01/2020 19:41:33	26012020	260120	194133	71.880	12.187002	-56.117668	71.980	0.070	-0.220	0.840	71.910	-1.600	1.200																			1580067693.0	0.13	0.24
26/01/2020 19:41:34	26012020	260120	194134	72.060	12.187003	-56.117667	72.140	0.280	-0.620	0.540	72.100	-2.000	0.900																			1580067694.0	0.43	0.80
26/01/2020 19:41:35	26012020	260120	194135	72.250	12.187005	-56.117665	72.330	0.390	-0.650	0.180	72.290	-2.000	0.500																			1580067695.0	0.61	1.13
26/01/2020 19:41:36	26012020	260120	194136	72.370	12.187007	-56.117665	72.430	0.310	-0.200	-0.110	72.380	-1.600	0.300																			1580067696.0	0.40	0.74
26/01/2020 19:41:37	26012020	260120	194137	72.330	12.187007	-56.117667	72.380	0.090	0.390	-0.240	72.310	-1.000	0.100																			1580067697.0	0.42	0.78
26/01/2020 19:41:38	26012020	260120	194138	72.160	12.187007	-56.117668	72.200	-0.130	0.590	-0.230	72.120	-0.800	0.100																			1580067698.0	0.56	1.04
26/01/2020 19:41:39	26012020	260120	194139	71.990	12.187007	-56.117670	72.060	-0.200	0.230	-0.230	71.980	-1.200	0.100																			1580067699.0	0.22	0.41
26/01/2020 19:41:40	26012020	260120	194140	71.940	12.187008	-56.117668	72.020	-0.130	-0.410	-0.250	71.950	-1.800	0.100																			1580067700.0	0.33	0.61
26/01/2020 19:41:41	26012020	260120	194141	72.020	12.187010	-56.117665	72.090	-0.040	-0.800	-0.240	72.040	-2.200	0.100																			1580067701.0	0.66	1.22
26/01/2020 19:41:42	26012020	260120	194142	72.140	12.187010	-56.117663	72.240	-0.040	-0.640	-0.160	72.160	-2.000	0.200																			1580067702.0	0.45	0.83
26/01/2020 19:41:43	26012020	260120	194143	72.210	12.187010	-56.117663	72.300	-0.110	-0.140	0.020	72.220	-1.500	0.400																			1580067703.0	0.13	0.24
26/01/2020 19:41:44	26012020	260120	194144	72.200	12.187007	-56.117665	72.270	-0.140	0.270	0.250	72.190	-1.100	0.600																			1580067704.0	0.52	0.96
26/01/2020 19:41:45	26012020	260120	194145	72.130	12.187005	-56.117665	72.230	-0.050	0.300	0.490	72.120	-1.100	0.800																			1580067705.0	0.58	1.07
26/01/2020 19:41:46	26012020	260120	194146	72.090	12.187003	-56.117665	72.180	0.090	0.020	0.680	72.080	-1.400	1.000																			1580067706.0	0.50	0.93
26/01/2020 19:41:47	26012020	260120	194147	72.080	12.187002	-56.117663	72.160	0.170	-0.270	0.720	72.080	-1.700	1.100																			1580067707.0	0.49	0.91
26/01/2020 19:41:48	26012020	260120	194148	72.020	12.187002	-56.117662	72.080	0.120	-0.350	0.590	71.990	-1.700	0.900																			1580067708.0	0.33	0.61
26/01/2020 19:41:49	26012020	260120	194149	71.910	12.187003	-56.117662	71.930	0.020	-0.230	0.330	71.880	-1.600	0.700																			1580067709.0	0.31	0.57
26/01/2020 19:41:50	26012020	260120	194150	71.780	12.187005	-56.117662	71.840	-0.050	-0.080	0.020	71.770	-1.500	0.400																			1580067710.0	0.50	0.93
26/01/2020 19:41:51	26012020	260120	194151	71.800	12.187008	-56.117663	71.880	-0.040	-0.040	-0.250	71.810	-1.400	0.100																			1580067711.0	0.53	0.98
26/01/2020 19:41:52	26012020	260120	194152	71.900	12.187010	-56.117663	71.980	0.030	-0.070	-0.350	71.910	-1.500	0.000																			1580067712.0	0.34	0.63
26/01/2020 19:41:53	26012020	260120	194153	71.960	12.187010	-56.117663	72.040	0.100	-0.130	-0.300	71.970	-1.500	0.100																			1580067713.0	0.12	0.22
26/01/2020 19:41:54	26012020	260120	194154	71.930	12.187008	-56.117662	72.000	0.140	-0.200	-0.120	71.910	-1.600	0.200																			1580067714.0	0.34	0.63
26/01/2020 19:41:55	26012020	260120	194155	71.770	12.187007	-56.117660	71.820	0.110	-0.230	0.130	71.720	-1.600	0.500																			1580067715.0	0.45	0.83
26/01/2020 19:41:56	26012020	260120	194156	71.500	12.187005	-56.117660	71.560	0.020	-0.190	0.380	71.450	-1.600	0.700																			1580067716.0	0.31	0.57
26/01/2020 19:41:57	26012020	260120	194157	71.280	12.187005	-56.117660	71.340	-0.090	-0.120	0.540	71.250	-1.500	0.900																			1580067717.0	0.08	0.15
26/01/2020 19:41:58	26012020	260120	194158	71.210	12.187007	-56.117660	71.300	-0.150	-0.070	0.560	71.220	-1.500	0.900																			1580067718.0	0.08	0.15
26/01/2020 19:41:59	26012020	260120	194159	71.360	12.187007	-56.117660	71.460	-0.150	-0.080	0.430	71.410	-1.500	0.800	1013.70	26.30	26.30	21.10	21.10	316.00	73.00	73.00	395.00	29.30	17.00	3.80	89.00	3.60	23632	3418.00	27.80	27.80	1580067719.0	0.12	0.22
26/01/2020 19:42:00	26012020	260120	194200	71.610	12.187007	-56.117658	71.710	-0.150	-0.050	0.270	71.650	-1.400	0.600																			1580067720.0	0.10	0.19
26/01/2020 19:42:01	26012020	260120	194201	71.730	12.187007	-56.117658	71.800	-0.170	0.060	0.220	71.720	-1.300	0.600																			1580067721.0	0.18	0.33
26/01/2020 19:42:02	26012020	260120	194202	71.600	12.187005	-56.117658	71.670	-0.150	0.150	0.280	71.560	-1.200	0.600																			1580067722.0	0.37	0.69
26/01/2020 19:42:03	26012020	260120	194203	71.380	12.187003	-56.117658	71.400	-0.010	-0.010	0.320	71.330	-1.400	0.700																			1580067723.0	0.33	0.61
26/01/2020 19:42:04	26012020	260120	194204	71.070	12.187003	-56.117658	71.140	0.240	-0.360	0.200	71.030	-1.800	0.600																			1580067724.0	0.13	0.24
26/01/2020 19:42:05	26012020	260120	194205	70.930	12.187005	-56.117657	71.010	0.450	-0.580	-0.090	70.920	-2.000	0.300																			1580067725.0	0.58	1.07
26/01/2020 19:42:06	26012020	260120	194206	70.960	12.187010	-56.117657	71.060	0.460	-0.460	-0.400	70.980	-1.800	-0.000																			1580067726.0	0.83	1.54
26/01/2020 19:42:07	26012020	260120	194207	71.090	12.187012	-56.117658	71.190	0.240	-0.170	-0.550	71.110	-1.600	-0.200																			1580067727.0	0.71	1.31
26/01/2020 19:42:08	26012020	260120	194208	71.190	12.187013	-56.117660	71.300	-0.080	0.050	-0.420	71.200	-1.300	-0.100																			1580067728.0	0.37	0.69
26/01/2020 19:42:09	26012020	260120	194209	71.190	12.187012	-56.117660	71.290	-0.330	0.110	-0.040	71.180	-1.300	0.300																			1580067729.0	0.27	0.50
26/01/2020 19:42:10	26012020	260120	194210	71.060	12.187008	-56.117658	71.150	-0.420	0.020	0.520	71.020	-1.400	0.900																			1580067730.0	0.78	1.44
26/01/2020 19:42:11	26012020	260120	194211	70.810	12.187005	-56.117655	70.910	-0.380	-0.090	1.080	70.760	-1.500	1.400																			1580067731.0	1.08	2.00
26/01/2020 19:42:12	26012020	260120	194212	70.600	12.187000	-56.117653	70.710	-0.270	-0.140	1.380	70.580	-1.500	1.700																			1580067732.0	1.01	1.87
26/01/2020 19:42:13	26012020	260120	194213	70.560	12.186998	-56.117652	70.660	-0.120	-0.100	1.160	70.570	-1.500	1.500																			1580067733.0	0.49	0.91
26/01/2020 19:42:14	26012020	260120	194214	70.660	12.187000	-56.117652	70.760	0.060	0.020	0.510	70.690	-1.400	0.900																			1580067734.0	0.26	0.48
26/01/2020 19:42:15	26012020	260120	194215	70.830	12.187003	-56.117653	70.930	0.270	0.100	-0.270	70.870	-1.300	0.100																			1580067735.0	0.90	1.67
26/01/2020 19:42:16	26012020	260120	194216	71.040	12.187008	-56.117657	71.130	0.430	-0.050	-0.890	71.080	-1.400	-0.500																			1580067736.0	1.12	2.07
26/01/2020 19:42:17	26012020	260120	194217	71.150	12.187013	-56.117657	71.240	0.430	-0.380	-1.150	71.160	-1.800	-0.800																			1580067737.0	0.96	1.78
26/01/2020 19:42:18	26012020	260120	194218	71.050	12.187015	-56.117657	71.120	0.250	-0.610	-0.910	71.010	-2.000	-0.500																			1580067738.0	0.59	1.09
26/01/2020 19:42:19	26012020	260120	194219	70.770	12.187015	-56.117655	70.850	-0.040	-0.510	-0.220	70.710	-1.900	0.100																			1580067739.0	0.31	0.57
26/01/2020 19:42:20	26012020	260120	194220	70.460	12.187012	-56.117653	70.560	-0.290	-0.170	0.610	70.410	-1.600	1.000																			1580067740.0	0.83	1.54
26/01/2020 19:42:21	26012020	260120	194221	70.300	12.187007	-56.117653	70.420	-0.360	0.080	1.220	70.300	-1.300	1.600																			1580067741.0	1.07	1.98
26/01/2020 19:42:22	26012020	260120	194222	70.430	12.187003	-56.117652	70.570	-0.210	0.100	1.390	70.490	-1.300	1.700																			1580067742.0	0.83	1.54
26/01/2020 19:42:23	26012020	260120	194223	70.760	12.187002	-56.117650	70.890	-0.010	0.020	1.140	70.820	-1.400	1.500																			1580067743.0	0.44	0.81
26/01/2020 19:42:24	26012020	260120	194224	71.030	12.187002	-56.117650	71.140	0.060	0.080	0.660	71.070	-1.300	1.000																			1580067744.0	0.26	0.48
26/01/2020 19:42:25	26012020	260120	194225	71.140	12.187005	-56.117650	71.230	-0.030	0.230	0.160	71.140	-1.200	0.500																			1580067745.0	0.50	0.93
26/01/2020 19:42:26	26012020	260120	194226	71.080	12.187007	-56.117653	71.160	-0.120	0.230	-0.160	71.050	-1.200	0.200																			1580067746.0	0.68	1.26
26/01/2020 19:42:27	26012020	260120	194227	70.920	12.187008	-56.117655	71.000	-0.050	-0.140	-0.270	70.890	-1.500	0.100																			1580067747.0	0.55	1.02
26/01/2020 19:42:28	26012020	260120	194228	70.790	12.187010	-56.117653	70.880	0.140	-0.710	-0.290	70.770	-2.100	0.100																			1580067748.0	0.37	0.69
26/01/2020 19:42:29	26012020	260120	194229	70.750	12.187012	-56.117652	70.850	0.280	-1.000	-0.300	70.750	-2.400	0.100																			1580067749.0	0.57	1.06
26/01/2020 19:42:30	26012020	260120	194230	70.800	12.187012	-56.117650	70.900	0.230	-0.650	-0.270	70.820	-2.000	0.100																			1580067750.0	0.39	0.72
26/01/2020 19:42:31	26012020	260120	194231	70.900	12.187012	-56.117650	71.020	0.050	0.120	-0.130	70.920	-1.300	0.200																			1580067751.0	0.21	0.39
26/01/2020 19:42:32	26012020	260120	194232	70.990	12.187010	-56.117653	71.120	-0.120	0.660	0.080	71.010	-0.700	0.400																			1580067752.0	0.64	1.19
26/01/2020 19:42:33	26012020	260120	194233	71.070	12.187008	-56.117655	71.190	-0.180	0.620	0.260	71.090	-0.800	0.600																			1580067753.0	0.46	0.85
26/01/2020 19:42:34	26012020	260120	194234	71.100	12.187008	-56.117655	71.210	-0.150	0.140	0.440	71.100	-1.200	0.800																			1580067754.0	0.15	0.28
26/01/2020 19:42:35	26012020	260120	194235	71.070	12.187008	-56.117652	71.170	-0.050	-0.400	0.670	71.050	-1.800	1.000																			1580067755.0	0.47	0.87
26/01/2020 19:42:36	26012020	260120	194236	71.020	12.187008	-56.117650	71.130	0.060	-0.710	0.920	71.010	-2.100	1.300																			1580067756.0	0.54	1.00
26/01/2020 19:42:37	26012020	260120	194237	71.000	12.187007	-56.117648	71.130	0.160	-0.750	1.010	71.000	-2.100	1.400																			1580067757.0	0.41	0.76
26/01/2020 19:42:38	26012020	260120	194238	71.020	12.187007	-56.117648	71.130	0.190	-0.500	0.890	71.020	-1.900	1.200																			1580067758.0	0.19	0.35
26/01/2020 19:42:39	26012020	260120	194239	71.060	12.187007	-56.117648	71.170	0.090	0.010	0.570	71.080	-1.400	0.900																			1580067759.0	0.12	0.22
26/01/2020 19:42:40	26012020	260120	194240	71.160	12.187007	-56.117650	71.260	-0.130	0.610	0.130	71.180	-0.800	0.500																			1580067760.0	0.46	0.85
26/01/2020 19:42:41	26012020	260120	194241	71.240	12.187008	-56.117653	71.340	-0.340	0.910	-0.340	71.260	-0.500	0.000																			1580067761.0	0.76	1.41
26/01/2020 19:42:42	26012020	260120	194242	71.330	12.187012	-56.117657	71.410	-0.340	0.500	-0.730	71.350	-0.900	-0.400																			1580067762.0	0.78	1.44
26/01/2020 19:42:43	26012020	260120	194243	71.410	12.187015	-56.117657	71.490	-0.050	-0.480	-0.960	71.420	-1.900	-0.600																			1580067763.0	0.71	1.31
26/01/2020 19:42:44	26012020	260120	194244	71.460	12.187018	-56.117653	71.530	0.330	-1.340	-0.890	71.460	-2.700	-0.500																			1580067764.0	0.94	1.74
26/01/2020 19:42:45	26012020	260120	194245	71.430	12.187018	-56.117650	71.520	0.460	-1.310	-0.430	71.410	-2.700	-0.100																			1580067765.0	0.80	1.48
26/01/2020 19:42:46	26012020	260120	194246	71.320	12.187017	-56.117648	71.430	0.240	-0.460	0.280	71.300	-1.800	0.600																			1580067766.0	0.54	1.00
26/01/2020 19:42:47	26012020	260120	194247	71.220	12.187012	-56.117650	71.350	-0.150	0.500	0.980	71.210	-0.900	1.300																			1580067767.0	1.19	2.20
26/01/2020 19:42:48	26012020	260120	194248	71.190	12.187007	-56.117653	71.340	-0.410	0.910	1.440	71.190	-0.500	1.800																			1580067768.0	1.31	2.43
26/01/2020 19:42:49	26012020	260120	194249	71.190	12.187002	-56.117653	71.330	-0.390	0.580	1.520	71.190	-0.800	1.900																			1580067769.0	0.77	1.43
26/01/2020 19:42:50	26012020	260120	194250	71.200	12.187002	-56.117652	71.310	-0.130	-0.110	1.270	71.200	-1.500	1.600																			1580067770.0	0.39	0.72
26/01/2020 19:42:51	26012020	260120	194251	71.200	12.187005	-56.117648	71.300	0.210	-0.640	0.790	71.200	-2.000	1.100																			1580067771.0	0.81	1.50
26/01/2020 19:42:52	26012020	260120	194252	71.220	12.187010	-56.117648	71.330	0.430	-0.680	0.220	71.240	-2.100	0.600																			1580067772.0	0.97	1.80
26/01/2020 19:42:53	26012020	260120	194253	71.270	12.187013	-56.117650	71.370	0.440	-0.350	-0.280	71.280	-1.700	0.100																			1580067773.0	0.94	1.74
26/01/2020 19:42:54	26012020	260120	194254	71.300	12.187017	-56.117653	71.380	0.250	0.060	-0.500	71.290	-1.300	-0.100																			1580067774.0	0.85	1.57
26/01/2020 19:42:55	26012020	260120	194255	71.250	12.187018	-56.117655	71.310	-0.060	0.250	-0.390	71.220	-1.200	-0.000																			1580067775.0	0.55	1.02
26/01/2020 19:42:56	26012020	260120	194256	71.080	12.187017	-56.117655	71.170	-0.370	0.170	-0.040	71.040	-1.200	0.300																			1580067776.0	0.18	0.33
26/01/2020 19:42:57	26012020	260120	194257	70.870	12.187015	-56.117655	70.970	-0.580	-0.000	0.360	70.830	-1.400	0.700																			1580067777.0	0.54	1.00
26/01/2020 19:42:58	26012020	260120	194258	70.680	12.187012	-56.117652	70.780	-0.580	-0.150	0.660	70.650	-1.500	1.000																			1580067778.0	0.71	1.31
26/01/2020 19:42:59	26012020	260120	194259	70.570	12.187010	-56.117652	70.670	-0.320	-0.320	0.760	70.560	-1.700	1.100	1013.70	26.30	26.30	21.10	21.20	345.00	73.00	73.00	395.00	29.20	10.00	4.10	82.00	3.90	24245	3367.00	27.80	27.80	1580067779.0	0.57	1.06
26/01/2020 19:43:00	26012020	260120	194300	70.580	12.187008	-56.117650	70.700	0.140	-0.500	0.570	70.600	-1.900	0.900																			1580067780.0	0.28	0.52
26/01/2020 19:43:01	26012020	260120	194301	70.650	12.187010	-56.117650	70.770	0.600	-0.540	0.170	70.660	-1.900	0.500																			1580067781.0	0.33	0.61
26/01/2020 19:43:02	26012020	260120	194302	70.640	12.187013	-56.117650	70.740	0.820	-0.370	-0.200	70.630	-1.800	0.200																			1580067782.0	0.62	1.15
26/01/2020 19:43:03	26012020	260120	194303	70.560	12.187017	-56.117650	70.660	0.680	-0.090	-0.440	70.550	-1.500	-0.100																			1580067783.0	0.75	1.39
26/01/2020 19:43:04	26012020	260120	194304	70.540	12.187020	-56.117652	70.630	0.270	0.100	-0.570	70.540	-1.300	-0.200																			1580067784.0	0.74	1.37
26/01/2020 19:43:05	26012020	260120	194305	70.580	12.187022	-56.117653	70.710	-0.190	0.170	-0.530	70.590	-1.200	-0.200																			1580067785.0	0.56	1.04
26/01/2020 19:43:06	26012020	260120	194306	70.680	12.187023	-56.117652	70.800	-0.520	0.250	-0.260	70.700	-1.100	0.100																			1580067786.0	0.13	0.24
26/01/2020 19:43:07	26012020	260120	194307	70.740	12.187020	-56.117652	70.880	-0.660	0.390	0.190	70.750	-1.000	0.600																			1580067787.0	0.53	0.98
26/01/2020 19:43:08	26012020	260120	194308	70.760	12.187015	-56.117652	70.900	-0.610	0.410	0.690	70.760	-1.000	1.000																			1580067788.0	1.05	1.94
26/01/2020 19:43:09	26012020	260120	194309	70.730	12.187010	-56.117650	70.860	-0.400	0.080	1.050	70.720	-1.300	1.400																			1580067789.0	1.13	2.09
26/01/2020 19:43:10	26012020	260120	194310	70.630	12.187007	-56.117650	70.750	-0.070	-0.490	1.110	70.600	-1.900	1.500																			1580067790.0	0.74	1.37
26/01/2020 19:43:11	26012020	260120	194311	70.480	12.187007	-56.117648	70.600	0.300	-0.930	0.820	70.460	-2.300	1.200																			1580067791.0	0.33	0.61
26/01/2020 19:43:12	26012020	260120	194312	70.370	12.187010	-56.117647	70.490	0.570	-1.020	0.330	70.370	-2.400	0.700																			1580067792.0	0.68	1.26
26/01/2020 19:43:13	26012020	260120	194313	70.380	12.187015	-56.117648	70.490	0.620	-0.780	-0.130	70.400	-2.200	0.200																			1580067793.0	0.98	1.81
26/01/2020 19:43:14	26012020	260120	194314	70.510	12.187018	-56.117650	70.610	0.430	-0.370	-0.430	70.530	-1.800	-0.100																			1580067794.0	0.87	1.61
26/01/2020 19:43:15	26012020	260120	194315	70.650	12.187020	-56.117652	70.760	0.120	0.110	-0.540	70.670	-1.300	-0.200																			1580067795.0	0.46	0.85
26/01/2020 19:43:16	26012020	260120	194316	70.680	12.187020	-56.117652	70.770	-0.170	0.600	-0.480	70.670	-0.800	-0.100																			1580067796.0	0.14	0.26
26/01/2020 19:43:17	26012020	260120	194317	70.580	12.187018	-56.117652	70.650	-0.350	0.890	-0.250	70.540	-0.500	0.100																			1580067797.0	0.44	0.81
26/01/2020 19:43:18	26012020	260120	194318	70.470	12.187015	-56.117653	70.570	-0.370	0.710	0.020	70.470	-0.700	0.400																			1580067798.0	0.53	0.98
26/01/2020 19:43:19	26012020	260120	194319	70.590	12.187015	-56.117652	70.710	-0.230	0.090	0.170	70.640	-1.300	0.500																			1580067799.0	0.36	0.67
26/01/2020 19:43:20	26012020	260120	194320	70.870	12.187015	-56.117650	70.990	-0.050	-0.480	0.180	70.920	-1.900	0.500																			1580067800.0	0.40	0.74
26/01/2020 19:43:21	26012020	260120	194321	71.040	12.187015	-56.117648	71.150	0.060	-0.630	0.300	71.040	-2.000	0.700																			1580067801.0	0.27	0.50
26/01/2020 19:43:22	26012020	260120	194322	70.910	12.187015	-56.117650	70.990	0.050	-0.480	0.620	70.850	-1.900	1.000																			1580067802.0	0.22	0.41
26/01/2020 19:43:23	26012020	260120	194323	70.520	12.187012	-56.117650	70.600	-0.010	-0.340	1.050	70.420	-1.700	1.400																			1580067803.0	0.59	1.09
26/01/2020 19:43:24	26012020	260120	194324	70.110	12.187010	-56.117652	70.220	-0.030	-0.400	1.320	70.050	-1.800	1.700																			1580067804.0	0.54	1.00
26/01/2020 19:43:25	26012020	260120	194325	69.980	12.187008	-56.117650	70.100	0.060	-0.540	1.170	69.990	-1.900	1.500																			1580067805.0	0.18	0.33
26/01/2020 19:43:26	26012020	260120	194326	70.160	12.187010	-56.117650	70.280	0.230	-0.520	0.640	70.220	-1.900	1.000																			1580067806.0	0.42	0.78
26/01/2020 19:43:27	26012020	260120	194327	70.440	12.187013	-56.117650	70.530	0.320	-0.200	0.010	70.490	-1.600	0.400																			1580067807.0	0.65	1.20
26/01/2020 19:43:28	26012020	260120	194328	70.600	12.187017	-56.117650	70.670	0.230	0.310	-0.460	70.600	-1.100	-0.100																			1580067808.0	0.59	1.09
26/01/2020 19:43:29	26012020	260120	194329	70.540	12.187017	-56.117652	70.600	0.010	0.650	-0.650	70.510	-0.700	-0.300																			1580067809.0	0.48	0.89
26/01/2020 19:43:30	26012020	260120	194330	70.330	12.187018	-56.117653	70.390	-0.180	0.600	-0.600	70.290	-0.800	-0.200																			1580067810.0	0.31	0.57
26/01/2020 19:43:31	26012020	260120	194331	70.160	12.187018	-56.117653	70.210	-0.190	0.180	-0.390	70.130	-1.200	-0.000																			1580067811.0	0.07	0.13
26/01/2020 19:43:32	26012020	260120	194332	70.060	12.187018	-56.117653	70.160	-0.050	-0.320	-0.100	70.060	-1.700	0.300																			1580067812.0	0.26	0.48
26/01/2020 19:43:33	26012020	260120	194333	70.130	12.187018	-56.117652	70.230	0.110	-0.590	0.200	70.140	-2.000	0.600																			1580067813.0	0.31	0.57
26/01/2020 19:43:34	26012020	260120	194334	70.150	12.187017	-56.117650	70.260	0.120	-0.500	0.560	70.140	-1.900	0.900																			1580067814.0	0.24	0.44
26/01/2020 19:43:35	26012020	260120	194335	69.970	12.187015	-56.117652	70.060	-0.070	-0.180	1.060	69.910	-1.600	1.400																			1580067815.0	0.53	0.98
26/01/2020 19:43:36	26012020	260120	194336	69.620	12.187012	-56.117652	69.700	-0.310	-0.010	1.550	69.530	-1.400	1.900																			1580067816.0	0.77	1.43
26/01/2020 19:43:37	26012020	260120	194337	69.250	12.187008	-56.117653	69.360	-0.390	-0.190	1.800	69.200	-1.600	2.200																			1580067817.0	0.56	1.04
26/01/2020 19:43:38	26012020	260120	194338	69.070	12.187008	-56.117652	69.180	-0.210	-0.530	1.590	69.060	-1.900	2.000																			1580067818.0	0.25	0.46
26/01/2020 19:43:39	26012020	260120	194339	69.100	12.187010	-56.117650	69.210	0.120	-0.630	0.950	69.130	-2.000	1.300																			1580067819.0	0.53	0.98
26/01/2020 19:43:40	26012020	260120	194340	69.240	12.187013	-56.117650	69.330	0.370	-0.270	0.110	69.270	-1.700	0.500																			1580067820.0	0.70	1.30
26/01/2020 19:43:41	26012020	260120	194341	69.360	12.187017	-56.117652	69.420	0.390	0.340	-0.710	69.380	-1.000	-0.300																			1580067821.0	0.87	1.61
26/01/2020 19:43:42	26012020	260120	194342	69.420	12.187020	-56.117657	69.450	0.270	0.700	-1.320	69.410	-0.700	-0.900																			1580067822.0	1.06	1.96
26/01/2020 19:43:43	26012020	260120	194343	69.360	12.187023	-56.117658	69.360	0.140	0.500	-1.510	69.330	-0.900	-1.100																			1580067823.0	0.91	1.69
26/01/2020 19:43:44	26012020	260120	194344	69.100	12.187027	-56.117660	69.130	0.040	-0.090	-1.300	69.060	-1.500	-0.900																			1580067824.0	0.55	1.02
26/01/2020 19:43:45	26012020	260120	194345	68.890	12.187027	-56.117658	68.940	-0.060	-0.660	-0.850	68.860	-2.000	-0.500																			1580067825.0	0.42	0.78
26/01/2020 19:43:46	26012020	260120	194346	68.800	12.187027	-56.117657	68.860	-0.180	-0.870	-0.170	68.790	-2.300	0.200																			1580067826.0	0.44	0.81
26/01/2020 19:43:47	26012020	260120	194347	68.810	12.187025	-56.117655	68.900	-0.270	-0.630	0.660	68.820	-2.000	1.000																			1580067827.0	0.68	1.26
26/01/2020 19:43:48	26012020	260120	194348	68.900	12.187018	-56.117653	69.020	-0.270	-0.150	1.390	68.920	-1.500	1.800																			1580067828.0	1.12	2.07
26/01/2020 19:43:49	26012020	260120	194349	68.990	12.187013	-56.117653	69.120	-0.220	0.310	1.810	69.000	-1.100	2.200																			1580067829.0	1.26	2.33
26/01/2020 19:43:50	26012020	260120	194350	69.020	12.187008	-56.117653	69.150	-0.140	0.550	1.760	69.030	-0.800	2.100																			1580067830.0	0.91	1.69
26/01/2020 19:43:51	26012020	260120	194351	69.070	12.187008	-56.117653	69.190	-0.060	0.410	1.210	69.080	-1.000	1.600																			1580067831.0	0.20	0.37
26/01/2020 19:43:52	26012020	260120	194352	69.180	12.187012	-56.117655	69.280	0.070	-0.020	0.360	69.200	-1.400	0.700																			1580067832.0	0.75	1.39
26/01/2020 19:43:53	26012020	260120	194353	69.250	12.187018	-56.117655	69.350	0.200	-0.500	-0.470	69.260	-1.900	-0.100																			1580067833.0	1.27	2.35
26/01/2020 19:43:54	26012020	260120	194354	69.250	12.187023	-56.117657	69.300	0.260	-0.810	-1.060	69.240	-2.200	-0.700																			1580067834.0	1.31	2.43
26/01/2020 19:43:55	26012020	260120	194355	69.210	12.187028	-56.117657	69.240	0.200	-0.770	-1.330	69.200	-2.100	-1.000																			1580067835.0	0.96	1.78
26/01/2020 19:43:56	26012020	260120	194356	69.180	12.187030	-56.117657	69.220	0.070	-0.390	-1.240	69.190	-1.800	-0.900																			1580067836.0	0.38	0.70
26/01/2020 19:43:57	26012020	260120	194357	69.240	12.187028	-56.117657	69.310	-0.030	0.080	-0.900	69.260	-1.300	-0.500																			1580067837.0	0.28	0.52
26/01/2020 19:43:58	26012020	260120	194358	69.430	12.187025	-56.117657	69.490	-0.030	0.380	-0.510	69.470	-1.000	-0.100																			1580067838.0	0.63	1.17
26/01/2020 19:43:59	26012020	260120	194359	69.600	12.187023	-56.117657	69.680	0.040	0.440	-0.100	69.630	-1.000	0.300	1013.70	26.30	26.30	21.00	21.10	340.00	72.00	73.00	395.00	29.20	5.00	3.70	75.00	3.50	23873	3392.00	27.80	27.80	1580067839.0	0.61	1.13
26/01/2020 19:44:00	26012020	260120	194400	69.660	12.187022	-56.117655	69.730	0.080	0.270	0.410	69.660	-1.100	0.800																			1580067840.0	0.49	0.91
26/01/2020 19:44:01	26012020	260120	194401	69.590	12.187020	-56.117653	69.650	-0.000	-0.020	0.980	69.560	-1.400	1.300																			1580067841.0	0.47	0.87
26/01/2020 19:44:02	26012020	260120	194402	69.450	12.187018	-56.117652	69.530	-0.210	-0.270	1.450	69.420	-1.700	1.800																			1580067842.0	0.48	0.89
26/01/2020 19:44:03	26012020	260120	194403	69.340	12.187017	-56.117652	69.420	-0.430	-0.350	1.680	69.320	-1.700	2.000																			1580067843.0	0.41	0.76
26/01/2020 19:44:04	26012020	260120	194404	69.320	12.187015	-56.117650	69.430	-0.510	-0.320	1.640	69.340	-1.700	2.000																			1580067844.0	0.33	0.61
26/01/2020 19:44:05	26012020	260120	194405	69.420	12.187013	-56.117650	69.530	-0.330	-0.360	1.300	69.450	-1.800	1.700																			1580067845.0	0.23	0.43
26/01/2020 19:44:06	26012020	260120	194406	69.600	12.187015	-56.117650	69.690	0.090	-0.480	0.670	69.630	-1.900	1.000																			1580067846.0	0.05	0.09
26/01/2020 19:44:07	26012020	260120	194407	69.740	12.187017	-56.117650	69.800	0.500	-0.480	-0.110	69.750	-1.900	0.300																			1580067847.0	0.42	0.78
26/01/2020 19:44:08	26012020	260120	194408	69.750	12.187020	-56.117650	69.780	0.680	-0.230	-0.840	69.740	-1.600	-0.500																			1580067848.0	0.72	1.33
26/01/2020 19:44:09	26012020	260120	194409	69.620	12.187023	-56.117652	69.630	0.560	0.140	-1.300	69.580	-1.300	-0.900																			1580067849.0	0.94	1.74
26/01/2020 19:44:10	26012020	260120	194410	69.420	12.187027	-56.117653	69.430	0.270	0.390	-1.390	69.390	-1.000	-1.000																			1580067850.0	0.93	1.72
26/01/2020 19:44:11	26012020	260120	194411	69.290	12.187030	-56.117655	69.320	-0.040	0.400	-1.190	69.280	-1.000	-0.800																			1580067851.0	0.65	1.20
26/01/2020 19:44:12	26012020	260120	194412	69.290	12.187032	-56.117657	69.330	-0.280	0.150	-0.790	69.300	-1.200	-0.400																			1580067852.0	0.26	0.48
26/01/2020 19:44:13	26012020	260120	194413	69.410	12.187030	-56.117655	69.490	-0.390	-0.230	-0.260	69.450	-1.600	0.100																			1580067853.0	0.27	0.50
26/01/2020 19:44:14	26012020	260120	194414	69.600	12.187028	-56.117652	69.690	-0.370	-0.520	0.460	69.630	-1.900	0.800																			1580067854.0	0.73	1.35
26/01/2020 19:44:15	26012020	260120	194415	69.730	12.187023	-56.117648	69.830	-0.290	-0.520	1.330	69.740	-1.900	1.700																			1580067855.0	1.23	2.28
26/01/2020 19:44:16	26012020	260120	194416	69.690	12.187017	-56.117647	69.780	-0.230	-0.240	2.120	69.660	-1.600	2.500																			1580067856.0	1.58	2.93
26/01/2020 19:44:17	26012020	260120	194417	69.490	12.187010	-56.117645	69.570	-0.220	0.050	2.450	69.450	-1.300	2.800																			1580067857.0	1.47	2.72
26/01/2020 19:44:18	26012020	260120	194418	69.270	12.187007	-56.117645	69.350	-0.160	0.070	2.140	69.240	-1.300	2.500																			1580067858.0	0.75	1.39
26/01/2020 19:44:19	26012020	260120	194419	69.150	12.187007	-56.117647	69.240	0.050	-0.160	1.310	69.150	-1.600	1.700																			1580067859.0	0.31	0.57
26/01/2020 19:44:20	26012020	260120	194420	69.190	12.187013	-56.117647	69.270	0.360	-0.370	0.210	69.210	-1.800	0.600																			1580067860.0	1.14	2.11
26/01/2020 19:44:21	26012020	260120	194421	69.270	12.187020	-56.117648	69.350	0.560	-0.300	-0.990	69.300	-1.700	-0.600																			1580067861.0	1.56	2.89
26/01/2020 19:44:22	26012020	260120	194422	69.410	12.187027	-56.117650	69.430	0.520	0.010	-1.990	69.420	-1.400	-1.600																			1580067862.0	1.67	3.09
26/01/2020 19:44:23	26012020	260120	194423	69.450	12.187033	-56.117653	69.450	0.290	0.260	-2.500	69.450	-1.100	-2.100																			1580067863.0	1.49	2.76
26/01/2020 19:44:24	26012020	260120	194424	69.390	12.187037	-56.117657	69.400	0.030	0.130	-2.270	69.370	-1.300	-1.900																			1580067864.0	0.90	1.67
26/01/2020 19:44:25	26012020	260120	194425	69.200	12.187037	-56.117657	69.200	-0.170	-0.300	-1.350	69.150	-1.700	-1.000																			1580067865.0	0.11	0.20
26/01/2020 19:44:26	26012020	260120	194426	68.970	12.187033	-56.117652	68.990	-0.300	-0.660	-0.040	68.930	-2.000	0.300																			1580067866.0	1.05	1.94
26/01/2020 19:44:27	26012020	260120	194427	68.880	12.187027	-56.117648	68.960	-0.390	-0.630	1.230	68.880	-2.000	1.600																			1580067867.0	1.61	2.98
26/01/2020 19:44:28	26012020	260120	194428	68.930	12.187020	-56.117645	69.040	-0.440	-0.210	2.170	68.950	-1.600	2.500																			1580067868.0	1.75	3.24
26/01/2020 19:44:29	26012020	260120	194429	69.010	12.187013	-56.117643	69.130	-0.380	0.300	2.620	69.030	-1.100	3.000																			1580067869.0	1.57	2.91
26/01/2020 19:44:30	26012020	260120	194430	69.120	12.187008	-56.117643	69.250	-0.200	0.510	2.470	69.150	-0.900	2.800																			1580067870.0	1.07	1.98
26/01/2020 19:44:31	26012020	260120	194431	69.260	12.187007	-56.117643	69.380	0.050	0.410	1.780	69.290	-1.000	2.100																			1580067871.0	0.24	0.44
26/01/2020 19:44:32	26012020	260120	194432	69.330	12.187010	-56.117643	69.400	0.250	0.150	0.750	69.320	-1.200	1.100																			1580067872.0	0.61	1.13
26/01/2020 19:44:33	26012020	260120	194433	69.290	12.187015	-56.117645	69.310	0.340	-0.190	-0.430	69.270	-1.600	-0.100																			1580067873.0	1.28	2.37
26/01/2020 19:44:34	26012020	260120	194434	69.120	12.187023	-56.117648	69.130	0.360	-0.570	-1.450	69.080	-2.000	-1.100																			1580067874.0	1.70	3.15
26/01/2020 19:44:35	26012020	260120	194435	68.910	12.187030	-56.117650	68.910	0.320	-0.850	-2.050	68.880	-2.200	-1.700																			1580067875.0	1.64	3.04
26/01/2020 19:44:36	26012020	260120	194436	68.760	12.187035	-56.117650	68.760	0.210	-0.900	-2.090	68.740	-2.300	-1.700																			1580067876.0	1.15	2.13
26/01/2020 19:44:37	26012020	260120	194437	68.710	12.187037	-56.117650	68.740	0.010	-0.620	-1.630	68.730	-2.000	-1.300																			1580067877.0	0.39	0.72
26/01/2020 19:44:38	26012020	260120	194438	68.840	12.187035	-56.117648	68.900	-0.220	-0.060	-0.890	68.890	-1.400	-0.500																			1580067878.0	0.49	0.91
26/01/2020 19:44:39	26012020	260120	194439	69.100	12.187030	-56.117648	69.200	-0.430	0.550	-0.020	69.160	-0.800	0.400																			1580067879.0	1.11	2.06
26/01/2020 19:44:40	26012020	260120	194440	69.370	12.187023	-56.117647	69.480	-0.510	0.920	0.890	69.420	-0.500	1.200																			1580067880.0	1.46	2.70
26/01/2020 19:44:41	26012020	260120	194441	69.590	12.187017	-56.117645	69.720	-0.370	0.780	1.600	69.630	-0.600	2.000																			1580067881.0	1.49	2.76
26/01/2020 19:44:42	26012020	260120	194442	69.750	12.187012	-56.117643	69.900	-0.060	0.160	2.000	69.770	-1.200	2.400																			1580067882.0	1.17	2.17
26/01/2020 19:44:43	26012020	260120	194443	69.780	12.187010	-56.117640	69.910	0.230	-0.510	2.100	69.770	-1.900	2.500																			1580067883.0	0.81	1.50
26/01/2020 19:44:44	26012020	260120	194444	69.680	12.187010	-56.117638	69.800	0.300	-0.820	1.880	69.660	-2.200	2.200																			1580067884.0	0.47	0.87
26/01/2020 19:44:45	26012020	260120	194445	69.610	12.187013	-56.117638	69.720	0.210	-0.790	1.390	69.600	-2.200	1.800																			1580067885.0	0.58	1.07
26/01/2020 19:44:46	26012020	260120	194446	69.630	12.187017	-56.117640	69.730	0.090	-0.610	0.700	69.650	-2.000	1.100																			1580067886.0	0.95	1.76
26/01/2020 19:44:47	26012020	260120	194447	69.720	12.187022	-56.117643	69.820	0.050	-0.310	-0.060	69.740	-1.700	0.300																			1580067887.0	1.02	1.89
26/01/2020 19:44:48	26012020	260120	194448	69.840	12.187025	-56.117645	69.910	0.030	0.130	-0.740	69.850	-1.300	-0.400																			1580067888.0	0.91	1.69
26/01/2020 19:44:49	26012020	260120	194449	69.940	12.187027	-56.117647	70.010	0.010	0.480	-1.200	69.970	-0.900	-0.800																			1580067889.0	0.69	1.28
26/01/2020 19:44:50	26012020	260120	194450	70.150	12.187028	-56.117648	70.240	-0.020	0.400	-1.400	70.210	-1.000	-1.000																			1580067890.0	0.42	0.78
26/01/2020 19:44:51	26012020	260120	194451	70.480	12.187030	-56.117647	70.580	-0.010	-0.080	-1.340	70.550	-1.500	-1.000																			1580067891.0	0.23	0.43
26/01/2020 19:44:52	26012020	260120	194452	70.780	12.187030	-56.117645	70.880	0.000	-0.530	-0.980	70.820	-1.900	-0.600																			1580067892.0	0.54	1.00
26/01/2020 19:44:53	26012020	260120	194453	70.850	12.187028	-56.117642	70.930	-0.010	-0.570	-0.250	70.830	-2.000	0.100																			1580067893.0	0.60	1.11
26/01/2020 19:44:54	26012020	260120	194454	70.680	12.187025	-56.117640	70.790	-0.100	-0.180	0.790	70.640	-1.600	1.100																			1580067894.0	0.78	1.44
26/01/2020 19:44:55	26012020	260120	194455	70.500	12.187020	-56.117640	70.640	-0.230	0.260	1.790	70.480	-1.100	2.100																			1580067895.0	1.18	2.19
26/01/2020 19:44:56	26012020	260120	194456	70.520	12.187015	-56.117642	70.700	-0.300	0.370	2.340	70.540	-1.000	2.700																			1580067896.0	1.22	2.26
26/01/2020 19:44:57	26012020	260120	194457	70.710	12.187012	-56.117640	70.900	-0.220	0.090	2.340	70.760	-1.300	2.700																			1580067897.0	0.72	1.33
26/01/2020 19:44:58	26012020	260120	194458	70.970	12.187012	-56.117640	71.140	-0.020	-0.280	1.930	71.020	-1.700	2.300																			1580067898.0	0.23	0.43
26/01/2020 19:44:59	26012020	260120	194459	71.190	12.187013	-56.117638	71.340	0.200	-0.490	1.240	71.230	-1.900	1.600	1013.70	26.30	26.30	21.00	21.10	359.00	72.00	73.00	395.00	29.20	4.00	3.50	74.00	3.10	24272	3409.00	27.80	27.80	1580067899.0	0.57	1.06
26/01/2020 19:45:00	26012020	260120	194500	71.330	12.187018	-56.117640	71.440	0.320	-0.530	0.420	71.350	-1.900	0.800																			1580067900.0	0.88	1.63
26/01/2020 19:45:01	26012020	260120	194501	71.320	12.187022	-56.117640	71.410	0.310	-0.440	-0.200	71.310	-1.800	0.200																			1580067901.0	1.02	1.89
26/01/2020 19:45:02	26012020	260120	194502	71.190	12.187027	-56.117642	71.260	0.210	-0.270	-0.550	71.160	-1.700	-0.200																			1580067902.0	0.85	1.57
26/01/2020 19:45:03	26012020	260120	194503	71.090	12.187028	-56.117643	71.160	0.080	-0.040	-0.720	71.080	-1.400	-0.400																			1580067903.0	0.59	1.09
26/01/2020 19:45:04	26012020	260120	194504	71.120	12.187030	-56.117643	71.200	-0.040	0.150	-0.840	71.150	-1.200	-0.500																			1580067904.0	0.39	0.72
26/01/2020 19:45:05	26012020	260120	194505	71.320	12.187032	-56.117643	71.410	-0.170	0.280	-0.900	71.370	-1.100	-0.500																			1580067905.0	0.24	0.44
26/01/2020 19:45:06	26012020	260120	194506	71.580	12.187032	-56.117643	71.670	-0.270	0.270	-0.820	71.620	-1.100	-0.500																			1580067906.0	0.09	0.17
26/01/2020 19:45:07	26012020	260120	194507	71.750	12.187032	-56.117643	71.830	-0.310	0.110	-0.450	71.760	-1.300	-0.100																			1580067907.0	0.20	0.37
26/01/2020 19:45:08	26012020	260120	194508	71.750	12.187030	-56.117642	71.830	-0.290	-0.070	0.170	71.720	-1.500	0.500																			1580067908.0	0.56	1.04
26/01/2020 19:45:09	26012020	260120	194509	71.590	12.187027	-56.117640	71.670	-0.230	-0.140	0.820	71.550	-1.500	1.200																			1580067909.0	0.77	1.43
26/01/2020 19:45:10	26012020	260120	194510	71.430	12.187023	-56.117638	71.540	-0.110	-0.220	1.210	71.420	-1.600	1.600																			1580067910.0	0.71	1.31
26/01/2020 19:45:11	26012020	260120	194511	71.440	12.187022	-56.117638	71.610	0.130	-0.510	1.190	71.470	-1.900	1.500																			1580067911.0	0.36	0.67
26/01/2020 19:45:12	26012020	260120	194512	71.680	12.187022	-56.117637	71.810	0.410	-0.850	0.890	71.720	-2.200	1.200																			1580067912.0	0.37	0.69
26/01/2020 19:45:13	26012020	260120	194513	71.830	12.187025	-56.117635	71.940	0.510	-0.760	0.530	71.840	-2.200	0.900																			1580067913.0	0.68	1.26
26/01/2020 19:45:14	26012020	260120	194514	71.770	12.187027	-56.117633	71.840	0.320	-0.150	0.200	71.730	-1.500	0.600																			1580067914.0	0.46	0.85
26/01/2020 19:45:15	26012020	260120	194515	71.540	12.187028	-56.117637	71.600	-0.070	0.540	-0.140	71.490	-0.900	0.200																			1580067915.0	0.48	0.89
26/01/2020 19:45:16	26012020	260120	194516	71.390	12.187030	-56.117638	71.470	-0.380	0.740	-0.550	71.380	-0.700	-0.200																			1580067916.0	0.64	1.19
26/01/2020 19:45:17	26012020	260120	194517	71.410	12.187032	-56.117640	71.490	-0.410	0.360	-0.920	71.430	-1.000	-0.600																			1580067917.0	0.56	1.04
26/01/2020 19:45:18	26012020	260120	194518	71.540	12.187035	-56.117638	71.630	-0.220	-0.200	-1.080	71.580	-1.600	-0.700																			1580067918.0	0.68	1.26
26/01/2020 19:45:19	26012020	260120	194519	71.710	12.187037	-56.117635	71.800	0.010	-0.520	-1.010	71.740	-1.900	-0.700																			1580067919.0	0.63	1.17
26/01/2020 19:45:20	26012020	260120	194520	71.790	12.187037	-56.117633	71.860	0.120	-0.400	-0.700	71.780	-1.800	-0.300																			1580067920.0	0.36	0.67
26/01/2020 19:45:21	26012020	260120	194521	71.640	12.187033	-56.117633	71.720	0.050	-0.030	-0.160	71.590	-1.400	0.200																			1580067921.0	0.54	1.00
26/01/2020 19:45:22	26012020	260120	194522	71.360	12.187030	-56.117635	71.450	-0.050	0.130	0.460	71.300	-1.300	0.800																			1580067922.0	0.83	1.54
26/01/2020 19:45:23	26012020	260120	194523	71.180	12.187027	-56.117635	71.280	-0.000	-0.140	0.920	71.160	-1.500	1.300																			1580067923.0	0.64	1.19
26/01/2020 19:45:24	26012020	260120	194524	71.130	12.187025	-56.117635	71.260	0.150	-0.570	1.160	71.130	-2.000	1.500																			1580067924.0	0.38	0.70
26/01/2020 19:45:25	26012020	260120	194525	71.170	12.187027	-56.117632	71.320	0.250	-0.740	1.180	71.180	-2.100	1.500																			1580067925.0	0.41	0.76
26/01/2020 19:45:26	26012020	260120	194526	71.230	12.187027	-56.117632	71.360	0.190	-0.530	1.040	71.240	-1.900	1.400																			1580067926.0	0.21	0.39
26/01/2020 19:45:27	26012020	260120	194527	71.200	12.187027	-56.117632	71.310	0.010	-0.080	0.840	71.180	-1.500	1.200																			1580067927.0	0.11	0.20
26/01/2020 19:45:28	26012020	260120	194528	71.070	12.187025	-56.117633	71.150	-0.140	0.380	0.600	71.030	-1.000	1.000																			1580067928.0	0.32	0.59
26/01/2020 19:45:29	26012020	260120	194529	70.910	12.187025	-56.117635	71.000	-0.150	0.570	0.260	70.880	-0.800	0.600																			1580067929.0	0.39	0.72
26/01/2020 19:45:30	26012020	260120	194530	70.850	12.187027	-56.117637	70.960	0.010	0.330	-0.230	70.850	-1.100	0.100																			1580067930.0	0.30	0.56
26/01/2020 19:45:31	26012020	260120	194531	70.870	12.187028	-56.117637	70.960	0.160	-0.080	-0.810	70.880	-1.500	-0.400																			1580067931.0	0.57	1.06
26/01/2020 19:45:32	26012020	260120	194532	70.890	12.187033	-56.117637	70.970	0.150	-0.280	-1.250	70.880	-1.700	-0.900																			1580067932.0	0.89	1.65
26/01/2020 19:45:33	26012020	260120	194533	70.830	12.187037	-56.117640	70.900	-0.020	-0.220	-1.300	70.820	-1.600	-0.900																			1580067933.0	0.87	1.61
26/01/2020 19:45:34	26012020	260120	194534	70.740	12.187037	-56.117642	70.810	-0.190	-0.210	-0.950	70.720	-1.600	-0.600																			1580067934.0	0.61	1.13
26/01/2020 19:45:35	26012020	260120	194535	70.640	12.187037	-56.117643	70.690	-0.230	-0.380	-0.300	70.620	-1.800	0.100																			1580067935.0	0.40	0.74
26/01/2020 19:45:36	26012020	260120	194536	70.460	12.187032	-56.117642	70.550	-0.140	-0.540	0.510	70.430	-1.900	0.900																			1580067936.0	0.85	1.57
26/01/2020 19:45:37	26012020	260120	194537	70.350	12.187027	-56.117640	70.430	-0.020	-0.470	1.280	70.320	-1.900	1.600																			1580067937.0	1.26	2.33
26/01/2020 19:45:38	26012020	260120	194538	70.260	12.187022	-56.117638	70.380	0.100	-0.210	1.720	70.250	-1.600	2.100																			1580067938.0	1.23	2.28
26/01/2020 19:45:39	26012020	260120	194539	70.260	12.187018	-56.117638	70.390	0.220	0.010	1.650	70.270	-1.400	2.000																			1580067939.0	0.76	1.41
26/01/2020 19:45:40	26012020	260120	194540	70.300	12.187018	-56.117638	70.410	0.330	0.080	1.130	70.300	-1.300	1.500																			1580067940.0	0.22	0.41
26/01/2020 19:45:41	26012020	260120	194541	70.300	12.187022	-56.117640	70.400	0.330	0.070	0.420	70.300	-1.300	0.800																			1580067941.0	0.75	1.39
26/01/2020 19:45:42	26012020	260120	194542	70.240	12.187025	-56.117642	70.320	0.160	0.120	-0.160	70.210	-1.300	0.200																			1580067942.0	1.02	1.89
26/01/2020 19:45:43	26012020	260120	194543	70.120	12.187028	-56.117643	70.170	-0.120	0.200	-0.490	70.090	-1.200	-0.100																			1580067943.0	0.84	1.56
26/01/2020 19:45:44	26012020	260120	194544	70.020	12.187030	-56.117645	70.080	-0.330	0.170	-0.670	70.000	-1.200	-0.300																			1580067944.0	0.52	0.96
26/01/2020 19:45:45	26012020	260120	194545	69.960	12.187030	-56.117647	70.030	-0.330	-0.040	-0.720	69.940	-1.400	-0.400																			1580067945.0	0.26	0.48
26/01/2020 19:45:46	26012020	260120	194546	69.850	12.187030	-56.117647	69.910	-0.170	-0.300	-0.590	69.820	-1.700	-0.200																			1580067946.0	0.07	0.13
26/01/2020 19:45:47	26012020	260120	194547	69.710	12.187030	-56.117647	69.760	0.010	-0.450	-0.280	69.680	-1.800	0.100																			1580067947.0	0.16	0.30
26/01/2020 19:45:48	26012020	260120	194548	69.600	12.187028	-56.117647	69.670	0.110	-0.470	0.100	69.590	-1.900	0.500																			1580067948.0	0.27	0.50
26/01/2020 19:45:49	26012020	260120	194549	69.560	12.187027	-56.117647	69.640	0.150	-0.440	0.470	69.550	-1.800	0.800																			1580067949.0	0.33	0.61
26/01/2020 19:45:50	26012020	260120	194550	69.530	12.187025	-56.117647	69.630	0.150	-0.370	0.810	69.530	-1.700	1.200																			1580067950.0	0.34	0.63
26/01/2020 19:45:51	26012020	260120	194551	69.530	12.187023	-56.117647	69.640	0.140	-0.240	1.040	69.540	-1.600	1.400																			1580067951.0	0.39	0.72
26/01/2020 19:45:52	26012020	260120	194552	69.570	12.187022	-56.117645	69.680	0.080	-0.050	1.130	69.570	-1.400	1.500																			1580067952.0	0.42	0.78
26/01/2020 19:45:53	26012020	260120	194553	69.590	12.187020	-56.117645	69.700	-0.030	0.240	1.060	69.590	-1.200	1.400																			1580067953.0	0.30	0.56
26/01/2020 19:45:54	26012020	260120	194554	69.620	12.187020	-56.117647	69.740	-0.140	0.440	0.770	69.630	-0.900	1.100																			1580067954.0	0.25	0.46
26/01/2020 19:45:55	26012020	260120	194555	69.690	12.187020	-56.117648	69.800	-0.160	0.400	0.280	69.710	-1.000	0.600																			1580067955.0	0.44	0.81
26/01/2020 19:45:56	26012020	260120	194556	69.750	12.187023	-56.117650	69.840	-0.080	0.110	-0.220	69.760	-1.300	0.100																			1580067956.0	0.63	1.17
26/01/2020 19:45:57	26012020	260120	194557	69.770	12.187027	-56.117650	69.840	0.060	-0.280	-0.580	69.770	-1.700	-0.200																			1580067957.0	0.67	1.24
26/01/2020 19:45:58	26012020	260120	194558	69.790	12.187028	-56.117652	69.840	0.170	-0.600	-0.740	69.790	-2.000	-0.400																			1580067958.0	0.56	1.04
26/01/2020 19:45:59	26012020	260120	194559	69.810	12.187030	-56.117652	69.880	0.190	-0.720	-0.690	69.820	-2.100	-0.300	1013.70	26.30	26.30	21.00	21.10	346.00	72.00	73.00	395.00	29.10	360.00	3.10	70.00	2.90	23694	3353.00	27.80	27.80	1580067959.0	0.37	0.69
26/01/2020 19:46:00	26012020	260120	194600	69.880	12.187030	-56.117652	69.940	0.100	-0.550	-0.400	69.890	-1.900	-0.000																			1580067960.0	0.08	0.15
26/01/2020 19:46:01	26012020	260120	194601	69.910	12.187028	-56.117652	69.980	-0.060	-0.140	0.140	69.910	-1.500	0.500																			1580067961.0	0.41	0.76
26/01/2020 19:46:02	26012020	260120	194602	69.910	12.187025	-56.117652	70.000	-0.230	0.270	0.740	69.910	-1.100	1.100																			1580067962.0	0.84	1.56
26/01/2020 19:46:03	26012020	260120	194603	69.940	12.187020	-56.117653	70.070	-0.280	0.360	1.080	69.960	-1.000	1.400																			1580067963.0	0.94	1.74
26/01/2020 19:46:04	26012020	260120	194604	70.050	12.187018	-56.117653	70.190	-0.120	0.050	1.090	70.080	-1.300	1.400																			1580067964.0	0.56	1.04
26/01/2020 19:46:05	26012020	260120	194605	70.240	12.187018	-56.117652	70.390	0.190	-0.380	0.910	70.290	-1.800	1.300																			1580067965.0	0.26	0.48
26/01/2020 19:46:06	26012020	260120	194606	70.460	12.187020	-56.117650	70.600	0.430	-0.570	0.660	70.490	-1.900	1.000																			1580067966.0	0.45	0.83
26/01/2020 19:46:07	26012020	260120	194607	70.610	12.187022	-56.117650	70.730	0.410	-0.320	0.380	70.630	-1.700	0.700																			1580067967.0	0.40	0.74
26/01/2020 19:46:08	26012020	260120	194608	70.640	12.187023	-56.117652	70.750	0.120	0.210	0.130	70.630	-1.200	0.500																			1580067968.0	0.50	0.93
26/01/2020 19:46:09	26012020	260120	194609	70.570	12.187023	-56.117655	70.680	-0.270	0.620	0.030	70.550	-0.800	0.400																			1580067969.0	0.74	1.37
26/01/2020 19:46:10	26012020	260120	194610	70.510	12.187023	-56.117658	70.640	-0.510	0.510	-0.000	70.520	-0.900	0.400																			1580067970.0	0.68	1.26
26/01/2020 19:46:11	26012020	260120	194611	70.570	12.187023	-56.117660	70.730	-0.440	-0.130	-0.080	70.600	-1.500	0.300																			1580067971.0	0.25	0.46
26/01/2020 19:46:12	26012020	260120	194612	70.750	12.187025	-56.117658	70.880	-0.140	-0.820	-0.110	70.780	-2.200	0.300																			1580067972.0	0.38	0.70
26/01/2020 19:46:13	26012020	260120	194613	70.820	12.187025	-56.117655	70.940	0.140	-1.050	0.030	70.830	-2.400	0.400																			1580067973.0	0.50	0.93
26/01/2020 19:46:14	26012020	260120	194614	70.810	12.187023	-56.117655	70.920	0.280	-0.720	0.260	70.810	-2.100	0.600																			1580067974.0	0.38	0.70
26/01/2020 19:46:15	26012020	260120	194615	70.800	12.187022	-56.117655	70.920	0.300	-0.170	0.370	70.810	-1.600	0.700																			1580067975.0	0.50	0.93
26/01/2020 19:46:16	26012020	260120	194616	70.870	12.187020	-56.117657	71.000	0.290	0.290	0.340	70.880	-1.100	0.700																			1580067976.0	0.43	0.80
26/01/2020 19:46:17	26012020	260120	194617	70.980	12.187022	-56.117658	71.110	0.230	0.530	0.210	71.010	-0.900	0.600																			1580067977.0	0.34	0.63
26/01/2020 19:46:18	26012020	260120	194618	71.160	12.187023	-56.117660	71.290	0.080	0.520	0.000	71.200	-0.900	0.400																			1580067978.0	0.44	0.81
26/01/2020 19:46:19	26012020	260120	194619	71.370	12.187025	-56.117660	71.490	-0.110	0.240	-0.170	71.410	-1.100	0.200																			1580067979.0	0.48	0.89
26/01/2020 19:46:20	26012020	260120	194620	71.480	12.187027	-56.117662	71.600	-0.260	-0.180	-0.120	71.490	-1.600	0.200																			1580067980.0	0.30	0.56
26/01/2020 19:46:21	26012020	260120	194621	71.430	12.187025	-56.117660	71.520	-0.320	-0.540	0.180	71.400	-1.900	0.500																			1580067981.0	0.20	0.37
26/01/2020 19:46:22	26012020	260120	194622	71.290	12.187023	-56.117658	71.390	-0.290	-0.630	0.600	71.260	-2.000	1.000																			1580067982.0	0.55	1.02
26/01/2020 19:46:23	26012020	260120	194623	71.190	12.187020	-56.117658	71.270	-0.190	-0.470	0.880	71.180	-1.900	1.200																			1580067983.0	0.74	1.37
26/01/2020 19:46:24	26012020	260120	194624	71.120	12.187018	-56.117658	71.220	-0.050	-0.190	0.850	71.110	-1.600	1.200																			1580067984.0	0.58	1.07
26/01/2020 19:46:25	26012020	260120	194625	71.130	12.187017	-56.117658	71.250	0.110	0.040	0.510	71.150	-1.300	0.900																			1580067985.0	0.26	0.48
26/01/2020 19:46:26	26012020	260120	194626	71.310	12.187018	-56.117660	71.410	0.280	0.090	-0.070	71.360	-1.300	0.300																			1580067986.0	0.54	1.00
26/01/2020 19:46:27	26012020	260120	194627	71.510	12.187023	-56.117662	71.640	0.370	-0.010	-0.690	71.550	-1.400	-0.300																			1580067987.0	0.87	1.61
26/01/2020 19:46:28	26012020	260120	194628	71.700	12.187027	-56.117663	71.770	0.310	-0.120	-1.010	71.710	-1.500	-0.700																			1580067988.0	0.92	1.70
26/01/2020 19:46:29	26012020	260120	194629	71.690	12.187030	-56.117663	71.730	0.100	-0.120	-0.860	71.670	-1.500	-0.500																			1580067989.0	0.50	0.93
26/01/2020 19:46:30	26012020	260120	194630	71.560	12.187028	-56.117663	71.610	-0.150	-0.090	-0.380	71.530	-1.500	-0.000																			1580067990.0	0.17	0.31
26/01/2020 19:46:31	26012020	260120	194631	71.420	12.187025	-56.117663	71.480	-0.280	-0.120	0.200	71.400	-1.500	0.500																			1580067991.0	0.65	1.20
26/01/2020 19:46:32	26012020	260120	194632	71.350	12.187022	-56.117662	71.430	-0.230	-0.210	0.660	71.350	-1.600	1.000																			1580067992.0	0.82	1.52
26/01/2020 19:46:33	26012020	260120	194633	71.360	12.187018	-56.117660	71.450	-0.070	-0.250	0.930	71.370	-1.600	1.300																			1580067993.0	0.72	1.33
26/01/2020 19:46:34	26012020	260120	194634	71.430	12.187017	-56.117660	71.540	0.070	-0.190	0.920	71.460	-1.600	1.300																			1580067994.0	0.43	0.80
26/01/2020 19:46:35	26012020	260120	194635	71.620	12.187017	-56.117660	71.740	0.100	-0.060	0.600	71.660	-1.400	1.000																			1580067995.0	0.06	0.11
26/01/2020 19:46:36	26012020	260120	194636	71.840	12.187018	-56.117660	71.950	0.020	0.070	0.190	71.880	-1.300	0.500																			1580067996.0	0.38	0.70
26/01/2020 19:46:37	26012020	260120	194637	71.970	12.187020	-56.117662	72.050	-0.110	0.200	-0.090	71.970	-1.200	0.300																			1580067997.0	0.47	0.87
26/01/2020 19:46:38	26012020	260120	194638	71.960	12.187020	-56.117663	72.020	-0.170	0.220	-0.220	71.940	-1.200	0.100																			1580067998.0	0.35	0.65
26/01/2020 19:46:39	26012020	260120	194639	71.890	12.187020	-56.117665	71.930	-0.090	-0.060	-0.270	71.870	-1.400	0.100																			1580067999.0	0.20	0.37
26/01/2020 19:46:40	26012020	260120	194640	71.810	12.187022	-56.117663	71.870	0.140	-0.570	-0.320	71.810	-2.000	0.000																			1580068000.0	0.13	0.24
26/01/2020 19:46:41	26012020	260120	194641	71.800	12.187022	-56.117662	71.850	0.360	-0.940	-0.350	71.800	-2.300	0.000																			1580068001.0	0.47	0.87
26/01/2020 19:46:42	26012020	260120	194642	71.800	12.187023	-56.117660	71.850	0.420	-0.800	-0.260	71.800	-2.200	0.100																			1580068002.0	0.45	0.83
26/01/2020 19:46:43	26012020	260120	194643	71.790	12.187023	-56.117660	71.840	0.250	-0.210	-0.080	71.780	-1.600	0.300																			1580068003.0	0.04	0.07
26/01/2020 19:46:44	26012020	260120	194644	71.790	12.187022	-56.117662	71.850	-0.050	0.440	0.060	71.800	-0.900	0.400																			1580068004.0	0.41	0.76
26/01/2020 19:46:45	26012020	260120	194645	71.870	12.187020	-56.117663	71.950	-0.310	0.720	0.150	71.900	-0.700	0.500																			1580068005.0	0.53	0.98
26/01/2020 19:46:46	26012020	260120	194646	72.090	12.187020	-56.117665	72.190	-0.380	0.530	0.140	72.150	-0.900	0.500																			1580068006.0	0.28	0.52
26/01/2020 19:46:47	26012020	260120	194647	72.410	12.187018	-56.117663	72.510	-0.270	0.060	0.120	72.480	-1.300	0.500																			1580068007.0	0.25	0.46
26/01/2020 19:46:48	26012020	260120	194648	72.690	12.187018	-56.117662	72.770	-0.130	-0.300	0.140	72.730	-1.700	0.500																			1580068008.0	0.43	0.80
26/01/2020 19:46:49	26012020	260120	194649	72.820	12.187017	-56.117660	72.890	-0.090	-0.370	0.270	72.820	-1.700	0.600																			1580068009.0	0.40	0.74
26/01/2020 19:46:50	26012020	260120	194650	72.760	12.187015	-56.117660	72.820	-0.130	-0.240	0.520	72.730	-1.600	0.900																			1580068010.0	0.50	0.93
26/01/2020 19:46:51	26012020	260120	194651	72.600	12.187012	-56.117660	72.620	-0.130	-0.190	0.770	72.570	-1.600	1.100																			1580068011.0	0.65	1.20
26/01/2020 19:46:52	26012020	260120	194652	72.380	12.187010	-56.117662	72.450	0.050	-0.370	0.800	72.360	-1.700	1.200																			1580068012.0	0.45	0.83
26/01/2020 19:46:53	26012020	260120	194653	72.340	12.187010	-56.117660	72.420	0.400	-0.660	0.520	72.350	-2.000	0.900																			1580068013.0	0.11	0.20
26/01/2020 19:46:54	26012020	260120	194654	72.410	12.187012	-56.117660	72.490	0.760	-0.750	0.030	72.430	-2.100	0.400																			1580068014.0	0.57	1.06
26/01/2020 19:46:55	26012020	260120	194655	72.490	12.187015	-56.117658	72.560	0.850	-0.410	-0.450	72.500	-1.800	-0.100																			1580068015.0	0.76	1.41
26/01/2020 19:46:56	26012020	260120	194656	72.530	12.187018	-56.117660	72.590	0.540	0.190	-0.740	72.540	-1.200	-0.400																			1580068016.0	0.69	1.28
26/01/2020 19:46:57	26012020	260120	194657	72.600	12.187020	-56.117662	72.660	-0.050	0.630	-0.820	72.630	-0.800	-0.500																			1580068017.0	0.61	1.13
26/01/2020 19:46:58	26012020	260120	194658	72.790	12.187022	-56.117663	72.860	-0.610	0.640	-0.690	72.840	-0.800	-0.300																			1580068018.0	0.38	0.70
26/01/2020 19:46:59	26012020	260120	194659	73.070	12.187020	-56.117663	73.150	-0.890	0.310	-0.310	73.120	-1.100	0.000	1013.70	26.30	26.30	21.20	21.20	329.00	73.00	73.00	393.00	29.10	12.00	3.20	84.00	3.10	22933	3296.00	27.80	27.80	1580068019.0	0.15	0.28
26/01/2020 19:47:00	26012020	260120	194700	73.280	12.187018	-56.117662	73.370	-0.850	-0.050	0.340	73.310	-1.400	0.700																			1580068020.0	0.79	1.46
26/01/2020 19:47:01	26012020	260120	194701	73.320	12.187012	-56.117658	73.390	-0.620	-0.200	1.110	73.310	-1.600	1.500																			1580068021.0	1.39	2.57
26/01/2020 19:47:02	26012020	260120	194702	73.170	12.187005	-56.117657	73.260	-0.310	-0.180	1.680	73.140	-1.600	2.000																			1580068022.0	1.63	3.02
26/01/2020 19:47:03	26012020	260120	194703	73.040	12.186998	-56.117657	73.130	0.090	-0.200	1.840	73.020	-1.600	2.200																			1580068023.0	1.33	2.46
26/01/2020 19:47:04	26012020	260120	194704	73.000	12.186995	-56.117657	73.120	0.540	-0.410	1.460	73.010	-1.800	1.800																			1580068024.0	0.54	1.00
26/01/2020 19:47:05	26012020	260120	194705	73.070	12.186998	-56.117657	73.220	0.930	-0.760	0.640	73.090	-2.100	1.000																			1580068025.0	0.51	0.94
26/01/2020 19:47:06	26012020	260120	194706	73.190	12.187005	-56.117657	73.270	1.050	-0.920	-0.300	73.190	-2.300	0.100																			1580068026.0	1.36	2.52
26/01/2020 19:47:07	26012020	260120	194707	73.140	12.187012	-56.117658	73.190	0.750	-0.600	-0.980	73.110	-2.000	-0.600																			1580068027.0	1.60	2.96
26/01/2020 19:47:08	26012020	260120	194708	72.920	12.187017	-56.117660	72.950	0.120	0.110	-1.130	72.860	-1.300	-0.800																			1580068028.0	1.19	2.20
26/01/2020 19:47:09	26012020	260120	194709	72.640	12.187018	-56.117663	72.680	-0.520	0.690	-0.800	72.600	-0.700	-0.400																			1580068029.0	0.65	1.20
26/01/2020 19:47:10	26012020	260120	194710	72.540	12.187015	-56.117663	72.610	-0.810	0.720	-0.320	72.550	-0.700	0.000																			1580068030.0	0.63	1.17
26/01/2020 19:47:11	26012020	260120	194711	72.720	12.187012	-56.117663	72.820	-0.670	0.240	0.030	72.790	-1.100	0.400																			1580068031.0	0.84	1.56
26/01/2020 19:47:12	26012020	260120	194712	73.090	12.187008	-56.117660	73.190	-0.320	-0.260	0.270	73.160	-1.600	0.600																			1580068032.0	1.01	1.87
26/01/2020 19:47:13	26012020	260120	194713	73.390	12.187005	-56.117657	73.480	-0.030	-0.400	0.530	73.430	-1.800	0.900																			1580068033.0	0.94	1.74
26/01/2020 19:47:14	26012020	260120	194714	73.430	12.187002	-56.117655	73.490	0.050	-0.110	0.880	73.390	-1.500	1.200																			1580068034.0	0.78	1.44
26/01/2020 19:47:15	26012020	260120	194715	73.150	12.186998	-56.117657	73.210	0.000	0.270	1.250	73.080	-1.100	1.600																			1580068035.0	0.84	1.56
26/01/2020 19:47:16	26012020	260120	194716	72.740	12.186995	-56.117658	72.800	-0.000	0.300	1.410	72.660	-1.100	1.800																			1580068036.0	0.78	1.44
26/01/2020 19:47:17	26012020	260120	194717	72.460	12.186995	-56.117660	72.500	0.160	-0.200	1.210	72.410	-1.600	1.600																			1580068037.0	0.32	0.59
26/01/2020 19:47:18	26012020	260120	194718	72.260	12.186998	-56.117660	72.360	0.410	-0.860	0.750	72.250	-2.200	1.100																			1580068038.0	0.69	1.28
26/01/2020 19:47:19	26012020	260120	194719	72.190	12.187003	-56.117658	72.270	0.560	-1.140	0.250	72.180	-2.500	0.600																			1580068039.0	1.05	1.94
26/01/2020 19:47:20	26012020	260120	194720	72.110	12.187007	-56.117658	72.180	0.440	-0.850	-0.170	72.090	-2.200	0.200																			1580068040.0	0.80	1.48
26/01/2020 19:47:21	26012020	260120	194721	72.000	12.187008	-56.117658	72.060	0.090	-0.190	-0.410	71.970	-1.600	-0.100																			1580068041.0	0.41	0.76
26/01/2020 19:47:22	26012020	260120	194722	71.830	12.187008	-56.117660	71.880	-0.330	0.480	-0.390	71.800	-0.900	-0.000																			1580068042.0	0.34	0.63
26/01/2020 19:47:23	26012020	260120	194723	71.720	12.187007	-56.117662	71.780	-0.600	0.850	-0.250	71.710	-0.500	0.100																			1580068043.0	0.43	0.80
26/01/2020 19:47:24	26012020	260120	194724	71.770	12.187005	-56.117662	71.850	-0.590	0.750	-0.230	71.800	-0.600	0.100																			1580068044.0	0.37	0.69
26/01/2020 19:47:25	26012020	260120	194725	71.930	12.187005	-56.117662	72.020	-0.310	0.250	-0.330	71.960	-1.100	0.000																			1580068045.0	0.22	0.41
26/01/2020 19:47:26	26012020	260120	194726	72.050	12.187005	-56.117658	72.130	0.090	-0.300	-0.370	72.070	-1.700	-0.000																			1580068046.0	0.45	0.83
26/01/2020 19:47:27	26012020	260120	194727	72.090	12.187007	-56.117657	72.160	0.380	-0.520	-0.180	72.090	-1.900	0.200																			1580068047.0	0.41	0.76
26/01/2020 19:47:28	26012020	260120	194728	72.010	12.187005	-56.117657	72.070	0.410	-0.400	0.240	71.980	-1.800	0.600																			1580068048.0	0.17	0.31
26/01/2020 19:47:29	26012020	260120	194729	71.890	12.187003	-56.117658	71.920	0.230	-0.240	0.690	71.860	-1.600	1.000																			1580068049.0	0.45	0.83
26/01/2020 19:47:30	26012020	260120	194730	71.740	12.187002	-56.117658	71.830	-0.010	-0.280	0.980	71.720	-1.700	1.300																			1580068050.0	0.44	0.81
26/01/2020 19:47:31	26012020	260120	194731	71.680	12.187002	-56.117658	71.780	-0.160	-0.440	1.120	71.670	-1.800	1.500																			1580068051.0	0.22	0.41
26/01/2020 19:47:32	26012020	260120	194732	71.620	12.187000	-56.117657	71.730	-0.210	-0.380	1.230	71.600	-1.800	1.600																			1580068052.0	0.36	0.67
26/01/2020 19:47:33	26012020	260120	194733	71.580	12.186998	-56.117655	71.690	-0.220	-0.080	1.140	71.580	-1.500	1.500																			1580068053.0	0.38	0.70
26/01/2020 19:47:34	26012020	260120	194734	71.660	12.186997	-56.117657	71.770	-0.160	0.160	0.680	71.700	-1.200	1.000																			1580068054.0	0.25	0.46
26/01/2020 19:47:35	26012020	260120	194735	71.850	12.186998	-56.117658	71.950	-0.040	0.140	-0.030	71.890	-1.200	0.300																			1580068055.0	0.36	0.67
26/01/2020 19:47:36	26012020	260120	194736	72.020	12.187002	-56.117658	72.110	0.080	-0.050	-0.640	72.050	-1.400	-0.300																			1580068056.0	0.73	1.35
26/01/2020 19:47:37	26012020	260120	194737	72.110	12.187005	-56.117658	72.170	0.100	-0.190	-0.930	72.110	-1.600	-0.600																			1580068057.0	0.72	1.33
26/01/2020 19:47:38	26012020	260120	194738	72.070	12.187007	-56.117658	72.110	0.020	-0.170	-0.880	72.040	-1.500	-0.500																			1580068058.0	0.35	0.65
26/01/2020 19:47:39	26012020	260120	194739	71.940	12.187007	-56.117658	71.960	-0.020	-0.090	-0.600	71.920	-1.500	-0.200																			1580068059.0	0.08	0.15
26/01/2020 19:47:40	26012020	260120	194740	71.860	12.187005	-56.117658	71.910	0.070	-0.090	-0.220	71.860	-1.500	0.100																			1580068060.0	0.33	0.61
26/01/2020 19:47:41	26012020	260120	194741	71.900	12.187003	-56.117658	71.970	0.250	-0.120	0.130	71.920	-1.500	0.500																			1580068061.0	0.39	0.72
26/01/2020 19:47:42	26012020	260120	194742	72.000	12.187002	-56.117657	72.060	0.330	-0.040	0.410	72.010	-1.400	0.800																			1580068062.0	0.32	0.59
26/01/2020 19:47:43	26012020	260120	194743	72.010	12.187002	-56.117657	72.080	0.200	0.070	0.700	72.000	-1.300	1.100																			1580068063.0	0.16	0.30
26/01/2020 19:47:44	26012020	260120	194744	71.960	12.187000	-56.117658	72.050	-0.080	0.060	1.080	71.940	-1.300	1.400																			1580068064.0	0.23	0.43
26/01/2020 19:47:45	26012020	260120	194745	71.840	12.186998	-56.117658	71.930	-0.380	-0.150	1.470	71.810	-1.500	1.800																			1580068065.0	0.33	0.61
26/01/2020 19:47:46	26012020	260120	194746	71.680	12.186997	-56.117657	71.770	-0.560	-0.400	1.700	71.640	-1.800	2.000																			1580068066.0	0.50	0.93
26/01/2020 19:47:47	26012020	260120	194747	71.480	12.186995	-56.117655	71.590	-0.570	-0.440	1.710	71.440	-1.800	2.100																			1580068067.0	0.57	1.06
26/01/2020 19:47:48	26012020	260120	194748	71.310	12.186993	-56.117653	71.420	-0.420	-0.240	1.480	71.280	-1.600	1.800																			1580068068.0	0.47	0.87
26/01/2020 19:47:49	26012020	260120	194749	71.220	12.186992	-56.117653	71.320	-0.090	-0.030	0.870	71.210	-1.400	1.200																			1580068069.0	0.21	0.39
26/01/2020 19:47:50	26012020	260120	194750	71.270	12.186993	-56.117655	71.370	0.380	-0.040	-0.140	71.290	-1.400	0.200																			1580068070.0	0.46	0.85
26/01/2020 19:47:51	26012020	260120	194751	71.400	12.187000	-56.117657	71.460	0.840	-0.210	-1.300	71.420	-1.600	-1.000																			1580068071.0	1.20	2.22
26/01/2020 19:47:52	26012020	260120	194752	71.440	12.187007	-56.117657	71.450	1.020	-0.320	-2.140	71.430	-1.700	-1.800																			1580068072.0	1.68	3.11
26/01/2020 19:47:53	26012020	260120	194753	71.360	12.187015	-56.117657	71.340	0.750	-0.220	-2.300	71.330	-1.600	-1.900																			1580068073.0	1.49	2.76
26/01/2020 19:47:54	26012020	260120	194754	71.190	12.187017	-56.117658	71.200	0.130	0.040	-1.800	71.160	-1.300	-1.400																			1580068074.0	0.71	1.31
26/01/2020 19:47:55	26012020	260120	194755	71.130	12.187017	-56.117658	71.160	-0.530	0.280	-0.840	71.130	-1.100	-0.500																			1580068075.0	0.26	0.48
26/01/2020 19:47:56	26012020	260120	194756	71.190	12.187012	-56.117658	71.260	-0.920	0.330	0.290	71.200	-1.000	0.600																			1580068076.0	1.01	1.87
26/01/2020 19:47:57	26012020	260120	194757	71.230	12.187005	-56.117655	71.340	-0.980	0.280	1.470	71.230	-1.100	1.800																			1580068077.0	1.60	2.96
26/01/2020 19:47:58	26012020	260120	194758	71.180	12.186997	-56.117653	71.300	-0.810	0.120	2.460	71.160	-1.200	2.800																			1580068078.0	1.94	3.59
26/01/2020 19:47:59	26012020	260120	194759	71.110	12.186988	-56.117650	71.250	-0.480	-0.170	2.940	71.110	-1.500	3.300	1013.70	26.30	26.30	21.10	21.20	318.00	73.00	73.00	390.00	29.10	12.00	3.40	85.00	3.10	22395	3371.00	27.70	27.80	1580068079.0	1.79	3.32
26/01/2020 19:48:00	26012020	260120	194800	71.100	12.186983	-56.117648	71.220	0.000	-0.580	2.700	71.100	-1.900	3.000																			1580068080.0	1.05	1.94
26/01/2020 19:48:01	26012020	260120	194801	71.110	12.186983	-56.117647	71.200	0.560	-0.890	1.810	71.120	-2.300	2.200																			1580068081.0	0.27	0.50
26/01/2020 19:48:02	26012020	260120	194802	71.160	12.186990	-56.117647	71.240	0.980	-0.920	0.510	71.180	-2.300	0.800																			1580068082.0	1.25	2.31
26/01/2020 19:48:03	26012020	260120	194803	71.250	12.186998	-56.117650	71.300	1.060	-0.580	-0.810	71.270	-1.900	-0.500																			1580068083.0	1.94	3.59
26/01/2020 19:48:04	26012020	260120	194804	71.300	12.187007	-56.117653	71.300	0.760	-0.050	-1.740	71.290	-1.400	-1.400																			1580068084.0	1.98	3.67
26/01/2020 19:48:05	26012020	260120	194805	71.240	12.187013	-56.117655	71.190	0.220	0.450	-2.030	71.210	-0.900	-1.700																			1580068085.0	1.40	2.59
26/01/2020 19:48:06	26012020	260120	194806	71.060	12.187015	-56.117657	71.040	-0.310	0.700	-1.720	71.030	-0.700	-1.400																			1580068086.0	0.55	1.02
26/01/2020 19:48:07	26012020	260120	194807	70.960	12.187013	-56.117657	70.960	-0.650	0.540	-1.030	70.950	-0.800	-0.700																			1580068087.0	0.34	0.63
26/01/2020 19:48:08	26012020	260120	194808	70.970	12.187010	-56.117655	71.000	-0.710	0.070	-0.170	70.990	-1.300	0.200																			1580068088.0	0.93	1.72
26/01/2020 19:48:09	26012020	260120	194809	71.090	12.187005	-56.117652	71.160	-0.580	-0.350	0.710	71.110	-1.700	1.100																			1580068089.0	1.31	2.43
26/01/2020 19:48:10	26012020	260120	194810	71.190	12.187000	-56.117648	71.280	-0.380	-0.440	1.490	71.190	-1.800	1.800																			1580068090.0	1.39	2.57
26/01/2020 19:48:11	26012020	260120	194811	71.160	12.186993	-56.117647	71.260	-0.220	-0.210	2.060	71.130	-1.600	2.400																			1580068091.0	1.25	2.31
26/01/2020 19:48:12	26012020	260120	194812	70.970	12.186990	-56.117647	71.050	-0.100	0.120	2.310	70.910	-1.200	2.600																			1580068092.0	0.99	1.83
26/01/2020 19:48:13	26012020	260120	194813	70.700	12.186987	-56.117648	70.770	0.020	0.230	2.140	70.650	-1.100	2.500																			1580068093.0	0.62	1.15
26/01/2020 19:48:14	26012020	260120	194814	70.470	12.186988	-56.117650	70.540	0.260	-0.170	1.480	70.440	-1.500	1.800																			1580068094.0	0.40	0.74
26/01/2020 19:48:15	26012020	260120	194815	70.360	12.186993	-56.117650	70.430	0.620	-0.890	0.440	70.360	-2.300	0.800																			1580068095.0	1.05	1.94
26/01/2020 19:48:16	26012020	260120	194816	70.360	12.187000	-56.117650	70.420	0.900	-1.340	-0.630	70.360	-2.700	-0.300																			1580068096.0	1.75	3.24
26/01/2020 19:48:17	26012020	260120	194817	70.360	12.187008	-56.117648	70.380	0.810	-0.960	-1.400	70.350	-2.300	-1.100																			1580068097.0	1.80	3.33
26/01/2020 19:48:18	26012020	260120	194818	70.290	12.187015	-56.117650	70.290	0.270	0.140	-1.660	70.270	-1.200	-1.300																			1580068098.0	1.21	2.24
26/01/2020 19:48:19	26012020	260120	194819	70.200	12.187015	-56.117655	70.180	-0.470	1.190	-1.430	70.180	-0.200	-1.100																			1580068099.0	0.87	1.61
26/01/2020 19:48:20	26012020	260120	194820	70.070	12.187012	-56.117658	70.080	-0.970	1.430	-0.800	70.050	0.100	-0.400																			1580068100.0	0.93	1.72
26/01/2020 19:48:21	26012020	260120	194821	70.010	12.187008	-56.117658	70.040	-0.920	0.700	-0.040	70.010	-0.700	0.300																			1580068101.0	0.92	1.70
26/01/2020 19:48:22	26012020	260120	194822	70.060	12.187003	-56.117653	70.120	-0.420	-0.450	0.610	70.080	-1.800	1.000																			1580068102.0	1.29	2.39
26/01/2020 19:48:23	26012020	260120	194823	70.130	12.187002	-56.117647	70.190	0.140	-1.140	1.130	70.140	-2.500	1.500																			1580068103.0	1.44	2.67
26/01/2020 19:48:24	26012020	260120	194824	70.130	12.186998	-56.117643	70.190	0.410	-0.990	1.490	70.120	-2.400	1.800																			1580068104.0	1.00	1.85
26/01/2020 19:48:25	26012020	260120	194825	70.050	12.186997	-56.117643	70.130	0.340	-0.310	1.580	70.040	-1.700	1.900																			1580068105.0	0.53	0.98
26/01/2020 19:48:26	26012020	260120	194826	69.940	12.186995	-56.117647	70.010	0.130	0.300	1.390	69.910	-1.100	1.700																			1580068106.0	0.71	1.31
26/01/2020 19:48:27	26012020	260120	194827	69.780	12.186997	-56.117650	69.840	-0.010	0.460	0.950	69.750	-0.900	1.300																			1580068107.0	0.78	1.44
26/01/2020 19:48:28	26012020	260120	194828	69.660	12.187000	-56.117652	69.720	-0.000	0.090	0.270	69.650	-1.300	0.600																			1580068108.0	0.81	1.50
26/01/2020 19:48:29	26012020	260120	194829	69.650	12.187003	-56.117652	69.710	0.100	-0.510	-0.510	69.660	-1.900	-0.200																			1580068109.0	1.04	1.93
26/01/2020 19:48:30	26012020	260120	194830	69.750	12.187010	-56.117652	69.790	0.190	-0.850	-1.110	69.770	-2.200	-0.800																			1580068110.0	1.19	2.20
26/01/2020 19:48:31	26012020	260120	194831	69.820	12.187013	-56.117650	69.870	0.150	-0.650	-1.350	69.840	-2.000	-1.000																			1580068111.0	0.86	1.59
26/01/2020 19:48:32	26012020	260120	194832	69.870	12.187015	-56.117652	69.890	-0.020	-0.080	-1.210	69.870	-1.400	-0.900																			1580068112.0	0.26	0.48
26/01/2020 19:48:33	26012020	260120	194833	69.900	12.187013	-56.117652	69.920	-0.210	0.420	-0.800	69.910	-0.900	-0.400																			1580068113.0	0.47	0.87
26/01/2020 19:48:34	26012020	260120	194834	69.970	12.187010	-56.117653	70.030	-0.300	0.510	-0.190	69.990	-0.900	0.200																			1580068114.0	0.74	1.37
26/01/2020 19:48:35	26012020	260120	194835	70.060	12.187005	-56.117652	70.140	-0.210	0.230	0.500	70.070	-1.100	0.800																			1580068115.0	0.90	1.67
26/01/2020 19:48:36	26012020	260120	194836	70.030	12.187002	-56.117650	70.100	-0.020	-0.090	1.170	70.010	-1.400	1.500																			1580068116.0	1.03	1.91
26/01/2020 19:48:37	26012020	260120	194837	69.870	12.186998	-56.117647	69.960	0.170	-0.250	1.640	69.830	-1.600	2.000																			1580068117.0	0.87	1.61
26/01/2020 19:48:38	26012020	260120	194838	69.710	12.186997	-56.117647	69.820	0.250	-0.310	1.700	69.690	-1.700	2.000																			1580068118.0	0.40	0.74
26/01/2020 19:48:39	26012020	260120	194839	69.670	12.186998	-56.117647	69.780	0.210	-0.320	1.380	69.680	-1.700	1.700																			1580068119.0	0.25	0.46
26/01/2020 19:48:40	26012020	260120	194840	69.730	12.187000	-56.117648	69.820	0.090	-0.260	0.880	69.740	-1.600	1.200																			1580068120.0	0.70	1.30
26/01/2020 19:48:41	26012020	260120	194841	69.770	12.187003	-56.117650	69.840	-0.080	-0.110	0.350	69.770	-1.500	0.700																			1580068121.0	0.79	1.46
26/01/2020 19:48:42	26012020	260120	194842	69.800	12.187007	-56.117652	69.870	-0.270	0.040	-0.160	69.810	-1.300	0.200																			1580068122.0	0.70	1.30
26/01/2020 19:48:43	26012020	260120	194843	69.810	12.187008	-56.117653	69.870	-0.380	0.050	-0.560	69.810	-1.300	-0.200																			1580068123.0	0.54	1.00
26/01/2020 19:48:44	26012020	260120	194844	69.810	12.187010	-56.117655	69.850	-0.330	-0.150	-0.760	69.810	-1.500	-0.400																			1580068124.0	0.26	0.48
26/01/2020 19:48:45	26012020	260120	194845	69.800	12.187010	-56.117653	69.810	-0.100	-0.390	-0.760	69.790	-1.800	-0.400																			1580068125.0	0.18	0.33
26/01/2020 19:48:46	26012020	260120	194846	69.750	12.187008	-56.117652	69.760	0.210	-0.470	-0.630	69.750	-1.800	-0.300																			1580068126.0	0.34	0.63
26/01/2020 19:48:47	26012020	260120	194847	69.730	12.187008	-56.117652	69.730	0.490	-0.380	-0.410	69.720	-1.800	-0.100																			1580068127.0	0.25	0.46
26/01/2020 19:48:48	26012020	260120	194848	69.680	12.187008	-56.117650	69.680	0.560	-0.190	-0.080	69.660	-1.600	0.300																			1580068128.0	0.13	0.24
26/01/2020 19:48:49	26012020	260120	194849	69.560	12.187008	-56.117650	69.580	0.360	0.070	0.310	69.530	-1.300	0.700																			1580068129.0	0.14	0.26
26/01/2020 19:48:50	26012020	260120	194850	69.420	12.187007	-56.117650	69.450	-0.010	0.330	0.660	69.400	-1.000	1.000																			1580068130.0	0.18	0.33
26/01/2020 19:48:51	26012020	260120	194851	69.400	12.187005	-56.117652	69.460	-0.330	0.440	0.880	69.410	-0.900	1.200																			1580068131.0	0.24	0.44
26/01/2020 19:48:52	26012020	260120	194852	69.550	12.187005	-56.117652	69.640	-0.460	0.330	0.880	69.600	-1.000	1.200																			1580068132.0	0.18	0.33
26/01/2020 19:48:53	26012020	260120	194853	69.770	12.187005	-56.117652	69.840	-0.400	0.110	0.730	69.800	-1.300	1.100																			1580068133.0	0.05	0.09
26/01/2020 19:48:54	26012020	260120	194854	69.850	12.187005	-56.117652	69.910	-0.250	-0.170	0.600	69.850	-1.600	0.900																			1580068134.0	0.04	0.07
26/01/2020 19:48:55	26012020	260120	194855	69.810	12.187005	-56.117652	69.830	-0.080	-0.480	0.510	69.790	-1.900	0.900																			1580068135.0	0.04	0.07
26/01/2020 19:48:56	26012020	260120	194856	69.640	12.187005	-56.117652	69.670	0.090	-0.750	0.450	69.610	-2.100	0.800																			1580068136.0	0.14	0.26
26/01/2020 19:48:57	26012020	260120	194857	69.530	12.187005	-56.117650	69.540	0.190	-0.770	0.290	69.500	-2.100	0.600																			1580068137.0	0.19	0.35
26/01/2020 19:48:58	26012020	260120	194858	69.400	12.187007	-56.117650	69.430	0.190	-0.430	0.010	69.390	-1.800	0.400																			1580068138.0	0.25	0.46
26/01/2020 19:48:59	26012020	260120	194859	69.380	12.187008	-56.117652	69.420	0.160	0.030	-0.400	69.400	-1.300	-0.000	1013.70	26.30	26.30	21.00	21.10	301.00	72.00	73.00	389.00	29.00	15.00	2.90	87.00	2.50	21663	3351.00	27.70	27.80	1580068139.0	0.57	1.06
26/01/2020 19:49:00	26012020	260120	194900	69.550	12.187012	-56.117655	69.600	0.200	0.180	-0.820	69.610	-1.200	-0.500																			1580068140.0	0.79	1.46
26/01/2020 19:49:01	26012020	260120	194901	69.880	12.187013	-56.117655	69.920	0.330	-0.030	-1.070	69.940	-1.400	-0.700																			1580068141.0	0.67	1.24
26/01/2020 19:49:02	26012020	260120	194902	70.080	12.187017	-56.117655	70.090	0.370	-0.210	-0.920	70.080	-1.600	-0.600																			1580068142.0	0.50	0.93
26/01/2020 19:49:03	26012020	260120	194903	69.980	12.187017	-56.117653	69.990	0.150	-0.070	-0.380	69.940	-1.400	-0.000																			1580068143.0	0.40	0.74
26/01/2020 19:49:04	26012020	260120	194904	69.780	12.187013	-56.117652	69.820	-0.230	0.280	0.340	69.750	-1.100	0.700																			1580068144.0	0.55	1.02
26/01/2020 19:49:05	26012020	260120	194905	69.700	12.187010	-56.117652	69.780	-0.540	0.460	0.970	69.710	-0.900	1.300																			1580068145.0	0.88	1.63
26/01/2020 19:49:06	26012020	260120	194906	69.820	12.187005	-56.117653	69.920	-0.560	0.260	1.330	69.860	-1.100	1.700																			1580068146.0	0.81	1.50
26/01/2020 19:49:07	26012020	260120	194907	70.040	12.187003	-56.117652	70.140	-0.320	-0.110	1.410	70.090	-1.500	1.700																			1580068147.0	0.52	0.96
26/01/2020 19:49:08	26012020	260120	194908	70.220	12.187003	-56.117650	70.310	-0.040	-0.320	1.220	70.240	-1.700	1.600																			1580068148.0	0.26	0.48
26/01/2020 19:49:09	26012020	260120	194909	70.260	12.187003	-56.117652	70.340	0.140	-0.280	0.850	70.250	-1.700	1.200																			1580068149.0	0.15	0.28
26/01/2020 19:49:10	26012020	260120	194910	70.170	12.187005	-56.117653	70.230	0.240	-0.260	0.440	70.140	-1.600	0.800																			1580068150.0	0.57	1.06
26/01/2020 19:49:11	26012020	260120	194911	70.030	12.187007	-56.117655	70.080	0.330	-0.480	0.090	70.000	-1.900	0.400																			1580068151.0	0.70	1.30
26/01/2020 19:49:12	26012020	260120	194912	69.940	12.187010	-56.117657	69.990	0.420	-0.860	-0.260	69.930	-2.200	0.100																			1580068152.0	0.75	1.39
26/01/2020 19:49:13	26012020	260120	194913	69.940	12.187015	-56.117655	69.980	0.440	-1.050	-0.570	69.950	-2.400	-0.200																			1580068153.0	0.94	1.74
26/01/2020 19:49:14	26012020	260120	194914	69.980	12.187018	-56.117653	70.030	0.310	-0.650	-0.650	69.990	-2.000	-0.300																			1580068154.0	0.82	1.52
26/01/2020 19:49:15	26012020	260120	194915	70.050	12.187020	-56.117653	70.120	0.020	0.220	-0.470	70.080	-1.200	-0.100																			1580068155.0	0.24	0.44
26/01/2020 19:49:16	26012020	260120	194916	70.250	12.187018	-56.117655	70.330	-0.320	1.050	-0.170	70.300	-0.300	0.200																			1580068156.0	0.53	0.98
26/01/2020 19:49:17	26012020	260120	194917	70.490	12.187013	-56.117657	70.590	-0.530	1.350	0.150	70.530	-0.000	0.500																			1580068157.0	0.83	1.54
26/01/2020 19:49:18	26012020	260120	194918	70.640	12.187010	-56.117657	70.720	-0.540	1.040	0.470	70.650	-0.300	0.800																			1580068158.0	0.77	1.43
26/01/2020 19:49:19	26012020	260120	194919	70.640	12.187008	-56.117657	70.720	-0.330	0.270	0.700	70.640	-1.100	1.000																			1580068159.0	0.58	1.07
26/01/2020 19:49:20	26012020	260120	194920	70.600	12.187008	-56.117655	70.690	-0.020	-0.640	0.790	70.590	-2.000	1.100																			1580068160.0	0.40	0.74
26/01/2020 19:49:21	26012020	260120	194921	70.550	12.187010	-56.117653	70.630	0.240	-1.260	0.780	70.540	-2.600	1.100																			1580068161.0	0.50	0.93
26/01/2020 19:49:22	26012020	260120	194922	70.430	12.187012	-56.117652	70.520	0.320	-1.310	0.710	70.410	-2.700	1.100																			1580068162.0	0.54	1.00
26/01/2020 19:49:23	26012020	260120	194923	70.260	12.187013	-56.117653	70.340	0.220	-0.870	0.620	70.230	-2.200	1.000																			1580068163.0	0.45	0.83
26/01/2020 19:49:24	26012020	260120	194924	70.080	12.187013	-56.117655	70.160	0.070	-0.300	0.510	70.070	-1.700	0.900																			1580068164.0	0.43	0.80
26/01/2020 19:49:25	26012020	260120	194925	70.090	12.187013	-56.117657	70.200	0.020	0.080	0.230	70.130	-1.300	0.600																			1580068165.0	0.34	0.63
26/01/2020 19:49:26	26012020	260120	194926	70.370	12.187015	-56.117657	70.490	0.120	0.150	-0.240	70.440	-1.200	0.100																			1580068166.0	0.18	0.33
26/01/2020 19:49:27	26012020	260120	194927	70.710	12.187017	-56.117657	70.810	0.250	0.130	-0.770	70.760	-1.200	-0.400																			1580068167.0	0.49	0.91
26/01/2020 19:49:28	26012020	260120	194928	70.860	12.187020	-56.117655	70.900	0.250	0.240	-1.150	70.850	-1.100	-0.800																			1580068168.0	0.61	1.13
26/01/2020 19:49:29	26012020	260120	194929	70.770	12.187022	-56.117657	70.800	0.100	0.400	-1.190	70.740	-1.000	-0.800																			1580068169.0	0.55	1.02
26/01/2020 19:49:30	26012020	260120	194930	70.630	12.187023	-56.117657	70.670	-0.070	0.400	-0.910	70.620	-1.000	-0.500																			1580068170.0	0.44	0.81
26/01/2020 19:49:31	26012020	260120	194931	70.620	12.187023	-56.117658	70.680	-0.200	0.150	-0.400	70.630	-1.200	-0.000																			1580068171.0	0.16	0.30
26/01/2020 19:49:32	26012020	260120	194932	70.760	12.187022	-56.117658	70.840	-0.330	-0.180	0.200	70.800	-1.600	0.600																			1580068172.0	0.33	0.61
26/01/2020 19:49:33	26012020	260120	194933	70.890	12.187020	-56.117657	71.000	-0.510	-0.380	0.790	70.910	-1.800	1.100																			1580068173.0	0.73	1.35
26/01/2020 19:49:34	26012020	260120	194934	70.930	12.187015	-56.117655	71.000	-0.600	-0.420	1.340	70.910	-1.800	1.700																			1580068174.0	0.99	1.83
26/01/2020 19:49:35	26012020	260120	194935	70.760	12.187010	-56.117655	70.840	-0.420	-0.450	1.750	70.710	-1.800	2.100																			1580068175.0	1.07	1.98
26/01/2020 19:49:36	26012020	260120	194936	70.530	12.187007	-56.117653	70.630	0.070	-0.600	1.800	70.500	-2.000	2.100																			1580068176.0	0.84	1.56
26/01/2020 19:49:37	26012020	260120	194937	70.420	12.187005	-56.117653	70.510	0.650	-0.700	1.340	70.410	-2.100	1.700																			1580068177.0	0.29	0.54
26/01/2020 19:49:38	26012020	260120	194938	70.440	12.187008	-56.117653	70.510	0.980	-0.460	0.410	70.460	-1.900	0.800																			1580068178.0	0.69	1.28
26/01/2020 19:49:39	26012020	260120	194939	70.540	12.187015	-56.117655	70.600	0.880	0.050	-0.680	70.570	-1.300	-0.300																			1580068179.0	1.48	2.74
26/01/2020 19:49:40	26012020	260120	194940	70.630	12.187023	-56.117660	70.650	0.470	0.430	-1.590	70.650	-1.000	-1.200																			1580068180.0	1.91	3.54
26/01/2020 19:49:41	26012020	260120	194941	70.660	12.187030	-56.117663	70.660	-0.010	0.440	-1.980	70.650	-1.000	-1.600																			1580068181.0	1.68	3.11
26/01/2020 19:49:42	26012020	260120	194942	70.600	12.187033	-56.117663	70.610	-0.400	0.210	-1.700	70.580	-1.200	-1.300																			1580068182.0	0.88	1.63
26/01/2020 19:49:43	26012020	260120	194943	70.530	12.187033	-56.117663	70.570	-0.700	-0.000	-0.820	70.520	-1.400	-0.500																			1580068183.0	0.34	0.63
26/01/2020 19:49:44	26012020	260120	194944	70.490	12.187027	-56.117660	70.570	-0.890	-0.050	0.360	70.490	-1.400	0.700																			1580068184.0	1.34	2.48
26/01/2020 19:49:45	26012020	260120	194945	70.480	12.187018	-56.117658	70.590	-0.890	-0.050	1.400	70.480	-1.400	1.700																			1580068185.0	1.99	3.69
26/01/2020 19:49:46	26012020	260120	194946	70.510	12.187010	-56.117655	70.630	-0.540	-0.130	1.910	70.510	-1.500	2.300																			1580068186.0	1.86	3.44
26/01/2020 19:49:47	26012020	260120	194947	70.520	12.187005	-56.117655	70.630	0.110	-0.250	1.830	70.510	-1.600	2.200																			1580068187.0	1.02	1.89
26/01/2020 19:49:48	26012020	260120	194948	70.420	12.187005	-56.117655	70.520	0.780	-0.380	1.350	70.400	-1.800	1.700																			1580068188.0	0.06	0.11
26/01/2020 19:49:49	26012020	260120	194949	70.290	12.187010	-56.117657	70.370	1.110	-0.540	0.670	70.260	-1.900	1.000																			1580068189.0	0.95	1.76
26/01/2020 19:49:50	26012020	260120	194950	70.190	12.187017	-56.117658	70.260	0.950	-0.630	-0.080	70.180	-2.000	0.300																			1580068190.0	1.55	2.87
26/01/2020 19:49:51	26012020	260120	194951	70.150	12.187023	-56.117660	70.220	0.430	-0.490	-0.710	70.160	-1.900	-0.400																			1580068191.0	1.67	3.09
26/01/2020 19:49:52	26012020	260120	194952	70.200	12.187030	-56.117662	70.250	-0.180	-0.100	-0.980	70.210	-1.500	-0.600																			1580068192.0	1.21	2.24
26/01/2020 19:49:53	26012020	260120	194953	70.270	12.187030	-56.117663	70.320	-0.620	0.320	-0.800	70.280	-1.100	-0.400																			1580068193.0	0.36	0.67
26/01/2020 19:49:54	26012020	260120	194954	70.320	12.187027	-56.117663	70.380	-0.750	0.520	-0.410	70.330	-0.900	-0.100																			1580068194.0	0.68	1.26
26/01/2020 19:49:55	26012020	260120	194955	70.340	12.187022	-56.117662	70.380	-0.580	0.370	-0.010	70.330	-1.000	0.300																			1580068195.0	1.05	1.94
26/01/2020 19:49:56	26012020	260120	194956	70.290	12.187018	-56.117660	70.340	-0.220	-0.010	0.360	70.270	-1.400	0.700																			1580068196.0	0.98	1.81
26/01/2020 19:49:57	26012020	260120	194957	70.180	12.187017	-56.117657	70.240	0.090	-0.270	0.590	70.160	-1.700	0.900																			1580068197.0	0.73	1.35
26/01/2020 19:49:58	26012020	260120	194958	70.150	12.187017	-56.117657	70.220	0.220	-0.220	0.530	70.160	-1.600	0.900																			1580068198.0	0.18	0.33
26/01/2020 19:49:59	26012020	260120	194959	70.250	12.187018	-56.117658	70.370	0.240	-0.050	0.190	70.290	-1.400	0.500	1013.70	26.30	26.30	21.20	21.20	291.00	73.00	73.00	389.00	29.00	11.00	3.70	83.00	3.40	21215	3346.00	27.70	27.70	1580068199.0	0.56	1.04
26/01/2020 19:50:00	26012020	260120	195000	70.540	12.187022	-56.117662	70.620	0.230	-0.030	-0.200	70.590	-1.400	0.100																			1580068200.0	0.91	1.69
26/01/2020 19:50:01	26012020	260120	195001	70.740	12.187023	-56.117663	70.790	0.190	-0.210	-0.360	70.750	-1.600	-0.000																			1580068201.0	0.76	1.41
26/01/2020 19:50:02	26012020	260120	195002	70.740	12.187025	-56.117663	70.770	0.090	-0.450	-0.150	70.710	-1.900	0.200																			1580068202.0	0.27	0.50
26/01/2020 19:50:03	26012020	260120	195003	70.560	12.187023	-56.117662	70.590	-0.030	-0.620	0.320	70.520	-2.000	0.700																			1580068203.0	0.32	0.59
26/01/2020 19:50:04	26012020	260120	195004	70.350	12.187022	-56.117660	70.400	-0.090	-0.580	0.780	70.320	-2.000	1.100																			1580068204.0	0.63	1.17
26/01/2020 19:50:05	26012020	260120	195005	70.290	12.187020	-56.117660	70.380	-0.050	-0.350	0.920	70.310	-1.700	1.300																			1580068205.0	0.59	1.09
26/01/2020 19:50:06	26012020	260120	195006	70.470	12.187018	-56.117658	70.580	0.020	-0.000	0.690	70.530	-1.400	1.000																			1580068206.0	0.27	0.50
26/01/2020 19:50:07	26012020	260120	195007	70.780	12.187018	-56.117660	70.880	0.040	0.350	0.230	70.840	-1.100	0.600																			1580068207.0	0.15	0.28
26/01/2020 19:50:08	26012020	260120	195008	71.050	12.187020	-56.117660	71.120	-0.020	0.550	-0.250	71.090	-0.900	0.100																			1580068208.0	0.43	0.80
26/01/2020 19:50:09	26012020	260120	195009	71.200	12.187022	-56.117662	71.270	-0.130	0.510	-0.630	71.230	-0.900	-0.300																			1580068209.0	0.51	0.94
26/01/2020 19:50:10	26012020	260120	195010	71.410	12.187023	-56.117663	71.450	-0.170	0.190	-0.860	71.450	-1.200	-0.500																			1580068210.0	0.45	0.83
26/01/2020 19:50:11	26012020	260120	195011	71.570	12.187025	-56.117663	71.630	-0.100	-0.220	-0.940	71.600	-1.600	-0.600																			1580068211.0	0.38	0.70
26/01/2020 19:50:12	26012020	260120	195012	71.760	12.187027	-56.117663	71.770	0.050	-0.540	-0.810	71.770	-1.900	-0.500																			1580068212.0	0.30	0.56
26/01/2020 19:50:13	26012020	260120	195013	71.770	12.187027	-56.117662	71.790	0.180	-0.650	-0.430	71.760	-2.000	-0.100																			1580068213.0	0.11	0.20
26/01/2020 19:50:14	26012020	260120	195014	71.690	12.187027	-56.117662	71.720	0.200	-0.580	0.190	71.670	-2.000	0.500																			1580068214.0	0.27	0.50
26/01/2020 19:50:15	26012020	260120	195015	71.680	12.187023	-56.117662	71.750	0.100	-0.440	0.780	71.690	-1.800	1.100																			1580068215.0	0.53	0.98
26/01/2020 19:50:16	26012020	260120	195016	71.820	12.187022	-56.117660	71.920	-0.050	-0.290	1.160	71.860	-1.700	1.500																			1580068216.0	0.64	1.19
26/01/2020 19:50:17	26012020	260120	195017	72.020	12.187018	-56.117658	72.140	-0.200	-0.030	1.330	72.050	-1.400	1.700																			1580068217.0	0.60	1.11
26/01/2020 19:50:18	26012020	260120	195018	72.200	12.187017	-56.117658	72.330	-0.340	0.350	1.240	72.240	-1.100	1.600																			1580068218.0	0.52	0.96
26/01/2020 19:50:19	26012020	260120	195019	72.370	12.187015	-56.117658	72.490	-0.400	0.600	0.860	72.410	-0.800	1.200																			1580068219.0	0.39	0.72
26/01/2020 19:50:20	26012020	260120	195020	72.520	12.187015	-56.117660	72.620	-0.250	0.460	0.270	72.540	-0.900	0.600																			1580068220.0	0.24	0.44
26/01/2020 19:50:21	26012020	260120	195021	72.600	12.187017	-56.117660	72.700	0.110	-0.100	-0.390	72.620	-1.500	-0.100																			1580068221.0	0.46	0.85
26/01/2020 19:50:22	26012020	260120	195022	72.650	12.187020	-56.117658	72.720	0.530	-0.710	-0.980	72.650	-2.100	-0.600																			1580068222.0	0.97	1.80
26/01/2020 19:50:23	26012020	260120	195023	72.660	12.187027	-56.117658	72.730	0.760	-0.960	-1.390	72.680	-2.300	-1.000																			1580068223.0	1.18	2.19
26/01/2020 19:50:24	26012020	260120	195024	72.750	12.187030	-56.117658	72.800	0.630	-0.630	-1.500	72.770	-2.000	-1.200																			1580068224.0	0.96	1.78
26/01/2020 19:50:25	26012020	260120	195025	72.830	12.187032	-56.117658	72.900	0.150	0.050	-1.120	72.850	-1.300	-0.800																			1580068225.0	0.50	0.93
26/01/2020 19:50:26	26012020	260120	195026	72.880	12.187030	-56.117662	72.950	-0.440	0.600	-0.280	72.870	-0.800	0.100																			1580068226.0	0.64	1.19
26/01/2020 19:50:27	26012020	260120	195027	72.810	12.187025	-56.117662	72.880	-0.830	0.660	0.740	72.780	-0.700	1.100																			1580068227.0	1.17	2.17
26/01/2020 19:50:28	26012020	260120	195028	72.720	12.187018	-56.117660	72.830	-0.830	0.250	1.550	72.720	-1.100	1.900																			1580068228.0	1.42	2.63
26/01/2020 19:50:29	26012020	260120	195029	72.760	12.187013	-56.117657	72.880	-0.450	-0.300	1.930	72.780	-1.700	2.300																			1580068229.0	1.34	2.48
26/01/2020 19:50:30	26012020	260120	195030	72.910	12.187010	-56.117653	73.050	0.030	-0.610	1.910	72.940	-2.000	2.200																			1580068230.0	1.00	1.85
26/01/2020 19:50:31	26012020	260120	195031	73.050	12.187008	-56.117652	73.180	0.340	-0.630	1.510	73.070	-2.000	1.800																			1580068231.0	0.43	0.80
26/01/2020 19:50:32	26012020	260120	195032	73.080	12.187010	-56.117652	73.170	0.380	-0.480	0.870	73.070	-1.900	1.200																			1580068232.0	0.25	0.46
26/01/2020 19:50:33	26012020	260120	195033	72.970	12.187013	-56.117653	73.040	0.270	-0.260	0.110	72.940	-1.700	0.400																			1580068233.0	0.76	1.41
26/01/2020 19:50:34	26012020	260120	195034	72.780	12.187017	-56.117655	72.820	0.140	0.040	-0.600	72.750	-1.400	-0.300																			1580068234.0	1.01	1.87
26/01/2020 19:50:35	26012020	260120	195035	72.660	12.187022	-56.117657	72.680	0.080	0.260	-1.180	72.650	-1.100	-0.800																			1580068235.0	1.00	1.85
26/01/2020 19:50:36	26012020	260120	195036	72.690	12.187025	-56.117658	72.730	0.120	0.230	-1.580	72.720	-1.200	-1.200																			1580068236.0	0.84	1.56
26/01/2020 19:50:37	26012020	260120	195037	72.880	12.187028	-56.117658	72.930	0.190	0.010	-1.710	72.880	-1.400	-1.400																			1580068237.0	0.59	1.09
26/01/2020 19:50:38	26012020	260120	195038	73.040	12.187028	-56.117657	73.100	0.180	-0.230	-1.450	73.060	-1.600	-1.100																			1580068238.0	0.37	0.69
26/01/2020 19:50:39	26012020	260120	195039	73.060	12.187028	-56.117655	73.110	0.050	-0.330	-0.760	73.040	-1.700	-0.400																			1580068239.0	0.46	0.85
26/01/2020 19:50:40	26012020	260120	195040	72.920	12.187025	-56.117653	72.980	-0.160	-0.240	0.230	72.880	-1.600	0.600																			1580068240.0	0.82	1.52
26/01/2020 19:50:41	26012020	260120	195041	72.750	12.187020	-56.117652	72.830	-0.360	-0.060	1.310	72.750	-1.400	1.600																			1580068241.0	1.14	2.11
26/01/2020 19:50:42	26012020	260120	195042	72.620	12.187013	-56.117652	72.740	-0.470	0.100	2.240	72.600	-1.300	2.600																			1580068242.0	1.36	2.52
26/01/2020 19:50:43	26012020	260120	195043	72.550	12.187007	-56.117650	72.680	-0.470	0.140	2.740	72.540	-1.300	3.100																			1580068243.0	1.37	2.54
26/01/2020 19:50:44	26012020	260120	195044	72.540	12.187002	-56.117648	72.670	-0.320	0.020	2.620	72.550	-1.400	2.900																			1580068244.0	0.95	1.76
26/01/2020 19:50:45	26012020	260120	195045	72.590	12.187002	-56.117648	72.700	-0.030	-0.200	1.860	72.600	-1.600	2.200																			1580068245.0	0.21	0.39
26/01/2020 19:50:46	26012020	260120	195046	72.660	12.187005	-56.117648	72.750	0.330	-0.450	0.680	72.680	-1.800	1.000																			1580068246.0	0.68	1.26
26/01/2020 19:50:47	26012020	260120	195047	72.730	12.187012	-56.117650	72.790	0.660	-0.640	-0.590	72.740	-2.000	-0.300																			1580068247.0	1.37	2.54
26/01/2020 19:50:48	26012020	260120	195048	72.750	12.187018	-56.117650	72.770	0.790	-0.600	-1.610	72.750	-2.000	-1.300																			1580068248.0	1.66	3.07
26/01/2020 19:50:49	26012020	260120	195049	72.760	12.187025	-56.117652	72.760	0.630	-0.310	-2.210	72.760	-1.700	-1.900																			1580068249.0	1.50	2.78
26/01/2020 19:50:50	26012020	260120	195050	72.790	12.187030	-56.117653	72.800	0.210	0.130	-2.220	72.790	-1.300	-1.900																			1580068250.0	0.98	1.81
26/01/2020 19:50:51	26012020	260120	195051	72.750	12.187030	-56.117655	72.770	-0.300	0.500	-1.520	72.740	-0.900	-1.200																			1580068251.0	0.26	0.48
26/01/2020 19:50:52	26012020	260120	195052	72.650	12.187025	-56.117655	72.700	-0.680	0.570	-0.370	72.640	-0.800	-0.000																			1580068252.0	0.95	1.76
26/01/2020 19:50:53	26012020	260120	195053	72.580	12.187018	-56.117653	72.660	-0.790	0.290	0.870	72.580	-1.100	1.200																			1580068253.0	1.62	3.00
26/01/2020 19:50:54	26012020	260120	195054	72.550	12.187010	-56.117650	72.670	-0.640	-0.130	1.940	72.550	-1.500	2.300																			1580068254.0	1.80	3.33
26/01/2020 19:50:55	26012020	260120	195055	72.580	12.187003	-56.117647	72.710	-0.360	-0.430	2.610	72.590	-1.800	2.900																			1580068255.0	1.61	2.98
26/01/2020 19:50:56	26012020	260120	195056	72.640	12.187000	-56.117645	72.770	-0.050	-0.500	2.740	72.640	-1.900	3.100																			1580068256.0	1.10	2.04
26/01/2020 19:50:57	26012020	260120	195057	72.630	12.186997	-56.117643	72.770	0.240	-0.430	2.410	72.620	-1.800	2.700																			1580068257.0	0.39	0.72
26/01/2020 19:50:58	26012020	260120	195058	72.540	12.186998	-56.117645	72.650	0.470	-0.310	1.730	72.520	-1.700	2.100																			1580068258.0	0.34	0.63
26/01/2020 19:50:59	26012020	260120	195059	72.450	12.187002	-56.117647	72.520	0.600	-0.220	0.770	72.430	-1.600	1.100	1013.70	26.30	26.30	21.10	21.10	267.00	73.00	73.00	388.00	28.90	358.00	4.00	71.00	3.60	20310	3368.00	27.70	27.70	1580068259.0	0.89	1.65
26/01/2020 19:51:00	26012020	260120	195100	72.370	12.187008	-56.117648	72.430	0.600	-0.180	-0.340	72.370	-1.600	0.000																			1580068260.0	1.29	2.39
26/01/2020 19:51:01	26012020	260120	195101	72.370	12.187015	-56.117650	72.430	0.500	-0.160	-1.390	72.380	-1.600	-1.000																			1580068261.0	1.47	2.72
26/01/2020 19:51:02	26012020	260120	195102	72.380	12.187022	-56.117652	72.410	0.320	-0.150	-2.010	72.370	-1.500	-1.700																			1580068262.0	1.39	2.57
26/01/2020 19:51:03	26012020	260120	195103	72.340	12.187025	-56.117652	72.340	0.070	-0.100	-2.030	72.330	-1.500	-1.700																			1580068263.0	0.97	1.80
26/01/2020 19:51:04	26012020	260120	195104	72.270	12.187027	-56.117652	72.300	-0.230	-0.010	-1.520	72.260	-1.400	-1.200																			1580068264.0	0.26	0.48
26/01/2020 19:51:05	26012020	260120	195105	72.220	12.187023	-56.117650	72.290	-0.560	0.160	-0.610	72.210	-1.200	-0.300																			1580068265.0	0.64	1.19
26/01/2020 19:51:06	26012020	260120	195106	72.160	12.187018	-56.117648	72.250	-0.840	0.390	0.550	72.150	-1.000	0.900																			1580068266.0	1.34	2.48
26/01/2020 19:51:07	26012020	260120	195107	72.120	12.187010	-56.117648	72.240	-0.960	0.480	1.620	72.110	-0.900	2.000																			1580068267.0	1.80	3.33
26/01/2020 19:51:08	26012020	260120	195108	72.120	12.187002	-56.117647	72.260	-0.760	0.270	2.300	72.130	-1.100	2.600																			1580068268.0	1.76	3.26
26/01/2020 19:51:09	26012020	260120	195109	72.150	12.186997	-56.117645	72.300	-0.220	-0.250	2.430	72.160	-1.600	2.800																			1580068269.0	1.26	2.33
26/01/2020 19:51:10	26012020	260120	195110	72.190	12.186995	-56.117643	72.300	0.490	-0.820	2.010	72.190	-2.200	2.300																			1580068270.0	0.55	1.02
26/01/2020 19:51:11	26012020	260120	195111	72.180	12.186997	-56.117642	72.280	1.020	-1.100	1.150	72.180	-2.500	1.500																			1580068271.0	0.69	1.28
26/01/2020 19:51:12	26012020	260120	195112	72.160	12.187003	-56.117642	72.250	1.150	-0.900	0.130	72.160	-2.300	0.500																			1580068272.0	1.41	2.61
26/01/2020 19:51:13	26012020	260120	195113	72.170	12.187012	-56.117645	72.230	0.830	-0.330	-0.750	72.180	-1.700	-0.400																			1580068273.0	1.75	3.24
26/01/2020 19:51:14	26012020	260120	195114	72.220	12.187018	-56.117648	72.260	0.210	0.280	-1.240	72.230	-1.100	-0.900																			1580068274.0	1.51	2.80
26/01/2020 19:51:15	26012020	260120	195115	72.250	12.187020	-56.117650	72.290	-0.410	0.610	-1.260	72.260	-0.800	-0.900																			1580068275.0	0.79	1.46
26/01/2020 19:51:16	26012020	260120	195116	72.240	12.187018	-56.117652	72.280	-0.780	0.550	-0.890	72.240	-0.800	-0.500																			1580068276.0	0.26	0.48
26/01/2020 19:51:17	26012020	260120	195117	72.200	12.187015	-56.117648	72.230	-0.770	0.240	-0.330	72.190	-1.200	0.000																			1580068277.0	0.92	1.70
26/01/2020 19:51:18	26012020	260120	195118	72.220	12.187010	-56.117645	72.290	-0.450	-0.140	0.230	72.240	-1.500	0.600																			1580068278.0	1.27	2.35
26/01/2020 19:51:19	26012020	260120	195119	72.350	12.187005	-56.117643	72.440	-0.020	-0.410	0.620	72.380	-1.800	1.000																			1580068279.0	1.18	2.19
26/01/2020 19:51:20	26012020	260120	195120	72.530	12.187003	-56.117640	72.640	0.290	-0.490	0.730	72.570	-1.900	1.100																			1580068280.0	0.68	1.26
26/01/2020 19:51:21	26012020	260120	195121	72.650	12.187003	-56.117640	72.750	0.330	-0.310	0.700	72.660	-1.700	1.000																			1580068281.0	0.07	0.13
26/01/2020 19:51:22	26012020	260120	195122	72.630	12.187003	-56.117642	72.690	0.160	0.040	0.710	72.600	-1.300	1.100																			1580068282.0	0.35	0.65
26/01/2020 19:51:23	26012020	260120	195123	72.480	12.187003	-56.117645	72.490	-0.070	0.310	0.780	72.430	-1.100	1.100																			1580068283.0	0.51	0.94
26/01/2020 19:51:24	26012020	260120	195124	72.160	12.187003	-56.117647	72.220	-0.190	0.210	0.790	72.100	-1.200	1.100																			1580068284.0	0.43	0.80
26/01/2020 19:51:25	26012020	260120	195125	71.970	12.187002	-56.117647	72.000	-0.120	-0.250	0.690	71.930	-1.600	1.000																			1580068285.0	0.04	0.07
26/01/2020 19:51:26	26012020	260120	195126	71.880	12.187003	-56.117645	71.970	0.070	-0.730	0.420	71.900	-2.100	0.800																			1580068286.0	0.43	0.80
26/01/2020 19:51:27	26012020	260120	195127	72.080	12.187007	-56.117643	72.170	0.250	-0.890	-0.060	72.080	-2.300	0.300																			1580068287.0	0.65	1.20
26/01/2020 19:51:28	26012020	260120	195128	72.370	12.187008	-56.117643	72.460	0.310	-0.560	-0.480	72.410	-1.900	-0.100																			1580068288.0	0.57	1.06
26/01/2020 19:51:29	26012020	260120	195129	72.480	12.187010	-56.117645	72.530	0.200	0.080	-0.500	72.470	-1.300	-0.200																			1580068289.0	0.33	0.61
26/01/2020 19:51:30	26012020	260120	195130	72.310	12.187008	-56.117647	72.350	-0.010	0.610	-0.180	72.260	-0.800	0.200																			1580068290.0	0.55	1.02
26/01/2020 19:51:31	26012020	260120	195131	71.990	12.187005	-56.117648	72.030	-0.180	0.640	0.260	71.920	-0.800	0.600																			1580068291.0	0.70	1.30
26/01/2020 19:51:32	26012020	260120	195132	71.660	12.187003	-56.117647	71.710	-0.190	0.190	0.690	71.600	-1.200	1.000																			1580068292.0	0.56	1.04
26/01/2020 19:51:33	26012020	260120	195133	71.490	12.187002	-56.117645	71.570	-0.100	-0.370	0.900	71.490	-1.800	1.200																			1580068293.0	0.59	1.09
26/01/2020 19:51:34	26012020	260120	195134	71.600	12.187002	-56.117642	71.690	0.000	-0.610	0.770	71.640	-2.000	1.100																			1580068294.0	0.52	0.96
26/01/2020 19:51:35	26012020	260120	195135	71.800	12.187003	-56.117642	71.890	0.030	-0.390	0.470	71.830	-1.800	0.800																			1580068295.0	0.24	0.44
26/01/2020 19:51:36	26012020	260120	195136	71.870	12.187003	-56.117643	71.910	0.010	0.060	0.240	71.860	-1.300	0.600																			1580068296.0	0.43	0.80
26/01/2020 19:51:37	26012020	260120	195137	71.750	12.187003	-56.117647	71.770	-0.030	0.340	0.140	71.710	-1.100	0.500																			1580068297.0	0.56	1.04
26/01/2020 19:51:38	26012020	260120	195138	71.530	12.187003	-56.117648	71.560	-0.040	0.180	0.120	71.490	-1.200	0.500																			1580068298.0	0.36	0.67
26/01/2020 19:51:39	26012020	260120	195139	71.360	12.187005	-56.117648	71.360	-0.020	-0.250	0.150	71.320	-1.600	0.500																			1580068299.0	0.11	0.20
26/01/2020 19:51:40	26012020	260120	195140	71.140	12.187005	-56.117647	71.180	-0.040	-0.610	0.190	71.120	-2.000	0.500																			1580068300.0	0.39	0.72
26/01/2020 19:51:41	26012020	260120	195141	71.080	12.187007	-56.117645	71.140	-0.090	-0.680	0.120	71.090	-2.100	0.500																			1580068301.0	0.35	0.65
26/01/2020 19:51:42	26012020	260120	195142	71.220	12.187007	-56.117645	71.270	-0.050	-0.480	-0.070	71.260	-1.900	0.300																			1580068302.0	0.18	0.33
26/01/2020 19:51:43	26012020	260120	195143	71.470	12.187007	-56.117645	71.520	0.130	-0.180	-0.260	71.520	-1.600	0.100																			1580068303.0	0.13	0.24
26/01/2020 19:51:44	26012020	260120	195144	71.670	12.187007	-56.117645	71.710	0.350	0.110	-0.250	71.690	-1.300	0.100																			1580068304.0	0.16	0.30
26/01/2020 19:51:45	26012020	260120	195145	71.660	12.187005	-56.117645	71.700	0.400	0.350	0.020	71.640	-1.000	0.400																			1580068305.0	0.41	0.76
26/01/2020 19:51:46	26012020	260120	195146	71.480	12.187002	-56.117645	71.510	0.180	0.430	0.350	71.430	-1.000	0.700																			1580068306.0	0.50	0.93
26/01/2020 19:51:47	26012020	260120	195147	71.290	12.187002	-56.117645	71.310	-0.150	0.220	0.480	71.260	-1.200	0.800																			1580068307.0	0.20	0.37
26/01/2020 19:51:48	26012020	260120	195148	71.220	12.187003	-56.117645	71.250	-0.360	-0.180	0.420	71.220	-1.600	0.800																			1580068308.0	0.30	0.56
26/01/2020 19:51:49	26012020	260120	195149	71.270	12.187005	-56.117645	71.360	-0.310	-0.520	0.350	71.300	-1.900	0.700																			1580068309.0	0.53	0.98
26/01/2020 19:51:50	26012020	260120	195150	71.440	12.187007	-56.117643	71.510	-0.140	-0.560	0.430	71.470	-1.900	0.800																			1580068310.0	0.27	0.50
26/01/2020 19:51:51	26012020	260120	195151	71.520	12.187005	-56.117643	71.590	-0.030	-0.250	0.640	71.530	-1.600	1.000																			1580068311.0	0.35	0.65
26/01/2020 19:51:52	26012020	260120	195152	71.500	12.187002	-56.117643	71.560	-0.040	0.150	0.840	71.490	-1.200	1.200																			1580068312.0	0.77	1.43
26/01/2020 19:51:53	26012020	260120	195153	71.440	12.186998	-56.117645	71.500	-0.080	0.270	0.790	71.440	-1.100	1.100																			1580068313.0	0.70	1.30
26/01/2020 19:51:54	26012020	260120	195154	71.440	12.186998	-56.117647	71.500	-0.000	0.010	0.480	71.450	-1.400	0.800																			1580068314.0	0.18	0.33
26/01/2020 19:51:55	26012020	260120	195155	71.510	12.187000	-56.117647	71.560	0.200	-0.400	0.050	71.530	-1.800	0.400																			1580068315.0	0.55	1.02
26/01/2020 19:51:56	26012020	260120	195156	71.560	12.187003	-56.117645	71.600	0.380	-0.650	-0.280	71.550	-2.000	0.100																			1580068316.0	0.76	1.41
26/01/2020 19:51:57	26012020	260120	195157	71.470	12.187007	-56.117645	71.490	0.360	-0.550	-0.340	71.440	-1.900	0.000																			1580068317.0	0.58	1.07
26/01/2020 19:51:58	26012020	260120	195158	71.300	12.187008	-56.117645	71.320	0.160	-0.190	-0.180	71.270	-1.600	0.200																			1580068318.0	0.25	0.46
26/01/2020 19:51:59	26012020	260120	195159	71.180	12.187007	-56.117647	71.220	-0.100	0.230	0.050	71.160	-1.200	0.400	1013.80	26.30	26.30	21.10	21.10	252.00	73.00	73.00	389.00	28.80	357.00	3.80	69.00	3.60	19592	3270.00	27.80	27.70	1580068319.0	0.24	0.44
26/01/2020 19:52:00	26012020	260120	195200	71.140	12.187005	-56.117648	71.180	-0.280	0.490	0.260	71.140	-0.900	0.600																			1580068320.0	0.38	0.70
26/01/2020 19:52:01	26012020	260120	195201	71.160	12.187003	-56.117648	71.210	-0.320	0.440	0.380	71.170	-0.900	0.700																			1580068321.0	0.36	0.67
26/01/2020 19:52:02	26012020	260120	195202	71.250	12.187003	-56.117647	71.300	-0.210	0.130	0.380	71.270	-1.300	0.700																			1580068322.0	0.21	0.39
26/01/2020 19:52:03	26012020	260120	195203	71.360	12.187003	-56.117647	71.440	-0.000	-0.270	0.280	71.390	-1.700	0.600																			1580068323.0	0.22	0.41
26/01/2020 19:52:04	26012020	260120	195204	71.490	12.187003	-56.117645	71.530	0.200	-0.550	0.220	71.500	-1.900	0.600																			1580068324.0	0.25	0.46
26/01/2020 19:52:05	26012020	260120	195205	71.440	12.187003	-56.117645	71.430	0.280	-0.620	0.360	71.410	-2.000	0.700																			1580068325.0	0.16	0.30
26/01/2020 19:52:06	26012020	260120	195206	71.120	12.187003	-56.117645	71.140	0.210	-0.500	0.580	71.050	-1.900	0.900																			1580068326.0	0.12	0.22
26/01/2020 19:52:07	26012020	260120	195207	70.810	12.187003	-56.117645	70.850	0.050	-0.310	0.610	70.770	-1.700	1.000																			1580068327.0	0.09	0.17
26/01/2020 19:52:08	26012020	260120	195208	70.720	12.187003	-56.117645	70.790	-0.090	-0.080	0.390	70.740	-1.500	0.700																			1580068328.0	0.16	0.30
26/01/2020 19:52:09	26012020	260120	195209	70.910	12.187005	-56.117645	70.970	-0.220	0.210	0.060	70.970	-1.200	0.400																			1580068329.0	0.37	0.69
26/01/2020 19:52:10	26012020	260120	195210	71.260	12.187007	-56.117647	71.320	-0.300	0.490	-0.280	71.330	-0.900	0.100																			1580068330.0	0.31	0.57
26/01/2020 19:52:11	26012020	260120	195211	71.590	12.187007	-56.117647	71.640	-0.300	0.520	-0.560	71.640	-0.900	-0.200																			1580068331.0	0.26	0.48
26/01/2020 19:52:12	26012020	260120	195212	71.730	12.187007	-56.117648	71.760	-0.150	0.240	-0.650	71.730	-1.200	-0.300																			1580068332.0	0.13	0.24
26/01/2020 19:52:13	26012020	260120	195213	71.610	12.187007	-56.117647	71.630	0.110	-0.240	-0.400	71.550	-1.600	-0.000																			1580068333.0	0.20	0.37
26/01/2020 19:52:14	26012020	260120	195214	71.290	12.187005	-56.117645	71.310	0.360	-0.710	0.070	71.220	-2.100	0.400																			1580068334.0	0.39	0.72
26/01/2020 19:52:15	26012020	260120	195215	71.030	12.187005	-56.117643	71.080	0.490	-1.000	0.430	71.000	-2.400	0.800																			1580068335.0	0.39	0.72
26/01/2020 19:52:16	26012020	260120	195216	71.000	12.187005	-56.117643	71.080	0.440	-0.960	0.550	71.020	-2.300	0.900																			1580068336.0	0.28	0.52
26/01/2020 19:52:17	26012020	260120	195217	71.080	12.187007	-56.117642	71.170	0.220	-0.480	0.670	71.100	-1.900	1.000																			1580068337.0	0.25	0.46
26/01/2020 19:52:18	26012020	260120	195218	71.190	12.187005	-56.117643	71.260	-0.110	0.240	0.880	71.200	-1.100	1.200																			1580068338.0	0.23	0.43
26/01/2020 19:52:19	26012020	260120	195219	71.190	12.187003	-56.117645	71.260	-0.410	0.780	1.070	71.190	-0.600	1.400																			1580068339.0	0.69	1.28
26/01/2020 19:52:20	26012020	260120	195220	71.160	12.186998	-56.117645	71.220	-0.510	0.770	1.060	71.160	-0.600	1.400																			1580068340.0	0.77	1.43
26/01/2020 19:52:21	26012020	260120	195221	71.190	12.186998	-56.117643	71.230	-0.380	0.350	0.740	71.200	-1.000	1.100																			1580068341.0	0.43	0.80
26/01/2020 19:52:22	26012020	260120	195222	71.250	12.186998	-56.117643	71.290	-0.080	-0.070	0.210	71.270	-1.500	0.600																			1580068342.0	0.41	0.76
26/01/2020 19:52:23	26012020	260120	195223	71.320	12.187002	-56.117642	71.360	0.200	-0.290	-0.360	71.330	-1.700	-0.000																			1580068343.0	0.67	1.24
26/01/2020 19:52:24	26012020	260120	195224	71.310	12.187005	-56.117643	71.330	0.340	-0.380	-0.760	71.290	-1.800	-0.400																			1580068344.0	0.87	1.61
26/01/2020 19:52:25	26012020	260120	195225	71.150	12.187008	-56.117647	71.160	0.290	-0.460	-0.830	71.100	-1.900	-0.500																			1580068345.0	0.83	1.54
26/01/2020 19:52:26	26012020	260120	195226	70.900	12.187012	-56.117647	70.910	0.100	-0.520	-0.540	70.850	-1.900	-0.200																			1580068346.0	0.49	0.91
26/01/2020 19:52:27	26012020	260120	195227	70.650	12.187010	-56.117647	70.670	-0.090	-0.500	-0.000	70.610	-1.900	0.400																			1580068347.0	0.05	0.09
26/01/2020 19:52:28	26012020	260120	195228	70.460	12.187008	-56.117645	70.490	-0.160	-0.410	0.590	70.430	-1.800	0.900																			1580068348.0	0.57	1.06
26/01/2020 19:52:29	26012020	260120	195229	70.340	12.187005	-56.117643	70.380	-0.070	-0.240	1.030	70.330	-1.600	1.400																			1580068349.0	0.89	1.65
26/01/2020 19:52:30	26012020	260120	195230	70.370	12.187002	-56.117642	70.420	0.090	-0.020	1.140	70.380	-1.400	1.500																			1580068350.0	0.83	1.54
26/01/2020 19:52:31	26012020	260120	195231	70.480	12.187000	-56.117642	70.520	0.160	0.240	0.950	70.490	-1.100	1.300																			1580068351.0	0.46	0.85
26/01/2020 19:52:32	26012020	260120	195232	70.530	12.187000	-56.117642	70.560	0.080	0.480	0.600	70.530	-0.900	0.900																			1580068352.0	0.02	0.04
26/01/2020 19:52:33	26012020	260120	195233	70.470	12.187002	-56.117642	70.480	-0.100	0.530	0.130	70.450	-0.900	0.500																			1580068353.0	0.46	0.85
26/01/2020 19:52:34	26012020	260120	195234	70.370	12.187005	-56.117643	70.380	-0.220	0.260	-0.430	70.360	-1.100	-0.100																			1580068354.0	0.79	1.46
26/01/2020 19:52:35	26012020	260120	195235	70.320	12.187008	-56.117645	70.330	-0.190	-0.220	-0.870	70.320	-1.600	-0.500																			1580068355.0	0.99	1.83
26/01/2020 19:52:36	26012020	260120	195236	70.330	12.187013	-56.117645	70.360	-0.040	-0.620	-0.970	70.340	-2.000	-0.600																			1580068356.0	0.83	1.54
26/01/2020 19:52:37	26012020	260120	195237	70.370	12.187013	-56.117645	70.410	0.070	-0.770	-0.750	70.370	-2.200	-0.400																			1580068357.0	0.33	0.61
26/01/2020 19:52:38	26012020	260120	195238	70.350	12.187013	-56.117643	70.390	0.080	-0.620	-0.310	70.330	-2.000	0.000																			1580068358.0	0.38	0.70
26/01/2020 19:52:39	26012020	260120	195239	70.190	12.187010	-56.117642	70.230	-0.010	-0.280	0.320	70.140	-1.700	0.700																			1580068359.0	0.78	1.44
26/01/2020 19:52:40	26012020	260120	195240	69.910	12.187005	-56.117642	69.950	-0.080	0.040	0.950	69.860	-1.400	1.300																			1580068360.0	0.98	1.81
26/01/2020 19:52:41	26012020	260120	195241	69.760	12.187002	-56.117642	69.820	-0.050	0.110	1.190	69.760	-1.300	1.500																			1580068361.0	0.82	1.52
26/01/2020 19:52:42	26012020	260120	195242	69.880	12.187000	-56.117640	69.960	0.080	-0.010	0.940	69.920	-1.400	1.300																			1580068362.0	0.24	0.44
26/01/2020 19:52:43	26012020	260120	195243	70.100	12.187002	-56.117640	70.150	0.210	-0.060	0.520	70.130	-1.500	0.900																			1580068363.0	0.46	0.85
26/01/2020 19:52:44	26012020	260120	195244	70.220	12.187005	-56.117640	70.250	0.200	0.020	0.160	70.230	-1.400	0.500																			1580068364.0	0.58	1.07
26/01/2020 19:52:45	26012020	260120	195245	70.240	12.187007	-56.117640	70.270	0.060	0.110	-0.130	70.240	-1.300	0.200																			1580068365.0	0.52	0.96
26/01/2020 19:52:46	26012020	260120	195246	70.200	12.187008	-56.117642	70.220	-0.100	0.050	-0.330	70.180	-1.300	0.000																			1580068366.0	0.44	0.81
26/01/2020 19:52:47	26012020	260120	195247	70.110	12.187010	-56.117643	70.140	-0.180	-0.140	-0.350	70.090	-1.500	0.000																			1580068367.0	0.32	0.59
26/01/2020 19:52:48	26012020	260120	195248	70.030	12.187010	-56.117642	70.060	-0.170	-0.310	-0.130	70.010	-1.700	0.200																			1580068368.0	0.14	0.26
26/01/2020 19:52:49	26012020	260120	195249	69.950	12.187008	-56.117642	70.000	-0.140	-0.250	0.230	69.930	-1.600	0.600																			1580068369.0	0.35	0.65
26/01/2020 19:52:50	26012020	260120	195250	69.870	12.187007	-56.117642	69.930	-0.160	-0.020	0.490	69.850	-1.400	0.800																			1580068370.0	0.57	1.06
26/01/2020 19:52:51	26012020	260120	195251	69.770	12.187003	-56.117642	69.820	-0.150	0.080	0.590	69.750	-1.300	0.900																			1580068371.0	0.56	1.04
26/01/2020 19:52:52	26012020	260120	195252	69.710	12.187003	-56.117643	69.780	-0.030	-0.140	0.550	69.710	-1.500	0.900																			1580068372.0	0.27	0.50
26/01/2020 19:52:53	26012020	260120	195253	69.730	12.187003	-56.117642	69.810	0.200	-0.540	0.420	69.740	-1.900	0.800																			1580068373.0	0.21	0.39
26/01/2020 19:52:54	26012020	260120	195254	69.820	12.187007	-56.117640	69.870	0.370	-0.760	0.210	69.830	-2.100	0.600																			1580068374.0	0.56	1.04
26/01/2020 19:52:55	26012020	260120	195255	69.840	12.187008	-56.117640	69.890	0.330	-0.530	0.080	69.840	-1.900	0.400																			1580068375.0	0.50	0.93
26/01/2020 19:52:56	26012020	260120	195256	69.740	12.187008	-56.117640	69.770	0.110	0.070	0.150	69.710	-1.300	0.500																			1580068376.0	0.14	0.26
26/01/2020 19:52:57	26012020	260120	195257	69.560	12.187007	-56.117642	69.580	-0.150	0.590	0.330	69.520	-0.800	0.700																			1580068377.0	0.45	0.83
26/01/2020 19:52:58	26012020	260120	195258	69.440	12.187005	-56.117643	69.480	-0.280	0.670	0.440	69.430	-0.700	0.800																			1580068378.0	0.49	0.91
26/01/2020 19:52:59	26012020	260120	195259	69.510	12.187005	-56.117643	69.580	-0.220	0.320	0.290	69.550	-1.100	0.600	1013.70	26.30	26.30	21.00	21.10	229.00	73.00	73.00	389.00	28.80	358.00	3.50	69.00	3.40	18663	3397.00	27.70	27.80	1580068379.0	0.15	0.28
26/01/2020 19:53:00	26012020	260120	195300	69.730	12.187007	-56.117642	69.790	-0.070	-0.210	-0.050	69.770	-1.600	0.300																			1580068380.0	0.33	0.61
26/01/2020 19:53:01	26012020	260120	195301	69.880	12.187008	-56.117642	69.910	0.060	-0.550	-0.240	69.900	-1.900	0.100																			1580068381.0	0.56	1.04
26/01/2020 19:53:02	26012020	260120	195302	69.820	12.187010	-56.117642	69.830	0.100	-0.560	-0.060	69.780	-1.900	0.300																			1580068382.0	0.28	0.52
26/01/2020 19:53:03	26012020	260120	195303	69.540	12.187008	-56.117642	69.550	0.030	-0.310	0.420	69.480	-1.700	0.800																			1580068383.0	0.22	0.41
26/01/2020 19:53:04	26012020	260120	195304	69.230	12.187007	-56.117642	69.260	-0.060	-0.080	0.870	69.180	-1.500	1.200																			1580068384.0	0.55	1.02
26/01/2020 19:53:05	26012020	260120	195305	69.040	12.187005	-56.117642	69.100	-0.090	-0.090	1.000	69.030	-1.500	1.400																			1580068385.0	0.45	0.83
26/01/2020 19:53:06	26012020	260120	195306	69.080	12.187005	-56.117642	69.180	-0.020	-0.260	0.790	69.120	-1.700	1.100																			1580068386.0	0.08	0.15
26/01/2020 19:53:07	26012020	260120	195307	69.290	12.187007	-56.117642	69.450	0.120	-0.380	0.380	69.350	-1.800	0.700																			1580068387.0	0.43	0.80
26/01/2020 19:53:08	26012020	260120	195308	69.650	12.187008	-56.117640	69.730	0.220	-0.270	-0.030	69.690	-1.700	0.300																			1580068388.0	0.49	0.91
26/01/2020 19:53:09	26012020	260120	195309	69.780	12.187010	-56.117642	69.840	0.180	0.060	-0.250	69.780	-1.300	0.100																			1580068389.0	0.31	0.57
26/01/2020 19:53:10	26012020	260120	195310	69.710	12.187010	-56.117642	69.770	0.010	0.360	-0.230	69.680	-1.000	0.100																			1580068390.0	0.25	0.46
26/01/2020 19:53:11	26012020	260120	195311	69.550	12.187010	-56.117643	69.600	-0.160	0.380	-0.060	69.520	-1.000	0.300																			1580068391.0	0.28	0.52
26/01/2020 19:53:12	26012020	260120	195312	69.410	12.187008	-56.117643	69.460	-0.250	0.100	0.120	69.390	-1.300	0.500																			1580068392.0	0.15	0.28
26/01/2020 19:53:13	26012020	260120	195313	69.380	12.187008	-56.117643	69.450	-0.230	-0.290	0.210	69.390	-1.700	0.600																			1580068393.0	0.19	0.35
26/01/2020 19:53:14	26012020	260120	195314	69.480	12.187008	-56.117642	69.550	-0.100	-0.570	0.190	69.520	-1.900	0.500																			1580068394.0	0.26	0.48
26/01/2020 19:53:15	26012020	260120	195315	69.650	12.187010	-56.117640	69.710	0.090	-0.550	0.230	69.680	-1.900	0.600																			1580068395.0	0.17	0.31
26/01/2020 19:53:16	26012020	260120	195316	69.760	12.187008	-56.117640	69.820	0.260	-0.310	0.390	69.770	-1.700	0.700																			1580068396.0	0.16	0.30
26/01/2020 19:53:17	26012020	260120	195317	69.740	12.187007	-56.117642	69.780	0.300	-0.030	0.540	69.710	-1.400	0.900																			1580068397.0	0.37	0.69
26/01/2020 19:53:18	26012020	260120	195318	69.580	12.187007	-56.117642	69.610	0.240	0.120	0.560	69.550	-1.300	0.900																			1580068398.0	0.27	0.50
26/01/2020 19:53:19	26012020	260120	195319	69.440	12.187007	-56.117643	69.470	0.150	0.050	0.440	69.430	-1.300	0.800																			1580068399.0	0.38	0.70
26/01/2020 19:53:20	26012020	260120	195320	69.470	12.187010	-56.117645	69.510	0.070	-0.130	0.260	69.490	-1.500	0.600																			1580068400.0	0.63	1.17
26/01/2020 19:53:21	26012020	260120	195321	69.630	12.187013	-56.117645	69.670	-0.080	-0.190	0.220	69.660	-1.600	0.600																			1580068401.0	0.61	1.13
26/01/2020 19:53:22	26012020	260120	195322	69.780	12.187013	-56.117645	69.830	-0.310	-0.050	0.370	69.800	-1.400	0.700																			1580068402.0	0.14	0.26
26/01/2020 19:53:23	26012020	260120	195323	69.840	12.187012	-56.117645	69.880	-0.520	0.100	0.570	69.830	-1.300	0.900																			1580068403.0	0.48	0.89
26/01/2020 19:53:24	26012020	260120	195324	69.760	12.187008	-56.117645	69.810	-0.530	0.070	0.760	69.730	-1.300	1.100																			1580068404.0	0.79	1.46
26/01/2020 19:53:25	26012020	260120	195325	69.600	12.187005	-56.117643	69.650	-0.260	-0.140	0.930	69.570	-1.500	1.300																			1580068405.0	0.73	1.35
26/01/2020 19:53:26	26012020	260120	195326	69.480	12.187003	-56.117642	69.530	0.150	-0.360	0.890	69.460	-1.700	1.200																			1580068406.0	0.43	0.80
26/01/2020 19:53:27	26012020	260120	195327	69.440	12.187005	-56.117642	69.500	0.490	-0.380	0.470	69.440	-1.800	0.800																			1580068407.0	0.29	0.54
26/01/2020 19:53:28	26012020	260120	195328	69.450	12.187008	-56.117643	69.500	0.620	-0.220	-0.210	69.450	-1.600	0.100																			1580068408.0	0.96	1.78
26/01/2020 19:53:29	26012020	260120	195329	69.450	12.187013	-56.117647	69.490	0.550	-0.130	-0.750	69.450	-1.500	-0.400																			1580068409.0	1.31	2.43
26/01/2020 19:53:30	26012020	260120	195330	69.450	12.187018	-56.117648	69.490	0.330	-0.190	-0.900	69.450	-1.600	-0.500																			1580068410.0	1.08	2.00
26/01/2020 19:53:31	26012020	260120	195331	69.450	12.187022	-56.117648	69.510	0.010	-0.180	-0.680	69.460	-1.600	-0.300																			1580068411.0	0.56	1.04
26/01/2020 19:53:32	26012020	260120	195332	69.530	12.187022	-56.117647	69.610	-0.310	-0.010	-0.330	69.570	-1.400	0.000																			1580068412.0	0.14	0.26
26/01/2020 19:53:33	26012020	260120	195333	69.700	12.187020	-56.117647	69.790	-0.520	0.200	0.010	69.740	-1.200	0.400																			1580068413.0	0.44	0.81
26/01/2020 19:53:34	26012020	260120	195334	69.800	12.187017	-56.117647	69.870	-0.500	0.270	0.450	69.790	-1.100	0.800																			1580068414.0	0.69	1.28
26/01/2020 19:53:35	26012020	260120	195335	69.710	12.187012	-56.117645	69.790	-0.300	0.130	0.990	69.690	-1.300	1.300																			1580068415.0	0.85	1.57
26/01/2020 19:53:36	26012020	260120	195336	69.570	12.187008	-56.117643	69.640	-0.050	-0.170	1.320	69.540	-1.600	1.700																			1580068416.0	0.87	1.61
26/01/2020 19:53:37	26012020	260120	195337	69.480	12.187007	-56.117642	69.560	0.100	-0.410	1.220	69.470	-1.800	1.600																			1580068417.0	0.50	0.93
26/01/2020 19:53:38	26012020	260120	195338	69.480	12.187008	-56.117642	69.560	0.140	-0.430	0.750	69.490	-1.800	1.100																			1580068418.0	0.31	0.57
26/01/2020 19:53:39	26012020	260120	195339	69.600	12.187012	-56.117643	69.670	0.110	-0.300	0.090	69.640	-1.700	0.400																			1580068419.0	0.81	1.50
26/01/2020 19:53:40	26012020	260120	195340	69.830	12.187017	-56.117645	69.890	0.080	-0.220	-0.580	69.880	-1.600	-0.200																			1580068420.0	1.08	2.00
26/01/2020 19:53:41	26012020	260120	195341	70.010	12.187022	-56.117647	70.080	0.100	-0.200	-1.070	70.040	-1.600	-0.700																			1580068421.0	1.01	1.87
26/01/2020 19:53:42	26012020	260120	195342	70.130	12.187023	-56.117648	70.160	0.180	-0.120	-1.210	70.130	-1.500	-0.900																			1580068422.0	0.62	1.15
26/01/2020 19:53:43	26012020	260120	195343	70.090	12.187023	-56.117648	70.110	0.240	0.050	-0.920	70.070	-1.300	-0.600																			1580068423.0	0.03	0.06
26/01/2020 19:53:44	26012020	260120	195344	69.900	12.187022	-56.117648	69.940	0.200	0.170	-0.350	69.860	-1.200	0.000																			1580068424.0	0.51	0.94
26/01/2020 19:53:45	26012020	260120	195345	69.750	12.187018	-56.117647	69.790	0.050	0.030	0.270	69.730	-1.400	0.600																			1580068425.0	0.67	1.24
26/01/2020 19:53:46	26012020	260120	195346	69.660	12.187017	-56.117645	69.750	-0.110	-0.330	0.740	69.670	-1.700	1.100																			1580068426.0	0.52	0.96
26/01/2020 19:53:47	26012020	260120	195347	69.750	12.187015	-56.117643	69.840	-0.200	-0.560	0.950	69.770	-1.900	1.300																			1580068427.0	0.44	0.81
26/01/2020 19:53:48	26012020	260120	195348	69.910	12.187017	-56.117642	70.010	-0.240	-0.340	0.940	69.940	-1.700	1.300																			1580068428.0	0.27	0.50
26/01/2020 19:53:49	26012020	260120	195349	70.030	12.187015	-56.117643	70.100	-0.280	0.220	0.890	70.040	-1.200	1.200																			1580068429.0	0.21	0.39
26/01/2020 19:53:50	26012020	260120	195350	70.030	12.187013	-56.117647	70.090	-0.300	0.650	0.860	70.020	-0.700	1.200																			1580068430.0	0.64	1.19
26/01/2020 19:53:51	26012020	260120	195351	69.940	12.187012	-56.117648	70.000	-0.240	0.560	0.750	69.920	-0.800	1.100																			1580068431.0	0.62	1.15
26/01/2020 19:53:52	26012020	260120	195352	69.890	12.187012	-56.117648	69.950	-0.050	-0.050	0.430	69.890	-1.500	0.800																			1580068432.0	0.14	0.26
26/01/2020 19:53:53	26012020	260120	195353	69.940	12.187013	-56.117648	70.000	0.200	-0.780	-0.080	69.970	-2.200	0.300																			1580068433.0	0.54	1.00
26/01/2020 19:53:54	26012020	260120	195354	70.040	12.187018	-56.117647	70.090	0.420	-1.150	-0.580	70.060	-2.500	-0.200																			1580068434.0	0.90	1.67
26/01/2020 19:53:55	26012020	260120	195355	70.090	12.187022	-56.117647	70.120	0.500	-0.970	-0.900	70.090	-2.400	-0.500																			1580068435.0	0.85	1.57
26/01/2020 19:53:56	26012020	260120	195356	70.020	12.187025	-56.117648	70.040	0.430	-0.380	-0.850	69.980	-1.800	-0.500																			1580068436.0	0.60	1.11
26/01/2020 19:53:57	26012020	260120	195357	69.840	12.187023	-56.117650	69.870	0.220	0.290	-0.420	69.800	-1.100	-0.100																			1580068437.0	0.40	0.74
26/01/2020 19:53:58	26012020	260120	195358	69.660	12.187022	-56.117650	69.700	-0.080	0.660	0.220	69.630	-0.700	0.600																			1580068438.0	0.64	1.19
26/01/2020 19:53:59	26012020	260120	195359	69.540	12.187018	-56.117650	69.610	-0.380	0.640	0.770	69.540	-0.800	1.100	1013.70	26.30	26.20	21.10	21.10	198.00	73.00	73.00	389.00	28.70	6.00	3.50	76.00	3.20	17481	3477.00	27.80	27.80	1580068439.0	0.78	1.44
26/01/2020 19:54:00	26012020	260120	195400	69.550	12.187015	-56.117648	69.630	-0.510	0.310	1.000	69.570	-1.100	1.300																			1580068440.0	0.65	1.20
26/01/2020 19:54:01	26012020	260120	195401	69.680	12.187013	-56.117648	69.750	-0.400	-0.050	0.930	69.710	-1.400	1.300																			1580068441.0	0.33	0.61
26/01/2020 19:54:02	26012020	260120	195402	69.830	12.187015	-56.117647	69.910	-0.120	-0.290	0.760	69.860	-1.700	1.100																			1580068442.0	0.17	0.31
26/01/2020 19:54:03	26012020	260120	195403	69.940	12.187015	-56.117647	70.010	0.160	-0.380	0.570	69.960	-1.800	0.900																			1580068443.0	0.09	0.17
26/01/2020 19:54:04	26012020	260120	195404	69.960	12.187015	-56.117648	70.010	0.260	-0.390	0.340	69.940	-1.800	0.700																			1580068444.0	0.22	0.41
26/01/2020 19:54:05	26012020	260120	195405	69.820	12.187017	-56.117650	69.850	0.170	-0.330	0.170	69.780	-1.700	0.500																			1580068445.0	0.38	0.70
26/01/2020 19:54:06	26012020	260120	195406	69.580	12.187018	-56.117652	69.590	-0.020	-0.240	0.120	69.530	-1.600	0.500																			1580068446.0	0.46	0.85
26/01/2020 19:54:07	26012020	260120	195407	69.340	12.187018	-56.117652	69.370	-0.160	-0.210	0.150	69.300	-1.600	0.500																			1580068447.0	0.35	0.65
26/01/2020 19:54:08	26012020	260120	195408	69.230	12.187020	-56.117653	69.280	-0.130	-0.300	0.110	69.230	-1.700	0.500																			1580068448.0	0.08	0.15
26/01/2020 19:54:09	26012020	260120	195409	69.260	12.187020	-56.117652	69.310	0.040	-0.350	0.020	69.270	-1.700	0.400																			1580068449.0	0.18	0.33
26/01/2020 19:54:10	26012020	260120	195410	69.350	12.187020	-56.117650	69.390	0.200	-0.180	-0.100	69.360	-1.600	0.300																			1580068450.0	0.24	0.44
26/01/2020 19:54:11	26012020	260120	195411	69.450	12.187018	-56.117650	69.490	0.240	0.120	-0.270	69.470	-1.300	0.100																			1580068451.0	0.05	0.09
26/01/2020 19:54:12	26012020	260120	195412	69.530	12.187020	-56.117652	69.560	0.190	0.300	-0.420	69.530	-1.100	-0.100																			1580068452.0	0.28	0.52
26/01/2020 19:54:13	26012020	260120	195413	69.500	12.187020	-56.117653	69.540	0.080	0.250	-0.350	69.470	-1.100	0.000																			1580068453.0	0.35	0.65
26/01/2020 19:54:14	26012020	260120	195414	69.300	12.187022	-56.117653	69.330	-0.070	0.070	-0.010	69.240	-1.300	0.300																			1580068454.0	0.14	0.26
26/01/2020 19:54:15	26012020	260120	195415	69.010	12.187020	-56.117653	69.070	-0.200	-0.100	0.390	68.970	-1.500	0.700																			1580068455.0	0.13	0.24
26/01/2020 19:54:16	26012020	260120	195416	68.890	12.187020	-56.117653	68.980	-0.230	-0.230	0.610	68.900	-1.600	1.000																			1580068456.0	0.22	0.41
26/01/2020 19:54:17	26012020	260120	195417	69.040	12.187020	-56.117652	69.160	-0.150	-0.330	0.590	69.090	-1.700	0.900																			1580068457.0	0.11	0.20
26/01/2020 19:54:18	26012020	260120	195418	69.350	12.187018	-56.117653	69.480	-0.050	-0.310	0.460	69.410	-1.700	0.800																			1580068458.0	0.03	0.06
26/01/2020 19:54:19	26012020	260120	195419	69.580	12.187018	-56.117653	69.680	-0.030	-0.200	0.380	69.590	-1.600	0.700																			1580068459.0	0.12	0.22
26/01/2020 19:54:20	26012020	260120	195420	69.570	12.187018	-56.117653	69.650	-0.100	-0.050	0.410	69.540	-1.400	0.800																			1580068460.0	0.26	0.48
26/01/2020 19:54:21	26012020	260120	195421	69.430	12.187017	-56.117653	69.450	-0.130	-0.010	0.420	69.400	-1.400	0.800																			1580068461.0	0.28	0.52
26/01/2020 19:54:22	26012020	260120	195422	69.210	12.187017	-56.117655	69.260	-0.010	-0.160	0.370	69.170	-1.500	0.700																			1580068462.0	0.14	0.26
26/01/2020 19:54:23	26012020	260120	195423	69.060	12.187017	-56.117655	69.130	0.180	-0.440	0.270	69.040	-1.800	0.600																			1580068463.0	0.20	0.37
26/01/2020 19:54:24	26012020	260120	195424	69.060	12.187018	-56.117653	69.140	0.310	-0.580	0.070	69.080	-2.000	0.400																			1580068464.0	0.47	0.87
26/01/2020 19:54:25	26012020	260120	195425	69.210	12.187022	-56.117652	69.280	0.240	-0.330	-0.220	69.250	-1.700	0.100																			1580068465.0	0.46	0.85
26/01/2020 19:54:26	26012020	260120	195426	69.420	12.187022	-56.117653	69.490	0.030	0.170	-0.520	69.470	-1.200	-0.200																			1580068466.0	0.30	0.56
26/01/2020 19:54:27	26012020	260120	195427	69.640	12.187022	-56.117655	69.720	-0.130	0.560	-0.690	69.690	-0.800	-0.300																			1580068467.0	0.45	0.83
26/01/2020 19:54:28	26012020	260120	195428	69.860	12.187022	-56.117657	69.940	-0.110	0.520	-0.680	69.900	-0.900	-0.300																			1580068468.0	0.40	0.74
26/01/2020 19:54:29	26012020	260120	195429	70.030	12.187022	-56.117657	70.110	0.040	0.100	-0.500	70.050	-1.300	-0.100																			1580068469.0	0.05	0.09
26/01/2020 19:54:30	26012020	260120	195430	70.080	12.187022	-56.117657	70.140	0.120	-0.300	-0.140	70.070	-1.700	0.200																			1580068470.0	0.27	0.50
26/01/2020 19:54:31	26012020	260120	195431	69.990	12.187022	-56.117655	70.050	0.030	-0.430	0.340	69.970	-1.800	0.700																			1580068471.0	0.25	0.46
26/01/2020 19:54:32	26012020	260120	195432	69.910	12.187020	-56.117655	69.980	-0.130	-0.440	0.840	69.900	-1.800	1.200																			1580068472.0	0.37	0.69
26/01/2020 19:54:33	26012020	260120	195433	69.910	12.187018	-56.117655	70.030	-0.240	-0.480	1.230	69.930	-1.900	1.600																			1580068473.0	0.56	1.04
26/01/2020 19:54:34	26012020	260120	195434	70.140	12.187015	-56.117653	70.260	-0.230	-0.430	1.400	70.200	-1.800	1.700																			1580068474.0	0.63	1.17
26/01/2020 19:54:35	26012020	260120	195435	70.380	12.187013	-56.117652	70.560	-0.170	-0.200	1.230	70.450	-1.600	1.600																			1580068475.0	0.55	1.02
26/01/2020 19:54:36	26012020	260120	195436	70.690	12.187012	-56.117652	70.780	-0.090	0.110	0.770	70.720	-1.300	1.100																			1580068476.0	0.28	0.52
26/01/2020 19:54:37	26012020	260120	195437	70.770	12.187012	-56.117653	70.830	0.020	0.310	0.230	70.770	-1.100	0.600																			1580068477.0	0.24	0.44
26/01/2020 19:54:38	26012020	260120	195438	70.750	12.187013	-56.117655	70.790	0.160	0.240	-0.290	70.740	-1.100	0.100																			1580068478.0	0.41	0.76
26/01/2020 19:54:39	26012020	260120	195439	70.710	12.187017	-56.117655	70.760	0.300	-0.060	-0.760	70.710	-1.400	-0.400																			1580068479.0	0.58	1.07
26/01/2020 19:54:40	26012020	260120	195440	70.720	12.187020	-56.117655	70.770	0.350	-0.370	-1.160	70.730	-1.800	-0.800																			1580068480.0	0.78	1.44
26/01/2020 19:54:41	26012020	260120	195441	70.770	12.187023	-56.117655	70.830	0.250	-0.440	-1.390	70.790	-1.800	-1.000																			1580068481.0	0.88	1.63
26/01/2020 19:54:42	26012020	260120	195442	70.850	12.187027	-56.117655	70.920	0.040	-0.230	-1.250	70.870	-1.600	-0.900																			1580068482.0	0.66	1.22
26/01/2020 19:54:43	26012020	260120	195443	70.980	12.187027	-56.117657	71.070	-0.160	0.060	-0.770	71.010	-1.300	-0.400																			1580068483.0	0.27	0.50
26/01/2020 19:54:44	26012020	260120	195444	71.140	12.187023	-56.117658	71.250	-0.240	0.150	-0.080	71.170	-1.200	0.300																			1580068484.0	0.57	1.06
26/01/2020 19:54:45	26012020	260120	195445	71.250	12.187020	-56.117657	71.370	-0.180	-0.010	0.710	71.260	-1.400	1.100																			1580068485.0	0.95	1.76
26/01/2020 19:54:46	26012020	260120	195446	71.310	12.187015	-56.117653	71.420	-0.090	-0.230	1.460	71.310	-1.600	1.800																			1580068486.0	1.22	2.26
26/01/2020 19:54:47	26012020	260120	195447	71.310	12.187010	-56.117652	71.410	-0.030	-0.310	2.000	71.300	-1.700	2.400																			1580068487.0	1.21	2.24
26/01/2020 19:54:48	26012020	260120	195448	71.250	12.187007	-56.117650	71.360	-0.020	-0.260	2.190	71.240	-1.600	2.500																			1580068488.0	0.94	1.74
26/01/2020 19:54:49	26012020	260120	195449	71.130	12.187003	-56.117648	71.230	-0.000	-0.200	1.900	71.100	-1.600	2.300																			1580068489.0	0.46	0.85
26/01/2020 19:54:50	26012020	260120	195450	71.010	12.187005	-56.117650	71.090	0.020	-0.190	1.200	70.990	-1.600	1.500																			1580068490.0	0.18	0.33
26/01/2020 19:54:51	26012020	260120	195451	70.980	12.187008	-56.117650	71.040	0.030	-0.160	0.240	70.980	-1.500	0.600																			1580068491.0	0.78	1.44
26/01/2020 19:54:52	26012020	260120	195452	71.050	12.187013	-56.117652	71.090	0.020	-0.020	-0.810	71.070	-1.400	-0.400																			1580068492.0	1.14	2.11
26/01/2020 19:54:53	26012020	260120	195453	71.160	12.187018	-56.117655	71.190	-0.030	0.190	-1.730	71.180	-1.200	-1.400																			1580068493.0	1.23	2.28
26/01/2020 19:54:54	26012020	260120	195454	71.260	12.187023	-56.117657	71.290	-0.050	0.280	-2.310	71.290	-1.100	-1.900																			1580068494.0	1.10	2.04
26/01/2020 19:54:55	26012020	260120	195455	71.350	12.187025	-56.117658	71.380	0.020	0.040	-2.370	71.370	-1.400	-2.000																			1580068495.0	0.72	1.33
26/01/2020 19:54:56	26012020	260120	195456	71.410	12.187027	-56.117658	71.440	0.160	-0.380	-1.880	71.410	-1.800	-1.500																			1580068496.0	0.23	0.43
26/01/2020 19:54:57	26012020	260120	195457	71.410	12.187025	-56.117655	71.470	0.220	-0.610	-0.940	71.400	-2.000	-0.600																			1580068497.0	0.64	1.19
26/01/2020 19:54:58	26012020	260120	195458	71.310	12.187020	-56.117653	71.400	0.110	-0.460	0.310	71.280	-1.800	0.700																			1580068498.0	1.08	2.00
26/01/2020 19:54:59	26012020	260120	195459	71.140	12.187013	-56.117652	71.240	-0.050	-0.180	1.620	71.110	-1.500	2.000	1013.80	26.30	26.30	21.10	21.20	184.00	73.00	73.00	389.00	28.60	3.00	3.60	73.00	3.40	16824	3457.00	27.80	27.80	1580068499.0	1.45	2.69
26/01/2020 19:55:00	26012020	260120	195500	71.040	12.187007	-56.117650	71.180	-0.090	-0.080	2.590	71.030	-1.500	2.900																			1580068500.0	1.54	2.85
26/01/2020 19:55:01	26012020	260120	195501	71.070	12.187002	-56.117648	71.210	0.010	-0.130	3.010	71.080	-1.500	3.400																			1580068501.0	1.25	2.31
26/01/2020 19:55:02	26012020	260120	195502	71.110	12.186998	-56.117645	71.250	0.050	-0.030	2.850	71.120	-1.400	3.200																			1580068502.0	0.79	1.46
26/01/2020 19:55:03	26012020	260120	195503	71.100	12.186998	-56.117645	71.220	-0.090	0.290	2.190	71.090	-1.100	2.500																			1580068503.0	0.17	0.31
26/01/2020 19:55:04	26012020	260120	195504	71.030	12.187000	-56.117647	71.130	-0.340	0.530	1.190	71.020	-0.900	1.500																			1580068504.0	0.56	1.04
26/01/2020 19:55:05	26012020	260120	195505	71.010	12.187003	-56.117650	71.080	-0.430	0.310	-0.070	71.010	-1.100	0.300																			1580068505.0	1.08	2.00
26/01/2020 19:55:06	26012020	260120	195506	71.040	12.187010	-56.117652	71.090	-0.220	-0.330	-1.330	71.050	-1.700	-1.000																			1580068506.0	1.41	2.61
26/01/2020 19:55:07	26012020	260120	195507	71.040	12.187017	-56.117652	71.070	0.150	-0.900	-2.210	71.030	-2.300	-1.800																			1580068507.0	1.56	2.89
26/01/2020 19:55:08	26012020	260120	195508	70.990	12.187023	-56.117652	71.010	0.410	-0.940	-2.540	70.970	-2.300	-2.200																			1580068508.0	1.23	2.28
26/01/2020 19:55:09	26012020	260120	195509	70.920	12.187025	-56.117652	70.910	0.400	-0.400	-2.280	70.900	-1.800	-1.900																			1580068509.0	0.50	0.93
26/01/2020 19:55:10	26012020	260120	195510	70.750	12.187023	-56.117653	70.780	0.180	0.280	-1.430	70.710	-1.100	-1.100																			1580068510.0	0.49	0.91
26/01/2020 19:55:11	26012020	260120	195511	70.600	12.187020	-56.117655	70.660	-0.020	0.510	-0.170	70.570	-0.900	0.200																			1580068511.0	0.96	1.78
26/01/2020 19:55:12	26012020	260120	195512	70.460	12.187015	-56.117653	70.550	-0.100	0.160	1.200	70.430	-1.200	1.600																			1580068512.0	1.23	2.28
26/01/2020 19:55:13	26012020	260120	195513	70.350	12.187008	-56.117650	70.440	-0.080	-0.370	2.380	70.330	-1.800	2.700																			1580068513.0	1.52	2.82
26/01/2020 19:55:14	26012020	260120	195514	70.280	12.187003	-56.117645	70.410	-0.060	-0.650	3.120	70.260	-2.000	3.500																			1580068514.0	1.57	2.91
26/01/2020 19:55:15	26012020	260120	195515	70.200	12.186998	-56.117640	70.330	-0.130	-0.410	3.360	70.180	-1.800	3.700																			1580068515.0	1.23	2.28
26/01/2020 19:55:16	26012020	260120	195516	70.150	12.186995	-56.117640	70.280	-0.250	0.170	2.990	70.150	-1.200	3.300																			1580068516.0	0.68	1.26
26/01/2020 19:55:17	26012020	260120	195517	70.220	12.186995	-56.117643	70.330	-0.290	0.590	1.900	70.250	-0.800	2.300																			1580068517.0	0.60	1.11
26/01/2020 19:55:18	26012020	260120	195518	70.360	12.187000	-56.117647	70.430	-0.140	0.540	0.300	70.380	-0.900	0.700																			1580068518.0	1.20	2.22
26/01/2020 19:55:19	26012020	260120	195519	70.450	12.187007	-56.117650	70.490	0.130	0.040	-1.330	70.460	-1.300	-1.000																			1580068519.0	1.80	3.33
26/01/2020 19:55:20	26012020	260120	195520	70.430	12.187017	-56.117653	70.440	0.340	-0.610	-2.530	70.420	-2.000	-2.200																			1580068520.0	2.02	3.74
26/01/2020 19:55:21	26012020	260120	195521	70.330	12.187023	-56.117653	70.290	0.330	-1.010	-3.040	70.300	-2.400	-2.700																			1580068521.0	1.69	3.13
26/01/2020 19:55:22	26012020	260120	195522	70.100	12.187028	-56.117653	70.110	0.150	-0.930	-2.840	70.070	-2.300	-2.500																			1580068522.0	0.91	1.69
26/01/2020 19:55:23	26012020	260120	195523	69.980	12.187028	-56.117653	70.010	-0.080	-0.420	-2.060	69.960	-1.800	-1.700																			1580068523.0	0.06	0.11
26/01/2020 19:55:24	26012020	260120	195524	69.930	12.187023	-56.117653	70.010	-0.240	0.200	-0.880	69.940	-1.200	-0.500																			1580068524.0	0.90	1.67
26/01/2020 19:55:25	26012020	260120	195525	70.040	12.187017	-56.117653	70.230	-0.270	0.540	0.380	70.080	-0.800	0.700																			1580068525.0	1.51	2.80
26/01/2020 19:55:26	26012020	260120	195526	70.360	12.187008	-56.117652	70.510	-0.180	0.450	1.440	70.410	-0.900	1.800																			1580068526.0	1.71	3.17
26/01/2020 19:55:27	26012020	260120	195527	70.620	12.187003	-56.117648	70.760	-0.030	0.080	2.110	70.660	-1.300	2.500																			1580068527.0	1.50	2.78
26/01/2020 19:55:28	26012020	260120	195528	70.790	12.187000	-56.117645	70.910	0.110	-0.270	2.370	70.810	-1.600	2.700																			1580068528.0	0.99	1.83
26/01/2020 19:55:29	26012020	260120	195529	70.860	12.186998	-56.117643	70.980	0.130	-0.290	2.300	70.870	-1.700	2.600																			1580068529.0	0.41	0.76
26/01/2020 19:55:30	26012020	260120	195530	70.890	12.187000	-56.117643	71.000	-0.000	-0.030	1.970	70.890	-1.400	2.300																			1580068530.0	0.18	0.33
26/01/2020 19:55:31	26012020	260120	195531	70.910	12.187000	-56.117647	71.010	-0.170	0.140	1.340	70.920	-1.200	1.700																			1580068531.0	0.63	1.17
26/01/2020 19:55:32	26012020	260120	195532	70.960	12.187003	-56.117648	71.040	-0.230	-0.040	0.510	70.970	-1.400	0.900																			1580068532.0	0.73	1.35
26/01/2020 19:55:33	26012020	260120	195533	71.010	12.187007	-56.117650	71.070	-0.140	-0.390	-0.350	71.010	-1.800	0.000																			1580068533.0	0.77	1.43
26/01/2020 19:55:34	26012020	260120	195534	71.060	12.187010	-56.117650	71.100	0.030	-0.590	-1.080	71.070	-2.000	-0.700																			1580068534.0	0.82	1.52
26/01/2020 19:55:35	26012020	260120	195535	71.120	12.187013	-56.117648	71.180	0.200	-0.530	-1.600	71.140	-1.900	-1.200																			1580068535.0	0.72	1.33
26/01/2020 19:55:36	26012020	260120	195536	71.210	12.187017	-56.117650	71.250	0.310	-0.330	-1.800	71.240	-1.700	-1.400																			1580068536.0	0.58	1.07
26/01/2020 19:55:37	26012020	260120	195537	71.320	12.187018	-56.117650	71.370	0.330	-0.160	-1.660	71.350	-1.500	-1.300																			1580068537.0	0.37	0.69
26/01/2020 19:55:38	26012020	260120	195538	71.410	12.187018	-56.117650	71.470	0.230	-0.030	-1.110	71.410	-1.400	-0.800																			1580068538.0	0.11	0.20
26/01/2020 19:55:39	26012020	260120	195539	71.390	12.187017	-56.117648	71.460	0.010	0.150	-0.180	71.370	-1.200	0.200																			1580068539.0	0.47	0.87
26/01/2020 19:55:40	26012020	260120	195540	71.310	12.187012	-56.117647	71.390	-0.250	0.390	0.950	71.290	-1.000	1.300																			1580068540.0	0.97	1.80
26/01/2020 19:55:41	26012020	260120	195541	71.250	12.187007	-56.117645	71.370	-0.470	0.510	1.940	71.240	-0.900	2.300																			1580068541.0	1.34	2.48
26/01/2020 19:55:42	26012020	260120	195542	71.250	12.187000	-56.117645	71.390	-0.520	0.370	2.530	71.260	-1.000	2.900																			1580068542.0	1.30	2.41
26/01/2020 19:55:43	26012020	260120	195543	71.290	12.186997	-56.117643	71.420	-0.370	-0.040	2.590	71.300	-1.400	2.900																			1580068543.0	0.90	1.67
26/01/2020 19:55:44	26012020	260120	195544	71.310	12.186995	-56.117642	71.440	-0.060	-0.540	2.180	71.310	-1.900	2.500																			1580068544.0	0.36	0.67
26/01/2020 19:55:45	26012020	260120	195545	71.290	12.186997	-56.117640	71.380	0.270	-0.890	1.460	71.270	-2.300	1.800																			1580068545.0	0.45	0.83
26/01/2020 19:55:46	26012020	260120	195546	71.180	12.187000	-56.117640	71.230	0.460	-0.910	0.590	71.140	-2.300	0.900																			1580068546.0	0.80	1.48
26/01/2020 19:55:47	26012020	260120	195547	71.010	12.187005	-56.117642	71.050	0.430	-0.570	-0.340	70.980	-1.900	0.000																			1580068547.0	1.06	1.96
26/01/2020 19:55:48	26012020	260120	195548	70.870	12.187010	-56.117643	70.910	0.280	-0.070	-1.170	70.850	-1.400	-0.800																			1580068548.0	1.25	2.31
26/01/2020 19:55:49	26012020	260120	195549	70.800	12.187015	-56.117647	70.820	0.110	0.340	-1.770	70.790	-1.000	-1.400																			1580068549.0	1.17	2.17
26/01/2020 19:55:50	26012020	260120	195550	70.740	12.187018	-56.117648	70.760	-0.050	0.480	-1.980	70.730	-0.900	-1.600																			1580068550.0	0.82	1.52
26/01/2020 19:55:51	26012020	260120	195551	70.770	12.187020	-56.117648	70.820	-0.160	0.330	-1.830	70.800	-1.100	-1.500																			1580068551.0	0.35	0.65
26/01/2020 19:55:52	26012020	260120	195552	70.890	12.187020	-56.117648	70.950	-0.210	-0.000	-1.340	70.910	-1.400	-1.000																			1580068552.0	0.27	0.50
26/01/2020 19:55:53	26012020	260120	195553	70.970	12.187018	-56.117645	71.050	-0.220	-0.260	-0.540	70.970	-1.600	-0.200																			1580068553.0	0.70	1.30
26/01/2020 19:55:54	26012020	260120	195554	70.950	12.187013	-56.117643	71.040	-0.180	-0.320	0.490	70.930	-1.700	0.800																			1580068554.0	1.07	1.98
26/01/2020 19:55:55	26012020	260120	195555	70.840	12.187007	-56.117642	70.960	-0.140	-0.250	1.520	70.810	-1.600	1.900																			1580068555.0	1.36	2.52
26/01/2020 19:55:56	26012020	260120	195556	70.710	12.187002	-56.117640	70.830	-0.080	-0.250	2.250	70.690	-1.600	2.600																			1580068556.0	1.37	2.54
26/01/2020 19:55:57	26012020	260120	195557	70.640	12.186997	-56.117638	70.750	0.010	-0.330	2.440	70.630	-1.700	2.800																			1580068557.0	1.02	1.89
26/01/2020 19:55:58	26012020	260120	195558	70.620	12.186995	-56.117637	70.720	0.090	-0.250	2.100	70.620	-1.600	2.400																			1580068558.0	0.40	0.74
26/01/2020 19:55:59	26012020	260120	195559	70.640	12.186997	-56.117638	70.740	0.120	0.060	1.320	70.660	-1.300	1.700	1013.70	26.20	26.20	21.10	21.10	173.00	73.00	73.00	389.00	28.50	356.00	3.60	66.00	3.10	16241	3404.00	27.80	27.80	1580068559.0	0.28	0.52
26/01/2020 19:56:00	26012020	260120	195600	70.770	12.187000	-56.117640	70.850	0.090	0.290	0.170	70.820	-1.100	0.500																			1580068560.0	0.93	1.72
26/01/2020 19:56:01	26012020	260120	195601	70.970	12.187005	-56.117643	71.080	0.090	0.150	-1.080	71.020	-1.200	-0.700																			1580068561.0	1.47	2.72
26/01/2020 19:56:02	26012020	260120	195602	71.250	12.187013	-56.117647	71.280	0.160	-0.210	-1.980	71.270	-1.600	-1.600																			1580068562.0	1.61	2.98
26/01/2020 19:56:03	26012020	260120	195603	71.270	12.187018	-56.117647	71.270	0.220	-0.520	-2.190	71.240	-1.900	-1.800																			1580068563.0	1.18	2.19
26/01/2020 19:56:04	26012020	260120	195604	71.010	12.187020	-56.117645	71.010	0.160	-0.570	-1.620	70.940	-1.900	-1.300																			1580068564.0	0.35	0.65
26/01/2020 19:56:05	26012020	260120	195605	70.650	12.187017	-56.117645	70.680	-0.090	-0.400	-0.610	70.580	-1.800	-0.300																			1580068565.0	0.69	1.28
26/01/2020 19:56:06	26012020	260120	195606	70.460	12.187012	-56.117643	70.530	-0.350	-0.200	0.360	70.450	-1.600	0.700																			1580068566.0	1.20	2.22
26/01/2020 19:56:07	26012020	260120	195607	70.550	12.187007	-56.117642	70.670	-0.390	-0.050	1.040	70.600	-1.400	1.400																			1580068567.0	1.23	2.28
26/01/2020 19:56:08	26012020	260120	195608	70.850	12.187002	-56.117640	70.980	-0.210	0.150	1.440	70.930	-1.200	1.800																			1580068568.0	1.05	1.94
26/01/2020 19:56:09	26012020	260120	195609	71.200	12.186998	-56.117638	71.340	0.030	0.350	1.580	71.260	-1.000	1.900																			1580068569.0	0.85	1.57
26/01/2020 19:56:10	26012020	260120	195610	71.410	12.186995	-56.117638	71.510	0.170	0.420	1.480	71.430	-1.000	1.800																			1580068570.0	0.56	1.04
26/01/2020 19:56:11	26012020	260120	195611	71.370	12.186995	-56.117638	71.430	0.200	0.290	1.210	71.320	-1.100	1.500																			1580068571.0	0.17	0.31
26/01/2020 19:56:12	26012020	260120	195612	71.060	12.186997	-56.117640	71.090	0.150	-0.010	0.850	70.980	-1.400	1.200																			1580068572.0	0.34	0.63
26/01/2020 19:56:13	26012020	260120	195613	70.740	12.187000	-56.117640	70.720	0.120	-0.490	0.440	70.680	-1.900	0.800																			1580068573.0	0.74	1.37
26/01/2020 19:56:14	26012020	260120	195614	70.470	12.187003	-56.117640	70.550	0.130	-0.950	-0.070	70.470	-2.300	0.300																			1580068574.0	1.05	1.94
26/01/2020 19:56:15	26012020	260120	195615	70.510	12.187008	-56.117640	70.610	0.150	-1.050	-0.530	70.530	-2.400	-0.200																			1580068575.0	1.08	2.00
26/01/2020 19:56:16	26012020	260120	195616	70.670	12.187012	-56.117640	70.750	0.040	-0.540	-0.730	70.690	-1.900	-0.400																			1580068576.0	0.63	1.17
26/01/2020 19:56:17	26012020	260120	195617	70.730	12.187012	-56.117642	70.810	-0.200	0.270	-0.600	70.720	-1.100	-0.200																			1580068577.0	0.33	0.61
26/01/2020 19:56:18	26012020	260120	195618	70.650	12.187008	-56.117643	70.730	-0.400	0.780	-0.200	70.630	-0.600	0.200																			1580068578.0	0.87	1.61
26/01/2020 19:56:19	26012020	260120	195619	70.510	12.187003	-56.117645	70.570	-0.410	0.660	0.250	70.470	-0.700	0.600																			1580068579.0	0.97	1.80
26/01/2020 19:56:20	26012020	260120	195620	70.330	12.187000	-56.117643	70.400	-0.190	0.100	0.600	70.300	-1.300	0.900																			1580068580.0	0.80	1.48
26/01/2020 19:56:21	26012020	260120	195621	70.230	12.186998	-56.117640	70.300	0.150	-0.450	0.730	70.230	-1.800	1.100																			1580068581.0	0.64	1.19
26/01/2020 19:56:22	26012020	260120	195622	70.270	12.187000	-56.117638	70.370	0.430	-0.730	0.580	70.300	-2.100	0.900																			1580068582.0	0.43	0.80
26/01/2020 19:56:23	26012020	260120	195623	70.390	12.187002	-56.117638	70.470	0.520	-0.630	0.290	70.410	-2.000	0.600																			1580068583.0	0.44	0.81
26/01/2020 19:56:24	26012020	260120	195624	70.410	12.187005	-56.117640	70.480	0.380	-0.230	0.110	70.400	-1.600	0.500																			1580068584.0	0.57	1.06
26/01/2020 19:56:25	26012020	260120	195625	70.330	12.187005	-56.117642	70.360	0.090	0.220	0.130	70.300	-1.200	0.500																			1580068585.0	0.58	1.07
26/01/2020 19:56:26	26012020	260120	195626	70.140	12.187005	-56.117643	70.200	-0.210	0.370	0.270	70.120	-1.000	0.600																			1580068586.0	0.47	0.87
26/01/2020 19:56:27	26012020	260120	195627	70.020	12.187003	-56.117645	70.090	-0.370	0.130	0.410	70.000	-1.300	0.800																			1580068587.0	0.25	0.46
26/01/2020 19:56:28	26012020	260120	195628	69.970	12.187003	-56.117643	70.050	-0.330	-0.240	0.480	69.960	-1.600	0.800																			1580068588.0	0.37	0.69
26/01/2020 19:56:29	26012020	260120	195629	70.010	12.187002	-56.117642	70.110	-0.140	-0.410	0.380	70.040	-1.800	0.700																			1580068589.0	0.46	0.85
26/01/2020 19:56:30	26012020	260120	195630	70.180	12.187002	-56.117640	70.280	0.020	-0.290	0.120	70.220	-1.700	0.500																			1580068590.0	0.20	0.37
26/01/2020 19:56:31	26012020	260120	195631	70.370	12.187002	-56.117642	70.470	0.070	-0.030	-0.170	70.400	-1.400	0.200																			1580068591.0	0.21	0.39
26/01/2020 19:56:32	26012020	260120	195632	70.480	12.187003	-56.117643	70.570	0.020	0.100	-0.300	70.490	-1.300	0.100																			1580068592.0	0.46	0.85
26/01/2020 19:56:33	26012020	260120	195633	70.480	12.187003	-56.117645	70.590	-0.020	-0.040	-0.210	70.480	-1.400	0.100																			1580068593.0	0.36	0.67
26/01/2020 19:56:34	26012020	260120	195634	70.420	12.187003	-56.117645	70.510	0.010	-0.370	0.040	70.400	-1.700	0.400																			1580068594.0	0.06	0.11
26/01/2020 19:56:35	26012020	260120	195635	70.320	12.187003	-56.117642	70.430	0.090	-0.560	0.370	70.310	-1.900	0.700																			1580068595.0	0.43	0.80
26/01/2020 19:56:36	26012020	260120	195636	70.270	12.187002	-56.117640	70.390	0.160	-0.390	0.670	70.270	-1.800	1.000																			1580068596.0	0.55	1.02
26/01/2020 19:56:37	26012020	260120	195637	70.320	12.187000	-56.117640	70.440	0.160	0.010	0.770	70.330	-1.400	1.100																			1580068597.0	0.46	0.85
26/01/2020 19:56:38	26012020	260120	195638	70.410	12.186998	-56.117640	70.510	0.100	0.380	0.660	70.430	-1.000	1.000																			1580068598.0	0.32	0.59
26/01/2020 19:56:39	26012020	260120	195639	70.490	12.187000	-56.117643	70.600	0.040	0.440	0.420	70.520	-0.900	0.800																			1580068599.0	0.43	0.80
26/01/2020 19:56:40	26012020	260120	195640	70.600	12.187002	-56.117643	70.680	-0.000	0.120	0.180	70.620	-1.300	0.500																			1580068600.0	0.55	1.02
26/01/2020 19:56:41	26012020	260120	195641	70.670	12.187003	-56.117643	70.750	-0.030	-0.330	0.110	70.680	-1.700	0.500																			1580068601.0	0.50	0.93
26/01/2020 19:56:42	26012020	260120	195642	70.680	12.187005	-56.117642	70.770	-0.080	-0.610	0.250	70.670	-2.000	0.600																			1580068602.0	0.32	0.59
26/01/2020 19:56:43	26012020	260120	195643	70.600	12.187003	-56.117642	70.690	-0.130	-0.600	0.510	70.570	-2.000	0.900																			1580068603.0	0.43	0.80
26/01/2020 19:56:44	26012020	260120	195644	70.430	12.187000	-56.117640	70.520	-0.130	-0.390	0.770	70.390	-1.800	1.100																			1580068604.0	0.60	1.11
26/01/2020 19:56:45	26012020	260120	195645	70.240	12.186998	-56.117640	70.330	-0.070	-0.110	0.900	70.200	-1.500	1.300																			1580068605.0	0.52	0.96
26/01/2020 19:56:46	26012020	260120	195646	70.140	12.186997	-56.117640	70.250	0.060	0.100	0.750	70.140	-1.300	1.100																			1580068606.0	0.21	0.39
26/01/2020 19:56:47	26012020	260120	195647	70.200	12.186998	-56.117642	70.320	0.170	0.220	0.280	70.240	-1.200	0.600																			1580068607.0	0.31	0.57
26/01/2020 19:56:48	26012020	260120	195648	70.380	12.187002	-56.117642	70.490	0.200	0.210	-0.330	70.430	-1.200	0.000																			1580068608.0	0.75	1.39
26/01/2020 19:56:49	26012020	260120	195649	70.620	12.187005	-56.117643	70.720	0.170	0.070	-0.820	70.670	-1.300	-0.500																			1580068609.0	0.96	1.78
26/01/2020 19:56:50	26012020	260120	195650	70.820	12.187008	-56.117645	70.910	0.070	-0.110	-0.990	70.850	-1.500	-0.600																			1580068610.0	0.76	1.41
26/01/2020 19:56:51	26012020	260120	195651	70.880	12.187010	-56.117645	70.950	-0.060	-0.190	-0.760	70.860	-1.600	-0.400																			1580068611.0	0.27	0.50
26/01/2020 19:56:52	26012020	260120	195652	70.750	12.187008	-56.117645	70.830	-0.200	-0.180	-0.200	70.710	-1.600	0.200																			1580068612.0	0.28	0.52
26/01/2020 19:56:53	26012020	260120	195653	70.530	12.187005	-56.117645	70.640	-0.280	-0.230	0.530	70.490	-1.600	0.900																			1580068613.0	0.70	1.30
26/01/2020 19:56:54	26012020	260120	195654	70.360	12.187002	-56.117645	70.490	-0.240	-0.480	1.100	70.340	-1.900	1.400																			1580068614.0	0.83	1.54
26/01/2020 19:56:55	26012020	260120	195655	70.300	12.186998	-56.117642	70.440	-0.070	-0.720	1.400	70.300	-2.100	1.700																			1580068615.0	0.76	1.41
26/01/2020 19:56:56	26012020	260120	195656	70.340	12.186997	-56.117640	70.460	0.140	-0.610	1.450	70.360	-2.000	1.800																			1580068616.0	0.64	1.19
26/01/2020 19:56:57	26012020	260120	195657	70.470	12.186997	-56.117638	70.580	0.260	-0.150	1.210	70.510	-1.500	1.600																			1580068617.0	0.33	0.61
26/01/2020 19:56:58	26012020	260120	195658	70.680	12.186997	-56.117640	70.780	0.270	0.360	0.570	70.730	-1.000	0.900																			1580068618.0	0.22	0.41
26/01/2020 19:56:59	26012020	260120	195659	70.960	12.187000	-56.117643	71.050	0.200	0.650	-0.360	71.020	-0.700	0.000	1013.80	26.20	26.20	21.00	21.10	164.00	72.00	73.00	389.00	28.50	6.00	3.60	77.00	3.30	15732	3349.00	27.70	27.80	1580068619.0	0.82	1.52
26/01/2020 19:57:00	26012020	260120	195700	71.210	12.187005	-56.117645	71.280	0.110	0.670	-1.170	71.240	-0.700	-0.800																			1580068620.0	1.31	2.43
26/01/2020 19:57:01	26012020	260120	195701	71.330	12.187010	-56.117648	71.370	0.020	0.440	-1.480	71.330	-1.000	-1.100																			1580068621.0	1.24	2.30
26/01/2020 19:57:02	26012020	260120	195702	71.330	12.187013	-56.117650	71.390	-0.040	-0.070	-1.260	71.330	-1.500	-0.900																			1580068622.0	0.69	1.28
26/01/2020 19:57:03	26012020	260120	195703	71.320	12.187013	-56.117648	71.370	-0.070	-0.700	-0.710	71.310	-2.100	-0.400																			1580068623.0	0.18	0.33
26/01/2020 19:57:04	26012020	260120	195704	71.250	12.187012	-56.117647	71.340	-0.150	-1.080	0.050	71.230	-2.500	0.400																			1580068624.0	0.69	1.28
26/01/2020 19:57:05	26012020	260120	195705	71.110	12.187007	-56.117643	71.210	-0.250	-0.950	0.940	71.090	-2.300	1.300																			1580068625.0	1.03	1.91
26/01/2020 19:57:06	26012020	260120	195706	70.980	12.187002	-56.117642	71.100	-0.320	-0.430	1.680	70.970	-1.800	2.000																			1580068626.0	1.24	2.30
26/01/2020 19:57:07	26012020	260120	195707	70.900	12.186997	-56.117642	71.010	-0.280	0.150	2.000	70.880	-1.200	2.300																			1580068627.0	1.19	2.20
26/01/2020 19:57:08	26012020	260120	195708	70.820	12.186993	-56.117642	70.930	-0.160	0.470	1.840	70.800	-0.900	2.200																			1580068628.0	0.72	1.33
26/01/2020 19:57:09	26012020	260120	195709	70.770	12.186993	-56.117642	70.870	0.030	0.420	1.300	70.770	-1.000	1.600																			1580068629.0	0.12	0.22
26/01/2020 19:57:10	26012020	260120	195710	70.860	12.186997	-56.117642	70.960	0.260	0.070	0.400	70.900	-1.300	0.800																			1580068630.0	0.73	1.35
26/01/2020 19:57:11	26012020	260120	195711	71.070	12.187002	-56.117642	71.150	0.480	-0.340	-0.670	71.110	-1.700	-0.300																			1580068631.0	1.31	2.43
26/01/2020 19:57:12	26012020	260120	195712	71.230	12.187010	-56.117642	71.280	0.600	-0.510	-1.530	71.240	-1.900	-1.200																			1580068632.0	1.52	2.82
26/01/2020 19:57:13	26012020	260120	195713	71.150	12.187015	-56.117643	71.160	0.540	-0.290	-1.770	71.090	-1.700	-1.400																			1580068633.0	1.21	2.24
26/01/2020 19:57:14	26012020	260120	195714	70.830	12.187017	-56.117645	70.840	0.250	0.110	-1.340	70.760	-1.300	-1.000																			1580068634.0	0.58	1.07
26/01/2020 19:57:15	26012020	260120	195715	70.500	12.187017	-56.117647	70.530	-0.140	0.340	-0.560	70.440	-1.000	-0.200																			1580068635.0	0.40	0.74
26/01/2020 19:57:16	26012020	260120	195716	70.310	12.187013	-56.117647	70.390	-0.480	0.210	0.240	70.290	-1.200	0.600																			1580068636.0	0.61	1.13
26/01/2020 19:57:17	26012020	260120	195717	70.250	12.187010	-56.117645	70.370	-0.650	-0.160	0.950	70.250	-1.500	1.300																			1580068637.0	0.79	1.46
26/01/2020 19:57:18	26012020	260120	195718	70.250	12.187007	-56.117643	70.370	-0.630	-0.450	1.580	70.260	-1.800	1.900																			1580068638.0	1.03	1.91
26/01/2020 19:57:19	26012020	260120	195719	70.290	12.187002	-56.117640	70.410	-0.470	-0.470	1.970	70.290	-1.900	2.300																			1580068639.0	1.13	2.09
26/01/2020 19:57:20	26012020	260120	195720	70.310	12.186997	-56.117638	70.430	-0.210	-0.290	1.920	70.300	-1.700	2.300																			1580068640.0	0.95	1.76
26/01/2020 19:57:21	26012020	260120	195721	70.260	12.186995	-56.117638	70.350	0.130	-0.160	1.350	70.240	-1.500	1.700																			1580068641.0	0.43	0.80
26/01/2020 19:57:22	26012020	260120	195722	70.140	12.186997	-56.117640	70.200	0.510	-0.250	0.420	70.110	-1.600	0.800																			1580068642.0	0.49	0.91
26/01/2020 19:57:23	26012020	260120	195723	69.970	12.187003	-56.117642	70.010	0.780	-0.390	-0.600	69.930	-1.800	-0.300																			1580068643.0	1.28	2.37
26/01/2020 19:57:24	26012020	260120	195724	69.810	12.187012	-56.117642	69.860	0.740	-0.280	-1.470	69.790	-1.700	-1.100																			1580068644.0	1.73	3.20
26/01/2020 19:57:25	26012020	260120	195725	69.780	12.187018	-56.117645	69.840	0.350	0.120	-2.000	69.800	-1.300	-1.600																			1580068645.0	1.61	2.98
26/01/2020 19:57:26	26012020	260120	195726	69.940	12.187022	-56.117648	70.020	-0.180	0.470	-2.130	69.990	-0.900	-1.800																			1580068646.0	1.09	2.02
26/01/2020 19:57:27	26012020	260120	195727	70.220	12.187023	-56.117650	70.320	-0.550	0.480	-1.810	70.270	-0.900	-1.500																			1580068647.0	0.45	0.83
26/01/2020 19:57:28	26012020	260120	195728	70.420	12.187020	-56.117648	70.520	-0.590	0.150	-0.960	70.420	-1.200	-0.600																			1580068648.0	0.57	1.06
26/01/2020 19:57:29	26012020	260120	195729	70.320	12.187015	-56.117647	70.420	-0.390	-0.250	0.320	70.270	-1.600	0.700																			1580068649.0	1.41	2.61
26/01/2020 19:57:30	26012020	260120	195730	69.970	12.187007	-56.117642	70.070	-0.160	-0.460	1.630	69.880	-1.800	2.000																			1580068650.0	1.87	3.46
26/01/2020 19:57:31	26012020	260120	195731	69.570	12.187000	-56.117638	69.710	-0.020	-0.430	2.500	69.510	-1.800	2.800																			1580068651.0	1.64	3.04
26/01/2020 19:57:32	26012020	260120	195732	69.410	12.186997	-56.117638	69.570	0.060	-0.340	2.660	69.430	-1.700	3.000																			1580068652.0	0.86	1.59
26/01/2020 19:57:33	26012020	260120	195733	69.600	12.186997	-56.117638	69.780	0.140	-0.320	2.130	69.660	-1.700	2.500																			1580068653.0	0.15	0.28
26/01/2020 19:57:34	26012020	260120	195734	69.900	12.187000	-56.117640	70.030	0.180	-0.290	1.220	69.940	-1.700	1.600																			1580068654.0	0.71	1.31
26/01/2020 19:57:35	26012020	260120	195735	70.020	12.187003	-56.117642	70.110	0.140	-0.150	0.210	70.010	-1.500	0.600																			1580068655.0	0.97	1.80
26/01/2020 19:57:36	26012020	260120	195736	69.850	12.187008	-56.117643	69.900	0.060	0.060	-0.570	69.790	-1.300	-0.200																			1580068656.0	1.01	1.87
26/01/2020 19:57:37	26012020	260120	195737	69.580	12.187012	-56.117645	69.630	-0.000	0.170	-1.080	69.530	-1.200	-0.700																			1580068657.0	0.82	1.52
26/01/2020 19:57:38	26012020	260120	195738	69.430	12.187013	-56.117647	69.490	0.010	0.040	-1.390	69.420	-1.400	-1.000																			1580068658.0	0.60	1.11
26/01/2020 19:57:39	26012020	260120	195739	69.410	12.187017	-56.117647	69.470	0.060	-0.180	-1.500	69.400	-1.600	-1.100																			1580068659.0	0.48	0.89
26/01/2020 19:57:40	26012020	260120	195740	69.360	12.187018	-56.117645	69.420	0.080	-0.250	-1.350	69.350	-1.600	-1.000																			1580068660.0	0.41	0.76
26/01/2020 19:57:41	26012020	260120	195741	69.320	12.187018	-56.117645	69.380	0.060	-0.110	-0.930	69.310	-1.500	-0.600																			1580068661.0	0.07	0.13
26/01/2020 19:57:42	26012020	260120	195742	69.280	12.187017	-56.117645	69.370	0.000	0.060	-0.280	69.270	-1.300	0.100																			1580068662.0	0.41	0.76
26/01/2020 19:57:43	26012020	260120	195743	69.250	12.187013	-56.117645	69.360	-0.070	0.080	0.580	69.240	-1.300	0.900																			1580068663.0	0.80	1.48
26/01/2020 19:57:44	26012020	260120	195744	69.160	12.187008	-56.117643	69.290	-0.150	-0.020	1.410	69.140	-1.400	1.800																			1580068664.0	1.02	1.89
26/01/2020 19:57:45	26012020	260120	195745	69.020	12.187005	-56.117643	69.140	-0.200	-0.180	1.920	68.980	-1.600	2.300																			1580068665.0	0.86	1.59
26/01/2020 19:57:46	26012020	260120	195746	68.820	12.187003	-56.117642	68.930	-0.140	-0.330	2.070	68.790	-1.700	2.400																			1580068666.0	0.41	0.76
26/01/2020 19:57:47	26012020	260120	195747	68.670	12.187003	-56.117642	68.780	0.010	-0.480	1.950	68.640	-1.900	2.300																			1580068667.0	0.08	0.15
26/01/2020 19:57:48	26012020	260120	195748	68.540	12.187003	-56.117642	68.650	0.170	-0.530	1.610	68.520	-1.900	2.000																			1580068668.0	0.27	0.50
26/01/2020 19:57:49	26012020	260120	195749	68.420	12.187007	-56.117640	68.500	0.230	-0.310	1.050	68.390	-1.700	1.400																			1580068669.0	0.39	0.72
26/01/2020 19:57:50	26012020	260120	195750	68.280	12.187008	-56.117642	68.330	0.140	0.080	0.310	68.260	-1.300	0.700																			1580068670.0	0.54	1.00
26/01/2020 19:57:51	26012020	260120	195751	68.230	12.187012	-56.117643	68.280	-0.010	0.360	-0.560	68.240	-1.000	-0.200																			1580068671.0	0.86	1.59
26/01/2020 19:57:52	26012020	260120	195752	68.370	12.187017	-56.117647	68.420	-0.110	0.410	-1.420	68.420	-1.000	-1.100																			1580068672.0	1.13	2.09
26/01/2020 19:57:53	26012020	260120	195753	68.540	12.187022	-56.117648	68.600	-0.120	0.270	-1.910	68.570	-1.100	-1.500																			1580068673.0	1.15	2.13
26/01/2020 19:57:54	26012020	260120	195754	68.500	12.187023	-56.117650	68.520	-0.100	0.050	-1.730	68.450	-1.300	-1.400																			1580068674.0	0.68	1.26
26/01/2020 19:57:55	26012020	260120	195755	68.210	12.187023	-56.117648	68.150	-0.090	-0.230	-0.990	68.120	-1.600	-0.600																			1580068675.0	0.07	0.13
26/01/2020 19:57:56	26012020	260120	195756	67.730	12.187022	-56.117647	67.790	-0.040	-0.620	-0.140	67.670	-2.000	0.200																			1580068676.0	0.55	1.02
26/01/2020 19:57:57	26012020	260120	195757	67.580	12.187020	-56.117645	67.690	0.120	-0.960	0.540	67.590	-2.300	0.900																			1580068677.0	0.67	1.24
26/01/2020 19:57:58	26012020	260120	195758	67.750	12.187020	-56.117642	67.890	0.320	-0.950	1.040	67.820	-2.300	1.400																			1580068678.0	0.68	1.26
26/01/2020 19:57:59	26012020	260120	195759	68.130	12.187018	-56.117640	68.290	0.370	-0.460	1.350	68.210	-1.800	1.700	1013.80	26.20	26.20	21.00	21.00	162.00	72.00	73.00	389.00	28.40	12.00	3.70	84.00	3.30	15480	3543.00	27.70	27.80	1580068679.0	0.57	1.06
26/01/2020 19:58:00	26012020	260120	195800	68.470	12.187017	-56.117638	68.600	0.120	0.360	1.490	68.500	-1.000	1.800																			1580068680.0	0.47	0.87
26/01/2020 19:58:01	26012020	260120	195801	68.510	12.187013	-56.117640	68.600	-0.310	1.060	1.450	68.480	-0.300	1.800																			1580068681.0	0.67	1.24
26/01/2020 19:58:02	26012020	260120	195802	68.320	12.187012	-56.117643	68.400	-0.620	1.110	1.200	68.270	-0.300	1.500																			1580068682.0	0.62	1.15
26/01/2020 19:58:03	26012020	260120	195803	68.150	12.187012	-56.117643	68.230	-0.530	0.410	0.700	68.140	-1.000	1.000																			1580068683.0	0.25	0.46
26/01/2020 19:58:04	26012020	260120	195804	68.140	12.187015	-56.117643	68.200	-0.090	-0.580	-0.030	68.150	-2.000	0.300																			1580068684.0	0.80	1.48
26/01/2020 19:58:05	26012020	260120	195805	68.230	12.187022	-56.117642	68.270	0.380	-1.200	-0.850	68.240	-2.600	-0.500																			1580068685.0	1.29	2.39
26/01/2020 19:58:06	26012020	260120	195806	68.300	12.187027	-56.117642	68.350	0.590	-1.100	-1.530	68.310	-2.500	-1.200																			1580068686.0	1.33	2.46
26/01/2020 19:58:07	26012020	260120	195807	68.340	12.187033	-56.117643	68.370	0.440	-0.440	-1.850	68.350	-1.800	-1.500																			1580068687.0	1.26	2.33
26/01/2020 19:58:08	26012020	260120	195808	68.410	12.187035	-56.117648	68.440	0.100	0.230	-1.680	68.420	-1.200	-1.300																			1580068688.0	1.10	2.04
26/01/2020 19:58:09	26012020	260120	195809	68.530	12.187035	-56.117652	68.600	-0.220	0.460	-1.020	68.560	-0.900	-0.700																			1580068689.0	0.62	1.15
26/01/2020 19:58:10	26012020	260120	195810	68.690	12.187033	-56.117650	68.790	-0.410	0.230	-0.030	68.730	-1.200	0.300																			1580068690.0	0.60	1.11
26/01/2020 19:58:11	26012020	260120	195811	68.850	12.187028	-56.117647	68.980	-0.430	-0.130	1.050	68.880	-1.500	1.400																			1580068691.0	1.27	2.35
26/01/2020 19:58:12	26012020	260120	195812	68.950	12.187022	-56.117643	69.090	-0.300	-0.350	1.980	68.960	-1.700	2.300																			1580068692.0	1.60	2.96
26/01/2020 19:58:13	26012020	260120	195813	68.950	12.187015	-56.117640	69.090	-0.030	-0.380	2.600	68.950	-1.800	2.900																			1580068693.0	1.50	2.78
26/01/2020 19:58:14	26012020	260120	195814	68.900	12.187010	-56.117638	69.040	0.280	-0.290	2.720	68.880	-1.700	3.100																			1580068694.0	1.08	2.00
26/01/2020 19:58:15	26012020	260120	195815	68.860	12.187010	-56.117638	68.990	0.500	-0.140	2.200	68.860	-1.500	2.500																			1580068695.0	0.28	0.52
26/01/2020 19:58:16	26012020	260120	195816	68.900	12.187013	-56.117640	69.000	0.510	0.080	1.110	68.910	-1.300	1.400																			1580068696.0	0.87	1.61
26/01/2020 19:58:17	26012020	260120	195817	69.020	12.187020	-56.117643	69.100	0.280	0.280	-0.270	69.040	-1.100	0.100																			1580068697.0	1.88	3.48
26/01/2020 19:58:18	26012020	260120	195818	69.180	12.187030	-56.117650	69.240	-0.040	0.290	-1.510	69.210	-1.100	-1.200																			1580068698.0	2.41	4.46
26/01/2020 19:58:19	26012020	260120	195819	69.310	12.187038	-56.117653	69.400	-0.300	-0.010	-2.280	69.340	-1.400	-1.900																			1580068699.0	2.10	3.89
26/01/2020 19:58:20	26012020	260120	195820	69.450	12.187045	-56.117655	69.500	-0.390	-0.490	-2.360	69.460	-1.900	-2.000																			1580068700.0	1.15	2.13
26/01/2020 19:58:21	26012020	260120	195821	69.450	12.187045	-56.117653	69.500	-0.350	-0.790	-1.800	69.430	-2.200	-1.400																			1580068701.0	0.36	0.67
26/01/2020 19:58:22	26012020	260120	195822	69.360	12.187040	-56.117652	69.440	-0.240	-0.610	-0.860	69.350	-2.000	-0.500																			1580068702.0	1.08	2.00
26/01/2020 19:58:23	26012020	260120	195823	69.340	12.187033	-56.117650	69.440	-0.100	-0.110	0.050	69.350	-1.500	0.400																			1580068703.0	1.43	2.65
26/01/2020 19:58:24	26012020	260120	195824	69.430	12.187028	-56.117648	69.560	0.090	0.260	0.670	69.450	-1.100	1.000																			1580068704.0	1.26	2.33
26/01/2020 19:58:25	26012020	260120	195825	69.520	12.187025	-56.117650	69.640	0.300	0.240	0.940	69.530	-1.100	1.300																			1580068705.0	0.70	1.30
26/01/2020 19:58:26	26012020	260120	195826	69.530	12.187025	-56.117650	69.640	0.420	-0.050	0.970	69.520	-1.400	1.300																			1580068706.0	0.07	0.13
26/01/2020 19:58:27	26012020	260120	195827	69.470	12.187027	-56.117648	69.560	0.370	-0.310	0.910	69.450	-1.700	1.300																			1580068707.0	0.51	0.94
26/01/2020 19:58:28	26012020	260120	195828	69.360	12.187030	-56.117648	69.460	0.140	-0.260	0.900	69.340	-1.700	1.300																			1580068708.0	0.53	0.98
26/01/2020 19:58:29	26012020	260120	195829	69.220	12.187030	-56.117648	69.310	-0.200	0.020	0.850	69.190	-1.400	1.200																			1580068709.0	0.24	0.44
26/01/2020 19:58:30	26012020	260120	195830	69.120	12.187030	-56.117650	69.220	-0.470	0.220	0.520	69.110	-1.200	0.900																			1580068710.0	0.35	0.65
26/01/2020 19:58:31	26012020	260120	195831	69.120	12.187030	-56.117652	69.230	-0.520	0.160	-0.110	69.140	-1.200	0.200																			1580068711.0	0.40	0.74
26/01/2020 19:58:32	26012020	260120	195832	69.250	12.187033	-56.117653	69.350	-0.290	-0.120	-0.820	69.290	-1.500	-0.500																			1580068712.0	0.59	1.09
26/01/2020 19:58:33	26012020	260120	195833	69.410	12.187037	-56.117653	69.490	0.100	-0.440	-1.390	69.430	-1.800	-1.000																			1580068713.0	0.76	1.41
26/01/2020 19:58:34	26012020	260120	195834	69.510	12.187040	-56.117653	69.570	0.430	-0.630	-1.640	69.510	-2.000	-1.300																			1580068714.0	0.76	1.41
26/01/2020 19:58:35	26012020	260120	195835	69.490	12.187043	-56.117653	69.540	0.510	-0.530	-1.530	69.480	-1.900	-1.200																			1580068715.0	0.54	1.00
26/01/2020 19:58:36	26012020	260120	195836	69.360	12.187043	-56.117655	69.410	0.330	-0.180	-1.050	69.320	-1.600	-0.700																			1580068716.0	0.17	0.31
26/01/2020 19:58:37	26012020	260120	195837	69.160	12.187042	-56.117655	69.240	0.020	0.190	-0.280	69.130	-1.200	0.100																			1580068717.0	0.42	0.78
26/01/2020 19:58:38	26012020	260120	195838	69.010	12.187038	-56.117655	69.120	-0.230	0.310	0.570	68.990	-1.100	0.900																			1580068718.0	0.77	1.43
26/01/2020 19:58:39	26012020	260120	195839	68.970	12.187033	-56.117655	69.100	-0.320	0.180	1.260	68.980	-1.200	1.600																			1580068719.0	0.92	1.70
26/01/2020 19:58:40	26012020	260120	195840	69.090	12.187030	-56.117653	69.240	-0.270	-0.050	1.580	69.130	-1.400	1.900																			1580068720.0	0.89	1.65
26/01/2020 19:58:41	26012020	260120	195841	69.280	12.187028	-56.117650	69.420	-0.150	-0.200	1.480	69.310	-1.600	1.800																			1580068721.0	0.60	1.11
26/01/2020 19:58:42	26012020	260120	195842	69.410	12.187028	-56.117650	69.520	-0.020	-0.210	1.070	69.420	-1.600	1.400																			1580068722.0	0.13	0.24
26/01/2020 19:58:43	26012020	260120	195843	69.430	12.187030	-56.117652	69.520	0.120	-0.180	0.480	69.430	-1.600	0.800																			1580068723.0	0.41	0.76
26/01/2020 19:58:44	26012020	260120	195844	69.360	12.187032	-56.117653	69.430	0.230	-0.200	-0.130	69.330	-1.600	0.200																			1580068724.0	0.76	1.41
26/01/2020 19:58:45	26012020	260120	195845	69.240	12.187037	-56.117655	69.270	0.250	-0.250	-0.620	69.210	-1.600	-0.300																			1580068725.0	0.91	1.69
26/01/2020 19:58:46	26012020	260120	195846	69.110	12.187040	-56.117657	69.170	0.150	-0.290	-0.950	69.110	-1.700	-0.600																			1580068726.0	0.83	1.54
26/01/2020 19:58:47	26012020	260120	195847	69.180	12.187043	-56.117657	69.270	-0.020	-0.240	-1.180	69.210	-1.600	-0.800																			1580068727.0	0.62	1.15
26/01/2020 19:58:48	26012020	260120	195848	69.370	12.187045	-56.117658	69.470	-0.160	-0.090	-1.280	69.410	-1.500	-0.900																			1580068728.0	0.36	0.67
26/01/2020 19:58:49	26012020	260120	195849	69.530	12.187045	-56.117658	69.620	-0.170	0.110	-1.100	69.540	-1.300	-0.800																			1580068729.0	0.13	0.24
26/01/2020 19:58:50	26012020	260120	195850	69.570	12.187042	-56.117658	69.660	-0.060	0.180	-0.610	69.580	-1.200	-0.300																			1580068730.0	0.39	0.72
26/01/2020 19:58:51	26012020	260120	195851	69.620	12.187040	-56.117658	69.720	0.110	0.020	0.010	69.630	-1.400	0.400																			1580068731.0	0.68	1.26
26/01/2020 19:58:52	26012020	260120	195852	69.690	12.187037	-56.117657	69.820	0.200	-0.230	0.620	69.700	-1.600	1.000																			1580068732.0	0.77	1.43
26/01/2020 19:58:53	26012020	260120	195853	69.730	12.187033	-56.117653	69.860	0.120	-0.300	1.100	69.730	-1.700	1.400																			1580068733.0	0.70	1.30
26/01/2020 19:58:54	26012020	260120	195854	69.720	12.187032	-56.117653	69.860	-0.110	-0.160	1.340	69.710	-1.500	1.700																			1580068734.0	0.44	0.81
26/01/2020 19:58:55	26012020	260120	195855	69.690	12.187030	-56.117653	69.820	-0.320	-0.010	1.330	69.680	-1.400	1.700																			1580068735.0	0.30	0.56
26/01/2020 19:58:56	26012020	260120	195856	69.670	12.187030	-56.117655	69.790	-0.330	-0.050	1.090	69.670	-1.400	1.400																			1580068736.0	0.29	0.54
26/01/2020 19:58:57	26012020	260120	195857	69.710	12.187032	-56.117655	69.820	-0.100	-0.290	0.660	69.730	-1.700	1.000																			1580068737.0	0.22	0.41
26/01/2020 19:58:58	26012020	260120	195858	69.820	12.187033	-56.117655	69.950	0.210	-0.480	0.120	69.850	-1.900	0.500																			1580068738.0	0.37	0.69
26/01/2020 19:58:59	26012020	260120	195859	69.990	12.187035	-56.117655	70.110	0.360	-0.360	-0.500	70.030	-1.800	-0.200	1013.70	26.20	26.20	21.00	21.10	158.00	73.00	73.00	389.00	28.30	20.00	3.50	92.00	3.20	15175	3595.00	27.70	27.80	1580068739.0	0.50	0.93
26/01/2020 19:59:00	26012020	260120	195900	70.210	12.187038	-56.117655	70.310	0.290	0.040	-1.130	70.250	-1.400	-0.800																			1580068740.0	0.63	1.17
26/01/2020 19:59:01	26012020	260120	195901	70.390	12.187042	-56.117658	70.470	0.110	0.410	-1.510	70.410	-1.000	-1.200																			1580068741.0	0.83	1.54
26/01/2020 19:59:02	26012020	260120	195902	70.470	12.187043	-56.117662	70.540	-0.070	0.430	-1.500	70.480	-1.000	-1.100																			1580068742.0	0.74	1.37
26/01/2020 19:59:03	26012020	260120	195903	70.460	12.187043	-56.117662	70.550	-0.130	0.020	-1.070	70.450	-1.400	-0.700																			1580068743.0	0.26	0.48
26/01/2020 19:59:04	26012020	260120	195904	70.390	12.187042	-56.117660	70.480	-0.070	-0.560	-0.290	70.370	-1.900	0.000																			1580068744.0	0.41	0.76
26/01/2020 19:59:05	26012020	260120	195905	70.370	12.187038	-56.117658	70.480	0.040	-0.880	0.570	70.380	-2.300	0.900																			1580068745.0	0.93	1.72
26/01/2020 19:59:06	26012020	260120	195906	70.430	12.187035	-56.117655	70.560	0.110	-0.730	1.290	70.440	-2.100	1.600																			1580068746.0	1.12	2.07
26/01/2020 19:59:07	26012020	260120	195907	70.470	12.187030	-56.117653	70.580	0.050	-0.170	1.730	70.470	-1.600	2.100																			1580068747.0	1.05	1.94
26/01/2020 19:59:08	26012020	260120	195908	70.480	12.187027	-56.117653	70.610	-0.120	0.470	1.730	70.490	-0.900	2.100																			1580068748.0	0.78	1.44
26/01/2020 19:59:09	26012020	260120	195909	70.590	12.187025	-56.117657	70.710	-0.240	0.790	1.240	70.630	-0.600	1.600																			1580068749.0	0.56	1.04
26/01/2020 19:59:10	26012020	260120	195910	70.830	12.187028	-56.117658	70.930	-0.220	0.550	0.420	70.880	-0.900	0.800																			1580068750.0	0.69	1.28
26/01/2020 19:59:11	26012020	260120	195911	71.130	12.187032	-56.117660	71.210	-0.050	-0.150	-0.440	71.180	-1.500	-0.100																			1580068751.0	0.95	1.76
26/01/2020 19:59:12	26012020	260120	195912	71.330	12.187037	-56.117660	71.400	0.100	-0.810	-1.040	71.350	-2.200	-0.700																			1580068752.0	1.02	1.89
26/01/2020 19:59:13	26012020	260120	195913	71.330	12.187040	-56.117658	71.380	0.150	-1.000	-1.260	71.310	-2.400	-0.900																			1580068753.0	0.71	1.31
26/01/2020 19:59:14	26012020	260120	195914	71.200	12.187040	-56.117658	71.250	0.080	-0.680	-1.130	71.180	-2.100	-0.800																			1580068754.0	0.11	0.20
26/01/2020 19:59:15	26012020	260120	195915	71.060	12.187038	-56.117658	71.110	-0.000	-0.110	-0.730	71.030	-1.500	-0.400																			1580068755.0	0.45	0.83
26/01/2020 19:59:16	26012020	260120	195916	70.950	12.187035	-56.117660	71.020	-0.040	0.400	-0.260	70.940	-1.000	0.100																			1580068756.0	0.70	1.30
26/01/2020 19:59:17	26012020	260120	195917	70.980	12.187032	-56.117660	71.070	-0.000	0.600	-0.030	71.010	-0.800	0.300																			1580068757.0	0.62	1.15
26/01/2020 19:59:18	26012020	260120	195918	71.190	12.187032	-56.117662	71.290	0.120	0.330	-0.070	71.250	-1.100	0.300																			1580068758.0	0.20	0.37
26/01/2020 19:59:19	26012020	260120	195919	71.480	12.187033	-56.117660	71.590	0.260	-0.210	-0.100	71.540	-1.600	0.300																			1580068759.0	0.39	0.72
26/01/2020 19:59:20	26012020	260120	195920	71.700	12.187035	-56.117658	71.790	0.290	-0.620	0.160	71.720	-2.000	0.500																			1580068760.0	0.53	0.98
26/01/2020 19:59:21	26012020	260120	195921	71.740	12.187035	-56.117657	71.790	0.110	-0.590	0.690	71.720	-2.000	1.000																			1580068761.0	0.44	0.81
26/01/2020 19:59:22	26012020	260120	195922	71.600	12.187032	-56.117657	71.680	-0.200	-0.240	1.250	71.570	-1.600	1.600																			1580068762.0	0.84	1.56
26/01/2020 19:59:23	26012020	260120	195923	71.440	12.187027	-56.117657	71.540	-0.440	0.100	1.580	71.420	-1.300	1.900																			1580068763.0	1.09	2.02
26/01/2020 19:59:24	26012020	260120	195924	71.360	12.187022	-56.117657	71.450	-0.420	0.180	1.490	71.360	-1.200	1.800																			1580068764.0	0.84	1.56
26/01/2020 19:59:25	26012020	260120	195925	71.410	12.187022	-56.117657	71.510	-0.160	0.000	0.960	71.440	-1.400	1.300																			1580068765.0	0.18	0.33
26/01/2020 19:59:26	26012020	260120	195926	71.630	12.187023	-56.117657	71.730	0.170	-0.200	0.080	71.690	-1.600	0.400																			1580068766.0	0.52	0.96
26/01/2020 19:59:27	26012020	260120	195927	71.920	12.187028	-56.117657	71.980	0.360	-0.270	-0.830	71.970	-1.700	-0.500																			1580068767.0	0.95	1.76
26/01/2020 19:59:28	26012020	260120	195928	72.050	12.187032	-56.117658	72.070	0.340	-0.180	-1.400	72.040	-1.600	-1.100																			1580068768.0	1.00	1.85
26/01/2020 19:59:29	26012020	260120	195929	71.890	12.187035	-56.117660	71.880	0.140	-0.000	-1.430	71.830	-1.400	-1.100																			1580068769.0	0.69	1.28
26/01/2020 19:59:30	26012020	260120	195930	71.550	12.187035	-56.117662	71.550	-0.100	0.120	-1.020	71.490	-1.300	-0.700																			1580068770.0	0.29	0.54
26/01/2020 19:59:31	26012020	260120	195931	71.310	12.187035	-56.117662	71.350	-0.230	0.060	-0.500	71.290	-1.300	-0.200																			1580068771.0	0.28	0.52
26/01/2020 19:59:32	26012020	260120	195932	71.320	12.187033	-56.117662	71.400	-0.190	-0.170	-0.060	71.360	-1.600	0.300																			1580068772.0	0.38	0.70
26/01/2020 19:59:33	26012020	260120	195933	71.500	12.187032	-56.117660	71.650	-0.030	-0.410	0.360	71.550	-1.800	0.700																			1580068773.0	0.52	0.96
26/01/2020 19:59:34	26012020	260120	195934	71.850	12.187028	-56.117658	71.960	0.120	-0.490	0.810	71.910	-1.900	1.100																			1580068774.0	0.71	1.31
26/01/2020 19:59:35	26012020	260120	195935	72.030	12.187025	-56.117657	72.120	0.200	-0.410	1.240	72.030	-1.800	1.600																			1580068775.0	0.88	1.63
26/01/2020 19:59:36	26012020	260120	195936	71.940	12.187020	-56.117655	72.010	0.170	-0.190	1.550	71.900	-1.600	1.900																			1580068776.0	0.88	1.63
26/01/2020 19:59:37	26012020	260120	195937	71.610	12.187018	-56.117655	71.680	0.070	0.140	1.650	71.530	-1.300	2.000																			1580068777.0	0.63	1.17
26/01/2020 19:59:38	26012020	260120	195938	71.220	12.187017	-56.117655	71.300	-0.040	0.330	1.440	71.160	-1.100	1.800																			1580068778.0	0.29	0.54
26/01/2020 19:59:39	26012020	260120	195939	71.010	12.187018	-56.117657	71.080	-0.080	0.190	0.850	71.000	-1.200	1.200																			1580068779.0	0.42	0.78
26/01/2020 19:59:40	26012020	260120	195940	71.100	12.187022	-56.117658	71.200	-0.020	-0.120	-0.030	71.150	-1.500	0.300																			1580068780.0	0.88	1.63
26/01/2020 19:59:41	26012020	260120	195941	71.410	12.187028	-56.117658	71.480	0.030	-0.280	-0.990	71.470	-1.700	-0.600																			1580068781.0	1.18	2.19
26/01/2020 19:59:42	26012020	260120	195942	71.660	12.187032	-56.117658	71.700	-0.040	-0.180	-1.680	71.690	-1.600	-1.300																			1580068782.0	1.06	1.96
26/01/2020 19:59:43	26012020	260120	195943	71.690	12.187035	-56.117662	71.710	-0.180	0.040	-1.790	71.660	-1.400	-1.400																			1580068783.0	0.65	1.20
26/01/2020 19:59:44	26012020	260120	195944	71.500	12.187033	-56.117663	71.540	-0.230	0.080	-1.300	71.460	-1.300	-1.000																			1580068784.0	0.40	0.74
26/01/2020 19:59:45	26012020	260120	195945	71.260	12.187030	-56.117663	71.320	-0.080	-0.170	-0.480	71.220	-1.600	-0.100																			1580068785.0	0.71	1.31
26/01/2020 19:59:46	26012020	260120	195946	71.110	12.187027	-56.117660	71.190	0.190	-0.550	0.330	71.090	-1.900	0.700																			1580068786.0	0.93	1.72
26/01/2020 19:59:47	26012020	260120	195947	71.050	12.187023	-56.117658	71.150	0.330	-0.720	0.960	71.040	-2.100	1.300																			1580068787.0	0.89	1.65
26/01/2020 19:59:48	26012020	260120	195948	71.020	12.187022	-56.117657	71.140	0.200	-0.450	1.390	71.020	-1.800	1.700																			1580068788.0	0.64	1.19
26/01/2020 19:59:49	26012020	260120	195949	70.990	12.187018	-56.117657	71.120	-0.060	0.080	1.630	70.990	-1.300	2.000																			1580068789.0	0.50	0.93
26/01/2020 19:59:50	26012020	260120	195950	70.960	12.187017	-56.117658	71.080	-0.230	0.430	1.650	70.950	-1.000	2.000																			1580068790.0	0.62	1.15
26/01/2020 19:59:51	26012020	260120	195951	70.920	12.187015	-56.117658	71.030	-0.180	0.350	1.400	70.910	-1.000	1.700																			1580068791.0	0.40	0.74
26/01/2020 19:59:52	26012020	260120	195952	70.900	12.187015	-56.117658	71.000	0.030	0.040	0.880	70.900	-1.400	1.200																			1580068792.0	0.11	0.20
26/01/2020 19:59:53	26012020	260120	195953	70.970	12.187018	-56.117658	71.060	0.200	-0.230	0.110	70.990	-1.600	0.500																			1580068793.0	0.52	0.96
26/01/2020 19:59:54	26012020	260120	195954	71.100	12.187022	-56.117658	71.180	0.210	-0.270	-0.750	71.130	-1.700	-0.400																			1580068794.0	0.85	1.57
26/01/2020 19:59:55	26012020	260120	195955	71.160	12.187027	-56.117660	71.190	0.050	-0.090	-1.360	71.150	-1.500	-1.000																			1580068795.0	1.09	2.02
26/01/2020 19:59:56	26012020	260120	195956	71.110	12.187030	-56.117663	71.150	-0.140	0.100	-1.520	71.100	-1.300	-1.200																			1580068796.0	0.99	1.83
26/01/2020 19:59:57	26012020	260120	195957	71.070	12.187030	-56.117665	71.090	-0.220	-0.000	-1.240	71.050	-1.400	-0.900																			1580068797.0	0.58	1.07
26/01/2020 19:59:58	26012020	260120	195958	70.940	12.187030	-56.117665	70.990	-0.130	-0.390	-0.600	70.920	-1.800	-0.300																			1580068798.0	0.27	0.50
26/01/2020 19:59:59	26012020	260120	195959	70.830	12.187027	-56.117663	70.870	0.020	-0.760	0.210	70.810	-2.100	0.600	1013.80	26.20	26.20	21.00	21.00	157.00	73.00	73.00	390.00	28.20	18.00	3.30	91.00	3.10	14969	3464.00	27.70	27.70	1580068799.0	0.84	1.56
26/01/2020 20:00:00	26012020	260120	200000	70.720	12.187022	-56.117660	70.820	0.130	-0.790	0.960	70.710	-2.200	1.300																			1580068800.0	1.19	2.20
26/01/2020 20:00:01	26012020	260120	200001	70.690	12.187013	-56.117657	70.810	0.120	-0.380	1.520	70.680	-1.800	1.900																			1580068801.0	1.13	2.09
26/01/2020 20:00:02	26012020	260120	200002	70.700	12.187013	-56.117657	70.820	-0.000	0.250	1.730	70.710	-1.100	2.100																			1580068802.0	0.87	1.61
26/01/2020 20:00:03	26012020	260120	200003	70.830	12.187012	-56.117658	70.960	-0.160	0.730	1.410	70.870	-0.700	1.700																			1580068803.0	0.56	1.04
26/01/2020 20:00:04	26012020	260120	200004	71.070	12.187012	-56.117660	71.180	-0.210	0.740	0.630	71.130	-0.700	1.000																			1580068804.0	0.57	1.06
26/01/2020 20:00:05	26012020	260120	200005	71.300	12.187015	-56.117663	71.370	-0.120	0.290	-0.230	71.320	-1.100	0.100																			1580068805.0	0.85	1.57
26/01/2020 20:00:06	26012020	260120	200006	71.360	12.187020	-56.117663	71.400	0.060	-0.290	-0.830	71.350	-1.700	-0.500																			1580068806.0	0.96	1.78
26/01/2020 20:00:07	26012020	260120	200007	71.270	12.187023	-56.117663	71.300	0.180	-0.690	-1.090	71.240	-2.100	-0.700																			1580068807.0	0.81	1.50
26/01/2020 20:00:08	26012020	260120	200008	71.160	12.187027	-56.117663	71.200	0.160	-0.770	-1.090	71.150	-2.100	-0.700																			1580068808.0	0.48	0.89
26/01/2020 20:00:09	26012020	260120	200009	71.160	12.187027	-56.117663	71.220	0.030	-0.610	-0.940	71.180	-2.000	-0.600																			1580068809.0	0.21	0.39
26/01/2020 20:00:10	26012020	260120	200010	71.240	12.187027	-56.117663	71.320	-0.110	-0.340	-0.550	71.260	-1.700	-0.200																			1580068810.0	0.21	0.39
26/01/2020 20:00:11	26012020	260120	200011	71.330	12.187023	-56.117663	71.450	-0.190	-0.050	0.060	71.360	-1.400	0.400																			1580068811.0	0.64	1.19
26/01/2020 20:00:12	26012020	260120	200012	71.470	12.187018	-56.117662	71.580	-0.180	0.180	0.720	71.490	-1.200	1.100																			1580068812.0	1.08	2.00
26/01/2020 20:00:13	26012020	260120	200013	71.570	12.187013	-56.117662	71.680	-0.070	0.290	1.190	71.580	-1.100	1.500																			1580068813.0	1.19	2.20
26/01/2020 20:00:14	26012020	260120	200014	71.620	12.187008	-56.117660	71.740	0.100	0.230	1.350	71.630	-1.100	1.700																			1580068814.0	0.90	1.67
26/01/2020 20:00:15	26012020	260120	200015	71.640	12.187007	-56.117658	71.740	0.250	0.050	1.120	71.640	-1.300	1.500																			1580068815.0	0.33	0.61
26/01/2020 20:00:16	26012020	260120	200016	71.670	12.187010	-56.117658	71.770	0.290	-0.150	0.590	71.680	-1.500	0.900																			1580068816.0	0.40	0.74
26/01/2020 20:00:17	26012020	260120	200017	71.720	12.187013	-56.117660	71.800	0.150	-0.260	0.000	71.720	-1.600	0.400																			1580068817.0	0.99	1.83
26/01/2020 20:00:18	26012020	260120	200018	71.760	12.187018	-56.117662	71.830	-0.100	-0.250	-0.450	71.770	-1.600	-0.100																			1580068818.0	1.12	2.07
26/01/2020 20:00:19	26012020	260120	200019	71.860	12.187022	-56.117663	71.910	-0.340	-0.240	-0.710	71.880	-1.600	-0.400																			1580068819.0	0.84	1.56
26/01/2020 20:00:20	26012020	260120	200020	72.000	12.187023	-56.117663	72.060	-0.460	-0.270	-0.680	72.030	-1.700	-0.300																			1580068820.0	0.25	0.46
26/01/2020 20:00:21	26012020	260120	200021	72.120	12.187022	-56.117663	72.190	-0.390	-0.280	-0.350	72.140	-1.700	-0.000																			1580068821.0	0.48	0.89
26/01/2020 20:00:22	26012020	260120	200022	72.160	12.187017	-56.117662	72.230	-0.180	-0.200	0.110	72.150	-1.600	0.500																			1580068822.0	1.03	1.91
26/01/2020 20:00:23	26012020	260120	200023	72.130	12.187012	-56.117660	72.190	0.110	-0.090	0.500	72.120	-1.500	0.800																			1580068823.0	1.15	2.13
26/01/2020 20:00:24	26012020	260120	200024	72.060	12.187008	-56.117658	72.130	0.350	-0.040	0.590	72.050	-1.400	0.900																			1580068824.0	0.80	1.48
26/01/2020 20:00:25	26012020	260120	200025	72.040	12.187007	-56.117658	72.110	0.470	-0.060	0.400	72.040	-1.400	0.700																			1580068825.0	0.14	0.26
26/01/2020 20:00:26	26012020	260120	200026	72.040	12.187010	-56.117658	72.100	0.440	-0.080	0.100	72.040	-1.500	0.400																			1580068826.0	0.49	0.91
26/01/2020 20:00:27	26012020	260120	200027	72.000	12.187013	-56.117658	72.060	0.240	-0.020	-0.060	71.990	-1.400	0.300																			1580068827.0	0.70	1.30
26/01/2020 20:00:28	26012020	260120	200028	71.970	12.187015	-56.117660	72.040	-0.070	0.080	-0.070	71.980	-1.300	0.300																			1580068828.0	0.46	0.85
26/01/2020 20:00:29	26012020	260120	200029	72.040	12.187015	-56.117660	72.100	-0.340	0.100	-0.080	72.060	-1.300	0.300																			1580068829.0	0.22	0.41
26/01/2020 20:00:30	26012020	260120	200030	72.150	12.187015	-56.117662	72.210	-0.450	-0.020	-0.080	72.160	-1.400	0.300																			1580068830.0	0.12	0.22
26/01/2020 20:00:31	26012020	260120	200031	72.200	12.187015	-56.117662	72.270	-0.350	-0.220	0.060	72.200	-1.600	0.400																			1580068831.0	0.20	0.37
26/01/2020 20:00:32	26012020	260120	200032	72.200	12.187012	-56.117660	72.270	-0.120	-0.400	0.320	72.200	-1.800	0.700																			1580068832.0	0.45	0.83
26/01/2020 20:00:33	26012020	260120	200033	72.200	12.187010	-56.117658	72.260	0.080	-0.490	0.590	72.190	-1.900	0.900																			1580068833.0	0.61	1.13
26/01/2020 20:00:34	26012020	260120	200034	72.120	12.187008	-56.117657	72.190	0.150	-0.420	0.800	72.090	-1.800	1.100																			1580068834.0	0.61	1.13
26/01/2020 20:00:35	26012020	260120	200035	71.940	12.187005	-56.117657	72.010	0.080	-0.160	0.920	71.900	-1.500	1.300																			1580068835.0	0.46	0.85
26/01/2020 20:00:36	26012020	260120	200036	71.770	12.187005	-56.117657	71.830	0.010	0.080	0.840	71.740	-1.300	1.200																			1580068836.0	0.30	0.56
26/01/2020 20:00:37	26012020	260120	200037	71.700	12.187005	-56.117657	71.770	0.040	0.120	0.450	71.690	-1.300	0.800																			1580068837.0	0.12	0.22
26/01/2020 20:00:38	26012020	260120	200038	71.740	12.187007	-56.117657	71.800	0.180	-0.000	-0.110	71.760	-1.400	0.200																			1580068838.0	0.45	0.83
26/01/2020 20:00:39	26012020	260120	200039	71.870	12.187010	-56.117657	71.930	0.300	-0.050	-0.660	71.900	-1.400	-0.300																			1580068839.0	0.76	1.41
26/01/2020 20:00:40	26012020	260120	200040	72.000	12.187013	-56.117658	72.050	0.270	0.080	-0.970	72.020	-1.300	-0.600																			1580068840.0	0.74	1.37
26/01/2020 20:00:41	26012020	260120	200041	72.040	12.187015	-56.117658	72.090	0.060	0.210	-0.950	72.040	-1.200	-0.600																			1580068841.0	0.51	0.94
26/01/2020 20:00:42	26012020	260120	200042	71.990	12.187015	-56.117660	72.040	-0.170	0.100	-0.620	71.970	-1.300	-0.300																			1580068842.0	0.31	0.57
26/01/2020 20:00:43	26012020	260120	200043	71.840	12.187013	-56.117660	71.890	-0.280	-0.280	0.030	71.800	-1.700	0.400																			1580068843.0	0.29	0.54
26/01/2020 20:00:44	26012020	260120	200044	71.590	12.187012	-56.117658	71.650	-0.230	-0.650	0.890	71.530	-2.000	1.200																			1580068844.0	0.76	1.41
26/01/2020 20:00:45	26012020	260120	200045	71.330	12.187007	-56.117655	71.420	-0.130	-0.730	1.690	71.290	-2.100	2.000																			1580068845.0	1.16	2.15
26/01/2020 20:00:46	26012020	260120	200046	71.150	12.187002	-56.117653	71.250	-0.090	-0.480	2.220	71.130	-1.900	2.500																			1580068846.0	1.23	2.28
26/01/2020 20:00:47	26012020	260120	200047	71.070	12.186997	-56.117652	71.170	-0.090	-0.110	2.280	71.060	-1.500	2.600																			1580068847.0	1.01	1.87
26/01/2020 20:00:48	26012020	260120	200048	71.070	12.186995	-56.117652	71.170	-0.050	0.140	1.760	71.080	-1.300	2.100																			1580068848.0	0.49	0.91
26/01/2020 20:00:49	26012020	260120	200049	71.150	12.186997	-56.117653	71.230	0.080	0.240	0.700	71.170	-1.200	1.000																			1580068849.0	0.38	0.70
26/01/2020 20:00:50	26012020	260120	200050	71.210	12.187002	-56.117655	71.250	0.220	0.290	-0.530	71.200	-1.100	-0.200																			1580068850.0	1.19	2.20
26/01/2020 20:00:51	26012020	260120	200051	71.140	12.187008	-56.117658	71.160	0.310	0.240	-1.510	71.120	-1.200	-1.200																			1580068851.0	1.62	3.00
26/01/2020 20:00:52	26012020	260120	200052	71.010	12.187015	-56.117660	71.010	0.330	-0.050	-2.040	70.990	-1.400	-1.700																			1580068852.0	1.47	2.72
26/01/2020 20:00:53	26012020	260120	200053	70.930	12.187020	-56.117662	70.950	0.310	-0.480	-2.120	70.930	-1.900	-1.800																			1580068853.0	0.99	1.83
26/01/2020 20:00:54	26012020	260120	200054	70.920	12.187022	-56.117660	70.950	0.180	-0.670	-1.780	70.920	-2.100	-1.400																			1580068854.0	0.49	0.91
26/01/2020 20:00:55	26012020	260120	200055	70.900	12.187020	-56.117660	70.950	-0.100	-0.420	-0.950	70.880	-1.800	-0.600																			1580068855.0	0.30	0.56
26/01/2020 20:00:56	26012020	260120	200056	70.810	12.187015	-56.117658	70.860	-0.490	0.100	0.220	70.790	-1.300	0.500																			1580068856.0	1.02	1.89
26/01/2020 20:00:57	26012020	260120	200057	70.700	12.187008	-56.117660	70.780	-0.770	0.430	1.430	70.690	-1.000	1.800																			1580068857.0	1.66	3.07
26/01/2020 20:00:58	26012020	260120	200058	70.640	12.187000	-56.117658	70.760	-0.730	0.290	2.340	70.640	-1.100	2.700																			1580068858.0	1.84	3.41
26/01/2020 20:00:59	26012020	260120	200059	70.620	12.186993	-56.117655	70.730	-0.370	-0.170	2.780	70.610	-1.600	3.100	1013.80	26.30	26.30	21.30	21.30	157.00	74.00	74.00	390.00	28.20	8.00	3.40	80.00	3.10	14809	3539.00	27.70	27.70	1580068859.0	1.58	2.93
26/01/2020 20:01:00	26012020	260120	200100	70.590	12.186988	-56.117652	70.710	0.120	-0.600	2.620	70.590	-2.000	2.900																			1580068860.0	1.06	1.96
26/01/2020 20:01:01	26012020	260120	200101	70.620	12.186988	-56.117650	70.730	0.520	-0.700	1.820	70.630	-2.100	2.100																			1580068861.0	0.43	0.80
26/01/2020 20:01:02	26012020	260120	200102	70.710	12.186993	-56.117652	70.790	0.760	-0.470	0.560	70.730	-1.900	0.900																			1580068862.0	0.94	1.74
26/01/2020 20:01:03	26012020	260120	200103	70.830	12.187000	-56.117653	70.900	0.800	-0.130	-0.800	70.860	-1.500	-0.500																			1580068863.0	1.66	3.07
26/01/2020 20:01:04	26012020	260120	200104	70.950	12.187008	-56.117658	70.980	0.660	0.160	-1.880	70.960	-1.200	-1.500																			1580068864.0	1.94	3.59
26/01/2020 20:01:05	26012020	260120	200105	70.960	12.187017	-56.117660	70.980	0.310	0.330	-2.350	70.950	-1.100	-2.000																			1580068865.0	1.63	3.02
26/01/2020 20:01:06	26012020	260120	200106	70.870	12.187020	-56.117662	70.900	-0.200	0.340	-2.120	70.850	-1.100	-1.800																			1580068866.0	0.87	1.61
26/01/2020 20:01:07	26012020	260120	200107	70.750	12.187018	-56.117662	70.790	-0.740	0.240	-1.280	70.720	-1.200	-0.900																			1580068867.0	0.10	0.19
26/01/2020 20:01:08	26012020	260120	200108	70.620	12.187015	-56.117660	70.690	-1.110	0.090	-0.030	70.600	-1.300	0.300																			1580068868.0	1.04	1.93
26/01/2020 20:01:09	26012020	260120	200109	70.530	12.187007	-56.117658	70.620	-1.110	-0.100	1.260	70.510	-1.500	1.600																			1580068869.0	1.74	3.22
26/01/2020 20:01:10	26012020	260120	200110	70.480	12.186998	-56.117655	70.610	-0.700	-0.380	2.250	70.480	-1.800	2.600																			1580068870.0	1.99	3.69
26/01/2020 20:01:11	26012020	260120	200111	70.490	12.186990	-56.117652	70.660	0.020	-0.770	2.700	70.500	-2.200	3.000																			1580068871.0	1.71	3.17
26/01/2020 20:01:12	26012020	260120	200112	70.550	12.186987	-56.117648	70.700	0.740	-1.020	2.590	70.550	-2.400	2.900																			1580068872.0	1.08	2.00
26/01/2020 20:01:13	26012020	260120	200113	70.540	12.186987	-56.117647	70.640	1.110	-0.770	1.990	70.520	-2.200	2.300																			1580068873.0	0.46	0.85
26/01/2020 20:01:14	26012020	260120	200114	70.380	12.186992	-56.117648	70.470	0.980	-0.050	1.020	70.350	-1.400	1.300																			1580068874.0	0.84	1.56
26/01/2020 20:01:15	26012020	260120	200115	70.260	12.186997	-56.117652	70.310	0.520	0.650	-0.160	70.240	-0.700	0.200																			1580068875.0	1.64	3.04
26/01/2020 20:01:16	26012020	260120	200116	70.180	12.187005	-56.117658	70.240	0.040	0.830	-1.290	70.180	-0.600	-1.000																			1580068876.0	2.02	3.74
26/01/2020 20:01:17	26012020	260120	200117	70.180	12.187012	-56.117662	70.230	-0.240	0.480	-2.030	70.170	-0.900	-1.700																			1580068877.0	1.77	3.28
26/01/2020 20:01:18	26012020	260120	200118	70.120	12.187017	-56.117662	70.170	-0.370	-0.050	-2.140	70.100	-1.400	-1.800																			1580068878.0	1.06	1.96
26/01/2020 20:01:19	26012020	260120	200119	70.000	12.187018	-56.117660	70.060	-0.470	-0.450	-1.690	69.980	-1.800	-1.400																			1580068879.0	0.37	0.69
26/01/2020 20:01:20	26012020	260120	200120	69.870	12.187015	-56.117658	69.950	-0.560	-0.610	-0.920	69.850	-2.000	-0.600																			1580068880.0	0.75	1.39
26/01/2020 20:01:21	26012020	260120	200121	69.790	12.187010	-56.117657	69.880	-0.550	-0.540	0.030	69.770	-1.900	0.400																			1580068881.0	1.19	2.20
26/01/2020 20:01:22	26012020	260120	200122	69.710	12.187003	-56.117655	69.840	-0.390	-0.280	0.960	69.700	-1.700	1.300																			1580068882.0	1.46	2.70
26/01/2020 20:01:23	26012020	260120	200123	69.630	12.186997	-56.117653	69.770	-0.160	0.030	1.620	69.620	-1.300	1.900																			1580068883.0	1.45	2.69
26/01/2020 20:01:24	26012020	260120	200124	69.570	12.186992	-56.117653	69.720	0.090	0.220	1.770	69.560	-1.200	2.100																			1580068884.0	0.98	1.81
26/01/2020 20:01:25	26012020	260120	200125	69.580	12.186992	-56.117653	69.740	0.400	0.100	1.380	69.600	-1.300	1.700																			1580068885.0	0.27	0.50
26/01/2020 20:01:26	26012020	260120	200126	69.710	12.186995	-56.117655	69.860	0.760	-0.360	0.650	69.740	-1.700	1.000																			1580068886.0	0.67	1.24
26/01/2020 20:01:27	26012020	260120	200127	69.880	12.187000	-56.117655	70.000	1.000	-0.800	-0.110	69.900	-2.200	0.200																			1580068887.0	1.20	2.22
26/01/2020 20:01:28	26012020	260120	200128	69.900	12.187005	-56.117653	69.980	0.870	-0.760	-0.660	69.880	-2.200	-0.300																			1580068888.0	1.27	2.35
26/01/2020 20:01:29	26012020	260120	200129	69.710	12.187010	-56.117653	69.770	0.300	-0.160	-0.890	69.670	-1.500	-0.600																			1580068889.0	0.90	1.67
26/01/2020 20:01:30	26012020	260120	200130	69.480	12.187012	-56.117657	69.520	-0.450	0.620	-0.780	69.450	-0.800	-0.400																			1580068890.0	0.67	1.24
26/01/2020 20:01:31	26012020	260120	200131	69.350	12.187012	-56.117660	69.410	-1.060	1.120	-0.420	69.340	-0.300	-0.100																			1580068891.0	0.69	1.28
26/01/2020 20:01:32	26012020	260120	200132	69.420	12.187008	-56.117662	69.520	-1.270	0.970	-0.080	69.460	-0.400	0.200																			1580068892.0	0.70	1.30
26/01/2020 20:01:33	26012020	260120	200133	69.710	12.187005	-56.117662	69.840	-0.970	0.120	0.100	69.790	-1.300	0.400																			1580068893.0	0.64	1.19
26/01/2020 20:01:34	26012020	260120	200134	70.050	12.187003	-56.117658	70.170	-0.290	-0.970	0.290	70.090	-2.400	0.600																			1580068894.0	0.86	1.59
26/01/2020 20:01:35	26012020	260120	200135	70.140	12.187000	-56.117653	70.240	0.420	-1.510	0.680	70.120	-2.900	1.000																			1580068895.0	1.21	2.24
26/01/2020 20:01:36	26012020	260120	200136	69.910	12.186997	-56.117648	70.000	0.810	-1.110	1.100	69.840	-2.500	1.400																			1580068896.0	1.06	1.96
26/01/2020 20:01:37	26012020	260120	200137	69.590	12.186995	-56.117650	69.600	0.780	-0.190	1.210	69.510	-1.600	1.500																			1580068897.0	0.66	1.22
26/01/2020 20:01:38	26012020	260120	200138	69.170	12.186995	-56.117653	69.290	0.540	0.500	0.820	69.130	-0.900	1.100																			1580068898.0	0.78	1.44
26/01/2020 20:01:39	26012020	260120	200139	69.060	12.186998	-56.117657	69.170	0.340	0.580	0.110	69.050	-0.800	0.400																			1580068899.0	1.24	2.30
26/01/2020 20:01:40	26012020	260120	200140	69.160	12.187005	-56.117660	69.270	0.260	0.150	-0.640	69.200	-1.200	-0.300																			1580068900.0	1.53	2.83
26/01/2020 20:01:41	26012020	260120	200141	69.390	12.187012	-56.117660	69.490	0.180	-0.410	-1.140	69.430	-1.800	-0.800																			1580068901.0	1.47	2.72
26/01/2020 20:01:42	26012020	260120	200142	69.540	12.187017	-56.117658	69.630	-0.050	-0.640	-1.180	69.550	-2.000	-0.900																			1580068902.0	0.98	1.81
26/01/2020 20:01:43	26012020	260120	200143	69.500	12.187017	-56.117657	69.580	-0.420	-0.320	-0.710	69.470	-1.700	-0.400																			1580068903.0	0.38	0.70
26/01/2020 20:01:44	26012020	260120	200144	69.290	12.187012	-56.117655	69.370	-0.790	0.370	0.090	69.230	-1.000	0.400																			1580068904.0	1.02	1.89
26/01/2020 20:01:45	26012020	260120	200145	69.000	12.187003	-56.117657	69.090	-0.940	0.940	0.910	68.950	-0.400	1.200																			1580068905.0	1.60	2.96
26/01/2020 20:01:46	26012020	260120	200146	68.820	12.186997	-56.117657	68.950	-0.770	0.870	1.340	68.820	-0.500	1.700																			1580068906.0	1.54	2.85
26/01/2020 20:01:47	26012020	260120	200147	68.910	12.186993	-56.117657	69.050	-0.270	0.080	1.150	68.960	-1.300	1.500																			1580068907.0	0.68	1.26
26/01/2020 20:01:48	26012020	260120	200148	69.180	12.186997	-56.117657	69.320	0.400	-0.910	0.530	69.230	-2.300	0.800																			1580068908.0	0.53	0.98
26/01/2020 20:01:49	26012020	260120	200149	69.400	12.187002	-56.117655	69.510	0.960	-1.450	-0.100	69.410	-2.800	0.200																			1580068909.0	1.21	2.24
26/01/2020 20:01:50	26012020	260120	200150	69.360	12.187007	-56.117655	69.440	1.150	-1.290	-0.360	69.320	-2.700	-0.000																			1580068910.0	1.11	2.06
26/01/2020 20:01:51	26012020	260120	200151	69.150	12.187010	-56.117657	69.160	0.890	-0.680	-0.200	69.090	-2.100	0.100																			1580068911.0	0.64	1.19
26/01/2020 20:01:52	26012020	260120	200152	68.750	12.187010	-56.117658	68.830	0.340	-0.020	0.210	68.690	-1.400	0.500																			1580068912.0	0.34	0.63
26/01/2020 20:01:53	26012020	260120	200153	68.520	12.187008	-56.117658	68.620	-0.240	0.460	0.620	68.490	-0.900	0.900																			1580068913.0	0.37	0.69
26/01/2020 20:01:54	26012020	260120	200154	68.460	12.187005	-56.117658	68.590	-0.630	0.740	0.820	68.470	-0.600	1.100																			1580068914.0	0.56	1.04
26/01/2020 20:01:55	26012020	260120	200155	68.570	12.187003	-56.117657	68.700	-0.750	0.770	0.770	68.600	-0.600	1.100																			1580068915.0	0.54	1.00
26/01/2020 20:01:56	26012020	260120	200156	68.760	12.187002	-56.117657	68.900	-0.610	0.560	0.540	68.800	-0.800	0.800																			1580068916.0	0.32	0.59
26/01/2020 20:01:57	26012020	260120	200157	68.970	12.187002	-56.117657	69.100	-0.350	0.240	0.100	69.010	-1.100	0.400																			1580068917.0	0.13	0.24
26/01/2020 20:01:58	26012020	260120	200158	69.150	12.187003	-56.117657	69.260	-0.070	-0.070	-0.400	69.180	-1.400	-0.100																			1580068918.0	0.48	0.89
26/01/2020 20:01:59	26012020	260120	200159	69.290	12.187007	-56.117658	69.380	0.190	-0.370	-0.710	69.310	-1.800	-0.400	1013.80	26.30	26.30	21.30	21.30	157.00	74.00	74.00	391.00	28.10	12.00	4.10	83.00	3.70	14630	3630.00	27.80	27.80	1580068919.0	0.79	1.46
26/01/2020 20:02:00	26012020	260120	200200	69.350	12.187010	-56.117660	69.420	0.390	-0.710	-0.660	69.340	-2.100	-0.300																			1580068920.0	0.73	1.35
26/01/2020 20:02:01	26012020	260120	200201	69.290	12.187012	-56.117660	69.360	0.500	-0.960	-0.250	69.270	-2.300	0.100																			1580068921.0	0.37	0.69
26/01/2020 20:02:02	26012020	260120	200202	69.150	12.187012	-56.117658	69.220	0.430	-0.940	0.410	69.110	-2.300	0.700																			1580068922.0	0.20	0.37
26/01/2020 20:02:03	26012020	260120	200203	69.000	12.187010	-56.117658	69.070	0.150	-0.560	1.180	68.970	-1.900	1.500																			1580068923.0	0.62	1.15
26/01/2020 20:02:04	26012020	260120	200204	68.810	12.187005	-56.117657	68.940	-0.200	-0.040	1.800	68.790	-1.400	2.100																			1580068924.0	0.97	1.80
26/01/2020 20:02:05	26012020	260120	200205	68.760	12.187000	-56.117655	68.920	-0.400	0.340	1.930	68.770	-1.000	2.200																			1580068925.0	0.97	1.80
26/01/2020 20:02:06	26012020	260120	200206	68.940	12.186998	-56.117655	69.100	-0.280	0.380	1.430	68.990	-1.000	1.700																			1580068926.0	0.48	0.89
26/01/2020 20:02:07	26012020	260120	200207	69.270	12.187000	-56.117655	69.410	0.070	0.200	0.510	69.340	-1.200	0.800																			1580068927.0	0.37	0.69
26/01/2020 20:02:08	26012020	260120	200208	69.580	12.187005	-56.117655	69.690	0.380	0.110	-0.460	69.620	-1.300	-0.100																			1580068928.0	1.02	1.89
26/01/2020 20:02:09	26012020	260120	200209	69.700	12.187010	-56.117655	69.770	0.410	0.230	-1.190	69.700	-1.100	-0.900																			1580068929.0	1.28	2.37
26/01/2020 20:02:10	26012020	260120	200210	69.640	12.187017	-56.117658	69.690	0.120	0.330	-1.540	69.620	-1.000	-1.200																			1580068930.0	1.28	2.37
26/01/2020 20:02:11	26012020	260120	200211	69.520	12.187020	-56.117662	69.570	-0.270	0.230	-1.430	69.490	-1.100	-1.100																			1580068931.0	1.03	1.91
26/01/2020 20:02:12	26012020	260120	200212	69.430	12.187022	-56.117663	69.510	-0.520	-0.080	-0.910	69.420	-1.400	-0.600																			1580068932.0	0.47	0.87
26/01/2020 20:02:13	26012020	260120	200213	69.400	12.187020	-56.117663	69.500	-0.550	-0.420	-0.080	69.400	-1.800	0.300																			1580068933.0	0.32	0.59
26/01/2020 20:02:14	26012020	260120	200214	69.420	12.187015	-56.117662	69.540	-0.380	-0.730	0.840	69.430	-2.100	1.200																			1580068934.0	0.95	1.76
26/01/2020 20:02:15	26012020	260120	200215	69.490	12.187010	-56.117658	69.670	-0.070	-0.970	1.610	69.510	-2.300	1.900																			1580068935.0	1.27	2.35
26/01/2020 20:02:16	26012020	260120	200216	69.620	12.187005	-56.117655	69.770	0.330	-1.030	2.080	69.620	-2.400	2.400																			1580068936.0	1.22	2.26
26/01/2020 20:02:17	26012020	260120	200217	69.590	12.187002	-56.117653	69.730	0.660	-0.690	2.170	69.560	-2.000	2.500																			1580068937.0	0.87	1.61
26/01/2020 20:02:18	26012020	260120	200218	69.380	12.187002	-56.117652	69.490	0.730	-0.000	1.850	69.340	-1.400	2.200																			1580068938.0	0.20	0.37
26/01/2020 20:02:19	26012020	260120	200219	69.120	12.187003	-56.117653	69.220	0.460	0.680	1.210	69.080	-0.700	1.500																			1580068939.0	0.61	1.13
26/01/2020 20:02:20	26012020	260120	200220	68.980	12.187008	-56.117657	69.080	0.010	0.950	0.240	68.980	-0.400	0.600																			1580068940.0	1.20	2.22
26/01/2020 20:02:21	26012020	260120	200221	69.090	12.187015	-56.117660	69.190	-0.350	0.710	-0.950	69.140	-0.700	-0.600																			1580068941.0	1.59	2.94
26/01/2020 20:02:22	26012020	260120	200222	69.380	12.187023	-56.117662	69.470	-0.460	0.260	-2.050	69.450	-1.100	-1.700																			1580068942.0	1.77	3.28
26/01/2020 20:02:23	26012020	260120	200223	69.690	12.187030	-56.117662	69.750	-0.400	-0.100	-2.680	69.750	-1.500	-2.400																			1580068943.0	1.52	2.82
26/01/2020 20:02:24	26012020	260120	200224	69.920	12.187035	-56.117663	69.980	-0.290	-0.290	-2.620	69.950	-1.600	-2.300																			1580068944.0	0.79	1.46
26/01/2020 20:02:25	26012020	260120	200225	69.950	12.187033	-56.117663	69.990	-0.240	-0.350	-1.830	69.920	-1.700	-1.500																			1580068945.0	0.14	0.26
26/01/2020 20:02:26	26012020	260120	200226	69.710	12.187028	-56.117663	69.760	-0.230	-0.370	-0.510	69.640	-1.700	-0.200																			1580068946.0	0.95	1.76
26/01/2020 20:02:27	26012020	260120	200227	69.430	12.187023	-56.117662	69.460	-0.130	-0.520	0.910	69.370	-1.900	1.200																			1580068947.0	1.40	2.59
26/01/2020 20:02:28	26012020	260120	200228	69.160	12.187017	-56.117658	69.300	0.120	-0.890	2.030	69.140	-2.300	2.300																			1580068948.0	1.42	2.63
26/01/2020 20:02:29	26012020	260120	200229	69.130	12.187013	-56.117655	69.310	0.440	-1.220	2.650	69.130	-2.600	3.000																			1580068949.0	1.28	2.37
26/01/2020 20:02:30	26012020	260120	200230	69.210	12.187010	-56.117650	69.390	0.580	-0.970	2.670	69.230	-2.300	3.000																			1580068950.0	1.05	1.94
26/01/2020 20:02:31	26012020	260120	200231	69.310	12.187010	-56.117648	69.470	0.420	-0.030	2.080	69.320	-1.400	2.400																			1580068951.0	0.40	0.74
26/01/2020 20:02:32	26012020	260120	200232	69.390	12.187012	-56.117652	69.520	0.060	1.130	0.980	69.410	-0.200	1.300																			1580068952.0	0.59	1.09
26/01/2020 20:02:33	26012020	260120	200233	69.470	12.187015	-56.117657	69.570	-0.270	1.770	-0.450	69.490	0.400	-0.100																			1580068953.0	1.45	2.69
26/01/2020 20:02:34	26012020	260120	200234	69.550	12.187022	-56.117662	69.610	-0.380	1.450	-1.870	69.560	0.100	-1.500																			1580068954.0	1.89	3.50
26/01/2020 20:02:35	26012020	260120	200235	69.620	12.187030	-56.117665	69.640	-0.230	0.310	-2.960	69.640	-1.100	-2.600																			1580068955.0	2.01	3.72
26/01/2020 20:02:36	26012020	260120	200236	69.740	12.187040	-56.117665	69.740	0.040	-1.070	-3.510	69.760	-2.400	-3.200																			1580068956.0	1.84	3.41
26/01/2020 20:02:37	26012020	260120	200237	69.850	12.187045	-56.117663	69.870	0.220	-1.910	-3.300	69.860	-3.300	-3.000																			1580068957.0	1.36	2.52
26/01/2020 20:02:38	26012020	260120	200238	69.830	12.187045	-56.117662	69.860	0.140	-1.720	-2.220	69.800	-3.100	-1.900																			1580068958.0	0.56	1.04
26/01/2020 20:02:39	26012020	260120	200239	69.590	12.187040	-56.117660	69.640	-0.170	-0.680	-0.480	69.530	-2.000	-0.100																			1580068959.0	1.38	2.56
26/01/2020 20:02:40	26012020	260120	200240	69.310	12.187028	-56.117660	69.410	-0.520	0.470	1.300	69.270	-0.900	1.600																			1580068960.0	2.42	4.48
26/01/2020 20:02:41	26012020	260120	200241	69.230	12.187017	-56.117660	69.400	-0.620	1.060	2.480	69.240	-0.300	2.800																			1580068961.0	2.47	4.57
26/01/2020 20:02:42	26012020	260120	200242	69.490	12.187010	-56.117660	69.690	-0.340	0.810	2.780	69.570	-0.600	3.100																			1580068962.0	1.59	2.94
26/01/2020 20:02:43	26012020	260120	200243	69.890	12.187007	-56.117658	70.070	0.210	0.050	2.380	69.960	-1.300	2.700																			1580068963.0	0.57	1.06
26/01/2020 20:02:44	26012020	260120	200244	70.180	12.187010	-56.117655	70.320	0.710	-0.640	1.660	70.200	-2.000	2.000																			1580068964.0	0.73	1.35
26/01/2020 20:02:45	26012020	260120	200245	70.210	12.187013	-56.117653	70.300	0.860	-0.860	0.900	70.180	-2.200	1.200																			1580068965.0	0.92	1.70
26/01/2020 20:02:46	26012020	260120	200246	69.980	12.187018	-56.117655	70.050	0.610	-0.590	0.140	69.910	-2.000	0.500																			1580068966.0	0.99	1.83
26/01/2020 20:02:47	26012020	260120	200247	69.670	12.187023	-56.117658	69.720	0.140	-0.070	-0.620	69.620	-1.400	-0.300																			1580068967.0	1.24	2.30
26/01/2020 20:02:48	26012020	260120	200248	69.480	12.187028	-56.117662	69.530	-0.310	0.410	-1.290	69.470	-1.000	-0.900																			1580068968.0	1.39	2.57
26/01/2020 20:02:49	26012020	260120	200249	69.510	12.187032	-56.117667	69.560	-0.530	0.580	-1.770	69.540	-0.800	-1.400																			1580068969.0	1.18	2.19
26/01/2020 20:02:50	26012020	260120	200250	69.770	12.187035	-56.117668	69.840	-0.490	0.330	-2.000	69.840	-1.000	-1.700																			1580068970.0	0.69	1.28
26/01/2020 20:02:51	26012020	260120	200251	70.110	12.187035	-56.117668	70.180	-0.270	-0.180	-1.850	70.170	-1.500	-1.500																			1580068971.0	0.19	0.35
26/01/2020 20:02:52	26012020	260120	200252	70.330	12.187033	-56.117667	70.410	-0.040	-0.580	-1.270	70.360	-1.900	-0.900																			1580068972.0	0.56	1.04
26/01/2020 20:02:53	26012020	260120	200253	70.360	12.187030	-56.117663	70.400	0.070	-0.630	-0.330	70.350	-2.000	0.000																			1580068973.0	0.95	1.76
26/01/2020 20:02:54	26012020	260120	200254	70.150	12.187025	-56.117662	70.220	0.050	-0.330	0.780	70.110	-1.700	1.100																			1580068974.0	1.21	2.24
26/01/2020 20:02:55	26012020	260120	200255	69.970	12.187018	-56.117662	70.020	-0.020	0.030	1.780	69.930	-1.300	2.100																			1580068975.0	1.34	2.48
26/01/2020 20:02:56	26012020	260120	200256	69.810	12.187013	-56.117662	69.930	-0.030	0.130	2.370	69.800	-1.200	2.700																			1580068976.0	1.13	2.09
26/01/2020 20:02:57	26012020	260120	200257	69.860	12.187010	-56.117662	69.990	0.080	-0.070	2.370	69.880	-1.400	2.700																			1580068977.0	0.60	1.11
26/01/2020 20:02:58	26012020	260120	200258	70.020	12.187010	-56.117660	70.140	0.250	-0.310	1.820	70.050	-1.700	2.200																			1580068978.0	0.21	0.39
26/01/2020 20:02:59	26012020	260120	200259	70.160	12.187013	-56.117660	70.260	0.350	-0.290	0.930	70.180	-1.700	1.300	1013.80	26.30	26.30	21.40	21.40	158.00	74.00	74.00	391.00	28.00	8.00	3.80	79.00	3.30	14513	3565.00	27.80	27.80	1580068979.0	0.58	1.07
26/01/2020 20:03:00	26012020	260120	200300	70.210	12.187017	-56.117662	70.290	0.280	-0.060	-0.050	70.200	-1.400	0.300																			1580068980.0	0.94	1.74
26/01/2020 20:03:01	26012020	260120	200301	70.130	12.187022	-56.117665	70.180	0.130	0.070	-0.830	70.090	-1.300	-0.500																			1580068981.0	1.18	2.19
26/01/2020 20:03:02	26012020	260120	200302	69.930	12.187027	-56.117667	69.970	0.010	-0.050	-1.290	69.900	-1.400	-0.900																			1580068982.0	1.01	1.87
26/01/2020 20:03:03	26012020	260120	200303	69.770	12.187030	-56.117668	69.810	-0.060	-0.250	-1.530	69.760	-1.600	-1.200																			1580068983.0	0.71	1.31
26/01/2020 20:03:04	26012020	260120	200304	69.770	12.187032	-56.117667	69.830	-0.140	-0.330	-1.590	69.800	-1.700	-1.200																			1580068984.0	0.52	0.96
26/01/2020 20:03:05	26012020	260120	200305	69.910	12.187033	-56.117667	69.980	-0.260	-0.130	-1.370	69.940	-1.500	-1.000																			1580068985.0	0.19	0.35
26/01/2020 20:03:06	26012020	260120	200306	70.080	12.187032	-56.117667	70.170	-0.360	0.220	-0.880	70.120	-1.100	-0.500																			1580068986.0	0.31	0.57
26/01/2020 20:03:07	26012020	260120	200307	70.230	12.187028	-56.117668	70.360	-0.340	0.480	-0.210	70.260	-0.900	0.100																			1580068987.0	0.78	1.44
26/01/2020 20:03:08	26012020	260120	200308	70.360	12.187023	-56.117668	70.470	-0.190	0.370	0.570	70.370	-1.000	0.900																			1580068988.0	1.04	1.93
26/01/2020 20:03:09	26012020	260120	200309	70.390	12.187018	-56.117667	70.500	0.020	-0.120	1.280	70.380	-1.500	1.600																			1580068989.0	1.09	2.02
26/01/2020 20:03:10	26012020	260120	200310	70.350	12.187013	-56.117665	70.460	0.180	-0.740	1.830	70.330	-2.100	2.200																			1580068990.0	1.00	1.85
26/01/2020 20:03:11	26012020	260120	200311	70.250	12.187012	-56.117662	70.360	0.250	-1.100	2.150	70.230	-2.500	2.500																			1580068991.0	0.82	1.52
26/01/2020 20:03:12	26012020	260120	200312	70.120	12.187010	-56.117660	70.220	0.230	-0.930	2.090	70.080	-2.300	2.400																			1580068992.0	0.52	0.96
26/01/2020 20:03:13	26012020	260120	200313	69.970	12.187010	-56.117660	70.070	0.170	-0.330	1.550	69.950	-1.700	1.900																			1580068993.0	0.03	0.06
26/01/2020 20:03:14	26012020	260120	200314	69.920	12.187012	-56.117662	70.000	0.170	0.300	0.580	69.920	-1.100	0.900																			1580068994.0	0.66	1.22
26/01/2020 20:03:15	26012020	260120	200315	70.010	12.187017	-56.117665	70.070	0.230	0.600	-0.610	70.050	-0.800	-0.300																			1580068995.0	1.19	2.20
26/01/2020 20:03:16	26012020	260120	200316	70.230	12.187023	-56.117668	70.280	0.280	0.540	-1.730	70.290	-0.800	-1.400																			1580068996.0	1.54	2.85
26/01/2020 20:03:17	26012020	260120	200317	70.530	12.187030	-56.117670	70.570	0.170	0.230	-2.560	70.600	-1.100	-2.200																			1580068997.0	1.60	2.96
26/01/2020 20:03:18	26012020	260120	200318	70.830	12.187037	-56.117672	70.870	-0.120	-0.080	-2.830	70.870	-1.400	-2.500																			1580068998.0	1.30	2.41
26/01/2020 20:03:19	26012020	260120	200319	70.970	12.187038	-56.117672	71.030	-0.480	-0.220	-2.260	70.980	-1.600	-1.900																			1580068999.0	0.45	0.83
26/01/2020 20:03:20	26012020	260120	200320	70.980	12.187035	-56.117670	71.050	-0.770	-0.190	-0.940	70.970	-1.600	-0.600																			1580069000.0	0.84	1.56
26/01/2020 20:03:21	26012020	260120	200321	70.900	12.187025	-56.117668	70.970	-0.830	-0.160	0.690	70.870	-1.500	1.000																			1580069001.0	1.94	3.59
26/01/2020 20:03:22	26012020	260120	200322	70.820	12.187015	-56.117667	70.930	-0.560	-0.290	2.130	70.810	-1.700	2.500																			1580069002.0	2.39	4.43
26/01/2020 20:03:23	26012020	260120	200323	70.810	12.187005	-56.117663	70.960	-0.020	-0.590	3.000	70.810	-2.000	3.300																			1580069003.0	2.16	4.00
26/01/2020 20:03:24	26012020	260120	200324	70.820	12.187000	-56.117660	70.960	0.550	-0.840	3.150	70.820	-2.200	3.500																			1580069004.0	1.48	2.74
26/01/2020 20:03:25	26012020	260120	200325	70.800	12.186998	-56.117657	70.910	0.930	-0.760	2.650	70.790	-2.100	3.000																			1580069005.0	0.60	1.11
26/01/2020 20:03:26	26012020	260120	200326	70.750	12.187002	-56.117657	70.840	0.970	-0.300	1.580	70.740	-1.700	1.900																			1580069006.0	0.68	1.26
26/01/2020 20:03:27	26012020	260120	200327	70.770	12.187008	-56.117660	70.850	0.720	0.310	0.060	70.800	-1.100	0.400																			1580069007.0	1.59	2.94
26/01/2020 20:03:28	26012020	260120	200328	70.960	12.187018	-56.117665	71.010	0.320	0.660	-1.530	71.010	-0.700	-1.200																			1580069008.0	2.30	4.26
26/01/2020 20:03:29	26012020	260120	200329	71.240	12.187028	-56.117668	71.280	-0.070	0.640	-2.700	71.300	-0.700	-2.400																			1580069009.0	2.33	4.32
26/01/2020 20:03:30	26012020	260120	200330	71.530	12.187035	-56.117670	71.570	-0.420	0.430	-3.130	71.530	-1.000	-2.800																			1580069010.0	1.64	3.04
26/01/2020 20:03:31	26012020	260120	200331	71.700	12.187038	-56.117670	71.760	-0.700	0.140	-2.700	71.720	-1.200	-2.300																			1580069011.0	0.51	0.94
26/01/2020 20:03:32	26012020	260120	200332	71.760	12.187033	-56.117670	71.820	-0.880	-0.150	-1.480	71.750	-1.500	-1.100																			1580069012.0	0.84	1.56
26/01/2020 20:03:33	26012020	260120	200333	71.640	12.187025	-56.117667	71.720	-0.890	-0.410	0.190	71.600	-1.800	0.500																			1580069013.0	1.94	3.59
26/01/2020 20:03:34	26012020	260120	200334	71.420	12.187013	-56.117663	71.530	-0.690	-0.620	1.870	71.380	-2.000	2.200																			1580069014.0	2.57	4.76
26/01/2020 20:03:35	26012020	260120	200335	71.260	12.187003	-56.117660	71.400	-0.260	-0.840	3.040	71.240	-2.200	3.400																			1580069015.0	2.52	4.67
26/01/2020 20:03:36	26012020	260120	200336	71.210	12.186995	-56.117657	71.340	0.300	-0.990	3.440	71.210	-2.400	3.800																			1580069016.0	1.77	3.28
26/01/2020 20:03:37	26012020	260120	200337	71.210	12.186993	-56.117653	71.330	0.820	-0.820	3.070	71.210	-2.200	3.400																			1580069017.0	0.74	1.37
26/01/2020 20:03:38	26012020	260120	200338	71.190	12.186995	-56.117653	71.280	1.090	-0.280	2.050	71.180	-1.600	2.400																			1580069018.0	0.52	0.96
26/01/2020 20:03:39	26012020	260120	200339	71.140	12.187002	-56.117657	71.190	1.000	0.430	0.550	71.130	-0.900	0.900																			1580069019.0	1.42	2.63
26/01/2020 20:03:40	26012020	260120	200340	71.150	12.187010	-56.117660	71.180	0.620	0.890	-1.060	71.160	-0.500	-0.700																			1580069020.0	2.15	3.98
26/01/2020 20:03:41	26012020	260120	200341	71.310	12.187020	-56.117665	71.330	0.180	0.800	-2.420	71.360	-0.600	-2.100																			1580069021.0	2.33	4.32
26/01/2020 20:03:42	26012020	260120	200342	71.570	12.187028	-56.117668	71.590	-0.200	0.280	-3.170	71.570	-1.100	-2.800																			1580069022.0	1.91	3.54
26/01/2020 20:03:43	26012020	260120	200343	71.710	12.187033	-56.117668	71.740	-0.530	-0.250	-3.050	71.730	-1.600	-2.700																			1580069023.0	1.06	1.96
26/01/2020 20:03:44	26012020	260120	200344	71.690	12.187033	-56.117665	71.710	-0.840	-0.480	-2.090	71.660	-1.900	-1.700																			1580069024.0	0.40	0.74
26/01/2020 20:03:45	26012020	260120	200345	71.530	12.187027	-56.117663	71.520	-1.030	-0.400	-0.530	71.480	-1.800	-0.200																			1580069025.0	1.45	2.69
26/01/2020 20:03:46	26012020	260120	200346	71.180	12.187015	-56.117662	71.240	-0.990	-0.160	1.230	71.110	-1.500	1.600																			1580069026.0	2.34	4.33
26/01/2020 20:03:47	26012020	260120	200347	70.830	12.187003	-56.117660	70.930	-0.640	-0.080	2.740	70.770	-1.400	3.100																			1580069027.0	2.66	4.93
26/01/2020 20:03:48	26012020	260120	200348	70.650	12.186993	-56.117658	70.800	0.010	-0.450	3.560	70.650	-1.800	3.900																			1580069028.0	2.21	4.09
26/01/2020 20:03:49	26012020	260120	200349	70.730	12.186988	-56.117655	70.900	0.740	-1.020	3.510	70.770	-2.400	3.800																			1580069029.0	1.29	2.39
26/01/2020 20:03:50	26012020	260120	200350	70.900	12.186990	-56.117652	71.040	1.180	-1.060	2.680	70.920	-2.400	3.000																			1580069030.0	0.80	1.48
26/01/2020 20:03:51	26012020	260120	200351	70.960	12.186995	-56.117652	71.050	1.100	-0.260	1.280	70.950	-1.600	1.600																			1580069031.0	1.21	2.24
26/01/2020 20:03:52	26012020	260120	200352	70.890	12.187003	-56.117657	70.950	0.630	0.790	-0.240	70.870	-0.600	0.100																			1580069032.0	2.05	3.80
26/01/2020 20:03:53	26012020	260120	200353	70.770	12.187012	-56.117663	70.810	0.110	1.200	-1.480	70.770	-0.200	-1.100																			1580069033.0	2.41	4.46
26/01/2020 20:03:54	26012020	260120	200354	70.690	12.187018	-56.117668	70.700	-0.200	0.700	-2.210	70.690	-0.700	-1.900																			1580069034.0	1.85	3.43
26/01/2020 20:03:55	26012020	260120	200355	70.640	12.187023	-56.117668	70.640	-0.340	-0.210	-2.450	70.640	-1.600	-2.100																			1580069035.0	1.11	2.06
26/01/2020 20:03:56	26012020	260120	200356	70.560	12.187027	-56.117665	70.570	-0.460	-0.820	-2.190	70.540	-2.200	-1.800																			1580069036.0	0.75	1.39
26/01/2020 20:03:57	26012020	260120	200357	70.440	12.187025	-56.117663	70.480	-0.630	-0.820	-1.410	70.420	-2.200	-1.100																			1580069037.0	0.66	1.22
26/01/2020 20:03:58	26012020	260120	200358	70.350	12.187018	-56.117662	70.400	-0.750	-0.380	-0.270	70.330	-1.700	0.100																			1580069038.0	1.27	2.35
26/01/2020 20:03:59	26012020	260120	200359	70.270	12.187010	-56.117662	70.360	-0.670	0.070	0.910	70.260	-1.300	1.200	1013.80	26.20	26.20	21.20	21.20	160.00	73.00	73.00	392.00	28.00	10.00	3.70	83.00	3.00	14477	3518.00	27.80	27.80	1580069039.0	1.88	3.48
26/01/2020 20:04:00	26012020	260120	200400	70.180	12.187002	-56.117660	70.290	-0.320	0.230	1.820	70.150	-1.100	2.100																			1580069040.0	1.92	3.56
26/01/2020 20:04:01	26012020	260120	200401	70.080	12.186995	-56.117658	70.220	0.220	0.030	2.220	70.070	-1.300	2.600																			1580069041.0	1.40	2.59
26/01/2020 20:04:02	26012020	260120	200402	70.050	12.186993	-56.117657	70.210	0.720	-0.340	2.050	70.070	-1.700	2.400																			1580069042.0	0.58	1.07
26/01/2020 20:04:03	26012020	260120	200403	70.100	12.186995	-56.117657	70.250	0.970	-0.560	1.420	70.120	-1.900	1.800																			1580069043.0	0.61	1.13
26/01/2020 20:04:04	26012020	260120	200404	70.170	12.187002	-56.117657	70.270	0.870	-0.430	0.580	70.180	-1.800	0.900																			1580069044.0	1.22	2.26
26/01/2020 20:04:05	26012020	260120	200405	70.240	12.187007	-56.117658	70.320	0.470	-0.020	-0.190	70.240	-1.400	0.200																			1580069045.0	1.47	2.72
26/01/2020 20:04:06	26012020	260120	200406	70.290	12.187012	-56.117663	70.360	-0.010	0.320	-0.640	70.290	-1.100	-0.300																			1580069046.0	1.29	2.39
26/01/2020 20:04:07	26012020	260120	200407	70.300	12.187015	-56.117665	70.370	-0.380	0.310	-0.750	70.300	-1.100	-0.400																			1580069047.0	0.71	1.31
26/01/2020 20:04:08	26012020	260120	200408	70.300	12.187013	-56.117665	70.370	-0.550	-0.030	-0.570	70.300	-1.400	-0.200																			1580069048.0	0.08	0.15
26/01/2020 20:04:09	26012020	260120	200409	70.210	12.187012	-56.117663	70.290	-0.570	-0.350	-0.150	70.210	-1.700	0.200																			1580069049.0	0.70	1.30
26/01/2020 20:04:10	26012020	260120	200410	70.030	12.187008	-56.117660	70.120	-0.510	-0.340	0.340	70.030	-1.700	0.700																			1580069050.0	0.95	1.76
26/01/2020 20:04:11	26012020	260120	200411	69.910	12.187005	-56.117658	70.000	-0.340	-0.100	0.650	69.910	-1.500	1.000																			1580069051.0	0.83	1.54
26/01/2020 20:04:12	26012020	260120	200412	69.990	12.187002	-56.117660	70.100	-0.040	0.010	0.590	70.040	-1.400	0.900																			1580069052.0	0.56	1.04
26/01/2020 20:04:13	26012020	260120	200413	70.260	12.187002	-56.117660	70.370	0.320	-0.150	0.250	70.260	-1.500	0.600																			1580069053.0	0.17	0.31
26/01/2020 20:04:14	26012020	260120	200414	70.530	12.187005	-56.117660	70.610	0.530	-0.300	-0.070	70.560	-1.700	0.300																			1580069054.0	0.52	0.96
26/01/2020 20:04:15	26012020	260120	200415	70.600	12.187007	-56.117660	70.660	0.440	-0.190	-0.180	70.590	-1.600	0.200																			1580069055.0	0.59	1.09
26/01/2020 20:04:16	26012020	260120	200416	70.490	12.187008	-56.117662	70.540	0.130	0.100	-0.080	70.460	-1.300	0.300																			1580069056.0	0.38	0.70
26/01/2020 20:04:17	26012020	260120	200417	70.300	12.187008	-56.117663	70.340	-0.150	0.220	0.190	70.300	-1.200	0.500																			1580069057.0	0.38	0.70
26/01/2020 20:04:18	26012020	260120	200418	70.190	12.187008	-56.117663	70.250	-0.210	-0.030	0.430	70.190	-1.400	0.800																			1580069058.0	0.27	0.50
26/01/2020 20:04:19	26012020	260120	200419	70.280	12.187007	-56.117663	70.370	-0.030	-0.490	0.510	70.280	-1.900	0.900																			1580069059.0	0.25	0.46
26/01/2020 20:04:20	26012020	260120	200420	70.460	12.187008	-56.117660	70.560	0.150	-0.720	0.540	70.460	-2.100	0.900																			1580069060.0	0.49	0.91
26/01/2020 20:04:21	26012020	260120	200421	70.550	12.187007	-56.117658	70.640	0.150	-0.490	0.610	70.560	-1.900	0.900																			1580069061.0	0.38	0.70
26/01/2020 20:04:22	26012020	260120	200422	70.520	12.187007	-56.117658	70.590	-0.020	-0.020	0.640	70.520	-1.400	1.000																			1580069062.0	0.25	0.46
26/01/2020 20:04:23	26012020	260120	200423	70.420	12.187005	-56.117660	70.490	-0.200	0.340	0.530	70.420	-1.000	0.900																			1580069063.0	0.35	0.65
26/01/2020 20:04:24	26012020	260120	200424	70.370	12.187005	-56.117662	70.430	-0.260	0.430	0.340	70.370	-0.900	0.700																			1580069064.0	0.30	0.56
26/01/2020 20:04:25	26012020	260120	200425	70.400	12.187007	-56.117662	70.470	-0.220	0.300	0.140	70.400	-1.100	0.500																			1580069065.0	0.25	0.46
26/01/2020 20:04:26	26012020	260120	200426	70.470	12.187007	-56.117662	70.530	-0.120	0.050	-0.090	70.470	-1.300	0.300																			1580069066.0	0.22	0.41
26/01/2020 20:04:27	26012020	260120	200427	70.540	12.187008	-56.117662	70.590	0.010	-0.270	-0.390	70.540	-1.600	-0.000																			1580069067.0	0.26	0.48
26/01/2020 20:04:28	26012020	260120	200428	70.640	12.187010	-56.117662	70.680	0.170	-0.580	-0.730	70.640	-2.000	-0.400																			1580069068.0	0.44	0.81
26/01/2020 20:04:29	26012020	260120	200429	70.720	12.187013	-56.117662	70.770	0.340	-0.730	-0.840	70.720	-2.100	-0.500																			1580069069.0	0.59	1.09
26/01/2020 20:04:30	26012020	260120	200430	70.710	12.187015	-56.117662	70.780	0.390	-0.550	-0.550	70.710	-1.900	-0.200																			1580069070.0	0.40	0.74
26/01/2020 20:04:31	26012020	260120	200431	70.650	12.187015	-56.117663	70.710	0.190	-0.100	-0.050	70.650	-1.500	0.300																			1580069071.0	0.10	0.19
26/01/2020 20:04:32	26012020	260120	200432	70.640	12.187013	-56.117663	70.730	-0.160	0.300	0.450	70.640	-1.100	0.800																			1580069072.0	0.50	0.93
26/01/2020 20:04:33	26012020	260120	200433	70.710	12.187010	-56.117665	70.860	-0.430	0.360	0.830	70.740	-1.000	1.200																			1580069073.0	0.64	1.19
26/01/2020 20:04:34	26012020	260120	200434	70.970	12.187007	-56.117663	71.090	-0.440	0.120	1.040	70.970	-1.300	1.400																			1580069074.0	0.65	1.20
26/01/2020 20:04:35	26012020	260120	200435	71.160	12.187005	-56.117662	71.270	-0.230	-0.160	1.130	71.160	-1.500	1.500																			1580069075.0	0.70	1.30
26/01/2020 20:04:36	26012020	260120	200436	71.200	12.187003	-56.117660	71.280	0.030	-0.250	1.040	71.200	-1.600	1.400																			1580069076.0	0.52	0.96
26/01/2020 20:04:37	26012020	260120	200437	71.100	12.187003	-56.117660	71.170	0.220	-0.190	0.760	71.100	-1.600	1.100																			1580069077.0	0.01	0.02
26/01/2020 20:04:38	26012020	260120	200438	70.980	12.187005	-56.117662	71.050	0.320	-0.170	0.350	70.980	-1.600	0.700																			1580069078.0	0.54	1.00
26/01/2020 20:04:39	26012020	260120	200439	70.960	12.187008	-56.117663	71.020	0.360	-0.300	-0.130	70.960	-1.700	0.200																			1580069079.0	0.90	1.67
26/01/2020 20:04:40	26012020	260120	200440	71.060	12.187013	-56.117663	71.120	0.320	-0.430	-0.590	71.060	-1.800	-0.200																			1580069080.0	1.03	1.91
26/01/2020 20:04:41	26012020	260120	200441	71.260	12.187017	-56.117665	71.330	0.120	-0.300	-0.880	71.260	-1.700	-0.500																			1580069081.0	0.88	1.63
26/01/2020 20:04:42	26012020	260120	200442	71.500	12.187018	-56.117665	71.570	-0.190	0.090	-0.840	71.500	-1.300	-0.500																			1580069082.0	0.39	0.72
26/01/2020 20:04:43	26012020	260120	200443	71.650	12.187017	-56.117667	71.720	-0.450	0.470	-0.440	71.650	-0.900	-0.100																			1580069083.0	0.45	0.83
26/01/2020 20:04:44	26012020	260120	200444	71.680	12.187013	-56.117667	71.750	-0.490	0.480	0.150	71.680	-0.900	0.500																			1580069084.0	0.87	1.61
26/01/2020 20:04:45	26012020	260120	200445	71.640	12.187008	-56.117667	71.710	-0.240	0.030	0.690	71.630	-1.400	1.000																			1580069085.0	0.96	1.78
26/01/2020 20:04:46	26012020	260120	200446	71.590	12.187007	-56.117663	71.670	0.140	-0.610	1.000	71.590	-2.000	1.300																			1580069086.0	0.77	1.43
26/01/2020 20:04:47	26012020	260120	200447	71.580	12.187007	-56.117660	71.660	0.420	-0.970	1.080	71.580	-2.400	1.400																			1580069087.0	0.63	1.17
26/01/2020 20:04:48	26012020	260120	200448	71.570	12.187007	-56.117660	71.640	0.430	-0.730	1.010	71.570	-2.100	1.400																			1580069088.0	0.42	0.78
26/01/2020 20:04:49	26012020	260120	200449	71.520	12.187008	-56.117660	71.590	0.190	-0.050	0.830	71.520	-1.400	1.200																			1580069089.0	0.35	0.65
26/01/2020 20:04:50	26012020	260120	200450	71.500	12.187010	-56.117663	71.560	-0.150	0.570	0.490	71.500	-0.800	0.800																			1580069090.0	0.65	1.20
26/01/2020 20:04:51	26012020	260120	200451	71.550	12.187010	-56.117667	71.620	-0.390	0.720	0.030	71.550	-0.700	0.400																			1580069091.0	0.63	1.17
26/01/2020 20:04:52	26012020	260120	200452	71.710	12.187012	-56.117667	71.770	-0.370	0.320	-0.490	71.710	-1.100	-0.100																			1580069092.0	0.47	0.87
26/01/2020 20:04:53	26012020	260120	200453	71.930	12.187015	-56.117667	71.980	-0.070	-0.340	-0.970	71.930	-1.700	-0.600																			1580069093.0	0.62	1.15
26/01/2020 20:04:54	26012020	260120	200454	72.140	12.187018	-56.117665	72.180	0.330	-0.840	-1.270	72.140	-2.200	-0.900																			1580069094.0	0.77	1.43
26/01/2020 20:04:55	26012020	260120	200455	72.200	12.187020	-56.117663	72.230	0.540	-0.830	-1.190	72.200	-2.200	-0.800																			1580069095.0	0.55	1.02
26/01/2020 20:04:56	26012020	260120	200456	72.030	12.187020	-56.117663	72.050	0.400	-0.340	-0.670	72.030	-1.700	-0.300																			1580069096.0	0.08	0.15
26/01/2020 20:04:57	26012020	260120	200457	71.800	12.187017	-56.117665	71.790	-0.010	0.290	0.080	71.750	-1.100	0.400																			1580069097.0	0.59	1.09
26/01/2020 20:04:58	26012020	260120	200458	71.580	12.187013	-56.117667	71.650	-0.420	0.570	0.730	71.580	-0.800	1.100																			1580069098.0	0.84	1.56
26/01/2020 20:04:59	26012020	260120	200459	71.570	12.187010	-56.117667	71.680	-0.580	0.310	1.080	71.580	-1.100	1.400	1013.70	26.20	26.20	21.10	21.20	160.00	73.00	73.00	393.00	27.90	9.00	3.90	80.00	3.70	14358	3505.00	27.80	27.80	1580069099.0	0.65	1.20
26/01/2020 20:05:00	26012020	260120	200500	71.700	12.187010	-56.117665	71.810	-0.460	-0.230	1.180	71.700	-1.600	1.500																			1580069100.0	0.46	0.85
26/01/2020 20:05:01	26012020	260120	200501	71.890	12.187008	-56.117662	71.990	-0.170	-0.600	1.090	71.890	-2.000	1.400																			1580069101.0	0.57	1.06
26/01/2020 20:05:02	26012020	260120	200502	72.090	12.187008	-56.117660	72.180	0.130	-0.490	0.880	72.090	-1.900	1.200																			1580069102.0	0.39	0.72
26/01/2020 20:05:03	26012020	260120	200503	72.200	12.187008	-56.117662	72.270	0.270	-0.050	0.610	72.200	-1.400	0.900																			1580069103.0	0.18	0.33
26/01/2020 20:05:04	26012020	260120	200504	72.130	12.187008	-56.117663	72.180	0.270	0.280	0.250	72.130	-1.100	0.600																			1580069104.0	0.52	0.96
26/01/2020 20:05:05	26012020	260120	200505	71.930	12.187008	-56.117667	71.960	0.260	0.120	-0.140	71.930	-1.300	0.200																			1580069105.0	0.61	1.13
26/01/2020 20:05:06	26012020	260120	200506	71.720	12.187012	-56.117667	71.760	0.340	-0.410	-0.540	71.720	-1.800	-0.200																			1580069106.0	0.74	1.37
26/01/2020 20:05:07	26012020	260120	200507	71.620	12.187017	-56.117665	71.670	0.420	-0.780	-0.860	71.620	-2.200	-0.500																			1580069107.0	1.02	1.89
26/01/2020 20:05:08	26012020	260120	200508	71.650	12.187022	-56.117665	71.690	0.320	-0.590	-1.020	71.650	-2.000	-0.700																			1580069108.0	0.86	1.59
26/01/2020 20:05:09	26012020	260120	200509	71.700	12.187022	-56.117665	71.750	0.000	0.050	-0.860	71.700	-1.300	-0.500																			1580069109.0	0.35	0.65
26/01/2020 20:05:10	26012020	260120	200510	71.710	12.187022	-56.117667	71.770	-0.400	0.630	-0.370	71.710	-0.800	-0.000																			1580069110.0	0.53	0.98
26/01/2020 20:05:11	26012020	260120	200511	71.710	12.187017	-56.117668	71.780	-0.670	0.750	0.250	71.700	-0.600	0.600																			1580069111.0	0.90	1.67
26/01/2020 20:05:12	26012020	260120	200512	71.700	12.187012	-56.117667	71.790	-0.670	0.380	0.760	71.700	-1.000	1.100																			1580069112.0	0.98	1.81
26/01/2020 20:05:13	26012020	260120	200513	71.670	12.187008	-56.117665	71.750	-0.430	-0.210	1.080	71.670	-1.600	1.400																			1580069113.0	0.83	1.54
26/01/2020 20:05:14	26012020	260120	200514	71.600	12.187008	-56.117663	71.690	-0.090	-0.670	1.210	71.600	-2.000	1.500																			1580069114.0	0.60	1.11
26/01/2020 20:05:15	26012020	260120	200515	71.540	12.187007	-56.117662	71.640	0.250	-0.810	1.160	71.540	-2.200	1.500																			1580069115.0	0.29	0.54
26/01/2020 20:05:16	26012020	260120	200516	71.540	12.187008	-56.117662	71.620	0.490	-0.710	0.910	71.540	-2.100	1.300																			1580069116.0	0.19	0.35
26/01/2020 20:05:17	26012020	260120	200517	71.590	12.187010	-56.117662	71.670	0.610	-0.480	0.490	71.590	-1.900	0.800																			1580069117.0	0.40	0.74
26/01/2020 20:05:18	26012020	260120	200518	71.610	12.187012	-56.117663	71.680	0.540	-0.120	0.060	71.610	-1.500	0.400																			1580069118.0	0.50	0.93
26/01/2020 20:05:19	26012020	260120	200519	71.540	12.187013	-56.117665	71.590	0.270	0.320	-0.230	71.540	-1.100	0.100																			1580069119.0	0.45	0.83
26/01/2020 20:05:20	26012020	260120	200520	71.360	12.187015	-56.117665	71.390	-0.110	0.610	-0.340	71.360	-0.800	0.000																			1580069120.0	0.36	0.67
26/01/2020 20:05:21	26012020	260120	200521	71.170	12.187015	-56.117667	71.200	-0.360	0.450	-0.420	71.170	-0.900	-0.100																			1580069121.0	0.27	0.50
26/01/2020 20:05:22	26012020	260120	200522	71.090	12.187017	-56.117667	71.130	-0.340	-0.090	-0.560	71.090	-1.500	-0.200																			1580069122.0	0.23	0.43
26/01/2020 20:05:23	26012020	260120	200523	71.110	12.187018	-56.117665	71.180	-0.100	-0.630	-0.640	71.130	-2.000	-0.300																			1580069123.0	0.56	1.04
26/01/2020 20:05:24	26012020	260120	200524	71.270	12.187020	-56.117663	71.330	0.110	-0.800	-0.550	71.270	-2.200	-0.200																			1580069124.0	0.59	1.09
26/01/2020 20:05:25	26012020	260120	200525	71.400	12.187020	-56.117662	71.510	0.090	-0.410	-0.320	71.430	-1.800	0.000																			1580069125.0	0.24	0.44
26/01/2020 20:05:26	26012020	260120	200526	71.550	12.187020	-56.117663	71.640	-0.160	0.300	0.080	71.550	-1.100	0.400																			1580069126.0	0.37	0.69
26/01/2020 20:05:27	26012020	260120	200527	71.590	12.187015	-56.117665	71.680	-0.430	0.850	0.650	71.590	-0.500	1.000																			1580069127.0	0.95	1.76
26/01/2020 20:05:28	26012020	260120	200528	71.530	12.187010	-56.117667	71.630	-0.490	0.750	1.220	71.530	-0.600	1.600																			1580069128.0	1.18	2.19
26/01/2020 20:05:29	26012020	260120	200529	71.460	12.187007	-56.117667	71.550	-0.230	-0.070	1.560	71.460	-1.500	1.900																			1580069129.0	0.91	1.69
26/01/2020 20:05:30	26012020	260120	200530	71.460	12.187005	-56.117663	71.570	0.240	-1.160	1.510	71.460	-2.500	1.900																			1580069130.0	0.75	1.39
26/01/2020 20:05:31	26012020	260120	200531	71.480	12.187007	-56.117658	71.570	0.660	-1.710	1.180	71.480	-3.100	1.500																			1580069131.0	0.98	1.81
26/01/2020 20:05:32	26012020	260120	200532	71.430	12.187010	-56.117657	71.510	0.760	-1.230	0.750	71.430	-2.600	1.100																			1580069132.0	0.86	1.59
26/01/2020 20:05:33	26012020	260120	200533	71.370	12.187013	-56.117658	71.440	0.490	0.010	0.310	71.370	-1.400	0.700																			1580069133.0	0.66	1.22
26/01/2020 20:05:34	26012020	260120	200534	71.390	12.187013	-56.117663	71.460	0.020	1.080	-0.170	71.390	-0.300	0.200																			1580069134.0	1.15	2.13
26/01/2020 20:05:35	26012020	260120	200535	71.500	12.187015	-56.117668	71.570	-0.340	1.310	-0.640	71.500	-0.100	-0.300																			1580069135.0	1.13	2.09
26/01/2020 20:05:36	26012020	260120	200536	71.650	12.187018	-56.117670	71.720	-0.430	0.680	-0.990	71.650	-0.700	-0.600																			1580069136.0	0.71	1.31
26/01/2020 20:05:37	26012020	260120	200537	71.800	12.187022	-56.117668	71.860	-0.300	-0.240	-1.160	71.800	-1.600	-0.800																			1580069137.0	0.74	1.37
26/01/2020 20:05:38	26012020	260120	200538	71.920	12.187023	-56.117667	71.980	-0.120	-0.850	-1.060	71.920	-2.200	-0.700																			1580069138.0	0.77	1.43
26/01/2020 20:05:39	26012020	260120	200539	71.960	12.187023	-56.117663	72.020	-0.040	-0.860	-0.560	71.960	-2.200	-0.200																			1580069139.0	0.45	0.83
26/01/2020 20:05:40	26012020	260120	200540	71.920	12.187020	-56.117663	71.990	-0.090	-0.380	0.230	71.920	-1.800	0.600																			1580069140.0	0.74	1.37
26/01/2020 20:05:41	26012020	260120	200541	71.880	12.187015	-56.117665	71.970	-0.190	0.160	0.940	71.880	-1.200	1.300																			1580069141.0	1.22	2.26
26/01/2020 20:05:42	26012020	260120	200542	71.920	12.187008	-56.117667	72.020	-0.210	0.340	1.310	71.920	-1.000	1.600																			1580069142.0	1.19	2.20
26/01/2020 20:05:43	26012020	260120	200543	72.020	12.187007	-56.117667	72.120	-0.070	0.050	1.300	72.020	-1.300	1.600																			1580069143.0	0.60	1.11
26/01/2020 20:05:44	26012020	260120	200544	72.110	12.187007	-56.117665	72.200	0.190	-0.460	1.070	72.110	-1.800	1.400																			1580069144.0	0.21	0.39
26/01/2020 20:05:45	26012020	260120	200545	72.170	12.187008	-56.117663	72.250	0.440	-0.800	0.710	72.170	-2.200	1.100																			1580069145.0	0.60	1.11
26/01/2020 20:05:46	26012020	260120	200546	72.210	12.187012	-56.117663	72.280	0.530	-0.700	0.240	72.210	-2.100	0.600																			1580069146.0	0.67	1.24
26/01/2020 20:05:47	26012020	260120	200547	72.250	12.187015	-56.117663	72.310	0.420	-0.200	-0.260	72.250	-1.600	0.100																			1580069147.0	0.63	1.17
26/01/2020 20:05:48	26012020	260120	200548	72.240	12.187017	-56.117665	72.280	0.160	0.420	-0.570	72.240	-1.000	-0.200																			1580069148.0	0.67	1.24
26/01/2020 20:05:49	26012020	260120	200549	72.190	12.187018	-56.117668	72.220	-0.170	0.760	-0.720	72.180	-0.600	-0.400																			1580069149.0	0.64	1.19
26/01/2020 20:05:50	26012020	260120	200550	72.240	12.187020	-56.117670	72.290	-0.420	0.590	-0.820	72.240	-0.800	-0.500																			1580069150.0	0.45	0.83
26/01/2020 20:05:51	26012020	260120	200551	72.460	12.187020	-56.117670	72.520	-0.490	0.020	-0.880	72.460	-1.400	-0.500																			1580069151.0	0.27	0.50
26/01/2020 20:05:52	26012020	260120	200552	72.710	12.187022	-56.117668	72.780	-0.390	-0.540	-0.690	72.710	-1.900	-0.300																			1580069152.0	0.39	0.72
26/01/2020 20:05:53	26012020	260120	200553	72.840	12.187020	-56.117665	72.890	-0.220	-0.750	-0.210	72.840	-2.100	0.100																			1580069153.0	0.65	1.20
26/01/2020 20:05:54	26012020	260120	200554	72.800	12.187015	-56.117663	72.850	-0.040	-0.550	0.410	72.800	-1.900	0.800																			1580069154.0	0.96	1.78
26/01/2020 20:05:55	26012020	260120	200555	72.660	12.187010	-56.117663	72.720	0.110	-0.140	0.900	72.660	-1.500	1.200																			1580069155.0	1.07	1.98
26/01/2020 20:05:56	26012020	260120	200556	72.590	12.187007	-56.117663	72.670	0.240	0.140	1.000	72.590	-1.200	1.300																			1580069156.0	0.78	1.44
26/01/2020 20:05:57	26012020	260120	200557	72.660	12.187007	-56.117665	72.730	0.350	0.090	0.770	72.660	-1.300	1.100																			1580069157.0	0.26	0.48
26/01/2020 20:05:58	26012020	260120	200558	72.770	12.187008	-56.117665	72.830	0.400	-0.210	0.410	72.770	-1.600	0.800																			1580069158.0	0.50	0.93
26/01/2020 20:05:59	26012020	260120	200559	72.820	12.187012	-56.117665	72.880	0.350	-0.470	0.080	72.830	-1.800	0.400	1013.80	26.20	26.20	21.20	21.20	160.00	73.00	74.00	394.00	27.90	2.00	3.40	74.00	3.10	14256	3584.00	27.80	27.80	1580069159.0	0.79	1.46
26/01/2020 20:06:00	26012020	260120	200600	72.780	12.187015	-56.117663	72.820	0.160	-0.440	-0.150	72.780	-1.800	0.200																			1580069160.0	0.67	1.24
26/01/2020 20:06:01	26012020	260120	200601	72.690	12.187017	-56.117663	72.700	-0.110	-0.140	-0.230	72.670	-1.500	0.100																			1580069161.0	0.30	0.56
26/01/2020 20:06:02	26012020	260120	200602	72.590	12.187017	-56.117665	72.630	-0.350	0.210	-0.190	72.590	-1.200	0.200																			1580069162.0	0.18	0.33
26/01/2020 20:06:03	26012020	260120	200603	72.650	12.187015	-56.117665	72.720	-0.490	0.420	-0.090	72.650	-0.900	0.300																			1580069163.0	0.40	0.74
26/01/2020 20:06:04	26012020	260120	200604	72.850	12.187012	-56.117665	72.920	-0.500	0.400	-0.070	72.850	-1.000	0.300																			1580069164.0	0.46	0.85
26/01/2020 20:06:05	26012020	260120	200605	73.070	12.187012	-56.117665	73.130	-0.350	0.140	-0.190	73.070	-1.200	0.100																			1580069165.0	0.31	0.57
26/01/2020 20:06:06	26012020	260120	200606	73.190	12.187012	-56.117665	73.230	-0.070	-0.220	-0.290	73.190	-1.600	0.000																			1580069166.0	0.13	0.24
26/01/2020 20:06:07	26012020	260120	200607	73.180	12.187012	-56.117663	73.220	0.220	-0.500	-0.230	73.180	-1.900	0.100																			1580069167.0	0.22	0.41
26/01/2020 20:06:08	26012020	260120	200608	73.140	12.187012	-56.117663	73.180	0.440	-0.650	-0.000	73.140	-2.000	0.300																			1580069168.0	0.15	0.28
26/01/2020 20:06:09	26012020	260120	200609	73.050	12.187012	-56.117663	73.090	0.500	-0.660	0.360	73.050	-2.000	0.700																			1580069169.0	0.17	0.31
26/01/2020 20:06:10	26012020	260120	200610	72.870	12.187010	-56.117662	72.930	0.420	-0.530	0.780	72.870	-1.900	1.100																			1580069170.0	0.38	0.70
26/01/2020 20:06:11	26012020	260120	200611	72.710	12.187008	-56.117660	72.790	0.240	-0.260	1.040	72.710	-1.600	1.400																			1580069171.0	0.48	0.89
26/01/2020 20:06:12	26012020	260120	200612	72.720	12.187007	-56.117660	72.810	0.020	0.100	0.960	72.720	-1.300	1.300																			1580069172.0	0.34	0.63
26/01/2020 20:06:13	26012020	260120	200613	72.830	12.187007	-56.117660	72.950	-0.200	0.470	0.620	72.860	-0.900	1.000																			1580069173.0	0.06	0.11
26/01/2020 20:06:14	26012020	260120	200614	73.000	12.187007	-56.117662	73.080	-0.390	0.720	0.180	73.000	-0.700	0.500																			1580069174.0	0.34	0.63
26/01/2020 20:06:15	26012020	260120	200615	73.080	12.187008	-56.117663	73.140	-0.460	0.630	-0.190	73.080	-0.700	0.200																			1580069175.0	0.44	0.81
26/01/2020 20:06:16	26012020	260120	200616	73.090	12.187010	-56.117663	73.140	-0.360	0.120	-0.460	73.090	-1.300	-0.100																			1580069176.0	0.31	0.57
26/01/2020 20:06:17	26012020	260120	200617	73.070	12.187012	-56.117663	73.100	-0.130	-0.620	-0.630	73.070	-2.000	-0.300																			1580069177.0	0.35	0.65
26/01/2020 20:06:18	26012020	260120	200618	73.090	12.187012	-56.117660	73.110	0.120	-1.130	-0.670	73.090	-2.500	-0.300																			1580069178.0	0.55	1.02
26/01/2020 20:06:19	26012020	260120	200619	73.120	12.187013	-56.117658	73.150	0.280	-1.100	-0.450	73.120	-2.500	-0.100																			1580069179.0	0.45	0.83
26/01/2020 20:06:20	26012020	260120	200620	73.130	12.187012	-56.117658	73.160	0.310	-0.580	-0.050	73.130	-1.900	0.300																			1580069180.0	0.42	0.78
26/01/2020 20:06:21	26012020	260120	200621	73.080	12.187008	-56.117658	73.110	0.200	0.160	0.290	73.080	-1.200	0.600																			1580069181.0	0.70	1.30
26/01/2020 20:06:22	26012020	260120	200622	72.980	12.187005	-56.117660	73.030	-0.000	0.750	0.510	72.980	-0.600	0.900																			1580069182.0	0.74	1.37
26/01/2020 20:06:23	26012020	260120	200623	72.930	12.187003	-56.117662	72.990	-0.160	0.850	0.600	72.930	-0.500	0.900																			1580069183.0	0.55	1.02
26/01/2020 20:06:24	26012020	260120	200624	72.960	12.187002	-56.117662	73.020	-0.150	0.390	0.580	72.960	-1.000	0.900																			1580069184.0	0.13	0.24
26/01/2020 20:06:25	26012020	260120	200625	73.030	12.187003	-56.117660	73.090	0.010	-0.330	0.440	73.030	-1.700	0.800																			1580069185.0	0.38	0.70
26/01/2020 20:06:26	26012020	260120	200626	73.140	12.187005	-56.117658	73.210	0.190	-0.870	0.180	73.140	-2.200	0.500																			1580069186.0	0.68	1.26
26/01/2020 20:06:27	26012020	260120	200627	73.200	12.187008	-56.117657	73.250	0.230	-0.930	0.030	73.200	-2.300	0.400																			1580069187.0	0.60	1.11
26/01/2020 20:06:28	26012020	260120	200628	73.110	12.187008	-56.117657	73.180	0.120	-0.570	0.150	73.110	-1.900	0.500																			1580069188.0	0.15	0.28
26/01/2020 20:06:29	26012020	260120	200629	73.010	12.187007	-56.117657	73.090	-0.050	-0.090	0.430	73.010	-1.500	0.800																			1580069189.0	0.38	0.70
26/01/2020 20:06:30	26012020	260120	200630	72.990	12.187003	-56.117657	73.080	-0.190	0.270	0.590	72.990	-1.100	0.900																			1580069190.0	0.69	1.28
26/01/2020 20:06:31	26012020	260120	200631	73.040	12.187002	-56.117657	73.120	-0.240	0.450	0.520	73.040	-0.900	0.900																			1580069191.0	0.61	1.13
26/01/2020 20:06:32	26012020	260120	200632	73.140	12.187000	-56.117657	73.230	-0.210	0.430	0.240	73.140	-0.900	0.600																			1580069192.0	0.24	0.44
26/01/2020 20:06:33	26012020	260120	200633	73.300	12.187000	-56.117657	73.370	-0.070	0.210	-0.170	73.300	-1.200	0.200																			1580069193.0	0.16	0.30
26/01/2020 20:06:34	26012020	260120	200634	73.430	12.187003	-56.117657	73.480	0.140	-0.160	-0.570	73.430	-1.500	-0.200																			1580069194.0	0.43	0.80
26/01/2020 20:06:35	26012020	260120	200635	73.430	12.187005	-56.117657	73.440	0.310	-0.510	-0.740	73.430	-1.900	-0.400																			1580069195.0	0.58	1.07
26/01/2020 20:06:36	26012020	260120	200636	73.260	12.187008	-56.117657	73.270	0.320	-0.660	-0.540	73.260	-2.000	-0.200																			1580069196.0	0.50	0.93
26/01/2020 20:06:37	26012020	260120	200637	73.100	12.187008	-56.117655	73.100	0.120	-0.490	-0.090	73.070	-1.800	0.300																			1580069197.0	0.13	0.24
26/01/2020 20:06:38	26012020	260120	200638	72.970	12.187007	-56.117657	73.020	-0.190	-0.090	0.410	72.970	-1.500	0.800																			1580069198.0	0.43	0.80
26/01/2020 20:06:39	26012020	260120	200639	72.980	12.187003	-56.117657	73.060	-0.430	0.170	0.820	72.990	-1.200	1.200																			1580069199.0	0.75	1.39
26/01/2020 20:06:40	26012020	260120	200640	73.110	12.186998	-56.117657	73.200	-0.380	0.040	1.080	73.110	-1.300	1.400																			1580069200.0	0.77	1.43
26/01/2020 20:06:41	26012020	260120	200641	73.250	12.186997	-56.117655	73.330	-0.060	-0.310	1.140	73.250	-1.700	1.500																			1580069201.0	0.72	1.33
26/01/2020 20:06:42	26012020	260120	200642	73.320	12.186995	-56.117652	73.380	0.330	-0.490	1.000	73.320	-1.900	1.300																			1580069202.0	0.73	1.35
26/01/2020 20:06:43	26012020	260120	200643	73.290	12.186995	-56.117650	73.350	0.510	-0.290	0.690	73.290	-1.600	1.000																			1580069203.0	0.44	0.81
26/01/2020 20:06:44	26012020	260120	200644	73.220	12.186995	-56.117650	73.280	0.400	0.170	0.310	73.220	-1.200	0.700																			1580069204.0	0.18	0.33
26/01/2020 20:06:45	26012020	260120	200645	73.190	12.186997	-56.117652	73.240	0.100	0.530	-0.130	73.190	-0.800	0.200																			1580069205.0	0.60	1.11
26/01/2020 20:06:46	26012020	260120	200646	73.210	12.187000	-56.117655	73.250	-0.150	0.510	-0.580	73.210	-0.900	-0.200																			1580069206.0	0.83	1.54
26/01/2020 20:06:47	26012020	260120	200647	73.260	12.187003	-56.117657	73.290	-0.240	0.110	-0.940	73.260	-1.300	-0.600																			1580069207.0	0.80	1.48
26/01/2020 20:06:48	26012020	260120	200648	73.240	12.187007	-56.117655	73.250	-0.220	-0.350	-0.980	73.240	-1.700	-0.600																			1580069208.0	0.60	1.11
26/01/2020 20:06:49	26012020	260120	200649	73.100	12.187007	-56.117655	73.120	-0.220	-0.550	-0.570	73.100	-1.900	-0.200																			1580069209.0	0.27	0.50
26/01/2020 20:06:50	26012020	260120	200650	72.970	12.187003	-56.117653	73.000	-0.260	-0.500	0.090	72.970	-1.900	0.400																			1580069210.0	0.63	1.17
26/01/2020 20:06:51	26012020	260120	200651	72.960	12.187000	-56.117653	73.040	-0.240	-0.450	0.650	72.970	-1.800	1.000																			1580069211.0	0.98	1.81
26/01/2020 20:06:52	26012020	260120	200652	73.050	12.186995	-56.117652	73.130	-0.060	-0.450	0.980	73.050	-1.800	1.300																			1580069212.0	0.89	1.65
26/01/2020 20:06:53	26012020	260120	200653	73.090	12.186993	-56.117650	73.150	0.210	-0.360	1.140	73.090	-1.700	1.500																			1580069213.0	0.66	1.22
26/01/2020 20:06:54	26012020	260120	200654	72.990	12.186992	-56.117648	73.050	0.420	-0.120	1.230	72.990	-1.500	1.600																			1580069214.0	0.48	0.89
26/01/2020 20:06:55	26012020	260120	200655	72.780	12.186990	-56.117648	72.850	0.440	0.120	1.170	72.780	-1.300	1.500																			1580069215.0	0.25	0.46
26/01/2020 20:06:56	26012020	260120	200656	72.630	12.186990	-56.117648	72.700	0.300	0.180	0.870	72.630	-1.200	1.200																			1580069216.0	0.11	0.20
26/01/2020 20:06:57	26012020	260120	200657	72.630	12.186993	-56.117648	72.710	0.120	0.100	0.320	72.630	-1.300	0.700																			1580069217.0	0.58	1.07
26/01/2020 20:06:58	26012020	260120	200658	72.720	12.186997	-56.117648	72.790	-0.050	0.080	-0.300	72.720	-1.300	0.100																			1580069218.0	0.88	1.63
26/01/2020 20:06:59	26012020	260120	200659	72.760	12.187000	-56.117650	72.810	-0.220	0.260	-0.710	72.760	-1.100	-0.400	1013.80	26.20	26.20	21.20	21.20	160.00	73.00	74.00	394.00	27.80	8.00	3.10	82.00	2.90	14141	3375.00	27.80	27.80	1580069219.0	0.83	1.54
26/01/2020 20:07:00	26012020	260120	200700	72.710	12.187003	-56.117652	72.750	-0.370	0.380	-0.800	72.710	-1.000	-0.400																			1580069220.0	0.57	1.06
26/01/2020 20:07:01	26012020	260120	200701	72.580	12.187002	-56.117653	72.610	-0.430	0.160	-0.570	72.580	-1.200	-0.200																			1580069221.0	0.36	0.67
26/01/2020 20:07:02	26012020	260120	200702	72.360	12.187000	-56.117653	72.390	-0.340	-0.320	-0.140	72.360	-1.700	0.200																			1580069222.0	0.39	0.72
26/01/2020 20:07:03	26012020	260120	200703	72.180	12.186998	-56.117652	72.200	-0.140	-0.740	0.330	72.150	-2.100	0.700																			1580069223.0	0.64	1.19
26/01/2020 20:07:04	26012020	260120	200704	72.080	12.186997	-56.117650	72.150	0.110	-0.940	0.580	72.080	-2.300	0.900																			1580069224.0	0.58	1.07
26/01/2020 20:07:05	26012020	260120	200705	72.110	12.186995	-56.117648	72.200	0.310	-0.860	0.660	72.110	-2.200	1.000																			1580069225.0	0.33	0.61
26/01/2020 20:07:06	26012020	260120	200706	72.080	12.186995	-56.117648	72.160	0.390	-0.500	0.710	72.080	-1.900	1.100																			1580069226.0	0.12	0.22
26/01/2020 20:07:07	26012020	260120	200707	71.930	12.186993	-56.117648	72.010	0.350	0.010	0.780	71.930	-1.400	1.100																			1580069227.0	0.20	0.37
26/01/2020 20:07:08	26012020	260120	200708	71.780	12.186993	-56.117648	71.850	0.220	0.330	0.710	71.780	-1.000	1.100																			1580069228.0	0.27	0.50
26/01/2020 20:07:09	26012020	260120	200709	71.730	12.186993	-56.117648	71.800	0.100	0.340	0.380	71.730	-1.000	0.700																			1580069229.0	0.01	0.02
26/01/2020 20:07:10	26012020	260120	200710	71.770	12.186995	-56.117648	71.840	-0.010	0.290	-0.080	71.770	-1.100	0.300																			1580069230.0	0.44	0.81
26/01/2020 20:07:11	26012020	260120	200711	71.870	12.186997	-56.117648	71.930	-0.160	0.390	-0.540	71.870	-1.000	-0.200																			1580069231.0	0.61	1.13
26/01/2020 20:07:12	26012020	260120	200712	72.040	12.187000	-56.117650	72.100	-0.340	0.530	-0.920	72.040	-0.900	-0.600																			1580069232.0	0.65	1.20
26/01/2020 20:07:13	26012020	260120	200713	72.210	12.187002	-56.117653	72.270	-0.480	0.390	-1.050	72.210	-1.000	-0.700																			1580069233.0	0.65	1.20
26/01/2020 20:07:14	26012020	260120	200714	72.220	12.187002	-56.117653	72.250	-0.500	-0.070	-0.720	72.220	-1.500	-0.400																			1580069234.0	0.30	0.56
26/01/2020 20:07:15	26012020	260120	200715	72.000	12.187000	-56.117653	72.040	-0.370	-0.640	0.010	72.000	-2.000	0.400																			1580069235.0	0.44	0.81
26/01/2020 20:07:16	26012020	260120	200716	71.760	12.186997	-56.117652	71.820	-0.110	-1.090	0.770	71.760	-2.500	1.100																			1580069236.0	0.95	1.76
26/01/2020 20:07:17	26012020	260120	200717	71.620	12.186992	-56.117648	71.710	0.230	-1.290	1.330	71.620	-2.600	1.700																			1580069237.0	1.07	1.98
26/01/2020 20:07:18	26012020	260120	200718	71.540	12.186988	-56.117645	71.640	0.530	-1.050	1.620	71.540	-2.400	2.000																			1580069238.0	0.88	1.63
26/01/2020 20:07:19	26012020	260120	200719	71.520	12.186987	-56.117645	71.620	0.630	-0.430	1.540	71.520	-1.800	1.900																			1580069239.0	0.49	0.91
26/01/2020 20:07:20	26012020	260120	200720	71.570	12.186987	-56.117645	71.640	0.490	0.320	1.080	71.570	-1.100	1.400																			1580069240.0	0.12	0.22
26/01/2020 20:07:21	26012020	260120	200721	71.590	12.186990	-56.117647	71.640	0.170	0.930	0.430	71.590	-0.400	0.800																			1580069241.0	0.63	1.17
26/01/2020 20:07:22	26012020	260120	200722	71.570	12.186993	-56.117650	71.590	-0.170	1.170	-0.280	71.570	-0.200	0.100																			1580069242.0	0.92	1.70
26/01/2020 20:07:23	26012020	260120	200723	71.520	12.186997	-56.117652	71.540	-0.360	0.880	-0.860	71.520	-0.500	-0.500																			1580069243.0	0.96	1.78
26/01/2020 20:07:24	26012020	260120	200724	71.490	12.187000	-56.117652	71.490	-0.380	0.160	-1.130	71.490	-1.200	-0.800																			1580069244.0	0.77	1.43
26/01/2020 20:07:25	26012020	260120	200725	71.470	12.187002	-56.117650	71.480	-0.280	-0.640	-1.040	71.470	-2.000	-0.700																			1580069245.0	0.54	1.00
26/01/2020 20:07:26	26012020	260120	200726	71.420	12.187002	-56.117648	71.420	-0.150	-1.100	-0.670	71.420	-2.500	-0.300																			1580069246.0	0.49	0.91
26/01/2020 20:07:27	26012020	260120	200727	71.240	12.187000	-56.117647	71.260	-0.070	-1.000	-0.060	71.240	-2.400	0.300																			1580069247.0	0.59	1.09
26/01/2020 20:07:28	26012020	260120	200728	70.970	12.186997	-56.117647	70.990	-0.050	-0.500	0.640	70.970	-1.900	1.000																			1580069248.0	0.84	1.56
26/01/2020 20:07:29	26012020	260120	200729	70.760	12.186992	-56.117647	70.770	-0.010	-0.040	1.220	70.720	-1.400	1.600																			1580069249.0	0.97	1.80
26/01/2020 20:07:30	26012020	260120	200730	70.570	12.186988	-56.117648	70.650	0.090	0.110	1.530	70.570	-1.300	1.900																			1580069250.0	0.70	1.30
26/01/2020 20:07:31	26012020	260120	200731	70.510	12.186988	-56.117647	70.590	0.220	0.020	1.470	70.510	-1.400	1.800																			1580069251.0	0.28	0.52
26/01/2020 20:07:32	26012020	260120	200732	70.580	12.186988	-56.117645	70.650	0.290	-0.040	1.030	70.580	-1.400	1.400																			1580069252.0	0.39	0.72
26/01/2020 20:07:33	26012020	260120	200733	70.710	12.186992	-56.117645	70.770	0.230	0.100	0.400	70.710	-1.300	0.800																			1580069253.0	0.61	1.13
26/01/2020 20:07:34	26012020	260120	200734	70.820	12.186995	-56.117647	70.870	0.070	0.200	-0.180	70.820	-1.200	0.200																			1580069254.0	0.77	1.43
26/01/2020 20:07:35	26012020	260120	200735	70.890	12.186998	-56.117650	70.930	-0.050	0.030	-0.590	70.890	-1.400	-0.200																			1580069255.0	0.72	1.33
26/01/2020 20:07:36	26012020	260120	200736	70.860	12.187000	-56.117650	70.890	-0.110	-0.320	-0.720	70.860	-1.700	-0.400																			1580069256.0	0.43	0.80
26/01/2020 20:07:37	26012020	260120	200737	70.660	12.187000	-56.117648	70.680	-0.190	-0.440	-0.520	70.660	-1.800	-0.200																			1580069257.0	0.31	0.57
26/01/2020 20:07:38	26012020	260120	200738	70.410	12.186998	-56.117647	70.450	-0.270	-0.210	-0.180	70.410	-1.600	0.200																			1580069258.0	0.37	0.69
26/01/2020 20:07:39	26012020	260120	200739	70.360	12.186997	-56.117648	70.430	-0.250	0.060	-0.010	70.360	-1.300	0.300																			1580069259.0	0.54	1.00
26/01/2020 20:07:40	26012020	260120	200740	70.540	12.186995	-56.117648	70.630	-0.070	0.120	-0.040	70.540	-1.300	0.300																			1580069260.0	0.39	0.72
26/01/2020 20:07:41	26012020	260120	200741	70.810	12.186995	-56.117648	70.900	0.190	-0.030	-0.120	70.810	-1.400	0.200																			1580069261.0	0.14	0.26
26/01/2020 20:07:42	26012020	260120	200742	70.980	12.186997	-56.117648	71.050	0.370	-0.210	-0.080	70.980	-1.600	0.300																			1580069262.0	0.31	0.57
26/01/2020 20:07:43	26012020	260120	200743	70.960	12.186998	-56.117648	71.010	0.340	-0.320	0.170	70.960	-1.700	0.500																			1580069263.0	0.25	0.46
26/01/2020 20:07:44	26012020	260120	200744	70.770	12.186998	-56.117648	70.830	0.150	-0.390	0.600	70.770	-1.800	1.000																			1580069264.0	0.14	0.26
26/01/2020 20:07:45	26012020	260120	200745	70.620	12.186997	-56.117647	70.710	-0.060	-0.410	1.050	70.620	-1.800	1.400																			1580069265.0	0.35	0.65
26/01/2020 20:07:46	26012020	260120	200746	70.640	12.186995	-56.117645	70.740	-0.160	-0.300	1.320	70.640	-1.700	1.700																			1580069266.0	0.52	0.96
26/01/2020 20:07:47	26012020	260120	200747	70.790	12.186993	-56.117643	70.910	-0.220	-0.010	1.300	70.790	-1.400	1.600																			1580069267.0	0.55	1.02
26/01/2020 20:07:48	26012020	260120	200748	70.990	12.186992	-56.117643	71.110	-0.290	0.380	0.990	70.990	-1.000	1.300																			1580069268.0	0.35	0.65
26/01/2020 20:07:49	26012020	260120	200749	71.120	12.186990	-56.117645	71.220	-0.360	0.680	0.500	71.120	-0.700	0.800																			1580069269.0	0.29	0.54
26/01/2020 20:07:50	26012020	260120	200750	71.120	12.186992	-56.117647	71.180	-0.310	0.600	-0.040	71.120	-0.800	0.300																			1580069270.0	0.50	0.93
26/01/2020 20:07:51	26012020	260120	200751	70.970	12.186993	-56.117648	71.000	-0.080	0.020	-0.480	70.970	-1.400	-0.100																			1580069271.0	0.61	1.13
26/01/2020 20:07:52	26012020	260120	200752	70.770	12.186998	-56.117648	70.790	0.290	-0.830	-0.760	70.770	-2.200	-0.400																			1580069272.0	0.84	1.56
26/01/2020 20:07:53	26012020	260120	200753	70.650	12.187002	-56.117647	70.680	0.620	-1.440	-0.890	70.640	-2.800	-0.500																			1580069273.0	1.07	1.98
26/01/2020 20:07:54	26012020	260120	200754	70.640	12.187007	-56.117645	70.680	0.680	-1.360	-0.840	70.640	-2.700	-0.500																			1580069274.0	0.91	1.69
26/01/2020 20:07:55	26012020	260120	200755	70.640	12.187007	-56.117645	70.670	0.400	-0.510	-0.450	70.630	-1.900	-0.100																			1580069275.0	0.26	0.48
26/01/2020 20:07:56	26012020	260120	200756	70.580	12.187005	-56.117645	70.630	-0.110	0.640	0.200	70.580	-0.700	0.600																			1580069276.0	0.64	1.19
26/01/2020 20:07:57	26012020	260120	200757	70.520	12.187000	-56.117648	70.600	-0.550	1.360	0.830	70.520	-0.000	1.200																			1580069277.0	1.22	2.26
26/01/2020 20:07:58	26012020	260120	200758	70.530	12.186995	-56.117650	70.620	-0.650	1.190	1.150	70.530	-0.200	1.500																			1580069278.0	1.08	2.00
26/01/2020 20:07:59	26012020	260120	200759	70.630	12.186993	-56.117648	70.740	-0.360	0.240	1.170	70.630	-1.100	1.500	1013.80	26.30	26.30	21.40	21.40	160.00	74.00	74.00	394.00	27.80	355.00	4.00	66.00	3.80	14031	3648.00	27.80	27.80	1580069279.0	0.49	0.91
26/01/2020 20:08:00	26012020	260120	200800	70.750	12.186993	-56.117645	70.860	0.070	-0.780	1.050	70.750	-2.200	1.400																			1580069280.0	0.74	1.37
26/01/2020 20:08:01	26012020	260120	200801	70.740	12.186995	-56.117642	70.820	0.290	-1.150	0.880	70.740	-2.500	1.200																			1580069281.0	0.80	1.48
26/01/2020 20:08:02	26012020	260120	200802	70.570	12.186997	-56.117642	70.630	0.150	-0.720	0.620	70.570	-2.100	1.000																			1580069282.0	0.26	0.48
26/01/2020 20:08:03	26012020	260120	200803	70.330	12.186997	-56.117645	70.380	-0.160	-0.010	0.260	70.330	-1.400	0.600																			1580069283.0	0.70	1.30
26/01/2020 20:08:04	26012020	260120	200804	70.130	12.186998	-56.117650	70.180	-0.340	0.390	-0.120	70.130	-1.000	0.200																			1580069284.0	1.02	1.89
26/01/2020 20:08:05	26012020	260120	200805	70.020	12.187000	-56.117652	70.080	-0.220	0.190	-0.440	70.020	-1.200	-0.100																			1580069285.0	0.73	1.35
26/01/2020 20:08:06	26012020	260120	200806	70.060	12.187002	-56.117652	70.120	0.100	-0.360	-0.780	70.060	-1.700	-0.400																			1580069286.0	0.44	0.81
26/01/2020 20:08:07	26012020	260120	200807	70.190	12.187005	-56.117650	70.250	0.410	-0.760	-1.130	70.190	-2.100	-0.800																			1580069287.0	0.71	1.31
26/01/2020 20:08:08	26012020	260120	200808	70.280	12.187007	-56.117648	70.310	0.570	-0.670	-1.280	70.280	-2.000	-0.900																			1580069288.0	0.67	1.24
26/01/2020 20:08:09	26012020	260120	200809	70.270	12.187008	-56.117648	70.290	0.540	-0.140	-1.060	70.270	-1.500	-0.700																			1580069289.0	0.28	0.52
26/01/2020 20:08:10	26012020	260120	200810	70.190	12.187007	-56.117650	70.230	0.300	0.450	-0.440	70.190	-0.900	-0.100																			1580069290.0	0.36	0.67
26/01/2020 20:08:11	26012020	260120	200811	70.140	12.187005	-56.117652	70.200	-0.110	0.720	0.380	70.140	-0.700	0.700																			1580069291.0	0.62	1.15
26/01/2020 20:08:12	26012020	260120	200812	70.110	12.187002	-56.117652	70.200	-0.560	0.560	1.190	70.110	-0.800	1.500																			1580069292.0	0.72	1.33
26/01/2020 20:08:13	26012020	260120	200813	70.050	12.186998	-56.117650	70.140	-0.840	0.100	1.860	70.050	-1.300	2.200																			1580069293.0	0.84	1.56
26/01/2020 20:08:14	26012020	260120	200814	69.970	12.186993	-56.117648	70.060	-0.750	-0.450	2.290	69.970	-1.800	2.600																			1580069294.0	0.97	1.80
26/01/2020 20:08:15	26012020	260120	200815	69.900	12.186990	-56.117645	69.990	-0.310	-0.840	2.320	69.900	-2.200	2.700																			1580069295.0	0.99	1.83
26/01/2020 20:08:16	26012020	260120	200816	69.850	12.186988	-56.117643	69.920	0.220	-0.840	1.900	69.850	-2.200	2.200																			1580069296.0	0.61	1.13
26/01/2020 20:08:17	26012020	260120	200817	69.810	12.186990	-56.117643	69.850	0.590	-0.500	1.090	69.790	-1.900	1.400																			1580069297.0	0.15	0.28
26/01/2020 20:08:18	26012020	260120	200818	69.710	12.186993	-56.117647	69.740	0.670	-0.030	0.010	69.710	-1.400	0.400																			1580069298.0	0.98	1.81
26/01/2020 20:08:19	26012020	260120	200819	69.630	12.187000	-56.117650	69.640	0.510	0.310	-1.150	69.630	-1.100	-0.800																			1580069299.0	1.64	3.04
26/01/2020 20:08:20	26012020	260120	200820	69.600	12.187007	-56.117655	69.610	0.230	0.360	-2.090	69.600	-1.000	-1.700																			1580069300.0	1.88	3.48
26/01/2020 20:08:21	26012020	260120	200821	69.590	12.187013	-56.117657	69.590	-0.040	0.100	-2.470	69.590	-1.300	-2.100																			1580069301.0	1.59	2.94
26/01/2020 20:08:22	26012020	260120	200822	69.520	12.187018	-56.117658	69.520	-0.240	-0.270	-2.150	69.520	-1.600	-1.800																			1580069302.0	0.81	1.50
26/01/2020 20:08:23	26012020	260120	200823	69.430	12.187017	-56.117655	69.450	-0.380	-0.480	-1.250	69.430	-1.900	-0.900																			1580069303.0	0.40	0.74
26/01/2020 20:08:24	26012020	260120	200824	69.340	12.187012	-56.117653	69.380	-0.480	-0.340	-0.030	69.340	-1.700	0.300																			1580069304.0	1.22	2.26
26/01/2020 20:08:25	26012020	260120	200825	69.230	12.187005	-56.117650	69.300	-0.510	0.020	1.160	69.230	-1.400	1.500																			1580069305.0	1.80	3.33
26/01/2020 20:08:26	26012020	260120	200826	69.230	12.186997	-56.117650	69.320	-0.360	0.250	1.960	69.230	-1.100	2.300																			1580069306.0	1.81	3.35
26/01/2020 20:08:27	26012020	260120	200827	69.350	12.186990	-56.117648	69.460	0.020	0.110	2.190	69.350	-1.300	2.500																			1580069307.0	1.22	2.26
26/01/2020 20:08:28	26012020	260120	200828	69.520	12.186988	-56.117647	69.600	0.510	-0.260	1.890	69.520	-1.600	2.200																			1580069308.0	0.35	0.65
26/01/2020 20:08:29	26012020	260120	200829	69.600	12.186992	-56.117647	69.680	0.820	-0.540	1.230	69.610	-1.900	1.600																			1580069309.0	0.61	1.13
26/01/2020 20:08:30	26012020	260120	200830	69.590	12.186997	-56.117648	69.630	0.760	-0.480	0.490	69.590	-1.900	0.800																			1580069310.0	1.15	2.13
26/01/2020 20:08:31	26012020	260120	200831	69.470	12.187003	-56.117650	69.450	0.330	-0.160	-0.070	69.430	-1.500	0.300																			1580069311.0	1.29	2.39
26/01/2020 20:08:32	26012020	260120	200832	69.210	12.187007	-56.117653	69.240	-0.210	0.150	-0.360	69.210	-1.200	0.000																			1580069312.0	1.06	1.96
26/01/2020 20:08:33	26012020	260120	200833	69.040	12.187008	-56.117655	69.080	-0.570	0.230	-0.500	69.040	-1.200	-0.100																			1580069313.0	0.54	1.00
26/01/2020 20:08:34	26012020	260120	200834	69.060	12.187008	-56.117655	69.110	-0.640	0.060	-0.660	69.060	-1.300	-0.300																			1580069314.0	0.09	0.17
26/01/2020 20:08:35	26012020	260120	200835	69.200	12.187008	-56.117655	69.260	-0.460	-0.170	-0.790	69.200	-1.600	-0.400																			1580069315.0	0.23	0.43
26/01/2020 20:08:36	26012020	260120	200836	69.380	12.187008	-56.117653	69.440	-0.190	-0.260	-0.780	69.380	-1.600	-0.400																			1580069316.0	0.24	0.44
26/01/2020 20:08:37	26012020	260120	200837	69.520	12.187007	-56.117653	69.570	0.030	-0.140	-0.600	69.520	-1.500	-0.200																			1580069317.0	0.11	0.20
26/01/2020 20:08:38	26012020	260120	200838	69.590	12.187007	-56.117653	69.650	0.140	0.030	-0.270	69.590	-1.300	0.100																			1580069318.0	0.19	0.35
26/01/2020 20:08:39	26012020	260120	200839	69.620	12.187005	-56.117653	69.690	0.210	0.060	0.160	69.620	-1.300	0.500																			1580069319.0	0.30	0.56
26/01/2020 20:08:40	26012020	260120	200840	69.570	12.187003	-56.117653	69.650	0.290	-0.090	0.650	69.570	-1.500	1.000																			1580069320.0	0.35	0.65
26/01/2020 20:08:41	26012020	260120	200841	69.470	12.187002	-56.117653	69.580	0.360	-0.400	1.160	69.470	-1.800	1.500																			1580069321.0	0.42	0.78
26/01/2020 20:08:42	26012020	260120	200842	69.430	12.187002	-56.117652	69.550	0.400	-0.720	1.490	69.430	-2.100	1.800																			1580069322.0	0.47	0.87
26/01/2020 20:08:43	26012020	260120	200843	69.450	12.187002	-56.117648	69.570	0.340	-0.750	1.530	69.450	-2.100	1.900																			1580069323.0	0.46	0.85
26/01/2020 20:08:44	26012020	260120	200844	69.430	12.187002	-56.117648	69.530	0.100	-0.230	1.330	69.430	-1.600	1.700																			1580069324.0	0.28	0.52
26/01/2020 20:08:45	26012020	260120	200845	69.400	12.187003	-56.117650	69.480	-0.300	0.580	0.930	69.400	-0.800	1.300																			1580069325.0	0.52	0.96
26/01/2020 20:08:46	26012020	260120	200846	69.460	12.187005	-56.117655	69.530	-0.630	1.030	0.400	69.460	-0.400	0.800																			1580069326.0	0.90	1.67
26/01/2020 20:08:47	26012020	260120	200847	69.610	12.187007	-56.117657	69.660	-0.700	0.730	-0.140	69.610	-0.700	0.200																			1580069327.0	0.73	1.35
26/01/2020 20:08:48	26012020	260120	200848	69.740	12.187008	-56.117658	69.770	-0.480	-0.050	-0.580	69.740	-1.400	-0.200																			1580069328.0	0.41	0.76
26/01/2020 20:08:49	26012020	260120	200849	69.800	12.187010	-56.117655	69.820	-0.110	-0.780	-0.890	69.800	-2.200	-0.500																			1580069329.0	0.62	1.15
26/01/2020 20:08:50	26012020	260120	200850	69.790	12.187012	-56.117653	69.800	0.230	-1.090	-1.060	69.790	-2.500	-0.700																			1580069330.0	0.58	1.07
26/01/2020 20:08:51	26012020	260120	200851	69.750	12.187013	-56.117653	69.770	0.400	-0.850	-1.070	69.750	-2.200	-0.700																			1580069331.0	0.35	0.65
26/01/2020 20:08:52	26012020	260120	200852	69.700	12.187015	-56.117655	69.740	0.420	-0.250	-0.850	69.700	-1.600	-0.500																			1580069332.0	0.41	0.76
26/01/2020 20:08:53	26012020	260120	200853	69.690	12.187015	-56.117657	69.740	0.350	0.280	-0.460	69.690	-1.100	-0.100																			1580069333.0	0.58	1.07
26/01/2020 20:08:54	26012020	260120	200854	69.830	12.187013	-56.117660	69.900	0.270	0.380	-0.050	69.830	-1.000	0.300																			1580069334.0	0.44	0.81
26/01/2020 20:08:55	26012020	260120	200855	70.080	12.187013	-56.117658	70.170	0.190	0.070	0.390	70.080	-1.300	0.700																			1580069335.0	0.13	0.24
26/01/2020 20:08:56	26012020	260120	200856	70.280	12.187012	-56.117657	70.360	0.060	-0.320	0.900	70.280	-1.700	1.300																			1580069336.0	0.56	1.04
26/01/2020 20:08:57	26012020	260120	200857	70.310	12.187010	-56.117653	70.390	-0.130	-0.450	1.480	70.310	-1.800	1.800																			1580069337.0	0.84	1.56
26/01/2020 20:08:58	26012020	260120	200858	70.160	12.187007	-56.117652	70.250	-0.330	-0.230	1.970	70.160	-1.600	2.300																			1580069338.0	0.93	1.72
26/01/2020 20:08:59	26012020	260120	200859	70.020	12.187002	-56.117652	70.110	-0.480	0.160	2.070	70.020	-1.200	2.400	1013.80	26.30	26.30	21.30	21.40	161.00	74.00	74.00	392.00	27.70	358.00	4.00	68.00	3.70	13945	3628.00	27.80	27.80	1580069339.0	0.83	1.54
26/01/2020 20:09:00	26012020	260120	200900	70.100	12.187000	-56.117653	70.190	-0.500	0.450	1.570	70.100	-0.900	1.900																			1580069340.0	0.51	0.94
26/01/2020 20:09:01	26012020	260120	200901	70.410	12.187002	-56.117655	70.490	-0.360	0.480	0.600	70.410	-0.900	1.000																			1580069341.0	0.66	1.22
26/01/2020 20:09:02	26012020	260120	200902	70.800	12.187007	-56.117658	70.860	-0.100	0.230	-0.550	70.800	-1.200	-0.200																			1580069342.0	1.17	2.17
26/01/2020 20:09:03	26012020	260120	200903	71.110	12.187013	-56.117660	71.150	0.200	-0.220	-1.450	71.110	-1.600	-1.100																			1580069343.0	1.42	2.63
26/01/2020 20:09:04	26012020	260120	200904	71.180	12.187018	-56.117662	71.180	0.440	-0.720	-1.760	71.180	-2.100	-1.400																			1580069344.0	1.22	2.26
26/01/2020 20:09:05	26012020	260120	200905	70.940	12.187022	-56.117662	70.930	0.540	-1.050	-1.430	70.940	-2.400	-1.100																			1580069345.0	0.69	1.28
26/01/2020 20:09:06	26012020	260120	200906	70.590	12.187022	-56.117662	70.590	0.450	-1.070	-0.660	70.590	-2.400	-0.300																			1580069346.0	0.25	0.46
26/01/2020 20:09:07	26012020	260120	200907	70.380	12.187020	-56.117660	70.440	0.240	-0.720	0.240	70.380	-2.100	0.600																			1580069347.0	0.51	0.94
26/01/2020 20:09:08	26012020	260120	200908	70.460	12.187017	-56.117658	70.570	0.020	-0.110	0.960	70.460	-1.500	1.300																			1580069348.0	0.80	1.48
26/01/2020 20:09:09	26012020	260120	200909	70.680	12.187013	-56.117658	70.850	-0.160	0.610	1.390	70.720	-0.800	1.700																			1580069349.0	0.87	1.61
26/01/2020 20:09:10	26012020	260120	200910	71.000	12.187008	-56.117658	71.110	-0.270	1.100	1.480	71.000	-0.300	1.800																			1580069350.0	0.76	1.41
26/01/2020 20:09:11	26012020	260120	200911	71.190	12.187007	-56.117660	71.280	-0.300	1.100	1.310	71.190	-0.300	1.600																			1580069351.0	0.48	0.89
26/01/2020 20:09:12	26012020	260120	200912	71.250	12.187007	-56.117660	71.330	-0.260	0.540	0.960	71.250	-0.900	1.300																			1580069352.0	0.11	0.20
26/01/2020 20:09:13	26012020	260120	200913	71.240	12.187010	-56.117660	71.300	-0.180	-0.230	0.530	71.240	-1.600	0.900																			1580069353.0	0.58	1.07
26/01/2020 20:09:14	26012020	260120	200914	71.180	12.187013	-56.117658	71.230	-0.130	-0.800	0.090	71.180	-2.200	0.400																			1580069354.0	0.84	1.56
26/01/2020 20:09:15	26012020	260120	200915	71.080	12.187017	-56.117658	71.120	-0.120	-0.990	-0.290	71.080	-2.400	0.100																			1580069355.0	0.77	1.43
26/01/2020 20:09:16	26012020	260120	200916	70.950	12.187020	-56.117660	70.980	-0.130	-0.860	-0.520	70.950	-2.200	-0.200																			1580069356.0	0.59	1.09
26/01/2020 20:09:17	26012020	260120	200917	70.720	12.187022	-56.117662	70.740	-0.090	-0.530	-0.560	70.720	-1.900	-0.200																			1580069357.0	0.35	0.65
26/01/2020 20:09:18	26012020	260120	200918	70.480	12.187020	-56.117662	70.500	0.010	-0.200	-0.520	70.480	-1.600	-0.200																			1580069358.0	0.21	0.39
26/01/2020 20:09:19	26012020	260120	200919	70.410	12.187020	-56.117662	70.460	0.170	-0.030	-0.560	70.420	-1.400	-0.200																			1580069359.0	0.08	0.15
26/01/2020 20:09:20	26012020	260120	200920	70.570	12.187022	-56.117662	70.630	0.330	-0.000	-0.710	70.570	-1.400	-0.400																			1580069360.0	0.20	0.37
26/01/2020 20:09:21	26012020	260120	200921	70.750	12.187023	-56.117660	70.830	0.410	0.070	-0.830	70.780	-1.300	-0.500																			1580069361.0	0.44	0.81
26/01/2020 20:09:22	26012020	260120	200922	70.890	12.187025	-56.117660	70.930	0.350	0.300	-0.800	70.890	-1.100	-0.400																			1580069362.0	0.40	0.74
26/01/2020 20:09:23	26012020	260120	200923	70.830	12.187025	-56.117660	70.870	0.170	0.480	-0.510	70.830	-0.900	-0.200																			1580069363.0	0.20	0.37
26/01/2020 20:09:24	26012020	260120	200924	70.690	12.187025	-56.117660	70.740	-0.070	0.370	-0.050	70.690	-1.000	0.300																			1580069364.0	0.15	0.28
26/01/2020 20:09:25	26012020	260120	200925	70.650	12.187023	-56.117660	70.730	-0.270	-0.050	0.400	70.650	-1.400	0.800																			1580069365.0	0.21	0.39
26/01/2020 20:09:26	26012020	260120	200926	70.700	12.187023	-56.117658	70.790	-0.380	-0.500	0.780	70.700	-1.900	1.100																			1580069366.0	0.41	0.76
26/01/2020 20:09:27	26012020	260120	200927	70.740	12.187022	-56.117657	70.820	-0.410	-0.670	1.040	70.740	-2.000	1.400																			1580069367.0	0.53	0.98
26/01/2020 20:09:28	26012020	260120	200928	70.710	12.187018	-56.117655	70.790	-0.390	-0.480	1.140	70.710	-1.900	1.500																			1580069368.0	0.58	1.07
26/01/2020 20:09:29	26012020	260120	200929	70.630	12.187017	-56.117655	70.710	-0.330	-0.160	1.010	70.630	-1.500	1.300																			1580069369.0	0.60	1.11
26/01/2020 20:09:30	26012020	260120	200930	70.530	12.187015	-56.117657	70.590	-0.150	0.030	0.620	70.530	-1.400	1.000																			1580069370.0	0.44	0.81
26/01/2020 20:09:31	26012020	260120	200931	70.460	12.187015	-56.117657	70.520	0.150	-0.050	-0.030	70.460	-1.400	0.300																			1580069371.0	0.16	0.30
26/01/2020 20:09:32	26012020	260120	200932	70.470	12.187018	-56.117657	70.530	0.490	-0.280	-0.890	70.470	-1.700	-0.600																			1580069372.0	0.69	1.28
26/01/2020 20:09:33	26012020	260120	200933	70.550	12.187023	-56.117658	70.620	0.670	-0.420	-1.780	70.580	-1.800	-1.400																			1580069373.0	1.29	2.39
26/01/2020 20:09:34	26012020	260120	200934	70.660	12.187030	-56.117658	70.670	0.550	-0.230	-2.370	70.660	-1.600	-2.000																			1580069374.0	1.52	2.82
26/01/2020 20:09:35	26012020	260120	200935	70.640	12.187035	-56.117662	70.630	0.200	0.190	-2.360	70.630	-1.200	-2.000																			1580069375.0	1.18	2.19
26/01/2020 20:09:36	26012020	260120	200936	70.530	12.187037	-56.117663	70.560	-0.180	0.460	-1.720	70.530	-0.900	-1.400																			1580069376.0	0.58	1.07
26/01/2020 20:09:37	26012020	260120	200937	70.520	12.187033	-56.117665	70.580	-0.360	0.280	-0.730	70.520	-1.100	-0.400																			1580069377.0	0.60	1.11
26/01/2020 20:09:38	26012020	260120	200938	70.650	12.187028	-56.117662	70.730	-0.330	-0.210	0.290	70.650	-1.600	0.600																			1580069378.0	1.20	2.22
26/01/2020 20:09:39	26012020	260120	200939	70.820	12.187023	-56.117657	70.930	-0.170	-0.570	1.180	70.820	-1.900	1.500																			1580069379.0	1.53	2.83
26/01/2020 20:09:40	26012020	260120	200940	70.880	12.187017	-56.117653	71.000	-0.040	-0.490	1.890	70.880	-1.900	2.200																			1580069380.0	1.50	2.78
26/01/2020 20:09:41	26012020	260120	200941	70.790	12.187012	-56.117652	70.890	-0.000	-0.100	2.220	70.790	-1.500	2.500																			1580069381.0	1.22	2.26
26/01/2020 20:09:42	26012020	260120	200942	70.600	12.187008	-56.117653	70.670	-0.020	0.200	2.000	70.600	-1.200	2.300																			1580069382.0	0.74	1.37
26/01/2020 20:09:43	26012020	260120	200943	70.450	12.187008	-56.117655	70.520	-0.030	0.150	1.250	70.450	-1.200	1.600																			1580069383.0	0.45	0.83
26/01/2020 20:09:44	26012020	260120	200944	70.430	12.187013	-56.117657	70.490	-0.010	-0.160	0.230	70.430	-1.500	0.600																			1580069384.0	0.94	1.74
26/01/2020 20:09:45	26012020	260120	200945	70.470	12.187018	-56.117658	70.530	0.020	-0.440	-0.770	70.470	-1.800	-0.400																			1580069385.0	1.27	2.35
26/01/2020 20:09:46	26012020	260120	200946	70.440	12.187025	-56.117658	70.450	0.030	-0.500	-1.550	70.440	-1.900	-1.200																			1580069386.0	1.19	2.20
26/01/2020 20:09:47	26012020	260120	200947	70.330	12.187028	-56.117660	70.320	0.040	-0.290	-2.050	70.330	-1.700	-1.700																			1580069387.0	0.91	1.69
26/01/2020 20:09:48	26012020	260120	200948	70.270	12.187032	-56.117662	70.260	0.070	0.060	-2.220	70.270	-1.300	-1.900																			1580069388.0	0.64	1.19
26/01/2020 20:09:49	26012020	260120	200949	70.340	12.187032	-56.117663	70.340	0.140	0.290	-2.000	70.340	-1.100	-1.700																			1580069389.0	0.41	0.76
26/01/2020 20:09:50	26012020	260120	200950	70.440	12.187032	-56.117663	70.460	0.220	0.230	-1.350	70.440	-1.100	-1.000																			1580069390.0	0.23	0.43
26/01/2020 20:09:51	26012020	260120	200951	70.470	12.187028	-56.117662	70.490	0.250	-0.080	-0.350	70.470	-1.400	-0.000																			1580069391.0	0.61	1.13
26/01/2020 20:09:52	26012020	260120	200952	70.380	12.187025	-56.117658	70.420	0.160	-0.410	0.730	70.380	-1.800	1.100																			1580069392.0	1.02	1.89
26/01/2020 20:09:53	26012020	260120	200953	70.250	12.187020	-56.117657	70.320	0.000	-0.550	1.680	70.250	-1.900	2.000																			1580069393.0	1.15	2.13
26/01/2020 20:09:54	26012020	260120	200954	70.120	12.187017	-56.117653	70.210	-0.160	-0.350	2.370	70.120	-1.700	2.700																			1580069394.0	1.07	1.98
26/01/2020 20:09:55	26012020	260120	200955	70.010	12.187012	-56.117653	70.090	-0.270	0.050	2.650	70.010	-1.300	3.000																			1580069395.0	0.94	1.74
26/01/2020 20:09:56	26012020	260120	200956	69.940	12.187008	-56.117653	70.010	-0.310	0.340	2.420	69.940	-1.000	2.700																			1580069396.0	0.72	1.33
26/01/2020 20:09:57	26012020	260120	200957	69.960	12.187008	-56.117655	70.010	-0.260	0.290	1.610	69.970	-1.100	1.900																			1580069397.0	0.30	0.56
26/01/2020 20:09:58	26012020	260120	200958	70.060	12.187010	-56.117657	70.090	-0.120	-0.020	0.360	70.060	-1.400	0.700																			1580069398.0	0.65	1.20
26/01/2020 20:09:59	26012020	260120	200959	70.180	12.187017	-56.117657	70.190	0.060	-0.370	-1.040	70.180	-1.700	-0.700	1013.80	26.20	26.20	21.10	21.20	163.00	73.00	73.00	392.00	27.70	0.00	4.00	71.00	3.70	13934	3610.00	27.80	27.70	1580069399.0	1.33	2.46
26/01/2020 20:10:00	26012020	260120	201000	70.250	12.187023	-56.117658	70.240	0.220	-0.550	-2.200	70.250	-1.900	-1.900																			1580069400.0	1.64	3.04
26/01/2020 20:10:01	26012020	260120	201001	70.210	12.187030	-56.117660	70.180	0.300	-0.460	-2.770	70.210	-1.800	-2.400																			1580069401.0	1.44	2.67
26/01/2020 20:10:02	26012020	260120	201002	70.080	12.187033	-56.117663	70.050	0.290	-0.210	-2.710	70.080	-1.600	-2.400																			1580069402.0	0.90	1.67
26/01/2020 20:10:03	26012020	260120	201003	69.990	12.187035	-56.117665	69.980	0.240	-0.040	-2.160	69.990	-1.400	-1.800																			1580069403.0	0.35	0.65
26/01/2020 20:10:04	26012020	260120	201004	70.020	12.187033	-56.117665	70.020	0.190	-0.080	-1.300	70.020	-1.400	-1.000																			1580069404.0	0.35	0.65
26/01/2020 20:10:05	26012020	260120	201005	70.100	12.187030	-56.117662	70.130	0.120	-0.160	-0.190	70.100	-1.500	0.100																			1580069405.0	0.82	1.52
26/01/2020 20:10:06	26012020	260120	201006	70.150	12.187025	-56.117660	70.230	-0.040	-0.080	1.090	70.150	-1.400	1.400																			1580069406.0	1.28	2.37
26/01/2020 20:10:07	26012020	260120	201007	70.150	12.187017	-56.117657	70.260	-0.290	0.200	2.320	70.150	-1.200	2.600																			1580069407.0	1.64	3.04
26/01/2020 20:10:08	26012020	260120	201008	70.110	12.187008	-56.117655	70.230	-0.540	0.420	3.100	70.110	-0.900	3.400																			1580069408.0	1.80	3.33
26/01/2020 20:10:09	26012020	260120	201009	70.090	12.187003	-56.117655	70.210	-0.600	0.310	3.110	70.090	-1.100	3.400																			1580069409.0	1.40	2.59
26/01/2020 20:10:10	26012020	260120	201010	70.120	12.187002	-56.117655	70.220	-0.360	-0.120	2.340	70.120	-1.500	2.700																			1580069410.0	0.34	0.63
26/01/2020 20:10:11	26012020	260120	201011	70.170	12.187005	-56.117655	70.240	0.070	-0.510	1.080	70.180	-1.900	1.400																			1580069411.0	0.78	1.44
26/01/2020 20:10:12	26012020	260120	201012	70.160	12.187012	-56.117657	70.190	0.450	-0.600	-0.330	70.160	-2.000	-0.000																			1580069412.0	1.48	2.74
26/01/2020 20:10:13	26012020	260120	201013	70.070	12.187020	-56.117658	70.090	0.610	-0.510	-1.610	70.070	-1.900	-1.300																			1580069413.0	1.83	3.39
26/01/2020 20:10:14	26012020	260120	201014	70.060	12.187027	-56.117663	70.070	0.540	-0.440	-2.550	70.060	-1.800	-2.200																			1580069414.0	1.88	3.48
26/01/2020 20:10:15	26012020	260120	201015	70.160	12.187033	-56.117665	70.170	0.330	-0.400	-2.950	70.160	-1.800	-2.600																			1580069415.0	1.54	2.85
26/01/2020 20:10:16	26012020	260120	201016	70.260	12.187038	-56.117665	70.260	0.020	-0.210	-2.590	70.260	-1.600	-2.200																			1580069416.0	0.77	1.43
26/01/2020 20:10:17	26012020	260120	201017	70.260	12.187037	-56.117665	70.260	-0.300	0.140	-1.510	70.260	-1.200	-1.200																			1580069417.0	0.35	0.65
26/01/2020 20:10:18	26012020	260120	201018	70.250	12.187030	-56.117663	70.300	-0.510	0.470	-0.060	70.250	-0.900	0.300																			1580069418.0	1.44	2.67
26/01/2020 20:10:19	26012020	260120	201019	70.360	12.187020	-56.117662	70.460	-0.490	0.540	1.300	70.360	-0.800	1.600																			1580069419.0	2.07	3.83
26/01/2020 20:10:20	26012020	260120	201020	70.520	12.187012	-56.117658	70.630	-0.300	0.310	2.270	70.520	-1.100	2.600																			1580069420.0	2.04	3.78
26/01/2020 20:10:21	26012020	260120	201021	70.660	12.187005	-56.117655	70.780	-0.060	-0.070	2.600	70.660	-1.400	2.900																			1580069421.0	1.44	2.67
26/01/2020 20:10:22	26012020	260120	201022	70.710	12.187003	-56.117653	70.810	0.140	-0.380	2.320	70.710	-1.700	2.600																			1580069422.0	0.50	0.93
26/01/2020 20:10:23	26012020	260120	201023	70.660	12.187005	-56.117653	70.730	0.270	-0.520	1.630	70.650	-1.900	1.900																			1580069423.0	0.44	0.81
26/01/2020 20:10:24	26012020	260120	201024	70.550	12.187010	-56.117657	70.630	0.340	-0.530	0.720	70.550	-1.900	1.000																			1580069424.0	1.05	1.94
26/01/2020 20:10:25	26012020	260120	201025	70.520	12.187017	-56.117658	70.560	0.330	-0.490	-0.310	70.510	-1.900	0.000																			1580069425.0	1.38	2.56
26/01/2020 20:10:26	26012020	260120	201026	70.580	12.187022	-56.117662	70.610	0.220	-0.350	-1.310	70.580	-1.700	-1.000																			1580069426.0	1.49	2.76
26/01/2020 20:10:27	26012020	260120	201027	70.720	12.187028	-56.117663	70.740	-0.020	-0.110	-2.040	70.720	-1.500	-1.700																			1580069427.0	1.36	2.52
26/01/2020 20:10:28	26012020	260120	201028	70.940	12.187032	-56.117665	70.950	-0.320	0.160	-2.320	70.940	-1.200	-2.000																			1580069428.0	0.96	1.78
26/01/2020 20:10:29	26012020	260120	201029	71.180	12.187033	-56.117667	71.190	-0.520	0.340	-2.050	71.180	-1.000	-1.700																			1580069429.0	0.33	0.61
26/01/2020 20:10:30	26012020	260120	201030	71.320	12.187030	-56.117667	71.350	-0.480	0.280	-1.290	71.320	-1.100	-0.900																			1580069430.0	0.58	1.07
26/01/2020 20:10:31	26012020	260120	201031	71.320	12.187025	-56.117665	71.360	-0.160	-0.020	-0.180	71.320	-1.400	0.200																			1580069431.0	1.30	2.41
26/01/2020 20:10:32	26012020	260120	201032	71.220	12.187018	-56.117660	71.300	0.260	-0.420	0.930	71.220	-1.800	1.300																			1580069432.0	1.69	3.13
26/01/2020 20:10:33	26012020	260120	201033	71.180	12.187012	-56.117657	71.290	0.560	-0.670	1.670	71.180	-2.000	2.000																			1580069433.0	1.51	2.80
26/01/2020 20:10:34	26012020	260120	201034	71.210	12.187010	-56.117655	71.330	0.560	-0.550	1.860	71.210	-1.900	2.200																			1580069434.0	0.82	1.52
26/01/2020 20:10:35	26012020	260120	201035	71.250	12.187010	-56.117655	71.360	0.280	-0.060	1.520	71.250	-1.400	1.800																			1580069435.0	0.12	0.22
26/01/2020 20:10:36	26012020	260120	201036	71.290	12.187013	-56.117658	71.380	-0.090	0.450	0.920	71.290	-0.900	1.300																			1580069436.0	0.90	1.67
26/01/2020 20:10:37	26012020	260120	201037	71.330	12.187017	-56.117662	71.400	-0.370	0.590	0.270	71.330	-0.800	0.600																			1580069437.0	1.11	2.06
26/01/2020 20:10:38	26012020	260120	201038	71.380	12.187020	-56.117663	71.430	-0.440	0.310	-0.330	71.380	-1.100	0.000																			1580069438.0	0.84	1.56
26/01/2020 20:10:39	26012020	260120	201039	71.410	12.187022	-56.117665	71.450	-0.350	-0.190	-0.870	71.410	-1.600	-0.500																			1580069439.0	0.56	1.04
26/01/2020 20:10:40	26012020	260120	201040	71.400	12.187023	-56.117663	71.420	-0.170	-0.600	-1.240	71.400	-2.000	-0.900																			1580069440.0	0.45	0.83
26/01/2020 20:10:41	26012020	260120	201041	71.390	12.187025	-56.117663	71.420	-0.000	-0.780	-1.410	71.390	-2.100	-1.100																			1580069441.0	0.32	0.59
26/01/2020 20:10:42	26012020	260120	201042	71.470	12.187025	-56.117662	71.500	0.110	-0.670	-1.430	71.470	-2.000	-1.100																			1580069442.0	0.17	0.31
26/01/2020 20:10:43	26012020	260120	201043	71.550	12.187025	-56.117662	71.590	0.160	-0.310	-1.240	71.550	-1.700	-0.900																			1580069443.0	0.06	0.11
26/01/2020 20:10:44	26012020	260120	201044	71.540	12.187025	-56.117663	71.580	0.120	0.190	-0.730	71.540	-1.200	-0.400																			1580069444.0	0.26	0.48
26/01/2020 20:10:45	26012020	260120	201045	71.470	12.187022	-56.117663	71.520	0.030	0.500	-0.040	71.470	-0.900	0.300																			1580069445.0	0.63	1.17
26/01/2020 20:10:46	26012020	260120	201046	71.420	12.187018	-56.117663	71.490	-0.020	0.390	0.610	71.420	-1.000	0.900																			1580069446.0	0.81	1.50
26/01/2020 20:10:47	26012020	260120	201047	71.420	12.187015	-56.117663	71.500	-0.000	-0.020	1.120	71.420	-1.400	1.400																			1580069447.0	0.79	1.46
26/01/2020 20:10:48	26012020	260120	201048	71.420	12.187013	-56.117660	71.510	0.070	-0.410	1.420	71.420	-1.800	1.700																			1580069448.0	0.75	1.39
26/01/2020 20:10:49	26012020	260120	201049	71.430	12.187012	-56.117658	71.520	0.160	-0.590	1.380	71.430	-1.900	1.700																			1580069449.0	0.50	0.93
26/01/2020 20:10:50	26012020	260120	201050	71.420	12.187012	-56.117657	71.500	0.230	-0.500	1.000	71.420	-1.900	1.300																			1580069450.0	0.19	0.35
26/01/2020 20:10:51	26012020	260120	201051	71.370	12.187015	-56.117658	71.430	0.230	-0.170	0.450	71.370	-1.500	0.800																			1580069451.0	0.51	0.94
26/01/2020 20:10:52	26012020	260120	201052	71.310	12.187017	-56.117660	71.360	0.120	0.190	-0.150	71.310	-1.200	0.200																			1580069452.0	0.82	1.52
26/01/2020 20:10:53	26012020	260120	201053	71.320	12.187020	-56.117663	71.360	-0.070	0.350	-0.690	71.320	-1.000	-0.400																			1580069453.0	0.90	1.67
26/01/2020 20:10:54	26012020	260120	201054	71.390	12.187023	-56.117665	71.420	-0.320	0.270	-1.100	71.390	-1.100	-0.800																			1580069454.0	0.72	1.33
26/01/2020 20:10:55	26012020	260120	201055	71.510	12.187025	-56.117665	71.540	-0.540	0.010	-1.330	71.510	-1.400	-1.000																			1580069455.0	0.42	0.78
26/01/2020 20:10:56	26012020	260120	201056	71.630	12.187025	-56.117665	71.650	-0.610	-0.280	-1.240	71.630	-1.600	-0.900																			1580069456.0	0.15	0.28
26/01/2020 20:10:57	26012020	260120	201057	71.650	12.187023	-56.117663	71.680	-0.480	-0.400	-0.820	71.650	-1.700	-0.500																			1580069457.0	0.51	0.94
26/01/2020 20:10:58	26012020	260120	201058	71.570	12.187020	-56.117662	71.590	-0.190	-0.310	-0.270	71.570	-1.700	0.100																			1580069458.0	0.90	1.67
26/01/2020 20:10:59	26012020	260120	201059	71.430	12.187015	-56.117662	71.470	0.210	-0.220	0.210	71.430	-1.600	0.500	1013.80	26.20	26.20	21.00	21.10	166.00	73.00	73.00	391.00	27.70	358.00	4.00	68.00	3.50	13925	3487.00	27.80	27.80	1580069459.0	0.97	1.80
26/01/2020 20:11:00	26012020	260120	201100	71.310	12.187012	-56.117662	71.350	0.600	-0.300	0.530	71.310	-1.700	0.900																			1580069460.0	0.68	1.26
26/01/2020 20:11:01	26012020	260120	201101	71.240	12.187012	-56.117660	71.280	0.840	-0.470	0.590	71.230	-1.800	0.900																			1580069461.0	0.26	0.48
26/01/2020 20:11:02	26012020	260120	201102	71.250	12.187013	-56.117660	71.310	0.840	-0.540	0.340	71.250	-1.900	0.700																			1580069462.0	0.46	0.85
26/01/2020 20:11:03	26012020	260120	201103	71.360	12.187017	-56.117660	71.420	0.580	-0.360	-0.040	71.360	-1.700	0.300																			1580069463.0	0.89	1.65
26/01/2020 20:11:04	26012020	260120	201104	71.490	12.187022	-56.117660	71.550	0.150	0.060	-0.280	71.490	-1.300	0.100																			1580069464.0	0.88	1.63
26/01/2020 20:11:05	26012020	260120	201105	71.540	12.187023	-56.117662	71.600	-0.400	0.580	-0.220	71.540	-0.800	0.100																			1580069465.0	0.40	0.74
26/01/2020 20:11:06	26012020	260120	201106	71.520	12.187022	-56.117662	71.580	-0.900	0.930	0.030	71.520	-0.400	0.400																			1580069466.0	0.47	0.87
26/01/2020 20:11:07	26012020	260120	201107	71.540	12.187017	-56.117663	71.610	-1.120	0.830	0.250	71.540	-0.500	0.600																			1580069467.0	0.84	1.56
26/01/2020 20:11:08	26012020	260120	201108	71.690	12.187013	-56.117663	71.760	-0.880	0.200	0.210	71.690	-1.200	0.500																			1580069468.0	0.81	1.50
26/01/2020 20:11:09	26012020	260120	201109	71.900	12.187012	-56.117662	71.950	-0.280	-0.640	0.000	71.900	-2.000	0.300																			1580069469.0	0.60	1.11
26/01/2020 20:11:10	26012020	260120	201110	71.960	12.187012	-56.117658	71.970	0.350	-1.190	-0.200	71.960	-2.500	0.100																			1580069470.0	0.58	1.07
26/01/2020 20:11:11	26012020	260120	201111	71.850	12.187012	-56.117657	71.860	0.680	-1.140	-0.370	71.850	-2.500	-0.000																			1580069471.0	0.37	0.69
26/01/2020 20:11:12	26012020	260120	201112	71.690	12.187013	-56.117658	71.700	0.660	-0.620	-0.510	71.690	-2.000	-0.200																			1580069472.0	0.34	0.63
26/01/2020 20:11:13	26012020	260120	201113	71.590	12.187015	-56.117660	71.600	0.500	-0.070	-0.590	71.580	-1.400	-0.300																			1580069473.0	0.67	1.24
26/01/2020 20:11:14	26012020	260120	201114	71.550	12.187017	-56.117663	71.590	0.360	0.190	-0.600	71.550	-1.200	-0.300																			1580069474.0	0.57	1.06
26/01/2020 20:11:15	26012020	260120	201115	71.580	12.187017	-56.117663	71.620	0.250	0.160	-0.510	71.590	-1.200	-0.200																			1580069475.0	0.25	0.46
26/01/2020 20:11:16	26012020	260120	201116	71.600	12.187018	-56.117662	71.630	0.080	0.040	-0.260	71.600	-1.300	0.100																			1580069476.0	0.33	0.61
26/01/2020 20:11:17	26012020	260120	201117	71.600	12.187017	-56.117660	71.640	-0.190	0.090	0.060	71.600	-1.300	0.400																			1580069477.0	0.50	0.93
26/01/2020 20:11:18	26012020	260120	201118	71.650	12.187015	-56.117658	71.700	-0.440	0.330	0.290	71.650	-1.000	0.600																			1580069478.0	0.49	0.91
26/01/2020 20:11:19	26012020	260120	201119	71.750	12.187012	-56.117658	71.800	-0.550	0.490	0.440	71.750	-0.900	0.800																			1580069479.0	0.57	1.06
26/01/2020 20:11:20	26012020	260120	201120	71.900	12.187010	-56.117658	71.960	-0.420	0.300	0.450	71.900	-1.000	0.800																			1580069480.0	0.57	1.06
26/01/2020 20:11:21	26012020	260120	201121	72.110	12.187008	-56.117658	72.180	-0.120	-0.210	0.320	72.110	-1.600	0.600																			1580069481.0	0.34	0.63
26/01/2020 20:11:22	26012020	260120	201122	72.290	12.187008	-56.117657	72.320	0.200	-0.720	0.120	72.290	-2.100	0.400																			1580069482.0	0.30	0.56
26/01/2020 20:11:23	26012020	260120	201123	72.200	12.187008	-56.117655	72.200	0.370	-0.860	0.000	72.200	-2.200	0.300																			1580069483.0	0.33	0.61
26/01/2020 20:11:24	26012020	260120	201124	71.850	12.187010	-56.117655	71.830	0.330	-0.580	0.070	71.850	-1.900	0.400																			1580069484.0	0.10	0.19
26/01/2020 20:11:25	26012020	260120	201125	71.470	12.187008	-56.117657	71.470	0.150	-0.150	0.180	71.470	-1.500	0.500																			1580069485.0	0.28	0.52
26/01/2020 20:11:26	26012020	260120	201126	71.330	12.187008	-56.117658	71.350	-0.040	0.100	0.070	71.330	-1.300	0.400																			1580069486.0	0.32	0.59
26/01/2020 20:11:27	26012020	260120	201127	71.420	12.187008	-56.117658	71.450	-0.110	0.090	-0.320	71.420	-1.300	0.000																			1580069487.0	0.19	0.35
26/01/2020 20:11:28	26012020	260120	201128	71.660	12.187012	-56.117658	71.700	-0.030	-0.080	-0.810	71.660	-1.400	-0.500																			1580069488.0	0.51	0.94
26/01/2020 20:11:29	26012020	260120	201129	71.940	12.187013	-56.117658	71.970	0.120	-0.230	-1.080	71.940	-1.600	-0.800																			1580069489.0	0.62	1.15
26/01/2020 20:11:30	26012020	260120	201130	72.070	12.187015	-56.117657	72.080	0.180	-0.150	-0.940	72.070	-1.500	-0.600																			1580069490.0	0.36	0.67
26/01/2020 20:11:31	26012020	260120	201131	71.980	12.187013	-56.117657	71.980	0.090	0.150	-0.470	71.980	-1.200	-0.100																			1580069491.0	0.33	0.61
26/01/2020 20:11:32	26012020	260120	201132	71.770	12.187010	-56.117657	71.790	-0.040	0.390	0.120	71.770	-1.000	0.400																			1580069492.0	0.74	1.37
26/01/2020 20:11:33	26012020	260120	201133	71.610	12.187007	-56.117657	71.660	-0.080	0.270	0.590	71.610	-1.100	0.900																			1580069493.0	0.80	1.48
26/01/2020 20:11:34	26012020	260120	201134	71.630	12.187005	-56.117655	71.690	-0.020	-0.150	0.820	71.630	-1.500	1.100																			1580069494.0	0.54	1.00
26/01/2020 20:11:35	26012020	260120	201135	71.720	12.187003	-56.117653	71.780	0.000	-0.490	0.870	71.720	-1.900	1.200																			1580069495.0	0.41	0.76
26/01/2020 20:11:36	26012020	260120	201136	71.690	12.187003	-56.117653	71.740	-0.080	-0.490	0.810	71.690	-1.800	1.100																			1580069496.0	0.24	0.44
26/01/2020 20:11:37	26012020	260120	201137	71.550	12.187003	-56.117653	71.540	-0.180	-0.300	0.680	71.500	-1.700	1.000																			1580069497.0	0.14	0.26
26/01/2020 20:11:38	26012020	260120	201138	71.310	12.187003	-56.117655	71.340	-0.120	-0.280	0.410	71.310	-1.600	0.700																			1580069498.0	0.29	0.54
26/01/2020 20:11:39	26012020	260120	201139	71.260	12.187005	-56.117655	71.310	0.120	-0.460	0.010	71.260	-1.800	0.300																			1580069499.0	0.19	0.35
26/01/2020 20:11:40	26012020	260120	201140	71.290	12.187007	-56.117653	71.340	0.320	-0.450	-0.370	71.290	-1.800	-0.000																			1580069500.0	0.46	0.85
26/01/2020 20:11:41	26012020	260120	201141	71.320	12.187008	-56.117653	71.360	0.270	-0.030	-0.750	71.320	-1.400	-0.400																			1580069501.0	0.38	0.70
26/01/2020 20:11:42	26012020	260120	201142	71.380	12.187008	-56.117655	71.410	-0.030	0.590	-1.180	71.380	-0.800	-0.800																			1580069502.0	0.42	0.78
26/01/2020 20:11:43	26012020	260120	201143	71.460	12.187010	-56.117658	71.490	-0.310	0.890	-1.450	71.460	-0.500	-1.100																			1580069503.0	0.80	1.48
26/01/2020 20:11:44	26012020	260120	201144	71.510	12.187012	-56.117660	71.540	-0.320	0.560	-1.310	71.510	-0.800	-1.000																			1580069504.0	0.60	1.11
26/01/2020 20:11:45	26012020	260120	201145	71.480	12.187012	-56.117660	71.520	-0.040	-0.320	-0.830	71.480	-1.700	-0.500																			1580069505.0	0.12	0.22
26/01/2020 20:11:46	26012020	260120	201146	71.410	12.187010	-56.117657	71.450	0.310	-1.200	-0.220	71.410	-2.500	0.100																			1580069506.0	0.82	1.52
26/01/2020 20:11:47	26012020	260120	201147	71.270	12.187008	-56.117652	71.320	0.450	-1.400	0.480	71.270	-2.700	0.800																			1580069507.0	1.09	2.02
26/01/2020 20:11:48	26012020	260120	201148	71.050	12.187005	-56.117648	71.110	0.250	-0.660	1.180	71.050	-2.000	1.500																			1580069508.0	0.93	1.72
26/01/2020 20:11:49	26012020	260120	201149	70.840	12.187000	-56.117650	70.910	-0.180	0.450	1.620	70.840	-0.900	1.900																			1580069509.0	1.02	1.89
26/01/2020 20:11:50	26012020	260120	201150	70.820	12.186997	-56.117653	70.900	-0.530	1.050	1.460	70.820	-0.300	1.800																			1580069510.0	1.11	2.06
26/01/2020 20:11:51	26012020	260120	201151	70.970	12.186997	-56.117657	71.100	-0.550	0.770	0.720	71.020	-0.600	1.000																			1580069511.0	0.63	1.17
26/01/2020 20:11:52	26012020	260120	201152	71.330	12.187000	-56.117658	71.410	-0.230	-0.060	-0.250	71.330	-1.400	0.100																			1580069512.0	0.86	1.59
26/01/2020 20:11:53	26012020	260120	201153	71.610	12.187005	-56.117657	71.660	0.200	-0.810	-1.060	71.610	-2.200	-0.700																			1580069513.0	1.21	2.24
26/01/2020 20:11:54	26012020	260120	201154	71.680	12.187010	-56.117653	71.690	0.440	-0.990	-1.400	71.680	-2.300	-1.100																			1580069514.0	0.96	1.78
26/01/2020 20:11:55	26012020	260120	201155	71.540	12.187010	-56.117653	71.560	0.390	-0.620	-1.270	71.540	-2.000	-0.900																			1580069515.0	0.22	0.41
26/01/2020 20:11:56	26012020	260120	201156	71.380	12.187008	-56.117655	71.410	0.200	-0.070	-0.920	71.380	-1.400	-0.600																			1580069516.0	0.45	0.83
26/01/2020 20:11:57	26012020	260120	201157	71.300	12.187007	-56.117655	71.340	0.020	0.380	-0.560	71.300	-1.000	-0.200																			1580069517.0	0.66	1.22
26/01/2020 20:11:58	26012020	260120	201158	71.270	12.187003	-56.117657	71.310	-0.070	0.570	-0.270	71.270	-0.800	0.100																			1580069518.0	0.54	1.00
26/01/2020 20:11:59	26012020	260120	201159	71.300	12.187003	-56.117657	71.360	-0.070	0.410	-0.070	71.300	-1.000	0.300	1013.90	26.20	26.20	21.00	21.10	170.00	73.00	73.00	390.00	27.60	3.00	3.30	74.00	3.10	13949	3466.00	27.80	27.80	1580069519.0	0.24	0.44
26/01/2020 20:12:00	26012020	260120	201200	71.460	12.187003	-56.117657	71.520	-0.000	-0.060	0.070	71.460	-1.400	0.400																			1580069520.0	0.14	0.26
26/01/2020 20:12:01	26012020	260120	201201	71.620	12.187005	-56.117657	71.690	0.020	-0.570	0.240	71.620	-1.900	0.600																			1580069521.0	0.38	0.70
26/01/2020 20:12:02	26012020	260120	201202	71.700	12.187005	-56.117655	71.770	-0.050	-0.830	0.560	71.700	-2.200	0.900																			1580069522.0	0.38	0.70
26/01/2020 20:12:03	26012020	260120	201203	71.700	12.187003	-56.117653	71.750	-0.190	-0.690	1.010	71.690	-2.000	1.300																			1580069523.0	0.56	1.04
26/01/2020 20:12:04	26012020	260120	201204	71.580	12.186998	-56.117652	71.650	-0.340	-0.200	1.390	71.580	-1.600	1.700																			1580069524.0	0.96	1.78
26/01/2020 20:12:05	26012020	260120	201205	71.500	12.186993	-56.117652	71.590	-0.340	0.320	1.380	71.500	-1.000	1.700																			1580069525.0	1.08	2.00
26/01/2020 20:12:06	26012020	260120	201206	71.540	12.186992	-56.117653	71.620	-0.140	0.530	0.810	71.540	-0.800	1.100																			1580069526.0	0.64	1.19
26/01/2020 20:12:07	26012020	260120	201207	71.690	12.186993	-56.117653	71.740	0.200	0.320	-0.200	71.690	-1.000	0.100																			1580069527.0	0.46	0.85
26/01/2020 20:12:08	26012020	260120	201208	71.860	12.186998	-56.117655	71.900	0.490	-0.120	-1.270	71.860	-1.500	-0.900																			1580069528.0	1.27	2.35
26/01/2020 20:12:09	26012020	260120	201209	71.980	12.187007	-56.117655	71.990	0.580	-0.470	-2.050	71.980	-1.800	-1.700																			1580069529.0	1.66	3.07
26/01/2020 20:12:10	26012020	260120	201210	71.970	12.187013	-56.117657	71.960	0.400	-0.530	-2.270	71.970	-1.900	-1.900																			1580069530.0	1.39	2.57
26/01/2020 20:12:11	26012020	260120	201211	71.820	12.187015	-56.117658	71.820	0.040	-0.370	-1.850	71.820	-1.700	-1.500																			1580069531.0	0.64	1.19
26/01/2020 20:12:12	26012020	260120	201212	71.590	12.187013	-56.117658	71.610	-0.320	-0.220	-0.880	71.590	-1.600	-0.500																			1580069532.0	0.37	0.69
26/01/2020 20:12:13	26012020	260120	201213	71.410	12.187008	-56.117657	71.470	-0.510	-0.160	0.300	71.410	-1.500	0.600																			1580069533.0	1.18	2.19
26/01/2020 20:12:14	26012020	260120	201214	71.390	12.187002	-56.117655	71.480	-0.490	-0.100	1.290	71.390	-1.400	1.600																			1580069534.0	1.61	2.98
26/01/2020 20:12:15	26012020	260120	201215	71.520	12.186995	-56.117652	71.640	-0.300	0.070	1.840	71.520	-1.300	2.200																			1580069535.0	1.57	2.91
26/01/2020 20:12:16	26012020	260120	201216	71.670	12.186990	-56.117650	71.780	-0.010	0.250	1.920	71.670	-1.100	2.200																			1580069536.0	1.08	2.00
26/01/2020 20:12:17	26012020	260120	201217	71.700	12.186988	-56.117650	71.780	0.270	0.280	1.610	71.700	-1.100	1.900																			1580069537.0	0.44	0.81
26/01/2020 20:12:18	26012020	260120	201218	71.590	12.186988	-56.117652	71.640	0.430	0.070	0.990	71.590	-1.300	1.300																			1580069538.0	0.34	0.63
26/01/2020 20:12:19	26012020	260120	201219	71.440	12.186993	-56.117652	71.480	0.410	-0.280	0.150	71.440	-1.600	0.500																			1580069539.0	1.02	1.89
26/01/2020 20:12:20	26012020	260120	201220	71.350	12.187000	-56.117653	71.360	0.230	-0.570	-0.700	71.350	-1.900	-0.400																			1580069540.0	1.44	2.67
26/01/2020 20:12:21	26012020	260120	201221	71.280	12.187007	-56.117655	71.290	-0.030	-0.610	-1.270	71.280	-2.000	-0.900																			1580069541.0	1.36	2.52
26/01/2020 20:12:22	26012020	260120	201222	71.180	12.187010	-56.117657	71.190	-0.240	-0.450	-1.420	71.180	-1.800	-1.100																			1580069542.0	0.83	1.54
26/01/2020 20:12:23	26012020	260120	201223	71.080	12.187010	-56.117657	71.110	-0.290	-0.290	-1.260	71.080	-1.600	-0.900																			1580069543.0	0.17	0.31
26/01/2020 20:12:24	26012020	260120	201224	70.980	12.187008	-56.117657	71.030	-0.220	-0.130	-0.950	70.980	-1.500	-0.600																			1580069544.0	0.53	0.98
26/01/2020 20:12:25	26012020	260120	201225	70.920	12.187005	-56.117655	70.980	-0.130	0.140	-0.590	70.920	-1.200	-0.300																			1580069545.0	0.75	1.39
26/01/2020 20:12:26	26012020	260120	201226	70.930	12.187002	-56.117655	71.000	-0.090	0.460	-0.280	70.930	-0.900	0.100																			1580069546.0	0.63	1.17
26/01/2020 20:12:27	26012020	260120	201227	71.040	12.187000	-56.117655	71.120	-0.100	0.640	-0.130	71.040	-0.700	0.200																			1580069547.0	0.48	0.89
26/01/2020 20:12:28	26012020	260120	201228	71.190	12.186998	-56.117657	71.270	-0.070	0.450	-0.090	71.190	-0.900	0.200																			1580069548.0	0.38	0.70
26/01/2020 20:12:29	26012020	260120	201229	71.300	12.187000	-56.117658	71.370	0.100	-0.160	-0.020	71.310	-1.500	0.300																			1580069549.0	0.20	0.37
26/01/2020 20:12:30	26012020	260120	201230	71.260	12.187000	-56.117657	71.310	0.310	-0.860	0.260	71.260	-2.200	0.600																			1580069550.0	0.27	0.50
26/01/2020 20:12:31	26012020	260120	201231	70.970	12.186998	-56.117653	71.020	0.380	-1.130	0.700	70.970	-2.500	1.000																			1580069551.0	0.60	1.11
26/01/2020 20:12:32	26012020	260120	201232	70.600	12.186997	-56.117652	70.640	0.240	-0.780	1.010	70.600	-2.100	1.300																			1580069552.0	0.52	0.96
26/01/2020 20:12:33	26012020	260120	201233	70.330	12.186995	-56.117653	70.400	-0.000	-0.180	0.930	70.330	-1.500	1.300																			1580069553.0	0.38	0.70
26/01/2020 20:12:34	26012020	260120	201234	70.260	12.186995	-56.117655	70.340	-0.140	0.160	0.530	70.260	-1.200	0.900																			1580069554.0	0.44	0.81
26/01/2020 20:12:35	26012020	260120	201235	70.400	12.186997	-56.117657	70.480	-0.070	0.100	-0.070	70.400	-1.300	0.300																			1580069555.0	0.47	0.87
26/01/2020 20:12:36	26012020	260120	201236	70.700	12.187000	-56.117655	70.780	0.040	-0.020	-0.740	70.700	-1.400	-0.400																			1580069556.0	0.73	1.35
26/01/2020 20:12:37	26012020	260120	201237	70.930	12.187003	-56.117655	70.990	-0.010	0.200	-1.220	70.930	-1.200	-0.900																			1580069557.0	0.71	1.31
26/01/2020 20:12:38	26012020	260120	201238	70.930	12.187005	-56.117655	70.960	-0.260	0.690	-1.300	70.930	-0.700	-1.000																			1580069558.0	0.32	0.59
26/01/2020 20:12:39	26012020	260120	201239	70.730	12.187003	-56.117658	70.750	-0.480	0.910	-1.000	70.730	-0.500	-0.700																			1580069559.0	0.59	1.09
26/01/2020 20:12:40	26012020	260120	201240	70.520	12.187002	-56.117660	70.560	-0.440	0.400	-0.510	70.520	-1.000	-0.200																			1580069560.0	0.61	1.13
26/01/2020 20:12:41	26012020	260120	201241	70.450	12.187000	-56.117658	70.510	-0.110	-0.670	-0.070	70.440	-2.000	0.300																			1580069561.0	0.36	0.67
26/01/2020 20:12:42	26012020	260120	201242	70.430	12.187000	-56.117655	70.500	0.270	-1.510	0.360	70.430	-2.900	0.700																			1580069562.0	0.82	1.52
26/01/2020 20:12:43	26012020	260120	201243	70.310	12.187000	-56.117652	70.380	0.410	-1.440	0.890	70.310	-2.800	1.200																			1580069563.0	0.83	1.54
26/01/2020 20:12:44	26012020	260120	201244	70.090	12.186997	-56.117650	70.170	0.290	-0.670	1.370	70.090	-2.000	1.700																			1580069564.0	0.66	1.22
26/01/2020 20:12:45	26012020	260120	201245	69.870	12.186993	-56.117652	69.950	0.110	0.110	1.460	69.870	-1.200	1.800																			1580069565.0	0.84	1.56
26/01/2020 20:12:46	26012020	260120	201246	69.810	12.186992	-56.117653	69.900	0.080	0.420	1.030	69.810	-0.900	1.400																			1580069566.0	0.49	0.91
26/01/2020 20:12:47	26012020	260120	201247	69.930	12.186993	-56.117653	70.020	0.180	0.330	0.210	69.930	-1.000	0.500																			1580069567.0	0.48	0.89
26/01/2020 20:12:48	26012020	260120	201248	70.160	12.186998	-56.117653	70.240	0.250	0.250	-0.750	70.160	-1.100	-0.400																			1580069568.0	1.09	2.02
26/01/2020 20:12:49	26012020	260120	201249	70.410	12.187005	-56.117653	70.480	0.170	0.280	-1.600	70.410	-1.100	-1.300																			1580069569.0	1.27	2.35
26/01/2020 20:12:50	26012020	260120	201250	70.640	12.187010	-56.117655	70.710	-0.030	0.270	-2.110	70.640	-1.100	-1.800																			1580069570.0	1.17	2.17
26/01/2020 20:12:51	26012020	260120	201251	70.810	12.187013	-56.117657	70.870	-0.240	0.080	-2.040	70.810	-1.300	-1.700																			1580069571.0	0.76	1.41
26/01/2020 20:12:52	26012020	260120	201252	70.800	12.187013	-56.117657	70.840	-0.400	-0.210	-1.300	70.800	-1.600	-0.900																			1580069572.0	0.02	0.04
26/01/2020 20:12:53	26012020	260120	201253	70.620	12.187008	-56.117655	70.610	-0.490	-0.390	-0.090	70.560	-1.800	0.300																			1580069573.0	0.92	1.70
26/01/2020 20:12:54	26012020	260120	201254	70.260	12.187002	-56.117653	70.340	-0.470	-0.460	1.150	70.260	-1.800	1.500																			1580069574.0	1.56	2.89
26/01/2020 20:12:55	26012020	260120	201255	70.090	12.186995	-56.117652	70.190	-0.280	-0.540	2.010	70.080	-1.900	2.300																			1580069575.0	1.66	3.07
26/01/2020 20:12:56	26012020	260120	201256	70.100	12.186990	-56.117648	70.220	0.040	-0.590	2.310	70.100	-2.000	2.600																			1580069576.0	1.23	2.28
26/01/2020 20:12:57	26012020	260120	201257	70.300	12.186988	-56.117647	70.430	0.340	-0.420	1.990	70.300	-1.800	2.300																			1580069577.0	0.55	1.02
26/01/2020 20:12:58	26012020	260120	201258	70.580	12.186988	-56.117648	70.700	0.500	-0.040	1.140	70.580	-1.400	1.500																			1580069578.0	0.33	0.61
26/01/2020 20:12:59	26012020	260120	201259	70.810	12.186993	-56.117650	70.900	0.500	0.300	0.070	70.810	-1.100	0.400	1013.90	26.20	26.20	21.10	21.10	171.00	73.00	73.00	390.00	27.60	358.00	3.20	68.00	2.90	13878	3544.00	27.80	27.80	1580069579.0	1.11	2.06
26/01/2020 20:13:00	26012020	260120	201300	70.950	12.187000	-56.117653	71.010	0.390	0.370	-0.890	70.950	-1.000	-0.500																			1580069580.0	1.52	2.82
26/01/2020 20:13:01	26012020	260120	201301	70.960	12.187007	-56.117657	70.990	0.250	0.160	-1.510	70.960	-1.200	-1.200																			1580069581.0	1.47	2.72
26/01/2020 20:13:02	26012020	260120	201302	70.870	12.187012	-56.117657	70.890	0.110	-0.220	-1.660	70.870	-1.600	-1.300																			1580069582.0	1.09	2.02
26/01/2020 20:13:03	26012020	260120	201303	70.720	12.187013	-56.117657	70.750	-0.070	-0.530	-1.350	70.720	-1.900	-1.000																			1580069583.0	0.52	0.96
26/01/2020 20:13:04	26012020	260120	201304	70.520	12.187012	-56.117655	70.560	-0.340	-0.540	-0.650	70.520	-1.900	-0.300																			1580069584.0	0.44	0.81
26/01/2020 20:13:05	26012020	260120	201305	70.370	12.187008	-56.117653	70.440	-0.600	-0.210	0.150	70.370	-1.600	0.500																			1580069585.0	0.96	1.78
26/01/2020 20:13:06	26012020	260120	201306	70.450	12.187002	-56.117653	70.560	-0.670	0.190	0.680	70.450	-1.200	1.000																			1580069586.0	1.26	2.33
26/01/2020 20:13:07	26012020	260120	201307	70.660	12.186998	-56.117653	70.820	-0.480	0.430	0.840	70.720	-0.900	1.200																			1580069587.0	1.06	1.96
26/01/2020 20:13:08	26012020	260120	201308	70.930	12.186995	-56.117653	71.010	-0.140	0.430	0.780	70.930	-0.900	1.100																			1580069588.0	0.56	1.04
26/01/2020 20:13:09	26012020	260120	201309	70.970	12.186995	-56.117653	71.040	0.160	0.190	0.570	70.970	-1.200	0.900																			1580069589.0	0.14	0.26
26/01/2020 20:13:10	26012020	260120	201310	70.960	12.186997	-56.117655	71.020	0.370	-0.290	0.190	70.960	-1.700	0.500																			1580069590.0	0.51	0.94
26/01/2020 20:13:11	26012020	260120	201311	70.970	12.187002	-56.117655	71.020	0.550	-0.830	-0.230	70.970	-2.200	0.100																			1580069591.0	0.86	1.59
26/01/2020 20:13:12	26012020	260120	201312	70.910	12.187005	-56.117655	70.960	0.650	-1.130	-0.430	70.910	-2.500	-0.100																			1580069592.0	0.91	1.69
26/01/2020 20:13:13	26012020	260120	201313	70.770	12.187008	-56.117653	70.820	0.550	-0.940	-0.350	70.770	-2.300	-0.000																			1580069593.0	0.61	1.13
26/01/2020 20:13:14	26012020	260120	201314	70.690	12.187008	-56.117653	70.750	0.200	-0.290	-0.180	70.690	-1.700	0.200																			1580069594.0	0.14	0.26
26/01/2020 20:13:15	26012020	260120	201315	70.720	12.187007	-56.117655	70.790	-0.300	0.540	-0.030	70.720	-0.800	0.300																			1580069595.0	0.35	0.65
26/01/2020 20:13:16	26012020	260120	201316	70.810	12.187005	-56.117657	70.890	-0.730	1.130	0.090	70.810	-0.200	0.400																			1580069596.0	0.64	1.19
26/01/2020 20:13:17	26012020	260120	201317	70.910	12.187003	-56.117658	70.980	-0.850	1.080	0.180	70.910	-0.300	0.500																			1580069597.0	0.62	1.15
26/01/2020 20:13:18	26012020	260120	201318	71.040	12.187002	-56.117658	71.130	-0.580	0.330	0.170	71.040	-1.000	0.500																			1580069598.0	0.26	0.48
26/01/2020 20:13:19	26012020	260120	201319	71.200	12.187002	-56.117657	71.330	-0.060	-0.650	0.060	71.240	-2.000	0.400																			1580069599.0	0.54	1.00
26/01/2020 20:13:20	26012020	260120	201320	71.380	12.187003	-56.117653	71.450	0.410	-1.160	0.020	71.380	-2.500	0.300																			1580069600.0	0.77	1.43
26/01/2020 20:13:21	26012020	260120	201321	71.390	12.187005	-56.117652	71.450	0.570	-0.920	0.070	71.390	-2.300	0.400																			1580069601.0	0.39	0.72
26/01/2020 20:13:22	26012020	260120	201322	71.280	12.187003	-56.117652	71.330	0.420	-0.250	0.170	71.280	-1.600	0.500																			1580069602.0	0.26	0.48
26/01/2020 20:13:23	26012020	260120	201323	71.100	12.187003	-56.117655	71.160	0.160	0.280	0.230	71.100	-1.100	0.600																			1580069603.0	0.62	1.15
26/01/2020 20:13:24	26012020	260120	201324	71.010	12.187005	-56.117658	71.070	0.000	0.340	0.140	71.010	-1.000	0.500																			1580069604.0	0.55	1.02
26/01/2020 20:13:25	26012020	260120	201325	71.110	12.187008	-56.117658	71.200	0.030	-0.020	-0.110	71.110	-1.400	0.200																			1580069605.0	0.60	1.11
26/01/2020 20:13:26	26012020	260120	201326	71.420	12.187012	-56.117657	71.510	0.140	-0.460	-0.400	71.420	-1.800	-0.100																			1580069606.0	0.85	1.57
26/01/2020 20:13:27	26012020	260120	201327	71.810	12.187015	-56.117655	71.880	0.140	-0.560	-0.470	71.810	-1.900	-0.100																			1580069607.0	0.75	1.39
26/01/2020 20:13:28	26012020	260120	201328	72.050	12.187013	-56.117653	72.100	-0.060	-0.200	-0.190	72.050	-1.600	0.200																			1580069608.0	0.37	0.69
26/01/2020 20:13:29	26012020	260120	201329	72.000	12.187012	-56.117652	72.030	-0.390	0.380	0.310	72.000	-1.000	0.600																			1580069609.0	0.69	1.28
26/01/2020 20:13:30	26012020	260120	201330	71.790	12.187007	-56.117653	71.800	-0.620	0.700	0.760	71.790	-0.700	1.100																			1580069610.0	0.95	1.76
26/01/2020 20:13:31	26012020	260120	201331	71.610	12.187003	-56.117653	71.610	-0.580	0.460	0.940	71.590	-0.900	1.300																			1580069611.0	0.66	1.22
26/01/2020 20:13:32	26012020	260120	201332	71.540	12.187003	-56.117652	71.580	-0.250	-0.160	0.720	71.540	-1.500	1.100																			1580069612.0	0.25	0.46
26/01/2020 20:13:33	26012020	260120	201333	71.760	12.187007	-56.117650	71.810	0.220	-0.740	0.120	71.760	-2.100	0.500																			1580069613.0	0.78	1.44
26/01/2020 20:13:34	26012020	260120	201334	72.220	12.187012	-56.117650	72.250	0.630	-0.940	-0.610	72.220	-2.300	-0.300																			1580069614.0	1.16	2.15
26/01/2020 20:13:35	26012020	260120	201335	72.590	12.187017	-56.117650	72.610	0.760	-0.620	-1.090	72.590	-2.000	-0.800																			1580069615.0	1.15	2.13
26/01/2020 20:13:36	26012020	260120	201336	72.680	12.187022	-56.117652	72.670	0.570	-0.040	-1.090	72.680	-1.400	-0.800																			1580069616.0	0.82	1.52
26/01/2020 20:13:37	26012020	260120	201337	72.560	12.187022	-56.117653	72.540	0.210	0.340	-0.710	72.560	-1.000	-0.400																			1580069617.0	0.48	0.89
26/01/2020 20:13:38	26012020	260120	201338	72.400	12.187022	-56.117653	72.410	-0.090	0.210	-0.110	72.400	-1.200	0.200																			1580069618.0	0.15	0.28
26/01/2020 20:13:39	26012020	260120	201339	72.360	12.187020	-56.117650	72.390	-0.270	-0.220	0.530	72.360	-1.600	0.900																			1580069619.0	0.63	1.17
26/01/2020 20:13:40	26012020	260120	201340	72.500	12.187018	-56.117647	72.550	-0.370	-0.400	1.040	72.500	-1.800	1.400																			1580069620.0	1.02	1.89
26/01/2020 20:13:41	26012020	260120	201341	72.720	12.187015	-56.117643	72.790	-0.480	-0.090	1.300	72.720	-1.400	1.600																			1580069621.0	0.89	1.65
26/01/2020 20:13:42	26012020	260120	201342	72.930	12.187013	-56.117643	73.000	-0.530	0.380	1.190	72.930	-1.000	1.500																			1580069622.0	0.58	1.07
26/01/2020 20:13:43	26012020	260120	201343	73.090	12.187012	-56.117643	73.180	-0.400	0.490	0.770	73.130	-0.900	1.100																			1580069623.0	0.37	0.69
26/01/2020 20:13:44	26012020	260120	201344	73.310	12.187013	-56.117645	73.340	-0.040	0.110	0.190	73.310	-1.300	0.500																			1580069624.0	0.36	0.67
26/01/2020 20:13:45	26012020	260120	201345	73.410	12.187018	-56.117643	73.450	0.390	-0.380	-0.380	73.430	-1.700	-0.000																			1580069625.0	0.92	1.70
26/01/2020 20:13:46	26012020	260120	201346	73.490	12.187023	-56.117642	73.490	0.610	-0.590	-0.880	73.490	-1.900	-0.500																			1580069626.0	1.20	2.22
26/01/2020 20:13:47	26012020	260120	201347	73.520	12.187028	-56.117642	73.510	0.510	-0.530	-1.220	73.520	-1.900	-0.900																			1580069627.0	1.19	2.20
26/01/2020 20:13:48	26012020	260120	201348	73.590	12.187033	-56.117643	73.600	0.230	-0.460	-1.280	73.590	-1.800	-0.900																			1580069628.0	1.04	1.93
26/01/2020 20:13:49	26012020	260120	201349	73.780	12.187037	-56.117642	73.820	-0.000	-0.430	-1.000	73.780	-1.800	-0.700																			1580069629.0	0.63	1.17
26/01/2020 20:13:50	26012020	260120	201350	73.990	12.187037	-56.117640	74.060	-0.130	-0.230	-0.410	73.990	-1.600	-0.100																			1580069630.0	0.43	0.80
26/01/2020 20:13:51	26012020	260120	201351	74.150	12.187033	-56.117638	74.230	-0.190	0.140	0.340	74.150	-1.200	0.700																			1580069631.0	0.82	1.52
26/01/2020 20:13:52	26012020	260120	201352	74.310	12.187028	-56.117637	74.410	-0.190	0.380	0.980	74.310	-1.000	1.300																			1580069632.0	1.05	1.94
26/01/2020 20:13:53	26012020	260120	201353	74.530	12.187025	-56.117633	74.660	-0.110	0.340	1.290	74.530	-1.000	1.600																			1580069633.0	0.93	1.72
26/01/2020 20:13:54	26012020	260120	201354	74.780	12.187023	-56.117632	74.920	-0.030	0.150	1.250	74.780	-1.200	1.600																			1580069634.0	0.64	1.19
26/01/2020 20:13:55	26012020	260120	201355	74.950	12.187025	-56.117628	75.070	-0.020	-0.030	0.990	74.950	-1.400	1.300																			1580069635.0	0.52	0.96
26/01/2020 20:13:56	26012020	260120	201356	75.020	12.187027	-56.117628	75.110	-0.120	-0.090	0.600	75.020	-1.400	0.900																			1580069636.0	0.65	1.20
26/01/2020 20:13:57	26012020	260120	201357	75.060	12.187032	-56.117628	75.150	-0.210	-0.070	0.050	75.060	-1.400	0.400																			1580069637.0	0.87	1.61
26/01/2020 20:13:58	26012020	260120	201358	75.230	12.187037	-56.117628	75.320	-0.160	-0.180	-0.600	75.230	-1.500	-0.300																			1580069638.0	1.06	1.96
26/01/2020 20:13:59	26012020	260120	201359	75.500	12.187042	-56.117628	75.570	0.020	-0.490	-1.110	75.500	-1.800	-0.800	1013.80	26.20	26.30	21.10	21.20	170.00	73.00	73.00	390.00	27.50	349.00	3.30	60.00	3.00	13769	3581.00	27.70	27.70	1580069639.0	1.07	1.98
26/01/2020 20:14:00	26012020	260120	201400	75.800	12.187045	-56.117627	75.850	0.210	-0.730	-1.330	75.800	-2.100	-1.000																			1580069640.0	0.95	1.76
26/01/2020 20:14:01	26012020	260120	201401	76.030	12.187048	-56.117625	76.070	0.260	-0.620	-1.240	76.030	-2.000	-0.900																			1580069641.0	0.76	1.41
26/01/2020 20:14:02	26012020	260120	201402	76.150	12.187048	-56.117623	76.180	0.200	-0.230	-0.880	76.150	-1.600	-0.500																			1580069642.0	0.38	0.70
26/01/2020 20:14:03	26012020	260120	201403	76.210	12.187048	-56.117622	76.260	0.150	0.090	-0.340	76.210	-1.300	0.000																			1580069643.0	0.25	0.46
26/01/2020 20:14:04	26012020	260120	201404	76.310	12.187047	-56.117620	76.390	0.120	0.180	0.290	76.310	-1.200	0.600																			1580069644.0	0.49	0.91
26/01/2020 20:14:05	26012020	260120	201405	76.510	12.187045	-56.117617	76.640	0.010	0.190	0.880	76.510	-1.200	1.200																			1580069645.0	0.76	1.41
26/01/2020 20:14:06	26012020	260120	201406	76.780	12.187043	-56.117613	76.920	-0.190	0.250	1.220	76.780	-1.100	1.500																			1580069646.0	0.78	1.44
26/01/2020 20:14:07	26012020	260120	201407	76.970	12.187042	-56.117612	77.150	-0.350	0.300	1.210	77.010	-1.100	1.500																			1580069647.0	0.48	0.89
26/01/2020 20:14:08	26012020	260120	201408	77.220	12.187042	-56.117610	77.350	-0.280	0.120	0.940	77.220	-1.300	1.300																			1580069648.0	0.25	0.46
26/01/2020 20:14:09	26012020	260120	201409	77.440	12.187045	-56.117610	77.580	0.030	-0.340	0.500	77.440	-1.700	0.800																			1580069649.0	0.63	1.17
26/01/2020 20:14:10	26012020	260120	201410	77.740	12.187048	-56.117607	77.860	0.320	-0.720	-0.020	77.740	-2.100	0.300																			1580069650.0	1.07	1.98
26/01/2020 20:14:11	26012020	260120	201411	78.030	12.187053	-56.117603	78.150	0.330	-0.600	-0.460	78.030	-2.000	-0.100																			1580069651.0	1.16	2.15
26/01/2020 20:14:12	26012020	260120	201412	78.240	12.187057	-56.117603	78.330	0.030	-0.040	-0.730	78.240	-1.400	-0.400																			1580069652.0	0.83	1.54
26/01/2020 20:14:13	26012020	260120	201413	78.330	12.187060	-56.117603	78.400	-0.330	0.450	-0.800	78.330	-0.900	-0.500																			1580069653.0	0.57	1.06
26/01/2020 20:14:14	26012020	260120	201414	78.370	12.187062	-56.117605	78.450	-0.480	0.380	-0.690	78.370	-1.000	-0.400																			1580069654.0	0.36	0.67
26/01/2020 20:14:15	26012020	260120	201415	78.430	12.187062	-56.117603	78.500	-0.310	-0.200	-0.400	78.430	-1.600	-0.100																			1580069655.0	0.49	0.91
26/01/2020 20:14:16	26012020	260120	201416	78.600	12.187063	-56.117598	78.690	0.010	-0.810	-0.110	78.600	-2.200	0.200																			1580069656.0	1.05	1.94
26/01/2020 20:14:17	26012020	260120	201417	78.940	12.187063	-56.117592	79.060	0.260	-0.980	0.040	78.940	-2.300	0.400																			1580069657.0	1.17	2.17
26/01/2020 20:14:18	26012020	260120	201418	79.390	12.187063	-56.117588	79.520	0.340	-0.590	0.110	79.390	-1.900	0.400																			1580069658.0	0.83	1.54
26/01/2020 20:14:19	26012020	260120	201419	79.760	12.187063	-56.117587	79.880	0.250	0.160	0.280	79.760	-1.200	0.600																			1580069659.0	0.36	0.67
26/01/2020 20:14:20	26012020	260120	201420	80.000	12.187063	-56.117587	80.100	0.080	0.800	0.450	80.000	-0.600	0.800																			1580069660.0	0.14	0.26
26/01/2020 20:14:21	26012020	260120	201421	80.160	12.187063	-56.117587	80.280	-0.070	0.930	0.490	80.200	-0.400	0.800																			1580069661.0	0.04	0.07
26/01/2020 20:14:22	26012020	260120	201422	80.410	12.187065	-56.117585	80.500	-0.120	0.490	0.360	80.410	-0.900	0.700																			1580069662.0	0.43	0.80
26/01/2020 20:14:23	26012020	260120	201423	80.650	12.187067	-56.117582	80.720	-0.090	-0.190	0.150	80.650	-1.600	0.500																			1580069663.0	0.95	1.76
26/01/2020 20:14:24	26012020	260120	201424	80.830	12.187072	-56.117578	80.880	-0.070	-0.690	-0.000	80.830	-2.000	0.300																			1580069664.0	1.17	2.17
26/01/2020 20:14:25	26012020	260120	201425	81.000	12.187075	-56.117575	81.060	-0.120	-0.840	-0.080	81.000	-2.200	0.300																			1580069665.0	0.99	1.83
26/01/2020 20:14:26	26012020	260120	201426	81.230	12.187077	-56.117573	81.310	-0.170	-0.710	-0.090	81.230	-2.100	0.200																			1580069666.0	0.65	1.20
26/01/2020 20:14:27	26012020	260120	201427	81.500	12.187077	-56.117572	81.570	-0.170	-0.440	0.020	81.500	-1.800	0.400																			1580069667.0	0.40	0.74
26/01/2020 20:14:28	26012020	260120	201428	81.760	12.187077	-56.117568	81.830	-0.090	-0.150	0.170	81.760	-1.500	0.500																			1580069668.0	0.44	0.81
26/01/2020 20:14:29	26012020	260120	201429	82.040	12.187075	-56.117567	82.100	0.030	0.030	0.210	82.040	-1.300	0.500																			1580069669.0	0.58	1.07
26/01/2020 20:14:30	26012020	260120	201430	82.290	12.187075	-56.117563	82.340	0.120	0.130	0.140	82.290	-1.200	0.500																			1580069670.0	0.65	1.20
26/01/2020 20:14:31	26012020	260120	201431	82.500	12.187077	-56.117560	82.560	0.090	0.230	-0.060	82.500	-1.100	0.300																			1580069671.0	0.76	1.41
26/01/2020 20:14:32	26012020	260120	201432	82.810	12.187080	-56.117558	82.870	-0.000	0.350	-0.360	82.810	-1.000	-0.000																			1580069672.0	0.85	1.57
26/01/2020 20:14:33	26012020	260120	201433	83.160	12.187083	-56.117557	83.310	-0.040	0.360	-0.630	83.240	-1.000	-0.300																			1580069673.0	0.88	1.63
26/01/2020 20:14:34	26012020	260120	201434	83.700	12.187087	-56.117555	83.760	0.090	0.050	-0.740	83.700	-1.300	-0.400																			1580069674.0	0.83	1.54
26/01/2020 20:14:35	26012020	260120	201435	84.010	12.187090	-56.117552	84.120	0.320	-0.500	-0.610	84.080	-1.900	-0.300																			1580069675.0	0.87	1.61
26/01/2020 20:14:36	26012020	260120	201436	84.260	12.187092	-56.117547	84.290	0.430	-0.860	-0.200	84.260	-2.200	0.100																			1580069676.0	1.06	1.96
26/01/2020 20:14:37	26012020	260120	201437	84.300	12.187090	-56.117542	84.330	0.210	-0.690	0.420	84.300	-2.000	0.800																			1580069677.0	1.00	1.85
26/01/2020 20:14:38	26012020	260120	201438	84.370	12.187088	-56.117538	84.420	-0.260	-0.090	0.980	84.370	-1.500	1.300																			1580069678.0	0.72	1.33
26/01/2020 20:14:39	26012020	260120	201439	84.600	12.187087	-56.117538	84.660	-0.680	0.470	1.250	84.600	-0.900	1.600																			1580069679.0	0.53	0.98
26/01/2020 20:14:40	26012020	260120	201440	84.970	12.187085	-56.117538	85.040	-0.750	0.560	1.140	84.970	-0.800	1.500																			1580069680.0	0.30	0.56
26/01/2020 20:14:41	26012020	260120	201441	85.440	12.187085	-56.117537	85.520	-0.420	0.060	0.700	85.440	-1.300	1.000																			1580069681.0	0.51	0.94
26/01/2020 20:14:42	26012020	260120	201442	85.880	12.187087	-56.117530	85.940	0.090	-0.610	0.150	85.880	-2.000	0.500																			1580069682.0	1.19	2.20
26/01/2020 20:14:43	26012020	260120	201443	86.230	12.187090	-56.117525	86.270	0.480	-0.870	-0.340	86.230	-2.200	-0.000																			1580069683.0	1.50	2.78
26/01/2020 20:14:44	26012020	260120	201444	86.510	12.187093	-56.117520	86.540	0.580	-0.510	-0.710	86.510	-1.900	-0.400																			1580069684.0	1.23	2.28
26/01/2020 20:14:45	26012020	260120	201445	86.790	12.187097	-56.117518	86.810	0.450	0.130	-0.930	86.790	-1.200	-0.600																			1580069685.0	0.79	1.46
26/01/2020 20:14:46	26012020	260120	201446	87.080	12.187100	-56.117517	87.100	0.230	0.550	-1.020	87.080	-0.800	-0.700																			1580069686.0	0.70	1.30
26/01/2020 20:14:47	26012020	260120	201447	87.370	12.187103	-56.117515	87.410	0.030	0.540	-0.930	87.370	-0.800	-0.600																			1580069687.0	0.73	1.35
26/01/2020 20:14:48	26012020	260120	201448	87.680	12.187105	-56.117513	87.720	-0.150	0.260	-0.620	87.680	-1.100	-0.300																			1580069688.0	0.79	1.46
26/01/2020 20:14:49	26012020	260120	201449	88.010	12.187105	-56.117508	88.070	-0.280	-0.130	-0.150	88.010	-1.500	0.200																			1580069689.0	0.85	1.57
26/01/2020 20:14:50	26012020	260120	201450	88.370	12.187103	-56.117505	88.440	-0.260	-0.570	0.380	88.370	-1.900	0.700																			1580069690.0	1.00	1.85
26/01/2020 20:14:51	26012020	260120	201451	88.720	12.187100	-56.117500	88.810	-0.090	-0.870	0.860	88.720	-2.200	1.200																			1580069691.0	1.19	2.20
26/01/2020 20:14:52	26012020	260120	201452	89.080	12.187098	-56.117493	89.180	0.090	-0.820	1.170	89.080	-2.200	1.500																			1580069692.0	1.19	2.20
26/01/2020 20:14:53	26012020	260120	201453	89.410	12.187097	-56.117490	89.510	0.090	-0.320	1.320	89.410	-1.700	1.600																			1580069693.0	0.92	1.70
26/01/2020 20:14:54	26012020	260120	201454	89.700	12.187097	-56.117488	89.800	-0.080	0.370	1.260	89.700	-1.000	1.600																			1580069694.0	0.49	0.91
26/01/2020 20:14:55	26012020	260120	201455	89.970	12.187097	-56.117487	90.070	-0.240	0.750	0.920	89.970	-0.600	1.200																			1580069695.0	0.23	0.43
26/01/2020 20:14:56	26012020	260120	201456	90.310	12.187098	-56.117485	90.420	-0.180	0.530	0.270	90.310	-0.800	0.600																			1580069696.0	0.58	1.07
26/01/2020 20:14:57	26012020	260120	201457	90.660	12.187102	-56.117480	90.840	0.080	-0.100	-0.600	90.750	-1.500	-0.300																			1580069697.0	1.31	2.43
26/01/2020 20:14:58	26012020	260120	201458	91.240	12.187107	-56.117473	91.310	0.320	-0.620	-1.430	91.240	-2.000	-1.100																			1580069698.0	1.85	3.43
26/01/2020 20:14:59	26012020	260120	201459	91.680	12.187113	-56.117467	91.720	0.350	-0.690	-1.870	91.680	-2.000	-1.500	1013.90	26.20	26.20	21.00	21.10	173.00	73.00	73.00	391.00	27.50	340.00	3.70	61.00	3.40	13734	3649.00	27.70	27.70	1580069699.0	1.82	3.37
26/01/2020 20:15:00	26012020	260120	201500	92.000	12.187117	-56.117463	92.030	0.210	-0.350	-1.750	92.000	-1.700	-1.400																			1580069700.0	1.19	2.20
26/01/2020 20:15:01	26012020	260120	201501	92.250	12.187118	-56.117460	92.280	0.090	-0.020	-1.210	92.250	-1.400	-0.900																			1580069701.0	0.51	0.94
26/01/2020 20:15:02	26012020	260120	201502	92.530	12.187117	-56.117458	92.590	0.060	0.020	-0.520	92.530	-1.300	-0.200																			1580069702.0	0.61	1.13
26/01/2020 20:15:03	26012020	260120	201503	92.920	12.187115	-56.117453	93.020	0.030	-0.090	0.210	92.920	-1.400	0.500																			1580069703.0	1.02	1.89
26/01/2020 20:15:04	26012020	260120	201504	93.310	12.187112	-56.117448	93.450	-0.140	-0.060	1.000	93.310	-1.400	1.300																			1580069704.0	1.25	2.31
26/01/2020 20:15:05	26012020	260120	201505	93.680	12.187108	-56.117445	93.830	-0.400	0.130	1.680	93.680	-1.200	2.000																			1580069705.0	1.23	2.28
26/01/2020 20:15:06	26012020	260120	201506	94.070	12.187103	-56.117442	94.240	-0.550	0.290	2.070	94.070	-1.100	2.400																			1580069706.0	1.19	2.20
26/01/2020 20:15:07	26012020	260120	201507	94.490	12.187098	-56.117438	94.660	-0.450	0.220	2.000	94.490	-1.100	2.300																			1580069707.0	1.09	2.02
26/01/2020 20:15:08	26012020	260120	201508	94.950	12.187097	-56.117435	95.100	-0.100	-0.060	1.400	94.950	-1.400	1.700																			1580069708.0	0.91	1.69
26/01/2020 20:15:09	26012020	260120	201509	95.400	12.187098	-56.117430	95.520	0.330	-0.480	0.380	95.400	-1.800	0.700																			1580069709.0	1.14	2.11
26/01/2020 20:15:10	26012020	260120	201510	95.780	12.187105	-56.117423	95.870	0.670	-0.790	-0.730	95.780	-2.100	-0.400																			1580069710.0	1.78	3.30
26/01/2020 20:15:11	26012020	260120	201511	96.080	12.187112	-56.117417	96.170	0.760	-0.820	-1.660	96.080	-2.200	-1.300																			1580069711.0	2.15	3.98
26/01/2020 20:15:12	26012020	260120	201512	96.350	12.187120	-56.117412	96.420	0.570	-0.510	-2.180	96.350	-1.900	-1.900																			1580069712.0	2.06	3.82
26/01/2020 20:15:13	26012020	260120	201513	96.660	12.187125	-56.117407	96.720	0.150	-0.030	-2.190	96.660	-1.400	-1.900																			1580069713.0	1.58	2.93
26/01/2020 20:15:14	26012020	260120	201514	97.040	12.187127	-56.117403	97.100	-0.340	0.400	-1.680	97.040	-1.000	-1.300																			1580069714.0	0.93	1.72
26/01/2020 20:15:15	26012020	260120	201515	97.440	12.187125	-56.117398	97.520	-0.710	0.590	-0.770	97.440	-0.800	-0.400																			1580069715.0	0.95	1.76
26/01/2020 20:15:16	26012020	260120	201516	97.900	12.187118	-56.117395	97.990	-0.780	0.530	0.270	97.900	-0.800	0.600																			1580069716.0	1.62	3.00
26/01/2020 20:15:17	26012020	260120	201517	98.470	12.187110	-56.117392	98.580	-0.560	0.330	1.120	98.470	-1.000	1.400																			1580069717.0	1.96	3.63
26/01/2020 20:15:18	26012020	260120	201518	99.110	12.187103	-56.117387	99.230	-0.180	0.020	1.570	99.110	-1.300	1.900																			1580069718.0	1.76	3.26
26/01/2020 20:15:19	26012020	260120	201519	99.660	12.187098	-56.117382	99.770	0.200	-0.330	1.590	99.660	-1.700	1.900																			1580069719.0	1.33	2.46
26/01/2020 20:15:20	26012020	260120	201520	99.990	12.187097	-56.117378	100.060	0.470	-0.610	1.330	99.990	-2.000	1.600																			1580069720.0	1.07	1.98
26/01/2020 20:15:21	26012020	260120	201521	100.110	12.187098	-56.117372	100.160	0.580	-0.700	0.920	100.110	-2.100	1.200																			1580069721.0	1.20	2.22
26/01/2020 20:15:22	26012020	260120	201522	100.300	12.187103	-56.117367	100.360	0.510	-0.570	0.310	100.300	-1.900	0.600																			1580069722.0	1.42	2.63
26/01/2020 20:15:23	26012020	260120	201523	100.580	12.187107	-56.117362	100.710	0.280	-0.360	-0.380	100.650	-1.700	-0.100																			1580069723.0	1.53	2.83
26/01/2020 20:15:24	26012020	260120	201524	101.040	12.187112	-56.117357	101.070	0.010	-0.210	-0.920	101.040	-1.600	-0.600																			1580069724.0	1.52	2.82
26/01/2020 20:15:25	26012020	260120	201525	101.340	12.187115	-56.117350	101.410	-0.170	-0.120	-1.230	101.410	-1.500	-0.900																			1580069725.0	1.42	2.63
26/01/2020 20:15:26	26012020	260120	201526	101.780	12.187115	-56.117343	101.790	-0.200	-0.020	-1.320	101.780	-1.400	-1.000																			1580069726.0	1.37	2.54
26/01/2020 20:15:27	26012020	260120	201527	102.230	12.187115	-56.117337	102.270	-0.150	0.160	-1.190	102.230	-1.200	-0.900																			1580069727.0	1.34	2.48
26/01/2020 20:15:28	26012020	260120	201528	102.830	12.187113	-56.117332	102.900	-0.160	0.410	-0.840	102.830	-0.900	-0.500																			1580069728.0	1.23	2.28
26/01/2020 20:15:29	26012020	260120	201529	103.520	12.187110	-56.117327	103.610	-0.290	0.560	-0.310	103.520	-0.800	0.000																			1580069729.0	1.11	2.06
26/01/2020 20:15:30	26012020	260120	201530	104.170	12.187105	-56.117323	104.270	-0.430	0.470	0.230	104.170	-0.900	0.500																			1580069730.0	1.20	2.22
26/01/2020 20:15:31	26012020	260120	201531	104.600	12.187100	-56.117320	104.690	-0.370	0.110	0.760	104.600	-1.200	1.100																			1580069731.0	1.32	2.44
26/01/2020 20:15:32	26012020	260120	201532	104.780	12.187095	-56.117317	104.880	-0.040	-0.420	1.200	104.780	-1.800	1.500																			1580069732.0	1.39	2.57
26/01/2020 20:15:33	26012020	260120	201533	104.880	12.187092	-56.117310	104.990	0.410	-0.900	1.390	104.880	-2.300	1.700																			1580069733.0	1.41	2.61
26/01/2020 20:15:34	26012020	260120	201534	105.100	12.187090	-56.117303	105.220	0.740	-1.070	1.220	105.100	-2.400	1.500																			1580069734.0	1.45	2.69
26/01/2020 20:15:35	26012020	260120	201535	105.550	12.187092	-56.117297	105.670	0.750	-0.750	0.690	105.550	-2.100	1.000																			1580069735.0	1.51	2.80
26/01/2020 20:15:36	26012020	260120	201536	106.160	12.187097	-56.117292	106.260	0.440	-0.190	-0.040	106.160	-1.500	0.300																			1580069736.0	1.54	2.85
26/01/2020 20:15:37	26012020	260120	201537	106.710	12.187100	-56.117285	106.780	-0.010	0.250	-0.620	106.710	-1.100	-0.300																			1580069737.0	1.49	2.76
26/01/2020 20:15:38	26012020	260120	201538	107.110	12.187102	-56.117280	107.160	-0.400	0.440	-0.790	107.110	-0.900	-0.500																			1580069738.0	1.29	2.39
26/01/2020 20:15:39	26012020	260120	201539	107.400	12.187102	-56.117275	107.460	-0.630	0.450	-0.640	107.400	-0.900	-0.300																			1580069739.0	1.22	2.26
26/01/2020 20:15:40	26012020	260120	201540	107.730	12.187098	-56.117268	107.800	-0.630	0.270	-0.410	107.730	-1.100	-0.100																			1580069740.0	1.31	2.43
26/01/2020 20:15:41	26012020	260120	201541	108.190	12.187093	-56.117263	108.280	-0.390	-0.110	-0.250	108.190	-1.500	0.100																			1580069741.0	1.44	2.67
26/01/2020 20:15:42	26012020	260120	201542	108.750	12.187090	-56.117257	108.850	-0.010	-0.520	-0.230	108.750	-1.900	0.100																			1580069742.0	1.61	2.98
26/01/2020 20:15:43	26012020	260120	201543	109.290	12.187087	-56.117250	109.370	0.280	-0.640	-0.240	109.290	-2.000	0.100																			1580069743.0	1.68	3.11
26/01/2020 20:15:44	26012020	260120	201544	109.740	12.187085	-56.117243	109.800	0.340	-0.240	-0.160	109.740	-1.600	0.200																			1580069744.0	1.43	2.65
26/01/2020 20:15:45	26012020	260120	201545	110.130	12.187083	-56.117238	110.200	0.190	0.400	-0.010	110.130	-0.900	0.300																			1580069745.0	0.90	1.67
26/01/2020 20:15:46	26012020	260120	201546	110.530	12.187083	-56.117237	110.600	-0.000	0.740	0.100	110.530	-0.600	0.400																			1580069746.0	0.55	1.02
26/01/2020 20:15:47	26012020	260120	201547	110.840	12.187083	-56.117233	110.960	-0.030	0.360	0.150	110.910	-1.000	0.500																			1580069747.0	0.76	1.41
26/01/2020 20:15:48	26012020	260120	201548	111.230	12.187082	-56.117227	111.260	0.140	-0.600	0.190	111.230	-2.000	0.500																			1580069748.0	1.45	2.69
26/01/2020 20:15:49	26012020	260120	201549	111.480	12.187080	-56.117217	111.520	0.340	-1.450	0.290	111.480	-2.800	0.600																			1580069749.0	2.13	3.94
26/01/2020 20:15:50	26012020	260120	201550	111.790	12.187075	-56.117207	111.850	0.300	-1.420	0.400	111.790	-2.800	0.700																			1580069750.0	2.20	4.07
26/01/2020 20:15:51	26012020	260120	201551	112.230	12.187073	-56.117200	112.300	-0.060	-0.430	0.450	112.230	-1.800	0.800																			1580069751.0	1.46	2.70
26/01/2020 20:15:52	26012020	260120	201552	112.760	12.187072	-56.117198	112.840	-0.510	0.800	0.340	112.760	-0.500	0.700																			1580069752.0	0.53	0.98
26/01/2020 20:15:53	26012020	260120	201553	113.300	12.187070	-56.117198	113.360	-0.690	1.330	0.050	113.300	-0.000	0.400																			1580069753.0	0.25	0.46
26/01/2020 20:15:54	26012020	260120	201554	113.780	12.187070	-56.117193	113.820	-0.400	0.830	-0.370	113.780	-0.500	-0.000																			1580069754.0	0.88	1.63
26/01/2020 20:15:55	26012020	260120	201555	114.240	12.187068	-56.117185	114.270	0.130	-0.160	-0.780	114.240	-1.500	-0.400																			1580069755.0	1.89	3.50
26/01/2020 20:15:56	26012020	260120	201556	114.760	12.187065	-56.117173	114.820	0.510	-0.760	-1.080	114.760	-2.100	-0.800																			1580069756.0	2.37	4.39
26/01/2020 20:15:57	26012020	260120	201557	115.380	12.187065	-56.117165	115.430	0.490	-0.570	-1.200	115.380	-1.900	-0.900																			1580069757.0	1.93	3.57
26/01/2020 20:15:58	26012020	260120	201558	115.980	12.187065	-56.117160	116.020	0.150	-0.060	-1.010	115.980	-1.400	-0.700																			1580069758.0	1.01	1.87
26/01/2020 20:15:59	26012020	260120	201559	116.360	12.187063	-56.117158	116.390	-0.150	0.110	-0.460	116.360	-1.200	-0.100	1013.90	26.20	26.30	21.00	21.10	170.00	73.00	73.00	392.00	27.50	325.00	3.70	62.00	3.20	13559	3489.00	27.80	27.70	1580069759.0	0.53	0.98
26/01/2020 20:16:00	26012020	260120	201600	116.550	12.187060	-56.117155	116.580	-0.190	-0.270	0.260	116.550	-1.600	0.600																			1580069760.0	1.11	2.06
26/01/2020 20:16:01	26012020	260120	201601	116.690	12.187052	-56.117150	116.780	-0.040	-0.740	0.950	116.730	-2.100	1.300																			1580069761.0	1.88	3.48
26/01/2020 20:16:02	26012020	260120	201602	117.030	12.187045	-56.117143	117.140	0.090	-0.780	1.480	117.030	-2.100	1.800																			1580069762.0	2.12	3.93
26/01/2020 20:16:03	26012020	260120	201603	117.520	12.187038	-56.117138	117.640	0.090	-0.280	1.580	117.520	-1.600	1.900																			1580069763.0	1.73	3.20
26/01/2020 20:16:04	26012020	260120	201604	118.170	12.187035	-56.117135	118.300	0.010	0.400	1.070	118.170	-0.900	1.400																			1580069764.0	1.08	2.00
26/01/2020 20:16:05	26012020	260120	201605	118.890	12.187035	-56.117130	119.000	-0.020	0.770	0.140	118.890	-0.600	0.500																			1580069765.0	1.01	1.87
26/01/2020 20:16:06	26012020	260120	201606	119.490	12.187038	-56.117123	119.550	0.010	0.630	-0.730	119.490	-0.700	-0.400																			1580069766.0	1.57	2.91
26/01/2020 20:16:07	26012020	260120	201607	119.900	12.187040	-56.117115	119.950	0.060	0.130	-1.190	119.900	-1.200	-0.900																			1580069767.0	1.87	3.46
26/01/2020 20:16:08	26012020	260120	201608	120.240	12.187038	-56.117105	120.270	0.110	-0.410	-1.280	120.240	-1.700	-1.000																			1580069768.0	1.85	3.43
26/01/2020 20:16:09	26012020	260120	201609	120.630	12.187035	-56.117098	120.640	0.170	-0.690	-1.170	120.630	-2.000	-0.900																			1580069769.0	1.72	3.19
26/01/2020 20:16:10	26012020	260120	201610	121.080	12.187032	-56.117092	121.090	0.180	-0.680	-0.980	121.080	-2.000	-0.700																			1580069770.0	1.53	2.83
26/01/2020 20:16:11	26012020	260120	201611	121.570	12.187028	-56.117087	121.580	0.050	-0.450	-0.620	121.570	-1.800	-0.300																			1580069771.0	1.30	2.41
26/01/2020 20:16:12	26012020	260120	201612	122.030	12.187023	-56.117083	122.050	-0.210	-0.180	0.030	122.030	-1.500	0.400																			1580069772.0	1.21	2.24
26/01/2020 20:16:13	26012020	260120	201613	122.320	12.187018	-56.117080	122.440	-0.410	-0.000	0.830	122.380	-1.400	1.100																			1580069773.0	1.44	2.67
26/01/2020 20:16:14	26012020	260120	201614	122.690	12.187010	-56.117078	122.760	-0.370	0.040	1.430	122.690	-1.300	1.700																			1580069774.0	1.80	3.33
26/01/2020 20:16:15	26012020	260120	201615	122.960	12.187002	-56.117075	123.120	-0.110	0.030	1.600	123.040	-1.300	1.900																			1580069775.0	1.83	3.39
26/01/2020 20:16:16	26012020	260120	201616	123.560	12.186997	-56.117070	123.650	0.170	0.050	1.300	123.560	-1.300	1.600																			1580069776.0	1.66	3.07
26/01/2020 20:16:17	26012020	260120	201617	124.260	12.186993	-56.117062	124.350	0.300	0.130	0.630	124.260	-1.200	0.900																			1580069777.0	1.56	2.89
26/01/2020 20:16:18	26012020	260120	201618	125.010	12.186993	-56.117055	125.090	0.280	0.190	-0.230	125.010	-1.200	0.100																			1580069778.0	1.57	2.91
26/01/2020 20:16:19	26012020	260120	201619	125.610	12.186993	-56.117047	125.660	0.240	0.090	-0.990	125.610	-1.300	-0.700																			1580069779.0	1.64	3.04
26/01/2020 20:16:20	26012020	260120	201620	125.980	12.186993	-56.117040	126.010	0.260	-0.230	-1.410	125.980	-1.600	-1.100																			1580069780.0	1.71	3.17
26/01/2020 20:16:21	26012020	260120	201621	126.230	12.186992	-56.117032	126.260	0.280	-0.600	-1.380	126.230	-1.900	-1.100																			1580069781.0	1.79	3.32
26/01/2020 20:16:22	26012020	260120	201622	126.510	12.186988	-56.117023	126.560	0.170	-0.700	-1.020	126.510	-2.000	-0.700																			1580069782.0	1.79	3.32
26/01/2020 20:16:23	26012020	260120	201623	126.910	12.186983	-56.117018	126.990	-0.090	-0.440	-0.470	126.910	-1.800	-0.200																			1580069783.0	1.61	2.98
26/01/2020 20:16:24	26012020	260120	201624	127.400	12.186977	-56.117015	127.500	-0.360	-0.040	0.100	127.400	-1.400	0.400																			1580069784.0	1.45	2.69
26/01/2020 20:16:25	26012020	260120	201625	127.920	12.186970	-56.117013	128.030	-0.530	0.220	0.640	127.920	-1.100	0.900																			1580069785.0	1.48	2.74
26/01/2020 20:16:26	26012020	260120	201626	128.430	12.186963	-56.117010	128.560	-0.520	0.260	1.070	128.430	-1.100	1.400																			1580069786.0	1.70	3.15
26/01/2020 20:16:27	26012020	260120	201627	128.960	12.186955	-56.117007	129.070	-0.360	0.220	1.250	128.960	-1.100	1.600																			1580069787.0	1.83	3.39
26/01/2020 20:16:28	26012020	260120	201628	129.500	12.186948	-56.117003	129.590	-0.100	0.170	1.150	129.500	-1.200	1.500																			1580069788.0	1.71	3.17
26/01/2020 20:16:29	26012020	260120	201629	129.990	12.186943	-56.116998	130.060	0.210	0.010	0.760	129.990	-1.300	1.100																			1580069789.0	1.54	2.85
26/01/2020 20:16:30	26012020	260120	201630	130.440	12.186940	-56.116992	130.470	0.500	-0.270	0.120	130.440	-1.600	0.400																			1580069790.0	1.61	2.98
26/01/2020 20:16:31	26012020	260120	201631	130.880	12.186937	-56.116982	130.900	0.690	-0.550	-0.610	130.880	-1.900	-0.300																			1580069791.0	1.93	3.57
26/01/2020 20:16:32	26012020	260120	201632	131.330	12.186937	-56.116972	131.360	0.680	-0.640	-1.190	131.330	-2.000	-0.900																			1580069792.0	2.14	3.96
26/01/2020 20:16:33	26012020	260120	201633	131.810	12.186935	-56.116963	131.850	0.400	-0.440	-1.460	131.810	-1.800	-1.100																			1580069793.0	2.00	3.70
26/01/2020 20:16:34	26012020	260120	201634	132.360	12.186932	-56.116957	132.430	-0.100	-0.020	-1.370	132.360	-1.400	-1.000																			1580069794.0	1.59	2.94
26/01/2020 20:16:35	26012020	260120	201635	132.920	12.186928	-56.116952	133.010	-0.600	0.350	-0.860	132.920	-1.000	-0.500																			1580069795.0	1.23	2.28
26/01/2020 20:16:36	26012020	260120	201636	133.400	12.186922	-56.116950	133.470	-0.860	0.370	-0.040	133.400	-1.000	0.300																			1580069796.0	1.50	2.78
26/01/2020 20:16:37	26012020	260120	201637	133.690	12.186912	-56.116948	133.840	-0.740	0.100	0.860	133.760	-1.300	1.200																			1580069797.0	2.17	4.02
26/01/2020 20:16:38	26012020	260120	201638	134.110	12.186900	-56.116948	134.200	-0.280	-0.220	1.470	134.110	-1.600	1.800																			1580069798.0	2.51	4.65
26/01/2020 20:16:39	26012020	260120	201639	134.440	12.186890	-56.116945	134.630	0.250	-0.360	1.590	134.520	-1.700	1.900																			1580069799.0	2.27	4.20
26/01/2020 20:16:40	26012020	260120	201640	134.990	12.186883	-56.116940	135.100	0.590	-0.390	1.250	134.990	-1.700	1.600																			1580069800.0	1.80	3.33
26/01/2020 20:16:41	26012020	260120	201641	135.500	12.186880	-56.116932	135.590	0.560	-0.320	0.610	135.500	-1.700	0.900																			1580069801.0	1.78	3.30
26/01/2020 20:16:42	26012020	260120	201642	136.070	12.186878	-56.116923	136.170	0.230	-0.080	-0.130	136.070	-1.400	0.200																			1580069802.0	1.88	3.48
26/01/2020 20:16:43	26012020	260120	201643	136.690	12.186877	-56.116915	136.770	-0.140	0.240	-0.740	136.690	-1.100	-0.400																			1580069803.0	1.65	3.06
26/01/2020 20:16:44	26012020	260120	201644	137.230	12.186873	-56.116910	137.280	-0.260	0.320	-1.070	137.230	-1.000	-0.800																			1580069804.0	1.36	2.52
26/01/2020 20:16:45	26012020	260120	201645	137.680	12.186868	-56.116905	137.740	-0.100	0.030	-1.150	137.680	-1.300	-0.800																			1580069805.0	1.52	2.82
26/01/2020 20:16:46	26012020	260120	201646	138.090	12.186862	-56.116898	138.160	0.150	-0.380	-1.030	138.090	-1.700	-0.700																			1580069806.0	1.93	3.57
26/01/2020 20:16:47	26012020	260120	201647	138.500	12.186853	-56.116893	138.590	0.250	-0.580	-0.760	138.500	-1.900	-0.500																			1580069807.0	2.10	3.89
26/01/2020 20:16:48	26012020	260120	201648	138.930	12.186847	-56.116888	139.050	0.080	-0.480	-0.370	138.930	-1.800	-0.100																			1580069808.0	1.90	3.52
26/01/2020 20:16:49	26012020	260120	201649	139.430	12.186840	-56.116885	139.580	-0.240	-0.210	0.110	139.430	-1.600	0.400																			1580069809.0	1.70	3.15
26/01/2020 20:16:50	26012020	260120	201650	139.980	12.186832	-56.116883	140.150	-0.460	0.060	0.560	139.980	-1.300	0.900																			1580069810.0	1.65	3.06
26/01/2020 20:16:51	26012020	260120	201651	140.540	12.186825	-56.116882	140.720	-0.440	0.210	0.790	140.540	-1.100	1.100																			1580069811.0	1.70	3.15
26/01/2020 20:16:52	26012020	260120	201652	141.020	12.186817	-56.116878	141.200	-0.220	0.200	0.840	141.020	-1.200	1.100																			1580069812.0	1.72	3.19
26/01/2020 20:16:53	26012020	260120	201653	141.320	12.186810	-56.116873	141.500	0.100	0.030	0.890	141.320	-1.300	1.200																			1580069813.0	1.80	3.33
26/01/2020 20:16:54	26012020	260120	201654	141.530	12.186802	-56.116868	141.700	0.380	-0.160	0.840	141.530	-1.500	1.200																			1580069814.0	1.95	3.61
26/01/2020 20:16:55	26012020	260120	201655	141.820	12.186795	-56.116862	142.010	0.530	-0.230	0.520	141.820	-1.600	0.800																			1580069815.0	1.98	3.67
26/01/2020 20:16:56	26012020	260120	201656	142.240	12.186790	-56.116855	142.430	0.490	-0.260	-0.030	142.240	-1.600	0.300																			1580069816.0	1.91	3.54
26/01/2020 20:16:57	26012020	260120	201657	142.750	12.186785	-56.116847	142.930	0.270	-0.240	-0.590	142.750	-1.600	-0.300																			1580069817.0	1.91	3.54
26/01/2020 20:16:58	26012020	260120	201658	143.380	12.186780	-56.116840	143.570	-0.070	-0.090	-1.010	143.380	-1.400	-0.700																			1580069818.0	1.81	3.35
26/01/2020 20:16:59	26012020	260120	201659	144.060	12.186775	-56.116835	144.260	-0.380	0.100	-1.180	144.060	-1.300	-0.900	1013.90	26.20	26.30	21.20	21.20	165.00	73.00	73.00	392.00	27.50	307.00	4.70	68.00	4.20	13341	4586.00	27.80	27.80	1580069819.0	1.56	2.89
26/01/2020 20:17:00	26012020	260120	201700	144.640	12.186768	-56.116832	144.830	-0.540	0.020	-1.070	144.640	-1.300	-0.800																			1580069820.0	1.48	2.74
26/01/2020 20:17:01	26012020	260120	201701	144.970	12.186762	-56.116828	145.160	-0.460	-0.380	-0.650	144.970	-1.700	-0.300																			1580069821.0	1.82	3.37
26/01/2020 20:17:02	26012020	260120	201702	145.120	12.186750	-56.116825	145.300	-0.220	-0.680	-0.060	145.120	-2.000	0.200																			1580069822.0	2.36	4.37
26/01/2020 20:17:03	26012020	260120	201703	145.250	12.186740	-56.116822	145.490	-0.010	-0.430	0.510	145.300	-1.800	0.800																			1580069823.0	2.50	4.63
26/01/2020 20:17:04	26012020	260120	201704	145.700	12.186730	-56.116820	145.880	0.090	0.270	0.800	145.700	-1.100	1.100																			1580069824.0	2.04	3.78
26/01/2020 20:17:05	26012020	260120	201705	146.200	12.186723	-56.116818	146.490	0.140	0.830	0.680	146.330	-0.500	1.000																			1580069825.0	1.41	2.61
26/01/2020 20:17:06	26012020	260120	201706	146.940	12.186718	-56.116815	147.050	0.240	0.680	0.290	146.940	-0.700	0.600																			1580069826.0	1.25	2.31
26/01/2020 20:17:07	26012020	260120	201707	147.340	12.186713	-56.116808	147.410	0.410	-0.160	-0.130	147.340	-1.500	0.200																			1580069827.0	1.90	3.52
26/01/2020 20:17:08	26012020	260120	201708	147.550	12.186703	-56.116800	147.600	0.490	-1.080	-0.330	147.550	-2.400	-0.000																			1580069828.0	2.60	4.82
26/01/2020 20:17:09	26012020	260120	201709	147.720	12.186695	-56.116792	147.770	0.310	-1.400	-0.250	147.720	-2.700	0.100																			1580069829.0	2.72	5.04
26/01/2020 20:17:10	26012020	260120	201710	148.050	12.186685	-56.116787	148.140	-0.100	-0.890	-0.100	148.050	-2.200	0.200																			1580069830.0	2.26	4.19
26/01/2020 20:17:11	26012020	260120	201711	148.640	12.186678	-56.116785	148.740	-0.530	0.120	-0.100	148.640	-1.200	0.200																			1580069831.0	1.67	3.09
26/01/2020 20:17:12	26012020	260120	201712	149.300	12.186672	-56.116783	149.380	-0.730	0.910	-0.190	149.300	-0.400	0.100																			1580069832.0	1.30	2.41
26/01/2020 20:17:13	26012020	260120	201713	149.830	12.186665	-56.116782	149.890	-0.590	1.060	-0.250	149.830	-0.300	0.000																			1580069833.0	1.48	2.74
26/01/2020 20:17:14	26012020	260120	201714	150.230	12.186657	-56.116780	150.290	-0.220	0.660	-0.230	150.230	-0.700	0.100																			1580069834.0	2.03	3.76
26/01/2020 20:17:15	26012020	260120	201715	150.600	12.186645	-56.116775	150.660	0.170	0.080	-0.200	150.600	-1.300	0.100																			1580069835.0	2.38	4.41
26/01/2020 20:17:16	26012020	260120	201716	150.990	12.186635	-56.116770	151.020	0.400	-0.470	-0.180	150.990	-1.800	0.100																			1580069836.0	2.37	4.39
26/01/2020 20:17:17	26012020	260120	201717	151.310	12.186627	-56.116765	151.350	0.450	-0.940	-0.130	151.310	-2.300	0.200																			1580069837.0	2.23	4.13
26/01/2020 20:17:18	26012020	260120	201718	151.570	12.186617	-56.116762	151.610	0.380	-1.160	0.040	151.570	-2.500	0.300																			1580069838.0	2.22	4.11
26/01/2020 20:17:19	26012020	260120	201719	151.800	12.186608	-56.116757	151.850	0.260	-0.990	0.270	151.800	-2.300	0.600																			1580069839.0	2.18	4.04
26/01/2020 20:17:20	26012020	260120	201720	152.070	12.186598	-56.116755	152.130	0.110	-0.440	0.420	152.070	-1.800	0.700																			1580069840.0	2.03	3.76
26/01/2020 20:17:21	26012020	260120	201721	152.500	12.186590	-56.116752	152.570	-0.100	0.280	0.330	152.500	-1.100	0.600																			1580069841.0	1.81	3.35
26/01/2020 20:17:22	26012020	260120	201722	153.050	12.186583	-56.116747	153.110	-0.370	0.800	0.070	153.050	-0.500	0.400																			1580069842.0	1.70	3.15
26/01/2020 20:17:23	26012020	260120	201723	153.550	12.186577	-56.116743	153.600	-0.590	0.840	-0.090	153.550	-0.500	0.200																			1580069843.0	1.85	3.43
26/01/2020 20:17:24	26012020	260120	201724	153.960	12.186567	-56.116738	154.000	-0.590	0.500	-0.050	153.960	-0.900	0.300																			1580069844.0	2.20	4.07
26/01/2020 20:17:25	26012020	260120	201725	154.280	12.186555	-56.116737	154.320	-0.240	0.040	0.020	154.280	-1.300	0.300																			1580069845.0	2.53	4.69
26/01/2020 20:17:26	26012020	260120	201726	154.510	12.186543	-56.116735	154.550	0.350	-0.310	-0.050	154.510	-1.700	0.300																			1580069846.0	2.51	4.65
26/01/2020 20:17:27	26012020	260120	201727	154.740	12.186533	-56.116730	154.790	0.790	-0.510	-0.250	154.740	-1.900	0.100																			1580069847.0	2.30	4.26
26/01/2020 20:17:28	26012020	260120	201728	155.000	12.186525	-56.116725	155.050	0.770	-0.510	-0.410	155.000	-1.900	-0.100																			1580069848.0	2.12	3.93
26/01/2020 20:17:29	26012020	260120	201729	155.310	12.186518	-56.116720	155.380	0.300	-0.400	-0.400	155.310	-1.800	-0.100																			1580069849.0	1.93	3.57
26/01/2020 20:17:30	26012020	260120	201730	155.690	12.186510	-56.116717	155.780	-0.260	-0.310	-0.320	155.690	-1.700	-0.000																			1580069850.0	1.84	3.41
26/01/2020 20:17:31	26012020	260120	201731	156.030	12.186500	-56.116717	156.110	-0.540	-0.370	-0.160	156.030	-1.700	0.100																			1580069851.0	2.03	3.76
26/01/2020 20:17:32	26012020	260120	201732	156.260	12.186490	-56.116715	156.340	-0.430	-0.490	0.030	156.260	-1.800	0.300																			1580069852.0	2.40	4.44
26/01/2020 20:17:33	26012020	260120	201733	156.400	12.186478	-56.116713	156.460	-0.120	-0.430	0.220	156.400	-1.800	0.500																			1580069853.0	2.62	4.85
26/01/2020 20:17:34	26012020	260120	201734	156.540	12.186467	-56.116710	156.600	0.090	-0.100	0.340	156.540	-1.400	0.600																			1580069854.0	2.55	4.72
26/01/2020 20:17:35	26012020	260120	201735	156.800	12.186457	-56.116707	156.890	0.080	0.410	0.290	156.800	-0.900	0.600																			1580069855.0	2.26	4.19
26/01/2020 20:17:36	26012020	260120	201736	157.190	12.186448	-56.116703	157.280	-0.100	0.810	0.110	157.190	-0.500	0.400																			1580069856.0	1.99	3.69
26/01/2020 20:17:37	26012020	260120	201737	157.560	12.186440	-56.116700	157.640	-0.200	0.850	-0.020	157.560	-0.500	0.300																			1580069857.0	1.87	3.46
26/01/2020 20:17:38	26012020	260120	201738	157.790	12.186430	-56.116697	157.850	-0.050	0.360	-0.000	157.790	-1.000	0.300																			1580069858.0	2.06	3.82
26/01/2020 20:17:39	26012020	260120	201739	157.880	12.186420	-56.116695	157.920	0.250	-0.410	0.040	157.880	-1.800	0.300																			1580069859.0	2.50	4.63
26/01/2020 20:17:40	26012020	260120	201740	157.970	12.186407	-56.116692	158.010	0.440	-0.970	0.110	157.970	-2.300	0.400																			1580069860.0	2.80	5.19
26/01/2020 20:17:41	26012020	260120	201741	158.080	12.186395	-56.116690	158.170	0.390	-0.970	0.250	158.120	-2.300	0.600																			1580069861.0	2.62	4.85
26/01/2020 20:17:42	26012020	260120	201742	158.300	12.186385	-56.116688	158.350	0.210	-0.550	0.300	158.300	-1.900	0.600																			1580069862.0	2.15	3.98
26/01/2020 20:17:43	26012020	260120	201743	158.540	12.186377	-56.116687	158.590	0.010	-0.140	0.080	158.540	-1.500	0.400																			1580069863.0	1.79	3.32
26/01/2020 20:17:44	26012020	260120	201744	158.820	12.186368	-56.116683	158.850	-0.170	-0.020	-0.270	158.820	-1.400	0.000																			1580069864.0	1.90	3.52
26/01/2020 20:17:45	26012020	260120	201745	158.970	12.186358	-56.116678	158.990	-0.300	-0.220	-0.410	158.970	-1.600	-0.100																			1580069865.0	2.34	4.33
26/01/2020 20:17:46	26012020	260120	201746	159.010	12.186345	-56.116675	159.010	-0.330	-0.380	-0.290	159.010	-1.700	0.000																			1580069866.0	2.78	5.15
26/01/2020 20:17:47	26012020	260120	201747	159.070	12.186333	-56.116673	159.090	-0.280	-0.130	-0.130	159.070	-1.500	0.200																			1580069867.0	2.89	5.35
26/01/2020 20:17:48	26012020	260120	201748	159.200	12.186322	-56.116672	159.240	-0.180	0.440	-0.080	159.200	-0.900	0.200																			1580069868.0	2.47	4.57
26/01/2020 20:17:49	26012020	260120	201749	159.370	12.186312	-56.116670	159.420	-0.070	0.850	-0.140	159.370	-0.500	0.200																			1580069869.0	1.99	3.69
26/01/2020 20:17:50	26012020	260120	201750	159.560	12.186303	-56.116667	159.600	0.020	0.720	-0.190	159.560	-0.600	0.100																			1580069870.0	1.98	3.67
26/01/2020 20:17:51	26012020	260120	201751	159.700	12.186293	-56.116665	159.730	0.100	0.170	-0.110	159.700	-1.200	0.200																			1580069871.0	2.35	4.35
26/01/2020 20:17:52	26012020	260120	201752	159.730	12.186280	-56.116663	159.770	0.220	-0.490	0.090	159.730	-1.800	0.400																			1580069872.0	2.70	5.00
26/01/2020 20:17:53	26012020	260120	201753	159.700	12.186267	-56.116663	159.720	0.390	-0.940	0.320	159.690	-2.300	0.600																			1580069873.0	2.82	5.22
26/01/2020 20:17:54	26012020	260120	201754	159.660	12.186255	-56.116662	159.690	0.480	-1.010	0.430	159.660	-2.400	0.700																			1580069874.0	2.67	4.94
26/01/2020 20:17:55	26012020	260120	201755	159.720	12.186243	-56.116660	159.790	0.330	-0.730	0.360	159.750	-2.100	0.700																			1580069875.0	2.35	4.35
26/01/2020 20:17:56	26012020	260120	201756	159.940	12.186235	-56.116657	159.960	-0.020	-0.310	0.110	159.940	-1.700	0.400																			1580069876.0	2.12	3.93
26/01/2020 20:17:57	26012020	260120	201757	160.040	12.186225	-56.116655	160.060	-0.340	-0.040	-0.090	160.040	-1.400	0.200																			1580069877.0	2.12	3.93
26/01/2020 20:17:58	26012020	260120	201758	160.010	12.186213	-56.116652	160.000	-0.440	0.010	-0.100	160.010	-1.300	0.200																			1580069878.0	2.43	4.50
26/01/2020 20:17:59	26012020	260120	201759	159.950	12.186202	-56.116648	159.970	-0.350	0.100	0.020	159.950	-1.200	0.300	1013.90	26.20	26.30	21.00	21.10	160.00	73.00	73.00	392.00	27.40	288.00	5.00	69.00	4.70	13139	3363.00	27.80	27.80	1580069879.0	2.80	5.19
26/01/2020 20:18:00	26012020	260120	201800	159.990	12.186188	-56.116647	160.020	-0.270	0.410	0.120	159.990	-0.900	0.400																			1580069880.0	2.77	5.13
26/01/2020 20:18:01	26012020	260120	201801	160.170	12.186177	-56.116645	160.200	-0.260	0.740	0.070	160.170	-0.600	0.400																			1580069881.0	2.45	4.54
26/01/2020 20:18:02	26012020	260120	201802	160.390	12.186167	-56.116643	160.430	-0.220	0.720	-0.040	160.390	-0.600	0.300																			1580069882.0	2.21	4.09
26/01/2020 20:18:03	26012020	260120	201803	160.550	12.186157	-56.116643	160.590	0.030	0.210	-0.090	160.550	-1.100	0.200																			1580069883.0	2.37	4.39
26/01/2020 20:18:04	26012020	260120	201804	160.540	12.186143	-56.116642	160.560	0.480	-0.560	-0.070	160.540	-1.900	0.200																			1580069884.0	2.74	5.07
26/01/2020 20:18:05	26012020	260120	201805	160.400	12.186130	-56.116640	160.400	0.890	-1.160	-0.030	160.400	-2.500	0.300																			1580069885.0	2.98	5.52
26/01/2020 20:18:06	26012020	260120	201806	160.260	12.186117	-56.116635	160.300	0.880	-1.220	0.050	160.260	-2.600	0.400																			1580069886.0	2.90	5.37
26/01/2020 20:18:07	26012020	260120	201807	160.290	12.186105	-56.116632	160.340	0.320	-0.700	0.130	160.290	-2.000	0.400																			1580069887.0	2.52	4.67
26/01/2020 20:18:08	26012020	260120	201808	160.510	12.186097	-56.116630	160.550	-0.480	0.100	0.170	160.510	-1.200	0.500																			1580069888.0	2.11	3.91
26/01/2020 20:18:09	26012020	260120	201809	160.810	12.186087	-56.116630	160.860	-1.030	0.660	0.220	160.810	-0.700	0.500																			1580069889.0	2.02	3.74
26/01/2020 20:18:10	26012020	260120	201810	160.990	12.186075	-56.116632	161.040	-0.960	0.590	0.310	160.990	-0.800	0.600																			1580069890.0	2.37	4.39
26/01/2020 20:18:11	26012020	260120	201811	160.930	12.186062	-56.116632	160.970	-0.360	0.020	0.410	160.930	-1.300	0.700																			1580069891.0	2.98	5.52
26/01/2020 20:18:12	26012020	260120	201812	160.730	12.186047	-56.116630	160.760	0.300	-0.450	0.430	160.730	-1.800	0.700																			1580069892.0	3.42	6.33
26/01/2020 20:18:13	26012020	260120	201813	160.590	12.186032	-56.116627	160.640	0.610	-0.390	0.270	160.590	-1.700	0.600																			1580069893.0	3.25	6.02
26/01/2020 20:18:14	26012020	260120	201814	160.600	12.186020	-56.116623	160.650	0.500	0.080	-0.050	160.600	-1.300	0.300																			1580069894.0	2.57	4.76
26/01/2020 20:18:15	26012020	260120	201815	160.750	12.186012	-56.116618	160.800	0.220	0.430	-0.330	160.750	-0.900	-0.000																			1580069895.0	2.05	3.80
26/01/2020 20:18:16	26012020	260120	201816	160.850	12.186002	-56.116617	160.890	-0.000	0.300	-0.400	160.850	-1.100	-0.100																			1580069896.0	2.05	3.80
26/01/2020 20:18:17	26012020	260120	201817	160.810	12.185990	-56.116613	160.800	-0.050	-0.220	-0.240	160.780	-1.600	0.100																			1580069897.0	2.55	4.72
26/01/2020 20:18:18	26012020	260120	201818	160.630	12.185977	-56.116613	160.650	-0.020	-0.730	0.050	160.630	-2.100	0.400																			1580069898.0	3.08	5.70
26/01/2020 20:18:19	26012020	260120	201819	160.570	12.185962	-56.116613	160.620	-0.030	-0.820	0.290	160.570	-2.200	0.600																			1580069899.0	3.26	6.04
26/01/2020 20:18:20	26012020	260120	201820	160.690	12.185947	-56.116615	160.760	-0.120	-0.400	0.340	160.690	-1.700	0.600																			1580069900.0	2.96	5.48
26/01/2020 20:18:21	26012020	260120	201821	160.880	12.185937	-56.116615	160.940	-0.180	0.180	0.180	160.880	-1.200	0.500																			1580069901.0	2.38	4.41
26/01/2020 20:18:22	26012020	260120	201822	160.960	12.185927	-56.116613	161.000	-0.130	0.370	0.000	160.960	-1.000	0.300																			1580069902.0	2.11	3.91
26/01/2020 20:18:23	26012020	260120	201823	160.860	12.185915	-56.116610	160.900	0.000	0.060	-0.040	160.860	-1.300	0.300																			1580069903.0	2.50	4.63
26/01/2020 20:18:24	26012020	260120	201824	160.660	12.185902	-56.116605	160.690	0.080	-0.370	0.050	160.660	-1.700	0.400																			1580069904.0	3.06	5.67
26/01/2020 20:18:25	26012020	260120	201825	160.430	12.185887	-56.116602	160.450	0.010	-0.470	0.260	160.430	-1.800	0.600																			1580069905.0	3.22	5.96
26/01/2020 20:18:26	26012020	260120	201826	160.260	12.185873	-56.116602	160.300	-0.110	-0.190	0.490	160.260	-1.500	0.800																			1580069906.0	2.99	5.54
26/01/2020 20:18:27	26012020	260120	201827	160.250	12.185862	-56.116603	160.310	-0.120	0.230	0.550	160.250	-1.100	0.900																			1580069907.0	2.67	4.94
26/01/2020 20:18:28	26012020	260120	201828	160.370	12.185850	-56.116603	160.410	0.050	0.430	0.380	160.370	-0.900	0.700																			1580069908.0	2.42	4.48
26/01/2020 20:18:29	26012020	260120	201829	160.500	12.185838	-56.116602	160.540	0.320	0.200	0.010	160.500	-1.100	0.300																			1580069909.0	2.48	4.59
26/01/2020 20:18:30	26012020	260120	201830	160.540	12.185825	-56.116598	160.570	0.510	-0.290	-0.400	160.540	-1.600	-0.100																			1580069910.0	2.84	5.26
26/01/2020 20:18:31	26012020	260120	201831	160.520	12.185812	-56.116593	160.530	0.470	-0.630	-0.610	160.520	-2.000	-0.300																			1580069911.0	3.12	5.78
26/01/2020 20:18:32	26012020	260120	201832	160.490	12.185798	-56.116588	160.510	0.150	-0.520	-0.540	160.490	-1.900	-0.200																			1580069912.0	2.99	5.54
26/01/2020 20:18:33	26012020	260120	201833	160.560	12.185787	-56.116585	160.600	-0.330	-0.070	-0.270	160.560	-1.400	0.000																			1580069913.0	2.57	4.76
26/01/2020 20:18:34	26012020	260120	201834	160.570	12.185777	-56.116587	160.610	-0.650	0.190	0.160	160.570	-1.200	0.500																			1580069914.0	2.40	4.44
26/01/2020 20:18:35	26012020	260120	201835	160.430	12.185763	-56.116588	160.470	-0.610	-0.050	0.690	160.430	-1.400	1.000																			1580069915.0	2.79	5.17
26/01/2020 20:18:36	26012020	260120	201836	160.170	12.185747	-56.116590	160.220	-0.260	-0.530	1.240	160.170	-1.900	1.500																			1580069916.0	3.46	6.41
26/01/2020 20:18:37	26012020	260120	201837	159.910	12.185730	-56.116592	160.000	0.150	-0.710	1.470	159.910	-2.100	1.800																			1580069917.0	3.77	6.98
26/01/2020 20:18:38	26012020	260120	201838	159.840	12.185715	-56.116592	159.910	0.380	-0.290	1.170	159.840	-1.600	1.500																			1580069918.0	3.39	6.28
26/01/2020 20:18:39	26012020	260120	201839	160.040	12.185702	-56.116588	160.120	0.280	0.450	0.440	160.040	-0.900	0.800																			1580069919.0	2.67	4.94
26/01/2020 20:18:40	26012020	260120	201840	160.400	12.185693	-56.116582	160.480	-0.020	0.880	-0.360	160.400	-0.500	-0.100																			1580069920.0	2.28	4.22
26/01/2020 20:18:41	26012020	260120	201841	160.620	12.185683	-56.116577	160.670	-0.200	0.630	-0.870	160.620	-0.700	-0.600																			1580069921.0	2.42	4.48
26/01/2020 20:18:42	26012020	260120	201842	160.590	12.185670	-56.116572	160.620	-0.040	-0.160	-0.960	160.590	-1.500	-0.600																			1580069922.0	3.00	5.56
26/01/2020 20:18:43	26012020	260120	201843	160.400	12.185653	-56.116568	160.370	0.370	-0.890	-0.740	160.340	-2.200	-0.400																			1580069923.0	3.58	6.63
26/01/2020 20:18:44	26012020	260120	201844	160.050	12.185637	-56.116567	160.080	0.610	-1.080	-0.340	160.050	-2.400	-0.000																			1580069924.0	3.65	6.76
26/01/2020 20:18:45	26012020	260120	201845	159.920	12.185622	-56.116563	159.990	0.410	-0.630	0.110	159.920	-2.000	0.400																			1580069925.0	3.22	5.96
26/01/2020 20:18:46	26012020	260120	201846	159.990	12.185610	-56.116563	160.090	-0.100	0.110	0.490	159.990	-1.200	0.800																			1580069926.0	2.70	5.00
26/01/2020 20:18:47	26012020	260120	201847	160.140	12.185598	-56.116565	160.240	-0.540	0.550	0.720	160.140	-0.800	1.000																			1580069927.0	2.53	4.69
26/01/2020 20:18:48	26012020	260120	201848	160.220	12.185585	-56.116567	160.330	-0.660	0.380	0.880	160.220	-1.000	1.200																			1580069928.0	2.84	5.26
26/01/2020 20:18:49	26012020	260120	201849	160.270	12.185568	-56.116567	160.370	-0.510	-0.100	1.030	160.270	-1.400	1.300																			1580069929.0	3.48	6.44
26/01/2020 20:18:50	26012020	260120	201850	160.290	12.185552	-56.116567	160.400	-0.240	-0.430	1.110	160.290	-1.800	1.400																			1580069930.0	3.83	7.09
26/01/2020 20:18:51	26012020	260120	201851	160.270	12.185533	-56.116567	160.360	0.080	-0.410	0.860	160.270	-1.800	1.200																			1580069931.0	3.60	6.67
26/01/2020 20:18:52	26012020	260120	201852	160.210	12.185520	-56.116563	160.290	0.370	-0.280	0.270	160.210	-1.600	0.600																			1580069932.0	3.12	5.78
26/01/2020 20:18:53	26012020	260120	201853	160.140	12.185507	-56.116557	160.210	0.500	-0.150	-0.380	160.140	-1.500	-0.100																			1580069933.0	3.07	5.69
26/01/2020 20:18:54	26012020	260120	201854	160.170	12.185495	-56.116548	160.230	0.370	0.050	-0.880	160.170	-1.300	-0.600																			1580069934.0	3.18	5.89
26/01/2020 20:18:55	26012020	260120	201855	160.310	12.185482	-56.116542	160.360	0.070	0.280	-1.070	160.310	-1.100	-0.800																			1580069935.0	3.02	5.59
26/01/2020 20:18:56	26012020	260120	201856	160.430	12.185468	-56.116538	160.470	-0.140	0.290	-0.870	160.430	-1.100	-0.600																			1580069936.0	2.90	5.37
26/01/2020 20:18:57	26012020	260120	201857	160.450	12.185455	-56.116538	160.480	-0.110	-0.060	-0.350	160.440	-1.400	-0.100																			1580069937.0	3.20	5.93
26/01/2020 20:18:58	26012020	260120	201858	160.420	12.185437	-56.116538	160.480	0.060	-0.510	0.310	160.420	-1.900	0.600																			1580069938.0	3.68	6.82
26/01/2020 20:18:59	26012020	260120	201859	160.430	12.185418	-56.116538	160.510	0.120	-0.680	0.990	160.430	-2.000	1.300	1013.90	26.20	26.20	20.90	21.00	158.00	72.00	72.00	392.00	27.40	288.00	4.30	68.00	4.10	13000	3364.00	27.80	27.80	1580069939.0	3.92	7.26
26/01/2020 20:19:00	26012020	260120	201900	160.450	12.185402	-56.116540	160.540	-0.020	-0.510	1.490	160.450	-1.900	1.800																			1580069940.0	3.70	6.85
26/01/2020 20:19:01	26012020	260120	201901	160.520	12.185387	-56.116540	160.640	-0.260	-0.150	1.650	160.520	-1.500	1.900																			1580069941.0	3.38	6.26
26/01/2020 20:19:02	26012020	260120	201902	160.710	12.185372	-56.116540	160.830	-0.440	0.140	1.410	160.710	-1.200	1.700																			1580069942.0	3.16	5.85
26/01/2020 20:19:03	26012020	260120	201903	160.930	12.185357	-56.116538	161.030	-0.420	0.160	0.930	160.930	-1.200	1.200																			1580069943.0	3.16	5.85
26/01/2020 20:19:04	26012020	260120	201904	161.100	12.185342	-56.116533	161.200	-0.220	-0.020	0.380	161.100	-1.400	0.700																			1580069944.0	3.42	6.33
26/01/2020 20:19:05	26012020	260120	201905	161.270	12.185325	-56.116528	161.370	0.050	-0.120	-0.280	161.270	-1.500	0.000																			1580069945.0	3.65	6.76
26/01/2020 20:19:06	26012020	260120	201906	161.490	12.185310	-56.116522	161.580	0.250	0.010	-0.990	161.490	-1.300	-0.700																			1580069946.0	3.56	6.59
26/01/2020 20:19:07	26012020	260120	201907	161.640	12.185297	-56.116515	161.700	0.320	0.190	-1.430	161.640	-1.200	-1.100																			1580069947.0	3.27	6.06
26/01/2020 20:19:08	26012020	260120	201908	161.560	12.185283	-56.116510	161.600	0.340	0.140	-1.370	161.560	-1.200	-1.100																			1580069948.0	3.12	5.78
26/01/2020 20:19:09	26012020	260120	201909	161.340	12.185268	-56.116507	161.360	0.370	-0.130	-0.950	161.340	-1.500	-0.600																			1580069949.0	3.33	6.17
26/01/2020 20:19:10	26012020	260120	201910	161.140	12.185252	-56.116503	161.180	0.350	-0.430	-0.360	161.140	-1.800	-0.000																			1580069950.0	3.68	6.82
26/01/2020 20:19:11	26012020	260120	201911	161.100	12.185233	-56.116503	161.180	0.180	-0.570	0.290	161.100	-1.900	0.600																			1580069951.0	3.86	7.15
26/01/2020 20:19:12	26012020	260120	201912	161.270	12.185215	-56.116503	161.390	-0.160	-0.470	0.870	161.270	-1.800	1.200																			1580069952.0	3.83	7.09
26/01/2020 20:19:13	26012020	260120	201913	161.570	12.185198	-56.116507	161.710	-0.530	-0.270	1.270	161.570	-1.600	1.600																			1580069953.0	3.69	6.83
26/01/2020 20:19:14	26012020	260120	201914	161.870	12.185182	-56.116508	162.010	-0.680	-0.200	1.430	161.870	-1.500	1.700																			1580069954.0	3.63	6.72
26/01/2020 20:19:15	26012020	260120	201915	162.010	12.185163	-56.116508	162.150	-0.520	-0.320	1.430	162.010	-1.700	1.700																			1580069955.0	3.74	6.93
26/01/2020 20:19:16	26012020	260120	201916	161.980	12.185145	-56.116507	162.100	-0.180	-0.390	1.250	161.980	-1.700	1.500																			1580069956.0	3.98	7.37
26/01/2020 20:19:17	26012020	260120	201917	161.960	12.185127	-56.116502	162.090	0.060	-0.080	0.810	161.960	-1.400	1.100																			1580069957.0	3.99	7.39
26/01/2020 20:19:18	26012020	260120	201918	162.070	12.185112	-56.116495	162.200	0.060	0.480	0.190	162.070	-0.900	0.500																			1580069958.0	3.63	6.72
26/01/2020 20:19:19	26012020	260120	201919	162.260	12.185098	-56.116488	162.370	-0.080	0.890	-0.440	162.260	-0.400	-0.100																			1580069959.0	3.27	6.06
26/01/2020 20:19:20	26012020	260120	201920	162.390	12.185083	-56.116483	162.460	-0.080	0.850	-0.870	162.390	-0.500	-0.600																			1580069960.0	3.21	5.94
26/01/2020 20:19:21	26012020	260120	201921	162.400	12.185068	-56.116478	162.440	0.230	0.310	-0.990	162.400	-1.000	-0.700																			1580069961.0	3.48	6.44
26/01/2020 20:19:22	26012020	260120	201922	162.300	12.185050	-56.116475	162.340	0.690	-0.500	-0.830	162.300	-1.900	-0.500																			1580069962.0	3.90	7.22
26/01/2020 20:19:23	26012020	260120	201923	162.160	12.185032	-56.116472	162.190	0.930	-1.150	-0.510	162.160	-2.500	-0.200																			1580069963.0	4.16	7.70
26/01/2020 20:19:24	26012020	260120	201924	162.140	12.185013	-56.116468	162.210	0.680	-1.330	-0.160	162.140	-2.700	0.100																			1580069964.0	4.11	7.61
26/01/2020 20:19:25	26012020	260120	201925	162.340	12.184995	-56.116467	162.440	0.010	-1.010	0.180	162.340	-2.400	0.500																			1580069965.0	3.83	7.09
26/01/2020 20:19:26	26012020	260120	201926	162.730	12.184978	-56.116467	162.860	-0.710	-0.420	0.530	162.730	-1.800	0.800																			1580069966.0	3.65	6.76
26/01/2020 20:19:27	26012020	260120	201927	163.190	12.184962	-56.116468	163.330	-1.070	0.240	0.800	163.190	-1.100	1.100																			1580069967.0	3.67	6.80
26/01/2020 20:19:28	26012020	260120	201928	163.530	12.184943	-56.116470	163.660	-0.900	0.620	0.960	163.530	-0.700	1.300																			1580069968.0	3.67	6.80
26/01/2020 20:19:29	26012020	260120	201929	163.530	12.184927	-56.116468	163.630	-0.360	0.450	1.130	163.530	-0.900	1.400																			1580069969.0	3.83	7.09
26/01/2020 20:19:30	26012020	260120	201930	163.300	12.184907	-56.116465	163.410	0.150	0.020	1.260	163.300	-1.300	1.600																			1580069970.0	4.34	8.04
26/01/2020 20:19:31	26012020	260120	201931	163.100	12.184885	-56.116462	163.250	0.320	-0.120	1.220	163.100	-1.400	1.500																			1580069971.0	4.56	8.45
26/01/2020 20:19:32	26012020	260120	201932	163.090	12.184867	-56.116457	163.250	0.210	0.150	0.960	163.090	-1.200	1.300																			1580069972.0	4.13	7.65
26/01/2020 20:19:33	26012020	260120	201933	163.250	12.184850	-56.116453	163.480	0.080	0.440	0.380	163.310	-0.900	0.700																			1580069973.0	3.56	6.59
26/01/2020 20:19:34	26012020	260120	201934	163.660	12.184835	-56.116450	163.820	0.160	0.350	-0.500	163.660	-1.000	-0.200																			1580069974.0	3.37	6.24
26/01/2020 20:19:35	26012020	260120	201935	163.960	12.184820	-56.116443	164.150	0.370	-0.200	-1.300	164.030	-1.500	-1.000																			1580069975.0	3.66	6.78
26/01/2020 20:19:36	26012020	260120	201936	164.270	12.184802	-56.116437	164.360	0.510	-0.910	-1.650	164.270	-2.200	-1.300																			1580069976.0	4.13	7.65
26/01/2020 20:19:37	26012020	260120	201937	164.370	12.184782	-56.116432	164.430	0.400	-1.260	-1.540	164.370	-2.600	-1.200																			1580069977.0	4.35	8.06
26/01/2020 20:19:38	26012020	260120	201938	164.380	12.184763	-56.116428	164.440	0.070	-1.050	-1.150	164.380	-2.400	-0.800																			1580069978.0	4.21	7.80
26/01/2020 20:19:39	26012020	260120	201939	164.420	12.184745	-56.116427	164.500	-0.320	-0.430	-0.530	164.420	-1.800	-0.200																			1580069979.0	3.95	7.32
26/01/2020 20:19:40	26012020	260120	201940	164.550	12.184727	-56.116427	164.660	-0.620	0.310	0.220	164.550	-1.000	0.500																			1580069980.0	3.84	7.11
26/01/2020 20:19:41	26012020	260120	201941	164.760	12.184708	-56.116428	164.880	-0.700	0.840	0.870	164.760	-0.500	1.200																			1580069981.0	3.92	7.26
26/01/2020 20:19:42	26012020	260120	201942	164.920	12.184690	-56.116432	165.040	-0.490	0.890	1.340	164.920	-0.400	1.600																			1580069982.0	4.08	7.56
26/01/2020 20:19:43	26012020	260120	201943	164.940	12.184670	-56.116432	165.070	-0.050	0.410	1.600	164.940	-0.900	1.900																			1580069983.0	4.31	7.98
26/01/2020 20:19:44	26012020	260120	201944	164.830	12.184648	-56.116430	164.960	0.380	-0.300	1.680	164.830	-1.600	2.000																			1580069984.0	4.60	8.52
26/01/2020 20:19:45	26012020	260120	201945	164.670	12.184627	-56.116427	164.790	0.560	-0.790	1.520	164.670	-2.100	1.800																			1580069985.0	4.71	8.72
26/01/2020 20:19:46	26012020	260120	201946	164.640	12.184607	-56.116423	164.780	0.460	-0.740	0.970	164.640	-2.100	1.300																			1580069986.0	4.48	8.30
26/01/2020 20:19:47	26012020	260120	201947	164.950	12.184588	-56.116418	165.110	0.220	-0.240	0.030	164.950	-1.600	0.300																			1580069987.0	3.95	7.32
26/01/2020 20:19:48	26012020	260120	201948	165.570	12.184573	-56.116412	165.710	-0.010	0.190	-1.030	165.570	-1.100	-0.700																			1580069988.0	3.52	6.52
26/01/2020 20:19:49	26012020	260120	201949	166.090	12.184558	-56.116405	166.200	-0.110	0.030	-1.770	166.090	-1.300	-1.500																			1580069989.0	3.63	6.72
26/01/2020 20:19:50	26012020	260120	201950	166.250	12.184540	-56.116398	166.320	-0.080	-0.590	-1.900	166.250	-1.900	-1.600																			1580069990.0	4.30	7.96
26/01/2020 20:19:51	26012020	260120	201951	166.170	12.184517	-56.116393	166.250	-0.080	-0.860	-1.400	166.170	-2.200	-1.100																			1580069991.0	4.89	9.06
26/01/2020 20:19:52	26012020	260120	201952	166.170	12.184495	-56.116392	166.300	-0.180	-0.330	-0.560	166.170	-1.700	-0.300																			1580069992.0	4.75	8.80
26/01/2020 20:19:53	26012020	260120	201953	166.360	12.184477	-56.116393	166.510	-0.290	0.490	0.260	166.360	-0.800	0.600																			1580069993.0	4.10	7.59
26/01/2020 20:19:54	26012020	260120	201954	166.580	12.184458	-56.116395	166.730	-0.260	0.820	0.940	166.580	-0.500	1.200																			1580069994.0	3.83	7.09
26/01/2020 20:19:55	26012020	260120	201955	166.700	12.184438	-56.116398	166.850	-0.030	0.460	1.440	166.700	-0.900	1.700																			1580069995.0	4.22	7.82
26/01/2020 20:19:56	26012020	260120	201956	166.780	12.184417	-56.116398	166.940	0.260	-0.130	1.630	166.780	-1.500	1.900																			1580069996.0	4.75	8.80
26/01/2020 20:19:57	26012020	260120	201957	166.910	12.184395	-56.116397	167.110	0.410	-0.500	1.430	166.950	-1.800	1.700																			1580069997.0	4.80	8.89
26/01/2020 20:19:58	26012020	260120	201958	167.230	12.184375	-56.116393	167.390	0.330	-0.510	0.860	167.230	-1.800	1.200																			1580069998.0	4.44	8.22
26/01/2020 20:19:59	26012020	260120	201959	167.590	12.184357	-56.116388	167.720	0.100	-0.350	0.110	167.590	-1.700	0.400	1013.90	26.20	26.20	21.00	21.00	159.00	72.00	73.00	393.00	27.40	293.00	4.40	69.00	4.00	12902	3503.00	27.80	27.80	1580069999.0	4.05	7.50
26/01/2020 20:20:00	26012020	260120	202000	167.900	12.184338	-56.116383	168.010	-0.090	-0.330	-0.560	167.900	-1.700	-0.300																			1580070000.0	3.94	7.30
26/01/2020 20:20:01	26012020	260120	202001	168.090	12.184320	-56.116378	168.180	-0.120	-0.450	-1.010	168.090	-1.800	-0.700																			1580070001.0	4.20	7.78
26/01/2020 20:20:02	26012020	260120	202002	168.270	12.184300	-56.116373	168.360	-0.080	-0.450	-1.220	168.270	-1.800	-0.900																			1580070002.0	4.52	8.37
26/01/2020 20:20:03	26012020	260120	202003	168.480	12.184278	-56.116368	168.550	-0.090	-0.270	-1.200	168.480	-1.600	-0.900																			1580070003.0	4.50	8.33
26/01/2020 20:20:04	26012020	260120	202004	168.560	12.184258	-56.116367	168.620	-0.080	-0.140	-0.880	168.560	-1.500	-0.600																			1580070004.0	4.42	8.19
26/01/2020 20:20:05	26012020	260120	202005	168.530	12.184237	-56.116367	168.610	0.030	-0.030	-0.380	168.530	-1.400	-0.100																			1580070005.0	4.61	8.54
26/01/2020 20:20:06	26012020	260120	202006	168.640	12.184215	-56.116367	168.740	0.120	0.290	0.080	168.640	-1.000	0.400																			1580070006.0	4.71	8.72
26/01/2020 20:20:07	26012020	260120	202007	168.920	12.184195	-56.116367	169.040	0.040	0.650	0.400	168.920	-0.700	0.700																			1580070007.0	4.37	8.09
26/01/2020 20:20:08	26012020	260120	202008	169.300	12.184175	-56.116365	169.440	-0.170	0.660	0.630	169.300	-0.700	0.900																			1580070008.0	4.12	7.63
26/01/2020 20:20:09	26012020	260120	202009	169.660	12.184155	-56.116365	169.810	-0.290	0.220	0.820	169.660	-1.100	1.100																			1580070009.0	4.31	7.98
26/01/2020 20:20:10	26012020	260120	202010	169.960	12.184133	-56.116365	170.100	-0.130	-0.400	0.930	169.960	-1.700	1.200																			1580070010.0	4.70	8.70
26/01/2020 20:20:11	26012020	260120	202011	170.180	12.184112	-56.116367	170.300	0.260	-0.880	0.860	170.180	-2.200	1.200																			1580070011.0	4.83	8.95
26/01/2020 20:20:12	26012020	260120	202012	170.340	12.184090	-56.116363	170.450	0.550	-1.040	0.550	170.340	-2.400	0.900																			1580070012.0	4.70	8.70
26/01/2020 20:20:13	26012020	260120	202013	170.480	12.184068	-56.116360	170.570	0.500	-0.860	0.130	170.480	-2.200	0.400																			1580070013.0	4.51	8.35
26/01/2020 20:20:14	26012020	260120	202014	170.670	12.184050	-56.116355	170.760	0.070	-0.420	-0.270	170.670	-1.700	0.000																			1580070014.0	4.36	8.07
26/01/2020 20:20:15	26012020	260120	202015	170.900	12.184030	-56.116350	170.970	-0.420	0.050	-0.560	170.900	-1.300	-0.200																			1580070015.0	4.22	7.82
26/01/2020 20:20:16	26012020	260120	202016	171.040	12.184010	-56.116348	171.090	-0.580	0.250	-0.650	171.040	-1.100	-0.300																			1580070016.0	4.30	7.96
26/01/2020 20:20:17	26012020	260120	202017	171.090	12.183988	-56.116348	171.130	-0.310	0.190	-0.630	171.090	-1.100	-0.300																			1580070017.0	4.71	8.72
26/01/2020 20:20:18	26012020	260120	202018	171.180	12.183965	-56.116347	171.240	0.130	0.140	-0.690	171.180	-1.200	-0.400																			1580070018.0	5.03	9.32
26/01/2020 20:20:19	26012020	260120	202019	171.510	12.183942	-56.116345	171.580	0.330	0.320	-0.880	171.510	-1.000	-0.600																			1580070019.0	4.93	9.13
26/01/2020 20:20:20	26012020	260120	202020	172.030	12.183922	-56.116342	172.090	0.160	0.510	-1.000	172.030	-0.800	-0.700																			1580070020.0	4.51	8.35
26/01/2020 20:20:21	26012020	260120	202021	172.490	12.183902	-56.116340	172.550	-0.140	0.320	-0.810	172.490	-1.000	-0.500																			1580070021.0	4.25	7.87
26/01/2020 20:20:22	26012020	260120	202022	172.770	12.183880	-56.116340	172.810	-0.250	-0.230	-0.300	172.770	-1.600	0.000																			1580070022.0	4.53	8.39
26/01/2020 20:20:23	26012020	260120	202023	172.840	12.183858	-56.116342	172.860	-0.060	-0.810	0.430	172.830	-2.100	0.700																			1580070023.0	4.97	9.20
26/01/2020 20:20:24	26012020	260120	202024	172.680	12.183833	-56.116345	172.730	0.280	-1.040	1.110	172.680	-2.400	1.400																			1580070024.0	5.12	9.48
26/01/2020 20:20:25	26012020	260120	202025	172.550	12.183812	-56.116347	172.590	0.450	-0.780	1.490	172.520	-2.100	1.800																			1580070025.0	4.89	9.06
26/01/2020 20:20:26	26012020	260120	202026	172.480	12.183790	-56.116347	172.580	0.290	-0.210	1.500	172.480	-1.500	1.800																			1580070026.0	4.49	8.32
26/01/2020 20:20:27	26012020	260120	202027	172.620	12.183772	-56.116347	172.730	-0.060	0.290	1.180	172.620	-1.000	1.500																			1580070027.0	4.24	7.85
26/01/2020 20:20:28	26012020	260120	202028	172.890	12.183752	-56.116343	172.990	-0.310	0.420	0.580	172.890	-0.900	0.900																			1580070028.0	4.30	7.96
26/01/2020 20:20:29	26012020	260120	202029	173.120	12.183730	-56.116342	173.210	-0.290	-0.010	0.020	173.120	-1.300	0.300																			1580070029.0	4.67	8.65
26/01/2020 20:20:30	26012020	260120	202030	173.210	12.183705	-56.116338	173.260	-0.070	-0.670	-0.330	173.210	-2.000	-0.000																			1580070030.0	5.26	9.74
26/01/2020 20:20:31	26012020	260120	202031	173.340	12.183678	-56.116337	173.400	0.080	-0.820	-0.670	173.340	-2.100	-0.400																			1580070031.0	5.63	10.43
26/01/2020 20:20:32	26012020	260120	202032	173.760	12.183655	-56.116333	173.850	-0.070	-0.100	-1.120	173.760	-1.400	-0.800																			1580070032.0	5.13	9.50
26/01/2020 20:20:33	26012020	260120	202033	174.390	12.183637	-56.116332	174.460	-0.370	0.770	-1.500	174.390	-0.500	-1.200																			1580070033.0	4.19	7.76
26/01/2020 20:20:34	26012020	260120	202034	174.880	12.183618	-56.116328	174.930	-0.440	0.880	-1.470	174.880	-0.500	-1.100																			1580070034.0	3.89	7.20
26/01/2020 20:20:35	26012020	260120	202035	175.120	12.183597	-56.116328	175.160	-0.130	0.220	-0.960	175.120	-1.100	-0.600																			1580070035.0	4.62	8.56
26/01/2020 20:20:36	26012020	260120	202036	175.100	12.183572	-56.116328	175.140	0.370	-0.450	-0.050	175.100	-1.800	0.300																			1580070036.0	5.42	10.04
26/01/2020 20:20:37	26012020	260120	202037	174.950	12.183547	-56.116332	175.030	0.680	-0.610	1.020	174.950	-1.900	1.300																			1580070037.0	5.46	10.11
26/01/2020 20:20:38	26012020	260120	202038	174.940	12.183523	-56.116335	175.090	0.620	-0.260	1.740	174.940	-1.600	2.000																			1580070038.0	4.97	9.20
26/01/2020 20:20:39	26012020	260120	202039	175.130	12.183503	-56.116340	175.290	0.330	0.100	1.860	175.130	-1.200	2.200																			1580070039.0	4.37	8.09
26/01/2020 20:20:40	26012020	260120	202040	175.420	12.183483	-56.116342	175.580	0.080	0.020	1.480	175.420	-1.300	1.800																			1580070040.0	4.22	7.82
26/01/2020 20:20:41	26012020	260120	202041	175.800	12.183462	-56.116340	175.950	-0.030	-0.530	0.750	175.800	-1.900	1.100																			1580070041.0	4.67	8.65
26/01/2020 20:20:42	26012020	260120	202042	176.210	12.183438	-56.116338	176.340	-0.090	-1.090	-0.130	176.210	-2.400	0.200																			1580070042.0	5.23	9.69
26/01/2020 20:20:43	26012020	260120	202043	176.540	12.183413	-56.116335	176.670	-0.230	-1.290	-0.960	176.540	-2.600	-0.600																			1580070043.0	5.46	10.11
26/01/2020 20:20:44	26012020	260120	202044	176.830	12.183388	-56.116332	176.940	-0.460	-0.890	-1.590	176.830	-2.200	-1.300																			1580070044.0	5.33	9.87
26/01/2020 20:20:45	26012020	260120	202045	177.120	12.183365	-56.116328	177.220	-0.630	-0.000	-1.930	177.120	-1.300	-1.600																			1580070045.0	4.96	9.19
26/01/2020 20:20:46	26012020	260120	202046	177.360	12.183343	-56.116327	177.450	-0.600	0.900	-2.010	177.360	-0.400	-1.700																			1580070046.0	4.59	8.50
26/01/2020 20:20:47	26012020	260120	202047	177.470	12.183323	-56.116325	177.570	-0.380	1.300	-1.730	177.490	-0.000	-1.400																			1580070047.0	4.55	8.43
26/01/2020 20:20:48	26012020	260120	202048	177.490	12.183300	-56.116323	177.570	-0.080	1.050	-0.940	177.490	-0.300	-0.600																			1580070048.0	4.92	9.11
26/01/2020 20:20:49	26012020	260120	202049	177.420	12.183275	-56.116327	177.530	0.210	0.480	0.160	177.420	-0.900	0.500																			1580070049.0	5.38	9.96
26/01/2020 20:20:50	26012020	260120	202050	177.400	12.183250	-56.116333	177.530	0.470	-0.040	1.220	177.400	-1.400	1.500																			1580070050.0	5.56	10.30
26/01/2020 20:20:51	26012020	260120	202051	177.480	12.183227	-56.116342	177.640	0.690	-0.450	1.920	177.480	-1.800	2.200																			1580070051.0	5.32	9.85
26/01/2020 20:20:52	26012020	260120	202052	177.770	12.183203	-56.116347	177.950	0.760	-0.820	2.030	177.770	-2.100	2.300																			1580070052.0	5.02	9.30
26/01/2020 20:20:53	26012020	260120	202053	178.220	12.183182	-56.116350	178.390	0.590	-1.080	1.580	178.220	-2.400	1.900																			1580070053.0	4.88	9.04
26/01/2020 20:20:54	26012020	260120	202054	178.630	12.183158	-56.116350	178.770	0.240	-1.140	0.930	178.630	-2.500	1.200																			1580070054.0	4.88	9.04
26/01/2020 20:20:55	26012020	260120	202055	178.890	12.183135	-56.116348	179.000	-0.130	-0.910	0.220	178.890	-2.200	0.500																			1580070055.0	4.94	9.15
26/01/2020 20:20:56	26012020	260120	202056	179.140	12.183113	-56.116345	179.250	-0.420	-0.330	-0.600	179.140	-1.700	-0.300																			1580070056.0	4.98	9.22
26/01/2020 20:20:57	26012020	260120	202057	179.460	12.183090	-56.116340	179.560	-0.630	0.260	-1.310	179.460	-1.100	-1.000																			1580070057.0	4.91	9.09
26/01/2020 20:20:58	26012020	260120	202058	179.740	12.183068	-56.116337	179.820	-0.700	0.500	-1.660	179.740	-0.800	-1.300																			1580070058.0	4.95	9.17
26/01/2020 20:20:59	26012020	260120	202059	179.880	12.183043	-56.116335	179.950	-0.530	0.360	-1.550	179.880	-1.000	-1.200	1013.90	26.20	26.20	21.00	21.10	156.00	73.00	73.00	393.00	27.30	290.00	4.50	71.00	4.30	12725	3463.00	27.80	27.80	1580070059.0	5.23	9.69
26/01/2020 20:21:00	26012020	260120	202100	179.870	12.183018	-56.116335	179.940	-0.160	0.090	-1.040	179.870	-1.200	-0.700																			1580070060.0	5.54	10.26
26/01/2020 20:21:01	26012020	260120	202101	179.860	12.182992	-56.116340	179.960	0.190	0.000	-0.330	179.860	-1.300	0.000																			1580070061.0	5.64	10.45
26/01/2020 20:21:02	26012020	260120	202102	179.980	12.182967	-56.116345	180.110	0.340	0.100	0.370	179.980	-1.200	0.700																			1580070062.0	5.38	9.96
26/01/2020 20:21:03	26012020	260120	202103	180.300	12.182945	-56.116350	180.450	0.230	0.210	0.840	180.300	-1.100	1.200																			1580070063.0	5.06	9.37
26/01/2020 20:21:04	26012020	260120	202104	180.710	12.182922	-56.116355	180.870	0.010	0.110	1.100	180.710	-1.200	1.400																			1580070064.0	4.95	9.17
26/01/2020 20:21:05	26012020	260120	202105	181.050	12.182898	-56.116360	181.210	-0.040	-0.220	1.190	181.050	-1.500	1.500																			1580070065.0	5.10	9.45
26/01/2020 20:21:06	26012020	260120	202106	181.350	12.182875	-56.116365	181.520	0.180	-0.460	0.960	181.350	-1.800	1.300																			1580070066.0	5.33	9.87
26/01/2020 20:21:07	26012020	260120	202107	181.750	12.182850	-56.116367	181.910	0.470	-0.380	0.260	181.750	-1.700	0.600																			1580070067.0	5.22	9.67
26/01/2020 20:21:08	26012020	260120	202108	182.190	12.182828	-56.116365	182.340	0.520	-0.220	-0.680	182.190	-1.600	-0.400																			1580070068.0	4.94	9.15
26/01/2020 20:21:09	26012020	260120	202109	182.520	12.182805	-56.116358	182.620	0.230	-0.390	-1.310	182.520	-1.700	-1.000																			1580070069.0	5.02	9.30
26/01/2020 20:21:10	26012020	260120	202110	182.590	12.182780	-56.116355	182.650	-0.180	-0.760	-1.310	182.590	-2.100	-1.000																			1580070070.0	5.31	9.83
26/01/2020 20:21:11	26012020	260120	202111	182.520	12.182755	-56.116357	182.580	-0.400	-0.800	-0.890	182.520	-2.100	-0.600																			1580070071.0	5.59	10.35
26/01/2020 20:21:12	26012020	260120	202112	182.470	12.182730	-56.116362	182.530	-0.360	-0.320	-0.350	182.470	-1.600	-0.000																			1580070072.0	5.49	10.17
26/01/2020 20:21:13	26012020	260120	202113	182.560	12.182707	-56.116368	182.690	-0.220	0.320	0.020	182.610	-1.000	0.300																			1580070073.0	5.11	9.46
26/01/2020 20:21:14	26012020	260120	202114	183.010	12.182683	-56.116373	183.110	-0.150	0.650	0.120	183.010	-0.700	0.400																			1580070074.0	4.92	9.11
26/01/2020 20:21:15	26012020	260120	202115	183.330	12.182660	-56.116377	183.500	-0.120	0.420	0.230	183.390	-0.900	0.500																			1580070075.0	5.12	9.48
26/01/2020 20:21:16	26012020	260120	202116	183.590	12.182635	-56.116382	183.710	0.010	-0.120	0.480	183.590	-1.500	0.800																			1580070076.0	5.60	10.37
26/01/2020 20:21:17	26012020	260120	202117	183.780	12.182608	-56.116387	183.890	0.170	-0.410	0.640	183.780	-1.700	0.900																			1580070077.0	5.88	10.89
26/01/2020 20:21:18	26012020	260120	202118	184.050	12.182582	-56.116390	184.180	0.200	-0.240	0.570	184.050	-1.600	0.900																			1580070078.0	5.54	10.26
26/01/2020 20:21:19	26012020	260120	202119	184.380	12.182560	-56.116392	184.510	0.060	0.030	0.310	184.380	-1.300	0.600																			1580070079.0	4.99	9.24
26/01/2020 20:21:20	26012020	260120	202120	184.720	12.182537	-56.116393	184.820	-0.130	0.050	-0.060	184.720	-1.300	0.300																			1580070080.0	4.84	8.96
26/01/2020 20:21:21	26012020	260120	202121	184.990	12.182513	-56.116397	185.090	-0.160	-0.230	-0.370	184.990	-1.600	-0.000																			1580070081.0	5.10	9.45
26/01/2020 20:21:22	26012020	260120	202122	185.220	12.182488	-56.116398	185.320	0.020	-0.490	-0.560	185.220	-1.800	-0.200																			1580070082.0	5.47	10.13
26/01/2020 20:21:23	26012020	260120	202123	185.570	12.182462	-56.116402	185.680	0.260	-0.430	-0.840	185.570	-1.800	-0.500																			1580070083.0	5.54	10.26
26/01/2020 20:21:24	26012020	260120	202124	186.010	12.182438	-56.116402	186.120	0.330	-0.180	-1.100	186.010	-1.500	-0.800																			1580070084.0	5.27	9.76
26/01/2020 20:21:25	26012020	260120	202125	186.380	12.182415	-56.116403	186.490	0.160	-0.030	-1.090	186.380	-1.400	-0.800																			1580070085.0	5.08	9.41
26/01/2020 20:21:26	26012020	260120	202126	186.590	12.182390	-56.116405	186.670	-0.100	-0.120	-0.680	186.590	-1.400	-0.400																			1580070086.0	5.19	9.61
26/01/2020 20:21:27	26012020	260120	202127	186.620	12.182365	-56.116410	186.700	-0.220	-0.250	0.020	186.620	-1.600	0.400																			1580070087.0	5.49	10.17
26/01/2020 20:21:28	26012020	260120	202128	186.630	12.182340	-56.116418	186.730	-0.150	-0.220	0.700	186.630	-1.600	1.000																			1580070088.0	5.68	10.52
26/01/2020 20:21:29	26012020	260120	202129	186.790	12.182315	-56.116427	186.910	-0.020	0.030	1.010	186.790	-1.300	1.300																			1580070089.0	5.57	10.32
26/01/2020 20:21:30	26012020	260120	202130	187.140	12.182292	-56.116435	187.270	0.060	0.240	0.810	187.140	-1.100	1.100																			1580070090.0	5.26	9.74
26/01/2020 20:21:31	26012020	260120	202131	187.580	12.182268	-56.116438	187.690	0.060	0.080	0.310	187.580	-1.300	0.600																			1580070091.0	5.15	9.54
26/01/2020 20:21:32	26012020	260120	202132	187.860	12.182243	-56.116440	187.970	-0.030	-0.500	-0.030	187.860	-1.800	0.300																			1580070092.0	5.48	10.15
26/01/2020 20:21:33	26012020	260120	202133	188.000	12.182215	-56.116443	188.090	-0.180	-0.960	-0.150	188.000	-2.300	0.200																			1580070093.0	5.95	11.02
26/01/2020 20:21:34	26012020	260120	202134	188.090	12.182188	-56.116448	188.180	-0.310	-0.800	-0.200	188.090	-2.100	0.100																			1580070094.0	5.94	11.00
26/01/2020 20:21:35	26012020	260120	202135	188.210	12.182163	-56.116453	188.300	-0.270	-0.110	-0.340	188.210	-1.400	-0.000																			1580070095.0	5.43	10.06
26/01/2020 20:21:36	26012020	260120	202136	188.510	12.182142	-56.116458	188.600	-0.070	0.630	-0.700	188.510	-0.700	-0.400																			1580070096.0	4.98	9.22
26/01/2020 20:21:37	26012020	260120	202137	189.040	12.182118	-56.116458	189.140	0.120	0.950	-1.180	189.040	-0.400	-0.900																			1580070097.0	4.94	9.15
26/01/2020 20:21:38	26012020	260120	202138	189.570	12.182093	-56.116460	189.650	0.200	0.620	-1.300	189.570	-0.700	-1.000																			1580070098.0	5.24	9.70
26/01/2020 20:21:39	26012020	260120	202139	189.820	12.182067	-56.116463	189.880	0.210	-0.180	-0.800	189.820	-1.500	-0.500																			1580070099.0	5.66	10.48
26/01/2020 20:21:40	26012020	260120	202140	189.880	12.182040	-56.116472	189.950	0.230	-0.790	0.060	189.880	-2.100	0.400																			1580070100.0	6.07	11.24
26/01/2020 20:21:41	26012020	260120	202141	189.960	12.182015	-56.116483	190.070	0.270	-0.810	0.800	189.960	-2.100	1.100																			1580070101.0	5.99	11.09
26/01/2020 20:21:42	26012020	260120	202142	190.200	12.181992	-56.116493	190.340	0.260	-0.490	1.070	190.200	-1.800	1.400																			1580070102.0	5.41	10.02
26/01/2020 20:21:43	26012020	260120	202143	190.540	12.181970	-56.116500	190.690	0.170	-0.340	0.890	190.540	-1.700	1.200																			1580070103.0	5.02	9.30
26/01/2020 20:21:44	26012020	260120	202144	190.880	12.181945	-56.116503	191.000	-0.020	-0.490	0.500	190.880	-1.800	0.800																			1580070104.0	5.32	9.85
26/01/2020 20:21:45	26012020	260120	202145	191.140	12.181918	-56.116507	191.260	-0.300	-0.580	0.180	191.140	-1.900	0.500																			1580070105.0	5.80	10.74
26/01/2020 20:21:46	26012020	260120	202146	191.340	12.181892	-56.116510	191.470	-0.570	-0.350	0.010	191.340	-1.700	0.300																			1580070106.0	5.88	10.89
26/01/2020 20:21:47	26012020	260120	202147	191.560	12.181865	-56.116515	191.670	-0.690	0.130	-0.130	191.560	-1.200	0.200																			1580070107.0	5.60	10.37
26/01/2020 20:21:48	26012020	260120	202148	191.780	12.181842	-56.116522	191.900	-0.540	0.480	-0.280	191.780	-0.800	0.000																			1580070108.0	5.37	9.95
26/01/2020 20:21:49	26012020	260120	202149	192.040	12.181817	-56.116530	192.140	-0.090	0.510	-0.530	192.040	-0.800	-0.200																			1580070109.0	5.46	10.11
26/01/2020 20:21:50	26012020	260120	202150	192.400	12.181792	-56.116535	192.510	0.430	0.290	-0.940	192.400	-1.000	-0.600																			1580070110.0	5.70	10.56
26/01/2020 20:21:51	26012020	260120	202151	192.940	12.181765	-56.116540	193.050	0.670	-0.020	-1.380	192.940	-1.300	-1.100																			1580070111.0	5.86	10.85
26/01/2020 20:21:52	26012020	260120	202152	193.510	12.181738	-56.116543	193.630	0.470	-0.300	-1.520	193.510	-1.600	-1.200																			1580070112.0	5.83	10.80
26/01/2020 20:21:53	26012020	260120	202153	193.980	12.181712	-56.116548	194.070	0.010	-0.490	-1.220	193.980	-1.800	-0.900																			1580070113.0	5.68	10.52
26/01/2020 20:21:54	26012020	260120	202154	194.310	12.181687	-56.116557	194.400	-0.370	-0.460	-0.620	194.310	-1.800	-0.300																			1580070114.0	5.61	10.39
26/01/2020 20:21:55	26012020	260120	202155	194.530	12.181663	-56.116567	194.630	-0.400	-0.200	0.050	194.530	-1.500	0.400																			1580070115.0	5.50	10.19
26/01/2020 20:21:56	26012020	260120	202156	194.670	12.181642	-56.116578	194.780	-0.080	0.030	0.490	194.670	-1.300	0.800																			1580070116.0	5.35	9.91
26/01/2020 20:21:57	26012020	260120	202157	194.780	12.181618	-56.116587	194.890	0.310	0.040	0.710	194.780	-1.300	1.000																			1580070117.0	5.36	9.93
26/01/2020 20:21:58	26012020	260120	202158	194.870	12.181592	-56.116593	194.990	0.500	-0.150	0.800	194.870	-1.500	1.100																			1580070118.0	5.59	10.35
26/01/2020 20:21:59	26012020	260120	202159	195.000	12.181567	-56.116600	195.130	0.360	-0.410	0.790	195.000	-1.700	1.100	1013.90	26.20	26.30	21.10	21.20	154.00	73.00	73.00	394.00	27.30	284.00	4.30	74.00	4.50	12502	3360.00	27.80	27.80	1580070119.0	5.77	10.69
26/01/2020 20:22:00	26012020	260120	202200	195.200	12.181540	-56.116607	195.330	0.060	-0.590	0.650	195.200	-1.900	1.000																			1580070120.0	5.82	10.78
26/01/2020 20:22:01	26012020	260120	202201	195.500	12.181515	-56.116617	195.630	-0.170	-0.590	0.400	195.500	-1.900	0.700																			1580070121.0	5.79	10.72
26/01/2020 20:22:02	26012020	260120	202202	195.930	12.181490	-56.116625	196.070	-0.250	-0.440	-0.050	195.930	-1.800	0.300																			1580070122.0	5.73	10.61
26/01/2020 20:22:03	26012020	260120	202203	196.340	12.181465	-56.116633	196.570	-0.240	-0.200	-0.670	196.440	-1.500	-0.400																			1580070123.0	5.70	10.56
26/01/2020 20:22:04	26012020	260120	202204	196.980	12.181438	-56.116640	197.090	-0.220	0.080	-1.380	196.980	-1.200	-1.100																			1580070124.0	5.71	10.57
26/01/2020 20:22:05	26012020	260120	202205	197.380	12.181412	-56.116643	197.560	-0.210	0.280	-1.940	197.470	-1.000	-1.600																			1580070125.0	5.76	10.67
26/01/2020 20:22:06	26012020	260120	202206	197.840	12.181385	-56.116648	197.910	-0.200	0.300	-2.060	197.840	-1.000	-1.700																			1580070126.0	5.85	10.83
26/01/2020 20:22:07	26012020	260120	202207	198.020	12.181358	-56.116653	198.080	-0.190	0.190	-1.600	198.020	-1.100	-1.300																			1580070127.0	5.90	10.93
26/01/2020 20:22:08	26012020	260120	202208	198.070	12.181332	-56.116662	198.140	-0.160	0.110	-0.690	198.070	-1.200	-0.400																			1580070128.0	5.87	10.87
26/01/2020 20:22:09	26012020	260120	202209	198.150	12.181308	-56.116675	198.240	-0.050	0.130	0.340	198.150	-1.200	0.700																			1580070129.0	5.80	10.74
26/01/2020 20:22:10	26012020	260120	202210	198.310	12.181287	-56.116690	198.420	0.180	0.130	1.140	198.310	-1.200	1.400																			1580070130.0	5.68	10.52
26/01/2020 20:22:11	26012020	260120	202211	198.530	12.181265	-56.116703	198.650	0.470	-0.130	1.590	198.530	-1.500	1.900																			1580070131.0	5.56	10.30
26/01/2020 20:22:12	26012020	260120	202212	198.760	12.181242	-56.116717	198.890	0.680	-0.570	1.610	198.760	-1.900	1.900																			1580070132.0	5.72	10.59
26/01/2020 20:22:13	26012020	260120	202213	199.080	12.181217	-56.116727	199.220	0.710	-0.820	1.110	199.080	-2.100	1.400																			1580070133.0	5.92	10.96
26/01/2020 20:22:14	26012020	260120	202214	199.650	12.181190	-56.116735	199.800	0.470	-0.710	0.120	199.650	-2.000	0.400																			1580070134.0	5.85	10.83
26/01/2020 20:22:15	26012020	260120	202215	200.330	12.181163	-56.116738	200.440	0.010	-0.570	-0.910	200.330	-1.900	-0.600																			1580070135.0	5.68	10.52
26/01/2020 20:22:16	26012020	260120	202216	200.810	12.181137	-56.116742	200.880	-0.460	-0.620	-1.530	200.810	-1.900	-1.200																			1580070136.0	5.79	10.72
26/01/2020 20:22:17	26012020	260120	202217	201.000	12.181110	-56.116748	201.040	-0.710	-0.620	-1.640	201.000	-1.900	-1.300																			1580070137.0	6.07	11.24
26/01/2020 20:22:18	26012020	260120	202218	201.010	12.181082	-56.116758	201.040	-0.710	-0.220	-1.350	201.010	-1.500	-1.000																			1580070138.0	6.18	11.45
26/01/2020 20:22:19	26012020	260120	202219	201.020	12.181057	-56.116770	201.060	-0.580	0.500	-0.890	201.020	-0.800	-0.600																			1580070139.0	5.88	10.89
26/01/2020 20:22:20	26012020	260120	202220	201.180	12.181035	-56.116782	201.230	-0.380	1.040	-0.450	201.180	-0.300	-0.100																			1580070140.0	5.54	10.26
26/01/2020 20:22:21	26012020	260120	202221	201.480	12.181012	-56.116793	201.530	-0.070	0.990	-0.120	201.480	-0.300	0.200																			1580070141.0	5.59	10.35
26/01/2020 20:22:22	26012020	260120	202222	201.900	12.180987	-56.116807	201.960	0.340	0.440	0.070	201.900	-0.900	0.400																			1580070142.0	5.92	10.96
26/01/2020 20:22:23	26012020	260120	202223	202.350	12.180960	-56.116818	202.410	0.670	-0.290	0.180	202.350	-1.600	0.500																			1580070143.0	6.19	11.46
26/01/2020 20:22:24	26012020	260120	202224	202.730	12.180935	-56.116832	202.790	0.700	-0.840	0.300	202.730	-2.200	0.600																			1580070144.0	6.21	11.50
26/01/2020 20:22:25	26012020	260120	202225	203.080	12.180910	-56.116843	203.130	0.450	-0.980	0.300	203.080	-2.300	0.600																			1580070145.0	5.99	11.09
26/01/2020 20:22:26	26012020	260120	202226	203.410	12.180885	-56.116855	203.460	0.070	-0.790	0.140	203.410	-2.100	0.400																			1580070146.0	5.65	10.46
26/01/2020 20:22:27	26012020	260120	202227	203.720	12.180862	-56.116865	203.770	-0.220	-0.490	-0.130	203.720	-1.800	0.200																			1580070147.0	5.48	10.15
26/01/2020 20:22:28	26012020	260120	202228	204.070	12.180837	-56.116873	204.130	-0.350	-0.180	-0.480	204.070	-1.500	-0.200																			1580070148.0	5.60	10.37
26/01/2020 20:22:29	26012020	260120	202229	204.410	12.180812	-56.116882	204.550	-0.320	0.070	-0.790	204.480	-1.200	-0.500																			1580070149.0	5.73	10.61
26/01/2020 20:22:30	26012020	260120	202230	204.880	12.180787	-56.116892	204.930	-0.160	0.140	-0.900	204.880	-1.200	-0.600																			1580070150.0	5.81	10.76
26/01/2020 20:22:31	26012020	260120	202231	205.140	12.180762	-56.116903	205.180	0.110	0.010	-0.750	205.140	-1.300	-0.400																			1580070151.0	5.98	11.07
26/01/2020 20:22:32	26012020	260120	202232	205.300	12.180735	-56.116915	205.330	0.320	-0.160	-0.450	205.300	-1.500	-0.100																			1580070152.0	6.16	11.41
26/01/2020 20:22:33	26012020	260120	202233	205.460	12.180710	-56.116930	205.500	0.290	-0.160	-0.160	205.460	-1.500	0.200																			1580070153.0	6.17	11.43
26/01/2020 20:22:34	26012020	260120	202234	205.690	12.180687	-56.116943	205.730	0.020	-0.050	0.090	205.690	-1.400	0.400																			1580070154.0	5.99	11.09
26/01/2020 20:22:35	26012020	260120	202235	205.970	12.180662	-56.116957	206.030	-0.330	0.080	0.210	205.970	-1.200	0.500																			1580070155.0	5.82	10.78
26/01/2020 20:22:36	26012020	260120	202236	206.360	12.180640	-56.116970	206.420	-0.530	0.120	0.150	206.360	-1.200	0.400																			1580070156.0	5.79	10.72
26/01/2020 20:22:37	26012020	260120	202237	206.840	12.180615	-56.116985	206.900	-0.400	0.060	-0.100	206.840	-1.300	0.200																			1580070157.0	5.83	10.80
26/01/2020 20:22:38	26012020	260120	202238	207.360	12.180592	-56.116997	207.420	0.050	-0.100	-0.550	207.360	-1.400	-0.300																			1580070158.0	5.90	10.93
26/01/2020 20:22:39	26012020	260120	202239	207.790	12.180565	-56.117008	207.830	0.550	-0.400	-1.000	207.790	-1.700	-0.700																			1580070159.0	5.99	11.09
26/01/2020 20:22:40	26012020	260120	202240	208.040	12.180538	-56.117018	208.060	0.750	-0.730	-1.210	208.040	-2.100	-0.900																			1580070160.0	6.17	11.43
26/01/2020 20:22:41	26012020	260120	202241	208.160	12.180512	-56.117028	208.210	0.510	-0.850	-1.070	208.190	-2.200	-0.800																			1580070161.0	6.28	11.63
26/01/2020 20:22:42	26012020	260120	202242	208.430	12.180485	-56.117042	208.470	-0.060	-0.540	-0.710	208.430	-1.900	-0.400																			1580070162.0	6.16	11.41
26/01/2020 20:22:43	26012020	260120	202243	208.850	12.180463	-56.117057	208.890	-0.620	0.050	-0.300	208.850	-1.300	0.000																			1580070163.0	5.88	10.89
26/01/2020 20:22:44	26012020	260120	202244	209.330	12.180442	-56.117075	209.400	-0.800	0.550	-0.010	209.330	-0.800	0.300																			1580070164.0	5.76	10.67
26/01/2020 20:22:45	26012020	260120	202245	209.810	12.180422	-56.117092	209.870	-0.460	0.740	0.020	209.810	-0.600	0.300																			1580070165.0	5.85	10.83
26/01/2020 20:22:46	26012020	260120	202246	210.130	12.180397	-56.117107	210.170	0.160	0.530	-0.140	210.130	-0.800	0.200																			1580070166.0	6.04	11.19
26/01/2020 20:22:47	26012020	260120	202247	210.240	12.180372	-56.117120	210.270	0.660	0.030	-0.300	210.240	-1.300	0.000																			1580070167.0	6.30	11.67
26/01/2020 20:22:48	26012020	260120	202248	210.230	12.180343	-56.117132	210.270	0.760	-0.460	-0.380	210.230	-1.800	-0.100																			1580070168.0	6.50	12.04
26/01/2020 20:22:49	26012020	260120	202249	210.330	12.180317	-56.117145	210.380	0.480	-0.650	-0.390	210.330	-2.000	-0.100																			1580070169.0	6.37	11.80
26/01/2020 20:22:50	26012020	260120	202250	210.690	12.180292	-56.117160	210.760	0.040	-0.580	-0.340	210.690	-1.900	-0.000																			1580070170.0	6.04	11.19
26/01/2020 20:22:51	26012020	260120	202251	211.240	12.180270	-56.117175	211.320	-0.320	-0.530	-0.210	211.240	-1.900	0.100																			1580070171.0	5.84	10.82
26/01/2020 20:22:52	26012020	260120	202252	211.830	12.180247	-56.117192	211.930	-0.450	-0.600	-0.130	211.830	-1.900	0.200																			1580070172.0	6.07	11.24
26/01/2020 20:22:53	26012020	260120	202253	212.270	12.180225	-56.117212	212.450	-0.330	-0.580	-0.180	212.360	-1.900	0.100																			1580070173.0	6.38	11.82
26/01/2020 20:22:54	26012020	260120	202254	212.770	12.180200	-56.117228	212.850	-0.110	-0.330	-0.370	212.770	-1.600	-0.100																			1580070174.0	6.44	11.93
26/01/2020 20:22:55	26012020	260120	202255	213.010	12.180175	-56.117243	213.130	0.010	0.110	-0.610	213.060	-1.200	-0.300																			1580070175.0	6.33	11.72
26/01/2020 20:22:56	26012020	260120	202256	213.280	12.180148	-56.117257	213.340	-0.020	0.490	-0.850	213.280	-0.800	-0.500																			1580070176.0	6.24	11.56
26/01/2020 20:22:57	26012020	260120	202257	213.500	12.180122	-56.117270	213.580	-0.100	0.620	-0.950	213.500	-0.700	-0.600																			1580070177.0	6.26	11.59
26/01/2020 20:22:58	26012020	260120	202258	213.710	12.180095	-56.117283	213.790	-0.100	0.450	-0.760	213.710	-0.900	-0.400																			1580070178.0	6.36	11.78
26/01/2020 20:22:59	26012020	260120	202259	213.860	12.180070	-56.117300	213.950	-0.000	0.070	-0.310	213.860	-1.300	0.000	1013.90	26.20	26.20	21.00	21.10	151.00	73.00	73.00	395.00	27.30	271.00	3.10	71.00	4.40	12283	3536.00	27.80	27.80	1580070179.0	6.50	12.04
26/01/2020 20:23:00	26012020	260120	202300	214.040	12.180047	-56.117320	214.150	0.140	-0.280	0.210	214.040	-1.600	0.500																			1580070180.0	6.60	12.22
26/01/2020 20:23:01	26012020	260120	202301	214.340	12.180023	-56.117340	214.480	0.260	-0.490	0.550	214.340	-1.800	0.900																			1580070181.0	6.55	12.13
26/01/2020 20:23:02	26012020	260120	202302	214.750	12.180002	-56.117360	214.890	0.340	-0.550	0.580	214.750	-1.900	0.900																			1580070182.0	6.37	11.80
26/01/2020 20:23:03	26012020	260120	202303	215.210	12.179980	-56.117378	215.330	0.370	-0.510	0.290	215.210	-1.800	0.600																			1580070183.0	6.22	11.52
26/01/2020 20:23:04	26012020	260120	202304	215.690	12.179955	-56.117395	215.790	0.310	-0.410	-0.210	215.690	-1.700	0.100																			1580070184.0	6.23	11.54
26/01/2020 20:23:05	26012020	260120	202305	216.110	12.179930	-56.117410	216.210	0.120	-0.300	-0.750	216.110	-1.600	-0.400																			1580070185.0	6.34	11.74
26/01/2020 20:23:06	26012020	260120	202306	216.470	12.179903	-56.117425	216.560	-0.170	-0.190	-1.160	216.470	-1.500	-0.800																			1580070186.0	6.47	11.98
26/01/2020 20:23:07	26012020	260120	202307	216.810	12.179877	-56.117440	216.900	-0.430	-0.080	-1.350	216.810	-1.400	-1.000																			1580070187.0	6.54	12.11
26/01/2020 20:23:08	26012020	260120	202308	217.090	12.179852	-56.117457	217.170	-0.510	-0.050	-1.290	217.090	-1.400	-1.000																			1580070188.0	6.56	12.15
26/01/2020 20:23:09	26012020	260120	202309	217.310	12.179825	-56.117475	217.390	-0.390	-0.090	-0.980	217.310	-1.400	-0.700																			1580070189.0	6.66	12.33
26/01/2020 20:23:10	26012020	260120	202310	217.550	12.179802	-56.117495	217.660	-0.170	-0.070	-0.580	217.550	-1.400	-0.300																			1580070190.0	6.74	12.48
26/01/2020 20:23:11	26012020	260120	202311	217.820	12.179777	-56.117515	217.930	0.050	-0.030	-0.140	217.820	-1.400	0.200																			1580070191.0	6.66	12.33
26/01/2020 20:23:12	26012020	260120	202312	218.110	12.179755	-56.117535	218.240	0.210	-0.000	0.230	218.110	-1.300	0.500																			1580070192.0	6.62	12.26
26/01/2020 20:23:13	26012020	260120	202313	218.520	12.179732	-56.117557	218.670	0.280	0.020	0.390	218.520	-1.300	0.700																			1580070193.0	6.60	12.22
26/01/2020 20:23:14	26012020	260120	202314	219.010	12.179708	-56.117578	219.160	0.260	-0.060	0.340	219.010	-1.400	0.600																			1580070194.0	6.56	12.15
26/01/2020 20:23:15	26012020	260120	202315	219.430	12.179685	-56.117598	219.560	0.180	-0.290	0.150	219.430	-1.600	0.400																			1580070195.0	6.62	12.26
26/01/2020 20:23:16	26012020	260120	202316	219.680	12.179662	-56.117618	219.790	0.080	-0.500	-0.070	219.680	-1.800	0.200																			1580070196.0	6.79	12.58
26/01/2020 20:23:17	26012020	260120	202317	219.850	12.179635	-56.117637	219.970	-0.040	-0.400	-0.370	219.850	-1.700	-0.100																			1580070197.0	6.88	12.74
26/01/2020 20:23:18	26012020	260120	202318	220.120	12.179610	-56.117655	220.240	-0.180	0.020	-0.770	220.120	-1.300	-0.500																			1580070198.0	6.66	12.33
26/01/2020 20:23:19	26012020	260120	202319	220.500	12.179585	-56.117672	220.620	-0.260	0.340	-1.140	220.500	-1.000	-0.800																			1580070199.0	6.36	11.78
26/01/2020 20:23:20	26012020	260120	202320	220.960	12.179560	-56.117688	221.070	-0.160	0.340	-1.350	220.960	-1.000	-1.000																			1580070200.0	6.44	11.93
26/01/2020 20:23:21	26012020	260120	202321	221.450	12.179535	-56.117708	221.560	0.070	0.090	-1.470	221.450	-1.200	-1.200																			1580070201.0	6.70	12.41
26/01/2020 20:23:22	26012020	260120	202322	221.880	12.179510	-56.117728	221.970	0.280	-0.260	-1.400	221.880	-1.600	-1.100																			1580070202.0	6.87	12.72
26/01/2020 20:23:23	26012020	260120	202323	222.120	12.179485	-56.117748	222.210	0.340	-0.690	-0.940	222.120	-2.000	-0.600																			1580070203.0	6.92	12.82
26/01/2020 20:23:24	26012020	260120	202324	222.250	12.179462	-56.117772	222.360	0.160	-0.920	-0.220	222.250	-2.200	0.100																			1580070204.0	7.02	13.00
26/01/2020 20:23:25	26012020	260120	202325	222.460	12.179440	-56.117797	222.590	-0.150	-0.780	0.530	222.460	-2.100	0.800																			1580070205.0	6.97	12.91
26/01/2020 20:23:26	26012020	260120	202326	222.730	12.179420	-56.117822	222.890	-0.340	-0.420	1.050	222.730	-1.700	1.300																			1580070206.0	6.77	12.54
26/01/2020 20:23:27	26012020	260120	202327	223.030	12.179400	-56.117845	223.190	-0.250	-0.100	1.150	223.030	-1.400	1.400																			1580070207.0	6.70	12.41
26/01/2020 20:23:28	26012020	260120	202328	223.410	12.179378	-56.117868	223.580	-0.040	0.130	0.730	223.410	-1.200	1.000																			1580070208.0	6.85	12.69
26/01/2020 20:23:29	26012020	260120	202329	223.880	12.179353	-56.117890	224.020	0.050	0.280	0.010	223.880	-1.100	0.300																			1580070209.0	7.01	12.98
26/01/2020 20:23:30	26012020	260120	202330	224.250	12.179325	-56.117908	224.370	-0.090	0.260	-0.630	224.250	-1.100	-0.300																			1580070210.0	7.11	13.17
26/01/2020 20:23:31	26012020	260120	202331	224.450	12.179298	-56.117928	224.580	-0.280	0.190	-1.050	224.490	-1.100	-0.800																			1580070211.0	7.16	13.26
26/01/2020 20:23:32	26012020	260120	202332	224.670	12.179273	-56.117950	224.770	-0.310	0.270	-1.330	224.670	-1.100	-1.000																			1580070212.0	7.08	13.11
26/01/2020 20:23:33	26012020	260120	202333	224.930	12.179250	-56.117970	225.030	-0.120	0.390	-1.510	224.930	-0.900	-1.200																			1580070213.0	6.81	12.61
26/01/2020 20:23:34	26012020	260120	202334	225.330	12.179227	-56.117992	225.430	0.190	0.270	-1.580	225.330	-1.100	-1.300																			1580070214.0	6.63	12.28
26/01/2020 20:23:35	26012020	260120	202335	225.870	12.179203	-56.118013	225.980	0.460	-0.140	-1.550	225.870	-1.500	-1.200																			1580070215.0	6.75	12.50
26/01/2020 20:23:36	26012020	260120	202336	226.410	12.179180	-56.118037	226.510	0.540	-0.740	-1.220	226.410	-2.100	-0.900																			1580070216.0	6.96	12.89
26/01/2020 20:23:37	26012020	260120	202337	226.760	12.179158	-56.118062	226.840	0.380	-1.270	-0.570	226.760	-2.600	-0.300																			1580070217.0	7.17	13.28
26/01/2020 20:23:38	26012020	260120	202338	226.960	12.179137	-56.118088	227.030	0.060	-1.350	0.180	226.960	-2.700	0.500																			1580070218.0	7.25	13.43
26/01/2020 20:23:39	26012020	260120	202339	227.170	12.179117	-56.118113	227.250	-0.250	-0.870	0.750	227.170	-2.200	1.000																			1580070219.0	7.05	13.06
26/01/2020 20:23:40	26012020	260120	202340	227.420	12.179097	-56.118138	227.510	-0.380	-0.230	1.080	227.420	-1.500	1.400																			1580070220.0	6.75	12.50
26/01/2020 20:23:41	26012020	260120	202341	227.740	12.179077	-56.118163	227.860	-0.310	0.280	1.100	227.740	-1.000	1.400																			1580070221.0	6.80	12.59
26/01/2020 20:23:42	26012020	260120	202342	228.170	12.179053	-56.118188	228.290	-0.180	0.590	0.800	228.170	-0.700	1.100																			1580070222.0	7.05	13.06
26/01/2020 20:23:43	26012020	260120	202343	228.520	12.179030	-56.118212	228.710	-0.130	0.650	0.320	228.600	-0.700	0.600																			1580070223.0	7.22	13.37
26/01/2020 20:23:44	26012020	260120	202344	228.990	12.179005	-56.118235	229.080	-0.130	0.510	-0.280	228.990	-0.800	0.000																			1580070224.0	7.32	13.56
26/01/2020 20:23:45	26012020	260120	202345	229.280	12.178980	-56.118258	229.410	-0.090	0.250	-0.940	229.350	-1.100	-0.600																			1580070225.0	7.33	13.58
26/01/2020 20:23:46	26012020	260120	202346	229.620	12.178955	-56.118282	229.650	0.020	-0.090	-1.480	229.620	-1.400	-1.200																			1580070226.0	7.29	13.50
26/01/2020 20:23:47	26012020	260120	202347	229.840	12.178930	-56.118305	229.860	0.150	-0.390	-1.770	229.840	-1.700	-1.500																			1580070227.0	7.26	13.45
26/01/2020 20:23:48	26012020	260120	202348	230.120	12.178907	-56.118330	230.140	0.210	-0.500	-1.820	230.120	-1.800	-1.500																			1580070228.0	7.17	13.28
26/01/2020 20:23:49	26012020	260120	202349	230.570	12.178885	-56.118353	230.590	0.180	-0.450	-1.690	230.570	-1.800	-1.400																			1580070229.0	6.97	12.91
26/01/2020 20:23:50	26012020	260120	202350	231.150	12.178863	-56.118378	231.180	0.140	-0.430	-1.400	231.150	-1.800	-1.100																			1580070230.0	6.87	12.72
26/01/2020 20:23:51	26012020	260120	202351	231.700	12.178845	-56.118405	231.740	0.130	-0.550	-0.900	231.700	-1.900	-0.600																			1580070231.0	6.98	12.93
26/01/2020 20:23:52	26012020	260120	202352	232.170	12.178825	-56.118433	232.210	0.100	-0.630	-0.300	232.170	-1.900	-0.000																			1580070232.0	7.28	13.48
26/01/2020 20:23:53	26012020	260120	202353	232.590	12.178805	-56.118462	232.640	-0.040	-0.420	0.230	232.590	-1.700	0.500																			1580070233.0	7.39	13.69
26/01/2020 20:23:54	26012020	260120	202354	232.940	12.178787	-56.118490	233.010	-0.270	0.020	0.570	232.940	-1.300	0.900																			1580070234.0	7.19	13.32
26/01/2020 20:23:55	26012020	260120	202355	233.200	12.178767	-56.118517	233.260	-0.410	0.420	0.640	233.200	-0.900	0.900																			1580070235.0	7.00	12.96
26/01/2020 20:23:56	26012020	260120	202356	233.410	12.178745	-56.118542	233.480	-0.350	0.510	0.510	233.410	-0.800	0.800																			1580070236.0	7.01	12.98
26/01/2020 20:23:57	26012020	260120	202357	233.580	12.178723	-56.118567	233.650	-0.070	0.200	0.250	233.580	-1.100	0.500																			1580070237.0	7.28	13.48
26/01/2020 20:23:58	26012020	260120	202358	233.790	12.178700	-56.118595	233.850	0.260	-0.240	-0.120	233.790	-1.600	0.200																			1580070238.0	7.60	14.08
26/01/2020 20:23:59	26012020	260120	202359	234.040	12.178677	-56.118622	234.100	0.460	-0.520	-0.540	234.040	-1.800	-0.200	1013.90	26.20	26.30	21.10	21.20	147.00	73.00	73.00	395.00	27.30	273.00	2.00	74.00	4.00	12011	3395.00	27.80	27.70	1580070239.0	7.67	14.20
26/01/2020 20:24:00	26012020	260120	202400	234.320	12.178655	-56.118648	234.380	0.390	-0.550	-0.940	234.320	-1.900	-0.600																			1580070240.0	7.47	13.83
26/01/2020 20:24:01	26012020	260120	202401	234.700	12.178633	-56.118677	234.750	0.090	-0.380	-1.270	234.700	-1.700	-1.000																			1580070241.0	7.25	13.43
26/01/2020 20:24:02	26012020	260120	202402	235.140	12.178613	-56.118702	235.210	-0.250	-0.150	-1.510	235.140	-1.500	-1.200																			1580070242.0	7.11	13.17
26/01/2020 20:24:03	26012020	260120	202403	235.620	12.178593	-56.118728	235.690	-0.440	0.020	-1.690	235.620	-1.300	-1.400																			1580070243.0	7.11	13.17
26/01/2020 20:24:04	26012020	260120	202404	236.130	12.178572	-56.118755	236.210	-0.390	0.080	-1.760	236.130	-1.200	-1.500																			1580070244.0	7.21	13.35
26/01/2020 20:24:05	26012020	260120	202405	236.600	12.178550	-56.118782	236.670	-0.180	0.000	-1.600	236.600	-1.300	-1.300																			1580070245.0	7.34	13.59
26/01/2020 20:24:06	26012020	260120	202406	236.930	12.178530	-56.118810	237.000	0.060	-0.210	-1.120	236.930	-1.500	-0.800																			1580070246.0	7.46	13.82
26/01/2020 20:24:07	26012020	260120	202407	237.120	12.178510	-56.118840	237.190	0.210	-0.390	-0.390	237.120	-1.700	-0.100																			1580070247.0	7.56	14.00
26/01/2020 20:24:08	26012020	260120	202408	237.290	12.178492	-56.118872	237.390	0.240	-0.320	0.390	237.290	-1.600	0.700																			1580070248.0	7.56	14.00
26/01/2020 20:24:09	26012020	260120	202409	237.560	12.178477	-56.118902	237.680	0.200	-0.060	1.000	237.560	-1.400	1.300																			1580070249.0	7.36	13.63
26/01/2020 20:24:10	26012020	260120	202410	237.990	12.178462	-56.118932	238.100	0.180	0.160	1.190	237.990	-1.200	1.500																			1580070250.0	7.16	13.26
26/01/2020 20:24:11	26012020	260120	202411	238.490	12.178445	-56.118962	238.610	0.200	0.140	0.830	238.490	-1.200	1.100																			1580070251.0	7.14	13.22
26/01/2020 20:24:12	26012020	260120	202412	239.010	12.178425	-56.118990	239.110	0.190	-0.110	0.040	239.010	-1.400	0.300																			1580070252.0	7.35	13.61
26/01/2020 20:24:13	26012020	260120	202413	239.480	12.178403	-56.119018	239.550	0.090	-0.450	-0.840	239.480	-1.800	-0.600																			1580070253.0	7.64	14.15
26/01/2020 20:24:14	26012020	260120	202414	239.820	12.178378	-56.119045	239.870	-0.090	-0.710	-1.540	239.820	-2.000	-1.200																			1580070254.0	7.78	14.41
26/01/2020 20:24:15	26012020	260120	202415	240.040	12.178355	-56.119073	240.080	-0.270	-0.770	-1.930	240.040	-2.100	-1.600																			1580070255.0	7.76	14.37
26/01/2020 20:24:16	26012020	260120	202416	240.240	12.178333	-56.119102	240.290	-0.390	-0.550	-1.980	240.240	-1.900	-1.700																			1580070256.0	7.64	14.15
26/01/2020 20:24:17	26012020	260120	202417	240.480	12.178313	-56.119130	240.540	-0.410	-0.120	-1.730	240.480	-1.400	-1.400																			1580070257.0	7.47	13.83
26/01/2020 20:24:18	26012020	260120	202418	240.790	12.178297	-56.119160	240.870	-0.330	0.290	-1.240	240.790	-1.000	-0.900																			1580070258.0	7.33	13.58
26/01/2020 20:24:19	26012020	260120	202419	241.210	12.178282	-56.119192	241.320	-0.190	0.510	-0.680	241.210	-0.800	-0.400																			1580070259.0	7.38	13.67
26/01/2020 20:24:20	26012020	260120	202420	241.740	12.178267	-56.119223	241.860	-0.030	0.530	-0.240	241.740	-0.800	0.100																			1580070260.0	7.52	13.93
26/01/2020 20:24:21	26012020	260120	202421	242.260	12.178252	-56.119257	242.510	0.160	0.380	-0.080	242.380	-0.900	0.200																			1580070261.0	7.56	14.00
26/01/2020 20:24:22	26012020	260120	202422	243.040	12.178235	-56.119288	243.150	0.350	0.050	-0.160	243.040	-1.300	0.100																			1580070262.0	7.51	13.91
26/01/2020 20:24:23	26012020	260120	202423	243.560	12.178217	-56.119318	243.650	0.510	-0.450	-0.250	243.560	-1.800	0.000																			1580070263.0	7.56	14.00
26/01/2020 20:24:24	26012020	260120	202424	243.870	12.178198	-56.119348	243.920	0.540	-0.910	-0.170	243.870	-2.200	0.100																			1580070264.0	7.70	14.26
26/01/2020 20:24:25	26012020	260120	202425	244.000	12.178180	-56.119380	244.040	0.430	-1.060	0.070	244.000	-2.400	0.400																			1580070265.0	7.72	14.30
26/01/2020 20:24:26	26012020	260120	202426	244.120	12.178163	-56.119412	244.170	0.180	-0.770	0.250	244.120	-2.100	0.500																			1580070266.0	7.57	14.02
26/01/2020 20:24:27	26012020	260120	202427	244.330	12.178148	-56.119443	244.380	-0.100	-0.220	0.200	244.330	-1.500	0.500																			1580070267.0	7.31	13.54
26/01/2020 20:24:28	26012020	260120	202428	244.670	12.178135	-56.119473	244.720	-0.290	0.240	-0.150	244.670	-1.100	0.100																			1580070268.0	7.19	13.32
26/01/2020 20:24:29	26012020	260120	202429	245.130	12.178117	-56.119505	245.180	-0.380	0.390	-0.740	245.130	-0.900	-0.500																			1580070269.0	7.37	13.65
26/01/2020 20:24:30	26012020	260120	202430	245.610	12.178098	-56.119535	245.650	-0.410	0.240	-1.370	245.610	-1.100	-1.100																			1580070270.0	7.71	14.28
26/01/2020 20:24:31	26012020	260120	202431	246.060	12.178077	-56.119567	246.090	-0.410	-0.010	-1.860	246.060	-1.300	-1.600																			1580070271.0	7.98	14.78
26/01/2020 20:24:32	26012020	260120	202432	246.500	12.178057	-56.119597	246.530	-0.340	-0.160	-2.070	246.500	-1.500	-1.800																			1580070272.0	7.98	14.78
26/01/2020 20:24:33	26012020	260120	202433	246.970	12.178038	-56.119628	247.010	-0.160	-0.210	-1.910	246.970	-1.500	-1.600																			1580070273.0	7.76	14.37
26/01/2020 20:24:34	26012020	260120	202434	247.450	12.178023	-56.119662	247.510	0.100	-0.300	-1.350	247.450	-1.600	-1.100																			1580070274.0	7.59	14.06
26/01/2020 20:24:35	26012020	260120	202435	247.840	12.178010	-56.119695	248.000	0.370	-0.430	-0.470	247.930	-1.700	-0.200																			1580070275.0	7.64	14.15
26/01/2020 20:24:36	26012020	260120	202436	248.330	12.178000	-56.119730	248.420	0.510	-0.490	0.470	248.330	-1.800	0.800																			1580070276.0	7.78	14.41
26/01/2020 20:24:37	26012020	260120	202437	248.620	12.177992	-56.119765	248.720	0.450	-0.370	1.160	248.620	-1.700	1.400																			1580070277.0	7.74	14.33
26/01/2020 20:24:38	26012020	260120	202438	248.870	12.177982	-56.119800	248.980	0.270	-0.170	1.330	248.870	-1.500	1.600																			1580070278.0	7.57	14.02
26/01/2020 20:24:39	26012020	260120	202439	249.220	12.177968	-56.119833	249.340	0.050	-0.020	0.940	249.220	-1.300	1.200																			1580070279.0	7.50	13.89
26/01/2020 20:24:40	26012020	260120	202440	249.680	12.177952	-56.119865	249.770	-0.130	0.100	0.100	249.680	-1.200	0.400																			1580070280.0	7.62	14.11
26/01/2020 20:24:41	26012020	260120	202441	250.180	12.177933	-56.119897	250.270	-0.280	0.210	-0.920	250.180	-1.100	-0.600																			1580070281.0	7.76	14.37
26/01/2020 20:24:42	26012020	260120	202442	250.640	12.177913	-56.119927	250.710	-0.390	0.170	-1.740	250.640	-1.100	-1.400																			1580070282.0	7.83	14.50
26/01/2020 20:24:43	26012020	260120	202443	251.030	12.177893	-56.119958	251.090	-0.410	-0.070	-2.100	251.030	-1.400	-1.800																			1580070283.0	7.88	14.59
26/01/2020 20:24:44	26012020	260120	202444	251.370	12.177875	-56.119992	251.430	-0.260	-0.330	-1.940	251.370	-1.600	-1.600																			1580070284.0	7.94	14.70
26/01/2020 20:24:45	26012020	260120	202445	251.680	12.177862	-56.120027	251.740	0.020	-0.410	-1.390	251.680	-1.700	-1.100																			1580070285.0	7.86	14.56
26/01/2020 20:24:46	26012020	260120	202446	251.950	12.177852	-56.120060	252.030	0.320	-0.320	-0.680	251.950	-1.600	-0.400																			1580070286.0	7.65	14.17
26/01/2020 20:24:47	26012020	260120	202447	252.280	12.177843	-56.120095	252.370	0.520	-0.260	-0.040	252.280	-1.600	0.300																			1580070287.0	7.50	13.89
26/01/2020 20:24:48	26012020	260120	202448	252.720	12.177835	-56.120130	252.830	0.580	-0.330	0.430	252.720	-1.600	0.700																			1580070288.0	7.55	13.98
26/01/2020 20:24:49	26012020	260120	202449	253.240	12.177827	-56.120165	253.340	0.500	-0.460	0.620	253.240	-1.800	0.900																			1580070289.0	7.71	14.28
26/01/2020 20:24:50	26012020	260120	202450	253.760	12.177817	-56.120200	253.860	0.270	-0.530	0.500	253.760	-1.800	0.800																			1580070290.0	7.83	14.50
26/01/2020 20:24:51	26012020	260120	202451	254.210	12.177805	-56.120237	254.300	-0.130	-0.400	0.120	254.210	-1.700	0.400																			1580070291.0	7.87	14.58
26/01/2020 20:24:52	26012020	260120	202452	254.570	12.177792	-56.120270	254.630	-0.620	-0.070	-0.460	254.570	-1.400	-0.200																			1580070292.0	7.83	14.50
26/01/2020 20:24:53	26012020	260120	202453	254.880	12.177775	-56.120303	254.930	-1.000	0.320	-1.130	254.880	-1.000	-0.800																			1580070293.0	7.75	14.35
26/01/2020 20:24:54	26012020	260120	202454	255.260	12.177758	-56.120335	255.310	-1.060	0.510	-1.760	255.260	-0.800	-1.500																			1580070294.0	7.77	14.39
26/01/2020 20:24:55	26012020	260120	202455	255.760	12.177740	-56.120368	255.810	-0.720	0.380	-2.180	255.760	-0.900	-1.900																			1580070295.0	7.93	14.69
26/01/2020 20:24:56	26012020	260120	202456	256.310	12.177723	-56.120403	256.360	-0.090	0.020	-2.180	256.310	-1.300	-1.900																			1580070296.0	8.09	14.98
26/01/2020 20:24:57	26012020	260120	202457	256.790	12.177712	-56.120438	256.850	0.580	-0.340	-1.610	256.790	-1.700	-1.300																			1580070297.0	8.08	14.96
26/01/2020 20:24:58	26012020	260120	202458	257.120	12.177703	-56.120475	257.200	1.040	-0.580	-0.550	257.120	-1.900	-0.200																			1580070298.0	7.96	14.74
26/01/2020 20:24:59	26012020	260120	202459	257.300	12.177700	-56.120512	257.420	1.130	-0.650	0.710	257.330	-2.000	1.000	1013.90	26.20	26.30	21.10	21.20	145.00	73.00	73.00	395.00	27.30	279.00	1.00	81.00	3.90	11804	3368.00	27.80	27.80	1580070299.0	7.86	14.56
26/01/2020 20:25:00	26012020	260120	202500	257.460	12.177698	-56.120550	257.570	0.840	-0.490	1.730	257.460	-1.800	2.000																			1580070300.0	7.79	14.43
26/01/2020 20:25:01	26012020	260120	202501	257.580	12.177697	-56.120585	257.690	0.240	-0.150	2.130	257.580	-1.500	2.400																			1580070301.0	7.61	14.09
26/01/2020 20:25:02	26012020	260120	202502	257.770	12.177692	-56.120620	257.880	-0.390	0.140	1.780	257.770	-1.200	2.100																			1580070302.0	7.37	13.65
26/01/2020 20:25:03	26012020	260120	202503	258.150	12.177680	-56.120653	258.250	-0.790	0.180	0.700	258.150	-1.100	1.000																			1580070303.0	7.48	13.85
26/01/2020 20:25:04	26012020	260120	202504	258.750	12.177665	-56.120687	258.820	-0.790	-0.070	-0.760	258.750	-1.400	-0.500																			1580070304.0	7.98	14.78
26/01/2020 20:25:05	26012020	260120	202505	259.470	12.177645	-56.120722	259.540	-0.500	-0.370	-2.150	259.470	-1.700	-1.900																			1580070305.0	8.46	15.67
26/01/2020 20:25:06	26012020	260120	202506	260.230	12.177627	-56.120757	260.280	-0.140	-0.530	-3.000	260.230	-1.800	-2.700																			1580070306.0	8.54	15.82
26/01/2020 20:25:07	26012020	260120	202507	260.900	12.177612	-56.120793	260.940	0.110	-0.460	-3.040	260.900	-1.800	-2.700																			1580070307.0	8.20	15.19
26/01/2020 20:25:08	26012020	260120	202508	261.380	12.177602	-56.120828	261.420	0.190	-0.240	-2.350	261.380	-1.500	-2.000																			1580070308.0	7.83	14.50
26/01/2020 20:25:09	26012020	260120	202509	261.710	12.177598	-56.120865	261.770	0.160	-0.060	-1.230	261.710	-1.400	-0.900																			1580070309.0	7.63	14.13
26/01/2020 20:25:10	26012020	260120	202510	261.930	12.177597	-56.120902	261.990	0.110	-0.040	-0.020	261.930	-1.400	0.300																			1580070310.0	7.69	14.24
26/01/2020 20:25:11	26012020	260120	202511	262.060	12.177595	-56.120938	262.160	0.080	-0.120	0.950	262.090	-1.400	1.300																			1580070311.0	7.86	14.56
26/01/2020 20:25:12	26012020	260120	202512	262.290	12.177592	-56.120975	262.370	0.070	-0.170	1.470	262.290	-1.500	1.800																			1580070312.0	7.97	14.76
26/01/2020 20:25:13	26012020	260120	202513	262.580	12.177588	-56.121013	262.660	0.040	-0.080	1.490	262.580	-1.400	1.800																			1580070313.0	7.94	14.70
26/01/2020 20:25:14	26012020	260120	202514	262.920	12.177582	-56.121050	262.990	-0.030	0.120	1.060	262.920	-1.200	1.400																			1580070314.0	7.81	14.46
26/01/2020 20:25:15	26012020	260120	202515	263.270	12.177572	-56.121085	263.330	-0.100	0.240	0.350	263.270	-1.100	0.600																			1580070315.0	7.70	14.26
26/01/2020 20:25:16	26012020	260120	202516	263.640	12.177562	-56.121120	263.690	-0.130	0.090	-0.490	263.640	-1.200	-0.200																			1580070316.0	7.79	14.43
26/01/2020 20:25:17	26012020	260120	202517	264.110	12.177550	-56.121157	264.170	-0.070	-0.240	-1.380	264.110	-1.500	-1.100																			1580070317.0	8.05	14.91
26/01/2020 20:25:18	26012020	260120	202518	264.740	12.177538	-56.121193	264.780	0.050	-0.500	-2.150	264.740	-1.800	-1.800																			1580070318.0	8.23	15.24
26/01/2020 20:25:19	26012020	260120	202519	265.450	12.177528	-56.121230	265.480	0.160	-0.530	-2.620	265.450	-1.800	-2.300																			1580070319.0	8.15	15.09
26/01/2020 20:25:20	26012020	260120	202520	266.150	12.177520	-56.121267	266.170	0.200	-0.450	-2.640	266.150	-1.800	-2.300																			1580070320.0	7.90	14.63
26/01/2020 20:25:21	26012020	260120	202521	266.710	12.177515	-56.121303	266.720	0.180	-0.340	-2.180	266.710	-1.600	-1.900																			1580070321.0	7.78	14.41
26/01/2020 20:25:22	26012020	260120	202522	267.090	12.177513	-56.121340	267.100	0.080	-0.240	-1.410	267.090	-1.600	-1.100																			1580070322.0	7.81	14.46
26/01/2020 20:25:23	26012020	260120	202523	267.290	12.177512	-56.121377	267.360	-0.070	-0.170	-0.510	267.320	-1.500	-0.200																			1580070323.0	7.86	14.56
26/01/2020 20:25:24	26012020	260120	202524	267.520	12.177510	-56.121415	267.580	-0.210	-0.190	0.260	267.520	-1.500	0.600																			1580070324.0	7.92	14.67
26/01/2020 20:25:25	26012020	260120	202525	267.720	12.177510	-56.121452	267.860	-0.260	-0.240	0.720	267.780	-1.600	1.000																			1580070325.0	8.05	14.91
26/01/2020 20:25:26	26012020	260120	202526	268.100	12.177507	-56.121490	268.190	-0.240	-0.250	0.810	268.100	-1.600	1.100																			1580070326.0	8.16	15.11
26/01/2020 20:25:27	26012020	260120	202527	268.490	12.177503	-56.121528	268.620	-0.220	-0.080	0.630	268.490	-1.400	0.900																			1580070327.0	8.17	15.13
26/01/2020 20:25:28	26012020	260120	202528	269.020	12.177498	-56.121567	269.160	-0.230	0.220	0.190	269.020	-1.100	0.500																			1580070328.0	8.03	14.87
26/01/2020 20:25:29	26012020	260120	202529	269.630	12.177493	-56.121603	269.760	-0.210	0.410	-0.470	269.630	-0.900	-0.200																			1580070329.0	7.86	14.56
26/01/2020 20:25:30	26012020	260120	202530	270.250	12.177487	-56.121640	270.370	-0.070	0.290	-1.180	270.250	-1.000	-0.900																			1580070330.0	7.94	14.70
26/01/2020 20:25:31	26012020	260120	202531	270.810	12.177478	-56.121678	270.910	0.160	-0.060	-1.750	270.810	-1.400	-1.400																			1580070331.0	8.17	15.13
26/01/2020 20:25:32	26012020	260120	202532	271.260	12.177473	-56.121717	271.340	0.370	-0.430	-1.980	271.260	-1.700	-1.700																			1580070332.0	8.28	15.33
26/01/2020 20:25:33	26012020	260120	202533	271.560	12.177468	-56.121755	271.620	0.440	-0.650	-1.840	271.560	-2.000	-1.500																			1580070333.0	8.18	15.15
26/01/2020 20:25:34	26012020	260120	202534	271.800	12.177468	-56.121793	271.870	0.380	-0.670	-1.430	271.800	-2.000	-1.100																			1580070334.0	7.98	14.78
26/01/2020 20:25:35	26012020	260120	202535	272.090	12.177468	-56.121830	272.180	0.240	-0.550	-0.960	272.090	-1.900	-0.600																			1580070335.0	7.87	14.58
26/01/2020 20:25:36	26012020	260120	202536	272.460	12.177470	-56.121868	272.550	0.100	-0.360	-0.580	272.460	-1.700	-0.300																			1580070336.0	7.88	14.59
26/01/2020 20:25:37	26012020	260120	202537	272.870	12.177472	-56.121905	272.970	-0.050	-0.110	-0.390	272.870	-1.400	-0.100																			1580070337.0	7.95	14.72
26/01/2020 20:25:38	26012020	260120	202538	273.330	12.177472	-56.121943	273.420	-0.200	0.160	-0.370	273.330	-1.100	-0.100																			1580070338.0	7.99	14.80
26/01/2020 20:25:39	26012020	260120	202539	273.770	12.177472	-56.121980	273.850	-0.380	0.340	-0.510	273.770	-1.000	-0.200																			1580070339.0	7.98	14.78
26/01/2020 20:25:40	26012020	260120	202540	274.230	12.177470	-56.122018	274.300	-0.520	0.270	-0.810	274.230	-1.000	-0.500																			1580070340.0	8.01	14.83
26/01/2020 20:25:41	26012020	260120	202541	274.750	12.177467	-56.122057	274.840	-0.520	-0.060	-1.250	274.750	-1.400	-0.900																			1580070341.0	8.17	15.13
26/01/2020 20:25:42	26012020	260120	202542	275.390	12.177463	-56.122097	275.470	-0.350	-0.470	-1.700	275.390	-1.800	-1.400																			1580070342.0	8.38	15.52
26/01/2020 20:25:43	26012020	260120	202543	276.030	12.177460	-56.122137	276.110	-0.060	-0.770	-1.980	276.030	-2.100	-1.700																			1580070343.0	8.47	15.69
26/01/2020 20:25:44	26012020	260120	202544	276.620	12.177458	-56.122177	276.710	0.280	-0.870	-1.910	276.620	-2.200	-1.600																			1580070344.0	8.42	15.59
26/01/2020 20:25:45	26012020	260120	202545	277.090	12.177458	-56.122215	277.180	0.540	-0.640	-1.450	277.090	-1.900	-1.100																			1580070345.0	8.31	15.39
26/01/2020 20:25:46	26012020	260120	202546	277.400	12.177463	-56.122253	277.480	0.590	-0.090	-0.720	277.400	-1.400	-0.400																			1580070346.0	8.09	14.98
26/01/2020 20:25:47	26012020	260120	202547	277.500	12.177468	-56.122290	277.590	0.370	0.510	0.020	277.510	-0.800	0.300																			1580070347.0	7.83	14.50
26/01/2020 20:25:48	26012020	260120	202548	277.530	12.177475	-56.122325	277.600	-0.050	0.910	0.480	277.530	-0.400	0.800																			1580070348.0	7.70	14.26
26/01/2020 20:25:49	26012020	260120	202549	277.650	12.177480	-56.122362	277.740	-0.480	0.930	0.400	277.650	-0.400	0.700																			1580070349.0	7.70	14.26
26/01/2020 20:25:50	26012020	260120	202550	277.980	12.177482	-56.122398	278.060	-0.650	0.430	-0.190	277.980	-0.900	0.100																			1580070350.0	7.86	14.56
26/01/2020 20:25:51	26012020	260120	202551	278.540	12.177480	-56.122438	278.630	-0.440	-0.500	-1.090	278.540	-1.800	-0.800																			1580070351.0	8.29	15.35
26/01/2020 20:25:52	26012020	260120	202552	279.320	12.177477	-56.122480	279.400	0.090	-1.430	-1.990	279.320	-2.700	-1.700																			1580070352.0	8.79	16.28
26/01/2020 20:25:53	26012020	260120	202553	280.240	12.177475	-56.122522	280.290	0.630	-1.780	-2.560	280.240	-3.100	-2.300																			1580070353.0	8.96	16.59
26/01/2020 20:25:54	26012020	260120	202554	281.050	12.177477	-56.122562	281.090	0.870	-1.310	-2.520	281.050	-2.600	-2.200																			1580070354.0	8.55	15.83
26/01/2020 20:25:55	26012020	260120	202555	281.550	12.177482	-56.122598	281.580	0.670	-0.330	-1.860	281.550	-1.600	-1.500																			1580070355.0	7.92	14.67
26/01/2020 20:25:56	26012020	260120	202556	281.740	12.177490	-56.122633	281.800	0.130	0.640	-0.920	281.740	-0.700	-0.600																			1580070356.0	7.52	13.93
26/01/2020 20:25:57	26012020	260120	202557	281.780	12.177500	-56.122668	281.870	-0.470	1.130	-0.180	281.780	-0.200	0.100																			1580070357.0	7.51	13.91
26/01/2020 20:25:58	26012020	260120	202558	281.890	12.177507	-56.122703	282.000	-0.860	0.950	0.030	281.890	-0.400	0.300																			1580070358.0	7.83	14.50
26/01/2020 20:25:59	26012020	260120	202559	282.200	12.177512	-56.122743	282.330	-0.900	0.260	-0.270	282.200	-1.100	0.000	1013.90	26.30	26.40	21.00	21.20	144.00	72.00	73.00	395.00	27.30	22.00	0.60	86.00	3.70	11624	3388.00	27.80	27.80	1580070359.0	8.33	15.43
26/01/2020 20:26:00	26012020	260120	202600	282.730	12.177513	-56.122785	282.860	-0.590	-0.560	-0.860	282.730	-1.900	-0.500																			1580070360.0	8.79	16.28
26/01/2020 20:26:01	26012020	260120	202601	283.260	12.177513	-56.122827	283.510	-0.080	-1.050	-1.400	283.380	-2.400	-1.100																			1580070361.0	8.94	16.56
26/01/2020 20:26:02	26012020	260120	202602	283.980	12.177515	-56.122868	284.080	0.390	-0.970	-1.560	283.980	-2.300	-1.200																			1580070362.0	8.68	16.08
26/01/2020 20:26:03	26012020	260120	202603	284.400	12.177520	-56.122907	284.490	0.620	-0.450	-1.260	284.400	-1.700	-0.900																			1580070363.0	8.15	15.09
26/01/2020 20:26:04	26012020	260120	202604	284.670	12.177528	-56.122942	284.750	0.550	0.170	-0.750	284.670	-1.100	-0.400																			1580070364.0	7.73	14.32
26/01/2020 20:26:05	26012020	260120	202605	284.800	12.177538	-56.122977	284.880	0.320	0.530	-0.310	284.800	-0.800	0.000																			1580070365.0	7.63	14.13
26/01/2020 20:26:06	26012020	260120	202606	284.830	12.177548	-56.123012	284.930	0.100	0.440	-0.180	284.830	-0.900	0.100																			1580070366.0	7.81	14.46
26/01/2020 20:26:07	26012020	260120	202607	284.940	12.177557	-56.123050	285.050	0.020	-0.030	-0.450	284.940	-1.300	-0.100																			1580070367.0	8.16	15.11
26/01/2020 20:26:08	26012020	260120	202608	285.220	12.177562	-56.123090	285.340	0.080	-0.600	-1.010	285.220	-1.900	-0.700																			1580070368.0	8.54	15.82
26/01/2020 20:26:09	26012020	260120	202609	285.660	12.177567	-56.123130	285.770	0.150	-0.870	-1.630	285.660	-2.200	-1.300																			1580070369.0	8.68	16.08
26/01/2020 20:26:10	26012020	260120	202610	286.100	12.177572	-56.123170	286.180	0.110	-0.660	-2.070	286.100	-2.000	-1.700																			1580070370.0	8.47	15.69
26/01/2020 20:26:11	26012020	260120	202611	286.410	12.177577	-56.123208	286.480	-0.050	-0.210	-2.150	286.410	-1.500	-1.800																			1580070371.0	8.05	14.91
26/01/2020 20:26:12	26012020	260120	202612	286.590	12.177583	-56.123245	286.640	-0.240	0.090	-1.940	286.590	-1.200	-1.600																			1580070372.0	7.85	14.54
26/01/2020 20:26:13	26012020	260120	202613	286.670	12.177593	-56.123282	286.750	-0.350	0.050	-1.620	286.690	-1.300	-1.300																			1580070373.0	8.02	14.85
26/01/2020 20:26:14	26012020	260120	202614	286.790	12.177602	-56.123320	286.880	-0.330	-0.230	-1.340	286.790	-1.500	-1.000																			1580070374.0	8.39	15.54
26/01/2020 20:26:15	26012020	260120	202615	286.900	12.177612	-56.123360	287.010	-0.220	-0.450	-1.050	286.920	-1.800	-0.700																			1580070375.0	8.70	16.11
26/01/2020 20:26:16	26012020	260120	202616	287.000	12.177622	-56.123400	287.100	-0.080	-0.330	-0.610	287.000	-1.600	-0.300																			1580070376.0	8.67	16.06
26/01/2020 20:26:17	26012020	260120	202617	287.000	12.177632	-56.123437	287.100	0.020	0.100	-0.020	287.000	-1.200	0.300																			1580070377.0	8.32	15.41
26/01/2020 20:26:18	26012020	260120	202618	286.970	12.177642	-56.123473	287.090	0.070	0.460	0.550	286.970	-0.900	0.900																			1580070378.0	7.92	14.67
26/01/2020 20:26:19	26012020	260120	202619	287.000	12.177653	-56.123508	287.130	0.130	0.460	0.910	287.000	-0.900	1.200																			1580070379.0	7.86	14.56
26/01/2020 20:26:20	26012020	260120	202620	287.110	12.177663	-56.123545	287.250	0.260	0.100	0.980	287.110	-1.200	1.300																			1580070380.0	8.11	15.02
26/01/2020 20:26:21	26012020	260120	202621	287.370	12.177673	-56.123583	287.530	0.450	-0.440	0.730	287.370	-1.800	1.000																			1580070381.0	8.39	15.54
26/01/2020 20:26:22	26012020	260120	202622	287.850	12.177683	-56.123623	288.010	0.620	-0.930	0.180	287.850	-2.200	0.500																			1580070382.0	8.57	15.87
26/01/2020 20:26:23	26012020	260120	202623	288.470	12.177692	-56.123663	288.610	0.630	-1.100	-0.490	288.470	-2.400	-0.200																			1580070383.0	8.63	15.98
26/01/2020 20:26:24	26012020	260120	202624	289.050	12.177700	-56.123702	289.180	0.380	-0.760	-1.040	289.050	-2.100	-0.700																			1580070384.0	8.51	15.76
26/01/2020 20:26:25	26012020	260120	202625	289.460	12.177708	-56.123740	289.580	-0.090	-0.080	-1.320	289.460	-1.400	-1.000																			1580070385.0	8.18	15.15
26/01/2020 20:26:26	26012020	260120	202626	289.690	12.177715	-56.123777	289.800	-0.560	0.520	-1.330	289.690	-0.800	-1.000																			1580070386.0	7.89	14.61
26/01/2020 20:26:27	26012020	260120	202627	289.830	12.177723	-56.123813	289.930	-0.830	0.610	-1.260	289.830	-0.700	-0.900																			1580070387.0	7.95	14.72
26/01/2020 20:26:28	26012020	260120	202628	290.020	12.177732	-56.123852	290.140	-0.750	0.190	-1.260	290.020	-1.100	-0.900																			1580070388.0	8.39	15.54
26/01/2020 20:26:29	26012020	260120	202629	290.360	12.177742	-56.123892	290.490	-0.400	-0.360	-1.330	290.360	-1.700	-1.000																			1580070389.0	8.85	16.39
26/01/2020 20:26:30	26012020	260120	202630	290.790	12.177752	-56.123933	290.920	0.010	-0.660	-1.330	290.790	-2.000	-1.000																			1580070390.0	8.97	16.61
26/01/2020 20:26:31	26012020	260120	202631	291.200	12.177763	-56.123973	291.330	0.310	-0.580	-1.160	291.200	-1.900	-0.800																			1580070391.0	8.68	16.08
26/01/2020 20:26:32	26012020	260120	202632	291.570	12.177775	-56.124010	291.710	0.450	-0.280	-0.850	291.570	-1.600	-0.500																			1580070392.0	8.28	15.33
26/01/2020 20:26:33	26012020	260120	202633	291.960	12.177787	-56.124047	292.090	0.450	0.010	-0.590	291.960	-1.300	-0.300																			1580070393.0	8.06	14.93
26/01/2020 20:26:34	26012020	260120	202634	292.320	12.177800	-56.124082	292.430	0.320	0.200	-0.430	292.320	-1.100	-0.100																			1580070394.0	8.06	14.93
26/01/2020 20:26:35	26012020	260120	202635	292.580	12.177813	-56.124118	292.680	0.100	0.230	-0.420	292.580	-1.100	-0.100																			1580070395.0	8.14	15.08
26/01/2020 20:26:36	26012020	260120	202636	292.770	12.177827	-56.124155	292.860	-0.120	0.040	-0.540	292.770	-1.300	-0.200																			1580070396.0	8.27	15.32
26/01/2020 20:26:37	26012020	260120	202637	292.900	12.177838	-56.124192	293.030	-0.230	-0.300	-0.820	292.940	-1.600	-0.500																			1580070397.0	8.48	15.70
26/01/2020 20:26:38	26012020	260120	202638	293.160	12.177850	-56.124232	293.260	-0.170	-0.620	-1.130	293.160	-1.900	-0.800																			1580070398.0	8.71	16.13
26/01/2020 20:26:39	26012020	260120	202639	293.380	12.177860	-56.124272	293.530	-0.000	-0.700	-1.310	293.440	-2.000	-1.000																			1580070399.0	8.74	16.19
26/01/2020 20:26:40	26012020	260120	202640	293.740	12.177873	-56.124310	293.840	0.110	-0.490	-1.310	293.740	-1.800	-1.000																			1580070400.0	8.56	15.85
26/01/2020 20:26:41	26012020	260120	202641	294.000	12.177885	-56.124347	294.110	0.070	-0.160	-1.160	294.000	-1.500	-0.800																			1580070401.0	8.29	15.35
26/01/2020 20:26:42	26012020	260120	202642	294.270	12.177900	-56.124383	294.380	-0.070	0.060	-1.000	294.270	-1.200	-0.700																			1580070402.0	8.15	15.09
26/01/2020 20:26:43	26012020	260120	202643	294.650	12.177913	-56.124420	294.780	-0.170	-0.000	-0.920	294.650	-1.300	-0.600																			1580070403.0	8.25	15.28
26/01/2020 20:26:44	26012020	260120	202644	295.180	12.177927	-56.124458	295.320	-0.150	-0.220	-0.970	295.180	-1.500	-0.700																			1580070404.0	8.55	15.83
26/01/2020 20:26:45	26012020	260120	202645	295.690	12.177942	-56.124497	295.810	-0.080	-0.300	-1.030	295.690	-1.600	-0.700																			1580070405.0	8.76	16.22
26/01/2020 20:26:46	26012020	260120	202646	296.020	12.177955	-56.124535	296.120	-0.040	-0.120	-1.040	296.020	-1.400	-0.700																			1580070406.0	8.66	16.04
26/01/2020 20:26:47	26012020	260120	202647	296.150	12.177968	-56.124572	296.220	-0.020	0.140	-0.940	296.150	-1.200	-0.600																			1580070407.0	8.40	15.56
26/01/2020 20:26:48	26012020	260120	202648	296.080	12.177982	-56.124608	296.150	0.030	0.260	-0.780	296.080	-1.100	-0.500																			1580070408.0	8.27	15.32
26/01/2020 20:26:49	26012020	260120	202649	295.890	12.177997	-56.124645	295.940	0.100	0.190	-0.630	295.890	-1.100	-0.300																			1580070409.0	8.32	15.41
26/01/2020 20:26:50	26012020	260120	202650	295.700	12.178012	-56.124682	295.760	0.130	-0.020	-0.580	295.700	-1.300	-0.300																			1580070410.0	8.40	15.56
26/01/2020 20:26:51	26012020	260120	202651	295.660	12.178028	-56.124718	295.750	0.090	-0.360	-0.740	295.660	-1.700	-0.400																			1580070411.0	8.41	15.58
26/01/2020 20:26:52	26012020	260120	202652	295.890	12.178043	-56.124755	295.990	0.040	-0.800	-1.120	295.890	-2.100	-0.800																			1580070412.0	8.48	15.70
26/01/2020 20:26:53	26012020	260120	202653	296.390	12.178057	-56.124793	296.500	0.050	-1.160	-1.600	296.390	-2.500	-1.300																			1580070413.0	8.68	16.08
26/01/2020 20:26:54	26012020	260120	202654	297.020	12.178072	-56.124833	297.120	0.100	-1.150	-1.930	297.020	-2.400	-1.600																			1580070414.0	8.83	16.35
26/01/2020 20:26:55	26012020	260120	202655	297.520	12.178085	-56.124872	297.600	0.110	-0.630	-1.850	297.520	-1.900	-1.600																			1580070415.0	8.73	16.17
26/01/2020 20:26:56	26012020	260120	202656	297.710	12.178100	-56.124908	297.760	-0.020	0.210	-1.390	297.710	-1.100	-1.100																			1580070416.0	8.40	15.56
26/01/2020 20:26:57	26012020	260120	202657	297.600	12.178117	-56.124943	297.630	-0.280	0.930	-0.820	297.600	-0.400	-0.500																			1580070417.0	8.09	14.98
26/01/2020 20:26:58	26012020	260120	202658	297.320	12.178133	-56.124977	297.370	-0.510	1.140	-0.400	297.320	-0.200	-0.100																			1580070418.0	8.09	14.98
26/01/2020 20:26:59	26012020	260120	202659	297.030	12.178152	-56.125012	297.080	-0.560	0.740	-0.280	297.030	-0.600	0.000	1014.00	26.30	26.40	21.10	21.20	145.00	73.00	73.00	394.00	27.30	56.00	3.20	64.00	3.70	11641	3378.00	27.80	27.70	1580070419.0	8.36	15.48
26/01/2020 20:27:00	26012020	260120	202700	296.810	12.178167	-56.125050	296.870	-0.330	-0.090	-0.380	296.810	-1.400	-0.100																			1580070420.0	8.76	16.22
26/01/2020 20:27:01	26012020	260120	202701	296.760	12.178183	-56.125090	296.820	0.120	-0.970	-0.600	296.760	-2.300	-0.300																			1580070421.0	9.08	16.82
26/01/2020 20:27:02	26012020	260120	202702	296.870	12.178198	-56.125130	296.940	0.560	-1.400	-0.780	296.870	-2.700	-0.500																			1580070422.0	9.14	16.93
26/01/2020 20:27:03	26012020	260120	202703	297.010	12.178215	-56.125168	297.110	0.730	-1.120	-0.780	297.050	-2.400	-0.500																			1580070423.0	8.79	16.28
26/01/2020 20:27:04	26012020	260120	202704	297.210	12.178232	-56.125203	297.280	0.570	-0.380	-0.590	297.210	-1.700	-0.300																			1580070424.0	8.19	15.17
26/01/2020 20:27:05	26012020	260120	202705	297.300	12.178248	-56.125237	297.390	0.230	0.270	-0.370	297.320	-1.000	-0.100																			1580070425.0	7.84	14.52
26/01/2020 20:27:06	26012020	260120	202706	297.390	12.178265	-56.125270	297.450	-0.120	0.490	-0.260	297.390	-0.800	0.000																			1580070426.0	7.97	14.76
26/01/2020 20:27:07	26012020	260120	202707	297.370	12.178283	-56.125305	297.420	-0.330	0.280	-0.320	297.370	-1.000	-0.000																			1580070427.0	8.45	15.65
26/01/2020 20:27:08	26012020	260120	202708	297.260	12.178300	-56.125343	297.320	-0.370	-0.080	-0.480	297.260	-1.400	-0.200																			1580070428.0	8.87	16.43
26/01/2020 20:27:09	26012020	260120	202709	297.130	12.178317	-56.125383	297.180	-0.260	-0.400	-0.670	297.130	-1.700	-0.400																			1580070429.0	9.01	16.69
26/01/2020 20:27:10	26012020	260120	202710	297.050	12.178332	-56.125422	297.090	-0.120	-0.530	-0.880	297.050	-1.900	-0.600																			1580070430.0	8.96	16.59
26/01/2020 20:27:11	26012020	260120	202711	297.020	12.178347	-56.125460	297.070	-0.030	-0.430	-0.980	297.020	-1.800	-0.700																			1580070431.0	8.80	16.30
26/01/2020 20:27:12	26012020	260120	202712	296.980	12.178362	-56.125498	297.020	0.010	-0.190	-0.910	296.980	-1.500	-0.600																			1580070432.0	8.54	15.82
26/01/2020 20:27:13	26012020	260120	202713	296.930	12.178378	-56.125533	296.990	0.040	-0.020	-0.680	296.930	-1.300	-0.400																			1580070433.0	8.38	15.52
26/01/2020 20:27:14	26012020	260120	202714	296.880	12.178395	-56.125570	296.940	0.090	-0.020	-0.390	296.880	-1.300	-0.100																			1580070434.0	8.45	15.65
26/01/2020 20:27:15	26012020	260120	202715	296.810	12.178413	-56.125607	296.870	0.100	-0.090	-0.120	296.810	-1.400	0.200																			1580070435.0	8.61	15.95
26/01/2020 20:27:16	26012020	260120	202716	296.720	12.178432	-56.125642	296.800	0.050	-0.160	0.010	296.720	-1.500	0.300																			1580070436.0	8.68	16.08
26/01/2020 20:27:17	26012020	260120	202717	296.640	12.178450	-56.125680	296.710	0.010	-0.210	-0.070	296.640	-1.500	0.200																			1580070437.0	8.65	16.02
26/01/2020 20:27:18	26012020	260120	202718	296.520	12.178465	-56.125717	296.590	0.030	-0.260	-0.220	296.520	-1.600	0.100																			1580070438.0	8.66	16.04
26/01/2020 20:27:19	26012020	260120	202719	296.360	12.178482	-56.125755	296.440	0.140	-0.310	-0.290	296.360	-1.600	0.000																			1580070439.0	8.70	16.11
26/01/2020 20:27:20	26012020	260120	202720	296.200	12.178498	-56.125792	296.290	0.250	-0.270	-0.220	296.200	-1.600	0.100																			1580070440.0	8.75	16.21
26/01/2020 20:27:21	26012020	260120	202721	296.010	12.178517	-56.125828	296.100	0.230	-0.120	-0.080	296.010	-1.400	0.200																			1580070441.0	8.70	16.11
26/01/2020 20:27:22	26012020	260120	202722	295.840	12.178535	-56.125865	295.940	0.080	0.010	0.050	295.840	-1.300	0.300																			1580070442.0	8.56	15.85
26/01/2020 20:27:23	26012020	260120	202723	295.750	12.178552	-56.125902	295.860	-0.100	-0.030	0.020	295.750	-1.400	0.300																			1580070443.0	8.53	15.80
26/01/2020 20:27:24	26012020	260120	202724	295.800	12.178568	-56.125938	295.930	-0.180	-0.260	-0.180	295.800	-1.600	0.100																			1580070444.0	8.69	16.09
26/01/2020 20:27:25	26012020	260120	202725	295.960	12.178583	-56.125978	296.080	-0.160	-0.520	-0.430	295.960	-1.800	-0.100																			1580070445.0	8.89	16.46
26/01/2020 20:27:26	26012020	260120	202726	296.120	12.178600	-56.126017	296.230	-0.090	-0.630	-0.540	296.120	-1.900	-0.200																			1580070446.0	9.00	16.67
26/01/2020 20:27:27	26012020	260120	202727	296.200	12.178615	-56.126057	296.290	-0.030	-0.490	-0.430	296.200	-1.800	-0.100																			1580070447.0	8.92	16.52
26/01/2020 20:27:28	26012020	260120	202728	296.190	12.178632	-56.126095	296.260	-0.010	-0.190	-0.180	296.190	-1.500	0.100																			1580070448.0	8.74	16.19
26/01/2020 20:27:29	26012020	260120	202729	296.080	12.178648	-56.126132	296.160	-0.050	0.170	0.090	296.080	-1.100	0.400																			1580070449.0	8.61	15.95
26/01/2020 20:27:30	26012020	260120	202730	295.850	12.178667	-56.126168	295.920	-0.160	0.470	0.250	295.850	-0.900	0.600																			1580070450.0	8.55	15.83
26/01/2020 20:27:31	26012020	260120	202731	295.510	12.178682	-56.126205	295.580	-0.280	0.520	0.280	295.510	-0.800	0.600																			1580070451.0	8.51	15.76
26/01/2020 20:27:32	26012020	260120	202732	295.220	12.178698	-56.126242	295.310	-0.250	0.200	0.120	295.220	-1.100	0.400																			1580070452.0	8.61	15.95
26/01/2020 20:27:33	26012020	260120	202733	295.120	12.178713	-56.126280	295.210	0.050	-0.410	-0.200	295.120	-1.700	0.100																			1580070453.0	8.88	16.45
26/01/2020 20:27:34	26012020	260120	202734	295.180	12.178728	-56.126322	295.280	0.520	-0.990	-0.490	295.180	-2.300	-0.200																			1580070454.0	9.18	17.00
26/01/2020 20:27:35	26012020	260120	202735	295.310	12.178747	-56.126362	295.420	0.830	-1.160	-0.550	295.310	-2.500	-0.300																			1580070455.0	9.26	17.15
26/01/2020 20:27:36	26012020	260120	202736	295.400	12.178765	-56.126400	295.490	0.750	-0.790	-0.380	295.400	-2.100	-0.100																			1580070456.0	9.00	16.67
26/01/2020 20:27:37	26012020	260120	202737	295.330	12.178783	-56.126435	295.410	0.270	-0.110	-0.170	295.330	-1.400	0.100																			1580070457.0	8.60	15.93
26/01/2020 20:27:38	26012020	260120	202738	295.140	12.178802	-56.126470	295.230	-0.360	0.460	-0.100	295.140	-0.900	0.200																			1580070458.0	8.30	15.37
26/01/2020 20:27:39	26012020	260120	202739	294.960	12.178817	-56.126507	295.050	-0.810	0.540	-0.270	294.960	-0.800	0.000																			1580070459.0	8.36	15.48
26/01/2020 20:27:40	26012020	260120	202740	294.900	12.178832	-56.126545	295.000	-0.880	0.110	-0.630	294.900	-1.200	-0.300																			1580070460.0	8.82	16.33
26/01/2020 20:27:41	26012020	260120	202741	294.880	12.178845	-56.126587	294.960	-0.640	-0.440	-0.890	294.870	-1.800	-0.600																			1580070461.0	9.36	17.33
26/01/2020 20:27:42	26012020	260120	202742	294.780	12.178858	-56.126630	294.850	-0.290	-0.660	-0.880	294.780	-2.000	-0.600																			1580070462.0	9.50	17.59
26/01/2020 20:27:43	26012020	260120	202743	294.580	12.178875	-56.126670	294.650	0.010	-0.420	-0.560	294.580	-1.700	-0.300																			1580070463.0	9.16	16.96
26/01/2020 20:27:44	26012020	260120	202744	294.330	12.178890	-56.126708	294.400	0.180	0.020	-0.060	294.330	-1.300	0.200																			1580070464.0	8.69	16.09
26/01/2020 20:27:45	26012020	260120	202745	294.040	12.178908	-56.126743	294.120	0.280	0.290	0.420	294.040	-1.000	0.700																			1580070465.0	8.46	15.67
26/01/2020 20:27:46	26012020	260120	202746	293.760	12.178927	-56.126780	293.850	0.370	0.160	0.700	293.760	-1.200	1.000																			1580070466.0	8.62	15.96
26/01/2020 20:27:47	26012020	260120	202747	293.520	12.178945	-56.126818	293.640	0.460	-0.170	0.730	293.520	-1.500	1.000																			1580070467.0	8.96	16.59
26/01/2020 20:27:48	26012020	260120	202748	293.360	12.178963	-56.126857	293.480	0.470	-0.370	0.560	293.360	-1.700	0.800																			1580070468.0	9.12	16.89
26/01/2020 20:27:49	26012020	260120	202749	293.290	12.178978	-56.126897	293.410	0.330	-0.370	0.270	293.290	-1.700	0.600																			1580070469.0	8.93	16.54
26/01/2020 20:27:50	26012020	260120	202750	293.300	12.178993	-56.126935	293.420	0.100	-0.350	-0.050	293.300	-1.700	0.200																			1580070470.0	8.70	16.11
26/01/2020 20:27:51	26012020	260120	202751	293.360	12.179008	-56.126973	293.480	-0.080	-0.430	-0.370	293.360	-1.800	-0.100																			1580070471.0	8.73	16.17
26/01/2020 20:27:52	26012020	260120	202752	293.400	12.179023	-56.127013	293.510	-0.160	-0.530	-0.530	293.400	-1.900	-0.200																			1580070472.0	8.97	16.61
26/01/2020 20:27:53	26012020	260120	202753	293.360	12.179038	-56.127053	293.430	-0.200	-0.530	-0.490	293.340	-1.900	-0.200																			1580070473.0	9.15	16.95
26/01/2020 20:27:54	26012020	260120	202754	293.160	12.179055	-56.127093	293.240	-0.300	-0.390	-0.400	293.160	-1.700	-0.100																			1580070474.0	9.16	16.96
26/01/2020 20:27:55	26012020	260120	202755	292.970	12.179070	-56.127133	293.000	-0.440	-0.180	-0.330	292.920	-1.500	-0.000																			1580070475.0	9.13	16.91
26/01/2020 20:27:56	26012020	260120	202756	292.650	12.179085	-56.127173	292.730	-0.540	0.040	-0.220	292.650	-1.300	0.100																			1580070476.0	9.10	16.85
26/01/2020 20:27:57	26012020	260120	202757	292.360	12.179100	-56.127213	292.450	-0.490	0.200	-0.070	292.360	-1.100	0.200																			1580070477.0	9.12	16.89
26/01/2020 20:27:58	26012020	260120	202758	292.100	12.179115	-56.127255	292.190	-0.310	0.290	0.100	292.100	-1.000	0.400																			1580070478.0	9.12	16.89
26/01/2020 20:27:59	26012020	260120	202759	291.890	12.179130	-56.127295	291.980	-0.060	0.290	0.340	291.890	-1.000	0.600	1013.90	26.20	26.30	21.10	21.10	144.00	73.00	73.00	392.00	27.20	60.00	3.50	68.00	4.10	11589	3326.00	27.80	27.80	1580070479.0	9.11	16.87
26/01/2020 20:28:00	26012020	260120	202800	291.730	12.179145	-56.127335	291.830	0.200	0.200	0.660	291.730	-1.100	1.000																			1580070480.0	9.06	16.78
26/01/2020 20:28:01	26012020	260120	202801	291.650	12.179162	-56.127373	291.760	0.470	-0.020	0.920	291.650	-1.400	1.200																			1580070481.0	9.01	16.69
26/01/2020 20:28:02	26012020	260120	202802	291.690	12.179178	-56.127413	291.800	0.720	-0.390	0.970	291.690	-1.700	1.300																			1580070482.0	9.09	16.83
26/01/2020 20:28:03	26012020	260120	202803	291.820	12.179197	-56.127453	291.910	0.870	-0.710	0.810	291.820	-2.000	1.100																			1580070483.0	9.26	17.15
26/01/2020 20:28:04	26012020	260120	202804	291.910	12.179213	-56.127493	291.990	0.760	-0.790	0.530	291.910	-2.100	0.800																			1580070484.0	9.30	17.22
26/01/2020 20:28:05	26012020	260120	202805	291.930	12.179230	-56.127533	291.990	0.350	-0.650	0.110	291.930	-2.000	0.400																			1580070485.0	9.16	16.96
26/01/2020 20:28:06	26012020	260120	202806	291.860	12.179243	-56.127573	291.920	-0.230	-0.440	-0.390	291.860	-1.700	-0.100																			1580070486.0	9.09	16.83
26/01/2020 20:28:07	26012020	260120	202807	291.750	12.179255	-56.127615	291.810	-0.730	-0.230	-0.840	291.750	-1.500	-0.500																			1580070487.0	9.16	16.96
26/01/2020 20:28:08	26012020	260120	202808	291.660	12.179267	-56.127658	291.720	-0.920	-0.080	-1.080	291.660	-1.400	-0.800																			1580070488.0	9.28	17.19
26/01/2020 20:28:09	26012020	260120	202809	291.570	12.179277	-56.127702	291.640	-0.790	0.000	-0.960	291.570	-1.300	-0.700																			1580070489.0	9.38	17.37
26/01/2020 20:28:10	26012020	260120	202810	291.470	12.179290	-56.127743	291.570	-0.490	-0.010	-0.590	291.470	-1.300	-0.300																			1580070490.0	9.40	17.41
26/01/2020 20:28:11	26012020	260120	202811	291.490	12.179305	-56.127785	291.610	-0.200	-0.120	-0.200	291.490	-1.400	0.100																			1580070491.0	9.46	17.52
26/01/2020 20:28:12	26012020	260120	202812	291.610	12.179323	-56.127827	291.740	0.060	-0.230	0.120	291.610	-1.500	0.400																			1580070492.0	9.57	17.72
26/01/2020 20:28:13	26012020	260120	202813	291.730	12.179340	-56.127868	291.850	0.250	-0.170	0.310	291.730	-1.500	0.600																			1580070493.0	9.57	17.72
26/01/2020 20:28:14	26012020	260120	202814	291.750	12.179357	-56.127910	291.870	0.380	0.040	0.410	291.750	-1.300	0.700																			1580070494.0	9.40	17.41
26/01/2020 20:28:15	26012020	260120	202815	291.630	12.179373	-56.127950	291.730	0.410	0.200	0.430	291.630	-1.100	0.700																			1580070495.0	9.21	17.06
26/01/2020 20:28:16	26012020	260120	202816	291.460	12.179388	-56.127990	291.540	0.360	0.100	0.270	291.460	-1.200	0.600																			1580070496.0	9.18	17.00
26/01/2020 20:28:17	26012020	260120	202817	291.340	12.179403	-56.128032	291.400	0.320	-0.220	0.000	291.320	-1.500	0.300																			1580070497.0	9.40	17.41
26/01/2020 20:28:18	26012020	260120	202818	291.190	12.179418	-56.128075	291.270	0.260	-0.500	-0.230	291.190	-1.800	0.100																			1580070498.0	9.60	17.78
26/01/2020 20:28:19	26012020	260120	202819	291.050	12.179433	-56.128117	291.110	0.120	-0.550	-0.370	291.050	-1.900	-0.100																			1580070499.0	9.57	17.72
26/01/2020 20:28:20	26012020	260120	202820	290.860	12.179448	-56.128158	290.940	-0.150	-0.430	-0.440	290.860	-1.800	-0.100																			1580070500.0	9.36	17.33
26/01/2020 20:28:21	26012020	260120	202821	290.780	12.179462	-56.128200	290.880	-0.450	-0.350	-0.470	290.780	-1.700	-0.200																			1580070501.0	9.23	17.09
26/01/2020 20:28:22	26012020	260120	202822	290.880	12.179475	-56.128242	290.990	-0.550	-0.440	-0.510	290.880	-1.800	-0.200																			1580070502.0	9.34	17.30
26/01/2020 20:28:23	26012020	260120	202823	291.110	12.179488	-56.128287	291.230	-0.380	-0.610	-0.500	291.110	-1.900	-0.200																			1580070503.0	9.65	17.87
26/01/2020 20:28:24	26012020	260120	202824	291.380	12.179503	-56.128330	291.510	-0.060	-0.630	-0.300	291.380	-1.900	0.000																			1580070504.0	9.90	18.33
26/01/2020 20:28:25	26012020	260120	202825	291.560	12.179518	-56.128375	291.680	0.160	-0.290	0.090	291.560	-1.600	0.400																			1580070505.0	9.88	18.30
26/01/2020 20:28:26	26012020	260120	202826	291.590	12.179535	-56.128417	291.700	0.130	0.280	0.520	291.590	-1.000	0.800																			1580070506.0	9.58	17.74
26/01/2020 20:28:27	26012020	260120	202827	291.490	12.179552	-56.128457	291.580	-0.050	0.740	0.780	291.490	-0.600	1.100																			1580070507.0	9.27	17.17
26/01/2020 20:28:28	26012020	260120	202828	291.280	12.179568	-56.128497	291.370	-0.150	0.780	0.770	291.280	-0.600	1.100																			1580070508.0	9.23	17.09
26/01/2020 20:28:29	26012020	260120	202829	291.010	12.179583	-56.128540	291.090	-0.030	0.300	0.540	291.010	-1.000	0.800																			1580070509.0	9.51	17.61
26/01/2020 20:28:30	26012020	260120	202830	290.790	12.179597	-56.128583	290.870	0.260	-0.430	0.140	290.790	-1.800	0.400																			1580070510.0	9.90	18.33
26/01/2020 20:28:31	26012020	260120	202831	290.690	12.179612	-56.128630	290.770	0.490	-0.970	-0.330	290.690	-2.300	-0.000																			1580070511.0	10.10	18.71
26/01/2020 20:28:32	26012020	260120	202832	290.720	12.179625	-56.128673	290.810	0.480	-1.080	-0.670	290.720	-2.400	-0.400																			1580070512.0	9.90	18.33
26/01/2020 20:28:33	26012020	260120	202833	290.840	12.179640	-56.128717	290.940	0.260	-0.830	-0.790	290.840	-2.100	-0.500																			1580070513.0	9.54	17.67
26/01/2020 20:28:34	26012020	260120	202834	290.960	12.179655	-56.128758	291.070	-0.070	-0.480	-0.750	290.960	-1.800	-0.400																			1580070514.0	9.33	17.28
26/01/2020 20:28:35	26012020	260120	202835	291.060	12.179670	-56.128800	291.190	-0.370	-0.190	-0.670	291.060	-1.500	-0.400																			1580070515.0	9.39	17.39
26/01/2020 20:28:36	26012020	260120	202836	291.150	12.179685	-56.128843	291.280	-0.520	-0.050	-0.600	291.150	-1.400	-0.300																			1580070516.0	9.63	17.83
26/01/2020 20:28:37	26012020	260120	202837	291.180	12.179698	-56.128888	291.300	-0.500	0.030	-0.480	291.180	-1.300	-0.200																			1580070517.0	9.90	18.33
26/01/2020 20:28:38	26012020	260120	202838	291.080	12.179712	-56.128933	291.190	-0.300	0.170	-0.160	291.080	-1.100	0.200																			1580070518.0	9.99	18.50
26/01/2020 20:28:39	26012020	260120	202839	290.800	12.179728	-56.128977	290.910	-0.020	0.330	0.300	290.800	-1.000	0.600																			1580070519.0	9.86	18.26
26/01/2020 20:28:40	26012020	260120	202840	290.480	12.179743	-56.129020	290.600	0.230	0.330	0.640	290.480	-1.000	1.000																			1580070520.0	9.71	17.98
26/01/2020 20:28:41	26012020	260120	202841	290.280	12.179762	-56.129062	290.400	0.360	0.070	0.670	290.280	-1.300	1.000																			1580070521.0	9.69	17.95
26/01/2020 20:28:42	26012020	260120	202842	290.260	12.179778	-56.129105	290.400	0.330	-0.360	0.340	290.260	-1.700	0.600																			1580070522.0	9.82	18.19
26/01/2020 20:28:43	26012020	260120	202843	290.380	12.179793	-56.129150	290.570	0.200	-0.730	-0.160	290.410	-2.000	0.100																			1580070523.0	9.92	18.37
26/01/2020 20:28:44	26012020	260120	202844	290.660	12.179807	-56.129193	290.810	0.060	-0.850	-0.620	290.660	-2.200	-0.300																			1580070524.0	9.89	18.32
26/01/2020 20:28:45	26012020	260120	202845	290.860	12.179818	-56.129238	291.040	0.020	-0.770	-0.830	290.900	-2.100	-0.500																			1580070525.0	9.80	18.15
26/01/2020 20:28:46	26012020	260120	202846	291.040	12.179832	-56.129283	291.170	0.090	-0.540	-0.690	291.040	-1.900	-0.400																			1580070526.0	9.76	18.08
26/01/2020 20:28:47	26012020	260120	202847	290.980	12.179847	-56.129327	291.100	0.130	-0.200	-0.310	290.980	-1.500	0.000																			1580070527.0	9.78	18.11
26/01/2020 20:28:48	26012020	260120	202848	290.710	12.179863	-56.129370	290.820	0.020	0.190	0.120	290.710	-1.100	0.400																			1580070528.0	9.77	18.09
26/01/2020 20:28:49	26012020	260120	202849	290.370	12.179880	-56.129412	290.480	-0.200	0.450	0.360	290.370	-0.900	0.700																			1580070529.0	9.68	17.93
26/01/2020 20:28:50	26012020	260120	202850	290.120	12.179895	-56.129455	290.250	-0.400	0.390	0.270	290.120	-0.900	0.600																			1580070530.0	9.67	17.91
26/01/2020 20:28:51	26012020	260120	202851	290.080	12.179910	-56.129500	290.210	-0.410	-0.000	-0.030	290.080	-1.300	0.300																			1580070531.0	9.88	18.30
26/01/2020 20:28:52	26012020	260120	202852	290.210	12.179923	-56.129545	290.340	-0.200	-0.500	-0.360	290.210	-1.800	-0.100																			1580070532.0	10.15	18.80
26/01/2020 20:28:53	26012020	260120	202853	290.420	12.179937	-56.129592	290.550	0.120	-0.840	-0.530	290.420	-2.100	-0.200																			1580070533.0	10.28	19.04
26/01/2020 20:28:54	26012020	260120	202854	290.630	12.179950	-56.129638	290.780	0.370	-0.830	-0.420	290.630	-2.100	-0.100																			1580070534.0	10.18	18.85
26/01/2020 20:28:55	26012020	260120	202855	290.820	12.179967	-56.129682	290.970	0.430	-0.530	-0.150	290.820	-1.800	0.200																			1580070535.0	9.93	18.39
26/01/2020 20:28:56	26012020	260120	202856	290.930	12.179983	-56.129725	291.080	0.320	-0.100	0.130	290.930	-1.400	0.400																			1580070536.0	9.73	18.02
26/01/2020 20:28:57	26012020	260120	202857	290.950	12.179998	-56.129768	291.080	0.120	0.240	0.300	290.950	-1.100	0.600																			1580070537.0	9.64	17.85
26/01/2020 20:28:58	26012020	260120	202858	290.880	12.180015	-56.129810	291.000	-0.050	0.350	0.270	290.880	-1.000	0.600																			1580070538.0	9.72	18.00
26/01/2020 20:28:59	26012020	260120	202859	290.720	12.180030	-56.129855	290.840	-0.180	0.190	0.050	290.720	-1.100	0.400	1013.90	26.20	26.30	21.10	21.10	145.00	73.00	73.00	392.00	27.20	49.00	3.40	68.00	3.70	11511	3366.00	27.80	27.80	1580070539.0	9.91	18.35
26/01/2020 20:29:00	26012020	260120	202900	290.540	12.180045	-56.129900	290.660	-0.260	-0.130	-0.290	290.540	-1.400	0.000																			1580070540.0	10.10	18.71
26/01/2020 20:29:01	26012020	260120	202901	290.430	12.180058	-56.129947	290.540	-0.280	-0.440	-0.650	290.430	-1.800	-0.300																			1580070541.0	10.20	18.89
26/01/2020 20:29:02	26012020	260120	202902	290.420	12.180070	-56.129993	290.550	-0.230	-0.610	-0.840	290.420	-1.900	-0.500																			1580070542.0	10.19	18.87
26/01/2020 20:29:03	26012020	260120	202903	290.490	12.180083	-56.130038	290.630	-0.050	-0.640	-0.710	290.490	-1.900	-0.400																			1580070543.0	10.08	18.67
26/01/2020 20:29:04	26012020	260120	202904	290.580	12.180098	-56.130083	290.740	0.220	-0.530	-0.340	290.580	-1.800	-0.000																			1580070544.0	9.99	18.50
26/01/2020 20:29:05	26012020	260120	202905	290.690	12.180115	-56.130128	290.840	0.430	-0.340	0.050	290.690	-1.700	0.400																			1580070545.0	9.98	18.48
26/01/2020 20:29:06	26012020	260120	202906	290.800	12.180133	-56.130172	290.950	0.450	-0.160	0.310	290.800	-1.500	0.600																			1580070546.0	9.97	18.46
26/01/2020 20:29:07	26012020	260120	202907	290.890	12.180150	-56.130215	291.030	0.270	-0.010	0.370	290.890	-1.300	0.700																			1580070547.0	10.02	18.56
26/01/2020 20:29:08	26012020	260120	202908	290.930	12.180167	-56.130260	291.080	-0.030	0.070	0.190	290.930	-1.200	0.500																			1580070548.0	10.04	18.59
26/01/2020 20:29:09	26012020	260120	202909	290.930	12.180182	-56.130305	291.060	-0.310	0.130	-0.100	290.930	-1.200	0.200																			1580070549.0	10.07	18.65
26/01/2020 20:29:10	26012020	260120	202910	290.880	12.180195	-56.130350	291.010	-0.480	0.110	-0.360	290.880	-1.200	-0.000																			1580070550.0	10.04	18.59
26/01/2020 20:29:11	26012020	260120	202911	290.790	12.180208	-56.130395	290.920	-0.490	-0.030	-0.560	290.790	-1.400	-0.200																			1580070551.0	10.03	18.58
26/01/2020 20:29:12	26012020	260120	202912	290.710	12.180222	-56.130442	290.850	-0.330	-0.350	-0.690	290.710	-1.700	-0.400																			1580070552.0	10.10	18.71
26/01/2020 20:29:13	26012020	260120	202913	290.730	12.180235	-56.130488	290.880	-0.020	-0.740	-0.670	290.730	-2.100	-0.400																			1580070553.0	10.27	19.02
26/01/2020 20:29:14	26012020	260120	202914	290.850	12.180250	-56.130535	291.010	0.350	-0.970	-0.470	290.850	-2.300	-0.200																			1580070554.0	10.42	19.30
26/01/2020 20:29:15	26012020	260120	202915	290.960	12.180267	-56.130582	291.110	0.610	-0.810	-0.070	290.960	-2.100	0.200																			1580070555.0	10.43	19.32
26/01/2020 20:29:16	26012020	260120	202916	290.950	12.180285	-56.130625	291.100	0.580	-0.290	0.340	290.950	-1.600	0.600																			1580070556.0	10.17	18.83
26/01/2020 20:29:17	26012020	260120	202917	290.850	12.180303	-56.130668	291.000	0.270	0.280	0.530	290.850	-1.000	0.800																			1580070557.0	9.84	18.22
26/01/2020 20:29:18	26012020	260120	202918	290.750	12.180320	-56.130712	290.900	-0.120	0.540	0.380	290.750	-0.800	0.700																			1580070558.0	9.74	18.04
26/01/2020 20:29:19	26012020	260120	202919	290.720	12.180335	-56.130755	290.860	-0.380	0.380	-0.010	290.720	-0.900	0.300																			1580070559.0	9.96	18.45
26/01/2020 20:29:20	26012020	260120	202920	290.790	12.180348	-56.130802	290.910	-0.470	0.010	-0.450	290.790	-1.300	-0.100																			1580070560.0	10.30	19.08
26/01/2020 20:29:21	26012020	260120	202921	290.890	12.180360	-56.130850	291.010	-0.400	-0.300	-0.660	290.890	-1.600	-0.300																			1580070561.0	10.45	19.35
26/01/2020 20:29:22	26012020	260120	202922	290.990	12.180373	-56.130897	291.090	-0.220	-0.500	-0.570	290.990	-1.800	-0.300																			1580070562.0	10.34	19.15
26/01/2020 20:29:23	26012020	260120	202923	291.060	12.180388	-56.130943	291.160	0.060	-0.690	-0.350	291.060	-2.000	-0.000																			1580070563.0	10.20	18.89
26/01/2020 20:29:24	26012020	260120	202924	291.110	12.180405	-56.130988	291.230	0.370	-0.840	-0.180	291.110	-2.200	0.100																			1580070564.0	10.32	19.11
26/01/2020 20:29:25	26012020	260120	202925	291.140	12.180422	-56.131035	291.260	0.540	-0.720	-0.100	291.140	-2.000	0.200																			1580070565.0	10.44	19.33
26/01/2020 20:29:26	26012020	260120	202926	291.080	12.180438	-56.131080	291.210	0.440	-0.240	-0.030	291.080	-1.500	0.300																			1580070566.0	10.29	19.06
26/01/2020 20:29:27	26012020	260120	202927	291.000	12.180455	-56.131125	291.130	0.090	0.330	-0.010	291.000	-1.000	0.300																			1580070567.0	9.90	18.33
26/01/2020 20:29:28	26012020	260120	202928	290.970	12.180470	-56.131168	291.080	-0.280	0.550	-0.200	290.970	-0.800	0.100																			1580070568.0	9.71	17.98
26/01/2020 20:29:29	26012020	260120	202929	291.010	12.180483	-56.131213	291.130	-0.460	0.270	-0.500	291.010	-1.100	-0.200																			1580070569.0	9.94	18.41
26/01/2020 20:29:30	26012020	260120	202930	291.110	12.180498	-56.131260	291.220	-0.380	-0.330	-0.770	291.110	-1.700	-0.500																			1580070570.0	10.39	19.24
26/01/2020 20:29:31	26012020	260120	202931	291.290	12.180512	-56.131308	291.410	-0.150	-0.870	-0.920	291.290	-2.200	-0.600																			1580070571.0	10.71	19.83
26/01/2020 20:29:32	26012020	260120	202932	291.500	12.180528	-56.131357	291.630	0.040	-1.010	-0.840	291.500	-2.300	-0.500																			1580070572.0	10.71	19.83
26/01/2020 20:29:33	26012020	260120	202933	291.620	12.180543	-56.131403	291.760	0.100	-0.680	-0.520	291.620	-2.000	-0.200																			1580070573.0	10.42	19.30
26/01/2020 20:29:34	26012020	260120	202934	291.630	12.180560	-56.131447	291.750	0.090	-0.180	-0.160	291.630	-1.500	0.200																			1580070574.0	10.07	18.65
26/01/2020 20:29:35	26012020	260120	202935	291.560	12.180577	-56.131492	291.670	0.090	0.220	0.120	291.540	-1.100	0.400																			1580070575.0	9.99	18.50
26/01/2020 20:29:36	26012020	260120	202936	291.390	12.180593	-56.131537	291.510	0.090	0.420	0.250	291.390	-0.900	0.600																			1580070576.0	10.12	18.74
26/01/2020 20:29:37	26012020	260120	202937	291.200	12.180610	-56.131582	291.310	0.040	0.480	0.200	291.200	-0.800	0.500																			1580070577.0	10.25	18.98
26/01/2020 20:29:38	26012020	260120	202938	291.000	12.180627	-56.131627	291.100	-0.080	0.360	-0.030	291.000	-1.000	0.300																			1580070578.0	10.20	18.89
26/01/2020 20:29:39	26012020	260120	202939	290.880	12.180640	-56.131673	290.990	-0.180	-0.060	-0.400	290.880	-1.400	-0.100																			1580070579.0	10.20	18.89
26/01/2020 20:29:40	26012020	260120	202940	290.930	12.180655	-56.131720	291.050	-0.110	-0.710	-0.800	290.930	-2.000	-0.500																			1580070580.0	10.38	19.22
26/01/2020 20:29:41	26012020	260120	202941	291.150	12.180670	-56.131768	291.290	0.110	-1.260	-1.010	291.150	-2.600	-0.700																			1580070581.0	10.66	19.74
26/01/2020 20:29:42	26012020	260120	202942	291.430	12.180685	-56.131817	291.560	0.340	-1.330	-0.870	291.430	-2.600	-0.600																			1580070582.0	10.69	19.80
26/01/2020 20:29:43	26012020	260120	202943	291.630	12.180702	-56.131862	291.770	0.370	-0.840	-0.460	291.630	-2.100	-0.100																			1580070583.0	10.39	19.24
26/01/2020 20:29:44	26012020	260120	202944	291.690	12.180718	-56.131907	291.830	0.120	-0.060	0.030	291.690	-1.400	0.300																			1580070584.0	9.97	18.46
26/01/2020 20:29:45	26012020	260120	202945	291.630	12.180735	-56.131948	291.760	-0.280	0.560	0.330	291.630	-0.800	0.600																			1580070585.0	9.73	18.02
26/01/2020 20:29:46	26012020	260120	202946	291.520	12.180752	-56.131992	291.640	-0.560	0.600	0.300	291.520	-0.700	0.600																			1580070586.0	9.88	18.30
26/01/2020 20:29:47	26012020	260120	202947	291.430	12.180767	-56.132038	291.530	-0.500	0.100	-0.020	291.430	-1.200	0.300																			1580070587.0	10.44	19.33
26/01/2020 20:29:48	26012020	260120	202948	291.360	12.180782	-56.132088	291.460	-0.170	-0.480	-0.380	291.360	-1.800	-0.100																			1580070588.0	11.03	20.43
26/01/2020 20:29:49	26012020	260120	202949	291.290	12.180797	-56.132140	291.400	0.170	-0.600	-0.540	291.290	-1.900	-0.200																			1580070589.0	11.15	20.65
26/01/2020 20:29:50	26012020	260120	202950	291.130	12.180812	-56.132188	291.230	0.300	-0.200	-0.400	291.130	-1.500	-0.100																			1580070590.0	10.67	19.76
26/01/2020 20:29:51	26012020	260120	202951	290.930	12.180828	-56.132232	291.040	0.210	0.290	-0.130	290.930	-1.000	0.200																			1580070591.0	10.04	18.59
26/01/2020 20:29:52	26012020	260120	202952	290.820	12.180845	-56.132275	290.940	0.070	0.330	-0.030	290.820	-1.000	0.300																			1580070592.0	9.85	18.24
26/01/2020 20:29:53	26012020	260120	202953	290.900	12.180862	-56.132320	291.050	0.030	-0.140	-0.160	290.900	-1.500	0.200																			1580070593.0	10.23	18.95
26/01/2020 20:29:54	26012020	260120	202954	291.120	12.180878	-56.132368	291.250	0.120	-0.720	-0.350	291.120	-2.000	-0.000																			1580070594.0	10.73	19.87
26/01/2020 20:29:55	26012020	260120	202955	291.360	12.180895	-56.132417	291.500	0.210	-0.950	-0.370	291.360	-2.300	-0.100																			1580070595.0	10.87	20.13
26/01/2020 20:29:56	26012020	260120	202956	291.550	12.180910	-56.132465	291.680	0.150	-0.760	-0.220	291.550	-2.100	0.100																			1580070596.0	10.59	19.61
26/01/2020 20:29:57	26012020	260120	202957	291.660	12.180927	-56.132510	291.810	-0.050	-0.410	-0.090	291.660	-1.700	0.200																			1580070597.0	10.26	19.00
26/01/2020 20:29:58	26012020	260120	202958	291.750	12.180943	-56.132555	291.890	-0.290	-0.120	-0.080	291.750	-1.400	0.200																			1580070598.0	10.22	18.93
26/01/2020 20:29:59	26012020	260120	202959	291.790	12.180958	-56.132602	291.910	-0.430	0.050	-0.160	291.790	-1.300	0.200	1013.90	26.30	26.30	21.30	21.20	147.00	73.00	73.00	392.00	27.20	41.00	3.80	65.00	3.40	11456	3526.00	27.80	27.80	1580070599.0	10.39	19.24
26/01/2020 20:30:00	26012020	260120	203000	291.740	12.180973	-56.132650	291.860	-0.380	0.070	-0.210	291.740	-1.200	0.100																			1580070600.0	10.59	19.61
26/01/2020 20:30:01	26012020	260120	203001	291.610	12.180988	-56.132698	291.740	-0.110	-0.030	-0.150	291.610	-1.400	0.200																			1580070601.0	10.77	19.95
26/01/2020 20:30:02	26012020	260120	203002	291.440	12.181005	-56.132747	291.570	0.240	-0.180	0.030	291.440	-1.500	0.400																			1580070602.0	10.90	20.19
26/01/2020 20:30:03	26012020	260120	203003	291.300	12.181023	-56.132795	291.440	0.490	-0.260	0.180	291.300	-1.600	0.500																			1580070603.0	10.94	20.26
26/01/2020 20:30:04	26012020	260120	203004	291.270	12.181042	-56.132843	291.410	0.460	-0.250	0.120	291.270	-1.600	0.400																			1580070604.0	10.81	20.02
26/01/2020 20:30:05	26012020	260120	203005	291.330	12.181058	-56.132890	291.470	0.190	-0.180	-0.150	291.330	-1.500	0.200																			1580070605.0	10.65	19.72
26/01/2020 20:30:06	26012020	260120	203006	291.490	12.181075	-56.132937	291.630	-0.160	-0.110	-0.510	291.490	-1.400	-0.200																			1580070606.0	10.52	19.48
26/01/2020 20:30:07	26012020	260120	203007	291.700	12.181088	-56.132985	291.850	-0.420	-0.100	-0.820	291.700	-1.400	-0.500																			1580070607.0	10.49	19.43
26/01/2020 20:30:08	26012020	260120	203008	291.930	12.181103	-56.133032	292.070	-0.460	-0.200	-0.950	291.930	-1.500	-0.600																			1580070608.0	10.52	19.48
26/01/2020 20:30:09	26012020	260120	203009	292.120	12.181117	-56.133080	292.280	-0.290	-0.410	-0.890	292.120	-1.700	-0.600																			1580070609.0	10.64	19.71
26/01/2020 20:30:10	26012020	260120	203010	292.270	12.181132	-56.133130	292.440	0.040	-0.650	-0.650	292.270	-2.000	-0.300																			1580070610.0	10.82	20.04
26/01/2020 20:30:11	26012020	260120	203011	292.330	12.181150	-56.133178	292.500	0.360	-0.700	-0.310	292.330	-2.000	0.000																			1580070611.0	10.95	20.28
26/01/2020 20:30:12	26012020	260120	203012	292.240	12.181168	-56.133225	292.380	0.480	-0.450	0.040	292.240	-1.800	0.400																			1580070612.0	10.89	20.17
26/01/2020 20:30:13	26012020	260120	203013	292.040	12.181188	-56.133272	292.170	0.330	-0.010	0.250	292.040	-1.300	0.600																			1580070613.0	10.66	19.74
26/01/2020 20:30:14	26012020	260120	203014	291.750	12.181207	-56.133318	291.860	0.000	0.370	0.250	291.750	-0.900	0.600																			1580070614.0	10.47	19.39
26/01/2020 20:30:15	26012020	260120	203015	291.470	12.181223	-56.133365	291.580	-0.270	0.400	0.010	291.470	-0.900	0.300																			1580070615.0	10.45	19.35
26/01/2020 20:30:16	26012020	260120	203016	291.340	12.181240	-56.133412	291.450	-0.330	-0.030	-0.400	291.340	-1.400	-0.100																			1580070616.0	10.72	19.85
26/01/2020 20:30:17	26012020	260120	203017	291.460	12.181255	-56.133463	291.590	-0.150	-0.660	-0.800	291.460	-2.000	-0.500																			1580070617.0	11.16	20.67
26/01/2020 20:30:18	26012020	260120	203018	291.790	12.181270	-56.133513	291.930	0.090	-1.060	-0.960	291.790	-2.400	-0.600																			1580070618.0	11.39	21.09
26/01/2020 20:30:19	26012020	260120	203019	292.170	12.181287	-56.133565	292.310	0.230	-0.990	-0.810	292.170	-2.300	-0.500																			1580070619.0	11.23	20.80
26/01/2020 20:30:20	26012020	260120	203020	292.490	12.181305	-56.133612	292.640	0.170	-0.510	-0.520	292.490	-1.800	-0.200																			1580070620.0	10.86	20.11
26/01/2020 20:30:21	26012020	260120	203021	292.660	12.181323	-56.133658	292.790	-0.060	0.060	-0.240	292.660	-1.300	0.100																			1580070621.0	10.56	19.56
26/01/2020 20:30:22	26012020	260120	203022	292.620	12.181342	-56.133705	292.740	-0.330	0.480	-0.080	292.620	-0.800	0.200																			1580070622.0	10.48	19.41
26/01/2020 20:30:23	26012020	260120	203023	292.490	12.181358	-56.133752	292.550	-0.480	0.590	-0.050	292.450	-0.700	0.300																			1580070623.0	10.60	19.63
26/01/2020 20:30:24	26012020	260120	203024	292.190	12.181373	-56.133800	292.270	-0.380	0.330	-0.080	292.190	-1.000	0.300																			1580070624.0	10.78	19.96
26/01/2020 20:30:25	26012020	260120	203025	291.960	12.181390	-56.133850	292.000	-0.020	-0.220	-0.090	291.910	-1.500	0.200																			1580070625.0	11.07	20.50
26/01/2020 20:30:26	26012020	260120	203026	291.720	12.181407	-56.133900	291.830	0.450	-0.740	-0.120	291.720	-2.100	0.200																			1580070626.0	11.33	20.98
26/01/2020 20:30:27	26012020	260120	203027	291.660	12.181425	-56.133950	291.770	0.780	-0.940	-0.190	291.660	-2.300	0.100																			1580070627.0	11.34	21.00
26/01/2020 20:30:28	26012020	260120	203028	291.720	12.181445	-56.134000	291.850	0.780	-0.700	-0.260	291.720	-2.000	0.100																			1580070628.0	11.07	20.50
26/01/2020 20:30:29	26012020	260120	203029	291.840	12.181463	-56.134047	291.980	0.460	-0.190	-0.310	291.840	-1.500	0.000																			1580070629.0	10.69	19.80
26/01/2020 20:30:30	26012020	260120	203030	291.970	12.181480	-56.134092	292.090	0.020	0.220	-0.350	291.970	-1.100	-0.000																			1580070630.0	10.44	19.33
26/01/2020 20:30:31	26012020	260120	203031	292.130	12.181498	-56.134140	292.250	-0.300	0.190	-0.410	292.130	-1.100	-0.100																			1580070631.0	10.52	19.48
26/01/2020 20:30:32	26012020	260120	203032	292.320	12.181515	-56.134188	292.450	-0.410	-0.200	-0.520	292.320	-1.500	-0.200																			1580070632.0	10.96	20.30
26/01/2020 20:30:33	26012020	260120	203033	292.460	12.181532	-56.134238	292.580	-0.360	-0.600	-0.620	292.460	-1.900	-0.300																			1580070633.0	11.37	21.06
26/01/2020 20:30:34	26012020	260120	203034	292.500	12.181548	-56.134290	292.610	-0.250	-0.780	-0.600	292.500	-2.100	-0.300																			1580070634.0	11.42	21.15
26/01/2020 20:30:35	26012020	260120	203035	292.490	12.181567	-56.134340	292.610	-0.160	-0.750	-0.520	292.490	-2.100	-0.200																			1580070635.0	11.24	20.82
26/01/2020 20:30:36	26012020	260120	203036	292.500	12.181583	-56.134390	292.620	-0.140	-0.570	-0.440	292.500	-1.900	-0.100																			1580070636.0	11.12	20.59
26/01/2020 20:30:37	26012020	260120	203037	292.510	12.181600	-56.134438	292.620	-0.150	-0.240	-0.320	292.510	-1.600	0.000																			1580070637.0	11.05	20.46
26/01/2020 20:30:38	26012020	260120	203038	292.470	12.181617	-56.134488	292.580	-0.140	0.130	-0.160	292.470	-1.200	0.200																			1580070638.0	10.95	20.28
26/01/2020 20:30:39	26012020	260120	203039	292.370	12.181635	-56.134537	292.480	-0.050	0.300	0.050	292.370	-1.000	0.400																			1580070639.0	10.90	20.19
26/01/2020 20:30:40	26012020	260120	203040	292.220	12.181653	-56.134585	292.320	0.110	0.260	0.310	292.220	-1.100	0.600																			1580070640.0	11.07	20.50
26/01/2020 20:30:41	26012020	260120	203041	292.020	12.181673	-56.134633	292.130	0.250	0.170	0.540	292.020	-1.200	0.900																			1580070641.0	11.23	20.80
26/01/2020 20:30:42	26012020	260120	203042	291.820	12.181693	-56.134683	291.920	0.310	0.130	0.630	291.820	-1.200	0.900																			1580070642.0	11.19	20.72
26/01/2020 20:30:43	26012020	260120	203043	291.670	12.181712	-56.134732	291.780	0.300	0.040	0.510	291.670	-1.300	0.800																			1580070643.0	10.98	20.33
26/01/2020 20:30:44	26012020	260120	203044	291.670	12.181730	-56.134780	291.770	0.310	-0.250	0.230	291.670	-1.600	0.600																			1580070644.0	10.91	20.21
26/01/2020 20:30:45	26012020	260120	203045	291.790	12.181747	-56.134828	291.900	0.380	-0.680	-0.100	291.790	-2.000	0.200																			1580070645.0	11.08	20.52
26/01/2020 20:30:46	26012020	260120	203046	291.990	12.181763	-56.134880	292.100	0.420	-0.980	-0.360	291.990	-2.300	-0.000																			1580070646.0	11.29	20.91
26/01/2020 20:30:47	26012020	260120	203047	292.160	12.181782	-56.134930	292.280	0.230	-0.960	-0.510	292.160	-2.300	-0.200																			1580070647.0	11.23	20.80
26/01/2020 20:30:48	26012020	260120	203048	292.340	12.181798	-56.134978	292.470	-0.170	-0.730	-0.640	292.340	-2.000	-0.300																			1580070648.0	11.03	20.43
26/01/2020 20:30:49	26012020	260120	203049	292.580	12.181815	-56.135027	292.710	-0.550	-0.530	-0.820	292.580	-1.900	-0.500																			1580070649.0	10.93	20.24
26/01/2020 20:30:50	26012020	260120	203050	292.880	12.181830	-56.135078	293.000	-0.670	-0.470	-0.990	292.880	-1.800	-0.700																			1580070650.0	11.13	20.61
26/01/2020 20:30:51	26012020	260120	203051	293.110	12.181845	-56.135130	293.220	-0.540	-0.390	-0.960	293.110	-1.700	-0.600																			1580070651.0	11.47	21.24
26/01/2020 20:30:52	26012020	260120	203052	293.170	12.181862	-56.135182	293.290	-0.330	-0.080	-0.610	293.170	-1.400	-0.300																			1580070652.0	11.58	21.45
26/01/2020 20:30:53	26012020	260120	203053	293.030	12.181880	-56.135232	293.140	-0.240	0.440	-0.130	293.030	-0.900	0.200																			1580070653.0	11.35	21.02
26/01/2020 20:30:54	26012020	260120	203054	292.710	12.181900	-56.135280	292.810	-0.240	0.880	0.250	292.710	-0.400	0.600																			1580070654.0	11.00	20.37
26/01/2020 20:30:55	26012020	260120	203055	292.360	12.181918	-56.135328	292.450	-0.150	0.810	0.350	292.360	-0.500	0.700																			1580070655.0	10.87	20.13
26/01/2020 20:30:56	26012020	260120	203056	292.120	12.181938	-56.135377	292.230	0.140	0.130	0.170	292.120	-1.200	0.500																			1580070656.0	11.17	20.69
26/01/2020 20:30:57	26012020	260120	203057	292.010	12.181957	-56.135428	292.130	0.570	-0.720	-0.030	292.010	-2.000	0.300																			1580070657.0	11.66	21.59
26/01/2020 20:30:58	26012020	260120	203058	291.960	12.181977	-56.135480	292.080	0.840	-1.140	-0.180	291.960	-2.500	0.100																			1580070658.0	11.79	21.84
26/01/2020 20:30:59	26012020	260120	203059	291.990	12.181997	-56.135530	292.110	0.770	-1.000	-0.310	291.990	-2.300	0.000	1013.90	26.30	26.20	21.20	21.10	149.00	73.00	73.00	391.00	27.20	41.00	4.20	64.00	3.70	11373	3411.00	27.80	27.80	1580070659.0	11.35	21.02
26/01/2020 20:31:00	26012020	260120	203100	292.140	12.182015	-56.135578	292.270	0.420	-0.590	-0.470	292.140	-1.900	-0.200																			1580070660.0	10.84	20.08
26/01/2020 20:31:01	26012020	260120	203101	292.360	12.182032	-56.135625	292.560	0.010	-0.260	-0.630	292.420	-1.600	-0.300																			1580070661.0	10.68	19.78
26/01/2020 20:31:02	26012020	260120	203102	292.690	12.182050	-56.135673	292.820	-0.350	-0.090	-0.700	292.690	-1.400	-0.400																			1580070662.0	10.89	20.17
26/01/2020 20:31:03	26012020	260120	203103	292.790	12.182067	-56.135723	292.920	-0.620	-0.020	-0.620	292.790	-1.300	-0.300																			1580070663.0	11.15	20.65
26/01/2020 20:31:04	26012020	260120	203104	292.710	12.182083	-56.135773	292.830	-0.730	-0.070	-0.420	292.710	-1.400	-0.100																			1580070664.0	11.26	20.85
26/01/2020 20:31:05	26012020	260120	203105	292.610	12.182100	-56.135825	292.740	-0.590	-0.340	-0.240	292.610	-1.700	0.100																			1580070665.0	11.38	21.08
26/01/2020 20:31:06	26012020	260120	203106	292.600	12.182118	-56.135877	292.740	-0.200	-0.730	-0.140	292.600	-2.100	0.200																			1580070666.0	11.67	21.61
26/01/2020 20:31:07	26012020	260120	203107	292.640	12.182137	-56.135930	292.780	0.200	-0.820	-0.040	292.640	-2.100	0.300																			1580070667.0	11.90	22.04
26/01/2020 20:31:08	26012020	260120	203108	292.610	12.182155	-56.135982	292.750	0.340	-0.350	0.120	292.610	-1.700	0.400																			1580070668.0	11.69	21.65
26/01/2020 20:31:09	26012020	260120	203109	292.490	12.182175	-56.136030	292.620	0.140	0.370	0.230	292.490	-1.000	0.600																			1580070669.0	11.09	20.54
26/01/2020 20:31:10	26012020	260120	203110	292.390	12.182193	-56.136077	292.520	-0.150	0.730	0.090	292.390	-0.600	0.400																			1580070670.0	10.68	19.78
26/01/2020 20:31:11	26012020	260120	203111	292.360	12.182212	-56.136125	292.480	-0.240	0.420	-0.250	292.360	-0.900	0.100																			1580070671.0	10.91	20.21
26/01/2020 20:31:12	26012020	260120	203112	292.340	12.182228	-56.136177	292.450	-0.030	-0.280	-0.550	292.340	-1.600	-0.200																			1580070672.0	11.51	21.32
26/01/2020 20:31:13	26012020	260120	203113	292.340	12.182247	-56.136230	292.450	0.310	-0.830	-0.610	292.340	-2.200	-0.300																			1580070673.0	11.90	22.04
26/01/2020 20:31:14	26012020	260120	203114	292.310	12.182265	-56.136282	292.420	0.500	-0.820	-0.370	292.310	-2.100	-0.000																			1580070674.0	11.77	21.80
26/01/2020 20:31:15	26012020	260120	203115	292.190	12.182285	-56.136332	292.270	0.400	-0.330	0.010	292.150	-1.700	0.300																			1580070675.0	11.19	20.72
26/01/2020 20:31:16	26012020	260120	203116	291.940	12.182305	-56.136378	292.070	0.070	0.120	0.160	291.940	-1.200	0.500																			1580070676.0	10.69	19.80
26/01/2020 20:31:17	26012020	260120	203117	291.840	12.182322	-56.136425	291.980	-0.230	0.090	-0.030	291.840	-1.300	0.300																			1580070677.0	10.68	19.78
26/01/2020 20:31:18	26012020	260120	203118	291.910	12.182340	-56.136475	292.050	-0.320	-0.420	-0.350	291.910	-1.800	-0.000																			1580070678.0	11.19	20.72
26/01/2020 20:31:19	26012020	260120	203119	292.130	12.182357	-56.136528	292.270	-0.180	-0.980	-0.620	292.130	-2.300	-0.300																			1580070679.0	11.76	21.78
26/01/2020 20:31:20	26012020	260120	203120	292.430	12.182373	-56.136582	292.580	0.040	-1.140	-0.700	292.430	-2.500	-0.400																			1580070680.0	11.95	22.13
26/01/2020 20:31:21	26012020	260120	203121	292.720	12.182392	-56.136633	292.870	0.150	-0.750	-0.460	292.720	-2.100	-0.100																			1580070681.0	11.72	21.71
26/01/2020 20:31:22	26012020	260120	203122	292.850	12.182410	-56.136683	292.980	0.070	-0.000	-0.060	292.850	-1.300	0.300																			1580070682.0	11.27	20.87
26/01/2020 20:31:23	26012020	260120	203123	292.770	12.182430	-56.136732	292.890	-0.140	0.630	0.240	292.770	-0.700	0.600																			1580070683.0	10.94	20.26
26/01/2020 20:31:24	26012020	260120	203124	292.620	12.182450	-56.136780	292.750	-0.320	0.760	0.220	292.620	-0.600	0.500																			1580070684.0	10.97	20.32
26/01/2020 20:31:25	26012020	260120	203125	292.520	12.182468	-56.136830	292.620	-0.340	0.360	-0.100	292.520	-1.000	0.200																			1580070685.0	11.33	20.98
26/01/2020 20:31:26	26012020	260120	203126	292.460	12.182485	-56.136882	292.570	-0.190	-0.260	-0.480	292.460	-1.600	-0.200																			1580070686.0	11.71	21.69
26/01/2020 20:31:27	26012020	260120	203127	292.420	12.182502	-56.136935	292.540	0.050	-0.810	-0.730	292.420	-2.100	-0.400																			1580070687.0	11.84	21.93
26/01/2020 20:31:28	26012020	260120	203128	292.360	12.182520	-56.136988	292.470	0.280	-1.060	-0.730	292.360	-2.400	-0.400																			1580070688.0	11.78	21.82
26/01/2020 20:31:29	26012020	260120	203129	292.200	12.182538	-56.137040	292.300	0.370	-0.800	-0.460	292.200	-2.100	-0.100																			1580070689.0	11.57	21.43
26/01/2020 20:31:30	26012020	260120	203130	291.990	12.182557	-56.137088	292.100	0.250	-0.160	-0.120	291.990	-1.500	0.200																			1580070690.0	11.13	20.61
26/01/2020 20:31:31	26012020	260120	203131	291.850	12.182577	-56.137135	291.980	0.010	0.320	0.080	291.850	-1.000	0.400																			1580070691.0	10.71	19.83
26/01/2020 20:31:32	26012020	260120	203132	291.860	12.182595	-56.137183	292.000	-0.130	0.200	0.050	291.860	-1.100	0.400																			1580070692.0	10.84	20.08
26/01/2020 20:31:33	26012020	260120	203133	291.980	12.182613	-56.137233	292.110	-0.100	-0.370	-0.160	291.980	-1.700	0.200																			1580070693.0	11.46	21.22
26/01/2020 20:31:34	26012020	260120	203134	292.120	12.182632	-56.137287	292.250	0.020	-0.790	-0.320	292.120	-2.100	0.000																			1580070694.0	12.00	22.22
26/01/2020 20:31:35	26012020	260120	203135	292.250	12.182652	-56.137340	292.400	0.060	-0.710	-0.350	292.250	-2.000	-0.000																			1580070695.0	11.91	22.06
26/01/2020 20:31:36	26012020	260120	203136	292.380	12.182668	-56.137390	292.530	-0.000	-0.280	-0.310	292.380	-1.600	0.000																			1580070696.0	11.41	21.13
26/01/2020 20:31:37	26012020	260120	203137	292.490	12.182687	-56.137440	292.650	-0.090	0.060	-0.250	292.490	-1.300	0.100																			1580070697.0	11.09	20.54
26/01/2020 20:31:38	26012020	260120	203138	292.570	12.182705	-56.137490	292.720	-0.120	0.100	-0.150	292.570	-1.200	0.200																			1580070698.0	11.18	20.71
26/01/2020 20:31:39	26012020	260120	203139	292.560	12.182723	-56.137540	292.710	-0.080	-0.060	0.020	292.560	-1.400	0.400																			1580070699.0	11.49	21.28
26/01/2020 20:31:40	26012020	260120	203140	292.450	12.182743	-56.137592	292.570	0.000	-0.170	0.240	292.450	-1.500	0.600																			1580070700.0	11.63	21.54
26/01/2020 20:31:41	26012020	260120	203141	292.230	12.182762	-56.137642	292.360	0.110	-0.240	0.340	292.230	-1.600	0.700																			1580070701.0	11.51	21.32
26/01/2020 20:31:42	26012020	260120	203142	292.020	12.182780	-56.137693	292.150	0.230	-0.390	0.270	292.020	-1.700	0.600																			1580070702.0	11.44	21.19
26/01/2020 20:31:43	26012020	260120	203143	291.870	12.182798	-56.137743	292.000	0.300	-0.540	0.090	291.870	-1.900	0.400																			1580070703.0	11.54	21.37
26/01/2020 20:31:44	26012020	260120	203144	291.770	12.182817	-56.137795	291.920	0.230	-0.500	-0.090	291.770	-1.800	0.200																			1580070704.0	11.58	21.45
26/01/2020 20:31:45	26012020	260120	203145	291.730	12.182835	-56.137847	291.880	0.000	-0.260	-0.180	291.730	-1.600	0.100																			1580070705.0	11.39	21.09
26/01/2020 20:31:46	26012020	260120	203146	291.750	12.182852	-56.137897	291.910	-0.300	-0.070	-0.310	291.750	-1.400	0.000																			1580070706.0	11.17	20.69
26/01/2020 20:31:47	26012020	260120	203147	291.880	12.182870	-56.137947	292.030	-0.510	-0.160	-0.500	291.880	-1.500	-0.200																			1580070707.0	11.19	20.72
26/01/2020 20:31:48	26012020	260120	203148	292.070	12.182887	-56.137998	292.240	-0.480	-0.510	-0.670	292.070	-1.900	-0.400																			1580070708.0	11.54	21.37
26/01/2020 20:31:49	26012020	260120	203149	292.290	12.182905	-56.138052	292.450	-0.220	-0.790	-0.700	292.290	-2.100	-0.400																			1580070709.0	11.94	22.11
26/01/2020 20:31:50	26012020	260120	203150	292.440	12.182922	-56.138105	292.590	0.090	-0.630	-0.430	292.440	-2.000	-0.100																			1580070710.0	11.98	22.19
26/01/2020 20:31:51	26012020	260120	203151	292.450	12.182940	-56.138157	292.580	0.300	-0.060	0.120	292.440	-1.400	0.500																			1580070711.0	11.61	21.50
26/01/2020 20:31:52	26012020	260120	203152	292.280	12.182960	-56.138205	292.420	0.330	0.500	0.530	292.280	-0.800	0.900																			1580070712.0	11.15	20.65
26/01/2020 20:31:53	26012020	260120	203153	292.110	12.182980	-56.138253	292.250	0.290	0.570	0.510	292.110	-0.800	0.800																			1580070713.0	11.06	20.48
26/01/2020 20:31:54	26012020	260120	203154	292.000	12.183000	-56.138303	292.140	0.270	0.120	0.170	292.000	-1.200	0.500																			1580070714.0	11.41	21.13
26/01/2020 20:31:55	26012020	260120	203155	291.940	12.183018	-56.138357	292.080	0.240	-0.420	-0.230	291.940	-1.800	0.100																			1580070715.0	11.82	21.89
26/01/2020 20:31:56	26012020	260120	203156	291.890	12.183037	-56.138408	292.020	0.120	-0.650	-0.460	291.890	-2.000	-0.100																			1580070716.0	11.85	21.95
26/01/2020 20:31:57	26012020	260120	203157	291.830	12.183055	-56.138460	291.970	-0.090	-0.590	-0.480	291.830	-1.900	-0.200																			1580070717.0	11.47	21.24
26/01/2020 20:31:58	26012020	260120	203158	291.830	12.183072	-56.138510	291.990	-0.260	-0.520	-0.400	291.830	-1.900	-0.100																			1580070718.0	11.17	20.69
26/01/2020 20:31:59	26012020	260120	203159	291.960	12.183090	-56.138560	292.130	-0.280	-0.610	-0.390	291.960	-1.900	-0.100	1014.00	26.30	26.20	21.10	21.10	156.00	73.00	73.00	391.00	27.20	36.00	4.00	70.00	3.50	11379	3365.00	27.80	27.70	1580070719.0	11.26	20.85
26/01/2020 20:32:00	26012020	260120	203200	292.190	12.183107	-56.138612	292.370	-0.130	-0.750	-0.430	292.190	-2.100	-0.100																			1580070720.0	11.58	21.45
26/01/2020 20:32:01	26012020	260120	203201	292.480	12.183125	-56.138665	292.660	0.050	-0.770	-0.400	292.480	-2.100	-0.100																			1580070721.0	11.79	21.84
26/01/2020 20:32:02	26012020	260120	203202	292.700	12.183143	-56.138717	292.870	0.120	-0.530	-0.250	292.700	-1.900	0.100																			1580070722.0	11.81	21.87
26/01/2020 20:32:03	26012020	260120	203203	292.730	12.183163	-56.138768	292.870	-0.010	-0.040	-0.050	292.720	-1.400	0.300																			1580070723.0	11.66	21.59
26/01/2020 20:32:04	26012020	260120	203204	292.570	12.183182	-56.138818	292.700	-0.230	0.450	0.080	292.570	-0.900	0.400																			1580070724.0	11.39	21.09
26/01/2020 20:32:05	26012020	260120	203205	292.400	12.183200	-56.138868	292.480	-0.390	0.590	0.010	292.350	-0.800	0.300																			1580070725.0	11.29	20.91
26/01/2020 20:32:06	26012020	260120	203206	292.170	12.183218	-56.138920	292.310	-0.350	0.280	-0.250	292.170	-1.100	0.100																			1580070726.0	11.51	21.32
26/01/2020 20:32:07	26012020	260120	203207	292.080	12.183237	-56.138973	292.210	-0.130	-0.310	-0.560	292.080	-1.700	-0.200																			1580070727.0	11.86	21.96
26/01/2020 20:32:08	26012020	260120	203208	292.050	12.183253	-56.139027	292.180	0.150	-0.710	-0.680	292.050	-2.100	-0.300																			1580070728.0	12.10	22.41
26/01/2020 20:32:09	26012020	260120	203209	292.050	12.183272	-56.139080	292.170	0.330	-0.640	-0.510	292.050	-2.000	-0.200																			1580070729.0	11.88	22.00
26/01/2020 20:32:10	26012020	260120	203210	292.010	12.183292	-56.139130	292.140	0.360	-0.320	-0.230	292.010	-1.700	0.100																			1580070730.0	11.37	21.06
26/01/2020 20:32:11	26012020	260120	203211	291.990	12.183312	-56.139180	292.130	0.320	-0.140	-0.050	291.990	-1.500	0.300																			1580070731.0	11.13	20.61
26/01/2020 20:32:12	26012020	260120	203212	292.020	12.183330	-56.139228	292.160	0.330	-0.220	-0.000	292.020	-1.600	0.300																			1580070732.0	11.30	20.93
26/01/2020 20:32:13	26012020	260120	203213	292.100	12.183350	-56.139280	292.230	0.380	-0.370	-0.050	292.100	-1.700	0.300																			1580070733.0	11.64	21.56
26/01/2020 20:32:14	26012020	260120	203214	292.150	12.183370	-56.139332	292.280	0.260	-0.340	-0.130	292.150	-1.700	0.200																			1580070734.0	11.75	21.76
26/01/2020 20:32:15	26012020	260120	203215	292.110	12.183388	-56.139383	292.210	-0.090	-0.130	-0.260	292.110	-1.500	0.100																			1580070735.0	11.54	21.37
26/01/2020 20:32:16	26012020	260120	203216	292.000	12.183407	-56.139433	292.110	-0.510	-0.020	-0.430	292.000	-1.400	-0.100																			1580070736.0	11.28	20.89
26/01/2020 20:32:17	26012020	260120	203217	291.950	12.183422	-56.139485	292.080	-0.650	-0.280	-0.600	291.950	-1.600	-0.300																			1580070737.0	11.35	21.02
26/01/2020 20:32:18	26012020	260120	203218	292.070	12.183438	-56.139537	292.220	-0.370	-0.820	-0.690	292.070	-2.200	-0.400																			1580070738.0	11.77	21.80
26/01/2020 20:32:19	26012020	260120	203219	292.280	12.183457	-56.139592	292.410	0.130	-1.250	-0.640	292.280	-2.600	-0.300																			1580070739.0	12.20	22.59
26/01/2020 20:32:20	26012020	260120	203220	292.380	12.183477	-56.139647	292.500	0.420	-1.070	-0.380	292.380	-2.400	-0.000																			1580070740.0	12.27	22.72
26/01/2020 20:32:21	26012020	260120	203221	292.350	12.183497	-56.139698	292.470	0.270	-0.260	0.020	292.350	-1.600	0.400																			1580070741.0	11.80	21.85
26/01/2020 20:32:22	26012020	260120	203222	292.210	12.183517	-56.139747	292.310	-0.170	0.680	0.330	292.210	-0.700	0.700																			1580070742.0	11.16	20.67
26/01/2020 20:32:23	26012020	260120	203223	292.010	12.183537	-56.139795	292.120	-0.550	1.090	0.330	292.010	-0.300	0.700																			1580070743.0	10.93	20.24
26/01/2020 20:32:24	26012020	260120	203224	291.840	12.183553	-56.139845	291.960	-0.550	0.750	0.070	291.840	-0.600	0.400																			1580070744.0	11.30	20.93
26/01/2020 20:32:25	26012020	260120	203225	291.710	12.183570	-56.139898	291.830	-0.210	-0.030	-0.190	291.710	-1.400	0.100																			1580070745.0	11.94	22.11
26/01/2020 20:32:26	26012020	260120	203226	291.660	12.183588	-56.139953	291.770	0.230	-0.660	-0.260	291.660	-2.000	0.100																			1580070746.0	12.27	22.72
26/01/2020 20:32:27	26012020	260120	203227	291.690	12.183607	-56.140007	291.800	0.500	-0.770	-0.100	291.690	-2.100	0.200																			1580070747.0	12.01	22.24
26/01/2020 20:32:28	26012020	260120	203228	291.750	12.183627	-56.140057	291.860	0.560	-0.540	0.140	291.750	-1.900	0.500																			1580070748.0	11.40	21.11
26/01/2020 20:32:29	26012020	260120	203229	291.860	12.183647	-56.140105	291.990	0.530	-0.440	0.260	291.860	-1.800	0.600																			1580070749.0	11.06	20.48
26/01/2020 20:32:30	26012020	260120	203230	292.000	12.183667	-56.140155	292.120	0.500	-0.590	0.190	292.000	-1.900	0.500																			1580070750.0	11.27	20.87
26/01/2020 20:32:31	26012020	260120	203231	292.100	12.183685	-56.140207	292.220	0.400	-0.710	-0.010	292.100	-2.000	0.300																			1580070751.0	11.69	21.65
26/01/2020 20:32:32	26012020	260120	203232	292.120	12.183705	-56.140258	292.240	0.090	-0.500	-0.220	292.120	-1.800	0.100																			1580070752.0	11.75	21.76
26/01/2020 20:32:33	26012020	260120	203233	292.130	12.183722	-56.140310	292.250	-0.410	-0.110	-0.410	292.130	-1.400	-0.100																			1580070753.0	11.46	21.22
26/01/2020 20:32:34	26012020	260120	203234	292.160	12.183738	-56.140360	292.280	-0.820	0.050	-0.630	292.160	-1.300	-0.300																			1580070754.0	11.26	20.85
26/01/2020 20:32:35	26012020	260120	203235	292.230	12.183753	-56.140413	292.350	-0.840	-0.190	-0.800	292.230	-1.500	-0.500																			1580070755.0	11.51	21.32
26/01/2020 20:32:36	26012020	260120	203236	292.350	12.183770	-56.140467	292.480	-0.400	-0.670	-0.780	292.350	-2.000	-0.400																			1580070756.0	12.02	22.26
26/01/2020 20:32:37	26012020	260120	203237	292.490	12.183788	-56.140522	292.620	0.210	-0.910	-0.460	292.490	-2.300	-0.100																			1580070757.0	12.39	22.95
26/01/2020 20:32:38	26012020	260120	203238	292.520	12.183810	-56.140577	292.650	0.540	-0.570	0.050	292.520	-1.900	0.400																			1580070758.0	12.26	22.71
26/01/2020 20:32:39	26012020	260120	203239	292.390	12.183832	-56.140627	292.500	0.320	0.230	0.410	292.390	-1.100	0.700																			1580070759.0	11.68	21.63
26/01/2020 20:32:40	26012020	260120	203240	292.110	12.183852	-56.140675	292.210	-0.280	0.940	0.350	292.110	-0.400	0.700																			1580070760.0	11.08	20.52
26/01/2020 20:32:41	26012020	260120	203241	291.870	12.183870	-56.140723	291.920	-0.770	1.040	-0.060	291.830	-0.300	0.300																			1580070761.0	10.91	20.21
26/01/2020 20:32:42	26012020	260120	203242	291.700	12.183885	-56.140775	291.810	-0.700	0.330	-0.480	291.700	-1.000	-0.200																			1580070762.0	11.33	20.98
26/01/2020 20:32:43	26012020	260120	203243	291.750	12.183900	-56.140828	291.900	-0.030	-0.770	-0.690	291.790	-2.100	-0.400																			1580070763.0	12.03	22.28
26/01/2020 20:32:44	26012020	260120	203244	291.990	12.183918	-56.140885	292.130	0.790	-1.480	-0.550	291.990	-2.800	-0.200																			1580070764.0	12.43	23.02
26/01/2020 20:32:45	26012020	260120	203245	292.140	12.183938	-56.140938	292.260	1.160	-1.270	-0.120	292.140	-2.600	0.200																			1580070765.0	12.13	22.46
26/01/2020 20:32:46	26012020	260120	203246	292.150	12.183960	-56.140987	292.270	0.900	-0.360	0.350	292.150	-1.700	0.700																			1580070766.0	11.27	20.87
26/01/2020 20:32:47	26012020	260120	203247	292.040	12.183982	-56.141032	292.160	0.290	0.430	0.550	292.040	-0.900	0.900																			1580070767.0	10.59	19.61
26/01/2020 20:32:48	26012020	260120	203248	291.940	12.184000	-56.141078	292.070	-0.210	0.460	0.330	291.940	-0.900	0.700																			1580070768.0	10.67	19.76
26/01/2020 20:32:49	26012020	260120	203249	291.940	12.184018	-56.141130	292.080	-0.330	-0.240	-0.130	291.940	-1.600	0.200																			1580070769.0	11.47	21.24
26/01/2020 20:32:50	26012020	260120	203250	291.980	12.184035	-56.141185	292.120	-0.220	-0.970	-0.530	291.980	-2.300	-0.200																			1580070770.0	12.30	22.78
26/01/2020 20:32:51	26012020	260120	203251	291.980	12.184053	-56.141242	292.090	-0.190	-1.070	-0.630	291.980	-2.400	-0.300																			1580070771.0	12.41	22.98
26/01/2020 20:32:52	26012020	260120	203252	291.950	12.184070	-56.141295	292.070	-0.400	-0.580	-0.490	291.950	-1.900	-0.200																			1580070772.0	11.82	21.89
26/01/2020 20:32:53	26012020	260120	203253	291.950	12.184088	-56.141345	292.090	-0.650	-0.120	-0.410	291.960	-1.500	-0.100																			1580070773.0	11.23	20.80
26/01/2020 20:32:54	26012020	260120	203254	292.100	12.184105	-56.141395	292.230	-0.640	-0.120	-0.530	292.100	-1.500	-0.200																			1580070774.0	11.30	20.93
26/01/2020 20:32:55	26012020	260120	203255	292.270	12.184122	-56.141448	292.440	-0.300	-0.420	-0.720	292.320	-1.800	-0.400																			1580070775.0	11.89	22.02
26/01/2020 20:32:56	26012020	260120	203256	292.490	12.184140	-56.141503	292.590	0.130	-0.460	-0.710	292.490	-1.800	-0.400																			1580070776.0	12.33	22.84
26/01/2020 20:32:57	26012020	260120	203257	292.470	12.184158	-56.141557	292.570	0.310	0.060	-0.310	292.470	-1.300	0.000																			1580070777.0	12.05	22.32
26/01/2020 20:32:58	26012020	260120	203258	292.250	12.184178	-56.141607	292.340	0.200	0.790	0.270	292.250	-0.500	0.600																			1580070778.0	11.31	20.95
26/01/2020 20:32:59	26012020	260120	203259	291.900	12.184198	-56.141653	291.990	0.030	1.070	0.600	291.900	-0.300	0.900	1014.00	26.30	26.20	21.00	21.00	170.00	72.00	73.00	391.00	27.20	24.00	3.80	80.00	2.90	11505	3397.00	27.70	27.70	1580070779.0	10.84	20.08
26/01/2020 20:33:00	26012020	260120	203300	291.550	12.184218	-56.141702	291.640	0.040	0.570	0.520	291.550	-0.800	0.800																			1580070780.0	11.06	20.48
26/01/2020 20:33:01	26012020	260120	203301	291.300	12.184237	-56.141753	291.420	0.280	-0.400	0.200	291.300	-1.700	0.500																			1580070781.0	11.66	21.59
26/01/2020 20:33:02	26012020	260120	203302	291.220	12.184257	-56.141808	291.350	0.540	-1.190	-0.120	291.220	-2.500	0.200																			1580070782.0	12.07	22.35
26/01/2020 20:33:03	26012020	260120	203303	291.300	12.184275	-56.141860	291.430	0.610	-1.410	-0.370	291.300	-2.700	-0.000																			1580070783.0	11.92	22.08
26/01/2020 20:33:04	26012020	260120	203304	291.490	12.184292	-56.141912	291.630	0.430	-1.150	-0.520	291.490	-2.500	-0.200																			1580070784.0	11.45	21.21
26/01/2020 20:33:05	26012020	260120	203305	291.750	12.184310	-56.141962	291.890	0.140	-0.790	-0.540	291.750	-2.100	-0.200																			1580070785.0	11.17	20.69
26/01/2020 20:33:06	26012020	260120	203306	292.020	12.184328	-56.142012	292.160	-0.110	-0.500	-0.440	292.020	-1.800	-0.100																			1580070786.0	11.28	20.89
26/01/2020 20:33:07	26012020	260120	203307	292.200	12.184347	-56.142063	292.340	-0.290	-0.270	-0.250	292.200	-1.600	0.100																			1580070787.0	11.57	21.43
26/01/2020 20:33:08	26012020	260120	203308	292.300	12.184365	-56.142115	292.430	-0.450	-0.100	-0.110	292.300	-1.400	0.200																			1580070788.0	11.75	21.76
26/01/2020 20:33:09	26012020	260120	203309	292.320	12.184383	-56.142168	292.440	-0.560	0.010	-0.050	292.320	-1.300	0.300																			1580070789.0	11.83	21.91
26/01/2020 20:33:10	26012020	260120	203310	292.270	12.184400	-56.142222	292.380	-0.550	0.040	-0.110	292.270	-1.300	0.200																			1580070790.0	11.90	22.04
26/01/2020 20:33:11	26012020	260120	203311	292.190	12.184418	-56.142275	292.310	-0.410	0.020	-0.230	292.190	-1.300	0.100																			1580070791.0	11.91	22.06
26/01/2020 20:33:12	26012020	260120	203312	292.090	12.184435	-56.142328	292.190	-0.220	-0.020	-0.340	292.090	-1.400	-0.000																			1580070792.0	11.90	22.04
26/01/2020 20:33:13	26012020	260120	203313	291.930	12.184453	-56.142380	292.020	-0.080	0.000	-0.370	291.930	-1.300	-0.000																			1580070793.0	11.82	21.89
26/01/2020 20:33:14	26012020	260120	203314	291.680	12.184472	-56.142433	291.750	-0.020	0.110	-0.240	291.680	-1.200	0.100																			1580070794.0	11.64	21.56
26/01/2020 20:33:15	26012020	260120	203315	291.430	12.184490	-56.142483	291.520	0.040	0.110	-0.010	291.430	-1.200	0.300																			1580070795.0	11.41	21.13
26/01/2020 20:33:16	26012020	260120	203316	291.310	12.184508	-56.142533	291.420	0.240	-0.120	0.190	291.310	-1.500	0.500																			1580070796.0	11.39	21.09
26/01/2020 20:33:17	26012020	260120	203317	291.310	12.184528	-56.142585	291.440	0.560	-0.450	0.330	291.320	-1.800	0.700																			1580070797.0	11.59	21.46
26/01/2020 20:33:18	26012020	260120	203318	291.390	12.184548	-56.142637	291.510	0.820	-0.680	0.400	291.390	-2.000	0.700																			1580070798.0	11.70	21.67
26/01/2020 20:33:19	26012020	260120	203319	291.490	12.184568	-56.142687	291.620	0.840	-0.720	0.370	291.490	-2.100	0.700																			1580070799.0	11.63	21.54
26/01/2020 20:33:20	26012020	260120	203320	291.590	12.184588	-56.142737	291.720	0.570	-0.620	0.190	291.590	-2.000	0.500																			1580070800.0	11.51	21.32
26/01/2020 20:33:21	26012020	260120	203321	291.660	12.184607	-56.142788	291.790	0.120	-0.410	-0.080	291.660	-1.800	0.200																			1580070801.0	11.46	21.22
26/01/2020 20:33:22	26012020	260120	203322	291.680	12.184623	-56.142840	291.790	-0.340	-0.180	-0.320	291.680	-1.500	0.000																			1580070802.0	11.42	21.15
26/01/2020 20:33:23	26012020	260120	203323	291.650	12.184640	-56.142892	291.760	-0.610	-0.130	-0.490	291.650	-1.500	-0.200																			1580070803.0	11.45	21.21
26/01/2020 20:33:24	26012020	260120	203324	291.670	12.184657	-56.142943	291.800	-0.570	-0.410	-0.590	291.670	-1.800	-0.300																			1580070804.0	11.69	21.65
26/01/2020 20:33:25	26012020	260120	203325	291.770	12.184673	-56.142998	291.890	-0.300	-0.800	-0.570	291.770	-2.100	-0.200																			1580070805.0	12.11	22.43
26/01/2020 20:33:26	26012020	260120	203326	291.850	12.184692	-56.143053	291.970	-0.030	-0.840	-0.360	291.850	-2.200	-0.000																			1580070806.0	12.36	22.89
26/01/2020 20:33:27	26012020	260120	203327	291.790	12.184710	-56.143107	291.910	-0.010	-0.330	-0.030	291.790	-1.700	0.300																			1580070807.0	12.08	22.37
26/01/2020 20:33:28	26012020	260120	203328	291.610	12.184730	-56.143158	291.740	-0.230	0.370	0.130	291.610	-1.000	0.500																			1580070808.0	11.49	21.28
26/01/2020 20:33:29	26012020	260120	203329	291.440	12.184747	-56.143208	291.560	-0.450	0.700	0.070	291.440	-0.700	0.400																			1580070809.0	11.18	20.71
26/01/2020 20:33:30	26012020	260120	203330	291.350	12.184763	-56.143260	291.490	-0.430	0.430	-0.120	291.350	-0.900	0.200																			1580070810.0	11.43	21.17
26/01/2020 20:33:31	26012020	260120	203331	291.360	12.184780	-56.143313	291.520	-0.130	-0.160	-0.240	291.380	-1.500	0.100																			1580070811.0	11.93	22.09
26/01/2020 20:33:32	26012020	260120	203332	291.390	12.184798	-56.143368	291.520	0.260	-0.570	-0.140	291.390	-1.900	0.200																			1580070812.0	12.18	22.56
26/01/2020 20:33:33	26012020	260120	203333	291.290	12.184818	-56.143420	291.440	0.510	-0.580	0.140	291.290	-1.900	0.500																			1580070813.0	11.94	22.11
26/01/2020 20:33:34	26012020	260120	203334	291.190	12.184838	-56.143472	291.340	0.540	-0.360	0.360	291.190	-1.700	0.700																			1580070814.0	11.50	21.30
26/01/2020 20:33:35	26012020	260120	203335	291.150	12.184857	-56.143520	291.300	0.460	-0.240	0.360	291.150	-1.600	0.700																			1580070815.0	11.28	20.89
26/01/2020 20:33:36	26012020	260120	203336	291.120	12.184877	-56.143572	291.270	0.370	-0.290	0.150	291.120	-1.600	0.500																			1580070816.0	11.39	21.09
26/01/2020 20:33:37	26012020	260120	203337	291.060	12.184893	-56.143623	291.190	0.280	-0.420	-0.120	291.060	-1.800	0.200																			1580070817.0	11.62	21.52
26/01/2020 20:33:38	26012020	260120	203338	291.030	12.184912	-56.143675	291.160	0.130	-0.500	-0.400	291.030	-1.800	-0.100																			1580070818.0	11.75	21.76
26/01/2020 20:33:39	26012020	260120	203339	291.120	12.184928	-56.143728	291.250	-0.060	-0.530	-0.670	291.120	-1.900	-0.300																			1580070819.0	11.72	21.71
26/01/2020 20:33:40	26012020	260120	203340	291.290	12.184945	-56.143782	291.430	-0.200	-0.560	-0.820	291.290	-1.900	-0.500																			1580070820.0	11.73	21.72
26/01/2020 20:33:41	26012020	260120	203341	291.480	12.184962	-56.143835	291.620	-0.270	-0.620	-0.840	291.480	-2.000	-0.500																			1580070821.0	11.83	21.91
26/01/2020 20:33:42	26012020	260120	203342	291.670	12.184980	-56.143888	291.810	-0.300	-0.610	-0.700	291.670	-2.000	-0.400																			1580070822.0	11.99	22.21
26/01/2020 20:33:43	26012020	260120	203343	291.770	12.184998	-56.143942	291.910	-0.350	-0.370	-0.380	291.780	-1.700	-0.000																			1580070823.0	12.05	22.32
26/01/2020 20:33:44	26012020	260120	203344	291.640	12.185017	-56.143995	291.750	-0.470	0.170	-0.010	291.640	-1.200	0.300																			1580070824.0	11.86	21.96
26/01/2020 20:33:45	26012020	260120	203345	291.300	12.185033	-56.144047	291.400	-0.550	0.700	0.300	291.300	-0.600	0.600																			1580070825.0	11.48	21.26
26/01/2020 20:33:46	26012020	260120	203346	290.930	12.185052	-56.144097	291.040	-0.450	0.720	0.350	290.930	-0.600	0.700																			1580070826.0	11.30	20.93
26/01/2020 20:33:47	26012020	260120	203347	290.670	12.185068	-56.144148	290.800	-0.100	0.090	0.170	290.670	-1.300	0.500																			1580070827.0	11.65	21.58
26/01/2020 20:33:48	26012020	260120	203348	290.520	12.185087	-56.144203	290.670	0.370	-0.710	-0.030	290.520	-2.100	0.300																			1580070828.0	12.21	22.61
26/01/2020 20:33:49	26012020	260120	203349	290.430	12.185105	-56.144258	290.570	0.710	-1.040	-0.080	290.430	-2.400	0.200																			1580070829.0	12.36	22.89
26/01/2020 20:33:50	26012020	260120	203350	290.330	12.185123	-56.144312	290.460	0.750	-0.780	0.030	290.330	-2.100	0.400																			1580070830.0	11.88	22.00
26/01/2020 20:33:51	26012020	260120	203351	290.260	12.185142	-56.144362	290.400	0.540	-0.370	0.120	290.260	-1.700	0.400																			1580070831.0	11.31	20.95
26/01/2020 20:33:52	26012020	260120	203352	290.250	12.185160	-56.144412	290.400	0.230	-0.160	0.080	290.250	-1.500	0.400																			1580070832.0	11.19	20.72
26/01/2020 20:33:53	26012020	260120	203353	290.300	12.185178	-56.144462	290.460	-0.040	-0.200	-0.080	290.300	-1.500	0.200																			1580070833.0	11.50	21.30
26/01/2020 20:33:54	26012020	260120	203354	290.370	12.185195	-56.144515	290.500	-0.210	-0.300	-0.240	290.370	-1.700	0.100																			1580070834.0	11.81	21.87
26/01/2020 20:33:55	26012020	260120	203355	290.390	12.185212	-56.144570	290.520	-0.280	-0.330	-0.270	290.390	-1.700	0.100																			1580070835.0	11.91	22.06
26/01/2020 20:33:56	26012020	260120	203356	290.390	12.185228	-56.144623	290.520	-0.260	-0.320	-0.170	290.390	-1.700	0.200																			1580070836.0	11.87	21.98
26/01/2020 20:33:57	26012020	260120	203357	290.430	12.185245	-56.144675	290.580	-0.180	-0.330	0.030	290.430	-1.700	0.400																			1580070837.0	11.85	21.95
26/01/2020 20:33:58	26012020	260120	203358	290.470	12.185263	-56.144728	290.620	-0.120	-0.300	0.200	290.470	-1.700	0.500																			1580070838.0	11.89	22.02
26/01/2020 20:33:59	26012020	260120	203359	290.450	12.185282	-56.144782	290.600	-0.110	-0.190	0.280	290.450	-1.500	0.600	1014.00	26.30	26.30	21.10	21.10	171.00	73.00	73.00	391.00	27.10	33.00	4.40	66.00	3.30	11435	3374.00	27.80	27.70	1580070839.0	11.89	22.02
26/01/2020 20:34:00	26012020	260120	203400	290.360	12.185298	-56.144835	290.490	-0.140	-0.010	0.310	290.360	-1.400	0.600																			1580070840.0	11.77	21.80
26/01/2020 20:34:01	26012020	260120	203401	290.270	12.185313	-56.144888	290.410	-0.120	0.100	0.270	290.270	-1.300	0.600																			1580070841.0	11.61	21.50
26/01/2020 20:34:02	26012020	260120	203402	290.270	12.185330	-56.144940	290.410	-0.010	-0.050	0.100	290.270	-1.400	0.400																			1580070842.0	11.59	21.46
26/01/2020 20:34:03	26012020	260120	203403	290.350	12.185347	-56.144993	290.490	0.170	-0.400	-0.140	290.350	-1.800	0.200																			1580070843.0	11.80	21.85
26/01/2020 20:34:04	26012020	260120	203404	290.450	12.185365	-56.145047	290.570	0.290	-0.670	-0.350	290.450	-2.000	-0.000																			1580070844.0	12.00	22.22
26/01/2020 20:34:05	26012020	260120	203405	290.520	12.185382	-56.145100	290.640	0.250	-0.670	-0.470	290.520	-2.000	-0.100																			1580070845.0	11.96	22.15
26/01/2020 20:34:06	26012020	260120	203406	290.600	12.185398	-56.145153	290.720	0.090	-0.480	-0.560	290.600	-1.800	-0.200																			1580070846.0	11.72	21.71
26/01/2020 20:34:07	26012020	260120	203407	290.720	12.185415	-56.145205	290.850	-0.070	-0.280	-0.600	290.720	-1.600	-0.300																			1580070847.0	11.59	21.46
26/01/2020 20:34:08	26012020	260120	203408	290.870	12.185432	-56.145258	291.010	-0.140	-0.210	-0.580	290.870	-1.500	-0.300																			1580070848.0	11.65	21.58
26/01/2020 20:34:09	26012020	260120	203409	291.010	12.185448	-56.145312	291.140	-0.110	-0.240	-0.480	291.010	-1.600	-0.100																			1580070849.0	11.83	21.91
26/01/2020 20:34:10	26012020	260120	203410	291.090	12.185467	-56.145365	291.220	-0.080	-0.220	-0.290	291.090	-1.600	0.000																			1580070850.0	12.01	22.24
26/01/2020 20:34:11	26012020	260120	203411	291.110	12.185485	-56.145418	291.240	-0.140	-0.010	-0.110	291.110	-1.400	0.200																			1580070851.0	11.91	22.06
26/01/2020 20:34:12	26012020	260120	203412	291.110	12.185502	-56.145470	291.230	-0.240	0.210	-0.020	291.110	-1.100	0.300																			1580070852.0	11.61	21.50
26/01/2020 20:34:13	26012020	260120	203413	291.170	12.185520	-56.145522	291.310	-0.220	0.120	-0.090	291.170	-1.200	0.200																			1580070853.0	11.48	21.26
26/01/2020 20:34:14	26012020	260120	203414	291.310	12.185537	-56.145573	291.450	0.020	-0.320	-0.310	291.310	-1.700	0.000																			1580070854.0	11.75	21.76
26/01/2020 20:34:15	26012020	260120	203415	291.490	12.185553	-56.145628	291.630	0.360	-0.720	-0.500	291.490	-2.100	-0.200																			1580070855.0	12.12	22.45
26/01/2020 20:34:16	26012020	260120	203416	291.580	12.185572	-56.145683	291.700	0.550	-0.740	-0.460	291.580	-2.100	-0.100																			1580070856.0	12.14	22.48
26/01/2020 20:34:17	26012020	260120	203417	291.540	12.185592	-56.145735	291.660	0.450	-0.450	-0.280	291.540	-1.800	0.000																			1580070857.0	11.75	21.76
26/01/2020 20:34:18	26012020	260120	203418	291.470	12.185610	-56.145785	291.590	0.180	-0.170	-0.210	291.470	-1.500	0.100																			1580070858.0	11.43	21.17
26/01/2020 20:34:19	26012020	260120	203419	291.450	12.185628	-56.145837	291.580	-0.080	-0.100	-0.300	291.450	-1.400	0.000																			1580070859.0	11.45	21.21
26/01/2020 20:34:20	26012020	260120	203420	291.460	12.185645	-56.145888	291.610	-0.270	-0.190	-0.520	291.460	-1.500	-0.200																			1580070860.0	11.68	21.63
26/01/2020 20:34:21	26012020	260120	203421	291.510	12.185662	-56.145942	291.650	-0.400	-0.340	-0.750	291.510	-1.700	-0.400																			1580070861.0	11.87	21.98
26/01/2020 20:34:22	26012020	260120	203422	291.580	12.185678	-56.145997	291.730	-0.480	-0.450	-0.900	291.580	-1.800	-0.600																			1580070862.0	11.92	22.08
26/01/2020 20:34:23	26012020	260120	203423	291.710	12.185695	-56.146050	291.860	-0.490	-0.560	-0.980	291.710	-1.900	-0.600																			1580070863.0	11.89	22.02
26/01/2020 20:34:24	26012020	260120	203424	291.900	12.185712	-56.146103	292.050	-0.360	-0.670	-0.930	291.900	-2.000	-0.600																			1580070864.0	11.96	22.15
26/01/2020 20:34:25	26012020	260120	203425	292.100	12.185730	-56.146158	292.240	-0.120	-0.610	-0.710	292.100	-2.000	-0.400																			1580070865.0	12.07	22.35
26/01/2020 20:34:26	26012020	260120	203426	292.230	12.185748	-56.146212	292.390	0.140	-0.300	-0.340	292.230	-1.600	0.000																			1580070866.0	12.02	22.26
26/01/2020 20:34:27	26012020	260120	203427	292.270	12.185768	-56.146263	292.420	0.330	0.150	0.090	292.270	-1.200	0.400																			1580070867.0	11.81	21.87
26/01/2020 20:34:28	26012020	260120	203428	292.170	12.185788	-56.146315	292.310	0.380	0.480	0.390	292.170	-0.900	0.700																			1580070868.0	11.63	21.54
26/01/2020 20:34:29	26012020	260120	203429	291.960	12.185808	-56.146365	292.100	0.330	0.560	0.440	291.960	-0.800	0.800																			1580070869.0	11.64	21.56
26/01/2020 20:34:30	26012020	260120	203430	291.730	12.185828	-56.146417	291.860	0.220	0.410	0.220	291.730	-0.900	0.500																			1580070870.0	11.72	21.71
26/01/2020 20:34:31	26012020	260120	203431	291.560	12.185847	-56.146468	291.680	0.090	0.060	-0.140	291.560	-1.300	0.200																			1580070871.0	11.73	21.72
26/01/2020 20:34:32	26012020	260120	203432	291.450	12.185865	-56.146522	291.580	0.030	-0.420	-0.530	291.450	-1.800	-0.200																			1580070872.0	11.75	21.76
26/01/2020 20:34:33	26012020	260120	203433	291.460	12.185882	-56.146575	291.590	0.030	-0.940	-0.810	291.460	-2.300	-0.500																			1580070873.0	11.80	21.85
26/01/2020 20:34:34	26012020	260120	203434	291.660	12.185898	-56.146628	291.810	0.100	-1.350	-0.950	291.660	-2.700	-0.600																			1580070874.0	11.87	21.98
26/01/2020 20:34:35	26012020	260120	203435	292.000	12.185917	-56.146682	292.160	0.180	-1.460	-0.870	292.000	-2.800	-0.500																			1580070875.0	11.95	22.13
26/01/2020 20:34:36	26012020	260120	203436	292.380	12.185935	-56.146735	292.540	0.180	-1.120	-0.610	292.380	-2.500	-0.300																			1580070876.0	11.88	22.00
26/01/2020 20:34:37	26012020	260120	203437	292.670	12.185955	-56.146787	292.830	0.000	-0.450	-0.270	292.670	-1.800	0.100																			1580070877.0	11.66	21.59
26/01/2020 20:34:38	26012020	260120	203438	292.810	12.185973	-56.146837	292.960	-0.290	0.190	-0.030	292.810	-1.200	0.300																			1580070878.0	11.48	21.26
26/01/2020 20:34:39	26012020	260120	203439	292.790	12.185993	-56.146888	292.920	-0.560	0.480	0.010	292.790	-0.900	0.300																			1580070879.0	11.54	21.37
26/01/2020 20:34:40	26012020	260120	203440	292.720	12.186012	-56.146940	292.860	-0.660	0.320	-0.200	292.720	-1.000	0.100																			1580070880.0	11.89	22.02
26/01/2020 20:34:41	26012020	260120	203441	292.670	12.186030	-56.146997	292.800	-0.550	-0.040	-0.470	292.670	-1.400	-0.100																			1580070881.0	12.31	22.80
26/01/2020 20:34:42	26012020	260120	203442	292.630	12.186047	-56.147052	292.770	-0.310	-0.230	-0.620	292.630	-1.600	-0.300																			1580070882.0	12.42	23.00
26/01/2020 20:34:43	26012020	260120	203443	292.570	12.186065	-56.147107	292.700	-0.060	-0.100	-0.520	292.570	-1.400	-0.200																			1580070883.0	12.14	22.48
26/01/2020 20:34:44	26012020	260120	203444	292.460	12.186083	-56.147158	292.600	0.140	0.160	-0.190	292.460	-1.200	0.200																			1580070884.0	11.66	21.59
26/01/2020 20:34:45	26012020	260120	203445	292.350	12.186103	-56.147208	292.490	0.340	0.200	0.130	292.350	-1.200	0.500																			1580070885.0	11.40	21.11
26/01/2020 20:34:46	26012020	260120	203446	292.270	12.186123	-56.147258	292.420	0.620	-0.150	0.310	292.270	-1.500	0.600																			1580070886.0	11.54	21.37
26/01/2020 20:34:47	26012020	260120	203447	292.240	12.186145	-56.147310	292.380	0.880	-0.620	0.240	292.240	-2.000	0.600																			1580070887.0	11.90	22.04
26/01/2020 20:34:48	26012020	260120	203448	292.240	12.186167	-56.147363	292.390	0.910	-0.810	-0.020	292.240	-2.200	0.300																			1580070888.0	12.04	22.30
26/01/2020 20:34:49	26012020	260120	203449	292.350	12.186187	-56.147415	292.500	0.570	-0.690	-0.340	292.350	-2.000	-0.000																			1580070889.0	11.76	21.78
26/01/2020 20:34:50	26012020	260120	203450	292.560	12.186205	-56.147465	292.700	0.020	-0.510	-0.640	292.560	-1.900	-0.300																			1580070890.0	11.45	21.21
26/01/2020 20:34:51	26012020	260120	203451	292.730	12.186223	-56.147517	292.880	-0.480	-0.390	-0.810	292.730	-1.700	-0.500																			1580070891.0	11.47	21.24
26/01/2020 20:34:52	26012020	260120	203452	292.820	12.186240	-56.147568	292.960	-0.770	-0.360	-0.810	292.820	-1.700	-0.500																			1580070892.0	11.66	21.59
26/01/2020 20:34:53	26012020	260120	203453	292.840	12.186257	-56.147622	292.990	-0.800	-0.420	-0.640	292.840	-1.800	-0.300																			1580070893.0	11.85	21.95
26/01/2020 20:34:54	26012020	260120	203454	292.860	12.186275	-56.147677	293.010	-0.600	-0.520	-0.410	292.860	-1.900	-0.100																			1580070894.0	12.02	22.26
26/01/2020 20:34:55	26012020	260120	203455	292.850	12.186293	-56.147730	292.990	-0.290	-0.560	-0.170	292.850	-1.900	0.200																			1580070895.0	12.16	22.52
26/01/2020 20:34:56	26012020	260120	203456	292.720	12.186313	-56.147785	292.850	-0.010	-0.360	0.100	292.720	-1.700	0.400																			1580070896.0	12.19	22.58
26/01/2020 20:34:57	26012020	260120	203457	292.480	12.186333	-56.147837	292.600	0.090	0.050	0.300	292.480	-1.300	0.600																			1580070897.0	11.97	22.17
26/01/2020 20:34:58	26012020	260120	203458	292.300	12.186353	-56.147888	292.420	0.050	0.400	0.250	292.300	-1.000	0.600																			1580070898.0	11.68	21.63
26/01/2020 20:34:59	26012020	260120	203459	292.260	12.186372	-56.147940	292.390	0.070	0.410	-0.030	292.260	-1.000	0.300	1014.00	26.30	26.30	21.20	21.20	152.00	73.00	73.00	390.00	27.10	36.00	4.40	66.00	3.60	10986	3422.00	27.80	27.70	1580070899.0	11.60	21.48
26/01/2020 20:35:00	26012020	260120	203500	292.350	12.186390	-56.147992	292.490	0.250	0.100	-0.330	292.350	-1.300	0.000																			1580070900.0	11.83	21.91
26/01/2020 20:35:01	26012020	260120	203501	292.510	12.186410	-56.148047	292.640	0.480	-0.250	-0.450	292.510	-1.600	-0.100																			1580070901.0	12.07	22.35
26/01/2020 20:35:02	26012020	260120	203502	292.600	12.186430	-56.148098	292.710	0.570	-0.330	-0.310	292.600	-1.700	0.000																			1580070902.0	12.01	22.24
26/01/2020 20:35:03	26012020	260120	203503	292.530	12.186452	-56.148150	292.640	0.400	-0.160	-0.000	292.530	-1.500	0.300																			1580070903.0	11.62	21.52
26/01/2020 20:35:04	26012020	260120	203504	292.360	12.186472	-56.148198	292.470	0.090	-0.100	0.150	292.360	-1.500	0.500																			1580070904.0	11.25	20.84
26/01/2020 20:35:05	26012020	260120	203505	292.290	12.186492	-56.148248	292.410	-0.100	-0.460	-0.050	292.290	-1.800	0.300																			1580070905.0	11.27	20.87
26/01/2020 20:35:06	26012020	260120	203506	292.430	12.186510	-56.148300	292.560	-0.040	-1.130	-0.460	292.430	-2.500	-0.100																			1580070906.0	11.80	21.85
26/01/2020 20:35:07	26012020	260120	203507	292.660	12.186528	-56.148357	292.800	0.090	-1.510	-0.770	292.660	-2.900	-0.400																			1580070907.0	12.35	22.87
26/01/2020 20:35:08	26012020	260120	203508	292.800	12.186545	-56.148412	292.920	0.020	-1.190	-0.780	292.800	-2.500	-0.400																			1580070908.0	12.29	22.76
26/01/2020 20:35:09	26012020	260120	203509	292.810	12.186563	-56.148463	292.930	-0.280	-0.380	-0.520	292.810	-1.700	-0.200																			1580070909.0	11.73	21.72
26/01/2020 20:35:10	26012020	260120	203510	292.730	12.186582	-56.148513	292.850	-0.620	0.330	-0.290	292.730	-1.000	0.000																			1580070910.0	11.34	21.00
26/01/2020 20:35:11	26012020	260120	203511	292.630	12.186600	-56.148565	292.750	-0.720	0.520	-0.270	292.630	-0.800	0.100																			1580070911.0	11.48	21.26
26/01/2020 20:35:12	26012020	260120	203512	292.550	12.186618	-56.148618	292.660	-0.490	0.310	-0.350	292.550	-1.100	-0.000																			1580070912.0	11.99	22.21
26/01/2020 20:35:13	26012020	260120	203513	292.510	12.186637	-56.148673	292.620	-0.110	0.090	-0.310	292.510	-1.300	0.000																			1580070913.0	12.34	22.85
26/01/2020 20:35:14	26012020	260120	203514	292.460	12.186657	-56.148728	292.580	0.170	0.100	-0.130	292.460	-1.300	0.200																			1580070914.0	12.20	22.59
26/01/2020 20:35:15	26012020	260120	203515	292.410	12.186677	-56.148778	292.530	0.290	0.200	0.060	292.410	-1.200	0.400																			1580070915.0	11.77	21.80
26/01/2020 20:35:16	26012020	260120	203516	292.360	12.186698	-56.148830	292.490	0.360	0.070	0.190	292.360	-1.300	0.500																			1580070916.0	11.48	21.26
26/01/2020 20:35:17	26012020	260120	203517	292.390	12.186718	-56.148880	292.530	0.510	-0.390	0.240	292.390	-1.800	0.600																			1580070917.0	11.61	21.50
26/01/2020 20:35:18	26012020	260120	203518	292.470	12.186740	-56.148932	292.610	0.660	-0.890	0.220	292.470	-2.300	0.500																			1580070918.0	11.93	22.09
26/01/2020 20:35:19	26012020	260120	203519	292.530	12.186760	-56.148985	292.670	0.680	-1.090	0.200	292.530	-2.400	0.500																			1580070919.0	12.03	22.28
26/01/2020 20:35:20	26012020	260120	203520	292.520	12.186782	-56.149037	292.670	0.460	-0.880	0.170	292.520	-2.200	0.500																			1580070920.0	11.82	21.89
26/01/2020 20:35:21	26012020	260120	203521	292.450	12.186800	-56.149087	292.580	0.040	-0.470	-0.000	292.450	-1.800	0.300																			1580070921.0	11.50	21.30
26/01/2020 20:35:22	26012020	260120	203522	292.350	12.186818	-56.149138	292.480	-0.450	-0.130	-0.330	292.350	-1.500	-0.000																			1580070922.0	11.38	21.08
26/01/2020 20:35:23	26012020	260120	203523	292.320	12.186835	-56.149190	292.450	-0.860	-0.050	-0.740	292.330	-1.400	-0.400																			1580070923.0	11.54	21.37
26/01/2020 20:35:24	26012020	260120	203524	292.400	12.186850	-56.149243	292.530	-1.000	-0.210	-1.050	292.400	-1.600	-0.700																			1580070924.0	11.85	21.95
26/01/2020 20:35:25	26012020	260120	203525	292.530	12.186865	-56.149298	292.670	-0.820	-0.410	-1.120	292.530	-1.800	-0.800																			1580070925.0	12.14	22.48
26/01/2020 20:35:26	26012020	260120	203526	292.640	12.186882	-56.149353	292.770	-0.370	-0.450	-0.850	292.640	-1.800	-0.500																			1580070926.0	12.21	22.61
26/01/2020 20:35:27	26012020	260120	203527	292.670	12.186902	-56.149408	292.810	0.110	-0.300	-0.380	292.670	-1.700	-0.000																			1580070927.0	12.08	22.37
26/01/2020 20:35:28	26012020	260120	203528	292.640	12.186922	-56.149460	292.780	0.440	-0.020	0.140	292.640	-1.400	0.500																			1580070928.0	11.88	22.00
26/01/2020 20:35:29	26012020	260120	203529	292.570	12.186945	-56.149510	292.710	0.580	0.250	0.500	292.570	-1.100	0.800																			1580070929.0	11.72	21.71
26/01/2020 20:35:30	26012020	260120	203530	292.440	12.186967	-56.149560	292.570	0.570	0.400	0.560	292.440	-1.000	0.900																			1580070930.0	11.62	21.52
26/01/2020 20:35:31	26012020	260120	203531	292.240	12.186987	-56.149610	292.370	0.450	0.300	0.360	292.240	-1.100	0.700																			1580070931.0	11.58	21.45
26/01/2020 20:35:32	26012020	260120	203532	292.110	12.187008	-56.149662	292.250	0.260	-0.060	-0.050	292.110	-1.400	0.300																			1580070932.0	11.66	21.59
26/01/2020 20:35:33	26012020	260120	203533	292.130	12.187027	-56.149715	292.270	0.040	-0.540	-0.480	292.130	-1.900	-0.200																			1580070933.0	11.80	21.85
26/01/2020 20:35:34	26012020	260120	203534	292.240	12.187045	-56.149767	292.380	-0.090	-0.940	-0.730	292.240	-2.300	-0.400																			1580070934.0	11.88	22.00
26/01/2020 20:35:35	26012020	260120	203535	292.340	12.187063	-56.149820	292.470	-0.080	-1.160	-0.730	292.340	-2.500	-0.400																			1580070935.0	11.88	22.00
26/01/2020 20:35:36	26012020	260120	203536	292.390	12.187082	-56.149873	292.530	0.020	-1.120	-0.500	292.390	-2.500	-0.200																			1580070936.0	11.85	21.95
26/01/2020 20:35:37	26012020	260120	203537	292.400	12.187102	-56.149925	292.540	-0.000	-0.790	-0.220	292.400	-2.100	0.100																			1580070937.0	11.79	21.84
26/01/2020 20:35:38	26012020	260120	203538	292.370	12.187122	-56.149977	292.510	-0.210	-0.290	-0.050	292.370	-1.600	0.300																			1580070938.0	11.65	21.58
26/01/2020 20:35:39	26012020	260120	203539	292.310	12.187140	-56.150028	292.450	-0.480	0.150	-0.060	292.310	-1.200	0.300																			1580070939.0	11.55	21.39
26/01/2020 20:35:40	26012020	260120	203540	292.250	12.187157	-56.150080	292.390	-0.590	0.320	-0.240	292.250	-1.000	0.100																			1580070940.0	11.62	21.52
26/01/2020 20:35:41	26012020	260120	203541	292.220	12.187173	-56.150133	292.350	-0.410	0.200	-0.390	292.220	-1.200	-0.000																			1580070941.0	11.88	22.00
26/01/2020 20:35:42	26012020	260120	203542	292.190	12.187192	-56.150188	292.320	-0.070	-0.000	-0.320	292.190	-1.400	0.000																			1580070942.0	12.11	22.43
26/01/2020 20:35:43	26012020	260120	203543	292.140	12.187212	-56.150242	292.280	0.210	-0.070	-0.050	292.140	-1.400	0.300																			1580070943.0	12.09	22.39
26/01/2020 20:35:44	26012020	260120	203544	292.070	12.187232	-56.150293	292.210	0.310	-0.040	0.180	292.070	-1.400	0.500																			1580070944.0	11.82	21.89
26/01/2020 20:35:45	26012020	260120	203545	291.970	12.187253	-56.150343	292.110	0.260	-0.070	0.170	291.970	-1.400	0.500																			1580070945.0	11.60	21.48
26/01/2020 20:35:46	26012020	260120	203546	291.850	12.187273	-56.150395	291.980	0.200	-0.250	-0.010	291.850	-1.600	0.300																			1580070946.0	11.57	21.43
26/01/2020 20:35:47	26012020	260120	203547	291.760	12.187292	-56.150447	291.900	0.250	-0.540	-0.150	291.760	-1.900	0.200																			1580070947.0	11.70	21.67
26/01/2020 20:35:48	26012020	260120	203548	291.730	12.187310	-56.150500	291.860	0.370	-0.760	-0.170	291.730	-2.100	0.200																			1580070948.0	11.88	22.00
26/01/2020 20:35:49	26012020	260120	203549	291.660	12.187330	-56.150552	291.760	0.360	-0.680	-0.020	291.660	-2.000	0.300																			1580070949.0	11.89	22.02
26/01/2020 20:35:50	26012020	260120	203550	291.490	12.187350	-56.150603	291.600	0.120	-0.320	0.260	291.490	-1.700	0.600																			1580070950.0	11.64	21.56
26/01/2020 20:35:51	26012020	260120	203551	291.320	12.187368	-56.150653	291.440	-0.220	-0.040	0.430	291.320	-1.400	0.800																			1580070951.0	11.34	21.00
26/01/2020 20:35:52	26012020	260120	203552	291.250	12.187388	-56.150703	291.380	-0.420	-0.170	0.350	291.250	-1.500	0.700																			1580070952.0	11.39	21.09
26/01/2020 20:35:53	26012020	260120	203553	291.340	12.187405	-56.150757	291.480	-0.340	-0.560	0.040	291.340	-1.900	0.400																			1580070953.0	11.85	21.95
26/01/2020 20:35:54	26012020	260120	203554	291.560	12.187423	-56.150812	291.700	-0.130	-0.840	-0.300	291.560	-2.200	0.000																			1580070954.0	12.22	22.63
26/01/2020 20:35:55	26012020	260120	203555	291.830	12.187440	-56.150867	291.960	-0.000	-0.720	-0.480	291.830	-2.100	-0.100																			1580070955.0	12.20	22.59
26/01/2020 20:35:56	26012020	260120	203556	292.020	12.187457	-56.150920	292.150	-0.070	-0.260	-0.420	292.020	-1.600	-0.100																			1580070956.0	11.87	21.98
26/01/2020 20:35:57	26012020	260120	203557	292.050	12.187473	-56.150972	292.180	-0.210	0.260	-0.140	292.050	-1.100	0.200																			1580070957.0	11.54	21.37
26/01/2020 20:35:58	26012020	260120	203558	291.960	12.187492	-56.151022	292.080	-0.230	0.510	0.120	291.960	-0.900	0.500																			1580070958.0	11.42	21.15
26/01/2020 20:35:59	26012020	260120	203559	291.800	12.187512	-56.151073	291.940	-0.080	0.380	0.180	291.800	-1.000	0.500	1014.00	26.30	26.20	21.10	21.10	168.00	73.00	73.00	390.00	27.10	30.00	4.40	68.00	3.20	11115	3465.00	27.70	27.70	1580070959.0	11.62	21.52
26/01/2020 20:36:00	26012020	260120	203600	291.640	12.187530	-56.151127	291.770	0.160	0.030	0.150	291.640	-1.400	0.500																			1580070960.0	11.91	22.06
26/01/2020 20:36:01	26012020	260120	203601	291.470	12.187550	-56.151180	291.600	0.330	-0.320	0.110	291.470	-1.700	0.400																			1580070961.0	12.01	22.24
26/01/2020 20:36:02	26012020	260120	203602	291.320	12.187570	-56.151232	291.450	0.370	-0.550	0.020	291.320	-1.900	0.400																			1580070962.0	11.90	22.04
26/01/2020 20:36:03	26012020	260120	203603	291.210	12.187588	-56.151285	291.340	0.280	-0.680	-0.170	291.210	-2.100	0.200																			1580070963.0	11.74	21.74
26/01/2020 20:36:04	26012020	260120	203604	291.150	12.187607	-56.151337	291.280	0.170	-0.700	-0.370	291.150	-2.100	-0.000																			1580070964.0	11.66	21.59
26/01/2020 20:36:05	26012020	260120	203605	291.130	12.187625	-56.151388	291.260	0.030	-0.600	-0.500	291.130	-2.000	-0.200																			1580070965.0	11.63	21.54
26/01/2020 20:36:06	26012020	260120	203606	291.170	12.187643	-56.151440	291.290	-0.130	-0.450	-0.550	291.170	-1.800	-0.200																			1580070966.0	11.58	21.45
26/01/2020 20:36:07	26012020	260120	203607	291.320	12.187660	-56.151492	291.460	-0.290	-0.330	-0.540	291.320	-1.700	-0.200																			1580070967.0	11.58	21.45
26/01/2020 20:36:08	26012020	260120	203608	291.580	12.187677	-56.151543	291.730	-0.350	-0.340	-0.460	291.580	-1.700	-0.100																			1580070968.0	11.66	21.59
26/01/2020 20:36:09	26012020	260120	203609	291.850	12.187695	-56.151597	292.000	-0.280	-0.390	-0.240	291.850	-1.800	0.100																			1580070969.0	11.87	21.98
26/01/2020 20:36:10	26012020	260120	203610	292.010	12.187713	-56.151650	292.160	-0.140	-0.320	0.070	292.010	-1.700	0.400																			1580070970.0	11.98	22.19
26/01/2020 20:36:11	26012020	260120	203611	292.010	12.187733	-56.151703	292.140	-0.020	-0.140	0.310	292.010	-1.500	0.700																			1580070971.0	11.90	22.04
26/01/2020 20:36:12	26012020	260120	203612	291.850	12.187752	-56.151755	291.970	0.070	0.060	0.410	291.850	-1.300	0.800																			1580070972.0	11.79	21.84
26/01/2020 20:36:13	26012020	260120	203613	291.650	12.187770	-56.151808	291.720	0.150	0.170	0.370	291.600	-1.200	0.700																			1580070973.0	11.76	21.78
26/01/2020 20:36:14	26012020	260120	203614	291.320	12.187788	-56.151860	291.440	0.230	0.150	0.230	291.320	-1.200	0.600																			1580070974.0	11.79	21.84
26/01/2020 20:36:15	26012020	260120	203615	291.090	12.187808	-56.151913	291.200	0.260	-0.020	-0.000	291.090	-1.400	0.300																			1580070975.0	11.81	21.87
26/01/2020 20:36:16	26012020	260120	203616	290.990	12.187827	-56.151965	291.100	0.180	-0.280	-0.300	290.990	-1.700	0.000																			1580070976.0	11.84	21.93
26/01/2020 20:36:17	26012020	260120	203617	291.040	12.187845	-56.152018	291.160	0.050	-0.560	-0.570	291.040	-1.900	-0.200																			1580070977.0	11.86	21.96
26/01/2020 20:36:18	26012020	260120	203618	291.190	12.187862	-56.152072	291.300	-0.080	-0.730	-0.690	291.190	-2.100	-0.400																			1580070978.0	11.84	21.93
26/01/2020 20:36:19	26012020	260120	203619	291.330	12.187880	-56.152125	291.440	-0.170	-0.740	-0.590	291.330	-2.100	-0.300																			1580070979.0	11.80	21.85
26/01/2020 20:36:20	26012020	260120	203620	291.410	12.187897	-56.152177	291.520	-0.210	-0.590	-0.290	291.410	-2.000	0.100																			1580070980.0	11.70	21.67
26/01/2020 20:36:21	26012020	260120	203621	291.440	12.187915	-56.152228	291.540	-0.210	-0.310	0.040	291.440	-1.700	0.400																			1580070981.0	11.64	21.56
26/01/2020 20:36:22	26012020	260120	203622	291.430	12.187933	-56.152280	291.540	-0.210	-0.020	0.260	291.430	-1.400	0.600																			1580070982.0	11.53	21.35
26/01/2020 20:36:23	26012020	260120	203623	291.430	12.187952	-56.152332	291.540	-0.160	0.050	0.310	291.430	-1.300	0.600																			1580070983.0	11.52	21.34
26/01/2020 20:36:24	26012020	260120	203624	291.460	12.187970	-56.152383	291.570	0.000	-0.150	0.200	291.460	-1.500	0.500																			1580070984.0	11.70	21.67
26/01/2020 20:36:25	26012020	260120	203625	291.520	12.187988	-56.152437	291.630	0.260	-0.490	0.020	291.520	-1.900	0.300																			1580070985.0	12.00	22.22
26/01/2020 20:36:26	26012020	260120	203626	291.620	12.188007	-56.152492	291.730	0.480	-0.690	-0.200	291.620	-2.100	0.100																			1580070986.0	12.19	22.58
26/01/2020 20:36:27	26012020	260120	203627	291.730	12.188025	-56.152545	291.830	0.500	-0.530	-0.350	291.730	-1.900	-0.000																			1580070987.0	12.12	22.45
26/01/2020 20:36:28	26012020	260120	203628	291.770	12.188045	-56.152597	291.870	0.220	-0.010	-0.390	291.770	-1.400	-0.100																			1580070988.0	11.78	21.82
26/01/2020 20:36:29	26012020	260120	203629	291.720	12.188063	-56.152648	291.810	-0.230	0.450	-0.390	291.720	-0.900	-0.100																			1580070989.0	11.34	21.00
26/01/2020 20:36:30	26012020	260120	203630	291.600	12.188080	-56.152698	291.700	-0.560	0.430	-0.380	291.600	-1.000	-0.000																			1580070990.0	11.30	20.93
26/01/2020 20:36:31	26012020	260120	203631	291.490	12.188097	-56.152750	291.590	-0.530	-0.090	-0.310	291.490	-1.500	0.000																			1580070991.0	11.73	21.72
26/01/2020 20:36:32	26012020	260120	203632	291.400	12.188115	-56.152805	291.500	-0.200	-0.680	-0.060	291.400	-2.100	0.300																			1580070992.0	12.21	22.61
26/01/2020 20:36:33	26012020	260120	203633	291.290	12.188133	-56.152860	291.400	0.150	-0.870	0.220	291.290	-2.200	0.600																			1580070993.0	12.27	22.72
26/01/2020 20:36:34	26012020	260120	203634	291.210	12.188153	-56.152913	291.300	0.220	-0.610	0.310	291.210	-2.000	0.600																			1580070994.0	11.86	21.96
26/01/2020 20:36:35	26012020	260120	203635	291.190	12.188172	-56.152963	291.290	0.060	-0.250	0.170	291.190	-1.600	0.500																			1580070995.0	11.38	21.08
26/01/2020 20:36:36	26012020	260120	203636	291.280	12.188188	-56.153013	291.390	-0.070	-0.180	-0.060	291.280	-1.600	0.300																			1580070996.0	11.27	20.87
26/01/2020 20:36:37	26012020	260120	203637	291.460	12.188205	-56.153067	291.580	0.040	-0.440	-0.240	291.460	-1.800	0.100																			1580070997.0	11.62	21.52
26/01/2020 20:36:38	26012020	260120	203638	291.670	12.188223	-56.153120	291.790	0.300	-0.700	-0.300	291.670	-2.100	0.000																			1580070998.0	12.05	22.32
26/01/2020 20:36:39	26012020	260120	203639	291.850	12.188243	-56.153173	291.970	0.450	-0.650	-0.220	291.850	-2.000	0.100																			1580070999.0	12.19	22.58
26/01/2020 20:36:40	26012020	260120	203640	291.930	12.188263	-56.153227	292.030	0.300	-0.240	-0.110	291.930	-1.600	0.200																			1580071000.0	11.93	22.09
26/01/2020 20:36:41	26012020	260120	203641	291.850	12.188283	-56.153277	291.960	-0.100	0.300	-0.060	291.850	-1.100	0.300																			1580071001.0	11.58	21.45
26/01/2020 20:36:42	26012020	260120	203642	291.710	12.188300	-56.153328	291.820	-0.520	0.620	-0.160	291.710	-0.800	0.200																			1580071002.0	11.38	21.08
26/01/2020 20:36:43	26012020	260120	203643	291.580	12.188317	-56.153380	291.700	-0.710	0.500	-0.390	291.580	-0.900	-0.100																			1580071003.0	11.48	21.26
26/01/2020 20:36:44	26012020	260120	203644	291.530	12.188332	-56.153433	291.640	-0.550	-0.020	-0.660	291.530	-1.400	-0.300																			1580071004.0	11.82	21.89
26/01/2020 20:36:45	26012020	260120	203645	291.550	12.188348	-56.153488	291.660	-0.100	-0.650	-0.750	291.550	-2.000	-0.400																			1580071005.0	12.14	22.48
26/01/2020 20:36:46	26012020	260120	203646	291.620	12.188365	-56.153543	291.740	0.400	-1.030	-0.570	291.620	-2.400	-0.200																			1580071006.0	12.22	22.63
26/01/2020 20:36:47	26012020	260120	203647	291.710	12.188385	-56.153597	291.830	0.690	-0.980	-0.160	291.710	-2.400	0.200																			1580071007.0	12.00	22.22
26/01/2020 20:36:48	26012020	260120	203648	291.740	12.188405	-56.153648	291.870	0.650	-0.590	0.240	291.740	-2.000	0.600																			1580071008.0	11.63	21.54
26/01/2020 20:36:49	26012020	260120	203649	291.710	12.188427	-56.153697	291.820	0.310	-0.120	0.360	291.710	-1.500	0.700																			1580071009.0	11.32	20.96
26/01/2020 20:36:50	26012020	260120	203650	291.630	12.188445	-56.153747	291.750	-0.140	0.120	0.140	291.630	-1.300	0.500																			1580071010.0	11.22	20.78
26/01/2020 20:36:51	26012020	260120	203651	291.620	12.188463	-56.153797	291.750	-0.480	-0.030	-0.250	291.630	-1.400	0.100																			1580071011.0	11.47	21.24
26/01/2020 20:36:52	26012020	260120	203652	291.720	12.188480	-56.153852	291.840	-0.540	-0.420	-0.560	291.720	-1.800	-0.200																			1580071012.0	11.90	22.04
26/01/2020 20:36:53	26012020	260120	203653	291.860	12.188497	-56.153907	291.980	-0.330	-0.700	-0.610	291.860	-2.100	-0.300																			1580071013.0	12.22	22.63
26/01/2020 20:36:54	26012020	260120	203654	291.940	12.188513	-56.153962	292.050	-0.000	-0.620	-0.360	291.940	-2.000	-0.000																			1580071014.0	12.19	22.58
26/01/2020 20:36:55	26012020	260120	203655	291.970	12.188533	-56.154013	292.090	0.270	-0.270	-0.060	291.970	-1.600	0.300																			1580071015.0	11.90	22.04
26/01/2020 20:36:56	26012020	260120	203656	292.010	12.188553	-56.154065	292.130	0.390	0.100	0.070	292.010	-1.300	0.400																			1580071016.0	11.63	21.54
26/01/2020 20:36:57	26012020	260120	203657	292.010	12.188572	-56.154117	292.120	0.310	0.340	0.000	292.010	-1.000	0.300																			1580071017.0	11.60	21.48
26/01/2020 20:36:58	26012020	260120	203658	291.960	12.188592	-56.154168	292.060	0.070	0.420	-0.250	291.960	-1.000	0.100																			1580071018.0	11.60	21.48
26/01/2020 20:36:59	26012020	260120	203659	291.950	12.188608	-56.154220	292.060	-0.190	0.220	-0.570	291.950	-1.200	-0.200	1014.00	26.30	26.30	21.30	21.20	167.00	73.00	74.00	390.00	27.10	37.00	4.70	61.00	3.70	10936	3363.00	27.60	27.60	1580071019.0	11.58	21.45
26/01/2020 20:37:00	26012020	260120	203700	292.020	12.188625	-56.154272	292.140	-0.320	-0.220	-0.870	292.020	-1.600	-0.500																			1580071020.0	11.67	21.61
26/01/2020 20:37:01	26012020	260120	203701	292.180	12.188642	-56.154325	292.300	-0.230	-0.750	-1.030	292.180	-2.100	-0.700																			1580071021.0	11.84	21.93
26/01/2020 20:37:02	26012020	260120	203702	292.350	12.188660	-56.154378	292.470	-0.010	-1.070	-0.960	292.350	-2.400	-0.600																			1580071022.0	11.97	22.17
26/01/2020 20:37:03	26012020	260120	203703	292.500	12.188678	-56.154432	292.630	0.180	-1.040	-0.670	292.500	-2.400	-0.300																			1580071023.0	11.87	21.98
26/01/2020 20:37:04	26012020	260120	203704	292.590	12.188697	-56.154483	292.710	0.240	-0.750	-0.300	292.590	-2.100	0.000																			1580071024.0	11.65	21.58
26/01/2020 20:37:05	26012020	260120	203705	292.580	12.188717	-56.154533	292.690	0.180	-0.370	0.010	292.580	-1.700	0.300																			1580071025.0	11.52	21.34
26/01/2020 20:37:06	26012020	260120	203706	292.530	12.188737	-56.154585	292.640	0.060	-0.080	0.080	292.530	-1.500	0.400																			1580071026.0	11.55	21.39
26/01/2020 20:37:07	26012020	260120	203707	292.520	12.188757	-56.154637	292.630	-0.060	0.040	-0.100	292.520	-1.300	0.200																			1580071027.0	11.68	21.63
26/01/2020 20:37:08	26012020	260120	203708	292.530	12.188775	-56.154688	292.630	-0.150	0.040	-0.340	292.530	-1.300	-0.000																			1580071028.0	11.87	21.98
26/01/2020 20:37:09	26012020	260120	203709	292.480	12.188793	-56.154742	292.580	-0.210	0.070	-0.470	292.480	-1.300	-0.100																			1580071029.0	11.96	22.15
26/01/2020 20:37:10	26012020	260120	203710	292.430	12.188812	-56.154795	292.520	-0.210	0.080	-0.490	292.430	-1.300	-0.200																			1580071030.0	11.84	21.93
26/01/2020 20:37:11	26012020	260120	203711	292.430	12.188832	-56.154847	292.540	-0.090	-0.050	-0.450	292.430	-1.400	-0.100																			1580071031.0	11.71	21.69
26/01/2020 20:37:12	26012020	260120	203712	292.530	12.188850	-56.154898	292.650	0.160	-0.410	-0.390	292.530	-1.800	-0.100																			1580071032.0	11.82	21.89
26/01/2020 20:37:13	26012020	260120	203713	292.670	12.188870	-56.154952	292.800	0.430	-0.740	-0.310	292.670	-2.100	0.000																			1580071033.0	12.08	22.37
26/01/2020 20:37:14	26012020	260120	203714	292.710	12.188892	-56.155005	292.820	0.470	-0.600	-0.100	292.710	-2.000	0.200																			1580071034.0	12.11	22.43
26/01/2020 20:37:15	26012020	260120	203715	292.520	12.188912	-56.155057	292.620	0.180	-0.020	0.140	292.520	-1.400	0.500																			1580071035.0	11.62	21.52
26/01/2020 20:37:16	26012020	260120	203716	292.210	12.188930	-56.155105	292.300	-0.280	0.410	0.160	292.210	-1.000	0.500																			1580071036.0	11.08	20.52
26/01/2020 20:37:17	26012020	260120	203717	291.930	12.188948	-56.155155	292.020	-0.550	0.230	-0.140	291.930	-1.200	0.200																			1580071037.0	11.09	20.54
26/01/2020 20:37:18	26012020	260120	203718	291.820	12.188963	-56.155208	291.910	-0.430	-0.470	-0.540	291.820	-1.900	-0.200																			1580071038.0	11.71	21.69
26/01/2020 20:37:19	26012020	260120	203719	291.880	12.188980	-56.155263	291.970	-0.060	-1.080	-0.710	291.880	-2.500	-0.400																			1580071039.0	12.29	22.76
26/01/2020 20:37:20	26012020	260120	203720	292.060	12.188997	-56.155318	292.180	0.290	-1.160	-0.580	292.060	-2.500	-0.200																			1580071040.0	12.26	22.71
26/01/2020 20:37:21	26012020	260120	203721	292.320	12.189017	-56.155372	292.440	0.440	-0.760	-0.230	292.320	-2.100	0.100																			1580071041.0	11.82	21.89
26/01/2020 20:37:22	26012020	260120	203722	292.520	12.189037	-56.155422	292.640	0.410	-0.230	0.160	292.520	-1.600	0.500																			1580071042.0	11.48	21.26
26/01/2020 20:37:23	26012020	260120	203723	292.560	12.189058	-56.155470	292.660	0.300	0.140	0.400	292.560	-1.200	0.700																			1580071043.0	11.47	21.24
26/01/2020 20:37:24	26012020	260120	203724	292.470	12.189080	-56.155522	292.570	0.150	0.280	0.300	292.470	-1.100	0.600																			1580071044.0	11.68	21.63
26/01/2020 20:37:25	26012020	260120	203725	292.360	12.189100	-56.155573	292.470	-0.060	0.240	-0.030	292.360	-1.100	0.300																			1580071045.0	11.87	21.98
26/01/2020 20:37:26	26012020	260120	203726	292.290	12.189118	-56.155627	292.400	-0.270	0.060	-0.450	292.290	-1.300	-0.100																			1580071046.0	11.93	22.09
26/01/2020 20:37:27	26012020	260120	203727	292.250	12.189135	-56.155680	292.350	-0.410	-0.230	-0.790	292.250	-1.600	-0.500																			1580071047.0	11.93	22.09
26/01/2020 20:37:28	26012020	260120	203728	292.210	12.189152	-56.155735	292.310	-0.410	-0.500	-0.860	292.210	-1.900	-0.500																			1580071048.0	11.96	22.15
26/01/2020 20:37:29	26012020	260120	203729	292.170	12.189170	-56.155788	292.280	-0.280	-0.640	-0.660	292.170	-2.000	-0.300																			1580071049.0	11.88	22.00
26/01/2020 20:37:30	26012020	260120	203730	292.140	12.189188	-56.155840	292.240	-0.080	-0.610	-0.370	292.140	-2.000	-0.000																			1580071050.0	11.78	21.82
26/01/2020 20:37:31	26012020	260120	203731	292.110	12.189207	-56.155892	292.220	0.080	-0.400	-0.100	292.110	-1.800	0.200																			1580071051.0	11.66	21.59
26/01/2020 20:37:32	26012020	260120	203732	292.130	12.189227	-56.155942	292.230	0.150	-0.160	0.060	292.130	-1.500	0.400																			1580071052.0	11.52	21.34
26/01/2020 20:37:33	26012020	260120	203733	292.160	12.189245	-56.155993	292.260	0.160	-0.030	0.070	292.160	-1.400	0.400																			1580071053.0	11.49	21.28
26/01/2020 20:37:34	26012020	260120	203734	292.180	12.189265	-56.156045	292.280	0.160	-0.070	-0.070	292.180	-1.500	0.200																			1580071054.0	11.60	21.48
26/01/2020 20:37:35	26012020	260120	203735	292.220	12.189283	-56.156097	292.320	0.200	-0.250	-0.270	292.220	-1.600	0.100																			1580071055.0	11.78	21.82
26/01/2020 20:37:36	26012020	260120	203736	292.300	12.189302	-56.156150	292.410	0.240	-0.440	-0.440	292.300	-1.800	-0.100																			1580071056.0	11.95	22.13
26/01/2020 20:37:37	26012020	260120	203737	292.390	12.189322	-56.156203	292.490	0.200	-0.480	-0.530	292.390	-1.900	-0.200																			1580071057.0	11.97	22.17
26/01/2020 20:37:38	26012020	260120	203738	292.460	12.189340	-56.156255	292.560	0.060	-0.290	-0.480	292.460	-1.700	-0.100																			1580071058.0	11.84	21.93
26/01/2020 20:37:39	26012020	260120	203739	292.490	12.189358	-56.156307	292.590	-0.110	-0.060	-0.300	292.490	-1.400	0.000																			1580071059.0	11.58	21.45
26/01/2020 20:37:40	26012020	260120	203740	292.490	12.189378	-56.156358	292.590	-0.170	-0.000	-0.060	292.490	-1.400	0.300																			1580071060.0	11.47	21.24
26/01/2020 20:37:41	26012020	260120	203741	292.460	12.189398	-56.156408	292.560	-0.080	-0.190	0.090	292.460	-1.600	0.400																			1580071061.0	11.65	21.58
26/01/2020 20:37:42	26012020	260120	203742	292.410	12.189418	-56.156462	292.520	0.050	-0.460	0.100	292.410	-1.800	0.400																			1580071062.0	11.91	22.06
26/01/2020 20:37:43	26012020	260120	203743	292.350	12.189437	-56.156515	292.450	0.100	-0.590	-0.040	292.350	-2.000	0.300																			1580071063.0	12.02	22.26
26/01/2020 20:37:44	26012020	260120	203744	292.260	12.189457	-56.156567	292.350	0.030	-0.540	-0.230	292.260	-1.900	0.100																			1580071064.0	11.90	22.04
26/01/2020 20:37:45	26012020	260120	203745	292.180	12.189473	-56.156620	292.270	-0.100	-0.350	-0.420	292.180	-1.700	-0.100																			1580071065.0	11.74	21.74
26/01/2020 20:37:46	26012020	260120	203746	292.160	12.189492	-56.156672	292.240	-0.220	-0.150	-0.590	292.160	-1.500	-0.300																			1580071066.0	11.65	21.58
26/01/2020 20:37:47	26012020	260120	203747	292.190	12.189508	-56.156723	292.270	-0.300	-0.030	-0.730	292.190	-1.400	-0.400																			1580071067.0	11.61	21.50
26/01/2020 20:37:48	26012020	260120	203748	292.290	12.189527	-56.156777	292.380	-0.280	-0.060	-0.780	292.290	-1.400	-0.400																			1580071068.0	11.67	21.61
26/01/2020 20:37:49	26012020	260120	203749	292.440	12.189545	-56.156828	292.530	-0.120	-0.280	-0.700	292.440	-1.700	-0.400																			1580071069.0	11.79	21.84
26/01/2020 20:37:50	26012020	260120	203750	292.630	12.189565	-56.156882	292.730	0.170	-0.570	-0.500	292.630	-2.000	-0.200																			1580071070.0	11.98	22.19
26/01/2020 20:37:51	26012020	260120	203751	292.820	12.189585	-56.156935	292.910	0.420	-0.670	-0.200	292.820	-2.100	0.100																			1580071071.0	12.15	22.50
26/01/2020 20:37:52	26012020	260120	203752	292.890	12.189607	-56.156987	292.990	0.460	-0.370	0.070	292.890	-1.800	0.400																			1580071072.0	12.03	22.28
26/01/2020 20:37:53	26012020	260120	203753	292.800	12.189628	-56.157038	292.890	0.220	0.170	0.240	292.800	-1.200	0.600																			1580071073.0	11.63	21.54
26/01/2020 20:37:54	26012020	260120	203754	292.570	12.189648	-56.157087	292.660	-0.160	0.530	0.200	292.570	-0.900	0.500																			1580071074.0	11.29	20.91
26/01/2020 20:37:55	26012020	260120	203755	292.270	12.189667	-56.157138	292.350	-0.410	0.410	-0.080	292.270	-1.000	0.200																			1580071075.0	11.34	21.00
26/01/2020 20:37:56	26012020	260120	203756	291.960	12.189683	-56.157190	292.050	-0.370	-0.140	-0.340	291.960	-1.500	-0.000																			1580071076.0	11.73	21.72
26/01/2020 20:37:57	26012020	260120	203757	291.760	12.189700	-56.157245	291.850	-0.030	-0.790	-0.410	291.760	-2.200	-0.100																			1580071077.0	12.09	22.39
26/01/2020 20:37:58	26012020	260120	203758	291.720	12.189718	-56.157300	291.820	0.350	-1.100	-0.280	291.720	-2.500	0.000																			1580071078.0	12.18	22.56
26/01/2020 20:37:59	26012020	260120	203759	291.790	12.189738	-56.157352	291.890	0.490	-0.890	-0.060	291.790	-2.300	0.300	1014.00	26.30	26.20	21.20	21.20	153.00	73.00	73.00	390.00	27.10	44.00	4.90	59.00	4.20	10562	3431.00	27.70	27.60	1580071079.0	11.89	22.02
26/01/2020 20:38:00	26012020	260120	203800	291.860	12.189758	-56.157402	291.960	0.280	-0.450	0.100	291.860	-1.800	0.400																			1580071080.0	11.46	21.22
26/01/2020 20:38:01	26012020	260120	203801	291.930	12.189778	-56.157452	292.020	-0.080	-0.140	0.040	291.930	-1.500	0.400																			1580071081.0	11.30	20.93
26/01/2020 20:38:02	26012020	260120	203802	292.010	12.189797	-56.157502	292.110	-0.330	-0.130	-0.160	292.010	-1.500	0.200																			1580071082.0	11.52	21.34
26/01/2020 20:38:03	26012020	260120	203803	292.130	12.189815	-56.157555	292.230	-0.330	-0.290	-0.390	292.130	-1.700	-0.100																			1580071083.0	11.93	22.09
26/01/2020 20:38:04	26012020	260120	203804	292.260	12.189833	-56.157610	292.350	-0.170	-0.420	-0.510	292.260	-1.800	-0.200																			1580071084.0	12.20	22.59
26/01/2020 20:38:05	26012020	260120	203805	292.350	12.189852	-56.157665	292.440	-0.010	-0.340	-0.410	292.350	-1.700	-0.100																			1580071085.0	12.22	22.63
26/01/2020 20:38:06	26012020	260120	203806	292.360	12.189872	-56.157718	292.440	0.020	-0.030	-0.160	292.360	-1.400	0.200																			1580071086.0	12.00	22.22
26/01/2020 20:38:07	26012020	260120	203807	292.240	12.189890	-56.157770	292.320	-0.090	0.310	0.070	292.240	-1.100	0.400																			1580071087.0	11.69	21.65
26/01/2020 20:38:08	26012020	260120	203808	292.040	12.189910	-56.157820	292.120	-0.190	0.390	0.150	292.040	-1.000	0.500																			1580071088.0	11.51	21.32
26/01/2020 20:38:09	26012020	260120	203809	291.840	12.189928	-56.157872	291.930	-0.140	0.110	0.070	291.840	-1.300	0.400																			1580071089.0	11.64	21.56
26/01/2020 20:38:10	26012020	260120	203810	291.670	12.189947	-56.157925	291.750	0.050	-0.280	-0.070	291.670	-1.700	0.300																			1580071090.0	11.92	22.08
26/01/2020 20:38:11	26012020	260120	203811	291.520	12.189965	-56.157978	291.590	0.250	-0.510	-0.120	291.520	-1.900	0.200																			1580071091.0	11.97	22.17
26/01/2020 20:38:12	26012020	260120	203812	291.440	12.189983	-56.158032	291.510	0.320	-0.550	-0.100	291.440	-1.900	0.200																			1580071092.0	11.72	21.71
26/01/2020 20:38:13	26012020	260120	203813	291.470	12.190002	-56.158082	291.550	0.270	-0.570	-0.090	291.470	-1.900	0.200																			1580071093.0	11.50	21.30
26/01/2020 20:38:14	26012020	260120	203814	291.640	12.190022	-56.158133	291.730	0.200	-0.670	-0.170	291.640	-2.100	0.200																			1580071094.0	11.53	21.35
26/01/2020 20:38:15	26012020	260120	203815	291.860	12.190040	-56.158185	291.950	0.140	-0.740	-0.280	291.860	-2.100	0.000																			1580071095.0	11.72	21.71
26/01/2020 20:38:16	26012020	260120	203816	292.030	12.190058	-56.158237	292.120	0.070	-0.600	-0.310	292.030	-2.000	0.000																			1580071096.0	11.84	21.93
26/01/2020 20:38:17	26012020	260120	203817	292.140	12.190077	-56.158290	292.220	-0.050	-0.320	-0.250	292.140	-1.700	0.100																			1580071097.0	11.74	21.74
26/01/2020 20:38:18	26012020	260120	203818	292.170	12.190095	-56.158342	292.260	-0.190	-0.090	-0.170	292.170	-1.500	0.200																			1580071098.0	11.67	21.61
26/01/2020 20:38:19	26012020	260120	203819	292.160	12.190113	-56.158393	292.240	-0.270	-0.010	-0.140	292.160	-1.400	0.200																			1580071099.0	11.77	21.80
26/01/2020 20:38:20	26012020	260120	203820	292.100	12.190133	-56.158447	292.160	-0.300	-0.000	-0.170	292.100	-1.400	0.200																			1580071100.0	11.93	22.09
26/01/2020 20:38:21	26012020	260120	203821	291.990	12.190152	-56.158500	292.050	-0.310	-0.010	-0.180	291.990	-1.400	0.200																			1580071101.0	11.96	22.15
26/01/2020 20:38:22	26012020	260120	203822	291.850	12.190170	-56.158553	291.910	-0.270	-0.040	-0.120	291.850	-1.400	0.200																			1580071102.0	11.89	22.02
26/01/2020 20:38:23	26012020	260120	203823	291.740	12.190188	-56.158607	291.800	-0.140	-0.200	-0.060	291.740	-1.600	0.300																			1580071103.0	11.83	21.91
26/01/2020 20:38:24	26012020	260120	203824	291.690	12.190207	-56.158658	291.760	0.070	-0.480	-0.080	291.690	-1.900	0.300																			1580071104.0	11.93	22.09
26/01/2020 20:38:25	26012020	260120	203825	291.750	12.190227	-56.158713	291.820	0.250	-0.640	-0.140	291.750	-2.000	0.200																			1580071105.0	12.06	22.34
26/01/2020 20:38:26	26012020	260120	203826	291.880	12.190245	-56.158767	291.960	0.280	-0.470	-0.130	291.880	-1.900	0.200																			1580071106.0	11.97	22.17
26/01/2020 20:38:27	26012020	260120	203827	291.950	12.190263	-56.158818	292.020	0.140	-0.060	-0.030	291.950	-1.400	0.300																			1580071107.0	11.61	21.50
26/01/2020 20:38:28	26012020	260120	203828	291.890	12.190282	-56.158868	291.960	-0.100	0.250	0.100	291.890	-1.100	0.400																			1580071108.0	11.31	20.95
26/01/2020 20:38:29	26012020	260120	203829	291.770	12.190300	-56.158918	291.850	-0.240	0.180	0.140	291.770	-1.200	0.500																			1580071109.0	11.33	20.98
26/01/2020 20:38:30	26012020	260120	203830	291.680	12.190318	-56.158970	291.750	-0.170	-0.170	0.140	291.680	-1.600	0.500																			1580071110.0	11.66	21.59
26/01/2020 20:38:31	26012020	260120	203831	291.610	12.190337	-56.159023	291.680	0.060	-0.550	0.200	291.610	-1.900	0.500																			1580071111.0	11.94	22.11
26/01/2020 20:38:32	26012020	260120	203832	291.580	12.190355	-56.159077	291.660	0.380	-0.830	0.310	291.580	-2.200	0.600																			1580071112.0	11.98	22.19
26/01/2020 20:38:33	26012020	260120	203833	291.660	12.190375	-56.159130	291.730	0.670	-1.010	0.370	291.660	-2.400	0.700																			1580071113.0	11.99	22.21
26/01/2020 20:38:34	26012020	260120	203834	291.750	12.190397	-56.159182	291.830	0.750	-0.900	0.340	291.750	-2.300	0.700																			1580071114.0	12.05	22.32
26/01/2020 20:38:35	26012020	260120	203835	291.760	12.190417	-56.159235	291.830	0.430	-0.320	0.230	291.760	-1.700	0.600																			1580071115.0	11.94	22.11
26/01/2020 20:38:36	26012020	260120	203836	291.640	12.190435	-56.159285	291.700	-0.270	0.520	0.040	291.640	-0.900	0.400																			1580071116.0	11.47	21.24
26/01/2020 20:38:37	26012020	260120	203837	291.490	12.190452	-56.159335	291.550	-1.020	0.940	-0.310	291.490	-0.400	0.000																			1580071117.0	11.05	20.46
26/01/2020 20:38:38	26012020	260120	203838	291.440	12.190467	-56.159387	291.510	-1.340	0.470	-0.760	291.440	-0.900	-0.400																			1580071118.0	11.29	20.91
26/01/2020 20:38:39	26012020	260120	203839	291.570	12.190480	-56.159442	291.640	-0.990	-0.660	-1.150	291.570	-2.000	-0.800																			1580071119.0	12.12	22.45
26/01/2020 20:38:40	26012020	260120	203840	291.850	12.190495	-56.159500	291.930	-0.190	-1.610	-1.230	291.850	-3.000	-0.900																			1580071120.0	12.86	23.82
26/01/2020 20:38:41	26012020	260120	203841	292.110	12.190513	-56.159558	292.190	0.530	-1.620	-0.830	292.110	-3.000	-0.500																			1580071121.0	12.79	23.69
26/01/2020 20:38:42	26012020	260120	203842	292.170	12.190533	-56.159612	292.250	0.750	-0.680	-0.150	292.170	-2.000	0.200																			1580071122.0	11.99	22.21
26/01/2020 20:38:43	26012020	260120	203843	292.070	12.190555	-56.159658	292.140	0.470	0.480	0.370	292.070	-0.900	0.700																			1580071123.0	11.11	20.58
26/01/2020 20:38:44	26012020	260120	203844	291.840	12.190575	-56.159707	291.910	0.010	1.150	0.470	291.840	-0.200	0.800																			1580071124.0	10.82	20.04
26/01/2020 20:38:45	26012020	260120	203845	291.570	12.190593	-56.159755	291.620	-0.310	1.090	0.250	291.570	-0.300	0.600																			1580071125.0	11.14	20.63
26/01/2020 20:38:46	26012020	260120	203846	291.360	12.190612	-56.159807	291.430	-0.310	0.400	-0.100	291.360	-1.000	0.200																			1580071126.0	11.67	21.61
26/01/2020 20:38:47	26012020	260120	203847	291.310	12.190630	-56.159862	291.380	0.000	-0.570	-0.410	291.310	-2.000	-0.100																			1580071127.0	12.12	22.45
26/01/2020 20:38:48	26012020	260120	203848	291.440	12.190647	-56.159917	291.520	0.470	-1.350	-0.550	291.440	-2.700	-0.200																			1580071128.0	12.36	22.89
26/01/2020 20:38:49	26012020	260120	203849	291.640	12.190667	-56.159972	291.730	0.830	-1.530	-0.420	291.640	-2.900	-0.100																			1580071129.0	12.27	22.72
26/01/2020 20:38:50	26012020	260120	203850	291.710	12.190687	-56.160023	291.780	0.800	-0.970	-0.110	291.710	-2.300	0.200																			1580071130.0	11.85	21.95
26/01/2020 20:38:51	26012020	260120	203851	291.570	12.190707	-56.160073	291.640	0.270	-0.040	0.080	291.570	-1.400	0.400																			1580071131.0	11.25	20.84
26/01/2020 20:38:52	26012020	260120	203852	291.340	12.190725	-56.160120	291.400	-0.490	0.590	-0.040	291.340	-0.800	0.300																			1580071132.0	10.88	20.15
26/01/2020 20:38:53	26012020	260120	203853	291.160	12.190742	-56.160170	291.210	-1.030	0.460	-0.420	291.160	-0.900	-0.100																			1580071133.0	11.12	20.59
26/01/2020 20:38:54	26012020	260120	203854	291.130	12.190755	-56.160225	291.210	-1.040	-0.310	-0.830	291.130	-1.700	-0.500																			1580071134.0	11.86	21.96
26/01/2020 20:38:55	26012020	260120	203855	291.330	12.190770	-56.160282	291.410	-0.550	-1.150	-1.050	291.330	-2.500	-0.700																			1580071135.0	12.53	23.21
26/01/2020 20:38:56	26012020	260120	203856	291.670	12.190787	-56.160340	291.760	0.090	-1.410	-0.920	291.670	-2.800	-0.600																			1580071136.0	12.67	23.46
26/01/2020 20:38:57	26012020	260120	203857	292.010	12.190807	-56.160393	292.100	0.420	-0.880	-0.470	292.010	-2.300	-0.100																			1580071137.0	12.20	22.59
26/01/2020 20:38:58	26012020	260120	203858	292.160	12.190827	-56.160443	292.240	0.270	0.150	0.090	292.160	-1.200	0.400																			1580071138.0	11.48	21.26
26/01/2020 20:38:59	26012020	260120	203859	292.070	12.190847	-56.160492	292.150	-0.120	0.970	0.480	292.070	-0.400	0.800	1014.00	26.30	26.20	21.20	21.20	137.00	73.00	73.00	390.00	27.10	38.00	4.60	62.00	3.70	10165	3369.00	27.60	27.60	1580071139.0	10.96	20.30
26/01/2020 20:39:00	26012020	260120	203900	291.880	12.190867	-56.160540	291.960	-0.340	1.060	0.490	291.880	-0.300	0.800																			1580071140.0	11.04	20.45
26/01/2020 20:39:01	26012020	260120	203901	291.670	12.190885	-56.160592	291.750	-0.150	0.410	0.260	291.670	-1.000	0.600																			1580071141.0	11.64	21.56
26/01/2020 20:39:02	26012020	260120	203902	291.510	12.190903	-56.160647	291.580	0.400	-0.490	-0.000	291.510	-1.900	0.300																			1580071142.0	12.28	22.74
26/01/2020 20:39:03	26012020	260120	203903	291.410	12.190922	-56.160703	291.480	0.930	-1.040	-0.100	291.410	-2.400	0.200																			1580071143.0	12.48	23.11
26/01/2020 20:39:04	26012020	260120	203904	291.350	12.190942	-56.160757	291.420	1.030	-0.950	0.010	291.350	-2.300	0.300																			1580071144.0	12.12	22.45
26/01/2020 20:39:05	26012020	260120	203905	291.290	12.190962	-56.160807	291.360	0.570	-0.370	0.120	291.290	-1.700	0.500																			1580071145.0	11.45	21.21
26/01/2020 20:39:06	26012020	260120	203906	291.230	12.190982	-56.160853	291.290	-0.240	0.180	0.040	291.230	-1.200	0.400																			1580071146.0	10.92	20.22
26/01/2020 20:39:07	26012020	260120	203907	291.250	12.190998	-56.160903	291.320	-0.950	0.240	-0.360	291.250	-1.200	-0.000																			1580071147.0	10.87	20.13
26/01/2020 20:39:08	26012020	260120	203908	291.510	12.191012	-56.160955	291.590	-1.180	-0.320	-0.910	291.510	-1.700	-0.600																			1580071148.0	11.39	21.09
26/01/2020 20:39:09	26012020	260120	203909	291.960	12.191025	-56.161010	292.070	-0.790	-1.150	-1.290	291.960	-2.500	-1.000																			1580071149.0	12.15	22.50
26/01/2020 20:39:10	26012020	260120	203910	292.490	12.191040	-56.161068	292.580	-0.040	-1.620	-1.210	292.490	-3.000	-0.900																			1580071150.0	12.57	23.28
26/01/2020 20:39:11	26012020	260120	203911	292.900	12.191057	-56.161123	292.980	0.600	-1.320	-0.700	292.900	-2.700	-0.400																			1580071151.0	12.43	23.02
26/01/2020 20:39:12	26012020	260120	203912	293.060	12.191078	-56.161175	293.130	0.790	-0.350	-0.030	293.060	-1.700	0.300																			1580071152.0	11.85	21.95
26/01/2020 20:39:13	26012020	260120	203913	292.920	12.191100	-56.161223	292.980	0.500	0.750	0.500	292.920	-0.600	0.800																			1580071153.0	11.27	20.87
26/01/2020 20:39:14	26012020	260120	203914	292.530	12.191122	-56.161272	292.590	-0.010	1.370	0.610	292.530	-0.000	0.900																			1580071154.0	11.02	20.41
26/01/2020 20:39:15	26012020	260120	203915	292.070	12.191142	-56.161320	292.120	-0.410	1.190	0.260	292.070	-0.200	0.600																			1580071155.0	11.26	20.85
26/01/2020 20:39:16	26012020	260120	203916	291.690	12.191160	-56.161373	291.760	-0.510	0.350	-0.330	291.690	-1.000	0.000																			1580071156.0	11.78	21.82
26/01/2020 20:39:17	26012020	260120	203917	291.570	12.191177	-56.161428	291.650	-0.280	-0.650	-0.840	291.570	-2.000	-0.500																			1580071157.0	12.22	22.63
26/01/2020 20:39:18	26012020	260120	203918	291.730	12.191192	-56.161483	291.820	0.120	-1.320	-1.050	291.730	-2.700	-0.700																			1580071158.0	12.25	22.69
26/01/2020 20:39:19	26012020	260120	203919	292.080	12.191210	-56.161537	292.170	0.470	-1.430	-0.960	292.080	-2.800	-0.600																			1580071159.0	11.94	22.11
26/01/2020 20:39:20	26012020	260120	203920	292.450	12.191230	-56.161588	292.530	0.600	-1.060	-0.680	292.450	-2.400	-0.400																			1580071160.0	11.51	21.32
26/01/2020 20:39:21	26012020	260120	203921	292.660	12.191252	-56.161637	292.730	0.450	-0.500	-0.320	292.660	-1.900	0.000																			1580071161.0	11.26	20.85
26/01/2020 20:39:22	26012020	260120	203922	292.680	12.191272	-56.161685	292.740	0.120	-0.020	-0.040	292.680	-1.400	0.300																			1580071162.0	11.24	20.82
26/01/2020 20:39:23	26012020	260120	203923	292.530	12.191292	-56.161735	292.590	-0.250	0.250	0.040	292.530	-1.100	0.400																			1580071163.0	11.40	21.11
26/01/2020 20:39:24	26012020	260120	203924	292.330	12.191308	-56.161788	292.390	-0.500	0.270	-0.100	292.330	-1.100	0.200																			1580071164.0	11.60	21.48
26/01/2020 20:39:25	26012020	260120	203925	292.130	12.191325	-56.161840	292.180	-0.570	0.080	-0.290	292.130	-1.300	0.000																			1580071165.0	11.77	21.80
26/01/2020 20:39:26	26012020	260120	203926	291.950	12.191342	-56.161895	292.000	-0.450	-0.210	-0.390	291.950	-1.600	-0.100																			1580071166.0	11.90	22.04
26/01/2020 20:39:27	26012020	260120	203927	291.820	12.191360	-56.161948	291.870	-0.180	-0.440	-0.310	291.820	-1.800	0.000																			1580071167.0	11.93	22.09
26/01/2020 20:39:28	26012020	260120	203928	291.770	12.191378	-56.162000	291.820	0.140	-0.500	-0.040	291.770	-1.900	0.300																			1580071168.0	11.84	21.93
26/01/2020 20:39:29	26012020	260120	203929	291.770	12.191398	-56.162052	291.830	0.420	-0.440	0.240	291.770	-1.800	0.600																			1580071169.0	11.68	21.63
26/01/2020 20:39:30	26012020	260120	203930	291.820	12.191418	-56.162102	291.880	0.620	-0.340	0.430	291.820	-1.700	0.800																			1580071170.0	11.58	21.45
26/01/2020 20:39:31	26012020	260120	203931	291.900	12.191440	-56.162153	291.970	0.700	-0.300	0.470	291.900	-1.700	0.800																			1580071171.0	11.59	21.46
26/01/2020 20:39:32	26012020	260120	203932	291.950	12.191460	-56.162203	292.020	0.590	-0.280	0.350	291.950	-1.700	0.700																			1580071172.0	11.69	21.65
26/01/2020 20:39:33	26012020	260120	203933	291.940	12.191482	-56.162255	292.010	0.250	-0.200	0.080	291.940	-1.600	0.400																			1580071173.0	11.72	21.71
26/01/2020 20:39:34	26012020	260120	203934	291.920	12.191500	-56.162307	291.990	-0.260	-0.060	-0.300	291.920	-1.500	0.000																			1580071174.0	11.63	21.54
26/01/2020 20:39:35	26012020	260120	203935	291.950	12.191517	-56.162358	292.020	-0.680	-0.030	-0.660	291.950	-1.400	-0.300																			1580071175.0	11.51	21.32
26/01/2020 20:39:36	26012020	260120	203936	292.100	12.191532	-56.162412	292.170	-0.810	-0.270	-0.970	292.100	-1.700	-0.600																			1580071176.0	11.57	21.43
26/01/2020 20:39:37	26012020	260120	203937	292.340	12.191547	-56.162465	292.410	-0.580	-0.690	-1.100	292.340	-2.100	-0.800																			1580071177.0	11.90	22.04
26/01/2020 20:39:38	26012020	260120	203938	292.570	12.191563	-56.162520	292.630	-0.170	-0.920	-0.890	292.570	-2.300	-0.600																			1580071178.0	12.18	22.56
26/01/2020 20:39:39	26012020	260120	203939	292.700	12.191582	-56.162573	292.760	0.150	-0.690	-0.440	292.700	-2.100	-0.100																			1580071179.0	12.06	22.34
26/01/2020 20:39:40	26012020	260120	203940	292.680	12.191602	-56.162625	292.750	0.280	-0.150	0.050	292.680	-1.500	0.400																			1580071180.0	11.64	21.56
26/01/2020 20:39:41	26012020	260120	203941	292.520	12.191622	-56.162675	292.580	0.240	0.390	0.410	292.520	-1.000	0.700																			1580071181.0	11.30	20.93
26/01/2020 20:39:42	26012020	260120	203942	292.280	12.191642	-56.162723	292.340	0.130	0.620	0.530	292.280	-0.800	0.900																			1580071182.0	11.23	20.80
26/01/2020 20:39:43	26012020	260120	203943	292.100	12.191662	-56.162773	292.170	0.070	0.380	0.370	292.100	-1.000	0.700																			1580071183.0	11.40	21.11
26/01/2020 20:39:44	26012020	260120	203944	292.020	12.191682	-56.162825	292.090	0.090	-0.220	0.040	292.020	-1.600	0.400																			1580071184.0	11.73	21.72
26/01/2020 20:39:45	26012020	260120	203945	292.030	12.191700	-56.162878	292.090	0.220	-0.820	-0.300	292.030	-2.200	0.000																			1580071185.0	12.04	22.30
26/01/2020 20:39:46	26012020	260120	203946	292.030	12.191718	-56.162933	292.080	0.350	-1.080	-0.470	292.030	-2.500	-0.100																			1580071186.0	12.10	22.41
26/01/2020 20:39:47	26012020	260120	203947	292.020	12.191738	-56.162985	292.060	0.380	-0.850	-0.350	292.020	-2.200	-0.000																			1580071187.0	11.86	21.96
26/01/2020 20:39:48	26012020	260120	203948	292.000	12.191758	-56.163035	292.050	0.210	-0.360	-0.120	292.000	-1.700	0.200																			1580071188.0	11.46	21.22
26/01/2020 20:39:49	26012020	260120	203949	292.050	12.191777	-56.163085	292.120	-0.070	-0.060	-0.070	292.050	-1.400	0.300																			1580071189.0	11.24	20.82
26/01/2020 20:39:50	26012020	260120	203950	292.190	12.191797	-56.163135	292.270	-0.290	-0.140	-0.290	292.190	-1.500	0.000																			1580071190.0	11.44	21.19
26/01/2020 20:39:51	26012020	260120	203951	292.390	12.191813	-56.163188	292.460	-0.360	-0.420	-0.560	292.390	-1.800	-0.200																			1580071191.0	11.90	22.04
26/01/2020 20:39:52	26012020	260120	203952	292.600	12.191832	-56.163243	292.660	-0.300	-0.530	-0.680	292.600	-1.900	-0.400																			1580071192.0	12.16	22.52
26/01/2020 20:39:53	26012020	260120	203953	292.700	12.191848	-56.163298	292.750	-0.240	-0.290	-0.500	292.700	-1.700	-0.200																			1580071193.0	12.01	22.24
26/01/2020 20:39:54	26012020	260120	203954	292.600	12.191868	-56.163348	292.630	-0.290	0.140	-0.140	292.600	-1.300	0.200																			1580071194.0	11.64	21.56
26/01/2020 20:39:55	26012020	260120	203955	292.310	12.191887	-56.163400	292.350	-0.390	0.410	0.140	292.310	-1.000	0.500																			1580071195.0	11.38	21.08
26/01/2020 20:39:56	26012020	260120	203956	292.000	12.191905	-56.163450	292.050	-0.390	0.330	0.170	292.000	-1.100	0.500																			1580071196.0	11.44	21.19
26/01/2020 20:39:57	26012020	260120	203957	291.810	12.191923	-56.163502	291.870	-0.120	-0.120	-0.030	291.810	-1.500	0.300																			1580071197.0	11.71	21.69
26/01/2020 20:39:58	26012020	260120	203958	291.840	12.191942	-56.163557	291.910	0.410	-0.740	-0.210	291.840	-2.100	0.100																			1580071198.0	12.01	22.24
26/01/2020 20:39:59	26012020	260120	203959	292.010	12.191962	-56.163610	292.090	0.930	-1.130	-0.210	292.010	-2.500	0.100	1014.00	26.30	26.20	21.10	21.00	128.00	73.00	73.00	390.00	27.00	37.00	4.90	59.00	3.60	9851	3489.00	27.70	27.60	1580071199.0	12.21	22.61
26/01/2020 20:40:00	26012020	260120	204000	292.160	12.191983	-56.163663	292.230	1.040	-0.950	0.010	292.160	-2.300	0.300																			1580071200.0	12.09	22.39
26/01/2020 20:40:01	26012020	260120	204001	292.150	12.192005	-56.163713	292.230	0.600	-0.300	0.270	292.150	-1.700	0.600																			1580071201.0	11.59	21.46
26/01/2020 20:40:02	26012020	260120	204002	292.040	12.192027	-56.163760	292.110	-0.140	0.310	0.270	292.040	-1.100	0.600																			1580071202.0	11.09	20.54
26/01/2020 20:40:03	26012020	260120	204003	291.910	12.192045	-56.163810	291.970	-0.740	0.440	-0.040	291.910	-1.000	0.300																			1580071203.0	11.09	20.54
26/01/2020 20:40:04	26012020	260120	204004	291.810	12.192060	-56.163862	291.880	-0.860	0.040	-0.440	291.810	-1.400	-0.100																			1580071204.0	11.58	21.45
26/01/2020 20:40:05	26012020	260120	204005	291.780	12.192075	-56.163917	291.840	-0.540	-0.540	-0.720	291.780	-1.900	-0.400																			1580071205.0	12.15	22.50
26/01/2020 20:40:06	26012020	260120	204006	291.820	12.192092	-56.163973	291.870	-0.080	-0.800	-0.640	291.820	-2.200	-0.300																			1580071206.0	12.36	22.89
26/01/2020 20:40:07	26012020	260120	204007	291.880	12.192110	-56.164027	291.930	0.200	-0.600	-0.260	291.880	-2.000	0.100																			1580071207.0	12.04	22.30
26/01/2020 20:40:08	26012020	260120	204008	291.910	12.192130	-56.164078	291.960	0.220	-0.200	0.130	291.910	-1.600	0.500																			1580071208.0	11.55	21.39
26/01/2020 20:40:09	26012020	260120	204009	291.870	12.192152	-56.164127	291.920	0.100	0.010	0.300	291.870	-1.400	0.600																			1580071209.0	11.34	21.00
26/01/2020 20:40:10	26012020	260120	204010	291.820	12.192172	-56.164178	291.870	0.020	-0.090	0.210	291.820	-1.500	0.500																			1580071210.0	11.52	21.34
26/01/2020 20:40:11	26012020	260120	204011	291.750	12.192190	-56.164230	291.810	0.060	-0.340	0.030	291.750	-1.700	0.400																			1580071211.0	11.88	22.00
26/01/2020 20:40:12	26012020	260120	204012	291.690	12.192208	-56.164283	291.760	0.150	-0.470	-0.090	291.690	-1.900	0.200																			1580071212.0	12.03	22.28
26/01/2020 20:40:13	26012020	260120	204013	291.680	12.192227	-56.164337	291.740	0.190	-0.380	-0.130	291.680	-1.800	0.200																			1580071213.0	11.89	22.02
26/01/2020 20:40:14	26012020	260120	204014	291.680	12.192245	-56.164388	291.750	0.140	-0.220	-0.100	291.680	-1.600	0.200																			1580071214.0	11.66	21.59
26/01/2020 20:40:15	26012020	260120	204015	291.630	12.192265	-56.164440	291.710	0.040	-0.090	0.030	291.630	-1.500	0.400																			1580071215.0	11.58	21.45
26/01/2020 20:40:16	26012020	260120	204016	291.510	12.192283	-56.164492	291.580	-0.110	-0.010	0.270	291.510	-1.400	0.600																			1580071216.0	11.60	21.48
26/01/2020 20:40:17	26012020	260120	204017	291.390	12.192303	-56.164542	291.470	-0.260	-0.040	0.380	291.390	-1.400	0.700																			1580071217.0	11.58	21.45
26/01/2020 20:40:18	26012020	260120	204018	291.380	12.192322	-56.164593	291.460	-0.310	-0.280	0.170	291.380	-1.700	0.500																			1580071218.0	11.64	21.56
26/01/2020 20:40:19	26012020	260120	204019	291.490	12.192338	-56.164647	291.570	-0.160	-0.620	-0.170	291.490	-2.000	0.200																			1580071219.0	11.86	21.96
26/01/2020 20:40:20	26012020	260120	204020	291.620	12.192355	-56.164702	291.690	0.150	-0.790	-0.260	291.620	-2.200	0.100																			1580071220.0	12.05	22.32
26/01/2020 20:40:21	26012020	260120	204021	291.670	12.192373	-56.164755	291.730	0.380	-0.600	-0.010	291.670	-2.000	0.300																			1580071221.0	11.97	22.17
26/01/2020 20:40:22	26012020	260120	204022	291.610	12.192393	-56.164807	291.650	0.350	-0.150	0.260	291.610	-1.500	0.600																			1580071222.0	11.66	21.59
26/01/2020 20:40:23	26012020	260120	204023	291.500	12.192413	-56.164857	291.540	0.130	0.160	0.260	291.500	-1.200	0.600																			1580071223.0	11.40	21.11
26/01/2020 20:40:24	26012020	260120	204024	291.370	12.192433	-56.164907	291.400	-0.070	0.130	0.040	291.370	-1.300	0.400																			1580071224.0	11.50	21.30
26/01/2020 20:40:25	26012020	260120	204025	291.290	12.192450	-56.164960	291.340	-0.120	-0.160	-0.200	291.290	-1.600	0.100																			1580071225.0	11.82	21.89
26/01/2020 20:40:26	26012020	260120	204026	291.340	12.192468	-56.165013	291.380	-0.080	-0.440	-0.360	291.340	-1.800	-0.000																			1580071226.0	12.04	22.30
26/01/2020 20:40:27	26012020	260120	204027	291.390	12.192485	-56.165068	291.450	-0.090	-0.470	-0.360	291.390	-1.900	-0.000																			1580071227.0	11.99	22.21
26/01/2020 20:40:28	26012020	260120	204028	291.440	12.192503	-56.165120	291.490	-0.200	-0.340	-0.230	291.440	-1.700	0.100																			1580071228.0	11.68	21.63
26/01/2020 20:40:29	26012020	260120	204029	291.500	12.192522	-56.165172	291.560	-0.280	-0.330	-0.070	291.500	-1.700	0.300																			1580071229.0	11.48	21.26
26/01/2020 20:40:30	26012020	260120	204030	291.610	12.192540	-56.165223	291.680	-0.180	-0.530	0.100	291.610	-1.900	0.400																			1580071230.0	11.67	21.61
26/01/2020 20:40:31	26012020	260120	204031	291.690	12.192558	-56.165277	291.750	0.030	-0.660	0.250	291.690	-2.100	0.600																			1580071231.0	12.00	22.22
26/01/2020 20:40:32	26012020	260120	204032	291.630	12.192578	-56.165330	291.680	0.160	-0.430	0.370	291.630	-1.800	0.700																			1580071232.0	12.08	22.37
26/01/2020 20:40:33	26012020	260120	204033	291.440	12.192597	-56.165382	291.470	0.150	0.070	0.460	291.440	-1.300	0.800																			1580071233.0	11.77	21.80
26/01/2020 20:40:34	26012020	260120	204034	291.160	12.192615	-56.165433	291.190	0.070	0.410	0.420	291.160	-1.000	0.700																			1580071234.0	11.45	21.21
26/01/2020 20:40:35	26012020	260120	204035	290.920	12.192633	-56.165485	290.950	0.080	0.300	0.210	290.920	-1.100	0.500																			1580071235.0	11.53	21.35
26/01/2020 20:40:36	26012020	260120	204036	290.740	12.192652	-56.165538	290.760	0.170	-0.100	-0.070	290.740	-1.500	0.300																			1580071236.0	11.90	22.04
26/01/2020 20:40:37	26012020	260120	204037	290.610	12.192670	-56.165592	290.640	0.200	-0.430	-0.300	290.610	-1.800	0.000																			1580071237.0	12.12	22.45
26/01/2020 20:40:38	26012020	260120	204038	290.610	12.192688	-56.165645	290.650	0.080	-0.510	-0.450	290.610	-1.900	-0.100																			1580071238.0	11.92	22.08
26/01/2020 20:40:39	26012020	260120	204039	290.710	12.192705	-56.165697	290.750	-0.110	-0.470	-0.510	290.710	-1.900	-0.200																			1580071239.0	11.59	21.46
26/01/2020 20:40:40	26012020	260120	204040	290.940	12.192722	-56.165748	291.000	-0.210	-0.540	-0.450	290.940	-1.900	-0.100																			1580071240.0	11.44	21.19
26/01/2020 20:40:41	26012020	260120	204041	291.240	12.192740	-56.165800	291.310	-0.170	-0.740	-0.270	291.240	-2.100	0.100																			1580071241.0	11.63	21.54
26/01/2020 20:40:42	26012020	260120	204042	291.540	12.192758	-56.165853	291.610	-0.060	-0.890	-0.050	291.540	-2.300	0.300																			1580071242.0	11.95	22.13
26/01/2020 20:40:43	26012020	260120	204043	291.720	12.192778	-56.165907	291.790	-0.000	-0.720	0.190	291.720	-2.100	0.500																			1580071243.0	12.08	22.37
26/01/2020 20:40:44	26012020	260120	204044	291.720	12.192797	-56.165960	291.770	-0.050	-0.240	0.440	291.720	-1.600	0.800																			1580071244.0	11.89	22.02
26/01/2020 20:40:45	26012020	260120	204045	291.580	12.192815	-56.166012	291.630	-0.140	0.280	0.590	291.580	-1.100	0.900																			1580071245.0	11.63	21.54
26/01/2020 20:40:46	26012020	260120	204046	291.350	12.192832	-56.166063	291.380	-0.160	0.550	0.540	291.350	-0.900	0.900																			1580071246.0	11.59	21.46
26/01/2020 20:40:47	26012020	260120	204047	291.070	12.192850	-56.166117	291.100	-0.090	0.490	0.330	291.070	-0.900	0.700																			1580071247.0	11.75	21.76
26/01/2020 20:40:48	26012020	260120	204048	290.810	12.192867	-56.166170	290.840	0.040	0.190	0.090	290.810	-1.200	0.400																			1580071248.0	11.92	22.08
26/01/2020 20:40:49	26012020	260120	204049	290.680	12.192885	-56.166223	290.720	0.130	-0.200	-0.170	290.680	-1.600	0.200																			1580071249.0	11.97	22.17
26/01/2020 20:40:50	26012020	260120	204050	290.750	12.192903	-56.166277	290.810	0.200	-0.630	-0.420	290.750	-2.000	-0.100																			1580071250.0	11.91	22.06
26/01/2020 20:40:51	26012020	260120	204051	291.000	12.192922	-56.166330	291.070	0.300	-0.990	-0.590	291.000	-2.400	-0.300																			1580071251.0	11.90	22.04
26/01/2020 20:40:52	26012020	260120	204052	291.290	12.192940	-56.166383	291.380	0.410	-1.110	-0.550	291.290	-2.500	-0.200																			1580071252.0	11.95	22.13
26/01/2020 20:40:53	26012020	260120	204053	291.470	12.192958	-56.166437	291.540	0.400	-0.800	-0.230	291.470	-2.200	0.100																			1580071253.0	11.86	21.96
26/01/2020 20:40:54	26012020	260120	204054	291.460	12.192978	-56.166487	291.520	0.140	-0.150	0.130	291.460	-1.500	0.500																			1580071254.0	11.55	21.39
26/01/2020 20:40:55	26012020	260120	204055	291.380	12.192997	-56.166537	291.450	-0.330	0.430	0.260	291.380	-1.000	0.600																			1580071255.0	11.22	20.78
26/01/2020 20:40:56	26012020	260120	204056	291.390	12.193013	-56.166587	291.480	-0.720	0.500	0.060	291.390	-0.900	0.400																			1580071256.0	11.21	20.76
26/01/2020 20:40:57	26012020	260120	204057	291.540	12.193028	-56.166638	291.610	-0.750	0.000	-0.320	291.540	-1.400	0.000																			1580071257.0	11.64	21.56
26/01/2020 20:40:58	26012020	260120	204058	291.720	12.193045	-56.166695	291.790	-0.400	-0.700	-0.630	291.720	-2.100	-0.300																			1580071258.0	12.24	22.67
26/01/2020 20:40:59	26012020	260120	204059	291.880	12.193062	-56.166752	291.930	0.090	-1.080	-0.640	291.880	-2.500	-0.300	1014.00	26.30	26.20	21.10	21.10	121.00	73.00	73.00	390.00	27.00	45.00	4.60	63.00	4.30	9566	3545.00	27.70	27.70	1580071259.0	12.52	23.19
26/01/2020 20:41:00	26012020	260120	204100	291.920	12.193080	-56.166807	291.980	0.430	-0.860	-0.300	291.920	-2.200	0.000																			1580071260.0	12.28	22.74
26/01/2020 20:41:01	26012020	260120	204101	291.820	12.193100	-56.166858	291.860	0.460	-0.210	0.150	291.820	-1.600	0.500																			1580071261.0	11.76	21.78
26/01/2020 20:41:02	26012020	260120	204102	291.590	12.193120	-56.166908	291.620	0.330	0.370	0.450	291.590	-1.000	0.800																			1580071262.0	11.34	21.00
26/01/2020 20:41:03	26012020	260120	204103	291.300	12.193140	-56.166957	291.340	0.230	0.520	0.480	291.300	-0.900	0.800																			1580071263.0	11.35	21.02
26/01/2020 20:41:04	26012020	260120	204104	291.090	12.193160	-56.167008	291.130	0.200	0.250	0.300	291.090	-1.100	0.600																			1580071264.0	11.70	21.67
26/01/2020 20:41:05	26012020	260120	204105	291.000	12.193178	-56.167062	291.040	0.090	-0.160	-0.010	291.000	-1.600	0.300																			1580071265.0	11.97	22.17
26/01/2020 20:41:06	26012020	260120	204106	291.040	12.193198	-56.167115	291.090	-0.120	-0.550	-0.360	291.040	-1.900	-0.000																			1580071266.0	11.97	22.17
26/01/2020 20:41:07	26012020	260120	204107	291.210	12.193215	-56.167168	291.280	-0.350	-0.840	-0.710	291.210	-2.200	-0.400																			1580071267.0	11.85	21.95
26/01/2020 20:41:08	26012020	260120	204108	291.500	12.193232	-56.167222	291.570	-0.420	-1.030	-0.960	291.500	-2.400	-0.600																			1580071268.0	11.82	21.89
26/01/2020 20:41:09	26012020	260120	204109	291.840	12.193247	-56.167277	291.920	-0.310	-1.020	-0.990	291.840	-2.400	-0.600																			1580071269.0	11.89	22.02
26/01/2020 20:41:10	26012020	260120	204110	292.160	12.193263	-56.167330	292.230	-0.070	-0.730	-0.690	292.160	-2.100	-0.300																			1580071270.0	11.88	22.00
26/01/2020 20:41:11	26012020	260120	204111	292.370	12.193282	-56.167382	292.440	0.100	-0.190	-0.200	292.370	-1.600	0.100																			1580071271.0	11.75	21.76
26/01/2020 20:41:12	26012020	260120	204112	292.410	12.193302	-56.167433	292.470	0.090	0.370	0.260	292.410	-1.000	0.600																			1580071272.0	11.56	21.41
26/01/2020 20:41:13	26012020	260120	204113	292.290	12.193322	-56.167483	292.350	-0.090	0.640	0.460	292.290	-0.800	0.800																			1580071273.0	11.49	21.28
26/01/2020 20:41:14	26012020	260120	204114	292.110	12.193340	-56.167535	292.180	-0.230	0.510	0.350	292.110	-0.900	0.700																			1580071274.0	11.63	21.54
26/01/2020 20:41:15	26012020	260120	204115	291.930	12.193358	-56.167587	291.990	-0.140	0.070	0.140	291.930	-1.300	0.500																			1580071275.0	11.91	22.06
26/01/2020 20:41:16	26012020	260120	204116	291.770	12.193377	-56.167642	291.830	0.170	-0.430	-0.040	291.770	-1.800	0.300																			1580071276.0	12.10	22.41
26/01/2020 20:41:17	26012020	260120	204117	291.690	12.193397	-56.167695	291.740	0.480	-0.710	-0.130	291.690	-2.100	0.200																			1580071277.0	12.11	22.43
26/01/2020 20:41:18	26012020	260120	204118	291.700	12.193417	-56.167748	291.760	0.560	-0.670	-0.130	291.700	-2.100	0.200																			1580071278.0	11.86	21.96
26/01/2020 20:41:19	26012020	260120	204119	291.780	12.193437	-56.167798	291.830	0.400	-0.480	-0.030	291.780	-1.900	0.300																			1580071279.0	11.51	21.32
26/01/2020 20:41:20	26012020	260120	204120	291.860	12.193457	-56.167848	291.930	0.170	-0.450	0.100	291.860	-1.900	0.400																			1580071280.0	11.36	21.04
26/01/2020 20:41:21	26012020	260120	204121	291.990	12.193477	-56.167898	292.060	0.040	-0.670	0.160	291.990	-2.100	0.500																			1580071281.0	11.62	21.52
26/01/2020 20:41:22	26012020	260120	204122	292.110	12.193495	-56.167952	292.180	-0.010	-0.870	0.140	292.110	-2.300	0.500																			1580071282.0	12.06	22.34
26/01/2020 20:41:23	26012020	260120	204123	292.140	12.193515	-56.168007	292.220	-0.130	-0.680	0.190	292.140	-2.100	0.500																			1580071283.0	12.22	22.63
26/01/2020 20:41:24	26012020	260120	204124	292.070	12.193532	-56.168060	292.130	-0.410	-0.030	0.310	292.070	-1.400	0.600																			1580071284.0	11.93	22.09
26/01/2020 20:41:25	26012020	260120	204125	291.880	12.193550	-56.168112	291.940	-0.780	0.690	0.390	291.880	-0.700	0.700																			1580071285.0	11.40	21.11
26/01/2020 20:41:26	26012020	260120	204126	291.720	12.193565	-56.168162	291.780	-0.950	0.840	0.280	291.720	-0.600	0.600																			1580071286.0	11.17	20.69
26/01/2020 20:41:27	26012020	260120	204127	291.750	12.193582	-56.168213	291.830	-0.660	0.180	0.010	291.750	-1.200	0.300																			1580071287.0	11.59	21.46
26/01/2020 20:41:28	26012020	260120	204128	291.960	12.193598	-56.168270	292.050	0.050	-0.780	-0.180	291.960	-2.200	0.200																			1580071288.0	12.36	22.89
26/01/2020 20:41:29	26012020	260120	204129	292.220	12.193618	-56.168327	292.300	0.790	-1.270	-0.080	292.220	-2.700	0.300																			1580071289.0	12.71	23.54
26/01/2020 20:41:30	26012020	260120	204130	292.380	12.193640	-56.168380	292.450	1.140	-0.940	0.300	292.380	-2.300	0.600																			1580071290.0	12.29	22.76
26/01/2020 20:41:31	26012020	260120	204131	292.380	12.193662	-56.168430	292.440	0.960	-0.130	0.610	292.380	-1.500	0.900																			1580071291.0	11.51	21.32
26/01/2020 20:41:32	26012020	260120	204132	292.240	12.193683	-56.168477	292.280	0.420	0.470	0.570	292.240	-0.900	0.900																			1580071292.0	10.99	20.35
26/01/2020 20:41:33	26012020	260120	204133	292.030	12.193702	-56.168527	292.080	-0.140	0.460	0.170	292.030	-1.000	0.500																			1580071293.0	11.11	20.58
26/01/2020 20:41:34	26012020	260120	204134	291.820	12.193720	-56.168578	291.870	-0.500	-0.020	-0.350	291.820	-1.400	-0.000																			1580071294.0	11.68	21.63
26/01/2020 20:41:35	26012020	260120	204135	291.670	12.193737	-56.168633	291.720	-0.640	-0.540	-0.840	291.670	-2.000	-0.500																			1580071295.0	12.14	22.48
26/01/2020 20:41:36	26012020	260120	204136	291.640	12.193752	-56.168688	291.710	-0.590	-0.800	-1.010	291.640	-2.200	-0.700																			1580071296.0	12.17	22.54
26/01/2020 20:41:37	26012020	260120	204137	291.720	12.193767	-56.168742	291.800	-0.390	-0.730	-0.720	291.720	-2.100	-0.400																			1580071297.0	11.89	22.02
26/01/2020 20:41:38	26012020	260120	204138	291.830	12.193785	-56.168793	291.930	-0.110	-0.490	-0.180	291.830	-1.900	0.200																			1580071298.0	11.56	21.41
26/01/2020 20:41:39	26012020	260120	204139	291.980	12.193805	-56.168845	292.080	0.190	-0.360	0.330	291.980	-1.800	0.700																			1580071299.0	11.45	21.21
26/01/2020 20:41:40	26012020	260120	204140	292.170	12.193825	-56.168895	292.280	0.450	-0.440	0.540	292.170	-1.900	0.900																			1580071300.0	11.64	21.56
26/01/2020 20:41:41	26012020	260120	204141	292.400	12.193847	-56.168947	292.500	0.590	-0.520	0.450	292.400	-1.900	0.800																			1580071301.0	11.97	22.17
26/01/2020 20:41:42	26012020	260120	204142	292.570	12.193868	-56.169000	292.640	0.500	-0.330	0.270	292.570	-1.700	0.600																			1580071302.0	12.08	22.37
26/01/2020 20:41:43	26012020	260120	204143	292.630	12.193888	-56.169052	292.710	0.140	0.150	0.080	292.630	-1.300	0.400																			1580071303.0	11.83	21.91
26/01/2020 20:41:44	26012020	260120	204144	292.600	12.193907	-56.169103	292.670	-0.350	0.580	-0.100	292.600	-0.800	0.200																			1580071304.0	11.46	21.22
26/01/2020 20:41:45	26012020	260120	204145	292.470	12.193923	-56.169153	292.530	-0.700	0.550	-0.270	292.470	-0.900	0.100																			1580071305.0	11.35	21.02
26/01/2020 20:41:46	26012020	260120	204146	292.280	12.193940	-56.169207	292.320	-0.690	0.010	-0.440	292.280	-1.400	-0.100																			1580071306.0	11.71	21.69
26/01/2020 20:41:47	26012020	260120	204147	292.040	12.193958	-56.169262	292.090	-0.340	-0.670	-0.510	292.040	-2.100	-0.200																			1580071307.0	12.19	22.58
26/01/2020 20:41:48	26012020	260120	204148	291.840	12.193975	-56.169317	291.890	0.140	-1.030	-0.320	291.840	-2.400	0.000																			1580071308.0	12.32	22.82
26/01/2020 20:41:49	26012020	260120	204149	291.690	12.193995	-56.169370	291.750	0.480	-0.900	0.110	291.690	-2.300	0.500																			1580071309.0	11.98	22.19
26/01/2020 20:41:50	26012020	260120	204150	291.570	12.194015	-56.169420	291.620	0.530	-0.500	0.550	291.570	-1.900	0.900																			1580071310.0	11.53	21.35
26/01/2020 20:41:51	26012020	260120	204151	291.430	12.194035	-56.169468	291.480	0.320	-0.090	0.770	291.430	-1.500	1.100																			1580071311.0	11.28	20.89
26/01/2020 20:41:52	26012020	260120	204152	291.320	12.194055	-56.169518	291.380	0.010	0.130	0.630	291.320	-1.300	1.000																			1580071312.0	11.27	20.87
26/01/2020 20:41:53	26012020	260120	204153	291.350	12.194075	-56.169568	291.430	-0.210	0.010	0.230	291.350	-1.400	0.600																			1580071313.0	11.44	21.19
26/01/2020 20:41:54	26012020	260120	204154	291.600	12.194092	-56.169622	291.670	-0.220	-0.400	-0.270	291.600	-1.800	0.100																			1580071314.0	11.78	21.82
26/01/2020 20:41:55	26012020	260120	204155	292.000	12.194108	-56.169677	292.090	-0.050	-0.780	-0.620	292.000	-2.200	-0.300																			1580071315.0	12.14	22.48
26/01/2020 20:41:56	26012020	260120	204156	292.420	12.194127	-56.169732	292.500	0.150	-0.780	-0.610	292.420	-2.200	-0.300																			1580071316.0	12.23	22.65
26/01/2020 20:41:57	26012020	260120	204157	292.670	12.194145	-56.169785	292.740	0.230	-0.340	-0.230	292.670	-1.700	0.100																			1580071317.0	11.95	22.13
26/01/2020 20:41:58	26012020	260120	204158	292.660	12.194165	-56.169835	292.720	0.160	0.230	0.230	292.660	-1.200	0.600																			1580071318.0	11.54	21.37
26/01/2020 20:41:59	26012020	260120	204159	292.390	12.194187	-56.169885	292.450	-0.030	0.520	0.500	292.390	-0.900	0.800	1014.10	26.30	26.20	21.10	21.00	115.00	73.00	73.00	391.00	27.00	38.00	4.60	62.00	3.70	9301	3543.00	27.70	27.60	1580071319.0	11.37	21.06
26/01/2020 20:42:00	26012020	260120	204200	292.010	12.194207	-56.169935	292.070	-0.230	0.320	0.380	292.010	-1.100	0.700																			1580071320.0	11.55	21.39
26/01/2020 20:42:01	26012020	260120	204201	291.690	12.194223	-56.169988	291.740	-0.350	-0.160	-0.040	291.690	-1.600	0.300																			1580071321.0	11.90	22.04
26/01/2020 20:42:02	26012020	260120	204202	291.540	12.194240	-56.170043	291.600	-0.320	-0.570	-0.460	291.540	-2.000	-0.100																			1580071322.0	12.09	22.39
26/01/2020 20:42:03	26012020	260120	204203	291.560	12.194255	-56.170098	291.640	-0.170	-0.720	-0.610	291.560	-2.100	-0.300																			1580071323.0	11.92	22.08
26/01/2020 20:42:04	26012020	260120	204204	291.680	12.194272	-56.170150	291.760	0.050	-0.690	-0.450	291.680	-2.100	-0.100																			1580071324.0	11.62	21.52
26/01/2020 20:42:05	26012020	260120	204205	291.860	12.194292	-56.170200	291.950	0.260	-0.630	-0.160	291.860	-2.000	0.200																			1580071325.0	11.50	21.30
26/01/2020 20:42:06	26012020	260120	204206	292.020	12.194312	-56.170252	292.090	0.360	-0.540	0.190	292.020	-1.900	0.500																			1580071326.0	11.61	21.50
26/01/2020 20:42:07	26012020	260120	204207	292.080	12.194333	-56.170302	292.150	0.320	-0.330	0.480	292.080	-1.700	0.800																			1580071327.0	11.70	21.67
26/01/2020 20:42:08	26012020	260120	204208	292.080	12.194353	-56.170353	292.150	0.140	-0.070	0.530	292.080	-1.500	0.900																			1580071328.0	11.65	21.58
26/01/2020 20:42:09	26012020	260120	204209	292.110	12.194373	-56.170403	292.180	-0.110	0.120	0.310	292.110	-1.300	0.600																			1580071329.0	11.58	21.45
26/01/2020 20:42:10	26012020	260120	204210	292.140	12.194392	-56.170457	292.220	-0.290	0.080	0.000	292.140	-1.300	0.300																			1580071330.0	11.62	21.52
26/01/2020 20:42:11	26012020	260120	204211	292.170	12.194408	-56.170508	292.230	-0.260	-0.150	-0.220	292.170	-1.600	0.100																			1580071331.0	11.82	21.89
26/01/2020 20:42:12	26012020	260120	204212	292.190	12.194425	-56.170563	292.250	-0.040	-0.400	-0.310	292.190	-1.800	0.000																			1580071332.0	12.00	22.22
26/01/2020 20:42:13	26012020	260120	204213	292.190	12.194443	-56.170617	292.250	0.180	-0.460	-0.130	292.190	-1.900	0.200																			1580071333.0	12.02	22.26
26/01/2020 20:42:14	26012020	260120	204214	292.140	12.194463	-56.170668	292.200	0.250	-0.340	0.150	292.140	-1.800	0.500																			1580071334.0	11.80	21.85
26/01/2020 20:42:15	26012020	260120	204215	292.070	12.194485	-56.170720	292.100	0.150	-0.240	0.260	292.050	-1.600	0.600																			1580071335.0	11.60	21.48
26/01/2020 20:42:16	26012020	260120	204216	291.970	12.194505	-56.170770	292.020	-0.010	-0.260	0.090	291.970	-1.700	0.400																			1580071336.0	11.59	21.46
26/01/2020 20:42:17	26012020	260120	204217	291.960	12.194523	-56.170822	292.030	-0.100	-0.380	-0.270	291.960	-1.800	0.100																			1580071337.0	11.73	21.72
26/01/2020 20:42:18	26012020	260120	204218	292.060	12.194540	-56.170877	292.120	-0.100	-0.480	-0.530	292.060	-1.900	-0.200																			1580071338.0	11.88	22.00
26/01/2020 20:42:19	26012020	260120	204219	292.180	12.194557	-56.170930	292.250	-0.130	-0.380	-0.520	292.180	-1.800	-0.200																			1580071339.0	11.88	22.00
26/01/2020 20:42:20	26012020	260120	204220	292.240	12.194575	-56.170982	292.310	-0.260	-0.080	-0.250	292.240	-1.500	0.100																			1580071340.0	11.68	21.63
26/01/2020 20:42:21	26012020	260120	204221	292.140	12.194593	-56.171032	292.200	-0.440	0.230	0.080	292.140	-1.200	0.400																			1580071341.0	11.40	21.11
26/01/2020 20:42:22	26012020	260120	204222	292.000	12.194612	-56.171082	292.070	-0.460	0.180	0.280	292.000	-1.200	0.600																			1580071342.0	11.29	20.91
26/01/2020 20:42:23	26012020	260120	204223	291.970	12.194630	-56.171133	292.050	-0.130	-0.340	0.310	291.970	-1.800	0.600																			1580071343.0	11.62	21.52
26/01/2020 20:42:24	26012020	260120	204224	292.060	12.194650	-56.171187	292.140	0.460	-0.920	0.270	292.060	-2.300	0.600																			1580071344.0	12.17	22.54
26/01/2020 20:42:25	26012020	260120	204225	292.100	12.194670	-56.171242	292.160	0.910	-0.970	0.300	292.100	-2.400	0.600																			1580071345.0	12.35	22.87
26/01/2020 20:42:26	26012020	260120	204226	292.010	12.194692	-56.171293	292.060	0.890	-0.460	0.340	292.010	-1.900	0.700																			1580071346.0	11.91	22.06
26/01/2020 20:42:27	26012020	260120	204227	291.860	12.194712	-56.171343	291.910	0.470	0.120	0.260	291.860	-1.300	0.600																			1580071347.0	11.31	20.95
26/01/2020 20:42:28	26012020	260120	204228	291.710	12.194732	-56.171393	291.740	-0.020	0.330	0.060	291.710	-1.100	0.400																			1580071348.0	11.19	20.72
26/01/2020 20:42:29	26012020	260120	204229	291.590	12.194750	-56.171443	291.630	-0.400	0.110	-0.250	291.590	-1.300	0.100																			1580071349.0	11.52	21.34
26/01/2020 20:42:30	26012020	260120	204230	291.580	12.194767	-56.171497	291.640	-0.580	-0.340	-0.550	291.580	-1.800	-0.200																			1580071350.0	11.91	22.06
26/01/2020 20:42:31	26012020	260120	204231	291.700	12.194783	-56.171552	291.750	-0.570	-0.740	-0.710	291.700	-2.100	-0.400																			1580071351.0	12.12	22.45
26/01/2020 20:42:32	26012020	260120	204232	291.840	12.194800	-56.171607	291.900	-0.440	-0.830	-0.550	291.840	-2.200	-0.200																			1580071352.0	12.09	22.39
26/01/2020 20:42:33	26012020	260120	204233	291.940	12.194817	-56.171660	292.020	-0.240	-0.600	-0.110	291.940	-2.000	0.200																			1580071353.0	11.85	21.95
26/01/2020 20:42:34	26012020	260120	204234	292.010	12.194837	-56.171710	292.100	-0.080	-0.210	0.360	292.010	-1.600	0.700																			1580071354.0	11.58	21.45
26/01/2020 20:42:35	26012020	260120	204235	292.060	12.194857	-56.171760	292.140	0.030	0.090	0.640	292.060	-1.300	1.000																			1580071355.0	11.46	21.22
26/01/2020 20:42:36	26012020	260120	204236	292.060	12.194878	-56.171812	292.120	0.130	0.130	0.610	292.060	-1.300	0.900																			1580071356.0	11.54	21.37
26/01/2020 20:42:37	26012020	260120	204237	292.020	12.194897	-56.171863	292.080	0.250	-0.100	0.370	292.020	-1.500	0.700																			1580071357.0	11.78	21.82
26/01/2020 20:42:38	26012020	260120	204238	292.020	12.194917	-56.171917	292.080	0.360	-0.400	0.070	292.020	-1.800	0.400																			1580071358.0	12.05	22.32
26/01/2020 20:42:39	26012020	260120	204239	292.000	12.194935	-56.171972	292.050	0.360	-0.460	-0.100	292.000	-1.900	0.200																			1580071359.0	12.13	22.46
26/01/2020 20:42:40	26012020	260120	204240	291.860	12.194953	-56.172023	291.920	0.210	-0.150	-0.040	291.860	-1.600	0.300																			1580071360.0	11.85	21.95
26/01/2020 20:42:41	26012020	260120	204241	291.600	12.194972	-56.172075	291.640	-0.020	0.190	0.130	291.600	-1.200	0.500																			1580071361.0	11.39	21.09
26/01/2020 20:42:42	26012020	260120	204242	291.300	12.194990	-56.172125	291.350	-0.190	0.180	0.250	291.300	-1.200	0.600																			1580071362.0	11.25	20.84
26/01/2020 20:42:43	26012020	260120	204243	291.100	12.195008	-56.172175	291.130	-0.170	-0.230	0.260	291.100	-1.600	0.600																			1580071363.0	11.53	21.35
26/01/2020 20:42:44	26012020	260120	204244	291.000	12.195027	-56.172228	291.040	0.050	-0.730	0.170	291.000	-2.100	0.500																			1580071364.0	11.92	22.08
26/01/2020 20:42:45	26012020	260120	204245	291.000	12.195045	-56.172282	291.060	0.300	-1.010	0.080	291.000	-2.400	0.400																			1580071365.0	12.07	22.35
26/01/2020 20:42:46	26012020	260120	204246	291.120	12.195063	-56.172335	291.200	0.380	-0.950	-0.010	291.120	-2.400	0.300																			1580071366.0	11.93	22.09
26/01/2020 20:42:47	26012020	260120	204247	291.350	12.195082	-56.172387	291.440	0.230	-0.630	-0.100	291.350	-2.000	0.200																			1580071367.0	11.70	21.67
26/01/2020 20:42:48	26012020	260120	204248	291.610	12.195102	-56.172438	291.690	-0.110	-0.210	-0.200	291.610	-1.600	0.100																			1580071368.0	11.54	21.37
26/01/2020 20:42:49	26012020	260120	204249	291.820	12.195118	-56.172490	291.880	-0.490	0.090	-0.270	291.820	-1.300	0.100																			1580071369.0	11.49	21.28
26/01/2020 20:42:50	26012020	260120	204250	291.990	12.195137	-56.172542	292.070	-0.680	0.110	-0.290	291.990	-1.300	0.000																			1580071370.0	11.66	21.59
26/01/2020 20:42:51	26012020	260120	204251	292.130	12.195153	-56.172597	292.200	-0.520	-0.110	-0.180	292.130	-1.500	0.200																			1580071371.0	11.97	22.17
26/01/2020 20:42:52	26012020	260120	204252	292.120	12.195172	-56.172650	292.170	-0.090	-0.340	0.100	292.120	-1.800	0.400																			1580071372.0	12.23	22.65
26/01/2020 20:42:53	26012020	260120	204253	291.850	12.195192	-56.172705	291.900	0.300	-0.260	0.530	291.850	-1.700	0.900																			1580071373.0	12.26	22.71
26/01/2020 20:42:54	26012020	260120	204254	291.360	12.195212	-56.172757	291.400	0.380	0.160	0.830	291.360	-1.300	1.200																			1580071374.0	11.89	22.02
26/01/2020 20:42:55	26012020	260120	204255	290.860	12.195232	-56.172807	290.890	0.160	0.510	0.740	290.860	-0.900	1.100																			1580071375.0	11.33	20.98
26/01/2020 20:42:56	26012020	260120	204256	290.520	12.195248	-56.172857	290.580	-0.080	0.360	0.290	290.520	-1.100	0.600																			1580071376.0	11.13	20.61
26/01/2020 20:42:57	26012020	260120	204257	290.450	12.195265	-56.172908	290.490	-0.090	-0.290	-0.200	290.450	-1.700	0.100																			1580071377.0	11.48	21.26
26/01/2020 20:42:58	26012020	260120	204258	290.560	12.195280	-56.172963	290.620	0.150	-1.000	-0.520	290.560	-2.400	-0.200																			1580071378.0	11.94	22.11
26/01/2020 20:42:59	26012020	260120	204259	290.820	12.195298	-56.173017	290.900	0.450	-1.350	-0.510	290.820	-2.800	-0.200	1014.10	26.30	26.20	21.10	21.10	112.00	73.00	73.00	391.00	26.90	38.00	4.90	57.00	3.70	9093	3500.00	27.60	27.60	1580071379.0	12.08	22.37
26/01/2020 20:43:00	26012020	260120	204300	291.150	12.195317	-56.173070	291.240	0.550	-1.120	-0.210	291.150	-2.500	0.100																			1580071380.0	11.86	21.96
26/01/2020 20:43:01	26012020	260120	204301	291.440	12.195337	-56.173120	291.520	0.300	-0.410	0.180	291.440	-1.800	0.500																			1580071381.0	11.45	21.21
26/01/2020 20:43:02	26012020	260120	204302	291.620	12.195355	-56.173168	291.700	-0.210	0.320	0.390	291.620	-1.100	0.700																			1580071382.0	11.08	20.52
26/01/2020 20:43:03	26012020	260120	204303	291.690	12.195373	-56.173217	291.770	-0.630	0.560	0.290	291.690	-0.900	0.600																			1580071383.0	11.04	20.45
26/01/2020 20:43:04	26012020	260120	204304	291.790	12.195390	-56.173270	291.850	-0.660	0.100	0.000	291.790	-1.300	0.300																			1580071384.0	11.52	21.34
26/01/2020 20:43:05	26012020	260120	204305	291.940	12.195407	-56.173325	292.030	-0.250	-0.710	-0.260	291.940	-2.100	0.100																			1580071385.0	12.25	22.69
26/01/2020 20:43:06	26012020	260120	204306	292.130	12.195423	-56.173382	292.210	0.290	-1.210	-0.330	292.130	-2.600	0.000																			1580071386.0	12.71	23.54
26/01/2020 20:43:07	26012020	260120	204307	292.230	12.195443	-56.173438	292.290	0.530	-0.910	-0.110	292.230	-2.300	0.200																			1580071387.0	12.48	23.11
26/01/2020 20:43:08	26012020	260120	204308	292.090	12.195463	-56.173490	292.130	0.300	-0.020	0.250	292.090	-1.400	0.600																			1580071388.0	11.73	21.72
26/01/2020 20:43:09	26012020	260120	204309	291.730	12.195483	-56.173538	291.750	-0.180	0.810	0.400	291.730	-0.600	0.700																			1580071389.0	11.03	20.43
26/01/2020 20:43:10	26012020	260120	204310	291.330	12.195500	-56.173587	291.360	-0.530	0.960	0.160	291.330	-0.500	0.500																			1580071390.0	10.92	20.22
26/01/2020 20:43:11	26012020	260120	204311	291.100	12.195517	-56.173637	291.140	-0.530	0.330	-0.270	291.100	-1.100	0.100																			1580071391.0	11.44	21.19
26/01/2020 20:43:12	26012020	260120	204312	291.040	12.195533	-56.173692	291.090	-0.230	-0.570	-0.550	291.040	-2.000	-0.200																			1580071392.0	12.12	22.45
26/01/2020 20:43:13	26012020	260120	204313	291.080	12.195550	-56.173748	291.130	0.110	-1.050	-0.480	291.080	-2.500	-0.100																			1580071393.0	12.32	22.82
26/01/2020 20:43:14	26012020	260120	204314	291.140	12.195568	-56.173802	291.210	0.310	-0.850	-0.160	291.140	-2.300	0.200																			1580071394.0	11.85	21.95
26/01/2020 20:43:15	26012020	260120	204315	291.300	12.195587	-56.173850	291.390	0.330	-0.390	0.130	291.300	-1.800	0.500																			1580071395.0	11.14	20.63
26/01/2020 20:43:16	26012020	260120	204316	291.560	12.195605	-56.173898	291.650	0.300	-0.250	0.210	291.560	-1.700	0.500																			1580071396.0	10.95	20.28
26/01/2020 20:43:17	26012020	260120	204317	291.890	12.195625	-56.173948	291.970	0.330	-0.490	0.090	291.890	-1.900	0.400																			1580071397.0	11.40	21.11
26/01/2020 20:43:18	26012020	260120	204318	292.170	12.195645	-56.174002	292.240	0.380	-0.700	-0.030	292.170	-2.100	0.300																			1580071398.0	11.99	22.21
26/01/2020 20:43:19	26012020	260120	204319	292.270	12.195665	-56.174055	292.330	0.300	-0.480	0.010	292.270	-1.900	0.300																			1580071399.0	12.12	22.45
26/01/2020 20:43:20	26012020	260120	204320	292.110	12.195683	-56.174107	292.150	0.010	0.050	0.180	292.110	-1.400	0.500																			1580071400.0	11.75	21.76
26/01/2020 20:43:21	26012020	260120	204321	291.740	12.195702	-56.174158	291.770	-0.380	0.450	0.340	291.740	-1.000	0.700																			1580071401.0	11.37	21.06
26/01/2020 20:43:22	26012020	260120	204322	291.360	12.195720	-56.174208	291.400	-0.620	0.400	0.370	291.360	-1.000	0.700																			1580071402.0	11.39	21.09
26/01/2020 20:43:23	26012020	260120	204323	291.130	12.195737	-56.174262	291.190	-0.560	-0.090	0.270	291.130	-1.500	0.600																			1580071403.0	11.72	21.71
26/01/2020 20:43:24	26012020	260120	204324	291.060	12.195753	-56.174315	291.120	-0.280	-0.690	0.110	291.060	-2.100	0.400																			1580071404.0	12.11	22.43
26/01/2020 20:43:25	26012020	260120	204325	291.100	12.195772	-56.174370	291.180	0.010	-0.990	0.020	291.100	-2.400	0.400																			1580071405.0	12.20	22.59
26/01/2020 20:43:26	26012020	260120	204326	291.240	12.195788	-56.174423	291.340	0.140	-0.830	0.040	291.240	-2.200	0.400																			1580071406.0	11.90	22.04
26/01/2020 20:43:27	26012020	260120	204327	291.460	12.195807	-56.174475	291.560	0.130	-0.420	0.150	291.460	-1.800	0.500																			1580071407.0	11.47	21.24
26/01/2020 20:43:28	26012020	260120	204328	291.710	12.195825	-56.174525	291.810	0.090	-0.050	0.260	291.710	-1.500	0.600																			1580071408.0	11.27	20.87
26/01/2020 20:43:29	26012020	260120	204329	291.940	12.195843	-56.174575	292.020	0.080	0.140	0.340	291.940	-1.300	0.700																			1580071409.0	11.40	21.11
26/01/2020 20:43:30	26012020	260120	204330	292.080	12.195862	-56.174627	292.150	0.060	0.240	0.380	292.080	-1.200	0.700																			1580071410.0	11.59	21.46
26/01/2020 20:43:31	26012020	260120	204331	292.080	12.195880	-56.174678	292.140	0.020	0.310	0.450	292.070	-1.100	0.800																			1580071411.0	11.61	21.50
26/01/2020 20:43:32	26012020	260120	204332	291.940	12.195898	-56.174730	292.000	0.020	0.200	0.590	291.940	-1.200	0.900																			1580071412.0	11.51	21.32
26/01/2020 20:43:33	26012020	260120	204333	291.760	12.195917	-56.174782	291.820	0.170	-0.170	0.720	291.760	-1.600	1.100																			1580071413.0	11.55	21.39
26/01/2020 20:43:34	26012020	260120	204334	291.640	12.195937	-56.174833	291.710	0.420	-0.700	0.740	291.640	-2.100	1.100																			1580071414.0	11.78	21.82
26/01/2020 20:43:35	26012020	260120	204335	291.630	12.195957	-56.174887	291.700	0.600	-1.060	0.570	291.630	-2.500	0.900																			1580071415.0	12.00	22.22
26/01/2020 20:43:36	26012020	260120	204336	291.670	12.195975	-56.174938	291.740	0.480	-1.020	0.230	291.670	-2.400	0.600																			1580071416.0	11.94	22.11
26/01/2020 20:43:37	26012020	260120	204337	291.750	12.195993	-56.174990	291.810	0.040	-0.620	-0.210	291.750	-2.000	0.100																			1580071417.0	11.62	21.52
26/01/2020 20:43:38	26012020	260120	204338	291.850	12.196010	-56.175042	291.920	-0.490	-0.160	-0.610	291.850	-1.600	-0.300																			1580071418.0	11.32	20.96
26/01/2020 20:43:39	26012020	260120	204339	292.010	12.196025	-56.175093	292.070	-0.830	0.020	-0.900	292.010	-1.400	-0.600																			1580071419.0	11.30	20.93
26/01/2020 20:43:40	26012020	260120	204340	292.220	12.196040	-56.175145	292.290	-0.820	-0.210	-1.000	292.220	-1.600	-0.700																			1580071420.0	11.65	21.58
26/01/2020 20:43:41	26012020	260120	204341	292.420	12.196057	-56.175200	292.490	-0.530	-0.530	-0.820	292.420	-2.000	-0.500																			1580071421.0	12.13	22.46
26/01/2020 20:43:42	26012020	260120	204342	292.490	12.196075	-56.175255	292.570	-0.180	-0.540	-0.410	292.490	-2.000	-0.100																			1580071422.0	12.28	22.74
26/01/2020 20:43:43	26012020	260120	204343	292.400	12.196095	-56.175308	292.490	0.030	-0.090	0.100	292.400	-1.500	0.400																			1580071423.0	11.98	22.19
26/01/2020 20:43:44	26012020	260120	204344	292.230	12.196115	-56.175358	292.310	0.100	0.480	0.550	292.230	-0.900	0.900																			1580071424.0	11.44	21.19
26/01/2020 20:43:45	26012020	260120	204345	292.050	12.196133	-56.175407	292.130	0.170	0.670	0.690	292.050	-0.800	1.000																			1580071425.0	11.18	20.71
26/01/2020 20:43:46	26012020	260120	204346	291.870	12.196153	-56.175458	291.930	0.370	0.330	0.610	291.870	-1.100	0.900																			1580071426.0	11.41	21.13
26/01/2020 20:43:47	26012020	260120	204347	291.690	12.196173	-56.175510	291.750	0.620	-0.290	0.470	291.690	-1.700	0.800																			1580071427.0	11.87	21.98
26/01/2020 20:43:48	26012020	260120	204348	291.620	12.196195	-56.175563	291.680	0.690	-0.790	0.250	291.620	-2.200	0.600																			1580071428.0	12.06	22.34
26/01/2020 20:43:49	26012020	260120	204349	291.720	12.196215	-56.175615	291.780	0.510	-0.940	-0.060	291.720	-2.400	0.300																			1580071429.0	11.90	22.04
26/01/2020 20:43:50	26012020	260120	204350	291.920	12.196233	-56.175667	291.990	0.130	-0.780	-0.350	291.920	-2.200	-0.000																			1580071430.0	11.57	21.43
26/01/2020 20:43:51	26012020	260120	204351	292.130	12.196250	-56.175717	292.200	-0.300	-0.510	-0.560	292.130	-1.900	-0.200																			1580071431.0	11.34	21.00
26/01/2020 20:43:52	26012020	260120	204352	292.300	12.196267	-56.175768	292.380	-0.660	-0.330	-0.640	292.300	-1.800	-0.300																			1580071432.0	11.35	21.02
26/01/2020 20:43:53	26012020	260120	204353	292.440	12.196283	-56.175820	292.530	-0.790	-0.320	-0.570	292.440	-1.800	-0.200																			1580071433.0	11.57	21.43
26/01/2020 20:43:54	26012020	260120	204354	292.570	12.196300	-56.175873	292.670	-0.620	-0.370	-0.350	292.570	-1.800	0.000																			1580071434.0	11.85	21.95
26/01/2020 20:43:55	26012020	260120	204355	292.610	12.196317	-56.175927	292.700	-0.220	-0.330	0.020	292.610	-1.800	0.400																			1580071435.0	11.89	22.02
26/01/2020 20:43:56	26012020	260120	204356	292.530	12.196337	-56.175980	292.620	0.220	-0.190	0.400	292.530	-1.600	0.700																			1580071436.0	11.89	22.02
26/01/2020 20:43:57	26012020	260120	204357	292.390	12.196357	-56.176032	292.470	0.470	-0.070	0.690	292.390	-1.500	1.000																			1580071437.0	11.77	21.80
26/01/2020 20:43:58	26012020	260120	204358	292.210	12.196378	-56.176083	292.270	0.460	-0.000	0.760	292.210	-1.400	1.100																			1580071438.0	11.72	21.71
26/01/2020 20:43:59	26012020	260120	204359	292.030	12.196400	-56.176133	292.090	0.240	-0.020	0.560	292.030	-1.400	0.900	1014.10	26.30	26.20	21.20	21.10	111.00	73.00	73.00	391.00	26.90	32.00	5.20	52.00	3.20	8921	3560.00	27.60	27.60	1580071439.0	11.69	21.65
26/01/2020 20:44:00	26012020	260120	204400	291.910	12.196420	-56.176185	291.970	-0.020	-0.080	0.200	291.910	-1.500	0.500																			1580071440.0	11.67	21.61
26/01/2020 20:44:01	26012020	260120	204401	291.890	12.196438	-56.176237	291.940	-0.210	-0.220	-0.180	291.890	-1.600	0.200																			1580071441.0	11.67	21.61
26/01/2020 20:44:02	26012020	260120	204402	292.000	12.196455	-56.176290	292.060	-0.260	-0.380	-0.460	292.000	-1.800	-0.100																			1580071442.0	11.71	21.69
26/01/2020 20:44:03	26012020	260120	204403	292.210	12.196472	-56.176342	292.290	-0.190	-0.480	-0.540	292.210	-1.900	-0.200																			1580071443.0	11.75	21.76
26/01/2020 20:44:04	26012020	260120	204404	292.450	12.196490	-56.176395	292.550	-0.040	-0.510	-0.380	292.450	-1.900	-0.000																			1580071444.0	11.74	21.74
26/01/2020 20:44:05	26012020	260120	204405	292.640	12.196508	-56.176447	292.750	0.150	-0.460	-0.060	292.640	-1.900	0.300																			1580071445.0	11.76	21.78
26/01/2020 20:44:06	26012020	260120	204406	292.690	12.196530	-56.176498	292.790	0.280	-0.250	0.340	292.690	-1.700	0.700																			1580071446.0	11.74	21.74
26/01/2020 20:44:07	26012020	260120	204407	292.550	12.196550	-56.176548	292.620	0.260	0.060	0.610	292.550	-1.400	0.900																			1580071447.0	11.61	21.50
26/01/2020 20:44:08	26012020	260120	204408	292.260	12.196570	-56.176598	292.320	0.050	0.300	0.590	292.260	-1.100	0.900																			1580071448.0	11.40	21.11
26/01/2020 20:44:09	26012020	260120	204409	291.960	12.196588	-56.176648	292.010	-0.210	0.190	0.300	291.960	-1.300	0.600																			1580071449.0	11.32	20.96
26/01/2020 20:44:10	26012020	260120	204410	291.780	12.196607	-56.176700	291.830	-0.340	-0.360	-0.110	291.780	-1.800	0.200																			1580071450.0	11.55	21.39
26/01/2020 20:44:11	26012020	260120	204411	291.820	12.196623	-56.176755	291.880	-0.230	-1.090	-0.440	291.820	-2.500	-0.100																			1580071451.0	11.98	22.19
26/01/2020 20:44:12	26012020	260120	204412	292.060	12.196640	-56.176810	292.140	0.080	-1.500	-0.560	292.060	-2.900	-0.200																			1580071452.0	12.28	22.74
26/01/2020 20:44:13	26012020	260120	204413	292.360	12.196658	-56.176865	292.460	0.370	-1.230	-0.340	292.360	-2.600	-0.000																			1580071453.0	12.16	22.52
26/01/2020 20:44:14	26012020	260120	204414	292.580	12.196680	-56.176915	292.680	0.390	-0.410	0.070	292.580	-1.800	0.400																			1580071454.0	11.68	21.63
26/01/2020 20:44:15	26012020	260120	204415	292.630	12.196700	-56.176965	292.710	0.090	0.460	0.460	292.630	-1.000	0.800																			1580071455.0	11.25	20.84
26/01/2020 20:44:16	26012020	260120	204416	292.520	12.196720	-56.177013	292.600	-0.310	0.950	0.640	292.520	-0.500	1.000																			1580071456.0	11.18	20.71
26/01/2020 20:44:17	26012020	260120	204417	292.300	12.196740	-56.177063	292.370	-0.520	0.840	0.510	292.300	-0.600	0.800																			1580071457.0	11.44	21.19
26/01/2020 20:44:18	26012020	260120	204418	292.080	12.196758	-56.177117	292.150	-0.380	0.220	0.270	292.080	-1.200	0.600																			1580071458.0	11.88	22.00
26/01/2020 20:44:19	26012020	260120	204419	291.900	12.196777	-56.177172	291.970	-0.010	-0.490	0.070	291.900	-1.900	0.400																			1580071459.0	12.28	22.74
26/01/2020 20:44:20	26012020	260120	204420	291.770	12.196795	-56.177225	291.840	0.250	-0.780	0.010	291.770	-2.200	0.400																			1580071460.0	12.29	22.76
26/01/2020 20:44:21	26012020	260120	204421	291.720	12.196815	-56.177278	291.790	0.240	-0.590	0.090	291.710	-2.000	0.400																			1580071461.0	11.78	21.82
26/01/2020 20:44:22	26012020	260120	204422	291.760	12.196833	-56.177328	291.850	0.110	-0.350	0.200	291.760	-1.800	0.500																			1580071462.0	11.21	20.76
26/01/2020 20:44:23	26012020	260120	204423	291.940	12.196852	-56.177377	292.030	0.090	-0.450	0.230	291.940	-1.900	0.600																			1580071463.0	11.16	20.67
26/01/2020 20:44:24	26012020	260120	204424	292.230	12.196872	-56.177428	292.330	0.230	-0.850	0.150	292.230	-2.300	0.500																			1580071464.0	11.65	21.58
26/01/2020 20:44:25	26012020	260120	204425	292.490	12.196890	-56.177482	292.570	0.350	-0.950	0.130	292.490	-2.400	0.500																			1580071465.0	12.16	22.52
26/01/2020 20:44:26	26012020	260120	204426	292.510	12.196910	-56.177535	292.570	0.220	-0.410	0.340	292.510	-1.800	0.700																			1580071466.0	12.02	22.26
26/01/2020 20:44:27	26012020	260120	204427	292.280	12.196928	-56.177587	292.340	-0.130	0.410	0.670	292.280	-1.000	1.000																			1580071467.0	11.36	21.04
26/01/2020 20:44:28	26012020	260120	204428	291.950	12.196947	-56.177635	292.000	-0.420	0.750	0.780	291.950	-0.700	1.100																			1580071468.0	10.96	20.30
26/01/2020 20:44:29	26012020	260120	204429	291.690	12.196965	-56.177685	291.730	-0.380	0.220	0.570	291.690	-1.200	0.900																			1580071469.0	11.36	21.04
26/01/2020 20:44:30	26012020	260120	204430	291.560	12.196983	-56.177740	291.600	-0.080	-0.680	0.260	291.560	-2.100	0.600																			1580071470.0	12.23	22.65
26/01/2020 20:44:31	26012020	260120	204431	291.570	12.197003	-56.177795	291.610	0.190	-1.140	0.060	291.570	-2.600	0.400																			1580071471.0	12.63	23.39
26/01/2020 20:44:32	26012020	260120	204432	291.630	12.197022	-56.177850	291.690	0.210	-0.890	-0.010	291.630	-2.300	0.300																			1580071472.0	12.20	22.59
26/01/2020 20:44:33	26012020	260120	204433	291.710	12.197040	-56.177902	291.770	0.030	-0.320	-0.000	291.710	-1.700	0.300																			1580071473.0	11.52	21.34
26/01/2020 20:44:34	26012020	260120	204434	291.740	12.197058	-56.177950	291.810	-0.150	0.100	0.070	291.740	-1.300	0.400																			1580071474.0	11.25	20.84
26/01/2020 20:44:35	26012020	260120	204435	291.730	12.197078	-56.178002	291.790	-0.240	0.270	0.240	291.730	-1.200	0.600																			1580071475.0	11.44	21.19
26/01/2020 20:44:36	26012020	260120	204436	291.670	12.197097	-56.178053	291.730	-0.240	0.230	0.400	291.670	-1.200	0.700																			1580071476.0	11.66	21.59
26/01/2020 20:44:37	26012020	260120	204437	291.600	12.197115	-56.178105	291.680	-0.150	-0.010	0.430	291.600	-1.400	0.800																			1580071477.0	11.76	21.78
26/01/2020 20:44:38	26012020	260120	204438	291.620	12.197133	-56.178158	291.700	0.040	-0.400	0.240	291.620	-1.800	0.600																			1580071478.0	11.88	22.00
26/01/2020 20:44:39	26012020	260120	204439	291.690	12.197152	-56.178212	291.770	0.240	-0.670	0.040	291.690	-2.100	0.400																			1580071479.0	12.04	22.30
26/01/2020 20:44:40	26012020	260120	204440	291.690	12.197168	-56.178265	291.760	0.310	-0.510	0.090	291.690	-1.900	0.400																			1580071480.0	11.95	22.13
26/01/2020 20:44:41	26012020	260120	204441	291.600	12.197187	-56.178317	291.660	0.220	-0.040	0.410	291.600	-1.500	0.800																			1580071481.0	11.48	21.26
26/01/2020 20:44:42	26012020	260120	204442	291.460	12.197207	-56.178365	291.540	0.080	0.180	0.640	291.460	-1.200	1.000																			1580071482.0	11.11	20.58
26/01/2020 20:44:43	26012020	260120	204443	291.360	12.197227	-56.178415	291.430	0.030	-0.130	0.560	291.360	-1.600	0.900																			1580071483.0	11.31	20.95
26/01/2020 20:44:44	26012020	260120	204444	291.320	12.197245	-56.178468	291.390	0.100	-0.710	0.280	291.320	-2.100	0.600																			1580071484.0	11.90	22.04
26/01/2020 20:44:45	26012020	260120	204445	291.320	12.197263	-56.178523	291.390	0.170	-1.040	0.040	291.320	-2.500	0.400																			1580071485.0	12.25	22.69
26/01/2020 20:44:46	26012020	260120	204446	291.360	12.197282	-56.178577	291.440	0.120	-0.920	-0.070	291.360	-2.300	0.300																			1580071486.0	12.10	22.41
26/01/2020 20:44:47	26012020	260120	204447	291.400	12.197300	-56.178628	291.480	-0.040	-0.480	-0.010	291.400	-1.900	0.300																			1580071487.0	11.72	21.71
26/01/2020 20:44:48	26012020	260120	204448	291.380	12.197318	-56.178680	291.460	-0.220	-0.020	0.170	291.380	-1.400	0.500																			1580071488.0	11.47	21.24
26/01/2020 20:44:49	26012020	260120	204449	291.330	12.197337	-56.178732	291.400	-0.320	0.230	0.350	291.330	-1.200	0.700																			1580071489.0	11.49	21.28
26/01/2020 20:44:50	26012020	260120	204450	291.280	12.197355	-56.178783	291.350	-0.370	0.220	0.420	291.280	-1.200	0.800																			1580071490.0	11.69	21.65
26/01/2020 20:44:51	26012020	260120	204451	291.270	12.197375	-56.178837	291.340	-0.380	0.020	0.350	291.270	-1.400	0.700																			1580071491.0	11.92	22.08
26/01/2020 20:44:52	26012020	260120	204452	291.290	12.197392	-56.178890	291.360	-0.320	-0.180	0.130	291.290	-1.600	0.500																			1580071492.0	12.02	22.26
26/01/2020 20:44:53	26012020	260120	204453	291.340	12.197408	-56.178943	291.400	-0.140	-0.260	-0.060	291.340	-1.700	0.300																			1580071493.0	11.97	22.17
26/01/2020 20:44:54	26012020	260120	204454	291.330	12.197425	-56.178997	291.380	0.120	-0.250	-0.030	291.330	-1.700	0.300																			1580071494.0	11.81	21.87
26/01/2020 20:44:55	26012020	260120	204455	291.250	12.197443	-56.179050	291.320	0.370	-0.240	0.250	291.250	-1.700	0.600																			1580071495.0	11.71	21.69
26/01/2020 20:44:56	26012020	260120	204456	291.120	12.197463	-56.179100	291.170	0.500	-0.220	0.580	291.120	-1.600	0.900																			1580071496.0	11.67	21.61
26/01/2020 20:44:57	26012020	260120	204457	290.940	12.197483	-56.179152	291.000	0.450	-0.200	0.740	290.940	-1.600	1.100																			1580071497.0	11.62	21.52
26/01/2020 20:44:58	26012020	260120	204458	290.840	12.197503	-56.179202	290.900	0.280	-0.270	0.590	290.840	-1.700	0.900																			1580071498.0	11.53	21.35
26/01/2020 20:44:59	26012020	260120	204459	290.890	12.197522	-56.179253	290.960	0.100	-0.490	0.230	290.890	-1.900	0.600	1014.10	26.30	26.20	21.10	21.00	110.00	73.00	73.00	391.00	26.90	32.00	5.00	56.00	3.20	8754	3479.00	27.70	27.60	1580071499.0	11.57	21.43
26/01/2020 20:45:00	26012020	260120	204500	291.040	12.197538	-56.179307	291.110	0.000	-0.780	-0.060	291.040	-2.200	0.300																			1580071500.0	11.76	21.78
26/01/2020 20:45:01	26012020	260120	204501	291.170	12.197557	-56.179360	291.250	-0.040	-0.910	-0.150	291.170	-2.300	0.200																			1580071501.0	11.98	22.19
26/01/2020 20:45:02	26012020	260120	204502	291.240	12.197573	-56.179413	291.310	-0.090	-0.700	-0.050	291.240	-2.100	0.300																			1580071502.0	11.97	22.17
26/01/2020 20:45:03	26012020	260120	204503	291.270	12.197592	-56.179467	291.330	-0.220	-0.210	0.130	291.270	-1.600	0.500																			1580071503.0	11.75	21.76
26/01/2020 20:45:04	26012020	260120	204504	291.270	12.197610	-56.179518	291.350	-0.370	0.240	0.290	291.270	-1.200	0.600																			1580071504.0	11.53	21.35
26/01/2020 20:45:05	26012020	260120	204505	291.300	12.197627	-56.179568	291.370	-0.410	0.320	0.350	291.300	-1.100	0.700																			1580071505.0	11.54	21.37
26/01/2020 20:45:06	26012020	260120	204506	291.350	12.197645	-56.179622	291.410	-0.260	0.050	0.290	291.350	-1.400	0.600																			1580071506.0	11.87	21.98
26/01/2020 20:45:07	26012020	260120	204507	291.370	12.197663	-56.179677	291.430	-0.010	-0.270	0.160	291.370	-1.700	0.500																			1580071507.0	12.18	22.56
26/01/2020 20:45:08	26012020	260120	204508	291.330	12.197682	-56.179732	291.370	0.160	-0.340	0.090	291.330	-1.700	0.400																			1580071508.0	12.17	22.54
26/01/2020 20:45:09	26012020	260120	204509	291.210	12.197700	-56.179783	291.250	0.170	-0.150	0.130	291.210	-1.600	0.500																			1580071509.0	11.81	21.87
26/01/2020 20:45:10	26012020	260120	204510	291.060	12.197718	-56.179835	291.110	0.070	0.020	0.160	291.060	-1.400	0.500																			1580071510.0	11.43	21.17
26/01/2020 20:45:11	26012020	260120	204511	290.940	12.197737	-56.179885	290.980	-0.020	-0.100	0.100	290.940	-1.500	0.400																			1580071511.0	11.37	21.06
26/01/2020 20:45:12	26012020	260120	204512	290.910	12.197755	-56.179937	290.980	0.000	-0.510	-0.120	290.910	-1.900	0.200																			1580071512.0	11.62	21.52
26/01/2020 20:45:13	26012020	260120	204513	291.090	12.197772	-56.179990	291.160	0.160	-0.980	-0.410	291.090	-2.400	-0.100																			1580071513.0	12.00	22.22
26/01/2020 20:45:14	26012020	260120	204514	291.340	12.197790	-56.180045	291.400	0.320	-1.050	-0.510	291.340	-2.500	-0.200																			1580071514.0	12.19	22.58
26/01/2020 20:45:15	26012020	260120	204515	291.510	12.197808	-56.180098	291.570	0.330	-0.580	-0.270	291.510	-2.000	0.100																			1580071515.0	11.95	22.13
26/01/2020 20:45:16	26012020	260120	204516	291.520	12.197827	-56.180150	291.570	0.100	0.140	0.120	291.520	-1.300	0.500																			1580071516.0	11.47	21.24
26/01/2020 20:45:17	26012020	260120	204517	291.350	12.197847	-56.180198	291.410	-0.260	0.640	0.440	291.350	-0.800	0.800																			1580071517.0	11.20	20.74
26/01/2020 20:45:18	26012020	260120	204518	291.130	12.197865	-56.180248	291.180	-0.500	0.560	0.500	291.130	-0.900	0.800																			1580071518.0	11.33	20.98
26/01/2020 20:45:19	26012020	260120	204519	291.000	12.197883	-56.180302	291.050	-0.460	-0.080	0.260	291.000	-1.500	0.600																			1580071519.0	11.81	21.87
26/01/2020 20:45:20	26012020	260120	204520	291.040	12.197902	-56.180357	291.110	-0.160	-0.850	-0.060	291.040	-2.300	0.300																			1580071520.0	12.34	22.85
26/01/2020 20:45:21	26012020	260120	204521	291.190	12.197918	-56.180413	291.280	0.170	-1.180	-0.220	291.190	-2.600	0.100																			1580071521.0	12.51	23.17
26/01/2020 20:45:22	26012020	260120	204522	291.360	12.197937	-56.180468	291.460	0.350	-0.910	-0.100	291.360	-2.300	0.300																			1580071522.0	12.11	22.43
26/01/2020 20:45:23	26012020	260120	204523	291.470	12.197955	-56.180518	291.560	0.340	-0.350	0.200	291.470	-1.800	0.600																			1580071523.0	11.58	21.45
26/01/2020 20:45:24	26012020	260120	204524	291.440	12.197975	-56.180568	291.510	0.210	0.120	0.510	291.440	-1.300	0.900																			1580071524.0	11.37	21.06
26/01/2020 20:45:25	26012020	260120	204525	291.220	12.197995	-56.180618	291.270	0.000	0.320	0.690	291.220	-1.100	1.000																			1580071525.0	11.52	21.34
26/01/2020 20:45:26	26012020	260120	204526	290.930	12.198015	-56.180670	290.980	-0.240	0.300	0.580	290.930	-1.100	0.900																			1580071526.0	11.72	21.71
26/01/2020 20:45:27	26012020	260120	204527	290.710	12.198033	-56.180723	290.780	-0.400	0.050	0.240	290.710	-1.400	0.600																			1580071527.0	11.82	21.89
26/01/2020 20:45:28	26012020	260120	204528	290.700	12.198048	-56.180778	290.770	-0.350	-0.360	-0.140	290.700	-1.800	0.200																			1580071528.0	12.03	22.28
26/01/2020 20:45:29	26012020	260120	204529	290.900	12.198065	-56.180832	290.980	-0.080	-0.740	-0.340	290.900	-2.100	0.000																			1580071529.0	12.03	22.28
26/01/2020 20:45:30	26012020	260120	204530	291.170	12.198082	-56.180887	291.270	0.230	-0.810	-0.170	291.170	-2.200	0.200																			1580071530.0	12.04	22.30
26/01/2020 20:45:31	26012020	260120	204531	291.430	12.198100	-56.180938	291.530	0.400	-0.560	0.170	291.430	-2.000	0.500																			1580071531.0	11.80	21.85
26/01/2020 20:45:32	26012020	260120	204532	291.640	12.198120	-56.180990	291.740	0.410	-0.240	0.430	291.640	-1.600	0.800																			1580071532.0	11.52	21.34
26/01/2020 20:45:33	26012020	260120	204533	291.750	12.198140	-56.181040	291.850	0.350	-0.080	0.560	291.750	-1.500	0.900																			1580071533.0	11.51	21.32
26/01/2020 20:45:34	26012020	260120	204534	291.690	12.198160	-56.181092	291.760	0.270	-0.090	0.510	291.690	-1.500	0.900																			1580071534.0	11.74	21.74
26/01/2020 20:45:35	26012020	260120	204535	291.480	12.198180	-56.181145	291.530	0.130	-0.090	0.370	291.480	-1.500	0.700																			1580071535.0	11.93	22.09
26/01/2020 20:45:36	26012020	260120	204536	291.180	12.198197	-56.181197	291.220	-0.110	-0.010	0.210	291.180	-1.400	0.600																			1580071536.0	11.88	22.00
26/01/2020 20:45:37	26012020	260120	204537	290.890	12.198215	-56.181250	290.930	-0.370	-0.030	-0.020	290.890	-1.400	0.300																			1580071537.0	11.68	21.63
26/01/2020 20:45:38	26012020	260120	204538	290.740	12.198232	-56.181302	290.790	-0.500	-0.310	-0.300	290.740	-1.700	0.000																			1580071538.0	11.69	21.65
26/01/2020 20:45:39	26012020	260120	204539	290.820	12.198248	-56.181357	290.890	-0.390	-0.750	-0.560	290.820	-2.200	-0.200																			1580071539.0	11.94	22.11
26/01/2020 20:45:40	26012020	260120	204540	291.100	12.198265	-56.181412	291.170	-0.110	-1.070	-0.640	291.100	-2.500	-0.300																			1580071540.0	12.18	22.56
26/01/2020 20:45:41	26012020	260120	204541	291.440	12.198283	-56.181465	291.520	0.190	-1.000	-0.410	291.440	-2.400	-0.100																			1580071541.0	12.19	22.58
26/01/2020 20:45:42	26012020	260120	204542	291.690	12.198303	-56.181518	291.760	0.310	-0.510	0.050	291.690	-1.900	0.400																			1580071542.0	11.97	22.17
26/01/2020 20:45:43	26012020	260120	204543	291.720	12.198323	-56.181570	291.790	0.170	0.180	0.500	291.720	-1.200	0.800																			1580071543.0	11.65	21.58
26/01/2020 20:45:44	26012020	260120	204544	291.520	12.198343	-56.181620	291.570	-0.150	0.770	0.720	291.520	-0.600	1.100																			1580071544.0	11.42	21.15
26/01/2020 20:45:45	26012020	260120	204545	291.250	12.198362	-56.181670	291.300	-0.440	0.960	0.610	291.250	-0.500	1.000																			1580071545.0	11.33	20.98
26/01/2020 20:45:46	26012020	260120	204546	291.110	12.198378	-56.181722	291.160	-0.450	0.520	0.290	291.110	-0.900	0.600																			1580071546.0	11.49	21.28
26/01/2020 20:45:47	26012020	260120	204547	291.120	12.198395	-56.181775	291.180	-0.080	-0.420	0.000	291.120	-1.900	0.400																			1580071547.0	11.94	22.11
26/01/2020 20:45:48	26012020	260120	204548	291.280	12.198412	-56.181832	291.360	0.530	-1.320	-0.070	291.280	-2.700	0.300																			1580071548.0	12.39	22.95
26/01/2020 20:45:49	26012020	260120	204549	291.510	12.198432	-56.181887	291.600	1.020	-1.600	0.160	291.510	-3.000	0.500																			1580071549.0	12.44	23.04
26/01/2020 20:45:50	26012020	260120	204550	291.640	12.198455	-56.181938	291.730	1.050	-1.120	0.470	291.640	-2.500	0.800																			1580071550.0	12.02	22.26
26/01/2020 20:45:51	26012020	260120	204551	291.570	12.198477	-56.181988	291.630	0.530	-0.230	0.550	291.570	-1.600	0.900																			1580071551.0	11.44	21.19
26/01/2020 20:45:52	26012020	260120	204552	291.330	12.198495	-56.182037	291.390	-0.320	0.490	0.260	291.330	-0.900	0.600																			1580071552.0	11.08	20.52
26/01/2020 20:45:53	26012020	260120	204553	291.100	12.198512	-56.182087	291.160	-1.050	0.610	-0.220	291.100	-0.800	0.100																			1580071553.0	11.26	20.85
26/01/2020 20:45:54	26012020	260120	204554	291.000	12.198525	-56.182142	291.060	-1.280	0.190	-0.630	291.000	-1.200	-0.300																			1580071554.0	11.83	21.91
26/01/2020 20:45:55	26012020	260120	204555	291.090	12.198538	-56.182198	291.170	-0.920	-0.400	-0.720	291.090	-1.800	-0.400																			1580071555.0	12.33	22.84
26/01/2020 20:45:56	26012020	260120	204556	291.280	12.198555	-56.182255	291.370	-0.230	-0.760	-0.390	291.280	-2.200	-0.000																			1580071556.0	12.46	23.08
26/01/2020 20:45:57	26012020	260120	204557	291.440	12.198573	-56.182308	291.540	0.380	-0.710	0.210	291.440	-2.100	0.600																			1580071557.0	12.18	22.56
26/01/2020 20:45:58	26012020	260120	204558	291.520	12.198595	-56.182360	291.640	0.650	-0.360	0.820	291.520	-1.800	1.200																			1580071558.0	11.78	21.82
26/01/2020 20:45:59	26012020	260120	204559	291.540	12.198618	-56.182410	291.650	0.600	-0.070	1.110	291.540	-1.500	1.500	1014.10	26.20	26.20	21.00	21.00	107.00	72.00	73.00	390.00	26.80	34.00	4.90	57.00	3.40	8574	3561.00	27.70	27.60	1580071559.0	11.50	21.30
26/01/2020 20:46:00	26012020	260120	204600	291.540	12.198640	-56.182458	291.640	0.410	-0.020	0.960	291.540	-1.400	1.300																			1580071560.0	11.52	21.34
26/01/2020 20:46:01	26012020	260120	204601	291.570	12.198658	-56.182512	291.660	0.230	-0.160	0.540	291.570	-1.600	0.900																			1580071561.0	11.75	21.76
26/01/2020 20:46:02	26012020	260120	204602	291.670	12.198677	-56.182565	291.760	0.070	-0.280	0.040	291.670	-1.700	0.400																			1580071562.0	11.93	22.09
26/01/2020 20:46:03	26012020	260120	204603	291.800	12.198693	-56.182618	291.880	-0.120	-0.280	-0.330	291.800	-1.700	0.000																			1580071563.0	11.91	22.06
26/01/2020 20:46:04	26012020	260120	204604	291.890	12.198708	-56.182672	291.970	-0.330	-0.230	-0.480	291.890	-1.600	-0.100																			1580071564.0	11.73	21.72
26/01/2020 20:46:05	26012020	260120	204605	291.970	12.198725	-56.182723	292.050	-0.440	-0.280	-0.430	291.970	-1.700	-0.100																			1580071565.0	11.66	21.59
26/01/2020 20:46:06	26012020	260120	204606	292.090	12.198743	-56.182777	292.170	-0.340	-0.410	-0.290	292.090	-1.800	0.100																			1580071566.0	11.79	21.84
26/01/2020 20:46:07	26012020	260120	204607	292.180	12.198762	-56.182830	292.280	-0.060	-0.450	-0.090	292.180	-1.900	0.300																			1580071567.0	11.93	22.09
26/01/2020 20:46:08	26012020	260120	204608	292.170	12.198780	-56.182883	292.260	0.250	-0.320	0.150	292.170	-1.700	0.500																			1580071568.0	11.91	22.06
26/01/2020 20:46:09	26012020	260120	204609	292.080	12.198800	-56.182935	292.170	0.440	-0.130	0.350	292.080	-1.500	0.700																			1580071569.0	11.76	21.78
26/01/2020 20:46:10	26012020	260120	204610	291.940	12.198822	-56.182985	292.030	0.420	-0.070	0.440	291.940	-1.500	0.800																			1580071570.0	11.67	21.61
26/01/2020 20:46:11	26012020	260120	204611	291.730	12.198842	-56.183037	291.820	0.200	-0.100	0.320	291.730	-1.500	0.700																			1580071571.0	11.75	21.76
26/01/2020 20:46:12	26012020	260120	204612	291.530	12.198860	-56.183088	291.610	-0.140	-0.150	0.030	291.530	-1.600	0.400																			1580071572.0	11.76	21.78
26/01/2020 20:46:13	26012020	260120	204613	291.430	12.198878	-56.183142	291.500	-0.400	-0.250	-0.300	291.430	-1.700	0.100																			1580071573.0	11.66	21.59
26/01/2020 20:46:14	26012020	260120	204614	291.490	12.198893	-56.183193	291.560	-0.440	-0.480	-0.520	291.490	-1.900	-0.200																			1580071574.0	11.65	21.58
26/01/2020 20:46:15	26012020	260120	204615	291.670	12.198910	-56.183247	291.760	-0.220	-0.760	-0.540	291.670	-2.200	-0.200																			1580071575.0	11.80	21.85
26/01/2020 20:46:16	26012020	260120	204616	291.940	12.198928	-56.183300	292.040	0.100	-0.940	-0.380	291.940	-2.300	-0.000																			1580071576.0	11.94	22.11
26/01/2020 20:46:17	26012020	260120	204617	292.270	12.198948	-56.183353	292.390	0.340	-0.860	-0.160	292.270	-2.300	0.200																			1580071577.0	12.00	22.22
26/01/2020 20:46:18	26012020	260120	204618	292.570	12.198970	-56.183405	292.680	0.370	-0.460	0.060	292.570	-1.900	0.400																			1580071578.0	11.94	22.11
26/01/2020 20:46:19	26012020	260120	204619	292.700	12.198990	-56.183457	292.800	0.180	0.130	0.210	292.700	-1.300	0.600																			1580071579.0	11.73	21.72
26/01/2020 20:46:20	26012020	260120	204620	292.590	12.199012	-56.183508	292.670	-0.130	0.580	0.200	292.590	-0.800	0.500																			1580071580.0	11.55	21.39
26/01/2020 20:46:21	26012020	260120	204621	292.260	12.199030	-56.183558	292.310	-0.420	0.650	0.020	292.260	-0.800	0.400																			1580071581.0	11.63	21.54
26/01/2020 20:46:22	26012020	260120	204622	291.820	12.199047	-56.183613	291.860	-0.550	0.380	-0.200	291.820	-1.000	0.200																			1580071582.0	11.89	22.02
26/01/2020 20:46:23	26012020	260120	204623	291.340	12.199063	-56.183667	291.390	-0.460	0.040	-0.280	291.340	-1.400	0.100																			1580071583.0	12.07	22.35
26/01/2020 20:46:24	26012020	260120	204624	290.900	12.199080	-56.183722	290.960	-0.190	-0.220	-0.120	290.900	-1.600	0.200																			1580071584.0	11.93	22.09
26/01/2020 20:46:25	26012020	260120	204625	290.650	12.199097	-56.183773	290.720	0.200	-0.480	0.200	290.650	-1.900	0.600																			1580071585.0	11.65	21.58
26/01/2020 20:46:26	26012020	260120	204626	290.710	12.199117	-56.183823	290.810	0.620	-0.860	0.480	290.710	-2.300	0.800																			1580071586.0	11.56	21.41
26/01/2020 20:46:27	26012020	260120	204627	291.020	12.199138	-56.183875	291.140	0.920	-1.210	0.620	291.020	-2.600	1.000																			1580071587.0	11.74	21.74
26/01/2020 20:46:28	26012020	260120	204628	291.430	12.199160	-56.183927	291.540	0.900	-1.230	0.600	291.430	-2.600	0.900																			1580071588.0	11.90	22.04
26/01/2020 20:46:29	26012020	260120	204629	291.820	12.199182	-56.183978	291.930	0.500	-0.790	0.430	291.820	-2.200	0.800																			1580071589.0	11.75	21.76
26/01/2020 20:46:30	26012020	260120	204630	292.120	12.199200	-56.184028	292.240	-0.150	-0.110	0.200	292.120	-1.500	0.500																			1580071590.0	11.44	21.19
26/01/2020 20:46:31	26012020	260120	204631	292.270	12.199217	-56.184078	292.360	-0.740	0.350	-0.080	292.270	-1.100	0.300																			1580071591.0	11.29	20.91
26/01/2020 20:46:32	26012020	260120	204632	292.280	12.199233	-56.184132	292.350	-0.990	0.280	-0.330	292.280	-1.100	0.000																			1580071592.0	11.59	21.46
26/01/2020 20:46:33	26012020	260120	204633	292.180	12.199248	-56.184187	292.240	-0.810	-0.110	-0.410	292.180	-1.500	-0.000																			1580071593.0	12.19	22.58
26/01/2020 20:46:34	26012020	260120	204634	291.970	12.199265	-56.184243	292.030	-0.390	-0.390	-0.250	291.970	-1.800	0.100																			1580071594.0	12.55	23.24
26/01/2020 20:46:35	26012020	260120	204635	291.660	12.199283	-56.184300	291.710	0.000	-0.300	0.100	291.660	-1.700	0.500																			1580071595.0	12.41	22.98
26/01/2020 20:46:36	26012020	260120	204636	291.300	12.199303	-56.184352	291.370	0.220	0.090	0.490	291.300	-1.300	0.900																			1580071596.0	11.91	22.06
26/01/2020 20:46:37	26012020	260120	204637	291.060	12.199322	-56.184402	291.130	0.300	0.410	0.720	291.060	-1.000	1.100																			1580071597.0	11.43	21.17
26/01/2020 20:46:38	26012020	260120	204638	290.990	12.199342	-56.184452	291.080	0.340	0.320	0.620	290.990	-1.100	1.000																			1580071598.0	11.32	20.96
26/01/2020 20:46:39	26012020	260120	204639	291.110	12.199362	-56.184503	291.210	0.350	-0.150	0.260	291.110	-1.600	0.600																			1580071599.0	11.55	21.39
26/01/2020 20:46:40	26012020	260120	204640	291.380	12.199380	-56.184555	291.490	0.310	-0.670	-0.200	291.380	-2.100	0.200																			1580071600.0	11.84	21.93
26/01/2020 20:46:41	26012020	260120	204641	291.710	12.199397	-56.184608	291.810	0.200	-0.880	-0.500	291.710	-2.300	-0.200																			1580071601.0	11.90	22.04
26/01/2020 20:46:42	26012020	260120	204642	291.960	12.199413	-56.184662	292.050	0.060	-0.720	-0.460	291.960	-2.100	-0.100																			1580071602.0	11.63	21.54
26/01/2020 20:46:43	26012020	260120	204643	292.130	12.199432	-56.184712	292.210	-0.030	-0.500	-0.170	292.130	-1.900	0.200																			1580071603.0	11.32	20.96
26/01/2020 20:46:44	26012020	260120	204644	292.200	12.199450	-56.184762	292.270	-0.010	-0.410	0.170	292.200	-1.800	0.500																			1580071604.0	11.38	21.08
26/01/2020 20:46:45	26012020	260120	204645	292.180	12.199470	-56.184813	292.250	0.060	-0.450	0.370	292.180	-1.900	0.700																			1580071605.0	11.65	21.58
26/01/2020 20:46:46	26012020	260120	204646	292.100	12.199490	-56.184867	292.180	0.100	-0.530	0.370	292.100	-2.000	0.700																			1580071606.0	11.90	22.04
26/01/2020 20:46:47	26012020	260120	204647	292.030	12.199510	-56.184920	292.110	0.040	-0.550	0.210	292.030	-2.000	0.600																			1580071607.0	12.05	22.32
26/01/2020 20:46:48	26012020	260120	204648	292.010	12.199528	-56.184973	292.100	-0.110	-0.380	0.020	292.010	-1.800	0.400																			1580071608.0	12.07	22.35
26/01/2020 20:46:49	26012020	260120	204649	291.990	12.199547	-56.185027	292.070	-0.320	-0.020	-0.150	291.990	-1.400	0.200																			1580071609.0	11.90	22.04
26/01/2020 20:46:50	26012020	260120	204650	291.900	12.199563	-56.185078	291.980	-0.500	0.350	-0.270	291.900	-1.100	0.100																			1580071610.0	11.69	21.65
26/01/2020 20:46:51	26012020	260120	204651	291.850	12.199580	-56.185130	291.920	-0.530	0.490	-0.290	291.840	-0.900	0.100																			1580071611.0	11.56	21.41
26/01/2020 20:46:52	26012020	260120	204652	291.880	12.199597	-56.185183	291.960	-0.360	0.290	-0.210	291.880	-1.100	0.200																			1580071612.0	11.65	21.58
26/01/2020 20:46:53	26012020	260120	204653	291.920	12.199617	-56.185235	292.000	-0.060	-0.100	-0.010	291.920	-1.500	0.300																			1580071613.0	11.87	21.98
26/01/2020 20:46:54	26012020	260120	204654	291.910	12.199637	-56.185288	291.990	0.250	-0.430	0.240	291.910	-1.900	0.600																			1580071614.0	11.96	22.15
26/01/2020 20:46:55	26012020	260120	204655	291.920	12.199657	-56.185340	292.000	0.480	-0.630	0.400	291.920	-2.100	0.700																			1580071615.0	11.82	21.89
26/01/2020 20:46:56	26012020	260120	204656	291.940	12.199677	-56.185392	292.020	0.600	-0.710	0.440	291.940	-2.100	0.800																			1580071616.0	11.69	21.65
26/01/2020 20:46:57	26012020	260120	204657	291.950	12.199697	-56.185443	292.040	0.590	-0.620	0.400	291.950	-2.000	0.700																			1580071617.0	11.62	21.52
26/01/2020 20:46:58	26012020	260120	204658	291.920	12.199715	-56.185493	292.020	0.440	-0.390	0.300	291.920	-1.800	0.600																			1580071618.0	11.53	21.35
26/01/2020 20:46:59	26012020	260120	204659	291.900	12.199733	-56.185545	291.990	0.140	-0.170	0.120	291.900	-1.600	0.500	1014.10	26.30	26.20	21.10	21.10	105.00	73.00	73.00	390.00	26.80	35.00	5.70	45.00	3.60	8409	3547.00	27.60	27.60	1580071619.0	11.42	21.15
26/01/2020 20:47:00	26012020	260120	204700	291.920	12.199752	-56.185595	292.010	-0.220	-0.140	-0.090	291.920	-1.600	0.300																			1580071620.0	11.46	21.22
26/01/2020 20:47:01	26012020	260120	204701	292.000	12.199770	-56.185648	292.100	-0.520	-0.330	-0.290	292.000	-1.700	0.100																			1580071621.0	11.67	21.61
26/01/2020 20:47:02	26012020	260120	204702	292.130	12.199787	-56.185702	292.230	-0.590	-0.590	-0.400	292.130	-2.000	-0.100																			1580071622.0	11.97	22.17
26/01/2020 20:47:03	26012020	260120	204703	292.290	12.199805	-56.185755	292.390	-0.410	-0.730	-0.390	292.290	-2.100	-0.000																			1580071623.0	12.15	22.50
26/01/2020 20:47:04	26012020	260120	204704	292.440	12.199823	-56.185810	292.540	-0.090	-0.580	-0.130	292.440	-2.000	0.200																			1580071624.0	12.15	22.50
26/01/2020 20:47:05	26012020	260120	204705	292.470	12.199842	-56.185863	292.580	0.150	-0.120	0.330	292.470	-1.500	0.700																			1580071625.0	11.94	22.11
26/01/2020 20:47:06	26012020	260120	204706	292.350	12.199863	-56.185913	292.450	0.190	0.420	0.740	292.350	-1.000	1.100																			1580071626.0	11.63	21.54
26/01/2020 20:47:07	26012020	260120	204707	292.070	12.199883	-56.185963	292.170	0.070	0.680	0.860	292.070	-0.700	1.200																			1580071627.0	11.41	21.13
26/01/2020 20:47:08	26012020	260120	204708	291.770	12.199903	-56.186013	291.860	-0.080	0.420	0.530	291.770	-1.000	0.900																			1580071628.0	11.50	21.30
26/01/2020 20:47:09	26012020	260120	204709	291.590	12.199922	-56.186067	291.690	-0.160	-0.210	-0.010	291.590	-1.600	0.300																			1580071629.0	11.84	21.93
26/01/2020 20:47:10	26012020	260120	204710	291.610	12.199938	-56.186122	291.720	-0.130	-0.830	-0.500	291.610	-2.300	-0.100																			1580071630.0	12.11	22.43
26/01/2020 20:47:11	26012020	260120	204711	291.770	12.199955	-56.186177	291.880	-0.010	-1.130	-0.710	291.770	-2.500	-0.400																			1580071631.0	12.07	22.35
26/01/2020 20:47:12	26012020	260120	204712	291.990	12.199972	-56.186228	292.100	0.180	-1.010	-0.530	291.990	-2.400	-0.200																			1580071632.0	11.80	21.85
26/01/2020 20:47:13	26012020	260120	204713	292.160	12.199990	-56.186280	292.270	0.340	-0.570	-0.060	292.160	-2.000	0.300																			1580071633.0	11.50	21.30
26/01/2020 20:47:14	26012020	260120	204714	292.210	12.200012	-56.186330	292.320	0.410	-0.120	0.480	292.210	-1.500	0.800																			1580071634.0	11.33	20.98
26/01/2020 20:47:15	26012020	260120	204715	292.180	12.200033	-56.186378	292.290	0.370	0.070	0.810	292.180	-1.300	1.200																			1580071635.0	11.41	21.13
26/01/2020 20:47:16	26012020	260120	204716	292.110	12.200055	-56.186430	292.220	0.260	0.040	0.830	292.110	-1.400	1.200																			1580071636.0	11.72	21.71
26/01/2020 20:47:17	26012020	260120	204717	292.030	12.200075	-56.186482	292.140	0.030	-0.040	0.590	292.030	-1.500	0.900																			1580071637.0	11.96	22.15
26/01/2020 20:47:18	26012020	260120	204718	291.950	12.200095	-56.186535	292.050	-0.290	-0.030	0.200	291.950	-1.400	0.600																			1580071638.0	11.94	22.11
26/01/2020 20:47:19	26012020	260120	204719	291.860	12.200112	-56.186588	291.960	-0.610	-0.040	-0.180	291.860	-1.500	0.200																			1580071639.0	11.79	21.84
26/01/2020 20:47:20	26012020	260120	204720	291.810	12.200127	-56.186642	291.910	-0.730	-0.230	-0.370	291.810	-1.700	-0.000																			1580071640.0	11.73	21.72
26/01/2020 20:47:21	26012020	260120	204721	291.790	12.200143	-56.186695	291.890	-0.510	-0.600	-0.270	291.790	-2.000	0.100																			1580071641.0	11.88	22.00
26/01/2020 20:47:22	26012020	260120	204722	291.810	12.200160	-56.186750	291.910	-0.050	-0.930	0.060	291.810	-2.300	0.400																			1580071642.0	12.11	22.43
26/01/2020 20:47:23	26012020	260120	204723	291.820	12.200180	-56.186803	291.910	0.390	-0.900	0.430	291.820	-2.300	0.800																			1580071643.0	12.17	22.54
26/01/2020 20:47:24	26012020	260120	204724	291.790	12.200202	-56.186855	291.880	0.540	-0.420	0.690	291.790	-1.800	1.000																			1580071644.0	11.91	22.06
26/01/2020 20:47:25	26012020	260120	204725	291.690	12.200222	-56.186905	291.770	0.320	0.290	0.750	291.690	-1.100	1.100																			1580071645.0	11.43	21.17
26/01/2020 20:47:26	26012020	260120	204726	291.560	12.200240	-56.186955	291.650	-0.070	0.740	0.580	291.560	-0.700	0.900																			1580071646.0	11.07	20.50
26/01/2020 20:47:27	26012020	260120	204727	291.550	12.200258	-56.187003	291.640	-0.290	0.470	0.190	291.550	-1.000	0.500																			1580071647.0	11.17	20.69
26/01/2020 20:47:28	26012020	260120	204728	291.720	12.200275	-56.187057	291.820	-0.130	-0.450	-0.260	291.720	-1.900	0.100																			1580071648.0	11.80	21.85
26/01/2020 20:47:29	26012020	260120	204729	292.030	12.200293	-56.187113	292.130	0.260	-1.290	-0.560	292.030	-2.700	-0.200																			1580071649.0	12.52	23.19
26/01/2020 20:47:30	26012020	260120	204730	292.300	12.200312	-56.187170	292.400	0.450	-1.240	-0.490	292.300	-2.600	-0.100																			1580071650.0	12.60	23.34
26/01/2020 20:47:31	26012020	260120	204731	292.360	12.200332	-56.187222	292.450	0.220	-0.340	-0.100	292.360	-1.700	0.300																			1580071651.0	11.81	21.87
26/01/2020 20:47:32	26012020	260120	204732	292.190	12.200352	-56.187270	292.270	-0.210	0.650	0.320	292.190	-0.800	0.700																			1580071652.0	10.96	20.30
26/01/2020 20:47:33	26012020	260120	204733	291.890	12.200370	-56.187317	291.970	-0.460	0.910	0.450	291.890	-0.500	0.800																			1580071653.0	10.81	20.02
26/01/2020 20:47:34	26012020	260120	204734	291.610	12.200388	-56.187368	291.700	-0.320	0.260	0.250	291.610	-1.200	0.600																			1580071654.0	11.47	21.24
26/01/2020 20:47:35	26012020	260120	204735	291.440	12.200407	-56.187423	291.520	0.070	-0.730	-0.010	291.440	-2.200	0.300																			1580071655.0	12.34	22.85
26/01/2020 20:47:36	26012020	260120	204736	291.390	12.200425	-56.187480	291.470	0.340	-1.330	-0.180	291.390	-2.700	0.200																			1580071656.0	12.66	23.45
26/01/2020 20:47:37	26012020	260120	204737	291.470	12.200443	-56.187535	291.570	0.270	-1.190	-0.210	291.470	-2.600	0.100																			1580071657.0	12.21	22.61
26/01/2020 20:47:38	26012020	260120	204738	291.630	12.200462	-56.187587	291.730	-0.030	-0.590	-0.120	291.630	-2.000	0.200																			1580071658.0	11.52	21.34
26/01/2020 20:47:39	26012020	260120	204739	291.790	12.200480	-56.187635	291.880	-0.330	0.010	0.080	291.790	-1.400	0.400																			1580071659.0	11.09	20.54
26/01/2020 20:47:40	26012020	260120	204740	291.870	12.200498	-56.187685	291.960	-0.470	0.250	0.240	291.870	-1.200	0.600																			1580071660.0	11.15	20.65
26/01/2020 20:47:41	26012020	260120	204741	291.920	12.200517	-56.187737	292.020	-0.370	0.040	0.250	291.920	-1.400	0.600																			1580071661.0	11.59	21.46
26/01/2020 20:47:42	26012020	260120	204742	291.970	12.200535	-56.187790	292.070	-0.090	-0.290	0.150	291.970	-1.700	0.500																			1580071662.0	12.08	22.37
26/01/2020 20:47:43	26012020	260120	204743	292.020	12.200553	-56.187845	292.120	0.190	-0.330	0.050	292.020	-1.700	0.400																			1580071663.0	12.25	22.69
26/01/2020 20:47:44	26012020	260120	204744	292.010	12.200572	-56.187898	292.090	0.330	-0.050	0.020	292.010	-1.500	0.400																			1580071664.0	11.93	22.09
26/01/2020 20:47:45	26012020	260120	204745	291.970	12.200590	-56.187948	292.050	0.290	0.200	-0.040	291.970	-1.200	0.300																			1580071665.0	11.52	21.34
26/01/2020 20:47:46	26012020	260120	204746	291.900	12.200610	-56.188000	291.950	0.210	0.130	-0.160	291.900	-1.300	0.200																			1580071666.0	11.48	21.26
26/01/2020 20:47:47	26012020	260120	204747	291.780	12.200628	-56.188052	291.830	0.160	-0.170	-0.210	291.780	-1.600	0.100																			1580071667.0	11.72	21.71
26/01/2020 20:47:48	26012020	260120	204748	291.610	12.200647	-56.188105	291.660	0.120	-0.450	-0.080	291.610	-1.900	0.300																			1580071668.0	11.90	22.04
26/01/2020 20:47:49	26012020	260120	204749	291.430	12.200667	-56.188157	291.490	0.060	-0.570	0.180	291.430	-2.000	0.500																			1580071669.0	11.83	21.91
26/01/2020 20:47:50	26012020	260120	204750	291.280	12.200687	-56.188208	291.350	-0.010	-0.570	0.380	291.280	-2.000	0.700																			1580071670.0	11.61	21.50
26/01/2020 20:47:51	26012020	260120	204751	291.210	12.200705	-56.188258	291.280	-0.080	-0.560	0.450	291.210	-2.000	0.800																			1580071671.0	11.50	21.30
26/01/2020 20:47:52	26012020	260120	204752	291.240	12.200723	-56.188310	291.330	-0.110	-0.580	0.400	291.240	-2.000	0.800																			1580071672.0	11.56	21.41
26/01/2020 20:47:53	26012020	260120	204753	291.400	12.200742	-56.188363	291.500	-0.100	-0.630	0.230	291.400	-2.000	0.600																			1580071673.0	11.70	21.67
26/01/2020 20:47:54	26012020	260120	204754	291.630	12.200760	-56.188415	291.740	-0.090	-0.590	0.100	291.630	-2.000	0.400																			1580071674.0	11.88	22.00
26/01/2020 20:47:55	26012020	260120	204755	291.800	12.200777	-56.188468	291.880	-0.080	-0.340	0.110	291.800	-1.800	0.500																			1580071675.0	11.91	22.06
26/01/2020 20:47:56	26012020	260120	204756	291.780	12.200795	-56.188522	291.850	-0.100	0.050	0.300	291.780	-1.400	0.700																			1580071676.0	11.79	21.84
26/01/2020 20:47:57	26012020	260120	204757	291.610	12.200813	-56.188573	291.670	-0.120	0.350	0.550	291.610	-1.100	0.900																			1580071677.0	11.63	21.54
26/01/2020 20:47:58	26012020	260120	204758	291.400	12.200833	-56.188625	291.480	-0.090	0.350	0.650	291.400	-1.100	1.000																			1580071678.0	11.63	21.54
26/01/2020 20:47:59	26012020	260120	204759	291.270	12.200853	-56.188677	291.360	0.010	0.040	0.500	291.270	-1.400	0.900	1014.10	26.20	26.20	21.00	21.00	102.00	73.00	73.00	390.00	26.80	37.00	5.40	51.00	3.70	8229	3471.00	27.60	27.60	1580071679.0	11.83	21.91
26/01/2020 20:48:00	26012020	260120	204800	291.270	12.200872	-56.188730	291.350	0.180	-0.360	0.240	291.270	-1.800	0.600																			1580071680.0	12.04	22.30
26/01/2020 20:48:01	26012020	260120	204801	291.350	12.200890	-56.188785	291.420	0.310	-0.650	0.030	291.350	-2.100	0.400																			1580071681.0	12.09	22.39
26/01/2020 20:48:02	26012020	260120	204802	291.420	12.200908	-56.188838	291.480	0.290	-0.680	-0.050	291.420	-2.100	0.300																			1580071682.0	11.98	22.19
26/01/2020 20:48:03	26012020	260120	204803	291.440	12.200927	-56.188890	291.490	0.080	-0.430	0.010	291.440	-1.800	0.400																			1580071683.0	11.74	21.74
26/01/2020 20:48:04	26012020	260120	204804	291.370	12.200945	-56.188942	291.420	-0.250	-0.060	0.170	291.370	-1.500	0.500																			1580071684.0	11.48	21.26
26/01/2020 20:48:05	26012020	260120	204805	291.280	12.200963	-56.188992	291.340	-0.500	0.090	0.300	291.280	-1.300	0.700																			1580071685.0	11.35	21.02
26/01/2020 20:48:06	26012020	260120	204806	291.210	12.200980	-56.189043	291.280	-0.480	-0.090	0.360	291.210	-1.500	0.700																			1580071686.0	11.54	21.37
26/01/2020 20:48:07	26012020	260120	204807	291.150	12.200997	-56.189097	291.240	-0.190	-0.400	0.390	291.150	-1.800	0.800																			1580071687.0	11.90	22.04
26/01/2020 20:48:08	26012020	260120	204808	291.110	12.201015	-56.189152	291.210	0.230	-0.550	0.480	291.110	-2.000	0.800																			1580071688.0	12.05	22.32
26/01/2020 20:48:09	26012020	260120	204809	291.110	12.201033	-56.189203	291.210	0.540	-0.500	0.520	291.110	-1.900	0.900																			1580071689.0	11.88	22.00
26/01/2020 20:48:10	26012020	260120	204810	291.190	12.201053	-56.189255	291.280	0.620	-0.370	0.430	291.190	-1.800	0.800																			1580071690.0	11.67	21.61
26/01/2020 20:48:11	26012020	260120	204811	291.330	12.201073	-56.189307	291.420	0.490	-0.320	0.210	291.330	-1.700	0.500																			1580071691.0	11.62	21.52
26/01/2020 20:48:12	26012020	260120	204812	291.490	12.201092	-56.189358	291.580	0.220	-0.360	-0.100	291.490	-1.800	0.300																			1580071692.0	11.73	21.72
26/01/2020 20:48:13	26012020	260120	204813	291.660	12.201112	-56.189412	291.750	-0.080	-0.380	-0.370	291.660	-1.800	-0.000																			1580071693.0	11.89	22.02
26/01/2020 20:48:14	26012020	260120	204814	291.750	12.201128	-56.189465	291.840	-0.350	-0.220	-0.430	291.750	-1.600	-0.100																			1580071694.0	11.93	22.09
26/01/2020 20:48:15	26012020	260120	204815	291.710	12.201145	-56.189517	291.780	-0.540	0.050	-0.230	291.710	-1.400	0.100																			1580071695.0	11.77	21.80
26/01/2020 20:48:16	26012020	260120	204816	291.540	12.201163	-56.189570	291.610	-0.590	0.170	0.030	291.540	-1.200	0.400																			1580071696.0	11.61	21.50
26/01/2020 20:48:17	26012020	260120	204817	291.350	12.201182	-56.189622	291.420	-0.460	-0.030	0.160	291.350	-1.500	0.500																			1580071697.0	11.70	21.67
26/01/2020 20:48:18	26012020	260120	204818	291.190	12.201198	-56.189675	291.270	-0.180	-0.450	0.230	291.190	-1.900	0.600																			1580071698.0	12.02	22.26
26/01/2020 20:48:19	26012020	260120	204819	291.110	12.201218	-56.189730	291.190	0.130	-0.790	0.280	291.110	-2.200	0.600																			1580071699.0	12.25	22.69
26/01/2020 20:48:20	26012020	260120	204820	291.100	12.201237	-56.189785	291.180	0.330	-0.760	0.290	291.100	-2.200	0.600																			1580071700.0	12.19	22.58
26/01/2020 20:48:21	26012020	260120	204821	291.110	12.201257	-56.189837	291.180	0.310	-0.340	0.220	291.110	-1.700	0.600																			1580071701.0	11.87	21.98
26/01/2020 20:48:22	26012020	260120	204822	291.110	12.201275	-56.189888	291.160	0.110	0.170	0.060	291.110	-1.200	0.400																			1580071702.0	11.43	21.17
26/01/2020 20:48:23	26012020	260120	204823	291.110	12.201293	-56.189938	291.160	-0.100	0.340	-0.110	291.110	-1.100	0.200																			1580071703.0	11.28	20.89
26/01/2020 20:48:24	26012020	260120	204824	291.180	12.201310	-56.189990	291.250	-0.120	0.010	-0.260	291.180	-1.400	0.100																			1580071704.0	11.55	21.39
26/01/2020 20:48:25	26012020	260120	204825	291.340	12.201327	-56.190043	291.410	0.110	-0.540	-0.290	291.340	-2.000	0.100																			1580071705.0	12.04	22.30
26/01/2020 20:48:26	26012020	260120	204826	291.460	12.201347	-56.190098	291.540	0.370	-0.770	-0.050	291.460	-2.200	0.300																			1580071706.0	12.33	22.84
26/01/2020 20:48:27	26012020	260120	204827	291.460	12.201367	-56.190152	291.540	0.410	-0.440	0.370	291.460	-1.900	0.700																			1580071707.0	12.01	22.24
26/01/2020 20:48:28	26012020	260120	204828	291.350	12.201387	-56.190202	291.410	0.180	0.070	0.720	291.350	-1.300	1.100																			1580071708.0	11.43	21.17
26/01/2020 20:48:29	26012020	260120	204829	291.200	12.201407	-56.190250	291.260	-0.090	0.230	0.770	291.200	-1.200	1.100																			1580071709.0	11.17	20.69
26/01/2020 20:48:30	26012020	260120	204830	291.110	12.201425	-56.190302	291.190	-0.170	-0.180	0.480	291.110	-1.600	0.800																			1580071710.0	11.50	21.30
26/01/2020 20:48:31	26012020	260120	204831	291.130	12.201443	-56.190355	291.230	-0.070	-0.830	0.060	291.150	-2.200	0.400																			1580071711.0	12.12	22.45
26/01/2020 20:48:32	26012020	260120	204832	291.240	12.201460	-56.190412	291.320	-0.000	-1.070	-0.240	291.240	-2.500	0.100																			1580071712.0	12.48	23.11
26/01/2020 20:48:33	26012020	260120	204833	291.290	12.201477	-56.190467	291.360	-0.160	-0.650	-0.250	291.290	-2.000	0.100																			1580071713.0	12.15	22.50
26/01/2020 20:48:34	26012020	260120	204834	291.270	12.201493	-56.190518	291.340	-0.430	0.020	-0.100	291.270	-1.400	0.300																			1580071714.0	11.48	21.26
26/01/2020 20:48:35	26012020	260120	204835	291.270	12.201512	-56.190568	291.340	-0.550	0.300	-0.010	291.270	-1.100	0.400																			1580071715.0	11.19	20.72
26/01/2020 20:48:36	26012020	260120	204836	291.390	12.201528	-56.190620	291.460	-0.300	-0.060	-0.040	291.390	-1.500	0.300																			1580071716.0	11.61	21.50
26/01/2020 20:48:37	26012020	260120	204837	291.610	12.201547	-56.190675	291.690	0.190	-0.630	-0.120	291.610	-2.000	0.200																			1580071717.0	12.31	22.80
26/01/2020 20:48:38	26012020	260120	204838	291.790	12.201567	-56.190732	291.860	0.530	-0.700	-0.000	291.790	-2.100	0.400																			1580071718.0	12.62	23.37
26/01/2020 20:48:39	26012020	260120	204839	291.740	12.201587	-56.190785	291.800	0.410	-0.030	0.350	291.740	-1.400	0.700																			1580071719.0	12.08	22.37
26/01/2020 20:48:40	26012020	260120	204840	291.500	12.201607	-56.190833	291.560	-0.080	0.760	0.670	291.500	-0.700	1.000																			1580071720.0	11.18	20.71
26/01/2020 20:48:41	26012020	260120	204841	291.250	12.201625	-56.190882	291.310	-0.440	0.810	0.630	291.250	-0.600	1.000																			1580071721.0	10.80	20.00
26/01/2020 20:48:42	26012020	260120	204842	291.160	12.201642	-56.190932	291.230	-0.250	-0.110	0.240	291.160	-1.500	0.600																			1580071722.0	11.40	21.11
26/01/2020 20:48:43	26012020	260120	204843	291.240	12.201660	-56.190988	291.310	0.390	-1.310	-0.170	291.240	-2.700	0.200																			1580071723.0	12.41	22.98
26/01/2020 20:48:44	26012020	260120	204844	291.360	12.201678	-56.191045	291.430	0.880	-1.760	-0.310	291.360	-3.200	0.100																			1580071724.0	12.87	23.84
26/01/2020 20:48:45	26012020	260120	204845	291.380	12.201698	-56.191100	291.440	0.720	-1.040	-0.130	291.380	-2.400	0.200																			1580071725.0	12.26	22.71
26/01/2020 20:48:46	26012020	260120	204846	291.250	12.201718	-56.191148	291.300	-0.010	0.170	0.010	291.250	-1.200	0.400																			1580071726.0	11.12	20.59
26/01/2020 20:48:47	26012020	260120	204847	291.130	12.201735	-56.191197	291.200	-0.750	0.890	-0.080	291.130	-0.500	0.300																			1580071727.0	10.58	19.59
26/01/2020 20:48:48	26012020	260120	204848	291.190	12.201750	-56.191245	291.260	-0.970	0.630	-0.410	291.190	-0.800	-0.100																			1580071728.0	11.05	20.46
26/01/2020 20:48:49	26012020	260120	204849	291.370	12.201765	-56.191300	291.440	-0.570	-0.280	-0.680	291.370	-1.700	-0.300																			1580071729.0	12.04	22.30
26/01/2020 20:48:50	26012020	260120	204850	291.600	12.201782	-56.191358	291.670	0.060	-1.020	-0.630	291.600	-2.400	-0.300																			1580071730.0	12.72	23.56
26/01/2020 20:48:51	26012020	260120	204851	291.800	12.201802	-56.191415	291.880	0.470	-1.010	-0.220	291.800	-2.400	0.100																			1580071731.0	12.57	23.28
26/01/2020 20:48:52	26012020	260120	204852	291.880	12.201822	-56.191467	291.960	0.450	-0.310	0.310	291.880	-1.700	0.700																			1580071732.0	11.79	21.84
26/01/2020 20:48:53	26012020	260120	204853	291.790	12.201842	-56.191513	291.870	0.160	0.390	0.620	291.790	-1.000	1.000																			1580071733.0	11.04	20.45
26/01/2020 20:48:54	26012020	260120	204854	291.630	12.201862	-56.191562	291.700	-0.050	0.460	0.540	291.630	-1.000	0.900																			1580071734.0	10.93	20.24
26/01/2020 20:48:55	26012020	260120	204855	291.520	12.201880	-56.191613	291.600	-0.010	-0.150	0.270	291.520	-1.600	0.600																			1580071735.0	11.51	21.32
26/01/2020 20:48:56	26012020	260120	204856	291.570	12.201898	-56.191667	291.660	0.180	-0.940	-0.050	291.570	-2.400	0.300																			1580071736.0	12.21	22.61
26/01/2020 20:48:57	26012020	260120	204857	291.720	12.201918	-56.191723	291.800	0.280	-1.310	-0.320	291.720	-2.700	0.000																			1580071737.0	12.49	23.13
26/01/2020 20:48:58	26012020	260120	204858	291.800	12.201937	-56.191777	291.860	0.110	-0.920	-0.380	291.800	-2.300	-0.000																			1580071738.0	12.18	22.56
26/01/2020 20:48:59	26012020	260120	204859	291.740	12.201955	-56.191828	291.800	-0.290	-0.040	-0.190	291.740	-1.400	0.200	1014.10	26.30	26.20	21.10	21.00	101.00	73.00	73.00	391.00	26.70	36.00	5.10	54.00	3.60	8064	3414.00	27.60	27.60	1580071739.0	11.54	21.37
26/01/2020 20:49:00	26012020	260120	204900	291.590	12.201972	-56.191878	291.640	-0.660	0.730	0.100	291.590	-0.700	0.500																			1580071740.0	11.07	20.50
26/01/2020 20:49:01	26012020	260120	204901	291.460	12.201988	-56.191928	291.520	-0.710	0.870	0.280	291.460	-0.500	0.600																			1580071741.0	11.11	20.58
26/01/2020 20:49:02	26012020	260120	204902	291.400	12.202007	-56.191980	291.470	-0.340	0.340	0.280	291.400	-1.100	0.600																			1580071742.0	11.62	21.52
26/01/2020 20:49:03	26012020	260120	204903	291.460	12.202025	-56.192035	291.530	0.280	-0.450	0.200	291.460	-1.900	0.600																			1580071743.0	12.18	22.56
26/01/2020 20:49:04	26012020	260120	204904	291.590	12.202043	-56.192090	291.660	0.810	-0.960	0.200	291.590	-2.400	0.600																			1580071744.0	12.40	22.96
26/01/2020 20:49:05	26012020	260120	204905	291.720	12.202065	-56.192142	291.790	0.940	-0.920	0.280	291.720	-2.300	0.600																			1580071745.0	12.10	22.41
26/01/2020 20:49:06	26012020	260120	204906	291.780	12.202087	-56.192193	291.850	0.630	-0.460	0.330	291.780	-1.900	0.700																			1580071746.0	11.53	21.35
26/01/2020 20:49:07	26012020	260120	204907	291.740	12.202105	-56.192242	291.810	0.080	-0.020	0.210	291.740	-1.400	0.600																			1580071747.0	11.10	20.56
26/01/2020 20:49:08	26012020	260120	204908	291.660	12.202123	-56.192290	291.720	-0.390	0.040	-0.040	291.660	-1.400	0.300																			1580071748.0	11.11	20.58
26/01/2020 20:49:09	26012020	260120	204909	291.600	12.202138	-56.192343	291.660	-0.550	-0.300	-0.240	291.600	-1.700	0.100																			1580071749.0	11.53	21.35
26/01/2020 20:49:10	26012020	260120	204910	291.600	12.202155	-56.192397	291.660	-0.370	-0.770	-0.270	291.600	-2.200	0.100																			1580071750.0	12.01	22.24
26/01/2020 20:49:11	26012020	260120	204911	291.620	12.202173	-56.192452	291.680	-0.060	-0.960	-0.110	291.620	-2.400	0.300																			1580071751.0	12.26	22.71
26/01/2020 20:49:12	26012020	260120	204912	291.630	12.202192	-56.192507	291.700	0.150	-0.660	0.150	291.630	-2.100	0.500																			1580071752.0	12.11	22.43
26/01/2020 20:49:13	26012020	260120	204913	291.620	12.202210	-56.192558	291.690	0.170	-0.030	0.440	291.620	-1.400	0.800																			1580071753.0	11.70	21.67
26/01/2020 20:49:14	26012020	260120	204914	291.590	12.202230	-56.192608	291.660	0.030	0.540	0.630	291.590	-0.900	1.000																			1580071754.0	11.36	21.04
26/01/2020 20:49:15	26012020	260120	204915	291.560	12.202250	-56.192657	291.620	-0.180	0.680	0.530	291.560	-0.700	0.900																			1580071755.0	11.34	21.00
26/01/2020 20:49:16	26012020	260120	204916	291.560	12.202270	-56.192708	291.610	-0.340	0.280	0.070	291.560	-1.100	0.400																			1580071756.0	11.62	21.52
26/01/2020 20:49:17	26012020	260120	204917	291.640	12.202287	-56.192763	291.690	-0.350	-0.400	-0.490	291.640	-1.800	-0.100																			1580071757.0	12.02	22.26
26/01/2020 20:49:18	26012020	260120	204918	291.800	12.202302	-56.192818	291.860	-0.150	-0.920	-0.800	291.800	-2.300	-0.400																			1580071758.0	12.27	22.72
26/01/2020 20:49:19	26012020	260120	204919	291.940	12.202318	-56.192873	291.990	0.170	-0.980	-0.620	291.940	-2.400	-0.300																			1580071759.0	12.11	22.43
26/01/2020 20:49:20	26012020	260120	204920	291.930	12.202338	-56.192925	291.970	0.440	-0.560	-0.090	291.930	-2.000	0.300																			1580071760.0	11.67	21.61
26/01/2020 20:49:21	26012020	260120	204921	291.700	12.202358	-56.192975	291.730	0.490	-0.020	0.470	291.700	-1.400	0.800																			1580071761.0	11.26	20.85
26/01/2020 20:49:22	26012020	260120	204922	291.340	12.202378	-56.193022	291.370	0.300	0.280	0.770	291.340	-1.100	1.100																			1580071762.0	11.10	20.56
26/01/2020 20:49:23	26012020	260120	204923	291.030	12.202398	-56.193072	291.070	0.070	0.100	0.630	291.030	-1.300	1.000																			1580071763.0	11.29	20.91
26/01/2020 20:49:24	26012020	260120	204924	290.910	12.202418	-56.193123	290.970	-0.010	-0.440	0.190	290.910	-1.900	0.500																			1580071764.0	11.70	21.67
26/01/2020 20:49:25	26012020	260120	204925	290.980	12.202437	-56.193178	291.040	0.090	-1.000	-0.280	290.980	-2.400	0.100																			1580071765.0	12.12	22.45
26/01/2020 20:49:26	26012020	260120	204926	291.040	12.202453	-56.193233	291.080	0.190	-1.110	-0.460	291.040	-2.500	-0.100																			1580071766.0	12.28	22.74
26/01/2020 20:49:27	26012020	260120	204927	290.910	12.202472	-56.193287	290.950	0.070	-0.560	-0.260	290.910	-1.900	0.100																			1580071767.0	12.00	22.22
26/01/2020 20:49:28	26012020	260120	204928	290.610	12.202490	-56.193337	290.640	-0.310	0.250	-0.010	290.610	-1.100	0.300																			1580071768.0	11.40	21.11
26/01/2020 20:49:29	26012020	260120	204929	290.260	12.202508	-56.193387	290.290	-0.700	0.670	0.020	290.260	-0.700	0.400																			1580071769.0	11.09	20.54
26/01/2020 20:49:30	26012020	260120	204930	289.960	12.202525	-56.193437	289.990	-0.790	0.360	-0.180	289.960	-1.000	0.200																			1580071770.0	11.42	21.15
26/01/2020 20:49:31	26012020	260120	204931	289.690	12.202542	-56.193492	289.710	-0.480	-0.330	-0.390	289.690	-1.700	-0.000																			1580071771.0	12.12	22.45
26/01/2020 20:49:32	26012020	260120	204932	289.370	12.202558	-56.193548	289.370	0.000	-0.760	-0.250	289.370	-2.200	0.100																			1580071772.0	12.50	23.15
26/01/2020 20:49:33	26012020	260120	204933	288.890	12.202575	-56.193603	288.890	0.350	-0.600	0.240	288.890	-2.000	0.600																			1580071773.0	12.19	22.58
26/01/2020 20:49:34	26012020	260120	204934	288.290	12.202595	-56.193655	288.300	0.410	-0.090	0.800	288.290	-1.500	1.200																			1580071774.0	11.51	21.32
26/01/2020 20:49:35	26012020	260120	204935	287.660	12.202613	-56.193703	287.670	0.290	0.240	1.200	287.660	-1.200	1.600																			1580071775.0	11.08	20.52
26/01/2020 20:49:36	26012020	260120	204936	287.050	12.202633	-56.193752	287.080	0.180	0.110	1.300	287.050	-1.300	1.700																			1580071776.0	11.18	20.71
26/01/2020 20:49:37	26012020	260120	204937	286.550	12.202652	-56.193803	286.600	0.250	-0.400	1.160	286.550	-1.800	1.500																			1580071777.0	11.59	21.46
26/01/2020 20:49:38	26012020	260120	204938	286.150	12.202668	-56.193858	286.180	0.410	-0.880	0.940	286.150	-2.300	1.300																			1580071778.0	12.01	22.24
26/01/2020 20:49:39	26012020	260120	204939	285.750	12.202685	-56.193912	285.780	0.440	-0.920	0.800	285.750	-2.300	1.200																			1580071779.0	12.09	22.39
26/01/2020 20:49:40	26012020	260120	204940	285.280	12.202700	-56.193965	285.330	0.220	-0.490	0.880	285.280	-1.900	1.200																			1580071780.0	11.75	21.76
26/01/2020 20:49:41	26012020	260120	204941	284.810	12.202717	-56.194017	284.860	-0.150	0.030	1.100	284.810	-1.400	1.500																			1580071781.0	11.32	20.96
26/01/2020 20:49:42	26012020	260120	204942	284.370	12.202732	-56.194068	284.440	-0.450	0.210	1.200	284.370	-1.200	1.600																			1580071782.0	11.25	20.84
26/01/2020 20:49:43	26012020	260120	204943	283.980	12.202745	-56.194120	284.050	-0.550	0.000	1.060	283.980	-1.400	1.400																			1580071783.0	11.59	21.46
26/01/2020 20:49:44	26012020	260120	204944	283.660	12.202758	-56.194175	283.730	-0.450	-0.330	0.830	283.660	-1.700	1.200																			1580071784.0	11.97	22.17
26/01/2020 20:49:45	26012020	260120	204945	283.440	12.202768	-56.194232	283.520	-0.270	-0.540	0.660	283.440	-1.900	1.000																			1580071785.0	12.09	22.39
26/01/2020 20:49:46	26012020	260120	204946	283.250	12.202780	-56.194287	283.320	-0.070	-0.550	0.690	283.250	-1.900	1.100																			1580071786.0	11.94	22.11
26/01/2020 20:49:47	26012020	260120	204947	282.900	12.202793	-56.194342	282.950	0.110	-0.370	0.970	282.900	-1.800	1.400																			1580071787.0	11.77	21.80
26/01/2020 20:49:48	26012020	260120	204948	282.330	12.202807	-56.194395	282.390	0.260	-0.050	1.370	282.330	-1.400	1.800																			1580071788.0	11.65	21.58
26/01/2020 20:49:49	26012020	260120	204949	281.640	12.202822	-56.194447	281.710	0.290	0.240	1.660	281.640	-1.200	2.000																			1580071789.0	11.51	21.32
26/01/2020 20:49:50	26012020	260120	204950	280.940	12.202835	-56.194498	281.040	0.180	0.300	1.640	280.940	-1.100	2.000																			1580071790.0	11.44	21.19
26/01/2020 20:49:51	26012020	260120	204951	280.380	12.202848	-56.194552	280.500	0.030	0.040	1.350	280.380	-1.400	1.700																			1580071791.0	11.51	21.32
26/01/2020 20:49:52	26012020	260120	204952	280.000	12.202858	-56.194607	280.160	-0.040	-0.420	1.030	280.000	-1.800	1.400																			1580071792.0	11.68	21.63
26/01/2020 20:49:53	26012020	260120	204953	279.780	12.202867	-56.194662	279.950	0.010	-0.840	0.840	279.780	-2.200	1.200																			1580071793.0	11.84	21.93
26/01/2020 20:49:54	26012020	260120	204954	279.660	12.202877	-56.194717	279.860	0.130	-0.980	0.880	279.660	-2.400	1.300																			1580071794.0	11.86	21.96
26/01/2020 20:49:55	26012020	260120	204955	279.600	12.202887	-56.194772	279.820	0.220	-0.820	1.130	279.600	-2.200	1.500																			1580071795.0	11.71	21.69
26/01/2020 20:49:56	26012020	260120	204956	279.540	12.202898	-56.194825	279.760	0.230	-0.510	1.400	279.540	-1.900	1.800																			1580071796.0	11.57	21.43
26/01/2020 20:49:57	26012020	260120	204957	279.430	12.202910	-56.194878	279.660	0.130	-0.160	1.560	279.430	-1.500	1.900																			1580071797.0	11.55	21.39
26/01/2020 20:49:58	26012020	260120	204958	279.210	12.202922	-56.194932	279.430	-0.090	0.150	1.550	279.210	-1.200	1.900																			1580071798.0	11.61	21.50
26/01/2020 20:49:59	26012020	260120	204959	278.880	12.202930	-56.194987	279.100	-0.360	0.330	1.350	278.880	-1.100	1.700	1014.10	26.30	26.20	21.20	21.20	98.00	73.00	73.00	391.00	26.70	40.00	5.10	50.00	4.00	7887	3561.00	27.60	27.60	1580071799.0	11.65	21.58
26/01/2020 20:50:00	26012020	260120	205000	278.480	12.202937	-56.195040	278.690	-0.560	0.310	1.040	278.480	-1.100	1.400																			1580071800.0	11.70	21.67
26/01/2020 20:50:01	26012020	260120	205001	278.060	12.202943	-56.195097	278.260	-0.570	0.090	0.750	278.060	-1.300	1.100																			1580071801.0	11.78	21.82
26/01/2020 20:50:02	26012020	260120	205002	277.680	12.202948	-56.195152	277.880	-0.360	-0.260	0.580	277.680	-1.700	1.000																			1580071802.0	11.85	21.95
26/01/2020 20:50:03	26012020	260120	205003	277.370	12.202953	-56.195208	277.580	-0.020	-0.600	0.680	277.370	-2.000	1.100																			1580071803.0	11.90	22.04
26/01/2020 20:50:04	26012020	260120	205004	277.120	12.202962	-56.195263	277.330	0.320	-0.760	0.990	277.120	-2.100	1.400																			1580071804.0	11.86	21.96
26/01/2020 20:50:05	26012020	260120	205005	276.880	12.202970	-56.195318	277.090	0.490	-0.700	1.290	276.880	-2.100	1.700																			1580071805.0	11.72	21.71
26/01/2020 20:50:06	26012020	260120	205006	276.690	12.202980	-56.195372	276.880	0.470	-0.510	1.480	276.690	-1.900	1.900																			1580071806.0	11.57	21.43
26/01/2020 20:50:07	26012020	260120	205007	276.520	12.202988	-56.195425	276.700	0.260	-0.250	1.450	276.520	-1.600	1.800																			1580071807.0	11.52	21.34
26/01/2020 20:50:08	26012020	260120	205008	276.350	12.202997	-56.195480	276.520	-0.070	0.020	1.270	276.350	-1.400	1.600																			1580071808.0	11.47	21.24
26/01/2020 20:50:09	26012020	260120	205009	276.220	12.203003	-56.195533	276.390	-0.380	0.160	1.080	276.220	-1.200	1.500																			1580071809.0	11.45	21.21
26/01/2020 20:50:10	26012020	260120	205010	276.170	12.203008	-56.195587	276.350	-0.510	0.040	0.900	276.170	-1.400	1.300																			1580071810.0	11.53	21.35
26/01/2020 20:50:11	26012020	260120	205011	276.190	12.203012	-56.195643	276.380	-0.380	-0.290	0.760	276.200	-1.700	1.100																			1580071811.0	11.78	21.82
26/01/2020 20:50:12	26012020	260120	205012	276.280	12.203017	-56.195700	276.460	-0.060	-0.610	0.670	276.280	-2.000	1.100																			1580071812.0	12.02	22.26
26/01/2020 20:50:13	26012020	260120	205013	276.350	12.203022	-56.195757	276.540	0.210	-0.690	0.760	276.350	-2.100	1.100																			1580071813.0	12.07	22.35
26/01/2020 20:50:14	26012020	260120	205014	276.370	12.203027	-56.195812	276.560	0.270	-0.430	1.030	276.370	-1.800	1.400																			1580071814.0	11.87	21.98
26/01/2020 20:50:15	26012020	260120	205015	276.360	12.203033	-56.195867	276.540	0.130	-0.050	1.280	276.360	-1.400	1.700																			1580071815.0	11.53	21.35
26/01/2020 20:50:16	26012020	260120	205016	276.320	12.203040	-56.195920	276.510	-0.040	0.130	1.290	276.320	-1.300	1.700																			1580071816.0	11.38	21.08
26/01/2020 20:50:17	26012020	260120	205017	276.240	12.203045	-56.195973	276.430	-0.090	0.050	1.070	276.240	-1.300	1.500																			1580071817.0	11.53	21.35
26/01/2020 20:50:18	26012020	260120	205018	276.120	12.203050	-56.196030	276.280	-0.040	-0.150	0.750	276.120	-1.500	1.100																			1580071818.0	11.75	21.76
26/01/2020 20:50:19	26012020	260120	205019	275.970	12.203053	-56.196085	276.120	-0.010	-0.310	0.470	275.970	-1.700	0.900																			1580071819.0	11.83	21.91
26/01/2020 20:50:20	26012020	260120	205020	275.840	12.203057	-56.196140	275.980	-0.090	-0.390	0.320	275.840	-1.800	0.700																			1580071820.0	11.71	21.69
26/01/2020 20:50:21	26012020	260120	205021	275.780	12.203062	-56.196195	275.930	-0.230	-0.440	0.280	275.780	-1.800	0.700																			1580071821.0	11.58	21.45
26/01/2020 20:50:22	26012020	260120	205022	275.830	12.203065	-56.196250	275.990	-0.310	-0.490	0.280	275.830	-1.900	0.700																			1580071822.0	11.56	21.41
26/01/2020 20:50:23	26012020	260120	205023	276.010	12.203068	-56.196303	276.190	-0.220	-0.590	0.310	276.010	-2.000	0.700																			1580071823.0	11.62	21.52
26/01/2020 20:50:24	26012020	260120	205024	276.320	12.203073	-56.196360	276.520	0.060	-0.710	0.420	276.320	-2.100	0.800																			1580071824.0	11.79	21.84
26/01/2020 20:50:25	26012020	260120	205025	276.710	12.203078	-56.196417	276.930	0.380	-0.680	0.620	276.710	-2.100	1.000																			1580071825.0	11.99	22.21
26/01/2020 20:50:26	26012020	260120	205026	277.070	12.203085	-56.196472	277.270	0.510	-0.350	0.830	277.070	-1.700	1.200																			1580071826.0	11.98	22.19
26/01/2020 20:50:27	26012020	260120	205027	277.260	12.203092	-56.196527	277.450	0.330	0.190	0.900	277.260	-1.200	1.300																			1580071827.0	11.74	21.74
26/01/2020 20:50:28	26012020	260120	205028	277.310	12.203098	-56.196582	277.500	-0.090	0.630	0.730	277.310	-0.800	1.100																			1580071828.0	11.45	21.21
26/01/2020 20:50:29	26012020	260120	205029	277.250	12.203103	-56.196635	277.440	-0.510	0.670	0.370	277.250	-0.700	0.800																			1580071829.0	11.39	21.09
26/01/2020 20:50:30	26012020	260120	205030	277.190	12.203105	-56.196690	277.370	-0.700	0.300	-0.050	277.190	-1.100	0.300																			1580071830.0	11.63	21.54
26/01/2020 20:50:31	26012020	260120	205031	277.180	12.203107	-56.196747	277.370	-0.550	-0.340	-0.360	277.180	-1.700	0.000																			1580071831.0	11.92	22.08
26/01/2020 20:50:32	26012020	260120	205032	277.250	12.203108	-56.196803	277.450	-0.130	-0.940	-0.430	277.250	-2.300	-0.000																			1580071832.0	12.09	22.39
26/01/2020 20:50:33	26012020	260120	205033	277.420	12.203112	-56.196860	277.630	0.340	-1.200	-0.170	277.420	-2.600	0.200																			1580071833.0	12.06	22.34
26/01/2020 20:50:34	26012020	260120	205034	277.630	12.203118	-56.196915	277.840	0.610	-0.980	0.240	277.630	-2.400	0.600																			1580071834.0	11.79	21.84
26/01/2020 20:50:35	26012020	260120	205035	277.850	12.203127	-56.196968	278.060	0.540	-0.460	0.500	277.850	-1.800	0.900																			1580071835.0	11.40	21.11
26/01/2020 20:50:36	26012020	260120	205036	278.140	12.203135	-56.197022	278.370	0.230	-0.010	0.360	278.140	-1.400	0.800																			1580071836.0	11.17	20.69
26/01/2020 20:50:37	26012020	260120	205037	278.550	12.203140	-56.197073	278.790	-0.100	0.090	-0.020	278.550	-1.300	0.400																			1580071837.0	11.28	20.89
26/01/2020 20:50:38	26012020	260120	205038	279.080	12.203145	-56.197128	279.310	-0.250	-0.120	-0.420	279.080	-1.500	-0.000																			1580071838.0	11.69	21.65
26/01/2020 20:50:39	26012020	260120	205039	279.620	12.203150	-56.197187	279.860	-0.210	-0.400	-0.640	279.620	-1.800	-0.300																			1580071839.0	12.09	22.39
26/01/2020 20:50:40	26012020	260120	205040	280.050	12.203153	-56.197243	280.260	-0.080	-0.450	-0.600	280.050	-1.800	-0.200																			1580071840.0	12.21	22.61
26/01/2020 20:50:41	26012020	260120	205041	280.260	12.203160	-56.197300	280.470	-0.050	-0.160	-0.330	280.260	-1.600	0.100																			1580071841.0	12.00	22.22
26/01/2020 20:50:42	26012020	260120	205042	280.280	12.203167	-56.197355	280.470	-0.170	0.250	-0.010	280.280	-1.200	0.400																			1580071842.0	11.61	21.50
26/01/2020 20:50:43	26012020	260120	205043	280.200	12.203173	-56.197408	280.400	-0.320	0.450	0.220	280.200	-1.000	0.600																			1580071843.0	11.36	21.04
26/01/2020 20:50:44	26012020	260120	205044	280.180	12.203180	-56.197462	280.390	-0.320	0.240	0.210	280.180	-1.200	0.600																			1580071844.0	11.42	21.15
26/01/2020 20:50:45	26012020	260120	205045	280.300	12.203187	-56.197517	280.540	-0.110	-0.290	-0.000	280.300	-1.700	0.400																			1580071845.0	11.71	21.69
26/01/2020 20:50:46	26012020	260120	205046	280.610	12.203193	-56.197572	280.860	0.220	-0.850	-0.260	280.610	-2.300	0.100																			1580071846.0	11.98	22.19
26/01/2020 20:50:47	26012020	260120	205047	281.050	12.203200	-56.197628	281.300	0.480	-1.120	-0.450	281.050	-2.500	-0.100																			1580071847.0	12.02	22.26
26/01/2020 20:50:48	26012020	260120	205048	281.560	12.203208	-56.197683	281.810	0.540	-0.990	-0.510	281.560	-2.400	-0.100																			1580071848.0	11.81	21.87
26/01/2020 20:50:49	26012020	260120	205049	282.110	12.203217	-56.197738	282.350	0.390	-0.580	-0.480	282.110	-2.000	-0.100																			1580071849.0	11.52	21.34
26/01/2020 20:50:50	26012020	260120	205050	282.630	12.203225	-56.197790	282.860	0.150	-0.090	-0.410	282.630	-1.500	-0.000																			1580071850.0	11.37	21.06
26/01/2020 20:50:51	26012020	260120	205051	283.070	12.203235	-56.197843	283.260	-0.090	0.290	-0.370	283.070	-1.100	0.000																			1580071851.0	11.35	21.02
26/01/2020 20:50:52	26012020	260120	205052	283.420	12.203243	-56.197897	283.580	-0.250	0.390	-0.430	283.420	-1.000	-0.100																			1580071852.0	11.46	21.22
26/01/2020 20:50:53	26012020	260120	205053	283.700	12.203252	-56.197952	283.860	-0.320	0.160	-0.590	283.700	-1.300	-0.200																			1580071853.0	11.67	21.61
26/01/2020 20:50:54	26012020	260120	205054	283.940	12.203260	-56.198007	284.090	-0.280	-0.230	-0.780	283.940	-1.600	-0.400																			1580071854.0	11.95	22.13
26/01/2020 20:50:55	26012020	260120	205055	284.190	12.203268	-56.198063	284.320	-0.180	-0.500	-0.960	284.190	-1.900	-0.600																			1580071855.0	12.06	22.34
26/01/2020 20:50:56	26012020	260120	205056	284.470	12.203277	-56.198120	284.580	-0.040	-0.580	-1.050	284.470	-2.000	-0.700																			1580071856.0	11.93	22.09
26/01/2020 20:50:57	26012020	260120	205057	284.770	12.203285	-56.198175	284.860	0.120	-0.500	-1.040	284.770	-1.900	-0.700																			1580071857.0	11.72	21.71
26/01/2020 20:50:58	26012020	260120	205058	285.030	12.203295	-56.198228	285.110	0.240	-0.320	-0.890	285.030	-1.700	-0.500																			1580071858.0	11.59	21.46
26/01/2020 20:50:59	26012020	260120	205059	285.240	12.203307	-56.198282	285.320	0.280	-0.140	-0.690	285.240	-1.500	-0.300	1014.20	26.30	26.20	21.30	21.30	96.00	74.00	74.00	392.00	26.70	38.00	4.30	53.00	3.70	7698	3642.00	27.60	27.60	1580071859.0	11.51	21.32
26/01/2020 20:51:00	26012020	260120	205100	285.480	12.203318	-56.198335	285.550	0.240	-0.100	-0.550	285.480	-1.500	-0.200																			1580071860.0	11.51	21.32
26/01/2020 20:51:01	26012020	260120	205101	285.720	12.203332	-56.198388	285.780	0.130	-0.160	-0.570	285.720	-1.600	-0.200																			1580071861.0	11.63	21.54
26/01/2020 20:51:02	26012020	260120	205102	285.940	12.203343	-56.198442	285.990	-0.030	-0.210	-0.750	285.940	-1.600	-0.400																			1580071862.0	11.71	21.69
26/01/2020 20:51:03	26012020	260120	205103	286.210	12.203355	-56.198495	286.260	-0.200	-0.220	-1.030	286.210	-1.600	-0.700																			1580071863.0	11.64	21.56
26/01/2020 20:51:04	26012020	260120	205104	286.610	12.203365	-56.198550	286.660	-0.280	-0.280	-1.310	286.610	-1.700	-0.900																			1580071864.0	11.59	21.46
26/01/2020 20:51:05	26012020	260120	205105	287.100	12.203375	-56.198603	287.150	-0.170	-0.450	-1.440	287.100	-1.900	-1.100																			1580071865.0	11.62	21.52
26/01/2020 20:51:06	26012020	260120	205106	287.590	12.203387	-56.198658	287.630	0.110	-0.660	-1.280	287.590	-2.100	-0.900																			1580071866.0	11.80	21.85
26/01/2020 20:51:07	26012020	260120	205107	287.920	12.203400	-56.198713	287.970	0.420	-0.700	-0.900	287.920	-2.100	-0.500																			1580071867.0	11.93	22.09
26/01/2020 20:51:08	26012020	260120	205108	288.030	12.203415	-56.198767	288.070	0.520	-0.400	-0.500	288.030	-1.800	-0.100																			1580071868.0	11.86	21.96
26/01/2020 20:51:09	26012020	260120	205109	287.940	12.203432	-56.198818	287.980	0.280	0.140	-0.260	287.940	-1.300	0.100																			1580071869.0	11.55	21.39
26/01/2020 20:51:10	26012020	260120	205110	287.720	12.203447	-56.198868	287.760	-0.160	0.520	-0.270	287.720	-0.900	0.100																			1580071870.0	11.20	20.74
26/01/2020 20:51:11	26012020	260120	205111	287.490	12.203460	-56.198920	287.530	-0.480	0.380	-0.510	287.490	-1.000	-0.100																			1580071871.0	11.24	20.82
26/01/2020 20:51:12	26012020	260120	205112	287.430	12.203472	-56.198975	287.470	-0.440	-0.240	-0.790	287.430	-1.700	-0.400																			1580071872.0	11.67	21.61
26/01/2020 20:51:13	26012020	260120	205113	287.570	12.203483	-56.199030	287.640	-0.060	-0.920	-0.960	287.570	-2.300	-0.600																			1580071873.0	12.16	22.52
26/01/2020 20:51:14	26012020	260120	205114	287.850	12.203498	-56.199087	287.920	0.340	-1.150	-0.900	287.850	-2.600	-0.500																			1580071874.0	12.28	22.74
26/01/2020 20:51:15	26012020	260120	205115	288.130	12.203513	-56.199142	288.200	0.450	-0.750	-0.640	288.130	-2.200	-0.300																			1580071875.0	11.92	22.08
26/01/2020 20:51:16	26012020	260120	205116	288.330	12.203528	-56.199192	288.390	0.240	-0.060	-0.360	288.330	-1.500	0.000																			1580071876.0	11.33	20.98
26/01/2020 20:51:17	26012020	260120	205117	288.460	12.203545	-56.199242	288.520	-0.070	0.390	-0.180	288.460	-1.000	0.200																			1580071877.0	11.03	20.43
26/01/2020 20:51:18	26012020	260120	205118	288.540	12.203558	-56.199293	288.600	-0.220	0.370	-0.130	288.540	-1.100	0.200																			1580071878.0	11.23	20.80
26/01/2020 20:51:19	26012020	260120	205119	288.540	12.203573	-56.199347	288.580	-0.110	0.020	-0.150	288.540	-1.400	0.200																			1580071879.0	11.69	21.65
26/01/2020 20:51:20	26012020	260120	205120	288.430	12.203588	-56.199400	288.470	0.100	-0.350	-0.180	288.430	-1.800	0.200																			1580071880.0	11.97	22.17
26/01/2020 20:51:21	26012020	260120	205121	288.280	12.203603	-56.199455	288.330	0.230	-0.500	-0.220	288.280	-1.900	0.100																			1580071881.0	11.93	22.09
26/01/2020 20:51:22	26012020	260120	205122	288.160	12.203618	-56.199508	288.210	0.180	-0.440	-0.280	288.160	-1.900	0.100																			1580071882.0	11.63	21.54
26/01/2020 20:51:23	26012020	260120	205123	288.110	12.203633	-56.199560	288.150	0.050	-0.420	-0.340	288.110	-1.800	0.000																			1580071883.0	11.39	21.09
26/01/2020 20:51:24	26012020	260120	205124	288.130	12.203647	-56.199612	288.180	-0.020	-0.570	-0.430	288.130	-2.000	-0.100																			1580071884.0	11.45	21.21
26/01/2020 20:51:25	26012020	260120	205125	288.230	12.203662	-56.199665	288.280	0.030	-0.800	-0.570	288.230	-2.200	-0.200																			1580071885.0	11.75	21.76
26/01/2020 20:51:26	26012020	260120	205126	288.340	12.203678	-56.199720	288.380	0.110	-0.820	-0.650	288.340	-2.200	-0.300																			1580071886.0	12.01	22.24
26/01/2020 20:51:27	26012020	260120	205127	288.390	12.203693	-56.199773	288.440	0.070	-0.460	-0.490	288.390	-1.900	-0.100																			1580071887.0	11.96	22.15
26/01/2020 20:51:28	26012020	260120	205128	288.360	12.203708	-56.199827	288.410	-0.130	0.160	-0.110	288.360	-1.300	0.300																			1580071888.0	11.64	21.56
26/01/2020 20:51:29	26012020	260120	205129	288.240	12.203725	-56.199878	288.290	-0.350	0.650	0.210	288.240	-0.800	0.600																			1580071889.0	11.36	21.04
26/01/2020 20:51:30	26012020	260120	205130	288.050	12.203740	-56.199928	288.090	-0.420	0.730	0.300	288.050	-0.700	0.700																			1580071890.0	11.37	21.06
26/01/2020 20:51:31	26012020	260120	205131	287.830	12.203755	-56.199982	287.870	-0.240	0.380	0.210	287.830	-1.000	0.600																			1580071891.0	11.63	21.54
26/01/2020 20:51:32	26012020	260120	205132	287.630	12.203770	-56.200037	287.670	0.120	-0.200	0.090	287.630	-1.600	0.500																			1580071892.0	11.91	22.06
26/01/2020 20:51:33	26012020	260120	205133	287.490	12.203785	-56.200092	287.540	0.470	-0.720	0.120	287.490	-2.100	0.500																			1580071893.0	12.04	22.30
26/01/2020 20:51:34	26012020	260120	205134	287.380	12.203802	-56.200145	287.450	0.640	-0.900	0.270	287.380	-2.300	0.600																			1580071894.0	11.88	22.00
26/01/2020 20:51:35	26012020	260120	205135	287.280	12.203818	-56.200197	287.350	0.560	-0.790	0.430	287.280	-2.200	0.800																			1580071895.0	11.54	21.37
26/01/2020 20:51:36	26012020	260120	205136	287.200	12.203835	-56.200247	287.280	0.320	-0.630	0.470	287.200	-2.000	0.800																			1580071896.0	11.30	20.93
26/01/2020 20:51:37	26012020	260120	205137	287.200	12.203850	-56.200298	287.280	0.040	-0.600	0.320	287.200	-2.000	0.700																			1580071897.0	11.37	21.06
26/01/2020 20:51:38	26012020	260120	205138	287.250	12.203865	-56.200352	287.330	-0.200	-0.640	0.070	287.250	-2.000	0.400																			1580071898.0	11.69	21.65
26/01/2020 20:51:39	26012020	260120	205139	287.230	12.203878	-56.200407	287.290	-0.390	-0.500	-0.120	287.230	-1.900	0.200																			1580071899.0	11.95	22.13
26/01/2020 20:51:40	26012020	260120	205140	287.020	12.203892	-56.200462	287.070	-0.520	-0.080	-0.080	287.020	-1.500	0.300																			1580071900.0	11.91	22.06
26/01/2020 20:51:41	26012020	260120	205141	286.680	12.203905	-56.200515	286.730	-0.560	0.400	0.220	286.680	-1.000	0.600																			1580071901.0	11.63	21.54
26/01/2020 20:51:42	26012020	260120	205142	286.310	12.203918	-56.200567	286.360	-0.430	0.570	0.600	286.310	-0.800	1.000																			1580071902.0	11.48	21.26
26/01/2020 20:51:43	26012020	260120	205143	285.980	12.203933	-56.200620	286.030	-0.110	0.240	0.760	285.980	-1.200	1.100																			1580071903.0	11.66	21.59
26/01/2020 20:51:44	26012020	260120	205144	285.770	12.203948	-56.200675	285.820	0.320	-0.380	0.660	285.770	-1.800	1.000																			1580071904.0	12.08	22.37
26/01/2020 20:51:45	26012020	260120	205145	285.620	12.203965	-56.200732	285.680	0.660	-0.800	0.490	285.620	-2.200	0.900																			1580071905.0	12.32	22.82
26/01/2020 20:51:46	26012020	260120	205146	285.500	12.203980	-56.200787	285.540	0.690	-0.740	0.390	285.500	-2.200	0.800																			1580071906.0	12.11	22.43
26/01/2020 20:51:47	26012020	260120	205147	285.360	12.203995	-56.200838	285.390	0.340	-0.310	0.360	285.360	-1.700	0.700																			1580071907.0	11.64	21.56
26/01/2020 20:51:48	26012020	260120	205148	285.200	12.204008	-56.200890	285.220	-0.150	0.150	0.360	285.200	-1.300	0.700																			1580071908.0	11.19	20.72
26/01/2020 20:51:49	26012020	260120	205149	284.990	12.204022	-56.200942	285.010	-0.500	0.220	0.360	284.990	-1.200	0.700																			1580071909.0	11.12	20.59
26/01/2020 20:51:50	26012020	260120	205150	284.730	12.204033	-56.200993	284.750	-0.510	-0.100	0.450	284.730	-1.500	0.800																			1580071910.0	11.49	21.28
26/01/2020 20:51:51	26012020	260120	205151	284.470	12.204047	-56.201048	284.490	-0.240	-0.520	0.680	284.470	-1.900	1.100																			1580071911.0	11.89	22.02
26/01/2020 20:51:52	26012020	260120	205152	284.260	12.204058	-56.201103	284.280	0.160	-0.810	0.910	284.260	-2.200	1.300																			1580071912.0	12.04	22.30
26/01/2020 20:51:53	26012020	260120	205153	284.050	12.204073	-56.201158	284.100	0.490	-0.830	1.060	284.050	-2.200	1.400																			1580071913.0	11.98	22.19
26/01/2020 20:51:54	26012020	260120	205154	283.850	12.204087	-56.201213	283.890	0.570	-0.540	1.070	283.850	-2.000	1.400																			1580071914.0	11.83	21.91
26/01/2020 20:51:55	26012020	260120	205155	283.660	12.204102	-56.201265	283.710	0.340	-0.110	0.890	283.660	-1.500	1.300																			1580071915.0	11.58	21.45
26/01/2020 20:51:56	26012020	260120	205156	283.530	12.204113	-56.201318	283.580	-0.070	0.180	0.570	283.530	-1.200	0.900																			1580071916.0	11.43	21.17
26/01/2020 20:51:57	26012020	260120	205157	283.450	12.204125	-56.201372	283.510	-0.440	0.120	0.150	283.450	-1.300	0.500																			1580071917.0	11.54	21.37
26/01/2020 20:51:58	26012020	260120	205158	283.410	12.204135	-56.201427	283.480	-0.600	-0.200	-0.220	283.410	-1.600	0.200																			1580071918.0	11.86	21.96
26/01/2020 20:51:59	26012020	260120	205159	283.350	12.204145	-56.201483	283.440	-0.500	-0.540	-0.330	283.350	-2.000	0.000	1014.20	26.30	26.20	21.30	21.30	94.00	74.00	74.00	394.00	26.70	34.00	5.50	42.00	3.40	7497	3578.00	27.70	27.60	1580071919.0	12.13	22.46
26/01/2020 20:52:00	26012020	260120	205200	283.230	12.204155	-56.201540	283.330	-0.240	-0.700	-0.040	283.230	-2.100	0.300																			1580071920.0	12.17	22.54
26/01/2020 20:52:01	26012020	260120	205201	283.020	12.204167	-56.201595	283.100	0.020	-0.550	0.490	283.020	-2.000	0.900																			1580071921.0	12.03	22.28
26/01/2020 20:52:02	26012020	260120	205202	282.690	12.204180	-56.201650	282.770	0.150	-0.170	0.990	282.690	-1.600	1.400																			1580071922.0	11.77	21.80
26/01/2020 20:52:03	26012020	260120	205203	282.280	12.204193	-56.201702	282.370	0.120	0.190	1.250	282.280	-1.200	1.600																			1580071923.0	11.52	21.34
26/01/2020 20:52:04	26012020	260120	205204	281.940	12.204207	-56.201755	282.030	0.010	0.260	1.150	281.940	-1.200	1.500																			1580071924.0	11.46	21.22
26/01/2020 20:52:05	26012020	260120	205205	281.700	12.204218	-56.201808	281.830	-0.110	0.040	0.860	281.700	-1.400	1.200																			1580071925.0	11.64	21.56
26/01/2020 20:52:06	26012020	260120	205206	281.600	12.204228	-56.201863	281.750	-0.150	-0.280	0.480	281.600	-1.700	0.900																			1580071926.0	11.85	21.95
26/01/2020 20:52:07	26012020	260120	205207	281.660	12.204238	-56.201918	281.830	-0.070	-0.570	0.150	281.660	-2.000	0.500																			1580071927.0	11.91	22.06
26/01/2020 20:52:08	26012020	260120	205208	281.800	12.204247	-56.201973	281.960	0.110	-0.720	0.040	281.800	-2.100	0.400																			1580071928.0	11.90	22.04
26/01/2020 20:52:09	26012020	260120	205209	281.870	12.204257	-56.202030	282.020	0.270	-0.610	0.260	281.870	-2.000	0.600																			1580071929.0	11.84	21.93
26/01/2020 20:52:10	26012020	260120	205210	281.800	12.204268	-56.202083	281.950	0.280	-0.240	0.660	281.800	-1.700	1.000																			1580071930.0	11.63	21.54
26/01/2020 20:52:11	26012020	260120	205211	281.560	12.204280	-56.202135	281.710	0.120	0.120	1.000	281.560	-1.300	1.400																			1580071931.0	11.39	21.09
26/01/2020 20:52:12	26012020	260120	205212	281.250	12.204292	-56.202188	281.420	-0.050	0.170	1.080	281.250	-1.200	1.500																			1580071932.0	11.35	21.02
26/01/2020 20:52:13	26012020	260120	205213	280.990	12.204302	-56.202242	281.150	-0.060	-0.170	0.830	280.990	-1.600	1.200																			1580071933.0	11.62	21.52
26/01/2020 20:52:14	26012020	260120	205214	280.860	12.204310	-56.202298	281.040	0.090	-0.630	0.500	280.860	-2.000	0.900																			1580071934.0	12.02	22.26
26/01/2020 20:52:15	26012020	260120	205215	280.820	12.204320	-56.202355	281.010	0.170	-0.840	0.300	280.820	-2.300	0.700																			1580071935.0	12.19	22.58
26/01/2020 20:52:16	26012020	260120	205216	280.810	12.204328	-56.202410	280.990	-0.010	-0.650	0.260	280.810	-2.100	0.600																			1580071936.0	12.00	22.22
26/01/2020 20:52:17	26012020	260120	205217	280.800	12.204338	-56.202465	280.990	-0.370	-0.280	0.320	280.800	-1.700	0.700																			1580071937.0	11.62	21.52
26/01/2020 20:52:18	26012020	260120	205218	280.890	12.204348	-56.202518	281.100	-0.650	-0.160	0.330	280.890	-1.600	0.700																			1580071938.0	11.45	21.21
26/01/2020 20:52:19	26012020	260120	205219	281.100	12.204357	-56.202573	281.300	-0.620	-0.350	0.290	281.100	-1.800	0.700																			1580071939.0	11.77	21.80
26/01/2020 20:52:20	26012020	260120	205220	281.280	12.204365	-56.202630	281.470	-0.320	-0.550	0.410	281.280	-2.000	0.800																			1580071940.0	12.21	22.61
26/01/2020 20:52:21	26012020	260120	205221	281.320	12.204373	-56.202688	281.510	0.010	-0.440	0.680	281.320	-1.900	1.100																			1580071941.0	12.29	22.76
26/01/2020 20:52:22	26012020	260120	205222	281.170	12.204383	-56.202743	281.320	0.160	-0.010	0.920	281.170	-1.400	1.300																			1580071942.0	11.97	22.17
26/01/2020 20:52:23	26012020	260120	205223	280.870	12.204393	-56.202797	281.000	0.100	0.460	1.000	280.870	-1.000	1.400																			1580071943.0	11.57	21.43
26/01/2020 20:52:24	26012020	260120	205224	280.500	12.204403	-56.202850	280.630	-0.020	0.660	0.930	280.500	-0.800	1.300																			1580071944.0	11.39	21.09
26/01/2020 20:52:25	26012020	260120	205225	280.160	12.204412	-56.202903	280.300	-0.010	0.440	0.740	280.160	-1.000	1.100																			1580071945.0	11.50	21.30
26/01/2020 20:52:26	26012020	260120	205226	279.950	12.204420	-56.202958	280.130	0.190	-0.070	0.500	279.950	-1.500	0.900																			1580071946.0	11.75	21.76
26/01/2020 20:52:27	26012020	260120	205227	279.930	12.204428	-56.203015	280.130	0.480	-0.620	0.230	279.930	-2.100	0.600																			1580071947.0	11.93	22.09
26/01/2020 20:52:28	26012020	260120	205228	280.100	12.204438	-56.203070	280.320	0.640	-0.950	0.010	280.100	-2.400	0.400																			1580071948.0	11.95	22.13
26/01/2020 20:52:29	26012020	260120	205229	280.420	12.204447	-56.203125	280.650	0.550	-0.940	-0.080	280.420	-2.400	0.300																			1580071949.0	11.77	21.80
26/01/2020 20:52:30	26012020	260120	205230	280.770	12.204457	-56.203178	280.990	0.220	-0.690	-0.030	280.770	-2.100	0.400																			1580071950.0	11.53	21.35
26/01/2020 20:52:31	26012020	260120	205231	281.000	12.204465	-56.203232	281.200	-0.200	-0.400	0.150	281.000	-1.800	0.500																			1580071951.0	11.40	21.11
26/01/2020 20:52:32	26012020	260120	205232	281.070	12.204473	-56.203285	281.250	-0.500	-0.250	0.390	281.070	-1.700	0.800																			1580071952.0	11.48	21.26
26/01/2020 20:52:33	26012020	260120	205233	281.020	12.204482	-56.203340	281.210	-0.530	-0.320	0.550	281.020	-1.700	0.900																			1580071953.0	11.73	21.72
26/01/2020 20:52:34	26012020	260120	205234	280.970	12.204490	-56.203397	281.140	-0.350	-0.520	0.540	280.970	-1.900	0.900																			1580071954.0	12.03	22.28
26/01/2020 20:52:35	26012020	260120	205235	280.950	12.204500	-56.203453	281.110	-0.160	-0.660	0.360	280.950	-2.100	0.700																			1580071955.0	12.27	22.72
26/01/2020 20:52:36	26012020	260120	205236	280.940	12.204507	-56.203512	281.100	-0.110	-0.560	0.180	280.940	-2.000	0.600																			1580071956.0	12.28	22.74
26/01/2020 20:52:37	26012020	260120	205237	280.920	12.204515	-56.203568	281.060	-0.230	-0.210	0.050	280.920	-1.600	0.400																			1580071957.0	12.06	22.34
26/01/2020 20:52:38	26012020	260120	205238	280.880	12.204523	-56.203623	281.020	-0.410	0.250	-0.020	280.880	-1.200	0.400																			1580071958.0	11.81	21.87
26/01/2020 20:52:39	26012020	260120	205239	280.840	12.204532	-56.203677	280.990	-0.460	0.570	-0.020	280.840	-0.900	0.400																			1580071959.0	11.63	21.54
26/01/2020 20:52:40	26012020	260120	205240	280.850	12.204538	-56.203732	281.000	-0.300	0.490	-0.000	280.850	-0.900	0.400																			1580071960.0	11.66	21.59
26/01/2020 20:52:41	26012020	260120	205241	280.930	12.204547	-56.203788	281.090	0.100	0.070	0.060	280.930	-1.400	0.400																			1580071961.0	11.93	22.09
26/01/2020 20:52:42	26012020	260120	205242	281.090	12.204557	-56.203845	281.260	0.550	-0.330	0.240	281.090	-1.800	0.600																			1580071962.0	12.19	22.58
26/01/2020 20:52:43	26012020	260120	205243	281.310	12.204567	-56.203900	281.490	0.800	-0.430	0.470	281.310	-1.800	0.800																			1580071963.0	12.07	22.35
26/01/2020 20:52:44	26012020	260120	205244	281.520	12.204578	-56.203955	281.710	0.750	-0.250	0.590	281.520	-1.700	1.000																			1580071964.0	11.67	21.61
26/01/2020 20:52:45	26012020	260120	205245	281.630	12.204590	-56.204007	281.790	0.490	-0.110	0.550	281.630	-1.500	0.900																			1580071965.0	11.30	20.93
26/01/2020 20:52:46	26012020	260120	205246	281.600	12.204598	-56.204060	281.750	0.210	-0.260	0.350	281.600	-1.700	0.700																			1580071966.0	11.29	20.91
26/01/2020 20:52:47	26012020	260120	205247	281.520	12.204607	-56.204113	281.670	0.050	-0.630	0.080	281.520	-2.000	0.500																			1580071967.0	11.63	21.54
26/01/2020 20:52:48	26012020	260120	205248	281.500	12.204615	-56.204170	281.640	-0.070	-0.950	-0.230	281.500	-2.400	0.200																			1580071968.0	11.93	22.09
26/01/2020 20:52:49	26012020	260120	205249	281.560	12.204623	-56.204225	281.710	-0.230	-1.050	-0.480	281.560	-2.500	-0.100																			1580071969.0	11.98	22.19
26/01/2020 20:52:50	26012020	260120	205250	281.710	12.204632	-56.204282	281.850	-0.450	-0.870	-0.560	281.710	-2.300	-0.200																			1580071970.0	11.90	22.04
26/01/2020 20:52:51	26012020	260120	205251	281.900	12.204638	-56.204337	282.030	-0.610	-0.580	-0.430	281.900	-2.000	-0.000																			1580071971.0	11.80	21.85
26/01/2020 20:52:52	26012020	260120	205252	282.130	12.204647	-56.204392	282.260	-0.570	-0.330	-0.200	282.130	-1.700	0.200																			1580071972.0	11.84	21.93
26/01/2020 20:52:53	26012020	260120	205253	282.370	12.204657	-56.204448	282.510	-0.310	-0.130	-0.030	282.370	-1.500	0.400																			1580071973.0	12.02	22.26
26/01/2020 20:52:54	26012020	260120	205254	282.590	12.204665	-56.204505	282.710	0.000	0.080	0.100	282.590	-1.300	0.500																			1580071974.0	12.16	22.52
26/01/2020 20:52:55	26012020	260120	205255	282.760	12.204677	-56.204560	282.890	0.180	0.300	0.200	282.760	-1.100	0.600																			1580071975.0	12.10	22.41
26/01/2020 20:52:56	26012020	260120	205256	282.890	12.204688	-56.204617	283.010	0.170	0.460	0.160	282.890	-1.000	0.500																			1580071976.0	11.95	22.13
26/01/2020 20:52:57	26012020	260120	205257	282.990	12.204698	-56.204670	283.100	0.040	0.460	-0.060	282.990	-1.000	0.300																			1580071977.0	11.82	21.89
26/01/2020 20:52:58	26012020	260120	205258	283.030	12.204708	-56.204725	283.130	-0.060	0.260	-0.380	283.030	-1.200	-0.000																			1580071978.0	11.78	21.82
26/01/2020 20:52:59	26012020	260120	205259	283.030	12.204718	-56.204780	283.120	-0.020	-0.100	-0.620	283.030	-1.500	-0.200	1014.20	26.20	26.20	21.20	21.10	91.00	73.00	73.00	395.00	26.60	35.00	5.60	36.00	3.60	7281	3495.00	27.70	27.60	1580071979.0	11.84	21.93
26/01/2020 20:53:00	26012020	260120	205300	283.060	12.204727	-56.204837	283.160	0.180	-0.510	-0.590	283.060	-1.900	-0.200																			1580071980.0	11.89	22.02
26/01/2020 20:53:01	26012020	260120	205301	283.100	12.204737	-56.204892	283.190	0.440	-0.750	-0.270	283.100	-2.200	0.100																			1580071981.0	11.91	22.06
26/01/2020 20:53:02	26012020	260120	205302	283.080	12.204748	-56.204947	283.180	0.570	-0.760	0.110	283.080	-2.200	0.500																			1580071982.0	11.76	21.78
26/01/2020 20:53:03	26012020	260120	205303	283.010	12.204760	-56.204998	283.110	0.460	-0.590	0.330	283.010	-2.000	0.700																			1580071983.0	11.56	21.41
26/01/2020 20:53:04	26012020	260120	205304	282.970	12.204773	-56.205052	283.060	0.130	-0.400	0.250	282.970	-1.800	0.600																			1580071984.0	11.42	21.15
26/01/2020 20:53:05	26012020	260120	205305	283.050	12.204783	-56.205105	283.160	-0.260	-0.360	-0.050	283.050	-1.800	0.300																			1580071985.0	11.42	21.15
26/01/2020 20:53:06	26012020	260120	205306	283.310	12.204793	-56.205158	283.420	-0.490	-0.560	-0.440	283.310	-2.000	-0.100																			1580071986.0	11.66	21.59
26/01/2020 20:53:07	26012020	260120	205307	283.720	12.204802	-56.205215	283.840	-0.430	-0.860	-0.770	283.720	-2.300	-0.400																			1580071987.0	12.05	22.32
26/01/2020 20:53:08	26012020	260120	205308	284.220	12.204810	-56.205273	284.340	-0.150	-0.960	-0.850	284.220	-2.400	-0.500																			1580071988.0	12.35	22.87
26/01/2020 20:53:09	26012020	260120	205309	284.650	12.204820	-56.205330	284.750	0.110	-0.620	-0.560	284.650	-2.000	-0.200																			1580071989.0	12.34	22.85
26/01/2020 20:53:10	26012020	260120	205310	284.850	12.204833	-56.205385	284.920	0.150	0.070	-0.100	284.850	-1.300	0.300																			1580071990.0	12.02	22.26
26/01/2020 20:53:11	26012020	260120	205311	284.760	12.204847	-56.205438	284.810	-0.030	0.750	0.280	284.760	-0.700	0.700																			1580071991.0	11.62	21.52
26/01/2020 20:53:12	26012020	260120	205312	284.500	12.204860	-56.205492	284.540	-0.230	1.000	0.360	284.500	-0.400	0.700																			1580071992.0	11.47	21.24
26/01/2020 20:53:13	26012020	260120	205313	284.260	12.204872	-56.205545	284.310	-0.250	0.630	0.110	284.260	-0.800	0.500																			1580071993.0	11.67	21.61
26/01/2020 20:53:14	26012020	260120	205314	284.180	12.204882	-56.205602	284.230	-0.040	-0.120	-0.280	284.180	-1.500	0.100																			1580071994.0	12.09	22.39
26/01/2020 20:53:15	26012020	260120	205315	284.260	12.204892	-56.205658	284.330	0.220	-0.760	-0.590	284.260	-2.200	-0.200																			1580071995.0	12.33	22.84
26/01/2020 20:53:16	26012020	260120	205316	284.470	12.204902	-56.205715	284.550	0.330	-0.970	-0.650	284.470	-2.400	-0.300																			1580071996.0	12.15	22.50
26/01/2020 20:53:17	26012020	260120	205317	284.690	12.204915	-56.205768	284.770	0.260	-0.800	-0.470	284.690	-2.200	-0.100																			1580071997.0	11.69	21.65
26/01/2020 20:53:18	26012020	260120	205318	284.820	12.204927	-56.205822	284.880	0.100	-0.520	-0.200	284.820	-1.900	0.200																			1580071998.0	11.36	21.04
26/01/2020 20:53:19	26012020	260120	205319	284.870	12.204940	-56.205873	284.930	-0.000	-0.360	0.030	284.870	-1.800	0.400																			1580071999.0	11.38	21.08
26/01/2020 20:53:20	26012020	260120	205320	284.870	12.204952	-56.205927	284.920	-0.040	-0.300	0.130	284.870	-1.700	0.500																			1580072000.0	11.63	21.54
26/01/2020 20:53:21	26012020	260120	205321	284.860	12.204963	-56.205982	284.910	-0.030	-0.260	0.070	284.860	-1.700	0.400																			1580072001.0	11.83	21.91
26/01/2020 20:53:22	26012020	260120	205322	284.860	12.204975	-56.206037	284.920	0.010	-0.190	-0.070	284.860	-1.600	0.300																			1580072002.0	11.85	21.95
26/01/2020 20:53:23	26012020	260120	205323	284.940	12.204988	-56.206090	285.010	0.090	-0.180	-0.150	284.940	-1.600	0.200																			1580072003.0	11.82	21.89
26/01/2020 20:53:24	26012020	260120	205324	285.100	12.205000	-56.206145	285.150	0.200	-0.280	-0.210	285.100	-1.700	0.200																			1580072004.0	11.87	21.98
26/01/2020 20:53:25	26012020	260120	205325	285.280	12.205013	-56.206200	285.340	0.260	-0.400	-0.310	285.280	-1.800	0.100																			1580072005.0	12.01	22.24
26/01/2020 20:53:26	26012020	260120	205326	285.430	12.205027	-56.206257	285.470	0.200	-0.340	-0.380	285.430	-1.800	-0.000																			1580072006.0	12.06	22.34
26/01/2020 20:53:27	26012020	260120	205327	285.510	12.205040	-56.206310	285.530	-0.010	-0.100	-0.380	285.510	-1.500	-0.000																			1580072007.0	11.89	22.02
26/01/2020 20:53:28	26012020	260120	205328	285.550	12.205053	-56.206363	285.570	-0.260	0.090	-0.360	285.550	-1.300	0.000																			1580072008.0	11.64	21.56
26/01/2020 20:53:29	26012020	260120	205329	285.610	12.205065	-56.206418	285.630	-0.400	-0.010	-0.360	285.610	-1.400	0.000																			1580072009.0	11.63	21.54
26/01/2020 20:53:30	26012020	260120	205330	285.700	12.205077	-56.206473	285.720	-0.330	-0.330	-0.380	285.700	-1.800	0.000																			1580072010.0	11.89	22.02
26/01/2020 20:53:31	26012020	260120	205331	285.770	12.205088	-56.206528	285.810	-0.130	-0.640	-0.370	285.790	-2.100	0.000																			1580072011.0	12.13	22.46
26/01/2020 20:53:32	26012020	260120	205332	285.860	12.205102	-56.206585	285.870	0.070	-0.700	-0.220	285.860	-2.100	0.200																			1580072012.0	12.15	22.50
26/01/2020 20:53:33	26012020	260120	205333	285.770	12.205115	-56.206640	285.770	0.160	-0.440	0.130	285.770	-1.900	0.500																			1580072013.0	11.95	22.13
26/01/2020 20:53:34	26012020	260120	205334	285.560	12.205128	-56.206693	285.550	0.100	-0.030	0.410	285.560	-1.400	0.800																			1580072014.0	11.65	21.58
26/01/2020 20:53:35	26012020	260120	205335	285.340	12.205142	-56.206745	285.340	-0.030	0.250	0.380	285.340	-1.200	0.800																			1580072015.0	11.46	21.22
26/01/2020 20:53:36	26012020	260120	205336	285.200	12.205155	-56.206798	285.180	-0.080	0.240	0.130	285.200	-1.200	0.500																			1580072016.0	11.54	21.37
26/01/2020 20:53:37	26012020	260120	205337	285.130	12.205167	-56.206852	285.130	0.020	-0.070	-0.110	285.130	-1.500	0.300																			1580072017.0	11.75	21.76
26/01/2020 20:53:38	26012020	260120	205338	285.120	12.205180	-56.206908	285.130	0.240	-0.490	-0.190	285.120	-1.900	0.200																			1580072018.0	12.00	22.22
26/01/2020 20:53:39	26012020	260120	205339	285.210	12.205193	-56.206963	285.220	0.440	-0.830	-0.100	285.210	-2.200	0.300																			1580072019.0	12.14	22.48
26/01/2020 20:53:40	26012020	260120	205340	285.370	12.205208	-56.207018	285.390	0.530	-0.840	0.080	285.370	-2.300	0.400																			1580072020.0	12.10	22.41
26/01/2020 20:53:41	26012020	260120	205341	285.530	12.205223	-56.207072	285.560	0.410	-0.510	0.240	285.530	-1.900	0.600																			1580072021.0	11.87	21.98
26/01/2020 20:53:42	26012020	260120	205342	285.610	12.205238	-56.207125	285.620	0.100	-0.070	0.300	285.610	-1.500	0.700																			1580072022.0	11.58	21.45
26/01/2020 20:53:43	26012020	260120	205343	285.550	12.205252	-56.207177	285.560	-0.280	0.150	0.170	285.550	-1.300	0.500																			1580072023.0	11.47	21.24
26/01/2020 20:53:44	26012020	260120	205344	285.420	12.205265	-56.207232	285.410	-0.550	-0.020	-0.190	285.420	-1.400	0.200																			1580072024.0	11.68	21.63
26/01/2020 20:53:45	26012020	260120	205345	285.330	12.205275	-56.207287	285.330	-0.600	-0.410	-0.520	285.330	-1.800	-0.100																			1580072025.0	12.09	22.39
26/01/2020 20:53:46	26012020	260120	205346	285.280	12.205285	-56.207345	285.290	-0.460	-0.680	-0.620	285.280	-2.100	-0.200																			1580072026.0	12.35	22.87
26/01/2020 20:53:47	26012020	260120	205347	285.270	12.205297	-56.207402	285.290	-0.260	-0.670	-0.510	285.270	-2.100	-0.100																			1580072027.0	12.25	22.69
26/01/2020 20:53:48	26012020	260120	205348	285.270	12.205308	-56.207457	285.290	-0.050	-0.420	-0.240	285.270	-1.800	0.100																			1580072028.0	12.00	22.22
26/01/2020 20:53:49	26012020	260120	205349	285.240	12.205322	-56.207512	285.270	0.140	-0.090	0.080	285.240	-1.500	0.400																			1580072029.0	11.82	21.89
26/01/2020 20:53:50	26012020	260120	205350	285.160	12.205337	-56.207565	285.180	0.230	0.230	0.380	285.160	-1.200	0.800																			1580072030.0	11.76	21.78
26/01/2020 20:53:51	26012020	260120	205351	285.010	12.205352	-56.207618	285.030	0.180	0.470	0.580	285.010	-1.000	0.900																			1580072031.0	11.72	21.71
26/01/2020 20:53:52	26012020	260120	205352	284.790	12.205367	-56.207670	284.800	0.020	0.440	0.530	284.790	-1.000	0.900																			1580072032.0	11.64	21.56
26/01/2020 20:53:53	26012020	260120	205353	284.570	12.205380	-56.207725	284.580	-0.100	0.080	0.290	284.570	-1.400	0.700																			1580072033.0	11.71	21.69
26/01/2020 20:53:54	26012020	260120	205354	284.380	12.205392	-56.207780	284.400	0.010	-0.480	0.160	284.380	-1.900	0.500																			1580072034.0	11.91	22.06
26/01/2020 20:53:55	26012020	260120	205355	284.210	12.205403	-56.207835	284.230	0.330	-0.930	0.270	284.210	-2.300	0.600																			1580072035.0	12.07	22.35
26/01/2020 20:53:56	26012020	260120	205356	284.050	12.205418	-56.207890	284.080	0.630	-1.110	0.490	284.050	-2.500	0.900																			1580072036.0	12.02	22.26
26/01/2020 20:53:57	26012020	260120	205357	283.950	12.205433	-56.207945	284.000	0.680	-0.990	0.550	283.950	-2.400	0.900																			1580072037.0	11.87	21.98
26/01/2020 20:53:58	26012020	260120	205358	283.960	12.205447	-56.207998	284.020	0.400	-0.680	0.340	283.960	-2.100	0.700																			1580072038.0	11.73	21.72
26/01/2020 20:53:59	26012020	260120	205359	284.110	12.205460	-56.208052	284.170	-0.080	-0.300	-0.030	284.110	-1.700	0.300	1014.20	26.20	26.20	21.10	21.10	88.00	73.00	73.00	396.00	26.60	36.00	5.70	38.00	3.60	7057	3554.00	27.70	27.60	1580072039.0	11.65	21.58
26/01/2020 20:54:00	26012020	260120	205400	284.330	12.205472	-56.208105	284.410	-0.530	-0.050	-0.390	284.330	-1.500	-0.000																			1580072040.0	11.67	21.61
26/01/2020 20:54:01	26012020	260120	205401	284.570	12.205482	-56.208160	284.650	-0.780	-0.040	-0.670	284.570	-1.400	-0.300																			1580072041.0	11.90	22.04
26/01/2020 20:54:02	26012020	260120	205402	284.730	12.205492	-56.208218	284.790	-0.820	-0.110	-0.760	284.730	-1.500	-0.400																			1580072042.0	12.21	22.61
26/01/2020 20:54:03	26012020	260120	205403	284.730	12.205502	-56.208275	284.790	-0.720	-0.030	-0.500	284.730	-1.400	-0.100																			1580072043.0	12.32	22.82
26/01/2020 20:54:04	26012020	260120	205404	284.560	12.205512	-56.208330	284.610	-0.530	0.200	-0.030	284.560	-1.200	0.300																			1580072044.0	12.07	22.35
26/01/2020 20:54:05	26012020	260120	205405	284.260	12.205525	-56.208385	284.300	-0.240	0.340	0.500	284.260	-1.100	0.900																			1580072045.0	11.79	21.84
26/01/2020 20:54:06	26012020	260120	205406	283.870	12.205538	-56.208438	283.910	0.170	0.180	0.950	283.870	-1.200	1.300																			1580072046.0	11.74	21.74
26/01/2020 20:54:07	26012020	260120	205407	283.430	12.205552	-56.208493	283.480	0.610	-0.180	1.150	283.430	-1.600	1.500																			1580072047.0	11.95	22.13
26/01/2020 20:54:08	26012020	260120	205408	282.990	12.205567	-56.208548	283.050	0.910	-0.490	1.100	282.990	-1.900	1.500																			1580072048.0	12.04	22.30
26/01/2020 20:54:09	26012020	260120	205409	282.650	12.205580	-56.208603	282.710	0.920	-0.620	0.840	282.650	-2.000	1.200																			1580072049.0	11.89	22.02
26/01/2020 20:54:10	26012020	260120	205410	282.480	12.205593	-56.208657	282.560	0.640	-0.600	0.470	282.480	-2.000	0.800																			1580072050.0	11.65	21.58
26/01/2020 20:54:11	26012020	260120	205411	282.460	12.205605	-56.208710	282.550	0.170	-0.530	0.080	282.460	-1.900	0.400																			1580072051.0	11.47	21.24
26/01/2020 20:54:12	26012020	260120	205412	282.550	12.205617	-56.208762	282.660	-0.240	-0.540	-0.220	282.550	-1.900	0.100																			1580072052.0	11.45	21.21
26/01/2020 20:54:13	26012020	260120	205413	282.780	12.205627	-56.208817	282.910	-0.430	-0.730	-0.430	282.780	-2.100	-0.100																			1580072053.0	11.68	21.63
26/01/2020 20:54:14	26012020	260120	205414	283.130	12.205637	-56.208873	283.250	-0.370	-0.900	-0.470	283.130	-2.300	-0.100																			1580072054.0	12.09	22.39
26/01/2020 20:54:15	26012020	260120	205415	283.440	12.205647	-56.208930	283.560	-0.230	-0.730	-0.270	283.440	-2.100	0.100																			1580072055.0	12.31	22.80
26/01/2020 20:54:16	26012020	260120	205416	283.570	12.205658	-56.208987	283.670	-0.210	-0.150	0.130	283.570	-1.600	0.500																			1580072056.0	12.12	22.45
26/01/2020 20:54:17	26012020	260120	205417	283.460	12.205670	-56.209040	283.550	-0.360	0.510	0.500	283.460	-0.900	0.900																			1580072057.0	11.74	21.74
26/01/2020 20:54:18	26012020	260120	205418	283.190	12.205680	-56.209093	283.280	-0.500	0.800	0.630	283.190	-0.600	1.000																			1580072058.0	11.53	21.35
26/01/2020 20:54:19	26012020	260120	205419	282.910	12.205692	-56.209148	282.990	-0.430	0.500	0.500	282.910	-0.900	0.900																			1580072059.0	11.73	21.72
26/01/2020 20:54:20	26012020	260120	205420	282.720	12.205702	-56.209205	282.800	-0.110	-0.190	0.280	282.720	-1.600	0.700																			1580072060.0	12.17	22.54
26/01/2020 20:54:21	26012020	260120	205421	282.590	12.205712	-56.209263	282.680	0.290	-0.760	0.160	282.590	-2.200	0.500																			1580072061.0	12.47	23.09
26/01/2020 20:54:22	26012020	260120	205422	282.440	12.205723	-56.209320	282.510	0.470	-0.800	0.230	282.440	-2.200	0.600																			1580072062.0	12.30	22.78
26/01/2020 20:54:23	26012020	260120	205423	282.220	12.205735	-56.209373	282.310	0.330	-0.390	0.360	282.220	-1.800	0.700																			1580072063.0	11.73	21.72
26/01/2020 20:54:24	26012020	260120	205424	282.030	12.205747	-56.209425	282.130	0.060	0.020	0.410	282.030	-1.400	0.800																			1580072064.0	11.23	20.80
26/01/2020 20:54:25	26012020	260120	205425	281.930	12.205757	-56.209477	282.060	-0.060	0.030	0.400	281.930	-1.400	0.800																			1580072065.0	11.20	20.74
26/01/2020 20:54:26	26012020	260120	205426	281.950	12.205768	-56.209532	282.100	0.120	-0.390	0.390	281.970	-1.800	0.800																			1580072066.0	11.63	21.54
26/01/2020 20:54:27	26012020	260120	205427	282.080	12.205778	-56.209588	282.220	0.440	-0.800	0.450	282.080	-2.200	0.800																			1580072067.0	12.17	22.54
26/01/2020 20:54:28	26012020	260120	205428	282.160	12.205790	-56.209645	282.310	0.530	-0.720	0.630	282.170	-2.100	1.000																			1580072068.0	12.26	22.71
26/01/2020 20:54:29	26012020	260120	205429	282.210	12.205803	-56.209698	282.340	0.230	-0.220	0.770	282.210	-1.600	1.100																			1580072069.0	11.80	21.85
26/01/2020 20:54:30	26012020	260120	205430	282.230	12.205815	-56.209752	282.390	-0.230	0.140	0.650	282.230	-1.300	1.000																			1580072070.0	11.32	20.96
26/01/2020 20:54:31	26012020	260120	205431	282.360	12.205825	-56.209803	282.530	-0.500	-0.040	0.200	282.360	-1.500	0.600																			1580072071.0	11.44	21.19
26/01/2020 20:54:32	26012020	260120	205432	282.600	12.205833	-56.209860	282.760	-0.440	-0.600	-0.350	282.600	-2.000	0.000																			1580072072.0	12.08	22.37
26/01/2020 20:54:33	26012020	260120	205433	282.820	12.205842	-56.209920	283.010	-0.220	-0.960	-0.700	282.870	-2.400	-0.300																			1580072073.0	12.61	23.35
26/01/2020 20:54:34	26012020	260120	205434	283.020	12.205850	-56.209978	283.130	-0.090	-0.750	-0.620	283.020	-2.100	-0.200																			1580072074.0	12.52	23.19
26/01/2020 20:54:35	26012020	260120	205435	282.970	12.205858	-56.210033	283.050	-0.160	-0.090	-0.230	282.970	-1.500	0.200																			1580072075.0	11.95	22.13
26/01/2020 20:54:36	26012020	260120	205436	282.780	12.205870	-56.210087	282.860	-0.290	0.490	0.190	282.780	-0.900	0.600																			1580072076.0	11.44	21.19
26/01/2020 20:54:37	26012020	260120	205437	282.550	12.205880	-56.210140	282.650	-0.280	0.590	0.420	282.550	-0.800	0.800																			1580072077.0	11.44	21.19
26/01/2020 20:54:38	26012020	260120	205438	282.300	12.205892	-56.210195	282.400	-0.110	0.240	0.430	282.300	-1.200	0.800																			1580072078.0	11.82	21.89
26/01/2020 20:54:39	26012020	260120	205439	282.020	12.205903	-56.210250	282.120	0.080	-0.210	0.340	282.020	-1.600	0.700																			1580072079.0	12.14	22.48
26/01/2020 20:54:40	26012020	260120	205440	281.810	12.205915	-56.210307	281.870	0.150	-0.460	0.290	281.760	-1.900	0.700																			1580072080.0	12.14	22.48
26/01/2020 20:54:41	26012020	260120	205441	281.570	12.205925	-56.210362	281.690	0.120	-0.480	0.260	281.570	-1.900	0.600																			1580072081.0	11.83	21.91
26/01/2020 20:54:42	26012020	260120	205442	281.520	12.205935	-56.210415	281.640	0.140	-0.470	0.230	281.530	-1.900	0.600																			1580072082.0	11.54	21.37
26/01/2020 20:54:43	26012020	260120	205443	281.660	12.205945	-56.210468	281.790	0.330	-0.620	0.190	281.660	-2.000	0.600																			1580072083.0	11.55	21.39
26/01/2020 20:54:44	26012020	260120	205444	281.880	12.205957	-56.210523	282.080	0.600	-0.840	0.220	281.940	-2.200	0.600																			1580072084.0	11.83	21.91
26/01/2020 20:54:45	26012020	260120	205445	282.210	12.205968	-56.210580	282.410	0.690	-0.850	0.350	282.270	-2.300	0.700																			1580072085.0	12.08	22.37
26/01/2020 20:54:46	26012020	260120	205446	282.460	12.205982	-56.210635	282.610	0.370	-0.460	0.500	282.490	-1.900	0.900																			1580072086.0	12.02	22.26
26/01/2020 20:54:47	26012020	260120	205447	282.520	12.205993	-56.210688	282.630	-0.240	0.110	0.560	282.520	-1.300	0.900																			1580072087.0	11.67	21.61
26/01/2020 20:54:48	26012020	260120	205448	282.460	12.206003	-56.210742	282.560	-0.790	0.420	0.390	282.450	-1.000	0.800																			1580072088.0	11.45	21.21
26/01/2020 20:54:49	26012020	260120	205449	282.430	12.206012	-56.210797	282.550	-0.960	0.250	0.010	282.430	-1.200	0.400																			1580072089.0	11.69	21.65
26/01/2020 20:54:50	26012020	260120	205450	282.460	12.206017	-56.210853	282.580	-0.680	-0.230	-0.310	282.470	-1.600	0.100																			1580072090.0	12.19	22.58
26/01/2020 20:54:51	26012020	260120	205451	282.510	12.206023	-56.210912	282.620	-0.190	-0.590	-0.310	282.520	-2.000	0.100																			1580072091.0	12.49	23.13
26/01/2020 20:54:52	26012020	260120	205452	282.520	12.206033	-56.210970	282.610	0.210	-0.570	0.020	282.510	-2.000	0.400																			1580072092.0	12.32	22.82
26/01/2020 20:54:53	26012020	260120	205453	282.420	12.206045	-56.211025	282.530	0.380	-0.280	0.480	282.420	-1.700	0.900																			1580072093.0	11.87	21.98
26/01/2020 20:54:54	26012020	260120	205454	282.310	12.206057	-56.211078	282.380	0.370	-0.020	0.800	282.280	-1.400	1.200																			1580072094.0	11.57	21.43
26/01/2020 20:54:55	26012020	260120	205455	282.150	12.206070	-56.211132	282.260	0.250	0.050	0.770	282.150	-1.400	1.100																			1580072095.0	11.57	21.43
26/01/2020 20:54:56	26012020	260120	205456	282.100	12.206083	-56.211185	282.220	0.080	-0.070	0.390	282.100	-1.500	0.800																			1580072096.0	11.70	21.67
26/01/2020 20:54:57	26012020	260120	205457	282.160	12.206092	-56.211240	282.290	-0.070	-0.330	-0.100	282.160	-1.700	0.300																			1580072097.0	11.81	21.87
26/01/2020 20:54:58	26012020	260120	205458	282.310	12.206100	-56.211295	282.480	-0.120	-0.610	-0.510	282.350	-2.000	-0.100																			1580072098.0	11.92	22.08
26/01/2020 20:54:59	26012020	260120	205459	282.570	12.206108	-56.211352	282.740	-0.050	-0.790	-0.660	282.630	-2.200	-0.300	1014.20	26.20	26.20	21.10	21.10	86.00	73.00	73.00	398.00	26.60	37.00	5.20	45.00	3.70	6828	3453.00	27.70	27.60	1580072099.0	11.98	22.19
26/01/2020 20:55:00	26012020	260120	205500	282.830	12.206118	-56.211408	282.980	0.120	-0.760	-0.520	282.880	-2.200	-0.100																			1580072100.0	11.98	22.19
26/01/2020 20:55:01	26012020	260120	205501	282.990	12.206128	-56.211463	283.090	0.250	-0.500	-0.210	283.010	-1.900	0.200																			1580072101.0	11.91	22.06
26/01/2020 20:55:02	26012020	260120	205502	283.000	12.206140	-56.211517	283.070	0.270	-0.080	0.120	282.980	-1.500	0.500																			1580072102.0	11.77	21.80
26/01/2020 20:55:03	26012020	260120	205503	282.910	12.206153	-56.211572	282.970	0.130	0.310	0.330	282.880	-1.100	0.700																			1580072103.0	11.66	21.59
26/01/2020 20:55:04	26012020	260120	205504	282.770	12.206165	-56.211625	282.830	-0.090	0.470	0.300	282.750	-0.900	0.700																			1580072104.0	11.61	21.50
26/01/2020 20:55:05	26012020	260120	205505	282.640	12.206175	-56.211678	282.720	-0.270	0.250	0.060	282.630	-1.200	0.400																			1580072105.0	11.72	21.71
26/01/2020 20:55:06	26012020	260120	205506	282.620	12.206185	-56.211735	282.740	-0.290	-0.340	-0.340	282.640	-1.800	0.000																			1580072106.0	11.97	22.17
26/01/2020 20:55:07	26012020	260120	205507	282.750	12.206195	-56.211792	282.890	-0.170	-0.940	-0.690	282.790	-2.400	-0.300																			1580072107.0	12.32	22.82
26/01/2020 20:55:08	26012020	260120	205508	282.930	12.206203	-56.211850	283.050	-0.020	-1.130	-0.730	282.960	-2.500	-0.400																			1580072108.0	12.41	22.98
26/01/2020 20:55:09	26012020	260120	205509	283.020	12.206213	-56.211907	283.090	0.000	-0.700	-0.380	283.020	-2.100	0.000																			1580072109.0	12.07	22.35
26/01/2020 20:55:10	26012020	260120	205510	282.950	12.206225	-56.211958	283.000	-0.140	-0.030	0.080	282.930	-1.400	0.500																			1580072110.0	11.47	21.24
26/01/2020 20:55:11	26012020	260120	205511	282.820	12.206237	-56.212010	282.890	-0.270	0.320	0.400	282.800	-1.100	0.800																			1580072111.0	11.20	20.74
26/01/2020 20:55:12	26012020	260120	205512	282.740	12.206248	-56.212063	282.840	-0.180	0.070	0.420	282.730	-1.400	0.800																			1580072112.0	11.52	21.34
26/01/2020 20:55:13	26012020	260120	205513	282.780	12.206258	-56.212120	282.920	0.150	-0.490	0.250	282.810	-1.900	0.600																			1580072113.0	12.13	22.46
26/01/2020 20:55:14	26012020	260120	205514	282.920	12.206270	-56.212178	283.040	0.500	-0.770	0.110	282.940	-2.200	0.500																			1580072114.0	12.52	23.19
26/01/2020 20:55:15	26012020	260120	205515	282.990	12.206282	-56.212235	283.070	0.560	-0.440	0.120	282.990	-1.800	0.500																			1580072115.0	12.28	22.74
26/01/2020 20:55:16	26012020	260120	205516	282.940	12.206295	-56.212288	283.010	0.260	0.220	0.180	282.920	-1.200	0.500																			1580072116.0	11.64	21.56
26/01/2020 20:55:17	26012020	260120	205517	282.850	12.206307	-56.212340	282.930	-0.160	0.570	0.160	282.830	-0.800	0.500																			1580072117.0	11.17	20.69
26/01/2020 20:55:18	26012020	260120	205518	282.800	12.206317	-56.212393	282.910	-0.370	0.280	0.020	282.800	-1.100	0.400																			1580072118.0	11.37	21.06
26/01/2020 20:55:19	26012020	260120	205519	282.840	12.206327	-56.212448	282.980	-0.220	-0.410	-0.160	282.860	-1.800	0.200																			1580072119.0	11.96	22.15
26/01/2020 20:55:20	26012020	260120	205520	282.950	12.206335	-56.212507	283.090	0.140	-1.000	-0.230	282.980	-2.400	0.100																			1580072120.0	12.38	22.93
26/01/2020 20:55:21	26012020	260120	205521	283.100	12.206347	-56.212563	283.220	0.410	-1.140	-0.030	283.120	-2.500	0.300																			1580072121.0	12.33	22.84
26/01/2020 20:55:22	26012020	260120	205522	283.190	12.206358	-56.212618	283.290	0.400	-0.810	0.320	283.190	-2.200	0.700																			1580072122.0	11.95	22.13
26/01/2020 20:55:23	26012020	260120	205523	283.160	12.206372	-56.212672	283.240	0.120	-0.300	0.550	283.150	-1.700	0.900																			1580072123.0	11.58	21.45
26/01/2020 20:55:24	26012020	260120	205524	283.060	12.206383	-56.212725	283.130	-0.220	0.060	0.480	283.040	-1.400	0.800																			1580072124.0	11.44	21.19
26/01/2020 20:55:25	26012020	260120	205525	282.980	12.206393	-56.212778	283.070	-0.440	0.090	0.210	282.970	-1.300	0.600																			1580072125.0	11.66	21.59
26/01/2020 20:55:26	26012020	260120	205526	282.980	12.206402	-56.212835	283.100	-0.440	-0.060	-0.050	283.000	-1.500	0.300																			1580072126.0	12.01	22.24
26/01/2020 20:55:27	26012020	260120	205527	283.080	12.206412	-56.212892	283.210	-0.310	-0.170	-0.150	283.110	-1.600	0.200																			1580072127.0	12.19	22.58
26/01/2020 20:55:28	26012020	260120	205528	283.190	12.206420	-56.212948	283.280	-0.170	-0.110	-0.080	283.200	-1.500	0.300																			1580072128.0	12.08	22.37
26/01/2020 20:55:29	26012020	260120	205529	283.250	12.206432	-56.213003	283.350	-0.060	0.020	0.100	283.260	-1.400	0.500																			1580072129.0	11.82	21.89
26/01/2020 20:55:30	26012020	260120	205530	283.340	12.206443	-56.213057	283.470	0.080	-0.000	0.290	283.370	-1.400	0.700																			1580072130.0	11.63	21.54
26/01/2020 20:55:31	26012020	260120	205531	283.490	12.206455	-56.213110	283.650	0.330	-0.260	0.430	283.530	-1.700	0.800																			1580072131.0	11.72	21.71
26/01/2020 20:55:32	26012020	260120	205532	283.660	12.206467	-56.213165	283.810	0.580	-0.580	0.490	283.690	-2.000	0.900																			1580072132.0	11.95	22.13
26/01/2020 20:55:33	26012020	260120	205533	283.800	12.206480	-56.213220	283.940	0.680	-0.780	0.360	283.820	-2.200	0.700																			1580072133.0	12.05	22.32
26/01/2020 20:55:34	26012020	260120	205534	283.930	12.206493	-56.213277	284.060	0.550	-0.770	0.060	283.950	-2.200	0.400																			1580072134.0	11.98	22.19
26/01/2020 20:55:35	26012020	260120	205535	284.060	12.206505	-56.213332	284.170	0.270	-0.580	-0.250	284.090	-2.000	0.100																			1580072135.0	11.87	21.98
26/01/2020 20:55:36	26012020	260120	205536	284.190	12.206515	-56.213385	284.280	-0.060	-0.300	-0.450	284.210	-1.700	-0.100																			1580072136.0	11.76	21.78
26/01/2020 20:55:37	26012020	260120	205537	284.270	12.206527	-56.213440	284.340	-0.350	-0.050	-0.490	284.270	-1.500	-0.100																			1580072137.0	11.78	21.82
26/01/2020 20:55:38	26012020	260120	205538	284.240	12.206537	-56.213495	284.260	-0.560	0.070	-0.450	284.220	-1.300	-0.100																			1580072138.0	11.86	21.96
26/01/2020 20:55:39	26012020	260120	205539	284.100	12.206548	-56.213550	284.100	-0.690	0.070	-0.370	284.060	-1.300	0.000																			1580072139.0	11.96	22.15
26/01/2020 20:55:40	26012020	260120	205540	283.930	12.206558	-56.213607	283.950	-0.670	-0.020	-0.260	283.910	-1.400	0.100																			1580072140.0	12.06	22.34
26/01/2020 20:55:41	26012020	260120	205541	283.880	12.206568	-56.213662	283.950	-0.480	-0.160	-0.140	283.890	-1.600	0.200																			1580072141.0	12.05	22.32
26/01/2020 20:55:42	26012020	260120	205542	283.990	12.206578	-56.213718	284.090	-0.140	-0.290	-0.040	284.030	-1.700	0.300																			1580072142.0	12.02	22.26
26/01/2020 20:55:43	26012020	260120	205543	284.160	12.206590	-56.213773	284.250	0.250	-0.370	0.080	284.200	-1.800	0.400																			1580072143.0	11.98	22.19
26/01/2020 20:55:44	26012020	260120	205544	284.280	12.206602	-56.213828	284.350	0.570	-0.350	0.280	284.290	-1.800	0.600																			1580072144.0	11.89	22.02
26/01/2020 20:55:45	26012020	260120	205545	284.310	12.206617	-56.213882	284.360	0.720	-0.300	0.490	284.310	-1.700	0.900																			1580072145.0	11.78	21.82
26/01/2020 20:55:46	26012020	260120	205546	284.280	12.206632	-56.213935	284.320	0.670	-0.290	0.520	284.270	-1.700	0.900																			1580072146.0	11.75	21.76
26/01/2020 20:55:47	26012020	260120	205547	284.230	12.206647	-56.213990	284.260	0.430	-0.270	0.300	284.210	-1.700	0.700																			1580072147.0	11.77	21.80
26/01/2020 20:55:48	26012020	260120	205548	284.170	12.206658	-56.214043	284.220	0.120	-0.290	-0.040	284.160	-1.700	0.300																			1580072148.0	11.76	21.78
26/01/2020 20:55:49	26012020	260120	205549	284.170	12.206670	-56.214098	284.240	-0.120	-0.400	-0.370	284.190	-1.800	0.000																			1580072149.0	11.82	21.89
26/01/2020 20:55:50	26012020	260120	205550	284.260	12.206680	-56.214153	284.340	-0.210	-0.600	-0.540	284.280	-2.000	-0.200																			1580072150.0	11.98	22.19
26/01/2020 20:55:51	26012020	260120	205551	284.360	12.206692	-56.214210	284.420	-0.190	-0.690	-0.500	284.370	-2.100	-0.100																			1580072151.0	12.16	22.52
26/01/2020 20:55:52	26012020	260120	205552	284.390	12.206703	-56.214267	284.450	-0.190	-0.540	-0.300	284.390	-1.900	0.100																			1580072152.0	12.17	22.54
26/01/2020 20:55:53	26012020	260120	205553	284.360	12.206717	-56.214322	284.400	-0.290	-0.230	-0.130	284.350	-1.600	0.200																			1580072153.0	12.00	22.22
26/01/2020 20:55:54	26012020	260120	205554	284.270	12.206728	-56.214377	284.300	-0.430	0.100	-0.000	284.250	-1.300	0.400																			1580072154.0	11.83	21.91
26/01/2020 20:55:55	26012020	260120	205555	284.180	12.206740	-56.214430	284.230	-0.500	0.250	0.030	284.170	-1.200	0.400																			1580072155.0	11.78	21.82
26/01/2020 20:55:56	26012020	260120	205556	284.150	12.206752	-56.214485	284.200	-0.390	0.160	-0.050	284.140	-1.300	0.300																			1580072156.0	11.87	21.98
26/01/2020 20:55:57	26012020	260120	205557	284.120	12.206762	-56.214542	284.170	-0.150	-0.070	-0.120	284.110	-1.500	0.300																			1580072157.0	12.03	22.28
26/01/2020 20:55:58	26012020	260120	205558	284.060	12.206773	-56.214597	284.100	0.120	-0.250	-0.070	284.050	-1.700	0.300																			1580072158.0	12.09	22.39
26/01/2020 20:55:59	26012020	260120	205559	284.030	12.206785	-56.214653	284.060	0.340	-0.350	0.100	284.020	-1.800	0.500	1014.20	26.30	26.20	21.30	21.20	83.00	74.00	74.00	398.00	26.60	41.00	5.20	46.00	4.00	6604	3419.00	27.70	27.60	1580072159.0	11.96	22.15
26/01/2020 20:56:00	26012020	260120	205600	284.020	12.206798	-56.214707	284.070	0.510	-0.390	0.270	284.030	-1.800	0.600																			1580072160.0	11.83	21.91
26/01/2020 20:56:01	26012020	260120	205601	284.030	12.206813	-56.214760	284.080	0.610	-0.400	0.340	284.030	-1.800	0.700																			1580072161.0	11.78	21.82
26/01/2020 20:56:02	26012020	260120	205602	284.030	12.206827	-56.214815	284.080	0.610	-0.420	0.260	284.030	-1.800	0.600																			1580072162.0	11.79	21.84
26/01/2020 20:56:03	26012020	260120	205603	284.030	12.206842	-56.214868	284.060	0.460	-0.410	0.090	284.030	-1.800	0.400																			1580072163.0	11.83	21.91
26/01/2020 20:56:04	26012020	260120	205604	283.990	12.206853	-56.214923	284.020	0.160	-0.380	-0.050	283.980	-1.800	0.300																			1580072164.0	11.85	21.95
26/01/2020 20:56:05	26012020	260120	205605	283.930	12.206867	-56.214978	283.930	-0.180	-0.360	-0.130	283.910	-1.800	0.200																			1580072165.0	11.84	21.93
26/01/2020 20:56:06	26012020	260120	205606	283.830	12.206877	-56.215033	283.850	-0.450	-0.400	-0.180	283.810	-1.800	0.200																			1580072166.0	11.90	22.04
26/01/2020 20:56:07	26012020	260120	205607	283.720	12.206888	-56.215088	283.740	-0.560	-0.450	-0.120	283.700	-1.900	0.300																			1580072167.0	12.00	22.22
26/01/2020 20:56:08	26012020	260120	205608	283.620	12.206900	-56.215145	283.650	-0.500	-0.460	0.120	283.600	-1.900	0.500																			1580072168.0	12.07	22.35
26/01/2020 20:56:09	26012020	260120	205609	283.560	12.206912	-56.215200	283.620	-0.340	-0.440	0.410	283.560	-1.800	0.800																			1580072169.0	12.08	22.37
26/01/2020 20:56:10	26012020	260120	205610	283.590	12.206925	-56.215255	283.670	-0.130	-0.360	0.650	283.600	-1.800	1.000																			1580072170.0	12.08	22.37
26/01/2020 20:56:11	26012020	260120	205611	283.660	12.206937	-56.215312	283.770	0.020	-0.230	0.790	283.670	-1.600	1.100																			1580072171.0	12.05	22.32
26/01/2020 20:56:12	26012020	260120	205612	283.740	12.206950	-56.215367	283.840	0.070	-0.060	0.770	283.760	-1.500	1.100																			1580072172.0	12.01	22.24
26/01/2020 20:56:13	26012020	260120	205613	283.800	12.206962	-56.215422	283.860	0.040	0.120	0.600	283.800	-1.300	1.000																			1580072173.0	11.94	22.11
26/01/2020 20:56:14	26012020	260120	205614	283.800	12.206972	-56.215477	283.860	0.050	0.240	0.400	283.800	-1.200	0.800																			1580072174.0	11.85	21.95
26/01/2020 20:56:15	26012020	260120	205615	283.800	12.206982	-56.215532	283.850	0.120	0.200	0.270	283.800	-1.200	0.600																			1580072175.0	11.81	21.87
26/01/2020 20:56:16	26012020	260120	205616	283.770	12.206993	-56.215587	283.810	0.220	-0.020	0.290	283.760	-1.400	0.700																			1580072176.0	11.88	22.00
26/01/2020 20:56:17	26012020	260120	205617	283.670	12.207007	-56.215642	283.670	0.270	-0.300	0.410	283.640	-1.700	0.800																			1580072177.0	11.98	22.19
26/01/2020 20:56:18	26012020	260120	205618	283.500	12.207020	-56.215697	283.490	0.290	-0.550	0.500	283.460	-2.000	0.900																			1580072178.0	11.99	22.21
26/01/2020 20:56:19	26012020	260120	205619	283.330	12.207033	-56.215752	283.360	0.310	-0.720	0.510	283.310	-2.100	0.900																			1580072179.0	11.97	22.17
26/01/2020 20:56:20	26012020	260120	205620	283.230	12.207045	-56.215807	283.290	0.300	-0.700	0.430	283.220	-2.100	0.800																			1580072180.0	11.92	22.08
26/01/2020 20:56:21	26012020	260120	205621	283.240	12.207057	-56.215862	283.320	0.180	-0.520	0.310	283.260	-1.900	0.700																			1580072181.0	11.79	21.84
26/01/2020 20:56:22	26012020	260120	205622	283.370	12.207068	-56.215915	283.470	-0.030	-0.370	0.140	283.410	-1.800	0.500																			1580072182.0	11.66	21.59
26/01/2020 20:56:23	26012020	260120	205623	283.580	12.207080	-56.215968	283.690	-0.230	-0.430	-0.110	283.620	-1.800	0.300																			1580072183.0	11.72	21.71
26/01/2020 20:56:24	26012020	260120	205624	283.820	12.207090	-56.216025	283.930	-0.330	-0.630	-0.310	283.860	-2.000	0.000																			1580072184.0	12.03	22.28
26/01/2020 20:56:25	26012020	260120	205625	284.020	12.207100	-56.216082	284.100	-0.360	-0.690	-0.360	284.050	-2.100	0.000																			1580072185.0	12.30	22.78
26/01/2020 20:56:26	26012020	260120	205626	284.120	12.207112	-56.216138	284.150	-0.390	-0.440	-0.220	284.110	-1.800	0.200																			1580072186.0	12.28	22.74
26/01/2020 20:56:27	26012020	260120	205627	284.020	12.207122	-56.216195	284.010	-0.430	0.030	0.110	283.990	-1.400	0.500																			1580072187.0	12.04	22.30
26/01/2020 20:56:28	26012020	260120	205628	283.800	12.207133	-56.216250	283.800	-0.420	0.390	0.420	283.750	-1.000	0.800																			1580072188.0	11.79	21.84
26/01/2020 20:56:29	26012020	260120	205629	283.600	12.207145	-56.216303	283.610	-0.290	0.370	0.480	283.560	-1.000	0.800																			1580072189.0	11.83	21.91
26/01/2020 20:56:30	26012020	260120	205630	283.470	12.207157	-56.216360	283.480	-0.020	0.080	0.330	283.440	-1.300	0.700																			1580072190.0	12.15	22.50
26/01/2020 20:56:31	26012020	260120	205631	283.360	12.207170	-56.216417	283.360	0.260	-0.160	0.210	283.330	-1.600	0.600																			1580072191.0	12.36	22.89
26/01/2020 20:56:32	26012020	260120	205632	283.220	12.207182	-56.216473	283.220	0.420	-0.170	0.170	283.190	-1.600	0.500																			1580072192.0	12.18	22.56
26/01/2020 20:56:33	26012020	260120	205633	283.040	12.207193	-56.216528	283.020	0.430	-0.080	0.240	282.990	-1.500	0.600																			1580072193.0	11.82	21.89
26/01/2020 20:56:34	26012020	260120	205634	282.850	12.207207	-56.216582	282.860	0.340	-0.090	0.350	282.820	-1.500	0.700																			1580072194.0	11.58	21.45
26/01/2020 20:56:35	26012020	260120	205635	282.730	12.207220	-56.216635	282.790	0.270	-0.300	0.420	282.720	-1.700	0.800																			1580072195.0	11.57	21.43
26/01/2020 20:56:36	26012020	260120	205636	282.740	12.207232	-56.216688	282.870	0.290	-0.700	0.420	282.760	-2.100	0.800																			1580072196.0	11.75	21.76
26/01/2020 20:56:37	26012020	260120	205637	282.910	12.207243	-56.216743	283.060	0.350	-1.070	0.340	282.940	-2.500	0.700																			1580072197.0	11.99	22.21
26/01/2020 20:56:38	26012020	260120	205638	283.120	12.207257	-56.216800	283.260	0.270	-1.140	0.250	283.160	-2.500	0.600																			1580072198.0	12.12	22.45
26/01/2020 20:56:39	26012020	260120	205639	283.340	12.207267	-56.216855	283.480	-0.020	-0.840	0.160	283.380	-2.200	0.500																			1580072199.0	12.00	22.22
26/01/2020 20:56:40	26012020	260120	205640	283.520	12.207278	-56.216910	283.620	-0.460	-0.320	0.030	283.540	-1.700	0.400																			1580072200.0	11.80	21.85
26/01/2020 20:56:41	26012020	260120	205641	283.600	12.207287	-56.216965	283.650	-0.820	0.080	-0.120	283.600	-1.300	0.200																			1580072201.0	11.73	21.72
26/01/2020 20:56:42	26012020	260120	205642	283.590	12.207295	-56.217020	283.630	-0.890	0.170	-0.200	283.580	-1.200	0.200																			1580072202.0	11.91	22.06
26/01/2020 20:56:43	26012020	260120	205643	283.530	12.207303	-56.217078	283.560	-0.620	-0.020	-0.130	283.520	-1.400	0.200																			1580072203.0	12.27	22.72
26/01/2020 20:56:44	26012020	260120	205644	283.440	12.207315	-56.217137	283.460	-0.160	-0.210	0.110	283.410	-1.600	0.500																			1580072204.0	12.52	23.19
26/01/2020 20:56:45	26012020	260120	205645	283.250	12.207327	-56.217193	283.230	0.210	-0.200	0.520	283.190	-1.600	0.900																			1580072205.0	12.47	23.09
26/01/2020 20:56:46	26012020	260120	205646	282.950	12.207340	-56.217250	282.940	0.320	0.020	0.860	282.880	-1.400	1.200																			1580072206.0	12.17	22.54
26/01/2020 20:56:47	26012020	260120	205647	282.620	12.207355	-56.217303	282.620	0.240	0.270	0.960	282.550	-1.100	1.300																			1580072207.0	11.81	21.87
26/01/2020 20:56:48	26012020	260120	205648	282.340	12.207367	-56.217357	282.370	0.150	0.310	0.770	282.300	-1.100	1.100																			1580072208.0	11.60	21.48
26/01/2020 20:56:49	26012020	260120	205649	282.210	12.207378	-56.217410	282.290	0.200	-0.010	0.430	282.210	-1.400	0.800																			1580072209.0	11.64	21.56
26/01/2020 20:56:50	26012020	260120	205650	282.280	12.207388	-56.217467	282.400	0.360	-0.570	0.070	282.310	-2.000	0.400																			1580072210.0	11.91	22.06
26/01/2020 20:56:51	26012020	260120	205651	282.480	12.207400	-56.217522	282.600	0.460	-0.960	-0.120	282.520	-2.400	0.300																			1580072211.0	12.17	22.54
26/01/2020 20:56:52	26012020	260120	205652	282.670	12.207410	-56.217578	282.790	0.380	-0.910	-0.100	282.710	-2.300	0.300																			1580072212.0	12.08	22.37
26/01/2020 20:56:53	26012020	260120	205653	282.830	12.207422	-56.217633	282.930	0.100	-0.520	0.030	282.860	-1.900	0.400																			1580072213.0	11.72	21.71
26/01/2020 20:56:54	26012020	260120	205654	282.950	12.207433	-56.217685	283.060	-0.210	-0.190	0.130	282.970	-1.600	0.500																			1580072214.0	11.45	21.21
26/01/2020 20:56:55	26012020	260120	205655	283.090	12.207443	-56.217740	283.210	-0.340	-0.210	0.090	283.120	-1.600	0.500																			1580072215.0	11.59	21.46
26/01/2020 20:56:56	26012020	260120	205656	283.220	12.207453	-56.217795	283.320	-0.250	-0.500	-0.030	283.240	-1.900	0.400																			1580072216.0	12.07	22.35
26/01/2020 20:56:57	26012020	260120	205657	283.260	12.207463	-56.217853	283.310	-0.080	-0.660	-0.110	283.250	-2.100	0.300																			1580072217.0	12.47	23.09
26/01/2020 20:56:58	26012020	260120	205658	283.140	12.207473	-56.217912	283.150	-0.040	-0.450	-0.080	283.100	-1.900	0.300																			1580072218.0	12.43	23.02
26/01/2020 20:56:59	26012020	260120	205659	282.940	12.207483	-56.217968	282.940	-0.190	0.000	0.030	282.910	-1.400	0.400	1014.30	26.20	26.20	21.20	21.20	80.00	74.00	73.00	398.00	26.50	36.00	5.00	49.00	3.60	6386	3502.00	27.70	27.60	1580072219.0	12.03	22.28
26/01/2020 20:57:00	26012020	260120	205700	282.770	12.207493	-56.218022	282.780	-0.360	0.290	0.110	282.740	-1.100	0.500																			1580072220.0	11.71	21.69
26/01/2020 20:57:01	26012020	260120	205701	282.640	12.207505	-56.218077	282.670	-0.380	0.210	0.050	282.620	-1.200	0.400																			1580072221.0	11.78	21.82
26/01/2020 20:57:02	26012020	260120	205702	282.570	12.207517	-56.218132	282.620	-0.220	-0.090	-0.120	282.560	-1.500	0.300																			1580072222.0	12.11	22.43
26/01/2020 20:57:03	26012020	260120	205703	282.580	12.207527	-56.218190	282.650	0.010	-0.320	-0.190	282.590	-1.700	0.200																			1580072223.0	12.29	22.76
26/01/2020 20:57:04	26012020	260120	205704	282.690	12.207538	-56.218245	282.790	0.210	-0.420	-0.130	282.710	-1.800	0.200																			1580072224.0	12.14	22.48
26/01/2020 20:57:05	26012020	260120	205705	282.860	12.207550	-56.218302	282.980	0.360	-0.450	0.030	282.900	-1.900	0.400																			1580072225.0	11.96	22.15
26/01/2020 20:57:06	26012020	260120	205706	283.050	12.207563	-56.218355	283.150	0.470	-0.440	0.290	283.080	-1.900	0.700																			1580072226.0	11.92	22.08
26/01/2020 20:57:07	26012020	260120	205707	283.130	12.207577	-56.218410	283.210	0.500	-0.370	0.500	283.130	-1.800	0.900																			1580072227.0	11.93	22.09
26/01/2020 20:57:08	26012020	260120	205708	283.050	12.207590	-56.218465	283.080	0.340	-0.180	0.590	283.020	-1.600	1.000																			1580072228.0	11.91	22.06
26/01/2020 20:57:09	26012020	260120	205709	282.840	12.207602	-56.218520	282.870	-0.010	0.060	0.510	282.800	-1.400	0.900																			1580072229.0	11.78	21.82
26/01/2020 20:57:10	26012020	260120	205710	282.650	12.207612	-56.218573	282.700	-0.400	0.120	0.260	282.620	-1.300	0.600																			1580072230.0	11.63	21.54
26/01/2020 20:57:11	26012020	260120	205711	282.560	12.207620	-56.218628	282.640	-0.570	-0.110	-0.090	282.560	-1.500	0.300																			1580072231.0	11.72	21.71
26/01/2020 20:57:12	26012020	260120	205712	282.580	12.207628	-56.218685	282.660	-0.410	-0.520	-0.340	282.590	-1.900	0.000																			1580072232.0	12.03	22.28
26/01/2020 20:57:13	26012020	260120	205713	282.670	12.207637	-56.218742	282.790	-0.030	-0.850	-0.370	282.700	-2.300	0.000																			1580072233.0	12.22	22.63
26/01/2020 20:57:14	26012020	260120	205714	282.870	12.207647	-56.218798	283.020	0.340	-0.960	-0.170	282.930	-2.400	0.200																			1580072234.0	12.24	22.67
26/01/2020 20:57:15	26012020	260120	205715	283.140	12.207658	-56.218855	283.290	0.500	-0.800	0.150	283.190	-2.200	0.500																			1580072235.0	12.14	22.48
26/01/2020 20:57:16	26012020	260120	205716	283.340	12.207673	-56.218910	283.440	0.430	-0.450	0.450	283.370	-1.800	0.800																			1580072236.0	12.01	22.24
26/01/2020 20:57:17	26012020	260120	205717	283.360	12.207687	-56.218963	283.400	0.170	0.020	0.580	283.340	-1.400	0.900																			1580072237.0	11.92	22.08
26/01/2020 20:57:18	26012020	260120	205718	283.200	12.207700	-56.219018	283.200	-0.190	0.420	0.460	283.150	-1.000	0.800																			1580072238.0	11.81	21.87
26/01/2020 20:57:19	26012020	260120	205719	282.950	12.207710	-56.219073	282.970	-0.480	0.490	0.150	282.910	-0.900	0.500																			1580072239.0	11.81	21.87
26/01/2020 20:57:20	26012020	260120	205720	282.750	12.207720	-56.219128	282.770	-0.550	0.160	-0.160	282.720	-1.300	0.200																			1580072240.0	12.01	22.24
26/01/2020 20:57:21	26012020	260120	205721	282.600	12.207728	-56.219187	282.650	-0.360	-0.360	-0.290	282.580	-1.800	0.100																			1580072241.0	12.28	22.74
26/01/2020 20:57:22	26012020	260120	205722	282.550	12.207738	-56.219245	282.630	-0.020	-0.760	-0.190	282.550	-2.200	0.200																			1580072242.0	12.42	23.00
26/01/2020 20:57:23	26012020	260120	205723	282.560	12.207750	-56.219302	282.620	0.270	-0.730	0.170	282.560	-2.100	0.500																			1580072243.0	12.30	22.78
26/01/2020 20:57:24	26012020	260120	205724	282.540	12.207763	-56.219357	282.570	0.320	-0.320	0.510	282.530	-1.700	0.900																			1580072244.0	11.87	21.98
26/01/2020 20:57:25	26012020	260120	205725	282.500	12.207775	-56.219408	282.550	0.160	0.110	0.610	282.500	-1.300	1.000																			1580072245.0	11.43	21.17
26/01/2020 20:57:26	26012020	260120	205726	282.540	12.207787	-56.219460	282.620	-0.040	0.190	0.410	282.560	-1.200	0.800																			1580072246.0	11.35	21.02
26/01/2020 20:57:27	26012020	260120	205727	282.700	12.207797	-56.219515	282.820	-0.080	-0.170	0.080	282.750	-1.600	0.400																			1580072247.0	11.69	21.65
26/01/2020 20:57:28	26012020	260120	205728	282.990	12.207807	-56.219572	283.110	0.110	-0.700	-0.220	283.040	-2.100	0.100																			1580072248.0	12.15	22.50
26/01/2020 20:57:29	26012020	260120	205729	283.310	12.207815	-56.219630	283.430	0.370	-0.980	-0.300	283.360	-2.400	0.100																			1580072249.0	12.44	23.04
26/01/2020 20:57:30	26012020	260120	205730	283.520	12.207827	-56.219687	283.590	0.480	-0.790	-0.090	283.540	-2.200	0.300																			1580072250.0	12.29	22.76
26/01/2020 20:57:31	26012020	260120	205731	283.520	12.207840	-56.219742	283.540	0.280	-0.290	0.150	283.500	-1.700	0.500																			1580072251.0	11.92	22.08
26/01/2020 20:57:32	26012020	260120	205732	283.390	12.207853	-56.219795	283.400	-0.120	0.160	0.200	283.360	-1.300	0.600																			1580072252.0	11.62	21.52
26/01/2020 20:57:33	26012020	260120	205733	283.240	12.207865	-56.219848	283.260	-0.480	0.270	-0.010	283.210	-1.100	0.400																			1580072253.0	11.66	21.59
26/01/2020 20:57:34	26012020	260120	205734	283.110	12.207873	-56.219905	283.120	-0.590	0.070	-0.260	283.080	-1.400	0.100																			1580072254.0	11.97	22.17
26/01/2020 20:57:35	26012020	260120	205735	282.990	12.207883	-56.219962	283.000	-0.460	-0.250	-0.370	282.970	-1.700	0.000																			1580072255.0	12.24	22.67
26/01/2020 20:57:36	26012020	260120	205736	282.920	12.207893	-56.220018	282.950	-0.200	-0.460	-0.270	282.920	-1.900	0.100																			1580072256.0	12.31	22.80
26/01/2020 20:57:37	26012020	260120	205737	282.920	12.207905	-56.220075	282.990	0.040	-0.500	-0.010	282.930	-1.900	0.400																			1580072257.0	12.13	22.46
26/01/2020 20:57:38	26012020	260120	205738	283.030	12.207917	-56.220130	283.140	0.200	-0.460	0.230	283.060	-1.900	0.600																			1580072258.0	11.92	22.08
26/01/2020 20:57:39	26012020	260120	205739	283.210	12.207930	-56.220185	283.330	0.290	-0.400	0.340	283.250	-1.800	0.700																			1580072259.0	11.86	21.96
26/01/2020 20:57:40	26012020	260120	205740	283.330	12.207942	-56.220240	283.400	0.290	-0.270	0.380	283.340	-1.700	0.700																			1580072260.0	11.91	22.06
26/01/2020 20:57:41	26012020	260120	205741	283.320	12.207953	-56.220295	283.350	0.170	-0.050	0.330	283.310	-1.500	0.700																			1580072261.0	11.86	21.96
26/01/2020 20:57:42	26012020	260120	205742	283.230	12.207965	-56.220348	283.260	-0.010	0.110	0.200	283.210	-1.300	0.600																			1580072262.0	11.74	21.74
26/01/2020 20:57:43	26012020	260120	205743	283.170	12.207975	-56.220403	283.200	-0.150	0.100	0.020	283.160	-1.300	0.400																			1580072263.0	11.75	21.76
26/01/2020 20:57:44	26012020	260120	205744	283.170	12.207987	-56.220458	283.230	-0.170	-0.110	-0.210	283.180	-1.500	0.200																			1580072264.0	11.85	21.95
26/01/2020 20:57:45	26012020	260120	205745	283.250	12.207997	-56.220513	283.310	-0.040	-0.490	-0.430	283.270	-1.900	-0.100																			1580072265.0	12.01	22.24
26/01/2020 20:57:46	26012020	260120	205746	283.360	12.208007	-56.220570	283.410	0.210	-0.910	-0.500	283.380	-2.300	-0.100																			1580072266.0	12.23	22.65
26/01/2020 20:57:47	26012020	260120	205747	283.410	12.208020	-56.220628	283.440	0.400	-1.020	-0.260	283.410	-2.400	0.100																			1580072267.0	12.38	22.93
26/01/2020 20:57:48	26012020	260120	205748	283.340	12.208033	-56.220683	283.350	0.310	-0.610	0.100	283.310	-2.000	0.500																			1580072268.0	12.21	22.61
26/01/2020 20:57:49	26012020	260120	205749	283.150	12.208047	-56.220738	283.160	-0.110	0.070	0.310	283.110	-1.300	0.700																			1580072269.0	11.72	21.71
26/01/2020 20:57:50	26012020	260120	205750	282.950	12.208058	-56.220790	282.960	-0.590	0.440	0.190	282.920	-1.000	0.600																			1580072270.0	11.37	21.06
26/01/2020 20:57:51	26012020	260120	205751	282.850	12.208067	-56.220845	282.900	-0.730	0.190	-0.100	282.850	-1.200	0.300																			1580072271.0	11.62	21.52
26/01/2020 20:57:52	26012020	260120	205752	282.920	12.208075	-56.220902	283.010	-0.410	-0.410	-0.320	282.950	-1.800	0.000																			1580072272.0	12.22	22.63
26/01/2020 20:57:53	26012020	260120	205753	283.110	12.208085	-56.220960	283.200	0.110	-0.810	-0.240	283.150	-2.200	0.100																			1580072273.0	12.63	23.39
26/01/2020 20:57:54	26012020	260120	205754	283.300	12.208098	-56.221018	283.380	0.420	-0.580	0.110	283.320	-2.000	0.500																			1580072274.0	12.43	23.02
26/01/2020 20:57:55	26012020	260120	205755	283.370	12.208112	-56.221072	283.430	0.330	0.040	0.460	283.370	-1.400	0.800																			1580072275.0	11.78	21.82
26/01/2020 20:57:56	26012020	260120	205756	283.350	12.208125	-56.221123	283.410	0.020	0.450	0.540	283.340	-1.000	0.900																			1580072276.0	11.26	20.85
26/01/2020 20:57:57	26012020	260120	205757	283.310	12.208135	-56.221175	283.370	-0.120	0.270	0.320	283.300	-1.100	0.700																			1580072277.0	11.38	21.08
26/01/2020 20:57:58	26012020	260120	205758	283.290	12.208147	-56.221232	283.360	0.030	-0.310	0.020	283.290	-1.700	0.400																			1580072278.0	11.95	22.13
26/01/2020 20:57:59	26012020	260120	205759	283.290	12.208157	-56.221288	283.330	0.310	-0.790	-0.080	283.280	-2.200	0.300	1014.30	26.20	26.20	21.20	21.20	78.00	73.00	73.00	399.00	26.50	34.00	5.30	44.00	3.50	6170	3589.00	27.70	27.70	1580072279.0	12.38	22.93
26/01/2020 20:58:00	26012020	260120	205800	283.250	12.208168	-56.221347	283.280	0.440	-0.840	0.040	283.240	-2.200	0.400																			1580072280.0	12.34	22.85
26/01/2020 20:58:01	26012020	260120	205801	283.170	12.208180	-56.221402	283.190	0.300	-0.570	0.170	283.150	-2.000	0.500																			1580072281.0	11.94	22.11
26/01/2020 20:58:02	26012020	260120	205802	283.100	12.208193	-56.221455	283.110	0.020	-0.300	0.130	283.090	-1.700	0.500																			1580072282.0	11.67	21.61
26/01/2020 20:58:03	26012020	260120	205803	283.060	12.208203	-56.221510	283.080	-0.250	-0.190	-0.050	283.050	-1.600	0.300																			1580072283.0	11.76	21.78
26/01/2020 20:58:04	26012020	260120	205804	283.040	12.208213	-56.221565	283.080	-0.420	-0.170	-0.260	283.040	-1.600	0.100																			1580072284.0	11.96	22.15
26/01/2020 20:58:05	26012020	260120	205805	283.060	12.208223	-56.221622	283.110	-0.450	-0.210	-0.390	283.080	-1.600	-0.000																			1580072285.0	12.05	22.32
26/01/2020 20:58:06	26012020	260120	205806	283.160	12.208233	-56.221677	283.230	-0.340	-0.280	-0.470	283.190	-1.700	-0.100																			1580072286.0	12.07	22.35
26/01/2020 20:58:07	26012020	260120	205807	283.320	12.208243	-56.221733	283.400	-0.130	-0.310	-0.500	283.360	-1.700	-0.100																			1580072287.0	12.07	22.35
26/01/2020 20:58:08	26012020	260120	205808	283.520	12.208255	-56.221788	283.590	0.070	-0.280	-0.400	283.550	-1.700	-0.000																			1580072288.0	12.00	22.22
26/01/2020 20:58:09	26012020	260120	205809	283.690	12.208267	-56.221843	283.750	0.200	-0.200	-0.180	283.720	-1.600	0.200																			1580072289.0	11.94	22.11
26/01/2020 20:58:10	26012020	260120	205810	283.810	12.208280	-56.221898	283.850	0.220	-0.110	0.090	283.820	-1.500	0.500																			1580072290.0	11.88	22.00
26/01/2020 20:58:11	26012020	260120	205811	283.800	12.208293	-56.221953	283.800	0.160	-0.080	0.240	283.780	-1.500	0.600																			1580072291.0	11.86	21.96
26/01/2020 20:58:12	26012020	260120	205812	283.650	12.208307	-56.222007	283.620	0.070	-0.120	0.250	283.610	-1.500	0.600																			1580072292.0	11.90	22.04
26/01/2020 20:58:13	26012020	260120	205813	283.430	12.208318	-56.222063	283.400	0.020	-0.200	0.100	283.390	-1.600	0.500																			1580072293.0	11.93	22.09
26/01/2020 20:58:14	26012020	260120	205814	283.270	12.208328	-56.222118	283.270	0.050	-0.340	-0.130	283.250	-1.800	0.200																			1580072294.0	11.96	22.15
26/01/2020 20:58:15	26012020	260120	205815	283.230	12.208340	-56.222173	283.270	0.130	-0.500	-0.300	283.240	-1.900	0.100																			1580072295.0	12.01	22.24
26/01/2020 20:58:16	26012020	260120	205816	283.280	12.208350	-56.222230	283.320	0.200	-0.580	-0.260	283.300	-2.000	0.100																			1580072296.0	12.05	22.32
26/01/2020 20:58:17	26012020	260120	205817	283.340	12.208363	-56.222285	283.380	0.180	-0.490	-0.010	283.360	-1.900	0.400																			1580072297.0	12.01	22.24
26/01/2020 20:58:18	26012020	260120	205818	283.380	12.208377	-56.222340	283.410	0.030	-0.240	0.220	283.380	-1.700	0.600																			1580072298.0	11.89	22.02
26/01/2020 20:58:19	26012020	260120	205819	283.360	12.208388	-56.222393	283.390	-0.210	-0.030	0.220	283.360	-1.400	0.600																			1580072299.0	11.76	21.78
26/01/2020 20:58:20	26012020	260120	205820	283.330	12.208400	-56.222448	283.350	-0.430	0.020	0.020	283.320	-1.400	0.400																			1580072300.0	11.75	21.76
26/01/2020 20:58:21	26012020	260120	205821	283.300	12.208410	-56.222503	283.320	-0.500	-0.110	-0.160	283.300	-1.500	0.200																			1580072301.0	11.89	22.02
26/01/2020 20:58:22	26012020	260120	205822	283.270	12.208418	-56.222560	283.310	-0.350	-0.340	-0.130	283.270	-1.800	0.200																			1580072302.0	12.03	22.28
26/01/2020 20:58:23	26012020	260120	205823	283.280	12.208428	-56.222617	283.330	0.000	-0.630	0.060	283.280	-2.000	0.400																			1580072303.0	12.11	22.43
26/01/2020 20:58:24	26012020	260120	205824	283.340	12.208442	-56.222672	283.420	0.420	-0.820	0.320	283.360	-2.200	0.700																			1580072304.0	12.20	22.59
26/01/2020 20:58:25	26012020	260120	205825	283.410	12.208455	-56.222728	283.470	0.680	-0.690	0.610	283.410	-2.100	1.000																			1580072305.0	12.23	22.65
26/01/2020 20:58:26	26012020	260120	205826	283.370	12.208470	-56.222783	283.380	0.610	-0.180	0.910	283.340	-1.600	1.300																			1580072306.0	12.00	22.22
26/01/2020 20:58:27	26012020	260120	205827	283.190	12.208485	-56.222837	283.160	0.240	0.390	1.000	283.140	-1.000	1.400																			1580072307.0	11.62	21.52
26/01/2020 20:58:28	26012020	260120	205828	282.940	12.208498	-56.222888	282.920	-0.260	0.570	0.680	282.890	-0.800	1.000																			1580072308.0	11.47	21.24
26/01/2020 20:58:29	26012020	260120	205829	282.720	12.208508	-56.222943	282.720	-0.580	0.270	0.100	282.700	-1.200	0.400																			1580072309.0	11.73	21.72
26/01/2020 20:58:30	26012020	260120	205830	282.650	12.208517	-56.223000	282.680	-0.550	-0.390	-0.490	282.660	-1.800	-0.100																			1580072310.0	12.16	22.52
26/01/2020 20:58:31	26012020	260120	205831	282.770	12.208523	-56.223058	282.860	-0.140	-1.060	-0.730	282.810	-2.500	-0.400																			1580072311.0	12.49	23.13
26/01/2020 20:58:32	26012020	260120	205832	283.020	12.208533	-56.223117	283.130	0.360	-1.340	-0.560	283.080	-2.700	-0.200																			1580072312.0	12.58	23.30
26/01/2020 20:58:33	26012020	260120	205833	283.280	12.208545	-56.223173	283.360	0.570	-0.970	-0.150	283.320	-2.400	0.200																			1580072313.0	12.33	22.84
26/01/2020 20:58:34	26012020	260120	205834	283.380	12.208558	-56.223228	283.410	0.300	-0.100	0.280	283.370	-1.500	0.600																			1580072314.0	11.80	21.85
26/01/2020 20:58:35	26012020	260120	205835	283.280	12.208572	-56.223280	283.280	-0.280	0.680	0.470	283.250	-0.700	0.800																			1580072315.0	11.25	20.84
26/01/2020 20:58:36	26012020	260120	205836	283.090	12.208583	-56.223332	283.090	-0.730	0.830	0.400	283.050	-0.600	0.800																			1580072316.0	11.21	20.76
26/01/2020 20:58:37	26012020	260120	205837	282.910	12.208592	-56.223387	282.930	-0.700	0.260	0.220	282.870	-1.200	0.600																			1580072317.0	11.73	21.72
26/01/2020 20:58:38	26012020	260120	205838	282.800	12.208602	-56.223443	282.830	-0.220	-0.610	0.130	282.790	-2.000	0.500																			1580072318.0	12.41	22.98
26/01/2020 20:58:39	26012020	260120	205839	282.770	12.208612	-56.223503	282.820	0.390	-1.130	0.210	282.770	-2.500	0.600																			1580072319.0	12.71	23.54
26/01/2020 20:58:40	26012020	260120	205840	282.770	12.208623	-56.223560	282.810	0.730	-0.940	0.480	282.760	-2.300	0.900																			1580072320.0	12.41	22.98
26/01/2020 20:58:41	26012020	260120	205841	282.740	12.208638	-56.223613	282.760	0.640	-0.260	0.730	282.740	-1.700	1.100																			1580072321.0	11.73	21.72
26/01/2020 20:58:42	26012020	260120	205842	282.710	12.208652	-56.223665	282.740	0.320	0.250	0.720	282.710	-1.200	1.100																			1580072322.0	11.23	20.80
26/01/2020 20:58:43	26012020	260120	205843	282.770	12.208665	-56.223717	282.850	0.040	0.160	0.380	282.800	-1.300	0.700																			1580072323.0	11.37	21.06
26/01/2020 20:58:44	26012020	260120	205844	282.950	12.208675	-56.223773	283.040	-0.040	-0.330	-0.100	282.990	-1.800	0.300																			1580072324.0	11.99	22.21
26/01/2020 20:58:45	26012020	260120	205845	283.160	12.208685	-56.223832	283.220	-0.010	-0.740	-0.510	283.190	-2.100	-0.100																			1580072325.0	12.48	23.11
26/01/2020 20:58:46	26012020	260120	205846	283.270	12.208693	-56.223890	283.290	-0.070	-0.710	-0.620	283.270	-2.100	-0.300																			1580072326.0	12.45	23.06
26/01/2020 20:58:47	26012020	260120	205847	283.220	12.208703	-56.223945	283.210	-0.310	-0.290	-0.410	283.200	-1.700	-0.000																			1580072327.0	12.01	22.24
26/01/2020 20:58:48	26012020	260120	205848	283.070	12.208713	-56.223998	283.060	-0.590	0.140	-0.100	283.040	-1.300	0.300																			1580072328.0	11.57	21.43
26/01/2020 20:58:49	26012020	260120	205849	282.930	12.208723	-56.224052	282.940	-0.690	0.170	0.100	282.920	-1.200	0.500																			1580072329.0	11.49	21.28
26/01/2020 20:58:50	26012020	260120	205850	282.920	12.208733	-56.224107	282.990	-0.450	-0.270	0.100	282.930	-1.700	0.500																			1580072330.0	11.85	21.95
26/01/2020 20:58:51	26012020	260120	205851	283.050	12.208745	-56.224165	283.140	0.020	-0.760	0.020	283.080	-2.200	0.400																			1580072331.0	12.38	22.93
26/01/2020 20:58:52	26012020	260120	205852	283.220	12.208757	-56.224223	283.310	0.420	-0.760	0.050	283.260	-2.200	0.400																			1580072332.0	12.52	23.19
26/01/2020 20:58:53	26012020	260120	205853	283.320	12.208768	-56.224278	283.360	0.500	-0.200	0.260	283.320	-1.600	0.600																			1580072333.0	12.07	22.35
26/01/2020 20:58:54	26012020	260120	205854	283.240	12.208782	-56.224332	283.260	0.310	0.420	0.500	283.210	-1.000	0.900																			1580072334.0	11.45	21.21
26/01/2020 20:58:55	26012020	260120	205855	283.050	12.208795	-56.224383	283.070	0.130	0.570	0.580	283.010	-0.800	0.900																			1580072335.0	11.27	20.87
26/01/2020 20:58:56	26012020	260120	205856	282.870	12.208807	-56.224437	282.910	0.130	0.130	0.400	282.840	-1.300	0.800																			1580072336.0	11.65	21.58
26/01/2020 20:58:57	26012020	260120	205857	282.750	12.208818	-56.224493	282.800	0.290	-0.570	0.050	282.730	-2.000	0.400																			1580072337.0	12.19	22.58
26/01/2020 20:58:58	26012020	260120	205858	282.710	12.208828	-56.224550	282.790	0.400	-1.020	-0.250	282.710	-2.400	0.100																			1580072338.0	12.42	23.00
26/01/2020 20:58:59	26012020	260120	205859	282.780	12.208838	-56.224607	282.890	0.320	-1.010	-0.390	282.810	-2.400	-0.000	1014.30	26.20	26.20	21.30	21.30	78.00	74.00	74.00	399.00	26.50	35.00	5.70	38.00	3.60	5981	3555.00	27.70	27.70	1580072339.0	12.20	22.59
26/01/2020 20:59:00	26012020	260120	205900	282.930	12.208848	-56.224662	283.030	0.040	-0.670	-0.310	282.970	-2.100	0.100																			1580072340.0	11.79	21.84
26/01/2020 20:59:01	26012020	260120	205901	283.080	12.208860	-56.224715	283.190	-0.310	-0.330	-0.150	283.100	-1.700	0.200																			1580072341.0	11.58	21.45
26/01/2020 20:59:02	26012020	260120	205902	283.170	12.208872	-56.224770	283.260	-0.590	-0.170	-0.070	283.190	-1.600	0.300																			1580072342.0	11.69	21.65
26/01/2020 20:59:03	26012020	260120	205903	283.230	12.208882	-56.224825	283.300	-0.690	-0.120	-0.040	283.240	-1.500	0.300																			1580072343.0	11.97	22.17
26/01/2020 20:59:04	26012020	260120	205904	283.240	12.208890	-56.224882	283.280	-0.580	-0.100	0.050	283.230	-1.500	0.400																			1580072344.0	12.15	22.50
26/01/2020 20:59:05	26012020	260120	205905	283.200	12.208900	-56.224938	283.250	-0.310	-0.040	0.230	283.190	-1.400	0.600																			1580072345.0	12.17	22.54
26/01/2020 20:59:06	26012020	260120	205906	283.140	12.208912	-56.224995	283.170	0.050	0.030	0.500	283.110	-1.400	0.900																			1580072346.0	12.08	22.37
26/01/2020 20:59:07	26012020	260120	205907	283.020	12.208925	-56.225050	283.050	0.360	0.030	0.660	282.990	-1.400	1.000																			1580072347.0	12.02	22.26
26/01/2020 20:59:08	26012020	260120	205908	282.890	12.208938	-56.225105	282.920	0.530	-0.030	0.540	282.870	-1.400	0.900																			1580072348.0	11.98	22.19
26/01/2020 20:59:09	26012020	260120	205909	282.820	12.208950	-56.225160	282.860	0.530	-0.150	0.190	282.820	-1.600	0.500																			1580072349.0	11.92	22.08
26/01/2020 20:59:10	26012020	260120	205910	282.860	12.208962	-56.225215	282.920	0.410	-0.350	-0.210	282.880	-1.800	0.200																			1580072350.0	11.88	22.00
26/01/2020 20:59:11	26012020	260120	205911	283.000	12.208972	-56.225270	283.100	0.250	-0.520	-0.510	283.040	-1.900	-0.100																			1580072351.0	11.89	22.02
26/01/2020 20:59:12	26012020	260120	205912	283.180	12.208982	-56.225325	283.260	0.070	-0.590	-0.570	283.210	-2.000	-0.200																			1580072352.0	11.86	21.96
26/01/2020 20:59:13	26012020	260120	205913	283.350	12.208992	-56.225380	283.450	-0.130	-0.580	-0.450	283.380	-2.000	-0.100																			1580072353.0	11.81	21.87
26/01/2020 20:59:14	26012020	260120	205914	283.530	12.209003	-56.225435	283.620	-0.270	-0.580	-0.300	283.560	-2.000	0.100																			1580072354.0	11.82	21.89
26/01/2020 20:59:15	26012020	260120	205915	283.690	12.209015	-56.225490	283.790	-0.310	-0.550	-0.140	283.710	-2.000	0.200																			1580072355.0	11.94	22.11
26/01/2020 20:59:16	26012020	260120	205916	283.770	12.209025	-56.225547	283.850	-0.230	-0.420	0.000	283.780	-1.800	0.400																			1580072356.0	12.05	22.32
26/01/2020 20:59:17	26012020	260120	205917	283.790	12.209037	-56.225602	283.850	-0.120	-0.160	0.130	283.790	-1.600	0.500																			1580072357.0	12.04	22.30
26/01/2020 20:59:18	26012020	260120	205918	283.800	12.209048	-56.225657	283.860	-0.030	0.100	0.240	283.810	-1.300	0.600																			1580072358.0	11.93	22.09
26/01/2020 20:59:19	26012020	260120	205919	283.840	12.209060	-56.225712	283.920	0.020	0.160	0.260	283.860	-1.300	0.600																			1580072359.0	11.88	22.00
26/01/2020 20:59:20	26012020	260120	205920	283.890	12.209073	-56.225767	283.950	0.020	0.010	0.100	283.890	-1.400	0.500																			1580072360.0	12.01	22.24
26/01/2020 20:59:21	26012020	260120	205921	283.880	12.209085	-56.225823	283.910	-0.010	-0.140	-0.170	283.870	-1.500	0.200																			1580072361.0	12.16	22.52
26/01/2020 20:59:22	26012020	260120	205922	283.830	12.209097	-56.225880	283.850	-0.080	-0.170	-0.450	283.820	-1.600	-0.100																			1580072362.0	12.08	22.37
26/01/2020 20:59:23	26012020	260120	205923	283.770	12.209107	-56.225935	283.790	-0.140	-0.120	-0.560	283.760	-1.500	-0.200																			1580072363.0	11.86	21.96
26/01/2020 20:59:24	26012020	260120	205924	283.710	12.209117	-56.225988	283.730	-0.110	-0.140	-0.460	283.700	-1.500	-0.100																			1580072364.0	11.68	21.63
26/01/2020 20:59:25	26012020	260120	205925	283.680	12.209127	-56.226043	283.720	0.070	-0.340	-0.290	283.690	-1.800	0.100																			1580072365.0	11.66	21.59
26/01/2020 20:59:26	26012020	260120	205926	283.720	12.209140	-56.226097	283.780	0.340	-0.700	-0.160	283.750	-2.100	0.200																			1580072366.0	11.86	21.96
26/01/2020 20:59:27	26012020	260120	205927	283.840	12.209152	-56.226153	283.920	0.580	-0.990	-0.010	283.870	-2.400	0.400																			1580072367.0	12.09	22.39
26/01/2020 20:59:28	26012020	260120	205928	283.980	12.209167	-56.226208	284.040	0.630	-0.950	0.220	284.000	-2.400	0.600																			1580072368.0	12.16	22.52
26/01/2020 20:59:29	26012020	260120	205929	284.060	12.209182	-56.226263	284.100	0.420	-0.570	0.410	284.060	-2.000	0.800																			1580072369.0	11.99	22.21
26/01/2020 20:59:30	26012020	260120	205930	284.030	12.209195	-56.226317	284.050	-0.010	-0.070	0.370	284.010	-1.500	0.700																			1580072370.0	11.76	21.78
26/01/2020 20:59:31	26012020	260120	205931	283.940	12.209208	-56.226372	283.950	-0.480	0.280	0.080	283.920	-1.100	0.400																			1580072371.0	11.68	21.63
26/01/2020 20:59:32	26012020	260120	205932	283.880	12.209218	-56.226427	283.900	-0.790	0.290	-0.310	283.870	-1.100	0.000																			1580072372.0	11.87	21.98
26/01/2020 20:59:33	26012020	260120	205933	283.850	12.209227	-56.226483	283.870	-0.820	0.070	-0.590	283.840	-1.300	-0.200																			1580072373.0	12.18	22.56
26/01/2020 20:59:34	26012020	260120	205934	283.820	12.209235	-56.226540	283.850	-0.580	-0.160	-0.600	283.820	-1.600	-0.200																			1580072374.0	12.38	22.93
26/01/2020 20:59:35	26012020	260120	205935	283.790	12.209245	-56.226598	283.840	-0.180	-0.280	-0.260	283.780	-1.700	0.100																			1580072375.0	12.27	22.72
26/01/2020 20:59:36	26012020	260120	205936	283.790	12.209258	-56.226653	283.860	0.250	-0.320	0.220	283.800	-1.700	0.600																			1580072376.0	12.06	22.34
26/01/2020 20:59:37	26012020	260120	205937	283.810	12.209272	-56.226708	283.860	0.570	-0.330	0.680	283.810	-1.700	1.000																			1580072377.0	11.94	22.11
26/01/2020 20:59:38	26012020	260120	205938	283.780	12.209288	-56.226762	283.820	0.670	-0.310	0.910	283.770	-1.700	1.300																			1580072378.0	11.87	21.98
26/01/2020 20:59:39	26012020	260120	205939	283.720	12.209302	-56.226815	283.740	0.570	-0.300	0.800	283.700	-1.700	1.200																			1580072379.0	11.82	21.89
26/01/2020 20:59:40	26012020	260120	205940	283.610	12.209315	-56.226870	283.620	0.350	-0.260	0.530	283.590	-1.700	0.900																			1580072380.0	11.80	21.85
26/01/2020 20:59:41	26012020	260120	205941	283.500	12.209327	-56.226925	283.500	0.110	-0.210	0.260	283.480	-1.600	0.600																			1580072381.0	11.77	21.80
26/01/2020 20:59:42	26012020	260120	205942	283.390	12.209338	-56.226978	283.400	-0.100	-0.240	-0.020	283.380	-1.600	0.300																			1580072382.0	11.75	21.76
26/01/2020 20:59:43	26012020	260120	205943	283.350	12.209348	-56.227033	283.390	-0.250	-0.390	-0.340	283.360	-1.800	0.000																			1580072383.0	11.83	21.91
26/01/2020 20:59:44	26012020	260120	205944	283.410	12.209358	-56.227090	283.480	-0.300	-0.590	-0.590	283.440	-2.000	-0.200																			1580072384.0	11.99	22.21
26/01/2020 20:59:45	26012020	260120	205945	283.590	12.209367	-56.227147	283.670	-0.260	-0.760	-0.650	283.630	-2.200	-0.300																			1580072385.0	12.12	22.45
26/01/2020 20:59:46	26012020	260120	205946	283.810	12.209378	-56.227203	283.900	-0.160	-0.770	-0.400	283.850	-2.200	-0.000																			1580072386.0	12.17	22.54
26/01/2020 20:59:47	26012020	260120	205947	283.980	12.209392	-56.227258	284.050	-0.050	-0.570	-0.020	284.000	-2.000	0.400																			1580072387.0	12.14	22.48
26/01/2020 20:59:48	26012020	260120	205948	284.030	12.209405	-56.227313	284.060	0.020	-0.250	0.340	284.030	-1.600	0.700																			1580072388.0	12.06	22.34
26/01/2020 20:59:49	26012020	260120	205949	283.960	12.209418	-56.227368	283.970	0.030	0.080	0.540	283.930	-1.300	0.900																			1580072389.0	12.00	22.22
26/01/2020 20:59:50	26012020	260120	205950	283.820	12.209432	-56.227423	283.810	-0.030	0.290	0.500	283.780	-1.100	0.900																			1580072390.0	12.00	22.22
26/01/2020 20:59:51	26012020	260120	205951	283.630	12.209445	-56.227480	283.620	-0.110	0.370	0.320	283.590	-1.000	0.700																			1580072391.0	12.03	22.28
26/01/2020 20:59:52	26012020	260120	205952	283.410	12.209455	-56.227535	283.380	-0.190	0.340	0.180	283.360	-1.100	0.500																			1580072392.0	12.04	22.30
26/01/2020 20:59:53	26012020	260120	205953	283.180	12.209467	-56.227590	283.180	-0.200	0.190	0.090	283.140	-1.200	0.500																			1580072393.0	11.94	22.11
26/01/2020 20:59:54	26012020	260120	205954	283.020	12.209477	-56.227645	283.030	-0.060	-0.120	0.050	283.000	-1.500	0.400																			1580072394.0	11.88	22.00
26/01/2020 20:59:55	26012020	260120	205955	282.960	12.209488	-56.227700	283.000	0.220	-0.550	0.120	282.960	-2.000	0.500																			1580072395.0	11.91	22.06
26/01/2020 20:59:56	26012020	260120	205956	282.980	12.209500	-56.227757	283.040	0.540	-0.940	0.340	282.990	-2.400	0.700																			1580072396.0	12.02	22.26
26/01/2020 20:59:57	26012020	260120	205957	283.030	12.209513	-56.227812	283.080	0.670	-1.050	0.560	283.030	-2.400	0.900																			1580072397.0	12.06	22.34
26/01/2020 20:59:58	26012020	260120	205958	283.030	12.209528	-56.227867	283.070	0.460	-0.790	0.570	283.030	-2.200	0.900																			1580072398.0	11.89	22.02
26/01/2020 20:59:59	26012020	260120	205959	283.050	12.209540	-56.227920	283.110	0.020	-0.430	0.300	283.060	-1.800	0.700	1014.30	26.20	26.20	21.20	21.20	76.00	73.00	73.00	400.00	26.50	35.00	5.40	43.00	3.60	5787	3469.00	27.70	27.70	1580072399.0	11.62	21.52
26/01/2020 21:00:00	26012020	260120	210000	283.180	12.209550	-56.227973	283.280	-0.370	-0.270	-0.070	283.220	-1.700	0.300																			1580072400.0	11.60	21.48
26/01/2020 21:00:01	26012020	260120	210001	283.410	12.209570	-56.228087	283.510	-0.490	-0.380	-0.340	283.460	-1.800	0.000																			1580072401.0	12.37	22.91
26/01/2020 21:00:02	26012020	260120	210002	283.610	12.209570	-56.228087	283.680	-0.380	-0.510	-0.380	283.640	-1.900	-0.000																			1580072402.0	12.37	22.91
26/01/2020 21:00:03	26012020	260120	210003	283.660	12.209580	-56.228145	283.670	-0.250	-0.360	-0.140	283.650	-1.800	0.200																			1580072403.0	12.51	23.17
26/01/2020 21:00:04	26012020	260120	210004	283.530	12.209593	-56.228202	283.530	-0.250	0.080	0.190	283.490	-1.300	0.600																			1580072404.0	12.25	22.69
26/01/2020 21:00:05	26012020	260120	210005	283.300	12.209605	-56.228257	283.280	-0.320	0.480	0.400	283.250	-0.900	0.800																			1580072405.0	11.90	22.04
26/01/2020 21:00:06	26012020	260120	210006	283.070	12.209617	-56.228310	283.070	-0.280	0.550	0.390	283.030	-0.900	0.800																			1580072406.0	11.78	21.82
26/01/2020 21:00:07	26012020	260120	210007	282.940	12.209627	-56.228367	282.970	-0.040	0.210	0.190	282.930	-1.200	0.600																			1580072407.0	11.97	22.17
26/01/2020 21:00:08	26012020	260120	210008	282.900	12.209638	-56.228423	282.930	0.290	-0.290	0.010	282.890	-1.700	0.400																			1580072408.0	12.26	22.71
26/01/2020 21:00:09	26012020	260120	210009	282.860	12.209650	-56.228480	282.880	0.470	-0.590	0.040	282.840	-2.000	0.400																			1580072409.0	12.32	22.82
26/01/2020 21:00:10	26012020	260120	210010	282.790	12.209663	-56.228535	282.810	0.420	-0.580	0.170	282.780	-2.000	0.600																			1580072410.0	12.04	22.30
26/01/2020 21:00:11	26012020	260120	210011	282.710	12.209677	-56.228588	282.730	0.160	-0.380	0.280	282.700	-1.800	0.600																			1580072411.0	11.66	21.59
26/01/2020 21:00:12	26012020	260120	210012	282.640	12.209688	-56.228642	282.670	-0.040	-0.330	0.240	282.630	-1.700	0.600																			1580072412.0	11.47	21.24
26/01/2020 21:00:13	26012020	260120	210013	282.610	12.209698	-56.228695	282.640	-0.050	-0.520	0.120	282.610	-1.900	0.500																			1580072413.0	11.66	21.59
26/01/2020 21:00:14	26012020	260120	210014	282.670	12.209708	-56.228752	282.740	0.080	-0.780	0.040	282.700	-2.200	0.400																			1580072414.0	12.00	22.22
26/01/2020 21:00:15	26012020	260120	210015	282.830	12.209720	-56.228808	282.900	0.150	-0.890	0.050	282.860	-2.300	0.400																			1580072415.0	12.21	22.61
26/01/2020 21:00:16	26012020	260120	210016	282.970	12.209732	-56.228865	283.030	0.070	-0.710	0.100	282.990	-2.100	0.500																			1580072416.0	12.20	22.59
26/01/2020 21:00:17	26012020	260120	210017	283.020	12.209743	-56.228920	283.050	-0.130	-0.280	0.170	283.020	-1.700	0.500																			1580072417.0	12.06	22.34
26/01/2020 21:00:18	26012020	260120	210018	282.970	12.209755	-56.228975	282.970	-0.360	0.220	0.250	282.940	-1.200	0.600																			1580072418.0	11.91	22.06
26/01/2020 21:00:19	26012020	260120	210019	282.800	12.209767	-56.229030	282.790	-0.510	0.580	0.350	282.750	-0.800	0.700																			1580072419.0	11.83	21.91
26/01/2020 21:00:20	26012020	260120	210020	282.580	12.209777	-56.229085	282.590	-0.510	0.510	0.370	282.550	-0.900	0.700																			1580072420.0	11.87	21.98
26/01/2020 21:00:21	26012020	260120	210021	282.490	12.209787	-56.229142	282.560	-0.270	-0.030	0.220	282.500	-1.500	0.600																			1580072421.0	12.13	22.46
26/01/2020 21:00:22	26012020	260120	210022	282.600	12.209797	-56.229200	282.710	0.160	-0.720	0.010	282.650	-2.100	0.400																			1580072422.0	12.52	23.19
26/01/2020 21:00:23	26012020	260120	210023	282.810	12.209808	-56.229258	282.880	0.540	-1.040	-0.090	282.840	-2.400	0.300																			1580072423.0	12.66	23.45
26/01/2020 21:00:24	26012020	260120	210024	282.930	12.209820	-56.229315	282.970	0.610	-0.750	-0.050	282.930	-2.100	0.300																			1580072424.0	12.33	22.84
26/01/2020 21:00:25	26012020	260120	210025	282.890	12.209833	-56.229370	282.880	0.300	-0.060	0.090	282.860	-1.500	0.400																			1580072425.0	11.73	21.72
26/01/2020 21:00:26	26012020	260120	210026	282.700	12.209845	-56.229422	282.670	-0.190	0.470	0.210	282.660	-0.900	0.600																			1580072426.0	11.29	20.91
26/01/2020 21:00:27	26012020	260120	210027	282.500	12.209855	-56.229475	282.500	-0.480	0.410	0.200	282.470	-1.000	0.600																			1580072427.0	11.33	20.98
26/01/2020 21:00:28	26012020	260120	210028	282.420	12.209865	-56.229530	282.460	-0.350	-0.210	0.050	282.420	-1.600	0.400																			1580072428.0	11.86	21.96
26/01/2020 21:00:29	26012020	260120	210029	282.490	12.209875	-56.229587	282.580	0.060	-0.900	-0.110	282.520	-2.300	0.300																			1580072429.0	12.46	23.08
26/01/2020 21:00:30	26012020	260120	210030	282.640	12.209887	-56.229647	282.710	0.390	-1.110	-0.130	282.660	-2.500	0.200																			1580072430.0	12.63	23.39
26/01/2020 21:00:31	26012020	260120	210031	282.750	12.209898	-56.229703	282.820	0.390	-0.740	0.010	282.770	-2.100	0.400																			1580072431.0	12.24	22.67
26/01/2020 21:00:32	26012020	260120	210032	282.810	12.209910	-56.229757	282.890	0.090	0.030	0.270	282.820	-1.400	0.600																			1580072432.0	11.64	21.56
26/01/2020 21:00:33	26012020	260120	210033	282.850	12.209922	-56.229808	282.900	-0.160	0.420	0.420	282.860	-1.000	0.800																			1580072433.0	11.38	21.08
26/01/2020 21:00:34	26012020	260120	210034	282.900	12.209933	-56.229863	282.970	-0.180	0.240	0.420	282.920	-1.200	0.800																			1580072434.0	11.65	21.58
26/01/2020 21:00:35	26012020	260120	210035	283.000	12.209945	-56.229918	283.080	0.000	-0.310	0.320	283.020	-1.700	0.700																			1580072435.0	12.20	22.59
26/01/2020 21:00:36	26012020	260120	210036	283.110	12.209955	-56.229977	283.190	0.150	-0.720	0.250	283.130	-2.100	0.600																			1580072436.0	12.55	23.24
26/01/2020 21:00:37	26012020	260120	210037	283.150	12.209967	-56.230035	283.190	0.080	-0.720	0.250	283.150	-2.100	0.600																			1580072437.0	12.36	22.89
26/01/2020 21:00:38	26012020	260120	210038	283.070	12.209978	-56.230090	283.080	-0.140	-0.520	0.230	283.050	-1.900	0.600																			1580072438.0	11.93	22.09
26/01/2020 21:00:39	26012020	260120	210039	282.980	12.209988	-56.230145	283.010	-0.250	-0.440	0.130	282.970	-1.800	0.500																			1580072439.0	11.74	21.74
26/01/2020 21:00:40	26012020	260120	210040	282.980	12.210000	-56.230200	283.050	-0.130	-0.550	0.000	282.990	-1.900	0.400																			1580072440.0	11.99	22.21
26/01/2020 21:00:41	26012020	260120	210041	283.060	12.210010	-56.230257	283.130	0.090	-0.560	-0.040	283.080	-2.000	0.300																			1580072441.0	12.34	22.85
26/01/2020 21:00:42	26012020	260120	210042	283.100	12.210022	-56.230315	283.140	0.160	-0.250	0.040	283.100	-1.600	0.400																			1580072442.0	12.37	22.91
26/01/2020 21:00:43	26012020	260120	210043	283.020	12.210033	-56.230370	283.030	0.010	0.310	0.210	282.980	-1.100	0.600																			1580072443.0	12.05	22.32
26/01/2020 21:00:44	26012020	260120	210044	282.820	12.210047	-56.230425	282.820	-0.250	0.740	0.340	282.780	-0.700	0.700																			1580072444.0	11.70	21.67
26/01/2020 21:00:45	26012020	260120	210045	282.650	12.210058	-56.230478	282.660	-0.400	0.730	0.300	282.620	-0.700	0.700																			1580072445.0	11.63	21.54
26/01/2020 21:00:46	26012020	260120	210046	282.560	12.210068	-56.230533	282.590	-0.330	0.220	0.080	282.550	-1.200	0.400																			1580072446.0	11.89	22.02
26/01/2020 21:00:47	26012020	260120	210047	282.550	12.210078	-56.230590	282.620	-0.060	-0.500	-0.230	282.570	-1.900	0.100																			1580072447.0	12.23	22.65
26/01/2020 21:00:48	26012020	260120	210048	282.650	12.210087	-56.230648	282.730	0.280	-1.050	-0.440	282.680	-2.500	-0.100																			1580072448.0	12.38	22.93
26/01/2020 21:00:49	26012020	260120	210049	282.820	12.210097	-56.230705	282.910	0.560	-1.200	-0.330	282.860	-2.600	0.000																			1580072449.0	12.22	22.63
26/01/2020 21:00:50	26012020	260120	210050	282.990	12.210108	-56.230760	283.070	0.680	-0.990	0.060	283.020	-2.400	0.400																			1580072450.0	11.92	22.08
26/01/2020 21:00:51	26012020	260120	210051	283.090	12.210122	-56.230813	283.130	0.610	-0.650	0.440	283.090	-2.000	0.800																			1580072451.0	11.72	21.71
26/01/2020 21:00:52	26012020	260120	210052	283.070	12.210137	-56.230867	283.110	0.360	-0.350	0.560	283.050	-1.700	0.900																			1580072452.0	11.77	21.80
26/01/2020 21:00:53	26012020	260120	210053	282.990	12.210150	-56.230922	283.000	-0.100	-0.070	0.370	282.970	-1.500	0.700																			1580072453.0	11.90	22.04
26/01/2020 21:00:54	26012020	260120	210054	282.890	12.210162	-56.230977	282.910	-0.500	0.070	0.020	282.880	-1.300	0.400																			1580072454.0	12.00	22.22
26/01/2020 21:00:55	26012020	260120	210055	282.840	12.210170	-56.231033	282.870	-0.720	-0.000	-0.340	282.840	-1.400	0.000																			1580072455.0	12.11	22.43
26/01/2020 21:00:56	26012020	260120	210056	282.850	12.210178	-56.231092	282.900	-0.680	-0.230	-0.530	282.860	-1.600	-0.200																			1580072456.0	12.31	22.80
26/01/2020 21:00:57	26012020	260120	210057	282.870	12.210188	-56.231150	282.920	-0.440	-0.380	-0.430	282.880	-1.800	-0.100																			1580072457.0	12.48	23.11
26/01/2020 21:00:58	26012020	260120	210058	282.870	12.210198	-56.231207	282.910	-0.170	-0.230	-0.100	282.860	-1.600	0.300																			1580072458.0	12.38	22.93
26/01/2020 21:00:59	26012020	260120	210059	282.840	12.210210	-56.231263	282.890	0.050	0.070	0.300	282.840	-1.300	0.700	1014.30	26.20	26.20	21.10	21.10	72.00	73.00	73.00	399.00	26.40	31.00	5.10	48.00	3.20	5597	3585.00	27.70	27.70	1580072459.0	12.00	22.22
26/01/2020 21:01:00	26012020	260120	210100	282.880	12.210223	-56.231317	282.950	0.210	0.190	0.590	282.890	-1.200	1.000																			1580072460.0	11.75	21.76
26/01/2020 21:01:01	26012020	260120	210101	282.950	12.210237	-56.231370	283.010	0.350	0.010	0.660	282.960	-1.400	1.000																			1580072461.0	11.83	21.91
26/01/2020 21:01:02	26012020	260120	210102	282.960	12.210250	-56.231427	283.000	0.440	-0.290	0.550	282.950	-1.700	0.900																			1580072462.0	12.08	22.37
26/01/2020 21:01:03	26012020	260120	210103	282.890	12.210262	-56.231483	282.920	0.430	-0.460	0.410	282.870	-1.900	0.800																			1580072463.0	12.15	22.50
26/01/2020 21:01:04	26012020	260120	210104	282.800	12.210273	-56.231538	282.820	0.270	-0.500	0.250	282.770	-1.900	0.600																			1580072464.0	11.99	22.21
26/01/2020 21:01:05	26012020	260120	210105	282.700	12.210283	-56.231593	282.740	0.050	-0.480	0.080	282.690	-1.900	0.400																			1580072465.0	11.82	21.89
26/01/2020 21:01:06	26012020	260120	210106	282.660	12.210293	-56.231648	282.730	-0.140	-0.520	-0.170	282.670	-1.900	0.200																			1580072466.0	11.79	21.84
26/01/2020 21:01:07	26012020	260120	210107	282.740	12.210303	-56.231703	282.810	-0.220	-0.610	-0.360	282.770	-2.000	-0.000																			1580072467.0	11.95	22.13
26/01/2020 21:01:08	26012020	260120	210108	282.920	12.210313	-56.231760	283.020	-0.190	-0.700	-0.400	282.960	-2.100	-0.000																			1580072468.0	12.14	22.48
26/01/2020 21:01:09	26012020	260120	210109	283.130	12.210323	-56.231817	283.220	-0.100	-0.670	-0.220	283.170	-2.000	0.200																			1580072469.0	12.27	22.72
26/01/2020 21:01:10	26012020	260120	210110	283.330	12.210337	-56.231873	283.430	-0.010	-0.420	0.080	283.360	-1.800	0.400																			1580072470.0	12.26	22.71
26/01/2020 21:01:11	26012020	260120	210111	283.480	12.210348	-56.231930	283.560	0.020	-0.030	0.260	283.500	-1.400	0.600																			1580072471.0	12.15	22.50
26/01/2020 21:01:12	26012020	260120	210112	283.530	12.210362	-56.231985	283.570	-0.020	0.370	0.360	283.520	-1.000	0.700																			1580072472.0	11.98	22.19
26/01/2020 21:01:13	26012020	260120	210113	283.410	12.210373	-56.232038	283.420	-0.100	0.640	0.360	283.370	-0.800	0.700																			1580072473.0	11.82	21.89
26/01/2020 21:01:14	26012020	260120	210114	283.170	12.210385	-56.232093	283.130	-0.160	0.510	0.180	283.110	-0.900	0.500																			1580072474.0	11.82	21.89
26/01/2020 21:01:15	26012020	260120	210115	282.920	12.210395	-56.232150	282.900	-0.110	-0.000	-0.060	282.880	-1.400	0.300																			1580072475.0	11.99	22.21
26/01/2020 21:01:16	26012020	260120	210116	282.770	12.210405	-56.232207	282.790	0.090	-0.660	-0.260	282.750	-2.100	0.100																			1580072476.0	12.24	22.67
26/01/2020 21:01:17	26012020	260120	210117	282.720	12.210417	-56.232263	282.770	0.330	-1.070	-0.250	282.720	-2.500	0.100																			1580072477.0	12.37	22.91
26/01/2020 21:01:18	26012020	260120	210118	282.720	12.210428	-56.232320	282.780	0.420	-1.000	0.010	282.720	-2.400	0.400																			1580072478.0	12.18	22.56
26/01/2020 21:01:19	26012020	260120	210119	282.760	12.210442	-56.232375	282.810	0.280	-0.640	0.250	282.770	-2.000	0.600																			1580072479.0	11.79	21.84
26/01/2020 21:01:20	26012020	260120	210120	282.840	12.210453	-56.232427	282.920	0.010	-0.310	0.310	282.870	-1.700	0.700																			1580072480.0	11.58	21.45
26/01/2020 21:01:21	26012020	260120	210121	283.020	12.210465	-56.232482	283.130	-0.210	-0.240	0.120	283.070	-1.600	0.500																			1580072481.0	11.71	21.69
26/01/2020 21:01:22	26012020	260120	210122	283.290	12.210477	-56.232538	283.380	-0.300	-0.350	-0.090	283.350	-1.800	0.300																			1580072482.0	12.07	22.35
26/01/2020 21:01:23	26012020	260120	210123	283.540	12.210487	-56.232595	283.610	-0.290	-0.460	-0.220	283.570	-1.900	0.100																			1580072483.0	12.38	22.93
26/01/2020 21:01:24	26012020	260120	210124	283.630	12.210497	-56.232653	283.660	-0.300	-0.290	-0.140	283.630	-1.700	0.200																			1580072484.0	12.40	22.96
26/01/2020 21:01:25	26012020	260120	210125	283.600	12.210508	-56.232708	283.620	-0.340	0.030	0.050	283.580	-1.400	0.400																			1580072485.0	12.15	22.50
26/01/2020 21:01:26	26012020	260120	210126	283.540	12.210520	-56.232765	283.570	-0.320	0.220	0.210	283.520	-1.200	0.600																			1580072486.0	11.95	22.13
26/01/2020 21:01:27	26012020	260120	210127	283.430	12.210532	-56.232820	283.450	-0.130	0.230	0.380	283.410	-1.200	0.800																			1580072487.0	12.01	22.24
26/01/2020 21:01:28	26012020	260120	210128	283.260	12.210543	-56.232877	283.280	0.220	0.110	0.580	283.220	-1.300	1.000																			1580072488.0	12.15	22.50
26/01/2020 21:01:29	26012020	260120	210129	283.050	12.210557	-56.232932	283.040	0.610	-0.060	0.710	283.010	-1.500	1.100																			1580072489.0	12.18	22.56
26/01/2020 21:01:30	26012020	260120	210130	282.850	12.210568	-56.232988	282.840	0.740	-0.150	0.680	282.810	-1.500	1.000																			1580072490.0	12.05	22.32
26/01/2020 21:01:31	26012020	260120	210131	282.670	12.210582	-56.233042	282.680	0.610	-0.240	0.490	282.650	-1.600	0.800																			1580072491.0	11.84	21.93
26/01/2020 21:01:32	26012020	260120	210132	282.610	12.210595	-56.233097	282.660	0.350	-0.450	0.130	282.630	-1.900	0.400																			1580072492.0	11.73	21.72
26/01/2020 21:01:33	26012020	260120	210133	282.770	12.210605	-56.233152	282.850	0.050	-0.840	-0.360	282.830	-2.300	-0.000																			1580072493.0	11.86	21.96
26/01/2020 21:01:34	26012020	260120	210134	283.100	12.210615	-56.233208	283.210	-0.180	-1.130	-0.750	283.180	-2.500	-0.400																			1580072494.0	12.15	22.50
26/01/2020 21:01:35	26012020	260120	210135	283.460	12.210625	-56.233265	283.550	-0.360	-1.060	-0.850	283.520	-2.400	-0.500																			1580072495.0	12.22	22.63
26/01/2020 21:01:36	26012020	260120	210136	283.720	12.210633	-56.233320	283.800	-0.510	-0.590	-0.630	283.760	-2.000	-0.300																			1580072496.0	12.01	22.24
26/01/2020 21:01:37	26012020	260120	210137	283.880	12.210645	-56.233375	283.920	-0.580	-0.200	-0.360	283.890	-1.600	0.000																			1580072497.0	11.83	21.91
26/01/2020 21:01:38	26012020	260120	210138	283.930	12.210657	-56.233430	283.960	-0.540	0.030	-0.100	283.930	-1.400	0.300																			1580072498.0	11.92	22.08
26/01/2020 21:01:39	26012020	260120	210139	283.890	12.210668	-56.233487	283.900	-0.370	0.030	0.140	283.870	-1.400	0.500																			1580072499.0	12.22	22.63
26/01/2020 21:01:40	26012020	260120	210140	283.720	12.210680	-56.233545	283.710	-0.110	0.030	0.340	283.670	-1.400	0.700																			1580072500.0	12.43	23.02
26/01/2020 21:01:41	26012020	260120	210141	283.430	12.210693	-56.233602	283.400	0.100	0.160	0.450	283.370	-1.200	0.800																			1580072501.0	12.36	22.89
26/01/2020 21:01:42	26012020	260120	210142	283.110	12.210705	-56.233657	283.100	0.200	0.340	0.470	283.050	-1.000	0.800																			1580072502.0	12.06	22.34
26/01/2020 21:01:43	26012020	260120	210143	282.840	12.210717	-56.233712	282.820	0.250	0.330	0.410	282.790	-1.100	0.800																			1580072503.0	11.82	21.89
26/01/2020 21:01:44	26012020	260120	210144	282.640	12.210728	-56.233767	282.650	0.310	0.050	0.260	282.610	-1.400	0.600																			1580072504.0	11.85	21.95
26/01/2020 21:01:45	26012020	260120	210145	282.570	12.210740	-56.233822	282.600	0.400	-0.380	0.080	282.570	-1.800	0.400																			1580072505.0	11.99	22.21
26/01/2020 21:01:46	26012020	260120	210146	282.620	12.210752	-56.233878	282.690	0.460	-0.750	-0.070	282.640	-2.200	0.300																			1580072506.0	12.06	22.34
26/01/2020 21:01:47	26012020	260120	210147	282.780	12.210765	-56.233933	282.880	0.440	-0.880	-0.130	282.830	-2.300	0.200																			1580072507.0	11.99	22.21
26/01/2020 21:01:48	26012020	260120	210148	283.050	12.210777	-56.233987	283.170	0.340	-0.790	-0.060	283.120	-2.200	0.300																			1580072508.0	11.82	21.89
26/01/2020 21:01:49	26012020	260120	210149	283.390	12.210790	-56.234042	283.500	0.190	-0.650	0.010	283.450	-2.000	0.400																			1580072509.0	11.73	21.72
26/01/2020 21:01:50	26012020	260120	210150	283.700	12.210802	-56.234097	283.800	0.000	-0.580	0.030	283.760	-2.000	0.400																			1580072510.0	11.86	21.96
26/01/2020 21:01:51	26012020	260120	210151	283.910	12.210813	-56.234152	283.970	-0.200	-0.520	0.030	283.930	-1.900	0.400																			1580072511.0	12.08	22.37
26/01/2020 21:01:52	26012020	260120	210152	283.970	12.210825	-56.234208	284.000	-0.430	-0.370	0.040	283.970	-1.700	0.400																			1580072512.0	12.21	22.61
26/01/2020 21:01:53	26012020	260120	210153	283.910	12.210835	-56.234265	283.910	-0.640	-0.120	0.060	283.880	-1.500	0.400																			1580072513.0	12.19	22.58
26/01/2020 21:01:54	26012020	260120	210154	283.750	12.210845	-56.234322	283.750	-0.790	0.110	0.110	283.710	-1.300	0.500																			1580072514.0	12.09	22.39
26/01/2020 21:01:55	26012020	260120	210155	283.580	12.210855	-56.234378	283.590	-0.730	0.180	0.170	283.540	-1.200	0.500																			1580072515.0	12.07	22.35
26/01/2020 21:01:56	26012020	260120	210156	283.460	12.210863	-56.234435	283.490	-0.400	0.050	0.230	283.450	-1.400	0.600																			1580072516.0	12.17	22.54
26/01/2020 21:01:57	26012020	260120	210157	283.420	12.210875	-56.234492	283.470	0.110	-0.110	0.350	283.420	-1.500	0.700																			1580072517.0	12.27	22.72
26/01/2020 21:01:58	26012020	260120	210158	283.430	12.210888	-56.234548	283.490	0.550	-0.150	0.600	283.430	-1.500	1.000																			1580072518.0	12.23	22.65
26/01/2020 21:01:59	26012020	260120	210159	283.410	12.210903	-56.234602	283.460	0.700	-0.030	0.840	283.410	-1.400	1.200	1014.30	26.20	26.20	21.00	21.10	70.00	73.00	73.00	400.00	26.40	31.00	5.20	45.00	3.20	5409	3374.00	27.70	27.70	1580072519.0	12.00	22.22
26/01/2020 21:02:00	26012020	260120	210200	283.370	12.210917	-56.234655	283.430	0.600	0.080	0.910	283.360	-1.300	1.300																			1580072520.0	11.71	21.69
26/01/2020 21:02:01	26012020	260120	210201	283.340	12.210930	-56.234708	283.420	0.460	-0.080	0.690	283.360	-1.500	1.000																			1580072521.0	11.61	21.50
26/01/2020 21:02:02	26012020	260120	210202	283.410	12.210942	-56.234763	283.470	0.430	-0.490	0.340	283.420	-1.900	0.700																			1580072522.0	11.84	21.93
26/01/2020 21:02:03	26012020	260120	210203	283.480	12.210953	-56.234820	283.530	0.480	-0.850	0.100	283.490	-2.300	0.500																			1580072523.0	12.12	22.45
26/01/2020 21:02:04	26012020	260120	210204	283.490	12.210965	-56.234875	283.510	0.390	-0.920	0.040	283.480	-2.300	0.400																			1580072524.0	12.13	22.46
26/01/2020 21:02:05	26012020	260120	210205	283.450	12.210978	-56.234932	283.490	0.080	-0.730	0.020	283.450	-2.100	0.400																			1580072525.0	11.94	22.11
26/01/2020 21:02:06	26012020	260120	210206	283.470	12.210990	-56.234985	283.520	-0.350	-0.520	-0.160	283.490	-1.900	0.200																			1580072526.0	11.79	21.84
26/01/2020 21:02:07	26012020	260120	210207	283.590	12.211000	-56.235042	283.640	-0.710	-0.410	-0.470	283.620	-1.800	-0.100																			1580072527.0	11.92	22.08
26/01/2020 21:02:08	26012020	260120	210208	283.760	12.211008	-56.235098	283.800	-0.860	-0.380	-0.730	283.790	-1.800	-0.400																			1580072528.0	12.17	22.54
26/01/2020 21:02:09	26012020	260120	210209	283.890	12.211017	-56.235155	283.920	-0.800	-0.350	-0.700	283.910	-1.700	-0.300																			1580072529.0	12.36	22.89
26/01/2020 21:02:10	26012020	260120	210210	283.950	12.211027	-56.235213	283.970	-0.570	-0.190	-0.380	283.950	-1.500	0.000																			1580072530.0	12.42	23.00
26/01/2020 21:02:11	26012020	260120	210211	283.930	12.211038	-56.235270	283.940	-0.270	0.130	0.060	283.920	-1.200	0.500																			1580072531.0	12.24	22.67
26/01/2020 21:02:12	26012020	260120	210212	283.840	12.211050	-56.235325	283.850	0.040	0.430	0.550	283.810	-0.900	1.000																			1580072532.0	12.02	22.26
26/01/2020 21:02:13	26012020	260120	210213	283.670	12.211065	-56.235380	283.670	0.310	0.520	0.950	283.620	-0.900	1.300																			1580072533.0	11.92	22.08
26/01/2020 21:02:14	26012020	260120	210214	283.450	12.211080	-56.235435	283.450	0.500	0.320	1.070	283.410	-1.100	1.400																			1580072534.0	11.95	22.13
26/01/2020 21:02:15	26012020	260120	210215	283.250	12.211095	-56.235488	283.250	0.600	-0.080	0.850	283.210	-1.500	1.200																			1580072535.0	12.04	22.30
26/01/2020 21:02:16	26012020	260120	210216	283.090	12.211108	-56.235545	283.100	0.590	-0.540	0.410	283.080	-2.000	0.700																			1580072536.0	12.08	22.37
26/01/2020 21:02:17	26012020	260120	210217	283.060	12.211120	-56.235600	283.090	0.490	-0.870	-0.060	283.060	-2.300	0.300																			1580072537.0	12.04	22.30
26/01/2020 21:02:18	26012020	260120	210218	283.110	12.211130	-56.235657	283.150	0.270	-0.970	-0.370	283.130	-2.400	-0.000																			1580072538.0	11.93	22.09
26/01/2020 21:02:19	26012020	260120	210219	283.210	12.211140	-56.235710	283.270	-0.010	-0.860	-0.450	283.230	-2.200	-0.100																			1580072539.0	11.79	21.84
26/01/2020 21:02:20	26012020	260120	210220	283.340	12.211150	-56.235765	283.410	-0.240	-0.690	-0.320	283.370	-2.100	0.100																			1580072540.0	11.74	21.74
26/01/2020 21:02:21	26012020	260120	210221	283.480	12.211162	-56.235820	283.540	-0.310	-0.580	-0.140	283.500	-2.000	0.300																			1580072541.0	11.88	22.00
26/01/2020 21:02:22	26012020	260120	210222	283.590	12.211173	-56.235877	283.650	-0.270	-0.450	0.030	283.610	-1.800	0.400																			1580072542.0	12.14	22.48
26/01/2020 21:02:23	26012020	260120	210223	283.640	12.211185	-56.235933	283.690	-0.210	-0.200	0.120	283.650	-1.600	0.500																			1580072543.0	12.25	22.69
26/01/2020 21:02:24	26012020	260120	210224	283.620	12.211197	-56.235990	283.660	-0.220	0.120	0.110	283.610	-1.200	0.500																			1580072544.0	12.18	22.56
26/01/2020 21:02:25	26012020	260120	210225	283.560	12.211208	-56.236045	283.580	-0.300	0.390	0.070	283.540	-1.000	0.400																			1580072545.0	12.05	22.32
26/01/2020 21:02:26	26012020	260120	210226	283.460	12.211220	-56.236100	283.480	-0.370	0.420	-0.020	283.440	-1.000	0.300																			1580072546.0	11.99	22.21
26/01/2020 21:02:27	26012020	260120	210227	283.330	12.211230	-56.236157	283.350	-0.320	0.180	-0.090	283.300	-1.300	0.300																			1580072547.0	12.08	22.37
26/01/2020 21:02:28	26012020	260120	210228	283.180	12.211242	-56.236213	283.190	-0.100	-0.250	-0.110	283.150	-1.700	0.300																			1580072548.0	12.21	22.61
26/01/2020 21:02:29	26012020	260120	210229	283.040	12.211253	-56.236270	283.060	0.260	-0.640	-0.020	283.030	-2.100	0.400																			1580072549.0	12.29	22.76
26/01/2020 21:02:30	26012020	260120	210230	282.980	12.211265	-56.236327	283.020	0.590	-0.770	0.180	282.980	-2.200	0.600																			1580072550.0	12.22	22.63
26/01/2020 21:02:31	26012020	260120	210231	283.030	12.211280	-56.236382	283.070	0.670	-0.600	0.350	283.050	-2.000	0.700																			1580072551.0	11.96	22.15
26/01/2020 21:02:32	26012020	260120	210232	283.130	12.211293	-56.236435	283.190	0.390	-0.300	0.390	283.150	-1.700	0.700																			1580072552.0	11.69	21.65
26/01/2020 21:02:33	26012020	260120	210233	283.220	12.211307	-56.236488	283.280	-0.050	-0.090	0.270	283.250	-1.500	0.600																			1580072553.0	11.56	21.41
26/01/2020 21:02:34	26012020	260120	210234	283.330	12.211317	-56.236542	283.400	-0.360	-0.200	0.010	283.360	-1.600	0.300																			1580072554.0	11.72	21.71
26/01/2020 21:02:35	26012020	260120	210235	283.460	12.211327	-56.236598	283.520	-0.310	-0.560	-0.220	283.480	-2.000	0.100																			1580072555.0	12.14	22.48
26/01/2020 21:02:36	26012020	260120	210236	283.550	12.211337	-56.236657	283.600	-0.060	-0.810	-0.240	283.550	-2.200	0.100																			1580072556.0	12.53	23.21
26/01/2020 21:02:37	26012020	260120	210237	283.530	12.211348	-56.236715	283.560	0.110	-0.600	0.030	283.510	-1.900	0.400																			1580072557.0	12.49	23.13
26/01/2020 21:02:38	26012020	260120	210238	283.390	12.211360	-56.236770	283.400	0.010	-0.030	0.380	283.350	-1.300	0.800																			1580072558.0	12.04	22.30
26/01/2020 21:02:39	26012020	260120	210239	283.150	12.211373	-56.236823	283.150	-0.240	0.480	0.590	283.090	-0.900	1.000																			1580072559.0	11.65	21.58
26/01/2020 21:02:40	26012020	260120	210240	282.850	12.211385	-56.236878	282.850	-0.400	0.590	0.510	282.800	-0.800	0.800																			1580072560.0	11.63	21.54
26/01/2020 21:02:41	26012020	260120	210241	282.630	12.211395	-56.236933	282.650	-0.320	0.210	0.220	282.600	-1.300	0.600																			1580072561.0	11.93	22.09
26/01/2020 21:02:42	26012020	260120	210242	282.540	12.211405	-56.236990	282.580	0.010	-0.420	0.010	282.540	-1.900	0.400																			1580072562.0	12.30	22.78
26/01/2020 21:02:43	26012020	260120	210243	282.540	12.211415	-56.237048	282.580	0.410	-0.870	0.050	282.530	-2.300	0.400																			1580072563.0	12.48	23.11
26/01/2020 21:02:44	26012020	260120	210244	282.490	12.211428	-56.237105	282.510	0.610	-0.770	0.350	282.470	-2.100	0.800																			1580072564.0	12.24	22.67
26/01/2020 21:02:45	26012020	260120	210245	282.360	12.211442	-56.237158	282.370	0.480	-0.300	0.680	282.330	-1.600	1.100																			1580072565.0	11.66	21.59
26/01/2020 21:02:46	26012020	260120	210246	282.240	12.211455	-56.237210	282.270	0.160	-0.060	0.720	282.220	-1.500	1.100																			1580072566.0	11.29	20.91
26/01/2020 21:02:47	26012020	260120	210247	282.300	12.211467	-56.237263	282.380	-0.110	-0.370	0.380	282.340	-1.800	0.700																			1580072567.0	11.55	21.39
26/01/2020 21:02:48	26012020	260120	210248	282.620	12.211478	-56.237320	282.730	-0.170	-0.960	-0.090	282.710	-2.400	0.200																			1580072568.0	12.24	22.67
26/01/2020 21:02:49	26012020	260120	210249	283.030	12.211487	-56.237378	283.120	-0.130	-1.180	-0.380	283.110	-2.500	-0.000																			1580072569.0	12.68	23.48
26/01/2020 21:02:50	26012020	260120	210250	283.330	12.211497	-56.237437	283.370	-0.190	-0.700	-0.340	283.360	-2.000	0.100																			1580072570.0	12.46	23.08
26/01/2020 21:02:51	26012020	260120	210251	283.400	12.211507	-56.237492	283.420	-0.400	0.170	-0.020	283.390	-1.100	0.400																			1580072571.0	11.86	21.96
26/01/2020 21:02:52	26012020	260120	210252	283.260	12.211517	-56.237545	283.250	-0.620	0.800	0.310	283.210	-0.600	0.700																			1580072572.0	11.52	21.34
26/01/2020 21:02:53	26012020	260120	210253	282.970	12.211528	-56.237600	282.950	-0.610	0.810	0.450	282.910	-0.600	0.800																			1580072573.0	11.71	21.69
26/01/2020 21:02:54	26012020	260120	210254	282.630	12.211538	-56.237657	282.610	-0.320	0.310	0.390	282.560	-1.200	0.700																			1580072574.0	12.21	22.61
26/01/2020 21:02:55	26012020	260120	210255	282.310	12.211548	-56.237715	282.310	0.150	-0.230	0.310	282.260	-1.700	0.700																			1580072575.0	12.54	23.22
26/01/2020 21:02:56	26012020	260120	210256	282.050	12.211558	-56.237772	282.070	0.530	-0.430	0.330	282.020	-1.800	0.700																			1580072576.0	12.34	22.85
26/01/2020 21:02:57	26012020	260120	210257	281.900	12.211572	-56.237827	281.930	0.670	-0.400	0.390	281.880	-1.800	0.800																			1580072577.0	11.83	21.91
26/01/2020 21:02:58	26012020	260120	210258	281.870	12.211583	-56.237880	281.940	0.590	-0.410	0.380	281.880	-1.800	0.700																			1580072578.0	11.50	21.30
26/01/2020 21:02:59	26012020	260120	210259	282.000	12.211595	-56.237933	282.100	0.440	-0.620	0.240	282.050	-2.000	0.600	1014.30	26.20	26.20	21.00	21.00	68.00	73.00	73.00	400.00	26.40	32.00	5.10	48.00	3.30	5221	3607.00	27.70	27.70	1580072579.0	11.56	21.41
26/01/2020 21:03:00	26012020	260120	210300	282.260	12.211607	-56.237988	282.360	0.270	-0.890	0.010	282.330	-2.300	0.400																			1580072580.0	11.84	21.93
26/01/2020 21:03:01	26012020	260120	210301	282.590	12.211618	-56.238043	282.700	0.070	-0.970	-0.200	282.660	-2.300	0.100																			1580072581.0	12.02	22.26
26/01/2020 21:03:02	26012020	260120	210302	282.940	12.211628	-56.238100	283.040	-0.160	-0.780	-0.320	283.000	-2.100	0.000																			1580072582.0	12.00	22.22
26/01/2020 21:03:03	26012020	260120	210303	283.220	12.211638	-56.238155	283.300	-0.400	-0.440	-0.270	283.270	-1.800	0.100																			1580072583.0	11.90	22.04
26/01/2020 21:03:04	26012020	260120	210304	283.370	12.211648	-56.238210	283.410	-0.540	-0.140	-0.060	283.380	-1.500	0.300																			1580072584.0	11.90	22.04
26/01/2020 21:03:05	26012020	260120	210305	283.370	12.211660	-56.238267	283.390	-0.530	0.000	0.180	283.360	-1.400	0.600																			1580072585.0	12.07	22.35
26/01/2020 21:03:06	26012020	260120	210306	283.270	12.211670	-56.238323	283.280	-0.420	0.070	0.370	283.250	-1.300	0.800																			1580072586.0	12.27	22.72
26/01/2020 21:03:07	26012020	260120	210307	283.110	12.211680	-56.238380	283.120	-0.270	0.140	0.480	283.080	-1.300	0.900																			1580072587.0	12.31	22.80
26/01/2020 21:03:08	26012020	260120	210308	282.930	12.211692	-56.238437	282.930	-0.130	0.220	0.500	282.890	-1.200	0.900																			1580072588.0	12.18	22.56
26/01/2020 21:03:09	26012020	260120	210309	282.690	12.211702	-56.238492	282.660	0.010	0.250	0.480	282.640	-1.200	0.800																			1580072589.0	12.03	22.28
26/01/2020 21:03:10	26012020	260120	210310	282.420	12.211713	-56.238548	282.390	0.130	0.140	0.400	282.370	-1.300	0.800																			1580072590.0	11.92	22.08
26/01/2020 21:03:11	26012020	260120	210311	282.200	12.211725	-56.238603	282.170	0.230	-0.130	0.230	282.160	-1.600	0.600																			1580072591.0	11.90	22.04
26/01/2020 21:03:12	26012020	260120	210312	282.100	12.211735	-56.238658	282.110	0.310	-0.460	-0.040	282.100	-1.900	0.300																			1580072592.0	11.94	22.11
26/01/2020 21:03:13	26012020	260120	210313	282.160	12.211745	-56.238713	282.220	0.410	-0.720	-0.310	282.200	-2.100	0.000																			1580072593.0	11.91	22.06
26/01/2020 21:03:14	26012020	260120	210314	282.390	12.211755	-56.238768	282.480	0.510	-0.860	-0.500	282.470	-2.300	-0.200																			1580072594.0	11.86	21.96
26/01/2020 21:03:15	26012020	260120	210315	282.800	12.211767	-56.238823	282.900	0.500	-0.860	-0.560	282.890	-2.300	-0.200																			1580072595.0	11.85	21.95
26/01/2020 21:03:16	26012020	260120	210316	283.250	12.211778	-56.238878	283.350	0.310	-0.680	-0.420	283.330	-2.000	-0.000																			1580072596.0	11.86	21.96
26/01/2020 21:03:17	26012020	260120	210317	283.590	12.211792	-56.238932	283.660	-0.070	-0.340	-0.170	283.640	-1.700	0.200																			1580072597.0	11.82	21.89
26/01/2020 21:03:18	26012020	260120	210318	283.740	12.211803	-56.238987	283.770	-0.470	-0.000	-0.020	283.750	-1.400	0.400																			1580072598.0	11.77	21.80
26/01/2020 21:03:19	26012020	260120	210319	283.720	12.211815	-56.239042	283.730	-0.700	0.100	0.000	283.710	-1.300	0.400																			1580072599.0	11.84	21.93
26/01/2020 21:03:20	26012020	260120	210320	283.630	12.211823	-56.239098	283.630	-0.650	-0.050	-0.060	283.610	-1.500	0.300																			1580072600.0	12.12	22.45
26/01/2020 21:03:21	26012020	260120	210321	283.520	12.211833	-56.239155	283.520	-0.380	-0.290	-0.190	283.490	-1.700	0.200																			1580072601.0	12.37	22.91
26/01/2020 21:03:22	26012020	260120	210322	283.390	12.211843	-56.239213	283.380	-0.090	-0.410	-0.240	283.360	-1.800	0.100																			1580072602.0	12.42	23.00
26/01/2020 21:03:23	26012020	260120	210323	283.250	12.211855	-56.239270	283.230	0.100	-0.330	-0.180	283.220	-1.700	0.200																			1580072603.0	12.24	22.67
26/01/2020 21:03:24	26012020	260120	210324	283.150	12.211867	-56.239325	283.140	0.170	-0.150	-0.010	283.140	-1.500	0.400																			1580072604.0	11.97	22.17
26/01/2020 21:03:25	26012020	260120	210325	283.130	12.211878	-56.239380	283.140	0.190	-0.100	0.160	283.140	-1.500	0.500																			1580072605.0	11.83	21.91
26/01/2020 21:03:26	26012020	260120	210326	283.190	12.211892	-56.239435	283.210	0.240	-0.170	0.300	283.200	-1.600	0.700																			1580072606.0	11.94	22.11
26/01/2020 21:03:27	26012020	260120	210327	283.270	12.211905	-56.239490	283.290	0.280	-0.230	0.380	283.300	-1.600	0.700																			1580072607.0	12.04	22.30
26/01/2020 21:03:28	26012020	260120	210328	283.410	12.211918	-56.239545	283.430	0.240	-0.220	0.390	283.430	-1.600	0.700																			1580072608.0	11.99	22.21
26/01/2020 21:03:29	26012020	260120	210329	283.540	12.211930	-56.239600	283.570	0.100	-0.190	0.320	283.560	-1.600	0.700																			1580072609.0	11.88	22.00
26/01/2020 21:03:30	26012020	260120	210330	283.650	12.211942	-56.239655	283.670	-0.090	-0.180	0.210	283.660	-1.600	0.600																			1580072610.0	11.84	21.93
26/01/2020 21:03:31	26012020	260120	210331	283.690	12.211952	-56.239710	283.700	-0.210	-0.190	0.150	283.680	-1.600	0.500																			1580072611.0	11.88	22.00
26/01/2020 21:03:32	26012020	260120	210332	283.640	12.211962	-56.239765	283.640	-0.210	-0.240	0.130	283.620	-1.600	0.500																			1580072612.0	11.90	22.04
26/01/2020 21:03:33	26012020	260120	210333	283.550	12.211972	-56.239822	283.550	-0.070	-0.360	0.170	283.530	-1.800	0.500																			1580072613.0	11.91	22.06
26/01/2020 21:03:34	26012020	260120	210334	283.470	12.211983	-56.239877	283.480	0.150	-0.560	0.280	283.450	-2.000	0.700																			1580072614.0	12.02	22.26
26/01/2020 21:03:35	26012020	260120	210335	283.430	12.211997	-56.239932	283.450	0.340	-0.730	0.420	283.420	-2.100	0.800																			1580072615.0	12.15	22.50
26/01/2020 21:03:36	26012020	260120	210336	283.410	12.212010	-56.239988	283.430	0.390	-0.730	0.470	283.400	-2.100	0.800																			1580072616.0	12.20	22.59
26/01/2020 21:03:37	26012020	260120	210337	283.330	12.212023	-56.240043	283.330	0.230	-0.510	0.400	283.300	-1.900	0.700																			1580072617.0	12.14	22.48
26/01/2020 21:03:38	26012020	260120	210338	283.210	12.212035	-56.240100	283.210	-0.090	-0.140	0.180	283.190	-1.500	0.500																			1580072618.0	11.97	22.17
26/01/2020 21:03:39	26012020	260120	210339	283.150	12.212045	-56.240155	283.160	-0.460	0.190	-0.140	283.150	-1.200	0.200																			1580072619.0	11.80	21.85
26/01/2020 21:03:40	26012020	260120	210340	283.210	12.212055	-56.240210	283.240	-0.640	0.200	-0.440	283.230	-1.200	-0.100																			1580072620.0	11.81	21.87
26/01/2020 21:03:41	26012020	260120	210341	283.380	12.212063	-56.240265	283.430	-0.490	-0.140	-0.620	283.430	-1.600	-0.300																			1580072621.0	12.07	22.35
26/01/2020 21:03:42	26012020	260120	210342	283.660	12.212073	-56.240323	283.710	-0.080	-0.590	-0.570	283.710	-2.000	-0.200																			1580072622.0	12.43	23.02
26/01/2020 21:03:43	26012020	260120	210343	283.930	12.212085	-56.240382	283.960	0.310	-0.700	-0.230	283.970	-2.100	0.200																			1580072623.0	12.52	23.19
26/01/2020 21:03:44	26012020	260120	210344	284.060	12.212098	-56.240437	284.080	0.410	-0.330	0.210	284.070	-1.700	0.600																			1580072624.0	12.17	22.54
26/01/2020 21:03:45	26012020	260120	210345	284.020	12.212113	-56.240490	284.020	0.220	0.200	0.500	283.990	-1.200	0.900																			1580072625.0	11.68	21.63
26/01/2020 21:03:46	26012020	260120	210346	283.850	12.212127	-56.240543	283.820	-0.040	0.450	0.500	283.810	-1.000	0.900																			1580072626.0	11.47	21.24
26/01/2020 21:03:47	26012020	260120	210347	283.610	12.212138	-56.240597	283.560	-0.150	0.220	0.340	283.560	-1.200	0.700																			1580072627.0	11.69	21.65
26/01/2020 21:03:48	26012020	260120	210348	283.340	12.212148	-56.240653	283.300	-0.040	-0.300	0.140	283.290	-1.800	0.500																			1580072628.0	12.12	22.45
26/01/2020 21:03:49	26012020	260120	210349	283.140	12.212160	-56.240710	283.120	0.160	-0.720	0.010	283.110	-2.100	0.400																			1580072629.0	12.36	22.89
26/01/2020 21:03:50	26012020	260120	210350	283.030	12.212172	-56.240767	283.020	0.280	-0.800	0.030	283.020	-2.200	0.400																			1580072630.0	12.22	22.63
26/01/2020 21:03:51	26012020	260120	210351	283.010	12.212183	-56.240822	283.030	0.240	-0.630	0.120	283.020	-2.000	0.500																			1580072631.0	11.87	21.98
26/01/2020 21:03:52	26012020	260120	210352	283.120	12.212195	-56.240877	283.170	0.080	-0.440	0.200	283.160	-1.800	0.600																			1580072632.0	11.68	21.63
26/01/2020 21:03:53	26012020	260120	210353	283.370	12.212208	-56.240930	283.430	-0.070	-0.380	0.210	283.430	-1.800	0.600																			1580072633.0	11.75	21.76
26/01/2020 21:03:54	26012020	260120	210354	283.680	12.212220	-56.240985	283.740	-0.120	-0.450	0.190	283.740	-1.900	0.500																			1580072634.0	11.98	22.19
26/01/2020 21:03:55	26012020	260120	210355	283.980	12.212232	-56.241042	284.040	-0.050	-0.540	0.170	284.040	-1.900	0.500																			1580072635.0	12.21	22.61
26/01/2020 21:03:56	26012020	260120	210356	284.240	12.212243	-56.241098	284.280	0.070	-0.490	0.170	284.280	-1.900	0.500																			1580072636.0	12.32	22.82
26/01/2020 21:03:57	26012020	260120	210357	284.360	12.212257	-56.241155	284.370	0.080	-0.210	0.210	284.360	-1.600	0.600																			1580072637.0	12.26	22.71
26/01/2020 21:03:58	26012020	260120	210358	284.300	12.212268	-56.241212	284.280	-0.090	0.210	0.290	284.260	-1.100	0.700																			1580072638.0	12.02	22.26
26/01/2020 21:03:59	26012020	260120	210359	284.090	12.212280	-56.241265	284.050	-0.360	0.520	0.350	284.030	-0.900	0.700	1014.40	26.20	26.20	21.00	21.00	66.00	73.00	73.00	401.00	26.40	30.00	4.70	56.00	3.20	5037	3620.00	27.70	27.70	1580072639.0	11.78	21.82
26/01/2020 21:04:00	26012020	260120	210400	283.820	12.212290	-56.241320	283.790	-0.530	0.510	0.310	283.760	-0.900	0.700																			1580072640.0	11.74	21.74
26/01/2020 21:04:01	26012020	260120	210401	283.550	12.212302	-56.241375	283.530	-0.440	0.150	0.230	283.500	-1.300	0.600																			1580072641.0	11.91	22.06
26/01/2020 21:04:02	26012020	260120	210402	283.340	12.212312	-56.241432	283.320	-0.080	-0.420	0.190	283.310	-1.900	0.500																			1580072642.0	12.13	22.46
26/01/2020 21:04:03	26012020	260120	210403	283.230	12.212322	-56.241488	283.240	0.390	-0.940	0.270	283.220	-2.400	0.600																			1580072643.0	12.31	22.80
26/01/2020 21:04:04	26012020	260120	210404	283.210	12.212335	-56.241545	283.240	0.730	-1.060	0.450	283.210	-2.400	0.800																			1580072644.0	12.27	22.72
26/01/2020 21:04:05	26012020	260120	210405	283.230	12.212350	-56.241600	283.260	0.770	-0.740	0.630	283.230	-2.100	1.000																			1580072645.0	11.97	22.17
26/01/2020 21:04:06	26012020	260120	210406	283.260	12.212363	-56.241653	283.290	0.490	-0.240	0.610	283.270	-1.600	0.900																			1580072646.0	11.63	21.54
26/01/2020 21:04:07	26012020	260120	210407	283.300	12.212377	-56.241705	283.330	0.060	0.040	0.360	283.310	-1.300	0.700																			1580072647.0	11.54	21.37
26/01/2020 21:04:08	26012020	260120	210408	283.380	12.212388	-56.241760	283.410	-0.310	-0.010	-0.010	283.400	-1.400	0.300																			1580072648.0	11.79	21.84
26/01/2020 21:04:09	26012020	260120	210409	283.520	12.212398	-56.241817	283.550	-0.490	-0.280	-0.350	283.540	-1.700	-0.000																			1580072649.0	12.16	22.52
26/01/2020 21:04:10	26012020	260120	210410	283.620	12.212407	-56.241875	283.630	-0.480	-0.480	-0.460	283.630	-1.900	-0.100																			1580072650.0	12.36	22.89
26/01/2020 21:04:11	26012020	260120	210411	283.610	12.212417	-56.241932	283.590	-0.370	-0.490	-0.230	283.590	-1.900	0.200																			1580072651.0	12.27	22.72
26/01/2020 21:04:12	26012020	260120	210412	283.520	12.212428	-56.241987	283.490	-0.230	-0.390	0.060	283.500	-1.800	0.400																			1580072652.0	12.06	22.34
26/01/2020 21:04:13	26012020	260120	210413	283.450	12.212440	-56.242043	283.440	-0.080	-0.300	0.190	283.440	-1.700	0.500																			1580072653.0	11.99	22.21
26/01/2020 21:04:14	26012020	260120	210414	283.440	12.212453	-56.242098	283.430	0.080	-0.250	0.140	283.440	-1.600	0.500																			1580072654.0	12.07	22.35
26/01/2020 21:04:15	26012020	260120	210415	283.450	12.212465	-56.242155	283.440	0.210	-0.150	0.090	283.450	-1.500	0.400																			1580072655.0	12.14	22.48
26/01/2020 21:04:16	26012020	260120	210416	283.430	12.212477	-56.242210	283.410	0.250	0.050	0.110	283.420	-1.300	0.500																			1580072656.0	12.07	22.35
26/01/2020 21:04:17	26012020	260120	210417	283.340	12.212488	-56.242265	283.320	0.180	0.270	0.180	283.310	-1.100	0.500																			1580072657.0	11.90	22.04
26/01/2020 21:04:18	26012020	260120	210418	283.160	12.212502	-56.242320	283.120	0.060	0.330	0.250	283.110	-1.100	0.600																			1580072658.0	11.77	21.80
26/01/2020 21:04:19	26012020	260120	210419	282.940	12.212513	-56.242373	282.910	-0.020	0.080	0.280	282.900	-1.400	0.600																			1580072659.0	11.81	21.87
26/01/2020 21:04:20	26012020	260120	210420	282.810	12.212525	-56.242430	282.810	0.010	-0.390	0.240	282.810	-1.800	0.600																			1580072660.0	12.01	22.24
26/01/2020 21:04:21	26012020	260120	210421	282.830	12.212537	-56.242485	282.850	0.110	-0.830	0.180	282.840	-2.300	0.500																			1580072661.0	12.16	22.52
26/01/2020 21:04:22	26012020	260120	210422	282.890	12.212548	-56.242542	282.910	0.190	-1.040	0.110	282.910	-2.400	0.500																			1580072662.0	12.13	22.46
26/01/2020 21:04:23	26012020	260120	210423	282.970	12.212560	-56.242597	282.990	0.170	-0.990	0.040	282.980	-2.400	0.400																			1580072663.0	11.98	22.19
26/01/2020 21:04:24	26012020	260120	210424	283.080	12.212572	-56.242652	283.110	0.060	-0.800	0.010	283.110	-2.200	0.400																			1580072664.0	11.86	21.96
26/01/2020 21:04:25	26012020	260120	210425	283.260	12.212583	-56.242707	283.290	-0.050	-0.620	0.030	283.300	-2.000	0.400																			1580072665.0	11.89	22.02
26/01/2020 21:04:26	26012020	260120	210426	283.450	12.212595	-56.242763	283.470	-0.090	-0.470	0.080	283.480	-1.800	0.400																			1580072666.0	12.11	22.43
26/01/2020 21:04:27	26012020	260120	210427	283.520	12.212607	-56.242820	283.510	-0.120	-0.180	0.180	283.520	-1.500	0.600																			1580072667.0	12.31	22.80
26/01/2020 21:04:28	26012020	260120	210428	283.440	12.212618	-56.242877	283.420	-0.230	0.340	0.320	283.420	-1.000	0.700																			1580072668.0	12.21	22.61
26/01/2020 21:04:29	26012020	260120	210429	283.270	12.212630	-56.242932	283.220	-0.430	0.840	0.440	283.220	-0.500	0.800																			1580072669.0	11.89	22.02
26/01/2020 21:04:30	26012020	260120	210430	283.070	12.212640	-56.242985	283.050	-0.540	0.880	0.460	283.040	-0.600	0.800																			1580072670.0	11.73	21.72
26/01/2020 21:04:31	26012020	260120	210431	282.980	12.212652	-56.243042	283.020	-0.360	0.300	0.330	282.980	-1.200	0.700																			1580072671.0	12.00	22.22
26/01/2020 21:04:32	26012020	260120	210432	283.030	12.212662	-56.243100	283.080	0.110	-0.520	0.180	283.050	-2.000	0.500																			1580072672.0	12.48	23.11
26/01/2020 21:04:33	26012020	260120	210433	283.100	12.212673	-56.243158	283.130	0.580	-0.980	0.210	283.110	-2.400	0.600																			1580072673.0	12.60	23.34
26/01/2020 21:04:34	26012020	260120	210434	283.050	12.212685	-56.243213	283.050	0.730	-0.860	0.420	283.020	-2.200	0.800																			1580072674.0	12.17	22.54
26/01/2020 21:04:35	26012020	260120	210435	282.820	12.212698	-56.243267	282.780	0.500	-0.440	0.630	282.760	-1.800	1.000																			1580072675.0	11.57	21.43
26/01/2020 21:04:36	26012020	260120	210436	282.530	12.212712	-56.243318	282.500	0.120	-0.190	0.660	282.480	-1.600	1.000																			1580072676.0	11.30	20.93
26/01/2020 21:04:37	26012020	260120	210437	282.370	12.212722	-56.243372	282.390	-0.110	-0.350	0.450	282.360	-1.800	0.800																			1580072677.0	11.55	21.39
26/01/2020 21:04:38	26012020	260120	210438	282.400	12.212732	-56.243428	282.440	-0.110	-0.730	0.120	282.420	-2.200	0.400																			1580072678.0	12.08	22.37
26/01/2020 21:04:39	26012020	260120	210439	282.540	12.212742	-56.243487	282.600	0.010	-0.920	-0.100	282.580	-2.300	0.200																			1580072679.0	12.42	23.00
26/01/2020 21:04:40	26012020	260120	210440	282.730	12.212752	-56.243543	282.790	0.040	-0.710	-0.130	282.770	-2.100	0.200																			1580072680.0	12.34	22.85
26/01/2020 21:04:41	26012020	260120	210441	282.920	12.212763	-56.243600	282.990	-0.090	-0.230	-0.000	282.970	-1.600	0.400																			1580072681.0	12.04	22.30
26/01/2020 21:04:42	26012020	260120	210442	283.140	12.212775	-56.243655	283.210	-0.290	0.190	0.060	283.180	-1.200	0.400																			1580072682.0	11.85	21.95
26/01/2020 21:04:43	26012020	260120	210443	283.360	12.212787	-56.243710	283.420	-0.420	0.320	-0.030	283.400	-1.100	0.300																			1580072683.0	11.94	22.11
26/01/2020 21:04:44	26012020	260120	210444	283.530	12.212797	-56.243767	283.570	-0.410	0.220	-0.220	283.540	-1.200	0.100																			1580072684.0	12.19	22.58
26/01/2020 21:04:45	26012020	260120	210445	283.550	12.212807	-56.243823	283.550	-0.280	0.040	-0.340	283.540	-1.400	0.000																			1580072685.0	12.34	22.85
26/01/2020 21:04:46	26012020	260120	210446	283.430	12.212817	-56.243882	283.420	-0.070	-0.110	-0.350	283.410	-1.500	0.000																			1580072686.0	12.31	22.80
26/01/2020 21:04:47	26012020	260120	210447	283.250	12.212827	-56.243937	283.220	0.150	-0.180	-0.220	283.210	-1.600	0.200																			1580072687.0	12.17	22.54
26/01/2020 21:04:48	26012020	260120	210448	283.030	12.212838	-56.243993	283.000	0.310	-0.170	0.000	282.980	-1.600	0.400																			1580072688.0	11.98	22.19
26/01/2020 21:04:49	26012020	260120	210449	282.780	12.212852	-56.244047	282.760	0.340	-0.160	0.180	282.740	-1.600	0.500																			1580072689.0	11.80	21.85
26/01/2020 21:04:50	26012020	260120	210450	282.560	12.212863	-56.244102	282.540	0.260	-0.220	0.190	282.520	-1.600	0.500																			1580072690.0	11.73	21.72
26/01/2020 21:04:51	26012020	260120	210451	282.420	12.212875	-56.244155	282.430	0.150	-0.410	0.020	282.410	-1.800	0.400																			1580072691.0	11.74	21.74
26/01/2020 21:04:52	26012020	260120	210452	282.430	12.212887	-56.244210	282.470	0.120	-0.750	-0.210	282.440	-2.200	0.100																			1580072692.0	11.86	21.96
26/01/2020 21:04:53	26012020	260120	210453	282.580	12.212897	-56.244267	282.640	0.180	-1.100	-0.380	282.630	-2.500	-0.000																			1580072693.0	12.11	22.43
26/01/2020 21:04:54	26012020	260120	210454	282.860	12.212908	-56.244323	282.940	0.210	-1.190	-0.450	282.920	-2.600	-0.100																			1580072694.0	12.28	22.74
26/01/2020 21:04:55	26012020	260120	210455	283.190	12.212920	-56.244380	283.260	0.080	-0.850	-0.390	283.250	-2.200	-0.000																			1580072695.0	12.24	22.67
26/01/2020 21:04:56	26012020	260120	210456	283.470	12.212932	-56.244435	283.530	-0.220	-0.170	-0.160	283.510	-1.500	0.200																			1580072696.0	11.98	22.19
26/01/2020 21:04:57	26012020	260120	210457	283.610	12.212945	-56.244490	283.640	-0.540	0.460	0.070	283.610	-0.900	0.500																			1580072697.0	11.75	21.76
26/01/2020 21:04:58	26012020	260120	210458	283.600	12.212955	-56.244545	283.630	-0.700	0.690	0.170	283.580	-0.700	0.500																			1580072698.0	11.80	21.85
26/01/2020 21:04:59	26012020	260120	210459	283.520	12.212965	-56.244600	283.550	-0.560	0.440	0.110	283.500	-1.000	0.500	1014.30	26.20	26.20	21.20	21.20	64.00	73.00	73.00	403.00	26.30	36.00	5.20	46.00	3.70	4865	3529.00	27.70	27.70	1580072699.0	12.13	22.46
26/01/2020 21:05:00	26012020	260120	210500	283.420	12.212975	-56.244658	283.440	-0.170	-0.090	-0.050	283.400	-1.600	0.300																			1580072700.0	12.51	23.17
26/01/2020 21:05:01	26012020	260120	210501	283.310	12.212987	-56.244718	283.330	0.260	-0.510	-0.130	283.300	-1.900	0.200																			1580072701.0	12.66	23.45
26/01/2020 21:05:02	26012020	260120	210502	283.180	12.212998	-56.244775	283.170	0.510	-0.520	-0.020	283.150	-1.900	0.400																			1580072702.0	12.43	23.02
26/01/2020 21:05:03	26012020	260120	210503	282.970	12.213010	-56.244830	282.950	0.470	-0.200	0.250	282.920	-1.600	0.600																			1580072703.0	11.93	22.09
26/01/2020 21:05:04	26012020	260120	210504	282.720	12.213023	-56.244883	282.700	0.240	0.090	0.500	282.670	-1.300	0.900																			1580072704.0	11.53	21.35
26/01/2020 21:05:05	26012020	260120	210505	282.500	12.213037	-56.244937	282.510	0.020	0.050	0.540	282.470	-1.400	0.900																			1580072705.0	11.51	21.32
26/01/2020 21:05:06	26012020	260120	210506	282.430	12.213048	-56.244990	282.480	-0.050	-0.340	0.280	282.440	-1.800	0.600																			1580072706.0	11.80	21.85
26/01/2020 21:05:07	26012020	260120	210507	282.540	12.213058	-56.245047	282.600	-0.000	-0.810	-0.110	282.580	-2.300	0.200																			1580072707.0	12.14	22.48
26/01/2020 21:05:08	26012020	260120	210508	282.740	12.213067	-56.245105	282.800	0.080	-1.070	-0.370	282.780	-2.500	-0.000																			1580072708.0	12.28	22.74
26/01/2020 21:05:09	26012020	260120	210509	282.970	12.213077	-56.245162	283.020	0.130	-0.960	-0.350	283.020	-2.300	0.000																			1580072709.0	12.15	22.50
26/01/2020 21:05:10	26012020	260120	210510	283.200	12.213088	-56.245217	283.260	0.120	-0.640	-0.150	283.250	-2.000	0.200																			1580072710.0	11.94	22.11
26/01/2020 21:05:11	26012020	260120	210511	283.430	12.213102	-56.245272	283.490	0.070	-0.280	0.020	283.480	-1.600	0.400																			1580072711.0	11.89	22.02
26/01/2020 21:05:12	26012020	260120	210512	283.630	12.213113	-56.245327	283.660	-0.000	-0.030	0.090	283.650	-1.400	0.400																			1580072712.0	11.99	22.21
26/01/2020 21:05:13	26012020	260120	210513	283.700	12.213127	-56.245382	283.700	-0.120	0.080	0.020	283.690	-1.300	0.400																			1580072713.0	12.16	22.52
26/01/2020 21:05:14	26012020	260120	210514	283.600	12.213137	-56.245438	283.580	-0.260	0.150	-0.130	283.550	-1.200	0.200																			1580072714.0	12.28	22.74
26/01/2020 21:05:15	26012020	260120	210515	283.340	12.213147	-56.245497	283.310	-0.380	0.250	-0.220	283.280	-1.100	0.100																			1580072715.0	12.23	22.65
26/01/2020 21:05:16	26012020	260120	210516	283.010	12.213157	-56.245552	282.970	-0.410	0.320	-0.150	282.940	-1.100	0.200																			1580072716.0	12.06	22.34
26/01/2020 21:05:17	26012020	260120	210517	282.690	12.213168	-56.245608	282.670	-0.310	0.190	-0.010	282.630	-1.200	0.400																			1580072717.0	11.92	22.08
26/01/2020 21:05:18	26012020	260120	210518	282.480	12.213178	-56.245663	282.500	-0.040	-0.230	0.080	282.470	-1.700	0.400																			1580072718.0	11.98	22.19
26/01/2020 21:05:19	26012020	260120	210519	282.500	12.213190	-56.245720	282.550	0.370	-0.770	0.070	282.530	-2.200	0.400																			1580072719.0	12.23	22.65
26/01/2020 21:05:20	26012020	260120	210520	282.670	12.213203	-56.245777	282.730	0.690	-1.060	0.080	282.710	-2.500	0.400																			1580072720.0	12.38	22.93
26/01/2020 21:05:21	26012020	260120	210521	282.840	12.213217	-56.245833	282.880	0.690	-0.860	0.130	282.860	-2.200	0.500																			1580072721.0	12.16	22.52
26/01/2020 21:05:22	26012020	260120	210522	282.930	12.213230	-56.245887	282.980	0.340	-0.360	0.090	282.940	-1.700	0.400																			1580072722.0	11.74	21.74
26/01/2020 21:05:23	26012020	260120	210523	283.030	12.213242	-56.245940	283.080	-0.170	0.040	-0.090	283.050	-1.300	0.200																			1580072723.0	11.48	21.26
26/01/2020 21:05:24	26012020	260120	210524	283.190	12.213252	-56.245993	283.240	-0.520	0.030	-0.360	283.220	-1.400	-0.000																			1580072724.0	11.65	21.58
26/01/2020 21:05:25	26012020	260120	210525	283.410	12.213260	-56.246050	283.470	-0.480	-0.360	-0.580	283.450	-1.800	-0.200																			1580072725.0	12.12	22.45
26/01/2020 21:05:26	26012020	260120	210526	283.620	12.213268	-56.246108	283.670	-0.120	-0.780	-0.600	283.660	-2.200	-0.200																			1580072726.0	12.58	23.30
26/01/2020 21:05:27	26012020	260120	210527	283.710	12.213278	-56.246168	283.720	0.270	-0.760	-0.270	283.710	-2.100	0.200																			1580072727.0	12.66	23.45
26/01/2020 21:05:28	26012020	260120	210528	283.600	12.213292	-56.246223	283.580	0.340	-0.200	0.280	283.560	-1.500	0.700																			1580072728.0	12.22	22.63
26/01/2020 21:05:29	26012020	260120	210529	283.340	12.213307	-56.246277	283.320	0.080	0.440	0.710	283.290	-0.900	1.100																			1580072729.0	11.63	21.54
26/01/2020 21:05:30	26012020	260120	210530	283.080	12.213320	-56.246330	283.050	-0.260	0.620	0.680	283.030	-0.800	1.000																			1580072730.0	11.48	21.26
26/01/2020 21:05:31	26012020	260120	210531	282.890	12.213332	-56.246385	282.880	-0.380	0.200	0.270	282.860	-1.300	0.600																			1580072731.0	11.87	21.98
26/01/2020 21:05:32	26012020	260120	210532	282.790	12.213342	-56.246442	282.800	-0.260	-0.380	-0.200	282.780	-1.800	0.100																			1580072732.0	12.40	22.96
26/01/2020 21:05:33	26012020	260120	210533	282.790	12.213352	-56.246500	282.820	-0.050	-0.720	-0.470	282.800	-2.100	-0.100																			1580072733.0	12.51	23.17
26/01/2020 21:05:34	26012020	260120	210534	282.870	12.213362	-56.246557	282.900	0.110	-0.710	-0.430	282.890	-2.100	-0.000																			1580072734.0	12.20	22.59
26/01/2020 21:05:35	26012020	260120	210535	282.990	12.213372	-56.246612	283.040	0.210	-0.570	-0.200	283.020	-1.900	0.200																			1580072735.0	11.87	21.98
26/01/2020 21:05:36	26012020	260120	210536	283.160	12.213385	-56.246667	283.220	0.330	-0.490	0.020	283.200	-1.900	0.400																			1580072736.0	11.82	21.89
26/01/2020 21:05:37	26012020	260120	210537	283.360	12.213398	-56.246722	283.410	0.420	-0.450	0.110	283.400	-1.800	0.500																			1580072737.0	11.99	22.21
26/01/2020 21:05:38	26012020	260120	210538	283.530	12.213410	-56.246777	283.560	0.340	-0.290	0.090	283.550	-1.700	0.400																			1580072738.0	12.07	22.35
26/01/2020 21:05:39	26012020	260120	210539	283.600	12.213423	-56.246832	283.620	-0.020	-0.010	0.030	283.610	-1.400	0.400																			1580072739.0	11.92	22.08
26/01/2020 21:05:40	26012020	260120	210540	283.590	12.213433	-56.246887	283.570	-0.500	0.220	-0.050	283.570	-1.200	0.300																			1580072740.0	11.70	21.67
26/01/2020 21:05:41	26012020	260120	210541	283.490	12.213443	-56.246942	283.480	-0.790	0.140	-0.170	283.470	-1.300	0.200																			1580072741.0	11.69	21.65
26/01/2020 21:05:42	26012020	260120	210542	283.390	12.213453	-56.246997	283.380	-0.630	-0.370	-0.280	283.380	-1.800	0.100																			1580072742.0	12.00	22.22
26/01/2020 21:05:43	26012020	260120	210543	283.330	12.213462	-56.247055	283.330	-0.070	-0.980	-0.220	283.330	-2.400	0.200																			1580072743.0	12.50	23.15
26/01/2020 21:05:44	26012020	260120	210544	283.270	12.213473	-56.247115	283.260	0.520	-1.160	0.070	283.260	-2.500	0.500																			1580072744.0	12.72	23.56
26/01/2020 21:05:45	26012020	260120	210545	283.150	12.213488	-56.247172	283.140	0.720	-0.680	0.420	283.130	-2.000	0.800																			1580072745.0	12.42	23.00
26/01/2020 21:05:46	26012020	260120	210546	282.990	12.213502	-56.247225	282.970	0.420	0.220	0.560	282.950	-1.100	0.900																			1580072746.0	11.82	21.89
26/01/2020 21:05:47	26012020	260120	210547	282.840	12.213515	-56.247277	282.840	-0.120	0.910	0.350	282.820	-0.400	0.700																			1580072747.0	11.35	21.02
26/01/2020 21:05:48	26012020	260120	210548	282.820	12.213525	-56.247330	282.850	-0.500	0.900	-0.070	282.830	-0.600	0.200																			1580072748.0	11.42	21.15
26/01/2020 21:05:49	26012020	260120	210549	282.960	12.213535	-56.247385	283.010	-0.490	0.180	-0.470	283.000	-1.300	-0.200																			1580072749.0	11.98	22.19
26/01/2020 21:05:50	26012020	260120	210550	283.220	12.213545	-56.247445	283.270	-0.150	-0.790	-0.710	283.270	-2.300	-0.400																			1580072750.0	12.58	23.30
26/01/2020 21:05:51	26012020	260120	210551	283.500	12.213557	-56.247503	283.540	0.210	-1.340	-0.600	283.550	-2.700	-0.200																			1580072751.0	12.77	23.65
26/01/2020 21:05:52	26012020	260120	210552	283.700	12.213568	-56.247560	283.710	0.330	-1.110	-0.200	283.720	-2.400	0.200																			1580072752.0	12.33	22.84
26/01/2020 21:05:53	26012020	260120	210553	283.730	12.213582	-56.247613	283.720	0.190	-0.370	0.230	283.720	-1.700	0.600																			1580072753.0	11.58	21.45
26/01/2020 21:05:54	26012020	260120	210554	283.610	12.213593	-56.247665	283.590	-0.040	0.250	0.470	283.580	-1.100	0.800																			1580072754.0	11.12	20.59
26/01/2020 21:05:55	26012020	260120	210555	283.440	12.213605	-56.247717	283.420	-0.170	0.310	0.410	283.410	-1.100	0.700																			1580072755.0	11.29	20.91
26/01/2020 21:05:56	26012020	260120	210556	283.360	12.213615	-56.247772	283.370	-0.080	-0.150	0.180	283.360	-1.600	0.500																			1580072756.0	11.88	22.00
26/01/2020 21:05:57	26012020	260120	210557	283.420	12.213627	-56.247830	283.450	0.150	-0.720	-0.050	283.440	-2.200	0.300																			1580072757.0	12.39	22.95
26/01/2020 21:05:58	26012020	260120	210558	283.540	12.213638	-56.247888	283.570	0.330	-0.990	-0.210	283.560	-2.400	0.100																			1580072758.0	12.57	23.28
26/01/2020 21:05:59	26012020	260120	210559	283.610	12.213650	-56.247945	283.620	0.290	-0.760	-0.260	283.610	-2.100	0.100	1014.30	26.20	26.20	21.30	21.30	64.00	74.00	74.00	406.00	26.30	39.00	6.10	34.00	4.10	4692	3629.00	27.70	27.70	1580072759.0	12.36	22.89
26/01/2020 21:06:00	26012020	260120	210600	283.580	12.213663	-56.248000	283.580	0.050	-0.210	-0.160	283.560	-1.500	0.200																			1580072760.0	11.96	22.15
26/01/2020 21:06:01	26012020	260120	210601	283.490	12.213675	-56.248055	283.510	-0.210	0.280	0.020	283.470	-1.100	0.400																			1580072761.0	11.73	21.72
26/01/2020 21:06:02	26012020	260120	210602	283.390	12.213688	-56.248108	283.410	-0.360	0.400	0.160	283.370	-1.000	0.500																			1580072762.0	11.81	21.87
26/01/2020 21:06:03	26012020	260120	210603	283.300	12.213700	-56.248165	283.330	-0.370	0.170	0.110	283.280	-1.300	0.500																			1580072763.0	12.11	22.43
26/01/2020 21:06:04	26012020	260120	210604	283.220	12.213712	-56.248222	283.260	-0.280	-0.140	-0.070	283.210	-1.600	0.300																			1580072764.0	12.34	22.85
26/01/2020 21:06:05	26012020	260120	210605	283.200	12.213722	-56.248278	283.250	-0.160	-0.300	-0.180	283.200	-1.700	0.200																			1580072765.0	12.29	22.76
26/01/2020 21:06:06	26012020	260120	210606	283.230	12.213732	-56.248335	283.290	-0.050	-0.310	-0.200	283.250	-1.700	0.200																			1580072766.0	11.96	22.15
26/01/2020 21:06:07	26012020	260120	210607	283.320	12.213742	-56.248388	283.390	0.070	-0.360	-0.130	283.350	-1.800	0.300																			1580072767.0	11.75	21.76
26/01/2020 21:06:08	26012020	260120	210608	283.480	12.213753	-56.248443	283.560	0.250	-0.540	0.000	283.520	-2.000	0.400																			1580072768.0	11.81	21.87
26/01/2020 21:06:09	26012020	260120	210609	283.660	12.213767	-56.248498	283.720	0.450	-0.680	0.200	283.690	-2.100	0.600																			1580072769.0	11.99	22.21
26/01/2020 21:06:10	26012020	260120	210610	283.720	12.213780	-56.248553	283.740	0.530	-0.520	0.440	283.710	-1.900	0.800																			1580072770.0	12.05	22.32
26/01/2020 21:06:11	26012020	260120	210611	283.600	12.213793	-56.248608	283.590	0.350	-0.150	0.530	283.560	-1.500	0.900																			1580072771.0	11.78	21.82
26/01/2020 21:06:12	26012020	260120	210612	283.410	12.213807	-56.248662	283.390	-0.010	0.090	0.360	283.370	-1.300	0.700																			1580072772.0	11.61	21.50
26/01/2020 21:06:13	26012020	260120	210613	283.280	12.213817	-56.248715	283.280	-0.320	-0.030	0.030	283.270	-1.500	0.400																			1580072773.0	11.75	21.76
26/01/2020 21:06:14	26012020	260120	210614	283.270	12.213827	-56.248772	283.290	-0.370	-0.400	-0.300	283.270	-1.800	0.000																			1580072774.0	12.14	22.48
26/01/2020 21:06:15	26012020	260120	210615	283.300	12.213837	-56.248830	283.320	-0.150	-0.720	-0.440	283.310	-2.100	-0.100																			1580072775.0	12.45	23.06
26/01/2020 21:06:16	26012020	260120	210616	283.340	12.213848	-56.248888	283.350	0.130	-0.760	-0.330	283.340	-2.100	0.100																			1580072776.0	12.43	23.02
26/01/2020 21:06:17	26012020	260120	210617	283.380	12.213862	-56.248943	283.400	0.240	-0.540	-0.070	283.390	-1.900	0.300																			1580072777.0	12.21	22.61
26/01/2020 21:06:18	26012020	260120	210618	283.410	12.213875	-56.248998	283.430	0.080	-0.150	0.150	283.420	-1.500	0.500																			1580072778.0	11.99	22.21
26/01/2020 21:06:19	26012020	260120	210619	283.410	12.213888	-56.249053	283.430	-0.250	0.230	0.210	283.400	-1.100	0.600																			1580072779.0	11.82	21.89
26/01/2020 21:06:20	26012020	260120	210620	283.350	12.213900	-56.249107	283.350	-0.570	0.430	0.060	283.330	-1.000	0.400																			1580072780.0	11.73	21.72
26/01/2020 21:06:21	26012020	260120	210621	283.250	12.213910	-56.249162	283.240	-0.650	0.300	-0.160	283.230	-1.100	0.200																			1580072781.0	11.81	21.87
26/01/2020 21:06:22	26012020	260120	210622	283.230	12.213918	-56.249218	283.260	-0.400	-0.200	-0.320	283.250	-1.700	0.000																			1580072782.0	12.04	22.30
26/01/2020 21:06:23	26012020	260120	210623	283.360	12.213928	-56.249277	283.400	0.080	-0.790	-0.310	283.400	-2.200	0.100																			1580072783.0	12.36	22.89
26/01/2020 21:06:24	26012020	260120	210624	283.500	12.213940	-56.249333	283.500	0.530	-1.030	-0.050	283.500	-2.400	0.400																			1580072784.0	12.47	23.09
26/01/2020 21:06:25	26012020	260120	210625	283.450	12.213953	-56.249390	283.410	0.670	-0.670	0.370	283.410	-2.000	0.800																			1580072785.0	12.15	22.50
26/01/2020 21:06:26	26012020	260120	210626	283.210	12.213967	-56.249443	283.160	0.470	0.010	0.720	283.160	-1.300	1.100																			1580072786.0	11.59	21.46
26/01/2020 21:06:27	26012020	260120	210627	282.930	12.213982	-56.249495	282.900	0.150	0.450	0.820	282.890	-0.900	1.200																			1580072787.0	11.30	20.93
26/01/2020 21:06:28	26012020	260120	210628	282.720	12.213993	-56.249547	282.720	-0.060	0.280	0.570	282.690	-1.200	0.900																			1580072788.0	11.54	21.37
26/01/2020 21:06:29	26012020	260120	210629	282.610	12.214005	-56.249603	282.630	-0.020	-0.340	0.130	282.610	-1.800	0.400																			1580072789.0	12.14	22.48
26/01/2020 21:06:30	26012020	260120	210630	282.630	12.214015	-56.249662	282.660	0.150	-0.890	-0.280	282.640	-2.300	0.000																			1580072790.0	12.57	23.28
26/01/2020 21:06:31	26012020	260120	210631	282.740	12.214025	-56.249720	282.790	0.230	-0.980	-0.460	282.770	-2.300	-0.100																			1580072791.0	12.53	23.21
26/01/2020 21:06:32	26012020	260120	210632	282.900	12.214037	-56.249777	282.940	0.070	-0.590	-0.320	282.930	-1.900	0.100																			1580072792.0	12.05	22.32
26/01/2020 21:06:33	26012020	260120	210633	283.030	12.214048	-56.249830	283.060	-0.270	-0.080	-0.070	283.050	-1.400	0.300																			1580072793.0	11.62	21.52
26/01/2020 21:06:34	26012020	260120	210634	283.130	12.214060	-56.249883	283.160	-0.590	0.190	0.110	283.140	-1.200	0.500																			1580072794.0	11.53	21.35
26/01/2020 21:06:35	26012020	260120	210635	283.190	12.214070	-56.249938	283.220	-0.670	0.100	0.130	283.190	-1.300	0.500																			1580072795.0	11.76	21.78
26/01/2020 21:06:36	26012020	260120	210636	283.230	12.214080	-56.249993	283.270	-0.460	-0.270	0.040	283.250	-1.700	0.400																			1580072796.0	12.12	22.45
26/01/2020 21:06:37	26012020	260120	210637	283.270	12.214092	-56.250052	283.290	-0.020	-0.680	0.070	283.270	-2.100	0.500																			1580072797.0	12.43	23.02
26/01/2020 21:06:38	26012020	260120	210638	283.260	12.214103	-56.250110	283.260	0.410	-0.820	0.270	283.250	-2.200	0.700																			1580072798.0	12.50	23.15
26/01/2020 21:06:39	26012020	260120	210639	283.160	12.214117	-56.250167	283.160	0.580	-0.570	0.490	283.140	-1.900	0.900																			1580072799.0	12.30	22.78
26/01/2020 21:06:40	26012020	260120	210640	282.990	12.214130	-56.250220	282.980	0.400	-0.050	0.550	282.940	-1.400	0.900																			1580072800.0	11.93	22.09
26/01/2020 21:06:41	26012020	260120	210641	282.760	12.214143	-56.250273	282.750	-0.000	0.430	0.370	282.720	-0.900	0.700																			1580072801.0	11.62	21.52
26/01/2020 21:06:42	26012020	260120	210642	282.580	12.214153	-56.250328	282.580	-0.350	0.530	0.080	282.550	-0.900	0.400																			1580072802.0	11.59	21.46
26/01/2020 21:06:43	26012020	260120	210643	282.490	12.214162	-56.250383	282.520	-0.430	0.200	-0.210	282.490	-1.300	0.100																			1580072803.0	11.86	21.96
26/01/2020 21:06:44	26012020	260120	210644	282.550	12.214172	-56.250440	282.620	-0.220	-0.340	-0.380	282.590	-1.800	-0.000																			1580072804.0	12.22	22.63
26/01/2020 21:06:45	26012020	260120	210645	282.720	12.214180	-56.250498	282.800	0.130	-0.680	-0.290	282.760	-2.100	0.100																			1580072805.0	12.36	22.89
26/01/2020 21:06:46	26012020	260120	210646	282.910	12.214192	-56.250553	282.980	0.400	-0.680	0.030	282.940	-2.100	0.400																			1580072806.0	12.10	22.41
26/01/2020 21:06:47	26012020	260120	210647	283.060	12.214205	-56.250608	283.130	0.480	-0.500	0.350	283.090	-1.900	0.700																			1580072807.0	11.76	21.78
26/01/2020 21:06:48	26012020	260120	210648	283.200	12.214220	-56.250662	283.270	0.380	-0.420	0.480	283.230	-1.800	0.800																			1580072808.0	11.64	21.56
26/01/2020 21:06:49	26012020	260120	210649	283.330	12.214232	-56.250715	283.390	0.170	-0.460	0.340	283.350	-1.900	0.700																			1580072809.0	11.84	21.93
26/01/2020 21:06:50	26012020	260120	210650	283.390	12.214243	-56.250772	283.420	-0.070	-0.480	0.080	283.390	-1.900	0.400																			1580072810.0	12.02	22.26
26/01/2020 21:06:51	26012020	260120	210651	283.340	12.214255	-56.250827	283.340	-0.270	-0.420	-0.110	283.320	-1.800	0.300																			1580072811.0	12.05	22.32
26/01/2020 21:06:52	26012020	260120	210652	283.220	12.214265	-56.250883	283.230	-0.350	-0.360	-0.150	283.200	-1.800	0.200																			1580072812.0	12.04	22.30
26/01/2020 21:06:53	26012020	260120	210653	283.110	12.214275	-56.250940	283.120	-0.310	-0.340	-0.090	283.090	-1.700	0.300																			1580072813.0	12.11	22.43
26/01/2020 21:06:54	26012020	260120	210654	283.010	12.214287	-56.250997	283.020	-0.200	-0.310	0.040	282.990	-1.700	0.400																			1580072814.0	12.20	22.59
26/01/2020 21:06:55	26012020	260120	210655	282.930	12.214297	-56.251052	282.930	-0.100	-0.160	0.200	282.910	-1.500	0.600																			1580072815.0	12.19	22.58
26/01/2020 21:06:56	26012020	260120	210656	282.870	12.214310	-56.251108	282.880	-0.070	0.050	0.340	282.860	-1.300	0.700																			1580072816.0	12.05	22.32
26/01/2020 21:06:57	26012020	260120	210657	282.860	12.214322	-56.251163	282.900	-0.070	0.140	0.370	282.870	-1.300	0.700																			1580072817.0	11.93	22.09
26/01/2020 21:06:58	26012020	260120	210658	282.930	12.214333	-56.251218	282.970	-0.010	0.000	0.220	282.940	-1.400	0.600																			1580072818.0	12.00	22.22
26/01/2020 21:06:59	26012020	260120	210659	283.000	12.214345	-56.251275	283.020	0.140	-0.250	-0.010	283.010	-1.700	0.300	1014.30	26.20	26.20	21.20	21.20	62.00	74.00	74.00	408.00	26.30	35.00	5.60	39.00	3.60	4519	3633.00	27.70	27.70	1580072819.0	12.19	22.58
26/01/2020 21:07:00	26012020	260120	210700	283.050	12.214355	-56.251332	283.080	0.290	-0.400	-0.130	283.060	-1.800	0.200																			1580072820.0	12.27	22.72
26/01/2020 21:07:01	26012020	260120	210701	283.050	12.214367	-56.251388	283.070	0.330	-0.320	-0.030	283.040	-1.700	0.400																			1580072821.0	12.12	22.45
26/01/2020 21:07:02	26012020	260120	210702	282.970	12.214378	-56.251443	282.970	0.190	-0.100	0.200	282.930	-1.500	0.600																			1580072822.0	11.85	21.95
26/01/2020 21:07:03	26012020	260120	210703	282.780	12.214392	-56.251497	282.770	-0.050	0.060	0.360	282.740	-1.300	0.700																			1580072823.0	11.65	21.58
26/01/2020 21:07:04	26012020	260120	210704	282.550	12.214403	-56.251550	282.550	-0.250	-0.000	0.370	282.510	-1.400	0.700																			1580072824.0	11.64	21.56
26/01/2020 21:07:05	26012020	260120	210705	282.390	12.214413	-56.251605	282.410	-0.230	-0.350	0.230	282.370	-1.800	0.600																			1580072825.0	11.82	21.89
26/01/2020 21:07:06	26012020	260120	210706	282.390	12.214423	-56.251662	282.440	0.050	-0.880	0.030	282.410	-2.300	0.400																			1580072826.0	12.13	22.46
26/01/2020 21:07:07	26012020	260120	210707	282.550	12.214433	-56.251718	282.620	0.460	-1.310	-0.100	282.600	-2.700	0.300																			1580072827.0	12.41	22.98
26/01/2020 21:07:08	26012020	260120	210708	282.810	12.214447	-56.251777	282.850	0.700	-1.290	-0.060	282.860	-2.600	0.300																			1580072828.0	12.50	23.15
26/01/2020 21:07:09	26012020	260120	210709	283.020	12.214460	-56.251833	283.040	0.520	-0.690	0.130	283.040	-2.000	0.500																			1580072829.0	12.24	22.67
26/01/2020 21:07:10	26012020	260120	210710	283.080	12.214472	-56.251887	283.090	-0.080	0.220	0.270	283.080	-1.100	0.600																			1580072830.0	11.75	21.76
26/01/2020 21:07:11	26012020	260120	210711	282.990	12.214485	-56.251940	282.970	-0.800	0.910	0.220	282.960	-0.500	0.600																			1580072831.0	11.41	21.13
26/01/2020 21:07:12	26012020	260120	210712	282.840	12.214493	-56.251993	282.840	-1.240	0.910	-0.060	282.810	-0.500	0.300																			1580072832.0	11.56	21.41
26/01/2020 21:07:13	26012020	260120	210713	282.740	12.214502	-56.252050	282.760	-1.100	0.200	-0.380	282.730	-1.300	-0.000																			1580072833.0	12.14	22.48
26/01/2020 21:07:14	26012020	260120	210714	282.750	12.214508	-56.252110	282.790	-0.420	-0.770	-0.490	282.760	-2.300	-0.100																			1580072834.0	12.80	23.71
26/01/2020 21:07:15	26012020	260120	210715	282.830	12.214518	-56.252172	282.870	0.440	-1.250	-0.220	282.850	-2.600	0.200																			1580072835.0	12.99	24.06
26/01/2020 21:07:16	26012020	260120	210716	282.840	12.214532	-56.252228	282.850	0.980	-0.850	0.310	282.830	-2.200	0.700																			1580072836.0	12.50	23.15
26/01/2020 21:07:17	26012020	260120	210717	282.700	12.214547	-56.252282	282.690	0.950	0.040	0.780	282.660	-1.300	1.200																			1580072837.0	11.65	21.58
26/01/2020 21:07:18	26012020	260120	210718	282.500	12.214562	-56.252332	282.510	0.530	0.640	0.860	282.470	-0.700	1.200																			1580072838.0	11.14	20.63
26/01/2020 21:07:19	26012020	260120	210719	282.370	12.214573	-56.252385	282.400	0.050	0.580	0.510	282.360	-0.900	0.800																			1580072839.0	11.36	21.04
26/01/2020 21:07:20	26012020	260120	210720	282.360	12.214585	-56.252440	282.420	-0.250	0.050	-0.040	282.370	-1.400	0.300																			1580072840.0	11.88	22.00
26/01/2020 21:07:21	26012020	260120	210721	282.490	12.214593	-56.252497	282.560	-0.300	-0.610	-0.500	282.530	-2.100	-0.200																			1580072841.0	12.25	22.69
26/01/2020 21:07:22	26012020	260120	210722	282.740	12.214602	-56.252555	282.820	-0.190	-1.070	-0.670	282.800	-2.500	-0.300																			1580072842.0	12.35	22.87
26/01/2020 21:07:23	26012020	260120	210723	283.030	12.214610	-56.252612	283.090	-0.030	-1.120	-0.480	283.080	-2.500	-0.100																			1580072843.0	12.19	22.58
26/01/2020 21:07:24	26012020	260120	210724	283.250	12.214622	-56.252667	283.290	0.080	-0.850	-0.130	283.280	-2.200	0.300																			1580072844.0	11.89	22.02
26/01/2020 21:07:25	26012020	260120	210725	283.350	12.214635	-56.252720	283.390	0.130	-0.520	0.150	283.360	-1.900	0.500																			1580072845.0	11.73	21.72
26/01/2020 21:07:26	26012020	260120	210726	283.380	12.214647	-56.252775	283.410	0.140	-0.320	0.270	283.380	-1.700	0.600																			1580072846.0	11.85	21.95
26/01/2020 21:07:27	26012020	260120	210727	283.360	12.214660	-56.252830	283.370	0.120	-0.220	0.250	283.340	-1.600	0.600																			1580072847.0	12.11	22.43
26/01/2020 21:07:28	26012020	260120	210728	283.270	12.214672	-56.252887	283.270	0.030	-0.080	0.170	283.240	-1.500	0.500																			1580072848.0	12.26	22.71
26/01/2020 21:07:29	26012020	260120	210729	283.100	12.214683	-56.252943	283.080	-0.130	0.150	0.090	283.050	-1.200	0.400																			1580072849.0	12.19	22.58
26/01/2020 21:07:30	26012020	260120	210730	282.880	12.214693	-56.253000	282.880	-0.290	0.350	0.010	282.850	-1.000	0.400																			1580072850.0	11.99	22.21
26/01/2020 21:07:31	26012020	260120	210731	282.740	12.214705	-56.253055	282.760	-0.360	0.310	-0.090	282.730	-1.100	0.300																			1580072851.0	11.91	22.06
26/01/2020 21:07:32	26012020	260120	210732	282.740	12.214715	-56.253110	282.780	-0.280	-0.020	-0.220	282.750	-1.500	0.100																			1580072852.0	12.03	22.28
26/01/2020 21:07:33	26012020	260120	210733	282.830	12.214727	-56.253167	282.880	-0.080	-0.420	-0.270	282.860	-1.900	0.100																			1580072853.0	12.24	22.67
26/01/2020 21:07:34	26012020	260120	210734	282.950	12.214737	-56.253223	283.010	0.140	-0.650	-0.170	282.980	-2.100	0.200																			1580072854.0	12.27	22.72
26/01/2020 21:07:35	26012020	260120	210735	283.100	12.214748	-56.253280	283.160	0.300	-0.610	0.070	283.140	-2.000	0.500																			1580072855.0	12.07	22.35
26/01/2020 21:07:36	26012020	260120	210736	283.250	12.214762	-56.253335	283.300	0.380	-0.430	0.370	283.280	-1.800	0.800																			1580072856.0	11.84	21.93
26/01/2020 21:07:37	26012020	260120	210737	283.350	12.214775	-56.253388	283.390	0.360	-0.270	0.560	283.360	-1.700	0.900																			1580072857.0	11.73	21.72
26/01/2020 21:07:38	26012020	260120	210738	283.370	12.214788	-56.253442	283.390	0.260	-0.200	0.500	283.370	-1.600	0.800																			1580072858.0	11.76	21.78
26/01/2020 21:07:39	26012020	260120	210739	283.310	12.214800	-56.253497	283.300	0.080	-0.220	0.280	283.280	-1.600	0.600																			1580072859.0	11.86	21.96
26/01/2020 21:07:40	26012020	260120	210740	283.170	12.214810	-56.253553	283.160	-0.110	-0.310	0.090	283.140	-1.700	0.400																			1580072860.0	11.96	22.15
26/01/2020 21:07:41	26012020	260120	210741	283.040	12.214820	-56.253608	283.020	-0.230	-0.460	-0.050	283.020	-1.900	0.300																			1580072861.0	12.03	22.28
26/01/2020 21:07:42	26012020	260120	210742	282.990	12.214830	-56.253665	283.000	-0.210	-0.610	-0.200	282.990	-2.000	0.100																			1580072862.0	12.13	22.46
26/01/2020 21:07:43	26012020	260120	210743	283.050	12.214842	-56.253722	283.070	-0.090	-0.610	-0.300	283.080	-2.000	0.100																			1580072863.0	12.20	22.59
26/01/2020 21:07:44	26012020	260120	210744	283.190	12.214852	-56.253778	283.190	0.030	-0.460	-0.220	283.210	-1.800	0.200																			1580072864.0	12.16	22.52
26/01/2020 21:07:45	26012020	260120	210745	283.310	12.214865	-56.253833	283.310	0.080	-0.210	0.060	283.330	-1.600	0.500																			1580072865.0	12.06	22.34
26/01/2020 21:07:46	26012020	260120	210746	283.360	12.214878	-56.253888	283.360	0.060	0.010	0.340	283.360	-1.400	0.700																			1580072866.0	12.03	22.28
26/01/2020 21:07:47	26012020	260120	210747	283.310	12.214892	-56.253943	283.310	0.030	0.120	0.430	283.290	-1.300	0.800																			1580072867.0	12.07	22.35
26/01/2020 21:07:48	26012020	260120	210748	283.200	12.214903	-56.254000	283.180	0.010	0.180	0.370	283.160	-1.200	0.700																			1580072868.0	12.14	22.48
26/01/2020 21:07:49	26012020	260120	210749	283.000	12.214917	-56.254055	282.970	-0.040	0.220	0.260	282.960	-1.200	0.600																			1580072869.0	12.06	22.34
26/01/2020 21:07:50	26012020	260120	210750	282.810	12.214927	-56.254110	282.800	-0.160	0.070	0.000	282.780	-1.400	0.300																			1580072870.0	11.88	22.00
26/01/2020 21:07:51	26012020	260120	210751	282.750	12.214937	-56.254167	282.780	-0.250	-0.400	-0.400	282.770	-1.900	-0.100																			1580072871.0	11.93	22.09
26/01/2020 21:07:52	26012020	260120	210752	282.910	12.214947	-56.254223	282.960	-0.200	-0.980	-0.800	282.970	-2.400	-0.500																			1580072872.0	12.21	22.61
26/01/2020 21:07:53	26012020	260120	210753	283.240	12.214955	-56.254282	283.290	-0.030	-1.280	-0.970	283.310	-2.700	-0.600																			1580072873.0	12.41	22.98
26/01/2020 21:07:54	26012020	260120	210754	283.530	12.214967	-56.254338	283.550	0.100	-0.970	-0.690	283.570	-2.300	-0.300																			1580072874.0	12.24	22.67
26/01/2020 21:07:55	26012020	260120	210755	283.640	12.214978	-56.254392	283.620	0.060	-0.240	-0.170	283.630	-1.600	0.300																			1580072875.0	11.78	21.82
26/01/2020 21:07:56	26012020	260120	210756	283.550	12.214992	-56.254445	283.510	-0.100	0.390	0.290	283.510	-1.000	0.700																			1580072876.0	11.48	21.26
26/01/2020 21:07:57	26012020	260120	210757	283.330	12.215005	-56.254498	283.290	-0.210	0.590	0.530	283.270	-0.800	0.900																			1580072877.0	11.61	21.50
26/01/2020 21:07:58	26012020	260120	210758	283.030	12.215017	-56.254553	282.990	-0.150	0.390	0.580	282.960	-1.100	0.900																			1580072878.0	11.98	22.19
26/01/2020 21:07:59	26012020	260120	210759	282.750	12.215028	-56.254610	282.720	0.060	-0.020	0.510	282.700	-1.500	0.900	1014.40	26.20	26.20	21.20	21.20	60.00	74.00	74.00	409.00	26.30	31.00	5.80	35.00	3.20	4361	3412.00	27.70	27.70	1580072879.0	12.24	22.67
26/01/2020 21:08:00	26012020	260120	210800	282.560	12.215042	-56.254667	282.570	0.320	-0.510	0.370	282.540	-2.000	0.700																			1580072880.0	12.31	22.80
26/01/2020 21:08:01	26012020	260120	210801	282.520	12.215053	-56.254723	282.540	0.520	-0.930	0.160	282.530	-2.400	0.500																			1580072881.0	12.29	22.76
26/01/2020 21:08:02	26012020	260120	210802	282.630	12.215065	-56.254780	282.670	0.570	-1.110	-0.050	282.670	-2.500	0.300																			1580072882.0	12.26	22.71
26/01/2020 21:08:03	26012020	260120	210803	282.860	12.215078	-56.254837	282.890	0.380	-0.860	-0.220	282.910	-2.200	0.100																			1580072883.0	12.13	22.46
26/01/2020 21:08:04	26012020	260120	210804	283.100	12.215090	-56.254890	283.130	-0.010	-0.360	-0.310	283.150	-1.700	0.000																			1580072884.0	11.82	21.89
26/01/2020 21:08:05	26012020	260120	210805	283.340	12.215102	-56.254945	283.360	-0.440	0.060	-0.320	283.390	-1.300	0.000																			1580072885.0	11.67	21.61
26/01/2020 21:08:06	26012020	260120	210806	283.520	12.215113	-56.255000	283.520	-0.710	0.190	-0.280	283.530	-1.200	0.100																			1580072886.0	11.87	21.98
26/01/2020 21:08:07	26012020	260120	210807	283.570	12.215122	-56.255057	283.580	-0.780	0.120	-0.190	283.580	-1.300	0.200																			1580072887.0	12.20	22.59
26/01/2020 21:08:08	26012020	260120	210808	283.560	12.215132	-56.255113	283.560	-0.650	0.040	0.010	283.540	-1.400	0.400																			1580072888.0	12.35	22.87
26/01/2020 21:08:09	26012020	260120	210809	283.440	12.215142	-56.255170	283.420	-0.390	0.060	0.350	283.410	-1.300	0.800																			1580072889.0	12.21	22.61
26/01/2020 21:08:10	26012020	260120	210810	283.220	12.215153	-56.255227	283.190	-0.050	0.050	0.690	283.160	-1.400	1.100																			1580072890.0	11.98	22.19
26/01/2020 21:08:11	26012020	260120	210811	282.940	12.215167	-56.255280	282.930	0.310	-0.140	0.870	282.890	-1.600	1.200																			1580072891.0	11.88	22.00
26/01/2020 21:08:12	26012020	260120	210812	282.740	12.215178	-56.255337	282.740	0.620	-0.520	0.790	282.710	-2.000	1.100																			1580072892.0	12.00	22.22
26/01/2020 21:08:13	26012020	260120	210813	282.640	12.215192	-56.255392	282.640	0.750	-0.840	0.520	282.630	-2.300	0.800																			1580072893.0	12.16	22.52
26/01/2020 21:08:14	26012020	260120	210814	282.650	12.215205	-56.255448	282.670	0.610	-0.900	0.150	282.660	-2.300	0.500																			1580072894.0	12.10	22.41
26/01/2020 21:08:15	26012020	260120	210815	282.760	12.215217	-56.255503	282.790	0.320	-0.720	-0.190	282.800	-2.100	0.100																			1580072895.0	11.91	22.06
26/01/2020 21:08:16	26012020	260120	210816	282.940	12.215227	-56.255558	282.960	0.010	-0.460	-0.390	282.980	-1.800	-0.000																			1580072896.0	11.82	21.89
26/01/2020 21:08:17	26012020	260120	210817	283.140	12.215238	-56.255613	283.150	-0.190	-0.250	-0.390	283.180	-1.600	0.000																			1580072897.0	11.90	22.04
26/01/2020 21:08:18	26012020	260120	210818	283.270	12.215248	-56.255668	283.260	-0.250	-0.070	-0.140	283.280	-1.500	0.300																			1580072898.0	12.11	22.43
26/01/2020 21:08:19	26012020	260120	210819	283.260	12.215262	-56.255725	283.250	-0.270	0.120	0.130	283.250	-1.300	0.500																			1580072899.0	12.19	22.58
26/01/2020 21:08:20	26012020	260120	210820	283.170	12.215275	-56.255782	283.180	-0.320	0.250	0.190	283.150	-1.200	0.500																			1580072900.0	12.13	22.46
26/01/2020 21:08:21	26012020	260120	210821	283.100	12.215285	-56.255837	283.120	-0.360	0.160	0.030	283.090	-1.300	0.400																			1580072901.0	12.10	22.41
26/01/2020 21:08:22	26012020	260120	210822	283.090	12.215295	-56.255893	283.120	-0.320	-0.130	-0.180	283.100	-1.600	0.200																			1580072902.0	12.20	22.59
26/01/2020 21:08:23	26012020	260120	210823	283.160	12.215305	-56.255952	283.200	-0.170	-0.460	-0.320	283.170	-1.900	0.000																			1580072903.0	12.30	22.78
26/01/2020 21:08:24	26012020	260120	210824	283.250	12.215315	-56.256008	283.260	0.030	-0.590	-0.360	283.260	-2.000	0.000																			1580072904.0	12.26	22.71
26/01/2020 21:08:25	26012020	260120	210825	283.280	12.215327	-56.256063	283.280	0.180	-0.490	-0.210	283.280	-1.900	0.200																			1580072905.0	12.04	22.30
26/01/2020 21:08:26	26012020	260120	210826	283.260	12.215338	-56.256118	283.250	0.220	-0.250	0.140	283.230	-1.600	0.600																			1580072906.0	11.78	21.82
26/01/2020 21:08:27	26012020	260120	210827	283.140	12.215352	-56.256172	283.130	0.180	-0.110	0.490	283.100	-1.500	0.900																			1580072907.0	11.66	21.59
26/01/2020 21:08:28	26012020	260120	210828	282.970	12.215365	-56.256225	282.970	0.150	-0.220	0.630	282.930	-1.700	1.000																			1580072908.0	11.76	21.78
26/01/2020 21:08:29	26012020	260120	210829	282.800	12.215377	-56.256282	282.810	0.180	-0.510	0.490	282.770	-1.900	0.800																			1580072909.0	12.07	22.35
26/01/2020 21:08:30	26012020	260120	210830	282.690	12.215388	-56.256338	282.710	0.210	-0.680	0.290	282.670	-2.100	0.600																			1580072910.0	12.31	22.80
26/01/2020 21:08:31	26012020	260120	210831	282.630	12.215400	-56.256395	282.650	0.170	-0.550	0.180	282.630	-1.900	0.500																			1580072911.0	12.23	22.65
26/01/2020 21:08:32	26012020	260120	210832	282.640	12.215412	-56.256450	282.670	0.060	-0.280	0.140	282.650	-1.600	0.500																			1580072912.0	11.98	22.19
26/01/2020 21:08:33	26012020	260120	210833	282.710	12.215423	-56.256505	282.740	-0.030	-0.120	0.060	282.730	-1.500	0.400																			1580072913.0	11.89	22.02
26/01/2020 21:08:34	26012020	260120	210834	282.800	12.215435	-56.256562	282.840	-0.040	-0.150	0.010	282.820	-1.600	0.400																			1580072914.0	12.09	22.39
26/01/2020 21:08:35	26012020	260120	210835	282.870	12.215448	-56.256618	282.890	-0.010	-0.230	0.050	282.880	-1.600	0.400																			1580072915.0	12.31	22.80
26/01/2020 21:08:36	26012020	260120	210836	282.890	12.215460	-56.256675	282.910	-0.070	-0.210	0.190	282.880	-1.600	0.600																			1580072916.0	12.34	22.85
26/01/2020 21:08:37	26012020	260120	210837	282.840	12.215472	-56.256732	282.870	-0.240	-0.030	0.370	282.830	-1.400	0.800																			1580072917.0	12.16	22.52
26/01/2020 21:08:38	26012020	260120	210838	282.750	12.215483	-56.256787	282.770	-0.460	0.170	0.470	282.720	-1.200	0.800																			1580072918.0	11.87	21.98
26/01/2020 21:08:39	26012020	260120	210839	282.640	12.215493	-56.256840	282.650	-0.510	0.130	0.430	282.620	-1.300	0.800																			1580072919.0	11.73	21.72
26/01/2020 21:08:40	26012020	260120	210840	282.590	12.215502	-56.256897	282.630	-0.280	-0.280	0.280	282.590	-1.700	0.600																			1580072920.0	11.90	22.04
26/01/2020 21:08:41	26012020	260120	210841	282.610	12.215512	-56.256953	282.660	0.140	-0.810	0.140	282.630	-2.300	0.500																			1580072921.0	12.30	22.78
26/01/2020 21:08:42	26012020	260120	210842	282.670	12.215522	-56.257012	282.720	0.530	-1.080	0.150	282.690	-2.500	0.500																			1580072922.0	12.46	23.08
26/01/2020 21:08:43	26012020	260120	210843	282.750	12.215533	-56.257068	282.770	0.660	-0.870	0.320	282.760	-2.200	0.700																			1580072923.0	12.28	22.74
26/01/2020 21:08:44	26012020	260120	210844	282.750	12.215547	-56.257123	282.760	0.520	-0.290	0.560	282.740	-1.600	0.900																			1580072924.0	11.89	22.02
26/01/2020 21:08:45	26012020	260120	210845	282.600	12.215560	-56.257177	282.580	0.230	0.300	0.720	282.560	-1.100	1.100																			1580072925.0	11.59	21.46
26/01/2020 21:08:46	26012020	260120	210846	282.370	12.215573	-56.257230	282.360	-0.050	0.510	0.660	282.330	-0.900	1.000																			1580072926.0	11.60	21.48
26/01/2020 21:08:47	26012020	260120	210847	282.200	12.215585	-56.257285	282.210	-0.230	0.200	0.390	282.180	-1.300	0.700																			1580072927.0	11.92	22.08
26/01/2020 21:08:48	26012020	260120	210848	282.140	12.215595	-56.257342	282.160	-0.270	-0.380	-0.060	282.140	-1.800	0.300																			1580072928.0	12.38	22.93
26/01/2020 21:08:49	26012020	260120	210849	282.180	12.215605	-56.257400	282.200	-0.260	-0.770	-0.510	282.200	-2.200	-0.200																			1580072929.0	12.58	23.30
26/01/2020 21:08:50	26012020	260120	210850	282.330	12.215613	-56.257458	282.370	-0.260	-0.800	-0.740	282.380	-2.200	-0.400																			1580072930.0	12.38	22.93
26/01/2020 21:08:51	26012020	260120	210851	282.590	12.215622	-56.257515	282.640	-0.220	-0.620	-0.620	282.650	-2.000	-0.200																			1580072931.0	12.02	22.26
26/01/2020 21:08:52	26012020	260120	210852	282.870	12.215632	-56.257570	282.910	-0.060	-0.420	-0.210	282.920	-1.800	0.200																			1580072932.0	11.89	22.02
26/01/2020 21:08:53	26012020	260120	210853	283.030	12.215643	-56.257625	283.030	0.170	-0.230	0.270	283.030	-1.600	0.700																			1580072933.0	11.98	22.19
26/01/2020 21:08:54	26012020	260120	210854	283.000	12.215657	-56.257680	282.980	0.320	-0.060	0.680	282.970	-1.400	1.100																			1580072934.0	12.05	22.32
26/01/2020 21:08:55	26012020	260120	210855	282.800	12.215672	-56.257735	282.760	0.250	0.110	0.830	282.740	-1.300	1.200																			1580072935.0	12.05	22.32
26/01/2020 21:08:56	26012020	260120	210856	282.480	12.215683	-56.257792	282.460	-0.030	0.230	0.640	282.430	-1.200	1.000																			1580072936.0	11.95	22.13
26/01/2020 21:08:57	26012020	260120	210857	282.210	12.215693	-56.257847	282.220	-0.330	0.170	0.260	282.180	-1.300	0.600																			1580072937.0	11.86	21.96
26/01/2020 21:08:58	26012020	260120	210858	282.130	12.215703	-56.257902	282.160	-0.380	-0.200	-0.180	282.140	-1.700	0.100																			1580072938.0	11.94	22.11
26/01/2020 21:08:59	26012020	260120	210859	282.280	12.215712	-56.257958	282.340	-0.100	-0.800	-0.460	282.330	-2.300	-0.100	1014.40	26.20	26.20	21.10	21.10	57.00	73.00	73.00	409.00	26.30	33.00	5.90	34.00	3.40	4218	3579.00	27.70	27.70	1580072939.0	12.25	22.69
26/01/2020 21:09:00	26012020	260120	210900	282.580	12.215722	-56.258017	282.660	0.360	-1.220	-0.400	282.650	-2.600	0.000																			1580072940.0	12.56	23.26
26/01/2020 21:09:01	26012020	260120	210901	282.870	12.215735	-56.258075	282.920	0.620	-1.060	-0.090	282.910	-2.400	0.300																			1580072941.0	12.52	23.19
26/01/2020 21:09:02	26012020	260120	210902	282.970	12.215748	-56.258130	282.990	0.440	-0.340	0.270	282.970	-1.600	0.700																			1580072942.0	12.03	22.28
26/01/2020 21:09:03	26012020	260120	210903	282.880	12.215762	-56.258183	282.890	-0.080	0.410	0.490	282.850	-0.900	0.900																			1580072943.0	11.51	21.32
26/01/2020 21:09:04	26012020	260120	210904	282.720	12.215773	-56.258235	282.730	-0.550	0.640	0.460	282.690	-0.800	0.800																			1580072944.0	11.45	21.21
26/01/2020 21:09:05	26012020	260120	210905	282.570	12.215783	-56.258292	282.590	-0.630	0.250	0.220	282.540	-1.200	0.600																			1580072945.0	11.95	22.13
26/01/2020 21:09:06	26012020	260120	210906	282.420	12.215793	-56.258350	282.430	-0.340	-0.340	-0.030	282.390	-1.800	0.300																			1580072946.0	12.54	23.22
26/01/2020 21:09:07	26012020	260120	210907	282.250	12.215802	-56.258408	282.250	-0.010	-0.620	-0.120	282.220	-2.000	0.200																			1580072947.0	12.65	23.43
26/01/2020 21:09:08	26012020	260120	210908	282.130	12.215812	-56.258465	282.140	0.080	-0.500	-0.100	282.110	-1.900	0.300																			1580072948.0	12.21	22.61
26/01/2020 21:09:09	26012020	260120	210909	282.110	12.215823	-56.258520	282.170	-0.030	-0.290	-0.050	282.130	-1.700	0.300																			1580072949.0	11.73	21.72
26/01/2020 21:09:10	26012020	260120	210910	282.280	12.215833	-56.258575	282.380	-0.060	-0.270	-0.030	282.340	-1.700	0.300																			1580072950.0	11.66	21.59
26/01/2020 21:09:11	26012020	260120	210911	282.610	12.215843	-56.258630	282.710	0.140	-0.420	0.070	282.680	-1.800	0.500																			1580072951.0	11.92	22.08
26/01/2020 21:09:12	26012020	260120	210912	282.940	12.215857	-56.258687	283.020	0.460	-0.550	0.330	282.990	-2.000	0.700																			1580072952.0	12.19	22.58
26/01/2020 21:09:13	26012020	260120	210913	283.110	12.215870	-56.258742	283.170	0.660	-0.470	0.660	283.130	-1.800	1.100																			1580072953.0	12.22	22.63
26/01/2020 21:09:14	26012020	260120	210914	283.100	12.215883	-56.258797	283.140	0.560	-0.200	0.870	283.090	-1.600	1.200																			1580072954.0	12.04	22.30
26/01/2020 21:09:15	26012020	260120	210915	282.970	12.215898	-56.258852	282.970	0.200	-0.000	0.750	282.930	-1.400	1.100																			1580072955.0	11.84	21.93
26/01/2020 21:09:16	26012020	260120	210916	282.800	12.215910	-56.258907	282.810	-0.200	-0.030	0.330	282.770	-1.400	0.600																			1580072956.0	11.89	22.02
26/01/2020 21:09:17	26012020	260120	210917	282.720	12.215918	-56.258963	282.740	-0.460	-0.260	-0.140	282.720	-1.700	0.200																			1580072957.0	12.12	22.45
26/01/2020 21:09:18	26012020	260120	210918	282.740	12.215927	-56.259020	282.750	-0.550	-0.470	-0.480	282.750	-1.900	-0.100																			1580072958.0	12.33	22.84
26/01/2020 21:09:19	26012020	260120	210919	282.750	12.215935	-56.259078	282.740	-0.530	-0.490	-0.510	282.750	-1.900	-0.100																			1580072959.0	12.32	22.82
26/01/2020 21:09:20	26012020	260120	210920	282.770	12.215945	-56.259135	282.770	-0.420	-0.350	-0.310	282.780	-1.700	0.100																			1580072960.0	12.11	22.43
26/01/2020 21:09:21	26012020	260120	210921	282.890	12.215955	-56.259190	282.910	-0.240	-0.240	-0.120	282.920	-1.600	0.300																			1580072961.0	11.98	22.19
26/01/2020 21:09:22	26012020	260120	210922	283.110	12.215967	-56.259247	283.130	-0.020	-0.230	-0.030	283.150	-1.600	0.300																			1580072962.0	12.06	22.34
26/01/2020 21:09:23	26012020	260120	210923	283.320	12.215978	-56.259302	283.330	0.150	-0.170	0.030	283.350	-1.600	0.400																			1580072963.0	12.14	22.48
26/01/2020 21:09:24	26012020	260120	210924	283.440	12.215990	-56.259358	283.440	0.240	-0.030	0.110	283.450	-1.400	0.500																			1580072964.0	12.04	22.30
26/01/2020 21:09:25	26012020	260120	210925	283.460	12.216002	-56.259413	283.450	0.290	0.040	0.170	283.450	-1.400	0.500																			1580072965.0	11.88	22.00
26/01/2020 21:09:26	26012020	260120	210926	283.410	12.216013	-56.259468	283.400	0.370	-0.100	0.120	283.390	-1.500	0.500																			1580072966.0	11.91	22.06
26/01/2020 21:09:27	26012020	260120	210927	283.340	12.216027	-56.259523	283.330	0.410	-0.320	0.000	283.320	-1.700	0.300																			1580072967.0	12.07	22.35
26/01/2020 21:09:28	26012020	260120	210928	283.280	12.216040	-56.259578	283.270	0.310	-0.460	-0.130	283.280	-1.900	0.200																			1580072968.0	12.11	22.43
26/01/2020 21:09:29	26012020	260120	210929	283.290	12.216052	-56.259633	283.300	0.090	-0.530	-0.290	283.300	-1.900	0.000																			1580072969.0	11.99	22.21
26/01/2020 21:09:30	26012020	260120	210930	283.370	12.216063	-56.259690	283.380	-0.120	-0.590	-0.470	283.390	-2.000	-0.100																			1580072970.0	11.96	22.15
26/01/2020 21:09:31	26012020	260120	210931	283.470	12.216073	-56.259745	283.490	-0.170	-0.640	-0.540	283.490	-2.000	-0.200																			1580072971.0	12.07	22.35
26/01/2020 21:09:32	26012020	260120	210932	283.580	12.216085	-56.259802	283.590	-0.090	-0.570	-0.410	283.590	-2.000	-0.000																			1580072972.0	12.18	22.56
26/01/2020 21:09:33	26012020	260120	210933	283.610	12.216097	-56.259858	283.610	0.000	-0.370	-0.040	283.600	-1.700	0.400																			1580072973.0	12.18	22.56
26/01/2020 21:09:34	26012020	260120	210934	283.500	12.216110	-56.259913	283.480	-0.040	-0.110	0.330	283.470	-1.500	0.700																			1580072974.0	12.11	22.43
26/01/2020 21:09:35	26012020	260120	210935	283.310	12.216123	-56.259970	283.300	-0.200	0.080	0.410	283.280	-1.300	0.800																			1580072975.0	12.04	22.30
26/01/2020 21:09:36	26012020	260120	210936	283.190	12.216135	-56.260025	283.190	-0.360	0.090	0.230	283.190	-1.300	0.600																			1580072976.0	12.09	22.39
26/01/2020 21:09:37	26012020	260120	210937	283.200	12.216147	-56.260082	283.210	-0.420	-0.020	-0.030	283.210	-1.400	0.300																			1580072977.0	12.19	22.58
26/01/2020 21:09:38	26012020	260120	210938	283.290	12.216157	-56.260138	283.320	-0.350	-0.190	-0.220	283.310	-1.600	0.100																			1580072978.0	12.24	22.67
26/01/2020 21:09:39	26012020	260120	210939	283.360	12.216167	-56.260195	283.390	-0.170	-0.300	-0.220	283.370	-1.700	0.200																			1580072979.0	12.23	22.65
26/01/2020 21:09:40	26012020	260120	210940	283.360	12.216177	-56.260252	283.370	0.040	-0.280	0.010	283.350	-1.700	0.400																			1580072980.0	12.13	22.46
26/01/2020 21:09:41	26012020	260120	210941	283.320	12.216188	-56.260307	283.320	0.240	-0.160	0.340	283.310	-1.600	0.700																			1580072981.0	11.92	22.08
26/01/2020 21:09:42	26012020	260120	210942	283.270	12.216202	-56.260362	283.280	0.400	-0.140	0.650	283.260	-1.600	1.000																			1580072982.0	11.79	21.84
26/01/2020 21:09:43	26012020	260120	210943	283.200	12.216217	-56.260415	283.210	0.530	-0.320	0.780	283.190	-1.800	1.100																			1580072983.0	11.88	22.00
26/01/2020 21:09:44	26012020	260120	210944	283.110	12.216232	-56.260470	283.110	0.580	-0.620	0.580	283.090	-2.100	0.900																			1580072984.0	12.11	22.43
26/01/2020 21:09:45	26012020	260120	210945	283.030	12.216243	-56.260527	283.030	0.500	-0.830	0.170	283.020	-2.200	0.500																			1580072985.0	12.29	22.76
26/01/2020 21:09:46	26012020	260120	210946	283.030	12.216255	-56.260583	283.050	0.280	-0.770	-0.190	283.040	-2.100	0.100																			1580072986.0	12.27	22.72
26/01/2020 21:09:47	26012020	260120	210947	283.090	12.216267	-56.260640	283.080	-0.000	-0.470	-0.360	283.100	-1.800	0.000																			1580072987.0	12.10	22.41
26/01/2020 21:09:48	26012020	260120	210948	283.120	12.216277	-56.260695	283.090	-0.300	-0.090	-0.320	283.110	-1.500	0.100																			1580072988.0	11.95	22.13
26/01/2020 21:09:49	26012020	260120	210949	283.070	12.216288	-56.260750	283.030	-0.550	0.180	-0.190	283.050	-1.200	0.200																			1580072989.0	11.91	22.06
26/01/2020 21:09:50	26012020	260120	210950	282.990	12.216298	-56.260807	282.960	-0.710	0.240	-0.080	282.980	-1.200	0.300																			1580072990.0	12.00	22.22
26/01/2020 21:09:51	26012020	260120	210951	282.980	12.216308	-56.260863	282.970	-0.670	0.040	-0.000	282.990	-1.400	0.400																			1580072991.0	12.14	22.48
26/01/2020 21:09:52	26012020	260120	210952	283.020	12.216320	-56.260920	283.010	-0.390	-0.280	0.110	283.030	-1.700	0.500																			1580072992.0	12.33	22.84
26/01/2020 21:09:53	26012020	260120	210953	283.040	12.216330	-56.260978	283.030	0.000	-0.500	0.240	283.040	-1.900	0.600																			1580072993.0	12.40	22.96
26/01/2020 21:09:54	26012020	260120	210954	283.050	12.216343	-56.261035	283.040	0.340	-0.520	0.360	283.050	-1.900	0.700																			1580072994.0	12.27	22.72
26/01/2020 21:09:55	26012020	260120	210955	283.090	12.216355	-56.261090	283.090	0.500	-0.390	0.400	283.100	-1.800	0.800																			1580072995.0	12.08	22.37
26/01/2020 21:09:56	26012020	260120	210956	283.170	12.216368	-56.261145	283.170	0.500	-0.240	0.380	283.180	-1.600	0.700																			1580072996.0	11.95	22.13
26/01/2020 21:09:57	26012020	260120	210957	283.220	12.216382	-56.261200	283.210	0.380	-0.130	0.300	283.230	-1.500	0.600																			1580072997.0	11.94	22.11
26/01/2020 21:09:58	26012020	260120	210958	283.200	12.216395	-56.261255	283.170	0.190	-0.090	0.120	283.190	-1.500	0.500																			1580072998.0	11.98	22.19
26/01/2020 21:09:59	26012020	260120	210959	283.130	12.216407	-56.261310	283.080	-0.020	-0.140	-0.110	283.100	-1.600	0.200	1014.30	26.20	26.20	21.10	21.10	56.00	73.00	73.00	409.00	26.30	33.00	5.30	44.00	3.40	4083	3421.00	27.70	27.60	1580072999.0	12.03	22.28
26/01/2020 21:10:00	26012020	260120	211000	282.990	12.216417	-56.261367	282.930	-0.190	-0.250	-0.260	282.950	-1.700	0.100																			1580073000.0	12.08	22.37
26/01/2020 21:10:01	26012020	260120	211001	282.770	12.216427	-56.261423	282.720	-0.250	-0.380	-0.240	282.730	-1.800	0.100																			1580073001.0	12.11	22.43
26/01/2020 21:10:02	26012020	260120	211002	282.580	12.216438	-56.261480	282.550	-0.190	-0.480	-0.100	282.550	-1.900	0.300																			1580073002.0	12.14	22.48
26/01/2020 21:10:03	26012020	260120	211003	282.500	12.216450	-56.261535	282.500	-0.050	-0.550	0.090	282.500	-2.000	0.500																			1580073003.0	12.13	22.46
26/01/2020 21:10:04	26012020	260120	211004	282.550	12.216462	-56.261592	282.570	0.090	-0.600	0.290	282.570	-2.000	0.700																			1580073004.0	12.17	22.54
26/01/2020 21:10:05	26012020	260120	211005	282.680	12.216475	-56.261648	282.710	0.170	-0.580	0.460	282.710	-2.000	0.800																			1580073005.0	12.24	22.67
26/01/2020 21:10:06	26012020	260120	211006	282.810	12.216488	-56.261705	282.840	0.150	-0.440	0.510	282.830	-1.800	0.900																			1580073006.0	12.26	22.71
26/01/2020 21:10:07	26012020	260120	211007	282.890	12.216500	-56.261760	282.920	0.030	-0.150	0.390	282.910	-1.500	0.700																			1580073007.0	12.20	22.59
26/01/2020 21:10:08	26012020	260120	211008	282.960	12.216512	-56.261817	282.980	-0.160	0.170	0.140	282.970	-1.200	0.500																			1580073008.0	12.04	22.30
26/01/2020 21:10:09	26012020	260120	211009	283.030	12.216522	-56.261872	283.050	-0.330	0.320	-0.060	283.040	-1.100	0.300																			1580073009.0	11.98	22.19
26/01/2020 21:10:10	26012020	260120	211010	283.050	12.216532	-56.261928	283.060	-0.370	0.180	-0.110	283.050	-1.300	0.300																			1580073010.0	12.07	22.35
26/01/2020 21:10:11	26012020	260120	211011	283.030	12.216543	-56.261985	283.030	-0.220	-0.190	-0.060	283.030	-1.600	0.300																			1580073011.0	12.26	22.71
26/01/2020 21:10:12	26012020	260120	211012	282.990	12.216555	-56.262043	282.990	0.030	-0.520	0.050	282.990	-2.000	0.400																			1580073012.0	12.41	22.98
26/01/2020 21:10:13	26012020	260120	211013	282.940	12.216567	-56.262100	282.940	0.230	-0.600	0.310	282.930	-2.000	0.700																			1580073013.0	12.33	22.84
26/01/2020 21:10:14	26012020	260120	211014	282.860	12.216580	-56.262155	282.860	0.250	-0.410	0.580	282.830	-1.800	1.000																			1580073014.0	12.00	22.22
26/01/2020 21:10:15	26012020	260120	211015	282.740	12.216592	-56.262208	282.740	0.150	-0.290	0.650	282.710	-1.700	1.000																			1580073015.0	11.75	21.76
26/01/2020 21:10:16	26012020	260120	211016	282.630	12.216603	-56.262263	282.650	0.090	-0.410	0.480	282.610	-1.800	0.800																			1580073016.0	11.87	21.98
26/01/2020 21:10:17	26012020	260120	211017	282.590	12.216615	-56.262320	282.630	0.150	-0.600	0.210	282.590	-2.000	0.600																			1580073017.0	12.23	22.65
26/01/2020 21:10:18	26012020	260120	211018	282.630	12.216625	-56.262378	282.670	0.220	-0.570	0.070	282.650	-1.900	0.400																			1580073018.0	12.38	22.93
26/01/2020 21:10:19	26012020	260120	211019	282.700	12.216637	-56.262435	282.740	0.160	-0.280	0.130	282.710	-1.600	0.500																			1580073019.0	12.20	22.59
26/01/2020 21:10:20	26012020	260120	211020	282.730	12.216650	-56.262490	282.760	-0.050	0.050	0.300	282.740	-1.300	0.700																			1580073020.0	11.98	22.19
26/01/2020 21:10:21	26012020	260120	211021	282.730	12.216662	-56.262545	282.770	-0.260	0.180	0.410	282.730	-1.200	0.800																			1580073021.0	11.94	22.11
26/01/2020 21:10:22	26012020	260120	211022	282.740	12.216673	-56.262600	282.800	-0.320	0.030	0.370	282.750	-1.400	0.700																			1580073022.0	12.10	22.41
26/01/2020 21:10:23	26012020	260120	211023	282.770	12.216683	-56.262658	282.830	-0.180	-0.250	0.200	282.770	-1.700	0.600																			1580073023.0	12.34	22.85
26/01/2020 21:10:24	26012020	260120	211024	282.810	12.216695	-56.262715	282.860	0.030	-0.470	0.040	282.820	-1.900	0.400																			1580073024.0	12.43	23.02
26/01/2020 21:10:25	26012020	260120	211025	282.860	12.216705	-56.262773	282.900	0.110	-0.490	-0.010	282.870	-1.900	0.400																			1580073025.0	12.29	22.76
26/01/2020 21:10:26	26012020	260120	211026	282.920	12.216717	-56.262828	282.950	0.020	-0.390	-0.020	282.930	-1.800	0.300																			1580073026.0	12.05	22.32
26/01/2020 21:10:27	26012020	260120	211027	282.970	12.216728	-56.262883	282.990	-0.120	-0.370	-0.150	282.990	-1.800	0.200																			1580073027.0	11.93	22.09
26/01/2020 21:10:28	26012020	260120	211028	283.060	12.216740	-56.262940	283.060	-0.140	-0.500	-0.390	283.080	-1.900	-0.000																			1580073028.0	12.08	22.37
26/01/2020 21:10:29	26012020	260120	211029	283.150	12.216750	-56.262997	283.140	-0.020	-0.630	-0.580	283.160	-2.000	-0.200																			1580073029.0	12.35	22.87
26/01/2020 21:10:30	26012020	260120	211030	283.150	12.216762	-56.263055	283.110	0.060	-0.470	-0.540	283.130	-1.800	-0.200																			1580073030.0	12.43	23.02
26/01/2020 21:10:31	26012020	260120	211031	282.970	12.216772	-56.263112	282.910	-0.040	0.000	-0.230	282.920	-1.300	0.200																			1580073031.0	12.14	22.48
26/01/2020 21:10:32	26012020	260120	211032	282.670	12.216783	-56.263165	282.610	-0.240	0.460	0.110	282.600	-0.900	0.500																			1580073032.0	11.74	21.74
26/01/2020 21:10:33	26012020	260120	211033	282.370	12.216795	-56.263218	282.350	-0.320	0.500	0.300	282.320	-0.900	0.700																			1580073033.0	11.67	21.61
26/01/2020 21:10:34	26012020	260120	211034	282.240	12.216808	-56.263275	282.260	-0.120	0.000	0.280	282.230	-1.500	0.600																			1580073034.0	12.02	22.26
26/01/2020 21:10:35	26012020	260120	211035	282.310	12.216820	-56.263332	282.380	0.300	-0.700	0.180	282.340	-2.200	0.500																			1580073035.0	12.51	23.17
26/01/2020 21:10:36	26012020	260120	211036	282.530	12.216833	-56.263392	282.610	0.670	-1.130	0.150	282.570	-2.500	0.500																			1580073036.0	12.76	23.63
26/01/2020 21:10:37	26012020	260120	211037	282.740	12.216847	-56.263448	282.810	0.740	-0.950	0.260	282.770	-2.300	0.600																			1580073037.0	12.53	23.21
26/01/2020 21:10:38	26012020	260120	211038	282.810	12.216860	-56.263503	282.850	0.410	-0.310	0.470	282.810	-1.600	0.900																			1580073038.0	11.99	22.21
26/01/2020 21:10:39	26012020	260120	211039	282.750	12.216873	-56.263557	282.790	-0.150	0.320	0.610	282.730	-1.000	1.000																			1580073039.0	11.55	21.39
26/01/2020 21:10:40	26012020	260120	211040	282.640	12.216883	-56.263610	282.680	-0.630	0.530	0.540	282.630	-0.900	0.900																			1580073040.0	11.52	21.34
26/01/2020 21:10:41	26012020	260120	211041	282.550	12.216893	-56.263665	282.590	-0.780	0.170	0.270	282.540	-1.300	0.600																			1580073041.0	11.90	22.04
26/01/2020 21:10:42	26012020	260120	211042	282.550	12.216902	-56.263723	282.620	-0.540	-0.520	-0.020	282.570	-2.000	0.300																			1580073042.0	12.42	23.00
26/01/2020 21:10:43	26012020	260120	211043	282.680	12.216910	-56.263783	282.760	-0.090	-1.100	-0.120	282.720	-2.500	0.300																			1580073043.0	12.74	23.59
26/01/2020 21:10:44	26012020	260120	211044	282.880	12.216922	-56.263842	282.960	0.310	-1.180	0.040	282.920	-2.600	0.400																			1580073044.0	12.64	23.41
26/01/2020 21:10:45	26012020	260120	211045	283.050	12.216933	-56.263898	283.090	0.480	-0.760	0.290	283.080	-2.100	0.700																			1580073045.0	12.24	22.67
26/01/2020 21:10:46	26012020	260120	211046	283.090	12.216947	-56.263953	283.110	0.370	-0.130	0.490	283.080	-1.500	0.900																			1580073046.0	11.89	22.02
26/01/2020 21:10:47	26012020	260120	211047	282.980	12.216960	-56.264007	282.960	0.100	0.320	0.560	282.940	-1.100	0.900																			1580073047.0	11.78	21.82
26/01/2020 21:10:48	26012020	260120	211048	282.770	12.216972	-56.264063	282.770	-0.140	0.410	0.410	282.730	-1.000	0.700																			1580073048.0	11.97	22.17
26/01/2020 21:10:49	26012020	260120	211049	282.560	12.216983	-56.264120	282.580	-0.240	0.200	0.090	282.530	-1.200	0.400																			1580073049.0	12.29	22.76
26/01/2020 21:10:50	26012020	260120	211050	282.430	12.216993	-56.264178	282.440	-0.170	-0.050	-0.230	282.410	-1.500	0.100																			1580073050.0	12.45	23.06
26/01/2020 21:10:51	26012020	260120	211051	282.390	12.217002	-56.264235	282.430	-0.010	-0.200	-0.350	282.400	-1.600	0.000																			1580073051.0	12.37	22.91
26/01/2020 21:10:52	26012020	260120	211052	282.450	12.217013	-56.264292	282.500	0.160	-0.300	-0.170	282.480	-1.700	0.200																			1580073052.0	12.13	22.46
26/01/2020 21:10:53	26012020	260120	211053	282.580	12.217025	-56.264347	282.640	0.300	-0.440	0.120	282.610	-1.900	0.500																			1580073053.0	12.05	22.32
26/01/2020 21:10:54	26012020	260120	211054	282.720	12.217038	-56.264403	282.780	0.330	-0.530	0.380	282.750	-1.900	0.800																			1580073054.0	12.08	22.37
26/01/2020 21:10:55	26012020	260120	211055	282.830	12.217052	-56.264458	282.880	0.220	-0.500	0.480	282.850	-1.900	0.900																			1580073055.0	12.03	22.28
26/01/2020 21:10:56	26012020	260120	211056	282.920	12.217065	-56.264513	282.970	0.010	-0.460	0.310	282.930	-1.900	0.600																			1580073056.0	11.93	22.09
26/01/2020 21:10:57	26012020	260120	211057	283.030	12.217075	-56.264568	283.100	-0.190	-0.530	-0.050	283.060	-1.900	0.300																			1580073057.0	11.98	22.19
26/01/2020 21:10:58	26012020	260120	211058	283.190	12.217085	-56.264625	283.250	-0.270	-0.660	-0.340	283.220	-2.100	0.000																			1580073058.0	12.22	22.63
26/01/2020 21:10:59	26012020	260120	211059	283.330	12.217095	-56.264683	283.380	-0.230	-0.700	-0.370	283.360	-2.100	0.000	1014.40	26.20	26.20	21.00	21.00	59.00	73.00	73.00	407.00	26.30	36.00	5.10	48.00	3.60	3957	3526.00	27.70	27.70	1580073059.0	12.42	23.00
26/01/2020 21:11:00	26012020	260120	211100	283.390	12.217105	-56.264742	283.420	-0.140	-0.520	-0.130	283.390	-1.900	0.300																			1580073060.0	12.42	23.00
26/01/2020 21:11:01	26012020	260120	211101	283.340	12.217117	-56.264798	283.340	-0.070	-0.160	0.160	283.320	-1.500	0.600																			1580073061.0	12.28	22.74
26/01/2020 21:11:02	26012020	260120	211102	283.220	12.217130	-56.264853	283.210	-0.050	0.180	0.350	283.190	-1.200	0.700																			1580073062.0	12.12	22.45
26/01/2020 21:11:03	26012020	260120	211103	283.080	12.217142	-56.264910	283.070	-0.000	0.310	0.440	283.040	-1.100	0.800																			1580073063.0	12.12	22.45
26/01/2020 21:11:04	26012020	260120	211104	282.870	12.217155	-56.264967	282.860	0.050	0.260	0.440	282.820	-1.200	0.800																			1580073064.0	12.26	22.71
26/01/2020 21:11:05	26012020	260120	211105	282.630	12.217167	-56.265023	282.620	0.050	0.180	0.320	282.580	-1.200	0.700																			1580073065.0	12.28	22.74
26/01/2020 21:11:06	26012020	260120	211106	282.440	12.217178	-56.265078	282.450	-0.020	0.070	0.120	282.420	-1.400	0.500																			1580073066.0	12.13	22.46
26/01/2020 21:11:07	26012020	260120	211107	282.400	12.217188	-56.265135	282.440	-0.040	-0.190	-0.130	282.420	-1.600	0.200																			1580073067.0	11.98	22.19
26/01/2020 21:11:08	26012020	260120	211108	282.530	12.217198	-56.265190	282.600	0.110	-0.640	-0.310	282.580	-2.100	0.000																			1580073068.0	12.07	22.35
26/01/2020 21:11:09	26012020	260120	211109	282.780	12.217210	-56.265248	282.860	0.350	-1.020	-0.330	282.840	-2.400	0.100																			1580073069.0	12.31	22.80
26/01/2020 21:11:10	26012020	260120	211110	283.050	12.217222	-56.265305	283.120	0.480	-0.970	-0.090	283.100	-2.300	0.300																			1580073070.0	12.33	22.84
26/01/2020 21:11:11	26012020	260120	211111	283.210	12.217235	-56.265360	283.240	0.360	-0.490	0.350	283.220	-1.800	0.800																			1580073071.0	11.99	22.21
26/01/2020 21:11:12	26012020	260120	211112	283.200	12.217248	-56.265413	283.200	0.050	-0.020	0.680	283.180	-1.400	1.100																			1580073072.0	11.63	21.54
26/01/2020 21:11:13	26012020	260120	211113	283.080	12.217262	-56.265467	283.090	-0.220	0.030	0.680	283.050	-1.400	1.000																			1580073073.0	11.72	21.71
26/01/2020 21:11:14	26012020	260120	211114	282.960	12.217273	-56.265523	282.990	-0.260	-0.330	0.410	282.940	-1.800	0.700																			1580073074.0	12.23	22.65
26/01/2020 21:11:15	26012020	260120	211115	282.910	12.217283	-56.265582	282.930	-0.140	-0.730	0.100	282.900	-2.200	0.400																			1580073075.0	12.68	23.48
26/01/2020 21:11:16	26012020	260120	211116	282.900	12.217295	-56.265642	282.920	-0.040	-0.820	-0.040	282.890	-2.200	0.300																			1580073076.0	12.76	23.63
26/01/2020 21:11:17	26012020	260120	211117	282.840	12.217305	-56.265700	282.830	-0.110	-0.430	0.070	282.820	-1.800	0.500																			1580073077.0	12.49	23.13
26/01/2020 21:11:18	26012020	260120	211118	282.690	12.217317	-56.265755	282.660	-0.320	0.210	0.360	282.650	-1.100	0.800																			1580073078.0	12.00	22.22
26/01/2020 21:11:19	26012020	260120	211119	282.520	12.217328	-56.265810	282.520	-0.430	0.610	0.530	282.490	-0.800	0.900																			1580073079.0	11.69	21.65
26/01/2020 21:11:20	26012020	260120	211120	282.450	12.217340	-56.265865	282.500	-0.300	0.460	0.460	282.450	-1.000	0.800																			1580073080.0	11.87	21.98
26/01/2020 21:11:21	26012020	260120	211121	282.520	12.217350	-56.265922	282.590	0.040	-0.100	0.220	282.550	-1.600	0.600																			1580073081.0	12.33	22.84
26/01/2020 21:11:22	26012020	260120	211122	282.700	12.217362	-56.265980	282.760	0.360	-0.610	0.020	282.740	-2.000	0.400																			1580073082.0	12.63	23.39
26/01/2020 21:11:23	26012020	260120	211123	282.880	12.217373	-56.266038	282.930	0.490	-0.700	0.030	282.910	-2.100	0.400																			1580073083.0	12.49	23.13
26/01/2020 21:11:24	26012020	260120	211124	282.940	12.217385	-56.266093	282.960	0.370	-0.430	0.240	282.930	-1.800	0.600																			1580073084.0	12.04	22.30
26/01/2020 21:11:25	26012020	260120	211125	282.870	12.217398	-56.266147	282.880	0.150	-0.140	0.450	282.840	-1.500	0.800																			1580073085.0	11.66	21.59
26/01/2020 21:11:26	26012020	260120	211126	282.770	12.217410	-56.266202	282.780	-0.050	-0.110	0.440	282.750	-1.500	0.800																			1580073086.0	11.70	21.67
26/01/2020 21:11:27	26012020	260120	211127	282.730	12.217420	-56.266257	282.760	-0.120	-0.350	0.190	282.740	-1.800	0.500																			1580073087.0	12.01	22.24
26/01/2020 21:11:28	26012020	260120	211128	282.790	12.217430	-56.266315	282.840	-0.020	-0.680	-0.070	282.820	-2.100	0.300																			1580073088.0	12.32	22.82
26/01/2020 21:11:29	26012020	260120	211129	282.920	12.217440	-56.266373	282.960	0.190	-0.860	-0.120	282.940	-2.300	0.300																			1580073089.0	12.51	23.17
26/01/2020 21:11:30	26012020	260120	211130	283.000	12.217452	-56.266430	283.020	0.290	-0.650	0.080	283.000	-2.000	0.500																			1580073090.0	12.44	23.04
26/01/2020 21:11:31	26012020	260120	211131	282.980	12.217465	-56.266487	282.970	0.140	-0.110	0.320	282.970	-1.500	0.700																			1580073091.0	12.12	22.45
26/01/2020 21:11:32	26012020	260120	211132	282.880	12.217478	-56.266540	282.880	-0.250	0.370	0.370	282.860	-1.000	0.700																			1580073092.0	11.77	21.80
26/01/2020 21:11:33	26012020	260120	211133	282.800	12.217490	-56.266593	282.800	-0.630	0.430	0.150	282.780	-1.000	0.500																			1580073093.0	11.74	21.74
26/01/2020 21:11:34	26012020	260120	211134	282.780	12.217500	-56.266650	282.800	-0.670	-0.030	-0.150	282.800	-1.500	0.200																			1580073094.0	12.08	22.37
26/01/2020 21:11:35	26012020	260120	211135	282.890	12.217508	-56.266710	282.930	-0.290	-0.690	-0.320	282.930	-2.200	0.000																			1580073095.0	12.57	23.28
26/01/2020 21:11:36	26012020	260120	211136	283.100	12.217518	-56.266768	283.120	0.230	-1.050	-0.260	283.140	-2.400	0.100																			1580073096.0	12.77	23.65
26/01/2020 21:11:37	26012020	260120	211137	283.270	12.217532	-56.266827	283.280	0.480	-0.790	0.010	283.300	-2.100	0.400																			1580073097.0	12.48	23.11
26/01/2020 21:11:38	26012020	260120	211138	283.360	12.217545	-56.266882	283.370	0.320	-0.200	0.250	283.380	-1.500	0.600																			1580073098.0	11.90	22.04
26/01/2020 21:11:39	26012020	260120	211139	283.420	12.217558	-56.266933	283.420	-0.050	0.230	0.220	283.430	-1.200	0.600																			1580073099.0	11.60	21.48
26/01/2020 21:11:40	26012020	260120	211140	283.460	12.217568	-56.266988	283.470	-0.310	0.250	-0.110	283.470	-1.200	0.200																			1580073100.0	11.79	21.84
26/01/2020 21:11:41	26012020	260120	211141	283.450	12.217578	-56.267045	283.430	-0.340	0.040	-0.420	283.440	-1.400	-0.100																			1580073101.0	12.20	22.59
26/01/2020 21:11:42	26012020	260120	211142	283.360	12.217588	-56.267103	283.330	-0.220	-0.130	-0.430	283.330	-1.500	-0.000																			1580073102.0	12.40	22.96
26/01/2020 21:11:43	26012020	260120	211143	283.210	12.217598	-56.267160	283.170	-0.100	-0.140	-0.140	283.180	-1.500	0.300																			1580073103.0	12.21	22.61
26/01/2020 21:11:44	26012020	260120	211144	283.020	12.217610	-56.267215	282.980	0.010	-0.140	0.180	282.980	-1.600	0.600																			1580073104.0	11.95	22.13
26/01/2020 21:11:45	26012020	260120	211145	282.820	12.217623	-56.267270	282.810	0.210	-0.310	0.390	282.800	-1.700	0.800																			1580073105.0	11.89	22.02
26/01/2020 21:11:46	26012020	260120	211146	282.760	12.217637	-56.267325	282.790	0.500	-0.640	0.380	282.770	-2.100	0.700																			1580073106.0	12.07	22.35
26/01/2020 21:11:47	26012020	260120	211147	282.880	12.217648	-56.267382	282.930	0.710	-0.920	0.210	282.920	-2.300	0.600																			1580073107.0	12.29	22.76
26/01/2020 21:11:48	26012020	260120	211148	283.060	12.217662	-56.267438	283.110	0.630	-0.880	0.030	283.100	-2.300	0.400																			1580073108.0	12.33	22.84
26/01/2020 21:11:49	26012020	260120	211149	283.250	12.217675	-56.267495	283.280	0.190	-0.510	-0.130	283.280	-1.900	0.200																			1580073109.0	12.09	22.39
26/01/2020 21:11:50	26012020	260120	211150	283.400	12.217687	-56.267548	283.440	-0.390	-0.100	-0.290	283.430	-1.500	0.100																			1580073110.0	11.81	21.87
26/01/2020 21:11:51	26012020	260120	211151	283.520	12.217697	-56.267603	283.540	-0.750	0.060	-0.400	283.540	-1.400	-0.000																			1580073111.0	11.83	21.91
26/01/2020 21:11:52	26012020	260120	211152	283.550	12.217707	-56.267660	283.550	-0.750	-0.060	-0.430	283.540	-1.500	-0.000																			1580073112.0	12.17	22.54
26/01/2020 21:11:53	26012020	260120	211153	283.490	12.217717	-56.267718	283.500	-0.530	-0.260	-0.330	283.480	-1.700	0.100																			1580073113.0	12.47	23.09
26/01/2020 21:11:54	26012020	260120	211154	283.480	12.217727	-56.267777	283.500	-0.290	-0.360	-0.180	283.480	-1.800	0.200																			1580073114.0	12.52	23.19
26/01/2020 21:11:55	26012020	260120	211155	283.550	12.217738	-56.267833	283.570	-0.120	-0.330	0.010	283.560	-1.700	0.400																			1580073115.0	12.35	22.87
26/01/2020 21:11:56	26012020	260120	211156	283.600	12.217750	-56.267890	283.600	0.050	-0.170	0.220	283.600	-1.600	0.600																			1580073116.0	12.19	22.58
26/01/2020 21:11:57	26012020	260120	211157	283.520	12.217763	-56.267947	283.480	0.240	0.090	0.460	283.480	-1.300	0.900																			1580073117.0	12.04	22.30
26/01/2020 21:11:58	26012020	260120	211158	283.300	12.217777	-56.268000	283.270	0.380	0.290	0.670	283.260	-1.100	1.000																			1580073118.0	11.87	21.98
26/01/2020 21:11:59	26012020	260120	211159	283.090	12.217790	-56.268055	283.080	0.450	0.180	0.660	283.060	-1.300	1.000	1014.40	26.20	26.20	21.20	21.20	61.00	73.00	73.00	406.00	26.20	39.00	5.90	37.00	4.10	3828	3550.00	27.70	27.70	1580073119.0	11.83	21.91
26/01/2020 21:12:00	26012020	260120	211200	283.020	12.217803	-56.268110	283.030	0.470	-0.250	0.360	283.020	-1.700	0.700																			1580073120.0	12.03	22.28
26/01/2020 21:12:01	26012020	260120	211201	283.090	12.217815	-56.268167	283.120	0.430	-0.750	-0.060	283.120	-2.200	0.300																			1580073121.0	12.30	22.78
26/01/2020 21:12:02	26012020	260120	211202	283.260	12.217827	-56.268223	283.300	0.300	-0.960	-0.410	283.300	-2.400	-0.100																			1580073122.0	12.38	22.93
26/01/2020 21:12:03	26012020	260120	211203	283.430	12.217838	-56.268280	283.450	0.050	-0.740	-0.470	283.460	-2.100	-0.100																			1580073123.0	12.15	22.50
26/01/2020 21:12:04	26012020	260120	211204	283.510	12.217848	-56.268335	283.510	-0.300	-0.250	-0.260	283.500	-1.600	0.100																			1580073124.0	11.80	21.85
26/01/2020 21:12:05	26012020	260120	211205	283.410	12.217860	-56.268388	283.380	-0.580	0.110	-0.020	283.380	-1.300	0.400																			1580073125.0	11.59	21.46
26/01/2020 21:12:06	26012020	260120	211206	283.220	12.217872	-56.268443	283.190	-0.590	0.030	0.130	283.190	-1.400	0.500																			1580073126.0	11.77	21.80
26/01/2020 21:12:07	26012020	260120	211207	283.070	12.217882	-56.268500	283.050	-0.280	-0.450	0.140	283.050	-1.900	0.500																			1580073127.0	12.24	22.67
26/01/2020 21:12:08	26012020	260120	211208	283.040	12.217893	-56.268558	283.040	0.160	-0.980	0.010	283.040	-2.400	0.400																			1580073128.0	12.70	23.52
26/01/2020 21:12:09	26012020	260120	211209	283.110	12.217905	-56.268618	283.130	0.430	-1.080	-0.090	283.130	-2.500	0.300																			1580073129.0	12.80	23.71
26/01/2020 21:12:10	26012020	260120	211210	283.220	12.217918	-56.268675	283.240	0.350	-0.560	-0.080	283.230	-1.900	0.300																			1580073130.0	12.41	22.98
26/01/2020 21:12:11	26012020	260120	211211	283.300	12.217930	-56.268730	283.310	-0.020	0.270	0.080	283.300	-1.100	0.500																			1580073131.0	11.81	21.87
26/01/2020 21:12:12	26012020	260120	211212	283.300	12.217942	-56.268782	283.310	-0.410	0.840	0.330	283.290	-0.600	0.700																			1580073132.0	11.45	21.21
26/01/2020 21:12:13	26012020	260120	211213	283.220	12.217955	-56.268837	283.250	-0.530	0.730	0.480	283.210	-0.700	0.900																			1580073133.0	11.67	21.61
26/01/2020 21:12:14	26012020	260120	211214	283.130	12.217967	-56.268893	283.150	-0.300	0.100	0.450	283.100	-1.400	0.800																			1580073134.0	12.27	22.72
26/01/2020 21:12:15	26012020	260120	211215	283.030	12.217977	-56.268952	283.060	0.100	-0.510	0.360	283.010	-2.000	0.700																			1580073135.0	12.71	23.54
26/01/2020 21:12:16	26012020	260120	211216	282.920	12.217988	-56.269010	282.940	0.420	-0.690	0.390	282.890	-2.100	0.800																			1580073136.0	12.56	23.26
26/01/2020 21:12:17	26012020	260120	211217	282.790	12.218000	-56.269067	282.810	0.520	-0.510	0.520	282.770	-1.900	0.900																			1580073137.0	12.06	22.34
26/01/2020 21:12:18	26012020	260120	211218	282.690	12.218013	-56.269120	282.710	0.440	-0.290	0.610	282.670	-1.700	1.000																			1580073138.0	11.67	21.61
26/01/2020 21:12:19	26012020	260120	211219	282.660	12.218025	-56.269173	282.700	0.290	-0.260	0.520	282.660	-1.700	0.900																			1580073139.0	11.63	21.54
26/01/2020 21:12:20	26012020	260120	211220	282.710	12.218037	-56.269228	282.760	0.140	-0.480	0.250	282.720	-1.900	0.600																			1580073140.0	11.86	21.96
26/01/2020 21:12:21	26012020	260120	211221	282.810	12.218048	-56.269285	282.860	-0.010	-0.760	-0.080	282.830	-2.200	0.300																			1580073141.0	12.17	22.54
26/01/2020 21:12:22	26012020	260120	211222	282.940	12.218058	-56.269342	283.000	-0.150	-0.860	-0.290	282.970	-2.300	0.100																			1580073142.0	12.33	22.84
26/01/2020 21:12:23	26012020	260120	211223	283.090	12.218068	-56.269398	283.130	-0.310	-0.650	-0.350	283.120	-2.000	0.000																			1580073143.0	12.23	22.65
26/01/2020 21:12:24	26012020	260120	211224	283.230	12.218078	-56.269455	283.280	-0.430	-0.250	-0.250	283.260	-1.600	0.100																			1580073144.0	12.01	22.24
26/01/2020 21:12:25	26012020	260120	211225	283.360	12.218088	-56.269510	283.410	-0.440	0.050	-0.090	283.380	-1.400	0.300																			1580073145.0	11.89	22.02
26/01/2020 21:12:26	26012020	260120	211226	283.450	12.218100	-56.269565	283.480	-0.300	0.100	0.030	283.460	-1.300	0.400																			1580073146.0	12.06	22.34
26/01/2020 21:12:27	26012020	260120	211227	283.490	12.218112	-56.269622	283.530	-0.060	0.040	0.100	283.500	-1.400	0.500																			1580073147.0	12.29	22.76
26/01/2020 21:12:28	26012020	260120	211228	283.520	12.218123	-56.269680	283.540	0.160	-0.030	0.140	283.530	-1.400	0.500																			1580073148.0	12.37	22.91
26/01/2020 21:12:29	26012020	260120	211229	283.520	12.218137	-56.269737	283.530	0.250	-0.030	0.170	283.520	-1.400	0.500																			1580073149.0	12.27	22.72
26/01/2020 21:12:30	26012020	260120	211230	283.460	12.218148	-56.269792	283.460	0.190	0.010	0.130	283.440	-1.400	0.500																			1580073150.0	12.08	22.37
26/01/2020 21:12:31	26012020	260120	211231	283.370	12.218160	-56.269847	283.370	0.070	-0.080	-0.060	283.360	-1.500	0.300																			1580073151.0	11.92	22.08
26/01/2020 21:12:32	26012020	260120	211232	283.340	12.218172	-56.269903	283.350	0.040	-0.410	-0.370	283.340	-1.900	-0.000																			1580073152.0	12.01	22.24
26/01/2020 21:12:33	26012020	260120	211233	283.380	12.218183	-56.269960	283.400	0.150	-0.760	-0.550	283.390	-2.200	-0.200																			1580073153.0	12.27	22.72
26/01/2020 21:12:34	26012020	260120	211234	283.400	12.218195	-56.270017	283.410	0.290	-0.840	-0.410	283.390	-2.200	-0.000																			1580073154.0	12.34	22.85
26/01/2020 21:12:35	26012020	260120	211235	283.330	12.218207	-56.270072	283.330	0.290	-0.580	-0.120	283.310	-2.000	0.300																			1580073155.0	12.13	22.46
26/01/2020 21:12:36	26012020	260120	211236	283.200	12.218220	-56.270127	283.200	0.100	-0.220	0.060	283.170	-1.600	0.400																			1580073156.0	11.84	21.93
26/01/2020 21:12:37	26012020	260120	211237	283.050	12.218233	-56.270182	283.060	-0.200	0.020	0.070	283.020	-1.400	0.400																			1580073157.0	11.78	21.82
26/01/2020 21:12:38	26012020	260120	211238	282.950	12.218245	-56.270237	282.990	-0.430	0.050	-0.060	282.950	-1.400	0.300																			1580073158.0	11.89	22.02
26/01/2020 21:12:39	26012020	260120	211239	282.960	12.218255	-56.270292	283.000	-0.480	-0.070	-0.210	282.970	-1.500	0.100																			1580073159.0	12.06	22.34
26/01/2020 21:12:40	26012020	260120	211240	283.020	12.218265	-56.270348	283.070	-0.330	-0.290	-0.290	283.040	-1.700	0.100																			1580073160.0	12.17	22.54
26/01/2020 21:12:41	26012020	260120	211241	283.130	12.218275	-56.270405	283.170	-0.040	-0.530	-0.230	283.150	-2.000	0.200																			1580073161.0	12.28	22.74
26/01/2020 21:12:42	26012020	260120	211242	283.250	12.218287	-56.270463	283.280	0.260	-0.680	0.030	283.270	-2.100	0.400																			1580073162.0	12.35	22.87
26/01/2020 21:12:43	26012020	260120	211243	283.350	12.218302	-56.270520	283.370	0.440	-0.630	0.410	283.370	-2.000	0.800																			1580073163.0	12.35	22.87
26/01/2020 21:12:44	26012020	260120	211244	283.370	12.218315	-56.270575	283.380	0.410	-0.370	0.700	283.360	-1.700	1.100																			1580073164.0	12.24	22.67
26/01/2020 21:12:45	26012020	260120	211245	283.260	12.218330	-56.270630	283.260	0.190	-0.040	0.710	283.230	-1.400	1.000																			1580073165.0	12.08	22.37
26/01/2020 21:12:46	26012020	260120	211246	283.070	12.218342	-56.270687	283.060	-0.110	0.200	0.460	283.030	-1.200	0.800																			1580073166.0	11.99	22.21
26/01/2020 21:12:47	26012020	260120	211247	282.840	12.218352	-56.270742	282.830	-0.380	0.250	0.160	282.790	-1.200	0.500																			1580073167.0	12.00	22.22
26/01/2020 21:12:48	26012020	260120	211248	282.610	12.218362	-56.270798	282.610	-0.480	0.070	-0.050	282.570	-1.400	0.300																			1580073168.0	12.07	22.35
26/01/2020 21:12:49	26012020	260120	211249	282.480	12.218372	-56.270855	282.530	-0.330	-0.330	-0.110	282.480	-1.800	0.300																			1580073169.0	12.21	22.61
26/01/2020 21:12:50	26012020	260120	211250	282.520	12.218382	-56.270912	282.580	0.030	-0.750	-0.020	282.540	-2.200	0.400																			1580073170.0	12.38	22.93
26/01/2020 21:12:51	26012020	260120	211251	282.630	12.218395	-56.270970	282.700	0.360	-0.900	0.160	282.660	-2.300	0.500																			1580073171.0	12.41	22.98
26/01/2020 21:12:52	26012020	260120	211252	282.730	12.218408	-56.271025	282.790	0.450	-0.640	0.380	282.740	-2.000	0.800																			1580073172.0	12.20	22.59
26/01/2020 21:12:53	26012020	260120	211253	282.780	12.218420	-56.271080	282.850	0.290	-0.160	0.520	282.790	-1.500	0.900																			1580073173.0	11.82	21.89
26/01/2020 21:12:54	26012020	260120	211254	282.860	12.218433	-56.271133	282.920	0.050	0.130	0.430	282.870	-1.300	0.800																			1580073174.0	11.65	21.58
26/01/2020 21:12:55	26012020	260120	211255	282.970	12.218443	-56.271188	283.020	-0.080	0.040	0.100	282.990	-1.400	0.400																			1580073175.0	11.89	22.02
26/01/2020 21:12:56	26012020	260120	211256	283.060	12.218453	-56.271247	283.100	-0.100	-0.220	-0.210	283.080	-1.700	0.100																			1580073176.0	12.29	22.76
26/01/2020 21:12:57	26012020	260120	211257	283.090	12.218463	-56.271303	283.120	-0.120	-0.340	-0.350	283.090	-1.800	0.000																			1580073177.0	12.46	23.08
26/01/2020 21:12:58	26012020	260120	211258	283.080	12.218475	-56.271362	283.120	-0.190	-0.270	-0.230	283.080	-1.700	0.200																			1580073178.0	12.25	22.69
26/01/2020 21:12:59	26012020	260120	211259	283.050	12.218485	-56.271417	283.080	-0.220	-0.190	0.040	283.040	-1.600	0.400	1014.30	26.20	26.20	21.30	21.20	56.00	74.00	74.00	406.00	26.20	39.00	6.70	27.00	4.30	3686	3634.00	27.70	27.70	1580073179.0	11.98	22.19
26/01/2020 21:13:00	26012020	260120	211300	283.000	12.218497	-56.271472	283.040	-0.120	-0.310	0.210	282.990	-1.800	0.600																			1580073180.0	11.99	22.21
26/01/2020 21:13:01	26012020	260120	211301	282.970	12.218508	-56.271528	283.000	0.100	-0.510	0.210	282.970	-2.000	0.600																			1580073181.0	12.23	22.65
26/01/2020 21:13:02	26012020	260120	211302	282.950	12.218522	-56.271585	282.980	0.280	-0.590	0.190	282.950	-2.000	0.600																			1580073182.0	12.37	22.91
26/01/2020 21:13:03	26012020	260120	211303	282.940	12.218533	-56.271642	282.950	0.290	-0.430	0.240	282.930	-1.800	0.600																			1580073183.0	12.23	22.65
26/01/2020 21:13:04	26012020	260120	211304	282.910	12.218547	-56.271697	282.930	0.160	-0.170	0.260	282.910	-1.600	0.600																			1580073184.0	12.00	22.22
26/01/2020 21:13:05	26012020	260120	211305	282.890	12.218558	-56.271752	282.910	-0.010	-0.030	0.110	282.890	-1.400	0.400																			1580073185.0	11.91	22.06
26/01/2020 21:13:06	26012020	260120	211306	282.910	12.218570	-56.271808	282.940	-0.110	-0.080	-0.150	282.910	-1.500	0.200																			1580073186.0	12.03	22.28
26/01/2020 21:13:07	26012020	260120	211307	282.950	12.218580	-56.271865	282.990	-0.150	-0.200	-0.320	282.970	-1.600	0.000																			1580073187.0	12.22	22.63
26/01/2020 21:13:08	26012020	260120	211308	283.000	12.218592	-56.271922	283.040	-0.180	-0.280	-0.260	283.010	-1.700	0.100																			1580073188.0	12.23	22.65
26/01/2020 21:13:09	26012020	260120	211309	283.050	12.218603	-56.271978	283.100	-0.140	-0.400	-0.060	283.060	-1.800	0.300																			1580073189.0	12.17	22.54
26/01/2020 21:13:10	26012020	260120	211310	283.110	12.218615	-56.272035	283.160	0.010	-0.570	0.140	283.130	-2.000	0.500																			1580073190.0	12.23	22.65
26/01/2020 21:13:11	26012020	260120	211311	283.170	12.218628	-56.272092	283.210	0.200	-0.610	0.290	283.180	-2.000	0.700																			1580073191.0	12.36	22.89
26/01/2020 21:13:12	26012020	260120	211312	283.160	12.218640	-56.272148	283.190	0.260	-0.420	0.410	283.150	-1.800	0.800																			1580073192.0	12.31	22.80
26/01/2020 21:13:13	26012020	260120	211313	283.030	12.218653	-56.272203	283.030	0.080	-0.030	0.480	282.980	-1.400	0.800																			1580073193.0	12.09	22.39
26/01/2020 21:13:14	26012020	260120	211314	282.790	12.218665	-56.272258	282.780	-0.260	0.350	0.380	282.740	-1.000	0.700																			1580073194.0	11.82	21.89
26/01/2020 21:13:15	26012020	260120	211315	282.530	12.218675	-56.272313	282.510	-0.530	0.460	0.160	282.470	-1.000	0.500																			1580073195.0	11.75	21.76
26/01/2020 21:13:16	26012020	260120	211316	282.300	12.218683	-56.272368	282.300	-0.520	0.120	-0.100	282.270	-1.400	0.200																			1580073196.0	11.88	22.00
26/01/2020 21:13:17	26012020	260120	211317	282.270	12.218693	-56.272425	282.330	-0.160	-0.570	-0.290	282.300	-2.100	0.100																			1580073197.0	12.25	22.69
26/01/2020 21:13:18	26012020	260120	211318	282.480	12.218703	-56.272483	282.580	0.400	-1.210	-0.320	282.540	-2.700	0.100																			1580073198.0	12.61	23.35
26/01/2020 21:13:19	26012020	260120	211319	282.810	12.218715	-56.272543	282.900	0.810	-1.270	-0.060	282.860	-2.600	0.400																			1580073199.0	12.65	23.43
26/01/2020 21:13:20	26012020	260120	211320	283.040	12.218730	-56.272598	283.100	0.820	-0.700	0.400	283.060	-2.000	0.800																			1580073200.0	12.19	22.58
26/01/2020 21:13:21	26012020	260120	211321	283.080	12.218745	-56.272652	283.100	0.440	0.070	0.770	283.050	-1.300	1.200																			1580073201.0	11.69	21.65
26/01/2020 21:13:22	26012020	260120	211322	282.880	12.218760	-56.272703	282.880	-0.080	0.550	0.820	282.820	-0.900	1.200																			1580073202.0	11.54	21.37
26/01/2020 21:13:23	26012020	260120	211323	282.560	12.218772	-56.272758	282.560	-0.480	0.480	0.510	282.500	-1.000	0.800																			1580073203.0	11.81	21.87
26/01/2020 21:13:24	26012020	260120	211324	282.310	12.218780	-56.272817	282.330	-0.600	-0.030	0.060	282.280	-1.500	0.400																			1580073204.0	12.30	22.78
26/01/2020 21:13:25	26012020	260120	211325	282.250	12.218788	-56.272875	282.300	-0.470	-0.600	-0.270	282.260	-2.100	0.100																			1580073205.0	12.64	23.41
26/01/2020 21:13:26	26012020	260120	211326	282.350	12.218797	-56.272935	282.420	-0.200	-0.900	-0.280	282.380	-2.300	0.100																			1580073206.0	12.63	23.39
26/01/2020 21:13:27	26012020	260120	211327	282.480	12.218808	-56.272992	282.550	0.060	-0.820	0.000	282.500	-2.200	0.400																			1580073207.0	12.37	22.91
26/01/2020 21:13:28	26012020	260120	211328	282.540	12.218822	-56.273047	282.590	0.150	-0.420	0.340	282.550	-1.800	0.700																			1580073208.0	12.06	22.34
26/01/2020 21:13:29	26012020	260120	211329	282.580	12.218833	-56.273102	282.630	0.040	-0.040	0.530	282.590	-1.400	0.900																			1580073209.0	11.81	21.87
26/01/2020 21:13:30	26012020	260120	211330	282.670	12.218847	-56.273157	282.750	-0.100	0.020	0.430	282.700	-1.400	0.800																			1580073210.0	11.85	21.95
26/01/2020 21:13:31	26012020	260120	211331	282.850	12.218857	-56.273213	282.930	-0.060	-0.180	0.150	282.890	-1.600	0.500																			1580073211.0	12.18	22.56
26/01/2020 21:13:32	26012020	260120	211332	283.040	12.218867	-56.273270	283.100	0.110	-0.280	-0.090	283.060	-1.700	0.300																			1580073212.0	12.45	23.06
26/01/2020 21:13:33	26012020	260120	211333	283.100	12.218877	-56.273328	283.120	0.180	-0.070	-0.050	283.090	-1.400	0.300																			1580073213.0	12.31	22.80
26/01/2020 21:13:34	26012020	260120	211334	283.000	12.218888	-56.273383	282.990	0.030	0.280	0.200	282.960	-1.100	0.600																			1580073214.0	11.86	21.96
26/01/2020 21:13:35	26012020	260120	211335	282.790	12.218902	-56.273437	282.790	-0.180	0.330	0.380	282.750	-1.100	0.700																			1580073215.0	11.59	21.46
26/01/2020 21:13:36	26012020	260120	211336	282.600	12.218912	-56.273490	282.610	-0.170	-0.130	0.300	282.580	-1.600	0.600																			1580073216.0	11.78	21.82
26/01/2020 21:13:37	26012020	260120	211337	282.530	12.218923	-56.273548	282.560	0.170	-0.910	0.050	282.530	-2.400	0.400																			1580073217.0	12.31	22.80
26/01/2020 21:13:38	26012020	260120	211338	282.570	12.218933	-56.273607	282.610	0.620	-1.430	-0.070	282.580	-2.900	0.300																			1580073218.0	12.71	23.54
26/01/2020 21:13:39	26012020	260120	211339	282.600	12.218947	-56.273665	282.620	0.770	-1.260	0.070	282.590	-2.600	0.500																			1580073219.0	12.58	23.30
26/01/2020 21:13:40	26012020	260120	211340	282.500	12.218960	-56.273720	282.520	0.420	-0.490	0.310	282.470	-1.800	0.700																			1580073220.0	12.02	22.26
26/01/2020 21:13:41	26012020	260120	211341	282.340	12.218973	-56.273773	282.360	-0.260	0.290	0.390	282.320	-1.100	0.700																			1580073221.0	11.52	21.34
26/01/2020 21:13:42	26012020	260120	211342	282.240	12.218983	-56.273827	282.270	-0.820	0.570	0.170	282.230	-0.900	0.500																			1580073222.0	11.55	21.39
26/01/2020 21:13:43	26012020	260120	211343	282.240	12.218992	-56.273883	282.320	-0.930	0.240	-0.170	282.260	-1.200	0.100																			1580073223.0	12.07	22.35
26/01/2020 21:13:44	26012020	260120	211344	282.400	12.219000	-56.273942	282.500	-0.550	-0.350	-0.400	282.440	-1.800	-0.100																			1580073224.0	12.65	23.43
26/01/2020 21:13:45	26012020	260120	211345	282.660	12.219010	-56.274002	282.770	0.010	-0.720	-0.350	282.710	-2.100	0.000																			1580073225.0	12.85	23.80
26/01/2020 21:13:46	26012020	260120	211346	282.890	12.219022	-56.274060	282.990	0.360	-0.540	-0.030	282.930	-1.900	0.400																			1580073226.0	12.57	23.28
26/01/2020 21:13:47	26012020	260120	211347	282.970	12.219035	-56.274115	283.030	0.280	0.060	0.360	282.970	-1.300	0.700																			1580073227.0	11.94	22.11
26/01/2020 21:13:48	26012020	260120	211348	282.880	12.219048	-56.274167	282.910	-0.080	0.530	0.560	282.850	-0.900	0.900																			1580073228.0	11.38	21.08
26/01/2020 21:13:49	26012020	260120	211349	282.710	12.219058	-56.274220	282.730	-0.320	0.410	0.470	282.680	-1.100	0.800																			1580073229.0	11.42	21.15
26/01/2020 21:13:50	26012020	260120	211350	282.580	12.219068	-56.274275	282.610	-0.170	-0.280	0.200	282.560	-1.800	0.500																			1580073230.0	11.98	22.19
26/01/2020 21:13:51	26012020	260120	211351	282.540	12.219077	-56.274335	282.580	0.300	-1.060	0.030	282.540	-2.500	0.400																			1580073231.0	12.56	23.26
26/01/2020 21:13:52	26012020	260120	211352	282.570	12.219088	-56.274393	282.620	0.750	-1.330	0.090	282.580	-2.700	0.500																			1580073232.0	12.72	23.56
26/01/2020 21:13:53	26012020	260120	211353	282.580	12.219102	-56.274450	282.610	0.820	-0.850	0.370	282.560	-2.200	0.800																			1580073233.0	12.28	22.74
26/01/2020 21:13:54	26012020	260120	211354	282.490	12.219115	-56.274503	282.520	0.450	-0.040	0.560	282.470	-1.400	0.900																			1580073234.0	11.64	21.56
26/01/2020 21:13:55	26012020	260120	211355	282.370	12.219128	-56.274555	282.390	-0.100	0.460	0.460	282.350	-0.900	0.800																			1580073235.0	11.36	21.04
26/01/2020 21:13:56	26012020	260120	211356	282.300	12.219140	-56.274610	282.320	-0.510	0.340	0.060	282.290	-1.100	0.400																			1580073236.0	11.69	21.65
26/01/2020 21:13:57	26012020	260120	211357	282.320	12.219148	-56.274667	282.350	-0.600	-0.220	-0.430	282.340	-1.700	-0.100																			1580073237.0	12.29	22.76
26/01/2020 21:13:58	26012020	260120	211358	282.480	12.219157	-56.274727	282.540	-0.410	-0.760	-0.750	282.530	-2.200	-0.400																			1580073238.0	12.72	23.56
26/01/2020 21:13:59	26012020	260120	211359	282.760	12.219165	-56.274785	282.830	-0.130	-0.870	-0.660	282.820	-2.300	-0.300	1014.40	26.20	26.20	21.30	21.30	55.00	74.00	74.00	408.00	26.20	35.00	6.30	29.00	3.80	3552	3506.00	27.70	27.70	1580073239.0	12.67	23.46
26/01/2020 21:14:00	26012020	260120	211400	283.020	12.219177	-56.274842	283.090	0.020	-0.490	-0.290	283.050	-1.800	0.100																			1580073240.0	12.21	22.61
26/01/2020 21:14:01	26012020	260120	211401	283.160	12.219188	-56.274897	283.220	-0.040	0.050	0.130	283.170	-1.300	0.500																			1580073241.0	11.70	21.67
26/01/2020 21:14:02	26012020	260120	211402	283.220	12.219202	-56.274948	283.270	-0.170	0.280	0.360	283.230	-1.100	0.700																			1580073242.0	11.56	21.41
26/01/2020 21:14:03	26012020	260120	211403	283.280	12.219213	-56.275003	283.350	-0.200	0.050	0.310	283.310	-1.400	0.600																			1580073243.0	11.84	21.93
26/01/2020 21:14:04	26012020	260120	211404	283.380	12.219225	-56.275060	283.430	-0.060	-0.420	0.130	283.390	-1.900	0.500																			1580073244.0	12.29	22.76
26/01/2020 21:14:05	26012020	260120	211405	283.410	12.219235	-56.275118	283.450	0.170	-0.690	0.070	283.400	-2.100	0.400																			1580073245.0	12.53	23.21
26/01/2020 21:14:06	26012020	260120	211406	283.300	12.219247	-56.275177	283.290	0.320	-0.520	0.230	283.250	-1.900	0.600																			1580073246.0	12.33	22.84
26/01/2020 21:14:07	26012020	260120	211407	283.010	12.219258	-56.275230	282.980	0.290	-0.060	0.460	282.940	-1.400	0.800																			1580073247.0	11.85	21.95
26/01/2020 21:14:08	26012020	260120	211408	282.690	12.219272	-56.275283	282.660	0.170	0.220	0.590	282.630	-1.200	0.900																			1580073248.0	11.56	21.41
26/01/2020 21:14:09	26012020	260120	211409	282.480	12.219283	-56.275338	282.490	0.110	0.070	0.530	282.470	-1.400	0.900																			1580073249.0	11.71	21.69
26/01/2020 21:14:10	26012020	260120	211410	282.480	12.219295	-56.275393	282.510	0.170	-0.370	0.310	282.490	-1.800	0.600																			1580073250.0	12.13	22.46
26/01/2020 21:14:11	26012020	260120	211411	282.610	12.219307	-56.275452	282.660	0.260	-0.760	0.070	282.650	-2.200	0.400																			1580073251.0	12.44	23.04
26/01/2020 21:14:12	26012020	260120	211412	282.770	12.219318	-56.275508	282.800	0.220	-0.750	-0.030	282.790	-2.100	0.300																			1580073252.0	12.40	22.96
26/01/2020 21:14:13	26012020	260120	211413	282.870	12.219330	-56.275565	282.910	-0.030	-0.370	0.050	282.890	-1.700	0.400																			1580073253.0	12.02	22.26
26/01/2020 21:14:14	26012020	260120	211414	282.990	12.219342	-56.275618	283.040	-0.360	-0.000	0.140	283.020	-1.400	0.500																			1580073254.0	11.64	21.56
26/01/2020 21:14:15	26012020	260120	211415	283.130	12.219352	-56.275673	283.180	-0.560	0.000	0.140	283.150	-1.400	0.500																			1580073255.0	11.68	21.63
26/01/2020 21:14:16	26012020	260120	211416	283.270	12.219362	-56.275728	283.330	-0.460	-0.350	0.100	283.300	-1.800	0.500																			1580073256.0	12.09	22.39
26/01/2020 21:14:17	26012020	260120	211417	283.430	12.219372	-56.275787	283.490	-0.120	-0.700	0.110	283.450	-2.100	0.500																			1580073257.0	12.50	23.15
26/01/2020 21:14:18	26012020	260120	211418	283.540	12.219383	-56.275845	283.580	0.220	-0.660	0.310	283.550	-2.000	0.700																			1580073258.0	12.52	23.19
26/01/2020 21:14:19	26012020	260120	211419	283.540	12.219397	-56.275902	283.550	0.300	-0.220	0.590	283.520	-1.600	1.000																			1580073259.0	12.12	22.45
26/01/2020 21:14:20	26012020	260120	211420	283.410	12.219408	-56.275955	283.400	0.120	0.220	0.710	283.370	-1.200	1.100																			1580073260.0	11.68	21.63
26/01/2020 21:14:21	26012020	260120	211421	283.210	12.219422	-56.276008	283.210	-0.090	0.310	0.590	283.170	-1.100	0.900																			1580073261.0	11.65	21.58
26/01/2020 21:14:22	26012020	260120	211422	283.050	12.219432	-56.276063	283.070	-0.120	0.010	0.300	283.040	-1.500	0.600																			1580073262.0	11.98	22.19
26/01/2020 21:14:23	26012020	260120	211423	283.000	12.219443	-56.276122	283.040	0.030	-0.420	0.010	283.000	-1.900	0.300																			1580073263.0	12.33	22.84
26/01/2020 21:14:24	26012020	260120	211424	283.020	12.219453	-56.276178	283.060	0.200	-0.710	-0.230	283.030	-2.100	0.100																			1580073264.0	12.44	23.04
26/01/2020 21:14:25	26012020	260120	211425	283.080	12.219465	-56.276235	283.120	0.250	-0.660	-0.320	283.090	-2.000	0.000																			1580073265.0	12.29	22.76
26/01/2020 21:14:26	26012020	260120	211426	283.140	12.219477	-56.276292	283.180	0.150	-0.340	-0.210	283.150	-1.700	0.200																			1580073266.0	12.00	22.22
26/01/2020 21:14:27	26012020	260120	211427	283.170	12.219488	-56.276345	283.210	-0.000	0.010	0.060	283.180	-1.400	0.500																			1580073267.0	11.76	21.78
26/01/2020 21:14:28	26012020	260120	211428	283.210	12.219502	-56.276400	283.250	-0.110	0.130	0.280	283.220	-1.300	0.700																			1580073268.0	11.74	21.74
26/01/2020 21:14:29	26012020	260120	211429	283.280	12.219513	-56.276455	283.320	-0.100	-0.040	0.330	283.300	-1.500	0.700																			1580073269.0	11.94	22.11
26/01/2020 21:14:30	26012020	260120	211430	283.350	12.219527	-56.276512	283.390	-0.020	-0.330	0.230	283.360	-1.800	0.600																			1580073270.0	12.19	22.58
26/01/2020 21:14:31	26012020	260120	211431	283.380	12.219537	-56.276568	283.410	0.050	-0.530	0.040	283.390	-2.000	0.400																			1580073271.0	12.28	22.74
26/01/2020 21:14:32	26012020	260120	211432	283.420	12.219548	-56.276625	283.440	0.030	-0.590	-0.110	283.430	-2.000	0.200																			1580073272.0	12.18	22.56
26/01/2020 21:14:33	26012020	260120	211433	283.450	12.219560	-56.276680	283.460	-0.060	-0.550	-0.110	283.450	-2.000	0.300																			1580073273.0	12.04	22.30
26/01/2020 21:14:34	26012020	260120	211434	283.430	12.219570	-56.276735	283.450	-0.150	-0.440	0.040	283.420	-1.800	0.400																			1580073274.0	11.98	22.19
26/01/2020 21:14:35	26012020	260120	211435	283.360	12.219583	-56.276790	283.370	-0.220	-0.260	0.240	283.340	-1.700	0.600																			1580073275.0	11.96	22.15
26/01/2020 21:14:36	26012020	260120	211436	283.280	12.219595	-56.276845	283.300	-0.230	-0.150	0.350	283.270	-1.600	0.700																			1580073276.0	11.91	22.06
26/01/2020 21:14:37	26012020	260120	211437	283.260	12.219607	-56.276902	283.290	-0.140	-0.220	0.300	283.260	-1.700	0.600																			1580073277.0	12.01	22.24
26/01/2020 21:14:38	26012020	260120	211438	283.300	12.219618	-56.276958	283.330	0.020	-0.440	0.150	283.310	-1.900	0.500																			1580073278.0	12.27	22.72
26/01/2020 21:14:39	26012020	260120	211439	283.360	12.219630	-56.277015	283.390	0.180	-0.570	0.020	283.370	-2.000	0.400																			1580073279.0	12.48	23.11
26/01/2020 21:14:40	26012020	260120	211440	283.380	12.219642	-56.277073	283.400	0.260	-0.410	-0.010	283.380	-1.800	0.400																			1580073280.0	12.46	23.08
26/01/2020 21:14:41	26012020	260120	211441	283.320	12.219655	-56.277130	283.330	0.200	0.020	0.040	283.300	-1.300	0.400																			1580073281.0	12.17	22.54
26/01/2020 21:14:42	26012020	260120	211442	283.230	12.219667	-56.277183	283.250	0.070	0.370	0.090	283.210	-1.000	0.400																			1580073282.0	11.88	22.00
26/01/2020 21:14:43	26012020	260120	211443	283.140	12.219680	-56.277238	283.160	-0.060	0.410	0.110	283.130	-1.000	0.500																			1580073283.0	11.89	22.02
26/01/2020 21:14:44	26012020	260120	211444	283.040	12.219692	-56.277295	283.060	-0.160	0.200	0.120	283.020	-1.200	0.500																			1580073284.0	12.06	22.34
26/01/2020 21:14:45	26012020	260120	211445	282.950	12.219703	-56.277350	282.980	-0.230	-0.110	0.050	282.940	-1.600	0.400																			1580073285.0	12.14	22.48
26/01/2020 21:14:46	26012020	260120	211446	282.910	12.219713	-56.277407	282.950	-0.220	-0.460	-0.070	282.910	-1.900	0.300																			1580073286.0	12.09	22.39
26/01/2020 21:14:47	26012020	260120	211447	282.940	12.219723	-56.277463	282.990	-0.110	-0.780	-0.180	282.950	-2.200	0.200																			1580073287.0	12.04	22.30
26/01/2020 21:14:48	26012020	260120	211448	283.100	12.219735	-56.277518	283.170	0.090	-1.000	-0.210	283.140	-2.400	0.200																			1580073288.0	12.04	22.30
26/01/2020 21:14:49	26012020	260120	211449	283.340	12.219747	-56.277575	283.420	0.260	-1.050	-0.140	283.390	-2.500	0.200																			1580073289.0	12.08	22.37
26/01/2020 21:14:50	26012020	260120	211450	283.520	12.219758	-56.277630	283.560	0.290	-0.890	0.050	283.530	-2.300	0.400																			1580073290.0	12.08	22.37
26/01/2020 21:14:51	26012020	260120	211451	283.540	12.219772	-56.277687	283.560	0.200	-0.580	0.350	283.530	-1.900	0.700																			1580073291.0	12.08	22.37
26/01/2020 21:14:52	26012020	260120	211452	283.450	12.219785	-56.277742	283.450	0.070	-0.200	0.650	283.420	-1.600	1.000																			1580073292.0	12.13	22.46
26/01/2020 21:14:53	26012020	260120	211453	283.270	12.219800	-56.277797	283.270	-0.030	0.150	0.870	283.230	-1.200	1.200																			1580073293.0	12.16	22.52
26/01/2020 21:14:54	26012020	260120	211454	283.040	12.219812	-56.277853	283.020	-0.110	0.380	0.940	282.980	-1.000	1.300																			1580073294.0	12.20	22.59
26/01/2020 21:14:55	26012020	260120	211455	282.800	12.219825	-56.277910	282.800	-0.190	0.430	0.770	282.750	-1.000	1.100																			1580073295.0	12.23	22.65
26/01/2020 21:14:56	26012020	260120	211456	282.630	12.219837	-56.277967	282.660	-0.300	0.280	0.370	282.610	-1.200	0.700																			1580073296.0	12.26	22.71
26/01/2020 21:14:57	26012020	260120	211457	282.560	12.219847	-56.278023	282.600	-0.340	-0.030	-0.020	282.560	-1.500	0.300																			1580073297.0	12.28	22.74
26/01/2020 21:14:58	26012020	260120	211458	282.590	12.219855	-56.278082	282.660	-0.230	-0.390	-0.230	282.610	-1.900	0.100																			1580073298.0	12.33	22.84
26/01/2020 21:14:59	26012020	260120	211459	282.700	12.219865	-56.278138	282.780	0.040	-0.620	-0.120	282.720	-2.100	0.300	1014.40	26.20	26.20	21.20	21.20	53.00	74.00	74.00	410.00	26.20	29.00	6.10	29.00	3.00	3417	3431.00	27.60	27.70	1580073299.0	12.31	22.80
26/01/2020 21:15:00	26012020	260120	211500	282.820	12.219877	-56.278195	282.920	0.320	-0.640	0.210	282.850	-2.100	0.600																			1580073300.0	12.15	22.50
26/01/2020 21:15:01	26012020	260120	211501	282.940	12.219890	-56.278250	283.030	0.440	-0.500	0.460	282.960	-1.900	0.800																			1580073301.0	11.95	22.13
26/01/2020 21:15:02	26012020	260120	211502	283.020	12.219903	-56.278303	283.080	0.360	-0.330	0.520	283.030	-1.700	0.900																			1580073302.0	11.82	21.89
26/01/2020 21:15:03	26012020	260120	211503	283.070	12.219915	-56.278358	283.130	0.140	-0.250	0.350	283.090	-1.700	0.700																			1580073303.0	11.80	21.85
26/01/2020 21:15:04	26012020	260120	211504	283.150	12.219927	-56.278413	283.220	-0.070	-0.340	0.070	283.170	-1.800	0.400																			1580073304.0	11.93	22.09
26/01/2020 21:15:05	26012020	260120	211505	283.250	12.219937	-56.278470	283.310	-0.180	-0.530	-0.180	283.260	-2.000	0.200																			1580073305.0	12.15	22.50
26/01/2020 21:15:06	26012020	260120	211506	283.310	12.219947	-56.278528	283.370	-0.180	-0.640	-0.270	283.310	-2.000	0.100																			1580073306.0	12.35	22.87
26/01/2020 21:15:07	26012020	260120	211507	283.300	12.219958	-56.278585	283.350	-0.150	-0.510	-0.160	283.280	-1.900	0.200																			1580073307.0	12.34	22.85
26/01/2020 21:15:08	26012020	260120	211508	283.210	12.219970	-56.278642	283.250	-0.130	-0.200	0.110	283.170	-1.600	0.500																			1580073308.0	12.20	22.59
26/01/2020 21:15:09	26012020	260120	211509	283.040	12.219982	-56.278697	283.060	-0.110	0.100	0.370	282.990	-1.300	0.800																			1580073309.0	12.05	22.32
26/01/2020 21:15:10	26012020	260120	211510	282.820	12.219993	-56.278753	282.860	-0.030	0.220	0.580	282.770	-1.200	1.000																			1580073310.0	12.07	22.35
26/01/2020 21:15:11	26012020	260120	211511	282.590	12.220007	-56.278808	282.620	0.130	0.140	0.680	282.550	-1.300	1.100																			1580073311.0	12.18	22.56
26/01/2020 21:15:12	26012020	260120	211512	282.370	12.220018	-56.278865	282.410	0.270	-0.040	0.660	282.320	-1.500	1.000																			1580073312.0	12.30	22.78
26/01/2020 21:15:13	26012020	260120	211513	282.150	12.220032	-56.278922	282.190	0.260	-0.170	0.500	282.110	-1.600	0.800																			1580073313.0	12.26	22.71
26/01/2020 21:15:14	26012020	260120	211514	282.030	12.220043	-56.278978	282.090	0.070	-0.310	0.180	282.030	-1.800	0.500																			1580073314.0	12.05	22.32
26/01/2020 21:15:15	26012020	260120	211515	282.140	12.220053	-56.279033	282.240	-0.170	-0.590	-0.230	282.190	-2.000	0.100																			1580073315.0	11.96	22.15
26/01/2020 21:15:16	26012020	260120	211516	282.480	12.220063	-56.279090	282.600	-0.270	-0.980	-0.580	282.560	-2.400	-0.200																			1580073316.0	12.13	22.46
26/01/2020 21:15:17	26012020	260120	211517	282.940	12.220073	-56.279148	283.090	-0.160	-1.200	-0.680	283.040	-2.600	-0.300																			1580073317.0	12.39	22.95
26/01/2020 21:15:18	26012020	260120	211518	283.390	12.220083	-56.279205	283.520	0.030	-0.970	-0.470	283.470	-2.300	-0.100																			1580073318.0	12.45	23.06
26/01/2020 21:15:19	26012020	260120	211519	283.670	12.220095	-56.279262	283.760	0.100	-0.280	-0.090	283.700	-1.600	0.300																			1580073319.0	12.15	22.50
26/01/2020 21:15:20	26012020	260120	211520	283.730	12.220108	-56.279317	283.780	0.010	0.480	0.310	283.720	-0.900	0.700																			1580073320.0	11.79	21.84
26/01/2020 21:15:21	26012020	260120	211521	283.580	12.220120	-56.279370	283.590	-0.130	0.880	0.570	283.530	-0.500	0.900																			1580073321.0	11.68	21.63
26/01/2020 21:15:22	26012020	260120	211522	283.250	12.220132	-56.279425	283.220	-0.200	0.750	0.580	283.160	-0.700	0.900																			1580073322.0	11.94	22.11
26/01/2020 21:15:23	26012020	260120	211523	282.780	12.220143	-56.279482	282.730	-0.140	0.240	0.430	282.680	-1.300	0.800																			1580073323.0	12.26	22.71
26/01/2020 21:15:24	26012020	260120	211524	282.310	12.220155	-56.279540	282.300	0.040	-0.380	0.240	282.240	-1.900	0.600																			1580073324.0	12.44	23.04
26/01/2020 21:15:25	26012020	260120	211525	282.050	12.220165	-56.279597	282.100	0.240	-0.890	0.030	282.040	-2.300	0.400																			1580073325.0	12.39	22.95
26/01/2020 21:15:26	26012020	260120	211526	282.050	12.220177	-56.279653	282.100	0.390	-1.140	-0.150	282.060	-2.600	0.200																			1580073326.0	12.25	22.69
26/01/2020 21:15:27	26012020	260120	211527	282.190	12.220187	-56.279710	282.250	0.420	-1.060	-0.180	282.220	-2.400	0.200																			1580073327.0	12.07	22.35
26/01/2020 21:15:28	26012020	260120	211528	282.420	12.220200	-56.279765	282.520	0.320	-0.720	-0.040	282.470	-2.100	0.400																			1580073328.0	11.89	22.02
26/01/2020 21:15:29	26012020	260120	211529	282.720	12.220212	-56.279818	282.830	0.110	-0.350	0.200	282.780	-1.700	0.600																			1580073329.0	11.79	21.84
26/01/2020 21:15:30	26012020	260120	211530	283.060	12.220225	-56.279873	283.170	-0.160	-0.180	0.310	283.120	-1.600	0.700																			1580073330.0	11.89	22.02
26/01/2020 21:15:31	26012020	260120	211531	283.330	12.220238	-56.279930	283.420	-0.380	-0.180	0.240	283.370	-1.600	0.600																			1580073331.0	12.18	22.56
26/01/2020 21:15:32	26012020	260120	211532	283.480	12.220248	-56.279987	283.540	-0.490	-0.190	0.080	283.490	-1.600	0.400																			1580073332.0	12.42	23.00
26/01/2020 21:15:33	26012020	260120	211533	283.490	12.220258	-56.280045	283.530	-0.480	-0.080	-0.000	283.480	-1.500	0.400																			1580073333.0	12.41	22.98
26/01/2020 21:15:34	26012020	260120	211534	283.390	12.220268	-56.280102	283.410	-0.380	0.080	0.020	283.360	-1.300	0.400																			1580073334.0	12.28	22.74
26/01/2020 21:15:35	26012020	260120	211535	283.210	12.220278	-56.280158	283.220	-0.240	0.190	0.070	283.170	-1.200	0.400																			1580073335.0	12.12	22.45
26/01/2020 21:15:36	26012020	260120	211536	283.010	12.220290	-56.280215	283.030	-0.060	0.160	0.160	282.980	-1.300	0.500																			1580073336.0	12.09	22.39
26/01/2020 21:15:37	26012020	260120	211537	282.860	12.220302	-56.280270	282.890	0.160	-0.010	0.270	282.830	-1.500	0.600																			1580073337.0	12.11	22.43
26/01/2020 21:15:38	26012020	260120	211538	282.750	12.220313	-56.280327	282.780	0.430	-0.260	0.430	282.720	-1.700	0.800																			1580073338.0	12.15	22.50
26/01/2020 21:15:39	26012020	260120	211539	282.650	12.220327	-56.280383	282.690	0.660	-0.450	0.570	282.640	-1.900	0.900																			1580073339.0	12.18	22.56
26/01/2020 21:15:40	26012020	260120	211540	282.570	12.220340	-56.280438	282.600	0.700	-0.480	0.640	282.550	-1.900	1.000																			1580073340.0	12.07	22.35
26/01/2020 21:15:41	26012020	260120	211541	282.480	12.220353	-56.280493	282.530	0.440	-0.450	0.550	282.470	-1.900	0.900																			1580073341.0	11.88	22.00
26/01/2020 21:15:42	26012020	260120	211542	282.480	12.220365	-56.280547	282.550	0.030	-0.510	0.280	282.490	-1.900	0.600																			1580073342.0	11.81	21.87
26/01/2020 21:15:43	26012020	260120	211543	282.590	12.220377	-56.280603	282.680	-0.300	-0.690	-0.090	282.620	-2.100	0.200																			1580073343.0	11.95	22.13
26/01/2020 21:15:44	26012020	260120	211544	282.780	12.220385	-56.280660	282.880	-0.400	-0.900	-0.370	282.820	-2.300	-0.000																			1580073344.0	12.23	22.65
26/01/2020 21:15:45	26012020	260120	211545	282.970	12.220395	-56.280718	283.040	-0.350	-0.910	-0.410	282.990	-2.300	-0.000																			1580073345.0	12.46	23.08
26/01/2020 21:15:46	26012020	260120	211546	283.060	12.220405	-56.280775	283.130	-0.340	-0.530	-0.190	283.070	-1.900	0.200																			1580073346.0	12.43	23.02
26/01/2020 21:15:47	26012020	260120	211547	283.090	12.220417	-56.280832	283.160	-0.420	0.060	0.110	283.090	-1.300	0.500																			1580073347.0	12.11	22.43
26/01/2020 21:15:48	26012020	260120	211548	283.090	12.220427	-56.280887	283.170	-0.430	0.470	0.380	283.090	-0.900	0.800																			1580073348.0	11.90	22.04
26/01/2020 21:15:49	26012020	260120	211549	283.060	12.220438	-56.280943	283.120	-0.220	0.500	0.550	283.050	-0.900	0.900																			1580073349.0	12.03	22.28
26/01/2020 21:15:50	26012020	260120	211550	282.980	12.220450	-56.281000	283.020	0.160	0.230	0.600	282.950	-1.200	1.000																			1580073350.0	12.34	22.85
26/01/2020 21:15:51	26012020	260120	211551	282.800	12.220463	-56.281057	282.820	0.480	-0.060	0.660	282.750	-1.500	1.000																			1580073351.0	12.50	23.15
26/01/2020 21:15:52	26012020	260120	211552	282.560	12.220477	-56.281113	282.590	0.580	-0.210	0.660	282.530	-1.600	1.000																			1580073352.0	12.35	22.87
26/01/2020 21:15:53	26012020	260120	211553	282.400	12.220490	-56.281170	282.440	0.470	-0.320	0.410	282.380	-1.800	0.700																			1580073353.0	12.07	22.35
26/01/2020 21:15:54	26012020	260120	211554	282.370	12.220502	-56.281225	282.420	0.290	-0.520	-0.070	282.380	-2.000	0.200																			1580073354.0	11.94	22.11
26/01/2020 21:15:55	26012020	260120	211555	282.440	12.220512	-56.281280	282.520	0.110	-0.720	-0.560	282.470	-2.100	-0.200																			1580073355.0	12.08	22.37
26/01/2020 21:15:56	26012020	260120	211556	282.560	12.220522	-56.281337	282.650	-0.080	-0.710	-0.810	282.590	-2.100	-0.400																			1580073356.0	12.13	22.46
26/01/2020 21:15:57	26012020	260120	211557	282.680	12.220530	-56.281393	282.760	-0.290	-0.490	-0.670	282.700	-1.900	-0.300																			1580073357.0	11.96	22.15
26/01/2020 21:15:58	26012020	260120	211558	282.770	12.220542	-56.281448	282.870	-0.450	-0.280	-0.340	282.790	-1.700	0.100																			1580073358.0	11.78	21.82
26/01/2020 21:15:59	26012020	260120	211559	282.860	12.220552	-56.281503	282.960	-0.450	-0.320	0.000	282.880	-1.800	0.400	1014.40	26.20	26.20	21.10	21.20	53.00	73.00	74.00	411.00	26.20	33.00	5.90	35.00	3.40	3285	3613.00	27.70	27.60	1580073359.0	11.85	21.95
26/01/2020 21:16:00	26012020	260120	211600	282.980	12.220563	-56.281560	283.080	-0.210	-0.550	0.230	283.000	-2.000	0.600																			1580073360.0	12.19	22.58
26/01/2020 21:16:01	26012020	260120	211601	283.140	12.220575	-56.281617	283.260	0.130	-0.680	0.320	283.170	-2.100	0.700																			1580073361.0	12.50	23.15
26/01/2020 21:16:02	26012020	260120	211602	283.300	12.220588	-56.281675	283.400	0.320	-0.470	0.370	283.330	-1.800	0.700																			1580073362.0	12.50	23.15
26/01/2020 21:16:03	26012020	260120	211603	283.380	12.220600	-56.281732	283.450	0.240	0.020	0.440	283.380	-1.300	0.800																			1580073363.0	12.18	22.56
26/01/2020 21:16:04	26012020	260120	211604	283.330	12.220613	-56.281785	283.360	-0.020	0.460	0.440	283.310	-0.900	0.800																			1580073364.0	11.91	22.06
26/01/2020 21:16:05	26012020	260120	211605	283.170	12.220625	-56.281840	283.180	-0.240	0.570	0.300	283.130	-0.900	0.600																			1580073365.0	11.87	21.98
26/01/2020 21:16:06	26012020	260120	211606	282.950	12.220637	-56.281897	282.980	-0.270	0.250	0.070	282.910	-1.200	0.400																			1580073366.0	12.10	22.41
26/01/2020 21:16:07	26012020	260120	211607	282.770	12.220647	-56.281955	282.810	-0.100	-0.310	-0.130	282.750	-1.800	0.200																			1580073367.0	12.42	23.00
26/01/2020 21:16:08	26012020	260120	211608	282.660	12.220657	-56.282013	282.710	0.120	-0.680	-0.170	282.650	-2.100	0.200																			1580073368.0	12.55	23.24
26/01/2020 21:16:09	26012020	260120	211609	282.600	12.220668	-56.282070	282.660	0.280	-0.670	-0.000	282.600	-2.100	0.400																			1580073369.0	12.25	22.69
26/01/2020 21:16:10	26012020	260120	211610	282.610	12.220680	-56.282125	282.680	0.330	-0.500	0.270	282.620	-1.900	0.700																			1580073370.0	11.83	21.91
26/01/2020 21:16:11	26012020	260120	211611	282.710	12.220693	-56.282178	282.810	0.310	-0.440	0.390	282.750	-1.900	0.800																			1580073371.0	11.68	21.63
26/01/2020 21:16:12	26012020	260120	211612	282.910	12.220707	-56.282232	283.020	0.240	-0.550	0.260	282.960	-2.000	0.600																			1580073372.0	11.87	21.98
26/01/2020 21:16:13	26012020	260120	211613	283.220	12.220718	-56.282288	283.340	0.070	-0.680	-0.070	283.300	-2.100	0.300																			1580073373.0	12.13	22.46
26/01/2020 21:16:14	26012020	260120	211614	283.610	12.220728	-56.282345	283.710	-0.160	-0.640	-0.350	283.670	-2.000	-0.000																			1580073374.0	12.24	22.67
26/01/2020 21:16:15	26012020	260120	211615	283.910	12.220740	-56.282402	283.970	-0.410	-0.380	-0.420	283.940	-1.800	-0.100																			1580073375.0	12.19	22.58
26/01/2020 21:16:16	26012020	260120	211616	283.990	12.220750	-56.282458	284.020	-0.560	-0.030	-0.270	283.980	-1.400	0.100																			1580073376.0	12.10	22.41
26/01/2020 21:16:17	26012020	260120	211617	283.870	12.220760	-56.282513	283.880	-0.540	0.230	-0.000	283.830	-1.200	0.400																			1580073377.0	12.04	22.30
26/01/2020 21:16:18	26012020	260120	211618	283.650	12.220772	-56.282570	283.640	-0.300	0.260	0.240	283.600	-1.200	0.600																			1580073378.0	12.13	22.46
26/01/2020 21:16:19	26012020	260120	211619	283.390	12.220783	-56.282627	283.380	0.070	0.110	0.440	283.330	-1.300	0.800																			1580073379.0	12.30	22.78
26/01/2020 21:16:20	26012020	260120	211620	283.110	12.220797	-56.282685	283.090	0.380	-0.100	0.530	283.050	-1.500	0.900																			1580073380.0	12.38	22.93
26/01/2020 21:16:21	26012020	260120	211621	282.850	12.220810	-56.282740	282.850	0.510	-0.290	0.450	282.800	-1.700	0.800																			1580073381.0	12.27	22.72
26/01/2020 21:16:22	26012020	260120	211622	282.670	12.220822	-56.282797	282.690	0.460	-0.460	0.240	282.650	-1.900	0.600																			1580073382.0	12.14	22.48
26/01/2020 21:16:23	26012020	260120	211623	282.610	12.220833	-56.282852	282.660	0.300	-0.500	0.030	282.610	-1.900	0.400																			1580073383.0	12.03	22.28
26/01/2020 21:16:24	26012020	260120	211624	282.680	12.220845	-56.282907	282.750	0.090	-0.410	-0.150	282.710	-1.800	0.200																			1580073384.0	11.90	22.04
26/01/2020 21:16:25	26012020	260120	211625	282.850	12.220857	-56.282962	282.940	-0.130	-0.330	-0.280	282.890	-1.700	0.100																			1580073385.0	11.79	21.84
26/01/2020 21:16:26	26012020	260120	211626	283.060	12.220868	-56.283017	283.150	-0.280	-0.360	-0.340	283.100	-1.800	0.000																			1580073386.0	11.84	21.93
26/01/2020 21:16:27	26012020	260120	211627	283.270	12.220880	-56.283072	283.370	-0.320	-0.520	-0.350	283.320	-1.900	0.000																			1580073387.0	12.04	22.30
26/01/2020 21:16:28	26012020	260120	211628	283.520	12.220890	-56.283130	283.620	-0.250	-0.660	-0.270	283.580	-2.100	0.100																			1580073388.0	12.24	22.67
26/01/2020 21:16:29	26012020	260120	211629	283.770	12.220902	-56.283187	283.860	-0.120	-0.640	-0.060	283.810	-2.000	0.300																			1580073389.0	12.32	22.82
26/01/2020 21:16:30	26012020	260120	211630	283.920	12.220913	-56.283243	283.970	0.010	-0.410	0.270	283.930	-1.800	0.700																			1580073390.0	12.24	22.67
26/01/2020 21:16:31	26012020	260120	211631	283.890	12.220927	-56.283298	283.910	0.070	-0.080	0.530	283.870	-1.400	0.900																			1580073391.0	12.11	22.43
26/01/2020 21:16:32	26012020	260120	211632	283.700	12.220938	-56.283353	283.680	0.080	0.200	0.670	283.630	-1.200	1.000																			1580073392.0	12.03	22.28
26/01/2020 21:16:33	26012020	260120	211633	283.350	12.220952	-56.283410	283.320	0.090	0.320	0.660	283.270	-1.100	1.000																			1580073393.0	12.06	22.34
26/01/2020 21:16:34	26012020	260120	211634	282.970	12.220963	-56.283465	282.950	0.100	0.240	0.480	282.900	-1.200	0.800																			1580073394.0	12.12	22.45
26/01/2020 21:16:35	26012020	260120	211635	282.690	12.220975	-56.283522	282.710	0.100	0.030	0.220	282.660	-1.400	0.500																			1580073395.0	12.15	22.50
26/01/2020 21:16:36	26012020	260120	211636	282.610	12.220987	-56.283578	282.660	0.050	-0.290	-0.070	282.620	-1.700	0.200																			1580073396.0	12.11	22.43
26/01/2020 21:16:37	26012020	260120	211637	282.730	12.220998	-56.283633	282.820	-0.010	-0.640	-0.340	282.770	-2.100	0.000																			1580073397.0	12.12	22.45
26/01/2020 21:16:38	26012020	260120	211638	282.960	12.221008	-56.283690	283.060	-0.060	-0.870	-0.440	283.020	-2.300	-0.100																			1580073398.0	12.17	22.54
26/01/2020 21:16:39	26012020	260120	211639	283.210	12.221020	-56.283747	283.300	-0.100	-0.890	-0.320	283.250	-2.300	0.100																			1580073399.0	12.11	22.43
26/01/2020 21:16:40	26012020	260120	211640	283.430	12.221032	-56.283802	283.520	-0.080	-0.710	-0.020	283.460	-2.100	0.400																			1580073400.0	12.01	22.24
26/01/2020 21:16:41	26012020	260120	211641	283.590	12.221043	-56.283857	283.680	0.030	-0.470	0.310	283.610	-1.900	0.700																			1580073401.0	11.97	22.17
26/01/2020 21:16:42	26012020	260120	211642	283.680	12.221057	-56.283913	283.740	0.160	-0.290	0.510	283.690	-1.700	0.900																			1580073402.0	12.03	22.28
26/01/2020 21:16:43	26012020	260120	211643	283.640	12.221070	-56.283968	283.680	0.200	-0.160	0.510	283.620	-1.500	0.900																			1580073403.0	12.21	22.61
26/01/2020 21:16:44	26012020	260120	211644	283.500	12.221083	-56.284025	283.510	0.070	0.010	0.360	283.470	-1.400	0.700																			1580073404.0	12.28	22.74
26/01/2020 21:16:45	26012020	260120	211645	283.330	12.221095	-56.284082	283.340	-0.220	0.230	0.120	283.300	-1.200	0.500																			1580073405.0	12.17	22.54
26/01/2020 21:16:46	26012020	260120	211646	283.160	12.221105	-56.284137	283.160	-0.510	0.340	-0.100	283.130	-1.100	0.200																			1580073406.0	11.97	22.17
26/01/2020 21:16:47	26012020	260120	211647	283.010	12.221115	-56.284193	283.040	-0.540	0.150	-0.240	282.990	-1.300	0.100																			1580073407.0	11.96	22.15
26/01/2020 21:16:48	26012020	260120	211648	282.930	12.221125	-56.284250	282.990	-0.200	-0.300	-0.200	282.930	-1.800	0.200																			1580073408.0	12.17	22.54
26/01/2020 21:16:49	26012020	260120	211649	282.890	12.221135	-56.284307	282.940	0.360	-0.730	0.100	282.870	-2.200	0.500																			1580073409.0	12.44	23.04
26/01/2020 21:16:50	26012020	260120	211650	282.800	12.221150	-56.284365	282.850	0.770	-0.790	0.560	282.770	-2.200	1.000																			1580073410.0	12.45	23.06
26/01/2020 21:16:51	26012020	260120	211651	282.640	12.221165	-56.284420	282.680	0.760	-0.410	0.970	282.600	-1.800	1.400																			1580073411.0	12.11	22.43
26/01/2020 21:16:52	26012020	260120	211652	282.440	12.221180	-56.284472	282.490	0.370	0.030	1.040	282.410	-1.400	1.400																			1580073412.0	11.65	21.58
26/01/2020 21:16:53	26012020	260120	211653	282.330	12.221192	-56.284525	282.390	-0.130	0.120	0.630	282.330	-1.300	0.900																			1580073413.0	11.53	21.35
26/01/2020 21:16:54	26012020	260120	211654	282.410	12.221202	-56.284580	282.500	-0.440	-0.280	-0.040	282.450	-1.800	0.200																			1580073414.0	11.86	21.96
26/01/2020 21:16:55	26012020	260120	211655	282.690	12.221210	-56.284638	282.800	-0.440	-0.870	-0.570	282.760	-2.300	-0.200																			1580073415.0	12.39	22.95
26/01/2020 21:16:56	26012020	260120	211656	283.080	12.221218	-56.284698	283.200	-0.210	-1.210	-0.640	283.160	-2.600	-0.300																			1580073416.0	12.66	23.45
26/01/2020 21:16:57	26012020	260120	211657	283.440	12.221230	-56.284757	283.540	0.020	-1.030	-0.350	283.490	-2.400	0.100																			1580073417.0	12.52	23.19
26/01/2020 21:16:58	26012020	260120	211658	283.590	12.221242	-56.284812	283.650	0.050	-0.420	0.120	283.580	-1.800	0.500																			1580073418.0	12.14	22.48
26/01/2020 21:16:59	26012020	260120	211659	283.450	12.221255	-56.284867	283.460	-0.090	0.250	0.590	283.400	-1.100	1.000	1014.40	26.20	26.20	21.10	21.10	54.00	73.00	73.00	413.00	26.20	29.00	5.60	40.00	3.00	3163	3534.00	27.60	27.60	1580073419.0	11.81	21.87
26/01/2020 21:17:00	26012020	260120	211700	283.110	12.221268	-56.284920	283.090	-0.260	0.640	0.810	283.030	-0.800	1.200																			1580073420.0	11.75	21.76
26/01/2020 21:17:01	26012020	260120	211701	282.710	12.221280	-56.284975	282.690	-0.280	0.540	0.710	282.630	-0.900	1.000																			1580073421.0	11.98	22.19
26/01/2020 21:17:02	26012020	260120	211702	282.380	12.221290	-56.285033	282.400	-0.110	0.090	0.380	282.340	-1.400	0.700																			1580073422.0	12.33	22.84
26/01/2020 21:17:03	26012020	260120	211703	282.210	12.221302	-56.285092	282.240	0.100	-0.350	0.020	282.190	-1.800	0.300																			1580073423.0	12.56	23.26
26/01/2020 21:17:04	26012020	260120	211704	282.150	12.221312	-56.285148	282.190	0.230	-0.440	-0.160	282.150	-1.800	0.200																			1580073424.0	12.42	23.00
26/01/2020 21:17:05	26012020	260120	211705	282.150	12.221322	-56.285205	282.200	0.200	-0.210	-0.100	282.160	-1.600	0.300																			1580073425.0	11.97	22.17
26/01/2020 21:17:06	26012020	260120	211706	282.200	12.221333	-56.285258	282.270	0.130	-0.040	0.080	282.210	-1.400	0.500																			1580073426.0	11.58	21.45
26/01/2020 21:17:07	26012020	260120	211707	282.320	12.221347	-56.285312	282.420	0.120	-0.220	0.200	282.360	-1.700	0.600																			1580073427.0	11.63	21.54
26/01/2020 21:17:08	26012020	260120	211708	282.550	12.221358	-56.285367	282.680	0.230	-0.710	0.170	282.610	-2.200	0.500																			1580073428.0	12.04	22.30
26/01/2020 21:17:09	26012020	260120	211709	282.870	12.221370	-56.285425	282.990	0.360	-1.120	0.060	282.930	-2.500	0.400																			1580073429.0	12.40	22.96
26/01/2020 21:17:10	26012020	260120	211710	283.130	12.221382	-56.285482	283.220	0.340	-1.080	-0.010	283.170	-2.500	0.300																			1580073430.0	12.41	22.98
26/01/2020 21:17:11	26012020	260120	211711	283.250	12.221393	-56.285538	283.320	0.100	-0.630	-0.060	283.260	-2.000	0.300																			1580073431.0	12.07	22.35
26/01/2020 21:17:12	26012020	260120	211712	283.230	12.221403	-56.285592	283.280	-0.260	-0.130	-0.130	283.220	-1.500	0.200																			1580073432.0	11.77	21.80
26/01/2020 21:17:13	26012020	260120	211713	283.130	12.221415	-56.285647	283.160	-0.570	0.110	-0.210	283.090	-1.300	0.100																			1580073433.0	11.81	21.87
26/01/2020 21:17:14	26012020	260120	211714	282.940	12.221425	-56.285703	282.970	-0.670	0.080	-0.260	282.910	-1.400	0.100																			1580073434.0	12.11	22.43
26/01/2020 21:17:15	26012020	260120	211715	282.770	12.221435	-56.285762	282.810	-0.530	-0.130	-0.270	282.750	-1.600	0.100																			1580073435.0	12.38	22.93
26/01/2020 21:17:16	26012020	260120	211716	282.670	12.221445	-56.285820	282.730	-0.210	-0.330	-0.220	282.660	-1.800	0.200																			1580073436.0	12.53	23.21
26/01/2020 21:17:17	26012020	260120	211717	282.630	12.221457	-56.285878	282.690	0.130	-0.350	-0.010	282.610	-1.700	0.400																			1580073437.0	12.53	23.21
26/01/2020 21:17:18	26012020	260120	211718	282.540	12.221470	-56.285935	282.600	0.330	-0.090	0.350	282.520	-1.500	0.800																			1580073438.0	12.32	22.82
26/01/2020 21:17:19	26012020	260120	211719	282.360	12.221483	-56.285990	282.410	0.290	0.340	0.720	282.310	-1.000	1.100																			1580073439.0	11.98	22.19
26/01/2020 21:17:20	26012020	260120	211720	282.130	12.221497	-56.286043	282.190	0.110	0.620	0.860	282.080	-0.800	1.200																			1580073440.0	11.67	21.61
26/01/2020 21:17:21	26012020	260120	211721	281.980	12.221508	-56.286097	282.060	0.010	0.400	0.650	281.970	-1.100	1.000																			1580073441.0	11.61	21.50
26/01/2020 21:17:22	26012020	260120	211722	282.050	12.221518	-56.286152	282.170	0.150	-0.360	0.190	282.100	-1.900	0.500																			1580073442.0	11.95	22.13
26/01/2020 21:17:23	26012020	260120	211723	282.370	12.221528	-56.286210	282.510	0.450	-1.220	-0.250	282.450	-2.700	0.100																			1580073443.0	12.47	23.09
26/01/2020 21:17:24	26012020	260120	211724	282.780	12.221540	-56.286268	282.910	0.590	-1.540	-0.390	282.850	-2.900	-0.000																			1580073444.0	12.59	23.32
26/01/2020 21:17:25	26012020	260120	211725	283.090	12.221552	-56.286325	283.190	0.340	-1.100	-0.260	283.130	-2.400	0.100																			1580073445.0	12.13	22.46
26/01/2020 21:17:26	26012020	260120	211726	283.190	12.221563	-56.286377	283.250	-0.200	-0.330	-0.080	283.190	-1.700	0.300																			1580073446.0	11.48	21.26
26/01/2020 21:17:27	26012020	260120	211727	283.170	12.221573	-56.286430	283.230	-0.620	0.060	-0.030	283.160	-1.400	0.300																			1580073447.0	11.30	20.93
26/01/2020 21:17:28	26012020	260120	211728	283.160	12.221583	-56.286485	283.230	-0.580	-0.170	-0.130	283.160	-1.600	0.200																			1580073448.0	11.87	21.98
26/01/2020 21:17:29	26012020	260120	211729	283.130	12.221592	-56.286545	283.190	-0.150	-0.610	-0.200	283.110	-2.000	0.200																			1580073449.0	12.70	23.52
26/01/2020 21:17:30	26012020	260120	211730	282.950	12.221603	-56.286605	282.970	0.260	-0.590	-0.040	282.890	-2.000	0.400																			1580073450.0	12.98	24.04
26/01/2020 21:17:31	26012020	260120	211731	282.580	12.221617	-56.286662	282.580	0.270	-0.010	0.240	282.490	-1.300	0.600																			1580073451.0	12.51	23.17
26/01/2020 21:17:32	26012020	260120	211732	282.150	12.221628	-56.286717	282.170	-0.110	0.670	0.360	282.070	-0.700	0.700																			1580073452.0	11.83	21.91
26/01/2020 21:17:33	26012020	260120	211733	281.820	12.221640	-56.286770	281.870	-0.490	0.880	0.200	281.780	-0.600	0.500																			1580073453.0	11.56	21.41
26/01/2020 21:17:34	26012020	260120	211734	281.740	12.221652	-56.286825	281.830	-0.510	0.420	-0.140	281.760	-1.100	0.200																			1580073454.0	11.84	21.93
26/01/2020 21:17:35	26012020	260120	211735	281.940	12.221660	-56.286883	282.080	-0.120	-0.460	-0.460	282.020	-2.000	-0.100																			1580073455.0	12.37	22.91
26/01/2020 21:17:36	26012020	260120	211736	282.380	12.221672	-56.286942	282.530	0.390	-1.140	-0.550	282.480	-2.600	-0.200																			1580073456.0	12.73	23.58
26/01/2020 21:17:37	26012020	260120	211737	282.820	12.221683	-56.287000	282.950	0.600	-1.090	-0.320	282.890	-2.400	0.100																			1580073457.0	12.50	23.15
26/01/2020 21:17:38	26012020	260120	211738	283.080	12.221695	-56.287053	283.180	0.400	-0.400	0.120	283.110	-1.700	0.500																			1580073458.0	11.73	21.72
26/01/2020 21:17:39	26012020	260120	211739	283.160	12.221707	-56.287105	283.230	0.040	0.230	0.490	283.160	-1.100	0.900																			1580073459.0	11.07	20.50
26/01/2020 21:17:40	26012020	260120	211740	283.140	12.221718	-56.287157	283.210	-0.140	0.240	0.550	283.130	-1.200	0.900																			1580073460.0	11.17	20.69
26/01/2020 21:17:41	26012020	260120	211741	283.100	12.221730	-56.287212	283.170	0.010	-0.360	0.340	283.100	-1.900	0.700																			1580073461.0	11.87	21.98
26/01/2020 21:17:42	26012020	260120	211742	283.100	12.221742	-56.287270	283.160	0.290	-1.060	0.060	283.100	-2.500	0.400																			1580073462.0	12.58	23.30
26/01/2020 21:17:43	26012020	260120	211743	283.110	12.221752	-56.287328	283.180	0.400	-1.220	-0.080	283.110	-2.600	0.300																			1580073463.0	12.75	23.61
26/01/2020 21:17:44	26012020	260120	211744	283.080	12.221763	-56.287385	283.130	0.180	-0.660	-0.060	283.060	-2.000	0.300																			1580073464.0	12.29	22.76
26/01/2020 21:17:45	26012020	260120	211745	282.990	12.221775	-56.287440	283.040	-0.250	0.110	0.010	282.970	-1.200	0.400																			1580073465.0	11.65	21.58
26/01/2020 21:17:46	26012020	260120	211746	282.890	12.221787	-56.287493	282.950	-0.590	0.470	0.060	282.880	-0.900	0.400																			1580073466.0	11.49	21.28
26/01/2020 21:17:47	26012020	260120	211747	282.860	12.221798	-56.287548	282.930	-0.610	0.240	0.130	282.860	-1.200	0.500																			1580073467.0	11.95	22.13
26/01/2020 21:17:48	26012020	260120	211748	282.890	12.221808	-56.287607	282.990	-0.350	-0.270	0.230	282.900	-1.700	0.600																			1580073468.0	12.54	23.22
26/01/2020 21:17:49	26012020	260120	211749	282.930	12.221820	-56.287665	283.010	-0.020	-0.540	0.420	282.930	-2.000	0.800																			1580073469.0	12.75	23.61
26/01/2020 21:17:50	26012020	260120	211750	282.890	12.221833	-56.287723	282.960	0.150	-0.330	0.660	282.870	-1.700	1.000																			1580073470.0	12.40	22.96
26/01/2020 21:17:51	26012020	260120	211751	282.800	12.221845	-56.287777	282.870	0.140	0.120	0.780	282.780	-1.200	1.100																			1580073471.0	11.81	21.87
26/01/2020 21:17:52	26012020	260120	211752	282.760	12.221855	-56.287830	282.830	0.060	0.370	0.680	282.760	-1.000	1.000																			1580073472.0	11.46	21.22
26/01/2020 21:17:53	26012020	260120	211753	282.810	12.221867	-56.287883	282.900	0.080	0.180	0.440	282.840	-1.300	0.800																			1580073473.0	11.56	21.41
26/01/2020 21:17:54	26012020	260120	211754	282.990	12.221877	-56.287938	283.090	0.260	-0.310	0.160	283.040	-1.800	0.500																			1580073474.0	11.91	22.06
26/01/2020 21:17:55	26012020	260120	211755	283.250	12.221888	-56.287995	283.360	0.490	-0.810	-0.050	283.300	-2.300	0.300																			1580073475.0	12.15	22.50
26/01/2020 21:17:56	26012020	260120	211756	283.520	12.221900	-56.288052	283.620	0.590	-1.120	-0.170	283.570	-2.500	0.200																			1580073476.0	12.19	22.58
26/01/2020 21:17:57	26012020	260120	211757	283.750	12.221913	-56.288108	283.840	0.480	-1.140	-0.250	283.780	-2.500	0.100																			1580073477.0	12.14	22.48
26/01/2020 21:17:58	26012020	260120	211758	283.880	12.221925	-56.288163	283.930	0.150	-0.800	-0.280	283.880	-2.100	0.100																			1580073478.0	12.05	22.32
26/01/2020 21:17:59	26012020	260120	211759	283.840	12.221937	-56.288218	283.870	-0.300	-0.210	-0.220	283.810	-1.500	0.200	1014.40	26.20	26.20	21.10	21.10	53.00	73.00	73.00	412.00	26.20	34.00	5.90	35.00	3.50	3057	3565.00	27.70	27.60	1580073479.0	11.88	22.00
26/01/2020 21:18:00	26012020	260120	211800	283.640	12.221947	-56.288273	283.640	-0.710	0.340	-0.130	283.580	-1.000	0.200																			1580073480.0	11.73	21.72
26/01/2020 21:18:01	26012020	260120	211801	283.370	12.221957	-56.288327	283.390	-0.860	0.500	-0.040	283.320	-0.900	0.300																			1580073481.0	11.80	21.85
26/01/2020 21:18:02	26012020	260120	211802	283.160	12.221967	-56.288383	283.190	-0.620	0.150	0.060	283.130	-1.300	0.400																			1580073482.0	12.16	22.52
26/01/2020 21:18:03	26012020	260120	211803	283.030	12.221977	-56.288443	283.080	-0.090	-0.410	0.280	283.010	-1.900	0.700																			1580073483.0	12.62	23.37
26/01/2020 21:18:04	26012020	260120	211804	282.940	12.221990	-56.288502	283.010	0.440	-0.620	0.620	282.930	-2.000	1.000																			1580073484.0	12.73	23.58
26/01/2020 21:18:05	26012020	260120	211805	282.840	12.222003	-56.288558	282.920	0.620	-0.290	0.910	282.830	-1.600	1.300																			1580073485.0	12.27	22.72
26/01/2020 21:18:06	26012020	260120	211806	282.770	12.222018	-56.288610	282.860	0.410	0.160	0.850	282.760	-1.200	1.200																			1580073486.0	11.59	21.46
26/01/2020 21:18:07	26012020	260120	211807	282.780	12.222032	-56.288663	282.890	0.050	0.180	0.420	282.800	-1.300	0.700																			1580073487.0	11.36	21.04
26/01/2020 21:18:08	26012020	260120	211808	282.940	12.222042	-56.288717	283.060	-0.190	-0.290	-0.160	282.980	-1.800	0.100																			1580073488.0	11.79	21.84
26/01/2020 21:18:09	26012020	260120	211809	283.190	12.222052	-56.288775	283.300	-0.220	-0.800	-0.570	283.230	-2.300	-0.200																			1580073489.0	12.33	22.84
26/01/2020 21:18:10	26012020	260120	211810	283.390	12.222060	-56.288833	283.480	-0.140	-0.870	-0.560	283.420	-2.300	-0.200																			1580073490.0	12.42	23.00
26/01/2020 21:18:11	26012020	260120	211811	283.480	12.222070	-56.288888	283.560	-0.090	-0.530	-0.270	283.480	-1.900	0.100																			1580073491.0	12.03	22.28
26/01/2020 21:18:12	26012020	260120	211812	283.470	12.222082	-56.288943	283.540	-0.060	-0.140	0.080	283.450	-1.500	0.500																			1580073492.0	11.68	21.63
26/01/2020 21:18:13	26012020	260120	211813	283.390	12.222093	-56.288997	283.460	0.040	-0.010	0.360	283.370	-1.400	0.700																			1580073493.0	11.69	21.65
26/01/2020 21:18:14	26012020	260120	211814	283.270	12.222107	-56.289052	283.340	0.200	-0.190	0.480	283.250	-1.600	0.900																			1580073494.0	12.01	22.24
26/01/2020 21:18:15	26012020	260120	211815	283.130	12.222118	-56.289108	283.180	0.330	-0.400	0.430	283.100	-1.800	0.800																			1580073495.0	12.32	22.82
26/01/2020 21:18:16	26012020	260120	211816	282.980	12.222132	-56.289165	283.020	0.330	-0.390	0.290	282.950	-1.800	0.600																			1580073496.0	12.33	22.84
26/01/2020 21:18:17	26012020	260120	211817	282.840	12.222143	-56.289222	282.900	0.140	-0.200	0.110	282.820	-1.600	0.400																			1580073497.0	12.05	22.32
26/01/2020 21:18:18	26012020	260120	211818	282.710	12.222155	-56.289277	282.770	-0.140	-0.070	-0.070	282.690	-1.500	0.300																			1580073498.0	11.84	21.93
26/01/2020 21:18:19	26012020	260120	211819	282.630	12.222165	-56.289332	282.690	-0.390	-0.130	-0.210	282.620	-1.600	0.100																			1580073499.0	11.87	21.98
26/01/2020 21:18:20	26012020	260120	211820	282.660	12.222175	-56.289388	282.760	-0.470	-0.300	-0.230	282.690	-1.700	0.100																			1580073500.0	12.07	22.35
26/01/2020 21:18:21	26012020	260120	211821	282.820	12.222185	-56.289443	282.920	-0.400	-0.410	-0.130	282.860	-1.800	0.300																			1580073501.0	12.16	22.52
26/01/2020 21:18:22	26012020	260120	211822	283.040	12.222197	-56.289500	283.150	-0.200	-0.410	0.030	283.100	-1.800	0.400																			1580073502.0	12.10	22.41
26/01/2020 21:18:23	26012020	260120	211823	283.280	12.222208	-56.289555	283.380	0.030	-0.330	0.270	283.320	-1.700	0.700																			1580073503.0	12.02	22.26
26/01/2020 21:18:24	26012020	260120	211824	283.440	12.222220	-56.289612	283.520	0.240	-0.210	0.580	283.450	-1.600	1.000																			1580073504.0	11.95	22.13
26/01/2020 21:18:25	26012020	260120	211825	283.470	12.222233	-56.289665	283.540	0.370	-0.110	0.840	283.460	-1.500	1.200																			1580073505.0	11.93	22.09
26/01/2020 21:18:26	26012020	260120	211826	283.360	12.222247	-56.289720	283.420	0.390	-0.030	0.930	283.330	-1.400	1.300																			1580073506.0	11.91	22.06
26/01/2020 21:18:27	26012020	260120	211827	283.170	12.222260	-56.289775	283.220	0.290	-0.040	0.780	283.140	-1.500	1.100																			1580073507.0	11.86	21.96
26/01/2020 21:18:28	26012020	260120	211828	282.990	12.222272	-56.289830	283.050	0.130	-0.220	0.430	282.950	-1.700	0.700																			1580073508.0	11.88	22.00
26/01/2020 21:18:29	26012020	260120	211829	282.840	12.222282	-56.289885	282.920	-0.040	-0.510	0.030	282.820	-2.000	0.400																			1580073509.0	12.02	22.26
26/01/2020 21:18:30	26012020	260120	211830	282.770	12.222292	-56.289942	282.840	-0.140	-0.730	-0.270	282.760	-2.200	0.100																			1580073510.0	12.15	22.50
26/01/2020 21:18:31	26012020	260120	211831	282.780	12.222300	-56.289998	282.880	-0.160	-0.790	-0.370	282.800	-2.200	0.000																			1580073511.0	12.15	22.50
26/01/2020 21:18:32	26012020	260120	211832	282.900	12.222310	-56.290055	283.010	-0.080	-0.750	-0.250	282.930	-2.200	0.100																			1580073512.0	12.10	22.41
26/01/2020 21:18:33	26012020	260120	211833	283.060	12.222322	-56.290112	283.190	0.010	-0.660	-0.020	283.100	-2.100	0.400																			1580073513.0	12.18	22.56
26/01/2020 21:18:34	26012020	260120	211834	283.250	12.222335	-56.290168	283.370	0.010	-0.380	0.180	283.290	-1.800	0.600																			1580073514.0	12.26	22.71
26/01/2020 21:18:35	26012020	260120	211835	283.430	12.222348	-56.290223	283.550	-0.140	0.060	0.270	283.450	-1.300	0.600																			1580073515.0	12.15	22.50
26/01/2020 21:18:36	26012020	260120	211836	283.560	12.222360	-56.290278	283.670	-0.370	0.520	0.180	283.580	-0.900	0.500																			1580073516.0	11.93	22.09
26/01/2020 21:18:37	26012020	260120	211837	283.640	12.222370	-56.290333	283.720	-0.530	0.700	-0.040	283.640	-0.700	0.300																			1580073517.0	11.81	21.87
26/01/2020 21:18:38	26012020	260120	211838	283.650	12.222380	-56.290390	283.740	-0.460	0.420	-0.230	283.650	-1.100	0.100																			1580073518.0	11.95	22.13
26/01/2020 21:18:39	26012020	260120	211839	283.610	12.222390	-56.290447	283.700	-0.120	-0.190	-0.220	283.600	-1.700	0.200																			1580073519.0	12.27	22.72
26/01/2020 21:18:40	26012020	260120	211840	283.520	12.222402	-56.290503	283.580	0.300	-0.670	0.010	283.480	-2.100	0.400																			1580073520.0	12.46	23.08
26/01/2020 21:18:41	26012020	260120	211841	283.340	12.222415	-56.290560	283.400	0.560	-0.720	0.300	283.300	-2.100	0.700																			1580073521.0	12.24	22.67
26/01/2020 21:18:42	26012020	260120	211842	283.130	12.222428	-56.290615	283.210	0.570	-0.480	0.510	283.100	-1.900	0.900																			1580073522.0	11.71	21.69
26/01/2020 21:18:43	26012020	260120	211843	282.990	12.222442	-56.290667	283.080	0.440	-0.350	0.510	282.980	-1.800	0.900																			1580073523.0	11.45	21.21
26/01/2020 21:18:44	26012020	260120	211844	282.970	12.222453	-56.290720	283.050	0.300	-0.540	0.270	282.970	-2.000	0.600																			1580073524.0	11.68	21.63
26/01/2020 21:18:45	26012020	260120	211845	283.050	12.222465	-56.290777	283.140	0.160	-0.800	-0.060	283.080	-2.300	0.300																			1580073525.0	12.12	22.45
26/01/2020 21:18:46	26012020	260120	211846	283.210	12.222477	-56.290833	283.310	-0.040	-0.790	-0.280	283.250	-2.200	0.100																			1580073526.0	12.32	22.82
26/01/2020 21:18:47	26012020	260120	211847	283.420	12.222487	-56.290890	283.530	-0.310	-0.480	-0.330	283.470	-1.900	0.000																			1580073527.0	12.14	22.48
26/01/2020 21:18:48	26012020	260120	211848	283.640	12.222498	-56.290945	283.750	-0.490	-0.150	-0.200	283.680	-1.600	0.200																			1580073528.0	11.91	22.06
26/01/2020 21:18:49	26012020	260120	211849	283.820	12.222510	-56.291000	283.920	-0.450	-0.070	0.030	283.840	-1.500	0.400																			1580073529.0	12.01	22.24
26/01/2020 21:18:50	26012020	260120	211850	283.860	12.222522	-56.291058	283.930	-0.260	-0.110	0.220	283.840	-1.500	0.600																			1580073530.0	12.36	22.89
26/01/2020 21:18:51	26012020	260120	211851	283.710	12.222535	-56.291115	283.760	-0.160	0.000	0.320	283.660	-1.400	0.700																			1580073531.0	12.48	23.11
26/01/2020 21:18:52	26012020	260120	211852	283.460	12.222547	-56.291172	283.510	-0.240	0.270	0.320	283.410	-1.100	0.700																			1580073532.0	12.17	22.54
26/01/2020 21:18:53	26012020	260120	211853	283.230	12.222558	-56.291227	283.300	-0.320	0.420	0.230	283.190	-1.000	0.600																			1580073533.0	11.83	21.91
26/01/2020 21:18:54	26012020	260120	211854	283.080	12.222568	-56.291282	283.150	-0.200	0.190	0.040	283.050	-1.300	0.400																			1580073534.0	11.80	21.85
26/01/2020 21:18:55	26012020	260120	211855	283.010	12.222578	-56.291337	283.100	0.160	-0.350	-0.150	283.010	-1.900	0.200																			1580073535.0	12.07	22.35
26/01/2020 21:18:56	26012020	260120	211856	283.040	12.222590	-56.291395	283.150	0.560	-0.810	-0.130	283.050	-2.300	0.300																			1580073536.0	12.32	22.82
26/01/2020 21:18:57	26012020	260120	211857	283.100	12.222603	-56.291450	283.200	0.750	-0.880	0.150	283.110	-2.300	0.500																			1580073537.0	12.22	22.63
26/01/2020 21:18:58	26012020	260120	211858	283.090	12.222617	-56.291505	283.170	0.580	-0.580	0.490	283.080	-2.000	0.900																			1580073538.0	11.85	21.95
26/01/2020 21:18:59	26012020	260120	211859	283.040	12.222632	-56.291557	283.130	0.200	-0.250	0.640	283.030	-1.700	1.000	1014.50	26.20	26.20	21.10	21.10	51.00	73.00	73.00	410.00	26.20	36.00	5.50	42.00	3.70	2963	3661.00	27.70	27.60	1580073539.0	11.52	21.34
26/01/2020 21:19:00	26012020	260120	211900	283.030	12.222643	-56.291610	283.130	-0.110	-0.210	0.440	283.040	-1.700	0.800																			1580073540.0	11.59	21.46
26/01/2020 21:19:01	26012020	260120	211901	283.090	12.222655	-56.291667	283.200	-0.210	-0.450	0.070	283.100	-1.900	0.400																			1580073541.0	12.01	22.24
26/01/2020 21:19:02	26012020	260120	211902	283.170	12.222665	-56.291725	283.270	-0.180	-0.650	-0.220	283.190	-2.100	0.100																			1580073542.0	12.42	23.00
26/01/2020 21:19:03	26012020	260120	211903	283.210	12.222675	-56.291782	283.290	-0.200	-0.540	-0.260	283.210	-1.900	0.100																			1580073543.0	12.49	23.13
26/01/2020 21:19:04	26012020	260120	211904	283.160	12.222685	-56.291838	283.240	-0.310	-0.150	-0.020	283.140	-1.500	0.400																			1580073544.0	12.20	22.59
26/01/2020 21:19:05	26012020	260120	211905	283.060	12.222697	-56.291893	283.140	-0.390	0.210	0.240	283.040	-1.200	0.600																			1580073545.0	11.86	21.96
26/01/2020 21:19:06	26012020	260120	211906	282.990	12.222708	-56.291948	283.080	-0.330	0.250	0.310	282.980	-1.200	0.700																			1580073546.0	11.86	21.96
26/01/2020 21:19:07	26012020	260120	211907	282.990	12.222720	-56.292005	283.090	-0.120	-0.030	0.200	283.000	-1.500	0.500																			1580073547.0	12.12	22.45
26/01/2020 21:19:08	26012020	260120	211908	283.050	12.222732	-56.292062	283.160	0.110	-0.360	0.060	283.070	-1.800	0.400																			1580073548.0	12.34	22.85
26/01/2020 21:19:09	26012020	260120	211909	283.140	12.222743	-56.292118	283.230	0.250	-0.520	-0.000	283.150	-1.900	0.400																			1580073549.0	12.31	22.80
26/01/2020 21:19:10	26012020	260120	211910	283.170	12.222753	-56.292175	283.240	0.300	-0.430	0.070	283.170	-1.800	0.400																			1580073550.0	12.08	22.37
26/01/2020 21:19:11	26012020	260120	211911	283.130	12.222767	-56.292230	283.200	0.320	-0.250	0.280	283.120	-1.700	0.700																			1580073551.0	11.83	21.91
26/01/2020 21:19:12	26012020	260120	211912	283.070	12.222778	-56.292283	283.160	0.320	-0.170	0.530	283.060	-1.600	0.900																			1580073552.0	11.78	21.82
26/01/2020 21:19:13	26012020	260120	211913	283.000	12.222793	-56.292338	283.080	0.240	-0.210	0.600	282.980	-1.600	1.000																			1580073553.0	11.93	22.09
26/01/2020 21:19:14	26012020	260120	211914	282.890	12.222805	-56.292393	282.960	0.000	-0.220	0.410	282.860	-1.700	0.700																			1580073554.0	12.04	22.30
26/01/2020 21:19:15	26012020	260120	211915	282.780	12.222817	-56.292450	282.850	-0.270	-0.270	0.060	282.760	-1.700	0.400																			1580073555.0	11.97	22.17
26/01/2020 21:19:16	26012020	260120	211916	282.770	12.222825	-56.292505	282.850	-0.360	-0.480	-0.280	282.780	-1.900	0.100																			1580073556.0	12.00	22.22
26/01/2020 21:19:17	26012020	260120	211917	282.890	12.222833	-56.292562	282.990	-0.180	-0.720	-0.440	282.920	-2.200	-0.100																			1580073557.0	12.26	22.71
26/01/2020 21:19:18	26012020	260120	211918	283.040	12.222845	-56.292620	283.130	0.100	-0.640	-0.260	283.060	-2.000	0.200																			1580073558.0	12.37	22.91
26/01/2020 21:19:19	26012020	260120	211919	283.080	12.222857	-56.292677	283.140	0.210	-0.250	0.090	283.070	-1.600	0.500																			1580073559.0	12.12	22.45
26/01/2020 21:19:20	26012020	260120	211920	282.970	12.222870	-56.292730	283.030	0.070	0.120	0.350	282.940	-1.300	0.700																			1580073560.0	11.80	21.85
26/01/2020 21:19:21	26012020	260120	211921	282.830	12.222883	-56.292785	282.920	-0.130	0.130	0.360	282.820	-1.300	0.700																			1580073561.0	11.82	21.89
26/01/2020 21:19:22	26012020	260120	211922	282.790	12.222895	-56.292840	282.880	-0.230	-0.170	0.130	282.790	-1.600	0.500																			1580073562.0	12.15	22.50
26/01/2020 21:19:23	26012020	260120	211923	282.810	12.222905	-56.292898	282.910	-0.220	-0.470	-0.120	282.810	-1.900	0.200																			1580073563.0	12.42	23.00
26/01/2020 21:19:24	26012020	260120	211924	282.810	12.222915	-56.292957	282.890	-0.170	-0.510	-0.210	282.810	-1.900	0.200																			1580073564.0	12.37	22.91
26/01/2020 21:19:25	26012020	260120	211925	282.780	12.222925	-56.293012	282.860	-0.140	-0.300	-0.050	282.770	-1.700	0.400																			1580073565.0	12.05	22.32
26/01/2020 21:19:26	26012020	260120	211926	282.720	12.222937	-56.293067	282.820	-0.080	-0.070	0.300	282.710	-1.500	0.700																			1580073566.0	11.76	21.78
26/01/2020 21:19:27	26012020	260120	211927	282.650	12.222948	-56.293120	282.750	0.080	-0.050	0.610	282.630	-1.500	1.000																			1580073567.0	11.74	21.74
26/01/2020 21:19:28	26012020	260120	211928	282.560	12.222962	-56.293175	282.670	0.320	-0.260	0.680	282.550	-1.700	1.000																			1580073568.0	12.00	22.22
26/01/2020 21:19:29	26012020	260120	211929	282.540	12.222975	-56.293232	282.640	0.510	-0.490	0.510	282.540	-1.900	0.800																			1580073569.0	12.26	22.71
26/01/2020 21:19:30	26012020	260120	211930	282.560	12.222987	-56.293288	282.680	0.530	-0.500	0.310	282.580	-1.900	0.700																			1580073570.0	12.29	22.76
26/01/2020 21:19:31	26012020	260120	211931	282.640	12.222998	-56.293345	282.740	0.320	-0.280	0.180	282.650	-1.700	0.500																			1580073571.0	12.06	22.34
26/01/2020 21:19:32	26012020	260120	211932	282.720	12.223010	-56.293398	282.810	-0.020	-0.060	0.070	282.740	-1.500	0.400																			1580073572.0	11.84	21.93
26/01/2020 21:19:33	26012020	260120	211933	282.770	12.223022	-56.293453	282.840	-0.340	-0.080	-0.080	282.770	-1.500	0.300																			1580073573.0	11.85	21.95
26/01/2020 21:19:34	26012020	260120	211934	282.780	12.223032	-56.293510	282.860	-0.510	-0.330	-0.260	282.780	-1.800	0.100																			1580073574.0	12.11	22.43
26/01/2020 21:19:35	26012020	260120	211935	282.800	12.223040	-56.293568	282.880	-0.500	-0.550	-0.300	282.800	-2.000	0.100																			1580073575.0	12.37	22.91
26/01/2020 21:19:36	26012020	260120	211936	282.800	12.223050	-56.293625	282.880	-0.370	-0.560	-0.120	282.800	-2.000	0.300																			1580073576.0	12.34	22.85
26/01/2020 21:19:37	26012020	260120	211937	282.780	12.223060	-56.293682	282.870	-0.200	-0.410	0.210	282.780	-1.800	0.600																			1580073577.0	12.11	22.43
26/01/2020 21:19:38	26012020	260120	211938	282.740	12.223072	-56.293738	282.830	-0.010	-0.280	0.480	282.740	-1.700	0.900																			1580073578.0	11.98	22.19
26/01/2020 21:19:39	26012020	260120	211939	282.730	12.223083	-56.293793	282.830	0.160	-0.240	0.550	282.740	-1.700	0.900																			1580073579.0	12.02	22.26
26/01/2020 21:19:40	26012020	260120	211940	282.800	12.223097	-56.293848	282.890	0.280	-0.240	0.440	282.810	-1.700	0.800																			1580073580.0	12.14	22.48
26/01/2020 21:19:41	26012020	260120	211941	282.860	12.223108	-56.293905	282.960	0.300	-0.200	0.300	282.870	-1.600	0.600																			1580073581.0	12.18	22.56
26/01/2020 21:19:42	26012020	260120	211942	282.870	12.223120	-56.293962	282.960	0.220	-0.080	0.160	282.870	-1.500	0.500																			1580073582.0	12.12	22.45
26/01/2020 21:19:43	26012020	260120	211943	282.820	12.223132	-56.294017	282.900	0.050	0.060	-0.030	282.800	-1.400	0.300																			1580073583.0	12.00	22.22
26/01/2020 21:19:44	26012020	260120	211944	282.750	12.223143	-56.294072	282.830	-0.110	0.100	-0.200	282.740	-1.300	0.200																			1580073584.0	11.93	22.09
26/01/2020 21:19:45	26012020	260120	211945	282.750	12.223153	-56.294128	282.840	-0.150	-0.060	-0.320	282.760	-1.500	0.000																			1580073585.0	11.96	22.15
26/01/2020 21:19:46	26012020	260120	211946	282.840	12.223163	-56.294183	282.950	-0.030	-0.390	-0.360	282.860	-1.900	0.000																			1580073586.0	12.12	22.45
26/01/2020 21:19:47	26012020	260120	211947	282.980	12.223175	-56.294240	283.090	0.180	-0.680	-0.280	283.000	-2.100	0.100																			1580073587.0	12.28	22.74
26/01/2020 21:19:48	26012020	260120	211948	283.100	12.223187	-56.294298	283.200	0.330	-0.770	-0.060	283.120	-2.200	0.300																			1580073588.0	12.28	22.74
26/01/2020 21:19:49	26012020	260120	211949	283.130	12.223198	-56.294353	283.220	0.270	-0.610	0.270	283.130	-2.000	0.700																			1580073589.0	12.12	22.45
26/01/2020 21:19:50	26012020	260120	211950	283.050	12.223212	-56.294408	283.140	-0.010	-0.320	0.500	283.030	-1.700	0.900																			1580073590.0	11.92	22.08
26/01/2020 21:19:51	26012020	260120	211951	282.890	12.223223	-56.294463	282.970	-0.350	-0.070	0.460	282.860	-1.500	0.800																			1580073591.0	11.81	21.87
26/01/2020 21:19:52	26012020	260120	211952	282.710	12.223233	-56.294518	282.790	-0.560	-0.020	0.230	282.680	-1.500	0.600																			1580073592.0	11.85	21.95
26/01/2020 21:19:53	26012020	260120	211953	282.620	12.223243	-56.294575	282.720	-0.500	-0.290	-0.100	282.630	-1.800	0.200																			1580073593.0	12.10	22.41
26/01/2020 21:19:54	26012020	260120	211954	282.720	12.223252	-56.294632	282.850	-0.200	-0.670	-0.360	282.760	-2.100	0.000																			1580073594.0	12.45	23.06
26/01/2020 21:19:55	26012020	260120	211955	282.940	12.223262	-56.294692	283.070	0.180	-0.820	-0.350	282.990	-2.200	0.000																			1580073595.0	12.65	23.43
26/01/2020 21:19:56	26012020	260120	211956	283.160	12.223275	-56.294748	283.280	0.430	-0.500	-0.080	283.200	-1.900	0.300																			1580073596.0	12.46	23.08
26/01/2020 21:19:57	26012020	260120	211957	283.260	12.223288	-56.294803	283.340	0.410	0.150	0.270	283.250	-1.200	0.700																			1580073597.0	12.04	22.30
26/01/2020 21:19:58	26012020	260120	211958	283.140	12.223302	-56.294857	283.200	0.170	0.740	0.550	283.100	-0.700	0.900																			1580073598.0	11.65	21.58
26/01/2020 21:19:59	26012020	260120	211959	282.910	12.223315	-56.294910	282.970	-0.130	0.860	0.570	282.870	-0.600	0.900	1014.50	26.20	26.20	21.10	21.10	51.00	73.00	73.00	407.00	26.10	35.00	5.70	38.00	3.60	2873	3588.00	27.70	27.70	1580073599.0	11.56	21.41
26/01/2020 21:20:00	26012020	260120	212000	282.750	12.223327	-56.294965	282.830	-0.260	0.330	0.250	282.730	-1.200	0.600																			1580073600.0	11.81	21.87
26/01/2020 21:20:01	26012020	260120	212001	282.760	12.223337	-56.295022	282.870	-0.080	-0.650	-0.240	282.780	-2.200	0.100																			1580073601.0	12.32	22.82
26/01/2020 21:20:02	26012020	260120	212002	282.930	12.223345	-56.295082	283.040	0.260	-1.500	-0.640	282.970	-3.000	-0.300																			1580073602.0	12.73	23.58
26/01/2020 21:20:03	26012020	260120	212003	283.140	12.223355	-56.295142	283.230	0.470	-1.660	-0.680	283.180	-3.000	-0.300																			1580073603.0	12.69	23.50
26/01/2020 21:20:04	26012020	260120	212004	283.260	12.223367	-56.295197	283.330	0.310	-1.020	-0.330	283.270	-2.300	0.100																			1580073604.0	12.12	22.45
26/01/2020 21:20:05	26012020	260120	212005	283.210	12.223380	-56.295250	283.260	-0.140	-0.060	0.100	283.180	-1.400	0.500																			1580073605.0	11.50	21.30
26/01/2020 21:20:06	26012020	260120	212006	283.020	12.223392	-56.295302	283.070	-0.600	0.580	0.320	282.980	-0.800	0.700																			1580073606.0	11.28	20.89
26/01/2020 21:20:07	26012020	260120	212007	282.820	12.223403	-56.295357	282.880	-0.700	0.480	0.250	282.790	-1.000	0.600																			1580073607.0	11.68	21.63
26/01/2020 21:20:08	26012020	260120	212008	282.740	12.223413	-56.295413	282.840	-0.340	-0.160	0.060	282.750	-1.700	0.400																			1580073608.0	12.44	23.04
26/01/2020 21:20:09	26012020	260120	212009	282.840	12.223423	-56.295473	282.970	0.250	-0.700	-0.040	282.880	-2.200	0.300																			1580073609.0	12.96	24.00
26/01/2020 21:20:10	26012020	260120	212010	283.040	12.223435	-56.295533	283.140	0.650	-0.630	0.090	283.070	-2.000	0.500																			1580073610.0	12.81	23.72
26/01/2020 21:20:11	26012020	260120	212011	283.130	12.223450	-56.295588	283.200	0.580	-0.010	0.340	283.120	-1.400	0.700																			1580073611.0	12.13	22.46
26/01/2020 21:20:12	26012020	260120	212012	283.040	12.223463	-56.295642	283.110	0.120	0.570	0.470	283.020	-0.800	0.800																			1580073612.0	11.46	21.22
26/01/2020 21:20:13	26012020	260120	212013	282.930	12.223477	-56.295693	283.010	-0.360	0.520	0.260	282.920	-1.000	0.600																			1580073613.0	11.36	21.04
26/01/2020 21:20:14	26012020	260120	212014	282.920	12.223487	-56.295748	283.020	-0.530	-0.170	-0.160	282.930	-1.700	0.200																			1580073614.0	11.90	22.04
26/01/2020 21:20:15	26012020	260120	212015	282.980	12.223495	-56.295807	283.080	-0.340	-0.970	-0.500	283.000	-2.500	-0.200																			1580073615.0	12.51	23.17
26/01/2020 21:20:16	26012020	260120	212016	283.070	12.223503	-56.295867	283.150	0.040	-1.370	-0.570	283.090	-2.800	-0.200																			1580073616.0	12.63	23.39
26/01/2020 21:20:17	26012020	260120	212017	283.190	12.223513	-56.295923	283.280	0.380	-1.260	-0.330	283.220	-2.600	0.100																			1580073617.0	12.30	22.78
26/01/2020 21:20:18	26012020	260120	212018	283.340	12.223527	-56.295978	283.430	0.530	-0.800	0.070	283.370	-2.200	0.500																			1580073618.0	11.97	22.17
26/01/2020 21:20:19	26012020	260120	212019	283.440	12.223540	-56.296033	283.530	0.440	-0.190	0.420	283.450	-1.600	0.800																			1580073619.0	11.83	21.91
26/01/2020 21:20:20	26012020	260120	212020	283.410	12.223555	-56.296087	283.470	0.130	0.340	0.540	283.380	-1.000	0.900																			1580073620.0	11.82	21.89
26/01/2020 21:20:21	26012020	260120	212021	283.230	12.223568	-56.296142	283.260	-0.250	0.620	0.420	283.180	-0.800	0.700																			1580073621.0	11.91	22.06
26/01/2020 21:20:22	26012020	260120	212022	283.000	12.223578	-56.296197	283.030	-0.520	0.510	0.140	282.950	-1.000	0.500																			1580073622.0	12.09	22.39
26/01/2020 21:20:23	26012020	260120	212023	282.830	12.223588	-56.296255	282.880	-0.530	0.190	-0.110	282.800	-1.300	0.200																			1580073623.0	12.35	22.87
26/01/2020 21:20:24	26012020	260120	212024	282.760	12.223598	-56.296313	282.830	-0.310	-0.140	-0.190	282.760	-1.600	0.200																			1580073624.0	12.41	22.98
26/01/2020 21:20:25	26012020	260120	212025	282.790	12.223608	-56.296370	282.880	0.020	-0.440	-0.060	282.800	-1.900	0.300																			1580073625.0	12.24	22.67
26/01/2020 21:20:26	26012020	260120	212026	282.900	12.223620	-56.296425	283.020	0.300	-0.660	0.170	282.940	-2.100	0.600																			1580073626.0	12.13	22.46
26/01/2020 21:20:27	26012020	260120	212027	283.110	12.223633	-56.296482	283.260	0.450	-0.730	0.330	283.160	-2.200	0.700																			1580073627.0	12.03	22.28
26/01/2020 21:20:28	26012020	260120	212028	283.360	12.223647	-56.296535	283.510	0.460	-0.660	0.340	283.410	-2.100	0.700																			1580073628.0	11.89	22.02
26/01/2020 21:20:29	26012020	260120	212029	283.550	12.223658	-56.296590	283.660	0.350	-0.490	0.310	283.570	-1.900	0.700																			1580073629.0	11.82	21.89
26/01/2020 21:20:30	26012020	260120	212030	283.570	12.223672	-56.296645	283.650	0.160	-0.320	0.240	283.560	-1.700	0.600																			1580073630.0	11.81	21.87
26/01/2020 21:20:31	26012020	260120	212031	283.460	12.223683	-56.296700	283.540	-0.050	-0.270	0.110	283.440	-1.700	0.400																			1580073631.0	11.87	21.98
26/01/2020 21:20:32	26012020	260120	212032	283.370	12.223693	-56.296755	283.450	-0.200	-0.420	-0.100	283.370	-1.900	0.200																			1580073632.0	12.08	22.37
26/01/2020 21:20:33	26012020	260120	212033	283.400	12.223705	-56.296813	283.500	-0.250	-0.640	-0.300	283.420	-2.100	0.000																			1580073633.0	12.36	22.89
26/01/2020 21:20:34	26012020	260120	212034	283.510	12.223715	-56.296872	283.600	-0.240	-0.620	-0.410	283.530	-2.000	-0.000																			1580073634.0	12.53	23.21
26/01/2020 21:20:35	26012020	260120	212035	283.600	12.223727	-56.296928	283.690	-0.230	-0.260	-0.350	283.610	-1.600	0.000																			1580073635.0	12.38	22.93
26/01/2020 21:20:36	26012020	260120	212036	283.620	12.223738	-56.296985	283.700	-0.240	0.200	-0.130	283.620	-1.200	0.300																			1580073636.0	12.10	22.41
26/01/2020 21:20:37	26012020	260120	212037	283.580	12.223750	-56.297040	283.650	-0.230	0.530	0.190	283.560	-0.900	0.600																			1580073637.0	11.97	22.17
26/01/2020 21:20:38	26012020	260120	212038	283.440	12.223763	-56.297095	283.500	-0.180	0.610	0.460	283.400	-0.800	0.800																			1580073638.0	12.00	22.22
26/01/2020 21:20:39	26012020	260120	212039	283.200	12.223777	-56.297150	283.250	-0.070	0.470	0.550	283.150	-1.000	0.900																			1580073639.0	12.01	22.24
26/01/2020 21:20:40	26012020	260120	212040	282.970	12.223788	-56.297205	283.040	0.100	0.050	0.400	282.930	-1.500	0.700																			1580073640.0	11.97	22.17
26/01/2020 21:20:41	26012020	260120	212041	282.870	12.223798	-56.297262	282.960	0.350	-0.650	0.170	282.870	-2.200	0.500																			1580073641.0	12.06	22.34
26/01/2020 21:20:42	26012020	260120	212042	282.920	12.223810	-56.297318	283.030	0.610	-1.300	-0.020	282.940	-2.800	0.300																			1580073642.0	12.30	22.78
26/01/2020 21:20:43	26012020	260120	212043	283.050	12.223823	-56.297375	283.170	0.720	-1.460	-0.060	283.080	-2.900	0.300																			1580073643.0	12.35	22.87
26/01/2020 21:20:44	26012020	260120	212044	283.160	12.223835	-56.297430	283.270	0.550	-1.010	0.080	283.170	-2.400	0.400																			1580073644.0	12.02	22.26
26/01/2020 21:20:45	26012020	260120	212045	283.230	12.223848	-56.297483	283.340	0.130	-0.270	0.240	283.250	-1.600	0.600																			1580073645.0	11.58	21.45
26/01/2020 21:20:46	26012020	260120	212046	283.280	12.223862	-56.297537	283.380	-0.350	0.240	0.280	283.280	-1.200	0.600																			1580073646.0	11.45	21.21
26/01/2020 21:20:47	26012020	260120	212047	283.280	12.223872	-56.297590	283.380	-0.650	0.270	0.150	283.290	-1.200	0.500																			1580073647.0	11.77	21.80
26/01/2020 21:20:48	26012020	260120	212048	283.320	12.223882	-56.297648	283.420	-0.620	-0.110	-0.120	283.330	-1.600	0.200																			1580073648.0	12.29	22.76
26/01/2020 21:20:49	26012020	260120	212049	283.410	12.223892	-56.297707	283.510	-0.320	-0.560	-0.340	283.420	-2.000	0.000																			1580073649.0	12.69	23.50
26/01/2020 21:20:50	26012020	260120	212050	283.520	12.223902	-56.297767	283.610	0.020	-0.730	-0.300	283.540	-2.100	0.100																			1580073650.0	12.79	23.69
26/01/2020 21:20:51	26012020	260120	212051	283.610	12.223915	-56.297825	283.710	0.150	-0.470	-0.020	283.620	-1.900	0.400																			1580073651.0	12.51	23.17
26/01/2020 21:20:52	26012020	260120	212052	283.610	12.223928	-56.297880	283.690	0.010	0.040	0.250	283.600	-1.300	0.600																			1580073652.0	12.08	22.37
26/01/2020 21:20:53	26012020	260120	212053	283.480	12.223942	-56.297933	283.530	-0.280	0.490	0.270	283.440	-0.900	0.600																			1580073653.0	11.74	21.74
26/01/2020 21:20:54	26012020	260120	212054	283.280	12.223952	-56.297988	283.330	-0.470	0.550	0.050	283.250	-0.900	0.400																			1580073654.0	11.70	21.67
26/01/2020 21:20:55	26012020	260120	212055	283.130	12.223962	-56.298043	283.190	-0.340	0.130	-0.200	283.100	-1.400	0.100																			1580073655.0	11.97	22.17
26/01/2020 21:20:56	26012020	260120	212056	283.050	12.223972	-56.298102	283.110	0.080	-0.480	-0.270	283.040	-2.000	0.100																			1580073656.0	12.36	22.89
26/01/2020 21:20:57	26012020	260120	212057	282.970	12.223982	-56.298160	283.010	0.580	-0.860	-0.060	282.940	-2.300	0.300																			1580073657.0	12.49	23.13
26/01/2020 21:20:58	26012020	260120	212058	282.790	12.223995	-56.298215	282.810	0.810	-0.720	0.320	282.750	-2.100	0.700																			1580073658.0	12.22	22.63
26/01/2020 21:20:59	26012020	260120	212059	282.560	12.224010	-56.298268	282.600	0.620	-0.240	0.580	282.530	-1.600	0.900	1014.50	26.20	26.20	21.00	21.00	52.00	73.00	73.00	403.00	26.20	34.00	5.30	45.00	3.50	2776	3596.00	27.70	27.70	1580073659.0	11.70	21.67
26/01/2020 21:21:00	26012020	260120	212100	282.430	12.224025	-56.298320	282.510	0.170	0.020	0.490	282.430	-1.400	0.800																			1580073660.0	11.36	21.04
26/01/2020 21:21:01	26012020	260120	212101	282.530	12.224037	-56.298373	282.660	-0.170	-0.280	0.070	282.590	-1.800	0.400																			1580073661.0	11.58	21.45
26/01/2020 21:21:02	26012020	260120	212102	282.910	12.224047	-56.298430	283.060	-0.180	-0.910	-0.440	283.000	-2.400	-0.100																			1580073662.0	12.24	22.67
26/01/2020 21:21:03	26012020	260120	212103	283.420	12.224057	-56.298490	283.570	0.010	-1.280	-0.690	283.520	-2.700	-0.300																			1580073663.0	12.76	23.63
26/01/2020 21:21:04	26012020	260120	212104	283.800	12.224068	-56.298548	283.910	0.090	-0.950	-0.500	283.840	-2.300	-0.100																			1580073664.0	12.64	23.41
26/01/2020 21:21:05	26012020	260120	212105	283.890	12.224080	-56.298605	283.950	-0.130	-0.130	-0.090	283.870	-1.500	0.300																			1580073665.0	12.06	22.34
26/01/2020 21:21:06	26012020	260120	212106	283.680	12.224093	-56.298658	283.730	-0.500	0.600	0.200	283.610	-0.800	0.600																			1580073666.0	11.60	21.48
26/01/2020 21:21:07	26012020	260120	212107	283.330	12.224103	-56.298712	283.380	-0.720	0.730	0.190	283.260	-0.700	0.500																			1580073667.0	11.67	21.61
26/01/2020 21:21:08	26012020	260120	212108	283.020	12.224113	-56.298768	283.080	-0.560	0.270	-0.040	282.970	-1.200	0.300																			1580073668.0	12.19	22.58
26/01/2020 21:21:09	26012020	260120	212109	282.820	12.224123	-56.298828	282.870	-0.150	-0.350	-0.260	282.780	-1.800	0.100																			1580073669.0	12.71	23.54
26/01/2020 21:21:10	26012020	260120	212110	282.640	12.224133	-56.298887	282.680	0.180	-0.580	-0.240	282.610	-2.000	0.100																			1580073670.0	12.73	23.58
26/01/2020 21:21:11	26012020	260120	212111	282.470	12.224145	-56.298943	282.500	0.240	-0.320	0.010	282.440	-1.700	0.400																			1580073671.0	12.20	22.59
26/01/2020 21:21:12	26012020	260120	212112	282.350	12.224157	-56.298997	282.400	0.130	0.050	0.270	282.340	-1.400	0.700																			1580073672.0	11.59	21.46
26/01/2020 21:21:13	26012020	260120	212113	282.330	12.224168	-56.299050	282.400	0.100	0.090	0.390	282.340	-1.400	0.800																			1580073673.0	11.43	21.17
26/01/2020 21:21:14	26012020	260120	212114	282.410	12.224182	-56.299103	282.510	0.260	-0.280	0.350	282.440	-1.800	0.700																			1580073674.0	11.74	21.74
26/01/2020 21:21:15	26012020	260120	212115	282.600	12.224193	-56.299160	282.720	0.530	-0.800	0.200	282.650	-2.300	0.500																			1580073675.0	12.17	22.54
26/01/2020 21:21:16	26012020	260120	212116	282.850	12.224205	-56.299217	282.960	0.660	-1.080	0.080	282.890	-2.500	0.400																			1580073676.0	12.40	22.96
26/01/2020 21:21:17	26012020	260120	212117	283.050	12.224218	-56.299273	283.160	0.490	-0.900	0.050	283.090	-2.300	0.400																			1580073677.0	12.26	22.71
26/01/2020 21:21:18	26012020	260120	212118	283.160	12.224232	-56.299328	283.260	0.080	-0.400	0.090	283.170	-1.800	0.400																			1580073678.0	11.90	22.04
26/01/2020 21:21:19	26012020	260120	212119	283.170	12.224243	-56.299383	283.260	-0.340	-0.000	0.110	283.170	-1.400	0.500																			1580073679.0	11.70	21.67
26/01/2020 21:21:20	26012020	260120	212120	283.130	12.224253	-56.299438	283.210	-0.580	0.060	0.030	283.110	-1.400	0.400																			1580073680.0	11.90	22.04
26/01/2020 21:21:21	26012020	260120	212121	283.070	12.224263	-56.299495	283.160	-0.570	-0.160	-0.160	283.060	-1.600	0.200																			1580073681.0	12.30	22.78
26/01/2020 21:21:22	26012020	260120	212122	283.090	12.224273	-56.299553	283.190	-0.410	-0.390	-0.360	283.100	-1.800	-0.000																			1580073682.0	12.60	23.34
26/01/2020 21:21:23	26012020	260120	212123	283.140	12.224283	-56.299612	283.230	-0.250	-0.350	-0.390	283.140	-1.700	-0.000																			1580073683.0	12.56	23.26
26/01/2020 21:21:24	26012020	260120	212124	283.080	12.224293	-56.299670	283.140	-0.200	0.000	-0.190	283.050	-1.400	0.200																			1580073684.0	12.21	22.61
26/01/2020 21:21:25	26012020	260120	212125	282.890	12.224303	-56.299723	282.930	-0.220	0.350	0.130	282.840	-1.100	0.500																			1580073685.0	11.77	21.80
26/01/2020 21:21:26	26012020	260120	212126	282.660	12.224315	-56.299778	282.720	-0.170	0.360	0.390	282.630	-1.100	0.800																			1580073686.0	11.65	21.58
26/01/2020 21:21:27	26012020	260120	212127	282.520	12.224327	-56.299833	282.590	0.060	-0.010	0.540	282.500	-1.500	0.900																			1580073687.0	11.91	22.06
26/01/2020 21:21:28	26012020	260120	212128	282.480	12.224338	-56.299888	282.560	0.390	-0.470	0.540	282.480	-1.900	0.900																			1580073688.0	12.19	22.58
26/01/2020 21:21:29	26012020	260120	212129	282.550	12.224352	-56.299945	282.660	0.670	-0.800	0.440	282.580	-2.200	0.800																			1580073689.0	12.25	22.69
26/01/2020 21:21:30	26012020	260120	212130	282.710	12.224363	-56.300002	282.820	0.790	-0.920	0.340	282.750	-2.300	0.700																			1580073690.0	12.14	22.48
26/01/2020 21:21:31	26012020	260120	212131	282.880	12.224377	-56.300057	282.980	0.690	-0.800	0.240	282.910	-2.200	0.600																			1580073691.0	12.07	22.35
26/01/2020 21:21:32	26012020	260120	212132	282.980	12.224390	-56.300112	283.070	0.370	-0.490	0.120	283.000	-1.900	0.500																			1580073692.0	11.96	22.15
26/01/2020 21:21:33	26012020	260120	212133	283.030	12.224402	-56.300167	283.110	-0.090	-0.130	-0.050	283.030	-1.500	0.300																			1580073693.0	11.88	22.00
26/01/2020 21:21:34	26012020	260120	212134	283.050	12.224413	-56.300222	283.140	-0.530	0.060	-0.280	283.060	-1.400	0.000																			1580073694.0	11.88	22.00
26/01/2020 21:21:35	26012020	260120	212135	283.090	12.224422	-56.300278	283.150	-0.780	-0.010	-0.520	283.090	-1.500	-0.200																			1580073695.0	12.07	22.35
26/01/2020 21:21:36	26012020	260120	212136	283.100	12.224430	-56.300337	283.160	-0.770	-0.210	-0.680	283.110	-1.700	-0.300																			1580073696.0	12.35	22.87
26/01/2020 21:21:37	26012020	260120	212137	283.130	12.224438	-56.300395	283.180	-0.540	-0.310	-0.610	283.130	-1.700	-0.200																			1580073697.0	12.44	23.04
26/01/2020 21:21:38	26012020	260120	212138	283.150	12.224448	-56.300452	283.210	-0.210	-0.280	-0.250	283.150	-1.700	0.200																			1580073698.0	12.25	22.69
26/01/2020 21:21:39	26012020	260120	212139	283.170	12.224462	-56.300507	283.240	0.120	-0.250	0.190	283.170	-1.700	0.600																			1580073699.0	12.06	22.34
26/01/2020 21:21:40	26012020	260120	212140	283.160	12.224475	-56.300562	283.240	0.350	-0.310	0.430	283.150	-1.800	0.800																			1580073700.0	12.05	22.32
26/01/2020 21:21:41	26012020	260120	212141	283.160	12.224488	-56.300618	283.270	0.420	-0.410	0.340	283.170	-1.900	0.700																			1580073701.0	12.14	22.48
26/01/2020 21:21:42	26012020	260120	212142	283.230	12.224500	-56.300673	283.360	0.340	-0.440	0.030	283.260	-1.900	0.400																			1580073702.0	12.18	22.56
26/01/2020 21:21:43	26012020	260120	212143	283.340	12.224512	-56.300730	283.450	0.170	-0.290	-0.180	283.370	-1.700	0.200																			1580073703.0	12.11	22.43
26/01/2020 21:21:44	26012020	260120	212144	283.390	12.224522	-56.300785	283.480	-0.020	-0.010	-0.180	283.390	-1.400	0.200																			1580073704.0	11.94	22.11
26/01/2020 21:21:45	26012020	260120	212145	283.320	12.224533	-56.300840	283.380	-0.150	0.220	0.010	283.300	-1.200	0.400																			1580073705.0	11.78	21.82
26/01/2020 21:21:46	26012020	260120	212146	283.200	12.224545	-56.300895	283.250	-0.110	0.150	0.180	283.170	-1.300	0.500																			1580073706.0	11.81	21.87
26/01/2020 21:21:47	26012020	260120	212147	283.120	12.224558	-56.300950	283.200	0.080	-0.220	0.200	283.110	-1.700	0.600																			1580073707.0	12.08	22.37
26/01/2020 21:21:48	26012020	260120	212148	283.110	12.224572	-56.301007	283.190	0.270	-0.600	0.110	283.110	-2.100	0.400																			1580073708.0	12.37	22.91
26/01/2020 21:21:49	26012020	260120	212149	283.130	12.224583	-56.301065	283.210	0.290	-0.730	-0.060	283.130	-2.100	0.300																			1580073709.0	12.37	22.91
26/01/2020 21:21:50	26012020	260120	212150	283.130	12.224595	-56.301120	283.210	0.110	-0.600	-0.260	283.130	-2.000	0.100																			1580073710.0	12.12	22.45
26/01/2020 21:21:51	26012020	260120	212151	283.090	12.224607	-56.301175	283.150	-0.150	-0.420	-0.410	283.080	-1.800	-0.100																			1580073711.0	11.89	22.02
26/01/2020 21:21:52	26012020	260120	212152	283.050	12.224617	-56.301232	283.120	-0.290	-0.400	-0.450	283.050	-1.800	-0.100																			1580073712.0	11.91	22.06
26/01/2020 21:21:53	26012020	260120	212153	283.050	12.224627	-56.301287	283.130	-0.270	-0.500	-0.320	283.060	-1.900	0.100																			1580073713.0	12.14	22.48
26/01/2020 21:21:54	26012020	260120	212154	283.090	12.224638	-56.301345	283.180	-0.220	-0.490	-0.080	283.100	-1.900	0.300																			1580073714.0	12.32	22.82
26/01/2020 21:21:55	26012020	260120	212155	283.170	12.224650	-56.301402	283.300	-0.230	-0.280	0.060	283.200	-1.700	0.400																			1580073715.0	12.22	22.63
26/01/2020 21:21:56	26012020	260120	212156	283.310	12.224662	-56.301457	283.430	-0.260	-0.020	0.120	283.330	-1.400	0.500																			1580073716.0	12.02	22.26
26/01/2020 21:21:57	26012020	260120	212157	283.420	12.224673	-56.301512	283.550	-0.200	0.100	0.160	283.440	-1.300	0.500																			1580073717.0	11.98	22.19
26/01/2020 21:21:58	26012020	260120	212158	283.470	12.224685	-56.301568	283.560	-0.050	0.050	0.220	283.470	-1.400	0.600																			1580073718.0	12.12	22.45
26/01/2020 21:21:59	26012020	260120	212159	283.410	12.224697	-56.301625	283.490	0.130	-0.040	0.250	283.390	-1.500	0.600	1014.50	26.20	26.20	21.10	21.10	51.00	73.00	73.00	399.00	26.20	33.00	5.60	40.00	3.40	2667	3511.00	27.70	27.70	1580073719.0	12.28	22.74
26/01/2020 21:22:00	26012020	260120	212200	283.270	12.224710	-56.301682	283.320	0.270	-0.110	0.250	283.230	-1.500	0.600																			1580073720.0	12.26	22.71
26/01/2020 21:22:01	26012020	260120	212201	283.040	12.224722	-56.301737	283.100	0.360	-0.140	0.230	283.000	-1.600	0.600																			1580073721.0	12.15	22.50
26/01/2020 21:22:02	26012020	260120	212202	282.820	12.224733	-56.301793	282.880	0.410	-0.220	0.190	282.780	-1.700	0.500																			1580073722.0	12.04	22.30
26/01/2020 21:22:03	26012020	260120	212203	282.670	12.224747	-56.301848	282.730	0.410	-0.350	0.050	282.650	-1.800	0.400																			1580073723.0	12.02	22.26
26/01/2020 21:22:04	26012020	260120	212204	282.630	12.224758	-56.301903	282.690	0.300	-0.460	-0.240	282.630	-1.900	0.100																			1580073724.0	12.04	22.30
26/01/2020 21:22:05	26012020	260120	212205	282.680	12.224770	-56.301960	282.750	0.030	-0.480	-0.550	282.700	-1.900	-0.200																			1580073725.0	11.99	22.21
26/01/2020 21:22:06	26012020	260120	212206	282.780	12.224780	-56.302015	282.860	-0.290	-0.470	-0.710	282.810	-1.900	-0.300																			1580073726.0	11.91	22.06
26/01/2020 21:22:07	26012020	260120	212207	282.920	12.224790	-56.302070	283.000	-0.470	-0.540	-0.630	282.950	-2.000	-0.200																			1580073727.0	11.92	22.08
26/01/2020 21:22:08	26012020	260120	212208	283.060	12.224800	-56.302127	283.160	-0.410	-0.640	-0.370	283.090	-2.100	0.000																			1580073728.0	12.10	22.41
26/01/2020 21:22:09	26012020	260120	212209	283.200	12.224812	-56.302183	283.290	-0.170	-0.660	-0.100	283.220	-2.100	0.300																			1580073729.0	12.24	22.67
26/01/2020 21:22:10	26012020	260120	212210	283.310	12.224823	-56.302240	283.420	0.070	-0.550	0.150	283.340	-1.900	0.500																			1580073730.0	12.28	22.74
26/01/2020 21:22:11	26012020	260120	212211	283.430	12.224837	-56.302297	283.530	0.170	-0.290	0.380	283.450	-1.700	0.800																			1580073731.0	12.22	22.63
26/01/2020 21:22:12	26012020	260120	212212	283.520	12.224850	-56.302352	283.620	0.120	0.030	0.510	283.530	-1.400	0.900																			1580073732.0	12.12	22.45
26/01/2020 21:22:13	26012020	260120	212213	283.530	12.224865	-56.302407	283.620	-0.020	0.200	0.420	283.530	-1.200	0.700																			1580073733.0	12.07	22.35
26/01/2020 21:22:14	26012020	260120	212214	283.480	12.224877	-56.302463	283.560	-0.170	0.160	0.100	283.470	-1.300	0.400																			1580073734.0	12.19	22.58
26/01/2020 21:22:15	26012020	260120	212215	283.410	12.224887	-56.302520	283.470	-0.270	0.030	-0.250	283.380	-1.400	0.100																			1580073735.0	12.32	22.82
26/01/2020 21:22:16	26012020	260120	212216	283.270	12.224897	-56.302578	283.310	-0.280	-0.040	-0.410	283.250	-1.500	-0.000																			1580073736.0	12.32	22.82
26/01/2020 21:22:17	26012020	260120	212217	283.100	12.224907	-56.302635	283.140	-0.180	-0.050	-0.240	283.060	-1.500	0.200																			1580073737.0	12.10	22.41
26/01/2020 21:22:18	26012020	260120	212218	282.910	12.224917	-56.302690	282.950	0.040	-0.170	0.100	282.870	-1.600	0.500																			1580073738.0	11.91	22.06
26/01/2020 21:22:19	26012020	260120	212219	282.740	12.224930	-56.302745	282.810	0.330	-0.460	0.400	282.700	-1.900	0.800																			1580073739.0	11.97	22.17
26/01/2020 21:22:20	26012020	260120	212220	282.620	12.224943	-56.302800	282.710	0.590	-0.740	0.560	282.600	-2.200	0.900																			1580073740.0	12.14	22.48
26/01/2020 21:22:21	26012020	260120	212221	282.540	12.224957	-56.302857	282.640	0.660	-0.790	0.590	282.530	-2.200	0.900																			1580073741.0	12.16	22.52
26/01/2020 21:22:22	26012020	260120	212222	282.470	12.224970	-56.302912	282.560	0.490	-0.620	0.480	282.450	-2.000	0.800																			1580073742.0	11.99	22.21
26/01/2020 21:22:23	26012020	260120	212223	282.430	12.224983	-56.302965	282.530	0.110	-0.400	0.240	282.430	-1.800	0.600																			1580073743.0	11.84	21.93
26/01/2020 21:22:24	26012020	260120	212224	282.490	12.224995	-56.303020	282.600	-0.290	-0.260	-0.090	282.530	-1.700	0.200																			1580073744.0	11.89	22.02
26/01/2020 21:22:25	26012020	260120	212225	282.690	12.225005	-56.303077	282.810	-0.550	-0.230	-0.400	282.740	-1.600	-0.100																			1580073745.0	12.08	22.37
26/01/2020 21:22:26	26012020	260120	212226	282.940	12.225013	-56.303133	283.040	-0.610	-0.260	-0.630	282.980	-1.700	-0.300																			1580073746.0	12.27	22.72
26/01/2020 21:22:27	26012020	260120	212227	283.150	12.225023	-56.303192	283.250	-0.480	-0.260	-0.650	283.190	-1.700	-0.300																			1580073747.0	12.39	22.95
26/01/2020 21:22:28	26012020	260120	212228	283.300	12.225033	-56.303250	283.380	-0.230	-0.190	-0.360	283.310	-1.600	0.000																			1580073748.0	12.37	22.91
26/01/2020 21:22:29	26012020	260120	212229	283.340	12.225045	-56.303307	283.410	0.050	-0.110	0.070	283.340	-1.500	0.500																			1580073749.0	12.28	22.74
26/01/2020 21:22:30	26012020	260120	212230	283.280	12.225058	-56.303362	283.330	0.260	-0.070	0.460	283.260	-1.500	0.900																			1580073750.0	12.24	22.67
26/01/2020 21:22:31	26012020	260120	212231	283.100	12.225072	-56.303418	283.140	0.330	-0.070	0.690	283.050	-1.500	1.100																			1580073751.0	12.20	22.59
26/01/2020 21:22:32	26012020	260120	212232	282.830	12.225085	-56.303475	282.870	0.250	-0.100	0.640	282.780	-1.500	1.000																			1580073752.0	12.14	22.48
26/01/2020 21:22:33	26012020	260120	212233	282.570	12.225097	-56.303530	282.620	0.050	-0.140	0.360	282.520	-1.600	0.700																			1580073753.0	12.05	22.32
26/01/2020 21:22:34	26012020	260120	212234	282.380	12.225107	-56.303585	282.460	-0.160	-0.240	-0.030	282.360	-1.700	0.300																			1580073754.0	11.96	22.15
26/01/2020 21:22:35	26012020	260120	212235	282.280	12.225117	-56.303642	282.360	-0.260	-0.410	-0.330	282.260	-1.800	0.000																			1580073755.0	11.98	22.19
26/01/2020 21:22:36	26012020	260120	212236	282.250	12.225125	-56.303698	282.340	-0.170	-0.570	-0.390	282.250	-2.000	-0.000																			1580073756.0	12.07	22.35
26/01/2020 21:22:37	26012020	260120	212237	282.300	12.225137	-56.303753	282.410	0.040	-0.620	-0.230	282.320	-2.000	0.100																			1580073757.0	12.13	22.46
26/01/2020 21:22:38	26012020	260120	212238	282.390	12.225148	-56.303810	282.490	0.200	-0.470	0.030	282.410	-1.900	0.400																			1580073758.0	12.12	22.45
26/01/2020 21:22:39	26012020	260120	212239	282.470	12.225162	-56.303865	282.570	0.280	-0.260	0.330	282.480	-1.700	0.700																			1580073759.0	11.98	22.19
26/01/2020 21:22:40	26012020	260120	212240	282.540	12.225175	-56.303920	282.650	0.330	-0.180	0.510	282.550	-1.600	0.900																			1580073760.0	11.97	22.17
26/01/2020 21:22:41	26012020	260120	212241	282.630	12.225187	-56.303977	282.740	0.400	-0.280	0.410	282.650	-1.700	0.700																			1580073761.0	12.15	22.50
26/01/2020 21:22:42	26012020	260120	212242	282.750	12.225200	-56.304033	282.850	0.380	-0.430	0.100	282.770	-1.900	0.400																			1580073762.0	12.36	22.89
26/01/2020 21:22:43	26012020	260120	212243	282.880	12.225212	-56.304090	282.970	0.140	-0.420	-0.220	282.910	-1.800	0.100																			1580073763.0	12.42	23.00
26/01/2020 21:22:44	26012020	260120	212244	283.040	12.225222	-56.304147	283.120	-0.310	-0.150	-0.470	283.070	-1.500	-0.100																			1580073764.0	12.21	22.61
26/01/2020 21:22:45	26012020	260120	212245	283.200	12.225232	-56.304203	283.270	-0.760	0.130	-0.610	283.220	-1.300	-0.300																			1580073765.0	11.91	22.06
26/01/2020 21:22:46	26012020	260120	212246	283.270	12.225240	-56.304258	283.330	-0.920	0.140	-0.560	283.270	-1.300	-0.200																			1580073766.0	11.86	21.96
26/01/2020 21:22:47	26012020	260120	212247	283.200	12.225248	-56.304315	283.240	-0.690	-0.110	-0.250	283.170	-1.600	0.200																			1580073767.0	12.11	22.43
26/01/2020 21:22:48	26012020	260120	212248	283.000	12.225258	-56.304372	283.010	-0.210	-0.390	0.210	282.940	-1.800	0.600																			1580073768.0	12.33	22.84
26/01/2020 21:22:49	26012020	260120	212249	282.700	12.225270	-56.304428	282.730	0.280	-0.520	0.630	282.640	-1.900	1.000																			1580073769.0	12.32	22.82
26/01/2020 21:22:50	26012020	260120	212250	282.420	12.225283	-56.304485	282.450	0.580	-0.530	0.860	282.360	-1.900	1.200																			1580073770.0	12.12	22.45
26/01/2020 21:22:51	26012020	260120	212251	282.190	12.225297	-56.304540	282.240	0.670	-0.520	0.800	282.150	-1.900	1.100																			1580073771.0	12.02	22.26
26/01/2020 21:22:52	26012020	260120	212252	282.080	12.225310	-56.304595	282.150	0.610	-0.490	0.540	282.070	-1.900	0.900																			1580073772.0	12.07	22.35
26/01/2020 21:22:53	26012020	260120	212253	282.110	12.225323	-56.304652	282.190	0.420	-0.390	0.180	282.130	-1.800	0.500																			1580073773.0	12.11	22.43
26/01/2020 21:22:54	26012020	260120	212254	282.250	12.225335	-56.304707	282.350	0.080	-0.190	-0.200	282.280	-1.600	0.100																			1580073774.0	12.07	22.35
26/01/2020 21:22:55	26012020	260120	212255	282.450	12.225345	-56.304763	282.550	-0.320	-0.020	-0.500	282.500	-1.400	-0.200																			1580073775.0	11.97	22.17
26/01/2020 21:22:56	26012020	260120	212256	282.670	12.225353	-56.304818	282.780	-0.610	-0.020	-0.590	282.710	-1.400	-0.200																			1580073776.0	12.00	22.22
26/01/2020 21:22:57	26012020	260120	212257	282.870	12.225363	-56.304875	282.990	-0.610	-0.190	-0.440	282.910	-1.600	-0.000																			1580073777.0	12.15	22.50
26/01/2020 21:22:58	26012020	260120	212258	283.030	12.225373	-56.304933	283.140	-0.310	-0.390	-0.170	283.050	-1.800	0.200																			1580073778.0	12.31	22.80
26/01/2020 21:22:59	26012020	260120	212259	283.140	12.225383	-56.304990	283.250	0.130	-0.450	0.100	283.150	-1.900	0.500	1014.50	26.20	26.20	21.00	21.00	48.00	73.00	73.00	395.00	26.10	32.00	5.80	36.00	3.30	2549	3543.00	27.70	27.60	1580073779.0	12.34	22.85
26/01/2020 21:23:00	26012020	260120	212300	283.160	12.225395	-56.305047	283.250	0.430	-0.320	0.380	283.150	-1.700	0.800																			1580073780.0	12.20	22.59
26/01/2020 21:23:01	26012020	260120	212301	283.010	12.225408	-56.305102	283.070	0.410	-0.080	0.540	282.960	-1.500	0.900																			1580073781.0	11.99	22.21
26/01/2020 21:23:02	26012020	260120	212302	282.770	12.225422	-56.305157	282.830	0.160	0.050	0.410	282.730	-1.400	0.700																			1580073782.0	11.82	21.89
26/01/2020 21:23:03	26012020	260120	212303	282.630	12.225433	-56.305212	282.700	-0.110	-0.070	-0.020	282.610	-1.500	0.300																			1580073783.0	11.88	22.00
26/01/2020 21:23:04	26012020	260120	212304	282.610	12.225443	-56.305267	282.680	-0.230	-0.380	-0.500	282.610	-1.800	-0.200																			1580073784.0	12.09	22.39
26/01/2020 21:23:05	26012020	260120	212305	282.690	12.225452	-56.305325	282.790	-0.160	-0.740	-0.800	282.720	-2.200	-0.500																			1580073785.0	12.33	22.84
26/01/2020 21:23:06	26012020	260120	212306	282.860	12.225460	-56.305383	282.960	0.010	-0.880	-0.720	282.890	-2.300	-0.300																			1580073786.0	12.40	22.96
26/01/2020 21:23:07	26012020	260120	212307	282.990	12.225472	-56.305440	283.080	0.170	-0.700	-0.300	282.990	-2.100	0.100																			1580073787.0	12.26	22.71
26/01/2020 21:23:08	26012020	260120	212308	282.950	12.225485	-56.305495	283.030	0.210	-0.290	0.200	282.920	-1.700	0.600																			1580073788.0	12.00	22.22
26/01/2020 21:23:09	26012020	260120	212309	282.760	12.225498	-56.305550	282.830	0.110	0.070	0.530	282.720	-1.300	0.900																			1580073789.0	11.85	21.95
26/01/2020 21:23:10	26012020	260120	212310	282.600	12.225512	-56.305603	282.700	-0.040	0.190	0.550	282.590	-1.200	0.900																			1580073790.0	11.90	22.04
26/01/2020 21:23:11	26012020	260120	212311	282.570	12.225523	-56.305660	282.660	-0.130	0.040	0.340	282.580	-1.400	0.700																			1580073791.0	12.07	22.35
26/01/2020 21:23:12	26012020	260120	212312	282.650	12.225535	-56.305717	282.740	-0.120	-0.230	0.070	282.670	-1.700	0.400																			1580073792.0	12.29	22.76
26/01/2020 21:23:13	26012020	260120	212313	282.800	12.225545	-56.305773	282.910	-0.070	-0.450	-0.150	282.840	-1.900	0.200																			1580073793.0	12.38	22.93
26/01/2020 21:23:14	26012020	260120	212314	283.010	12.225557	-56.305832	283.120	-0.050	-0.490	-0.270	283.050	-1.900	0.100																			1580073794.0	12.31	22.80
26/01/2020 21:23:15	26012020	260120	212315	283.200	12.225567	-56.305888	283.300	-0.070	-0.370	-0.210	283.230	-1.800	0.200																			1580073795.0	12.14	22.48
26/01/2020 21:23:16	26012020	260120	212316	283.290	12.225578	-56.305943	283.380	-0.070	-0.170	0.060	283.290	-1.600	0.500																			1580073796.0	12.00	22.22
26/01/2020 21:23:17	26012020	260120	212317	283.230	12.225590	-56.305998	283.300	-0.010	0.020	0.340	283.210	-1.400	0.700																			1580073797.0	11.92	22.08
26/01/2020 21:23:18	26012020	260120	212318	283.060	12.225602	-56.306053	283.120	0.100	0.050	0.490	283.020	-1.400	0.900																			1580073798.0	11.89	22.02
26/01/2020 21:23:19	26012020	260120	212319	282.870	12.225613	-56.306108	282.930	0.220	-0.140	0.450	282.840	-1.600	0.800																			1580073799.0	11.99	22.21
26/01/2020 21:23:20	26012020	260120	212320	282.760	12.225625	-56.306165	282.850	0.290	-0.500	0.310	282.760	-2.000	0.600																			1580073800.0	12.15	22.50
26/01/2020 21:23:21	26012020	260120	212321	282.770	12.225635	-56.306222	282.860	0.260	-0.820	0.090	282.780	-2.300	0.400																			1580073801.0	12.30	22.78
26/01/2020 21:23:22	26012020	260120	212322	282.830	12.225647	-56.306278	282.910	0.120	-0.890	-0.160	282.840	-2.300	0.200																			1580073802.0	12.29	22.76
26/01/2020 21:23:23	26012020	260120	212323	282.880	12.225658	-56.306335	282.960	-0.110	-0.660	-0.360	282.890	-2.000	-0.000																			1580073803.0	12.12	22.45
26/01/2020 21:23:24	26012020	260120	212324	282.970	12.225668	-56.306390	283.060	-0.320	-0.340	-0.430	282.990	-1.700	-0.100																			1580073804.0	11.93	22.09
26/01/2020 21:23:25	26012020	260120	212325	283.130	12.225678	-56.306447	283.250	-0.390	-0.140	-0.360	283.160	-1.500	0.000																			1580073805.0	11.94	22.11
26/01/2020 21:23:26	26012020	260120	212326	283.300	12.225690	-56.306502	283.410	-0.300	-0.070	-0.180	283.320	-1.500	0.200																			1580073806.0	12.16	22.52
26/01/2020 21:23:27	26012020	260120	212327	283.390	12.225702	-56.306560	283.500	-0.140	0.030	0.070	283.410	-1.400	0.500																			1580073807.0	12.31	22.80
26/01/2020 21:23:28	26012020	260120	212328	283.410	12.225713	-56.306617	283.510	-0.030	0.140	0.280	283.410	-1.300	0.700																			1580073808.0	12.23	22.65
26/01/2020 21:23:29	26012020	260120	212329	283.370	12.225725	-56.306672	283.480	0.050	0.190	0.380	283.360	-1.200	0.700																			1580073809.0	12.10	22.41
26/01/2020 21:23:30	26012020	260120	212330	283.300	12.225737	-56.306728	283.380	0.120	0.100	0.370	283.280	-1.300	0.700																			1580073810.0	12.07	22.35
26/01/2020 21:23:31	26012020	260120	212331	283.170	12.225750	-56.306783	283.240	0.230	-0.130	0.260	283.150	-1.600	0.600																			1580073811.0	12.08	22.37
26/01/2020 21:23:32	26012020	260120	212332	283.020	12.225762	-56.306840	283.080	0.300	-0.420	0.090	282.990	-1.900	0.400																			1580073812.0	12.15	22.50
26/01/2020 21:23:33	26012020	260120	212333	282.850	12.225773	-56.306895	282.900	0.280	-0.680	-0.110	282.820	-2.100	0.200																			1580073813.0	12.18	22.56
26/01/2020 21:23:34	26012020	260120	212334	282.720	12.225785	-56.306952	282.790	0.160	-0.840	-0.310	282.710	-2.300	0.000																			1580073814.0	12.15	22.50
26/01/2020 21:23:35	26012020	260120	212335	282.720	12.225797	-56.307008	282.820	0.020	-0.860	-0.480	282.750	-2.300	-0.100																			1580073815.0	12.11	22.43
26/01/2020 21:23:36	26012020	260120	212336	282.880	12.225807	-56.307065	283.000	-0.060	-0.760	-0.590	282.930	-2.200	-0.200																			1580073816.0	12.11	22.43
26/01/2020 21:23:37	26012020	260120	212337	283.140	12.225817	-56.307122	283.250	-0.090	-0.540	-0.550	283.190	-1.900	-0.200																			1580073817.0	12.11	22.43
26/01/2020 21:23:38	26012020	260120	212338	283.380	12.225827	-56.307177	283.480	-0.160	-0.190	-0.300	283.430	-1.600	0.100																			1580073818.0	12.10	22.41
26/01/2020 21:23:39	26012020	260120	212339	283.560	12.225840	-56.307232	283.670	-0.280	0.150	0.020	283.590	-1.200	0.400																			1580073819.0	12.00	22.22
26/01/2020 21:23:40	26012020	260120	212340	283.660	12.225852	-56.307288	283.770	-0.360	0.280	0.220	283.680	-1.100	0.600																			1580073820.0	12.00	22.22
26/01/2020 21:23:41	26012020	260120	212341	283.700	12.225865	-56.307343	283.810	-0.280	0.090	0.250	283.710	-1.400	0.600																			1580073821.0	12.19	22.58
26/01/2020 21:23:42	26012020	260120	212342	283.700	12.225877	-56.307402	283.790	-0.000	-0.260	0.180	283.700	-1.700	0.500																			1580073822.0	12.48	23.11
26/01/2020 21:23:43	26012020	260120	212343	283.640	12.225888	-56.307460	283.720	0.310	-0.440	0.150	283.610	-1.900	0.500																			1580073823.0	12.60	23.34
26/01/2020 21:23:44	26012020	260120	212344	283.470	12.225900	-56.307517	283.540	0.390	-0.250	0.170	283.430	-1.600	0.500																			1580073824.0	12.36	22.89
26/01/2020 21:23:45	26012020	260120	212345	283.220	12.225913	-56.307572	283.280	0.160	0.110	0.160	283.170	-1.300	0.500																			1580073825.0	11.88	22.00
26/01/2020 21:23:46	26012020	260120	212346	282.970	12.225925	-56.307625	283.030	-0.160	0.210	0.030	282.930	-1.200	0.400																			1580073826.0	11.58	21.45
26/01/2020 21:23:47	26012020	260120	212347	282.830	12.225935	-56.307680	282.920	-0.280	-0.140	-0.200	282.830	-1.600	0.100																			1580073827.0	11.77	21.80
26/01/2020 21:23:48	26012020	260120	212348	282.880	12.225945	-56.307737	282.990	-0.100	-0.690	-0.400	282.910	-2.200	-0.000																			1580073828.0	12.20	22.59
26/01/2020 21:23:49	26012020	260120	212349	283.030	12.225955	-56.307795	283.150	0.230	-1.040	-0.360	283.060	-2.500	0.000																			1580073829.0	12.44	23.04
26/01/2020 21:23:50	26012020	260120	212350	283.200	12.225967	-56.307852	283.330	0.460	-0.970	-0.030	283.230	-2.400	0.400																			1580073830.0	12.30	22.78
26/01/2020 21:23:51	26012020	260120	212351	283.350	12.225982	-56.307907	283.480	0.440	-0.610	0.350	283.370	-2.000	0.700																			1580073831.0	11.97	22.17
26/01/2020 21:23:52	26012020	260120	212352	283.470	12.225995	-56.307960	283.590	0.240	-0.240	0.550	283.490	-1.600	0.900																			1580073832.0	11.80	21.85
26/01/2020 21:23:53	26012020	260120	212353	283.590	12.226010	-56.308015	283.720	0.010	-0.110	0.400	283.610	-1.500	0.700																			1580073833.0	11.92	22.08
26/01/2020 21:23:54	26012020	260120	212354	283.710	12.226022	-56.308072	283.840	-0.140	-0.220	-0.010	283.740	-1.700	0.300																			1580073834.0	12.26	22.71
26/01/2020 21:23:55	26012020	260120	212355	283.820	12.226032	-56.308130	283.940	-0.270	-0.270	-0.380	283.840	-1.700	-0.000																			1580073835.0	12.58	23.30
26/01/2020 21:23:56	26012020	260120	212356	283.860	12.226042	-56.308188	283.960	-0.450	0.020	-0.460	283.860	-1.300	-0.100																			1580073836.0	12.50	23.15
26/01/2020 21:23:57	26012020	260120	212357	283.760	12.226052	-56.308243	283.850	-0.670	0.490	-0.230	283.730	-0.900	0.200																			1580073837.0	12.00	22.22
26/01/2020 21:23:58	26012020	260120	212358	283.540	12.226063	-56.308298	283.620	-0.720	0.590	0.020	283.490	-0.900	0.400																			1580073838.0	11.64	21.56
26/01/2020 21:23:59	26012020	260120	212359	283.320	12.226073	-56.308353	283.410	-0.440	0.070	0.100	283.290	-1.400	0.500	1014.50	26.20	26.20	20.90	20.90	46.00	72.00	72.00	393.00	26.10	34.00	5.30	46.00	3.50	2426	3538.00	27.70	27.60	1580073839.0	11.89	22.02
26/01/2020 21:24:00	26012020	260120	212400	283.220	12.226083	-56.308410	283.330	0.110	-0.680	0.080	283.210	-2.200	0.400																			1580073840.0	12.44	23.04
26/01/2020 21:24:01	26012020	260120	212401	283.220	12.226095	-56.308468	283.340	0.670	-1.080	0.120	283.230	-2.500	0.500																			1580073841.0	12.62	23.37
26/01/2020 21:24:02	26012020	260120	212402	283.250	12.226108	-56.308525	283.360	0.980	-0.900	0.320	283.260	-2.300	0.700																			1580073842.0	12.26	22.71
26/01/2020 21:24:03	26012020	260120	212403	283.250	12.226123	-56.308578	283.350	0.950	-0.410	0.550	283.230	-1.800	0.900																			1580073843.0	11.71	21.69
26/01/2020 21:24:04	26012020	260120	212404	283.190	12.226138	-56.308632	283.300	0.620	-0.060	0.620	283.180	-1.500	1.000																			1580073844.0	11.53	21.35
26/01/2020 21:24:05	26012020	260120	212405	283.150	12.226153	-56.308685	283.260	0.120	-0.030	0.400	283.160	-1.500	0.700																			1580073845.0	11.73	21.72
26/01/2020 21:24:06	26012020	260120	212406	283.210	12.226165	-56.308740	283.330	-0.380	-0.220	-0.060	283.230	-1.700	0.200																			1580073846.0	12.05	22.32
26/01/2020 21:24:07	26012020	260120	212407	283.400	12.226173	-56.308798	283.540	-0.690	-0.460	-0.570	283.450	-1.900	-0.300																			1580073847.0	12.28	22.74
26/01/2020 21:24:08	26012020	260120	212408	283.740	12.226182	-56.308855	283.900	-0.700	-0.640	-0.940	283.820	-2.100	-0.600																			1580073848.0	12.38	22.93
26/01/2020 21:24:09	26012020	260120	212409	284.150	12.226190	-56.308913	284.290	-0.460	-0.670	-0.920	284.210	-2.100	-0.500																			1580073849.0	12.42	23.00
26/01/2020 21:24:10	26012020	260120	212410	284.400	12.226202	-56.308972	284.520	-0.150	-0.470	-0.480	284.420	-1.900	-0.100																			1580073850.0	12.33	22.84
26/01/2020 21:24:11	26012020	260120	212411	284.390	12.226215	-56.309027	284.460	0.100	-0.150	0.100	284.360	-1.500	0.500																			1580073851.0	12.16	22.52
26/01/2020 21:24:12	26012020	260120	212412	284.160	12.226230	-56.309082	284.220	0.210	0.100	0.500	284.100	-1.300	0.900																			1580073852.0	12.05	22.32
26/01/2020 21:24:13	26012020	260120	212413	283.850	12.226245	-56.309137	283.920	0.180	0.140	0.510	283.780	-1.300	0.800																			1580073853.0	12.10	22.41
26/01/2020 21:24:14	26012020	260120	212414	283.530	12.226258	-56.309193	283.610	0.050	0.070	0.190	283.470	-1.400	0.500																			1580073854.0	12.20	22.59
26/01/2020 21:24:15	26012020	260120	212415	283.270	12.226268	-56.309250	283.340	-0.170	0.050	-0.260	283.220	-1.400	0.100																			1580073855.0	12.15	22.50
26/01/2020 21:24:16	26012020	260120	212416	283.100	12.226278	-56.309305	283.200	-0.350	0.040	-0.570	283.090	-1.400	-0.200																			1580073856.0	11.92	22.08
26/01/2020 21:24:17	26012020	260120	212417	283.050	12.226287	-56.309360	283.170	-0.320	-0.160	-0.570	283.060	-1.600	-0.200																			1580073857.0	11.78	21.82
26/01/2020 21:24:18	26012020	260120	212418	283.120	12.226297	-56.309415	283.250	0.020	-0.560	-0.300	283.150	-2.000	0.100																			1580073858.0	11.91	22.06
26/01/2020 21:24:19	26012020	260120	212419	283.270	12.226308	-56.309472	283.400	0.530	-0.930	0.080	283.300	-2.400	0.500																			1580073859.0	12.17	22.54
26/01/2020 21:24:20	26012020	260120	212420	283.380	12.226323	-56.309527	283.490	0.890	-0.940	0.520	283.380	-2.300	0.900																			1580073860.0	12.26	22.71
26/01/2020 21:24:21	26012020	260120	212421	283.350	12.226340	-56.309582	283.450	0.810	-0.570	0.850	283.330	-1.900	1.200																			1580073861.0	12.03	22.28
26/01/2020 21:24:22	26012020	260120	212422	283.250	12.226355	-56.309635	283.350	0.370	-0.190	0.800	283.240	-1.600	1.100																			1580073862.0	11.76	21.78
26/01/2020 21:24:23	26012020	260120	212423	283.230	12.226368	-56.309690	283.340	-0.100	-0.110	0.410	283.230	-1.500	0.700																			1580073863.0	11.81	21.87
26/01/2020 21:24:24	26012020	260120	212424	283.310	12.226378	-56.309747	283.430	-0.340	-0.290	-0.070	283.330	-1.700	0.200																			1580073864.0	12.24	22.67
26/01/2020 21:24:25	26012020	260120	212425	283.410	12.226388	-56.309805	283.520	-0.400	-0.380	-0.380	283.420	-1.800	-0.000																			1580073865.0	12.57	23.28
26/01/2020 21:24:26	26012020	260120	212426	283.420	12.226398	-56.309863	283.520	-0.470	-0.170	-0.390	283.410	-1.500	-0.000																			1580073866.0	12.46	23.08
26/01/2020 21:24:27	26012020	260120	212427	283.360	12.226408	-56.309918	283.450	-0.650	0.170	-0.280	283.340	-1.200	0.100																			1580073867.0	12.05	22.32
26/01/2020 21:24:28	26012020	260120	212428	283.280	12.226420	-56.309973	283.380	-0.760	0.240	-0.240	283.270	-1.200	0.100																			1580073868.0	11.76	21.78
26/01/2020 21:24:29	26012020	260120	212429	283.270	12.226428	-56.310030	283.390	-0.570	-0.150	-0.280	283.270	-1.600	0.100																			1580073869.0	11.95	22.13
26/01/2020 21:24:30	26012020	260120	212430	283.330	12.226438	-56.310087	283.460	-0.070	-0.680	-0.240	283.340	-2.100	0.100																			1580073870.0	12.40	22.96
26/01/2020 21:24:31	26012020	260120	212431	283.380	12.226450	-56.310145	283.490	0.450	-0.820	-0.020	283.380	-2.200	0.400																			1580073871.0	12.52	23.19
26/01/2020 21:24:32	26012020	260120	212432	283.310	12.226463	-56.310202	283.400	0.700	-0.480	0.280	283.280	-1.800	0.700																			1580073872.0	12.15	22.50
26/01/2020 21:24:33	26012020	260120	212433	283.110	12.226477	-56.310255	283.170	0.610	0.020	0.490	283.060	-1.400	0.900																			1580073873.0	11.69	21.65
26/01/2020 21:24:34	26012020	260120	212434	282.870	12.226492	-56.310307	282.950	0.370	0.260	0.460	282.840	-1.200	0.800																			1580073874.0	11.54	21.37
26/01/2020 21:24:35	26012020	260120	212435	282.750	12.226503	-56.310362	282.860	0.170	0.140	0.180	282.750	-1.300	0.500																			1580073875.0	11.77	21.80
26/01/2020 21:24:36	26012020	260120	212436	282.760	12.226515	-56.310417	282.860	0.100	-0.180	-0.110	282.780	-1.600	0.200																			1580073876.0	12.09	22.39
26/01/2020 21:24:37	26012020	260120	212437	282.830	12.226527	-56.310473	282.930	0.070	-0.450	-0.210	282.850	-1.900	0.200																			1580073877.0	12.25	22.69
26/01/2020 21:24:38	26012020	260120	212438	282.890	12.226538	-56.310530	283.000	-0.020	-0.540	-0.090	282.910	-2.000	0.300																			1580073878.0	12.15	22.50
26/01/2020 21:24:39	26012020	260120	212439	282.950	12.226550	-56.310585	283.060	-0.150	-0.560	0.110	282.950	-2.000	0.500																			1580073879.0	12.00	22.22
26/01/2020 21:24:40	26012020	260120	212440	282.990	12.226563	-56.310642	283.110	-0.230	-0.600	0.230	283.000	-2.000	0.600																			1580073880.0	11.99	22.21
26/01/2020 21:24:41	26012020	260120	212441	283.050	12.226573	-56.310697	283.180	-0.170	-0.650	0.210	283.070	-2.100	0.600																			1580073881.0	12.10	22.41
26/01/2020 21:24:42	26012020	260120	212442	283.170	12.226585	-56.310753	283.300	-0.030	-0.620	0.060	283.200	-2.000	0.400																			1580073882.0	12.24	22.67
26/01/2020 21:24:43	26012020	260120	212443	283.310	12.226597	-56.310810	283.440	0.020	-0.400	-0.110	283.340	-1.800	0.200																			1580073883.0	12.21	22.61
26/01/2020 21:24:44	26012020	260120	212444	283.420	12.226607	-56.310867	283.540	-0.070	-0.160	-0.250	283.440	-1.600	0.100																			1580073884.0	12.06	22.34
26/01/2020 21:24:45	26012020	260120	212445	283.450	12.226618	-56.310922	283.540	-0.230	-0.030	-0.330	283.440	-1.400	0.000																			1580073885.0	12.04	22.30
26/01/2020 21:24:46	26012020	260120	212446	283.340	12.226628	-56.310978	283.410	-0.340	0.000	-0.270	283.310	-1.400	0.100																			1580073886.0	12.15	22.50
26/01/2020 21:24:47	26012020	260120	212447	283.110	12.226638	-56.311035	283.180	-0.340	0.030	0.000	283.060	-1.400	0.400																			1580073887.0	12.18	22.56
26/01/2020 21:24:48	26012020	260120	212448	282.850	12.226650	-56.311092	282.930	-0.250	0.080	0.330	282.810	-1.300	0.700																			1580073888.0	12.11	22.43
26/01/2020 21:24:49	26012020	260120	212449	282.640	12.226662	-56.311147	282.720	-0.080	0.090	0.500	282.600	-1.300	0.900																			1580073889.0	11.99	22.21
26/01/2020 21:24:50	26012020	260120	212450	282.500	12.226673	-56.311202	282.610	0.140	-0.020	0.440	282.490	-1.500	0.800																			1580073890.0	11.94	22.11
26/01/2020 21:24:51	26012020	260120	212451	282.520	12.226687	-56.311257	282.640	0.390	-0.310	0.230	282.540	-1.800	0.600																			1580073891.0	12.03	22.28
26/01/2020 21:24:52	26012020	260120	212452	282.640	12.226698	-56.311313	282.770	0.600	-0.620	0.060	282.670	-2.100	0.400																			1580073892.0	12.21	22.61
26/01/2020 21:24:53	26012020	260120	212453	282.800	12.226710	-56.311370	282.920	0.700	-0.750	0.010	282.830	-2.200	0.400																			1580073893.0	12.27	22.72
26/01/2020 21:24:54	26012020	260120	212454	282.950	12.226723	-56.311427	283.070	0.630	-0.610	0.120	282.970	-2.000	0.500																			1580073894.0	12.13	22.46
26/01/2020 21:24:55	26012020	260120	212455	283.030	12.226737	-56.311480	283.140	0.380	-0.290	0.350	283.040	-1.700	0.700																			1580073895.0	11.89	22.02
26/01/2020 21:24:56	26012020	260120	212456	283.000	12.226750	-56.311535	283.100	-0.010	-0.030	0.490	282.990	-1.400	0.900																			1580073896.0	11.73	21.72
26/01/2020 21:24:57	26012020	260120	212457	282.920	12.226763	-56.311588	283.010	-0.450	-0.060	0.310	282.900	-1.500	0.600																			1580073897.0	11.76	21.78
26/01/2020 21:24:58	26012020	260120	212458	282.870	12.226773	-56.311645	282.990	-0.780	-0.400	-0.130	282.880	-1.900	0.200																			1580073898.0	12.05	22.32
26/01/2020 21:24:59	26012020	260120	212459	282.960	12.226780	-56.311703	283.090	-0.860	-0.830	-0.570	282.990	-2.300	-0.200	1014.50	26.20	26.20	20.90	20.90	46.00	72.00	72.00	392.00	26.10	35.00	5.30	45.00	3.60	2299	3558.00	27.70	27.60	1580073899.0	12.42	23.00
26/01/2020 21:25:00	26012020	260120	212500	283.140	12.226787	-56.311762	283.280	-0.640	-1.050	-0.760	283.170	-2.500	-0.400																			1580073900.0	12.64	23.41
26/01/2020 21:25:01	26012020	260120	212501	283.270	12.226795	-56.311822	283.380	-0.220	-0.800	-0.550	283.280	-2.100	-0.100																			1580073901.0	12.56	23.26
26/01/2020 21:25:02	26012020	260120	212502	283.230	12.226807	-56.311878	283.320	0.170	-0.120	-0.030	283.200	-1.400	0.400																			1580073902.0	12.18	22.56
26/01/2020 21:25:03	26012020	260120	212503	283.040	12.226820	-56.311932	283.130	0.340	0.610	0.530	282.980	-0.700	1.000																			1580073903.0	11.78	21.82
26/01/2020 21:25:04	26012020	260120	212504	282.770	12.226833	-56.311985	282.860	0.260	0.940	0.870	282.710	-0.500	1.200																			1580073904.0	11.66	21.59
26/01/2020 21:25:05	26012020	260120	212505	282.540	12.226848	-56.312038	282.640	0.100	0.650	0.750	282.510	-0.800	1.100																			1580073905.0	11.84	21.93
26/01/2020 21:25:06	26012020	260120	212506	282.450	12.226860	-56.312095	282.570	0.050	-0.110	0.300	282.450	-1.600	0.600																			1580073906.0	12.24	22.67
26/01/2020 21:25:07	26012020	260120	212507	282.520	12.226870	-56.312153	282.640	0.140	-0.850	-0.210	282.550	-2.300	0.100																			1580073907.0	12.57	23.28
26/01/2020 21:25:08	26012020	260120	212508	282.680	12.226880	-56.312212	282.810	0.280	-1.110	-0.450	282.710	-2.500	-0.100																			1580073908.0	12.49	23.13
26/01/2020 21:25:09	26012020	260120	212509	282.830	12.226892	-56.312268	282.970	0.340	-0.920	-0.320	282.860	-2.300	0.100																			1580073909.0	12.07	22.35
26/01/2020 21:25:10	26012020	260120	212510	282.930	12.226903	-56.312322	283.050	0.290	-0.540	-0.030	282.930	-1.900	0.400																			1580073910.0	11.73	21.72
26/01/2020 21:25:11	26012020	260120	212511	282.930	12.226917	-56.312377	283.030	0.160	-0.240	0.230	282.920	-1.600	0.600																			1580073911.0	11.72	21.71
26/01/2020 21:25:12	26012020	260120	212512	282.820	12.226928	-56.312430	282.910	-0.000	-0.090	0.330	282.790	-1.500	0.700																			1580073912.0	11.88	22.00
26/01/2020 21:25:13	26012020	260120	212513	282.640	12.226942	-56.312487	282.710	-0.160	-0.140	0.260	282.600	-1.600	0.600																			1580073913.0	12.06	22.34
26/01/2020 21:25:14	26012020	260120	212514	282.470	12.226952	-56.312543	282.550	-0.290	-0.300	0.100	282.440	-1.700	0.500																			1580073914.0	12.21	22.61
26/01/2020 21:25:15	26012020	260120	212515	282.400	12.226962	-56.312600	282.500	-0.390	-0.460	-0.100	282.410	-1.900	0.200																			1580073915.0	12.30	22.78
26/01/2020 21:25:16	26012020	260120	212516	282.480	12.226972	-56.312658	282.600	-0.420	-0.540	-0.380	282.510	-1.900	-0.000																			1580073916.0	12.28	22.74
26/01/2020 21:25:17	26012020	260120	212517	282.660	12.226980	-56.312715	282.780	-0.350	-0.510	-0.580	282.700	-1.900	-0.200																			1580073917.0	12.23	22.65
26/01/2020 21:25:18	26012020	260120	212518	282.840	12.226990	-56.312772	282.950	-0.170	-0.390	-0.520	282.870	-1.800	-0.100																			1580073918.0	12.20	22.59
26/01/2020 21:25:19	26012020	260120	212519	282.970	12.227000	-56.312828	283.060	0.050	-0.190	-0.150	282.980	-1.600	0.300																			1580073919.0	12.18	22.56
26/01/2020 21:25:20	26012020	260120	212520	283.000	12.227012	-56.312883	283.100	0.200	0.070	0.340	283.000	-1.300	0.800																			1580073920.0	12.14	22.48
26/01/2020 21:25:21	26012020	260120	212521	282.930	12.227027	-56.312940	283.010	0.240	0.330	0.690	282.900	-1.100	1.100																			1580073921.0	12.04	22.30
26/01/2020 21:25:22	26012020	260120	212522	282.720	12.227040	-56.312993	282.780	0.180	0.430	0.760	282.670	-1.000	1.100																			1580073922.0	11.96	22.15
26/01/2020 21:25:23	26012020	260120	212523	282.450	12.227053	-56.313048	282.510	0.120	0.240	0.560	282.410	-1.200	0.900																			1580073923.0	11.96	22.15
26/01/2020 21:25:24	26012020	260120	212524	282.270	12.227063	-56.313105	282.350	0.140	-0.210	0.220	282.250	-1.700	0.600																			1580073924.0	12.11	22.43
26/01/2020 21:25:25	26012020	260120	212525	282.220	12.227073	-56.313162	282.330	0.250	-0.760	-0.060	282.220	-2.200	0.300																			1580073925.0	12.29	22.76
26/01/2020 21:25:26	26012020	260120	212526	282.260	12.227085	-56.313220	282.380	0.360	-1.100	-0.210	282.280	-2.500	0.200																			1580073926.0	12.37	22.91
26/01/2020 21:25:27	26012020	260120	212527	282.370	12.227095	-56.313277	282.500	0.330	-1.060	-0.210	282.410	-2.400	0.200																			1580073927.0	12.22	22.63
26/01/2020 21:25:28	26012020	260120	212528	282.550	12.227107	-56.313332	282.680	0.080	-0.700	-0.140	282.600	-2.000	0.200																			1580073928.0	11.90	22.04
26/01/2020 21:25:29	26012020	260120	212529	282.780	12.227118	-56.313385	282.910	-0.300	-0.310	-0.090	282.830	-1.700	0.300																			1580073929.0	11.68	21.63
26/01/2020 21:25:30	26012020	260120	212530	283.030	12.227128	-56.313440	283.160	-0.580	-0.150	-0.130	283.080	-1.600	0.200																			1580073930.0	11.76	21.78
26/01/2020 21:25:31	26012020	260120	212531	283.290	12.227138	-56.313497	283.430	-0.610	-0.220	-0.260	283.340	-1.600	0.100																			1580073931.0	12.11	22.43
26/01/2020 21:25:32	26012020	260120	212532	283.540	12.227148	-56.313555	283.670	-0.390	-0.330	-0.400	283.580	-1.700	-0.000																			1580073932.0	12.43	23.02
26/01/2020 21:25:33	26012020	260120	212533	283.700	12.227157	-56.313613	283.810	-0.080	-0.300	-0.390	283.710	-1.700	0.000																			1580073933.0	12.51	23.17
26/01/2020 21:25:34	26012020	260120	212534	283.710	12.227168	-56.313670	283.800	0.190	-0.080	-0.190	283.700	-1.400	0.200																			1580073934.0	12.37	22.91
26/01/2020 21:25:35	26012020	260120	212535	283.550	12.227182	-56.313727	283.600	0.320	0.250	0.120	283.490	-1.100	0.500																			1580073935.0	12.13	22.46
26/01/2020 21:25:36	26012020	260120	212536	283.210	12.227195	-56.313782	283.260	0.280	0.470	0.310	283.140	-0.900	0.700																			1580073936.0	11.96	22.15
26/01/2020 21:25:37	26012020	260120	212537	282.840	12.227208	-56.313835	282.900	0.160	0.370	0.220	282.780	-1.100	0.600																			1580073937.0	11.89	22.02
26/01/2020 21:25:38	26012020	260120	212538	282.600	12.227220	-56.313892	282.680	0.100	-0.120	-0.110	282.580	-1.600	0.200																			1580073938.0	12.05	22.32
26/01/2020 21:25:39	26012020	260120	212539	282.590	12.227230	-56.313948	282.690	0.160	-0.780	-0.470	282.610	-2.200	-0.100																			1580073939.0	12.35	22.87
26/01/2020 21:25:40	26012020	260120	212540	282.770	12.227242	-56.314007	282.890	0.190	-1.180	-0.660	282.820	-2.600	-0.300																			1580073940.0	12.48	23.11
26/01/2020 21:25:41	26012020	260120	212541	283.020	12.227253	-56.314063	283.140	0.060	-1.060	-0.620	283.070	-2.400	-0.200																			1580073941.0	12.26	22.71
26/01/2020 21:25:42	26012020	260120	212542	283.270	12.227265	-56.314118	283.400	-0.190	-0.590	-0.420	283.320	-1.900	-0.000																			1580073942.0	11.83	21.91
26/01/2020 21:25:43	26012020	260120	212543	283.450	12.227275	-56.314172	283.560	-0.390	-0.120	-0.140	283.470	-1.500	0.300																			1580073943.0	11.59	21.46
26/01/2020 21:25:44	26012020	260120	212544	283.470	12.227287	-56.314227	283.560	-0.390	0.060	0.180	283.460	-1.400	0.600																			1580073944.0	11.72	21.71
26/01/2020 21:25:45	26012020	260120	212545	283.380	12.227298	-56.314282	283.460	-0.150	-0.100	0.400	283.360	-1.500	0.800																			1580073945.0	12.09	22.39
26/01/2020 21:25:46	26012020	260120	212546	283.260	12.227310	-56.314340	283.350	0.210	-0.360	0.410	283.230	-1.800	0.800																			1580073946.0	12.47	23.09
26/01/2020 21:25:47	26012020	260120	212547	283.150	12.227323	-56.314398	283.240	0.460	-0.390	0.320	283.130	-1.800	0.700																			1580073947.0	12.55	23.24
26/01/2020 21:25:48	26012020	260120	212548	283.050	12.227335	-56.314455	283.150	0.440	-0.120	0.250	283.040	-1.500	0.600																			1580073948.0	12.26	22.71
26/01/2020 21:25:49	26012020	260120	212549	282.990	12.227348	-56.314508	283.090	0.160	0.150	0.140	282.990	-1.200	0.500																			1580073949.0	11.86	21.96
26/01/2020 21:25:50	26012020	260120	212550	282.980	12.227360	-56.314563	283.090	-0.180	0.100	-0.090	282.990	-1.300	0.200																			1580073950.0	11.78	21.82
26/01/2020 21:25:51	26012020	260120	212551	283.060	12.227370	-56.314620	283.160	-0.360	-0.290	-0.380	283.090	-1.800	-0.000																			1580073951.0	12.08	22.37
26/01/2020 21:25:52	26012020	260120	212552	283.210	12.227380	-56.314677	283.310	-0.280	-0.750	-0.590	283.240	-2.200	-0.200																			1580073952.0	12.45	23.06
26/01/2020 21:25:53	26012020	260120	212553	283.340	12.227390	-56.314737	283.440	-0.070	-0.910	-0.540	283.360	-2.300	-0.100																			1580073953.0	12.58	23.30
26/01/2020 21:25:54	26012020	260120	212554	283.370	12.227402	-56.314793	283.450	0.070	-0.610	-0.170	283.360	-2.000	0.300																			1580073954.0	12.35	22.87
26/01/2020 21:25:55	26012020	260120	212555	283.270	12.227413	-56.314848	283.340	0.030	-0.040	0.260	283.230	-1.400	0.700																			1580073955.0	11.91	22.06
26/01/2020 21:25:56	26012020	260120	212556	283.110	12.227427	-56.314902	283.190	-0.100	0.360	0.490	283.080	-1.000	0.900																			1580073956.0	11.62	21.52
26/01/2020 21:25:57	26012020	260120	212557	282.980	12.227440	-56.314955	283.070	-0.120	0.280	0.420	282.970	-1.200	0.800																			1580073957.0	11.73	21.72
26/01/2020 21:25:58	26012020	260120	212558	282.930	12.227452	-56.315012	283.040	0.040	-0.210	0.180	282.930	-1.700	0.500																			1580073958.0	12.16	22.52
26/01/2020 21:25:59	26012020	260120	212559	282.970	12.227463	-56.315070	283.070	0.290	-0.730	-0.050	282.980	-2.200	0.300	1014.60	26.20	26.20	21.00	21.00	43.00	72.00	72.00	393.00	26.10	36.00	5.00	49.00	3.60	2170	3506.00	27.60	27.60	1580073959.0	12.53	23.21
26/01/2020 21:26:00	26012020	260120	212600	283.030	12.227475	-56.315128	283.130	0.390	-0.870	-0.190	283.050	-2.300	0.200																			1580073960.0	12.55	23.24
26/01/2020 21:26:01	26012020	260120	212601	283.110	12.227487	-56.315183	283.220	0.210	-0.560	-0.220	283.130	-1.900	0.100																			1580073961.0	12.17	22.54
26/01/2020 21:26:02	26012020	260120	212602	283.210	12.227498	-56.315238	283.340	-0.120	-0.150	-0.220	283.240	-1.500	0.200																			1580073962.0	11.75	21.76
26/01/2020 21:26:03	26012020	260120	212603	283.340	12.227508	-56.315293	283.470	-0.360	0.050	-0.170	283.360	-1.400	0.200																			1580073963.0	11.68	21.63
26/01/2020 21:26:04	26012020	260120	212604	283.430	12.227520	-56.315348	283.560	-0.320	-0.030	-0.030	283.440	-1.500	0.400																			1580073964.0	11.97	22.17
26/01/2020 21:26:05	26012020	260120	212605	283.470	12.227532	-56.315405	283.590	-0.090	-0.250	0.160	283.470	-1.700	0.600																			1580073965.0	12.29	22.76
26/01/2020 21:26:06	26012020	260120	212606	283.470	12.227543	-56.315462	283.580	0.130	-0.370	0.320	283.460	-1.800	0.700																			1580073966.0	12.43	23.02
26/01/2020 21:26:07	26012020	260120	212607	283.390	12.227555	-56.315518	283.480	0.180	-0.260	0.420	283.360	-1.700	0.800																			1580073967.0	12.27	22.72
26/01/2020 21:26:08	26012020	260120	212608	283.240	12.227568	-56.315575	283.330	0.120	-0.150	0.370	283.210	-1.600	0.700																			1580073968.0	11.98	22.19
26/01/2020 21:26:09	26012020	260120	212609	283.090	12.227580	-56.315630	283.190	0.080	-0.240	0.130	283.060	-1.700	0.500																			1580073969.0	11.93	22.09
26/01/2020 21:26:10	26012020	260120	212610	283.000	12.227590	-56.315687	283.100	0.120	-0.470	-0.150	282.990	-1.900	0.200																			1580073970.0	12.16	22.52
26/01/2020 21:26:11	26012020	260120	212611	283.000	12.227602	-56.315743	283.110	0.160	-0.620	-0.290	283.000	-2.000	0.100																			1580073971.0	12.31	22.80
26/01/2020 21:26:12	26012020	260120	212612	283.030	12.227613	-56.315800	283.130	0.100	-0.540	-0.230	283.030	-1.900	0.200																			1580073972.0	12.24	22.67
26/01/2020 21:26:13	26012020	260120	212613	283.030	12.227625	-56.315855	283.130	-0.070	-0.280	-0.010	283.020	-1.700	0.400																			1580073973.0	12.04	22.30
26/01/2020 21:26:14	26012020	260120	212614	283.010	12.227638	-56.315910	283.120	-0.270	-0.040	0.160	283.010	-1.400	0.500																			1580073974.0	11.86	21.96
26/01/2020 21:26:15	26012020	260120	212615	283.010	12.227650	-56.315965	283.130	-0.360	0.030	0.210	283.020	-1.400	0.600																			1580073975.0	11.90	22.04
26/01/2020 21:26:16	26012020	260120	212616	283.020	12.227660	-56.316020	283.130	-0.300	-0.030	0.180	283.020	-1.400	0.500																			1580073976.0	12.07	22.35
26/01/2020 21:26:17	26012020	260120	212617	283.020	12.227672	-56.316077	283.130	-0.130	-0.140	0.090	283.020	-1.600	0.400																			1580073977.0	12.17	22.54
26/01/2020 21:26:18	26012020	260120	212618	283.020	12.227682	-56.316133	283.140	0.040	-0.260	-0.050	283.030	-1.700	0.300																			1580073978.0	12.18	22.56
26/01/2020 21:26:19	26012020	260120	212619	283.110	12.227693	-56.316190	283.250	0.150	-0.390	-0.210	283.140	-1.800	0.100																			1580073979.0	12.15	22.50
26/01/2020 21:26:20	26012020	260120	212620	283.280	12.227703	-56.316247	283.430	0.240	-0.520	-0.310	283.330	-1.900	0.000																			1580073980.0	12.12	22.45
26/01/2020 21:26:21	26012020	260120	212621	283.490	12.227715	-56.316303	283.640	0.350	-0.690	-0.360	283.540	-2.100	0.000																			1580073981.0	12.18	22.56
26/01/2020 21:26:22	26012020	260120	212622	283.700	12.227727	-56.316360	283.830	0.470	-0.780	-0.330	283.720	-2.200	0.000																			1580073982.0	12.33	22.84
26/01/2020 21:26:23	26012020	260120	212623	283.780	12.227740	-56.316417	283.870	0.470	-0.560	-0.150	283.770	-1.900	0.300																			1580073983.0	12.37	22.91
26/01/2020 21:26:24	26012020	260120	212624	283.610	12.227753	-56.316473	283.680	0.210	0.020	0.220	283.550	-1.300	0.600																			1580073984.0	12.14	22.48
26/01/2020 21:26:25	26012020	260120	212625	283.230	12.227767	-56.316527	283.280	-0.310	0.650	0.470	283.140	-0.700	0.800																			1580073985.0	11.72	21.71
26/01/2020 21:26:26	26012020	260120	212626	282.800	12.227778	-56.316580	282.840	-0.820	0.810	0.350	282.730	-0.600	0.700																			1580073986.0	11.49	21.28
26/01/2020 21:26:27	26012020	260120	212627	282.540	12.227788	-56.316635	282.620	-0.960	0.180	-0.110	282.530	-1.400	0.200																			1580073987.0	11.81	21.87
26/01/2020 21:26:28	26012020	260120	212628	282.580	12.227795	-56.316693	282.710	-0.510	-0.870	-0.580	282.630	-2.400	-0.200																			1580073988.0	12.53	23.21
26/01/2020 21:26:29	26012020	260120	212629	282.850	12.227803	-56.316753	283.000	0.230	-1.540	-0.680	282.920	-3.000	-0.300																			1580073989.0	12.95	23.98
26/01/2020 21:26:30	26012020	260120	212630	283.200	12.227815	-56.316812	283.350	0.790	-1.380	-0.340	283.260	-2.700	0.100																			1580073990.0	12.60	23.34
26/01/2020 21:26:31	26012020	260120	212631	283.490	12.227830	-56.316867	283.650	0.860	-0.660	0.140	283.530	-2.000	0.500																			1580073991.0	11.93	22.09
26/01/2020 21:26:32	26012020	260120	212632	283.630	12.227847	-56.316918	283.760	0.510	0.080	0.450	283.630	-1.300	0.800																			1580073992.0	11.55	21.39
26/01/2020 21:26:33	26012020	260120	212633	283.560	12.227860	-56.316972	283.670	-0.000	0.490	0.420	283.530	-0.900	0.800																			1580073993.0	11.64	21.56
26/01/2020 21:26:34	26012020	260120	212634	283.360	12.227872	-56.317027	283.440	-0.390	0.510	0.160	283.310	-0.900	0.500																			1580073994.0	11.96	22.15
26/01/2020 21:26:35	26012020	260120	212635	283.100	12.227882	-56.317083	283.180	-0.500	0.230	-0.130	283.060	-1.200	0.200																			1580073995.0	12.26	22.71
26/01/2020 21:26:36	26012020	260120	212636	282.900	12.227890	-56.317142	282.980	-0.380	-0.170	-0.340	282.870	-1.600	0.000																			1580073996.0	12.43	23.02
26/01/2020 21:26:37	26012020	260120	212637	282.770	12.227900	-56.317200	282.860	-0.180	-0.490	-0.380	282.750	-1.900	0.000																			1580073997.0	12.43	23.02
26/01/2020 21:26:38	26012020	260120	212638	282.710	12.227910	-56.317257	282.810	0.000	-0.630	-0.180	282.710	-2.000	0.200																			1580073998.0	12.28	22.74
26/01/2020 21:26:39	26012020	260120	212639	282.750	12.227922	-56.317313	282.870	0.140	-0.600	0.120	282.770	-2.000	0.500																			1580073999.0	12.05	22.32
26/01/2020 21:26:40	26012020	260120	212640	282.850	12.227935	-56.317368	282.980	0.260	-0.490	0.380	282.870	-1.900	0.800																			1580074000.0	11.93	22.09
26/01/2020 21:26:41	26012020	260120	212641	282.940	12.227947	-56.317423	283.060	0.350	-0.370	0.540	282.950	-1.800	0.900																			1580074001.0	11.92	22.08
26/01/2020 21:26:42	26012020	260120	212642	282.950	12.227960	-56.317478	283.060	0.330	-0.290	0.560	282.950	-1.700	0.900																			1580074002.0	11.98	22.19
26/01/2020 21:26:43	26012020	260120	212643	282.940	12.227973	-56.317533	283.050	0.200	-0.280	0.380	282.940	-1.700	0.700																			1580074003.0	12.03	22.28
26/01/2020 21:26:44	26012020	260120	212644	282.980	12.227985	-56.317590	283.090	0.020	-0.340	0.090	282.990	-1.700	0.400																			1580074004.0	12.11	22.43
26/01/2020 21:26:45	26012020	260120	212645	283.070	12.227995	-56.317647	283.180	-0.140	-0.370	-0.180	283.090	-1.800	0.200																			1580074005.0	12.22	22.63
26/01/2020 21:26:46	26012020	260120	212646	283.160	12.228007	-56.317703	283.270	-0.290	-0.280	-0.310	283.170	-1.700	0.100																			1580074006.0	12.23	22.65
26/01/2020 21:26:47	26012020	260120	212647	283.170	12.228017	-56.317758	283.260	-0.400	-0.120	-0.290	283.160	-1.500	0.100																			1580074007.0	12.11	22.43
26/01/2020 21:26:48	26012020	260120	212648	283.100	12.228027	-56.317815	283.170	-0.410	-0.050	-0.120	283.080	-1.500	0.300																			1580074008.0	12.02	22.26
26/01/2020 21:26:49	26012020	260120	212649	283.030	12.228038	-56.317872	283.130	-0.210	-0.130	0.120	283.020	-1.500	0.500																			1580074009.0	12.12	22.45
26/01/2020 21:26:50	26012020	260120	212650	283.030	12.228050	-56.317928	283.140	0.130	-0.260	0.330	283.030	-1.700	0.700																			1580074010.0	12.23	22.65
26/01/2020 21:26:51	26012020	260120	212651	283.060	12.228062	-56.317985	283.180	0.430	-0.330	0.410	283.080	-1.700	0.800																			1580074011.0	12.25	22.69
26/01/2020 21:26:52	26012020	260120	212652	283.120	12.228075	-56.318040	283.230	0.500	-0.310	0.340	283.130	-1.700	0.700																			1580074012.0	12.14	22.48
26/01/2020 21:26:53	26012020	260120	212653	283.180	12.228087	-56.318095	283.280	0.310	-0.280	0.120	283.190	-1.700	0.500																			1580074013.0	11.98	22.19
26/01/2020 21:26:54	26012020	260120	212654	283.220	12.228098	-56.318150	283.330	0.010	-0.290	-0.170	283.230	-1.700	0.200																			1580074014.0	11.94	22.11
26/01/2020 21:26:55	26012020	260120	212655	283.250	12.228108	-56.318207	283.350	-0.220	-0.360	-0.400	283.260	-1.800	-0.000																			1580074015.0	12.02	22.26
26/01/2020 21:26:56	26012020	260120	212656	283.270	12.228118	-56.318263	283.390	-0.270	-0.430	-0.450	283.280	-1.800	-0.100																			1580074016.0	12.11	22.43
26/01/2020 21:26:57	26012020	260120	212657	283.300	12.228128	-56.318320	283.410	-0.200	-0.400	-0.300	283.300	-1.800	0.100																			1580074017.0	12.15	22.50
26/01/2020 21:26:58	26012020	260120	212658	283.300	12.228140	-56.318375	283.420	-0.100	-0.230	-0.010	283.300	-1.600	0.400																			1580074018.0	12.07	22.35
26/01/2020 21:26:59	26012020	260120	212659	283.270	12.228152	-56.318430	283.390	-0.030	-0.090	0.220	283.260	-1.500	0.600	1014.60	26.30	26.20	21.20	21.20	42.00	73.00	73.00	395.00	26.10	36.00	5.60	40.00	3.70	2046	3626.00	27.60	27.60	1580074019.0	11.94	22.11
26/01/2020 21:27:00	26012020	260120	212700	283.230	12.228165	-56.318485	283.340	0.020	-0.180	0.310	283.220	-1.600	0.700																			1580074020.0	11.95	22.13
26/01/2020 21:27:01	26012020	260120	212701	283.190	12.228178	-56.318542	283.290	0.100	-0.490	0.230	283.180	-1.900	0.600																			1580074021.0	12.20	22.59
26/01/2020 21:27:02	26012020	260120	212702	283.130	12.228190	-56.318598	283.210	0.200	-0.720	0.040	283.110	-2.100	0.400																			1580074022.0	12.47	23.09
26/01/2020 21:27:03	26012020	260120	212703	283.030	12.228202	-56.318657	283.110	0.190	-0.640	-0.200	283.020	-2.000	0.100																			1580074023.0	12.43	23.02
26/01/2020 21:27:04	26012020	260120	212704	282.970	12.228212	-56.318713	283.060	-0.020	-0.260	-0.390	282.970	-1.600	-0.000																			1580074024.0	12.10	22.41
26/01/2020 21:27:05	26012020	260120	212705	283.020	12.228222	-56.318768	283.130	-0.280	0.100	-0.510	283.040	-1.300	-0.200																			1580074025.0	11.80	21.85
26/01/2020 21:27:06	26012020	260120	212706	283.190	12.228232	-56.318823	283.330	-0.390	0.170	-0.540	283.240	-1.200	-0.200																			1580074026.0	11.83	21.91
26/01/2020 21:27:07	26012020	260120	212707	283.440	12.228242	-56.318880	283.580	-0.230	0.010	-0.410	283.480	-1.400	-0.000																			1580074027.0	12.12	22.45
26/01/2020 21:27:08	26012020	260120	212708	283.620	12.228253	-56.318937	283.750	0.060	-0.170	-0.090	283.640	-1.600	0.300																			1580074028.0	12.31	22.80
26/01/2020 21:27:09	26012020	260120	212709	283.660	12.228268	-56.318993	283.770	0.260	-0.270	0.220	283.650	-1.700	0.600																			1580074029.0	12.28	22.74
26/01/2020 21:27:10	26012020	260120	212710	283.580	12.228282	-56.319048	283.690	0.250	-0.330	0.360	283.560	-1.700	0.700																			1580074030.0	12.12	22.45
26/01/2020 21:27:11	26012020	260120	212711	283.460	12.228295	-56.319103	283.550	0.070	-0.400	0.290	283.430	-1.800	0.600																			1580074031.0	12.05	22.32
26/01/2020 21:27:12	26012020	260120	212712	283.310	12.228307	-56.319160	283.390	-0.130	-0.450	0.080	283.270	-1.900	0.400																			1580074032.0	12.04	22.30
26/01/2020 21:27:13	26012020	260120	212713	283.130	12.228317	-56.319215	283.210	-0.230	-0.450	-0.170	283.100	-1.900	0.200																			1580074033.0	12.01	22.24
26/01/2020 21:27:14	26012020	260120	212714	283.020	12.228327	-56.319272	283.120	-0.170	-0.500	-0.410	283.000	-1.900	-0.100																			1580074034.0	12.00	22.22
26/01/2020 21:27:15	26012020	260120	212715	283.020	12.228337	-56.319327	283.140	0.040	-0.620	-0.520	283.030	-2.000	-0.200																			1580074035.0	12.13	22.46
26/01/2020 21:27:16	26012020	260120	212716	283.090	12.228347	-56.319385	283.210	0.240	-0.600	-0.400	283.100	-2.000	-0.000																			1580074036.0	12.28	22.74
26/01/2020 21:27:17	26012020	260120	212717	283.170	12.228360	-56.319440	283.280	0.230	-0.290	-0.150	283.190	-1.600	0.200																			1580074037.0	12.18	22.56
26/01/2020 21:27:18	26012020	260120	212718	283.250	12.228373	-56.319495	283.360	-0.000	0.150	0.060	283.260	-1.200	0.400																			1580074038.0	11.87	21.98
26/01/2020 21:27:19	26012020	260120	212719	283.330	12.228387	-56.319548	283.450	-0.240	0.300	0.080	283.350	-1.100	0.400																			1580074039.0	11.69	21.65
26/01/2020 21:27:20	26012020	260120	212720	283.490	12.228398	-56.319603	283.630	-0.280	-0.050	-0.140	283.530	-1.500	0.200																			1580074040.0	11.97	22.17
26/01/2020 21:27:21	26012020	260120	212721	283.710	12.228408	-56.319662	283.840	-0.100	-0.590	-0.450	283.750	-2.000	-0.100																			1580074041.0	12.51	23.17
26/01/2020 21:27:22	26012020	260120	212722	283.870	12.228418	-56.319722	283.990	0.080	-0.780	-0.570	283.880	-2.200	-0.200																			1580074042.0	12.75	23.61
26/01/2020 21:27:23	26012020	260120	212723	283.870	12.228430	-56.319778	283.950	0.090	-0.400	-0.330	283.840	-1.700	0.100																			1580074043.0	12.39	22.95
26/01/2020 21:27:24	26012020	260120	212724	283.690	12.228442	-56.319833	283.750	-0.060	0.200	0.080	283.650	-1.100	0.500																			1580074044.0	11.74	21.74
26/01/2020 21:27:25	26012020	260120	212725	283.460	12.228455	-56.319887	283.530	-0.200	0.430	0.260	283.420	-1.000	0.600																			1580074045.0	11.47	21.24
26/01/2020 21:27:26	26012020	260120	212726	283.260	12.228467	-56.319940	283.330	-0.160	0.110	0.130	283.230	-1.400	0.500																			1580074046.0	11.78	21.82
26/01/2020 21:27:27	26012020	260120	212727	283.170	12.228478	-56.319997	283.250	0.050	-0.510	-0.130	283.170	-2.000	0.200																			1580074047.0	12.27	22.72
26/01/2020 21:27:28	26012020	260120	212728	283.220	12.228490	-56.320055	283.320	0.300	-0.990	-0.300	283.240	-2.400	0.100																			1580074048.0	12.51	23.17
26/01/2020 21:27:29	26012020	260120	212729	283.330	12.228502	-56.320112	283.440	0.410	-1.060	-0.250	283.340	-2.400	0.100																			1580074049.0	12.40	22.96
26/01/2020 21:27:30	26012020	260120	212730	283.390	12.228513	-56.320168	283.500	0.300	-0.700	-0.010	283.390	-2.000	0.400																			1580074050.0	12.06	22.34
26/01/2020 21:27:31	26012020	260120	212731	283.350	12.228527	-56.320222	283.430	-0.020	-0.140	0.130	283.330	-1.500	0.500																			1580074051.0	11.73	21.72
26/01/2020 21:27:32	26012020	260120	212732	283.220	12.228540	-56.320275	283.290	-0.370	0.300	0.040	283.190	-1.100	0.400																			1580074052.0	11.59	21.46
26/01/2020 21:27:33	26012020	260120	212733	283.090	12.228550	-56.320330	283.160	-0.560	0.350	-0.180	283.070	-1.100	0.200																			1580074053.0	11.71	21.69
26/01/2020 21:27:34	26012020	260120	212734	283.070	12.228560	-56.320387	283.180	-0.430	-0.080	-0.380	283.090	-1.500	-0.000																			1580074054.0	12.09	22.39
26/01/2020 21:27:35	26012020	260120	212735	283.240	12.228570	-56.320445	283.370	-0.010	-0.670	-0.490	283.280	-2.100	-0.100																			1580074055.0	12.56	23.26
26/01/2020 21:27:36	26012020	260120	212736	283.480	12.228580	-56.320503	283.620	0.450	-0.940	-0.400	283.530	-2.300	-0.000																			1580074056.0	12.75	23.61
26/01/2020 21:27:37	26012020	260120	212737	283.650	12.228595	-56.320560	283.770	0.620	-0.620	-0.080	283.670	-1.900	0.300																			1580074057.0	12.44	23.04
26/01/2020 21:27:38	26012020	260120	212738	283.680	12.228608	-56.320615	283.780	0.370	0.020	0.260	283.670	-1.300	0.700																			1580074058.0	11.85	21.95
26/01/2020 21:27:39	26012020	260120	212739	283.580	12.228623	-56.320667	283.650	-0.080	0.430	0.430	283.540	-0.900	0.800																			1580074059.0	11.50	21.30
26/01/2020 21:27:40	26012020	260120	212740	283.410	12.228635	-56.320722	283.460	-0.430	0.310	0.270	283.370	-1.100	0.600																			1580074060.0	11.67	21.61
26/01/2020 21:27:41	26012020	260120	212741	283.220	12.228645	-56.320778	283.290	-0.480	-0.160	-0.030	283.190	-1.600	0.300																			1580074061.0	12.17	22.54
26/01/2020 21:27:42	26012020	260120	212742	283.030	12.228655	-56.320835	283.110	-0.300	-0.550	-0.200	283.000	-2.000	0.200																			1580074062.0	12.47	23.09
26/01/2020 21:27:43	26012020	260120	212743	282.860	12.228663	-56.320893	282.930	-0.080	-0.630	-0.120	282.830	-2.000	0.300																			1580074063.0	12.32	22.82
26/01/2020 21:27:44	26012020	260120	212744	282.760	12.228675	-56.320948	282.840	0.060	-0.480	0.090	282.750	-1.900	0.500																			1580074064.0	11.96	22.15
26/01/2020 21:27:45	26012020	260120	212745	282.780	12.228687	-56.321003	282.890	0.180	-0.360	0.250	282.800	-1.700	0.600																			1580074065.0	11.75	21.76
26/01/2020 21:27:46	26012020	260120	212746	282.890	12.228700	-56.321057	283.010	0.330	-0.380	0.330	282.920	-1.800	0.700																			1580074066.0	11.84	21.93
26/01/2020 21:27:47	26012020	260120	212747	283.010	12.228712	-56.321113	283.140	0.510	-0.470	0.340	283.040	-1.900	0.700																			1580074067.0	12.06	22.34
26/01/2020 21:27:48	26012020	260120	212748	283.140	12.228727	-56.321168	283.250	0.570	-0.490	0.270	283.160	-1.900	0.600																			1580074068.0	12.21	22.61
26/01/2020 21:27:49	26012020	260120	212749	283.240	12.228740	-56.321225	283.350	0.360	-0.350	0.090	283.260	-1.700	0.400																			1580074069.0	12.17	22.54
26/01/2020 21:27:50	26012020	260120	212750	283.340	12.228752	-56.321280	283.430	-0.070	-0.170	-0.220	283.360	-1.500	0.100																			1580074070.0	12.03	22.28
26/01/2020 21:27:51	26012020	260120	212751	283.420	12.228762	-56.321337	283.500	-0.490	-0.130	-0.630	283.440	-1.500	-0.300																			1580074071.0	12.01	22.24
26/01/2020 21:27:52	26012020	260120	212752	283.500	12.228772	-56.321393	283.580	-0.710	-0.200	-0.980	283.530	-1.600	-0.700																			1580074072.0	12.21	22.61
26/01/2020 21:27:53	26012020	260120	212753	283.600	12.228778	-56.321452	283.670	-0.690	-0.240	-1.060	283.620	-1.600	-0.700																			1580074073.0	12.35	22.87
26/01/2020 21:27:54	26012020	260120	212754	283.660	12.228788	-56.321508	283.720	-0.480	-0.160	-0.710	283.660	-1.500	-0.300																			1580074074.0	12.27	22.72
26/01/2020 21:27:55	26012020	260120	212755	283.600	12.228800	-56.321565	283.640	-0.190	-0.060	-0.160	283.580	-1.400	0.300																			1580074075.0	12.07	22.35
26/01/2020 21:27:56	26012020	260120	212756	283.410	12.228813	-56.321620	283.450	0.120	-0.080	0.310	283.360	-1.500	0.700																			1580074076.0	12.01	22.24
26/01/2020 21:27:57	26012020	260120	212757	283.140	12.228827	-56.321675	283.180	0.390	-0.220	0.580	283.080	-1.600	1.000																			1580074077.0	12.09	22.39
26/01/2020 21:27:58	26012020	260120	212758	282.840	12.228840	-56.321730	282.880	0.560	-0.330	0.680	282.780	-1.700	1.000																			1580074078.0	12.15	22.50
26/01/2020 21:27:59	26012020	260120	212759	282.550	12.228853	-56.321787	282.590	0.560	-0.310	0.680	282.500	-1.700	1.000	1014.60	26.20	26.20	21.10	21.10	41.00	73.00	73.00	399.00	26.10	36.00	6.10	34.00	3.80	1934	3637.00	27.60	27.60	1580074079.0	12.05	22.32
26/01/2020 21:28:00	26012020	260120	212800	282.340	12.228867	-56.321840	282.410	0.390	-0.260	0.530	282.320	-1.700	0.900																			1580074080.0	11.87	21.98
26/01/2020 21:28:01	26012020	260120	212801	282.270	12.228878	-56.321895	282.350	0.110	-0.310	0.210	282.270	-1.700	0.500																			1580074081.0	11.79	21.84
26/01/2020 21:28:02	26012020	260120	212802	282.330	12.228890	-56.321950	282.430	-0.130	-0.450	-0.170	282.360	-1.900	0.200																			1580074082.0	11.90	22.04
26/01/2020 21:28:03	26012020	260120	212803	282.500	12.228900	-56.322007	282.610	-0.270	-0.590	-0.450	282.540	-2.000	-0.100																			1580074083.0	12.06	22.34
26/01/2020 21:28:04	26012020	260120	212804	282.740	12.228910	-56.322063	282.860	-0.260	-0.660	-0.500	282.790	-2.000	-0.100																			1580074084.0	12.14	22.48
26/01/2020 21:28:05	26012020	260120	212805	283.020	12.228920	-56.322120	283.150	-0.120	-0.660	-0.310	283.080	-2.000	0.100																			1580074085.0	12.18	22.56
26/01/2020 21:28:06	26012020	260120	212806	283.290	12.228932	-56.322177	283.400	0.050	-0.540	-0.070	283.330	-1.900	0.300																			1580074086.0	12.25	22.69
26/01/2020 21:28:07	26012020	260120	212807	283.470	12.228943	-56.322233	283.570	0.090	-0.250	0.090	283.480	-1.600	0.500																			1580074087.0	12.23	22.65
26/01/2020 21:28:08	26012020	260120	212808	283.490	12.228957	-56.322288	283.580	-0.090	0.140	0.120	283.480	-1.200	0.500																			1580074088.0	12.07	22.35
26/01/2020 21:28:09	26012020	260120	212809	283.390	12.228967	-56.322343	283.450	-0.350	0.350	0.020	283.360	-1.000	0.400																			1580074089.0	11.90	22.04
26/01/2020 21:28:10	26012020	260120	212810	283.230	12.228977	-56.322400	283.270	-0.430	0.190	-0.140	283.200	-1.200	0.200																			1580074090.0	11.99	22.21
26/01/2020 21:28:11	26012020	260120	212811	283.040	12.228987	-56.322457	283.070	-0.220	-0.170	-0.150	282.990	-1.600	0.200																			1580074091.0	12.29	22.76
26/01/2020 21:28:12	26012020	260120	212812	282.800	12.228997	-56.322515	282.820	0.160	-0.440	0.070	282.750	-1.800	0.500																			1580074092.0	12.41	22.98
26/01/2020 21:28:13	26012020	260120	212813	282.530	12.229008	-56.322570	282.550	0.450	-0.460	0.380	282.480	-1.800	0.800																			1580074093.0	12.25	22.69
26/01/2020 21:28:14	26012020	260120	212814	282.270	12.229023	-56.322625	282.300	0.470	-0.270	0.550	282.220	-1.600	0.900																			1580074094.0	11.93	22.09
26/01/2020 21:28:15	26012020	260120	212815	282.090	12.229035	-56.322678	282.160	0.290	-0.090	0.480	282.080	-1.500	0.800																			1580074095.0	11.67	21.61
26/01/2020 21:28:16	26012020	260120	212816	282.050	12.229047	-56.322733	282.150	0.100	-0.110	0.250	282.060	-1.500	0.600																			1580074096.0	11.65	21.58
26/01/2020 21:28:17	26012020	260120	212817	282.150	12.229058	-56.322788	282.260	0.020	-0.380	-0.010	282.180	-1.800	0.300																			1580074097.0	11.86	21.96
26/01/2020 21:28:18	26012020	260120	212818	282.360	12.229068	-56.322845	282.500	0.080	-0.760	-0.260	282.420	-2.200	0.100																			1580074098.0	12.18	22.56
26/01/2020 21:28:19	26012020	260120	212819	282.650	12.229080	-56.322902	282.790	0.140	-0.960	-0.360	282.710	-2.300	0.000																			1580074099.0	12.40	22.96
26/01/2020 21:28:20	26012020	260120	212820	282.890	12.229090	-56.322958	283.020	0.050	-0.750	-0.240	282.920	-2.100	0.200																			1580074100.0	12.32	22.82
26/01/2020 21:28:21	26012020	260120	212821	283.020	12.229102	-56.323015	283.130	-0.220	-0.250	-0.040	283.030	-1.600	0.300																			1580074101.0	11.98	22.19
26/01/2020 21:28:22	26012020	260120	212822	283.060	12.229113	-56.323068	283.160	-0.520	0.130	0.000	283.060	-1.200	0.400																			1580074102.0	11.72	21.71
26/01/2020 21:28:23	26012020	260120	212823	283.090	12.229123	-56.323123	283.200	-0.620	0.140	-0.170	283.100	-1.300	0.200																			1580074103.0	11.85	21.95
26/01/2020 21:28:24	26012020	260120	212824	283.150	12.229132	-56.323182	283.250	-0.390	-0.140	-0.400	283.160	-1.600	-0.000																			1580074104.0	12.28	22.74
26/01/2020 21:28:25	26012020	260120	212825	283.190	12.229140	-56.323240	283.270	0.040	-0.360	-0.390	283.190	-1.800	0.000																			1580074105.0	12.55	23.24
26/01/2020 21:28:26	26012020	260120	212826	283.130	12.229152	-56.323297	283.180	0.370	-0.290	-0.070	283.090	-1.700	0.400																			1580074106.0	12.39	22.95
26/01/2020 21:28:27	26012020	260120	212827	282.890	12.229165	-56.323353	282.930	0.430	-0.070	0.320	282.830	-1.400	0.700																			1580074107.0	12.03	22.28
26/01/2020 21:28:28	26012020	260120	212828	282.550	12.229180	-56.323407	282.590	0.260	0.050	0.480	282.480	-1.400	0.800																			1580074108.0	11.80	21.85
26/01/2020 21:28:29	26012020	260120	212829	282.250	12.229192	-56.323462	282.310	0.050	-0.090	0.280	282.210	-1.500	0.600																			1580074109.0	11.82	21.89
26/01/2020 21:28:30	26012020	260120	212830	282.140	12.229202	-56.323517	282.230	-0.050	-0.410	-0.030	282.140	-1.800	0.300																			1580074110.0	12.04	22.30
26/01/2020 21:28:31	26012020	260120	212831	282.200	12.229212	-56.323573	282.290	-0.030	-0.690	-0.260	282.210	-2.100	0.100																			1580074111.0	12.24	22.67
26/01/2020 21:28:32	26012020	260120	212832	282.310	12.229222	-56.323630	282.410	0.020	-0.700	-0.300	282.340	-2.100	0.100																			1580074112.0	12.24	22.67
26/01/2020 21:28:33	26012020	260120	212833	282.440	12.229233	-56.323687	282.540	0.040	-0.400	-0.130	282.460	-1.700	0.300																			1580074113.0	12.01	22.24
26/01/2020 21:28:34	26012020	260120	212834	282.550	12.229243	-56.323742	282.650	0.020	-0.050	0.110	282.570	-1.400	0.500																			1580074114.0	11.75	21.76
26/01/2020 21:28:35	26012020	260120	212835	282.670	12.229257	-56.323795	282.780	-0.010	0.040	0.220	282.700	-1.400	0.600																			1580074115.0	11.74	21.74
26/01/2020 21:28:36	26012020	260120	212836	282.810	12.229268	-56.323850	282.930	-0.020	-0.140	0.160	282.840	-1.600	0.500																			1580074116.0	12.00	22.22
26/01/2020 21:28:37	26012020	260120	212837	282.950	12.229278	-56.323907	283.060	-0.030	-0.410	-0.030	282.980	-1.800	0.300																			1580074117.0	12.24	22.67
26/01/2020 21:28:38	26012020	260120	212838	283.100	12.229288	-56.323965	283.210	-0.040	-0.570	-0.200	283.130	-2.000	0.200																			1580074118.0	12.30	22.78
26/01/2020 21:28:39	26012020	260120	212839	283.240	12.229298	-56.324022	283.340	-0.070	-0.570	-0.290	283.260	-1.900	0.100																			1580074119.0	12.18	22.56
26/01/2020 21:28:40	26012020	260120	212840	283.320	12.229310	-56.324077	283.390	-0.080	-0.460	-0.270	283.320	-1.800	0.100																			1580074120.0	12.04	22.30
26/01/2020 21:28:41	26012020	260120	212841	283.290	12.229320	-56.324133	283.360	-0.050	-0.350	-0.090	283.270	-1.700	0.300																			1580074121.0	12.01	22.24
26/01/2020 21:28:42	26012020	260120	212842	283.160	12.229333	-56.324188	283.220	0.020	-0.250	0.200	283.130	-1.600	0.600																			1580074122.0	12.07	22.35
26/01/2020 21:28:43	26012020	260120	212843	282.970	12.229345	-56.324245	283.040	0.050	-0.140	0.410	282.920	-1.500	0.800																			1580074123.0	12.15	22.50
26/01/2020 21:28:44	26012020	260120	212844	282.750	12.229358	-56.324300	282.830	0.000	0.000	0.370	282.710	-1.400	0.700																			1580074124.0	12.11	22.43
26/01/2020 21:28:45	26012020	260120	212845	282.600	12.229368	-56.324357	282.690	-0.100	0.090	0.090	282.590	-1.300	0.400																			1580074125.0	12.01	22.24
26/01/2020 21:28:46	26012020	260120	212846	282.630	12.229378	-56.324412	282.730	-0.170	-0.040	-0.250	282.660	-1.500	0.100																			1580074126.0	11.98	22.19
26/01/2020 21:28:47	26012020	260120	212847	282.840	12.229388	-56.324468	282.970	-0.130	-0.390	-0.560	282.900	-1.800	-0.200																			1580074127.0	12.12	22.45
26/01/2020 21:28:48	26012020	260120	212848	283.130	12.229398	-56.324525	283.250	0.020	-0.720	-0.700	283.190	-2.100	-0.300																			1580074128.0	12.36	22.89
26/01/2020 21:28:49	26012020	260120	212849	283.370	12.229410	-56.324583	283.480	0.140	-0.700	-0.510	283.410	-2.100	-0.100																			1580074129.0	12.37	22.91
26/01/2020 21:28:50	26012020	260120	212850	283.510	12.229422	-56.324638	283.600	0.150	-0.370	-0.170	283.530	-1.700	0.200																			1580074130.0	12.04	22.30
26/01/2020 21:28:51	26012020	260120	212851	283.550	12.229433	-56.324693	283.640	0.070	0.040	0.110	283.540	-1.300	0.500																			1580074131.0	11.72	21.71
26/01/2020 21:28:52	26012020	260120	212852	283.490	12.229445	-56.324747	283.560	0.030	0.240	0.250	283.470	-1.200	0.600																			1580074132.0	11.66	21.59
26/01/2020 21:28:53	26012020	260120	212853	283.390	12.229457	-56.324802	283.450	0.100	0.120	0.250	283.360	-1.300	0.600																			1580074133.0	11.83	21.91
26/01/2020 21:28:54	26012020	260120	212854	283.260	12.229468	-56.324857	283.320	0.240	-0.210	0.140	283.240	-1.700	0.500																			1580074134.0	12.11	22.43
26/01/2020 21:28:55	26012020	260120	212855	283.160	12.229482	-56.324913	283.220	0.320	-0.540	-0.080	283.140	-2.000	0.200																			1580074135.0	12.26	22.71
26/01/2020 21:28:56	26012020	260120	212856	283.110	12.229493	-56.324970	283.180	0.210	-0.690	-0.400	283.110	-2.100	-0.100																			1580074136.0	12.23	22.65
26/01/2020 21:28:57	26012020	260120	212857	283.160	12.229503	-56.325027	283.240	-0.080	-0.680	-0.710	283.180	-2.100	-0.400																			1580074137.0	12.04	22.30
26/01/2020 21:28:58	26012020	260120	212858	283.300	12.229513	-56.325082	283.380	-0.360	-0.590	-0.900	283.330	-2.000	-0.500																			1580074138.0	11.92	22.08
26/01/2020 21:28:59	26012020	260120	212859	283.480	12.229523	-56.325138	283.560	-0.470	-0.510	-0.880	283.520	-1.900	-0.500	1014.60	26.20	26.20	21.10	21.10	41.00	73.00	73.00	401.00	26.10	35.00	6.20	30.00	3.80	1830	3559.00	27.70	27.60	1580074139.0	11.95	22.13
26/01/2020 21:29:00	26012020	260120	212900	283.660	12.229533	-56.325193	283.750	-0.350	-0.430	-0.550	283.700	-1.800	-0.100																			1580074140.0	12.08	22.37
26/01/2020 21:29:01	26012020	260120	212901	283.770	12.229545	-56.325250	283.860	-0.090	-0.320	-0.090	283.780	-1.700	0.300																			1580074141.0	12.18	22.56
26/01/2020 21:29:02	26012020	260120	212902	283.760	12.229558	-56.325307	283.820	0.150	-0.160	0.330	283.740	-1.500	0.700																			1580074142.0	12.20	22.59
26/01/2020 21:29:03	26012020	260120	212903	283.660	12.229572	-56.325362	283.710	0.260	0.010	0.530	283.630	-1.400	0.900																			1580074143.0	12.17	22.54
26/01/2020 21:29:04	26012020	260120	212904	283.560	12.229587	-56.325417	283.620	0.200	0.120	0.440	283.550	-1.300	0.800																			1580074144.0	12.11	22.43
26/01/2020 21:29:05	26012020	260120	212905	283.540	12.229600	-56.325473	283.600	0.020	0.110	0.080	283.540	-1.300	0.400																			1580074145.0	12.07	22.35
26/01/2020 21:29:06	26012020	260120	212906	283.610	12.229610	-56.325528	283.700	-0.190	-0.040	-0.460	283.640	-1.500	-0.200																			1580074146.0	12.07	22.35
26/01/2020 21:29:07	26012020	260120	212907	283.750	12.229620	-56.325585	283.820	-0.320	-0.320	-0.910	283.780	-1.800	-0.600																			1580074147.0	12.13	22.46
26/01/2020 21:29:08	26012020	260120	212908	283.910	12.229628	-56.325643	283.980	-0.260	-0.570	-1.010	283.940	-2.000	-0.600																			1580074148.0	12.26	22.71
26/01/2020 21:29:09	26012020	260120	212909	284.010	12.229638	-56.325700	284.070	-0.060	-0.550	-0.660	284.010	-1.900	-0.200																			1580074149.0	12.22	22.63
26/01/2020 21:29:10	26012020	260120	212910	283.940	12.229650	-56.325755	283.980	0.160	-0.240	-0.070	283.910	-1.600	0.400																			1580074150.0	11.95	22.13
26/01/2020 21:29:11	26012020	260120	212911	283.690	12.229663	-56.325808	283.720	0.300	0.080	0.470	283.620	-1.300	0.900																			1580074151.0	11.63	21.54
26/01/2020 21:29:12	26012020	260120	212912	283.340	12.229678	-56.325860	283.370	0.360	0.090	0.770	283.270	-1.300	1.100																			1580074152.0	11.60	21.48
26/01/2020 21:29:13	26012020	260120	212913	283.080	12.229692	-56.325915	283.140	0.400	-0.290	0.700	283.050	-1.700	1.000																			1580074153.0	11.89	22.02
26/01/2020 21:29:14	26012020	260120	212914	283.010	12.229705	-56.325972	283.110	0.450	-0.740	0.370	283.020	-2.200	0.700																			1580074154.0	12.24	22.67
26/01/2020 21:29:15	26012020	260120	212915	283.100	12.229717	-56.326028	283.200	0.410	-0.920	-0.070	283.130	-2.300	0.300																			1580074155.0	12.33	22.84
26/01/2020 21:29:16	26012020	260120	212916	283.250	12.229728	-56.326085	283.350	0.180	-0.750	-0.420	283.290	-2.100	-0.100																			1580074156.0	12.10	22.41
26/01/2020 21:29:17	26012020	260120	212917	283.470	12.229738	-56.326140	283.570	-0.200	-0.470	-0.580	283.520	-1.800	-0.200																			1580074157.0	11.87	21.98
26/01/2020 21:29:18	26012020	260120	212918	283.730	12.229750	-56.326195	283.840	-0.540	-0.280	-0.560	283.790	-1.700	-0.200																			1580074158.0	11.87	21.98
26/01/2020 21:29:19	26012020	260120	212919	283.980	12.229760	-56.326250	284.080	-0.680	-0.190	-0.440	284.010	-1.600	-0.100																			1580074159.0	12.06	22.34
26/01/2020 21:29:20	26012020	260120	212920	284.110	12.229772	-56.326307	284.210	-0.590	-0.160	-0.300	284.130	-1.500	0.100																			1580074160.0	12.22	22.63
26/01/2020 21:29:21	26012020	260120	212921	284.150	12.229783	-56.326365	284.230	-0.360	-0.160	-0.140	284.150	-1.600	0.200																			1580074161.0	12.30	22.78
26/01/2020 21:29:22	26012020	260120	212922	284.120	12.229795	-56.326422	284.200	-0.070	-0.180	-0.030	284.110	-1.600	0.300																			1580074162.0	12.33	22.84
26/01/2020 21:29:23	26012020	260120	212923	284.050	12.229807	-56.326478	284.130	0.170	-0.130	0.010	284.030	-1.500	0.400																			1580074163.0	12.31	22.80
26/01/2020 21:29:24	26012020	260120	212924	283.910	12.229820	-56.326535	283.960	0.270	0.040	-0.030	283.870	-1.300	0.300																			1580074164.0	12.17	22.54
26/01/2020 21:29:25	26012020	260120	212925	283.650	12.229832	-56.326590	283.670	0.200	0.290	-0.070	283.590	-1.100	0.300																			1580074165.0	11.92	22.08
26/01/2020 21:29:26	26012020	260120	212926	283.320	12.229843	-56.326643	283.340	0.040	0.370	-0.100	283.260	-1.000	0.300																			1580074166.0	11.64	21.56
26/01/2020 21:29:27	26012020	260120	212927	283.030	12.229855	-56.326697	283.070	-0.040	0.050	-0.140	282.990	-1.400	0.200																			1580074167.0	11.65	21.58
26/01/2020 21:29:28	26012020	260120	212928	282.870	12.229867	-56.326752	282.930	0.080	-0.570	-0.230	282.860	-2.000	0.100																			1580074168.0	11.97	22.17
26/01/2020 21:29:29	26012020	260120	212929	282.870	12.229878	-56.326810	282.960	0.340	-1.090	-0.310	282.880	-2.500	0.000																			1580074169.0	12.29	22.76
26/01/2020 21:29:30	26012020	260120	212930	282.990	12.229890	-56.326867	283.080	0.560	-1.160	-0.280	283.020	-2.500	0.100																			1580074170.0	12.29	22.76
26/01/2020 21:29:31	26012020	260120	212931	283.140	12.229903	-56.326922	283.220	0.580	-0.770	-0.080	283.160	-2.100	0.300																			1580074171.0	11.97	22.17
26/01/2020 21:29:32	26012020	260120	212932	283.250	12.229917	-56.326975	283.330	0.390	-0.260	0.230	283.270	-1.600	0.600																			1580074172.0	11.67	21.61
26/01/2020 21:29:33	26012020	260120	212933	283.280	12.229932	-56.327028	283.350	0.100	0.060	0.490	283.280	-1.300	0.900																			1580074173.0	11.67	21.61
26/01/2020 21:29:34	26012020	260120	212934	283.220	12.229945	-56.327082	283.280	-0.210	0.090	0.520	283.200	-1.300	0.900																			1580074174.0	11.92	22.08
26/01/2020 21:29:35	26012020	260120	212935	283.130	12.229957	-56.327138	283.190	-0.490	-0.110	0.190	283.110	-1.500	0.500																			1580074175.0	12.19	22.58
26/01/2020 21:29:36	26012020	260120	212936	283.110	12.229967	-56.327197	283.180	-0.660	-0.410	-0.320	283.130	-1.800	-0.000																			1580074176.0	12.36	22.89
26/01/2020 21:29:37	26012020	260120	212937	283.250	12.229973	-56.327255	283.340	-0.660	-0.670	-0.730	283.300	-2.100	-0.400																			1580074177.0	12.44	23.04
26/01/2020 21:29:38	26012020	260120	212938	283.520	12.229982	-56.327313	283.620	-0.490	-0.740	-0.800	283.570	-2.100	-0.400																			1580074178.0	12.41	22.98
26/01/2020 21:29:39	26012020	260120	212939	283.770	12.229992	-56.327370	283.860	-0.260	-0.560	-0.510	283.810	-1.900	-0.100																			1580074179.0	12.24	22.67
26/01/2020 21:29:40	26012020	260120	212940	283.880	12.230003	-56.327425	283.950	-0.060	-0.180	-0.030	283.880	-1.500	0.400																			1580074180.0	12.03	22.28
26/01/2020 21:29:41	26012020	260120	212941	283.770	12.230017	-56.327480	283.810	0.070	0.240	0.480	283.720	-1.100	0.900																			1580074181.0	11.89	22.02
26/01/2020 21:29:42	26012020	260120	212942	283.430	12.230032	-56.327533	283.440	0.150	0.470	0.840	283.340	-0.900	1.200																			1580074182.0	11.83	21.91
26/01/2020 21:29:43	26012020	260120	212943	282.990	12.230045	-56.327588	283.020	0.270	0.390	0.900	282.900	-1.000	1.200																			1580074183.0	11.92	22.08
26/01/2020 21:29:44	26012020	260120	212944	282.610	12.230058	-56.327643	282.660	0.420	0.060	0.670	282.550	-1.400	1.000																			1580074184.0	12.09	22.39
26/01/2020 21:29:45	26012020	260120	212945	282.380	12.230070	-56.327700	282.450	0.540	-0.330	0.290	282.360	-1.800	0.600																			1580074185.0	12.19	22.58
26/01/2020 21:29:46	26012020	260120	212946	282.380	12.230082	-56.327757	282.490	0.550	-0.590	-0.090	282.410	-2.000	0.200																			1580074186.0	12.13	22.46
26/01/2020 21:29:47	26012020	260120	212947	282.590	12.230092	-56.327812	282.700	0.420	-0.670	-0.370	282.640	-2.100	-0.000																			1580074187.0	11.95	22.13
26/01/2020 21:29:48	26012020	260120	212948	282.860	12.230103	-56.327867	282.970	0.180	-0.620	-0.470	282.910	-2.000	-0.100																			1580074188.0	11.80	21.85
26/01/2020 21:29:49	26012020	260120	212949	283.100	12.230115	-56.327922	283.210	-0.100	-0.570	-0.370	283.140	-2.000	0.000																			1580074189.0	11.73	21.72
26/01/2020 21:29:50	26012020	260120	212950	283.290	12.230127	-56.327975	283.380	-0.330	-0.590	-0.210	283.320	-2.000	0.200																			1580074190.0	11.84	21.93
26/01/2020 21:29:51	26012020	260120	212951	283.450	12.230137	-56.328032	283.540	-0.450	-0.660	-0.120	283.490	-2.100	0.300																			1580074191.0	12.03	22.28
26/01/2020 21:29:52	26012020	260120	212952	283.580	12.230148	-56.328088	283.650	-0.420	-0.710	-0.150	283.590	-2.100	0.200																			1580074192.0	12.24	22.67
26/01/2020 21:29:53	26012020	260120	212953	283.600	12.230158	-56.328145	283.650	-0.300	-0.630	-0.190	283.590	-2.000	0.200																			1580074193.0	12.36	22.89
26/01/2020 21:29:54	26012020	260120	212954	283.490	12.230168	-56.328203	283.530	-0.190	-0.350	-0.130	283.460	-1.700	0.300																			1580074194.0	12.33	22.84
26/01/2020 21:29:55	26012020	260120	212955	283.270	12.230180	-56.328260	283.290	-0.160	0.080	0.030	283.220	-1.300	0.400																			1580074195.0	12.16	22.52
26/01/2020 21:29:56	26012020	260120	212956	283.000	12.230190	-56.328315	283.020	-0.180	0.450	0.200	282.940	-0.900	0.600																			1580074196.0	11.95	22.13
26/01/2020 21:29:57	26012020	260120	212957	282.760	12.230203	-56.328370	282.810	-0.140	0.490	0.280	282.720	-0.900	0.600																			1580074197.0	11.91	22.06
26/01/2020 21:29:58	26012020	260120	212958	282.640	12.230215	-56.328425	282.710	0.040	0.200	0.250	282.630	-1.300	0.600																			1580074198.0	12.10	22.41
26/01/2020 21:29:59	26012020	260120	212959	282.620	12.230227	-56.328483	282.690	0.280	-0.210	0.240	282.610	-1.700	0.600	1014.60	26.20	26.20	21.00	21.00	36.00	73.00	73.00	400.00	26.10	41.00	5.80	39.00	4.20	1728	3494.00	27.70	27.60	1580074199.0	12.34	22.85
26/01/2020 21:30:00	26012020	260120	213000	282.610	12.230240	-56.328540	282.680	0.410	-0.430	0.280	282.600	-1.800	0.600																			1580074200.0	12.34	22.85
26/01/2020 21:30:01	26012020	260120	213001	282.580	12.230252	-56.328595	282.650	0.330	-0.370	0.330	282.580	-1.700	0.700																			1580074201.0	12.08	22.37
26/01/2020 21:30:02	26012020	260120	213002	282.580	12.230265	-56.328650	282.660	0.130	-0.230	0.280	282.590	-1.600	0.600																			1580074202.0	11.73	21.72
26/01/2020 21:30:03	26012020	260120	213003	282.640	12.230277	-56.328703	282.740	-0.020	-0.250	0.090	282.660	-1.700	0.400																			1580074203.0	11.62	21.52
26/01/2020 21:30:04	26012020	260120	213004	282.780	12.230287	-56.328758	282.890	-0.020	-0.510	-0.200	282.820	-1.900	0.100																			1580074204.0	11.84	21.93
26/01/2020 21:30:05	26012020	260120	213005	283.010	12.230297	-56.328815	283.130	0.110	-0.820	-0.450	283.060	-2.200	-0.100																			1580074205.0	12.14	22.48
26/01/2020 21:30:06	26012020	260120	213006	283.260	12.230307	-56.328872	283.360	0.210	-0.920	-0.470	283.300	-2.300	-0.100																			1580074206.0	12.29	22.76
26/01/2020 21:30:07	26012020	260120	213007	283.430	12.230318	-56.328928	283.510	0.170	-0.700	-0.280	283.450	-2.100	0.100																			1580074207.0	12.15	22.50
26/01/2020 21:30:08	26012020	260120	213008	283.490	12.230330	-56.328983	283.560	-0.010	-0.320	-0.050	283.490	-1.700	0.300																			1580074208.0	11.90	22.04
26/01/2020 21:30:09	26012020	260120	213009	283.450	12.230342	-56.329038	283.510	-0.230	-0.050	0.060	283.430	-1.400	0.400																			1580074209.0	11.80	21.85
26/01/2020 21:30:10	26012020	260120	213010	283.350	12.230352	-56.329093	283.410	-0.350	-0.040	0.020	283.330	-1.500	0.400																			1580074210.0	11.98	22.19
26/01/2020 21:30:11	26012020	260120	213011	283.250	12.230363	-56.329150	283.310	-0.360	-0.180	-0.100	283.230	-1.600	0.200																			1580074211.0	12.30	22.78
26/01/2020 21:30:12	26012020	260120	213012	283.150	12.230375	-56.329208	283.200	-0.330	-0.190	-0.180	283.130	-1.600	0.200																			1580074212.0	12.45	23.06
26/01/2020 21:30:13	26012020	260120	213013	283.030	12.230385	-56.329265	283.070	-0.330	-0.010	-0.180	283.000	-1.400	0.200																			1580074213.0	12.26	22.71
26/01/2020 21:30:14	26012020	260120	213014	282.940	12.230397	-56.329320	282.990	-0.290	0.100	-0.190	282.930	-1.300	0.200																			1580074214.0	11.98	22.19
26/01/2020 21:30:15	26012020	260120	213015	282.970	12.230407	-56.329377	283.040	-0.070	-0.080	-0.220	282.990	-1.500	0.100																			1580074215.0	12.01	22.24
26/01/2020 21:30:16	26012020	260120	213016	283.110	12.230420	-56.329433	283.200	0.310	-0.420	-0.180	283.150	-1.800	0.200																			1580074216.0	12.30	22.78
26/01/2020 21:30:17	26012020	260120	213017	283.270	12.230432	-56.329490	283.340	0.630	-0.520	0.010	283.290	-1.900	0.400																			1580074217.0	12.44	23.04
26/01/2020 21:30:18	26012020	260120	213018	283.310	12.230447	-56.329547	283.350	0.620	-0.230	0.340	283.290	-1.600	0.700																			1580074218.0	12.14	22.48
26/01/2020 21:30:19	26012020	260120	213019	283.160	12.230462	-56.329598	283.190	0.240	0.160	0.510	283.120	-1.200	0.900																			1580074219.0	11.62	21.52
26/01/2020 21:30:20	26012020	260120	213020	282.920	12.230473	-56.329652	282.940	-0.280	0.230	0.320	282.870	-1.200	0.600																			1580074220.0	11.40	21.11
26/01/2020 21:30:21	26012020	260120	213021	282.730	12.230483	-56.329705	282.780	-0.560	-0.200	-0.090	282.710	-1.700	0.200																			1580074221.0	11.66	21.59
26/01/2020 21:30:22	26012020	260120	213022	282.700	12.230492	-56.329763	282.780	-0.410	-0.890	-0.420	282.720	-2.400	-0.100																			1580074222.0	12.19	22.58
26/01/2020 21:30:23	26012020	260120	213023	282.800	12.230500	-56.329822	282.880	0.050	-1.340	-0.490	282.830	-2.800	-0.100																			1580074223.0	12.56	23.26
26/01/2020 21:30:24	26012020	260120	213024	282.970	12.230510	-56.329880	283.050	0.500	-1.240	-0.230	283.000	-2.600	0.200																			1580074224.0	12.47	23.09
26/01/2020 21:30:25	26012020	260120	213025	283.130	12.230523	-56.329935	283.200	0.620	-0.670	0.140	283.150	-2.000	0.500																			1580074225.0	12.10	22.41
26/01/2020 21:30:26	26012020	260120	213026	283.200	12.230538	-56.329988	283.260	0.340	0.070	0.390	283.200	-1.300	0.800																			1580074226.0	11.80	21.85
26/01/2020 21:30:27	26012020	260120	213027	283.160	12.230552	-56.330042	283.190	-0.200	0.620	0.340	283.130	-0.700	0.700																			1580074227.0	11.69	21.65
26/01/2020 21:30:28	26012020	260120	213028	283.010	12.230563	-56.330097	283.030	-0.690	0.760	0.010	282.970	-0.700	0.300																			1580074228.0	11.80	21.85
26/01/2020 21:30:29	26012020	260120	213029	282.840	12.230572	-56.330153	282.860	-0.850	0.390	-0.380	282.820	-1.100	-0.100																			1580074229.0	12.08	22.37
26/01/2020 21:30:30	26012020	260120	213030	282.780	12.230578	-56.330212	282.830	-0.580	-0.270	-0.590	282.780	-1.800	-0.200																			1580074230.0	12.45	23.06
26/01/2020 21:30:31	26012020	260120	213031	282.840	12.230588	-56.330270	282.910	-0.040	-0.820	-0.470	282.870	-2.300	-0.100																			1580074231.0	12.64	23.41
26/01/2020 21:30:32	26012020	260120	213032	282.970	12.230600	-56.330328	283.030	0.460	-0.950	-0.110	282.990	-2.300	0.300																			1580074232.0	12.45	23.06
26/01/2020 21:30:33	26012020	260120	213033	283.040	12.230613	-56.330383	283.090	0.670	-0.690	0.250	283.050	-2.000	0.600																			1580074233.0	12.06	22.34
26/01/2020 21:30:34	26012020	260120	213034	283.060	12.230628	-56.330437	283.120	0.540	-0.260	0.460	283.070	-1.600	0.800																			1580074234.0	11.74	21.74
26/01/2020 21:30:35	26012020	260120	213035	283.060	12.230642	-56.330490	283.110	0.210	0.050	0.400	283.050	-1.300	0.700																			1580074235.0	11.60	21.48
26/01/2020 21:30:36	26012020	260120	213036	283.020	12.230653	-56.330545	283.060	-0.120	0.100	0.130	283.010	-1.300	0.400																			1580074236.0	11.73	21.72
26/01/2020 21:30:37	26012020	260120	213037	282.960	12.230663	-56.330600	283.000	-0.270	-0.080	-0.190	282.950	-1.500	0.100																			1580074237.0	12.00	22.22
26/01/2020 21:30:38	26012020	260120	213038	282.890	12.230673	-56.330657	282.920	-0.210	-0.310	-0.400	282.870	-1.700	-0.000																			1580074238.0	12.24	22.67
26/01/2020 21:30:39	26012020	260120	213039	282.810	12.230683	-56.330715	282.840	-0.060	-0.420	-0.350	282.780	-1.800	0.000																			1580074239.0	12.28	22.74
26/01/2020 21:30:40	26012020	260120	213040	282.690	12.230693	-56.330770	282.720	0.040	-0.370	-0.030	282.660	-1.800	0.400																			1580074240.0	12.13	22.46
26/01/2020 21:30:41	26012020	260120	213041	282.540	12.230705	-56.330827	282.580	0.060	-0.290	0.300	282.520	-1.700	0.700																			1580074241.0	11.95	22.13
26/01/2020 21:30:42	26012020	260120	213042	282.450	12.230718	-56.330880	282.510	0.070	-0.340	0.380	282.450	-1.800	0.700																			1580074242.0	11.91	22.06
26/01/2020 21:30:43	26012020	260120	213043	282.490	12.230730	-56.330937	282.570	0.110	-0.500	0.200	282.510	-1.900	0.500																			1580074243.0	12.06	22.34
26/01/2020 21:30:44	26012020	260120	213044	282.650	12.230742	-56.330993	282.740	0.130	-0.610	-0.060	282.690	-2.000	0.300																			1580074244.0	12.23	22.65
26/01/2020 21:30:45	26012020	260120	213045	282.880	12.230753	-56.331050	282.980	0.040	-0.500	-0.230	282.930	-1.900	0.100																			1580074245.0	12.21	22.61
26/01/2020 21:30:46	26012020	260120	213046	283.100	12.230763	-56.331105	283.190	-0.130	-0.250	-0.230	283.140	-1.600	0.100																			1580074246.0	12.04	22.30
26/01/2020 21:30:47	26012020	260120	213047	283.230	12.230775	-56.331160	283.290	-0.290	-0.040	-0.120	283.250	-1.400	0.300																			1580074247.0	11.91	22.06
26/01/2020 21:30:48	26012020	260120	213048	283.230	12.230787	-56.331217	283.270	-0.340	-0.020	0.060	283.220	-1.400	0.400																			1580074248.0	12.00	22.22
26/01/2020 21:30:49	26012020	260120	213049	283.140	12.230798	-56.331273	283.170	-0.260	-0.140	0.140	283.120	-1.600	0.500																			1580074249.0	12.20	22.59
26/01/2020 21:30:50	26012020	260120	213050	283.040	12.230810	-56.331330	283.080	-0.120	-0.260	0.070	283.030	-1.700	0.400																			1580074250.0	12.31	22.80
26/01/2020 21:30:51	26012020	260120	213051	282.980	12.230820	-56.331387	283.020	0.040	-0.290	-0.080	282.960	-1.700	0.300																			1580074251.0	12.27	22.72
26/01/2020 21:30:52	26012020	260120	213052	282.890	12.230830	-56.331443	282.930	0.200	-0.230	-0.130	282.870	-1.600	0.200																			1580074252.0	12.13	22.46
26/01/2020 21:30:53	26012020	260120	213053	282.760	12.230840	-56.331498	282.790	0.330	-0.140	-0.060	282.720	-1.500	0.300																			1580074253.0	12.01	22.24
26/01/2020 21:30:54	26012020	260120	213054	282.550	12.230852	-56.331553	282.560	0.350	-0.050	0.100	282.500	-1.400	0.500																			1580074254.0	11.94	22.11
26/01/2020 21:30:55	26012020	260120	213055	282.310	12.230865	-56.331608	282.330	0.250	-0.030	0.220	282.270	-1.400	0.600																			1580074255.0	11.89	22.02
26/01/2020 21:30:56	26012020	260120	213056	282.150	12.230877	-56.331663	282.200	0.050	-0.110	0.220	282.130	-1.500	0.600																			1580074256.0	11.86	21.96
26/01/2020 21:30:57	26012020	260120	213057	282.160	12.230888	-56.331718	282.240	-0.140	-0.300	0.060	282.190	-1.700	0.400																			1580074257.0	11.89	22.02
26/01/2020 21:30:58	26012020	260120	213058	282.400	12.230898	-56.331773	282.530	-0.190	-0.630	-0.230	282.480	-2.100	0.100																			1580074258.0	11.98	22.19
26/01/2020 21:30:59	26012020	260120	213059	282.830	12.230908	-56.331832	282.980	-0.030	-1.030	-0.480	282.930	-2.500	-0.100	1014.60	26.20	26.20	21.10	21.00	31.00	73.00	73.00	397.00	26.00	42.00	5.50	43.00	4.20	1626	3605.00	27.60	27.60	1580074259.0	12.17	22.54
26/01/2020 21:31:00	26012020	260120	213100	283.310	12.230918	-56.331888	283.440	0.250	-1.240	-0.450	283.390	-2.600	-0.100																			1580074260.0	12.44	23.04
26/01/2020 21:31:01	26012020	260120	213101	283.620	12.230930	-56.331947	283.710	0.390	-0.970	-0.120	283.650	-2.300	0.300																			1580074261.0	12.46	23.08
26/01/2020 21:31:02	26012020	260120	213102	283.670	12.230943	-56.332002	283.730	0.210	-0.190	0.260	283.650	-1.500	0.700																			1580074262.0	12.13	22.46
26/01/2020 21:31:03	26012020	260120	213103	283.480	12.230957	-56.332055	283.510	-0.270	0.640	0.440	283.420	-0.700	0.800																			1580074263.0	11.67	21.61
26/01/2020 21:31:04	26012020	260120	213104	283.150	12.230970	-56.332108	283.170	-0.720	0.930	0.280	283.080	-0.500	0.600																			1580074264.0	11.53	21.35
26/01/2020 21:31:05	26012020	260120	213105	282.830	12.230978	-56.332165	282.860	-0.830	0.470	-0.140	282.780	-1.000	0.200																			1580074265.0	11.94	22.11
26/01/2020 21:31:06	26012020	260120	213106	282.640	12.230987	-56.332223	282.690	-0.520	-0.380	-0.560	282.630	-1.900	-0.200																			1580074266.0	12.56	23.26
26/01/2020 21:31:07	26012020	260120	213107	282.620	12.230995	-56.332283	282.690	0.030	-1.030	-0.690	282.640	-2.500	-0.300																			1580074267.0	12.87	23.84
26/01/2020 21:31:08	26012020	260120	213108	282.710	12.231005	-56.332342	282.770	0.500	-1.070	-0.430	282.730	-2.400	-0.000																			1580074268.0	12.60	23.34
26/01/2020 21:31:09	26012020	260120	213109	282.770	12.231018	-56.332397	282.830	0.650	-0.520	0.020	282.780	-1.800	0.400																			1580074269.0	12.00	22.22
26/01/2020 21:31:10	26012020	260120	213110	282.810	12.231032	-56.332450	282.880	0.460	0.130	0.340	282.820	-1.200	0.700																			1580074270.0	11.48	21.26
26/01/2020 21:31:11	26012020	260120	213111	282.880	12.231047	-56.332502	282.960	0.160	0.410	0.370	282.900	-1.000	0.700																			1580074271.0	11.38	21.08
26/01/2020 21:31:12	26012020	260120	213112	283.010	12.231058	-56.332557	283.100	-0.030	0.110	0.100	283.040	-1.400	0.400																			1580074272.0	11.77	21.80
26/01/2020 21:31:13	26012020	260120	213113	283.190	12.231070	-56.332613	283.280	-0.060	-0.450	-0.280	283.230	-1.900	0.000																			1580074273.0	12.35	22.87
26/01/2020 21:31:14	26012020	260120	213114	283.360	12.231080	-56.332672	283.430	-0.040	-0.750	-0.510	283.370	-2.200	-0.200																			1580074274.0	12.62	23.37
26/01/2020 21:31:15	26012020	260120	213115	283.400	12.231090	-56.332730	283.450	-0.120	-0.610	-0.480	283.390	-2.000	-0.100																			1580074275.0	12.35	22.87
26/01/2020 21:31:16	26012020	260120	213116	283.320	12.231100	-56.332785	283.360	-0.290	-0.260	-0.260	283.300	-1.600	0.100																			1580074276.0	11.87	21.98
26/01/2020 21:31:17	26012020	260120	213117	283.220	12.231110	-56.332838	283.290	-0.360	-0.080	-0.050	283.210	-1.500	0.300																			1580074277.0	11.63	21.54
26/01/2020 21:31:18	26012020	260120	213118	283.210	12.231122	-56.332893	283.290	-0.180	-0.210	0.120	283.220	-1.600	0.500																			1580074278.0	11.83	21.91
26/01/2020 21:31:19	26012020	260120	213119	283.230	12.231133	-56.332950	283.310	0.170	-0.470	0.250	283.230	-1.900	0.600																			1580074279.0	12.18	22.56
26/01/2020 21:31:20	26012020	260120	213120	283.200	12.231147	-56.333007	283.270	0.440	-0.590	0.320	283.190	-2.000	0.700																			1580074280.0	12.35	22.87
26/01/2020 21:31:21	26012020	260120	213121	283.100	12.231160	-56.333063	283.150	0.450	-0.470	0.300	283.070	-1.800	0.600																			1580074281.0	12.23	22.65
26/01/2020 21:31:22	26012020	260120	213122	282.950	12.231172	-56.333118	282.990	0.240	-0.190	0.180	282.920	-1.600	0.500																			1580074282.0	12.03	22.28
26/01/2020 21:31:23	26012020	260120	213123	282.810	12.231183	-56.333173	282.850	-0.060	0.090	-0.030	282.790	-1.300	0.300																			1580074283.0	11.86	21.96
26/01/2020 21:31:24	26012020	260120	213124	282.760	12.231195	-56.333228	282.830	-0.270	0.140	-0.310	282.770	-1.300	0.000																			1580074284.0	11.82	21.89
26/01/2020 21:31:25	26012020	260120	213125	282.890	12.231205	-56.333283	282.970	-0.330	-0.140	-0.650	282.930	-1.600	-0.300																			1580074285.0	12.02	22.26
26/01/2020 21:31:26	26012020	260120	213126	283.200	12.231213	-56.333342	283.290	-0.240	-0.540	-0.920	283.270	-2.000	-0.600																			1580074286.0	12.35	22.87
26/01/2020 21:31:27	26012020	260120	213127	283.590	12.231223	-56.333400	283.680	-0.110	-0.730	-0.920	283.650	-2.100	-0.500																			1580074287.0	12.48	23.11
26/01/2020 21:31:28	26012020	260120	213128	283.890	12.231235	-56.333457	283.970	-0.000	-0.550	-0.570	283.930	-1.900	-0.200																			1580074288.0	12.29	22.76
26/01/2020 21:31:29	26012020	260120	213129	284.020	12.231248	-56.333512	284.080	0.040	-0.160	-0.110	284.030	-1.500	0.300																			1580074289.0	11.92	22.08
26/01/2020 21:31:30	26012020	260120	213130	283.980	12.231262	-56.333565	284.010	0.050	0.140	0.240	283.950	-1.300	0.600																			1580074290.0	11.73	21.72
26/01/2020 21:31:31	26012020	260120	213131	283.820	12.231273	-56.333620	283.850	0.070	0.120	0.360	283.780	-1.300	0.700																			1580074291.0	11.82	21.89
26/01/2020 21:31:32	26012020	260120	213132	283.610	12.231287	-56.333675	283.630	0.120	-0.150	0.290	283.560	-1.600	0.600																			1580074292.0	12.09	22.39
26/01/2020 21:31:33	26012020	260120	213133	283.320	12.231298	-56.333732	283.320	0.150	-0.420	0.180	283.250	-1.800	0.500																			1580074293.0	12.31	22.80
26/01/2020 21:31:34	26012020	260120	213134	282.980	12.231310	-56.333788	282.970	0.090	-0.440	0.110	282.910	-1.800	0.500																			1580074294.0	12.22	22.63
26/01/2020 21:31:35	26012020	260120	213135	282.670	12.231322	-56.333843	282.690	-0.060	-0.330	-0.020	282.640	-1.700	0.300																			1580074295.0	11.91	22.06
26/01/2020 21:31:36	26012020	260120	213136	282.580	12.231332	-56.333898	282.640	-0.130	-0.370	-0.260	282.590	-1.800	0.100																			1580074296.0	11.74	21.74
26/01/2020 21:31:37	26012020	260120	213137	282.720	12.231342	-56.333953	282.820	0.010	-0.620	-0.510	282.780	-2.000	-0.200																			1580074297.0	11.97	22.17
26/01/2020 21:31:38	26012020	260120	213138	283.060	12.231352	-56.334012	283.180	0.260	-0.770	-0.580	283.150	-2.200	-0.200																			1580074298.0	12.28	22.74
26/01/2020 21:31:39	26012020	260120	213139	283.450	12.231365	-56.334068	283.550	0.380	-0.580	-0.370	283.520	-1.900	0.000																			1580074299.0	12.30	22.78
26/01/2020 21:31:40	26012020	260120	213140	283.730	12.231378	-56.334123	283.820	0.200	-0.100	-0.050	283.770	-1.400	0.300																			1580074300.0	12.01	22.24
26/01/2020 21:31:41	26012020	260120	213141	283.890	12.231392	-56.334177	283.980	-0.170	0.310	0.070	283.920	-1.100	0.400																			1580074301.0	11.71	21.69
26/01/2020 21:31:42	26012020	260120	213142	283.990	12.231403	-56.334230	284.070	-0.430	0.330	-0.070	284.010	-1.100	0.300																			1580074302.0	11.73	21.72
26/01/2020 21:31:43	26012020	260120	213143	284.040	12.231413	-56.334287	284.100	-0.400	-0.050	-0.250	284.040	-1.500	0.100																			1580074303.0	12.10	22.41
26/01/2020 21:31:44	26012020	260120	213144	284.010	12.231423	-56.334345	284.050	-0.110	-0.490	-0.270	283.990	-1.900	0.100																			1580074304.0	12.48	23.11
26/01/2020 21:31:45	26012020	260120	213145	283.830	12.231435	-56.334403	283.860	0.180	-0.600	-0.080	283.780	-2.000	0.300																			1580074305.0	12.50	23.15
26/01/2020 21:31:46	26012020	260120	213146	283.580	12.231448	-56.334458	283.610	0.230	-0.330	0.130	283.530	-1.700	0.500																			1580074306.0	12.08	22.37
26/01/2020 21:31:47	26012020	260120	213147	283.360	12.231462	-56.334512	283.410	0.030	-0.030	0.140	283.330	-1.400	0.500																			1580074307.0	11.63	21.54
26/01/2020 21:31:48	26012020	260120	213148	283.260	12.231473	-56.334565	283.340	-0.190	-0.070	-0.090	283.260	-1.500	0.200																			1580074308.0	11.53	21.35
26/01/2020 21:31:49	26012020	260120	213149	283.330	12.231483	-56.334620	283.430	-0.180	-0.510	-0.430	283.370	-2.000	-0.100																			1580074309.0	11.91	22.06
26/01/2020 21:31:50	26012020	260120	213150	283.560	12.231493	-56.334678	283.680	0.060	-0.960	-0.660	283.620	-2.400	-0.300																			1580074310.0	12.42	23.00
26/01/2020 21:31:51	26012020	260120	213151	283.850	12.231503	-56.334737	283.950	0.290	-0.930	-0.580	283.900	-2.300	-0.200																			1580074311.0	12.53	23.21
26/01/2020 21:31:52	26012020	260120	213152	284.030	12.231517	-56.334792	284.110	0.280	-0.350	-0.250	284.050	-1.700	0.100																			1580074312.0	12.11	22.43
26/01/2020 21:31:53	26012020	260120	213153	284.060	12.231530	-56.334845	284.120	0.000	0.310	0.080	284.050	-1.000	0.500																			1580074313.0	11.59	21.46
26/01/2020 21:31:54	26012020	260120	213154	284.010	12.231543	-56.334898	284.070	-0.290	0.550	0.180	283.990	-0.900	0.500																			1580074314.0	11.50	21.30
26/01/2020 21:31:55	26012020	260120	213155	283.950	12.231557	-56.334953	284.010	-0.350	0.250	-0.010	283.940	-1.200	0.300																			1580074315.0	11.87	21.98
26/01/2020 21:31:56	26012020	260120	213156	283.920	12.231567	-56.335010	283.990	-0.120	-0.280	-0.250	283.920	-1.700	0.100																			1580074316.0	12.35	22.87
26/01/2020 21:31:57	26012020	260120	213157	283.940	12.231578	-56.335068	284.020	0.220	-0.640	-0.340	283.950	-2.100	0.000																			1580074317.0	12.50	23.15
26/01/2020 21:31:58	26012020	260120	213158	283.950	12.231590	-56.335125	284.020	0.410	-0.630	-0.190	283.940	-2.000	0.200																			1580074318.0	12.26	22.71
26/01/2020 21:31:59	26012020	260120	213159	283.860	12.231603	-56.335178	283.910	0.310	-0.370	0.030	283.830	-1.700	0.400	1014.60	26.20	26.20	21.00	21.00	26.00	73.00	73.00	394.00	26.00	41.00	5.30	46.00	4.10	1522	3539.00	27.60	27.60	1580074319.0	11.88	22.00
26/01/2020 21:32:00	26012020	260120	213200	283.700	12.231617	-56.335232	283.730	0.040	-0.120	0.100	283.660	-1.500	0.500																			1580074320.0	11.60	21.48
26/01/2020 21:32:01	26012020	260120	213201	283.550	12.231628	-56.335285	283.590	-0.200	-0.120	-0.030	283.530	-1.500	0.300																			1580074321.0	11.62	21.52
26/01/2020 21:32:02	26012020	260120	213202	283.520	12.231640	-56.335342	283.580	-0.230	-0.390	-0.280	283.530	-1.800	0.000																			1580074322.0	11.89	22.02
26/01/2020 21:32:03	26012020	260120	213203	283.610	12.231652	-56.335398	283.690	-0.090	-0.750	-0.490	283.640	-2.200	-0.100																			1580074323.0	12.24	22.67
26/01/2020 21:32:04	26012020	260120	213204	283.770	12.231662	-56.335455	283.840	0.090	-0.900	-0.520	283.800	-2.300	-0.100																			1580074324.0	12.40	22.96
26/01/2020 21:32:05	26012020	260120	213205	283.870	12.231673	-56.335512	283.930	0.180	-0.660	-0.290	283.880	-2.000	0.100																			1580074325.0	12.29	22.76
26/01/2020 21:32:06	26012020	260120	213206	283.840	12.231687	-56.335567	283.890	0.120	-0.130	0.010	283.820	-1.500	0.400																			1580074326.0	12.00	22.22
26/01/2020 21:32:07	26012020	260120	213207	283.700	12.231700	-56.335622	283.740	-0.080	0.390	0.230	283.660	-1.000	0.600																			1580074327.0	11.74	21.74
26/01/2020 21:32:08	26012020	260120	213208	283.530	12.231713	-56.335675	283.560	-0.300	0.610	0.290	283.490	-0.800	0.600																			1580074328.0	11.70	21.67
26/01/2020 21:32:09	26012020	260120	213209	283.380	12.231725	-56.335730	283.420	-0.400	0.420	0.200	283.350	-1.000	0.500																			1580074329.0	11.86	21.96
26/01/2020 21:32:10	26012020	260120	213210	283.270	12.231737	-56.335787	283.330	-0.280	-0.130	0.030	283.260	-1.600	0.400																			1580074330.0	12.14	22.48
26/01/2020 21:32:11	26012020	260120	213211	283.240	12.231747	-56.335843	283.320	0.020	-0.770	-0.160	283.250	-2.200	0.200																			1580074331.0	12.40	22.96
26/01/2020 21:32:12	26012020	260120	213212	283.320	12.231758	-56.335902	283.400	0.320	-1.140	-0.300	283.340	-2.500	0.000																			1580074332.0	12.48	23.11
26/01/2020 21:32:13	26012020	260120	213213	283.420	12.231770	-56.335958	283.490	0.440	-0.970	-0.200	283.430	-2.300	0.200																			1580074333.0	12.25	22.69
26/01/2020 21:32:14	26012020	260120	213214	283.420	12.231783	-56.336012	283.480	0.350	-0.410	0.170	283.410	-1.700	0.600																			1580074334.0	11.79	21.84
26/01/2020 21:32:15	26012020	260120	213215	283.300	12.231797	-56.336065	283.340	0.130	0.090	0.490	283.260	-1.300	0.900																			1580074335.0	11.49	21.28
26/01/2020 21:32:16	26012020	260120	213216	283.090	12.231810	-56.336118	283.130	-0.060	0.240	0.510	283.050	-1.200	0.800																			1580074336.0	11.59	21.46
26/01/2020 21:32:17	26012020	260120	213217	282.920	12.231822	-56.336173	282.970	-0.130	0.020	0.270	282.890	-1.400	0.600																			1580074337.0	11.93	22.09
26/01/2020 21:32:18	26012020	260120	213218	282.860	12.231833	-56.336230	282.920	-0.090	-0.370	-0.030	282.860	-1.800	0.300																			1580074338.0	12.28	22.74
26/01/2020 21:32:19	26012020	260120	213219	282.890	12.231843	-56.336288	282.960	-0.030	-0.600	-0.220	282.910	-2.000	0.100																			1580074339.0	12.42	23.00
26/01/2020 21:32:20	26012020	260120	213220	282.960	12.231853	-56.336345	283.010	-0.040	-0.500	-0.280	282.970	-1.900	0.100																			1580074340.0	12.25	22.69
26/01/2020 21:32:21	26012020	260120	213221	283.000	12.231865	-56.336400	283.040	-0.130	-0.210	-0.160	283.000	-1.600	0.200																			1580074341.0	11.89	22.02
26/01/2020 21:32:22	26012020	260120	213222	283.020	12.231877	-56.336453	283.060	-0.200	-0.050	0.040	283.030	-1.500	0.400																			1580074342.0	11.70	21.67
26/01/2020 21:32:23	26012020	260120	213223	283.080	12.231888	-56.336508	283.150	-0.120	-0.190	0.210	283.100	-1.600	0.600																			1580074343.0	11.89	22.02
26/01/2020 21:32:24	26012020	260120	213224	283.160	12.231900	-56.336565	283.230	0.080	-0.430	0.310	283.170	-1.800	0.700																			1580074344.0	12.22	22.63
26/01/2020 21:32:25	26012020	260120	213225	283.140	12.231912	-56.336622	283.180	0.280	-0.490	0.350	283.110	-1.900	0.700																			1580074345.0	12.36	22.89
26/01/2020 21:32:26	26012020	260120	213226	282.930	12.231925	-56.336678	282.940	0.340	-0.310	0.350	282.880	-1.700	0.700																			1580074346.0	12.19	22.58
26/01/2020 21:32:27	26012020	260120	213227	282.640	12.231937	-56.336733	282.650	0.210	-0.060	0.270	282.580	-1.400	0.600																			1580074347.0	11.93	22.09
26/01/2020 21:32:28	26012020	260120	213228	282.410	12.231947	-56.336788	282.440	-0.050	0.040	0.040	282.380	-1.400	0.400																			1580074348.0	11.79	21.84
26/01/2020 21:32:29	26012020	260120	213229	282.340	12.231957	-56.336843	282.390	-0.300	-0.080	-0.270	282.340	-1.500	0.000																			1580074349.0	11.87	21.98
26/01/2020 21:32:30	26012020	260120	213230	282.420	12.231967	-56.336900	282.500	-0.410	-0.340	-0.550	282.450	-1.800	-0.200																			1580074350.0	12.01	22.24
26/01/2020 21:32:31	26012020	260120	213231	282.630	12.231977	-56.336957	282.700	-0.310	-0.650	-0.710	282.680	-2.100	-0.400																			1580074351.0	12.16	22.52
26/01/2020 21:32:32	26012020	260120	213232	282.870	12.231987	-56.337013	282.930	-0.080	-0.820	-0.630	282.910	-2.200	-0.200																			1580074352.0	12.27	22.72
26/01/2020 21:32:33	26012020	260120	213233	283.000	12.231998	-56.337070	283.030	0.100	-0.670	-0.280	283.000	-2.000	0.100																			1580074353.0	12.25	22.69
26/01/2020 21:32:34	26012020	260120	213234	282.940	12.232012	-56.337125	282.950	0.090	-0.240	0.150	282.910	-1.600	0.600																			1580074354.0	12.00	22.22
26/01/2020 21:32:35	26012020	260120	213235	282.770	12.232023	-56.337180	282.790	-0.010	0.180	0.470	282.740	-1.200	0.900																			1580074355.0	11.75	21.76
26/01/2020 21:32:36	26012020	260120	213236	282.620	12.232035	-56.337233	282.660	-0.020	0.310	0.530	282.600	-1.100	0.900																			1580074356.0	11.75	21.76
26/01/2020 21:32:37	26012020	260120	213237	282.550	12.232047	-56.337288	282.600	0.150	0.070	0.390	282.550	-1.400	0.700																			1580074357.0	12.01	22.24
26/01/2020 21:32:38	26012020	260120	213238	282.530	12.232058	-56.337347	282.590	0.420	-0.330	0.220	282.530	-1.800	0.500																			1580074358.0	12.32	22.82
26/01/2020 21:32:39	26012020	260120	213239	282.530	12.232070	-56.337403	282.570	0.540	-0.560	0.090	282.530	-2.000	0.400																			1580074359.0	12.42	23.00
26/01/2020 21:32:40	26012020	260120	213240	282.500	12.232082	-56.337460	282.530	0.310	-0.420	0.010	282.490	-1.800	0.400																			1580074360.0	12.21	22.61
26/01/2020 21:32:41	26012020	260120	213241	282.450	12.232093	-56.337515	282.480	-0.170	-0.100	-0.110	282.440	-1.500	0.200																			1580074361.0	11.77	21.80
26/01/2020 21:32:42	26012020	260120	213242	282.440	12.232103	-56.337568	282.490	-0.580	0.010	-0.270	282.440	-1.400	0.100																			1580074362.0	11.52	21.34
26/01/2020 21:32:43	26012020	260120	213243	282.480	12.232112	-56.337623	282.530	-0.640	-0.300	-0.380	282.490	-1.800	-0.000																			1580074363.0	11.78	21.82
26/01/2020 21:32:44	26012020	260120	213244	282.540	12.232120	-56.337680	282.590	-0.330	-0.790	-0.330	282.550	-2.200	0.100																			1580074364.0	12.27	22.72
26/01/2020 21:32:45	26012020	260120	213245	282.580	12.232130	-56.337738	282.630	0.090	-1.050	-0.050	282.590	-2.400	0.400																			1580074365.0	12.55	23.24
26/01/2020 21:32:46	26012020	260120	213246	282.620	12.232143	-56.337797	282.660	0.330	-0.850	0.270	282.630	-2.200	0.600																			1580074366.0	12.38	22.93
26/01/2020 21:32:47	26012020	260120	213247	282.660	12.232155	-56.337852	282.700	0.250	-0.350	0.360	282.660	-1.700	0.700																			1580074367.0	12.00	22.22
26/01/2020 21:32:48	26012020	260120	213248	282.670	12.232167	-56.337905	282.710	-0.030	0.130	0.160	282.670	-1.200	0.500																			1580074368.0	11.73	21.72
26/01/2020 21:32:49	26012020	260120	213249	282.680	12.232177	-56.337960	282.720	-0.270	0.320	-0.130	282.690	-1.100	0.200																			1580074369.0	11.78	21.82
26/01/2020 21:32:50	26012020	260120	213250	282.750	12.232187	-56.338017	282.810	-0.320	0.210	-0.350	282.760	-1.200	-0.000																			1580074370.0	12.04	22.30
26/01/2020 21:32:51	26012020	260120	213251	282.830	12.232197	-56.338073	282.880	-0.170	0.010	-0.410	282.840	-1.400	-0.000																			1580074371.0	12.30	22.78
26/01/2020 21:32:52	26012020	260120	213252	282.830	12.232207	-56.338130	282.870	0.040	-0.060	-0.260	282.820	-1.400	0.100																			1580074372.0	12.30	22.78
26/01/2020 21:32:53	26012020	260120	213253	282.690	12.232218	-56.338187	282.700	0.200	0.010	0.080	282.650	-1.400	0.500																			1580074373.0	12.05	22.32
26/01/2020 21:32:54	26012020	260120	213254	282.500	12.232230	-56.338242	282.530	0.300	-0.030	0.370	282.480	-1.400	0.700																			1580074374.0	11.80	21.85
26/01/2020 21:32:55	26012020	260120	213255	282.410	12.232243	-56.338295	282.460	0.390	-0.350	0.410	282.410	-1.800	0.800																			1580074375.0	11.83	21.91
26/01/2020 21:32:56	26012020	260120	213256	282.430	12.232255	-56.338352	282.490	0.470	-0.790	0.150	282.440	-2.200	0.500																			1580074376.0	12.09	22.39
26/01/2020 21:32:57	26012020	260120	213257	282.520	12.232277	-56.338463	282.580	0.390	-1.010	-0.240	282.540	-2.400	0.100																			1580074377.0	12.06	22.34
26/01/2020 21:32:58	26012020	260120	213258	282.650	12.232277	-56.338463	282.690	0.070	-0.820	-0.540	282.670	-2.200	-0.200																			1580074378.0	12.06	22.34
26/01/2020 21:32:59	26012020	260120	213259	282.770	12.232285	-56.338518	282.810	-0.390	-0.440	-0.650	282.800	-1.800	-0.300	1014.60	26.20	26.20	21.10	21.00	21.00	73.00	73.00	392.00	26.00	40.00	5.60	41.00	4.10	1419	3579.00	27.60	27.60	1580074379.0	11.73	21.72
26/01/2020 21:33:00	26012020	260120	213300	282.900	12.232295	-56.338573	282.940	-0.700	-0.200	-0.610	282.920	-1.600	-0.200																			1580074380.0	11.93	22.09
26/01/2020 21:33:01	26012020	260120	213301	283.010	12.232303	-56.338628	283.050	-0.650	-0.240	-0.480	283.030	-1.700	-0.100																			1580074381.0	11.93	22.09
26/01/2020 21:33:02	26012020	260120	213302	283.070	12.232313	-56.338687	283.090	-0.310	-0.360	-0.300	283.080	-1.800	0.100																			1580074382.0	12.36	22.89
26/01/2020 21:33:03	26012020	260120	213303	283.060	12.232325	-56.338743	283.080	0.070	-0.320	-0.030	283.060	-1.700	0.400																			1580074383.0	12.48	23.11
26/01/2020 21:33:04	26012020	260120	213304	283.020	12.232338	-56.338800	283.030	0.260	-0.120	0.210	283.010	-1.500	0.600																			1580074384.0	12.30	22.78
26/01/2020 21:33:05	26012020	260120	213305	282.970	12.232352	-56.338857	282.990	0.210	0.040	0.250	282.950	-1.300	0.600																			1580074385.0	12.09	22.39
26/01/2020 21:33:06	26012020	260120	213306	282.920	12.232363	-56.338912	282.950	0.030	0.080	0.030	282.920	-1.300	0.300																			1580074386.0	12.03	22.28
26/01/2020 21:33:07	26012020	260120	213307	282.940	12.232373	-56.338968	282.980	-0.130	0.010	-0.270	282.950	-1.400	0.100																			1580074387.0	12.06	22.34
26/01/2020 21:33:08	26012020	260120	213308	283.040	12.232383	-56.339023	283.110	-0.160	-0.110	-0.490	283.060	-1.500	-0.200																			1580074388.0	12.12	22.45
26/01/2020 21:33:09	26012020	260120	213309	283.160	12.232393	-56.339080	283.220	-0.070	-0.230	-0.540	283.180	-1.600	-0.200																			1580074389.0	12.10	22.41
26/01/2020 21:33:10	26012020	260120	213310	283.230	12.232405	-56.339137	283.290	0.100	-0.290	-0.380	283.250	-1.700	0.000																			1580074390.0	12.06	22.34
26/01/2020 21:33:11	26012020	260120	213311	283.210	12.232417	-56.339192	283.250	0.230	-0.270	-0.040	283.200	-1.700	0.400																			1580074391.0	11.96	22.15
26/01/2020 21:33:12	26012020	260120	213312	283.060	12.232428	-56.339247	283.080	0.260	-0.230	0.240	283.020	-1.600	0.600																			1580074392.0	11.85	21.95
26/01/2020 21:33:13	26012020	260120	213313	282.840	12.232442	-56.339300	282.850	0.200	-0.250	0.280	282.800	-1.700	0.600																			1580074393.0	11.81	21.87
26/01/2020 21:33:14	26012020	260120	213314	282.660	12.232453	-56.339355	282.680	0.140	-0.390	0.080	282.630	-1.800	0.400																			1580074394.0	11.84	21.93
26/01/2020 21:33:15	26012020	260120	213315	282.600	12.232463	-56.339410	282.650	0.160	-0.640	-0.200	282.610	-2.100	0.100																			1580074395.0	11.95	22.13
26/01/2020 21:33:16	26012020	260120	213316	282.730	12.232473	-56.339467	282.800	0.250	-0.900	-0.420	282.770	-2.300	-0.100																			1580074396.0	12.15	22.50
26/01/2020 21:33:17	26012020	260120	213317	282.990	12.232483	-56.339525	283.070	0.280	-0.920	-0.470	283.050	-2.300	-0.100																			1580074397.0	12.27	22.72
26/01/2020 21:33:18	26012020	260120	213318	283.250	12.232497	-56.339580	283.310	0.100	-0.570	-0.330	283.300	-1.900	0.000																			1580074398.0	12.15	22.50
26/01/2020 21:33:19	26012020	260120	213319	283.380	12.232508	-56.339635	283.420	-0.260	-0.040	-0.160	283.380	-1.400	0.200																			1580074399.0	11.87	21.98
26/01/2020 21:33:20	26012020	260120	213320	283.370	12.232520	-56.339688	283.410	-0.620	0.290	-0.110	283.360	-1.100	0.200																			1580074400.0	11.74	21.74
26/01/2020 21:33:21	26012020	260120	213321	283.360	12.232530	-56.339745	283.400	-0.740	0.180	-0.260	283.360	-1.200	0.100																			1580074401.0	11.97	22.17
26/01/2020 21:33:22	26012020	260120	213322	283.420	12.232540	-56.339803	283.480	-0.520	-0.250	-0.470	283.440	-1.700	-0.100																			1580074402.0	12.43	23.02
26/01/2020 21:33:23	26012020	260120	213323	283.520	12.232550	-56.339862	283.570	-0.100	-0.560	-0.460	283.530	-1.900	-0.100																			1580074403.0	12.75	23.61
26/01/2020 21:33:24	26012020	260120	213324	283.520	12.232560	-56.339920	283.550	0.240	-0.390	-0.170	283.500	-1.700	0.200																			1580074404.0	12.57	23.28
26/01/2020 21:33:25	26012020	260120	213325	283.350	12.232573	-56.339975	283.360	0.320	0.140	0.210	283.300	-1.200	0.600																			1580074405.0	12.00	22.22
26/01/2020 21:33:26	26012020	260120	213326	283.100	12.232587	-56.340028	283.120	0.160	0.530	0.410	283.060	-0.800	0.800																			1580074406.0	11.51	21.32
26/01/2020 21:33:27	26012020	260120	213327	282.910	12.232600	-56.340082	282.950	-0.020	0.440	0.260	282.880	-1.000	0.600																			1580074407.0	11.49	21.28
26/01/2020 21:33:28	26012020	260120	213328	282.830	12.232610	-56.340137	282.900	0.000	-0.120	-0.070	282.840	-1.600	0.200																			1580074408.0	11.84	21.93
26/01/2020 21:33:29	26012020	260120	213329	282.910	12.232620	-56.340193	282.980	0.260	-0.840	-0.410	282.940	-2.300	-0.100																			1580074409.0	12.25	22.69
26/01/2020 21:33:30	26012020	260120	213330	283.080	12.232632	-56.340250	283.160	0.570	-1.290	-0.570	283.110	-2.700	-0.200																			1580074410.0	12.43	23.02
26/01/2020 21:33:31	26012020	260120	213331	283.270	12.232642	-56.340307	283.350	0.650	-1.170	-0.490	283.310	-2.500	-0.100																			1580074411.0	12.25	22.69
26/01/2020 21:33:32	26012020	260120	213332	283.440	12.232655	-56.340362	283.500	0.400	-0.600	-0.290	283.460	-1.900	0.100																			1580074412.0	11.80	21.85
26/01/2020 21:33:33	26012020	260120	213333	283.550	12.232668	-56.340415	283.600	-0.050	-0.030	-0.150	283.560	-1.400	0.200																			1580074413.0	11.50	21.30
26/01/2020 21:33:34	26012020	260120	213334	283.600	12.232680	-56.340468	283.640	-0.440	0.210	-0.140	283.600	-1.200	0.200																			1580074414.0	11.59	21.46
26/01/2020 21:33:35	26012020	260120	213335	283.630	12.232692	-56.340523	283.680	-0.630	0.060	-0.310	283.640	-1.400	0.000																			1580074415.0	12.00	22.22
26/01/2020 21:33:36	26012020	260120	213336	283.690	12.232700	-56.340582	283.730	-0.610	-0.220	-0.530	283.700	-1.600	-0.200																			1580074416.0	12.39	22.95
26/01/2020 21:33:37	26012020	260120	213337	283.730	12.232710	-56.340640	283.790	-0.430	-0.430	-0.620	283.740	-1.800	-0.300																			1580074417.0	12.49	23.13
26/01/2020 21:33:38	26012020	260120	213338	283.770	12.232720	-56.340697	283.820	-0.150	-0.470	-0.520	283.770	-1.800	-0.100																			1580074418.0	12.36	22.89
26/01/2020 21:33:39	26012020	260120	213339	283.780	12.232732	-56.340753	283.820	0.120	-0.370	-0.230	283.780	-1.700	0.200																			1580074419.0	12.19	22.58
26/01/2020 21:33:40	26012020	260120	213340	283.760	12.232745	-56.340808	283.800	0.270	-0.200	0.150	283.750	-1.600	0.500																			1580074420.0	12.04	22.30
26/01/2020 21:33:41	26012020	260120	213341	283.690	12.232760	-56.340863	283.720	0.250	-0.060	0.410	283.660	-1.400	0.800																			1580074421.0	11.98	22.19
26/01/2020 21:33:42	26012020	260120	213342	283.550	12.232773	-56.340918	283.590	0.130	-0.000	0.380	283.530	-1.400	0.700																			1580074422.0	11.96	22.15
26/01/2020 21:33:43	26012020	260120	213343	283.440	12.232787	-56.340973	283.490	0.040	-0.080	0.110	283.420	-1.500	0.400																			1580074423.0	11.99	22.21
26/01/2020 21:33:44	26012020	260120	213344	283.380	12.232797	-56.341030	283.430	0.030	-0.250	-0.170	283.380	-1.700	0.200																			1580074424.0	12.08	22.37
26/01/2020 21:33:45	26012020	260120	213345	283.360	12.232808	-56.341087	283.410	0.050	-0.380	-0.360	283.360	-1.800	-0.000																			1580074425.0	12.14	22.48
26/01/2020 21:33:46	26012020	260120	213346	283.350	12.232818	-56.341142	283.410	0.020	-0.330	-0.400	283.360	-1.700	-0.000																			1580074426.0	12.05	22.32
26/01/2020 21:33:47	26012020	260120	213347	283.400	12.232830	-56.341197	283.460	-0.070	-0.210	-0.310	283.420	-1.600	0.100																			1580074427.0	11.83	21.91
26/01/2020 21:33:48	26012020	260120	213348	283.490	12.232842	-56.341252	283.580	-0.080	-0.220	-0.140	283.520	-1.600	0.200																			1580074428.0	11.73	21.72
26/01/2020 21:33:49	26012020	260120	213349	283.650	12.232853	-56.341307	283.760	0.090	-0.460	-0.050	283.700	-1.900	0.300																			1580074429.0	11.91	22.06
26/01/2020 21:33:50	26012020	260120	213350	283.890	12.232865	-56.341362	284.000	0.360	-0.700	-0.040	283.940	-2.100	0.300																			1580074430.0	12.21	22.61
26/01/2020 21:33:51	26012020	260120	213351	284.090	12.232878	-56.341420	284.170	0.510	-0.690	0.010	284.110	-2.000	0.400																			1580074431.0	12.33	22.84
26/01/2020 21:33:52	26012020	260120	213352	284.120	12.232892	-56.341475	284.180	0.350	-0.360	0.130	284.110	-1.700	0.500																			1580074432.0	12.15	22.50
26/01/2020 21:33:53	26012020	260120	213353	284.010	12.232905	-56.341530	284.060	-0.060	0.100	0.150	283.990	-1.200	0.500																			1580074433.0	11.84	21.93
26/01/2020 21:33:54	26012020	260120	213354	283.860	12.232917	-56.341583	283.890	-0.480	0.320	-0.030	283.820	-1.100	0.300																			1580074434.0	11.67	21.61
26/01/2020 21:33:55	26012020	260120	213355	283.730	12.232927	-56.341638	283.780	-0.640	0.090	-0.310	283.710	-1.300	0.000																			1580074435.0	11.88	22.00
26/01/2020 21:33:56	26012020	260120	213356	283.690	12.232937	-56.341695	283.740	-0.480	-0.420	-0.470	283.690	-1.900	-0.100																			1580074436.0	12.32	22.82
26/01/2020 21:33:57	26012020	260120	213357	283.660	12.232947	-56.341755	283.700	-0.130	-0.820	-0.340	283.640	-2.200	0.100																			1580074437.0	12.58	23.30
26/01/2020 21:33:58	26012020	260120	213358	283.580	12.232960	-56.341812	283.620	0.190	-0.850	-0.040	283.560	-2.200	0.300																			1580074438.0	12.45	23.06
26/01/2020 21:33:59	26012020	260120	213359	283.520	12.232973	-56.341867	283.580	0.340	-0.590	0.120	283.520	-1.900	0.500	1014.60	26.20	26.20	21.10	21.10	19.00	73.00	73.00	392.00	26.00	43.00	5.80	40.00	4.40	1318	3684.00	27.70	27.60	1580074439.0	12.12	22.45
26/01/2020 21:34:00	26012020	260120	213400	283.560	12.232987	-56.341922	283.650	0.260	-0.250	0.010	283.590	-1.600	0.300																			1580074440.0	11.87	21.98
26/01/2020 21:34:01	26012020	260120	213401	283.720	12.232998	-56.341977	283.810	0.030	0.020	-0.270	283.760	-1.300	0.000																			1580074441.0	11.83	21.91
26/01/2020 21:34:02	26012020	260120	213402	283.890	12.233020	-56.342087	283.970	-0.240	0.160	-0.550	283.920	-1.200	-0.200																			1580074442.0	12.00	22.22
26/01/2020 21:34:03	26012020	260120	213403	284.010	12.233020	-56.342087	284.070	-0.370	0.130	-0.710	284.030	-1.300	-0.400																			1580074443.0	12.00	22.22
26/01/2020 21:34:04	26012020	260120	213404	284.060	12.233030	-56.342143	284.110	-0.290	0.000	-0.620	284.060	-1.400	-0.200																			1580074444.0	12.12	22.45
26/01/2020 21:34:05	26012020	260120	213405	284.030	12.233042	-56.342200	284.060	-0.020	-0.130	-0.270	284.010	-1.500	0.100																			1580074445.0	12.15	22.50
26/01/2020 21:34:06	26012020	260120	213406	283.930	12.233053	-56.342255	283.970	0.290	-0.250	0.150	283.900	-1.600	0.500																			1580074446.0	12.09	22.39
26/01/2020 21:34:07	26012020	260120	213407	283.800	12.233068	-56.342310	283.840	0.480	-0.340	0.420	283.770	-1.700	0.800																			1580074447.0	12.03	22.28
26/01/2020 21:34:08	26012020	260120	213408	283.700	12.233082	-56.342365	283.760	0.480	-0.420	0.380	283.690	-1.800	0.700																			1580074448.0	11.97	22.17
26/01/2020 21:34:09	26012020	260120	213409	283.660	12.233095	-56.342420	283.720	0.340	-0.490	0.150	283.660	-1.900	0.500																			1580074449.0	11.97	22.17
26/01/2020 21:34:10	26012020	260120	213410	283.650	12.233107	-56.342475	283.700	0.140	-0.550	-0.110	283.650	-1.900	0.200																			1580074450.0	11.97	22.17
26/01/2020 21:34:11	26012020	260120	213411	283.640	12.233120	-56.342530	283.680	-0.080	-0.570	-0.300	283.640	-1.900	0.000																			1580074451.0	11.99	22.21
26/01/2020 21:34:12	26012020	260120	213412	283.640	12.233130	-56.342587	283.700	-0.270	-0.600	-0.460	283.650	-2.000	-0.100																			1580074452.0	12.04	22.30
26/01/2020 21:34:13	26012020	260120	213413	283.710	12.233142	-56.342643	283.770	-0.360	-0.580	-0.570	283.730	-1.900	-0.200																			1580074453.0	12.13	22.46
26/01/2020 21:34:14	26012020	260120	213414	283.810	12.233152	-56.342700	283.860	-0.360	-0.410	-0.500	283.830	-1.800	-0.100																			1580074454.0	12.17	22.54
26/01/2020 21:34:15	26012020	260120	213415	283.900	12.233163	-56.342755	283.960	-0.290	-0.140	-0.260	283.920	-1.500	0.100																			1580074455.0	12.06	22.34
26/01/2020 21:34:16	26012020	260120	213416	283.950	12.233177	-56.342810	284.010	-0.180	0.010	-0.020	283.950	-1.400	0.400																			1580074456.0	11.98	22.19
26/01/2020 21:34:17	26012020	260120	213417	283.970	12.233188	-56.342867	284.040	-0.030	-0.070	0.030	283.980	-1.500	0.400																			1580074457.0	12.10	22.41
26/01/2020 21:34:18	26012020	260120	213418	284.030	12.233202	-56.342923	284.100	0.120	-0.200	-0.090	284.040	-1.600	0.200																			1580074458.0	12.31	22.80
26/01/2020 21:34:19	26012020	260120	213419	284.050	12.233213	-56.342980	284.090	0.170	-0.210	-0.150	284.040	-1.600	0.200																			1580074459.0	12.36	22.89
26/01/2020 21:34:20	26012020	260120	213420	283.970	12.233227	-56.343037	284.000	0.100	-0.060	-0.070	283.930	-1.400	0.300																			1580074460.0	12.16	22.52
26/01/2020 21:34:21	26012020	260120	213421	283.770	12.233238	-56.343092	283.790	-0.020	0.050	0.010	283.720	-1.300	0.400																			1580074461.0	11.93	22.09
26/01/2020 21:34:22	26012020	260120	213422	283.530	12.233252	-56.343145	283.540	-0.080	0.010	0.060	283.480	-1.400	0.400																			1580074462.0	11.91	22.06
26/01/2020 21:34:23	26012020	260120	213423	283.300	12.233263	-56.343202	283.320	-0.070	-0.150	0.120	283.260	-1.500	0.500																			1580074463.0	12.04	22.30
26/01/2020 21:34:24	26012020	260120	213424	283.130	12.233275	-56.343257	283.160	0.010	-0.320	0.210	283.100	-1.700	0.600																			1580074464.0	12.06	22.34
26/01/2020 21:34:25	26012020	260120	213425	283.040	12.233288	-56.343313	283.090	0.130	-0.500	0.300	283.030	-1.900	0.700																			1580074465.0	12.04	22.30
26/01/2020 21:34:26	26012020	260120	213426	283.050	12.233300	-56.343368	283.110	0.290	-0.640	0.400	283.050	-2.000	0.800																			1580074466.0	12.05	22.32
26/01/2020 21:34:27	26012020	260120	213427	283.090	12.233312	-56.343423	283.140	0.410	-0.660	0.520	283.090	-2.000	0.900																			1580074467.0	12.05	22.32
26/01/2020 21:34:28	26012020	260120	213428	283.100	12.233325	-56.343478	283.160	0.390	-0.540	0.610	283.100	-1.900	1.000																			1580074468.0	12.01	22.24
26/01/2020 21:34:29	26012020	260120	213429	283.120	12.233338	-56.343533	283.180	0.240	-0.370	0.580	283.130	-1.700	0.900																			1580074469.0	11.91	22.06
26/01/2020 21:34:30	26012020	260120	213430	283.150	12.233352	-56.343588	283.200	0.000	-0.250	0.400	283.150	-1.600	0.700																			1580074470.0	11.92	22.08
26/01/2020 21:34:31	26012020	260120	213431	283.140	12.233362	-56.343643	283.180	-0.260	-0.160	0.150	283.130	-1.500	0.500																			1580074471.0	12.02	22.26
26/01/2020 21:34:32	26012020	260120	213432	283.110	12.233372	-56.343700	283.170	-0.470	-0.130	-0.100	283.100	-1.500	0.200																			1580074472.0	12.06	22.34
26/01/2020 21:34:33	26012020	260120	213433	283.140	12.233382	-56.343757	283.220	-0.530	-0.250	-0.330	283.160	-1.700	0.000																			1580074473.0	12.11	22.43
26/01/2020 21:34:34	26012020	260120	213434	283.310	12.233392	-56.343813	283.410	-0.340	-0.540	-0.480	283.360	-1.900	-0.100																			1580074474.0	12.30	22.78
26/01/2020 21:34:35	26012020	260120	213435	283.540	12.233402	-56.343872	283.630	0.000	-0.730	-0.460	283.580	-2.100	-0.100																			1580074475.0	12.55	23.24
26/01/2020 21:34:36	26012020	260120	213436	283.650	12.233413	-56.343930	283.710	0.240	-0.520	-0.210	283.650	-1.800	0.200																			1580074476.0	12.53	23.21
26/01/2020 21:34:37	26012020	260120	213437	283.580	12.233427	-56.343987	283.630	0.170	0.040	0.130	283.540	-1.300	0.500																			1580074477.0	12.13	22.46
26/01/2020 21:34:38	26012020	260120	213438	283.360	12.233440	-56.344040	283.390	-0.120	0.540	0.370	283.300	-0.800	0.700																			1580074478.0	11.70	21.67
26/01/2020 21:34:39	26012020	260120	213439	283.060	12.233452	-56.344093	283.090	-0.360	0.610	0.390	283.000	-0.800	0.700																			1580074479.0	11.64	21.56
26/01/2020 21:34:40	26012020	260120	213440	282.780	12.233463	-56.344148	282.820	-0.340	0.200	0.180	282.740	-1.300	0.500																			1580074480.0	11.95	22.13
26/01/2020 21:34:41	26012020	260120	213441	282.620	12.233473	-56.344207	282.670	-0.050	-0.430	-0.060	282.600	-1.900	0.300																			1580074481.0	12.31	22.80
26/01/2020 21:34:42	26012020	260120	213442	282.580	12.233483	-56.344263	282.630	0.310	-0.860	-0.110	282.580	-2.300	0.300																			1580074482.0	12.44	23.04
26/01/2020 21:34:43	26012020	260120	213443	282.590	12.233495	-56.344320	282.650	0.520	-0.870	0.060	282.590	-2.200	0.400																			1580074483.0	12.24	22.67
26/01/2020 21:34:44	26012020	260120	213444	282.650	12.233508	-56.344375	282.710	0.480	-0.560	0.260	282.670	-1.900	0.600																			1580074484.0	11.85	21.95
26/01/2020 21:34:45	26012020	260120	213445	282.780	12.233522	-56.344428	282.850	0.290	-0.230	0.330	282.810	-1.600	0.700																			1580074485.0	11.59	21.46
26/01/2020 21:34:46	26012020	260120	213446	282.950	12.233533	-56.344482	283.020	0.100	-0.160	0.180	282.980	-1.600	0.500																			1580074486.0	11.64	21.56
26/01/2020 21:34:47	26012020	260120	213447	283.120	12.233545	-56.344537	283.170	0.020	-0.370	-0.110	283.150	-1.800	0.200																			1580074487.0	11.98	22.19
26/01/2020 21:34:48	26012020	260120	213448	283.210	12.233555	-56.344595	283.240	-0.010	-0.600	-0.350	283.210	-2.000	-0.000																			1580074488.0	12.35	22.87
26/01/2020 21:34:49	26012020	260120	213449	283.200	12.233565	-56.344652	283.220	-0.100	-0.570	-0.440	283.190	-1.900	-0.100																			1580074489.0	12.42	23.00
26/01/2020 21:34:50	26012020	260120	213450	283.160	12.233577	-56.344708	283.190	-0.250	-0.320	-0.350	283.150	-1.700	0.000																			1580074490.0	12.15	22.50
26/01/2020 21:34:51	26012020	260120	213451	283.150	12.233587	-56.344765	283.180	-0.310	-0.170	-0.130	283.150	-1.500	0.200																			1580074491.0	11.94	22.11
26/01/2020 21:34:52	26012020	260120	213452	283.140	12.233600	-56.344820	283.180	-0.260	-0.230	0.040	283.130	-1.600	0.400																			1580074492.0	12.13	22.46
26/01/2020 21:34:53	26012020	260120	213453	283.090	12.233612	-56.344878	283.120	-0.190	-0.300	0.090	283.080	-1.700	0.400																			1580074493.0	12.39	22.95
26/01/2020 21:34:54	26012020	260120	213454	282.990	12.233623	-56.344935	282.990	-0.250	-0.140	0.060	282.950	-1.500	0.400																			1580074494.0	12.37	22.91
26/01/2020 21:34:55	26012020	260120	213455	282.810	12.233633	-56.344990	282.800	-0.430	0.170	-0.010	282.770	-1.200	0.300																			1580074495.0	12.06	22.34
26/01/2020 21:34:56	26012020	260120	213456	282.640	12.233643	-56.345045	282.650	-0.530	0.290	-0.150	282.610	-1.100	0.200																			1580074496.0	11.77	21.80
26/01/2020 21:34:57	26012020	260120	213457	282.560	12.233653	-56.345102	282.600	-0.300	-0.040	-0.360	282.560	-1.500	-0.000																			1580074497.0	11.89	22.02
26/01/2020 21:34:58	26012020	260120	213458	282.630	12.233662	-56.345158	282.680	0.250	-0.570	-0.460	282.650	-2.000	-0.100																			1580074498.0	12.31	22.80
26/01/2020 21:34:59	26012020	260120	213459	282.760	12.233673	-56.345217	282.810	0.790	-0.790	-0.250	282.780	-2.200	0.200	1014.60	26.10	26.10	21.00	21.00	17.00	73.00	73.00	393.00	26.00	39.00	5.80	39.00	4.10	1220	3717.00	27.70	27.60	1580074499.0	12.51	23.17
26/01/2020 21:35:00	26012020	260120	213500	282.800	12.233688	-56.345272	282.820	0.950	-0.510	0.180	282.780	-1.800	0.600																			1580074500.0	12.21	22.61
26/01/2020 21:35:01	26012020	260120	213501	282.670	12.233703	-56.345325	282.700	0.690	-0.030	0.500	282.640	-1.400	0.900																			1580074501.0	11.68	21.63
26/01/2020 21:35:02	26012020	260120	213502	282.480	12.233717	-56.345377	282.510	0.290	0.170	0.460	282.450	-1.200	0.800																			1580074502.0	11.46	21.22
26/01/2020 21:35:03	26012020	260120	213503	282.360	12.233728	-56.345432	282.410	0.010	-0.060	0.110	282.360	-1.500	0.400																			1580074503.0	11.73	21.72
26/01/2020 21:35:04	26012020	260120	213504	282.370	12.233738	-56.345488	282.430	-0.090	-0.450	-0.260	282.380	-1.900	0.100																			1580074504.0	12.18	22.56
26/01/2020 21:35:05	26012020	260120	213505	282.430	12.233748	-56.345547	282.480	-0.150	-0.670	-0.410	282.430	-2.100	-0.100																			1580074505.0	12.34	22.85
26/01/2020 21:35:06	26012020	260120	213506	282.440	12.233758	-56.345603	282.490	-0.270	-0.640	-0.300	282.440	-2.000	0.100																			1580074506.0	12.16	22.52
26/01/2020 21:35:07	26012020	260120	213507	282.420	12.233768	-56.345658	282.460	-0.420	-0.520	-0.130	282.410	-1.900	0.200																			1580074507.0	11.94	22.11
26/01/2020 21:35:08	26012020	260120	213508	282.420	12.233778	-56.345713	282.480	-0.450	-0.540	-0.050	282.430	-1.900	0.300																			1580074508.0	11.94	22.11
26/01/2020 21:35:09	26012020	260120	213509	282.530	12.233788	-56.345770	282.620	-0.280	-0.700	-0.040	282.570	-2.100	0.300																			1580074509.0	12.23	22.65
26/01/2020 21:35:10	26012020	260120	213510	282.720	12.233800	-56.345828	282.800	0.000	-0.730	-0.000	282.760	-2.100	0.400																			1580074510.0	12.52	23.19
26/01/2020 21:35:11	26012020	260120	213511	282.860	12.233812	-56.345887	282.930	0.190	-0.440	0.110	282.870	-1.800	0.500																			1580074511.0	12.50	23.15
26/01/2020 21:35:12	26012020	260120	213512	282.860	12.233823	-56.345943	282.890	0.140	0.130	0.240	282.830	-1.200	0.600																			1580074512.0	12.23	22.65
26/01/2020 21:35:13	26012020	260120	213513	282.690	12.233835	-56.345998	282.700	-0.160	0.730	0.240	282.640	-0.600	0.600																			1580074513.0	11.90	22.04
26/01/2020 21:35:14	26012020	260120	213514	282.390	12.233847	-56.346052	282.390	-0.500	1.000	0.030	282.320	-0.400	0.400																			1580074514.0	11.68	21.63
26/01/2020 21:35:15	26012020	260120	213515	282.090	12.233855	-56.346107	282.090	-0.580	0.660	-0.260	282.040	-0.800	0.100																			1580074515.0	11.75	21.76
26/01/2020 21:35:16	26012020	260120	213516	281.960	12.233863	-56.346163	282.020	-0.250	-0.210	-0.500	281.970	-1.700	-0.200																			1580074516.0	12.17	22.54
26/01/2020 21:35:17	26012020	260120	213517	282.070	12.233873	-56.346222	282.150	0.380	-1.090	-0.510	282.110	-2.500	-0.100																			1580074517.0	12.59	23.32
26/01/2020 21:35:18	26012020	260120	213518	282.240	12.233885	-56.346280	282.310	0.940	-1.360	-0.170	282.260	-2.700	0.200																			1580074518.0	12.56	23.26
26/01/2020 21:35:19	26012020	260120	213519	282.310	12.233898	-56.346335	282.360	1.080	-0.950	0.330	282.310	-2.300	0.700																			1580074519.0	12.04	22.30
26/01/2020 21:35:20	26012020	260120	213520	282.300	12.233913	-56.346388	282.360	0.800	-0.310	0.640	282.300	-1.600	1.000																			1580074520.0	11.46	21.22
26/01/2020 21:35:21	26012020	260120	213521	282.310	12.233927	-56.346440	282.380	0.300	0.110	0.550	282.320	-1.300	0.900																			1580074521.0	11.36	21.04
26/01/2020 21:35:22	26012020	260120	213522	282.390	12.233938	-56.346493	282.470	-0.150	0.120	0.160	282.420	-1.300	0.500																			1580074522.0	11.64	21.56
26/01/2020 21:35:23	26012020	260120	213523	282.560	12.233948	-56.346550	282.650	-0.400	-0.220	-0.300	282.610	-1.700	0.000																			1580074523.0	12.08	22.37
26/01/2020 21:35:24	26012020	260120	213524	282.840	12.233957	-56.346608	282.940	-0.420	-0.690	-0.760	282.910	-2.100	-0.400																			1580074524.0	12.44	23.04
26/01/2020 21:35:25	26012020	260120	213525	283.190	12.233963	-56.346667	283.270	-0.320	-0.970	-1.030	283.250	-2.400	-0.700																			1580074525.0	12.65	23.43
26/01/2020 21:35:26	26012020	260120	213526	283.430	12.233973	-56.346725	283.470	-0.280	-0.750	-0.850	283.450	-2.100	-0.400																			1580074526.0	12.51	23.17
26/01/2020 21:35:27	26012020	260120	213527	283.440	12.233983	-56.346782	283.450	-0.390	-0.140	-0.320	283.420	-1.400	0.100																			1580074527.0	12.05	22.32
26/01/2020 21:35:28	26012020	260120	213528	283.270	12.233995	-56.346835	283.280	-0.530	0.390	0.230	283.210	-1.000	0.600																			1580074528.0	11.63	21.54
26/01/2020 21:35:29	26012020	260120	213529	282.960	12.234008	-56.346888	282.970	-0.490	0.460	0.550	282.890	-1.000	0.900																			1580074529.0	11.67	21.61
26/01/2020 21:35:30	26012020	260120	213530	282.690	12.234020	-56.346945	282.710	-0.180	0.060	0.470	282.650	-1.400	0.800																			1580074530.0	12.10	22.41
26/01/2020 21:35:31	26012020	260120	213531	282.590	12.234030	-56.347003	282.650	0.290	-0.440	0.220	282.580	-1.900	0.500																			1580074531.0	12.49	23.13
26/01/2020 21:35:32	26012020	260120	213532	282.620	12.234042	-56.347062	282.680	0.650	-0.620	0.050	282.640	-2.000	0.400																			1580074532.0	12.51	23.17
26/01/2020 21:35:33	26012020	260120	213533	282.720	12.234055	-56.347117	282.790	0.690	-0.430	-0.030	282.750	-1.800	0.300																			1580074533.0	12.12	22.45
26/01/2020 21:35:34	26012020	260120	213534	282.880	12.234067	-56.347170	282.940	0.420	-0.130	-0.090	282.910	-1.500	0.300																			1580074534.0	11.70	21.67
26/01/2020 21:35:35	26012020	260120	213535	283.050	12.234080	-56.347223	283.110	0.080	-0.010	-0.150	283.080	-1.400	0.200																			1580074535.0	11.58	21.45
26/01/2020 21:35:36	26012020	260120	213536	283.200	12.234092	-56.347278	283.260	-0.120	-0.160	-0.180	283.230	-1.600	0.200																			1580074536.0	11.77	21.80
26/01/2020 21:35:37	26012020	260120	213537	283.320	12.234102	-56.347335	283.360	-0.090	-0.490	-0.110	283.330	-1.900	0.300																			1580074537.0	12.10	22.41
26/01/2020 21:35:38	26012020	260120	213538	283.370	12.234113	-56.347392	283.420	0.060	-0.710	0.080	283.370	-2.100	0.500																			1580074538.0	12.34	22.85
26/01/2020 21:35:39	26012020	260120	213539	283.340	12.234125	-56.347448	283.360	0.160	-0.590	0.280	283.320	-1.900	0.700																			1580074539.0	12.30	22.78
26/01/2020 21:35:40	26012020	260120	213540	283.200	12.234137	-56.347503	283.210	0.090	-0.170	0.380	283.160	-1.500	0.700																			1580074540.0	11.96	22.15
26/01/2020 21:35:41	26012020	260120	213541	282.990	12.234147	-56.347558	283.000	-0.130	0.200	0.330	282.940	-1.200	0.700																			1580074541.0	11.64	21.56
26/01/2020 21:35:42	26012020	260120	213542	282.820	12.234158	-56.347612	282.850	-0.350	0.140	0.090	282.800	-1.300	0.400																			1580074542.0	11.62	21.52
26/01/2020 21:35:43	26012020	260120	213543	282.810	12.234168	-56.347668	282.860	-0.330	-0.370	-0.220	282.830	-1.800	0.100																			1580074543.0	12.02	22.26
26/01/2020 21:35:44	26012020	260120	213544	282.950	12.234178	-56.347727	283.030	-0.080	-0.920	-0.450	282.990	-2.300	-0.100																			1580074544.0	12.51	23.17
26/01/2020 21:35:45	26012020	260120	213545	283.120	12.234188	-56.347785	283.180	0.160	-1.000	-0.410	283.140	-2.300	-0.000																			1580074545.0	12.61	23.35
26/01/2020 21:35:46	26012020	260120	213546	283.190	12.234200	-56.347840	283.240	0.160	-0.560	-0.130	283.190	-1.900	0.300																			1580074546.0	12.17	22.54
26/01/2020 21:35:47	26012020	260120	213547	283.190	12.234213	-56.347895	283.240	-0.070	-0.000	0.140	283.180	-1.300	0.500																			1580074547.0	11.69	21.65
26/01/2020 21:35:48	26012020	260120	213548	283.180	12.234225	-56.347948	283.240	-0.310	0.310	0.230	283.190	-1.100	0.600																			1580074548.0	11.58	21.45
26/01/2020 21:35:49	26012020	260120	213549	283.210	12.234237	-56.348003	283.280	-0.370	0.270	0.080	283.220	-1.100	0.400																			1580074549.0	11.81	21.87
26/01/2020 21:35:50	26012020	260120	213550	283.270	12.234247	-56.348058	283.350	-0.170	-0.070	-0.110	283.290	-1.500	0.200																			1580074550.0	12.12	22.45
26/01/2020 21:35:51	26012020	260120	213551	283.380	12.234257	-56.348117	283.470	0.200	-0.480	-0.180	283.420	-1.900	0.200																			1580074551.0	12.38	22.93
26/01/2020 21:35:52	26012020	260120	213552	283.560	12.234270	-56.348173	283.660	0.560	-0.710	-0.070	283.600	-2.100	0.300																			1580074552.0	12.46	23.08
26/01/2020 21:35:53	26012020	260120	213553	283.710	12.234283	-56.348230	283.770	0.700	-0.560	0.180	283.710	-1.900	0.600																			1580074553.0	12.31	22.80
26/01/2020 21:35:54	26012020	260120	213554	283.660	12.234298	-56.348285	283.690	0.490	-0.080	0.360	283.620	-1.400	0.700																			1580074554.0	11.94	22.11
26/01/2020 21:35:55	26012020	260120	213555	283.450	12.234312	-56.348338	283.460	0.000	0.350	0.270	283.400	-1.000	0.600																			1580074555.0	11.57	21.43
26/01/2020 21:35:56	26012020	260120	213556	283.210	12.234322	-56.348392	283.220	-0.480	0.420	-0.070	283.170	-1.000	0.300																			1580074556.0	11.50	21.30
26/01/2020 21:35:57	26012020	260120	213557	283.050	12.234330	-56.348447	283.070	-0.690	0.030	-0.440	283.030	-1.400	-0.100																			1580074557.0	11.78	21.82
26/01/2020 21:35:58	26012020	260120	213558	283.000	12.234337	-56.348503	283.040	-0.490	-0.670	-0.690	283.000	-2.100	-0.300																			1580074558.0	12.16	22.52
26/01/2020 21:35:59	26012020	260120	213559	283.110	12.234347	-56.348562	283.180	-0.030	-1.290	-0.700	283.150	-2.700	-0.300	1014.60	26.10	26.10	21.00	21.00	15.00	73.00	73.00	393.00	25.90	33.00	5.10	47.00	3.40	1120	3608.00	27.60	27.60	1580074559.0	12.48	23.11
26/01/2020 21:36:00	26012020	260120	213600	283.340	12.234357	-56.348620	283.430	0.410	-1.450	-0.420	283.390	-2.800	-0.000																			1580074560.0	12.51	23.17
26/01/2020 21:36:01	26012020	260120	213601	283.560	12.234372	-56.348675	283.660	0.520	-0.960	-0.010	283.600	-2.200	0.400																			1580074561.0	12.21	22.61
26/01/2020 21:36:02	26012020	260120	213602	283.680	12.234387	-56.348728	283.750	0.240	-0.140	0.290	283.690	-1.400	0.700																			1580074562.0	11.72	21.71
26/01/2020 21:36:03	26012020	260120	213603	283.690	12.234400	-56.348782	283.750	-0.210	0.450	0.300	283.690	-0.900	0.600																			1580074563.0	11.49	21.28
26/01/2020 21:36:04	26012020	260120	213604	283.660	12.234412	-56.348835	283.730	-0.470	0.480	0.070	283.660	-0.900	0.400																			1580074564.0	11.75	21.76
26/01/2020 21:36:05	26012020	260120	213605	283.640	12.234422	-56.348893	283.690	-0.400	0.100	-0.160	283.620	-1.300	0.200																			1580074565.0	12.31	22.80
26/01/2020 21:36:06	26012020	260120	213606	283.580	12.234433	-56.348952	283.620	-0.150	-0.200	-0.210	283.560	-1.600	0.200																			1580074566.0	12.66	23.45
26/01/2020 21:36:07	26012020	260120	213607	283.450	12.234443	-56.349010	283.480	0.040	-0.160	-0.040	283.420	-1.500	0.300																			1580074567.0	12.42	23.00
26/01/2020 21:36:08	26012020	260120	213608	283.290	12.234457	-56.349065	283.320	0.070	0.010	0.190	283.260	-1.400	0.600																			1580074568.0	11.92	22.08
26/01/2020 21:36:09	26012020	260120	213609	283.150	12.234468	-56.349118	283.200	0.090	-0.050	0.300	283.130	-1.500	0.700																			1580074569.0	11.69	21.65
26/01/2020 21:36:10	26012020	260120	213610	283.120	12.234482	-56.349173	283.200	0.220	-0.420	0.260	283.130	-1.900	0.600																			1580074570.0	11.89	22.02
26/01/2020 21:36:11	26012020	260120	213611	283.200	12.234493	-56.349230	283.270	0.400	-0.780	0.140	283.220	-2.200	0.500																			1580074571.0	12.24	22.67
26/01/2020 21:36:12	26012020	260120	213612	283.270	12.234507	-56.349287	283.330	0.460	-0.790	-0.010	283.270	-2.100	0.300																			1580074572.0	12.27	22.72
26/01/2020 21:36:13	26012020	260120	213613	283.240	12.234517	-56.349342	283.270	0.250	-0.420	-0.120	283.220	-1.700	0.200																			1580074573.0	11.95	22.13
26/01/2020 21:36:14	26012020	260120	213614	283.110	12.234528	-56.349395	283.130	-0.160	0.060	-0.170	283.080	-1.300	0.200																			1580074574.0	11.58	21.45
26/01/2020 21:36:15	26012020	260120	213615	282.990	12.234538	-56.349448	283.030	-0.530	0.200	-0.200	282.980	-1.200	0.200																			1580074575.0	11.45	21.21
26/01/2020 21:36:16	26012020	260120	213616	282.980	12.234548	-56.349503	283.040	-0.610	-0.190	-0.230	282.990	-1.600	0.100																			1580074576.0	11.79	21.84
26/01/2020 21:36:17	26012020	260120	213617	283.050	12.234558	-56.349560	283.130	-0.340	-0.830	-0.240	283.070	-2.300	0.100																			1580074577.0	12.37	22.91
26/01/2020 21:36:18	26012020	260120	213618	283.110	12.234570	-56.349620	283.180	0.090	-1.180	-0.080	283.120	-2.600	0.300																			1580074578.0	12.74	23.59
26/01/2020 21:36:19	26012020	260120	213619	283.120	12.234582	-56.349678	283.200	0.390	-0.900	0.300	283.110	-2.200	0.700																			1580074579.0	12.56	23.26
26/01/2020 21:36:20	26012020	260120	213620	283.110	12.234597	-56.349733	283.190	0.400	-0.160	0.670	283.110	-1.400	1.000																			1580074580.0	12.02	22.26
26/01/2020 21:36:21	26012020	260120	213621	283.110	12.234610	-56.349785	283.180	0.160	0.530	0.740	283.110	-0.800	1.100																			1580074581.0	11.59	21.46
26/01/2020 21:36:22	26012020	260120	213622	283.110	12.234623	-56.349838	283.170	-0.120	0.750	0.510	283.110	-0.600	0.800																			1580074582.0	11.59	21.46
26/01/2020 21:36:23	26012020	260120	213623	283.100	12.234633	-56.349895	283.160	-0.260	0.470	0.150	283.100	-1.000	0.500																			1580074583.0	11.94	22.11
26/01/2020 21:36:24	26012020	260120	213624	283.100	12.234643	-56.349952	283.150	-0.200	-0.070	-0.190	283.100	-1.500	0.100																			1580074584.0	12.29	22.76
26/01/2020 21:36:25	26012020	260120	213625	283.090	12.234653	-56.350010	283.120	-0.050	-0.560	-0.360	283.090	-2.000	0.000																			1580074585.0	12.41	22.98
26/01/2020 21:36:26	26012020	260120	213626	283.060	12.234663	-56.350067	283.090	0.100	-0.810	-0.310	283.060	-2.200	0.100																			1580074586.0	12.26	22.71
26/01/2020 21:36:27	26012020	260120	213627	283.030	12.234675	-56.350122	283.060	0.180	-0.840	-0.120	283.020	-2.200	0.300																			1580074587.0	12.03	22.28
26/01/2020 21:36:28	26012020	260120	213628	282.970	12.234687	-56.350177	283.000	0.180	-0.670	0.060	282.960	-2.000	0.400																			1580074588.0	11.88	22.00
26/01/2020 21:36:29	26012020	260120	213629	282.890	12.234700	-56.350232	282.920	0.110	-0.450	0.140	282.880	-1.800	0.500																			1580074589.0	11.80	21.85
26/01/2020 21:36:30	26012020	260120	213630	282.810	12.234710	-56.350287	282.840	0.020	-0.290	0.110	282.800	-1.700	0.500																			1580074590.0	11.87	21.98
26/01/2020 21:36:31	26012020	260120	213631	282.770	12.234722	-56.350342	282.820	-0.040	-0.180	0.020	282.770	-1.500	0.400																			1580074591.0	12.00	22.22
26/01/2020 21:36:32	26012020	260120	213632	282.760	12.234732	-56.350398	282.800	-0.060	-0.050	-0.020	282.750	-1.400	0.300																			1580074592.0	12.08	22.37
26/01/2020 21:36:33	26012020	260120	213633	282.720	12.234743	-56.350453	282.770	-0.110	0.090	-0.010	282.710	-1.300	0.400																			1580074593.0	12.01	22.24
26/01/2020 21:36:34	26012020	260120	213634	282.690	12.234755	-56.350508	282.740	-0.180	0.050	-0.000	282.680	-1.400	0.400																			1580074594.0	11.92	22.08
26/01/2020 21:36:35	26012020	260120	213635	282.700	12.234767	-56.350565	282.760	-0.230	-0.220	-0.060	282.710	-1.700	0.300																			1580074595.0	12.02	22.26
26/01/2020 21:36:36	26012020	260120	213636	282.770	12.234778	-56.350622	282.850	-0.170	-0.620	-0.170	282.790	-2.000	0.200																			1580074596.0	12.26	22.71
26/01/2020 21:36:37	26012020	260120	213637	282.890	12.234788	-56.350678	282.970	-0.010	-0.830	-0.180	282.920	-2.200	0.200																			1580074597.0	12.42	23.00
26/01/2020 21:36:38	26012020	260120	213638	283.030	12.234800	-56.350737	283.120	0.210	-0.690	-0.040	283.060	-2.000	0.400																			1580074598.0	12.29	22.76
26/01/2020 21:36:39	26012020	260120	213639	283.160	12.234812	-56.350792	283.250	0.380	-0.300	0.220	283.180	-1.600	0.600																			1580074599.0	12.02	22.26
26/01/2020 21:36:40	26012020	260120	213640	283.220	12.234825	-56.350845	283.280	0.400	0.120	0.450	283.210	-1.200	0.800																			1580074600.0	11.84	21.93
26/01/2020 21:36:41	26012020	260120	213641	283.130	12.234838	-56.350900	283.160	0.230	0.370	0.560	283.090	-1.000	0.900																			1580074601.0	11.80	21.85
26/01/2020 21:36:42	26012020	260120	213642	282.920	12.234850	-56.350955	282.930	-0.070	0.340	0.430	282.870	-1.100	0.800																			1580074602.0	11.87	21.98
26/01/2020 21:36:43	26012020	260120	213643	282.690	12.234862	-56.351010	282.720	-0.340	0.030	0.070	282.650	-1.400	0.400																			1580074603.0	12.01	22.24
26/01/2020 21:36:44	26012020	260120	213644	282.520	12.234870	-56.351067	282.570	-0.420	-0.390	-0.280	282.500	-1.800	0.000																			1580074604.0	12.18	22.56
26/01/2020 21:36:45	26012020	260120	213645	282.460	12.234878	-56.351123	282.520	-0.280	-0.740	-0.450	282.460	-2.200	-0.100																			1580074605.0	12.23	22.65
26/01/2020 21:36:46	26012020	260120	213646	282.480	12.234888	-56.351180	282.540	-0.050	-0.920	-0.350	282.490	-2.300	0.000																			1580074606.0	12.15	22.50
26/01/2020 21:36:47	26012020	260120	213647	282.580	12.234898	-56.351237	282.670	0.120	-0.940	-0.160	282.610	-2.300	0.200																			1580074607.0	12.04	22.30
26/01/2020 21:36:48	26012020	260120	213648	282.820	12.234910	-56.351292	282.940	0.150	-0.810	-0.070	282.880	-2.200	0.300																			1580074608.0	12.03	22.28
26/01/2020 21:36:49	26012020	260120	213649	283.170	12.234923	-56.351348	283.300	0.070	-0.530	-0.070	283.250	-1.900	0.300																			1580074609.0	12.04	22.30
26/01/2020 21:36:50	26012020	260120	213650	283.480	12.234935	-56.351403	283.570	-0.060	-0.110	-0.100	283.520	-1.400	0.300																			1580074610.0	12.01	22.24
26/01/2020 21:36:51	26012020	260120	213651	283.570	12.234945	-56.351458	283.630	-0.190	0.280	-0.120	283.560	-1.100	0.200																			1580074611.0	11.96	22.15
26/01/2020 21:36:52	26012020	260120	213652	283.480	12.234957	-56.351515	283.520	-0.250	0.460	-0.150	283.450	-0.900	0.200																			1580074612.0	11.99	22.21
26/01/2020 21:36:53	26012020	260120	213653	283.310	12.234968	-56.351570	283.350	-0.180	0.350	-0.190	283.270	-1.100	0.200																			1580074613.0	12.11	22.43
26/01/2020 21:36:54	26012020	260120	213654	283.130	12.234978	-56.351627	283.160	0.010	0.050	-0.270	283.090	-1.400	0.100																			1580074614.0	12.28	22.74
26/01/2020 21:36:55	26012020	260120	213655	282.970	12.234992	-56.351685	283.000	0.200	-0.250	-0.370	282.940	-1.700	-0.000																			1580074615.0	12.32	22.82
26/01/2020 21:36:56	26012020	260120	213656	282.860	12.235003	-56.351740	282.910	0.300	-0.440	-0.470	282.860	-1.800	-0.100																			1580074616.0	12.19	22.58
26/01/2020 21:36:57	26012020	260120	213657	282.870	12.235015	-56.351797	282.920	0.290	-0.550	-0.580	282.880	-2.000	-0.200																			1580074617.0	12.02	22.26
26/01/2020 21:36:58	26012020	260120	213658	282.960	12.235027	-56.351852	283.020	0.210	-0.600	-0.630	282.980	-2.000	-0.300																			1580074618.0	11.94	22.11
26/01/2020 21:36:59	26012020	260120	213659	283.060	12.235038	-56.351907	283.120	0.080	-0.560	-0.590	283.080	-1.900	-0.200	1014.60	26.10	26.20	21.10	21.10	13.00	73.00	73.00	392.00	25.90	33.00	5.50	42.00	3.40	1022	3565.00	27.60	27.60	1580074619.0	11.92	22.08
26/01/2020 21:37:00	26012020	260120	213700	283.140	12.235050	-56.351962	283.200	-0.050	-0.460	-0.470	283.150	-1.800	-0.100																			1580074620.0	11.91	22.06
26/01/2020 21:37:01	26012020	260120	213701	283.190	12.235062	-56.352017	283.240	-0.170	-0.390	-0.360	283.190	-1.800	0.000																			1580074621.0	11.91	22.06
26/01/2020 21:37:02	26012020	260120	213702	283.190	12.235073	-56.352072	283.250	-0.260	-0.420	-0.330	283.190	-1.800	0.000																			1580074622.0	12.01	22.24
26/01/2020 21:37:03	26012020	260120	213703	283.200	12.235083	-56.352128	283.270	-0.290	-0.450	-0.330	283.200	-1.800	0.000																			1580074623.0	12.17	22.54
26/01/2020 21:37:04	26012020	260120	213704	283.270	12.235095	-56.352185	283.350	-0.270	-0.390	-0.290	283.290	-1.800	0.100																			1580074624.0	12.22	22.63
26/01/2020 21:37:05	26012020	260120	213705	283.400	12.235105	-56.352242	283.500	-0.210	-0.260	-0.210	283.430	-1.600	0.200																			1580074625.0	12.17	22.54
26/01/2020 21:37:06	26012020	260120	213706	283.490	12.235117	-56.352298	283.560	-0.160	-0.100	-0.060	283.490	-1.500	0.300																			1580074626.0	12.13	22.46
26/01/2020 21:37:07	26012020	260120	213707	283.450	12.235130	-56.352353	283.510	-0.090	0.010	0.160	283.430	-1.400	0.500																			1580074627.0	12.11	22.43
26/01/2020 21:37:08	26012020	260120	213708	283.370	12.235142	-56.352410	283.430	0.020	0.040	0.390	283.340	-1.400	0.800																			1580074628.0	12.13	22.46
26/01/2020 21:37:09	26012020	260120	213709	283.270	12.235155	-56.352465	283.340	0.190	0.010	0.550	283.250	-1.400	0.900																			1580074629.0	12.16	22.52
26/01/2020 21:37:10	26012020	260120	213710	283.170	12.235168	-56.352522	283.240	0.360	-0.110	0.590	283.160	-1.500	0.900																			1580074630.0	12.18	22.56
26/01/2020 21:37:11	26012020	260120	213711	283.090	12.235182	-56.352578	283.130	0.470	-0.290	0.440	283.080	-1.700	0.800																			1580074631.0	12.21	22.61
26/01/2020 21:37:12	26012020	260120	213712	283.000	12.235195	-56.352633	283.050	0.470	-0.380	0.170	282.980	-1.800	0.500																			1580074632.0	12.20	22.59
26/01/2020 21:37:13	26012020	260120	213713	282.880	12.235207	-56.352690	282.920	0.280	-0.310	-0.120	282.860	-1.700	0.200																			1580074633.0	12.07	22.35
26/01/2020 21:37:14	26012020	260120	213714	282.750	12.235217	-56.352745	282.780	-0.040	-0.210	-0.410	282.730	-1.600	-0.100																			1580074634.0	11.84	21.93
26/01/2020 21:37:15	26012020	260120	213715	282.710	12.235227	-56.352800	282.760	-0.360	-0.260	-0.680	282.720	-1.700	-0.400																			1580074635.0	11.74	21.74
26/01/2020 21:37:16	26012020	260120	213716	282.830	12.235235	-56.352855	282.920	-0.510	-0.520	-0.880	282.880	-1.900	-0.500																			1580074636.0	11.91	22.06
26/01/2020 21:37:17	26012020	260120	213717	283.140	12.235243	-56.352912	283.250	-0.390	-0.830	-0.890	283.210	-2.200	-0.500																			1580074637.0	12.20	22.59
26/01/2020 21:37:18	26012020	260120	213718	283.520	12.235253	-56.352970	283.630	-0.070	-0.910	-0.620	283.580	-2.300	-0.200																			1580074638.0	12.37	22.91
26/01/2020 21:37:19	26012020	260120	213719	283.780	12.235265	-56.353027	283.900	0.200	-0.600	-0.180	283.820	-1.900	0.200																			1580074639.0	12.26	22.71
26/01/2020 21:37:20	26012020	260120	213720	283.920	12.235278	-56.353082	284.010	0.250	-0.090	0.200	283.920	-1.400	0.600																			1580074640.0	11.97	22.17
26/01/2020 21:37:21	26012020	260120	213721	283.920	12.235293	-56.353135	283.990	0.100	0.270	0.380	283.910	-1.100	0.700																			1580074641.0	11.79	21.84
26/01/2020 21:37:22	26012020	260120	213722	283.840	12.235305	-56.353190	283.920	-0.100	0.280	0.250	283.830	-1.100	0.600																			1580074642.0	11.92	22.08
26/01/2020 21:37:23	26012020	260120	213723	283.720	12.235317	-56.353247	283.770	-0.160	0.030	-0.020	283.690	-1.400	0.300																			1580074643.0	12.23	22.65
26/01/2020 21:37:24	26012020	260120	213724	283.490	12.235328	-56.353303	283.520	-0.090	-0.200	-0.200	283.430	-1.600	0.100																			1580074644.0	12.42	23.00
26/01/2020 21:37:25	26012020	260120	213725	283.170	12.235340	-56.353362	283.190	0.010	-0.270	-0.180	283.110	-1.700	0.200																			1580074645.0	12.29	22.76
26/01/2020 21:37:26	26012020	260120	213726	282.850	12.235352	-56.353417	282.880	0.050	-0.270	0.030	282.800	-1.700	0.400																			1580074646.0	12.05	22.32
26/01/2020 21:37:27	26012020	260120	213727	282.630	12.235363	-56.353472	282.680	0.060	-0.380	0.170	282.610	-1.800	0.500																			1580074647.0	11.90	22.04
26/01/2020 21:37:28	26012020	260120	213728	282.650	12.235377	-56.353527	282.760	0.130	-0.650	0.040	282.690	-2.100	0.400																			1580074648.0	12.00	22.22
26/01/2020 21:37:29	26012020	260120	213729	282.940	12.235388	-56.353583	283.070	0.270	-0.850	-0.270	283.020	-2.200	0.100																			1580074649.0	12.22	22.63
26/01/2020 21:37:30	26012020	260120	213730	283.320	12.235398	-56.353640	283.450	0.330	-0.720	-0.440	283.390	-2.100	-0.100																			1580074650.0	12.28	22.74
26/01/2020 21:37:31	26012020	260120	213731	283.590	12.235410	-56.353697	283.690	0.170	-0.240	-0.280	283.620	-1.600	0.100																			1580074651.0	12.02	22.26
26/01/2020 21:37:32	26012020	260120	213732	283.650	12.235423	-56.353750	283.740	-0.200	0.280	-0.000	283.640	-1.100	0.400																			1580074652.0	11.70	21.67
26/01/2020 21:37:33	26012020	260120	213733	283.570	12.235435	-56.353803	283.650	-0.530	0.460	0.100	283.550	-0.900	0.400																			1580074653.0	11.64	21.56
26/01/2020 21:37:34	26012020	260120	213734	283.490	12.235445	-56.353858	283.580	-0.560	0.180	-0.080	283.480	-1.300	0.200																			1580074654.0	11.90	22.04
26/01/2020 21:37:35	26012020	260120	213735	283.500	12.235455	-56.353917	283.600	-0.220	-0.410	-0.340	283.520	-1.900	0.000																			1580074655.0	12.36	22.89
26/01/2020 21:37:36	26012020	260120	213736	283.580	12.235465	-56.353975	283.680	0.250	-0.830	-0.410	283.590	-2.200	-0.000																			1580074656.0	12.63	23.39
26/01/2020 21:37:37	26012020	260120	213737	283.620	12.235477	-56.354033	283.710	0.500	-0.770	-0.170	283.620	-2.100	0.200																			1580074657.0	12.43	23.02
26/01/2020 21:37:38	26012020	260120	213738	283.590	12.235490	-56.354088	283.670	0.400	-0.410	0.130	283.570	-1.800	0.500																			1580074658.0	11.92	22.08
26/01/2020 21:37:39	26012020	260120	213739	283.490	12.235503	-56.354140	283.570	0.140	-0.180	0.200	283.470	-1.600	0.500																			1580074659.0	11.64	21.56
26/01/2020 21:37:40	26012020	260120	213740	283.370	12.235517	-56.354195	283.430	-0.070	-0.250	0.050	283.340	-1.700	0.400																			1580074660.0	11.87	21.98
26/01/2020 21:37:41	26012020	260120	213741	283.220	12.235528	-56.354252	283.290	-0.150	-0.310	-0.110	283.200	-1.700	0.200																			1580074661.0	12.24	22.67
26/01/2020 21:37:42	26012020	260120	213742	283.090	12.235538	-56.354308	283.150	-0.180	-0.150	-0.110	283.060	-1.500	0.300																			1580074662.0	12.24	22.67
26/01/2020 21:37:43	26012020	260120	213743	282.980	12.235550	-56.354365	283.050	-0.200	0.060	-0.020	282.960	-1.300	0.300																			1580074663.0	11.96	22.15
26/01/2020 21:37:44	26012020	260120	213744	282.940	12.235562	-56.354418	283.020	-0.160	0.060	0.040	282.940	-1.400	0.400																			1580074664.0	11.84	21.93
26/01/2020 21:37:45	26012020	260120	213745	283.030	12.235573	-56.354475	283.130	0.020	-0.220	-0.010	283.060	-1.700	0.300																			1580074665.0	12.01	22.24
26/01/2020 21:37:46	26012020	260120	213746	283.250	12.235585	-56.354532	283.370	0.280	-0.640	-0.110	283.300	-2.100	0.200																			1580074666.0	12.31	22.80
26/01/2020 21:37:47	26012020	260120	213747	283.500	12.235598	-56.354588	283.610	0.430	-0.830	-0.140	283.540	-2.200	0.200																			1580074667.0	12.46	23.08
26/01/2020 21:37:48	26012020	260120	213748	283.640	12.235610	-56.354645	283.720	0.310	-0.570	-0.070	283.640	-1.900	0.300																			1580074668.0	12.29	22.76
26/01/2020 21:37:49	26012020	260120	213749	283.600	12.235622	-56.354700	283.670	-0.040	-0.040	0.060	283.580	-1.400	0.400																			1580074669.0	11.83	21.91
26/01/2020 21:37:50	26012020	260120	213750	283.430	12.235633	-56.354753	283.480	-0.370	0.330	0.200	283.380	-1.000	0.600																			1580074670.0	11.53	21.35
26/01/2020 21:37:51	26012020	260120	213751	283.190	12.235643	-56.354808	283.240	-0.450	0.250	0.300	283.140	-1.200	0.700																			1580074671.0	11.68	21.63
26/01/2020 21:37:52	26012020	260120	213752	282.960	12.235655	-56.354863	283.020	-0.280	-0.180	0.370	282.920	-1.600	0.700																			1580074672.0	12.10	22.41
26/01/2020 21:37:53	26012020	260120	213753	282.820	12.235667	-56.354922	282.880	-0.000	-0.640	0.350	282.800	-2.100	0.700																			1580074673.0	12.41	22.98
26/01/2020 21:37:54	26012020	260120	213754	282.780	12.235678	-56.354978	282.870	0.190	-0.830	0.250	282.780	-2.200	0.600																			1580074674.0	12.41	22.98
26/01/2020 21:37:55	26012020	260120	213755	282.820	12.235688	-56.355035	282.900	0.240	-0.690	0.170	282.830	-2.000	0.500																			1580074675.0	12.16	22.52
26/01/2020 21:37:56	26012020	260120	213756	282.870	12.235700	-56.355090	282.960	0.190	-0.430	0.140	282.880	-1.800	0.500																			1580074676.0	11.90	22.04
26/01/2020 21:37:57	26012020	260120	213757	282.910	12.235712	-56.355145	282.980	0.130	-0.210	0.180	282.910	-1.600	0.500																			1580074677.0	11.89	22.02
26/01/2020 21:37:58	26012020	260120	213758	282.890	12.235723	-56.355200	282.960	0.110	-0.070	0.270	282.890	-1.500	0.600																			1580074678.0	12.00	22.22
26/01/2020 21:37:59	26012020	260120	213759	282.850	12.235737	-56.355257	282.920	0.080	-0.030	0.350	282.830	-1.400	0.700	1014.60	26.10	26.20	20.90	20.90	11.00	73.00	73.00	391.00	25.90	37.00	5.80	37.00	3.80	933	3517.00	27.60	27.60	1580074679.0	12.10	22.41
26/01/2020 21:38:00	26012020	260120	213800	282.770	12.235748	-56.355313	282.840	-0.010	-0.070	0.310	282.760	-1.500	0.700																			1580074680.0	12.17	22.54
26/01/2020 21:38:01	26012020	260120	213801	282.750	12.235760	-56.355368	282.830	-0.110	-0.200	0.090	282.760	-1.600	0.400																			1580074681.0	12.20	22.59
26/01/2020 21:38:02	26012020	260120	213802	282.870	12.235770	-56.355427	282.960	-0.160	-0.360	-0.300	282.920	-1.800	0.000																			1580074682.0	12.26	22.71
26/01/2020 21:38:03	26012020	260120	213803	283.100	12.235780	-56.355483	283.200	-0.190	-0.370	-0.590	283.150	-1.800	-0.300																			1580074683.0	12.27	22.72
26/01/2020 21:38:04	26012020	260120	213804	283.320	12.235788	-56.355540	283.410	-0.210	-0.220	-0.640	283.360	-1.600	-0.300																			1580074684.0	12.12	22.45
26/01/2020 21:38:05	26012020	260120	213805	283.420	12.235798	-56.355595	283.480	-0.210	-0.040	-0.420	283.420	-1.400	-0.000																			1580074685.0	11.91	22.06
26/01/2020 21:38:06	26012020	260120	213806	283.370	12.235810	-56.355650	283.430	-0.100	-0.030	-0.100	283.340	-1.400	0.300																			1580074686.0	11.81	21.87
26/01/2020 21:38:07	26012020	260120	213807	283.240	12.235822	-56.355705	283.300	0.120	-0.240	0.160	283.210	-1.700	0.500																			1580074687.0	11.94	22.11
26/01/2020 21:38:08	26012020	260120	213808	283.080	12.235833	-56.355762	283.140	0.370	-0.520	0.310	283.040	-1.900	0.700																			1580074688.0	12.14	22.48
26/01/2020 21:38:09	26012020	260120	213809	282.890	12.235847	-56.355817	282.950	0.490	-0.630	0.340	282.860	-2.000	0.700																			1580074689.0	12.22	22.63
26/01/2020 21:38:10	26012020	260120	213810	282.720	12.235858	-56.355873	282.770	0.390	-0.550	0.230	282.700	-1.900	0.600																			1580074690.0	12.06	22.34
26/01/2020 21:38:11	26012020	260120	213811	282.620	12.235870	-56.355928	282.680	0.120	-0.410	0.020	282.620	-1.800	0.300																			1580074691.0	11.90	22.04
26/01/2020 21:38:12	26012020	260120	213812	282.670	12.235882	-56.355983	282.750	-0.180	-0.390	-0.250	282.700	-1.800	0.100																			1580074692.0	11.93	22.09
26/01/2020 21:38:13	26012020	260120	213813	282.850	12.235893	-56.356040	282.950	-0.350	-0.440	-0.450	282.890	-1.800	-0.100																			1580074693.0	12.15	22.50
26/01/2020 21:38:14	26012020	260120	213814	283.040	12.235903	-56.356097	283.140	-0.350	-0.410	-0.430	283.080	-1.800	-0.100																			1580074694.0	12.35	22.87
26/01/2020 21:38:15	26012020	260120	213815	283.140	12.235913	-56.356153	283.220	-0.280	-0.190	-0.150	283.140	-1.500	0.200																			1580074695.0	12.32	22.82
26/01/2020 21:38:16	26012020	260120	213816	283.100	12.235927	-56.356210	283.180	-0.230	0.090	0.150	283.080	-1.300	0.500																			1580074696.0	12.14	22.48
26/01/2020 21:38:17	26012020	260120	213817	282.990	12.235938	-56.356265	283.070	-0.230	0.220	0.190	282.980	-1.200	0.500																			1580074697.0	12.03	22.28
26/01/2020 21:38:18	26012020	260120	213818	282.940	12.235948	-56.356322	283.040	-0.160	0.100	-0.010	282.950	-1.300	0.300																			1580074698.0	12.05	22.32
26/01/2020 21:38:19	26012020	260120	213819	283.040	12.235958	-56.356378	283.150	0.050	-0.210	-0.200	283.060	-1.600	0.100																			1580074699.0	12.20	22.59
26/01/2020 21:38:20	26012020	260120	213820	283.210	12.235968	-56.356437	283.330	0.310	-0.450	-0.190	283.230	-1.900	0.200																			1580074700.0	12.28	22.74
26/01/2020 21:38:21	26012020	260120	213821	283.310	12.235980	-56.356492	283.410	0.420	-0.440	0.010	283.310	-1.800	0.400																			1580074701.0	12.15	22.50
26/01/2020 21:38:22	26012020	260120	213822	283.300	12.235992	-56.356547	283.390	0.330	-0.260	0.190	283.290	-1.600	0.600																			1580074702.0	11.85	21.95
26/01/2020 21:38:23	26012020	260120	213823	283.260	12.236005	-56.356600	283.360	0.140	-0.190	0.170	283.260	-1.600	0.500																			1580074703.0	11.66	21.59
26/01/2020 21:38:24	26012020	260120	213824	283.270	12.236017	-56.356655	283.360	0.010	-0.350	-0.060	283.270	-1.800	0.300																			1580074704.0	11.81	21.87
26/01/2020 21:38:25	26012020	260120	213825	283.270	12.236027	-56.356712	283.370	-0.010	-0.600	-0.250	283.270	-2.000	0.100																			1580074705.0	12.13	22.46
26/01/2020 21:38:26	26012020	260120	213826	283.260	12.236038	-56.356768	283.340	-0.010	-0.680	-0.330	283.250	-2.100	0.000																			1580074706.0	12.30	22.78
26/01/2020 21:38:27	26012020	260120	213827	283.190	12.236048	-56.356825	283.280	-0.070	-0.490	-0.280	283.170	-1.800	0.100																			1580074707.0	12.18	22.56
26/01/2020 21:38:28	26012020	260120	213828	283.110	12.236060	-56.356880	283.200	-0.170	-0.230	-0.130	283.110	-1.600	0.200																			1580074708.0	11.93	22.09
26/01/2020 21:38:29	26012020	260120	213829	283.110	12.236072	-56.356935	283.220	-0.200	-0.190	0.030	283.120	-1.600	0.400																			1580074709.0	11.90	22.04
26/01/2020 21:38:30	26012020	260120	213830	283.210	12.236083	-56.356992	283.330	-0.120	-0.390	0.110	283.230	-1.800	0.500																			1580074710.0	12.22	22.63
26/01/2020 21:38:31	26012020	260120	213831	283.390	12.236097	-56.357048	283.520	0.030	-0.560	0.110	283.430	-1.900	0.500																			1580074711.0	12.52	23.19
26/01/2020 21:38:32	26012020	260120	213832	283.590	12.236108	-56.357107	283.710	0.090	-0.390	0.090	283.620	-1.700	0.400																			1580074712.0	12.54	23.22
26/01/2020 21:38:33	26012020	260120	213833	283.750	12.236122	-56.357163	283.860	-0.040	0.090	0.070	283.770	-1.200	0.400																			1580074713.0	12.16	22.52
26/01/2020 21:38:34	26012020	260120	213834	283.820	12.236132	-56.357217	283.920	-0.290	0.510	0.030	283.830	-0.900	0.400																			1580074714.0	11.73	21.72
26/01/2020 21:38:35	26012020	260120	213835	283.810	12.236142	-56.357272	283.890	-0.440	0.470	-0.080	283.800	-1.000	0.300																			1580074715.0	11.65	21.58
26/01/2020 21:38:36	26012020	260120	213836	283.750	12.236152	-56.357328	283.830	-0.300	-0.050	-0.170	283.740	-1.500	0.200																			1580074716.0	12.02	22.26
26/01/2020 21:38:37	26012020	260120	213837	283.690	12.236162	-56.357385	283.760	0.060	-0.580	-0.070	283.660	-2.000	0.300																			1580074717.0	12.40	22.96
26/01/2020 21:38:38	26012020	260120	213838	283.580	12.236173	-56.357442	283.650	0.430	-0.740	0.220	283.550	-2.100	0.600																			1580074718.0	12.34	22.85
26/01/2020 21:38:39	26012020	260120	213839	283.460	12.236187	-56.357497	283.540	0.600	-0.580	0.450	283.440	-1.900	0.800																			1580074719.0	11.94	22.11
26/01/2020 21:38:40	26012020	260120	213840	283.360	12.236200	-56.357550	283.440	0.530	-0.430	0.400	283.350	-1.800	0.700																			1580074720.0	11.66	21.59
26/01/2020 21:38:41	26012020	260120	213841	283.310	12.236213	-56.357605	283.390	0.360	-0.480	0.130	283.300	-1.900	0.400																			1580074721.0	11.76	21.78
26/01/2020 21:38:42	26012020	260120	213842	283.320	12.236225	-56.357660	283.400	0.210	-0.640	-0.150	283.330	-2.000	0.200																			1580074722.0	12.09	22.39
26/01/2020 21:38:43	26012020	260120	213843	283.410	12.236237	-56.357718	283.510	0.100	-0.710	-0.330	283.430	-2.100	0.000																			1580074723.0	12.32	22.82
26/01/2020 21:38:44	26012020	260120	213844	283.540	12.236250	-56.357775	283.650	-0.080	-0.600	-0.430	283.570	-2.000	-0.100																			1580074724.0	12.35	22.87
26/01/2020 21:38:45	26012020	260120	213845	283.680	12.236262	-56.357832	283.800	-0.390	-0.330	-0.460	283.700	-1.700	-0.100																			1580074725.0	12.26	22.71
26/01/2020 21:38:46	26012020	260120	213846	283.810	12.236272	-56.357888	283.940	-0.740	-0.010	-0.430	283.840	-1.400	-0.100																			1580074726.0	12.15	22.50
26/01/2020 21:38:47	26012020	260120	213847	283.910	12.236282	-56.357943	284.040	-0.900	0.200	-0.330	283.920	-1.200	0.100																			1580074727.0	12.10	22.41
26/01/2020 21:38:48	26012020	260120	213848	283.940	12.236292	-56.358000	284.050	-0.720	0.230	-0.120	283.940	-1.200	0.300																			1580074728.0	12.18	22.56
26/01/2020 21:38:49	26012020	260120	213849	283.920	12.236303	-56.358058	284.030	-0.290	0.140	0.130	283.910	-1.300	0.500																			1580074729.0	12.29	22.76
26/01/2020 21:38:50	26012020	260120	213850	283.830	12.236315	-56.358115	283.930	0.150	0.040	0.400	283.800	-1.400	0.800																			1580074730.0	12.30	22.78
26/01/2020 21:38:51	26012020	260120	213851	283.650	12.236328	-56.358170	283.730	0.440	-0.010	0.580	283.600	-1.400	0.900																			1580074731.0	12.14	22.48
26/01/2020 21:38:52	26012020	260120	213852	283.440	12.236342	-56.358225	283.520	0.540	-0.120	0.540	283.400	-1.500	0.900																			1580074732.0	11.90	22.04
26/01/2020 21:38:53	26012020	260120	213853	283.290	12.236353	-56.358280	283.380	0.560	-0.390	0.310	283.270	-1.800	0.600																			1580074733.0	11.85	21.95
26/01/2020 21:38:54	26012020	260120	213854	283.260	12.236365	-56.358335	283.370	0.570	-0.720	0.040	283.270	-2.100	0.400																			1580074734.0	11.95	22.13
26/01/2020 21:38:55	26012020	260120	213855	283.340	12.236377	-56.358390	283.450	0.540	-0.930	-0.160	283.370	-2.300	0.200																			1580074735.0	12.07	22.35
26/01/2020 21:38:56	26012020	260120	213856	283.470	12.236390	-56.358447	283.580	0.390	-0.900	-0.270	283.490	-2.300	0.100																			1580074736.0	12.07	22.35
26/01/2020 21:38:57	26012020	260120	213857	283.600	12.236403	-56.358502	283.710	0.100	-0.700	-0.280	283.620	-2.000	0.100																			1580074737.0	12.00	22.22
26/01/2020 21:38:58	26012020	260120	213858	283.720	12.236415	-56.358557	283.850	-0.200	-0.440	-0.230	283.750	-1.800	0.100																			1580074738.0	11.98	22.19
26/01/2020 21:38:59	26012020	260120	213859	283.840	12.236427	-56.358613	283.970	-0.410	-0.190	-0.120	283.860	-1.500	0.300	1014.60	26.10	26.20	20.80	20.80	10.00	72.00	72.00	390.00	25.90	40.00	5.20	48.00	4.00	851	3627.00	27.60	27.60	1580074739.0	12.09	22.39
26/01/2020 21:39:00	26012020	260120	213900	283.900	12.236438	-56.358668	284.010	-0.500	0.030	-0.030	283.910	-1.300	0.300																			1580074740.0	12.19	22.58
26/01/2020 21:39:01	26012020	260120	213901	283.870	12.236450	-56.358725	283.960	-0.560	0.170	-0.050	283.850	-1.200	0.300																			1580074741.0	12.24	22.67
26/01/2020 21:39:02	26012020	260120	213902	283.750	12.236460	-56.358783	283.830	-0.610	0.250	-0.140	283.720	-1.100	0.200																			1580074742.0	12.24	22.67
26/01/2020 21:39:03	26012020	260120	213903	283.620	12.236470	-56.358840	283.720	-0.550	0.170	-0.230	283.610	-1.200	0.100																			1580074743.0	12.17	22.54
26/01/2020 21:39:04	26012020	260120	213904	283.590	12.236480	-56.358897	283.690	-0.290	-0.130	-0.240	283.590	-1.600	0.100																			1580074744.0	12.16	22.52
26/01/2020 21:39:05	26012020	260120	213905	283.600	12.236492	-56.358953	283.710	0.170	-0.560	-0.180	283.610	-2.000	0.200																			1580074745.0	12.28	22.74
26/01/2020 21:39:06	26012020	260120	213906	283.620	12.236503	-56.359010	283.730	0.610	-0.840	-0.040	283.620	-2.200	0.300																			1580074746.0	12.40	22.96
26/01/2020 21:39:07	26012020	260120	213907	283.590	12.236518	-56.359067	283.690	0.780	-0.720	0.160	283.580	-2.100	0.500																			1580074747.0	12.26	22.71
26/01/2020 21:39:08	26012020	260120	213908	283.530	12.236532	-56.359120	283.650	0.560	-0.280	0.290	283.520	-1.600	0.600																			1580074748.0	11.89	22.02
26/01/2020 21:39:09	26012020	260120	213909	283.480	12.236547	-56.359173	283.590	0.080	0.140	0.190	283.480	-1.200	0.500																			1580074749.0	11.55	21.39
26/01/2020 21:39:10	26012020	260120	213910	283.440	12.236558	-56.359227	283.560	-0.330	0.210	-0.160	283.440	-1.200	0.100																			1580074750.0	11.55	21.39
26/01/2020 21:39:11	26012020	260120	213911	283.450	12.236568	-56.359282	283.560	-0.390	-0.160	-0.500	283.460	-1.600	-0.200																			1580074751.0	11.95	22.13
26/01/2020 21:39:12	26012020	260120	213912	283.500	12.236577	-56.359340	283.620	-0.090	-0.660	-0.580	283.520	-2.100	-0.200																			1580074752.0	12.46	23.08
26/01/2020 21:39:13	26012020	260120	213913	283.560	12.236588	-56.359398	283.670	0.300	-0.880	-0.320	283.560	-2.300	0.100																			1580074753.0	12.65	23.43
26/01/2020 21:39:14	26012020	260120	213914	283.580	12.236602	-56.359457	283.680	0.500	-0.680	0.030	283.580	-2.000	0.400																			1580074754.0	12.42	23.00
26/01/2020 21:39:15	26012020	260120	213915	283.520	12.236617	-56.359512	283.610	0.380	-0.240	0.280	283.490	-1.600	0.600																			1580074755.0	12.08	22.37
26/01/2020 21:39:16	26012020	260120	213916	283.350	12.236632	-56.359565	283.430	-0.000	0.190	0.300	283.310	-1.200	0.600																			1580074756.0	11.85	21.95
26/01/2020 21:39:17	26012020	260120	213917	283.150	12.236643	-56.359620	283.230	-0.450	0.380	0.050	283.120	-1.000	0.400																			1580074757.0	11.80	21.85
26/01/2020 21:39:18	26012020	260120	213918	283.010	12.236653	-56.359675	283.090	-0.750	0.210	-0.350	282.990	-1.200	-0.000																			1580074758.0	11.92	22.08
26/01/2020 21:39:19	26012020	260120	213919	282.950	12.236662	-56.359732	283.040	-0.730	-0.210	-0.670	282.950	-1.700	-0.300																			1580074759.0	12.17	22.54
26/01/2020 21:39:20	26012020	260120	213920	282.980	12.236668	-56.359790	283.070	-0.380	-0.660	-0.670	282.990	-2.100	-0.300																			1580074760.0	12.35	22.87
26/01/2020 21:39:21	26012020	260120	213921	283.050	12.236678	-56.359847	283.150	0.140	-0.900	-0.260	283.060	-2.300	0.200																			1580074761.0	12.34	22.85
26/01/2020 21:39:22	26012020	260120	213922	283.090	12.236692	-56.359903	283.200	0.600	-0.780	0.380	283.090	-2.100	0.800																			1580074762.0	12.14	22.48
26/01/2020 21:39:23	26012020	260120	213923	283.070	12.236707	-56.359957	283.180	0.790	-0.470	0.930	283.060	-1.800	1.300																			1580074763.0	11.90	22.04
26/01/2020 21:39:24	26012020	260120	213924	283.070	12.236723	-56.360010	283.180	0.690	-0.250	1.070	283.080	-1.600	1.400																			1580074764.0	11.82	21.89
26/01/2020 21:39:25	26012020	260120	213925	283.130	12.236738	-56.360065	283.250	0.410	-0.220	0.740	283.150	-1.600	1.000																			1580074765.0	12.01	22.24
26/01/2020 21:39:26	26012020	260120	213926	283.240	12.236752	-56.360122	283.340	0.060	-0.220	0.180	283.270	-1.600	0.500																			1580074766.0	12.28	22.74
26/01/2020 21:39:27	26012020	260120	213927	283.350	12.236762	-56.360180	283.440	-0.280	-0.080	-0.320	283.370	-1.400	0.000																			1580074767.0	12.34	22.85
26/01/2020 21:39:28	26012020	260120	213928	283.400	12.236770	-56.360237	283.490	-0.570	0.190	-0.480	283.400	-1.200	-0.100																			1580074768.0	12.15	22.50
26/01/2020 21:39:29	26012020	260120	213929	283.330	12.236780	-56.360292	283.410	-0.720	0.360	-0.310	283.300	-1.000	0.100																			1580074769.0	11.93	22.09
26/01/2020 21:39:30	26012020	260120	213930	283.150	12.236790	-56.360347	283.210	-0.620	0.180	-0.050	283.100	-1.300	0.300																			1580074770.0	11.90	22.04
26/01/2020 21:39:31	26012020	260120	213931	282.910	12.236800	-56.360403	282.970	-0.220	-0.360	0.220	282.860	-1.800	0.600																			1580074771.0	12.17	22.54
26/01/2020 21:39:32	26012020	260120	213932	282.660	12.236812	-56.360462	282.710	0.280	-0.880	0.470	282.610	-2.300	0.900																			1580074772.0	12.50	23.15
26/01/2020 21:39:33	26012020	260120	213933	282.440	12.236823	-56.360518	282.510	0.610	-0.980	0.630	282.420	-2.300	1.000																			1580074773.0	12.44	23.04
26/01/2020 21:39:34	26012020	260120	213934	282.360	12.236837	-56.360575	282.450	0.610	-0.660	0.620	282.370	-2.000	1.000																			1580074774.0	12.02	22.26
26/01/2020 21:39:35	26012020	260120	213935	282.470	12.236850	-56.360628	282.590	0.360	-0.250	0.380	282.500	-1.600	0.700																			1580074775.0	11.63	21.54
26/01/2020 21:39:36	26012020	260120	213936	282.680	12.236862	-56.360682	282.810	0.030	-0.010	0.020	282.730	-1.400	0.300																			1580074776.0	11.60	21.48
26/01/2020 21:39:37	26012020	260120	213937	282.880	12.236872	-56.360737	283.000	-0.250	0.020	-0.310	282.920	-1.400	0.000																			1580074777.0	11.81	21.87
26/01/2020 21:39:38	26012020	260120	213938	283.060	12.236880	-56.360792	283.170	-0.370	-0.120	-0.460	283.090	-1.500	-0.100																			1580074778.0	12.05	22.32
26/01/2020 21:39:39	26012020	260120	213939	283.220	12.236890	-56.360850	283.340	-0.260	-0.340	-0.400	283.250	-1.700	-0.000																			1580074779.0	12.22	22.63
26/01/2020 21:39:40	26012020	260120	213940	283.320	12.236902	-56.360907	283.430	-0.010	-0.450	-0.140	283.330	-1.800	0.300																			1580074780.0	12.31	22.80
26/01/2020 21:39:41	26012020	260120	213941	283.300	12.236913	-56.360963	283.380	0.210	-0.390	0.130	283.270	-1.800	0.500																			1580074781.0	12.25	22.69
26/01/2020 21:39:42	26012020	260120	213942	283.140	12.236927	-56.361018	283.210	0.270	-0.230	0.290	283.100	-1.600	0.700																			1580074782.0	12.10	22.41
26/01/2020 21:39:43	26012020	260120	213943	282.930	12.236938	-56.361073	282.990	0.180	-0.130	0.240	282.890	-1.500	0.600																			1580074783.0	12.01	22.24
26/01/2020 21:39:44	26012020	260120	213944	282.750	12.236950	-56.361130	282.820	0.040	-0.150	0.030	282.720	-1.500	0.400																			1580074784.0	12.05	22.32
26/01/2020 21:39:45	26012020	260120	213945	282.630	12.236960	-56.361187	282.710	-0.090	-0.210	-0.200	282.610	-1.600	0.100																			1580074785.0	12.13	22.46
26/01/2020 21:39:46	26012020	260120	213946	282.560	12.236970	-56.361243	282.640	-0.210	-0.230	-0.370	282.550	-1.600	-0.000																			1580074786.0	12.10	22.41
26/01/2020 21:39:47	26012020	260120	213947	282.540	12.236980	-56.361298	282.630	-0.290	-0.280	-0.440	282.550	-1.700	-0.100																			1580074787.0	11.98	22.19
26/01/2020 21:39:48	26012020	260120	213948	282.620	12.236990	-56.361353	282.720	-0.270	-0.430	-0.380	282.640	-1.800	0.000																			1580074788.0	11.95	22.13
26/01/2020 21:39:49	26012020	260120	213949	282.780	12.237002	-56.361410	282.890	-0.110	-0.680	-0.220	282.820	-2.100	0.200																			1580074789.0	12.11	22.43
26/01/2020 21:39:50	26012020	260120	213950	282.970	12.237013	-56.361467	283.090	0.090	-0.770	-0.020	283.000	-2.100	0.400																			1580074790.0	12.28	22.74
26/01/2020 21:39:51	26012020	260120	213951	283.090	12.237025	-56.361523	283.190	0.200	-0.530	0.170	283.090	-1.900	0.500																			1580074791.0	12.22	22.63
26/01/2020 21:39:52	26012020	260120	213952	283.100	12.237038	-56.361578	283.200	0.160	-0.050	0.300	283.100	-1.400	0.700																			1580074792.0	11.95	22.13
26/01/2020 21:39:53	26012020	260120	213953	283.060	12.237050	-56.361633	283.150	0.060	0.320	0.320	283.050	-1.100	0.700																			1580074793.0	11.74	21.74
26/01/2020 21:39:54	26012020	260120	213954	283.000	12.237062	-56.361687	283.090	0.010	0.330	0.250	282.990	-1.100	0.600																			1580074794.0	11.84	21.93
26/01/2020 21:39:55	26012020	260120	213955	282.920	12.237073	-56.361743	282.990	0.050	0.060	0.120	282.900	-1.400	0.400																			1580074795.0	12.14	22.48
26/01/2020 21:39:56	26012020	260120	213956	282.790	12.237085	-56.361800	282.850	0.110	-0.260	-0.080	282.760	-1.700	0.200																			1580074796.0	12.31	22.80
26/01/2020 21:39:57	26012020	260120	213957	282.640	12.237095	-56.361857	282.710	0.110	-0.540	-0.330	282.620	-2.000	-0.000																			1580074797.0	12.29	22.76
26/01/2020 21:39:58	26012020	260120	213958	282.580	12.237107	-56.361913	282.660	0.060	-0.750	-0.570	282.580	-2.100	-0.200																			1580074798.0	12.20	22.59
26/01/2020 21:39:59	26012020	260120	213959	282.640	12.237117	-56.361970	282.730	-0.000	-0.790	-0.710	282.660	-2.200	-0.400	1014.60	26.10	26.20	20.80	20.80	8.00	72.00	72.00	389.00	25.80	40.00	4.80	53.00	4.00	776	3649.00	27.60	27.60	1580074799.0	12.17	22.54
26/01/2020 21:40:00	26012020	260120	214000	282.770	12.237127	-56.362027	282.860	-0.080	-0.570	-0.620	282.800	-1.900	-0.200																			1580074800.0	12.08	22.37
26/01/2020 21:40:01	26012020	260120	214001	282.870	12.237137	-56.362082	282.960	-0.190	-0.190	-0.300	282.880	-1.500	0.100																			1580074801.0	11.88	22.00
26/01/2020 21:40:02	26012020	260120	214002	282.920	12.237148	-56.362137	283.030	-0.310	0.040	0.030	282.930	-1.300	0.400																			1580074802.0	11.74	21.74
26/01/2020 21:40:03	26012020	260120	214003	283.000	12.237160	-56.362192	283.120	-0.320	-0.050	0.240	283.020	-1.500	0.600																			1580074803.0	11.89	22.02
26/01/2020 21:40:04	26012020	260120	214004	283.110	12.237172	-56.362248	283.230	-0.170	-0.340	0.280	283.130	-1.800	0.600																			1580074804.0	12.21	22.61
26/01/2020 21:40:05	26012020	260120	214005	283.150	12.237183	-56.362305	283.240	0.030	-0.510	0.240	283.140	-1.900	0.600																			1580074805.0	12.43	23.02
26/01/2020 21:40:06	26012020	260120	214006	283.040	12.237195	-56.362362	283.100	0.150	-0.380	0.260	283.000	-1.700	0.600																			1580074806.0	12.30	22.78
26/01/2020 21:40:07	26012020	260120	214007	282.830	12.237207	-56.362417	282.870	0.150	-0.120	0.330	282.780	-1.500	0.700																			1580074807.0	11.97	22.17
26/01/2020 21:40:08	26012020	260120	214008	282.610	12.237218	-56.362472	282.670	0.120	-0.020	0.330	282.580	-1.400	0.700																			1580074808.0	11.82	21.89
26/01/2020 21:40:09	26012020	260120	214009	282.540	12.237230	-56.362527	282.640	0.180	-0.180	0.130	282.550	-1.600	0.400																			1580074809.0	11.98	22.19
26/01/2020 21:40:10	26012020	260120	214010	282.660	12.237242	-56.362583	282.780	0.300	-0.430	-0.170	282.700	-1.800	0.200																			1580074810.0	12.27	22.72
26/01/2020 21:40:11	26012020	260120	214011	282.880	12.237253	-56.362642	282.990	0.320	-0.510	-0.320	282.920	-1.900	0.000																			1580074811.0	12.36	22.89
26/01/2020 21:40:12	26012020	260120	214012	283.040	12.237265	-56.362698	283.130	0.140	-0.320	-0.220	283.060	-1.700	0.200																			1580074812.0	12.20	22.59
26/01/2020 21:40:13	26012020	260120	214013	283.090	12.237277	-56.362753	283.160	-0.190	-0.040	-0.030	283.090	-1.400	0.300																			1580074813.0	11.90	22.04
26/01/2020 21:40:14	26012020	260120	214014	283.030	12.237288	-56.362807	283.100	-0.460	0.090	0.030	283.000	-1.300	0.400																			1580074814.0	11.76	21.78
26/01/2020 21:40:15	26012020	260120	214015	282.940	12.237298	-56.362863	283.020	-0.480	-0.070	-0.070	282.930	-1.500	0.300																			1580074815.0	11.90	22.04
26/01/2020 21:40:16	26012020	260120	214016	282.920	12.237307	-56.362920	283.010	-0.210	-0.390	-0.230	282.920	-1.800	0.100																			1580074816.0	12.18	22.56
26/01/2020 21:40:17	26012020	260120	214017	282.940	12.237317	-56.362977	283.040	0.130	-0.630	-0.330	282.950	-2.000	0.000																			1580074817.0	12.34	22.85
26/01/2020 21:40:18	26012020	260120	214018	282.940	12.237327	-56.363033	283.030	0.300	-0.640	-0.260	282.940	-2.000	0.100																			1580074818.0	12.24	22.67
26/01/2020 21:40:19	26012020	260120	214019	282.900	12.237338	-56.363090	282.980	0.240	-0.490	-0.060	282.890	-1.900	0.300																			1580074819.0	12.03	22.28
26/01/2020 21:40:20	26012020	260120	214020	282.840	12.237352	-56.363143	282.920	0.090	-0.350	0.050	282.830	-1.700	0.400																			1580074820.0	11.90	22.04
26/01/2020 21:40:21	26012020	260120	214021	282.820	12.237365	-56.363200	282.930	0.020	-0.340	-0.020	282.830	-1.700	0.300																			1580074821.0	12.00	22.22
26/01/2020 21:40:22	26012020	260120	214022	282.870	12.237375	-56.363255	282.980	0.040	-0.390	-0.220	282.890	-1.800	0.100																			1580074822.0	12.19	22.58
26/01/2020 21:40:23	26012020	260120	214023	282.920	12.237387	-56.363313	283.010	0.050	-0.330	-0.320	282.930	-1.700	0.000																			1580074823.0	12.30	22.78
26/01/2020 21:40:24	26012020	260120	214024	282.920	12.237398	-56.363370	283.000	-0.050	-0.090	-0.270	282.920	-1.400	0.100																			1580074824.0	12.18	22.56
26/01/2020 21:40:25	26012020	260120	214025	282.890	12.237410	-56.363425	282.990	-0.230	0.160	-0.230	282.890	-1.200	0.100																			1580074825.0	11.94	22.11
26/01/2020 21:40:26	26012020	260120	214026	282.920	12.237422	-56.363480	283.020	-0.330	0.170	-0.260	282.940	-1.200	0.100																			1580074826.0	11.87	21.98
26/01/2020 21:40:27	26012020	260120	214027	283.040	12.237432	-56.363535	283.170	-0.210	-0.130	-0.310	283.080	-1.600	0.000																			1580074827.0	12.07	22.35
26/01/2020 21:40:28	26012020	260120	214028	283.240	12.237443	-56.363593	283.370	0.120	-0.540	-0.260	283.280	-2.000	0.100																			1580074828.0	12.38	22.93
26/01/2020 21:40:29	26012020	260120	214029	283.410	12.237455	-56.363650	283.520	0.410	-0.700	-0.050	283.420	-2.100	0.300																			1580074829.0	12.51	23.17
26/01/2020 21:40:30	26012020	260120	214030	283.380	12.237468	-56.363707	283.460	0.390	-0.410	0.280	283.340	-1.700	0.700																			1580074830.0	12.29	22.76
26/01/2020 21:40:31	26012020	260120	214031	283.140	12.237482	-56.363762	283.200	0.060	0.100	0.550	283.080	-1.200	0.900																			1580074831.0	11.77	21.80
26/01/2020 21:40:32	26012020	260120	214032	282.800	12.237493	-56.363813	282.860	-0.330	0.370	0.520	282.740	-1.000	0.900																			1580074832.0	11.43	21.17
26/01/2020 21:40:33	26012020	260120	214033	282.520	12.237503	-56.363868	282.580	-0.500	0.100	0.190	282.490	-1.400	0.500																			1580074833.0	11.60	21.48
26/01/2020 21:40:34	26012020	260120	214034	282.450	12.237512	-56.363925	282.540	-0.330	-0.600	-0.240	282.470	-2.100	0.100																			1580074834.0	12.09	22.39
26/01/2020 21:40:35	26012020	260120	214035	282.650	12.237520	-56.363983	282.770	0.120	-1.330	-0.560	282.710	-2.800	-0.200																			1580074835.0	12.57	23.28
26/01/2020 21:40:36	26012020	260120	214036	282.990	12.237530	-56.364042	283.130	0.590	-1.540	-0.570	283.060	-2.900	-0.200																			1580074836.0	12.72	23.56
26/01/2020 21:40:37	26012020	260120	214037	283.280	12.237543	-56.364100	283.400	0.750	-1.010	-0.250	283.320	-2.300	0.200																			1580074837.0	12.39	22.95
26/01/2020 21:40:38	26012020	260120	214038	283.390	12.237557	-56.364153	283.490	0.480	-0.040	0.110	283.380	-1.300	0.500																			1580074838.0	11.86	21.96
26/01/2020 21:40:39	26012020	260120	214039	283.300	12.237572	-56.364207	283.380	-0.090	0.760	0.250	283.260	-0.600	0.600																			1580074839.0	11.51	21.32
26/01/2020 21:40:40	26012020	260120	214040	283.080	12.237583	-56.364260	283.160	-0.670	0.990	0.040	283.030	-0.400	0.400																			1580074840.0	11.62	21.52
26/01/2020 21:40:41	26012020	260120	214041	282.840	12.237593	-56.364317	282.930	-0.970	0.630	-0.320	282.810	-0.800	0.000																			1580074841.0	12.07	22.35
26/01/2020 21:40:42	26012020	260120	214042	282.710	12.237600	-56.364375	282.800	-0.840	-0.050	-0.610	282.700	-1.500	-0.300																			1580074842.0	12.47	23.09
26/01/2020 21:40:43	26012020	260120	214043	282.750	12.237608	-56.364433	282.870	-0.320	-0.750	-0.650	282.770	-2.200	-0.300																			1580074843.0	12.63	23.39
26/01/2020 21:40:44	26012020	260120	214044	282.910	12.237618	-56.364492	283.050	0.370	-1.160	-0.370	282.950	-2.600	0.000																			1580074844.0	12.57	23.28
26/01/2020 21:40:45	26012020	260120	214045	283.100	12.237632	-56.364548	283.240	0.860	-1.080	0.100	283.130	-2.400	0.500																			1580074845.0	12.36	22.89
26/01/2020 21:40:46	26012020	260120	214046	283.190	12.237648	-56.364603	283.310	0.870	-0.490	0.540	283.180	-1.800	0.900																			1580074846.0	11.96	22.15
26/01/2020 21:40:47	26012020	260120	214047	283.140	12.237663	-56.364655	283.250	0.420	0.170	0.670	283.130	-1.200	1.000																			1580074847.0	11.52	21.34
26/01/2020 21:40:48	26012020	260120	214048	283.080	12.237675	-56.364708	283.190	-0.140	0.440	0.340	283.070	-1.000	0.600																			1580074848.0	11.41	21.13
26/01/2020 21:40:49	26012020	260120	214049	283.090	12.237685	-56.364763	283.200	-0.460	0.170	-0.230	283.100	-1.300	0.100																			1580074849.0	11.78	21.82
26/01/2020 21:40:50	26012020	260120	214050	283.190	12.237692	-56.364820	283.310	-0.410	-0.370	-0.660	283.210	-1.800	-0.300																			1580074850.0	12.30	22.78
26/01/2020 21:40:51	26012020	260120	214051	283.370	12.237700	-56.364880	283.500	-0.120	-0.820	-0.700	283.420	-2.200	-0.300																			1580074851.0	12.55	23.24
26/01/2020 21:40:52	26012020	260120	214052	283.580	12.237712	-56.364937	283.700	0.140	-0.900	-0.450	283.610	-2.300	-0.100																			1580074852.0	12.44	23.04
26/01/2020 21:40:53	26012020	260120	214053	283.670	12.237723	-56.364993	283.780	0.170	-0.580	-0.120	283.670	-1.900	0.300																			1580074853.0	12.12	22.45
26/01/2020 21:40:54	26012020	260120	214054	283.640	12.237737	-56.365047	283.730	-0.000	-0.140	0.100	283.610	-1.500	0.500																			1580074854.0	11.77	21.80
26/01/2020 21:40:55	26012020	260120	214055	283.540	12.237750	-56.365100	283.650	-0.170	0.040	0.120	283.530	-1.400	0.500																			1580074855.0	11.69	21.65
26/01/2020 21:40:56	26012020	260120	214056	283.490	12.237760	-56.365157	283.610	-0.120	-0.180	-0.060	283.490	-1.600	0.300																			1580074856.0	12.01	22.24
26/01/2020 21:40:57	26012020	260120	214057	283.490	12.237772	-56.365215	283.590	0.150	-0.510	-0.220	283.480	-1.900	0.100																			1580074857.0	12.50	23.15
26/01/2020 21:40:58	26012020	260120	214058	283.430	12.237783	-56.365273	283.520	0.370	-0.510	-0.180	283.410	-1.900	0.200																			1580074858.0	12.65	23.43
26/01/2020 21:40:59	26012020	260120	214059	283.250	12.237797	-56.365328	283.340	0.270	-0.030	0.010	283.200	-1.300	0.400	1014.60	26.10	26.20	21.00	21.00	7.00	73.00	73.00	390.00	25.80	39.00	5.40	44.00	3.90	703	3693.00	27.60	27.60	1580074859.0	12.27	22.72
26/01/2020 21:41:00	26012020	260120	214100	282.990	12.237810	-56.365383	283.070	-0.160	0.550	0.130	282.940	-0.800	0.500																			1580074860.0	11.68	21.63
26/01/2020 21:41:01	26012020	260120	214101	282.790	12.237822	-56.365435	282.880	-0.620	0.700	-0.040	282.770	-0.700	0.300																			1580074861.0	11.39	21.09
26/01/2020 21:41:02	26012020	260120	214102	282.750	12.237832	-56.365490	282.850	-0.720	0.140	-0.360	282.760	-1.400	-0.100																			1580074862.0	11.68	21.63
26/01/2020 21:41:03	26012020	260120	214103	282.910	12.237840	-56.365547	283.050	-0.300	-0.860	-0.630	282.960	-2.400	-0.300																			1580074863.0	12.34	22.85
26/01/2020 21:41:04	26012020	260120	214104	283.250	12.237850	-56.365607	283.410	0.390	-1.580	-0.580	283.330	-3.000	-0.200																			1580074864.0	12.82	23.74
26/01/2020 21:41:05	26012020	260120	214105	283.650	12.237862	-56.365665	283.820	0.860	-1.440	-0.190	283.730	-2.800	0.200																			1580074865.0	12.62	23.37
26/01/2020 21:41:06	26012020	260120	214106	283.970	12.237877	-56.365720	284.100	0.770	-0.570	0.250	284.000	-1.800	0.600																			1580074866.0	11.89	22.02
26/01/2020 21:41:07	26012020	260120	214107	284.070	12.237892	-56.365772	284.180	0.230	0.340	0.440	284.060	-1.000	0.800																			1580074867.0	11.26	20.85
26/01/2020 21:41:08	26012020	260120	214108	283.980	12.237903	-56.365822	284.060	-0.360	0.710	0.280	283.940	-0.700	0.600																			1580074868.0	11.24	20.82
26/01/2020 21:41:09	26012020	260120	214109	283.760	12.237915	-56.365877	283.810	-0.640	0.390	-0.030	283.700	-1.100	0.300																			1580074869.0	11.80	21.85
26/01/2020 21:41:10	26012020	260120	214110	283.470	12.237923	-56.365935	283.520	-0.520	-0.290	-0.280	283.410	-1.800	0.100																			1580074870.0	12.45	23.06
26/01/2020 21:41:11	26012020	260120	214111	283.210	12.237933	-56.365995	283.270	-0.180	-0.810	-0.310	283.170	-2.200	0.100																			1580074871.0	12.74	23.59
26/01/2020 21:41:12	26012020	260120	214112	283.080	12.237945	-56.366053	283.160	0.160	-0.890	-0.150	283.060	-2.300	0.200																			1580074872.0	12.52	23.19
26/01/2020 21:41:13	26012020	260120	214113	283.100	12.237957	-56.366108	283.210	0.340	-0.630	0.080	283.110	-2.000	0.500																			1580074873.0	12.11	22.43
26/01/2020 21:41:14	26012020	260120	214114	283.220	12.237972	-56.366163	283.350	0.320	-0.270	0.220	283.250	-1.600	0.600																			1580074874.0	11.86	21.96
26/01/2020 21:41:15	26012020	260120	214115	283.360	12.237985	-56.366217	283.480	0.150	0.060	0.210	283.380	-1.300	0.600																			1580074875.0	11.84	21.93
26/01/2020 21:41:16	26012020	260120	214116	283.490	12.237997	-56.366272	283.620	-0.120	0.280	0.020	283.520	-1.100	0.400																			1580074876.0	11.86	21.96
26/01/2020 21:41:17	26012020	260120	214117	283.640	12.238008	-56.366327	283.780	-0.350	0.320	-0.260	283.680	-1.100	0.100																			1580074877.0	11.90	22.04
26/01/2020 21:41:18	26012020	260120	214118	283.830	12.238018	-56.366382	283.960	-0.380	0.140	-0.480	283.870	-1.300	-0.100																			1580074878.0	11.95	22.13
26/01/2020 21:41:19	26012020	260120	214119	284.010	12.238028	-56.366438	284.150	-0.130	-0.260	-0.470	284.050	-1.700	-0.100																			1580074879.0	12.07	22.35
26/01/2020 21:41:20	26012020	260120	214120	284.140	12.238040	-56.366495	284.260	0.270	-0.700	-0.180	284.140	-2.100	0.200																			1580074880.0	12.24	22.67
26/01/2020 21:41:21	26012020	260120	214121	284.110	12.238053	-56.366552	284.210	0.550	-0.880	0.180	284.090	-2.300	0.600																			1580074881.0	12.26	22.71
26/01/2020 21:41:22	26012020	260120	214122	283.980	12.238067	-56.366607	284.070	0.500	-0.780	0.360	283.950	-2.100	0.700																			1580074882.0	12.01	22.24
26/01/2020 21:41:23	26012020	260120	214123	283.860	12.238082	-56.366660	283.950	0.190	-0.620	0.210	283.840	-2.000	0.500																			1580074883.0	11.78	21.82
26/01/2020 21:41:24	26012020	260120	214124	283.780	12.238093	-56.366715	283.880	-0.140	-0.560	-0.140	283.770	-1.900	0.200																			1580074884.0	11.86	21.96
26/01/2020 21:41:25	26012020	260120	214125	283.710	12.238103	-56.366772	283.810	-0.380	-0.450	-0.490	283.700	-1.800	-0.200																			1580074885.0	12.13	22.46
26/01/2020 21:41:26	26012020	260120	214126	283.630	12.238113	-56.366828	283.720	-0.530	-0.120	-0.610	283.610	-1.500	-0.200																			1580074886.0	12.21	22.61
26/01/2020 21:41:27	26012020	260120	214127	283.540	12.238123	-56.366885	283.630	-0.550	0.280	-0.410	283.530	-1.100	-0.000																			1580074887.0	12.01	22.24
26/01/2020 21:41:28	26012020	260120	214128	283.520	12.238133	-56.366940	283.620	-0.380	0.410	-0.080	283.520	-1.000	0.300																			1580074888.0	11.88	22.00
26/01/2020 21:41:29	26012020	260120	214129	283.560	12.238147	-56.366995	283.690	0.030	0.180	0.230	283.590	-1.300	0.600																			1580074889.0	12.08	22.37
26/01/2020 21:41:30	26012020	260120	214130	283.670	12.238162	-56.367052	283.810	0.510	-0.200	0.470	283.700	-1.600	0.900																			1580074890.0	12.39	22.95
26/01/2020 21:41:31	26012020	260120	214131	283.770	12.238177	-56.367108	283.900	0.800	-0.440	0.600	283.780	-1.800	1.000																			1580074891.0	12.43	23.02
26/01/2020 21:41:32	26012020	260120	214132	283.780	12.238192	-56.367163	283.900	0.680	-0.400	0.520	283.780	-1.800	0.800																			1580074892.0	12.18	22.56
26/01/2020 21:41:33	26012020	260120	214133	283.700	12.238205	-56.367218	283.790	0.240	-0.180	0.230	283.670	-1.500	0.500																			1580074893.0	11.78	21.82
26/01/2020 21:41:34	26012020	260120	214134	283.520	12.238217	-56.367272	283.600	-0.280	-0.060	-0.200	283.480	-1.500	0.100																			1580074894.0	11.50	21.30
26/01/2020 21:41:35	26012020	260120	214135	283.370	12.238225	-56.367325	283.470	-0.560	-0.300	-0.680	283.360	-1.700	-0.400																			1580074895.0	11.58	21.45
26/01/2020 21:41:36	26012020	260120	214136	283.390	12.238233	-56.367382	283.490	-0.480	-0.820	-1.020	283.410	-2.300	-0.700																			1580074896.0	12.01	22.24
26/01/2020 21:41:37	26012020	260120	214137	283.530	12.238242	-56.367438	283.630	-0.190	-1.210	-0.990	283.570	-2.600	-0.600																			1580074897.0	12.39	22.95
26/01/2020 21:41:38	26012020	260120	214138	283.710	12.238253	-56.367497	283.820	0.040	-1.140	-0.720	283.750	-2.500	-0.300																			1580074898.0	12.39	22.95
26/01/2020 21:41:39	26012020	260120	214139	283.850	12.238267	-56.367552	283.940	0.080	-0.630	-0.340	283.860	-1.900	0.100																			1580074899.0	12.10	22.41
26/01/2020 21:41:40	26012020	260120	214140	283.870	12.238278	-56.367607	283.940	0.000	0.040	0.060	283.860	-1.300	0.500																			1580074900.0	11.82	21.89
26/01/2020 21:41:41	26012020	260120	214141	283.760	12.238293	-56.367660	283.830	-0.080	0.540	0.400	283.720	-0.800	0.800																			1580074901.0	11.77	21.80
26/01/2020 21:41:42	26012020	260120	214142	283.580	12.238307	-56.367715	283.640	-0.050	0.630	0.580	283.530	-0.800	0.900																			1580074902.0	11.95	22.13
26/01/2020 21:41:43	26012020	260120	214143	283.360	12.238320	-56.367772	283.420	0.080	0.380	0.490	283.310	-1.100	0.800																			1580074903.0	12.25	22.69
26/01/2020 21:41:44	26012020	260120	214144	283.150	12.238332	-56.367828	283.230	0.190	0.040	0.240	283.120	-1.400	0.600																			1580074904.0	12.42	23.00
26/01/2020 21:41:45	26012020	260120	214145	283.000	12.238345	-56.367885	283.090	0.170	-0.150	0.020	282.980	-1.600	0.300																			1580074905.0	12.26	22.71
26/01/2020 21:41:46	26012020	260120	214146	282.940	12.238357	-56.367940	283.020	0.030	-0.250	-0.160	282.940	-1.700	0.200																			1580074906.0	11.89	22.02
26/01/2020 21:41:47	26012020	260120	214147	282.990	12.238367	-56.367995	283.110	-0.080	-0.500	-0.340	283.020	-1.900	0.000																			1580074907.0	11.68	21.63
26/01/2020 21:41:48	26012020	260120	214148	283.190	12.238378	-56.368050	283.320	-0.010	-0.920	-0.440	283.240	-2.400	-0.100																			1580074908.0	11.83	21.91
26/01/2020 21:41:49	26012020	260120	214149	283.420	12.238388	-56.368105	283.540	0.170	-1.220	-0.330	283.450	-2.600	0.100																			1580074909.0	12.15	22.50
26/01/2020 21:41:50	26012020	260120	214150	283.520	12.238402	-56.368162	283.630	0.270	-1.070	0.010	283.520	-2.400	0.400																			1580074910.0	12.22	22.63
26/01/2020 21:41:51	26012020	260120	214151	283.480	12.238415	-56.368217	283.570	0.140	-0.480	0.330	283.460	-1.800	0.700																			1580074911.0	11.92	22.08
26/01/2020 21:41:52	26012020	260120	214152	283.330	12.238427	-56.368270	283.410	-0.140	0.160	0.430	283.300	-1.200	0.800																			1580074912.0	11.60	21.48
26/01/2020 21:41:53	26012020	260120	214153	283.110	12.238438	-56.368323	283.170	-0.370	0.440	0.300	283.060	-1.000	0.600																			1580074913.0	11.60	21.48
26/01/2020 21:41:54	26012020	260120	214154	282.900	12.238448	-56.368380	282.970	-0.370	0.240	0.080	282.880	-1.200	0.400																			1580074914.0	11.96	22.15
26/01/2020 21:41:55	26012020	260120	214155	282.840	12.238458	-56.368437	282.940	-0.180	-0.230	-0.120	282.850	-1.700	0.200																			1580074915.0	12.41	22.98
26/01/2020 21:41:56	26012020	260120	214156	282.930	12.238470	-56.368495	283.020	0.070	-0.560	-0.190	282.950	-2.000	0.200																			1580074916.0	12.61	23.35
26/01/2020 21:41:57	26012020	260120	214157	283.060	12.238483	-56.368553	283.160	0.220	-0.530	-0.100	283.090	-1.900	0.300																			1580074917.0	12.42	23.00
26/01/2020 21:41:58	26012020	260120	214158	283.180	12.238495	-56.368608	283.280	0.210	-0.270	0.100	283.200	-1.600	0.500																			1580074918.0	12.04	22.30
26/01/2020 21:41:59	26012020	260120	214159	283.220	12.238508	-56.368662	283.320	0.040	0.010	0.300	283.220	-1.400	0.700	1014.60	26.10	26.10	21.00	21.00	6.00	73.00	73.00	390.00	25.80	32.00	5.80	36.00	3.30	633	3550.00	27.60	27.60	1580074919.0	11.81	21.87
26/01/2020 21:42:00	26012020	260120	214200	283.140	12.238522	-56.368717	283.220	-0.170	0.180	0.410	283.100	-1.200	0.800																			1580074920.0	11.75	21.76
26/01/2020 21:42:01	26012020	260120	214201	282.920	12.238533	-56.368772	282.990	-0.270	0.130	0.340	282.870	-1.300	0.700																			1580074921.0	11.78	21.82
26/01/2020 21:42:02	26012020	260120	214202	282.690	12.238542	-56.368827	282.760	-0.170	-0.150	0.120	282.650	-1.600	0.400																			1580074922.0	11.91	22.06
26/01/2020 21:42:03	26012020	260120	214203	282.550	12.238552	-56.368883	282.630	0.110	-0.550	-0.100	282.530	-2.000	0.200																			1580074923.0	12.10	22.41
26/01/2020 21:42:04	26012020	260120	214204	282.520	12.238562	-56.368940	282.610	0.430	-0.870	-0.180	282.520	-2.300	0.200																			1580074924.0	12.20	22.59
26/01/2020 21:42:05	26012020	260120	214205	282.540	12.238573	-56.368995	282.620	0.590	-0.890	-0.070	282.540	-2.300	0.300																			1580074925.0	12.17	22.54
26/01/2020 21:42:06	26012020	260120	214206	282.540	12.238588	-56.369050	282.600	0.480	-0.600	0.180	282.530	-1.900	0.600																			1580074926.0	11.97	22.17
26/01/2020 21:42:07	26012020	260120	214207	282.480	12.238602	-56.369105	282.550	0.110	-0.190	0.350	282.470	-1.500	0.700																			1580074927.0	11.76	21.78
26/01/2020 21:42:08	26012020	260120	214208	282.440	12.238615	-56.369158	282.520	-0.310	0.040	0.250	282.440	-1.300	0.600																			1580074928.0	11.71	21.69
26/01/2020 21:42:09	26012020	260120	214209	282.500	12.238625	-56.369213	282.590	-0.550	-0.010	-0.110	282.530	-1.400	0.200																			1580074929.0	11.91	22.06
26/01/2020 21:42:10	26012020	260120	214210	282.700	12.238633	-56.369270	282.810	-0.510	-0.270	-0.450	282.750	-1.700	-0.100																			1580074930.0	12.24	22.67
26/01/2020 21:42:11	26012020	260120	214211	282.920	12.238642	-56.369328	283.020	-0.310	-0.500	-0.540	282.960	-1.900	-0.200																			1580074931.0	12.47	23.09
26/01/2020 21:42:12	26012020	260120	214212	283.060	12.238652	-56.369387	283.140	-0.140	-0.490	-0.320	283.070	-1.900	0.100																			1580074932.0	12.42	23.00
26/01/2020 21:42:13	26012020	260120	214213	283.100	12.238663	-56.369443	283.180	-0.090	-0.260	-0.070	283.100	-1.600	0.300																			1580074933.0	12.14	22.48
26/01/2020 21:42:14	26012020	260120	214214	283.110	12.238675	-56.369498	283.190	-0.110	-0.030	0.030	283.110	-1.400	0.400																			1580074934.0	11.90	22.04
26/01/2020 21:42:15	26012020	260120	214215	283.130	12.238687	-56.369553	283.210	-0.070	0.060	-0.020	283.140	-1.400	0.300																			1580074935.0	11.85	21.95
26/01/2020 21:42:16	26012020	260120	214216	283.150	12.238697	-56.369608	283.210	0.100	-0.010	-0.130	283.150	-1.400	0.200																			1580074936.0	11.96	22.15
26/01/2020 21:42:17	26012020	260120	214217	283.080	12.238708	-56.369665	283.120	0.320	-0.100	-0.120	283.050	-1.500	0.200																			1580074937.0	12.10	22.41
26/01/2020 21:42:18	26012020	260120	214218	282.830	12.238720	-56.369720	282.850	0.480	-0.120	0.100	282.760	-1.500	0.500																			1580074938.0	12.08	22.37
26/01/2020 21:42:19	26012020	260120	214219	282.440	12.238733	-56.369775	282.450	0.440	-0.050	0.370	282.360	-1.400	0.700																			1580074939.0	11.92	22.08
26/01/2020 21:42:20	26012020	260120	214220	282.070	12.238747	-56.369828	282.110	0.220	-0.060	0.430	282.010	-1.500	0.800																			1580074940.0	11.75	21.76
26/01/2020 21:42:21	26012020	260120	214221	281.850	12.238760	-56.369883	281.900	0.000	-0.310	0.240	281.820	-1.800	0.500																			1580074941.0	11.72	21.71
26/01/2020 21:42:22	26012020	260120	214222	281.820	12.238770	-56.369938	281.910	-0.040	-0.820	-0.090	281.850	-2.300	0.200																			1580074942.0	11.95	22.13
26/01/2020 21:42:23	26012020	260120	214223	282.000	12.238780	-56.369995	282.110	0.110	-1.300	-0.360	282.060	-2.700	-0.000																			1580074943.0	12.31	22.80
26/01/2020 21:42:24	26012020	260120	214224	282.320	12.238792	-56.370053	282.440	0.220	-1.390	-0.440	282.390	-2.800	-0.100																			1580074944.0	12.47	23.09
26/01/2020 21:42:25	26012020	260120	214225	282.640	12.238803	-56.370110	282.760	0.080	-0.950	-0.320	282.700	-2.300	0.000																			1580074945.0	12.27	22.72
26/01/2020 21:42:26	26012020	260120	214226	282.880	12.238815	-56.370165	282.980	-0.330	-0.160	-0.140	282.910	-1.500	0.200																			1580074946.0	11.91	22.06
26/01/2020 21:42:27	26012020	260120	214227	282.970	12.238825	-56.370220	283.050	-0.790	0.530	-0.020	282.980	-0.800	0.300																			1580074947.0	11.66	21.59
26/01/2020 21:42:28	26012020	260120	214228	282.930	12.238835	-56.370275	282.990	-1.000	0.740	-0.020	282.920	-0.700	0.300																			1580074948.0	11.78	21.82
26/01/2020 21:42:29	26012020	260120	214229	282.810	12.238842	-56.370332	282.870	-0.800	0.430	-0.130	282.790	-1.000	0.200																			1580074949.0	12.23	22.65
26/01/2020 21:42:30	26012020	260120	214230	282.670	12.238850	-56.370392	282.720	-0.230	-0.050	-0.140	282.640	-1.500	0.200																			1580074950.0	12.65	23.43
26/01/2020 21:42:31	26012020	260120	214231	282.490	12.238860	-56.370450	282.530	0.400	-0.300	0.080	282.440	-1.700	0.500																			1580074951.0	12.66	23.45
26/01/2020 21:42:32	26012020	260120	214232	282.250	12.238873	-56.370507	282.290	0.800	-0.240	0.460	282.200	-1.600	0.900																			1580074952.0	12.28	22.74
26/01/2020 21:42:33	26012020	260120	214233	282.030	12.238888	-56.370560	282.100	0.790	-0.040	0.700	281.990	-1.400	1.100																			1580074953.0	11.88	22.00
26/01/2020 21:42:34	26012020	260120	214234	281.880	12.238903	-56.370613	281.960	0.490	0.040	0.560	281.860	-1.400	0.900																			1580074954.0	11.62	21.52
26/01/2020 21:42:35	26012020	260120	214235	281.790	12.238915	-56.370667	281.860	0.160	-0.120	0.160	281.780	-1.600	0.500																			1580074955.0	11.61	21.50
26/01/2020 21:42:36	26012020	260120	214236	281.760	12.238925	-56.370722	281.840	-0.020	-0.500	-0.230	281.770	-1.900	0.100																			1580074956.0	11.80	21.85
26/01/2020 21:42:37	26012020	260120	214237	281.860	12.238933	-56.370778	281.970	0.000	-0.950	-0.520	281.910	-2.400	-0.200																			1580074957.0	12.04	22.30
26/01/2020 21:42:38	26012020	260120	214238	282.140	12.238943	-56.370835	282.280	0.120	-1.250	-0.580	282.210	-2.700	-0.200																			1580074958.0	12.19	22.58
26/01/2020 21:42:39	26012020	260120	214239	282.510	12.238953	-56.370892	282.650	0.180	-1.220	-0.410	282.590	-2.600	-0.000																			1580074959.0	12.18	22.56
26/01/2020 21:42:40	26012020	260120	214240	282.840	12.238965	-56.370947	282.970	0.080	-0.850	-0.220	282.900	-2.200	0.200																			1580074960.0	12.05	22.32
26/01/2020 21:42:41	26012020	260120	214241	283.080	12.238977	-56.371002	283.190	-0.170	-0.330	-0.130	283.110	-1.700	0.200																			1580074961.0	11.94	22.11
26/01/2020 21:42:42	26012020	260120	214242	283.190	12.238987	-56.371058	283.280	-0.460	0.160	-0.150	283.190	-1.200	0.200																			1580074962.0	11.98	22.19
26/01/2020 21:42:43	26012020	260120	214243	283.140	12.238997	-56.371113	283.210	-0.660	0.510	-0.220	283.110	-0.900	0.100																			1580074963.0	12.07	22.35
26/01/2020 21:42:44	26012020	260120	214244	282.970	12.239007	-56.371170	283.020	-0.650	0.610	-0.320	282.920	-0.800	0.000																			1580074964.0	12.16	22.52
26/01/2020 21:42:45	26012020	260120	214245	282.760	12.239015	-56.371228	282.820	-0.390	0.400	-0.420	282.720	-1.000	-0.100																			1580074965.0	12.28	22.74
26/01/2020 21:42:46	26012020	260120	214246	282.610	12.239025	-56.371287	282.680	0.050	-0.010	-0.440	282.590	-1.500	-0.100																			1580074966.0	12.41	22.98
26/01/2020 21:42:47	26012020	260120	214247	282.530	12.239038	-56.371343	282.590	0.450	-0.370	-0.290	282.520	-1.800	0.100																			1580074967.0	12.48	23.11
26/01/2020 21:42:48	26012020	260120	214248	282.450	12.239052	-56.371400	282.500	0.600	-0.450	-0.010	282.440	-1.800	0.400																			1580074968.0	12.30	22.78
26/01/2020 21:42:49	26012020	260120	214249	282.340	12.239067	-56.371455	282.370	0.440	-0.300	0.280	282.310	-1.700	0.700																			1580074969.0	11.91	22.06
26/01/2020 21:42:50	26012020	260120	214250	282.210	12.239080	-56.371507	282.260	0.160	-0.210	0.370	282.200	-1.600	0.700																			1580074970.0	11.57	21.43
26/01/2020 21:42:51	26012020	260120	214251	282.180	12.239092	-56.371560	282.250	-0.040	-0.400	0.220	282.200	-1.800	0.500																			1580074971.0	11.57	21.43
26/01/2020 21:42:52	26012020	260120	214252	282.300	12.239100	-56.371617	282.390	-0.050	-0.810	-0.050	282.340	-2.300	0.300																			1580074972.0	11.90	22.04
26/01/2020 21:42:53	26012020	260120	214253	282.520	12.239110	-56.371673	282.630	0.090	-1.170	-0.240	282.570	-2.600	0.100																			1580074973.0	12.24	22.67
26/01/2020 21:42:54	26012020	260120	214254	282.770	12.239120	-56.371730	282.880	0.220	-1.160	-0.240	282.810	-2.500	0.100																			1580074974.0	12.36	22.89
26/01/2020 21:42:55	26012020	260120	214255	283.000	12.239132	-56.371787	283.110	0.190	-0.720	-0.060	283.050	-2.000	0.300																			1580074975.0	12.18	22.56
26/01/2020 21:42:56	26012020	260120	214256	283.190	12.239143	-56.371842	283.280	-0.030	-0.010	0.180	283.200	-1.300	0.600																			1580074976.0	11.92	22.08
26/01/2020 21:42:57	26012020	260120	214257	283.210	12.239155	-56.371897	283.300	-0.330	0.580	0.380	283.200	-0.800	0.800																			1580074977.0	11.75	21.76
26/01/2020 21:42:58	26012020	260120	214258	283.090	12.239167	-56.371952	283.170	-0.530	0.770	0.380	283.060	-0.600	0.700																			1580074978.0	11.86	21.96
26/01/2020 21:42:59	26012020	260120	214259	282.910	12.239177	-56.372008	282.970	-0.520	0.500	0.140	282.880	-1.000	0.500																			1580074979.0	12.16	22.52
26/01/2020 21:43:00	26012020	260120	214300	282.810	12.239187	-56.372067	282.880	-0.290	0.000	-0.150	282.810	-1.500	0.200	1014.60	26.10	26.10	20.90	20.90	5.00	73.00	73.00	389.00	25.80	33.00	5.20	46.00	3.40	568	3692.00	27.60	27.60	1580074980.0	12.46	23.08
26/01/2020 21:43:01	26012020	260120	214301	282.840	12.239197	-56.372125	282.920	0.060	-0.410	-0.330	282.850	-1.800	0.000																			1580074981.0	12.52	23.19
26/01/2020 21:43:02	26012020	260120	214302	282.890	12.239207	-56.372182	282.970	0.390	-0.590	-0.250	282.890	-2.000	0.100																			1580074982.0	12.29	22.76
26/01/2020 21:43:03	26012020	260120	214303	282.870	12.239218	-56.372237	282.940	0.590	-0.600	0.070	282.860	-2.000	0.500																			1580074983.0	11.96	22.15
26/01/2020 21:43:04	26012020	260120	214304	282.830	12.239233	-56.372290	282.890	0.600	-0.570	0.370	282.820	-2.000	0.700																			1580074984.0	11.79	21.84
26/01/2020 21:43:05	26012020	260120	214305	282.830	12.239247	-56.372345	282.910	0.430	-0.590	0.450	282.830	-2.000	0.800																			1580074985.0	11.80	21.85
26/01/2020 21:43:06	26012020	260120	214306	282.880	12.239260	-56.372398	282.970	0.170	-0.650	0.230	282.890	-2.000	0.500																			1580074986.0	11.91	22.06
26/01/2020 21:43:07	26012020	260120	214307	282.980	12.239272	-56.372455	283.080	-0.110	-0.640	-0.140	283.000	-2.000	0.200																			1580074987.0	12.05	22.32
26/01/2020 21:43:08	26012020	260120	214308	283.140	12.239280	-56.372512	283.240	-0.340	-0.500	-0.450	283.170	-1.900	-0.100																			1580074988.0	12.12	22.45
26/01/2020 21:43:09	26012020	260120	214309	283.320	12.239290	-56.372568	283.420	-0.470	-0.290	-0.510	283.360	-1.700	-0.100																			1580074989.0	12.10	22.41
26/01/2020 21:43:10	26012020	260120	214310	283.470	12.239300	-56.372623	283.580	-0.470	-0.090	-0.310	283.500	-1.500	0.100																			1580074990.0	12.10	22.41
26/01/2020 21:43:11	26012020	260120	214311	283.560	12.239310	-56.372680	283.670	-0.390	0.090	-0.070	283.570	-1.300	0.300																			1580074991.0	12.16	22.52
26/01/2020 21:43:12	26012020	260120	214312	283.560	12.239322	-56.372737	283.660	-0.290	0.210	0.060	283.550	-1.200	0.400																			1580074992.0	12.16	22.52
26/01/2020 21:43:13	26012020	260120	214313	283.470	12.239333	-56.372793	283.570	-0.160	0.200	0.110	283.450	-1.200	0.500																			1580074993.0	12.14	22.48
26/01/2020 21:43:14	26012020	260120	214314	283.380	12.239345	-56.372850	283.490	0.060	0.050	0.110	283.360	-1.400	0.500																			1580074994.0	12.17	22.54
26/01/2020 21:43:15	26012020	260120	214315	283.340	12.239357	-56.372905	283.450	0.340	-0.160	0.060	283.330	-1.600	0.400																			1580074995.0	12.18	22.56
26/01/2020 21:43:16	26012020	260120	214316	283.330	12.239368	-56.372962	283.430	0.600	-0.340	-0.010	283.330	-1.800	0.300																			1580074996.0	12.12	22.45
26/01/2020 21:43:17	26012020	260120	214317	283.270	12.239382	-56.373017	283.350	0.700	-0.470	-0.060	283.260	-1.900	0.300																			1580074997.0	12.03	22.28
26/01/2020 21:43:18	26012020	260120	214318	283.190	12.239395	-56.373072	283.270	0.540	-0.540	-0.130	283.190	-2.000	0.200																			1580074998.0	11.92	22.08
26/01/2020 21:43:19	26012020	260120	214319	283.200	12.239408	-56.373127	283.310	0.220	-0.610	-0.340	283.210	-2.000	-0.000																			1580074999.0	11.87	21.98
26/01/2020 21:43:20	26012020	260120	214320	283.300	12.239420	-56.373182	283.420	-0.110	-0.680	-0.610	283.330	-2.100	-0.300																			1580075000.0	11.92	22.08
26/01/2020 21:43:21	26012020	260120	214321	283.430	12.239430	-56.373237	283.530	-0.350	-0.680	-0.810	283.450	-2.100	-0.500																			1580075001.0	12.03	22.28
26/01/2020 21:43:22	26012020	260120	214322	283.520	12.239440	-56.373293	283.600	-0.490	-0.540	-0.810	283.530	-1.900	-0.400																			1580075002.0	12.10	22.41
26/01/2020 21:43:23	26012020	260120	214323	283.590	12.239450	-56.373350	283.680	-0.570	-0.310	-0.620	283.610	-1.700	-0.200																			1580075003.0	12.06	22.34
26/01/2020 21:43:24	26012020	260120	214324	283.700	12.239462	-56.373405	283.790	-0.580	-0.160	-0.420	283.720	-1.500	-0.000																			1580075004.0	12.04	22.30
26/01/2020 21:43:25	26012020	260120	214325	283.800	12.239473	-56.373462	283.890	-0.430	-0.150	-0.280	283.820	-1.500	0.100																			1580075005.0	12.20	22.59
26/01/2020 21:43:26	26012020	260120	214326	283.830	12.239485	-56.373518	283.910	-0.120	-0.140	-0.080	283.820	-1.500	0.300																			1580075006.0	12.36	22.89
26/01/2020 21:43:27	26012020	260120	214327	283.750	12.239497	-56.373577	283.800	0.230	0.010	0.220	283.710	-1.400	0.600																			1580075007.0	12.35	22.87
26/01/2020 21:43:28	26012020	260120	214328	283.550	12.239510	-56.373632	283.600	0.460	0.240	0.580	283.500	-1.100	1.000																			1580075008.0	12.12	22.45
26/01/2020 21:43:29	26012020	260120	214329	283.310	12.239525	-56.373687	283.370	0.480	0.340	0.750	283.260	-1.100	1.100																			1580075009.0	11.90	22.04
26/01/2020 21:43:30	26012020	260120	214330	283.100	12.239538	-56.373740	283.170	0.350	0.180	0.540	283.070	-1.300	0.800																			1580075010.0	11.86	21.96
26/01/2020 21:43:31	26012020	260120	214331	283.000	12.239552	-56.373795	283.080	0.180	-0.210	0.070	282.990	-1.700	0.400																			1580075011.0	11.97	22.17
26/01/2020 21:43:32	26012020	260120	214332	283.030	12.239563	-56.373852	283.130	0.050	-0.660	-0.400	283.050	-2.100	-0.100																			1580075012.0	12.10	22.41
26/01/2020 21:43:33	26012020	260120	214333	283.170	12.239573	-56.373908	283.290	0.010	-0.980	-0.690	283.210	-2.400	-0.400																			1580075013.0	12.15	22.50
26/01/2020 21:43:34	26012020	260120	214334	283.390	12.239583	-56.373963	283.510	0.020	-1.100	-0.700	283.440	-2.500	-0.300																			1580075014.0	12.10	22.41
26/01/2020 21:43:35	26012020	260120	214335	283.610	12.239595	-56.374020	283.720	0.030	-0.990	-0.460	283.650	-2.300	-0.100																			1580075015.0	12.06	22.34
26/01/2020 21:43:36	26012020	260120	214336	283.700	12.239607	-56.374075	283.770	-0.000	-0.630	-0.100	283.700	-1.900	0.300																			1580075016.0	12.04	22.30
26/01/2020 21:43:37	26012020	260120	214337	283.580	12.239620	-56.374130	283.630	-0.120	-0.090	0.210	283.530	-1.400	0.600																			1580075017.0	11.92	22.08
26/01/2020 21:43:38	26012020	260120	214338	283.320	12.239632	-56.374185	283.360	-0.280	0.330	0.330	283.260	-1.000	0.700																			1580075018.0	11.78	21.82
26/01/2020 21:43:39	26012020	260120	214339	283.090	12.239643	-56.374240	283.150	-0.330	0.350	0.200	283.050	-1.100	0.500																			1580075019.0	11.89	22.02
26/01/2020 21:43:40	26012020	260120	214340	283.020	12.239655	-56.374297	283.110	-0.230	-0.020	-0.050	283.030	-1.500	0.300																			1580075020.0	12.24	22.67
26/01/2020 21:43:41	26012020	260120	214341	283.140	12.239667	-56.374355	283.250	-0.050	-0.450	-0.290	283.170	-1.900	0.000																			1580075021.0	12.56	23.26
26/01/2020 21:43:42	26012020	260120	214342	283.320	12.239678	-56.374413	283.420	0.040	-0.580	-0.390	283.350	-1.900	-0.000																			1580075022.0	12.60	23.34
26/01/2020 21:43:43	26012020	260120	214343	283.400	12.239690	-56.374470	283.480	-0.020	-0.270	-0.290	283.390	-1.600	0.100																			1580075023.0	12.24	22.67
26/01/2020 21:43:44	26012020	260120	214344	283.310	12.239702	-56.374523	283.380	-0.120	0.190	-0.020	283.280	-1.200	0.400																			1580075024.0	11.75	21.76
26/01/2020 21:43:45	26012020	260120	214345	283.130	12.239713	-56.374577	283.200	-0.110	0.370	0.240	283.090	-1.000	0.600																			1580075025.0	11.54	21.37
26/01/2020 21:43:46	26012020	260120	214346	282.950	12.239725	-56.374632	283.040	0.080	0.110	0.390	282.930	-1.300	0.800																			1580075026.0	11.75	21.76
26/01/2020 21:43:47	26012020	260120	214347	282.860	12.239737	-56.374687	282.950	0.370	-0.410	0.350	282.850	-1.900	0.700																			1580075027.0	12.13	22.46
26/01/2020 21:43:48	26012020	260120	214348	282.870	12.239750	-56.374743	282.960	0.610	-0.900	0.200	282.880	-2.300	0.500																			1580075028.0	12.33	22.84
26/01/2020 21:43:49	26012020	260120	214349	282.930	12.239762	-56.374802	283.030	0.700	-1.080	0.070	282.940	-2.500	0.400																			1580075029.0	12.32	22.82
26/01/2020 21:43:50	26012020	260120	214350	282.980	12.239775	-56.374857	283.060	0.510	-0.870	0.050	282.980	-2.200	0.400																			1580075030.0	12.09	22.39
26/01/2020 21:43:51	26012020	260120	214351	282.950	12.239788	-56.374910	283.030	0.050	-0.420	0.060	282.940	-1.800	0.400																			1580075031.0	11.81	21.87
26/01/2020 21:43:52	26012020	260120	214352	282.890	12.239800	-56.374965	282.970	-0.500	-0.030	-0.010	282.880	-1.400	0.300																			1580075032.0	11.67	21.61
26/01/2020 21:43:53	26012020	260120	214353	282.860	12.239810	-56.375020	282.950	-0.870	0.060	-0.180	282.870	-1.300	0.200																			1580075033.0	11.81	21.87
26/01/2020 21:43:54	26012020	260120	214354	282.910	12.239818	-56.375077	283.000	-0.880	-0.140	-0.390	282.930	-1.600	-0.100																			1580075034.0	12.15	22.50
26/01/2020 21:43:55	26012020	260120	214355	283.030	12.239827	-56.375135	283.120	-0.580	-0.430	-0.490	283.050	-1.900	-0.100																			1580075035.0	12.50	23.15
26/01/2020 21:43:56	26012020	260120	214356	283.150	12.239837	-56.375193	283.240	-0.190	-0.510	-0.300	283.170	-1.900	0.100																			1580075036.0	12.60	23.34
26/01/2020 21:43:57	26012020	260120	214357	283.260	12.239848	-56.375250	283.350	0.150	-0.300	0.130	283.270	-1.700	0.500																			1580075037.0	12.35	22.87
26/01/2020 21:43:58	26012020	260120	214358	283.310	12.239862	-56.375307	283.390	0.360	0.070	0.530	283.310	-1.300	0.900																			1580075038.0	12.03	22.28
26/01/2020 21:43:59	26012020	260120	214359	283.260	12.239877	-56.375360	283.340	0.420	0.320	0.670	283.250	-1.100	1.000	1014.60	26.10	26.10	21.00	21.00	4.00	73.00	73.00	389.00	25.80	34.00	5.50	42.00	3.50	506	3706.00	27.60	27.60	1580075039.0	11.83	21.91
26/01/2020 21:44:00	26012020	260120	214400	283.150	12.239890	-56.375415	283.210	0.350	0.310	0.500	283.120	-1.100	0.800																			1580075040.0	11.86	21.96
26/01/2020 21:44:01	26012020	260120	214401	283.030	12.239902	-56.375470	283.100	0.210	0.050	0.140	283.020	-1.400	0.400																			1580075041.0	11.96	22.15
26/01/2020 21:44:02	26012020	260120	214402	282.970	12.239913	-56.375525	283.050	0.100	-0.350	-0.310	282.970	-1.800	0.000																			1580075042.0	12.09	22.39
26/01/2020 21:44:03	26012020	260120	214403	282.970	12.239923	-56.375582	283.060	0.070	-0.690	-0.710	282.980	-2.100	-0.400																			1580075043.0	12.15	22.50
26/01/2020 21:44:04	26012020	260120	214404	283.030	12.239932	-56.375638	283.110	0.110	-0.880	-0.910	283.050	-2.300	-0.600																			1580075044.0	12.08	22.37
26/01/2020 21:44:05	26012020	260120	214405	283.120	12.239942	-56.375695	283.190	0.180	-0.930	-0.750	283.130	-2.300	-0.400																			1580075045.0	12.02	22.26
26/01/2020 21:44:06	26012020	260120	214406	283.140	12.239955	-56.375750	283.180	0.220	-0.810	-0.290	283.130	-2.200	0.100																			1580075046.0	12.03	22.28
26/01/2020 21:44:07	26012020	260120	214407	283.020	12.239968	-56.375805	283.050	0.150	-0.470	0.190	282.980	-1.800	0.600																			1580075047.0	12.04	22.30
26/01/2020 21:44:08	26012020	260120	214408	282.800	12.239982	-56.375860	282.840	-0.100	-0.020	0.430	282.760	-1.400	0.800																			1580075048.0	11.91	22.06
26/01/2020 21:44:09	26012020	260120	214409	282.600	12.239995	-56.375913	282.670	-0.440	0.280	0.330	282.580	-1.100	0.600																			1580075049.0	11.84	21.93
26/01/2020 21:44:10	26012020	260120	214410	282.540	12.240007	-56.375968	282.630	-0.700	0.250	0.000	282.550	-1.200	0.300																			1580075050.0	11.93	22.09
26/01/2020 21:44:11	26012020	260120	214411	282.630	12.240015	-56.376027	282.740	-0.700	-0.110	-0.340	282.660	-1.600	-0.000																			1580075051.0	12.21	22.61
26/01/2020 21:44:12	26012020	260120	214412	282.830	12.240023	-56.376085	282.950	-0.370	-0.580	-0.490	282.880	-2.000	-0.100																			1580075052.0	12.50	23.15
26/01/2020 21:44:13	26012020	260120	214413	283.060	12.240033	-56.376143	283.170	0.150	-0.830	-0.280	283.100	-2.200	0.100																			1580075053.0	12.62	23.37
26/01/2020 21:44:14	26012020	260120	214414	283.210	12.240047	-56.376200	283.310	0.560	-0.670	0.140	283.230	-2.000	0.600																			1580075054.0	12.42	23.00
26/01/2020 21:44:15	26012020	260120	214415	283.210	12.240060	-56.376255	283.280	0.640	-0.180	0.600	283.180	-1.500	1.000																			1580075055.0	12.05	22.32
26/01/2020 21:44:16	26012020	260120	214416	283.000	12.240075	-56.376308	283.060	0.340	0.340	0.800	282.940	-1.000	1.100																			1580075056.0	11.71	21.69
26/01/2020 21:44:17	26012020	260120	214417	282.690	12.240088	-56.376362	282.740	-0.110	0.560	0.620	282.630	-0.900	0.900																			1580075057.0	11.57	21.43
26/01/2020 21:44:18	26012020	260120	214418	282.440	12.240100	-56.376417	282.500	-0.420	0.320	0.210	282.410	-1.100	0.500																			1580075058.0	11.74	21.74
26/01/2020 21:44:19	26012020	260120	214419	282.380	12.240108	-56.376473	282.480	-0.360	-0.280	-0.230	282.410	-1.800	0.100																			1580075059.0	12.08	22.37
26/01/2020 21:44:20	26012020	260120	214420	282.540	12.240117	-56.376530	282.650	0.000	-0.960	-0.500	282.590	-2.400	-0.200																			1580075060.0	12.41	22.98
26/01/2020 21:44:21	26012020	260120	214421	282.760	12.240127	-56.376588	282.850	0.440	-1.270	-0.420	282.800	-2.700	-0.000																			1580075061.0	12.53	23.21
26/01/2020 21:44:22	26012020	260120	214422	282.910	12.240140	-56.376645	282.980	0.650	-1.020	-0.060	282.920	-2.400	0.300																			1580075062.0	12.27	22.72
26/01/2020 21:44:23	26012020	260120	214423	282.940	12.240153	-56.376700	283.000	0.550	-0.460	0.350	282.930	-1.800	0.700																			1580075063.0	11.88	22.00
26/01/2020 21:44:24	26012020	260120	214424	282.860	12.240167	-56.376753	282.920	0.260	0.050	0.580	282.840	-1.300	0.900																			1580075064.0	11.70	21.67
26/01/2020 21:44:25	26012020	260120	214425	282.740	12.240180	-56.376808	282.790	-0.120	0.320	0.510	282.700	-1.100	0.800																			1580075065.0	11.81	21.87
26/01/2020 21:44:26	26012020	260120	214426	282.550	12.240192	-56.376863	282.580	-0.520	0.370	0.200	282.500	-1.000	0.500																			1580075066.0	12.00	22.22
26/01/2020 21:44:27	26012020	260120	214427	282.320	12.240202	-56.376920	282.350	-0.860	0.210	-0.240	282.280	-1.200	0.100																			1580075067.0	12.09	22.39
26/01/2020 21:44:28	26012020	260120	214428	282.220	12.240208	-56.376977	282.280	-0.960	-0.200	-0.730	282.230	-1.700	-0.400																			1580075068.0	12.13	22.46
26/01/2020 21:44:29	26012020	260120	214429	282.390	12.240215	-56.377035	282.490	-0.680	-0.810	-1.070	282.460	-2.300	-0.700																			1580075069.0	12.32	22.82
26/01/2020 21:44:30	26012020	260120	214430	282.800	12.240222	-56.377093	282.930	-0.080	-1.270	-1.000	282.890	-2.700	-0.600																			1580075070.0	12.55	23.24
26/01/2020 21:44:31	26012020	260120	214431	283.210	12.240233	-56.377152	283.320	0.580	-1.190	-0.460	283.270	-2.500	-0.000																			1580075071.0	12.52	23.19
26/01/2020 21:44:32	26012020	260120	214432	283.400	12.240248	-56.377207	283.470	0.960	-0.540	0.280	283.410	-1.800	0.700																			1580075072.0	12.14	22.48
26/01/2020 21:44:33	26012020	260120	214433	283.320	12.240265	-56.377260	283.370	0.920	0.280	0.850	283.280	-1.000	1.200																			1580075073.0	11.72	21.71
26/01/2020 21:44:34	26012020	260120	214434	283.070	12.240280	-56.377312	283.100	0.560	0.730	0.940	283.010	-0.700	1.300																			1580075074.0	11.59	21.46
26/01/2020 21:44:35	26012020	260120	214435	282.740	12.240295	-56.377367	282.770	0.130	0.610	0.630	282.670	-0.800	0.900																			1580075075.0	11.85	21.95
26/01/2020 21:44:36	26012020	260120	214436	282.380	12.240307	-56.377423	282.400	-0.220	0.130	0.130	282.310	-1.300	0.400																			1580075076.0	12.27	22.72
26/01/2020 21:44:37	26012020	260120	214437	282.080	12.240317	-56.377482	282.100	-0.470	-0.360	-0.390	282.020	-1.800	-0.100																			1580075077.0	12.47	23.09
26/01/2020 21:44:38	26012020	260120	214438	281.880	12.240323	-56.377538	281.930	-0.640	-0.610	-0.710	281.870	-2.000	-0.400																			1580075078.0	12.34	22.85
26/01/2020 21:44:39	26012020	260120	214439	281.880	12.240330	-56.377595	281.940	-0.660	-0.670	-0.700	281.910	-2.100	-0.300																			1580075079.0	12.00	22.22
26/01/2020 21:44:40	26012020	260120	214440	282.060	12.240338	-56.377650	282.150	-0.450	-0.710	-0.480	282.120	-2.100	-0.100																			1580075080.0	11.80	21.85
26/01/2020 21:44:41	26012020	260120	214441	282.390	12.240348	-56.377705	282.500	-0.020	-0.810	-0.150	282.470	-2.200	0.200																			1580075081.0	11.88	22.00
26/01/2020 21:44:42	26012020	260120	214442	282.780	12.240362	-56.377762	282.910	0.500	-0.880	0.200	282.860	-2.300	0.600																			1580075082.0	12.12	22.45
26/01/2020 21:44:43	26012020	260120	214443	283.100	12.240375	-56.377818	283.200	0.810	-0.710	0.530	283.140	-2.100	0.900																			1580075083.0	12.26	22.71
26/01/2020 21:44:44	26012020	260120	214444	283.230	12.240390	-56.377873	283.310	0.710	-0.240	0.700	283.230	-1.600	1.000																			1580075084.0	12.14	22.48
26/01/2020 21:44:45	26012020	260120	214445	283.190	12.240403	-56.377927	283.260	0.230	0.300	0.560	283.170	-1.100	0.900																			1580075085.0	11.86	21.96
26/01/2020 21:44:46	26012020	260120	214446	283.050	12.240415	-56.377982	283.110	-0.330	0.570	0.220	283.020	-0.800	0.500																			1580075086.0	11.76	21.78
26/01/2020 21:44:47	26012020	260120	214447	282.860	12.240425	-56.378037	282.910	-0.700	0.460	-0.180	282.820	-1.000	0.100																			1580075087.0	11.93	22.09
26/01/2020 21:44:48	26012020	260120	214448	282.700	12.240433	-56.378095	282.760	-0.680	-0.000	-0.500	282.680	-1.500	-0.200																			1580075088.0	12.24	22.67
26/01/2020 21:44:49	26012020	260120	214449	282.670	12.240442	-56.378153	282.750	-0.320	-0.610	-0.640	282.680	-2.100	-0.300																			1580075089.0	12.52	23.19
26/01/2020 21:44:50	26012020	260120	214450	282.740	12.240452	-56.378212	282.820	0.180	-0.950	-0.490	282.750	-2.400	-0.100																			1580075090.0	12.65	23.43
26/01/2020 21:44:51	26012020	260120	214451	282.780	12.240463	-56.378270	282.850	0.500	-0.750	-0.070	282.780	-2.100	0.300																			1580075091.0	12.40	22.96
26/01/2020 21:44:52	26012020	260120	214452	282.710	12.240478	-56.378323	282.770	0.470	-0.210	0.360	282.690	-1.500	0.800																			1580075092.0	11.88	22.00
26/01/2020 21:44:53	26012020	260120	214453	282.560	12.240492	-56.378377	282.620	0.200	0.220	0.510	282.540	-1.200	0.900																			1580075093.0	11.49	21.28
26/01/2020 21:44:54	26012020	260120	214454	282.480	12.240503	-56.378430	282.560	-0.050	0.180	0.250	282.480	-1.300	0.600																			1580075094.0	11.54	21.37
26/01/2020 21:44:55	26012020	260120	214455	282.530	12.240513	-56.378485	282.630	-0.110	-0.260	-0.160	282.560	-1.700	0.200																			1580075095.0	11.97	22.17
26/01/2020 21:44:56	26012020	260120	214456	282.710	12.240522	-56.378543	282.820	0.000	-0.690	-0.470	282.760	-2.100	-0.100																			1580075096.0	12.37	22.91
26/01/2020 21:44:57	26012020	260120	214457	282.940	12.240532	-56.378600	283.040	0.100	-0.740	-0.450	282.980	-2.100	-0.100																			1580075097.0	12.35	22.87
26/01/2020 21:44:58	26012020	260120	214458	283.090	12.240543	-56.378655	283.170	0.040	-0.420	-0.190	283.100	-1.800	0.200																			1580075098.0	11.97	22.17
26/01/2020 21:44:59	26012020	260120	214459	283.100	12.240557	-56.378710	283.170	-0.160	-0.070	0.010	283.100	-1.400	0.400	1014.60	26.10	26.10	20.90	20.90	4.00	73.00	73.00	388.00	25.80	36.00	5.10	47.00	3.70	448	3683.00	27.60	27.60	1580075099.0	11.65	21.58
26/01/2020 21:45:00	26012020	260120	214500	283.050	12.240568	-56.378763	283.130	-0.370	-0.010	0.020	283.050	-1.400	0.400																			1580075100.0	11.70	21.67
26/01/2020 21:45:01	26012020	260120	214501	283.050	12.240580	-56.378818	283.140	-0.390	-0.270	-0.200	283.050	-1.700	0.100																			1580075101.0	12.04	22.30
26/01/2020 21:45:02	26012020	260120	214502	283.110	12.240590	-56.378877	283.190	-0.180	-0.610	-0.420	283.130	-2.000	-0.100																			1580075102.0	12.41	22.98
26/01/2020 21:45:03	26012020	260120	214503	283.150	12.240600	-56.378935	283.230	0.140	-0.720	-0.440	283.150	-2.100	-0.100																			1580075103.0	12.56	23.26
26/01/2020 21:45:04	26012020	260120	214504	283.090	12.240612	-56.378993	283.150	0.360	-0.490	-0.170	283.070	-1.900	0.200																			1580075104.0	12.38	22.93
26/01/2020 21:45:05	26012020	260120	214505	282.950	12.240625	-56.379048	283.010	0.350	-0.080	0.150	282.930	-1.400	0.500																			1580075105.0	12.03	22.28
26/01/2020 21:45:06	26012020	260120	214506	282.820	12.240638	-56.379102	282.890	0.170	0.260	0.280	282.800	-1.100	0.600																			1580075106.0	11.81	21.87
26/01/2020 21:45:07	26012020	260120	214507	282.730	12.240650	-56.379157	282.810	-0.040	0.310	0.170	282.720	-1.100	0.500																			1580075107.0	11.80	21.85
26/01/2020 21:45:08	26012020	260120	214508	282.690	12.240662	-56.379212	282.770	-0.160	0.080	-0.000	282.680	-1.400	0.300																			1580075108.0	11.97	22.17
26/01/2020 21:45:09	26012020	260120	214509	282.660	12.240672	-56.379268	282.740	-0.170	-0.240	-0.160	282.660	-1.700	0.200																			1580075109.0	12.17	22.54
26/01/2020 21:45:10	26012020	260120	214510	282.600	12.240683	-56.379325	282.650	-0.150	-0.430	-0.240	282.580	-1.800	0.100																			1580075110.0	12.18	22.56
26/01/2020 21:45:11	26012020	260120	214511	282.470	12.240693	-56.379380	282.520	-0.140	-0.420	-0.200	282.440	-1.800	0.200																			1580075111.0	12.01	22.24
26/01/2020 21:45:12	26012020	260120	214512	282.350	12.240703	-56.379435	282.410	-0.130	-0.380	-0.030	282.340	-1.800	0.400																			1580075112.0	11.79	21.84
26/01/2020 21:45:13	26012020	260120	214513	282.370	12.240713	-56.379490	282.450	-0.000	-0.480	0.200	282.380	-1.900	0.600																			1580075113.0	11.79	21.84
26/01/2020 21:45:14	26012020	260120	214514	282.480	12.240727	-56.379545	282.580	0.270	-0.700	0.470	282.510	-2.100	0.900																			1580075114.0	12.03	22.28
26/01/2020 21:45:15	26012020	260120	214515	282.590	12.240740	-56.379602	282.690	0.520	-0.830	0.670	282.610	-2.200	1.000																			1580075115.0	12.29	22.76
26/01/2020 21:45:16	26012020	260120	214516	282.660	12.240753	-56.379658	282.760	0.530	-0.650	0.680	282.670	-2.000	1.000																			1580075116.0	12.31	22.80
26/01/2020 21:45:17	26012020	260120	214517	282.720	12.240767	-56.379715	282.810	0.240	-0.190	0.470	282.740	-1.500	0.800																			1580075117.0	12.09	22.39
26/01/2020 21:45:18	26012020	260120	214518	282.800	12.240777	-56.379768	282.880	-0.200	0.240	0.170	282.810	-1.100	0.500																			1580075118.0	11.82	21.89
26/01/2020 21:45:19	26012020	260120	214519	282.850	12.240788	-56.379823	282.920	-0.530	0.330	-0.160	282.860	-1.100	0.200																			1580075119.0	11.81	21.87
26/01/2020 21:45:20	26012020	260120	214520	282.870	12.240797	-56.379880	282.930	-0.570	0.030	-0.490	282.870	-1.400	-0.200																			1580075120.0	12.10	22.41
26/01/2020 21:45:21	26012020	260120	214521	282.870	12.240807	-56.379938	282.940	-0.390	-0.410	-0.700	282.870	-1.900	-0.300																			1580075121.0	12.43	23.02
26/01/2020 21:45:22	26012020	260120	214522	282.900	12.240815	-56.379997	282.970	-0.170	-0.650	-0.670	282.910	-2.100	-0.300																			1580075122.0	12.52	23.19
26/01/2020 21:45:23	26012020	260120	214523	282.970	12.240825	-56.380053	283.070	-0.050	-0.530	-0.410	282.990	-1.900	0.000																			1580075123.0	12.24	22.67
26/01/2020 21:45:24	26012020	260120	214524	283.040	12.240837	-56.380108	283.130	0.000	-0.250	-0.040	283.050	-1.600	0.400																			1580075124.0	11.86	21.96
26/01/2020 21:45:25	26012020	260120	214525	283.060	12.240848	-56.380163	283.150	0.110	-0.100	0.240	283.060	-1.500	0.600																			1580075125.0	11.73	21.72
26/01/2020 21:45:26	26012020	260120	214526	283.050	12.240862	-56.380218	283.140	0.290	-0.160	0.300	283.050	-1.600	0.700																			1580075126.0	11.94	22.11
26/01/2020 21:45:27	26012020	260120	214527	283.050	12.240873	-56.380273	283.120	0.440	-0.230	0.210	283.040	-1.600	0.600																			1580075127.0	12.22	22.63
26/01/2020 21:45:28	26012020	260120	214528	282.990	12.240887	-56.380330	283.060	0.390	-0.090	0.150	282.980	-1.500	0.500																			1580075128.0	12.21	22.61
26/01/2020 21:45:29	26012020	260120	214529	282.880	12.240898	-56.380385	282.940	0.140	0.210	0.160	282.860	-1.200	0.500																			1580075129.0	11.90	22.04
26/01/2020 21:45:30	26012020	260120	214530	282.790	12.240910	-56.380438	282.850	-0.110	0.300	0.110	282.780	-1.100	0.400																			1580075130.0	11.58	21.45
26/01/2020 21:45:31	26012020	260120	214531	282.780	12.240920	-56.380493	282.850	-0.160	-0.150	-0.110	282.780	-1.700	0.200																			1580075131.0	11.68	21.63
26/01/2020 21:45:32	26012020	260120	214532	282.850	12.240932	-56.380550	282.930	0.020	-0.970	-0.390	282.880	-2.500	-0.100																			1580075132.0	12.20	22.59
26/01/2020 21:45:33	26012020	260120	214533	283.050	12.240943	-56.380608	283.150	0.230	-1.560	-0.600	283.100	-3.000	-0.300																			1580075133.0	12.65	23.43
26/01/2020 21:45:34	26012020	260120	214534	283.340	12.240955	-56.380667	283.440	0.250	-1.470	-0.620	283.390	-2.800	-0.300																			1580075134.0	12.56	23.26
26/01/2020 21:45:35	26012020	260120	214535	283.560	12.240967	-56.380722	283.650	0.020	-0.790	-0.410	283.590	-2.100	-0.000																			1580075135.0	12.05	22.32
26/01/2020 21:45:36	26012020	260120	214536	283.640	12.240978	-56.380775	283.700	-0.320	0.030	-0.130	283.630	-1.300	0.300																			1580075136.0	11.66	21.59
26/01/2020 21:45:37	26012020	260120	214537	283.550	12.240990	-56.380830	283.590	-0.590	0.600	0.070	283.520	-0.800	0.400																			1580075137.0	11.65	21.58
26/01/2020 21:45:38	26012020	260120	214538	283.340	12.241002	-56.380885	283.390	-0.660	0.750	0.120	283.300	-0.700	0.500																			1580075138.0	11.90	22.04
26/01/2020 21:45:39	26012020	260120	214539	283.120	12.241012	-56.380942	283.170	-0.530	0.480	0.010	283.080	-1.000	0.400																			1580075139.0	12.21	22.61
26/01/2020 21:45:40	26012020	260120	214540	282.980	12.241022	-56.380998	283.050	-0.230	-0.040	-0.150	282.970	-1.500	0.200																			1580075140.0	12.45	23.06
26/01/2020 21:45:41	26012020	260120	214541	282.950	12.241033	-56.381058	283.040	0.160	-0.510	-0.240	282.960	-2.000	0.100																			1580075141.0	12.55	23.24
26/01/2020 21:45:42	26012020	260120	214542	282.970	12.241043	-56.381115	283.060	0.490	-0.640	-0.130	282.970	-2.000	0.300																			1580075142.0	12.41	22.98
26/01/2020 21:45:43	26012020	260120	214543	282.970	12.241057	-56.381170	283.050	0.610	-0.420	0.180	282.970	-1.800	0.600																			1580075143.0	12.01	22.24
26/01/2020 21:45:44	26012020	260120	214544	282.970	12.241070	-56.381223	283.040	0.460	-0.110	0.480	282.960	-1.500	0.800																			1580075144.0	11.65	21.58
26/01/2020 21:45:45	26012020	260120	214545	282.940	12.241085	-56.381277	283.020	0.180	-0.020	0.520	282.940	-1.400	0.900																			1580075145.0	11.53	21.35
26/01/2020 21:45:46	26012020	260120	214546	282.930	12.241098	-56.381330	283.020	-0.010	-0.270	0.280	282.930	-1.700	0.600																			1580075146.0	11.76	21.78
26/01/2020 21:45:47	26012020	260120	214547	282.960	12.241108	-56.381387	283.050	-0.000	-0.690	-0.010	282.970	-2.200	0.300																			1580075147.0	12.14	22.48
26/01/2020 21:45:48	26012020	260120	214548	283.040	12.241120	-56.381445	283.140	0.090	-0.970	-0.210	283.070	-2.400	0.100																			1580075148.0	12.42	23.00
26/01/2020 21:45:49	26012020	260120	214549	283.170	12.241130	-56.381502	283.260	0.100	-0.880	-0.230	283.190	-2.200	0.100																			1580075149.0	12.35	22.87
26/01/2020 21:45:50	26012020	260120	214550	283.240	12.241142	-56.381557	283.310	-0.030	-0.470	-0.110	283.240	-1.800	0.300																			1580075150.0	12.06	22.34
26/01/2020 21:45:51	26012020	260120	214551	283.200	12.241153	-56.381612	283.250	-0.240	-0.010	0.070	283.170	-1.400	0.400																			1580075151.0	11.82	21.89
26/01/2020 21:45:52	26012020	260120	214552	283.080	12.241165	-56.381667	283.140	-0.390	0.210	0.180	283.060	-1.200	0.500																			1580075152.0	11.79	21.84
26/01/2020 21:45:53	26012020	260120	214553	283.020	12.241177	-56.381722	283.100	-0.360	0.060	0.110	283.030	-1.400	0.400																			1580075153.0	12.03	22.28
26/01/2020 21:45:54	26012020	260120	214554	283.080	12.241187	-56.381780	283.160	-0.160	-0.250	-0.100	283.090	-1.700	0.200																			1580075154.0	12.40	22.96
26/01/2020 21:45:55	26012020	260120	214555	283.180	12.241198	-56.381838	283.270	0.060	-0.410	-0.290	283.210	-1.800	0.100																			1580075155.0	12.52	23.19
26/01/2020 21:45:56	26012020	260120	214556	283.280	12.241208	-56.381895	283.370	0.160	-0.290	-0.310	283.300	-1.700	0.100																			1580075156.0	12.30	22.78
26/01/2020 21:45:57	26012020	260120	214557	283.320	12.241220	-56.381950	283.390	0.110	-0.020	-0.080	283.320	-1.400	0.300																			1580075157.0	11.95	22.13
26/01/2020 21:45:58	26012020	260120	214558	283.260	12.241233	-56.382005	283.320	-0.000	0.110	0.200	283.230	-1.300	0.600																			1580075158.0	11.74	21.74
26/01/2020 21:45:59	26012020	260120	214559	283.130	12.241247	-56.382058	283.190	-0.040	-0.060	0.300	283.100	-1.500	0.600	1014.70	26.10	26.10	20.90	20.90	3.00	73.00	73.00	388.00	25.70	37.00	5.00	50.00	3.80	395	3579.00	27.60	27.60	1580075159.0	11.82	21.89
26/01/2020 21:46:00	26012020	260120	214600	283.000	12.241258	-56.382115	283.070	0.050	-0.440	0.170	282.980	-1.900	0.500																			1580075160.0	12.12	22.45
26/01/2020 21:46:01	26012020	260120	214601	282.930	12.241268	-56.382172	283.000	0.180	-0.720	-0.010	282.920	-2.100	0.300																			1580075161.0	12.35	22.87
26/01/2020 21:46:02	26012020	260120	214602	282.910	12.241280	-56.382228	282.970	0.220	-0.660	-0.070	282.910	-2.000	0.300																			1580075162.0	12.25	22.69
26/01/2020 21:46:03	26012020	260120	214603	282.880	12.241292	-56.382283	282.940	0.130	-0.310	0.020	282.870	-1.700	0.400																			1580075163.0	11.92	22.08
26/01/2020 21:46:04	26012020	260120	214604	282.850	12.241303	-56.382338	282.920	-0.000	0.020	0.130	282.840	-1.400	0.500																			1580075164.0	11.62	21.52
26/01/2020 21:46:05	26012020	260120	214605	282.860	12.241315	-56.382392	282.940	-0.040	0.000	0.150	282.870	-1.400	0.500																			1580075165.0	11.65	21.58
26/01/2020 21:46:06	26012020	260120	214606	282.940	12.241328	-56.382447	283.030	0.040	-0.370	0.110	282.970	-1.800	0.500																			1580075166.0	12.04	22.30
26/01/2020 21:46:07	26012020	260120	214607	283.080	12.241340	-56.382505	283.180	0.140	-0.740	0.130	283.110	-2.200	0.500																			1580075167.0	12.41	22.98
26/01/2020 21:46:08	26012020	260120	214608	283.230	12.241352	-56.382562	283.330	0.140	-0.790	0.210	283.250	-2.200	0.600																			1580075168.0	12.45	23.06
26/01/2020 21:46:09	26012020	260120	214609	283.330	12.241363	-56.382618	283.420	0.010	-0.490	0.330	283.340	-1.900	0.700																			1580075169.0	12.17	22.54
26/01/2020 21:46:10	26012020	260120	214610	283.380	12.241375	-56.382673	283.470	-0.130	-0.130	0.390	283.380	-1.500	0.700																			1580075170.0	11.89	22.02
26/01/2020 21:46:11	26012020	260120	214611	283.390	12.241387	-56.382728	283.480	-0.180	0.030	0.320	283.390	-1.400	0.700																			1580075171.0	11.91	22.06
26/01/2020 21:46:12	26012020	260120	214612	283.390	12.241398	-56.382785	283.470	-0.170	0.000	0.170	283.380	-1.400	0.500																			1580075172.0	12.16	22.52
26/01/2020 21:46:13	26012020	260120	214613	283.360	12.241410	-56.382842	283.430	-0.150	-0.020	0.030	283.340	-1.400	0.400																			1580075173.0	12.31	22.80
26/01/2020 21:46:14	26012020	260120	214614	283.280	12.241420	-56.382898	283.340	-0.190	0.050	-0.090	283.260	-1.400	0.300																			1580075174.0	12.18	22.56
26/01/2020 21:46:15	26012020	260120	214615	283.160	12.241430	-56.382953	283.220	-0.200	0.080	-0.130	283.140	-1.400	0.200																			1580075175.0	11.96	22.15
26/01/2020 21:46:16	26012020	260120	214616	283.040	12.241440	-56.383008	283.100	-0.110	-0.100	-0.050	283.020	-1.600	0.300																			1580075176.0	11.87	21.98
26/01/2020 21:46:17	26012020	260120	214617	282.960	12.241452	-56.383065	283.020	0.110	-0.460	0.110	282.950	-1.900	0.500																			1580075177.0	12.01	22.24
26/01/2020 21:46:18	26012020	260120	214618	282.910	12.241463	-56.383122	282.980	0.310	-0.800	0.240	282.910	-2.200	0.600																			1580075178.0	12.18	22.56
26/01/2020 21:46:19	26012020	260120	214619	282.890	12.241477	-56.383177	282.960	0.350	-0.880	0.280	282.880	-2.300	0.600																			1580075179.0	12.22	22.63
26/01/2020 21:46:20	26012020	260120	214620	282.900	12.241490	-56.383233	282.980	0.210	-0.660	0.190	282.910	-2.000	0.500																			1580075180.0	12.04	22.30
26/01/2020 21:46:21	26012020	260120	214621	282.960	12.241502	-56.383287	283.050	0.050	-0.320	0.070	282.980	-1.700	0.400																			1580075181.0	11.84	21.93
26/01/2020 21:46:22	26012020	260120	214622	283.050	12.241512	-56.383342	283.140	-0.030	-0.110	-0.050	283.080	-1.500	0.300																			1580075182.0	11.85	21.95
26/01/2020 21:46:23	26012020	260120	214623	283.150	12.241523	-56.383398	283.230	-0.030	-0.070	-0.220	283.170	-1.500	0.100																			1580075183.0	12.07	22.35
26/01/2020 21:46:24	26012020	260120	214624	283.210	12.241535	-56.383455	283.270	-0.040	-0.070	-0.370	283.210	-1.500	-0.000																			1580075184.0	12.23	22.65
26/01/2020 21:46:25	26012020	260120	214625	283.180	12.241547	-56.383512	283.230	-0.070	-0.070	-0.460	283.160	-1.500	-0.100																			1580075185.0	12.23	22.65
26/01/2020 21:46:26	26012020	260120	214626	283.090	12.241558	-56.383568	283.130	-0.120	-0.130	-0.520	283.060	-1.500	-0.200																			1580075186.0	12.17	22.54
26/01/2020 21:46:27	26012020	260120	214627	282.970	12.241568	-56.383625	283.000	-0.170	-0.230	-0.550	282.940	-1.600	-0.200																			1580075187.0	12.19	22.58
26/01/2020 21:46:28	26012020	260120	214628	282.820	12.241578	-56.383682	282.850	-0.210	-0.300	-0.500	282.790	-1.700	-0.100																			1580075188.0	12.17	22.54
26/01/2020 21:46:29	26012020	260120	214629	282.690	12.241590	-56.383737	282.720	-0.210	-0.360	-0.340	282.660	-1.800	0.000																			1580075189.0	12.10	22.41
26/01/2020 21:46:30	26012020	260120	214630	282.630	12.241602	-56.383793	282.690	-0.070	-0.470	-0.090	282.630	-1.900	0.300																			1580075190.0	12.07	22.35
26/01/2020 21:46:31	26012020	260120	214631	282.690	12.241613	-56.383848	282.770	0.160	-0.590	0.200	282.710	-2.000	0.600																			1580075191.0	12.16	22.52
26/01/2020 21:46:32	26012020	260120	214632	282.770	12.241627	-56.383905	282.850	0.310	-0.520	0.440	282.780	-1.900	0.800																			1580075192.0	12.22	22.63
26/01/2020 21:46:33	26012020	260120	214633	282.780	12.241642	-56.383960	282.850	0.220	-0.240	0.510	282.780	-1.600	0.900																			1580075193.0	12.09	22.39
26/01/2020 21:46:34	26012020	260120	214634	282.760	12.241653	-56.384015	282.820	-0.050	0.050	0.300	282.760	-1.300	0.600																			1580075194.0	11.84	21.93
26/01/2020 21:46:35	26012020	260120	214635	282.780	12.241665	-56.384070	282.850	-0.310	0.080	-0.000	282.790	-1.300	0.300																			1580075195.0	11.83	21.91
26/01/2020 21:46:36	26012020	260120	214636	282.860	12.241673	-56.384127	282.920	-0.350	-0.140	-0.190	282.870	-1.600	0.200																			1580075196.0	12.09	22.39
26/01/2020 21:46:37	26012020	260120	214637	282.900	12.241683	-56.384183	282.960	-0.110	-0.390	-0.070	282.900	-1.800	0.300																			1580075197.0	12.34	22.85
26/01/2020 21:46:38	26012020	260120	214638	282.820	12.241695	-56.384242	282.850	0.230	-0.460	0.280	282.800	-1.900	0.700																			1580075198.0	12.33	22.84
26/01/2020 21:46:39	26012020	260120	214639	282.650	12.241708	-56.384297	282.700	0.470	-0.400	0.580	282.630	-1.800	1.000																			1580075199.0	12.16	22.52
26/01/2020 21:46:40	26012020	260120	214640	282.530	12.241722	-56.384352	282.590	0.480	-0.340	0.660	282.520	-1.700	1.000																			1580075200.0	12.03	22.28
26/01/2020 21:46:41	26012020	260120	214641	282.490	12.241735	-56.384407	282.550	0.300	-0.340	0.460	282.490	-1.700	0.800																			1580075201.0	12.02	22.26
26/01/2020 21:46:42	26012020	260120	214642	282.520	12.241747	-56.384463	282.590	0.040	-0.380	0.120	282.530	-1.800	0.400																			1580075202.0	12.09	22.39
26/01/2020 21:46:43	26012020	260120	214643	282.620	12.241757	-56.384520	282.700	-0.190	-0.370	-0.230	282.650	-1.800	0.100																			1580075203.0	12.18	22.56
26/01/2020 21:46:44	26012020	260120	214644	282.770	12.241765	-56.384577	282.850	-0.380	-0.270	-0.470	282.800	-1.700	-0.100																			1580075204.0	12.16	22.52
26/01/2020 21:46:45	26012020	260120	214645	282.920	12.241775	-56.384633	282.990	-0.470	-0.200	-0.510	282.950	-1.600	-0.100																			1580075205.0	12.10	22.41
26/01/2020 21:46:46	26012020	260120	214646	283.030	12.241785	-56.384690	283.090	-0.430	-0.190	-0.280	283.050	-1.600	0.100																			1580075206.0	12.14	22.48
26/01/2020 21:46:47	26012020	260120	214647	283.090	12.241797	-56.384747	283.150	-0.280	-0.210	0.030	283.100	-1.600	0.400																			1580075207.0	12.19	22.58
26/01/2020 21:46:48	26012020	260120	214648	283.110	12.241808	-56.384802	283.170	-0.070	-0.210	0.260	283.120	-1.600	0.600																			1580075208.0	12.18	22.56
26/01/2020 21:46:49	26012020	260120	214649	283.130	12.241820	-56.384858	283.190	0.170	-0.220	0.400	283.140	-1.600	0.800																			1580075209.0	12.10	22.41
26/01/2020 21:46:50	26012020	260120	214650	283.200	12.241833	-56.384913	283.280	0.380	-0.280	0.380	283.220	-1.700	0.700																			1580075210.0	12.06	22.34
26/01/2020 21:46:51	26012020	260120	214651	283.320	12.241845	-56.384970	283.390	0.460	-0.350	0.210	283.340	-1.800	0.500																			1580075211.0	12.10	22.41
26/01/2020 21:46:52	26012020	260120	214652	283.370	12.241858	-56.385025	283.400	0.340	-0.350	-0.000	283.360	-1.700	0.300																			1580075212.0	12.10	22.41
26/01/2020 21:46:53	26012020	260120	214653	283.270	12.241870	-56.385080	283.280	0.060	-0.250	-0.160	283.230	-1.600	0.200																			1580075213.0	12.01	22.24
26/01/2020 21:46:54	26012020	260120	214654	283.080	12.241880	-56.385137	283.090	-0.210	-0.160	-0.230	283.040	-1.600	0.100																			1580075214.0	11.93	22.09
26/01/2020 21:46:55	26012020	260120	214655	282.950	12.241890	-56.385192	282.990	-0.280	-0.220	-0.240	282.940	-1.700	0.100																			1580075215.0	11.95	22.13
26/01/2020 21:46:56	26012020	260120	214656	282.950	12.241902	-56.385248	283.010	-0.120	-0.460	-0.210	282.970	-1.900	0.200																			1580075216.0	12.16	22.52
26/01/2020 21:46:57	26012020	260120	214657	283.050	12.241913	-56.385305	283.120	0.120	-0.640	-0.140	283.070	-2.000	0.200																			1580075217.0	12.41	22.98
26/01/2020 21:46:58	26012020	260120	214658	283.140	12.241927	-56.385363	283.200	0.210	-0.540	0.010	283.150	-1.900	0.400																			1580075218.0	12.42	23.00
26/01/2020 21:46:59	26012020	260120	214659	283.160	12.241940	-56.385418	283.210	0.050	-0.220	0.200	283.150	-1.600	0.600	1014.60	26.10	26.10	20.70	20.80	2.00	72.00	72.00	387.00	25.70	33.00	5.00	50.00	3.40	346	3785.00	27.70	27.60	1580075219.0	12.14	22.48
26/01/2020 21:47:00	26012020	260120	214700	283.110	12.241952	-56.385473	283.160	-0.200	0.050	0.270	283.110	-1.300	0.600																			1580075220.0	11.87	21.98
26/01/2020 21:47:01	26012020	260120	214701	283.130	12.241963	-56.385528	283.190	-0.330	-0.020	0.060	283.140	-1.400	0.400																			1580075221.0	11.91	22.06
26/01/2020 21:47:02	26012020	260120	214702	283.230	12.241973	-56.385585	283.300	-0.270	-0.310	-0.250	283.260	-1.800	0.100																			1580075222.0	12.21	22.61
26/01/2020 21:47:03	26012020	260120	214703	283.390	12.241983	-56.385643	283.460	-0.120	-0.520	-0.430	283.420	-1.900	-0.100																			1580075223.0	12.43	23.02
26/01/2020 21:47:04	26012020	260120	214704	283.530	12.241995	-56.385700	283.580	-0.010	-0.430	-0.280	283.550	-1.800	0.100																			1580075224.0	12.31	22.80
26/01/2020 21:47:05	26012020	260120	214705	283.570	12.242007	-56.385755	283.600	0.020	-0.160	0.090	283.560	-1.500	0.500																			1580075225.0	11.97	22.17
26/01/2020 21:47:06	26012020	260120	214706	283.460	12.242020	-56.385810	283.470	0.020	0.040	0.430	283.420	-1.400	0.800																			1580075226.0	11.77	21.80
26/01/2020 21:47:07	26012020	260120	214707	283.230	12.242033	-56.385863	283.240	0.110	-0.010	0.560	283.190	-1.400	0.900																			1580075227.0	11.87	21.98
26/01/2020 21:47:08	26012020	260120	214708	282.990	12.242045	-56.385920	283.000	0.280	-0.250	0.480	282.940	-1.700	0.800																			1580075228.0	12.12	22.45
26/01/2020 21:47:09	26012020	260120	214709	282.750	12.242058	-56.385977	282.770	0.420	-0.470	0.310	282.710	-1.900	0.600																			1580075229.0	12.32	22.82
26/01/2020 21:47:10	26012020	260120	214710	282.560	12.242070	-56.386033	282.580	0.370	-0.490	0.080	282.530	-1.900	0.400																			1580075230.0	12.28	22.74
26/01/2020 21:47:11	26012020	260120	214711	282.450	12.242082	-56.386090	282.490	0.120	-0.360	-0.220	282.440	-1.700	0.100																			1580075231.0	12.07	22.35
26/01/2020 21:47:12	26012020	260120	214712	282.450	12.242092	-56.386145	282.500	-0.210	-0.240	-0.520	282.470	-1.600	-0.200																			1580075232.0	11.91	22.06
26/01/2020 21:47:13	26012020	260120	214713	282.580	12.242102	-56.386200	282.640	-0.420	-0.280	-0.720	282.620	-1.700	-0.400																			1580075233.0	11.94	22.11
26/01/2020 21:47:14	26012020	260120	214714	282.830	12.242112	-56.386257	282.910	-0.370	-0.470	-0.680	282.890	-1.900	-0.300																			1580075234.0	12.14	22.48
26/01/2020 21:47:15	26012020	260120	214715	283.190	12.242123	-56.386313	283.300	-0.120	-0.670	-0.450	283.260	-2.100	-0.000																			1580075235.0	12.35	22.87
26/01/2020 21:47:16	26012020	260120	214716	283.550	12.242135	-56.386372	283.640	0.130	-0.650	-0.130	283.600	-2.000	0.300																			1580075236.0	12.45	23.06
26/01/2020 21:47:17	26012020	260120	214717	283.750	12.242150	-56.386428	283.800	0.170	-0.280	0.210	283.760	-1.600	0.600																			1580075237.0	12.27	22.72
26/01/2020 21:47:18	26012020	260120	214718	283.700	12.242163	-56.386482	283.730	-0.040	0.210	0.470	283.670	-1.100	0.900																			1580075238.0	11.89	22.02
26/01/2020 21:47:19	26012020	260120	214719	283.480	12.242177	-56.386537	283.500	-0.330	0.420	0.510	283.420	-1.000	0.900																			1580075239.0	11.68	21.63
26/01/2020 21:47:20	26012020	260120	214720	283.190	12.242187	-56.386592	283.210	-0.410	0.130	0.290	283.140	-1.300	0.600																			1580075240.0	11.89	22.02
26/01/2020 21:47:21	26012020	260120	214721	282.940	12.242197	-56.386648	282.960	-0.170	-0.420	0.020	282.900	-1.900	0.400																			1580075241.0	12.35	22.87
26/01/2020 21:47:22	26012020	260120	214722	282.720	12.242207	-56.386707	282.730	0.240	-0.740	-0.050	282.670	-2.100	0.300																			1580075242.0	12.61	23.35
26/01/2020 21:47:23	26012020	260120	214723	282.450	12.242218	-56.386765	282.440	0.490	-0.510	0.220	282.380	-1.900	0.600																			1580075243.0	12.34	22.85
26/01/2020 21:47:24	26012020	260120	214724	282.120	12.242232	-56.386818	282.130	0.430	-0.010	0.520	282.060	-1.400	0.900																			1580075244.0	11.77	21.80
26/01/2020 21:47:25	26012020	260120	214725	281.880	12.242245	-56.386872	281.930	0.180	0.190	0.550	281.860	-1.200	0.900																			1580075245.0	11.46	21.22
26/01/2020 21:47:26	26012020	260120	214726	281.910	12.242257	-56.386925	282.020	0.050	-0.180	0.200	281.950	-1.700	0.500																			1580075246.0	11.75	21.76
26/01/2020 21:47:27	26012020	260120	214727	282.250	12.242268	-56.386982	282.410	0.140	-0.810	-0.230	282.350	-2.300	0.100																			1580075247.0	12.36	22.89
26/01/2020 21:47:28	26012020	260120	214728	282.780	12.242278	-56.387042	282.950	0.280	-1.140	-0.470	282.890	-2.500	-0.100																			1580075248.0	12.69	23.50
26/01/2020 21:47:29	26012020	260120	214729	283.270	12.242290	-56.387100	283.400	0.230	-0.870	-0.420	283.340	-2.200	-0.000																			1580075249.0	12.49	23.13
26/01/2020 21:47:30	26012020	260120	214730	283.570	12.242302	-56.387155	283.660	-0.090	-0.190	-0.220	283.600	-1.500	0.200																			1580075250.0	11.98	22.19
26/01/2020 21:47:31	26012020	260120	214731	283.670	12.242313	-56.387208	283.740	-0.530	0.400	-0.090	283.670	-1.000	0.300																			1580075251.0	11.61	21.50
26/01/2020 21:47:32	26012020	260120	214732	283.650	12.242323	-56.387262	283.710	-0.810	0.550	-0.030	283.630	-0.900	0.300																			1580075252.0	11.67	21.61
26/01/2020 21:47:33	26012020	260120	214733	283.530	12.242333	-56.387318	283.570	-0.730	0.220	-0.060	283.490	-1.300	0.300																			1580075253.0	12.06	22.34
26/01/2020 21:47:34	26012020	260120	214734	283.340	12.242343	-56.387377	283.360	-0.360	-0.290	-0.080	283.290	-1.800	0.300																			1580075254.0	12.43	23.02
26/01/2020 21:47:35	26012020	260120	214735	283.090	12.242353	-56.387435	283.110	0.120	-0.640	-0.010	283.030	-2.100	0.400																			1580075255.0	12.48	23.11
26/01/2020 21:47:36	26012020	260120	214736	282.860	12.242365	-56.387492	282.890	0.480	-0.720	0.070	282.820	-2.100	0.400																			1580075256.0	12.25	22.69
26/01/2020 21:47:37	26012020	260120	214737	282.750	12.242378	-56.387547	282.800	0.640	-0.620	0.090	282.750	-2.000	0.400																			1580075257.0	11.99	22.21
26/01/2020 21:47:38	26012020	260120	214738	282.740	12.242392	-56.387602	282.790	0.610	-0.460	0.030	282.740	-1.800	0.400																			1580075258.0	11.88	22.00
26/01/2020 21:47:39	26012020	260120	214739	282.760	12.242405	-56.387655	282.820	0.450	-0.280	-0.110	282.760	-1.700	0.200																			1580075259.0	11.90	22.04
26/01/2020 21:47:40	26012020	260120	214740	282.820	12.242418	-56.387710	282.890	0.200	-0.100	-0.320	282.840	-1.500	0.000																			1580075260.0	11.96	22.15
26/01/2020 21:47:41	26012020	260120	214741	282.930	12.242430	-56.387767	283.000	-0.090	0.030	-0.520	282.950	-1.400	-0.200																			1580075261.0	11.98	22.19
26/01/2020 21:47:42	26012020	260120	214742	283.050	12.242440	-56.387822	283.130	-0.340	0.040	-0.620	283.080	-1.400	-0.300																			1580075262.0	12.02	22.26
26/01/2020 21:47:43	26012020	260120	214743	283.170	12.242450	-56.387878	283.250	-0.420	-0.090	-0.560	283.200	-1.500	-0.200																			1580075263.0	12.11	22.43
26/01/2020 21:47:44	26012020	260120	214744	283.300	12.242462	-56.387935	283.370	-0.310	-0.270	-0.320	283.320	-1.700	0.100																			1580075264.0	12.21	22.61
26/01/2020 21:47:45	26012020	260120	214745	283.390	12.242473	-56.387992	283.450	-0.080	-0.450	0.020	283.400	-1.900	0.400																			1580075265.0	12.27	22.72
26/01/2020 21:47:46	26012020	260120	214746	283.420	12.242487	-56.388048	283.480	0.100	-0.530	0.210	283.420	-1.900	0.600																			1580075266.0	12.30	22.78
26/01/2020 21:47:47	26012020	260120	214747	283.420	12.242500	-56.388103	283.480	0.120	-0.450	0.220	283.410	-1.800	0.600																			1580075267.0	12.21	22.61
26/01/2020 21:47:48	26012020	260120	214748	283.370	12.242512	-56.388160	283.430	0.030	-0.290	0.150	283.360	-1.700	0.500																			1580075268.0	12.02	22.26
26/01/2020 21:47:49	26012020	260120	214749	283.280	12.242523	-56.388215	283.330	-0.060	-0.210	0.140	283.260	-1.600	0.500																			1580075269.0	11.92	22.08
26/01/2020 21:47:50	26012020	260120	214750	283.140	12.242533	-56.388270	283.170	-0.050	-0.250	0.160	283.100	-1.700	0.500																			1580075270.0	11.98	22.19
26/01/2020 21:47:51	26012020	260120	214751	282.980	12.242547	-56.388327	283.020	0.030	-0.340	0.140	282.950	-1.800	0.500																			1580075271.0	12.08	22.37
26/01/2020 21:47:52	26012020	260120	214752	282.870	12.242558	-56.388382	282.920	0.090	-0.370	0.080	282.860	-1.800	0.400																			1580075272.0	12.10	22.41
26/01/2020 21:47:53	26012020	260120	214753	282.840	12.242570	-56.388438	282.910	0.090	-0.370	0.010	282.850	-1.800	0.400																			1580075273.0	12.05	22.32
26/01/2020 21:47:54	26012020	260120	214754	282.890	12.242582	-56.388493	282.970	0.040	-0.400	-0.070	282.910	-1.800	0.300																			1580075274.0	12.05	22.32
26/01/2020 21:47:55	26012020	260120	214755	282.990	12.242593	-56.388550	283.060	0.030	-0.400	-0.150	283.000	-1.800	0.200																			1580075275.0	12.14	22.48
26/01/2020 21:47:56	26012020	260120	214756	283.080	12.242605	-56.388607	283.140	0.070	-0.310	-0.140	283.090	-1.700	0.200																			1580075276.0	12.23	22.65
26/01/2020 21:47:57	26012020	260120	214757	283.110	12.242617	-56.388663	283.170	0.140	-0.070	0.050	283.100	-1.400	0.400																			1580075277.0	12.18	22.56
26/01/2020 21:47:58	26012020	260120	214758	283.030	12.242630	-56.388718	283.080	0.160	0.210	0.380	283.000	-1.200	0.800																			1580075278.0	12.04	22.30
26/01/2020 21:47:59	26012020	260120	214759	282.840	12.242643	-56.388773	282.870	0.090	0.290	0.660	282.790	-1.100	1.000																			1580075279.0	11.96	22.15
26/01/2020 21:48:00	26012020	260120	214800	282.590	12.242657	-56.388828	282.630	-0.030	0.070	0.580	282.550	-1.400	0.900	1014.70	26.10	26.20	20.70	20.70	2.00	72.00	72.00	387.00	25.70	35.00	4.60	57.00	3.60	301	3723.00	27.60	27.60	1580075280.0	12.03	22.28
26/01/2020 21:48:01	26012020	260120	214801	282.440	12.242668	-56.388885	282.500	-0.120	-0.380	0.120	282.430	-1.800	0.400																			1580075281.0	12.21	22.61
26/01/2020 21:48:02	26012020	260120	214802	282.480	12.242678	-56.388942	282.560	-0.120	-0.840	-0.410	282.520	-2.300	-0.100																			1580075282.0	12.36	22.89
26/01/2020 21:48:03	26012020	260120	214803	282.680	12.242687	-56.389000	282.780	-0.050	-1.050	-0.740	282.740	-2.400	-0.400																			1580075283.0	12.40	22.96
26/01/2020 21:48:04	26012020	260120	214804	282.940	12.242697	-56.389057	283.040	-0.020	-0.850	-0.660	282.990	-2.200	-0.300																			1580075284.0	12.20	22.59
26/01/2020 21:48:05	26012020	260120	214805	283.140	12.242707	-56.389112	283.220	-0.050	-0.410	-0.290	283.150	-1.700	0.100																			1580075285.0	11.88	22.00
26/01/2020 21:48:06	26012020	260120	214806	283.150	12.242720	-56.389167	283.200	-0.120	-0.040	0.140	283.130	-1.400	0.600																			1580075286.0	11.73	21.72
26/01/2020 21:48:07	26012020	260120	214807	282.990	12.242733	-56.389220	283.030	-0.140	0.100	0.430	282.950	-1.300	0.800																			1580075287.0	11.89	22.02
26/01/2020 21:48:08	26012020	260120	214808	282.760	12.242745	-56.389277	282.790	-0.090	0.080	0.470	282.710	-1.300	0.800																			1580075288.0	12.12	22.45
26/01/2020 21:48:09	26012020	260120	214809	282.550	12.242758	-56.389333	282.580	0.020	-0.050	0.320	282.510	-1.500	0.700																			1580075289.0	12.23	22.65
26/01/2020 21:48:10	26012020	260120	214810	282.400	12.242768	-56.389390	282.440	0.130	-0.200	0.100	282.380	-1.600	0.400																			1580075290.0	12.25	22.69
26/01/2020 21:48:11	26012020	260120	214811	282.310	12.242780	-56.389447	282.360	0.190	-0.350	-0.080	282.300	-1.800	0.300																			1580075291.0	12.21	22.61
26/01/2020 21:48:12	26012020	260120	214812	282.280	12.242792	-56.389503	282.350	0.210	-0.470	-0.170	282.280	-1.900	0.200																			1580075292.0	12.19	22.58
26/01/2020 21:48:13	26012020	260120	214813	282.330	12.242803	-56.389558	282.420	0.200	-0.520	-0.150	282.350	-1.900	0.200																			1580075293.0	12.19	22.58
26/01/2020 21:48:14	26012020	260120	214814	282.430	12.242815	-56.389615	282.520	0.180	-0.450	-0.020	282.440	-1.800	0.400																			1580075294.0	12.16	22.52
26/01/2020 21:48:15	26012020	260120	214815	282.460	12.242828	-56.389672	282.520	0.090	-0.270	0.190	282.450	-1.700	0.600																			1580075295.0	12.11	22.43
26/01/2020 21:48:16	26012020	260120	214816	282.370	12.242840	-56.389727	282.420	-0.090	-0.060	0.400	282.340	-1.400	0.800																			1580075296.0	12.01	22.24
26/01/2020 21:48:17	26012020	260120	214817	282.220	12.242852	-56.389782	282.280	-0.310	0.080	0.510	282.190	-1.300	0.900																			1580075297.0	11.93	22.09
26/01/2020 21:48:18	26012020	260120	214818	282.090	12.242863	-56.389837	282.160	-0.440	0.050	0.430	282.080	-1.400	0.800																			1580075298.0	11.94	22.11
26/01/2020 21:48:19	26012020	260120	214819	282.060	12.242873	-56.389893	282.150	-0.390	-0.180	0.170	282.070	-1.600	0.500																			1580075299.0	12.05	22.32
26/01/2020 21:48:20	26012020	260120	214820	282.140	12.242882	-56.389950	282.230	-0.160	-0.500	-0.110	282.160	-1.900	0.200																			1580075300.0	12.19	22.58
26/01/2020 21:48:21	26012020	260120	214821	282.270	12.242892	-56.390007	282.360	0.140	-0.780	-0.230	282.300	-2.200	0.100																			1580075301.0	12.28	22.74
26/01/2020 21:48:22	26012020	260120	214822	282.410	12.242902	-56.390065	282.510	0.380	-0.850	-0.110	282.440	-2.200	0.300																			1580075302.0	12.28	22.74
26/01/2020 21:48:23	26012020	260120	214823	282.510	12.242913	-56.390120	282.600	0.420	-0.650	0.170	282.520	-2.000	0.600																			1580075303.0	12.16	22.52
26/01/2020 21:48:24	26012020	260120	214824	282.510	12.242927	-56.390175	282.580	0.260	-0.270	0.400	282.500	-1.600	0.800																			1580075304.0	11.98	22.19
26/01/2020 21:48:25	26012020	260120	214825	282.410	12.242940	-56.390230	282.470	0.010	0.090	0.450	282.380	-1.300	0.800																			1580075305.0	11.85	21.95
26/01/2020 21:48:26	26012020	260120	214826	282.260	12.242952	-56.390285	282.330	-0.160	0.190	0.300	282.240	-1.200	0.600																			1580075306.0	11.88	22.00
26/01/2020 21:48:27	26012020	260120	214827	282.130	12.242963	-56.390342	282.190	-0.190	-0.020	0.080	282.100	-1.500	0.400																			1580075307.0	12.15	22.50
26/01/2020 21:48:28	26012020	260120	214828	281.990	12.242973	-56.390398	282.040	-0.180	-0.280	-0.110	281.950	-1.700	0.200																			1580075308.0	12.45	23.06
26/01/2020 21:48:29	26012020	260120	214829	281.870	12.242983	-56.390457	281.950	-0.230	-0.340	-0.300	281.860	-1.700	0.000																			1580075309.0	12.46	23.08
26/01/2020 21:48:30	26012020	260120	214830	281.880	12.242993	-56.390513	281.980	-0.300	-0.240	-0.470	281.900	-1.600	-0.100																			1580075310.0	12.19	22.58
26/01/2020 21:48:31	26012020	260120	214831	282.040	12.243002	-56.390570	282.150	-0.270	-0.160	-0.460	282.080	-1.600	-0.100																			1580075311.0	11.97	22.17
26/01/2020 21:48:32	26012020	260120	214832	282.300	12.243012	-56.390625	282.430	-0.090	-0.230	-0.230	282.360	-1.600	0.200																			1580075312.0	11.99	22.21
26/01/2020 21:48:33	26012020	260120	214833	282.570	12.243023	-56.390682	282.690	0.190	-0.350	0.120	282.610	-1.800	0.500																			1580075313.0	12.14	22.48
26/01/2020 21:48:34	26012020	260120	214834	282.750	12.243037	-56.390738	282.850	0.390	-0.400	0.420	282.760	-1.800	0.800																			1580075314.0	12.19	22.58
26/01/2020 21:48:35	26012020	260120	214835	282.780	12.243050	-56.390793	282.860	0.400	-0.330	0.550	282.770	-1.700	0.900																			1580075315.0	12.12	22.45
26/01/2020 21:48:36	26012020	260120	214836	282.650	12.243063	-56.390848	282.690	0.190	-0.180	0.500	282.600	-1.600	0.900																			1580075316.0	11.96	22.15
26/01/2020 21:48:37	26012020	260120	214837	282.330	12.243075	-56.390903	282.350	-0.140	-0.070	0.320	282.260	-1.500	0.700																			1580075317.0	11.83	21.91
26/01/2020 21:48:38	26012020	260120	214838	281.990	12.243085	-56.390958	282.010	-0.390	-0.170	0.060	281.930	-1.600	0.400																			1580075318.0	11.81	21.87
26/01/2020 21:48:39	26012020	260120	214839	281.780	12.243093	-56.391013	281.850	-0.400	-0.550	-0.250	281.770	-2.000	0.100																			1580075319.0	12.00	22.22
26/01/2020 21:48:40	26012020	260120	214840	281.860	12.243102	-56.391072	281.960	-0.120	-1.100	-0.550	281.900	-2.500	-0.200																			1580075320.0	12.35	22.87
26/01/2020 21:48:41	26012020	260120	214841	282.140	12.243112	-56.391132	282.270	0.270	-1.310	-0.590	282.210	-2.700	-0.200																			1580075321.0	12.70	23.52
26/01/2020 21:48:42	26012020	260120	214842	282.430	12.243123	-56.391190	282.560	0.420	-0.820	-0.260	282.480	-2.100	0.200																			1580075322.0	12.57	23.28
26/01/2020 21:48:43	26012020	260120	214843	282.610	12.243137	-56.391245	282.710	0.170	0.140	0.100	282.630	-1.100	0.500																			1580075323.0	12.00	22.22
26/01/2020 21:48:44	26012020	260120	214844	282.640	12.243150	-56.391297	282.730	-0.340	0.940	0.170	282.640	-0.400	0.500																			1580075324.0	11.55	21.39
26/01/2020 21:48:45	26012020	260120	214845	282.610	12.243162	-56.391352	282.690	-0.740	1.100	-0.110	282.600	-0.400	0.200																			1580075325.0	11.61	21.50
26/01/2020 21:48:46	26012020	260120	214846	282.570	12.243170	-56.391407	282.640	-0.740	0.590	-0.480	282.560	-0.900	-0.100																			1580075326.0	12.11	22.43
26/01/2020 21:48:47	26012020	260120	214847	282.530	12.243178	-56.391467	282.590	-0.370	-0.210	-0.670	282.520	-1.700	-0.300																			1580075327.0	12.58	23.30
26/01/2020 21:48:48	26012020	260120	214848	282.500	12.243187	-56.391525	282.590	0.170	-0.850	-0.540	282.510	-2.300	-0.100																			1580075328.0	12.70	23.52
26/01/2020 21:48:49	26012020	260120	214849	282.560	12.243198	-56.391583	282.660	0.620	-1.060	-0.170	282.580	-2.500	0.300																			1580075329.0	12.41	22.98
26/01/2020 21:48:50	26012020	260120	214850	282.640	12.243212	-56.391638	282.740	0.790	-0.830	0.280	282.650	-2.200	0.700																			1580075330.0	11.97	22.17
26/01/2020 21:48:51	26012020	260120	214851	282.640	12.243225	-56.391692	282.730	0.630	-0.360	0.580	282.630	-1.700	1.000																			1580075331.0	11.60	21.48
26/01/2020 21:48:52	26012020	260120	214852	282.550	12.243240	-56.391743	282.650	0.210	0.020	0.600	282.530	-1.400	0.900																			1580075332.0	11.41	21.13
26/01/2020 21:48:53	26012020	260120	214853	282.440	12.243252	-56.391797	282.520	-0.230	0.030	0.350	282.420	-1.400	0.700																			1580075333.0	11.50	21.30
26/01/2020 21:48:54	26012020	260120	214854	282.360	12.243262	-56.391852	282.440	-0.430	-0.370	-0.040	282.350	-1.800	0.300																			1580075334.0	11.91	22.06
26/01/2020 21:48:55	26012020	260120	214855	282.360	12.243270	-56.391910	282.450	-0.300	-0.910	-0.380	282.360	-2.400	-0.000																			1580075335.0	12.41	22.98
26/01/2020 21:48:56	26012020	260120	214856	282.420	12.243278	-56.391968	282.510	-0.020	-1.130	-0.460	282.430	-2.500	-0.100																			1580075336.0	12.67	23.46
26/01/2020 21:48:57	26012020	260120	214857	282.480	12.243290	-56.392027	282.580	0.160	-0.840	-0.240	282.490	-2.200	0.200																			1580075337.0	12.47	23.09
26/01/2020 21:48:58	26012020	260120	214858	282.530	12.243303	-56.392082	282.620	0.110	-0.220	0.030	282.530	-1.500	0.400																			1580075338.0	12.09	22.39
26/01/2020 21:48:59	26012020	260120	214859	282.550	12.243315	-56.392137	282.650	-0.130	0.340	0.120	282.560	-1.000	0.500	1014.70	26.10	26.20	20.80	20.80	1.00	72.00	72.00	386.00	25.70	35.00	5.00	49.00	3.50	260	3634.00	27.60	27.60	1580075339.0	11.83	21.91
26/01/2020 21:49:00	26012020	260120	214900	282.620	12.243328	-56.392192	282.720	-0.380	0.590	-0.070	282.640	-0.800	0.300																			1580075340.0	11.88	22.00
26/01/2020 21:49:01	26012020	260120	214901	282.730	12.243338	-56.392248	282.830	-0.480	0.520	-0.320	282.760	-0.900	0.000																			1580075341.0	12.12	22.45
26/01/2020 21:49:02	26012020	260120	214902	282.870	12.243348	-56.392305	282.980	-0.400	0.230	-0.460	282.910	-1.200	-0.100																			1580075342.0	12.29	22.76
26/01/2020 21:49:03	26012020	260120	214903	283.010	12.243357	-56.392363	283.110	-0.170	-0.120	-0.400	283.030	-1.600	-0.000																			1580075343.0	12.32	22.82
26/01/2020 21:49:04	26012020	260120	214904	283.090	12.243367	-56.392420	283.180	0.140	-0.410	-0.120	283.100	-1.800	0.300																			1580075344.0	12.22	22.63
26/01/2020 21:49:05	26012020	260120	214905	283.100	12.243380	-56.392475	283.180	0.430	-0.570	0.240	283.090	-2.000	0.600																			1580075345.0	12.05	22.32
26/01/2020 21:49:06	26012020	260120	214906	283.000	12.243392	-56.392530	283.060	0.570	-0.580	0.520	282.970	-2.000	0.900																			1580075346.0	11.88	22.00
26/01/2020 21:49:07	26012020	260120	214907	282.800	12.243405	-56.392583	282.830	0.490	-0.500	0.570	282.750	-1.900	0.900																			1580075347.0	11.75	21.76
26/01/2020 21:49:08	26012020	260120	214908	282.580	12.243418	-56.392637	282.610	0.280	-0.440	0.390	282.540	-1.900	0.700																			1580075348.0	11.69	21.65
26/01/2020 21:49:09	26012020	260120	214909	282.470	12.243428	-56.392692	282.540	0.110	-0.480	0.110	282.480	-1.900	0.400																			1580075349.0	11.76	21.78
26/01/2020 21:49:10	26012020	260120	214910	282.560	12.243438	-56.392747	282.660	0.090	-0.590	-0.180	282.600	-2.000	0.200																			1580075350.0	11.95	22.13
26/01/2020 21:49:11	26012020	260120	214911	282.810	12.243450	-56.392803	282.930	0.180	-0.680	-0.380	282.870	-2.100	-0.000																			1580075351.0	12.13	22.46
26/01/2020 21:49:12	26012020	260120	214912	283.120	12.243462	-56.392860	283.240	0.220	-0.660	-0.400	283.180	-2.000	-0.000																			1580075352.0	12.27	22.72
26/01/2020 21:49:13	26012020	260120	214913	283.380	12.243473	-56.392917	283.490	0.100	-0.460	-0.230	283.420	-1.800	0.200																			1580075353.0	12.30	22.78
26/01/2020 21:49:14	26012020	260120	214914	283.500	12.243487	-56.392973	283.570	-0.170	-0.090	0.000	283.500	-1.400	0.400																			1580075354.0	12.23	22.65
26/01/2020 21:49:15	26012020	260120	214915	283.430	12.243500	-56.393028	283.480	-0.490	0.320	0.100	283.410	-1.000	0.500																			1580075355.0	12.08	22.37
26/01/2020 21:49:16	26012020	260120	214916	283.300	12.243510	-56.393085	283.340	-0.730	0.520	-0.050	283.260	-0.900	0.300																			1580075356.0	11.97	22.17
26/01/2020 21:49:17	26012020	260120	214917	283.170	12.243520	-56.393140	283.220	-0.770	0.360	-0.390	283.150	-1.100	-0.100																			1580075357.0	12.05	22.32
26/01/2020 21:49:18	26012020	260120	214918	283.130	12.243528	-56.393198	283.210	-0.550	-0.080	-0.660	283.140	-1.500	-0.300																			1580075358.0	12.28	22.74
26/01/2020 21:49:19	26012020	260120	214919	283.250	12.243537	-56.393257	283.360	-0.130	-0.530	-0.660	283.290	-2.000	-0.300																			1580075359.0	12.39	22.95
26/01/2020 21:49:20	26012020	260120	214920	283.490	12.243547	-56.393313	283.620	0.320	-0.760	-0.400	283.550	-2.200	0.000																			1580075360.0	12.26	22.71
26/01/2020 21:49:21	26012020	260120	214921	283.750	12.243560	-56.393368	283.850	0.670	-0.730	-0.060	283.780	-2.100	0.300																			1580075361.0	12.00	22.22
26/01/2020 21:49:22	26012020	260120	214922	283.900	12.243575	-56.393422	283.970	0.800	-0.560	0.220	283.910	-1.900	0.600																			1580075362.0	11.80	21.85
26/01/2020 21:49:23	26012020	260120	214923	283.890	12.243590	-56.393475	283.930	0.690	-0.350	0.410	283.860	-1.700	0.800																			1580075363.0	11.77	21.80
26/01/2020 21:49:24	26012020	260120	214924	283.690	12.243603	-56.393530	283.710	0.380	-0.120	0.490	283.620	-1.500	0.900																			1580075364.0	11.81	21.87
26/01/2020 21:49:25	26012020	260120	214925	283.320	12.243617	-56.393583	283.330	0.000	0.130	0.400	283.230	-1.200	0.700																			1580075365.0	11.82	21.89
26/01/2020 21:49:26	26012020	260120	214926	282.920	12.243628	-56.393638	282.920	-0.290	0.260	0.130	282.840	-1.100	0.400																			1580075366.0	11.77	21.80
26/01/2020 21:49:27	26012020	260120	214927	282.630	12.243638	-56.393693	282.660	-0.360	0.060	-0.270	282.600	-1.400	0.000																			1580075367.0	11.84	21.93
26/01/2020 21:49:28	26012020	260120	214928	282.620	12.243648	-56.393750	282.700	-0.220	-0.490	-0.670	282.650	-2.000	-0.300																			1580075368.0	12.14	22.48
26/01/2020 21:49:29	26012020	260120	214929	282.920	12.243658	-56.393808	283.050	0.050	-1.110	-0.940	283.010	-2.600	-0.600																			1580075369.0	12.50	23.15
26/01/2020 21:49:30	26012020	260120	214930	283.440	12.243670	-56.393867	283.600	0.280	-1.390	-0.930	283.550	-2.800	-0.500																			1580075370.0	12.66	23.45
26/01/2020 21:49:31	26012020	260120	214931	283.980	12.243683	-56.393925	284.110	0.330	-1.080	-0.600	284.060	-2.400	-0.200																			1580075371.0	12.49	23.13
26/01/2020 21:49:32	26012020	260120	214932	284.280	12.243697	-56.393980	284.370	0.090	-0.250	-0.060	284.310	-1.500	0.400																			1580075372.0	12.07	22.35
26/01/2020 21:49:33	26012020	260120	214933	284.230	12.243712	-56.394032	284.260	-0.390	0.690	0.400	284.180	-0.600	0.800																			1580075373.0	11.59	21.46
26/01/2020 21:49:34	26012020	260120	214934	283.880	12.243723	-56.394085	283.900	-0.850	1.170	0.510	283.810	-0.200	0.900																			1580075374.0	11.38	21.08
26/01/2020 21:49:35	26012020	260120	214935	283.520	12.243733	-56.394138	283.550	-0.950	0.790	0.220	283.470	-0.700	0.500																			1580075375.0	11.68	21.63
26/01/2020 21:49:36	26012020	260120	214936	283.370	12.243742	-56.394197	283.450	-0.510	-0.280	-0.210	283.370	-1.800	0.100																			1580075376.0	12.38	22.93
26/01/2020 21:49:37	26012020	260120	214937	283.430	12.243752	-56.394258	283.500	0.270	-1.250	-0.430	283.450	-2.700	-0.100																			1580075377.0	13.00	24.08
26/01/2020 21:49:38	26012020	260120	214938	283.520	12.243763	-56.394317	283.570	0.890	-1.350	-0.190	283.530	-2.700	0.200																			1580075378.0	12.85	23.80
26/01/2020 21:49:39	26012020	260120	214939	283.460	12.243778	-56.394372	283.480	1.000	-0.540	0.360	283.420	-1.800	0.800																			1580075379.0	11.99	22.21
26/01/2020 21:49:40	26012020	260120	214940	283.190	12.243793	-56.394422	283.190	0.590	0.440	0.850	283.110	-0.900	1.200																			1580075380.0	11.13	20.61
26/01/2020 21:49:41	26012020	260120	214941	282.860	12.243808	-56.394472	282.880	0.050	0.780	0.870	282.810	-0.700	1.200																			1580075381.0	10.92	20.22
26/01/2020 21:49:42	26012020	260120	214942	282.700	12.243822	-56.394525	282.780	-0.200	0.200	0.430	282.710	-1.300	0.700																			1580075382.0	11.52	21.34
26/01/2020 21:49:43	26012020	260120	214943	282.820	12.243832	-56.394582	282.950	-0.030	-0.850	-0.200	282.880	-2.400	0.100																			1580075383.0	12.41	22.98
26/01/2020 21:49:44	26012020	260120	214944	283.150	12.243842	-56.394642	283.290	0.280	-1.530	-0.700	283.230	-3.000	-0.400																			1580075384.0	12.94	23.96
26/01/2020 21:49:45	26012020	260120	214945	283.510	12.243853	-56.394702	283.630	0.320	-1.360	-0.810	283.560	-2.700	-0.400																			1580075385.0	12.68	23.48
26/01/2020 21:49:46	26012020	260120	214946	283.740	12.243865	-56.394757	283.840	-0.020	-0.510	-0.610	283.760	-1.800	-0.200																			1580075386.0	11.94	22.11
26/01/2020 21:49:47	26012020	260120	214947	283.820	12.243877	-56.394808	283.900	-0.520	0.370	-0.330	283.830	-1.000	0.100																			1580075387.0	11.35	21.02
26/01/2020 21:49:48	26012020	260120	214948	283.820	12.243887	-56.394862	283.880	-0.800	0.680	-0.160	283.810	-0.700	0.200																			1580075388.0	11.35	21.02
26/01/2020 21:49:49	26012020	260120	214949	283.760	12.243898	-56.394917	283.820	-0.650	0.320	-0.100	283.750	-1.200	0.300																			1580075389.0	11.92	22.08
26/01/2020 21:49:50	26012020	260120	214950	283.690	12.243908	-56.394975	283.750	-0.210	-0.280	-0.090	283.670	-1.700	0.300																			1580075390.0	12.52	23.19
26/01/2020 21:49:51	26012020	260120	214951	283.600	12.243920	-56.395033	283.640	0.200	-0.610	0.010	283.580	-2.000	0.400																			1580075391.0	12.64	23.41
26/01/2020 21:49:52	26012020	260120	214952	283.470	12.243933	-56.395090	283.500	0.340	-0.480	0.190	283.430	-1.800	0.600																			1580075392.0	12.25	22.69
26/01/2020 21:49:53	26012020	260120	214953	283.310	12.243947	-56.395143	283.350	0.220	-0.180	0.270	283.280	-1.500	0.600																			1580075393.0	11.71	21.69
26/01/2020 21:49:54	26012020	260120	214954	283.200	12.243958	-56.395197	283.250	0.110	-0.080	0.140	283.190	-1.500	0.500																			1580075394.0	11.51	21.32
26/01/2020 21:49:55	26012020	260120	214955	283.150	12.243970	-56.395252	283.200	0.170	-0.320	-0.040	283.150	-1.800	0.300																			1580075395.0	11.80	21.85
26/01/2020 21:49:56	26012020	260120	214956	283.100	12.243982	-56.395308	283.140	0.300	-0.560	-0.060	283.080	-2.000	0.300																			1580075396.0	12.23	22.65
26/01/2020 21:49:57	26012020	260120	214957	282.950	12.243995	-56.395365	282.970	0.290	-0.400	0.150	282.910	-1.800	0.500																			1580075397.0	12.28	22.74
26/01/2020 21:49:58	26012020	260120	214958	282.680	12.244008	-56.395418	282.690	0.050	0.070	0.430	282.620	-1.300	0.800																			1580075398.0	11.85	21.95
26/01/2020 21:49:59	26012020	260120	214959	282.410	12.244022	-56.395472	282.450	-0.200	0.330	0.550	282.370	-1.100	0.900	1014.70	26.10	26.20	20.70	20.70	1.00	71.00	71.00	385.00	25.60	34.00	5.20	46.00	3.50	224	3638.00	27.60	27.60	1580075399.0	11.44	21.19
26/01/2020 21:50:00	26012020	260120	215000	282.290	12.244033	-56.395525	282.370	-0.200	0.000	0.350	282.300	-1.500	0.700																			1580075400.0	11.63	21.54
26/01/2020 21:50:01	26012020	260120	215001	282.410	12.244043	-56.395582	282.530	0.070	-0.650	0.010	282.460	-2.100	0.300																			1580075401.0	12.23	22.65
26/01/2020 21:50:02	26012020	260120	215002	282.700	12.244055	-56.395640	282.850	0.340	-1.040	-0.240	282.770	-2.400	0.100																			1580075402.0	12.57	23.28
26/01/2020 21:50:03	26012020	260120	215003	283.040	12.244067	-56.395697	283.190	0.370	-0.900	-0.300	283.110	-2.300	0.100																			1580075403.0	12.32	22.82
26/01/2020 21:50:04	26012020	260120	215004	283.330	12.244078	-56.395752	283.470	0.130	-0.520	-0.200	283.380	-1.900	0.200																			1580075404.0	11.82	21.89
26/01/2020 21:50:05	26012020	260120	215005	283.540	12.244090	-56.395805	283.650	-0.190	-0.200	-0.070	283.560	-1.600	0.300																			1580075405.0	11.65	21.58
26/01/2020 21:50:06	26012020	260120	215006	283.620	12.244102	-56.395860	283.710	-0.460	-0.060	-0.050	283.620	-1.500	0.300																			1580075406.0	11.83	21.91
26/01/2020 21:50:07	26012020	260120	215007	283.580	12.244112	-56.395917	283.650	-0.620	0.000	-0.120	283.560	-1.400	0.300																			1580075407.0	12.06	22.34
26/01/2020 21:50:08	26012020	260120	215008	283.430	12.244122	-56.395972	283.480	-0.630	0.040	-0.160	283.390	-1.400	0.200																			1580075408.0	12.12	22.45
26/01/2020 21:50:09	26012020	260120	215009	283.200	12.244130	-56.396028	283.230	-0.430	-0.000	-0.120	283.140	-1.400	0.300																			1580075409.0	12.09	22.39
26/01/2020 21:50:10	26012020	260120	215010	282.910	12.244140	-56.396085	282.930	-0.040	-0.160	-0.010	282.840	-1.600	0.400																			1580075410.0	12.12	22.45
26/01/2020 21:50:11	26012020	260120	215011	282.580	12.244153	-56.396142	282.620	0.400	-0.330	0.200	282.520	-1.700	0.600																			1580075411.0	12.23	22.65
26/01/2020 21:50:12	26012020	260120	215012	282.260	12.244167	-56.396198	282.310	0.640	-0.280	0.440	282.200	-1.700	0.800																			1580075412.0	12.21	22.61
26/01/2020 21:50:13	26012020	260120	215013	281.970	12.244182	-56.396252	282.030	0.550	-0.040	0.530	281.930	-1.400	0.900																			1580075413.0	11.95	22.13
26/01/2020 21:50:14	26012020	260120	215014	281.800	12.244195	-56.396305	281.890	0.220	0.110	0.330	281.780	-1.300	0.700																			1580075414.0	11.62	21.52
26/01/2020 21:50:15	26012020	260120	215015	281.810	12.244207	-56.396358	281.940	-0.070	-0.100	-0.080	281.830	-1.500	0.200																			1580075415.0	11.61	21.50
26/01/2020 21:50:16	26012020	260120	215016	282.050	12.244215	-56.396415	282.220	-0.120	-0.580	-0.480	282.130	-2.000	-0.100																			1580075416.0	11.96	22.15
26/01/2020 21:50:17	26012020	260120	215017	282.510	12.244225	-56.396472	282.710	0.040	-0.980	-0.660	282.620	-2.400	-0.300																			1580075417.0	12.25	22.69
26/01/2020 21:50:18	26012020	260120	215018	283.050	12.244235	-56.396528	283.250	0.230	-1.040	-0.510	283.150	-2.400	-0.100																			1580075418.0	12.28	22.74
26/01/2020 21:50:19	26012020	260120	215019	283.480	12.244248	-56.396585	283.630	0.240	-0.710	-0.220	283.530	-2.100	0.200																			1580075419.0	12.07	22.35
26/01/2020 21:50:20	26012020	260120	215020	283.660	12.244262	-56.396638	283.770	0.020	-0.240	0.050	283.670	-1.600	0.400																			1580075420.0	11.82	21.89
26/01/2020 21:50:21	26012020	260120	215021	283.630	12.244273	-56.396693	283.700	-0.270	0.100	0.190	283.600	-1.300	0.600																			1580075421.0	11.77	21.80
26/01/2020 21:50:22	26012020	260120	215022	283.420	12.244285	-56.396748	283.440	-0.460	0.220	0.130	283.360	-1.200	0.500																			1580075422.0	11.95	22.13
26/01/2020 21:50:23	26012020	260120	215023	283.110	12.244295	-56.396805	283.120	-0.490	0.190	-0.040	283.040	-1.200	0.300																			1580075423.0	12.13	22.46
26/01/2020 21:50:24	26012020	260120	215024	282.780	12.244303	-56.396862	282.800	-0.410	0.030	-0.200	282.720	-1.400	0.200																			1580075424.0	12.19	22.58
26/01/2020 21:50:25	26012020	260120	215025	282.500	12.244313	-56.396918	282.540	-0.250	-0.240	-0.250	282.450	-1.700	0.100																			1580075425.0	12.17	22.54
26/01/2020 21:50:26	26012020	260120	215026	282.320	12.244325	-56.396975	282.380	-0.040	-0.530	-0.160	282.300	-2.000	0.200																			1580075426.0	12.16	22.52
26/01/2020 21:50:27	26012020	260120	215027	282.290	12.244337	-56.397032	282.390	0.200	-0.720	-0.010	282.300	-2.100	0.400																			1580075427.0	12.13	22.46
26/01/2020 21:50:28	26012020	260120	215028	282.420	12.244348	-56.397087	282.530	0.390	-0.720	0.130	282.450	-2.100	0.500																			1580075428.0	12.08	22.37
26/01/2020 21:50:29	26012020	260120	215029	282.590	12.244362	-56.397142	282.710	0.440	-0.470	0.270	282.630	-1.800	0.700																			1580075429.0	11.99	22.21
26/01/2020 21:50:30	26012020	260120	215030	282.700	12.244375	-56.397197	282.800	0.310	-0.020	0.410	282.710	-1.400	0.800																			1580075430.0	11.83	21.91
26/01/2020 21:50:31	26012020	260120	215031	282.690	12.244388	-56.397250	282.780	0.080	0.340	0.500	282.670	-1.000	0.900																			1580075431.0	11.69	21.65
26/01/2020 21:50:32	26012020	260120	215032	282.590	12.244400	-56.397303	282.670	-0.100	0.390	0.410	282.570	-1.000	0.800																			1580075432.0	11.73	21.72
26/01/2020 21:50:33	26012020	260120	215033	282.520	12.244412	-56.397360	282.610	-0.080	0.060	0.130	282.520	-1.400	0.500																			1580075433.0	12.00	22.22
26/01/2020 21:50:34	26012020	260120	215034	282.550	12.244422	-56.397417	282.660	0.110	-0.440	-0.190	282.570	-1.900	0.200																			1580075434.0	12.30	22.78
26/01/2020 21:50:35	26012020	260120	215035	282.690	12.244432	-56.397475	282.800	0.310	-0.860	-0.410	282.720	-2.300	-0.000																			1580075435.0	12.45	23.06
26/01/2020 21:50:36	26012020	260120	215036	282.830	12.244443	-56.397532	282.940	0.310	-0.950	-0.460	282.860	-2.300	-0.100																			1580075436.0	12.35	22.87
26/01/2020 21:50:37	26012020	260120	215037	282.930	12.244455	-56.397587	283.030	0.020	-0.690	-0.360	282.940	-2.000	0.000																			1580075437.0	12.03	22.28
26/01/2020 21:50:38	26012020	260120	215038	282.980	12.244467	-56.397642	283.060	-0.420	-0.280	-0.270	282.980	-1.600	0.100																			1580075438.0	11.72	21.71
26/01/2020 21:50:39	26012020	260120	215039	282.950	12.244477	-56.397695	283.030	-0.790	-0.010	-0.200	282.940	-1.400	0.200																			1580075439.0	11.62	21.52
26/01/2020 21:50:40	26012020	260120	215040	282.860	12.244485	-56.397750	282.940	-0.860	-0.050	-0.070	282.840	-1.500	0.300																			1580075440.0	11.82	21.89
26/01/2020 21:50:41	26012020	260120	215041	282.740	12.244495	-56.397807	282.830	-0.540	-0.270	0.150	282.710	-1.700	0.600																			1580075441.0	12.17	22.54
26/01/2020 21:50:42	26012020	260120	215042	282.590	12.244505	-56.397865	282.660	0.010	-0.400	0.410	282.550	-1.800	0.800																			1580075442.0	12.38	22.93
26/01/2020 21:50:43	26012020	260120	215043	282.420	12.244517	-56.397922	282.500	0.500	-0.300	0.590	282.390	-1.700	1.000																			1580075443.0	12.29	22.76
26/01/2020 21:50:44	26012020	260120	215044	282.270	12.244532	-56.397977	282.350	0.730	-0.090	0.640	282.250	-1.500	1.000																			1580075444.0	12.07	22.35
26/01/2020 21:50:45	26012020	260120	215045	282.190	12.244545	-56.398032	282.300	0.690	0.070	0.540	282.190	-1.300	0.900																			1580075445.0	11.93	22.09
26/01/2020 21:50:46	26012020	260120	215046	282.200	12.244558	-56.398087	282.330	0.490	0.080	0.280	282.220	-1.300	0.600																			1580075446.0	11.89	22.02
26/01/2020 21:50:47	26012020	260120	215047	282.310	12.244572	-56.398142	282.450	0.260	-0.100	-0.080	282.340	-1.500	0.200																			1580075447.0	11.95	22.13
26/01/2020 21:50:48	26012020	260120	215048	282.490	12.244582	-56.398197	282.620	0.030	-0.350	-0.420	282.530	-1.800	-0.100																			1580075448.0	12.08	22.37
26/01/2020 21:50:49	26012020	260120	215049	282.690	12.244592	-56.398253	282.810	-0.210	-0.500	-0.630	282.720	-1.900	-0.300																			1580075449.0	12.12	22.45
26/01/2020 21:50:50	26012020	260120	215050	282.830	12.244602	-56.398310	282.950	-0.400	-0.510	-0.600	282.850	-1.900	-0.200																			1580075450.0	12.00	22.22
26/01/2020 21:50:51	26012020	260120	215051	282.900	12.244612	-56.398365	283.020	-0.470	-0.480	-0.310	282.910	-1.900	0.100																			1580075451.0	11.90	22.04
26/01/2020 21:50:52	26012020	260120	215052	282.920	12.244622	-56.398420	283.040	-0.350	-0.530	0.040	282.920	-1.900	0.500																			1580075452.0	11.92	22.08
26/01/2020 21:50:53	26012020	260120	215053	282.890	12.244633	-56.398477	282.990	-0.090	-0.620	0.300	282.870	-2.000	0.700																			1580075453.0	12.11	22.43
26/01/2020 21:50:54	26012020	260120	215054	282.770	12.244645	-56.398533	282.860	0.160	-0.570	0.430	282.740	-1.900	0.800																			1580075454.0	12.24	22.67
26/01/2020 21:50:55	26012020	260120	215055	282.630	12.244657	-56.398588	282.710	0.240	-0.310	0.470	282.600	-1.700	0.900																			1580075455.0	12.14	22.48
26/01/2020 21:50:56	26012020	260120	215056	282.490	12.244668	-56.398643	282.570	0.140	0.010	0.430	282.470	-1.400	0.800																			1580075456.0	11.92	22.08
26/01/2020 21:50:57	26012020	260120	215057	282.410	12.244680	-56.398698	282.500	-0.030	0.200	0.230	282.410	-1.200	0.600																			1580075457.0	11.84	21.93
26/01/2020 21:50:58	26012020	260120	215058	282.400	12.244692	-56.398753	282.490	-0.140	0.190	-0.060	282.410	-1.200	0.300																			1580075458.0	11.90	22.04
26/01/2020 21:50:59	26012020	260120	215059	282.430	12.244702	-56.398810	282.530	-0.160	-0.030	-0.280	282.440	-1.500	0.100	1014.70	26.10	26.20	20.70	20.70	1.00	72.00	71.00	385.00	25.60	32.00	5.00	50.00	3.30	191	3729.00	27.60	27.60	1580075459.0	12.05	22.32
26/01/2020 21:51:00	26012020	260120	215100	282.520	12.244712	-56.398867	282.630	-0.080	-0.310	-0.310	282.540	-1.700	0.100																			1580075460.0	12.21	22.61
26/01/2020 21:51:01	26012020	260120	215101	282.660	12.244723	-56.398923	282.790	0.060	-0.510	-0.140	282.690	-1.900	0.300																			1580075461.0	12.24	22.67
26/01/2020 21:51:02	26012020	260120	215102	282.790	12.244735	-56.398980	282.910	0.220	-0.540	0.120	282.800	-1.900	0.500																			1580075462.0	12.16	22.52
26/01/2020 21:51:03	26012020	260120	215103	282.790	12.244747	-56.399035	282.900	0.330	-0.400	0.380	282.780	-1.800	0.800																			1580075463.0	12.01	22.24
26/01/2020 21:51:04	26012020	260120	215104	282.670	12.244760	-56.399090	282.770	0.320	-0.220	0.570	282.640	-1.600	1.000																			1580075464.0	11.88	22.00
26/01/2020 21:51:05	26012020	260120	215105	282.520	12.244773	-56.399143	282.620	0.220	-0.130	0.610	282.490	-1.500	1.000																			1580075465.0	11.82	21.89
26/01/2020 21:51:06	26012020	260120	215106	282.420	12.244785	-56.399198	282.530	0.100	-0.240	0.370	282.410	-1.700	0.700																			1580075466.0	11.90	22.04
26/01/2020 21:51:07	26012020	260120	215107	282.380	12.244797	-56.399255	282.510	-0.010	-0.490	-0.080	282.380	-1.900	0.200																			1580075467.0	12.09	22.39
26/01/2020 21:51:08	26012020	260120	215108	282.390	12.244807	-56.399312	282.510	-0.170	-0.650	-0.530	282.410	-2.000	-0.200																			1580075468.0	12.24	22.67
26/01/2020 21:51:09	26012020	260120	215109	282.470	12.244815	-56.399368	282.610	-0.400	-0.560	-0.830	282.500	-1.900	-0.500																			1580075469.0	12.17	22.54
26/01/2020 21:51:10	26012020	260120	215110	282.650	12.244823	-56.399425	282.800	-0.620	-0.300	-0.870	282.690	-1.700	-0.500																			1580075470.0	11.94	22.11
26/01/2020 21:51:11	26012020	260120	215111	282.870	12.244832	-56.399480	283.040	-0.630	-0.130	-0.620	282.910	-1.500	-0.200																			1580075471.0	11.82	21.89
26/01/2020 21:51:12	26012020	260120	215112	283.040	12.244843	-56.399535	283.200	-0.330	-0.160	-0.210	283.070	-1.600	0.200																			1580075472.0	11.99	22.21
26/01/2020 21:51:13	26012020	260120	215113	283.130	12.244855	-56.399592	283.240	0.170	-0.270	0.210	283.130	-1.700	0.600																			1580075473.0	12.26	22.71
26/01/2020 21:51:14	26012020	260120	215114	283.060	12.244868	-56.399648	283.150	0.570	-0.190	0.600	283.040	-1.500	1.000																			1580075474.0	12.38	22.93
26/01/2020 21:51:15	26012020	260120	215115	282.850	12.244882	-56.399705	282.940	0.610	0.150	0.880	282.800	-1.200	1.300																			1580075475.0	12.14	22.48
26/01/2020 21:51:16	26012020	260120	215116	282.530	12.244897	-56.399758	282.610	0.300	0.450	0.850	282.470	-0.900	1.200																			1580075476.0	11.74	21.74
26/01/2020 21:51:17	26012020	260120	215117	282.250	12.244908	-56.399812	282.350	-0.090	0.320	0.400	282.220	-1.100	0.700																			1580075477.0	11.57	21.43
26/01/2020 21:51:18	26012020	260120	215118	282.200	12.244918	-56.399867	282.320	-0.260	-0.290	-0.290	282.220	-1.800	0.000																			1580075478.0	11.87	21.98
26/01/2020 21:51:19	26012020	260120	215119	282.380	12.244927	-56.399925	282.530	-0.110	-1.040	-0.870	282.440	-2.500	-0.500																			1580075479.0	12.32	22.82
26/01/2020 21:51:20	26012020	260120	215120	282.680	12.244935	-56.399983	282.820	0.150	-1.440	-0.980	282.740	-2.800	-0.600																			1580075480.0	12.51	23.17
26/01/2020 21:51:21	26012020	260120	215121	282.930	12.244947	-56.400040	283.060	0.260	-1.220	-0.690	282.970	-2.500	-0.300																			1580075481.0	12.28	22.74
26/01/2020 21:51:22	26012020	260120	215122	283.060	12.244958	-56.400095	283.170	0.130	-0.540	-0.200	283.070	-1.800	0.200																			1580075482.0	11.85	21.95
26/01/2020 21:51:23	26012020	260120	215123	283.040	12.244972	-56.400147	283.130	-0.140	0.160	0.180	283.020	-1.200	0.600																			1580075483.0	11.52	21.34
26/01/2020 21:51:24	26012020	260120	215124	282.910	12.244985	-56.400200	282.990	-0.350	0.460	0.280	282.880	-0.900	0.600																			1580075484.0	11.57	21.43
26/01/2020 21:51:25	26012020	260120	215125	282.790	12.244995	-56.400255	282.890	-0.390	0.270	0.100	282.770	-1.200	0.500																			1580075485.0	11.94	22.11
26/01/2020 21:51:26	26012020	260120	215126	282.760	12.245005	-56.400313	282.880	-0.240	-0.160	-0.130	282.770	-1.600	0.200																			1580075486.0	12.39	22.95
26/01/2020 21:51:27	26012020	260120	215127	282.790	12.245015	-56.400372	282.900	0.010	-0.450	-0.250	282.800	-1.900	0.100																			1580075487.0	12.57	23.28
26/01/2020 21:51:28	26012020	260120	215128	282.800	12.245027	-56.400430	282.900	0.180	-0.430	-0.180	282.800	-1.800	0.200																			1580075488.0	12.38	22.93
26/01/2020 21:51:29	26012020	260120	215129	282.770	12.245038	-56.400485	282.880	0.220	-0.200	0.110	282.770	-1.600	0.500																			1580075489.0	12.02	22.26
26/01/2020 21:51:30	26012020	260120	215130	282.720	12.245052	-56.400538	282.830	0.150	-0.010	0.420	282.710	-1.400	0.800																			1580075490.0	11.79	21.84
26/01/2020 21:51:31	26012020	260120	215131	282.630	12.245065	-56.400593	282.720	0.020	0.010	0.530	282.600	-1.400	0.900																			1580075491.0	11.79	21.84
26/01/2020 21:51:32	26012020	260120	215132	282.510	12.245078	-56.400648	282.610	-0.100	-0.160	0.380	282.490	-1.600	0.700																			1580075492.0	11.90	22.04
26/01/2020 21:51:33	26012020	260120	215133	282.440	12.245088	-56.400703	282.540	-0.160	-0.460	0.100	282.440	-1.900	0.400																			1580075493.0	12.07	22.35
26/01/2020 21:51:34	26012020	260120	215134	282.470	12.245098	-56.400760	282.580	-0.070	-0.730	-0.130	282.480	-2.100	0.200																			1580075494.0	12.19	22.58
26/01/2020 21:51:35	26012020	260120	215135	282.560	12.245108	-56.400818	282.690	0.150	-0.820	-0.160	282.590	-2.200	0.200																			1580075495.0	12.23	22.65
26/01/2020 21:51:36	26012020	260120	215136	282.660	12.245120	-56.400873	282.780	0.350	-0.670	-0.000	282.670	-2.000	0.400																			1580075496.0	12.16	22.52
26/01/2020 21:51:37	26012020	260120	215137	282.710	12.245132	-56.400930	282.810	0.360	-0.280	0.210	282.710	-1.600	0.600																			1580075497.0	11.99	22.21
26/01/2020 21:51:38	26012020	260120	215138	282.710	12.245145	-56.400983	282.830	0.130	0.140	0.340	282.710	-1.200	0.700																			1580075498.0	11.77	21.80
26/01/2020 21:51:39	26012020	260120	215139	282.710	12.245157	-56.401037	282.830	-0.180	0.320	0.310	282.710	-1.100	0.700																			1580075499.0	11.71	21.69
26/01/2020 21:51:40	26012020	260120	215140	282.740	12.245168	-56.401092	282.860	-0.360	0.130	0.070	282.750	-1.300	0.400																			1580075500.0	11.88	22.00
26/01/2020 21:51:41	26012020	260120	215141	282.800	12.245178	-56.401148	282.940	-0.310	-0.310	-0.240	282.820	-1.800	0.100																			1580075501.0	12.19	22.58
26/01/2020 21:51:42	26012020	260120	215142	282.910	12.245188	-56.401207	283.060	-0.120	-0.700	-0.440	282.940	-2.100	-0.100																			1580075502.0	12.44	23.04
26/01/2020 21:51:43	26012020	260120	215143	283.040	12.245198	-56.401265	283.180	0.030	-0.800	-0.400	283.060	-2.200	0.000																			1580075503.0	12.38	22.93
26/01/2020 21:51:44	26012020	260120	215144	283.170	12.245210	-56.401320	283.310	0.090	-0.650	-0.150	283.190	-2.000	0.300																			1580075504.0	12.13	22.46
26/01/2020 21:51:45	26012020	260120	215145	283.280	12.245222	-56.401377	283.410	0.100	-0.370	0.080	283.300	-1.700	0.500																			1580075505.0	11.96	22.15
26/01/2020 21:51:46	26012020	260120	215146	283.320	12.245235	-56.401430	283.430	0.090	-0.080	0.190	283.310	-1.400	0.600																			1580075506.0	11.91	22.06
26/01/2020 21:51:47	26012020	260120	215147	283.230	12.245247	-56.401485	283.310	0.050	0.140	0.160	283.200	-1.200	0.500																			1580075507.0	11.95	22.13
26/01/2020 21:51:48	26012020	260120	215148	283.050	12.245258	-56.401542	283.130	-0.020	0.210	0.010	283.010	-1.200	0.400																			1580075508.0	12.00	22.22
26/01/2020 21:51:49	26012020	260120	215149	282.830	12.245270	-56.401597	282.890	-0.080	0.150	-0.120	282.780	-1.300	0.200																			1580075509.0	12.02	22.26
26/01/2020 21:51:50	26012020	260120	215150	282.620	12.245280	-56.401653	282.690	-0.100	-0.030	-0.180	282.580	-1.500	0.200																			1580075510.0	12.04	22.30
26/01/2020 21:51:51	26012020	260120	215151	282.490	12.245292	-56.401708	282.590	-0.050	-0.280	-0.140	282.480	-1.700	0.200																			1580075511.0	12.03	22.28
26/01/2020 21:51:52	26012020	260120	215152	282.500	12.245303	-56.401765	282.610	0.070	-0.550	-0.030	282.520	-2.000	0.400																			1580075512.0	12.03	22.28
26/01/2020 21:51:53	26012020	260120	215153	282.650	12.245315	-56.401820	282.790	0.230	-0.770	0.070	282.690	-2.200	0.400																			1580075513.0	12.07	22.35
26/01/2020 21:51:54	26012020	260120	215154	282.880	12.245328	-56.401875	283.040	0.330	-0.850	0.130	282.930	-2.200	0.500																			1580075514.0	12.10	22.41
26/01/2020 21:51:55	26012020	260120	215155	283.160	12.245342	-56.401932	283.320	0.280	-0.750	0.140	283.220	-2.100	0.500																			1580075515.0	12.07	22.35
26/01/2020 21:51:56	26012020	260120	215156	283.450	12.245353	-56.401987	283.620	0.090	-0.560	0.080	283.510	-1.900	0.400																			1580075516.0	11.98	22.19
26/01/2020 21:51:57	26012020	260120	215157	283.690	12.245365	-56.402042	283.830	-0.100	-0.370	0.030	283.720	-1.700	0.400																			1580075517.0	12.01	22.24
26/01/2020 21:51:58	26012020	260120	215158	283.770	12.245377	-56.402098	283.880	-0.230	-0.150	0.030	283.770	-1.500	0.400																			1580075518.0	12.14	22.48
26/01/2020 21:51:59	26012020	260120	215159	283.660	12.245387	-56.402155	283.730	-0.320	0.140	0.140	283.610	-1.200	0.500																			1580075519.0	12.19	22.58
26/01/2020 21:52:00	26012020	260120	215200	283.360	12.245398	-56.402210	283.400	-0.420	0.420	0.320	283.270	-0.900	0.700	1014.80	26.10	26.20	20.90	20.90	1.00	73.00	72.00	385.00	25.60	37.00	5.00	50.00	3.70	163	3722.00	27.60	27.60	1580075520.0	12.06	22.34
26/01/2020 21:52:01	26012020	260120	215201	282.950	12.245410	-56.402267	283.010	-0.450	0.490	0.450	282.880	-0.900	0.800																			1580075521.0	11.93	22.09
26/01/2020 21:52:02	26012020	260120	215202	282.640	12.245422	-56.402322	282.710	-0.300	0.160	0.390	282.590	-1.300	0.700																			1580075522.0	12.00	22.22
26/01/2020 21:52:03	26012020	260120	215203	282.490	12.245432	-56.402378	282.600	0.070	-0.460	0.170	282.490	-1.900	0.500																			1580075523.0	12.27	22.72
26/01/2020 21:52:04	26012020	260120	215204	282.520	12.245443	-56.402437	282.640	0.520	-0.980	-0.040	282.540	-2.400	0.300																			1580075524.0	12.52	23.19
26/01/2020 21:52:05	26012020	260120	215205	282.660	12.245455	-56.402495	282.800	0.780	-1.010	-0.120	282.700	-2.400	0.300																			1580075525.0	12.46	23.08
26/01/2020 21:52:06	26012020	260120	215206	282.810	12.245467	-56.402550	282.940	0.650	-0.450	-0.040	282.830	-1.800	0.300																			1580075526.0	12.01	22.24
26/01/2020 21:52:07	26012020	260120	215207	282.870	12.245480	-56.402602	282.990	0.210	0.230	0.130	282.870	-1.100	0.500																			1580075527.0	11.44	21.19
26/01/2020 21:52:08	26012020	260120	215208	282.850	12.245493	-56.402653	282.950	-0.260	0.500	0.240	282.840	-0.900	0.600																			1580075528.0	11.27	20.87
26/01/2020 21:52:09	26012020	260120	215209	282.810	12.245505	-56.402708	282.920	-0.490	0.130	0.210	282.800	-1.400	0.600																			1580075529.0	11.66	21.59
26/01/2020 21:52:10	26012020	260120	215210	282.830	12.245515	-56.402765	282.990	-0.410	-0.590	0.030	282.840	-2.100	0.400																			1580075530.0	12.27	22.72
26/01/2020 21:52:11	26012020	260120	215211	282.930	12.245525	-56.402823	283.100	-0.120	-1.150	-0.180	282.960	-2.600	0.200																			1580075531.0	12.64	23.41
26/01/2020 21:52:12	26012020	260120	215212	283.060	12.245535	-56.402882	283.210	0.170	-1.200	-0.280	283.080	-2.600	0.100																			1580075532.0	12.54	23.22
26/01/2020 21:52:13	26012020	260120	215213	283.150	12.245547	-56.402938	283.300	0.310	-0.810	-0.180	283.160	-2.100	0.200																			1580075533.0	12.14	22.48
26/01/2020 21:52:14	26012020	260120	215214	283.200	12.245558	-56.402993	283.330	0.230	-0.280	0.040	283.200	-1.800	0.400																			1580075534.0	11.84	21.93
26/01/2020 21:52:15	26012020	260120	215215	283.170	12.245572	-56.403047	283.310	-0.020	0.090	0.190	283.160	-1.300	0.600																			1580075535.0	11.83	21.91
26/01/2020 21:52:16	26012020	260120	215216	283.100	12.245583	-56.403102	283.210	-0.280	0.240	0.110	283.100	-1.200	0.500																			1580075536.0	12.02	22.26
26/01/2020 21:52:17	26012020	260120	215217	283.030	12.245595	-56.403158	283.130	-0.440	0.240	-0.140	283.020	-1.200	0.200																			1580075537.0	12.21	22.61
26/01/2020 21:52:18	26012020	260120	215218	282.940	12.245605	-56.403217	283.030	-0.430	0.180	-0.310	282.930	-1.200	0.100																			1580075538.0	12.28	22.74
26/01/2020 21:52:19	26012020	260120	215219	282.840	12.245615	-56.403273	282.930	-0.270	0.070	-0.280	282.810	-1.300	0.100																			1580075539.0	12.22	22.63
26/01/2020 21:52:20	26012020	260120	215220	282.720	12.245627	-56.403330	282.820	-0.040	-0.050	-0.080	282.700	-1.500	0.300																			1580075540.0	12.15	22.50
26/01/2020 21:52:21	26012020	260120	215221	282.630	12.245638	-56.403385	282.740	0.180	-0.140	0.160	282.610	-1.500	0.600																			1580075541.0	12.03	22.28
26/01/2020 21:52:22	26012020	260120	215222	282.600	12.245652	-56.403440	282.730	0.330	-0.250	0.340	282.600	-1.700	0.700																			1580075542.0	11.88	22.00
26/01/2020 21:52:23	26012020	260120	215223	282.630	12.245663	-56.403493	282.770	0.410	-0.470	0.430	282.640	-1.900	0.800																			1580075543.0	11.83	21.91
26/01/2020 21:52:24	26012020	260120	215224	282.690	12.245677	-56.403548	282.830	0.420	-0.730	0.420	282.700	-2.100	0.800																			1580075544.0	11.94	22.11
26/01/2020 21:52:25	26012020	260120	215225	282.740	12.245688	-56.403605	282.880	0.340	-0.890	0.270	282.750	-2.300	0.600																			1580075545.0	12.05	22.32
26/01/2020 21:52:26	26012020	260120	215226	282.780	12.245700	-56.403660	282.900	0.160	-0.860	0.030	282.790	-2.200	0.400																			1580075546.0	12.06	22.34
26/01/2020 21:52:27	26012020	260120	215227	282.830	12.245712	-56.403717	282.960	-0.040	-0.660	-0.160	282.840	-2.000	0.200																			1580075547.0	12.04	22.30
26/01/2020 21:52:28	26012020	260120	215228	282.920	12.245722	-56.403772	283.050	-0.200	-0.400	-0.220	282.940	-1.800	0.200																			1580075548.0	11.99	22.21
26/01/2020 21:52:29	26012020	260120	215229	283.020	12.245733	-56.403828	283.140	-0.270	-0.220	-0.200	283.030	-1.600	0.200																			1580075549.0	12.07	22.35
26/01/2020 21:52:30	26012020	260120	215230	283.070	12.245745	-56.403885	283.180	-0.220	-0.120	-0.110	283.080	-1.500	0.300																			1580075550.0	12.25	22.69
26/01/2020 21:52:31	26012020	260120	215231	283.050	12.245757	-56.403942	283.150	-0.140	-0.000	0.060	283.040	-1.400	0.500																			1580075551.0	12.37	22.91
26/01/2020 21:52:32	26012020	260120	215232	282.940	12.245768	-56.403998	283.030	-0.130	0.190	0.320	282.910	-1.200	0.700																			1580075552.0	12.31	22.80
26/01/2020 21:52:33	26012020	260120	215233	282.750	12.245782	-56.404055	282.820	-0.240	0.380	0.480	282.700	-1.000	0.800																			1580075553.0	12.10	22.41
26/01/2020 21:52:34	26012020	260120	215234	282.550	12.245793	-56.404110	282.630	-0.350	0.340	0.310	282.520	-1.100	0.600																			1580075554.0	11.91	22.06
26/01/2020 21:52:35	26012020	260120	215235	282.430	12.245802	-56.404165	282.540	-0.310	-0.050	-0.040	282.420	-1.500	0.300																			1580075555.0	11.97	22.17
26/01/2020 21:52:36	26012020	260120	215236	282.410	12.245810	-56.404223	282.530	-0.080	-0.600	-0.280	282.410	-2.000	0.100																			1580075556.0	12.24	22.67
26/01/2020 21:52:37	26012020	260120	215237	282.440	12.245820	-56.404280	282.590	0.200	-0.900	-0.210	282.450	-2.300	0.200																			1580075557.0	12.35	22.87
26/01/2020 21:52:38	26012020	260120	215238	282.500	12.245832	-56.404337	282.660	0.370	-0.780	0.070	282.520	-2.100	0.500																			1580075558.0	12.10	22.41
26/01/2020 21:52:39	26012020	260120	215239	282.620	12.245845	-56.404390	282.800	0.420	-0.510	0.250	282.650	-1.900	0.600																			1580075559.0	11.76	21.78
26/01/2020 21:52:40	26012020	260120	215240	282.770	12.245860	-56.404443	282.960	0.430	-0.390	0.240	282.800	-1.800	0.600																			1580075560.0	11.74	21.74
26/01/2020 21:52:41	26012020	260120	215241	282.870	12.245872	-56.404498	283.020	0.400	-0.390	0.120	282.880	-1.800	0.500																			1580075561.0	12.06	22.34
26/01/2020 21:52:42	26012020	260120	215242	282.860	12.245885	-56.404555	282.980	0.230	-0.220	0.040	282.850	-1.600	0.400																			1580075562.0	12.28	22.74
26/01/2020 21:52:43	26012020	260120	215243	282.760	12.245897	-56.404612	282.870	-0.110	0.110	-0.010	282.740	-1.300	0.400																			1580075563.0	12.07	22.35
26/01/2020 21:52:44	26012020	260120	215244	282.630	12.245907	-56.404667	282.740	-0.470	0.260	-0.180	282.600	-1.100	0.200																			1580075564.0	11.83	21.91
26/01/2020 21:52:45	26012020	260120	215245	282.540	12.245917	-56.404722	282.650	-0.610	0.050	-0.440	282.530	-1.400	-0.100																			1580075565.0	11.92	22.08
26/01/2020 21:52:46	26012020	260120	215246	282.520	12.245925	-56.404780	282.650	-0.450	-0.410	-0.590	282.530	-1.900	-0.200																			1580075566.0	12.27	22.72
26/01/2020 21:52:47	26012020	260120	215247	282.590	12.245933	-56.404838	282.730	-0.110	-0.790	-0.460	282.610	-2.200	-0.100																			1580075567.0	12.51	23.17
26/01/2020 21:52:48	26012020	260120	215248	282.720	12.245945	-56.404895	282.870	0.170	-0.850	-0.160	282.750	-2.200	0.300																			1580075568.0	12.43	23.02
26/01/2020 21:52:49	26012020	260120	215249	282.840	12.245958	-56.404952	283.000	0.270	-0.570	0.140	282.860	-1.900	0.500																			1580075569.0	12.15	22.50
26/01/2020 21:52:50	26012020	260120	215250	282.870	12.245972	-56.405007	283.010	0.210	-0.160	0.350	282.870	-1.500	0.700																			1580075570.0	11.88	22.00
26/01/2020 21:52:51	26012020	260120	215251	282.840	12.245985	-56.405060	282.970	0.050	0.140	0.400	282.830	-1.200	0.800																			1580075571.0	11.78	21.82
26/01/2020 21:52:52	26012020	260120	215252	282.810	12.245998	-56.405115	282.940	-0.130	0.170	0.250	282.810	-1.200	0.600																			1580075572.0	11.88	22.00
26/01/2020 21:52:53	26012020	260120	215253	282.810	12.246008	-56.405170	282.940	-0.230	-0.030	-0.000	282.820	-1.500	0.300																			1580075573.0	12.08	22.37
26/01/2020 21:52:54	26012020	260120	215254	282.860	12.246018	-56.405228	283.000	-0.180	-0.320	-0.260	282.870	-1.800	0.100																			1580075574.0	12.24	22.67
26/01/2020 21:52:55	26012020	260120	215255	282.930	12.246028	-56.405285	283.080	-0.010	-0.580	-0.400	282.950	-2.000	-0.000																			1580075575.0	12.33	22.84
26/01/2020 21:52:56	26012020	260120	215256	283.000	12.246040	-56.405342	283.140	0.170	-0.630	-0.280	283.010	-2.000	0.100																			1580075576.0	12.30	22.78
26/01/2020 21:52:57	26012020	260120	215257	283.010	12.246052	-56.405398	283.120	0.240	-0.440	0.060	283.000	-1.800	0.500																			1580075577.0	12.13	22.46
26/01/2020 21:52:58	26012020	260120	215258	282.890	12.246065	-56.405453	282.980	0.150	-0.140	0.370	282.840	-1.500	0.800																			1580075578.0	11.92	22.08
26/01/2020 21:52:59	26012020	260120	215259	282.640	12.246078	-56.405507	282.720	-0.020	0.060	0.470	282.580	-1.300	0.800																			1580075579.0	11.82	21.89
26/01/2020 21:53:00	26012020	260120	215300	282.380	12.246090	-56.405562	282.480	-0.160	0.060	0.310	282.340	-1.400	0.700	1014.80	26.10	26.20	21.00	20.90	1.00	73.00	73.00	385.00	25.60	39.00	5.00	49.00	3.90	139	3685.00	27.60	27.60	1580075580.0	11.88	22.00
26/01/2020 21:53:01	26012020	260120	215301	282.250	12.246100	-56.405618	282.370	-0.180	-0.140	0.020	282.250	-1.600	0.400																			1580075581.0	12.05	22.32
26/01/2020 21:53:02	26012020	260120	215302	282.300	12.246110	-56.405675	282.450	-0.080	-0.440	-0.250	282.330	-1.900	0.100																			1580075582.0	12.20	22.59
26/01/2020 21:53:03	26012020	260120	215303	282.540	12.246120	-56.405732	282.720	0.100	-0.700	-0.430	282.600	-2.100	-0.100																			1580075583.0	12.27	22.72
26/01/2020 21:53:04	26012020	260120	215304	282.900	12.246130	-56.405788	283.100	0.280	-0.800	-0.450	282.980	-2.200	-0.100																			1580075584.0	12.29	22.76
26/01/2020 21:53:05	26012020	260120	215305	283.290	12.246142	-56.405845	283.480	0.350	-0.650	-0.260	283.360	-2.000	0.200																			1580075585.0	12.22	22.63
26/01/2020 21:53:06	26012020	260120	215306	283.580	12.246155	-56.405902	283.740	0.230	-0.300	0.030	283.580	-1.800	0.300																			1580075586.0	12.05	22.32
26/01/2020 21:53:07	26012020	260120	215307	283.610	12.246170	-56.405955	283.730	-0.050	0.100	0.260	283.600	-1.300	0.700																			1580075587.0	11.87	21.98
26/01/2020 21:53:08	26012020	260120	215308	283.430	12.246182	-56.406010	283.520	-0.350	0.290	0.320	283.390	-1.100	0.700																			1580075588.0	11.80	21.85
26/01/2020 21:53:09	26012020	260120	215309	283.150	12.246193	-56.406065	283.210	-0.460	0.140	0.180	283.090	-1.300	0.500																			1580075589.0	11.96	22.15
26/01/2020 21:53:10	26012020	260120	215310	282.820	12.246203	-56.406122	282.890	-0.350	-0.240	-0.030	282.760	-1.700	0.300																			1580075590.0	12.27	22.72
26/01/2020 21:53:11	26012020	260120	215311	282.500	12.246213	-56.406180	282.570	-0.110	-0.560	-0.160	282.440	-2.000	0.200																			1580075591.0	12.45	23.06
26/01/2020 21:53:12	26012020	260120	215312	282.250	12.246223	-56.406237	282.360	0.080	-0.640	-0.150	282.220	-2.000	0.200																			1580075592.0	12.37	22.91
26/01/2020 21:53:13	26012020	260120	215313	282.180	12.246235	-56.406293	282.320	0.160	-0.510	0.010	282.190	-1.900	0.400																			1580075593.0	12.12	22.45
26/01/2020 21:53:14	26012020	260120	215314	282.310	12.246247	-56.406348	282.460	0.180	-0.340	0.190	282.350	-1.700	0.600																			1580075594.0	11.95	22.13
26/01/2020 21:53:15	26012020	260120	215315	282.540	12.246260	-56.406403	282.720	0.200	-0.230	0.350	282.600	-1.600	0.700																			1580075595.0	11.98	22.19
26/01/2020 21:53:16	26012020	260120	215316	282.780	12.246273	-56.406458	282.950	0.140	-0.090	0.450	282.830	-1.500	0.800																			1580075596.0	12.04	22.30
26/01/2020 21:53:17	26012020	260120	215317	282.980	12.246287	-56.406515	283.140	-0.010	0.040	0.400	283.020	-1.400	0.800																			1580075597.0	11.98	22.19
26/01/2020 21:53:18	26012020	260120	215318	283.190	12.246297	-56.406570	283.360	-0.140	0.000	0.180	283.230	-1.400	0.500																			1580075598.0	11.87	21.98
26/01/2020 21:53:19	26012020	260120	215319	283.440	12.246307	-56.406625	283.610	-0.060	-0.330	-0.170	283.480	-1.800	0.200																			1580075599.0	12.01	22.24
26/01/2020 21:53:20	26012020	260120	215320	283.630	12.246317	-56.406683	283.780	0.200	-0.740	-0.420	283.650	-2.200	-0.100																			1580075600.0	12.37	22.91
26/01/2020 21:53:21	26012020	260120	215321	283.660	12.246328	-56.406742	283.770	0.380	-0.770	-0.320	283.650	-2.100	0.100																			1580075601.0	12.50	23.15
26/01/2020 21:53:22	26012020	260120	215322	283.490	12.246340	-56.406797	283.550	0.240	-0.300	0.020	283.430	-1.600	0.400																			1580075602.0	12.13	22.46
26/01/2020 21:53:23	26012020	260120	215323	283.150	12.246353	-56.406850	283.200	-0.160	0.240	0.310	283.080	-1.100	0.700																			1580075603.0	11.60	21.48
26/01/2020 21:53:24	26012020	260120	215324	282.780	12.246365	-56.406903	282.840	-0.460	0.340	0.320	282.710	-1.100	0.700																			1580075604.0	11.50	21.30
26/01/2020 21:53:25	26012020	260120	215325	282.520	12.246377	-56.406958	282.620	-0.400	-0.100	0.070	282.490	-1.600	0.400																			1580075605.0	11.95	22.13
26/01/2020 21:53:26	26012020	260120	215326	282.470	12.246387	-56.407017	282.600	-0.040	-0.710	-0.200	282.480	-2.200	0.200																			1580075606.0	12.51	23.17
26/01/2020 21:53:27	26012020	260120	215327	282.580	12.246398	-56.407075	282.720	0.280	-1.010	-0.350	282.610	-2.400	0.000																			1580075607.0	12.68	23.48
26/01/2020 21:53:28	26012020	260120	215328	282.800	12.246410	-56.407133	282.960	0.330	-0.860	-0.340	282.860	-2.200	0.000																			1580075608.0	12.39	22.95
26/01/2020 21:53:29	26012020	260120	215329	283.080	12.246422	-56.407188	283.240	0.150	-0.400	-0.180	283.130	-1.700	0.200																			1580075609.0	11.97	22.17
26/01/2020 21:53:30	26012020	260120	215330	283.320	12.246435	-56.407242	283.470	-0.120	0.040	-0.010	283.360	-1.300	0.400																			1580075610.0	11.73	21.72
26/01/2020 21:53:31	26012020	260120	215331	283.470	12.246447	-56.407297	283.600	-0.350	0.270	0.070	283.490	-1.100	0.400																			1580075611.0	11.75	21.76
26/01/2020 21:53:32	26012020	260120	215332	283.510	12.246458	-56.407352	283.630	-0.480	0.230	-0.010	283.510	-1.200	0.300																			1580075612.0	11.94	22.11
26/01/2020 21:53:33	26012020	260120	215333	283.460	12.246468	-56.407408	283.560	-0.430	0.010	-0.180	283.440	-1.400	0.200																			1580075613.0	12.13	22.46
26/01/2020 21:53:34	26012020	260120	215334	283.370	12.246477	-56.407465	283.480	-0.180	-0.280	-0.270	283.350	-1.700	0.100																			1580075614.0	12.23	22.65
26/01/2020 21:53:35	26012020	260120	215335	283.310	12.246488	-56.407522	283.420	0.270	-0.560	-0.190	283.300	-2.000	0.200																			1580075615.0	12.27	22.72
26/01/2020 21:53:36	26012020	260120	215336	283.270	12.246500	-56.407578	283.390	0.740	-0.710	0.060	283.260	-2.100	0.500																			1580075616.0	12.30	22.78
26/01/2020 21:53:37	26012020	260120	215337	283.200	12.246515	-56.407635	283.310	0.960	-0.590	0.300	283.170	-1.900	0.700																			1580075617.0	12.25	22.69
26/01/2020 21:53:38	26012020	260120	215338	283.050	12.246530	-56.407690	283.150	0.720	-0.190	0.360	283.000	-1.500	0.700																			1580075618.0	12.05	22.32
26/01/2020 21:53:39	26012020	260120	215339	282.800	12.246545	-56.407743	282.860	0.110	0.280	0.200	282.730	-1.100	0.500																			1580075619.0	11.71	21.69
26/01/2020 21:53:40	26012020	260120	215340	282.460	12.246555	-56.407797	282.520	-0.570	0.440	-0.130	282.390	-1.000	0.200																			1580075620.0	11.51	21.32
26/01/2020 21:53:41	26012020	260120	215341	282.150	12.246563	-56.407850	282.240	-0.970	0.090	-0.500	282.110	-1.400	-0.200																			1580075621.0	11.69	21.65
26/01/2020 21:53:42	26012020	260120	215342	282.020	12.246570	-56.407908	282.140	-0.870	-0.640	-0.740	282.020	-1.900	-0.300																			1580075622.0	12.14	22.48
26/01/2020 21:53:43	26012020	260120	215343	282.120	12.246578	-56.407967	282.290	-0.330	-1.350	-0.760	282.170	-2.800	-0.400																			1580075623.0	12.54	23.22
26/01/2020 21:53:44	26012020	260120	215344	282.440	12.246590	-56.408025	282.640	0.340	-1.590	-0.450	282.520	-3.000	-0.000																			1580075624.0	12.66	23.45
26/01/2020 21:53:45	26012020	260120	215345	282.860	12.246603	-56.408082	283.060	0.740	-1.130	0.020	282.930	-2.400	0.400																			1580075625.0	12.40	22.96
26/01/2020 21:53:46	26012020	260120	215346	283.220	12.246618	-56.408137	283.410	0.670	-0.180	0.430	283.280	-1.400	0.800																			1580075626.0	11.93	22.09
26/01/2020 21:53:47	26012020	260120	215347	283.390	12.246633	-56.408188	283.540	0.230	0.710	0.570	283.390	-0.600	0.900																			1580075627.0	11.53	21.35
26/01/2020 21:53:48	26012020	260120	215348	283.310	12.246648	-56.408242	283.420	-0.290	1.020	0.390	283.270	-0.400	0.700																			1580075628.0	11.55	21.39
26/01/2020 21:53:49	26012020	260120	215349	283.080	12.246658	-56.408297	283.170	-0.610	0.700	0.050	283.030	-0.800	0.400																			1580075629.0	12.03	22.28
26/01/2020 21:53:50	26012020	260120	215350	282.800	12.246667	-56.408355	282.870	-0.610	0.080	-0.270	282.740	-1.400	0.100																			1580075630.0	12.49	23.13
26/01/2020 21:53:51	26012020	260120	215351	282.450	12.246675	-56.408415	282.520	-0.350	-0.430	-0.300	282.380	-1.900	0.100																			1580075631.0	12.60	23.34
26/01/2020 21:53:52	26012020	260120	215352	282.080	12.246683	-56.408472	282.160	0.010	-0.640	0.010	282.020	-2.000	0.400																			1580075632.0	12.31	22.80
26/01/2020 21:53:53	26012020	260120	215353	281.800	12.246695	-56.408528	281.910	0.320	-0.640	0.430	281.760	-2.000	0.800																			1580075633.0	11.93	22.09
26/01/2020 21:53:54	26012020	260120	215354	281.710	12.246708	-56.408582	281.850	0.520	-0.620	0.680	281.710	-2.000	1.000																			1580075634.0	11.73	21.72
26/01/2020 21:53:55	26012020	260120	215355	281.800	12.246722	-56.408635	281.970	0.600	-0.660	0.640	281.840	-2.100	1.000																			1580075635.0	11.80	21.85
26/01/2020 21:53:56	26012020	260120	215356	282.040	12.246733	-56.408690	282.200	0.510	-0.650	0.400	282.040	-2.100	0.800																			1580075636.0	11.95	22.13
26/01/2020 21:53:57	26012020	260120	215357	282.330	12.246745	-56.408747	282.490	0.260	-0.510	0.160	282.390	-1.900	0.500																			1580075637.0	11.99	22.21
26/01/2020 21:53:58	26012020	260120	215358	282.620	12.246757	-56.408802	282.770	-0.080	-0.310	-0.030	282.670	-1.700	0.300																			1580075638.0	11.92	22.08
26/01/2020 21:53:59	26012020	260120	215359	282.880	12.246767	-56.408857	283.020	-0.360	-0.150	-0.220	282.930	-1.500	0.100	1014.80	26.10	26.20	21.00	20.90	1.00	73.00	73.00	385.00	25.60	37.00	5.10	48.00	3.70	117	3608.00	27.60	27.60	1580075639.0	11.93	22.09
26/01/2020 21:54:00	26012020	260120	215400	283.110	12.246777	-56.408913	283.240	-0.470	-0.110	-0.390	283.140	-1.500	-0.000																			1580075640.0	12.06	22.34
26/01/2020 21:54:01	26012020	260120	215401	283.220	12.246785	-56.408970	283.330	-0.400	-0.100	-0.370	283.220	-1.500	0.000																			1580075641.0	12.21	22.61
26/01/2020 21:54:02	26012020	260120	215402	283.140	12.246795	-56.409027	283.220	-0.240	-0.020	-0.090	283.100	-1.400	0.300																			1580075642.0	12.25	22.69
26/01/2020 21:54:03	26012020	260120	215403	282.890	12.246807	-56.409083	282.970	-0.090	0.130	0.300	282.830	-1.300	0.700																			1580075643.0	12.11	22.43
26/01/2020 21:54:04	26012020	260120	215404	282.580	12.246818	-56.409138	282.670	0.060	0.170	0.540	282.520	-1.200	0.900																			1580075644.0	11.93	22.09
26/01/2020 21:54:05	26012020	260120	215405	282.310	12.246830	-56.409193	282.390	0.220	-0.020	0.450	282.260	-1.500	0.800																			1580075645.0	11.91	22.06
26/01/2020 21:54:06	26012020	260120	215406	282.170	12.246842	-56.409248	282.290	0.360	-0.410	0.080	282.160	-1.900	0.400																			1580075646.0	12.04	22.30
26/01/2020 21:54:07	26012020	260120	215407	282.220	12.246853	-56.409305	282.350	0.380	-0.800	-0.340	282.250	-2.200	-0.000																			1580075647.0	12.14	22.48
26/01/2020 21:54:08	26012020	260120	215408	282.430	12.246863	-56.409362	282.570	0.230	-1.030	-0.640	282.480	-2.400	-0.300																			1580075648.0	12.14	22.48
26/01/2020 21:54:09	26012020	260120	215409	282.720	12.246873	-56.409418	282.870	-0.030	-0.960	-0.740	282.780	-2.300	-0.400																			1580075649.0	12.07	22.35
26/01/2020 21:54:10	26012020	260120	215410	283.000	12.246885	-56.409473	283.140	-0.320	-0.600	-0.640	283.050	-1.900	-0.300																			1580075650.0	11.91	22.06
26/01/2020 21:54:11	26012020	260120	215411	283.210	12.246895	-56.409527	283.360	-0.540	-0.150	-0.480	283.250	-1.500	-0.100																			1580075651.0	11.77	21.80
26/01/2020 21:54:12	26012020	260120	215412	283.350	12.246905	-56.409582	283.490	-0.610	0.150	-0.330	283.370	-1.200	0.100																			1580075652.0	11.81	21.87
26/01/2020 21:54:13	26012020	260120	215413	283.400	12.246915	-56.409638	283.530	-0.480	0.220	-0.210	283.390	-1.200	0.200																			1580075653.0	12.04	22.30
26/01/2020 21:54:14	26012020	260120	215414	283.330	12.246925	-56.409695	283.430	-0.140	0.200	-0.080	283.300	-1.200	0.300																			1580075654.0	12.24	22.67
26/01/2020 21:54:15	26012020	260120	215415	283.130	12.246937	-56.409752	283.220	0.300	0.170	0.170	283.080	-1.200	0.600																			1580075655.0	12.24	22.67
26/01/2020 21:54:16	26012020	260120	215416	282.830	12.246950	-56.409808	282.910	0.720	0.050	0.480	282.760	-1.400	0.900																			1580075656.0	12.13	22.46
26/01/2020 21:54:17	26012020	260120	215417	282.460	12.246965	-56.409863	282.540	0.920	-0.170	0.620	282.380	-1.600	1.000																			1580075657.0	12.09	22.39
26/01/2020 21:54:18	26012020	260120	215418	282.110	12.246978	-56.409918	282.210	0.770	-0.380	0.380	282.060	-1.800	0.700																			1580075658.0	12.08	22.37
26/01/2020 21:54:19	26012020	260120	215419	281.970	12.246992	-56.409973	282.100	0.300	-0.490	-0.200	281.980	-1.900	0.100																			1580075659.0	11.92	22.08
26/01/2020 21:54:20	26012020	260120	215420	282.100	12.247000	-56.410028	282.250	-0.290	-0.520	-0.890	282.100	-1.900	-0.400																			1580075660.0	11.73	21.72
26/01/2020 21:54:21	26012020	260120	215421	282.430	12.247007	-56.410082	282.580	-0.760	-0.590	-1.380	282.500	-2.000	-1.000																			1580075661.0	11.65	21.58
26/01/2020 21:54:22	26012020	260120	215422	282.860	12.247013	-56.410138	283.030	-0.880	-0.790	-1.520	282.950	-2.200	-1.100																			1580075662.0	11.80	21.85
26/01/2020 21:54:23	26012020	260120	215423	283.360	12.247022	-56.410195	283.550	-0.620	-1.000	-1.280	283.450	-2.400	-0.900																			1580075663.0	12.09	22.39
26/01/2020 21:54:24	26012020	260120	215424	283.810	12.247032	-56.410252	283.990	-0.160	-1.020	-0.780	283.880	-2.400	-0.300																			1580075664.0	12.28	22.74
26/01/2020 21:54:25	26012020	260120	215425	284.080	12.247045	-56.410308	284.210	0.270	-0.690	-0.090	284.090	-2.000	0.400																			1580075665.0	12.27	22.72
26/01/2020 21:54:26	26012020	260120	215426	284.050	12.247060	-56.410363	284.150	0.460	-0.130	0.520	284.020	-1.500	0.900																			1580075666.0	12.10	22.41
26/01/2020 21:54:27	26012020	260120	215427	283.820	12.247075	-56.410417	283.900	0.360	0.400	0.760	283.760	-0.900	1.100																			1580075667.0	11.95	22.13
26/01/2020 21:54:28	26012020	260120	215428	283.480	12.247090	-56.410472	283.540	0.060	0.670	0.570	283.410	-0.700	0.900																			1580075668.0	11.95	22.13
26/01/2020 21:54:29	26012020	260120	215429	283.100	12.247102	-56.410528	283.150	-0.270	0.610	0.140	283.030	-0.800	0.400																			1580075669.0	12.08	22.37
26/01/2020 21:54:30	26012020	260120	215430	282.790	12.247112	-56.410585	282.860	-0.450	0.290	-0.350	282.750	-1.200	-0.000																			1580075670.0	12.23	22.65
26/01/2020 21:54:31	26012020	260120	215431	282.660	12.247120	-56.410642	282.760	-0.380	-0.110	-0.700	282.660	-1.600	-0.400																			1580075671.0	12.28	22.74
26/01/2020 21:54:32	26012020	260120	215432	282.780	12.247130	-56.410698	282.930	-0.100	-0.450	-0.770	282.820	-1.900	-0.400																			1580075672.0	12.22	22.63
26/01/2020 21:54:33	26012020	260120	215433	283.040	12.247140	-56.410755	283.200	0.230	-0.600	-0.510	283.090	-2.000	-0.100																			1580075673.0	12.03	22.28
26/01/2020 21:54:34	26012020	260120	215434	283.260	12.247153	-56.410810	283.400	0.450	-0.590	-0.080	283.270	-2.000	0.300																			1580075674.0	11.85	21.95
26/01/2020 21:54:35	26012020	260120	215435	283.290	12.247167	-56.410863	283.420	0.490	-0.450	0.340	283.280	-1.800	0.700																			1580075675.0	11.66	21.59
26/01/2020 21:54:36	26012020	260120	215436	283.230	12.247182	-56.410915	283.370	0.430	-0.390	0.540	283.220	-1.800	0.900																			1580075676.0	11.55	21.39
26/01/2020 21:54:37	26012020	260120	215437	283.240	12.247193	-56.410968	283.410	0.340	-0.550	0.390	283.260	-2.000	0.700																			1580075677.0	11.64	21.56
26/01/2020 21:54:38	26012020	260120	215438	283.380	12.247207	-56.411023	283.560	0.260	-0.840	0.070	283.420	-2.300	0.400																			1580075678.0	11.96	22.15
26/01/2020 21:54:39	26012020	260120	215439	283.580	12.247217	-56.411080	283.740	0.110	-0.940	-0.240	283.610	-2.300	0.100																			1580075679.0	12.25	22.69
26/01/2020 21:54:40	26012020	260120	215440	283.690	12.247228	-56.411137	283.810	-0.190	-0.620	-0.410	283.690	-2.000	-0.100																			1580075680.0	12.23	22.65
26/01/2020 21:54:41	26012020	260120	215441	283.660	12.247238	-56.411193	283.760	-0.600	-0.030	-0.380	283.640	-1.400	0.000																			1580075681.0	11.92	22.08
26/01/2020 21:54:42	26012020	260120	215442	283.560	12.247248	-56.411247	283.670	-0.880	0.400	-0.160	283.540	-1.000	0.200																			1580075682.0	11.72	21.71
26/01/2020 21:54:43	26012020	260120	215443	283.460	12.247260	-56.411303	283.570	-0.800	0.340	0.090	283.440	-1.100	0.500																			1580075683.0	11.92	22.08
26/01/2020 21:54:44	26012020	260120	215444	283.350	12.247272	-56.411360	283.460	-0.330	-0.090	0.260	283.350	-1.400	0.600																			1580075684.0	12.41	22.98
26/01/2020 21:54:45	26012020	260120	215445	283.250	12.247283	-56.411418	283.360	0.330	-0.470	0.300	283.220	-1.900	0.700																			1580075685.0	12.75	23.61
26/01/2020 21:54:46	26012020	260120	215446	283.170	12.247297	-56.411477	283.300	0.780	-0.460	0.250	283.170	-1.900	0.600																			1580075686.0	12.63	23.39
26/01/2020 21:54:47	26012020	260120	215447	283.110	12.247310	-56.411533	283.220	0.770	-0.060	0.140	283.100	-1.400	0.500																			1580075687.0	12.12	22.45
26/01/2020 21:54:48	26012020	260120	215448	283.020	12.247322	-56.411587	283.110	0.370	0.330	-0.020	282.990	-1.000	0.300																			1580075688.0	11.56	21.41
26/01/2020 21:54:49	26012020	260120	215449	282.890	12.247335	-56.411638	282.990	-0.150	0.380	-0.290	282.870	-1.000	0.000																			1580075689.0	11.38	21.08
26/01/2020 21:54:50	26012020	260120	215450	282.850	12.247345	-56.411692	282.980	-0.500	-0.010	-0.660	282.860	-1.500	-0.300																			1580075690.0	11.62	21.52
26/01/2020 21:54:51	26012020	260120	215451	282.990	12.247353	-56.411748	283.130	-0.560	-0.630	-0.900	283.030	-2.100	-0.500																			1580075691.0	12.00	22.22
26/01/2020 21:54:52	26012020	260120	215452	283.260	12.247362	-56.411805	283.420	-0.330	-1.060	-0.830	283.320	-2.500	-0.400																			1580075692.0	12.24	22.67
26/01/2020 21:54:53	26012020	260120	215453	283.560	12.247372	-56.411862	283.740	0.030	-1.050	-0.470	283.610	-2.400	-0.100																			1580075693.0	12.13	22.46
26/01/2020 21:54:54	26012020	260120	215454	283.780	12.247385	-56.411917	283.940	0.380	-0.720	0.020	283.810	-2.100	0.400																			1580075694.0	11.81	21.87
26/01/2020 21:54:55	26012020	260120	215455	283.830	12.247398	-56.411970	283.960	0.640	-0.350	0.500	283.820	-1.700	0.900																			1580075695.0	11.70	21.67
26/01/2020 21:54:56	26012020	260120	215456	283.710	12.247413	-56.412023	283.810	0.700	-0.100	0.780	283.670	-1.500	1.200																			1580075696.0	11.83	21.91
26/01/2020 21:54:57	26012020	260120	215457	283.500	12.247428	-56.412078	283.590	0.530	0.050	0.700	283.450	-1.300	1.000																			1580075697.0	12.00	22.22
26/01/2020 21:54:58	26012020	260120	215458	283.280	12.247442	-56.412133	283.390	0.160	0.110	0.320	283.250	-1.300	0.600																			1580075698.0	12.05	22.32
26/01/2020 21:54:59	26012020	260120	215459	283.120	12.247453	-56.412190	283.210	-0.260	0.030	-0.180	283.100	-1.400	0.100																			1580075699.0	12.01	22.24
26/01/2020 21:55:00	26012020	260120	215500	283.000	12.247463	-56.412245	283.110	-0.580	-0.210	-0.640	282.990	-1.600	-0.300	1014.80	26.10	26.10	20.80	20.80	1.00	72.00	72.00	384.00	25.60	37.00	5.10	48.00	3.70	99	3722.00	27.60	27.60	1580075700.0	12.06	22.34
26/01/2020 21:55:01	26012020	260120	215501	283.000	12.247472	-56.412302	283.130	-0.730	-0.500	-0.960	283.030	-1.900	-0.600																			1580075701.0	12.15	22.50
26/01/2020 21:55:02	26012020	260120	215502	283.180	12.247480	-56.412360	283.340	-0.690	-0.710	-1.050	283.230	-2.100	-0.700																			1580075702.0	12.23	22.65
26/01/2020 21:55:03	26012020	260120	215503	283.470	12.247490	-56.412417	283.650	-0.470	-0.720	-0.770	283.530	-2.100	-0.300																			1580075703.0	12.18	22.56
26/01/2020 21:55:04	26012020	260120	215504	283.730	12.247500	-56.412472	283.900	-0.110	-0.520	-0.270	283.770	-1.900	0.200																			1580075704.0	12.05	22.32
26/01/2020 21:55:05	26012020	260120	215505	283.860	12.247513	-56.412527	284.010	0.270	-0.220	0.270	283.870	-1.600	0.700																			1580075705.0	11.94	22.11
26/01/2020 21:55:06	26012020	260120	215506	283.810	12.247527	-56.412582	283.930	0.490	0.100	0.700	283.770	-1.300	1.100																			1580075706.0	11.91	22.06
26/01/2020 21:55:07	26012020	260120	215507	283.530	12.247542	-56.412635	283.600	0.450	0.390	0.920	283.450	-1.000	1.300																			1580075707.0	11.85	21.95
26/01/2020 21:55:08	26012020	260120	215508	283.090	12.247557	-56.412688	283.140	0.180	0.470	0.840	282.990	-1.000	1.200																			1580075708.0	11.73	21.72
26/01/2020 21:55:09	26012020	260120	215509	282.660	12.247568	-56.412743	282.740	-0.100	0.190	0.470	282.600	-1.300	0.800																			1580075709.0	11.77	21.80
26/01/2020 21:55:10	26012020	260120	215510	282.420	12.247578	-56.412798	282.510	-0.180	-0.360	-0.010	282.390	-1.800	0.300																			1580075710.0	11.98	22.19
26/01/2020 21:55:11	26012020	260120	215511	282.420	12.247588	-56.412857	282.550	0.010	-0.910	-0.350	282.450	-2.400	0.000																			1580075711.0	12.20	22.59
26/01/2020 21:55:12	26012020	260120	215512	282.670	12.247598	-56.412913	282.830	0.350	-1.180	-0.440	282.740	-2.600	-0.100																			1580075712.0	12.24	22.67
26/01/2020 21:55:13	26012020	260120	215513	283.020	12.247610	-56.412968	283.200	0.590	-1.060	-0.280	283.090	-2.400	0.100																			1580075713.0	12.12	22.45
26/01/2020 21:55:14	26012020	260120	215514	283.320	12.247623	-56.413023	283.470	0.540	-0.620	0.030	283.360	-2.000	0.400																			1580075714.0	11.92	22.08
26/01/2020 21:55:15	26012020	260120	215515	283.460	12.247638	-56.413077	283.590	0.220	-0.080	0.260	283.470	-1.400	0.600																			1580075715.0	11.75	21.76
26/01/2020 21:55:16	26012020	260120	215516	283.410	12.247652	-56.413132	283.520	-0.240	0.310	0.290	283.380	-1.100	0.600																			1580075716.0	11.71	21.69
26/01/2020 21:55:17	26012020	260120	215517	283.200	12.247663	-56.413185	283.290	-0.680	0.410	0.080	283.140	-1.000	0.400																			1580075717.0	11.83	21.91
26/01/2020 21:55:18	26012020	260120	215518	282.930	12.247672	-56.413242	283.010	-0.910	0.170	-0.270	282.880	-1.300	0.100																			1580075718.0	12.04	22.30
26/01/2020 21:55:19	26012020	260120	215519	282.720	12.247678	-56.413300	282.820	-0.840	-0.250	-0.520	282.700	-1.700	-0.200																			1580075719.0	12.25	22.69
26/01/2020 21:55:20	26012020	260120	215520	282.650	12.247687	-56.413357	282.770	-0.490	-0.680	-0.490	282.650	-2.100	-0.100																			1580075720.0	12.35	22.87
26/01/2020 21:55:21	26012020	260120	215521	282.690	12.247697	-56.413415	282.830	-0.020	-0.900	-0.220	282.710	-2.300	0.200																			1580075721.0	12.31	22.80
26/01/2020 21:55:22	26012020	260120	215522	282.790	12.247708	-56.413472	282.920	0.350	-0.810	0.130	282.790	-2.300	0.400																			1580075722.0	12.18	22.56
26/01/2020 21:55:23	26012020	260120	215523	282.840	12.247722	-56.413525	282.980	0.480	-0.400	0.500	282.840	-1.700	0.900																			1580075723.0	11.95	22.13
26/01/2020 21:55:24	26012020	260120	215524	282.840	12.247735	-56.413578	282.970	0.430	0.090	0.750	282.840	-1.300	1.100																			1580075724.0	11.70	21.67
26/01/2020 21:55:25	26012020	260120	215525	282.870	12.247750	-56.413632	283.010	0.340	0.360	0.760	282.880	-1.000	1.100																			1580075725.0	11.65	21.58
26/01/2020 21:55:26	26012020	260120	215526	282.950	12.247763	-56.413687	283.090	0.310	0.290	0.540	282.970	-1.100	0.900																			1580075726.0	11.84	21.93
26/01/2020 21:55:27	26012020	260120	215527	283.020	12.247775	-56.413743	283.140	0.290	0.030	0.250	283.030	-1.400	0.600																			1580075727.0	12.15	22.50
26/01/2020 21:55:28	26012020	260120	215528	283.020	12.247788	-56.413800	283.130	0.180	-0.170	-0.010	283.010	-1.600	0.300																			1580075728.0	12.25	22.69
26/01/2020 21:55:29	26012020	260120	215529	282.920	12.247798	-56.413855	283.010	-0.020	-0.270	-0.240	282.890	-1.700	0.100																			1580075729.0	12.09	22.39
26/01/2020 21:55:30	26012020	260120	215530	282.760	12.247808	-56.413910	282.850	-0.220	-0.390	-0.470	282.740	-1.800	-0.100																			1580075730.0	11.90	22.04
26/01/2020 21:55:31	26012020	260120	215531	282.660	12.247818	-56.413967	282.770	-0.280	-0.620	-0.580	282.650	-2.100	-0.200																			1580075731.0	11.87	21.98
26/01/2020 21:55:32	26012020	260120	215532	282.650	12.247827	-56.414022	282.780	-0.200	-0.880	-0.470	282.660	-2.300	-0.100																			1580075732.0	12.01	22.24
26/01/2020 21:55:33	26012020	260120	215533	282.750	12.247837	-56.414078	282.900	-0.080	-0.990	-0.220	282.770	-2.400	0.200																			1580075733.0	12.12	22.45
26/01/2020 21:55:34	26012020	260120	215534	282.920	12.247848	-56.414135	283.080	-0.060	-0.810	-0.020	282.920	-2.300	0.300																			1580075734.0	12.09	22.39
26/01/2020 21:55:35	26012020	260120	215535	283.140	12.247860	-56.414190	283.310	-0.170	-0.430	0.020	283.180	-1.800	0.400																			1580075735.0	11.93	22.09
26/01/2020 21:55:36	26012020	260120	215536	283.340	12.247872	-56.414243	283.500	-0.330	-0.040	-0.070	283.340	-1.500	0.300																			1580075736.0	11.83	21.91
26/01/2020 21:55:37	26012020	260120	215537	283.500	12.247882	-56.414300	283.660	-0.380	0.160	-0.230	283.530	-1.200	0.100																			1580075737.0	11.92	22.08
26/01/2020 21:55:38	26012020	260120	215538	283.580	12.247892	-56.414357	283.720	-0.260	0.140	-0.340	283.590	-1.300	0.000																			1580075738.0	12.18	22.56
26/01/2020 21:55:39	26012020	260120	215539	283.550	12.247903	-56.414413	283.650	-0.000	0.070	-0.250	283.520	-1.300	0.200																			1580075739.0	12.38	22.93
26/01/2020 21:55:40	26012020	260120	215540	283.360	12.247915	-56.414470	283.440	0.260	0.130	0.110	283.310	-1.300	0.500																			1580075740.0	12.32	22.82
26/01/2020 21:55:41	26012020	260120	215541	283.060	12.247928	-56.414527	283.150	0.420	0.220	0.490	282.990	-1.200	0.900																			1580075741.0	12.04	22.30
26/01/2020 21:55:42	26012020	260120	215542	282.740	12.247943	-56.414580	282.820	0.440	0.150	0.620	282.680	-1.300	1.000																			1580075742.0	11.85	21.95
26/01/2020 21:55:43	26012020	260120	215543	282.490	12.247958	-56.414633	282.590	0.340	-0.160	0.390	282.460	-1.600	0.700																			1580075743.0	11.84	21.93
26/01/2020 21:55:44	26012020	260120	215544	282.400	12.247970	-56.414690	282.510	0.190	-0.600	-0.000	282.400	-2.000	0.300																			1580075744.0	11.97	22.17
26/01/2020 21:55:45	26012020	260120	215545	282.450	12.247980	-56.414745	282.580	0.050	-0.930	-0.380	282.490	-2.400	-0.000																			1580075745.0	12.06	22.34
26/01/2020 21:55:46	26012020	260120	215546	282.640	12.247990	-56.414802	282.790	-0.060	-1.010	-0.630	282.700	-2.400	-0.300																			1580075746.0	12.01	22.24
26/01/2020 21:55:47	26012020	260120	215547	282.920	12.248000	-56.414857	283.070	-0.110	-0.880	-0.650	282.980	-2.300	-0.300																			1580075747.0	11.90	22.04
26/01/2020 21:55:48	26012020	260120	215548	283.220	12.248010	-56.414912	283.370	-0.090	-0.660	-0.430	283.270	-2.000	-0.000																			1580075748.0	11.89	22.02
26/01/2020 21:55:49	26012020	260120	215549	283.480	12.248022	-56.414967	283.620	-0.060	-0.420	-0.130	283.520	-1.800	0.300																			1580075749.0	12.00	22.22
26/01/2020 21:55:50	26012020	260120	215550	283.620	12.248035	-56.415023	283.750	-0.090	-0.110	0.090	283.620	-1.600	0.400																			1580075750.0	12.11	22.43
26/01/2020 21:55:51	26012020	260120	215551	283.620	12.248047	-56.415078	283.730	-0.210	0.230	0.160	283.600	-1.100	0.500																			1580075751.0	12.10	22.41
26/01/2020 21:55:52	26012020	260120	215552	283.490	12.248058	-56.415135	283.590	-0.390	0.420	0.060	283.450	-1.000	0.400																			1580075752.0	12.00	22.22
26/01/2020 21:55:53	26012020	260120	215553	283.280	12.248068	-56.415190	283.380	-0.490	0.290	-0.150	283.230	-1.200	0.200																			1580075753.0	12.04	22.30
26/01/2020 21:55:54	26012020	260120	215554	283.070	12.248078	-56.415247	283.170	-0.370	-0.050	-0.300	283.030	-1.500	0.100																			1580075754.0	12.21	22.61
26/01/2020 21:55:55	26012020	260120	215555	282.910	12.248088	-56.415305	283.010	-0.000	-0.440	-0.290	282.880	-1.900	0.100																			1580075755.0	12.28	22.74
26/01/2020 21:55:56	26012020	260120	215556	282.810	12.248100	-56.415362	282.940	0.440	-0.690	-0.060	282.800	-2.100	0.400																			1580075756.0	12.25	22.69
26/01/2020 21:55:57	26012020	260120	215557	282.750	12.248113	-56.415417	282.880	0.700	-0.680	0.340	282.740	-2.100	0.800																			1580075757.0	12.15	22.50
26/01/2020 21:55:58	26012020	260120	215558	282.690	12.248128	-56.415472	282.800	0.630	-0.450	0.670	282.690	-1.900	1.000																			1580075758.0	11.97	22.17
26/01/2020 21:55:59	26012020	260120	215559	282.610	12.248145	-56.415525	282.720	0.330	-0.190	0.720	282.600	-1.600	1.100																			1580075759.0	11.80	21.85
26/01/2020 21:56:00	26012020	260120	215600	282.570	12.248158	-56.415578	282.690	-0.010	-0.010	0.460	282.570	-1.500	0.900	1014.80	26.10	26.10	20.80	20.80	1.00	72.00	72.00	383.00	25.60	39.00	4.50	56.00	3.90	83	3732.00	27.60	27.60	1580075760.0	11.81	21.87
26/01/2020 21:56:01	26012020	260120	215601	282.610	12.248168	-56.415633	282.730	-0.270	0.070	0.060	282.630	-1.300	0.400																			1580075761.0	11.87	21.98
26/01/2020 21:56:02	26012020	260120	215602	282.730	12.248177	-56.415690	282.860	-0.350	-0.030	-0.270	282.750	-1.500	0.100																			1580075762.0	11.93	22.09
26/01/2020 21:56:03	26012020	260120	215603	282.870	12.248187	-56.415747	283.000	-0.220	-0.360	-0.380	282.890	-1.800	0.000																			1580075763.0	12.06	22.34
26/01/2020 21:56:04	26012020	260120	215604	283.030	12.248197	-56.415803	283.170	0.040	-0.780	-0.290	283.060	-2.200	0.100																			1580075764.0	12.30	22.78
26/01/2020 21:56:05	26012020	260120	215605	283.200	12.248207	-56.415862	283.350	0.260	-0.970	-0.100	283.230	-2.400	0.300																			1580075765.0	12.43	23.02
26/01/2020 21:56:06	26012020	260120	215606	283.330	12.248220	-56.415918	283.470	0.260	-0.690	0.140	283.340	-2.000	0.500																			1580075766.0	12.26	22.71
26/01/2020 21:56:07	26012020	260120	215607	283.310	12.248232	-56.415972	283.410	0.020	-0.060	0.330	283.270	-1.400	0.700																			1580075767.0	11.83	21.91
26/01/2020 21:56:08	26012020	260120	215608	283.090	12.248245	-56.416025	283.170	-0.350	0.420	0.340	283.030	-1.000	0.700																			1580075768.0	11.48	21.26
26/01/2020 21:56:09	26012020	260120	215609	282.860	12.248255	-56.416078	282.960	-0.590	0.320	0.130	282.820	-1.100	0.500																			1580075769.0	11.61	21.50
26/01/2020 21:56:10	26012020	260120	215610	282.770	12.248265	-56.416135	282.900	-0.510	-0.290	-0.230	282.780	-1.800	0.100																			1580075770.0	12.21	22.61
26/01/2020 21:56:11	26012020	260120	215611	282.830	12.248273	-56.416195	282.970	-0.100	-0.860	-0.480	282.860	-2.300	-0.100																			1580075771.0	12.74	23.59
26/01/2020 21:56:12	26012020	260120	215612	282.960	12.248283	-56.416255	283.090	0.360	-0.900	-0.420	282.960	-2.300	-0.100																			1580075772.0	12.73	23.58
26/01/2020 21:56:13	26012020	260120	215613	283.050	12.248297	-56.416310	283.180	0.570	-0.370	0.020	283.050	-1.700	0.500																			1580075773.0	12.23	22.65
26/01/2020 21:56:14	26012020	260120	215614	283.020	12.248312	-56.416363	283.120	0.390	0.340	0.530	283.000	-1.000	0.900																			1580075774.0	11.66	21.59
26/01/2020 21:56:15	26012020	260120	215615	282.880	12.248327	-56.416415	282.970	0.010	0.680	0.710	282.840	-0.700	1.100																			1580075775.0	11.40	21.11
26/01/2020 21:56:16	26012020	260120	215616	282.730	12.248340	-56.416468	282.830	-0.250	0.390	0.430	282.710	-1.100	0.700																			1580075776.0	11.61	21.50
26/01/2020 21:56:17	26012020	260120	215617	282.690	12.248352	-56.416525	282.810	-0.160	-0.410	-0.040	282.710	-1.900	0.300																			1580075777.0	12.13	22.46
26/01/2020 21:56:18	26012020	260120	215618	282.810	12.248360	-56.416583	282.940	0.210	-1.170	-0.380	282.850	-2.600	-0.000																			1580075778.0	12.64	23.41
26/01/2020 21:56:19	26012020	260120	215619	282.970	12.248370	-56.416643	283.090	0.500	-1.280	-0.360	282.990	-2.600	0.000																			1580075779.0	12.64	23.41
26/01/2020 21:56:20	26012020	260120	215620	282.980	12.248382	-56.416698	283.080	0.400	-0.640	-0.100	282.960	-1.900	0.300																			1580075780.0	12.04	22.30
26/01/2020 21:56:21	26012020	260120	215621	282.830	12.248393	-56.416750	282.910	-0.050	0.170	0.160	282.780	-1.200	0.500																			1580075781.0	11.34	21.00
26/01/2020 21:56:22	26012020	260120	215622	282.610	12.248405	-56.416802	282.690	-0.550	0.490	0.200	282.580	-0.900	0.500																			1580075782.0	11.20	20.74
26/01/2020 21:56:23	26012020	260120	215623	282.510	12.248417	-56.416857	282.620	-0.750	0.090	-0.060	282.520	-1.400	0.300																			1580075783.0	11.72	21.71
26/01/2020 21:56:24	26012020	260120	215624	282.620	12.248425	-56.416915	282.750	-0.530	-0.640	-0.360	282.620	-1.900	0.100																			1580075784.0	12.46	23.08
26/01/2020 21:56:25	26012020	260120	215625	282.850	12.248435	-56.416975	282.990	-0.090	-1.090	-0.480	282.890	-2.500	-0.100																			1580075785.0	12.85	23.80
26/01/2020 21:56:26	26012020	260120	215626	283.050	12.248447	-56.417033	283.170	0.270	-0.870	-0.280	283.050	-2.400	0.000																			1580075786.0	12.61	23.35
26/01/2020 21:56:27	26012020	260120	215627	283.110	12.248458	-56.417088	283.210	0.360	-0.190	0.150	283.100	-1.500	0.600																			1580075787.0	11.99	22.21
26/01/2020 21:56:28	26012020	260120	215628	283.040	12.248473	-56.417142	283.140	0.220	0.430	0.530	283.020	-0.900	0.900																			1580075788.0	11.55	21.39
26/01/2020 21:56:29	26012020	260120	215629	282.920	12.248487	-56.417193	283.000	0.050	0.640	0.670	282.880	-0.800	1.000																			1580075789.0	11.54	21.37
26/01/2020 21:56:30	26012020	260120	215630	282.750	12.248498	-56.417248	282.830	-0.010	0.410	0.520	282.710	-1.000	0.900																			1580075790.0	11.82	21.89
26/01/2020 21:56:31	26012020	260120	215631	282.590	12.248510	-56.417305	282.690	0.080	-0.090	0.240	282.570	-1.600	0.600																			1580075791.0	12.09	22.39
26/01/2020 21:56:32	26012020	260120	215632	282.510	12.248520	-56.417362	282.610	0.210	-0.650	-0.030	282.510	-2.100	0.300																			1580075792.0	12.24	22.67
26/01/2020 21:56:33	26012020	260120	215633	282.520	12.248532	-56.417418	282.620	0.250	-0.980	-0.140	282.520	-2.400	0.200																			1580075793.0	12.25	22.69
26/01/2020 21:56:34	26012020	260120	215634	282.540	12.248543	-56.417475	282.650	0.170	-0.950	-0.040	282.540	-2.300	0.400																			1580075794.0	12.08	22.37
26/01/2020 21:56:35	26012020	260120	215635	282.530	12.248555	-56.417528	282.620	0.010	-0.700	0.150	282.520	-2.100	0.500																			1580075795.0	11.83	21.91
26/01/2020 21:56:36	26012020	260120	215636	282.510	12.248567	-56.417583	282.610	-0.120	-0.450	0.230	282.510	-1.800	0.600																			1580075796.0	11.78	21.82
26/01/2020 21:56:37	26012020	260120	215637	282.560	12.248578	-56.417638	282.670	-0.200	-0.290	0.070	282.590	-1.700	0.400																			1580075797.0	11.96	22.15
26/01/2020 21:56:38	26012020	260120	215638	282.670	12.248588	-56.417695	282.770	-0.250	-0.070	-0.170	282.690	-1.400	0.200																			1580075798.0	12.15	22.50
26/01/2020 21:56:39	26012020	260120	215639	282.740	12.248598	-56.417752	282.820	-0.320	0.250	-0.310	282.750	-1.100	0.100																			1580075799.0	12.08	22.37
26/01/2020 21:56:40	26012020	260120	215640	282.770	12.248608	-56.417807	282.850	-0.390	0.420	-0.310	282.770	-1.000	0.100																			1580075800.0	11.86	21.96
26/01/2020 21:56:41	26012020	260120	215641	282.800	12.248618	-56.417862	282.890	-0.340	0.200	-0.240	282.810	-1.300	0.100																			1580075801.0	11.88	22.00
26/01/2020 21:56:42	26012020	260120	215642	282.890	12.248630	-56.417918	283.000	-0.090	-0.310	-0.120	282.920	-1.800	0.300																			1580075802.0	12.15	22.50
26/01/2020 21:56:43	26012020	260120	215643	283.040	12.248642	-56.417975	283.160	0.300	-0.780	0.090	283.060	-2.200	0.500																			1580075803.0	12.41	22.98
26/01/2020 21:56:44	26012020	260120	215644	283.130	12.248655	-56.418032	283.230	0.630	-0.910	0.380	283.130	-2.300	0.800																			1580075804.0	12.39	22.95
26/01/2020 21:56:45	26012020	260120	215645	283.060	12.248668	-56.418088	283.140	0.690	-0.650	0.610	283.030	-2.000	1.000																			1580075805.0	12.11	22.43
26/01/2020 21:56:46	26012020	260120	215646	282.820	12.248682	-56.418142	282.870	0.440	-0.230	0.630	282.750	-1.600	1.000																			1580075806.0	11.79	21.84
26/01/2020 21:56:47	26012020	260120	215647	282.420	12.248693	-56.418195	282.450	0.050	0.070	0.440	282.330	-1.300	0.800																			1580075807.0	11.67	21.61
26/01/2020 21:56:48	26012020	260120	215648	282.000	12.248703	-56.418250	282.030	-0.280	0.110	0.170	281.930	-1.300	0.500																			1580075808.0	11.80	21.85
26/01/2020 21:56:49	26012020	260120	215649	281.700	12.248713	-56.418307	281.740	-0.430	-0.040	-0.060	281.660	-1.500	0.300																			1580075809.0	12.01	22.24
26/01/2020 21:56:50	26012020	260120	215650	281.640	12.248723	-56.418363	281.720	-0.410	-0.330	-0.330	281.640	-1.600	0.100																			1580075810.0	12.14	22.48
26/01/2020 21:56:51	26012020	260120	215651	281.890	12.248733	-56.418420	282.010	-0.250	-0.660	-0.590	281.970	-2.100	-0.200																			1580075811.0	12.26	22.71
26/01/2020 21:56:52	26012020	260120	215652	282.370	12.248743	-56.418478	282.520	-0.010	-0.850	-0.700	282.470	-2.200	-0.300																			1580075812.0	12.37	22.91
26/01/2020 21:56:53	26012020	260120	215653	282.880	12.248755	-56.418535	283.020	0.150	-0.660	-0.460	282.970	-2.000	-0.000																			1580075813.0	12.34	22.85
26/01/2020 21:56:54	26012020	260120	215654	283.220	12.248767	-56.418590	283.350	0.100	-0.120	-0.010	283.260	-1.400	0.400																			1580075814.0	12.03	22.28
26/01/2020 21:56:55	26012020	260120	215655	283.340	12.248780	-56.418643	283.440	-0.090	0.390	0.350	283.340	-1.000	0.700																			1580075815.0	11.66	21.59
26/01/2020 21:56:56	26012020	260120	215656	283.290	12.248792	-56.418697	283.380	-0.230	0.450	0.410	283.270	-1.000	0.800																			1580075816.0	11.60	21.48
26/01/2020 21:56:57	26012020	260120	215657	283.170	12.248803	-56.418753	283.250	-0.130	-0.020	0.250	283.140	-1.500	0.600																			1580075817.0	11.97	22.17
26/01/2020 21:56:58	26012020	260120	215658	282.990	12.248813	-56.418810	283.070	0.150	-0.640	0.090	282.950	-2.100	0.400																			1580075818.0	12.45	23.06
26/01/2020 21:56:59	26012020	260120	215659	282.770	12.248825	-56.418870	282.850	0.350	-0.910	0.060	282.720	-2.300	0.400																			1580075819.0	12.58	23.30
26/01/2020 21:57:00	26012020	260120	215700	282.530	12.248835	-56.418925	282.590	0.290	-0.640	0.150	282.470	-2.000	0.500	1014.80	26.10	26.20	20.90	20.90	1.00	73.00	72.00	383.00	25.50	39.00	4.90	50.00	3.90	70	3714.00	27.60	27.60	1580075820.0	12.19	22.58
26/01/2020 21:57:01	26012020	260120	215701	282.270	12.248847	-56.418980	282.330	0.050	-0.170	0.270	282.220	-1.500	0.700																			1580075821.0	11.66	21.59
26/01/2020 21:57:02	26012020	260120	215702	282.100	12.248860	-56.419033	282.200	-0.160	0.090	0.300	282.090	-1.300	0.700																			1580075822.0	11.49	21.28
26/01/2020 21:57:03	26012020	260120	215703	282.130	12.248870	-56.419087	282.260	-0.180	-0.030	0.200	282.160	-1.500	0.500																			1580075823.0	11.77	21.80
26/01/2020 21:57:04	26012020	260120	215704	282.350	12.248882	-56.419143	282.500	-0.030	-0.360	-0.010	282.410	-1.800	0.300																			1580075824.0	12.16	22.52
26/01/2020 21:57:05	26012020	260120	215705	282.700	12.248893	-56.419202	282.850	0.170	-0.640	-0.180	282.770	-2.100	0.200																			1580075825.0	12.42	23.00
26/01/2020 21:57:06	26012020	260120	215706	283.040	12.248905	-56.419258	283.180	0.260	-0.630	-0.200	283.090	-2.000	0.200																			1580075826.0	12.40	22.96
26/01/2020 21:57:07	26012020	260120	215707	283.230	12.248917	-56.419315	283.350	0.160	-0.300	-0.040	283.250	-1.700	0.400																			1580075827.0	12.14	22.48
26/01/2020 21:57:08	26012020	260120	215708	283.250	12.248928	-56.419368	283.340	-0.080	0.080	0.170	283.230	-1.300	0.600																			1580075828.0	11.83	21.91
26/01/2020 21:57:09	26012020	260120	215709	283.140	12.248942	-56.419423	283.230	-0.340	0.230	0.280	283.110	-1.200	0.700																			1580075829.0	11.72	21.71
26/01/2020 21:57:10	26012020	260120	215710	282.990	12.248952	-56.419478	283.100	-0.480	0.030	0.200	282.970	-1.400	0.600																			1580075830.0	11.87	21.98
26/01/2020 21:57:11	26012020	260120	215711	282.920	12.248962	-56.419535	283.030	-0.410	-0.430	-0.000	282.910	-1.900	0.400																			1580075831.0	12.16	22.52
26/01/2020 21:57:12	26012020	260120	215712	282.900	12.248970	-56.419593	283.020	-0.170	-0.850	-0.110	282.890	-2.300	0.300																			1580075832.0	12.42	23.00
26/01/2020 21:57:13	26012020	260120	215713	282.880	12.248980	-56.419650	282.990	0.120	-0.880	0.050	282.860	-2.200	0.500																			1580075833.0	12.42	23.00
26/01/2020 21:57:14	26012020	260120	215714	282.760	12.248992	-56.419707	282.860	0.320	-0.460	0.430	282.720	-1.800	0.900																			1580075834.0	12.09	22.39
26/01/2020 21:57:15	26012020	260120	215715	282.530	12.249005	-56.419760	282.610	0.370	0.070	0.710	282.480	-1.300	1.100																			1580075835.0	11.72	21.71
26/01/2020 21:57:16	26012020	260120	215716	282.320	12.249020	-56.419813	282.410	0.330	0.320	0.650	282.320	-1.100	1.100																			1580075836.0	11.66	21.59
26/01/2020 21:57:17	26012020	260120	215717	282.290	12.249032	-56.419868	282.400	0.290	0.180	0.290	282.300	-1.300	0.600																			1580075837.0	11.93	22.09
26/01/2020 21:57:18	26012020	260120	215718	282.410	12.249043	-56.419925	282.540	0.240	-0.150	-0.140	282.410	-1.500	0.300																			1580075838.0	12.24	22.67
26/01/2020 21:57:19	26012020	260120	215719	282.610	12.249055	-56.419982	282.760	0.120	-0.410	-0.480	282.660	-1.800	-0.100																			1580075839.0	12.33	22.84
26/01/2020 21:57:20	26012020	260120	215720	282.830	12.249065	-56.420038	282.960	-0.090	-0.490	-0.640	282.870	-1.900	-0.300																			1580075840.0	12.18	22.56
26/01/2020 21:57:21	26012020	260120	215721	282.990	12.249073	-56.420095	283.120	-0.310	-0.460	-0.530	283.020	-1.900	-0.100																			1580075841.0	11.94	22.11
26/01/2020 21:57:22	26012020	260120	215722	283.110	12.249085	-56.420150	283.240	-0.400	-0.500	-0.250	283.140	-1.900	0.200																			1580075842.0	11.85	21.95
26/01/2020 21:57:23	26012020	260120	215723	283.230	12.249095	-56.420205	283.380	-0.270	-0.610	-0.000	283.260	-2.000	0.400																			1580075843.0	12.02	22.26
26/01/2020 21:57:24	26012020	260120	215724	283.300	12.249107	-56.420262	283.440	-0.030	-0.600	0.200	283.300	-2.000	0.600																			1580075844.0	12.22	22.63
26/01/2020 21:57:25	26012020	260120	215725	283.200	12.249118	-56.420318	283.310	0.140	-0.340	0.420	283.150	-1.700	0.800																			1580075845.0	12.18	22.56
26/01/2020 21:57:26	26012020	260120	215726	282.940	12.249132	-56.420373	283.040	0.130	-0.010	0.590	282.880	-1.400	1.000																			1580075846.0	11.95	22.13
26/01/2020 21:57:27	26012020	260120	215727	282.680	12.249145	-56.420428	282.790	0.000	0.120	0.520	282.640	-1.300	0.900																			1580075847.0	11.84	21.93
26/01/2020 21:57:28	26012020	260120	215728	282.550	12.249157	-56.420483	282.670	-0.090	-0.090	0.130	282.540	-1.500	0.400																			1580075848.0	12.01	22.24
26/01/2020 21:57:29	26012020	260120	215729	282.570	12.249167	-56.420540	282.680	-0.060	-0.410	-0.330	282.590	-1.800	-0.000																			1580075849.0	12.30	22.78
26/01/2020 21:57:30	26012020	260120	215730	282.710	12.249177	-56.420598	282.820	0.030	-0.570	-0.630	282.740	-2.000	-0.300																			1580075850.0	12.42	23.00
26/01/2020 21:57:31	26012020	260120	215731	282.900	12.249188	-56.420655	283.010	0.080	-0.460	-0.610	282.930	-1.800	-0.200																			1580075851.0	12.26	22.71
26/01/2020 21:57:32	26012020	260120	215732	283.050	12.249198	-56.420710	283.170	0.070	-0.200	-0.340	283.080	-1.600	0.100																			1580075852.0	12.01	22.24
26/01/2020 21:57:33	26012020	260120	215733	283.150	12.249212	-56.420765	283.250	0.020	0.060	-0.010	283.160	-1.300	0.400																			1580075853.0	11.85	21.95
26/01/2020 21:57:34	26012020	260120	215734	283.180	12.249223	-56.420820	283.290	-0.000	0.210	0.250	283.180	-1.200	0.600																			1580075854.0	11.84	21.93
26/01/2020 21:57:35	26012020	260120	215735	283.110	12.249237	-56.420875	283.210	-0.010	0.160	0.390	283.090	-1.300	0.800																			1580075855.0	11.88	22.00
26/01/2020 21:57:36	26012020	260120	215736	282.920	12.249248	-56.420930	283.000	-0.020	-0.120	0.350	282.870	-1.600	0.700																			1580075856.0	11.97	22.17
26/01/2020 21:57:37	26012020	260120	215737	282.710	12.249260	-56.420985	282.810	0.000	-0.530	0.160	282.690	-2.000	0.500																			1580075857.0	12.12	22.45
26/01/2020 21:57:38	26012020	260120	215738	282.650	12.249270	-56.421043	282.760	0.070	-0.900	-0.060	282.660	-2.300	0.300																			1580075858.0	12.23	22.65
26/01/2020 21:57:39	26012020	260120	215739	282.760	12.249282	-56.421100	282.890	0.130	-1.020	-0.260	282.800	-2.400	0.100																			1580075859.0	12.25	22.69
26/01/2020 21:57:40	26012020	260120	215740	282.940	12.249292	-56.421155	283.070	0.090	-0.790	-0.380	282.980	-2.100	-0.000																			1580075860.0	12.12	22.45
26/01/2020 21:57:41	26012020	260120	215741	283.100	12.249303	-56.421210	283.200	-0.040	-0.300	-0.330	283.120	-1.600	0.100																			1580075861.0	11.87	21.98
26/01/2020 21:57:42	26012020	260120	215742	283.160	12.249315	-56.421265	283.250	-0.150	0.080	-0.060	283.160	-1.300	0.400																			1580075862.0	11.71	21.69
26/01/2020 21:57:43	26012020	260120	215743	283.150	12.249328	-56.421320	283.240	-0.120	0.080	0.290	283.140	-1.300	0.700																			1580075863.0	11.87	21.98
26/01/2020 21:57:44	26012020	260120	215744	283.060	12.249342	-56.421377	283.140	0.030	-0.160	0.520	283.030	-1.600	0.900																			1580075864.0	12.30	22.78
26/01/2020 21:57:45	26012020	260120	215745	282.860	12.249353	-56.421433	282.930	0.130	-0.270	0.590	282.800	-1.700	0.900																			1580075865.0	12.49	23.13
26/01/2020 21:57:46	26012020	260120	215746	282.590	12.249367	-56.421490	282.650	0.090	-0.150	0.460	282.540	-1.500	0.800																			1580075866.0	12.29	22.76
26/01/2020 21:57:47	26012020	260120	215747	282.400	12.249377	-56.421545	282.480	-0.070	0.040	0.240	282.380	-1.300	0.600																			1580075867.0	11.96	22.15
26/01/2020 21:57:48	26012020	260120	215748	282.400	12.249387	-56.421600	282.500	-0.180	0.050	-0.040	282.430	-1.400	0.300																			1580075868.0	11.81	21.87
26/01/2020 21:57:49	26012020	260120	215749	282.630	12.249397	-56.421657	282.760	-0.120	-0.180	-0.330	282.700	-1.600	0.000																			1580075869.0	11.95	22.13
26/01/2020 21:57:50	26012020	260120	215750	282.990	12.249408	-56.421713	283.110	0.050	-0.490	-0.480	283.060	-1.900	-0.100																			1580075870.0	12.21	22.61
26/01/2020 21:57:51	26012020	260120	215751	283.280	12.249420	-56.421770	283.400	0.150	-0.580	-0.350	283.330	-2.000	0.100																			1580075871.0	12.29	22.76
26/01/2020 21:57:52	26012020	260120	215752	283.420	12.249432	-56.421825	283.520	0.050	-0.410	-0.050	283.420	-1.800	0.400																			1580075872.0	12.07	22.35
26/01/2020 21:57:53	26012020	260120	215753	283.400	12.249443	-56.421880	283.500	-0.150	-0.230	0.200	283.380	-1.600	0.600																			1580075873.0	11.76	21.78
26/01/2020 21:57:54	26012020	260120	215754	283.310	12.249455	-56.421935	283.420	-0.180	-0.310	0.280	283.310	-1.700	0.700																			1580075874.0	11.78	21.82
26/01/2020 21:57:55	26012020	260120	215755	283.210	12.249467	-56.421990	283.320	0.050	-0.570	0.210	283.200	-2.000	0.600																			1580075875.0	12.09	22.39
26/01/2020 21:57:56	26012020	260120	215756	283.100	12.249477	-56.422048	283.190	0.370	-0.660	0.150	283.060	-2.000	0.500																			1580075876.0	12.37	22.91
26/01/2020 21:57:57	26012020	260120	215757	282.920	12.249488	-56.422103	283.000	0.470	-0.390	0.200	282.870	-1.700	0.600																			1580075877.0	12.23	22.65
26/01/2020 21:57:58	26012020	260120	215758	282.680	12.249502	-56.422158	282.760	0.270	0.050	0.270	282.640	-1.300	0.600																			1580075878.0	11.86	21.96
26/01/2020 21:57:59	26012020	260120	215759	282.490	12.249515	-56.422212	282.570	-0.010	0.190	0.210	282.470	-1.200	0.600	1014.70	26.10	26.10	20.90	20.90	1.00	73.00	73.00	382.00	25.50	30.00	5.10	48.00	3.10	60	3700.00	27.60	27.60	1580075879.0	11.66	21.59
26/01/2020 21:58:00	26012020	260120	215800	282.440	12.249527	-56.422267	282.550	-0.160	-0.110	-0.020	282.450	-1.500	0.300																			1580075880.0	11.95	22.13
26/01/2020 21:58:01	26012020	260120	215801	282.560	12.249538	-56.422325	282.680	-0.130	-0.530	-0.310	282.600	-1.900	0.000																			1580075881.0	12.40	22.96
26/01/2020 21:58:02	26012020	260120	215802	282.770	12.249548	-56.422383	282.880	-0.110	-0.670	-0.470	282.810	-2.000	-0.100																			1580075882.0	12.55	23.24
26/01/2020 21:58:03	26012020	260120	215803	282.970	12.249560	-56.422440	283.090	-0.240	-0.390	-0.380	283.000	-1.700	0.000																			1580075883.0	12.27	22.72
26/01/2020 21:58:04	26012020	260120	215804	283.110	12.249570	-56.422495	283.230	-0.450	0.030	-0.130	283.130	-1.300	0.300																			1580075884.0	11.84	21.93
26/01/2020 21:58:05	26012020	260120	215805	283.170	12.249582	-56.422548	283.280	-0.510	0.210	0.070	283.170	-1.200	0.500																			1580075885.0	11.63	21.54
26/01/2020 21:58:06	26012020	260120	215806	283.190	12.249592	-56.422605	283.310	-0.260	-0.080	0.110	283.190	-1.400	0.500																			1580075886.0	11.89	22.02
26/01/2020 21:58:07	26012020	260120	215807	283.260	12.249603	-56.422662	283.380	0.200	-0.600	0.060	283.270	-2.000	0.400																			1580075887.0	12.38	22.93
26/01/2020 21:58:08	26012020	260120	215808	283.310	12.249615	-56.422720	283.410	0.570	-0.810	0.080	283.300	-2.200	0.500																			1580075888.0	12.63	23.39
26/01/2020 21:58:09	26012020	260120	215809	283.170	12.249627	-56.422777	283.250	0.590	-0.440	0.300	283.110	-1.800	0.700																			1580075889.0	12.33	22.84
26/01/2020 21:58:10	26012020	260120	215810	282.820	12.249640	-56.422830	282.870	0.260	0.230	0.560	282.730	-1.100	1.000																			1580075890.0	11.67	21.61
26/01/2020 21:58:11	26012020	260120	215811	282.420	12.249653	-56.422882	282.470	-0.120	0.530	0.630	282.360	-0.900	1.000																			1580075891.0	11.28	20.89
26/01/2020 21:58:12	26012020	260120	215812	282.180	12.249665	-56.422935	282.260	-0.210	0.050	0.380	282.160	-1.400	0.700																			1580075892.0	11.61	21.50
26/01/2020 21:58:13	26012020	260120	215813	282.170	12.249677	-56.422993	282.270	0.080	-0.840	-0.010	282.190	-2.300	0.300																			1580075893.0	12.39	22.95
26/01/2020 21:58:14	26012020	260120	215814	282.350	12.249687	-56.423053	282.480	0.410	-1.360	-0.260	282.410	-2.700	0.100																			1580075894.0	12.87	23.84
26/01/2020 21:58:15	26012020	260120	215815	282.620	12.249698	-56.423112	282.760	0.400	-1.050	-0.240	282.670	-2.400	0.100																			1580075895.0	12.53	23.21
26/01/2020 21:58:16	26012020	260120	215816	282.870	12.249710	-56.423165	283.000	-0.030	-0.290	-0.160	282.910	-1.600	0.200																			1580075896.0	11.76	21.78
26/01/2020 21:58:17	26012020	260120	215817	283.080	12.249722	-56.423218	283.200	-0.520	0.240	-0.190	283.110	-1.100	0.200																			1580075897.0	11.37	21.06
26/01/2020 21:58:18	26012020	260120	215818	283.230	12.249732	-56.423273	283.350	-0.700	0.260	-0.300	283.250	-1.200	0.100																			1580075898.0	11.71	21.69
26/01/2020 21:58:19	26012020	260120	215819	283.290	12.249742	-56.423330	283.390	-0.480	-0.030	-0.330	283.280	-1.500	0.000																			1580075899.0	12.28	22.74
26/01/2020 21:58:20	26012020	260120	215820	283.220	12.249752	-56.423388	283.300	-0.110	-0.260	-0.250	283.190	-1.700	0.100																			1580075900.0	12.58	23.30
26/01/2020 21:58:21	26012020	260120	215821	283.030	12.249762	-56.423447	283.090	0.100	-0.260	-0.070	282.970	-1.600	0.300																			1580075901.0	12.46	23.08
26/01/2020 21:58:22	26012020	260120	215822	282.710	12.249775	-56.423502	282.770	0.060	-0.090	0.080	282.640	-1.500	0.500																			1580075902.0	12.08	22.37
26/01/2020 21:58:23	26012020	260120	215823	282.380	12.249785	-56.423557	282.450	-0.030	0.040	0.130	282.320	-1.400	0.500																			1580075903.0	11.80	21.85
26/01/2020 21:58:24	26012020	260120	215824	282.170	12.249797	-56.423612	282.260	-0.010	-0.090	0.030	282.150	-1.500	0.400																			1580075904.0	11.76	21.78
26/01/2020 21:58:25	26012020	260120	215825	282.130	12.249808	-56.423667	282.220	0.180	-0.460	-0.120	282.130	-1.900	0.200																			1580075905.0	11.98	22.19
26/01/2020 21:58:26	26012020	260120	215826	282.190	12.249818	-56.423723	282.280	0.420	-0.810	-0.160	282.200	-2.200	0.200																			1580075906.0	12.24	22.67
26/01/2020 21:58:27	26012020	260120	215827	282.300	12.249832	-56.423780	282.380	0.520	-0.840	-0.070	282.320	-2.200	0.300																			1580075907.0	12.29	22.76
26/01/2020 21:58:28	26012020	260120	215828	282.390	12.249845	-56.423835	282.470	0.380	-0.500	0.160	282.390	-2.000	0.500																			1580075908.0	12.02	22.26
26/01/2020 21:58:29	26012020	260120	215829	282.480	12.249858	-56.423888	282.580	0.050	-0.080	0.380	282.510	-1.400	0.800																			1580075909.0	11.68	21.63
26/01/2020 21:58:30	26012020	260120	215830	282.640	12.249870	-56.423942	282.750	-0.240	0.060	0.340	282.680	-1.300	0.700																			1580075910.0	11.64	21.56
26/01/2020 21:58:31	26012020	260120	215831	282.850	12.249882	-56.423998	282.960	-0.310	-0.140	0.040	282.880	-1.600	0.400																			1580075911.0	11.98	22.19
26/01/2020 21:58:32	26012020	260120	215832	282.990	12.249892	-56.424055	283.080	-0.180	-0.380	-0.200	283.000	-1.800	0.200																			1580075912.0	12.40	22.96
26/01/2020 21:58:33	26012020	260120	215833	283.030	12.249900	-56.424113	283.090	-0.060	-0.330	-0.230	283.020	-1.700	0.200																			1580075913.0	12.46	23.08
26/01/2020 21:58:34	26012020	260120	215834	282.930	12.249910	-56.424170	282.990	-0.070	-0.090	-0.020	282.900	-1.400	0.400																			1580075914.0	12.11	22.43
26/01/2020 21:58:35	26012020	260120	215835	282.760	12.249922	-56.424225	282.820	-0.140	0.030	0.220	282.730	-1.400	0.600																			1580075915.0	11.81	21.87
26/01/2020 21:58:36	26012020	260120	215836	282.600	12.249932	-56.424280	282.670	-0.120	-0.090	0.290	282.580	-1.500	0.700																			1580075916.0	11.89	22.02
26/01/2020 21:58:37	26012020	260120	215837	282.470	12.249943	-56.424335	282.530	0.000	-0.350	0.230	282.440	-1.800	0.600																			1580075917.0	12.10	22.41
26/01/2020 21:58:38	26012020	260120	215838	282.340	12.249955	-56.424392	282.390	0.110	-0.570	0.130	282.320	-2.000	0.500																			1580075918.0	12.21	22.61
26/01/2020 21:58:39	26012020	260120	215839	282.270	12.249967	-56.424448	282.340	0.110	-0.620	-0.000	282.270	-2.000	0.400																			1580075919.0	12.14	22.48
26/01/2020 21:58:40	26012020	260120	215840	282.330	12.249977	-56.424505	282.420	0.010	-0.550	-0.190	282.360	-1.900	0.200																			1580075920.0	12.01	22.24
26/01/2020 21:58:41	26012020	260120	215841	282.540	12.249988	-56.424560	282.660	-0.090	-0.390	-0.380	282.600	-1.800	-0.000																			1580075921.0	11.94	22.11
26/01/2020 21:58:42	26012020	260120	215842	282.860	12.249998	-56.424615	283.000	-0.070	-0.270	-0.500	282.930	-1.600	-0.100																			1580075922.0	11.94	22.11
26/01/2020 21:58:43	26012020	260120	215843	283.200	12.250008	-56.424672	283.330	0.070	-0.230	-0.460	283.260	-1.600	-0.100																			1580075923.0	12.05	22.32
26/01/2020 21:58:44	26012020	260120	215844	283.430	12.250020	-56.424728	283.550	0.210	-0.190	-0.190	283.450	-1.600	0.200																			1580075924.0	12.22	22.63
26/01/2020 21:58:45	26012020	260120	215845	283.430	12.250035	-56.424783	283.510	0.240	-0.020	0.170	283.400	-1.400	0.600																			1580075925.0	12.20	22.59
26/01/2020 21:58:46	26012020	260120	215846	283.180	12.250048	-56.424838	283.240	0.120	0.180	0.380	283.110	-1.200	0.800																			1580075926.0	11.99	22.21
26/01/2020 21:58:47	26012020	260120	215847	282.820	12.250060	-56.424893	282.870	-0.070	0.170	0.290	282.760	-1.200	0.600																			1580075927.0	11.86	21.96
26/01/2020 21:58:48	26012020	260120	215848	282.550	12.250072	-56.424948	282.620	-0.200	-0.110	-0.070	282.530	-1.500	0.200																			1580075928.0	11.95	22.13
26/01/2020 21:58:49	26012020	260120	215849	282.550	12.250080	-56.425005	282.650	-0.190	-0.550	-0.520	282.580	-2.000	-0.200																			1580075929.0	12.17	22.54
26/01/2020 21:58:50	26012020	260120	215850	282.780	12.250088	-56.425063	282.890	-0.040	-0.910	-0.830	282.840	-2.300	-0.500																			1580075930.0	12.33	22.84
26/01/2020 21:58:51	26012020	260120	215851	283.080	12.250098	-56.425120	283.200	0.130	-0.930	-0.780	283.140	-2.300	-0.400																			1580075931.0	12.32	22.82
26/01/2020 21:58:52	26012020	260120	215852	283.300	12.250110	-56.425177	283.410	0.160	-0.510	-0.400	283.320	-1.800	0.000																			1580075932.0	12.05	22.32
26/01/2020 21:58:53	26012020	260120	215853	283.370	12.250122	-56.425230	283.460	-0.000	0.100	0.060	283.370	-1.200	0.500																			1580075933.0	11.67	21.61
26/01/2020 21:58:54	26012020	260120	215854	283.310	12.250135	-56.425283	283.390	-0.200	0.410	0.360	283.280	-1.000	0.700																			1580075934.0	11.45	21.21
26/01/2020 21:58:55	26012020	260120	215855	283.150	12.250148	-56.425337	283.220	-0.250	0.130	0.340	283.120	-1.300	0.700																			1580075935.0	11.72	21.71
26/01/2020 21:58:56	26012020	260120	215856	283.030	12.250160	-56.425393	283.110	-0.090	-0.530	0.090	283.030	-1.700	0.500																			1580075936.0	12.28	22.74
26/01/2020 21:58:57	26012020	260120	215857	283.060	12.250172	-56.425452	283.160	0.150	-1.070	-0.170	283.080	-2.500	0.200																			1580075937.0	12.70	23.52
26/01/2020 21:58:58	26012020	260120	215858	283.190	12.250182	-56.425512	283.290	0.280	-1.060	-0.240	283.210	-2.400	0.100																			1580075938.0	12.63	23.39
26/01/2020 21:58:59	26012020	260120	215859	283.280	12.250195	-56.425567	283.380	0.190	-0.470	-0.120	283.300	-1.800	0.300																			1580075939.0	12.16	22.52
26/01/2020 21:59:00	26012020	260120	215900	283.290	12.250207	-56.425620	283.380	-0.030	0.250	0.100	283.280	-1.100	0.500	1014.80	26.10	26.10	21.00	21.00	0.00	73.00	73.00	382.00	25.50	37.00	5.60	41.00	3.80	51	3639.00	27.60	27.60	1580075940.0	11.64	21.56
26/01/2020 21:59:01	26012020	260120	215901	283.230	12.250220	-56.425673	283.330	-0.180	0.560	0.220	283.220	-0.800	0.600																			1580075941.0	11.53	21.35
26/01/2020 21:59:02	26012020	260120	215902	283.210	12.250232	-56.425728	283.310	-0.160	0.340	0.160	283.210	-1.100	0.500																			1580075942.0	11.94	22.11
26/01/2020 21:59:03	26012020	260120	215903	283.210	12.250243	-56.425787	283.310	-0.060	-0.100	-0.080	283.210	-1.500	0.300																			1580075943.0	12.39	22.95
26/01/2020 21:59:04	26012020	260120	215904	283.140	12.250253	-56.425843	283.200	-0.040	-0.370	-0.330	283.110	-1.800	0.000																			1580075944.0	12.47	23.09
26/01/2020 21:59:05	26012020	260120	215905	282.980	12.250263	-56.425900	283.020	-0.140	-0.370	-0.460	282.940	-1.700	-0.100																			1580075945.0	12.16	22.52
26/01/2020 21:59:06	26012020	260120	215906	282.820	12.250273	-56.425955	282.870	-0.210	-0.340	-0.410	282.800	-1.700	-0.000																			1580075946.0	11.77	21.80
26/01/2020 21:59:07	26012020	260120	215907	282.750	12.250283	-56.426010	282.820	-0.070	-0.520	-0.170	282.750	-1.900	0.200																			1580075947.0	11.73	21.72
26/01/2020 21:59:08	26012020	260120	215908	282.810	12.250295	-56.426065	282.920	0.280	-0.880	0.080	282.840	-2.300	0.500																			1580075948.0	12.03	22.28
26/01/2020 21:59:09	26012020	260120	215909	282.980	12.250308	-56.426122	283.090	0.620	-1.050	0.280	283.010	-2.400	0.700																			1580075949.0	12.37	22.91
26/01/2020 21:59:10	26012020	260120	215910	283.100	12.250323	-56.426178	283.200	0.650	-0.690	0.470	283.110	-2.000	0.800																			1580075950.0	12.34	22.85
26/01/2020 21:59:11	26012020	260120	215911	283.090	12.250337	-56.426233	283.160	0.260	0.070	0.600	283.060	-1.200	1.000																			1580075951.0	11.90	22.04
26/01/2020 21:59:12	26012020	260120	215912	282.930	12.250348	-56.426287	282.990	-0.300	0.680	0.510	282.890	-0.700	0.800																			1580075952.0	11.48	21.26
26/01/2020 21:59:13	26012020	260120	215913	282.750	12.250360	-56.426340	282.810	-0.640	0.690	0.160	282.720	-0.800	0.500																			1580075953.0	11.57	21.43
26/01/2020 21:59:14	26012020	260120	215914	282.700	12.250368	-56.426397	282.790	-0.560	0.020	-0.290	282.720	-1.500	0.000																			1580075954.0	12.14	22.48
26/01/2020 21:59:15	26012020	260120	215915	282.860	12.250378	-56.426457	282.960	-0.180	-0.780	-0.630	282.910	-2.200	-0.300																			1580075955.0	12.76	23.63
26/01/2020 21:59:16	26012020	260120	215916	283.110	12.250388	-56.426517	283.220	0.170	-1.060	-0.640	283.160	-2.400	-0.200																			1580075956.0	12.86	23.82
26/01/2020 21:59:17	26012020	260120	215917	283.300	12.250400	-56.426573	283.410	0.260	-0.690	-0.320	283.330	-2.000	0.100																			1580075957.0	12.28	22.74
26/01/2020 21:59:18	26012020	260120	215918	283.390	12.250413	-56.426627	283.500	0.160	-0.190	0.020	283.410	-1.500	0.400																			1580075958.0	11.64	21.56
26/01/2020 21:59:19	26012020	260120	215919	283.440	12.250425	-56.426680	283.550	0.060	-0.050	0.140	283.440	-1.500	0.500																			1580075959.0	11.58	21.45
26/01/2020 21:59:20	26012020	260120	215920	283.460	12.250438	-56.426735	283.560	0.070	-0.230	0.020	283.460	-1.600	0.400																			1580075960.0	12.04	22.30
26/01/2020 21:59:21	26012020	260120	215921	283.400	12.250448	-56.426793	283.490	0.080	-0.320	-0.110	283.380	-1.700	0.200																			1580075961.0	12.39	22.95
26/01/2020 21:59:22	26012020	260120	215922	283.220	12.250460	-56.426850	283.280	-0.070	-0.080	-0.100	283.170	-1.400	0.300																			1580075962.0	12.24	22.67
26/01/2020 21:59:23	26012020	260120	215923	282.980	12.250470	-56.426903	283.040	-0.330	0.290	0.020	282.950	-1.100	0.400																			1580075963.0	11.75	21.76
26/01/2020 21:59:24	26012020	260120	215924	282.850	12.250482	-56.426957	282.930	-0.470	0.280	0.070	282.840	-1.200	0.400																			1580075964.0	11.49	21.28
26/01/2020 21:59:25	26012020	260120	215925	282.920	12.250492	-56.427012	283.020	-0.240	-0.310	-0.030	282.950	-1.800	0.300																			1580075965.0	11.82	21.89
26/01/2020 21:59:26	26012020	260120	215926	283.190	12.250503	-56.427070	283.320	0.320	-1.130	-0.220	283.260	-2.600	0.100																			1580075966.0	12.45	23.06
26/01/2020 21:59:27	26012020	260120	215927	283.560	12.250515	-56.427128	283.700	0.870	-1.510	-0.260	283.630	-2.900	0.100																			1580075967.0	12.84	23.78
26/01/2020 21:59:28	26012020	260120	215928	283.810	12.250530	-56.427187	283.900	0.980	-1.050	-0.020	283.830	-2.300	0.400																			1580075968.0	12.58	23.30
26/01/2020 21:59:29	26012020	260120	215929	283.780	12.250545	-56.427240	283.840	0.490	0.010	0.260	283.740	-1.200	0.600																			1580075969.0	11.86	21.96
26/01/2020 21:59:30	26012020	260120	215930	283.500	12.250558	-56.427292	283.530	-0.360	0.950	0.250	283.430	-0.400	0.600																			1580075970.0	11.29	20.91
26/01/2020 21:59:31	26012020	260120	215931	283.110	12.250568	-56.427345	283.130	-1.080	1.180	-0.100	283.030	-0.200	0.200																			1580075971.0	11.28	20.89
26/01/2020 21:59:32	26012020	260120	215932	282.750	12.250575	-56.427400	282.790	-1.280	0.590	-0.580	282.750	-0.600	-0.100																			1580075972.0	11.86	21.96
26/01/2020 21:59:33	26012020	260120	215933	282.600	12.250582	-56.427458	282.690	-0.850	-0.440	-0.840	282.610	-2.000	-0.500																			1580075973.0	12.53	23.21
26/01/2020 21:59:34	26012020	260120	215934	282.720	12.250588	-56.427520	282.830	-0.030	-1.350	-0.710	282.770	-2.800	-0.300																			1580075974.0	12.83	23.76
26/01/2020 21:59:35	26012020	260120	215935	282.980	12.250600	-56.427578	283.100	0.770	-1.600	-0.220	283.030	-3.000	0.200																			1580075975.0	12.69	23.50
26/01/2020 21:59:36	26012020	260120	215936	283.200	12.250615	-56.427633	283.320	1.130	-1.100	0.410	283.230	-2.400	0.800																			1580075976.0	12.19	22.58
26/01/2020 21:59:37	26012020	260120	215937	283.320	12.250632	-56.427687	283.440	0.920	-0.230	0.800	283.330	-1.500	1.200																			1580075977.0	11.62	21.52
26/01/2020 21:59:38	26012020	260120	215938	283.310	12.250648	-56.427737	283.400	0.350	0.460	0.740	283.300	-0.900	1.100																			1580075978.0	11.34	21.00
26/01/2020 21:59:39	26012020	260120	215939	283.200	12.250660	-56.427790	283.270	-0.270	0.640	0.320	283.170	-0.800	0.600																			1580075979.0	11.50	21.30
26/01/2020 21:59:40	26012020	260120	215940	283.110	12.250670	-56.427845	283.180	-0.640	0.300	-0.280	283.100	-1.200	0.000																			1580075980.0	11.96	22.15
26/01/2020 21:59:41	26012020	260120	215941	283.140	12.250677	-56.427903	283.220	-0.650	-0.270	-0.730	283.160	-1.700	-0.400																			1580075981.0	12.40	22.96
26/01/2020 21:59:42	26012020	260120	215942	283.270	12.250685	-56.427963	283.370	-0.380	-0.700	-0.790	283.310	-2.100	-0.400																			1580075982.0	12.55	23.24
26/01/2020 21:59:43	26012020	260120	215943	283.430	12.250695	-56.428020	283.530	-0.050	-0.780	-0.480	283.450	-2.200	-0.100																			1580075983.0	12.38	22.93
26/01/2020 21:59:44	26012020	260120	215944	283.500	12.250708	-56.428077	283.600	0.150	-0.550	-0.020	283.510	-1.900	0.400																			1580075984.0	12.05	22.32
26/01/2020 21:59:45	26012020	260120	215945	283.500	12.250722	-56.428130	283.590	0.240	-0.260	0.350	283.490	-1.600	0.700																			1580075985.0	11.80	21.85
26/01/2020 21:59:46	26012020	260120	215946	283.440	12.250735	-56.428183	283.540	0.320	-0.130	0.480	283.440	-1.500	0.800																			1580075986.0	11.81	21.87
26/01/2020 21:59:47	26012020	260120	215947	283.390	12.250748	-56.428240	283.480	0.380	-0.160	0.420	283.390	-1.600	0.800																			1580075987.0	11.99	22.21
26/01/2020 21:59:48	26012020	260120	215948	283.330	12.250760	-56.428295	283.410	0.310	-0.190	0.240	283.320	-1.600	0.600																			1580075988.0	12.15	22.50
26/01/2020 21:59:49	26012020	260120	215949	283.230	12.250772	-56.428352	283.290	0.040	-0.080	-0.030	283.210	-1.400	0.300																			1580075989.0	12.07	22.35
26/01/2020 21:59:50	26012020	260120	215950	283.130	12.250783	-56.428407	283.200	-0.340	0.060	-0.340	283.120	-1.300	-0.000																			1580075990.0	11.72	21.71
26/01/2020 21:59:51	26012020	260120	215951	283.110	12.250792	-56.428460	283.190	-0.550	-0.020	-0.560	283.130	-1.400	-0.200																			1580075991.0	11.72	21.71
26/01/2020 21:59:52	26012020	260120	215952	283.220	12.250802	-56.428517	283.320	-0.390	-0.400	-0.600	283.260	-1.800	-0.200																			1580075992.0	11.93	22.09
26/01/2020 21:59:53	26012020	260120	215953	283.400	12.250812	-56.428573	283.510	0.030	-0.780	-0.370	283.430	-2.200	0.000																			1580075993.0	12.26	22.71
26/01/2020 21:59:54	26012020	260120	215954	283.530	12.250823	-56.428630	283.630	0.410	-0.830	-0.010	283.540	-2.200	0.400																			1580075994.0	12.35	22.87
26/01/2020 21:59:55	26012020	260120	215955	283.560	12.250838	-56.428685	283.660	0.510	-0.500	0.320	283.560	-1.800	0.700																			1580075995.0	12.07	22.35
26/01/2020 21:59:56	26012020	260120	215956	283.540	12.250852	-56.428738	283.640	0.330	-0.130	0.470	283.540	-1.500	0.800																			1580075996.0	11.72	21.71
26/01/2020 21:59:57	26012020	260120	215957	283.540	12.250865	-56.428793	283.640	0.050	-0.010	0.310	283.540	-1.400	0.600																			1580075997.0	11.70	21.67
26/01/2020 21:59:58	26012020	260120	215958	283.550	12.250877	-56.428848	283.650	-0.160	-0.150	-0.040	283.550	-1.500	0.400																			1580075998.0	11.99	22.21
26/01/2020 21:59:59	26012020	260120	215959	283.560	12.250888	-56.428905	283.650	-0.270	-0.340	-0.380	283.560	-1.700	-0.100																			1580075999.0	12.27	22.72
26/01/2020 22:00:00	26012020	260120	220000	283.570	12.250898	-56.428962	283.660	-0.330	-0.400	-0.550	283.570	-1.800	-0.200	1014.80	26.10	26.10	21.00	21.00	0.00	73.00	73.00	382.00	25.50	42.00	5.50	43.00	4.20	43	3665.00	27.60	27.60	1580076000.0	12.32	22.82
26/01/2020 22:00:01	26012020	260120	220001	283.590	12.250920	-56.429075	283.690	-0.330	-0.310	-0.470	283.600	-1.700	-0.100																			1580076001.0	12.03	22.28
26/01/2020 22:00:02	26012020	260120	220002	283.610	12.250920	-56.429075	283.720	-0.220	-0.180	-0.240	283.610	-1.500	0.200																			1580076002.0	12.03	22.28
26/01/2020 22:00:03	26012020	260120	220003	283.600	12.250932	-56.429130	283.710	-0.030	-0.060	-0.040	283.600	-1.400	0.400																			1580076003.0	11.99	22.21
26/01/2020 22:00:04	26012020	260120	220004	283.540	12.250945	-56.429185	283.630	0.200	0.010	0.140	283.520	-1.400	0.500																			1580076004.0	11.99	22.21
26/01/2020 22:00:05	26012020	260120	220005	283.430	12.250957	-56.429240	283.510	0.330	0.040	0.270	283.410	-1.400	0.600																			1580076005.0	11.96	22.15
26/01/2020 22:00:06	26012020	260120	220006	283.330	12.250970	-56.429295	283.420	0.300	-0.020	0.290	283.310	-1.400	0.600																			1580076006.0	11.89	22.02
26/01/2020 22:00:07	26012020	260120	220007	283.250	12.250983	-56.429350	283.330	0.160	-0.230	0.110	283.230	-1.700	0.400																			1580076007.0	11.87	21.98
26/01/2020 22:00:08	26012020	260120	220008	283.210	12.250993	-56.429405	283.290	0.060	-0.540	-0.140	283.210	-2.000	0.200																			1580076008.0	11.95	22.13
26/01/2020 22:00:09	26012020	260120	220009	283.250	12.251005	-56.429462	283.350	0.060	-0.840	-0.330	283.270	-2.300	0.000																			1580076009.0	12.09	22.39
26/01/2020 22:00:10	26012020	260120	220010	283.340	12.251017	-56.429517	283.440	0.090	-0.930	-0.330	283.340	-2.300	0.000																			1580076010.0	12.17	22.54
26/01/2020 22:00:11	26012020	260120	220011	283.410	12.251028	-56.429573	283.500	-0.010	-0.720	-0.170	283.420	-2.100	0.200																			1580076011.0	12.10	22.41
26/01/2020 22:00:12	26012020	260120	220012	283.420	12.251042	-56.429628	283.510	-0.280	-0.290	-0.030	283.420	-1.600	0.300																			1580076012.0	11.90	22.04
26/01/2020 22:00:13	26012020	260120	220013	283.410	12.251053	-56.429682	283.520	-0.530	0.020	-0.020	283.420	-1.400	0.300																			1580076013.0	11.75	21.76
26/01/2020 22:00:14	26012020	260120	220014	283.450	12.251063	-56.429738	283.560	-0.500	-0.030	-0.050	283.470	-1.400	0.300																			1580076014.0	11.96	22.15
26/01/2020 22:00:15	26012020	260120	220015	283.530	12.251073	-56.429795	283.640	-0.120	-0.280	0.000	283.550	-1.700	0.400																			1580076015.0	12.39	22.95
26/01/2020 22:00:16	26012020	260120	220016	283.580	12.251087	-56.429853	283.690	0.370	-0.400	0.150	283.580	-1.800	0.500																			1580076016.0	12.62	23.37
26/01/2020 22:00:17	26012020	260120	220017	283.510	12.251100	-56.429912	283.580	0.590	-0.210	0.300	283.480	-1.500	0.700																			1580076017.0	12.50	23.15
26/01/2020 22:00:18	26012020	260120	220018	283.290	12.251115	-56.429967	283.350	0.400	0.230	0.370	283.230	-1.100	0.700																			1580076018.0	12.09	22.39
26/01/2020 22:00:19	26012020	260120	220019	283.030	12.251128	-56.430020	283.100	-0.040	0.560	0.240	282.980	-0.800	0.600																			1580076019.0	11.67	21.61
26/01/2020 22:00:20	26012020	260120	220020	282.850	12.251140	-56.430073	282.920	-0.380	0.430	-0.100	282.830	-1.000	0.200																			1580076020.0	11.58	21.45
26/01/2020 22:00:21	26012020	260120	220021	282.820	12.251148	-56.430128	282.900	-0.390	-0.190	-0.560	282.830	-1.700	-0.200																			1580076021.0	11.91	22.06
26/01/2020 22:00:22	26012020	260120	220022	282.900	12.251158	-56.430187	282.980	-0.140	-0.880	-0.840	282.900	-2.100	-0.400																			1580076022.0	12.34	22.85
26/01/2020 22:00:23	26012020	260120	220023	283.020	12.251167	-56.430245	283.100	0.120	-1.180	-0.740	283.040	-2.600	-0.300																			1580076023.0	12.40	22.96
26/01/2020 22:00:24	26012020	260120	220024	283.100	12.251178	-56.430300	283.170	0.170	-0.980	-0.330	283.110	-2.300	0.100																			1580076024.0	12.06	22.34
26/01/2020 22:00:25	26012020	260120	220025	283.100	12.251192	-56.430353	283.160	0.070	-0.560	0.170	283.090	-1.900	0.600																			1580076025.0	11.66	21.59
26/01/2020 22:00:26	26012020	260120	220026	283.030	12.251205	-56.430407	283.110	-0.030	-0.250	0.480	283.020	-1.600	0.900																			1580076026.0	11.58	21.45
26/01/2020 22:00:27	26012020	260120	220027	282.970	12.251217	-56.430462	283.050	0.000	-0.230	0.510	282.970	-1.600	0.900																			1580076027.0	11.86	21.96
26/01/2020 22:00:28	26012020	260120	220028	282.960	12.251230	-56.430518	283.040	0.160	-0.340	0.430	282.960	-1.700	0.800																			1580076028.0	12.25	22.69
26/01/2020 22:00:29	26012020	260120	220029	282.980	12.251242	-56.430575	283.030	0.270	-0.320	0.420	282.980	-1.700	0.800																			1580076029.0	12.46	23.08
26/01/2020 22:00:30	26012020	260120	220030	282.960	12.251255	-56.430632	283.010	0.160	-0.040	0.430	282.950	-1.400	0.800																			1580076030.0	12.29	22.76
26/01/2020 22:00:31	26012020	260120	220031	282.880	12.251268	-56.430687	282.920	-0.130	0.250	0.360	282.860	-1.100	0.700																			1580076031.0	11.97	22.17
26/01/2020 22:00:32	26012020	260120	220032	282.790	12.251280	-56.430742	282.830	-0.390	0.200	0.100	282.780	-1.200	0.400																			1580076032.0	11.86	21.96
26/01/2020 22:00:33	26012020	260120	220033	282.780	12.251290	-56.430798	282.840	-0.390	-0.210	-0.240	282.780	-1.700	0.100																			1580076033.0	12.14	22.48
26/01/2020 22:00:34	26012020	260120	220034	282.820	12.251300	-56.430857	282.890	-0.160	-0.640	-0.400	282.820	-1.900	-0.000																			1580076034.0	12.52	23.19
26/01/2020 22:00:35	26012020	260120	220035	282.830	12.251310	-56.430915	282.870	0.090	-0.690	-0.250	282.810	-2.000	0.100																			1580076035.0	12.51	23.17
26/01/2020 22:00:36	26012020	260120	220036	282.700	12.251320	-56.430972	282.720	0.180	-0.320	0.080	282.700	-1.800	0.400																			1580076036.0	12.10	22.41
26/01/2020 22:00:37	26012020	260120	220037	282.430	12.251332	-56.431025	282.450	0.080	0.170	0.460	282.370	-1.200	0.900																			1580076037.0	11.64	21.56
26/01/2020 22:00:38	26012020	260120	220038	282.120	12.251345	-56.431078	282.150	-0.060	0.360	0.710	282.070	-1.000	1.100																			1580076038.0	11.44	21.19
26/01/2020 22:00:39	26012020	260120	220039	281.930	12.251357	-56.431132	281.990	-0.080	0.040	0.640	281.920	-1.400	1.000																			1580076039.0	11.67	21.61
26/01/2020 22:00:40	26012020	260120	220040	282.000	12.251367	-56.431188	282.090	0.090	-0.600	0.350	282.050	-2.100	0.700																			1580076040.0	12.12	22.45
26/01/2020 22:00:41	26012020	260120	220041	282.300	12.251378	-56.431245	282.410	0.320	-1.120	0.030	282.380	-2.500	0.400																			1580076041.0	12.46	23.08
26/01/2020 22:00:42	26012020	260120	220042	282.680	12.251388	-56.431303	282.780	0.400	-1.170	-0.140	282.750	-2.500	0.200																			1580076042.0	12.42	23.00
26/01/2020 22:00:43	26012020	260120	220043	282.980	12.251402	-56.431358	283.060	0.200	-0.710	-0.090	283.030	-2.000	0.300																			1580076043.0	12.08	22.37
26/01/2020 22:00:44	26012020	260120	220044	283.110	12.251413	-56.431413	283.160	-0.200	-0.040	0.080	283.110	-1.400	0.500																			1580076044.0	11.70	21.67
26/01/2020 22:00:45	26012020	260120	220045	283.030	12.251425	-56.431467	283.070	-0.520	0.370	0.190	283.000	-1.000	0.500																			1580076045.0	11.56	21.41
26/01/2020 22:00:46	26012020	260120	220046	282.830	12.251433	-56.431522	282.870	-0.510	0.270	0.140	282.790	-1.200	0.500																			1580076046.0	11.87	21.98
26/01/2020 22:00:47	26012020	260120	220047	282.640	12.251443	-56.431580	282.690	-0.160	-0.170	-0.030	282.610	-1.600	0.300																			1580076047.0	12.42	23.00
26/01/2020 22:00:48	26012020	260120	220048	282.490	12.251453	-56.431638	282.510	0.250	-0.450	-0.100	282.450	-1.800	0.300																			1580076048.0	12.70	23.52
26/01/2020 22:00:49	26012020	260120	220049	282.330	12.251465	-56.431697	282.370	0.430	-0.330	0.040	282.310	-1.700	0.400																			1580076049.0	12.43	23.02
26/01/2020 22:00:50	26012020	260120	220050	282.200	12.251477	-56.431752	282.230	0.280	-0.020	0.260	282.170	-1.400	0.600																			1580076050.0	11.92	22.08
26/01/2020 22:00:51	26012020	260120	220051	282.080	12.251492	-56.431805	282.130	-0.080	0.130	0.270	282.060	-1.300	0.600																			1580076051.0	11.63	21.54
26/01/2020 22:00:52	26012020	260120	220052	282.050	12.251503	-56.431858	282.110	-0.420	-0.050	-0.020	282.060	-1.500	0.300																			1580076052.0	11.70	21.67
26/01/2020 22:00:53	26012020	260120	220053	282.200	12.251512	-56.431915	282.290	-0.480	-0.570	-0.460	282.260	-2.000	-0.100																			1580076053.0	12.00	22.22
26/01/2020 22:00:54	26012020	260120	220054	282.560	12.251520	-56.431973	282.670	-0.210	-1.120	-0.740	282.660	-2.600	-0.400																			1580076054.0	12.42	23.00
26/01/2020 22:00:55	26012020	260120	220055	283.010	12.251528	-56.432032	283.120	0.210	-1.240	-0.640	283.080	-2.600	-0.200																			1580076055.0	12.60	23.34
26/01/2020 22:00:56	26012020	260120	220056	283.270	12.251540	-56.432088	283.360	0.440	-0.660	-0.170	283.280	-1.900	0.300																			1580076056.0	12.30	22.78
26/01/2020 22:00:57	26012020	260120	220057	283.200	12.251553	-56.432142	283.230	0.330	0.260	0.450	283.140	-1.000	0.900																			1580076057.0	11.70	21.67
26/01/2020 22:00:58	26012020	260120	220058	282.850	12.251567	-56.432193	282.870	-0.000	0.870	0.840	282.760	-0.500	1.200																			1580076058.0	11.33	20.98
26/01/2020 22:00:59	26012020	260120	220059	282.450	12.251580	-56.432247	282.490	-0.270	0.740	0.740	282.390	-0.700	1.000																			1580076059.0	11.53	21.35
26/01/2020 22:01:00	26012020	260120	220100	282.200	12.251592	-56.432303	282.260	-0.290	-0.010	0.320	282.200	-1.200	0.800	1014.80	26.10	26.10	20.90	20.90	0.00	73.00	73.00	382.00	25.50	38.00	5.00	50.00	3.80	38	3695.00	27.60	27.60	1580076060.0	12.13	22.46
26/01/2020 22:01:01	26012020	260120	220101	282.130	12.251602	-56.432362	282.190	-0.070	-0.790	-0.130	282.140	-2.200	0.200																			1580076061.0	12.63	23.39
26/01/2020 22:01:02	26012020	260120	220102	282.200	12.251610	-56.432420	282.270	0.190	-1.120	-0.350	282.220	-2.500	0.000																			1580076062.0	12.61	23.35
26/01/2020 22:01:03	26012020	260120	220103	282.340	12.251622	-56.432477	282.420	0.320	-0.950	-0.230	282.370	-2.300	0.200																			1580076063.0	12.18	22.56
26/01/2020 22:01:04	26012020	260120	220104	282.520	12.251633	-56.432532	282.590	0.280	-0.580	0.050	282.550	-1.900	0.400																			1580076064.0	11.79	21.84
26/01/2020 22:01:05	26012020	260120	220105	282.660	12.251645	-56.432585	282.740	0.150	-0.300	0.230	282.690	-1.700	0.600																			1580076065.0	11.73	21.72
26/01/2020 22:01:06	26012020	260120	220106	282.770	12.251658	-56.432640	282.850	-0.000	-0.170	0.220	282.800	-1.500	0.600																			1580076066.0	11.94	22.11
26/01/2020 22:01:07	26012020	260120	220107	282.860	12.251668	-56.432697	282.930	-0.180	-0.070	0.060	282.870	-1.400	0.400																			1580076067.0	12.11	22.43
26/01/2020 22:01:08	26012020	260120	220108	282.910	12.251680	-56.432753	282.990	-0.350	0.020	-0.120	282.920	-1.400	0.200																			1580076068.0	12.11	22.43
26/01/2020 22:01:09	26012020	260120	220109	282.950	12.251690	-56.432810	283.020	-0.450	0.030	-0.220	282.950	-1.400	0.100																			1580076069.0	12.06	22.34
26/01/2020 22:01:10	26012020	260120	220110	282.960	12.251700	-56.432865	283.040	-0.390	-0.120	-0.220	282.950	-1.500	0.100																			1580076070.0	12.06	22.34
26/01/2020 22:01:11	26012020	260120	220111	282.940	12.251710	-56.432922	283.010	-0.170	-0.390	-0.120	282.930	-1.800	0.300																			1580076071.0	12.19	22.58
26/01/2020 22:01:12	26012020	260120	220112	282.860	12.251722	-56.432978	282.910	0.100	-0.570	0.090	282.860	-1.900	0.400																			1580076072.0	12.31	22.80
26/01/2020 22:01:13	26012020	260120	220113	282.710	12.251733	-56.433035	282.760	0.270	-0.470	0.400	282.670	-1.800	0.800																			1580076073.0	12.22	22.63
26/01/2020 22:01:14	26012020	260120	220114	282.540	12.251747	-56.433090	282.600	0.260	-0.180	0.620	282.510	-1.500	1.000																			1580076074.0	11.97	22.17
26/01/2020 22:01:15	26012020	260120	220115	282.430	12.251758	-56.433145	282.500	0.180	0.090	0.620	282.420	-1.300	1.000																			1580076075.0	11.74	21.74
26/01/2020 22:01:16	26012020	260120	220116	282.390	12.251770	-56.433198	282.460	0.170	0.110	0.460	282.390	-1.300	0.800																			1580076076.0	11.74	21.74
26/01/2020 22:01:17	26012020	260120	220117	282.420	12.251782	-56.433255	282.500	0.270	-0.160	0.280	282.430	-1.600	0.600																			1580076077.0	11.99	22.21
26/01/2020 22:01:18	26012020	260120	220118	282.520	12.251793	-56.433312	282.610	0.350	-0.450	0.120	282.540	-1.900	0.500																			1580076078.0	12.26	22.71
26/01/2020 22:01:19	26012020	260120	220119	282.660	12.251805	-56.433368	282.760	0.290	-0.560	0.020	282.690	-2.000	0.400																			1580076079.0	12.25	22.69
26/01/2020 22:01:20	26012020	260120	220120	282.800	12.251817	-56.433423	282.900	0.090	-0.550	-0.050	282.830	-1.900	0.300																			1580076080.0	12.06	22.34
26/01/2020 22:01:21	26012020	260120	220121	282.930	12.251828	-56.433478	283.020	-0.170	-0.570	-0.170	282.950	-2.000	0.200																			1580076081.0	11.98	22.19
26/01/2020 22:01:22	26012020	260120	220122	283.040	12.251840	-56.433535	283.110	-0.390	-0.590	-0.300	283.040	-2.000	0.100																			1580076082.0	12.08	22.37
26/01/2020 22:01:23	26012020	260120	220123	283.040	12.251848	-56.433592	283.110	-0.540	-0.530	-0.280	283.020	-1.900	0.100																			1580076083.0	12.19	22.58
26/01/2020 22:01:24	26012020	260120	220124	282.910	12.251858	-56.433648	282.960	-0.550	-0.330	-0.020	282.910	-1.800	0.300																			1580076084.0	12.16	22.52
26/01/2020 22:01:25	26012020	260120	220125	282.720	12.251868	-56.433705	282.780	-0.390	-0.070	0.370	282.690	-1.400	0.800																			1580076085.0	12.04	22.30
26/01/2020 22:01:26	26012020	260120	220126	282.550	12.251880	-56.433760	282.630	-0.060	0.060	0.680	282.550	-1.400	1.000																			1580076086.0	11.99	22.21
26/01/2020 22:01:27	26012020	260120	220127	282.450	12.251892	-56.433817	282.520	0.350	-0.030	0.790	282.440	-1.400	1.100																			1580076087.0	12.10	22.41
26/01/2020 22:01:28	26012020	260120	220128	282.420	12.251905	-56.433873	282.500	0.670	-0.220	0.700	282.430	-1.600	1.000																			1580076088.0	12.31	22.80
26/01/2020 22:01:29	26012020	260120	220129	282.470	12.251918	-56.433930	282.540	0.720	-0.290	0.460	282.490	-1.700	0.800																			1580076089.0	12.37	22.91
26/01/2020 22:01:30	26012020	260120	220130	282.540	12.251930	-56.433985	282.590	0.400	-0.110	0.140	282.550	-1.500	0.500																			1580076090.0	12.17	22.54
26/01/2020 22:01:31	26012020	260120	220131	282.600	12.251942	-56.434040	282.630	-0.130	0.150	-0.190	282.610	-1.200	0.100																			1580076091.0	11.80	21.85
26/01/2020 22:01:32	26012020	260120	220132	282.640	12.251950	-56.434095	282.660	-0.560	0.120	-0.420	282.650	-1.300	-0.100																			1580076092.0	11.64	21.56
26/01/2020 22:01:33	26012020	260120	220133	282.670	12.251960	-56.434150	282.700	-0.630	-0.290	-0.460	282.690	-1.700	-0.100																			1580076093.0	11.92	22.08
26/01/2020 22:01:34	26012020	260120	220134	282.720	12.251968	-56.434208	282.770	-0.320	-0.780	-0.240	282.740	-2.200	0.200																			1580076094.0	12.32	22.82
26/01/2020 22:01:35	26012020	260120	220135	282.790	12.251980	-56.434265	282.840	0.150	-1.030	0.120	282.800	-2.400	0.500																			1580076095.0	12.45	23.06
26/01/2020 22:01:36	26012020	260120	220136	282.840	12.251992	-56.434322	282.910	0.480	-0.930	0.470	282.840	-2.300	0.900																			1580076096.0	12.32	22.82
26/01/2020 22:01:37	26012020	260120	220137	282.820	12.252005	-56.434378	282.880	0.530	-0.500	0.720	282.810	-1.800	1.100																			1580076097.0	12.07	22.35
26/01/2020 22:01:38	26012020	260120	220138	282.690	12.252018	-56.434432	282.740	0.310	0.030	0.740	282.660	-1.300	1.100																			1580076098.0	11.82	21.89
26/01/2020 22:01:39	26012020	260120	220139	282.530	12.252030	-56.434487	282.580	-0.010	0.340	0.490	282.510	-1.100	0.800																			1580076099.0	11.70	21.67
26/01/2020 22:01:40	26012020	260120	220140	282.470	12.252040	-56.434542	282.540	-0.270	0.190	0.060	282.470	-1.300	0.400																			1580076100.0	11.88	22.00
26/01/2020 22:01:41	26012020	260120	220141	282.550	12.252050	-56.434598	282.630	-0.370	-0.290	-0.430	282.580	-1.800	-0.100																			1580076101.0	12.29	22.76
26/01/2020 22:01:42	26012020	260120	220142	282.740	12.252058	-56.434657	282.820	-0.360	-0.700	-0.780	282.780	-2.100	-0.400																			1580076102.0	12.59	23.32
26/01/2020 22:01:43	26012020	260120	220143	282.930	12.252068	-56.434715	283.000	-0.300	-0.690	-0.770	282.950	-2.100	-0.400																			1580076103.0	12.50	23.15
26/01/2020 22:01:44	26012020	260120	220144	283.020	12.252078	-56.434772	283.090	-0.210	-0.360	-0.420	283.020	-1.700	0.000																			1580076104.0	12.10	22.41
26/01/2020 22:01:45	26012020	260120	220145	283.040	12.252088	-56.434827	283.120	-0.070	-0.030	0.020	283.040	-1.400	0.400																			1580076105.0	11.78	21.82
26/01/2020 22:01:46	26012020	260120	220146	283.050	12.252102	-56.434882	283.130	0.120	0.040	0.330	283.060	-1.400	0.700																			1580076106.0	11.82	21.89
26/01/2020 22:01:47	26012020	260120	220147	283.070	12.252115	-56.434937	283.140	0.340	-0.100	0.460	283.070	-1.500	0.800																			1580076107.0	12.09	22.39
26/01/2020 22:01:48	26012020	260120	220148	283.080	12.252128	-56.434993	283.140	0.500	-0.260	0.420	283.080	-1.600	0.800																			1580076108.0	12.28	22.74
26/01/2020 22:01:49	26012020	260120	220149	283.080	12.252140	-56.435050	283.140	0.480	-0.280	0.310	283.080	-1.700	0.600																			1580076109.0	12.27	22.72
26/01/2020 22:01:50	26012020	260120	220150	283.020	12.252153	-56.435105	283.060	0.240	-0.160	0.160	283.020	-1.600	0.500																			1580076110.0	12.07	22.35
26/01/2020 22:01:51	26012020	260120	220151	282.900	12.252165	-56.435160	282.930	-0.120	-0.070	-0.050	282.880	-1.500	0.300																			1580076111.0	11.86	21.96
26/01/2020 22:01:52	26012020	260120	220152	282.830	12.252175	-56.435215	282.890	-0.420	-0.210	-0.360	282.840	-1.600	-0.100																			1580076112.0	11.84	21.93
26/01/2020 22:01:53	26012020	260120	220153	282.950	12.252185	-56.435272	283.030	-0.500	-0.560	-0.710	282.990	-2.000	-0.400																			1580076113.0	12.09	22.39
26/01/2020 22:01:54	26012020	260120	220154	283.210	12.252193	-56.435328	283.290	-0.350	-0.860	-0.900	283.260	-2.300	-0.500																			1580076114.0	12.35	22.87
26/01/2020 22:01:55	26012020	260120	220155	283.470	12.252202	-56.435387	283.550	-0.100	-0.880	-0.720	283.520	-2.300	-0.300																			1580076115.0	12.38	22.93
26/01/2020 22:01:56	26012020	260120	220156	283.680	12.252213	-56.435443	283.770	0.120	-0.590	-0.340	283.720	-1.900	0.100																			1580076116.0	12.16	22.52
26/01/2020 22:01:57	26012020	260120	220157	283.830	12.252227	-56.435498	283.920	0.230	-0.240	0.050	283.860	-1.600	0.400																			1580076117.0	11.94	22.11
26/01/2020 22:01:58	26012020	260120	220158	283.900	12.252240	-56.435553	283.980	0.230	0.010	0.300	283.890	-1.400	0.700																			1580076118.0	11.95	22.13
26/01/2020 22:01:59	26012020	260120	220159	283.830	12.252255	-56.435608	283.890	0.130	0.170	0.300	283.800	-1.200	0.600	1014.80	26.10	26.10	20.90	20.90	-1.00	73.00	73.00	382.00	25.50	41.00	4.90	51.00	4.10	33	3719.00	27.60	27.60	1580076119.0	12.07	22.35
26/01/2020 22:02:00	26012020	260120	220200	283.690	12.252267	-56.435663	283.750	-0.020	0.200	0.140	283.660	-1.200	0.500																			1580076120.0	12.07	22.35
26/01/2020 22:02:01	26012020	260120	220201	283.560	12.252280	-56.435720	283.630	-0.130	0.020	-0.040	283.540	-1.400	0.300																			1580076121.0	12.09	22.39
26/01/2020 22:02:02	26012020	260120	220202	283.480	12.252292	-56.435777	283.550	-0.160	-0.260	-0.200	283.480	-1.600	0.200																			1580076122.0	12.23	22.65
26/01/2020 22:02:03	26012020	260120	220203	283.420	12.252302	-56.435833	283.490	-0.120	-0.460	-0.310	283.420	-1.900	0.000																			1580076123.0	12.30	22.78
26/01/2020 22:02:04	26012020	260120	220204	283.390	12.252313	-56.435890	283.460	-0.030	-0.520	-0.320	283.390	-1.900	0.000																			1580076124.0	12.20	22.59
26/01/2020 22:02:05	26012020	260120	220205	283.400	12.252325	-56.435945	283.470	0.090	-0.500	-0.190	283.410	-1.900	0.200																			1580076125.0	12.10	22.41
26/01/2020 22:02:06	26012020	260120	220206	283.440	12.252338	-56.436002	283.510	0.210	-0.420	0.060	283.440	-1.800	0.400																			1580076126.0	12.08	22.37
26/01/2020 22:02:07	26012020	260120	220207	283.470	12.252352	-56.436057	283.540	0.250	-0.270	0.340	283.470	-1.700	0.700																			1580076127.0	12.09	22.39
26/01/2020 22:02:08	26012020	260120	220208	283.470	12.252365	-56.436112	283.540	0.170	-0.100	0.500	283.470	-1.500	0.900																			1580076128.0	12.02	22.26
26/01/2020 22:02:09	26012020	260120	220209	283.470	12.252378	-56.436167	283.550	0.010	-0.020	0.450	283.480	-1.400	0.800																			1580076129.0	11.95	22.13
26/01/2020 22:02:10	26012020	260120	220210	283.530	12.252390	-56.436222	283.640	-0.140	-0.160	0.190	283.550	-1.600	0.500																			1580076130.0	11.99	22.21
26/01/2020 22:02:11	26012020	260120	220211	283.650	12.252400	-56.436278	283.750	-0.190	-0.500	-0.110	283.670	-1.900	0.200																			1580076131.0	12.19	22.58
26/01/2020 22:02:12	26012020	260120	220212	283.790	12.252412	-56.436337	283.890	-0.150	-0.770	-0.330	283.820	-2.200	0.000																			1580076132.0	12.41	22.98
26/01/2020 22:02:13	26012020	260120	220213	283.940	12.252422	-56.436395	284.030	-0.110	-0.720	-0.320	283.970	-2.100	0.100																			1580076133.0	12.38	22.93
26/01/2020 22:02:14	26012020	260120	220214	284.020	12.252433	-56.436450	284.100	-0.130	-0.360	-0.060	284.020	-1.900	0.200																			1580076134.0	12.09	22.39
26/01/2020 22:02:15	26012020	260120	220215	283.980	12.252445	-56.436505	284.030	-0.160	0.090	0.260	283.950	-1.300	0.600																			1580076135.0	11.80	21.85
26/01/2020 22:02:16	26012020	260120	220216	283.800	12.252458	-56.436558	283.860	-0.100	0.270	0.450	283.800	-1.100	0.800																			1580076136.0	11.73	21.72
26/01/2020 22:02:17	26012020	260120	220217	283.610	12.252472	-56.436613	283.670	0.110	0.010	0.440	283.580	-1.400	0.800																			1580076137.0	12.01	22.24
26/01/2020 22:02:18	26012020	260120	220218	283.490	12.252485	-56.436672	283.550	0.410	-0.500	0.300	283.470	-1.900	0.600																			1580076138.0	12.46	23.08
26/01/2020 22:02:19	26012020	260120	220219	283.430	12.252498	-56.436730	283.490	0.580	-0.780	0.100	283.420	-2.200	0.400																			1580076139.0	12.71	23.54
26/01/2020 22:02:20	26012020	260120	220220	283.420	12.252512	-56.436787	283.490	0.410	-0.550	-0.120	283.430	-1.900	0.200																			1580076140.0	12.47	23.09
26/01/2020 22:02:21	26012020	260120	220221	283.430	12.252523	-56.436842	283.480	-0.060	0.060	-0.280	283.420	-1.300	0.100																			1580076141.0	11.89	22.02
26/01/2020 22:02:22	26012020	260120	220222	283.380	12.252533	-56.436895	283.430	-0.570	0.500	-0.300	283.360	-0.900	0.100																			1580076142.0	11.44	21.19
26/01/2020 22:02:23	26012020	260120	220223	283.310	12.252545	-56.436948	283.360	-0.790	0.340	-0.190	283.290	-1.100	0.200																			1580076143.0	11.53	21.35
26/01/2020 22:02:24	26012020	260120	220224	283.270	12.252555	-56.437005	283.340	-0.580	-0.360	0.010	283.270	-1.900	0.400																			1580076144.0	12.11	22.43
26/01/2020 22:02:25	26012020	260120	220225	283.320	12.252567	-56.437063	283.410	-0.070	-1.080	0.190	283.330	-2.500	0.600																			1580076145.0	12.67	23.46
26/01/2020 22:02:26	26012020	260120	220226	283.420	12.252580	-56.437122	283.500	0.420	-1.260	0.340	283.440	-2.600	0.700																			1580076146.0	12.75	23.61
26/01/2020 22:02:27	26012020	260120	220227	283.490	12.252592	-56.437178	283.570	0.650	-0.820	0.470	283.500	-2.100	0.800																			1580076147.0	12.29	22.76
26/01/2020 22:02:28	26012020	260120	220228	283.500	12.252605	-56.437233	283.570	0.560	-0.110	0.450	283.490	-1.400	0.800																			1580076148.0	11.75	21.76
26/01/2020 22:02:29	26012020	260120	220229	283.420	12.252618	-56.437285	283.470	0.260	0.410	0.340	283.390	-1.000	0.700																			1580076149.0	11.55	21.39
26/01/2020 22:02:30	26012020	260120	220230	283.280	12.252632	-56.437340	283.350	-0.090	0.490	0.120	283.260	-0.900	0.400																			1580076150.0	11.70	21.67
26/01/2020 22:02:31	26012020	260120	220231	283.190	12.252642	-56.437395	283.260	-0.360	0.160	-0.160	283.180	-1.300	0.200																			1580076151.0	12.01	22.24
26/01/2020 22:02:32	26012020	260120	220232	283.170	12.252653	-56.437452	283.250	-0.440	-0.400	-0.430	283.180	-1.900	-0.100																			1580076152.0	12.32	22.82
26/01/2020 22:02:33	26012020	260120	220233	283.210	12.252663	-56.437510	283.280	-0.330	-0.830	-0.530	283.210	-2.300	-0.200																			1580076153.0	12.50	23.15
26/01/2020 22:02:34	26012020	260120	220234	283.240	12.252673	-56.437568	283.310	-0.100	-0.900	-0.340	283.250	-2.300	0.100																			1580076154.0	12.40	22.96
26/01/2020 22:02:35	26012020	260120	220235	283.250	12.252685	-56.437623	283.310	0.120	-0.620	0.060	283.230	-2.000	0.500																			1580076155.0	12.13	22.46
26/01/2020 22:02:36	26012020	260120	220236	283.190	12.252700	-56.437678	283.260	0.220	-0.250	0.440	283.170	-1.600	0.800																			1580076156.0	11.90	22.04
26/01/2020 22:02:37	26012020	260120	220237	283.100	12.252713	-56.437733	283.170	0.210	-0.030	0.560	283.080	-1.400	0.900																			1580076157.0	11.89	22.02
26/01/2020 22:02:38	26012020	260120	220238	282.990	12.252727	-56.437788	283.050	0.160	-0.000	0.440	282.970	-1.400	0.800																			1580076158.0	12.09	22.39
26/01/2020 22:02:39	26012020	260120	220239	282.900	12.252738	-56.437845	282.950	0.110	-0.040	0.270	282.880	-1.400	0.600																			1580076159.0	12.26	22.71
26/01/2020 22:02:40	26012020	260120	220240	282.800	12.252750	-56.437902	282.840	-0.000	-0.040	0.120	282.800	-1.400	0.500																			1580076160.0	12.25	22.69
26/01/2020 22:02:41	26012020	260120	220241	282.700	12.252762	-56.437958	282.730	-0.190	-0.010	0.010	282.690	-1.400	0.300																			1580076161.0	12.09	22.39
26/01/2020 22:02:42	26012020	260120	220242	282.640	12.252773	-56.438013	282.670	-0.400	-0.060	-0.100	282.640	-1.500	0.200																			1580076162.0	11.93	22.09
26/01/2020 22:02:43	26012020	260120	220243	282.670	12.252783	-56.438068	282.720	-0.440	-0.330	-0.170	282.690	-1.800	0.200																			1580076163.0	11.90	22.04
26/01/2020 22:02:44	26012020	260120	220244	282.820	12.252793	-56.438125	282.880	-0.210	-0.780	-0.150	282.860	-2.200	0.200																			1580076164.0	12.10	22.41
26/01/2020 22:02:45	26012020	260120	220245	283.050	12.252805	-56.438182	283.140	0.180	-1.130	-0.010	283.100	-2.500	0.400																			1580076165.0	12.38	22.93
26/01/2020 22:02:46	26012020	260120	220246	283.270	12.252817	-56.438240	283.350	0.520	-1.010	0.290	283.300	-2.400	0.700																			1580076166.0	12.42	23.00
26/01/2020 22:02:47	26012020	260120	220247	283.340	12.252830	-56.438295	283.400	0.590	-0.420	0.680	283.340	-1.700	1.100																			1580076167.0	12.10	22.41
26/01/2020 22:02:48	26012020	260120	220248	283.220	12.252843	-56.438348	283.250	0.370	0.250	0.890	283.170	-1.100	1.200																			1580076168.0	11.71	21.69
26/01/2020 22:02:49	26012020	260120	220249	282.940	12.252857	-56.438402	282.950	0.010	0.580	0.750	282.870	-0.800	1.100																			1580076169.0	11.64	21.56
26/01/2020 22:02:50	26012020	260120	220250	282.630	12.252868	-56.438457	282.640	-0.270	0.440	0.390	282.580	-1.000	0.700																			1580076170.0	11.92	22.08
26/01/2020 22:02:51	26012020	260120	220251	282.430	12.252878	-56.438515	282.470	-0.390	-0.000	-0.020	282.420	-1.500	0.300																			1580076171.0	12.29	22.76
26/01/2020 22:02:52	26012020	260120	220252	282.380	12.252887	-56.438573	282.430	-0.330	-0.440	-0.310	282.380	-1.800	0.100																			1580076172.0	12.47	23.09
26/01/2020 22:02:53	26012020	260120	220253	282.390	12.252897	-56.438630	282.450	-0.140	-0.660	-0.340	282.410	-2.100	0.000																			1580076173.0	12.39	22.95
26/01/2020 22:02:54	26012020	260120	220254	282.450	12.252907	-56.438687	282.530	0.090	-0.620	-0.030	282.450	-2.000	0.200																			1580076174.0	12.15	22.50
26/01/2020 22:02:55	26012020	260120	220255	282.540	12.252920	-56.438742	282.620	0.280	-0.470	0.450	282.560	-1.900	0.900																			1580076175.0	11.95	22.13
26/01/2020 22:02:56	26012020	260120	220256	282.630	12.252935	-56.438797	282.710	0.390	-0.410	0.820	282.640	-1.800	1.200																			1580076176.0	11.92	22.08
26/01/2020 22:02:57	26012020	260120	220257	282.660	12.252950	-56.438852	282.730	0.350	-0.440	0.850	282.660	-1.900	1.200																			1580076177.0	12.08	22.37
26/01/2020 22:02:58	26012020	260120	220258	282.630	12.252963	-56.438907	282.680	0.100	-0.460	0.520	282.620	-1.900	0.800																			1580076178.0	12.16	22.52
26/01/2020 22:02:59	26012020	260120	220259	282.570	12.252973	-56.438963	282.610	-0.280	-0.390	0.020	282.560	-1.800	0.300																			1580076179.0	12.13	22.46
26/01/2020 22:03:00	26012020	260120	220300	282.550	12.252982	-56.439020	282.580	-0.600	-0.290	-0.380	282.550	-1.700	-0.100	1014.80	26.10	26.10	20.80	20.80	-1.00	72.00	72.00	381.00	25.50	39.00	4.40	58.00	3.90	29	3822.00	27.60	27.60	1580076180.0	12.04	22.30
26/01/2020 22:03:01	26012020	260120	220301	282.570	12.252988	-56.439077	282.610	-0.650	-0.270	-0.540	282.580	-1.700	-0.200																			1580076181.0	12.05	22.32
26/01/2020 22:03:02	26012020	260120	220302	282.610	12.252997	-56.439133	282.660	-0.340	-0.310	-0.400	282.610	-1.700	-0.000																			1580076182.0	12.18	22.56
26/01/2020 22:03:03	26012020	260120	220303	282.610	12.253007	-56.439190	282.670	0.130	-0.300	-0.060	282.610	-1.700	0.400																			1580076183.0	12.32	22.82
26/01/2020 22:03:04	26012020	260120	220304	282.580	12.253020	-56.439247	282.630	0.450	-0.080	0.380	282.580	-1.600	0.600																			1580076184.0	12.31	22.80
26/01/2020 22:03:05	26012020	260120	220305	282.470	12.253035	-56.439302	282.500	0.400	0.310	0.730	282.430	-1.000	1.100																			1580076185.0	12.06	22.34
26/01/2020 22:03:06	26012020	260120	220306	282.260	12.253048	-56.439357	282.270	0.070	0.560	0.780	282.260	-0.900	1.200																			1580076186.0	11.73	21.72
26/01/2020 22:03:07	26012020	260120	220307	282.030	12.253060	-56.439410	282.040	-0.250	0.360	0.530	281.990	-1.100	0.800																			1580076187.0	11.68	21.63
26/01/2020 22:03:08	26012020	260120	220308	281.860	12.253068	-56.439467	281.900	-0.250	-0.280	0.180	281.840	-1.800	0.500																			1580076188.0	12.01	22.24
26/01/2020 22:03:09	26012020	260120	220309	281.830	12.253078	-56.439523	281.890	0.120	-1.000	-0.010	281.850	-2.500	0.300																			1580076189.0	12.41	22.98
26/01/2020 22:03:10	26012020	260120	220310	281.910	12.253088	-56.439583	281.980	0.570	-1.370	0.120	281.930	-2.800	0.500																			1580076190.0	12.55	23.24
26/01/2020 22:03:11	26012020	260120	220311	281.990	12.253100	-56.439640	282.060	0.740	-1.180	0.420	282.010	-2.500	0.800																			1580076191.0	12.28	22.74
26/01/2020 22:03:12	26012020	260120	220312	282.050	12.253115	-56.439693	282.110	0.470	-0.580	0.630	282.050	-1.900	1.000																			1580076192.0	11.88	22.00
26/01/2020 22:03:13	26012020	260120	220313	282.080	12.253128	-56.439747	282.130	-0.060	0.000	0.560	282.080	-1.400	0.900																			1580076193.0	11.57	21.43
26/01/2020 22:03:14	26012020	260120	220314	282.130	12.253138	-56.439800	282.180	-0.550	0.210	0.210	282.140	-1.200	0.500																			1580076194.0	11.61	21.50
26/01/2020 22:03:15	26012020	260120	220315	282.220	12.253147	-56.439857	282.280	-0.790	-0.010	-0.200	282.250	-1.500	0.100																			1580076195.0	12.04	22.30
26/01/2020 22:03:16	26012020	260120	220316	282.380	12.253155	-56.439915	282.460	-0.750	-0.340	-0.520	282.420	-1.800	-0.200																			1580076196.0	12.48	23.11
26/01/2020 22:03:17	26012020	260120	220317	282.600	12.253162	-56.439973	282.670	-0.510	-0.460	-0.670	282.650	-1.900	-0.300																			1580076197.0	12.56	23.26
26/01/2020 22:03:18	26012020	260120	220318	282.820	12.253170	-56.440032	282.890	-0.190	-0.320	-0.540	282.860	-1.700	-0.200																			1580076198.0	12.31	22.80
26/01/2020 22:03:19	26012020	260120	220319	282.970	12.253180	-56.440088	283.030	0.140	-0.130	-0.180	282.980	-1.500	0.200																			1580076199.0	12.04	22.30
26/01/2020 22:03:20	26012020	260120	220320	283.000	12.253193	-56.440143	283.070	0.400	-0.020	0.270	283.000	-1.400	0.700																			1580076200.0	12.01	22.24
26/01/2020 22:03:21	26012020	260120	220321	282.940	12.253207	-56.440198	282.990	0.530	0.010	0.630	282.920	-1.400	1.000																			1580076201.0	12.11	22.43
26/01/2020 22:03:22	26012020	260120	220322	282.740	12.253222	-56.440253	282.760	0.480	0.060	0.740	282.690	-1.300	1.100																			1580076202.0	12.13	22.46
26/01/2020 22:03:23	26012020	260120	220323	282.430	12.253235	-56.440308	282.430	0.240	0.130	0.560	282.370	-1.300	0.900																			1580076203.0	11.97	22.17
26/01/2020 22:03:24	26012020	260120	220324	282.160	12.253245	-56.440363	282.170	-0.080	0.060	0.220	282.120	-1.400	0.500																			1580076204.0	11.78	21.82
26/01/2020 22:03:25	26012020	260120	220325	282.040	12.253255	-56.440418	282.080	-0.290	-0.310	-0.180	282.040	-1.800	0.100																			1580076205.0	11.78	21.82
26/01/2020 22:03:26	26012020	260120	220326	282.150	12.253263	-56.440475	282.230	-0.250	-0.860	-0.540	282.190	-2.300	-0.200																			1580076206.0	12.04	22.30
26/01/2020 22:03:27	26012020	260120	220327	282.430	12.253272	-56.440532	282.530	-0.010	-1.290	-0.660	282.500	-2.700	-0.300																			1580076207.0	12.32	22.82
26/01/2020 22:03:28	26012020	260120	220328	282.750	12.253282	-56.440590	282.850	0.240	-1.280	-0.420	282.750	-2.700	-0.200																			1580076208.0	12.33	22.84
26/01/2020 22:03:29	26012020	260120	220329	282.970	12.253295	-56.440645	283.050	0.330	-0.830	-0.000	282.990	-2.100	0.400																			1580076209.0	12.12	22.45
26/01/2020 22:03:30	26012020	260120	220330	283.070	12.253308	-56.440700	283.160	0.200	-0.170	0.330	283.070	-1.700	0.600																			1580076210.0	11.85	21.95
26/01/2020 22:03:31	26012020	260120	220331	283.150	12.253322	-56.440753	283.230	-0.080	0.300	0.320	283.160	-1.100	0.600																			1580076211.0	11.76	21.78
26/01/2020 22:03:32	26012020	260120	220332	283.260	12.253333	-56.440808	283.340	-0.320	0.350	-0.030	283.280	-1.100	0.300																			1580076212.0	11.96	22.15
26/01/2020 22:03:33	26012020	260120	220333	283.350	12.253343	-56.440867	283.420	-0.420	0.100	-0.470	283.360	-1.300	-0.200																			1580076213.0	12.37	22.91
26/01/2020 22:03:34	26012020	260120	220334	283.380	12.253352	-56.440925	283.440	-0.380	-0.080	-0.730	283.380	-1.500	-0.400																			1580076214.0	12.56	23.26
26/01/2020 22:03:35	26012020	260120	220335	283.380	12.253362	-56.440983	283.460	-0.280	-0.120	-0.670	283.380	-1.500	-0.300																			1580076215.0	12.35	22.87
26/01/2020 22:03:36	26012020	260120	220336	283.380	12.253372	-56.441038	283.440	-0.130	-0.130	-0.340	283.370	-1.500	0.100																			1580076216.0	12.05	22.32
26/01/2020 22:03:37	26012020	260120	220337	283.300	12.253383	-56.441093	283.340	0.070	-0.180	0.090	283.270	-1.600	0.500																			1580076217.0	11.93	22.09
26/01/2020 22:03:38	26012020	260120	220338	283.140	12.253397	-56.441148	283.180	0.280	-0.250	0.440	283.100	-1.700	0.800																			1580076218.0	11.93	22.09
26/01/2020 22:03:39	26012020	260120	220339	282.940	12.253410	-56.441203	282.960	0.360	-0.280	0.590	282.890	-1.700	0.900																			1580076219.0	11.94	22.11
26/01/2020 22:03:40	26012020	260120	220340	282.720	12.253423	-56.441258	282.740	0.280	-0.310	0.570	282.670	-1.700	0.900																			1580076220.0	11.88	22.00
26/01/2020 22:03:41	26012020	260120	220341	282.550	12.253435	-56.441313	282.580	0.110	-0.420	0.380	282.530	-1.900	0.700																			1580076221.0	11.87	21.98
26/01/2020 22:03:42	26012020	260120	220342	282.520	12.253447	-56.441368	282.580	0.040	-0.690	0.080	282.520	-2.000	0.500																			1580076222.0	12.01	22.24
26/01/2020 22:03:43	26012020	260120	220343	282.600	12.253457	-56.441425	282.690	0.140	-0.970	-0.160	282.630	-2.400	0.200																			1580076223.0	12.27	22.72
26/01/2020 22:03:44	26012020	260120	220344	282.760	12.253468	-56.441483	282.840	0.290	-0.950	-0.210	282.790	-2.300	0.200																			1580076224.0	12.44	23.04
26/01/2020 22:03:45	26012020	260120	220345	282.920	12.253480	-56.441540	282.990	0.270	-0.490	-0.060	282.940	-1.800	0.300																			1580076225.0	12.26	22.71
26/01/2020 22:03:46	26012020	260120	220346	283.060	12.253493	-56.441595	283.140	-0.010	0.170	0.100	283.090	-1.200	0.500																			1580076226.0	11.86	21.96
26/01/2020 22:03:47	26012020	260120	220347	283.210	12.253505	-56.441648	283.280	-0.390	0.560	0.070	283.240	-0.800	0.400																			1580076227.0	11.62	21.52
26/01/2020 22:03:48	26012020	260120	220348	283.390	12.253517	-56.441703	283.470	-0.600	0.390	-0.180	283.430	-1.100	0.100																			1580076228.0	11.83	21.91
26/01/2020 22:03:49	26012020	260120	220349	283.620	12.253525	-56.441760	283.700	-0.500	-0.140	-0.510	283.670	-1.600	-0.200																			1580076229.0	12.34	22.85
26/01/2020 22:03:50	26012020	260120	220350	283.820	12.253535	-56.441820	283.870	-0.190	-0.530	-0.660	283.840	-2.000	-0.300																			1580076230.0	12.64	23.41
26/01/2020 22:03:51	26012020	260120	220351	283.880	12.253543	-56.441877	283.910	0.110	-0.550	-0.460	283.870	-1.900	-0.100																			1580076231.0	12.43	23.02
26/01/2020 22:03:52	26012020	260120	220352	283.790	12.253557	-56.441933	283.810	0.260	-0.340	-0.030	283.760	-1.700	0.400																			1580076232.0	12.00	22.22
26/01/2020 22:03:53	26012020	260120	220353	283.570	12.253570	-56.441987	283.580	0.220	-0.150	0.370	283.520	-1.600	0.800																			1580076233.0	11.75	21.76
26/01/2020 22:03:54	26012020	260120	220354	283.280	12.253583	-56.442040	283.290	0.100	-0.160	0.540	283.280	-1.500	0.900																			1580076234.0	11.75	21.76
26/01/2020 22:03:55	26012020	260120	220355	283.020	12.253595	-56.442095	283.040	0.020	-0.370	0.420	282.980	-1.800	0.700																			1580076235.0	11.93	22.09
26/01/2020 22:03:56	26012020	260120	220356	282.870	12.253607	-56.442152	282.910	0.060	-0.620	0.190	282.870	-2.000	0.600																			1580076236.0	12.17	22.54
26/01/2020 22:03:57	26012020	260120	220357	282.860	12.253618	-56.442208	282.910	0.150	-0.700	0.020	282.870	-2.100	0.400																			1580076237.0	12.27	22.72
26/01/2020 22:03:58	26012020	260120	220358	282.930	12.253632	-56.442265	282.980	0.160	-0.530	-0.010	282.940	-1.900	0.400																			1580076238.0	12.19	22.58
26/01/2020 22:03:59	26012020	260120	220359	283.000	12.253643	-56.442320	283.050	0.040	-0.160	0.080	283.020	-1.500	0.400																			1580076239.0	12.01	22.24
26/01/2020 22:04:00	26012020	260120	220400	283.080	12.253657	-56.442375	283.150	-0.140	0.160	0.190	283.100	-1.200	0.600	1014.80	26.10	26.20	20.90	20.90	-1.00	73.00	72.00	381.00	25.40	33.00	5.00	49.00	3.40	26	3759.00	27.60	27.60	1580076240.0	11.82	21.89
26/01/2020 22:04:01	26012020	260120	220401	283.190	12.253668	-56.442430	283.290	-0.210	0.210	0.280	283.220	-1.200	0.600																			1580076241.0	11.85	21.95
26/01/2020 22:04:02	26012020	260120	220402	283.380	12.253680	-56.442485	283.490	-0.080	-0.050	0.300	283.430	-1.500	0.700																			1580076242.0	12.10	22.41
26/01/2020 22:04:03	26012020	260120	220403	283.620	12.253692	-56.442542	283.740	0.150	-0.360	0.280	283.670	-1.800	0.600																			1580076243.0	12.34	22.85
26/01/2020 22:04:04	26012020	260120	220404	283.870	12.253703	-56.442600	283.980	0.280	-0.480	0.270	283.920	-1.900	0.600																			1580076244.0	12.33	22.84
26/01/2020 22:04:05	26012020	260120	220405	284.050	12.253715	-56.442655	284.150	0.190	-0.390	0.280	284.080	-1.800	0.600																			1580076245.0	12.06	22.34
26/01/2020 22:04:06	26012020	260120	220406	284.100	12.253727	-56.442710	284.160	-0.070	-0.250	0.270	284.090	-1.700	0.600																			1580076246.0	11.79	21.84
26/01/2020 22:04:07	26012020	260120	220407	283.970	12.253738	-56.442763	284.010	-0.300	-0.270	0.240	283.930	-1.700	0.600																			1580076247.0	11.74	21.74
26/01/2020 22:04:08	26012020	260120	220408	283.730	12.253748	-56.442820	283.760	-0.300	-0.490	0.240	283.690	-1.900	0.600																			1580076248.0	11.94	22.11
26/01/2020 22:04:09	26012020	260120	220409	283.540	12.253758	-56.442877	283.590	-0.080	-0.690	0.280	283.500	-2.100	0.700																			1580076249.0	12.26	22.71
26/01/2020 22:04:10	26012020	260120	220410	283.370	12.253770	-56.442933	283.420	0.160	-0.630	0.450	283.340	-2.000	0.800																			1580076250.0	12.35	22.87
26/01/2020 22:04:11	26012020	260120	220411	283.160	12.253783	-56.442990	283.200	0.180	-0.300	0.610	283.120	-1.700	1.000																			1580076251.0	12.15	22.50
26/01/2020 22:04:12	26012020	260120	220412	282.960	12.253797	-56.443043	283.010	-0.010	0.090	0.530	282.930	-1.300	0.900																			1580076252.0	11.91	22.06
26/01/2020 22:04:13	26012020	260120	220413	282.880	12.253810	-56.443098	282.970	-0.240	0.270	0.140	282.890	-1.100	0.400																			1580076253.0	11.84	21.93
26/01/2020 22:04:14	26012020	260120	220414	283.020	12.253820	-56.443155	283.120	-0.300	0.110	-0.330	283.060	-1.300	-0.000																			1580076254.0	11.98	22.19
26/01/2020 22:04:15	26012020	260120	220415	283.320	12.253830	-56.443212	283.430	-0.090	-0.270	-0.670	283.390	-1.700	-0.300																			1580076255.0	12.26	22.71
26/01/2020 22:04:16	26012020	260120	220416	283.700	12.253840	-56.443268	283.790	0.240	-0.580	-0.680	283.770	-2.000	-0.300																			1580076256.0	12.43	23.02
26/01/2020 22:04:17	26012020	260120	220417	284.010	12.253852	-56.443327	284.100	0.460	-0.630	-0.400	284.060	-2.000	0.000																			1580076257.0	12.31	22.80
26/01/2020 22:04:18	26012020	260120	220418	284.190	12.253867	-56.443382	284.250	0.410	-0.440	-0.060	284.190	-1.900	0.200																			1580076258.0	12.02	22.26
26/01/2020 22:04:19	26012020	260120	220419	284.210	12.253880	-56.443435	284.250	0.180	-0.220	0.170	284.200	-1.600	0.500																			1580076259.0	11.78	21.82
26/01/2020 22:04:20	26012020	260120	220420	284.110	12.253893	-56.443488	284.140	-0.080	-0.140	0.220	284.110	-1.600	0.600																			1580076260.0	11.77	21.80
26/01/2020 22:04:21	26012020	260120	220421	283.910	12.253905	-56.443543	283.930	-0.280	-0.160	0.130	283.860	-1.600	0.500																			1580076261.0	11.94	22.11
26/01/2020 22:04:22	26012020	260120	220422	283.620	12.253917	-56.443600	283.630	-0.420	-0.140	0.040	283.560	-1.500	0.400																			1580076262.0	12.06	22.34
26/01/2020 22:04:23	26012020	260120	220423	283.280	12.253927	-56.443655	283.280	-0.460	-0.110	-0.030	283.220	-1.500	0.300																			1580076263.0	12.01	22.24
26/01/2020 22:04:24	26012020	260120	220424	282.980	12.253937	-56.443712	282.990	-0.350	-0.180	-0.060	282.930	-1.600	0.300																			1580076264.0	11.97	22.17
26/01/2020 22:04:25	26012020	260120	220425	282.790	12.253947	-56.443767	282.800	-0.060	-0.360	0.040	282.760	-1.800	0.400																			1580076265.0	12.08	22.37
26/01/2020 22:04:26	26012020	260120	220426	282.700	12.253960	-56.443823	282.740	0.300	-0.580	0.270	282.700	-2.000	0.700																			1580076266.0	12.21	22.61
26/01/2020 22:04:27	26012020	260120	220427	282.710	12.253973	-56.443880	282.780	0.550	-0.640	0.530	282.720	-2.000	0.900																			1580076267.0	12.26	22.71
26/01/2020 22:04:28	26012020	260120	220428	282.830	12.253988	-56.443935	282.940	0.540	-0.550	0.630	282.870	-1.900	1.000																			1580076268.0	12.15	22.50
26/01/2020 22:04:29	26012020	260120	220429	283.070	12.254002	-56.443990	283.190	0.310	-0.380	0.480	283.130	-1.800	0.800																			1580076269.0	11.99	22.21
26/01/2020 22:04:30	26012020	260120	220430	283.340	12.254015	-56.444045	283.460	-0.020	-0.250	0.180	283.390	-1.600	0.500																			1580076270.0	11.96	22.15
26/01/2020 22:04:31	26012020	260120	220431	283.540	12.254027	-56.444102	283.620	-0.340	-0.120	-0.060	283.570	-1.500	0.300																			1580076271.0	12.05	22.32
26/01/2020 22:04:32	26012020	260120	220432	283.590	12.254037	-56.444157	283.630	-0.540	0.010	-0.150	283.590	-1.400	0.200																			1580076272.0	12.08	22.37
26/01/2020 22:04:33	26012020	260120	220433	283.480	12.254045	-56.444213	283.510	-0.550	0.070	-0.070	283.450	-1.300	0.300																			1580076273.0	12.05	22.32
26/01/2020 22:04:34	26012020	260120	220434	283.320	12.254055	-56.444270	283.360	-0.320	-0.030	0.130	283.290	-1.500	0.500																			1580076274.0	12.09	22.39
26/01/2020 22:04:35	26012020	260120	220435	283.200	12.254067	-56.444327	283.260	0.060	-0.230	0.370	283.180	-1.700	0.800																			1580076275.0	12.20	22.59
26/01/2020 22:04:36	26012020	260120	220436	283.100	12.254078	-56.444383	283.150	0.390	-0.390	0.580	283.070	-1.800	0.900																			1580076276.0	12.26	22.71
26/01/2020 22:04:37	26012020	260120	220437	282.950	12.254093	-56.444438	283.000	0.490	-0.370	0.590	282.920	-1.800	0.900																			1580076277.0	12.15	22.50
26/01/2020 22:04:38	26012020	260120	220438	282.780	12.254105	-56.444493	282.820	0.300	-0.200	0.380	282.750	-1.600	0.700																			1580076278.0	11.92	22.08
26/01/2020 22:04:39	26012020	260120	220439	282.650	12.254117	-56.444548	282.700	-0.040	-0.090	0.050	282.640	-1.500	0.400																			1580076279.0	11.71	21.69
26/01/2020 22:04:40	26012020	260120	220440	282.640	12.254127	-56.444602	282.700	-0.290	-0.260	-0.330	282.650	-1.700	-0.000																			1580076280.0	11.76	21.78
26/01/2020 22:04:41	26012020	260120	220441	282.750	12.254137	-56.444658	282.850	-0.270	-0.610	-0.590	282.790	-2.100	-0.200																			1580076281.0	12.07	22.35
26/01/2020 22:04:42	26012020	260120	220442	282.950	12.254145	-56.444717	283.050	0.010	-0.870	-0.540	282.990	-2.300	-0.100																			1580076282.0	12.34	22.85
26/01/2020 22:04:43	26012020	260120	220443	283.120	12.254157	-56.444773	283.210	0.340	-0.800	-0.150	283.150	-2.200	0.300																			1580076283.0	12.33	22.84
26/01/2020 22:04:44	26012020	260120	220444	283.210	12.254170	-56.444828	283.280	0.490	-0.430	0.320	283.210	-1.900	0.600																			1580076284.0	12.11	22.43
26/01/2020 22:04:45	26012020	260120	220445	283.200	12.254185	-56.444883	283.250	0.360	0.000	0.670	283.180	-1.400	1.000																			1580076285.0	11.90	22.04
26/01/2020 22:04:46	26012020	260120	220446	283.060	12.254200	-56.444937	283.100	0.010	0.240	0.660	283.060	-1.200	1.100																			1580076286.0	11.83	21.91
26/01/2020 22:04:47	26012020	260120	220447	282.890	12.254212	-56.444992	282.940	-0.390	0.230	0.290	282.870	-1.200	0.600																			1580076287.0	11.96	22.15
26/01/2020 22:04:48	26012020	260120	220448	282.800	12.254222	-56.445048	282.840	-0.660	0.010	-0.150	282.790	-1.400	0.200																			1580076288.0	12.12	22.45
26/01/2020 22:04:49	26012020	260120	220449	282.770	12.254230	-56.445105	282.820	-0.670	-0.340	-0.390	282.770	-1.800	-0.000																			1580076289.0	12.24	22.67
26/01/2020 22:04:50	26012020	260120	220450	282.820	12.254238	-56.445163	282.890	-0.400	-0.700	-0.350	282.840	-2.100	0.000																			1580076290.0	12.34	22.85
26/01/2020 22:04:51	26012020	260120	220451	282.930	12.254250	-56.445222	283.010	0.010	-0.850	-0.110	282.950	-2.200	0.300																			1580076291.0	12.40	22.96
26/01/2020 22:04:52	26012020	260120	220452	283.030	12.254262	-56.445278	283.090	0.360	-0.640	0.190	283.030	-2.000	0.600																			1580076292.0	12.28	22.74
26/01/2020 22:04:53	26012020	260120	220453	283.020	12.254275	-56.445333	283.070	0.490	-0.140	0.460	283.000	-1.500	0.800																			1580076293.0	11.97	22.17
26/01/2020 22:04:54	26012020	260120	220454	282.910	12.254287	-56.445387	282.950	0.410	0.310	0.590	282.870	-1.100	0.900																			1580076294.0	11.69	21.65
26/01/2020 22:04:55	26012020	260120	220455	282.700	12.254300	-56.445440	282.720	0.240	0.470	0.450	282.660	-0.900	0.800																			1580076295.0	11.68	21.63
26/01/2020 22:04:56	26012020	260120	220456	282.480	12.254312	-56.445495	282.490	0.090	0.280	0.130	282.450	-1.200	0.400																			1580076296.0	11.86	21.96
26/01/2020 22:04:57	26012020	260120	220457	282.370	12.254322	-56.445552	282.400	0.020	-0.160	-0.210	282.370	-1.600	0.100																			1580076297.0	12.07	22.35
26/01/2020 22:04:58	26012020	260120	220458	282.430	12.254332	-56.445608	282.500	0.040	-0.680	-0.440	282.430	-2.000	-0.000																			1580076298.0	12.22	22.63
26/01/2020 22:04:59	26012020	260120	220459	282.630	12.254343	-56.445665	282.710	0.110	-1.050	-0.470	282.670	-2.500	-0.100																			1580076299.0	12.28	22.74
26/01/2020 22:05:00	26012020	260120	220500	282.840	12.254355	-56.445722	282.920	0.100	-1.100	-0.270	282.870	-2.500	0.100	1014.80	26.10	26.10	20.80	20.80	-1.00	72.00	72.00	380.00	25.40	35.00	5.00	50.00	3.60	24	3761.00	27.70	27.60	1580076300.0	12.21	22.61
26/01/2020 22:05:01	26012020	260120	220501	282.950	12.254367	-56.445777	283.020	-0.040	-0.840	0.020	282.970	-2.200	0.400																			1580076301.0	12.05	22.32
26/01/2020 22:05:02	26012020	260120	220502	282.980	12.254380	-56.445832	283.050	-0.270	-0.450	0.220	282.980	-1.800	0.600																			1580076302.0	11.87	21.98
26/01/2020 22:05:03	26012020	260120	220503	282.970	12.254392	-56.445887	283.030	-0.480	-0.140	0.210	282.970	-1.500	0.600																			1580076303.0	11.89	22.02
26/01/2020 22:05:04	26012020	260120	220504	282.930	12.254402	-56.445943	282.970	-0.530	-0.010	0.040	282.920	-1.400	0.400																			1580076304.0	12.07	22.35
26/01/2020 22:05:05	26012020	260120	220505	282.890	12.254412	-56.446000	282.940	-0.370	-0.030	-0.110	282.880	-1.400	0.200																			1580076305.0	12.29	22.76
26/01/2020 22:05:06	26012020	260120	220506	282.880	12.254422	-56.446058	282.950	-0.050	-0.090	-0.100	282.880	-1.500	0.300																			1580076306.0	12.46	23.08
26/01/2020 22:05:07	26012020	260120	220507	282.880	12.254433	-56.446115	282.940	0.230	-0.020	0.080	282.870	-1.400	0.500																			1580076307.0	12.45	23.06
26/01/2020 22:05:08	26012020	260120	220508	282.810	12.254445	-56.446172	282.850	0.310	0.210	0.300	282.810	-1.300	0.600																			1580076308.0	12.20	22.59
26/01/2020 22:05:09	26012020	260120	220509	282.670	12.254458	-56.446227	282.720	0.200	0.380	0.410	282.650	-1.000	0.800																			1580076309.0	11.89	22.02
26/01/2020 22:05:10	26012020	260120	220510	282.570	12.254472	-56.446280	282.620	0.050	0.290	0.370	282.550	-1.200	0.700																			1580076310.0	11.75	21.76
26/01/2020 22:05:11	26012020	260120	220511	282.500	12.254482	-56.446335	282.570	0.040	-0.140	0.240	282.490	-1.600	0.600																			1580076311.0	11.86	21.96
26/01/2020 22:05:12	26012020	260120	220512	282.480	12.254493	-56.446392	282.560	0.190	-0.700	0.060	282.490	-2.200	0.400																			1580076312.0	12.11	22.43
26/01/2020 22:05:13	26012020	260120	220513	282.490	12.254503	-56.446448	282.560	0.390	-1.100	-0.070	282.490	-2.500	0.300																			1580076313.0	12.26	22.71
26/01/2020 22:05:14	26012020	260120	220514	282.470	12.254515	-56.446505	282.520	0.490	-1.140	-0.050	282.450	-2.500	0.300																			1580076314.0	12.16	22.52
26/01/2020 22:05:15	26012020	260120	220515	282.410	12.254527	-56.446560	282.460	0.360	-0.870	0.050	282.400	-2.200	0.400																			1580076315.0	11.97	22.17
26/01/2020 22:05:16	26012020	260120	220516	282.380	12.254540	-56.446615	282.450	0.020	-0.440	0.110	282.380	-1.800	0.500																			1580076316.0	11.83	21.91
26/01/2020 22:05:17	26012020	260120	220517	282.410	12.254550	-56.446670	282.480	-0.400	-0.090	0.030	282.420	-1.500	0.400																			1580076317.0	11.79	21.84
26/01/2020 22:05:18	26012020	260120	220518	282.480	12.254560	-56.446725	282.560	-0.660	0.030	-0.140	282.500	-1.400	0.200																			1580076318.0	11.94	22.11
26/01/2020 22:05:19	26012020	260120	220519	282.580	12.254570	-56.446782	282.650	-0.640	-0.090	-0.300	282.590	-1.500	0.000																			1580076319.0	12.25	22.69
26/01/2020 22:05:20	26012020	260120	220520	282.670	12.254578	-56.446840	282.760	-0.380	-0.230	-0.380	282.700	-1.600	-0.000																			1580076320.0	12.49	23.13
26/01/2020 22:05:21	26012020	260120	220521	282.770	12.254588	-56.446898	282.850	-0.050	-0.250	-0.280	282.790	-1.600	0.100																			1580076321.0	12.49	23.13
26/01/2020 22:05:22	26012020	260120	220522	282.810	12.254600	-56.446955	282.860	0.180	-0.150	0.040	282.810	-1.600	0.300																			1580076322.0	12.29	22.76
26/01/2020 22:05:23	26012020	260120	220523	282.760	12.254613	-56.447012	282.810	0.260	-0.090	0.390	282.750	-1.500	0.800																			1580076323.0	12.11	22.43
26/01/2020 22:05:24	26012020	260120	220524	282.700	12.254628	-56.447067	282.750	0.240	-0.130	0.520	282.690	-1.500	0.900																			1580076324.0	12.10	22.41
26/01/2020 22:05:25	26012020	260120	220525	282.640	12.254642	-56.447122	282.700	0.170	-0.180	0.390	282.630	-1.600	0.700																			1580076325.0	12.16	22.52
26/01/2020 22:05:26	26012020	260120	220526	282.570	12.254652	-56.447178	282.640	0.070	-0.200	0.130	282.550	-1.600	0.400																			1580076326.0	12.12	22.45
26/01/2020 22:05:27	26012020	260120	220527	282.480	12.254663	-56.447235	282.530	-0.040	-0.160	-0.080	282.450	-1.600	0.300																			1580076327.0	12.03	22.28
26/01/2020 22:05:28	26012020	260120	220528	282.380	12.254672	-56.447290	282.430	-0.120	-0.100	-0.140	282.360	-1.500	0.200																			1580076328.0	11.91	22.06
26/01/2020 22:05:29	26012020	260120	220529	282.330	12.254682	-56.447345	282.380	-0.090	-0.180	-0.040	282.320	-1.600	0.300																			1580076329.0	11.86	21.96
26/01/2020 22:05:30	26012020	260120	220530	282.340	12.254693	-56.447400	282.420	0.070	-0.410	0.120	282.350	-1.900	0.500																			1580076330.0	11.98	22.19
26/01/2020 22:05:31	26012020	260120	220531	282.420	12.254705	-56.447457	282.520	0.260	-0.650	0.230	282.450	-2.100	0.600																			1580076331.0	12.18	22.56
26/01/2020 22:05:32	26012020	260120	220532	282.550	12.254717	-56.447513	282.660	0.380	-0.700	0.250	282.580	-2.100	0.600																			1580076332.0	12.23	22.65
26/01/2020 22:05:33	26012020	260120	220533	282.680	12.254728	-56.447570	282.770	0.350	-0.510	0.190	282.700	-1.900	0.500																			1580076333.0	12.11	22.43
26/01/2020 22:05:34	26012020	260120	220534	282.790	12.254740	-56.447625	282.890	0.160	-0.220	0.050	282.790	-1.700	0.400																			1580076334.0	11.92	22.08
26/01/2020 22:05:35	26012020	260120	220535	282.890	12.254752	-56.447680	282.970	-0.110	-0.080	-0.190	282.920	-1.500	0.100																			1580076335.0	11.84	21.93
26/01/2020 22:05:36	26012020	260120	220536	283.020	12.254762	-56.447735	283.090	-0.340	-0.200	-0.510	283.020	-1.500	-0.100																			1580076336.0	11.99	22.21
26/01/2020 22:05:37	26012020	260120	220537	283.210	12.254772	-56.447792	283.280	-0.410	-0.510	-0.790	283.250	-2.000	-0.500																			1580076337.0	12.27	22.72
26/01/2020 22:05:38	26012020	260120	220538	283.390	12.254782	-56.447850	283.450	-0.310	-0.780	-0.840	283.430	-2.200	-0.500																			1580076338.0	12.53	23.21
26/01/2020 22:05:39	26012020	260120	220539	283.520	12.254792	-56.447908	283.570	-0.130	-0.760	-0.550	283.530	-2.100	-0.100																			1580076339.0	12.54	23.22
26/01/2020 22:05:40	26012020	260120	220540	283.510	12.254805	-56.447965	283.530	-0.030	-0.390	-0.090	283.480	-1.700	0.300																			1580076340.0	12.34	22.85
26/01/2020 22:05:41	26012020	260120	220541	283.300	12.254818	-56.448022	283.310	-0.050	0.150	0.310	283.230	-1.200	0.700																			1580076341.0	12.05	22.32
26/01/2020 22:05:42	26012020	260120	220542	282.920	12.254830	-56.448075	282.920	-0.170	0.620	0.460	282.840	-0.800	0.800																			1580076342.0	11.86	21.96
26/01/2020 22:05:43	26012020	260120	220543	282.520	12.254842	-56.448130	282.520	-0.270	0.780	0.390	282.440	-0.600	0.700																			1580076343.0	11.82	21.89
26/01/2020 22:05:44	26012020	260120	220544	282.210	12.254853	-56.448185	282.230	-0.220	0.470	0.230	282.170	-1.000	0.600																			1580076344.0	11.91	22.06
26/01/2020 22:05:45	26012020	260120	220545	282.080	12.254863	-56.448242	282.130	0.060	-0.150	0.080	282.070	-1.600	0.400																			1580076345.0	12.15	22.50
26/01/2020 22:05:46	26012020	260120	220546	282.140	12.254873	-56.448300	282.230	0.470	-0.790	-0.010	282.180	-2.300	0.300																			1580076346.0	12.33	22.84
26/01/2020 22:05:47	26012020	260120	220547	282.410	12.254887	-56.448357	282.540	0.800	-1.170	-0.030	282.490	-2.600	0.300																			1580076347.0	12.30	22.78
26/01/2020 22:05:48	26012020	260120	220548	282.810	12.254898	-56.448412	282.950	0.840	-1.170	0.030	282.810	-2.600	0.400																			1580076348.0	12.13	22.46
26/01/2020 22:05:49	26012020	260120	220549	283.230	12.254913	-56.448467	283.340	0.540	-0.850	0.090	283.290	-2.200	0.400																			1580076349.0	11.88	22.00
26/01/2020 22:05:50	26012020	260120	220550	283.490	12.254925	-56.448520	283.560	0.030	-0.430	0.130	283.520	-1.800	0.500																			1580076350.0	11.71	21.69
26/01/2020 22:05:51	26012020	260120	220551	283.550	12.254937	-56.448575	283.600	-0.440	-0.130	0.160	283.550	-1.500	0.500																			1580076351.0	11.77	21.80
26/01/2020 22:05:52	26012020	260120	220552	283.510	12.254947	-56.448630	283.550	-0.690	-0.030	0.150	283.490	-1.400	0.500																			1580076352.0	12.02	22.26
26/01/2020 22:05:53	26012020	260120	220553	283.410	12.254957	-56.448688	283.440	-0.680	-0.060	0.150	283.380	-1.500	0.500																			1580076353.0	12.31	22.80
26/01/2020 22:05:54	26012020	260120	220554	283.250	12.254967	-56.448745	283.270	-0.500	-0.100	0.230	283.200	-1.500	0.600																			1580076354.0	12.44	23.04
26/01/2020 22:05:55	26012020	260120	220555	283.020	12.254977	-56.448803	283.040	-0.250	-0.090	0.360	282.970	-1.500	0.700																			1580076355.0	12.37	22.91
26/01/2020 22:05:56	26012020	260120	220556	282.780	12.254988	-56.448860	282.820	-0.000	-0.120	0.520	282.740	-1.500	0.900																			1580076356.0	12.27	22.72
26/01/2020 22:05:57	26012020	260120	220557	282.620	12.255000	-56.448917	282.680	0.220	-0.190	0.650	282.600	-1.600	1.000																			1580076357.0	12.23	22.65
26/01/2020 22:05:58	26012020	260120	220558	282.570	12.255013	-56.448973	282.640	0.370	-0.260	0.630	282.560	-1.700	1.000																			1580076358.0	12.21	22.61
26/01/2020 22:05:59	26012020	260120	220559	282.560	12.255027	-56.449028	282.640	0.370	-0.240	0.450	282.560	-1.600	0.800																			1580076359.0	12.14	22.48
26/01/2020 22:06:00	26012020	260120	220600	282.600	12.255037	-56.449085	282.670	0.240	-0.160	0.170	282.600	-1.600	0.600	1014.80	26.10	26.10	20.90	20.90	-1.00	73.00	72.00	380.00	25.40	36.00	4.60	56.00	3.70	22	3792.00	27.60	27.60	1580076360.0	12.00	22.22
26/01/2020 22:06:01	26012020	260120	220601	282.670	12.255048	-56.449140	282.760	0.080	-0.160	-0.120	282.690	-1.600	0.200																			1580076361.0	11.91	22.06
26/01/2020 22:06:02	26012020	260120	220602	282.760	12.255058	-56.449195	282.830	0.000	-0.280	-0.300	282.770	-1.700	0.000																			1580076362.0	11.98	22.19
26/01/2020 22:06:03	26012020	260120	220603	282.830	12.255068	-56.449252	282.910	0.030	-0.450	-0.330	282.840	-1.900	0.000																			1580076363.0	12.13	22.46
26/01/2020 22:06:04	26012020	260120	220604	282.920	12.255080	-56.449308	282.990	0.050	-0.500	-0.200	282.930	-1.900	0.200																			1580076364.0	12.18	22.56
26/01/2020 22:06:05	26012020	260120	220605	283.020	12.255092	-56.449363	283.120	0.030	-0.430	-0.000	283.050	-1.800	0.400																			1580076365.0	12.07	22.35
26/01/2020 22:06:06	26012020	260120	220606	283.160	12.255103	-56.449420	283.250	-0.010	-0.330	0.130	283.190	-1.700	0.500																			1580076366.0	11.96	22.15
26/01/2020 22:06:07	26012020	260120	220607	283.270	12.255117	-56.449475	283.360	-0.030	-0.290	0.170	283.300	-1.700	0.500																			1580076367.0	11.96	22.15
26/01/2020 22:06:08	26012020	260120	220608	283.360	12.255127	-56.449530	283.430	-0.030	-0.290	0.080	283.370	-1.700	0.400																			1580076368.0	12.06	22.34
26/01/2020 22:06:09	26012020	260120	220609	283.380	12.255138	-56.449587	283.440	-0.050	-0.330	-0.100	283.380	-1.700	0.200																			1580076369.0	12.15	22.50
26/01/2020 22:06:10	26012020	260120	220610	283.320	12.255148	-56.449643	283.350	-0.060	-0.390	-0.210	283.300	-1.800	0.200																			1580076370.0	12.23	22.65
26/01/2020 22:06:11	26012020	260120	220611	283.170	12.255160	-56.449700	283.180	-0.050	-0.370	-0.170	283.140	-1.800	0.200																			1580076371.0	12.27	22.72
26/01/2020 22:06:12	26012020	260120	220612	282.970	12.255170	-56.449757	282.970	-0.060	-0.250	0.010	282.970	-1.700	0.300																			1580076372.0	12.20	22.59
26/01/2020 22:06:13	26012020	260120	220613	282.760	12.255182	-56.449813	282.780	-0.130	-0.110	0.200	282.720	-1.500	0.600																			1580076373.0	12.07	22.35
26/01/2020 22:06:14	26012020	260120	220614	282.640	12.255193	-56.449868	282.690	-0.190	-0.070	0.230	282.630	-1.500	0.600																			1580076374.0	12.00	22.22
26/01/2020 22:06:15	26012020	260120	220615	282.670	12.255205	-56.449925	282.760	-0.170	-0.190	0.060	282.700	-1.600	0.400																			1580076375.0	12.08	22.37
26/01/2020 22:06:16	26012020	260120	220616	282.890	12.255215	-56.449982	283.000	-0.010	-0.380	-0.150	282.950	-1.800	0.200																			1580076376.0	12.23	22.65
26/01/2020 22:06:17	26012020	260120	220617	283.170	12.255227	-56.450038	283.280	0.200	-0.410	-0.210	283.220	-1.800	0.200																			1580076377.0	12.32	22.82
26/01/2020 22:06:18	26012020	260120	220618	283.340	12.255240	-56.450095	283.410	0.310	-0.220	-0.090	283.350	-1.600	0.300																			1580076378.0	12.20	22.59
26/01/2020 22:06:19	26012020	260120	220619	283.330	12.255252	-56.450150	283.380	0.220	0.020	0.060	283.310	-1.400	0.400																			1580076379.0	11.94	22.11
26/01/2020 22:06:20	26012020	260120	220620	283.270	12.255265	-56.450203	283.320	0.020	0.050	0.060	283.260	-1.400	0.400																			1580076380.0	11.83	21.91
26/01/2020 22:06:21	26012020	260120	220621	283.280	12.255277	-56.450260	283.340	-0.110	-0.220	-0.080	283.280	-1.700	0.300																			1580076381.0	11.98	22.19
26/01/2020 22:06:22	26012020	260120	220622	283.310	12.255287	-56.450317	283.360	-0.070	-0.610	-0.220	283.310	-2.100	0.100																			1580076382.0	12.28	22.74
26/01/2020 22:06:23	26012020	260120	220623	283.270	12.255298	-56.450373	283.310	0.060	-0.810	-0.200	283.250	-2.200	0.200																			1580076383.0	12.42	23.00
26/01/2020 22:06:24	26012020	260120	220624	283.120	12.255308	-56.450432	283.150	0.120	-0.660	0.010	283.120	-2.100	0.300																			1580076384.0	12.28	22.74
26/01/2020 22:06:25	26012020	260120	220625	282.890	12.255320	-56.450487	282.910	0.020	-0.280	0.290	282.840	-1.600	0.700																			1580076385.0	11.99	22.21
26/01/2020 22:06:26	26012020	260120	220626	282.700	12.255333	-56.450540	282.750	-0.150	0.050	0.370	282.700	-1.400	0.700																			1580076386.0	11.78	21.82
26/01/2020 22:06:27	26012020	260120	220627	282.660	12.255345	-56.450595	282.730	-0.250	0.090	0.160	282.670	-1.300	0.500																			1580076387.0	11.84	21.93
26/01/2020 22:06:28	26012020	260120	220628	282.780	12.255355	-56.450652	282.870	-0.210	-0.180	-0.200	282.820	-1.600	0.100																			1580076388.0	12.14	22.48
26/01/2020 22:06:29	26012020	260120	220629	283.020	12.255367	-56.450710	283.120	-0.080	-0.460	-0.470	283.080	-1.900	-0.100																			1580076389.0	12.46	23.08
26/01/2020 22:06:30	26012020	260120	220630	283.310	12.255377	-56.450767	283.400	0.000	-0.510	-0.520	283.360	-1.900	-0.100																			1580076390.0	12.45	23.06
26/01/2020 22:06:31	26012020	260120	220631	283.530	12.255388	-56.450823	283.600	-0.000	-0.370	-0.380	283.560	-1.800	0.000																			1580076391.0	12.21	22.61
26/01/2020 22:06:32	26012020	260120	220632	283.650	12.255400	-56.450880	283.720	-0.020	-0.210	-0.170	283.670	-1.600	0.200																			1580076392.0	12.01	22.24
26/01/2020 22:06:33	26012020	260120	220633	283.720	12.255412	-56.450935	283.770	0.020	-0.170	0.000	283.720	-1.600	0.400																			1580076393.0	12.01	22.24
26/01/2020 22:06:34	26012020	260120	220634	283.690	12.255423	-56.450992	283.720	0.080	-0.180	0.130	283.670	-1.600	0.500																			1580076394.0	12.12	22.45
26/01/2020 22:06:35	26012020	260120	220635	283.530	12.255437	-56.451047	283.540	0.060	-0.120	0.180	283.480	-1.500	0.500																			1580076395.0	12.16	22.52
26/01/2020 22:06:36	26012020	260120	220636	283.300	12.255448	-56.451102	283.320	-0.050	-0.040	0.090	283.260	-1.400	0.400																			1580076396.0	11.99	22.21
26/01/2020 22:06:37	26012020	260120	220637	283.140	12.255460	-56.451158	283.170	-0.110	-0.150	-0.110	283.130	-1.600	0.200																			1580076397.0	11.91	22.06
26/01/2020 22:06:38	26012020	260120	220638	283.100	12.255470	-56.451213	283.140	0.050	-0.450	-0.300	283.100	-1.800	0.100																			1580076398.0	12.12	22.45
26/01/2020 22:06:39	26012020	260120	220639	283.100	12.255482	-56.451272	283.130	0.310	-0.630	-0.300	283.090	-2.000	0.100																			1580076399.0	12.38	22.93
26/01/2020 22:06:40	26012020	260120	220640	283.060	12.255495	-56.451328	283.090	0.420	-0.470	-0.090	283.050	-1.800	0.300																			1580076400.0	12.28	22.74
26/01/2020 22:06:41	26012020	260120	220641	283.010	12.255508	-56.451382	283.050	0.270	-0.110	0.160	283.000	-1.500	0.500																			1580076401.0	11.94	22.11
26/01/2020 22:06:42	26012020	260120	220642	282.980	12.255522	-56.451437	283.030	-0.060	0.110	0.210	282.980	-1.300	0.600																			1580076402.0	11.69	21.65
26/01/2020 22:06:43	26012020	260120	220643	283.050	12.255533	-56.451490	283.120	-0.310	-0.050	-0.030	283.080	-1.500	0.300																			1580076403.0	11.78	21.82
26/01/2020 22:06:44	26012020	260120	220644	283.250	12.255545	-56.451547	283.340	-0.330	-0.550	-0.440	283.310	-2.000	-0.100																			1580076404.0	12.17	22.54
26/01/2020 22:06:45	26012020	260120	220645	283.520	12.255555	-56.451605	283.600	-0.200	-1.000	-0.710	283.560	-2.400	-0.400																			1580076405.0	12.59	23.32
26/01/2020 22:06:46	26012020	260120	220646	283.720	12.255565	-56.451665	283.790	-0.090	-1.040	-0.650	283.750	-2.400	-0.300																			1580076406.0	12.64	23.41
26/01/2020 22:06:47	26012020	260120	220647	283.760	12.255575	-56.451722	283.780	-0.120	-0.590	-0.260	283.740	-1.900	0.200																			1580076407.0	12.28	22.74
26/01/2020 22:06:48	26012020	260120	220648	283.550	12.255588	-56.451777	283.530	-0.270	0.070	0.240	283.550	-1.500	0.500																			1580076408.0	11.86	21.96
26/01/2020 22:06:49	26012020	260120	220649	283.190	12.255600	-56.451830	283.180	-0.380	0.500	0.610	283.110	-0.900	1.000																			1580076409.0	11.66	21.59
26/01/2020 22:06:50	26012020	260120	220650	282.830	12.255612	-56.451885	282.830	-0.300	0.480	0.640	282.830	-0.900	1.000																			1580076410.0	11.85	21.95
26/01/2020 22:06:51	26012020	260120	220651	282.610	12.255623	-56.451942	282.650	0.040	0.080	0.470	282.590	-1.400	0.800																			1580076411.0	12.23	22.65
26/01/2020 22:06:52	26012020	260120	220652	282.580	12.255635	-56.451998	282.640	0.510	-0.380	0.310	282.590	-1.800	0.700																			1580076412.0	12.52	23.19
26/01/2020 22:06:53	26012020	260120	220653	282.650	12.255648	-56.452057	282.730	0.810	-0.560	0.220	282.660	-2.000	0.600																			1580076413.0	12.52	23.19
26/01/2020 22:06:54	26012020	260120	220654	282.740	12.255663	-56.452113	282.820	0.740	-0.390	0.200	282.750	-1.800	0.600																			1580076414.0	12.18	22.56
26/01/2020 22:06:55	26012020	260120	220655	282.780	12.255677	-56.452167	282.850	0.360	-0.130	0.200	282.780	-1.500	0.600																			1580076415.0	11.79	21.84
26/01/2020 22:06:56	26012020	260120	220656	282.770	12.255688	-56.452220	282.840	-0.080	-0.070	0.150	282.770	-1.500	0.500																			1580076416.0	11.65	21.58
26/01/2020 22:06:57	26012020	260120	220657	282.760	12.255698	-56.452275	282.840	-0.370	-0.280	0.060	282.760	-1.700	0.400																			1580076417.0	11.84	21.93
26/01/2020 22:06:58	26012020	260120	220658	282.760	12.255708	-56.452332	282.830	-0.420	-0.590	0.020	282.760	-2.000	0.400																			1580076418.0	12.13	22.46
26/01/2020 22:06:59	26012020	260120	220659	282.790	12.255718	-56.452388	282.870	-0.290	-0.800	0.100	282.800	-2.200	0.500	1014.90	26.10	26.10	20.90	20.90	-1.00	73.00	72.00	380.00	25.40	35.00	5.10	48.00	3.60	20	3678.00	27.60	27.60	1580076419.0	12.27	22.72
26/01/2020 22:07:00	26012020	260120	220700	282.870	12.255728	-56.452445	282.960	-0.110	-0.790	0.320	282.890	-2.200	0.700																			1580076420.0	12.22	22.63
26/01/2020 22:07:01	26012020	260120	220701	282.990	12.255738	-56.452502	283.070	-0.010	-0.600	0.530	283.020	-2.000	0.900																			1580076421.0	12.07	22.35
26/01/2020 22:07:02	26012020	260120	220702	283.130	12.255750	-56.452557	283.210	-0.020	-0.350	0.600	283.130	-1.800	1.000																			1580076422.0	11.99	22.21
26/01/2020 22:07:03	26012020	260120	220703	283.280	12.255763	-56.452613	283.350	-0.060	-0.150	0.390	283.310	-1.500	0.700																			1580076423.0	12.03	22.28
26/01/2020 22:07:04	26012020	260120	220704	283.410	12.255773	-56.452668	283.470	-0.080	-0.030	0.040	283.430	-1.400	0.400																			1580076424.0	12.16	22.52
26/01/2020 22:07:05	26012020	260120	220705	283.500	12.255785	-56.452727	283.560	-0.050	0.020	-0.250	283.520	-1.400	0.100																			1580076425.0	12.26	22.71
26/01/2020 22:07:06	26012020	260120	220706	283.570	12.255795	-56.452783	283.600	0.030	0.030	-0.370	283.580	-1.400	-0.000																			1580076426.0	12.31	22.80
26/01/2020 22:07:07	26012020	260120	220707	283.570	12.255807	-56.452840	283.600	0.100	0.030	-0.240	283.560	-1.400	0.200																			1580076427.0	12.29	22.76
26/01/2020 22:07:08	26012020	260120	220708	283.470	12.255820	-56.452897	283.470	0.130	0.060	-0.000	283.430	-1.300	0.400																			1580076428.0	12.21	22.61
26/01/2020 22:07:09	26012020	260120	220709	283.250	12.255833	-56.452952	283.240	0.070	0.100	0.130	283.190	-1.300	0.500																			1580076429.0	12.06	22.34
26/01/2020 22:07:10	26012020	260120	220710	282.980	12.255845	-56.453007	282.970	-0.020	0.020	0.100	282.930	-1.400	0.400																			1580076430.0	11.91	22.06
26/01/2020 22:07:11	26012020	260120	220711	282.830	12.255857	-56.453062	282.870	-0.030	-0.310	-0.120	282.830	-1.800	0.200																			1580076431.0	11.90	22.04
26/01/2020 22:07:12	26012020	260120	220712	282.890	12.255867	-56.453118	282.960	0.080	-0.800	-0.390	282.930	-2.200	-0.100																			1580076432.0	12.13	22.46
26/01/2020 22:07:13	26012020	260120	220713	283.130	12.255877	-56.453175	283.200	0.200	-1.120	-0.590	283.190	-2.500	-0.200																			1580076433.0	12.32	22.82
26/01/2020 22:07:14	26012020	260120	220714	283.430	12.255888	-56.453232	283.510	0.190	-1.030	-0.590	283.490	-2.400	-0.200																			1580076434.0	12.25	22.69
26/01/2020 22:07:15	26012020	260120	220715	283.720	12.255900	-56.453287	283.790	0.010	-0.620	-0.370	283.770	-1.900	0.000																			1580076435.0	11.97	22.17
26/01/2020 22:07:16	26012020	260120	220716	283.930	12.255913	-56.453342	283.970	-0.200	-0.170	-0.110	283.930	-1.700	0.200																			1580076436.0	11.75	21.76
26/01/2020 22:07:17	26012020	260120	220717	284.030	12.255925	-56.453397	284.070	-0.290	0.040	0.090	284.040	-1.400	0.500																			1580076437.0	11.84	21.93
26/01/2020 22:07:18	26012020	260120	220718	284.020	12.255937	-56.453452	284.050	-0.190	0.000	0.170	284.000	-1.400	0.500																			1580076438.0	12.16	22.52
26/01/2020 22:07:19	26012020	260120	220719	283.860	12.255950	-56.453510	283.840	-0.030	-0.060	0.170	283.800	-1.400	0.500																			1580076439.0	12.43	23.02
26/01/2020 22:07:20	26012020	260120	220720	283.530	12.255962	-56.453567	283.500	0.030	0.070	0.170	283.450	-1.300	0.500																			1580076440.0	12.39	22.95
26/01/2020 22:07:21	26012020	260120	220721	283.140	12.255973	-56.453623	283.110	-0.060	0.280	0.140	283.060	-1.100	0.500																			1580076441.0	12.05	22.32
26/01/2020 22:07:22	26012020	260120	220722	282.830	12.255985	-56.453677	282.820	-0.160	0.210	-0.040	282.780	-1.200	0.300																			1580076442.0	11.81	21.87
26/01/2020 22:07:23	26012020	260120	220723	282.710	12.255995	-56.453733	282.750	-0.070	-0.270	-0.390	282.720	-1.700	-0.100																			1580076443.0	11.96	22.15
26/01/2020 22:07:24	26012020	260120	220724	282.830	12.256007	-56.453790	282.900	0.230	-0.900	-0.750	282.880	-2.400	-0.400																			1580076444.0	12.37	22.91
26/01/2020 22:07:25	26012020	260120	220725	283.140	12.256018	-56.453848	283.210	0.570	-1.240	-0.910	283.220	-2.600	-0.500																			1580076445.0	12.58	23.30
26/01/2020 22:07:26	26012020	260120	220726	283.510	12.256030	-56.453907	283.580	0.690	-1.040	-0.670	283.570	-2.400	-0.300																			1580076446.0	12.40	22.96
26/01/2020 22:07:27	26012020	260120	220727	283.710	12.256045	-56.453962	283.750	0.430	-0.350	-0.180	283.710	-1.600	0.200																			1580076447.0	12.02	22.26
26/01/2020 22:07:28	26012020	260120	220728	283.610	12.256058	-56.454013	283.590	-0.180	0.460	0.230	283.560	-0.800	0.600																			1580076448.0	11.57	21.43
26/01/2020 22:07:29	26012020	260120	220729	283.310	12.256072	-56.454065	283.280	-0.810	0.880	0.320	283.250	-0.500	0.700																			1580076449.0	11.34	21.00
26/01/2020 22:07:30	26012020	260120	220730	283.030	12.256082	-56.454120	283.020	-1.050	0.510	0.090	283.000	-1.000	0.400																			1580076450.0	11.60	21.48
26/01/2020 22:07:31	26012020	260120	220731	282.910	12.256090	-56.454177	282.920	-0.680	-0.510	-0.200	282.900	-2.000	0.100																			1580076451.0	12.29	22.76
26/01/2020 22:07:32	26012020	260120	220732	282.930	12.256098	-56.454238	282.970	0.100	-1.480	-0.310	282.950	-2.900	0.100																			1580076452.0	12.96	24.00
26/01/2020 22:07:33	26012020	260120	220733	283.050	12.256110	-56.454298	283.100	0.770	-1.680	-0.070	283.060	-3.000	0.300																			1580076453.0	13.01	24.09
26/01/2020 22:07:34	26012020	260120	220734	283.080	12.256125	-56.454355	283.100	0.890	-0.890	0.430	283.050	-2.100	0.900																			1580076454.0	12.41	22.98
26/01/2020 22:07:35	26012020	260120	220735	282.870	12.256140	-56.454407	282.870	0.430	0.370	0.830	282.810	-0.900	1.200																			1580076455.0	11.57	21.43
26/01/2020 22:07:36	26012020	260120	220736	282.520	12.256155	-56.454458	282.510	-0.250	1.200	0.760	282.440	-0.200	1.100																			1580076456.0	11.10	20.56
26/01/2020 22:07:37	26012020	260120	220737	282.220	12.256165	-56.454510	282.230	-0.630	1.020	0.250	282.180	-0.500	0.500																			1580076457.0	11.41	21.13
26/01/2020 22:07:38	26012020	260120	220738	282.150	12.256173	-56.454568	282.200	-0.440	0.000	-0.330	282.150	-1.100	0.200																			1580076458.0	12.31	22.80
26/01/2020 22:07:39	26012020	260120	220739	282.330	12.256182	-56.454630	282.420	0.130	-1.040	-0.620	282.390	-2.500	-0.300																			1580076459.0	13.04	24.15
26/01/2020 22:07:40	26012020	260120	220740	282.650	12.256192	-56.454690	282.750	0.590	-1.330	-0.490	282.650	-2.700	-0.200																			1580076460.0	12.98	24.04
26/01/2020 22:07:41	26012020	260120	220741	282.940	12.256205	-56.454745	283.000	0.600	-0.740	-0.100	282.980	-2.000	0.300																			1580076461.0	12.18	22.56
26/01/2020 22:07:42	26012020	260120	220742	283.080	12.256218	-56.454797	283.120	0.220	0.100	0.270	283.090	-1.200	0.700																			1580076462.0	11.29	20.91
26/01/2020 22:07:43	26012020	260120	220743	283.080	12.256232	-56.454848	283.100	-0.230	0.450	0.380	283.060	-1.000	0.700																			1580076463.0	11.04	20.45
26/01/2020 22:07:44	26012020	260120	220744	283.000	12.256243	-56.454902	283.030	-0.470	0.080	0.190	282.980	-1.400	0.500																			1580076464.0	11.53	21.35
26/01/2020 22:07:45	26012020	260120	220745	282.940	12.256253	-56.454958	283.000	-0.390	-0.690	-0.120	282.940	-2.200	0.200																			1580076465.0	12.28	22.74
26/01/2020 22:07:46	26012020	260120	220746	282.940	12.256262	-56.455018	283.000	-0.130	-1.240	-0.330	282.950	-2.700	0.000																			1580076466.0	12.74	23.59
26/01/2020 22:07:47	26012020	260120	220747	282.940	12.256272	-56.455077	282.960	0.110	-1.130	-0.290	282.930	-2.500	0.100																			1580076467.0	12.62	23.37
26/01/2020 22:07:48	26012020	260120	220748	282.830	12.256282	-56.455133	282.830	0.130	-0.400	0.020	282.790	-1.700	0.400																			1580076468.0	12.03	22.28
26/01/2020 22:07:49	26012020	260120	220749	282.610	12.256295	-56.455185	282.640	-0.030	0.420	0.350	282.560	-0.900	0.700																			1580076469.0	11.47	21.24
26/01/2020 22:07:50	26012020	260120	220750	282.400	12.256307	-56.455237	282.450	-0.180	0.750	0.460	282.370	-0.700	0.800																			1580076470.0	11.38	21.08
26/01/2020 22:07:51	26012020	260120	220751	282.300	12.256320	-56.455292	282.370	-0.130	0.430	0.250	282.300	-1.100	0.600																			1580076471.0	11.78	21.82
26/01/2020 22:07:52	26012020	260120	220752	282.380	12.256330	-56.455348	282.490	0.120	-0.250	-0.070	282.380	-1.500	0.400																			1580076472.0	12.32	22.82
26/01/2020 22:07:53	26012020	260120	220753	282.580	12.256342	-56.455407	282.680	0.380	-0.730	-0.250	282.620	-2.100	0.100																			1580076473.0	12.58	23.30
26/01/2020 22:07:54	26012020	260120	220754	282.730	12.256353	-56.455465	282.800	0.470	-0.690	-0.170	282.730	-2.100	0.200																			1580076474.0	12.29	22.76
26/01/2020 22:07:55	26012020	260120	220755	282.720	12.256365	-56.455518	282.770	0.320	-0.340	0.090	282.710	-1.700	0.500																			1580076475.0	11.70	21.67
26/01/2020 22:07:56	26012020	260120	220756	282.630	12.256378	-56.455570	282.670	0.050	-0.140	0.220	282.610	-1.500	0.600																			1580076476.0	11.37	21.06
26/01/2020 22:07:57	26012020	260120	220757	282.550	12.256388	-56.455623	282.590	-0.170	-0.270	0.110	282.540	-1.700	0.400																			1580076477.0	11.55	21.39
26/01/2020 22:07:58	26012020	260120	220758	282.550	12.256398	-56.455680	282.620	-0.240	-0.570	-0.120	282.560	-2.000	0.200																			1580076478.0	11.94	22.11
26/01/2020 22:07:59	26012020	260120	220759	282.610	12.256408	-56.455737	282.680	-0.200	-0.720	-0.290	282.630	-2.100	0.100																			1580076479.0	12.18	22.56
26/01/2020 22:08:00	26012020	260120	220800	282.640	12.256417	-56.455793	282.690	-0.180	-0.510	-0.300	282.640	-1.900	0.100	1014.80	26.10	26.10	20.80	20.80	-1.00	73.00	72.00	380.00	25.40	33.00	5.60	40.00	3.40	19	3681.00	27.60	27.60	1580076480.0	12.09	22.39
26/01/2020 22:08:01	26012020	260120	220801	282.590	12.256427	-56.455847	282.630	-0.220	-0.060	-0.080	282.570	-1.400	0.300																			1580076481.0	11.77	21.80
26/01/2020 22:08:02	26012020	260120	220802	282.500	12.256438	-56.455900	282.560	-0.230	0.260	0.240	282.490	-1.100	0.600																			1580076482.0	11.51	21.32
26/01/2020 22:08:03	26012020	260120	220803	282.420	12.256450	-56.455955	282.480	-0.090	0.150	0.480	282.410	-1.300	0.900																			1580076483.0	11.65	21.58
26/01/2020 22:08:04	26012020	260120	220804	282.340	12.256462	-56.456010	282.420	0.190	-0.210	0.530	282.330	-1.700	0.900																			1580076484.0	12.04	22.30
26/01/2020 22:08:05	26012020	260120	220805	282.260	12.256473	-56.456067	282.330	0.400	-0.480	0.380	282.250	-1.900	0.700																			1580076485.0	12.24	22.67
26/01/2020 22:08:06	26012020	260120	220806	282.220	12.256487	-56.456122	282.300	0.370	-0.490	0.100	282.220	-1.900	0.500																			1580076486.0	12.06	22.34
26/01/2020 22:08:07	26012020	260120	220807	282.280	12.256497	-56.456177	282.380	0.120	-0.410	-0.240	282.310	-1.800	0.100																			1580076487.0	11.72	21.71
26/01/2020 22:08:08	26012020	260120	220808	282.470	12.256507	-56.456230	282.580	-0.140	-0.410	-0.600	282.520	-1.800	-0.300																			1580076488.0	11.60	21.48
26/01/2020 22:08:09	26012020	260120	220809	282.720	12.256515	-56.456285	282.830	-0.230	-0.520	-0.810	282.770	-1.900	-0.400																			1580076489.0	11.74	21.74
26/01/2020 22:08:10	26012020	260120	220810	282.920	12.256523	-56.456342	283.010	-0.120	-0.540	-0.670	282.940	-1.900	-0.300																			1580076490.0	11.93	22.09
26/01/2020 22:08:11	26012020	260120	220811	283.000	12.256533	-56.456397	283.080	0.010	-0.330	-0.250	283.010	-1.700	0.200																			1580076491.0	11.93	22.09
26/01/2020 22:08:12	26012020	260120	220812	283.000	12.256547	-56.456450	283.050	0.040	0.030	0.210	282.980	-1.300	0.600																			1580076492.0	11.73	21.72
26/01/2020 22:08:13	26012020	260120	220813	282.890	12.256560	-56.456503	282.930	-0.040	0.290	0.510	282.860	-1.100	0.900																			1580076493.0	11.56	21.41
26/01/2020 22:08:14	26012020	260120	220814	282.740	12.256572	-56.456557	282.780	-0.110	0.250	0.470	282.710	-1.200	0.800																			1580076494.0	11.58	21.45
26/01/2020 22:08:15	26012020	260120	220815	282.650	12.256583	-56.456612	282.700	-0.100	-0.070	0.110	282.650	-1.500	0.400																			1580076495.0	11.81	21.87
26/01/2020 22:08:16	26012020	260120	220816	282.710	12.256593	-56.456668	282.800	-0.030	-0.470	-0.360	282.750	-1.900	-0.100																			1580076496.0	12.00	22.22
26/01/2020 22:08:17	26012020	260120	220817	282.890	12.256602	-56.456723	282.970	0.050	-0.700	-0.690	282.930	-2.100	-0.300																			1580076497.0	12.02	22.26
26/01/2020 22:08:18	26012020	260120	220818	283.090	12.256610	-56.456778	283.170	0.100	-0.670	-0.690	283.130	-2.000	-0.300																			1580076498.0	11.82	21.89
26/01/2020 22:08:19	26012020	260120	220819	283.230	12.256622	-56.456832	283.310	0.080	-0.500	-0.390	283.250	-1.900	0.000																			1580076499.0	11.57	21.43
26/01/2020 22:08:20	26012020	260120	220820	283.290	12.256633	-56.456885	283.350	0.010	-0.350	-0.040	283.300	-1.700	0.400																			1580076500.0	11.47	21.24
26/01/2020 22:08:21	26012020	260120	220821	283.280	12.256645	-56.456938	283.340	-0.060	-0.320	0.210	283.280	-1.700	0.600																			1580076501.0	11.54	21.37
26/01/2020 22:08:22	26012020	260120	220822	283.250	12.256657	-56.456992	283.300	-0.080	-0.380	0.250	283.240	-1.800	0.600																			1580076502.0	11.72	21.71
26/01/2020 22:08:23	26012020	260120	220823	283.230	12.256668	-56.457047	283.280	-0.030	-0.440	0.090	283.230	-1.800	0.400																			1580076503.0	11.88	22.00
26/01/2020 22:08:24	26012020	260120	220824	283.260	12.256680	-56.457103	283.300	0.040	-0.380	-0.090	283.270	-1.800	0.300																			1580076504.0	11.95	22.13
26/01/2020 22:08:25	26012020	260120	220825	283.300	12.256690	-56.457158	283.340	0.000	-0.150	-0.150	283.310	-1.500	0.200																			1580076505.0	11.88	22.00
26/01/2020 22:08:26	26012020	260120	220826	283.340	12.256702	-56.457212	283.370	-0.130	0.150	-0.140	283.350	-1.200	0.200																			1580076506.0	11.66	21.59
26/01/2020 22:08:27	26012020	260120	220827	283.370	12.256713	-56.457265	283.390	-0.250	0.250	-0.160	283.370	-1.200	0.200																			1580076507.0	11.54	21.37
26/01/2020 22:08:28	26012020	260120	220828	283.360	12.256725	-56.457318	283.380	-0.260	0.060	-0.210	283.350	-1.400	0.200																			1580076508.0	11.65	21.58
26/01/2020 22:08:29	26012020	260120	220829	283.320	12.256737	-56.457373	283.360	-0.100	-0.250	-0.150	283.320	-1.700	0.200																			1580076509.0	11.87	21.98
26/01/2020 22:08:30	26012020	260120	220830	283.310	12.256747	-56.457428	283.350	0.140	-0.420	0.050	283.310	-1.800	0.400																			1580076510.0	11.91	22.06
26/01/2020 22:08:31	26012020	260120	220831	283.310	12.256758	-56.457483	283.360	0.340	-0.430	0.280	283.310	-1.800	0.700																			1580076511.0	11.70	21.67
26/01/2020 22:08:32	26012020	260120	220832	283.300	12.256770	-56.457537	283.350	0.410	-0.390	0.390	283.300	-1.800	0.700																			1580076512.0	11.50	21.30
26/01/2020 22:08:33	26012020	260120	220833	283.300	12.256783	-56.457588	283.330	0.340	-0.400	0.310	283.300	-1.800	0.600																			1580076513.0	11.48	21.26
26/01/2020 22:08:34	26012020	260120	220834	283.280	12.256795	-56.457642	283.310	0.150	-0.380	0.140	283.270	-1.800	0.500																			1580076514.0	11.54	21.37
26/01/2020 22:08:35	26012020	260120	220835	283.250	12.256805	-56.457695	283.270	-0.120	-0.330	-0.070	283.240	-1.700	0.300																			1580076515.0	11.55	21.39
26/01/2020 22:08:36	26012020	260120	220836	283.200	12.256817	-56.457748	283.210	-0.350	-0.330	-0.300	283.190	-1.700	0.000																			1580076516.0	11.54	21.37
26/01/2020 22:08:37	26012020	260120	220837	283.160	12.256825	-56.457803	283.180	-0.400	-0.480	-0.540	283.170	-1.900	-0.200																			1580076517.0	11.64	21.56
26/01/2020 22:08:38	26012020	260120	220838	283.220	12.256835	-56.457858	283.260	-0.250	-0.690	-0.740	283.260	-2.100	-0.400																			1580076518.0	11.90	22.04
26/01/2020 22:08:39	26012020	260120	220839	283.400	12.256845	-56.457915	283.450	-0.010	-0.720	-0.690	283.440	-2.100	-0.300																			1580076519.0	12.08	22.37
26/01/2020 22:08:40	26012020	260120	220840	283.580	12.256857	-56.457970	283.630	0.150	-0.400	-0.310	283.580	-1.900	-0.100																			1580076520.0	11.97	22.17
26/01/2020 22:08:41	26012020	260120	220841	283.640	12.256870	-56.458023	283.680	0.140	0.160	0.200	283.630	-1.200	0.600																			1580076521.0	11.64	21.56
26/01/2020 22:08:42	26012020	260120	220842	283.530	12.256883	-56.458075	283.540	0.000	0.590	0.580	283.530	-0.900	0.900																			1580076522.0	11.37	21.06
26/01/2020 22:08:43	26012020	260120	220843	283.310	12.256898	-56.458127	283.310	-0.140	0.580	0.610	283.270	-0.900	0.900																			1580076523.0	11.39	21.09
26/01/2020 22:08:44	26012020	260120	220844	283.100	12.256910	-56.458182	283.110	-0.170	0.130	0.330	283.100	-1.100	0.800																			1580076524.0	11.66	21.59
26/01/2020 22:08:45	26012020	260120	220845	282.990	12.256920	-56.458237	283.020	-0.110	-0.430	-0.060	282.980	-1.900	0.300																			1580076525.0	11.98	22.19
26/01/2020 22:08:46	26012020	260120	220846	282.980	12.256930	-56.458292	283.020	-0.010	-0.770	-0.380	282.990	-2.200	-0.000																			1580076526.0	11.97	22.17
26/01/2020 22:08:47	26012020	260120	220847	283.040	12.256940	-56.458347	283.080	0.100	-0.820	-0.490	283.060	-2.200	-0.100																			1580076527.0	11.70	21.67
26/01/2020 22:08:48	26012020	260120	220848	283.130	12.256950	-56.458400	283.150	0.210	-0.680	-0.330	283.140	-2.000	0.100																			1580076528.0	11.47	21.24
26/01/2020 22:08:49	26012020	260120	220849	283.170	12.256962	-56.458453	283.190	0.290	-0.450	-0.030	283.170	-1.800	0.400																			1580076529.0	11.37	21.06
26/01/2020 22:08:50	26012020	260120	220850	283.140	12.256973	-56.458505	283.160	0.300	-0.250	0.260	283.140	-1.600	0.700																			1580076530.0	11.40	21.11
26/01/2020 22:08:51	26012020	260120	220851	283.100	12.256987	-56.458558	283.130	0.220	-0.170	0.410	283.100	-1.600	0.800																			1580076531.0	11.48	21.26
26/01/2020 22:08:52	26012020	260120	220852	283.120	12.256998	-56.458612	283.150	0.080	-0.200	0.310	283.130	-1.600	0.600																			1580076532.0	11.63	21.54
26/01/2020 22:08:53	26012020	260120	220853	283.150	12.257010	-56.458665	283.170	-0.080	-0.260	0.120	283.150	-1.700	0.500																			1580076533.0	11.78	21.82
26/01/2020 22:08:54	26012020	260120	220854	283.110	12.257022	-56.458720	283.130	-0.240	-0.260	0.010	283.110	-1.700	0.400																			1580076534.0	11.80	21.85
26/01/2020 22:08:55	26012020	260120	220855	283.020	12.257032	-56.458775	283.050	-0.360	-0.170	-0.050	283.010	-1.600	0.300																			1580076535.0	11.72	21.71
26/01/2020 22:08:56	26012020	260120	220856	282.980	12.257042	-56.458828	283.030	-0.390	-0.100	-0.090	282.980	-1.500	0.300																			1580076536.0	11.61	21.50
26/01/2020 22:08:57	26012020	260120	220857	283.050	12.257053	-56.458882	283.100	-0.270	-0.140	-0.100	283.060	-1.500	0.300																			1580076537.0	11.57	21.43
26/01/2020 22:08:58	26012020	260120	220858	283.160	12.257063	-56.458937	283.220	-0.030	-0.290	-0.030	283.190	-1.700	0.400																			1580076538.0	11.66	21.59
26/01/2020 22:08:59	26012020	260120	220859	283.260	12.257075	-56.458990	283.310	0.220	-0.420	0.150	283.270	-1.800	0.500																			1580076539.0	11.79	21.84
26/01/2020 22:09:00	26012020	260120	220900	283.270	12.257088	-56.459045	283.320	0.310	-0.380	0.430	283.270	-1.700	0.800	1014.90	26.00	26.10	20.70	20.70	-1.00	72.00	72.00	379.00	25.40	40.00	5.20	45.00	3.90	18	3644.00	27.60	27.60	1580076540.0	11.75	21.76
26/01/2020 22:09:01	26012020	260120	220901	283.230	12.257100	-56.459098	283.270	0.220	-0.190	0.630	283.210	-1.600	1.000																			1580076541.0	11.55	21.39
26/01/2020 22:09:02	26012020	260120	220902	283.140	12.257113	-56.459150	283.180	0.050	-0.050	0.630	283.120	-1.400	1.000																			1580076542.0	11.34	21.00
26/01/2020 22:09:03	26012020	260120	220903	283.040	12.257125	-56.459202	283.070	-0.070	-0.090	0.390	283.030	-1.500	0.700																			1580076543.0	11.35	21.02
26/01/2020 22:09:04	26012020	260120	220904	283.000	12.257133	-56.459257	283.050	-0.080	-0.330	0.010	283.010	-1.800	0.300																			1580076544.0	11.52	21.34
26/01/2020 22:09:05	26012020	260120	220905	283.070	12.257143	-56.459310	283.130	0.020	-0.620	-0.330	283.100	-2.000	0.000																			1580076545.0	11.75	21.76
26/01/2020 22:09:06	26012020	260120	220906	283.260	12.257152	-56.459365	283.320	0.150	-0.720	-0.540	283.300	-2.100	-0.200																			1580076546.0	11.84	21.93
26/01/2020 22:09:07	26012020	260120	220907	283.470	12.257163	-56.459420	283.520	0.190	-0.520	-0.510	283.500	-1.900	-0.100																			1580076547.0	11.74	21.74
26/01/2020 22:09:08	26012020	260120	220908	283.600	12.257175	-56.459473	283.640	0.100	-0.140	-0.280	283.600	-1.600	0.000																			1580076548.0	11.52	21.34
26/01/2020 22:09:09	26012020	260120	220909	283.650	12.257187	-56.459525	283.690	-0.060	0.180	-0.040	283.650	-1.200	0.300																			1580076549.0	11.36	21.04
26/01/2020 22:09:10	26012020	260120	220910	283.650	12.257200	-56.459578	283.690	-0.160	0.230	0.070	283.650	-1.200	0.400																			1580076550.0	11.44	21.19
26/01/2020 22:09:11	26012020	260120	220911	283.560	12.257212	-56.459632	283.570	-0.190	0.100	0.090	283.520	-1.300	0.500																			1580076551.0	11.64	21.56
26/01/2020 22:09:12	26012020	260120	220912	283.330	12.257223	-56.459687	283.330	-0.200	-0.080	0.080	283.270	-1.500	0.400																			1580076552.0	11.71	21.69
26/01/2020 22:09:13	26012020	260120	220913	283.090	12.257233	-56.459740	283.120	-0.250	-0.250	-0.050	283.060	-1.700	0.300																			1580076553.0	11.57	21.43
26/01/2020 22:09:14	26012020	260120	220914	283.040	12.257243	-56.459793	283.110	-0.230	-0.550	-0.350	283.060	-2.000	-0.000																			1580076554.0	11.45	21.21
26/01/2020 22:09:15	26012020	260120	220915	283.250	12.257253	-56.459847	283.340	0.000	-1.000	-0.710	283.310	-2.400	-0.400																			1580076555.0	11.57	21.43
26/01/2020 22:09:16	26012020	260120	220916	283.590	12.257263	-56.459902	283.680	0.380	-1.310	-0.860	283.650	-2.700	-0.500																			1580076556.0	11.86	21.96
26/01/2020 22:09:17	26012020	260120	220917	283.830	12.257275	-56.459957	283.890	0.600	-1.090	-0.630	283.850	-2.400	-0.200																			1580076557.0	11.95	22.13
26/01/2020 22:09:18	26012020	260120	220918	283.810	12.257290	-56.460010	283.820	0.390	-0.280	-0.160	283.810	-1.900	0.100																			1580076558.0	11.61	21.50
26/01/2020 22:09:19	26012020	260120	220919	283.550	12.257303	-56.460060	283.540	-0.200	0.650	0.230	283.480	-0.700	0.600																			1580076559.0	11.11	20.58
26/01/2020 22:09:20	26012020	260120	220920	283.220	12.257315	-56.460110	283.230	-0.770	1.100	0.230	283.220	-0.300	0.600																			1580076560.0	10.93	20.24
26/01/2020 22:09:21	26012020	260120	220921	282.990	12.257325	-56.460163	283.020	-0.910	0.830	-0.050	282.960	-0.700	0.300																			1580076561.0	11.28	20.89
26/01/2020 22:09:22	26012020	260120	220922	282.940	12.257333	-56.460218	283.010	-0.490	0.010	-0.290	282.950	-1.500	0.100																			1580076562.0	11.89	22.02
26/01/2020 22:09:23	26012020	260120	220923	283.070	12.257343	-56.460277	283.160	0.220	-0.820	-0.250	283.100	-2.300	0.200																			1580076563.0	12.31	22.80
26/01/2020 22:09:24	26012020	260120	220924	283.240	12.257355	-56.460333	283.310	0.790	-1.090	0.120	283.270	-2.500	0.500																			1580076564.0	12.25	22.69
26/01/2020 22:09:25	26012020	260120	220925	283.310	12.257370	-56.460385	283.360	0.890	-0.670	0.600	283.310	-2.000	1.000																			1580076565.0	11.67	21.61
26/01/2020 22:09:26	26012020	260120	220926	283.210	12.257385	-56.460435	283.240	0.550	-0.040	0.890	283.170	-1.400	1.300																			1580076566.0	10.97	20.32
26/01/2020 22:09:27	26012020	260120	220927	283.020	12.257398	-56.460483	283.050	0.060	0.210	0.790	282.980	-1.200	1.100																			1580076567.0	10.69	19.80
26/01/2020 22:09:28	26012020	260120	220928	282.840	12.257408	-56.460535	282.890	-0.280	-0.090	0.340	282.820	-1.500	0.600																			1580076568.0	11.04	20.45
26/01/2020 22:09:29	26012020	260120	220929	282.760	12.257417	-56.460590	282.820	-0.360	-0.620	-0.190	282.760	-2.100	0.100																			1580076569.0	11.62	21.52
26/01/2020 22:09:30	26012020	260120	220930	282.750	12.257425	-56.460645	282.800	-0.260	-0.940	-0.500	282.750	-2.300	-0.100																			1580076570.0	11.92	22.08
26/01/2020 22:09:31	26012020	260120	220931	282.770	12.257435	-56.460700	282.840	-0.140	-0.890	-0.500	282.790	-2.300	-0.100																			1580076571.0	11.78	21.82
26/01/2020 22:09:32	26012020	260120	220932	282.890	12.257445	-56.460753	282.980	-0.090	-0.600	-0.350	282.890	-2.100	-0.000																			1580076572.0	11.51	21.32
26/01/2020 22:09:33	26012020	260120	220933	283.100	12.257457	-56.460807	283.200	-0.050	-0.260	-0.190	283.140	-1.600	0.200																			1580076573.0	11.42	21.15
26/01/2020 22:09:34	26012020	260120	220934	283.320	12.257468	-56.460858	283.420	0.000	0.040	-0.040	283.320	-1.400	0.300																			1580076574.0	11.50	21.30
26/01/2020 22:09:35	26012020	260120	220935	283.440	12.257482	-56.460912	283.520	0.030	0.290	0.110	283.440	-1.100	0.500																			1580076575.0	11.58	21.45
26/01/2020 22:09:36	26012020	260120	220936	283.410	12.257493	-56.460965	283.470	-0.010	0.450	0.260	283.390	-0.900	0.600																			1580076576.0	11.56	21.41
26/01/2020 22:09:37	26012020	260120	220937	283.280	12.257505	-56.461018	283.320	-0.070	0.400	0.370	283.250	-1.000	0.700																			1580076577.0	11.50	21.30
26/01/2020 22:09:38	26012020	260120	220938	283.120	12.257517	-56.461072	283.160	-0.050	0.050	0.330	283.090	-1.400	0.700																			1580076578.0	11.53	21.35
26/01/2020 22:09:39	26012020	260120	220939	282.950	12.257528	-56.461127	282.990	0.070	-0.390	0.170	282.920	-1.800	0.500																			1580076579.0	11.71	21.69
26/01/2020 22:09:40	26012020	260120	220940	282.760	12.257538	-56.461180	282.790	0.170	-0.560	-0.020	282.710	-1.900	0.300																			1580076580.0	11.73	21.72
26/01/2020 22:09:41	26012020	260120	220941	282.520	12.257547	-56.461233	282.540	0.130	-0.360	-0.020	282.470	-1.700	0.400																			1580076581.0	11.34	21.00
26/01/2020 22:09:42	26012020	260120	220942	282.280	12.257558	-56.461283	282.320	0.010	-0.160	0.090	282.250	-1.600	0.500																			1580076582.0	10.86	20.11
26/01/2020 22:09:43	26012020	260120	220943	282.190	12.257568	-56.461333	282.260	-0.020	-0.370	0.150	282.200	-1.800	0.500																			1580076583.0	10.84	20.08
26/01/2020 22:09:44	26012020	260120	220944	282.340	12.257580	-56.461387	282.450	0.170	-0.940	0.050	282.340	-2.200	0.400																			1580076584.0	11.35	21.02
26/01/2020 22:09:45	26012020	260120	220945	282.660	12.257592	-56.461442	282.790	0.430	-1.380	-0.110	282.740	-2.800	0.200																			1580076585.0	11.90	22.04
26/01/2020 22:09:46	26012020	260120	220946	283.020	12.257603	-56.461497	283.120	0.520	-1.210	-0.150	283.020	-2.700	0.200																			1580076586.0	11.98	22.19
26/01/2020 22:09:47	26012020	260120	220947	283.250	12.257615	-56.461550	283.330	0.290	-0.430	0.010	283.280	-1.700	0.400																			1580076587.0	11.57	21.43
26/01/2020 22:09:48	26012020	260120	220948	283.310	12.257627	-56.461602	283.360	-0.170	0.450	0.260	283.310	-0.900	0.700																			1580076588.0	11.11	20.58
26/01/2020 22:09:49	26012020	260120	220949	283.200	12.257638	-56.461652	283.240	-0.630	0.950	0.380	283.160	-0.400	0.700																			1580076589.0	11.04	20.45
26/01/2020 22:09:50	26012020	260120	220950	282.990	12.257650	-56.461705	283.010	-0.880	0.910	0.270	282.940	-0.500	0.600																			1580076590.0	11.34	21.00
26/01/2020 22:09:51	26012020	260120	220951	282.760	12.257658	-56.461758	282.800	-0.800	0.430	0.040	282.720	-1.000	0.400																			1580076591.0	11.70	21.67
26/01/2020 22:09:52	26012020	260120	220952	282.560	12.257665	-56.461815	282.600	-0.440	-0.180	-0.100	282.530	-1.600	0.300																			1580076592.0	11.91	22.06
26/01/2020 22:09:53	26012020	260120	220953	282.360	12.257673	-56.461870	282.400	0.050	-0.630	0.020	282.320	-2.100	0.400																			1580076593.0	11.84	21.93
26/01/2020 22:09:54	26012020	260120	220954	282.200	12.257685	-56.461923	282.260	0.480	-0.820	0.390	282.180	-2.200	0.800																			1580076594.0	11.54	21.37
26/01/2020 22:09:55	26012020	260120	220955	282.130	12.257697	-56.461975	282.200	0.700	-0.830	0.740	282.130	-2.200	1.100																			1580076595.0	11.27	20.87
26/01/2020 22:09:56	26012020	260120	220956	282.140	12.257710	-56.462027	282.220	0.710	-0.770	0.850	282.160	-2.200	1.200																			1580076596.0	11.15	20.65
26/01/2020 22:09:57	26012020	260120	220957	282.270	12.257723	-56.462078	282.380	0.520	-0.640	0.620	282.310	-2.000	0.900																			1580076597.0	11.19	20.72
26/01/2020 22:09:58	26012020	260120	220958	282.520	12.257733	-56.462130	282.620	0.220	-0.390	0.240	282.570	-1.800	0.600																			1580076598.0	11.24	20.82
26/01/2020 22:09:59	26012020	260120	220959	282.790	12.257743	-56.462182	282.870	-0.110	-0.120	-0.100	282.830	-1.500	0.200																			1580076599.0	11.26	20.85
26/01/2020 22:10:00	26012020	260120	221000	282.980	12.257753	-56.462235	283.050	-0.340	0.100	-0.280	283.000	-1.300	0.100	1014.90	26.10	26.10	20.90	20.80	-2.00	73.00	72.00	378.00	25.30	35.00	4.60	52.00	3.40	17	3842.00	27.60	27.60	1580076600.0	11.34	21.00
26/01/2020 22:10:01	26012020	260120	221001	283.030	12.257762	-56.462288	283.070	-0.420	0.190	-0.270	283.020	-1.200	0.100																			1580076601.0	11.44	21.19
26/01/2020 22:10:02	26012020	260120	221002	282.940	12.257772	-56.462342	282.980	-0.350	0.160	-0.130	282.920	-1.300	0.300																			1580076602.0	11.53	21.35
26/01/2020 22:10:03	26012020	260120	221003	282.790	12.257782	-56.462395	282.830	-0.220	0.010	-0.010	282.750	-1.400	0.400																			1580076603.0	11.56	21.41
26/01/2020 22:10:04	26012020	260120	221004	282.610	12.257792	-56.462448	282.650	-0.080	-0.200	0.040	282.570	-1.600	0.400																			1580076604.0	11.54	21.37
26/01/2020 22:10:05	26012020	260120	221005	282.440	12.257802	-56.462502	282.480	0.050	-0.410	0.060	282.410	-1.800	0.400																			1580076605.0	11.51	21.32
26/01/2020 22:10:06	26012020	260120	221006	282.320	12.257812	-56.462555	282.370	0.170	-0.550	0.060	282.310	-2.000	0.400																			1580076606.0	11.43	21.17
26/01/2020 22:10:07	26012020	260120	221007	282.290	12.257823	-56.462608	282.340	0.250	-0.590	0.030	282.290	-2.000	0.400																			1580076607.0	11.38	21.08
26/01/2020 22:10:08	26012020	260120	221008	282.320	12.257833	-56.462660	282.380	0.220	-0.490	-0.010	282.340	-1.900	0.300																			1580076608.0	11.32	20.96
26/01/2020 22:10:09	26012020	260120	221009	282.420	12.257845	-56.462712	282.490	0.060	-0.350	-0.080	282.440	-1.700	0.300																			1580076609.0	11.22	20.78
26/01/2020 22:10:10	26012020	260120	221010	282.550	12.257855	-56.462763	282.630	-0.130	-0.270	-0.260	282.550	-1.700	0.100																			1580076610.0	11.22	20.78
26/01/2020 22:10:11	26012020	260120	221011	282.730	12.257865	-56.462817	282.800	-0.230	-0.290	-0.490	282.770	-1.700	-0.200																			1580076611.0	11.37	21.06
26/01/2020 22:10:12	26012020	260120	221012	282.910	12.257875	-56.462870	282.990	-0.190	-0.340	-0.610	282.940	-1.700	-0.300																			1580076612.0	11.54	21.37
26/01/2020 22:10:13	26012020	260120	221013	283.030	12.257885	-56.462925	283.090	-0.090	-0.280	-0.480	283.030	-1.700	-0.100																			1580076613.0	11.61	21.50
26/01/2020 22:10:14	26012020	260120	221014	283.020	12.257895	-56.462978	283.080	-0.020	-0.100	-0.110	283.000	-1.500	0.300																			1580076614.0	11.49	21.28
26/01/2020 22:10:15	26012020	260120	221015	282.880	12.257907	-56.463030	282.920	-0.030	0.100	0.220	282.840	-1.300	0.600																			1580076615.0	11.34	21.00
26/01/2020 22:10:16	26012020	260120	221016	282.660	12.257918	-56.463082	282.700	-0.070	0.200	0.450	282.610	-1.200	0.800																			1580076616.0	11.24	20.82
26/01/2020 22:10:17	26012020	260120	221017	282.430	12.257930	-56.463133	282.470	-0.040	0.090	0.550	282.390	-1.300	0.900																			1580076617.0	11.25	20.84
26/01/2020 22:10:18	26012020	260120	221018	282.280	12.257940	-56.463187	282.330	0.090	-0.240	0.490	282.270	-1.700	0.800																			1580076618.0	11.37	21.06
26/01/2020 22:10:19	26012020	260120	221019	282.260	12.257952	-56.463240	282.320	0.300	-0.610	0.340	282.270	-2.000	0.700																			1580076619.0	11.55	21.39
26/01/2020 22:10:20	26012020	260120	221020	282.360	12.257963	-56.463293	282.430	0.460	-0.820	0.140	282.390	-2.200	0.500																			1580076620.0	11.62	21.52
26/01/2020 22:10:21	26012020	260120	221021	282.520	12.257973	-56.463347	282.580	0.430	-0.710	-0.090	282.550	-2.100	0.200																			1580076621.0	11.53	21.35
26/01/2020 22:10:22	26012020	260120	221022	282.660	12.257985	-56.463400	282.710	0.160	-0.340	-0.300	282.660	-1.800	0.100																			1580076622.0	11.31	20.95
26/01/2020 22:10:23	26012020	260120	221023	282.750	12.257993	-56.463452	282.790	-0.220	0.070	-0.420	282.760	-1.300	-0.100																			1580076623.0	11.06	20.48
26/01/2020 22:10:24	26012020	260120	221024	282.800	12.258003	-56.463502	282.850	-0.500	0.180	-0.430	282.800	-1.200	-0.100																			1580076624.0	11.02	20.41
26/01/2020 22:10:25	26012020	260120	221025	282.870	12.258012	-56.463555	282.940	-0.520	-0.090	-0.290	282.880	-1.500	0.100																			1580076625.0	11.29	20.91
26/01/2020 22:10:26	26012020	260120	221026	283.000	12.258022	-56.463608	283.090	-0.290	-0.510	-0.020	283.040	-1.900	0.400																			1580076626.0	11.63	21.54
26/01/2020 22:10:27	26012020	260120	221027	283.170	12.258033	-56.463663	283.250	0.010	-0.770	0.300	283.200	-2.200	0.700																			1580076627.0	11.77	21.80
26/01/2020 22:10:28	26012020	260120	221028	283.270	12.258045	-56.463717	283.320	0.220	-0.670	0.610	283.270	-2.000	1.000																			1580076628.0	11.63	21.54
26/01/2020 22:10:29	26012020	260120	221029	283.240	12.258058	-56.463768	283.260	0.230	-0.340	0.780	283.220	-1.700	1.100																			1580076629.0	11.36	21.04
26/01/2020 22:10:30	26012020	260120	221030	283.130	12.258070	-56.463820	283.140	0.110	-0.030	0.690	283.100	-1.400	1.000																			1580076630.0	11.18	20.71
26/01/2020 22:10:31	26012020	260120	221031	283.020	12.258082	-56.463872	283.050	-0.010	0.090	0.370	283.000	-1.300	0.700																			1580076631.0	11.27	20.87
26/01/2020 22:10:32	26012020	260120	221032	282.970	12.258092	-56.463927	283.000	-0.030	0.040	-0.000	282.950	-1.400	0.300																			1580076632.0	11.48	21.26
26/01/2020 22:10:33	26012020	260120	221033	282.910	12.258100	-56.463980	282.940	0.020	-0.040	-0.260	282.890	-1.400	0.100																			1580076633.0	11.61	21.50
26/01/2020 22:10:34	26012020	260120	221034	282.830	12.258110	-56.464033	282.850	0.070	-0.080	-0.310	282.830	-1.500	0.000																			1580076634.0	11.57	21.43
26/01/2020 22:10:35	26012020	260120	221035	282.780	12.258120	-56.464087	282.810	0.080	-0.080	-0.140	282.770	-1.500	0.300																			1580076635.0	11.43	21.17
26/01/2020 22:10:36	26012020	260120	221036	282.760	12.258132	-56.464138	282.800	0.020	-0.100	0.080	282.760	-1.500	0.400																			1580076636.0	11.29	20.91
26/01/2020 22:10:37	26012020	260120	221037	282.750	12.258143	-56.464190	282.800	-0.070	-0.160	0.140	282.750	-1.600	0.500																			1580076637.0	11.20	20.74
26/01/2020 22:10:38	26012020	260120	221038	282.780	12.258155	-56.464242	282.830	-0.150	-0.330	0.020	282.790	-1.800	0.400																			1580076638.0	11.16	20.67
26/01/2020 22:10:39	26012020	260120	221039	282.890	12.258165	-56.464293	282.960	-0.150	-0.650	-0.170	282.930	-2.100	0.200																			1580076639.0	11.21	20.76
26/01/2020 22:10:40	26012020	260120	221040	283.130	12.258173	-56.464347	283.200	0.010	-1.040	-0.300	283.190	-2.500	0.000																			1580076640.0	11.41	21.13
26/01/2020 22:10:41	26012020	260120	221041	283.420	12.258185	-56.464402	283.480	0.290	-1.240	-0.300	283.470	-2.600	0.100																			1580076641.0	11.66	21.59
26/01/2020 22:10:42	26012020	260120	221042	283.610	12.258195	-56.464455	283.650	0.470	-0.950	-0.100	283.630	-2.300	0.300																			1580076642.0	11.70	21.67
26/01/2020 22:10:43	26012020	260120	221043	283.600	12.258208	-56.464508	283.600	0.350	-0.210	0.250	283.560	-1.500	0.600																			1580076643.0	11.44	21.19
26/01/2020 22:10:44	26012020	260120	221044	283.330	12.258222	-56.464558	283.300	-0.080	0.640	0.530	283.260	-0.700	0.900																			1580076644.0	11.09	20.54
26/01/2020 22:10:45	26012020	260120	221045	282.940	12.258233	-56.464608	282.910	-0.610	1.100	0.510	282.860	-0.300	0.800																			1580076645.0	10.92	20.22
26/01/2020 22:10:46	26012020	260120	221046	282.610	12.258243	-56.464660	282.610	-0.870	0.810	0.140	282.570	-0.700	0.400																			1580076646.0	11.13	20.61
26/01/2020 22:10:47	26012020	260120	221047	282.490	12.258252	-56.464715	282.520	-0.660	-0.060	-0.300	282.500	-1.600	0.000																			1580076647.0	11.72	21.71
26/01/2020 22:10:48	26012020	260120	221048	282.610	12.258260	-56.464772	282.690	-0.060	-0.910	-0.510	282.610	-2.100	-0.100																			1580076648.0	12.18	22.56
26/01/2020 22:10:49	26012020	260120	221049	282.850	12.258270	-56.464828	282.940	0.530	-1.180	-0.310	282.890	-2.500	0.100																			1580076649.0	12.08	22.37
26/01/2020 22:10:50	26012020	260120	221050	283.010	12.258282	-56.464882	283.080	0.740	-0.780	0.190	283.030	-2.100	0.600																			1580076650.0	11.48	21.26
26/01/2020 22:10:51	26012020	260120	221051	283.030	12.258297	-56.464930	283.080	0.500	-0.130	0.670	283.020	-1.400	1.100																			1580076651.0	10.83	20.06
26/01/2020 22:10:52	26012020	260120	221052	282.970	12.258310	-56.464978	283.000	0.060	0.230	0.850	282.950	-1.200	1.200																			1580076652.0	10.58	19.59
26/01/2020 22:10:53	26012020	260120	221053	282.890	12.258322	-56.465028	282.920	-0.280	0.080	0.680	282.880	-1.400	1.000																			1580076653.0	10.85	20.09
26/01/2020 22:10:54	26012020	260120	221054	282.850	12.258333	-56.465082	282.880	-0.370	-0.420	0.310	282.860	-1.900	0.600																			1580076654.0	11.39	21.09
26/01/2020 22:10:55	26012020	260120	221055	282.910	12.258342	-56.465137	282.960	-0.240	-0.840	-0.110	282.940	-2.300	0.200																			1580076655.0	11.80	21.85
26/01/2020 22:10:56	26012020	260120	221056	283.090	12.258350	-56.465192	283.140	-0.030	-0.890	-0.350	283.120	-2.300	0.000																			1580076656.0	11.83	21.91
26/01/2020 22:10:57	26012020	260120	221057	283.230	12.258358	-56.465245	283.280	0.130	-0.560	-0.210	283.250	-1.900	0.200																			1580076657.0	11.56	21.41
26/01/2020 22:10:58	26012020	260120	221058	283.260	12.258370	-56.465297	283.290	0.170	-0.010	0.140	283.260	-1.500	0.400																			1580076658.0	11.26	20.85
26/01/2020 22:10:59	26012020	260120	221059	283.170	12.258383	-56.465348	283.190	0.070	0.490	0.390	283.140	-0.800	0.800																			1580076659.0	11.08	20.52
26/01/2020 22:11:00	26012020	260120	221100	282.980	12.258395	-56.465398	282.970	-0.110	0.690	0.480	282.980	-0.700	0.800	1014.90	26.00	26.10	20.80	20.80	-2.00	72.00	72.00	378.00	25.30	39.00	4.10	58.00	3.70	17	3788.00	27.70	27.60	1580076660.0	11.01	20.39
26/01/2020 22:11:01	26012020	260120	221101	282.720	12.258405	-56.465450	282.720	-0.230	0.440	0.400	282.670	-1.000	0.700																			1580076661.0	11.14	20.63
26/01/2020 22:11:02	26012020	260120	221102	282.520	12.258415	-56.465503	282.540	-0.180	-0.140	0.220	282.490	-1.600	0.500																			1580076662.0	11.39	21.09
26/01/2020 22:11:03	26012020	260120	221103	282.490	12.258425	-56.465557	282.540	0.060	-0.790	0.010	282.500	-2.300	0.300																			1580076663.0	11.61	21.50
26/01/2020 22:11:04	26012020	260120	221104	282.650	12.258435	-56.465612	282.740	0.360	-1.210	-0.150	282.650	-2.500	0.200																			1580076664.0	11.68	21.63
26/01/2020 22:11:05	26012020	260120	221105	282.940	12.258447	-56.465665	283.030	0.520	-1.200	-0.180	283.000	-2.600	0.200																			1580076665.0	11.54	21.37
26/01/2020 22:11:06	26012020	260120	221106	283.210	12.258460	-56.465717	283.280	0.390	-0.810	-0.060	283.250	-2.100	0.300																			1580076666.0	11.28	20.89
26/01/2020 22:11:07	26012020	260120	221107	283.370	12.258472	-56.465767	283.410	-0.020	-0.260	0.120	283.380	-1.600	0.500																			1580076667.0	11.06	20.48
26/01/2020 22:11:08	26012020	260120	221108	283.390	12.258483	-56.465818	283.420	-0.540	0.210	0.150	283.390	-1.100	0.500																			1580076668.0	10.99	20.35
26/01/2020 22:11:09	26012020	260120	221109	283.370	12.258493	-56.465870	283.390	-0.880	0.370	-0.030	283.360	-1.000	0.300																			1580076669.0	11.12	20.59
26/01/2020 22:11:10	26012020	260120	221110	283.330	12.258500	-56.465923	283.350	-0.820	0.180	-0.270	283.320	-1.200	0.100																			1580076670.0	11.43	21.17
26/01/2020 22:11:11	26012020	260120	221111	283.240	12.258508	-56.465978	283.240	-0.380	-0.170	-0.310	283.210	-1.600	0.100																			1580076671.0	11.78	21.82
26/01/2020 22:11:12	26012020	260120	221112	283.050	12.258517	-56.466033	283.050	0.180	-0.300	-0.050	283.050	-1.700	0.200																			1580076672.0	11.85	21.95
26/01/2020 22:11:13	26012020	260120	221113	282.810	12.258530	-56.466087	282.820	0.560	-0.110	0.370	282.770	-1.400	0.800																			1580076673.0	11.57	21.43
26/01/2020 22:11:14	26012020	260120	221114	282.620	12.258543	-56.466138	282.650	0.630	0.160	0.690	282.620	-1.300	1.000																			1580076674.0	11.12	20.59
26/01/2020 22:11:15	26012020	260120	221115	282.530	12.258557	-56.466187	282.580	0.530	0.120	0.720	282.530	-1.300	1.100																			1580076675.0	10.91	20.21
26/01/2020 22:11:16	26012020	260120	221116	282.600	12.258570	-56.466238	282.680	0.460	-0.290	0.460	282.640	-1.700	0.800																			1580076676.0	11.11	20.58
26/01/2020 22:11:17	26012020	260120	221117	282.810	12.258582	-56.466292	282.890	0.430	-0.790	0.060	282.860	-2.200	0.400																			1580076677.0	11.46	21.22
26/01/2020 22:11:18	26012020	260120	221118	283.050	12.258592	-56.466345	283.100	0.290	-1.000	-0.260	283.080	-2.400	0.100																			1580076678.0	11.59	21.46
26/01/2020 22:11:19	26012020	260120	221119	283.200	12.258602	-56.466397	283.220	-0.070	-0.800	-0.390	283.210	-2.100	-0.000																			1580076679.0	11.38	21.08
26/01/2020 22:11:20	26012020	260120	221120	283.250	12.258612	-56.466448	283.260	-0.520	-0.420	-0.340	283.250	-1.700	0.000																			1580076680.0	11.06	20.48
26/01/2020 22:11:21	26012020	260120	221121	283.250	12.258620	-56.466500	283.270	-0.820	-0.130	-0.200	283.230	-1.500	0.200																			1580076681.0	10.99	20.35
26/01/2020 22:11:22	26012020	260120	221122	283.200	12.258628	-56.466552	283.220	-0.800	-0.080	-0.120	283.180	-1.500	0.300																			1580076682.0	11.19	20.72
26/01/2020 22:11:23	26012020	260120	221123	283.150	12.258638	-56.466607	283.180	-0.480	-0.230	-0.080	283.140	-1.600	0.300																			1580076683.0	11.52	21.34
26/01/2020 22:11:24	26012020	260120	221124	283.160	12.258647	-56.466660	283.230	-0.020	-0.370	-0.000	283.160	-1.700	0.300																			1580076684.0	11.75	21.76
26/01/2020 22:11:25	26012020	260120	221125	283.270	12.258658	-56.466715	283.350	0.350	-0.340	0.140	283.290	-1.700	0.500																			1580076685.0	11.74	21.74
26/01/2020 22:11:26	26012020	260120	221126	283.360	12.258672	-56.466768	283.400	0.490	-0.120	0.300	283.360	-1.500	0.700																			1580076686.0	11.55	21.39
26/01/2020 22:11:27	26012020	260120	221127	283.320	12.258685	-56.466820	283.340	0.370	0.220	0.420	283.300	-1.100	0.800																			1580076687.0	11.30	20.93
26/01/2020 22:11:28	26012020	260120	221128	283.190	12.258698	-56.466870	283.190	0.120	0.450	0.400	283.160	-0.900	0.700																			1580076688.0	11.08	20.52
26/01/2020 22:11:29	26012020	260120	221129	283.040	12.258710	-56.466922	283.060	-0.090	0.360	0.170	283.010	-1.100	0.500																			1580076689.0	11.05	20.46
26/01/2020 22:11:30	26012020	260120	221130	282.950	12.258720	-56.466973	282.990	-0.130	-0.070	-0.180	282.940	-1.500	0.100																			1580076690.0	11.24	20.82
26/01/2020 22:11:31	26012020	260120	221131	282.940	12.258728	-56.467027	283.000	0.010	-0.590	-0.500	282.950	-2.000	-0.200																			1580076691.0	11.50	21.30
26/01/2020 22:11:32	26012020	260120	221132	283.000	12.258737	-56.467082	283.060	0.230	-0.890	-0.560	283.020	-2.300	-0.200																			1580076692.0	11.56	21.41
26/01/2020 22:11:33	26012020	260120	221133	283.050	12.258747	-56.467133	283.110	0.380	-0.820	-0.240	283.060	-2.200	0.200																			1580076693.0	11.32	20.96
26/01/2020 22:11:34	26012020	260120	221134	283.070	12.258760	-56.467183	283.110	0.380	-0.590	0.180	283.070	-1.900	0.600																			1580076694.0	11.03	20.43
26/01/2020 22:11:35	26012020	260120	221135	283.060	12.258773	-56.467235	283.110	0.220	-0.460	0.450	283.060	-1.800	0.800																			1580076695.0	10.99	20.35
26/01/2020 22:11:36	26012020	260120	221136	283.060	12.258787	-56.467285	283.120	-0.040	-0.440	0.400	283.060	-1.800	0.700																			1580076696.0	11.24	20.82
26/01/2020 22:11:37	26012020	260120	221137	283.080	12.258798	-56.467338	283.130	-0.340	-0.360	0.100	283.090	-1.700	0.400																			1580076697.0	11.46	21.22
26/01/2020 22:11:38	26012020	260120	221138	283.110	12.258807	-56.467392	283.170	-0.560	-0.150	-0.230	283.120	-1.500	0.100																			1580076698.0	11.48	21.26
26/01/2020 22:11:39	26012020	260120	221139	283.180	12.258813	-56.467445	283.260	-0.590	0.050	-0.390	283.200	-1.300	-0.000																			1580076699.0	11.37	21.06
26/01/2020 22:11:40	26012020	260120	221140	283.310	12.258822	-56.467498	283.380	-0.340	0.030	-0.270	283.330	-1.400	0.100																			1580076700.0	11.37	21.06
26/01/2020 22:11:41	26012020	260120	221141	283.370	12.258833	-56.467552	283.420	0.060	-0.150	0.100	283.370	-1.500	0.500																			1580076701.0	11.58	21.45
26/01/2020 22:11:42	26012020	260120	221142	283.270	12.258847	-56.467605	283.280	0.350	-0.220	0.490	283.220	-1.600	0.900																			1580076702.0	11.70	21.67
26/01/2020 22:11:43	26012020	260120	221143	283.020	12.258860	-56.467658	283.020	0.330	-0.090	0.690	282.960	-1.400	1.100																			1580076703.0	11.49	21.28
26/01/2020 22:11:44	26012020	260120	221144	282.770	12.258873	-56.467710	282.780	0.120	0.040	0.610	282.740	-1.300	0.900																			1580076704.0	11.15	20.65
26/01/2020 22:11:45	26012020	260120	221145	282.630	12.258883	-56.467760	282.670	-0.050	-0.030	0.330	282.610	-1.400	0.700																			1580076705.0	11.04	20.45
26/01/2020 22:11:46	26012020	260120	221146	282.600	12.258893	-56.467813	282.650	-0.030	-0.320	-0.010	282.610	-1.700	0.300																			1580076706.0	11.21	20.76
26/01/2020 22:11:47	26012020	260120	221147	282.670	12.258902	-56.467867	282.740	0.130	-0.560	-0.300	282.690	-1.900	0.000																			1580076707.0	11.44	21.19
26/01/2020 22:11:48	26012020	260120	221148	282.780	12.258912	-56.467918	282.850	0.240	-0.560	-0.430	282.810	-1.900	-0.100																			1580076708.0	11.42	21.15
26/01/2020 22:11:49	26012020	260120	221149	282.890	12.258922	-56.467972	282.950	0.200	-0.390	-0.280	282.910	-1.700	0.100																			1580076709.0	11.19	20.72
26/01/2020 22:11:50	26012020	260120	221150	282.950	12.258933	-56.468022	283.000	0.060	-0.250	0.060	282.950	-1.700	0.300																			1580076710.0	11.05	20.46
26/01/2020 22:11:51	26012020	260120	221151	282.930	12.258945	-56.468073	282.970	-0.020	-0.260	0.380	282.920	-1.600	0.800																			1580076711.0	11.15	20.65
26/01/2020 22:11:52	26012020	260120	221152	282.870	12.258957	-56.468125	282.920	0.020	-0.340	0.540	282.870	-1.700	0.900																			1580076712.0	11.36	21.04
26/01/2020 22:11:53	26012020	260120	221153	282.830	12.258970	-56.468178	282.870	0.120	-0.430	0.460	282.830	-1.800	0.800																			1580076713.0	11.50	21.30
26/01/2020 22:11:54	26012020	260120	221154	282.810	12.258980	-56.468232	282.840	0.100	-0.400	0.260	282.800	-1.800	0.600																			1580076714.0	11.53	21.35
26/01/2020 22:11:55	26012020	260120	221155	282.750	12.258990	-56.468285	282.780	-0.120	-0.190	0.010	282.740	-1.500	0.300																			1580076715.0	11.40	21.11
26/01/2020 22:11:56	26012020	260120	221156	282.690	12.259000	-56.468337	282.720	-0.450	0.050	-0.260	282.680	-1.300	0.100																			1580076716.0	11.14	20.63
26/01/2020 22:11:57	26012020	260120	221157	282.700	12.259008	-56.468388	282.750	-0.640	0.060	-0.520	282.710	-1.400	-0.200																			1580076717.0	11.06	20.48
26/01/2020 22:11:58	26012020	260120	221158	282.830	12.259015	-56.468442	282.920	-0.490	-0.290	-0.640	282.880	-1.700	-0.300																			1580076718.0	11.29	20.91
26/01/2020 22:11:59	26012020	260120	221159	283.070	12.259025	-56.468495	283.170	-0.020	-0.740	-0.520	283.120	-2.200	-0.100																			1580076719.0	11.68	21.63
26/01/2020 22:12:00	26012020	260120	221200	283.260	12.259037	-56.468550	283.340	0.460	-0.900	-0.140	283.280	-2.300	0.300	1014.90	26.10	26.10	21.00	21.00	-1.00	73.00	73.00	379.00	25.40	36.00	4.70	49.00	3.40	17	3748.00	27.70	27.70	1580076720.0	11.91	22.06
26/01/2020 22:12:01	26012020	260120	221201	283.280	12.259050	-56.468603	283.320	0.620	-0.480	0.340	283.260	-1.800	0.800																			1580076721.0	11.70	21.67
26/01/2020 22:12:02	26012020	260120	221202	283.140	12.259063	-56.468655	283.160	0.390	0.310	0.720	283.140	-1.300	1.000																			1580076722.0	11.13	20.61
26/01/2020 22:12:03	26012020	260120	221203	282.910	12.259077	-56.468703	282.910	0.010	0.850	0.810	282.860	-0.500	1.200																			1580076723.0	10.66	19.74
26/01/2020 22:12:04	26012020	260120	221204	282.680	12.259088	-56.468753	282.690	-0.230	0.700	0.520	282.680	-0.600	1.000																			1580076724.0	10.77	19.95
26/01/2020 22:12:05	26012020	260120	221205	282.540	12.259097	-56.468805	282.560	-0.200	-0.050	0.030	282.530	-1.600	0.300																			1580076725.0	11.34	21.00
26/01/2020 22:12:06	26012020	260120	221206	282.530	12.259105	-56.468862	282.570	-0.050	-0.850	-0.460	282.540	-2.300	-0.100																			1580076726.0	11.82	21.89
26/01/2020 22:12:07	26012020	260120	221207	282.640	12.259113	-56.468917	282.710	0.040	-1.160	-0.730	282.670	-2.500	-0.400																			1580076727.0	11.78	21.82
26/01/2020 22:12:08	26012020	260120	221208	282.840	12.259122	-56.468968	282.930	0.010	-0.950	-0.680	282.890	-2.300	-0.300																			1580076728.0	11.29	20.91
26/01/2020 22:12:09	26012020	260120	221209	283.080	12.259132	-56.469020	283.160	-0.050	-0.530	-0.430	283.120	-1.900	-0.000																			1580076729.0	10.88	20.15
26/01/2020 22:12:10	26012020	260120	221210	283.260	12.259143	-56.469070	283.330	-0.060	-0.230	-0.160	283.290	-1.600	0.200																			1580076730.0	10.83	20.06
26/01/2020 22:12:11	26012020	260120	221211	283.360	12.259155	-56.469120	283.430	0.010	-0.130	0.110	283.370	-1.500	0.500																			1580076731.0	11.11	20.58
26/01/2020 22:12:12	26012020	260120	221212	283.380	12.259168	-56.469173	283.420	0.130	-0.160	0.280	283.380	-1.600	0.700																			1580076732.0	11.41	21.13
26/01/2020 22:12:13	26012020	260120	221213	283.340	12.259180	-56.469227	283.390	0.230	-0.210	0.320	283.330	-1.600	0.700																			1580076733.0	11.56	21.41
26/01/2020 22:12:14	26012020	260120	221214	283.260	12.259192	-56.469280	283.290	0.220	-0.190	0.260	283.260	-1.600	0.600																			1580076734.0	11.57	21.43
26/01/2020 22:12:15	26012020	260120	221215	283.110	12.259203	-56.469332	283.130	0.070	-0.100	0.150	283.080	-1.500	0.500																			1580076735.0	11.44	21.19
26/01/2020 22:12:16	26012020	260120	221216	282.950	12.259215	-56.469385	282.970	-0.140	-0.060	-0.020	282.920	-1.500	0.300																			1580076736.0	11.29	20.91
26/01/2020 22:12:17	26012020	260120	221217	282.850	12.259225	-56.469437	282.880	-0.280	-0.120	-0.220	282.840	-1.500	0.100																			1580076737.0	11.30	20.93
26/01/2020 22:12:18	26012020	260120	221218	282.830	12.259233	-56.469490	282.860	-0.310	-0.220	-0.400	282.830	-1.600	-0.100																			1580076738.0	11.37	21.06
26/01/2020 22:12:19	26012020	260120	221219	282.870	12.259243	-56.469543	282.910	-0.280	-0.280	-0.510	282.880	-1.700	-0.200																			1580076739.0	11.38	21.08
26/01/2020 22:12:20	26012020	260120	221220	282.980	12.259253	-56.469595	283.040	-0.220	-0.260	-0.490	283.020	-1.600	-0.100																			1580076740.0	11.31	20.95
26/01/2020 22:12:21	26012020	260120	221221	283.160	12.259263	-56.469647	283.230	-0.100	-0.250	-0.260	283.200	-1.600	0.100																			1580076741.0	11.21	20.76
26/01/2020 22:12:22	26012020	260120	221222	283.300	12.259273	-56.469698	283.350	0.110	-0.250	0.140	283.300	-1.600	0.600																			1580076742.0	11.23	20.80
26/01/2020 22:12:23	26012020	260120	221223	283.260	12.259287	-56.469750	283.290	0.310	-0.200	0.570	283.220	-1.600	1.000																			1580076743.0	11.25	20.84
26/01/2020 22:12:24	26012020	260120	221224	283.020	12.259300	-56.469802	283.030	0.380	-0.090	0.870	282.950	-1.500	1.200																			1580076744.0	11.19	20.72
26/01/2020 22:12:25	26012020	260120	221225	282.710	12.259312	-56.469853	282.720	0.280	-0.020	0.830	282.650	-1.400	1.200																			1580076745.0	11.05	20.46
26/01/2020 22:12:26	26012020	260120	221226	282.530	12.259323	-56.469903	282.570	0.150	-0.190	0.460	282.520	-1.600	0.800																			1580076746.0	11.02	20.41
26/01/2020 22:12:27	26012020	260120	221227	282.580	12.259332	-56.469957	282.650	0.140	-0.580	-0.030	282.610	-2.000	0.300																			1580076747.0	11.22	20.78
26/01/2020 22:12:28	26012020	260120	221228	282.810	12.259342	-56.470010	282.890	0.260	-1.030	-0.380	282.810	-2.300	0.000																			1580076748.0	11.54	21.37
26/01/2020 22:12:29	26012020	260120	221229	283.080	12.259352	-56.470063	283.140	0.350	-1.120	-0.420	283.130	-2.500	-0.000																			1580076749.0	11.74	21.74
26/01/2020 22:12:30	26012020	260120	221230	283.250	12.259363	-56.470118	283.290	0.200	-0.670	-0.240	283.270	-2.000	0.100																			1580076750.0	11.58	21.45
26/01/2020 22:12:31	26012020	260120	221231	283.300	12.259375	-56.470168	283.320	-0.190	0.100	-0.100	283.300	-1.200	0.300																			1580076751.0	11.14	20.63
26/01/2020 22:12:32	26012020	260120	221232	283.240	12.259387	-56.470218	283.250	-0.610	0.690	-0.080	283.220	-0.700	0.300																			1580076752.0	10.83	20.06
26/01/2020 22:12:33	26012020	260120	221233	283.130	12.259395	-56.470270	283.140	-0.810	0.770	-0.180	283.100	-0.600	0.200																			1580076753.0	10.95	20.28
26/01/2020 22:12:34	26012020	260120	221234	283.020	12.259403	-56.470323	283.040	-0.700	0.370	-0.340	283.000	-1.100	0.000																			1580076754.0	11.35	21.02
26/01/2020 22:12:35	26012020	260120	221235	282.970	12.259413	-56.470377	283.000	-0.350	-0.260	-0.500	282.960	-1.700	-0.100																			1580076755.0	11.65	21.58
26/01/2020 22:12:36	26012020	260120	221236	283.000	12.259422	-56.470432	283.040	0.080	-0.850	-0.570	283.020	-2.300	-0.200																			1580076756.0	11.76	21.78
26/01/2020 22:12:37	26012020	260120	221237	283.100	12.259433	-56.470487	283.140	0.450	-1.120	-0.480	283.120	-2.500	-0.100																			1580076757.0	11.68	21.63
26/01/2020 22:12:38	26012020	260120	221238	283.150	12.259445	-56.470538	283.180	0.620	-0.920	-0.120	283.150	-2.400	0.100																			1580076758.0	11.42	21.15
26/01/2020 22:12:39	26012020	260120	221239	283.080	12.259457	-56.470590	283.080	0.510	-0.370	0.310	283.050	-1.700	0.700																			1580076759.0	11.08	20.52
26/01/2020 22:12:40	26012020	260120	221240	282.890	12.259470	-56.470638	282.880	0.190	0.210	0.600	282.890	-1.300	0.900																			1580076760.0	10.79	19.98
26/01/2020 22:12:41	26012020	260120	221241	282.680	12.259483	-56.470688	282.680	-0.130	0.450	0.600	282.640	-0.900	0.900																			1580076761.0	10.76	19.93
26/01/2020 22:12:42	26012020	260120	221242	282.540	12.259493	-56.470740	282.560	-0.230	0.210	0.410	282.530	-1.200	0.700																			1580076762.0	11.07	20.50
26/01/2020 22:12:43	26012020	260120	221243	282.550	12.259503	-56.470793	282.590	-0.050	-0.270	0.200	282.580	-1.700	0.500																			1580076763.0	11.53	21.35
26/01/2020 22:12:44	26012020	260120	221244	282.670	12.259513	-56.470847	282.720	0.200	-0.580	0.100	282.710	-2.000	0.500																			1580076764.0	11.77	21.80
26/01/2020 22:12:45	26012020	260120	221245	282.810	12.259525	-56.470902	282.870	0.300	-0.500	0.140	282.830	-1.900	0.500																			1580076765.0	11.56	21.41
26/01/2020 22:12:46	26012020	260120	221246	282.930	12.259537	-56.470952	282.980	0.200	-0.230	0.240	282.950	-1.600	0.600																			1580076766.0	11.13	20.61
26/01/2020 22:12:47	26012020	260120	221247	283.040	12.259548	-56.471003	283.110	0.020	-0.120	0.280	283.060	-1.500	0.600																			1580076767.0	10.92	20.22
26/01/2020 22:12:48	26012020	260120	221248	283.140	12.259558	-56.471053	283.210	-0.140	-0.320	0.170	283.160	-1.700	0.500																			1580076768.0	11.09	20.54
26/01/2020 22:12:49	26012020	260120	221249	283.210	12.259568	-56.471107	283.250	-0.260	-0.630	-0.120	283.220	-2.000	0.200																			1580076769.0	11.43	21.17
26/01/2020 22:12:50	26012020	260120	221250	283.260	12.259578	-56.471162	283.300	-0.320	-0.790	-0.420	283.260	-2.200	0.000																			1580076770.0	11.60	21.48
26/01/2020 22:12:51	26012020	260120	221251	283.310	12.259585	-56.471215	283.350	-0.320	-0.700	-0.510	283.320	-2.000	-0.100																			1580076771.0	11.52	21.34
26/01/2020 22:12:52	26012020	260120	221252	283.330	12.259593	-56.471268	283.360	-0.240	-0.400	-0.280	283.330	-1.900	0.000																			1580076772.0	11.34	21.00
26/01/2020 22:12:53	26012020	260120	221253	283.280	12.259605	-56.471320	283.310	-0.110	-0.000	0.150	283.270	-1.300	0.600																			1580076773.0	11.21	20.76
26/01/2020 22:12:54	26012020	260120	221254	283.190	12.259617	-56.471370	283.220	-0.010	0.330	0.490	283.190	-1.100	0.800																			1580076774.0	11.13	20.61
26/01/2020 22:12:55	26012020	260120	221255	283.080	12.259630	-56.471422	283.100	0.020	0.490	0.590	283.070	-0.900	0.900																			1580076775.0	11.16	20.67
26/01/2020 22:12:56	26012020	260120	221256	283.040	12.259642	-56.471473	283.070	0.020	0.400	0.440	283.050	-1.000	0.800																			1580076776.0	11.21	20.76
26/01/2020 22:12:57	26012020	260120	221257	283.100	12.259653	-56.471525	283.130	0.090	0.050	0.140	283.130	-1.400	0.500																			1580076777.0	11.31	20.95
26/01/2020 22:12:58	26012020	260120	221258	283.210	12.259663	-56.471578	283.240	0.290	-0.430	-0.150	283.230	-1.900	0.200																			1580076778.0	11.47	21.24
26/01/2020 22:12:59	26012020	260120	221259	283.290	12.259673	-56.471633	283.310	0.550	-0.790	-0.300	283.300	-2.200	0.100																			1580076779.0	11.57	21.43
26/01/2020 22:13:00	26012020	260120	221300	283.320	12.259685	-56.471685	283.330	0.640	-0.790	-0.230	283.320	-2.200	0.200	1014.90	26.00	26.10	20.90	20.90	-1.00	73.00	73.00	378.00	25.30	36.00	5.40	37.00	3.50	16	3661.00	27.60	27.60	1580076780.0	11.45	21.21
26/01/2020 22:13:01	26012020	260120	221301	283.300	12.259697	-56.471737	283.310	0.450	-0.500	-0.040	283.290	-1.800	0.300																			1580076781.0	11.11	20.58
26/01/2020 22:13:02	26012020	260120	221302	283.270	12.259708	-56.471787	283.280	0.030	-0.250	0.030	283.260	-1.600	0.400																			1580076782.0	10.81	20.02
26/01/2020 22:13:03	26012020	260120	221303	283.290	12.259718	-56.471837	283.320	-0.370	-0.260	-0.120	283.300	-1.700	0.200																			1580076783.0	10.89	20.17
26/01/2020 22:13:04	26012020	260120	221304	283.420	12.259728	-56.471888	283.470	-0.600	-0.510	-0.440	283.420	-1.800	0.000																			1580076784.0	11.25	20.84
26/01/2020 22:13:05	26012020	260120	221305	283.660	12.259737	-56.471943	283.720	-0.590	-0.720	-0.710	283.710	-2.100	-0.400																			1580076785.0	11.62	21.52
26/01/2020 22:13:06	26012020	260120	221306	283.920	12.259747	-56.471998	283.980	-0.460	-0.640	-0.690	283.960	-2.000	-0.300																			1580076786.0	11.69	21.65
26/01/2020 22:13:07	26012020	260120	221307	284.040	12.259755	-56.472052	284.060	-0.310	-0.210	-0.320	284.040	-1.500	0.100																			1580076787.0	11.46	21.22
26/01/2020 22:13:08	26012020	260120	221308	283.950	12.259767	-56.472102	283.960	-0.200	0.260	0.150	283.930	-1.100	0.600																			1580076788.0	11.12	20.59
26/01/2020 22:13:09	26012020	260120	221309	283.790	12.259780	-56.472153	283.800	-0.050	0.410	0.470	283.760	-1.000	0.800																			1580076789.0	11.04	20.45
26/01/2020 22:13:10	26012020	260120	221310	283.660	12.259793	-56.472205	283.680	0.190	0.180	0.500	283.640	-1.200	0.800																			1580076790.0	11.30	20.93
26/01/2020 22:13:11	26012020	260120	221311	283.550	12.259805	-56.472258	283.560	0.420	-0.140	0.360	283.520	-1.600	0.700																			1580076791.0	11.59	21.46
26/01/2020 22:13:12	26012020	260120	221312	283.360	12.259817	-56.472312	283.350	0.500	-0.280	0.210	283.310	-1.700	0.500																			1580076792.0	11.57	21.43
26/01/2020 22:13:13	26012020	260120	221313	283.140	12.259828	-56.472363	283.130	0.370	-0.260	0.040	283.100	-1.600	0.400																			1580076793.0	11.24	20.82
26/01/2020 22:13:14	26012020	260120	221314	282.980	12.259840	-56.472415	282.990	0.140	-0.290	-0.130	282.970	-1.700	0.200																			1580076794.0	11.04	20.45
26/01/2020 22:13:15	26012020	260120	221315	282.950	12.259850	-56.472465	282.980	-0.030	-0.440	-0.300	282.960	-1.800	0.000																			1580076795.0	11.09	20.54
26/01/2020 22:13:16	26012020	260120	221316	283.050	12.259860	-56.472518	283.100	-0.070	-0.550	-0.410	283.080	-1.900	-0.100																			1580076796.0	11.26	20.85
26/01/2020 22:13:17	26012020	260120	221317	283.200	12.259870	-56.472570	283.250	-0.020	-0.500	-0.370	283.230	-1.900	0.000																			1580076797.0	11.30	20.93
26/01/2020 22:13:18	26012020	260120	221318	283.340	12.259882	-56.472622	283.390	0.000	-0.330	-0.140	283.340	-1.700	0.200																			1580076798.0	11.19	20.72
26/01/2020 22:13:19	26012020	260120	221319	283.460	12.259893	-56.472673	283.520	-0.050	-0.190	0.150	283.480	-1.600	0.500																			1580076799.0	11.11	20.58
26/01/2020 22:13:20	26012020	260120	221320	283.550	12.259907	-56.472725	283.620	-0.160	-0.210	0.290	283.570	-1.600	0.600																			1580076800.0	11.17	20.69
26/01/2020 22:13:21	26012020	260120	221321	283.660	12.259918	-56.472777	283.720	-0.240	-0.360	0.160	283.690	-1.800	0.500																			1580076801.0	11.33	20.98
26/01/2020 22:13:22	26012020	260120	221322	283.780	12.259928	-56.472830	283.830	-0.240	-0.510	-0.140	283.800	-1.900	0.200																			1580076802.0	11.49	21.28
26/01/2020 22:13:23	26012020	260120	221323	283.820	12.259937	-56.472883	283.860	-0.180	-0.540	-0.430	283.820	-1.900	-0.100																			1580076803.0	11.55	21.39
26/01/2020 22:13:24	26012020	260120	221324	283.720	12.259945	-56.472937	283.730	-0.120	-0.350	-0.540	283.690	-1.700	-0.200																			1580076804.0	11.45	21.21
26/01/2020 22:13:25	26012020	260120	221325	283.500	12.259955	-56.472990	283.500	-0.060	-0.100	-0.420	283.450	-1.500	-0.000																			1580076805.0	11.26	20.85
26/01/2020 22:13:26	26012020	260120	221326	283.220	12.259965	-56.473042	283.210	0.020	0.030	-0.170	283.160	-1.300	0.200																			1580076806.0	11.19	20.72
26/01/2020 22:13:27	26012020	260120	221327	282.910	12.259978	-56.473093	282.900	0.110	0.030	0.050	282.840	-1.400	0.400																			1580076807.0	11.33	20.98
26/01/2020 22:13:28	26012020	260120	221328	282.640	12.259992	-56.473145	282.650	0.110	0.030	0.100	282.640	-1.400	0.500																			1580076808.0	11.44	21.19
26/01/2020 22:13:29	26012020	260120	221329	282.490	12.260003	-56.473198	282.520	-0.010	0.100	-0.010	282.480	-1.300	0.300																			1580076809.0	11.35	21.02
26/01/2020 22:13:30	26012020	260120	221330	282.530	12.260015	-56.473250	282.580	-0.130	0.150	-0.250	282.530	-1.200	0.200																			1580076810.0	11.13	20.61
26/01/2020 22:13:31	26012020	260120	221331	282.750	12.260025	-56.473300	282.830	-0.050	-0.020	-0.560	282.810	-1.400	-0.200																			1580076811.0	11.04	20.45
26/01/2020 22:13:32	26012020	260120	221332	283.110	12.260033	-56.473353	283.190	0.260	-0.470	-0.780	283.180	-1.900	-0.400																			1580076812.0	11.21	20.76
26/01/2020 22:13:33	26012020	260120	221333	283.470	12.260045	-56.473407	283.540	0.590	-0.940	-0.810	283.530	-2.400	-0.400																			1580076813.0	11.54	21.37
26/01/2020 22:13:34	26012020	260120	221334	283.720	12.260057	-56.473460	283.760	0.660	-1.070	-0.610	283.750	-2.400	-0.200																			1580076814.0	11.63	21.54
26/01/2020 22:13:35	26012020	260120	221335	283.760	12.260072	-56.473512	283.760	0.350	-0.740	-0.290	283.730	-2.100	0.100																			1580076815.0	11.35	21.02
26/01/2020 22:13:36	26012020	260120	221336	283.570	12.260085	-56.473562	283.560	-0.210	-0.250	-0.060	283.520	-1.600	0.300																			1580076816.0	10.94	20.26
26/01/2020 22:13:37	26012020	260120	221337	283.290	12.260095	-56.473612	283.270	-0.710	-0.010	-0.040	283.230	-1.400	0.300																			1580076817.0	10.85	20.09
26/01/2020 22:13:38	26012020	260120	221338	283.050	12.260103	-56.473663	283.050	-0.920	-0.110	-0.160	283.020	-1.500	0.200																			1580076818.0	11.19	20.72
26/01/2020 22:13:39	26012020	260120	221339	282.920	12.260112	-56.473718	282.940	-0.770	-0.310	-0.290	282.910	-1.700	0.100																			1580076819.0	11.63	21.54
26/01/2020 22:13:40	26012020	260120	221340	282.870	12.260120	-56.473773	282.870	-0.420	-0.250	-0.190	282.860	-1.700	0.100																			1580076820.0	11.76	21.78
26/01/2020 22:13:41	26012020	260120	221341	282.760	12.260130	-56.473827	282.790	-0.030	0.070	0.200	282.750	-1.300	0.600																			1580076821.0	11.48	21.26
26/01/2020 22:13:42	26012020	260120	221342	282.700	12.260143	-56.473878	282.760	0.320	0.330	0.690	282.700	-1.100	0.900																			1580076822.0	11.16	20.67
26/01/2020 22:13:43	26012020	260120	221343	282.770	12.260158	-56.473928	282.840	0.610	0.270	1.000	282.800	-1.100	1.400																			1580076823.0	11.18	20.71
26/01/2020 22:13:44	26012020	260120	221344	282.960	12.260173	-56.473980	283.030	0.790	-0.050	0.970	282.960	-1.400	1.400																			1580076824.0	11.41	21.13
26/01/2020 22:13:45	26012020	260120	221345	283.170	12.260188	-56.474032	283.220	0.740	-0.350	0.630	283.200	-1.800	0.900																			1580076825.0	11.53	21.35
26/01/2020 22:13:46	26012020	260120	221346	283.310	12.260198	-56.474085	283.320	0.420	-0.410	0.160	283.320	-1.800	0.500																			1580076826.0	11.38	21.08
26/01/2020 22:13:47	26012020	260120	221347	283.360	12.260208	-56.474137	283.350	-0.020	-0.380	-0.400	283.360	-1.800	-0.100																			1580076827.0	11.05	20.46
26/01/2020 22:13:48	26012020	260120	221348	283.380	12.260215	-56.474188	283.370	-0.330	-0.510	-0.950	283.380	-1.900	-0.600																			1580076828.0	10.96	20.30
26/01/2020 22:13:49	26012020	260120	221349	283.360	12.260222	-56.474240	283.350	-0.380	-0.790	-1.330	283.340	-2.200	-1.000																			1580076829.0	11.24	20.82
26/01/2020 22:13:50	26012020	260120	221350	283.280	12.260230	-56.474295	283.270	-0.290	-0.930	-1.410	283.260	-2.300	-1.000																			1580076830.0	11.53	21.35
26/01/2020 22:13:51	26012020	260120	221351	283.160	12.260240	-56.474348	283.150	-0.250	-0.710	-1.150	283.130	-2.000	-0.700																			1580076831.0	11.50	21.30
26/01/2020 22:13:52	26012020	260120	221352	283.000	12.260250	-56.474400	283.010	-0.300	-0.260	-0.700	283.000	-1.700	-0.400																			1580076832.0	11.25	20.84
26/01/2020 22:13:53	26012020	260120	221353	282.910	12.260263	-56.474450	282.950	-0.330	0.080	-0.210	282.910	-1.300	0.200																			1580076833.0	11.08	20.52
26/01/2020 22:13:54	26012020	260120	221354	282.930	12.260277	-56.474502	282.990	-0.210	0.130	0.290	282.930	-1.200	0.500																			1580076834.0	11.25	20.84
26/01/2020 22:13:55	26012020	260120	221355	283.030	12.260290	-56.474555	283.110	0.040	0.050	0.820	283.060	-1.300	1.200																			1580076835.0	11.56	21.41
26/01/2020 22:13:56	26012020	260120	221356	283.160	12.260303	-56.474608	283.230	0.270	0.070	1.300	283.180	-1.300	1.700																			1580076836.0	11.63	21.54
26/01/2020 22:13:57	26012020	260120	221357	283.210	12.260318	-56.474660	283.260	0.340	0.190	1.610	283.210	-1.200	2.000																			1580076837.0	11.42	21.15
26/01/2020 22:13:58	26012020	260120	221358	283.170	12.260332	-56.474712	283.200	0.290	0.210	1.610	283.160	-1.200	1.900																			1580076838.0	11.17	20.69
26/01/2020 22:13:59	26012020	260120	221359	283.060	12.260343	-56.474763	283.070	0.220	0.000	1.290	283.030	-1.400	1.600																			1580076839.0	11.14	20.63
26/01/2020 22:14:00	26012020	260120	221400	282.880	12.260352	-56.474815	282.870	0.180	-0.320	0.750	282.840	-1.700	1.000	1014.90	26.00	26.10	20.90	20.90	-1.00	73.00	73.00	378.00	25.30	39.00	5.50	38.00	3.80	16	3817.00	27.70	27.60	1580076840.0	11.29	20.91
26/01/2020 22:14:01	26012020	260120	221401	282.660	12.260360	-56.474868	282.630	0.180	-0.620	0.060	282.630	-2.000	0.300																			1580076841.0	11.36	21.04
26/01/2020 22:14:02	26012020	260120	221402	282.480	12.260368	-56.474922	282.460	0.150	-0.870	-0.680	282.460	-2.300	-0.400																			1580076842.0	11.35	21.02
26/01/2020 22:14:03	26012020	260120	221403	282.430	12.260375	-56.474975	282.430	0.090	-1.030	-1.360	282.440	-2.400	-1.100																			1580076843.0	11.35	21.02
26/01/2020 22:14:04	26012020	260120	221404	282.560	12.260383	-56.475028	282.580	0.010	-1.020	-1.820	282.610	-2.400	-1.500																			1580076844.0	11.42	21.15
26/01/2020 22:14:05	26012020	260120	221405	282.820	12.260392	-56.475082	282.860	-0.050	-0.770	-1.880	282.880	-2.100	-1.500																			1580076845.0	11.46	21.22
26/01/2020 22:14:06	26012020	260120	221406	283.080	12.260402	-56.475135	283.110	-0.170	-0.300	-1.500	283.120	-1.600	-1.100																			1580076846.0	11.39	21.09
26/01/2020 22:14:07	26012020	260120	221407	283.190	12.260415	-56.475187	283.200	-0.400	0.280	-0.820	283.170	-1.000	-0.400																			1580076847.0	11.27	20.87
26/01/2020 22:14:08	26012020	260120	221408	283.060	12.260428	-56.475237	283.070	-0.680	0.770	0.020	283.020	-0.600	0.500																			1580076848.0	11.16	20.67
26/01/2020 22:14:09	26012020	260120	221409	282.780	12.260442	-56.475287	282.780	-0.800	0.910	0.800	282.720	-0.500	1.200																			1580076849.0	11.07	20.50
26/01/2020 22:14:10	26012020	260120	221410	282.480	12.260453	-56.475338	282.500	-0.570	0.480	1.330	282.480	-0.800	1.600																			1580076850.0	11.23	20.80
26/01/2020 22:14:11	26012020	260120	221411	282.260	12.260465	-56.475393	282.300	0.030	-0.370	1.540	282.240	-1.900	1.900																			1580076851.0	11.64	21.56
26/01/2020 22:14:12	26012020	260120	221412	282.190	12.260477	-56.475448	282.250	0.740	-1.090	1.530	282.190	-2.500	1.900																			1580076852.0	11.99	22.21
26/01/2020 22:14:13	26012020	260120	221413	282.250	12.260488	-56.475503	282.310	1.160	-1.190	1.440	282.260	-2.500	1.800																			1580076853.0	11.86	21.96
26/01/2020 22:14:14	26012020	260120	221414	282.320	12.260500	-56.475555	282.360	1.080	-0.690	1.350	282.320	-2.000	1.700																			1580076854.0	11.28	20.89
26/01/2020 22:14:15	26012020	260120	221415	282.330	12.260512	-56.475605	282.340	0.590	-0.090	1.120	282.320	-1.400	1.400																			1580076855.0	10.77	19.95
26/01/2020 22:14:16	26012020	260120	221416	282.260	12.260523	-56.475655	282.260	-0.020	0.190	0.660	282.240	-1.200	0.900																			1580076856.0	10.76	19.93
26/01/2020 22:14:17	26012020	260120	221417	282.190	12.260532	-56.475707	282.170	-0.490	0.100	-0.060	282.170	-1.300	0.200																			1580076857.0	11.15	20.65
26/01/2020 22:14:18	26012020	260120	221418	282.160	12.260538	-56.475760	282.150	-0.700	-0.200	-0.890	282.160	-1.500	-0.300																			1580076858.0	11.57	21.43
26/01/2020 22:14:19	26012020	260120	221419	282.240	12.260543	-56.475817	282.250	-0.670	-0.450	-1.650	282.270	-1.900	-1.400																			1580076859.0	11.77	21.80
26/01/2020 22:14:20	26012020	260120	221420	282.410	12.260548	-56.475872	282.430	-0.470	-0.540	-2.090	282.410	-1.900	-1.700																			1580076860.0	11.69	21.65
26/01/2020 22:14:21	26012020	260120	221421	282.610	12.260555	-56.475925	282.640	-0.190	-0.480	-2.050	282.650	-1.800	-1.600																			1580076861.0	11.50	21.30
26/01/2020 22:14:22	26012020	260120	221422	282.770	12.260565	-56.475978	282.820	0.070	-0.370	-1.520	282.800	-1.700	-1.100																			1580076862.0	11.32	20.96
26/01/2020 22:14:23	26012020	260120	221423	282.880	12.260577	-56.476030	282.940	0.240	-0.320	-0.680	282.890	-1.700	-0.200																			1580076863.0	11.32	20.96
26/01/2020 22:14:24	26012020	260120	221424	282.940	12.260592	-56.476082	283.000	0.250	-0.270	0.310	282.940	-1.600	0.800																			1580076864.0	11.40	21.11
26/01/2020 22:14:25	26012020	260120	221425	282.930	12.260608	-56.476133	282.990	0.110	-0.180	1.240	282.920	-1.500	1.700																			1580076865.0	11.43	21.17
26/01/2020 22:14:26	26012020	260120	221426	282.880	12.260623	-56.476185	282.940	-0.080	-0.080	1.920	282.870	-1.500	2.300																			1580076866.0	11.33	20.98
26/01/2020 22:14:27	26012020	260120	221427	282.820	12.260637	-56.476237	282.890	-0.170	-0.060	2.200	282.820	-1.400	2.600																			1580076867.0	11.28	20.89
26/01/2020 22:14:28	26012020	260120	221428	282.790	12.260647	-56.476288	282.850	-0.090	-0.090	2.030	282.780	-1.500	2.300																			1580076868.0	11.30	20.93
26/01/2020 22:14:29	26012020	260120	221429	282.740	12.260657	-56.476342	282.790	0.080	-0.150	1.480	282.720	-1.500	1.800																			1580076869.0	11.35	21.02
26/01/2020 22:14:30	26012020	260120	221430	282.640	12.260665	-56.476393	282.660	0.230	-0.170	0.710	282.620	-1.600	1.000																			1580076870.0	11.35	21.02
26/01/2020 22:14:31	26012020	260120	221431	282.510	12.260672	-56.476447	282.500	0.250	-0.110	-0.130	282.480	-1.500	0.100																			1580076871.0	11.22	20.78
26/01/2020 22:14:32	26012020	260120	221432	282.360	12.260680	-56.476498	282.310	0.150	-0.070	-0.910	282.360	-1.500	-0.400																			1580076872.0	11.00	20.37
26/01/2020 22:14:33	26012020	260120	221433	282.250	12.260687	-56.476548	282.220	0.040	-0.230	-1.600	282.240	-1.700	-1.300																			1580076873.0	10.86	20.11
26/01/2020 22:14:34	26012020	260120	221434	282.300	12.260695	-56.476600	282.300	-0.000	-0.650	-2.140	282.300	-1.900	-1.700																			1580076874.0	10.96	20.30
26/01/2020 22:14:35	26012020	260120	221435	282.530	12.260702	-56.476653	282.560	0.020	-1.080	-2.450	282.590	-2.500	-2.100																			1580076875.0	11.22	20.78
26/01/2020 22:14:36	26012020	260120	221436	282.870	12.260710	-56.476705	282.910	0.030	-1.180	-2.360	282.940	-2.500	-1.900																			1580076876.0	11.28	20.89
26/01/2020 22:14:37	26012020	260120	221437	283.160	12.260718	-56.476757	283.210	-0.060	-0.790	-1.770	283.210	-2.100	-1.300																			1580076877.0	11.09	20.54
26/01/2020 22:14:38	26012020	260120	221438	283.310	12.260730	-56.476807	283.340	-0.260	-0.060	-0.700	283.310	-1.400	-0.200																			1580076878.0	10.72	19.85
26/01/2020 22:14:39	26012020	260120	221439	283.290	12.260745	-56.476853	283.330	-0.450	0.540	0.650	283.270	-0.800	1.200																			1580076879.0	10.46	19.37
26/01/2020 22:14:40	26012020	260120	221440	283.210	12.260760	-56.476902	283.280	-0.410	0.640	1.930	283.200	-0.800	2.400																			1580076880.0	10.60	19.63
26/01/2020 22:14:41	26012020	260120	221441	283.160	12.260775	-56.476950	283.250	-0.110	0.260	2.850	283.160	-1.200	3.300																			1580076881.0	11.06	20.48
26/01/2020 22:14:42	26012020	260120	221442	283.210	12.260792	-56.477002	283.320	0.230	-0.210	3.200	283.230	-1.700	3.600																			1580076882.0	11.37	21.06
26/01/2020 22:14:43	26012020	260120	221443	283.390	12.260803	-56.477053	283.520	0.320	-0.420	2.870	283.450	-1.800	3.100																			1580076883.0	11.24	20.82
26/01/2020 22:14:44	26012020	260120	221444	283.750	12.260813	-56.477103	283.880	0.100	-0.320	1.860	283.830	-1.700	2.000																			1580076884.0	10.74	19.89
26/01/2020 22:14:45	26012020	260120	221445	284.260	12.260817	-56.477152	284.390	-0.200	-0.190	0.400	284.380	-1.600	0.600																			1580076885.0	10.32	19.11
26/01/2020 22:14:46	26012020	260120	221446	284.940	12.260818	-56.477202	285.080	-0.280	-0.300	-1.120	285.100	-1.700	-0.900																			1580076886.0	10.28	19.04
26/01/2020 22:14:47	26012020	260120	221447	285.820	12.260820	-56.477252	285.950	-0.050	-0.660	-2.330	286.000	-2.100	-2.100																			1580076887.0	10.57	19.58
26/01/2020 22:14:48	26012020	260120	221448	286.840	12.260823	-56.477302	286.980	0.350	-0.980	-3.000	287.050	-2.400	-2.700																			1580076888.0	10.81	20.02
26/01/2020 22:14:49	26012020	260120	221449	287.950	12.260832	-56.477352	288.110	0.630	-0.940	-3.050	288.170	-2.300	-2.600																			1580076889.0	10.73	19.87
26/01/2020 22:14:50	26012020	260120	221450	289.030	12.260843	-56.477400	289.190	0.560	-0.380	-2.510	289.230	-1.700	-2.000																			1580076890.0	10.37	19.21
26/01/2020 22:14:51	26012020	260120	221451	289.980	12.260857	-56.477443	290.150	0.150	0.430	-1.590	290.160	-0.900	-1.100																			1580076891.0	9.84	18.22
26/01/2020 22:14:52	26012020	260120	221452	290.820	12.260873	-56.477485	290.990	-0.380	1.020	-0.650	290.970	-0.400	-0.200																			1580076892.0	9.43	17.46
26/01/2020 22:14:53	26012020	260120	221453	291.610	12.260888	-56.477527	291.810	-0.710	0.900	0.030	291.770	-0.600	0.400																			1580076893.0	9.46	17.52
26/01/2020 22:14:54	26012020	260120	221454	292.480	12.260903	-56.477572	292.730	-0.640	0.070	0.250	292.680	-1.500	0.600																			1580076894.0	9.95	18.43
26/01/2020 22:14:55	26012020	260120	221455	293.520	12.260917	-56.477620	293.820	-0.270	-0.920	0.050	293.750	-2.400	0.400																			1580076895.0	10.55	19.54
26/01/2020 22:14:56	26012020	260120	221456	294.700	12.260928	-56.477668	295.030	0.100	-1.410	-0.400	294.950	-2.800	-0.100																			1580076896.0	10.65	19.72
26/01/2020 22:14:57	26012020	260120	221457	295.970	12.260940	-56.477715	296.320	0.250	-1.210	-0.870	296.240	-2.500	-0.600																			1580076897.0	10.15	18.80
26/01/2020 22:14:58	26012020	260120	221458	297.340	12.260950	-56.477758	297.680	0.160	-0.610	-1.260	297.340	-2.200	-0.800																			1580076898.0	9.48	17.56
26/01/2020 22:14:59	26012020	260120	221459	298.790	12.260962	-56.477800	299.100	0.010	-0.030	-1.500	299.050	-1.400	-1.200																			1580076899.0	9.10	16.85
26/01/2020 22:15:00	26012020	260120	221500	300.200	12.260975	-56.477842	300.490	-0.070	0.270	-1.610	300.460	-1.100	-1.300	1014.90	26.00	26.10	20.90	20.90	-1.00	73.00	73.00	378.00	25.30	40.00	4.70	49.00	3.60	16	3611.00	27.60	27.60	1580076900.0	9.11	16.87
26/01/2020 22:15:01	26012020	260120	221501	301.540	12.260990	-56.477882	301.820	-0.050	0.360	-1.610	301.800	-1.000	-1.300																			1580076901.0	9.29	17.21
26/01/2020 22:15:02	26012020	260120	221502	302.760	12.261007	-56.477923	303.010	-0.010	0.360	-1.520	302.990	-1.000	-1.200																			1580076902.0	9.35	17.32
26/01/2020 22:15:03	26012020	260120	221503	303.860	12.261023	-56.477963	304.100	-0.000	0.340	-1.450	304.080	-1.100	-1.100																			1580076903.0	9.20	17.04
26/01/2020 22:15:04	26012020	260120	221504	304.930	12.261042	-56.478002	305.160	-0.010	0.180	-1.480	305.150	-1.200	-1.200																			1580076904.0	9.02	16.71
26/01/2020 22:15:05	26012020	260120	221505	306.030	12.261060	-56.478040	306.230	0.030	-0.120	-1.680	306.260	-1.600	-1.400																			1580076905.0	9.01	16.69
26/01/2020 22:15:06	26012020	260120	221506	307.190	12.261077	-56.478080	307.370	0.120	-0.460	-1.970	307.430	-1.900	-1.700																			1580076906.0	9.07	16.80
26/01/2020 22:15:07	26012020	260120	221507	308.410	12.261093	-56.478118	308.580	0.240	-0.680	-2.190	308.670	-2.100	-1.900																			1580076907.0	9.03	16.72
26/01/2020 22:15:08	26012020	260120	221508	309.710	12.261112	-56.478157	309.880	0.290	-0.680	-2.240	309.980	-2.100	-1.900																			1580076908.0	8.86	16.41
26/01/2020 22:15:09	26012020	260120	221509	311.090	12.261130	-56.478192	311.290	0.200	-0.490	-2.100	311.380	-1.900	-1.700																			1580076909.0	8.55	15.83
26/01/2020 22:15:10	26012020	260120	221510	312.570	12.261150	-56.478225	312.820	-0.020	-0.210	-1.870	312.570	-1.700	-1.600																			1580076910.0	8.24	15.26
26/01/2020 22:15:11	26012020	260120	221511	314.090	12.261170	-56.478258	314.340	-0.260	-0.040	-1.600	314.390	-1.400	-1.200																			1580076911.0	8.10	15.00
26/01/2020 22:15:12	26012020	260120	221512	315.530	12.261190	-56.478290	315.750	-0.420	-0.040	-1.310	315.780	-1.500	-0.900																			1580076912.0	8.16	15.11
26/01/2020 22:15:13	26012020	260120	221513	316.790	12.261212	-56.478323	316.990	-0.440	-0.080	-1.040	317.010	-1.500	-0.700																			1580076913.0	8.29	15.35
26/01/2020 22:15:14	26012020	260120	221514	317.900	12.261233	-56.478355	318.090	-0.340	-0.030	-0.840	318.120	-1.400	-0.500																			1580076914.0	8.29	15.35
26/01/2020 22:15:15	26012020	260120	221515	318.950	12.261255	-56.478387	319.180	-0.150	0.090	-0.750	319.160	-1.300	-0.400																			1580076915.0	8.11	15.02
26/01/2020 22:15:16	26012020	260120	221516	320.010	12.261277	-56.478417	320.280	0.130	0.110	-0.770	320.230	-1.300	-0.500																			1580076916.0	7.94	14.70
26/01/2020 22:15:17	26012020	260120	221517	321.120	12.261298	-56.478447	321.390	0.460	-0.030	-0.800	321.340	-1.500	-0.500																			1580076917.0	7.87	14.58
26/01/2020 22:15:18	26012020	260120	221518	322.250	12.261322	-56.478477	322.520	0.700	-0.220	-0.840	322.490	-1.700	-0.500																			1580076918.0	7.85	14.54
26/01/2020 22:15:19	26012020	260120	221519	323.470	12.261345	-56.478503	323.740	0.660	-0.330	-0.950	323.740	-1.700	-0.700																			1580076919.0	7.72	14.30
26/01/2020 22:15:20	26012020	260120	221520	324.830	12.261368	-56.478530	325.110	0.320	-0.270	-1.250	325.120	-1.700	-1.000																			1580076920.0	7.52	13.93
26/01/2020 22:15:21	26012020	260120	221521	326.240	12.261390	-56.478557	326.520	-0.150	-0.080	-1.730	326.520	-1.500	-1.500																			1580076921.0	7.34	13.59
26/01/2020 22:15:22	26012020	260120	221522	327.590	12.261412	-56.478583	327.860	-0.510	0.090	-2.270	327.590	-1.300	-1.800																			1580076922.0	7.31	13.54
26/01/2020 22:15:23	26012020	260120	221523	328.840	12.261432	-56.478612	329.110	-0.590	0.040	-2.660	329.090	-1.400	-2.400																			1580076923.0	7.39	13.69
26/01/2020 22:15:24	26012020	260120	221524	330.000	12.261452	-56.478640	330.240	-0.410	-0.180	-2.710	330.000	-1.500	-2.400																			1580076924.0	7.51	13.91
26/01/2020 22:15:25	26012020	260120	221525	331.010	12.261477	-56.478667	331.250	-0.150	-0.380	-2.370	331.200	-1.800	-2.000																			1580076925.0	7.48	13.85
26/01/2020 22:15:26	26012020	260120	221526	332.000	12.261502	-56.478690	332.260	0.050	-0.420	-1.750	332.200	-1.800	-1.400																			1580076926.0	7.23	13.39
26/01/2020 22:15:27	26012020	260120	221527	333.070	12.261527	-56.478710	333.360	0.130	-0.290	-1.070	333.310	-1.700	-0.700																			1580076927.0	6.88	12.74
26/01/2020 22:15:28	26012020	260120	221528	334.360	12.261550	-56.478728	334.700	0.180	-0.150	-0.520	334.650	-1.500	-0.200																			1580076928.0	6.59	12.20
26/01/2020 22:15:29	26012020	260120	221529	335.840	12.261575	-56.478745	336.190	0.270	-0.100	-0.220	336.140	-1.500	0.100																			1580076929.0	6.49	12.02
26/01/2020 22:15:30	26012020	260120	221530	337.250	12.261600	-56.478763	337.570	0.400	-0.100	-0.010	337.510	-1.500	0.300																			1580076930.0	6.56	12.15
26/01/2020 22:15:31	26012020	260120	221531	338.400	12.261625	-56.478780	338.680	0.480	-0.120	0.100	338.600	-1.500	0.400																			1580076931.0	6.60	12.22
26/01/2020 22:15:32	26012020	260120	221532	339.280	12.261652	-56.478798	339.520	0.410	-0.090	0.010	339.440	-1.500	0.300																			1580076932.0	6.64	12.30
26/01/2020 22:15:33	26012020	260120	221533	340.010	12.261677	-56.478817	340.200	0.140	0.110	-0.390	340.150	-1.300	-0.100																			1580076933.0	6.61	12.24
26/01/2020 22:15:34	26012020	260120	221534	340.740	12.261698	-56.478837	340.930	-0.280	0.440	-1.040	340.910	-0.900	-0.800																			1580076934.0	6.44	11.93
26/01/2020 22:15:35	26012020	260120	221535	341.660	12.261718	-56.478858	341.870	-0.680	0.620	-1.790	341.870	-0.800	-1.600																			1580076935.0	6.21	11.50
26/01/2020 22:15:36	26012020	260120	221536	342.850	12.261738	-56.478880	343.120	-0.820	0.290	-2.560	343.130	-1.200	-2.300																			1580076936.0	6.21	11.50
26/01/2020 22:15:37	26012020	260120	221537	344.350	12.261760	-56.478900	344.610	-0.590	-0.520	-3.230	344.640	-2.000	-3.000																			1580076937.0	6.51	12.06
26/01/2020 22:15:38	26012020	260120	221538	345.900	12.261785	-56.478920	346.140	-0.100	-1.280	-3.580	346.170	-2.700	-3.300																			1580076938.0	6.87	12.72
26/01/2020 22:15:39	26012020	260120	221539	347.240	12.261812	-56.478938	347.440	0.390	-1.420	-3.320	347.470	-2.800	-2.900																			1580076939.0	6.74	12.48
26/01/2020 22:15:40	26012020	260120	221540	348.290	12.261838	-56.478950	348.480	0.670	-0.860	-2.420	348.470	-2.200	-2.000																			1580076940.0	6.10	11.30
26/01/2020 22:15:41	26012020	260120	221541	349.120	12.261862	-56.478958	349.300	0.730	-0.010	-1.110	349.270	-1.300	-0.700																			1580076941.0	5.41	10.02
26/01/2020 22:15:42	26012020	260120	221542	349.830	12.261885	-56.478965	350.040	0.630	0.680	0.200	349.980	-0.700	0.600																			1580076942.0	5.08	9.41
26/01/2020 22:15:43	26012020	260120	221543	350.560	12.261908	-56.478970	350.810	0.400	0.920	1.120	350.720	-0.500	1.500																			1580076943.0	5.10	9.45
26/01/2020 22:15:44	26012020	260120	221544	351.390	12.261932	-56.478977	351.690	0.070	0.730	1.450	351.590	-0.700	1.700																			1580076944.0	5.27	9.76
26/01/2020 22:15:45	26012020	260120	221545	352.410	12.261955	-56.478985	352.730	-0.320	0.280	1.150	352.640	-1.200	1.400																			1580076945.0	5.47	10.13
26/01/2020 22:15:46	26012020	260120	221546	353.590	12.261978	-56.478997	353.890	-0.680	-0.240	0.270	353.840	-1.700	0.400																			1580076946.0	5.65	10.46
26/01/2020 22:15:47	26012020	260120	221547	354.750	12.262002	-56.479012	354.970	-0.880	-0.560	-0.940	354.960	-2.000	-0.800																			1580076947.0	5.91	10.95
26/01/2020 22:15:48	26012020	260120	221548	355.620	12.262025	-56.479030	355.730	-0.830	-0.580	-2.040	355.620	-2.000	-1.500																			1580076948.0	6.06	11.22
26/01/2020 22:15:49	26012020	260120	221549	356.220	12.262045	-56.479047	356.250	-0.470	-0.420	-2.690	356.320	-1.800	-2.400																			1580076949.0	5.94	11.00
26/01/2020 22:15:50	26012020	260120	221550	356.760	12.262067	-56.479063	356.810	0.140	-0.360	-2.710	356.880	-1.800	-2.400																			1580076950.0	5.60	10.37
26/01/2020 22:15:51	26012020	260120	221551	357.470	12.262088	-56.479075	357.570	0.820	-0.520	-2.230	357.640	-1.900	-1.900																			1580076951.0	5.31	9.83
26/01/2020 22:15:52	26012020	260120	221552	358.430	12.262112	-56.479080	358.580	1.260	-0.680	-1.470	358.640	-2.100	-1.100																			1580076952.0	5.26	9.74
26/01/2020 22:15:53	26012020	260120	221553	359.490	12.262137	-56.479082	359.670	1.200	-0.490	-0.580	359.690	-1.800	-0.200																			1580076953.0	5.24	9.70
26/01/2020 22:15:54	26012020	260120	221554	0.410	12.262160	-56.479080	0.620	0.570	0.150	0.220	0.580	-1.200	0.600																			1580076954.0	4.87	9.02
26/01/2020 22:15:55	26012020	260120	221555	1.210	12.262180	-56.479082	1.410	-0.340	0.850	0.620	1.360	-0.500	0.900																			1580076955.0	4.28	7.93
26/01/2020 22:15:56	26012020	260120	221556	1.930	12.262198	-56.479087	2.120	-1.030	1.100	0.510	2.080	-0.300	0.800																			1580076956.0	4.13	7.65
26/01/2020 22:15:57	26012020	260120	221557	2.580	12.262218	-56.479095	2.720	-1.140	0.720	0.130	2.690	-0.800	0.400																			1580076957.0	4.68	8.67
26/01/2020 22:15:58	26012020	260120	221558	3.080	12.262240	-56.479105	3.200	-0.690	-0.070	-0.260	3.180	-1.600	-0.000																			1580076958.0	5.28	9.78
26/01/2020 22:15:59	26012020	260120	221559	3.590	12.262263	-56.479115	3.740	-0.000	-0.870	-0.580	3.710	-2.300	-0.300																			1580076959.0	5.52	10.22
26/01/2020 22:16:00	26012020	260120	221600	4.260	12.262288	-56.479123	4.430	0.490	-1.290	-0.870	4.260	-2.600	-0.500	1014.90	26.00	26.10	20.80	20.80	-1.00	73.00	72.00	377.00	25.30	34.00	5.10	53.00	3.10	16	3683.00	27.60	27.60	1580076960.0	5.41	10.02
26/01/2020 22:16:01	26012020	260120	221601	5.060	12.262310	-56.479130	5.250	0.550	-1.040	-1.190	5.240	-2.300	-1.000																			1580076961.0	5.00	9.26
26/01/2020 22:16:02	26012020	260120	221602	5.940	12.262330	-56.479135	6.130	0.260	-0.260	-1.480	6.110	-1.500	-1.200																			1580076962.0	4.40	8.15
26/01/2020 22:16:03	26012020	260120	221603	6.800	12.262347	-56.479142	6.980	-0.090	0.500	-1.600	6.950	-0.800	-1.300																			1580076963.0	3.95	7.32
26/01/2020 22:16:04	26012020	260120	221604	7.580	12.262365	-56.479147	7.770	-0.210	0.670	-1.430	7.730	-0.700	-1.100																			1580076964.0	3.94	7.30
26/01/2020 22:16:05	26012020	260120	221605	8.320	12.262385	-56.479150	8.520	0.000	0.170	-1.060	8.470	-1.300	-0.700																			1580076965.0	4.36	8.07
26/01/2020 22:16:06	26012020	260120	221606	9.020	12.262407	-56.479152	9.220	0.370	-0.530	-0.540	9.160	-2.000	-0.200																			1580076966.0	4.88	9.04
26/01/2020 22:16:07	26012020	260120	221607	9.650	12.262430	-56.479152	9.870	0.600	-0.820	0.080	9.770	-2.200	0.400																			1580076967.0	4.99	9.24
26/01/2020 22:16:08	26012020	260120	221608	10.270	12.262452	-56.479152	10.510	0.500	-0.460	0.560	10.400	-1.800	0.900																			1580076968.0	4.50	8.33
26/01/2020 22:16:09	26012020	260120	221609	10.960	12.262470	-56.479150	11.230	0.070	0.260	0.680	11.120	-1.000	0.900																			1580076969.0	3.81	7.06
26/01/2020 22:16:10	26012020	260120	221610	11.720	12.262485	-56.479152	12.000	-0.530	0.830	0.410	11.870	-0.500	0.600																			1580076970.0	3.47	6.43
26/01/2020 22:16:11	26012020	260120	221611	12.460	12.262502	-56.479157	12.730	-1.010	0.860	-0.130	12.610	-0.600	0.100																			1580076971.0	3.68	6.82
26/01/2020 22:16:12	26012020	260120	221612	13.160	12.262520	-56.479163	13.400	-1.080	0.320	-0.790	13.160	-0.900	-0.400																			1580076972.0	4.23	7.83
26/01/2020 22:16:13	26012020	260120	221613	13.740	12.262542	-56.479170	13.950	-0.660	-0.480	-1.280	13.850	-2.000	-1.000																			1580076973.0	4.72	8.74
26/01/2020 22:16:14	26012020	260120	221614	14.240	12.262563	-56.479175	14.430	0.120	-1.150	-1.460	14.240	-2.400	-1.200																			1580076974.0	4.84	8.96
26/01/2020 22:16:15	26012020	260120	221615	14.780	12.262585	-56.479178	14.990	0.900	-1.390	-1.440	14.900	-2.800	-1.200																			1580076975.0	4.64	8.59
26/01/2020 22:16:16	26012020	260120	221616	15.500	12.262605	-56.479180	15.730	1.260	-1.070	-1.300	15.670	-2.400	-1.000																			1580076976.0	4.26	7.89
26/01/2020 22:16:17	26012020	260120	221617	16.400	12.262622	-56.479180	16.630	0.980	-0.270	-1.090	16.600	-1.500	-0.800																			1580076977.0	3.77	6.98
26/01/2020 22:16:18	26012020	260120	221618	17.410	12.262637	-56.479178	17.680	0.210	0.610	-0.820	17.620	-0.700	-0.500																			1580076978.0	3.29	6.09
26/01/2020 22:16:19	26012020	260120	221619	18.350	12.262652	-56.479178	18.590	-0.570	1.130	-0.490	18.520	-0.200	-0.200																			1580076979.0	3.08	5.70
26/01/2020 22:16:20	26012020	260120	221620	19.040	12.262667	-56.479177	19.230	-0.870	0.970	-0.050	19.140	-0.500	0.300																			1580076980.0	3.32	6.15
26/01/2020 22:16:21	26012020	260120	221621	19.440	12.262685	-56.479175	19.620	-0.590	0.270	0.510	19.500	-1.200	0.900																			1580076981.0	3.79	7.02
26/01/2020 22:16:22	26012020	260120	221622	19.710	12.262703	-56.479172	19.910	-0.030	-0.520	1.000	19.770	-2.000	1.300																			1580076982.0	4.16	7.70
26/01/2020 22:16:23	26012020	260120	221623	20.090	12.262722	-56.479167	20.340	0.320	-0.860	1.050	20.200	-2.200	1.300																			1580076983.0	4.13	7.65
26/01/2020 22:16:24	26012020	260120	221624	20.700	12.262740	-56.479167	20.960	0.200	-0.580	0.580	20.700	-2.100	1.000																			1580076984.0	3.72	6.89
26/01/2020 22:16:25	26012020	260120	221625	21.410	12.262755	-56.479170	21.660	-0.190	-0.030	-0.220	21.570	-1.300	-0.100																			1580076985.0	3.44	6.37
26/01/2020 22:16:26	26012020	260120	221626	22.190	12.262770	-56.479177	22.440	-0.410	0.160	-1.110	22.360	-1.200	-0.900																			1580076986.0	3.65	6.76
26/01/2020 22:16:27	26012020	260120	221627	23.020	12.262788	-56.479183	23.250	-0.210	-0.160	-1.770	23.180	-1.600	-1.500																			1580076987.0	4.07	7.54
26/01/2020 22:16:28	26012020	260120	221628	23.820	12.262808	-56.479185	24.030	0.190	-0.540	-2.000	23.960	-1.900	-1.700																			1580076988.0	4.27	7.91
26/01/2020 22:16:29	26012020	260120	221629	24.510	12.262827	-56.479183	24.720	0.400	-0.460	-1.690	24.630	-1.800	-1.300																			1580076989.0	3.97	7.35
26/01/2020 22:16:30	26012020	260120	221630	25.050	12.262842	-56.479180	25.250	0.270	-0.020	-1.040	25.150	-1.300	-0.700																			1580076990.0	3.27	6.06
26/01/2020 22:16:31	26012020	260120	221631	25.560	12.262853	-56.479175	25.790	0.030	0.240	-0.370	25.670	-1.100	-0.000																			1580076991.0	2.81	5.20
26/01/2020 22:16:32	26012020	260120	221632	26.140	12.262867	-56.479172	26.390	-0.010	0.020	0.160	26.260	-1.400	0.500																			1580076992.0	3.00	5.56
26/01/2020 22:16:33	26012020	260120	221633	26.790	12.262883	-56.479167	27.060	0.200	-0.430	0.540	26.920	-1.800	0.800																			1580076993.0	3.54	6.56
26/01/2020 22:16:34	26012020	260120	221634	27.450	12.262900	-56.479162	27.740	0.360	-0.560	0.780	27.580	-1.900	1.100																			1580076994.0	3.78	7.00
26/01/2020 22:16:35	26012020	260120	221635	28.080	12.262915	-56.479158	28.350	0.210	-0.140	0.860	28.190	-1.400	1.100																			1580076995.0	3.44	6.37
26/01/2020 22:16:36	26012020	260120	221636	28.600	12.262928	-56.479155	28.850	-0.210	0.590	0.800	28.700	-0.700	1.100																			1580076996.0	2.83	5.24
26/01/2020 22:16:37	26012020	260120	221637	29.010	12.262940	-56.479155	29.230	-0.630	1.040	0.560	29.090	-0.300	0.800																			1580076997.0	2.50	4.63
26/01/2020 22:16:38	26012020	260120	221638	29.430	12.262953	-56.479157	29.660	-0.710	0.690	-0.000	29.550	-0.800	0.200																			1580076998.0	2.79	5.17
26/01/2020 22:16:39	26012020	260120	221639	30.070	12.262970	-56.479158	30.290	-0.360	-0.390	-0.800	30.200	-1.900	-0.600																			1580076999.0	3.62	6.70
26/01/2020 22:16:40	26012020	260120	221640	30.790	12.262990	-56.479158	30.980	0.140	-1.360	-1.510	30.930	-2.800	-1.300																			1580077000.0	4.35	8.06
26/01/2020 22:16:41	26012020	260120	221641	31.470	12.263010	-56.479157	31.660	0.430	-1.470	-1.900	31.600	-2.800	-1.600																			1580077001.0	4.19	7.76
26/01/2020 22:16:42	26012020	260120	221642	32.080	12.263025	-56.479157	32.270	0.400	-0.820	-1.870	32.200	-2.100	-1.600																			1580077002.0	3.33	6.17
26/01/2020 22:16:43	26012020	260120	221643	32.680	12.263037	-56.479155	32.890	0.220	0.010	-1.460	32.810	-1.300	-1.100																			1580077003.0	2.59	4.80
26/01/2020 22:16:44	26012020	260120	221644	33.310	12.263047	-56.479153	33.540	0.110	0.540	-0.710	33.440	-0.800	-0.300																			1580077004.0	2.35	4.35
26/01/2020 22:16:45	26012020	260120	221645	33.910	12.263058	-56.479147	34.160	0.080	0.600	0.160	34.030	-0.800	0.500																			1580077005.0	2.59	4.80
26/01/2020 22:16:46	26012020	260120	221646	34.490	12.263068	-56.479138	34.730	0.030	0.340	0.870	34.610	-1.000	1.200																			1580077006.0	2.94	5.44
26/01/2020 22:16:47	26012020	260120	221647	35.020	12.263080	-56.479130	35.240	-0.080	0.050	1.340	35.110	-1.300	1.600																			1580077007.0	3.07	5.69
26/01/2020 22:16:48	26012020	260120	221648	35.450	12.263092	-56.479123	35.650	-0.170	-0.140	1.490	35.450	-1.500	1.800																			1580077008.0	2.93	5.43
26/01/2020 22:16:49	26012020	260120	221649	35.910	12.263105	-56.479118	36.080	-0.120	-0.320	1.190	36.010	-1.700	1.400																			1580077009.0	2.85	5.28
26/01/2020 22:16:50	26012020	260120	221650	36.420	12.263118	-56.479117	36.570	0.020	-0.380	0.550	36.420	-1.700	1.000																			1580077010.0	3.08	5.70
26/01/2020 22:16:51	26012020	260120	221651	36.880	12.263135	-56.479117	37.010	0.080	-0.190	-0.190	36.960	-1.500	0.000																			1580077011.0	3.30	6.11
26/01/2020 22:16:52	26012020	260120	221652	37.320	12.263148	-56.479118	37.430	-0.000	0.100	-0.860	37.400	-1.200	-0.700																			1580077012.0	3.21	5.94
26/01/2020 22:16:53	26012020	260120	221653	37.800	12.263163	-56.479120	37.930	-0.130	0.160	-1.420	37.910	-1.200	-1.200																			1580077013.0	3.05	5.65
26/01/2020 22:16:54	26012020	260120	221654	38.400	12.263178	-56.479120	38.560	-0.160	-0.190	-1.860	38.530	-1.600	-1.600																			1580077014.0	3.09	5.72
26/01/2020 22:16:55	26012020	260120	221655	39.080	12.263193	-56.479118	39.240	-0.040	-0.670	-2.070	39.220	-2.100	-1.800																			1580077015.0	3.32	6.15
26/01/2020 22:16:56	26012020	260120	221656	39.740	12.263207	-56.479113	39.890	0.110	-0.870	-1.840	39.860	-2.200	-1.500																			1580077016.0	3.33	6.17
26/01/2020 22:16:57	26012020	260120	221657	40.260	12.263220	-56.479105	40.410	0.170	-0.590	-1.100	40.350	-1.900	-0.700																			1580077017.0	2.95	5.46
26/01/2020 22:16:58	26012020	260120	221658	40.620	12.263228	-56.479098	40.760	0.100	0.020	-0.080	40.670	-1.200	0.300																			1580077018.0	2.49	4.61
26/01/2020 22:16:59	26012020	260120	221659	40.860	12.263233	-56.479090	41.010	-0.060	0.640	0.890	40.910	-0.700	1.200																			1580077019.0	2.18	4.04
26/01/2020 22:17:00	26012020	260120	221700	41.120	12.263240	-56.479082	41.300	-0.210	0.850	1.470	41.120	-0.500	1.600	1015.00	26.00	26.10	20.80	20.90	-1.00	73.00	72.00	377.00	25.30	14.00	5.20	46.00	3.50	15	3751.00	27.60	27.60	1580077020.0	2.06	3.82
26/01/2020 22:17:01	26012020	260120	221701	41.470	12.263248	-56.479075	41.650	-0.270	0.500	1.530	41.550	-0.900	1.800																			1580077021.0	2.29	4.24
26/01/2020 22:17:02	26012020	260120	221702	41.820	12.263260	-56.479070	41.990	-0.180	-0.140	1.200	41.820	-1.300	1.600																			1580077022.0	2.87	5.32
26/01/2020 22:17:03	26012020	260120	221703	42.080	12.263275	-56.479067	42.240	0.060	-0.670	0.670	42.130	-2.100	0.900																			1580077023.0	3.31	6.13
26/01/2020 22:17:04	26012020	260120	221704	42.350	12.263292	-56.479063	42.530	0.300	-0.860	0.010	42.350	-2.200	0.500																			1580077024.0	3.33	6.17
26/01/2020 22:17:05	26012020	260120	221705	42.720	12.263305	-56.479062	42.880	0.330	-0.670	-0.730	42.790	-2.000	-0.500																			1580077025.0	3.16	5.85
26/01/2020 22:17:06	26012020	260120	221706	43.150	12.263318	-56.479060	43.310	0.120	-0.210	-1.320	43.240	-1.500	-1.100																			1580077026.0	2.95	5.46
26/01/2020 22:17:07	26012020	260120	221707	43.610	12.263332	-56.479060	43.770	-0.170	0.220	-1.570	43.690	-1.100	-1.300																			1580077027.0	2.62	4.85
26/01/2020 22:17:08	26012020	260120	221708	44.030	12.263342	-56.479057	44.190	-0.320	0.290	-1.470	44.100	-1.100	-1.200																			1580077028.0	2.36	4.37
26/01/2020 22:17:09	26012020	260120	221709	44.390	12.263352	-56.479050	44.580	-0.210	-0.080	-1.110	44.450	-1.500	-0.800																			1580077029.0	2.54	4.70
26/01/2020 22:17:10	26012020	260120	221710	44.670	12.263362	-56.479042	44.840	0.050	-0.510	-0.560	44.710	-1.900	-0.200																			1580077030.0	2.95	5.46
26/01/2020 22:17:11	26012020	260120	221711	44.820	12.263372	-56.479032	45.000	0.210	-0.500	0.090	44.850	-1.800	0.400																			1580077031.0	3.02	5.59
26/01/2020 22:17:12	26012020	260120	221712	44.870	12.263380	-56.479022	45.040	0.140	0.050	0.730	44.870	-1.200	1.100																			1580077032.0	2.50	4.63
26/01/2020 22:17:13	26012020	260120	221713	44.890	12.263385	-56.479017	45.080	-0.080	0.610	1.040	44.910	-0.700	1.300																			1580077033.0	1.86	3.44
26/01/2020 22:17:14	26012020	260120	221714	44.990	12.263393	-56.479012	45.170	-0.220	0.610	0.850	44.990	-0.700	1.200																			1580077034.0	1.86	3.44
26/01/2020 22:17:15	26012020	260120	221715	45.150	12.263405	-56.479008	45.340	-0.190	-0.010	0.330	45.200	-1.400	0.500																			1580077035.0	2.59	4.80
26/01/2020 22:17:16	26012020	260120	221716	45.400	12.263420	-56.479005	45.590	-0.110	-0.710	-0.280	45.460	-2.100	-0.100																			1580077036.0	3.30	6.11
26/01/2020 22:17:17	26012020	260120	221717	45.710	12.263435	-56.479000	45.900	-0.040	-1.000	-0.820	45.770	-2.300	-0.600																			1580077037.0	3.42	6.33
26/01/2020 22:17:18	26012020	260120	221718	45.990	12.263448	-56.478997	46.150	0.040	-0.720	-1.070	46.030	-2.000	-0.800																			1580077038.0	2.96	5.48
26/01/2020 22:17:19	26012020	260120	221719	46.070	12.263458	-56.478992	46.190	0.150	-0.110	-0.850	46.060	-1.400	-0.500																			1580077039.0	2.26	4.19
26/01/2020 22:17:20	26012020	260120	221720	45.980	12.263463	-56.478985	46.110	0.220	0.320	-0.410	45.960	-1.000	-0.100																			1580077040.0	1.84	3.41
26/01/2020 22:17:21	26012020	260120	221721	45.900	12.263470	-56.478978	46.030	0.190	0.340	-0.070	45.880	-1.000	0.200																			1580077041.0	2.04	3.78
26/01/2020 22:17:22	26012020	260120	221722	45.850	12.263478	-56.478972	45.990	0.060	0.080	0.090	45.850	-1.300	0.400																			1580077042.0	2.45	4.54
26/01/2020 22:17:23	26012020	260120	221723	45.900	12.263490	-56.478965	46.100	-0.090	-0.240	0.060	45.930	-1.600	0.300																			1580077043.0	2.76	5.11
26/01/2020 22:17:24	26012020	260120	221724	46.160	12.263502	-56.478958	46.390	-0.180	-0.440	-0.130	46.230	-1.800	0.100																			1580077044.0	2.89	5.35
26/01/2020 22:17:25	26012020	260120	221725	46.520	12.263513	-56.478953	46.750	-0.190	-0.330	-0.190	46.580	-1.600	0.100																			1580077045.0	2.74	5.07
26/01/2020 22:17:26	26012020	260120	221726	46.690	12.263523	-56.478947	46.850	-0.160	0.110	0.100	46.690	-1.300	0.300																			1580077046.0	2.25	4.17
26/01/2020 22:17:27	26012020	260120	221727	46.480	12.263528	-56.478940	46.590	-0.120	0.490	0.650	46.400	-0.800	1.000																			1580077047.0	1.82	3.37
26/01/2020 22:17:28	26012020	260120	221728	46.080	12.263533	-56.478933	46.200	-0.020	0.330	1.050	46.010	-1.100	1.300																			1580077048.0	1.85	3.43
26/01/2020 22:17:29	26012020	260120	221729	45.850	12.263542	-56.478927	46.020	0.140	-0.430	0.910	45.850	-1.900	1.100																			1580077049.0	2.37	4.39
26/01/2020 22:17:30	26012020	260120	221730	45.980	12.263555	-56.478920	46.200	0.260	-1.140	0.260	46.040	-2.500	0.400																			1580077050.0	3.17	5.87
26/01/2020 22:17:31	26012020	260120	221731	46.350	12.263570	-56.478915	46.580	0.230	-1.120	-0.530	46.430	-2.400	-0.300																			1580077051.0	3.51	6.50
26/01/2020 22:17:32	26012020	260120	221732	46.740	12.263583	-56.478913	46.940	0.070	-0.410	-1.040	46.800	-1.600	-0.800																			1580077052.0	3.01	5.57
26/01/2020 22:17:33	26012020	260120	221733	46.980	12.263593	-56.478912	47.160	-0.100	0.440	-0.990	47.010	-0.800	-0.700																			1580077053.0	2.17	4.02
26/01/2020 22:17:34	26012020	260120	221734	47.010	12.263600	-56.478907	47.160	-0.210	0.910	-0.400	46.990	-0.400	-0.000																			1580077054.0	1.64	3.04
26/01/2020 22:17:35	26012020	260120	221735	46.920	12.263603	-56.478898	47.090	-0.230	0.730	0.300	46.910	-0.700	0.600																			1580077055.0	1.96	3.63
26/01/2020 22:17:36	26012020	260120	221736	46.880	12.263610	-56.478888	47.050	-0.150	0.050	0.750	46.880	-1.400	1.100																			1580077056.0	2.48	4.59
26/01/2020 22:17:37	26012020	260120	221737	46.910	12.263618	-56.478878	47.100	-0.000	-0.590	0.910	46.920	-2.000	1.200																			1580077057.0	2.79	5.17
26/01/2020 22:17:38	26012020	260120	221738	46.960	12.263628	-56.478870	47.150	0.130	-0.770	0.880	46.970	-2.100	1.200																			1580077058.0	2.73	5.06
26/01/2020 22:17:39	26012020	260120	221739	46.990	12.263638	-56.478865	47.190	0.180	-0.590	0.700	47.010	-1.900	0.900																			1580077059.0	2.39	4.43
26/01/2020 22:17:40	26012020	260120	221740	47.100	12.263648	-56.478862	47.300	0.170	-0.430	0.270	47.100	-1.800	0.700																			1580077060.0	2.21	4.09
26/01/2020 22:17:41	26012020	260120	221741	47.320	12.263658	-56.478858	47.510	0.120	-0.340	-0.250	47.370	-1.700	-0.000																			1580077061.0	2.45	4.54
26/01/2020 22:17:42	26012020	260120	221742	47.530	12.263670	-56.478855	47.690	0.020	-0.020	-0.540	47.550	-1.300	-0.300																			1580077062.0	2.64	4.89
26/01/2020 22:17:43	26012020	260120	221743	47.610	12.263680	-56.478850	47.740	-0.100	0.480	-0.480	47.610	-0.800	-0.200																			1580077063.0	2.24	4.15
26/01/2020 22:17:44	26012020	260120	221744	47.590	12.263687	-56.478845	47.710	-0.210	0.670	-0.280	47.580	-0.700	0.000																			1580077064.0	1.78	3.30
26/01/2020 22:17:45	26012020	260120	221745	47.560	12.263693	-56.478838	47.690	-0.280	0.270	-0.130	47.560	-1.200	0.200																			1580077065.0	1.96	3.63
26/01/2020 22:17:46	26012020	260120	221746	47.660	12.263702	-56.478832	47.820	-0.260	-0.420	-0.150	47.700	-1.900	0.100																			1580077066.0	2.48	4.59
26/01/2020 22:17:47	26012020	260120	221747	47.940	12.263713	-56.478825	48.130	-0.110	-0.900	-0.270	48.010	-2.300	0.000																			1580077067.0	2.82	5.22
26/01/2020 22:17:48	26012020	260120	221748	48.270	12.263723	-56.478818	48.450	0.180	-0.870	-0.240	48.330	-2.200	0.100																			1580077068.0	2.65	4.91
26/01/2020 22:17:49	26012020	260120	221749	48.520	12.263732	-56.478813	48.660	0.470	-0.490	0.080	48.550	-1.800	0.400																			1580077069.0	2.15	3.98
26/01/2020 22:17:50	26012020	260120	221750	48.570	12.263737	-56.478805	48.690	0.530	0.020	0.590	48.550	-1.300	0.900																			1580077070.0	1.87	3.46
26/01/2020 22:17:51	26012020	260120	221751	48.440	12.263742	-56.478798	48.540	0.260	0.420	1.040	48.400	-0.900	1.400																			1580077071.0	1.85	3.43
26/01/2020 22:17:52	26012020	260120	221752	48.270	12.263747	-56.478792	48.400	-0.180	0.560	1.140	48.270	-0.800	1.400																			1580077072.0	1.84	3.41
26/01/2020 22:17:53	26012020	260120	221753	48.270	12.263755	-56.478787	48.440	-0.490	0.330	0.680	48.300	-1.100	0.900																			1580077073.0	2.10	3.89
26/01/2020 22:17:54	26012020	260120	221754	48.500	12.263768	-56.478783	48.670	-0.480	-0.130	-0.100	48.500	-1.400	0.400																			1580077074.0	2.73	5.06
26/01/2020 22:17:55	26012020	260120	221755	48.890	12.263782	-56.478780	49.060	-0.190	-0.550	-0.790	48.980	-1.900	-0.600																			1580077075.0	3.04	5.63
26/01/2020 22:17:56	26012020	260120	221756	49.370	12.263795	-56.478777	49.510	0.130	-0.670	-1.120	49.450	-2.000	-0.800																			1580077076.0	2.77	5.13
26/01/2020 22:17:57	26012020	260120	221757	49.680	12.263803	-56.478772	49.770	0.240	-0.410	-0.940	49.700	-1.700	-0.600																			1580077077.0	2.20	4.07
26/01/2020 22:17:58	26012020	260120	221758	49.690	12.263808	-56.478765	49.760	0.070	0.060	-0.340	49.660	-1.200	0.000																			1580077078.0	1.71	3.17
26/01/2020 22:17:59	26012020	260120	221759	49.520	12.263810	-56.478758	49.620	-0.200	0.300	0.350	49.480	-1.000	0.700																			1580077079.0	1.61	2.98
26/01/2020 22:18:00	26012020	260120	221800	49.390	12.263813	-56.478750	49.530	-0.280	0.050	0.800	49.380	-1.400	1.100	1014.90	26.00	26.10	20.80	20.80	-1.00	72.00	72.00	378.00	25.30	0.00	4.50	47.00	3.20	15	3906.00	27.60	27.60	1580077080.0	1.76	3.26
26/01/2020 22:18:01	26012020	260120	221801	49.470	12.263822	-56.478743	49.660	0.000	-0.550	0.840	49.520	-2.000	1.100																			1580077081.0	2.27	4.20
26/01/2020 22:18:02	26012020	260120	221802	49.730	12.263833	-56.478737	49.900	0.440	-0.900	0.580	49.780	-2.200	0.800																			1580077082.0	2.80	5.19
26/01/2020 22:18:03	26012020	260120	221803	49.960	12.263843	-56.478730	50.100	0.610	-0.490	0.310	49.990	-1.700	0.600																			1580077083.0	2.67	4.94
26/01/2020 22:18:04	26012020	260120	221804	50.090	12.263852	-56.478727	50.210	0.320	0.410	0.140	50.110	-0.800	0.400																			1580077084.0	1.88	3.48
26/01/2020 22:18:05	26012020	260120	221805	50.230	12.263858	-56.478725	50.370	-0.220	1.010	-0.030	50.270	-0.300	0.200																			1580077085.0	1.30	2.41
26/01/2020 22:18:06	26012020	260120	221806	50.470	12.263863	-56.478723	50.610	-0.580	0.810	-0.250	50.520	-0.600	0.000																			1580077086.0	1.43	2.65
26/01/2020 22:18:07	26012020	260120	221807	50.750	12.263872	-56.478718	50.880	-0.560	-0.020	-0.440	50.800	-1.500	-0.200																			1580077087.0	2.05	3.80
26/01/2020 22:18:08	26012020	260120	221808	50.980	12.263882	-56.478712	51.090	-0.290	-0.870	-0.420	51.000	-2.300	-0.100																			1580077088.0	2.53	4.69
26/01/2020 22:18:09	26012020	260120	221809	51.030	12.263890	-56.478705	51.100	-0.020	-1.170	-0.140	51.020	-2.500	0.200																			1580077089.0	2.50	4.63
26/01/2020 22:18:10	26012020	260120	221810	50.880	12.263897	-56.478697	50.920	0.110	-0.730	0.350	50.830	-2.000	0.700																			1580077090.0	1.96	3.63
26/01/2020 22:18:11	26012020	260120	221811	50.700	12.263898	-56.478692	50.770	0.150	-0.070	0.780	50.690	-1.400	1.100																			1580077091.0	1.35	2.50
26/01/2020 22:18:12	26012020	260120	221812	50.800	12.263902	-56.478687	50.950	0.250	0.170	0.700	50.870	-1.200	0.900																			1580077092.0	1.17	2.17
26/01/2020 22:18:13	26012020	260120	221813	51.200	12.263910	-56.478682	51.380	0.400	0.000	0.130	51.300	-1.400	0.300																			1580077093.0	1.76	3.26
26/01/2020 22:18:14	26012020	260120	221814	51.620	12.263920	-56.478678	51.760	0.460	-0.130	-0.510	51.690	-1.500	-0.300																			1580077094.0	2.48	4.59
26/01/2020 22:18:15	26012020	260120	221815	51.880	12.263932	-56.478677	51.980	0.320	-0.010	-0.880	51.920	-1.300	-0.600																			1580077095.0	2.61	4.83
26/01/2020 22:18:16	26012020	260120	221816	52.020	12.263942	-56.478675	52.110	-0.010	0.240	-0.860	52.020	-1.200	-0.600																			1580077096.0	2.15	3.98
26/01/2020 22:18:17	26012020	260120	221817	52.100	12.263948	-56.478672	52.200	-0.410	0.380	-0.430	52.120	-1.000	-0.100																			1580077097.0	1.54	2.85
26/01/2020 22:18:18	26012020	260120	221818	52.210	12.263952	-56.478665	52.350	-0.710	0.240	0.220	52.210	-1.000	0.400																			1580077098.0	1.38	2.56
26/01/2020 22:18:19	26012020	260120	221819	52.450	12.263953	-56.478658	52.640	-0.760	-0.150	0.750	52.510	-1.600	1.100																			1580077099.0	1.69	3.13
26/01/2020 22:18:20	26012020	260120	221820	52.770	12.263955	-56.478650	52.940	-0.480	-0.550	0.990	52.820	-1.900	1.300																			1580077100.0	1.86	3.44
26/01/2020 22:18:21	26012020	260120	221821	52.970	12.263960	-56.478642	53.110	0.040	-0.760	1.010	52.990	-2.100	1.300																			1580077101.0	1.79	3.32
26/01/2020 22:18:22	26012020	260120	221822	53.010	12.263965	-56.478637	53.130	0.590	-0.720	0.870	53.010	-2.000	1.100																			1580077102.0	1.66	3.07
26/01/2020 22:18:23	26012020	260120	221823	53.020	12.263973	-56.478633	53.140	0.940	-0.520	0.540	53.030	-1.800	0.800																			1580077103.0	1.78	3.30
26/01/2020 22:18:24	26012020	260120	221824	53.100	12.263982	-56.478632	53.230	0.940	-0.200	0.130	53.120	-1.500	0.400																			1580077104.0	2.02	3.74
26/01/2020 22:18:25	26012020	260120	221825	53.330	12.263992	-56.478630	53.480	0.560	0.170	-0.320	53.400	-1.100	-0.100																			1580077105.0	2.12	3.93
26/01/2020 22:18:26	26012020	260120	221826	53.740	12.264000	-56.478628	53.890	-0.100	0.490	-0.750	53.830	-0.800	-0.500																			1580077106.0	1.99	3.69
26/01/2020 22:18:27	26012020	260120	221827	54.180	12.264008	-56.478628	54.320	-0.750	0.730	-0.890	54.270	-0.600	-0.600																			1580077107.0	1.68	3.11
26/01/2020 22:18:28	26012020	260120	221828	54.540	12.264013	-56.478625	54.670	-1.090	0.720	-0.570	54.540	-0.600	-0.400																			1580077108.0	1.17	2.17
26/01/2020 22:18:29	26012020	260120	221829	54.770	12.264015	-56.478620	54.870	-0.940	0.270	0.070	54.800	-1.200	0.500																			1580077109.0	1.12	2.07
26/01/2020 22:18:30	26012020	260120	221830	54.950	12.264015	-56.478612	55.070	-0.350	-0.610	0.660	54.950	-1.700	0.800																			1580077110.0	1.69	3.13
26/01/2020 22:18:31	26012020	260120	221831	55.200	12.264017	-56.478603	55.320	0.350	-1.370	0.950	55.250	-2.800	1.300																			1580077111.0	2.06	3.82
26/01/2020 22:18:32	26012020	260120	221832	55.440	12.264022	-56.478595	55.550	0.730	-1.370	0.940	55.480	-2.600	1.200																			1580077112.0	1.93	3.57
26/01/2020 22:18:33	26012020	260120	221833	55.610	12.264027	-56.478592	55.710	0.640	-0.560	0.650	55.640	-1.800	0.900																			1580077113.0	1.40	2.59
26/01/2020 22:18:34	26012020	260120	221834	55.730	12.264033	-56.478593	55.820	0.320	0.390	0.160	55.750	-0.900	0.400																			1580077114.0	1.46	2.70
26/01/2020 22:18:35	26012020	260120	221835	55.890	12.264042	-56.478595	55.990	0.100	0.800	-0.400	55.930	-0.500	-0.200																			1580077115.0	1.86	3.44
26/01/2020 22:18:36	26012020	260120	221836	56.140	12.264052	-56.478597	56.260	0.100	0.550	-0.820	56.200	-0.900	-0.500																			1580077116.0	1.97	3.65
26/01/2020 22:18:37	26012020	260120	221837	56.460	12.264060	-56.478593	56.600	0.100	0.010	-0.930	56.530	-1.400	-0.600																			1580077117.0	1.93	3.57
26/01/2020 22:18:38	26012020	260120	221838	56.830	12.264065	-56.478588	56.970	-0.110	-0.360	-0.750	56.900	-1.700	-0.400																			1580077118.0	1.73	3.20
26/01/2020 22:18:39	26012020	260120	221839	57.170	12.264068	-56.478583	57.310	-0.480	-0.340	-0.350	57.230	-1.700	0.000																			1580077119.0	1.33	2.46
26/01/2020 22:18:40	26012020	260120	221840	57.410	12.264068	-56.478578	57.520	-0.710	-0.060	0.160	57.410	-1.500	0.300																			1580077120.0	0.96	1.78
26/01/2020 22:18:41	26012020	260120	221841	57.510	12.264068	-56.478575	57.620	-0.570	0.140	0.630	57.520	-1.200	1.000																			1580077121.0	0.78	1.44
26/01/2020 22:18:42	26012020	260120	221842	57.550	12.264068	-56.478572	57.660	-0.090	-0.000	0.910	57.550	-1.300	1.200																			1580077122.0	0.74	1.37
26/01/2020 22:18:43	26012020	260120	221843	57.680	12.264072	-56.478567	57.810	0.490	-0.440	0.830	57.730	-1.900	1.100																			1580077123.0	1.05	1.94
26/01/2020 22:18:44	26012020	260120	221844	57.970	12.264078	-56.478565	58.100	0.860	-0.790	0.440	57.970	-2.100	0.800																			1580077124.0	1.64	3.04
26/01/2020 22:18:45	26012020	260120	221845	58.270	12.264088	-56.478562	58.400	0.810	-0.660	-0.010	58.320	-2.000	0.300																			1580077125.0	1.92	3.56
26/01/2020 22:18:46	26012020	260120	221846	58.550	12.264095	-56.478563	58.680	0.390	-0.110	-0.310	58.610	-1.400	-0.000																			1580077126.0	1.75	3.24
26/01/2020 22:18:47	26012020	260120	221847	58.840	12.264102	-56.478563	58.980	-0.100	0.410	-0.360	58.900	-0.900	-0.000																			1580077127.0	1.25	2.31
26/01/2020 22:18:48	26012020	260120	221848	59.130	12.264105	-56.478563	59.300	-0.440	0.540	-0.170	59.190	-0.800	0.200																			1580077128.0	0.65	1.20
26/01/2020 22:18:49	26012020	260120	221849	59.380	12.264105	-56.478560	59.510	-0.580	0.320	0.150	59.410	-1.100	0.500																			1580077129.0	0.79	1.46
26/01/2020 22:18:50	26012020	260120	221850	59.490	12.264107	-56.478555	59.620	-0.560	0.000	0.500	59.490	-1.400	0.800																			1580077130.0	1.10	2.04
26/01/2020 22:18:51	26012020	260120	221851	59.540	12.264108	-56.478550	59.680	-0.380	-0.250	0.670	59.560	-1.600	1.000																			1580077131.0	1.04	1.93
26/01/2020 22:18:52	26012020	260120	221852	59.690	12.264110	-56.478547	59.860	-0.080	-0.390	0.530	59.740	-1.800	0.800																			1580077132.0	0.89	1.65
26/01/2020 22:18:53	26012020	260120	221853	59.990	12.264115	-56.478545	60.170	0.240	-0.470	0.130	60.070	-1.800	0.400																			1580077133.0	1.07	1.98
26/01/2020 22:18:54	26012020	260120	221854	60.340	12.264122	-56.478545	60.490	0.480	-0.470	-0.250	60.340	-1.800	0.100																			1580077134.0	1.36	2.52
26/01/2020 22:18:55	26012020	260120	221855	60.520	12.264128	-56.478545	60.630	0.530	-0.310	-0.320	60.530	-1.600	-0.000																			1580077135.0	1.32	2.44
26/01/2020 22:18:56	26012020	260120	221856	60.550	12.264132	-56.478543	60.660	0.350	-0.030	-0.200	60.550	-1.400	0.100																			1580077136.0	0.95	1.76
26/01/2020 22:18:57	26012020	260120	221857	60.590	12.264135	-56.478542	60.720	0.050	0.230	-0.080	60.610	-1.100	0.200																			1580077137.0	0.72	1.33
26/01/2020 22:18:58	26012020	260120	221858	60.720	12.264138	-56.478540	60.880	-0.140	0.250	-0.010	60.760	-1.100	0.300																			1580077138.0	0.72	1.33
26/01/2020 22:18:59	26012020	260120	221859	60.990	12.264142	-56.478538	61.170	-0.120	-0.030	-0.000	61.060	-1.400	0.300																			1580077139.0	0.90	1.67
26/01/2020 22:19:00	26012020	260120	221900	61.310	12.264147	-56.478535	61.490	-0.010	-0.390	0.060	61.360	-1.800	0.400	1015.00	26.10	26.10	20.80	20.90	-2.00	73.00	73.00	378.00	25.30	360.00	4.60	55.00	3.70	15	3754.00	27.70	27.60	1580077140.0	1.14	2.11
26/01/2020 22:19:01	26012020	260120	221901	61.500	12.264150	-56.478532	61.670	-0.020	-0.480	0.350	61.510	-1.800	0.700																			1580077141.0	1.16	2.15
26/01/2020 22:19:02	26012020	260120	221902	61.510	12.264152	-56.478528	61.710	-0.200	-0.250	0.770	61.510	-1.600	1.100																			1580077142.0	0.85	1.57
26/01/2020 22:19:03	26012020	260120	221903	61.520	12.264152	-56.478525	61.740	-0.400	0.040	1.010	61.530	-1.300	1.300																			1580077143.0	0.63	1.17
26/01/2020 22:19:04	26012020	260120	221904	61.580	12.264152	-56.478523	61.820	-0.420	0.230	0.930	61.600	-1.100	1.200																			1580077144.0	0.47	0.87
26/01/2020 22:19:05	26012020	260120	221905	61.690	12.264155	-56.478522	61.950	-0.150	0.260	0.550	61.730	-1.100	0.800																			1580077145.0	0.63	1.17
26/01/2020 22:19:06	26012020	260120	221906	61.910	12.264160	-56.478520	62.190	0.310	0.050	-0.060	61.970	-1.400	0.200																			1580077146.0	1.09	2.02
26/01/2020 22:19:07	26012020	260120	221907	62.240	12.264167	-56.478520	62.530	0.650	-0.310	-0.730	62.300	-1.700	-0.500																			1580077147.0	1.54	2.85
26/01/2020 22:19:08	26012020	260120	221908	62.510	12.264175	-56.478518	62.750	0.590	-0.510	-1.150	62.510	-1.800	-0.800																			1580077148.0	1.76	3.26
26/01/2020 22:19:09	26012020	260120	221909	62.590	12.264182	-56.478518	62.800	0.180	-0.360	-1.170	62.580	-1.700	-0.800																			1580077149.0	1.49	2.76
26/01/2020 22:19:10	26012020	260120	221910	62.550	12.264185	-56.478518	62.760	-0.250	-0.100	-0.800	62.530	-1.400	-0.400																			1580077150.0	0.91	1.69
26/01/2020 22:19:11	26012020	260120	221911	62.510	12.264187	-56.478517	62.750	-0.380	-0.080	-0.150	62.510	-1.400	0.300																			1580077151.0	0.39	0.72
26/01/2020 22:19:12	26012020	260120	221912	62.560	12.264187	-56.478513	62.830	-0.200	-0.290	0.620	62.580	-1.700	1.000																			1580077152.0	0.81	1.50
26/01/2020 22:19:13	26012020	260120	221913	62.700	12.264185	-56.478507	63.000	0.040	-0.470	1.250	62.740	-1.800	1.600																			1580077153.0	1.30	2.41
26/01/2020 22:19:14	26012020	260120	221914	62.910	12.264185	-56.478502	63.220	0.120	-0.360	1.550	62.950	-1.700	1.900																			1580077154.0	1.26	2.33
26/01/2020 22:19:15	26012020	260120	221915	63.090	12.264185	-56.478498	63.410	0.000	0.090	1.510	63.120	-1.200	1.800																			1580077155.0	0.80	1.48
26/01/2020 22:19:16	26012020	260120	221916	63.170	12.264187	-56.478497	63.440	-0.190	0.680	1.150	63.160	-0.600	1.400																			1580077156.0	0.44	0.81
26/01/2020 22:19:17	26012020	260120	221917	63.120	12.264192	-56.478498	63.360	-0.320	0.960	0.540	63.100	-0.400	0.800																			1580077157.0	0.83	1.54
26/01/2020 22:19:18	26012020	260120	221918	63.050	12.264197	-56.478500	63.290	-0.250	0.520	-0.210	63.040	-0.900	0.000																			1580077158.0	1.37	2.54
26/01/2020 22:19:19	26012020	260120	221919	63.100	12.264205	-56.478502	63.370	0.050	-0.510	-0.970	63.130	-2.000	-0.800																			1580077159.0	1.93	3.57
26/01/2020 22:19:20	26012020	260120	221920	63.300	12.264217	-56.478498	63.570	0.410	-1.410	-1.520	63.300	-2.600	-1.100																			1580077160.0	2.27	4.20
26/01/2020 22:19:21	26012020	260120	221921	63.500	12.264225	-56.478495	63.760	0.550	-1.470	-1.580	63.530	-2.800	-1.200																			1580077161.0	1.86	3.44
26/01/2020 22:19:22	26012020	260120	221922	63.560	12.264227	-56.478493	63.790	0.320	-0.700	-1.070	63.550	-1.900	-0.700																			1580077162.0	0.80	1.48
26/01/2020 22:19:23	26012020	260120	221923	63.450	12.264225	-56.478492	63.690	-0.120	0.310	-0.210	63.420	-0.900	0.200																			1580077163.0	0.46	0.85
26/01/2020 22:19:24	26012020	260120	221924	63.250	12.264222	-56.478492	63.480	-0.410	0.910	0.700	63.200	-0.400	1.100																			1580077164.0	0.91	1.69
26/01/2020 22:19:25	26012020	260120	221925	63.050	12.264218	-56.478488	63.290	-0.350	0.790	1.350	63.010	-0.600	1.700																			1580077165.0	0.87	1.61
26/01/2020 22:19:26	26012020	260120	221926	62.940	12.264218	-56.478485	63.200	-0.020	0.160	1.600	62.940	-1.300	1.900																			1580077166.0	0.91	1.69
26/01/2020 22:19:27	26012020	260120	221927	62.970	12.264222	-56.478480	63.240	0.310	-0.470	1.440	62.990	-1.900	1.700																			1580077167.0	1.28	2.37
26/01/2020 22:19:28	26012020	260120	221928	63.090	12.264228	-56.478477	63.360	0.410	-0.740	0.990	63.120	-2.100	1.200																			1580077168.0	1.46	2.70
26/01/2020 22:19:29	26012020	260120	221929	63.200	12.264235	-56.478477	63.440	0.210	-0.540	0.530	63.200	-1.900	0.800																			1580077169.0	1.35	2.50
26/01/2020 22:19:30	26012020	260120	221930	63.130	12.264238	-56.478477	63.310	-0.180	-0.060	0.310	63.130	-1.500	0.700																			1580077170.0	0.95	1.76
26/01/2020 22:19:31	26012020	260120	221931	62.890	12.264242	-56.478478	63.060	-0.530	0.320	0.230	62.830	-1.000	0.500																			1580077171.0	0.57	1.06
26/01/2020 22:19:32	26012020	260120	221932	62.630	12.264243	-56.478478	62.820	-0.600	0.360	0.110	62.630	-1.000	0.500																			1580077172.0	0.46	0.85
26/01/2020 22:19:33	26012020	260120	221933	62.500	12.264247	-56.478477	62.700	-0.330	0.050	-0.150	62.490	-1.400	0.100																			1580077173.0	0.70	1.30
26/01/2020 22:19:34	26012020	260120	221934	62.510	12.264252	-56.478475	62.720	0.150	-0.380	-0.450	62.510	-1.600	-0.100																			1580077174.0	1.00	1.85
26/01/2020 22:19:35	26012020	260120	221935	62.580	12.264255	-56.478472	62.790	0.560	-0.710	-0.690	62.590	-2.100	-0.400																			1580077175.0	1.12	2.07
26/01/2020 22:19:36	26012020	260120	221936	62.620	12.264260	-56.478470	62.820	0.660	-0.710	-0.810	62.610	-2.000	-0.500																			1580077176.0	1.08	2.00
26/01/2020 22:19:37	26012020	260120	221937	62.490	12.264263	-56.478468	62.660	0.430	-0.310	-0.660	62.440	-1.600	-0.300																			1580077177.0	0.90	1.67
26/01/2020 22:19:38	26012020	260120	221938	62.220	12.264267	-56.478468	62.390	0.030	0.260	-0.180	62.160	-1.000	0.200																			1580077178.0	0.56	1.04
26/01/2020 22:19:39	26012020	260120	221939	61.960	12.264267	-56.478468	62.170	-0.270	0.540	0.420	61.920	-0.800	0.800																			1580077179.0	0.19	0.35
26/01/2020 22:19:40	26012020	260120	221940	61.810	12.264267	-56.478467	62.040	-0.360	0.300	0.880	61.790	-1.100	1.200																			1580077180.0	0.34	0.63
26/01/2020 22:19:41	26012020	260120	221941	61.710	12.264268	-56.478463	61.950	-0.290	-0.180	1.080	61.690	-1.600	1.400																			1580077181.0	0.81	1.50
26/01/2020 22:19:42	26012020	260120	221942	61.620	12.264270	-56.478458	61.860	-0.190	-0.460	1.070	61.600	-1.800	1.400																			1580077182.0	0.98	1.81
26/01/2020 22:19:43	26012020	260120	221943	61.570	12.264272	-56.478457	61.810	-0.090	-0.390	0.900	61.570	-1.700	1.200																			1580077183.0	0.74	1.37
26/01/2020 22:19:44	26012020	260120	221944	61.600	12.264275	-56.478455	61.840	0.030	-0.240	0.590	61.600	-1.600	0.900																			1580077184.0	0.55	1.02
26/01/2020 22:19:45	26012020	260120	221945	61.630	12.264278	-56.478455	61.850	0.140	-0.170	0.140	61.630	-1.500	0.400																			1580077185.0	0.71	1.31
26/01/2020 22:19:46	26012020	260120	221946	61.570	12.264283	-56.478455	61.750	0.150	-0.110	-0.410	61.550	-1.500	-0.200																			1580077186.0	1.01	1.87
26/01/2020 22:19:47	26012020	260120	221947	61.450	12.264288	-56.478455	61.620	0.010	0.010	-0.970	61.440	-1.300	-0.700																			1580077187.0	1.21	2.24
26/01/2020 22:19:48	26012020	260120	221948	61.370	12.264293	-56.478457	61.510	-0.130	0.130	-1.310	61.360	-1.200	-1.000																			1580077188.0	1.21	2.24
26/01/2020 22:19:49	26012020	260120	221949	61.290	12.264298	-56.478457	61.420	-0.160	0.160	-1.280	61.280	-1.200	-0.900																			1580077189.0	0.91	1.69
26/01/2020 22:19:50	26012020	260120	221950	61.240	12.264300	-56.478455	61.390	-0.030	-0.050	-1.010	61.250	-1.400	-0.700																			1580077190.0	0.55	1.02
26/01/2020 22:19:51	26012020	260120	221951	61.290	12.264302	-56.478453	61.450	0.150	-0.420	-0.690	61.310	-1.800	-0.300																			1580077191.0	0.64	1.19
26/01/2020 22:19:52	26012020	260120	221952	61.350	12.264303	-56.478448	61.510	0.230	-0.660	-0.300	61.350	-2.000	0.100																			1580077192.0	0.88	1.63
26/01/2020 22:19:53	26012020	260120	221953	61.330	12.264303	-56.478445	61.480	0.150	-0.520	0.220	61.320	-1.800	0.600																			1580077193.0	0.85	1.57
26/01/2020 22:19:54	26012020	260120	221954	61.230	12.264303	-56.478442	61.390	-0.040	-0.080	0.810	61.210	-1.400	1.200																			1580077194.0	0.64	1.19
26/01/2020 22:19:55	26012020	260120	221955	61.070	12.264302	-56.478440	61.240	-0.230	0.340	1.310	61.030	-1.000	1.700																			1580077195.0	0.55	1.02
26/01/2020 22:19:56	26012020	260120	221956	60.910	12.264300	-56.478438	61.110	-0.340	0.480	1.480	60.910	-0.900	1.800																			1580077196.0	0.39	0.72
26/01/2020 22:19:57	26012020	260120	221957	60.920	12.264302	-56.478437	61.150	-0.280	0.170	1.160	60.950	-1.300	1.400																			1580077197.0	0.39	0.72
26/01/2020 22:19:58	26012020	260120	221958	61.140	12.264307	-56.478437	61.380	-0.010	-0.450	0.500	61.140	-1.700	1.000																			1580077198.0	1.07	1.98
26/01/2020 22:19:59	26012020	260120	221959	61.380	12.264313	-56.478433	61.550	0.330	-0.840	-0.100	61.390	-2.200	0.200																			1580077199.0	1.51	2.80
26/01/2020 22:20:00	26012020	260120	222000	61.330	12.264318	-56.478432	61.440	0.480	-0.560	-0.350	61.290	-1.800	-0.000	1015.00	26.00	26.10	20.70	20.80	-2.00	72.00	72.00	378.00	25.30	346.00	4.20	47.00	3.80	15	3795.00	27.70	27.70	1580077200.0	1.23	2.28
26/01/2020 22:20:01	26012020	260120	222001	61.060	12.264320	-56.478432	61.160	0.270	0.160	-0.330	61.000	-1.100	-0.000																			1580077201.0	0.47	0.87
26/01/2020 22:20:02	26012020	260120	222002	60.840	12.264322	-56.478433	60.970	-0.120	0.640	-0.310	60.820	-0.700	0.000																			1580077202.0	0.34	0.63
26/01/2020 22:20:03	26012020	260120	222003	60.810	12.264323	-56.478435	60.950	-0.430	0.520	-0.350	60.820	-0.900	-0.000																			1580077203.0	0.44	0.81
26/01/2020 22:20:04	26012020	260120	222004	60.900	12.264327	-56.478433	61.040	-0.470	0.010	-0.330	60.920	-1.400	0.000																			1580077204.0	0.75	1.39
26/01/2020 22:20:05	26012020	260120	222005	60.990	12.264330	-56.478432	61.130	-0.310	-0.500	-0.150	61.000	-1.900	0.200																			1580077205.0	0.86	1.59
26/01/2020 22:20:06	26012020	260120	222006	60.940	12.264330	-56.478428	61.050	-0.070	-0.740	0.280	60.900	-2.100	0.700																			1580077206.0	0.76	1.41
26/01/2020 22:20:07	26012020	260120	222007	60.700	12.264330	-56.478425	60.830	0.150	-0.700	0.860	60.640	-2.000	1.200																			1580077207.0	0.74	1.37
26/01/2020 22:20:08	26012020	260120	222008	60.460	12.264328	-56.478422	60.620	0.320	-0.540	1.250	60.430	-1.900	1.600																			1580077208.0	0.75	1.39
26/01/2020 22:20:09	26012020	260120	222009	60.360	12.264328	-56.478420	60.530	0.460	-0.370	1.220	60.360	-1.700	1.500																			1580077209.0	0.42	0.78
26/01/2020 22:20:10	26012020	260120	222010	60.400	12.264330	-56.478420	60.580	0.550	-0.170	0.760	60.400	-1.600	1.200																			1580077210.0	0.63	1.17
26/01/2020 22:20:11	26012020	260120	222011	60.520	12.264337	-56.478420	60.690	0.520	0.110	0.180	60.550	-1.200	0.400																			1580077211.0	1.13	2.09
26/01/2020 22:20:12	26012020	260120	222012	60.610	12.264342	-56.478422	60.750	0.250	0.460	-0.220	60.620	-0.900	0.100																			1580077212.0	1.13	2.09
26/01/2020 22:20:13	26012020	260120	222013	60.600	12.264343	-56.478422	60.700	-0.230	0.760	-0.380	60.580	-0.600	-0.100																			1580077213.0	0.71	1.31
26/01/2020 22:20:14	26012020	260120	222014	60.510	12.264345	-56.478423	60.620	-0.710	0.760	-0.440	60.500	-0.700	-0.100																			1580077214.0	0.37	0.69
26/01/2020 22:20:15	26012020	260120	222015	60.450	12.264347	-56.478425	60.560	-0.860	0.280	-0.450	60.440	-1.200	-0.100																			1580077215.0	0.21	0.39
26/01/2020 22:20:16	26012020	260120	222016	60.420	12.264347	-56.478423	60.540	-0.600	-0.500	-0.300	60.410	-2.000	0.000																			1580077216.0	0.31	0.57
26/01/2020 22:20:17	26012020	260120	222017	60.370	12.264348	-56.478422	60.510	-0.160	-1.110	-0.010	60.360	-2.500	0.300																			1580077217.0	0.59	1.09
26/01/2020 22:20:18	26012020	260120	222018	60.290	12.264350	-56.478418	60.420	0.170	-1.190	0.250	60.270	-2.500	0.600																			1580077218.0	0.51	0.94
26/01/2020 22:20:19	26012020	260120	222019	60.230	12.264350	-56.478418	60.390	0.350	-0.800	0.430	60.220	-2.100	0.800																			1580077219.0	0.13	0.24
26/01/2020 22:20:20	26012020	260120	222020	60.250	12.264350	-56.478420	60.430	0.450	-0.250	0.560	60.260	-1.500	0.900																			1580077220.0	0.17	0.31
26/01/2020 22:20:21	26012020	260120	222021	60.290	12.264348	-56.478420	60.470	0.460	0.220	0.650	60.290	-1.100	1.000																			1580077221.0	0.17	0.31
26/01/2020 22:20:22	26012020	260120	222022	60.320	12.264348	-56.478420	60.490	0.360	0.430	0.590	60.320	-0.900	0.900																			1580077222.0	0.06	0.11
26/01/2020 22:20:23	26012020	260120	222023	60.430	12.264350	-56.478420	60.600	0.240	0.310	0.300	60.460	-1.100	0.600																			1580077223.0	0.36	0.67
26/01/2020 22:20:24	26012020	260120	222024	60.660	12.264355	-56.478420	60.830	0.150	-0.020	-0.090	60.660	-1.300	0.300																			1580077224.0	0.79	1.46
26/01/2020 22:20:25	26012020	260120	222025	60.850	12.264358	-56.478420	61.000	0.040	-0.230	-0.360	60.860	-1.600	-0.100																			1580077225.0	0.96	1.78
26/01/2020 22:20:26	26012020	260120	222026	60.880	12.264362	-56.478420	61.020	-0.150	-0.110	-0.320	60.860	-1.400	0.000																			1580077226.0	0.71	1.31
26/01/2020 22:20:27	26012020	260120	222027	60.760	12.264363	-56.478422	60.880	-0.410	0.260	-0.000	60.730	-1.100	0.400																			1580077227.0	0.23	0.43
26/01/2020 22:20:28	26012020	260120	222028	60.630	12.264360	-56.478422	60.770	-0.610	0.440	0.380	60.620	-0.900	0.700																			1580077228.0	0.50	0.93
26/01/2020 22:20:29	26012020	260120	222029	60.620	12.264358	-56.478422	60.770	-0.620	0.170	0.640	60.630	-1.300	1.000																			1580077229.0	0.52	0.96
26/01/2020 22:20:30	26012020	260120	222030	60.720	12.264358	-56.478422	60.890	-0.390	-0.370	0.720	60.740	-1.800	1.000																			1580077230.0	0.29	0.54
26/01/2020 22:20:31	26012020	260120	222031	60.830	12.264360	-56.478420	61.010	-0.030	-0.740	0.630	60.850	-2.100	0.900																			1580077231.0	0.46	0.85
26/01/2020 22:20:32	26012020	260120	222032	60.900	12.264362	-56.478418	61.060	0.310	-0.720	0.430	60.910	-2.100	0.700																			1580077232.0	0.53	0.98
26/01/2020 22:20:33	26012020	260120	222033	60.920	12.264363	-56.478420	61.070	0.510	-0.490	0.240	60.920	-1.800	0.500																			1580077233.0	0.55	1.02
26/01/2020 22:20:34	26012020	260120	222034	60.910	12.264367	-56.478422	61.070	0.520	-0.290	0.130	60.920	-1.600	0.400																			1580077234.0	0.57	1.06
26/01/2020 22:20:35	26012020	260120	222035	60.910	12.264368	-56.478422	61.060	0.400	-0.160	0.180	60.910	-1.500	0.500																			1580077235.0	0.48	0.89
26/01/2020 22:20:36	26012020	260120	222036	60.850	12.264370	-56.478422	60.980	0.220	-0.020	0.350	60.830	-1.400	0.700																			1580077236.0	0.36	0.67
26/01/2020 22:20:37	26012020	260120	222037	60.710	12.264370	-56.478420	60.820	0.040	0.140	0.530	60.680	-1.200	0.900																			1580077237.0	0.29	0.54
26/01/2020 22:20:38	26012020	260120	222038	60.560	12.264372	-56.478418	60.700	-0.130	0.300	0.600	60.550	-1.000	0.900																			1580077238.0	0.20	0.37
26/01/2020 22:20:39	26012020	260120	222039	60.510	12.264372	-56.478418	60.670	-0.220	0.350	0.500	60.520	-1.000	0.800																			1580077239.0	0.14	0.26
26/01/2020 22:20:40	26012020	260120	222040	60.540	12.264373	-56.478418	60.700	-0.220	0.220	0.260	60.550	-1.200	0.500																			1580077240.0	0.32	0.59
26/01/2020 22:20:41	26012020	260120	222041	60.570	12.264375	-56.478418	60.720	-0.210	-0.030	-0.010	60.570	-1.400	0.300																			1580077241.0	0.56	1.04
26/01/2020 22:20:42	26012020	260120	222042	60.560	12.264378	-56.478420	60.710	-0.230	-0.200	-0.180	60.560	-1.600	0.100																			1580077242.0	0.69	1.28
26/01/2020 22:20:43	26012020	260120	222043	60.490	12.264382	-56.478420	60.610	-0.270	-0.240	-0.210	60.460	-1.600	0.100																			1580077243.0	0.64	1.19
26/01/2020 22:20:44	26012020	260120	222044	60.340	12.264383	-56.478422	60.460	-0.200	-0.270	-0.090	60.310	-1.700	0.300																			1580077244.0	0.47	0.87
26/01/2020 22:20:45	26012020	260120	222045	60.180	12.264383	-56.478422	60.310	-0.000	-0.460	0.160	60.150	-1.900	0.500																			1580077245.0	0.06	0.11
26/01/2020 22:20:46	26012020	260120	222046	60.020	12.264383	-56.478420	60.160	0.170	-0.640	0.440	59.990	-2.000	0.800																			1580077246.0	0.37	0.69
26/01/2020 22:20:47	26012020	260120	222047	59.840	12.264383	-56.478418	59.970	0.210	-0.550	0.630	59.800	-1.900	1.000																			1580077247.0	0.51	0.94
26/01/2020 22:20:48	26012020	260120	222048	59.650	12.264383	-56.478417	59.790	0.160	-0.190	0.600	59.620	-1.500	0.900																			1580077248.0	0.22	0.41
26/01/2020 22:20:49	26012020	260120	222049	59.550	12.264383	-56.478418	59.700	0.130	0.160	0.270	59.540	-1.200	0.500																			1580077249.0	0.28	0.52
26/01/2020 22:20:50	26012020	260120	222050	59.540	12.264387	-56.478420	59.680	0.150	0.280	-0.230	59.550	-1.100	0.000																			1580077250.0	0.73	1.35
26/01/2020 22:20:51	26012020	260120	222051	59.580	12.264392	-56.478422	59.710	0.130	0.150	-0.770	59.600	-1.200	-0.500																			1580077251.0	1.01	1.87
26/01/2020 22:20:52	26012020	260120	222052	59.670	12.264397	-56.478422	59.800	0.030	-0.080	-1.190	59.690	-1.500	-0.900																			1580077252.0	1.11	2.06
26/01/2020 22:20:53	26012020	260120	222053	59.800	12.264400	-56.478423	59.920	-0.100	-0.210	-1.310	59.830	-1.600	-1.000																			1580077253.0	0.90	1.67
26/01/2020 22:20:54	26012020	260120	222054	59.880	12.264402	-56.478423	59.970	-0.210	-0.150	-1.050	59.870	-1.500	-0.700																			1580077254.0	0.30	0.56
26/01/2020 22:20:55	26012020	260120	222055	59.780	12.264400	-56.478422	59.860	-0.300	0.050	-0.490	59.750	-1.300	-0.100																			1580077255.0	0.45	0.83
26/01/2020 22:20:56	26012020	260120	222056	59.620	12.264395	-56.478420	59.720	-0.340	0.160	0.130	59.600	-1.200	0.500																			1580077256.0	0.92	1.70
26/01/2020 22:20:57	26012020	260120	222057	59.580	12.264392	-56.478420	59.720	-0.280	0.020	0.460	59.590	-1.400	0.800																			1580077257.0	0.88	1.63
26/01/2020 22:20:58	26012020	260120	222058	59.680	12.264390	-56.478418	59.830	-0.090	-0.230	0.440	59.700	-1.600	0.700																			1580077258.0	0.38	0.70
26/01/2020 22:20:59	26012020	260120	222059	59.770	12.264392	-56.478418	59.900	0.160	-0.390	0.270	59.780	-1.800	0.600																			1580077259.0	0.19	0.35
26/01/2020 22:21:00	26012020	260120	222100	59.810	12.264393	-56.478420	59.920	0.330	-0.460	0.020	59.810	-1.800	0.400	1015.00	26.10	26.10	20.80	20.90	-2.00	73.00	73.00	379.00	25.30	341.00	3.90	41.00	3.70	15	3694.00	27.70	27.70	1580077260.0	0.46	0.85
26/01/2020 22:21:01	26012020	260120	222101	59.860	12.264395	-56.478420	59.970	0.320	-0.460	-0.250	59.880	-1.800	0.100																			1580077261.0	0.66	1.22
26/01/2020 22:21:02	26012020	260120	222102	59.920	12.264398	-56.478423	60.020	0.170	-0.350	-0.420	59.930	-1.700	-0.100																			1580077262.0	0.70	1.30
26/01/2020 22:21:03	26012020	260120	222103	59.960	12.264400	-56.478423	60.070	0.010	-0.230	-0.430	59.980	-1.600	-0.100																			1580077263.0	0.51	0.94
26/01/2020 22:21:04	26012020	260120	222104	60.070	12.264400	-56.478423	60.200	-0.030	-0.160	-0.250	60.110	-1.500	0.100																			1580077264.0	0.05	0.09
26/01/2020 22:21:05	26012020	260120	222105	60.290	12.264398	-56.478422	60.430	0.010	-0.050	0.060	60.340	-1.400	0.400																			1580077265.0	0.55	1.02
26/01/2020 22:21:06	26012020	260120	222106	60.510	12.264395	-56.478420	60.640	-0.030	0.160	0.350	60.550	-1.200	0.700																			1580077266.0	1.02	1.89
26/01/2020 22:21:07	26012020	260120	222107	60.640	12.264390	-56.478418	60.770	-0.200	0.390	0.410	60.650	-1.000	0.700																			1580077267.0	0.96	1.78
26/01/2020 22:21:08	26012020	260120	222108	60.610	12.264388	-56.478418	60.710	-0.350	0.510	0.250	60.580	-0.900	0.500																			1580077268.0	0.38	0.70
26/01/2020 22:21:09	26012020	260120	222109	60.450	12.264390	-56.478422	60.530	-0.290	0.430	0.020	60.410	-1.000	0.300																			1580077269.0	0.62	1.15
26/01/2020 22:21:10	26012020	260120	222110	60.270	12.264393	-56.478425	60.350	0.020	0.080	-0.200	60.270	-1.200	0.200																			1580077270.0	0.95	1.76
26/01/2020 22:21:11	26012020	260120	222111	60.230	12.264397	-56.478427	60.360	0.350	-0.490	-0.390	60.240	-1.900	-0.100																			1580077271.0	0.84	1.56
26/01/2020 22:21:12	26012020	260120	222112	60.380	12.264398	-56.478427	60.520	0.430	-0.990	-0.500	60.380	-2.300	-0.200																			1580077272.0	0.61	1.13
26/01/2020 22:21:13	26012020	260120	222113	60.550	12.264400	-56.478427	60.680	0.170	-1.020	-0.350	60.580	-2.300	0.000																			1580077273.0	0.35	0.65
26/01/2020 22:21:14	26012020	260120	222114	60.630	12.264400	-56.478425	60.750	-0.240	-0.540	0.060	60.630	-2.000	0.300																			1580077274.0	0.33	0.61
26/01/2020 22:21:15	26012020	260120	222115	60.600	12.264395	-56.478425	60.730	-0.500	0.080	0.560	60.570	-1.200	0.900																			1580077275.0	0.98	1.81
26/01/2020 22:21:16	26012020	260120	222116	60.440	12.264390	-56.478425	60.560	-0.470	0.430	0.970	60.400	-0.900	1.300																			1580077276.0	1.16	2.15
26/01/2020 22:21:17	26012020	260120	222117	60.230	12.264385	-56.478425	60.370	-0.130	0.310	1.120	60.200	-1.100	1.400																			1580077277.0	0.80	1.48
26/01/2020 22:21:18	26012020	260120	222118	60.150	12.264385	-56.478423	60.330	0.360	-0.120	0.900	60.160	-1.500	1.200																			1580077278.0	0.31	0.57
26/01/2020 22:21:19	26012020	260120	222119	60.260	12.264388	-56.478422	60.440	0.770	-0.470	0.340	60.300	-1.900	0.600																			1580077279.0	0.62	1.15
26/01/2020 22:21:20	26012020	260120	222120	60.440	12.264392	-56.478422	60.590	0.820	-0.430	-0.350	60.460	-1.800	-0.100																			1580077280.0	0.92	1.70
26/01/2020 22:21:21	26012020	260120	222121	60.500	12.264397	-56.478425	60.620	0.430	0.070	-0.830	60.490	-1.200	-0.500																			1580077281.0	1.03	1.91
26/01/2020 22:21:22	26012020	260120	222122	60.360	12.264398	-56.478428	60.450	-0.200	0.680	-0.890	60.320	-0.600	-0.500																			1580077282.0	1.01	1.87
26/01/2020 22:21:23	26012020	260120	222123	60.130	12.264398	-56.478432	60.240	-0.710	0.860	-0.580	60.090	-0.500	-0.200																			1580077283.0	0.85	1.57
26/01/2020 22:21:24	26012020	260120	222124	59.950	12.264397	-56.478433	60.080	-0.900	0.410	-0.160	59.930	-1.100	0.200																			1580077284.0	0.47	0.87
26/01/2020 22:21:25	26012020	260120	222125	59.840	12.264395	-56.478432	59.970	-0.740	-0.380	0.290	59.830	-1.900	0.700																			1580077285.0	0.54	1.00
26/01/2020 22:21:26	26012020	260120	222126	59.810	12.264393	-56.478428	59.960	-0.380	-1.050	0.720	59.820	-2.500	1.100																			1580077286.0	0.84	1.56
26/01/2020 22:21:27	26012020	260120	222127	59.850	12.264390	-56.478425	60.020	0.020	-1.250	1.070	59.860	-2.600	1.400																			1580077287.0	0.94	1.74
26/01/2020 22:21:28	26012020	260120	222128	59.910	12.264387	-56.478423	60.080	0.370	-0.990	1.190	59.910	-2.300	1.500																			1580077288.0	0.75	1.39
26/01/2020 22:21:29	26012020	260120	222129	59.860	12.264385	-56.478423	60.000	0.640	-0.420	1.120	59.830	-1.700	1.400																			1580077289.0	0.40	0.74
26/01/2020 22:21:30	26012020	260120	222130	59.660	12.264385	-56.478423	59.760	0.790	0.090	0.900	59.600	-1.200	1.200																			1580077290.0	0.24	0.44
26/01/2020 22:21:31	26012020	260120	222131	59.390	12.264387	-56.478425	59.480	0.770	0.370	0.570	59.340	-1.000	0.900																			1580077291.0	0.44	0.81
26/01/2020 22:21:32	26012020	260120	222132	59.180	12.264390	-56.478427	59.300	0.560	0.440	0.130	59.160	-0.900	0.400																			1580077292.0	0.82	1.52
26/01/2020 22:21:33	26012020	260120	222133	59.130	12.264395	-56.478428	59.250	0.210	0.430	-0.350	59.120	-0.900	-0.100																			1580077293.0	1.03	1.91
26/01/2020 22:21:34	26012020	260120	222134	59.100	12.264398	-56.478430	59.210	-0.260	0.440	-0.620	59.090	-0.900	-0.300																			1580077294.0	0.87	1.61
26/01/2020 22:21:35	26012020	260120	222135	58.990	12.264400	-56.478432	59.080	-0.790	0.460	-0.560	58.950	-0.900	-0.200																			1580077295.0	0.45	0.83
26/01/2020 22:21:36	26012020	260120	222136	58.770	12.264398	-56.478433	58.840	-1.150	0.280	-0.170	58.770	-1.000	0.100																			1580077296.0	0.37	0.69
26/01/2020 22:21:37	26012020	260120	222137	58.540	12.264395	-56.478433	58.640	-1.070	-0.260	0.320	58.510	-1.700	0.700																			1580077297.0	0.62	1.15
26/01/2020 22:21:38	26012020	260120	222138	58.420	12.264393	-56.478430	58.560	-0.500	-1.010	0.700	58.420	-2.200	1.000																			1580077298.0	0.79	1.46
26/01/2020 22:21:39	26012020	260120	222139	58.350	12.264392	-56.478427	58.500	0.260	-1.370	0.910	58.340	-2.700	1.300																			1580077299.0	0.86	1.59
26/01/2020 22:21:40	26012020	260120	222140	58.220	12.264390	-56.478425	58.350	0.790	-1.020	0.940	58.180	-2.300	1.300																			1580077300.0	0.56	1.04
26/01/2020 22:21:41	26012020	260120	222141	57.990	12.264390	-56.478425	58.110	0.890	-0.220	0.740	57.940	-1.500	1.000																			1580077301.0	0.27	0.50
26/01/2020 22:21:42	26012020	260120	222142	57.780	12.264390	-56.478428	57.920	0.680	0.390	0.380	57.760	-0.900	0.700																			1580077302.0	0.78	1.44
26/01/2020 22:21:43	26012020	260120	222143	57.700	12.264392	-56.478432	57.840	0.410	0.450	-0.090	57.700	-1.000	0.200																			1580077303.0	0.89	1.65
26/01/2020 22:21:44	26012020	260120	222144	57.730	12.264395	-56.478433	57.860	0.190	0.120	-0.600	57.740	-1.300	-0.300																			1580077304.0	0.92	1.70
26/01/2020 22:21:45	26012020	260120	222145	57.750	12.264400	-56.478435	57.850	0.010	-0.140	-0.920	57.750	-1.500	-0.600																			1580077305.0	0.93	1.72
26/01/2020 22:21:46	26012020	260120	222146	57.700	12.264403	-56.478433	57.780	-0.200	-0.050	-0.890	57.670	-1.400	-0.500																			1580077306.0	0.51	0.94
26/01/2020 22:21:47	26012020	260120	222147	57.570	12.264402	-56.478433	57.670	-0.420	0.260	-0.570	57.550	-1.100	-0.200																			1580077307.0	0.22	0.41
26/01/2020 22:21:48	26012020	260120	222148	57.440	12.264398	-56.478435	57.550	-0.560	0.450	-0.100	57.440	-0.900	0.100																			1580077308.0	0.72	1.33
26/01/2020 22:21:49	26012020	260120	222149	57.360	12.264395	-56.478435	57.480	-0.510	0.230	0.280	57.350	-1.200	0.600																			1580077309.0	0.76	1.41
26/01/2020 22:21:50	26012020	260120	222150	57.320	12.264393	-56.478433	57.430	-0.310	-0.230	0.500	57.320	-1.500	0.800																			1580077310.0	0.47	0.87
26/01/2020 22:21:51	26012020	260120	222151	57.240	12.264392	-56.478433	57.360	-0.100	-0.590	0.610	57.220	-2.000	0.900																			1580077311.0	0.25	0.46
26/01/2020 22:21:52	26012020	260120	222152	57.150	12.264392	-56.478432	57.260	0.050	-0.680	0.660	57.130	-2.000	1.000																			1580077312.0	0.09	0.17
26/01/2020 22:21:53	26012020	260120	222153	57.100	12.264392	-56.478433	57.230	0.140	-0.640	0.620	57.090	-2.000	0.900																			1580077313.0	0.08	0.15
26/01/2020 22:21:54	26012020	260120	222154	57.090	12.264392	-56.478433	57.210	0.260	-0.490	0.520	57.090	-1.800	0.800																			1580077314.0	0.13	0.24
26/01/2020 22:21:55	26012020	260120	222155	57.070	12.264393	-56.478433	57.170	0.420	-0.270	0.380	57.060	-1.600	0.700																			1580077315.0	0.17	0.31
26/01/2020 22:21:56	26012020	260120	222156	57.020	12.264393	-56.478433	57.120	0.560	-0.030	0.220	57.010	-1.400	0.500																			1580077316.0	0.18	0.33
26/01/2020 22:21:57	26012020	260120	222157	56.980	12.264393	-56.478435	57.090	0.540	0.100	0.020	56.980	-1.300	0.300																			1580077317.0	0.16	0.30
26/01/2020 22:21:58	26012020	260120	222158	56.990	12.264395	-56.478435	57.100	0.310	0.130	-0.190	57.000	-1.200	0.100																			1580077318.0	0.20	0.37
26/01/2020 22:21:59	26012020	260120	222159	57.040	12.264397	-56.478435	57.150	-0.060	0.180	-0.290	57.050	-1.200	0.100																			1580077319.0	0.23	0.43
26/01/2020 22:22:00	26012020	260120	222200	57.000	12.264397	-56.478435	57.080	-0.420	0.350	-0.100	57.000	-1.100	0.200	1015.00	26.10	26.10	21.00	21.10	-2.00	73.00	73.00	378.00	25.20	340.00	3.70	38.00	3.50	15	3757.00	27.70	27.60	1580077320.0	0.05	0.09
26/01/2020 22:22:01	26012020	260120	222201	56.780	12.264395	-56.478435	56.850	-0.650	0.470	0.270	56.720	-0.900	0.700																			1580077321.0	0.39	0.72
26/01/2020 22:22:02	26012020	260120	222202	56.510	12.264392	-56.478435	56.610	-0.670	0.320	0.520	56.510	-1.000	0.800																			1580077322.0	0.53	0.98
26/01/2020 22:22:03	26012020	260120	222203	56.300	12.264390	-56.478435	56.390	-0.450	-0.170	0.630	56.270	-1.600	1.000																			1580077323.0	0.25	0.46
26/01/2020 22:22:04	26012020	260120	222204	56.230	12.264392	-56.478435	56.340	-0.090	-0.640	0.550	56.230	-1.900	0.900																			1580077324.0	0.14	0.26
26/01/2020 22:22:05	26012020	260120	222205	56.350	12.264392	-56.478433	56.490	0.290	-0.950	0.320	56.380	-2.300	0.600																			1580077325.0	0.28	0.52
26/01/2020 22:22:06	26012020	260120	222206	56.560	12.264393	-56.478435	56.680	0.600	-0.950	0.090	56.600	-2.300	0.400																			1580077326.0	0.38	0.70
26/01/2020 22:22:07	26012020	260120	222207	56.680	12.264395	-56.478435	56.780	0.670	-0.590	0.030	56.670	-1.900	0.400																			1580077327.0	0.25	0.46
26/01/2020 22:22:08	26012020	260120	222208	56.560	12.264395	-56.478435	56.630	0.410	0.040	0.220	56.510	-1.200	0.600																			1580077328.0	0.15	0.28
26/01/2020 22:22:09	26012020	260120	222209	56.270	12.264393	-56.478437	56.340	-0.070	0.580	0.540	56.220	-0.700	0.900																			1580077329.0	0.46	0.85
26/01/2020 22:22:10	26012020	260120	222210	56.070	12.264390	-56.478437	56.180	-0.460	0.630	0.740	56.060	-0.800	1.100																			1580077330.0	0.48	0.89
26/01/2020 22:22:11	26012020	260120	222211	56.070	12.264390	-56.478437	56.190	-0.490	0.230	0.730	56.080	-1.200	1.100																			1580077331.0	0.23	0.43
26/01/2020 22:22:12	26012020	260120	222212	56.110	12.264390	-56.478433	56.230	-0.230	-0.180	0.630	56.120	-1.600	0.900																			1580077332.0	0.43	0.80
26/01/2020 22:22:13	26012020	260120	222213	56.100	12.264390	-56.478432	56.200	0.090	-0.340	0.460	56.090	-1.700	0.800																			1580077333.0	0.37	0.69
26/01/2020 22:22:14	26012020	260120	222214	56.040	12.264390	-56.478432	56.130	0.280	-0.300	0.250	56.040	-1.700	0.600																			1580077334.0	0.06	0.11
26/01/2020 22:22:15	26012020	260120	222215	55.990	12.264392	-56.478433	56.080	0.290	-0.220	0.030	55.990	-1.600	0.300																			1580077335.0	0.26	0.48
26/01/2020 22:22:16	26012020	260120	222216	55.960	12.264392	-56.478435	56.030	0.160	-0.120	-0.180	55.950	-1.500	0.100																			1580077336.0	0.48	0.89
26/01/2020 22:22:17	26012020	260120	222217	55.880	12.264393	-56.478437	55.940	-0.070	-0.020	-0.270	55.850	-1.400	0.100																			1580077337.0	0.58	1.07
26/01/2020 22:22:18	26012020	260120	222218	55.730	12.264395	-56.478438	55.790	-0.310	0.070	-0.110	55.710	-1.300	0.300																			1580077338.0	0.49	0.91
26/01/2020 22:22:19	26012020	260120	222219	55.610	12.264395	-56.478440	55.680	-0.380	0.010	0.240	55.600	-1.400	0.600																			1580077339.0	0.19	0.35
26/01/2020 22:22:20	26012020	260120	222220	55.620	12.264393	-56.478438	55.720	-0.240	-0.270	0.520	55.640	-1.700	0.900																			1580077340.0	0.50	0.93
26/01/2020 22:22:21	26012020	260120	222221	55.760	12.264390	-56.478435	55.860	0.020	-0.550	0.710	55.780	-1.900	1.100																			1580077341.0	0.78	1.44
26/01/2020 22:22:22	26012020	260120	222222	55.880	12.264388	-56.478433	55.980	0.280	-0.580	0.830	55.890	-1.900	1.200																			1580077342.0	0.77	1.43
26/01/2020 22:22:23	26012020	260120	222223	55.880	12.264387	-56.478430	55.960	0.390	-0.380	0.870	55.860	-1.700	1.200																			1580077343.0	0.56	1.04
26/01/2020 22:22:24	26012020	260120	222224	55.720	12.264387	-56.478430	55.770	0.280	0.030	0.760	55.670	-1.300	1.100																			1580077344.0	0.19	0.35
26/01/2020 22:22:25	26012020	260120	222225	55.490	12.264387	-56.478433	55.520	0.070	0.320	0.460	55.450	-1.000	0.800																			1580077345.0	0.46	0.85
26/01/2020 22:22:26	26012020	260120	222226	55.370	12.264388	-56.478435	55.430	-0.060	0.330	-0.010	55.370	-1.000	0.500																			1580077346.0	0.78	1.44
26/01/2020 22:22:27	26012020	260120	222227	55.480	12.264392	-56.478438	55.560	-0.070	0.080	-0.480	55.510	-1.300	-0.200																			1580077347.0	0.80	1.48
26/01/2020 22:22:28	26012020	260120	222228	55.670	12.264395	-56.478438	55.730	-0.050	-0.120	-0.670	55.670	-1.500	-0.300																			1580077348.0	0.55	1.02
26/01/2020 22:22:29	26012020	260120	222229	55.730	12.264395	-56.478438	55.770	-0.120	-0.130	-0.490	55.720	-1.500	-0.100																			1580077349.0	0.09	0.17
26/01/2020 22:22:30	26012020	260120	222230	55.650	12.264393	-56.478437	55.690	-0.220	-0.140	-0.170	55.650	-1.500	0.100																			1580077350.0	0.49	0.91
26/01/2020 22:22:31	26012020	260120	222231	55.560	12.264390	-56.478437	55.630	-0.250	-0.260	0.090	55.550	-1.600	0.500																			1580077351.0	0.63	1.17
26/01/2020 22:22:32	26012020	260120	222232	55.540	12.264388	-56.478435	55.610	-0.180	-0.340	0.310	55.530	-1.700	0.700																			1580077352.0	0.47	0.87
26/01/2020 22:22:33	26012020	260120	222233	55.530	12.264387	-56.478433	55.620	-0.090	-0.210	0.520	55.530	-1.500	0.900																			1580077353.0	0.28	0.52
26/01/2020 22:22:34	26012020	260120	222234	55.500	12.264387	-56.478435	55.600	0.000	0.020	0.660	55.500	-1.300	1.000																			1580077354.0	0.27	0.50
26/01/2020 22:22:35	26012020	260120	222235	55.510	12.264385	-56.478435	55.620	0.150	-0.020	0.620	55.530	-1.400	0.900																			1580077355.0	0.33	0.61
26/01/2020 22:22:36	26012020	260120	222236	55.650	12.264385	-56.478435	55.760	0.350	-0.440	0.450	55.680	-1.900	0.800																			1580077356.0	0.02	0.04
26/01/2020 22:22:37	26012020	260120	222237	55.830	12.264387	-56.478433	55.940	0.460	-0.760	0.320	55.850	-2.100	0.700																			1580077357.0	0.48	0.89
26/01/2020 22:22:38	26012020	260120	222238	55.880	12.264387	-56.478432	55.970	0.320	-0.490	0.330	55.880	-2.000	0.700																			1580077358.0	0.48	0.89
26/01/2020 22:22:39	26012020	260120	222239	55.740	12.264385	-56.478432	55.820	-0.010	0.200	0.350	55.710	-1.100	0.700																			1580077359.0	0.28	0.52
26/01/2020 22:22:40	26012020	260120	222240	55.630	12.264383	-56.478433	55.710	-0.320	0.690	0.180	55.630	-0.700	0.600																			1580077360.0	0.62	1.15
26/01/2020 22:22:41	26012020	260120	222241	55.660	12.264383	-56.478435	55.750	-0.430	0.620	-0.100	55.680	-0.800	0.200																			1580077361.0	0.50	0.93
26/01/2020 22:22:42	26012020	260120	222242	55.810	12.264385	-56.478437	55.910	-0.270	0.170	-0.340	55.850	-1.300	-0.000																			1580077362.0	0.47	0.87
26/01/2020 22:22:43	26012020	260120	222243	56.000	12.264387	-56.478437	56.070	-0.030	-0.250	-0.480	56.040	-1.700	-0.100																			1580077363.0	0.45	0.83
26/01/2020 22:22:44	26012020	260120	222244	56.130	12.264388	-56.478435	56.210	0.130	-0.510	-0.440	56.140	-1.900	-0.100																			1580077364.0	0.23	0.43
26/01/2020 22:22:45	26012020	260120	222245	56.130	12.264385	-56.478435	56.210	0.050	-0.440	-0.060	56.110	-1.800	0.400																			1580077365.0	0.46	0.85
26/01/2020 22:22:46	26012020	260120	222246	56.020	12.264382	-56.478433	56.110	-0.140	-0.270	0.500	55.990	-1.600	0.900																			1580077366.0	0.86	1.59
26/01/2020 22:22:47	26012020	260120	222247	55.930	12.264377	-56.478433	56.050	-0.200	-0.250	0.840	55.920	-1.600	1.200																			1580077367.0	0.96	1.78
26/01/2020 22:22:48	26012020	260120	222248	55.920	12.264375	-56.478432	56.030	-0.060	-0.380	0.900	55.920	-1.800	1.200																			1580077368.0	0.52	0.96
26/01/2020 22:22:49	26012020	260120	222249	55.950	12.264377	-56.478430	56.070	0.250	-0.500	0.660	55.960	-1.900	1.000																			1580077369.0	0.24	0.44
26/01/2020 22:22:50	26012020	260120	222250	56.040	12.264378	-56.478430	56.170	0.450	-0.370	0.340	56.070	-1.700	0.700																			1580077370.0	0.48	0.89
26/01/2020 22:22:51	26012020	260120	222251	56.220	12.264380	-56.478432	56.330	0.450	-0.030	0.120	56.270	-1.300	0.400																			1580077371.0	0.45	0.83
26/01/2020 22:22:52	26012020	260120	222252	56.440	12.264380	-56.478433	56.580	0.170	0.470	0.010	56.440	-1.000	0.400																			1580077372.0	0.26	0.48
26/01/2020 22:22:53	26012020	260120	222253	56.600	12.264378	-56.478433	56.720	-0.220	0.730	0.070	56.610	-0.600	0.400																			1580077373.0	0.46	0.85
26/01/2020 22:22:54	26012020	260120	222254	56.650	12.264375	-56.478433	56.750	-0.530	0.620	0.160	56.650	-0.700	0.500																			1580077374.0	0.62	1.15
26/01/2020 22:22:55	26012020	260120	222255	56.620	12.264373	-56.478433	56.730	-0.590	0.090	0.280	56.610	-1.400	0.600																			1580077375.0	0.56	1.04
26/01/2020 22:22:56	26012020	260120	222256	56.540	12.264372	-56.478430	56.650	-0.380	-0.540	0.450	56.520	-2.000	0.800																			1580077376.0	0.51	0.94
26/01/2020 22:22:57	26012020	260120	222257	56.420	12.264372	-56.478428	56.530	-0.100	-0.880	0.600	56.390	-2.300	1.000																			1580077377.0	0.48	0.89
26/01/2020 22:22:58	26012020	260120	222258	56.310	12.264370	-56.478427	56.450	0.200	-0.900	0.650	56.300	-2.200	1.000																			1580077378.0	0.29	0.54
26/01/2020 22:22:59	26012020	260120	222259	56.300	12.264370	-56.478428	56.450	0.420	-0.690	0.480	56.320	-2.000	0.800																			1580077379.0	0.13	0.24
26/01/2020 22:23:00	26012020	260120	222300	56.450	12.264370	-56.478428	56.610	0.560	-0.390	0.150	56.490	-1.700	0.500	1015.00	26.00	26.10	20.80	20.90	-2.00	72.00	73.00	378.00	25.20	340.00	4.00	35.00	3.80	15	3851.00	27.60	27.60	1580077380.0	0.18	0.33
26/01/2020 22:23:01	26012020	260120	222301	56.660	12.264370	-56.478428	56.790	0.520	-0.110	-0.080	56.700	-1.400	0.200																			1580077381.0	0.13	0.24
26/01/2020 22:23:02	26012020	260120	222302	56.810	12.264370	-56.478428	56.940	0.250	0.260	-0.190	56.830	-1.000	0.200																			1580077382.0	0.08	0.15
26/01/2020 22:23:03	26012020	260120	222303	56.860	12.264370	-56.478430	56.990	-0.170	0.610	-0.190	56.870	-0.700	0.200																			1580077383.0	0.14	0.26
26/01/2020 22:23:04	26012020	260120	222304	56.870	12.264370	-56.478430	57.000	-0.520	0.730	-0.080	56.870	-0.600	0.300																			1580077384.0	0.27	0.50
26/01/2020 22:23:05	26012020	260120	222305	56.880	12.264368	-56.478432	57.020	-0.650	0.520	0.170	56.890	-1.000	0.600																			1580077385.0	0.37	0.69
26/01/2020 22:23:06	26012020	260120	222306	56.930	12.264365	-56.478430	57.070	-0.470	-0.030	0.560	56.950	-1.500	1.000																			1580077386.0	0.63	1.17
26/01/2020 22:23:07	26012020	260120	222307	57.000	12.264362	-56.478427	57.150	-0.060	-0.650	1.030	57.010	-2.100	1.400																			1580077387.0	1.02	1.89
26/01/2020 22:23:08	26012020	260120	222308	56.980	12.264358	-56.478422	57.130	0.200	-0.860	1.350	56.950	-2.200	1.700																			1580077388.0	1.25	2.31
26/01/2020 22:23:09	26012020	260120	222309	56.800	12.264353	-56.478420	56.950	0.270	-0.770	1.400	56.760	-2.100	1.700																			1580077389.0	1.02	1.89
26/01/2020 22:23:10	26012020	260120	222310	56.570	12.264353	-56.478420	56.730	0.200	-0.530	1.050	56.530	-1.800	1.300																			1580077390.0	0.26	0.48
26/01/2020 22:23:11	26012020	260120	222311	56.430	12.264355	-56.478422	56.580	0.200	-0.300	0.420	56.430	-1.600	0.600																			1580077391.0	0.77	1.43
26/01/2020 22:23:12	26012020	260120	222312	56.510	12.264360	-56.478425	56.640	0.330	-0.120	-0.300	56.550	-1.400	-0.100																			1580077392.0	1.24	2.30
26/01/2020 22:23:13	26012020	260120	222313	56.780	12.264365	-56.478428	56.910	0.420	0.100	-0.810	56.840	-1.200	-0.500																			1580077393.0	1.14	2.11
26/01/2020 22:23:14	26012020	260120	222314	57.080	12.264367	-56.478428	57.200	0.270	0.400	-0.940	57.120	-0.900	-0.600																			1580077394.0	0.49	0.91
26/01/2020 22:23:15	26012020	260120	222315	57.210	12.264365	-56.478428	57.320	-0.200	0.640	-0.570	57.210	-0.700	-0.200																			1580077395.0	0.41	0.76
26/01/2020 22:23:16	26012020	260120	222316	57.120	12.264360	-56.478428	57.230	-0.620	0.560	0.150	57.120	-0.800	0.300																			1580077396.0	1.10	2.04
26/01/2020 22:23:17	26012020	260120	222317	57.000	12.264353	-56.478425	57.150	-0.740	0.100	0.830	57.000	-1.400	1.300																			1580077397.0	1.51	2.80
26/01/2020 22:23:18	26012020	260120	222318	57.000	12.264348	-56.478420	57.170	-0.530	-0.660	1.290	57.000	-1.900	1.600																			1580077398.0	1.48	2.74
26/01/2020 22:23:19	26012020	260120	222319	56.980	12.264347	-56.478415	57.140	-0.040	-1.060	1.540	56.960	-2.400	1.900																			1580077399.0	1.09	2.02
26/01/2020 22:23:20	26012020	260120	222320	56.870	12.264345	-56.478413	57.020	0.360	-0.790	1.560	56.840	-2.000	1.900																			1580077400.0	0.50	0.93
26/01/2020 22:23:21	26012020	260120	222321	56.700	12.264343	-56.478415	56.850	0.620	-0.220	1.340	56.660	-1.500	1.600																			1580077401.0	0.39	0.72
26/01/2020 22:23:22	26012020	260120	222322	56.540	12.264343	-56.478418	56.670	0.640	0.160	0.850	56.520	-1.200	1.000																			1580077402.0	0.64	1.19
26/01/2020 22:23:23	26012020	260120	222323	56.490	12.264347	-56.478420	56.610	0.480	0.150	0.140	56.500	-1.300	0.300																			1580077403.0	0.86	1.59
26/01/2020 22:23:24	26012020	260120	222324	56.590	12.264352	-56.478423	56.700	0.240	-0.090	-0.540	56.630	-1.500	-0.300																			1580077404.0	1.08	2.00
26/01/2020 22:23:25	26012020	260120	222325	56.800	12.264355	-56.478423	56.900	-0.010	-0.250	-0.920	56.850	-1.600	-0.600																			1580077405.0	0.91	1.69
26/01/2020 22:23:26	26012020	260120	222326	57.040	12.264357	-56.478423	57.150	-0.270	-0.170	-0.880	57.070	-1.500	-0.500																			1580077406.0	0.29	0.54
26/01/2020 22:23:27	26012020	260120	222327	57.170	12.264353	-56.478422	57.290	-0.550	0.150	-0.430	57.180	-1.100	0.100																			1580077407.0	0.70	1.30
26/01/2020 22:23:28	26012020	260120	222328	57.130	12.264347	-56.478420	57.260	-0.800	0.510	0.300	57.130	-0.900	0.500																			1580077408.0	1.36	2.52
26/01/2020 22:23:29	26012020	260120	222329	56.930	12.264340	-56.478418	57.050	-0.800	0.620	1.130	56.880	-0.800	1.600																			1580077409.0	1.63	3.02
26/01/2020 22:23:30	26012020	260120	222330	56.670	12.264333	-56.478415	56.810	-0.420	0.220	1.690	56.670	-1.100	2.000																			1580077410.0	1.47	2.72
26/01/2020 22:23:31	26012020	260120	222331	56.500	12.264330	-56.478413	56.650	0.230	-0.590	1.730	56.490	-2.100	2.000																			1580077411.0	0.90	1.67
26/01/2020 22:23:32	26012020	260120	222332	56.460	12.264332	-56.478410	56.600	0.810	-1.300	1.360	56.470	-2.700	1.600																			1580077412.0	0.58	1.07
26/01/2020 22:23:33	26012020	260120	222333	56.510	12.264335	-56.478410	56.640	1.050	-1.390	0.840	56.520	-2.700	1.100																			1580077413.0	0.87	1.61
26/01/2020 22:23:34	26012020	260120	222334	56.540	12.264340	-56.478412	56.660	0.870	-0.750	0.380	56.540	-1.900	0.600																			1580077414.0	0.92	1.70
26/01/2020 22:23:35	26012020	260120	222335	56.490	12.264342	-56.478415	56.580	0.400	0.210	0.030	56.470	-0.900	0.300																			1580077415.0	0.86	1.59
26/01/2020 22:23:36	26012020	260120	222336	56.420	12.264342	-56.478418	56.510	-0.140	0.950	-0.130	56.400	-0.300	0.200																			1580077416.0	0.79	1.46
26/01/2020 22:23:37	26012020	260120	222337	56.400	12.264340	-56.478420	56.490	-0.590	1.100	-0.130	56.420	-0.300	0.200																			1580077417.0	0.53	0.98
26/01/2020 22:23:38	26012020	260120	222338	56.510	12.264337	-56.478420	56.600	-0.800	0.600	-0.010	56.510	-0.700	0.300																			1580077418.0	0.46	0.85
26/01/2020 22:23:39	26012020	260120	222339	56.660	12.264337	-56.478417	56.750	-0.690	-0.190	0.240	56.680	-1.700	0.600																			1580077419.0	0.72	1.33
26/01/2020 22:23:40	26012020	260120	222340	56.730	12.264335	-56.478412	56.810	-0.350	-0.780	0.520	56.730	-2.100	0.800																			1580077420.0	0.94	1.74
26/01/2020 22:23:41	26012020	260120	222341	56.700	12.264332	-56.478410	56.790	0.010	-0.840	0.780	56.680	-2.100	1.200																			1580077421.0	0.84	1.56
26/01/2020 22:23:42	26012020	260120	222342	56.540	12.264328	-56.478408	56.610	0.240	-0.390	1.050	56.540	-1.800	1.400																			1580077422.0	0.69	1.28
26/01/2020 22:23:43	26012020	260120	222343	56.230	12.264325	-56.478410	56.300	0.350	0.150	1.320	56.160	-1.100	1.700																			1580077423.0	0.84	1.56
26/01/2020 22:23:44	26012020	260120	222344	55.920	12.264322	-56.478412	56.000	0.420	0.220	1.430	55.920	-1.100	1.800																			1580077424.0	0.72	1.33
26/01/2020 22:23:45	26012020	260120	222345	55.710	12.264322	-56.478413	55.790	0.450	-0.250	1.250	55.680	-1.800	1.500																			1580077425.0	0.07	0.13
26/01/2020 22:23:46	26012020	260120	222346	55.650	12.264325	-56.478412	55.720	0.320	-0.800	0.790	55.660	-2.200	1.000																			1580077426.0	0.65	1.20
26/01/2020 22:23:47	26012020	260120	222347	55.730	12.264330	-56.478412	55.790	0.030	-0.840	0.210	55.760	-2.100	0.400																			1580077427.0	0.96	1.78
26/01/2020 22:23:48	26012020	260120	222348	55.860	12.264333	-56.478413	55.900	-0.240	-0.250	-0.180	55.880	-1.400	0.100																			1580077428.0	0.86	1.59
26/01/2020 22:23:49	26012020	260120	222349	55.950	12.264333	-56.478415	55.990	-0.310	0.570	-0.160	55.960	-0.700	0.300																			1580077429.0	0.66	1.22
26/01/2020 22:23:50	26012020	260120	222350	55.950	12.264330	-56.478418	55.990	-0.220	1.020	0.190	55.940	-0.300	0.700																			1580077430.0	0.86	1.59
26/01/2020 22:23:51	26012020	260120	222351	55.820	12.264325	-56.478417	55.860	-0.140	0.830	0.670	55.780	-0.700	1.100																			1580077431.0	1.12	2.07
26/01/2020 22:23:52	26012020	260120	222352	55.570	12.264320	-56.478413	55.610	-0.130	0.150	1.120	55.570	-1.100	1.400																			1580077432.0	1.12	2.07
26/01/2020 22:23:53	26012020	260120	222353	55.330	12.264318	-56.478410	55.370	-0.150	-0.660	1.390	55.290	-2.200	1.800																			1580077433.0	0.95	1.76
26/01/2020 22:23:54	26012020	260120	222354	55.160	12.264318	-56.478407	55.200	-0.130	-1.230	1.420	55.130	-2.600	1.700																			1580077434.0	0.67	1.24
26/01/2020 22:23:55	26012020	260120	222355	55.060	12.264320	-56.478405	55.120	-0.020	-1.240	1.170	55.050	-2.500	1.400																			1580077435.0	0.41	0.76
26/01/2020 22:23:56	26012020	260120	222356	55.040	12.264322	-56.478407	55.080	0.180	-0.700	0.780	55.040	-2.200	1.200																			1580077436.0	0.59	1.09
26/01/2020 22:23:57	26012020	260120	222357	55.050	12.264323	-56.478410	55.080	0.400	0.050	0.380	55.060	-1.200	0.700																			1580077437.0	0.75	1.39
26/01/2020 22:23:58	26012020	260120	222358	55.130	12.264323	-56.478413	55.160	0.490	0.560	-0.010	55.160	-0.800	0.300																			1580077438.0	0.67	1.24
26/01/2020 22:23:59	26012020	260120	222359	55.290	12.264323	-56.478415	55.320	0.380	0.610	-0.360	55.330	-0.800	-0.000																			1580077439.0	0.38	0.70
26/01/2020 22:24:00	26012020	260120	222400	55.460	12.264325	-56.478415	55.480	0.070	0.380	-0.500	55.490	-1.100	-0.100	1015.00	26.00	26.10	20.80	20.90	-2.00	73.00	73.00	378.00	25.20	344.00	3.70	39.00	3.40	15	3828.00	27.60	27.60	1580077440.0	0.27	0.50
26/01/2020 22:24:01	26012020	260120	222401	55.580	12.264327	-56.478415	55.610	-0.330	0.080	-0.360	55.590	-1.400	0.100																			1580077441.0	0.27	0.50
26/01/2020 22:24:02	26012020	260120	222402	55.590	12.264325	-56.478413	55.630	-0.630	-0.190	0.030	55.590	-1.600	0.500																			1580077442.0	0.36	0.67
26/01/2020 22:24:03	26012020	260120	222403	55.510	12.264323	-56.478412	55.550	-0.680	-0.370	0.590	55.480	-1.800	1.100																			1580077443.0	0.70	1.30
26/01/2020 22:24:04	26012020	260120	222404	55.350	12.264318	-56.478408	55.410	-0.480	-0.440	1.170	55.330	-1.800	1.600																			1580077444.0	0.93	1.72
26/01/2020 22:24:05	26012020	260120	222405	55.260	12.264315	-56.478407	55.350	-0.100	-0.470	1.490	55.260	-1.800	1.900																			1580077445.0	0.88	1.63
26/01/2020 22:24:06	26012020	260120	222406	55.330	12.264313	-56.478405	55.420	0.330	-0.490	1.500	55.330	-1.900	1.900																			1580077446.0	0.50	0.93
26/01/2020 22:24:07	26012020	260120	222407	55.560	12.264313	-56.478405	55.650	0.630	-0.380	1.260	55.620	-1.700	1.500																			1580077447.0	0.07	0.13
26/01/2020 22:24:08	26012020	260120	222408	55.850	12.264315	-56.478407	55.930	0.700	-0.100	0.890	55.900	-1.400	1.100																			1580077448.0	0.23	0.43
26/01/2020 22:24:09	26012020	260120	222409	56.020	12.264315	-56.478407	56.090	0.470	0.210	0.530	56.020	-1.100	0.800																			1580077449.0	0.30	0.56
26/01/2020 22:24:10	26012020	260120	222410	55.850	12.264315	-56.478408	55.900	0.000	0.430	0.380	55.790	-0.900	0.700																			1580077450.0	0.30	0.56
26/01/2020 22:24:11	26012020	260120	222411	55.500	12.264315	-56.478410	55.540	-0.450	0.360	0.370	55.430	-1.100	0.700																			1580077451.0	0.31	0.57
26/01/2020 22:24:12	26012020	260120	222412	55.250	12.264317	-56.478412	55.290	-0.570	-0.080	0.310	55.230	-1.600	0.700																			1580077452.0	0.32	0.59
26/01/2020 22:24:13	26012020	260120	222413	55.250	12.264318	-56.478412	55.300	-0.290	-0.600	0.180	55.270	-2.100	0.500																			1580077453.0	0.52	0.96
26/01/2020 22:24:14	26012020	260120	222414	55.390	12.264322	-56.478410	55.440	0.090	-0.790	0.080	55.420	-2.100	0.400																			1580077454.0	0.55	1.02
26/01/2020 22:24:15	26012020	260120	222415	55.540	12.264322	-56.478410	55.600	0.230	-0.420	0.110	55.560	-1.600	0.500																			1580077455.0	0.16	0.30
26/01/2020 22:24:16	26012020	260120	222416	55.630	12.264320	-56.478410	55.690	0.060	0.250	0.350	55.640	-1.000	0.800																			1580077456.0	0.48	0.89
26/01/2020 22:24:17	26012020	260120	222417	55.640	12.264315	-56.478412	55.690	-0.210	0.670	0.730	55.630	-0.700	1.200																			1580077457.0	0.93	1.72
26/01/2020 22:24:18	26012020	260120	222418	55.610	12.264312	-56.478412	55.670	-0.350	0.500	1.030	55.610	-0.800	1.400																			1580077458.0	0.94	1.74
26/01/2020 22:24:19	26012020	260120	222419	55.570	12.264308	-56.478408	55.630	-0.290	-0.110	1.080	55.560	-1.600	1.400																			1580077459.0	0.61	1.13
26/01/2020 22:24:20	26012020	260120	222420	55.460	12.264310	-56.478407	55.500	-0.060	-0.730	0.950	55.460	-2.000	1.300																			1580077460.0	0.50	0.93
26/01/2020 22:24:21	26012020	260120	222421	55.320	12.264312	-56.478405	55.350	0.260	-1.000	0.760	55.290	-2.400	1.100																			1580077461.0	0.57	1.06
26/01/2020 22:24:22	26012020	260120	222422	55.270	12.264315	-56.478405	55.300	0.560	-0.890	0.480	55.280	-2.200	0.800																			1580077462.0	0.51	0.94
26/01/2020 22:24:23	26012020	260120	222423	55.360	12.264317	-56.478407	55.390	0.640	-0.410	0.110	55.380	-1.600	0.400																			1580077463.0	0.51	0.94
26/01/2020 22:24:24	26012020	260120	222424	55.480	12.264318	-56.478408	55.500	0.420	0.290	-0.250	55.500	-0.900	0.100																			1580077464.0	0.63	1.17
26/01/2020 22:24:25	26012020	260120	222425	55.550	12.264318	-56.478412	55.570	0.000	0.850	-0.400	55.550	-0.400	-0.000																			1580077465.0	0.71	1.31
26/01/2020 22:24:26	26012020	260120	222426	55.540	12.264318	-56.478415	55.550	-0.430	0.950	-0.270	55.530	-0.500	0.200																			1580077466.0	0.49	0.91
26/01/2020 22:24:27	26012020	260120	222427	55.490	12.264317	-56.478415	55.500	-0.730	0.500	0.060	55.480	-1.000	0.500																			1580077467.0	0.40	0.74
26/01/2020 22:24:28	26012020	260120	222428	55.480	12.264315	-56.478412	55.500	-0.800	-0.260	0.500	55.480	-1.800	1.000																			1580077468.0	0.76	1.41
26/01/2020 22:24:29	26012020	260120	222429	55.510	12.264312	-56.478407	55.560	-0.600	-0.930	0.960	55.520	-2.400	1.400																			1580077469.0	1.01	1.87
26/01/2020 22:24:30	26012020	260120	222430	55.550	12.264310	-56.478403	55.600	-0.170	-1.150	1.230	55.560	-2.500	1.600																			1580077470.0	0.92	1.70
26/01/2020 22:24:31	26012020	260120	222431	55.570	12.264308	-56.478402	55.640	0.370	-0.890	1.190	55.570	-2.100	1.500																			1580077471.0	0.57	1.06
26/01/2020 22:24:32	26012020	260120	222432	55.560	12.264307	-56.478403	55.610	0.770	-0.380	0.910	55.560	-1.800	1.300																			1580077472.0	0.25	0.46
26/01/2020 22:24:33	26012020	260120	222433	55.460	12.264308	-56.478405	55.500	0.880	0.180	0.650	55.430	-1.100	1.000																			1580077473.0	0.62	1.15
26/01/2020 22:24:34	26012020	260120	222434	55.340	12.264310	-56.478408	55.380	0.690	0.510	0.430	55.340	-0.900	0.800																			1580077474.0	0.81	1.50
26/01/2020 22:24:35	26012020	260120	222435	55.370	12.264312	-56.478412	55.400	0.310	0.410	0.150	55.390	-1.000	0.500																			1580077475.0	0.67	1.24
26/01/2020 22:24:36	26012020	260120	222436	55.490	12.264315	-56.478412	55.500	-0.190	0.080	-0.040	55.500	-1.300	0.300																			1580077476.0	0.46	0.85
26/01/2020 22:24:37	26012020	260120	222437	55.520	12.264315	-56.478410	55.540	-0.670	-0.110	0.040	55.510	-1.500	0.500																			1580077477.0	0.29	0.54
26/01/2020 22:24:38	26012020	260120	222438	55.380	12.264313	-56.478410	55.400	-0.910	-0.000	0.480	55.330	-1.300	1.000																			1580077478.0	0.47	0.87
26/01/2020 22:24:39	26012020	260120	222439	55.090	12.264308	-56.478408	55.120	-0.750	0.090	1.010	55.040	-1.300	1.400																			1580077479.0	0.98	1.81
26/01/2020 22:24:40	26012020	260120	222440	54.850	12.264305	-56.478407	54.900	-0.240	-0.240	1.210	54.820	-1.700	1.500																			1580077480.0	0.96	1.78
26/01/2020 22:24:41	26012020	260120	222441	54.790	12.264303	-56.478405	54.840	0.340	-0.790	1.010	54.800	-2.200	1.300																			1580077481.0	0.40	0.74
26/01/2020 22:24:42	26012020	260120	222442	54.840	12.264307	-56.478403	54.880	0.690	-0.940	0.660	54.840	-2.200	0.900																			1580077482.0	0.60	1.11
26/01/2020 22:24:43	26012020	260120	222443	54.820	12.264308	-56.478405	54.850	0.620	-0.420	0.360	54.810	-1.600	0.700																			1580077483.0	0.57	1.06
26/01/2020 22:24:44	26012020	260120	222444	54.690	12.264310	-56.478408	54.700	0.250	0.360	0.140	54.690	-1.100	0.500																			1580077484.0	0.62	1.15
26/01/2020 22:24:45	26012020	260120	222445	54.510	12.264310	-56.478412	54.510	-0.160	0.770	-0.090	54.480	-0.600	0.200																			1580077485.0	0.74	1.37
26/01/2020 22:24:46	26012020	260120	222446	54.380	12.264310	-56.478413	54.390	-0.320	0.570	-0.250	54.370	-0.900	0.100																			1580077486.0	0.52	0.96
26/01/2020 22:24:47	26012020	260120	222447	54.380	12.264312	-56.478413	54.400	-0.150	-0.040	-0.280	54.390	-1.600	0.100																			1580077487.0	0.38	0.70
26/01/2020 22:24:48	26012020	260120	222448	54.520	12.264313	-56.478412	54.550	0.160	-0.710	-0.270	54.560	-2.200	0.100																			1580077488.0	0.58	1.07
26/01/2020 22:24:49	26012020	260120	222449	54.670	12.264315	-56.478408	54.710	0.360	-0.990	-0.120	54.680	-2.300	0.300																			1580077489.0	0.65	1.20
26/01/2020 22:24:50	26012020	260120	222450	54.610	12.264315	-56.478407	54.650	0.270	-0.630	0.350	54.570	-1.800	0.900																			1580077490.0	0.52	0.96
26/01/2020 22:24:51	26012020	260120	222451	54.350	12.264310	-56.478405	54.390	-0.080	0.080	1.010	54.290	-1.100	1.500																			1580077491.0	0.82	1.52
26/01/2020 22:24:52	26012020	260120	222452	54.100	12.264307	-56.478405	54.170	-0.460	0.600	1.470	54.070	-0.700	1.900																			1580077492.0	0.99	1.83
26/01/2020 22:24:53	26012020	260120	222453	54.070	12.264303	-56.478405	54.170	-0.580	0.600	1.460	54.090	-0.800	1.800																			1580077493.0	0.60	1.11
26/01/2020 22:24:54	26012020	260120	222454	54.260	12.264303	-56.478403	54.350	-0.400	0.210	1.110	54.300	-1.300	1.400																			1580077494.0	0.10	0.19
26/01/2020 22:24:55	26012020	260120	222455	54.450	12.264305	-56.478403	54.530	-0.100	-0.200	0.680	54.480	-1.600	1.000																			1580077495.0	0.45	0.83
26/01/2020 22:24:56	26012020	260120	222456	54.520	12.264308	-56.478403	54.580	0.150	-0.410	0.300	54.520	-1.800	0.700																			1580077496.0	0.45	0.83
26/01/2020 22:24:57	26012020	260120	222457	54.500	12.264310	-56.478405	54.550	0.290	-0.510	-0.050	54.500	-1.900	0.300																			1580077497.0	0.47	0.87
26/01/2020 22:24:58	26012020	260120	222458	54.490	12.264312	-56.478407	54.530	0.390	-0.570	-0.270	54.490	-1.900	0.100																			1580077498.0	0.59	1.09
26/01/2020 22:24:59	26012020	260120	222459	54.530	12.264313	-56.478407	54.580	0.480	-0.580	-0.270	54.550	-1.900	0.100																			1580077499.0	0.52	0.96
26/01/2020 22:25:00	26012020	260120	222500	54.620	12.264315	-56.478407	54.670	0.470	-0.390	-0.010	54.630	-1.700	0.500	1015.00	26.10	26.10	21.10	21.20	-1.00	74.00	74.00	378.00	25.20	346.00	4.00	40.00	3.80	15	3721.00	27.60	27.60	1580077500.0	0.28	0.52
26/01/2020 22:25:01	26012020	260120	222501	54.660	12.264315	-56.478407	54.720	0.320	-0.020	0.500	54.660	-1.300	1.000																			1580077501.0	0.23	0.43
26/01/2020 22:25:02	26012020	260120	222502	54.610	12.264312	-56.478405	54.680	0.030	0.320	1.150	54.590	-1.000	1.700																			1580077502.0	0.74	1.37
26/01/2020 22:25:03	26012020	260120	222503	54.490	12.264307	-56.478403	54.570	-0.300	0.430	1.680	54.470	-0.900	2.100																			1580077503.0	0.95	1.76
26/01/2020 22:25:04	26012020	260120	222504	54.440	12.264305	-56.478402	54.540	-0.520	0.290	1.850	54.440	-1.100	2.200																			1580077504.0	0.69	1.28
26/01/2020 22:25:05	26012020	260120	222505	54.510	12.264305	-56.478400	54.610	-0.540	0.020	1.620	54.530	-1.400	1.900																			1580077505.0	0.21	0.39
26/01/2020 22:25:06	26012020	260120	222506	54.660	12.264307	-56.478400	54.760	-0.360	-0.210	1.200	54.690	-1.600	1.500																			1580077506.0	0.37	0.69
26/01/2020 22:25:07	26012020	260120	222507	54.810	12.264308	-56.478402	54.900	-0.130	-0.250	0.720	54.840	-1.600	1.000																			1580077507.0	0.47	0.87
26/01/2020 22:25:08	26012020	260120	222508	54.920	12.264310	-56.478403	54.980	0.020	-0.180	0.190	54.930	-1.500	0.500																			1580077508.0	0.52	0.96
26/01/2020 22:25:09	26012020	260120	222509	54.890	12.264312	-56.478405	54.920	0.110	-0.120	-0.230	54.870	-1.500	0.100																			1580077509.0	0.63	1.17
26/01/2020 22:25:10	26012020	260120	222510	54.750	12.264313	-56.478408	54.750	0.190	-0.170	-0.410	54.750	-1.500	-0.000																			1580077510.0	0.56	1.04
26/01/2020 22:25:11	26012020	260120	222511	54.580	12.264315	-56.478408	54.600	0.280	-0.380	-0.370	54.550	-1.800	0.000																			1580077511.0	0.36	0.67
26/01/2020 22:25:12	26012020	260120	222512	54.530	12.264317	-56.478408	54.560	0.340	-0.650	-0.270	54.540	-2.100	0.100																			1580077512.0	0.37	0.69
26/01/2020 22:25:13	26012020	260120	222513	54.700	12.264318	-56.478407	54.750	0.310	-0.760	-0.200	54.750	-2.100	0.200																			1580077513.0	0.47	0.87
26/01/2020 22:25:14	26012020	260120	222514	54.980	12.264318	-56.478405	55.040	0.160	-0.400	-0.030	55.030	-1.600	0.400																			1580077514.0	0.35	0.65
26/01/2020 22:25:15	26012020	260120	222515	55.160	12.264317	-56.478405	55.220	-0.080	0.360	0.380	55.170	-0.800	0.900																			1580077515.0	0.36	0.67
26/01/2020 22:25:16	26012020	260120	222516	55.170	12.264313	-56.478405	55.230	-0.310	0.930	0.920	55.160	-0.400	1.400																			1580077516.0	0.94	1.74
26/01/2020 22:25:17	26012020	260120	222517	55.150	12.264308	-56.478405	55.220	-0.430	0.790	1.270	55.170	-0.700	1.700																			1580077517.0	0.88	1.63
26/01/2020 22:25:18	26012020	260120	222518	55.250	12.264308	-56.478403	55.330	-0.370	0.080	1.230	55.280	-1.500	1.500																			1580077518.0	0.36	0.67
26/01/2020 22:25:19	26012020	260120	222519	55.390	12.264312	-56.478402	55.470	-0.150	-0.610	0.950	55.420	-2.100	1.300																			1580077519.0	0.66	1.22
26/01/2020 22:25:20	26012020	260120	222520	55.500	12.264315	-56.478400	55.570	0.090	-0.860	0.680	55.530	-2.200	1.000																			1580077520.0	0.71	1.31
26/01/2020 22:25:21	26012020	260120	222521	55.610	12.264317	-56.478402	55.670	0.230	-0.650	0.500	55.620	-1.900	0.800																			1580077521.0	0.40	0.74
26/01/2020 22:25:22	26012020	260120	222522	55.680	12.264315	-56.478403	55.730	0.210	-0.220	0.420	55.680	-1.600	0.800																			1580077522.0	0.30	0.56
26/01/2020 22:25:23	26012020	260120	222523	55.720	12.264315	-56.478405	55.760	0.080	0.150	0.360	55.730	-1.200	0.700																			1580077523.0	0.39	0.72
26/01/2020 22:25:24	26012020	260120	222524	55.760	12.264313	-56.478405	55.800	-0.060	0.230	0.250	55.760	-1.100	0.600																			1580077524.0	0.25	0.46
26/01/2020 22:25:25	26012020	260120	222525	55.780	12.264315	-56.478405	55.810	-0.120	0.010	0.110	55.780	-1.400	0.500																			1580077525.0	0.18	0.33
26/01/2020 22:25:26	26012020	260120	222526	55.790	12.264317	-56.478405	55.820	-0.090	-0.300	0.030	55.800	-1.700	0.400																			1580077526.0	0.44	0.81
26/01/2020 22:25:27	26012020	260120	222527	55.850	12.264318	-56.478405	55.890	0.010	-0.450	0.060	55.870	-1.800	0.500																			1580077527.0	0.46	0.85
26/01/2020 22:25:28	26012020	260120	222528	55.940	12.264318	-56.478403	55.980	0.080	-0.300	0.240	55.960	-1.600	0.700																			1580077528.0	0.20	0.37
26/01/2020 22:25:29	26012020	260120	222529	55.990	12.264317	-56.478403	56.010	0.000	0.030	0.590	55.980	-1.300	1.000																			1580077529.0	0.38	0.70
26/01/2020 22:25:30	26012020	260120	222530	55.920	12.264315	-56.478403	55.950	-0.160	0.350	0.900	55.900	-1.000	1.300																			1580077530.0	0.63	1.17
26/01/2020 22:25:31	26012020	260120	222531	55.780	12.264312	-56.478403	55.820	-0.240	0.400	1.030	55.750	-1.000	1.400																			1580077531.0	0.53	0.98
26/01/2020 22:25:32	26012020	260120	222532	55.610	12.264312	-56.478403	55.650	-0.080	0.070	0.960	55.580	-1.400	1.300																			1580077532.0	0.11	0.20
26/01/2020 22:25:33	26012020	260120	222533	55.480	12.264313	-56.478403	55.500	0.230	-0.520	0.750	55.450	-2.000	1.100																			1580077533.0	0.41	0.76
26/01/2020 22:25:34	26012020	260120	222534	55.410	12.264317	-56.478402	55.450	0.460	-0.950	0.460	55.400	-2.400	0.800																			1580077534.0	0.86	1.59
26/01/2020 22:25:35	26012020	260120	222535	55.430	12.264322	-56.478402	55.460	0.420	-0.860	0.150	55.440	-2.100	0.500																			1580077535.0	0.94	1.74
26/01/2020 22:25:36	26012020	260120	222536	55.530	12.264325	-56.478403	55.550	0.120	-0.210	-0.080	55.530	-1.700	0.300																			1580077536.0	0.70	1.30
26/01/2020 22:25:37	26012020	260120	222537	55.670	12.264323	-56.478407	55.690	-0.280	0.580	-0.070	55.690	-0.600	0.400																			1580077537.0	0.55	1.02
26/01/2020 22:25:38	26012020	260120	222538	55.760	12.264322	-56.478408	55.780	-0.590	1.030	0.190	55.770	-0.300	0.600																			1580077538.0	0.75	1.39
26/01/2020 22:25:39	26012020	260120	222539	55.760	12.264317	-56.478408	55.790	-0.650	0.800	0.550	55.750	-0.700	1.000																			1580077539.0	0.95	1.76
26/01/2020 22:25:40	26012020	260120	222540	55.680	12.264313	-56.478405	55.720	-0.400	-0.080	0.760	55.670	-1.700	1.200																			1580077540.0	0.89	1.65
26/01/2020 22:25:41	26012020	260120	222541	55.570	12.264313	-56.478400	55.610	0.050	-1.080	0.790	55.540	-2.600	1.200																			1580077541.0	0.85	1.57
26/01/2020 22:25:42	26012020	260120	222542	55.400	12.264317	-56.478398	55.440	0.480	-1.460	0.740	55.370	-2.800	1.100																			1580077542.0	0.88	1.63
26/01/2020 22:25:43	26012020	260120	222543	55.230	12.264320	-56.478398	55.270	0.630	-0.960	0.590	55.210	-2.100	0.900																			1580077543.0	0.62	1.15
26/01/2020 22:25:44	26012020	260120	222544	55.160	12.264322	-56.478402	55.210	0.470	-0.010	0.350	55.160	-1.200	0.700																			1580077544.0	0.78	1.44
26/01/2020 22:25:45	26012020	260120	222545	55.250	12.264322	-56.478405	55.300	0.130	0.750	0.090	55.280	-0.500	0.400																			1580077545.0	0.93	1.72
26/01/2020 22:25:46	26012020	260120	222546	55.490	12.264322	-56.478408	55.560	-0.190	0.860	-0.160	55.490	-0.500	0.200																			1580077546.0	0.62	1.15
26/01/2020 22:25:47	26012020	260120	222547	55.800	12.264322	-56.478408	55.870	-0.340	0.410	-0.330	55.850	-1.100	0.000																			1580077547.0	0.16	0.30
26/01/2020 22:25:48	26012020	260120	222548	55.980	12.264323	-56.478407	56.030	-0.290	-0.180	-0.240	55.980	-1.500	0.100																			1580077548.0	0.44	0.81
26/01/2020 22:25:49	26012020	260120	222549	55.830	12.264323	-56.478405	55.880	-0.130	-0.520	0.210	55.770	-1.900	0.700																			1580077549.0	0.53	0.98
26/01/2020 22:25:50	26012020	260120	222550	55.480	12.264322	-56.478402	55.540	-0.010	-0.580	0.840	55.420	-1.900	1.300																			1580077550.0	0.61	1.13
26/01/2020 22:25:51	26012020	260120	222551	55.260	12.264318	-56.478402	55.340	0.030	-0.540	1.260	55.250	-1.900	1.700																			1580077551.0	0.59	1.09
26/01/2020 22:25:52	26012020	260120	222552	55.310	12.264317	-56.478400	55.400	0.030	-0.420	1.380	55.340	-1.700	1.700																			1580077552.0	0.33	0.61
26/01/2020 22:25:53	26012020	260120	222553	55.490	12.264317	-56.478400	55.580	0.040	-0.160	1.320	55.520	-1.500	1.700																			1580077553.0	0.18	0.33
26/01/2020 22:25:54	26012020	260120	222554	55.590	12.264315	-56.478400	55.660	0.060	0.150	1.120	55.590	-1.200	1.400																			1580077554.0	0.19	0.35
26/01/2020 22:25:55	26012020	260120	222555	55.540	12.264315	-56.478402	55.610	0.060	0.330	0.780	55.530	-1.000	1.100																			1580077555.0	0.22	0.41
26/01/2020 22:25:56	26012020	260120	222556	55.430	12.264317	-56.478403	55.480	0.060	0.270	0.310	55.410	-1.100	0.600																			1580077556.0	0.43	0.80
26/01/2020 22:25:57	26012020	260120	222557	55.340	12.264320	-56.478405	55.390	0.110	0.030	-0.150	55.330	-1.400	0.100																			1580077557.0	0.77	1.43
26/01/2020 22:25:58	26012020	260120	222558	55.290	12.264323	-56.478407	55.330	0.200	-0.300	-0.450	55.280	-1.700	-0.100																			1580077558.0	0.82	1.52
26/01/2020 22:25:59	26012020	260120	222559	55.210	12.264327	-56.478407	55.240	0.230	-0.580	-0.480	55.170	-2.000	-0.100																			1580077559.0	0.60	1.11
26/01/2020 22:26:00	26012020	260120	222600	55.060	12.264327	-56.478407	55.080	0.100	-0.580	-0.240	55.060	-2.000	0.100	1014.90	26.10	26.10	21.00	21.10	-1.00	73.00	73.00	378.00	25.20	3.00	4.30	58.00	4.10	15	3691.00	27.60	27.60	1580077560.0	0.28	0.52
26/01/2020 22:26:01	26012020	260120	222601	54.950	12.264327	-56.478405	55.000	-0.140	-0.320	0.100	54.940	-1.600	0.500																			1580077561.0	0.25	0.46
26/01/2020 22:26:02	26012020	260120	222602	54.950	12.264325	-56.478405	55.030	-0.330	-0.000	0.370	54.960	-1.300	0.800																			1580077562.0	0.38	0.70
26/01/2020 22:26:03	26012020	260120	222603	54.970	12.264323	-56.478405	55.040	-0.370	0.300	0.640	54.970	-1.100	1.000																			1580077563.0	0.36	0.67
26/01/2020 22:26:04	26012020	260120	222604	54.820	12.264322	-56.478405	54.880	-0.250	0.510	1.010	54.770	-0.900	1.500																			1580077564.0	0.42	0.78
26/01/2020 22:26:05	26012020	260120	222605	54.590	12.264318	-56.478403	54.660	-0.060	0.380	1.300	54.560	-1.100	1.700																			1580077565.0	0.49	0.91
26/01/2020 22:26:06	26012020	260120	222606	54.540	12.264318	-56.478403	54.630	0.160	-0.190	1.180	54.560	-1.700	1.500																			1580077566.0	0.27	0.50
26/01/2020 22:26:07	26012020	260120	222607	54.720	12.264320	-56.478402	54.820	0.360	-0.840	0.720	54.760	-2.300	1.000																			1580077567.0	0.56	1.04
26/01/2020 22:26:08	26012020	260120	222608	54.880	12.264323	-56.478400	54.960	0.430	-0.960	0.300	54.890	-2.300	0.600																			1580077568.0	0.76	1.41
26/01/2020 22:26:09	26012020	260120	222609	54.810	12.264325	-56.478402	54.850	0.260	-0.450	0.080	54.760	-1.700	0.400																			1580077569.0	0.41	0.76
26/01/2020 22:26:10	26012020	260120	222610	54.500	12.264325	-56.478403	54.540	-0.040	0.230	0.040	54.430	-1.000	0.400																			1580077570.0	0.54	1.00
26/01/2020 22:26:11	26012020	260120	222611	54.160	12.264325	-56.478407	54.200	-0.230	0.500	0.030	54.110	-0.900	0.400																			1580077571.0	0.62	1.15
26/01/2020 22:26:12	26012020	260120	222612	54.010	12.264327	-56.478408	54.070	-0.180	0.180	-0.090	54.010	-1.100	0.300																			1580077572.0	0.36	0.67
26/01/2020 22:26:13	26012020	260120	222613	54.090	12.264330	-56.478407	54.150	0.020	-0.330	-0.200	54.130	-1.800	0.200																			1580077573.0	0.58	1.07
26/01/2020 22:26:14	26012020	260120	222614	54.290	12.264332	-56.478405	54.350	0.100	-0.480	-0.170	54.290	-1.900	0.200																			1580077574.0	0.58	1.07
26/01/2020 22:26:15	26012020	260120	222615	54.460	12.264330	-56.478403	54.520	-0.020	-0.180	-0.020	54.480	-1.400	0.400																			1580077575.0	0.25	0.46
26/01/2020 22:26:16	26012020	260120	222616	54.480	12.264328	-56.478403	54.550	-0.240	0.270	0.260	54.480	-1.200	0.600																			1580077576.0	0.46	0.85
26/01/2020 22:26:17	26012020	260120	222617	54.380	12.264325	-56.478405	54.450	-0.350	0.430	0.590	54.360	-1.000	1.000																			1580077577.0	0.61	1.13
26/01/2020 22:26:18	26012020	260120	222618	54.260	12.264325	-56.478405	54.330	-0.260	0.200	0.830	54.230	-1.300	1.200																			1580077578.0	0.33	0.61
26/01/2020 22:26:19	26012020	260120	222619	54.170	12.264325	-56.478405	54.260	0.020	-0.250	1.000	54.170	-1.700	1.400																			1580077579.0	0.13	0.24
26/01/2020 22:26:20	26012020	260120	222620	54.170	12.264325	-56.478403	54.280	0.320	-0.670	1.080	54.180	-2.100	1.400																			1580077580.0	0.30	0.56
26/01/2020 22:26:21	26012020	260120	222621	54.240	12.264327	-56.478402	54.360	0.430	-0.850	0.990	54.250	-2.200	1.300																			1580077581.0	0.33	0.61
26/01/2020 22:26:22	26012020	260120	222622	54.270	12.264327	-56.478402	54.380	0.310	-0.640	0.840	54.270	-1.900	1.200																			1580077582.0	0.18	0.33
26/01/2020 22:26:23	26012020	260120	222623	54.250	12.264327	-56.478402	54.350	0.100	-0.200	0.700	54.250	-1.500	1.000																			1580077583.0	0.21	0.39
26/01/2020 22:26:24	26012020	260120	222624	54.180	12.264327	-56.478403	54.270	-0.030	0.150	0.560	54.180	-1.300	1.000																			1580077584.0	0.27	0.50
26/01/2020 22:26:25	26012020	260120	222625	54.040	12.264327	-56.478405	54.110	-0.040	0.270	0.420	54.020	-1.100	0.800																			1580077585.0	0.19	0.35
26/01/2020 22:26:26	26012020	260120	222626	53.960	12.264328	-56.478405	54.030	0.030	0.160	0.160	53.960	-1.200	0.600																			1580077586.0	0.33	0.61
26/01/2020 22:26:27	26012020	260120	222627	53.990	12.264332	-56.478405	54.070	0.060	0.030	-0.150	54.000	-1.400	0.200																			1580077587.0	0.54	1.00
26/01/2020 22:26:28	26012020	260120	222628	54.080	12.264333	-56.478405	54.160	-0.030	0.040	-0.360	54.100	-1.300	0.000																			1580077588.0	0.58	1.07
26/01/2020 22:26:29	26012020	260120	222629	54.150	12.264335	-56.478407	54.230	-0.210	0.160	-0.300	54.150	-1.200	0.100																			1580077589.0	0.39	0.72
26/01/2020 22:26:30	26012020	260120	222630	54.140	12.264333	-56.478408	54.220	-0.410	0.250	0.010	54.130	-1.100	0.500																			1580077590.0	0.27	0.50
26/01/2020 22:26:31	26012020	260120	222631	54.080	12.264332	-56.478408	54.160	-0.510	0.150	0.450	54.060	-1.300	0.900																			1580077591.0	0.47	0.87
26/01/2020 22:26:32	26012020	260120	222632	54.030	12.264330	-56.478408	54.120	-0.400	-0.210	0.840	54.010	-1.700	1.300																			1580077592.0	0.54	1.00
26/01/2020 22:26:33	26012020	260120	222633	54.010	12.264328	-56.478407	54.120	-0.070	-0.670	1.120	54.010	-2.100	1.500																			1580077593.0	0.47	0.87
26/01/2020 22:26:34	26012020	260120	222634	54.010	12.264328	-56.478403	54.130	0.350	-0.980	1.340	54.010	-2.400	1.800																			1580077594.0	0.47	0.87
26/01/2020 22:26:35	26012020	260120	222635	53.950	12.264328	-56.478402	54.050	0.660	-0.900	1.530	53.930	-2.200	1.900																			1580077595.0	0.37	0.69
26/01/2020 22:26:36	26012020	260120	222636	53.810	12.264328	-56.478402	53.910	0.750	-0.470	1.530	53.810	-1.900	1.900																			1580077596.0	0.09	0.17
26/01/2020 22:26:37	26012020	260120	222637	53.710	12.264328	-56.478403	53.820	0.610	-0.000	1.170	53.710	-1.300	1.400																			1580077597.0	0.32	0.59
26/01/2020 22:26:38	26012020	260120	222638	53.690	12.264330	-56.478405	53.790	0.300	0.300	0.620	53.690	-1.100	1.100																			1580077598.0	0.73	1.35
26/01/2020 22:26:39	26012020	260120	222639	53.660	12.264333	-56.478408	53.740	-0.110	0.390	0.190	53.660	-1.000	0.500																			1580077599.0	0.85	1.57
26/01/2020 22:26:40	26012020	260120	222640	53.640	12.264337	-56.478408	53.720	-0.510	0.330	-0.120	53.640	-1.100	0.200																			1580077600.0	0.71	1.31
26/01/2020 22:26:41	26012020	260120	222641	53.570	12.264338	-56.478410	53.620	-0.790	0.370	-0.250	53.540	-1.000	0.100																			1580077601.0	0.47	0.87
26/01/2020 22:26:42	26012020	260120	222642	53.420	12.264338	-56.478410	53.470	-0.870	0.500	-0.150	53.390	-0.900	0.300																			1580077602.0	0.17	0.31
26/01/2020 22:26:43	26012020	260120	222643	53.340	12.264337	-56.478412	53.420	-0.690	0.400	-0.010	53.350	-1.100	0.400																			1580077603.0	0.50	0.93
26/01/2020 22:26:44	26012020	260120	222644	53.470	12.264335	-56.478412	53.570	-0.270	-0.130	-0.090	53.520	-1.700	0.200																			1580077604.0	0.34	0.63
26/01/2020 22:26:45	26012020	260120	222645	53.700	12.264337	-56.478412	53.780	0.280	-0.780	-0.250	53.730	-2.300	0.100																			1580077605.0	0.23	0.43
26/01/2020 22:26:46	26012020	260120	222646	53.740	12.264338	-56.478412	53.810	0.730	-1.120	-0.140	53.710	-2.500	0.300																			1580077606.0	0.47	0.87
26/01/2020 22:26:47	26012020	260120	222647	53.580	12.264340	-56.478412	53.660	0.850	-1.040	0.240	53.540	-2.400	0.700																			1580077607.0	0.23	0.43
26/01/2020 22:26:48	26012020	260120	222648	53.450	12.264340	-56.478413	53.560	0.610	-0.720	0.650	53.440	-2.000	1.100																			1580077608.0	0.14	0.26
26/01/2020 22:26:49	26012020	260120	222649	53.480	12.264340	-56.478413	53.590	0.220	-0.320	0.970	53.490	-1.600	1.400																			1580077609.0	0.11	0.20
26/01/2020 22:26:50	26012020	260120	222650	53.550	12.264340	-56.478413	53.680	-0.120	0.140	1.280	53.550	-1.300	1.600																			1580077610.0	0.06	0.11
26/01/2020 22:26:51	26012020	260120	222651	53.630	12.264337	-56.478412	53.760	-0.300	0.570	1.570	53.650	-0.700	2.000																			1580077611.0	0.44	0.81
26/01/2020 22:26:52	26012020	260120	222652	53.760	12.264335	-56.478412	53.890	-0.350	0.730	1.570	53.790	-0.700	1.900																			1580077612.0	0.75	1.39
26/01/2020 22:26:53	26012020	260120	222653	53.950	12.264332	-56.478410	54.080	-0.320	0.580	1.160	53.990	-0.900	1.400																			1580077613.0	0.56	1.04
26/01/2020 22:26:54	26012020	260120	222654	54.070	12.264333	-56.478410	54.170	-0.280	0.330	0.460	54.080	-1.100	0.700																			1580077614.0	0.17	0.31
26/01/2020 22:26:55	26012020	260120	222655	54.050	12.264337	-56.478412	54.120	-0.210	0.090	-0.300	54.040	-1.400	-0.100																			1580077615.0	0.90	1.67
26/01/2020 22:26:56	26012020	260120	222656	54.000	12.264342	-56.478417	54.060	-0.070	-0.200	-0.980	54.010	-1.700	-0.700																			1580077616.0	1.46	2.70
26/01/2020 22:26:57	26012020	260120	222657	54.100	12.264348	-56.478420	54.160	0.130	-0.590	-1.460	54.150	-2.100	-1.100																			1580077617.0	1.57	2.91
26/01/2020 22:26:58	26012020	260120	222658	54.390	12.264352	-56.478423	54.450	0.270	-0.900	-1.570	54.470	-2.300	-1.100																			1580077618.0	1.19	2.20
26/01/2020 22:26:59	26012020	260120	222659	54.730	12.264355	-56.478423	54.790	0.240	-0.850	-1.120	54.780	-2.200	-0.600																			1580077619.0	0.37	0.69
26/01/2020 22:27:00	26012020	260120	222700	54.920	12.264352	-56.478422	54.980	0.070	-0.450	-0.160	54.930	-1.700	0.500	1015.00	26.00	26.10	20.70	20.80	-1.00	72.00	72.00	378.00	25.20	5.00	4.10	60.00	3.90	15	3768.00	27.60	27.70	1580077620.0	0.70	1.30
26/01/2020 22:27:01	26012020	260120	222701	54.900	12.264345	-56.478418	54.990	-0.090	-0.000	1.000	54.890	-1.300	1.600																			1580077621.0	1.48	2.74
26/01/2020 22:27:02	26012020	260120	222702	54.850	12.264338	-56.478413	54.940	-0.100	0.160	1.910	54.850	-1.200	2.200																			1580077622.0	1.61	2.98
26/01/2020 22:27:03	26012020	260120	222703	54.890	12.264335	-56.478410	55.010	0.080	0.050	2.340	54.910	-1.300	2.700																			1580077623.0	1.16	2.15
26/01/2020 22:27:04	26012020	260120	222704	54.990	12.264335	-56.478407	55.110	0.260	-0.010	2.310	54.990	-1.400	2.700																			1580077624.0	0.66	1.22
26/01/2020 22:27:05	26012020	260120	222705	55.060	12.264337	-56.478407	55.180	0.260	0.090	1.810	55.070	-1.300	2.000																			1580077625.0	0.39	0.72
26/01/2020 22:27:06	26012020	260120	222706	55.120	12.264340	-56.478408	55.230	0.030	0.230	0.880	55.140	-1.100	1.000																			1580077626.0	0.86	1.59
26/01/2020 22:27:07	26012020	260120	222707	55.210	12.264345	-56.478412	55.280	-0.270	0.270	-0.170	55.230	-1.100	0.000																			1580077627.0	1.39	2.57
26/01/2020 22:27:08	26012020	260120	222708	55.270	12.264350	-56.478417	55.320	-0.440	0.190	-0.960	55.270	-1.200	-0.700																			1580077628.0	1.47	2.72
26/01/2020 22:27:09	26012020	260120	222709	55.280	12.264355	-56.478418	55.320	-0.380	0.040	-1.340	55.290	-1.400	-1.000																			1580077629.0	1.03	1.91
26/01/2020 22:27:10	26012020	260120	222710	55.330	12.264357	-56.478420	55.360	-0.150	-0.220	-1.410	55.350	-1.700	-1.000																			1580077630.0	0.35	0.65
26/01/2020 22:27:11	26012020	260120	222711	55.430	12.264355	-56.478418	55.460	0.090	-0.580	-1.300	55.450	-2.000	-0.900																			1580077631.0	0.20	0.37
26/01/2020 22:27:12	26012020	260120	222712	55.500	12.264355	-56.478417	55.540	0.220	-0.850	-0.960	55.500	-2.200	-0.500																			1580077632.0	0.44	0.81
26/01/2020 22:27:13	26012020	260120	222713	55.450	12.264355	-56.478415	55.510	0.260	-0.820	-0.310	55.430	-2.100	0.300																			1580077633.0	0.49	0.91
26/01/2020 22:27:14	26012020	260120	222714	55.320	12.264353	-56.478413	55.380	0.260	-0.520	0.510	55.320	-1.900	0.800																			1580077634.0	0.50	0.93
26/01/2020 22:27:15	26012020	260120	222715	55.220	12.264352	-56.478412	55.300	0.250	-0.110	1.240	55.210	-1.400	1.800																			1580077635.0	0.63	1.17
26/01/2020 22:27:16	26012020	260120	222716	55.180	12.264348	-56.478408	55.270	0.160	0.260	1.770	55.180	-1.200	2.100																			1580077636.0	0.70	1.30
26/01/2020 22:27:17	26012020	260120	222717	55.160	12.264347	-56.478407	55.260	-0.030	0.560	2.060	55.160	-0.800	2.500																			1580077637.0	0.62	1.15
26/01/2020 22:27:18	26012020	260120	222718	55.160	12.264345	-56.478407	55.280	-0.220	0.720	2.010	55.170	-0.700	2.300																			1580077638.0	0.44	0.81
26/01/2020 22:27:19	26012020	260120	222719	55.220	12.264343	-56.478407	55.330	-0.290	0.530	1.460	55.240	-0.900	1.600																			1580077639.0	0.14	0.26
26/01/2020 22:27:20	26012020	260120	222720	55.330	12.264347	-56.478407	55.420	-0.220	0.010	0.540	55.350	-1.500	0.700																			1580077640.0	0.54	1.00
26/01/2020 22:27:21	26012020	260120	222721	55.410	12.264352	-56.478408	55.470	-0.060	-0.560	-0.370	55.410	-2.000	-0.200																			1580077641.0	1.11	2.06
26/01/2020 22:27:22	26012020	260120	222722	55.370	12.264357	-56.478410	55.410	0.090	-0.880	-0.990	55.340	-2.300	-0.700																			1580077642.0	1.21	2.24
26/01/2020 22:27:23	26012020	260120	222723	55.230	12.264360	-56.478412	55.260	0.160	-0.860	-1.270	55.200	-2.200	-0.900																			1580077643.0	0.92	1.70
26/01/2020 22:27:24	26012020	260120	222724	55.110	12.264363	-56.478413	55.150	0.160	-0.590	-1.230	55.100	-1.900	-0.800																			1580077644.0	0.55	1.02
26/01/2020 22:27:25	26012020	260120	222725	55.120	12.264363	-56.478413	55.170	0.100	-0.240	-0.930	55.140	-1.500	-0.400																			1580077645.0	0.14	0.26
26/01/2020 22:27:26	26012020	260120	222726	55.260	12.264362	-56.478413	55.320	0.010	0.150	-0.360	55.260	-1.300	-0.100																			1580077646.0	0.37	0.69
26/01/2020 22:27:27	26012020	260120	222727	55.390	12.264358	-56.478412	55.470	-0.130	0.560	0.480	55.410	-0.800	1.100																			1580077647.0	0.93	1.72
26/01/2020 22:27:28	26012020	260120	222728	55.440	12.264352	-56.478408	55.520	-0.240	0.700	1.350	55.440	-0.700	1.600																			1580077648.0	1.33	2.46
26/01/2020 22:27:29	26012020	260120	222729	55.480	12.264347	-56.478405	55.580	-0.180	0.300	1.880	55.490	-1.200	2.300																			1580077649.0	1.27	2.35
26/01/2020 22:27:30	26012020	260120	222730	55.530	12.264345	-56.478402	55.620	0.060	-0.450	1.960	55.530	-2.000	2.300																			1580077650.0	0.79	1.46
26/01/2020 22:27:31	26012020	260120	222731	55.440	12.264348	-56.478400	55.510	0.340	-0.930	1.830	55.400	-2.300	2.200																			1580077651.0	0.70	1.30
26/01/2020 22:27:32	26012020	260120	222732	55.220	12.264350	-56.478400	55.270	0.480	-0.870	1.630	55.170	-2.200	2.000																			1580077652.0	0.70	1.30
26/01/2020 22:27:33	26012020	260120	222733	55.040	12.264353	-56.478402	55.100	0.410	-0.450	1.320	55.030	-1.700	1.600																			1580077653.0	0.66	1.22
26/01/2020 22:27:34	26012020	260120	222734	55.060	12.264355	-56.478403	55.130	0.120	0.060	0.770	55.090	-1.200	1.000																			1580077654.0	0.64	1.19
26/01/2020 22:27:35	26012020	260120	222735	55.230	12.264357	-56.478407	55.280	-0.310	0.560	0.090	55.270	-0.700	0.300																			1580077655.0	0.65	1.20
26/01/2020 22:27:36	26012020	260120	222736	55.440	12.264358	-56.478408	55.470	-0.720	0.820	-0.580	55.480	-0.600	-0.300																			1580077656.0	0.63	1.17
26/01/2020 22:27:37	26012020	260120	222737	55.660	12.264358	-56.478412	55.680	-0.850	0.610	-1.150	55.700	-0.900	-0.900																			1580077657.0	0.55	1.02
26/01/2020 22:27:38	26012020	260120	222738	55.790	12.264360	-56.478412	55.800	-0.560	-0.030	-1.370	55.790	-1.300	-1.000																			1580077658.0	0.44	0.81
26/01/2020 22:27:39	26012020	260120	222739	55.740	12.264362	-56.478410	55.750	0.060	-0.770	-1.110	55.720	-2.300	-0.600																			1580077659.0	0.47	0.87
26/01/2020 22:27:40	26012020	260120	222740	55.600	12.264362	-56.478407	55.630	0.660	-1.240	-0.510	55.600	-2.600	-0.200																			1580077660.0	0.66	1.22
26/01/2020 22:27:41	26012020	260120	222741	55.500	12.264362	-56.478403	55.570	0.890	-1.210	0.130	55.490	-2.500	0.600																			1580077661.0	0.73	1.35
26/01/2020 22:27:42	26012020	260120	222742	55.510	12.264360	-56.478402	55.590	0.680	-0.630	0.720	55.520	-1.800	1.200																			1580077662.0	0.59	1.09
26/01/2020 22:27:43	26012020	260120	222743	55.590	12.264357	-56.478402	55.690	0.210	0.260	1.230	55.610	-0.900	1.700																			1580077663.0	0.60	1.11
26/01/2020 22:27:44	26012020	260120	222744	55.700	12.264353	-56.478403	55.800	-0.230	0.940	1.620	55.710	-0.400	2.000																			1580077664.0	0.74	1.37
26/01/2020 22:27:45	26012020	260120	222745	55.750	12.264350	-56.478403	55.850	-0.470	1.020	1.780	55.760	-0.400	2.100																			1580077665.0	0.61	1.13
26/01/2020 22:27:46	26012020	260120	222746	55.720	12.264350	-56.478402	55.810	-0.510	0.560	1.670	55.710	-1.000	2.000																			1580077666.0	0.36	0.67
26/01/2020 22:27:47	26012020	260120	222747	55.650	12.264350	-56.478400	55.730	-0.410	-0.110	1.370	55.640	-1.600	1.600																			1580077667.0	0.41	0.76
26/01/2020 22:27:48	26012020	260120	222748	55.660	12.264353	-56.478400	55.750	-0.210	-0.650	0.840	55.680	-2.100	1.100																			1580077668.0	0.54	1.00
26/01/2020 22:27:49	26012020	260120	222749	55.870	12.264357	-56.478400	55.940	0.090	-0.910	0.030	55.930	-2.300	0.200																			1580077669.0	0.78	1.44
26/01/2020 22:27:50	26012020	260120	222750	56.160	12.264360	-56.478402	56.220	0.380	-0.830	-0.760	56.200	-2.100	-0.500																			1580077670.0	1.00	1.85
26/01/2020 22:27:51	26012020	260120	222751	56.270	12.264363	-56.478405	56.320	0.460	-0.390	-1.110	56.270	-1.600	-0.700																			1580077671.0	0.86	1.59
26/01/2020 22:27:52	26012020	260120	222752	56.220	12.264363	-56.478408	56.270	0.250	0.120	-0.990	56.220	-1.300	-0.700																			1580077672.0	0.53	0.98
26/01/2020 22:27:53	26012020	260120	222753	56.210	12.264363	-56.478408	56.300	-0.090	0.320	-0.620	56.220	-1.100	-0.100																			1580077673.0	0.36	0.67
26/01/2020 22:27:54	26012020	260120	222754	56.280	12.264362	-56.478408	56.380	-0.350	0.230	-0.020	56.280	-1.100	0.300																			1580077674.0	0.32	0.59
26/01/2020 22:27:55	26012020	260120	222755	56.340	12.264358	-56.478405	56.460	-0.370	0.010	0.720	56.340	-1.400	1.300																			1580077675.0	0.74	1.37
26/01/2020 22:27:56	26012020	260120	222756	56.330	12.264355	-56.478402	56.460	-0.230	-0.170	1.450	56.320	-1.600	1.900																			1580077676.0	1.13	2.09
26/01/2020 22:27:57	26012020	260120	222757	56.250	12.264352	-56.478398	56.400	-0.040	-0.240	1.970	56.230	-1.600	2.400																			1580077677.0	1.20	2.22
26/01/2020 22:27:58	26012020	260120	222758	56.220	12.264347	-56.478397	56.380	0.160	-0.290	2.080	56.230	-1.700	2.400																			1580077678.0	0.89	1.65
26/01/2020 22:27:59	26012020	260120	222759	56.370	12.264347	-56.478395	56.540	0.350	-0.380	1.680	56.420	-1.800	1.900																			1580077679.0	0.22	0.41
26/01/2020 22:28:00	26012020	260120	222800	56.610	12.264348	-56.478397	56.760	0.470	-0.370	0.960	56.650	-1.700	1.200	1015.00	26.00	26.10	20.70	20.80	-1.00	72.00	72.00	378.00	25.20	358.00	4.00	53.00	3.70	15	3848.00	27.60	27.70	1580077680.0	0.55	1.02
26/01/2020 22:28:01	26012020	260120	222801	56.740	12.264353	-56.478398	56.870	0.360	-0.110	0.150	56.760	-1.400	0.300																			1580077681.0	1.06	1.96
26/01/2020 22:28:02	26012020	260120	222802	56.760	12.264358	-56.478403	56.860	0.040	0.220	-0.600	56.760	-1.100	-0.400																			1580077682.0	1.36	2.52
26/01/2020 22:28:03	26012020	260120	222803	56.770	12.264362	-56.478408	56.850	-0.280	0.370	-1.090	56.770	-1.000	-0.800																			1580077683.0	1.32	2.44
26/01/2020 22:28:04	26012020	260120	222804	56.820	12.264365	-56.478410	56.910	-0.400	0.210	-1.120	56.820	-1.100	-0.800																			1580077684.0	0.74	1.37
26/01/2020 22:28:05	26012020	260120	222805	56.900	12.264363	-56.478410	57.010	-0.300	-0.120	-0.700	56.920	-1.600	-0.200																			1580077685.0	0.19	0.35
26/01/2020 22:28:06	26012020	260120	222806	56.980	12.264360	-56.478407	57.100	-0.140	-0.410	-0.080	56.990	-1.800	0.400																			1580077686.0	0.96	1.78
26/01/2020 22:28:07	26012020	260120	222807	56.980	12.264357	-56.478402	57.110	-0.090	-0.480	0.540	56.970	-1.800	1.000																			1580077687.0	1.24	2.30
26/01/2020 22:28:08	26012020	260120	222808	56.910	12.264352	-56.478400	57.070	-0.140	-0.340	1.050	56.900	-1.700	1.500																			1580077688.0	1.01	1.87
26/01/2020 22:28:09	26012020	260120	222809	56.900	12.264350	-56.478400	57.070	-0.140	-0.230	1.300	56.920	-1.600	1.700																			1580077689.0	0.56	1.04
26/01/2020 22:28:10	26012020	260120	222810	57.020	12.264350	-56.478400	57.190	0.030	-0.260	1.230	57.060	-1.700	1.600																			1580077690.0	0.11	0.20
26/01/2020 22:28:11	26012020	260120	222811	57.210	12.264352	-56.478400	57.370	0.280	-0.280	1.000	57.240	-1.600	1.300																			1580077691.0	0.39	0.72
26/01/2020 22:28:12	26012020	260120	222812	57.330	12.264353	-56.478402	57.490	0.440	-0.080	0.780	57.340	-1.400	1.100																			1580077692.0	0.30	0.56
26/01/2020 22:28:13	26012020	260120	222813	57.310	12.264352	-56.478402	57.460	0.360	0.190	0.640	57.290	-1.200	1.000																			1580077693.0	0.16	0.30
26/01/2020 22:28:14	26012020	260120	222814	57.230	12.264352	-56.478402	57.390	0.160	0.240	0.510	57.220	-1.200	0.800																			1580077694.0	0.27	0.50
26/01/2020 22:28:15	26012020	260120	222815	57.220	12.264352	-56.478403	57.370	0.010	0.030	0.220	57.220	-1.400	0.500																			1580077695.0	0.13	0.24
26/01/2020 22:28:16	26012020	260120	222816	57.260	12.264355	-56.478403	57.410	-0.020	-0.170	-0.200	57.270	-1.600	0.100																			1580077696.0	0.63	1.17
26/01/2020 22:28:17	26012020	260120	222817	57.380	12.264358	-56.478405	57.530	-0.010	-0.220	-0.590	57.410	-1.600	-0.300																			1580077697.0	0.90	1.67
26/01/2020 22:28:18	26012020	260120	222818	57.600	12.264362	-56.478408	57.770	-0.070	-0.150	-0.720	57.600	-1.500	-0.400																			1580077698.0	0.79	1.46
26/01/2020 22:28:19	26012020	260120	222819	57.850	12.264360	-56.478408	58.020	-0.230	-0.050	-0.380	57.890	-1.400	0.100																			1580077699.0	0.28	0.52
26/01/2020 22:28:20	26012020	260120	222820	57.960	12.264357	-56.478408	58.140	-0.470	-0.010	0.330	57.960	-1.400	0.900																			1580077700.0	0.87	1.61
26/01/2020 22:28:21	26012020	260120	222821	57.860	12.264350	-56.478405	58.030	-0.670	-0.040	1.140	57.820	-1.400	1.700																			1580077701.0	1.49	2.76
26/01/2020 22:28:22	26012020	260120	222822	57.640	12.264345	-56.478402	57.820	-0.640	-0.210	1.790	57.600	-1.600	2.300																			1580077702.0	1.53	2.83
26/01/2020 22:28:23	26012020	260120	222823	57.520	12.264340	-56.478398	57.730	-0.220	-0.500	1.960	57.530	-1.900	2.300																			1580077703.0	1.03	1.91
26/01/2020 22:28:24	26012020	260120	222824	57.610	12.264340	-56.478397	57.810	0.470	-0.730	1.550	57.650	-2.100	1.800																			1580077704.0	0.30	0.56
26/01/2020 22:28:25	26012020	260120	222825	57.790	12.264343	-56.478398	57.980	1.060	-0.640	0.690	57.830	-2.000	0.900																			1580077705.0	0.77	1.43
26/01/2020 22:28:26	26012020	260120	222826	57.940	12.264348	-56.478402	58.100	1.180	-0.210	-0.250	57.960	-1.500	-0.100																			1580077706.0	1.32	2.44
26/01/2020 22:28:27	26012020	260120	222827	58.040	12.264355	-56.478407	58.180	0.750	0.330	-0.920	58.060	-1.000	-0.600																			1580077707.0	1.51	2.80
26/01/2020 22:28:28	26012020	260120	222828	58.160	12.264358	-56.478410	58.290	0.040	0.690	-1.120	58.180	-0.700	-0.700																			1580077708.0	1.15	2.13
26/01/2020 22:28:29	26012020	260120	222829	58.280	12.264358	-56.478413	58.420	-0.640	0.710	-0.840	58.300	-0.700	-0.300																			1580077709.0	0.40	0.74
26/01/2020 22:28:30	26012020	260120	222830	58.370	12.264355	-56.478412	58.520	-1.030	0.370	-0.240	58.370	-1.000	0.100																			1580077710.0	0.63	1.17
26/01/2020 22:28:31	26012020	260120	222831	58.370	12.264350	-56.478408	58.530	-1.030	-0.190	0.480	58.350	-1.700	1.000																			1580077711.0	1.16	2.15
26/01/2020 22:28:32	26012020	260120	222832	58.270	12.264345	-56.478405	58.450	-0.650	-0.700	1.190	58.250	-2.100	1.700																			1580077712.0	1.35	2.50
26/01/2020 22:28:33	26012020	260120	222833	58.160	12.264342	-56.478400	58.350	-0.060	-0.910	1.730	58.130	-2.300	2.200																			1580077713.0	1.25	2.31
26/01/2020 22:28:34	26012020	260120	222834	58.080	12.264337	-56.478398	58.280	0.470	-0.810	1.970	58.070	-2.100	2.400																			1580077714.0	0.91	1.69
26/01/2020 22:28:35	26012020	260120	222835	58.060	12.264335	-56.478398	58.270	0.720	-0.450	1.830	58.070	-1.700	2.100																			1580077715.0	0.41	0.76
26/01/2020 22:28:36	26012020	260120	222836	58.110	12.264337	-56.478400	58.300	0.570	-0.000	1.240	58.130	-1.300	1.400																			1580077716.0	0.35	0.65
26/01/2020 22:28:37	26012020	260120	222837	58.230	12.264338	-56.478403	58.410	0.170	0.330	0.300	58.270	-1.000	0.500																			1580077717.0	0.96	1.78
26/01/2020 22:28:38	26012020	260120	222838	58.430	12.264343	-56.478408	58.580	-0.150	0.380	-0.640	58.470	-1.000	-0.400																			1580077718.0	1.38	2.56
26/01/2020 22:28:39	26012020	260120	222839	58.570	12.264348	-56.478410	58.710	-0.170	0.220	-1.170	58.590	-1.200	-0.800																			1580077719.0	1.18	2.19
26/01/2020 22:28:40	26012020	260120	222840	58.590	12.264350	-56.478412	58.720	0.030	-0.040	-1.240	58.580	-1.500	-0.800																			1580077720.0	0.48	0.89
26/01/2020 22:28:41	26012020	260120	222841	58.520	12.264350	-56.478410	58.650	0.190	-0.260	-0.940	58.510	-1.700	-0.400																			1580077721.0	0.26	0.48
26/01/2020 22:28:42	26012020	260120	222842	58.410	12.264348	-56.478408	58.550	0.150	-0.320	-0.370	58.410	-1.700	-0.100																			1580077722.0	0.55	1.02
26/01/2020 22:28:43	26012020	260120	222843	58.290	12.264345	-56.478407	58.440	-0.040	-0.220	0.320	58.270	-1.600	0.800																			1580077723.0	0.65	1.20
26/01/2020 22:28:44	26012020	260120	222844	58.220	12.264342	-56.478407	58.390	-0.230	-0.130	0.940	58.220	-1.500	1.200																			1580077724.0	0.71	1.31
26/01/2020 22:28:45	26012020	260120	222845	58.250	12.264338	-56.478407	58.430	-0.330	-0.160	1.380	58.260	-1.600	1.800																			1580077725.0	0.64	1.19
26/01/2020 22:28:46	26012020	260120	222846	58.350	12.264337	-56.478405	58.560	-0.310	-0.230	1.680	58.380	-1.600	2.100																			1580077726.0	0.53	0.98
26/01/2020 22:28:47	26012020	260120	222847	58.490	12.264333	-56.478403	58.700	-0.190	-0.180	1.860	58.520	-1.500	2.200																			1580077727.0	0.63	1.17
26/01/2020 22:28:48	26012020	260120	222848	58.630	12.264332	-56.478402	58.850	-0.060	-0.030	1.790	58.660	-1.400	2.100																			1580077728.0	0.77	1.43
26/01/2020 22:28:49	26012020	260120	222849	58.660	12.264328	-56.478402	58.840	0.060	0.130	1.460	58.640	-1.200	1.700																			1580077729.0	0.59	1.09
26/01/2020 22:28:50	26012020	260120	222850	58.490	12.264328	-56.478402	58.650	0.150	0.160	0.860	58.440	-1.200	1.100																			1580077730.0	0.24	0.44
26/01/2020 22:28:51	26012020	260120	222851	58.240	12.264330	-56.478405	58.380	0.260	0.010	0.050	58.210	-1.400	0.200																			1580077731.0	0.79	1.46
26/01/2020 22:28:52	26012020	260120	222852	58.140	12.264337	-56.478408	58.280	0.380	-0.330	-0.860	58.150	-1.800	-0.700																			1580077732.0	1.43	2.65
26/01/2020 22:28:53	26012020	260120	222853	58.220	12.264343	-56.478412	58.360	0.430	-0.710	-1.590	58.250	-2.200	-1.300																			1580077733.0	1.70	3.15
26/01/2020 22:28:54	26012020	260120	222854	58.330	12.264350	-56.478413	58.460	0.320	-0.780	-1.760	58.330	-2.200	-1.400																			1580077734.0	1.38	2.56
26/01/2020 22:28:55	26012020	260120	222855	58.400	12.264352	-56.478415	58.540	0.050	-0.350	-1.270	58.410	-1.600	-0.700																			1580077735.0	0.38	0.70
26/01/2020 22:28:56	26012020	260120	222856	58.410	12.264347	-56.478413	58.570	-0.260	0.290	-0.220	58.410	-1.200	0.000																			1580077736.0	0.94	1.74
26/01/2020 22:28:57	26012020	260120	222857	58.370	12.264338	-56.478410	58.550	-0.480	0.680	1.070	58.350	-0.700	1.700																			1580077737.0	2.01	3.72
26/01/2020 22:28:58	26012020	260120	222858	58.290	12.264328	-56.478407	58.490	-0.550	0.620	2.130	58.280	-0.800	2.700																			1580077738.0	2.30	4.26
26/01/2020 22:28:59	26012020	260120	222859	58.240	12.264322	-56.478402	58.440	-0.460	0.280	2.630	58.240	-1.200	3.000																			1580077739.0	1.68	3.11
26/01/2020 22:29:00	26012020	260120	222900	58.240	12.264320	-56.478400	58.440	-0.200	-0.180	2.490	58.250	-1.700	2.700	1015.00	26.00	26.10	20.60	20.70	-2.00	72.00	72.00	378.00	25.20	357.00	4.10	54.00	3.70	15	3827.00	27.70	27.70	1580077740.0	0.56	1.04
26/01/2020 22:29:01	26012020	260120	222901	58.280	12.264322	-56.478402	58.460	0.160	-0.650	1.880	58.280	-2.100	2.100																			1580077741.0	0.47	0.87
26/01/2020 22:29:02	26012020	260120	222902	58.230	12.264327	-56.478403	58.380	0.440	-0.910	1.180	58.210	-2.300	1.400																			1580077742.0	1.01	1.87
26/01/2020 22:29:03	26012020	260120	222903	58.040	12.264330	-56.478405	58.160	0.470	-0.770	0.630	57.990	-2.100	0.900																			1580077743.0	1.00	1.85
26/01/2020 22:29:04	26012020	260120	222904	57.800	12.264332	-56.478407	57.920	0.280	-0.330	0.170	57.760	-1.600	0.400																			1580077744.0	0.76	1.41
26/01/2020 22:29:05	26012020	260120	222905	57.650	12.264333	-56.478410	57.790	0.030	0.100	-0.250	57.640	-1.200	0.000																			1580077745.0	0.59	1.09
26/01/2020 22:29:06	26012020	260120	222906	57.650	12.264335	-56.478412	57.780	-0.130	0.310	-0.630	57.650	-1.100	-0.200																			1580077746.0	0.47	0.87
26/01/2020 22:29:07	26012020	260120	222907	57.780	12.264335	-56.478413	57.920	-0.100	0.220	-0.980	57.820	-1.200	-0.700																			1580077747.0	0.40	0.74
26/01/2020 22:29:08	26012020	260120	222908	57.950	12.264338	-56.478413	58.080	0.080	0.010	-1.110	57.950	-1.400	-0.700																			1580077748.0	0.43	0.80
26/01/2020 22:29:09	26012020	260120	222909	58.010	12.264338	-56.478413	58.120	0.230	-0.090	-0.810	58.000	-1.500	-0.300																			1580077749.0	0.20	0.37
26/01/2020 22:29:10	26012020	260120	222910	57.910	12.264337	-56.478412	58.040	0.150	0.030	-0.080	57.890	-1.300	0.500																			1580077750.0	0.52	0.96
26/01/2020 22:29:11	26012020	260120	222911	57.770	12.264332	-56.478410	57.930	-0.160	0.150	0.840	57.740	-1.200	1.400																			1580077751.0	1.05	1.94
26/01/2020 22:29:12	26012020	260120	222912	57.650	12.264327	-56.478410	57.830	-0.500	0.030	1.600	57.620	-1.400	2.100																			1580077752.0	1.17	2.17
26/01/2020 22:29:13	26012020	260120	222913	57.540	12.264322	-56.478408	57.730	-0.620	-0.260	2.020	57.510	-1.700	2.400																			1580077753.0	0.88	1.63
26/01/2020 22:29:14	26012020	260120	222914	57.440	12.264320	-56.478407	57.650	-0.440	-0.490	2.090	57.430	-1.900	2.400																			1580077754.0	0.51	0.94
26/01/2020 22:29:15	26012020	260120	222915	57.400	12.264320	-56.478405	57.600	-0.100	-0.540	1.830	57.410	-1.900	2.100																			1580077755.0	0.19	0.35
26/01/2020 22:29:16	26012020	260120	222916	57.460	12.264320	-56.478407	57.640	0.240	-0.460	1.250	57.480	-1.800	1.400																			1580077756.0	0.17	0.31
26/01/2020 22:29:17	26012020	260120	222917	57.580	12.264322	-56.478408	57.740	0.460	-0.290	0.430	57.600	-1.600	0.600																			1580077757.0	0.55	1.02
26/01/2020 22:29:18	26012020	260120	222918	57.700	12.264325	-56.478412	57.840	0.570	-0.100	-0.440	57.700	-1.500	0.000																			1580077758.0	0.87	1.61
26/01/2020 22:29:19	26012020	260120	222919	57.800	12.264328	-56.478413	57.920	0.570	0.010	-1.110	57.820	-1.400	-0.800																			1580077759.0	0.97	1.80
26/01/2020 22:29:20	26012020	260120	222920	57.800	12.264332	-56.478415	57.910	0.410	0.100	-1.390	57.800	-1.300	-1.000																			1580077760.0	0.81	1.50
26/01/2020 22:29:21	26012020	260120	222921	57.670	12.264333	-56.478417	57.760	0.020	0.290	-1.210	57.630	-1.000	-0.700																			1580077761.0	0.46	0.85
26/01/2020 22:29:22	26012020	260120	222922	57.510	12.264333	-56.478417	57.620	-0.440	0.420	-0.660	57.490	-1.000	-0.100																			1580077762.0	0.22	0.41
26/01/2020 22:29:23	26012020	260120	222923	57.450	12.264332	-56.478417	57.590	-0.690	0.260	0.160	57.450	-1.200	0.800																			1580077763.0	0.58	1.07
26/01/2020 22:29:24	26012020	260120	222924	57.470	12.264327	-56.478415	57.630	-0.620	-0.180	1.110	57.480	-1.700	1.700																			1580077764.0	1.19	2.20
26/01/2020 22:29:25	26012020	260120	222925	57.510	12.264320	-56.478408	57.690	-0.360	-0.640	1.940	57.510	-2.100	2.500																			1580077765.0	1.64	3.04
26/01/2020 22:29:26	26012020	260120	222926	57.450	12.264315	-56.478405	57.630	-0.070	-0.770	2.470	57.420	-2.100	2.900																			1580077766.0	1.51	2.80
26/01/2020 22:29:27	26012020	260120	222927	57.240	12.264312	-56.478402	57.420	0.170	-0.460	2.580	57.200	-1.700	2.900																			1580077767.0	0.92	1.70
26/01/2020 22:29:28	26012020	260120	222928	57.000	12.264310	-56.478403	57.160	0.380	-0.060	2.160	56.960	-1.400	2.400																			1580077768.0	0.38	0.70
26/01/2020 22:29:29	26012020	260120	222929	56.850	12.264312	-56.478407	57.000	0.520	0.050	1.260	56.840	-1.300	1.400																			1580077769.0	0.72	1.33
26/01/2020 22:29:30	26012020	260120	222930	56.830	12.264318	-56.478410	56.960	0.500	-0.080	0.150	56.830	-1.500	0.300																			1580077770.0	1.41	2.61
26/01/2020 22:29:31	26012020	260120	222931	56.880	12.264325	-56.478413	57.000	0.340	-0.160	-0.830	56.880	-1.500	-0.300																			1580077771.0	1.79	3.32
26/01/2020 22:29:32	26012020	260120	222932	56.980	12.264332	-56.478417	57.080	0.120	-0.110	-1.430	56.980	-1.500	-1.000																			1580077772.0	1.43	2.65
26/01/2020 22:29:33	26012020	260120	222933	56.980	12.264333	-56.478418	57.060	-0.140	0.040	-1.470	56.950	-1.300	-1.000																			1580077773.0	0.59	1.09
26/01/2020 22:29:34	26012020	260120	222934	56.780	12.264332	-56.478417	56.870	-0.410	0.200	-0.920	56.780	-1.200	-0.600																			1580077774.0	0.35	0.65
26/01/2020 22:29:35	26012020	260120	222935	56.480	12.264327	-56.478417	56.590	-0.570	0.250	-0.020	56.430	-1.200	0.600																			1580077775.0	1.02	1.89
26/01/2020 22:29:36	26012020	260120	222936	56.270	12.264322	-56.478413	56.420	-0.530	0.050	0.840	56.240	-1.400	1.400																			1580077776.0	1.28	2.37
26/01/2020 22:29:37	26012020	260120	222937	56.210	12.264318	-56.478410	56.370	-0.310	-0.270	1.400	56.210	-1.700	1.800																			1580077777.0	1.08	2.00
26/01/2020 22:29:38	26012020	260120	222938	56.270	12.264315	-56.478408	56.440	-0.020	-0.480	1.560	56.290	-1.900	1.900																			1580077778.0	0.68	1.26
26/01/2020 22:29:39	26012020	260120	222939	56.370	12.264315	-56.478408	56.530	0.220	-0.470	1.450	56.380	-1.800	1.800																			1580077779.0	0.19	0.35
26/01/2020 22:29:40	26012020	260120	222940	56.380	12.264315	-56.478408	56.510	0.370	-0.300	1.230	56.370	-1.600	1.600																			1580077780.0	0.21	0.39
26/01/2020 22:29:41	26012020	260120	222941	56.290	12.264315	-56.478410	56.400	0.420	-0.180	0.970	56.260	-1.500	1.300																			1580077781.0	0.32	0.59
26/01/2020 22:29:42	26012020	260120	222942	56.140	12.264317	-56.478412	56.240	0.390	-0.170	0.630	56.140	-1.500	1.100																			1580077782.0	0.32	0.59
26/01/2020 22:29:43	26012020	260120	222943	56.000	12.264318	-56.478412	56.050	0.290	-0.200	0.230	56.000	-1.600	0.700																			1580077783.0	0.41	0.76
26/01/2020 22:29:44	26012020	260120	222944	55.850	12.264320	-56.478413	55.930	0.140	-0.180	-0.230	55.840	-1.500	0.100																			1580077784.0	0.59	1.09
26/01/2020 22:29:45	26012020	260120	222945	55.890	12.264323	-56.478415	55.990	-0.010	-0.080	-0.640	55.890	-1.500	-0.200																			1580077785.0	0.73	1.35
26/01/2020 22:29:46	26012020	260120	222946	56.050	12.264325	-56.478417	56.130	-0.140	0.140	-0.800	56.070	-1.200	-0.400																			1580077786.0	0.58	1.07
26/01/2020 22:29:47	26012020	260120	222947	56.070	12.264325	-56.478417	56.140	-0.310	0.440	-0.490	56.050	-0.900	0.000																			1580077787.0	0.16	0.30
26/01/2020 22:29:48	26012020	260120	222948	55.930	12.264322	-56.478417	56.010	-0.510	0.600	0.140	55.900	-0.800	0.700																			1580077788.0	0.72	1.33
26/01/2020 22:29:49	26012020	260120	222949	55.830	12.264318	-56.478415	55.930	-0.630	0.320	0.740	55.830	-1.200	1.200																			1580077789.0	1.04	1.93
26/01/2020 22:29:50	26012020	260120	222950	55.790	12.264313	-56.478413	55.890	-0.570	-0.230	1.240	55.770	-1.700	1.700																			1580077790.0	0.92	1.70
26/01/2020 22:29:51	26012020	260120	222951	55.680	12.264312	-56.478410	55.800	-0.290	-0.700	1.670	55.660	-2.100	2.100																			1580077791.0	0.78	1.44
26/01/2020 22:29:52	26012020	260120	222952	55.540	12.264310	-56.478408	55.650	0.160	-0.940	1.940	55.540	-2.300	2.300																			1580077792.0	0.59	1.09
26/01/2020 22:29:53	26012020	260120	222953	55.420	12.264310	-56.478407	55.530	0.660	-0.960	1.910	55.400	-2.300	2.200																			1580077793.0	0.29	0.54
26/01/2020 22:29:54	26012020	260120	222954	55.350	12.264310	-56.478407	55.470	1.020	-0.810	1.520	55.350	-2.200	2.000																			1580077794.0	0.18	0.33
26/01/2020 22:29:55	26012020	260120	222955	55.350	12.264313	-56.478408	55.440	1.070	-0.440	0.840	55.350	-1.900	1.300																			1580077795.0	0.68	1.26
26/01/2020 22:29:56	26012020	260120	222956	55.350	12.264317	-56.478410	55.420	0.740	0.190	0.210	55.350	-1.300	0.700																			1580077796.0	1.01	1.87
26/01/2020 22:29:57	26012020	260120	222957	55.310	12.264320	-56.478413	55.350	0.100	0.830	-0.230	55.310	-0.600	0.200																			1580077797.0	0.90	1.67
26/01/2020 22:29:58	26012020	260120	222958	55.210	12.264322	-56.478417	55.270	-0.630	1.110	-0.500	55.210	-0.300	-0.100																			1580077798.0	0.74	1.37
26/01/2020 22:29:59	26012020	260120	222959	55.140	12.264322	-56.478418	55.200	-1.120	0.860	-0.520	55.140	-0.500	-0.100																			1580077799.0	0.42	0.78
26/01/2020 22:30:00	26012020	260120	223000	55.120	12.264322	-56.478418	55.200	-1.130	0.210	-0.330	55.120	-1.300	0.100	1015.00	26.10	26.10	20.80	20.90	-2.00	72.00	72.00	378.00	25.20	357.00	3.50	53.00	3.20	15	3699.00	27.70	27.70	1580077800.0	0.07	0.13
26/01/2020 22:30:01	26012020	260120	223001	55.130	12.264322	-56.478417	55.220	-0.730	-0.470	0.030	55.130	-1.900	0.500																			1580077801.0	0.54	1.00
26/01/2020 22:30:02	26012020	260120	223002	55.100	12.264318	-56.478413	55.190	-0.210	-0.790	0.470	55.100	-2.100	0.800																			1580077802.0	0.80	1.48
26/01/2020 22:30:03	26012020	260120	223003	55.030	12.264315	-56.478412	55.120	0.190	-0.800	0.810	55.030	-2.200	1.200																			1580077803.0	0.84	1.56
26/01/2020 22:30:04	26012020	260120	223004	54.980	12.264312	-56.478412	55.070	0.440	-0.680	1.020	54.980	-2.100	1.400																			1580077804.0	0.58	1.07
26/01/2020 22:30:05	26012020	260120	223005	54.940	12.264312	-56.478412	55.040	0.620	-0.600	1.050	54.940	-2.000	1.400																			1580077805.0	0.20	0.37
26/01/2020 22:30:06	26012020	260120	223006	54.920	12.264313	-56.478413	55.000	0.730	-0.450	0.940	54.920	-1.800	1.300																			1580077806.0	0.34	0.63
26/01/2020 22:30:07	26012020	260120	223007	54.830	12.264315	-56.478413	54.920	0.650	-0.170	0.810	54.830	-1.600	1.200																			1580077807.0	0.41	0.76
26/01/2020 22:30:08	26012020	260120	223008	54.760	12.264317	-56.478415	54.850	0.340	0.150	0.660	54.760	-1.300	1.100																			1580077808.0	0.35	0.65
26/01/2020 22:30:09	26012020	260120	223009	54.810	12.264318	-56.478417	54.910	-0.060	0.330	0.390	54.810	-1.100	0.800																			1580077809.0	0.38	0.70
26/01/2020 22:30:10	26012020	260120	223010	55.040	12.264320	-56.478417	55.140	-0.340	0.290	0.040	55.040	-1.100	0.500																			1580077810.0	0.43	0.80
26/01/2020 22:30:11	26012020	260120	223011	55.280	12.264322	-56.478417	55.380	-0.430	0.180	-0.210	55.280	-1.200	0.200																			1580077811.0	0.35	0.65
26/01/2020 22:30:12	26012020	260120	223012	55.390	12.264322	-56.478417	55.490	-0.400	0.180	-0.130	55.390	-1.200	0.200																			1580077812.0	0.13	0.24
26/01/2020 22:30:13	26012020	260120	223013	55.390	12.264318	-56.478417	55.490	-0.380	0.310	0.250	55.390	-1.100	0.600																			1580077813.0	0.48	0.89
26/01/2020 22:30:14	26012020	260120	223014	55.350	12.264315	-56.478415	55.450	-0.380	0.300	0.650	55.350	-1.100	1.000																			1580077814.0	0.86	1.59
26/01/2020 22:30:15	26012020	260120	223015	55.270	12.264312	-56.478415	55.380	-0.320	0.030	0.910	55.270	-1.300	1.300																			1580077815.0	0.71	1.31
26/01/2020 22:30:16	26012020	260120	223016	55.150	12.264312	-56.478413	55.240	-0.120	-0.420	1.010	55.150	-1.700	1.400																			1580077816.0	0.24	0.44
26/01/2020 22:30:17	26012020	260120	223017	55.010	12.264312	-56.478413	55.110	0.200	-0.900	0.940	55.010	-2.200	1.300																			1580077817.0	0.29	0.54
26/01/2020 22:30:18	26012020	260120	223018	55.000	12.264315	-56.478415	55.110	0.520	-1.220	0.700	55.000	-2.600	1.100																			1580077818.0	0.72	1.33
26/01/2020 22:30:19	26012020	260120	223019	55.200	12.264320	-56.478415	55.320	0.710	-1.140	0.400	55.200	-2.500	0.800																			1580077819.0	0.91	1.69
26/01/2020 22:30:20	26012020	260120	223020	55.450	12.264322	-56.478415	55.550	0.650	-0.470	0.360	55.450	-1.900	0.700																			1580077820.0	0.56	1.04
26/01/2020 22:30:21	26012020	260120	223021	55.480	12.264322	-56.478417	55.560	0.290	0.500	0.590	55.480	-1.000	0.900																			1580077821.0	0.32	0.59
26/01/2020 22:30:22	26012020	260120	223022	55.310	12.264317	-56.478417	55.370	-0.160	1.130	0.830	55.310	-0.300	1.200																			1580077822.0	0.79	1.46
26/01/2020 22:30:23	26012020	260120	223023	55.090	12.264315	-56.478417	55.150	-0.400	1.000	0.900	55.090	-0.300	1.300																			1580077823.0	0.47	0.87
26/01/2020 22:30:24	26012020	260120	223024	55.000	12.264317	-56.478417	55.070	-0.310	0.260	0.760	55.000	-1.000	1.200																			1580077824.0	0.30	0.56
26/01/2020 22:30:25	26012020	260120	223025	55.040	12.264318	-56.478413	55.120	-0.090	-0.460	0.500	55.040	-1.800	0.900																			1580077825.0	0.78	1.44
26/01/2020 22:30:26	26012020	260120	223026	55.070	12.264322	-56.478413	55.140	-0.040	-0.650	0.310	55.070	-2.000	0.700																			1580077826.0	0.65	1.20
26/01/2020 22:30:27	26012020	260120	223027	54.980	12.264322	-56.478413	55.030	-0.220	-0.320	0.230	54.980	-1.700	0.600																			1580077827.0	0.26	0.48
26/01/2020 22:30:28	26012020	260120	223028	54.780	12.264322	-56.478417	54.840	-0.450	0.100	0.170	54.780	-1.300	0.600																			1580077828.0	0.63	1.17
26/01/2020 22:30:29	26012020	260120	223029	54.600	12.264320	-56.478420	54.650	-0.480	0.130	0.100	54.600	-1.200	0.500																			1580077829.0	0.63	1.17
26/01/2020 22:30:30	26012020	260120	223030	54.450	12.264320	-56.478420	54.510	-0.160	-0.270	0.090	54.450	-1.600	0.500																			1580077830.0	0.22	0.41
26/01/2020 22:30:31	26012020	260120	223031	54.390	12.264322	-56.478420	54.480	0.350	-0.780	0.100	54.390	-2.100	0.500																			1580077831.0	0.41	0.76
26/01/2020 22:30:32	26012020	260120	223032	54.470	12.264325	-56.478418	54.550	0.780	-1.000	0.010	54.470	-2.400	0.400																			1580077832.0	0.62	1.15
26/01/2020 22:30:33	26012020	260120	223033	54.540	12.264327	-56.478417	54.630	0.870	-0.660	-0.050	54.540	-2.100	0.300																			1580077833.0	0.42	0.78
26/01/2020 22:30:34	26012020	260120	223034	54.550	12.264327	-56.478418	54.600	0.540	0.060	0.050	54.550	-1.400	0.400																			1580077834.0	0.18	0.33
26/01/2020 22:30:35	26012020	260120	223035	54.450	12.264325	-56.478420	54.510	-0.050	0.730	0.290	54.450	-0.700	0.600																			1580077835.0	0.52	0.96
26/01/2020 22:30:36	26012020	260120	223036	54.300	12.264323	-56.478422	54.350	-0.560	0.990	0.600	54.300	-0.400	0.900																			1580077836.0	0.53	0.98
26/01/2020 22:30:37	26012020	260120	223037	54.110	12.264322	-56.478422	54.170	-0.760	0.690	0.910	54.110	-0.600	1.300																			1580077837.0	0.28	0.52
26/01/2020 22:30:38	26012020	260120	223038	53.970	12.264322	-56.478420	54.050	-0.590	-0.010	1.120	53.970	-1.300	1.500																			1580077838.0	0.36	0.67
26/01/2020 22:30:39	26012020	260120	223039	54.030	12.264322	-56.478417	54.130	-0.240	-0.750	1.060	54.030	-2.000	1.500																			1580077839.0	0.62	1.15
26/01/2020 22:30:40	26012020	260120	223040	54.210	12.264322	-56.478415	54.290	0.040	-1.000	0.680	54.210	-2.400	1.100																			1580077840.0	0.53	0.98
26/01/2020 22:30:41	26012020	260120	223041	54.260	12.264323	-56.478415	54.320	0.120	-0.560	0.300	54.260	-2.000	0.700																			1580077841.0	0.21	0.39
26/01/2020 22:30:42	26012020	260120	223042	54.140	12.264323	-56.478418	54.180	0.120	0.090	0.110	54.140	-1.300	0.500																			1580077842.0	0.73	1.35
26/01/2020 22:30:43	26012020	260120	223043	54.050	12.264322	-56.478422	54.110	0.210	0.250	-0.030	54.050	-1.100	0.400																			1580077843.0	0.74	1.37
26/01/2020 22:30:44	26012020	260120	223044	54.050	12.264323	-56.478423	54.120	0.350	-0.180	-0.170	54.050	-1.500	0.200																			1580077844.0	0.32	0.59
26/01/2020 22:30:45	26012020	260120	223045	54.030	12.264327	-56.478422	54.070	0.380	-0.630	-0.190	54.030	-2.000	0.200																			1580077845.0	0.75	1.39
26/01/2020 22:30:46	26012020	260120	223046	53.830	12.264330	-56.478420	53.880	0.230	-0.510	0.040	53.830	-1.900	0.400																			1580077846.0	0.68	1.26
26/01/2020 22:30:47	26012020	260120	223047	53.610	12.264328	-56.478420	53.680	-0.020	0.090	0.430	53.610	-1.400	0.800																			1580077847.0	0.06	0.11
26/01/2020 22:30:48	26012020	260120	223048	53.490	12.264327	-56.478422	53.580	-0.230	0.560	0.740	53.490	-0.800	1.100																			1580077848.0	0.65	1.20
26/01/2020 22:30:49	26012020	260120	223049	53.580	12.264323	-56.478422	53.680	-0.270	0.440	0.910	53.580	-0.900	1.300																			1580077849.0	0.48	0.89
26/01/2020 22:30:50	26012020	260120	223050	53.810	12.264323	-56.478420	53.930	-0.130	-0.090	0.910	53.810	-1.400	1.300																			1580077850.0	0.28	0.52
26/01/2020 22:30:51	26012020	260120	223051	54.040	12.264325	-56.478418	54.150	0.020	-0.470	0.800	54.040	-1.800	1.200																			1580077851.0	0.57	1.06
26/01/2020 22:30:52	26012020	260120	223052	54.090	12.264327	-56.478417	54.190	0.010	-0.340	0.770	54.090	-1.800	1.100																			1580077852.0	0.31	0.57
26/01/2020 22:30:53	26012020	260120	223053	53.940	12.264325	-56.478417	54.040	-0.170	0.050	0.800	53.940	-1.400	1.200																			1580077853.0	0.29	0.54
26/01/2020 22:30:54	26012020	260120	223054	53.760	12.264323	-56.478420	53.850	-0.290	0.240	0.730	53.760	-1.100	1.100																			1580077854.0	0.54	1.00
26/01/2020 22:30:55	26012020	260120	223055	53.640	12.264325	-56.478422	53.730	-0.170	0.040	0.510	53.640	-1.300	0.900																			1580077855.0	0.47	0.87
26/01/2020 22:30:56	26012020	260120	223056	53.620	12.264327	-56.478422	53.710	0.190	-0.430	0.260	53.620	-1.700	0.700																			1580077856.0	0.49	0.91
26/01/2020 22:30:57	26012020	260120	223057	53.660	12.264328	-56.478422	53.770	0.490	-0.850	0.010	53.660	-2.200	0.400																			1580077857.0	0.58	1.07
26/01/2020 22:30:58	26012020	260120	223058	53.790	12.264332	-56.478420	53.870	0.510	-0.900	-0.180	53.790	-2.300	0.200																			1580077858.0	0.58	1.07
26/01/2020 22:30:59	26012020	260120	223059	53.810	12.264333	-56.478420	53.880	0.260	-0.420	-0.180	53.810	-1.900	0.200																			1580077859.0	0.35	0.65
26/01/2020 22:31:00	26012020	260120	223100	53.750	12.264333	-56.478422	53.830	-0.050	0.350	-0.020	53.750	-1.100	0.300	1015.00	26.10	26.10	20.80	20.90	-2.00	72.00	72.00	378.00	25.20	352.00	3.70	46.00	3.60	15	3711.00	27.70	27.60	1580077860.0	0.34	0.63
26/01/2020 22:31:01	26012020	260120	223101	53.720	12.264332	-56.478423	53.790	-0.280	0.910	0.200	53.720	-0.500	0.600																			1580077861.0	0.58	1.07
26/01/2020 22:31:02	26012020	260120	223102	53.720	12.264328	-56.478425	53.810	-0.400	0.900	0.440	53.720	-0.400	0.800																			1580077862.0	0.47	0.87
26/01/2020 22:31:03	26012020	260120	223103	53.830	12.264328	-56.478425	53.930	-0.400	0.350	0.600	53.830	-0.900	1.000																			1580077863.0	0.14	0.26
26/01/2020 22:31:04	26012020	260120	223104	54.070	12.264330	-56.478423	54.190	-0.230	-0.380	0.610	54.070	-1.700	1.000																			1580077864.0	0.37	0.69
26/01/2020 22:31:05	26012020	260120	223105	54.380	12.264332	-56.478422	54.500	0.100	-0.900	0.520	54.380	-2.200	0.900																			1580077865.0	0.44	0.81
26/01/2020 22:31:06	26012020	260120	223106	54.590	12.264332	-56.478420	54.690	0.460	-1.000	0.570	54.590	-2.400	0.900																			1580077866.0	0.27	0.50
26/01/2020 22:31:07	26012020	260120	223107	54.560	12.264332	-56.478420	54.650	0.620	-0.670	0.830	54.560	-2.100	1.200																			1580077867.0	0.18	0.33
26/01/2020 22:31:08	26012020	260120	223108	54.340	12.264328	-56.478420	54.420	0.390	-0.120	1.160	54.340	-1.600	1.500																			1580077868.0	0.43	0.80
26/01/2020 22:31:09	26012020	260120	223109	54.120	12.264327	-56.478420	54.230	-0.120	0.340	1.310	54.120	-1.100	1.700																			1580077869.0	0.44	0.81
26/01/2020 22:31:10	26012020	260120	223110	54.090	12.264327	-56.478422	54.220	-0.590	0.520	1.130	54.090	-0.900	1.600																			1580077870.0	0.33	0.61
26/01/2020 22:31:11	26012020	260120	223111	54.220	12.264328	-56.478423	54.400	-0.680	0.360	0.620	54.220	-1.000	1.100																			1580077871.0	0.49	0.91
26/01/2020 22:31:12	26012020	260120	223112	54.560	12.264332	-56.478425	54.680	-0.350	-0.040	0.000	54.560	-1.400	0.500																			1580077872.0	0.67	1.24
26/01/2020 22:31:13	26012020	260120	223113	54.880	12.264335	-56.478425	54.970	0.180	-0.490	-0.520	54.880	-1.800	-0.100																			1580077873.0	0.69	1.28
26/01/2020 22:31:14	26012020	260120	223114	55.110	12.264337	-56.478425	55.190	0.560	-0.680	-0.760	55.110	-2.100	-0.400																			1580077874.0	0.57	1.06
26/01/2020 22:31:15	26012020	260120	223115	55.190	12.264338	-56.478425	55.280	0.580	-0.460	-0.650	55.190	-1.900	-0.300																			1580077875.0	0.23	0.43
26/01/2020 22:31:16	26012020	260120	223116	55.150	12.264337	-56.478425	55.250	0.240	0.030	-0.290	55.150	-1.400	0.000																			1580077876.0	0.25	0.46
26/01/2020 22:31:17	26012020	260120	223117	55.110	12.264335	-56.478427	55.230	-0.160	0.390	0.090	55.110	-1.000	0.400																			1580077877.0	0.50	0.93
26/01/2020 22:31:18	26012020	260120	223118	55.140	12.264333	-56.478427	55.260	-0.350	0.360	0.430	55.140	-1.000	0.800																			1580077878.0	0.34	0.63
26/01/2020 22:31:19	26012020	260120	223119	55.250	12.264333	-56.478427	55.380	-0.230	-0.030	0.720	55.250	-1.300	1.100																			1580077879.0	0.16	0.30
26/01/2020 22:31:20	26012020	260120	223120	55.450	12.264333	-56.478425	55.610	0.070	-0.500	0.920	55.450	-1.800	1.300																			1580077880.0	0.43	0.80
26/01/2020 22:31:21	26012020	260120	223121	55.600	12.264335	-56.478422	55.730	0.270	-0.680	1.120	55.600	-2.000	1.500																			1580077881.0	0.53	0.98
26/01/2020 22:31:22	26012020	260120	223122	55.560	12.264333	-56.478420	55.690	0.180	-0.340	1.290	55.560	-1.800	1.600																			1580077882.0	0.32	0.59
26/01/2020 22:31:23	26012020	260120	223123	55.470	12.264332	-56.478422	55.590	-0.170	0.240	1.330	55.470	-1.200	1.700																			1580077883.0	0.43	0.80
26/01/2020 22:31:24	26012020	260120	223124	55.420	12.264330	-56.478423	55.550	-0.520	0.570	1.140	55.420	-0.800	1.600																			1580077884.0	0.60	1.11
26/01/2020 22:31:25	26012020	260120	223125	55.530	12.264330	-56.478425	55.660	-0.580	0.340	0.690	55.530	-1.000	1.100																			1580077885.0	0.37	0.69
26/01/2020 22:31:26	26012020	260120	223126	55.700	12.264332	-56.478425	55.830	-0.280	-0.280	0.140	55.700	-1.600	0.600																			1580077886.0	0.43	0.80
26/01/2020 22:31:27	26012020	260120	223127	55.780	12.264335	-56.478423	55.900	0.190	-0.780	-0.320	55.780	-2.100	0.100																			1580077887.0	0.71	1.31
26/01/2020 22:31:28	26012020	260120	223128	55.730	12.264337	-56.478423	55.830	0.570	-0.810	-0.660	55.730	-2.200	-0.200																			1580077888.0	0.60	1.11
26/01/2020 22:31:29	26012020	260120	223129	55.630	12.264340	-56.478425	55.730	0.700	-0.480	-0.930	55.630	-1.900	-0.500																			1580077889.0	0.61	1.13
26/01/2020 22:31:30	26012020	260120	223130	55.590	12.264342	-56.478428	55.700	0.610	-0.080	-0.950	55.590	-1.500	-0.600																			1580077890.0	0.83	1.54
26/01/2020 22:31:31	26012020	260120	223131	55.540	12.264343	-56.478430	55.670	0.370	0.240	-0.500	55.540	-1.200	-0.200																			1580077891.0	0.56	1.04
26/01/2020 22:31:32	26012020	260120	223132	55.540	12.264343	-56.478430	55.690	0.020	0.380	0.200	55.540	-1.000	0.500																			1580077892.0	0.22	0.41
26/01/2020 22:31:33	26012020	260120	223133	55.660	12.264340	-56.478427	55.820	-0.390	0.290	0.890	55.660	-1.100	1.200																			1580077893.0	0.88	1.63
26/01/2020 22:31:34	26012020	260120	223134	55.740	12.264335	-56.478423	55.910	-0.740	0.170	1.550	55.740	-1.200	1.900																			1580077894.0	1.27	2.35
26/01/2020 22:31:35	26012020	260120	223135	55.730	12.264330	-56.478420	55.880	-0.860	0.080	2.020	55.730	-1.300	2.400																			1580077895.0	1.28	2.37
26/01/2020 22:31:36	26012020	260120	223136	55.620	12.264327	-56.478418	55.770	-0.620	-0.070	2.120	55.620	-1.400	2.500																			1580077896.0	0.79	1.46
26/01/2020 22:31:37	26012020	260120	223137	55.480	12.264327	-56.478418	55.610	-0.070	-0.290	1.860	55.480	-1.600	2.300																			1580077897.0	0.06	0.11
26/01/2020 22:31:38	26012020	260120	223138	55.320	12.264328	-56.478418	55.450	0.530	-0.480	1.320	55.320	-1.800	1.800																			1580077898.0	0.49	0.91
26/01/2020 22:31:39	26012020	260120	223139	55.210	12.264332	-56.478420	55.340	0.810	-0.560	0.550	55.210	-1.900	1.100																			1580077899.0	0.81	1.50
26/01/2020 22:31:40	26012020	260120	223140	55.210	12.264337	-56.478423	55.330	0.610	-0.540	-0.300	55.210	-1.900	0.200																			1580077900.0	1.01	1.87
26/01/2020 22:31:41	26012020	260120	223141	55.320	12.264342	-56.478425	55.440	0.160	-0.430	-1.010	55.320	-1.800	-0.500																			1580077901.0	1.15	2.13
26/01/2020 22:31:42	26012020	260120	223142	55.450	12.264345	-56.478428	55.570	-0.210	-0.220	-1.350	55.450	-1.600	-0.900																			1580077902.0	0.92	1.70
26/01/2020 22:31:43	26012020	260120	223143	55.470	12.264347	-56.478428	55.580	-0.310	0.110	-1.240	55.470	-1.300	-0.900																			1580077903.0	0.38	0.70
26/01/2020 22:31:44	26012020	260120	223144	55.350	12.264345	-56.478428	55.470	-0.180	0.370	-0.730	55.350	-1.000	-0.400																			1580077904.0	0.21	0.39
26/01/2020 22:31:45	26012020	260120	223145	55.220	12.264343	-56.478427	55.360	0.060	0.350	-0.010	55.220	-1.000	0.300																			1580077905.0	0.63	1.17
26/01/2020 22:31:46	26012020	260120	223146	55.230	12.264340	-56.478423	55.390	0.280	0.040	0.730	55.230	-1.300	1.000																			1580077906.0	0.89	1.65
26/01/2020 22:31:47	26012020	260120	223147	55.290	12.264337	-56.478420	55.480	0.300	-0.250	1.340	55.290	-1.600	1.700																			1580077907.0	1.03	1.91
26/01/2020 22:31:48	26012020	260120	223148	55.340	12.264335	-56.478417	55.510	-0.010	-0.150	1.710	55.340	-1.500	2.100																			1580077908.0	0.84	1.56
26/01/2020 22:31:49	26012020	260120	223149	55.280	12.264332	-56.478417	55.410	-0.520	0.270	1.860	55.280	-1.100	2.200																			1580077909.0	0.51	0.94
26/01/2020 22:31:50	26012020	260120	223150	55.090	12.264330	-56.478420	55.260	-0.840	0.470	1.780	55.090	-0.900	2.200																			1580077910.0	0.70	1.30
26/01/2020 22:31:51	26012020	260120	223151	54.980	12.264330	-56.478422	55.140	-0.670	0.030	1.390	54.980	-1.300	1.900																			1580077911.0	0.53	0.98
26/01/2020 22:31:52	26012020	260120	223152	55.010	12.264333	-56.478422	55.160	-0.020	-0.800	0.770	55.010	-2.100	1.200																			1580077912.0	0.60	1.11
26/01/2020 22:31:53	26012020	260120	223153	55.180	12.264338	-56.478422	55.340	0.690	-1.360	0.040	55.180	-2.700	0.500																			1580077913.0	0.96	1.78
26/01/2020 22:31:54	26012020	260120	223154	55.310	12.264342	-56.478420	55.440	1.030	-1.210	-0.570	55.310	-2.600	-0.100																			1580077914.0	0.87	1.61
26/01/2020 22:31:55	26012020	260120	223155	55.290	12.264343	-56.478422	55.410	0.850	-0.450	-0.930	55.290	-1.900	-0.500																			1580077915.0	0.60	1.11
26/01/2020 22:31:56	26012020	260120	223156	55.260	12.264345	-56.478425	55.390	0.340	0.380	-1.060	55.260	-1.100	-0.700																			1580077916.0	0.68	1.26
26/01/2020 22:31:57	26012020	260120	223157	55.330	12.264345	-56.478428	55.480	-0.200	0.880	-0.900	55.330	-0.500	-0.500																			1580077917.0	0.53	0.98
26/01/2020 22:31:58	26012020	260120	223158	55.420	12.264345	-56.478428	55.580	-0.590	0.990	-0.400	55.420	-0.400	-0.100																			1580077918.0	0.20	0.37
26/01/2020 22:31:59	26012020	260120	223159	55.470	12.264342	-56.478427	55.630	-0.760	0.760	0.280	55.470	-0.600	0.600																			1580077919.0	0.55	1.02
26/01/2020 22:32:00	26012020	260120	223200	55.430	12.264338	-56.478423	55.610	-0.700	0.260	1.060	55.430	-1.000	1.300	1015.00	26.10	26.10	20.80	20.90	-2.00	72.00	73.00	378.00	25.20	343.00	4.20	37.00	3.90	15	3547.00	27.70	27.60	1580077920.0	0.90	1.67
26/01/2020 22:32:01	26012020	260120	223201	55.380	12.264335	-56.478420	55.570	-0.420	-0.370	1.730	55.380	-1.600	2.000																			1580077921.0	1.11	2.06
26/01/2020 22:32:02	26012020	260120	223202	55.460	12.264332	-56.478417	55.660	-0.020	-0.890	2.020	55.460	-2.200	2.400																			1580077922.0	1.07	1.98
26/01/2020 22:32:03	26012020	260120	223203	55.590	12.264330	-56.478415	55.760	0.320	-1.020	1.880	55.590	-2.400	2.300																			1580077923.0	0.63	1.17
26/01/2020 22:32:04	26012020	260120	223204	55.600	12.264330	-56.478415	55.750	0.480	-0.720	1.500	55.600	-2.100	1.900																			1580077924.0	0.12	0.22
26/01/2020 22:32:05	26012020	260120	223205	55.580	12.264332	-56.478418	55.730	0.470	-0.320	0.900	55.580	-1.700	1.400																			1580077925.0	0.77	1.43
26/01/2020 22:32:06	26012020	260120	223206	55.670	12.264337	-56.478422	55.800	0.400	-0.140	0.110	55.670	-1.500	0.600																			1580077926.0	1.18	2.19
26/01/2020 22:32:07	26012020	260120	223207	55.760	12.264342	-56.478425	55.880	0.290	-0.040	-0.550	55.760	-1.400	-0.100																			1580077927.0	1.24	2.30
26/01/2020 22:32:08	26012020	260120	223208	55.780	12.264345	-56.478425	55.890	0.070	0.140	-0.850	55.780	-1.300	-0.400																			1580077928.0	0.78	1.44
26/01/2020 22:32:09	26012020	260120	223209	55.820	12.264345	-56.478425	55.910	-0.230	0.340	-0.790	55.820	-1.000	-0.400																			1580077929.0	0.10	0.19
26/01/2020 22:32:10	26012020	260120	223210	55.910	12.264343	-56.478425	56.030	-0.440	0.360	-0.480	55.910	-1.000	-0.100																			1580077930.0	0.45	0.83
26/01/2020 22:32:11	26012020	260120	223211	56.030	12.264340	-56.478423	56.190	-0.400	0.090	-0.090	56.030	-1.200	0.200																			1580077931.0	0.66	1.22
26/01/2020 22:32:12	26012020	260120	223212	56.150	12.264338	-56.478420	56.280	-0.130	-0.220	0.350	56.150	-1.600	0.700																			1580077932.0	0.71	1.31
26/01/2020 22:32:13	26012020	260120	223213	56.140	12.264337	-56.478418	56.270	0.160	-0.310	0.820	56.140	-1.700	1.100																			1580077933.0	0.70	1.30
26/01/2020 22:32:14	26012020	260120	223214	56.030	12.264335	-56.478417	56.160	0.220	-0.160	1.220	56.030	-1.500	1.600																			1580077934.0	0.64	1.19
26/01/2020 22:32:15	26012020	260120	223215	55.900	12.264332	-56.478417	56.040	0.010	-0.010	1.380	55.900	-1.400	1.800																			1580077935.0	0.50	0.93
26/01/2020 22:32:16	26012020	260120	223216	55.850	12.264332	-56.478417	56.000	-0.270	-0.000	1.260	55.850	-1.400	1.700																			1580077936.0	0.29	0.54
26/01/2020 22:32:17	26012020	260120	223217	55.860	12.264333	-56.478418	56.010	-0.350	-0.140	0.970	55.860	-1.500	1.400																			1580077937.0	0.56	1.04
26/01/2020 22:32:18	26012020	260120	223218	55.990	12.264337	-56.478420	56.130	-0.080	-0.390	0.550	55.990	-1.700	1.000																			1580077938.0	0.74	1.37
26/01/2020 22:32:19	26012020	260120	223219	56.240	12.264340	-56.478422	56.380	0.380	-0.640	0.130	56.240	-2.000	0.600																			1580077939.0	0.64	1.19
26/01/2020 22:32:20	26012020	260120	223220	56.490	12.264342	-56.478420	56.620	0.680	-0.690	-0.120	56.490	-2.100	0.300																			1580077940.0	0.38	0.70
26/01/2020 22:32:21	26012020	260120	223221	56.570	12.264340	-56.478418	56.710	0.550	-0.430	-0.130	56.570	-1.800	0.200																			1580077941.0	0.37	0.69
26/01/2020 22:32:22	26012020	260120	223222	56.440	12.264338	-56.478418	56.560	0.040	0.100	0.070	56.440	-1.300	0.400																			1580077942.0	0.45	0.83
26/01/2020 22:32:23	26012020	260120	223223	56.130	12.264337	-56.478418	56.250	-0.510	0.720	0.440	56.130	-0.700	0.800																			1580077943.0	0.52	0.96
26/01/2020 22:32:24	26012020	260120	223224	55.880	12.264333	-56.478420	56.010	-0.720	0.920	0.660	55.880	-0.400	1.000																			1580077944.0	0.61	1.13
26/01/2020 22:32:25	26012020	260120	223225	55.880	12.264333	-56.478420	56.010	-0.480	0.430	0.590	55.880	-0.900	1.000																			1580077945.0	0.23	0.43
26/01/2020 22:32:26	26012020	260120	223226	56.070	12.264335	-56.478418	56.220	0.000	-0.370	0.300	56.070	-1.600	0.700																			1580077946.0	0.41	0.76
26/01/2020 22:32:27	26012020	260120	223227	56.270	12.264337	-56.478417	56.400	0.350	-0.850	0.000	56.270	-2.200	0.400																			1580077947.0	0.64	1.19
26/01/2020 22:32:28	26012020	260120	223228	56.310	12.264338	-56.478417	56.420	0.400	-0.780	-0.120	56.310	-2.200	0.300																			1580077948.0	0.38	0.70
26/01/2020 22:32:29	26012020	260120	223229	56.250	12.264338	-56.478418	56.370	0.220	-0.420	-0.020	56.250	-1.800	0.400																			1580077949.0	0.34	0.63
26/01/2020 22:32:30	26012020	260120	223230	56.230	12.264338	-56.478420	56.360	0.020	-0.120	0.240	56.230	-1.500	0.600																			1580077950.0	0.36	0.67
26/01/2020 22:32:31	26012020	260120	223231	56.250	12.264338	-56.478420	56.400	-0.100	0.070	0.610	56.250	-1.300	1.000																			1580077951.0	0.22	0.41
26/01/2020 22:32:32	26012020	260120	223232	56.290	12.264335	-56.478418	56.460	-0.120	0.100	0.970	56.290	-1.300	1.300																			1580077952.0	0.52	0.96
26/01/2020 22:32:33	26012020	260120	223233	56.310	12.264333	-56.478417	56.470	-0.070	0.040	1.260	56.310	-1.300	1.600																			1580077953.0	0.76	1.41
26/01/2020 22:32:34	26012020	260120	223234	56.210	12.264330	-56.478413	56.370	-0.000	-0.030	1.490	56.210	-1.400	1.900																			1580077954.0	0.78	1.44
26/01/2020 22:32:35	26012020	260120	223235	56.030	12.264328	-56.478412	56.180	0.030	-0.040	1.490	56.030	-1.400	1.900																			1580077955.0	0.55	1.02
26/01/2020 22:32:36	26012020	260120	223236	55.900	12.264328	-56.478413	56.040	0.060	-0.070	1.110	55.900	-1.400	1.600																			1580077956.0	0.06	0.11
26/01/2020 22:32:37	26012020	260120	223237	55.920	12.264332	-56.478415	56.090	0.120	-0.200	0.440	55.920	-1.500	0.900																			1580077957.0	0.71	1.31
26/01/2020 22:32:38	26012020	260120	223238	56.110	12.264335	-56.478417	56.250	0.160	-0.290	-0.230	56.110	-1.700	0.200																			1580077958.0	1.06	1.96
26/01/2020 22:32:39	26012020	260120	223239	56.220	12.264338	-56.478418	56.360	0.040	-0.130	-0.620	56.220	-1.500	-0.200																			1580077959.0	0.85	1.57
26/01/2020 22:32:40	26012020	260120	223240	56.230	12.264340	-56.478420	56.360	-0.320	0.170	-0.640	56.230	-1.200	-0.300																			1580077960.0	0.40	0.74
26/01/2020 22:32:41	26012020	260120	223241	56.170	12.264338	-56.478422	56.310	-0.670	0.240	-0.370	56.170	-1.100	-0.000																			1580077961.0	0.44	0.81
26/01/2020 22:32:42	26012020	260120	223242	56.130	12.264335	-56.478422	56.280	-0.670	-0.060	0.070	56.130	-1.400	0.400																			1580077962.0	0.50	0.93
26/01/2020 22:32:43	26012020	260120	223243	56.100	12.264333	-56.478418	56.250	-0.150	-0.570	0.610	56.100	-1.900	0.900																			1580077963.0	0.70	1.30
26/01/2020 22:32:44	26012020	260120	223244	56.050	12.264332	-56.478415	56.220	0.610	-0.940	1.090	56.050	-2.300	1.400																			1580077964.0	1.00	1.85
26/01/2020 22:32:45	26012020	260120	223245	56.000	12.264330	-56.478410	56.170	1.070	-0.870	1.340	56.000	-2.300	1.700																			1580077965.0	0.98	1.81
26/01/2020 22:32:46	26012020	260120	223246	55.940	12.264328	-56.478408	56.110	0.890	-0.190	1.300	55.940	-1.700	1.700																			1580077966.0	0.41	0.76
26/01/2020 22:32:47	26012020	260120	223247	55.900	12.264328	-56.478412	56.080	0.220	0.720	0.990	55.900	-0.700	1.400																			1580077967.0	0.60	1.11
26/01/2020 22:32:48	26012020	260120	223248	55.900	12.264330	-56.478417	56.060	-0.460	1.180	0.560	55.900	-0.200	1.000																			1580077968.0	1.19	2.20
26/01/2020 22:32:49	26012020	260120	223249	55.930	12.264332	-56.478422	56.090	-0.760	0.850	0.130	55.930	-0.400	0.600																			1580077969.0	1.17	2.17
26/01/2020 22:32:50	26012020	260120	223250	56.060	12.264335	-56.478423	56.220	-0.630	-0.070	-0.200	56.060	-1.300	0.200																			1580077970.0	0.79	1.46
26/01/2020 22:32:51	26012020	260120	223251	56.220	12.264338	-56.478422	56.380	-0.350	-0.950	-0.300	56.220	-2.200	0.100																			1580077971.0	0.66	1.22
26/01/2020 22:32:52	26012020	260120	223252	56.260	12.264337	-56.478417	56.410	-0.200	-1.210	-0.020	56.260	-2.600	0.300																			1580077972.0	0.82	1.52
26/01/2020 22:32:53	26012020	260120	223253	56.150	12.264333	-56.478415	56.310	-0.210	-0.750	0.450	56.150	-2.200	0.800																			1580077973.0	1.02	1.89
26/01/2020 22:32:54	26012020	260120	223254	56.050	12.264328	-56.478413	56.240	-0.150	-0.090	0.740	56.050	-1.500	1.100																			1580077974.0	1.20	2.22
26/01/2020 22:32:55	26012020	260120	223255	56.040	12.264323	-56.478415	56.230	0.120	0.250	0.660	56.040	-1.100	1.100																			1580077975.0	0.81	1.50
26/01/2020 22:32:56	26012020	260120	223256	56.060	12.264325	-56.478417	56.240	0.560	0.150	0.330	56.060	-1.200	0.800																			1580077976.0	0.33	0.61
26/01/2020 22:32:57	26012020	260120	223257	56.070	12.264328	-56.478418	56.240	0.920	-0.090	-0.010	56.070	-1.400	0.400																			1580077977.0	0.88	1.63
26/01/2020 22:32:58	26012020	260120	223258	56.070	12.264333	-56.478418	56.240	0.890	-0.200	-0.180	56.070	-1.600	0.200																			1580077978.0	0.95	1.76
26/01/2020 22:32:59	26012020	260120	223259	56.130	12.264335	-56.478420	56.300	0.410	-0.130	-0.150	56.130	-1.500	0.200																			1580077979.0	0.62	1.15
26/01/2020 22:33:00	26012020	260120	223300	56.310	12.264337	-56.478420	56.490	-0.270	-0.010	0.020	56.310	-1.400	0.400	1015.00	26.00	26.10	20.80	20.80	-2.00	72.00	72.00	378.00	25.20	343.00	4.00	38.00	3.70	15	3772.00	27.70	27.70	1580077980.0	0.27	0.50
26/01/2020 22:33:01	26012020	260120	223301	56.540	12.264335	-56.478420	56.730	-0.740	0.080	0.410	56.540	-1.300	0.700																			1580077981.0	0.24	0.44
26/01/2020 22:33:02	26012020	260120	223302	56.710	12.264332	-56.478418	56.900	-0.830	0.130	1.000	56.710	-1.200	1.300																			1580077982.0	0.88	1.63
26/01/2020 22:33:03	26012020	260120	223303	56.730	12.264325	-56.478415	56.930	-0.660	0.070	1.590	56.730	-1.300	1.900																			1580077983.0	1.45	2.69
26/01/2020 22:33:04	26012020	260120	223304	56.570	12.264320	-56.478412	56.770	-0.460	-0.020	1.930	56.570	-1.400	2.300																			1580077984.0	1.41	2.61
26/01/2020 22:33:05	26012020	260120	223305	56.400	12.264317	-56.478410	56.600	-0.250	-0.150	1.770	56.400	-1.500	2.200																			1580077985.0	0.70	1.30
26/01/2020 22:33:06	26012020	260120	223306	56.430	12.264318	-56.478412	56.630	0.090	-0.370	1.110	56.430	-1.700	1.600																			1580077986.0	0.34	0.63
26/01/2020 22:33:07	26012020	260120	223307	56.730	12.264323	-56.478413	56.910	0.560	-0.620	0.130	56.730	-2.000	0.600																			1580077987.0	1.11	2.06
26/01/2020 22:33:08	26012020	260120	223308	57.020	12.264328	-56.478417	57.180	0.900	-0.680	-0.790	57.020	-2.100	-0.300																			1580077988.0	1.42	2.63
26/01/2020 22:33:09	26012020	260120	223309	57.090	12.264333	-56.478420	57.210	0.880	-0.390	-1.250	57.090	-1.800	-0.900																			1580077989.0	1.23	2.28
26/01/2020 22:33:10	26012020	260120	223310	56.930	12.264337	-56.478422	57.040	0.480	0.120	-1.070	56.930	-1.300	-0.700																			1580077990.0	0.64	1.19
26/01/2020 22:33:11	26012020	260120	223311	56.700	12.264335	-56.478423	56.820	-0.100	0.470	-0.430	56.700	-0.900	-0.100																			1580077991.0	0.41	0.76
26/01/2020 22:33:12	26012020	260120	223312	56.570	12.264332	-56.478422	56.740	-0.570	0.410	0.280	56.570	-0.900	0.600																			1580077992.0	0.72	1.33
26/01/2020 22:33:13	26012020	260120	223313	56.690	12.264328	-56.478420	56.880	-0.690	0.030	0.780	56.690	-1.300	1.100																			1580077993.0	0.70	1.30
26/01/2020 22:33:14	26012020	260120	223314	56.940	12.264327	-56.478417	57.140	-0.480	-0.330	1.170	56.940	-1.700	1.500																			1580077994.0	0.68	1.26
26/01/2020 22:33:15	26012020	260120	223315	57.070	12.264325	-56.478413	57.290	-0.140	-0.390	1.560	57.070	-1.800	1.900																			1580077995.0	0.74	1.37
26/01/2020 22:33:16	26012020	260120	223316	57.100	12.264322	-56.478412	57.310	0.070	-0.240	1.820	57.100	-1.600	2.200																			1580077996.0	0.90	1.67
26/01/2020 22:33:17	26012020	260120	223317	57.080	12.264318	-56.478412	57.270	0.080	-0.050	1.820	57.080	-1.400	2.200																			1580077997.0	0.74	1.37
26/01/2020 22:33:18	26012020	260120	223318	57.030	12.264317	-56.478412	57.240	0.040	0.020	1.540	57.030	-1.300	2.000																			1580077998.0	0.26	0.48
26/01/2020 22:33:19	26012020	260120	223319	56.980	12.264318	-56.478413	57.180	0.100	-0.030	0.950	56.980	-1.400	1.400																			1580077999.0	0.42	0.78
26/01/2020 22:33:20	26012020	260120	223320	56.940	12.264322	-56.478415	57.120	0.230	-0.170	0.130	56.940	-1.500	0.600																			1580078000.0	0.90	1.67
26/01/2020 22:33:21	26012020	260120	223321	56.920	12.264327	-56.478418	57.070	0.280	-0.220	-0.660	56.920	-1.600	-0.200																			1580078001.0	1.24	2.30
26/01/2020 22:33:22	26012020	260120	223322	56.950	12.264332	-56.478422	57.100	0.160	-0.180	-1.190	56.950	-1.500	-0.800																			1580078002.0	1.21	2.24
26/01/2020 22:33:23	26012020	260120	223323	57.120	12.264335	-56.478423	57.270	0.000	-0.200	-1.380	57.120	-1.600	-1.000																			1580078003.0	0.86	1.59
26/01/2020 22:33:24	26012020	260120	223324	57.320	12.264337	-56.478423	57.470	-0.090	-0.300	-1.130	57.320	-1.700	-0.800																			1580078004.0	0.23	0.43
26/01/2020 22:33:25	26012020	260120	223325	57.410	12.264333	-56.478422	57.570	-0.140	-0.320	-0.450	57.410	-1.700	-0.200																			1580078005.0	0.57	1.06
26/01/2020 22:33:26	26012020	260120	223326	57.290	12.264330	-56.478418	57.470	-0.160	-0.150	0.560	57.290	-1.500	0.800																			1580078006.0	1.15	2.13
26/01/2020 22:33:27	26012020	260120	223327	57.100	12.264323	-56.478417	57.250	-0.130	0.130	1.630	57.100	-1.300	1.900																			1580078007.0	1.46	2.70
26/01/2020 22:33:28	26012020	260120	223328	56.880	12.264317	-56.478413	57.110	-0.020	0.190	2.370	56.880	-1.200	2.700																			1580078008.0	1.47	2.72
26/01/2020 22:33:29	26012020	260120	223329	56.880	12.264313	-56.478412	57.140	0.100	-0.100	2.460	56.880	-1.400	2.800																			1580078009.0	0.90	1.67
26/01/2020 22:33:30	26012020	260120	223330	57.020	12.264315	-56.478410	57.270	0.150	-0.370	2.040	57.020	-1.700	2.500																			1580078010.0	0.30	0.56
26/01/2020 22:33:31	26012020	260120	223331	57.130	12.264318	-56.478412	57.370	0.140	-0.310	1.380	57.130	-1.700	1.800																			1580078011.0	0.79	1.46
26/01/2020 22:33:32	26012020	260120	223332	57.200	12.264322	-56.478413	57.420	0.120	-0.040	0.690	57.200	-1.500	1.100																			1580078012.0	1.02	1.89
26/01/2020 22:33:33	26012020	260120	223333	57.210	12.264323	-56.478418	57.400	0.090	0.150	0.120	57.210	-1.200	0.600																			1580078013.0	0.88	1.63
26/01/2020 22:33:34	26012020	260120	223334	57.050	12.264325	-56.478420	57.220	-0.020	0.220	-0.170	57.050	-1.200	0.200																			1580078014.0	0.55	1.02
26/01/2020 22:33:35	26012020	260120	223335	56.790	12.264327	-56.478422	56.950	-0.200	0.160	-0.270	56.790	-1.200	0.100																			1580078015.0	0.29	0.54
26/01/2020 22:33:36	26012020	260120	223336	56.600	12.264327	-56.478422	56.740	-0.340	-0.060	-0.360	56.600	-1.400	0.000																			1580078016.0	0.20	0.37
26/01/2020 22:33:37	26012020	260120	223337	56.530	12.264328	-56.478423	56.680	-0.320	-0.400	-0.450	56.530	-1.700	-0.100																			1580078017.0	0.31	0.57
26/01/2020 22:33:38	26012020	260120	223338	56.540	12.264330	-56.478422	56.700	-0.110	-0.730	-0.350	56.540	-2.100	0.000																			1580078018.0	0.37	0.69
26/01/2020 22:33:39	26012020	260120	223339	56.570	12.264330	-56.478420	56.740	0.150	-0.830	0.020	56.570	-2.200	0.300																			1580078019.0	0.37	0.69
26/01/2020 22:33:40	26012020	260120	223340	56.580	12.264328	-56.478418	56.760	0.320	-0.550	0.510	56.580	-2.000	0.800																			1580078020.0	0.61	1.13
26/01/2020 22:33:41	26012020	260120	223341	56.530	12.264325	-56.478417	56.720	0.300	-0.000	0.980	56.530	-1.400	1.300																			1580078021.0	0.85	1.57
26/01/2020 22:33:42	26012020	260120	223342	56.440	12.264322	-56.478415	56.640	0.150	0.490	1.290	56.440	-0.900	1.600																			1580078022.0	0.88	1.63
26/01/2020 22:33:43	26012020	260120	223343	56.330	12.264318	-56.478415	56.540	-0.010	0.670	1.360	56.330	-0.700	1.700																			1580078023.0	0.50	0.93
26/01/2020 22:33:44	26012020	260120	223344	56.230	12.264318	-56.478417	56.430	-0.080	0.450	1.160	56.230	-0.900	1.600																			1580078024.0	0.19	0.35
26/01/2020 22:33:45	26012020	260120	223345	56.220	12.264322	-56.478417	56.420	-0.050	-0.070	0.730	56.220	-1.400	1.200																			1580078025.0	0.68	1.26
26/01/2020 22:33:46	26012020	260120	223346	56.340	12.264327	-56.478417	56.520	-0.020	-0.530	0.220	56.340	-1.900	0.700																			1580078026.0	0.93	1.72
26/01/2020 22:33:47	26012020	260120	223347	56.530	12.264330	-56.478418	56.700	-0.070	-0.610	-0.190	56.530	-2.000	0.200																			1580078027.0	0.77	1.43
26/01/2020 22:33:48	26012020	260120	223348	56.660	12.264330	-56.478418	56.810	-0.210	-0.310	-0.300	56.660	-1.700	0.100																			1580078028.0	0.24	0.44
26/01/2020 22:33:49	26012020	260120	223349	56.610	12.264328	-56.478420	56.750	-0.360	0.100	-0.110	56.610	-1.300	0.200																			1580078029.0	0.52	0.96
26/01/2020 22:33:50	26012020	260120	223350	56.420	12.264325	-56.478420	56.570	-0.370	0.290	0.190	56.420	-1.100	0.500																			1580078030.0	0.70	1.30
26/01/2020 22:33:51	26012020	260120	223351	56.270	12.264323	-56.478420	56.400	-0.120	0.030	0.400	56.270	-1.300	0.800																			1580078031.0	0.40	0.74
26/01/2020 22:33:52	26012020	260120	223352	56.240	12.264325	-56.478420	56.400	0.290	-0.570	0.470	56.240	-1.900	0.800																			1580078032.0	0.27	0.50
26/01/2020 22:33:53	26012020	260120	223353	56.320	12.264327	-56.478417	56.520	0.550	-1.000	0.530	56.320	-2.300	0.900																			1580078033.0	0.69	1.28
26/01/2020 22:33:54	26012020	260120	223354	56.510	12.264328	-56.478415	56.690	0.460	-0.800	0.670	56.510	-2.200	1.000																			1580078034.0	0.54	1.00
26/01/2020 22:33:55	26012020	260120	223355	56.620	12.264327	-56.478415	56.790	0.080	-0.050	0.860	56.620	-1.500	1.200																			1580078035.0	0.31	0.57
26/01/2020 22:33:56	26012020	260120	223356	56.550	12.264323	-56.478415	56.720	-0.280	0.720	1.050	56.550	-0.700	1.400																			1580078036.0	0.78	1.44
26/01/2020 22:33:57	26012020	260120	223357	56.360	12.264320	-56.478417	56.550	-0.360	0.940	1.160	56.360	-0.400	1.500																			1580078037.0	0.73	1.35
26/01/2020 22:33:58	26012020	260120	223358	56.290	12.264320	-56.478417	56.490	-0.130	0.450	1.010	56.290	-0.800	1.400																			1580078038.0	0.11	0.20
26/01/2020 22:33:59	26012020	260120	223359	56.370	12.264323	-56.478417	56.550	0.190	-0.250	0.650	56.370	-1.600	1.100																			1580078039.0	0.68	1.26
26/01/2020 22:34:00	26012020	260120	223400	56.380	12.264327	-56.478417	56.560	0.290	-0.540	0.310	56.380	-1.900	0.700	1015.00	26.00	26.10	20.60	20.70	-2.00	72.00	72.00	377.00	25.20	344.00	3.90	40.00	3.60	15	3841.00	27.70	27.70	1580078040.0	0.91	1.69
26/01/2020 22:34:01	26012020	260120	223401	56.280	12.264328	-56.478418	56.450	0.050	-0.310	0.160	56.280	-1.700	0.500																			1580078041.0	0.58	1.07
26/01/2020 22:34:02	26012020	260120	223402	56.160	12.264328	-56.478420	56.320	-0.340	-0.040	0.140	56.160	-1.400	0.500																			1580078042.0	0.55	1.02
26/01/2020 22:34:03	26012020	260120	223403	56.110	12.264327	-56.478422	56.260	-0.560	-0.150	0.200	56.110	-1.500	0.600																			1580078043.0	0.44	0.81
26/01/2020 22:34:04	26012020	260120	223404	56.070	12.264327	-56.478422	56.230	-0.370	-0.550	0.390	56.070	-1.900	0.700																			1580078044.0	0.20	0.37
26/01/2020 22:34:05	26012020	260120	223405	56.030	12.264327	-56.478418	56.180	0.110	-0.830	0.650	56.030	-2.200	1.000																			1580078045.0	0.63	1.17
26/01/2020 22:34:06	26012020	260120	223406	55.850	12.264327	-56.478415	56.020	0.560	-0.670	0.850	55.850	-2.100	1.200																			1580078046.0	0.67	1.24
26/01/2020 22:34:07	26012020	260120	223407	55.690	12.264325	-56.478413	55.810	0.680	-0.090	0.920	55.690	-1.500	1.300																			1580078047.0	0.38	0.70
26/01/2020 22:34:08	26012020	260120	223408	55.490	12.264323	-56.478415	55.640	0.410	0.540	0.770	55.490	-0.900	1.200																			1580078048.0	0.32	0.59
26/01/2020 22:34:09	26012020	260120	223409	55.400	12.264325	-56.478418	55.550	-0.040	0.810	0.430	55.400	-0.600	0.900																			1580078049.0	0.63	1.17
26/01/2020 22:34:10	26012020	260120	223410	55.430	12.264328	-56.478422	55.600	-0.390	0.550	-0.060	55.430	-0.800	0.400																			1580078050.0	0.96	1.78
26/01/2020 22:34:11	26012020	260120	223411	55.570	12.264333	-56.478423	55.740	-0.430	-0.070	-0.420	55.570	-1.400	-0.000																			1580078051.0	1.13	2.09
26/01/2020 22:34:12	26012020	260120	223412	55.720	12.264337	-56.478422	55.890	-0.190	-0.610	-0.440	55.720	-1.900	-0.100																			1580078052.0	0.83	1.54
26/01/2020 22:34:13	26012020	260120	223413	55.760	12.264337	-56.478420	55.920	0.060	-0.700	-0.060	55.760	-2.100	0.300																			1580078053.0	0.49	0.91
26/01/2020 22:34:14	26012020	260120	223414	55.610	12.264333	-56.478418	55.770	0.100	-0.400	0.590	55.610	-1.800	0.900																			1580078054.0	1.04	1.93
26/01/2020 22:34:15	26012020	260120	223415	55.400	12.264327	-56.478415	55.570	-0.050	-0.040	1.070	55.400	-1.500	1.400																			1580078055.0	1.26	2.33
26/01/2020 22:34:16	26012020	260120	223416	55.310	12.264323	-56.478415	55.460	-0.210	0.170	1.080	55.310	-1.200	1.500																			1580078056.0	0.71	1.31
26/01/2020 22:34:17	26012020	260120	223417	55.320	12.264325	-56.478417	55.500	-0.170	0.120	0.690	55.320	-1.200	1.100																			1580078057.0	0.37	0.69
26/01/2020 22:34:18	26012020	260120	223418	55.480	12.264328	-56.478420	55.630	0.060	-0.170	0.170	55.480	-1.500	0.600																			1580078058.0	0.93	1.72
26/01/2020 22:34:19	26012020	260120	223419	55.590	12.264333	-56.478420	55.750	0.260	-0.470	-0.150	55.590	-1.800	0.200																			1580078059.0	1.02	1.89
26/01/2020 22:34:20	26012020	260120	223420	55.670	12.264337	-56.478420	55.820	0.260	-0.570	-0.180	55.670	-1.900	0.200																			1580078060.0	0.66	1.22
26/01/2020 22:34:21	26012020	260120	223421	55.700	12.264337	-56.478420	55.840	0.110	-0.400	-0.010	55.700	-1.800	0.300																			1580078061.0	0.14	0.26
26/01/2020 22:34:22	26012020	260120	223422	55.720	12.264335	-56.478420	55.850	-0.010	-0.070	0.290	55.720	-1.500	0.600																			1580078062.0	0.43	0.80
26/01/2020 22:34:23	26012020	260120	223423	55.750	12.264332	-56.478418	55.890	-0.010	0.200	0.630	55.750	-1.200	1.000																			1580078063.0	0.73	1.35
26/01/2020 22:34:24	26012020	260120	223424	55.820	12.264328	-56.478417	55.970	0.030	0.260	0.860	55.820	-1.100	1.200																			1580078064.0	0.69	1.28
26/01/2020 22:34:25	26012020	260120	223425	55.850	12.264327	-56.478415	56.010	0.030	0.240	0.870	55.850	-1.100	1.200																			1580078065.0	0.37	0.69
26/01/2020 22:34:26	26012020	260120	223426	55.780	12.264328	-56.478415	55.930	-0.060	0.260	0.740	55.780	-1.100	1.100																			1580078066.0	0.08	0.15
26/01/2020 22:34:27	26012020	260120	223427	55.670	12.264328	-56.478417	55.830	-0.120	0.180	0.530	55.670	-1.200	0.900																			1580078067.0	0.47	0.87
26/01/2020 22:34:28	26012020	260120	223428	55.670	12.264332	-56.478420	55.830	-0.040	-0.190	0.240	55.670	-1.500	0.600																			1580078068.0	0.65	1.20
26/01/2020 22:34:29	26012020	260120	223429	55.770	12.264333	-56.478420	55.920	0.140	-0.720	-0.030	55.770	-2.000	0.400																			1580078069.0	0.69	1.28
26/01/2020 22:34:30	26012020	260120	223430	55.870	12.264337	-56.478420	56.020	0.210	-0.970	-0.110	55.870	-2.300	0.300																			1580078070.0	0.61	1.13
26/01/2020 22:34:31	26012020	260120	223431	55.930	12.264337	-56.478418	56.090	0.080	-0.660	0.060	55.930	-2.100	0.400																			1580078071.0	0.22	0.41
26/01/2020 22:34:32	26012020	260120	223432	55.890	12.264335	-56.478418	56.030	-0.190	0.000	0.440	55.890	-1.500	0.800																			1580078072.0	0.56	1.04
26/01/2020 22:34:33	26012020	260120	223433	55.710	12.264330	-56.478418	55.860	-0.390	0.530	0.910	55.710	-0.900	1.200																			1580078073.0	1.00	1.85
26/01/2020 22:34:34	26012020	260120	223434	55.550	12.264327	-56.478418	55.720	-0.380	0.500	1.150	55.550	-0.800	1.500																			1580078074.0	0.86	1.59
26/01/2020 22:34:35	26012020	260120	223435	55.570	12.264325	-56.478417	55.740	-0.120	0.030	0.960	55.570	-1.300	1.400																			1580078075.0	0.30	0.56
26/01/2020 22:34:36	26012020	260120	223436	55.710	12.264328	-56.478415	55.880	0.260	-0.390	0.530	55.710	-1.700	1.000																			1580078076.0	0.65	1.20
26/01/2020 22:34:37	26012020	260120	223437	55.800	12.264332	-56.478415	55.960	0.590	-0.460	0.140	55.800	-1.900	0.500																			1580078077.0	0.74	1.37
26/01/2020 22:34:38	26012020	260120	223438	55.720	12.264333	-56.478417	55.870	0.640	-0.250	-0.040	55.720	-1.700	0.300																			1580078078.0	0.50	0.93
26/01/2020 22:34:39	26012020	260120	223439	55.520	12.264335	-56.478418	55.660	0.390	-0.000	-0.010	55.520	-1.400	0.400																			1580078079.0	0.41	0.76
26/01/2020 22:34:40	26012020	260120	223440	55.370	12.264335	-56.478420	55.540	0.020	0.060	0.130	55.370	-1.300	0.500																			1580078080.0	0.32	0.59
26/01/2020 22:34:41	26012020	260120	223441	55.460	12.264337	-56.478420	55.640	-0.280	-0.140	0.200	55.460	-1.500	0.600																			1580078081.0	0.17	0.31
26/01/2020 22:34:42	26012020	260120	223442	55.780	12.264337	-56.478420	55.960	-0.430	-0.300	0.220	55.780	-1.700	0.600																			1580078082.0	0.27	0.50
26/01/2020 22:34:43	26012020	260120	223443	56.020	12.264337	-56.478418	56.170	-0.470	-0.080	0.450	56.020	-1.500	0.800																			1580078083.0	0.37	0.69
26/01/2020 22:34:44	26012020	260120	223444	55.950	12.264332	-56.478417	56.090	-0.460	0.310	0.930	55.950	-1.100	1.200																			1580078084.0	0.89	1.65
26/01/2020 22:34:45	26012020	260120	223445	55.700	12.264327	-56.478415	55.860	-0.350	0.330	1.390	55.700	-1.000	1.700																			1580078085.0	1.14	2.11
26/01/2020 22:34:46	26012020	260120	223446	55.510	12.264323	-56.478413	55.690	-0.080	-0.110	1.530	55.510	-1.400	1.900																			1580078086.0	0.73	1.35
26/01/2020 22:34:47	26012020	260120	223447	55.460	12.264325	-56.478412	55.650	0.250	-0.600	1.240	55.460	-1.900	1.700																			1580078087.0	0.40	0.74
26/01/2020 22:34:48	26012020	260120	223448	55.500	12.264328	-56.478412	55.670	0.500	-0.750	0.650	55.500	-2.100	1.100																			1580078088.0	0.75	1.39
26/01/2020 22:34:49	26012020	260120	223449	55.520	12.264332	-56.478415	55.670	0.550	-0.510	0.070	55.520	-1.900	0.500																			1580078089.0	1.03	1.91
26/01/2020 22:34:50	26012020	260120	223450	55.510	12.264335	-56.478418	55.650	0.400	-0.160	-0.380	55.510	-1.600	0.000																			1580078090.0	0.99	1.83
26/01/2020 22:34:51	26012020	260120	223451	55.580	12.264338	-56.478420	55.720	0.130	0.060	-0.690	55.580	-1.300	-0.300																			1580078091.0	0.74	1.37
26/01/2020 22:34:52	26012020	260120	223452	55.710	12.264340	-56.478422	55.860	-0.120	0.190	-0.740	55.710	-1.200	-0.400																			1580078092.0	0.48	0.89
26/01/2020 22:34:53	26012020	260120	223453	55.780	12.264340	-56.478422	55.930	-0.240	0.330	-0.410	55.780	-1.100	-0.100																			1580078093.0	0.08	0.15
26/01/2020 22:34:54	26012020	260120	223454	55.780	12.264338	-56.478422	55.940	-0.250	0.320	0.190	55.780	-1.000	0.500																			1580078094.0	0.54	1.00
26/01/2020 22:34:55	26012020	260120	223455	55.820	12.264333	-56.478418	56.010	-0.200	0.030	0.760	55.820	-1.300	1.100																			1580078095.0	0.93	1.72
26/01/2020 22:34:56	26012020	260120	223456	55.990	12.264332	-56.478415	56.180	-0.150	-0.410	1.170	55.990	-1.700	1.500																			1580078096.0	0.94	1.74
26/01/2020 22:34:57	26012020	260120	223457	56.130	12.264330	-56.478412	56.320	-0.110	-0.580	1.460	56.130	-2.000	1.800																			1580078097.0	0.76	1.41
26/01/2020 22:34:58	26012020	260120	223458	56.160	12.264328	-56.478410	56.350	-0.080	-0.340	1.630	56.160	-1.800	2.000																			1580078098.0	0.55	1.02
26/01/2020 22:34:59	26012020	260120	223459	56.030	12.264325	-56.478410	56.210	-0.110	0.050	1.600	56.030	-1.400	2.000																			1580078099.0	0.49	0.91
26/01/2020 22:35:00	26012020	260120	223500	55.780	12.264325	-56.478412	55.950	-0.120	0.200	1.330	55.780	-1.200	1.800	1015.00	26.00	26.10	20.80	20.80	-2.00	72.00	72.00	378.00	25.20	344.00	3.70	38.00	3.50	15	3839.00	27.70	27.60	1580078100.0	0.41	0.76
26/01/2020 22:35:01	26012020	260120	223501	55.630	12.264327	-56.478415	55.780	-0.020	-0.020	0.740	55.630	-1.400	1.200																			1580078101.0	0.62	1.15
26/01/2020 22:35:02	26012020	260120	223502	55.700	12.264332	-56.478417	55.860	0.210	-0.340	-0.080	55.700	-1.700	0.400																			1580078102.0	1.14	2.11
26/01/2020 22:35:03	26012020	260120	223503	55.890	12.264337	-56.478418	56.030	0.400	-0.460	-0.830	55.890	-1.800	-0.400																			1580078103.0	1.28	2.37
26/01/2020 22:35:04	26012020	260120	223504	56.090	12.264342	-56.478420	56.200	0.370	-0.330	-1.270	56.090	-1.700	-0.900																			1580078104.0	0.96	1.78
26/01/2020 22:35:05	26012020	260120	223505	56.270	12.264343	-56.478422	56.370	0.100	-0.140	-1.340	56.270	-1.500	-1.000																			1580078105.0	0.47	0.87
26/01/2020 22:35:06	26012020	260120	223506	56.430	12.264342	-56.478422	56.540	-0.170	-0.050	-1.000	56.430	-1.400	-0.700																			1580078106.0	0.11	0.20
26/01/2020 22:35:07	26012020	260120	223507	56.510	12.264340	-56.478420	56.640	-0.230	-0.090	-0.250	56.510	-1.500	0.000																			1580078107.0	0.59	1.09
26/01/2020 22:35:08	26012020	260120	223508	56.470	12.264337	-56.478417	56.600	-0.090	-0.090	0.800	56.470	-1.500	1.000																			1580078108.0	1.16	2.15
26/01/2020 22:35:09	26012020	260120	223509	56.350	12.264332	-56.478412	56.480	0.050	0.000	1.770	56.350	-1.400	2.000																			1580078109.0	1.47	2.72
26/01/2020 22:35:10	26012020	260120	223510	56.200	12.264327	-56.478408	56.360	0.040	0.110	2.250	56.200	-1.300	2.600																			1580078110.0	1.22	2.26
26/01/2020 22:35:11	26012020	260120	223511	56.150	12.264323	-56.478408	56.320	-0.080	0.200	2.210	56.150	-1.200	2.600																			1580078111.0	0.49	0.91
26/01/2020 22:35:12	26012020	260120	223512	56.240	12.264325	-56.478408	56.400	-0.190	0.210	1.760	56.240	-1.200	2.200																			1580078112.0	0.25	0.46
26/01/2020 22:35:13	26012020	260120	223513	56.430	12.264327	-56.478412	56.570	-0.250	0.060	1.000	56.430	-1.300	1.500																			1580078113.0	0.66	1.22
26/01/2020 22:35:14	26012020	260120	223514	56.590	12.264330	-56.478413	56.720	-0.230	-0.180	0.180	56.590	-1.500	0.600																			1580078114.0	0.93	1.72
26/01/2020 22:35:15	26012020	260120	223515	56.600	12.264333	-56.478415	56.700	-0.160	-0.420	-0.430	56.600	-1.800	-0.000																			1580078115.0	0.88	1.63
26/01/2020 22:35:16	26012020	260120	223516	56.500	12.264337	-56.478417	56.580	-0.040	-0.620	-0.740	56.500	-2.000	-0.300																			1580078116.0	0.58	1.07
26/01/2020 22:35:17	26012020	260120	223517	56.380	12.264338	-56.478417	56.460	0.140	-0.720	-0.830	56.380	-2.100	-0.500																			1580078117.0	0.32	0.59
26/01/2020 22:35:18	26012020	260120	223518	56.310	12.264338	-56.478417	56.400	0.340	-0.690	-0.790	56.310	-2.100	-0.400																			1580078118.0	0.24	0.44
26/01/2020 22:35:19	26012020	260120	223519	56.340	12.264340	-56.478417	56.440	0.520	-0.480	-0.580	56.340	-1.900	-0.300																			1580078119.0	0.21	0.39
26/01/2020 22:35:20	26012020	260120	223520	56.450	12.264338	-56.478415	56.570	0.580	-0.110	-0.140	56.450	-1.500	0.200																			1580078120.0	0.26	0.48
26/01/2020 22:35:21	26012020	260120	223521	56.590	12.264337	-56.478413	56.730	0.420	0.360	0.450	56.590	-1.100	0.700																			1580078121.0	0.57	1.06
26/01/2020 22:35:22	26012020	260120	223522	56.710	12.264333	-56.478412	56.860	0.030	0.730	1.040	56.710	-0.700	1.300																			1580078122.0	0.92	1.70
26/01/2020 22:35:23	26012020	260120	223523	56.710	12.264328	-56.478410	56.870	-0.510	0.870	1.530	56.710	-0.500	1.800																			1580078123.0	0.98	1.81
26/01/2020 22:35:24	26012020	260120	223524	56.630	12.264327	-56.478408	56.790	-0.920	0.690	1.780	56.630	-0.600	2.100																			1580078124.0	0.70	1.30
26/01/2020 22:35:25	26012020	260120	223525	56.550	12.264325	-56.478408	56.720	-0.950	0.200	1.690	56.550	-1.100	2.100																			1580078125.0	0.23	0.43
26/01/2020 22:35:26	26012020	260120	223526	56.440	12.264327	-56.478410	56.610	-0.520	-0.420	1.360	56.440	-1.700	1.800																			1580078126.0	0.25	0.46
26/01/2020 22:35:27	26012020	260120	223527	56.290	12.264328	-56.478410	56.430	0.160	-0.950	0.920	56.290	-2.300	1.300																			1580078127.0	0.50	0.93
26/01/2020 22:35:28	26012020	260120	223528	56.230	12.264332	-56.478410	56.380	0.710	-1.230	0.390	56.230	-2.600	0.800																			1580078128.0	0.58	1.07
26/01/2020 22:35:29	26012020	260120	223529	56.330	12.264333	-56.478412	56.470	0.830	-1.110	-0.210	56.330	-2.500	0.200																			1580078129.0	0.65	1.20
26/01/2020 22:35:30	26012020	260120	223530	56.430	12.264337	-56.478413	56.540	0.490	-0.550	-0.700	56.430	-2.000	-0.300																			1580078130.0	0.75	1.39
26/01/2020 22:35:31	26012020	260120	223531	56.440	12.264338	-56.478417	56.530	0.020	0.130	-0.870	56.440	-1.300	-0.500																			1580078131.0	0.74	1.37
26/01/2020 22:35:32	26012020	260120	223532	56.440	12.264338	-56.478418	56.550	-0.260	0.480	-0.680	56.440	-0.900	-0.300																			1580078132.0	0.37	0.69
26/01/2020 22:35:33	26012020	260120	223533	56.500	12.264337	-56.478417	56.620	-0.250	0.410	-0.230	56.500	-0.900	0.100																			1580078133.0	0.45	0.83
26/01/2020 22:35:34	26012020	260120	223534	56.510	12.264335	-56.478413	56.650	-0.100	0.220	0.360	56.510	-1.100	0.700																			1580078134.0	0.96	1.78
26/01/2020 22:35:35	26012020	260120	223535	56.450	12.264332	-56.478408	56.610	0.030	0.180	0.900	56.450	-1.200	1.200																			1580078135.0	0.97	1.80
26/01/2020 22:35:36	26012020	260120	223536	56.340	12.264328	-56.478408	56.500	0.110	0.270	1.310	56.340	-1.100	1.600																			1580078136.0	0.69	1.28
26/01/2020 22:35:37	26012020	260120	223537	56.210	12.264327	-56.478407	56.370	0.130	0.230	1.540	56.210	-1.100	1.900																			1580078137.0	0.52	0.96
26/01/2020 22:35:38	26012020	260120	223538	56.140	12.264327	-56.478408	56.310	0.030	-0.070	1.570	56.140	-1.400	1.900																			1580078138.0	0.19	0.35
26/01/2020 22:35:39	26012020	260120	223539	56.130	12.264327	-56.478408	56.310	-0.140	-0.420	1.390	56.130	-1.800	1.800																			1580078139.0	0.34	0.63
26/01/2020 22:35:40	26012020	260120	223540	56.120	12.264330	-56.478410	56.290	-0.300	-0.530	1.100	56.120	-1.900	1.500																			1580078140.0	0.58	1.07
26/01/2020 22:35:41	26012020	260120	223541	56.020	12.264332	-56.478412	56.170	-0.320	-0.440	0.810	56.020	-1.800	1.200																			1580078141.0	0.51	0.94
26/01/2020 22:35:42	26012020	260120	223542	55.840	12.264332	-56.478413	55.990	-0.150	-0.420	0.550	55.840	-1.800	1.000																			1580078142.0	0.37	0.69
26/01/2020 22:35:43	26012020	260120	223543	55.710	12.264333	-56.478413	55.820	0.160	-0.540	0.350	55.710	-1.900	0.800																			1580078143.0	0.21	0.39
26/01/2020 22:35:44	26012020	260120	223544	55.640	12.264335	-56.478412	55.770	0.490	-0.650	0.150	55.640	-2.000	0.600																			1580078144.0	0.38	0.70
26/01/2020 22:35:45	26012020	260120	223545	55.700	12.264337	-56.478412	55.850	0.630	-0.530	-0.100	55.700	-1.900	0.300																			1580078145.0	0.51	0.94
26/01/2020 22:35:46	26012020	260120	223546	55.820	12.264338	-56.478410	55.940	0.460	-0.030	-0.290	55.820	-1.500	0.100																			1580078146.0	0.36	0.67
26/01/2020 22:35:47	26012020	260120	223547	55.770	12.264338	-56.478412	55.880	0.000	0.690	-0.290	55.770	-0.800	0.100																			1580078147.0	0.16	0.30
26/01/2020 22:35:48	26012020	260120	223548	55.590	12.264337	-56.478413	55.700	-0.480	1.200	-0.140	55.590	-0.200	0.200																			1580078148.0	0.50	0.93
26/01/2020 22:35:49	26012020	260120	223549	55.440	12.264335	-56.478415	55.560	-0.690	1.100	0.030	55.440	-0.200	0.400																			1580078149.0	0.47	0.87
26/01/2020 22:35:50	26012020	260120	223550	55.400	12.264335	-56.478415	55.550	-0.530	0.360	0.140	55.400	-0.900	0.500																			1580078150.0	0.04	0.07
26/01/2020 22:35:51	26012020	260120	223551	55.490	12.264337	-56.478413	55.630	-0.160	-0.610	0.220	55.490	-1.900	0.600																			1580078151.0	0.44	0.81
26/01/2020 22:35:52	26012020	260120	223552	55.620	12.264338	-56.478412	55.780	0.200	-1.300	0.380	55.620	-2.600	0.700																			1580078152.0	0.60	1.11
26/01/2020 22:35:53	26012020	260120	223553	55.770	12.264340	-56.478410	55.920	0.360	-1.380	0.590	55.770	-2.800	0.900																			1580078153.0	0.39	0.72
26/01/2020 22:35:54	26012020	260120	223554	55.780	12.264338	-56.478408	55.920	0.280	-0.860	0.900	55.780	-2.300	1.200																			1580078154.0	0.28	0.52
26/01/2020 22:35:55	26012020	260120	223555	55.590	12.264335	-56.478410	55.740	0.030	-0.050	1.320	55.590	-1.500	1.600																			1580078155.0	0.64	1.19
26/01/2020 22:35:56	26012020	260120	223556	55.340	12.264332	-56.478410	55.500	-0.190	0.460	1.540	55.340	-0.900	1.900																			1580078156.0	0.78	1.44
26/01/2020 22:35:57	26012020	260120	223557	55.290	12.264330	-56.478410	55.460	-0.170	0.330	1.300	55.290	-1.000	1.700																			1580078157.0	0.31	0.57
26/01/2020 22:35:58	26012020	260120	223558	55.530	12.264333	-56.478410	55.680	0.100	-0.160	0.670	55.530	-1.500	1.100																			1580078158.0	0.56	1.04
26/01/2020 22:35:59	26012020	260120	223559	55.790	12.264337	-56.478408	55.990	0.410	-0.400	-0.050	55.790	-1.800	0.400																			1580078159.0	1.00	1.85
26/01/2020 22:36:00	26012020	260120	223600	56.140	12.264342	-56.478408	56.260	0.490	-0.150	-0.630	56.140	-1.600	-0.200	1015.00	26.10	26.10	20.90	21.00	-2.00	73.00	73.00	377.00	25.10	356.00	3.80	52.00	3.60	15	3696.00	27.70	27.60	1580078160.0	0.79	1.46
26/01/2020 22:36:01	26012020	260120	223601	56.240	12.264343	-56.478410	56.340	0.230	0.360	-0.910	56.240	-1.100	-0.500																			1580078161.0	0.58	1.07
26/01/2020 22:36:02	26012020	260120	223602	56.070	12.264343	-56.478413	56.160	-0.210	0.760	-0.780	56.070	-0.600	-0.400																			1580078162.0	0.66	1.22
26/01/2020 22:36:03	26012020	260120	223603	55.810	12.264342	-56.478417	55.900	-0.520	0.680	-0.400	55.810	-0.600	-0.100																			1580078163.0	0.58	1.07
26/01/2020 22:36:04	26012020	260120	223604	55.670	12.264342	-56.478417	55.790	-0.530	0.070	0.040	55.670	-1.200	0.400																			1580078164.0	0.17	0.31
26/01/2020 22:36:05	26012020	260120	223605	55.720	12.264342	-56.478415	55.860	-0.290	-0.740	0.490	55.720	-2.000	0.800																			1580078165.0	0.36	0.67
26/01/2020 22:36:06	26012020	260120	223606	55.860	12.264342	-56.478412	56.010	-0.040	-1.260	0.910	55.860	-2.600	1.200																			1580078166.0	0.67	1.24
26/01/2020 22:36:07	26012020	260120	223607	55.940	12.264340	-56.478410	56.100	0.090	-1.140	1.330	55.940	-2.500	1.600																			1580078167.0	0.74	1.37
26/01/2020 22:36:08	26012020	260120	223608	55.930	12.264337	-56.478408	56.090	0.110	-0.510	1.680	55.930	-1.900	2.000																			1580078168.0	0.86	1.59
26/01/2020 22:36:09	26012020	260120	223609	55.850	12.264332	-56.478407	56.020	0.140	0.130	1.810	55.850	-1.300	2.200																			1580078169.0	1.01	1.87
26/01/2020 22:36:10	26012020	260120	223610	55.730	12.264328	-56.478407	55.900	0.180	0.400	1.610	55.730	-1.000	2.000																			1580078170.0	0.65	1.20
26/01/2020 22:36:11	26012020	260120	223611	55.570	12.264330	-56.478407	55.720	0.200	0.320	1.000	55.570	-1.000	1.500																			1580078171.0	0.20	0.37
26/01/2020 22:36:12	26012020	260120	223612	55.480	12.264335	-56.478408	55.610	0.250	0.100	0.020	55.480	-1.200	0.500																			1580078172.0	1.19	2.20
26/01/2020 22:36:13	26012020	260120	223613	55.510	12.264342	-56.478412	55.630	0.330	-0.080	-0.940	55.510	-1.400	-0.500																			1580078173.0	1.76	3.26
26/01/2020 22:36:14	26012020	260120	223614	55.600	12.264348	-56.478415	55.700	0.330	-0.110	-1.510	55.600	-1.500	-1.100																			1580078174.0	1.56	2.89
26/01/2020 22:36:15	26012020	260120	223615	55.640	12.264352	-56.478418	55.710	0.140	-0.010	-1.510	55.640	-1.400	-1.200																			1580078175.0	0.82	1.52
26/01/2020 22:36:16	26012020	260120	223616	55.600	12.264352	-56.478418	55.680	-0.210	0.070	-1.010	55.600	-1.300	-0.700																			1580078176.0	0.19	0.35
26/01/2020 22:36:17	26012020	260120	223617	55.570	12.264348	-56.478417	55.670	-0.580	0.020	-0.240	55.570	-1.300	0.000																			1580078177.0	0.80	1.48
26/01/2020 22:36:18	26012020	260120	223618	55.570	12.264343	-56.478415	55.700	-0.780	-0.080	0.610	55.570	-1.400	0.900																			1580078178.0	1.10	2.04
26/01/2020 22:36:19	26012020	260120	223619	55.540	12.264338	-56.478412	55.670	-0.680	-0.170	1.440	55.540	-1.500	1.700																			1580078179.0	1.15	2.13
26/01/2020 22:36:20	26012020	260120	223620	55.430	12.264335	-56.478408	55.550	-0.320	-0.270	2.100	55.430	-1.600	2.400																			1580078180.0	1.10	2.04
26/01/2020 22:36:21	26012020	260120	223621	55.280	12.264332	-56.478407	55.420	0.150	-0.420	2.410	55.280	-1.800	2.800																			1580078181.0	0.85	1.57
26/01/2020 22:36:22	26012020	260120	223622	55.190	12.264330	-56.478405	55.330	0.540	-0.590	2.250	55.190	-1.900	2.700																			1580078182.0	0.37	0.69
26/01/2020 22:36:23	26012020	260120	223623	55.190	12.264332	-56.478405	55.340	0.760	-0.650	1.650	55.190	-2.000	2.100																			1580078183.0	0.35	0.65
26/01/2020 22:36:24	26012020	260120	223624	55.250	12.264335	-56.478405	55.390	0.740	-0.470	0.810	55.250	-1.900	1.300																			1580078184.0	0.79	1.46
26/01/2020 22:36:25	26012020	260120	223625	55.270	12.264340	-56.478408	55.380	0.460	-0.060	-0.110	55.270	-1.500	0.400																			1580078185.0	1.07	1.98
26/01/2020 22:36:26	26012020	260120	223626	55.260	12.264343	-56.478412	55.330	0.020	0.440	-0.960	55.260	-1.000	-0.500																			1580078186.0	1.27	2.35
26/01/2020 22:36:27	26012020	260120	223627	55.220	12.264348	-56.478417	55.290	-0.370	0.800	-1.490	55.220	-0.600	-1.100																			1580078187.0	1.25	2.31
26/01/2020 22:36:28	26012020	260120	223628	55.140	12.264350	-56.478420	55.230	-0.520	0.780	-1.520	55.140	-0.600	-1.200																			1580078188.0	0.83	1.54
26/01/2020 22:36:29	26012020	260120	223629	55.080	12.264350	-56.478420	55.190	-0.400	0.240	-1.160	55.080	-1.000	-0.800																			1580078189.0	0.09	0.17
26/01/2020 22:36:30	26012020	260120	223630	55.160	12.264348	-56.478417	55.300	-0.150	-0.600	-0.640	55.160	-1.900	-0.300																			1580078190.0	0.64	1.19
26/01/2020 22:36:31	26012020	260120	223631	55.310	12.264348	-56.478413	55.470	-0.010	-1.140	0.040	55.310	-2.500	0.300																			1580078191.0	1.04	1.93
26/01/2020 22:36:32	26012020	260120	223632	55.390	12.264345	-56.478408	55.560	-0.040	-1.010	0.840	55.390	-2.400	1.100																			1580078192.0	1.05	1.94
26/01/2020 22:36:33	26012020	260120	223633	55.370	12.264340	-56.478407	55.540	-0.100	-0.400	1.620	55.370	-1.800	1.900																			1580078193.0	1.09	2.02
26/01/2020 22:36:34	26012020	260120	223634	55.280	12.264335	-56.478405	55.470	-0.050	0.200	2.180	55.280	-1.200	2.500																			1580078194.0	1.18	2.19
26/01/2020 22:36:35	26012020	260120	223635	55.170	12.264330	-56.478405	55.320	0.060	0.500	2.330	55.170	-0.900	2.700																			1580078195.0	0.90	1.67
26/01/2020 22:36:36	26012020	260120	223636	54.990	12.264330	-56.478405	55.150	0.120	0.480	2.010	54.990	-0.900	2.400																			1580078196.0	0.27	0.50
26/01/2020 22:36:37	26012020	260120	223637	54.960	12.264332	-56.478407	55.120	0.120	0.210	1.220	54.960	-1.100	1.700																			1580078197.0	0.54	1.00
26/01/2020 22:36:38	26012020	260120	223638	55.160	12.264337	-56.478408	55.320	0.120	-0.250	0.050	55.160	-1.600	0.600																			1580078198.0	1.30	2.41
26/01/2020 22:36:39	26012020	260120	223639	55.480	12.264345	-56.478412	55.580	0.140	-0.650	-1.100	55.480	-2.000	-0.600																			1580078199.0	1.73	3.20
26/01/2020 22:36:40	26012020	260120	223640	55.670	12.264350	-56.478415	55.740	0.130	-0.710	-1.730	55.670	-2.100	-1.300																			1580078200.0	1.52	2.82
26/01/2020 22:36:41	26012020	260120	223641	55.680	12.264353	-56.478417	55.750	0.050	-0.410	-1.580	55.680	-1.800	-1.300																			1580078201.0	0.66	1.22
26/01/2020 22:36:42	26012020	260120	223642	55.640	12.264352	-56.478417	55.720	-0.050	-0.060	-0.860	55.640	-1.500	-0.600																			1580078202.0	0.46	0.85
26/01/2020 22:36:43	26012020	260120	223643	55.680	12.264347	-56.478415	55.790	-0.090	0.060	0.040	55.680	-1.300	0.300																			1580078203.0	1.14	2.11
26/01/2020 22:36:44	26012020	260120	223644	55.810	12.264342	-56.478410	55.930	-0.020	-0.010	0.830	55.810	-1.400	1.100																			1580078204.0	1.33	2.46
26/01/2020 22:36:45	26012020	260120	223645	55.920	12.264337	-56.478407	56.080	0.070	-0.040	1.540	55.920	-1.400	1.800																			1580078205.0	1.24	2.30
26/01/2020 22:36:46	26012020	260120	223646	55.950	12.264333	-56.478403	56.110	0.070	0.140	2.050	55.950	-1.300	2.400																			1580078206.0	1.02	1.89
26/01/2020 22:36:47	26012020	260120	223647	55.890	12.264332	-56.478403	56.020	-0.050	0.350	2.190	55.890	-1.000	2.600																			1580078207.0	0.59	1.09
26/01/2020 22:36:48	26012020	260120	223648	55.780	12.264330	-56.478403	55.940	-0.200	0.320	1.840	55.780	-1.000	2.300																			1580078208.0	0.33	0.61
26/01/2020 22:36:49	26012020	260120	223649	55.830	12.264333	-56.478407	56.100	-0.230	-0.060	1.070	55.870	-1.400	1.500																			1580078209.0	0.86	1.59
26/01/2020 22:36:50	26012020	260120	223650	56.290	12.264338	-56.478408	56.460	-0.100	-0.530	0.150	56.290	-1.900	0.600																			1580078210.0	1.22	2.26
26/01/2020 22:36:51	26012020	260120	223651	56.590	12.264343	-56.478410	56.790	0.020	-0.680	-0.510	56.650	-2.100	-0.100																			1580078211.0	1.02	1.89
26/01/2020 22:36:52	26012020	260120	223652	56.770	12.264345	-56.478412	56.910	0.010	-0.490	-0.740	56.770	-1.900	-0.400																			1580078212.0	0.41	0.76
26/01/2020 22:36:53	26012020	260120	223653	56.710	12.264343	-56.478412	56.840	-0.040	-0.240	-0.630	56.710	-1.600	-0.300																			1580078213.0	0.26	0.48
26/01/2020 22:36:54	26012020	260120	223654	56.580	12.264342	-56.478412	56.710	0.010	-0.170	-0.380	56.580	-1.500	-0.000																			1580078214.0	0.41	0.76
26/01/2020 22:36:55	26012020	260120	223655	56.470	12.264342	-56.478410	56.610	0.200	-0.230	-0.080	56.470	-1.600	0.300																			1580078215.0	0.41	0.76
26/01/2020 22:36:56	26012020	260120	223656	56.480	12.264340	-56.478408	56.620	0.440	-0.230	0.210	56.480	-1.600	0.500																			1580078216.0	0.37	0.69
26/01/2020 22:36:57	26012020	260120	223657	56.600	12.264340	-56.478407	56.750	0.540	-0.090	0.490	56.600	-1.500	0.800																			1580078217.0	0.29	0.54
26/01/2020 22:36:58	26012020	260120	223658	56.740	12.264340	-56.478407	56.910	0.370	0.160	0.690	56.740	-1.200	1.000																			1580078218.0	0.20	0.37
26/01/2020 22:36:59	26012020	260120	223659	56.850	12.264338	-56.478407	57.020	-0.050	0.460	0.770	56.870	-0.900	1.100																			1580078219.0	0.20	0.37
26/01/2020 22:37:00	26012020	260120	223700	56.920	12.264338	-56.478408	57.050	-0.540	0.630	0.810	56.920	-0.800	1.200	1015.00	26.00	26.10	20.80	20.80	-2.00	72.00	72.00	378.00	25.10	1.00	3.90	57.00	3.60	15	3758.00	27.60	27.60	1580078220.0	0.29	0.54
26/01/2020 22:37:01	26012020	260120	223701	56.920	12.264338	-56.478408	57.080	-0.820	0.450	0.890	56.920	-0.900	1.300																			1580078221.0	0.27	0.50
26/01/2020 22:37:02	26012020	260120	223702	56.960	12.264337	-56.478408	57.130	-0.750	-0.110	0.940	56.960	-1.400	1.300																			1580078222.0	0.10	0.19
26/01/2020 22:37:03	26012020	260120	223703	57.040	12.264337	-56.478407	57.210	-0.400	-0.710	0.890	57.040	-2.000	1.300																			1580078223.0	0.38	0.70
26/01/2020 22:37:04	26012020	260120	223704	57.080	12.264337	-56.478405	57.240	0.040	-0.980	0.740	57.080	-2.300	1.100																			1580078224.0	0.42	0.78
26/01/2020 22:37:05	26012020	260120	223705	57.050	12.264337	-56.478403	57.210	0.420	-0.840	0.580	57.050	-2.200	1.000																			1580078225.0	0.24	0.44
26/01/2020 22:37:06	26012020	260120	223706	56.990	12.264335	-56.478405	57.140	0.640	-0.530	0.400	56.970	-1.900	0.800																			1580078226.0	0.20	0.37
26/01/2020 22:37:07	26012020	260120	223707	56.840	12.264337	-56.478405	57.000	0.680	-0.240	0.170	56.840	-1.600	0.600																			1580078227.0	0.18	0.33
26/01/2020 22:37:08	26012020	260120	223708	56.730	12.264338	-56.478407	56.850	0.530	0.030	-0.110	56.710	-1.400	0.300																			1580078228.0	0.56	1.04
26/01/2020 22:37:09	26012020	260120	223709	56.650	12.264342	-56.478408	56.790	0.250	0.290	-0.350	56.650	-1.100	0.100																			1580078229.0	0.81	1.50
26/01/2020 22:37:10	26012020	260120	223710	56.690	12.264345	-56.478410	56.870	-0.070	0.450	-0.440	56.720	-0.900	-0.100																			1580078230.0	0.70	1.30
26/01/2020 22:37:11	26012020	260120	223711	56.850	12.264345	-56.478410	57.050	-0.360	0.440	-0.270	56.890	-0.900	0.100																			1580078231.0	0.28	0.52
26/01/2020 22:37:12	26012020	260120	223712	57.070	12.264345	-56.478408	57.280	-0.560	0.330	0.180	57.110	-1.000	0.500																			1580078232.0	0.37	0.69
26/01/2020 22:37:13	26012020	260120	223713	57.220	12.264340	-56.478407	57.410	-0.640	0.170	0.810	57.240	-1.200	1.100																			1580078233.0	0.97	1.80
26/01/2020 22:37:14	26012020	260120	223714	57.230	12.264335	-56.478403	57.360	-0.550	-0.050	1.470	57.210	-1.400	1.800																			1580078234.0	1.31	2.43
26/01/2020 22:37:15	26012020	260120	223715	57.050	12.264330	-56.478400	57.150	-0.290	-0.330	1.920	57.000	-1.600	2.300																			1580078235.0	1.21	2.24
26/01/2020 22:37:16	26012020	260120	223716	56.790	12.264328	-56.478398	56.880	0.080	-0.670	1.980	56.740	-2.000	2.400																			1580078236.0	0.62	1.15
26/01/2020 22:37:17	26012020	260120	223717	56.590	12.264330	-56.478398	56.700	0.470	-0.930	1.640	56.560	-2.300	2.100																			1580078237.0	0.30	0.56
26/01/2020 22:37:18	26012020	260120	223718	56.500	12.264333	-56.478400	56.660	0.730	-0.900	1.030	56.500	-2.300	1.500																			1580078238.0	0.89	1.65
26/01/2020 22:37:19	26012020	260120	223719	56.590	12.264338	-56.478402	56.770	0.700	-0.570	0.210	56.620	-2.000	0.700																			1580078239.0	1.09	2.02
26/01/2020 22:37:20	26012020	260120	223720	56.830	12.264342	-56.478405	57.020	0.410	-0.100	-0.600	56.880	-1.500	-0.100																			1580078240.0	1.09	2.02
26/01/2020 22:37:21	26012020	260120	223721	57.070	12.264345	-56.478407	57.220	0.000	0.450	-1.010	57.110	-1.000	-0.600																			1580078241.0	0.79	1.46
26/01/2020 22:37:22	26012020	260120	223722	57.130	12.264345	-56.478408	57.220	-0.320	0.850	-0.860	57.110	-0.500	-0.500																			1580078242.0	0.26	0.48
26/01/2020 22:37:23	26012020	260120	223723	56.960	12.264342	-56.478408	57.040	-0.480	0.830	-0.350	56.920	-0.500	-0.000																			1580078243.0	0.64	1.19
26/01/2020 22:37:24	26012020	260120	223724	56.790	12.264338	-56.478405	56.920	-0.450	0.310	0.130	56.780	-1.000	0.500																			1580078244.0	0.73	1.35
26/01/2020 22:37:25	26012020	260120	223725	56.800	12.264338	-56.478403	57.000	-0.270	-0.370	0.440	56.820	-1.700	0.800																			1580078245.0	0.57	1.06
26/01/2020 22:37:26	26012020	260120	223726	56.960	12.264338	-56.478400	57.170	-0.050	-0.770	0.740	57.000	-2.100	1.100																			1580078246.0	0.47	0.87
26/01/2020 22:37:27	26012020	260120	223727	57.130	12.264338	-56.478400	57.330	0.060	-0.710	1.060	57.160	-2.100	1.400																			1580078247.0	0.33	0.61
26/01/2020 22:37:28	26012020	260120	223728	57.230	12.264335	-56.478398	57.400	0.020	-0.330	1.410	57.240	-1.700	1.700																			1580078248.0	0.58	1.07
26/01/2020 22:37:29	26012020	260120	223729	57.190	12.264332	-56.478400	57.320	-0.080	0.110	1.770	57.160	-1.300	2.100																			1580078249.0	0.78	1.44
26/01/2020 22:37:30	26012020	260120	223730	57.000	12.264328	-56.478400	57.100	-0.020	0.220	1.930	56.950	-1.100	2.300																			1580078250.0	0.71	1.31
26/01/2020 22:37:31	26012020	260120	223731	56.800	12.264327	-56.478400	56.920	0.270	-0.170	1.690	56.770	-1.500	2.100																			1580078251.0	0.16	0.30
26/01/2020 22:37:32	26012020	260120	223732	56.730	12.264330	-56.478400	56.870	0.600	-0.750	1.080	56.730	-2.100	1.500																			1580078252.0	0.65	1.20
26/01/2020 22:37:33	26012020	260120	223733	56.770	12.264335	-56.478400	56.920	0.670	-0.940	0.350	56.780	-2.300	0.800																			1580078253.0	1.16	2.15
26/01/2020 22:37:34	26012020	260120	223734	56.840	12.264340	-56.478400	56.970	0.340	-0.450	-0.220	56.850	-1.900	0.200																			1580078254.0	1.07	1.98
26/01/2020 22:37:35	26012020	260120	223735	56.880	12.264343	-56.478403	56.990	-0.240	0.430	-0.520	56.880	-1.000	-0.100																			1580078255.0	0.79	1.46
26/01/2020 22:37:36	26012020	260120	223736	56.880	12.264342	-56.478407	56.990	-0.740	1.120	-0.500	56.880	-0.300	-0.100																			1580078256.0	0.81	1.50
26/01/2020 22:37:37	26012020	260120	223737	56.880	12.264338	-56.478408	57.010	-0.890	1.110	-0.310	56.890	-0.200	0.000																			1580078257.0	0.74	1.37
26/01/2020 22:37:38	26012020	260120	223738	56.920	12.264337	-56.478408	57.050	-0.620	0.390	-0.010	56.930	-0.900	0.300																			1580078258.0	0.57	1.06
26/01/2020 22:37:39	26012020	260120	223739	56.910	12.264335	-56.478405	57.000	-0.100	-0.490	0.390	56.890	-1.800	0.700																			1580078259.0	0.77	1.43
26/01/2020 22:37:40	26012020	260120	223740	56.760	12.264333	-56.478402	56.860	0.340	-1.060	0.810	56.730	-2.400	1.100																			1580078260.0	0.79	1.46
26/01/2020 22:37:41	26012020	260120	223741	56.600	12.264333	-56.478398	56.730	0.520	-1.120	1.090	56.580	-2.500	1.400																			1580078261.0	0.41	0.76
26/01/2020 22:37:42	26012020	260120	223742	56.510	12.264333	-56.478400	56.660	0.440	-0.720	1.180	56.500	-2.200	1.500																			1580078262.0	0.19	0.35
26/01/2020 22:37:43	26012020	260120	223743	56.500	12.264335	-56.478402	56.680	0.280	-0.220	1.100	56.500	-1.600	1.500																			1580078263.0	0.60	1.11
26/01/2020 22:37:44	26012020	260120	223744	56.570	12.264335	-56.478405	56.760	0.160	0.120	0.970	56.600	-1.300	1.400																			1580078264.0	0.53	0.98
26/01/2020 22:37:45	26012020	260120	223745	56.710	12.264337	-56.478405	56.900	0.040	0.230	0.870	56.740	-1.100	1.300																			1580078265.0	0.10	0.19
26/01/2020 22:37:46	26012020	260120	223746	56.810	12.264335	-56.478403	56.970	-0.150	0.270	0.800	56.820	-1.100	1.200																			1580078266.0	0.31	0.57
26/01/2020 22:37:47	26012020	260120	223747	56.810	12.264333	-56.478402	56.940	-0.340	0.310	0.710	56.800	-1.100	1.100																			1580078267.0	0.39	0.72
26/01/2020 22:37:48	26012020	260120	223748	56.780	12.264333	-56.478402	56.920	-0.410	0.260	0.490	56.780	-1.100	0.900																			1580078268.0	0.22	0.41
26/01/2020 22:37:49	26012020	260120	223749	56.810	12.264333	-56.478403	56.980	-0.280	-0.020	0.060	56.830	-1.300	0.500																			1580078269.0	0.17	0.31
26/01/2020 22:37:50	26012020	260120	223750	56.890	12.264337	-56.478403	57.040	-0.050	-0.390	-0.430	56.900	-1.700	0.000																			1580078270.0	0.61	1.13
26/01/2020 22:37:51	26012020	260120	223751	56.940	12.264340	-56.478405	57.070	0.140	-0.560	-0.740	56.950	-1.900	-0.300																			1580078271.0	0.85	1.57
26/01/2020 22:37:52	26012020	260120	223752	57.040	12.264343	-56.478407	57.190	0.250	-0.490	-0.750	57.070	-1.900	-0.400																			1580078272.0	0.67	1.24
26/01/2020 22:37:53	26012020	260120	223753	57.210	12.264343	-56.478408	57.360	0.280	-0.250	-0.410	57.230	-1.700	-0.100																			1580078273.0	0.22	0.41
26/01/2020 22:37:54	26012020	260120	223754	57.300	12.264340	-56.478407	57.450	0.170	0.060	0.270	57.300	-1.400	0.600																			1580078274.0	0.53	0.98
26/01/2020 22:37:55	26012020	260120	223755	57.240	12.264337	-56.478407	57.370	-0.100	0.320	1.080	57.220	-1.100	1.400																			1580078275.0	1.07	1.98
26/01/2020 22:37:56	26012020	260120	223756	57.140	12.264332	-56.478405	57.280	-0.340	0.240	1.620	57.130	-1.100	1.900																			1580078276.0	1.10	2.04
26/01/2020 22:37:57	26012020	260120	223757	57.130	12.264328	-56.478403	57.280	-0.340	-0.170	1.760	57.130	-1.500	2.100																			1580078277.0	0.61	1.13
26/01/2020 22:37:58	26012020	260120	223758	57.160	12.264328	-56.478402	57.330	-0.040	-0.590	1.650	57.160	-1.900	2.000																			1580078278.0	0.35	0.65
26/01/2020 22:37:59	26012020	260120	223759	57.170	12.264330	-56.478400	57.310	0.360	-0.740	1.410	57.160	-2.100	1.800																			1580078279.0	0.41	0.76
26/01/2020 22:38:00	26012020	260120	223800	57.120	12.264332	-56.478400	57.260	0.540	-0.570	1.020	57.110	-2.000	1.500	1015.00	26.10	26.10	21.00	21.00	-2.00	73.00	73.00	378.00	25.10	353.00	4.00	50.00	3.70	15	3844.00	27.70	27.60	1580078280.0	0.36	0.67
26/01/2020 22:38:01	26012020	260120	223801	57.090	12.264335	-56.478402	57.220	0.340	-0.120	0.470	57.090	-1.600	0.900																			1580078281.0	0.55	1.02
26/01/2020 22:38:02	26012020	260120	223802	57.110	12.264337	-56.478405	57.220	-0.110	0.530	-0.140	57.120	-0.900	0.300																			1580078282.0	0.88	1.63
26/01/2020 22:38:03	26012020	260120	223803	57.130	12.264338	-56.478408	57.240	-0.510	1.040	-0.590	57.130	-0.400	-0.200																			1580078283.0	1.03	1.91
26/01/2020 22:38:04	26012020	260120	223804	57.170	12.264338	-56.478413	57.280	-0.600	0.910	-0.830	57.180	-0.400	-0.400																			1580078284.0	0.78	1.44
26/01/2020 22:38:05	26012020	260120	223805	57.280	12.264338	-56.478413	57.410	-0.330	0.020	-0.880	57.310	-1.200	-0.500																			1580078285.0	0.11	0.20
26/01/2020 22:38:06	26012020	260120	223806	57.420	12.264340	-56.478410	57.540	0.130	-1.070	-0.750	57.440	-2.300	-0.400																			1580078286.0	0.64	1.19
26/01/2020 22:38:07	26012020	260120	223807	57.460	12.264342	-56.478407	57.550	0.500	-1.610	-0.330	57.450	-2.900	-0.000																			1580078287.0	0.87	1.61
26/01/2020 22:38:08	26012020	260120	223808	57.340	12.264340	-56.478403	57.400	0.570	-1.210	0.390	57.290	-2.700	0.700																			1580078288.0	0.55	1.02
26/01/2020 22:38:09	26012020	260120	223809	57.090	12.264337	-56.478403	57.160	0.330	-0.190	1.240	57.030	-1.700	1.500																			1580078289.0	0.74	1.37
26/01/2020 22:38:10	26012020	260120	223810	56.820	12.264332	-56.478405	56.920	-0.080	0.740	1.930	56.780	-0.700	2.200																			1580078290.0	1.21	2.24
26/01/2020 22:38:11	26012020	260120	223811	56.670	12.264327	-56.478405	56.820	-0.380	1.000	2.210	56.660	-0.400	2.600																			1580078291.0	1.07	1.98
26/01/2020 22:38:12	26012020	260120	223812	56.670	12.264325	-56.478405	56.850	-0.380	0.590	2.050	56.680	-0.700	2.500																			1580078292.0	0.42	0.78
26/01/2020 22:38:13	26012020	260120	223813	56.770	12.264327	-56.478403	56.960	-0.080	-0.120	1.490	56.800	-1.400	2.000																			1580078293.0	0.46	0.85
26/01/2020 22:38:14	26012020	260120	223814	56.920	12.264330	-56.478402	57.090	0.270	-0.640	0.660	56.950	-2.000	1.100																			1580078294.0	0.88	1.63
26/01/2020 22:38:15	26012020	260120	223815	57.000	12.264335	-56.478403	57.130	0.350	-0.670	-0.140	57.010	-2.100	0.300																			1580078295.0	1.06	1.96
26/01/2020 22:38:16	26012020	260120	223816	56.970	12.264340	-56.478407	57.050	0.090	-0.230	-0.660	56.950	-1.700	-0.200																			1580078296.0	1.09	2.02
26/01/2020 22:38:17	26012020	260120	223817	56.790	12.264342	-56.478410	56.830	-0.300	0.280	-0.770	56.740	-1.100	-0.400																			1580078297.0	1.00	1.85
26/01/2020 22:38:18	26012020	260120	223818	56.520	12.264340	-56.478413	56.550	-0.500	0.470	-0.490	56.470	-0.900	-0.100																			1580078298.0	0.72	1.33
26/01/2020 22:38:19	26012020	260120	223819	56.310	12.264338	-56.478415	56.410	-0.340	0.040	-0.110	56.290	-1.200	0.200																			1580078299.0	0.46	0.85
26/01/2020 22:38:20	26012020	260120	223820	56.310	12.264337	-56.478412	56.470	0.080	-0.800	0.200	56.330	-2.100	0.500																			1580078300.0	0.68	1.26
26/01/2020 22:38:21	26012020	260120	223821	56.480	12.264337	-56.478407	56.660	0.500	-1.350	0.460	56.510	-2.700	0.800																			1580078301.0	1.02	1.89
26/01/2020 22:38:22	26012020	260120	223822	56.590	12.264337	-56.478403	56.710	0.630	-0.960	0.760	56.570	-2.400	1.100																			1580078302.0	0.80	1.48
26/01/2020 22:38:23	26012020	260120	223823	56.440	12.264333	-56.478403	56.490	0.370	0.200	1.150	56.380	-1.300	1.500																			1580078303.0	0.57	1.06
26/01/2020 22:38:24	26012020	260120	223824	56.070	12.264330	-56.478407	56.110	-0.080	1.260	1.480	55.990	-0.200	1.800																			1580078304.0	1.10	2.04
26/01/2020 22:38:25	26012020	260120	223825	55.760	12.264327	-56.478410	55.850	-0.390	1.310	1.410	55.720	-0.000	1.800																			1580078305.0	0.95	1.76
26/01/2020 22:38:26	26012020	260120	223826	55.720	12.264328	-56.478412	55.850	-0.380	0.380	0.860	55.740	-0.900	1.300																			1580078306.0	0.54	1.00
26/01/2020 22:38:27	26012020	260120	223827	55.820	12.264335	-56.478410	55.980	-0.130	-0.660	0.230	55.840	-1.900	0.700																			1580078307.0	1.18	2.19
26/01/2020 22:38:28	26012020	260120	223828	55.940	12.264340	-56.478410	56.050	0.090	-1.100	-0.120	55.950	-2.400	0.300																			1580078308.0	1.02	1.89
26/01/2020 22:38:29	26012020	260120	223829	55.970	12.264340	-56.478410	56.070	0.120	-0.900	-0.170	55.970	-2.300	0.200																			1580078309.0	0.18	0.33
26/01/2020 22:38:30	26012020	260120	223830	55.920	12.264338	-56.478412	56.010	-0.030	-0.450	-0.090	55.900	-1.900	0.300																			1580078310.0	0.48	0.89
26/01/2020 22:38:31	26012020	260120	223831	55.780	12.264335	-56.478412	55.840	-0.170	-0.010	0.030	55.750	-1.400	0.400																			1580078311.0	0.51	0.94
26/01/2020 22:38:32	26012020	260120	223832	55.570	12.264335	-56.478413	55.630	-0.140	0.360	0.250	55.530	-1.000	0.600																			1580078312.0	0.37	0.69
26/01/2020 22:38:33	26012020	260120	223833	55.400	12.264333	-56.478415	55.520	0.100	0.430	0.460	55.390	-0.900	0.800																			1580078313.0	0.30	0.56
26/01/2020 22:38:34	26012020	260120	223834	55.440	12.264333	-56.478415	55.620	0.360	0.070	0.480	55.470	-1.200	0.900																			1580078314.0	0.02	0.04
26/01/2020 22:38:35	26012020	260120	223835	55.590	12.264335	-56.478413	55.760	0.430	-0.410	0.490	55.600	-1.700	0.900																			1580078315.0	0.40	0.74
26/01/2020 22:38:36	26012020	260120	223836	55.610	12.264337	-56.478412	55.740	0.220	-0.570	0.630	55.590	-1.900	1.000																			1580078316.0	0.45	0.83
26/01/2020 22:38:37	26012020	260120	223837	55.510	12.264337	-56.478412	55.640	-0.140	-0.290	0.830	55.490	-1.700	1.200																			1580078317.0	0.11	0.20
26/01/2020 22:38:38	26012020	260120	223838	55.430	12.264335	-56.478412	55.560	-0.390	0.130	0.980	55.410	-1.300	1.400																			1580078318.0	0.39	0.72
26/01/2020 22:38:39	26012020	260120	223839	55.390	12.264333	-56.478413	55.540	-0.400	0.350	1.010	55.380	-1.000	1.400																			1580078319.0	0.48	0.89
26/01/2020 22:38:40	26012020	260120	223840	55.380	12.264332	-56.478415	55.540	-0.230	0.260	0.900	55.390	-1.100	1.300																			1580078320.0	0.29	0.54
26/01/2020 22:38:41	26012020	260120	223841	55.420	12.264333	-56.478415	55.570	0.020	-0.080	0.690	55.420	-1.400	1.100																			1580078321.0	0.07	0.13
26/01/2020 22:38:42	26012020	260120	223842	55.480	12.264333	-56.478415	55.640	0.220	-0.440	0.430	55.490	-1.800	0.900																			1580078322.0	0.29	0.54
26/01/2020 22:38:43	26012020	260120	223843	55.550	12.264335	-56.478415	55.710	0.310	-0.630	0.180	55.570	-2.000	0.600																			1580078323.0	0.39	0.72
26/01/2020 22:38:44	26012020	260120	223844	55.680	12.264338	-56.478415	55.850	0.320	-0.640	-0.080	55.720	-2.000	0.300																			1580078324.0	0.43	0.80
26/01/2020 22:38:45	26012020	260120	223845	55.890	12.264340	-56.478417	56.060	0.280	-0.470	-0.330	55.940	-1.900	0.100																			1580078325.0	0.48	0.89
26/01/2020 22:38:46	26012020	260120	223846	56.030	12.264342	-56.478417	56.140	0.140	-0.020	-0.280	56.030	-1.500	0.100																			1580078326.0	0.38	0.70
26/01/2020 22:38:47	26012020	260120	223847	55.920	12.264340	-56.478418	55.980	-0.120	0.580	0.220	55.870	-0.800	0.500																			1580078327.0	0.34	0.63
26/01/2020 22:38:48	26012020	260120	223848	55.700	12.264337	-56.478420	55.800	-0.390	0.880	0.870	55.670	-0.500	1.200																			1580078328.0	0.73	1.35
26/01/2020 22:38:49	26012020	260120	223849	55.640	12.264333	-56.478418	55.810	-0.490	0.550	1.260	55.650	-0.700	1.600																			1580078329.0	0.85	1.57
26/01/2020 22:38:50	26012020	260120	223850	55.810	12.264332	-56.478417	56.030	-0.390	-0.260	1.190	55.860	-1.500	1.600																			1580078330.0	0.63	1.17
26/01/2020 22:38:51	26012020	260120	223851	56.040	12.264332	-56.478415	56.300	-0.150	-0.910	0.870	56.090	-2.200	1.300																			1580078331.0	0.56	1.04
26/01/2020 22:38:52	26012020	260120	223852	56.240	12.264335	-56.478415	56.390	0.150	-0.900	0.620	56.260	-2.300	1.000																			1580078332.0	0.56	1.04
26/01/2020 22:38:53	26012020	260120	223853	56.270	12.264337	-56.478417	56.410	0.410	-0.500	0.470	56.270	-1.900	0.900																			1580078333.0	0.59	1.09
26/01/2020 22:38:54	26012020	260120	223854	56.350	12.264338	-56.478420	56.520	0.560	-0.240	0.280	56.380	-1.600	0.700																			1580078334.0	0.66	1.22
26/01/2020 22:38:55	26012020	260120	223855	56.550	12.264338	-56.478422	56.730	0.490	-0.180	0.100	56.600	-1.500	0.500																			1580078335.0	0.44	0.81
26/01/2020 22:38:56	26012020	260120	223856	56.740	12.264340	-56.478420	56.870	0.200	-0.030	0.160	56.760	-1.400	0.500																			1580078336.0	0.23	0.43
26/01/2020 22:38:57	26012020	260120	223857	56.770	12.264338	-56.478420	56.880	-0.210	0.260	0.480	56.770	-1.100	0.800																			1580078337.0	0.35	0.65
26/01/2020 22:38:58	26012020	260120	223858	56.730	12.264335	-56.478418	56.850	-0.520	0.490	0.740	56.730	-0.900	1.100																			1580078338.0	0.68	1.26
26/01/2020 22:38:59	26012020	260120	223859	56.750	12.264333	-56.478418	56.880	-0.550	0.460	0.740	56.770	-0.900	1.100																			1580078339.0	0.46	0.85
26/01/2020 22:39:00	26012020	260120	223900	56.850	12.264333	-56.478418	57.010	-0.260	0.170	0.480	56.880	-1.100	0.900	1015.00	26.10	26.10	20.80	20.90	-2.00	73.00	73.00	378.00	25.10	351.00	4.20	46.00	3.90	15	3731.00	27.60	27.60	1580078340.0	0.10	0.19
26/01/2020 22:39:01	26012020	260120	223901	57.020	12.264337	-56.478420	57.170	0.130	-0.280	0.120	57.060	-1.600	0.500																			1580078341.0	0.49	0.91
26/01/2020 22:39:02	26012020	260120	223902	57.200	12.264338	-56.478420	57.350	0.330	-0.640	-0.150	57.230	-2.000	0.300																			1580078342.0	0.68	1.26
26/01/2020 22:39:03	26012020	260120	223903	57.330	12.264342	-56.478420	57.440	0.210	-0.660	-0.190	57.340	-2.000	0.200																			1580078343.0	0.52	0.96
26/01/2020 22:39:04	26012020	260120	223904	57.340	12.264342	-56.478422	57.420	-0.110	-0.360	0.010	57.330	-1.800	0.400																			1580078344.0	0.18	0.33
26/01/2020 22:39:05	26012020	260120	223905	57.260	12.264340	-56.478422	57.330	-0.310	-0.110	0.420	57.240	-1.500	0.700																			1580078345.0	0.41	0.76
26/01/2020 22:39:06	26012020	260120	223906	57.170	12.264337	-56.478420	57.300	-0.190	-0.140	0.830	57.170	-1.500	1.200																			1580078346.0	0.66	1.22
26/01/2020 22:39:07	26012020	260120	223907	57.220	12.264335	-56.478417	57.410	0.150	-0.260	0.970	57.250	-1.600	1.300																			1580078347.0	0.76	1.41
26/01/2020 22:39:08	26012020	260120	223908	57.400	12.264333	-56.478415	57.610	0.430	-0.220	0.770	57.440	-1.600	1.200																			1580078348.0	0.54	1.00
26/01/2020 22:39:09	26012020	260120	223909	57.570	12.264335	-56.478415	57.770	0.420	0.060	0.400	57.600	-1.300	0.800																			1580078349.0	0.20	0.37
26/01/2020 22:39:10	26012020	260120	223910	57.620	12.264337	-56.478417	57.750	0.150	0.410	0.100	57.610	-1.000	0.500																			1580078350.0	0.62	1.15
26/01/2020 22:39:11	26012020	260120	223911	57.530	12.264338	-56.478420	57.620	-0.190	0.550	0.050	57.500	-0.800	0.400																			1580078351.0	0.73	1.35
26/01/2020 22:39:12	26012020	260120	223912	57.420	12.264340	-56.478422	57.540	-0.410	0.260	0.160	57.410	-1.000	0.500																			1580078352.0	0.37	0.69
26/01/2020 22:39:13	26012020	260120	223913	57.450	12.264340	-56.478420	57.610	-0.420	-0.300	0.240	57.480	-1.600	0.600																			1580078353.0	0.19	0.35
26/01/2020 22:39:14	26012020	260120	223914	57.550	12.264340	-56.478418	57.690	-0.260	-0.690	0.390	57.560	-2.000	0.700																			1580078354.0	0.53	0.98
26/01/2020 22:39:15	26012020	260120	223915	57.540	12.264337	-56.478415	57.630	-0.050	-0.680	0.730	57.510	-2.000	1.100																			1580078355.0	0.72	1.33
26/01/2020 22:39:16	26012020	260120	223916	57.370	12.264333	-56.478413	57.490	0.130	-0.470	1.040	57.330	-1.800	1.400																			1580078356.0	0.85	1.57
26/01/2020 22:39:17	26012020	260120	223917	57.250	12.264332	-56.478412	57.370	0.220	-0.250	0.980	57.230	-1.600	1.400																			1580078357.0	0.56	1.04
26/01/2020 22:39:18	26012020	260120	223918	57.190	12.264332	-56.478413	57.340	0.200	-0.050	0.580	57.180	-1.400	1.000																			1580078358.0	0.23	0.43
26/01/2020 22:39:19	26012020	260120	223919	57.190	12.264335	-56.478415	57.330	0.130	0.150	0.080	57.200	-1.200	0.500																			1580078359.0	0.89	1.65
26/01/2020 22:39:20	26012020	260120	223920	57.260	12.264340	-56.478418	57.400	0.100	0.210	-0.330	57.270	-1.100	0.100																			1580078360.0	1.04	1.93
26/01/2020 22:39:21	26012020	260120	223921	57.370	12.264343	-56.478420	57.520	0.150	0.080	-0.470	57.390	-1.300	-0.100																			1580078361.0	0.72	1.33
26/01/2020 22:39:22	26012020	260120	223922	57.480	12.264343	-56.478418	57.610	0.160	-0.120	-0.260	57.490	-1.400	0.100																			1580078362.0	0.24	0.44
26/01/2020 22:39:23	26012020	260120	223923	57.510	12.264342	-56.478417	57.630	0.010	-0.210	0.160	57.500	-1.600	0.500																			1580078363.0	0.71	1.31
26/01/2020 22:39:24	26012020	260120	223924	57.430	12.264338	-56.478413	57.550	-0.260	-0.100	0.590	57.400	-1.500	0.900																			1580078364.0	0.78	1.44
26/01/2020 22:39:25	26012020	260120	223925	57.270	12.264337	-56.478413	57.370	-0.430	0.100	0.920	57.230	-1.300	1.300																			1580078365.0	0.53	0.98
26/01/2020 22:39:26	26012020	260120	223926	57.130	12.264335	-56.478413	57.260	-0.330	0.100	1.130	57.120	-1.200	1.500																			1580078366.0	0.39	0.72
26/01/2020 22:39:27	26012020	260120	223927	57.110	12.264333	-56.478413	57.260	-0.020	-0.260	1.160	57.120	-1.600	1.500																			1580078367.0	0.16	0.30
26/01/2020 22:39:28	26012020	260120	223928	57.160	12.264333	-56.478412	57.320	0.240	-0.660	1.070	57.170	-2.000	1.500																			1580078368.0	0.42	0.78
26/01/2020 22:39:29	26012020	260120	223929	57.200	12.264335	-56.478410	57.330	0.270	-0.680	0.930	57.200	-2.000	1.300																			1580078369.0	0.48	0.89
26/01/2020 22:39:30	26012020	260120	223930	57.160	12.264335	-56.478408	57.280	0.090	-0.250	0.710	57.150	-1.700	1.100																			1580078370.0	0.15	0.28
26/01/2020 22:39:31	26012020	260120	223931	57.090	12.264333	-56.478410	57.200	-0.110	0.250	0.360	57.090	-1.200	0.800																			1580078371.0	0.32	0.59
26/01/2020 22:39:32	26012020	260120	223932	57.090	12.264335	-56.478413	57.220	-0.110	0.450	-0.140	57.100	-0.900	0.300																			1580078372.0	0.59	1.09
26/01/2020 22:39:33	26012020	260120	223933	57.230	12.264338	-56.478415	57.400	0.100	0.260	-0.710	57.270	-1.000	-0.300																			1580078373.0	0.76	1.41
26/01/2020 22:39:34	26012020	260120	223934	57.440	12.264342	-56.478417	57.590	0.310	-0.110	-1.080	57.480	-1.400	-0.700																			1580078374.0	0.84	1.56
26/01/2020 22:39:35	26012020	260120	223935	57.500	12.264345	-56.478417	57.600	0.290	-0.340	-0.950	57.490	-1.700	-0.600																			1580078375.0	0.64	1.19
26/01/2020 22:39:36	26012020	260120	223936	57.350	12.264345	-56.478417	57.430	0.060	-0.350	-0.330	57.300	-1.700	-0.000																			1580078376.0	0.14	0.26
26/01/2020 22:39:37	26012020	260120	223937	57.150	12.264342	-56.478415	57.270	-0.170	-0.290	0.510	57.120	-1.600	0.800																			1580078377.0	0.62	1.15
26/01/2020 22:39:38	26012020	260120	223938	57.100	12.264338	-56.478412	57.270	-0.290	-0.320	1.250	57.110	-1.600	1.600																			1580078378.0	1.16	2.15
26/01/2020 22:39:39	26012020	260120	223939	57.210	12.264333	-56.478408	57.410	-0.340	-0.300	1.640	57.240	-1.700	2.000																			1580078379.0	1.27	2.35
26/01/2020 22:39:40	26012020	260120	223940	57.340	12.264330	-56.478405	57.530	-0.350	-0.050	1.740	57.370	-1.400	2.100																			1580078380.0	0.89	1.65
26/01/2020 22:39:41	26012020	260120	223941	57.410	12.264328	-56.478405	57.590	-0.260	0.300	1.600	57.420	-1.100	2.000																			1580078381.0	0.50	0.93
26/01/2020 22:39:42	26012020	260120	223942	57.520	12.264327	-56.478407	57.700	-0.010	0.320	1.100	57.560	-1.000	1.600																			1580078382.0	0.33	0.61
26/01/2020 22:39:43	26012020	260120	223943	57.650	12.264328	-56.478407	57.820	0.320	-0.000	0.390	57.670	-1.300	0.900																			1580078383.0	0.47	0.87
26/01/2020 22:39:44	26012020	260120	223944	57.660	12.264332	-56.478408	57.730	0.520	-0.340	-0.230	57.630	-1.700	0.200																			1580078384.0	0.83	1.54
26/01/2020 22:39:45	26012020	260120	223945	57.490	12.264337	-56.478408	57.560	0.460	-0.500	-0.630	57.460	-1.800	-0.200																			1580078385.0	0.85	1.57
26/01/2020 22:39:46	26012020	260120	223946	57.400	12.264340	-56.478410	57.500	0.210	-0.470	-0.830	57.400	-1.800	-0.400																			1580078386.0	0.72	1.33
26/01/2020 22:39:47	26012020	260120	223947	57.470	12.264342	-56.478412	57.620	-0.010	-0.290	-0.860	57.500	-1.700	-0.500																			1580078387.0	0.55	1.02
26/01/2020 22:39:48	26012020	260120	223948	57.630	12.264342	-56.478413	57.780	-0.120	0.010	-0.640	57.660	-1.400	-0.300																			1580078388.0	0.27	0.50
26/01/2020 22:39:49	26012020	260120	223949	57.730	12.264340	-56.478413	57.850	-0.200	0.310	-0.080	57.740	-1.100	0.200																			1580078389.0	0.38	0.70
26/01/2020 22:39:50	26012020	260120	223950	57.760	12.264337	-56.478412	57.900	-0.300	0.310	0.720	57.760	-1.000	1.000																			1580078390.0	0.88	1.63
26/01/2020 22:39:51	26012020	260120	223951	57.810	12.264332	-56.478408	57.980	-0.370	0.010	1.520	57.830	-1.300	1.800																			1580078391.0	1.19	2.20
26/01/2020 22:39:52	26012020	260120	223952	57.900	12.264327	-56.478405	58.080	-0.320	-0.370	2.150	57.920	-1.700	2.500																			1580078392.0	1.32	2.44
26/01/2020 22:39:53	26012020	260120	223953	57.950	12.264323	-56.478400	58.090	-0.140	-0.540	2.480	57.940	-1.900	2.800																			1580078393.0	1.21	2.24
26/01/2020 22:39:54	26012020	260120	223954	57.910	12.264320	-56.478397	58.030	0.040	-0.370	2.380	57.890	-1.800	2.800																			1580078394.0	0.85	1.57
26/01/2020 22:39:55	26012020	260120	223955	57.850	12.264320	-56.478398	57.920	0.110	-0.020	1.750	57.840	-1.400	2.200																			1580078395.0	0.32	0.59
26/01/2020 22:39:56	26012020	260120	223956	57.710	12.264322	-56.478402	57.760	0.130	0.250	0.750	57.680	-1.100	1.300																			1580078396.0	0.84	1.56
26/01/2020 22:39:57	26012020	260120	223957	57.590	12.264327	-56.478407	57.640	0.260	0.170	-0.410	57.580	-1.200	0.100																			1580078397.0	1.57	2.91
26/01/2020 22:39:58	26012020	260120	223958	57.620	12.264333	-56.478410	57.720	0.490	-0.310	-1.490	57.650	-1.600	-1.000																			1580078398.0	1.87	3.46
26/01/2020 22:39:59	26012020	260120	223959	57.800	12.264342	-56.478412	57.910	0.550	-0.670	-2.160	57.840	-2.000	-1.700																			1580078399.0	1.73	3.20
26/01/2020 22:40:00	26012020	260120	224000	57.940	12.264347	-56.478413	58.030	0.210	-0.480	-2.100	57.940	-1.900	-1.800	1015.00	26.00	26.10	20.70	20.80	-1.00	72.00	72.00	379.00	25.20	346.00	3.60	42.00	3.30	15	3877.00	27.60	27.70	1580078400.0	1.00	1.85
26/01/2020 22:40:01	26012020	260120	224001	57.910	12.264345	-56.478413	57.990	-0.350	0.140	-1.280	57.890	-1.300	-1.000																			1580078401.0	0.29	0.54
26/01/2020 22:40:02	26012020	260120	224002	57.800	12.264338	-56.478413	57.910	-0.750	0.560	0.020	57.780	-0.800	0.300																			1580078402.0	1.43	2.65
26/01/2020 22:40:03	26012020	260120	224003	57.710	12.264330	-56.478410	57.850	-0.680	0.370	1.340	57.700	-0.900	1.600																			1580078403.0	2.00	3.70
26/01/2020 22:40:04	26012020	260120	224004	57.660	12.264322	-56.478405	57.840	-0.240	-0.260	2.390	57.650	-1.500	2.700																			1580078404.0	1.98	3.67
26/01/2020 22:40:05	26012020	260120	224005	57.670	12.264318	-56.478398	57.860	0.240	-0.780	3.030	57.680	-2.100	3.400																			1580078405.0	1.63	3.02
26/01/2020 22:40:06	26012020	260120	224006	57.720	12.264315	-56.478395	57.940	0.480	-0.770	3.140	57.730	-2.100	3.500																			1580078406.0	0.97	1.80
26/01/2020 22:40:07	26012020	260120	224007	57.730	12.264315	-56.478395	57.910	0.400	-0.230	2.690	57.730	-1.700	3.200																			1580078407.0	0.09	0.17
26/01/2020 22:40:08	26012020	260120	224008	57.640	12.264317	-56.478398	57.760	0.120	0.430	1.840	57.610	-1.000	2.400																			1580078408.0	0.86	1.59
26/01/2020 22:40:09	26012020	260120	224009	57.520	12.264320	-56.478403	57.570	-0.140	0.680	0.720	57.490	-0.700	1.300																			1580078409.0	1.34	2.48
26/01/2020 22:40:10	26012020	260120	224010	57.310	12.264325	-56.478408	57.360	-0.230	0.410	-0.400	57.270	-0.900	0.100																			1580078410.0	1.47	2.72
26/01/2020 22:40:11	26012020	260120	224011	57.160	12.264330	-56.478412	57.220	-0.170	-0.180	-1.400	57.150	-1.500	-0.900																			1580078411.0	1.42	2.63
26/01/2020 22:40:12	26012020	260120	224012	57.180	12.264335	-56.478413	57.310	-0.080	-0.720	-2.200	57.210	-2.000	-1.700																			1580078412.0	1.28	2.37
26/01/2020 22:40:13	26012020	260120	224013	57.400	12.264340	-56.478415	57.550	-0.030	-0.950	-2.540	57.450	-2.300	-2.100																			1580078413.0	1.02	1.89
26/01/2020 22:40:14	26012020	260120	224014	57.610	12.264342	-56.478415	57.740	-0.010	-0.720	-2.130	57.640	-2.100	-1.800																			1580078414.0	0.39	0.72
26/01/2020 22:40:15	26012020	260120	224015	57.650	12.264340	-56.478415	57.750	0.040	-0.210	-0.970	57.630	-1.600	-0.700																			1580078415.0	0.61	1.13
26/01/2020 22:40:16	26012020	260120	224016	57.500	12.264332	-56.478412	57.620	0.110	0.280	0.610	57.460	-1.100	0.800																			1580078416.0	1.63	3.02
26/01/2020 22:40:17	26012020	260120	224017	57.320	12.264323	-56.478408	57.470	0.170	0.420	2.130	57.290	-0.900	2.400																			1580078417.0	2.22	4.11
26/01/2020 22:40:18	26012020	260120	224018	57.190	12.264315	-56.478403	57.370	0.140	0.260	3.270	57.170	-1.100	3.500																			1580078418.0	2.10	3.89
26/01/2020 22:40:19	26012020	260120	224019	57.110	12.264310	-56.478398	57.320	-0.010	0.080	3.810	57.090	-1.200	4.200																			1580078419.0	1.43	2.65
26/01/2020 22:40:20	26012020	260120	224020	57.050	12.264308	-56.478397	57.240	-0.210	0.020	3.530	57.040	-1.300	4.000																			1580078420.0	0.41	0.76
26/01/2020 22:40:21	26012020	260120	224021	57.010	12.264310	-56.478400	57.190	-0.310	-0.020	2.530	57.010	-1.400	3.100																			1580078421.0	0.77	1.43
26/01/2020 22:40:22	26012020	260120	224022	57.010	12.264315	-56.478405	57.160	-0.240	-0.220	1.180	57.010	-1.500	1.700																			1580078422.0	1.61	2.98
26/01/2020 22:40:23	26012020	260120	224023	57.020	12.264323	-56.478410	57.140	-0.020	-0.580	-0.170	57.030	-1.900	0.400																			1580078423.0	1.83	3.39
26/01/2020 22:40:24	26012020	260120	224024	57.070	12.264330	-56.478413	57.190	0.190	-0.790	-1.230	57.090	-2.100	-0.700																			1580078424.0	1.55	2.87
26/01/2020 22:40:25	26012020	260120	224025	57.140	12.264333	-56.478415	57.240	0.220	-0.570	-1.770	57.150	-2.000	-1.300																			1580078425.0	0.86	1.59
26/01/2020 22:40:26	26012020	260120	224026	57.160	12.264333	-56.478417	57.250	0.070	-0.000	-1.810	57.160	-1.400	-1.400																			1580078426.0	0.27	0.50
26/01/2020 22:40:27	26012020	260120	224027	57.130	12.264330	-56.478417	57.230	-0.100	0.480	-1.500	57.120	-0.900	-1.200																			1580078427.0	0.62	1.15
26/01/2020 22:40:28	26012020	260120	224028	57.080	12.264328	-56.478418	57.200	-0.150	0.480	-1.010	57.070	-0.800	-0.700																			1580078428.0	0.61	1.13
26/01/2020 22:40:29	26012020	260120	224029	57.070	12.264327	-56.478417	57.220	-0.040	0.010	-0.390	57.070	-1.300	-0.100																			1580078429.0	0.33	0.61
26/01/2020 22:40:30	26012020	260120	224030	57.110	12.264327	-56.478413	57.300	0.140	-0.500	0.440	57.120	-1.800	0.700																			1580078430.0	0.57	1.06
26/01/2020 22:40:31	26012020	260120	224031	57.180	12.264325	-56.478410	57.380	0.210	-0.590	1.460	57.200	-2.000	1.700																			1580078431.0	0.81	1.50
26/01/2020 22:40:32	26012020	260120	224032	57.220	12.264322	-56.478407	57.410	0.040	-0.180	2.400	57.230	-1.600	2.700																			1580078432.0	1.10	2.04
26/01/2020 22:40:33	26012020	260120	224033	57.240	12.264315	-56.478407	57.440	-0.280	0.300	2.970	57.240	-1.100	3.300																			1580078433.0	1.24	2.30
26/01/2020 22:40:34	26012020	260120	224034	57.280	12.264310	-56.478407	57.490	-0.450	0.420	3.010	57.290	-0.900	3.400																			1580078434.0	0.94	1.74
26/01/2020 22:40:35	26012020	260120	224035	57.370	12.264310	-56.478407	57.560	-0.290	0.090	2.520	57.380	-1.200	3.000																			1580078435.0	0.28	0.52
26/01/2020 22:40:36	26012020	260120	224036	57.400	12.264312	-56.478407	57.540	0.070	-0.360	1.730	57.400	-1.700	2.200																			1580078436.0	0.37	0.69
26/01/2020 22:40:37	26012020	260120	224037	57.370	12.264315	-56.478407	57.460	0.340	-0.640	0.720	57.360	-2.000	1.300																			1580078437.0	0.82	1.52
26/01/2020 22:40:38	26012020	260120	224038	57.370	12.264320	-56.478410	57.460	0.350	-0.660	-0.440	57.380	-2.000	0.100																			1580078438.0	1.27	2.35
26/01/2020 22:40:39	26012020	260120	224039	57.420	12.264327	-56.478413	57.500	0.150	-0.390	-1.430	57.430	-1.800	-0.900																			1580078439.0	1.61	2.98
26/01/2020 22:40:40	26012020	260120	224040	57.440	12.264332	-56.478418	57.510	-0.090	0.030	-1.920	57.440	-1.400	-1.500																			1580078440.0	1.50	2.78
26/01/2020 22:40:41	26012020	260120	224041	57.410	12.264335	-56.478422	57.480	-0.190	0.320	-1.800	57.410	-1.100	-1.400																			1580078441.0	0.91	1.69
26/01/2020 22:40:42	26012020	260120	224042	57.410	12.264333	-56.478422	57.520	-0.090	0.260	-1.160	57.420	-1.100	-0.900																			1580078442.0	0.21	0.39
26/01/2020 22:40:43	26012020	260120	224043	57.450	12.264330	-56.478418	57.560	0.100	-0.000	-0.100	57.450	-1.300	0.200																			1580078443.0	0.95	1.76
26/01/2020 22:40:44	26012020	260120	224044	57.430	12.264325	-56.478415	57.550	0.150	-0.180	1.110	57.410	-1.500	1.400																			1580078444.0	1.55	2.87
26/01/2020 22:40:45	26012020	260120	224045	57.390	12.264320	-56.478410	57.520	-0.000	-0.190	2.040	57.380	-1.500	2.300																			1580078445.0	1.51	2.80
26/01/2020 22:40:46	26012020	260120	224046	57.410	12.264315	-56.478408	57.590	-0.220	-0.130	2.500	57.430	-1.500	2.900																			1580078446.0	0.96	1.78
26/01/2020 22:40:47	26012020	260120	224047	57.490	12.264313	-56.478408	57.660	-0.310	-0.120	2.570	57.500	-1.500	3.000																			1580078447.0	0.32	0.59
26/01/2020 22:40:48	26012020	260120	224048	57.510	12.264313	-56.478410	57.660	-0.180	-0.120	2.390	57.510	-1.500	2.800																			1580078448.0	0.24	0.44
26/01/2020 22:40:49	26012020	260120	224049	57.480	12.264315	-56.478410	57.590	0.030	-0.180	1.930	57.480	-1.500	2.400																			1580078449.0	0.31	0.57
26/01/2020 22:40:50	26012020	260120	224050	57.490	12.264317	-56.478412	57.600	0.170	-0.310	1.160	57.500	-1.600	1.700																			1580078450.0	0.39	0.72
26/01/2020 22:40:51	26012020	260120	224051	57.570	12.264320	-56.478413	57.700	0.210	-0.450	0.210	57.600	-1.800	0.700																			1580078451.0	0.66	1.22
26/01/2020 22:40:52	26012020	260120	224052	57.680	12.264323	-56.478415	57.780	0.240	-0.450	-0.710	57.690	-1.800	-0.200																			1580078452.0	0.93	1.72
26/01/2020 22:40:53	26012020	260120	224053	57.670	12.264327	-56.478417	57.730	0.260	-0.180	-1.360	57.650	-1.600	-0.900																			1580078453.0	0.98	1.81
26/01/2020 22:40:54	26012020	260120	224054	57.530	12.264330	-56.478420	57.580	0.140	0.250	-1.710	57.500	-1.200	-1.300																			1580078454.0	0.90	1.67
26/01/2020 22:40:55	26012020	260120	224055	57.400	12.264333	-56.478423	57.480	-0.110	0.560	-1.830	57.380	-0.800	-1.400																			1580078455.0	0.97	1.80
26/01/2020 22:40:56	26012020	260120	224056	57.400	12.264335	-56.478427	57.530	-0.320	0.510	-1.570	57.430	-0.800	-1.200																			1580078456.0	0.80	1.48
26/01/2020 22:40:57	26012020	260120	224057	57.520	12.264335	-56.478427	57.740	-0.320	0.060	-0.800	57.560	-1.200	-0.500																			1580078457.0	0.07	0.13
26/01/2020 22:40:58	26012020	260120	224058	57.770	12.264332	-56.478423	57.980	-0.190	-0.510	0.370	57.820	-1.800	0.600																			1580078458.0	1.11	2.06
26/01/2020 22:40:59	26012020	260120	224059	57.930	12.264325	-56.478417	58.170	-0.110	-0.860	1.580	57.960	-2.200	1.800																			1580078459.0	1.94	3.59
26/01/2020 22:41:00	26012020	260120	224100	58.010	12.264317	-56.478410	58.170	-0.120	-0.770	2.580	57.990	-2.100	2.900	1015.00	26.00	26.10	20.70	20.80	-1.00	72.00	72.00	379.00	25.10	349.00	3.40	45.00	2.90	15	3820.00	27.70	27.60	1580078460.0	2.09	3.87
26/01/2020 22:41:01	26012020	260120	224101	57.800	12.264310	-56.478407	57.920	-0.080	-0.310	3.220	57.740	-1.700	3.600																			1580078461.0	1.65	3.06
26/01/2020 22:41:02	26012020	260120	224102	57.410	12.264307	-56.478407	57.510	0.130	0.120	3.290	57.330	-1.300	3.700																			1580078462.0	0.92	1.70
26/01/2020 22:41:03	26012020	260120	224103	57.090	12.264307	-56.478408	57.220	0.490	0.150	2.560	57.050	-1.200	3.100																			1580078463.0	0.32	0.59
26/01/2020 22:41:04	26012020	260120	224104	57.000	12.264313	-56.478410	57.150	0.740	-0.060	1.120	57.010	-1.400	1.700																			1580078464.0	1.41	2.61
26/01/2020 22:41:05	26012020	260120	224105	57.090	12.264322	-56.478415	57.210	0.610	-0.080	-0.470	57.110	-1.400	0.100																			1580078465.0	2.22	4.11
26/01/2020 22:41:06	26012020	260120	224106	57.150	12.264332	-56.478420	57.240	0.060	0.190	-1.650	57.150	-1.200	-1.100																			1580078466.0	2.19	4.06
26/01/2020 22:41:07	26012020	260120	224107	57.120	12.264337	-56.478425	57.180	-0.620	0.420	-2.150	57.100	-0.900	-1.700																			1580078467.0	1.52	2.82
26/01/2020 22:41:08	26012020	260120	224108	57.050	12.264337	-56.478428	57.120	-0.990	0.260	-2.020	57.040	-1.000	-1.600																			1580078468.0	0.63	1.17
26/01/2020 22:41:09	26012020	260120	224109	57.040	12.264335	-56.478427	57.140	-0.810	-0.240	-1.400	57.040	-1.500	-1.100																			1580078469.0	0.42	0.78
26/01/2020 22:41:10	26012020	260120	224110	57.020	12.264332	-56.478422	57.130	-0.250	-0.750	-0.440	57.010	-2.000	-0.200																			1580078470.0	1.22	2.26
26/01/2020 22:41:11	26012020	260120	224111	56.920	12.264327	-56.478417	56.990	0.330	-0.830	0.740	56.870	-2.200	1.000																			1580078471.0	1.59	2.94
26/01/2020 22:41:12	26012020	260120	224112	56.650	12.264320	-56.478412	56.740	0.610	-0.460	1.900	56.600	-1.800	2.200																			1580078472.0	1.58	2.93
26/01/2020 22:41:13	26012020	260120	224113	56.400	12.264315	-56.478410	56.530	0.540	-0.000	2.580	56.360	-1.400	2.900																			1580078473.0	1.26	2.33
26/01/2020 22:41:14	26012020	260120	224114	56.260	12.264313	-56.478412	56.410	0.330	0.160	2.590	56.240	-1.200	3.000																			1580078474.0	0.51	0.94
26/01/2020 22:41:15	26012020	260120	224115	56.170	12.264315	-56.478412	56.310	0.140	0.040	2.180	56.160	-1.300	2.700																			1580078475.0	0.48	0.89
26/01/2020 22:41:16	26012020	260120	224116	56.150	12.264318	-56.478413	56.280	0.030	-0.160	1.580	56.150	-1.500	2.100																			1580078476.0	0.90	1.67
26/01/2020 22:41:17	26012020	260120	224117	56.160	12.264322	-56.478415	56.260	-0.060	-0.160	0.940	56.160	-1.500	1.400																			1580078477.0	0.86	1.59
26/01/2020 22:41:18	26012020	260120	224118	56.080	12.264325	-56.478417	56.120	-0.190	0.070	0.340	56.050	-1.300	0.800																			1580078478.0	0.57	1.06
26/01/2020 22:41:19	26012020	260120	224119	55.890	12.264325	-56.478418	55.900	-0.340	0.310	-0.210	55.840	-1.100	0.300																			1580078479.0	0.48	0.89
26/01/2020 22:41:20	26012020	260120	224120	55.660	12.264325	-56.478422	55.660	-0.380	0.330	-0.650	55.610	-1.000	-0.200																			1580078480.0	0.49	0.91
26/01/2020 22:41:21	26012020	260120	224121	55.460	12.264327	-56.478423	55.500	-0.250	0.000	-1.000	55.450	-1.300	-0.500																			1580078481.0	0.42	0.78
26/01/2020 22:41:22	26012020	260120	224122	55.440	12.264328	-56.478423	55.510	0.010	-0.520	-1.330	55.450	-1.800	-0.900																			1580078482.0	0.56	1.04
26/01/2020 22:41:23	26012020	260120	224123	55.530	12.264333	-56.478423	55.640	0.270	-0.820	-1.450	55.550	-2.100	-1.000																			1580078483.0	0.79	1.46
26/01/2020 22:41:24	26012020	260120	224124	55.670	12.264335	-56.478425	55.750	0.400	-0.690	-1.200	55.690	-2.100	-0.800																			1580078484.0	0.51	0.94
26/01/2020 22:41:25	26012020	260120	224125	55.710	12.264335	-56.478425	55.780	0.350	-0.310	-0.490	55.700	-1.700	-0.200																			1580078485.0	0.15	0.28
26/01/2020 22:41:26	26012020	260120	224126	55.620	12.264330	-56.478423	55.700	0.180	0.090	0.590	55.600	-1.300	0.800																			1580078486.0	0.84	1.56
26/01/2020 22:41:27	26012020	260120	224127	55.500	12.264325	-56.478420	55.590	-0.070	0.360	1.720	55.480	-1.000	2.000																			1580078487.0	1.43	2.65
26/01/2020 22:41:28	26012020	260120	224128	55.390	12.264318	-56.478417	55.490	-0.290	0.370	2.560	55.370	-0.900	2.900																			1580078488.0	1.57	2.91
26/01/2020 22:41:29	26012020	260120	224129	55.310	12.264315	-56.478413	55.440	-0.380	0.180	2.910	55.300	-1.100	3.300																			1580078489.0	1.16	2.15
26/01/2020 22:41:30	26012020	260120	224130	55.290	12.264313	-56.478410	55.420	-0.270	-0.070	2.700	55.300	-1.400	3.200																			1580078490.0	0.55	1.02
26/01/2020 22:41:31	26012020	260120	224131	55.310	12.264313	-56.478410	55.410	-0.030	-0.260	1.980	55.310	-1.600	2.500																			1580078491.0	0.23	0.43
26/01/2020 22:41:32	26012020	260120	224132	55.260	12.264317	-56.478412	55.300	0.210	-0.370	0.950	55.230	-1.700	1.500																			1580078492.0	0.76	1.41
26/01/2020 22:41:33	26012020	260120	224133	55.140	12.264322	-56.478415	55.170	0.340	-0.420	-0.090	55.120	-1.800	0.400																			1580078493.0	1.16	2.15
26/01/2020 22:41:34	26012020	260120	224134	55.060	12.264327	-56.478418	55.100	0.310	-0.370	-0.960	55.050	-1.700	-0.400																			1580078494.0	1.31	2.43
26/01/2020 22:41:35	26012020	260120	224135	55.050	12.264332	-56.478422	55.120	0.180	-0.200	-1.590	55.060	-1.600	-1.100																			1580078495.0	1.27	2.35
26/01/2020 22:41:36	26012020	260120	224136	55.160	12.264335	-56.478423	55.230	0.010	0.000	-1.870	55.180	-1.400	-1.400																			1580078496.0	1.01	1.87
26/01/2020 22:41:37	26012020	260120	224137	55.320	12.264338	-56.478425	55.410	-0.140	0.110	-1.660	55.350	-1.200	-1.300																			1580078497.0	0.49	0.91
26/01/2020 22:41:38	26012020	260120	224138	55.460	12.264337	-56.478425	55.560	-0.240	0.020	-0.890	55.490	-1.300	-0.600																			1580078498.0	0.24	0.44
26/01/2020 22:41:39	26012020	260120	224139	55.560	12.264333	-56.478420	55.690	-0.200	-0.200	0.310	55.580	-1.500	0.600																			1580078499.0	1.06	1.96
26/01/2020 22:41:40	26012020	260120	224140	55.630	12.264328	-56.478415	55.750	-0.030	-0.360	1.660	55.630	-1.700	1.900																			1580078500.0	1.77	3.28
26/01/2020 22:41:41	26012020	260120	224141	55.580	12.264320	-56.478408	55.670	0.120	-0.210	2.900	55.550	-1.600	3.200																			1580078501.0	2.14	3.96
26/01/2020 22:41:42	26012020	260120	224142	55.350	12.264313	-56.478403	55.420	0.090	0.150	3.650	55.290	-1.200	4.000																			1580078502.0	1.93	3.57
26/01/2020 22:41:43	26012020	260120	224143	55.060	12.264308	-56.478402	55.130	-0.080	0.390	3.580	55.000	-1.000	4.000																			1580078503.0	1.05	1.94
26/01/2020 22:41:44	26012020	260120	224144	54.850	12.264310	-56.478403	54.950	-0.250	0.250	2.600	54.830	-1.100	3.200																			1580078504.0	0.43	0.80
26/01/2020 22:41:45	26012020	260120	224145	54.800	12.264317	-56.478407	54.930	-0.240	-0.190	1.030	54.820	-1.500	1.600																			1580078505.0	1.76	3.26
26/01/2020 22:41:46	26012020	260120	224146	55.010	12.264327	-56.478413	55.190	0.000	-0.680	-0.710	55.080	-2.000	-0.100																			1580078506.0	2.56	4.74
26/01/2020 22:41:47	26012020	260120	224147	55.350	12.264337	-56.478417	55.610	0.370	-0.900	-2.030	55.440	-2.200	-1.500																			1580078507.0	2.43	4.50
26/01/2020 22:41:48	26012020	260120	224148	55.780	12.264343	-56.478420	55.870	0.540	-0.650	-2.500	55.810	-2.000	-2.100																			1580078508.0	1.37	2.54
26/01/2020 22:41:49	26012020	260120	224149	55.790	12.264343	-56.478420	55.770	0.360	-0.050	-2.040	55.760	-1.500	-1.700																			1580078509.0	0.09	0.17
26/01/2020 22:41:50	26012020	260120	224150	55.450	12.264338	-56.478418	55.470	-0.040	0.420	-0.980	55.390	-1.000	-0.700																			1580078510.0	0.99	1.83
26/01/2020 22:41:51	26012020	260120	224151	55.160	12.264333	-56.478417	55.240	-0.340	0.370	0.210	55.140	-0.900	0.500																			1580078511.0	1.39	2.57
26/01/2020 22:41:52	26012020	260120	224152	55.090	12.264328	-56.478412	55.240	-0.370	-0.020	1.230	55.100	-1.300	1.500																			1580078512.0	1.31	2.43
26/01/2020 22:41:53	26012020	260120	224153	55.230	12.264327	-56.478407	55.440	-0.180	-0.340	1.980	55.280	-1.600	2.300																			1580078513.0	1.10	2.04
26/01/2020 22:41:54	26012020	260120	224154	55.470	12.264325	-56.478403	55.670	0.050	-0.290	2.540	55.500	-1.700	2.900																			1580078514.0	0.84	1.56
26/01/2020 22:41:55	26012020	260120	224155	55.550	12.264322	-56.478402	55.680	0.140	0.100	2.940	55.540	-1.300	3.300																			1580078515.0	0.72	1.33
26/01/2020 22:41:56	26012020	260120	224156	55.350	12.264318	-56.478402	55.420	0.050	0.450	3.050	55.280	-0.900	3.500																			1580078516.0	0.76	1.41
26/01/2020 22:41:57	26012020	260120	224157	55.000	12.264317	-56.478402	55.060	-0.100	0.340	2.630	54.940	-1.000	3.100																			1580078517.0	0.42	0.78
26/01/2020 22:41:58	26012020	260120	224158	54.810	12.264320	-56.478403	54.920	-0.150	-0.250	1.600	54.800	-1.500	2.200																			1580078518.0	0.69	1.28
26/01/2020 22:41:59	26012020	260120	224159	54.890	12.264327	-56.478407	55.030	-0.050	-0.810	0.220	54.930	-2.100	0.800																			1580078519.0	1.77	3.28
26/01/2020 22:42:00	26012020	260120	224200	55.110	12.264337	-56.478410	55.250	0.130	-0.890	-1.000	55.160	-2.300	-0.500	1015.10	26.10	26.10	21.00	21.00	-2.00	73.00	73.00	379.00	25.10	345.00	3.80	38.00	3.30	15	3754.00	27.60	27.60	1580078520.0	2.20	4.07
26/01/2020 22:42:01	26012020	260120	224201	55.290	12.264343	-56.478413	55.390	0.250	-0.520	-1.690	55.320	-1.900	-1.200																			1580078521.0	1.68	3.11
26/01/2020 22:42:02	26012020	260120	224202	55.380	12.264345	-56.478417	55.460	0.220	-0.080	-1.760	55.390	-1.500	-1.400																			1580078522.0	0.74	1.37
26/01/2020 22:42:03	26012020	260120	224203	55.380	12.264345	-56.478417	55.430	0.060	0.120	-1.250	55.370	-1.200	-0.900																			1580078523.0	0.24	0.44
26/01/2020 22:42:04	26012020	260120	224204	55.330	12.264342	-56.478413	55.420	-0.120	0.150	-0.390	55.320	-1.200	-0.100																			1580078524.0	0.88	1.63
26/01/2020 22:42:05	26012020	260120	224205	55.330	12.264338	-56.478410	55.470	-0.230	0.140	0.550	55.340	-1.200	0.800																			1580078525.0	1.16	2.15
26/01/2020 22:42:06	26012020	260120	224206	55.390	12.264335	-56.478407	55.550	-0.220	0.170	1.380	55.410	-1.200	1.700																			1580078526.0	1.11	2.06
26/01/2020 22:42:07	26012020	260120	224207	55.430	12.264332	-56.478403	55.570	-0.120	0.170	2.020	55.430	-1.200	2.400																			1580078527.0	0.91	1.69
26/01/2020 22:42:08	26012020	260120	224208	55.350	12.264328	-56.478402	55.470	-0.000	0.070	2.410	55.330	-1.300	2.800																			1580078528.0	0.67	1.24
26/01/2020 22:42:09	26012020	260120	224209	55.270	12.264328	-56.478400	55.420	0.100	-0.180	2.390	55.270	-1.500	2.800																			1580078529.0	0.29	0.54
26/01/2020 22:42:10	26012020	260120	224210	55.380	12.264330	-56.478400	55.590	0.180	-0.470	1.890	55.430	-1.800	2.400																			1580078530.0	0.39	0.72
26/01/2020 22:42:11	26012020	260120	224211	55.670	12.264333	-56.478400	55.860	0.180	-0.560	1.110	55.730	-1.900	1.600																			1580078531.0	0.80	1.48
26/01/2020 22:42:12	26012020	260120	224212	55.930	12.264338	-56.478402	56.060	0.070	-0.350	0.320	55.960	-1.700	0.800																			1580078532.0	0.97	1.80
26/01/2020 22:42:13	26012020	260120	224213	56.040	12.264342	-56.478405	56.150	-0.120	0.020	-0.310	56.060	-1.400	0.200																			1580078533.0	0.99	1.83
26/01/2020 22:42:14	26012020	260120	224214	56.060	12.264343	-56.478408	56.130	-0.280	0.230	-0.670	56.050	-1.100	-0.200																			1580078534.0	0.88	1.63
26/01/2020 22:42:15	26012020	260120	224215	56.000	12.264345	-56.478410	56.090	-0.270	0.110	-0.710	55.990	-1.200	-0.300																			1580078535.0	0.53	0.98
26/01/2020 22:42:16	26012020	260120	224216	55.990	12.264347	-56.478410	56.110	-0.090	-0.250	-0.480	56.000	-1.500	-0.100																			1580078536.0	0.27	0.50
26/01/2020 22:42:17	26012020	260120	224217	56.090	12.264345	-56.478407	56.260	0.100	-0.540	-0.110	56.120	-1.900	0.200																			1580078537.0	0.68	1.26
26/01/2020 22:42:18	26012020	260120	224218	56.280	12.264343	-56.478403	56.470	0.120	-0.500	0.250	56.320	-1.900	0.600																			1580078538.0	0.84	1.56
26/01/2020 22:42:19	26012020	260120	224219	56.460	12.264342	-56.478400	56.640	-0.010	-0.100	0.570	56.490	-1.500	0.900																			1580078539.0	0.66	1.22
26/01/2020 22:42:20	26012020	260120	224220	56.500	12.264340	-56.478400	56.630	-0.090	0.380	0.850	56.490	-1.000	1.200																			1580078540.0	0.50	0.93
26/01/2020 22:42:21	26012020	260120	224221	56.370	12.264338	-56.478402	56.470	0.040	0.490	1.080	56.340	-0.800	1.500																			1580078541.0	0.43	0.80
26/01/2020 22:42:22	26012020	260120	224222	56.220	12.264338	-56.478402	56.320	0.310	0.090	1.190	56.200	-1.200	1.600																			1580078542.0	0.01	0.02
26/01/2020 22:42:23	26012020	260120	224223	56.130	12.264340	-56.478400	56.270	0.460	-0.480	1.130	56.120	-1.800	1.600																			1580078543.0	0.51	0.94
26/01/2020 22:42:24	26012020	260120	224224	56.150	12.264343	-56.478400	56.300	0.300	-0.780	0.870	56.170	-2.100	1.300																			1580078544.0	0.69	1.28
26/01/2020 22:42:25	26012020	260120	224225	56.230	12.264345	-56.478400	56.400	-0.090	-0.600	0.540	56.260	-2.000	1.000																			1580078545.0	0.60	1.11
26/01/2020 22:42:26	26012020	260120	224226	56.350	12.264347	-56.478402	56.490	-0.440	-0.070	0.270	56.370	-1.500	0.700																			1580078546.0	0.53	0.98
26/01/2020 22:42:27	26012020	260120	224227	56.430	12.264347	-56.478403	56.550	-0.530	0.440	0.150	56.430	-1.000	0.600																			1580078547.0	0.55	1.02
26/01/2020 22:42:28	26012020	260120	224228	56.400	12.264345	-56.478405	56.470	-0.400	0.620	0.190	56.380	-0.700	0.600																			1580078548.0	0.47	0.87
26/01/2020 22:42:29	26012020	260120	224229	56.240	12.264343	-56.478405	56.290	-0.220	0.430	0.330	56.200	-0.900	0.700																			1580078549.0	0.49	0.91
26/01/2020 22:42:30	26012020	260120	224230	56.090	12.264342	-56.478403	56.170	-0.090	-0.080	0.400	56.070	-1.400	0.800																			1580078550.0	0.45	0.83
26/01/2020 22:42:31	26012020	260120	224231	56.090	12.264342	-56.478402	56.200	0.020	-0.660	0.290	56.100	-1.900	0.700																			1580078551.0	0.32	0.59
26/01/2020 22:42:32	26012020	260120	224232	56.150	12.264343	-56.478402	56.250	0.150	-0.950	0.130	56.160	-2.300	0.600																			1580078552.0	0.43	0.80
26/01/2020 22:42:33	26012020	260120	224233	56.150	12.264345	-56.478402	56.230	0.290	-0.810	0.040	56.140	-2.200	0.500																			1580078553.0	0.48	0.89
26/01/2020 22:42:34	26012020	260120	224234	56.090	12.264347	-56.478403	56.180	0.420	-0.430	0.060	56.070	-1.800	0.500																			1580078554.0	0.49	0.91
26/01/2020 22:42:35	26012020	260120	224235	56.050	12.264347	-56.478405	56.170	0.520	-0.070	0.260	56.050	-1.400	0.600																			1580078555.0	0.37	0.69
26/01/2020 22:42:36	26012020	260120	224236	56.060	12.264347	-56.478405	56.190	0.500	0.180	0.660	56.060	-1.200	1.000																			1580078556.0	0.18	0.33
26/01/2020 22:42:37	26012020	260120	224237	56.050	12.264343	-56.478403	56.150	0.240	0.380	1.130	56.030	-1.000	1.500																			1580078557.0	0.73	1.35
26/01/2020 22:42:38	26012020	260120	224238	55.930	12.264340	-56.478402	56.010	-0.270	0.520	1.410	55.890	-0.800	1.800																			1580078558.0	0.88	1.63
26/01/2020 22:42:39	26012020	260120	224239	55.780	12.264338	-56.478400	55.830	-0.760	0.510	1.390	55.740	-0.800	1.800																			1580078559.0	0.45	0.83
26/01/2020 22:42:40	26012020	260120	224240	55.610	12.264338	-56.478402	55.700	-0.870	0.220	1.110	55.600	-1.100	1.600																			1580078560.0	0.28	0.52
26/01/2020 22:42:41	26012020	260120	224241	55.600	12.264342	-56.478403	55.720	-0.510	-0.300	0.690	55.610	-1.600	1.200																			1580078561.0	0.56	1.04
26/01/2020 22:42:42	26012020	260120	224242	55.670	12.264343	-56.478403	55.780	0.030	-0.710	0.280	55.680	-2.000	0.800																			1580078562.0	0.61	1.13
26/01/2020 22:42:43	26012020	260120	224243	55.710	12.264345	-56.478403	55.800	0.360	-0.740	-0.020	55.710	-2.100	0.400																			1580078563.0	0.37	0.69
26/01/2020 22:42:44	26012020	260120	224244	55.670	12.264345	-56.478405	55.740	0.340	-0.400	-0.120	55.650	-1.800	0.300																			1580078564.0	0.25	0.46
26/01/2020 22:42:45	26012020	260120	224245	55.510	12.264345	-56.478407	55.550	0.170	0.010	-0.010	55.460	-1.400	0.400																			1580078565.0	0.46	0.85
26/01/2020 22:42:46	26012020	260120	224246	55.260	12.264343	-56.478408	55.290	0.100	0.090	0.180	55.210	-1.200	0.600																			1580078566.0	0.41	0.76
26/01/2020 22:42:47	26012020	260120	224247	55.040	12.264345	-56.478408	55.100	0.230	-0.260	0.310	55.010	-1.500	0.700																			1580078567.0	0.08	0.15
26/01/2020 22:42:48	26012020	260120	224248	54.960	12.264347	-56.478407	55.070	0.430	-0.650	0.450	54.960	-2.000	0.900																			1580078568.0	0.58	1.07
26/01/2020 22:42:49	26012020	260120	224249	54.960	12.264348	-56.478405	55.070	0.450	-0.570	0.690	54.960	-1.900	1.100																			1580078569.0	0.62	1.15
26/01/2020 22:42:50	26012020	260120	224250	54.960	12.264347	-56.478403	55.060	0.180	0.010	0.920	54.960	-1.400	1.300																			1580078570.0	0.33	0.61
26/01/2020 22:42:51	26012020	260120	224251	54.990	12.264345	-56.478403	55.100	-0.260	0.640	1.030	55.000	-0.800	1.400																			1580078571.0	0.61	1.13
26/01/2020 22:42:52	26012020	260120	224252	55.090	12.264342	-56.478405	55.190	-0.590	0.890	1.010	55.100	-0.500	1.400																			1580078572.0	0.67	1.24
26/01/2020 22:42:53	26012020	260120	224253	55.150	12.264340	-56.478405	55.230	-0.660	0.670	0.880	55.150	-0.600	1.300																			1580078573.0	0.37	0.69
26/01/2020 22:42:54	26012020	260120	224254	55.090	12.264340	-56.478405	55.140	-0.460	0.110	0.670	55.050	-1.200	1.100																			1580078574.0	0.02	0.04
26/01/2020 22:42:55	26012020	260120	224255	54.900	12.264342	-56.478405	54.940	-0.100	-0.520	0.430	54.870	-1.800	0.900																			1580078575.0	0.40	0.74
26/01/2020 22:42:56	26012020	260120	224256	54.700	12.264345	-56.478405	54.750	0.270	-0.900	0.230	54.670	-2.200	0.700																			1580078576.0	0.58	1.07
26/01/2020 22:42:57	26012020	260120	224257	54.580	12.264347	-56.478405	54.660	0.470	-0.920	0.080	54.570	-2.300	0.500																			1580078577.0	0.49	0.91
26/01/2020 22:42:58	26012020	260120	224258	54.620	12.264347	-56.478407	54.740	0.430	-0.700	-0.070	54.640	-2.100	0.400																			1580078578.0	0.32	0.59
26/01/2020 22:42:59	26012020	260120	224259	54.770	12.264347	-56.478408	54.890	0.180	-0.350	-0.160	54.810	-1.700	0.300																			1580078579.0	0.27	0.50
26/01/2020 22:43:00	26012020	260120	224300	54.910	12.264348	-56.478410	55.010	-0.090	0.050	0.010	54.930	-1.300	0.400	1015.00	26.00	26.10	20.80	20.90	-2.00	73.00	73.00	379.00	25.10	342.00	4.00	36.00	3.70	15	3767.00	27.60	27.60	1580078580.0	0.23	0.43
26/01/2020 22:43:01	26012020	260120	224301	54.980	12.264347	-56.478410	55.080	-0.170	0.300	0.400	54.990	-1.100	0.800																			1580078581.0	0.22	0.41
26/01/2020 22:43:02	26012020	260120	224302	55.070	12.264345	-56.478408	55.200	-0.030	0.230	0.760	55.100	-1.100	1.100																			1580078582.0	0.50	0.93
26/01/2020 22:43:03	26012020	260120	224303	55.180	12.264343	-56.478405	55.320	0.180	-0.030	1.050	55.200	-1.300	1.400																			1580078583.0	0.71	1.31
26/01/2020 22:43:04	26012020	260120	224304	55.220	12.264342	-56.478403	55.320	0.280	-0.120	1.410	55.210	-1.500	1.800																			1580078584.0	0.76	1.41
26/01/2020 22:43:05	26012020	260120	224305	55.100	12.264338	-56.478400	55.190	0.180	0.040	1.740	55.070	-1.300	2.100																			1580078585.0	0.74	1.37
26/01/2020 22:43:06	26012020	260120	224306	54.920	12.264337	-56.478400	55.010	-0.060	0.220	1.780	54.890	-1.100	2.200																			1580078586.0	0.55	1.02
26/01/2020 22:43:07	26012020	260120	224307	54.830	12.264335	-56.478402	54.960	-0.320	0.180	1.300	54.840	-1.200	1.800																			1580078587.0	0.35	0.65
26/01/2020 22:43:08	26012020	260120	224308	54.950	12.264338	-56.478405	55.100	-0.450	-0.030	0.440	55.000	-1.400	1.000																			1580078588.0	0.97	1.80
26/01/2020 22:43:09	26012020	260120	224309	55.180	12.264343	-56.478408	55.320	-0.390	-0.220	-0.340	55.220	-1.600	0.200																			1580078589.0	1.41	2.61
26/01/2020 22:43:10	26012020	260120	224310	55.370	12.264348	-56.478412	55.470	-0.160	-0.320	-0.730	55.390	-1.700	-0.300																			1580078590.0	1.10	2.04
26/01/2020 22:43:11	26012020	260120	224311	55.480	12.264350	-56.478413	55.570	0.120	-0.460	-0.740	55.500	-1.800	-0.300																			1580078591.0	0.41	0.76
26/01/2020 22:43:12	26012020	260120	224312	55.540	12.264348	-56.478413	55.620	0.320	-0.620	-0.400	55.540	-2.000	-0.000																			1580078592.0	0.26	0.48
26/01/2020 22:43:13	26012020	260120	224313	55.540	12.264347	-56.478410	55.650	0.390	-0.700	0.150	55.550	-2.000	0.500																			1580078593.0	0.70	1.30
26/01/2020 22:43:14	26012020	260120	224314	55.560	12.264343	-56.478407	55.700	0.350	-0.530	0.710	55.570	-1.900	1.000																			1580078594.0	0.81	1.50
26/01/2020 22:43:15	26012020	260120	224315	55.600	12.264342	-56.478405	55.760	0.240	-0.070	1.210	55.610	-1.500	1.600																			1580078595.0	0.66	1.22
26/01/2020 22:43:16	26012020	260120	224316	55.700	12.264340	-56.478405	55.880	0.080	0.440	1.510	55.730	-1.000	1.900																			1580078596.0	0.53	0.98
26/01/2020 22:43:17	26012020	260120	224317	55.810	12.264337	-56.478405	55.950	-0.090	0.690	1.580	55.810	-0.700	2.000																			1580078597.0	0.41	0.76
26/01/2020 22:43:18	26012020	260120	224318	55.770	12.264337	-56.478407	55.870	-0.230	0.630	1.580	55.740	-0.700	2.000																			1580078598.0	0.18	0.33
26/01/2020 22:43:19	26012020	260120	224319	55.590	12.264338	-56.478407	55.690	-0.290	0.280	1.440	55.560	-1.000	1.900																			1580078599.0	0.16	0.30
26/01/2020 22:43:20	26012020	260120	224320	55.460	12.264340	-56.478407	55.590	-0.220	-0.220	1.090	55.450	-1.500	1.600																			1580078600.0	0.38	0.70
26/01/2020 22:43:21	26012020	260120	224321	55.510	12.264342	-56.478408	55.670	-0.060	-0.620	0.610	55.540	-1.900	1.100																			1580078601.0	0.57	1.06
26/01/2020 22:43:22	26012020	260120	224322	55.730	12.264345	-56.478408	55.910	0.040	-0.690	0.120	55.780	-2.000	0.600																			1580078602.0	0.52	0.96
26/01/2020 22:43:23	26012020	260120	224323	55.970	12.264345	-56.478410	56.120	-0.000	-0.450	-0.260	56.000	-1.800	0.200																			1580078603.0	0.44	0.81
26/01/2020 22:43:24	26012020	260120	224324	56.060	12.264345	-56.478412	56.160	-0.110	-0.170	-0.420	56.050	-1.500	0.000																			1580078604.0	0.48	0.89
26/01/2020 22:43:25	26012020	260120	224325	55.980	12.264345	-56.478413	56.050	-0.140	-0.020	-0.350	55.950	-1.400	0.000																			1580078605.0	0.39	0.72
26/01/2020 22:43:26	26012020	260120	224326	55.820	12.264345	-56.478415	55.900	-0.010	-0.010	-0.070	55.780	-1.400	0.300																			1580078606.0	0.13	0.24
26/01/2020 22:43:27	26012020	260120	224327	55.670	12.264345	-56.478415	55.730	0.170	-0.060	0.370	55.640	-1.400	0.700																			1580078607.0	0.18	0.33
26/01/2020 22:43:28	26012020	260120	224328	55.520	12.264343	-56.478413	55.650	0.290	-0.180	0.820	55.510	-1.500	1.200																			1580078608.0	0.33	0.61
26/01/2020 22:43:29	26012020	260120	224329	55.550	12.264343	-56.478412	55.770	0.330	-0.410	1.050	55.580	-1.700	1.400																			1580078609.0	0.37	0.69
26/01/2020 22:43:30	26012020	260120	224330	55.820	12.264343	-56.478410	56.030	0.300	-0.540	1.040	55.870	-1.900	1.500																			1580078610.0	0.36	0.67
26/01/2020 22:43:31	26012020	260120	224331	56.000	12.264343	-56.478408	56.160	0.170	-0.220	1.050	56.010	-1.600	1.400																			1580078611.0	0.25	0.46
26/01/2020 22:43:32	26012020	260120	224332	55.940	12.264342	-56.478410	56.030	-0.120	0.490	1.140	55.900	-0.900	1.500																			1580078612.0	0.41	0.76
26/01/2020 22:43:33	26012020	260120	224333	55.700	12.264338	-56.478412	55.740	-0.470	0.980	1.170	55.640	-0.400	1.600																			1580078613.0	0.85	1.57
26/01/2020 22:43:34	26012020	260120	224334	55.440	12.264337	-56.478413	55.500	-0.670	0.760	0.910	55.400	-0.500	1.400																			1580078614.0	0.65	1.20
26/01/2020 22:43:35	26012020	260120	224335	55.370	12.264338	-56.478417	55.480	-0.520	-0.110	0.300	55.390	-1.300	0.800																			1580078615.0	0.63	1.17
26/01/2020 22:43:36	26012020	260120	224336	55.570	12.264345	-56.478417	55.730	-0.100	-1.010	-0.480	55.640	-2.300	0.000																			1580078616.0	1.23	2.28
26/01/2020 22:43:37	26012020	260120	224337	55.920	12.264350	-56.478417	56.070	0.350	-1.350	-1.100	55.980	-2.700	-0.600																			1580078617.0	1.28	2.37
26/01/2020 22:43:38	26012020	260120	224338	56.160	12.264353	-56.478418	56.260	0.530	-0.940	-1.230	56.180	-2.400	-0.800																			1580078618.0	0.68	1.26
26/01/2020 22:43:39	26012020	260120	224339	56.160	12.264352	-56.478420	56.210	0.370	-0.080	-0.810	56.120	-1.500	-0.500																			1580078619.0	0.43	0.80
26/01/2020 22:43:40	26012020	260120	224340	55.970	12.264347	-56.478422	56.030	0.050	0.610	-0.020	55.930	-0.800	0.300																			1580078620.0	1.02	1.89
26/01/2020 22:43:41	26012020	260120	224341	55.830	12.264342	-56.478420	55.950	-0.160	0.670	0.760	55.820	-0.700	1.100																			1580078621.0	1.09	2.02
26/01/2020 22:43:42	26012020	260120	224342	55.850	12.264338	-56.478418	56.000	-0.120	0.160	1.300	55.870	-1.100	1.700																			1580078622.0	0.83	1.54
26/01/2020 22:43:43	26012020	260120	224343	55.950	12.264338	-56.478415	56.120	0.060	-0.380	1.650	55.970	-1.700	2.000																			1580078623.0	0.85	1.57
26/01/2020 22:43:44	26012020	260120	224344	55.990	12.264337	-56.478410	56.100	0.180	-0.590	1.830	55.980	-1.900	2.200																			1580078624.0	0.78	1.44
26/01/2020 22:43:45	26012020	260120	224345	55.870	12.264337	-56.478408	55.960	0.090	-0.420	1.800	55.840	-1.800	2.200																			1580078625.0	0.51	0.94
26/01/2020 22:43:46	26012020	260120	224346	55.700	12.264335	-56.478408	55.770	-0.170	-0.060	1.390	55.670	-1.500	1.900																			1580078626.0	0.13	0.24
26/01/2020 22:43:47	26012020	260120	224347	55.610	12.264337	-56.478412	55.700	-0.390	0.360	0.680	55.610	-1.000	1.200																			1580078627.0	0.69	1.28
26/01/2020 22:43:48	26012020	260120	224348	55.650	12.264340	-56.478417	55.750	-0.440	0.560	-0.150	55.670	-0.800	0.400																			1580078628.0	1.14	2.11
26/01/2020 22:43:49	26012020	260120	224349	55.820	12.264343	-56.478420	55.960	-0.250	0.280	-0.940	55.880	-1.000	-0.400																			1580078629.0	1.24	2.30
26/01/2020 22:43:50	26012020	260120	224350	56.150	12.264348	-56.478423	56.290	0.100	-0.380	-1.490	56.220	-1.700	-1.000																			1580078630.0	1.06	1.96
26/01/2020 22:43:51	26012020	260120	224351	56.440	12.264352	-56.478422	56.540	0.400	-0.920	-1.560	56.470	-2.200	-1.200																			1580078631.0	0.75	1.39
26/01/2020 22:43:52	26012020	260120	224352	56.450	12.264352	-56.478418	56.480	0.470	-0.940	-0.950	56.410	-2.300	-0.700																			1580078632.0	0.63	1.17
26/01/2020 22:43:53	26012020	260120	224353	56.160	12.264347	-56.478415	56.180	0.270	-0.470	0.170	56.090	-1.900	0.400																			1580078633.0	1.26	2.33
26/01/2020 22:43:54	26012020	260120	224354	55.790	12.264340	-56.478413	55.860	-0.040	0.120	1.260	55.730	-1.300	1.500																			1580078634.0	1.62	3.00
26/01/2020 22:43:55	26012020	260120	224355	55.560	12.264333	-56.478412	55.680	-0.220	0.470	1.800	55.540	-0.900	2.200																			1580078635.0	1.27	2.35
26/01/2020 22:43:56	26012020	260120	224356	55.530	12.264332	-56.478410	55.690	-0.180	0.440	1.780	55.540	-0.900	2.200																			1580078636.0	0.40	0.74
26/01/2020 22:43:57	26012020	260120	224357	55.660	12.264333	-56.478412	55.840	0.010	0.110	1.370	55.700	-1.200	1.900																			1580078637.0	0.37	0.69
26/01/2020 22:43:58	26012020	260120	224358	55.900	12.264337	-56.478412	56.080	0.180	-0.310	0.830	55.950	-1.600	1.300																			1580078638.0	0.73	1.35
26/01/2020 22:43:59	26012020	260120	224359	56.100	12.264340	-56.478412	56.230	0.170	-0.460	0.430	56.120	-1.800	0.900																			1580078639.0	0.64	1.19
26/01/2020 22:44:00	26012020	260120	224400	56.110	12.264342	-56.478412	56.210	-0.040	-0.270	0.250	56.100	-1.700	0.700	1015.00	26.00	26.10	21.00	21.00	-2.00	73.00	73.00	379.00	25.10	345.00	3.80	40.00	3.60	15	3660.00	27.60	27.60	1580078640.0	0.20	0.37
26/01/2020 22:44:01	26012020	260120	224401	56.030	12.264340	-56.478412	56.120	-0.310	0.030	0.110	56.020	-1.400	0.500																			1580078641.0	0.23	0.43
26/01/2020 22:44:02	26012020	260120	224402	56.000	12.264340	-56.478413	56.100	-0.400	0.190	-0.070	56.010	-1.200	0.400																			1580078642.0	0.34	0.63
26/01/2020 22:44:03	26012020	260120	224403	56.040	12.264338	-56.478413	56.150	-0.240	0.120	-0.220	56.050	-1.200	0.200																			1580078643.0	0.20	0.37
26/01/2020 22:44:04	26012020	260120	224404	56.060	12.264338	-56.478413	56.150	0.060	-0.130	-0.190	56.050	-1.400	0.200																			1580078644.0	0.06	0.11
26/01/2020 22:44:05	26012020	260120	224405	56.010	12.264338	-56.478412	56.060	0.320	-0.410	0.010	55.990	-1.700	0.400																			1580078645.0	0.24	0.44
26/01/2020 22:44:06	26012020	260120	224406	55.900	12.264338	-56.478412	56.000	0.420	-0.580	0.260	55.890	-1.900	0.600																			1580078646.0	0.28	0.52
26/01/2020 22:44:07	26012020	260120	224407	55.910	12.264338	-56.478410	56.050	0.350	-0.580	0.460	55.920	-1.900	0.900																			1580078647.0	0.22	0.41
26/01/2020 22:44:08	26012020	260120	224408	56.010	12.264338	-56.478410	56.170	0.150	-0.360	0.660	56.030	-1.800	1.000																			1580078648.0	0.16	0.30
26/01/2020 22:44:09	26012020	260120	224409	56.120	12.264338	-56.478408	56.260	-0.090	0.040	0.990	56.140	-1.400	1.300																			1580078649.0	0.30	0.56
26/01/2020 22:44:10	26012020	260120	224410	56.180	12.264335	-56.478408	56.300	-0.230	0.420	1.340	56.180	-1.000	1.700																			1580078650.0	0.71	1.31
26/01/2020 22:44:11	26012020	260120	224411	56.190	12.264330	-56.478407	56.290	-0.230	0.510	1.540	56.190	-0.800	1.900																			1580078651.0	0.94	1.74
26/01/2020 22:44:12	26012020	260120	224412	56.210	12.264328	-56.478405	56.310	-0.120	0.230	1.430	56.210	-1.100	1.900																			1580078652.0	0.69	1.28
26/01/2020 22:44:13	26012020	260120	224413	56.250	12.264328	-56.478403	56.340	0.020	-0.180	0.980	56.260	-1.500	1.500																			1580078653.0	0.30	0.56
26/01/2020 22:44:14	26012020	260120	224414	56.260	12.264332	-56.478403	56.330	0.110	-0.360	0.390	56.250	-1.700	0.900																			1580078654.0	0.71	1.31
26/01/2020 22:44:15	26012020	260120	224415	56.230	12.264335	-56.478407	56.310	0.150	-0.330	-0.160	56.230	-1.700	0.300																			1580078655.0	1.05	1.94
26/01/2020 22:44:16	26012020	260120	224416	56.260	12.264338	-56.478410	56.350	0.200	-0.290	-0.530	56.270	-1.700	-0.100																			1580078656.0	0.97	1.80
26/01/2020 22:44:17	26012020	260120	224417	56.340	12.264340	-56.478412	56.420	0.220	-0.340	-0.600	56.350	-1.700	-0.200																			1580078657.0	0.48	0.89
26/01/2020 22:44:18	26012020	260120	224418	56.380	12.264340	-56.478410	56.460	0.120	-0.370	-0.300	56.380	-1.700	0.000																			1580078658.0	0.30	0.56
26/01/2020 22:44:19	26012020	260120	224419	56.360	12.264337	-56.478407	56.420	-0.120	-0.250	0.230	56.350	-1.600	0.600																			1580078659.0	0.91	1.69
26/01/2020 22:44:20	26012020	260120	224420	56.300	12.264332	-56.478405	56.400	-0.350	0.010	0.700	56.300	-1.400	1.100																			1580078660.0	1.03	1.91
26/01/2020 22:44:21	26012020	260120	224421	56.350	12.264330	-56.478403	56.480	-0.360	0.180	0.810	56.380	-1.200	1.200																			1580078661.0	0.65	1.20
26/01/2020 22:44:22	26012020	260120	224422	56.550	12.264328	-56.478405	56.700	-0.110	0.140	0.640	56.600	-1.200	1.100																			1580078662.0	0.12	0.22
26/01/2020 22:44:23	26012020	260120	224423	56.780	12.264330	-56.478405	56.910	0.230	-0.030	0.520	56.820	-1.400	0.900																			1580078663.0	0.37	0.69
26/01/2020 22:44:24	26012020	260120	224424	56.920	12.264332	-56.478405	57.000	0.450	-0.160	0.660	56.920	-1.500	1.000																			1580078664.0	0.26	0.48
26/01/2020 22:44:25	26012020	260120	224425	56.880	12.264332	-56.478403	56.930	0.420	-0.180	1.000	56.840	-1.500	1.400																			1580078665.0	0.33	0.61
26/01/2020 22:44:26	26012020	260120	224426	56.670	12.264328	-56.478402	56.710	0.190	-0.160	1.320	56.620	-1.500	1.700																			1580078666.0	0.74	1.37
26/01/2020 22:44:27	26012020	260120	224427	56.460	12.264325	-56.478400	56.530	-0.100	-0.180	1.400	56.430	-1.500	1.800																			1580078667.0	0.69	1.28
26/01/2020 22:44:28	26012020	260120	224428	56.420	12.264325	-56.478400	56.550	-0.290	-0.240	1.070	56.450	-1.600	1.500																			1580078668.0	0.24	0.44
26/01/2020 22:44:29	26012020	260120	224429	56.630	12.264327	-56.478400	56.780	-0.340	-0.250	0.380	56.690	-1.600	0.900																			1580078669.0	0.42	0.78
26/01/2020 22:44:30	26012020	260120	224430	56.940	12.264330	-56.478403	57.090	-0.250	-0.090	-0.310	57.000	-1.500	0.200																			1580078670.0	0.98	1.81
26/01/2020 22:44:31	26012020	260120	224431	57.200	12.264333	-56.478407	57.330	-0.030	0.120	-0.700	57.240	-1.300	-0.300																			1580078671.0	0.96	1.78
26/01/2020 22:44:32	26012020	260120	224432	57.350	12.264333	-56.478408	57.450	0.210	0.120	-0.670	57.370	-1.200	-0.300																			1580078672.0	0.39	0.72
26/01/2020 22:44:33	26012020	260120	224433	57.360	12.264332	-56.478407	57.420	0.310	-0.120	-0.250	57.340	-1.400	0.100																			1580078673.0	0.43	0.80
26/01/2020 22:44:34	26012020	260120	224434	57.270	12.264330	-56.478403	57.340	0.210	-0.410	0.340	57.240	-1.700	0.700																			1580078674.0	0.87	1.61
26/01/2020 22:44:35	26012020	260120	224435	57.210	12.264327	-56.478400	57.330	0.030	-0.570	0.880	57.220	-1.900	1.200																			1580078675.0	0.86	1.59
26/01/2020 22:44:36	26012020	260120	224436	57.280	12.264325	-56.478398	57.400	-0.080	-0.470	1.280	57.300	-1.900	1.600																			1580078676.0	0.67	1.24
26/01/2020 22:44:37	26012020	260120	224437	57.370	12.264323	-56.478397	57.470	-0.120	-0.110	1.540	57.370	-1.500	1.900																			1580078677.0	0.52	0.96
26/01/2020 22:44:38	26012020	260120	224438	57.390	12.264320	-56.478397	57.480	-0.110	0.290	1.560	57.390	-1.100	2.000																			1580078678.0	0.48	0.89
26/01/2020 22:44:39	26012020	260120	224439	57.400	12.264318	-56.478397	57.480	-0.040	0.440	1.400	57.400	-0.900	1.800																			1580078679.0	0.37	0.69
26/01/2020 22:44:40	26012020	260120	224440	57.390	12.264318	-56.478398	57.470	0.100	0.270	1.110	57.390	-1.100	1.600																			1580078680.0	0.11	0.20
26/01/2020 22:44:41	26012020	260120	224441	57.370	12.264320	-56.478398	57.420	0.220	-0.040	0.700	57.370	-1.400	1.200																			1580078681.0	0.27	0.50
26/01/2020 22:44:42	26012020	260120	224442	57.350	12.264322	-56.478398	57.420	0.170	-0.310	0.100	57.360	-1.600	0.600																			1580078682.0	0.58	1.07
26/01/2020 22:44:43	26012020	260120	224443	57.400	12.264327	-56.478400	57.500	-0.030	-0.430	-0.540	57.420	-1.800	-0.100																			1580078683.0	0.97	1.80
26/01/2020 22:44:44	26012020	260120	224444	57.610	12.264330	-56.478403	57.710	-0.250	-0.410	-0.930	57.660	-1.800	-0.500																			1580078684.0	1.02	1.89
26/01/2020 22:44:45	26012020	260120	224445	57.850	12.264332	-56.478405	57.950	-0.360	-0.290	-0.830	57.890	-1.700	-0.500																			1580078685.0	0.50	0.93
26/01/2020 22:44:46	26012020	260120	224446	57.950	12.264330	-56.478405	58.020	-0.320	-0.090	-0.220	57.950	-1.500	0.100																			1580078686.0	0.43	0.80
26/01/2020 22:44:47	26012020	260120	224447	57.890	12.264325	-56.478402	57.950	-0.160	-0.020	0.640	57.870	-1.400	0.900																			1580078687.0	1.24	2.30
26/01/2020 22:44:48	26012020	260120	224448	57.800	12.264318	-56.478398	57.880	0.090	-0.160	1.450	57.780	-1.500	1.800																			1580078688.0	1.53	2.83
26/01/2020 22:44:49	26012020	260120	224449	57.710	12.264313	-56.478393	57.790	0.340	-0.340	2.060	57.680	-1.700	2.400																			1580078689.0	1.40	2.59
26/01/2020 22:44:50	26012020	260120	224450	57.580	12.264310	-56.478390	57.670	0.420	-0.330	2.250	57.560	-1.700	2.700																			1580078690.0	0.96	1.78
26/01/2020 22:44:51	26012020	260120	224451	57.470	12.264310	-56.478390	57.550	0.300	-0.130	1.880	57.450	-1.500	2.400																			1580078691.0	0.12	0.22
26/01/2020 22:44:52	26012020	260120	224452	57.400	12.264313	-56.478393	57.470	0.080	0.160	1.210	57.390	-1.200	1.700																			1580078692.0	0.80	1.48
26/01/2020 22:44:53	26012020	260120	224453	57.390	12.264317	-56.478397	57.460	-0.070	0.320	0.490	57.400	-1.100	1.000																			1580078693.0	1.18	2.19
26/01/2020 22:44:54	26012020	260120	224454	57.470	12.264322	-56.478400	57.540	-0.120	0.290	-0.160	57.490	-1.100	0.300																			1580078694.0	1.10	2.04
26/01/2020 22:44:55	26012020	260120	224455	57.550	12.264325	-56.478402	57.600	-0.160	0.160	-0.590	57.560	-1.200	-0.100																			1580078695.0	0.75	1.39
26/01/2020 22:44:56	26012020	260120	224456	57.530	12.264325	-56.478402	57.570	-0.250	-0.030	-0.710	57.520	-1.400	-0.300																			1580078696.0	0.26	0.48
26/01/2020 22:44:57	26012020	260120	224457	57.480	12.264325	-56.478402	57.520	-0.380	-0.290	-0.590	57.470	-1.600	-0.200																			1580078697.0	0.10	0.19
26/01/2020 22:44:58	26012020	260120	224458	57.480	12.264323	-56.478402	57.570	-0.430	-0.580	-0.320	57.490	-1.900	0.000																			1580078698.0	0.31	0.57
26/01/2020 22:44:59	26012020	260120	224459	57.580	12.264323	-56.478400	57.700	-0.280	-0.730	0.060	57.610	-2.100	0.400																			1580078699.0	0.37	0.69
26/01/2020 22:45:00	26012020	260120	224500	57.700	12.264322	-56.478398	57.800	0.060	-0.610	0.600	57.710	-2.000	0.900	1015.10	26.10	26.10	21.10	21.10	-2.00	74.00	74.00	379.00	25.10	0.00	4.20	57.00	4.00	15	3884.00	27.60	27.60	1580078700.0	0.43	0.80
26/01/2020 22:45:01	26012020	260120	224501	57.700	12.264318	-56.478397	57.800	0.460	-0.270	1.260	57.690	-1.700	1.600																			1580078701.0	0.74	1.37
26/01/2020 22:45:02	26012020	260120	224502	57.620	12.264315	-56.478393	57.710	0.670	0.040	1.810	57.610	-1.300	2.200																			1580078702.0	1.07	1.98
26/01/2020 22:45:03	26012020	260120	224503	57.540	12.264310	-56.478392	57.640	0.580	0.190	2.030	57.520	-1.200	2.400																			1580078703.0	0.97	1.80
26/01/2020 22:45:04	26012020	260120	224504	57.450	12.264308	-56.478390	57.520	0.240	0.270	1.880	57.430	-1.100	2.300																			1580078704.0	0.48	0.89
26/01/2020 22:45:05	26012020	260120	224505	57.390	12.264310	-56.478390	57.470	-0.180	0.290	1.320	57.390	-1.100	1.800																			1580078705.0	0.22	0.41
26/01/2020 22:45:06	26012020	260120	224506	57.490	12.264313	-56.478392	57.590	-0.490	0.170	0.390	57.520	-1.200	0.900																			1580078706.0	0.95	1.76
26/01/2020 22:45:07	26012020	260120	224507	57.680	12.264320	-56.478397	57.840	-0.580	-0.050	-0.600	57.730	-1.400	-0.100																			1580078707.0	1.48	2.74
26/01/2020 22:45:08	26012020	260120	224508	57.990	12.264325	-56.478400	58.060	-0.450	-0.160	-1.210	58.040	-1.500	-0.800																			1580078708.0	1.39	2.57
26/01/2020 22:45:09	26012020	260120	224509	58.180	12.264327	-56.478402	58.230	-0.200	-0.180	-1.260	58.210	-1.500	-0.900																			1580078709.0	0.63	1.17
26/01/2020 22:45:10	26012020	260120	224510	58.280	12.264325	-56.478402	58.310	0.050	-0.290	-0.830	58.280	-1.600	-0.500																			1580078710.0	0.35	0.65
26/01/2020 22:45:11	26012020	260120	224511	58.230	12.264322	-56.478398	58.270	0.250	-0.530	-0.030	58.220	-1.900	0.300																			1580078711.0	0.92	1.70
26/01/2020 22:45:12	26012020	260120	224512	58.130	12.264318	-56.478395	58.200	0.340	-0.730	0.890	58.110	-2.100	1.200																			1580078712.0	1.23	2.28
26/01/2020 22:45:13	26012020	260120	224513	58.050	12.264315	-56.478392	58.160	0.280	-0.650	1.640	58.050	-2.000	2.000																			1580078713.0	1.14	2.11
26/01/2020 22:45:14	26012020	260120	224514	58.060	12.264312	-56.478388	58.190	0.090	-0.210	2.040	58.070	-1.600	2.400																			1580078714.0	0.75	1.39
26/01/2020 22:45:15	26012020	260120	224515	58.120	12.264310	-56.478390	58.250	-0.110	0.400	2.110	58.140	-1.000	2.500																			1580078715.0	0.39	0.72
26/01/2020 22:45:16	26012020	260120	224516	58.190	12.264308	-56.478392	58.310	-0.190	0.770	1.960	58.200	-0.600	2.400																			1580078716.0	0.48	0.89
26/01/2020 22:45:17	26012020	260120	224517	58.230	12.264308	-56.478392	58.360	-0.100	0.580	1.640	58.240	-0.700	2.100																			1580078717.0	0.29	0.54
26/01/2020 22:45:18	26012020	260120	224518	58.250	12.264308	-56.478392	58.350	0.050	-0.020	1.160	58.240	-1.300	1.600																			1580078718.0	0.17	0.31
26/01/2020 22:45:19	26012020	260120	224519	58.150	12.264310	-56.478390	58.190	0.090	-0.500	0.590	58.110	-1.800	1.100																			1580078719.0	0.55	1.02
26/01/2020 22:45:20	26012020	260120	224520	57.900	12.264315	-56.478392	57.900	0.000	-0.530	-0.020	57.830	-1.900	0.500																			1580078720.0	0.84	1.56
26/01/2020 22:45:21	26012020	260120	224521	57.620	12.264318	-56.478395	57.640	-0.090	-0.300	-0.590	57.590	-1.700	-0.100																			1580078721.0	1.23	2.28
26/01/2020 22:45:22	26012020	260120	224522	57.530	12.264323	-56.478400	57.600	-0.090	-0.180	-0.990	57.540	-1.500	-0.500																			1580078722.0	1.30	2.41
26/01/2020 22:45:23	26012020	260120	224523	57.660	12.264325	-56.478402	57.780	-0.050	-0.270	-1.030	57.710	-1.600	-0.600																			1580078723.0	0.77	1.43
26/01/2020 22:45:24	26012020	260120	224524	57.900	12.264325	-56.478402	58.000	-0.070	-0.360	-0.650	57.940	-1.700	-0.300																			1580078724.0	0.22	0.41
26/01/2020 22:45:25	26012020	260120	224525	57.990	12.264322	-56.478398	58.030	-0.150	-0.250	0.090	57.980	-1.600	0.400																			1580078725.0	0.99	1.83
26/01/2020 22:45:26	26012020	260120	224526	57.830	12.264317	-56.478393	57.840	-0.190	0.030	1.010	57.780	-1.400	1.300																			1580078726.0	1.50	2.78
26/01/2020 22:45:27	26012020	260120	224527	57.550	12.264310	-56.478390	57.570	-0.060	0.230	1.810	57.490	-1.100	2.100																			1580078727.0	1.49	2.76
26/01/2020 22:45:28	26012020	260120	224528	57.340	12.264307	-56.478388	57.420	0.240	0.070	2.120	57.320	-1.300	2.500																			1580078728.0	0.97	1.80
26/01/2020 22:45:29	26012020	260120	224529	57.320	12.264307	-56.478387	57.440	0.530	-0.260	1.820	57.330	-1.600	2.300																			1580078729.0	0.33	0.61
26/01/2020 22:45:30	26012020	260120	224530	57.390	12.264310	-56.478387	57.480	0.540	-0.270	1.120	57.400	-1.700	1.600																			1580078730.0	0.89	1.65
26/01/2020 22:45:31	26012020	260120	224531	57.390	12.264315	-56.478390	57.440	0.210	0.150	0.380	57.380	-1.300	0.900																			1580078731.0	1.25	2.31
26/01/2020 22:45:32	26012020	260120	224532	57.320	12.264318	-56.478397	57.340	-0.270	0.500	-0.150	57.310	-0.900	0.300																			1580078732.0	1.31	2.43
26/01/2020 22:45:33	26012020	260120	224533	57.290	12.264320	-56.478400	57.360	-0.580	0.280	-0.410	57.310	-1.000	0.000																			1580078733.0	0.84	1.56
26/01/2020 22:45:34	26012020	260120	224534	57.410	12.264322	-56.478400	57.510	-0.610	-0.350	-0.490	57.450	-1.600	-0.100																			1580078734.0	0.17	0.31
26/01/2020 22:45:35	26012020	260120	224535	57.610	12.264322	-56.478397	57.720	-0.450	-0.890	-0.500	57.660	-2.200	-0.100																			1580078735.0	0.61	1.13
26/01/2020 22:45:36	26012020	260120	224536	57.800	12.264320	-56.478393	57.890	-0.240	-0.940	-0.370	57.820	-2.300	0.000																			1580078736.0	0.61	1.13
26/01/2020 22:45:37	26012020	260120	224537	57.820	12.264318	-56.478392	57.840	0.030	-0.530	0.050	57.790	-2.000	0.400																			1580078737.0	0.44	0.81
26/01/2020 22:45:38	26012020	260120	224538	57.630	12.264317	-56.478392	57.620	0.350	0.000	0.700	57.570	-1.400	1.000																			1580078738.0	0.59	1.09
26/01/2020 22:45:39	26012020	260120	224539	57.380	12.264313	-56.478392	57.390	0.660	0.260	1.320	57.340	-1.100	1.700																			1580078739.0	0.64	1.19
26/01/2020 22:45:40	26012020	260120	224540	57.300	12.264312	-56.478392	57.400	0.790	0.190	1.620	57.320	-1.200	2.000																			1580078740.0	0.49	0.91
26/01/2020 22:45:41	26012020	260120	224541	57.430	12.264310	-56.478388	57.540	0.590	0.060	1.630	57.460	-1.300	2.000																			1580078741.0	0.42	0.78
26/01/2020 22:45:42	26012020	260120	224542	57.560	12.264312	-56.478388	57.640	0.060	0.170	1.490	57.570	-1.200	1.900																			1580078742.0	0.20	0.37
26/01/2020 22:45:43	26012020	260120	224543	57.540	12.264312	-56.478390	57.570	-0.520	0.410	1.190	57.520	-1.000	1.700																			1580078743.0	0.31	0.57
26/01/2020 22:45:44	26012020	260120	224544	57.390	12.264312	-56.478393	57.380	-0.810	0.410	0.770	57.340	-0.900	1.200																			1580078744.0	0.71	1.31
26/01/2020 22:45:45	26012020	260120	224545	57.170	12.264315	-56.478395	57.090	-0.680	-0.010	0.400	57.120	-1.300	0.900																			1580078745.0	0.80	1.48
26/01/2020 22:45:46	26012020	260120	224546	56.850	12.264318	-56.478397	56.850	-0.270	-0.640	0.120	56.810	-1.900	0.600																			1580078746.0	0.81	1.50
26/01/2020 22:45:47	26012020	260120	224547	56.770	12.264322	-56.478397	56.850	0.180	-1.100	-0.110	56.780	-2.400	0.300																			1580078747.0	0.80	1.48
26/01/2020 22:45:48	26012020	260120	224548	56.950	12.264323	-56.478397	57.050	0.440	-1.020	-0.260	57.000	-2.400	0.200																			1580078748.0	0.48	0.89
26/01/2020 22:45:49	26012020	260120	224549	57.170	12.264323	-56.478397	57.260	0.430	-0.420	-0.230	57.210	-1.900	0.200																			1580078749.0	0.15	0.28
26/01/2020 22:45:50	26012020	260120	224550	57.270	12.264320	-56.478397	57.310	0.260	0.280	0.030	57.260	-1.200	0.400																			1580078750.0	0.65	1.20
26/01/2020 22:45:51	26012020	260120	224551	57.130	12.264317	-56.478397	57.130	0.060	0.660	0.500	57.080	-0.700	0.900																			1580078751.0	0.81	1.50
26/01/2020 22:45:52	26012020	260120	224552	56.830	12.264313	-56.478395	56.840	-0.090	0.590	0.970	56.760	-0.700	1.400																			1580078752.0	0.65	1.20
26/01/2020 22:45:53	26012020	260120	224553	56.510	12.264313	-56.478393	56.550	-0.210	0.260	1.260	56.460	-1.100	1.700																			1580078753.0	0.34	0.63
26/01/2020 22:45:54	26012020	260120	224554	56.320	12.264315	-56.478393	56.400	-0.240	-0.100	1.240	56.310	-1.400	1.700																			1580078754.0	0.36	0.67
26/01/2020 22:45:55	26012020	260120	224555	56.320	12.264317	-56.478393	56.440	-0.130	-0.400	0.970	56.340	-1.700	1.400																			1580078755.0	0.60	1.11
26/01/2020 22:45:56	26012020	260120	224556	56.460	12.264320	-56.478395	56.600	0.090	-0.570	0.590	56.510	-1.900	1.100																			1580078756.0	0.63	1.17
26/01/2020 22:45:57	26012020	260120	224557	56.650	12.264322	-56.478395	56.800	0.260	-0.550	0.260	56.680	-1.900	0.700																			1580078757.0	0.46	0.85
26/01/2020 22:45:58	26012020	260120	224558	56.840	12.264323	-56.478397	56.920	0.230	-0.300	0.120	56.840	-1.700	0.500																			1580078758.0	0.22	0.41
26/01/2020 22:45:59	26012020	260120	224559	56.830	12.264322	-56.478397	56.840	0.020	0.100	0.220	56.810	-1.300	0.600																			1580078759.0	0.19	0.35
26/01/2020 22:46:00	26012020	260120	224600	56.670	12.264320	-56.478397	56.680	-0.210	0.330	0.400	56.640	-1.000	0.800	1015.00	26.00	26.10	20.80	20.90	-2.00	72.00	73.00	378.00	25.10	360.00	4.10	57.00	3.80	15	3890.00	27.60	27.60	1580078760.0	0.40	0.74
26/01/2020 22:46:01	26012020	260120	224601	56.550	12.264318	-56.478398	56.620	-0.290	0.180	0.460	56.550	-1.100	0.900																			1580078761.0	0.26	0.48
26/01/2020 22:46:02	26012020	260120	224602	56.610	12.264320	-56.478397	56.720	-0.180	-0.280	0.310	56.650	-1.600	0.800																			1580078762.0	0.20	0.37
26/01/2020 22:46:03	26012020	260120	224603	56.840	12.264322	-56.478397	56.980	0.030	-0.590	0.120	56.900	-1.900	0.600																			1580078763.0	0.52	0.96
26/01/2020 22:46:04	26012020	260120	224604	57.050	12.264323	-56.478395	57.150	0.190	-0.470	0.140	57.060	-1.900	0.500																			1580078764.0	0.41	0.76
26/01/2020 22:46:05	26012020	260120	224605	57.020	12.264323	-56.478397	57.070	0.230	-0.030	0.470	56.990	-1.400	0.800																			1580078765.0	0.16	0.30
26/01/2020 22:46:06	26012020	260120	224606	56.850	12.264322	-56.478397	56.900	0.160	0.270	0.920	56.810	-1.100	1.300																			1580078766.0	0.53	0.98
26/01/2020 22:46:07	26012020	260120	224607	56.710	12.264318	-56.478397	56.800	0.050	0.180	1.250	56.700	-1.200	1.600																			1580078767.0	0.54	1.00
26/01/2020 22:46:08	26012020	260120	224608	56.700	12.264318	-56.478395	56.830	-0.060	-0.130	1.370	56.710	-1.400	1.800																			1580078768.0	0.44	0.81
26/01/2020 22:46:09	26012020	260120	224609	56.820	12.264318	-56.478393	56.970	-0.150	-0.310	1.150	56.850	-1.700	1.600																			1580078769.0	0.33	0.61
26/01/2020 22:46:10	26012020	260120	224610	57.000	12.264320	-56.478393	57.120	-0.170	-0.190	0.750	57.040	-1.600	1.200																			1580078770.0	0.45	0.83
26/01/2020 22:46:11	26012020	260120	224611	57.100	12.264322	-56.478397	57.190	-0.120	0.130	0.440	57.110	-1.300	0.900																			1580078771.0	0.70	1.30
26/01/2020 22:46:12	26012020	260120	224612	57.110	12.264323	-56.478400	57.170	-0.030	0.240	0.300	57.110	-1.100	0.700																			1580078772.0	0.68	1.26
26/01/2020 22:46:13	26012020	260120	224613	57.050	12.264323	-56.478400	57.090	0.050	-0.030	0.300	57.040	-1.300	0.700																			1580078773.0	0.29	0.54
26/01/2020 22:46:14	26012020	260120	224614	56.970	12.264325	-56.478400	57.020	0.100	-0.520	0.410	56.950	-1.800	0.800																			1580078774.0	0.26	0.48
26/01/2020 22:46:15	26012020	260120	224615	56.890	12.264325	-56.478397	56.930	0.120	-0.830	0.570	56.880	-2.200	1.000																			1580078775.0	0.55	1.02
26/01/2020 22:46:16	26012020	260120	224616	56.810	12.264325	-56.478395	56.830	0.120	-0.690	0.690	56.780	-2.100	1.100																			1580078776.0	0.47	0.87
26/01/2020 22:46:17	26012020	260120	224617	56.670	12.264323	-56.478395	56.680	0.090	-0.150	0.710	56.640	-1.600	1.100																			1580078777.0	0.18	0.33
26/01/2020 22:46:18	26012020	260120	224618	56.520	12.264323	-56.478397	56.540	0.030	0.410	0.590	56.490	-1.000	1.000																			1580078778.0	0.35	0.65
26/01/2020 22:46:19	26012020	260120	224619	56.440	12.264325	-56.478398	56.500	-0.030	0.650	0.370	56.440	-0.700	0.800																			1580078779.0	0.60	1.11
26/01/2020 22:46:20	26012020	260120	224620	56.490	12.264327	-56.478400	56.570	-0.060	0.440	0.100	56.500	-0.900	0.500																			1580078780.0	0.62	1.15
26/01/2020 22:46:21	26012020	260120	224621	56.570	12.264330	-56.478400	56.650	-0.100	0.000	-0.060	56.590	-1.300	0.400																			1580078781.0	0.57	1.06
26/01/2020 22:46:22	26012020	260120	224622	56.630	12.264332	-56.478400	56.710	-0.200	-0.370	-0.050	56.650	-1.700	0.400																			1580078782.0	0.43	0.80
26/01/2020 22:46:23	26012020	260120	224623	56.660	12.264332	-56.478398	56.730	-0.300	-0.480	0.130	56.660	-1.800	0.500																			1580078783.0	0.28	0.52
26/01/2020 22:46:24	26012020	260120	224624	56.600	12.264330	-56.478397	56.650	-0.240	-0.350	0.440	56.580	-1.700	0.800																			1580078784.0	0.38	0.70
26/01/2020 22:46:25	26012020	260120	224625	56.440	12.264327	-56.478397	56.470	0.040	-0.230	0.740	56.400	-1.600	1.100																			1580078785.0	0.55	1.02
26/01/2020 22:46:26	26012020	260120	224626	56.240	12.264325	-56.478395	56.300	0.380	-0.310	0.900	56.210	-1.600	1.300																			1580078786.0	0.39	0.72
26/01/2020 22:46:27	26012020	260120	224627	56.120	12.264327	-56.478395	56.220	0.560	-0.440	0.860	56.120	-1.800	1.300																			1580078787.0	0.26	0.48
26/01/2020 22:46:28	26012020	260120	224628	56.100	12.264328	-56.478395	56.190	0.410	-0.330	0.710	56.100	-1.700	1.100																			1580078788.0	0.52	0.96
26/01/2020 22:46:29	26012020	260120	224629	56.040	12.264330	-56.478395	56.120	0.010	0.050	0.570	56.030	-1.400	1.000																			1580078789.0	0.50	0.93
26/01/2020 22:46:30	26012020	260120	224630	55.980	12.264332	-56.478397	56.080	-0.380	0.380	0.440	55.980	-1.000	0.900																			1580078790.0	0.42	0.78
26/01/2020 22:46:31	26012020	260120	224631	56.000	12.264332	-56.478398	56.110	-0.520	0.400	0.320	56.010	-0.900	0.700																			1580078791.0	0.21	0.39
26/01/2020 22:46:32	26012020	260120	224632	56.080	12.264330	-56.478397	56.180	-0.430	0.210	0.290	56.100	-1.100	0.700																			1580078792.0	0.20	0.37
26/01/2020 22:46:33	26012020	260120	224633	56.160	12.264330	-56.478397	56.260	-0.190	-0.070	0.300	56.170	-1.400	0.700																			1580078793.0	0.37	0.69
26/01/2020 22:46:34	26012020	260120	224634	56.220	12.264330	-56.478395	56.300	0.090	-0.360	0.280	56.220	-1.700	0.700																			1580078794.0	0.26	0.48
26/01/2020 22:46:35	26012020	260120	224635	56.180	12.264330	-56.478395	56.160	0.330	-0.540	0.260	56.150	-1.900	0.700																			1580078795.0	0.15	0.28
26/01/2020 22:46:36	26012020	260120	224636	55.900	12.264332	-56.478395	55.870	0.470	-0.540	0.390	55.830	-1.900	0.800																			1580078796.0	0.24	0.44
26/01/2020 22:46:37	26012020	260120	224637	55.580	12.264332	-56.478395	55.590	0.410	-0.440	0.600	55.530	-1.800	1.000																			1580078797.0	0.24	0.44
26/01/2020 22:46:38	26012020	260120	224638	55.400	12.264333	-56.478397	55.460	0.170	-0.260	0.760	55.390	-1.600	1.200																			1580078798.0	0.24	0.44
26/01/2020 22:46:39	26012020	260120	224639	55.430	12.264333	-56.478397	55.530	-0.120	0.020	0.790	55.460	-1.400	1.200																			1580078799.0	0.23	0.43
26/01/2020 22:46:40	26012020	260120	224640	55.590	12.264333	-56.478397	55.690	-0.320	0.330	0.810	55.620	-1.100	1.200																			1580078800.0	0.13	0.24
26/01/2020 22:46:41	26012020	260120	224641	55.710	12.264332	-56.478397	55.800	-0.350	0.470	0.880	55.720	-0.900	1.300																			1580078801.0	0.38	0.70
26/01/2020 22:46:42	26012020	260120	224642	55.740	12.264330	-56.478397	55.830	-0.250	0.290	0.930	55.740	-1.000	1.300																			1580078802.0	0.56	1.04
26/01/2020 22:46:43	26012020	260120	224643	55.720	12.264328	-56.478395	55.770	-0.090	-0.130	0.870	55.700	-1.400	1.300																			1580078803.0	0.47	0.87
26/01/2020 22:46:44	26012020	260120	224644	55.610	12.264328	-56.478393	55.630	0.050	-0.510	0.720	55.570	-1.800	1.100																			1580078804.0	0.32	0.59
26/01/2020 22:46:45	26012020	260120	224645	55.430	12.264330	-56.478393	55.430	0.150	-0.620	0.500	55.380	-2.000	0.900																			1580078805.0	0.47	0.87
26/01/2020 22:46:46	26012020	260120	224646	55.200	12.264333	-56.478395	55.200	0.220	-0.440	0.350	55.150	-1.800	0.800																			1580078806.0	0.65	1.20
26/01/2020 22:46:47	26012020	260120	224647	55.030	12.264335	-56.478397	55.010	0.230	-0.150	0.280	55.000	-1.500	0.700																			1580078807.0	0.54	1.00
26/01/2020 22:46:48	26012020	260120	224648	54.870	12.264335	-56.478398	54.910	0.150	0.030	0.270	54.860	-1.300	0.700																			1580078808.0	0.32	0.59
26/01/2020 22:46:49	26012020	260120	224649	54.840	12.264335	-56.478398	54.900	0.020	0.040	0.230	54.840	-1.300	0.600																			1580078809.0	0.13	0.24
26/01/2020 22:46:50	26012020	260120	224650	54.930	12.264337	-56.478398	55.010	-0.090	-0.060	0.160	54.950	-1.400	0.600																			1580078810.0	0.18	0.33
26/01/2020 22:46:51	26012020	260120	224651	55.090	12.264337	-56.478398	55.190	-0.130	-0.080	0.170	55.120	-1.400	0.600																			1580078811.0	0.22	0.41
26/01/2020 22:46:52	26012020	260120	224652	55.180	12.264337	-56.478398	55.230	-0.120	0.050	0.440	55.170	-1.300	0.800																			1580078812.0	0.11	0.20
26/01/2020 22:46:53	26012020	260120	224653	55.030	12.264335	-56.478397	55.030	-0.130	0.210	0.930	54.960	-1.200	1.300																			1580078813.0	0.42	0.78
26/01/2020 22:46:54	26012020	260120	224654	54.680	12.264333	-56.478397	54.670	-0.160	0.200	1.440	54.610	-1.100	1.800																			1580078814.0	0.57	1.06
26/01/2020 22:46:55	26012020	260120	224655	54.410	12.264330	-56.478395	54.460	-0.140	-0.140	1.680	54.380	-1.400	2.100																			1580078815.0	0.43	0.80
26/01/2020 22:46:56	26012020	260120	224656	54.330	12.264332	-56.478395	54.430	-0.040	-0.640	1.590	54.340	-1.900	2.000																			1580078816.0	0.30	0.56
26/01/2020 22:46:57	26012020	260120	224657	54.370	12.264333	-56.478393	54.490	0.130	-0.910	1.330	54.380	-2.200	1.800																			1580078817.0	0.59	1.09
26/01/2020 22:46:58	26012020	260120	224658	54.380	12.264337	-56.478393	54.460	0.270	-0.620	1.110	54.370	-2.000	1.500																			1580078818.0	0.48	0.89
26/01/2020 22:46:59	26012020	260120	224659	54.290	12.264337	-56.478393	54.330	0.270	0.030	0.920	54.260	-1.400	1.300																			1580078819.0	0.26	0.48
26/01/2020 22:47:00	26012020	260120	224700	54.120	12.264337	-56.478397	54.140	0.130	0.530	0.650	54.090	-0.900	1.100	1015.10	26.00	26.10	20.80	20.90	-2.00	73.00	73.00	378.00	25.10	355.00	4.10	50.00	4.00	15	3799.00	27.70	27.60	1580078820.0	0.50	0.93
26/01/2020 22:47:01	26012020	260120	224701	53.980	12.264337	-56.478398	54.010	-0.020	0.560	0.240	53.960	-0.800	0.700																			1580078821.0	0.61	1.13
26/01/2020 22:47:02	26012020	260120	224702	53.930	12.264340	-56.478402	53.980	-0.040	0.180	-0.190	53.930	-1.100	0.300																			1580078822.0	0.84	1.56
26/01/2020 22:47:03	26012020	260120	224703	53.980	12.264345	-56.478402	54.020	0.020	-0.300	-0.540	53.990	-1.600	-0.100																			1580078823.0	0.93	1.72
26/01/2020 22:47:04	26012020	260120	224704	54.080	12.264348	-56.478402	54.130	0.010	-0.590	-0.630	54.100	-1.900	-0.200																			1580078824.0	0.75	1.39
26/01/2020 22:47:05	26012020	260120	224705	54.150	12.264350	-56.478402	54.170	-0.150	-0.540	-0.360	54.150	-1.900	-0.000																			1580078825.0	0.33	0.61
26/01/2020 22:47:06	26012020	260120	224706	54.120	12.264348	-56.478402	54.140	-0.340	-0.190	0.160	54.110	-1.600	0.500																			1580078826.0	0.24	0.44
26/01/2020 22:47:07	26012020	260120	224707	54.080	12.264345	-56.478402	54.110	-0.340	0.160	0.730	54.070	-1.200	1.100																			1580078827.0	0.62	1.15
26/01/2020 22:47:08	26012020	260120	224708	54.060	12.264342	-56.478400	54.110	-0.090	0.250	1.210	54.060	-1.100	1.600																			1580078828.0	0.76	1.41
26/01/2020 22:47:09	26012020	260120	224709	54.070	12.264340	-56.478398	54.120	0.220	0.040	1.510	54.070	-1.300	1.900																			1580078829.0	0.66	1.22
26/01/2020 22:47:10	26012020	260120	224710	54.080	12.264338	-56.478397	54.150	0.350	-0.260	1.600	54.080	-1.600	2.000																			1580078830.0	0.46	0.85
26/01/2020 22:47:11	26012020	260120	224711	54.130	12.264340	-56.478397	54.210	0.240	-0.450	1.400	54.150	-1.800	1.800																			1580078831.0	0.29	0.54
26/01/2020 22:47:12	26012020	260120	224712	54.220	12.264342	-56.478397	54.300	0.030	-0.420	0.900	54.240	-1.800	1.400																			1580078832.0	0.51	0.94
26/01/2020 22:47:13	26012020	260120	224713	54.280	12.264345	-56.478398	54.330	-0.100	-0.210	0.320	54.280	-1.600	0.800																			1580078833.0	0.84	1.56
26/01/2020 22:47:14	26012020	260120	224714	54.290	12.264348	-56.478402	54.330	-0.100	-0.000	-0.160	54.300	-1.400	0.300																			1580078834.0	0.93	1.72
26/01/2020 22:47:15	26012020	260120	224715	54.350	12.264352	-56.478405	54.410	0.010	0.080	-0.480	54.370	-1.300	-0.000																			1580078835.0	0.82	1.52
26/01/2020 22:47:16	26012020	260120	224716	54.540	12.264353	-56.478407	54.650	0.110	0.070	-0.620	54.600	-1.300	-0.200																			1580078836.0	0.55	1.02
26/01/2020 22:47:17	26012020	260120	224717	54.880	12.264355	-56.478407	55.020	0.110	0.010	-0.600	54.950	-1.300	-0.200																			1580078837.0	0.22	0.41
26/01/2020 22:47:18	26012020	260120	224718	55.210	12.264353	-56.478405	55.340	-0.020	-0.030	-0.340	55.270	-1.400	0.000																			1580078838.0	0.18	0.33
26/01/2020 22:47:19	26012020	260120	224719	55.420	12.264353	-56.478403	55.520	-0.220	-0.030	0.160	55.440	-1.400	0.500																			1580078839.0	0.46	0.85
26/01/2020 22:47:20	26012020	260120	224720	55.450	12.264350	-56.478402	55.520	-0.340	0.010	0.860	55.440	-1.300	1.200																			1580078840.0	0.64	1.19
26/01/2020 22:47:21	26012020	260120	224721	55.340	12.264347	-56.478400	55.380	-0.290	-0.010	1.570	55.310	-1.400	1.900																			1580078841.0	0.77	1.43
26/01/2020 22:47:22	26012020	260120	224722	55.190	12.264343	-56.478398	55.280	-0.080	-0.240	2.040	55.170	-1.600	2.400																			1580078842.0	0.70	1.30
26/01/2020 22:47:23	26012020	260120	224723	55.170	12.264343	-56.478397	55.330	0.160	-0.610	2.060	55.180	-1.900	2.500																			1580078843.0	0.46	0.85
26/01/2020 22:47:24	26012020	260120	224724	55.390	12.264345	-56.478395	55.570	0.290	-0.800	1.600	55.450	-2.100	2.100																			1580078844.0	0.48	0.89
26/01/2020 22:47:25	26012020	260120	224725	55.610	12.264348	-56.478397	55.770	0.300	-0.530	0.900	55.650	-1.900	1.400																			1580078845.0	0.75	1.39
26/01/2020 22:47:26	26012020	260120	224726	55.760	12.264352	-56.478398	55.810	0.280	0.060	0.270	55.760	-1.400	0.800																			1580078846.0	0.92	1.70
26/01/2020 22:47:27	26012020	260120	224727	55.730	12.264353	-56.478402	55.780	0.300	0.500	-0.210	55.730	-0.900	0.300																			1580078847.0	0.83	1.54
26/01/2020 22:47:28	26012020	260120	224728	55.740	12.264355	-56.478403	55.780	0.250	0.480	-0.610	55.750	-0.900	-0.200																			1580078848.0	0.58	1.07
26/01/2020 22:47:29	26012020	260120	224729	55.820	12.264358	-56.478405	55.850	0.050	0.170	-0.900	55.830	-1.200	-0.500																			1580078849.0	0.63	1.17
26/01/2020 22:47:30	26012020	260120	224730	55.880	12.264362	-56.478405	55.900	-0.290	-0.080	-0.970	55.890	-1.400	-0.600																			1580078850.0	0.72	1.33
26/01/2020 22:47:31	26012020	260120	224731	55.920	12.264363	-56.478405	55.950	-0.610	-0.080	-0.700	55.920	-1.500	-0.300																			1580078851.0	0.38	0.70
26/01/2020 22:47:32	26012020	260120	224732	55.980	12.264362	-56.478405	56.040	-0.730	-0.020	-0.130	56.000	-1.400	0.200																			1580078852.0	0.34	0.63
26/01/2020 22:47:33	26012020	260120	224733	56.050	12.264358	-56.478403	56.120	-0.580	-0.130	0.630	56.060	-1.500	0.900																			1580078853.0	0.95	1.76
26/01/2020 22:47:34	26012020	260120	224734	56.090	12.264353	-56.478400	56.170	-0.180	-0.460	1.340	56.090	-1.800	1.700																			1580078854.0	1.22	2.26
26/01/2020 22:47:35	26012020	260120	224735	56.100	12.264350	-56.478395	56.180	0.320	-0.800	1.750	56.100	-2.100	2.100																			1580078855.0	1.16	2.15
26/01/2020 22:47:36	26012020	260120	224736	56.050	12.264348	-56.478392	56.110	0.690	-0.810	1.820	56.030	-2.200	2.200																			1580078856.0	0.77	1.43
26/01/2020 22:47:37	26012020	260120	224737	55.960	12.264348	-56.478392	55.990	0.760	-0.430	1.590	55.930	-1.900	2.000																			1580078857.0	0.22	0.41
26/01/2020 22:47:38	26012020	260120	224738	55.780	12.264350	-56.478393	55.830	0.520	0.150	1.120	55.740	-1.300	1.600																			1580078858.0	0.54	1.00
26/01/2020 22:47:39	26012020	260120	224739	55.670	12.264353	-56.478397	55.700	0.140	0.550	0.470	55.650	-0.800	1.000																			1580078859.0	1.00	1.85
26/01/2020 22:47:40	26012020	260120	224740	55.650	12.264358	-56.478400	55.740	-0.140	0.510	-0.260	55.670	-0.800	0.200																			1580078860.0	1.21	2.24
26/01/2020 22:47:41	26012020	260120	224741	55.840	12.264363	-56.478403	55.950	-0.180	0.110	-0.940	55.890	-1.200	-0.500																			1580078861.0	1.17	2.17
26/01/2020 22:47:42	26012020	260120	224742	56.110	12.264367	-56.478403	56.210	-0.090	-0.270	-1.320	56.160	-1.600	-0.900																			1580078862.0	0.94	1.74
26/01/2020 22:47:43	26012020	260120	224743	56.270	12.264368	-56.478402	56.310	-0.050	-0.280	-1.140	56.270	-1.700	-0.800																			1580078863.0	0.40	0.74
26/01/2020 22:47:44	26012020	260120	224744	56.220	12.264367	-56.478402	56.220	-0.200	-0.010	-0.470	56.200	-1.400	-0.200																			1580078864.0	0.56	1.04
26/01/2020 22:47:45	26012020	260120	224745	56.050	12.264362	-56.478400	56.040	-0.450	0.240	0.420	56.010	-1.100	0.700																			1580078865.0	1.14	2.11
26/01/2020 22:47:46	26012020	260120	224746	55.880	12.264355	-56.478398	55.920	-0.580	0.130	1.200	55.870	-1.200	1.500																			1580078866.0	1.18	2.19
26/01/2020 22:47:47	26012020	260120	224747	55.850	12.264352	-56.478397	55.940	-0.380	-0.350	1.670	55.870	-1.700	2.000																			1580078867.0	0.85	1.57
26/01/2020 22:47:48	26012020	260120	224748	55.920	12.264352	-56.478393	56.000	0.090	-0.810	1.850	55.920	-2.100	2.200																			1580078868.0	0.65	1.20
26/01/2020 22:47:49	26012020	260120	224749	55.930	12.264352	-56.478392	55.980	0.550	-0.870	1.810	55.920	-2.300	2.200																			1580078869.0	0.51	0.94
26/01/2020 22:47:50	26012020	260120	224750	55.850	12.264352	-56.478390	55.880	0.740	-0.530	1.520	55.830	-1.900	2.000																			1580078870.0	0.11	0.20
26/01/2020 22:47:51	26012020	260120	224751	55.740	12.264353	-56.478392	55.780	0.630	-0.020	1.010	55.720	-1.400	1.500																			1580078871.0	0.46	0.85
26/01/2020 22:47:52	26012020	260120	224752	55.680	12.264355	-56.478395	55.730	0.340	0.340	0.350	55.680	-1.100	0.800																			1580078872.0	0.82	1.52
26/01/2020 22:47:53	26012020	260120	224753	55.710	12.264358	-56.478398	55.750	0.020	0.440	-0.320	55.720	-0.900	0.200																			1580078873.0	1.01	1.87
26/01/2020 22:47:54	26012020	260120	224754	55.770	12.264362	-56.478402	55.800	-0.240	0.290	-0.810	55.780	-1.100	-0.300																			1580078874.0	0.94	1.74
26/01/2020 22:47:55	26012020	260120	224755	55.840	12.264365	-56.478402	55.870	-0.400	0.040	-1.030	55.850	-1.300	-0.600																			1580078875.0	0.64	1.19
26/01/2020 22:47:56	26012020	260120	224756	55.920	12.264367	-56.478402	55.970	-0.430	-0.120	-0.920	55.940	-1.500	-0.500																			1580078876.0	0.24	0.44
26/01/2020 22:47:57	26012020	260120	224757	56.050	12.264365	-56.478400	56.120	-0.300	-0.150	-0.520	56.070	-1.500	-0.200																			1580078877.0	0.30	0.56
26/01/2020 22:47:58	26012020	260120	224758	56.180	12.264362	-56.478400	56.260	-0.030	-0.170	0.050	56.210	-1.500	0.400																			1580078878.0	0.70	1.30
26/01/2020 22:47:59	26012020	260120	224759	56.240	12.264358	-56.478398	56.270	0.230	-0.210	0.780	56.230	-1.600	1.100																			1580078879.0	0.98	1.81
26/01/2020 22:48:00	26012020	260120	224800	56.110	12.264353	-56.478395	56.120	0.280	-0.290	1.500	56.070	-1.600	1.800	1015.00	26.00	26.10	20.80	20.90	-2.00	73.00	73.00	378.00	25.10	358.00	3.90	53.00	3.60	15	3652.00	27.70	27.70	1580078880.0	1.09	2.02
26/01/2020 22:48:01	26012020	260120	224801	55.860	12.264350	-56.478393	55.880	0.120	-0.410	1.990	55.810	-1.800	2.400																			1580078881.0	0.80	1.48
26/01/2020 22:48:02	26012020	260120	224802	55.650	12.264350	-56.478392	55.720	-0.040	-0.530	2.110	55.620	-1.900	2.500																			1580078882.0	0.26	0.48
26/01/2020 22:48:03	26012020	260120	224803	55.660	12.264352	-56.478392	55.800	-0.020	-0.530	1.780	55.690	-1.900	2.200																			1580078883.0	0.31	0.57
26/01/2020 22:48:04	26012020	260120	224804	55.900	12.264353	-56.478393	56.060	0.150	-0.270	1.130	55.960	-1.700	1.600																			1580078884.0	0.49	0.91
26/01/2020 22:48:05	26012020	260120	224805	56.160	12.264355	-56.478395	56.250	0.230	0.250	0.390	56.190	-1.200	0.900																			1580078885.0	0.49	0.91
26/01/2020 22:48:06	26012020	260120	224806	56.240	12.264355	-56.478397	56.280	0.080	0.730	-0.210	56.240	-0.700	0.300																			1580078886.0	0.62	1.15
26/01/2020 22:48:07	26012020	260120	224807	56.230	12.264357	-56.478400	56.250	-0.150	0.770	-0.630	56.220	-0.600	-0.200																			1580078887.0	0.69	1.28
26/01/2020 22:48:08	26012020	260120	224808	56.260	12.264358	-56.478402	56.290	-0.250	0.210	-0.980	56.280	-1.100	-0.500																			1580078888.0	0.59	1.09
26/01/2020 22:48:09	26012020	260120	224809	56.360	12.264362	-56.478403	56.370	-0.140	-0.580	-1.180	56.370	-1.900	-0.800																			1580078889.0	0.79	1.46
26/01/2020 22:48:10	26012020	260120	224810	56.380	12.264365	-56.478402	56.360	0.090	-0.990	-0.940	56.370	-2.300	-0.600																			1580078890.0	0.76	1.41
26/01/2020 22:48:11	26012020	260120	224811	56.320	12.264365	-56.478402	56.300	0.240	-0.860	-0.190	56.310	-2.300	0.100																			1580078891.0	0.24	0.44
26/01/2020 22:48:12	26012020	260120	224812	56.320	12.264360	-56.478400	56.360	0.170	-0.510	0.750	56.340	-1.900	1.000																			1580078892.0	1.08	2.00
26/01/2020 22:48:13	26012020	260120	224813	56.440	12.264353	-56.478397	56.530	-0.070	-0.130	1.510	56.480	-1.500	1.800																			1580078893.0	1.51	2.80
26/01/2020 22:48:14	26012020	260120	224814	56.590	12.264348	-56.478395	56.670	-0.300	0.250	1.940	56.610	-1.200	2.300																			1580078894.0	1.21	2.24
26/01/2020 22:48:15	26012020	260120	224815	56.650	12.264345	-56.478393	56.720	-0.280	0.500	2.050	56.650	-0.900	2.500																			1580078895.0	0.63	1.17
26/01/2020 22:48:16	26012020	260120	224816	56.670	12.264345	-56.478395	56.740	0.020	0.470	1.830	56.680	-0.900	2.300																			1580078896.0	0.22	0.41
26/01/2020 22:48:17	26012020	260120	224817	56.700	12.264347	-56.478395	56.770	0.360	0.140	1.300	56.710	-1.200	1.800																			1580078897.0	0.29	0.54
26/01/2020 22:48:18	26012020	260120	224818	56.740	12.264348	-56.478397	56.780	0.430	-0.170	0.630	56.740	-1.500	1.100																			1580078898.0	0.56	1.04
26/01/2020 22:48:19	26012020	260120	224819	56.730	12.264352	-56.478398	56.770	0.130	-0.360	-0.020	56.740	-1.700	0.500																			1580078899.0	0.75	1.39
26/01/2020 22:48:20	26012020	260120	224820	56.810	12.264355	-56.478402	56.900	-0.270	-0.480	-0.650	56.850	-1.800	-0.100																			1580078900.0	1.01	1.87
26/01/2020 22:48:21	26012020	260120	224821	57.070	12.264358	-56.478403	57.160	-0.410	-0.580	-1.110	57.130	-1.900	-0.600																			1580078901.0	1.09	2.02
26/01/2020 22:48:22	26012020	260120	224822	57.310	12.264362	-56.478405	57.330	-0.210	-0.440	-1.080	57.340	-1.900	-0.700																			1580078902.0	0.63	1.17
26/01/2020 22:48:23	26012020	260120	224823	57.340	12.264360	-56.478405	57.320	0.070	-0.080	-0.480	57.330	-1.500	-0.200																			1580078903.0	0.33	0.61
26/01/2020 22:48:24	26012020	260120	224824	57.280	12.264355	-56.478403	57.280	0.170	0.190	0.390	57.270	-1.200	0.700																			1580078904.0	1.19	2.20
26/01/2020 22:48:25	26012020	260120	224825	57.290	12.264348	-56.478402	57.340	0.040	0.170	1.190	57.300	-1.200	1.500																			1580078905.0	1.46	2.70
26/01/2020 22:48:26	26012020	260120	224826	57.300	12.264343	-56.478398	57.340	-0.160	-0.010	1.710	57.290	-1.400	2.100																			1580078906.0	1.11	2.06
26/01/2020 22:48:27	26012020	260120	224827	57.260	12.264342	-56.478397	57.330	-0.190	-0.180	1.830	57.260	-1.500	2.300																			1580078907.0	0.52	0.96
26/01/2020 22:48:28	26012020	260120	224828	57.330	12.264343	-56.478397	57.450	0.020	-0.310	1.520	57.360	-1.700	2.000																			1580078908.0	0.15	0.28
26/01/2020 22:48:29	26012020	260120	224829	57.550	12.264345	-56.478398	57.690	0.370	-0.300	0.990	57.600	-1.700	1.500																			1580078909.0	0.62	1.15
26/01/2020 22:48:30	26012020	260120	224830	57.780	12.264348	-56.478400	57.880	0.580	-0.140	0.510	57.810	-1.500	1.000																			1580078910.0	0.69	1.28
26/01/2020 22:48:31	26012020	260120	224831	57.900	12.264350	-56.478402	57.960	0.450	0.060	0.190	57.900	-1.300	0.600																			1580078911.0	0.50	0.93
26/01/2020 22:48:32	26012020	260120	224832	57.870	12.264350	-56.478405	57.880	-0.020	0.240	-0.000	57.850	-1.200	0.400																			1580078912.0	0.39	0.72
26/01/2020 22:48:33	26012020	260120	224833	57.730	12.264350	-56.478407	57.720	-0.560	0.300	-0.080	57.700	-1.100	0.300																			1580078913.0	0.43	0.80
26/01/2020 22:48:34	26012020	260120	224834	57.590	12.264350	-56.478408	57.580	-0.840	0.060	-0.100	57.570	-1.300	0.300																			1580078914.0	0.37	0.69
26/01/2020 22:48:35	26012020	260120	224835	57.540	12.264350	-56.478408	57.570	-0.700	-0.440	-0.090	57.550	-1.800	0.300																			1580078915.0	0.12	0.22
26/01/2020 22:48:36	26012020	260120	224836	57.630	12.264352	-56.478407	57.720	-0.260	-0.850	0.020	57.670	-2.200	0.400																			1580078916.0	0.31	0.57
26/01/2020 22:48:37	26012020	260120	224837	57.860	12.264350	-56.478405	57.970	0.230	-0.840	0.200	57.910	-2.200	0.600																			1580078917.0	0.42	0.78
26/01/2020 22:48:38	26012020	260120	224838	58.120	12.264348	-56.478403	58.220	0.540	-0.400	0.450	58.160	-1.800	0.800																			1580078918.0	0.56	1.04
26/01/2020 22:48:39	26012020	260120	224839	58.240	12.264345	-56.478403	58.280	0.580	0.200	0.760	58.240	-1.200	1.100																			1580078919.0	0.81	1.50
26/01/2020 22:48:40	26012020	260120	224840	58.130	12.264340	-56.478403	58.090	0.380	0.600	1.050	58.090	-0.800	1.400																			1580078920.0	0.84	1.56
26/01/2020 22:48:41	26012020	260120	224841	57.840	12.264338	-56.478405	57.790	0.070	0.580	1.170	57.780	-0.800	1.600																			1580078921.0	0.44	0.81
26/01/2020 22:48:42	26012020	260120	224842	57.600	12.264340	-56.478405	57.600	-0.160	0.180	0.960	57.570	-1.100	1.400																			1580078922.0	0.35	0.65
26/01/2020 22:48:43	26012020	260120	224843	57.610	12.264343	-56.478407	57.680	-0.220	-0.340	0.470	57.640	-1.700	1.000																			1580078923.0	0.96	1.78
26/01/2020 22:48:44	26012020	260120	224844	57.890	12.264350	-56.478408	58.000	-0.110	-0.630	-0.010	57.960	-2.000	0.400																			1580078924.0	1.15	2.13
26/01/2020 22:48:45	26012020	260120	224845	58.230	12.264352	-56.478410	58.320	-0.020	-0.530	-0.140	58.280	-1.900	0.300																			1580078925.0	0.55	1.02
26/01/2020 22:48:46	26012020	260120	224846	58.340	12.264350	-56.478410	58.330	-0.130	-0.150	0.230	58.310	-1.600	0.600																			1580078926.0	0.49	0.91
26/01/2020 22:48:47	26012020	260120	224847	58.110	12.264343	-56.478408	58.060	-0.390	0.200	0.810	58.050	-1.200	1.200																			1580078927.0	1.16	2.15
26/01/2020 22:48:48	26012020	260120	224848	57.840	12.264338	-56.478408	57.840	-0.530	0.180	1.110	57.800	-1.200	1.500																			1580078928.0	1.11	2.06
26/01/2020 22:48:49	26012020	260120	224849	57.730	12.264337	-56.478407	57.780	-0.310	-0.180	0.980	57.730	-1.500	1.400																			1580078929.0	0.49	0.91
26/01/2020 22:48:50	26012020	260120	224850	57.770	12.264338	-56.478407	57.840	0.170	-0.560	0.610	57.780	-1.900	1.100																			1580078930.0	0.33	0.61
26/01/2020 22:48:51	26012020	260120	224851	57.900	12.264342	-56.478407	57.980	0.640	-0.650	0.220	57.930	-2.000	0.700																			1580078931.0	0.68	1.26
26/01/2020 22:48:52	26012020	260120	224852	58.030	12.264343	-56.478407	58.070	0.800	-0.340	-0.020	58.040	-1.800	0.400																			1580078932.0	0.66	1.22
26/01/2020 22:48:53	26012020	260120	224853	58.010	12.264345	-56.478410	57.990	0.550	0.200	-0.090	57.990	-1.200	0.300																			1580078933.0	0.47	0.87
26/01/2020 22:48:54	26012020	260120	224854	57.840	12.264345	-56.478412	57.790	0.030	0.590	-0.020	57.800	-0.800	0.400																			1580078934.0	0.54	1.00
26/01/2020 22:48:55	26012020	260120	224855	57.650	12.264343	-56.478413	57.620	-0.450	0.550	0.190	57.620	-0.800	0.600																			1580078935.0	0.44	0.81
26/01/2020 22:48:56	26012020	260120	224856	57.550	12.264343	-56.478413	57.560	-0.630	0.120	0.490	57.540	-1.200	0.900																			1580078936.0	0.12	0.22
26/01/2020 22:48:57	26012020	260120	224857	57.550	12.264343	-56.478412	57.600	-0.460	-0.460	0.780	57.560	-1.800	1.200																			1580078937.0	0.40	0.74
26/01/2020 22:48:58	26012020	260120	224858	57.600	12.264342	-56.478410	57.650	-0.140	-0.850	1.030	57.610	-2.200	1.400																			1580078938.0	0.67	1.24
26/01/2020 22:48:59	26012020	260120	224859	57.620	12.264340	-56.478407	57.670	0.080	-0.740	1.230	57.620	-2.100	1.600																			1580078939.0	0.67	1.24
26/01/2020 22:49:00	26012020	260120	224900	57.600	12.264337	-56.478407	57.620	0.090	-0.210	1.340	57.590	-1.700	1.700	1015.00	26.00	26.10	21.10	21.10	-2.00	74.00	74.00	379.00	25.10	2.00	4.00	59.00	3.70	15	3679.00	27.70	27.70	1580078940.0	0.63	1.17
26/01/2020 22:49:01	26012020	260120	224901	57.470	12.264333	-56.478407	57.450	-0.040	0.360	1.260	57.430	-1.100	1.700																			1580078941.0	0.68	1.26
26/01/2020 22:49:02	26012020	260120	224902	57.220	12.264333	-56.478410	57.180	-0.120	0.570	0.960	57.160	-0.800	1.400																			1580078942.0	0.61	1.13
26/01/2020 22:49:03	26012020	260120	224903	56.990	12.264335	-56.478412	57.000	0.000	0.170	0.390	56.980	-1.100	0.900																			1580078943.0	0.70	1.30
26/01/2020 22:49:04	26012020	260120	224904	57.010	12.264340	-56.478413	57.070	0.310	-0.520	-0.300	57.040	-1.800	0.200																			1580078944.0	1.18	2.19
26/01/2020 22:49:05	26012020	260120	224905	57.160	12.264345	-56.478415	57.260	0.530	-0.890	-0.800	57.200	-2.200	-0.300																			1580078945.0	1.29	2.39
26/01/2020 22:49:06	26012020	260120	224906	57.310	12.264348	-56.478415	57.300	0.420	-0.590	-0.850	57.310	-2.000	-0.500																			1580078946.0	0.65	1.20
26/01/2020 22:49:07	26012020	260120	224907	57.230	12.264347	-56.478415	57.110	-0.040	0.160	-0.410	57.180	-1.300	-0.100																			1580078947.0	0.39	0.72
26/01/2020 22:49:08	26012020	260120	224908	56.850	12.264342	-56.478417	56.790	-0.520	0.730	0.330	56.790	-0.700	0.600																			1580078948.0	1.10	2.04
26/01/2020 22:49:09	26012020	260120	224909	56.600	12.264337	-56.478417	56.600	-0.640	0.580	0.920	56.570	-0.700	1.300																			1580078949.0	1.12	2.07
26/01/2020 22:49:10	26012020	260120	224910	56.550	12.264335	-56.478415	56.600	-0.330	-0.160	1.240	56.560	-1.400	1.600																			1580078950.0	0.71	1.31
26/01/2020 22:49:11	26012020	260120	224911	56.620	12.264335	-56.478412	56.690	0.090	-0.800	1.350	56.630	-2.100	1.800																			1580078951.0	0.76	1.41
26/01/2020 22:49:12	26012020	260120	224912	56.650	12.264335	-56.478410	56.690	0.270	-0.740	1.310	56.630	-2.100	1.700																			1580078952.0	0.49	0.91
26/01/2020 22:49:13	26012020	260120	224913	56.550	12.264335	-56.478410	56.570	0.150	-0.110	1.230	56.520	-1.600	1.600																			1580078953.0	0.28	0.52
26/01/2020 22:49:14	26012020	260120	224914	56.350	12.264333	-56.478413	56.360	-0.020	0.420	1.100	56.320	-1.000	1.500																			1580078954.0	0.85	1.57
26/01/2020 22:49:15	26012020	260120	224915	56.220	12.264332	-56.478417	56.260	0.000	0.230	0.680	56.210	-1.100	1.200																			1580078955.0	0.67	1.24
26/01/2020 22:49:16	26012020	260120	224916	56.240	12.264335	-56.478418	56.300	0.230	-0.450	0.060	56.260	-1.700	0.600																			1580078956.0	0.62	1.15
26/01/2020 22:49:17	26012020	260120	224917	56.310	12.264340	-56.478417	56.340	0.430	-0.810	-0.380	56.320	-2.200	0.100																			1580078957.0	1.07	1.98
26/01/2020 22:49:18	26012020	260120	224918	56.260	12.264343	-56.478418	56.210	0.380	-0.420	-0.470	56.220	-1.900	-0.100																			1580078958.0	0.66	1.22
26/01/2020 22:49:19	26012020	260120	224919	56.010	12.264342	-56.478420	55.940	0.040	0.310	-0.290	55.950	-1.100	0.100																			1580078959.0	0.48	0.89
26/01/2020 22:49:20	26012020	260120	224920	55.750	12.264340	-56.478422	55.730	-0.370	0.680	-0.030	55.720	-0.700	0.400																			1580078960.0	0.82	1.52
26/01/2020 22:49:21	26012020	260120	224921	55.710	12.264337	-56.478423	55.790	-0.560	0.410	0.190	55.740	-0.900	0.600																			1580078961.0	0.48	0.89
26/01/2020 22:49:22	26012020	260120	224922	55.930	12.264337	-56.478423	56.050	-0.480	-0.180	0.380	55.980	-1.500	0.800																			1580078962.0	0.26	0.48
26/01/2020 22:49:23	26012020	260120	224923	56.150	12.264337	-56.478420	56.230	-0.260	-0.510	0.680	56.170	-1.900	1.000																			1580078963.0	0.52	0.96
26/01/2020 22:49:24	26012020	260120	224924	56.140	12.264333	-56.478418	56.130	-0.080	-0.430	1.120	56.100	-1.800	1.500																			1580078964.0	0.64	1.19
26/01/2020 22:49:25	26012020	260120	224925	55.870	12.264330	-56.478418	55.830	0.060	-0.220	1.530	55.790	-1.600	1.900																			1580078965.0	0.83	1.54
26/01/2020 22:49:26	26012020	260120	224926	55.560	12.264327	-56.478418	55.560	0.250	-0.250	1.610	55.530	-1.600	2.000																			1580078966.0	0.68	1.26
26/01/2020 22:49:27	26012020	260120	224927	55.440	12.264327	-56.478417	55.460	0.510	-0.440	1.290	55.430	-1.800	1.800																			1580078967.0	0.08	0.15
26/01/2020 22:49:28	26012020	260120	224928	55.440	12.264330	-56.478418	55.500	0.650	-0.450	0.710	55.450	-1.800	1.200																			1580078968.0	0.56	1.04
26/01/2020 22:49:29	26012020	260120	224929	55.540	12.264333	-56.478420	55.620	0.540	-0.230	-0.040	55.570	-1.600	0.500																			1580078969.0	0.97	1.80
26/01/2020 22:49:30	26012020	260120	224930	55.730	12.264338	-56.478423	55.790	0.220	0.120	-0.760	55.770	-1.300	-0.300																			1580078970.0	1.26	2.33
26/01/2020 22:49:31	26012020	260120	224931	55.870	12.264342	-56.478428	55.890	-0.180	0.410	-1.070	55.870	-1.000	-0.600																			1580078971.0	1.14	2.11
26/01/2020 22:49:32	26012020	260120	224932	55.830	12.264342	-56.478430	55.820	-0.470	0.490	-0.800	55.810	-0.900	-0.400																			1580078972.0	0.53	0.98
26/01/2020 22:49:33	26012020	260120	224933	55.710	12.264340	-56.478430	55.730	-0.580	0.230	-0.080	55.690	-1.100	0.200																			1580078973.0	0.50	0.93
26/01/2020 22:49:34	26012020	260120	224934	55.640	12.264335	-56.478425	55.710	-0.550	-0.200	0.770	55.640	-1.500	1.100																			1580078974.0	1.23	2.28
26/01/2020 22:49:35	26012020	260120	224935	55.620	12.264330	-56.478420	55.710	-0.500	-0.430	1.510	55.620	-1.800	1.800																			1580078975.0	1.54	2.85
26/01/2020 22:49:36	26012020	260120	224936	55.570	12.264325	-56.478417	55.640	-0.450	-0.280	1.940	55.550	-1.700	2.300																			1580078976.0	1.35	2.50
26/01/2020 22:49:37	26012020	260120	224937	55.460	12.264322	-56.478417	55.550	-0.250	-0.070	1.880	55.450	-1.500	2.300																			1580078977.0	0.86	1.59
26/01/2020 22:49:38	26012020	260120	224938	55.400	12.264320	-56.478420	55.490	0.220	-0.190	1.280	55.400	-1.500	1.800																			1580078978.0	0.46	0.85
26/01/2020 22:49:39	26012020	260120	224939	55.430	12.264325	-56.478422	55.520	0.840	-0.620	0.400	55.440	-1.900	0.900																			1580078979.0	1.03	1.91
26/01/2020 22:49:40	26012020	260120	224940	55.540	12.264332	-56.478423	55.630	1.270	-0.950	-0.450	55.570	-2.300	0.100																			1580078980.0	1.58	2.93
26/01/2020 22:49:41	26012020	260120	224941	55.710	12.264338	-56.478425	55.790	1.150	-0.770	-1.020	55.740	-2.200	-0.600																			1580078981.0	1.54	2.85
26/01/2020 22:49:42	26012020	260120	224942	55.790	12.264343	-56.478428	55.820	0.470	0.020	-1.070	55.790	-1.500	-0.700																			1580078982.0	0.95	1.76
26/01/2020 22:49:43	26012020	260120	224943	55.720	12.264342	-56.478430	55.690	-0.450	0.960	-0.510	55.700	-0.500	-0.200																			1580078983.0	0.60	1.11
26/01/2020 22:49:44	26012020	260120	224944	55.560	12.264335	-56.478432	55.600	-1.130	1.310	0.370	55.540	-0.100	0.700																			1580078984.0	1.26	2.33
26/01/2020 22:49:45	26012020	260120	224945	55.490	12.264328	-56.478428	55.570	-1.290	0.810	1.220	55.490	-0.500	1.500																			1580078985.0	1.58	2.93
26/01/2020 22:49:46	26012020	260120	224946	55.510	12.264323	-56.478423	55.620	-0.940	-0.190	1.770	55.530	-1.400	2.100																			1580078986.0	1.61	2.98
26/01/2020 22:49:47	26012020	260120	224947	55.580	12.264322	-56.478417	55.690	-0.360	-1.040	1.930	55.590	-2.300	2.300																			1580078987.0	1.29	2.39
26/01/2020 22:49:48	26012020	260120	224948	55.600	12.264322	-56.478415	55.700	0.230	-1.180	1.770	55.600	-2.600	2.200																			1580078988.0	0.58	1.07
26/01/2020 22:49:49	26012020	260120	224949	55.570	12.264322	-56.478417	55.660	0.690	-0.690	1.370	55.570	-2.100	1.800																			1580078989.0	0.36	0.67
26/01/2020 22:49:50	26012020	260120	224950	55.550	12.264323	-56.478420	55.610	0.930	-0.130	0.800	55.540	-1.600	1.300																			1580078990.0	0.84	1.56
26/01/2020 22:49:51	26012020	260120	224951	55.510	12.264325	-56.478423	55.560	0.840	0.150	0.180	55.510	-1.300	0.700																			1580078991.0	0.93	1.72
26/01/2020 22:49:52	26012020	260120	224952	55.480	12.264328	-56.478427	55.520	0.420	0.180	-0.350	55.480	-1.200	0.100																			1580078992.0	0.96	1.78
26/01/2020 22:49:53	26012020	260120	224953	55.510	12.264332	-56.478428	55.550	-0.140	0.120	-0.720	55.530	-1.300	-0.300																			1580078993.0	0.93	1.72
26/01/2020 22:49:54	26012020	260120	224954	55.570	12.264335	-56.478430	55.600	-0.560	0.040	-0.800	55.580	-1.300	-0.400																			1580078994.0	0.66	1.22
26/01/2020 22:49:55	26012020	260120	224955	55.590	12.264335	-56.478430	55.610	-0.640	-0.060	-0.460	55.580	-1.400	-0.100																			1580078995.0	0.04	0.07
26/01/2020 22:49:56	26012020	260120	224956	55.560	12.264333	-56.478428	55.600	-0.390	-0.300	0.180	55.560	-1.600	0.500																			1580078996.0	0.73	1.35
26/01/2020 22:49:57	26012020	260120	224957	55.570	12.264328	-56.478423	55.640	0.030	-0.540	0.910	55.570	-1.900	1.200																			1580078997.0	1.23	2.28
26/01/2020 22:49:58	26012020	260120	224958	55.550	12.264325	-56.478418	55.610	0.350	-0.470	1.520	55.540	-1.900	1.900																			1580078998.0	1.37	2.54
26/01/2020 22:49:59	26012020	260120	224959	55.430	12.264320	-56.478415	55.480	0.360	-0.050	1.790	55.400	-1.500	2.200																			1580078999.0	1.10	2.04
26/01/2020 22:50:00	26012020	260120	225000	55.320	12.264318	-56.478417	55.390	0.100	0.410	1.540	55.310	-1.000	2.000	1015.00	26.00	26.10	20.90	21.00	-2.00	73.00	73.00	379.00	25.10	2.00	3.90	58.00	3.50	15	3666.00	27.70	27.60	1580079000.0	0.50	0.93
26/01/2020 22:50:01	26012020	260120	225001	55.320	12.264320	-56.478420	55.410	-0.190	0.580	0.870	55.340	-0.800	1.400																			1580079001.0	0.76	1.41
26/01/2020 22:50:02	26012020	260120	225002	55.420	12.264323	-56.478423	55.490	-0.290	0.350	0.110	55.440	-1.000	0.600																			1580079002.0	1.26	2.33
26/01/2020 22:50:03	26012020	260120	225003	55.540	12.264328	-56.478427	55.610	-0.180	-0.130	-0.460	55.560	-1.500	0.000																			1580079003.0	1.27	2.35
26/01/2020 22:50:04	26012020	260120	225004	55.640	12.264332	-56.478428	55.680	0.030	-0.590	-0.720	55.650	-1.900	-0.300																			1580079004.0	0.90	1.67
26/01/2020 22:50:05	26012020	260120	225005	55.690	12.264333	-56.478428	55.710	0.220	-0.830	-0.620	55.690	-2.200	-0.200																			1580079005.0	0.31	0.57
26/01/2020 22:50:06	26012020	260120	225006	55.660	12.264332	-56.478425	55.670	0.250	-0.790	-0.160	55.650	-2.200	0.200																			1580079006.0	0.59	1.09
26/01/2020 22:50:07	26012020	260120	225007	55.570	12.264328	-56.478423	55.570	0.090	-0.470	0.470	55.550	-1.900	0.800																			1580079007.0	0.98	1.81
26/01/2020 22:50:08	26012020	260120	225008	55.470	12.264325	-56.478420	55.530	-0.110	0.010	0.980	55.460	-1.400	1.300																			1580079008.0	0.96	1.78
26/01/2020 22:50:09	26012020	260120	225009	55.450	12.264322	-56.478420	55.530	-0.210	0.380	1.210	55.460	-1.000	1.600																			1580079009.0	0.69	1.28
26/01/2020 22:50:10	26012020	260120	225010	55.500	12.264320	-56.478420	55.590	-0.140	0.470	1.160	55.520	-0.900	1.600																			1580079010.0	0.28	0.52
26/01/2020 22:50:11	26012020	260120	225011	55.600	12.264320	-56.478420	55.660	0.080	0.270	0.950	55.610	-1.100	1.400																			1580079011.0	0.12	0.22
26/01/2020 22:50:12	26012020	260120	225012	55.620	12.264322	-56.478420	55.640	0.320	-0.040	0.810	55.610	-1.400	1.200																			1580079012.0	0.30	0.56
26/01/2020 22:50:13	26012020	260120	225013	55.560	12.264323	-56.478418	55.590	0.400	-0.370	0.630	55.560	-1.700	1.100																			1580079013.0	0.33	0.61
26/01/2020 22:50:14	26012020	260120	225014	55.580	12.264325	-56.478418	55.610	0.270	-0.590	0.270	55.590	-2.000	0.700																			1580079014.0	0.44	0.81
26/01/2020 22:50:15	26012020	260120	225015	55.660	12.264328	-56.478420	55.710	-0.010	-0.490	-0.110	55.680	-1.900	0.400																			1580079015.0	0.66	1.22
26/01/2020 22:50:16	26012020	260120	225016	55.740	12.264330	-56.478422	55.770	-0.330	-0.030	-0.200	55.750	-1.500	0.200																			1580079016.0	0.62	1.15
26/01/2020 22:50:17	26012020	260120	225017	55.790	12.264330	-56.478423	55.850	-0.520	0.450	0.040	55.810	-1.000	0.400																			1580079017.0	0.46	0.85
26/01/2020 22:50:18	26012020	260120	225018	55.880	12.264327	-56.478423	55.950	-0.510	0.540	0.450	55.900	-0.800	0.800																			1580079018.0	0.67	1.24
26/01/2020 22:50:19	26012020	260120	225019	55.980	12.264323	-56.478422	56.040	-0.310	0.180	0.840	55.990	-1.200	1.200																			1580079019.0	0.90	1.67
26/01/2020 22:50:20	26012020	260120	225020	56.030	12.264320	-56.478418	56.080	-0.020	-0.390	1.110	56.040	-1.700	1.500																			1580079020.0	1.00	1.85
26/01/2020 22:50:21	26012020	260120	225021	56.040	12.264318	-56.478415	56.090	0.260	-0.880	1.190	56.040	-2.200	1.600																			1580079021.0	0.84	1.56
26/01/2020 22:50:22	26012020	260120	225022	56.030	12.264318	-56.478412	56.040	0.460	-1.030	1.110	56.030	-2.400	1.500																			1580079022.0	0.51	0.94
26/01/2020 22:50:23	26012020	260120	225023	55.970	12.264320	-56.478412	55.980	0.530	-0.700	0.980	55.950	-2.200	1.400																			1580079023.0	0.33	0.61
26/01/2020 22:50:24	26012020	260120	225024	55.850	12.264322	-56.478413	55.840	0.410	-0.050	0.810	55.820	-1.500	1.300																			1580079024.0	0.38	0.70
26/01/2020 22:50:25	26012020	260120	225025	55.720	12.264322	-56.478415	55.710	0.120	0.590	0.530	55.710	-0.900	1.000																			1580079025.0	0.61	1.13
26/01/2020 22:50:26	26012020	260120	225026	55.680	12.264323	-56.478418	55.700	-0.190	0.880	0.130	55.690	-0.500	0.600																			1580079026.0	0.73	1.35
26/01/2020 22:50:27	26012020	260120	225027	55.790	12.264325	-56.478422	55.840	-0.400	0.630	-0.310	55.820	-0.700	0.200																			1580079027.0	0.65	1.20
26/01/2020 22:50:28	26012020	260120	225028	55.950	12.264328	-56.478422	55.990	-0.450	0.070	-0.510	55.980	-1.300	-0.100																			1580079028.0	0.51	0.94
26/01/2020 22:50:29	26012020	260120	225029	56.040	12.264330	-56.478420	56.070	-0.390	-0.450	-0.340	56.050	-1.800	0.000																			1580079029.0	0.42	0.78
26/01/2020 22:50:30	26012020	260120	225030	56.130	12.264328	-56.478418	56.180	-0.230	-0.770	0.040	56.160	-2.100	0.400																			1580079030.0	0.56	1.04
26/01/2020 22:50:31	26012020	260120	225031	56.290	12.264325	-56.478415	56.350	-0.030	-0.850	0.490	56.320	-2.200	0.800																			1580079031.0	0.87	1.61
26/01/2020 22:50:32	26012020	260120	225032	56.380	12.264322	-56.478412	56.390	0.200	-0.600	0.990	56.370	-2.000	1.300																			1580079032.0	1.00	1.85
26/01/2020 22:50:33	26012020	260120	225033	56.220	12.264318	-56.478410	56.200	0.360	-0.090	1.420	56.160	-1.500	1.800																			1580079033.0	0.95	1.76
26/01/2020 22:50:34	26012020	260120	225034	55.900	12.264315	-56.478410	55.880	0.420	0.340	1.550	55.850	-1.100	2.000																			1580079034.0	0.66	1.22
26/01/2020 22:50:35	26012020	260120	225035	55.680	12.264315	-56.478412	55.700	0.370	0.390	1.290	55.660	-1.000	1.800																			1580079035.0	0.25	0.46
26/01/2020 22:50:36	26012020	260120	225036	55.640	12.264317	-56.478412	55.670	0.200	0.110	0.790	55.640	-1.200	1.300																			1580079036.0	0.74	1.37
26/01/2020 22:50:37	26012020	260120	225037	55.690	12.264322	-56.478413	55.720	-0.070	-0.250	0.270	55.710	-1.600	0.800																			1580079037.0	1.12	2.07
26/01/2020 22:50:38	26012020	260120	225038	55.840	12.264327	-56.478415	55.880	-0.330	-0.450	-0.170	55.880	-1.800	0.300																			1580079038.0	1.02	1.89
26/01/2020 22:50:39	26012020	260120	225039	56.020	12.264330	-56.478415	56.050	-0.530	-0.300	-0.330	56.050	-1.700	0.100																			1580079039.0	0.51	0.94
26/01/2020 22:50:40	26012020	260120	225040	56.100	12.264328	-56.478415	56.100	-0.600	0.130	-0.060	56.100	-1.300	0.300																			1580079040.0	0.31	0.57
26/01/2020 22:50:41	26012020	260120	225041	56.030	12.264323	-56.478415	56.000	-0.500	0.390	0.470	56.000	-1.000	0.800																			1580079041.0	1.06	1.96
26/01/2020 22:50:42	26012020	260120	225042	55.900	12.264318	-56.478413	55.900	-0.170	0.080	0.890	55.890	-1.300	1.300																			1580079042.0	1.17	2.17
26/01/2020 22:50:43	26012020	260120	225043	55.880	12.264317	-56.478410	55.910	0.310	-0.580	1.000	55.880	-1.900	1.400																			1580079043.0	0.81	1.50
26/01/2020 22:50:44	26012020	260120	225044	55.940	12.264317	-56.478407	55.970	0.710	-0.900	0.920	55.950	-2.300	1.400																			1580079044.0	0.70	1.30
26/01/2020 22:50:45	26012020	260120	225045	56.010	12.264320	-56.478407	56.070	0.840	-0.610	0.750	56.030	-2.100	1.200																			1580079045.0	0.50	0.93
26/01/2020 22:50:46	26012020	260120	225046	56.110	12.264322	-56.478408	56.130	0.630	-0.040	0.560	56.120	-1.500	1.000																			1580079046.0	0.54	1.00
26/01/2020 22:50:47	26012020	260120	225047	56.130	12.264322	-56.478412	56.090	0.200	0.420	0.530	56.120	-1.000	0.900																			1580079047.0	0.58	1.07
26/01/2020 22:50:48	26012020	260120	225048	55.980	12.264322	-56.478413	55.930	-0.270	0.530	0.640	55.940	-0.900	1.000																			1580079048.0	0.31	0.57
26/01/2020 22:50:49	26012020	260120	225049	55.790	12.264320	-56.478413	55.780	-0.580	0.280	0.790	55.770	-1.100	1.200																			1580079049.0	0.11	0.20
26/01/2020 22:50:50	26012020	260120	225050	55.710	12.264320	-56.478412	55.730	-0.650	-0.100	0.900	55.710	-1.400	1.300																			1580079050.0	0.32	0.59
26/01/2020 22:50:51	26012020	260120	225051	55.760	12.264320	-56.478408	55.800	-0.500	-0.390	0.940	55.780	-1.800	1.400																			1580079051.0	0.40	0.74
26/01/2020 22:50:52	26012020	260120	225052	55.870	12.264320	-56.478408	55.910	-0.260	-0.480	0.870	55.890	-1.900	1.300																			1580079052.0	0.36	0.67
26/01/2020 22:50:53	26012020	260120	225053	55.960	12.264318	-56.478407	55.980	-0.030	-0.380	0.670	55.970	-1.800	1.100																			1580079053.0	0.29	0.54
26/01/2020 22:50:54	26012020	260120	225054	56.010	12.264318	-56.478407	56.030	0.110	-0.200	0.380	56.030	-1.600	0.800																			1580079054.0	0.16	0.30
26/01/2020 22:50:55	26012020	260120	225055	56.070	12.264318	-56.478408	56.080	0.180	0.020	0.100	56.090	-1.400	0.500																			1580079055.0	0.32	0.59
26/01/2020 22:50:56	26012020	260120	225056	56.110	12.264320	-56.478410	56.100	0.250	0.090	-0.030	56.120	-1.300	0.400																			1580079056.0	0.51	0.94
26/01/2020 22:50:57	26012020	260120	225057	56.150	12.264322	-56.478412	56.150	0.390	-0.110	-0.030	56.160	-1.500	0.400																			1580079057.0	0.47	0.87
26/01/2020 22:50:58	26012020	260120	225058	56.200	12.264323	-56.478412	56.200	0.520	-0.430	0.110	56.200	-1.800	0.500																			1580079058.0	0.40	0.74
26/01/2020 22:50:59	26012020	260120	225059	56.160	12.264323	-56.478410	56.140	0.480	-0.470	0.460	56.140	-1.900	0.800																			1580079059.0	0.44	0.81
26/01/2020 22:51:00	26012020	260120	225100	56.000	12.264322	-56.478408	55.980	0.200	-0.220	0.990	55.970	-1.600	1.300	1015.00	26.00	26.10	20.90	20.90	-1.00	73.00	73.00	379.00	25.10	360.00	4.00	55.00	3.70	15	3755.00	27.70	27.70	1580079060.0	0.52	0.96
26/01/2020 22:51:01	26012020	260120	225101	55.900	12.264318	-56.478407	55.940	-0.190	0.020	1.400	55.900	-1.400	1.800																			1580079061.0	0.70	1.30
26/01/2020 22:51:02	26012020	260120	225102	55.990	12.264317	-56.478405	56.060	-0.520	0.160	1.490	56.020	-1.200	1.900																			1580079062.0	0.49	0.91
26/01/2020 22:51:03	26012020	260120	225103	56.100	12.264317	-56.478405	56.150	-0.700	0.370	1.390	56.110	-1.000	1.800																			1580079063.0	0.13	0.24
26/01/2020 22:51:04	26012020	260120	225104	56.120	12.264317	-56.478407	56.150	-0.660	0.570	1.200	56.120	-0.800	1.600																			1580079064.0	0.26	0.48
26/01/2020 22:51:05	26012020	260120	225105	56.160	12.264315	-56.478408	56.220	-0.380	0.370	0.840	56.180	-1.000	1.300																			1580079065.0	0.36	0.67
26/01/2020 22:51:06	26012020	260120	225106	56.310	12.264317	-56.478408	56.380	0.030	-0.280	0.390	56.340	-1.600	0.900																			1580079066.0	0.19	0.35
26/01/2020 22:51:07	26012020	260120	225107	56.510	12.264318	-56.478408	56.570	0.400	-0.980	-0.100	56.550	-2.300	0.400																			1580079067.0	0.54	1.00
26/01/2020 22:51:08	26012020	260120	225108	56.680	12.264322	-56.478407	56.690	0.570	-1.210	-0.470	56.700	-2.600	-0.000																			1580079068.0	0.72	1.33
26/01/2020 22:51:09	26012020	260120	225109	56.660	12.264323	-56.478407	56.610	0.520	-0.780	-0.430	56.630	-2.200	-0.000																			1580079069.0	0.44	0.81
26/01/2020 22:51:10	26012020	260120	225110	56.440	12.264323	-56.478408	56.360	0.310	-0.040	-0.020	56.390	-1.500	0.300																			1580079070.0	0.34	0.63
26/01/2020 22:51:11	26012020	260120	225111	56.190	12.264322	-56.478410	56.140	0.090	0.380	0.430	56.150	-1.000	0.800																			1580079071.0	0.49	0.91
26/01/2020 22:51:12	26012020	260120	225112	56.080	12.264320	-56.478410	56.100	0.010	0.350	0.720	56.080	-1.000	1.100																			1580079072.0	0.15	0.28
26/01/2020 22:51:13	26012020	260120	225113	56.180	12.264322	-56.478408	56.250	0.010	0.150	0.860	56.220	-1.200	1.300																			1580079073.0	0.35	0.65
26/01/2020 22:51:14	26012020	260120	225114	56.380	12.264322	-56.478407	56.460	-0.040	0.130	0.980	56.430	-1.300	1.400																			1580079074.0	0.36	0.67
26/01/2020 22:51:15	26012020	260120	225115	56.550	12.264320	-56.478405	56.610	-0.220	0.230	1.120	56.580	-1.200	1.500																			1580079075.0	0.32	0.59
26/01/2020 22:51:16	26012020	260120	225116	56.670	12.264318	-56.478405	56.740	-0.450	0.210	1.170	56.700	-1.200	1.600																			1580079076.0	0.44	0.81
26/01/2020 22:51:17	26012020	260120	225117	56.770	12.264317	-56.478405	56.820	-0.570	0.020	1.090	56.780	-1.300	1.500																			1580079077.0	0.29	0.54
26/01/2020 22:51:18	26012020	260120	225118	56.770	12.264317	-56.478405	56.790	-0.480	-0.210	1.020	56.760	-1.600	1.400																			1580079078.0	0.12	0.22
26/01/2020 22:51:19	26012020	260120	225119	56.700	12.264315	-56.478405	56.720	-0.200	-0.470	0.920	56.690	-1.800	1.300																			1580079079.0	0.07	0.13
26/01/2020 22:51:20	26012020	260120	225120	56.670	12.264317	-56.478405	56.680	0.160	-0.740	0.690	56.660	-2.100	1.100																			1580079080.0	0.10	0.19
26/01/2020 22:51:21	26012020	260120	225121	56.630	12.264317	-56.478405	56.640	0.440	-0.790	0.340	56.630	-2.200	0.800																			1580079081.0	0.28	0.52
26/01/2020 22:51:22	26012020	260120	225122	56.590	12.264320	-56.478405	56.570	0.550	-0.510	-0.050	56.570	-1.900	0.400																			1580079082.0	0.47	0.87
26/01/2020 22:51:23	26012020	260120	225123	56.550	12.264322	-56.478407	56.520	0.510	-0.020	-0.340	56.540	-1.400	0.100																			1580079083.0	0.67	1.24
26/01/2020 22:51:24	26012020	260120	225124	56.520	12.264323	-56.478410	56.510	0.390	0.280	-0.440	56.530	-1.100	-0.000																			1580079084.0	0.66	1.22
26/01/2020 22:51:25	26012020	260120	225125	56.590	12.264325	-56.478412	56.590	0.250	0.150	-0.320	56.600	-1.200	0.100																			1580079085.0	0.37	0.69
26/01/2020 22:51:26	26012020	260120	225126	56.670	12.264327	-56.478410	56.680	0.040	-0.080	-0.020	56.680	-1.400	0.300																			1580079086.0	0.40	0.74
26/01/2020 22:51:27	26012020	260120	225127	56.710	12.264325	-56.478407	56.720	-0.290	-0.030	0.450	56.720	-1.400	0.800																			1580079087.0	0.52	0.96
26/01/2020 22:51:28	26012020	260120	225128	56.750	12.264323	-56.478405	56.780	-0.610	0.340	1.040	56.760	-1.100	1.400																			1580079088.0	0.65	1.20
26/01/2020 22:51:29	26012020	260120	225129	56.830	12.264318	-56.478405	56.910	-0.750	0.590	1.590	56.850	-0.800	1.900																			1580079089.0	0.99	1.83
26/01/2020 22:51:30	26012020	260120	225130	56.930	12.264313	-56.478405	56.990	-0.590	0.390	1.960	56.930	-0.900	2.300																			1580079090.0	1.02	1.89
26/01/2020 22:51:31	26012020	260120	225131	56.900	12.264310	-56.478403	56.930	-0.250	-0.190	2.100	56.870	-1.500	2.500																			1580079091.0	0.77	1.43
26/01/2020 22:51:32	26012020	260120	225132	56.750	12.264310	-56.478402	56.780	0.130	-0.800	1.960	56.720	-2.100	2.400																			1580079092.0	0.46	0.85
26/01/2020 22:51:33	26012020	260120	225133	56.610	12.264312	-56.478400	56.630	0.460	-1.110	1.580	56.580	-2.500	2.000																			1580079093.0	0.40	0.74
26/01/2020 22:51:34	26012020	260120	225134	56.480	12.264313	-56.478402	56.500	0.660	-0.980	1.070	56.450	-2.400	1.500																			1580079094.0	0.63	1.17
26/01/2020 22:51:35	26012020	260120	225135	56.360	12.264317	-56.478403	56.320	0.660	-0.490	0.450	56.330	-1.900	0.900																			1580079095.0	0.86	1.59
26/01/2020 22:51:36	26012020	260120	225136	56.170	12.264320	-56.478407	56.120	0.400	0.140	-0.240	56.140	-1.300	0.300																			1580079096.0	1.04	1.93
26/01/2020 22:51:37	26012020	260120	225137	56.040	12.264323	-56.478412	55.970	-0.020	0.620	-0.820	56.010	-0.800	-0.300																			1580079097.0	1.23	2.28
26/01/2020 22:51:38	26012020	260120	225138	55.910	12.264327	-56.478415	55.880	-0.320	0.700	-1.040	55.900	-0.700	-0.600																			1580079098.0	1.10	2.04
26/01/2020 22:51:39	26012020	260120	225139	55.930	12.264330	-56.478417	55.960	-0.330	0.270	-0.920	55.960	-1.000	-0.500																			1580079099.0	0.55	1.02
26/01/2020 22:51:40	26012020	260120	225140	56.130	12.264330	-56.478413	56.200	-0.160	-0.370	-0.580	56.180	-1.700	-0.200																			1580079100.0	0.56	1.04
26/01/2020 22:51:41	26012020	260120	225141	56.310	12.264328	-56.478410	56.340	-0.090	-0.660	0.020	56.320	-2.000	0.300																			1580079101.0	1.06	1.96
26/01/2020 22:51:42	26012020	260120	225142	56.250	12.264325	-56.478405	56.220	-0.230	-0.330	0.870	56.210	-1.800	1.200																			1580079102.0	1.23	2.28
26/01/2020 22:51:43	26012020	260120	225143	55.970	12.264318	-56.478403	55.920	-0.410	0.280	1.720	55.900	-1.200	2.000																			1580079103.0	1.36	2.52
26/01/2020 22:51:44	26012020	260120	225144	55.620	12.264313	-56.478403	55.590	-0.370	0.600	2.210	55.550	-0.800	2.600																			1580079104.0	1.24	2.30
26/01/2020 22:51:45	26012020	260120	225145	55.340	12.264310	-56.478403	55.340	-0.050	0.270	2.170	55.300	-1.000	2.600																			1580079105.0	0.54	1.00
26/01/2020 22:51:46	26012020	260120	225146	55.240	12.264313	-56.478403	55.270	0.380	-0.450	1.600	55.240	-1.700	2.100																			1580079106.0	0.50	0.93
26/01/2020 22:51:47	26012020	260120	225147	55.330	12.264318	-56.478405	55.370	0.600	-0.990	0.680	55.370	-2.300	1.200																			1580079107.0	1.30	2.41
26/01/2020 22:51:48	26012020	260120	225148	55.530	12.264327	-56.478407	55.560	0.520	-0.980	-0.240	55.560	-2.400	0.300																			1580079108.0	1.57	2.91
26/01/2020 22:51:49	26012020	260120	225149	55.650	12.264332	-56.478410	55.620	0.240	-0.530	-0.750	55.650	-2.000	-0.300																			1580079109.0	1.30	2.41
26/01/2020 22:51:50	26012020	260120	225150	55.610	12.264332	-56.478413	55.570	-0.070	0.020	-0.740	55.600	-1.400	-0.300																			1580079110.0	0.64	1.19
26/01/2020 22:51:51	26012020	260120	225151	55.530	12.264332	-56.478413	55.490	-0.280	0.340	-0.410	55.510	-1.100	-0.000																			1580079111.0	0.34	0.63
26/01/2020 22:51:52	26012020	260120	225152	55.460	12.264328	-56.478412	55.450	-0.330	0.360	0.060	55.450	-1.000	0.400																			1580079112.0	0.59	1.09
26/01/2020 22:51:53	26012020	260120	225153	55.500	12.264327	-56.478410	55.550	-0.190	0.190	0.500	55.530	-1.200	0.900																			1580079113.0	0.66	1.22
26/01/2020 22:51:54	26012020	260120	225154	55.700	12.264325	-56.478407	55.780	0.050	-0.030	0.820	55.740	-1.400	1.200																			1580079114.0	0.66	1.22
26/01/2020 22:51:55	26012020	260120	225155	55.890	12.264323	-56.478405	55.930	0.180	-0.130	1.110	55.910	-1.500	1.500																			1580079115.0	0.57	1.06
26/01/2020 22:51:56	26012020	260120	225156	55.890	12.264322	-56.478403	55.880	0.080	-0.040	1.400	55.870	-1.400	1.800																			1580079116.0	0.44	0.81
26/01/2020 22:51:57	26012020	260120	225157	55.710	12.264320	-56.478403	55.670	-0.180	0.090	1.540	55.660	-1.300	1.900																			1580079117.0	0.31	0.57
26/01/2020 22:51:58	26012020	260120	225158	55.490	12.264320	-56.478405	55.470	-0.330	0.070	1.410	55.450	-1.300	1.900																			1580079118.0	0.36	0.67
26/01/2020 22:51:59	26012020	260120	225159	55.370	12.264322	-56.478408	55.370	-0.210	-0.160	1.080	55.360	-1.500	1.500																			1580079119.0	0.56	1.04
26/01/2020 22:52:00	26012020	260120	225200	55.370	12.264325	-56.478410	55.400	0.070	-0.450	0.680	55.390	-1.800	1.200	1015.00	26.00	26.10	20.90	20.90	-1.00	73.00	73.00	379.00	25.10	352.00	4.30	48.00	4.10	15	3741.00	27.70	27.70	1580079120.0	0.68	1.26
26/01/2020 22:52:01	26012020	260120	225201	55.530	12.264328	-56.478410	55.590	0.280	-0.640	0.200	55.570	-2.000	0.700																			1580079121.0	0.67	1.24
26/01/2020 22:52:02	26012020	260120	225202	55.790	12.264330	-56.478412	55.850	0.300	-0.600	-0.260	55.840	-2.000	0.200																			1580079122.0	0.56	1.04
26/01/2020 22:52:03	26012020	260120	225203	56.000	12.264332	-56.478412	56.020	0.150	-0.360	-0.470	56.020	-1.800	-0.100																			1580079123.0	0.31	0.57
26/01/2020 22:52:04	26012020	260120	225204	56.030	12.264332	-56.478412	55.990	-0.020	-0.030	-0.280	56.010	-1.400	0.100																			1580079124.0	0.10	0.19
26/01/2020 22:52:05	26012020	260120	225205	55.830	12.264328	-56.478412	55.740	-0.070	0.210	0.230	55.770	-1.200	0.600																			1580079125.0	0.44	0.81
26/01/2020 22:52:06	26012020	260120	225206	55.500	12.264327	-56.478410	55.410	0.010	0.170	0.730	55.430	-1.200	1.100																			1580079126.0	0.56	1.04
26/01/2020 22:52:07	26012020	260120	225207	55.280	12.264327	-56.478408	55.230	0.130	-0.100	0.960	55.250	-1.400	1.400																			1580079127.0	0.43	0.80
26/01/2020 22:52:08	26012020	260120	225208	55.240	12.264328	-56.478407	55.290	0.200	-0.200	1.000	55.270	-1.600	1.400																			1580079128.0	0.47	0.87
26/01/2020 22:52:09	26012020	260120	225209	55.420	12.264330	-56.478407	55.480	0.130	0.050	0.960	55.450	-1.400	1.400																			1580079129.0	0.31	0.57
26/01/2020 22:52:10	26012020	260120	225210	55.550	12.264330	-56.478408	55.580	-0.130	0.490	0.890	55.560	-0.900	1.300																			1580079130.0	0.33	0.61
26/01/2020 22:52:11	26012020	260120	225211	55.560	12.264328	-56.478410	55.550	-0.480	0.640	0.740	55.550	-0.700	1.200																			1580079131.0	0.61	1.13
26/01/2020 22:52:12	26012020	260120	225212	55.470	12.264328	-56.478413	55.460	-0.670	0.270	0.620	55.450	-1.000	1.000																			1580079132.0	0.50	0.93
26/01/2020 22:52:13	26012020	260120	225213	55.340	12.264330	-56.478413	55.310	-0.550	-0.440	0.660	55.310	-1.700	1.100																			1580079133.0	0.28	0.52
26/01/2020 22:52:14	26012020	260120	225214	55.160	12.264330	-56.478412	55.140	-0.150	-1.140	0.810	55.130	-2.400	1.200																			1580079134.0	0.44	0.81
26/01/2020 22:52:15	26012020	260120	225215	55.040	12.264332	-56.478408	55.040	0.280	-1.470	0.860	55.030	-2.800	1.300																			1580079135.0	0.61	1.13
26/01/2020 22:52:16	26012020	260120	225216	55.000	12.264332	-56.478407	55.010	0.600	-1.210	0.710	55.000	-2.600	1.100																			1580079136.0	0.38	0.70
26/01/2020 22:52:17	26012020	260120	225217	54.970	12.264332	-56.478408	54.940	0.740	-0.400	0.470	54.950	-1.900	0.900																			1580079137.0	0.17	0.31
26/01/2020 22:52:18	26012020	260120	225218	54.830	12.264332	-56.478410	54.750	0.730	0.570	0.310	54.780	-0.900	0.700																			1580079138.0	0.57	1.06
26/01/2020 22:52:19	26012020	260120	225219	54.540	12.264332	-56.478413	54.460	0.510	1.120	0.220	54.480	-0.300	0.600																			1580079139.0	0.67	1.24
26/01/2020 22:52:20	26012020	260120	225220	54.280	12.264333	-56.478415	54.250	0.060	0.960	0.050	54.250	-0.400	0.500																			1580079140.0	0.55	1.02
26/01/2020 22:52:21	26012020	260120	225221	54.270	12.264337	-56.478417	54.330	-0.480	0.360	-0.250	54.310	-0.900	0.200																			1580079141.0	0.88	1.63
26/01/2020 22:52:22	26012020	260120	225222	54.530	12.264342	-56.478418	54.620	-0.870	-0.150	-0.500	54.600	-1.500	-0.100																			1580079142.0	1.09	2.02
26/01/2020 22:52:23	26012020	260120	225223	54.810	12.264345	-56.478420	54.860	-0.880	-0.300	-0.320	54.840	-1.700	0.000																			1580079143.0	0.56	1.04
26/01/2020 22:52:24	26012020	260120	225224	54.890	12.264342	-56.478418	54.890	-0.600	-0.310	0.340	54.870	-1.700	0.700																			1580079144.0	0.61	1.13
26/01/2020 22:52:25	26012020	260120	225225	54.790	12.264335	-56.478417	54.720	-0.270	-0.400	1.190	54.750	-1.800	1.500																			1580079145.0	1.47	2.72
26/01/2020 22:52:26	26012020	260120	225226	54.520	12.264330	-56.478413	54.510	-0.010	-0.620	1.780	54.480	-2.000	2.100																			1580079146.0	1.49	2.76
26/01/2020 22:52:27	26012020	260120	225227	54.370	12.264327	-56.478410	54.400	0.240	-0.800	1.840	54.360	-2.200	2.300																			1580079147.0	0.67	1.24
26/01/2020 22:52:28	26012020	260120	225228	54.370	12.264328	-56.478412	54.400	0.610	-0.770	1.400	54.370	-2.200	1.900																			1580079148.0	0.42	0.78
26/01/2020 22:52:29	26012020	260120	225229	54.420	12.264333	-56.478413	54.440	0.920	-0.490	0.690	54.430	-1.900	1.200																			1580079149.0	1.04	1.93
26/01/2020 22:52:30	26012020	260120	225230	54.460	12.264338	-56.478417	54.470	0.930	-0.020	-0.020	54.470	-1.500	0.500																			1580079150.0	1.28	2.37
26/01/2020 22:52:31	26012020	260120	225231	54.510	12.264343	-56.478420	54.510	0.550	0.480	-0.540	54.530	-1.000	-0.100																			1580079151.0	1.17	2.17
26/01/2020 22:52:32	26012020	260120	225232	54.610	12.264345	-56.478423	54.610	-0.020	0.760	-0.800	54.630	-0.600	-0.400																			1580079152.0	0.78	1.44
26/01/2020 22:52:33	26012020	260120	225233	54.710	12.264345	-56.478423	54.710	-0.540	0.670	-0.770	54.730	-0.700	-0.400																			1580079153.0	0.28	0.52
26/01/2020 22:52:34	26012020	260120	225234	54.790	12.264345	-56.478423	54.790	-0.860	0.270	-0.520	54.800	-1.100	-0.100																			1580079154.0	0.20	0.37
26/01/2020 22:52:35	26012020	260120	225235	54.820	12.264345	-56.478422	54.800	-0.900	-0.210	-0.120	54.820	-1.500	0.200																			1580079155.0	0.45	0.83
26/01/2020 22:52:36	26012020	260120	225236	54.780	12.264343	-56.478418	54.750	-0.640	-0.530	0.420	54.760	-1.900	0.800																			1580079156.0	0.54	1.00
26/01/2020 22:52:37	26012020	260120	225237	54.680	12.264340	-56.478417	54.670	-0.180	-0.600	1.010	54.670	-2.000	1.300																			1580079157.0	0.69	1.28
26/01/2020 22:52:38	26012020	260120	225238	54.630	12.264337	-56.478415	54.650	0.300	-0.520	1.460	54.630	-1.900	1.800																			1580079158.0	0.84	1.56
26/01/2020 22:52:39	26012020	260120	225239	54.660	12.264335	-56.478413	54.700	0.560	-0.390	1.590	54.670	-1.800	2.000																			1580079159.0	0.74	1.37
26/01/2020 22:52:40	26012020	260120	225240	54.720	12.264333	-56.478412	54.740	0.500	-0.180	1.280	54.730	-1.600	1.700																			1580079160.0	0.18	0.33
26/01/2020 22:52:41	26012020	260120	225241	54.760	12.264337	-56.478415	54.760	0.260	0.050	0.640	54.760	-1.400	1.100																			1580079161.0	0.66	1.22
26/01/2020 22:52:42	26012020	260120	225242	54.790	12.264340	-56.478418	54.790	0.100	0.070	-0.050	54.810	-1.300	0.400																			1580079162.0	1.23	2.28
26/01/2020 22:52:43	26012020	260120	225243	54.860	12.264345	-56.478422	54.870	0.130	-0.190	-0.530	54.880	-1.500	-0.100																			1580079163.0	1.25	2.31
26/01/2020 22:52:44	26012020	260120	225244	54.910	12.264350	-56.478420	54.900	0.240	-0.470	-0.580	54.910	-1.800	-0.200																			1580079164.0	0.86	1.59
26/01/2020 22:52:45	26012020	260120	225245	54.860	12.264350	-56.478418	54.820	0.210	-0.420	-0.220	54.830	-1.800	0.100																			1580079165.0	0.53	0.98
26/01/2020 22:52:46	26012020	260120	225246	54.670	12.264347	-56.478415	54.610	-0.030	0.010	0.340	54.620	-1.400	0.700																			1580079166.0	0.85	1.57
26/01/2020 22:52:47	26012020	260120	225247	54.410	12.264343	-56.478415	54.350	-0.350	0.490	0.750	54.370	-0.900	1.100																			1580079167.0	0.96	1.78
26/01/2020 22:52:48	26012020	260120	225248	54.230	12.264340	-56.478415	54.220	-0.520	0.630	0.820	54.220	-0.700	1.200																			1580079168.0	0.55	1.02
26/01/2020 22:52:49	26012020	260120	225249	54.220	12.264342	-56.478417	54.240	-0.390	0.320	0.650	54.230	-1.000	1.100																			1580079169.0	0.33	0.61
26/01/2020 22:52:50	26012020	260120	225250	54.350	12.264345	-56.478417	54.420	-0.070	-0.240	0.390	54.390	-1.500	0.800																			1580079170.0	0.71	1.31
26/01/2020 22:52:51	26012020	260120	225251	54.610	12.264348	-56.478417	54.680	0.190	-0.690	0.150	54.660	-2.000	0.600																			1580079171.0	0.79	1.46
26/01/2020 22:52:52	26012020	260120	225252	54.830	12.264350	-56.478417	54.870	0.240	-0.680	0.160	54.860	-2.100	0.500																			1580079172.0	0.42	0.78
26/01/2020 22:52:53	26012020	260120	225253	54.900	12.264348	-56.478417	54.910	0.110	-0.300	0.500	54.890	-1.700	0.900																			1580079173.0	0.39	0.72
26/01/2020 22:52:54	26012020	260120	225254	54.770	12.264343	-56.478415	54.740	-0.070	0.040	1.000	54.720	-1.400	1.300																			1580079174.0	1.04	1.93
26/01/2020 22:52:55	26012020	260120	225255	54.450	12.264340	-56.478413	54.370	-0.140	0.040	1.370	54.370	-1.300	1.700																			1580079175.0	0.97	1.80
26/01/2020 22:52:56	26012020	260120	225256	54.090	12.264338	-56.478412	54.040	-0.010	-0.240	1.390	54.030	-1.600	1.800																			1580079176.0	0.34	0.63
26/01/2020 22:52:57	26012020	260120	225257	53.920	12.264342	-56.478412	53.950	0.320	-0.640	0.930	53.930	-2.000	1.400																			1580079177.0	0.63	1.17
26/01/2020 22:52:58	26012020	260120	225258	54.040	12.264347	-56.478412	54.110	0.630	-0.780	0.190	54.090	-2.200	0.700																			1580079178.0	1.19	2.20
26/01/2020 22:52:59	26012020	260120	225259	54.270	12.264353	-56.478413	54.320	0.630	-0.350	-0.430	54.320	-1.800	0.000																			1580079179.0	1.26	2.33
26/01/2020 22:53:00	26012020	260120	225300	54.440	12.264355	-56.478417	54.450	0.180	0.570	-0.650	54.470	-0.900	-0.200	1015.00	26.00	26.10	20.90	20.90	-1.00	73.00	73.00	379.00	25.10	359.00	4.00	54.00	3.70	15	3821.00	27.70	27.70	1580079180.0	0.85	1.57
26/01/2020 22:53:01	26012020	260120	225301	54.500	12.264353	-56.478420	54.480	-0.510	1.350	-0.490	54.500	-0.100	-0.100																			1580079181.0	0.81	1.50
26/01/2020 22:53:02	26012020	260120	225302	54.500	12.264350	-56.478422	54.490	-1.020	1.260	-0.110	54.500	-0.100	0.300																			1580079182.0	0.90	1.67
26/01/2020 22:53:03	26012020	260120	225303	54.550	12.264347	-56.478420	54.560	-1.010	0.240	0.300	54.560	-1.000	0.700																			1580079183.0	0.71	1.31
26/01/2020 22:53:04	26012020	260120	225304	54.610	12.264347	-56.478417	54.630	-0.460	-1.020	0.740	54.620	-2.300	1.100																			1580079184.0	1.02	1.89
26/01/2020 22:53:05	26012020	260120	225305	54.590	12.264345	-56.478410	54.590	0.290	-1.650	1.210	54.570	-3.000	1.500																			1580079185.0	1.16	2.15
26/01/2020 22:53:06	26012020	260120	225306	54.420	12.264343	-56.478407	54.390	0.790	-1.380	1.560	54.380	-2.800	1.900																			1580079186.0	0.77	1.43
26/01/2020 22:53:07	26012020	260120	225307	54.220	12.264342	-56.478408	54.200	0.830	-0.590	1.560	54.180	-2.100	2.000																			1580079187.0	0.38	0.70
26/01/2020 22:53:08	26012020	260120	225308	54.090	12.264342	-56.478412	54.110	0.470	0.240	1.200	54.080	-1.200	1.700																			1580079188.0	0.72	1.33
26/01/2020 22:53:09	26012020	260120	225309	54.110	12.264343	-56.478415	54.180	0.020	0.710	0.630	54.140	-0.700	1.100																			1580079189.0	1.03	1.91
26/01/2020 22:53:10	26012020	260120	225310	54.340	12.264347	-56.478418	54.460	-0.240	0.590	-0.020	54.420	-0.800	0.500																			1580079190.0	0.94	1.74
26/01/2020 22:53:11	26012020	260120	225311	54.750	12.264350	-56.478420	54.840	-0.240	0.070	-0.540	54.820	-1.300	-0.100																			1580079191.0	0.69	1.28
26/01/2020 22:53:12	26012020	260120	225312	55.010	12.264352	-56.478417	55.020	-0.140	-0.290	-0.680	55.030	-1.700	-0.300																			1580079192.0	0.63	1.17
26/01/2020 22:53:13	26012020	260120	225313	54.950	12.264352	-56.478415	54.870	-0.150	-0.190	-0.450	54.900	-1.600	-0.100																			1580079193.0	0.54	1.00
26/01/2020 22:53:14	26012020	260120	225314	54.670	12.264348	-56.478415	54.590	-0.230	0.080	-0.100	54.620	-1.300	0.300																			1580079194.0	0.55	1.02
26/01/2020 22:53:15	26012020	260120	225315	54.450	12.264347	-56.478415	54.410	-0.180	0.100	0.150	54.420	-1.300	0.500																			1580079195.0	0.45	0.83
26/01/2020 22:53:16	26012020	260120	225316	54.420	12.264348	-56.478417	54.450	0.110	-0.160	0.300	54.440	-1.500	0.700																			1580079196.0	0.31	0.57
26/01/2020 22:53:17	26012020	260120	225317	54.530	12.264348	-56.478417	54.630	0.390	-0.420	0.460	54.560	-1.800	0.800																			1580079197.0	0.23	0.43
26/01/2020 22:53:18	26012020	260120	225318	54.730	12.264348	-56.478417	54.790	0.350	-0.440	0.630	54.760	-1.800	1.000																			1580079198.0	0.22	0.41
26/01/2020 22:53:19	26012020	260120	225319	54.860	12.264347	-56.478415	54.910	-0.030	-0.230	0.830	54.880	-1.600	1.200																			1580079199.0	0.28	0.52
26/01/2020 22:53:20	26012020	260120	225320	54.990	12.264345	-56.478415	55.060	-0.370	-0.050	1.000	55.030	-1.400	1.400																			1580079200.0	0.41	0.76
26/01/2020 22:53:21	26012020	260120	225321	55.160	12.264343	-56.478415	55.220	-0.390	-0.090	1.050	55.200	-1.500	1.400																			1580079201.0	0.42	0.78
26/01/2020 22:53:22	26012020	260120	225322	55.250	12.264342	-56.478413	55.260	-0.160	-0.160	1.040	55.250	-1.500	1.400																			1580079202.0	0.43	0.80
26/01/2020 22:53:23	26012020	260120	225323	55.150	12.264342	-56.478413	55.110	0.110	-0.070	1.010	55.110	-1.500	1.400																			1580079203.0	0.31	0.57
26/01/2020 22:53:24	26012020	260120	225324	54.970	12.264342	-56.478413	54.940	0.280	0.010	0.830	54.940	-1.400	1.300																			1580079204.0	0.11	0.20
26/01/2020 22:53:25	26012020	260120	225325	54.910	12.264342	-56.478413	54.910	0.390	-0.150	0.400	54.920	-1.500	0.900																			1580079205.0	0.30	0.56
26/01/2020 22:53:26	26012020	260120	225326	55.030	12.264345	-56.478415	55.040	0.430	-0.400	-0.220	55.060	-1.800	0.300																			1580079206.0	0.79	1.46
26/01/2020 22:53:27	26012020	260120	225327	55.180	12.264350	-56.478417	55.200	0.360	-0.380	-0.770	55.210	-1.800	-0.300																			1580079207.0	1.07	1.98
26/01/2020 22:53:28	26012020	260120	225328	55.310	12.264353	-56.478418	55.260	0.080	-0.000	-0.940	55.310	-1.400	-0.500																			1580079208.0	0.92	1.70
26/01/2020 22:53:29	26012020	260120	225329	55.290	12.264355	-56.478422	55.230	-0.290	0.460	-0.670	55.280	-1.000	-0.300																			1580079209.0	0.62	1.15
26/01/2020 22:53:30	26012020	260120	225330	55.280	12.264352	-56.478423	55.270	-0.540	0.580	-0.060	55.290	-0.800	0.300																			1580079210.0	0.56	1.04
26/01/2020 22:53:31	26012020	260120	225331	55.390	12.264348	-56.478422	55.420	-0.570	0.220	0.630	55.420	-1.100	0.900																			1580079211.0	0.94	1.74
26/01/2020 22:53:32	26012020	260120	225332	55.570	12.264343	-56.478417	55.620	-0.420	-0.330	1.230	55.610	-1.600	1.600																			1580079212.0	1.31	2.43
26/01/2020 22:53:33	26012020	260120	225333	55.700	12.264340	-56.478413	55.720	-0.180	-0.720	1.660	55.710	-2.100	2.000																			1580079213.0	1.30	2.41
26/01/2020 22:53:34	26012020	260120	225334	55.680	12.264337	-56.478410	55.680	0.110	-0.840	1.810	55.660	-2.200	2.200																			1580079214.0	0.89	1.65
26/01/2020 22:53:35	26012020	260120	225335	55.570	12.264337	-56.478408	55.570	0.420	-0.670	1.650	55.550	-2.100	2.100																			1580079215.0	0.24	0.44
26/01/2020 22:53:36	26012020	260120	225336	55.500	12.264337	-56.478410	55.510	0.650	-0.320	1.170	55.490	-1.800	1.600																			1580079216.0	0.42	0.78
26/01/2020 22:53:37	26012020	260120	225337	55.530	12.264340	-56.478413	55.570	0.670	0.090	0.450	55.550	-1.300	0.900																			1580079217.0	0.91	1.69
26/01/2020 22:53:38	26012020	260120	225338	55.610	12.264343	-56.478417	55.610	0.400	0.450	-0.290	55.620	-1.000	0.200																			1580079218.0	1.12	2.07
26/01/2020 22:53:39	26012020	260120	225339	55.620	12.264347	-56.478422	55.570	-0.060	0.560	-0.840	55.610	-0.800	-0.400																			1580079219.0	1.05	1.94
26/01/2020 22:53:40	26012020	260120	225340	55.590	12.264350	-56.478423	55.550	-0.460	0.320	-1.110	55.590	-1.000	-0.700																			1580079220.0	0.81	1.50
26/01/2020 22:53:41	26012020	260120	225341	55.650	12.264352	-56.478423	55.630	-0.560	-0.190	-1.080	55.680	-1.500	-0.700																			1580079221.0	0.41	0.76
26/01/2020 22:53:42	26012020	260120	225342	55.820	12.264352	-56.478422	55.820	-0.370	-0.650	-0.740	55.850	-2.000	-0.400																			1580079222.0	0.46	0.85
26/01/2020 22:53:43	26012020	260120	225343	56.030	12.264350	-56.478418	56.050	-0.110	-0.790	-0.210	56.060	-2.200	0.100																			1580079223.0	0.91	1.69
26/01/2020 22:53:44	26012020	260120	225344	56.210	12.264345	-56.478415	56.230	0.020	-0.460	0.380	56.230	-1.900	0.700																			1580079224.0	1.11	2.06
26/01/2020 22:53:45	26012020	260120	225345	56.280	12.264340	-56.478413	56.280	0.020	0.180	0.940	56.280	-1.300	1.300																			1580079225.0	1.15	2.13
26/01/2020 22:53:46	26012020	260120	225346	56.210	12.264335	-56.478413	56.180	0.000	0.690	1.360	56.180	-0.700	1.700																			1580079226.0	1.12	2.07
26/01/2020 22:53:47	26012020	260120	225347	56.050	12.264332	-56.478415	56.020	0.070	0.580	1.500	56.020	-0.800	1.900																			1580079227.0	0.76	1.41
26/01/2020 22:53:48	26012020	260120	225348	55.930	12.264333	-56.478415	55.920	0.230	-0.160	1.290	55.920	-1.400	1.700																			1580079228.0	0.13	0.24
26/01/2020 22:53:49	26012020	260120	225349	55.950	12.264337	-56.478415	55.980	0.340	-0.960	0.830	55.980	-2.300	1.300																			1580079229.0	0.98	1.81
26/01/2020 22:53:50	26012020	260120	225350	56.130	12.264343	-56.478415	56.160	0.290	-1.130	0.360	56.170	-2.500	0.800																			1580079230.0	1.20	2.22
26/01/2020 22:53:51	26012020	260120	225351	56.280	12.264345	-56.478415	56.350	0.050	-0.590	0.080	56.330	-2.000	0.500																			1580079231.0	0.67	1.24
26/01/2020 22:53:52	26012020	260120	225352	56.520	12.264345	-56.478418	56.530	-0.220	0.160	-0.010	56.560	-1.300	0.400																			1580079232.0	0.52	0.96
26/01/2020 22:53:53	26012020	260120	225353	56.630	12.264342	-56.478420	56.630	-0.350	0.640	0.100	56.650	-0.800	0.500																			1580079233.0	0.74	1.37
26/01/2020 22:53:54	26012020	260120	225354	56.630	12.264338	-56.478420	56.580	-0.260	0.650	0.330	56.620	-0.700	0.700																			1580079234.0	0.76	1.41
26/01/2020 22:53:55	26012020	260120	225355	56.560	12.264335	-56.478417	56.510	-0.000	0.160	0.480	56.550	-1.100	0.900																			1580079235.0	0.70	1.30
26/01/2020 22:53:56	26012020	260120	225356	56.550	12.264335	-56.478415	56.550	0.220	-0.490	0.470	56.570	-1.800	0.900																			1580079236.0	0.58	1.07
26/01/2020 22:53:57	26012020	260120	225357	56.700	12.264337	-56.478413	56.720	0.230	-0.770	0.330	56.730	-2.100	0.800																			1580079237.0	0.59	1.09
26/01/2020 22:53:58	26012020	260120	225358	56.860	12.264340	-56.478413	56.860	0.020	-0.430	0.150	56.880	-1.900	0.600																			1580079238.0	0.51	0.94
26/01/2020 22:53:59	26012020	260120	225359	56.920	12.264340	-56.478417	56.890	-0.240	0.240	0.160	56.920	-1.200	0.600																			1580079239.0	0.68	1.26
26/01/2020 22:54:00	26012020	260120	225400	56.900	12.264338	-56.478420	56.880	-0.340	0.600	0.400	56.900	-0.800	0.800	1015.00	26.00	26.10	21.10	21.10	-1.00	74.00	74.00	379.00	25.10	11.00	4.30	67.00	4.00	15	3731.00	27.70	27.70	1580079240.0	0.81	1.50
26/01/2020 22:54:01	26012020	260120	225401	56.890	12.264337	-56.478420	56.880	-0.210	0.310	0.760	56.890	-1.000	1.100																			1580079241.0	0.56	1.04
26/01/2020 22:54:02	26012020	260120	225402	56.900	12.264333	-56.478418	56.920	0.030	-0.370	1.040	56.910	-1.700	1.400																			1580079242.0	0.64	1.19
26/01/2020 22:54:03	26012020	260120	225403	56.960	12.264333	-56.478415	56.970	0.210	-0.900	1.110	56.970	-2.200	1.500																			1580079243.0	0.80	1.48
26/01/2020 22:54:04	26012020	260120	225404	57.010	12.264333	-56.478412	57.010	0.240	-0.880	1.020	57.010	-2.300	1.400																			1580079244.0	0.50	0.93
26/01/2020 22:54:05	26012020	260120	225405	57.010	12.264333	-56.478412	57.010	0.180	-0.460	0.860	57.010	-1.900	1.300																			1580079245.0	0.06	0.11
26/01/2020 22:54:06	26012020	260120	225406	57.000	12.264333	-56.478413	56.990	0.150	-0.030	0.680	57.000	-1.400	1.100																			1580079246.0	0.34	0.63
26/01/2020 22:54:07	26012020	260120	225407	56.990	12.264333	-56.478415	56.970	0.170	0.190	0.460	56.990	-1.200	0.900																			1580079247.0	0.30	0.56
26/01/2020 22:54:08	26012020	260120	225408	57.000	12.264335	-56.478417	56.990	0.150	0.270	0.140	57.010	-1.100	0.600																			1580079248.0	0.32	0.59
26/01/2020 22:54:09	26012020	260120	225409	57.090	12.264337	-56.478417	57.070	-0.000	0.350	-0.210	57.100	-1.000	0.200																			1580079249.0	0.40	0.74
26/01/2020 22:54:10	26012020	260120	225410	57.180	12.264338	-56.478418	57.170	-0.280	0.480	-0.390	57.210	-0.900	0.000																			1580079250.0	0.39	0.72
26/01/2020 22:54:11	26012020	260120	225411	57.270	12.264338	-56.478420	57.240	-0.550	0.470	-0.300	57.280	-0.900	0.100																			1580079251.0	0.39	0.72
26/01/2020 22:54:12	26012020	260120	225412	57.350	12.264337	-56.478422	57.330	-0.630	0.120	-0.030	57.370	-1.200	0.300																			1580079252.0	0.30	0.56
26/01/2020 22:54:13	26012020	260120	225413	57.410	12.264335	-56.478420	57.380	-0.430	-0.430	0.390	57.410	-1.700	0.700																			1580079253.0	0.29	0.54
26/01/2020 22:54:14	26012020	260120	225414	57.350	12.264333	-56.478418	57.280	-0.030	-0.910	0.980	57.310	-2.200	1.300																			1580079254.0	0.76	1.41
26/01/2020 22:54:15	26012020	260120	225415	57.120	12.264330	-56.478415	57.070	0.350	-1.130	1.580	57.070	-2.500	1.900																			1580079255.0	1.11	2.06
26/01/2020 22:54:16	26012020	260120	225416	56.910	12.264327	-56.478412	56.900	0.560	-1.080	1.860	56.890	-2.500	2.200																			1580079256.0	0.97	1.80
26/01/2020 22:54:17	26012020	260120	225417	56.920	12.264325	-56.478410	56.990	0.600	-0.730	1.570	56.960	-2.200	2.000																			1580079257.0	0.35	0.65
26/01/2020 22:54:18	26012020	260120	225418	57.150	12.264327	-56.478410	57.200	0.490	-0.020	0.900	57.190	-1.500	1.400																			1580079258.0	0.46	0.85
26/01/2020 22:54:19	26012020	260120	225419	57.310	12.264330	-56.478413	57.310	0.220	0.840	0.240	57.330	-0.600	0.700																			1580079259.0	0.88	1.63
26/01/2020 22:54:20	26012020	260120	225420	57.330	12.264332	-56.478418	57.280	-0.150	1.280	-0.320	57.330	-0.100	0.100																			1580079260.0	1.01	1.87
26/01/2020 22:54:21	26012020	260120	225421	57.280	12.264333	-56.478422	57.220	-0.460	1.000	-0.730	57.270	-0.300	-0.300																			1580079261.0	0.84	1.56
26/01/2020 22:54:22	26012020	260120	225422	57.260	12.264337	-56.478422	57.210	-0.560	0.230	-0.900	57.270	-1.000	-0.500																			1580079262.0	0.60	1.11
26/01/2020 22:54:23	26012020	260120	225423	57.350	12.264338	-56.478422	57.350	-0.460	-0.490	-0.820	57.380	-1.800	-0.400																			1580079263.0	0.48	0.89
26/01/2020 22:54:24	26012020	260120	225424	57.530	12.264338	-56.478420	57.530	-0.250	-0.830	-0.500	57.560	-2.200	-0.200																			1580079264.0	0.38	0.70
26/01/2020 22:54:25	26012020	260120	225425	57.650	12.264335	-56.478418	57.630	-0.080	-0.840	0.050	57.660	-2.200	0.400																			1580079265.0	0.65	1.20
26/01/2020 22:54:26	26012020	260120	225426	57.600	12.264332	-56.478417	57.550	0.030	-0.670	0.730	57.570	-2.100	1.000																			1580079266.0	0.92	1.70
26/01/2020 22:54:27	26012020	260120	225427	57.380	12.264327	-56.478415	57.320	0.110	-0.400	1.440	57.330	-1.800	1.800																			1580079267.0	0.97	1.80
26/01/2020 22:54:28	26012020	260120	225428	57.130	12.264323	-56.478413	57.120	0.220	-0.150	1.930	57.100	-1.500	2.300																			1580079268.0	0.93	1.72
26/01/2020 22:54:29	26012020	260120	225429	57.040	12.264320	-56.478412	57.080	0.350	-0.130	1.920	57.040	-1.500	2.300																			1580079269.0	0.58	1.07
26/01/2020 22:54:30	26012020	260120	225430	57.170	12.264322	-56.478412	57.240	0.440	-0.210	1.390	57.220	-1.600	1.900																			1580079270.0	0.27	0.50
26/01/2020 22:54:31	26012020	260120	225431	57.420	12.264325	-56.478412	57.480	0.400	-0.140	0.600	57.470	-1.500	1.100																			1580079271.0	0.80	1.48
26/01/2020 22:54:32	26012020	260120	225432	57.660	12.264330	-56.478413	57.680	0.190	0.150	-0.140	57.690	-1.300	0.300																			1580079272.0	1.01	1.87
26/01/2020 22:54:33	26012020	260120	225433	57.790	12.264333	-56.478417	57.760	-0.130	0.470	-0.610	57.790	-0.900	-0.200																			1580079273.0	0.88	1.63
26/01/2020 22:54:34	26012020	260120	225434	57.780	12.264333	-56.478418	57.730	-0.430	0.650	-0.680	57.770	-0.700	-0.300																			1580079274.0	0.52	0.96
26/01/2020 22:54:35	26012020	260120	225435	57.680	12.264332	-56.478418	57.610	-0.590	0.550	-0.420	57.650	-0.800	-0.100																			1580079275.0	0.33	0.61
26/01/2020 22:54:36	26012020	260120	225436	57.520	12.264330	-56.478418	57.450	-0.530	0.110	0.000	57.490	-1.200	0.400																			1580079276.0	0.59	1.09
26/01/2020 22:54:37	26012020	260120	225437	57.400	12.264327	-56.478417	57.370	-0.260	-0.540	0.390	57.400	-1.800	0.800																			1580079277.0	0.63	1.17
26/01/2020 22:54:38	26012020	260120	225438	57.430	12.264327	-56.478413	57.430	0.120	-1.100	0.630	57.450	-2.400	1.000																			1580079278.0	0.47	0.87
26/01/2020 22:54:39	26012020	260120	225439	57.570	12.264328	-56.478412	57.580	0.450	-1.250	0.800	57.600	-2.600	1.200																			1580079279.0	0.40	0.74
26/01/2020 22:54:40	26012020	260120	225440	57.660	12.264328	-56.478412	57.650	0.580	-0.820	1.070	57.660	-2.300	1.400																			1580079280.0	0.21	0.39
26/01/2020 22:54:41	26012020	260120	225441	57.640	12.264325	-56.478412	57.590	0.400	-0.120	1.380	57.620	-1.600	1.700																			1580079281.0	0.57	1.06
26/01/2020 22:54:42	26012020	260120	225442	57.520	12.264322	-56.478410	57.490	0.040	0.420	1.540	57.510	-1.000	1.900																			1580079282.0	0.74	1.37
26/01/2020 22:54:43	26012020	260120	225443	57.480	12.264320	-56.478410	57.470	-0.220	0.570	1.430	57.480	-0.800	1.900																			1580079283.0	0.42	0.78
26/01/2020 22:54:44	26012020	260120	225444	57.560	12.264320	-56.478410	57.580	-0.180	0.360	0.980	57.590	-1.000	1.400																			1580079284.0	0.16	0.30
26/01/2020 22:54:45	26012020	260120	225445	57.700	12.264323	-56.478410	57.680	0.070	0.080	0.410	57.710	-1.300	0.900																			1580079285.0	0.56	1.04
26/01/2020 22:54:46	26012020	260120	225446	57.710	12.264325	-56.478410	57.630	0.210	-0.010	-0.080	57.700	-1.400	0.400																			1580079286.0	0.59	1.09
26/01/2020 22:54:47	26012020	260120	225447	57.560	12.264327	-56.478412	57.440	0.050	0.110	-0.440	57.510	-1.300	0.000																			1580079287.0	0.54	1.00
26/01/2020 22:54:48	26012020	260120	225448	57.320	12.264328	-56.478413	57.190	-0.340	0.260	-0.600	57.270	-1.100	-0.200																			1580079288.0	0.69	1.28
26/01/2020 22:54:49	26012020	260120	225449	57.160	12.264330	-56.478417	57.090	-0.600	0.120	-0.560	57.150	-1.200	-0.200																			1580079289.0	0.74	1.37
26/01/2020 22:54:50	26012020	260120	225450	57.210	12.264330	-56.478418	57.210	-0.500	-0.430	-0.360	57.240	-1.700	0.000																			1580079290.0	0.30	0.56
26/01/2020 22:54:51	26012020	260120	225451	57.450	12.264330	-56.478417	57.480	-0.060	-1.080	-0.040	57.510	-2.400	0.300																			1580079291.0	0.45	0.83
26/01/2020 22:54:52	26012020	260120	225452	57.670	12.264328	-56.478412	57.670	0.410	-1.280	0.470	57.680	-2.700	0.800																			1580079292.0	1.03	1.91
26/01/2020 22:54:53	26012020	260120	225453	57.600	12.264325	-56.478407	57.530	0.640	-0.800	1.210	57.540	-2.300	1.500																			1580079293.0	1.35	2.50
26/01/2020 22:54:54	26012020	260120	225454	57.250	12.264318	-56.478405	57.190	0.550	-0.020	1.850	57.170	-1.500	2.200																			1580079294.0	1.36	2.52
26/01/2020 22:54:55	26012020	260120	225455	56.980	12.264315	-56.478405	56.940	0.310	0.550	1.920	56.940	-0.900	2.300																			1580079295.0	0.82	1.52
26/01/2020 22:54:56	26012020	260120	225456	56.900	12.264317	-56.478407	56.970	0.080	0.680	1.300	56.940	-0.700	1.800																			1580079296.0	0.42	0.78
26/01/2020 22:54:57	26012020	260120	225457	57.050	12.264320	-56.478408	57.140	-0.080	0.550	0.470	57.090	-0.800	1.000																			1580079297.0	1.19	2.20
26/01/2020 22:54:58	26012020	260120	225458	57.240	12.264327	-56.478410	57.250	-0.260	0.320	-0.080	57.250	-1.000	0.400																			1580079298.0	1.19	2.20
26/01/2020 22:54:59	26012020	260120	225459	57.230	12.264328	-56.478412	57.180	-0.460	0.100	-0.260	57.200	-1.300	0.200																			1580079299.0	0.60	1.11
26/01/2020 22:55:00	26012020	260120	225500	57.070	12.264328	-56.478412	57.020	-0.610	-0.120	-0.180	57.040	-1.500	0.200	1015.10	26.00	26.10	20.70	20.80	-1.00	72.00	72.00	378.00	25.10	10.00	4.60	67.00	4.30	15	3634.00	27.70	27.70	1580079300.0	0.13	0.24
26/01/2020 22:55:01	26012020	260120	225501	56.910	12.264325	-56.478410	56.860	-0.590	-0.350	-0.010	56.880	-1.700	0.400																			1580079301.0	0.56	1.04
26/01/2020 22:55:02	26012020	260120	225502	56.780	12.264323	-56.478410	56.720	-0.330	-0.500	0.180	56.760	-1.900	0.600																			1580079302.0	0.59	1.09
26/01/2020 22:55:03	26012020	260120	225503	56.710	12.264322	-56.478410	56.680	0.080	-0.590	0.310	56.710	-1.900	0.700																			1580079303.0	0.36	0.67
26/01/2020 22:55:04	26012020	260120	225504	56.770	12.264322	-56.478410	56.760	0.500	-0.690	0.280	56.790	-2.000	0.700																			1580079304.0	0.04	0.07
26/01/2020 22:55:05	26012020	260120	225505	56.900	12.264323	-56.478410	56.880	0.760	-0.660	0.260	56.920	-2.000	0.700																			1580079305.0	0.41	0.76
26/01/2020 22:55:06	26012020	260120	225506	56.960	12.264325	-56.478410	56.910	0.760	-0.390	0.410	56.970	-1.800	0.800																			1580079306.0	0.35	0.65
26/01/2020 22:55:07	26012020	260120	225507	56.990	12.264325	-56.478408	56.950	0.520	0.000	0.770	56.990	-1.400	1.100																			1580079307.0	0.17	0.31
26/01/2020 22:55:08	26012020	260120	225508	57.000	12.264322	-56.478407	56.960	0.110	0.320	1.250	56.990	-1.100	1.600																			1580079308.0	0.71	1.31
26/01/2020 22:55:09	26012020	260120	225509	56.920	12.264318	-56.478405	56.860	-0.350	0.470	1.610	56.890	-0.900	2.000																			1580079309.0	0.94	1.74
26/01/2020 22:55:10	26012020	260120	225510	56.740	12.264315	-56.478403	56.680	-0.680	0.480	1.710	56.700	-0.900	2.100																			1580079310.0	0.62	1.15
26/01/2020 22:55:11	26012020	260120	225511	56.520	12.264315	-56.478403	56.460	-0.700	0.370	1.530	56.490	-1.000	2.000																			1580079311.0	0.06	0.11
26/01/2020 22:55:12	26012020	260120	225512	56.400	12.264317	-56.478405	56.390	-0.380	0.050	1.010	56.400	-1.300	1.500																			1580079312.0	0.36	0.67
26/01/2020 22:55:13	26012020	260120	225513	56.500	12.264318	-56.478405	56.500	0.070	-0.400	0.330	56.540	-1.700	0.800																			1580079313.0	0.57	1.06
26/01/2020 22:55:14	26012020	260120	225514	56.710	12.264322	-56.478407	56.700	0.310	-0.640	-0.300	56.750	-2.000	0.200																			1580079314.0	0.64	1.19
26/01/2020 22:55:15	26012020	260120	225515	56.840	12.264323	-56.478407	56.790	0.240	-0.460	-0.680	56.850	-1.900	-0.200																			1580079315.0	0.55	1.02
26/01/2020 22:55:16	26012020	260120	225516	56.830	12.264325	-56.478410	56.760	0.010	-0.090	-0.820	56.820	-1.500	-0.400																			1580079316.0	0.58	1.07
26/01/2020 22:55:17	26012020	260120	225517	56.760	12.264325	-56.478412	56.700	-0.140	0.060	-0.710	56.750	-1.300	-0.300																			1580079317.0	0.54	1.00
26/01/2020 22:55:18	26012020	260120	225518	56.730	12.264325	-56.478413	56.690	-0.110	-0.170	-0.280	56.730	-1.500	0.100																			1580079318.0	0.12	0.22
26/01/2020 22:55:19	26012020	260120	225519	56.750	12.264325	-56.478412	56.740	0.040	-0.480	0.390	56.760	-1.800	0.700																			1580079319.0	0.48	0.89
26/01/2020 22:55:20	26012020	260120	225520	56.770	12.264322	-56.478407	56.760	0.220	-0.550	1.220	56.770	-1.900	1.500																			1580079320.0	0.94	1.74
26/01/2020 22:55:21	26012020	260120	225521	56.740	12.264318	-56.478403	56.730	0.350	-0.410	1.930	56.730	-1.800	2.300																			1580079321.0	1.25	2.31
26/01/2020 22:55:22	26012020	260120	225522	56.680	12.264313	-56.478400	56.690	0.370	-0.240	2.240	56.680	-1.600	2.600																			1580079322.0	1.13	2.09
26/01/2020 22:55:23	26012020	260120	225523	56.610	12.264312	-56.478398	56.600	0.270	0.030	2.170	56.600	-1.400	2.600																			1580079323.0	0.56	1.04
26/01/2020 22:55:24	26012020	260120	225524	56.520	12.264312	-56.478398	56.520	0.040	0.400	1.770	56.510	-1.000	2.200																			1580079324.0	0.09	0.17
26/01/2020 22:55:25	26012020	260120	225525	56.530	12.264313	-56.478400	56.540	-0.270	0.650	1.060	56.540	-0.800	1.600																			1580079325.0	0.64	1.19
26/01/2020 22:55:26	26012020	260120	225526	56.610	12.264317	-56.478403	56.630	-0.530	0.630	0.170	56.630	-0.700	0.700																			1580079326.0	1.01	1.87
26/01/2020 22:55:27	26012020	260120	225527	56.730	12.264322	-56.478407	56.720	-0.620	0.350	-0.650	56.750	-1.000	-0.200																			1580079327.0	1.13	2.09
26/01/2020 22:55:28	26012020	260120	225528	56.850	12.264325	-56.478410	56.850	-0.480	-0.120	-1.210	56.890	-1.400	-0.800																			1580079328.0	0.94	1.74
26/01/2020 22:55:29	26012020	260120	225529	57.020	12.264328	-56.478412	57.030	-0.200	-0.610	-1.470	57.050	-1.900	-1.100																			1580079329.0	0.63	1.17
26/01/2020 22:55:30	26012020	260120	225530	57.130	12.264328	-56.478410	57.110	0.110	-0.910	-1.260	57.130	-2.300	-0.900																			1580079330.0	0.29	0.54
26/01/2020 22:55:31	26012020	260120	225531	57.060	12.264328	-56.478410	57.010	0.320	-0.930	-0.460	57.030	-2.300	-0.200																			1580079331.0	0.34	0.63
26/01/2020 22:55:32	26012020	260120	225532	56.880	12.264323	-56.478407	56.830	0.400	-0.770	0.690	56.840	-2.200	0.900																			1580079332.0	0.96	1.78
26/01/2020 22:55:33	26012020	260120	225533	56.720	12.264318	-56.478403	56.650	0.370	-0.470	1.790	56.680	-1.900	2.100																			1580079333.0	1.37	2.54
26/01/2020 22:55:34	26012020	260120	225534	56.510	12.264313	-56.478400	56.520	0.290	-0.110	2.530	56.490	-1.500	2.900																			1580079334.0	1.38	2.56
26/01/2020 22:55:35	26012020	260120	225535	56.450	12.264310	-56.478397	56.520	0.240	0.130	2.690	56.460	-1.300	3.100																			1580079335.0	0.97	1.80
26/01/2020 22:55:36	26012020	260120	225536	56.560	12.264310	-56.478395	56.640	0.210	0.280	2.290	56.590	-1.100	2.800																			1580079336.0	0.32	0.59
26/01/2020 22:55:37	26012020	260120	225537	56.720	12.264312	-56.478397	56.770	0.110	0.480	1.540	56.740	-0.900	2.000																			1580079337.0	0.51	0.94
26/01/2020 22:55:38	26012020	260120	225538	56.790	12.264315	-56.478398	56.810	-0.110	0.740	0.630	56.800	-0.700	1.200																			1580079338.0	0.96	1.78
26/01/2020 22:55:39	26012020	260120	225539	56.810	12.264320	-56.478403	56.790	-0.380	0.780	-0.320	56.810	-0.600	0.200																			1580079339.0	1.27	2.35
26/01/2020 22:55:40	26012020	260120	225540	56.820	12.264323	-56.478408	56.800	-0.560	0.400	-1.060	56.820	-0.900	-0.600																			1580079340.0	1.27	2.35
26/01/2020 22:55:41	26012020	260120	225541	56.810	12.264327	-56.478410	56.760	-0.540	-0.350	-1.350	56.800	-1.600	-0.900																			1580079341.0	0.96	1.78
26/01/2020 22:55:42	26012020	260120	225542	56.750	12.264330	-56.478410	56.690	-0.330	-1.040	-1.150	56.740	-2.400	-0.800																			1580079342.0	0.49	0.91
26/01/2020 22:55:43	26012020	260120	225543	56.680	12.264328	-56.478408	56.640	-0.050	-1.340	-0.590	56.670	-2.700	-0.300																			1580079343.0	0.44	0.81
26/01/2020 22:55:44	26012020	260120	225544	56.590	12.264327	-56.478405	56.540	0.140	-1.090	0.230	56.560	-2.500	0.500																			1580079344.0	0.86	1.59
26/01/2020 22:55:45	26012020	260120	225545	56.480	12.264322	-56.478403	56.410	0.230	-0.520	1.120	56.450	-2.000	1.400																			1580079345.0	1.17	2.17
26/01/2020 22:55:46	26012020	260120	225546	56.290	12.264315	-56.478402	56.270	0.320	0.030	1.890	56.270	-1.400	2.200																			1580079346.0	1.20	2.22
26/01/2020 22:55:47	26012020	260120	225547	56.200	12.264312	-56.478400	56.200	0.480	0.260	2.300	56.200	-1.100	2.700																			1580079347.0	1.00	1.85
26/01/2020 22:55:48	26012020	260120	225548	56.210	12.264310	-56.478397	56.230	0.600	0.180	2.210	56.230	-1.200	2.600																			1580079348.0	0.62	1.15
26/01/2020 22:55:49	26012020	260120	225549	56.280	12.264312	-56.478395	56.290	0.500	0.130	1.720	56.290	-1.300	2.200																			1580079349.0	0.48	0.89
26/01/2020 22:55:50	26012020	260120	225550	56.310	12.264315	-56.478397	56.280	0.180	0.320	1.000	56.310	-1.100	1.500																			1580079350.0	0.82	1.52
26/01/2020 22:55:51	26012020	260120	225551	56.230	12.264320	-56.478400	56.140	-0.230	0.610	0.240	56.200	-0.800	0.700																			1580079351.0	1.24	2.30
26/01/2020 22:55:52	26012020	260120	225552	56.020	12.264323	-56.478405	55.880	-0.540	0.710	-0.260	55.960	-0.700	0.200																			1580079352.0	1.37	2.54
26/01/2020 22:55:53	26012020	260120	225553	55.770	12.264327	-56.478410	55.650	-0.630	0.340	-0.520	55.730	-1.000	-0.100																			1580079353.0	1.03	1.91
26/01/2020 22:55:54	26012020	260120	225554	55.670	12.264328	-56.478410	55.620	-0.520	-0.460	-0.630	55.680	-1.700	-0.200																			1580079354.0	0.45	0.83
26/01/2020 22:55:55	26012020	260120	225555	55.770	12.264328	-56.478408	55.750	-0.350	-1.220	-0.520	55.790	-2.500	-0.100																			1580079355.0	0.51	0.94
26/01/2020 22:55:56	26012020	260120	225556	55.880	12.264328	-56.478405	55.840	-0.200	-1.400	-0.110	55.880	-2.800	0.200																			1580079356.0	0.70	1.30
26/01/2020 22:55:57	26012020	260120	225557	55.870	12.264325	-56.478403	55.800	-0.040	-0.870	0.510	55.850	-2.300	0.800																			1580079357.0	0.86	1.59
26/01/2020 22:55:58	26012020	260120	225558	55.720	12.264320	-56.478402	55.630	0.200	-0.040	1.130	55.670	-1.500	1.500																			1580079358.0	1.14	2.11
26/01/2020 22:55:59	26012020	260120	225559	55.480	12.264315	-56.478402	55.410	0.470	0.490	1.580	55.430	-0.900	1.900																			1580079359.0	1.05	1.94
26/01/2020 22:56:00	26012020	260120	225600	55.290	12.264313	-56.478400	55.290	0.680	0.430	1.650	55.280	-0.900	2.100	1015.00	26.00	26.10	20.70	20.80	-1.00	72.00	72.00	378.00	25.10	6.00	3.90	63.00	3.60	15	3797.00	27.70	27.70	1580079360.0	0.45	0.83
26/01/2020 22:56:01	26012020	260120	225601	55.310	12.264317	-56.478400	55.330	0.670	0.000	1.290	55.330	-1.300	1.800																			1580079361.0	0.52	0.96
26/01/2020 22:56:02	26012020	260120	225602	55.440	12.264322	-56.478400	55.460	0.370	-0.260	0.660	55.470	-1.600	1.100																			1580079362.0	1.15	2.13
26/01/2020 22:56:03	26012020	260120	225603	55.550	12.264327	-56.478402	55.530	-0.090	-0.100	0.060	55.560	-1.500	0.500																			1580079363.0	1.36	2.52
26/01/2020 22:56:04	26012020	260120	225604	55.600	12.264332	-56.478405	55.570	-0.440	0.270	-0.240	55.600	-1.100	0.200																			1580079364.0	1.14	2.11
26/01/2020 22:56:05	26012020	260120	225605	55.610	12.264332	-56.478408	55.570	-0.540	0.400	-0.190	55.610	-1.000	0.200																			1580079365.0	0.63	1.17
26/01/2020 22:56:06	26012020	260120	225606	55.610	12.264330	-56.478408	55.590	-0.440	0.180	0.090	55.620	-1.200	0.500																			1580079366.0	0.36	0.67
26/01/2020 22:56:07	26012020	260120	225607	55.660	12.264327	-56.478407	55.660	-0.300	-0.200	0.410	55.670	-1.500	0.800																			1580079367.0	0.73	1.35
26/01/2020 22:56:08	26012020	260120	225608	55.780	12.264325	-56.478403	55.810	-0.200	-0.520	0.620	55.810	-1.900	1.000																			1580079368.0	0.77	1.43
26/01/2020 22:56:09	26012020	260120	225609	55.880	12.264323	-56.478402	55.920	-0.110	-0.650	0.780	55.900	-2.000	1.200																			1580079369.0	0.46	0.85
26/01/2020 22:56:10	26012020	260120	225610	55.900	12.264322	-56.478402	55.880	0.060	-0.630	0.980	55.890	-2.000	1.400																			1580079370.0	0.17	0.31
26/01/2020 22:56:11	26012020	260120	225611	55.820	12.264323	-56.478402	55.790	0.290	-0.550	1.100	55.810	-1.900	1.500																			1580079371.0	0.03	0.06
26/01/2020 22:56:12	26012020	260120	225612	55.770	12.264323	-56.478402	55.770	0.470	-0.370	1.110	55.770	-1.800	1.500																			1580079372.0	0.21	0.39
26/01/2020 22:56:13	26012020	260120	225613	55.790	12.264325	-56.478403	55.820	0.480	-0.020	1.080	55.810	-1.400	1.500																			1580079373.0	0.25	0.46
26/01/2020 22:56:14	26012020	260120	225614	55.860	12.264325	-56.478403	55.880	0.290	0.420	1.040	55.870	-1.000	1.400																			1580079374.0	0.22	0.41
26/01/2020 22:56:15	26012020	260120	225615	55.920	12.264325	-56.478405	55.940	0.010	0.640	0.970	55.930	-0.700	1.400																			1580079375.0	0.32	0.59
26/01/2020 22:56:16	26012020	260120	225616	56.000	12.264325	-56.478407	56.010	-0.170	0.390	0.760	56.030	-0.900	1.200																			1580079376.0	0.18	0.33
26/01/2020 22:56:17	26012020	260120	225617	56.100	12.264327	-56.478405	56.070	-0.210	-0.120	0.480	56.100	-1.400	0.900																			1580079377.0	0.33	0.61
26/01/2020 22:56:18	26012020	260120	225618	56.060	12.264328	-56.478405	56.000	-0.190	-0.380	0.350	56.050	-1.800	0.800																			1580079378.0	0.55	1.02
26/01/2020 22:56:19	26012020	260120	225619	55.980	12.264330	-56.478405	55.940	-0.180	-0.330	0.330	55.980	-1.700	0.700																			1580079379.0	0.38	0.70
26/01/2020 22:56:20	26012020	260120	225620	56.030	12.264332	-56.478408	56.010	-0.170	-0.220	0.280	56.050	-1.600	0.700																			1580079380.0	0.41	0.76
26/01/2020 22:56:21	26012020	260120	225621	56.130	12.264332	-56.478408	56.150	-0.110	-0.200	0.340	56.160	-1.600	0.700																			1580079381.0	0.32	0.59
26/01/2020 22:56:22	26012020	260120	225622	56.220	12.264330	-56.478408	56.180	-0.020	-0.270	0.610	56.220	-1.600	1.000																			1580079382.0	0.14	0.26
26/01/2020 22:56:23	26012020	260120	225623	56.190	12.264328	-56.478407	56.130	0.010	-0.360	1.000	56.170	-1.700	1.400																			1580079383.0	0.60	1.11
26/01/2020 22:56:24	26012020	260120	225624	56.080	12.264327	-56.478403	56.030	-0.010	-0.370	1.280	56.050	-1.700	1.700																			1580079384.0	0.73	1.35
26/01/2020 22:56:25	26012020	260120	225625	55.930	12.264325	-56.478402	55.860	0.000	-0.190	1.340	55.890	-1.600	1.700																			1580079385.0	0.47	0.87
26/01/2020 22:56:26	26012020	260120	225626	55.740	12.264325	-56.478402	55.680	0.130	0.070	1.110	55.710	-1.300	1.600																			1580079386.0	0.02	0.04
26/01/2020 22:56:27	26012020	260120	225627	55.640	12.264328	-56.478403	55.590	0.310	0.210	0.560	55.640	-1.200	1.000																			1580079387.0	0.56	1.04
26/01/2020 22:56:28	26012020	260120	225628	55.670	12.264332	-56.478407	55.640	0.420	0.150	-0.110	55.700	-1.200	0.400																			1580079388.0	1.05	1.94
26/01/2020 22:56:29	26012020	260120	225629	55.780	12.264337	-56.478408	55.750	0.310	0.050	-0.620	55.790	-1.300	-0.200																			1580079389.0	1.25	2.31
26/01/2020 22:56:30	26012020	260120	225630	55.820	12.264342	-56.478410	55.750	-0.030	-0.000	-0.740	55.810	-1.400	-0.300																			1580079390.0	0.91	1.69
26/01/2020 22:56:31	26012020	260120	225631	55.730	12.264342	-56.478412	55.640	-0.480	0.010	-0.490	55.700	-1.400	-0.100																			1580079391.0	0.28	0.52
26/01/2020 22:56:32	26012020	260120	225632	55.620	12.264340	-56.478412	55.570	-0.780	-0.100	-0.070	55.610	-1.400	0.300																			1580079392.0	0.34	0.63
26/01/2020 22:56:33	26012020	260120	225633	55.640	12.264338	-56.478410	55.640	-0.730	-0.400	0.360	55.660	-1.700	0.700																			1580079393.0	0.62	1.15
26/01/2020 22:56:34	26012020	260120	225634	55.780	12.264337	-56.478407	55.830	-0.270	-0.680	0.830	55.810	-2.000	1.200																			1580079394.0	0.79	1.46
26/01/2020 22:56:35	26012020	260120	225635	55.890	12.264333	-56.478403	55.910	0.350	-0.680	1.350	55.890	-2.100	1.700																			1580079395.0	0.97	1.80
26/01/2020 22:56:36	26012020	260120	225636	55.820	12.264330	-56.478400	55.780	0.780	-0.410	1.770	55.770	-1.800	2.100																			1580079396.0	1.00	1.85
26/01/2020 22:56:37	26012020	260120	225637	55.570	12.264327	-56.478397	55.410	0.770	0.030	1.880	55.500	-1.400	2.300																			1580079397.0	0.66	1.22
26/01/2020 22:56:38	26012020	260120	225638	55.090	12.264327	-56.478398	55.020	0.350	0.440	1.540	55.030	-1.000	2.000																			1580079398.0	0.20	0.37
26/01/2020 22:56:39	26012020	260120	225639	54.860	12.264330	-56.478402	54.860	-0.160	0.570	0.780	54.840	-0.800	1.300																			1580079399.0	1.02	1.89
26/01/2020 22:56:40	26012020	260120	225640	54.930	12.264337	-56.478407	54.980	-0.470	0.340	-0.220	54.980	-1.000	0.300																			1580079400.0	1.56	2.89
26/01/2020 22:56:41	26012020	260120	225641	55.210	12.264343	-56.478410	55.250	-0.470	-0.090	-1.090	55.270	-1.400	-0.600																			1580079401.0	1.66	3.07
26/01/2020 22:56:42	26012020	260120	225642	55.450	12.264348	-56.478413	55.430	-0.240	-0.430	-1.460	55.480	-1.800	-1.000																			1580079402.0	1.19	2.20
26/01/2020 22:56:43	26012020	260120	225643	55.500	12.264348	-56.478413	55.430	0.010	-0.530	-1.210	55.490	-1.900	-0.900																			1580079403.0	0.20	0.37
26/01/2020 22:56:44	26012020	260120	225644	55.350	12.264345	-56.478410	55.260	0.120	-0.450	-0.490	55.310	-1.800	-0.200																			1580079404.0	0.82	1.52
26/01/2020 22:56:45	26012020	260120	225645	55.110	12.264340	-56.478408	55.030	0.060	-0.330	0.390	55.070	-1.700	0.700																			1580079405.0	1.22	2.26
26/01/2020 22:56:46	26012020	260120	225646	54.940	12.264337	-56.478407	54.910	0.020	-0.320	1.040	54.920	-1.700	1.400																			1580079406.0	0.95	1.76
26/01/2020 22:56:47	26012020	260120	225647	54.910	12.264335	-56.478405	54.940	0.100	-0.310	1.380	54.920	-1.700	1.800																			1580079407.0	0.38	0.70
26/01/2020 22:56:48	26012020	260120	225648	55.000	12.264335	-56.478405	55.060	0.240	-0.140	1.510	55.020	-1.500	1.900																			1580079408.0	0.14	0.26
26/01/2020 22:56:49	26012020	260120	225649	55.100	12.264335	-56.478405	55.150	0.260	0.210	1.520	55.120	-1.200	1.900																			1580079409.0	0.04	0.07
26/01/2020 22:56:50	26012020	260120	225650	55.120	12.264335	-56.478405	55.110	0.080	0.520	1.420	55.110	-0.900	1.800																			1580079410.0	0.33	0.61
26/01/2020 22:56:51	26012020	260120	225651	54.960	12.264332	-56.478405	54.880	-0.220	0.550	1.310	54.900	-0.800	1.700																			1580079411.0	0.41	0.76
26/01/2020 22:56:52	26012020	260120	225652	54.670	12.264332	-56.478405	54.600	-0.420	0.140	1.010	54.620	-1.200	1.500																			1580079412.0	0.13	0.24
26/01/2020 22:56:53	26012020	260120	225653	54.500	12.264335	-56.478407	54.480	-0.330	-0.540	0.320	54.500	-1.800	0.800																			1580079413.0	0.66	1.22
26/01/2020 22:56:54	26012020	260120	225654	54.580	12.264342	-56.478408	54.570	0.030	-1.000	-0.610	54.610	-2.300	-0.100																			1580079414.0	1.42	2.63
26/01/2020 22:56:55	26012020	260120	225655	54.710	12.264348	-56.478412	54.670	0.350	-0.820	-1.240	54.720	-2.200	-0.800																			1580079415.0	1.55	2.87
26/01/2020 22:56:56	26012020	260120	225656	54.680	12.264352	-56.478415	54.600	0.380	-0.160	-1.240	54.650	-1.600	-0.900																			1580079416.0	1.01	1.87
26/01/2020 22:56:57	26012020	260120	225657	54.570	12.264350	-56.478418	54.480	0.140	0.370	-0.770	54.550	-1.000	-0.400																			1580079417.0	0.66	1.22
26/01/2020 22:56:58	26012020	260120	225658	54.550	12.264347	-56.478418	54.530	-0.090	0.360	-0.210	54.570	-1.000	0.100																			1580079418.0	0.71	1.31
26/01/2020 22:56:59	26012020	260120	225659	54.640	12.264343	-56.478415	54.660	-0.160	-0.040	0.390	54.670	-1.400	0.700																			1580079419.0	0.86	1.59
26/01/2020 22:57:00	26012020	260120	225700	54.710	12.264342	-56.478410	54.680	-0.070	-0.340	1.050	54.700	-1.700	1.400	1015.00	26.10	26.10	21.00	21.00	-1.00	73.00	73.00	378.00	25.10	6.00	4.20	62.00	3.90	15	3849.00	27.70	27.70	1580079420.0	1.06	1.96
26/01/2020 22:57:01	26012020	260120	225701	54.620	12.264338	-56.478407	54.530	0.020	-0.310	1.610	54.590	-1.700	1.900																			1580079421.0	0.94	1.74
26/01/2020 22:57:02	26012020	260120	225702	54.350	12.264337	-56.478405	54.270	0.010	-0.000	1.880	54.300	-1.400	2.300																			1580079422.0	0.62	1.15
26/01/2020 22:57:03	26012020	260120	225703	54.100	12.264335	-56.478407	54.040	-0.070	0.260	1.780	54.060	-1.100	2.200																			1580079423.0	0.45	0.83
26/01/2020 22:57:04	26012020	260120	225704	53.940	12.264335	-56.478410	53.910	-0.070	0.150	1.290	53.930	-1.200	1.800																			1580079424.0	0.57	1.06
26/01/2020 22:57:05	26012020	260120	225705	54.000	12.264338	-56.478412	54.020	0.080	-0.370	0.420	54.040	-1.700	0.900																			1580079425.0	0.93	1.72
26/01/2020 22:57:06	26012020	260120	225706	54.210	12.264345	-56.478413	54.200	0.240	-0.720	-0.420	54.240	-2.100	0.100																			1580079426.0	1.27	2.35
26/01/2020 22:57:07	26012020	260120	225707	54.260	12.264348	-56.478415	54.170	0.150	-0.440	-0.900	54.250	-1.900	-0.500																			1580079427.0	0.97	1.80
26/01/2020 22:57:08	26012020	260120	225708	54.110	12.264350	-56.478417	54.010	-0.160	0.170	-1.020	54.080	-1.300	-0.600																			1580079428.0	0.61	1.13
26/01/2020 22:57:09	26012020	260120	225709	53.980	12.264348	-56.478420	53.910	-0.370	0.440	-0.990	53.970	-0.900	-0.600																			1580079429.0	0.77	1.43
26/01/2020 22:57:10	26012020	260120	225710	54.030	12.264348	-56.478422	54.010	-0.210	0.090	-0.900	54.060	-1.200	-0.500																			1580079430.0	0.36	0.67
26/01/2020 22:57:11	26012020	260120	225711	54.180	12.264350	-56.478422	54.160	0.180	-0.420	-0.590	54.210	-1.700	-0.300																			1580079431.0	0.32	0.59
26/01/2020 22:57:12	26012020	260120	225712	54.230	12.264350	-56.478418	54.160	0.470	-0.570	0.040	54.220	-1.900	0.300																			1580079432.0	0.49	0.91
26/01/2020 22:57:13	26012020	260120	225713	54.150	12.264348	-56.478417	54.050	0.430	-0.340	0.840	54.120	-1.700	1.100																			1580079433.0	0.63	1.17
26/01/2020 22:57:14	26012020	260120	225714	54.000	12.264343	-56.478415	53.960	0.080	-0.040	1.490	53.980	-1.400	1.800																			1580079434.0	0.88	1.63
26/01/2020 22:57:15	26012020	260120	225715	53.970	12.264340	-56.478415	53.960	-0.360	0.210	1.850	53.970	-1.200	2.200																			1580079435.0	0.76	1.41
26/01/2020 22:57:16	26012020	260120	225716	54.010	12.264338	-56.478415	54.030	-0.590	0.350	1.860	54.030	-1.000	2.300																			1580079436.0	0.48	0.89
26/01/2020 22:57:17	26012020	260120	225717	54.100	12.264337	-56.478417	54.130	-0.480	0.230	1.460	54.130	-1.100	1.900																			1580079437.0	0.25	0.46
26/01/2020 22:57:18	26012020	260120	225718	54.240	12.264338	-56.478417	54.250	-0.130	-0.140	0.740	54.260	-1.500	1.200																			1580079438.0	0.46	0.85
26/01/2020 22:57:19	26012020	260120	225719	54.330	12.264343	-56.478418	54.310	0.230	-0.490	-0.010	54.340	-1.800	0.500																			1580079439.0	0.92	1.70
26/01/2020 22:57:20	26012020	260120	225720	54.360	12.264347	-56.478422	54.300	0.430	-0.570	-0.590	54.360	-1.900	-0.100																			1580079440.0	1.02	1.89
26/01/2020 22:57:21	26012020	260120	225721	54.360	12.264350	-56.478423	54.290	0.440	-0.440	-0.980	54.360	-1.800	-0.600																			1580079441.0	0.83	1.54
26/01/2020 22:57:22	26012020	260120	225722	54.360	12.264352	-56.478427	54.280	0.290	-0.230	-1.090	54.360	-1.600	-0.700																			1580079442.0	0.57	1.06
26/01/2020 22:57:23	26012020	260120	225723	54.320	12.264352	-56.478427	54.240	0.090	-0.010	-0.890	54.310	-1.400	-0.500																			1580079443.0	0.29	0.54
26/01/2020 22:57:24	26012020	260120	225724	54.300	12.264352	-56.478428	54.250	-0.100	0.110	-0.540	54.310	-1.300	-0.200																			1580079444.0	0.16	0.30
26/01/2020 22:57:25	26012020	260120	225725	54.380	12.264350	-56.478427	54.400	-0.210	0.140	-0.170	54.420	-1.200	0.200																			1580079445.0	0.23	0.43
26/01/2020 22:57:26	26012020	260120	225726	54.590	12.264350	-56.478427	54.600	-0.230	0.140	0.240	54.630	-1.200	0.600																			1580079446.0	0.27	0.50
26/01/2020 22:57:27	26012020	260120	225727	54.750	12.264347	-56.478425	54.790	-0.170	0.080	0.710	54.780	-1.300	1.000																			1580079447.0	0.49	0.91
26/01/2020 22:57:28	26012020	260120	225728	54.920	12.264345	-56.478423	54.910	-0.110	-0.020	1.180	54.930	-1.400	1.500																			1580079448.0	0.77	1.43
26/01/2020 22:57:29	26012020	260120	225729	54.870	12.264342	-56.478422	54.820	-0.140	-0.150	1.510	54.840	-1.500	1.900																			1580079449.0	0.76	1.41
26/01/2020 22:57:30	26012020	260120	225730	54.670	12.264340	-56.478422	54.620	-0.160	-0.320	1.530	54.630	-1.700	1.900																			1580079450.0	0.29	0.54
26/01/2020 22:57:31	26012020	260120	225731	54.570	12.264342	-56.478422	54.600	-0.010	-0.560	1.090	54.590	-1.900	1.500																			1580079451.0	0.34	0.63
26/01/2020 22:57:32	26012020	260120	225732	54.790	12.264345	-56.478423	54.850	0.290	-0.730	0.270	54.860	-2.100	0.700																			1580079452.0	0.86	1.59
26/01/2020 22:57:33	26012020	260120	225733	55.140	12.264350	-56.478425	55.170	0.500	-0.480	-0.490	55.190	-1.900	-0.000																			1580079453.0	1.03	1.91
26/01/2020 22:57:34	26012020	260120	225734	55.310	12.264352	-56.478427	55.250	0.370	0.170	-0.890	55.310	-1.300	-0.500																			1580079454.0	0.68	1.26
26/01/2020 22:57:35	26012020	260120	225735	55.230	12.264352	-56.478430	55.120	-0.040	0.790	-0.960	55.190	-0.600	-0.600																			1580079455.0	0.60	1.11
26/01/2020 22:57:36	26012020	260120	225736	55.040	12.264350	-56.478432	54.950	-0.420	0.870	-0.870	55.010	-0.500	-0.500																			1580079456.0	0.62	1.15
26/01/2020 22:57:37	26012020	260120	225737	55.000	12.264350	-56.478433	54.970	-0.470	0.210	-0.860	55.020	-1.000	-0.500																			1580079457.0	0.19	0.35
26/01/2020 22:57:38	26012020	260120	225738	55.200	12.264353	-56.478432	55.200	-0.130	-0.810	-0.910	55.250	-2.100	-0.500																			1580079458.0	0.63	1.17
26/01/2020 22:57:39	26012020	260120	225739	55.430	12.264357	-56.478430	55.430	0.310	-1.380	-0.650	55.470	-2.700	-0.300																			1580079459.0	0.95	1.76
26/01/2020 22:57:40	26012020	260120	225740	55.570	12.264357	-56.478427	55.560	0.500	-1.050	0.000	55.590	-2.500	0.300																			1580079460.0	0.60	1.11
26/01/2020 22:57:41	26012020	260120	225741	55.600	12.264352	-56.478425	55.570	0.250	-0.100	0.770	55.600	-1.600	1.000																			1580079461.0	1.05	1.94
26/01/2020 22:57:42	26012020	260120	225742	55.540	12.264345	-56.478425	55.480	-0.230	0.810	1.400	55.510	-0.600	1.700																			1580079462.0	1.42	2.63
26/01/2020 22:57:43	26012020	260120	225743	55.420	12.264340	-56.478427	55.380	-0.540	1.090	1.660	55.410	-0.300	2.000																			1580079463.0	1.09	2.02
26/01/2020 22:57:44	26012020	260120	225744	55.450	12.264338	-56.478427	55.470	-0.440	0.540	1.370	55.490	-0.700	1.800																			1580079464.0	0.25	0.46
26/01/2020 22:57:45	26012020	260120	225745	55.740	12.264342	-56.478427	55.800	-0.040	-0.410	0.630	55.820	-1.700	1.100																			1580079465.0	0.71	1.31
26/01/2020 22:57:46	26012020	260120	225746	56.120	12.264347	-56.478425	56.150	0.300	-1.010	-0.120	56.170	-2.300	0.300																			1580079466.0	1.15	2.13
26/01/2020 22:57:47	26012020	260120	225747	56.280	12.264352	-56.478425	56.240	0.350	-0.880	-0.560	56.280	-2.300	-0.200																			1580079467.0	0.79	1.46
26/01/2020 22:57:48	26012020	260120	225748	56.160	12.264352	-56.478427	56.070	0.180	-0.330	-0.640	56.120	-1.800	-0.300																			1580079468.0	0.42	0.78
26/01/2020 22:57:49	26012020	260120	225749	56.000	12.264350	-56.478430	55.890	0.020	0.120	-0.560	55.960	-1.300	-0.200																			1580079469.0	0.56	1.04
26/01/2020 22:57:50	26012020	260120	225750	55.890	12.264348	-56.478430	55.850	-0.010	0.180	-0.510	55.890	-1.200	-0.100																			1580079470.0	0.32	0.59
26/01/2020 22:57:51	26012020	260120	225751	55.940	12.264348	-56.478430	55.970	0.040	0.010	-0.510	55.970	-1.300	-0.100																			1580079471.0	0.12	0.22
26/01/2020 22:57:52	26012020	260120	225752	56.180	12.264350	-56.478428	56.200	0.070	-0.110	-0.560	56.230	-1.500	-0.200																			1580079472.0	0.33	0.61
26/01/2020 22:57:53	26012020	260120	225753	56.450	12.264352	-56.478428	56.460	0.070	-0.120	-0.500	56.490	-1.500	-0.100																			1580079473.0	0.27	0.50
26/01/2020 22:57:54	26012020	260120	225754	56.660	12.264352	-56.478428	56.670	0.070	-0.090	-0.110	56.700	-1.500	0.200																			1580079474.0	0.07	0.13
26/01/2020 22:57:55	26012020	260120	225755	56.770	12.264348	-56.478427	56.770	0.030	-0.040	0.560	56.780	-1.400	0.800																			1580079475.0	0.63	1.17
26/01/2020 22:57:56	26012020	260120	225756	56.770	12.264345	-56.478425	56.750	-0.140	0.100	1.230	56.750	-1.300	1.500																			1580079476.0	1.15	2.13
26/01/2020 22:57:57	26012020	260120	225757	56.630	12.264340	-56.478422	56.580	-0.410	0.230	1.610	56.600	-1.100	1.900																			1580079477.0	1.11	2.06
26/01/2020 22:57:58	26012020	260120	225758	56.450	12.264337	-56.478422	56.420	-0.500	0.130	1.620	56.420	-1.200	2.000																			1580079478.0	0.60	1.11
26/01/2020 22:57:59	26012020	260120	225759	56.420	12.264337	-56.478423	56.440	-0.210	-0.370	1.210	56.440	-1.700	1.700																			1580079479.0	0.17	0.31
26/01/2020 22:58:00	26012020	260120	225800	56.660	12.264342	-56.478423	56.730	0.340	-0.920	0.510	56.730	-2.200	1.000	1015.00	26.10	26.10	21.10	21.10	-1.00	74.00	74.00	378.00	25.10	8.00	4.20	64.00	3.90	15	3677.00	27.70	27.70	1580079480.0	0.79	1.46
26/01/2020 22:58:01	26012020	260120	225801	56.920	12.264345	-56.478422	56.910	0.680	-0.890	-0.120	56.940	-2.300	0.300																			1580079481.0	0.97	1.80
26/01/2020 22:58:02	26012020	260120	225802	56.890	12.264348	-56.478423	56.800	0.480	-0.200	-0.540	56.850	-1.700	-0.100																			1580079482.0	0.53	0.98
26/01/2020 22:58:03	26012020	260120	225803	56.720	12.264348	-56.478427	56.610	-0.040	0.490	-0.800	56.690	-0.900	-0.400																			1580079483.0	0.78	1.44
26/01/2020 22:58:04	26012020	260120	225804	56.580	12.264348	-56.478430	56.540	-0.370	0.570	-0.950	56.580	-0.800	-0.600																			1580079484.0	0.73	1.35
26/01/2020 22:58:05	26012020	260120	225805	56.630	12.264348	-56.478432	56.620	-0.210	0.050	-0.900	56.650	-1.200	-0.500																			1580079485.0	0.22	0.41
26/01/2020 22:58:06	26012020	260120	225806	56.740	12.264350	-56.478428	56.760	0.190	-0.560	-0.650	56.770	-1.900	-0.300																			1580079486.0	0.66	1.22
26/01/2020 22:58:07	26012020	260120	225807	56.840	12.264350	-56.478425	56.860	0.370	-0.640	-0.240	56.860	-2.000	0.100																			1580079487.0	0.83	1.54
26/01/2020 22:58:08	26012020	260120	225808	56.870	12.264347	-56.478422	56.860	0.130	-0.080	0.250	56.860	-1.500	0.500																			1580079488.0	0.64	1.19
26/01/2020 22:58:09	26012020	260120	225809	56.760	12.264343	-56.478423	56.710	-0.330	0.640	0.720	56.730	-0.800	1.000																			1580079489.0	0.92	1.70
26/01/2020 22:58:10	26012020	260120	225810	56.560	12.264338	-56.478425	56.520	-0.610	0.880	1.070	56.530	-0.500	1.400																			1580079490.0	1.02	1.89
26/01/2020 22:58:11	26012020	260120	225811	56.410	12.264337	-56.478427	56.390	-0.490	0.340	1.170	56.390	-0.900	1.500																			1580079491.0	0.50	0.93
26/01/2020 22:58:12	26012020	260120	225812	56.390	12.264338	-56.478425	56.410	-0.040	-0.700	0.980	56.420	-1.900	1.400																			1580079492.0	0.34	0.63
26/01/2020 22:58:13	26012020	260120	225813	56.560	12.264342	-56.478423	56.610	0.420	-1.500	0.580	56.610	-2.800	1.000																			1580079493.0	0.90	1.67
26/01/2020 22:58:14	26012020	260120	225814	56.740	12.264345	-56.478422	56.760	0.580	-1.400	0.230	56.760	-2.800	0.600																			1580079494.0	0.79	1.46
26/01/2020 22:58:15	26012020	260120	225815	56.750	12.264345	-56.478422	56.680	0.350	-0.420	0.060	56.730	-1.900	0.400																			1580079495.0	0.22	0.41
26/01/2020 22:58:16	26012020	260120	225816	56.550	12.264343	-56.478425	56.480	-0.030	0.650	-0.000	56.510	-0.800	0.400																			1580079496.0	0.85	1.57
26/01/2020 22:58:17	26012020	260120	225817	56.410	12.264340	-56.478428	56.350	-0.260	1.010	-0.120	56.390	-0.400	0.300																			1580079497.0	0.86	1.59
26/01/2020 22:58:18	26012020	260120	225818	56.400	12.264340	-56.478430	56.390	-0.180	0.600	-0.350	56.420	-0.700	0.100																			1580079498.0	0.17	0.31
26/01/2020 22:58:19	26012020	260120	225819	56.550	12.264343	-56.478428	56.560	0.060	-0.070	-0.630	56.590	-1.400	-0.200																			1580079499.0	0.55	1.02
26/01/2020 22:58:20	26012020	260120	225820	56.750	12.264345	-56.478427	56.750	0.180	-0.510	-0.810	56.790	-1.800	-0.400																			1580079500.0	0.62	1.15
26/01/2020 22:58:21	26012020	260120	225821	56.900	12.264347	-56.478427	56.880	0.040	-0.480	-0.740	56.910	-1.900	-0.400																			1580079501.0	0.30	0.56
26/01/2020 22:58:22	26012020	260120	225822	56.890	12.264347	-56.478427	56.840	-0.240	-0.130	-0.360	56.870	-1.500	-0.000																			1580079502.0	0.27	0.50
26/01/2020 22:58:23	26012020	260120	225823	56.710	12.264343	-56.478428	56.650	-0.410	0.220	0.320	56.660	-1.200	0.600																			1580079503.0	0.60	1.11
26/01/2020 22:58:24	26012020	260120	225824	56.460	12.264340	-56.478428	56.410	-0.340	0.200	1.060	56.420	-1.100	1.400																			1580079504.0	0.91	1.69
26/01/2020 22:58:25	26012020	260120	225825	56.350	12.264335	-56.478427	56.370	-0.100	-0.250	1.520	56.370	-1.500	1.900																			1580079505.0	1.09	2.02
26/01/2020 22:58:26	26012020	260120	225826	56.540	12.264333	-56.478422	56.600	0.160	-0.820	1.470	56.600	-2.100	1.900																			1580079506.0	0.99	1.83
26/01/2020 22:58:27	26012020	260120	225827	56.850	12.264333	-56.478420	56.900	0.340	-1.000	1.050	56.900	-2.400	1.500																			1580079507.0	0.62	1.15
26/01/2020 22:58:28	26012020	260120	225828	57.050	12.264335	-56.478420	57.040	0.400	-0.550	0.420	57.070	-2.000	0.900																			1580079508.0	0.44	0.81
26/01/2020 22:58:29	26012020	260120	225829	57.050	12.264337	-56.478423	56.990	0.390	0.190	-0.170	57.040	-1.300	0.300																			1580079509.0	0.85	1.57
26/01/2020 22:58:30	26012020	260120	225830	56.940	12.264338	-56.478427	56.860	0.290	0.670	-0.560	56.920	-0.700	-0.100																			1580079510.0	0.95	1.76
26/01/2020 22:58:31	26012020	260120	225831	56.830	12.264340	-56.478430	56.770	0.100	0.640	-0.700	56.820	-0.700	-0.300																			1580079511.0	0.63	1.17
26/01/2020 22:58:32	26012020	260120	225832	56.830	12.264342	-56.478430	56.810	-0.150	0.270	-0.690	56.850	-1.000	-0.300																			1580079512.0	0.34	0.63
26/01/2020 22:58:33	26012020	260120	225833	56.990	12.264343	-56.478428	57.010	-0.380	-0.150	-0.680	57.040	-1.500	-0.300																			1580079513.0	0.29	0.54
26/01/2020 22:58:34	26012020	260120	225834	57.220	12.264343	-56.478428	57.220	-0.490	-0.360	-0.520	57.260	-1.700	-0.200																			1580079514.0	0.20	0.37
26/01/2020 22:58:35	26012020	260120	225835	57.340	12.264342	-56.478427	57.320	-0.430	-0.320	-0.070	57.350	-1.700	0.200																			1580079515.0	0.44	0.81
26/01/2020 22:58:36	26012020	260120	225836	57.300	12.264337	-56.478425	57.260	-0.220	-0.290	0.610	57.280	-1.600	0.900																			1580079516.0	0.96	1.78
26/01/2020 22:58:37	26012020	260120	225837	57.170	12.264332	-56.478423	57.180	0.020	-0.370	1.260	57.160	-1.700	1.600																			1580079517.0	1.23	2.28
26/01/2020 22:58:38	26012020	260120	225838	57.140	12.264328	-56.478420	57.200	0.150	-0.430	1.530	57.150	-1.800	1.900																			1580079518.0	1.06	1.96
26/01/2020 22:58:39	26012020	260120	225839	57.230	12.264327	-56.478418	57.340	0.170	-0.290	1.240	57.260	-1.700	1.700																			1580079519.0	0.40	0.74
26/01/2020 22:58:40	26012020	260120	225840	57.410	12.264328	-56.478420	57.460	0.200	0.020	0.660	57.430	-1.400	1.100																			1580079520.0	0.44	0.81
26/01/2020 22:58:41	26012020	260120	225841	57.490	12.264330	-56.478423	57.520	0.390	0.130	0.010	57.500	-1.200	0.500																			1580079521.0	0.85	1.57
26/01/2020 22:58:42	26012020	260120	225842	57.550	12.264333	-56.478425	57.570	0.650	-0.190	-0.570	57.560	-1.500	-0.100																			1580079522.0	0.77	1.43
26/01/2020 22:58:43	26012020	260120	225843	57.610	12.264338	-56.478425	57.610	0.730	-0.580	-0.940	57.620	-1.900	-0.500																			1580079523.0	0.89	1.65
26/01/2020 22:58:44	26012020	260120	225844	57.610	12.264342	-56.478423	57.580	0.400	-0.440	-0.980	57.590	-1.800	-0.600																			1580079524.0	0.80	1.48
26/01/2020 22:58:45	26012020	260120	225845	57.500	12.264342	-56.478425	57.490	-0.260	0.270	-0.700	57.480	-1.200	-0.400																			1580079525.0	0.23	0.43
26/01/2020 22:58:46	26012020	260120	225846	57.470	12.264340	-56.478427	57.510	-0.890	0.930	-0.280	57.490	-0.500	0.000																			1580079526.0	0.74	1.37
26/01/2020 22:58:47	26012020	260120	225847	57.660	12.264335	-56.478428	57.760	-1.180	0.930	0.110	57.720	-0.400	0.400																			1580079527.0	0.98	1.81
26/01/2020 22:58:48	26012020	260120	225848	57.980	12.264332	-56.478427	58.110	-1.030	0.270	0.560	58.040	-1.000	0.900																			1580079528.0	0.93	1.72
26/01/2020 22:58:49	26012020	260120	225849	58.200	12.264328	-56.478422	58.280	-0.530	-0.510	1.120	58.220	-1.800	1.400																			1580079529.0	1.20	2.22
26/01/2020 22:58:50	26012020	260120	225850	58.170	12.264323	-56.478417	58.200	0.080	-0.950	1.660	58.130	-2.300	2.000																			1580079530.0	1.40	2.59
26/01/2020 22:58:51	26012020	260120	225851	57.920	12.264318	-56.478413	57.920	0.600	-1.020	1.920	57.860	-2.400	2.300																			1580079531.0	1.19	2.20
26/01/2020 22:58:52	26012020	260120	225852	57.620	12.264317	-56.478413	57.620	0.910	-0.890	1.650	57.570	-2.200	2.100																			1580079532.0	0.48	0.89
26/01/2020 22:58:53	26012020	260120	225853	57.490	12.264320	-56.478415	57.540	0.980	-0.690	0.770	57.490	-2.100	1.300																			1580079533.0	0.71	1.31
26/01/2020 22:58:54	26012020	260120	225854	57.670	12.264327	-56.478418	57.770	0.820	-0.370	-0.470	57.740	-1.800	0.000																			1580079534.0	1.82	3.37
26/01/2020 22:58:55	26012020	260120	225855	58.040	12.264337	-56.478423	58.110	0.490	0.180	-1.420	58.110	-1.200	-1.000																			1580079535.0	2.17	4.02
26/01/2020 22:58:56	26012020	260120	225856	58.310	12.264342	-56.478428	58.330	0.020	0.850	-1.570	58.340	-0.600	-1.200																			1580079536.0	1.38	2.56
26/01/2020 22:58:57	26012020	260120	225857	58.370	12.264340	-56.478428	58.350	-0.520	1.250	-0.950	58.340	-0.100	-0.700																			1580079537.0	0.47	0.87
26/01/2020 22:58:58	26012020	260120	225858	58.190	12.264333	-56.478427	58.160	-0.990	1.030	0.090	58.130	-0.300	0.300																			1580079538.0	1.51	2.80
26/01/2020 22:58:59	26012020	260120	225859	57.940	12.264325	-56.478422	57.950	-1.150	0.180	1.000	57.900	-1.000	1.300																			1580079539.0	1.92	3.56
26/01/2020 22:59:00	26012020	260120	225900	57.850	12.264320	-56.478417	57.950	-0.840	-0.860	1.480	57.870	-2.100	1.800	1015.00	26.00	26.10	21.00	21.00	-1.00	73.00	73.00	378.00	25.10	10.00	4.10	68.00	3.70	15	3688.00	27.60	27.60	1580079540.0	1.55	2.87
26/01/2020 22:59:01	26012020	260120	225901	57.980	12.264318	-56.478413	58.120	-0.160	-1.470	1.610	58.020	-2.800	2.000																			1580079541.0	0.97	1.80
26/01/2020 22:59:02	26012020	260120	225902	58.150	12.264318	-56.478410	58.260	0.540	-1.340	1.480	58.180	-2.700	1.900																			1580079542.0	0.37	0.69
26/01/2020 22:59:03	26012020	260120	225903	58.210	12.264320	-56.478412	58.260	0.890	-0.620	1.110	58.210	-2.100	1.500																			1580079543.0	0.29	0.54
26/01/2020 22:59:04	26012020	260120	225904	58.110	12.264320	-56.478417	58.110	0.780	0.230	0.670	58.070	-1.200	1.100																			1580079544.0	0.81	1.50
26/01/2020 22:59:05	26012020	260120	225905	57.940	12.264322	-56.478420	57.880	0.380	0.690	0.260	57.900	-0.700	0.700																			1580079545.0	0.90	1.67
26/01/2020 22:59:06	26012020	260120	225906	57.720	12.264323	-56.478423	57.730	-0.020	0.490	-0.210	57.700	-0.800	0.200																			1580079546.0	0.75	1.39
26/01/2020 22:59:07	26012020	260120	225907	57.740	12.264327	-56.478423	57.800	-0.220	-0.120	-0.730	57.770	-1.400	-0.300																			1580079547.0	0.91	1.69
26/01/2020 22:59:08	26012020	260120	225908	57.930	12.264332	-56.478423	57.990	-0.240	-0.500	-1.040	57.970	-1.800	-0.600																			1580079548.0	0.97	1.80
26/01/2020 22:59:09	26012020	260120	225909	58.090	12.264333	-56.478422	58.110	-0.170	-0.350	-0.910	58.110	-1.700	-0.600																			1580079549.0	0.38	0.70
26/01/2020 22:59:10	26012020	260120	225910	58.060	12.264330	-56.478422	58.020	-0.110	0.090	-0.330	58.020	-1.300	-0.100																			1580079550.0	0.62	1.15
26/01/2020 22:59:11	26012020	260120	225911	57.810	12.264325	-56.478420	57.770	-0.060	0.280	0.420	57.740	-1.100	0.700																			1580079551.0	1.21	2.24
26/01/2020 22:59:12	26012020	260120	225912	57.510	12.264320	-56.478418	57.500	-0.020	0.020	1.000	57.460	-1.300	1.300																			1580079552.0	1.09	2.02
26/01/2020 22:59:13	26012020	260120	225913	57.310	12.264318	-56.478417	57.340	0.030	-0.380	1.290	57.280	-1.700	1.600																			1580079553.0	0.58	1.07
26/01/2020 22:59:14	26012020	260120	225914	57.250	12.264320	-56.478415	57.320	0.050	-0.520	1.300	57.260	-1.900	1.700																			1580079554.0	0.38	0.70
26/01/2020 22:59:15	26012020	260120	225915	57.400	12.264320	-56.478415	57.520	-0.010	-0.330	1.090	57.450	-1.700	1.500																			1580079555.0	0.14	0.26
26/01/2020 22:59:16	26012020	260120	225916	57.670	12.264320	-56.478415	57.760	-0.120	-0.010	0.750	57.720	-1.400	1.200																			1580079556.0	0.24	0.44
26/01/2020 22:59:17	26012020	260120	225917	57.830	12.264318	-56.478417	57.840	-0.180	0.200	0.430	57.830	-1.200	0.800																			1580079557.0	0.33	0.61
26/01/2020 22:59:18	26012020	260120	225918	57.730	12.264318	-56.478418	57.670	-0.130	0.220	0.180	57.680	-1.100	0.600																			1580079558.0	0.22	0.41
26/01/2020 22:59:19	26012020	260120	225919	57.450	12.264320	-56.478418	57.360	0.020	0.030	-0.090	57.390	-1.300	0.300																			1580079559.0	0.27	0.50
26/01/2020 22:59:20	26012020	260120	225920	57.170	12.264322	-56.478420	57.110	0.210	-0.250	-0.330	57.120	-1.600	0.100																			1580079560.0	0.60	1.11
26/01/2020 22:59:21	26012020	260120	225921	57.030	12.264325	-56.478422	57.040	0.360	-0.540	-0.520	57.030	-1.900	-0.100																			1580079561.0	0.71	1.31
26/01/2020 22:59:22	26012020	260120	225922	57.120	12.264328	-56.478422	57.170	0.350	-0.720	-0.620	57.160	-2.100	-0.200																			1580079562.0	0.55	1.02
26/01/2020 22:59:23	26012020	260120	225923	57.300	12.264328	-56.478420	57.350	0.130	-0.550	-0.500	57.330	-1.900	-0.200																			1580079563.0	0.29	0.54
26/01/2020 22:59:24	26012020	260120	225924	57.390	12.264327	-56.478420	57.410	-0.240	0.080	-0.010	57.390	-1.300	0.300																			1580079564.0	0.46	0.85
26/01/2020 22:59:25	26012020	260120	225925	57.340	12.264322	-56.478420	57.350	-0.560	0.730	0.660	57.330	-0.700	1.000																			1580079565.0	1.20	2.22
26/01/2020 22:59:26	26012020	260120	225926	57.260	12.264315	-56.478418	57.280	-0.650	0.790	1.200	57.240	-0.500	1.500																			1580079566.0	1.41	2.61
26/01/2020 22:59:27	26012020	260120	225927	57.180	12.264312	-56.478417	57.200	-0.400	0.200	1.380	57.170	-1.100	1.700																			1580079567.0	0.88	1.63
26/01/2020 22:59:28	26012020	260120	225928	57.110	12.264312	-56.478415	57.120	0.060	-0.560	1.260	57.090	-1.800	1.700																			1580079568.0	0.53	0.98
26/01/2020 22:59:29	26012020	260120	225929	57.050	12.264315	-56.478413	57.050	0.500	-0.960	0.990	57.040	-2.300	1.400																			1580079569.0	0.66	1.22
26/01/2020 22:59:30	26012020	260120	225930	57.050	12.264317	-56.478413	57.080	0.720	-0.830	0.610	57.060	-2.200	1.000																			1580079570.0	0.64	1.19
26/01/2020 22:59:31	26012020	260120	225931	57.130	12.264320	-56.478415	57.210	0.610	-0.360	0.130	57.160	-1.800	0.600																			1580079571.0	0.66	1.22
26/01/2020 22:59:32	26012020	260120	225932	57.270	12.264320	-56.478418	57.260	0.210	0.250	-0.230	57.270	-1.200	0.200																			1580079572.0	0.73	1.35
26/01/2020 22:59:33	26012020	260120	225933	57.200	12.264322	-56.478422	57.170	-0.280	0.720	-0.260	57.170	-0.700	0.100																			1580079573.0	0.66	1.22
26/01/2020 22:59:34	26012020	260120	225934	57.000	12.264320	-56.478423	56.980	-0.590	0.680	-0.040	56.960	-0.600	0.300																			1580079574.0	0.44	0.81
26/01/2020 22:59:35	26012020	260120	225935	56.850	12.264318	-56.478423	56.870	-0.580	0.060	0.220	56.840	-1.200	0.600																			1580079575.0	0.28	0.52
26/01/2020 22:59:36	26012020	260120	225936	56.860	12.264318	-56.478420	56.920	-0.320	-0.690	0.390	56.880	-2.000	0.700																			1580079576.0	0.69	1.28
26/01/2020 22:59:37	26012020	260120	225937	56.960	12.264318	-56.478417	57.030	-0.040	-0.970	0.480	56.980	-2.300	0.800																			1580079577.0	0.73	1.35
26/01/2020 22:59:38	26012020	260120	225938	57.040	12.264318	-56.478415	57.090	0.130	-0.650	0.540	57.050	-2.000	0.900																			1580079578.0	0.34	0.63
26/01/2020 22:59:39	26012020	260120	225939	57.070	12.264317	-56.478417	57.110	0.210	-0.090	0.580	57.070	-1.500	0.900																			1580079579.0	0.40	0.74
26/01/2020 22:59:40	26012020	260120	225940	57.070	12.264315	-56.478418	57.100	0.280	0.270	0.530	57.070	-1.100	0.900																			1580079580.0	0.48	0.89
26/01/2020 22:59:41	26012020	260120	225941	57.070	12.264315	-56.478418	57.090	0.330	0.250	0.400	57.070	-1.100	0.800																			1580079581.0	0.24	0.44
26/01/2020 22:59:42	26012020	260120	225942	57.090	12.264317	-56.478418	57.110	0.290	0.010	0.260	57.090	-1.300	0.700																			1580079582.0	0.32	0.59
26/01/2020 22:59:43	26012020	260120	225943	57.100	12.264318	-56.478418	57.100	0.100	-0.110	0.190	57.100	-1.500	0.600																			1580079583.0	0.46	0.85
26/01/2020 22:59:44	26012020	260120	225944	57.050	12.264320	-56.478418	57.020	-0.170	-0.010	0.270	57.020	-1.400	0.600																			1580079584.0	0.22	0.41
26/01/2020 22:59:45	26012020	260120	225945	56.950	12.264318	-56.478420	56.950	-0.410	0.080	0.420	56.940	-1.300	0.800																			1580079585.0	0.24	0.44
26/01/2020 22:59:46	26012020	260120	225946	56.930	12.264317	-56.478420	56.960	-0.460	-0.080	0.550	56.940	-1.400	0.900																			1580079586.0	0.37	0.69
26/01/2020 22:59:47	26012020	260120	225947	57.030	12.264315	-56.478418	57.090	-0.270	-0.380	0.550	57.070	-1.700	0.900																			1580079587.0	0.40	0.74
26/01/2020 22:59:48	26012020	260120	225948	57.230	12.264315	-56.478417	57.280	0.040	-0.590	0.410	57.270	-1.900	0.800																			1580079588.0	0.43	0.80
26/01/2020 22:59:49	26012020	260120	225949	57.330	12.264315	-56.478415	57.320	0.260	-0.450	0.280	57.320	-1.800	0.700																			1580079589.0	0.21	0.39
26/01/2020 22:59:50	26012020	260120	225950	57.240	12.264315	-56.478417	57.210	0.290	0.020	0.190	57.210	-1.400	0.600																			1580079590.0	0.32	0.59
26/01/2020 22:59:51	26012020	260120	225951	57.110	12.264317	-56.478420	57.110	0.190	0.420	0.090	57.090	-1.000	0.500																			1580079591.0	0.74	1.37
26/01/2020 22:59:52	26012020	260120	225952	57.090	12.264318	-56.478423	57.120	0.100	0.300	-0.020	57.100	-1.000	0.400																			1580079592.0	0.73	1.35
26/01/2020 22:59:53	26012020	260120	225953	57.170	12.264320	-56.478425	57.210	0.060	-0.220	0.020	57.180	-1.500	0.400																			1580079593.0	0.41	0.76
26/01/2020 22:59:54	26012020	260120	225954	57.180	12.264320	-56.478422	57.200	-0.020	-0.590	0.370	57.160	-1.900	0.700																			1580079594.0	0.48	0.89
26/01/2020 22:59:55	26012020	260120	225955	57.090	12.264318	-56.478420	57.070	-0.160	-0.520	0.870	57.060	-1.900	1.200																			1580079595.0	0.71	1.31
26/01/2020 22:59:56	26012020	260120	225956	56.960	12.264315	-56.478418	57.010	-0.240	-0.250	1.170	56.960	-1.600	1.500																			1580079596.0	0.92	1.70
26/01/2020 22:59:57	26012020	260120	225957	56.990	12.264312	-56.478417	57.050	-0.160	-0.020	1.180	57.000	-1.400	1.600																			1580079597.0	0.73	1.35
26/01/2020 22:59:58	26012020	260120	225958	57.050	12.264310	-56.478417	57.080	-0.000	0.140	0.940	57.060	-1.200	1.400																			1580079598.0	0.29	0.54
26/01/2020 22:59:59	26012020	260120	225959	57.050	12.264310	-56.478418	57.040	0.120	0.230	0.550	57.040	-1.100	1.000																			1580079599.0	0.30	0.56
26/01/2020 23:00:00	26012020	260120	230000	56.980	12.264313	-56.478420	56.960	0.150	0.240	0.120	56.960	-1.100	0.500	1015.00	26.00	26.10	21.00	21.00	-1.00	73.00	73.00	378.00	25.10	2.00	4.50	60.00	4.20	15	3828.00	27.60	27.60	1580079600.0	0.68	1.26
26/01/2020 23:00:01	26012020	260120	230001	56.930	12.264318	-56.478425	56.920	0.090	0.080	-0.310	56.930	-1.300	0.100																			1580079601.0	0.81	1.50
26/01/2020 23:00:02	26012020	260120	230002	56.950	12.264318	-56.478425	56.950	-0.010	-0.220	-0.680	56.960	-1.500	-0.300																			1580079602.0	0.84	1.56
26/01/2020 23:00:03	26012020	260120	230003	57.010	12.264322	-56.478427	57.020	-0.080	-0.480	-0.810	57.030	-1.800	-0.400																			1580079603.0	0.72	1.33
26/01/2020 23:00:04	26012020	260120	230004	57.070	12.264323	-56.478427	57.060	-0.070	-0.570	-0.580	57.070	-1.900	-0.300																			1580079604.0	0.30	0.56
26/01/2020 23:00:05	26012020	260120	230005	57.050	12.264322	-56.478427	57.030	-0.000	-0.480	-0.010	57.040	-1.900	0.300																			1580079605.0	0.34	0.63
26/01/2020 23:00:06	26012020	260120	230006	56.940	12.264318	-56.478425	56.920	0.060	-0.280	0.780	56.910	-1.700	1.000																			1580079606.0	0.85	1.57
26/01/2020 23:00:07	26012020	260120	230007	56.780	12.264313	-56.478422	56.780	0.070	-0.020	1.510	56.750	-1.400	1.800																			1580079607.0	1.12	2.07
26/01/2020 23:00:08	26012020	260120	230008	56.670	12.264310	-56.478420	56.700	0.000	0.210	1.810	56.660	-1.200	2.200																			1580079608.0	1.01	1.87
26/01/2020 23:00:09	26012020	260120	230009	56.670	12.264308	-56.478420	56.710	-0.140	0.330	1.500	56.690	-1.000	1.900																			1580079609.0	0.45	0.83
26/01/2020 23:00:10	26012020	260120	230010	56.750	12.264308	-56.478422	56.760	-0.250	0.290	0.840	56.760	-1.100	1.300																			1580079610.0	0.45	0.83
26/01/2020 23:00:11	26012020	260120	230011	56.760	12.264312	-56.478425	56.720	-0.210	0.100	0.210	56.740	-1.200	0.700																			1580079611.0	0.99	1.83
26/01/2020 23:00:12	26012020	260120	230012	56.670	12.264317	-56.478427	56.620	-0.020	-0.240	-0.240	56.660	-1.500	0.200																			1580079612.0	0.98	1.81
26/01/2020 23:00:13	26012020	260120	230013	56.610	12.264320	-56.478428	56.570	0.200	-0.620	-0.620	56.610	-1.900	-0.200																			1580079613.0	0.76	1.41
26/01/2020 23:00:14	26012020	260120	230014	56.660	12.264322	-56.478428	56.630	0.320	-0.800	-0.940	56.680	-2.100	-0.500																			1580079614.0	0.60	1.11
26/01/2020 23:00:15	26012020	260120	230015	56.730	12.264323	-56.478428	56.680	0.280	-0.540	-1.000	56.730	-1.900	-0.600																			1580079615.0	0.31	0.57
26/01/2020 23:00:16	26012020	260120	230016	56.630	12.264323	-56.478428	56.530	0.140	0.030	-0.610	56.570	-1.400	-0.300																			1580079616.0	0.25	0.46
26/01/2020 23:00:17	26012020	260120	230017	56.310	12.264320	-56.478428	56.200	-0.020	0.500	0.090	56.240	-0.900	0.400																			1580079617.0	0.72	1.33
26/01/2020 23:00:18	26012020	260120	230018	55.960	12.264317	-56.478428	55.890	-0.120	0.530	0.690	55.910	-0.800	1.000																			1580079618.0	0.68	1.26
26/01/2020 23:00:19	26012020	260120	230019	55.770	12.264315	-56.478427	55.750	-0.150	0.170	0.980	55.750	-1.100	1.300																			1580079619.0	0.35	0.65
26/01/2020 23:00:20	26012020	260120	230020	55.740	12.264317	-56.478425	55.740	-0.190	-0.230	1.010	55.750	-1.500	1.400																			1580079620.0	0.41	0.76
26/01/2020 23:00:21	26012020	260120	230021	55.780	12.264317	-56.478425	55.770	-0.280	-0.400	0.960	55.780	-1.700	1.300																			1580079621.0	0.35	0.65
26/01/2020 23:00:22	26012020	260120	230022	55.760	12.264317	-56.478423	55.740	-0.360	-0.320	0.930	55.750	-1.700	1.300																			1580079622.0	0.08	0.15
26/01/2020 23:00:23	26012020	260120	230023	55.650	12.264317	-56.478423	55.590	-0.270	-0.210	0.890	55.610	-1.600	1.300																			1580079623.0	0.30	0.56
26/01/2020 23:00:24	26012020	260120	230024	55.430	12.264315	-56.478423	55.360	0.040	-0.270	0.750	55.380	-1.600	1.100																			1580079624.0	0.24	0.44
26/01/2020 23:00:25	26012020	260120	230025	55.210	12.264315	-56.478423	55.130	0.440	-0.420	0.410	55.170	-1.800	0.800																			1580079625.0	0.19	0.35
26/01/2020 23:00:26	26012020	260120	230026	54.960	12.264318	-56.478422	54.840	0.650	-0.360	0.070	54.900	-1.700	0.500																			1580079626.0	0.50	0.93
26/01/2020 23:00:27	26012020	260120	230027	54.600	12.264320	-56.478423	54.460	0.460	0.020	-0.190	54.510	-1.400	0.200																			1580079627.0	0.53	0.98
26/01/2020 23:00:28	26012020	260120	230028	54.200	12.264322	-56.478425	54.070	0.020	0.400	-0.430	54.120	-1.000	-0.000																			1580079628.0	0.60	1.11
26/01/2020 23:00:29	26012020	260120	230029	53.910	12.264323	-56.478428	53.810	-0.390	0.440	-0.700	53.870	-0.900	-0.300																			1580079629.0	0.69	1.28
26/01/2020 23:00:30	26012020	260120	230030	53.740	12.264327	-56.478430	53.650	-0.510	0.110	-0.840	53.710	-1.200	-0.500																			1580079630.0	0.67	1.24
26/01/2020 23:00:31	26012020	260120	230031	53.620	12.264328	-56.478428	53.540	-0.280	-0.340	-0.690	53.600	-1.600	-0.400																			1580079631.0	0.56	1.04
26/01/2020 23:00:32	26012020	260120	230032	53.510	12.264330	-56.478427	53.420	0.070	-0.600	-0.250	53.480	-1.900	0.100																			1580079632.0	0.58	1.07
26/01/2020 23:00:33	26012020	260120	230033	53.300	12.264327	-56.478422	53.160	0.220	-0.500	0.410	53.220	-1.900	0.700																			1580079633.0	0.97	1.80
26/01/2020 23:00:34	26012020	260120	230034	52.910	12.264322	-56.478418	52.750	0.080	-0.140	1.070	52.810	-1.500	1.400																			1580079634.0	1.19	2.20
26/01/2020 23:00:35	26012020	260120	230035	52.410	12.264318	-56.478417	52.260	-0.200	0.150	1.400	52.320	-1.200	1.700																			1580079635.0	0.95	1.76
26/01/2020 23:00:36	26012020	260120	230036	51.940	12.264318	-56.478417	51.800	-0.300	0.150	1.320	51.870	-1.200	1.700																			1580079636.0	0.18	0.33
26/01/2020 23:00:37	26012020	260120	230037	51.610	12.264320	-56.478417	51.520	-0.090	-0.100	0.930	51.570	-1.400	1.400																			1580079637.0	0.60	1.11
26/01/2020 23:00:38	26012020	260120	230038	51.440	12.264325	-56.478418	51.330	0.270	-0.320	0.410	51.410	-1.700	0.800																			1580079638.0	0.96	1.78
26/01/2020 23:00:39	26012020	260120	230039	51.220	12.264328	-56.478418	51.070	0.450	-0.180	0.060	51.160	-1.600	0.500																			1580079639.0	0.78	1.44
26/01/2020 23:00:40	26012020	260120	230040	50.860	12.264330	-56.478418	50.680	0.320	0.090	-0.160	50.770	-1.300	0.200																			1580079640.0	0.22	0.41
26/01/2020 23:00:41	26012020	260120	230041	50.430	12.264330	-56.478418	50.230	0.030	0.080	-0.450	50.340	-1.300	-0.000																			1580079641.0	0.15	0.28
26/01/2020 23:00:42	26012020	260120	230042	50.000	12.264332	-56.478420	49.790	-0.190	-0.200	-0.700	49.910	-1.500	-0.300																			1580079642.0	0.43	0.80
26/01/2020 23:00:43	26012020	260120	230043	49.520	12.264335	-56.478420	49.290	-0.270	-0.310	-0.660	49.410	-1.700	-0.300																			1580079643.0	0.74	1.37
26/01/2020 23:00:44	26012020	260120	230044	48.990	12.264337	-56.478418	48.800	-0.260	-0.160	-0.400	48.900	-1.500	-0.100																			1580079644.0	0.46	0.85
26/01/2020 23:00:45	26012020	260120	230045	48.650	12.264337	-56.478418	48.470	-0.210	-0.050	-0.120	48.590	-1.400	0.200																			1580079645.0	0.08	0.15
26/01/2020 23:00:46	26012020	260120	230046	48.320	12.264337	-56.478417	48.230	-0.080	-0.090	0.140	48.270	-1.400	0.500																			1580079646.0	0.35	0.65
26/01/2020 23:00:47	26012020	260120	230047	48.070	12.264335	-56.478415	48.000	0.070	-0.170	0.470	48.020	-1.500	0.800																			1580079647.0	0.71	1.31
26/01/2020 23:00:48	26012020	260120	230048	47.770	12.264333	-56.478410	47.680	0.190	-0.260	0.760	47.710	-1.600	1.100																			1580079648.0	0.89	1.65
26/01/2020 23:00:49	26012020	260120	230049	47.410	12.264333	-56.478407	47.310	0.290	-0.310	0.890	47.330	-1.700	1.200																			1580079649.0	0.72	1.33
26/01/2020 23:00:50	26012020	260120	230050	46.950	12.264333	-56.478405	46.820	0.340	-0.240	0.880	46.840	-1.600	1.200																			1580079650.0	0.45	0.83
26/01/2020 23:00:51	26012020	260120	230051	46.340	12.264337	-56.478405	46.170	0.290	0.010	0.820	46.190	-1.400	1.200																			1580079651.0	0.52	0.96
26/01/2020 23:00:52	26012020	260120	230052	45.620	12.264338	-56.478407	45.490	0.140	0.290	0.690	45.480	-1.100	1.100																			1580079652.0	0.61	1.13
26/01/2020 23:00:53	26012020	260120	230053	45.030	12.264342	-56.478408	44.960	-0.070	0.350	0.390	44.940	-1.000	0.800																			1580079653.0	0.60	1.11
26/01/2020 23:00:54	26012020	260120	230054	44.660	12.264343	-56.478408	44.620	-0.280	0.150	-0.020	44.600	-1.200	0.400																			1580079654.0	0.50	0.93
26/01/2020 23:00:55	26012020	260120	230055	44.400	12.264347	-56.478408	44.350	-0.460	-0.180	-0.380	44.350	-1.500	0.000																			1580079655.0	0.52	0.96
26/01/2020 23:00:56	26012020	260120	230056	44.120	12.264348	-56.478407	44.040	-0.550	-0.400	-0.620	44.050	-1.700	-0.200																			1580079656.0	0.56	1.04
26/01/2020 23:00:57	26012020	260120	230057	43.710	12.264350	-56.478407	43.590	-0.450	-0.460	-0.680	43.620	-1.800	-0.300																			1580079657.0	0.44	0.81
26/01/2020 23:00:58	26012020	260120	230058	43.140	12.264352	-56.478407	42.970	-0.110	-0.420	-0.440	43.010	-1.800	-0.100																			1580079658.0	0.34	0.63
26/01/2020 23:00:59	26012020	260120	230059	42.450	12.264352	-56.478405	42.290	0.400	-0.330	0.060	42.310	-1.700	0.400																			1580079659.0	0.34	0.63
26/01/2020 23:01:00	26012020	260120	230100	41.800	12.264353	-56.478402	41.690	0.820	-0.270	0.550	41.690	-1.600	0.900	1014.90	26.00	26.10	21.00	21.00	-1.00	73.00	73.00	378.00	25.10	3.00	5.00	55.00	4.70	15	3673.00	27.60	27.60	1580079660.0	0.59	1.09
26/01/2020 23:01:01	26012020	260120	230101	41.320	12.264353	-56.478398	41.270	0.870	-0.190	0.790	41.250	-1.500	1.100																			1580079661.0	0.77	1.43
26/01/2020 23:01:02	26012020	260120	230102	40.960	12.264353	-56.478395	40.920	0.430	-0.020	0.750	40.890	-1.400	1.100																			1580079662.0	0.67	1.24
26/01/2020 23:01:03	26012020	260120	230103	40.590	12.264355	-56.478393	40.530	-0.290	0.230	0.540	40.500	-1.100	0.900																			1580079663.0	0.40	0.74
26/01/2020 23:01:04	26012020	260120	230104	40.110	12.264357	-56.478395	40.020	-0.810	0.430	0.310	40.000	-0.900	0.700																			1580079664.0	0.56	1.04
26/01/2020 23:01:05	26012020	260120	230105	39.500	12.264360	-56.478397	39.380	-0.760	0.390	0.180	39.360	-0.900	0.600																			1580079665.0	0.67	1.24
26/01/2020 23:01:06	26012020	260120	230106	38.790	12.264362	-56.478397	38.660	-0.230	0.050	0.180	38.640	-1.300	0.500																			1580079666.0	0.55	1.02
26/01/2020 23:01:07	26012020	260120	230107	38.030	12.264365	-56.478393	37.920	0.340	-0.390	0.190	37.880	-1.700	0.500																			1580079667.0	0.76	1.41
26/01/2020 23:01:08	26012020	260120	230108	37.330	12.264368	-56.478390	37.240	0.560	-0.720	0.080	37.200	-2.000	0.500																			1580079668.0	0.89	1.65
26/01/2020 23:01:09	26012020	260120	230109	36.860	12.264372	-56.478388	36.700	0.360	-0.730	-0.200	36.760	-2.100	0.200																			1580079669.0	0.81	1.50
26/01/2020 23:01:10	26012020	260120	230110	36.290	12.264375	-56.478390	36.260	-0.020	-0.400	-0.540	36.200	-1.800	-0.100																			1580079670.0	0.84	1.56
26/01/2020 23:01:11	26012020	260120	230111	35.940	12.264378	-56.478392	35.820	-0.260	0.110	-0.780	35.850	-1.300	-0.400																			1580079671.0	0.90	1.67
26/01/2020 23:01:12	26012020	260120	230112	35.340	12.264380	-56.478393	35.290	-0.270	0.530	-0.670	35.220	-0.900	-0.300																			1580079672.0	0.54	1.00
26/01/2020 23:01:13	26012020	260120	230113	34.660	12.264380	-56.478392	34.560	-0.190	0.590	-0.130	34.500	-0.700	0.100																			1580079673.0	0.36	0.67
26/01/2020 23:01:14	26012020	260120	230114	33.820	12.264382	-56.478387	33.740	-0.100	0.190	0.580	33.650	-1.100	0.900																			1580079674.0	1.00	1.85
26/01/2020 23:01:15	26012020	260120	230115	33.020	12.264382	-56.478380	32.980	0.080	-0.500	1.050	32.880	-1.700	1.400																			1580079675.0	1.31	2.43
26/01/2020 23:01:16	26012020	260120	230116	32.340	12.264387	-56.478375	32.320	0.340	-1.060	1.170	32.210	-2.400	1.500																			1580079676.0	1.42	2.63
26/01/2020 23:01:17	26012020	260120	230117	31.650	12.264392	-56.478372	31.590	0.460	-0.910	1.140	31.500	-2.300	1.500																			1580079677.0	1.27	2.35
26/01/2020 23:01:18	26012020	260120	230118	30.850	12.264393	-56.478370	30.750	0.230	-0.080	0.960	30.690	-1.500	1.400																			1580079678.0	0.66	1.22
26/01/2020 23:01:19	26012020	260120	230119	30.080	12.264395	-56.478373	29.970	-0.220	0.760	0.530	29.930	-0.700	1.000																			1580079679.0	0.46	0.85
26/01/2020 23:01:20	26012020	260120	230120	29.410	12.264397	-56.478377	29.280	-0.560	0.950	-0.060	29.280	-0.400	0.400																			1580079680.0	0.79	1.46
26/01/2020 23:01:21	26012020	260120	230121	28.760	12.264402	-56.478378	28.610	-0.490	0.410	-0.550	28.630	-0.900	-0.100																			1580079681.0	1.09	2.02
26/01/2020 23:01:22	26012020	260120	230122	28.110	12.264408	-56.478378	27.970	-0.020	-0.540	-0.830	27.980	-1.800	-0.400																			1580079682.0	1.47	2.72
26/01/2020 23:01:23	26012020	260120	230123	27.600	12.264415	-56.478377	27.310	0.530	-1.190	-0.830	27.480	-2.500	-0.500																			1580079683.0	1.67	3.09
26/01/2020 23:01:24	26012020	260120	230124	26.760	12.264420	-56.478373	26.550	0.730	-0.980	-0.500	26.590	-2.400	-0.200																			1580079684.0	1.37	2.54
26/01/2020 23:01:25	26012020	260120	230125	25.850	12.264422	-56.478368	25.640	0.410	-0.110	0.040	25.680	-1.600	0.300																			1580079685.0	0.88	1.63
26/01/2020 23:01:26	26012020	260120	230126	24.900	12.264420	-56.478367	24.700	-0.200	0.640	0.440	24.740	-0.800	0.800																			1580079686.0	0.67	1.24
26/01/2020 23:01:27	26012020	260120	230127	24.120	12.264420	-56.478365	23.970	-0.650	0.690	0.470	23.990	-0.600	0.900																			1580079687.0	0.20	0.37
26/01/2020 23:01:28	26012020	260120	230128	23.590	12.264425	-56.478365	23.500	-0.650	0.100	0.160	23.510	-1.200	0.600																			1580079688.0	1.03	1.91
26/01/2020 23:01:29	26012020	260120	230129	23.160	12.264433	-56.478367	23.040	-0.300	-0.410	-0.090	23.050	-1.700	0.300																			1580079689.0	1.69	3.13
26/01/2020 23:01:30	26012020	260120	230130	22.520	12.264440	-56.478367	22.330	0.140	-0.370	0.080	22.350	-1.700	0.400																			1580079690.0	1.38	2.56
26/01/2020 23:01:31	26012020	260120	230131	21.650	12.264442	-56.478363	21.470	0.430	-0.200	0.470	21.470	-1.600	0.800																			1580079691.0	0.79	1.46
26/01/2020 23:01:32	26012020	260120	230132	20.740	12.264443	-56.478360	20.570	0.480	-0.280	0.710	20.550	-1.600	1.000																			1580079692.0	0.98	1.81
26/01/2020 23:01:33	26012020	260120	230133	19.840	12.264448	-56.478355	19.710	0.350	-0.380	0.700	19.660	-1.700	1.100																			1580079693.0	1.13	2.09
26/01/2020 23:01:34	26012020	260120	230134	19.030	12.264452	-56.478353	18.960	0.140	-0.250	0.430	18.890	-1.600	0.800																			1580079694.0	1.05	1.94
26/01/2020 23:01:35	26012020	260120	230135	18.500	12.264457	-56.478355	18.360	-0.070	-0.000	-0.060	18.390	-1.400	0.400																			1580079695.0	1.01	1.87
26/01/2020 23:01:36	26012020	260120	230136	17.900	12.264462	-56.478358	17.910	-0.220	0.160	-0.630	17.810	-1.200	-0.200																			1580079696.0	1.17	2.17
26/01/2020 23:01:37	26012020	260120	230137	17.450	12.264467	-56.478362	17.430	-0.290	0.190	-1.020	17.350	-1.200	-0.600																			1580079697.0	1.28	2.37
26/01/2020 23:01:38	26012020	260120	230138	16.760	12.264472	-56.478362	16.640	-0.260	0.210	-0.920	16.590	-1.100	-0.600																			1580079698.0	1.15	2.13
26/01/2020 23:01:39	26012020	260120	230139	15.740	12.264475	-56.478360	15.590	-0.130	0.140	-0.340	15.520	-1.200	-0.100																			1580079699.0	0.89	1.65
26/01/2020 23:01:40	26012020	260120	230140	14.710	12.264480	-56.478357	14.610	0.090	-0.350	0.260	14.520	-1.600	0.600																			1580079700.0	1.17	2.17
26/01/2020 23:01:41	26012020	260120	230141	13.910	12.264485	-56.478352	13.880	0.320	-0.970	0.620	13.780	-2.200	0.900																			1580079701.0	1.61	2.98
26/01/2020 23:01:42	26012020	260120	230142	13.300	12.264492	-56.478348	13.280	0.360	-0.950	0.760	13.180	-2.300	1.100																			1580079702.0	1.71	3.17
26/01/2020 23:01:43	26012020	260120	230143	12.680	12.264497	-56.478347	12.630	0.090	-0.170	0.710	12.550	-1.600	1.100																			1580079703.0	1.08	2.00
26/01/2020 23:01:44	26012020	260120	230144	11.950	12.264500	-56.478348	11.870	-0.350	0.740	0.520	11.790	-0.700	0.900																			1580079704.0	0.50	0.93
26/01/2020 23:01:45	26012020	260120	230145	11.170	12.264502	-56.478352	11.080	-0.610	1.100	0.300	11.010	-0.200	0.700																			1580079705.0	0.67	1.24
26/01/2020 23:01:46	26012020	260120	230146	10.380	12.264505	-56.478353	10.270	-0.430	0.720	0.200	10.220	-0.500	0.600																			1580079706.0	0.96	1.78
26/01/2020 23:01:47	26012020	260120	230147	9.620	12.264512	-56.478353	9.540	0.140	-0.230	0.140	9.480	-1.400	0.500																			1580079707.0	1.40	2.59
26/01/2020 23:01:48	26012020	260120	230148	8.970	12.264520	-56.478350	8.920	0.680	-1.160	-0.030	8.840	-2.400	0.400																			1580079708.0	1.91	3.54
26/01/2020 23:01:49	26012020	260120	230149	8.320	12.264528	-56.478347	8.230	0.780	-1.430	-0.130	8.170	-2.800	0.200																			1580079709.0	1.92	3.56
26/01/2020 23:01:50	26012020	260120	230150	7.510	12.264535	-56.478345	7.380	0.360	-0.890	-0.130	7.350	-2.300	0.200																			1580079710.0	1.34	2.48
26/01/2020 23:01:51	26012020	260120	230151	6.620	12.264538	-56.478345	6.470	-0.240	0.000	-0.190	6.450	-1.400	0.200																			1580079711.0	0.71	1.31
26/01/2020 23:01:52	26012020	260120	230152	5.690	12.264540	-56.478348	5.500	-0.580	0.650	-0.340	5.490	-0.700	0.000																			1580079712.0	0.91	1.69
26/01/2020 23:01:53	26012020	260120	230153	4.720	12.264545	-56.478353	4.530	-0.450	0.790	-0.420	4.530	-0.500	-0.000																			1580079713.0	1.31	2.43
26/01/2020 23:01:54	26012020	260120	230154	3.820	12.264552	-56.478357	3.680	-0.060	0.460	-0.360	3.650	-0.800	-0.000																			1580079714.0	1.52	2.82
26/01/2020 23:01:55	26012020	260120	230155	3.080	12.264560	-56.478357	3.000	0.200	-0.030	-0.220	2.960	-1.300	0.100																			1580079715.0	1.71	3.17
26/01/2020 23:01:56	26012020	260120	230156	2.530	12.264567	-56.478355	2.470	0.100	-0.290	-0.090	2.420	-1.600	0.200																			1580079716.0	1.67	3.09
26/01/2020 23:01:57	26012020	260120	230157	1.990	12.264573	-56.478355	1.890	-0.180	-0.140	0.090	1.870	-1.500	0.400																			1580079717.0	1.26	2.33
26/01/2020 23:01:58	26012020	260120	230158	1.290	12.264577	-56.478352	1.160	-0.330	0.180	0.500	1.130	-1.200	0.800																			1580079718.0	0.85	1.57
26/01/2020 23:01:59	26012020	260120	230159	0.630	12.264578	-56.478348	0.310	-0.220	0.110	0.930	0.460	-1.200	1.200																			1580079719.0	0.94	1.74
26/01/2020 23:02:00	26012020	260120	230200	359.610	12.264585	-56.478347	359.440	0.050	-0.440	1.100	359.440	-1.700	1.400	1014.90	26.00	26.00	20.80	20.90	-1.00	73.00	73.00	378.00	25.10	33.00	4.40	59.00	4.10	15	3751.00	27.60	27.60	1580079720.0	1.30	2.41
26/01/2020 23:02:01	26012020	260120	230201	358.770	12.264592	-56.478345	358.620	0.310	-0.990	0.970	358.610	-2.300	1.400																			1580079721.0	1.73	3.20
26/01/2020 23:02:02	26012020	260120	230202	357.960	12.264600	-56.478348	357.810	0.440	-1.100	0.600	357.810	-2.500	1.000																			1580079722.0	1.90	3.52
26/01/2020 23:02:03	26012020	260120	230203	357.150	12.264608	-56.478352	356.990	0.490	-0.670	0.220	357.000	-2.100	0.600																			1580079723.0	1.77	3.28
26/01/2020 23:02:04	26012020	260120	230204	356.310	12.264613	-56.478357	356.140	0.470	0.020	-0.040	356.140	-1.400	0.300																			1580079724.0	1.42	2.63
26/01/2020 23:02:05	26012020	260120	230205	355.480	12.264618	-56.478358	355.320	0.310	0.540	-0.280	355.320	-0.900	0.100																			1580079725.0	1.12	2.07
26/01/2020 23:02:06	26012020	260120	230206	354.760	12.264623	-56.478360	354.630	-0.060	0.670	-0.630	354.630	-0.700	-0.200																			1580079726.0	1.23	2.28
26/01/2020 23:02:07	26012020	260120	230207	354.170	12.264630	-56.478363	354.070	-0.540	0.580	-0.960	354.060	-0.800	-0.600																			1580079727.0	1.52	2.82
26/01/2020 23:02:08	26012020	260120	230208	353.640	12.264635	-56.478368	353.520	-0.890	0.520	-1.020	353.520	-0.800	-0.700																			1580079728.0	1.56	2.89
26/01/2020 23:02:09	26012020	260120	230209	352.980	12.264642	-56.478370	352.820	-0.850	0.500	-0.620	352.820	-0.800	-0.300																			1580079729.0	1.24	2.30
26/01/2020 23:02:10	26012020	260120	230210	352.110	12.264645	-56.478370	351.930	-0.410	0.250	0.110	351.920	-1.000	0.400																			1580079730.0	1.04	1.93
26/01/2020 23:02:11	26012020	260120	230211	351.130	12.264652	-56.478365	350.960	0.170	-0.450	0.840	350.920	-1.700	1.100																			1580079731.0	1.53	2.83
26/01/2020 23:02:12	26012020	260120	230212	350.180	12.264660	-56.478362	350.070	0.570	-1.400	1.270	350.010	-2.600	1.600																			1580079732.0	2.05	3.80
26/01/2020 23:02:13	26012020	260120	230213	349.550	12.264672	-56.478362	349.340	0.630	-1.910	1.280	349.430	-3.200	1.600																			1580079733.0	2.21	4.09
26/01/2020 23:02:14	26012020	260120	230214	348.840	12.264680	-56.478365	348.750	0.470	-1.470	0.980	348.730	-2.900	1.400																			1580079734.0	1.98	3.67
26/01/2020 23:02:15	26012020	260120	230215	348.270	12.264685	-56.478370	348.170	0.250	-0.240	0.580	348.160	-1.700	1.000																			1580079735.0	1.48	2.74
26/01/2020 23:02:16	26012020	260120	230216	347.620	12.264687	-56.478373	347.480	0.080	0.980	0.230	347.490	-0.500	0.600																			1580079736.0	1.14	2.11
26/01/2020 23:02:17	26012020	260120	230217	346.870	12.264690	-56.478378	346.710	-0.060	1.520	-0.090	346.700	0.200	0.300																			1580079737.0	1.10	2.04
26/01/2020 23:02:18	26012020	260120	230218	346.030	12.264697	-56.478382	345.850	-0.170	1.260	-0.330	345.850	-0.000	0.000																			1580079738.0	1.45	2.69
26/01/2020 23:02:19	26012020	260120	230219	345.160	12.264705	-56.478385	344.990	-0.250	0.490	-0.410	344.990	-0.800	-0.100																			1580079739.0	1.86	3.44
26/01/2020 23:02:20	26012020	260120	230220	344.360	12.264713	-56.478387	344.220	-0.270	-0.340	-0.370	344.210	-1.600	-0.000																			1580079740.0	2.02	3.74
26/01/2020 23:02:21	26012020	260120	230221	343.630	12.264722	-56.478388	343.500	-0.260	-0.890	-0.330	343.490	-2.200	0.000																			1580079741.0	1.94	3.59
26/01/2020 23:02:22	26012020	260120	230222	342.910	12.264730	-56.478392	342.780	-0.280	-0.990	-0.340	342.760	-2.300	0.000																			1580079742.0	1.64	3.04
26/01/2020 23:02:23	26012020	260120	230223	342.160	12.264735	-56.478395	342.000	-0.290	-0.770	-0.310	342.000	-2.100	0.000																			1580079743.0	1.40	2.59
26/01/2020 23:02:24	26012020	260120	230224	341.360	12.264740	-56.478398	341.170	-0.150	-0.390	-0.130	341.190	-1.800	0.200																			1580079744.0	1.36	2.52
26/01/2020 23:02:25	26012020	260120	230225	340.550	12.264745	-56.478402	340.360	0.190	-0.090	0.130	340.390	-1.500	0.500																			1580079745.0	1.39	2.57
26/01/2020 23:02:26	26012020	260120	230226	339.780	12.264753	-56.478405	339.610	0.580	0.030	0.410	339.630	-1.300	0.700																			1580079746.0	1.59	2.94
26/01/2020 23:02:27	26012020	260120	230227	339.190	12.264762	-56.478405	338.890	0.720	0.050	0.630	339.040	-1.300	0.900																			1580079747.0	1.86	3.44
26/01/2020 23:02:28	26012020	260120	230228	338.320	12.264770	-56.478407	338.180	0.440	0.060	0.700	338.180	-1.300	1.000																			1580079748.0	1.93	3.57
26/01/2020 23:02:29	26012020	260120	230229	337.580	12.264778	-56.478408	337.440	-0.090	0.150	0.640	337.430	-1.200	1.000																			1580079749.0	1.78	3.30
26/01/2020 23:02:30	26012020	260120	230230	336.830	12.264785	-56.478413	336.650	-0.540	0.270	0.480	336.670	-1.100	0.900																			1580079750.0	1.59	2.94
26/01/2020 23:02:31	26012020	260120	230231	336.040	12.264790	-56.478417	335.860	-0.680	0.300	0.280	335.870	-1.000	0.700																			1580079751.0	1.52	2.82
26/01/2020 23:02:32	26012020	260120	230232	335.200	12.264795	-56.478422	335.000	-0.460	0.110	0.060	335.030	-1.200	0.400																			1580079752.0	1.61	2.98
26/01/2020 23:02:33	26012020	260120	230233	334.390	12.264802	-56.478428	334.190	-0.060	-0.330	-0.240	334.230	-1.600	0.100																			1580079753.0	1.84	3.41
26/01/2020 23:02:34	26012020	260120	230234	333.610	12.264810	-56.478433	333.380	0.250	-0.690	-0.450	333.440	-2.000	-0.100																			1580079754.0	2.10	3.89
26/01/2020 23:02:35	26012020	260120	230235	332.780	12.264818	-56.478440	332.550	0.330	-0.670	-0.460	332.600	-2.000	-0.100																			1580079755.0	2.03	3.76
26/01/2020 23:02:36	26012020	260120	230236	331.920	12.264825	-56.478443	331.710	0.200	-0.310	-0.310	331.750	-1.700	0.000																			1580079756.0	1.68	3.11
26/01/2020 23:02:37	26012020	260120	230237	331.110	12.264830	-56.478447	330.950	0.050	-0.010	-0.210	330.960	-1.400	0.100																			1580079757.0	1.44	2.67
26/01/2020 23:02:38	26012020	260120	230238	330.370	12.264837	-56.478450	330.240	0.030	0.090	-0.080	330.220	-1.300	0.200																			1580079758.0	1.62	3.00
26/01/2020 23:02:39	26012020	260120	230239	329.620	12.264843	-56.478455	329.510	0.110	0.120	0.150	329.470	-1.200	0.500																			1580079759.0	1.84	3.41
26/01/2020 23:02:40	26012020	260120	230240	328.860	12.264852	-56.478458	328.770	0.140	0.120	0.380	328.720	-1.200	0.700																			1580079760.0	1.90	3.52
26/01/2020 23:02:41	26012020	260120	230241	328.130	12.264860	-56.478462	328.020	0.030	0.130	0.520	327.990	-1.200	0.800																			1580079761.0	1.86	3.44
26/01/2020 23:02:42	26012020	260120	230242	327.380	12.264868	-56.478465	327.250	-0.160	0.120	0.590	327.220	-1.200	0.900																			1580079762.0	1.80	3.33
26/01/2020 23:02:43	26012020	260120	230243	326.600	12.264875	-56.478468	326.460	-0.310	0.010	0.580	326.440	-1.300	0.900																			1580079763.0	1.73	3.20
26/01/2020 23:02:44	26012020	260120	230244	325.790	12.264882	-56.478473	325.660	-0.290	-0.240	0.520	325.610	-1.500	0.900																			1580079764.0	1.85	3.43
26/01/2020 23:02:45	26012020	260120	230245	324.960	12.264888	-56.478480	324.840	-0.130	-0.530	0.360	324.790	-1.800	0.700																			1580079765.0	2.05	3.80
26/01/2020 23:02:46	26012020	260120	230246	324.180	12.264897	-56.478488	324.060	0.050	-0.700	0.040	324.030	-2.000	0.400																			1580079766.0	2.19	4.06
26/01/2020 23:02:47	26012020	260120	230247	323.460	12.264902	-56.478497	323.330	0.150	-0.570	-0.290	323.310	-1.900	0.100																			1580079767.0	2.20	4.07
26/01/2020 23:02:48	26012020	260120	230248	322.680	12.264908	-56.478503	322.490	0.170	-0.080	-0.330	322.510	-1.500	0.000																			1580079768.0	1.96	3.63
26/01/2020 23:02:49	26012020	260120	230249	321.960	12.264913	-56.478508	321.560	0.190	0.480	-0.040	321.770	-0.900	0.300																			1580079769.0	1.56	2.89
26/01/2020 23:02:50	26012020	260120	230250	320.850	12.264920	-56.478512	320.660	0.200	0.630	0.240	320.680	-0.700	0.600																			1580079770.0	1.56	2.89
26/01/2020 23:02:51	26012020	260120	230251	320.220	12.264928	-56.478515	319.970	0.150	0.260	0.250	320.090	-1.000	0.600																			1580079771.0	1.98	3.67
26/01/2020 23:02:52	26012020	260120	230252	319.520	12.264937	-56.478520	319.400	0.000	-0.240	0.040	319.420	-1.500	0.400																			1580079772.0	2.31	4.28
26/01/2020 23:02:53	26012020	260120	230253	318.960	12.264945	-56.478528	318.780	-0.160	-0.460	-0.140	318.840	-1.800	0.200																			1580079773.0	2.33	4.32
26/01/2020 23:02:54	26012020	260120	230254	318.220	12.264950	-56.478537	317.970	-0.210	-0.380	-0.070	318.050	-1.700	0.300																			1580079774.0	2.08	3.85
26/01/2020 23:02:55	26012020	260120	230255	317.280	12.264957	-56.478542	317.020	-0.170	-0.270	0.180	317.080	-1.600	0.500																			1580079775.0	1.79	3.32
26/01/2020 23:02:56	26012020	260120	230256	316.290	12.264963	-56.478548	316.050	-0.130	-0.310	0.390	316.100	-1.600	0.700																			1580079776.0	1.89	3.50
26/01/2020 23:02:57	26012020	260120	230257	315.390	12.264970	-56.478555	315.190	-0.130	-0.300	0.440	315.230	-1.600	0.800																			1580079777.0	2.09	3.87
26/01/2020 23:02:58	26012020	260120	230258	314.710	12.264977	-56.478562	314.550	-0.160	-0.080	0.310	314.580	-1.400	0.700																			1580079778.0	2.06	3.82
26/01/2020 23:02:59	26012020	260120	230259	314.160	12.264983	-56.478568	314.020	-0.140	0.250	0.150	314.050	-1.100	0.500																			1580079779.0	1.86	3.44
26/01/2020 23:03:00	26012020	260120	230300	313.560	12.264988	-56.478575	313.350	-0.000	0.480	0.150	313.400	-0.900	0.500	1014.90	26.00	26.10	20.90	20.90	-1.00	73.00	73.00	378.00	25.10	77.00	4.60	64.00	4.60	15	3848.00	27.60	27.60	1580079780.0	1.76	3.26
26/01/2020 23:03:01	26012020	260120	230301	312.720	12.264993	-56.478582	312.460	0.220	0.420	0.340	312.520	-0.900	0.700																			1580079781.0	1.86	3.44
26/01/2020 23:03:02	26012020	260120	230302	311.730	12.265002	-56.478588	311.450	0.460	-0.070	0.510	311.520	-1.300	0.800																			1580079782.0	2.14	3.96
26/01/2020 23:03:03	26012020	260120	230303	310.940	12.265010	-56.478595	310.530	0.580	-0.800	0.450	310.770	-2.000	0.800																			1580079783.0	2.51	4.65
26/01/2020 23:03:04	26012020	260120	230304	309.980	12.265020	-56.478605	309.790	0.490	-1.270	0.170	309.850	-2.600	0.600																			1580079784.0	2.72	5.04
26/01/2020 23:03:05	26012020	260120	230305	309.400	12.265027	-56.478613	309.240	0.170	-1.100	-0.210	309.320	-2.500	0.200																			1580079785.0	2.51	4.65
26/01/2020 23:03:06	26012020	260120	230306	308.920	12.265032	-56.478622	308.740	-0.300	-0.260	-0.510	308.820	-1.700	-0.100																			1580079786.0	2.05	3.80
26/01/2020 23:03:07	26012020	260120	230307	308.280	12.265033	-56.478630	308.040	-0.730	0.840	-0.570	308.110	-0.600	-0.200																			1580079787.0	1.58	2.93
26/01/2020 23:03:08	26012020	260120	230308	307.340	12.265037	-56.478635	307.050	-0.910	1.550	-0.330	307.120	0.200	-0.000																			1580079788.0	1.35	2.50
26/01/2020 23:03:09	26012020	260120	230309	306.220	12.265040	-56.478642	305.950	-0.740	1.330	0.020	306.000	0.100	0.300																			1580079789.0	1.61	2.98
26/01/2020 23:03:10	26012020	260120	230310	305.200	12.265047	-56.478650	305.000	-0.300	0.240	0.250	305.020	-1.000	0.600																			1580079790.0	2.34	4.33
26/01/2020 23:03:11	26012020	260120	230311	304.420	12.265055	-56.478662	304.290	0.220	-1.040	0.330	304.290	-2.300	0.700																			1580079791.0	2.99	5.54
26/01/2020 23:03:12	26012020	260120	230312	303.840	12.265065	-56.478673	303.750	0.620	-1.690	0.400	303.730	-3.000	0.700																			1580079792.0	3.04	5.63
26/01/2020 23:03:13	26012020	260120	230313	303.330	12.265072	-56.478682	303.240	0.790	-1.420	0.500	303.230	-2.800	0.800																			1580079793.0	2.49	4.61
26/01/2020 23:03:14	26012020	260120	230314	302.780	12.265078	-56.478687	302.650	0.730	-0.570	0.670	302.640	-2.000	1.000																			1580079794.0	1.90	3.52
26/01/2020 23:03:15	26012020	260120	230315	302.190	12.265085	-56.478692	301.860	0.510	0.250	0.860	302.030	-1.200	1.200																			1580079795.0	1.71	3.17
26/01/2020 23:03:16	26012020	260120	230316	301.140	12.265092	-56.478698	300.940	0.200	0.630	0.870	300.950	-0.700	1.200																			1580079796.0	1.95	3.61
26/01/2020 23:03:17	26012020	260120	230317	300.380	12.265098	-56.478707	300.030	-0.190	0.610	0.620	300.200	-0.700	1.000																			1580079797.0	2.33	4.32
26/01/2020 23:03:18	26012020	260120	230318	299.310	12.265103	-56.478718	299.150	-0.610	0.480	0.140	299.150	-0.800	0.500																			1580079798.0	2.51	4.65
26/01/2020 23:03:19	26012020	260120	230319	298.460	12.265107	-56.478730	298.270	-0.880	0.370	-0.390	298.290	-0.900	0.000																			1580079799.0	2.47	4.57
26/01/2020 23:03:20	26012020	260120	230320	297.590	12.265107	-56.478740	297.380	-0.830	0.160	-0.800	297.410	-1.100	-0.400																			1580079800.0	2.36	4.37
26/01/2020 23:03:21	26012020	260120	230321	296.730	12.265108	-56.478752	296.510	-0.440	-0.280	-0.970	296.560	-1.500	-0.600																			1580079801.0	2.35	4.35
26/01/2020 23:03:22	26012020	260120	230322	295.960	12.265112	-56.478763	295.790	0.100	-0.840	-0.930	295.830	-2.100	-0.600																			1580079802.0	2.51	4.65
26/01/2020 23:03:23	26012020	260120	230323	295.390	12.265118	-56.478773	295.250	0.520	-1.110	-0.710	295.290	-2.400	-0.400																			1580079803.0	2.71	5.02
26/01/2020 23:03:24	26012020	260120	230324	294.910	12.265125	-56.478783	294.770	0.640	-0.810	-0.250	294.800	-2.200	0.000																			1580079804.0	2.64	4.89
26/01/2020 23:03:25	26012020	260120	230325	294.280	12.265135	-56.478790	294.100	0.480	-0.080	0.470	294.120	-1.500	0.700																			1580079805.0	2.36	4.37
26/01/2020 23:03:26	26012020	260120	230326	293.400	12.265143	-56.478795	293.150	0.250	0.640	1.320	293.190	-0.800	1.500																			1580079806.0	2.22	4.11
26/01/2020 23:03:27	26012020	260120	230327	292.350	12.265152	-56.478802	292.110	0.100	0.900	2.000	292.140	-0.400	2.300																			1580079807.0	2.29	4.24
26/01/2020 23:03:28	26012020	260120	230328	291.340	12.265160	-56.478810	291.130	0.070	0.590	2.230	291.150	-0.700	2.600																			1580079808.0	2.52	4.67
26/01/2020 23:03:29	26012020	260120	230329	290.490	12.265167	-56.478822	290.330	0.070	-0.040	1.850	290.340	-1.300	2.300																			1580079809.0	2.74	5.07
26/01/2020 23:03:30	26012020	260120	230330	289.830	12.265170	-56.478833	289.710	-0.010	-0.650	1.030	289.730	-1.900	1.500																			1580079810.0	2.87	5.32
26/01/2020 23:03:31	26012020	260120	230331	289.330	12.265172	-56.478848	289.240	-0.190	-0.980	0.080	289.250	-2.300	0.500																			1580079811.0	2.92	5.41
26/01/2020 23:03:32	26012020	260120	230332	288.930	12.265172	-56.478862	288.840	-0.380	-0.910	-0.740	288.850	-2.300	-0.300																			1580079812.0	2.82	5.22
26/01/2020 23:03:33	26012020	260120	230333	288.550	12.265170	-56.478873	288.440	-0.480	-0.480	-1.250	288.460	-1.900	-0.900																			1580079813.0	2.61	4.83
26/01/2020 23:03:34	26012020	260120	230334	288.060	12.265170	-56.478885	287.920	-0.400	0.150	-1.320	287.940	-1.300	-1.000																			1580079814.0	2.33	4.32
26/01/2020 23:03:35	26012020	260120	230335	287.400	12.265172	-56.478893	287.220	-0.170	0.750	-0.900	287.240	-0.600	-0.600																			1580079815.0	2.12	3.93
26/01/2020 23:03:36	26012020	260120	230336	286.570	12.265178	-56.478903	286.380	0.130	1.000	-0.040	286.390	-0.300	0.200																			1580079816.0	2.21	4.09
26/01/2020 23:03:37	26012020	260120	230337	285.720	12.265187	-56.478912	285.570	0.400	0.680	1.020	285.560	-0.600	1.200																			1580079817.0	2.69	4.98
26/01/2020 23:03:38	26012020	260120	230338	285.030	12.265198	-56.478923	284.950	0.590	-0.130	1.890	284.920	-1.400	2.100																			1580079818.0	3.27	6.06
26/01/2020 23:03:39	26012020	260120	230339	284.650	12.265208	-56.478935	284.570	0.610	-0.980	2.190	284.580	-2.200	2.500																			1580079819.0	3.50	6.48
26/01/2020 23:03:40	26012020	260120	230340	284.380	12.265217	-56.478948	284.420	0.430	-1.400	1.820	284.360	-2.700	2.200																			1580079820.0	3.26	6.04
26/01/2020 23:03:41	26012020	260120	230341	284.320	12.265218	-56.478962	284.350	0.090	-1.140	1.080	284.310	-2.500	1.500																			1580079821.0	2.80	5.19
26/01/2020 23:03:42	26012020	260120	230342	284.220	12.265218	-56.478973	284.210	-0.280	-0.370	0.400	284.190	-1.800	0.800																			1580079822.0	2.44	4.52
26/01/2020 23:03:43	26012020	260120	230343	283.970	12.265217	-56.478983	283.900	-0.520	0.430	0.020	283.910	-1.000	0.400																			1580079823.0	2.26	4.19
26/01/2020 23:03:44	26012020	260120	230344	283.560	12.265217	-56.478995	283.470	-0.550	0.820	-0.060	283.470	-0.500	0.300																			1580079824.0	2.35	4.35
26/01/2020 23:03:45	26012020	260120	230345	283.090	12.265218	-56.479007	282.980	-0.390	0.690	0.050	282.990	-0.600	0.400																			1580079825.0	2.72	5.04
26/01/2020 23:03:46	26012020	260120	230346	282.630	12.265222	-56.479022	282.540	-0.140	0.230	0.310	282.540	-1.000	0.600																			1580079826.0	3.09	5.72
26/01/2020 23:03:47	26012020	260120	230347	282.220	12.265227	-56.479037	282.170	0.090	-0.290	0.630	282.160	-1.600	0.900																			1580079827.0	3.27	6.06
26/01/2020 23:03:48	26012020	260120	230348	281.950	12.265232	-56.479050	281.910	0.240	-0.560	0.930	281.910	-1.900	1.200																			1580079828.0	3.18	5.89
26/01/2020 23:03:49	26012020	260120	230349	281.780	12.265238	-56.479063	281.770	0.270	-0.430	1.170	281.750	-1.800	1.500																			1580079829.0	2.90	5.37
26/01/2020 23:03:50	26012020	260120	230350	281.650	12.265243	-56.479073	281.650	0.210	-0.040	1.340	281.630	-1.400	1.700																			1580079830.0	2.54	4.70
26/01/2020 23:03:51	26012020	260120	230351	281.540	12.265247	-56.479085	281.540	0.150	0.170	1.350	281.520	-1.200	1.700																			1580079831.0	2.36	4.37
26/01/2020 23:03:52	26012020	260120	230352	281.480	12.265250	-56.479097	281.510	0.160	-0.080	1.080	281.490	-1.400	1.500																			1580079832.0	2.63	4.87
26/01/2020 23:03:53	26012020	260120	230353	281.520	12.265253	-56.479112	281.540	0.200	-0.510	0.610	281.530	-1.800	1.000																			1580079833.0	3.18	5.89
26/01/2020 23:03:54	26012020	260120	230354	281.570	12.265255	-56.479127	281.570	0.160	-0.620	0.170	281.580	-2.000	0.600																			1580079834.0	3.38	6.26
26/01/2020 23:03:55	26012020	260120	230355	281.580	12.265257	-56.479142	281.560	-0.010	-0.330	-0.040	281.570	-1.700	0.300																			1580079835.0	3.09	5.72
26/01/2020 23:03:56	26012020	260120	230356	281.520	12.265258	-56.479155	281.490	-0.230	0.060	-0.070	281.500	-1.300	0.300																			1580079836.0	2.73	5.06
26/01/2020 23:03:57	26012020	260120	230357	281.430	12.265260	-56.479167	281.390	-0.370	0.250	-0.020	281.410	-1.100	0.300																			1580079837.0	2.69	4.98
26/01/2020 23:03:58	26012020	260120	230358	281.290	12.265262	-56.479180	281.230	-0.360	0.190	0.070	281.260	-1.100	0.400																			1580079838.0	2.92	5.41
26/01/2020 23:03:59	26012020	260120	230359	281.120	12.265263	-56.479195	281.060	-0.270	0.020	0.190	281.080	-1.300	0.500																			1580079839.0	3.15	5.83
26/01/2020 23:04:00	26012020	260120	230400	280.940	12.265267	-56.479210	280.890	-0.180	-0.090	0.460	280.910	-1.400	0.800	1015.00	26.10	26.10	21.20	21.20	-1.00	74.00	74.00	378.00	25.10	120.00	4.20	66.00	5.10	15	3862.00	27.60	27.60	1580079840.0	3.22	5.96
26/01/2020 23:04:01	26012020	260120	230401	280.810	12.265270	-56.479225	280.780	-0.100	-0.060	0.870	280.800	-1.400	1.200																			1580079841.0	3.12	5.78
26/01/2020 23:04:02	26012020	260120	230402	280.770	12.265275	-56.479238	280.790	0.040	0.020	1.240	280.780	-1.300	1.600																			1580079842.0	3.03	5.61
26/01/2020 23:04:03	26012020	260120	230403	280.850	12.265282	-56.479252	280.890	0.250	-0.050	1.330	280.870	-1.400	1.700																			1580079843.0	3.01	5.57
26/01/2020 23:04:04	26012020	260120	230404	280.990	12.265285	-56.479265	281.030	0.430	-0.330	1.070	281.020	-1.600	1.500																			1580079844.0	3.16	5.85
26/01/2020 23:04:05	26012020	260120	230405	281.090	12.265288	-56.479282	281.140	0.470	-0.640	0.600	281.110	-1.900	1.000																			1580079845.0	3.39	6.28
26/01/2020 23:04:06	26012020	260120	230406	281.160	12.265290	-56.479297	281.160	0.320	-0.720	0.150	281.160	-2.100	0.500																			1580079846.0	3.49	6.46
26/01/2020 23:04:07	26012020	260120	230407	281.150	12.265290	-56.479313	281.120	0.050	-0.410	-0.170	281.140	-1.800	0.200																			1580079847.0	3.35	6.20
26/01/2020 23:04:08	26012020	260120	230408	281.080	12.265292	-56.479328	281.030	-0.230	0.170	-0.310	281.060	-1.200	0.100																			1580079848.0	3.06	5.67
26/01/2020 23:04:09	26012020	260120	230409	280.940	12.265293	-56.479342	280.870	-0.440	0.700	-0.290	280.910	-0.700	0.100																			1580079849.0	2.84	5.26
26/01/2020 23:04:10	26012020	260120	230410	280.750	12.265297	-56.479355	280.660	-0.520	0.780	-0.220	280.700	-0.500	0.100																			1580079850.0	2.89	5.35
26/01/2020 23:04:11	26012020	260120	230411	280.530	12.265298	-56.479370	280.460	-0.440	0.290	-0.190	280.490	-1.000	0.200																			1580079851.0	3.30	6.11
26/01/2020 23:04:12	26012020	260120	230412	280.350	12.265300	-56.479388	280.280	-0.240	-0.460	-0.150	280.310	-1.700	0.200																			1580079852.0	3.80	7.04
26/01/2020 23:04:13	26012020	260120	230413	280.240	12.265302	-56.479407	280.200	0.020	-0.960	0.010	280.220	-2.300	0.300																			1580079853.0	4.00	7.41
26/01/2020 23:04:14	26012020	260120	230414	280.220	12.265305	-56.479423	280.210	0.240	-0.910	0.370	280.230	-2.300	0.700																			1580079854.0	3.76	6.96
26/01/2020 23:04:15	26012020	260120	230415	280.280	12.265312	-56.479438	280.290	0.360	-0.480	0.890	280.300	-1.900	1.200																			1580079855.0	3.38	6.26
26/01/2020 23:04:16	26012020	260120	230416	280.370	12.265318	-56.479453	280.390	0.380	-0.020	1.380	280.380	-1.400	1.700																			1580079856.0	3.26	6.04
26/01/2020 23:04:17	26012020	260120	230417	280.460	12.265325	-56.479467	280.480	0.310	0.240	1.690	280.470	-1.100	2.000																			1580079857.0	3.39	6.28
26/01/2020 23:04:18	26012020	260120	230418	280.530	12.265330	-56.479483	280.550	0.150	0.330	1.740	280.540	-1.000	2.100																			1580079858.0	3.57	6.61
26/01/2020 23:04:19	26012020	260120	230419	280.540	12.265333	-56.479500	280.530	-0.080	0.350	1.530	280.530	-1.000	1.900																			1580079859.0	3.65	6.76
26/01/2020 23:04:20	26012020	260120	230420	280.440	12.265335	-56.479517	280.400	-0.340	0.320	1.090	280.420	-1.000	1.500																			1580079860.0	3.64	6.74
26/01/2020 23:04:21	26012020	260120	230421	280.270	12.265335	-56.479535	280.200	-0.520	0.180	0.500	280.240	-1.100	0.900																			1580079861.0	3.68	6.82
26/01/2020 23:04:22	26012020	260120	230422	280.100	12.265332	-56.479552	280.050	-0.490	-0.090	-0.150	280.080	-1.400	0.300																			1580079862.0	3.80	7.04
26/01/2020 23:04:23	26012020	260120	230423	280.070	12.265330	-56.479570	280.060	-0.200	-0.530	-0.740	280.080	-1.800	-0.300																			1580079863.0	3.93	7.28
26/01/2020 23:04:24	26012020	260120	230424	280.240	12.265328	-56.479590	280.280	0.250	-0.940	-1.070	280.300	-2.200	-0.700																			1580079864.0	4.09	7.57
26/01/2020 23:04:25	26012020	260120	230425	280.590	12.265332	-56.479610	280.640	0.610	-1.020	-1.040	280.660	-2.400	-0.700																			1580079865.0	4.11	7.61
26/01/2020 23:04:26	26012020	260120	230426	280.880	12.265337	-56.479627	280.900	0.650	-0.620	-0.590	280.920	-2.000	-0.300																			1580079866.0	3.95	7.32
26/01/2020 23:04:27	26012020	260120	230427	280.960	12.265343	-56.479643	280.920	0.340	0.110	0.170	280.940	-1.300	0.400																			1580079867.0	3.69	6.83
26/01/2020 23:04:28	26012020	260120	230428	280.800	12.265350	-56.479658	280.720	-0.150	0.750	0.950	280.740	-0.600	1.200																			1580079868.0	3.51	6.50
26/01/2020 23:04:29	26012020	260120	230429	280.570	12.265357	-56.479673	280.430	-0.590	0.940	1.460	280.500	-0.400	1.800																			1580079869.0	3.55	6.57
26/01/2020 23:04:30	26012020	260120	230430	280.230	12.265362	-56.479692	280.190	-0.750	0.580	1.530	280.190	-0.700	1.900																			1580079870.0	3.86	7.15
26/01/2020 23:04:31	26012020	260120	230431	280.110	12.265363	-56.479712	280.090	-0.590	-0.080	1.210	280.100	-1.300	1.600																			1580079871.0	4.30	7.96
26/01/2020 23:04:32	26012020	260120	230432	280.140	12.265363	-56.479733	280.160	-0.190	-0.700	0.710	280.170	-2.000	1.100																			1580079872.0	4.54	8.41
26/01/2020 23:04:33	26012020	260120	230433	280.330	12.265362	-56.479753	280.360	0.260	-1.030	0.180	280.370	-2.300	0.600																			1580079873.0	4.48	8.30
26/01/2020 23:04:34	26012020	260120	230434	280.570	12.265363	-56.479773	280.600	0.540	-0.950	-0.170	280.610	-2.300	0.200																			1580079874.0	4.21	7.80
26/01/2020 23:04:35	26012020	260120	230435	280.740	12.265367	-56.479793	280.730	0.550	-0.480	-0.220	280.750	-1.900	0.100																			1580079875.0	3.96	7.33
26/01/2020 23:04:36	26012020	260120	230436	280.740	12.265370	-56.479810	280.690	0.310	0.190	0.030	280.720	-1.200	0.300																			1580079876.0	3.75	6.95
26/01/2020 23:04:37	26012020	260120	230437	280.600	12.265375	-56.479827	280.530	-0.000	0.740	0.380	280.560	-0.600	0.700																			1580079877.0	3.66	6.78
26/01/2020 23:04:38	26012020	260120	230438	280.390	12.265380	-56.479843	280.330	-0.210	0.820	0.580	280.360	-0.500	0.900																			1580079878.0	3.80	7.04
26/01/2020 23:04:39	26012020	260120	230439	280.240	12.265383	-56.479863	280.200	-0.200	0.400	0.510	280.220	-0.900	0.900																			1580079879.0	4.20	7.78
26/01/2020 23:04:40	26012020	260120	230440	280.200	12.265385	-56.479885	280.190	-0.050	-0.230	0.240	280.210	-1.500	0.600																			1580079880.0	4.61	8.54
26/01/2020 23:04:41	26012020	260120	230441	280.250	12.265387	-56.479907	280.260	0.100	-0.710	0.020	280.260	-2.000	0.400																			1580079881.0	4.71	8.72
26/01/2020 23:04:42	26012020	260120	230442	280.330	12.265388	-56.479928	280.320	0.100	-0.850	0.020	280.340	-2.200	0.400																			1580079882.0	4.51	8.35
26/01/2020 23:04:43	26012020	260120	230443	280.350	12.265392	-56.479948	280.320	-0.060	-0.680	0.270	280.340	-2.000	0.600																			1580079883.0	4.21	7.80
26/01/2020 23:04:44	26012020	260120	230444	280.310	12.265397	-56.479967	280.310	-0.230	-0.350	0.540	280.310	-1.700	0.900																			1580079884.0	4.04	7.48
26/01/2020 23:04:45	26012020	260120	230445	280.320	12.265400	-56.479985	280.320	-0.280	-0.020	0.680	280.320	-1.400	1.000																			1580079885.0	4.06	7.52
26/01/2020 23:04:46	26012020	260120	230446	280.350	12.265403	-56.480005	280.350	-0.200	0.220	0.700	280.350	-1.100	1.100																			1580079886.0	4.20	7.78
26/01/2020 23:04:47	26012020	260120	230447	280.350	12.265407	-56.480025	280.340	-0.040	0.280	0.650	280.340	-1.100	1.000																			1580079887.0	4.39	8.13
26/01/2020 23:04:48	26012020	260120	230448	280.330	12.265408	-56.480047	280.340	0.100	0.190	0.590	280.330	-1.100	1.000																			1580079888.0	4.58	8.48
26/01/2020 23:04:49	26012020	260120	230449	280.320	12.265412	-56.480068	280.320	0.200	0.050	0.560	280.320	-1.300	0.900																			1580079889.0	4.64	8.59
26/01/2020 23:04:50	26012020	260120	230450	280.320	12.265415	-56.480090	280.300	0.290	-0.130	0.610	280.320	-1.400	1.000																			1580079890.0	4.60	8.52
26/01/2020 23:04:51	26012020	260120	230451	280.320	12.265420	-56.480112	280.320	0.320	-0.340	0.650	280.330	-1.700	1.000																			1580079891.0	4.58	8.48
26/01/2020 23:04:52	26012020	260120	230452	280.370	12.265425	-56.480133	280.370	0.270	-0.470	0.580	280.380	-1.800	0.900																			1580079892.0	4.61	8.54
26/01/2020 23:04:53	26012020	260120	230453	280.410	12.265428	-56.480153	280.390	0.110	-0.330	0.380	280.420	-1.700	0.800																			1580079893.0	4.60	8.52
26/01/2020 23:04:54	26012020	260120	230454	280.410	12.265430	-56.480175	280.370	-0.100	0.030	0.080	280.390	-1.400	0.500																			1580079894.0	4.41	8.17
26/01/2020 23:04:55	26012020	260120	230455	280.360	12.265432	-56.480195	280.300	-0.260	0.310	-0.170	280.350	-1.000	0.200																			1580079895.0	4.29	7.95
26/01/2020 23:04:56	26012020	260120	230456	280.240	12.265432	-56.480217	280.180	-0.290	0.250	-0.210	280.200	-1.100	0.200																			1580079896.0	4.40	8.15
26/01/2020 23:04:57	26012020	260120	230457	280.110	12.265435	-56.480238	280.020	-0.200	-0.130	-0.010	280.080	-1.400	0.300																			1580079897.0	4.72	8.74
26/01/2020 23:04:58	26012020	260120	230458	279.960	12.265438	-56.480262	279.930	-0.070	-0.530	0.270	279.940	-1.800	0.600																			1580079898.0	5.00	9.26
26/01/2020 23:04:59	26012020	260120	230459	279.970	12.265442	-56.480285	279.990	0.070	-0.700	0.480	279.990	-2.000	0.800																			1580079899.0	5.01	9.28
26/01/2020 23:05:00	26012020	260120	230500	280.140	12.265447	-56.480307	280.180	0.160	-0.560	0.550	280.190	-1.900	0.900	1015.00	26.00	26.10	20.90	20.90	-1.00	73.00	73.00	377.00	25.10	127.00	3.50	66.00	5.00	15	3793.00	27.60	27.60	1580079900.0	4.83	8.95
26/01/2020 23:05:01	26012020	260120	230501	280.390	12.265452	-56.480328	280.430	0.190	-0.240	0.570	280.440	-1.600	0.900																			1580079901.0	4.66	8.63
26/01/2020 23:05:02	26012020	260120	230502	280.600	12.265455	-56.480350	280.630	0.140	0.100	0.680	280.630	-1.300	1.000																			1580079902.0	4.60	8.52
26/01/2020 23:05:03	26012020	260120	230503	280.680	12.265460	-56.480372	280.650	0.050	0.280	0.910	280.670	-1.100	1.200																			1580079903.0	4.68	8.67
26/01/2020 23:05:04	26012020	260120	230504	280.580	12.265465	-56.480393	280.540	-0.020	0.230	1.180	280.540	-1.100	1.500																			1580079904.0	4.87	9.02
26/01/2020 23:05:05	26012020	260120	230505	280.370	12.265470	-56.480417	280.310	-0.060	0.080	1.260	280.320	-1.200	1.600																			1580079905.0	5.04	9.33
26/01/2020 23:05:06	26012020	260120	230506	280.160	12.265473	-56.480442	280.110	-0.090	-0.050	1.000	280.140	-1.400	1.400																			1580079906.0	5.10	9.45
26/01/2020 23:05:07	26012020	260120	230507	280.050	12.265473	-56.480465	280.000	-0.120	-0.100	0.440	280.040	-1.400	0.900																			1580079907.0	5.01	9.28
26/01/2020 23:05:08	26012020	260120	230508	280.000	12.265473	-56.480488	279.950	-0.120	-0.120	-0.160	280.000	-1.400	0.300																			1580079908.0	4.93	9.13
26/01/2020 23:05:09	26012020	260120	230509	280.000	12.265473	-56.480512	279.960	-0.050	-0.170	-0.520	280.010	-1.500	-0.100																			1580079909.0	4.89	9.06
26/01/2020 23:05:10	26012020	260120	230510	280.070	12.265475	-56.480535	280.040	0.080	-0.270	-0.560	280.090	-1.600	-0.200																			1580079910.0	4.94	9.15
26/01/2020 23:05:11	26012020	260120	230511	280.210	12.265480	-56.480558	280.210	0.190	-0.320	-0.360	280.240	-1.600	-0.000																			1580079911.0	5.03	9.32
26/01/2020 23:05:12	26012020	260120	230512	280.390	12.265485	-56.480582	280.400	0.230	-0.310	-0.100	280.430	-1.600	0.200																			1580079912.0	5.05	9.35
26/01/2020 23:05:13	26012020	260120	230513	280.570	12.265492	-56.480605	280.570	0.170	-0.320	0.120	280.600	-1.600	0.500																			1580079913.0	5.04	9.33
26/01/2020 23:05:14	26012020	260120	230514	280.690	12.265497	-56.480628	280.690	0.030	-0.400	0.280	280.700	-1.700	0.600																			1580079914.0	5.13	9.50
26/01/2020 23:05:15	26012020	260120	230515	280.730	12.265500	-56.480653	280.720	-0.150	-0.390	0.440	280.730	-1.700	0.800																			1580079915.0	5.25	9.72
26/01/2020 23:05:16	26012020	260120	230516	280.710	12.265503	-56.480677	280.690	-0.330	-0.150	0.660	280.700	-1.500	1.000																			1580079916.0	5.24	9.70
26/01/2020 23:05:17	26012020	260120	230517	280.630	12.265507	-56.480700	280.600	-0.420	0.240	0.920	280.610	-1.100	1.300																			1580079917.0	5.04	9.33
26/01/2020 23:05:18	26012020	260120	230518	280.500	12.265510	-56.480723	280.460	-0.330	0.500	1.110	280.480	-0.800	1.500																			1580079918.0	4.94	9.15
26/01/2020 23:05:19	26012020	260120	230519	280.410	12.265515	-56.480747	280.340	-0.060	0.420	1.150	280.380	-0.900	1.500																			1580079919.0	5.06	9.37
26/01/2020 23:05:20	26012020	260120	230520	280.290	12.265518	-56.480772	280.240	0.270	0.060	0.980	280.260	-1.200	1.400																			1580079920.0	5.37	9.95
26/01/2020 23:05:21	26012020	260120	230521	280.180	12.265523	-56.480798	280.120	0.470	-0.320	0.660	280.150	-1.600	1.100																			1580079921.0	5.59	10.35
26/01/2020 23:05:22	26012020	260120	230522	280.080	12.265527	-56.480825	280.020	0.430	-0.450	0.260	280.060	-1.800	0.700																			1580079922.0	5.51	10.20
26/01/2020 23:05:23	26012020	260120	230523	280.030	12.265528	-56.480848	280.000	0.210	-0.350	-0.120	280.030	-1.700	0.300																			1580079923.0	5.20	9.63
26/01/2020 23:05:24	26012020	260120	230524	280.070	12.265530	-56.480872	280.060	-0.060	-0.230	-0.450	280.090	-1.600	-0.100																			1580079924.0	4.99	9.24
26/01/2020 23:05:25	26012020	260120	230525	280.180	12.265532	-56.480897	280.170	-0.250	-0.270	-0.680	280.210	-1.600	-0.300																			1580079925.0	5.05	9.35
26/01/2020 23:05:26	26012020	260120	230526	280.330	12.265533	-56.480922	280.340	-0.320	-0.420	-0.740	280.370	-1.700	-0.400																			1580079926.0	5.31	9.83
26/01/2020 23:05:27	26012020	260120	230527	280.510	12.265537	-56.480947	280.530	-0.270	-0.540	-0.560	280.540	-1.900	-0.200																			1580079927.0	5.55	10.28
26/01/2020 23:05:28	26012020	260120	230528	280.650	12.265540	-56.480973	280.660	-0.150	-0.450	-0.100	280.670	-1.800	0.200																			1580079928.0	5.64	10.45
26/01/2020 23:05:29	26012020	260120	230529	280.670	12.265547	-56.481000	280.650	-0.020	-0.160	0.580	280.650	-1.500	0.900																			1580079929.0	5.57	10.32
26/01/2020 23:05:30	26012020	260120	230530	280.560	12.265555	-56.481025	280.540	0.070	0.180	1.280	280.530	-1.200	1.600																			1580079930.0	5.50	10.19
26/01/2020 23:05:31	26012020	260120	230531	280.390	12.265562	-56.481048	280.370	0.090	0.480	1.760	280.360	-0.900	2.100																			1580079931.0	5.45	10.09
26/01/2020 23:05:32	26012020	260120	230532	280.250	12.265568	-56.481073	280.220	0.030	0.630	1.850	280.220	-0.700	2.200																			1580079932.0	5.38	9.96
26/01/2020 23:05:33	26012020	260120	230533	280.170	12.265573	-56.481098	280.140	-0.060	0.520	1.480	280.160	-0.800	1.900																			1580079933.0	5.33	9.87
26/01/2020 23:05:34	26012020	260120	230534	280.160	12.265573	-56.481123	280.160	-0.070	0.150	0.740	280.180	-1.100	1.200																			1580079934.0	5.45	10.09
26/01/2020 23:05:35	26012020	260120	230535	280.250	12.265573	-56.481150	280.230	0.050	-0.390	-0.090	280.270	-1.700	0.400																			1580079935.0	5.67	10.50
26/01/2020 23:05:36	26012020	260120	230536	280.360	12.265572	-56.481178	280.340	0.250	-0.920	-0.740	280.380	-2.200	-0.300																			1580079936.0	5.84	10.82
26/01/2020 23:05:37	26012020	260120	230537	280.440	12.265573	-56.481207	280.410	0.400	-1.220	-1.020	280.450	-2.500	-0.600																			1580079937.0	5.87	10.87
26/01/2020 23:05:38	26012020	260120	230538	280.450	12.265577	-56.481233	280.400	0.350	-1.080	-0.940	280.440	-2.400	-0.600																			1580079938.0	5.79	10.72
26/01/2020 23:05:39	26012020	260120	230539	280.390	12.265582	-56.481258	280.360	0.060	-0.490	-0.580	280.380	-1.900	-0.300																			1580079939.0	5.59	10.35
26/01/2020 23:05:40	26012020	260120	230540	280.330	12.265588	-56.481283	280.320	-0.340	0.330	-0.060	280.320	-1.100	0.200																			1580079940.0	5.35	9.91
26/01/2020 23:05:41	26012020	260120	230541	280.290	12.265595	-56.481307	280.300	-0.630	0.930	0.420	280.290	-0.400	0.700																			1580079941.0	5.20	9.63
26/01/2020 23:05:42	26012020	260120	230542	280.330	12.265600	-56.481332	280.360	-0.640	0.920	0.690	280.360	-0.400	1.000																			1580079942.0	5.35	9.91
26/01/2020 23:05:43	26012020	260120	230543	280.480	12.265605	-56.481358	280.530	-0.350	0.280	0.690	280.530	-1.000	1.100																			1580079943.0	5.86	10.85
26/01/2020 23:05:44	26012020	260120	230544	280.690	12.265608	-56.481388	280.720	0.070	-0.530	0.580	280.720	-1.800	1.000																			1580079944.0	6.37	11.80
26/01/2020 23:05:45	26012020	260120	230545	280.800	12.265610	-56.481420	280.790	0.410	-0.920	0.630	280.810	-2.200	1.000																			1580079945.0	6.42	11.89
26/01/2020 23:05:46	26012020	260120	230546	280.690	12.265615	-56.481447	280.610	0.520	-0.710	0.920	280.640	-2.100	1.200																			1580079946.0	5.97	11.06
26/01/2020 23:05:47	26012020	260120	230547	280.430	12.265622	-56.481472	280.260	0.410	-0.140	1.280	280.360	-1.500	1.600																			1580079947.0	5.50	10.19
26/01/2020 23:05:48	26012020	260120	230548	280.010	12.265628	-56.481497	279.930	0.180	0.340	1.390	279.960	-1.000	1.800																			1580079948.0	5.28	9.78
26/01/2020 23:05:49	26012020	260120	230549	279.850	12.265633	-56.481522	279.830	0.030	0.410	1.070	279.850	-0.900	1.500																			1580079949.0	5.43	10.06
26/01/2020 23:05:50	26012020	260120	230550	279.970	12.265637	-56.481550	280.010	0.000	0.100	0.370	280.030	-1.200	0.800																			1580079950.0	5.86	10.85
26/01/2020 23:05:51	26012020	260120	230551	280.300	12.265637	-56.481578	280.330	0.040	-0.300	-0.420	280.370	-1.600	0.000																			1580079951.0	6.24	11.56
26/01/2020 23:05:52	26012020	260120	230552	280.630	12.265638	-56.481608	280.650	0.040	-0.540	-1.000	280.690	-1.900	-0.600																			1580079952.0	6.30	11.67
26/01/2020 23:05:53	26012020	260120	230553	280.870	12.265640	-56.481637	280.860	-0.050	-0.540	-1.230	280.900	-1.900	-0.900																			1580079953.0	6.13	11.35
26/01/2020 23:05:54	26012020	260120	230554	280.990	12.265642	-56.481665	280.970	-0.180	-0.380	-1.150	281.000	-1.700	-0.800																			1580079954.0	5.93	10.98
26/01/2020 23:05:55	26012020	260120	230555	281.020	12.265645	-56.481693	280.980	-0.300	-0.220	-0.750	281.020	-1.600	-0.400																			1580079955.0	5.83	10.80
26/01/2020 23:05:56	26012020	260120	230556	280.960	12.265650	-56.481720	280.910	-0.330	-0.210	-0.080	280.930	-1.500	0.200																			1580079956.0	5.95	11.02
26/01/2020 23:05:57	26012020	260120	230557	280.820	12.265657	-56.481748	280.770	-0.230	-0.240	0.720	280.790	-1.600	1.000																			1580079957.0	6.20	11.48
26/01/2020 23:05:58	26012020	260120	230558	280.700	12.265663	-56.481778	280.670	-0.010	-0.190	1.440	280.680	-1.500	1.700																			1580079958.0	6.37	11.80
26/01/2020 23:05:59	26012020	260120	230559	280.610	12.265672	-56.481807	280.590	0.230	0.040	1.930	280.590	-1.300	2.200																			1580079959.0	6.34	11.74
26/01/2020 23:06:00	26012020	260120	230600	280.520	12.265680	-56.481835	280.510	0.370	0.340	2.080	280.500	-1.000	2.400	1015.00	26.00	26.00	20.90	20.90	-1.00	73.00	73.00	378.00	25.10	116.00	2.60	70.00	4.60	15	3662.00	27.60	27.60	1580079960.0	6.20	11.48
26/01/2020 23:06:01	26012020	260120	230601	280.420	12.265688	-56.481862	280.400	0.330	0.550	1.840	280.400	-0.800	2.200																			1580079961.0	6.01	11.13
26/01/2020 23:06:02	26012020	260120	230602	280.300	12.265692	-56.481890	280.250	0.170	0.480	1.210	280.270	-0.800	1.700																			1580079962.0	5.97	11.06
26/01/2020 23:06:03	26012020	260120	230603	280.200	12.265693	-56.481918	280.160	0.030	0.080	0.300	280.200	-1.200	0.800																			1580079963.0	6.14	11.37
26/01/2020 23:06:04	26012020	260120	230604	280.220	12.265693	-56.481950	280.210	-0.000	-0.490	-0.680	280.250	-1.800	-0.200																			1580079964.0	6.46	11.96
26/01/2020 23:06:05	26012020	260120	230605	280.380	12.265692	-56.481982	280.380	0.050	-0.960	-1.460	280.430	-2.200	-1.000																			1580079965.0	6.66	12.33
26/01/2020 23:06:06	26012020	260120	230606	280.610	12.265692	-56.482012	280.610	0.120	-1.100	-1.770	280.660	-2.400	-1.400																			1580079966.0	6.61	12.24
26/01/2020 23:06:07	26012020	260120	230607	280.790	12.265693	-56.482043	280.780	0.100	-0.860	-1.490	280.810	-2.200	-1.200																			1580079967.0	6.40	11.85
26/01/2020 23:06:08	26012020	260120	230608	280.870	12.265700	-56.482072	280.840	-0.050	-0.350	-0.760	280.870	-1.700	-0.500																			1580079968.0	6.21	11.50
26/01/2020 23:06:09	26012020	260120	230609	280.860	12.265708	-56.482098	280.810	-0.290	0.200	0.170	280.850	-1.200	0.400																			1580079969.0	6.17	11.43
26/01/2020 23:06:10	26012020	260120	230610	280.750	12.265717	-56.482127	280.720	-0.460	0.520	1.060	280.730	-0.800	1.300																			1580079970.0	6.22	11.52
26/01/2020 23:06:11	26012020	260120	230611	280.640	12.265725	-56.482157	280.640	-0.380	0.470	1.720	280.630	-0.800	2.000																			1580079971.0	6.41	11.87
26/01/2020 23:06:12	26012020	260120	230612	280.580	12.265732	-56.482187	280.600	-0.040	0.150	2.050	280.580	-1.100	2.400																			1580079972.0	6.71	12.43
26/01/2020 23:06:13	26012020	260120	230613	280.610	12.265738	-56.482220	280.650	0.390	-0.150	2.050	280.630	-1.500	2.400																			1580079973.0	6.89	12.76
26/01/2020 23:06:14	26012020	260120	230614	280.690	12.265743	-56.482252	280.680	0.610	-0.210	1.790	280.690	-1.500	2.200																			1580079974.0	6.79	12.58
26/01/2020 23:06:15	26012020	260120	230615	280.690	12.265750	-56.482282	280.660	0.490	-0.090	1.340	280.680	-1.400	1.800																			1580079975.0	6.48	12.00
26/01/2020 23:06:16	26012020	260120	230616	280.610	12.265753	-56.482310	280.560	0.130	0.000	0.660	280.590	-1.300	1.100																			1580079976.0	6.28	11.63
26/01/2020 23:06:17	26012020	260120	230617	280.490	12.265755	-56.482340	280.410	-0.250	-0.130	-0.160	280.470	-1.400	0.300																			1580079977.0	6.38	11.82
26/01/2020 23:06:18	26012020	260120	230618	280.390	12.265753	-56.482372	280.340	-0.460	-0.430	-1.010	280.380	-1.700	-0.600																			1580079978.0	6.71	12.43
26/01/2020 23:06:19	26012020	260120	230619	280.390	12.265753	-56.482405	280.340	-0.420	-0.670	-1.720	280.400	-2.000	-1.300																			1580079979.0	6.98	12.93
26/01/2020 23:06:20	26012020	260120	230620	280.500	12.265752	-56.482438	280.510	-0.190	-0.680	-2.060	280.540	-2.000	-1.700																			1580079980.0	6.96	12.89
26/01/2020 23:06:21	26012020	260120	230621	280.720	12.265755	-56.482470	280.750	0.120	-0.500	-1.870	280.770	-1.900	-1.600																			1580079981.0	6.79	12.58
26/01/2020 23:06:22	26012020	260120	230622	280.940	12.265762	-56.482502	280.980	0.330	-0.170	-1.090	280.980	-1.500	-0.800																			1580079982.0	6.70	12.41
26/01/2020 23:06:23	26012020	260120	230623	281.030	12.265772	-56.482532	281.030	0.360	0.240	0.150	281.030	-1.100	0.300																			1580079983.0	6.71	12.43
26/01/2020 23:06:24	26012020	260120	230624	280.910	12.265783	-56.482560	280.860	0.190	0.570	1.500	280.850	-0.800	1.700																			1580079984.0	6.73	12.46
26/01/2020 23:06:25	26012020	260120	230625	280.590	12.265797	-56.482590	280.530	-0.060	0.580	2.550	280.520	-0.700	2.800																			1580079985.0	6.75	12.50
26/01/2020 23:06:26	26012020	260120	230626	280.240	12.265807	-56.482620	280.200	-0.240	0.210	2.940	280.180	-1.100	3.300																			1580079986.0	6.86	12.70
26/01/2020 23:06:27	26012020	260120	230627	280.020	12.265813	-56.482653	280.030	-0.240	-0.380	2.570	279.990	-1.600	3.000																			1580079987.0	7.09	13.13
26/01/2020 23:06:28	26012020	260120	230628	279.970	12.265815	-56.482688	279.990	-0.070	-0.860	1.650	279.980	-2.100	2.100																			1580079988.0	7.32	13.56
26/01/2020 23:06:29	26012020	260120	230629	280.030	12.265813	-56.482722	280.040	0.120	-0.940	0.540	280.040	-2.300	1.000																			1580079989.0	7.33	13.58
26/01/2020 23:06:30	26012020	260120	230630	280.130	12.265813	-56.482755	280.110	0.170	-0.610	-0.410	280.150	-2.000	0.000																			1580079990.0	7.03	13.02
26/01/2020 23:06:31	26012020	260120	230631	280.240	12.265813	-56.482787	280.230	0.060	-0.090	-0.990	280.260	-1.500	-0.600																			1580079991.0	6.66	12.33
26/01/2020 23:06:32	26012020	260120	230632	280.330	12.265815	-56.482818	280.310	-0.100	0.230	-1.150	280.350	-1.100	-0.800																			1580079992.0	6.53	12.09
26/01/2020 23:06:33	26012020	260120	230633	280.410	12.265820	-56.482850	280.380	-0.160	0.190	-1.010	280.430	-1.100	-0.700																			1580079993.0	6.78	12.56
26/01/2020 23:06:34	26012020	260120	230634	280.490	12.265825	-56.482883	280.470	-0.070	-0.090	-0.680	280.500	-1.400	-0.400																			1580079994.0	7.20	13.33
26/01/2020 23:06:35	26012020	260120	230635	280.550	12.265833	-56.482917	280.530	0.080	-0.300	-0.210	280.550	-1.600	0.100																			1580079995.0	7.44	13.78
26/01/2020 23:06:36	26012020	260120	230636	280.530	12.265840	-56.482952	280.480	0.140	-0.200	0.400	280.500	-1.500	0.700																			1580079996.0	7.36	13.63
26/01/2020 23:06:37	26012020	260120	230637	280.390	12.265848	-56.482983	280.260	0.000	0.190	1.000	280.340	-1.200	1.300																			1580079997.0	7.02	13.00
26/01/2020 23:06:38	26012020	260120	230638	280.050	12.265857	-56.483013	279.970	-0.230	0.500	1.310	280.000	-0.900	1.600																			1580079998.0	6.65	12.32
26/01/2020 23:06:39	26012020	260120	230639	279.830	12.265862	-56.483045	279.790	-0.320	0.360	1.180	279.810	-0.900	1.600																			1580079999.0	6.60	12.22
26/01/2020 23:06:40	26012020	260120	230640	279.810	12.265865	-56.483078	279.810	-0.130	-0.300	0.690	279.830	-1.500	1.100																			1580080000.0	7.03	13.02
26/01/2020 23:06:41	26012020	260120	230641	279.970	12.265867	-56.483113	279.990	0.270	-1.050	0.110	280.010	-2.300	0.500																			1580080001.0	7.57	14.02
26/01/2020 23:06:42	26012020	260120	230642	280.170	12.265870	-56.483150	280.190	0.560	-1.280	-0.290	280.200	-2.600	0.100																			1580080002.0	7.74	14.33
26/01/2020 23:06:43	26012020	260120	230643	280.240	12.265873	-56.483185	280.190	0.500	-0.800	-0.350	280.220	-2.200	-0.000																			1580080003.0	7.31	13.54
26/01/2020 23:06:44	26012020	260120	230644	280.090	12.265880	-56.483215	279.990	0.110	0.030	-0.130	280.040	-1.400	0.200																			1580080004.0	6.76	12.52
26/01/2020 23:06:45	26012020	260120	230645	279.790	12.265887	-56.483247	279.690	-0.330	0.600	0.110	279.720	-0.800	0.400																			1580080005.0	6.57	12.17
26/01/2020 23:06:46	26012020	260120	230646	279.480	12.265892	-56.483278	279.380	-0.530	0.580	0.220	279.420	-0.700	0.600																			1580080006.0	6.93	12.83
26/01/2020 23:06:47	26012020	260120	230647	279.240	12.265897	-56.483313	279.170	-0.410	0.130	0.240	279.210	-1.100	0.600																			1580080007.0	7.52	13.93
26/01/2020 23:06:48	26012020	260120	230648	279.100	12.265902	-56.483350	279.040	-0.170	-0.280	0.310	279.070	-1.600	0.600																			1580080008.0	7.87	14.58
26/01/2020 23:06:49	26012020	260120	230649	278.970	12.265907	-56.483387	278.900	-0.030	-0.310	0.460	278.940	-1.600	0.800																			1580080009.0	7.69	14.24
26/01/2020 23:06:50	26012020	260120	230650	278.790	12.265912	-56.483420	278.710	-0.060	-0.040	0.670	278.750	-1.400	1.000																			1580080010.0	7.19	13.32
26/01/2020 23:06:51	26012020	260120	230651	278.580	12.265917	-56.483452	278.510	-0.100	0.160	0.890	278.540	-1.200	1.200																			1580080011.0	6.81	12.61
26/01/2020 23:06:52	26012020	260120	230652	278.410	12.265922	-56.483483	278.380	0.030	-0.040	1.030	278.390	-1.300	1.400																			1580080012.0	6.89	12.76
26/01/2020 23:06:53	26012020	260120	230653	278.350	12.265927	-56.483518	278.340	0.340	-0.570	1.070	278.340	-1.800	1.400																			1580080013.0	7.37	13.65
26/01/2020 23:06:54	26012020	260120	230654	278.330	12.265933	-56.483555	278.310	0.630	-0.960	1.090	278.330	-2.300	1.400																			1580080014.0	7.79	14.43
26/01/2020 23:06:55	26012020	260120	230655	278.300	12.265938	-56.483590	278.240	0.640	-0.760	1.120	278.280	-2.100	1.500																			1580080015.0	7.74	14.33
26/01/2020 23:06:56	26012020	260120	230656	278.190	12.265945	-56.483625	278.110	0.280	-0.070	1.090	278.150	-1.500	1.400																			1580080016.0	7.26	13.45
26/01/2020 23:06:57	26012020	260120	230657	277.990	12.265950	-56.483657	277.890	-0.230	0.600	0.900	277.940	-0.800	1.300																			1580080017.0	6.83	12.65
26/01/2020 23:06:58	26012020	260120	230658	277.750	12.265953	-56.483688	277.660	-0.570	0.720	0.500	277.710	-0.600	0.900																			1580080018.0	6.88	12.74
26/01/2020 23:06:59	26012020	260120	230659	277.590	12.265955	-56.483723	277.500	-0.560	0.190	-0.080	277.570	-1.100	0.300																			1580080019.0	7.43	13.76
26/01/2020 23:07:00	26012020	260120	230700	277.510	12.265955	-56.483762	277.480	-0.310	-0.610	-0.680	277.520	-1.800	-0.300	1015.00	26.00	26.10	21.00	21.00	-1.00	73.00	73.00	378.00	25.10	102.00	2.40	70.00	4.60	15	3745.00	27.60	27.60	1580080020.0	8.05	14.91
26/01/2020 23:07:01	26012020	260120	230701	277.570	12.265955	-56.483800	277.540	-0.040	-1.070	-1.020	277.590	-2.400	-0.600																			1580080021.0	8.22	15.22
26/01/2020 23:07:02	26012020	260120	230702	277.630	12.265957	-56.483838	277.580	0.050	-0.940	-0.890	277.630	-2.300	-0.600																			1580080022.0	7.87	14.58
26/01/2020 23:07:03	26012020	260120	230703	277.580	12.265962	-56.483872	277.510	-0.030	-0.360	-0.310	277.560	-1.800	-0.100																			1580080023.0	7.35	13.61
26/01/2020 23:07:04	26012020	260120	230704	277.440	12.265968	-56.483905	277.380	-0.150	0.280	0.500	277.400	-1.100	0.700																			1580080024.0	7.09	13.13
26/01/2020 23:07:05	26012020	260120	230705	277.210	12.265977	-56.483938	277.160	-0.150	0.610	1.260	277.160	-0.700	1.500																			1580080025.0	7.18	13.30
26/01/2020 23:07:06	26012020	260120	230706	276.950	12.265985	-56.483973	276.910	0.010	0.510	1.760	276.890	-0.800	2.100																			1580080026.0	7.51	13.91
26/01/2020 23:07:07	26012020	260120	230707	276.680	12.265992	-56.484008	276.660	0.240	0.190	1.920	276.630	-1.100	2.300																			1580080027.0	7.82	14.48
26/01/2020 23:07:08	26012020	260120	230708	276.470	12.265997	-56.484045	276.480	0.380	-0.110	1.760	276.430	-1.400	2.100																			1580080028.0	7.85	14.54
26/01/2020 23:07:09	26012020	260120	230709	276.350	12.266000	-56.484082	276.370	0.400	-0.320	1.330	276.330	-1.600	1.700																			1580080029.0	7.69	14.24
26/01/2020 23:07:10	26012020	260120	230710	276.290	12.266003	-56.484117	276.330	0.320	-0.470	0.740	276.290	-1.800	1.200																			1580080030.0	7.54	13.96
26/01/2020 23:07:11	26012020	260120	230711	276.280	12.266003	-56.484153	276.310	0.190	-0.590	0.130	276.270	-1.900	0.500																			1580080031.0	7.54	13.96
26/01/2020 23:07:12	26012020	260120	230712	276.250	12.266005	-56.484188	276.250	0.020	-0.660	-0.390	276.240	-2.000	0.000																			1580080032.0	7.61	14.09
26/01/2020 23:07:13	26012020	260120	230713	276.200	12.266005	-56.484225	276.180	-0.200	-0.620	-0.680	276.180	-1.900	-0.300																			1580080033.0	7.69	14.24
26/01/2020 23:07:14	26012020	260120	230714	276.060	12.266007	-56.484262	276.050	-0.410	-0.470	-0.680	276.030	-1.800	-0.300																			1580080034.0	7.73	14.32
26/01/2020 23:07:15	26012020	260120	230715	275.950	12.266010	-56.484298	275.940	-0.510	-0.260	-0.450	275.930	-1.600	-0.100																			1580080035.0	7.76	14.37
26/01/2020 23:07:16	26012020	260120	230716	275.890	12.266013	-56.484335	275.900	-0.440	-0.040	-0.080	275.880	-1.400	0.200																			1580080036.0	7.82	14.48
26/01/2020 23:07:17	26012020	260120	230717	275.860	12.266018	-56.484372	275.880	-0.270	0.170	0.350	275.850	-1.200	0.600																			1580080037.0	7.91	14.65
26/01/2020 23:07:18	26012020	260120	230718	275.780	12.266025	-56.484410	275.780	-0.070	0.360	0.790	275.750	-1.000	1.100																			1580080038.0	7.91	14.65
26/01/2020 23:07:19	26012020	260120	230719	275.560	12.266030	-56.484447	275.540	0.090	0.450	1.200	275.500	-0.900	1.500																			1580080039.0	7.86	14.56
26/01/2020 23:07:20	26012020	260120	230720	275.190	12.266035	-56.484483	275.160	0.180	0.350	1.530	275.110	-1.000	1.800																			1580080040.0	7.84	14.52
26/01/2020 23:07:21	26012020	260120	230721	274.770	12.266040	-56.484520	274.750	0.280	0.060	1.730	274.680	-1.200	2.100																			1580080041.0	7.90	14.63
26/01/2020 23:07:22	26012020	260120	230722	274.380	12.266045	-56.484557	274.380	0.400	-0.320	1.730	274.310	-1.600	2.100																			1580080042.0	8.02	14.85
26/01/2020 23:07:23	26012020	260120	230723	274.130	12.266048	-56.484595	274.180	0.480	-0.590	1.460	274.110	-1.900	1.800																			1580080043.0	8.07	14.95
26/01/2020 23:07:24	26012020	260120	230724	274.080	12.266052	-56.484633	274.180	0.390	-0.600	0.930	274.090	-1.900	1.300																			1580080044.0	7.95	14.72
26/01/2020 23:07:25	26012020	260120	230725	274.150	12.266052	-56.484670	274.270	0.110	-0.450	0.320	274.170	-1.800	0.700																			1580080045.0	7.74	14.33
26/01/2020 23:07:26	26012020	260120	230726	274.260	12.266052	-56.484707	274.330	-0.210	-0.320	-0.220	274.260	-1.700	0.200																			1580080046.0	7.70	14.26
26/01/2020 23:07:27	26012020	260120	230727	274.290	12.266052	-56.484743	274.340	-0.410	-0.330	-0.540	274.290	-1.700	-0.200																			1580080047.0	7.87	14.58
26/01/2020 23:07:28	26012020	260120	230728	274.270	12.266052	-56.484782	274.330	-0.380	-0.430	-0.560	274.270	-1.700	-0.200																			1580080048.0	8.14	15.08
26/01/2020 23:07:29	26012020	260120	230729	274.240	12.266052	-56.484822	274.290	-0.160	-0.510	-0.290	274.230	-1.800	0.000																			1580080049.0	8.35	15.46
26/01/2020 23:07:30	26012020	260120	230730	274.190	12.266055	-56.484862	274.240	0.090	-0.440	0.240	274.170	-1.800	0.500																			1580080050.0	8.44	15.63
26/01/2020 23:07:31	26012020	260120	230731	274.060	12.266062	-56.484900	274.100	0.160	-0.150	0.920	274.020	-1.500	1.200																			1580080051.0	8.40	15.56
26/01/2020 23:07:32	26012020	260120	230732	273.870	12.266068	-56.484938	273.920	0.030	0.260	1.510	273.840	-1.100	1.800																			1580080052.0	8.22	15.22
26/01/2020 23:07:33	26012020	260120	230733	273.710	12.266073	-56.484977	273.780	-0.190	0.580	1.720	273.680	-0.800	2.100																			1580080053.0	8.04	14.89
26/01/2020 23:07:34	26012020	260120	230734	273.620	12.266078	-56.485013	273.700	-0.320	0.580	1.500	273.610	-0.700	1.900																			1580080054.0	8.03	14.87
26/01/2020 23:07:35	26012020	260120	230735	273.600	12.266078	-56.485053	273.680	-0.260	0.320	1.010	273.590	-1.000	1.400																			1580080055.0	8.21	15.20
26/01/2020 23:07:36	26012020	260120	230736	273.580	12.266077	-56.485092	273.640	-0.070	-0.080	0.500	273.570	-1.400	0.900																			1580080056.0	8.40	15.56
26/01/2020 23:07:37	26012020	260120	230737	273.520	12.266075	-56.485132	273.580	0.130	-0.430	0.180	273.510	-1.700	0.600																			1580080057.0	8.45	15.65
26/01/2020 23:07:38	26012020	260120	230738	273.450	12.266075	-56.485172	273.490	0.270	-0.660	0.110	273.440	-2.000	0.500																			1580080058.0	8.32	15.41
26/01/2020 23:07:39	26012020	260120	230739	273.360	12.266077	-56.485210	273.410	0.340	-0.780	0.280	273.340	-2.100	0.600																			1580080059.0	8.24	15.26
26/01/2020 23:07:40	26012020	260120	230740	273.260	12.266080	-56.485250	273.310	0.370	-0.770	0.560	273.240	-2.100	0.900																			1580080060.0	8.25	15.28
26/01/2020 23:07:41	26012020	260120	230741	273.180	12.266085	-56.485288	273.220	0.360	-0.620	0.830	273.170	-2.000	1.200																			1580080061.0	8.31	15.39
26/01/2020 23:07:42	26012020	260120	230742	273.170	12.266090	-56.485327	273.240	0.240	-0.380	0.950	273.180	-1.700	1.300																			1580080062.0	8.35	15.46
26/01/2020 23:07:43	26012020	260120	230743	273.280	12.266093	-56.485367	273.390	-0.010	-0.090	0.790	273.320	-1.400	1.200																			1580080063.0	8.39	15.54
26/01/2020 23:07:44	26012020	260120	230744	273.480	12.266095	-56.485407	273.580	-0.310	0.210	0.460	273.520	-1.100	0.900																			1580080064.0	8.40	15.56
26/01/2020 23:07:45	26012020	260120	230745	273.660	12.266095	-56.485447	273.740	-0.540	0.380	0.090	273.690	-1.000	0.500																			1580080065.0	8.42	15.59
26/01/2020 23:07:46	26012020	260120	230746	273.790	12.266093	-56.485487	273.860	-0.580	0.330	-0.170	273.810	-1.000	0.200																			1580080066.0	8.52	15.78
26/01/2020 23:07:47	26012020	260120	230747	273.840	12.266092	-56.485528	273.870	-0.420	0.090	-0.150	273.830	-1.200	0.200																			1580080067.0	8.66	16.04
26/01/2020 23:07:48	26012020	260120	230748	273.740	12.266093	-56.485568	273.750	-0.140	-0.220	0.160	273.700	-1.500	0.500																			1580080068.0	8.74	16.19
26/01/2020 23:07:49	26012020	260120	230749	273.560	12.266095	-56.485610	273.490	0.120	-0.480	0.600	273.510	-1.800	0.900																			1580080069.0	8.76	16.22
26/01/2020 23:07:50	26012020	260120	230750	273.200	12.266098	-56.485652	273.190	0.290	-0.550	1.040	273.140	-1.900	1.300																			1580080070.0	8.71	16.13
26/01/2020 23:07:51	26012020	260120	230751	272.970	12.266103	-56.485692	273.020	0.350	-0.410	1.280	272.950	-1.800	1.600																			1580080071.0	8.57	15.87
26/01/2020 23:07:52	26012020	260120	230752	272.910	12.266107	-56.485732	273.010	0.270	-0.190	1.170	272.920	-1.500	1.500																			1580080072.0	8.41	15.58
26/01/2020 23:07:53	26012020	260120	230753	273.060	12.266110	-56.485770	273.220	0.120	-0.020	0.770	273.110	-1.400	1.200																			1580080073.0	8.37	15.50
26/01/2020 23:07:54	26012020	260120	230754	273.390	12.266110	-56.485810	273.570	-0.010	-0.000	0.280	273.470	-1.300	0.700																			1580080074.0	8.45	15.65
26/01/2020 23:07:55	26012020	260120	230755	273.790	12.266110	-56.485852	273.950	-0.050	-0.140	-0.100	273.870	-1.400	0.300																			1580080075.0	8.65	16.02
26/01/2020 23:07:56	26012020	260120	230756	274.120	12.266110	-56.485893	274.240	0.040	-0.280	-0.150	274.170	-1.600	0.200																			1580080076.0	8.83	16.35
26/01/2020 23:07:57	26012020	260120	230757	274.290	12.266112	-56.485935	274.370	0.140	-0.290	0.120	274.300	-1.600	0.400																			1580080077.0	8.83	16.35
26/01/2020 23:07:58	26012020	260120	230758	274.310	12.266115	-56.485977	274.370	0.130	-0.210	0.480	274.300	-1.600	0.800																			1580080078.0	8.71	16.13
26/01/2020 23:07:59	26012020	260120	230759	274.270	12.266118	-56.486017	274.330	0.010	-0.170	0.640	274.270	-1.500	1.000																			1580080079.0	8.63	15.98
26/01/2020 23:08:00	26012020	260120	230800	274.290	12.266120	-56.486058	274.370	-0.120	-0.270	0.510	274.300	-1.600	0.900	1015.00	26.00	26.10	21.20	21.20	-1.00	74.00	74.00	378.00	25.10	88.00	2.10	67.00	4.60	15	3765.00	27.60	27.60	1580080080.0	8.71	16.13
26/01/2020 23:08:01	26012020	260120	230801	274.370	12.266122	-56.486100	274.460	-0.180	-0.410	0.230	274.390	-1.700	0.600																			1580080081.0	8.91	16.50
26/01/2020 23:08:02	26012020	260120	230802	274.480	12.266122	-56.486142	274.570	-0.190	-0.390	-0.040	274.510	-1.700	0.300																			1580080082.0	9.01	16.69
26/01/2020 23:08:03	26012020	260120	230803	274.590	12.266123	-56.486185	274.700	-0.230	-0.140	-0.170	274.620	-1.500	0.200																			1580080083.0	8.87	16.43
26/01/2020 23:08:04	26012020	260120	230804	274.700	12.266123	-56.486225	274.760	-0.300	0.140	-0.120	274.700	-1.200	0.200																			1580080084.0	8.67	16.06
26/01/2020 23:08:05	26012020	260120	230805	274.710	12.266125	-56.486267	274.760	-0.300	0.220	0.060	274.710	-1.100	0.400																			1580080085.0	8.62	15.96
26/01/2020 23:08:06	26012020	260120	230806	274.740	12.266127	-56.486307	274.820	-0.130	0.000	0.230	274.760	-1.300	0.600																			1580080086.0	8.80	16.30
26/01/2020 23:08:07	26012020	260120	230807	274.870	12.266130	-56.486350	274.980	0.190	-0.360	0.300	274.920	-1.700	0.600																			1580080087.0	9.09	16.83
26/01/2020 23:08:08	26012020	260120	230808	275.080	12.266133	-56.486393	275.180	0.490	-0.580	0.370	275.120	-1.900	0.700																			1580080088.0	9.24	17.11
26/01/2020 23:08:09	26012020	260120	230809	275.200	12.266138	-56.486437	275.250	0.580	-0.480	0.500	275.200	-1.800	0.800																			1580080089.0	9.10	16.85
26/01/2020 23:08:10	26012020	260120	230810	275.100	12.266143	-56.486478	275.090	0.390	-0.160	0.620	275.060	-1.500	0.900																			1580080090.0	8.83	16.35
26/01/2020 23:08:11	26012020	260120	230811	274.850	12.266147	-56.486518	274.820	0.040	0.160	0.570	274.800	-1.200	0.900																			1580080091.0	8.65	16.02
26/01/2020 23:08:12	26012020	260120	230812	274.620	12.266148	-56.486560	274.620	-0.270	0.270	0.330	274.580	-1.100	0.700																			1580080092.0	8.65	16.02
26/01/2020 23:08:13	26012020	260120	230813	274.550	12.266148	-56.486602	274.600	-0.360	0.110	-0.070	274.560	-1.200	0.300																			1580080093.0	8.84	16.37
26/01/2020 23:08:14	26012020	260120	230814	274.690	12.266148	-56.486645	274.790	-0.220	-0.250	-0.440	274.740	-1.500	-0.100																			1580080094.0	9.10	16.85
26/01/2020 23:08:15	26012020	260120	230815	274.910	12.266148	-56.486688	275.090	0.030	-0.620	-0.500	274.970	-1.900	-0.200																			1580080095.0	9.28	17.19
26/01/2020 23:08:16	26012020	260120	230816	275.230	12.266152	-56.486732	275.340	0.230	-0.820	-0.160	275.280	-2.100	0.100																			1580080096.0	9.31	17.24
26/01/2020 23:08:17	26012020	260120	230817	275.360	12.266157	-56.486775	275.440	0.260	-0.730	0.400	275.380	-2.100	0.700																			1580080097.0	9.22	17.08
26/01/2020 23:08:18	26012020	260120	230818	275.400	12.266162	-56.486818	275.450	0.110	-0.390	0.860	275.390	-1.800	1.200																			1580080098.0	9.04	16.74
26/01/2020 23:08:19	26012020	260120	230819	275.360	12.266168	-56.486860	275.410	-0.120	-0.040	1.000	275.350	-1.400	1.400																			1580080099.0	8.88	16.45
26/01/2020 23:08:20	26012020	260120	230820	275.350	12.266172	-56.486902	275.420	-0.290	0.100	0.810	275.350	-1.200	1.200																			1580080100.0	8.95	16.58
26/01/2020 23:08:21	26012020	260120	230821	275.410	12.266173	-56.486945	275.470	-0.340	0.060	0.430	275.430	-1.300	0.800																			1580080101.0	9.22	17.08
26/01/2020 23:08:22	26012020	260120	230822	275.520	12.266173	-56.486990	275.580	-0.280	0.040	0.060	275.540	-1.300	0.400																			1580080102.0	9.39	17.39
26/01/2020 23:08:23	26012020	260120	230823	275.640	12.266173	-56.487033	275.700	-0.170	0.110	-0.150	275.670	-1.200	0.200																			1580080103.0	9.31	17.24
26/01/2020 23:08:24	26012020	260120	230824	275.750	12.266175	-56.487077	275.810	-0.000	0.170	-0.160	275.780	-1.200	0.200																			1580080104.0	9.12	16.89
26/01/2020 23:08:25	26012020	260120	230825	275.850	12.266177	-56.487120	275.910	0.210	0.090	0.010	275.870	-1.200	0.300																			1580080105.0	9.06	16.78
26/01/2020 23:08:26	26012020	260120	230826	275.920	12.266182	-56.487163	275.960	0.440	-0.120	0.270	275.930	-1.400	0.600																			1580080106.0	9.17	16.98
26/01/2020 23:08:27	26012020	260120	230827	275.950	12.266187	-56.487207	275.970	0.550	-0.300	0.540	275.950	-1.600	0.900																			1580080107.0	9.23	17.09
26/01/2020 23:08:28	26012020	260120	230828	275.930	12.266192	-56.487248	275.970	0.460	-0.410	0.750	275.930	-1.700	1.100																			1580080108.0	9.13	16.91
26/01/2020 23:08:29	26012020	260120	230829	275.950	12.266197	-56.487292	276.020	0.230	-0.570	0.750	275.960	-1.900	1.100																			1580080109.0	9.04	16.74
26/01/2020 23:08:30	26012020	260120	230830	276.070	12.266200	-56.487335	276.140	0.000	-0.820	0.450	276.100	-2.100	0.800																			1580080110.0	9.18	17.00
26/01/2020 23:08:31	26012020	260120	230831	276.300	12.266203	-56.487378	276.360	-0.110	-0.950	-0.010	276.340	-2.300	0.400																			1580080111.0	9.43	17.46
26/01/2020 23:08:32	26012020	260120	230832	276.540	12.266205	-56.487423	276.570	-0.160	-0.760	-0.390	276.590	-2.100	-0.000																			1580080112.0	9.52	17.63
26/01/2020 23:08:33	26012020	260120	230833	276.720	12.266207	-56.487468	276.720	-0.230	-0.250	-0.520	276.750	-1.700	-0.200																			1580080113.0	9.37	17.35
26/01/2020 23:08:34	26012020	260120	230834	276.820	12.266208	-56.487512	276.800	-0.360	0.300	-0.400	276.830	-1.100	-0.100																			1580080114.0	9.18	17.00
26/01/2020 23:08:35	26012020	260120	230835	276.850	12.266212	-56.487555	276.800	-0.480	0.590	-0.140	276.840	-0.800	0.200																			1580080115.0	9.17	16.98
26/01/2020 23:08:36	26012020	260120	230836	276.770	12.266217	-56.487598	276.710	-0.460	0.550	0.130	276.750	-0.800	0.400																			1580080116.0	9.39	17.39
26/01/2020 23:08:37	26012020	260120	230837	276.630	12.266220	-56.487645	276.570	-0.250	0.330	0.330	276.590	-1.000	0.700																			1580080117.0	9.59	17.76
26/01/2020 23:08:38	26012020	260120	230838	276.490	12.266225	-56.487690	276.460	0.050	0.040	0.430	276.470	-1.300	0.800																			1580080118.0	9.60	17.78
26/01/2020 23:08:39	26012020	260120	230839	276.420	12.266228	-56.487733	276.400	0.310	-0.230	0.450	276.410	-1.500	0.800																			1580080119.0	9.48	17.56
26/01/2020 23:08:40	26012020	260120	230840	276.410	12.266233	-56.487778	276.410	0.440	-0.420	0.370	276.430	-1.700	0.700																			1580080120.0	9.33	17.28
26/01/2020 23:08:41	26012020	260120	230841	276.470	12.266237	-56.487822	276.500	0.460	-0.550	0.240	276.490	-1.900	0.600																			1580080121.0	9.21	17.06
26/01/2020 23:08:42	26012020	260120	230842	276.600	12.266242	-56.487865	276.620	0.420	-0.660	0.140	276.630	-2.000	0.500																			1580080122.0	9.20	17.04
26/01/2020 23:08:43	26012020	260120	230843	276.740	12.266245	-56.487908	276.760	0.350	-0.700	0.100	276.770	-2.000	0.400																			1580080123.0	9.32	17.26
26/01/2020 23:08:44	26012020	260120	230844	276.870	12.266250	-56.487953	276.880	0.210	-0.610	0.150	276.890	-2.000	0.500																			1580080124.0	9.43	17.46
26/01/2020 23:08:45	26012020	260120	230845	276.950	12.266257	-56.487997	276.930	-0.000	-0.360	0.260	276.950	-1.700	0.600																			1580080125.0	9.44	17.48
26/01/2020 23:08:46	26012020	260120	230846	276.960	12.266262	-56.488042	276.940	-0.240	-0.100	0.370	276.960	-1.500	0.700																			1580080126.0	9.40	17.41
26/01/2020 23:08:47	26012020	260120	230847	276.990	12.266265	-56.488087	276.990	-0.400	0.050	0.380	277.010	-1.300	0.700																			1580080127.0	9.48	17.56
26/01/2020 23:08:48	26012020	260120	230848	277.100	12.266268	-56.488132	277.090	-0.410	0.060	0.280	277.130	-1.300	0.600																			1580080128.0	9.61	17.80
26/01/2020 23:08:49	26012020	260120	230849	277.230	12.266272	-56.488177	277.220	-0.300	-0.020	0.160	277.250	-1.300	0.500																			1580080129.0	9.72	18.00
26/01/2020 23:08:50	26012020	260120	230850	277.340	12.266275	-56.488223	277.300	-0.160	-0.110	0.100	277.350	-1.400	0.400																			1580080130.0	9.77	18.09
26/01/2020 23:08:51	26012020	260120	230851	277.390	12.266278	-56.488268	277.340	-0.090	-0.100	0.160	277.400	-1.400	0.500																			1580080131.0	9.70	17.96
26/01/2020 23:08:52	26012020	260120	230852	277.380	12.266283	-56.488313	277.310	-0.080	0.030	0.320	277.360	-1.300	0.600																			1580080132.0	9.51	17.61
26/01/2020 23:08:53	26012020	260120	230853	277.300	12.266288	-56.488357	277.200	-0.090	0.180	0.490	277.280	-1.200	0.800																			1580080133.0	9.29	17.21
26/01/2020 23:08:54	26012020	260120	230854	277.150	12.266292	-56.488400	277.080	-0.030	0.120	0.600	277.130	-1.200	0.900																			1580080134.0	9.22	17.08
26/01/2020 23:08:55	26012020	260120	230855	277.080	12.266295	-56.488445	277.050	0.190	-0.200	0.630	277.090	-1.500	1.000																			1580080135.0	9.41	17.43
26/01/2020 23:08:56	26012020	260120	230856	277.150	12.266300	-56.488490	277.140	0.510	-0.620	0.570	277.180	-1.900	0.900																			1580080136.0	9.69	17.95
26/01/2020 23:08:57	26012020	260120	230857	277.290	12.266305	-56.488537	277.250	0.760	-0.880	0.470	277.310	-2.200	0.800																			1580080137.0	9.83	18.21
26/01/2020 23:08:58	26012020	260120	230858	277.380	12.266312	-56.488583	277.330	0.770	-0.830	0.390	277.400	-2.200	0.700																			1580080138.0	9.79	18.13
26/01/2020 23:08:59	26012020	260120	230859	277.420	12.266318	-56.488627	277.340	0.440	-0.450	0.270	277.420	-1.800	0.600																			1580080139.0	9.58	17.74
26/01/2020 23:09:00	26012020	260120	230900	277.430	12.266325	-56.488672	277.370	-0.110	0.030	0.020	277.440	-1.400	0.400	1015.00	26.00	26.10	21.30	21.30	-1.00	75.00	74.00	378.00	25.00	66.00	2.90	60.00	4.50	15	3832.00	27.60	27.60	1580080140.0	9.33	17.28
26/01/2020 23:09:01	26012020	260120	230901	277.490	12.266328	-56.488715	277.430	-0.630	0.270	-0.370	277.510	-1.100	0.000																			1580080141.0	9.27	17.17
26/01/2020 23:09:02	26012020	260120	230902	277.580	12.266330	-56.488760	277.530	-0.920	0.100	-0.760	277.590	-1.200	-0.400																			1580080142.0	9.55	17.69
26/01/2020 23:09:03	26012020	260120	230903	277.690	12.266330	-56.488807	277.660	-0.860	-0.260	-0.940	277.720	-1.600	-0.600																			1580080143.0	9.98	18.48
26/01/2020 23:09:04	26012020	260120	230904	277.820	12.266332	-56.488855	277.790	-0.550	-0.480	-0.780	277.840	-1.800	-0.500																			1580080144.0	10.15	18.80
26/01/2020 23:09:05	26012020	260120	230905	277.900	12.266335	-56.488902	277.860	-0.130	-0.410	-0.330	277.910	-1.800	-0.100																			1580080145.0	9.94	18.41
26/01/2020 23:09:06	26012020	260120	230906	277.910	12.266340	-56.488947	277.840	0.230	-0.210	0.250	277.900	-1.600	0.500																			1580080146.0	9.68	17.93
26/01/2020 23:09:07	26012020	260120	230907	277.860	12.266348	-56.488992	277.740	0.460	0.000	0.780	277.830	-1.400	1.100																			1580080147.0	9.60	17.78
26/01/2020 23:09:08	26012020	260120	230908	277.640	12.266358	-56.489037	277.520	0.500	0.170	1.140	277.590	-1.200	1.400																			1580080148.0	9.63	17.83
26/01/2020 23:09:09	26012020	260120	230909	277.320	12.266367	-56.489082	277.190	0.360	0.290	1.210	277.250	-1.100	1.600																			1580080149.0	9.62	17.82
26/01/2020 23:09:10	26012020	260120	230910	277.000	12.266373	-56.489127	276.890	0.120	0.260	0.930	276.950	-1.100	1.300																			1580080150.0	9.53	17.65
26/01/2020 23:09:11	26012020	260120	230911	276.820	12.266377	-56.489172	276.760	-0.030	-0.020	0.400	276.820	-1.300	0.800																			1580080151.0	9.54	17.67
26/01/2020 23:09:12	26012020	260120	230912	276.900	12.266380	-56.489217	276.880	0.000	-0.520	-0.180	276.940	-1.800	0.200																			1580080152.0	9.72	18.00
26/01/2020 23:09:13	26012020	260120	230913	277.170	12.266382	-56.489263	277.190	0.160	-1.030	-0.590	277.240	-2.300	-0.200																			1580080153.0	9.94	18.41
26/01/2020 23:09:14	26012020	260120	230914	277.520	12.266385	-56.489312	277.540	0.290	-1.270	-0.640	277.590	-2.600	-0.300																			1580080154.0	10.02	18.56
26/01/2020 23:09:15	26012020	260120	230915	277.800	12.266390	-56.489358	277.800	0.230	-1.080	-0.370	277.840	-2.500	-0.100																			1580080155.0	9.91	18.35
26/01/2020 23:09:16	26012020	260120	230916	277.920	12.266397	-56.489403	277.880	-0.030	-0.530	0.040	277.920	-1.900	0.300																			1580080156.0	9.71	17.98
26/01/2020 23:09:17	26012020	260120	230917	277.910	12.266403	-56.489448	277.850	-0.380	0.150	0.430	277.890	-1.300	0.700																			1580080157.0	9.58	17.74
26/01/2020 23:09:18	26012020	260120	230918	277.800	12.266410	-56.489493	277.710	-0.660	0.720	0.690	277.760	-0.700	1.000																			1580080158.0	9.56	17.71
26/01/2020 23:09:19	26012020	260120	230919	277.590	12.266415	-56.489538	277.480	-0.750	0.950	0.720	277.530	-0.400	1.100																			1580080159.0	9.66	17.89
26/01/2020 23:09:20	26012020	260120	230920	277.330	12.266418	-56.489585	277.240	-0.600	0.730	0.510	277.290	-0.600	0.900																			1580080160.0	9.86	18.26
26/01/2020 23:09:21	26012020	260120	230921	277.170	12.266422	-56.489632	277.100	-0.220	0.150	0.230	277.150	-1.100	0.600																			1580080161.0	10.09	18.69
26/01/2020 23:09:22	26012020	260120	230922	277.160	12.266425	-56.489680	277.130	0.270	-0.540	0.040	277.180	-1.800	0.400																			1580080162.0	10.21	18.91
26/01/2020 23:09:23	26012020	260120	230923	277.280	12.266428	-56.489728	277.290	0.710	-1.030	0.030	277.320	-2.300	0.400																			1580080163.0	10.15	18.80
26/01/2020 23:09:24	26012020	260120	230924	277.440	12.266435	-56.489775	277.430	0.900	-1.120	0.210	277.470	-2.500	0.500																			1580080164.0	9.96	18.45
26/01/2020 23:09:25	26012020	260120	230925	277.530	12.266443	-56.489820	277.480	0.740	-0.770	0.450	277.530	-2.200	0.800																			1580080165.0	9.67	17.91
26/01/2020 23:09:26	26012020	260120	230926	277.500	12.266450	-56.489863	277.430	0.290	-0.200	0.620	277.480	-1.600	0.900																			1580080166.0	9.41	17.43
26/01/2020 23:09:27	26012020	260120	230927	277.370	12.266457	-56.489907	277.270	-0.220	0.240	0.660	277.340	-1.100	1.000																			1580080167.0	9.34	17.30
26/01/2020 23:09:28	26012020	260120	230928	277.200	12.266462	-56.489952	277.120	-0.540	0.330	0.550	277.180	-1.000	0.900																			1580080168.0	9.57	17.72
26/01/2020 23:09:29	26012020	260120	230929	277.090	12.266465	-56.489998	277.020	-0.580	0.110	0.310	277.080	-1.200	0.700																			1580080169.0	9.97	18.46
26/01/2020 23:09:30	26012020	260120	230930	277.030	12.266468	-56.490047	276.980	-0.420	-0.200	0.120	277.030	-1.500	0.500																			1580080170.0	10.26	19.00
26/01/2020 23:09:31	26012020	260120	230931	277.020	12.266472	-56.490095	276.990	-0.170	-0.370	0.100	277.030	-1.700	0.400																			1580080171.0	10.26	19.00
26/01/2020 23:09:32	26012020	260120	230932	277.090	12.266477	-56.490143	277.080	0.060	-0.390	0.200	277.110	-1.700	0.500																			1580080172.0	10.06	18.63
26/01/2020 23:09:33	26012020	260120	230933	277.250	12.266483	-56.490190	277.260	0.210	-0.370	0.360	277.290	-1.700	0.700																			1580080173.0	9.88	18.30
26/01/2020 23:09:34	26012020	260120	230934	277.460	12.266490	-56.490235	277.470	0.250	-0.370	0.490	277.510	-1.700	0.800																			1580080174.0	9.87	18.28
26/01/2020 23:09:35	26012020	260120	230935	277.640	12.266497	-56.490282	277.620	0.160	-0.320	0.500	277.660	-1.700	0.800																			1580080175.0	9.91	18.35
26/01/2020 23:09:36	26012020	260120	230936	277.700	12.266502	-56.490328	277.650	-0.030	-0.180	0.410	277.700	-1.500	0.800																			1580080176.0	9.88	18.30
26/01/2020 23:09:37	26012020	260120	230937	277.620	12.266505	-56.490375	277.530	-0.200	-0.040	0.340	277.580	-1.400	0.700																			1580080177.0	9.81	18.17
26/01/2020 23:09:38	26012020	260120	230938	277.410	12.266508	-56.490420	277.270	-0.240	0.010	0.290	277.360	-1.300	0.600																			1580080178.0	9.83	18.21
26/01/2020 23:09:39	26012020	260120	230939	277.160	12.266512	-56.490468	277.040	-0.110	-0.050	0.240	277.130	-1.400	0.600																			1580080179.0	9.93	18.39
26/01/2020 23:09:40	26012020	260120	230940	276.980	12.266515	-56.490515	276.880	0.080	-0.160	0.210	276.950	-1.500	0.600																			1580080180.0	10.04	18.59
26/01/2020 23:09:41	26012020	260120	230941	276.850	12.266520	-56.490562	276.770	0.220	-0.200	0.210	276.820	-1.500	0.600																			1580080181.0	10.06	18.63
26/01/2020 23:09:42	26012020	260120	230942	276.750	12.266527	-56.490608	276.700	0.240	-0.110	0.240	276.740	-1.500	0.600																			1580080182.0	9.96	18.45
26/01/2020 23:09:43	26012020	260120	230943	276.730	12.266533	-56.490655	276.690	0.180	-0.060	0.220	276.730	-1.400	0.600																			1580080183.0	9.81	18.17
26/01/2020 23:09:44	26012020	260120	230944	276.810	12.266540	-56.490702	276.800	0.120	-0.200	0.080	276.840	-1.500	0.400																			1580080184.0	9.85	18.24
26/01/2020 23:09:45	26012020	260120	230945	276.930	12.266545	-56.490748	276.990	0.110	-0.460	-0.140	276.970	-1.800	0.200																			1580080185.0	10.06	18.63
26/01/2020 23:09:46	26012020	260120	230946	277.180	12.266550	-56.490797	277.190	0.100	-0.630	-0.310	277.210	-1.900	0.000																			1580080186.0	10.17	18.83
26/01/2020 23:09:47	26012020	260120	230947	277.330	12.266555	-56.490843	277.330	-0.000	-0.610	-0.300	277.350	-2.000	0.000																			1580080187.0	10.09	18.69
26/01/2020 23:09:48	26012020	260120	230948	277.360	12.266560	-56.490890	277.310	-0.190	-0.470	-0.090	277.350	-1.800	0.200																			1580080188.0	9.98	18.48
26/01/2020 23:09:49	26012020	260120	230949	277.210	12.266565	-56.490937	277.110	-0.390	-0.250	0.260	277.160	-1.600	0.600																			1580080189.0	9.91	18.35
26/01/2020 23:09:50	26012020	260120	230950	276.900	12.266570	-56.490983	276.780	-0.460	-0.080	0.590	276.830	-1.400	0.900																			1580080190.0	9.93	18.39
26/01/2020 23:09:51	26012020	260120	230951	276.560	12.266575	-56.491030	276.440	-0.350	-0.020	0.760	276.500	-1.400	1.100																			1580080191.0	10.04	18.59
26/01/2020 23:09:52	26012020	260120	230952	276.340	12.266578	-56.491078	276.280	-0.090	-0.050	0.750	276.310	-1.400	1.100																			1580080192.0	10.19	18.87
26/01/2020 23:09:53	26012020	260120	230953	276.310	12.266583	-56.491127	276.310	0.180	-0.080	0.650	276.320	-1.400	1.000																			1580080193.0	10.26	19.00
26/01/2020 23:09:54	26012020	260120	230954	276.420	12.266588	-56.491175	276.440	0.350	-0.040	0.540	276.450	-1.400	0.900																			1580080194.0	10.20	18.89
26/01/2020 23:09:55	26012020	260120	230955	276.520	12.266595	-56.491222	276.540	0.350	0.070	0.520	276.540	-1.300	0.900																			1580080195.0	10.08	18.67
26/01/2020 23:09:56	26012020	260120	230956	276.580	12.266602	-56.491268	276.560	0.200	0.170	0.560	276.580	-1.200	0.900																			1580080196.0	9.96	18.45
26/01/2020 23:09:57	26012020	260120	230957	276.560	12.266608	-56.491315	276.520	0.030	0.150	0.560	276.560	-1.200	0.900																			1580080197.0	9.86	18.26
26/01/2020 23:09:58	26012020	260120	230958	276.520	12.266612	-56.491362	276.480	-0.040	-0.100	0.520	276.510	-1.400	0.900																			1580080198.0	9.89	18.32
26/01/2020 23:09:59	26012020	260120	230959	276.480	12.266617	-56.491408	276.460	0.030	-0.550	0.480	276.480	-1.800	0.800																			1580080199.0	10.09	18.69
26/01/2020 23:10:00	26012020	260120	231000	276.450	12.266620	-56.491458	276.420	0.170	-0.930	0.520	276.430	-2.200	0.900	1015.00	26.00	26.10	21.00	21.10	-1.00	74.00	74.00	378.00	25.00	62.00	3.10	60.00	4.60	15	3834.00	27.60	27.60	1580080200.0	10.29	19.06
26/01/2020 23:10:01	26012020	260120	231001	276.380	12.266625	-56.491507	276.350	0.230	-0.990	0.640	276.370	-2.300	1.000																			1580080201.0	10.27	19.02
26/01/2020 23:10:02	26012020	260120	231002	276.320	12.266630	-56.491553	276.300	0.170	-0.720	0.780	276.310	-2.100	1.100																			1580080202.0	10.05	18.61
26/01/2020 23:10:03	26012020	260120	231003	276.300	12.266635	-56.491600	276.290	0.040	-0.380	0.800	276.300	-1.800	1.200																			1580080203.0	9.88	18.30
26/01/2020 23:10:04	26012020	260120	231004	276.360	12.266640	-56.491647	276.380	-0.100	-0.130	0.650	276.390	-1.500	1.000																			1580080204.0	9.96	18.45
26/01/2020 23:10:05	26012020	260120	231005	276.520	12.266645	-56.491695	276.550	-0.230	0.040	0.370	276.560	-1.300	0.800																			1580080205.0	10.18	18.85
26/01/2020 23:10:06	26012020	260120	231006	276.740	12.266648	-56.491743	276.770	-0.340	0.220	0.060	276.790	-1.100	0.400																			1580080206.0	10.27	19.02
26/01/2020 23:10:07	26012020	260120	231007	276.920	12.266650	-56.491792	276.970	-0.400	0.370	-0.100	276.960	-1.000	0.300																			1580080207.0	10.21	18.91
26/01/2020 23:10:08	26012020	260120	231008	277.090	12.266653	-56.491838	277.070	-0.330	0.350	-0.020	277.100	-1.000	0.300																			1580080208.0	10.11	18.72
26/01/2020 23:10:09	26012020	260120	231009	277.130	12.266657	-56.491887	277.090	-0.110	0.060	0.240	277.130	-1.200	0.600																			1580080209.0	10.17	18.83
26/01/2020 23:10:10	26012020	260120	231010	277.100	12.266663	-56.491935	277.060	0.210	-0.370	0.580	277.090	-1.700	0.900																			1580080210.0	10.35	19.17
26/01/2020 23:10:11	26012020	260120	231011	277.010	12.266670	-56.491983	276.940	0.480	-0.640	0.860	276.980	-2.000	1.200																			1580080211.0	10.44	19.33
26/01/2020 23:10:12	26012020	260120	231012	276.840	12.266677	-56.492032	276.740	0.530	-0.600	0.970	276.790	-2.000	1.300																			1580080212.0	10.26	19.00
26/01/2020 23:10:13	26012020	260120	231013	276.590	12.266683	-56.492078	276.480	0.360	-0.360	0.820	276.540	-1.700	1.200																			1580080213.0	9.96	18.45
26/01/2020 23:10:14	26012020	260120	231014	276.360	12.266688	-56.492125	276.270	0.080	-0.160	0.430	276.330	-1.500	0.800																			1580080214.0	9.81	18.17
26/01/2020 23:10:15	26012020	260120	231015	276.270	12.266692	-56.492172	276.220	-0.140	-0.170	-0.060	276.270	-1.500	0.400																			1580080215.0	9.90	18.33
26/01/2020 23:10:16	26012020	260120	231016	276.350	12.266693	-56.492220	276.350	-0.240	-0.360	-0.480	276.390	-1.700	-0.100																			1580080216.0	10.16	18.82
26/01/2020 23:10:17	26012020	260120	231017	276.590	12.266695	-56.492268	276.620	-0.240	-0.550	-0.740	276.650	-1.900	-0.400																			1580080217.0	10.39	19.24
26/01/2020 23:10:18	26012020	260120	231018	276.890	12.266698	-56.492318	276.930	-0.220	-0.560	-0.700	276.950	-1.900	-0.400																			1580080218.0	10.47	19.39
26/01/2020 23:10:19	26012020	260120	231019	277.090	12.266703	-56.492367	277.140	-0.210	-0.300	-0.370	277.130	-1.700	-0.100																			1580080219.0	10.35	19.17
26/01/2020 23:10:20	26012020	260120	231020	277.270	12.266708	-56.492415	277.250	-0.220	0.100	0.090	277.290	-1.300	0.400																			1580080220.0	10.18	18.85
26/01/2020 23:10:21	26012020	260120	231021	277.310	12.266715	-56.492462	277.270	-0.160	0.420	0.500	277.310	-0.900	0.800																			1580080221.0	10.06	18.63
26/01/2020 23:10:22	26012020	260120	231022	277.240	12.266722	-56.492508	277.180	0.010	0.410	0.770	277.220	-0.900	1.100																			1580080222.0	10.11	18.72
26/01/2020 23:10:23	26012020	260120	231023	277.120	12.266727	-56.492558	277.040	0.280	0.020	0.830	277.090	-1.300	1.200																			1580080223.0	10.38	19.22
26/01/2020 23:10:24	26012020	260120	231024	276.980	12.266733	-56.492608	276.880	0.520	-0.530	0.750	276.950	-1.800	1.100																			1580080224.0	10.69	19.80
26/01/2020 23:10:25	26012020	260120	231025	276.810	12.266740	-56.492658	276.680	0.550	-0.820	0.600	276.760	-2.100	1.000																			1580080225.0	10.78	19.96
26/01/2020 23:10:26	26012020	260120	231026	276.580	12.266745	-56.492708	276.440	0.260	-0.660	0.380	276.530	-2.000	0.800																			1580080226.0	10.51	19.46
26/01/2020 23:10:27	26012020	260120	231027	276.320	12.266750	-56.492755	276.200	-0.240	-0.250	0.060	276.290	-1.600	0.400																			1580080227.0	10.07	18.65
26/01/2020 23:10:28	26012020	260120	231028	276.190	12.266753	-56.492802	276.120	-0.650	-0.000	-0.290	276.180	-1.400	0.100																			1580080228.0	9.94	18.41
26/01/2020 23:10:29	26012020	260120	231029	276.250	12.266753	-56.492850	276.240	-0.720	-0.110	-0.550	276.290	-1.400	-0.200																			1580080229.0	10.22	18.93
26/01/2020 23:10:30	26012020	260120	231030	276.490	12.266755	-56.492900	276.540	-0.410	-0.400	-0.570	276.570	-1.700	-0.200																			1580080230.0	10.69	19.80
26/01/2020 23:10:31	26012020	260120	231031	276.860	12.266758	-56.492952	276.940	0.060	-0.490	-0.290	276.940	-1.800	0.000																			1580080231.0	10.92	20.22
26/01/2020 23:10:32	26012020	260120	231032	277.210	12.266765	-56.493003	277.250	0.400	-0.220	0.250	277.260	-1.600	0.500																			1580080232.0	10.72	19.85
26/01/2020 23:10:33	26012020	260120	231033	277.360	12.266773	-56.493050	277.340	0.450	0.190	0.830	277.370	-1.200	1.100																			1580080233.0	10.36	19.19
26/01/2020 23:10:34	26012020	260120	231034	277.270	12.266783	-56.493098	277.180	0.280	0.350	1.170	277.230	-1.000	1.500																			1580080234.0	10.19	18.87
26/01/2020 23:10:35	26012020	260120	231035	277.030	12.266790	-56.493147	276.940	0.090	0.070	1.100	276.990	-1.200	1.500																			1580080235.0	10.41	19.28
26/01/2020 23:10:36	26012020	260120	231036	276.820	12.266795	-56.493198	276.730	0.040	-0.460	0.710	276.790	-1.700	1.100																			1580080236.0	10.80	20.00
26/01/2020 23:10:37	26012020	260120	231037	276.730	12.266798	-56.493250	276.660	0.090	-0.820	0.210	276.730	-2.100	0.600																			1580080237.0	11.06	20.48
26/01/2020 23:10:38	26012020	260120	231038	276.760	12.266802	-56.493302	276.720	0.100	-0.710	-0.190	276.780	-2.100	0.200																			1580080238.0	10.90	20.19
26/01/2020 23:10:39	26012020	260120	231039	276.860	12.266803	-56.493350	276.810	-0.020	-0.230	-0.320	276.880	-1.600	0.000																			1580080239.0	10.45	19.35
26/01/2020 23:10:40	26012020	260120	231040	276.950	12.266808	-56.493398	276.920	-0.220	0.180	-0.180	276.960	-1.200	0.100																			1580080240.0	10.12	18.74
26/01/2020 23:10:41	26012020	260120	231041	277.040	12.266813	-56.493447	277.030	-0.340	0.200	0.010	277.070	-1.100	0.300																			1580080241.0	10.25	18.98
26/01/2020 23:10:42	26012020	260120	231042	277.160	12.266820	-56.493497	277.140	-0.270	-0.120	0.130	277.190	-1.400	0.500																			1580080242.0	10.68	19.78
26/01/2020 23:10:43	26012020	260120	231043	277.260	12.266825	-56.493548	277.220	-0.070	-0.480	0.160	277.270	-1.800	0.500																			1580080243.0	10.99	20.35
26/01/2020 23:10:44	26012020	260120	231044	277.310	12.266830	-56.493600	277.270	0.150	-0.640	0.190	277.320	-2.000	0.500																			1580080244.0	11.04	20.45
26/01/2020 23:10:45	26012020	260120	231045	277.350	12.266835	-56.493652	277.300	0.250	-0.550	0.240	277.350	-1.900	0.600																			1580080245.0	10.88	20.15
26/01/2020 23:10:46	26012020	260120	231046	277.340	12.266840	-56.493702	277.250	0.210	-0.320	0.340	277.320	-1.700	0.700																			1580080246.0	10.70	19.82
26/01/2020 23:10:47	26012020	260120	231047	277.240	12.266847	-56.493752	277.090	0.060	-0.100	0.380	277.210	-1.500	0.700																			1580080247.0	10.64	19.71
26/01/2020 23:10:48	26012020	260120	231048	277.010	12.266852	-56.493802	276.900	-0.090	0.030	0.310	276.980	-1.300	0.700																			1580080248.0	10.72	19.85
26/01/2020 23:10:49	26012020	260120	231049	276.880	12.266858	-56.493853	276.800	-0.180	0.040	0.110	276.870	-1.300	0.500																			1580080249.0	10.80	20.00
26/01/2020 23:10:50	26012020	260120	231050	276.900	12.266862	-56.493903	276.860	-0.150	-0.060	-0.120	276.920	-1.400	0.300																			1580080250.0	10.89	20.17
26/01/2020 23:10:51	26012020	260120	231051	277.020	12.266867	-56.493955	277.000	-0.040	-0.170	-0.230	277.060	-1.500	0.100																			1580080251.0	10.98	20.33
26/01/2020 23:10:52	26012020	260120	231052	277.190	12.266872	-56.494007	277.160	0.080	-0.180	-0.120	277.210	-1.500	0.200																			1580080252.0	10.95	20.28
26/01/2020 23:10:53	26012020	260120	231053	277.300	12.266878	-56.494058	277.250	0.160	-0.110	0.170	277.310	-1.500	0.500																			1580080253.0	10.81	20.02
26/01/2020 23:10:54	26012020	260120	231054	277.340	12.266887	-56.494108	277.290	0.190	-0.090	0.450	277.350	-1.400	0.800																			1580080254.0	10.72	19.85
26/01/2020 23:10:55	26012020	260120	231055	277.350	12.266893	-56.494158	277.280	0.170	-0.240	0.550	277.340	-1.600	0.900																			1580080255.0	10.77	19.95
26/01/2020 23:10:56	26012020	260120	231056	277.310	12.266900	-56.494210	277.230	0.110	-0.510	0.440	277.300	-1.800	0.800																			1580080256.0	10.95	20.28
26/01/2020 23:10:57	26012020	260120	231057	277.280	12.266905	-56.494262	277.210	0.010	-0.700	0.160	277.290	-2.000	0.500																			1580080257.0	11.08	20.52
26/01/2020 23:10:58	26012020	260120	231058	277.340	12.266908	-56.494313	277.280	-0.100	-0.730	-0.100	277.360	-2.100	0.300																			1580080258.0	11.05	20.46
26/01/2020 23:10:59	26012020	260120	231059	277.470	12.266910	-56.494367	277.430	-0.180	-0.640	-0.200	277.510	-2.000	0.200																			1580080259.0	10.99	20.35
26/01/2020 23:11:00	26012020	260120	231100	277.640	12.266915	-56.494418	277.590	-0.190	-0.470	-0.070	277.660	-1.800	0.300	1015.00	26.00	26.10	21.10	21.10	-1.00	74.00	74.00	378.00	25.00	54.00	2.90	65.00	4.40	15	3804.00	27.60	27.60	1580080260.0	11.02	20.41
26/01/2020 23:11:01	26012020	260120	231101	277.730	12.266922	-56.494470	277.660	-0.150	-0.150	0.270	277.740	-1.500	0.600																			1580080261.0	11.09	20.54
26/01/2020 23:11:02	26012020	260120	231102	277.690	12.266930	-56.494522	277.560	-0.150	0.310	0.630	277.650	-1.100	0.900																			1580080262.0	11.02	20.41
26/01/2020 23:11:03	26012020	260120	231103	277.490	12.266937	-56.494572	277.360	-0.170	0.650	0.810	277.440	-0.700	1.200																			1580080263.0	10.88	20.15
26/01/2020 23:11:04	26012020	260120	231104	277.240	12.266943	-56.494623	277.120	-0.120	0.590	0.700	277.190	-0.700	1.100																			1580080264.0	10.88	20.15
26/01/2020 23:11:05	26012020	260120	231105	277.090	12.266948	-56.494675	277.030	0.120	0.120	0.410	277.090	-1.200	0.800																			1580080265.0	11.14	20.63
26/01/2020 23:11:06	26012020	260120	231106	277.150	12.266953	-56.494730	277.110	0.470	-0.500	0.080	277.180	-1.800	0.500																			1580080266.0	11.42	21.15
26/01/2020 23:11:07	26012020	260120	231107	277.340	12.266958	-56.494783	277.310	0.660	-0.880	-0.140	277.380	-2.200	0.200																			1580080267.0	11.45	21.21
26/01/2020 23:11:08	26012020	260120	231108	277.540	12.266967	-56.494835	277.500	0.520	-0.840	-0.200	277.580	-2.200	0.200																			1580080268.0	11.16	20.67
26/01/2020 23:11:09	26012020	260120	231109	277.690	12.266973	-56.494887	277.630	0.100	-0.570	-0.110	277.700	-1.900	0.200																			1580080269.0	10.77	19.95
26/01/2020 23:11:10	26012020	260120	231110	277.730	12.266980	-56.494937	277.650	-0.350	-0.400	0.020	277.730	-1.700	0.400																			1580080270.0	10.68	19.78
26/01/2020 23:11:11	26012020	260120	231111	277.710	12.266985	-56.494988	277.650	-0.640	-0.430	0.080	277.710	-1.800	0.400																			1580080271.0	10.95	20.28
26/01/2020 23:11:12	26012020	260120	231112	277.730	12.266988	-56.495042	277.670	-0.660	-0.510	0.040	277.730	-1.800	0.400																			1580080272.0	11.32	20.96
26/01/2020 23:11:13	26012020	260120	231113	277.770	12.266992	-56.495095	277.710	-0.470	-0.440	0.000	277.770	-1.800	0.400																			1580080273.0	11.50	21.30
26/01/2020 23:11:14	26012020	260120	231114	277.800	12.266997	-56.495148	277.740	-0.200	-0.140	0.050	277.810	-1.500	0.400																			1580080274.0	11.43	21.17
26/01/2020 23:11:15	26012020	260120	231115	277.790	12.267002	-56.495202	277.710	0.040	0.210	0.190	277.770	-1.200	0.500																			1580080275.0	11.24	20.82
26/01/2020 23:11:16	26012020	260120	231116	277.690	12.267008	-56.495255	277.580	0.190	0.420	0.350	277.650	-0.900	0.700																			1580080276.0	11.16	20.67
26/01/2020 23:11:17	26012020	260120	231117	277.520	12.267017	-56.495307	277.410	0.270	0.380	0.470	277.490	-0.900	0.800																			1580080277.0	11.23	20.80
26/01/2020 23:11:18	26012020	260120	231118	277.340	12.267025	-56.495360	277.230	0.310	0.120	0.510	277.300	-1.200	0.900																			1580080278.0	11.32	20.96
26/01/2020 23:11:19	26012020	260120	231119	277.160	12.267032	-56.495413	277.050	0.330	-0.250	0.470	277.130	-1.500	0.800																			1580080279.0	11.41	21.13
26/01/2020 23:11:20	26012020	260120	231120	277.010	12.267038	-56.495467	276.900	0.280	-0.520	0.340	276.980	-1.800	0.700																			1580080280.0	11.41	21.13
26/01/2020 23:11:21	26012020	260120	231121	276.900	12.267045	-56.495520	276.790	0.140	-0.560	0.160	276.880	-1.900	0.500																			1580080281.0	11.25	20.84
26/01/2020 23:11:22	26012020	260120	231122	276.870	12.267050	-56.495572	276.810	-0.040	-0.450	0.020	276.880	-1.800	0.400																			1580080282.0	11.01	20.39
26/01/2020 23:11:23	26012020	260120	231123	276.970	12.267057	-56.495623	276.940	-0.120	-0.400	-0.070	277.010	-1.700	0.300																			1580080283.0	10.95	20.28
26/01/2020 23:11:24	26012020	260120	231124	277.190	12.267062	-56.495675	277.190	-0.060	-0.450	-0.090	277.240	-1.800	0.300																			1580080284.0	11.12	20.59
26/01/2020 23:11:25	26012020	260120	231125	277.480	12.267067	-56.495728	277.490	0.080	-0.510	-0.010	277.540	-1.800	0.300																			1580080285.0	11.33	20.98
26/01/2020 23:11:26	26012020	260120	231126	277.760	12.267073	-56.495782	277.760	0.140	-0.520	0.210	277.800	-1.900	0.500																			1580080286.0	11.42	21.15
26/01/2020 23:11:27	26012020	260120	231127	277.940	12.267080	-56.495835	277.900	0.050	-0.480	0.490	277.960	-1.800	0.800																			1580080287.0	11.41	21.13
26/01/2020 23:11:28	26012020	260120	231128	277.980	12.267087	-56.495888	277.910	-0.160	-0.400	0.700	277.980	-1.700	1.000																			1580080288.0	11.42	21.15
26/01/2020 23:11:29	26012020	260120	231129	277.900	12.267095	-56.495942	277.800	-0.370	-0.330	0.790	277.870	-1.700	1.100																			1580080289.0	11.47	21.24
26/01/2020 23:11:30	26012020	260120	231130	277.750	12.267100	-56.495997	277.640	-0.480	-0.260	0.740	277.710	-1.600	1.100																			1580080290.0	11.57	21.43
26/01/2020 23:11:31	26012020	260120	231131	277.590	12.267105	-56.496052	277.490	-0.470	-0.130	0.560	277.560	-1.500	0.900																			1580080291.0	11.65	21.58
26/01/2020 23:11:32	26012020	260120	231132	277.480	12.267108	-56.496107	277.390	-0.310	0.110	0.360	277.470	-1.300	0.700																			1580080292.0	11.61	21.50
26/01/2020 23:11:33	26012020	260120	231133	277.430	12.267113	-56.496160	277.350	-0.040	0.360	0.330	277.420	-1.000	0.700																			1580080293.0	11.48	21.26
26/01/2020 23:11:34	26012020	260120	231134	277.420	12.267120	-56.496213	277.360	0.270	0.480	0.490	277.420	-0.900	0.800																			1580080294.0	11.36	21.04
26/01/2020 23:11:35	26012020	260120	231135	277.430	12.267128	-56.496267	277.380	0.510	0.410	0.740	277.430	-0.900	1.100																			1580080295.0	11.34	21.00
26/01/2020 23:11:36	26012020	260120	231136	277.460	12.267138	-56.496320	277.420	0.560	0.120	0.820	277.460	-1.200	1.200																			1580080296.0	11.34	21.00
26/01/2020 23:11:37	26012020	260120	231137	277.490	12.267147	-56.496372	277.490	0.430	-0.360	0.600	277.510	-1.600	1.000																			1580080297.0	11.34	21.00
26/01/2020 23:11:38	26012020	260120	231138	277.620	12.267152	-56.496427	277.590	0.200	-0.880	0.190	277.640	-2.200	0.600																			1580080298.0	11.39	21.09
26/01/2020 23:11:39	26012020	260120	231139	277.750	12.267157	-56.496480	277.710	-0.010	-1.250	-0.160	277.780	-2.600	0.200																			1580080299.0	11.46	21.22
26/01/2020 23:11:40	26012020	260120	231140	277.860	12.267160	-56.496533	277.810	-0.140	-1.270	-0.260	277.870	-2.600	0.100																			1580080300.0	11.47	21.24
26/01/2020 23:11:41	26012020	260120	231141	277.900	12.267163	-56.496588	277.850	-0.140	-0.930	-0.040	277.900	-2.300	0.300																			1580080301.0	11.34	21.00
26/01/2020 23:11:42	26012020	260120	231142	277.880	12.267170	-56.496640	277.820	-0.070	-0.440	0.270	277.870	-1.800	0.600																			1580080302.0	11.27	20.87
26/01/2020 23:11:43	26012020	260120	231143	277.830	12.267178	-56.496693	277.780	-0.040	-0.000	0.440	277.820	-1.400	0.800																			1580080303.0	11.38	21.08
26/01/2020 23:11:44	26012020	260120	231144	277.750	12.267187	-56.496748	277.680	-0.130	0.290	0.420	277.730	-1.100	0.800																			1580080304.0	11.58	21.45
26/01/2020 23:11:45	26012020	260120	231145	277.640	12.267193	-56.496803	277.560	-0.290	0.420	0.270	277.620	-0.900	0.600																			1580080305.0	11.70	21.67
26/01/2020 23:11:46	26012020	260120	231146	277.550	12.267198	-56.496858	277.500	-0.390	0.330	0.060	277.550	-1.000	0.400																			1580080306.0	11.73	21.72
26/01/2020 23:11:47	26012020	260120	231147	277.560	12.267203	-56.496913	277.540	-0.320	0.000	-0.180	277.580	-1.300	0.200																			1580080307.0	11.79	21.84
26/01/2020 23:11:48	26012020	260120	231148	277.720	12.267208	-56.496970	277.740	-0.080	-0.420	-0.340	277.770	-1.700	0.000																			1580080308.0	11.92	22.08
26/01/2020 23:11:49	26012020	260120	231149	277.990	12.267215	-56.497025	278.000	0.160	-0.640	-0.240	278.040	-2.000	0.100																			1580080309.0	11.91	22.06
26/01/2020 23:11:50	26012020	260120	231150	278.180	12.267222	-56.497080	278.150	0.230	-0.500	0.180	278.190	-1.900	0.500																			1580080310.0	11.66	21.59
26/01/2020 23:11:51	26012020	260120	231151	278.120	12.267232	-56.497133	278.040	0.100	-0.130	0.690	278.070	-1.500	1.000																			1580080311.0	11.33	20.98
26/01/2020 23:11:52	26012020	260120	231152	277.800	12.267240	-56.497185	277.680	-0.100	0.190	1.020	277.720	-1.200	1.400																			1580080312.0	11.11	20.58
26/01/2020 23:11:53	26012020	260120	231153	277.350	12.267247	-56.497237	277.220	-0.170	0.200	1.060	277.250	-1.100	1.400																			1580080313.0	11.16	20.67
26/01/2020 23:11:54	26012020	260120	231154	276.890	12.267253	-56.497290	276.760	-0.010	-0.130	0.930	276.800	-1.400	1.300																			1580080314.0	11.44	21.19
26/01/2020 23:11:55	26012020	260120	231155	276.540	12.267258	-56.497347	276.450	0.300	-0.600	0.750	276.510	-1.900	1.100																			1580080315.0	11.78	21.82
26/01/2020 23:11:56	26012020	260120	231156	276.450	12.267265	-56.497402	276.430	0.540	-0.890	0.550	276.470	-2.200	0.900																			1580080316.0	11.91	22.06
26/01/2020 23:11:57	26012020	260120	231157	276.620	12.267272	-56.497457	276.650	0.530	-0.800	0.410	276.680	-2.200	0.800																			1580080317.0	11.75	21.76
26/01/2020 23:11:58	26012020	260120	231158	276.970	12.267278	-56.497510	277.030	0.260	-0.430	0.360	277.050	-1.800	0.700																			1580080318.0	11.44	21.19
26/01/2020 23:11:59	26012020	260120	231159	277.290	12.267285	-56.497563	277.430	-0.130	-0.090	0.380	277.370	-1.500	0.700																			1580080319.0	11.28	20.89
26/01/2020 23:12:00	26012020	260120	231200	277.750	12.267292	-56.497617	277.790	-0.430	0.050	0.340	277.820	-1.300	0.700	1015.10	26.00	26.00	21.00	21.00	-1.00	74.00	73.00	378.00	25.00	42.00	3.00	69.00	4.10	15	3751.00	27.60	27.60	1580080320.0	11.37	21.06
26/01/2020 23:12:01	26012020	260120	231201	278.060	12.267297	-56.497672	278.080	-0.520	-0.070	0.280	278.110	-1.400	0.600																			1580080321.0	11.64	21.56
26/01/2020 23:12:02	26012020	260120	231202	278.240	12.267302	-56.497728	278.230	-0.360	-0.350	0.310	278.260	-1.700	0.700																			1580080322.0	11.93	22.09
26/01/2020 23:12:03	26012020	260120	231203	278.270	12.267307	-56.497785	278.240	-0.070	-0.580	0.530	278.250	-1.900	0.800																			1580080323.0	12.09	22.39
26/01/2020 23:12:04	26012020	260120	231204	278.120	12.267312	-56.497842	278.050	0.170	-0.580	0.860	278.070	-1.900	1.200																			1580080324.0	12.08	22.37
26/01/2020 23:12:05	26012020	260120	231205	277.780	12.267320	-56.497897	277.670	0.200	-0.250	1.090	277.700	-1.600	1.400																			1580080325.0	11.85	21.95
26/01/2020 23:12:06	26012020	260120	231206	277.340	12.267328	-56.497952	277.220	-0.010	0.270	1.040	277.250	-1.100	1.400																			1580080326.0	11.50	21.30
26/01/2020 23:12:07	26012020	260120	231207	276.940	12.267335	-56.498003	276.840	-0.310	0.580	0.690	276.880	-0.800	1.100																			1580080327.0	11.24	20.82
26/01/2020 23:12:08	26012020	260120	231208	276.730	12.267338	-56.498057	276.700	-0.410	0.400	0.210	276.710	-0.900	0.600																			1580080328.0	11.33	20.98
26/01/2020 23:12:09	26012020	260120	231209	276.780	12.267342	-56.498112	276.810	-0.200	-0.200	-0.230	276.820	-1.500	0.200																			1580080329.0	11.75	21.76
26/01/2020 23:12:10	26012020	260120	231210	277.060	12.267347	-56.498170	277.120	0.210	-0.780	-0.450	277.140	-2.100	-0.100																			1580080330.0	12.05	22.32
26/01/2020 23:12:11	26012020	260120	231211	277.500	12.267352	-56.498225	277.610	0.600	-1.010	-0.260	277.590	-2.300	0.100																			1580080331.0	11.97	22.17
26/01/2020 23:12:12	26012020	260120	231212	277.940	12.267360	-56.498280	278.030	0.750	-0.850	0.180	278.020	-2.200	0.500																			1580080332.0	11.68	21.63
26/01/2020 23:12:13	26012020	260120	231213	278.180	12.267372	-56.498333	278.210	0.600	-0.480	0.610	278.200	-1.900	0.900																			1580080333.0	11.44	21.19
26/01/2020 23:12:14	26012020	260120	231214	278.170	12.267380	-56.498387	278.110	0.170	-0.100	0.800	278.130	-1.500	1.100																			1580080334.0	11.36	21.04
26/01/2020 23:12:15	26012020	260120	231215	277.920	12.267388	-56.498440	277.840	-0.340	0.120	0.660	277.870	-1.200	1.000																			1580080335.0	11.43	21.17
26/01/2020 23:12:16	26012020	260120	231216	277.680	12.267392	-56.498495	277.610	-0.680	0.080	0.340	277.640	-1.200	0.700																			1580080336.0	11.64	21.56
26/01/2020 23:12:17	26012020	260120	231217	277.570	12.267395	-56.498550	277.530	-0.670	-0.180	0.030	277.560	-1.500	0.400																			1580080337.0	11.92	22.08
26/01/2020 23:12:18	26012020	260120	231218	277.570	12.267398	-56.498608	277.550	-0.330	-0.460	-0.100	277.580	-1.800	0.300																			1580080338.0	12.13	22.46
26/01/2020 23:12:19	26012020	260120	231219	277.620	12.267403	-56.498665	277.600	0.120	-0.530	0.040	277.630	-1.900	0.400																			1580080339.0	12.12	22.45
26/01/2020 23:12:20	26012020	260120	231220	277.650	12.267412	-56.498720	277.640	0.370	-0.330	0.350	277.660	-1.700	0.700																			1580080340.0	11.92	22.08
26/01/2020 23:12:21	26012020	260120	231221	277.660	12.267420	-56.498775	277.640	0.300	0.000	0.620	277.650	-1.400	0.900																			1580080341.0	11.62	21.52
26/01/2020 23:12:22	26012020	260120	231222	277.620	12.267430	-56.498828	277.590	0.010	0.250	0.650	277.600	-1.100	1.000																			1580080342.0	11.39	21.09
26/01/2020 23:12:23	26012020	260120	231223	277.560	12.267437	-56.498882	277.540	-0.270	0.180	0.400	277.550	-1.100	0.800																			1580080343.0	11.36	21.04
26/01/2020 23:12:24	26012020	260120	231224	277.550	12.267442	-56.498937	277.540	-0.310	-0.210	0.120	277.550	-1.500	0.500																			1580080344.0	11.61	21.50
26/01/2020 23:12:25	26012020	260120	231225	277.580	12.267445	-56.498992	277.590	-0.110	-0.680	-0.010	277.580	-2.000	0.300																			1580080345.0	11.91	22.06
26/01/2020 23:12:26	26012020	260120	231226	277.630	12.267450	-56.499048	277.630	0.190	-0.940	0.100	277.640	-2.300	0.400																			1580080346.0	12.01	22.24
26/01/2020 23:12:27	26012020	260120	231227	277.650	12.267457	-56.499105	277.650	0.390	-0.850	0.450	277.650	-2.200	0.800																			1580080347.0	11.91	22.06
26/01/2020 23:12:28	26012020	260120	231228	277.630	12.267465	-56.499160	277.620	0.380	-0.480	0.770	277.620	-1.900	1.100																			1580080348.0	11.71	21.69
26/01/2020 23:12:29	26012020	260120	231229	277.610	12.267473	-56.499213	277.620	0.210	-0.050	0.860	277.610	-1.400	1.200																			1580080349.0	11.55	21.39
26/01/2020 23:12:30	26012020	260120	231230	277.640	12.267482	-56.499267	277.660	-0.010	0.220	0.630	277.660	-1.100	1.000																			1580080350.0	11.58	21.45
26/01/2020 23:12:31	26012020	260120	231231	277.710	12.267488	-56.499322	277.720	-0.200	0.310	0.280	277.720	-1.000	0.700																			1580080351.0	11.75	21.76
26/01/2020 23:12:32	26012020	260120	231232	277.750	12.267493	-56.499378	277.750	-0.360	0.250	-0.020	277.760	-1.100	0.400																			1580080352.0	11.83	21.91
26/01/2020 23:12:33	26012020	260120	231233	277.800	12.267497	-56.499433	277.820	-0.420	0.060	-0.160	277.810	-1.300	0.200																			1580080353.0	11.83	21.91
26/01/2020 23:12:34	26012020	260120	231234	277.900	12.267502	-56.499490	277.930	-0.320	-0.260	-0.090	277.920	-1.600	0.300																			1580080354.0	11.83	21.91
26/01/2020 23:12:35	26012020	260120	231235	278.050	12.267508	-56.499545	278.110	-0.050	-0.640	0.110	278.090	-1.900	0.400																			1580080355.0	11.87	21.98
26/01/2020 23:12:36	26012020	260120	231236	278.240	12.267515	-56.499602	278.280	0.300	-0.920	0.320	278.270	-2.200	0.700																			1580080356.0	11.95	22.13
26/01/2020 23:12:37	26012020	260120	231237	278.360	12.267523	-56.499657	278.360	0.530	-0.870	0.470	278.370	-2.200	0.800																			1580080357.0	11.91	22.06
26/01/2020 23:12:38	26012020	260120	231238	278.300	12.267532	-56.499712	278.240	0.480	-0.430	0.580	278.260	-1.800	0.900																			1580080358.0	11.66	21.59
26/01/2020 23:12:39	26012020	260120	231239	278.070	12.267540	-56.499765	277.990	0.160	0.050	0.580	278.010	-1.400	0.900																			1580080359.0	11.33	20.98
26/01/2020 23:12:40	26012020	260120	231240	277.840	12.267547	-56.499818	277.790	-0.190	0.160	0.340	277.810	-1.200	0.700																			1580080360.0	11.32	20.96
26/01/2020 23:12:41	26012020	260120	231241	277.780	12.267552	-56.499873	277.780	-0.330	-0.210	-0.100	277.790	-1.500	0.300																			1580080361.0	11.75	21.76
26/01/2020 23:12:42	26012020	260120	231242	277.880	12.267557	-56.499932	277.900	-0.200	-0.720	-0.500	277.910	-2.000	-0.100																			1580080362.0	12.30	22.78
26/01/2020 23:12:43	26012020	260120	231243	278.030	12.267562	-56.499990	278.040	-0.020	-0.820	-0.540	278.050	-2.200	-0.200																			1580080363.0	12.50	23.15
26/01/2020 23:12:44	26012020	260120	231244	278.090	12.267568	-56.500047	278.060	-0.020	-0.290	-0.140	278.080	-1.700	0.200																			1580080364.0	12.12	22.45
26/01/2020 23:12:45	26012020	260120	231245	277.990	12.267575	-56.500100	277.940	-0.200	0.480	0.400	277.960	-0.900	0.700																			1580080365.0	11.47	21.24
26/01/2020 23:12:46	26012020	260120	231246	277.820	12.267585	-56.500153	277.790	-0.330	0.840	0.750	277.800	-0.500	1.100																			1580080366.0	11.20	20.74
26/01/2020 23:12:47	26012020	260120	231247	277.710	12.267593	-56.500207	277.700	-0.200	0.490	0.740	277.700	-0.800	1.100																			1580080367.0	11.54	21.37
26/01/2020 23:12:48	26012020	260120	231248	277.690	12.267600	-56.500263	277.650	0.170	-0.300	0.490	277.690	-1.600	0.900																			1580080368.0	12.14	22.48
26/01/2020 23:12:49	26012020	260120	231249	277.710	12.267607	-56.500322	277.670	0.550	-0.900	0.310	277.710	-2.200	0.700																			1580080369.0	12.43	23.02
26/01/2020 23:12:50	26012020	260120	231250	277.750	12.267613	-56.500378	277.710	0.680	-0.970	0.300	277.760	-2.300	0.600																			1580080370.0	12.11	22.43
26/01/2020 23:12:51	26012020	260120	231251	277.790	12.267622	-56.500433	277.740	0.490	-0.630	0.420	277.790	-2.000	0.800																			1580080371.0	11.53	21.35
26/01/2020 23:12:52	26012020	260120	231252	277.800	12.267630	-56.500485	277.760	0.110	-0.290	0.480	277.810	-1.700	0.800																			1580080372.0	11.20	20.74
26/01/2020 23:12:53	26012020	260120	231253	277.840	12.267637	-56.500538	277.800	-0.280	-0.220	0.400	277.840	-1.600	0.800																			1580080373.0	11.32	20.96
26/01/2020 23:12:54	26012020	260120	231254	277.860	12.267642	-56.500593	277.830	-0.510	-0.380	0.280	277.870	-1.700	0.700																			1580080374.0	11.72	21.71
26/01/2020 23:12:55	26012020	260120	231255	277.870	12.267645	-56.500650	277.840	-0.500	-0.550	0.250	277.870	-1.900	0.600																			1580080375.0	12.06	22.34
26/01/2020 23:12:56	26012020	260120	231256	277.870	12.267650	-56.500707	277.840	-0.300	-0.520	0.370	277.860	-1.900	0.700																			1580080376.0	12.15	22.50
26/01/2020 23:12:57	26012020	260120	231257	277.870	12.267655	-56.500763	277.850	-0.050	-0.320	0.600	277.880	-1.700	0.900																			1580080377.0	12.02	22.26
26/01/2020 23:12:58	26012020	260120	231258	277.910	12.267663	-56.500820	277.900	0.140	-0.080	0.760	277.920	-1.500	1.100																			1580080378.0	11.92	22.08
26/01/2020 23:12:59	26012020	260120	231259	278.000	12.267672	-56.500875	278.010	0.200	0.120	0.730	278.030	-1.200	1.100																			1580080379.0	11.91	22.06
26/01/2020 23:13:00	26012020	260120	231300	278.110	12.267680	-56.500932	278.120	0.140	0.220	0.570	278.130	-1.100	0.900	1015.10	26.00	26.10	21.10	21.10	-1.00	74.00	74.00	378.00	25.00	35.00	3.30	68.00	3.90	15	3765.00	27.60	27.60	1580080380.0	11.90	22.04
26/01/2020 23:13:01	26012020	260120	231301	278.170	12.267688	-56.500987	278.160	0.030	0.220	0.350	278.180	-1.100	0.700																			1580080381.0	11.89	22.02
26/01/2020 23:13:02	26012020	260120	231302	278.170	12.267695	-56.501042	278.140	-0.070	0.120	0.130	278.160	-1.200	0.500																			1580080382.0	11.89	22.02
26/01/2020 23:13:03	26012020	260120	231303	278.090	12.267700	-56.501098	278.040	-0.110	-0.020	-0.010	278.070	-1.400	0.400																			1580080383.0	11.84	21.93
26/01/2020 23:13:04	26012020	260120	231304	277.960	12.267707	-56.501153	277.910	-0.070	-0.210	-0.070	277.930	-1.500	0.300																			1580080384.0	11.77	21.80
26/01/2020 23:13:05	26012020	260120	231305	277.860	12.267712	-56.501208	277.820	0.030	-0.460	-0.080	277.850	-1.800	0.300																			1580080385.0	11.73	21.72
26/01/2020 23:13:06	26012020	260120	231306	277.820	12.267718	-56.501263	277.790	0.160	-0.740	-0.050	277.820	-2.100	0.300																			1580080386.0	11.76	21.78
26/01/2020 23:13:07	26012020	260120	231307	277.840	12.267725	-56.501320	277.820	0.290	-0.930	0.090	277.840	-2.300	0.400																			1580080387.0	11.82	21.89
26/01/2020 23:13:08	26012020	260120	231308	277.870	12.267732	-56.501375	277.860	0.330	-0.910	0.340	277.870	-2.300	0.700																			1580080388.0	11.82	21.89
26/01/2020 23:13:09	26012020	260120	231309	277.880	12.267740	-56.501430	277.880	0.230	-0.700	0.640	277.880	-2.100	1.000																			1580080389.0	11.75	21.76
26/01/2020 23:13:10	26012020	260120	231310	277.880	12.267748	-56.501485	277.880	0.040	-0.420	0.820	277.880	-1.800	1.200																			1580080390.0	11.72	21.71
26/01/2020 23:13:11	26012020	260120	231311	277.860	12.267757	-56.501540	277.830	-0.180	-0.190	0.800	277.840	-1.600	1.200																			1580080391.0	11.81	21.87
26/01/2020 23:13:12	26012020	260120	231312	277.750	12.267763	-56.501597	277.700	-0.360	-0.050	0.590	277.730	-1.400	1.000																			1580080392.0	11.99	22.21
26/01/2020 23:13:13	26012020	260120	231313	277.630	12.267768	-56.501653	277.590	-0.450	0.030	0.350	277.610	-1.300	0.700																			1580080393.0	12.17	22.54
26/01/2020 23:13:14	26012020	260120	231314	277.570	12.267773	-56.501712	277.530	-0.420	0.150	0.230	277.560	-1.200	0.600																			1580080394.0	12.23	22.65
26/01/2020 23:13:15	26012020	260120	231315	277.540	12.267780	-56.501768	277.490	-0.290	0.330	0.330	277.530	-1.000	0.700																			1580080395.0	12.14	22.48
26/01/2020 23:13:16	26012020	260120	231316	277.430	12.267787	-56.501823	277.390	-0.110	0.480	0.570	277.410	-0.900	0.900																			1580080396.0	11.92	22.08
26/01/2020 23:13:17	26012020	260120	231317	277.350	12.267793	-56.501878	277.300	0.100	0.400	0.690	277.330	-0.900	1.000																			1580080397.0	11.75	21.76
26/01/2020 23:13:18	26012020	260120	231318	277.320	12.267802	-56.501933	277.320	0.320	-0.060	0.570	277.340	-1.300	0.900																			1580080398.0	11.76	21.78
26/01/2020 23:13:19	26012020	260120	231319	277.460	12.267808	-56.501990	277.470	0.540	-0.730	0.290	277.490	-2.000	0.700																			1580080399.0	11.97	22.17
26/01/2020 23:13:20	26012020	260120	231320	277.670	12.267815	-56.502047	277.690	0.610	-1.190	0.040	277.710	-2.500	0.400																			1580080400.0	12.12	22.45
26/01/2020 23:13:21	26012020	260120	231321	277.850	12.267822	-56.502103	277.830	0.390	-1.160	-0.080	277.860	-2.500	0.300																			1580080401.0	11.92	22.08
26/01/2020 23:13:22	26012020	260120	231322	277.850	12.267827	-56.502157	277.800	-0.020	-0.770	0.010	277.830	-2.200	0.300																			1580080402.0	11.55	21.39
26/01/2020 23:13:23	26012020	260120	231323	277.700	12.267832	-56.502212	277.630	-0.370	-0.360	0.220	277.670	-1.700	0.500																			1580080403.0	11.40	21.11
26/01/2020 23:13:24	26012020	260120	231324	277.540	12.267838	-56.502265	277.480	-0.470	-0.140	0.400	277.520	-1.500	0.700																			1580080404.0	11.62	21.52
26/01/2020 23:13:25	26012020	260120	231325	277.410	12.267843	-56.502322	277.340	-0.320	-0.060	0.530	277.390	-1.400	0.900																			1580080405.0	11.98	22.19
26/01/2020 23:13:26	26012020	260120	231326	277.290	12.267850	-56.502378	277.210	-0.110	0.030	0.570	277.260	-1.300	0.900																			1580080406.0	12.17	22.54
26/01/2020 23:13:27	26012020	260120	231327	277.190	12.267857	-56.502437	277.130	-0.020	0.170	0.480	277.180	-1.200	0.900																			1580080407.0	12.12	22.45
26/01/2020 23:13:28	26012020	260120	231328	277.180	12.267863	-56.502492	277.140	-0.040	0.220	0.270	277.190	-1.100	0.700																			1580080408.0	11.95	22.13
26/01/2020 23:13:29	26012020	260120	231329	277.270	12.267870	-56.502548	277.260	-0.020	0.050	0.080	277.310	-1.300	0.400																			1580080409.0	11.91	22.06
26/01/2020 23:13:30	26012020	260120	231330	277.450	12.267875	-56.502605	277.430	0.120	-0.290	0.010	277.480	-1.600	0.400																			1580080410.0	12.04	22.30
26/01/2020 23:13:31	26012020	260120	231331	277.620	12.267883	-56.502662	277.600	0.300	-0.600	0.110	277.640	-1.900	0.400																			1580080411.0	12.15	22.50
26/01/2020 23:13:32	26012020	260120	231332	277.740	12.267892	-56.502718	277.710	0.340	-0.690	0.310	277.750	-2.000	0.600																			1580080412.0	12.10	22.41
26/01/2020 23:13:33	26012020	260120	231333	277.810	12.267900	-56.502773	277.800	0.170	-0.580	0.440	277.820	-1.900	0.800																			1580080413.0	11.91	22.06
26/01/2020 23:13:34	26012020	260120	231334	277.870	12.267907	-56.502828	277.840	-0.120	-0.350	0.370	277.870	-1.700	0.700																			1580080414.0	11.75	21.76
26/01/2020 23:13:35	26012020	260120	231335	277.860	12.267912	-56.502883	277.800	-0.380	-0.140	0.150	277.840	-1.500	0.500																			1580080415.0	11.69	21.65
26/01/2020 23:13:36	26012020	260120	231336	277.750	12.267915	-56.502940	277.670	-0.490	-0.060	-0.010	277.710	-1.400	0.400																			1580080416.0	11.76	21.78
26/01/2020 23:13:37	26012020	260120	231337	277.590	12.267920	-56.502997	277.530	-0.430	-0.140	-0.010	277.560	-1.500	0.300																			1580080417.0	11.95	22.13
26/01/2020 23:13:38	26012020	260120	231338	277.480	12.267925	-56.503053	277.430	-0.230	-0.250	0.120	277.460	-1.600	0.500																			1580080418.0	12.08	22.37
26/01/2020 23:13:39	26012020	260120	231339	277.420	12.267930	-56.503110	277.360	0.070	-0.330	0.320	277.400	-1.700	0.700																			1580080419.0	12.09	22.39
26/01/2020 23:13:40	26012020	260120	231340	277.380	12.267938	-56.503167	277.360	0.360	-0.360	0.490	277.380	-1.700	0.800																			1580080420.0	12.05	22.32
26/01/2020 23:13:41	26012020	260120	231341	277.450	12.267947	-56.503222	277.450	0.530	-0.290	0.570	277.470	-1.700	0.900																			1580080421.0	12.01	22.24
26/01/2020 23:13:42	26012020	260120	231342	277.590	12.267955	-56.503278	277.580	0.500	-0.180	0.560	277.620	-1.500	0.900																			1580080422.0	11.91	22.06
26/01/2020 23:13:43	26012020	260120	231343	277.710	12.267963	-56.503333	277.680	0.290	-0.100	0.440	277.740	-1.500	0.800																			1580080423.0	11.84	21.93
26/01/2020 23:13:44	26012020	260120	231344	277.790	12.267970	-56.503388	277.730	-0.020	-0.060	0.260	277.790	-1.400	0.600																			1580080424.0	11.85	21.95
26/01/2020 23:13:45	26012020	260120	231345	277.800	12.267975	-56.503445	277.740	-0.260	-0.100	0.010	277.800	-1.400	0.400																			1580080425.0	11.86	21.96
26/01/2020 23:13:46	26012020	260120	231346	277.800	12.267980	-56.503502	277.750	-0.310	-0.280	-0.230	277.800	-1.600	0.200																			1580080426.0	11.93	22.09
26/01/2020 23:13:47	26012020	260120	231347	277.820	12.267985	-56.503558	277.770	-0.150	-0.570	-0.290	277.820	-1.900	0.100																			1580080427.0	12.13	22.46
26/01/2020 23:13:48	26012020	260120	231348	277.820	12.267990	-56.503615	277.780	0.100	-0.720	-0.040	277.820	-2.100	0.300																			1580080428.0	12.27	22.72
26/01/2020 23:13:49	26012020	260120	231349	277.800	12.267998	-56.503673	277.730	0.230	-0.580	0.360	277.790	-2.000	0.700																			1580080429.0	12.17	22.54
26/01/2020 23:13:50	26012020	260120	231350	277.700	12.268007	-56.503728	277.630	0.140	-0.270	0.650	277.680	-1.700	1.000																			1580080430.0	11.91	22.06
26/01/2020 23:13:51	26012020	260120	231351	277.570	12.268015	-56.503783	277.500	-0.100	-0.060	0.630	277.550	-1.400	1.000																			1580080431.0	11.78	21.82
26/01/2020 23:13:52	26012020	260120	231352	277.490	12.268023	-56.503840	277.450	-0.310	-0.070	0.370	277.480	-1.400	0.800																			1580080432.0	11.91	22.06
26/01/2020 23:13:53	26012020	260120	231353	277.490	12.268028	-56.503897	277.480	-0.370	-0.210	0.080	277.500	-1.500	0.500																			1580080433.0	12.12	22.45
26/01/2020 23:13:54	26012020	260120	231354	277.590	12.268033	-56.503953	277.600	-0.300	-0.320	-0.130	277.620	-1.700	0.200																			1580080434.0	12.22	22.63
26/01/2020 23:13:55	26012020	260120	231355	277.750	12.268037	-56.504012	277.760	-0.180	-0.300	-0.210	277.790	-1.700	0.100																			1580080435.0	12.14	22.48
26/01/2020 23:13:56	26012020	260120	231356	277.930	12.268043	-56.504067	277.950	-0.050	-0.180	-0.100	277.970	-1.500	0.200																			1580080436.0	11.95	22.13
26/01/2020 23:13:57	26012020	260120	231357	278.150	12.268050	-56.504123	278.190	0.120	-0.130	0.150	278.200	-1.500	0.500																			1580080437.0	11.85	21.95
26/01/2020 23:13:58	26012020	260120	231358	278.390	12.268058	-56.504178	278.430	0.330	-0.170	0.440	278.430	-1.500	0.800																			1580080438.0	11.94	22.11
26/01/2020 23:13:59	26012020	260120	231359	278.540	12.268067	-56.504235	278.540	0.500	-0.230	0.690	278.540	-1.600	1.000																			1580080439.0	12.05	22.32
26/01/2020 23:14:00	26012020	260120	231400	278.480	12.268077	-56.504292	278.430	0.500	-0.200	0.780	278.440	-1.600	1.100	1015.10	26.00	26.10	21.10	21.10	-1.00	74.00	74.00	378.00	25.00	43.00	3.70	61.00	4.30	15	3798.00	27.60	27.60	1580080440.0	12.07	22.35
26/01/2020 23:14:01	26012020	260120	231401	278.230	12.268085	-56.504347	278.150	0.270	-0.120	0.620	278.160	-1.500	1.000																			1580080441.0	11.95	22.13
26/01/2020 23:14:02	26012020	260120	231402	277.930	12.268090	-56.504403	277.850	-0.050	-0.140	0.220	277.870	-1.500	0.600																			1580080442.0	11.86	21.96
26/01/2020 23:14:03	26012020	260120	231403	277.700	12.268095	-56.504460	277.630	-0.290	-0.310	-0.190	277.670	-1.600	0.200																			1580080443.0	11.93	22.09
26/01/2020 23:14:04	26012020	260120	231404	277.600	12.268098	-56.504517	277.570	-0.320	-0.530	-0.380	277.600	-1.900	-0.000																			1580080444.0	12.09	22.39
26/01/2020 23:14:05	26012020	260120	231405	277.660	12.268103	-56.504573	277.680	-0.160	-0.680	-0.300	277.700	-2.000	0.000																			1580080445.0	12.15	22.50
26/01/2020 23:14:06	26012020	260120	231406	277.870	12.268112	-56.504630	277.920	0.040	-0.690	-0.070	277.930	-2.000	0.200																			1580080446.0	12.13	22.46
26/01/2020 23:14:07	26012020	260120	231407	278.100	12.268120	-56.504687	278.200	0.180	-0.510	0.200	278.160	-1.900	0.500																			1580080447.0	12.08	22.37
26/01/2020 23:14:08	26012020	260120	231408	278.370	12.268130	-56.504742	278.380	0.160	-0.160	0.490	278.400	-1.600	0.800																			1580080448.0	11.97	22.17
26/01/2020 23:14:09	26012020	260120	231409	278.440	12.268138	-56.504798	278.430	0.010	0.170	0.650	278.450	-1.200	1.000																			1580080449.0	11.81	21.87
26/01/2020 23:14:10	26012020	260120	231410	278.430	12.268147	-56.504853	278.410	-0.170	0.230	0.520	278.420	-1.100	0.900																			1580080450.0	11.80	21.85
26/01/2020 23:14:11	26012020	260120	231411	278.370	12.268153	-56.504908	278.330	-0.250	-0.030	0.170	278.360	-1.300	0.600																			1580080451.0	12.02	22.26
26/01/2020 23:14:12	26012020	260120	231412	278.320	12.268158	-56.504967	278.270	-0.190	-0.440	-0.220	278.320	-1.800	0.200																			1580080452.0	12.30	22.78
26/01/2020 23:14:13	26012020	260120	231413	278.320	12.268163	-56.505025	278.290	-0.080	-0.700	-0.410	278.330	-2.000	-0.000																			1580080453.0	12.39	22.95
26/01/2020 23:14:14	26012020	260120	231414	278.360	12.268168	-56.505083	278.340	0.030	-0.690	-0.310	278.370	-2.100	0.000																			1580080454.0	12.24	22.67
26/01/2020 23:14:15	26012020	260120	231415	278.430	12.268175	-56.505140	278.410	0.100	-0.480	-0.090	278.440	-1.900	0.200																			1580080455.0	12.02	22.26
26/01/2020 23:14:16	26012020	260120	231416	278.460	12.268183	-56.505195	278.430	0.120	-0.210	0.150	278.460	-1.600	0.500																			1580080456.0	11.93	22.09
26/01/2020 23:14:17	26012020	260120	231417	278.410	12.268192	-56.505252	278.350	0.090	0.040	0.430	278.380	-1.300	0.700																			1580080457.0	11.97	22.17
26/01/2020 23:14:18	26012020	260120	231418	278.270	12.268202	-56.505307	278.190	-0.010	0.250	0.660	278.230	-1.100	1.000																			1580080458.0	11.97	22.17
26/01/2020 23:14:19	26012020	260120	231419	278.080	12.268210	-56.505363	278.000	-0.100	0.290	0.740	278.040	-1.100	1.100																			1580080459.0	11.92	22.08
26/01/2020 23:14:20	26012020	260120	231420	277.910	12.268217	-56.505418	277.850	-0.080	0.050	0.570	277.880	-1.300	0.900																			1580080460.0	11.96	22.15
26/01/2020 23:14:21	26012020	260120	231421	277.790	12.268223	-56.505477	277.740	0.080	-0.340	0.320	277.770	-1.600	0.700																			1580080461.0	12.18	22.56
26/01/2020 23:14:22	26012020	260120	231422	277.720	12.268232	-56.505533	277.660	0.260	-0.590	0.210	277.710	-1.900	0.600																			1580080462.0	12.25	22.69
26/01/2020 23:14:23	26012020	260120	231423	277.680	12.268238	-56.505590	277.630	0.310	-0.600	0.260	277.670	-2.000	0.600																			1580080463.0	12.07	22.35
26/01/2020 23:14:24	26012020	260120	231424	277.660	12.268247	-56.505645	277.610	0.190	-0.470	0.380	277.650	-1.800	0.700																			1580080464.0	11.82	21.89
26/01/2020 23:14:25	26012020	260120	231425	277.660	12.268253	-56.505700	277.640	-0.030	-0.370	0.500	277.660	-1.700	0.800																			1580080465.0	11.72	21.71
26/01/2020 23:14:26	26012020	260120	231426	277.720	12.268260	-56.505755	277.720	-0.180	-0.420	0.550	277.740	-1.800	0.900																			1580080466.0	11.79	21.84
26/01/2020 23:14:27	26012020	260120	231427	277.880	12.268267	-56.505812	277.910	-0.180	-0.620	0.510	277.920	-1.900	0.900																			1580080467.0	12.01	22.24
26/01/2020 23:14:28	26012020	260120	231428	278.130	12.268273	-56.505870	278.180	-0.040	-0.810	0.400	278.180	-2.100	0.800																			1580080468.0	12.28	22.74
26/01/2020 23:14:29	26012020	260120	231429	278.330	12.268278	-56.505928	278.420	0.070	-0.780	0.360	278.380	-2.100	0.700																			1580080469.0	12.41	22.98
26/01/2020 23:14:30	26012020	260120	231430	278.570	12.268287	-56.505987	278.570	0.040	-0.470	0.430	278.590	-1.900	0.800																			1580080470.0	12.30	22.78
26/01/2020 23:14:31	26012020	260120	231431	278.630	12.268293	-56.506043	278.610	-0.130	0.010	0.510	278.630	-1.400	0.900																			1580080471.0	12.13	22.46
26/01/2020 23:14:32	26012020	260120	231432	278.580	12.268300	-56.506100	278.530	-0.310	0.450	0.510	278.560	-0.900	0.900																			1580080472.0	12.02	22.26
26/01/2020 23:14:33	26012020	260120	231433	278.410	12.268307	-56.506155	278.300	-0.370	0.680	0.480	278.350	-0.700	0.800																			1580080473.0	12.01	22.24
26/01/2020 23:14:34	26012020	260120	231434	278.070	12.268313	-56.506212	277.920	-0.260	0.600	0.440	277.980	-0.700	0.800																			1580080474.0	12.10	22.41
26/01/2020 23:14:35	26012020	260120	231435	277.600	12.268322	-56.506270	277.450	-0.040	0.270	0.380	277.490	-1.000	0.700																			1580080475.0	12.23	22.65
26/01/2020 23:14:36	26012020	260120	231436	277.150	12.268328	-56.506327	277.030	0.160	-0.130	0.260	277.080	-1.400	0.600																			1580080476.0	12.23	22.65
26/01/2020 23:14:37	26012020	260120	231437	276.950	12.268335	-56.506383	276.910	0.270	-0.510	-0.010	276.950	-1.800	0.400																			1580080477.0	12.03	22.28
26/01/2020 23:14:38	26012020	260120	231438	277.070	12.268340	-56.506440	277.110	0.330	-0.900	-0.380	277.130	-2.200	0.000																			1580080478.0	11.90	22.04
26/01/2020 23:14:39	26012020	260120	231439	277.420	12.268345	-56.506495	277.510	0.390	-1.130	-0.630	277.510	-2.500	-0.300																			1580080479.0	11.92	22.08
26/01/2020 23:14:40	26012020	260120	231440	277.830	12.268352	-56.506552	277.890	0.380	-1.030	-0.640	277.910	-2.400	-0.300																			1580080480.0	11.90	22.04
26/01/2020 23:14:41	26012020	260120	231441	278.150	12.268358	-56.506607	278.190	0.230	-0.640	-0.390	278.200	-2.000	-0.100																			1580080481.0	11.75	21.76
26/01/2020 23:14:42	26012020	260120	231442	278.350	12.268367	-56.506662	278.360	-0.040	-0.250	-0.080	278.380	-1.600	0.200																			1580080482.0	11.67	21.61
26/01/2020 23:14:43	26012020	260120	231443	278.420	12.268375	-56.506717	278.420	-0.300	-0.080	0.160	278.430	-1.400	0.500																			1580080483.0	11.84	21.93
26/01/2020 23:14:44	26012020	260120	231444	278.410	12.268383	-56.506773	278.390	-0.420	-0.140	0.190	278.410	-1.500	0.500																			1580080484.0	12.18	22.56
26/01/2020 23:14:45	26012020	260120	231445	278.350	12.268388	-56.506832	278.290	-0.370	-0.300	0.110	278.320	-1.600	0.500																			1580080485.0	12.49	23.13
26/01/2020 23:14:46	26012020	260120	231446	278.190	12.268395	-56.506892	278.120	-0.210	-0.350	0.130	278.150	-1.700	0.500																			1580080486.0	12.61	23.35
26/01/2020 23:14:47	26012020	260120	231447	277.940	12.268402	-56.506950	277.850	-0.080	-0.130	0.250	277.880	-1.500	0.600																			1580080487.0	12.48	23.11
26/01/2020 23:14:48	26012020	260120	231448	277.640	12.268410	-56.507007	277.550	-0.050	0.240	0.390	277.580	-1.100	0.700																			1580080488.0	12.16	22.52
26/01/2020 23:14:49	26012020	260120	231449	277.370	12.268418	-56.507063	277.290	-0.110	0.520	0.440	277.310	-0.900	0.800																			1580080489.0	11.87	21.98
26/01/2020 23:14:50	26012020	260120	231450	277.140	12.268425	-56.507118	277.080	-0.160	0.470	0.370	277.100	-0.900	0.700																			1580080490.0	11.80	21.85
26/01/2020 23:14:51	26012020	260120	231451	277.010	12.268432	-56.507173	276.970	-0.100	0.090	0.200	277.000	-1.200	0.600																			1580080491.0	11.89	22.02
26/01/2020 23:14:52	26012020	260120	231452	277.030	12.268437	-56.507230	277.050	0.130	-0.510	0.040	277.060	-1.800	0.400																			1580080492.0	12.07	22.35
26/01/2020 23:14:53	26012020	260120	231453	277.240	12.268443	-56.507288	277.280	0.450	-1.070	-0.010	277.290	-2.400	0.300																			1580080493.0	12.20	22.59
26/01/2020 23:14:54	26012020	260120	231454	277.500	12.268450	-56.507345	277.530	0.700	-1.310	0.170	277.540	-2.600	0.500																			1580080494.0	12.23	22.65
26/01/2020 23:14:55	26012020	260120	231455	277.650	12.268460	-56.507402	277.690	0.650	-1.010	0.540	277.680	-2.400	0.900																			1580080495.0	12.09	22.39
26/01/2020 23:14:56	26012020	260120	231456	277.700	12.268468	-56.507457	277.660	0.220	-0.320	0.850	277.680	-1.700	1.200																			1580080496.0	11.70	21.67
26/01/2020 23:14:57	26012020	260120	231457	277.580	12.268477	-56.507510	277.490	-0.340	0.280	0.880	277.540	-1.100	1.300																			1580080497.0	11.43	21.17
26/01/2020 23:14:58	26012020	260120	231458	277.380	12.268482	-56.507565	277.350	-0.670	0.340	0.610	277.360	-1.000	1.000																			1580080498.0	11.65	21.58
26/01/2020 23:14:59	26012020	260120	231459	277.350	12.268485	-56.507623	277.340	-0.570	-0.060	0.240	277.360	-1.300	0.600																			1580080499.0	12.27	22.72
26/01/2020 23:15:00	26012020	260120	231500	277.460	12.268490	-56.507683	277.470	-0.180	-0.490	0.010	277.490	-1.800	0.400	1015.10	26.00	26.10	21.00	21.00	-1.00	74.00	73.00	378.00	25.00	42.00	3.60	63.00	4.30	15	3718.00	27.60	27.50	1580080500.0	12.72	23.56
26/01/2020 23:15:01	26012020	260120	231501	277.600	12.268495	-56.507742	277.610	0.160	-0.530	0.110	277.630	-1.900	0.400																			1580080501.0	12.66	23.45
26/01/2020 23:15:02	26012020	260120	231502	277.650	12.268503	-56.507798	277.620	0.230	-0.160	0.380	277.640	-1.500	0.700																			1580080502.0	12.15	22.50
26/01/2020 23:15:03	26012020	260120	231503	277.570	12.268512	-56.507853	277.500	0.090	0.210	0.590	277.530	-1.200	0.900																			1580080503.0	11.67	21.61
26/01/2020 23:15:04	26012020	260120	231504	277.410	12.268518	-56.507908	277.350	-0.030	0.230	0.600	277.380	-1.100	1.000																			1580080504.0	11.61	21.50
26/01/2020 23:15:05	26012020	260120	231505	277.280	12.268525	-56.507963	277.220	0.050	-0.160	0.400	277.260	-1.400	0.800																			1580080505.0	11.92	22.08
26/01/2020 23:15:06	26012020	260120	231506	277.210	12.268532	-56.508022	277.160	0.260	-0.680	0.180	277.200	-2.000	0.600																			1580080506.0	12.31	22.80
26/01/2020 23:15:07	26012020	260120	231507	277.150	12.268538	-56.508080	277.100	0.380	-0.910	0.070	277.140	-2.200	0.400																			1580080507.0	12.45	23.06
26/01/2020 23:15:08	26012020	260120	231508	277.050	12.268545	-56.508138	276.990	0.230	-0.640	0.110	277.020	-2.000	0.400																			1580080508.0	12.18	22.56
26/01/2020 23:15:09	26012020	260120	231509	276.870	12.268550	-56.508193	276.810	-0.160	-0.120	0.240	276.840	-1.500	0.600																			1580080509.0	11.71	21.69
26/01/2020 23:15:10	26012020	260120	231510	276.710	12.268557	-56.508247	276.680	-0.510	0.160	0.400	276.700	-1.200	0.700																			1580080510.0	11.51	21.32
26/01/2020 23:15:11	26012020	260120	231511	276.710	12.268563	-56.508302	276.740	-0.540	-0.040	0.520	276.740	-1.300	0.900																			1580080511.0	11.80	21.85
26/01/2020 23:15:12	26012020	260120	231512	276.920	12.268568	-56.508360	276.980	-0.200	-0.550	0.650	276.970	-1.800	1.000																			1580080512.0	12.34	22.85
26/01/2020 23:15:13	26012020	260120	231513	277.190	12.268577	-56.508420	277.240	0.240	-0.850	0.850	277.240	-2.200	1.200																			1580080513.0	12.70	23.52
26/01/2020 23:15:14	26012020	260120	231514	277.380	12.268583	-56.508478	277.400	0.470	-0.550	1.020	277.400	-2.000	1.400																			1580080514.0	12.48	23.11
26/01/2020 23:15:15	26012020	260120	231515	277.430	12.268592	-56.508533	277.420	0.330	0.130	1.030	277.420	-1.300	1.400																			1580080515.0	11.84	21.93
26/01/2020 23:15:16	26012020	260120	231516	277.360	12.268600	-56.508587	277.350	0.010	0.570	0.810	277.340	-0.800	1.200																			1580080516.0	11.40	21.11
26/01/2020 23:15:17	26012020	260120	231517	277.260	12.268605	-56.508642	277.270	-0.200	0.350	0.390	277.250	-0.900	0.800																			1580080517.0	11.63	21.54
26/01/2020 23:15:18	26012020	260120	231518	277.250	12.268608	-56.508700	277.250	-0.140	-0.320	-0.050	277.260	-1.600	0.400																			1580080518.0	12.26	22.71
26/01/2020 23:15:19	26012020	260120	231519	277.300	12.268612	-56.508760	277.310	0.090	-0.830	-0.300	277.310	-2.100	0.100																			1580080519.0	12.64	23.41
26/01/2020 23:15:20	26012020	260120	231520	277.370	12.268617	-56.508818	277.340	0.210	-0.820	-0.180	277.370	-2.200	0.100																			1580080520.0	12.40	22.96
26/01/2020 23:15:21	26012020	260120	231521	277.330	12.268623	-56.508873	277.280	0.100	-0.450	0.100	277.310	-1.800	0.400																			1580080521.0	11.88	22.00
26/01/2020 23:15:22	26012020	260120	231522	277.210	12.268630	-56.508928	277.160	-0.160	-0.100	0.330	277.180	-1.500	0.700																			1580080522.0	11.60	21.48
26/01/2020 23:15:23	26012020	260120	231523	277.080	12.268637	-56.508983	277.060	-0.350	-0.010	0.410	277.060	-1.400	0.800																			1580080523.0	11.71	21.69
26/01/2020 23:15:24	26012020	260120	231524	276.990	12.268643	-56.509040	276.990	-0.310	-0.140	0.340	276.990	-1.500	0.700																			1580080524.0	11.99	22.21
26/01/2020 23:15:25	26012020	260120	231525	277.020	12.268648	-56.509097	277.050	-0.100	-0.360	0.180	277.050	-1.700	0.600																			1580080525.0	12.21	22.61
26/01/2020 23:15:26	26012020	260120	231526	277.210	12.268655	-56.509155	277.290	0.190	-0.560	0.040	277.270	-1.900	0.400																			1580080526.0	12.28	22.74
26/01/2020 23:15:27	26012020	260120	231527	277.550	12.268662	-56.509212	277.650	0.400	-0.660	-0.010	277.630	-2.000	0.300																			1580080527.0	12.28	22.74
26/01/2020 23:15:28	26012020	260120	231528	277.930	12.268670	-56.509270	278.000	0.400	-0.500	0.070	277.990	-1.900	0.400																			1580080528.0	12.24	22.67
26/01/2020 23:15:29	26012020	260120	231529	278.180	12.268678	-56.509325	278.190	0.160	-0.080	0.260	278.200	-1.500	0.600																			1580080529.0	12.03	22.28
26/01/2020 23:15:30	26012020	260120	231530	278.220	12.268687	-56.509380	278.190	-0.200	0.310	0.450	278.200	-1.100	0.800																			1580080530.0	11.75	21.76
26/01/2020 23:15:31	26012020	260120	231531	278.130	12.268693	-56.509435	278.050	-0.470	0.310	0.470	278.100	-1.000	0.800																			1580080531.0	11.76	21.78
26/01/2020 23:15:32	26012020	260120	231532	277.940	12.268698	-56.509493	277.880	-0.470	-0.130	0.370	277.910	-1.400	0.700																			1580080532.0	12.15	22.50
26/01/2020 23:15:33	26012020	260120	231533	277.820	12.268703	-56.509552	277.740	-0.220	-0.590	0.330	277.790	-1.900	0.700																			1580080533.0	12.56	23.26
26/01/2020 23:15:34	26012020	260120	231534	277.630	12.268708	-56.509610	277.570	0.070	-0.650	0.470	277.580	-2.000	0.800																			1580080534.0	12.49	23.13
26/01/2020 23:15:35	26012020	260120	231535	277.360	12.268715	-56.509667	277.300	0.190	-0.370	0.670	277.310	-1.800	1.000																			1580080535.0	12.02	22.26
26/01/2020 23:15:36	26012020	260120	231536	277.090	12.268723	-56.509722	277.050	0.100	-0.110	0.660	277.050	-1.500	1.000																			1580080536.0	11.67	21.61
26/01/2020 23:15:37	26012020	260120	231537	276.990	12.268730	-56.509777	277.020	-0.030	-0.150	0.350	277.000	-1.500	0.800																			1580080537.0	11.72	21.71
26/01/2020 23:15:38	26012020	260120	231538	277.160	12.268735	-56.509833	277.250	-0.030	-0.440	-0.060	277.230	-1.700	0.400																			1580080538.0	12.04	22.30
26/01/2020 23:15:39	26012020	260120	231539	277.510	12.268740	-56.509892	277.620	0.110	-0.680	-0.340	277.590	-2.000	0.000																			1580080539.0	12.35	22.87
26/01/2020 23:15:40	26012020	260120	231540	277.870	12.268747	-56.509950	277.950	0.220	-0.590	-0.310	277.920	-2.000	0.000																			1580080540.0	12.35	22.87
26/01/2020 23:15:41	26012020	260120	231541	278.080	12.268753	-56.510007	278.120	0.130	-0.140	0.030	278.090	-1.500	0.300																			1580080541.0	12.06	22.34
26/01/2020 23:15:42	26012020	260120	231542	278.090	12.268762	-56.510062	278.110	-0.120	0.310	0.430	278.080	-1.100	0.800																			1580080542.0	11.72	21.71
26/01/2020 23:15:43	26012020	260120	231543	277.990	12.268770	-56.510117	277.990	-0.290	0.380	0.680	277.970	-1.000	1.000																			1580080543.0	11.70	21.67
26/01/2020 23:15:44	26012020	260120	231544	277.850	12.268777	-56.510172	277.840	-0.210	0.040	0.630	277.830	-1.300	1.000																			1580080544.0	12.04	22.30
26/01/2020 23:15:45	26012020	260120	231545	277.760	12.268783	-56.510230	277.740	0.050	-0.440	0.460	277.740	-1.700	0.800																			1580080545.0	12.39	22.95
26/01/2020 23:15:46	26012020	260120	231546	277.690	12.268790	-56.510288	277.710	0.280	-0.740	0.320	277.690	-2.100	0.700																			1580080546.0	12.46	23.08
26/01/2020 23:15:47	26012020	260120	231547	277.690	12.268797	-56.510347	277.720	0.290	-0.740	0.210	277.700	-2.100	0.600																			1580080547.0	12.21	22.61
26/01/2020 23:15:48	26012020	260120	231548	277.740	12.268803	-56.510402	277.750	0.120	-0.550	0.060	277.750	-1.900	0.400																			1580080548.0	11.90	22.04
26/01/2020 23:15:49	26012020	260120	231549	277.820	12.268810	-56.510458	277.830	-0.080	-0.390	-0.140	277.840	-1.800	0.200																			1580080549.0	11.78	21.82
26/01/2020 23:15:50	26012020	260120	231550	277.930	12.268815	-56.510513	277.950	-0.190	-0.350	-0.290	277.960	-1.700	0.100																			1580080550.0	11.95	22.13
26/01/2020 23:15:51	26012020	260120	231551	278.050	12.268822	-56.510572	278.060	-0.210	-0.320	-0.280	278.070	-1.700	0.100																			1580080551.0	12.17	22.54
26/01/2020 23:15:52	26012020	260120	231552	278.130	12.268828	-56.510628	278.130	-0.220	-0.190	-0.090	278.140	-1.600	0.300																			1580080552.0	12.25	22.69
26/01/2020 23:15:53	26012020	260120	231553	278.160	12.268835	-56.510685	278.150	-0.260	0.020	0.120	278.160	-1.400	0.500																			1580080553.0	12.16	22.52
26/01/2020 23:15:54	26012020	260120	231554	278.180	12.268842	-56.510742	278.170	-0.240	0.150	0.240	278.190	-1.200	0.600																			1580080554.0	12.05	22.32
26/01/2020 23:15:55	26012020	260120	231555	278.200	12.268848	-56.510798	278.190	-0.080	0.090	0.300	278.200	-1.200	0.700																			1580080555.0	12.10	22.41
26/01/2020 23:15:56	26012020	260120	231556	278.210	12.268855	-56.510857	278.190	0.160	-0.070	0.360	278.200	-1.400	0.700																			1580080556.0	12.24	22.67
26/01/2020 23:15:57	26012020	260120	231557	278.190	12.268863	-56.510913	278.170	0.320	-0.160	0.380	278.180	-1.500	0.700																			1580080557.0	12.21	22.61
26/01/2020 23:15:58	26012020	260120	231558	278.130	12.268872	-56.510970	278.090	0.240	-0.200	0.340	278.120	-1.500	0.700																			1580080558.0	12.02	22.26
26/01/2020 23:15:59	26012020	260120	231559	278.020	12.268880	-56.511025	277.960	0.010	-0.280	0.170	277.990	-1.600	0.600																			1580080559.0	11.85	21.95
26/01/2020 23:16:00	26012020	260120	231600	277.900	12.268885	-56.511082	277.840	-0.160	-0.470	-0.080	277.880	-1.800	0.300	1015.10	26.00	26.10	21.00	21.00	-1.00	74.00	73.00	378.00	25.00	37.00	3.30	69.00	4.10	15	3820.00	27.60	27.60	1580080560.0	11.85	21.95
26/01/2020 23:16:01	26012020	260120	231601	277.860	12.268892	-56.511137	277.830	-0.070	-0.710	-0.240	277.860	-2.000	0.100																			1580080561.0	11.98	22.19
26/01/2020 23:16:02	26012020	260120	231602	277.920	12.268897	-56.511195	277.900	0.210	-0.900	-0.220	277.940	-2.200	0.100																			1580080562.0	12.15	22.50
26/01/2020 23:16:03	26012020	260120	231603	278.020	12.268903	-56.511252	278.010	0.470	-0.900	-0.040	278.040	-2.300	0.300																			1580080563.0	12.23	22.65
26/01/2020 23:16:04	26012020	260120	231604	278.110	12.268913	-56.511308	278.080	0.500	-0.630	0.200	278.120	-2.000	0.500																			1580080564.0	12.19	22.58
26/01/2020 23:16:05	26012020	260120	231605	278.140	12.268923	-56.511365	278.100	0.260	-0.180	0.390	278.150	-1.600	0.700																			1580080565.0	12.08	22.37
26/01/2020 23:16:06	26012020	260120	231606	278.150	12.268932	-56.511420	278.110	-0.160	0.270	0.450	278.150	-1.100	0.800																			1580080566.0	11.95	22.13
26/01/2020 23:16:07	26012020	260120	231607	278.150	12.268940	-56.511477	278.100	-0.560	0.480	0.320	278.150	-0.900	0.700																			1580080567.0	11.97	22.17
26/01/2020 23:16:08	26012020	260120	231608	278.150	12.268947	-56.511533	278.080	-0.770	0.380	0.030	278.150	-0.900	0.400																			1580080568.0	12.16	22.52
26/01/2020 23:16:09	26012020	260120	231609	278.140	12.268950	-56.511592	278.050	-0.730	0.100	-0.180	278.130	-1.200	0.200																			1580080569.0	12.36	22.89
26/01/2020 23:16:10	26012020	260120	231610	278.070	12.268953	-56.511650	278.010	-0.440	-0.190	-0.110	278.050	-1.500	0.200																			1580080570.0	12.37	22.91
26/01/2020 23:16:11	26012020	260120	231611	278.010	12.268960	-56.511708	277.970	-0.010	-0.410	0.230	278.010	-1.700	0.500																			1580080571.0	12.23	22.65
26/01/2020 23:16:12	26012020	260120	231612	278.000	12.268967	-56.511765	277.960	0.440	-0.560	0.600	278.000	-1.900	0.900																			1580080572.0	12.08	22.37
26/01/2020 23:16:13	26012020	260120	231613	278.020	12.268977	-56.511820	278.000	0.750	-0.640	0.830	278.030	-2.000	1.200																			1580080573.0	12.01	22.24
26/01/2020 23:16:14	26012020	260120	231614	278.030	12.268987	-56.511877	277.990	0.800	-0.610	0.870	278.020	-2.000	1.200																			1580080574.0	11.98	22.19
26/01/2020 23:16:15	26012020	260120	231615	277.970	12.268995	-56.511932	277.910	0.550	-0.460	0.740	277.960	-1.800	1.100																			1580080575.0	11.93	22.09
26/01/2020 23:16:16	26012020	260120	231616	277.870	12.269003	-56.511988	277.810	0.120	-0.250	0.520	277.850	-1.600	0.900																			1580080576.0	11.88	22.00
26/01/2020 23:16:17	26012020	260120	231617	277.770	12.269010	-56.512043	277.720	-0.280	-0.160	0.210	277.750	-1.500	0.600																			1580080577.0	11.86	21.96
26/01/2020 23:16:18	26012020	260120	231618	277.730	12.269015	-56.512100	277.690	-0.450	-0.290	-0.080	277.730	-1.600	0.300																			1580080578.0	12.05	22.32
26/01/2020 23:16:19	26012020	260120	231619	277.760	12.269020	-56.512158	277.750	-0.340	-0.470	-0.210	277.790	-1.800	0.200																			1580080579.0	12.35	22.87
26/01/2020 23:16:20	26012020	260120	231620	277.880	12.269027	-56.512217	277.880	-0.140	-0.420	-0.060	277.910	-1.800	0.300																			1580080580.0	12.45	23.06
26/01/2020 23:16:21	26012020	260120	231621	277.990	12.269033	-56.512273	277.980	-0.010	-0.110	0.240	278.010	-1.500	0.600																			1580080581.0	12.21	22.61
26/01/2020 23:16:22	26012020	260120	231622	278.020	12.269042	-56.512330	277.990	0.040	0.190	0.460	278.020	-1.200	0.800																			1580080582.0	11.93	22.09
26/01/2020 23:16:23	26012020	260120	231623	278.010	12.269050	-56.512385	277.960	0.090	0.180	0.470	277.990	-1.100	0.800																			1580080583.0	11.92	22.08
26/01/2020 23:16:24	26012020	260120	231624	277.940	12.269057	-56.512443	277.900	0.160	-0.080	0.350	277.930	-1.400	0.700																			1580080584.0	12.15	22.50
26/01/2020 23:16:25	26012020	260120	231625	277.850	12.269063	-56.512500	277.790	0.180	-0.390	0.200	277.830	-1.700	0.600																			1580080585.0	12.33	22.84
26/01/2020 23:16:26	26012020	260120	231626	277.700	12.269070	-56.512558	277.620	0.040	-0.540	0.110	277.660	-1.900	0.500																			1580080586.0	12.27	22.72
26/01/2020 23:16:27	26012020	260120	231627	277.530	12.269077	-56.512615	277.460	-0.250	-0.510	0.050	277.500	-1.900	0.400																			1580080587.0	12.05	22.32
26/01/2020 23:16:28	26012020	260120	231628	277.430	12.269082	-56.512670	277.400	-0.470	-0.470	0.030	277.430	-1.800	0.400																			1580080588.0	11.88	22.00
26/01/2020 23:16:29	26012020	260120	231629	277.500	12.269087	-56.512727	277.510	-0.390	-0.590	0.060	277.540	-1.900	0.400																			1580080589.0	12.00	22.22
26/01/2020 23:16:30	26012020	260120	231630	277.710	12.269092	-56.512785	277.740	0.040	-0.750	0.270	277.760	-2.100	0.600																			1580080590.0	12.36	22.89
26/01/2020 23:16:31	26012020	260120	231631	277.920	12.269102	-56.512843	277.920	0.580	-0.620	0.760	277.940	-2.000	1.100																			1580080591.0	12.56	23.26
26/01/2020 23:16:32	26012020	260120	231632	277.930	12.269112	-56.512902	277.860	0.830	-0.040	1.250	277.900	-1.500	1.600																			1580080592.0	12.38	22.93
26/01/2020 23:16:33	26012020	260120	231633	277.660	12.269123	-56.512957	277.550	0.580	0.720	1.380	277.590	-0.700	1.700																			1580080593.0	11.88	22.00
26/01/2020 23:16:34	26012020	260120	231634	277.280	12.269133	-56.513010	277.180	-0.030	1.100	0.950	277.210	-0.300	1.400																			1580080594.0	11.48	21.26
26/01/2020 23:16:35	26012020	260120	231635	277.020	12.269138	-56.513065	276.920	-0.580	0.690	0.150	276.980	-0.600	0.600																			1580080595.0	11.59	21.46
26/01/2020 23:16:36	26012020	260120	231636	276.900	12.269138	-56.513122	276.900	-0.720	-0.350	-0.650	276.920	-1.600	-0.200																			1580080596.0	12.18	22.56
26/01/2020 23:16:37	26012020	260120	231637	277.020	12.269138	-56.513182	277.120	-0.410	-1.440	-1.020	277.070	-2.700	-0.600																			1580080597.0	12.70	23.52
26/01/2020 23:16:38	26012020	260120	231638	277.420	12.269142	-56.513242	277.510	0.110	-1.980	-0.860	277.500	-3.300	-0.500																			1580080598.0	12.71	23.54
26/01/2020 23:16:39	26012020	260120	231639	277.820	12.269147	-56.513300	277.920	0.520	-1.720	-0.290	277.890	-3.100	-0.000																			1580080599.0	12.33	22.84
26/01/2020 23:16:40	26012020	260120	231640	278.120	12.269157	-56.513355	278.190	0.580	-0.880	0.450	278.150	-2.400	0.700																			1580080600.0	11.91	22.06
26/01/2020 23:16:41	26012020	260120	231641	278.240	12.269168	-56.513410	278.290	0.290	0.100	0.950	278.240	-1.400	1.300																			1580080601.0	11.65	21.58
26/01/2020 23:16:42	26012020	260120	231642	278.220	12.269178	-56.513463	278.240	-0.160	0.790	0.960	278.210	-0.600	1.300																			1580080602.0	11.71	21.69
26/01/2020 23:16:43	26012020	260120	231643	278.160	12.269187	-56.513520	278.160	-0.500	0.950	0.590	278.150	-0.400	1.000																			1580080603.0	11.98	22.19
26/01/2020 23:16:44	26012020	260120	231644	278.120	12.269192	-56.513578	278.100	-0.560	0.650	0.110	278.100	-0.700	0.500																			1580080604.0	12.36	22.89
26/01/2020 23:16:45	26012020	260120	231645	278.050	12.269197	-56.513637	278.000	-0.380	0.160	-0.210	278.030	-1.100	0.200																			1580080605.0	12.62	23.37
26/01/2020 23:16:46	26012020	260120	231646	277.910	12.269202	-56.513697	277.840	-0.110	-0.210	-0.220	277.870	-1.500	0.100																			1580080606.0	12.51	23.17
26/01/2020 23:16:47	26012020	260120	231647	277.710	12.269208	-56.513753	277.640	0.100	-0.430	-0.080	277.680	-1.800	0.300																			1580080607.0	12.16	22.52
26/01/2020 23:16:48	26012020	260120	231648	277.560	12.269215	-56.513810	277.510	0.240	-0.650	0.030	277.550	-2.000	0.400																			1580080608.0	11.87	21.98
26/01/2020 23:16:49	26012020	260120	231649	277.550	12.269222	-56.513865	277.540	0.390	-0.880	0.110	277.570	-2.200	0.500																			1580080609.0	11.87	21.98
26/01/2020 23:16:50	26012020	260120	231650	277.650	12.269228	-56.513922	277.650	0.500	-0.970	0.220	277.660	-2.300	0.600																			1580080610.0	12.00	22.22
26/01/2020 23:16:51	26012020	260120	231651	277.710	12.269235	-56.513977	277.700	0.470	-0.740	0.390	277.710	-2.100	0.700																			1580080611.0	11.99	22.21
26/01/2020 23:16:52	26012020	260120	231652	277.700	12.269245	-56.514033	277.680	0.240	-0.280	0.530	277.690	-1.700	0.900																			1580080612.0	11.82	21.89
26/01/2020 23:16:53	26012020	260120	231653	277.650	12.269253	-56.514087	277.620	-0.070	0.060	0.510	277.650	-1.300	0.900																			1580080613.0	11.72	21.71
26/01/2020 23:16:54	26012020	260120	231654	277.690	12.269260	-56.514143	277.690	-0.290	0.040	0.230	277.710	-1.300	0.600																			1580080614.0	11.98	22.19
26/01/2020 23:16:55	26012020	260120	231655	277.820	12.269267	-56.514202	277.840	-0.350	-0.170	-0.100	277.860	-1.500	0.300																			1580080615.0	12.41	22.98
26/01/2020 23:16:56	26012020	260120	231656	277.970	12.269272	-56.514262	277.970	-0.330	-0.220	-0.210	277.990	-1.600	0.200																			1580080616.0	12.56	23.26
26/01/2020 23:16:57	26012020	260120	231657	278.030	12.269277	-56.514318	277.990	-0.350	-0.020	-0.040	278.020	-1.400	0.300																			1580080617.0	12.30	22.78
26/01/2020 23:16:58	26012020	260120	231658	277.990	12.269283	-56.514375	277.950	-0.380	0.210	0.160	277.980	-1.200	0.500																			1580080618.0	11.90	22.04
26/01/2020 23:16:59	26012020	260120	231659	277.940	12.269290	-56.514430	277.920	-0.300	0.140	0.250	277.930	-1.200	0.600																			1580080619.0	11.76	21.78
26/01/2020 23:17:00	26012020	260120	231700	277.920	12.269297	-56.514487	277.920	-0.030	-0.270	0.280	277.920	-1.600	0.600	1015.10	26.00	26.10	21.20	21.20	-1.00	74.00	74.00	378.00	25.00	52.00	3.40	65.00	5.00	15	3722.00	27.60	27.60	1580080620.0	11.97	22.17
26/01/2020 23:17:01	26012020	260120	231701	277.960	12.269303	-56.514543	277.970	0.370	-0.740	0.310	277.970	-2.100	0.700																			1580080621.0	12.25	22.69
26/01/2020 23:17:02	26012020	260120	231702	278.030	12.269310	-56.514602	278.060	0.690	-0.960	0.340	278.050	-2.300	0.700																			1580080622.0	12.29	22.76
26/01/2020 23:17:03	26012020	260120	231703	278.120	12.269318	-56.514658	278.140	0.790	-0.860	0.380	278.130	-2.200	0.700																			1580080623.0	12.10	22.41
26/01/2020 23:17:04	26012020	260120	231704	278.150	12.269328	-56.514713	278.160	0.620	-0.540	0.390	278.150	-2.000	0.700																			1580080624.0	11.92	22.08
26/01/2020 23:17:05	26012020	260120	231705	278.100	12.269337	-56.514768	278.070	0.210	-0.110	0.370	278.080	-1.500	0.700																			1580080625.0	11.88	22.00
26/01/2020 23:17:06	26012020	260120	231706	277.910	12.269345	-56.514825	277.830	-0.350	0.360	0.290	277.850	-1.100	0.700																			1580080626.0	11.84	21.93
26/01/2020 23:17:07	26012020	260120	231707	277.600	12.269352	-56.514880	277.520	-0.850	0.590	0.050	277.550	-0.800	0.400																			1580080627.0	11.81	21.87
26/01/2020 23:17:08	26012020	260120	231708	277.370	12.269355	-56.514937	277.330	-1.020	0.380	-0.310	277.350	-0.900	0.100																			1580080628.0	11.97	22.17
26/01/2020 23:17:09	26012020	260120	231709	277.370	12.269357	-56.514995	277.390	-0.720	-0.260	-0.560	277.410	-1.500	-0.200																			1580080629.0	12.34	22.85
26/01/2020 23:17:10	26012020	260120	231710	277.670	12.269362	-56.515055	277.760	-0.070	-0.970	-0.470	277.760	-2.300	-0.100																			1580080630.0	12.68	23.48
26/01/2020 23:17:11	26012020	260120	231711	278.130	12.269368	-56.515115	278.240	0.580	-1.260	-0.010	278.230	-2.600	0.300																			1580080631.0	12.74	23.59
26/01/2020 23:17:12	26012020	260120	231712	278.510	12.269380	-56.515172	278.570	0.840	-0.840	0.630	278.550	-2.300	0.900																			1580080632.0	12.37	22.91
26/01/2020 23:17:13	26012020	260120	231713	278.610	12.269393	-56.515225	278.600	0.560	0.000	1.140	278.600	-1.500	1.500																			1580080633.0	11.70	21.67
26/01/2020 23:17:14	26012020	260120	231714	278.400	12.269403	-56.515278	278.330	-0.040	0.650	1.210	278.330	-0.800	1.600																			1580080634.0	11.24	20.82
26/01/2020 23:17:15	26012020	260120	231715	278.060	12.269410	-56.515332	278.000	-0.490	0.610	0.840	278.010	-0.700	1.300																			1580080635.0	11.39	21.09
26/01/2020 23:17:16	26012020	260120	231716	277.830	12.269413	-56.515388	277.790	-0.480	-0.060	0.300	277.800	-1.300	0.700																			1580080636.0	12.05	22.32
26/01/2020 23:17:17	26012020	260120	231717	277.740	12.269417	-56.515447	277.710	-0.070	-0.800	-0.070	277.730	-2.100	0.300																			1580080637.0	12.65	23.43
26/01/2020 23:17:18	26012020	260120	231718	277.710	12.269422	-56.515507	277.690	0.350	-1.040	-0.040	277.710	-2.400	0.300																			1580080638.0	12.69	23.50
26/01/2020 23:17:19	26012020	260120	231719	277.710	12.269428	-56.515565	277.680	0.480	-0.680	0.250	277.710	-2.100	0.600																			1580080639.0	12.16	22.52
26/01/2020 23:17:20	26012020	260120	231720	277.730	12.269438	-56.515618	277.740	0.310	-0.180	0.540	277.740	-1.600	0.900																			1580080640.0	11.65	21.58
26/01/2020 23:17:21	26012020	260120	231721	277.800	12.269447	-56.515673	277.840	0.080	0.020	0.630	277.820	-1.300	1.000																			1580080641.0	11.62	21.52
26/01/2020 23:17:22	26012020	260120	231722	277.920	12.269455	-56.515728	277.950	-0.040	-0.080	0.480	277.940	-1.400	0.900																			1580080642.0	11.99	22.21
26/01/2020 23:17:23	26012020	260120	231723	278.050	12.269462	-56.515787	278.070	-0.100	-0.200	0.220	278.080	-1.600	0.600																			1580080643.0	12.30	22.78
26/01/2020 23:17:24	26012020	260120	231724	278.170	12.269470	-56.515843	278.190	-0.210	-0.190	-0.010	278.190	-1.600	0.400																			1580080644.0	12.24	22.67
26/01/2020 23:17:25	26012020	260120	231725	278.240	12.269475	-56.515900	278.250	-0.390	-0.120	-0.180	278.250	-1.500	0.200																			1580080645.0	12.04	22.30
26/01/2020 23:17:26	26012020	260120	231726	278.250	12.269482	-56.515957	278.210	-0.500	-0.120	-0.220	278.240	-1.500	0.100																			1580080646.0	11.94	22.11
26/01/2020 23:17:27	26012020	260120	231727	278.180	12.269487	-56.516013	278.120	-0.410	-0.240	-0.080	278.160	-1.600	0.300																			1580080647.0	11.98	22.19
26/01/2020 23:17:28	26012020	260120	231728	278.080	12.269492	-56.516070	278.060	-0.080	-0.460	0.200	278.070	-1.800	0.500																			1580080648.0	12.10	22.41
26/01/2020 23:17:29	26012020	260120	231729	278.090	12.269500	-56.516127	278.110	0.340	-0.670	0.490	278.090	-2.000	0.800																			1580080649.0	12.25	22.69
26/01/2020 23:17:30	26012020	260120	231730	278.120	12.269508	-56.516185	278.140	0.620	-0.710	0.710	278.110	-2.100	1.000																			1580080650.0	12.29	22.76
26/01/2020 23:17:31	26012020	260120	231731	278.040	12.269518	-56.516242	278.030	0.620	-0.480	0.810	278.010	-1.900	1.200																			1580080651.0	12.16	22.52
26/01/2020 23:17:32	26012020	260120	231732	277.830	12.269527	-56.516297	277.780	0.340	-0.060	0.750	277.770	-1.500	1.100																			1580080652.0	11.93	22.09
26/01/2020 23:17:33	26012020	260120	231733	277.510	12.269535	-56.516352	277.440	-0.080	0.320	0.520	277.450	-1.100	0.900																			1580080653.0	11.74	21.74
26/01/2020 23:17:34	26012020	260120	231734	277.200	12.269540	-56.516407	277.120	-0.430	0.460	0.260	277.140	-0.900	0.600																			1580080654.0	11.73	21.72
26/01/2020 23:17:35	26012020	260120	231735	277.000	12.269545	-56.516463	276.980	-0.550	0.210	-0.010	276.990	-1.100	0.400																			1580080655.0	11.87	21.98
26/01/2020 23:17:36	26012020	260120	231736	277.060	12.269550	-56.516520	277.120	-0.360	-0.400	-0.270	277.110	-1.700	0.100																			1580080656.0	12.19	22.58
26/01/2020 23:17:37	26012020	260120	231737	277.420	12.269555	-56.516580	277.520	0.060	-1.030	-0.400	277.520	-2.300	-0.000																			1580080657.0	12.53	23.21
26/01/2020 23:17:38	26012020	260120	231738	277.940	12.269562	-56.516638	278.060	0.490	-1.250	-0.200	278.040	-2.600	0.100																			1580080658.0	12.62	23.37
26/01/2020 23:17:39	26012020	260120	231739	278.360	12.269570	-56.516697	278.430	0.620	-0.830	0.380	278.410	-2.300	0.700																			1580080659.0	12.31	22.80
26/01/2020 23:17:40	26012020	260120	231740	278.460	12.269582	-56.516752	278.470	0.360	-0.060	1.000	278.440	-1.500	1.300																			1580080660.0	11.78	21.82
26/01/2020 23:17:41	26012020	260120	231741	278.270	12.269593	-56.516805	278.240	-0.120	0.480	1.230	278.210	-0.900	1.600																			1580080661.0	11.48	21.26
26/01/2020 23:17:42	26012020	260120	231742	277.980	12.269600	-56.516858	277.950	-0.510	0.380	0.860	277.920	-0.900	1.300																			1580080662.0	11.73	21.72
26/01/2020 23:17:43	26012020	260120	231743	277.750	12.269605	-56.516917	277.740	-0.600	-0.180	0.220	277.730	-1.500	0.700																			1580080663.0	12.33	22.84
26/01/2020 23:17:44	26012020	260120	231744	277.630	12.269608	-56.516977	277.610	-0.440	-0.620	-0.240	277.600	-1.900	0.200																			1580080664.0	12.75	23.61
26/01/2020 23:17:45	26012020	260120	231745	277.500	12.269612	-56.517037	277.450	-0.220	-0.540	-0.240	277.470	-1.900	0.100																			1580080665.0	12.51	23.17
26/01/2020 23:17:46	26012020	260120	231746	277.320	12.269617	-56.517092	277.270	-0.090	-0.050	0.070	277.280	-1.500	0.400																			1580080666.0	11.86	21.96
26/01/2020 23:17:47	26012020	260120	231747	277.140	12.269623	-56.517147	277.110	0.030	0.290	0.430	277.110	-1.100	0.800																			1580080667.0	11.42	21.15
26/01/2020 23:17:48	26012020	260120	231748	277.060	12.269632	-56.517200	277.050	0.270	0.090	0.650	277.060	-1.200	1.000																			1580080668.0	11.55	21.39
26/01/2020 23:17:49	26012020	260120	231749	277.110	12.269640	-56.517257	277.200	0.630	-0.550	0.680	277.150	-1.800	1.000																			1580080669.0	12.12	22.45
26/01/2020 23:17:50	26012020	260120	231750	277.410	12.269648	-56.517315	277.490	0.900	-1.070	0.640	277.470	-2.400	1.000																			1580080670.0	12.55	23.24
26/01/2020 23:17:51	26012020	260120	231751	277.690	12.269658	-56.517373	277.760	0.820	-1.050	0.620	277.740	-2.400	1.000																			1580080671.0	12.49	23.13
26/01/2020 23:17:52	26012020	260120	231752	277.840	12.269667	-56.517430	277.870	0.280	-0.520	0.590	277.840	-1.900	0.900																			1580080672.0	12.00	22.22
26/01/2020 23:17:53	26012020	260120	231753	277.810	12.269675	-56.517483	277.820	-0.450	0.040	0.460	277.800	-1.400	0.800																			1580080673.0	11.62	21.52
26/01/2020 23:17:54	26012020	260120	231754	277.730	12.269680	-56.517538	277.720	-0.970	0.250	0.240	277.710	-1.100	0.600																			1580080674.0	11.72	21.71
26/01/2020 23:17:55	26012020	260120	231755	277.640	12.269683	-56.517597	277.650	-0.990	0.090	0.030	277.630	-1.200	0.400																			1580080675.0	12.18	22.56
26/01/2020 23:17:56	26012020	260120	231756	277.590	12.269687	-56.517657	277.610	-0.580	-0.180	-0.040	277.580	-1.500	0.300																			1580080676.0	12.57	23.28
26/01/2020 23:17:57	26012020	260120	231757	277.530	12.269693	-56.517715	277.530	-0.060	-0.280	0.120	277.510	-1.600	0.400																			1580080677.0	12.62	23.37
26/01/2020 23:17:58	26012020	260120	231758	277.360	12.269700	-56.517773	277.320	0.230	-0.090	0.420	277.310	-1.500	0.700																			1580080678.0	12.31	22.80
26/01/2020 23:17:59	26012020	260120	231759	277.100	12.269707	-56.517828	277.060	0.230	0.180	0.610	277.060	-1.200	1.000																			1580080679.0	11.84	21.93
26/01/2020 23:18:00	26012020	260120	231800	276.880	12.269715	-56.517883	276.860	0.120	0.130	0.520	276.850	-1.200	0.900	1015.10	26.00	26.10	21.20	21.20	-1.00	74.00	74.00	378.00	25.00	51.00	3.60	63.00	4.90	15	3756.00	27.60	27.60	1580080680.0	11.60	21.48
26/01/2020 23:18:01	26012020	260120	231801	276.790	12.269720	-56.517938	276.800	0.100	-0.300	0.270	276.790	-1.600	0.700																			1580080681.0	11.80	21.85
26/01/2020 23:18:02	26012020	260120	231802	276.810	12.269725	-56.517995	276.820	0.200	-0.800	0.100	276.820	-2.100	0.500																			1580080682.0	12.13	22.46
26/01/2020 23:18:03	26012020	260120	231803	276.870	12.269730	-56.518053	276.900	0.290	-0.990	0.170	276.880	-2.400	0.500																			1580080683.0	12.20	22.59
26/01/2020 23:18:04	26012020	260120	231804	276.970	12.269737	-56.518110	277.010	0.280	-0.830	0.440	276.990	-2.200	0.800																			1580080684.0	11.98	22.19
26/01/2020 23:18:05	26012020	260120	231805	277.080	12.269745	-56.518165	277.110	0.210	-0.510	0.740	277.090	-1.900	1.100																			1580080685.0	11.79	21.84
26/01/2020 23:18:06	26012020	260120	231806	277.140	12.269753	-56.518220	277.160	0.120	-0.210	0.960	277.150	-1.600	1.300																			1580080686.0	11.88	22.00
26/01/2020 23:18:07	26012020	260120	231807	277.150	12.269762	-56.518277	277.170	0.020	0.070	0.980	277.150	-1.300	1.300																			1580080687.0	12.05	22.32
26/01/2020 23:18:08	26012020	260120	231808	277.130	12.269768	-56.518333	277.140	-0.120	0.280	0.730	277.120	-1.100	1.100																			1580080688.0	12.12	22.45
26/01/2020 23:18:09	26012020	260120	231809	277.100	12.269775	-56.518390	277.100	-0.270	0.300	0.340	277.100	-1.100	0.700																			1580080689.0	12.13	22.46
26/01/2020 23:18:10	26012020	260120	231810	277.150	12.269778	-56.518448	277.170	-0.330	0.080	-0.060	277.170	-1.300	0.300																			1580080690.0	12.19	22.58
26/01/2020 23:18:11	26012020	260120	231811	277.290	12.269783	-56.518505	277.340	-0.250	-0.300	-0.380	277.330	-1.600	0.000																			1580080691.0	12.29	22.76
26/01/2020 23:18:12	26012020	260120	231812	277.470	12.269787	-56.518563	277.490	-0.130	-0.560	-0.510	277.510	-1.900	-0.100																			1580080692.0	12.31	22.80
26/01/2020 23:18:13	26012020	260120	231813	277.600	12.269792	-56.518620	277.600	-0.090	-0.570	-0.350	277.620	-1.900	-0.000																			1580080693.0	12.07	22.35
26/01/2020 23:18:14	26012020	260120	231814	277.620	12.269797	-56.518677	277.590	-0.160	-0.460	-0.010	277.610	-1.800	0.300																			1580080694.0	11.78	21.82
26/01/2020 23:18:15	26012020	260120	231815	277.560	12.269803	-56.518730	277.510	-0.200	-0.420	0.360	277.540	-1.800	0.700																			1580080695.0	11.69	21.65
26/01/2020 23:18:16	26012020	260120	231816	277.480	12.269810	-56.518787	277.490	-0.070	-0.510	0.580	277.480	-1.900	0.900																			1580080696.0	11.85	21.95
26/01/2020 23:18:17	26012020	260120	231817	277.490	12.269818	-56.518843	277.540	0.210	-0.610	0.530	277.510	-2.000	0.900																			1580080697.0	12.11	22.43
26/01/2020 23:18:18	26012020	260120	231818	277.590	12.269825	-56.518900	277.620	0.460	-0.460	0.390	277.610	-1.900	0.800																			1580080698.0	12.27	22.72
26/01/2020 23:18:19	26012020	260120	231819	277.630	12.269832	-56.518957	277.640	0.460	0.010	0.340	277.630	-1.400	0.700																			1580080699.0	12.08	22.37
26/01/2020 23:18:20	26012020	260120	231820	277.620	12.269840	-56.519012	277.600	0.180	0.510	0.370	277.600	-0.900	0.700																			1580080700.0	11.73	21.72
26/01/2020 23:18:21	26012020	260120	231821	277.570	12.269847	-56.519067	277.560	-0.140	0.630	0.390	277.560	-0.700	0.700																			1580080701.0	11.63	21.54
26/01/2020 23:18:22	26012020	260120	231822	277.520	12.269853	-56.519123	277.510	-0.260	0.210	0.310	277.520	-1.100	0.700																			1580080702.0	11.91	22.06
26/01/2020 23:18:23	26012020	260120	231823	277.510	12.269860	-56.519180	277.500	-0.100	-0.490	0.170	277.510	-1.800	0.500																			1580080703.0	12.34	22.85
26/01/2020 23:18:24	26012020	260120	231824	277.540	12.269867	-56.519240	277.550	0.180	-1.010	0.120	277.550	-2.300	0.500																			1580080704.0	12.58	23.30
26/01/2020 23:18:25	26012020	260120	231825	277.630	12.269873	-56.519298	277.660	0.310	-1.020	0.220	277.640	-2.400	0.500																			1580080705.0	12.37	22.91
26/01/2020 23:18:26	26012020	260120	231826	277.690	12.269880	-56.519353	277.710	0.170	-0.580	0.390	277.700	-2.000	0.700																			1580080706.0	11.88	22.00
26/01/2020 23:18:27	26012020	260120	231827	277.680	12.269888	-56.519407	277.670	-0.140	-0.160	0.500	277.660	-1.600	0.800																			1580080707.0	11.49	21.28
26/01/2020 23:18:28	26012020	260120	231828	277.610	12.269895	-56.519462	277.610	-0.390	-0.140	0.480	277.600	-1.500	0.800																			1580080708.0	11.58	21.45
26/01/2020 23:18:29	26012020	260120	231829	277.620	12.269900	-56.519518	277.670	-0.440	-0.450	0.350	277.640	-1.800	0.700																			1580080709.0	12.07	22.35
26/01/2020 23:18:30	26012020	260120	231830	277.770	12.269905	-56.519577	277.850	-0.280	-0.730	0.200	277.810	-2.100	0.600																			1580080710.0	12.47	23.09
26/01/2020 23:18:31	26012020	260120	231831	277.960	12.269910	-56.519637	278.010	-0.070	-0.680	0.180	277.980	-2.100	0.500																			1580080711.0	12.48	23.11
26/01/2020 23:18:32	26012020	260120	231832	277.970	12.269917	-56.519693	277.970	0.030	-0.260	0.380	277.940	-1.700	0.700																			1580080712.0	12.22	22.63
26/01/2020 23:18:33	26012020	260120	231833	277.770	12.269923	-56.519750	277.740	-0.010	0.310	0.670	277.720	-1.100	1.000																			1580080713.0	11.90	22.04
26/01/2020 23:18:34	26012020	260120	231834	277.510	12.269932	-56.519803	277.490	-0.110	0.710	0.840	277.470	-0.700	1.200																			1580080714.0	11.74	21.74
26/01/2020 23:18:35	26012020	260120	231835	277.340	12.269938	-56.519860	277.350	-0.100	0.690	0.760	277.320	-0.700	1.100																			1580080715.0	11.80	21.85
26/01/2020 23:18:36	26012020	260120	231836	277.300	12.269945	-56.519917	277.330	0.110	0.220	0.430	277.300	-1.100	0.800																			1580080716.0	12.07	22.35
26/01/2020 23:18:37	26012020	260120	231837	277.400	12.269950	-56.519975	277.470	0.430	-0.420	0.090	277.430	-1.700	0.500																			1580080717.0	12.33	22.84
26/01/2020 23:18:38	26012020	260120	231838	277.620	12.269957	-56.520032	277.700	0.660	-0.900	-0.100	277.680	-2.200	0.300																			1580080718.0	12.42	23.00
26/01/2020 23:18:39	26012020	260120	231839	277.900	12.269965	-56.520090	277.980	0.620	-1.020	-0.030	277.940	-2.400	0.300																			1580080719.0	12.22	22.63
26/01/2020 23:18:40	26012020	260120	231840	278.070	12.269973	-56.520145	278.110	0.310	-0.800	0.180	278.080	-2.200	0.500																			1580080720.0	11.91	22.06
26/01/2020 23:18:41	26012020	260120	231841	278.050	12.269982	-56.520200	278.020	-0.130	-0.460	0.320	278.030	-1.900	0.700																			1580080721.0	11.68	21.63
26/01/2020 23:18:42	26012020	260120	231842	277.820	12.269988	-56.520255	277.810	-0.520	-0.240	0.320	277.790	-1.600	0.700																			1580080722.0	11.65	21.58
26/01/2020 23:18:43	26012020	260120	231843	277.620	12.269993	-56.520310	277.630	-0.660	-0.310	0.180	277.600	-1.600	0.600																			1580080723.0	11.87	21.98
26/01/2020 23:18:44	26012020	260120	231844	277.540	12.269998	-56.520368	277.580	-0.520	-0.530	-0.040	277.550	-1.900	0.300																			1580080724.0	12.27	22.72
26/01/2020 23:18:45	26012020	260120	231845	277.600	12.270002	-56.520427	277.680	-0.240	-0.560	-0.150	277.630	-1.900	0.200																			1580080725.0	12.48	23.11
26/01/2020 23:18:46	26012020	260120	231846	277.730	12.270008	-56.520485	277.820	-0.040	-0.270	-0.060	277.760	-1.700	0.300																			1580080726.0	12.32	22.82
26/01/2020 23:18:47	26012020	260120	231847	277.860	12.270017	-56.520542	277.970	0.010	0.160	0.190	277.890	-1.200	0.500																			1580080727.0	11.97	22.17
26/01/2020 23:18:48	26012020	260120	231848	277.990	12.270025	-56.520597	278.090	0.010	0.320	0.360	278.020	-1.000	0.700																			1580080728.0	11.85	21.95
26/01/2020 23:18:49	26012020	260120	231849	278.120	12.270033	-56.520653	278.200	0.120	0.100	0.350	278.140	-1.200	0.700																			1580080729.0	12.12	22.45
26/01/2020 23:18:50	26012020	260120	231850	278.200	12.270040	-56.520712	278.260	0.300	-0.200	0.260	278.200	-1.500	0.600																			1580080730.0	12.46	23.08
26/01/2020 23:18:51	26012020	260120	231851	278.160	12.270047	-56.520770	278.200	0.380	-0.260	0.200	278.150	-1.600	0.600																			1580080731.0	12.42	23.00
26/01/2020 23:18:52	26012020	260120	231852	278.030	12.270055	-56.520827	278.030	0.310	-0.130	0.210	277.990	-1.500	0.600																			1580080732.0	12.05	22.32
26/01/2020 23:18:53	26012020	260120	231853	277.850	12.270062	-56.520882	277.790	0.130	-0.090	0.260	277.800	-1.400	0.600																			1580080733.0	11.77	21.80
26/01/2020 23:18:54	26012020	260120	231854	277.530	12.270068	-56.520937	277.510	-0.070	-0.280	0.230	277.480	-1.600	0.600																			1580080734.0	11.84	21.93
26/01/2020 23:18:55	26012020	260120	231855	277.300	12.270077	-56.520993	277.290	-0.260	-0.510	0.050	277.260	-1.900	0.400																			1580080735.0	12.07	22.35
26/01/2020 23:18:56	26012020	260120	231856	277.180	12.270082	-56.521050	277.220	-0.380	-0.600	-0.240	277.180	-2.000	0.200																			1580080736.0	12.10	22.41
26/01/2020 23:18:57	26012020	260120	231857	277.290	12.270087	-56.521107	277.400	-0.330	-0.630	-0.500	277.350	-2.000	-0.100																			1580080737.0	12.01	22.24
26/01/2020 23:18:58	26012020	260120	231858	277.660	12.270092	-56.521163	277.810	-0.050	-0.690	-0.580	277.760	-2.000	-0.200																			1580080738.0	12.06	22.34
26/01/2020 23:18:59	26012020	260120	231859	278.150	12.270098	-56.521222	278.300	0.330	-0.690	-0.340	278.250	-2.100	-0.000																			1580080739.0	12.26	22.71
26/01/2020 23:19:00	26012020	260120	231900	278.550	12.270107	-56.521278	278.680	0.560	-0.430	0.110	278.600	-1.800	0.400	1015.10	26.00	26.10	21.00	21.00	-1.00	73.00	73.00	378.00	24.90	48.00	3.80	60.00	4.60	15	3823.00	27.60	27.60	1580080740.0	12.29	22.76
26/01/2020 23:19:01	26012020	260120	231901	278.710	12.270118	-56.521335	278.790	0.460	0.030	0.550	278.710	-1.400	0.900																			1580080741.0	12.07	22.35
26/01/2020 23:19:02	26012020	260120	231902	278.620	12.270128	-56.521390	278.640	0.090	0.400	0.760	278.570	-1.000	1.100																			1580080742.0	11.83	21.91
26/01/2020 23:19:03	26012020	260120	231903	278.330	12.270137	-56.521445	278.300	-0.300	0.440	0.660	278.250	-0.900	1.000																			1580080743.0	11.83	21.91
26/01/2020 23:19:04	26012020	260120	231904	277.910	12.270143	-56.521502	277.840	-0.520	0.110	0.370	277.820	-1.200	0.800																			1580080744.0	12.07	22.35
26/01/2020 23:19:05	26012020	260120	231905	277.550	12.270147	-56.521560	277.420	-0.500	-0.400	0.080	277.470	-1.700	0.500																			1580080745.0	12.34	22.85
26/01/2020 23:19:06	26012020	260120	231906	277.140	12.270152	-56.521618	277.120	-0.330	-0.820	-0.110	277.090	-2.100	0.300																			1580080746.0	12.47	23.09
26/01/2020 23:19:07	26012020	260120	231907	277.030	12.270155	-56.521677	277.090	-0.080	-0.960	-0.090	277.030	-2.300	0.300																			1580080747.0	12.35	22.87
26/01/2020 23:19:08	26012020	260120	231908	277.190	12.270162	-56.521735	277.300	0.200	-0.840	0.140	277.240	-2.200	0.500																			1580080748.0	12.16	22.52
26/01/2020 23:19:09	26012020	260120	231909	277.490	12.270172	-56.521790	277.630	0.460	-0.520	0.500	277.550	-1.900	0.800																			1580080749.0	12.09	22.39
26/01/2020 23:19:10	26012020	260120	231910	277.790	12.270182	-56.521847	277.920	0.580	-0.070	0.910	277.840	-1.500	1.200																			1580080750.0	12.06	22.34
26/01/2020 23:19:11	26012020	260120	231911	277.960	12.270193	-56.521902	278.050	0.440	0.390	1.190	277.970	-1.000	1.500																			1580080751.0	11.98	22.19
26/01/2020 23:19:12	26012020	260120	231912	277.930	12.270203	-56.521957	277.990	0.070	0.670	1.100	277.910	-0.700	1.500																			1580080752.0	11.85	21.95
26/01/2020 23:19:13	26012020	260120	231913	277.820	12.270210	-56.522013	277.850	-0.310	0.570	0.650	277.790	-0.800	1.100																			1580080753.0	11.83	21.91
26/01/2020 23:19:14	26012020	260120	231914	277.720	12.270215	-56.522070	277.770	-0.440	0.020	0.080	277.710	-1.300	0.500																			1580080754.0	12.01	22.24
26/01/2020 23:19:15	26012020	260120	231915	277.700	12.270217	-56.522128	277.750	-0.220	-0.780	-0.350	277.700	-2.000	0.000																			1580080755.0	12.33	22.84
26/01/2020 23:19:16	26012020	260120	231916	277.730	12.270220	-56.522187	277.780	0.170	-1.410	-0.410	277.740	-2.700	-0.100																			1580080756.0	12.55	23.24
26/01/2020 23:19:17	26012020	260120	231917	277.760	12.270227	-56.522245	277.820	0.390	-1.460	-0.170	277.760	-2.800	0.200																			1580080757.0	12.45	23.06
26/01/2020 23:19:18	26012020	260120	231918	277.760	12.270235	-56.522302	277.790	0.270	-0.920	0.190	277.750	-2.400	0.500																			1580080758.0	12.02	22.26
26/01/2020 23:19:19	26012020	260120	231919	277.690	12.270245	-56.522357	277.720	-0.080	-0.170	0.510	277.680	-1.600	0.800																			1580080759.0	11.65	21.58
26/01/2020 23:19:20	26012020	260120	231920	277.600	12.270252	-56.522410	277.660	-0.410	0.380	0.630	277.590	-1.000	1.000																			1580080760.0	11.65	21.58
26/01/2020 23:19:21	26012020	260120	231921	277.560	12.270258	-56.522467	277.620	-0.550	0.530	0.460	277.560	-0.800	0.800																			1580080761.0	11.92	22.08
26/01/2020 23:19:22	26012020	260120	231922	277.600	12.270263	-56.522525	277.690	-0.400	0.320	0.140	277.630	-1.000	0.500																			1580080762.0	12.28	22.74
26/01/2020 23:19:23	26012020	260120	231923	277.790	12.270268	-56.522583	277.900	-0.060	-0.070	-0.100	277.840	-1.400	0.300																			1580080763.0	12.54	23.22
26/01/2020 23:19:24	26012020	260120	231924	278.080	12.270275	-56.522642	278.200	0.280	-0.340	-0.070	278.140	-1.700	0.300																			1580080764.0	12.56	23.26
26/01/2020 23:19:25	26012020	260120	231925	278.360	12.270283	-56.522700	278.480	0.420	-0.300	0.240	278.410	-1.700	0.600																			1580080765.0	12.28	22.74
26/01/2020 23:19:26	26012020	260120	231926	278.520	12.270293	-56.522755	278.600	0.370	-0.100	0.590	278.530	-1.500	0.900																			1580080766.0	11.84	21.93
26/01/2020 23:19:27	26012020	260120	231927	278.530	12.270302	-56.522808	278.590	0.290	-0.120	0.800	278.520	-1.400	1.100																			1580080767.0	11.60	21.48
26/01/2020 23:19:28	26012020	260120	231928	278.470	12.270312	-56.522865	278.530	0.330	-0.530	0.750	278.460	-1.800	1.100																			1580080768.0	11.87	21.98
26/01/2020 23:19:29	26012020	260120	231929	278.400	12.270320	-56.522922	278.420	0.390	-0.980	0.520	278.370	-2.300	0.900																			1580080769.0	12.35	22.87
26/01/2020 23:19:30	26012020	260120	231930	278.290	12.270327	-56.522980	278.300	0.260	-1.010	0.250	278.260	-2.400	0.600																			1580080770.0	12.46	23.08
26/01/2020 23:19:31	26012020	260120	231931	278.160	12.270333	-56.523038	278.170	-0.170	-0.580	-0.010	278.140	-2.000	0.400																			1580080771.0	12.11	22.43
26/01/2020 23:19:32	26012020	260120	231932	278.070	12.270338	-56.523093	278.110	-0.700	-0.010	-0.260	278.070	-1.400	0.100																			1580080772.0	11.74	21.74
26/01/2020 23:19:33	26012020	260120	231933	278.150	12.270343	-56.523148	278.230	-0.990	0.290	-0.460	278.190	-1.100	-0.100																			1580080773.0	11.70	21.67
26/01/2020 23:19:34	26012020	260120	231934	278.470	12.270347	-56.523205	278.600	-0.850	0.110	-0.570	278.550	-1.200	-0.200																			1580080774.0	12.05	22.32
26/01/2020 23:19:35	26012020	260120	231935	279.000	12.270352	-56.523263	279.190	-0.350	-0.320	-0.460	279.130	-1.600	-0.100																			1580080775.0	12.54	23.22
26/01/2020 23:19:36	26012020	260120	231936	279.610	12.270360	-56.523323	279.820	0.210	-0.530	-0.050	279.720	-1.900	0.200																			1580080776.0	12.74	23.59
26/01/2020 23:19:37	26012020	260120	231937	280.080	12.270370	-56.523382	280.230	0.540	-0.260	0.490	280.140	-1.700	0.800																			1580080777.0	12.41	22.98
26/01/2020 23:19:38	26012020	260120	231938	280.260	12.270380	-56.523437	280.340	0.520	0.260	0.920	280.260	-1.100	1.200																			1580080778.0	11.82	21.89
26/01/2020 23:19:39	26012020	260120	231939	280.200	12.270392	-56.523490	280.220	0.310	0.520	1.050	280.160	-0.800	1.400																			1580080779.0	11.45	21.21
26/01/2020 23:19:40	26012020	260120	231940	280.020	12.270400	-56.523543	280.020	0.140	0.220	0.830	279.980	-1.100	1.200																			1580080780.0	11.60	21.48
26/01/2020 23:19:41	26012020	260120	231941	279.880	12.270408	-56.523600	279.900	0.150	-0.480	0.380	279.860	-1.700	0.800																			1580080781.0	12.08	22.37
26/01/2020 23:19:42	26012020	260120	231942	279.880	12.270415	-56.523658	279.940	0.250	-1.130	-0.120	279.900	-2.400	0.300																			1580080782.0	12.43	23.02
26/01/2020 23:19:43	26012020	260120	231943	280.000	12.270422	-56.523717	280.150	0.340	-1.360	-0.470	280.040	-2.700	-0.100																			1580080783.0	12.43	23.02
26/01/2020 23:19:44	26012020	260120	231944	280.330	12.270430	-56.523773	280.470	0.300	-1.060	-0.560	280.410	-2.500	-0.200																			1580080784.0	12.16	22.52
26/01/2020 23:19:45	26012020	260120	231945	280.680	12.270440	-56.523828	280.810	0.090	-0.450	-0.420	280.750	-1.900	-0.100																			1580080785.0	11.85	21.95
26/01/2020 23:19:46	26012020	260120	231946	281.000	12.270450	-56.523883	281.130	-0.250	0.160	-0.280	281.070	-1.300	0.100																			1580080786.0	11.69	21.65
26/01/2020 23:19:47	26012020	260120	231947	281.290	12.270458	-56.523938	281.390	-0.590	0.430	-0.260	281.340	-0.900	0.100																			1580080787.0	11.79	21.84
26/01/2020 23:19:48	26012020	260120	231948	281.520	12.270467	-56.523995	281.610	-0.770	0.240	-0.460	281.570	-1.100	-0.100																			1580080788.0	12.10	22.41
26/01/2020 23:19:49	26012020	260120	231949	281.770	12.270475	-56.524053	281.860	-0.670	-0.200	-0.740	281.820	-1.500	-0.300																			1580080789.0	12.50	23.15
26/01/2020 23:19:50	26012020	260120	231950	282.030	12.270480	-56.524113	282.120	-0.370	-0.510	-0.840	282.090	-1.800	-0.500																			1580080790.0	12.70	23.52
26/01/2020 23:19:51	26012020	260120	231951	282.260	12.270488	-56.524172	282.330	-0.040	-0.440	-0.660	282.300	-1.800	-0.300																			1580080791.0	12.47	23.09
26/01/2020 23:19:52	26012020	260120	231952	282.380	12.270498	-56.524227	282.410	0.180	-0.050	-0.260	282.380	-1.500	0.000																			1580080792.0	11.99	22.21
26/01/2020 23:19:53	26012020	260120	231953	282.330	12.270510	-56.524282	282.330	0.270	0.320	0.160	282.300	-1.100	0.500																			1580080793.0	11.61	21.50
26/01/2020 23:19:54	26012020	260120	231954	282.200	12.270522	-56.524333	282.210	0.290	0.370	0.370	282.180	-1.000	0.700																			1580080794.0	11.55	21.39
26/01/2020 23:19:55	26012020	260120	231955	282.160	12.270533	-56.524388	282.220	0.350	0.040	0.280	282.160	-1.300	0.700																			1580080795.0	11.77	21.80
26/01/2020 23:19:56	26012020	260120	231956	282.270	12.270545	-56.524445	282.350	0.460	-0.500	0.080	282.300	-1.800	0.500																			1580080796.0	12.08	22.37
26/01/2020 23:19:57	26012020	260120	231957	282.420	12.270557	-56.524502	282.550	0.540	-0.920	-0.050	282.460	-2.200	0.300																			1580080797.0	12.24	22.67
26/01/2020 23:19:58	26012020	260120	231958	282.620	12.270568	-56.524557	282.690	0.460	-0.970	-0.060	282.640	-2.300	0.300																			1580080798.0	12.13	22.46
26/01/2020 23:19:59	26012020	260120	231959	282.730	12.270580	-56.524612	282.800	0.210	-0.770	-0.030	282.750	-2.100	0.300																			1580080799.0	11.86	21.96
26/01/2020 23:20:00	26012020	260120	232000	282.890	12.270592	-56.524667	282.990	-0.090	-0.650	-0.050	282.930	-2.000	0.300	1015.10	26.00	26.10	21.00	21.00	-1.00	74.00	73.00	378.00	24.90	42.00	4.00	60.00	4.20	15	3816.00	27.60	27.60	1580080800.0	11.76	21.78
26/01/2020 23:20:01	26012020	260120	232001	283.160	12.270602	-56.524722	283.280	-0.240	-0.710	-0.190	283.230	-2.000	0.200																			1580080801.0	12.05	22.32
26/01/2020 23:20:02	26012020	260120	232002	283.520	12.270612	-56.524780	283.640	-0.260	-0.710	-0.340	283.590	-2.100	0.000																			1580080802.0	12.43	23.02
26/01/2020 23:20:03	26012020	260120	232003	283.850	12.270623	-56.524838	283.940	-0.320	-0.340	-0.370	283.900	-1.800	-0.000																			1580080803.0	12.51	23.17
26/01/2020 23:20:04	26012020	260120	232004	284.030	12.270633	-56.524895	284.080	-0.540	0.360	-0.210	284.050	-1.100	0.100																			1580080804.0	12.17	22.54
26/01/2020 23:20:05	26012020	260120	232005	284.030	12.270643	-56.524950	284.030	-0.820	0.970	0.010	284.010	-0.400	0.400																			1580080805.0	11.74	21.74
26/01/2020 23:20:06	26012020	260120	232006	283.920	12.270653	-56.525003	283.930	-0.890	1.040	0.110	283.900	-0.300	0.500																			1580080806.0	11.67	21.61
26/01/2020 23:20:07	26012020	260120	232007	283.860	12.270663	-56.525060	283.890	-0.530	0.470	0.060	283.860	-0.800	0.400																			1580080807.0	12.05	22.32
26/01/2020 23:20:08	26012020	260120	232008	283.950	12.270675	-56.525118	284.030	0.190	-0.370	-0.050	283.990	-1.600	0.300																			1580080808.0	12.51	23.17
26/01/2020 23:20:09	26012020	260120	232009	284.170	12.270687	-56.525177	284.270	0.900	-0.890	-0.060	284.230	-2.200	0.300																			1580080809.0	12.60	23.34
26/01/2020 23:20:10	26012020	260120	232010	284.440	12.270700	-56.525232	284.530	1.230	-0.810	0.070	284.490	-2.200	0.400																			1580080810.0	12.13	22.46
26/01/2020 23:20:11	26012020	260120	232011	284.670	12.270715	-56.525283	284.760	1.060	-0.440	0.170	284.710	-1.800	0.500																			1580080811.0	11.51	21.32
26/01/2020 23:20:12	26012020	260120	232012	284.830	12.270730	-56.525335	284.910	0.590	-0.270	0.040	284.870	-1.600	0.400																			1580080812.0	11.23	20.80
26/01/2020 23:20:13	26012020	260120	232013	284.970	12.270743	-56.525388	285.040	0.110	-0.550	-0.350	285.000	-1.900	0.100																			1580080813.0	11.57	21.43
26/01/2020 23:20:14	26012020	260120	232014	285.110	12.270755	-56.525443	285.160	-0.220	-0.970	-0.790	285.130	-2.300	-0.400																			1580080814.0	12.16	22.52
26/01/2020 23:20:15	26012020	260120	232015	285.210	12.270765	-56.525502	285.240	-0.360	-1.110	-1.030	285.230	-2.500	-0.600																			1580080815.0	12.45	23.06
26/01/2020 23:20:16	26012020	260120	232016	285.290	12.270777	-56.525560	285.320	-0.390	-0.820	-0.920	285.310	-2.200	-0.600																			1580080816.0	12.33	22.84
26/01/2020 23:20:17	26012020	260120	232017	285.340	12.270788	-56.525615	285.370	-0.390	-0.250	-0.570	285.350	-1.700	-0.300																			1580080817.0	12.08	22.37
26/01/2020 23:20:18	26012020	260120	232018	285.340	12.270802	-56.525670	285.360	-0.450	0.330	-0.230	285.340	-1.100	0.100																			1580080818.0	11.93	22.09
26/01/2020 23:20:19	26012020	260120	232019	285.320	12.270817	-56.525723	285.340	-0.530	0.660	-0.130	285.310	-0.700	0.200																			1580080819.0	11.93	22.09
26/01/2020 23:20:20	26012020	260120	232020	285.330	12.270830	-56.525780	285.390	-0.510	0.610	-0.300	285.350	-0.700	0.100																			1580080820.0	12.08	22.37
26/01/2020 23:20:21	26012020	260120	232021	285.460	12.270842	-56.525837	285.530	-0.310	0.250	-0.510	285.490	-1.000	-0.100																			1580080821.0	12.27	22.72
26/01/2020 23:20:22	26012020	260120	232022	285.640	12.270853	-56.525893	285.720	0.060	-0.190	-0.510	285.670	-1.500	-0.200																			1580080822.0	12.40	22.96
26/01/2020 23:20:23	26012020	260120	232023	285.770	12.270868	-56.525950	285.820	0.430	-0.490	-0.220	285.780	-1.800	0.100																			1580080823.0	12.32	22.82
26/01/2020 23:20:24	26012020	260120	232024	285.810	12.270885	-56.526005	285.840	0.630	-0.560	0.140	285.810	-1.900	0.400																			1580080824.0	12.06	22.34
26/01/2020 23:20:25	26012020	260120	232025	285.770	12.270900	-56.526058	285.800	0.600	-0.490	0.380	285.750	-1.900	0.700																			1580080825.0	11.78	21.82
26/01/2020 23:20:26	26012020	260120	232026	285.620	12.270917	-56.526110	285.620	0.400	-0.400	0.480	285.570	-1.800	0.800																			1580080826.0	11.66	21.59
26/01/2020 23:20:27	26012020	260120	232027	285.360	12.270932	-56.526163	285.350	0.130	-0.360	0.360	285.300	-1.700	0.700																			1580080827.0	11.68	21.63
26/01/2020 23:20:28	26012020	260120	232028	285.070	12.270945	-56.526218	285.050	-0.090	-0.440	0.120	285.010	-1.800	0.500																			1580080828.0	11.81	21.87
26/01/2020 23:20:29	26012020	260120	232029	284.840	12.270957	-56.526273	284.840	-0.130	-0.580	-0.090	284.810	-1.900	0.300																			1580080829.0	12.03	22.28
26/01/2020 23:20:30	26012020	260120	232030	284.720	12.270970	-56.526330	284.740	0.000	-0.630	-0.100	284.710	-2.000	0.200																			1580080830.0	12.22	22.63
26/01/2020 23:20:31	26012020	260120	232031	284.680	12.270983	-56.526385	284.710	0.170	-0.480	0.140	284.670	-1.900	0.500																			1580080831.0	12.20	22.59
26/01/2020 23:20:32	26012020	260120	232032	284.660	12.270998	-56.526440	284.700	0.210	-0.200	0.460	284.650	-1.600	0.800																			1580080832.0	12.09	22.39
26/01/2020 23:20:33	26012020	260120	232033	284.630	12.271015	-56.526495	284.660	0.020	0.060	0.640	284.620	-1.300	1.000																			1580080833.0	12.01	22.24
26/01/2020 23:20:34	26012020	260120	232034	284.540	12.271030	-56.526550	284.570	-0.280	0.210	0.570	284.520	-1.200	0.900																			1580080834.0	11.96	22.15
26/01/2020 23:20:35	26012020	260120	232035	284.490	12.271042	-56.526605	284.540	-0.470	0.100	0.250	284.490	-1.200	0.600																			1580080835.0	11.98	22.19
26/01/2020 23:20:36	26012020	260120	232036	284.570	12.271052	-56.526662	284.660	-0.370	-0.310	-0.090	284.600	-1.600	0.300																			1580080836.0	12.18	22.56
26/01/2020 23:20:37	26012020	260120	232037	284.780	12.271063	-56.526720	284.900	-0.050	-0.770	-0.280	284.830	-2.100	0.100																			1580080837.0	12.48	23.11
26/01/2020 23:20:38	26012020	260120	232038	284.980	12.271077	-56.526777	285.040	0.220	-0.820	-0.130	284.990	-2.200	0.200																			1580080838.0	12.52	23.19
26/01/2020 23:20:39	26012020	260120	232039	284.940	12.271092	-56.526833	284.940	0.210	-0.320	0.270	284.890	-1.800	0.600																			1580080839.0	12.10	22.41
26/01/2020 23:20:40	26012020	260120	232040	284.640	12.271107	-56.526885	284.600	-0.030	0.310	0.670	284.560	-1.100	1.000																			1580080840.0	11.55	21.39
26/01/2020 23:20:41	26012020	260120	232041	284.230	12.271120	-56.526937	284.200	-0.210	0.510	0.840	284.160	-0.800	1.200																			1580080841.0	11.39	21.09
26/01/2020 23:20:42	26012020	260120	232042	283.910	12.271133	-56.526992	283.920	-0.110	0.110	0.680	283.870	-1.200	1.100																			1580080842.0	11.81	21.87
26/01/2020 23:20:43	26012020	260120	232043	283.760	12.271147	-56.527048	283.790	0.220	-0.490	0.430	283.750	-1.800	0.800																			1580080843.0	12.39	22.95
26/01/2020 23:20:44	26012020	260120	232044	283.710	12.271160	-56.527107	283.730	0.470	-0.720	0.370	283.700	-2.100	0.700																			1580080844.0	12.51	23.17
26/01/2020 23:20:45	26012020	260120	232045	283.640	12.271173	-56.527162	283.600	0.400	-0.470	0.490	283.610	-1.900	0.800																			1580080845.0	12.05	22.32
26/01/2020 23:20:46	26012020	260120	232046	283.430	12.271187	-56.527213	283.410	0.100	-0.170	0.570	283.390	-1.500	0.900																			1580080846.0	11.55	21.39
26/01/2020 23:20:47	26012020	260120	232047	283.280	12.271200	-56.527267	283.270	-0.140	-0.280	0.440	283.260	-1.600	0.800																			1580080847.0	11.57	21.43
26/01/2020 23:20:48	26012020	260120	232048	283.250	12.271212	-56.527323	283.310	-0.100	-0.790	0.170	283.270	-2.100	0.600																			1580080848.0	12.10	22.41
26/01/2020 23:20:49	26012020	260120	232049	283.420	12.271223	-56.527382	283.490	0.130	-1.180	-0.040	283.460	-2.500	0.300																			1580080849.0	12.65	23.43
26/01/2020 23:20:50	26012020	260120	232050	283.610	12.271235	-56.527440	283.650	0.240	-0.920	0.020	283.630	-2.300	0.400																			1580080850.0	12.65	23.43
26/01/2020 23:20:51	26012020	260120	232051	283.610	12.271248	-56.527495	283.610	-0.000	0.040	0.410	283.590	-1.400	0.700																			1580080851.0	12.05	22.32
26/01/2020 23:20:52	26012020	260120	232052	283.360	12.271262	-56.527547	283.310	-0.500	1.030	0.790	283.280	-0.400	1.100																			1580080852.0	11.32	20.96
26/01/2020 23:20:53	26012020	260120	232053	282.950	12.271275	-56.527598	282.900	-0.850	1.230	0.880	282.870	-0.100	1.200																			1580080853.0	11.23	20.80
26/01/2020 23:20:54	26012020	260120	232054	282.630	12.271285	-56.527653	282.630	-0.710	0.420	0.590	282.590	-0.800	1.000																			1580080854.0	11.92	22.08
26/01/2020 23:20:55	26012020	260120	232055	282.540	12.271297	-56.527713	282.580	-0.120	-0.790	0.170	282.550	-2.000	0.600																			1580080855.0	12.80	23.71
26/01/2020 23:20:56	26012020	260120	232056	282.600	12.271307	-56.527775	282.630	0.520	-1.490	0.010	282.600	-2.800	0.400																			1580080856.0	13.08	24.22
26/01/2020 23:20:57	26012020	260120	232057	282.590	12.271320	-56.527832	282.600	0.790	-1.250	0.330	282.570	-2.700	0.600																			1580080857.0	12.50	23.15
26/01/2020 23:20:58	26012020	260120	232058	282.430	12.271333	-56.527885	282.400	0.590	-0.440	0.790	282.380	-1.900	1.100																			1580080858.0	11.59	21.46
26/01/2020 23:20:59	26012020	260120	232059	282.120	12.271347	-56.527937	282.070	0.170	0.210	1.070	282.050	-1.200	1.400																			1580080859.0	11.16	20.67
26/01/2020 23:21:00	26012020	260120	232100	281.760	12.271360	-56.527988	281.710	-0.170	0.300	0.990	281.700	-1.000	1.400	1015.10	26.00	26.10	20.90	20.90	-1.00	73.00	73.00	378.00	24.90	45.00	4.10	63.00	4.40	15	3830.00	27.60	27.60	1580080860.0	11.45	21.21
26/01/2020 23:21:01	26012020	260120	232101	281.450	12.271372	-56.528043	281.430	-0.330	-0.000	0.760	281.410	-1.300	1.100																			1580080861.0	12.00	22.22
26/01/2020 23:21:02	26012020	260120	232102	281.260	12.271382	-56.528102	281.270	-0.330	-0.350	0.560	281.250	-1.700	0.900																			1580080862.0	12.36	22.89
26/01/2020 23:21:03	26012020	260120	232103	281.280	12.271392	-56.528158	281.350	-0.250	-0.540	0.400	281.310	-1.900	0.800																			1580080863.0	12.35	22.87
26/01/2020 23:21:04	26012020	260120	232104	281.490	12.271402	-56.528217	281.580	-0.150	-0.540	0.290	281.550	-1.900	0.700																			1580080864.0	12.21	22.61
26/01/2020 23:21:05	26012020	260120	232105	281.760	12.271412	-56.528272	281.840	-0.030	-0.380	0.300	281.800	-1.700	0.600																			1580080865.0	12.08	22.37
26/01/2020 23:21:06	26012020	260120	232106	281.940	12.271423	-56.528328	281.990	0.100	-0.170	0.450	281.970	-1.500	0.800																			1580080866.0	12.01	22.24
26/01/2020 23:21:07	26012020	260120	232107	281.980	12.271435	-56.528383	281.990	0.190	0.050	0.730	281.970	-1.300	1.000																			1580080867.0	11.99	22.21
26/01/2020 23:21:08	26012020	260120	232108	281.840	12.271447	-56.528438	281.820	0.180	0.240	1.000	281.800	-1.100	1.300																			1580080868.0	11.92	22.08
26/01/2020 23:21:09	26012020	260120	232109	281.560	12.271458	-56.528493	281.530	0.060	0.230	1.060	281.500	-1.100	1.400																			1580080869.0	11.80	21.85
26/01/2020 23:21:10	26012020	260120	232110	281.250	12.271470	-56.528547	281.220	-0.060	-0.120	0.860	281.190	-1.400	1.200																			1580080870.0	11.83	21.91
26/01/2020 23:21:11	26012020	260120	232111	281.010	12.271478	-56.528603	281.010	-0.070	-0.730	0.550	280.980	-2.000	0.900																			1580080871.0	12.10	22.41
26/01/2020 23:21:12	26012020	260120	232112	280.930	12.271488	-56.528662	280.950	0.020	-1.250	0.300	280.930	-2.500	0.700																			1580080872.0	12.39	22.95
26/01/2020 23:21:13	26012020	260120	232113	280.960	12.271498	-56.528720	280.990	0.080	-1.290	0.220	280.960	-2.600	0.600																			1580080873.0	12.41	22.98
26/01/2020 23:21:14	26012020	260120	232114	281.000	12.271510	-56.528775	281.060	0.000	-0.780	0.350	281.020	-2.200	0.700																			1580080874.0	12.08	22.37
26/01/2020 23:21:15	26012020	260120	232115	281.070	12.271520	-56.528830	281.130	-0.160	-0.080	0.580	281.090	-1.500	0.900																			1580080875.0	11.70	21.67
26/01/2020 23:21:16	26012020	260120	232116	281.170	12.271532	-56.528883	281.240	-0.260	0.360	0.690	281.200	-1.000	1.000																			1580080876.0	11.66	21.59
26/01/2020 23:21:17	26012020	260120	232117	281.280	12.271542	-56.528940	281.350	-0.210	0.430	0.670	281.300	-0.900	1.000																			1580080877.0	12.01	22.24
26/01/2020 23:21:18	26012020	260120	232118	281.290	12.271552	-56.528997	281.320	-0.090	0.340	0.580	281.270	-1.000	0.900																			1580080878.0	12.32	22.82
26/01/2020 23:21:19	26012020	260120	232119	281.150	12.271562	-56.529055	281.140	-0.020	0.260	0.450	281.110	-1.100	0.800																			1580080879.0	12.32	22.82
26/01/2020 23:21:20	26012020	260120	232120	280.940	12.271570	-56.529110	280.940	-0.040	0.200	0.300	280.910	-1.100	0.700																			1580080880.0	12.07	22.35
26/01/2020 23:21:21	26012020	260120	232121	280.810	12.271578	-56.529167	280.830	-0.050	0.000	0.170	280.800	-1.300	0.500																			1580080881.0	11.84	21.93
26/01/2020 23:21:22	26012020	260120	232122	280.810	12.271588	-56.529222	280.870	0.070	-0.430	0.110	280.830	-1.700	0.500																			1580080882.0	11.84	21.93
26/01/2020 23:21:23	26012020	260120	232123	280.910	12.271598	-56.529277	281.020	0.300	-0.930	0.170	280.940	-2.200	0.500																			1580080883.0	12.04	22.30
26/01/2020 23:21:24	26012020	260120	232124	281.130	12.271610	-56.529333	281.210	0.440	-1.200	0.330	281.170	-2.500	0.700																			1580080884.0	12.17	22.54
26/01/2020 23:21:25	26012020	260120	232125	281.280	12.271623	-56.529388	281.330	0.360	-1.090	0.550	281.290	-2.500	0.900																			1580080885.0	12.08	22.37
26/01/2020 23:21:26	26012020	260120	232126	281.290	12.271635	-56.529443	281.300	0.090	-0.670	0.730	281.270	-2.100	1.100																			1580080886.0	11.85	21.95
26/01/2020 23:21:27	26012020	260120	232127	281.180	12.271645	-56.529498	281.180	-0.180	-0.270	0.780	281.150	-1.600	1.100																			1580080887.0	11.75	21.76
26/01/2020 23:21:28	26012020	260120	232128	281.050	12.271655	-56.529553	281.060	-0.300	-0.100	0.630	281.030	-1.500	1.000																			1580080888.0	11.95	22.13
26/01/2020 23:21:29	26012020	260120	232129	280.980	12.271663	-56.529612	281.020	-0.290	-0.060	0.390	280.980	-1.400	0.800																			1580080889.0	12.29	22.76
26/01/2020 23:21:30	26012020	260120	232130	280.980	12.271672	-56.529670	281.020	-0.260	0.070	0.240	280.980	-1.300	0.600																			1580080890.0	12.38	22.93
26/01/2020 23:21:31	26012020	260120	232131	281.020	12.271682	-56.529727	281.070	-0.300	0.220	0.200	281.030	-1.100	0.600																			1580080891.0	12.19	22.58
26/01/2020 23:21:32	26012020	260120	232132	281.090	12.271692	-56.529782	281.160	-0.340	0.180	0.240	281.110	-1.200	0.600																			1580080892.0	12.05	22.32
26/01/2020 23:21:33	26012020	260120	232133	281.180	12.271702	-56.529838	281.240	-0.290	-0.090	0.360	281.200	-1.400	0.700																			1580080893.0	12.15	22.50
26/01/2020 23:21:34	26012020	260120	232134	281.250	12.271712	-56.529897	281.300	-0.100	-0.320	0.580	281.260	-1.600	0.900																			1580080894.0	12.30	22.78
26/01/2020 23:21:35	26012020	260120	232135	281.290	12.271722	-56.529953	281.360	0.130	-0.340	0.790	281.300	-1.700	1.100																			1580080895.0	12.19	22.58
26/01/2020 23:21:36	26012020	260120	232136	281.330	12.271733	-56.530008	281.370	0.290	-0.230	0.860	281.320	-1.600	1.200																			1580080896.0	11.92	22.08
26/01/2020 23:21:37	26012020	260120	232137	281.270	12.271743	-56.530063	281.300	0.380	-0.190	0.810	281.260	-1.500	1.200																			1580080897.0	11.79	21.84
26/01/2020 23:21:38	26012020	260120	232138	281.130	12.271753	-56.530118	281.130	0.400	-0.240	0.660	281.090	-1.600	1.000																			1580080898.0	11.83	21.91
26/01/2020 23:21:39	26012020	260120	232139	280.960	12.271763	-56.530173	280.960	0.360	-0.330	0.490	280.930	-1.700	0.900																			1580080899.0	11.90	22.04
26/01/2020 23:21:40	26012020	260120	232140	280.890	12.271773	-56.530228	280.940	0.260	-0.490	0.270	280.890	-1.800	0.700																			1580080900.0	11.93	22.09
26/01/2020 23:21:41	26012020	260120	232141	280.960	12.271783	-56.530285	281.020	0.110	-0.670	-0.010	280.980	-2.000	0.400																			1580080901.0	12.03	22.28
26/01/2020 23:21:42	26012020	260120	232142	281.090	12.271793	-56.530342	281.160	-0.040	-0.760	-0.240	281.120	-2.100	0.100																			1580080902.0	12.17	22.54
26/01/2020 23:21:43	26012020	260120	232143	281.240	12.271802	-56.530398	281.310	-0.180	-0.630	-0.260	281.270	-2.000	0.100																			1580080903.0	12.16	22.52
26/01/2020 23:21:44	26012020	260120	232144	281.380	12.271812	-56.530453	281.450	-0.330	-0.320	-0.060	281.410	-1.700	0.300																			1580080904.0	12.04	22.30
26/01/2020 23:21:45	26012020	260120	232145	281.500	12.271822	-56.530510	281.580	-0.440	-0.060	0.200	281.530	-1.400	0.500																			1580080905.0	11.92	22.08
26/01/2020 23:21:46	26012020	260120	232146	281.630	12.271832	-56.530565	281.710	-0.430	-0.070	0.330	281.650	-1.400	0.700																			1580080906.0	12.00	22.22
26/01/2020 23:21:47	26012020	260120	232147	281.770	12.271843	-56.530623	281.860	-0.220	-0.340	0.320	281.800	-1.700	0.700																			1580080907.0	12.35	22.87
26/01/2020 23:21:48	26012020	260120	232148	281.920	12.271853	-56.530682	281.990	0.030	-0.470	0.280	281.940	-1.800	0.600																			1580080908.0	12.65	23.43
26/01/2020 23:21:49	26012020	260120	232149	281.970	12.271863	-56.530740	281.980	0.090	-0.140	0.360	281.950	-1.500	0.700																			1580080909.0	12.47	23.09
26/01/2020 23:21:50	26012020	260120	232150	281.850	12.271875	-56.530795	281.830	-0.060	0.430	0.480	281.810	-1.000	0.800																			1580080910.0	11.89	22.02
26/01/2020 23:21:51	26012020	260120	232151	281.630	12.271885	-56.530848	281.610	-0.220	0.640	0.470	281.580	-0.700	0.800																			1580080911.0	11.56	21.41
26/01/2020 23:21:52	26012020	260120	232152	281.390	12.271895	-56.530903	281.390	-0.130	0.220	0.340	281.360	-1.100	0.700																			1580080912.0	11.83	21.91
26/01/2020 23:21:53	26012020	260120	232153	281.240	12.271903	-56.530962	281.240	0.190	-0.480	0.200	281.220	-1.800	0.600																			1580080913.0	12.40	22.96
26/01/2020 23:21:54	26012020	260120	232154	281.190	12.271913	-56.531020	281.230	0.480	-0.830	0.120	281.190	-2.200	0.500																			1580080914.0	12.55	23.24
26/01/2020 23:21:55	26012020	260120	232155	281.260	12.271925	-56.531075	281.330	0.500	-0.640	0.090	281.290	-2.000	0.400																			1580080915.0	12.08	22.37
26/01/2020 23:21:56	26012020	260120	232156	281.450	12.271935	-56.531130	281.550	0.290	-0.340	0.060	281.500	-1.700	0.400																			1580080916.0	11.53	21.35
26/01/2020 23:21:57	26012020	260120	232157	281.720	12.271947	-56.531182	281.840	0.070	-0.340	-0.020	281.780	-1.700	0.400																			1580080917.0	11.47	21.24
26/01/2020 23:21:58	26012020	260120	232158	282.040	12.271957	-56.531238	282.140	-0.020	-0.640	-0.100	282.100	-2.000	0.300																			1580080918.0	11.92	22.08
26/01/2020 23:21:59	26012020	260120	232159	282.310	12.271967	-56.531295	282.400	-0.000	-0.890	-0.100	282.360	-2.200	0.300																			1580080919.0	12.38	22.93
26/01/2020 23:22:00	26012020	260120	232200	282.520	12.271978	-56.531353	282.580	-0.010	-0.800	0.040	282.540	-2.200	0.400	1015.20	26.00	26.00	20.90	20.90	-1.00	73.00	73.00	378.00	24.90	48.00	3.30	69.00	4.70	15	3821.00	27.60	27.50	1580080920.0	12.45	23.06
26/01/2020 23:22:01	26012020	260120	232201	282.610	12.271990	-56.531410	282.640	-0.110	-0.410	0.240	282.610	-1.800	0.600																			1580080921.0	12.24	22.67
26/01/2020 23:22:02	26012020	260120	232202	282.540	12.272002	-56.531465	282.550	-0.270	0.040	0.430	282.520	-1.400	0.800																			1580080922.0	12.04	22.30
26/01/2020 23:22:03	26012020	260120	232203	282.360	12.272012	-56.531522	282.360	-0.400	0.300	0.520	282.320	-1.100	0.900																			1580080923.0	12.04	22.30
26/01/2020 23:22:04	26012020	260120	232204	282.170	12.272022	-56.531578	282.190	-0.420	0.300	0.490	282.150	-1.000	0.900																			1580080924.0	12.20	22.59
26/01/2020 23:22:05	26012020	260120	232205	282.090	12.272032	-56.531635	282.150	-0.330	0.190	0.370	282.100	-1.200	0.700																			1580080925.0	12.32	22.82
26/01/2020 23:22:06	26012020	260120	232206	282.160	12.272042	-56.531693	282.230	-0.140	0.070	0.220	282.190	-1.300	0.600																			1580080926.0	12.24	22.67
26/01/2020 23:22:07	26012020	260120	232207	282.320	12.272052	-56.531748	282.410	0.080	-0.060	0.090	282.360	-1.400	0.500																			1580080927.0	12.06	22.34
26/01/2020 23:22:08	26012020	260120	232208	282.520	12.272062	-56.531805	282.610	0.270	-0.260	-0.020	282.560	-1.600	0.300																			1580080928.0	11.98	22.19
26/01/2020 23:22:09	26012020	260120	232209	282.750	12.272073	-56.531860	282.850	0.370	-0.490	-0.120	282.810	-1.800	0.200																			1580080929.0	11.98	22.19
26/01/2020 23:22:10	26012020	260120	232210	283.000	12.272085	-56.531915	283.080	0.420	-0.690	-0.250	283.050	-2.000	0.100																			1580080930.0	12.01	22.24
26/01/2020 23:22:11	26012020	260120	232211	283.210	12.272097	-56.531972	283.290	0.440	-0.820	-0.350	283.250	-2.200	0.000																			1580080931.0	12.08	22.37
26/01/2020 23:22:12	26012020	260120	232212	283.360	12.272108	-56.532028	283.410	0.380	-0.770	-0.420	283.370	-2.100	-0.100																			1580080932.0	12.18	22.56
26/01/2020 23:22:13	26012020	260120	232213	283.390	12.272120	-56.532083	283.400	0.190	-0.460	-0.430	283.370	-1.900	-0.100																			1580080933.0	12.16	22.52
26/01/2020 23:22:14	26012020	260120	232214	283.250	12.272130	-56.532140	283.200	-0.100	-0.020	-0.350	283.200	-1.400	0.000																			1580080934.0	11.98	22.19
26/01/2020 23:22:15	26012020	260120	232215	282.990	12.272142	-56.532195	282.950	-0.340	0.260	-0.170	282.940	-1.100	0.200																			1580080935.0	11.85	21.95
26/01/2020 23:22:16	26012020	260120	232216	282.770	12.272153	-56.532250	282.760	-0.410	0.200	0.030	282.750	-1.100	0.400																			1580080936.0	11.99	22.21
26/01/2020 23:22:17	26012020	260120	232217	282.660	12.272167	-56.532307	282.670	-0.320	-0.110	0.140	282.650	-1.400	0.500																			1580080937.0	12.27	22.72
26/01/2020 23:22:18	26012020	260120	232218	282.660	12.272178	-56.532363	282.710	-0.220	-0.410	0.120	282.690	-1.700	0.500																			1580080938.0	12.38	22.93
26/01/2020 23:22:19	26012020	260120	232219	282.830	12.272190	-56.532420	282.930	-0.170	-0.590	-0.090	282.890	-1.900	0.300																			1580080939.0	12.26	22.71
26/01/2020 23:22:20	26012020	260120	232220	283.160	12.272202	-56.532477	283.280	-0.120	-0.680	-0.360	283.240	-2.000	0.000																			1580080940.0	12.13	22.46
26/01/2020 23:22:21	26012020	260120	232221	283.580	12.272212	-56.532533	283.700	0.000	-0.730	-0.510	283.670	-2.100	-0.200																			1580080941.0	12.13	22.46
26/01/2020 23:22:22	26012020	260120	232222	283.980	12.272222	-56.532590	284.070	0.180	-0.640	-0.400	284.040	-2.000	-0.100																			1580080942.0	12.22	22.63
26/01/2020 23:22:23	26012020	260120	232223	284.200	12.272235	-56.532647	284.240	0.310	-0.310	-0.020	284.210	-1.700	0.300																			1580080943.0	12.23	22.65
26/01/2020 23:22:24	26012020	260120	232224	284.150	12.272248	-56.532702	284.130	0.300	0.190	0.430	284.100	-1.200	0.700																			1580080944.0	12.05	22.32
26/01/2020 23:22:25	26012020	260120	232225	283.840	12.272263	-56.532755	283.790	0.150	0.590	0.700	283.770	-0.800	1.000																			1580080945.0	11.88	22.00
26/01/2020 23:22:26	26012020	260120	232226	283.430	12.272277	-56.532810	283.370	-0.050	0.660	0.640	283.350	-0.700	1.000																			1580080946.0	11.88	22.00
26/01/2020 23:22:27	26012020	260120	232227	283.100	12.272288	-56.532865	282.980	-0.190	0.410	0.330	283.030	-0.900	0.700																			1580080947.0	12.01	22.24
26/01/2020 23:22:28	26012020	260120	232228	282.760	12.272298	-56.532922	282.750	-0.200	-0.110	-0.020	282.730	-1.400	0.400																			1580080948.0	12.09	22.39
26/01/2020 23:22:29	26012020	260120	232229	282.720	12.272308	-56.532978	282.790	-0.040	-0.810	-0.350	282.750	-2.100	0.000																			1580080949.0	12.20	22.59
26/01/2020 23:22:30	26012020	260120	232230	282.990	12.272320	-56.533037	283.130	0.260	-1.430	-0.600	283.080	-2.700	-0.200																			1580080950.0	12.37	22.91
26/01/2020 23:22:31	26012020	260120	232231	283.470	12.272332	-56.533093	283.620	0.570	-1.630	-0.570	283.580	-3.000	-0.200																			1580080951.0	12.43	23.02
26/01/2020 23:22:32	26012020	260120	232232	283.950	12.272345	-56.533150	284.070	0.660	-1.200	-0.190	284.020	-2.600	0.100																			1580080952.0	12.24	22.67
26/01/2020 23:22:33	26012020	260120	232233	284.220	12.272360	-56.533203	284.280	0.390	-0.280	0.310	284.240	-1.700	0.600																			1580080953.0	11.83	21.91
26/01/2020 23:22:34	26012020	260120	232234	284.220	12.272375	-56.533257	284.220	-0.170	0.570	0.610	284.190	-0.900	0.900																			1580080954.0	11.51	21.32
26/01/2020 23:22:35	26012020	260120	232235	284.030	12.272387	-56.533310	284.000	-0.750	0.900	0.510	283.980	-0.500	0.900																			1580080955.0	11.59	21.46
26/01/2020 23:22:36	26012020	260120	232236	283.840	12.272397	-56.533365	283.850	-1.000	0.560	0.110	283.820	-0.700	0.500																			1580080956.0	12.07	22.35
26/01/2020 23:22:37	26012020	260120	232237	283.830	12.272407	-56.533425	283.880	-0.770	-0.130	-0.310	283.850	-1.400	0.100																			1580080957.0	12.63	23.39
26/01/2020 23:22:38	26012020	260120	232238	283.980	12.272415	-56.533485	284.040	-0.190	-0.680	-0.410	284.010	-2.000	-0.100																			1580080958.0	12.83	23.76
26/01/2020 23:22:39	26012020	260120	232239	284.140	12.272428	-56.533543	284.190	0.410	-0.830	-0.110	284.170	-2.200	0.200																			1580080959.0	12.57	23.28
26/01/2020 23:22:40	26012020	260120	232240	284.210	12.272443	-56.533598	284.230	0.730	-0.620	0.330	284.210	-2.000	0.600																			1580080960.0	12.17	22.54
26/01/2020 23:22:41	26012020	260120	232241	284.140	12.272460	-56.533652	284.140	0.690	-0.240	0.640	284.120	-1.600	1.000																			1580080961.0	11.86	21.96
26/01/2020 23:22:42	26012020	260120	232242	283.970	12.272475	-56.533705	283.950	0.370	0.090	0.610	283.930	-1.300	1.000																			1580080962.0	11.71	21.69
26/01/2020 23:22:43	26012020	260120	232243	283.750	12.272488	-56.533758	283.720	0.010	0.200	0.280	283.710	-1.200	0.700																			1580080963.0	11.71	21.69
26/01/2020 23:22:44	26012020	260120	232244	283.540	12.272500	-56.533813	283.500	-0.210	0.040	-0.090	283.500	-1.300	0.300																			1580080964.0	11.90	22.04
26/01/2020 23:22:45	26012020	260120	232245	283.380	12.272510	-56.533870	283.360	-0.250	-0.290	-0.320	283.360	-1.600	0.100																			1580080965.0	12.12	22.45
26/01/2020 23:22:46	26012020	260120	232246	283.320	12.272520	-56.533927	283.320	-0.180	-0.630	-0.290	283.320	-1.900	0.100																			1580080966.0	12.26	22.71
26/01/2020 23:22:47	26012020	260120	232247	283.360	12.272532	-56.533983	283.390	-0.090	-0.830	-0.090	283.380	-2.200	0.200																			1580080967.0	12.28	22.74
26/01/2020 23:22:48	26012020	260120	232248	283.480	12.272545	-56.534040	283.540	0.010	-0.770	0.150	283.520	-2.100	0.500																			1580080968.0	12.20	22.59
26/01/2020 23:22:49	26012020	260120	232249	283.660	12.272558	-56.534095	283.710	0.100	-0.500	0.390	283.690	-1.900	0.700																			1580080969.0	12.07	22.35
26/01/2020 23:22:50	26012020	260120	232250	283.780	12.272572	-56.534150	283.820	0.140	-0.140	0.620	283.800	-1.500	0.900																			1580080970.0	11.97	22.17
26/01/2020 23:22:51	26012020	260120	232251	283.810	12.272587	-56.534205	283.830	0.100	0.140	0.740	283.810	-1.200	1.100																			1580080971.0	11.93	22.09
26/01/2020 23:22:52	26012020	260120	232252	283.770	12.272600	-56.534260	283.770	0.040	0.230	0.640	283.750	-1.100	1.000																			1580080972.0	11.98	22.19
26/01/2020 23:22:53	26012020	260120	232253	283.680	12.272612	-56.534315	283.680	0.030	0.100	0.390	283.660	-1.200	0.800																			1580080973.0	12.09	22.39
26/01/2020 23:22:54	26012020	260120	232254	283.580	12.272625	-56.534372	283.570	0.090	-0.190	0.150	283.550	-1.500	0.500																			1580080974.0	12.23	22.65
26/01/2020 23:22:55	26012020	260120	232255	283.450	12.272637	-56.534428	283.440	0.160	-0.460	0.040	283.420	-1.800	0.400																			1580080975.0	12.33	22.84
26/01/2020 23:22:56	26012020	260120	232256	283.300	12.272648	-56.534485	283.280	0.160	-0.530	0.040	283.260	-1.900	0.400																			1580080976.0	12.27	22.72
26/01/2020 23:22:57	26012020	260120	232257	283.100	12.272662	-56.534542	283.070	0.010	-0.390	0.120	283.050	-1.800	0.500																			1580080977.0	12.06	22.34
26/01/2020 23:22:58	26012020	260120	232258	282.890	12.272673	-56.534595	282.870	-0.230	-0.190	0.250	282.850	-1.600	0.600																			1580080978.0	11.84	21.93
26/01/2020 23:22:59	26012020	260120	232259	282.740	12.272685	-56.534650	282.750	-0.430	-0.160	0.390	282.710	-1.500	0.700																			1580080979.0	11.77	21.80
26/01/2020 23:23:00	26012020	260120	232300	282.710	12.272697	-56.534705	282.770	-0.410	-0.440	0.470	282.720	-1.800	0.800	1015.20	26.00	26.10	21.10	21.10	-1.00	74.00	74.00	378.00	24.90	48.00	4.10	62.00	4.60	15	3801.00	27.60	27.60	1580080980.0	11.98	22.19
26/01/2020 23:23:01	26012020	260120	232301	282.840	12.272708	-56.534762	282.950	-0.140	-0.870	0.530	282.890	-2.200	0.900																			1580080981.0	12.36	22.89
26/01/2020 23:23:02	26012020	260120	232302	283.090	12.272720	-56.534820	283.210	0.230	-1.020	0.650	283.150	-2.400	1.000																			1580080982.0	12.62	23.37
26/01/2020 23:23:03	26012020	260120	232303	283.280	12.272733	-56.534878	283.410	0.440	-0.560	0.860	283.320	-2.000	1.200																			1580080983.0	12.40	22.96
26/01/2020 23:23:04	26012020	260120	232304	283.390	12.272748	-56.534932	283.420	0.330	0.250	0.980	283.380	-1.200	1.300																			1580080984.0	11.87	21.98
26/01/2020 23:23:05	26012020	260120	232305	283.270	12.272760	-56.534985	283.250	0.040	0.830	0.880	283.230	-0.600	1.300																			1580080985.0	11.50	21.30
26/01/2020 23:23:06	26012020	260120	232306	283.030	12.272772	-56.535038	282.990	-0.180	0.800	0.630	282.980	-0.500	1.000																			1580080986.0	11.68	21.63
26/01/2020 23:23:07	26012020	260120	232307	282.760	12.272783	-56.535095	282.720	-0.160	0.250	0.300	282.710	-1.000	0.700																			1580080987.0	12.15	22.50
26/01/2020 23:23:08	26012020	260120	232308	282.540	12.272793	-56.535153	282.510	0.050	-0.460	-0.000	282.500	-1.700	0.400																			1580080988.0	12.52	23.19
26/01/2020 23:23:09	26012020	260120	232309	282.380	12.272803	-56.535212	282.360	0.280	-0.910	-0.130	282.340	-2.200	0.200																			1580080989.0	12.56	23.26
26/01/2020 23:23:10	26012020	260120	232310	282.240	12.272815	-56.535268	282.230	0.340	-0.910	0.010	282.210	-2.300	0.300																			1580080990.0	12.26	22.71
26/01/2020 23:23:11	26012020	260120	232311	282.140	12.272828	-56.535323	282.150	0.190	-0.620	0.290	282.120	-2.000	0.600																			1580080991.0	11.83	21.91
26/01/2020 23:23:12	26012020	260120	232312	282.100	12.272842	-56.535377	282.160	-0.060	-0.430	0.480	282.110	-1.800	0.800																			1580080992.0	11.63	21.54
26/01/2020 23:23:13	26012020	260120	232313	282.170	12.272853	-56.535432	282.250	-0.220	-0.530	0.480	282.200	-1.900	0.800																			1580080993.0	11.86	21.96
26/01/2020 23:23:14	26012020	260120	232314	282.320	12.272865	-56.535488	282.410	-0.270	-0.760	0.310	282.360	-2.100	0.700																			1580080994.0	12.28	22.74
26/01/2020 23:23:15	26012020	260120	232315	282.480	12.272875	-56.535547	282.610	-0.260	-0.760	0.170	282.520	-2.100	0.500																			1580080995.0	12.52	23.19
26/01/2020 23:23:16	26012020	260120	232316	282.720	12.272887	-56.535603	282.810	-0.300	-0.410	0.120	282.760	-1.800	0.500																			1580080996.0	12.35	22.87
26/01/2020 23:23:17	26012020	260120	232317	282.830	12.272897	-56.535660	282.900	-0.380	0.130	0.190	282.850	-1.300	0.500																			1580080997.0	12.03	22.28
26/01/2020 23:23:18	26012020	260120	232318	282.830	12.272907	-56.535715	282.840	-0.420	0.510	0.350	282.810	-0.900	0.700																			1580080998.0	11.87	21.98
26/01/2020 23:23:19	26012020	260120	232319	282.700	12.272918	-56.535770	282.700	-0.280	0.520	0.550	282.660	-0.800	0.900																			1580080999.0	12.00	22.22
26/01/2020 23:23:20	26012020	260120	232320	282.490	12.272930	-56.535827	282.480	0.050	0.240	0.770	282.440	-1.100	1.100																			1580081000.0	12.28	22.74
26/01/2020 23:23:21	26012020	260120	232321	282.230	12.272942	-56.535885	282.200	0.450	-0.080	0.950	282.170	-1.400	1.300																			1580081001.0	12.44	23.04
26/01/2020 23:23:22	26012020	260120	232322	281.940	12.272957	-56.535942	281.910	0.710	-0.310	1.070	281.880	-1.600	1.400																			1580081002.0	12.35	22.87
26/01/2020 23:23:23	26012020	260120	232323	281.690	12.272970	-56.535997	281.680	0.720	-0.450	0.990	281.640	-1.800	1.400																			1580081003.0	12.15	22.50
26/01/2020 23:23:24	26012020	260120	232324	281.490	12.272983	-56.536052	281.510	0.490	-0.530	0.690	281.470	-1.900	1.100																			1580081004.0	12.01	22.24
26/01/2020 23:23:25	26012020	260120	232325	281.370	12.272993	-56.536108	281.380	0.140	-0.580	0.290	281.350	-1.900	0.700																			1580081005.0	11.94	22.11
26/01/2020 23:23:26	26012020	260120	232326	281.300	12.273002	-56.536163	281.350	-0.180	-0.580	-0.020	281.300	-1.900	0.400																			1580081006.0	11.92	22.08
26/01/2020 23:23:27	26012020	260120	232327	281.350	12.273012	-56.536218	281.420	-0.390	-0.550	-0.170	281.380	-1.900	0.200																			1580081007.0	11.92	22.08
26/01/2020 23:23:28	26012020	260120	232328	281.520	12.273020	-56.536275	281.620	-0.460	-0.560	-0.140	281.560	-1.900	0.200																			1580081008.0	11.96	22.15
26/01/2020 23:23:29	26012020	260120	232329	281.780	12.273030	-56.536332	281.890	-0.420	-0.620	-0.010	281.830	-2.000	0.300																			1580081009.0	12.08	22.37
26/01/2020 23:23:30	26012020	260120	232330	282.060	12.273040	-56.536388	282.170	-0.340	-0.670	0.190	282.110	-2.000	0.500																			1580081010.0	12.27	22.72
26/01/2020 23:23:31	26012020	260120	232331	282.310	12.273052	-56.536445	282.400	-0.230	-0.570	0.400	282.340	-1.900	0.700																			1580081011.0	12.36	22.89
26/01/2020 23:23:32	26012020	260120	232332	282.450	12.273062	-56.536503	282.530	-0.120	-0.270	0.600	282.470	-1.700	0.900																			1580081012.0	12.34	22.85
26/01/2020 23:23:33	26012020	260120	232333	282.460	12.273073	-56.536560	282.490	-0.060	0.140	0.730	282.440	-1.300	1.100																			1580081013.0	12.22	22.63
26/01/2020 23:23:34	26012020	260120	232334	282.320	12.273085	-56.536615	282.300	-0.040	0.460	0.760	282.270	-0.900	1.100																			1580081014.0	12.11	22.43
26/01/2020 23:23:35	26012020	260120	232335	282.030	12.273097	-56.536672	281.990	0.020	0.490	0.700	281.960	-0.900	1.100																			1580081015.0	12.16	22.52
26/01/2020 23:23:36	26012020	260120	232336	281.660	12.273107	-56.536728	281.610	0.160	0.300	0.590	281.590	-1.000	1.000																			1580081016.0	12.31	22.80
26/01/2020 23:23:37	26012020	260120	232337	281.310	12.273118	-56.536787	281.270	0.330	0.030	0.400	281.250	-1.300	0.800																			1580081017.0	12.35	22.87
26/01/2020 23:23:38	26012020	260120	232338	281.090	12.273128	-56.536843	281.100	0.390	-0.240	0.140	281.070	-1.600	0.500																			1580081018.0	12.21	22.61
26/01/2020 23:23:39	26012020	260120	232339	281.060	12.273140	-56.536898	281.120	0.300	-0.530	-0.160	281.080	-1.900	0.200																			1580081019.0	12.05	22.32
26/01/2020 23:23:40	26012020	260120	232340	281.250	12.273150	-56.536955	281.350	0.120	-0.810	-0.410	281.310	-2.100	-0.000																			1580081020.0	12.00	22.22
26/01/2020 23:23:41	26012020	260120	232341	281.590	12.273160	-56.537010	281.730	-0.030	-1.010	-0.560	281.670	-2.400	-0.200																			1580081021.0	12.03	22.28
26/01/2020 23:23:42	26012020	260120	232342	281.980	12.273172	-56.537067	282.120	-0.100	-1.020	-0.480	282.050	-2.400	-0.200																			1580081022.0	12.09	22.39
26/01/2020 23:23:43	26012020	260120	232343	282.330	12.273182	-56.537123	282.450	-0.130	-0.790	-0.240	282.380	-2.200	0.100																			1580081023.0	12.10	22.41
26/01/2020 23:23:44	26012020	260120	232344	282.570	12.273192	-56.537178	282.670	-0.180	-0.390	0.050	282.600	-1.800	0.400																			1580081024.0	12.05	22.32
26/01/2020 23:23:45	26012020	260120	232345	282.670	12.273203	-56.537235	282.730	-0.260	0.050	0.320	282.670	-1.400	0.600																			1580081025.0	12.00	22.22
26/01/2020 23:23:46	26012020	260120	232346	282.640	12.273213	-56.537290	282.660	-0.360	0.370	0.500	282.610	-1.000	0.800																			1580081026.0	12.02	22.26
26/01/2020 23:23:47	26012020	260120	232347	282.490	12.273223	-56.537347	282.500	-0.400	0.410	0.520	282.460	-0.900	0.900																			1580081027.0	12.11	22.43
26/01/2020 23:23:48	26012020	260120	232348	282.320	12.273235	-56.537403	282.330	-0.290	0.150	0.390	282.290	-1.200	0.800																			1580081028.0	12.31	22.80
26/01/2020 23:23:49	26012020	260120	232349	282.140	12.273245	-56.537462	282.140	-0.030	-0.270	0.270	282.100	-1.600	0.600																			1580081029.0	12.52	23.19
26/01/2020 23:23:50	26012020	260120	232350	281.980	12.273257	-56.537520	281.990	0.300	-0.600	0.210	281.950	-1.900	0.600																			1580081030.0	12.61	23.35
26/01/2020 23:23:51	26012020	260120	232351	281.880	12.273268	-56.537578	281.920	0.540	-0.660	0.240	281.870	-2.000	0.600																			1580081031.0	12.46	23.08
26/01/2020 23:23:52	26012020	260120	232352	281.830	12.273280	-56.537635	281.880	0.560	-0.450	0.330	281.820	-1.800	0.700																			1580081032.0	12.16	22.52
26/01/2020 23:23:53	26012020	260120	232353	281.790	12.273293	-56.537688	281.820	0.300	-0.140	0.420	281.770	-1.500	0.800																			1580081033.0	11.87	21.98
26/01/2020 23:23:54	26012020	260120	232354	281.730	12.273307	-56.537743	281.800	-0.080	-0.020	0.410	281.730	-1.400	0.800																			1580081034.0	11.74	21.74
26/01/2020 23:23:55	26012020	260120	232355	281.810	12.273317	-56.537798	281.920	-0.350	-0.180	0.250	281.850	-1.500	0.600																			1580081035.0	11.91	22.06
26/01/2020 23:23:56	26012020	260120	232356	282.060	12.273327	-56.537855	282.210	-0.370	-0.470	0.010	282.130	-1.800	0.400																			1580081036.0	12.23	22.65
26/01/2020 23:23:57	26012020	260120	232357	282.430	12.273335	-56.537913	282.580	-0.170	-0.610	-0.150	282.510	-2.000	0.200																			1580081037.0	12.42	23.00
26/01/2020 23:23:58	26012020	260120	232358	282.780	12.273345	-56.537970	282.910	0.050	-0.440	-0.080	282.840	-1.800	0.300																			1580081038.0	12.29	22.76
26/01/2020 23:23:59	26012020	260120	232359	282.990	12.273355	-56.538027	283.050	0.150	-0.130	0.150	283.010	-1.500	0.500																			1580081039.0	12.05	22.32
26/01/2020 23:24:00	26012020	260120	232400	282.980	12.273368	-56.538082	282.980	0.050	0.120	0.360	282.950	-1.300	0.700	1015.10	26.00	26.10	21.10	21.10	-1.00	74.00	73.00	378.00	24.90	53.00	4.00	62.00	5.00	15	3765.00	27.60	27.60	1580081040.0	11.90	22.04
26/01/2020 23:24:01	26012020	260120	232401	282.800	12.273380	-56.538137	282.790	-0.140	0.070	0.330	282.760	-1.300	0.700																			1580081041.0	11.97	22.17
26/01/2020 23:24:02	26012020	260120	232402	282.630	12.273390	-56.538193	282.640	-0.200	-0.230	0.080	282.600	-1.600	0.500																			1580081042.0	12.21	22.61
26/01/2020 23:24:03	26012020	260120	232403	282.550	12.273400	-56.538252	282.570	-0.040	-0.590	-0.150	282.530	-1.900	0.200																			1580081043.0	12.45	23.06
26/01/2020 23:24:04	26012020	260120	232404	282.470	12.273410	-56.538310	282.480	0.210	-0.730	-0.130	282.450	-2.100	0.200																			1580081044.0	12.50	23.15
26/01/2020 23:24:05	26012020	260120	232405	282.350	12.273422	-56.538367	282.310	0.280	-0.480	0.150	282.320	-1.900	0.500																			1580081045.0	12.24	22.67
26/01/2020 23:24:06	26012020	260120	232406	282.130	12.273435	-56.538420	282.150	0.080	-0.080	0.390	282.100	-1.500	0.700																			1580081046.0	11.83	21.91
26/01/2020 23:24:07	26012020	260120	232407	282.060	12.273447	-56.538473	282.130	-0.160	-0.010	0.390	282.060	-1.400	0.800																			1580081047.0	11.68	21.63
26/01/2020 23:24:08	26012020	260120	232408	282.190	12.273458	-56.538530	282.320	-0.170	-0.450	0.150	282.240	-1.700	0.500																			1580081048.0	12.09	22.39
26/01/2020 23:24:09	26012020	260120	232409	282.500	12.273470	-56.538588	282.650	0.040	-0.910	-0.100	282.560	-2.200	0.300																			1580081049.0	12.72	23.56
26/01/2020 23:24:10	26012020	260120	232410	282.830	12.273482	-56.538648	282.960	0.210	-0.780	-0.100	282.880	-2.200	0.200																			1580081050.0	12.82	23.74
26/01/2020 23:24:11	26012020	260120	232411	283.020	12.273493	-56.538705	283.100	0.070	-0.010	0.220	283.020	-1.500	0.500																			1580081051.0	12.22	22.63
26/01/2020 23:24:12	26012020	260120	232412	282.950	12.273505	-56.538758	282.980	-0.300	0.770	0.550	282.920	-0.700	0.900																			1580081052.0	11.54	21.37
26/01/2020 23:24:13	26012020	260120	232413	282.710	12.273517	-56.538812	282.720	-0.540	0.910	0.620	282.650	-0.400	1.000																			1580081053.0	11.47	21.24
26/01/2020 23:24:14	26012020	260120	232414	282.480	12.273527	-56.538867	282.540	-0.340	0.260	0.390	282.460	-1.000	0.800																			1580081054.0	12.03	22.28
26/01/2020 23:24:15	26012020	260120	232415	282.470	12.273537	-56.538927	282.570	0.260	-0.700	0.090	282.490	-2.000	0.500																			1580081055.0	12.72	23.56
26/01/2020 23:24:16	26012020	260120	232416	282.620	12.273547	-56.538987	282.720	0.780	-1.250	-0.040	282.650	-2.600	0.300																			1580081056.0	12.93	23.95
26/01/2020 23:24:17	26012020	260120	232417	282.730	12.273560	-56.539043	282.790	0.750	-1.020	0.030	282.740	-2.400	0.400																			1580081057.0	12.43	23.02
26/01/2020 23:24:18	26012020	260120	232418	282.710	12.273573	-56.539097	282.750	0.150	-0.290	0.120	282.700	-1.700	0.500																			1580081058.0	11.60	21.48
26/01/2020 23:24:19	26012020	260120	232419	282.650	12.273583	-56.539148	282.700	-0.580	0.240	0.050	282.650	-1.100	0.400																			1580081059.0	11.15	20.65
26/01/2020 23:24:20	26012020	260120	232420	282.700	12.273593	-56.539202	282.790	-0.880	0.090	-0.170	282.720	-1.200	0.200																			1580081060.0	11.44	21.19
26/01/2020 23:24:21	26012020	260120	232421	282.880	12.273600	-56.539260	282.990	-0.510	-0.590	-0.330	282.920	-1.900	0.000																			1580081061.0	12.29	22.76
26/01/2020 23:24:22	26012020	260120	232422	283.100	12.273610	-56.539320	283.190	0.190	-1.080	-0.200	283.130	-2.400	0.100																			1580081062.0	12.93	23.95
26/01/2020 23:24:23	26012020	260120	232423	283.200	12.273623	-56.539378	283.240	0.670	-0.780	0.240	283.200	-2.200	0.500																			1580081063.0	12.75	23.61
26/01/2020 23:24:24	26012020	260120	232424	283.110	12.273638	-56.539433	283.110	0.600	0.050	0.670	283.060	-1.400	1.000																			1580081064.0	12.00	22.22
26/01/2020 23:24:25	26012020	260120	232425	282.880	12.273653	-56.539485	282.880	0.180	0.650	0.710	282.830	-0.700	1.100																			1580081065.0	11.46	21.22
26/01/2020 23:24:26	26012020	260120	232426	282.690	12.273665	-56.539538	282.710	-0.220	0.560	0.310	282.670	-0.800	0.700																			1580081066.0	11.64	21.56
26/01/2020 23:24:27	26012020	260120	232427	282.660	12.273675	-56.539597	282.710	-0.380	-0.050	-0.270	282.680	-1.300	0.100																			1580081067.0	12.24	22.67
26/01/2020 23:24:28	26012020	260120	232428	282.810	12.273685	-56.539655	282.890	-0.340	-0.640	-0.700	282.850	-1.900	-0.300																			1580081068.0	12.65	23.43
26/01/2020 23:24:29	26012020	260120	232429	282.990	12.273693	-56.539713	283.140	-0.200	-0.850	-0.750	283.050	-2.200	-0.400																			1580081069.0	12.52	23.19
26/01/2020 23:24:30	26012020	260120	232430	283.310	12.273703	-56.539770	283.420	-0.040	-0.720	-0.470	283.370	-2.100	-0.200																			1580081070.0	12.08	22.37
26/01/2020 23:24:31	26012020	260120	232431	283.530	12.273715	-56.539825	283.670	0.110	-0.470	-0.040	283.580	-1.900	0.300																			1580081071.0	11.81	21.87
26/01/2020 23:24:32	26012020	260120	232432	283.750	12.273728	-56.539878	283.790	0.200	-0.230	0.400	283.750	-1.600	0.700																			1580081072.0	11.84	21.93
26/01/2020 23:24:33	26012020	260120	232433	283.680	12.273743	-56.539933	283.660	0.160	-0.020	0.690	283.640	-1.400	1.000																			1580081073.0	11.92	22.08
26/01/2020 23:24:34	26012020	260120	232434	283.420	12.273758	-56.539988	283.370	0.010	0.100	0.700	283.360	-1.300	1.100																			1580081074.0	11.95	22.13
26/01/2020 23:24:35	26012020	260120	232435	283.130	12.273768	-56.540043	283.110	-0.100	-0.020	0.450	283.080	-1.400	0.800																			1580081075.0	11.99	22.21
26/01/2020 23:24:36	26012020	260120	232436	282.960	12.273778	-56.540100	282.980	-0.040	-0.330	0.170	282.940	-1.700	0.600																			1580081076.0	12.21	22.61
26/01/2020 23:24:37	26012020	260120	232437	282.910	12.273790	-56.540158	282.940	0.180	-0.590	-0.030	282.910	-1.900	0.300																			1580081077.0	12.39	22.95
26/01/2020 23:24:38	26012020	260120	232438	282.910	12.273802	-56.540215	282.930	0.360	-0.570	-0.040	282.900	-1.900	0.300																			1580081078.0	12.33	22.84
26/01/2020 23:24:39	26012020	260120	232439	282.910	12.273813	-56.540270	282.940	0.340	-0.260	0.100	282.910	-1.700	0.400																			1580081079.0	12.03	22.28
26/01/2020 23:24:40	26012020	260120	232440	282.970	12.273828	-56.540323	283.030	0.120	0.010	0.210	283.000	-1.400	0.500																			1580081080.0	11.75	21.76
26/01/2020 23:24:41	26012020	260120	232441	283.150	12.273842	-56.540378	283.240	-0.140	-0.010	0.110	283.200	-1.400	0.500																			1580081081.0	11.79	21.84
26/01/2020 23:24:42	26012020	260120	232442	283.410	12.273853	-56.540433	283.500	-0.290	-0.260	-0.110	283.460	-1.600	0.300																			1580081082.0	12.11	22.43
26/01/2020 23:24:43	26012020	260120	232443	283.600	12.273863	-56.540492	283.700	-0.270	-0.430	-0.260	283.640	-1.800	0.100																			1580081083.0	12.33	22.84
26/01/2020 23:24:44	26012020	260120	232444	283.750	12.273873	-56.540548	283.770	-0.170	-0.410	-0.220	283.750	-1.800	0.100																			1580081084.0	12.21	22.61
26/01/2020 23:24:45	26012020	260120	232445	283.740	12.273883	-56.540603	283.750	-0.050	-0.330	-0.060	283.730	-1.700	0.300																			1580081085.0	12.00	22.22
26/01/2020 23:24:46	26012020	260120	232446	283.670	12.273895	-56.540658	283.680	0.030	-0.310	0.170	283.660	-1.700	0.500																			1580081086.0	11.95	22.13
26/01/2020 23:24:47	26012020	260120	232447	283.580	12.273908	-56.540715	283.590	0.080	-0.350	0.370	283.550	-1.700	0.700																			1580081087.0	12.04	22.30
26/01/2020 23:24:48	26012020	260120	232448	283.440	12.273922	-56.540770	283.450	0.100	-0.410	0.480	283.410	-1.800	0.800																			1580081088.0	12.13	22.46
26/01/2020 23:24:49	26012020	260120	232449	283.260	12.273935	-56.540827	283.260	0.110	-0.430	0.470	283.220	-1.800	0.800																			1580081089.0	12.20	22.59
26/01/2020 23:24:50	26012020	260120	232450	283.070	12.273948	-56.540882	283.080	0.090	-0.410	0.310	283.030	-1.800	0.700																			1580081090.0	12.23	22.65
26/01/2020 23:24:51	26012020	260120	232451	282.920	12.273960	-56.540938	282.940	0.060	-0.320	0.070	282.910	-1.700	0.400																			1580081091.0	12.25	22.69
26/01/2020 23:24:52	26012020	260120	232452	282.840	12.273972	-56.540995	282.860	0.020	-0.090	-0.040	282.830	-1.500	0.300																			1580081092.0	12.22	22.63
26/01/2020 23:24:53	26012020	260120	232453	282.770	12.273983	-56.541052	282.800	-0.070	0.210	0.030	282.760	-1.200	0.400																			1580081093.0	12.05	22.32
26/01/2020 23:24:54	26012020	260120	232454	282.700	12.273997	-56.541107	282.730	-0.190	0.340	0.140	282.690	-1.000	0.500																			1580081094.0	11.88	22.00
26/01/2020 23:24:55	26012020	260120	232455	282.660	12.274008	-56.541162	282.710	-0.250	0.190	0.190	282.650	-1.100	0.500																			1580081095.0	11.94	22.11
26/01/2020 23:24:56	26012020	260120	232456	282.720	12.274020	-56.541217	282.820	-0.140	-0.180	0.160	282.760	-1.500	0.500																			1580081096.0	12.09	22.39
26/01/2020 23:24:57	26012020	260120	232457	282.910	12.274030	-56.541273	283.070	0.150	-0.580	0.120	282.950	-1.900	0.500																			1580081097.0	12.23	22.65
26/01/2020 23:24:58	26012020	260120	232458	283.210	12.274043	-56.541330	283.310	0.450	-0.750	0.190	283.250	-2.100	0.500																			1580081098.0	12.22	22.63
26/01/2020 23:24:59	26012020	260120	232459	283.350	12.274055	-56.541385	283.410	0.550	-0.660	0.320	283.360	-2.000	0.700																			1580081099.0	12.02	22.26
26/01/2020 23:25:00	26012020	260120	232500	283.330	12.274068	-56.541440	283.360	0.380	-0.500	0.390	283.310	-1.900	0.700	1015.20	26.00	26.10	21.10	21.10	-1.00	74.00	74.00	379.00	24.90	45.00	4.30	59.00	4.40	15	3831.00	27.60	27.60	1580081100.0	11.79	21.84
26/01/2020 23:25:01	26012020	260120	232501	283.230	12.274082	-56.541493	283.260	0.040	-0.490	0.260	283.210	-1.800	0.600																			1580081101.0	11.82	21.89
26/01/2020 23:25:02	26012020	260120	232502	283.160	12.274093	-56.541550	283.190	-0.280	-0.600	-0.060	283.150	-1.900	0.300																			1580081102.0	12.08	22.37
26/01/2020 23:25:03	26012020	260120	232503	283.130	12.274103	-56.541608	283.160	-0.470	-0.630	-0.330	283.130	-2.000	0.000																			1580081103.0	12.33	22.84
26/01/2020 23:25:04	26012020	260120	232504	283.090	12.274112	-56.541665	283.110	-0.500	-0.490	-0.380	283.070	-1.900	-0.000																			1580081104.0	12.37	22.91
26/01/2020 23:25:05	26012020	260120	232505	282.990	12.274123	-56.541722	282.990	-0.400	-0.240	-0.150	282.950	-1.600	0.200																			1580081105.0	12.31	22.80
26/01/2020 23:25:06	26012020	260120	232506	282.800	12.274135	-56.541778	282.780	-0.260	0.120	0.260	282.750	-1.300	0.600																			1580081106.0	12.28	22.74
26/01/2020 23:25:07	26012020	260120	232507	282.490	12.274148	-56.541835	282.450	-0.090	0.440	0.710	282.410	-1.000	1.000																			1580081107.0	12.16	22.52
26/01/2020 23:25:08	26012020	260120	232508	282.100	12.274162	-56.541890	282.080	0.120	0.540	1.060	282.030	-0.800	1.400																			1580081108.0	12.08	22.37
26/01/2020 23:25:09	26012020	260120	232509	281.800	12.274177	-56.541947	281.830	0.370	0.320	1.090	281.760	-1.000	1.400																			1580081109.0	12.13	22.46
26/01/2020 23:25:10	26012020	260120	232510	281.700	12.274190	-56.542002	281.780	0.540	-0.090	0.870	281.700	-1.400	1.300																			1580081110.0	12.26	22.71
26/01/2020 23:25:11	26012020	260120	232511	281.800	12.274203	-56.542058	281.920	0.470	-0.380	0.510	281.840	-1.700	0.900																			1580081111.0	12.21	22.61
26/01/2020 23:25:12	26012020	260120	232512	282.050	12.274213	-56.542113	282.190	0.150	-0.470	0.120	282.110	-1.800	0.500																			1580081112.0	11.91	22.06
26/01/2020 23:25:13	26012020	260120	232513	282.360	12.274223	-56.542168	282.500	-0.220	-0.530	-0.170	282.420	-1.900	0.200																			1580081113.0	11.64	21.56
26/01/2020 23:25:14	26012020	260120	232514	282.660	12.274232	-56.542223	282.790	-0.360	-0.770	-0.300	282.720	-2.100	0.100																			1580081114.0	11.69	21.65
26/01/2020 23:25:15	26012020	260120	232515	282.930	12.274242	-56.542278	283.050	-0.200	-1.090	-0.170	282.970	-2.400	0.200																			1580081115.0	12.06	22.34
26/01/2020 23:25:16	26012020	260120	232516	283.120	12.274252	-56.542337	283.230	0.120	-1.200	0.120	283.150	-2.600	0.400																			1580081116.0	12.36	22.89
26/01/2020 23:25:17	26012020	260120	232517	283.190	12.274263	-56.542393	283.250	0.330	-0.880	0.500	283.170	-2.300	0.800																			1580081117.0	12.36	22.89
26/01/2020 23:25:18	26012020	260120	232518	283.040	12.274277	-56.542448	283.040	0.270	-0.210	0.880	282.980	-1.600	1.200																			1580081118.0	12.12	22.45
26/01/2020 23:25:19	26012020	260120	232519	282.660	12.274290	-56.542503	282.610	-0.020	0.430	0.970	282.560	-1.000	1.300																			1580081119.0	11.87	21.98
26/01/2020 23:25:20	26012020	260120	232520	282.170	12.274303	-56.542558	282.110	-0.370	0.640	0.660	282.070	-0.700	1.100																			1580081120.0	11.92	22.08
26/01/2020 23:25:21	26012020	260120	232521	281.820	12.274313	-56.542615	281.730	-0.550	0.380	0.130	281.750	-0.900	0.500																			1580081121.0	12.24	22.67
26/01/2020 23:25:22	26012020	260120	232522	281.530	12.274322	-56.542673	281.550	-0.510	-0.070	-0.300	281.510	-1.400	0.100																			1580081122.0	12.57	23.28
26/01/2020 23:25:23	26012020	260120	232523	281.490	12.274330	-56.542733	281.550	-0.310	-0.330	-0.400	281.490	-1.700	-0.100																			1580081123.0	12.56	23.26
26/01/2020 23:25:24	26012020	260120	232524	281.550	12.274340	-56.542790	281.630	-0.100	-0.300	-0.190	281.580	-1.700	0.100																			1580081124.0	12.20	22.59
26/01/2020 23:25:25	26012020	260120	232525	281.670	12.274353	-56.542845	281.790	0.070	-0.210	0.150	281.710	-1.600	0.400																			1580081125.0	11.84	21.93
26/01/2020 23:25:26	26012020	260120	232526	281.880	12.274365	-56.542898	282.020	0.250	-0.300	0.490	281.930	-1.600	0.800																			1580081126.0	11.77	21.80
26/01/2020 23:25:27	26012020	260120	232527	282.160	12.274378	-56.542953	282.320	0.470	-0.540	0.730	282.220	-1.900	1.000																			1580081127.0	11.99	22.21
26/01/2020 23:25:28	26012020	260120	232528	282.460	12.274392	-56.543010	282.610	0.650	-0.730	0.740	282.520	-2.100	1.100																			1580081128.0	12.21	22.61
26/01/2020 23:25:29	26012020	260120	232529	282.710	12.274405	-56.543065	282.840	0.630	-0.650	0.580	282.750	-2.000	0.900																			1580081129.0	12.20	22.59
26/01/2020 23:25:30	26012020	260120	232530	282.800	12.274417	-56.543122	282.860	0.340	-0.290	0.370	282.780	-1.700	0.700																			1580081130.0	11.98	22.19
26/01/2020 23:25:31	26012020	260120	232531	282.660	12.274428	-56.543175	282.660	-0.170	0.130	0.120	282.600	-1.300	0.500																			1580081131.0	11.72	21.71
26/01/2020 23:25:32	26012020	260120	232532	282.330	12.274437	-56.543230	282.300	-0.680	0.270	-0.190	282.260	-1.100	0.200																			1580081132.0	11.63	21.54
26/01/2020 23:25:33	26012020	260120	232533	282.040	12.274443	-56.543285	281.970	-0.890	-0.030	-0.450	281.980	-1.300	-0.100																			1580081133.0	11.91	22.06
26/01/2020 23:25:34	26012020	260120	232534	281.800	12.274450	-56.543343	281.860	-0.640	-0.640	-0.520	281.790	-1.900	-0.200																			1580081134.0	12.33	22.84
26/01/2020 23:25:35	26012020	260120	232535	281.850	12.274460	-56.543403	281.960	-0.040	-1.150	-0.300	281.880	-2.500	0.000																			1580081135.0	12.68	23.48
26/01/2020 23:25:36	26012020	260120	232536	282.010	12.274472	-56.543462	282.120	0.510	-1.100	0.230	282.030	-2.500	0.500																			1580081136.0	12.66	23.45
26/01/2020 23:25:37	26012020	260120	232537	282.050	12.274487	-56.543517	282.120	0.620	-0.410	0.880	282.040	-1.900	1.200																			1580081137.0	12.23	22.65
26/01/2020 23:25:38	26012020	260120	232538	281.900	12.274503	-56.543570	281.940	0.260	0.450	1.310	281.860	-1.000	1.600																			1580081138.0	11.70	21.67
26/01/2020 23:25:39	26012020	260120	232539	281.660	12.274517	-56.543622	281.700	-0.270	0.880	1.210	281.620	-0.500	1.600																			1580081139.0	11.48	21.26
26/01/2020 23:25:40	26012020	260120	232540	281.530	12.274527	-56.543677	281.600	-0.500	0.580	0.710	281.530	-0.700	1.100																			1580081140.0	11.79	21.84
26/01/2020 23:25:41	26012020	260120	232541	281.610	12.274535	-56.543735	281.740	-0.260	-0.280	0.060	281.660	-1.500	0.500																			1580081141.0	12.42	23.00
26/01/2020 23:25:42	26012020	260120	232542	281.920	12.274543	-56.543795	282.080	0.180	-1.050	-0.360	281.990	-2.300	0.000																			1580081142.0	12.88	23.85
26/01/2020 23:25:43	26012020	260120	232543	282.270	12.274553	-56.543855	282.420	0.420	-1.100	-0.370	282.330	-2.500	-0.000																			1580081143.0	12.68	23.48
26/01/2020 23:25:44	26012020	260120	232544	282.490	12.274563	-56.543910	282.590	0.240	-0.470	-0.080	282.500	-1.900	0.200																			1580081144.0	11.89	22.02
26/01/2020 23:25:45	26012020	260120	232545	282.510	12.274575	-56.543962	282.570	-0.140	0.210	0.280	282.500	-1.200	0.600																			1580081145.0	11.21	20.76
26/01/2020 23:25:46	26012020	260120	232546	282.380	12.274587	-56.544013	282.450	-0.370	0.350	0.540	282.360	-1.000	0.900																			1580081146.0	11.25	20.84
26/01/2020 23:25:47	26012020	260120	232547	282.280	12.274598	-56.544068	282.340	-0.240	-0.120	0.480	282.260	-1.400	0.900																			1580081147.0	11.88	22.00
26/01/2020 23:25:48	26012020	260120	232548	282.210	12.274608	-56.544127	282.280	0.160	-0.750	0.270	282.200	-2.100	0.600																			1580081148.0	12.55	23.24
26/01/2020 23:25:49	26012020	260120	232549	282.170	12.274618	-56.544187	282.240	0.500	-0.980	0.200	282.160	-2.400	0.500																			1580081149.0	12.75	23.61
26/01/2020 23:25:50	26012020	260120	232550	282.080	12.274630	-56.544243	282.120	0.500	-0.610	0.400	282.040	-2.000	0.700																			1580081150.0	12.33	22.84
26/01/2020 23:25:51	26012020	260120	232551	281.910	12.274643	-56.544297	281.950	0.130	-0.010	0.550	281.880	-1.400	0.900																			1580081151.0	11.75	21.76
26/01/2020 23:25:52	26012020	260120	232552	281.770	12.274657	-56.544350	281.830	-0.360	0.330	0.340	281.760	-1.100	0.700																			1580081152.0	11.52	21.34
26/01/2020 23:25:53	26012020	260120	232553	281.770	12.274665	-56.544405	281.870	-0.650	0.130	-0.170	281.800	-1.200	0.200																			1580081153.0	11.80	21.85
26/01/2020 23:25:54	26012020	260120	232554	281.970	12.274672	-56.544463	282.110	-0.570	-0.410	-0.650	282.030	-1.700	-0.300																			1580081154.0	12.33	22.84
26/01/2020 23:25:55	26012020	260120	232555	282.310	12.274680	-56.544523	282.460	-0.240	-0.810	-0.740	282.380	-2.100	-0.400																			1580081155.0	12.65	23.43
26/01/2020 23:25:56	26012020	260120	232556	282.630	12.274690	-56.544580	282.760	0.050	-0.650	-0.390	282.680	-2.100	-0.100																			1580081156.0	12.46	23.08
26/01/2020 23:25:57	26012020	260120	232557	282.820	12.274702	-56.544635	282.920	0.120	-0.090	0.170	282.840	-1.500	0.400																			1580081157.0	11.86	21.96
26/01/2020 23:25:58	26012020	260120	232558	282.870	12.274715	-56.544688	282.930	0.090	0.320	0.660	282.860	-1.100	1.000																			1580081158.0	11.44	21.19
26/01/2020 23:25:59	26012020	260120	232559	282.800	12.274728	-56.544742	282.850	0.160	0.210	0.840	282.770	-1.100	1.200																			1580081159.0	11.62	21.52
26/01/2020 23:26:00	26012020	260120	232600	282.690	12.274742	-56.544797	282.740	0.400	-0.280	0.720	282.670	-1.600	1.100	1015.20	26.00	26.10	21.10	21.00	-1.00	74.00	74.00	378.00	25.00	44.00	4.60	55.00	4.30	15	3876.00	27.60	27.60	1580081160.0	12.14	22.48
26/01/2020 23:26:01	26012020	260120	232601	282.600	12.274753	-56.544855	282.670	0.630	-0.680	0.470	282.590	-2.000	0.800																			1580081161.0	12.51	23.17
26/01/2020 23:26:02	26012020	260120	232602	282.550	12.274765	-56.544912	282.600	0.620	-0.650	0.290	282.530	-2.000	0.600																			1580081162.0	12.35	22.87
26/01/2020 23:26:03	26012020	260120	232603	282.470	12.274777	-56.544967	282.520	0.280	-0.330	0.170	282.450	-1.700	0.500																			1580081163.0	11.88	22.00
26/01/2020 23:26:04	26012020	260120	232604	282.410	12.274788	-56.545020	282.480	-0.210	-0.070	-0.020	282.410	-1.500	0.400																			1580081164.0	11.63	21.54
26/01/2020 23:26:05	26012020	260120	232605	282.440	12.274798	-56.545075	282.530	-0.600	-0.080	-0.360	282.450	-1.400	0.000																			1580081165.0	11.75	21.76
26/01/2020 23:26:06	26012020	260120	232606	282.580	12.274807	-56.545132	282.690	-0.720	-0.310	-0.720	282.610	-1.600	-0.300																			1580081166.0	12.05	22.32
26/01/2020 23:26:07	26012020	260120	232607	282.800	12.274815	-56.545190	282.930	-0.570	-0.570	-0.840	282.860	-1.900	-0.500																			1580081167.0	12.34	22.85
26/01/2020 23:26:08	26012020	260120	232608	283.080	12.274823	-56.545247	283.210	-0.250	-0.690	-0.590	283.140	-2.100	-0.300																			1580081168.0	12.37	22.91
26/01/2020 23:26:09	26012020	260120	232609	283.330	12.274835	-56.545303	283.440	0.090	-0.590	-0.090	283.370	-2.000	0.200																			1580081169.0	12.26	22.71
26/01/2020 23:26:10	26012020	260120	232610	283.440	12.274848	-56.545360	283.500	0.290	-0.270	0.430	283.440	-1.700	0.700																			1580081170.0	12.09	22.39
26/01/2020 23:26:11	26012020	260120	232611	283.360	12.274863	-56.545413	283.370	0.290	0.100	0.820	283.320	-1.300	1.100																			1580081171.0	11.89	22.02
26/01/2020 23:26:12	26012020	260120	232612	283.120	12.274878	-56.545467	283.110	0.160	0.310	0.890	283.070	-1.100	1.200																			1580081172.0	11.79	21.84
26/01/2020 23:26:13	26012020	260120	232613	282.860	12.274890	-56.545522	282.870	0.050	0.200	0.640	282.820	-1.100	1.000																			1580081173.0	11.88	22.00
26/01/2020 23:26:14	26012020	260120	232614	282.700	12.274902	-56.545578	282.740	0.060	-0.150	0.250	282.690	-1.500	0.600																			1580081174.0	12.10	22.41
26/01/2020 23:26:15	26012020	260120	232615	282.710	12.274912	-56.545635	282.790	0.220	-0.510	-0.090	282.730	-1.800	0.300																			1580081175.0	12.28	22.74
26/01/2020 23:26:16	26012020	260120	232616	282.820	12.274923	-56.545692	282.910	0.360	-0.630	-0.180	282.840	-2.000	0.200																			1580081176.0	12.27	22.72
26/01/2020 23:26:17	26012020	260120	232617	282.930	12.274935	-56.545748	283.020	0.330	-0.440	-0.050	282.950	-1.800	0.300																			1580081177.0	12.01	22.24
26/01/2020 23:26:18	26012020	260120	232618	283.020	12.274948	-56.545802	283.110	0.100	-0.170	0.090	283.040	-1.600	0.400																			1580081178.0	11.75	21.76
26/01/2020 23:26:19	26012020	260120	232619	283.110	12.274960	-56.545855	283.210	-0.140	-0.120	0.100	283.140	-1.500	0.400																			1580081179.0	11.70	21.67
26/01/2020 23:26:20	26012020	260120	232620	283.250	12.274972	-56.545912	283.360	-0.170	-0.380	0.010	283.280	-1.700	0.400																			1580081180.0	11.99	22.21
26/01/2020 23:26:21	26012020	260120	232621	283.410	12.274982	-56.545968	283.480	-0.020	-0.640	-0.080	283.420	-2.000	0.300																			1580081181.0	12.37	22.91
26/01/2020 23:26:22	26012020	260120	232622	283.410	12.274993	-56.546027	283.420	0.050	-0.550	-0.090	283.380	-1.900	0.300																			1580081182.0	12.40	22.96
26/01/2020 23:26:23	26012020	260120	232623	283.230	12.275005	-56.546082	283.120	-0.170	-0.110	-0.020	283.170	-1.500	0.300																			1580081183.0	12.02	22.26
26/01/2020 23:26:24	26012020	260120	232624	282.820	12.275017	-56.546135	282.790	-0.530	0.230	0.000	282.760	-1.200	0.400																			1580081184.0	11.61	21.50
26/01/2020 23:26:25	26012020	260120	232625	282.590	12.275027	-56.546190	282.620	-0.620	0.030	-0.120	282.580	-1.300	0.200																			1580081185.0	11.68	21.63
26/01/2020 23:26:26	26012020	260120	232626	282.610	12.275037	-56.546247	282.690	-0.240	-0.640	-0.380	282.640	-1.900	-0.000																			1580081186.0	12.27	22.72
26/01/2020 23:26:27	26012020	260120	232627	282.810	12.275047	-56.546307	282.910	0.410	-1.120	-0.460	282.860	-2.500	-0.100																			1580081187.0	12.83	23.76
26/01/2020 23:26:28	26012020	260120	232628	283.030	12.275060	-56.546365	283.120	0.840	-0.870	-0.150	283.060	-2.300	0.100																			1580081188.0	12.66	23.45
26/01/2020 23:26:29	26012020	260120	232629	283.150	12.275075	-56.546418	283.220	0.760	-0.090	0.340	283.160	-1.600	0.600																			1580081189.0	11.98	22.19
26/01/2020 23:26:30	26012020	260120	232630	283.170	12.275092	-56.546472	283.230	0.290	0.580	0.570	283.170	-0.800	0.900																			1580081190.0	11.50	21.30
26/01/2020 23:26:31	26012020	260120	232631	283.140	12.275107	-56.546523	283.170	-0.250	0.760	0.420	283.120	-0.600	0.800																			1580081191.0	11.58	21.45
26/01/2020 23:26:32	26012020	260120	232632	283.040	12.275117	-56.546578	283.050	-0.620	0.500	0.030	283.020	-0.800	0.400																			1580081192.0	11.94	22.11
26/01/2020 23:26:33	26012020	260120	232633	282.920	12.275127	-56.546637	282.940	-0.730	0.030	-0.270	282.900	-1.300	0.100																			1580081193.0	12.19	22.58
26/01/2020 23:26:34	26012020	260120	232634	282.850	12.275133	-56.546693	282.890	-0.550	-0.520	-0.320	282.840	-1.800	0.000																			1580081194.0	12.25	22.69
26/01/2020 23:26:35	26012020	260120	232635	282.850	12.275142	-56.546750	282.920	-0.100	-1.010	-0.070	282.860	-2.300	0.200																			1580081195.0	12.26	22.71
26/01/2020 23:26:36	26012020	260120	232636	282.870	12.275153	-56.546808	282.930	0.480	-1.240	0.430	282.870	-2.600	0.700																			1580081196.0	12.25	22.69
26/01/2020 23:26:37	26012020	260120	232637	282.830	12.275167	-56.546863	282.870	0.910	-1.060	0.990	282.810	-2.500	1.300																			1580081197.0	12.14	22.48
26/01/2020 23:26:38	26012020	260120	232638	282.700	12.275183	-56.546917	282.750	0.930	-0.590	1.260	282.680	-2.000	1.600																			1580081198.0	11.92	22.08
26/01/2020 23:26:39	26012020	260120	232639	282.580	12.275198	-56.546970	282.640	0.540	-0.140	1.140	282.560	-1.500	1.500																			1580081199.0	11.76	21.78
26/01/2020 23:26:40	26012020	260120	232640	282.480	12.275212	-56.547025	282.530	-0.030	0.090	0.670	282.470	-1.300	1.100																			1580081200.0	11.83	21.91
26/01/2020 23:26:41	26012020	260120	232641	282.440	12.275222	-56.547082	282.500	-0.510	0.120	0.050	282.440	-1.200	0.500																			1580081201.0	12.08	22.37
26/01/2020 23:26:42	26012020	260120	232642	282.480	12.275232	-56.547138	282.570	-0.740	0.080	-0.410	282.500	-1.300	-0.000																			1580081202.0	12.25	22.69
26/01/2020 23:26:43	26012020	260120	232643	282.620	12.275240	-56.547195	282.720	-0.670	-0.030	-0.510	282.650	-1.400	-0.200																			1580081203.0	12.26	22.71
26/01/2020 23:26:44	26012020	260120	232644	282.820	12.275248	-56.547253	282.950	-0.370	-0.220	-0.330	282.870	-1.600	-0.000																			1580081204.0	12.25	22.69
26/01/2020 23:26:45	26012020	260120	232645	283.040	12.275260	-56.547310	283.170	0.010	-0.370	-0.070	283.090	-1.700	0.300																			1580081205.0	12.30	22.78
26/01/2020 23:26:46	26012020	260120	232646	283.220	12.275273	-56.547367	283.330	0.290	-0.310	0.230	283.250	-1.700	0.500																			1580081206.0	12.23	22.65
26/01/2020 23:26:47	26012020	260120	232647	283.300	12.275285	-56.547422	283.380	0.330	-0.060	0.460	283.310	-1.500	0.800																			1580081207.0	11.94	22.11
26/01/2020 23:26:48	26012020	260120	232648	283.270	12.275298	-56.547475	283.320	0.180	0.120	0.540	283.260	-1.300	0.900																			1580081208.0	11.68	21.63
26/01/2020 23:26:49	26012020	260120	232649	283.180	12.275310	-56.547528	283.220	0.000	-0.020	0.400	283.160	-1.400	0.800																			1580081209.0	11.68	21.63
26/01/2020 23:26:50	26012020	260120	232650	283.080	12.275322	-56.547583	283.120	-0.010	-0.520	0.150	283.060	-1.800	0.500																			1580081210.0	11.99	22.21
26/01/2020 23:26:51	26012020	260120	232651	283.010	12.275332	-56.547642	283.040	0.180	-1.070	-0.030	283.000	-2.400	0.300																			1580081211.0	12.41	22.98
26/01/2020 23:26:52	26012020	260120	232652	282.930	12.275343	-56.547700	282.950	0.370	-1.190	0.020	282.910	-2.600	0.300																			1580081212.0	12.55	23.24
26/01/2020 23:26:53	26012020	260120	232653	282.760	12.275357	-56.547757	282.760	0.330	-0.690	0.320	282.710	-2.100	0.600																			1580081213.0	12.22	22.63
26/01/2020 23:26:54	26012020	260120	232654	282.490	12.275370	-56.547810	282.460	0.010	0.100	0.610	282.420	-1.400	0.900																			1580081214.0	11.68	21.63
26/01/2020 23:26:55	26012020	260120	232655	282.170	12.275383	-56.547862	282.170	-0.360	0.600	0.640	282.120	-0.800	1.000																			1580081215.0	11.43	21.17
26/01/2020 23:26:56	26012020	260120	232656	281.980	12.275395	-56.547917	282.020	-0.500	0.450	0.360	281.960	-0.900	0.700																			1580081216.0	11.71	21.69
26/01/2020 23:26:57	26012020	260120	232657	282.020	12.275405	-56.547973	282.120	-0.280	-0.170	0.000	282.050	-1.500	0.400																			1580081217.0	12.32	22.82
26/01/2020 23:26:58	26012020	260120	232658	282.280	12.275415	-56.548033	282.430	0.130	-0.740	-0.250	282.360	-2.100	0.100																			1580081218.0	12.72	23.56
26/01/2020 23:26:59	26012020	260120	232659	282.660	12.275427	-56.548092	282.820	0.400	-0.800	-0.240	282.740	-2.200	0.100																			1580081219.0	12.60	23.34
26/01/2020 23:27:00	26012020	260120	232700	283.030	12.275438	-56.548147	283.180	0.360	-0.430	-0.030	283.100	-1.800	0.300	1015.20	26.00	26.10	21.10	21.10	-1.00	74.00	74.00	378.00	25.00	45.00	4.60	55.00	4.40	15	3724.00	27.50	27.50	1580081220.0	12.08	22.37
26/01/2020 23:27:01	26012020	260120	232701	283.300	12.275452	-56.548202	283.410	0.090	0.000	0.210	283.330	-1.400	0.500																			1580081221.0	11.66	21.59
26/01/2020 23:27:02	26012020	260120	232702	283.380	12.275463	-56.548255	283.450	-0.190	0.140	0.380	283.370	-1.200	0.700																			1580081222.0	11.66	21.59
26/01/2020 23:27:03	26012020	260120	232703	283.260	12.275475	-56.548310	283.280	-0.310	-0.080	0.450	283.220	-1.400	0.800																			1580081223.0	11.96	22.15
26/01/2020 23:27:04	26012020	260120	232704	283.010	12.275485	-56.548367	283.000	-0.270	-0.440	0.470	282.950	-1.800	0.800																			1580081224.0	12.31	22.80
26/01/2020 23:27:05	26012020	260120	232705	282.700	12.275497	-56.548425	282.690	-0.170	-0.660	0.420	282.630	-2.000	0.800																			1580081225.0	12.43	23.02
26/01/2020 23:27:06	26012020	260120	232706	282.410	12.275508	-56.548482	282.430	-0.120	-0.640	0.300	282.370	-2.000	0.700																			1580081226.0	12.27	22.72
26/01/2020 23:27:07	26012020	260120	232707	282.220	12.275518	-56.548537	282.260	-0.090	-0.450	0.150	282.190	-1.800	0.500																			1580081227.0	12.08	22.37
26/01/2020 23:27:08	26012020	260120	232708	282.100	12.275530	-56.548593	282.160	-0.050	-0.180	0.100	282.090	-1.600	0.400																			1580081228.0	11.99	22.21
26/01/2020 23:27:09	26012020	260120	232709	282.030	12.275542	-56.548648	282.090	0.060	0.110	0.230	282.010	-1.300	0.600																			1580081229.0	11.93	22.09
26/01/2020 23:27:10	26012020	260120	232710	281.960	12.275553	-56.548703	282.040	0.190	0.260	0.470	281.950	-1.100	0.800																			1580081230.0	11.89	22.02
26/01/2020 23:27:11	26012020	260120	232711	281.940	12.275567	-56.548758	282.050	0.310	0.130	0.620	281.950	-1.200	1.000																			1580081231.0	11.93	22.09
26/01/2020 23:27:12	26012020	260120	232712	282.040	12.275580	-56.548813	282.180	0.400	-0.290	0.540	282.080	-1.600	0.900																			1580081232.0	12.10	22.41
26/01/2020 23:27:13	26012020	260120	232713	282.230	12.275592	-56.548870	282.460	0.410	-0.780	0.240	282.280	-2.100	0.600																			1580081233.0	12.36	22.89
26/01/2020 23:27:14	26012020	260120	232714	282.600	12.275603	-56.548928	282.770	0.250	-0.960	-0.050	282.670	-2.300	0.300																			1580081234.0	12.44	23.04
26/01/2020 23:27:15	26012020	260120	232715	282.890	12.275613	-56.548985	283.040	-0.090	-0.690	-0.190	282.940	-2.100	0.200																			1580081235.0	12.16	22.52
26/01/2020 23:27:16	26012020	260120	232716	283.090	12.275623	-56.549040	283.210	-0.440	-0.230	-0.150	283.120	-1.700	0.200																			1580081236.0	11.80	21.85
26/01/2020 23:27:17	26012020	260120	232717	283.180	12.275633	-56.549095	283.270	-0.590	0.010	0.070	283.190	-1.400	0.400																			1580081237.0	11.72	21.71
26/01/2020 23:27:18	26012020	260120	232718	283.170	12.275645	-56.549150	283.240	-0.460	-0.080	0.320	283.160	-1.400	0.600																			1580081238.0	12.07	22.35
26/01/2020 23:27:19	26012020	260120	232719	283.040	12.275657	-56.549208	283.060	-0.180	-0.240	0.520	282.990	-1.600	0.900																			1580081239.0	12.46	23.08
26/01/2020 23:27:20	26012020	260120	232720	282.720	12.275670	-56.549265	282.700	0.020	-0.170	0.640	282.640	-1.600	1.000																			1580081240.0	12.46	23.08
26/01/2020 23:27:21	26012020	260120	232721	282.300	12.275682	-56.549322	282.280	0.040	0.060	0.600	282.220	-1.300	1.000																			1580081241.0	12.12	22.45
26/01/2020 23:27:22	26012020	260120	232722	281.920	12.275693	-56.549377	281.930	-0.020	0.160	0.360	281.870	-1.200	0.700																			1580081242.0	11.83	21.91
26/01/2020 23:27:23	26012020	260120	232723	281.720	12.275702	-56.549432	281.790	-0.010	-0.040	0.020	281.710	-1.400	0.400																			1580081243.0	11.87	21.98
26/01/2020 23:27:24	26012020	260120	232724	281.760	12.275712	-56.549488	281.870	0.130	-0.460	-0.290	281.780	-1.800	0.100																			1580081244.0	12.10	22.41
26/01/2020 23:27:25	26012020	260120	232725	281.910	12.275723	-56.549545	282.090	0.300	-0.810	-0.350	281.950	-2.100	-0.000																			1580081245.0	12.27	22.72
26/01/2020 23:27:26	26012020	260120	232726	282.170	12.275735	-56.549602	282.310	0.360	-0.870	-0.130	282.210	-2.200	0.200																			1580081246.0	12.24	22.67
26/01/2020 23:27:27	26012020	260120	232727	282.320	12.275747	-56.549657	282.490	0.250	-0.630	0.220	282.360	-2.000	0.500																			1580081247.0	12.01	22.24
26/01/2020 23:27:28	26012020	260120	232728	282.500	12.275762	-56.549712	282.640	0.080	-0.330	0.510	282.530	-1.700	0.800																			1580081248.0	11.87	21.98
26/01/2020 23:27:29	26012020	260120	232729	282.610	12.275775	-56.549767	282.730	-0.050	-0.120	0.660	282.630	-1.500	1.000																			1580081249.0	11.96	22.15
26/01/2020 23:27:30	26012020	260120	232730	282.660	12.275787	-56.549822	282.780	-0.140	-0.020	0.590	282.670	-1.400	0.900																			1580081250.0	12.13	22.46
26/01/2020 23:27:31	26012020	260120	232731	282.660	12.275798	-56.549878	282.740	-0.220	0.020	0.350	282.650	-1.300	0.700																			1580081251.0	12.23	22.65
26/01/2020 23:27:32	26012020	260120	232732	282.590	12.275808	-56.549935	282.660	-0.280	0.010	0.120	282.570	-1.400	0.500																			1580081252.0	12.24	22.67
26/01/2020 23:27:33	26012020	260120	232733	282.500	12.275818	-56.549992	282.570	-0.260	-0.060	0.000	282.480	-1.400	0.400																			1580081253.0	12.22	22.63
26/01/2020 23:27:34	26012020	260120	232734	282.420	12.275828	-56.550048	282.500	-0.160	-0.160	0.020	282.410	-1.500	0.400																			1580081254.0	12.16	22.52
26/01/2020 23:27:35	26012020	260120	232735	282.360	12.275838	-56.550105	282.450	-0.030	-0.270	0.180	282.350	-1.600	0.500																			1580081255.0	12.11	22.43
26/01/2020 23:27:36	26012020	260120	232736	282.320	12.275850	-56.550162	282.410	0.060	-0.350	0.400	282.310	-1.700	0.700																			1580081256.0	12.04	22.30
26/01/2020 23:27:37	26012020	260120	232737	282.280	12.275862	-56.550217	282.380	0.110	-0.410	0.570	282.280	-1.800	0.900																			1580081257.0	11.97	22.17
26/01/2020 23:27:38	26012020	260120	232738	282.250	12.275873	-56.550272	282.350	0.160	-0.460	0.650	282.250	-1.800	1.000																			1580081258.0	11.95	22.13
26/01/2020 23:27:39	26012020	260120	232739	282.220	12.275885	-56.550327	282.320	0.220	-0.490	0.610	282.220	-1.900	1.000																			1580081259.0	12.00	22.22
26/01/2020 23:27:40	26012020	260120	232740	282.210	12.275897	-56.550383	282.300	0.250	-0.470	0.470	282.210	-1.800	0.800																			1580081260.0	12.05	22.32
26/01/2020 23:27:41	26012020	260120	232741	282.220	12.275908	-56.550438	282.330	0.170	-0.400	0.300	282.240	-1.800	0.700																			1580081261.0	12.08	22.37
26/01/2020 23:27:42	26012020	260120	232742	282.280	12.275920	-56.550495	282.390	0.010	-0.320	0.130	282.300	-1.700	0.500																			1580081262.0	12.09	22.39
26/01/2020 23:27:43	26012020	260120	232743	282.390	12.275932	-56.550550	282.520	-0.130	-0.290	-0.070	282.420	-1.700	0.300																			1580081263.0	12.12	22.45
26/01/2020 23:27:44	26012020	260120	232744	282.550	12.275942	-56.550608	282.680	-0.170	-0.320	-0.220	282.590	-1.700	0.100																			1580081264.0	12.24	22.67
26/01/2020 23:27:45	26012020	260120	232745	282.720	12.275953	-56.550665	282.830	-0.110	-0.330	-0.220	282.750	-1.700	0.100																			1580081265.0	12.34	22.85
26/01/2020 23:27:46	26012020	260120	232746	282.850	12.275965	-56.550722	282.950	-0.050	-0.230	-0.040	282.870	-1.600	0.300																			1580081266.0	12.31	22.80
26/01/2020 23:27:47	26012020	260120	232747	282.910	12.275977	-56.550778	282.990	-0.060	-0.040	0.250	282.920	-1.400	0.600																			1580081267.0	12.20	22.59
26/01/2020 23:27:48	26012020	260120	232748	282.880	12.275990	-56.550833	282.930	-0.120	0.140	0.490	282.850	-1.200	0.800																			1580081268.0	12.06	22.34
26/01/2020 23:27:49	26012020	260120	232749	282.690	12.276002	-56.550888	282.690	-0.190	0.210	0.600	282.630	-1.200	0.900																			1580081269.0	11.98	22.19
26/01/2020 23:27:50	26012020	260120	232750	282.340	12.276012	-56.550945	282.330	-0.170	0.110	0.590	282.270	-1.200	0.900																			1580081270.0	12.00	22.22
26/01/2020 23:27:51	26012020	260120	232751	282.050	12.276022	-56.551002	282.010	-0.020	-0.150	0.480	282.000	-1.500	0.800																			1580081271.0	12.07	22.35
26/01/2020 23:27:52	26012020	260120	232752	281.780	12.276032	-56.551057	281.840	0.190	-0.470	0.350	281.770	-1.800	0.700																			1580081272.0	12.13	22.46
26/01/2020 23:27:53	26012020	260120	232753	281.740	12.276043	-56.551113	281.820	0.330	-0.710	0.280	281.750	-2.100	0.600																			1580081273.0	12.13	22.46
26/01/2020 23:27:54	26012020	260120	232754	281.810	12.276055	-56.551170	281.930	0.310	-0.840	0.220	281.840	-2.200	0.600																			1580081274.0	12.04	22.30
26/01/2020 23:27:55	26012020	260120	232755	281.990	12.276067	-56.551225	282.140	0.210	-0.860	0.180	282.040	-2.200	0.500																			1580081275.0	12.05	22.32
26/01/2020 23:27:56	26012020	260120	232756	282.270	12.276078	-56.551282	282.420	0.110	-0.740	0.170	282.330	-2.100	0.500																			1580081276.0	12.09	22.39
26/01/2020 23:27:57	26012020	260120	232757	282.560	12.276090	-56.551337	282.710	0.080	-0.490	0.220	282.610	-1.900	0.500																			1580081277.0	12.11	22.43
26/01/2020 23:27:58	26012020	260120	232758	282.800	12.276103	-56.551393	282.930	0.060	-0.210	0.320	282.830	-1.600	0.700																			1580081278.0	12.15	22.50
26/01/2020 23:27:59	26012020	260120	232759	282.930	12.276115	-56.551450	283.030	-0.020	0.020	0.420	282.940	-1.400	0.800																			1580081279.0	12.21	22.61
26/01/2020 23:28:00	26012020	260120	232800	282.920	12.276128	-56.551507	282.980	-0.190	0.190	0.470	282.900	-1.200	0.800	1015.20	26.00	26.00	20.90	20.90	-1.00	74.00	73.00	378.00	24.90	43.00	4.00	63.00	4.30	15	3720.00	27.50	27.50	1580081280.0	12.28	22.74
26/01/2020 23:28:01	26012020	260120	232801	282.730	12.276138	-56.551563	282.740	-0.420	0.330	0.430	282.670	-1.100	0.800																			1580081281.0	12.27	22.72
26/01/2020 23:28:02	26012020	260120	232802	282.400	12.276148	-56.551620	282.380	-0.610	0.400	0.330	282.330	-1.000	0.700																			1580081282.0	12.15	22.50
26/01/2020 23:28:03	26012020	260120	232803	282.100	12.276157	-56.551675	282.040	-0.620	0.250	0.190	282.040	-1.100	0.600																			1580081283.0	12.03	22.28
26/01/2020 23:28:04	26012020	260120	232804	281.820	12.276165	-56.551732	281.870	-0.340	-0.200	0.080	281.800	-1.500	0.400																			1580081284.0	12.10	22.41
26/01/2020 23:28:05	26012020	260120	232805	281.810	12.276173	-56.551790	281.910	0.190	-0.810	0.080	281.830	-2.100	0.400																			1580081285.0	12.31	22.80
26/01/2020 23:28:06	26012020	260120	232806	281.970	12.276185	-56.551847	282.110	0.720	-1.190	0.260	282.020	-2.500	0.600																			1580081286.0	12.45	23.06
26/01/2020 23:28:07	26012020	260120	232807	282.200	12.276200	-56.551903	282.340	0.940	-1.050	0.590	282.250	-2.500	0.900																			1580081287.0	12.29	22.76
26/01/2020 23:28:08	26012020	260120	232808	282.390	12.276215	-56.551958	282.500	0.740	-0.520	0.890	282.410	-2.000	1.200																			1580081288.0	11.88	22.00
26/01/2020 23:28:09	26012020	260120	232809	282.470	12.276228	-56.552012	282.570	0.280	-0.020	0.920	282.480	-1.400	1.300																			1580081289.0	11.64	21.56
26/01/2020 23:28:10	26012020	260120	232810	282.520	12.276242	-56.552065	282.610	-0.200	0.230	0.660	282.530	-1.200	1.000																			1580081290.0	11.77	21.80
26/01/2020 23:28:11	26012020	260120	232811	282.540	12.276252	-56.552122	282.620	-0.500	0.260	0.290	282.550	-1.100	0.700																			1580081291.0	12.08	22.37
26/01/2020 23:28:12	26012020	260120	232812	282.520	12.276260	-56.552178	282.570	-0.580	0.180	0.010	282.500	-1.200	0.400																			1580081292.0	12.23	22.65
26/01/2020 23:28:13	26012020	260120	232813	282.410	12.276268	-56.552235	282.450	-0.480	-0.030	-0.080	282.380	-1.400	0.300																			1580081293.0	12.22	22.63
26/01/2020 23:28:14	26012020	260120	232814	282.310	12.276278	-56.552293	282.380	-0.250	-0.430	0.010	282.310	-1.800	0.300																			1580081294.0	12.27	22.72
26/01/2020 23:28:15	26012020	260120	232815	282.300	12.276288	-56.552350	282.410	0.050	-0.870	0.170	282.310	-2.200	0.500																			1580081295.0	12.44	23.04
26/01/2020 23:28:16	26012020	260120	232816	282.400	12.276300	-56.552408	282.520	0.300	-1.050	0.320	282.430	-2.400	0.700																			1580081296.0	12.49	23.13
26/01/2020 23:28:17	26012020	260120	232817	282.520	12.276312	-56.552465	282.690	0.380	-0.840	0.440	282.560	-2.300	0.800																			1580081297.0	12.30	22.78
26/01/2020 23:28:18	26012020	260120	232818	282.720	12.276325	-56.552520	282.850	0.270	-0.400	0.490	282.750	-1.800	0.800																			1580081298.0	11.99	22.21
26/01/2020 23:28:19	26012020	260120	232819	282.850	12.276337	-56.552575	282.960	0.030	0.030	0.420	282.870	-1.400	0.800																			1580081299.0	11.86	21.96
26/01/2020 23:28:20	26012020	260120	232820	282.890	12.276348	-56.552630	282.960	-0.220	0.270	0.240	282.890	-1.100	0.600																			1580081300.0	11.93	22.09
26/01/2020 23:28:21	26012020	260120	232821	282.800	12.276360	-56.552687	282.840	-0.380	0.350	0.080	282.770	-1.000	0.400																			1580081301.0	12.12	22.45
26/01/2020 23:28:22	26012020	260120	232822	282.600	12.276370	-56.552743	282.620	-0.420	0.360	0.020	282.550	-1.000	0.400																			1580081302.0	12.18	22.56
26/01/2020 23:28:23	26012020	260120	232823	282.390	12.276380	-56.552800	282.430	-0.310	0.240	0.100	282.360	-1.100	0.400																			1580081303.0	12.11	22.43
26/01/2020 23:28:24	26012020	260120	232824	282.290	12.276390	-56.552855	282.380	-0.040	-0.050	0.230	282.290	-1.400	0.600																			1580081304.0	12.06	22.34
26/01/2020 23:28:25	26012020	260120	232825	282.390	12.276402	-56.552912	282.530	0.330	-0.520	0.270	282.430	-1.900	0.600																			1580081305.0	12.13	22.46
26/01/2020 23:28:26	26012020	260120	232826	282.650	12.276415	-56.552968	282.810	0.650	-0.970	0.300	282.710	-2.300	0.600																			1580081306.0	12.27	22.72
26/01/2020 23:28:27	26012020	260120	232827	282.930	12.276428	-56.553025	283.070	0.760	-1.150	0.420	282.970	-2.500	0.700																			1580081307.0	12.31	22.80
26/01/2020 23:28:28	26012020	260120	232828	283.090	12.276442	-56.553080	283.190	0.560	-0.960	0.620	283.100	-2.400	0.900																			1580081308.0	12.12	22.45
26/01/2020 23:28:29	26012020	260120	232829	283.090	12.276455	-56.553135	283.150	0.120	-0.550	0.740	283.060	-2.000	1.100																			1580081309.0	11.91	22.06
26/01/2020 23:28:30	26012020	260120	232830	282.950	12.276468	-56.553190	282.990	-0.380	-0.140	0.670	282.920	-1.600	1.000																			1580081310.0	11.83	21.91
26/01/2020 23:28:31	26012020	260120	232831	282.770	12.276478	-56.553245	282.820	-0.730	0.050	0.410	282.740	-1.300	0.800																			1580081311.0	11.94	22.11
26/01/2020 23:28:32	26012020	260120	232832	282.660	12.276487	-56.553303	282.730	-0.780	-0.030	0.040	282.650	-1.400	0.400																			1580081312.0	12.26	22.71
26/01/2020 23:28:33	26012020	260120	232833	282.660	12.276495	-56.553362	282.740	-0.550	-0.230	-0.240	282.660	-1.600	0.100																			1580081313.0	12.57	23.28
26/01/2020 23:28:34	26012020	260120	232834	282.740	12.276503	-56.553420	282.850	-0.210	-0.260	-0.220	282.770	-1.600	0.100																			1580081314.0	12.67	23.46
26/01/2020 23:28:35	26012020	260120	232835	282.900	12.276515	-56.553478	283.020	0.050	-0.040	0.050	282.940	-1.400	0.400																			1580081315.0	12.43	23.02
26/01/2020 23:28:36	26012020	260120	232836	283.060	12.276528	-56.553533	283.170	0.170	0.290	0.380	283.090	-1.100	0.700																			1580081316.0	12.05	22.32
26/01/2020 23:28:37	26012020	260120	232837	283.170	12.276542	-56.553588	283.260	0.220	0.430	0.620	283.170	-0.900	1.000																			1580081317.0	11.83	21.91
26/01/2020 23:28:38	26012020	260120	232838	283.170	12.276555	-56.553642	283.240	0.270	0.250	0.710	283.160	-1.100	1.100																			1580081318.0	11.87	21.98
26/01/2020 23:28:39	26012020	260120	232839	283.090	12.276568	-56.553697	283.140	0.320	-0.270	0.590	283.080	-1.600	1.000																			1580081319.0	12.03	22.28
26/01/2020 23:28:40	26012020	260120	232840	282.980	12.276582	-56.553753	283.010	0.340	-0.900	0.350	282.950	-2.200	0.700																			1580081320.0	12.23	22.65
26/01/2020 23:28:41	26012020	260120	232841	282.860	12.276593	-56.553812	282.890	0.330	-1.320	0.120	282.830	-2.700	0.500																			1580081321.0	12.37	22.91
26/01/2020 23:28:42	26012020	260120	232842	282.750	12.276605	-56.553868	282.780	0.230	-1.300	-0.080	282.740	-2.700	0.300																			1580081322.0	12.28	22.74
26/01/2020 23:28:43	26012020	260120	232843	282.670	12.276615	-56.553923	282.700	0.010	-0.810	-0.190	282.660	-2.300	0.200																			1580081323.0	12.04	22.30
26/01/2020 23:28:44	26012020	260120	232844	282.620	12.276627	-56.553978	282.670	-0.310	-0.100	-0.190	282.610	-1.600	0.200																			1580081324.0	11.78	21.82
26/01/2020 23:28:45	26012020	260120	232845	282.630	12.276637	-56.554033	282.700	-0.550	0.390	-0.040	282.640	-1.000	0.300																			1580081325.0	11.68	21.63
26/01/2020 23:28:46	26012020	260120	232846	282.700	12.276647	-56.554088	282.780	-0.520	0.420	0.180	282.710	-0.900	0.500																			1580081326.0	11.96	22.15
26/01/2020 23:28:47	26012020	260120	232847	282.780	12.276658	-56.554145	282.870	-0.220	0.100	0.410	282.800	-1.200	0.700																			1580081327.0	12.41	22.98
26/01/2020 23:28:48	26012020	260120	232848	282.870	12.276672	-56.554205	282.970	0.130	-0.210	0.570	282.890	-1.600	0.900																			1580081328.0	12.67	23.46
26/01/2020 23:28:49	26012020	260120	232849	282.980	12.276685	-56.554262	283.080	0.300	-0.320	0.680	283.000	-1.700	1.000																			1580081329.0	12.54	23.22
26/01/2020 23:28:50	26012020	260120	232850	283.090	12.276698	-56.554318	283.180	0.230	-0.240	0.700	283.100	-1.600	1.000																			1580081330.0	12.20	22.59
26/01/2020 23:28:51	26012020	260120	232851	283.110	12.276712	-56.554373	283.170	0.040	-0.170	0.610	283.100	-1.500	1.000																			1580081331.0	11.97	22.17
26/01/2020 23:28:52	26012020	260120	232852	283.040	12.276722	-56.554428	283.080	-0.080	-0.240	0.360	283.020	-1.600	0.700																			1580081332.0	11.96	22.15
26/01/2020 23:28:53	26012020	260120	232853	282.960	12.276733	-56.554485	282.980	-0.020	-0.440	0.120	282.940	-1.800	0.500																			1580081333.0	12.12	22.45
26/01/2020 23:28:54	26012020	260120	232854	282.870	12.276743	-56.554542	282.910	0.180	-0.660	-0.030	282.860	-2.000	0.300																			1580081334.0	12.27	22.72
26/01/2020 23:28:55	26012020	260120	232855	282.810	12.276755	-56.554598	282.850	0.290	-0.720	-0.030	282.800	-2.100	0.300																			1580081335.0	12.33	22.84
26/01/2020 23:28:56	26012020	260120	232856	282.710	12.276768	-56.554655	282.720	0.170	-0.480	0.080	282.670	-1.900	0.400																			1580081336.0	12.18	22.56
26/01/2020 23:28:57	26012020	260120	232857	282.530	12.276780	-56.554710	282.540	-0.170	-0.070	0.230	282.490	-1.500	0.600																			1580081337.0	11.87	21.98
26/01/2020 23:28:58	26012020	260120	232858	282.360	12.276792	-56.554763	282.400	-0.480	0.180	0.300	282.340	-1.200	0.700																			1580081338.0	11.68	21.63
26/01/2020 23:28:59	26012020	260120	232859	282.310	12.276802	-56.554818	282.400	-0.550	0.050	0.280	282.320	-1.300	0.600																			1580081339.0	11.87	21.98
26/01/2020 23:29:00	26012020	260120	232900	282.450	12.276813	-56.554877	282.590	-0.340	-0.370	0.110	282.500	-1.700	0.500	1015.20	26.00	26.00	21.00	21.00	-1.00	74.00	73.00	378.00	24.90	44.00	4.30	59.00	4.40	15	3862.00	27.50	27.50	1580081340.0	12.27	22.72
26/01/2020 23:29:01	26012020	260120	232901	282.770	12.276823	-56.554935	282.930	0.050	-0.760	-0.100	282.840	-2.100	0.300																			1580081341.0	12.59	23.32
26/01/2020 23:29:02	26012020	260120	232902	283.120	12.276833	-56.554993	283.260	0.390	-0.800	-0.070	283.180	-2.200	0.300																			1580081342.0	12.64	23.41
26/01/2020 23:29:03	26012020	260120	232903	283.330	12.276847	-56.555050	283.410	0.520	-0.370	0.290	283.340	-1.800	0.600																			1580081343.0	12.34	22.85
26/01/2020 23:29:04	26012020	260120	232904	283.320	12.276860	-56.555105	283.350	0.430	0.280	0.760	283.290	-1.200	1.100																			1580081344.0	11.94	22.11
26/01/2020 23:29:05	26012020	260120	232905	283.110	12.276875	-56.555158	283.110	0.190	0.710	0.950	283.050	-0.700	1.300																			1580081345.0	11.68	21.63
26/01/2020 23:29:06	26012020	260120	232906	282.840	12.276888	-56.555212	282.840	-0.060	0.590	0.670	282.780	-0.700	1.100																			1580081346.0	11.77	21.80
26/01/2020 23:29:07	26012020	260120	232907	282.660	12.276900	-56.555268	282.650	-0.200	-0.070	0.160	282.630	-1.300	0.600																			1580081347.0	12.13	22.46
26/01/2020 23:29:08	26012020	260120	232908	282.530	12.276910	-56.555327	282.580	-0.220	-0.880	-0.290	282.530	-2.200	0.100																			1580081348.0	12.49	23.13
26/01/2020 23:29:09	26012020	260120	232909	282.580	12.276918	-56.555385	282.650	-0.200	-1.410	-0.500	282.600	-2.700	-0.100																			1580081349.0	12.57	23.28
26/01/2020 23:29:10	26012020	260120	232910	282.710	12.276928	-56.555442	282.800	-0.180	-1.400	-0.390	282.750	-2.800	-0.100																			1580081350.0	12.30	22.78
26/01/2020 23:29:11	26012020	260120	232911	282.880	12.276940	-56.555498	282.980	-0.140	-0.990	-0.110	282.920	-2.400	0.200																			1580081351.0	11.95	22.13
26/01/2020 23:29:12	26012020	260120	232912	283.060	12.276952	-56.555552	283.170	-0.050	-0.510	0.200	283.100	-1.900	0.500																			1580081352.0	11.82	21.89
26/01/2020 23:29:13	26012020	260120	232913	283.210	12.276963	-56.555608	283.290	0.040	-0.080	0.470	283.220	-1.500	0.800																			1580081353.0	12.02	22.26
26/01/2020 23:29:14	26012020	260120	232914	283.220	12.276978	-56.555663	283.260	0.010	0.360	0.680	283.200	-1.100	1.000																			1580081354.0	12.22	22.63
26/01/2020 23:29:15	26012020	260120	232915	283.070	12.276992	-56.555720	283.080	-0.140	0.770	0.720	283.030	-0.600	1.100																			1580081355.0	12.16	22.52
26/01/2020 23:29:16	26012020	260120	232916	282.870	12.277003	-56.555775	282.890	-0.270	0.900	0.510	282.840	-0.500	0.900																			1580081356.0	12.00	22.22
26/01/2020 23:29:17	26012020	260120	232917	282.760	12.277013	-56.555832	282.810	-0.180	0.530	0.170	282.760	-0.800	0.600																			1580081357.0	12.09	22.39
26/01/2020 23:29:18	26012020	260120	232918	282.800	12.277025	-56.555888	282.880	0.170	-0.210	-0.160	282.820	-1.500	0.200																			1580081358.0	12.39	22.95
26/01/2020 23:29:19	26012020	260120	232919	282.920	12.277035	-56.555947	283.000	0.530	-0.830	-0.340	282.940	-2.100	0.000																			1580081359.0	12.59	23.32
26/01/2020 23:29:20	26012020	260120	232920	283.010	12.277048	-56.556005	283.060	0.650	-0.970	-0.180	283.020	-2.400	0.100																			1580081360.0	12.33	22.84
26/01/2020 23:29:21	26012020	260120	232921	283.020	12.277062	-56.556058	283.050	0.440	-0.720	0.170	283.010	-2.100	0.500																			1580081361.0	11.80	21.85
26/01/2020 23:29:22	26012020	260120	232922	282.920	12.277075	-56.556110	282.940	0.100	-0.460	0.460	282.890	-1.900	0.800																			1580081362.0	11.45	21.21
26/01/2020 23:29:23	26012020	260120	232923	282.750	12.277087	-56.556163	282.770	-0.150	-0.500	0.510	282.720	-1.900	0.900																			1580081363.0	11.60	21.48
26/01/2020 23:29:24	26012020	260120	232924	282.610	12.277098	-56.556220	282.650	-0.220	-0.790	0.340	282.590	-2.100	0.700																			1580081364.0	12.09	22.39
26/01/2020 23:29:25	26012020	260120	232925	282.560	12.277108	-56.556278	282.620	-0.200	-0.930	0.160	282.560	-2.300	0.500																			1580081365.0	12.52	23.19
26/01/2020 23:29:26	26012020	260120	232926	282.590	12.277120	-56.556337	282.660	-0.200	-0.700	0.130	282.600	-2.100	0.500																			1580081366.0	12.51	23.17
26/01/2020 23:29:27	26012020	260120	232927	282.650	12.277132	-56.556393	282.730	-0.300	-0.200	0.210	282.670	-1.600	0.500																			1580081367.0	12.24	22.67
26/01/2020 23:29:28	26012020	260120	232928	282.740	12.277143	-56.556448	282.820	-0.390	0.280	0.310	282.750	-1.100	0.700																			1580081368.0	12.06	22.34
26/01/2020 23:29:29	26012020	260120	232929	282.830	12.277155	-56.556505	282.920	-0.360	0.530	0.420	282.840	-0.900	0.800																			1580081369.0	12.08	22.37
26/01/2020 23:29:30	26012020	260120	232930	282.920	12.277168	-56.556562	283.010	-0.210	0.530	0.560	282.930	-0.800	0.900																			1580081370.0	12.26	22.71
26/01/2020 23:29:31	26012020	260120	232931	282.940	12.277182	-56.556618	283.010	-0.030	0.390	0.760	282.930	-1.000	1.100																			1580081371.0	12.29	22.76
26/01/2020 23:29:32	26012020	260120	232932	282.840	12.277193	-56.556673	282.880	0.100	0.230	0.950	282.810	-1.100	1.300																			1580081372.0	12.16	22.52
26/01/2020 23:29:33	26012020	260120	232933	282.650	12.277205	-56.556728	282.690	0.180	-0.030	0.980	282.610	-1.400	1.300																			1580081373.0	11.93	22.09
26/01/2020 23:29:34	26012020	260120	232934	282.480	12.277217	-56.556783	282.530	0.300	-0.490	0.800	282.450	-1.800	1.200																			1580081374.0	11.88	22.00
26/01/2020 23:29:35	26012020	260120	232935	282.380	12.277228	-56.556840	282.450	0.480	-1.030	0.470	282.380	-2.300	0.900																			1580081375.0	12.07	22.35
26/01/2020 23:29:36	26012020	260120	232936	282.380	12.277238	-56.556897	282.450	0.600	-1.330	0.150	282.380	-2.700	0.500																			1580081376.0	12.24	22.67
26/01/2020 23:29:37	26012020	260120	232937	282.430	12.277250	-56.556953	282.510	0.520	-1.200	-0.010	282.440	-2.600	0.400																			1580081377.0	12.14	22.48
26/01/2020 23:29:38	26012020	260120	232938	282.510	12.277260	-56.557008	282.590	0.220	-0.750	-0.000	282.530	-2.200	0.300																			1580081378.0	11.92	22.08
26/01/2020 23:29:39	26012020	260120	232939	282.580	12.277272	-56.557063	282.650	-0.170	-0.200	0.200	282.590	-1.600	0.500																			1580081379.0	11.80	21.85
26/01/2020 23:29:40	26012020	260120	232940	282.590	12.277283	-56.557118	282.650	-0.480	0.220	0.450	282.580	-1.200	0.800																			1580081380.0	11.86	21.96
26/01/2020 23:29:41	26012020	260120	232941	282.550	12.277297	-56.557173	282.630	-0.590	0.380	0.610	282.550	-1.000	1.000																			1580081381.0	12.05	22.32
26/01/2020 23:29:42	26012020	260120	232942	282.540	12.277308	-56.557230	282.630	-0.480	0.280	0.580	282.550	-1.100	0.900																			1580081382.0	12.29	22.76
26/01/2020 23:29:43	26012020	260120	232943	282.580	12.277320	-56.557288	282.680	-0.220	0.030	0.400	282.590	-1.300	0.800																			1580081383.0	12.46	23.08
26/01/2020 23:29:44	26012020	260120	232944	282.660	12.277332	-56.557345	282.760	0.030	-0.210	0.280	282.680	-1.500	0.600																			1580081384.0	12.49	23.13
26/01/2020 23:29:45	26012020	260120	232945	282.770	12.277343	-56.557403	282.880	0.170	-0.340	0.200	282.800	-1.700	0.600																			1580081385.0	12.34	22.85
26/01/2020 23:29:46	26012020	260120	232946	282.910	12.277355	-56.557458	283.000	0.180	-0.370	0.080	282.920	-1.700	0.400																			1580081386.0	12.11	22.43
26/01/2020 23:29:47	26012020	260120	232947	282.960	12.277365	-56.557515	283.020	0.110	-0.420	-0.060	282.950	-1.800	0.300																			1580081387.0	11.96	22.15
26/01/2020 23:29:48	26012020	260120	232948	282.920	12.277377	-56.557570	282.970	0.040	-0.530	-0.100	282.910	-1.900	0.300																			1580081388.0	11.98	22.19
26/01/2020 23:29:49	26012020	260120	232949	282.850	12.277387	-56.557627	282.900	0.000	-0.620	0.030	282.830	-2.000	0.400																			1580081389.0	12.06	22.34
26/01/2020 23:29:50	26012020	260120	232950	282.740	12.277398	-56.557682	282.770	-0.070	-0.550	0.330	282.710	-1.900	0.600																			1580081390.0	12.11	22.43
26/01/2020 23:29:51	26012020	260120	232951	282.530	12.277410	-56.557737	282.540	-0.180	-0.320	0.600	282.480	-1.700	0.900																			1580081391.0	12.00	22.22
26/01/2020 23:29:52	26012020	260120	232952	282.270	12.277423	-56.557792	282.300	-0.250	-0.100	0.730	282.230	-1.500	1.100																			1580081392.0	11.94	22.11
26/01/2020 23:29:53	26012020	260120	232953	282.110	12.277435	-56.557848	282.160	-0.140	-0.080	0.660	282.090	-1.400	1.000																			1580081393.0	12.03	22.28
26/01/2020 23:29:54	26012020	260120	232954	282.060	12.277447	-56.557905	282.150	0.140	-0.190	0.500	282.070	-1.500	0.900																			1580081394.0	12.31	22.80
26/01/2020 23:29:55	26012020	260120	232955	282.090	12.277458	-56.557963	282.190	0.400	-0.140	0.390	282.100	-1.500	0.800																			1580081395.0	12.47	23.09
26/01/2020 23:29:56	26012020	260120	232956	282.130	12.277472	-56.558018	282.210	0.440	0.180	0.390	282.130	-1.200	0.700																			1580081396.0	12.22	22.63
26/01/2020 23:29:57	26012020	260120	232957	282.120	12.277483	-56.558073	282.200	0.220	0.450	0.420	282.120	-0.900	0.800																			1580081397.0	11.78	21.82
26/01/2020 23:29:58	26012020	260120	232958	282.150	12.277495	-56.558127	282.250	-0.030	0.240	0.360	282.160	-1.100	0.700																			1580081398.0	11.66	21.59
26/01/2020 23:29:59	26012020	260120	232959	282.300	12.277507	-56.558183	282.430	-0.110	-0.470	0.160	282.340	-1.700	0.500																			1580081399.0	12.00	22.22
26/01/2020 23:30:00	26012020	260120	233000	282.560	12.277517	-56.558240	282.710	0.010	-1.260	-0.060	282.620	-2.500	0.300	1015.20	25.90	26.00	20.90	20.90	-1.00	73.00	73.00	378.00	24.90	45.00	4.20	61.00	4.40	15	3991.00	27.50	27.50	1580081400.0	12.47	23.09
26/01/2020 23:30:01	26012020	260120	233001	282.830	12.277528	-56.558300	282.960	0.140	-1.600	-0.080	282.880	-2.900	0.300																			1580081401.0	12.59	23.32
26/01/2020 23:30:02	26012020	260120	233002	282.970	12.277538	-56.558357	283.040	0.060	-1.260	0.220	282.970	-2.700	0.500																			1580081402.0	12.26	22.71
26/01/2020 23:30:03	26012020	260120	233003	282.890	12.277550	-56.558410	282.930	-0.210	-0.510	0.650	282.860	-2.000	1.000																			1580081403.0	11.78	21.82
26/01/2020 23:30:04	26012020	260120	233004	282.630	12.277563	-56.558463	282.630	-0.510	0.150	0.920	282.560	-1.300	1.200																			1580081404.0	11.59	21.46
26/01/2020 23:30:05	26012020	260120	233005	282.240	12.277573	-56.558518	282.220	-0.650	0.450	0.880	282.150	-0.900	1.200																			1580081405.0	11.85	21.95
26/01/2020 23:30:06	26012020	260120	233006	281.850	12.277585	-56.558575	281.870	-0.540	0.380	0.650	281.790	-1.000	1.000																			1580081406.0	12.25	22.69
26/01/2020 23:30:07	26012020	260120	233007	281.660	12.277593	-56.558633	281.730	-0.210	0.130	0.400	281.650	-1.200	0.800																			1580081407.0	12.54	23.22
26/01/2020 23:30:08	26012020	260120	233008	281.700	12.277605	-56.558693	281.820	0.180	-0.050	0.270	281.720	-1.400	0.600																			1580081408.0	12.57	23.28
26/01/2020 23:30:09	26012020	260120	233009	281.890	12.277617	-56.558750	282.050	0.500	-0.040	0.290	281.950	-1.400	0.600																			1580081409.0	12.37	22.91
26/01/2020 23:30:10	26012020	260120	233010	282.190	12.277630	-56.558805	282.360	0.650	0.050	0.450	282.250	-1.300	0.800																			1580081410.0	12.05	22.32
26/01/2020 23:30:11	26012020	260120	233011	282.480	12.277643	-56.558860	282.630	0.630	0.050	0.640	282.530	-1.300	1.000																			1580081411.0	11.84	21.93
26/01/2020 23:30:12	26012020	260120	233012	282.630	12.277657	-56.558913	282.720	0.470	-0.120	0.770	282.630	-1.400	1.100																			1580081412.0	11.84	21.93
26/01/2020 23:30:13	26012020	260120	233013	282.570	12.277670	-56.558968	282.620	0.240	-0.420	0.780	282.540	-1.700	1.100																			1580081413.0	11.92	22.08
26/01/2020 23:30:14	26012020	260120	233014	282.390	12.277680	-56.559023	282.430	0.010	-0.720	0.610	282.360	-2.000	1.000																			1580081414.0	11.98	22.19
26/01/2020 23:30:15	26012020	260120	233015	282.230	12.277690	-56.559080	282.290	-0.120	-1.000	0.250	282.210	-2.300	0.700																			1580081415.0	12.02	22.26
26/01/2020 23:30:16	26012020	260120	233016	282.170	12.277698	-56.559137	282.260	-0.130	-1.190	-0.090	282.180	-2.500	0.300																			1580081416.0	12.13	22.46
26/01/2020 23:30:17	26012020	260120	233017	282.250	12.277708	-56.559193	282.350	-0.090	-1.140	-0.210	282.270	-2.500	0.200																			1580081417.0	12.24	22.67
26/01/2020 23:30:18	26012020	260120	233018	282.370	12.277718	-56.559250	282.460	-0.130	-0.770	-0.100	282.380	-2.200	0.200																			1580081418.0	12.21	22.61
26/01/2020 23:30:19	26012020	260120	233019	282.420	12.277730	-56.559307	282.480	-0.310	-0.170	0.060	282.420	-1.600	0.400																			1580081419.0	12.07	22.35
26/01/2020 23:30:20	26012020	260120	233020	282.350	12.277742	-56.559362	282.400	-0.530	0.380	0.180	282.330	-1.000	0.500																			1580081420.0	11.96	22.15
26/01/2020 23:30:21	26012020	260120	233021	282.210	12.277753	-56.559418	282.260	-0.620	0.610	0.280	282.180	-0.800	0.600																			1580081421.0	12.04	22.30
26/01/2020 23:30:22	26012020	260120	233022	282.060	12.277763	-56.559475	282.120	-0.440	0.470	0.390	282.040	-0.900	0.700																			1580081422.0	12.29	22.76
26/01/2020 23:30:23	26012020	260120	233023	281.970	12.277773	-56.559533	282.040	-0.040	0.130	0.470	281.960	-1.200	0.800																			1580081423.0	12.52	23.19
26/01/2020 23:30:24	26012020	260120	233024	281.910	12.277785	-56.559592	281.980	0.390	-0.140	0.550	281.900	-1.500	0.900																			1580081424.0	12.55	23.24
26/01/2020 23:30:25	26012020	260120	233025	281.850	12.277798	-56.559648	281.930	0.640	-0.220	0.650	281.840	-1.600	1.000																			1580081425.0	12.32	22.82
26/01/2020 23:30:26	26012020	260120	233026	281.830	12.277812	-56.559703	281.920	0.620	-0.200	0.660	281.830	-1.600	1.000																			1580081426.0	11.98	22.19
26/01/2020 23:30:27	26012020	260120	233027	281.870	12.277825	-56.559757	281.980	0.430	-0.290	0.450	281.890	-1.600	0.800																			1580081427.0	11.81	21.87
26/01/2020 23:30:28	26012020	260120	233028	281.990	12.277837	-56.559812	282.110	0.200	-0.480	0.050	282.030	-1.800	0.400																			1580081428.0	11.91	22.06
26/01/2020 23:30:29	26012020	260120	233029	282.150	12.277847	-56.559868	282.250	-0.010	-0.630	-0.260	282.170	-2.000	0.100																			1580081429.0	12.05	22.32
26/01/2020 23:30:30	26012020	260120	233030	282.250	12.277857	-56.559925	282.330	-0.170	-0.640	-0.290	282.250	-2.000	0.100																			1580081430.0	12.05	22.32
26/01/2020 23:30:31	26012020	260120	233031	282.240	12.277865	-56.559980	282.310	-0.200	-0.600	-0.020	282.240	-2.000	0.300																			1580081431.0	11.99	22.21
26/01/2020 23:30:32	26012020	260120	233032	282.170	12.277877	-56.560037	282.230	-0.090	-0.600	0.320	282.150	-2.000	0.600																			1580081432.0	12.05	22.32
26/01/2020 23:30:33	26012020	260120	233033	282.080	12.277888	-56.560093	282.100	0.060	-0.520	0.600	282.050	-1.900	0.900																			1580081433.0	12.19	22.58
26/01/2020 23:30:34	26012020	260120	233034	281.910	12.277900	-56.560148	281.970	0.080	-0.340	0.770	281.890	-1.700	1.100																			1580081434.0	12.20	22.59
26/01/2020 23:30:35	26012020	260120	233035	281.820	12.277912	-56.560205	281.900	-0.050	-0.200	0.730	281.810	-1.600	1.100																			1580081435.0	12.10	22.41
26/01/2020 23:30:36	26012020	260120	233036	281.830	12.277923	-56.560262	281.940	-0.220	-0.250	0.480	281.850	-1.600	0.900																			1580081436.0	12.18	22.56
26/01/2020 23:30:37	26012020	260120	233037	281.950	12.277933	-56.560318	282.070	-0.290	-0.350	0.150	281.990	-1.700	0.500																			1580081437.0	12.41	22.98
26/01/2020 23:30:38	26012020	260120	233038	282.110	12.277943	-56.560377	282.220	-0.240	-0.240	-0.050	282.140	-1.600	0.300																			1580081438.0	12.52	23.19
26/01/2020 23:30:39	26012020	260120	233039	282.200	12.277953	-56.560435	282.280	-0.170	0.180	0.060	282.200	-1.300	0.400																			1580081439.0	12.28	22.74
26/01/2020 23:30:40	26012020	260120	233040	282.150	12.277965	-56.560490	282.190	-0.170	0.620	0.340	282.110	-0.800	0.700																			1580081440.0	11.89	22.02
26/01/2020 23:30:41	26012020	260120	233041	281.980	12.277977	-56.560543	282.030	-0.180	0.700	0.510	281.940	-0.600	0.900																			1580081441.0	11.69	21.65
26/01/2020 23:30:42	26012020	260120	233042	281.870	12.277988	-56.560598	281.960	-0.030	0.190	0.410	281.870	-1.100	0.800																			1580081442.0	11.87	21.98
26/01/2020 23:30:43	26012020	260120	233043	281.970	12.277998	-56.560657	282.120	0.370	-0.710	0.210	282.020	-2.000	0.600																			1580081443.0	12.34	22.85
26/01/2020 23:30:44	26012020	260120	233044	282.240	12.278008	-56.560715	282.390	0.850	-1.410	0.130	282.300	-2.700	0.500																			1580081444.0	12.69	23.50
26/01/2020 23:30:45	26012020	260120	233045	282.480	12.278022	-56.560773	282.590	1.050	-1.420	0.280	282.510	-2.800	0.600																			1580081445.0	12.55	23.24
26/01/2020 23:30:46	26012020	260120	233046	282.530	12.278037	-56.560827	282.570	0.730	-0.720	0.570	282.500	-2.200	0.900																			1580081446.0	11.98	22.19
26/01/2020 23:30:47	26012020	260120	233047	282.390	12.278050	-56.560880	282.360	-0.020	0.180	0.680	282.340	-1.300	1.000																			1580081447.0	11.37	21.06
26/01/2020 23:30:48	26012020	260120	233048	282.070	12.278060	-56.560932	282.070	-0.790	0.610	0.490	282.020	-0.800	0.900																			1580081448.0	11.24	20.82
26/01/2020 23:30:49	26012020	260120	233049	281.820	12.278068	-56.560987	281.840	-1.160	0.260	0.120	281.780	-1.000	0.500																			1580081449.0	11.73	21.72
26/01/2020 23:30:50	26012020	260120	233050	281.720	12.278075	-56.561045	281.800	-0.930	-0.630	-0.190	281.740	-1.900	0.200																			1580081450.0	12.54	23.22
26/01/2020 23:30:51	26012020	260120	233051	281.860	12.278083	-56.561107	281.990	-0.270	-1.410	-0.270	281.910	-2.700	0.100																			1580081451.0	13.14	24.34
26/01/2020 23:30:52	26012020	260120	233052	282.160	12.278093	-56.561168	282.310	0.360	-1.390	0.040	282.220	-2.800	0.300																			1580081452.0	13.07	24.21
26/01/2020 23:30:53	26012020	260120	233053	282.430	12.278107	-56.561225	282.560	0.560	-0.450	0.600	282.470	-1.900	0.900																			1580081453.0	12.36	22.89
26/01/2020 23:30:54	26012020	260120	233054	282.520	12.278122	-56.561277	282.590	0.290	0.730	1.030	282.500	-0.800	1.400																			1580081454.0	11.54	21.37
26/01/2020 23:30:55	26012020	260120	233055	282.390	12.278135	-56.561328	282.430	-0.160	1.310	1.020	282.350	-0.100	1.400																			1580081455.0	11.30	20.93
26/01/2020 23:30:56	26012020	260120	233056	282.200	12.278147	-56.561383	282.240	-0.390	0.960	0.590	282.170	-0.300	1.000																			1580081456.0	11.76	21.78
26/01/2020 23:30:57	26012020	260120	233057	282.090	12.278155	-56.561442	282.160	-0.220	0.030	0.030	282.090	-1.200	0.400																			1580081457.0	12.51	23.17
26/01/2020 23:30:58	26012020	260120	233058	282.090	12.278163	-56.561502	282.170	0.210	-0.830	-0.300	282.100	-2.100	0.100																			1580081458.0	12.88	23.85
26/01/2020 23:30:59	26012020	260120	233059	282.140	12.278173	-56.561560	282.220	0.580	-1.130	-0.180	282.150	-2.500	0.100																			1580081459.0	12.60	23.34
26/01/2020 23:31:00	26012020	260120	233100	282.160	12.278187	-56.561615	282.230	0.640	-0.890	0.220	282.160	-2.300	0.500	1015.20	26.00	26.00	20.90	20.90	-1.00	73.00	73.00	378.00	24.90	50.00	3.60	67.00	4.80	15	3681.00	27.50	27.50	1580081460.0	11.97	22.17
26/01/2020 23:31:01	26012020	260120	233101	282.130	12.278200	-56.561668	282.180	0.360	-0.550	0.540	282.110	-1.900	0.900																			1580081461.0	11.52	21.34
26/01/2020 23:31:02	26012020	260120	233102	282.050	12.278213	-56.561722	282.110	-0.070	-0.420	0.540	282.040	-1.800	0.900																			1580081462.0	11.55	21.39
26/01/2020 23:31:03	26012020	260120	233103	282.020	12.278223	-56.561777	282.100	-0.420	-0.480	0.280	282.030	-1.800	0.700																			1580081463.0	11.91	22.06
26/01/2020 23:31:04	26012020	260120	233104	282.090	12.278232	-56.561833	282.190	-0.550	-0.520	0.050	282.110	-1.900	0.400																			1580081464.0	12.24	22.67
26/01/2020 23:31:05	26012020	260120	233105	282.250	12.278240	-56.561892	282.360	-0.460	-0.390	0.030	282.280	-1.800	0.400																			1580081465.0	12.31	22.80
26/01/2020 23:31:06	26012020	260120	233106	282.430	12.278250	-56.561948	282.530	-0.230	-0.150	0.260	282.450	-1.500	0.600																			1580081466.0	12.23	22.65
26/01/2020 23:31:07	26012020	260120	233107	282.530	12.278262	-56.562005	282.610	-0.000	0.060	0.560	282.530	-1.300	0.900																			1580081467.0	12.17	22.54
26/01/2020 23:31:08	26012020	260120	233108	282.520	12.278275	-56.562060	282.570	0.120	0.180	0.750	282.500	-1.200	1.100																			1580081468.0	12.19	22.58
26/01/2020 23:31:09	26012020	260120	233109	282.450	12.278288	-56.562117	282.480	0.100	0.220	0.670	282.430	-1.100	1.000																			1580081469.0	12.17	22.54
26/01/2020 23:31:10	26012020	260120	233110	282.360	12.278300	-56.562173	282.420	0.000	0.130	0.330	282.360	-1.200	0.700																			1580081470.0	12.08	22.37
26/01/2020 23:31:11	26012020	260120	233111	282.370	12.278308	-56.562228	282.450	-0.050	-0.160	-0.040	282.380	-1.500	0.400																			1580081471.0	12.05	22.32
26/01/2020 23:31:12	26012020	260120	233112	282.480	12.278318	-56.562285	282.580	0.050	-0.610	-0.270	282.520	-1.900	0.100																			1580081472.0	12.17	22.54
26/01/2020 23:31:13	26012020	260120	233113	282.660	12.278328	-56.562343	282.770	0.250	-0.940	-0.200	282.700	-2.300	0.100																			1580081473.0	12.32	22.82
26/01/2020 23:31:14	26012020	260120	233114	282.780	12.278342	-56.562400	282.840	0.380	-0.880	0.130	282.780	-2.300	0.400																			1580081474.0	12.27	22.72
26/01/2020 23:31:15	26012020	260120	233115	282.710	12.278355	-56.562455	282.720	0.300	-0.460	0.560	282.670	-1.900	0.900																			1580081475.0	11.97	22.17
26/01/2020 23:31:16	26012020	260120	233116	282.480	12.278368	-56.562508	282.480	0.040	-0.040	0.770	282.430	-1.400	1.100																			1580081476.0	11.73	21.72
26/01/2020 23:31:17	26012020	260120	233117	282.260	12.278382	-56.562562	282.290	-0.210	0.060	0.610	282.240	-1.300	1.000																			1580081477.0	11.77	21.80
26/01/2020 23:31:18	26012020	260120	233118	282.190	12.278392	-56.562618	282.250	-0.300	-0.160	0.210	282.190	-1.500	0.600																			1580081478.0	12.15	22.50
26/01/2020 23:31:19	26012020	260120	233119	282.270	12.278400	-56.562677	282.370	-0.260	-0.410	-0.190	282.310	-1.800	0.200																			1580081479.0	12.47	23.09
26/01/2020 23:31:20	26012020	260120	233120	282.510	12.278410	-56.562735	282.640	-0.210	-0.470	-0.360	282.570	-1.800	-0.000																			1580081480.0	12.47	23.09
26/01/2020 23:31:21	26012020	260120	233121	282.810	12.278420	-56.562792	282.930	-0.180	-0.280	-0.220	282.860	-1.700	0.100																			1580081481.0	12.23	22.65
26/01/2020 23:31:22	26012020	260120	233122	283.030	12.278430	-56.562848	283.130	-0.160	0.030	0.070	283.050	-1.400	0.400																			1580081482.0	11.96	22.15
26/01/2020 23:31:23	26012020	260120	233123	283.100	12.278442	-56.562902	283.160	-0.110	0.260	0.430	283.100	-1.100	0.700																			1580081483.0	11.83	21.91
26/01/2020 23:31:24	26012020	260120	233124	283.020	12.278455	-56.562957	283.060	0.010	0.230	0.710	282.990	-1.100	1.000																			1580081484.0	11.82	21.89
26/01/2020 23:31:25	26012020	260120	233125	282.910	12.278468	-56.563012	282.970	0.220	-0.170	0.760	282.900	-1.500	1.100																			1580081485.0	12.00	22.22
26/01/2020 23:31:26	26012020	260120	233126	282.880	12.278480	-56.563068	282.960	0.490	-0.790	0.580	282.890	-2.100	1.000																			1580081486.0	12.32	22.82
26/01/2020 23:31:27	26012020	260120	233127	282.920	12.278492	-56.563127	282.990	0.660	-1.180	0.380	282.930	-2.500	0.700																			1580081487.0	12.55	23.24
26/01/2020 23:31:28	26012020	260120	233128	282.930	12.278505	-56.563183	282.960	0.550	-1.010	0.270	282.910	-2.400	0.600																			1580081488.0	12.36	22.89
26/01/2020 23:31:29	26012020	260120	233129	282.810	12.278518	-56.563238	282.810	0.080	-0.440	0.220	282.770	-1.900	0.600																			1580081489.0	11.88	22.00
26/01/2020 23:31:30	26012020	260120	233130	282.640	12.278530	-56.563292	282.640	-0.520	0.080	0.110	282.610	-1.300	0.500																			1580081490.0	11.61	21.50
26/01/2020 23:31:31	26012020	260120	233131	282.540	12.278540	-56.563347	282.570	-0.890	0.160	-0.040	282.530	-1.200	0.300																			1580081491.0	11.79	21.84
26/01/2020 23:31:32	26012020	260120	233132	282.550	12.278548	-56.563405	282.620	-0.770	-0.090	-0.060	282.570	-1.400	0.300																			1580081492.0	12.31	22.80
26/01/2020 23:31:33	26012020	260120	233133	282.700	12.278558	-56.563463	282.800	-0.260	-0.340	0.120	282.740	-1.700	0.400																			1580081493.0	12.69	23.50
26/01/2020 23:31:34	26012020	260120	233134	282.940	12.278572	-56.563522	283.070	0.280	-0.330	0.460	282.990	-1.700	0.800																			1580081494.0	12.62	23.37
26/01/2020 23:31:35	26012020	260120	233135	283.150	12.278585	-56.563578	283.300	0.520	-0.060	0.790	283.190	-1.500	1.100																			1580081495.0	12.31	22.80
26/01/2020 23:31:36	26012020	260120	233136	283.360	12.278600	-56.563633	283.430	0.380	0.300	0.900	283.370	-1.100	1.200																			1580081496.0	11.93	22.09
26/01/2020 23:31:37	26012020	260120	233137	283.390	12.278612	-56.563687	283.440	-0.000	0.460	0.670	283.390	-0.900	1.100																			1580081497.0	11.65	21.58
26/01/2020 23:31:38	26012020	260120	233138	283.380	12.278623	-56.563740	283.420	-0.340	0.190	0.220	283.380	-1.100	0.600																			1580081498.0	11.68	21.63
26/01/2020 23:31:39	26012020	260120	233139	283.420	12.278632	-56.563797	283.470	-0.420	-0.500	-0.240	283.430	-1.800	0.200																			1580081499.0	12.02	22.26
26/01/2020 23:31:40	26012020	260120	233140	283.540	12.278640	-56.563855	283.620	-0.190	-1.250	-0.440	283.580	-2.500	-0.100																			1580081500.0	12.42	23.00
26/01/2020 23:31:41	26012020	260120	233141	283.720	12.278650	-56.563913	283.780	0.230	-1.600	-0.280	283.750	-2.900	0.000																			1580081501.0	12.54	23.22
26/01/2020 23:31:42	26012020	260120	233142	283.780	12.278663	-56.563970	283.800	0.560	-1.300	0.140	283.770	-2.700	0.400																			1580081502.0	12.34	22.85
26/01/2020 23:31:43	26012020	260120	233143	283.620	12.278678	-56.564025	283.590	0.580	-0.470	0.640	283.570	-1.900	0.900																			1580081503.0	11.95	22.13
26/01/2020 23:31:44	26012020	260120	233144	283.300	12.278693	-56.564077	283.250	0.310	0.430	0.920	283.230	-1.000	1.300																			1580081504.0	11.63	21.54
26/01/2020 23:31:45	26012020	260120	233145	283.020	12.278708	-56.564130	282.920	-0.060	0.940	0.810	282.950	-0.500	1.200																			1580081505.0	11.60	21.48
26/01/2020 23:31:46	26012020	260120	233146	282.710	12.278720	-56.564185	282.720	-0.330	0.810	0.390	282.690	-0.500	0.800																			1580081506.0	11.93	22.09
26/01/2020 23:31:47	26012020	260120	233147	282.670	12.278730	-56.564242	282.730	-0.380	0.170	-0.140	282.700	-1.100	0.300																			1580081507.0	12.35	22.87
26/01/2020 23:31:48	26012020	260120	233148	282.890	12.278740	-56.564302	283.010	-0.260	-0.600	-0.520	282.970	-1.900	-0.100																			1580081508.0	12.66	23.45
26/01/2020 23:31:49	26012020	260120	233149	283.320	12.278752	-56.564360	283.480	-0.110	-1.060	-0.570	283.430	-2.400	-0.200																			1580081509.0	12.64	23.41
26/01/2020 23:31:50	26012020	260120	233150	283.830	12.278763	-56.564417	283.980	-0.020	-1.020	-0.280	283.920	-2.400	0.000																			1580081510.0	12.29	22.76
26/01/2020 23:31:51	26012020	260120	233151	284.240	12.278775	-56.564472	284.350	0.010	-0.630	0.220	284.300	-2.000	0.500																			1580081511.0	11.85	21.95
26/01/2020 23:31:52	26012020	260120	233152	284.400	12.278790	-56.564525	284.450	0.010	-0.260	0.760	284.400	-1.600	1.100																			1580081512.0	11.65	21.58
26/01/2020 23:31:53	26012020	260120	233153	284.290	12.278803	-56.564578	284.280	0.040	-0.170	1.070	284.250	-1.500	1.400																			1580081513.0	11.81	21.87
26/01/2020 23:31:54	26012020	260120	233154	283.990	12.278818	-56.564635	283.940	0.110	-0.300	1.060	283.920	-1.600	1.400																			1580081514.0	12.22	22.63
26/01/2020 23:31:55	26012020	260120	233155	283.580	12.278830	-56.564692	283.500	0.150	-0.320	0.910	283.480	-1.700	1.300																			1580081515.0	12.46	23.08
26/01/2020 23:31:56	26012020	260120	233156	283.100	12.278842	-56.564748	283.010	0.050	-0.030	0.730	283.000	-1.400	1.100																			1580081516.0	12.28	22.74
26/01/2020 23:31:57	26012020	260120	233157	282.660	12.278853	-56.564803	282.600	-0.130	0.330	0.500	282.590	-1.000	0.900																			1580081517.0	11.86	21.96
26/01/2020 23:31:58	26012020	260120	233158	282.410	12.278863	-56.564858	282.410	-0.210	0.400	0.240	282.390	-0.900	0.600																			1580081518.0	11.68	21.63
26/01/2020 23:31:59	26012020	260120	233159	282.370	12.278875	-56.564913	282.450	-0.040	0.000	0.020	282.390	-1.300	0.400																			1580081519.0	11.93	22.09
26/01/2020 23:32:00	26012020	260120	233200	282.600	12.278887	-56.564970	282.720	0.300	-0.590	-0.110	282.670	-1.900	0.300	1015.30	25.90	26.00	20.80	20.80	-1.00	73.00	73.00	378.00	24.90	53.00	3.20	72.00	5.00	15	3682.00	27.50	27.50	1580081520.0	12.32	22.82
26/01/2020 23:32:01	26012020	260120	233201	283.000	12.278900	-56.565028	283.140	0.580	-0.970	-0.090	283.090	-2.300	0.200																			1580081521.0	12.51	23.17
26/01/2020 23:32:02	26012020	260120	233202	283.420	12.278915	-56.565085	283.530	0.580	-0.890	0.130	283.480	-2.300	0.400																			1580081522.0	12.31	22.80
26/01/2020 23:32:03	26012020	260120	233203	283.650	12.278930	-56.565138	283.760	0.270	-0.480	0.420	283.690	-1.900	0.700																			1580081523.0	11.90	22.04
26/01/2020 23:32:04	26012020	260120	233204	283.760	12.278943	-56.565192	283.780	-0.180	-0.080	0.560	283.750	-1.500	0.900																			1580081524.0	11.65	21.58
26/01/2020 23:32:05	26012020	260120	233205	283.630	12.278955	-56.565247	283.610	-0.570	0.020	0.460	283.590	-1.300	0.800																			1580081525.0	11.73	21.72
26/01/2020 23:32:06	26012020	260120	233206	283.410	12.278965	-56.565302	283.390	-0.700	-0.210	0.210	283.370	-1.500	0.600																			1580081526.0	12.09	22.39
26/01/2020 23:32:07	26012020	260120	233207	283.200	12.278973	-56.565360	283.180	-0.560	-0.520	0.070	283.160	-1.900	0.400																			1580081527.0	12.45	23.06
26/01/2020 23:32:08	26012020	260120	233208	283.030	12.278983	-56.565418	283.040	-0.270	-0.620	0.230	283.000	-2.000	0.600																			1580081528.0	12.54	23.22
26/01/2020 23:32:09	26012020	260120	233209	282.920	12.278995	-56.565477	282.940	0.030	-0.450	0.630	282.910	-1.800	0.900																			1580081529.0	12.29	22.76
26/01/2020 23:32:10	26012020	260120	233210	282.820	12.279010	-56.565532	282.830	0.240	-0.180	0.990	282.790	-1.600	1.300																			1580081530.0	12.08	22.37
26/01/2020 23:32:11	26012020	260120	233211	282.680	12.279025	-56.565587	282.700	0.330	0.050	1.120	282.650	-1.300	1.500																			1580081531.0	12.06	22.34
26/01/2020 23:32:12	26012020	260120	233212	282.560	12.279040	-56.565642	282.590	0.300	0.160	0.950	282.540	-1.200	1.300																			1580081532.0	12.07	22.35
26/01/2020 23:32:13	26012020	260120	233213	282.520	12.279053	-56.565697	282.590	0.220	0.120	0.550	282.530	-1.200	1.000																			1580081533.0	12.11	22.43
26/01/2020 23:32:14	26012020	260120	233214	282.640	12.279063	-56.565753	282.730	0.140	-0.030	0.080	282.670	-1.400	0.500																			1580081534.0	12.14	22.48
26/01/2020 23:32:15	26012020	260120	233215	282.810	12.279073	-56.565810	282.870	0.090	-0.150	-0.170	282.830	-1.500	0.200																			1580081535.0	12.14	22.48
26/01/2020 23:32:16	26012020	260120	233216	282.860	12.279083	-56.565865	282.890	0.020	-0.170	-0.060	282.860	-1.500	0.300																			1580081536.0	12.00	22.22
26/01/2020 23:32:17	26012020	260120	233217	282.750	12.279095	-56.565920	282.740	-0.090	-0.200	0.270	282.710	-1.600	0.600																			1580081537.0	11.81	21.87
26/01/2020 23:32:18	26012020	260120	233218	282.530	12.279107	-56.565975	282.530	-0.170	-0.390	0.570	282.490	-1.700	0.900																			1580081538.0	11.77	21.80
26/01/2020 23:32:19	26012020	260120	233219	282.380	12.279120	-56.566030	282.420	-0.120	-0.800	0.720	282.370	-2.100	1.100																			1580081539.0	11.98	22.19
26/01/2020 23:32:20	26012020	260120	233220	282.410	12.279132	-56.566087	282.500	0.090	-1.240	0.680	282.440	-2.500	1.000																			1580081540.0	12.32	22.82
26/01/2020 23:32:21	26012020	260120	233221	282.540	12.279145	-56.566145	282.660	0.270	-1.320	0.570	282.570	-2.700	0.900																			1580081541.0	12.54	23.22
26/01/2020 23:32:22	26012020	260120	233222	282.680	12.279157	-56.566202	282.730	0.230	-0.850	0.530	282.690	-2.300	0.900																			1580081542.0	12.36	22.89
26/01/2020 23:32:23	26012020	260120	233223	282.650	12.279170	-56.566257	282.670	-0.070	-0.090	0.510	282.640	-1.500	0.900																			1580081543.0	11.96	22.15
26/01/2020 23:32:24	26012020	260120	233224	282.530	12.279182	-56.566312	282.530	-0.420	0.470	0.450	282.490	-0.900	0.800																			1580081544.0	11.78	21.82
26/01/2020 23:32:25	26012020	260120	233225	282.370	12.279192	-56.566367	282.380	-0.560	0.550	0.320	282.340	-0.800	0.700																			1580081545.0	12.03	22.28
26/01/2020 23:32:26	26012020	260120	233226	282.220	12.279202	-56.566425	282.220	-0.430	0.300	0.250	282.190	-1.000	0.600																			1580081546.0	12.44	23.04
26/01/2020 23:32:27	26012020	260120	233227	282.060	12.279213	-56.566483	282.070	-0.150	0.080	0.320	282.030	-1.300	0.700																			1580081547.0	12.60	23.34
26/01/2020 23:32:28	26012020	260120	233228	281.930	12.279225	-56.566540	281.970	0.080	0.070	0.560	281.920	-1.300	0.900																			1580081548.0	12.34	22.85
26/01/2020 23:32:29	26012020	260120	233229	281.890	12.279238	-56.566595	281.960	0.200	0.040	0.780	281.890	-1.300	1.100																			1580081549.0	11.93	22.09
26/01/2020 23:32:30	26012020	260120	233230	281.950	12.279250	-56.566650	282.040	0.300	-0.230	0.820	281.970	-1.500	1.200																			1580081550.0	11.85	21.95
26/01/2020 23:32:31	26012020	260120	233231	282.070	12.279263	-56.566705	282.160	0.420	-0.610	0.690	282.090	-1.900	1.100																			1580081551.0	12.06	22.34
26/01/2020 23:32:32	26012020	260120	233232	282.130	12.279275	-56.566762	282.180	0.460	-0.790	0.540	282.130	-2.100	0.900																			1580081552.0	12.20	22.59
26/01/2020 23:32:33	26012020	260120	233233	282.060	12.279285	-56.566817	282.080	0.320	-0.660	0.440	282.030	-2.000	0.800																			1580081553.0	12.00	22.22
26/01/2020 23:32:34	26012020	260120	233234	281.880	12.279297	-56.566872	281.890	0.060	-0.430	0.380	281.840	-1.800	0.700																			1580081554.0	11.75	21.76
26/01/2020 23:32:35	26012020	260120	233235	281.660	12.279307	-56.566927	281.670	-0.150	-0.390	0.350	281.620	-1.700	0.700																			1580081555.0	11.74	21.74
26/01/2020 23:32:36	26012020	260120	233236	281.500	12.279317	-56.566983	281.560	-0.200	-0.580	0.300	281.490	-1.900	0.700																			1580081556.0	12.06	22.34
26/01/2020 23:32:37	26012020	260120	233237	281.530	12.279327	-56.567040	281.620	-0.120	-0.760	0.190	281.550	-2.100	0.600																			1580081557.0	12.41	22.98
26/01/2020 23:32:38	26012020	260120	233238	281.670	12.279338	-56.567098	281.780	-0.060	-0.700	0.160	281.710	-2.100	0.500																			1580081558.0	12.50	23.15
26/01/2020 23:32:39	26012020	260120	233239	281.800	12.279350	-56.567155	281.900	-0.100	-0.390	0.270	281.820	-1.800	0.600																			1580081559.0	12.36	22.89
26/01/2020 23:32:40	26012020	260120	233240	281.870	12.279362	-56.567212	281.930	-0.190	0.010	0.510	281.860	-1.400	0.800																			1580081560.0	12.21	22.61
26/01/2020 23:32:41	26012020	260120	233241	281.810	12.279375	-56.567268	281.850	-0.250	0.350	0.800	281.780	-1.000	1.100																			1580081561.0	12.15	22.50
26/01/2020 23:32:42	26012020	260120	233242	281.660	12.279387	-56.567323	281.690	-0.240	0.540	1.040	281.610	-0.800	1.400																			1580081562.0	12.15	22.50
26/01/2020 23:32:43	26012020	260120	233243	281.440	12.279398	-56.567380	281.470	-0.180	0.540	1.080	281.390	-0.800	1.400																			1580081563.0	12.15	22.50
26/01/2020 23:32:44	26012020	260120	233244	281.210	12.279410	-56.567437	281.250	-0.090	0.300	0.870	281.170	-1.000	1.300																			1580081564.0	12.11	22.43
26/01/2020 23:32:45	26012020	260120	233245	281.050	12.279418	-56.567493	281.100	0.020	-0.160	0.520	281.030	-1.400	0.900																			1580081565.0	12.12	22.45
26/01/2020 23:32:46	26012020	260120	233246	281.030	12.279428	-56.567550	281.120	0.190	-0.700	0.170	281.040	-2.000	0.600																			1580081566.0	12.17	22.54
26/01/2020 23:32:47	26012020	260120	233247	281.170	12.279437	-56.567607	281.300	0.370	-1.120	-0.030	281.220	-2.400	0.300																			1580081567.0	12.19	22.58
26/01/2020 23:32:48	26012020	260120	233248	281.420	12.279447	-56.567663	281.550	0.510	-1.230	0.050	281.460	-2.600	0.400																			1580081568.0	12.15	22.50
26/01/2020 23:32:49	26012020	260120	233249	281.610	12.279458	-56.567718	281.720	0.550	-0.970	0.360	281.630	-2.400	0.700																			1580081569.0	12.01	22.24
26/01/2020 23:32:50	26012020	260120	233250	281.650	12.279472	-56.567773	281.720	0.410	-0.500	0.700	281.640	-1.900	1.000																			1580081570.0	11.88	22.00
26/01/2020 23:32:51	26012020	260120	233251	281.550	12.279485	-56.567828	281.610	0.090	-0.020	0.920	281.530	-1.400	1.300																			1580081571.0	11.87	21.98
26/01/2020 23:32:52	26012020	260120	233252	281.400	12.279497	-56.567883	281.460	-0.320	0.280	0.910	281.370	-1.100	1.300																			1580081572.0	11.95	22.13
26/01/2020 23:32:53	26012020	260120	233253	281.300	12.279507	-56.567940	281.380	-0.630	0.300	0.610	281.290	-1.000	1.000																			1580081573.0	12.12	22.45
26/01/2020 23:32:54	26012020	260120	233254	281.310	12.279515	-56.567997	281.430	-0.680	0.110	0.200	281.330	-1.200	0.600																			1580081574.0	12.32	22.82
26/01/2020 23:32:55	26012020	260120	233255	281.470	12.279523	-56.568055	281.600	-0.470	-0.220	-0.090	281.510	-1.500	0.300																			1580081575.0	12.44	23.04
26/01/2020 23:32:56	26012020	260120	233256	281.710	12.279532	-56.568113	281.870	-0.100	-0.580	-0.080	281.770	-1.900	0.300																			1580081576.0	12.50	23.15
26/01/2020 23:32:57	26012020	260120	233257	281.970	12.279543	-56.568172	282.120	0.240	-0.760	0.190	282.020	-2.100	0.500																			1580081577.0	12.51	23.17
26/01/2020 23:32:58	26012020	260120	233258	282.130	12.279555	-56.568228	282.230	0.390	-0.560	0.520	282.140	-1.900	0.900																			1580081578.0	12.33	22.84
26/01/2020 23:32:59	26012020	260120	233259	282.100	12.279568	-56.568283	282.170	0.290	-0.090	0.760	282.080	-1.500	1.100																			1580081579.0	11.95	22.13
26/01/2020 23:33:00	26012020	260120	233300	281.950	12.279580	-56.568337	282.000	0.040	0.280	0.790	281.910	-1.100	1.200	1015.30	26.00	26.00	20.90	20.90	-1.00	73.00	73.00	378.00	24.90	53.00	2.50	80.00	5.20	15	3942.00	27.50	27.50	1580081580.0	11.65	21.58
26/01/2020 23:33:01	26012020	260120	233301	281.750	12.279590	-56.568392	281.800	-0.170	0.230	0.590	281.710	-1.100	1.000																			1580081581.0	11.72	21.71
26/01/2020 23:33:02	26012020	260120	233302	281.630	12.279600	-56.568448	281.710	-0.140	-0.230	0.300	281.620	-1.500	0.700																			1580081582.0	12.11	22.43
26/01/2020 23:33:03	26012020	260120	233303	281.660	12.279610	-56.568507	281.780	0.100	-0.700	0.090	281.680	-2.000	0.500																			1580081583.0	12.49	23.13
26/01/2020 23:33:04	26012020	260120	233304	281.800	12.279620	-56.568565	281.920	0.340	-0.850	0.100	281.820	-2.200	0.400																			1580081584.0	12.51	23.17
26/01/2020 23:33:05	26012020	260120	233305	281.920	12.279633	-56.568622	282.040	0.360	-0.570	0.340	281.940	-2.000	0.700																			1580081585.0	12.20	22.59
26/01/2020 23:33:06	26012020	260120	233306	282.000	12.279647	-56.568675	282.120	0.150	-0.160	0.570	282.020	-1.600	0.900																			1580081586.0	11.86	21.96
26/01/2020 23:33:07	26012020	260120	233307	282.070	12.279658	-56.568730	282.180	-0.140	0.040	0.540	282.090	-1.300	0.900																			1580081587.0	11.78	21.82
26/01/2020 23:33:08	26012020	260120	233308	282.150	12.279670	-56.568785	282.260	-0.320	-0.080	0.190	282.160	-1.400	0.600																			1580081588.0	12.04	22.30
26/01/2020 23:33:09	26012020	260120	233309	282.250	12.279678	-56.568843	282.360	-0.340	-0.340	-0.220	282.270	-1.700	0.200																			1580081589.0	12.39	22.95
26/01/2020 23:33:10	26012020	260120	233310	282.370	12.279687	-56.568902	282.480	-0.270	-0.440	-0.400	282.390	-1.800	-0.000																			1580081590.0	12.49	23.13
26/01/2020 23:33:11	26012020	260120	233311	282.440	12.279697	-56.568958	282.520	-0.190	-0.360	-0.220	282.440	-1.700	0.100																			1580081591.0	12.29	22.76
26/01/2020 23:33:12	26012020	260120	233312	282.390	12.279707	-56.569015	282.440	-0.100	-0.230	0.160	282.360	-1.600	0.500																			1580081592.0	12.08	22.37
26/01/2020 23:33:13	26012020	260120	233313	282.240	12.279718	-56.569070	282.280	0.040	-0.180	0.550	282.200	-1.500	0.900																			1580081593.0	12.04	22.30
26/01/2020 23:33:14	26012020	260120	233314	282.070	12.279732	-56.569127	282.120	0.190	-0.260	0.850	282.040	-1.600	1.200																			1580081594.0	12.13	22.46
26/01/2020 23:33:15	26012020	260120	233315	281.950	12.279745	-56.569183	282.040	0.290	-0.410	0.930	281.940	-1.700	1.300																			1580081595.0	12.26	22.71
26/01/2020 23:33:16	26012020	260120	233316	281.970	12.279758	-56.569240	282.100	0.290	-0.520	0.740	282.000	-1.900	1.100																			1580081596.0	12.31	22.80
26/01/2020 23:33:17	26012020	260120	233317	282.100	12.279770	-56.569297	282.280	0.200	-0.480	0.460	282.140	-1.800	0.800																			1580081597.0	12.29	22.76
26/01/2020 23:33:18	26012020	260120	233318	282.340	12.279782	-56.569353	282.470	0.020	-0.230	0.220	282.370	-1.600	0.600																			1580081598.0	12.17	22.54
26/01/2020 23:33:19	26012020	260120	233319	282.490	12.279792	-56.569408	282.590	-0.230	0.120	0.110	282.500	-1.300	0.500																			1580081599.0	11.96	22.15
26/01/2020 23:33:20	26012020	260120	233320	282.550	12.279803	-56.569463	282.640	-0.420	0.360	0.150	282.560	-1.000	0.500																			1580081600.0	11.83	21.91
26/01/2020 23:33:21	26012020	260120	233321	282.580	12.279813	-56.569518	282.670	-0.420	0.270	0.270	282.580	-1.100	0.600																			1580081601.0	11.84	21.93
26/01/2020 23:33:22	26012020	260120	233322	282.600	12.279823	-56.569575	282.710	-0.130	-0.180	0.430	282.610	-1.500	0.800																			1580081602.0	12.09	22.39
26/01/2020 23:33:23	26012020	260120	233323	282.630	12.279835	-56.569632	282.720	0.330	-0.750	0.590	282.630	-2.000	0.900																			1580081603.0	12.42	23.00
26/01/2020 23:33:24	26012020	260120	233324	282.590	12.279847	-56.569690	282.670	0.660	-1.040	0.660	282.580	-2.400	1.000																			1580081604.0	12.52	23.19
26/01/2020 23:33:25	26012020	260120	233325	282.530	12.279860	-56.569747	282.610	0.650	-0.890	0.580	282.530	-2.300	1.000																			1580081605.0	12.27	22.72
26/01/2020 23:33:26	26012020	260120	233326	282.550	12.279872	-56.569802	282.660	0.330	-0.550	0.370	282.570	-1.900	0.800																			1580081606.0	11.92	22.08
26/01/2020 23:33:27	26012020	260120	233327	282.700	12.279883	-56.569857	282.810	-0.070	-0.310	0.060	282.730	-1.700	0.400																			1580081607.0	11.88	22.00
26/01/2020 23:33:28	26012020	260120	233328	282.870	12.279895	-56.569912	282.970	-0.420	-0.180	-0.240	282.890	-1.500	0.200																			1580081608.0	12.08	22.37
26/01/2020 23:33:29	26012020	260120	233329	282.970	12.279905	-56.569970	283.050	-0.650	-0.040	-0.380	282.980	-1.400	-0.000																			1580081609.0	12.28	22.74
26/01/2020 23:33:30	26012020	260120	233330	283.020	12.279915	-56.570027	283.100	-0.720	0.100	-0.270	283.030	-1.300	0.100																			1580081610.0	12.24	22.67
26/01/2020 23:33:31	26012020	260120	233331	283.090	12.279925	-56.570083	283.190	-0.550	0.080	0.010	283.110	-1.300	0.300																			1580081611.0	12.17	22.54
26/01/2020 23:33:32	26012020	260120	233332	283.210	12.279937	-56.570140	283.320	-0.150	-0.160	0.260	283.230	-1.500	0.600																			1580081612.0	12.29	22.76
26/01/2020 23:33:33	26012020	260120	233333	283.280	12.279950	-56.570197	283.350	0.310	-0.340	0.490	283.270	-1.700	0.800																			1580081613.0	12.47	23.09
26/01/2020 23:33:34	26012020	260120	233334	283.190	12.279963	-56.570253	283.210	0.560	-0.270	0.720	283.140	-1.600	1.000																			1580081614.0	12.33	22.84
26/01/2020 23:33:35	26012020	260120	233335	282.940	12.279978	-56.570308	282.950	0.480	-0.060	0.820	282.890	-1.400	1.200																			1580081615.0	11.98	22.19
26/01/2020 23:33:36	26012020	260120	233336	282.670	12.279992	-56.570362	282.690	0.200	0.010	0.620	282.630	-1.300	1.000																			1580081616.0	11.77	21.80
26/01/2020 23:33:37	26012020	260120	233337	282.470	12.280002	-56.570417	282.510	-0.000	-0.200	0.210	282.440	-1.500	0.600																			1580081617.0	11.83	21.91
26/01/2020 23:33:38	26012020	260120	233338	282.430	12.280012	-56.570473	282.510	-0.000	-0.610	-0.220	282.440	-1.900	0.200																			1580081618.0	12.13	22.46
26/01/2020 23:33:39	26012020	260120	233339	282.580	12.280022	-56.570532	282.710	0.120	-0.960	-0.470	282.640	-2.300	-0.100																			1580081619.0	12.37	22.91
26/01/2020 23:33:40	26012020	260120	233340	282.870	12.280033	-56.570588	283.020	0.170	-0.950	-0.430	282.940	-2.300	-0.100																			1580081620.0	12.41	22.98
26/01/2020 23:33:41	26012020	260120	233341	283.190	12.280045	-56.570645	283.320	0.020	-0.520	-0.210	283.250	-1.900	0.100																			1580081621.0	12.17	22.54
26/01/2020 23:33:42	26012020	260120	233342	283.420	12.280058	-56.570700	283.520	-0.200	0.050	0.110	283.440	-1.400	0.400																			1580081622.0	11.83	21.91
26/01/2020 23:33:43	26012020	260120	233343	283.480	12.280070	-56.570753	283.550	-0.300	0.370	0.430	283.480	-1.000	0.800																			1580081623.0	11.77	21.80
26/01/2020 23:33:44	26012020	260120	233344	283.410	12.280083	-56.570808	283.450	-0.160	0.220	0.580	283.390	-1.100	0.900																			1580081624.0	12.03	22.28
26/01/2020 23:33:45	26012020	260120	233345	283.260	12.280097	-56.570867	283.280	0.070	-0.170	0.570	283.220	-1.500	0.900																			1580081625.0	12.46	23.08
26/01/2020 23:33:46	26012020	260120	233346	283.030	12.280108	-56.570925	283.040	0.150	-0.470	0.470	282.980	-1.800	0.800																			1580081626.0	12.59	23.32
26/01/2020 23:33:47	26012020	260120	233347	282.780	12.280122	-56.570982	282.780	0.020	-0.520	0.380	282.730	-1.900	0.700																			1580081627.0	12.35	22.87
26/01/2020 23:33:48	26012020	260120	233348	282.580	12.280133	-56.571037	282.620	-0.190	-0.470	0.290	282.560	-1.800	0.700																			1580081628.0	12.05	22.32
26/01/2020 23:33:49	26012020	260120	233349	282.530	12.280143	-56.571093	282.610	-0.270	-0.480	0.170	282.540	-1.800	0.500																			1580081629.0	11.97	22.17
26/01/2020 23:33:50	26012020	260120	233350	282.640	12.280155	-56.571148	282.750	-0.160	-0.540	0.060	282.680	-1.900	0.400																			1580081630.0	12.13	22.46
26/01/2020 23:33:51	26012020	260120	233351	282.840	12.280167	-56.571207	282.970	0.040	-0.480	0.060	282.890	-1.800	0.400																			1580081631.0	12.28	22.74
26/01/2020 23:33:52	26012020	260120	233352	283.060	12.280178	-56.571262	283.170	0.180	-0.220	0.210	283.100	-1.600	0.500																			1580081632.0	12.21	22.61
26/01/2020 23:33:53	26012020	260120	233353	283.200	12.280192	-56.571318	283.350	0.220	0.100	0.460	283.230	-1.300	0.800																			1580081633.0	12.02	22.26
26/01/2020 23:33:54	26012020	260120	233354	283.370	12.280205	-56.571373	283.460	0.180	0.270	0.610	283.380	-1.100	1.000																			1580081634.0	11.95	22.13
26/01/2020 23:33:55	26012020	260120	233355	283.390	12.280218	-56.571428	283.460	0.120	0.220	0.610	283.380	-1.100	1.000																			1580081635.0	12.06	22.34
26/01/2020 23:33:56	26012020	260120	233356	283.310	12.280232	-56.571483	283.360	0.100	0.030	0.490	283.290	-1.300	0.900																			1580081636.0	12.15	22.50
26/01/2020 23:33:57	26012020	260120	233357	283.200	12.280243	-56.571540	283.230	0.110	-0.220	0.300	283.170	-1.500	0.700																			1580081637.0	12.19	22.58
26/01/2020 23:33:58	26012020	260120	233358	283.100	12.280253	-56.571597	283.130	0.130	-0.480	0.090	283.080	-1.800	0.500																			1580081638.0	12.15	22.50
26/01/2020 23:33:59	26012020	260120	233359	283.030	12.280265	-56.571653	283.060	0.140	-0.750	-0.100	283.020	-2.100	0.300																			1580081639.0	12.12	22.45
26/01/2020 23:34:00	26012020	260120	233400	282.990	12.280277	-56.571708	283.040	0.120	-1.000	-0.220	282.990	-2.300	0.100	1015.30	26.00	26.10	21.10	21.10	-1.00	74.00	74.00	378.00	24.90	49.00	2.50	80.00	5.00	15	3950.00	27.50	27.50	1580081640.0	12.16	22.52
26/01/2020 23:34:01	26012020	260120	233401	283.050	12.280288	-56.571765	283.120	0.070	-1.080	-0.200	283.070	-2.400	0.200																			1580081641.0	12.26	22.71
26/01/2020 23:34:02	26012020	260120	233402	283.150	12.280302	-56.571822	283.210	-0.030	-0.850	-0.020	283.160	-2.200	0.300																			1580081642.0	12.28	22.74
26/01/2020 23:34:03	26012020	260120	233403	283.160	12.280315	-56.571878	283.180	-0.220	-0.280	0.250	283.140	-1.700	0.600																			1580081643.0	12.14	22.48
26/01/2020 23:34:04	26012020	260120	233404	283.040	12.280328	-56.571933	283.060	-0.430	0.370	0.440	283.020	-1.000	0.800																			1580081644.0	11.89	22.02
26/01/2020 23:34:05	26012020	260120	233405	282.950	12.280340	-56.571987	282.990	-0.550	0.670	0.480	282.940	-0.700	0.800																			1580081645.0	11.83	21.91
26/01/2020 23:34:06	26012020	260120	233406	282.980	12.280352	-56.572043	283.050	-0.470	0.450	0.360	283.000	-0.900	0.700																			1580081646.0	12.10	22.41
26/01/2020 23:34:07	26012020	260120	233407	283.070	12.280363	-56.572102	283.160	-0.230	-0.040	0.230	283.090	-1.300	0.600																			1580081647.0	12.50	23.15
26/01/2020 23:34:08	26012020	260120	233408	283.150	12.280375	-56.572160	283.200	0.040	-0.420	0.230	283.150	-1.700	0.600																			1580081648.0	12.60	23.34
26/01/2020 23:34:09	26012020	260120	233409	283.120	12.280387	-56.572217	283.150	0.240	-0.560	0.400	283.100	-1.900	0.700																			1580081649.0	12.34	22.85
26/01/2020 23:34:10	26012020	260120	233410	283.040	12.280400	-56.572272	283.070	0.400	-0.530	0.700	283.030	-1.900	1.000																			1580081650.0	12.04	22.30
26/01/2020 23:34:11	26012020	260120	233411	282.940	12.280413	-56.572327	282.980	0.580	-0.470	1.050	282.930	-1.800	1.400																			1580081651.0	11.94	22.11
26/01/2020 23:34:12	26012020	260120	233412	282.810	12.280428	-56.572382	282.830	0.730	-0.400	1.190	282.780	-1.800	1.500																			1580081652.0	11.98	22.19
26/01/2020 23:34:13	26012020	260120	233413	282.610	12.280443	-56.572437	282.620	0.710	-0.330	1.100	282.570	-1.700	1.500																			1580081653.0	12.08	22.37
26/01/2020 23:34:14	26012020	260120	233414	282.410	12.280457	-56.572492	282.410	0.450	-0.260	0.870	282.370	-1.600	1.300																			1580081654.0	12.11	22.43
26/01/2020 23:34:15	26012020	260120	233415	282.260	12.280470	-56.572548	282.290	-0.020	-0.200	0.520	282.250	-1.600	0.900																			1580081655.0	12.09	22.39
26/01/2020 23:34:16	26012020	260120	233416	282.230	12.280480	-56.572603	282.270	-0.500	-0.230	0.090	282.240	-1.600	0.500																			1580081656.0	12.09	22.39
26/01/2020 23:34:17	26012020	260120	233417	282.280	12.280490	-56.572660	282.340	-0.790	-0.340	-0.300	282.300	-1.700	0.100																			1580081657.0	12.18	22.56
26/01/2020 23:34:18	26012020	260120	233418	282.390	12.280497	-56.572718	282.460	-0.820	-0.430	-0.440	282.410	-1.800	-0.100																			1580081658.0	12.29	22.76
26/01/2020 23:34:19	26012020	260120	233419	282.500	12.280507	-56.572775	282.580	-0.620	-0.400	-0.150	282.530	-1.800	0.200																			1580081659.0	12.25	22.69
26/01/2020 23:34:20	26012020	260120	233420	282.630	12.280518	-56.572832	282.720	-0.260	-0.330	0.370	282.650	-1.700	0.700																			1580081660.0	12.12	22.45
26/01/2020 23:34:21	26012020	260120	233421	282.770	12.280532	-56.572887	282.870	0.130	-0.340	0.740	282.800	-1.700	1.100																			1580081661.0	12.11	22.43
26/01/2020 23:34:22	26012020	260120	233422	282.890	12.280545	-56.572943	282.970	0.410	-0.370	0.840	282.910	-1.700	1.200																			1580081662.0	12.25	22.69
26/01/2020 23:34:23	26012020	260120	233423	282.930	12.280558	-56.573000	282.980	0.480	-0.270	0.760	282.930	-1.600	1.100																			1580081663.0	12.26	22.71
26/01/2020 23:34:24	26012020	260120	233424	282.860	12.280570	-56.573055	282.880	0.350	-0.060	0.620	282.830	-1.400	1.000																			1580081664.0	12.10	22.41
26/01/2020 23:34:25	26012020	260120	233425	282.710	12.280582	-56.573112	282.710	0.120	0.100	0.460	282.670	-1.300	0.800																			1580081665.0	11.97	22.17
26/01/2020 23:34:26	26012020	260120	233426	282.500	12.280593	-56.573167	282.480	-0.040	0.120	0.330	282.450	-1.200	0.700																			1580081666.0	11.97	22.17
26/01/2020 23:34:27	26012020	260120	233427	282.240	12.280605	-56.573222	282.210	-0.080	-0.010	0.320	282.180	-1.400	0.700																			1580081667.0	12.07	22.35
26/01/2020 23:34:28	26012020	260120	233428	281.950	12.280617	-56.573278	281.930	-0.020	-0.210	0.430	281.890	-1.500	0.800																			1580081668.0	12.15	22.50
26/01/2020 23:34:29	26012020	260120	233429	281.700	12.280628	-56.573335	281.710	0.090	-0.470	0.590	281.660	-1.800	0.900																			1580081669.0	12.18	22.56
26/01/2020 23:34:30	26012020	260120	233430	281.560	12.280642	-56.573392	281.610	0.220	-0.740	0.750	281.550	-2.100	1.100																			1580081670.0	12.25	22.69
26/01/2020 23:34:31	26012020	260120	233431	281.560	12.280655	-56.573448	281.670	0.310	-0.910	0.860	281.580	-2.200	1.200																			1580081671.0	12.31	22.80
26/01/2020 23:34:32	26012020	260120	233432	281.740	12.280668	-56.573505	281.870	0.290	-0.840	0.890	281.780	-2.200	1.200																			1580081672.0	12.30	22.78
26/01/2020 23:34:33	26012020	260120	233433	281.990	12.280680	-56.573560	282.120	0.120	-0.560	0.850	282.040	-1.900	1.200																			1580081673.0	12.16	22.52
26/01/2020 23:34:34	26012020	260120	233434	282.210	12.280693	-56.573617	282.310	-0.200	-0.160	0.780	282.240	-1.600	1.100																			1580081674.0	12.03	22.28
26/01/2020 23:34:35	26012020	260120	233435	282.290	12.280703	-56.573672	282.360	-0.550	0.170	0.680	282.290	-1.200	1.100																			1580081675.0	11.98	22.19
26/01/2020 23:34:36	26012020	260120	233436	282.240	12.280713	-56.573728	282.280	-0.840	0.340	0.530	282.210	-1.000	0.900																			1580081676.0	12.03	22.28
26/01/2020 23:34:37	26012020	260120	233437	282.130	12.280722	-56.573785	282.170	-0.910	0.260	0.330	282.110	-1.100	0.700																			1580081677.0	12.13	22.46
26/01/2020 23:34:38	26012020	260120	233438	282.040	12.280728	-56.573842	282.090	-0.660	-0.040	0.200	282.030	-1.400	0.600																			1580081678.0	12.28	22.74
26/01/2020 23:34:39	26012020	260120	233439	281.970	12.280737	-56.573900	282.010	-0.150	-0.400	0.290	281.950	-1.700	0.600																			1580081679.0	12.41	22.98
26/01/2020 23:34:40	26012020	260120	233440	281.860	12.280748	-56.573957	281.900	0.450	-0.580	0.640	281.830	-1.900	1.000																			1580081680.0	12.40	22.96
26/01/2020 23:34:41	26012020	260120	233441	281.710	12.280762	-56.574013	281.750	0.890	-0.540	1.020	281.680	-1.900	1.300																			1580081681.0	12.22	22.63
26/01/2020 23:34:42	26012020	260120	233442	281.540	12.280777	-56.574068	281.580	1.020	-0.390	1.190	281.510	-1.800	1.500																			1580081682.0	12.04	22.30
26/01/2020 23:34:43	26012020	260120	233443	281.380	12.280790	-56.574123	281.370	0.820	-0.250	1.060	281.350	-1.600	1.400																			1580081683.0	11.96	22.15
26/01/2020 23:34:44	26012020	260120	233444	281.160	12.280803	-56.574178	281.200	0.380	-0.190	0.710	281.130	-1.500	1.100																			1580081684.0	11.95	22.13
26/01/2020 23:34:45	26012020	260120	233445	281.090	12.280813	-56.574233	281.170	-0.110	-0.260	0.250	281.090	-1.600	0.700																			1580081685.0	12.03	22.28
26/01/2020 23:34:46	26012020	260120	233446	281.150	12.280823	-56.574290	281.250	-0.470	-0.400	-0.170	281.170	-1.700	0.200																			1580081686.0	12.14	22.48
26/01/2020 23:34:47	26012020	260120	233447	281.300	12.280830	-56.574348	281.400	-0.580	-0.510	-0.380	281.330	-1.900	-0.000																			1580081687.0	12.28	22.74
26/01/2020 23:34:48	26012020	260120	233448	281.480	12.280840	-56.574407	281.590	-0.490	-0.490	-0.290	281.520	-1.900	0.100																			1580081688.0	12.32	22.82
26/01/2020 23:34:49	26012020	260120	233449	281.640	12.280850	-56.574463	281.740	-0.330	-0.350	0.010	281.660	-1.700	0.300																			1580081689.0	12.24	22.67
26/01/2020 23:34:50	26012020	260120	233450	281.760	12.280862	-56.574518	281.860	-0.200	-0.120	0.330	281.780	-1.500	0.700																			1580081690.0	12.15	22.50
26/01/2020 23:34:51	26012020	260120	233451	281.870	12.280873	-56.574575	281.980	-0.120	0.030	0.540	281.890	-1.300	0.900																			1580081691.0	12.07	22.35
26/01/2020 23:34:52	26012020	260120	233452	281.980	12.280883	-56.574632	282.090	-0.050	0.020	0.560	282.000	-1.300	0.900																			1580081692.0	12.10	22.41
26/01/2020 23:34:53	26012020	260120	233453	282.020	12.280895	-56.574688	282.090	0.030	-0.090	0.530	282.010	-1.400	0.900																			1580081693.0	12.19	22.58
26/01/2020 23:34:54	26012020	260120	233454	281.920	12.280905	-56.574745	281.960	0.080	-0.220	0.500	281.880	-1.600	0.900																			1580081694.0	12.20	22.59
26/01/2020 23:34:55	26012020	260120	233455	281.740	12.280917	-56.574800	281.770	0.080	-0.360	0.460	281.700	-1.700	0.800																			1580081695.0	12.13	22.46
26/01/2020 23:34:56	26012020	260120	233456	281.590	12.280928	-56.574857	281.640	0.080	-0.560	0.380	281.560	-1.900	0.700																			1580081696.0	12.11	22.43
26/01/2020 23:34:57	26012020	260120	233457	281.510	12.280938	-56.574913	281.560	0.150	-0.790	0.350	281.500	-2.100	0.700																			1580081697.0	12.23	22.65
26/01/2020 23:34:58	26012020	260120	233458	281.440	12.280950	-56.574970	281.500	0.240	-0.850	0.390	281.430	-2.200	0.700																			1580081698.0	12.36	22.89
26/01/2020 23:34:59	26012020	260120	233459	281.370	12.280962	-56.575028	281.420	0.190	-0.570	0.490	281.350	-2.000	0.800																			1580081699.0	12.33	22.84
26/01/2020 23:35:00	26012020	260120	233500	281.280	12.280973	-56.575083	281.360	-0.040	-0.040	0.550	281.280	-1.500	0.900	1015.30	26.00	26.10	21.20	21.20	-1.00	75.00	74.00	379.00	24.90	55.00	3.10	72.00	5.10	15	3909.00	27.50	27.50	1580081700.0	12.05	22.32
26/01/2020 23:35:01	26012020	260120	233501	281.300	12.280985	-56.575138	281.400	-0.300	0.380	0.480	281.310	-1.000	0.900																			1580081701.0	11.82	21.89
26/01/2020 23:35:02	26012020	260120	233502	281.430	12.280995	-56.575193	281.570	-0.400	0.420	0.260	281.480	-0.900	0.600																			1580081702.0	11.89	22.02
26/01/2020 23:35:03	26012020	260120	233503	281.690	12.281005	-56.575250	281.850	-0.280	0.130	0.010	281.750	-1.200	0.400																			1580081703.0	12.20	22.59
26/01/2020 23:35:04	26012020	260120	233504	282.040	12.281013	-56.575308	282.210	-0.040	-0.270	-0.090	282.110	-1.600	0.300																			1580081704.0	12.42	23.00
26/01/2020 23:35:05	26012020	260120	233505	282.390	12.281025	-56.575367	282.550	0.200	-0.550	0.070	282.450	-1.900	0.400																			1580081705.0	12.40	22.96
26/01/2020 23:35:06	26012020	260120	233506	282.630	12.281037	-56.575422	282.740	0.360	-0.620	0.420	282.650	-2.000	0.700																			1580081706.0	12.23	22.65
26/01/2020 23:35:07	26012020	260120	233507	282.640	12.281050	-56.575478	282.690	0.370	-0.560	0.720	282.610	-1.900	1.000																			1580081707.0	12.07	22.35
26/01/2020 23:35:08	26012020	260120	233508	282.420	12.281063	-56.575533	282.420	0.240	-0.430	0.820	282.350	-1.800	1.200																			1580081708.0	11.98	22.19
26/01/2020 23:35:09	26012020	260120	233509	282.090	12.281075	-56.575588	282.090	0.040	-0.320	0.670	282.030	-1.700	1.100																			1580081709.0	11.95	22.13
26/01/2020 23:35:10	26012020	260120	233510	281.820	12.281085	-56.575643	281.860	-0.110	-0.310	0.360	281.790	-1.700	0.800																			1580081710.0	12.03	22.28
26/01/2020 23:35:11	26012020	260120	233511	281.710	12.281093	-56.575702	281.770	-0.200	-0.370	0.060	281.700	-1.700	0.400																			1580081711.0	12.19	22.58
26/01/2020 23:35:12	26012020	260120	233512	281.700	12.281103	-56.575758	281.780	-0.260	-0.390	-0.100	281.710	-1.800	0.300																			1580081712.0	12.27	22.72
26/01/2020 23:35:13	26012020	260120	233513	281.760	12.281113	-56.575815	281.850	-0.330	-0.290	-0.070	281.780	-1.700	0.300																			1580081713.0	12.27	22.72
26/01/2020 23:35:14	26012020	260120	233514	281.880	12.281125	-56.575872	281.990	-0.360	-0.110	0.110	281.910	-1.500	0.400																			1580081714.0	12.13	22.46
26/01/2020 23:35:15	26012020	260120	233515	282.070	12.281137	-56.575927	282.200	-0.250	-0.060	0.280	282.110	-1.400	0.600																			1580081715.0	12.06	22.34
26/01/2020 23:35:16	26012020	260120	233516	282.260	12.281148	-56.575983	282.390	0.020	-0.210	0.430	282.300	-1.500	0.800																			1580081716.0	12.20	22.59
26/01/2020 23:35:17	26012020	260120	233517	282.410	12.281160	-56.576042	282.520	0.320	-0.380	0.580	282.430	-1.700	0.900																			1580081717.0	12.41	22.98
26/01/2020 23:35:18	26012020	260120	233518	282.490	12.281173	-56.576098	282.590	0.480	-0.340	0.700	282.510	-1.700	1.000																			1580081718.0	12.39	22.95
26/01/2020 23:35:19	26012020	260120	233519	282.520	12.281185	-56.576153	282.590	0.390	-0.080	0.660	282.520	-1.500	1.000																			1580081719.0	12.10	22.41
26/01/2020 23:35:20	26012020	260120	233520	282.480	12.281198	-56.576208	282.530	0.120	0.090	0.370	282.460	-1.300	0.800																			1580081720.0	11.82	21.89
26/01/2020 23:35:21	26012020	260120	233521	282.430	12.281208	-56.576263	282.480	-0.150	-0.050	-0.040	282.420	-1.400	0.400																			1580081721.0	11.86	21.96
26/01/2020 23:35:22	26012020	260120	233522	282.410	12.281218	-56.576320	282.480	-0.290	-0.420	-0.360	282.410	-1.700	0.000																			1580081722.0	12.17	22.54
26/01/2020 23:35:23	26012020	260120	233523	282.430	12.281228	-56.576378	282.500	-0.260	-0.700	-0.440	282.430	-2.000	-0.100																			1580081723.0	12.40	22.96
26/01/2020 23:35:24	26012020	260120	233524	282.420	12.281238	-56.576435	282.480	-0.140	-0.720	-0.220	282.410	-2.100	0.100																			1580081724.0	12.35	22.87
26/01/2020 23:35:25	26012020	260120	233525	282.350	12.281248	-56.576492	282.400	-0.010	-0.500	0.130	282.330	-1.900	0.400																			1580081725.0	12.14	22.48
26/01/2020 23:35:26	26012020	260120	233526	282.260	12.281260	-56.576547	282.310	0.100	-0.200	0.480	282.240	-1.600	0.800																			1580081726.0	11.98	22.19
26/01/2020 23:35:27	26012020	260120	233527	282.200	12.281273	-56.576602	282.270	0.170	-0.040	0.720	282.190	-1.400	1.100																			1580081727.0	11.96	22.15
26/01/2020 23:35:28	26012020	260120	233528	282.180	12.281287	-56.576658	282.260	0.180	-0.060	0.740	282.180	-1.400	1.100																			1580081728.0	12.11	22.43
26/01/2020 23:35:29	26012020	260120	233529	282.170	12.281300	-56.576713	282.250	0.100	-0.150	0.600	282.170	-1.500	1.000																			1580081729.0	12.24	22.67
26/01/2020 23:35:30	26012020	260120	233530	282.150	12.281312	-56.576770	282.220	-0.040	-0.220	0.390	282.150	-1.600	0.800																			1580081730.0	12.25	22.69
26/01/2020 23:35:31	26012020	260120	233531	282.170	12.281323	-56.576827	282.250	-0.180	-0.260	0.140	282.170	-1.600	0.500																			1580081731.0	12.15	22.50
26/01/2020 23:35:32	26012020	260120	233532	282.250	12.281332	-56.576883	282.350	-0.200	-0.380	-0.050	282.270	-1.700	0.300																			1580081732.0	12.12	22.45
26/01/2020 23:35:33	26012020	260120	233533	282.360	12.281342	-56.576940	282.500	-0.060	-0.550	-0.100	282.390	-1.900	0.300																			1580081733.0	12.24	22.67
26/01/2020 23:35:34	26012020	260120	233534	282.560	12.281353	-56.576998	282.680	0.140	-0.600	0.080	282.600	-2.000	0.400																			1580081734.0	12.35	22.87
26/01/2020 23:35:35	26012020	260120	233535	282.710	12.281365	-56.577055	282.810	0.240	-0.380	0.410	282.730	-1.800	0.700																			1580081735.0	12.27	22.72
26/01/2020 23:35:36	26012020	260120	233536	282.750	12.281380	-56.577110	282.820	0.130	0.030	0.740	282.740	-1.400	1.100																			1580081736.0	12.01	22.24
26/01/2020 23:35:37	26012020	260120	233537	282.640	12.281393	-56.577163	282.660	-0.140	0.280	0.830	282.600	-1.100	1.200																			1580081737.0	11.77	21.80
26/01/2020 23:35:38	26012020	260120	233538	282.440	12.281405	-56.577218	282.470	-0.370	0.130	0.590	282.410	-1.200	1.000																			1580081738.0	11.86	21.96
26/01/2020 23:35:39	26012020	260120	233539	282.320	12.281415	-56.577275	282.370	-0.370	-0.330	0.260	282.310	-1.600	0.700																			1580081739.0	12.22	22.63
26/01/2020 23:35:40	26012020	260120	233540	282.330	12.281423	-56.577333	282.410	-0.120	-0.760	0.050	282.340	-2.100	0.400																			1580081740.0	12.53	23.21
26/01/2020 23:35:41	26012020	260120	233541	282.430	12.281433	-56.577392	282.520	0.220	-0.880	0.090	282.450	-2.200	0.400																			1580081741.0	12.47	23.09
26/01/2020 23:35:42	26012020	260120	233542	282.530	12.281445	-56.577448	282.620	0.480	-0.680	0.320	282.550	-2.100	0.700																			1580081742.0	12.24	22.67
26/01/2020 23:35:43	26012020	260120	233543	282.570	12.281458	-56.577503	282.620	0.510	-0.310	0.610	282.560	-1.700	0.900																			1580081743.0	12.04	22.30
26/01/2020 23:35:44	26012020	260120	233544	282.520	12.281473	-56.577558	282.560	0.310	0.090	0.830	282.500	-1.300	1.200																			1580081744.0	11.96	22.15
26/01/2020 23:35:45	26012020	260120	233545	282.430	12.281487	-56.577613	282.440	-0.020	0.390	0.830	282.410	-1.000	1.200																			1580081745.0	11.90	22.04
26/01/2020 23:35:46	26012020	260120	233546	282.310	12.281498	-56.577668	282.350	-0.330	0.400	0.500	282.290	-0.900	0.900																			1580081746.0	11.89	22.02
26/01/2020 23:35:47	26012020	260120	233547	282.280	12.281508	-56.577723	282.360	-0.450	-0.030	-0.010	282.290	-1.300	0.400																			1580081747.0	12.06	22.34
26/01/2020 23:35:48	26012020	260120	233548	282.440	12.281517	-56.577782	282.550	-0.320	-0.730	-0.440	282.490	-2.000	-0.000																			1580081748.0	12.46	23.08
26/01/2020 23:35:49	26012020	260120	233549	282.740	12.281525	-56.577842	282.860	-0.020	-1.220	-0.520	282.800	-2.600	-0.200																			1580081749.0	12.74	23.59
26/01/2020 23:35:50	26012020	260120	233550	283.010	12.281537	-56.577900	283.100	0.270	-1.120	-0.170	283.050	-2.500	0.100																			1580081750.0	12.56	23.26
26/01/2020 23:35:51	26012020	260120	233551	283.090	12.281550	-56.577955	283.130	0.360	-0.490	0.370	283.080	-1.900	0.700																			1580081751.0	12.06	22.34
26/01/2020 23:35:52	26012020	260120	233552	282.950	12.281563	-56.578008	282.960	0.210	0.240	0.840	282.910	-1.200	1.200																			1580081752.0	11.65	21.58
26/01/2020 23:35:53	26012020	260120	233553	282.700	12.281578	-56.578062	282.690	-0.100	0.620	0.950	282.640	-0.800	1.300																			1580081753.0	11.59	21.46
26/01/2020 23:35:54	26012020	260120	233554	282.430	12.281590	-56.578117	282.450	-0.360	0.480	0.700	282.390	-0.900	1.100																			1580081754.0	11.86	21.96
26/01/2020 23:35:55	26012020	260120	233555	282.280	12.281600	-56.578173	282.330	-0.380	-0.030	0.260	282.270	-1.300	0.700																			1580081755.0	12.26	22.71
26/01/2020 23:35:56	26012020	260120	233556	282.310	12.281608	-56.578232	282.400	-0.110	-0.610	-0.090	282.340	-1.900	0.300																			1580081756.0	12.53	23.21
26/01/2020 23:35:57	26012020	260120	233557	282.510	12.281618	-56.578290	282.620	0.290	-1.020	-0.190	282.560	-2.300	0.200																			1580081757.0	12.58	23.30
26/01/2020 23:35:58	26012020	260120	233558	282.740	12.281632	-56.578348	282.840	0.590	-1.020	0.050	282.780	-2.400	0.400																			1580081758.0	12.47	23.09
26/01/2020 23:35:59	26012020	260120	233559	282.880	12.281645	-56.578403	282.940	0.620	-0.580	0.460	282.880	-2.000	0.800																			1580081759.0	12.15	22.50
26/01/2020 23:36:00	26012020	260120	233600	282.840	12.281660	-56.578458	282.860	0.340	0.010	0.790	282.810	-1.400	1.100	1015.20	26.00	26.10	21.20	21.20	-1.00	74.00	74.00	378.00	24.90	56.00	3.40	69.00	5.20	15	3838.00	27.50	27.50	1580081760.0	11.80	21.85
26/01/2020 23:36:01	26012020	260120	233601	282.640	12.281673	-56.578512	282.640	-0.120	0.370	0.790	282.590	-1.000	1.200																			1580081761.0	11.64	21.56
26/01/2020 23:36:02	26012020	260120	233602	282.410	12.281685	-56.578567	282.420	-0.520	0.300	0.470	282.370	-1.000	0.900																			1580081762.0	11.83	21.91
26/01/2020 23:36:03	26012020	260120	233603	282.320	12.281693	-56.578623	282.390	-0.650	-0.160	0.060	282.330	-1.500	0.500																			1580081763.0	12.19	22.58
26/01/2020 23:36:04	26012020	260120	233604	282.460	12.281703	-56.578682	282.570	-0.440	-0.770	-0.260	282.520	-2.100	0.100																			1580081764.0	12.56	23.26
26/01/2020 23:36:05	26012020	260120	233605	282.760	12.281713	-56.578742	282.880	-0.030	-1.090	-0.300	282.820	-2.400	0.000																			1580081765.0	12.73	23.58
26/01/2020 23:36:06	26012020	260120	233606	283.010	12.281723	-56.578798	283.100	0.250	-0.770	0.010	283.040	-2.200	0.300																			1580081766.0	12.51	23.17
26/01/2020 23:36:07	26012020	260120	233607	283.060	12.281738	-56.578853	283.100	0.220	0.030	0.480	283.050	-1.400	0.800																			1580081767.0	11.92	22.08
26/01/2020 23:36:08	26012020	260120	233608	282.940	12.281752	-56.578905	282.960	-0.040	0.710	0.820	282.910	-0.700	1.200																			1580081768.0	11.43	21.17
26/01/2020 23:36:09	26012020	260120	233609	282.790	12.281763	-56.578958	282.820	-0.190	0.750	0.800	282.760	-0.600	1.200																			1580081769.0	11.47	21.24
26/01/2020 23:36:10	26012020	260120	233610	282.690	12.281775	-56.579013	282.730	-0.030	0.090	0.520	282.670	-1.200	0.900																			1580081770.0	12.02	22.26
26/01/2020 23:36:11	26012020	260120	233611	282.650	12.281785	-56.579073	282.700	0.390	-0.760	0.230	282.650	-2.000	0.600																			1580081771.0	12.61	23.35
26/01/2020 23:36:12	26012020	260120	233612	282.670	12.281797	-56.579132	282.720	0.740	-1.210	0.180	282.670	-2.500	0.500																			1580081772.0	12.76	23.63
26/01/2020 23:36:13	26012020	260120	233613	282.660	12.281810	-56.579188	282.690	0.740	-1.000	0.400	282.650	-2.400	0.700																			1580081773.0	12.35	22.87
26/01/2020 23:36:14	26012020	260120	233614	282.570	12.281825	-56.579243	282.580	0.340	-0.410	0.610	282.540	-1.800	0.900																			1580081774.0	11.77	21.80
26/01/2020 23:36:15	26012020	260120	233615	282.400	12.281838	-56.579295	282.400	-0.230	0.060	0.570	282.360	-1.300	0.900																			1580081775.0	11.52	21.34
26/01/2020 23:36:16	26012020	260120	233616	282.220	12.281850	-56.579350	282.220	-0.670	0.090	0.260	282.190	-1.300	0.700																			1580081776.0	11.69	21.65
26/01/2020 23:36:17	26012020	260120	233617	282.150	12.281858	-56.579407	282.190	-0.770	-0.300	-0.070	282.150	-1.600	0.300																			1580081777.0	12.21	22.61
26/01/2020 23:36:18	26012020	260120	233618	282.260	12.281867	-56.579465	282.340	-0.530	-0.750	-0.230	282.300	-2.100	0.100																			1580081778.0	12.66	23.45
26/01/2020 23:36:19	26012020	260120	233619	282.500	12.281877	-56.579525	282.590	-0.160	-0.820	-0.080	282.550	-2.200	0.200																			1580081779.0	12.72	23.56
26/01/2020 23:36:20	26012020	260120	233620	282.690	12.281888	-56.579582	282.750	0.120	-0.400	0.300	282.710	-1.800	0.600																			1580081780.0	12.35	22.87
26/01/2020 23:36:21	26012020	260120	233621	282.740	12.281902	-56.579637	282.780	0.160	0.200	0.700	282.740	-1.200	1.000																			1580081781.0	11.91	22.06
26/01/2020 23:36:22	26012020	260120	233622	282.710	12.281917	-56.579690	282.750	0.050	0.530	0.910	282.710	-0.800	1.300																			1580081782.0	11.72	21.71
26/01/2020 23:36:23	26012020	260120	233623	282.680	12.281928	-56.579745	282.700	-0.050	0.450	0.820	282.670	-0.900	1.200																			1580081783.0	11.92	22.08
26/01/2020 23:36:24	26012020	260120	233624	282.590	12.281940	-56.579802	282.590	-0.030	0.120	0.590	282.560	-1.200	1.000																			1580081784.0	12.18	22.56
26/01/2020 23:36:25	26012020	260120	233625	282.440	12.281950	-56.579858	282.440	0.110	-0.280	0.420	282.410	-1.600	0.800																			1580081785.0	12.27	22.72
26/01/2020 23:36:26	26012020	260120	233626	282.310	12.281962	-56.579915	282.320	0.350	-0.650	0.400	282.300	-2.000	0.700																			1580081786.0	12.25	22.69
26/01/2020 23:36:27	26012020	260120	233627	282.260	12.281973	-56.579972	282.290	0.580	-0.860	0.560	282.250	-2.200	0.900																			1580081787.0	12.20	22.59
26/01/2020 23:36:28	26012020	260120	233628	282.240	12.281987	-56.580027	282.260	0.630	-0.770	0.800	282.220	-2.100	1.100																			1580081788.0	12.08	22.37
26/01/2020 23:36:29	26012020	260120	233629	282.190	12.282002	-56.580082	282.210	0.420	-0.500	0.900	282.170	-1.900	1.300																			1580081789.0	11.88	22.00
26/01/2020 23:36:30	26012020	260120	233630	282.150	12.282015	-56.580135	282.200	0.060	-0.300	0.700	282.160	-1.700	1.100																			1580081790.0	11.79	21.84
26/01/2020 23:36:31	26012020	260120	233631	282.240	12.282025	-56.580192	282.320	-0.240	-0.320	0.260	282.280	-1.700	0.700																			1580081791.0	11.97	22.17
26/01/2020 23:36:32	26012020	260120	233632	282.470	12.282035	-56.580248	282.570	-0.320	-0.490	-0.190	282.530	-1.800	0.200																			1580081792.0	12.31	22.80
26/01/2020 23:36:33	26012020	260120	233633	282.740	12.282043	-56.580307	282.820	-0.290	-0.500	-0.420	282.790	-1.900	-0.100																			1580081793.0	12.54	23.22
26/01/2020 23:36:34	26012020	260120	233634	282.940	12.282053	-56.580365	282.990	-0.340	-0.170	-0.300	282.970	-1.600	0.000																			1580081794.0	12.38	22.93
26/01/2020 23:36:35	26012020	260120	233635	283.010	12.282065	-56.580420	283.040	-0.520	0.300	-0.030	283.010	-1.100	0.300																			1580081795.0	11.95	22.13
26/01/2020 23:36:36	26012020	260120	233636	282.980	12.282077	-56.580475	283.000	-0.640	0.400	0.210	282.970	-0.900	0.600																			1580081796.0	11.72	21.71
26/01/2020 23:36:37	26012020	260120	233637	282.920	12.282087	-56.580530	282.940	-0.470	-0.060	0.390	282.910	-1.400	0.700																			1580081797.0	12.05	22.32
26/01/2020 23:36:38	26012020	260120	233638	282.890	12.282098	-56.580588	282.930	0.000	-0.690	0.530	282.880	-2.000	0.900																			1580081798.0	12.59	23.32
26/01/2020 23:36:39	26012020	260120	233639	282.830	12.282112	-56.580647	282.840	0.480	-0.880	0.740	282.810	-2.200	1.100																			1580081799.0	12.74	23.59
26/01/2020 23:36:40	26012020	260120	233640	282.620	12.282127	-56.580703	282.590	0.640	-0.450	0.930	282.550	-1.900	1.300																			1580081800.0	12.26	22.71
26/01/2020 23:36:41	26012020	260120	233641	282.280	12.282140	-56.580757	282.240	0.470	0.160	0.960	282.210	-1.300	1.300																			1580081801.0	11.64	21.56
26/01/2020 23:36:42	26012020	260120	233642	281.970	12.282152	-56.580810	281.960	0.210	0.360	0.720	281.930	-1.000	1.100																			1580081802.0	11.44	21.19
26/01/2020 23:36:43	26012020	260120	233643	281.860	12.282163	-56.580863	281.900	0.110	-0.000	0.280	281.860	-1.300	0.700																			1580081803.0	11.86	21.96
26/01/2020 23:36:44	26012020	260120	233644	281.950	12.282175	-56.580922	282.030	0.190	-0.580	-0.150	281.990	-1.900	0.300																			1580081804.0	12.41	22.98
26/01/2020 23:36:45	26012020	260120	233645	282.170	12.282185	-56.580980	282.270	0.280	-0.910	-0.350	282.230	-2.300	0.000																			1580081805.0	12.60	23.34
26/01/2020 23:36:46	26012020	260120	233646	282.430	12.282197	-56.581038	282.520	0.200	-0.800	-0.300	282.480	-2.200	0.000																			1580081806.0	12.37	22.91
26/01/2020 23:36:47	26012020	260120	233647	282.640	12.282208	-56.581093	282.730	-0.060	-0.420	-0.110	282.680	-1.800	0.200																			1580081807.0	11.98	22.19
26/01/2020 23:36:48	26012020	260120	233648	282.790	12.282220	-56.581147	282.860	-0.380	-0.060	0.070	282.810	-1.500	0.400																			1580081808.0	11.79	21.84
26/01/2020 23:36:49	26012020	260120	233649	282.890	12.282232	-56.581202	282.950	-0.600	0.020	0.190	282.900	-1.300	0.500																			1580081809.0	11.87	21.98
26/01/2020 23:36:50	26012020	260120	233650	282.940	12.282243	-56.581258	282.990	-0.600	-0.160	0.210	282.940	-1.500	0.600																			1580081810.0	12.18	22.56
26/01/2020 23:36:51	26012020	260120	233651	282.890	12.282253	-56.581317	282.920	-0.430	-0.350	0.230	282.870	-1.700	0.600																			1580081811.0	12.45	23.06
26/01/2020 23:36:52	26012020	260120	233652	282.740	12.282263	-56.581375	282.730	-0.220	-0.310	0.370	282.690	-1.700	0.700																			1580081812.0	12.41	22.98
26/01/2020 23:36:53	26012020	260120	233653	282.520	12.282275	-56.581430	282.510	-0.070	-0.130	0.600	282.470	-1.500	0.900																			1580081813.0	12.10	22.41
26/01/2020 23:36:54	26012020	260120	233654	282.320	12.282287	-56.581485	282.330	0.060	-0.060	0.760	282.280	-1.400	1.100																			1580081814.0	11.91	22.06
26/01/2020 23:36:55	26012020	260120	233655	282.200	12.282300	-56.581542	282.250	0.260	-0.260	0.720	282.200	-1.600	1.100																			1580081815.0	12.00	22.22
26/01/2020 23:36:56	26012020	260120	233656	282.200	12.282313	-56.581598	282.250	0.520	-0.590	0.510	282.210	-1.900	0.900																			1580081816.0	12.31	22.80
26/01/2020 23:36:57	26012020	260120	233657	282.220	12.282327	-56.581655	282.260	0.690	-0.690	0.380	282.220	-2.100	0.700																			1580081817.0	12.49	23.13
26/01/2020 23:36:58	26012020	260120	233658	282.180	12.282340	-56.581712	282.200	0.560	-0.340	0.440	282.160	-1.800	0.800																			1580081818.0	12.28	22.74
26/01/2020 23:36:59	26012020	260120	233659	282.080	12.282352	-56.581765	282.090	0.160	0.220	0.580	282.060	-1.200	0.900																			1580081819.0	11.80	21.85
26/01/2020 23:37:00	26012020	260120	233700	281.990	12.282365	-56.581818	282.030	-0.260	0.450	0.630	281.980	-0.900	1.000	1015.30	26.00	26.00	21.10	21.10	-1.00	74.00	74.00	379.00	24.90	50.00	3.20	73.00	4.80	15	3885.00	27.50	27.50	1580081820.0	11.55	21.39
26/01/2020 23:37:01	26012020	260120	233701	282.010	12.282375	-56.581873	282.090	-0.420	0.090	0.510	282.030	-1.200	0.900																			1580081821.0	11.84	21.93
26/01/2020 23:37:02	26012020	260120	233702	282.200	12.282387	-56.581932	282.310	-0.270	-0.580	0.260	282.260	-1.900	0.700																			1580081822.0	12.41	22.98
26/01/2020 23:37:03	26012020	260120	233703	282.490	12.282397	-56.581990	282.600	-0.010	-1.000	0.110	282.540	-2.300	0.500																			1580081823.0	12.70	23.52
26/01/2020 23:37:04	26012020	260120	233704	282.720	12.282407	-56.582048	282.790	0.090	-0.880	0.180	282.750	-2.300	0.500																			1580081824.0	12.41	22.98
26/01/2020 23:37:05	26012020	260120	233705	282.820	12.282418	-56.582103	282.870	-0.030	-0.480	0.340	282.830	-1.900	0.700																			1580081825.0	11.94	22.11
26/01/2020 23:37:06	26012020	260120	233706	282.840	12.282430	-56.582158	282.890	-0.200	-0.180	0.450	282.840	-1.600	0.800																			1580081826.0	11.77	21.80
26/01/2020 23:37:07	26012020	260120	233707	282.830	12.282440	-56.582213	282.860	-0.260	-0.090	0.480	282.820	-1.500	0.800																			1580081827.0	11.99	22.21
26/01/2020 23:37:08	26012020	260120	233708	282.750	12.282452	-56.582270	282.760	-0.190	-0.130	0.510	282.720	-1.500	0.900																			1580081828.0	12.27	22.72
26/01/2020 23:37:09	26012020	260120	233709	282.610	12.282463	-56.582328	282.620	-0.090	-0.130	0.550	282.580	-1.500	0.900																			1580081829.0	12.34	22.85
26/01/2020 23:37:10	26012020	260120	233710	282.470	12.282475	-56.582385	282.480	-0.030	-0.120	0.590	282.440	-1.500	0.900																			1580081830.0	12.24	22.67
26/01/2020 23:37:11	26012020	260120	233711	282.320	12.282487	-56.582440	282.310	0.010	-0.130	0.660	282.280	-1.500	1.000																			1580081831.0	12.15	22.50
26/01/2020 23:37:12	26012020	260120	233712	282.120	12.282500	-56.582497	282.110	0.070	-0.160	0.750	282.080	-1.500	1.100																			1580081832.0	12.13	22.46
26/01/2020 23:37:13	26012020	260120	233713	281.940	12.282512	-56.582552	281.900	0.150	-0.190	0.880	281.910	-1.600	1.200																			1580081833.0	12.12	22.45
26/01/2020 23:37:14	26012020	260120	233714	281.760	12.282525	-56.582608	281.790	0.210	-0.220	0.930	281.750	-1.600	1.300																			1580081834.0	12.06	22.34
26/01/2020 23:37:15	26012020	260120	233715	281.770	12.282537	-56.582663	281.850	0.280	-0.320	0.790	281.800	-1.700	1.200																			1580081835.0	12.04	22.30
26/01/2020 23:37:16	26012020	260120	233716	281.950	12.282548	-56.582720	282.060	0.360	-0.490	0.510	282.000	-1.800	0.900																			1580081836.0	12.13	22.46
26/01/2020 23:37:17	26012020	260120	233717	282.240	12.282560	-56.582777	282.330	0.370	-0.560	0.290	282.290	-1.900	0.700																			1580081837.0	12.22	22.63
26/01/2020 23:37:18	26012020	260120	233718	282.470	12.282572	-56.582833	282.540	0.230	-0.410	0.250	282.500	-1.800	0.600																			1580081838.0	12.19	22.58
26/01/2020 23:37:19	26012020	260120	233719	282.580	12.282583	-56.582888	282.620	-0.080	-0.110	0.310	282.590	-1.500	0.700																			1580081839.0	11.97	22.17
26/01/2020 23:37:20	26012020	260120	233720	282.600	12.282595	-56.582943	282.630	-0.420	0.020	0.340	282.600	-1.300	0.700																			1580081840.0	11.83	21.91
26/01/2020 23:37:21	26012020	260120	233721	282.600	12.282605	-56.582998	282.650	-0.610	-0.200	0.240	282.610	-1.500	0.600																			1580081841.0	11.99	22.21
26/01/2020 23:37:22	26012020	260120	233722	282.650	12.282613	-56.583057	282.710	-0.520	-0.660	0.140	282.660	-2.000	0.500																			1580081842.0	12.40	22.96
26/01/2020 23:37:23	26012020	260120	233723	282.710	12.282623	-56.583115	282.750	-0.230	-0.950	0.280	282.710	-2.300	0.600																			1580081843.0	12.65	23.43
26/01/2020 23:37:24	26012020	260120	233724	282.650	12.282635	-56.583173	282.660	0.030	-0.760	0.650	282.620	-2.200	1.000																			1580081844.0	12.52	23.19
26/01/2020 23:37:25	26012020	260120	233725	282.440	12.282647	-56.583228	282.420	0.070	-0.220	0.930	282.380	-1.600	1.300																			1580081845.0	12.08	22.37
26/01/2020 23:37:26	26012020	260120	233726	282.170	12.282660	-56.583283	282.150	-0.040	0.220	0.920	282.120	-1.200	1.300																			1580081846.0	11.77	21.80
26/01/2020 23:37:27	26012020	260120	233727	281.990	12.282672	-56.583338	281.960	-0.090	0.270	0.720	281.950	-1.100	1.100																			1580081847.0	11.92	22.08
26/01/2020 23:37:28	26012020	260120	233728	281.830	12.282683	-56.583395	281.850	0.010	0.090	0.540	281.820	-1.300	0.900																			1580081848.0	12.31	22.80
26/01/2020 23:37:29	26012020	260120	233729	281.760	12.282695	-56.583453	281.780	0.150	0.010	0.490	281.750	-1.400	0.900																			1580081849.0	12.44	23.04
26/01/2020 23:37:30	26012020	260120	233730	281.700	12.282707	-56.583510	281.730	0.230	0.020	0.580	281.690	-1.300	0.900																			1580081850.0	12.19	22.58
26/01/2020 23:37:31	26012020	260120	233731	281.690	12.282720	-56.583565	281.760	0.280	-0.130	0.670	281.710	-1.500	1.000																			1580081851.0	11.98	22.19
26/01/2020 23:37:32	26012020	260120	233732	281.840	12.282732	-56.583620	281.950	0.340	-0.500	0.640	281.890	-1.800	1.000																			1580081852.0	12.07	22.35
26/01/2020 23:37:33	26012020	260120	233733	282.120	12.282745	-56.583677	282.250	0.360	-0.820	0.520	282.190	-2.200	0.900																			1580081853.0	12.27	22.72
26/01/2020 23:37:34	26012020	260120	233734	282.410	12.282757	-56.583733	282.510	0.220	-0.820	0.390	282.450	-2.200	0.800																			1580081854.0	12.24	22.67
26/01/2020 23:37:35	26012020	260120	233735	282.580	12.282767	-56.583788	282.640	-0.080	-0.570	0.310	282.600	-2.000	0.700																			1580081855.0	11.95	22.13
26/01/2020 23:37:36	26012020	260120	233736	282.630	12.282777	-56.583843	282.670	-0.420	-0.330	0.330	282.620	-1.700	0.700																			1580081856.0	11.81	21.87
26/01/2020 23:37:37	26012020	260120	233737	282.550	12.282787	-56.583900	282.560	-0.600	-0.280	0.460	282.520	-1.600	0.800																			1580081857.0	11.98	22.19
26/01/2020 23:37:38	26012020	260120	233738	282.360	12.282797	-56.583957	282.350	-0.520	-0.350	0.660	282.310	-1.700	1.000																			1580081858.0	12.28	22.74
26/01/2020 23:37:39	26012020	260120	233739	282.130	12.282807	-56.584015	282.130	-0.210	-0.340	0.900	282.080	-1.700	1.200																			1580081859.0	12.48	23.11
26/01/2020 23:37:40	26012020	260120	233740	281.970	12.282818	-56.584072	282.010	0.150	-0.180	1.130	281.950	-1.600	1.500																			1580081860.0	12.42	23.00
26/01/2020 23:37:41	26012020	260120	233741	281.900	12.282833	-56.584128	281.940	0.340	0.010	1.200	281.880	-1.400	1.600																			1580081861.0	12.28	22.74
26/01/2020 23:37:42	26012020	260120	233742	281.800	12.282847	-56.584185	281.820	0.230	0.160	0.990	281.770	-1.200	1.400																			1580081862.0	12.17	22.54
26/01/2020 23:37:43	26012020	260120	233743	281.670	12.282858	-56.584240	281.690	-0.070	0.210	0.570	281.650	-1.200	1.000																			1580081863.0	12.06	22.34
26/01/2020 23:37:44	26012020	260120	233744	281.610	12.282868	-56.584297	281.670	-0.350	0.080	0.060	281.630	-1.300	0.500																			1580081864.0	11.98	22.19
26/01/2020 23:37:45	26012020	260120	233745	281.720	12.282875	-56.584352	281.810	-0.380	-0.290	-0.290	281.760	-1.600	0.100																			1580081865.0	12.05	22.32
26/01/2020 23:37:46	26012020	260120	233746	281.920	12.282883	-56.584410	282.030	-0.120	-0.760	-0.240	281.970	-2.100	0.100																			1580081866.0	12.26	22.71
26/01/2020 23:37:47	26012020	260120	233747	282.170	12.282893	-56.584467	282.280	0.320	-1.020	0.140	282.220	-2.400	0.500																			1580081867.0	12.36	22.89
26/01/2020 23:37:48	26012020	260120	233748	282.390	12.282907	-56.584523	282.480	0.650	-0.880	0.650	282.420	-2.300	1.000																			1580081868.0	12.26	22.71
26/01/2020 23:37:49	26012020	260120	233749	282.460	12.282922	-56.584578	282.510	0.670	-0.410	1.050	282.450	-1.800	1.400																			1580081869.0	11.99	22.21
26/01/2020 23:37:50	26012020	260120	233750	282.370	12.282937	-56.584632	282.400	0.340	0.130	1.120	282.340	-1.300	1.500																			1580081870.0	11.78	21.82
26/01/2020 23:37:51	26012020	260120	233751	282.240	12.282948	-56.584687	282.220	-0.170	0.430	0.800	282.210	-1.000	1.200																			1580081871.0	11.72	21.71
26/01/2020 23:37:52	26012020	260120	233752	282.050	12.282958	-56.584742	282.070	-0.560	0.270	0.290	282.040	-1.100	0.700																			1580081872.0	11.92	22.08
26/01/2020 23:37:53	26012020	260120	233753	282.020	12.282967	-56.584800	282.070	-0.630	-0.250	-0.220	282.030	-1.500	0.200																			1580081873.0	12.35	22.87
26/01/2020 23:37:54	26012020	260120	233754	282.110	12.282975	-56.584858	282.190	-0.400	-0.750	-0.480	282.150	-2.100	-0.100																			1580081874.0	12.67	23.46
26/01/2020 23:37:55	26012020	260120	233755	282.300	12.282983	-56.584918	282.370	-0.060	-0.930	-0.280	282.330	-2.300	0.000																			1580081875.0	12.61	23.35
26/01/2020 23:37:56	26012020	260120	233756	282.440	12.282995	-56.584975	282.510	0.190	-0.700	0.210	282.470	-2.100	0.500																			1580081876.0	12.30	22.78
26/01/2020 23:37:57	26012020	260120	233757	282.470	12.283010	-56.585030	282.480	0.220	-0.250	0.690	282.440	-1.700	1.000																			1580081877.0	11.95	22.13
26/01/2020 23:37:58	26012020	260120	233758	282.310	12.283023	-56.585083	282.310	0.050	0.140	0.930	282.270	-1.300	1.300																			1580081878.0	11.75	21.76
26/01/2020 23:37:59	26012020	260120	233759	282.090	12.283035	-56.585137	282.080	-0.130	0.210	0.860	282.050	-1.100	1.200																			1580081879.0	11.78	21.82
26/01/2020 23:38:00	26012020	260120	233800	281.890	12.283047	-56.585193	281.900	-0.120	-0.090	0.640	281.870	-1.400	1.000	1015.30	26.00	26.10	21.20	21.20	-1.00	75.00	74.00	379.00	24.90	39.00	3.10	75.00	4.30	15	3869.00	27.50	27.50	1580081880.0	12.07	22.35
26/01/2020 23:38:01	26012020	260120	233801	281.800	12.283057	-56.585252	281.820	0.070	-0.490	0.460	281.780	-1.800	0.800																			1580081881.0	12.42	23.00
26/01/2020 23:38:02	26012020	260120	233802	281.810	12.283067	-56.585310	281.870	0.240	-0.640	0.350	281.830	-2.000	0.700																			1580081882.0	12.49	23.13
26/01/2020 23:38:03	26012020	260120	233803	281.920	12.283078	-56.585365	282.040	0.220	-0.470	0.350	281.950	-1.900	0.700																			1580081883.0	12.23	22.65
26/01/2020 23:38:04	26012020	260120	233804	282.170	12.283092	-56.585422	282.270	0.070	-0.200	0.400	282.220	-1.600	0.800																			1580081884.0	11.94	22.11
26/01/2020 23:38:05	26012020	260120	233805	282.410	12.283103	-56.585477	282.480	-0.090	-0.030	0.540	282.440	-1.400	0.900																			1580081885.0	11.91	22.06
26/01/2020 23:38:06	26012020	260120	233806	282.560	12.283115	-56.585532	282.630	-0.160	-0.010	0.690	282.580	-1.400	1.000																			1580081886.0	12.04	22.30
26/01/2020 23:38:07	26012020	260120	233807	282.630	12.283127	-56.585588	282.660	-0.130	-0.050	0.840	282.620	-1.400	1.200																			1580081887.0	12.19	22.58
26/01/2020 23:38:08	26012020	260120	233808	282.550	12.283138	-56.585645	282.550	-0.050	-0.120	0.930	282.520	-1.500	1.300																			1580081888.0	12.18	22.56
26/01/2020 23:38:09	26012020	260120	233809	282.370	12.283150	-56.585700	282.360	0.070	-0.250	0.920	282.330	-1.600	1.300																			1580081889.0	12.14	22.48
26/01/2020 23:38:10	26012020	260120	233810	282.200	12.283160	-56.585757	282.210	0.230	-0.440	0.800	282.180	-1.800	1.200																			1580081890.0	12.16	22.52
26/01/2020 23:38:11	26012020	260120	233811	282.150	12.283172	-56.585813	282.190	0.360	-0.630	0.570	282.160	-2.000	1.000																			1580081891.0	12.20	22.59
26/01/2020 23:38:12	26012020	260120	233812	282.230	12.283183	-56.585870	282.290	0.380	-0.720	0.300	282.260	-2.100	0.700																			1580081892.0	12.20	22.59
26/01/2020 23:38:13	26012020	260120	233813	282.420	12.283193	-56.585927	282.490	0.210	-0.650	0.050	282.470	-2.000	0.400																			1580081893.0	12.14	22.48
26/01/2020 23:38:14	26012020	260120	233814	282.650	12.283205	-56.585982	282.720	-0.120	-0.440	-0.110	282.700	-1.800	0.300																			1580081894.0	12.07	22.35
26/01/2020 23:38:15	26012020	260120	233815	282.810	12.283215	-56.586038	282.890	-0.490	-0.150	-0.140	282.840	-1.500	0.200																			1580081895.0	12.01	22.24
26/01/2020 23:38:16	26012020	260120	233816	282.920	12.283225	-56.586093	282.940	-0.740	0.070	0.060	282.920	-1.300	0.400																			1580081896.0	11.97	22.17
26/01/2020 23:38:17	26012020	260120	233817	282.880	12.283235	-56.586150	282.870	-0.740	0.080	0.340	282.870	-1.300	0.700																			1580081897.0	12.05	22.32
26/01/2020 23:38:18	26012020	260120	233818	282.760	12.283245	-56.586207	282.770	-0.420	-0.160	0.510	282.740	-1.500	0.900																			1580081898.0	12.26	22.71
26/01/2020 23:38:19	26012020	260120	233819	282.690	12.283257	-56.586265	282.730	0.120	-0.480	0.580	282.690	-1.800	0.900																			1580081899.0	12.52	23.19
26/01/2020 23:38:20	26012020	260120	233820	282.720	12.283268	-56.586323	282.780	0.640	-0.580	0.610	282.740	-1.900	1.000																			1580081900.0	12.60	23.34
26/01/2020 23:38:21	26012020	260120	233821	282.760	12.283283	-56.586380	282.780	0.860	-0.310	0.640	282.750	-1.700	1.000																			1580081901.0	12.39	22.95
26/01/2020 23:38:22	26012020	260120	233822	282.660	12.283297	-56.586435	282.650	0.660	0.200	0.580	282.630	-1.200	1.000																			1580081902.0	11.99	22.21
26/01/2020 23:38:23	26012020	260120	233823	282.470	12.283312	-56.586488	282.460	0.140	0.620	0.300	282.440	-0.800	0.700																			1580081903.0	11.64	21.56
26/01/2020 23:38:24	26012020	260120	233824	282.340	12.283322	-56.586542	282.350	-0.350	0.500	-0.180	282.330	-0.800	0.200																			1580081904.0	11.57	21.43
26/01/2020 23:38:25	26012020	260120	233825	282.380	12.283330	-56.586598	282.450	-0.480	-0.210	-0.690	282.430	-1.500	-0.300																			1580081905.0	12.00	22.22
26/01/2020 23:38:26	26012020	260120	233826	282.660	12.283338	-56.586657	282.770	-0.180	-1.100	-0.990	282.740	-2.400	-0.600																			1580081906.0	12.55	23.24
26/01/2020 23:38:27	26012020	260120	233827	283.060	12.283348	-56.586715	283.170	0.260	-1.580	-0.820	283.140	-2.900	-0.500																			1580081907.0	12.72	23.56
26/01/2020 23:38:28	26012020	260120	233828	283.390	12.283360	-56.586773	283.470	0.450	-1.360	-0.280	283.440	-2.800	0.000																			1580081908.0	12.40	22.96
26/01/2020 23:38:29	26012020	260120	233829	283.520	12.283375	-56.586827	283.530	0.240	-0.640	0.390	283.500	-2.100	0.700																			1580081909.0	11.87	21.98
26/01/2020 23:38:30	26012020	260120	233830	283.380	12.283390	-56.586880	283.360	-0.210	0.110	0.870	283.330	-1.300	1.200																			1580081910.0	11.58	21.45
26/01/2020 23:38:31	26012020	260120	233831	283.100	12.283403	-56.586933	283.080	-0.620	0.450	0.950	283.050	-0.900	1.300																			1580081911.0	11.63	21.54
26/01/2020 23:38:32	26012020	260120	233832	282.850	12.283413	-56.586990	282.850	-0.720	0.230	0.730	282.810	-1.100	1.100																			1580081912.0	12.10	22.41
26/01/2020 23:38:33	26012020	260120	233833	282.720	12.283423	-56.587048	282.760	-0.440	-0.300	0.430	282.720	-1.600	0.800																			1580081913.0	12.64	23.41
26/01/2020 23:38:34	26012020	260120	233834	282.740	12.283435	-56.587108	282.780	0.020	-0.640	0.320	282.750	-2.000	0.700																			1580081914.0	12.91	23.91
26/01/2020 23:38:35	26012020	260120	233835	282.780	12.283448	-56.587167	282.820	0.330	-0.460	0.470	282.780	-1.900	0.800																			1580081915.0	12.68	23.48
26/01/2020 23:38:36	26012020	260120	233836	282.790	12.283462	-56.587222	282.830	0.320	0.120	0.690	282.790	-1.300	1.000																			1580081916.0	12.12	22.45
26/01/2020 23:38:37	26012020	260120	233837	282.760	12.283475	-56.587275	282.790	0.120	0.600	0.770	282.750	-0.800	1.100																			1580081917.0	11.65	21.58
26/01/2020 23:38:38	26012020	260120	233838	282.700	12.283488	-56.587328	282.720	-0.000	0.570	0.650	282.690	-0.800	1.000																			1580081918.0	11.62	21.52
26/01/2020 23:38:39	26012020	260120	233839	282.670	12.283498	-56.587385	282.720	0.100	0.030	0.340	282.680	-1.300	0.700																			1580081919.0	11.99	22.21
26/01/2020 23:38:40	26012020	260120	233840	282.760	12.283510	-56.587442	282.840	0.320	-0.690	0.020	282.790	-2.000	0.400																			1580081920.0	12.36	22.89
26/01/2020 23:38:41	26012020	260120	233841	282.950	12.283520	-56.587500	283.030	0.460	-1.190	-0.140	282.990	-2.500	0.200																			1580081921.0	12.46	23.08
26/01/2020 23:38:42	26012020	260120	233842	283.160	12.283533	-56.587557	283.230	0.420	-1.230	-0.070	283.190	-2.600	0.300																			1580081922.0	12.28	22.74
26/01/2020 23:38:43	26012020	260120	233843	283.280	12.283545	-56.587612	283.320	0.160	-0.840	0.150	283.290	-2.300	0.500																			1580081923.0	11.97	22.17
26/01/2020 23:38:44	26012020	260120	233844	283.270	12.283558	-56.587665	283.290	-0.230	-0.260	0.330	283.260	-1.700	0.700																			1580081924.0	11.73	21.72
26/01/2020 23:38:45	26012020	260120	233845	283.160	12.283570	-56.587720	283.170	-0.540	0.120	0.350	283.140	-1.300	0.700																			1580081925.0	11.69	21.65
26/01/2020 23:38:46	26012020	260120	233846	283.040	12.283580	-56.587775	283.060	-0.600	0.100	0.240	283.020	-1.300	0.600																			1580081926.0	11.97	22.17
26/01/2020 23:38:47	26012020	260120	233847	282.970	12.283590	-56.587833	282.990	-0.370	-0.230	0.110	282.950	-1.600	0.500																			1580081927.0	12.46	23.08
26/01/2020 23:38:48	26012020	260120	233848	282.900	12.283602	-56.587893	282.920	-0.020	-0.470	0.100	282.880	-1.800	0.500																			1580081928.0	12.74	23.59
26/01/2020 23:38:49	26012020	260120	233849	282.820	12.283613	-56.587950	282.840	0.240	-0.390	0.210	282.800	-1.800	0.600																			1580081929.0	12.58	23.30
26/01/2020 23:38:50	26012020	260120	233850	282.740	12.283627	-56.588007	282.770	0.320	-0.110	0.400	282.730	-1.500	0.700																			1580081930.0	12.21	22.61
26/01/2020 23:38:51	26012020	260120	233851	282.690	12.283642	-56.588062	282.730	0.280	0.130	0.630	282.690	-1.300	1.000																			1580081931.0	11.97	22.17
26/01/2020 23:38:52	26012020	260120	233852	282.660	12.283655	-56.588117	282.700	0.180	0.190	0.820	282.650	-1.200	1.200																			1580081932.0	11.98	22.19
26/01/2020 23:38:53	26012020	260120	233853	282.630	12.283670	-56.588172	282.660	0.050	0.120	0.880	282.620	-1.200	1.200																			1580081933.0	12.07	22.35
26/01/2020 23:38:54	26012020	260120	233854	282.590	12.283683	-56.588227	282.640	-0.110	-0.080	0.730	282.590	-1.400	1.100																			1580081934.0	12.08	22.37
26/01/2020 23:38:55	26012020	260120	233855	282.630	12.283693	-56.588283	282.700	-0.200	-0.440	0.400	282.650	-1.800	0.800																			1580081935.0	12.11	22.43
26/01/2020 23:38:56	26012020	260120	233856	282.760	12.283703	-56.588340	282.840	-0.150	-0.800	0.100	282.790	-2.100	0.500																			1580081936.0	12.26	22.71
26/01/2020 23:38:57	26012020	260120	233857	282.930	12.283713	-56.588398	283.010	-0.000	-0.960	0.030	282.960	-2.300	0.400																			1580081937.0	12.30	22.78
26/01/2020 23:38:58	26012020	260120	233858	283.050	12.283725	-56.588455	283.110	0.150	-0.870	0.220	283.070	-2.300	0.600																			1580081938.0	12.19	22.58
26/01/2020 23:38:59	26012020	260120	233859	283.100	12.283737	-56.588510	283.140	0.230	-0.640	0.460	283.100	-2.000	0.800																			1580081939.0	12.07	22.35
26/01/2020 23:39:00	26012020	260120	233900	283.060	12.283750	-56.588565	283.080	0.200	-0.340	0.660	283.040	-1.700	1.000	1015.30	26.00	26.00	21.20	21.20	-1.00	75.00	74.00	379.00	24.90	42.00	3.30	72.00	4.40	15	3908.00	27.50	27.50	1580081940.0	12.08	22.37
26/01/2020 23:39:01	26012020	260120	233901	282.930	12.283763	-56.588622	282.930	0.080	-0.030	0.820	282.890	-1.400	1.200																			1580081941.0	12.12	22.45
26/01/2020 23:39:02	26012020	260120	233902	282.720	12.283777	-56.588677	282.710	-0.090	0.240	0.840	282.670	-1.200	1.200																			1580081942.0	12.10	22.41
26/01/2020 23:39:03	26012020	260120	233903	282.480	12.283788	-56.588733	282.460	-0.230	0.350	0.670	282.430	-1.000	1.100																			1580081943.0	12.12	22.45
26/01/2020 23:39:04	26012020	260120	233904	282.260	12.283800	-56.588790	282.260	-0.280	0.230	0.400	282.230	-1.100	0.800																			1580081944.0	12.19	22.58
26/01/2020 23:39:05	26012020	260120	233905	282.170	12.283810	-56.588847	282.220	-0.200	-0.060	0.140	282.180	-1.400	0.500																			1580081945.0	12.30	22.78
26/01/2020 23:39:06	26012020	260120	233906	282.260	12.283820	-56.588903	282.330	-0.000	-0.400	-0.010	282.280	-1.700	0.400																			1580081946.0	12.39	22.95
26/01/2020 23:39:07	26012020	260120	233907	282.390	12.283832	-56.588962	282.510	0.200	-0.600	0.020	282.430	-2.000	0.400																			1580081947.0	12.36	22.89
26/01/2020 23:39:08	26012020	260120	233908	282.600	12.283845	-56.589018	282.680	0.340	-0.620	0.260	282.630	-2.000	0.600																			1580081948.0	12.22	22.63
26/01/2020 23:39:09	26012020	260120	233909	282.750	12.283858	-56.589073	282.820	0.370	-0.510	0.570	282.760	-1.900	0.900																			1580081949.0	12.06	22.34
26/01/2020 23:39:10	26012020	260120	233910	282.820	12.283872	-56.589128	282.880	0.250	-0.350	0.780	282.820	-1.700	1.100																			1580081950.0	11.98	22.19
26/01/2020 23:39:11	26012020	260120	233911	282.780	12.283885	-56.589183	282.810	0.000	-0.220	0.790	282.760	-1.600	1.200																			1580081951.0	11.96	22.15
26/01/2020 23:39:12	26012020	260120	233912	282.620	12.283897	-56.589238	282.620	-0.280	-0.170	0.620	282.580	-1.500	1.000																			1580081952.0	11.96	22.15
26/01/2020 23:39:13	26012020	260120	233913	282.380	12.283908	-56.589293	282.380	-0.410	-0.320	0.450	282.340	-1.700	0.800																			1580081953.0	12.07	22.35
26/01/2020 23:39:14	26012020	260120	233914	282.170	12.283918	-56.589352	282.190	-0.320	-0.600	0.370	282.140	-1.900	0.700																			1580081954.0	12.29	22.76
26/01/2020 23:39:15	26012020	260120	233915	282.030	12.283928	-56.589410	282.050	-0.100	-0.790	0.410	282.000	-2.200	0.800																			1580081955.0	12.47	23.09
26/01/2020 23:39:16	26012020	260120	233916	281.910	12.283942	-56.589467	281.930	0.060	-0.710	0.510	281.880	-2.100	0.900																			1580081956.0	12.49	23.13
26/01/2020 23:39:17	26012020	260120	233917	281.820	12.283953	-56.589523	281.870	0.070	-0.340	0.590	281.820	-1.800	0.900																			1580081957.0	12.29	22.76
26/01/2020 23:39:18	26012020	260120	233918	281.820	12.283965	-56.589580	281.880	0.010	0.120	0.710	281.830	-1.300	1.100																			1580081958.0	12.08	22.37
26/01/2020 23:39:19	26012020	260120	233919	281.850	12.283977	-56.589635	281.910	-0.030	0.470	0.930	281.850	-0.900	1.300																			1580081959.0	12.01	22.24
26/01/2020 23:39:20	26012020	260120	233920	281.840	12.283990	-56.589690	281.890	0.010	0.590	1.180	281.830	-0.800	1.500																			1580081960.0	12.06	22.34
26/01/2020 23:39:21	26012020	260120	233921	281.780	12.284003	-56.589747	281.830	0.090	0.410	1.330	281.770	-0.900	1.700																			1580081961.0	12.15	22.50
26/01/2020 23:39:22	26012020	260120	233922	281.740	12.284015	-56.589803	281.800	0.160	0.010	1.220	281.740	-1.300	1.600																			1580081962.0	12.25	22.69
26/01/2020 23:39:23	26012020	260120	233923	281.730	12.284027	-56.589860	281.790	0.190	-0.470	0.860	281.740	-1.800	1.300																			1580081963.0	12.26	22.71
26/01/2020 23:39:24	26012020	260120	233924	281.790	12.284037	-56.589917	281.870	0.180	-0.900	0.420	281.810	-2.200	0.800																			1580081964.0	12.25	22.69
26/01/2020 23:39:25	26012020	260120	233925	281.920	12.284045	-56.589973	281.990	0.140	-1.110	0.040	281.940	-2.500	0.400																			1580081965.0	12.19	22.58
26/01/2020 23:39:26	26012020	260120	233926	282.030	12.284055	-56.590030	282.090	0.060	-1.010	-0.130	282.050	-2.400	0.300																			1580081966.0	12.07	22.35
26/01/2020 23:39:27	26012020	260120	233927	282.090	12.284063	-56.590085	282.120	-0.030	-0.660	-0.020	282.090	-2.100	0.300																			1580081967.0	11.89	22.02
26/01/2020 23:39:28	26012020	260120	233928	282.050	12.284075	-56.590140	282.070	-0.140	-0.280	0.310	282.040	-1.700	0.600																			1580081968.0	11.82	21.89
26/01/2020 23:39:29	26012020	260120	233929	281.930	12.284087	-56.590195	281.930	-0.240	-0.050	0.720	281.890	-1.400	1.000																			1580081969.0	11.94	22.11
26/01/2020 23:39:30	26012020	260120	233930	281.740	12.284100	-56.590252	281.720	-0.280	0.010	1.030	281.690	-1.400	1.400																			1580081970.0	12.14	22.48
26/01/2020 23:39:31	26012020	260120	233931	281.550	12.284113	-56.590308	281.520	-0.220	-0.090	1.060	281.510	-1.400	1.400																			1580081971.0	12.33	22.84
26/01/2020 23:39:32	26012020	260120	233932	281.380	12.284125	-56.590367	281.420	-0.040	-0.320	0.810	281.380	-1.700	1.200																			1580081972.0	12.47	23.09
26/01/2020 23:39:33	26012020	260120	233933	281.400	12.284135	-56.590425	281.460	0.160	-0.520	0.470	281.420	-1.900	0.900																			1580081973.0	12.61	23.35
26/01/2020 23:39:34	26012020	260120	233934	281.500	12.284147	-56.590483	281.580	0.250	-0.490	0.250	281.530	-1.900	0.600																			1580081974.0	12.58	23.30
26/01/2020 23:39:35	26012020	260120	233935	281.640	12.284158	-56.590540	281.710	0.140	-0.170	0.180	281.660	-1.600	0.500																			1580081975.0	12.30	22.78
26/01/2020 23:39:36	26012020	260120	233936	281.770	12.284168	-56.590595	281.850	-0.100	0.220	0.220	281.800	-1.200	0.600																			1580081976.0	11.99	22.21
26/01/2020 23:39:37	26012020	260120	233937	281.910	12.284180	-56.590650	281.980	-0.330	0.370	0.290	281.930	-1.000	0.600																			1580081977.0	11.84	21.93
26/01/2020 23:39:38	26012020	260120	233938	282.020	12.284190	-56.590705	282.090	-0.420	0.180	0.360	282.040	-1.200	0.700																			1580081978.0	11.97	22.17
26/01/2020 23:39:39	26012020	260120	233939	282.110	12.284200	-56.590763	282.180	-0.320	-0.230	0.380	282.130	-1.600	0.700																			1580081979.0	12.22	22.63
26/01/2020 23:39:40	26012020	260120	233940	282.150	12.284210	-56.590820	282.190	-0.090	-0.570	0.410	282.140	-1.900	0.800																			1580081980.0	12.35	22.87
26/01/2020 23:39:41	26012020	260120	233941	282.050	12.284218	-56.590877	282.060	0.190	-0.620	0.630	282.020	-2.000	1.000																			1580081981.0	12.24	22.67
26/01/2020 23:39:42	26012020	260120	233942	281.830	12.284230	-56.590933	281.830	0.390	-0.440	0.980	281.780	-1.800	1.300																			1580081982.0	11.95	22.13
26/01/2020 23:39:43	26012020	260120	233943	281.630	12.284243	-56.590987	281.570	0.480	-0.300	1.240	281.580	-1.700	1.600																			1580081983.0	11.77	21.80
26/01/2020 23:39:44	26012020	260120	233944	281.330	12.284257	-56.591042	281.340	0.450	-0.380	1.180	281.280	-1.700	1.600																			1580081984.0	11.88	22.00
26/01/2020 23:39:45	26012020	260120	233945	281.120	12.284268	-56.591097	281.140	0.340	-0.610	0.820	281.090	-1.900	1.200																			1580081985.0	12.15	22.50
26/01/2020 23:39:46	26012020	260120	233946	281.030	12.284280	-56.591155	281.080	0.170	-0.770	0.390	281.030	-2.100	0.800																			1580081986.0	12.35	22.87
26/01/2020 23:39:47	26012020	260120	233947	281.100	12.284290	-56.591212	281.190	-0.040	-0.730	0.060	281.140	-2.100	0.500																			1580081987.0	12.36	22.89
26/01/2020 23:39:48	26012020	260120	233948	281.290	12.284300	-56.591270	281.390	-0.240	-0.480	-0.060	281.330	-1.900	0.300																			1580081988.0	12.25	22.69
26/01/2020 23:39:49	26012020	260120	233949	281.500	12.284310	-56.591327	281.600	-0.440	-0.090	0.050	281.540	-1.500	0.400																			1580081989.0	12.15	22.50
26/01/2020 23:39:50	26012020	260120	233950	281.680	12.284322	-56.591382	281.780	-0.620	0.260	0.240	281.720	-1.100	0.600																			1580081990.0	12.05	22.32
26/01/2020 23:39:51	26012020	260120	233951	281.850	12.284332	-56.591438	281.950	-0.660	0.290	0.410	281.880	-1.100	0.800																			1580081991.0	12.07	22.35
26/01/2020 23:39:52	26012020	260120	233952	282.020	12.284342	-56.591495	282.130	-0.440	-0.050	0.510	282.060	-1.400	0.900																			1580081992.0	12.37	22.91
26/01/2020 23:39:53	26012020	260120	233953	282.190	12.284352	-56.591555	282.280	-0.010	-0.390	0.610	282.210	-1.700	1.000																			1580081993.0	12.69	23.50
26/01/2020 23:39:54	26012020	260120	233954	282.230	12.284363	-56.591613	282.270	0.360	-0.360	0.750	282.210	-1.800	1.100																			1580081994.0	12.60	23.34
26/01/2020 23:39:55	26012020	260120	233955	282.090	12.284375	-56.591670	282.100	0.420	-0.000	0.890	282.040	-1.400	1.300																			1580081995.0	12.10	22.41
26/01/2020 23:39:56	26012020	260120	233956	281.840	12.284387	-56.591723	281.830	0.210	0.250	0.880	281.780	-1.100	1.300																			1580081996.0	11.64	21.56
26/01/2020 23:39:57	26012020	260120	233957	281.630	12.284397	-56.591777	281.590	-0.020	0.040	0.580	281.580	-1.300	1.000																			1580081997.0	11.66	21.59
26/01/2020 23:39:58	26012020	260120	233958	281.430	12.284407	-56.591833	281.460	-0.060	-0.520	0.210	281.420	-1.800	0.600																			1580081998.0	12.09	22.39
26/01/2020 23:39:59	26012020	260120	233959	281.410	12.284417	-56.591892	281.470	0.080	-1.000	-0.040	281.420	-2.300	0.400																			1580081999.0	12.43	23.02
26/01/2020 23:40:00	26012020	260120	234000	281.530	12.284427	-56.591948	281.600	0.230	-1.070	-0.050	281.550	-2.500	0.300	1015.30	25.90	26.00	21.10	21.10	-1.00	74.00	74.00	378.00	24.90	34.00	3.00	78.00	4.20	15	3778.00	27.50	27.50	1580082000.0	12.40	22.96
26/01/2020 23:40:01	26012020	260120	234001	281.700	12.284437	-56.592005	281.780	0.260	-0.770	0.130	281.730	-2.200	0.500																			1580082001.0	12.09	22.39
26/01/2020 23:40:02	26012020	260120	234002	281.870	12.284450	-56.592060	281.960	0.170	-0.320	0.340	281.910	-1.700	0.700																			1580082002.0	11.86	21.96
26/01/2020 23:40:03	26012020	260120	234003	282.030	12.284462	-56.592115	282.120	0.040	0.040	0.510	282.060	-1.400	0.900																			1580082003.0	11.86	21.96
26/01/2020 23:40:04	26012020	260120	234004	282.140	12.284475	-56.592170	282.210	-0.070	0.180	0.620	282.160	-1.200	1.000																			1580082004.0	12.03	22.28
26/01/2020 23:40:05	26012020	260120	234005	282.210	12.284487	-56.592227	282.270	-0.140	0.130	0.610	282.220	-1.200	1.000																			1580082005.0	12.24	22.67
26/01/2020 23:40:06	26012020	260120	234006	282.230	12.284498	-56.592283	282.280	-0.190	0.020	0.430	282.230	-1.300	0.800																			1580082006.0	12.36	22.89
26/01/2020 23:40:07	26012020	260120	234007	282.200	12.284508	-56.592342	282.240	-0.240	-0.140	0.160	282.190	-1.500	0.600																			1580082007.0	12.33	22.84
26/01/2020 23:40:08	26012020	260120	234008	282.170	12.284517	-56.592398	282.240	-0.230	-0.340	-0.070	282.180	-1.700	0.300																			1580082008.0	12.27	22.72
26/01/2020 23:40:09	26012020	260120	234009	282.230	12.284527	-56.592455	282.300	-0.160	-0.530	-0.140	282.240	-1.900	0.200																			1580082009.0	12.23	22.65
26/01/2020 23:40:10	26012020	260120	234010	282.320	12.284537	-56.592512	282.400	-0.040	-0.650	-0.040	282.330	-2.000	0.300																			1580082010.0	12.21	22.61
26/01/2020 23:40:11	26012020	260120	234011	282.430	12.284547	-56.592568	282.520	0.070	-0.630	0.130	282.460	-2.000	0.500																			1580082011.0	12.15	22.50
26/01/2020 23:40:12	26012020	260120	234012	282.550	12.284560	-56.592625	282.630	0.090	-0.480	0.310	282.560	-1.900	0.700																			1580082012.0	12.11	22.43
26/01/2020 23:40:13	26012020	260120	234013	282.620	12.284572	-56.592680	282.690	0.040	-0.250	0.460	282.630	-1.600	0.800																			1580082013.0	12.02	22.26
26/01/2020 23:40:14	26012020	260120	234014	282.660	12.284585	-56.592735	282.730	0.000	-0.100	0.540	282.660	-1.500	0.900																			1580082014.0	12.03	22.28
26/01/2020 23:40:15	26012020	260120	234015	282.660	12.284597	-56.592792	282.720	0.070	-0.120	0.530	282.650	-1.500	0.900																			1580082015.0	12.16	22.52
26/01/2020 23:40:16	26012020	260120	234016	282.600	12.284608	-56.592848	282.640	0.230	-0.230	0.410	282.580	-1.600	0.800																			1580082016.0	12.38	22.93
26/01/2020 23:40:17	26012020	260120	234017	282.470	12.284620	-56.592907	282.470	0.300	-0.180	0.320	282.430	-1.600	0.700																			1580082017.0	12.45	23.06
26/01/2020 23:40:18	26012020	260120	234018	282.250	12.284632	-56.592963	282.240	0.160	0.070	0.300	282.200	-1.300	0.700																			1580082018.0	12.19	22.58
26/01/2020 23:40:19	26012020	260120	234019	282.020	12.284643	-56.593018	282.020	-0.150	0.290	0.260	281.980	-1.100	0.600																			1580082019.0	11.88	22.00
26/01/2020 23:40:20	26012020	260120	234020	281.860	12.284653	-56.593072	281.880	-0.380	0.210	0.120	281.830	-1.100	0.500																			1580082020.0	11.76	21.78
26/01/2020 23:40:21	26012020	260120	234021	281.820	12.284663	-56.593128	281.900	-0.330	-0.230	-0.050	281.840	-1.500	0.300																			1580082021.0	11.96	22.15
26/01/2020 23:40:22	26012020	260120	234022	281.970	12.284673	-56.593185	282.080	0.010	-0.800	-0.100	282.020	-2.100	0.300																			1580082022.0	12.31	22.80
26/01/2020 23:40:23	26012020	260120	234023	282.240	12.284685	-56.593243	282.370	0.390	-1.170	0.010	282.300	-2.500	0.400																			1580082023.0	12.47	23.09
26/01/2020 23:40:24	26012020	260120	234024	282.570	12.284698	-56.593300	282.720	0.550	-1.160	0.200	282.640	-2.500	0.500																			1580082024.0	12.35	22.87
26/01/2020 23:40:25	26012020	260120	234025	282.920	12.284713	-56.593355	283.070	0.430	-0.860	0.330	282.990	-2.300	0.700																			1580082025.0	12.12	22.45
26/01/2020 23:40:26	26012020	260120	234026	283.230	12.284725	-56.593410	283.360	0.140	-0.420	0.290	283.280	-1.800	0.700																			1580082026.0	12.03	22.28
26/01/2020 23:40:27	26012020	260120	234027	283.420	12.284738	-56.593467	283.490	-0.180	0.040	0.190	283.430	-1.400	0.600																			1580082027.0	12.07	22.35
26/01/2020 23:40:28	26012020	260120	234028	283.370	12.284748	-56.593523	283.390	-0.450	0.400	0.170	283.330	-1.000	0.500																			1580082028.0	12.14	22.48
26/01/2020 23:40:29	26012020	260120	234029	283.100	12.284758	-56.593580	283.070	-0.630	0.580	0.240	283.020	-0.800	0.600																			1580082029.0	12.18	22.56
26/01/2020 23:40:30	26012020	260120	234030	282.700	12.284768	-56.593637	282.670	-0.650	0.500	0.290	282.620	-0.900	0.700																			1580082030.0	12.19	22.58
26/01/2020 23:40:31	26012020	260120	234031	282.360	12.284778	-56.593693	282.380	-0.410	0.090	0.240	282.320	-1.200	0.600																			1580082031.0	12.26	22.71
26/01/2020 23:40:32	26012020	260120	234032	282.240	12.284790	-56.593752	282.310	0.030	-0.530	0.120	282.240	-1.800	0.500																			1580082032.0	12.46	23.08
26/01/2020 23:40:33	26012020	260120	234033	282.300	12.284802	-56.593810	282.400	0.480	-0.970	0.090	282.320	-2.300	0.500																			1580082033.0	12.58	23.30
26/01/2020 23:40:34	26012020	260120	234034	282.420	12.284813	-56.593867	282.520	0.720	-0.970	0.220	282.450	-2.400	0.600																			1580082034.0	12.42	23.00
26/01/2020 23:40:35	26012020	260120	234035	282.550	12.284828	-56.593922	282.650	0.680	-0.550	0.490	282.570	-2.000	0.800																			1580082035.0	11.99	22.21
26/01/2020 23:40:36	26012020	260120	234036	282.630	12.284842	-56.593975	282.720	0.460	-0.080	0.780	282.640	-1.500	1.100																			1580082036.0	11.68	21.63
26/01/2020 23:40:37	26012020	260120	234037	282.630	12.284857	-56.594028	282.680	0.190	0.150	0.970	282.610	-1.200	1.300																			1580082037.0	11.74	21.74
26/01/2020 23:40:38	26012020	260120	234038	282.520	12.284870	-56.594083	282.560	-0.050	0.110	0.990	282.490	-1.200	1.400																			1580082038.0	12.00	22.22
26/01/2020 23:40:39	26012020	260120	234039	282.390	12.284882	-56.594140	282.450	-0.250	-0.050	0.800	282.380	-1.400	1.200																			1580082039.0	12.21	22.61
26/01/2020 23:40:40	26012020	260120	234040	282.350	12.284893	-56.594197	282.440	-0.360	-0.280	0.470	282.360	-1.600	0.900																			1580082040.0	12.25	22.69
26/01/2020 23:40:41	26012020	260120	234041	282.470	12.284902	-56.594253	282.590	-0.330	-0.560	0.100	282.500	-1.900	0.500																			1580082041.0	12.28	22.74
26/01/2020 23:40:42	26012020	260120	234042	282.710	12.284912	-56.594312	282.850	-0.180	-0.830	-0.180	282.770	-2.200	0.200																			1580082042.0	12.36	22.89
26/01/2020 23:40:43	26012020	260120	234043	283.000	12.284922	-56.594370	283.140	0.040	-0.920	-0.210	283.060	-2.300	0.200																			1580082043.0	12.43	23.02
26/01/2020 23:40:44	26012020	260120	234044	283.260	12.284933	-56.594427	283.380	0.180	-0.740	0.050	283.300	-2.100	0.400																			1580082044.0	12.36	22.89
26/01/2020 23:40:45	26012020	260120	234045	283.390	12.284947	-56.594483	283.490	0.180	-0.320	0.380	283.410	-1.700	0.700																			1580082045.0	12.21	22.61
26/01/2020 23:40:46	26012020	260120	234046	283.370	12.284960	-56.594538	283.410	0.040	0.110	0.590	283.340	-1.300	0.900																			1580082046.0	12.04	22.30
26/01/2020 23:40:47	26012020	260120	234047	283.220	12.284972	-56.594593	283.190	-0.140	0.300	0.600	283.170	-1.100	1.000																			1580082047.0	12.02	22.26
26/01/2020 23:40:48	26012020	260120	234048	282.930	12.284983	-56.594650	282.930	-0.250	0.190	0.410	282.880	-1.200	0.800																			1580082048.0	12.20	22.59
26/01/2020 23:40:49	26012020	260120	234049	282.720	12.284995	-56.594708	282.740	-0.250	-0.060	0.180	282.690	-1.400	0.600																			1580082049.0	12.40	22.96
26/01/2020 23:40:50	26012020	260120	234050	282.600	12.285005	-56.594765	282.640	-0.170	-0.230	0.040	282.590	-1.600	0.400																			1580082050.0	12.41	22.98
26/01/2020 23:40:51	26012020	260120	234051	282.600	12.285017	-56.594822	282.670	-0.090	-0.210	0.070	282.610	-1.600	0.400																			1580082051.0	12.22	22.63
26/01/2020 23:40:52	26012020	260120	234052	282.660	12.285030	-56.594877	282.730	-0.010	-0.110	0.300	282.670	-1.500	0.600																			1580082052.0	11.96	22.15
26/01/2020 23:40:53	26012020	260120	234053	282.710	12.285042	-56.594932	282.770	0.150	-0.160	0.630	282.710	-1.500	1.000																			1580082053.0	11.88	22.00
26/01/2020 23:40:54	26012020	260120	234054	282.710	12.285057	-56.594987	282.770	0.420	-0.380	0.880	282.700	-1.700	1.200																			1580082054.0	12.04	22.30
26/01/2020 23:40:55	26012020	260120	234055	282.670	12.285070	-56.595043	282.740	0.670	-0.580	0.960	282.670	-1.900	1.300																			1580082055.0	12.25	22.69
26/01/2020 23:40:56	26012020	260120	234056	282.640	12.285083	-56.595100	282.700	0.710	-0.610	0.830	282.640	-2.000	1.200																			1580082056.0	12.25	22.69
26/01/2020 23:40:57	26012020	260120	234057	282.620	12.285097	-56.595155	282.670	0.470	-0.520	0.520	282.610	-1.900	0.900																			1580082057.0	12.09	22.39
26/01/2020 23:40:58	26012020	260120	234058	282.640	12.285108	-56.595210	282.710	0.020	-0.420	0.090	282.650	-1.800	0.500																			1580082058.0	12.03	22.28
26/01/2020 23:40:59	26012020	260120	234059	282.740	12.285118	-56.595267	282.810	-0.440	-0.350	-0.380	282.760	-1.700	0.000																			1580082059.0	12.09	22.39
26/01/2020 23:41:00	26012020	260120	234100	282.870	12.285128	-56.595323	282.940	-0.750	-0.330	-0.700	282.890	-1.700	-0.300	1015.30	25.90	26.00	21.10	21.10	-1.00	74.00	74.00	379.00	24.90	36.00	3.10	77.00	4.20	15	3747.00	27.50	27.50	1580082060.0	12.18	22.56
26/01/2020 23:41:01	26012020	260120	234101	282.980	12.285135	-56.595382	283.030	-0.810	-0.360	-0.670	282.990	-1.700	-0.300																			1580082061.0	12.28	22.74
26/01/2020 23:41:02	26012020	260120	234102	283.000	12.285145	-56.595438	283.040	-0.650	-0.360	-0.260	283.000	-1.700	0.100																			1580082062.0	12.36	22.89
26/01/2020 23:41:03	26012020	260120	234103	282.940	12.285157	-56.595497	282.970	-0.320	-0.330	0.330	282.920	-1.700	0.600																			1580082063.0	12.31	22.80
26/01/2020 23:41:04	26012020	260120	234104	282.840	12.285170	-56.595552	282.880	0.090	-0.380	0.860	282.820	-1.700	1.200																			1580082064.0	12.31	22.80
26/01/2020 23:41:05	26012020	260120	234105	282.740	12.285185	-56.595610	282.780	0.490	-0.470	1.150	282.710	-1.800	1.500																			1580082065.0	12.48	23.11
26/01/2020 23:41:06	26012020	260120	234106	282.610	12.285202	-56.595667	282.630	0.690	-0.330	1.200	282.580	-1.700	1.600																			1580082066.0	12.57	23.28
26/01/2020 23:41:07	26012020	260120	234107	282.420	12.285217	-56.595723	282.430	0.520	0.130	1.050	282.380	-1.300	1.400																			1580082067.0	12.34	22.85
26/01/2020 23:41:08	26012020	260120	234108	282.230	12.285230	-56.595777	282.250	0.020	0.660	0.660	282.200	-0.800	1.100																			1580082068.0	11.86	21.96
26/01/2020 23:41:09	26012020	260120	234109	282.140	12.285240	-56.595832	282.170	-0.480	0.780	0.150	282.130	-0.600	0.600																			1580082069.0	11.62	21.52
26/01/2020 23:41:10	26012020	260120	234110	282.150	12.285248	-56.595887	282.220	-0.670	0.330	-0.310	282.170	-1.000	0.100																			1580082070.0	11.88	22.00
26/01/2020 23:41:11	26012020	260120	234111	282.240	12.285257	-56.595945	282.340	-0.410	-0.420	-0.470	282.260	-1.700	-0.100																			1580082071.0	12.32	22.82
26/01/2020 23:41:12	26012020	260120	234112	282.420	12.285265	-56.596003	282.500	0.100	-1.010	-0.150	282.450	-2.300	0.200																			1580082072.0	12.50	23.15
26/01/2020 23:41:13	26012020	260120	234113	282.560	12.285277	-56.596060	282.630	0.550	-1.180	0.480	282.580	-2.600	0.800																			1580082073.0	12.29	22.76
26/01/2020 23:41:14	26012020	260120	234114	282.590	12.285292	-56.596113	282.640	0.690	-0.990	1.080	282.580	-2.400	1.400																			1580082074.0	11.95	22.13
26/01/2020 23:41:15	26012020	260120	234115	282.470	12.285307	-56.596167	282.500	0.490	-0.700	1.350	282.440	-2.100	1.700																			1580082075.0	11.75	21.76
26/01/2020 23:41:16	26012020	260120	234116	282.310	12.285322	-56.596222	282.330	0.170	-0.530	1.220	282.270	-1.900	1.600																			1580082076.0	11.83	21.91
26/01/2020 23:41:17	26012020	260120	234117	282.200	12.285333	-56.596278	282.250	-0.060	-0.510	0.850	282.190	-1.900	1.300																			1580082077.0	12.13	22.46
26/01/2020 23:41:18	26012020	260120	234118	282.190	12.285343	-56.596335	282.250	-0.160	-0.460	0.440	282.200	-1.900	0.900																			1580082078.0	12.45	23.06
26/01/2020 23:41:19	26012020	260120	234119	282.240	12.285355	-56.596393	282.310	-0.250	-0.200	0.130	282.260	-1.600	0.500																			1580082079.0	12.52	23.19
26/01/2020 23:41:20	26012020	260120	234120	282.320	12.285367	-56.596450	282.380	-0.410	0.200	-0.010	282.330	-1.200	0.400																			1580082080.0	12.36	22.89
26/01/2020 23:41:21	26012020	260120	234121	282.390	12.285377	-56.596507	282.460	-0.560	0.500	0.050	282.410	-0.900	0.400																			1580082081.0	12.16	22.52
26/01/2020 23:41:22	26012020	260120	234122	282.430	12.285387	-56.596563	282.480	-0.540	0.510	0.250	282.420	-0.900	0.600																			1580082082.0	12.14	22.48
26/01/2020 23:41:23	26012020	260120	234123	282.400	12.285398	-56.596620	282.430	-0.280	0.230	0.510	282.390	-1.100	0.900																			1580082083.0	12.27	22.72
26/01/2020 23:41:24	26012020	260120	234124	282.310	12.285412	-56.596678	282.350	0.090	-0.160	0.680	282.290	-1.500	1.000																			1580082084.0	12.36	22.89
26/01/2020 23:41:25	26012020	260120	234125	282.200	12.285423	-56.596735	282.230	0.340	-0.480	0.720	282.170	-1.800	1.100																			1580082085.0	12.30	22.78
26/01/2020 23:41:26	26012020	260120	234126	282.050	12.285435	-56.596790	282.060	0.370	-0.650	0.670	282.020	-2.000	1.000																			1580082086.0	12.10	22.41
26/01/2020 23:41:27	26012020	260120	234127	281.850	12.285447	-56.596845	281.840	0.210	-0.660	0.560	281.800	-2.000	0.900																			1580082087.0	11.94	22.11
26/01/2020 23:41:28	26012020	260120	234128	281.590	12.285457	-56.596900	281.580	-0.020	-0.570	0.470	281.540	-2.000	0.900																			1580082088.0	11.83	21.91
26/01/2020 23:41:29	26012020	260120	234129	281.370	12.285467	-56.596955	281.370	-0.130	-0.460	0.420	281.330	-1.900	0.800																			1580082089.0	11.82	21.89
26/01/2020 23:41:30	26012020	260120	234130	281.230	12.285477	-56.597012	281.260	-0.060	-0.400	0.460	281.210	-1.800	0.800																			1580082090.0	11.97	22.17
26/01/2020 23:41:31	26012020	260120	234131	281.170	12.285488	-56.597067	281.220	0.140	-0.320	0.660	281.170	-1.700	1.000																			1580082091.0	12.12	22.45
26/01/2020 23:41:32	26012020	260120	234132	281.210	12.285500	-56.597123	281.290	0.330	-0.220	1.000	281.230	-1.600	1.300																			1580082092.0	12.19	22.58
26/01/2020 23:41:33	26012020	260120	234133	281.350	12.285515	-56.597180	281.460	0.410	-0.150	1.300	281.380	-1.500	1.600																			1580082093.0	12.23	22.65
26/01/2020 23:41:34	26012020	260120	234134	281.540	12.285530	-56.597235	281.670	0.350	-0.120	1.290	281.590	-1.500	1.700																			1580082094.0	12.23	22.65
26/01/2020 23:41:35	26012020	260120	234135	281.790	12.285542	-56.597292	281.930	0.150	-0.120	0.920	281.850	-1.500	1.300																			1580082095.0	12.22	22.63
26/01/2020 23:41:36	26012020	260120	234136	282.070	12.285553	-56.597348	282.200	-0.160	-0.170	0.380	282.130	-1.500	0.800																			1580082096.0	12.18	22.56
26/01/2020 23:41:37	26012020	260120	234137	282.270	12.285562	-56.597405	282.410	-0.470	-0.310	-0.060	282.310	-1.700	0.400																			1580082097.0	12.18	22.56
26/01/2020 23:41:38	26012020	260120	234138	282.420	12.285568	-56.597463	282.480	-0.620	-0.510	-0.160	282.420	-1.900	0.200																			1580082098.0	12.25	22.69
26/01/2020 23:41:39	26012020	260120	234139	282.370	12.285577	-56.597520	282.400	-0.510	-0.690	0.030	282.340	-2.000	0.400																			1580082099.0	12.32	22.82
26/01/2020 23:41:40	26012020	260120	234140	282.210	12.285587	-56.597578	282.230	-0.230	-0.720	0.320	282.170	-2.100	0.700																			1580082100.0	12.37	22.91
26/01/2020 23:41:41	26012020	260120	234141	282.010	12.285598	-56.597635	282.020	0.030	-0.520	0.610	281.970	-1.900	0.900																			1580082101.0	12.32	22.82
26/01/2020 23:41:42	26012020	260120	234142	281.780	12.285610	-56.597692	281.790	0.120	-0.110	0.840	281.730	-1.500	1.200																			1580082102.0	12.15	22.50
26/01/2020 23:41:43	26012020	260120	234143	281.540	12.285623	-56.597747	281.560	0.040	0.340	0.890	281.500	-1.100	1.300																			1580082103.0	11.92	22.08
26/01/2020 23:41:44	26012020	260120	234144	281.390	12.285635	-56.597800	281.440	-0.050	0.590	0.690	281.380	-0.800	1.100																			1580082104.0	11.82	21.89
26/01/2020 23:41:45	26012020	260120	234145	281.410	12.285645	-56.597857	281.500	-0.050	0.480	0.370	281.440	-0.900	0.800																			1580082105.0	11.90	22.04
26/01/2020 23:41:46	26012020	260120	234146	281.620	12.285655	-56.597912	281.750	0.110	0.070	0.120	281.680	-1.300	0.500																			1580082106.0	12.10	22.41
26/01/2020 23:41:47	26012020	260120	234147	281.920	12.285665	-56.597970	282.050	0.360	-0.410	0.100	281.980	-1.700	0.500																			1580082107.0	12.27	22.72
26/01/2020 23:41:48	26012020	260120	234148	282.190	12.285677	-56.598027	282.290	0.570	-0.770	0.350	282.220	-2.100	0.700																			1580082108.0	12.25	22.69
26/01/2020 23:41:49	26012020	260120	234149	282.340	12.285690	-56.598082	282.430	0.570	-0.920	0.630	282.370	-2.300	1.000																			1580082109.0	12.14	22.48
26/01/2020 23:41:50	26012020	260120	234150	282.400	12.285703	-56.598137	282.460	0.340	-0.870	0.740	282.410	-2.300	1.100																			1580082110.0	11.98	22.19
26/01/2020 23:41:51	26012020	260120	234151	282.410	12.285715	-56.598192	282.470	0.030	-0.780	0.630	282.420	-2.200	1.000																			1580082111.0	11.91	22.06
26/01/2020 23:41:52	26012020	260120	234152	282.440	12.285727	-56.598248	282.510	-0.170	-0.700	0.410	282.450	-2.100	0.800																			1580082112.0	12.05	22.32
26/01/2020 23:41:53	26012020	260120	234153	282.490	12.285737	-56.598305	282.540	-0.220	-0.590	0.200	282.490	-2.000	0.600																			1580082113.0	12.26	22.71
26/01/2020 23:41:54	26012020	260120	234154	282.490	12.285747	-56.598362	282.520	-0.260	-0.370	0.070	282.480	-1.800	0.500																			1580082114.0	12.37	22.91
26/01/2020 23:41:55	26012020	260120	234155	282.420	12.285758	-56.598420	282.450	-0.400	-0.060	0.040	282.410	-1.500	0.400																			1580082115.0	12.34	22.85
26/01/2020 23:41:56	26012020	260120	234156	282.330	12.285768	-56.598477	282.360	-0.570	0.220	0.100	282.310	-1.200	0.500																			1580082116.0	12.22	22.63
26/01/2020 23:41:57	26012020	260120	234157	282.240	12.285778	-56.598533	282.270	-0.630	0.340	0.220	282.220	-1.000	0.600																			1580082117.0	12.15	22.50
26/01/2020 23:41:58	26012020	260120	234158	282.160	12.285788	-56.598590	282.200	-0.480	0.260	0.410	282.150	-1.100	0.800																			1580082118.0	12.21	22.61
26/01/2020 23:41:59	26012020	260120	234159	282.100	12.285800	-56.598647	282.140	-0.200	0.130	0.590	282.080	-1.300	0.900																			1580082119.0	12.27	22.72
26/01/2020 23:42:00	26012020	260120	234200	282.020	12.285812	-56.598703	282.060	0.090	0.050	0.710	282.000	-1.300	1.100	1015.30	25.90	26.00	21.20	21.20	-1.00	75.00	74.00	379.00	24.90	43.00	2.70	79.00	4.70	15	3820.00	27.50	27.50	1580082120.0	12.17	22.54
26/01/2020 23:42:01	26012020	260120	234201	281.970	12.285822	-56.598758	282.020	0.320	-0.060	0.720	281.970	-1.400	1.100																			1580082121.0	11.97	22.17
26/01/2020 23:42:02	26012020	260120	234202	281.980	12.285833	-56.598813	282.050	0.590	-0.330	0.650	281.990	-1.700	1.000																			1580082122.0	11.92	22.08
26/01/2020 23:42:03	26012020	260120	234203	282.060	12.285845	-56.598870	282.140	0.880	-0.700	0.600	282.080	-2.100	1.000																			1580082123.0	12.10	22.41
26/01/2020 23:42:04	26012020	260120	234204	282.170	12.285858	-56.598927	282.240	1.010	-0.900	0.590	282.190	-2.300	1.000																			1580082124.0	12.28	22.74
26/01/2020 23:42:05	26012020	260120	234205	282.250	12.285873	-56.598982	282.300	0.760	-0.770	0.470	282.260	-2.200	0.900																			1580082125.0	12.17	22.54
26/01/2020 23:42:06	26012020	260120	234206	282.280	12.285885	-56.599037	282.330	0.150	-0.450	0.150	282.300	-1.900	0.600																			1580082126.0	11.91	22.06
26/01/2020 23:42:07	26012020	260120	234207	282.340	12.285897	-56.599092	282.390	-0.510	-0.190	-0.260	282.360	-1.600	0.200																			1580082127.0	11.81	21.87
26/01/2020 23:42:08	26012020	260120	234208	282.450	12.285905	-56.599147	282.510	-0.910	-0.160	-0.540	282.480	-1.500	-0.200																			1580082128.0	11.94	22.11
26/01/2020 23:42:09	26012020	260120	234209	282.590	12.285913	-56.599205	282.650	-0.930	-0.330	-0.550	282.610	-1.700	-0.200																			1580082129.0	12.24	22.67
26/01/2020 23:42:10	26012020	260120	234210	282.690	12.285922	-56.599263	282.730	-0.660	-0.580	-0.270	282.700	-1.900	0.100																			1580082130.0	12.50	23.15
26/01/2020 23:42:11	26012020	260120	234211	282.710	12.285933	-56.599322	282.750	-0.280	-0.700	0.090	282.700	-2.100	0.400																			1580082131.0	12.59	23.32
26/01/2020 23:42:12	26012020	260120	234212	282.650	12.285945	-56.599380	282.670	0.080	-0.590	0.510	282.630	-2.000	0.800																			1580082132.0	12.52	23.19
26/01/2020 23:42:13	26012020	260120	234213	282.540	12.285958	-56.599437	282.520	0.310	-0.200	0.890	282.510	-1.600	1.200																			1580082133.0	12.29	22.76
26/01/2020 23:42:14	26012020	260120	234214	282.320	12.285972	-56.599492	282.320	0.370	0.270	1.090	282.270	-1.200	1.400																			1580082134.0	12.04	22.30
26/01/2020 23:42:15	26012020	260120	234215	282.110	12.285985	-56.599545	282.120	0.250	0.560	1.010	282.080	-0.800	1.400																			1580082135.0	11.89	22.02
26/01/2020 23:42:16	26012020	260120	234216	281.980	12.285997	-56.599600	282.010	0.050	0.510	0.710	281.970	-0.900	1.100																			1580082136.0	11.95	22.13
26/01/2020 23:42:17	26012020	260120	234217	281.980	12.286008	-56.599657	282.040	-0.140	0.250	0.300	281.990	-1.100	0.700																			1580082137.0	12.12	22.45
26/01/2020 23:42:18	26012020	260120	234218	282.130	12.286018	-56.599713	282.220	-0.230	-0.070	-0.060	282.170	-1.400	0.300																			1580082138.0	12.15	22.50
26/01/2020 23:42:19	26012020	260120	234219	282.410	12.286027	-56.599770	282.530	-0.120	-0.410	-0.220	282.480	-1.700	0.200																			1580082139.0	12.08	22.37
26/01/2020 23:42:20	26012020	260120	234220	282.750	12.286037	-56.599827	282.870	0.180	-0.780	-0.030	282.810	-2.100	0.300																			1580082140.0	12.06	22.34
26/01/2020 23:42:21	26012020	260120	234221	283.040	12.286048	-56.599882	283.150	0.560	-1.080	0.410	283.090	-2.400	0.700																			1580082141.0	12.16	22.52
26/01/2020 23:42:22	26012020	260120	234222	283.220	12.286063	-56.599938	283.320	0.840	-1.150	0.860	283.250	-2.500	1.200																			1580082142.0	12.23	22.65
26/01/2020 23:42:23	26012020	260120	234223	283.260	12.286078	-56.599993	283.310	0.830	-0.910	1.080	283.240	-2.300	1.400																			1580082143.0	12.20	22.59
26/01/2020 23:42:24	26012020	260120	234224	283.100	12.286093	-56.600048	283.100	0.420	-0.420	0.960	283.050	-1.900	1.400																			1580082144.0	12.05	22.32
26/01/2020 23:42:25	26012020	260120	234225	282.800	12.286105	-56.600103	282.770	-0.250	0.080	0.530	282.740	-1.300	1.000																			1580082145.0	11.86	21.96
26/01/2020 23:42:26	26012020	260120	234226	282.490	12.286113	-56.600158	282.460	-0.870	0.260	-0.050	282.430	-1.100	0.400																			1580082146.0	11.88	22.00
26/01/2020 23:42:27	26012020	260120	234227	282.310	12.286122	-56.600217	282.310	-1.140	0.050	-0.570	282.290	-1.300	-0.200																			1580082147.0	12.17	22.54
26/01/2020 23:42:28	26012020	260120	234228	282.310	12.286128	-56.600275	282.400	-0.970	-0.360	-0.790	282.340	-1.700	-0.400																			1580082148.0	12.53	23.21
26/01/2020 23:42:29	26012020	260120	234229	282.580	12.286137	-56.600333	282.720	-0.530	-0.590	-0.680	282.650	-2.000	-0.300																			1580082149.0	12.64	23.41
26/01/2020 23:42:30	26012020	260120	234230	283.020	12.286147	-56.600392	283.180	-0.060	-0.490	-0.310	283.110	-1.900	0.000																			1580082150.0	12.45	23.06
26/01/2020 23:42:31	26012020	260120	234231	283.470	12.286160	-56.600448	283.620	0.270	-0.120	0.190	283.550	-1.500	0.500																			1580082151.0	12.11	22.43
26/01/2020 23:42:32	26012020	260120	234232	283.790	12.286175	-56.600502	283.910	0.450	0.240	0.630	283.830	-1.200	1.000																			1580082152.0	11.86	21.96
26/01/2020 23:42:33	26012020	260120	234233	283.920	12.286190	-56.600555	284.000	0.560	0.320	0.850	283.930	-1.100	1.200																			1580082153.0	11.87	21.98
26/01/2020 23:42:34	26012020	260120	234234	283.900	12.286205	-56.600612	283.940	0.640	0.060	0.770	283.880	-1.300	1.100																			1580082154.0	12.13	22.46
26/01/2020 23:42:35	26012020	260120	234235	283.770	12.286218	-56.600668	283.780	0.630	-0.280	0.520	283.720	-1.600	0.900																			1580082155.0	12.39	22.95
26/01/2020 23:42:36	26012020	260120	234236	283.520	12.286232	-56.600725	283.490	0.400	-0.390	0.190	283.450	-1.800	0.600																			1580082156.0	12.34	22.85
26/01/2020 23:42:37	26012020	260120	234237	283.200	12.286243	-56.600780	283.170	-0.050	-0.290	-0.190	283.140	-1.700	0.200																			1580082157.0	12.00	22.22
26/01/2020 23:42:38	26012020	260120	234238	282.950	12.286252	-56.600835	282.950	-0.500	-0.240	-0.580	282.920	-1.600	-0.200																			1580082158.0	11.69	21.65
26/01/2020 23:42:39	26012020	260120	234239	282.880	12.286260	-56.600890	282.930	-0.680	-0.480	-0.870	282.890	-1.800	-0.500																			1580082159.0	11.75	21.76
26/01/2020 23:42:40	26012020	260120	234240	283.020	12.286268	-56.600947	283.110	-0.470	-0.910	-0.890	283.060	-2.200	-0.500																			1580082160.0	12.10	22.41
26/01/2020 23:42:41	26012020	260120	234241	283.300	12.286280	-56.601003	283.420	-0.070	-1.220	-0.600	283.360	-2.600	-0.300																			1580082161.0	12.40	22.96
26/01/2020 23:42:42	26012020	260120	234242	283.610	12.286293	-56.601062	283.740	0.250	-1.160	-0.160	283.670	-2.600	0.200																			1580082162.0	12.45	23.06
26/01/2020 23:42:43	26012020	260120	234243	283.920	12.286307	-56.601117	284.050	0.340	-0.700	0.290	283.970	-2.100	0.600																			1580082163.0	12.23	22.65
26/01/2020 23:42:44	26012020	260120	234244	284.150	12.286323	-56.601172	284.250	0.220	-0.070	0.650	284.170	-1.500	1.000																			1580082164.0	12.03	22.28
26/01/2020 23:42:45	26012020	260120	234245	284.190	12.286338	-56.601227	284.230	-0.050	0.470	0.800	284.160	-1.000	1.200																			1580082165.0	11.97	22.17
26/01/2020 23:42:46	26012020	260120	234246	284.010	12.286352	-56.601282	284.000	-0.360	0.760	0.710	283.950	-0.600	1.100																			1580082166.0	12.03	22.28
26/01/2020 23:42:47	26012020	260120	234247	283.690	12.286363	-56.601338	283.660	-0.580	0.670	0.460	283.620	-0.700	0.900																			1580082167.0	12.16	22.52
26/01/2020 23:42:48	26012020	260120	234248	283.390	12.286373	-56.601395	283.380	-0.520	0.240	0.100	283.340	-1.100	0.500																			1580082168.0	12.37	22.91
26/01/2020 23:42:49	26012020	260120	234249	283.230	12.286385	-56.601453	283.260	-0.180	-0.290	-0.160	283.220	-1.600	0.200																			1580082169.0	12.55	23.24
26/01/2020 23:42:50	26012020	260120	234250	283.220	12.286395	-56.601512	283.280	0.260	-0.630	-0.150	283.230	-2.000	0.200																			1580082170.0	12.53	23.21
26/01/2020 23:42:51	26012020	260120	234251	283.280	12.286408	-56.601568	283.340	0.540	-0.620	0.140	283.300	-2.000	0.500																			1580082171.0	12.27	22.72
26/01/2020 23:42:52	26012020	260120	234252	283.310	12.286423	-56.601622	283.350	0.560	-0.390	0.520	283.300	-1.800	0.800																			1580082172.0	11.90	22.04
26/01/2020 23:42:53	26012020	260120	234253	283.220	12.286438	-56.601675	283.250	0.380	-0.170	0.790	283.200	-1.600	1.100																			1580082173.0	11.66	21.59
26/01/2020 23:42:54	26012020	260120	234254	283.070	12.286452	-56.601728	283.090	0.200	-0.140	0.810	283.040	-1.500	1.200																			1580082174.0	11.67	21.61
26/01/2020 23:42:55	26012020	260120	234255	282.950	12.286463	-56.601783	282.990	0.100	-0.360	0.590	282.940	-1.700	1.000																			1580082175.0	11.83	21.91
26/01/2020 23:42:56	26012020	260120	234256	282.950	12.286475	-56.601840	283.000	0.080	-0.740	0.300	282.960	-2.100	0.700																			1580082176.0	12.11	22.43
26/01/2020 23:42:57	26012020	260120	234257	283.050	12.286485	-56.601897	283.130	0.050	-1.010	0.060	283.080	-2.400	0.400																			1580082177.0	12.33	22.84
26/01/2020 23:42:58	26012020	260120	234258	283.210	12.286497	-56.601955	283.280	-0.060	-0.950	-0.010	283.230	-2.400	0.400																			1580082178.0	12.32	22.82
26/01/2020 23:42:59	26012020	260120	234259	283.340	12.286508	-56.602010	283.420	-0.270	-0.580	0.130	283.360	-2.000	0.500																			1580082179.0	12.13	22.46
26/01/2020 23:43:00	26012020	260120	234300	283.450	12.286520	-56.602065	283.530	-0.460	-0.160	0.270	283.480	-1.600	0.600	1015.30	26.00	26.00	21.20	21.10	-1.00	75.00	74.00	378.00	24.80	40.00	3.00	77.00	4.40	15	3886.00	27.50	27.50	1580082180.0	11.96	22.15
26/01/2020 23:43:01	26012020	260120	234301	283.560	12.286532	-56.602122	283.640	-0.490	0.060	0.250	283.580	-1.300	0.600																			1580082181.0	12.08	22.37
26/01/2020 23:43:02	26012020	260120	234302	283.660	12.286543	-56.602178	283.730	-0.300	0.060	0.170	283.670	-1.300	0.500																			1580082182.0	12.40	22.96
26/01/2020 23:43:03	26012020	260120	234303	283.710	12.286557	-56.602237	283.760	-0.010	0.060	0.210	283.710	-1.300	0.600																			1580082183.0	12.65	23.43
26/01/2020 23:43:04	26012020	260120	234304	283.660	12.286570	-56.602295	283.670	0.170	0.280	0.420	283.620	-1.100	0.800																			1580082184.0	12.55	23.24
26/01/2020 23:43:05	26012020	260120	234305	283.480	12.286583	-56.602350	283.380	0.150	0.640	0.660	283.420	-0.800	1.000																			1580082185.0	12.14	22.48
26/01/2020 23:43:06	26012020	260120	234306	283.020	12.286597	-56.602405	282.960	0.010	0.740	0.700	282.930	-0.600	1.100																			1580082186.0	11.74	21.74
26/01/2020 23:43:07	26012020	260120	234307	282.590	12.286610	-56.602458	282.540	-0.040	0.260	0.460	282.510	-1.000	0.900																			1580082187.0	11.75	21.76
26/01/2020 23:43:08	26012020	260120	234308	282.320	12.286620	-56.602515	282.330	0.140	-0.680	0.090	282.300	-1.900	0.500																			1580082188.0	12.17	22.54
26/01/2020 23:43:09	26012020	260120	234309	282.340	12.286632	-56.602573	282.420	0.460	-1.530	-0.220	282.380	-2.800	0.200																			1580082189.0	12.53	23.21
26/01/2020 23:43:10	26012020	260120	234310	282.590	12.286642	-56.602630	282.700	0.630	-1.710	-0.330	282.650	-3.100	0.000																			1580082190.0	12.44	23.04
26/01/2020 23:43:11	26012020	260120	234311	282.910	12.286655	-56.602685	283.000	0.440	-1.180	-0.200	282.960	-2.600	0.100																			1580082191.0	11.91	22.06
26/01/2020 23:43:12	26012020	260120	234312	283.120	12.286668	-56.602738	283.190	-0.040	-0.420	0.030	283.150	-1.900	0.400																			1580082192.0	11.44	21.19
26/01/2020 23:43:13	26012020	260120	234313	283.200	12.286680	-56.602790	283.240	-0.550	0.080	0.220	283.200	-1.300	0.600																			1580082193.0	11.45	21.21
26/01/2020 23:43:14	26012020	260120	234314	283.190	12.286690	-56.602847	283.240	-0.740	0.070	0.280	283.190	-1.300	0.700																			1580082194.0	11.92	22.08
26/01/2020 23:43:15	26012020	260120	234315	283.170	12.286702	-56.602905	283.220	-0.480	-0.240	0.250	283.170	-1.600	0.600																			1580082195.0	12.54	23.22
26/01/2020 23:43:16	26012020	260120	234316	283.150	12.286712	-56.602965	283.180	0.020	-0.410	0.250	283.140	-1.800	0.600																			1580082196.0	12.91	23.91
26/01/2020 23:43:17	26012020	260120	234317	283.100	12.286725	-56.603023	283.090	0.360	-0.180	0.370	283.070	-1.600	0.700																			1580082197.0	12.76	23.63
26/01/2020 23:43:18	26012020	260120	234318	282.860	12.286738	-56.603080	282.830	0.300	0.370	0.590	282.800	-1.100	0.900																			1580082198.0	12.28	22.74
26/01/2020 23:43:19	26012020	260120	234319	282.460	12.286753	-56.603133	282.390	-0.080	0.860	0.780	282.370	-0.600	1.100																			1580082199.0	11.81	21.87
26/01/2020 23:43:20	26012020	260120	234320	281.950	12.286767	-56.603187	281.890	-0.450	0.860	0.780	281.850	-0.500	1.200																			1580082200.0	11.63	21.54
26/01/2020 23:43:21	26012020	260120	234321	281.540	12.286778	-56.603242	281.540	-0.470	0.210	0.460	281.490	-1.100	0.900																			1580082201.0	11.91	22.06
26/01/2020 23:43:22	26012020	260120	234322	281.410	12.286787	-56.603300	281.470	-0.090	-0.740	0.070	281.420	-2.000	0.500																			1580082202.0	12.42	23.00
26/01/2020 23:43:23	26012020	260120	234323	281.490	12.286797	-56.603358	281.580	0.470	-1.380	-0.050	281.530	-2.700	0.300																			1580082203.0	12.59	23.32
26/01/2020 23:43:24	26012020	260120	234324	281.670	12.286807	-56.603415	281.780	0.840	-1.400	0.170	281.720	-2.800	0.500																			1580082204.0	12.27	22.72
26/01/2020 23:43:25	26012020	260120	234325	281.880	12.286822	-56.603470	281.990	0.770	-0.950	0.530	281.920	-2.400	0.900																			1580082205.0	11.78	21.82
26/01/2020 23:43:26	26012020	260120	234326	282.060	12.286835	-56.603522	282.150	0.340	-0.450	0.780	282.090	-1.900	1.100																			1580082206.0	11.52	21.34
26/01/2020 23:43:27	26012020	260120	234327	282.180	12.286848	-56.603575	282.260	-0.170	-0.190	0.790	282.200	-1.600	1.200																			1580082207.0	11.62	21.52
26/01/2020 23:43:28	26012020	260120	234328	282.260	12.286860	-56.603632	282.330	-0.490	-0.210	0.640	282.270	-1.600	1.000																			1580082208.0	12.02	22.26
26/01/2020 23:43:29	26012020	260120	234329	282.280	12.286870	-56.603688	282.320	-0.520	-0.300	0.470	282.270	-1.700	0.900																			1580082209.0	12.41	22.98
26/01/2020 23:43:30	26012020	260120	234330	282.200	12.286878	-56.603748	282.210	-0.380	-0.260	0.430	282.170	-1.700	0.800																			1580082210.0	12.55	23.24
26/01/2020 23:43:31	26012020	260120	234331	282.040	12.286888	-56.603805	282.050	-0.240	-0.060	0.530	282.010	-1.500	0.900																			1580082211.0	12.45	23.06
26/01/2020 23:43:32	26012020	260120	234332	281.840	12.286900	-56.603862	281.840	-0.180	0.260	0.750	281.800	-1.200	1.100																			1580082212.0	12.26	22.71
26/01/2020 23:43:33	26012020	260120	234333	281.610	12.286912	-56.603918	281.640	-0.160	0.530	0.960	281.580	-0.900	1.300																			1580082213.0	12.04	22.30
26/01/2020 23:43:34	26012020	260120	234334	281.410	12.286923	-56.603973	281.430	-0.090	0.550	1.130	281.370	-0.800	1.500																			1580082214.0	11.94	22.11
26/01/2020 23:43:35	26012020	260120	234335	281.220	12.286935	-56.604028	281.250	0.070	0.190	1.110	281.190	-1.100	1.500																			1580082215.0	12.04	22.30
26/01/2020 23:43:36	26012020	260120	234336	281.110	12.286947	-56.604085	281.160	0.310	-0.360	0.940	281.100	-1.700	1.300																			1580082216.0	12.23	22.65
26/01/2020 23:43:37	26012020	260120	234337	281.140	12.286957	-56.604142	281.230	0.520	-0.790	0.740	281.160	-2.100	1.100																			1580082217.0	12.23	22.65
26/01/2020 23:43:38	26012020	260120	234338	281.290	12.286968	-56.604198	281.390	0.610	-0.990	0.610	281.320	-2.400	1.000																			1580082218.0	12.05	22.32
26/01/2020 23:43:39	26012020	260120	234339	281.430	12.286980	-56.604253	281.550	0.500	-0.940	0.560	281.470	-2.300	0.900																			1580082219.0	11.85	21.95
26/01/2020 23:43:40	26012020	260120	234340	281.580	12.286992	-56.604307	281.640	0.220	-0.750	0.520	281.590	-2.200	0.900																			1580082220.0	11.73	21.72
26/01/2020 23:43:41	26012020	260120	234341	281.600	12.287002	-56.604362	281.650	-0.100	-0.580	0.460	281.610	-2.000	0.800																			1580082221.0	11.77	21.80
26/01/2020 23:43:42	26012020	260120	234342	281.630	12.287013	-56.604417	281.680	-0.330	-0.500	0.400	281.640	-1.900	0.800																			1580082222.0	11.97	22.17
26/01/2020 23:43:43	26012020	260120	234343	281.680	12.287022	-56.604475	281.740	-0.430	-0.430	0.380	281.690	-1.800	0.800																			1580082223.0	12.27	22.72
26/01/2020 23:43:44	26012020	260120	234344	281.740	12.287032	-56.604532	281.790	-0.400	-0.220	0.440	281.740	-1.600	0.800																			1580082224.0	12.37	22.91
26/01/2020 23:43:45	26012020	260120	234345	281.770	12.287042	-56.604590	281.830	-0.310	0.050	0.510	281.780	-1.400	0.900																			1580082225.0	12.30	22.78
26/01/2020 23:43:46	26012020	260120	234346	281.810	12.287052	-56.604647	281.860	-0.220	0.230	0.610	281.820	-1.200	1.000																			1580082226.0	12.25	22.69
26/01/2020 23:43:47	26012020	260120	234347	281.830	12.287063	-56.604703	281.870	-0.130	0.280	0.810	281.830	-1.100	1.200																			1580082227.0	12.31	22.80
26/01/2020 23:43:48	26012020	260120	234348	281.790	12.287075	-56.604760	281.820	-0.070	0.300	1.030	281.770	-1.100	1.400																			1580082228.0	12.30	22.78
26/01/2020 23:43:49	26012020	260120	234349	281.650	12.287087	-56.604817	281.650	-0.060	0.290	1.110	281.600	-1.100	1.500																			1580082229.0	12.13	22.46
26/01/2020 23:43:50	26012020	260120	234350	281.410	12.287098	-56.604872	281.390	-0.040	0.100	0.960	281.350	-1.300	1.400																			1580082230.0	11.95	22.13
26/01/2020 23:43:51	26012020	260120	234351	281.150	12.287107	-56.604928	281.140	0.070	-0.320	0.650	281.110	-1.600	1.100																			1580082231.0	11.97	22.17
26/01/2020 23:43:52	26012020	260120	234352	281.000	12.287117	-56.604985	281.030	0.270	-0.810	0.340	280.990	-2.100	0.700																			1580082232.0	12.15	22.50
26/01/2020 23:43:53	26012020	260120	234353	281.010	12.287127	-56.605042	281.110	0.460	-1.080	0.060	281.030	-2.400	0.500																			1580082233.0	12.20	22.59
26/01/2020 23:43:54	26012020	260120	234354	281.270	12.287137	-56.605097	281.350	0.540	-1.000	-0.070	281.330	-2.400	0.300																			1580082234.0	12.02	22.26
26/01/2020 23:43:55	26012020	260120	234355	281.610	12.287148	-56.605152	281.720	0.440	-0.630	-0.030	281.670	-2.100	0.300																			1580082235.0	11.80	21.85
26/01/2020 23:43:56	26012020	260120	234356	281.910	12.287160	-56.605205	282.000	0.150	-0.260	0.150	281.950	-1.700	0.500																			1580082236.0	11.72	21.71
26/01/2020 23:43:57	26012020	260120	234357	282.110	12.287172	-56.605260	282.190	-0.260	-0.010	0.280	282.140	-1.400	0.600																			1580082237.0	11.83	21.91
26/01/2020 23:43:58	26012020	260120	234358	282.240	12.287183	-56.605317	282.300	-0.590	0.020	0.320	282.260	-1.400	0.700																			1580082238.0	12.00	22.22
26/01/2020 23:43:59	26012020	260120	234359	282.330	12.287192	-56.605373	282.390	-0.650	-0.220	0.240	282.340	-1.600	0.600																			1580082239.0	12.27	22.72
26/01/2020 23:44:00	26012020	260120	234400	282.410	12.287200	-56.605432	282.450	-0.390	-0.530	0.130	282.420	-1.900	0.500	1015.30	26.00	26.00	21.20	21.20	-2.00	75.00	74.00	378.00	24.80	35.00	2.80	80.00	4.30	15	3850.00	27.50	27.50	1580082240.0	12.58	23.30
26/01/2020 23:44:01	26012020	260120	234401	282.420	12.287210	-56.605492	282.440	-0.000	-0.640	0.180	282.410	-2.000	0.500																			1580082241.0	12.71	23.54
26/01/2020 23:44:02	26012020	260120	234402	282.270	12.287222	-56.605550	282.240	0.210	-0.380	0.440	282.220	-1.800	0.800																			1580082242.0	12.53	23.21
26/01/2020 23:44:03	26012020	260120	234403	281.970	12.287233	-56.605605	281.910	0.090	0.160	0.700	281.890	-1.300	1.100																			1580082243.0	12.12	22.45
26/01/2020 23:44:04	26012020	260120	234404	281.640	12.287247	-56.605660	281.610	-0.180	0.570	0.670	281.590	-0.800	1.100																			1580082244.0	11.76	21.78
26/01/2020 23:44:05	26012020	260120	234405	281.450	12.287257	-56.605713	281.460	-0.310	0.520	0.310	281.430	-0.800	0.700																			1580082245.0	11.77	21.80
26/01/2020 23:44:06	26012020	260120	234406	281.430	12.287267	-56.605770	281.480	-0.170	0.030	-0.080	281.450	-1.300	0.300																			1580082246.0	12.14	22.48
26/01/2020 23:44:07	26012020	260120	234407	281.520	12.287277	-56.605828	281.620	0.090	-0.520	-0.320	281.550	-1.800	0.100																			1580082247.0	12.42	23.00
26/01/2020 23:44:08	26012020	260120	234408	281.790	12.287287	-56.605887	281.880	0.260	-0.830	-0.320	281.850	-2.200	0.000																			1580082248.0	12.37	22.91
26/01/2020 23:44:09	26012020	260120	234409	282.110	12.287298	-56.605942	282.220	0.290	-0.850	-0.140	282.170	-2.200	0.200																			1580082249.0	12.07	22.35
26/01/2020 23:44:10	26012020	260120	234410	282.400	12.287310	-56.605997	282.480	0.230	-0.640	0.150	282.440	-2.000	0.500																			1580082250.0	11.82	21.89
26/01/2020 23:44:11	26012020	260120	234411	282.530	12.287322	-56.606050	282.580	0.130	-0.360	0.470	282.540	-1.800	0.800																			1580082251.0	11.72	21.71
26/01/2020 23:44:12	26012020	260120	234412	282.540	12.287333	-56.606105	282.580	0.020	-0.210	0.690	282.530	-1.600	1.000																			1580082252.0	11.75	21.76
26/01/2020 23:44:13	26012020	260120	234413	282.490	12.287345	-56.606160	282.530	-0.070	-0.270	0.660	282.480	-1.600	1.000																			1580082253.0	11.97	22.17
26/01/2020 23:44:14	26012020	260120	234414	282.440	12.287357	-56.606217	282.470	-0.080	-0.440	0.470	282.430	-1.800	0.900																			1580082254.0	12.26	22.71
26/01/2020 23:44:15	26012020	260120	234415	282.420	12.287367	-56.606275	282.470	-0.010	-0.530	0.320	282.420	-1.900	0.700																			1580082255.0	12.45	23.06
26/01/2020 23:44:16	26012020	260120	234416	282.480	12.287377	-56.606333	282.550	0.110	-0.430	0.300	282.500	-1.800	0.700																			1580082256.0	12.43	23.02
26/01/2020 23:44:17	26012020	260120	234417	282.570	12.287390	-56.606390	282.630	0.170	-0.140	0.490	282.580	-1.600	0.800																			1580082257.0	12.28	22.74
26/01/2020 23:44:18	26012020	260120	234418	282.550	12.287403	-56.606445	282.570	0.120	0.190	0.770	282.520	-1.200	1.100																			1580082258.0	12.13	22.46
26/01/2020 23:44:19	26012020	260120	234419	282.360	12.287417	-56.606500	282.340	-0.060	0.390	0.920	282.310	-1.000	1.300																			1580082259.0	12.04	22.30
26/01/2020 23:44:20	26012020	260120	234420	282.080	12.287430	-56.606555	282.060	-0.340	0.340	0.750	282.030	-1.000	1.200																			1580082260.0	12.04	22.30
26/01/2020 23:44:21	26012020	260120	234421	281.880	12.287438	-56.606612	281.900	-0.590	0.010	0.270	281.860	-1.300	0.700																			1580082261.0	12.08	22.37
26/01/2020 23:44:22	26012020	260120	234422	281.910	12.287447	-56.606670	282.000	-0.580	-0.540	-0.290	281.960	-1.800	0.100																			1580082262.0	12.23	22.65
26/01/2020 23:44:23	26012020	260120	234423	282.270	12.287452	-56.606728	282.420	-0.200	-1.060	-0.650	282.370	-2.400	-0.200																			1580082263.0	12.37	22.91
26/01/2020 23:44:24	26012020	260120	234424	282.800	12.287460	-56.606785	282.960	0.350	-1.270	-0.580	282.910	-2.600	-0.200																			1580082264.0	12.39	22.95
26/01/2020 23:44:25	26012020	260120	234425	283.270	12.287473	-56.606842	283.390	0.730	-0.950	-0.090	283.340	-2.400	0.200																			1580082265.0	12.18	22.56
26/01/2020 23:44:26	26012020	260120	234426	283.540	12.287488	-56.606895	283.610	0.710	-0.310	0.470	283.560	-1.700	0.800																			1580082266.0	11.85	21.95
26/01/2020 23:44:27	26012020	260120	234427	283.560	12.287503	-56.606948	283.600	0.330	0.340	0.890	283.540	-1.000	1.300																			1580082267.0	11.58	21.45
26/01/2020 23:44:28	26012020	260120	234428	283.410	12.287518	-56.607002	283.420	-0.140	0.530	0.860	283.370	-0.800	1.300																			1580082268.0	11.69	21.65
26/01/2020 23:44:29	26012020	260120	234429	283.220	12.287530	-56.607058	283.250	-0.310	0.170	0.500	283.190	-1.100	0.900																			1580082269.0	12.16	22.52
26/01/2020 23:44:30	26012020	260120	234430	283.080	12.287540	-56.607117	283.110	-0.230	-0.240	0.160	283.040	-1.600	0.500																			1580082270.0	12.61	23.35
26/01/2020 23:44:31	26012020	260120	234431	282.890	12.287550	-56.607175	282.920	-0.080	-0.430	0.040	282.850	-1.800	0.400																			1580082271.0	12.61	23.35
26/01/2020 23:44:32	26012020	260120	234432	282.660	12.287560	-56.607232	282.700	-0.040	-0.300	0.170	282.630	-1.700	0.500																			1580082272.0	12.17	22.54
26/01/2020 23:44:33	26012020	260120	234433	282.530	12.287572	-56.607287	282.580	-0.100	-0.160	0.380	282.520	-1.500	0.700																			1580082273.0	11.80	21.85
26/01/2020 23:44:34	26012020	260120	234434	282.550	12.287583	-56.607340	282.640	-0.090	-0.300	0.430	282.580	-1.700	0.800																			1580082274.0	11.82	21.89
26/01/2020 23:44:35	26012020	260120	234435	282.730	12.287597	-56.607397	282.850	0.100	-0.730	0.310	282.770	-2.000	0.700																			1580082275.0	12.16	22.52
26/01/2020 23:44:36	26012020	260120	234436	282.950	12.287608	-56.607455	283.050	0.270	-0.980	0.170	282.990	-2.400	0.500																			1580082276.0	12.46	23.08
26/01/2020 23:44:37	26012020	260120	234437	283.170	12.287620	-56.607512	283.260	0.300	-0.890	0.070	283.210	-2.300	0.400																			1580082277.0	12.41	22.98
26/01/2020 23:44:38	26012020	260120	234438	283.370	12.287632	-56.607568	283.450	0.090	-0.400	0.020	283.400	-1.800	0.400																			1580082278.0	12.08	22.37
26/01/2020 23:44:39	26012020	260120	234439	283.510	12.287643	-56.607622	283.580	-0.200	0.150	-0.010	283.530	-1.200	0.400																			1580082279.0	11.76	21.78
26/01/2020 23:44:40	26012020	260120	234440	283.580	12.287655	-56.607677	283.630	-0.380	0.380	0.020	283.580	-1.000	0.400																			1580082280.0	11.77	21.80
26/01/2020 23:44:41	26012020	260120	234441	283.600	12.287667	-56.607733	283.670	-0.300	0.150	0.110	283.610	-1.200	0.500																			1580082281.0	12.13	22.46
26/01/2020 23:44:42	26012020	260120	234442	283.660	12.287678	-56.607790	283.730	-0.070	-0.220	0.280	283.670	-1.600	0.600																			1580082282.0	12.50	23.15
26/01/2020 23:44:43	26012020	260120	234443	283.690	12.287693	-56.607848	283.740	0.120	-0.390	0.530	283.690	-1.800	0.900																			1580082283.0	12.58	23.30
26/01/2020 23:44:44	26012020	260120	234444	283.600	12.287707	-56.607905	283.650	0.150	-0.250	0.730	283.570	-1.600	1.100																			1580082284.0	12.31	22.80
26/01/2020 23:44:45	26012020	260120	234445	283.390	12.287720	-56.607960	283.410	0.010	0.100	0.770	283.350	-1.300	1.200																			1580082285.0	11.87	21.98
26/01/2020 23:44:46	26012020	260120	234446	283.170	12.287732	-56.608013	283.200	-0.130	0.200	0.610	283.130	-1.200	1.000																			1580082286.0	11.64	21.56
26/01/2020 23:44:47	26012020	260120	234447	283.000	12.287742	-56.608068	283.040	-0.110	-0.170	0.290	282.990	-1.500	0.700																			1580082287.0	11.81	21.87
26/01/2020 23:44:48	26012020	260120	234448	282.950	12.287752	-56.608125	283.010	0.120	-0.760	0.050	282.960	-2.100	0.400																			1580082288.0	12.27	22.72
26/01/2020 23:44:49	26012020	260120	234449	283.030	12.287762	-56.608183	283.120	0.490	-1.300	-0.120	283.060	-2.600	0.300																			1580082289.0	12.59	23.32
26/01/2020 23:44:50	26012020	260120	234450	283.210	12.287775	-56.608242	283.290	0.650	-1.240	-0.120	283.250	-2.600	0.300																			1580082290.0	12.48	23.11
26/01/2020 23:44:51	26012020	260120	234451	283.410	12.287788	-56.608297	283.490	0.550	-0.660	0.110	283.440	-2.000	0.500																			1580082291.0	12.05	22.32
26/01/2020 23:44:52	26012020	260120	234452	283.530	12.287803	-56.608350	283.580	0.150	0.120	0.380	283.540	-1.300	0.800																			1580082292.0	11.68	21.63
26/01/2020 23:44:53	26012020	260120	234453	283.530	12.287817	-56.608402	283.580	-0.360	0.630	0.450	283.520	-0.800	0.800																			1580082293.0	11.59	21.46
26/01/2020 23:44:54	26012020	260120	234454	283.490	12.287830	-56.608457	283.530	-0.670	0.530	0.250	283.480	-0.900	0.600																			1580082294.0	11.91	22.06
26/01/2020 23:44:55	26012020	260120	234455	283.480	12.287840	-56.608515	283.530	-0.590	-0.070	-0.020	283.490	-1.400	0.400																			1580082295.0	12.47	23.09
26/01/2020 23:44:56	26012020	260120	234456	283.530	12.287850	-56.608575	283.580	-0.200	-0.670	-0.050	283.540	-2.000	0.300																			1580082296.0	12.88	23.85
26/01/2020 23:44:57	26012020	260120	234457	283.550	12.287863	-56.608635	283.580	0.190	-0.780	0.290	283.540	-2.200	0.700																			1580082297.0	12.74	23.59
26/01/2020 23:44:58	26012020	260120	234458	283.420	12.287877	-56.608690	283.440	0.270	-0.390	0.660	283.380	-1.800	1.000																			1580082298.0	12.14	22.48
26/01/2020 23:44:59	26012020	260120	234459	283.210	12.287892	-56.608743	283.230	0.020	0.020	0.750	283.160	-1.400	1.100																			1580082299.0	11.62	21.52
26/01/2020 23:45:00	26012020	260120	234500	283.020	12.287903	-56.608797	283.050	-0.280	0.020	0.470	282.990	-1.400	0.800	1015.40	26.00	26.00	21.20	21.20	-1.00	75.00	74.00	378.00	24.80	40.00	2.80	79.00	4.50	15	3935.00	27.50	27.50	1580082300.0	11.65	21.58
26/01/2020 23:45:01	26012020	260120	234501	282.950	12.287913	-56.608853	283.000	-0.370	-0.290	0.070	282.950	-1.700	0.500																			1580082301.0	12.10	22.41
26/01/2020 23:45:02	26012020	260120	234502	283.020	12.287922	-56.608910	283.080	-0.220	-0.540	-0.160	283.040	-1.900	0.200																			1580082302.0	12.39	22.95
26/01/2020 23:45:03	26012020	260120	234503	283.150	12.287932	-56.608968	283.220	0.070	-0.540	-0.070	283.170	-1.900	0.300																			1580082303.0	12.28	22.74
26/01/2020 23:45:04	26012020	260120	234504	283.280	12.287945	-56.609023	283.360	0.380	-0.360	0.260	283.310	-1.700	0.600																			1580082304.0	12.06	22.34
26/01/2020 23:45:05	26012020	260120	234505	283.370	12.287958	-56.609078	283.450	0.610	-0.120	0.700	283.380	-1.500	1.100																			1580082305.0	11.98	22.19
26/01/2020 23:45:06	26012020	260120	234506	283.360	12.287975	-56.609133	283.410	0.650	0.090	1.080	283.330	-1.300	1.400																			1580082306.0	11.97	22.17
26/01/2020 23:45:07	26012020	260120	234507	283.210	12.287990	-56.609187	283.250	0.470	0.140	1.130	283.170	-1.200	1.500																			1580082307.0	11.97	22.17
26/01/2020 23:45:08	26012020	260120	234508	283.040	12.288005	-56.609242	283.080	0.140	-0.040	0.760	283.020	-1.400	1.100																			1580082308.0	12.04	22.30
26/01/2020 23:45:09	26012020	260120	234509	282.930	12.288017	-56.609298	282.970	-0.180	-0.370	0.250	282.920	-1.700	0.600																			1580082309.0	12.20	22.59
26/01/2020 23:45:10	26012020	260120	234510	282.890	12.288025	-56.609355	282.930	-0.350	-0.660	-0.110	282.890	-2.000	0.300																			1580082310.0	12.29	22.76
26/01/2020 23:45:11	26012020	260120	234511	282.890	12.288035	-56.609413	282.940	-0.360	-0.780	-0.180	282.900	-2.200	0.200																			1580082311.0	12.22	22.63
26/01/2020 23:45:12	26012020	260120	234512	282.910	12.288045	-56.609468	282.940	-0.280	-0.760	-0.030	282.900	-2.100	0.300																			1580082312.0	12.11	22.43
26/01/2020 23:45:13	26012020	260120	234513	282.870	12.288057	-56.609525	282.900	-0.190	-0.650	0.190	282.860	-2.000	0.600																			1580082313.0	12.11	22.43
26/01/2020 23:45:14	26012020	260120	234514	282.830	12.288070	-56.609580	282.870	-0.110	-0.420	0.380	282.830	-1.800	0.800																			1580082314.0	12.12	22.45
26/01/2020 23:45:15	26012020	260120	234515	282.820	12.288082	-56.609637	282.860	-0.090	-0.170	0.550	282.820	-1.500	0.900																			1580082315.0	12.10	22.41
26/01/2020 23:45:16	26012020	260120	234516	282.780	12.288095	-56.609693	282.810	-0.100	0.010	0.610	282.770	-1.400	1.000																			1580082316.0	12.12	22.45
26/01/2020 23:45:17	26012020	260120	234517	282.730	12.288107	-56.609748	282.750	-0.100	0.110	0.520	282.720	-1.300	0.900																			1580082317.0	12.19	22.58
26/01/2020 23:45:18	26012020	260120	234518	282.740	12.288118	-56.609805	282.760	-0.070	0.120	0.360	282.750	-1.300	0.700																			1580082318.0	12.21	22.61
26/01/2020 23:45:19	26012020	260120	234519	282.800	12.288130	-56.609862	282.820	-0.010	0.050	0.290	282.810	-1.300	0.700																			1580082319.0	12.23	22.65
26/01/2020 23:45:20	26012020	260120	234520	282.830	12.288142	-56.609918	282.850	0.080	-0.050	0.400	282.830	-1.400	0.800																			1580082320.0	12.21	22.61
26/01/2020 23:45:21	26012020	260120	234521	282.800	12.288155	-56.609975	282.770	0.170	-0.100	0.660	282.770	-1.500	1.000																			1580082321.0	12.15	22.50
26/01/2020 23:45:22	26012020	260120	234522	282.580	12.288168	-56.610030	282.580	0.240	-0.110	0.960	282.540	-1.500	1.300																			1580082322.0	12.00	22.22
26/01/2020 23:45:23	26012020	260120	234523	282.340	12.288180	-56.610085	282.340	0.260	-0.190	1.110	282.300	-1.600	1.500																			1580082323.0	11.88	22.00
26/01/2020 23:45:24	26012020	260120	234524	282.140	12.288193	-56.610138	282.140	0.290	-0.460	1.040	282.100	-1.800	1.400																			1580082324.0	11.92	22.08
26/01/2020 23:45:25	26012020	260120	234525	282.000	12.288205	-56.610195	282.010	0.390	-0.830	0.770	281.980	-2.200	1.100																			1580082325.0	12.14	22.48
26/01/2020 23:45:26	26012020	260120	234526	281.910	12.288217	-56.610252	281.920	0.460	-0.990	0.520	281.890	-2.400	0.900																			1580082326.0	12.29	22.76
26/01/2020 23:45:27	26012020	260120	234527	281.860	12.288228	-56.610308	281.880	0.350	-0.790	0.370	281.860	-2.200	0.700																			1580082327.0	12.17	22.54
26/01/2020 23:45:28	26012020	260120	234528	281.900	12.288240	-56.610363	281.930	-0.040	-0.370	0.260	281.920	-1.800	0.600																			1580082328.0	11.92	22.08
26/01/2020 23:45:29	26012020	260120	234529	282.020	12.288250	-56.610418	282.070	-0.520	-0.040	0.180	282.050	-1.400	0.500																			1580082329.0	11.82	21.89
26/01/2020 23:45:30	26012020	260120	234530	282.220	12.288262	-56.610475	282.270	-0.820	-0.020	0.130	282.260	-1.400	0.500																			1580082330.0	12.03	22.28
26/01/2020 23:45:31	26012020	260120	234531	282.450	12.288270	-56.610532	282.510	-0.800	-0.170	0.190	282.500	-1.600	0.600																			1580082331.0	12.39	22.95
26/01/2020 23:45:32	26012020	260120	234532	282.650	12.288280	-56.610590	282.700	-0.550	-0.270	0.420	282.680	-1.600	0.800																			1580082332.0	12.55	23.24
26/01/2020 23:45:33	26012020	260120	234533	282.740	12.288292	-56.610648	282.780	-0.290	-0.210	0.730	282.740	-1.600	1.100																			1580082333.0	12.37	22.91
26/01/2020 23:45:34	26012020	260120	234534	282.750	12.288303	-56.610703	282.790	-0.050	-0.120	1.000	282.750	-1.500	1.400																			1580082334.0	12.15	22.50
26/01/2020 23:45:35	26012020	260120	234535	282.720	12.288315	-56.610760	282.760	0.230	-0.160	1.140	282.710	-1.500	1.500																			1580082335.0	12.12	22.45
26/01/2020 23:45:36	26012020	260120	234536	282.590	12.288328	-56.610817	282.600	0.500	-0.270	1.110	282.550	-1.600	1.500																			1580082336.0	12.24	22.67
26/01/2020 23:45:37	26012020	260120	234537	282.320	12.288340	-56.610873	282.300	0.630	-0.240	0.920	282.250	-1.600	1.300																			1580082337.0	12.24	22.67
26/01/2020 23:45:38	26012020	260120	234538	282.010	12.288353	-56.610928	281.990	0.510	-0.050	0.650	281.950	-1.400	1.000																			1580082338.0	12.01	22.24
26/01/2020 23:45:39	26012020	260120	234539	281.800	12.288363	-56.610983	281.790	0.200	0.070	0.330	281.780	-1.300	0.700																			1580082339.0	11.80	21.85
26/01/2020 23:45:40	26012020	260120	234540	281.750	12.288373	-56.611038	281.750	-0.080	-0.040	0.020	281.750	-1.400	0.400																			1580082340.0	11.85	21.95
26/01/2020 23:45:41	26012020	260120	234541	281.770	12.288383	-56.611095	281.770	-0.190	-0.280	-0.120	281.770	-1.700	0.300																			1580082341.0	12.08	22.37
26/01/2020 23:45:42	26012020	260120	234542	281.760	12.288393	-56.611152	281.760	-0.130	-0.460	0.040	281.760	-1.800	0.400																			1580082342.0	12.18	22.56
26/01/2020 23:45:43	26012020	260120	234543	281.740	12.288407	-56.611207	281.760	-0.000	-0.520	0.390	281.740	-1.900	0.800																			1580082343.0	12.10	22.41
26/01/2020 23:45:44	26012020	260120	234544	281.760	12.288418	-56.611262	281.800	0.090	-0.570	0.650	281.770	-1.900	1.000																			1580082344.0	12.04	22.30
26/01/2020 23:45:45	26012020	260120	234545	281.830	12.288430	-56.611318	281.900	0.110	-0.690	0.680	281.860	-2.100	1.000																			1580082345.0	12.10	22.41
26/01/2020 23:45:46	26012020	260120	234546	281.970	12.288443	-56.611375	282.020	0.040	-0.770	0.540	281.990	-2.100	0.900																			1580082346.0	12.23	22.65
26/01/2020 23:45:47	26012020	260120	234547	282.060	12.288453	-56.611432	282.140	-0.120	-0.690	0.350	282.090	-2.100	0.700																			1580082347.0	12.25	22.69
26/01/2020 23:45:48	26012020	260120	234548	282.250	12.288463	-56.611488	282.300	-0.320	-0.460	0.150	282.280	-1.800	0.500																			1580082348.0	12.16	22.52
26/01/2020 23:45:49	26012020	260120	234549	282.440	12.288473	-56.611545	282.490	-0.460	-0.210	-0.000	282.470	-1.600	0.400																			1580082349.0	12.12	22.45
26/01/2020 23:45:50	26012020	260120	234550	282.580	12.288483	-56.611602	282.630	-0.460	-0.010	0.020	282.600	-1.400	0.400																			1580082350.0	12.18	22.56
26/01/2020 23:45:51	26012020	260120	234551	282.630	12.288493	-56.611658	282.660	-0.350	0.150	0.220	282.620	-1.200	0.600																			1580082351.0	12.23	22.65
26/01/2020 23:45:52	26012020	260120	234552	282.590	12.288505	-56.611715	282.620	-0.190	0.240	0.440	282.580	-1.100	0.800																			1580082352.0	12.24	22.67
26/01/2020 23:45:53	26012020	260120	234553	282.520	12.288517	-56.611772	282.540	-0.010	0.190	0.660	282.490	-1.200	1.000																			1580082353.0	12.24	22.67
26/01/2020 23:45:54	26012020	260120	234554	282.360	12.288528	-56.611828	282.370	0.170	0.070	0.890	282.320	-1.300	1.300																			1580082354.0	12.27	22.72
26/01/2020 23:45:55	26012020	260120	234555	282.110	12.288542	-56.611885	282.100	0.330	-0.030	1.070	282.040	-1.400	1.400																			1580082355.0	12.22	22.63
26/01/2020 23:45:56	26012020	260120	234556	281.750	12.288553	-56.611940	281.720	0.400	-0.110	1.110	281.660	-1.500	1.500																			1580082356.0	12.05	22.32
26/01/2020 23:45:57	26012020	260120	234557	281.360	12.288565	-56.611995	281.340	0.400	-0.270	0.930	281.300	-1.600	1.300																			1580082357.0	11.91	22.06
26/01/2020 23:45:58	26012020	260120	234558	281.100	12.288577	-56.612050	281.110	0.390	-0.570	0.590	281.080	-1.900	1.000																			1580082358.0	11.95	22.13
26/01/2020 23:45:59	26012020	260120	234559	281.080	12.288587	-56.612107	281.100	0.370	-0.890	0.210	281.100	-2.300	0.600																			1580082359.0	12.09	22.39
26/01/2020 23:46:00	26012020	260120	234600	281.250	12.288598	-56.612163	281.290	0.260	-1.020	-0.160	281.300	-2.400	0.200	1015.30	26.00	26.00	21.20	21.20	-1.00	75.00	74.00	379.00	24.90	41.00	2.80	78.00	4.50	15	3899.00	27.50	27.50	1580082360.0	12.16	22.52
26/01/2020 23:46:01	26012020	260120	234601	281.560	12.288608	-56.612220	281.610	-0.040	-0.810	-0.390	281.630	-2.200	-0.000																			1580082361.0	12.06	22.34
26/01/2020 23:46:02	26012020	260120	234602	281.940	12.288617	-56.612275	282.010	-0.450	-0.400	-0.380	282.030	-1.800	-0.000																			1580082362.0	11.83	21.91
26/01/2020 23:46:03	26012020	260120	234603	282.360	12.288627	-56.612330	282.420	-0.740	-0.120	-0.210	282.450	-1.500	0.100																			1580082363.0	11.79	21.84
26/01/2020 23:46:04	26012020	260120	234604	282.760	12.288637	-56.612385	282.830	-0.680	-0.170	-0.050	282.830	-1.500	0.300																			1580082364.0	12.08	22.37
26/01/2020 23:46:05	26012020	260120	234605	283.100	12.288647	-56.612443	283.160	-0.280	-0.410	0.140	283.160	-1.800	0.500																			1580082365.0	12.54	23.22
26/01/2020 23:46:06	26012020	260120	234606	283.320	12.288658	-56.612503	283.370	0.210	-0.510	0.420	283.340	-1.900	0.800																			1580082366.0	12.78	23.67
26/01/2020 23:46:07	26012020	260120	234607	283.330	12.288672	-56.612562	283.340	0.450	-0.270	0.740	283.300	-1.600	1.100																			1580082367.0	12.63	23.39
26/01/2020 23:46:08	26012020	260120	234608	283.080	12.288685	-56.612617	283.050	0.300	0.250	0.910	282.990	-1.100	1.300																			1580082368.0	12.23	22.65
26/01/2020 23:46:09	26012020	260120	234609	282.600	12.288698	-56.612672	282.540	-0.140	0.720	0.770	282.480	-0.700	1.100																			1580082369.0	11.84	21.93
26/01/2020 23:46:10	26012020	260120	234610	282.040	12.288708	-56.612727	281.980	-0.550	0.810	0.410	281.930	-0.600	0.800																			1580082370.0	11.70	21.67
26/01/2020 23:46:11	26012020	260120	234611	281.580	12.288715	-56.612782	281.560	-0.610	0.350	0.060	281.520	-1.000	0.400																			1580082371.0	11.88	22.00
26/01/2020 23:46:12	26012020	260120	234612	281.370	12.288723	-56.612840	281.380	-0.230	-0.470	-0.190	281.360	-1.800	0.200																			1580082372.0	12.26	22.71
26/01/2020 23:46:13	26012020	260120	234613	281.390	12.288733	-56.612898	281.440	0.400	-1.180	-0.200	281.420	-2.500	0.200																			1580082373.0	12.51	23.17
26/01/2020 23:46:14	26012020	260120	234614	281.610	12.288745	-56.612955	281.670	0.920	-1.360	0.100	281.660	-2.700	0.500																			1580082374.0	12.34	22.85
26/01/2020 23:46:15	26012020	260120	234615	281.930	12.288760	-56.613010	282.020	1.050	-1.030	0.500	282.010	-2.400	0.900																			1580082375.0	11.95	22.13
26/01/2020 23:46:16	26012020	260120	234616	282.300	12.288777	-56.613062	282.390	0.760	-0.460	0.700	282.370	-1.800	1.000																			1580082376.0	11.66	21.59
26/01/2020 23:46:17	26012020	260120	234617	282.640	12.288790	-56.613115	282.710	0.250	-0.040	0.540	282.700	-1.400	0.900																			1580082377.0	11.61	21.50
26/01/2020 23:46:18	26012020	260120	234618	282.910	12.288802	-56.613170	282.970	-0.250	0.060	0.170	282.950	-1.300	0.500																			1580082378.0	11.88	22.00
26/01/2020 23:46:19	26012020	260120	234619	283.130	12.288810	-56.613227	283.180	-0.590	-0.130	-0.240	283.170	-1.500	0.100																			1580082379.0	12.31	22.80
26/01/2020 23:46:20	26012020	260120	234620	283.300	12.288818	-56.613287	283.320	-0.760	-0.330	-0.490	283.310	-1.700	-0.100																			1580082380.0	12.60	23.34
26/01/2020 23:46:21	26012020	260120	234621	283.260	12.288827	-56.613345	283.250	-0.780	-0.300	-0.340	283.220	-1.700	0.000																			1580082381.0	12.54	23.22
26/01/2020 23:46:22	26012020	260120	234622	283.000	12.288837	-56.613402	282.970	-0.700	-0.080	0.060	282.930	-1.500	0.400																			1580082382.0	12.23	22.65
26/01/2020 23:46:23	26012020	260120	234623	282.710	12.288848	-56.613458	282.620	-0.530	0.080	0.470	282.650	-1.300	0.800																			1580082383.0	12.01	22.24
26/01/2020 23:46:24	26012020	260120	234624	282.330	12.288860	-56.613513	282.330	-0.190	0.010	0.790	282.280	-1.400	1.100																			1580082384.0	12.07	22.35
26/01/2020 23:46:25	26012020	260120	234625	282.120	12.288872	-56.613570	282.140	0.290	-0.270	0.960	282.090	-1.600	1.300																			1580082385.0	12.25	22.69
26/01/2020 23:46:26	26012020	260120	234626	282.050	12.288885	-56.613627	282.090	0.790	-0.520	0.930	282.060	-1.900	1.300																			1580082386.0	12.39	22.95
26/01/2020 23:46:27	26012020	260120	234627	282.130	12.288898	-56.613683	282.190	1.090	-0.560	0.820	282.160	-1.900	1.200																			1580082387.0	12.31	22.80
26/01/2020 23:46:28	26012020	260120	234628	282.290	12.288913	-56.613738	282.340	1.020	-0.320	0.670	282.320	-1.700	1.000																			1580082388.0	12.05	22.32
26/01/2020 23:46:29	26012020	260120	234629	282.390	12.288927	-56.613792	282.430	0.550	0.020	0.510	282.410	-1.400	0.900																			1580082389.0	11.75	21.76
26/01/2020 23:46:30	26012020	260120	234630	282.420	12.288938	-56.613847	282.440	-0.110	0.210	0.250	282.420	-1.200	0.600																			1580082390.0	11.61	21.50
26/01/2020 23:46:31	26012020	260120	234631	282.420	12.288948	-56.613900	282.430	-0.630	0.070	-0.120	282.420	-1.300	0.200																			1580082391.0	11.73	21.72
26/01/2020 23:46:32	26012020	260120	234632	282.480	12.288955	-56.613957	282.500	-0.770	-0.400	-0.480	282.510	-1.800	-0.100																			1580082392.0	12.11	22.43
26/01/2020 23:46:33	26012020	260120	234633	282.670	12.288963	-56.614017	282.720	-0.540	-0.890	-0.610	282.730	-2.300	-0.300																			1580082393.0	12.47	23.09
26/01/2020 23:46:34	26012020	260120	234634	282.940	12.288972	-56.614075	282.990	-0.160	-1.060	-0.340	282.990	-2.400	0.000																			1580082394.0	12.51	23.17
26/01/2020 23:46:35	26012020	260120	234635	283.140	12.288985	-56.614132	283.180	0.110	-0.810	0.190	283.160	-2.200	0.500																			1580082395.0	12.25	22.69
26/01/2020 23:46:36	26012020	260120	234636	283.210	12.288998	-56.614185	283.240	0.180	-0.360	0.670	283.210	-1.700	1.000																			1580082396.0	11.96	22.15
26/01/2020 23:46:37	26012020	260120	234637	283.190	12.289012	-56.614240	283.190	0.180	-0.050	0.930	283.170	-1.400	1.300																			1580082397.0	11.93	22.09
26/01/2020 23:46:38	26012020	260120	234638	283.050	12.289025	-56.614297	283.060	0.200	0.090	0.940	283.020	-1.300	1.300																			1580082398.0	12.14	22.48
26/01/2020 23:46:39	26012020	260120	234639	282.870	12.289038	-56.614352	282.860	0.190	0.170	0.790	282.820	-1.200	1.100																			1580082399.0	12.27	22.72
26/01/2020 23:46:40	26012020	260120	234640	282.610	12.289052	-56.614408	282.590	0.060	0.260	0.540	282.550	-1.100	0.900																			1580082400.0	12.16	22.52
26/01/2020 23:46:41	26012020	260120	234641	282.330	12.289062	-56.614463	282.310	-0.180	0.200	0.220	282.280	-1.200	0.600																			1580082401.0	11.98	22.19
26/01/2020 23:46:42	26012020	260120	234642	282.150	12.289072	-56.614520	282.150	-0.330	-0.120	-0.080	282.140	-1.500	0.300																			1580082402.0	12.00	22.22
26/01/2020 23:46:43	26012020	260120	234643	282.160	12.289082	-56.614577	282.190	-0.260	-0.580	-0.260	282.180	-1.900	0.100																			1580082403.0	12.17	22.54
26/01/2020 23:46:44	26012020	260120	234644	282.320	12.289092	-56.614635	282.380	0.030	-0.950	-0.270	282.370	-2.300	0.100																			1580082404.0	12.32	22.82
26/01/2020 23:46:45	26012020	260120	234645	282.580	12.289103	-56.614692	282.640	0.320	-0.980	-0.070	282.630	-2.400	0.300																			1580082405.0	12.29	22.76
26/01/2020 23:46:46	26012020	260120	234646	282.820	12.289117	-56.614747	282.900	0.410	-0.650	0.270	282.870	-2.000	0.600																			1580082406.0	12.09	22.39
26/01/2020 23:46:47	26012020	260120	234647	282.990	12.289130	-56.614802	283.050	0.250	-0.160	0.610	283.000	-1.500	1.000																			1580082407.0	11.85	21.95
26/01/2020 23:46:48	26012020	260120	234648	283.040	12.289143	-56.614855	283.080	0.010	0.210	0.830	283.040	-1.200	1.200																			1580082408.0	11.80	21.85
26/01/2020 23:46:49	26012020	260120	234649	283.000	12.289155	-56.614910	283.030	-0.140	0.270	0.830	282.990	-1.100	1.200																			1580082409.0	11.97	22.17
26/01/2020 23:46:50	26012020	260120	234650	282.930	12.289167	-56.614967	282.960	-0.120	0.090	0.620	282.920	-1.300	1.000																			1580082410.0	12.21	22.61
26/01/2020 23:46:51	26012020	260120	234651	282.860	12.289178	-56.615023	282.870	-0.020	-0.190	0.390	282.830	-1.600	0.800																			1580082411.0	12.36	22.89
26/01/2020 23:46:52	26012020	260120	234652	282.740	12.289190	-56.615082	282.740	0.050	-0.440	0.280	282.710	-1.800	0.600																			1580082412.0	12.32	22.82
26/01/2020 23:46:53	26012020	260120	234653	282.600	12.289202	-56.615138	282.610	0.030	-0.600	0.240	282.580	-2.000	0.600																			1580082413.0	12.22	22.63
26/01/2020 23:46:54	26012020	260120	234654	282.520	12.289212	-56.615193	282.530	-0.050	-0.640	0.180	282.500	-2.000	0.500																			1580082414.0	12.12	22.45
26/01/2020 23:46:55	26012020	260120	234655	282.510	12.289223	-56.615250	282.540	-0.130	-0.570	0.130	282.520	-1.900	0.500																			1580082415.0	12.06	22.34
26/01/2020 23:46:56	26012020	260120	234656	282.540	12.289235	-56.615305	282.570	-0.150	-0.400	0.180	282.550	-1.800	0.500																			1580082416.0	12.03	22.28
26/01/2020 23:46:57	26012020	260120	234657	282.580	12.289245	-56.615362	282.620	-0.130	-0.150	0.360	282.590	-1.500	0.700																			1580082417.0	12.00	22.22
26/01/2020 23:46:58	26012020	260120	234658	282.600	12.289257	-56.615417	282.640	-0.070	0.060	0.600	282.600	-1.300	1.000																			1580082418.0	11.97	22.17
26/01/2020 23:46:59	26012020	260120	234659	282.610	12.289270	-56.615472	282.660	0.050	0.060	0.800	282.620	-1.300	1.200																			1580082419.0	12.04	22.30
26/01/2020 23:47:00	26012020	260120	234700	282.680	12.289282	-56.615528	282.740	0.260	-0.160	0.870	282.700	-1.500	1.200	1015.40	26.00	26.00	21.10	21.20	-1.00	74.00	74.00	379.00	24.90	31.00	2.90	81.00	4.00	15	3909.00	27.50	27.50	1580082420.0	12.26	22.71
26/01/2020 23:47:01	26012020	260120	234701	282.780	12.289295	-56.615585	282.860	0.480	-0.370	0.780	282.800	-1.700	1.100																			1580082421.0	12.43	23.02
26/01/2020 23:47:02	26012020	260120	234702	282.930	12.289308	-56.615643	282.960	0.520	-0.350	0.570	282.940	-1.700	0.900																			1580082422.0	12.34	22.85
26/01/2020 23:47:03	26012020	260120	234703	282.940	12.289322	-56.615698	282.950	0.230	-0.160	0.320	282.930	-1.500	0.700																			1580082423.0	12.00	22.22
26/01/2020 23:47:04	26012020	260120	234704	282.850	12.289332	-56.615753	282.850	-0.260	-0.080	0.070	282.830	-1.400	0.400																			1580082424.0	11.78	21.82
26/01/2020 23:47:05	26012020	260120	234705	282.760	12.289342	-56.615808	282.770	-0.650	-0.300	-0.140	282.740	-1.700	0.200																			1580082425.0	11.89	22.02
26/01/2020 23:47:06	26012020	260120	234706	282.730	12.289352	-56.615865	282.750	-0.690	-0.700	-0.240	282.730	-2.100	0.100																			1580082426.0	12.23	22.65
26/01/2020 23:47:07	26012020	260120	234707	282.720	12.289360	-56.615923	282.750	-0.390	-0.990	-0.120	282.720	-2.400	0.200																			1580082427.0	12.49	23.13
26/01/2020 23:47:08	26012020	260120	234708	282.680	12.289372	-56.615982	282.700	0.010	-0.920	0.200	282.670	-2.300	0.600																			1580082428.0	12.45	23.06
26/01/2020 23:47:09	26012020	260120	234709	282.600	12.289385	-56.616037	282.630	0.270	-0.490	0.570	282.590	-1.900	0.900																			1580082429.0	12.20	22.59
26/01/2020 23:47:10	26012020	260120	234710	282.570	12.289398	-56.616092	282.610	0.330	0.020	0.830	282.570	-1.400	1.200																			1580082430.0	12.00	22.22
26/01/2020 23:47:11	26012020	260120	234711	282.600	12.289412	-56.616147	282.640	0.270	0.400	0.830	282.610	-1.000	1.200																			1580082431.0	12.01	22.24
26/01/2020 23:47:12	26012020	260120	234712	282.640	12.289425	-56.616203	282.670	0.160	0.620	0.610	282.640	-0.800	1.000																			1580082432.0	12.08	22.37
26/01/2020 23:47:13	26012020	260120	234713	282.620	12.289437	-56.616258	282.620	0.050	0.620	0.340	282.610	-0.800	0.700																			1580082433.0	12.05	22.32
26/01/2020 23:47:14	26012020	260120	234714	282.590	12.289448	-56.616315	282.610	-0.040	0.260	0.090	282.600	-1.100	0.400																			1580082434.0	12.09	22.39
26/01/2020 23:47:15	26012020	260120	234715	282.640	12.289458	-56.616372	282.690	-0.040	-0.380	-0.120	282.660	-1.700	0.200																			1580082435.0	12.26	22.71
26/01/2020 23:47:16	26012020	260120	234716	282.780	12.289468	-56.616430	282.810	0.040	-0.970	-0.210	282.800	-2.300	0.100																			1580082436.0	12.41	22.98
26/01/2020 23:47:17	26012020	260120	234717	282.840	12.289480	-56.616487	282.860	0.120	-1.200	-0.060	282.840	-2.600	0.300																			1580082437.0	12.32	22.82
26/01/2020 23:47:18	26012020	260120	234718	282.790	12.289492	-56.616542	282.790	0.080	-0.990	0.320	282.770	-2.400	0.700																			1580082438.0	11.99	22.21
26/01/2020 23:47:19	26012020	260120	234719	282.660	12.289505	-56.616595	282.660	-0.100	-0.560	0.700	282.630	-1.900	1.000																			1580082439.0	11.70	21.67
26/01/2020 23:47:20	26012020	260120	234720	282.520	12.289517	-56.616650	282.540	-0.280	-0.290	0.900	282.490	-1.700	1.200																			1580082440.0	11.67	21.61
26/01/2020 23:47:21	26012020	260120	234721	282.430	12.289528	-56.616705	282.450	-0.250	-0.420	0.830	282.420	-1.800	1.200																			1580082441.0	12.06	22.34
26/01/2020 23:47:22	26012020	260120	234722	282.440	12.289540	-56.616763	282.470	0.050	-0.720	0.640	282.450	-2.100	1.000																			1580082442.0	12.63	23.39
26/01/2020 23:47:23	26012020	260120	234723	282.520	12.289552	-56.616823	282.540	0.380	-0.710	0.530	282.530	-2.100	0.900																			1580082443.0	12.92	23.93
26/01/2020 23:47:24	26012020	260120	234724	282.520	12.289565	-56.616882	282.510	0.410	-0.110	0.620	282.490	-1.500	1.000																			1580082444.0	12.61	23.35
26/01/2020 23:47:25	26012020	260120	234725	282.380	12.289580	-56.616937	282.350	-0.000	0.750	0.740	282.330	-0.600	1.100																			1580082445.0	11.98	22.19
26/01/2020 23:47:26	26012020	260120	234726	282.190	12.289592	-56.616990	282.160	-0.570	1.210	0.580	282.150	-0.200	0.900																			1580082446.0	11.61	21.50
26/01/2020 23:47:27	26012020	260120	234727	282.100	12.289600	-56.617045	282.100	-0.820	0.890	0.150	282.100	-0.500	0.500																			1580082447.0	11.88	22.00
26/01/2020 23:47:28	26012020	260120	234728	282.250	12.289608	-56.617103	282.280	-0.530	0.000	-0.270	282.300	-1.300	0.100																			1580082448.0	12.48	23.11
26/01/2020 23:47:29	26012020	260120	234729	282.540	12.289617	-56.617163	282.580	0.100	-0.840	-0.330	282.590	-2.200	0.000																			1580082449.0	12.79	23.69
26/01/2020 23:47:30	26012020	260120	234730	282.800	12.289628	-56.617222	282.820	0.600	-1.180	0.040	282.830	-2.500	0.400																			1580082450.0	12.52	23.19
26/01/2020 23:47:31	26012020	260120	234731	282.890	12.289642	-56.617277	282.900	0.690	-1.010	0.520	282.890	-2.400	0.900																			1580082451.0	11.97	22.17
26/01/2020 23:47:32	26012020	260120	234732	282.810	12.289655	-56.617330	282.800	0.470	-0.660	0.860	282.770	-2.000	1.200																			1580082452.0	11.55	21.39
26/01/2020 23:47:33	26012020	260120	234733	282.630	12.289668	-56.617382	282.610	0.170	-0.460	0.900	282.580	-1.800	1.200																			1580082453.0	11.59	21.46
26/01/2020 23:47:34	26012020	260120	234734	282.420	12.289680	-56.617438	282.410	-0.010	-0.490	0.770	282.370	-1.800	1.100																			1580082454.0	11.95	22.13
26/01/2020 23:47:35	26012020	260120	234735	282.220	12.289692	-56.617495	282.210	-0.050	-0.560	0.610	282.180	-1.900	1.000																			1580082455.0	12.33	22.84
26/01/2020 23:47:36	26012020	260120	234736	282.060	12.289702	-56.617553	282.060	-0.060	-0.480	0.500	282.040	-1.800	0.900																			1580082456.0	12.45	23.06
26/01/2020 23:47:37	26012020	260120	234737	281.980	12.289713	-56.617610	282.000	-0.130	-0.210	0.450	281.980	-1.600	0.800																			1580082457.0	12.36	22.89
26/01/2020 23:47:38	26012020	260120	234738	282.020	12.289725	-56.617667	282.050	-0.280	0.080	0.400	282.040	-1.300	0.800																			1580082458.0	12.22	22.63
26/01/2020 23:47:39	26012020	260120	234739	282.130	12.289737	-56.617723	282.180	-0.430	0.260	0.350	282.160	-1.100	0.700																			1580082459.0	12.19	22.58
26/01/2020 23:47:40	26012020	260120	234740	282.320	12.289748	-56.617780	282.380	-0.460	0.260	0.260	282.370	-1.100	0.600																			1580082460.0	12.24	22.67
26/01/2020 23:47:41	26012020	260120	234741	282.540	12.289758	-56.617837	282.610	-0.310	0.120	0.210	282.580	-1.200	0.600																			1580082461.0	12.33	22.84
26/01/2020 23:47:42	26012020	260120	234742	282.730	12.289768	-56.617895	282.790	-0.030	-0.060	0.300	282.760	-1.400	0.600																			1580082462.0	12.32	22.82
26/01/2020 23:47:43	26012020	260120	234743	282.870	12.289780	-56.617952	282.930	0.260	-0.240	0.430	282.900	-1.600	0.800																			1580082463.0	12.21	22.61
26/01/2020 23:47:44	26012020	260120	234744	283.010	12.289792	-56.618007	283.070	0.470	-0.440	0.570	283.040	-1.800	0.900																			1580082464.0	12.15	22.50
26/01/2020 23:47:45	26012020	260120	234745	283.100	12.289805	-56.618063	283.140	0.550	-0.590	0.700	283.100	-1.900	1.100																			1580082465.0	12.12	22.45
26/01/2020 23:47:46	26012020	260120	234746	283.060	12.289818	-56.618118	283.080	0.470	-0.650	0.840	283.040	-2.000	1.200																			1580082466.0	12.06	22.34
26/01/2020 23:47:47	26012020	260120	234747	282.910	12.289832	-56.618173	282.910	0.230	-0.590	0.900	282.870	-1.900	1.200																			1580082467.0	12.00	22.22
26/01/2020 23:47:48	26012020	260120	234748	282.710	12.289843	-56.618228	282.710	-0.080	-0.520	0.790	282.670	-1.900	1.200																			1580082468.0	11.98	22.19
26/01/2020 23:47:49	26012020	260120	234749	282.520	12.289855	-56.618285	282.530	-0.350	-0.470	0.550	282.480	-1.800	0.900																			1580082469.0	12.07	22.35
26/01/2020 23:47:50	26012020	260120	234750	282.370	12.289863	-56.618342	282.380	-0.480	-0.380	0.280	282.340	-1.700	0.600																			1580082470.0	12.19	22.58
26/01/2020 23:47:51	26012020	260120	234751	282.310	12.289873	-56.618398	282.340	-0.420	-0.250	0.080	282.300	-1.600	0.400																			1580082471.0	12.23	22.65
26/01/2020 23:47:52	26012020	260120	234752	282.390	12.289883	-56.618455	282.450	-0.230	-0.160	-0.000	282.420	-1.500	0.400																			1580082472.0	12.23	22.65
26/01/2020 23:47:53	26012020	260120	234753	282.600	12.289895	-56.618513	282.670	0.020	-0.160	0.130	282.640	-1.500	0.500																			1580082473.0	12.32	22.82
26/01/2020 23:47:54	26012020	260120	234754	282.820	12.289907	-56.618570	282.890	0.180	-0.160	0.350	282.850	-1.500	0.700																			1580082474.0	12.43	23.02
26/01/2020 23:47:55	26012020	260120	234755	282.940	12.289922	-56.618627	282.990	0.150	-0.010	0.500	282.950	-1.400	0.800																			1580082475.0	12.35	22.87
26/01/2020 23:47:56	26012020	260120	234756	282.940	12.289933	-56.618682	282.980	-0.030	0.170	0.510	282.930	-1.200	0.900																			1580082476.0	12.10	22.41
26/01/2020 23:47:57	26012020	260120	234757	282.900	12.289945	-56.618738	282.930	-0.170	0.130	0.360	282.890	-1.200	0.700																			1580082477.0	11.99	22.21
26/01/2020 23:47:58	26012020	260120	234758	282.880	12.289955	-56.618795	282.900	-0.050	-0.210	0.120	282.880	-1.600	0.500																			1580082478.0	12.21	22.61
26/01/2020 23:47:59	26012020	260120	234759	282.880	12.289967	-56.618853	282.910	0.290	-0.560	0.050	282.880	-1.900	0.400																			1580082479.0	12.46	23.08
26/01/2020 23:48:00	26012020	260120	234800	282.830	12.289978	-56.618910	282.830	0.540	-0.600	0.240	282.800	-2.000	0.600	1015.30	25.90	26.00	21.00	21.10	-1.00	74.00	74.00	379.00	24.90	50.00	3.50	69.00	4.80	15	3661.00	27.50	27.60	1580082480.0	12.38	22.93
26/01/2020 23:48:01	26012020	260120	234801	282.630	12.289993	-56.618965	282.620	0.440	-0.330	0.490	282.580	-1.700	0.800																			1580082481.0	12.00	22.22
26/01/2020 23:48:02	26012020	260120	234802	282.370	12.290007	-56.619018	282.350	-0.010	-0.080	0.500	282.310	-1.400	0.900																			1580082482.0	11.66	21.59
26/01/2020 23:48:03	26012020	260120	234803	282.180	12.290018	-56.619072	282.160	-0.490	-0.180	0.210	282.150	-1.500	0.600																			1580082483.0	11.69	21.65
26/01/2020 23:48:04	26012020	260120	234804	282.130	12.290027	-56.619128	282.160	-0.630	-0.680	-0.140	282.140	-2.000	0.200																			1580082484.0	12.14	22.48
26/01/2020 23:48:05	26012020	260120	234805	282.250	12.290035	-56.619188	282.370	-0.340	-1.200	-0.310	282.310	-2.600	0.000																			1580082485.0	12.63	23.39
26/01/2020 23:48:06	26012020	260120	234806	282.640	12.290045	-56.619247	282.720	0.130	-1.290	-0.200	282.700	-2.700	0.100																			1580082486.0	12.74	23.59
26/01/2020 23:48:07	26012020	260120	234807	282.970	12.290058	-56.619305	283.040	0.410	-0.810	0.180	283.030	-2.200	0.500																			1580082487.0	12.48	23.11
26/01/2020 23:48:08	26012020	260120	234808	283.130	12.290072	-56.619360	283.160	0.310	0.010	0.650	283.130	-1.400	1.000																			1580082488.0	12.08	22.37
26/01/2020 23:48:09	26012020	260120	234809	283.030	12.290087	-56.619415	283.030	-0.070	0.750	0.930	282.980	-0.600	1.300																			1580082489.0	11.88	22.00
26/01/2020 23:48:10	26012020	260120	234810	282.750	12.290100	-56.619468	282.720	-0.460	1.100	0.880	282.680	-0.300	1.200																			1580082490.0	11.95	22.13
26/01/2020 23:48:11	26012020	260120	234811	282.400	12.290110	-56.619525	282.360	-0.630	0.920	0.610	282.330	-0.400	1.000																			1580082491.0	12.17	22.54
26/01/2020 23:48:12	26012020	260120	234812	282.110	12.290120	-56.619583	282.090	-0.480	0.310	0.280	282.070	-1.100	0.600																			1580082492.0	12.45	23.06
26/01/2020 23:48:13	26012020	260120	234813	281.990	12.290130	-56.619643	281.990	-0.060	-0.430	0.040	281.990	-1.800	0.400																			1580082493.0	12.62	23.37
26/01/2020 23:48:14	26012020	260120	234814	282.090	12.290140	-56.619700	282.120	0.410	-0.940	0.000	282.130	-2.300	0.400																			1580082494.0	12.51	23.17
26/01/2020 23:48:15	26012020	260120	234815	282.260	12.290152	-56.619757	282.330	0.690	-1.040	0.230	282.300	-2.400	0.600																			1580082495.0	12.16	22.52
26/01/2020 23:48:16	26012020	260120	234816	282.470	12.290167	-56.619812	282.500	0.700	-0.830	0.590	282.490	-2.200	0.900																			1580082496.0	11.78	21.82
26/01/2020 23:48:17	26012020	260120	234817	282.550	12.290180	-56.619863	282.600	0.480	-0.520	0.860	282.580	-1.900	1.200																			1580082497.0	11.58	21.45
26/01/2020 23:48:18	26012020	260120	234818	282.620	12.290193	-56.619917	282.650	0.170	-0.330	0.860	282.620	-1.700	1.200																			1580082498.0	11.60	21.48
26/01/2020 23:48:19	26012020	260120	234819	282.620	12.290205	-56.619972	282.640	-0.080	-0.380	0.630	282.610	-1.700	1.000																			1580082499.0	11.87	21.98
26/01/2020 23:48:20	26012020	260120	234820	282.610	12.290215	-56.620028	282.630	-0.160	-0.610	0.340	282.610	-2.000	0.700																			1580082500.0	12.27	22.72
26/01/2020 23:48:21	26012020	260120	234821	282.650	12.290225	-56.620087	282.680	-0.100	-0.810	0.160	282.660	-2.200	0.500																			1580082501.0	12.58	23.30
26/01/2020 23:48:22	26012020	260120	234822	282.720	12.290237	-56.620147	282.770	-0.050	-0.740	0.190	282.740	-2.100	0.500																			1580082502.0	12.65	23.43
26/01/2020 23:48:23	26012020	260120	234823	282.780	12.290248	-56.620203	282.820	-0.140	-0.370	0.310	282.780	-1.700	0.700																			1580082503.0	12.48	23.11
26/01/2020 23:48:24	26012020	260120	234824	282.810	12.290262	-56.620260	282.850	-0.380	0.160	0.400	282.810	-1.200	0.800																			1580082504.0	12.25	22.69
26/01/2020 23:48:25	26012020	260120	234825	282.810	12.290272	-56.620317	282.840	-0.650	0.590	0.400	282.800	-0.800	0.800																			1580082505.0	12.12	22.45
26/01/2020 23:48:26	26012020	260120	234826	282.770	12.290283	-56.620373	282.800	-0.800	0.750	0.410	282.750	-0.600	0.800																			1580082506.0	12.13	22.46
26/01/2020 23:48:27	26012020	260120	234827	282.690	12.290293	-56.620430	282.710	-0.690	0.600	0.500	282.660	-0.800	0.900																			1580082507.0	12.24	22.67
26/01/2020 23:48:28	26012020	260120	234828	282.560	12.290303	-56.620487	282.590	-0.280	0.220	0.650	282.540	-1.100	1.000																			1580082508.0	12.32	22.82
26/01/2020 23:48:29	26012020	260120	234829	282.440	12.290315	-56.620543	282.480	0.290	-0.220	0.730	282.430	-1.600	1.100																			1580082509.0	12.30	22.78
26/01/2020 23:48:30	26012020	260120	234830	282.390	12.290327	-56.620600	282.430	0.850	-0.610	0.750	282.390	-2.000	1.100																			1580082510.0	12.18	22.56
26/01/2020 23:48:31	26012020	260120	234831	282.420	12.290340	-56.620655	282.470	1.250	-0.860	0.810	282.440	-2.200	1.200																			1580082511.0	12.05	22.32
26/01/2020 23:48:32	26012020	260120	234832	282.490	12.290355	-56.620710	282.520	1.330	-0.900	0.870	282.490	-2.300	1.200																			1580082512.0	11.94	22.11
26/01/2020 23:48:33	26012020	260120	234833	282.460	12.290368	-56.620763	282.480	0.980	-0.720	0.770	282.440	-2.100	1.100																			1580082513.0	11.80	21.85
26/01/2020 23:48:34	26012020	260120	234834	282.340	12.290382	-56.620817	282.370	0.310	-0.510	0.490	282.320	-1.900	0.800																			1580082514.0	11.68	21.63
26/01/2020 23:48:35	26012020	260120	234835	282.250	12.290392	-56.620872	282.270	-0.420	-0.440	0.070	282.240	-1.800	0.400																			1580082515.0	11.81	21.87
26/01/2020 23:48:36	26012020	260120	234836	282.270	12.290400	-56.620928	282.310	-0.900	-0.540	-0.310	282.300	-1.900	0.100																			1580082516.0	12.11	22.43
26/01/2020 23:48:37	26012020	260120	234837	282.430	12.290408	-56.620987	282.490	-0.990	-0.690	-0.500	282.480	-2.100	-0.100																			1580082517.0	12.44	23.04
26/01/2020 23:48:38	26012020	260120	234838	282.650	12.290417	-56.621047	282.700	-0.770	-0.750	-0.420	282.690	-2.100	-0.100																			1580082518.0	12.66	23.45
26/01/2020 23:48:39	26012020	260120	234839	282.820	12.290427	-56.621105	282.920	-0.430	-0.550	-0.110	282.870	-1.900	0.300																			1580082519.0	12.66	23.45
26/01/2020 23:48:40	26012020	260120	234840	283.060	12.290440	-56.621163	283.120	-0.150	-0.130	0.310	283.100	-1.500	0.700																			1580082520.0	12.50	23.15
26/01/2020 23:48:41	26012020	260120	234841	283.200	12.290453	-56.621220	283.240	-0.000	0.310	0.700	283.220	-1.100	1.000																			1580082521.0	12.32	22.82
26/01/2020 23:48:42	26012020	260120	234842	283.210	12.290467	-56.621275	283.220	0.030	0.590	0.890	283.190	-0.800	1.200																			1580082522.0	12.23	22.65
26/01/2020 23:48:43	26012020	260120	234843	283.040	12.290480	-56.621332	283.020	0.010	0.680	0.800	282.990	-0.700	1.200																			1580082523.0	12.22	22.63
26/01/2020 23:48:44	26012020	260120	234844	282.730	12.290492	-56.621388	282.680	-0.010	0.640	0.600	282.660	-0.700	1.000																			1580082524.0	12.13	22.46
26/01/2020 23:48:45	26012020	260120	234845	282.360	12.290502	-56.621443	282.310	0.030	0.440	0.420	282.290	-0.900	0.800																			1580082525.0	11.95	22.13
26/01/2020 23:48:46	26012020	260120	234846	282.040	12.290512	-56.621498	282.020	0.130	0.010	0.320	281.990	-1.300	0.700																			1580082526.0	11.81	21.87
26/01/2020 23:48:47	26012020	260120	234847	281.890	12.290523	-56.621553	281.900	0.350	-0.680	0.250	281.890	-2.000	0.600																			1580082527.0	11.91	22.06
26/01/2020 23:48:48	26012020	260120	234848	281.980	12.290535	-56.621610	282.020	0.630	-1.380	0.180	282.030	-2.700	0.500																			1580082528.0	12.12	22.45
26/01/2020 23:48:49	26012020	260120	234849	282.260	12.290547	-56.621667	282.320	0.840	-1.730	0.190	282.320	-3.100	0.500																			1580082529.0	12.24	22.67
26/01/2020 23:48:50	26012020	260120	234850	282.560	12.290560	-56.621722	282.640	0.810	-1.510	0.390	282.620	-2.900	0.700																			1580082530.0	12.11	22.43
26/01/2020 23:48:51	26012020	260120	234851	282.770	12.290575	-56.621777	282.880	0.430	-0.870	0.630	282.820	-2.200	1.000																			1580082531.0	11.86	21.96
26/01/2020 23:48:52	26012020	260120	234852	282.980	12.290588	-56.621830	283.030	-0.170	-0.150	0.650	283.000	-1.500	1.000																			1580082532.0	11.75	21.76
26/01/2020 23:48:53	26012020	260120	234853	283.050	12.290600	-56.621885	283.090	-0.740	0.300	0.370	283.060	-1.100	0.700																			1580082533.0	11.91	22.06
26/01/2020 23:48:54	26012020	260120	234854	283.120	12.290608	-56.621943	283.150	-1.000	0.380	-0.000	283.140	-1.000	0.400																			1580082534.0	12.32	22.82
26/01/2020 23:48:55	26012020	260120	234855	283.190	12.290615	-56.622002	283.220	-0.880	0.210	-0.240	283.200	-1.100	0.100																			1580082535.0	12.68	23.48
26/01/2020 23:48:56	26012020	260120	234856	283.260	12.290625	-56.622062	283.270	-0.500	0.040	-0.170	283.260	-1.300	0.200																			1580082536.0	12.79	23.69
26/01/2020 23:48:57	26012020	260120	234857	283.220	12.290637	-56.622120	283.220	-0.120	0.010	0.200	283.200	-1.300	0.500																			1580082537.0	12.59	23.32
26/01/2020 23:48:58	26012020	260120	234858	283.050	12.290650	-56.622177	283.030	0.070	0.090	0.600	282.990	-1.300	0.900																			1580082538.0	12.24	22.67
26/01/2020 23:48:59	26012020	260120	234859	282.770	12.290663	-56.622232	282.750	0.110	0.100	0.810	282.720	-1.300	1.200																			1580082539.0	11.97	22.17
26/01/2020 23:49:00	26012020	260120	234900	282.490	12.290675	-56.622287	282.480	0.140	-0.060	0.770	282.440	-1.400	1.100	1015.30	25.90	26.00	21.00	21.00	-1.00	74.00	73.00	378.00	24.80	45.00	3.10	74.00	4.60	15	3951.00	27.60	27.60	1580082540.0	11.91	22.06
26/01/2020 23:49:01	26012020	260120	234901	282.250	12.290687	-56.622342	282.240	0.250	-0.350	0.600	282.210	-1.700	1.000																			1580082541.0	11.98	22.19
26/01/2020 23:49:02	26012020	260120	234902	282.130	12.290698	-56.622398	282.150	0.440	-0.590	0.420	282.130	-1.900	0.800																			1580082542.0	12.02	22.26
26/01/2020 23:49:03	26012020	260120	234903	282.160	12.290710	-56.622453	282.210	0.600	-0.730	0.270	282.190	-2.100	0.600																			1580082543.0	11.96	22.15
26/01/2020 23:49:04	26012020	260120	234904	282.350	12.290722	-56.622508	282.410	0.640	-0.760	0.220	282.410	-2.100	0.600																			1580082544.0	11.94	22.11
26/01/2020 23:49:05	26012020	260120	234905	282.580	12.290735	-56.622563	282.720	0.510	-0.710	0.220	282.640	-2.100	0.600																			1580082545.0	11.98	22.19
26/01/2020 23:49:06	26012020	260120	234906	282.960	12.290748	-56.622618	283.020	0.230	-0.550	0.240	283.020	-1.900	0.600																			1580082546.0	12.08	22.37
26/01/2020 23:49:07	26012020	260120	234907	283.160	12.290762	-56.622673	283.190	-0.140	-0.270	0.250	283.170	-1.600	0.600																			1580082547.0	12.10	22.41
26/01/2020 23:49:08	26012020	260120	234908	283.140	12.290773	-56.622730	283.160	-0.510	0.010	0.250	283.110	-1.300	0.600																			1580082548.0	12.10	22.41
26/01/2020 23:49:09	26012020	260120	234909	282.970	12.290782	-56.622787	282.970	-0.730	0.130	0.240	282.930	-1.200	0.600																			1580082549.0	12.14	22.48
26/01/2020 23:49:10	26012020	260120	234910	282.750	12.290792	-56.622845	282.740	-0.680	0.030	0.260	282.710	-1.300	0.600																			1580082550.0	12.29	22.76
26/01/2020 23:49:11	26012020	260120	234911	282.580	12.290800	-56.622902	282.580	-0.380	-0.210	0.360	282.550	-1.600	0.700																			1580082551.0	12.45	23.06
26/01/2020 23:49:12	26012020	260120	234912	282.500	12.290812	-56.622960	282.510	0.000	-0.420	0.490	282.500	-1.800	0.800																			1580082552.0	12.49	23.13
26/01/2020 23:49:13	26012020	260120	234913	282.530	12.290823	-56.623017	282.530	0.270	-0.440	0.600	282.540	-1.800	0.900																			1580082553.0	12.37	22.91
26/01/2020 23:49:14	26012020	260120	234914	282.590	12.290837	-56.623073	282.620	0.310	-0.280	0.660	282.610	-1.600	1.000																			1580082554.0	12.10	22.41
26/01/2020 23:49:15	26012020	260120	234915	282.630	12.290850	-56.623128	282.640	0.210	-0.080	0.710	282.610	-1.400	1.000																			1580082555.0	11.87	21.98
26/01/2020 23:49:16	26012020	260120	234916	282.530	12.290863	-56.623182	282.520	0.070	0.020	0.750	282.490	-1.300	1.100																			1580082556.0	11.83	21.91
26/01/2020 23:49:17	26012020	260120	234917	282.360	12.290875	-56.623237	282.350	0.010	-0.050	0.710	282.320	-1.400	1.100																			1580082557.0	11.93	22.09
26/01/2020 23:49:18	26012020	260120	234918	282.200	12.290887	-56.623293	282.220	0.040	-0.200	0.620	282.180	-1.600	1.000																			1580082558.0	12.06	22.34
26/01/2020 23:49:19	26012020	260120	234919	282.150	12.290897	-56.623350	282.200	0.130	-0.370	0.530	282.160	-1.700	0.900																			1580082559.0	12.11	22.43
26/01/2020 23:49:20	26012020	260120	234920	282.240	12.290907	-56.623405	282.290	0.190	-0.520	0.420	282.260	-1.900	0.800																			1580082560.0	12.12	22.45
26/01/2020 23:49:21	26012020	260120	234921	282.390	12.290918	-56.623462	282.450	0.200	-0.620	0.260	282.420	-2.000	0.600																			1580082561.0	12.16	22.52
26/01/2020 23:49:22	26012020	260120	234922	282.550	12.290930	-56.623518	282.600	0.120	-0.600	0.140	282.570	-1.900	0.500																			1580082562.0	12.18	22.56
26/01/2020 23:49:23	26012020	260120	234923	282.600	12.290942	-56.623575	282.630	-0.030	-0.430	0.220	282.600	-1.800	0.600																			1580082563.0	12.14	22.48
26/01/2020 23:49:24	26012020	260120	234924	282.530	12.290952	-56.623630	282.560	-0.170	-0.220	0.500	282.510	-1.600	0.800																			1580082564.0	12.06	22.34
26/01/2020 23:49:25	26012020	260120	234925	282.390	12.290965	-56.623687	282.420	-0.230	-0.110	0.800	282.370	-1.500	1.100																			1580082565.0	12.07	22.35
26/01/2020 23:49:26	26012020	260120	234926	282.260	12.290977	-56.623743	282.290	-0.150	-0.240	0.880	282.240	-1.600	1.200																			1580082566.0	12.22	22.63
26/01/2020 23:49:27	26012020	260120	234927	282.190	12.290988	-56.623800	282.220	0.010	-0.450	0.710	282.190	-1.800	1.100																			1580082567.0	12.48	23.11
26/01/2020 23:49:28	26012020	260120	234928	282.240	12.291000	-56.623858	282.280	0.120	-0.430	0.490	282.250	-1.800	0.800																			1580082568.0	12.53	23.21
26/01/2020 23:49:29	26012020	260120	234929	282.320	12.291012	-56.623915	282.360	0.040	-0.060	0.370	282.330	-1.400	0.700																			1580082569.0	12.20	22.59
26/01/2020 23:49:30	26012020	260120	234930	282.350	12.291023	-56.623970	282.380	-0.210	0.370	0.270	282.340	-1.000	0.600																			1580082570.0	11.75	21.76
26/01/2020 23:49:31	26012020	260120	234931	282.340	12.291033	-56.624023	282.370	-0.450	0.420	0.100	282.340	-0.900	0.500																			1580082571.0	11.66	21.59
26/01/2020 23:49:32	26012020	260120	234932	282.420	12.291042	-56.624080	282.470	-0.470	-0.020	-0.180	282.450	-1.400	0.200																			1580082572.0	12.00	22.22
26/01/2020 23:49:33	26012020	260120	234933	282.640	12.291050	-56.624138	282.700	-0.190	-0.610	-0.340	282.690	-2.000	0.000																			1580082573.0	12.42	23.00
26/01/2020 23:49:34	26012020	260120	234934	282.880	12.291060	-56.624197	282.930	0.230	-0.930	-0.150	282.920	-2.300	0.200																			1580082574.0	12.48	23.11
26/01/2020 23:49:35	26012020	260120	234935	283.020	12.291072	-56.624252	283.060	0.560	-0.840	0.310	283.030	-2.200	0.700																			1580082575.0	12.18	22.56
26/01/2020 23:49:36	26012020	260120	234936	282.980	12.291087	-56.624307	283.010	0.670	-0.580	0.770	282.950	-1.900	1.100																			1580082576.0	11.89	22.02
26/01/2020 23:49:37	26012020	260120	234937	282.810	12.291102	-56.624362	282.840	0.560	-0.400	1.010	282.770	-1.800	1.400																			1580082577.0	11.92	22.08
26/01/2020 23:49:38	26012020	260120	234938	282.600	12.291117	-56.624417	282.610	0.300	-0.300	0.970	282.550	-1.700	1.300																			1580082578.0	12.13	22.46
26/01/2020 23:49:39	26012020	260120	234939	282.390	12.291128	-56.624473	282.400	-0.030	-0.170	0.740	282.340	-1.500	1.100																			1580082579.0	12.25	22.69
26/01/2020 23:49:40	26012020	260120	234940	282.190	12.291140	-56.624530	282.220	-0.370	-0.050	0.380	282.160	-1.400	0.700																			1580082580.0	12.21	22.61
26/01/2020 23:49:41	26012020	260120	234941	282.070	12.291150	-56.624587	282.110	-0.600	-0.010	-0.030	282.060	-1.400	0.300																			1580082581.0	12.21	22.61
26/01/2020 23:49:42	26012020	260120	234942	282.110	12.291160	-56.624643	282.170	-0.640	-0.040	-0.320	282.140	-1.400	0.000																			1580082582.0	12.27	22.72
26/01/2020 23:49:43	26012020	260120	234943	282.300	12.291168	-56.624700	282.360	-0.490	-0.100	-0.370	282.340	-1.500	-0.000																			1580082583.0	12.27	22.72
26/01/2020 23:49:44	26012020	260120	234944	282.500	12.291180	-56.624757	282.560	-0.240	-0.170	-0.120	282.530	-1.500	0.200																			1580082584.0	12.22	22.63
26/01/2020 23:49:45	26012020	260120	234945	282.630	12.291192	-56.624813	282.720	0.040	-0.280	0.260	282.660	-1.600	0.600																			1580082585.0	12.16	22.52
26/01/2020 23:49:46	26012020	260120	234946	282.800	12.291203	-56.624870	282.850	0.290	-0.400	0.610	282.820	-1.800	1.000																			1580082586.0	12.14	22.48
26/01/2020 23:49:47	26012020	260120	234947	282.920	12.291217	-56.624925	282.980	0.420	-0.420	0.790	282.940	-1.800	1.100																			1580082587.0	12.07	22.35
26/01/2020 23:49:48	26012020	260120	234948	282.980	12.291228	-56.624980	283.030	0.390	-0.370	0.730	282.980	-1.700	1.100																			1580082588.0	11.94	22.11
26/01/2020 23:49:49	26012020	260120	234949	282.920	12.291240	-56.625035	282.940	0.240	-0.330	0.600	282.890	-1.700	1.000																			1580082589.0	11.88	22.00
26/01/2020 23:49:50	26012020	260120	234950	282.750	12.291252	-56.625090	282.760	0.080	-0.400	0.520	282.710	-1.800	0.900																			1580082590.0	11.97	22.17
26/01/2020 23:49:51	26012020	260120	234951	282.530	12.291263	-56.625147	282.520	-0.030	-0.520	0.500	282.480	-1.900	0.900																			1580082591.0	12.19	22.58
26/01/2020 23:49:52	26012020	260120	234952	282.300	12.291275	-56.625203	282.310	-0.080	-0.530	0.530	282.260	-1.900	0.900																			1580082592.0	12.32	22.82
26/01/2020 23:49:53	26012020	260120	234953	282.140	12.291287	-56.625260	282.160	-0.120	-0.380	0.550	282.130	-1.700	0.900																			1580082593.0	12.28	22.74
26/01/2020 23:49:54	26012020	260120	234954	282.140	12.291300	-56.625317	282.180	-0.140	-0.160	0.500	282.150	-1.500	0.900																			1580082594.0	12.20	22.59
26/01/2020 23:49:55	26012020	260120	234955	282.280	12.291312	-56.625373	282.340	-0.140	-0.010	0.420	282.320	-1.400	0.800																			1580082595.0	12.17	22.54
26/01/2020 23:49:56	26012020	260120	234956	282.500	12.291323	-56.625430	282.560	-0.120	0.020	0.350	282.540	-1.300	0.700																			1580082596.0	12.25	22.69
26/01/2020 23:49:57	26012020	260120	234957	282.680	12.291335	-56.625487	282.740	-0.080	-0.020	0.260	282.710	-1.400	0.600																			1580082597.0	12.28	22.74
26/01/2020 23:49:58	26012020	260120	234958	282.780	12.291347	-56.625543	282.820	-0.010	-0.110	0.150	282.790	-1.500	0.500																			1580082598.0	12.24	22.67
26/01/2020 23:49:59	26012020	260120	234959	282.810	12.291358	-56.625600	282.830	0.050	-0.200	0.090	282.810	-1.600	0.400																			1580082599.0	12.19	22.58
26/01/2020 23:50:00	26012020	260120	235000	282.800	12.291368	-56.625657	282.830	0.010	-0.250	0.090	282.790	-1.600	0.400	1015.40	25.90	26.00	21.10	21.10	-1.00	74.00	74.00	378.00	24.80	49.00	3.30	71.00	4.80	15	3899.00	27.60	27.60	1580082600.0	12.06	22.34
26/01/2020 23:50:01	26012020	260120	235001	282.760	12.291378	-56.625712	282.780	-0.150	-0.290	0.130	282.750	-1.600	0.500																			1580082601.0	11.91	22.06
26/01/2020 23:50:02	26012020	260120	235002	282.690	12.291388	-56.625767	282.710	-0.270	-0.350	0.210	282.660	-1.700	0.600																			1580082602.0	11.84	21.93
26/01/2020 23:50:03	26012020	260120	235003	282.590	12.291398	-56.625822	282.620	-0.210	-0.490	0.380	282.570	-1.800	0.700																			1580082603.0	11.92	22.08
26/01/2020 23:50:04	26012020	260120	235004	282.550	12.291410	-56.625878	282.610	0.070	-0.630	0.640	282.550	-2.000	1.000																			1580082604.0	12.08	22.37
26/01/2020 23:50:05	26012020	260120	235005	282.580	12.291423	-56.625933	282.650	0.430	-0.670	0.940	282.590	-2.000	1.300																			1580082605.0	12.22	22.63
26/01/2020 23:50:06	26012020	260120	235006	282.610	12.291437	-56.625990	282.660	0.660	-0.530	1.160	282.610	-1.900	1.500																			1580082606.0	12.26	22.71
26/01/2020 23:50:07	26012020	260120	235007	282.600	12.291452	-56.626045	282.640	0.580	-0.230	1.120	282.590	-1.600	1.500																			1580082607.0	12.20	22.59
26/01/2020 23:50:08	26012020	260120	235008	282.540	12.291467	-56.626102	282.560	0.190	0.110	0.800	282.520	-1.300	1.200																			1580082608.0	12.07	22.35
26/01/2020 23:50:09	26012020	260120	235009	282.460	12.291478	-56.626157	282.500	-0.330	0.300	0.310	282.450	-1.100	0.700																			1580082609.0	11.98	22.19
26/01/2020 23:50:10	26012020	260120	235010	282.470	12.291487	-56.626213	282.520	-0.710	0.180	-0.220	282.490	-1.200	0.100																			1580082610.0	12.05	22.32
26/01/2020 23:50:11	26012020	260120	235011	282.580	12.291495	-56.626270	282.630	-0.750	-0.260	-0.570	282.600	-1.600	-0.200																			1580082611.0	12.33	22.84
26/01/2020 23:50:12	26012020	260120	235012	282.700	12.291502	-56.626330	282.760	-0.440	-0.710	-0.510	282.720	-2.100	-0.200																			1580082612.0	12.58	23.30
26/01/2020 23:50:13	26012020	260120	235013	282.770	12.291512	-56.626388	282.830	-0.010	-0.800	-0.100	282.770	-2.200	0.300																			1580082613.0	12.49	23.13
26/01/2020 23:50:14	26012020	260120	235014	282.750	12.291525	-56.626443	282.800	0.280	-0.500	0.420	282.730	-1.900	0.800																			1580082614.0	12.07	22.35
26/01/2020 23:50:15	26012020	260120	235015	282.650	12.291538	-56.626497	282.690	0.340	-0.130	0.780	282.630	-1.500	1.100																			1580082615.0	11.72	21.71
26/01/2020 23:50:16	26012020	260120	235016	282.600	12.291552	-56.626552	282.660	0.280	-0.010	0.790	282.610	-1.400	1.100																			1580082616.0	11.75	21.76
26/01/2020 23:50:17	26012020	260120	235017	282.690	12.291563	-56.626607	282.760	0.210	-0.150	0.560	282.720	-1.500	0.900																			1580082617.0	12.05	22.32
26/01/2020 23:50:18	26012020	260120	235018	282.820	12.291575	-56.626663	282.880	0.120	-0.320	0.310	282.840	-1.700	0.700																			1580082618.0	12.28	22.74
26/01/2020 23:50:19	26012020	260120	235019	282.880	12.291587	-56.626720	282.930	-0.020	-0.300	0.140	282.890	-1.700	0.500																			1580082619.0	12.27	22.72
26/01/2020 23:50:20	26012020	260120	235020	282.880	12.291598	-56.626777	282.910	-0.210	-0.130	0.100	282.880	-1.500	0.500																			1580082620.0	12.06	22.34
26/01/2020 23:50:21	26012020	260120	235021	282.840	12.291608	-56.626832	282.880	-0.330	-0.040	0.210	282.840	-1.400	0.600																			1580082621.0	11.92	22.08
26/01/2020 23:50:22	26012020	260120	235022	282.830	12.291620	-56.626887	282.880	-0.260	-0.160	0.430	282.830	-1.500	0.800																			1580082622.0	11.99	22.21
26/01/2020 23:50:23	26012020	260120	235023	282.850	12.291632	-56.626943	282.900	-0.010	-0.440	0.600	282.850	-1.800	1.000																			1580082623.0	12.21	22.61
26/01/2020 23:50:24	26012020	260120	235024	282.860	12.291643	-56.627000	282.910	0.300	-0.660	0.620	282.860	-2.000	1.000																			1580082624.0	12.35	22.87
26/01/2020 23:50:25	26012020	260120	235025	282.860	12.291657	-56.627057	282.910	0.490	-0.670	0.530	282.870	-2.000	0.900																			1580082625.0	12.27	22.72
26/01/2020 23:50:26	26012020	260120	235026	282.890	12.291668	-56.627113	282.940	0.470	-0.480	0.410	282.900	-1.800	0.800																			1580082626.0	12.09	22.39
26/01/2020 23:50:27	26012020	260120	235027	282.900	12.291682	-56.627168	282.930	0.250	-0.230	0.320	282.890	-1.600	0.700																			1580082627.0	11.97	22.17
26/01/2020 23:50:28	26012020	260120	235028	282.810	12.291693	-56.627223	282.830	-0.070	-0.010	0.210	282.780	-1.400	0.600																			1580082628.0	11.94	22.11
26/01/2020 23:50:29	26012020	260120	235029	282.650	12.291705	-56.627278	282.680	-0.370	0.060	0.090	282.630	-1.300	0.500																			1580082629.0	12.00	22.22
26/01/2020 23:50:30	26012020	260120	235030	282.560	12.291715	-56.627335	282.610	-0.520	-0.100	-0.040	282.560	-1.500	0.300																			1580082630.0	12.13	22.46
26/01/2020 23:50:31	26012020	260120	235031	282.620	12.291725	-56.627393	282.690	-0.460	-0.370	-0.140	282.640	-1.700	0.200																			1580082631.0	12.34	22.85
26/01/2020 23:50:32	26012020	260120	235032	282.760	12.291735	-56.627450	282.840	-0.250	-0.540	-0.130	282.790	-1.900	0.200																			1580082632.0	12.42	23.00
26/01/2020 23:50:33	26012020	260120	235033	282.880	12.291745	-56.627508	282.970	-0.030	-0.490	-0.000	282.910	-1.900	0.400																			1580082633.0	12.30	22.78
26/01/2020 23:50:34	26012020	260120	235034	283.030	12.291758	-56.627563	283.090	0.120	-0.270	0.250	283.050	-1.600	0.600																			1580082634.0	12.09	22.39
26/01/2020 23:50:35	26012020	260120	235035	283.090	12.291770	-56.627618	283.150	0.180	-0.030	0.620	283.100	-1.400	1.000																			1580082635.0	11.93	22.09
26/01/2020 23:50:36	26012020	260120	235036	283.050	12.291785	-56.627673	283.080	0.210	0.100	0.970	283.030	-1.300	1.300																			1580082636.0	11.92	22.08
26/01/2020 23:50:37	26012020	260120	235037	282.870	12.291798	-56.627728	282.880	0.230	0.070	1.140	282.820	-1.300	1.500																			1580082637.0	11.98	22.19
26/01/2020 23:50:38	26012020	260120	235038	282.610	12.291810	-56.627783	282.620	0.280	-0.100	1.030	282.560	-1.500	1.400																			1580082638.0	12.07	22.35
26/01/2020 23:50:39	26012020	260120	235039	282.380	12.291822	-56.627840	282.390	0.330	-0.370	0.770	282.340	-1.700	1.100																			1580082639.0	12.13	22.46
26/01/2020 23:50:40	26012020	260120	235040	282.280	12.291833	-56.627897	282.320	0.340	-0.670	0.490	282.280	-2.000	0.800																			1580082640.0	12.21	22.61
26/01/2020 23:50:41	26012020	260120	235041	282.300	12.291845	-56.627953	282.340	0.260	-0.870	0.260	282.310	-2.200	0.600																			1580082641.0	12.29	22.76
26/01/2020 23:50:42	26012020	260120	235042	282.360	12.291857	-56.628010	282.410	0.050	-0.790	0.120	282.370	-2.200	0.500																			1580082642.0	12.27	22.72
26/01/2020 23:50:43	26012020	260120	235043	282.420	12.291868	-56.628065	282.460	-0.270	-0.440	0.080	282.430	-1.800	0.400																			1580082643.0	12.08	22.37
26/01/2020 23:50:44	26012020	260120	235044	282.460	12.291878	-56.628122	282.500	-0.560	-0.070	0.130	282.470	-1.400	0.500																			1580082644.0	11.91	22.06
26/01/2020 23:50:45	26012020	260120	235045	282.500	12.291888	-56.628177	282.570	-0.630	0.060	0.260	282.520	-1.300	0.600																			1580082645.0	11.99	22.21
26/01/2020 23:50:46	26012020	260120	235046	282.620	12.291898	-56.628233	282.690	-0.430	-0.060	0.420	282.640	-1.400	0.800																			1580082646.0	12.27	22.72
26/01/2020 23:50:47	26012020	260120	235047	282.750	12.291910	-56.628292	282.840	-0.070	-0.240	0.620	282.780	-1.600	1.000																			1580082647.0	12.46	23.08
26/01/2020 23:50:48	26012020	260120	235048	282.860	12.291922	-56.628350	282.920	0.290	-0.270	0.820	282.870	-1.600	1.200																			1580082648.0	12.44	23.04
26/01/2020 23:50:49	26012020	260120	235049	282.880	12.291935	-56.628405	282.930	0.460	-0.110	0.870	282.880	-1.500	1.200																			1580082649.0	12.17	22.54
26/01/2020 23:50:50	26012020	260120	235050	282.860	12.291948	-56.628460	282.920	0.410	0.020	0.700	282.860	-1.400	1.100																			1580082650.0	11.92	22.08
26/01/2020 23:50:51	26012020	260120	235051	282.880	12.291960	-56.628515	282.940	0.230	-0.090	0.390	282.890	-1.500	0.800																			1580082651.0	11.94	22.11
26/01/2020 23:50:52	26012020	260120	235052	282.930	12.291972	-56.628572	282.980	0.000	-0.350	0.040	282.940	-1.700	0.400																			1580082652.0	12.15	22.50
26/01/2020 23:50:53	26012020	260120	235053	282.940	12.291982	-56.628628	283.000	-0.170	-0.550	-0.230	282.940	-1.900	0.100																			1580082653.0	12.27	22.72
26/01/2020 23:50:54	26012020	260120	235054	282.940	12.291992	-56.628685	283.000	-0.240	-0.600	-0.330	282.950	-2.000	0.000																			1580082654.0	12.22	22.63
26/01/2020 23:50:55	26012020	260120	235055	282.990	12.292002	-56.628742	283.050	-0.200	-0.530	-0.180	283.000	-1.900	0.200																			1580082655.0	12.16	22.52
26/01/2020 23:50:56	26012020	260120	235056	283.030	12.292013	-56.628798	283.110	-0.080	-0.350	0.210	283.030	-1.700	0.600																			1580082656.0	12.13	22.46
26/01/2020 23:50:57	26012020	260120	235057	282.940	12.292025	-56.628853	282.980	0.020	-0.060	0.630	282.900	-1.400	1.000																			1580082657.0	12.06	22.34
26/01/2020 23:50:58	26012020	260120	235058	282.700	12.292038	-56.628908	282.730	0.060	0.170	0.890	282.650	-1.200	1.300																			1580082658.0	11.94	22.11
26/01/2020 23:50:59	26012020	260120	235059	282.470	12.292052	-56.628963	282.520	0.090	0.120	0.830	282.440	-1.200	1.200																			1580082659.0	11.98	22.19
26/01/2020 23:51:00	26012020	260120	235100	282.380	12.292063	-56.629020	282.440	0.160	-0.260	0.570	282.390	-1.600	0.900	1015.40	26.00	26.00	21.10	21.10	-1.00	74.00	74.00	378.00	24.80	56.00	3.70	67.00	5.20	15	3886.00	27.50	27.50	1580082660.0	12.21	22.61
26/01/2020 23:51:01	26012020	260120	235101	282.450	12.292075	-56.629078	282.550	0.260	-0.710	0.250	282.480	-2.100	0.600																			1580082661.0	12.47	23.09
26/01/2020 23:51:02	26012020	260120	235102	282.670	12.292088	-56.629135	282.740	0.290	-0.950	-0.000	282.720	-2.300	0.400																			1580082662.0	12.51	23.17
26/01/2020 23:51:03	26012020	260120	235103	282.860	12.292100	-56.629192	282.920	0.140	-0.790	-0.060	282.890	-2.200	0.300																			1580082663.0	12.30	22.78
26/01/2020 23:51:04	26012020	260120	235104	282.970	12.292112	-56.629248	283.030	-0.140	-0.350	0.110	282.990	-1.700	0.500																			1580082664.0	11.98	22.19
26/01/2020 23:51:05	26012020	260120	235105	283.010	12.292123	-56.629302	283.070	-0.420	0.060	0.370	283.010	-1.300	0.700																			1580082665.0	11.82	21.89
26/01/2020 23:51:06	26012020	260120	235106	282.980	12.292135	-56.629357	283.030	-0.560	0.220	0.580	282.970	-1.100	0.900																			1580082666.0	11.94	22.11
26/01/2020 23:51:07	26012020	260120	235107	282.920	12.292147	-56.629413	282.960	-0.480	0.100	0.630	282.900	-1.300	1.000																			1580082667.0	12.21	22.61
26/01/2020 23:51:08	26012020	260120	235108	282.860	12.292158	-56.629472	282.900	-0.200	-0.170	0.460	282.850	-1.500	0.800																			1580082668.0	12.43	23.02
26/01/2020 23:51:09	26012020	260120	235109	282.850	12.292168	-56.629530	282.920	0.130	-0.420	0.230	282.860	-1.800	0.600																			1580082669.0	12.51	23.17
26/01/2020 23:51:10	26012020	260120	235110	282.950	12.292180	-56.629587	283.020	0.360	-0.490	0.110	282.970	-1.900	0.500																			1580082670.0	12.43	23.02
26/01/2020 23:51:11	26012020	260120	235111	283.020	12.292192	-56.629643	283.080	0.400	-0.340	0.150	283.030	-1.700	0.500																			1580082671.0	12.22	22.63
26/01/2020 23:51:12	26012020	260120	235112	282.970	12.292205	-56.629698	283.000	0.280	-0.060	0.320	282.940	-1.400	0.700																			1580082672.0	11.98	22.19
26/01/2020 23:51:13	26012020	260120	235113	282.780	12.292217	-56.629753	282.810	0.120	0.100	0.530	282.740	-1.300	0.900																			1580082673.0	11.85	21.95
26/01/2020 23:51:14	26012020	260120	235114	282.520	12.292230	-56.629808	282.540	0.030	-0.020	0.710	282.470	-1.400	1.100																			1580082674.0	11.97	22.17
26/01/2020 23:51:15	26012020	260120	235115	282.240	12.292242	-56.629865	282.260	0.010	-0.290	0.760	282.190	-1.600	1.100																			1580082675.0	12.19	22.58
26/01/2020 23:51:16	26012020	260120	235116	281.980	12.292253	-56.629922	281.990	-0.020	-0.520	0.640	281.930	-1.900	1.000																			1580082676.0	12.28	22.74
26/01/2020 23:51:17	26012020	260120	235117	281.810	12.292263	-56.629978	281.840	-0.050	-0.600	0.430	281.790	-2.000	0.800																			1580082677.0	12.19	22.58
26/01/2020 23:51:18	26012020	260120	235118	281.820	12.292275	-56.630035	281.870	-0.050	-0.600	0.230	281.850	-2.000	0.600																			1580082678.0	12.07	22.35
26/01/2020 23:51:19	26012020	260120	235119	282.030	12.292285	-56.630090	282.120	0.030	-0.570	0.140	282.090	-1.900	0.500																			1580082679.0	12.08	22.37
26/01/2020 23:51:20	26012020	260120	235120	282.360	12.292298	-56.630147	282.450	0.160	-0.560	0.230	282.430	-1.900	0.600																			1580082680.0	12.20	22.59
26/01/2020 23:51:21	26012020	260120	235121	282.630	12.292312	-56.630203	282.800	0.240	-0.500	0.470	282.700	-1.900	0.800																			1580082681.0	12.33	22.84
26/01/2020 23:51:22	26012020	260120	235122	282.950	12.292327	-56.630260	283.030	0.160	-0.330	0.710	282.980	-1.700	1.100																			1580082682.0	12.35	22.87
26/01/2020 23:51:23	26012020	260120	235123	283.050	12.292340	-56.630317	283.130	-0.100	-0.090	0.730	283.060	-1.500	1.100																			1580082683.0	12.24	22.67
26/01/2020 23:51:24	26012020	260120	235124	283.060	12.292350	-56.630373	283.110	-0.420	0.100	0.440	283.050	-1.300	0.800																			1580082684.0	12.16	22.52
26/01/2020 23:51:25	26012020	260120	235125	283.020	12.292358	-56.630430	283.050	-0.610	0.130	0.060	283.000	-1.200	0.400																			1580082685.0	12.19	22.58
26/01/2020 23:51:26	26012020	260120	235126	282.870	12.292367	-56.630487	282.910	-0.560	-0.000	-0.140	282.840	-1.400	0.200																			1580082686.0	12.30	22.78
26/01/2020 23:51:27	26012020	260120	235127	282.640	12.292375	-56.630545	282.660	-0.310	-0.130	-0.010	282.580	-1.500	0.400																			1580082687.0	12.36	22.89
26/01/2020 23:51:28	26012020	260120	235128	282.330	12.292387	-56.630602	282.350	-0.020	-0.130	0.350	282.260	-1.500	0.700																			1580082688.0	12.22	22.63
26/01/2020 23:51:29	26012020	260120	235129	282.030	12.292398	-56.630657	282.070	0.230	-0.110	0.710	281.980	-1.500	1.100																			1580082689.0	12.03	22.28
26/01/2020 23:51:30	26012020	260120	235130	281.840	12.292412	-56.630712	281.890	0.420	-0.200	0.890	281.820	-1.600	1.300																			1580082690.0	11.98	22.19
26/01/2020 23:51:31	26012020	260120	235131	281.790	12.292425	-56.630768	281.860	0.570	-0.400	0.790	281.800	-1.800	1.200																			1580082691.0	12.10	22.41
26/01/2020 23:51:32	26012020	260120	235132	281.900	12.292438	-56.630825	281.980	0.650	-0.580	0.560	281.940	-1.900	0.900																			1580082692.0	12.24	22.67
26/01/2020 23:51:33	26012020	260120	235133	282.110	12.292452	-56.630880	282.190	0.550	-0.590	0.320	282.160	-1.900	0.700																			1580082693.0	12.22	22.63
26/01/2020 23:51:34	26012020	260120	235134	282.350	12.292463	-56.630937	282.410	0.230	-0.470	0.130	282.400	-1.800	0.500																			1580082694.0	12.07	22.35
26/01/2020 23:51:35	26012020	260120	235135	282.540	12.292475	-56.630992	282.650	-0.190	-0.350	-0.030	282.580	-1.700	0.300																			1580082695.0	11.98	22.19
26/01/2020 23:51:36	26012020	260120	235136	282.790	12.292485	-56.631048	282.860	-0.520	-0.330	-0.130	282.830	-1.700	0.200																			1580082696.0	12.04	22.30
26/01/2020 23:51:37	26012020	260120	235137	282.920	12.292495	-56.631105	283.020	-0.640	-0.450	-0.140	282.950	-1.800	0.200																			1580082697.0	12.20	22.59
26/01/2020 23:51:38	26012020	260120	235138	283.050	12.292505	-56.631162	283.110	-0.520	-0.600	-0.010	283.060	-2.000	0.400																			1580082698.0	12.40	22.96
26/01/2020 23:51:39	26012020	260120	235139	283.080	12.292517	-56.631220	283.130	-0.230	-0.620	0.300	283.060	-2.000	0.700																			1580082699.0	12.49	23.13
26/01/2020 23:51:40	26012020	260120	235140	282.980	12.292528	-56.631278	283.020	0.070	-0.380	0.670	282.940	-1.800	1.000																			1580082700.0	12.40	22.96
26/01/2020 23:51:41	26012020	260120	235141	282.750	12.292540	-56.631333	282.760	0.220	0.040	1.010	282.680	-1.300	1.400																			1580082701.0	12.17	22.54
26/01/2020 23:51:42	26012020	260120	235142	282.410	12.292555	-56.631388	282.400	0.190	0.360	1.180	282.330	-1.000	1.500																			1580082702.0	12.01	22.24
26/01/2020 23:51:43	26012020	260120	235143	282.060	12.292567	-56.631445	282.050	0.040	0.390	1.030	282.000	-1.000	1.400																			1580082703.0	12.09	22.39
26/01/2020 23:51:44	26012020	260120	235144	281.810	12.292578	-56.631502	281.810	-0.090	0.190	0.670	281.780	-1.200	1.000																			1580082704.0	12.26	22.71
26/01/2020 23:51:45	26012020	260120	235145	281.710	12.292590	-56.631558	281.720	-0.130	-0.080	0.290	281.710	-1.400	0.700																			1580082705.0	12.32	22.82
26/01/2020 23:51:46	26012020	260120	235146	281.750	12.292598	-56.631615	281.790	-0.070	-0.350	-0.010	281.770	-1.700	0.400																			1580082706.0	12.27	22.72
26/01/2020 23:51:47	26012020	260120	235147	281.890	12.292608	-56.631672	281.940	0.040	-0.520	-0.120	281.930	-1.900	0.200																			1580082707.0	12.18	22.56
26/01/2020 23:51:48	26012020	260120	235148	282.100	12.292620	-56.631728	282.170	0.180	-0.570	-0.020	282.160	-1.900	0.300																			1580082708.0	12.03	22.28
26/01/2020 23:51:49	26012020	260120	235149	282.380	12.292632	-56.631783	282.470	0.330	-0.580	0.210	282.440	-1.900	0.600																			1580082709.0	11.92	22.08
26/01/2020 23:51:50	26012020	260120	235150	282.650	12.292643	-56.631838	282.740	0.480	-0.610	0.460	282.690	-2.000	0.800																			1580082710.0	11.96	22.15
26/01/2020 23:51:51	26012020	260120	235151	282.780	12.292657	-56.631893	282.840	0.520	-0.620	0.740	282.780	-2.000	1.100																			1580082711.0	12.10	22.41
26/01/2020 23:51:52	26012020	260120	235152	282.730	12.292672	-56.631950	282.760	0.330	-0.530	0.920	282.700	-1.900	1.300																			1580082712.0	12.16	22.52
26/01/2020 23:51:53	26012020	260120	235153	282.560	12.292685	-56.632005	282.580	-0.050	-0.330	0.880	282.520	-1.700	1.200																			1580082713.0	12.11	22.43
26/01/2020 23:51:54	26012020	260120	235154	282.370	12.292695	-56.632062	282.380	-0.460	-0.200	0.600	282.340	-1.600	1.000																			1580082714.0	12.08	22.37
26/01/2020 23:51:55	26012020	260120	235155	282.260	12.292705	-56.632118	282.250	-0.680	-0.230	0.250	282.240	-1.600	0.600																			1580082715.0	12.24	22.67
26/01/2020 23:51:56	26012020	260120	235156	282.210	12.292713	-56.632177	282.240	-0.650	-0.370	-0.000	282.210	-1.700	0.400																			1580082716.0	12.50	23.15
26/01/2020 23:51:57	26012020	260120	235157	282.270	12.292723	-56.632237	282.300	-0.430	-0.430	-0.030	282.280	-1.800	0.300																			1580082717.0	12.65	23.43
26/01/2020 23:51:58	26012020	260120	235158	282.320	12.292733	-56.632295	282.350	-0.150	-0.250	0.180	282.320	-1.600	0.500																			1580082718.0	12.55	23.24
26/01/2020 23:51:59	26012020	260120	235159	282.300	12.292747	-56.632352	282.330	0.060	0.160	0.490	282.280	-1.200	0.900																			1580082719.0	12.25	22.69
26/01/2020 23:52:00	26012020	260120	235200	282.200	12.292758	-56.632407	282.230	0.160	0.530	0.740	282.170	-0.800	1.100	1015.40	25.90	26.00	21.10	21.10	-1.00	74.00	74.00	378.00	24.80	54.00	3.00	74.00	5.10	15	3796.00	27.50	27.50	1580082720.0	11.94	22.11
26/01/2020 23:52:01	26012020	260120	235201	282.050	12.292772	-56.632460	282.070	0.160	0.600	0.790	282.020	-0.800	1.200																			1580082721.0	11.81	21.87
26/01/2020 23:52:02	26012020	260120	235202	281.880	12.292783	-56.632515	281.910	0.140	0.250	0.610	281.860	-1.100	1.000																			1580082722.0	11.91	22.06
26/01/2020 23:52:03	26012020	260120	235203	281.830	12.292793	-56.632572	281.880	0.220	-0.390	0.270	281.850	-1.800	0.600																			1580082723.0	12.14	22.48
26/01/2020 23:52:04	26012020	260120	235204	282.010	12.292803	-56.632630	282.080	0.420	-1.010	-0.040	282.060	-2.400	0.300																			1580082724.0	12.34	22.85
26/01/2020 23:52:05	26012020	260120	235205	282.330	12.292813	-56.632687	282.390	0.600	-1.250	-0.080	282.390	-2.600	0.300																			1580082725.0	12.29	22.76
26/01/2020 23:52:06	26012020	260120	235206	282.600	12.292827	-56.632742	282.660	0.560	-1.040	0.150	282.640	-2.400	0.500																			1580082726.0	12.02	22.26
26/01/2020 23:52:07	26012020	260120	235207	282.740	12.292840	-56.632795	282.800	0.230	-0.590	0.380	282.760	-2.000	0.700																			1580082727.0	11.77	21.80
26/01/2020 23:52:08	26012020	260120	235208	282.770	12.292853	-56.632850	282.830	-0.200	-0.230	0.440	282.770	-1.600	0.800																			1580082728.0	11.79	21.84
26/01/2020 23:52:09	26012020	260120	235209	282.720	12.292863	-56.632905	282.760	-0.520	-0.100	0.340	282.700	-1.500	0.700																			1580082729.0	12.05	22.32
26/01/2020 23:52:10	26012020	260120	235210	282.550	12.292873	-56.632963	282.580	-0.590	-0.150	0.220	282.510	-1.500	0.600																			1580082730.0	12.40	22.96
26/01/2020 23:52:11	26012020	260120	235211	282.310	12.292883	-56.633022	282.330	-0.470	-0.240	0.180	282.260	-1.600	0.600																			1580082731.0	12.62	23.37
26/01/2020 23:52:12	26012020	260120	235212	282.050	12.292893	-56.633082	282.060	-0.300	-0.230	0.250	282.000	-1.600	0.600																			1580082732.0	12.61	23.35
26/01/2020 23:52:13	26012020	260120	235213	281.870	12.292905	-56.633138	281.850	-0.150	-0.040	0.400	281.830	-1.400	0.800																			1580082733.0	12.43	23.02
26/01/2020 23:52:14	26012020	260120	235214	281.720	12.292917	-56.633195	281.760	-0.070	0.250	0.560	281.720	-1.100	0.900																			1580082734.0	12.12	22.45
26/01/2020 23:52:15	26012020	260120	235215	281.750	12.292928	-56.633250	281.810	-0.050	0.380	0.620	281.770	-1.000	1.000																			1580082735.0	11.89	22.02
26/01/2020 23:52:16	26012020	260120	235216	281.930	12.292940	-56.633305	281.980	0.010	0.170	0.610	281.970	-1.200	1.000																			1580082736.0	11.92	22.08
26/01/2020 23:52:17	26012020	260120	235217	282.150	12.292952	-56.633362	282.200	0.170	-0.290	0.560	282.190	-1.600	0.900																			1580082737.0	12.15	22.50
26/01/2020 23:52:18	26012020	260120	235218	282.390	12.292963	-56.633418	282.450	0.420	-0.740	0.550	282.440	-2.100	0.900																			1580082738.0	12.31	22.80
26/01/2020 23:52:19	26012020	260120	235219	282.640	12.292975	-56.633475	282.690	0.640	-0.960	0.610	282.680	-2.300	1.000																			1580082739.0	12.28	22.74
26/01/2020 23:52:20	26012020	260120	235220	282.810	12.292988	-56.633530	282.860	0.710	-0.870	0.710	282.830	-2.200	1.100																			1580082740.0	12.17	22.54
26/01/2020 23:52:21	26012020	260120	235221	282.820	12.293002	-56.633587	282.850	0.500	-0.490	0.760	282.800	-1.900	1.100																			1580082741.0	11.99	22.21
26/01/2020 23:52:22	26012020	260120	235222	282.650	12.293015	-56.633640	282.680	0.030	-0.010	0.640	282.610	-1.400	1.000																			1580082742.0	11.81	21.87
26/01/2020 23:52:23	26012020	260120	235223	282.420	12.293025	-56.633695	282.440	-0.500	0.220	0.300	282.370	-1.200	0.700																			1580082743.0	11.77	21.80
26/01/2020 23:52:24	26012020	260120	235224	282.230	12.293032	-56.633752	282.260	-0.790	0.030	-0.100	282.210	-1.300	0.300																			1580082744.0	12.07	22.35
26/01/2020 23:52:25	26012020	260120	235225	282.200	12.293040	-56.633810	282.240	-0.680	-0.400	-0.370	282.210	-1.800	0.000																			1580082745.0	12.45	23.06
26/01/2020 23:52:26	26012020	260120	235226	282.330	12.293048	-56.633868	282.410	-0.250	-0.790	-0.350	282.380	-2.200	0.000																			1580082746.0	12.67	23.46
26/01/2020 23:52:27	26012020	260120	235227	282.590	12.293060	-56.633927	282.680	0.220	-0.820	-0.020	282.640	-2.200	0.400																			1580082747.0	12.58	23.30
26/01/2020 23:52:28	26012020	260120	235228	282.840	12.293073	-56.633983	282.930	0.460	-0.450	0.440	282.880	-1.800	0.800																			1580082748.0	12.24	22.67
26/01/2020 23:52:29	26012020	260120	235229	282.980	12.293088	-56.634038	283.060	0.370	0.110	0.830	282.990	-1.300	1.200																			1580082749.0	11.88	22.00
26/01/2020 23:52:30	26012020	260120	235230	282.970	12.293103	-56.634090	283.010	0.080	0.500	0.910	282.940	-0.900	1.300																			1580082750.0	11.68	21.63
26/01/2020 23:52:31	26012020	260120	235231	282.820	12.293115	-56.634145	282.840	-0.200	0.470	0.710	282.780	-0.900	1.100																			1580082751.0	11.81	21.87
26/01/2020 23:52:32	26012020	260120	235232	282.660	12.293125	-56.634202	282.690	-0.290	0.010	0.360	282.650	-1.400	0.700																			1580082752.0	12.14	22.48
26/01/2020 23:52:33	26012020	260120	235233	282.630	12.293135	-56.634260	282.680	-0.160	-0.630	0.070	282.640	-2.000	0.400																			1580082753.0	12.50	23.15
26/01/2020 23:52:34	26012020	260120	235234	282.710	12.293145	-56.634318	282.770	0.100	-1.060	-0.020	282.740	-2.400	0.400																			1580082754.0	12.63	23.39
26/01/2020 23:52:35	26012020	260120	235235	282.830	12.293157	-56.634377	282.890	0.360	-1.020	0.150	282.850	-2.400	0.500																			1580082755.0	12.42	23.00
26/01/2020 23:52:36	26012020	260120	235236	282.920	12.293172	-56.634432	282.980	0.460	-0.600	0.440	282.930	-2.000	0.800																			1580082756.0	12.08	22.37
26/01/2020 23:52:37	26012020	260120	235237	282.940	12.293185	-56.634487	282.990	0.310	-0.080	0.640	282.930	-1.500	1.000																			1580082757.0	11.84	21.93
26/01/2020 23:52:38	26012020	260120	235238	282.890	12.293198	-56.634540	282.940	-0.060	0.270	0.630	282.870	-1.100	1.000																			1580082758.0	11.81	21.87
26/01/2020 23:52:39	26012020	260120	235239	282.790	12.293210	-56.634595	282.810	-0.510	0.310	0.330	282.770	-1.100	0.700																			1580082759.0	11.93	22.09
26/01/2020 23:52:40	26012020	260120	235240	282.700	12.293220	-56.634652	282.720	-0.780	0.040	-0.060	282.690	-1.300	0.300																			1580082760.0	12.16	22.52
26/01/2020 23:52:41	26012020	260120	235241	282.720	12.293228	-56.634710	282.780	-0.690	-0.390	-0.340	282.750	-1.800	0.000																			1580082761.0	12.38	22.93
26/01/2020 23:52:42	26012020	260120	235242	282.900	12.293237	-56.634768	282.990	-0.260	-0.810	-0.340	282.940	-2.200	0.000																			1580082762.0	12.49	23.13
26/01/2020 23:52:43	26012020	260120	235243	283.110	12.293248	-56.634827	283.210	0.270	-0.950	-0.020	283.150	-2.300	0.300																			1580082763.0	12.47	23.09
26/01/2020 23:52:44	26012020	260120	235244	283.190	12.293262	-56.634882	283.260	0.610	-0.640	0.480	283.180	-2.000	0.800																			1580082764.0	12.28	22.74
26/01/2020 23:52:45	26012020	260120	235245	283.040	12.293277	-56.634937	283.080	0.590	-0.040	0.960	282.980	-1.400	1.300																			1580082765.0	11.93	22.09
26/01/2020 23:52:46	26012020	260120	235246	282.700	12.293292	-56.634990	282.710	0.310	0.440	1.180	282.620	-0.900	1.500																			1580082766.0	11.68	21.63
26/01/2020 23:52:47	26012020	260120	235247	282.310	12.293305	-56.635043	282.310	-0.040	0.470	1.050	282.240	-0.900	1.400																			1580082767.0	11.80	21.85
26/01/2020 23:52:48	26012020	260120	235248	282.020	12.293317	-56.635100	282.030	-0.240	0.060	0.630	281.990	-1.300	1.000																			1580082768.0	12.14	22.48
26/01/2020 23:52:49	26012020	260120	235249	281.930	12.293327	-56.635158	281.950	-0.190	-0.520	0.150	281.930	-1.900	0.500																			1580082769.0	12.46	23.08
26/01/2020 23:52:50	26012020	260120	235250	282.030	12.293337	-56.635217	282.060	0.000	-0.890	-0.110	282.060	-2.300	0.300																			1580082770.0	12.56	23.26
26/01/2020 23:52:51	26012020	260120	235251	282.190	12.293348	-56.635273	282.260	0.110	-0.810	-0.030	282.230	-2.200	0.300																			1580082771.0	12.30	22.78
26/01/2020 23:52:52	26012020	260120	235252	282.480	12.293360	-56.635328	282.530	0.040	-0.480	0.140	282.540	-1.900	0.500																			1580082772.0	11.89	22.02
26/01/2020 23:52:53	26012020	260120	235253	282.780	12.293373	-56.635383	282.840	-0.090	-0.270	0.250	282.830	-1.600	0.600																			1580082773.0	11.77	21.80
26/01/2020 23:52:54	26012020	260120	235254	283.060	12.293385	-56.635438	283.120	-0.110	-0.300	0.250	283.100	-1.700	0.600																			1580082774.0	12.05	22.32
26/01/2020 23:52:55	26012020	260120	235255	283.210	12.293397	-56.635495	283.260	0.000	-0.370	0.220	283.210	-1.700	0.600																			1580082775.0	12.37	22.91
26/01/2020 23:52:56	26012020	260120	235256	283.150	12.293407	-56.635553	283.170	0.070	-0.270	0.300	283.110	-1.600	0.700																			1580082776.0	12.39	22.95
26/01/2020 23:52:57	26012020	260120	235257	282.890	12.293418	-56.635610	282.890	-0.030	-0.030	0.460	282.810	-1.400	0.800																			1580082777.0	12.17	22.54
26/01/2020 23:52:58	26012020	260120	235258	282.490	12.293430	-56.635665	282.490	-0.250	0.130	0.580	282.410	-1.200	0.900																			1580082778.0	11.95	22.13
26/01/2020 23:52:59	26012020	260120	235259	282.110	12.293442	-56.635720	282.120	-0.400	0.030	0.560	282.050	-1.300	0.900																			1580082779.0	12.00	22.22
26/01/2020 23:53:00	26012020	260120	235300	281.860	12.293453	-56.635777	281.880	-0.320	-0.260	0.370	281.840	-1.600	0.700	1015.40	25.90	26.00	21.00	21.00	-1.00	74.00	74.00	378.00	24.80	54.00	2.90	75.00	5.10	15	3777.00	27.50	27.50	1580082780.0	12.22	22.63
26/01/2020 23:53:01	26012020	260120	235301	281.820	12.293463	-56.635835	281.870	-0.040	-0.540	0.190	281.840	-1.900	0.600																			1580082781.0	12.38	22.93
26/01/2020 23:53:02	26012020	260120	235302	281.970	12.293475	-56.635892	282.030	0.300	-0.600	0.200	282.020	-2.000	0.600																			1580082782.0	12.35	22.87
26/01/2020 23:53:03	26012020	260120	235303	282.160	12.293488	-56.635948	282.290	0.510	-0.380	0.400	282.210	-1.700	0.800																			1580082783.0	12.15	22.50
26/01/2020 23:53:04	26012020	260120	235304	282.490	12.293502	-56.636002	282.570	0.500	-0.050	0.670	282.540	-1.400	1.000																			1580082784.0	11.92	22.08
26/01/2020 23:53:05	26012020	260120	235305	282.680	12.293517	-56.636057	282.800	0.310	0.130	0.760	282.720	-1.200	1.100																			1580082785.0	11.81	21.87
26/01/2020 23:53:06	26012020	260120	235306	282.870	12.293530	-56.636112	282.930	0.070	0.030	0.590	282.880	-1.300	1.000																			1580082786.0	11.94	22.11
26/01/2020 23:53:07	26012020	260120	235307	282.900	12.293540	-56.636167	282.930	-0.110	-0.270	0.300	282.890	-1.600	0.700																			1580082787.0	12.16	22.52
26/01/2020 23:53:08	26012020	260120	235308	282.800	12.293550	-56.636225	282.820	-0.180	-0.610	0.090	282.760	-2.000	0.500																			1580082788.0	12.33	22.84
26/01/2020 23:53:09	26012020	260120	235309	282.620	12.293560	-56.636283	282.640	-0.160	-0.860	0.090	282.580	-2.200	0.500																			1580082789.0	12.35	22.87
26/01/2020 23:53:10	26012020	260120	235310	282.410	12.293570	-56.636340	282.430	-0.100	-0.930	0.250	282.370	-2.300	0.600																			1580082790.0	12.31	22.80
26/01/2020 23:53:11	26012020	260120	235311	282.250	12.293582	-56.636397	282.290	-0.060	-0.830	0.420	282.240	-2.200	0.800																			1580082791.0	12.27	22.72
26/01/2020 23:53:12	26012020	260120	235312	282.250	12.293595	-56.636453	282.290	-0.100	-0.590	0.460	282.260	-2.000	0.800																			1580082792.0	12.27	22.72
26/01/2020 23:53:13	26012020	260120	235313	282.380	12.293607	-56.636510	282.430	-0.240	-0.210	0.380	282.420	-1.600	0.700																			1580082793.0	12.26	22.71
26/01/2020 23:53:14	26012020	260120	235314	282.560	12.293618	-56.636567	282.610	-0.450	0.240	0.240	282.590	-1.100	0.600																			1580082794.0	12.18	22.56
26/01/2020 23:53:15	26012020	260120	235315	282.700	12.293630	-56.636622	282.750	-0.590	0.590	0.080	282.720	-0.800	0.400																			1580082795.0	12.09	22.39
26/01/2020 23:53:16	26012020	260120	235316	282.750	12.293640	-56.636678	282.810	-0.540	0.680	-0.040	282.750	-0.700	0.300																			1580082796.0	12.06	22.34
26/01/2020 23:53:17	26012020	260120	235317	282.720	12.293650	-56.636735	282.770	-0.190	0.430	-0.070	282.710	-0.900	0.300																			1580082797.0	12.16	22.52
26/01/2020 23:53:18	26012020	260120	235318	282.670	12.293660	-56.636792	282.730	0.380	-0.020	0.040	282.670	-1.400	0.400																			1580082798.0	12.32	22.82
26/01/2020 23:53:19	26012020	260120	235319	282.600	12.293673	-56.636848	282.660	0.920	-0.450	0.380	282.580	-1.800	0.700																			1580082799.0	12.35	22.87
26/01/2020 23:53:20	26012020	260120	235320	282.420	12.293688	-56.636905	282.470	1.120	-0.690	0.740	282.370	-2.100	1.100																			1580082800.0	12.19	22.58
26/01/2020 23:53:21	26012020	260120	235321	282.180	12.293705	-56.636958	282.210	0.870	-0.780	0.780	282.140	-2.100	1.100																			1580082801.0	11.95	22.13
26/01/2020 23:53:22	26012020	260120	235322	282.040	12.293717	-56.637013	282.100	0.400	-0.880	0.410	282.040	-2.200	0.800																			1580082802.0	11.79	21.84
26/01/2020 23:53:23	26012020	260120	235323	282.090	12.293728	-56.637068	282.150	-0.020	-1.070	-0.090	282.110	-2.400	0.300																			1580082803.0	11.97	22.17
26/01/2020 23:53:24	26012020	260120	235324	282.240	12.293737	-56.637127	282.300	-0.300	-1.150	-0.470	282.270	-2.500	-0.100																			1580082804.0	12.33	22.84
26/01/2020 23:53:25	26012020	260120	235325	282.370	12.293747	-56.637183	282.460	-0.560	-0.810	-0.510	282.410	-2.200	-0.100																			1580082805.0	12.40	22.96
26/01/2020 23:53:26	26012020	260120	235326	282.590	12.293757	-56.637240	282.660	-0.830	-0.160	-0.320	282.630	-1.500	0.000																			1580082806.0	12.09	22.39
26/01/2020 23:53:27	26012020	260120	235327	282.800	12.293767	-56.637295	282.890	-0.930	0.320	-0.040	282.840	-1.000	0.300																			1580082807.0	11.96	22.15
26/01/2020 23:53:28	26012020	260120	235328	282.980	12.293777	-56.637353	283.060	-0.710	0.410	0.260	283.000	-1.000	0.600																			1580082808.0	12.24	22.67
26/01/2020 23:53:29	26012020	260120	235329	283.030	12.293790	-56.637412	283.070	-0.250	0.270	0.560	283.020	-1.100	0.900																			1580082809.0	12.62	23.37
26/01/2020 23:53:30	26012020	260120	235330	282.890	12.293803	-56.637470	282.920	0.200	0.200	0.850	282.840	-1.200	1.200																			1580082810.0	12.67	23.46
26/01/2020 23:53:31	26012020	260120	235331	282.610	12.293818	-56.637527	282.620	0.440	0.240	1.000	282.540	-1.100	1.400																			1580082811.0	12.36	22.89
26/01/2020 23:53:32	26012020	260120	235332	282.260	12.293832	-56.637582	282.280	0.490	0.210	0.850	282.190	-1.100	1.200																			1580082812.0	12.03	22.28
26/01/2020 23:53:33	26012020	260120	235333	281.930	12.293843	-56.637637	281.940	0.450	-0.030	0.500	281.860	-1.400	0.900																			1580082813.0	11.90	22.04
26/01/2020 23:53:34	26012020	260120	235334	281.650	12.293853	-56.637692	281.670	0.380	-0.440	0.130	281.610	-1.800	0.500																			1580082814.0	11.98	22.19
26/01/2020 23:53:35	26012020	260120	235335	281.500	12.293863	-56.637748	281.530	0.300	-0.830	-0.070	281.490	-2.200	0.300																			1580082815.0	12.02	22.26
26/01/2020 23:53:36	26012020	260120	235336	281.530	12.293873	-56.637803	281.580	0.240	-1.090	-0.080	281.560	-2.400	0.300																			1580082816.0	12.00	22.22
26/01/2020 23:53:37	26012020	260120	235337	281.740	12.293885	-56.637858	281.820	0.230	-1.220	-0.000	281.800	-2.600	0.400																			1580082817.0	12.00	22.22
26/01/2020 23:53:38	26012020	260120	235338	282.060	12.293897	-56.637915	282.160	0.220	-1.180	0.070	282.140	-2.500	0.400																			1580082818.0	12.15	22.50
26/01/2020 23:53:39	26012020	260120	235339	282.330	12.293910	-56.637972	282.490	0.090	-0.790	0.170	282.400	-2.200	0.500																			1580082819.0	12.27	22.72
26/01/2020 23:53:40	26012020	260120	235340	282.650	12.293922	-56.638028	282.740	-0.230	-0.080	0.320	282.700	-1.500	0.700																			1580082820.0	12.11	22.43
26/01/2020 23:53:41	26012020	260120	235341	282.800	12.293932	-56.638083	282.900	-0.620	0.590	0.430	282.820	-0.800	0.800																			1580082821.0	11.88	22.00
26/01/2020 23:53:42	26012020	260120	235342	282.890	12.293943	-56.638138	282.960	-0.870	0.850	0.450	282.890	-0.500	0.800																			1580082822.0	11.95	22.13
26/01/2020 23:53:43	26012020	260120	235343	282.850	12.293952	-56.638195	282.890	-0.790	0.630	0.360	282.830	-0.700	0.700																			1580082823.0	12.28	22.74
26/01/2020 23:53:44	26012020	260120	235344	282.740	12.293962	-56.638253	282.780	-0.370	0.140	0.230	282.720	-1.200	0.600																			1580082824.0	12.58	23.30
26/01/2020 23:53:45	26012020	260120	235345	282.590	12.293972	-56.638313	282.610	0.190	-0.350	0.200	282.540	-1.700	0.600																			1580082825.0	12.62	23.37
26/01/2020 23:53:46	26012020	260120	235346	282.320	12.293983	-56.638370	282.310	0.590	-0.640	0.320	282.250	-2.000	0.700																			1580082826.0	12.43	23.02
26/01/2020 23:53:47	26012020	260120	235347	281.990	12.293997	-56.638427	281.980	0.670	-0.680	0.440	281.920	-2.100	0.800																			1580082827.0	12.10	22.41
26/01/2020 23:53:48	26012020	260120	235348	281.720	12.294010	-56.638480	281.750	0.510	-0.610	0.450	281.690	-2.000	0.800																			1580082828.0	11.81	21.87
26/01/2020 23:53:49	26012020	260120	235349	281.600	12.294023	-56.638535	281.640	0.310	-0.590	0.320	281.590	-2.000	0.700																			1580082829.0	11.73	21.72
26/01/2020 23:53:50	26012020	260120	235350	281.650	12.294035	-56.638590	281.710	0.210	-0.640	0.040	281.690	-2.000	0.400																			1580082830.0	11.92	22.08
26/01/2020 23:53:51	26012020	260120	235351	281.840	12.294045	-56.638645	281.990	0.160	-0.650	-0.260	281.910	-2.000	0.100																			1580082831.0	12.13	22.46
26/01/2020 23:53:52	26012020	260120	235352	282.320	12.294057	-56.638702	282.410	0.040	-0.480	-0.450	282.420	-1.900	-0.100																			1580082832.0	12.19	22.58
26/01/2020 23:53:53	26012020	260120	235353	282.690	12.294067	-56.638758	282.850	-0.170	-0.140	-0.420	282.760	-1.500	-0.100																			1580082833.0	12.09	22.39
26/01/2020 23:53:54	26012020	260120	235354	283.090	12.294078	-56.638813	283.170	-0.400	0.190	-0.200	283.140	-1.200	0.200																			1580082834.0	11.98	22.19
26/01/2020 23:53:55	26012020	260120	235355	283.270	12.294090	-56.638870	283.390	-0.510	0.270	-0.010	283.310	-1.100	0.400																			1580082835.0	12.04	22.30
26/01/2020 23:53:56	26012020	260120	235356	283.440	12.294100	-56.638927	283.520	-0.430	0.050	0.050	283.450	-1.300	0.400																			1580082836.0	12.28	22.74
26/01/2020 23:53:57	26012020	260120	235357	283.450	12.294112	-56.638985	283.510	-0.170	-0.300	0.100	283.440	-1.700	0.500																			1580082837.0	12.53	23.21
26/01/2020 23:53:58	26012020	260120	235358	283.310	12.294122	-56.639043	283.350	0.130	-0.480	0.250	283.250	-1.900	0.600																			1580082838.0	12.55	23.24
26/01/2020 23:53:59	26012020	260120	235359	282.950	12.294135	-56.639100	282.970	0.260	-0.370	0.480	282.860	-1.700	0.900																			1580082839.0	12.28	22.74
26/01/2020 23:54:00	26012020	260120	235400	282.460	12.294148	-56.639155	282.450	0.160	-0.120	0.610	282.350	-1.500	1.000	1015.50	25.90	26.00	21.00	21.00	-1.00	74.00	74.00	378.00	24.80	49.00	2.90	76.00	4.90	15	3891.00	27.50	27.50	1580082840.0	11.88	22.00
26/01/2020 23:54:01	26012020	260120	235401	281.970	12.294160	-56.639208	281.950	-0.030	-0.020	0.490	281.880	-1.400	0.900																			1580082841.0	11.71	21.69
26/01/2020 23:54:02	26012020	260120	235402	281.640	12.294172	-56.639263	281.650	-0.120	-0.190	0.150	281.610	-1.600	0.500																			1580082842.0	11.83	21.91
26/01/2020 23:54:03	26012020	260120	235403	281.590	12.294180	-56.639318	281.630	-0.050	-0.510	-0.170	281.610	-1.900	0.200																			1580082843.0	12.07	22.35
26/01/2020 23:54:04	26012020	260120	235404	281.790	12.294192	-56.639375	281.850	0.130	-0.740	-0.340	281.850	-2.100	0.000																			1580082844.0	12.20	22.59
26/01/2020 23:54:05	26012020	260120	235405	282.150	12.294202	-56.639432	282.230	0.330	-0.750	-0.240	282.240	-2.100	0.100																			1580082845.0	12.14	22.48
26/01/2020 23:54:06	26012020	260120	235406	282.590	12.294215	-56.639487	282.680	0.470	-0.580	0.010	282.680	-2.000	0.400																			1580082846.0	12.04	22.30
26/01/2020 23:54:07	26012020	260120	235407	283.000	12.294230	-56.639542	283.080	0.490	-0.290	0.270	283.070	-1.700	0.600																			1580082847.0	12.02	22.26
26/01/2020 23:54:08	26012020	260120	235408	283.270	12.294245	-56.639597	283.320	0.370	0.010	0.480	283.300	-1.400	0.800																			1580082848.0	12.01	22.24
26/01/2020 23:54:09	26012020	260120	235409	283.340	12.294258	-56.639652	283.380	0.100	0.160	0.470	283.340	-1.200	0.800																			1580082849.0	12.02	22.26
26/01/2020 23:54:10	26012020	260120	235410	283.240	12.294270	-56.639708	283.260	-0.210	0.070	0.250	283.210	-1.300	0.600																			1580082850.0	12.15	22.50
26/01/2020 23:54:11	26012020	260120	235411	283.040	12.294280	-56.639767	283.060	-0.470	-0.180	-0.030	282.990	-1.600	0.400																			1580082851.0	12.35	22.87
26/01/2020 23:54:12	26012020	260120	235412	282.780	12.294288	-56.639823	282.800	-0.630	-0.400	-0.190	282.730	-1.800	0.200																			1580082852.0	12.41	22.98
26/01/2020 23:54:13	26012020	260120	235413	282.480	12.294298	-56.639882	282.490	-0.670	-0.500	-0.100	282.410	-1.900	0.300																			1580082853.0	12.31	22.80
26/01/2020 23:54:14	26012020	260120	235414	282.150	12.294308	-56.639938	282.170	-0.580	-0.480	0.200	282.100	-1.900	0.600																			1580082854.0	12.17	22.54
26/01/2020 23:54:15	26012020	260120	235415	281.950	12.294318	-56.639993	282.010	-0.390	-0.370	0.500	281.940	-1.700	0.900																			1580082855.0	12.06	22.34
26/01/2020 23:54:16	26012020	260120	235416	281.970	12.294332	-56.640050	282.030	-0.100	-0.240	0.700	281.990	-1.600	1.100																			1580082856.0	11.97	22.17
26/01/2020 23:54:17	26012020	260120	235417	282.150	12.294343	-56.640105	282.240	0.290	-0.210	0.740	282.210	-1.600	1.100																			1580082857.0	11.97	22.17
26/01/2020 23:54:18	26012020	260120	235418	282.440	12.294357	-56.640160	282.540	0.740	-0.320	0.670	282.510	-1.700	1.000																			1580082858.0	12.14	22.48
26/01/2020 23:54:19	26012020	260120	235419	282.680	12.294372	-56.640217	282.800	1.030	-0.330	0.630	282.730	-1.700	1.000																			1580082859.0	12.31	22.80
26/01/2020 23:54:20	26012020	260120	235420	282.860	12.294387	-56.640272	282.910	0.930	-0.030	0.640	282.870	-1.400	1.000																			1580082860.0	12.15	22.50
26/01/2020 23:54:21	26012020	260120	235421	282.780	12.294400	-56.640325	282.800	0.420	0.340	0.540	282.750	-1.000	0.900																			1580082861.0	11.72	21.71
26/01/2020 23:54:22	26012020	260120	235422	282.580	12.294412	-56.640378	282.580	-0.220	0.340	0.210	282.540	-1.000	0.600																			1580082862.0	11.56	21.41
26/01/2020 23:54:23	26012020	260120	235423	282.450	12.294420	-56.640435	282.450	-0.600	-0.190	-0.240	282.440	-1.500	0.100																			1580082863.0	11.93	22.09
26/01/2020 23:54:24	26012020	260120	235424	282.480	12.294428	-56.640493	282.500	-0.550	-0.930	-0.490	282.500	-2.300	-0.100																			1580082864.0	12.45	23.06
26/01/2020 23:54:25	26012020	260120	235425	282.640	12.294437	-56.640552	282.690	-0.160	-1.400	-0.400	282.690	-2.800	-0.000																			1580082865.0	12.66	23.45
26/01/2020 23:54:26	26012020	260120	235426	282.860	12.294448	-56.640610	282.910	0.220	-1.270	-0.010	282.890	-2.600	0.400																			1580082866.0	12.47	23.09
26/01/2020 23:54:27	26012020	260120	235427	283.020	12.294462	-56.640665	283.070	0.300	-0.620	0.440	283.040	-2.000	0.800																			1580082867.0	12.04	22.30
26/01/2020 23:54:28	26012020	260120	235428	283.070	12.294477	-56.640718	283.100	0.020	0.110	0.760	283.060	-1.300	1.100																			1580082868.0	11.71	21.69
26/01/2020 23:54:29	26012020	260120	235429	282.980	12.294490	-56.640772	283.000	-0.390	0.500	0.810	282.950	-0.900	1.200																			1580082869.0	11.72	21.71
26/01/2020 23:54:30	26012020	260120	235430	282.790	12.294502	-56.640828	282.800	-0.640	0.410	0.580	282.750	-1.000	0.900																			1580082870.0	12.06	22.34
26/01/2020 23:54:31	26012020	260120	235431	282.590	12.294512	-56.640887	282.590	-0.570	0.040	0.250	282.550	-1.300	0.600																			1580082871.0	12.44	23.04
26/01/2020 23:54:32	26012020	260120	235432	282.390	12.294522	-56.640945	282.390	-0.240	-0.280	0.090	282.340	-1.600	0.500																			1580082872.0	12.55	23.24
26/01/2020 23:54:33	26012020	260120	235433	282.190	12.294533	-56.641002	282.180	0.140	-0.370	0.230	282.150	-1.700	0.600																			1580082873.0	12.33	22.84
26/01/2020 23:54:34	26012020	260120	235434	282.030	12.294545	-56.641057	282.030	0.390	-0.300	0.500	282.000	-1.700	0.900																			1580082874.0	12.00	22.22
26/01/2020 23:54:35	26012020	260120	235435	281.950	12.294558	-56.641112	281.960	0.510	-0.240	0.740	281.940	-1.600	1.100																			1580082875.0	11.83	21.91
26/01/2020 23:54:36	26012020	260120	235436	281.960	12.294573	-56.641165	281.980	0.560	-0.270	0.850	281.970	-1.600	1.200																			1580082876.0	11.88	22.00
26/01/2020 23:54:37	26012020	260120	235437	282.040	12.294587	-56.641220	282.050	0.520	-0.320	0.810	282.060	-1.700	1.200																			1580082877.0	11.99	22.21
26/01/2020 23:54:38	26012020	260120	235438	282.170	12.294598	-56.641275	282.190	0.340	-0.310	0.650	282.200	-1.700	1.000																			1580082878.0	11.97	22.17
26/01/2020 23:54:39	26012020	260120	235439	282.320	12.294610	-56.641332	282.360	0.110	-0.340	0.470	282.360	-1.700	0.800																			1580082879.0	11.92	22.08
26/01/2020 23:54:40	26012020	260120	235440	282.480	12.294622	-56.641387	282.510	-0.090	-0.520	0.250	282.500	-1.900	0.600																			1580082880.0	12.05	22.32
26/01/2020 23:54:41	26012020	260120	235441	282.610	12.294633	-56.641443	282.640	-0.230	-0.730	0.020	282.640	-2.100	0.400																			1580082881.0	12.31	22.80
26/01/2020 23:54:42	26012020	260120	235442	282.720	12.294643	-56.641502	282.730	-0.370	-0.740	-0.140	282.730	-2.100	0.200																			1580082882.0	12.42	23.00
26/01/2020 23:54:43	26012020	260120	235443	282.750	12.294652	-56.641558	282.760	-0.500	-0.470	-0.180	282.750	-1.800	0.200																			1580082883.0	12.27	22.72
26/01/2020 23:54:44	26012020	260120	235444	282.700	12.294662	-56.641615	282.700	-0.530	-0.060	-0.000	282.670	-1.400	0.400																			1580082884.0	12.02	22.26
26/01/2020 23:54:45	26012020	260120	235445	282.610	12.294673	-56.641670	282.600	-0.390	0.210	0.360	282.590	-1.200	0.700																			1580082885.0	11.95	22.13
26/01/2020 23:54:46	26012020	260120	235446	282.460	12.294685	-56.641727	282.470	-0.120	0.210	0.700	282.430	-1.200	1.100																			1580082886.0	12.06	22.34
26/01/2020 23:54:47	26012020	260120	235447	282.260	12.294700	-56.641782	282.260	0.140	0.000	0.880	282.210	-1.400	1.300																			1580082887.0	12.30	22.78
26/01/2020 23:54:48	26012020	260120	235448	281.990	12.294713	-56.641838	281.970	0.250	-0.180	0.850	281.930	-1.600	1.200																			1580082888.0	12.35	22.87
26/01/2020 23:54:49	26012020	260120	235449	281.720	12.294725	-56.641895	281.700	0.200	-0.240	0.670	281.670	-1.600	1.000																			1580082889.0	12.14	22.48
26/01/2020 23:54:50	26012020	260120	235450	281.550	12.294735	-56.641950	281.550	0.110	-0.280	0.430	281.540	-1.700	0.800																			1580082890.0	11.89	22.02
26/01/2020 23:54:51	26012020	260120	235451	281.530	12.294747	-56.642005	281.530	0.110	-0.470	0.230	281.540	-1.800	0.600																			1580082891.0	11.88	22.00
26/01/2020 23:54:52	26012020	260120	235452	281.630	12.294757	-56.642062	281.650	0.230	-0.700	0.160	281.660	-2.100	0.500																			1580082892.0	12.09	22.39
26/01/2020 23:54:53	26012020	260120	235453	281.820	12.294768	-56.642118	281.850	0.340	-0.740	0.260	281.860	-2.100	0.600																			1580082893.0	12.19	22.58
26/01/2020 23:54:54	26012020	260120	235454	282.030	12.294782	-56.642173	282.050	0.330	-0.520	0.510	282.060	-1.900	0.900																			1580082894.0	12.11	22.43
26/01/2020 23:54:55	26012020	260120	235455	282.150	12.294795	-56.642228	282.170	0.160	-0.200	0.750	282.160	-1.600	1.100																			1580082895.0	11.97	22.17
26/01/2020 23:54:56	26012020	260120	235456	282.150	12.294808	-56.642283	282.150	-0.090	0.040	0.860	282.130	-1.300	1.200																			1580082896.0	11.98	22.19
26/01/2020 23:54:57	26012020	260120	235457	282.040	12.294822	-56.642340	282.020	-0.340	0.130	0.750	282.020	-1.300	1.100																			1580082897.0	12.09	22.39
26/01/2020 23:54:58	26012020	260120	235458	281.920	12.294832	-56.642397	281.890	-0.470	0.070	0.390	281.900	-1.300	0.800																			1580082898.0	12.22	22.63
26/01/2020 23:54:59	26012020	260120	235459	281.860	12.294840	-56.642453	281.840	-0.460	-0.150	0.000	281.860	-1.500	0.400																			1580082899.0	12.29	22.76
26/01/2020 23:55:00	26012020	260120	235500	281.890	12.294848	-56.642512	281.890	-0.310	-0.460	-0.170	281.910	-1.800	0.200	1015.50	25.90	26.00	20.90	21.00	-1.00	74.00	74.00	379.00	24.80	57.00	2.30	81.00	5.30	15	3904.00	27.50	27.50	1580082900.0	12.36	22.89
26/01/2020 23:55:01	26012020	260120	235501	281.970	12.294857	-56.642570	281.970	-0.130	-0.690	-0.030	281.990	-2.100	0.400																			1580082901.0	12.37	22.91
26/01/2020 23:55:02	26012020	260120	235502	282.030	12.294868	-56.642625	282.020	-0.010	-0.660	0.230	282.030	-2.000	0.600																			1580082902.0	12.21	22.61
26/01/2020 23:55:03	26012020	260120	235503	282.000	12.294882	-56.642682	282.000	-0.000	-0.480	0.450	281.990	-1.900	0.800																			1580082903.0	11.95	22.13
26/01/2020 23:55:04	26012020	260120	235504	281.920	12.294893	-56.642735	281.910	-0.030	-0.300	0.570	281.900	-1.700	0.900																			1580082904.0	11.86	21.96
26/01/2020 23:55:05	26012020	260120	235505	281.810	12.294905	-56.642792	281.800	-0.050	-0.190	0.650	281.780	-1.600	1.000																			1580082905.0	11.94	22.11
26/01/2020 23:55:06	26012020	260120	235506	281.670	12.294915	-56.642847	281.650	-0.010	-0.120	0.720	281.640	-1.500	1.100																			1580082906.0	12.07	22.35
26/01/2020 23:55:07	26012020	260120	235507	281.550	12.294927	-56.642903	281.500	0.120	-0.060	0.780	281.520	-1.400	1.200																			1580082907.0	12.12	22.45
26/01/2020 23:55:08	26012020	260120	235508	281.400	12.294940	-56.642958	281.390	0.300	-0.000	0.800	281.380	-1.400	1.200																			1580082908.0	12.18	22.56
26/01/2020 23:55:09	26012020	260120	235509	281.370	12.294953	-56.643015	281.380	0.450	0.040	0.760	281.370	-1.300	1.100																			1580082909.0	12.18	22.56
26/01/2020 23:55:10	26012020	260120	235510	281.440	12.294967	-56.643070	281.460	0.470	0.020	0.620	281.460	-1.400	1.000																			1580082910.0	12.14	22.48
26/01/2020 23:55:11	26012020	260120	235511	281.560	12.294980	-56.643127	281.580	0.320	-0.100	0.390	281.580	-1.500	0.800																			1580082911.0	12.11	22.43
26/01/2020 23:55:12	26012020	260120	235512	281.700	12.294990	-56.643183	281.730	0.040	-0.310	0.110	281.740	-1.700	0.500																			1580082912.0	12.09	22.39
26/01/2020 23:55:13	26012020	260120	235513	281.920	12.295000	-56.643238	281.960	-0.280	-0.530	-0.180	281.970	-1.900	0.200																			1580082913.0	12.07	22.35
26/01/2020 23:55:14	26012020	260120	235514	282.180	12.295008	-56.643295	282.220	-0.530	-0.750	-0.370	282.230	-2.100	0.000																			1580082914.0	12.04	22.30
26/01/2020 23:55:15	26012020	260120	235515	282.390	12.295017	-56.643352	282.410	-0.610	-0.920	-0.350	282.420	-2.300	0.000																			1580082915.0	12.07	22.35
26/01/2020 23:55:16	26012020	260120	235516	282.480	12.295027	-56.643408	282.490	-0.510	-0.990	-0.130	282.490	-2.400	0.300																			1580082916.0	12.17	22.54
26/01/2020 23:55:17	26012020	260120	235517	282.470	12.295037	-56.643465	282.470	-0.310	-0.800	0.170	282.450	-2.200	0.500																			1580082917.0	12.24	22.67
26/01/2020 23:55:18	26012020	260120	235518	282.360	12.295048	-56.643522	282.350	-0.080	-0.360	0.550	282.320	-1.700	0.900																			1580082918.0	12.14	22.48
26/01/2020 23:55:19	26012020	260120	235519	282.130	12.295062	-56.643577	282.120	0.120	0.170	0.940	282.060	-1.200	1.300																			1580082919.0	12.02	22.26
26/01/2020 23:55:20	26012020	260120	235520	281.830	12.295075	-56.643632	281.820	0.250	0.550	1.220	281.770	-0.800	1.600																			1580082920.0	11.98	22.19
26/01/2020 23:55:21	26012020	260120	235521	281.600	12.295088	-56.643687	281.550	0.290	0.640	1.250	281.550	-0.700	1.600																			1580082921.0	12.06	22.34
26/01/2020 23:55:22	26012020	260120	235522	281.360	12.295102	-56.643743	281.370	0.270	0.390	0.980	281.340	-1.000	1.400																			1580082922.0	12.16	22.52
26/01/2020 23:55:23	26012020	260120	235523	281.310	12.295115	-56.643800	281.330	0.230	-0.100	0.570	281.320	-1.500	0.900																			1580082923.0	12.29	22.76
26/01/2020 23:55:24	26012020	260120	235524	281.410	12.295125	-56.643857	281.440	0.190	-0.600	0.160	281.430	-2.000	0.500																			1580082924.0	12.35	22.87
26/01/2020 23:55:25	26012020	260120	235525	281.610	12.295135	-56.643913	281.640	0.140	-0.890	-0.140	281.660	-2.300	0.200																			1580082925.0	12.26	22.71
26/01/2020 23:55:26	26012020	260120	235526	281.890	12.295145	-56.643970	281.930	0.100	-0.930	-0.220	281.960	-2.300	0.200																			1580082926.0	12.08	22.37
26/01/2020 23:55:27	26012020	260120	235527	282.230	12.295157	-56.644027	282.270	0.070	-0.790	-0.050	282.300	-2.200	0.300																			1580082927.0	11.97	22.17
26/01/2020 23:55:28	26012020	260120	235528	282.530	12.295168	-56.644082	282.550	0.000	-0.510	0.180	282.580	-1.900	0.600																			1580082928.0	11.95	22.13
26/01/2020 23:55:29	26012020	260120	235529	282.690	12.295180	-56.644137	282.700	-0.150	-0.180	0.380	282.700	-1.600	0.800																			1580082929.0	11.96	22.15
26/01/2020 23:55:30	26012020	260120	235530	282.640	12.295192	-56.644192	282.620	-0.330	0.040	0.510	282.600	-1.300	0.900																			1580082930.0	11.97	22.17
26/01/2020 23:55:31	26012020	260120	235531	282.410	12.295203	-56.644248	282.390	-0.430	0.050	0.540	282.350	-1.300	0.900																			1580082931.0	12.09	22.39
26/01/2020 23:55:32	26012020	260120	235532	282.100	12.295213	-56.644305	282.070	-0.370	-0.100	0.460	282.040	-1.500	0.800																			1580082932.0	12.28	22.74
26/01/2020 23:55:33	26012020	260120	235533	281.860	12.295223	-56.644362	281.770	-0.160	-0.230	0.340	281.810	-1.600	0.700																			1580082933.0	12.35	22.87
26/01/2020 23:55:34	26012020	260120	235534	281.560	12.295233	-56.644420	281.520	0.100	-0.280	0.290	281.520	-1.700	0.700																			1580082934.0	12.24	22.67
26/01/2020 23:55:35	26012020	260120	235535	281.410	12.295245	-56.644475	281.350	0.300	-0.320	0.330	281.380	-1.700	0.700																			1580082935.0	12.11	22.43
26/01/2020 23:55:36	26012020	260120	235536	281.330	12.295257	-56.644532	281.320	0.400	-0.400	0.450	281.340	-1.800	0.800																			1580082936.0	12.10	22.41
26/01/2020 23:55:37	26012020	260120	235537	281.410	12.295270	-56.644587	281.410	0.350	-0.440	0.570	281.430	-1.800	0.900																			1580082937.0	12.14	22.48
26/01/2020 23:55:38	26012020	260120	235538	281.540	12.295283	-56.644643	281.560	0.220	-0.370	0.660	281.570	-1.800	1.000																			1580082938.0	12.09	22.39
26/01/2020 23:55:39	26012020	260120	235539	281.720	12.295297	-56.644698	281.760	0.080	-0.280	0.680	281.770	-1.700	1.100																			1580082939.0	12.03	22.28
26/01/2020 23:55:40	26012020	260120	235540	281.950	12.295308	-56.644753	281.980	0.000	-0.270	0.640	281.990	-1.700	1.000																			1580082940.0	12.09	22.39
26/01/2020 23:55:41	26012020	260120	235541	282.110	12.295320	-56.644810	282.140	-0.030	-0.280	0.630	282.140	-1.700	1.000																			1580082941.0	12.26	22.71
26/01/2020 23:55:42	26012020	260120	235542	282.150	12.295330	-56.644868	282.140	-0.090	-0.200	0.640	282.130	-1.600	1.000																			1580082942.0	12.28	22.74
26/01/2020 23:55:43	26012020	260120	235543	282.000	12.295342	-56.644925	281.970	-0.220	-0.060	0.670	281.950	-1.400	1.000																			1580082943.0	12.17	22.54
26/01/2020 23:55:44	26012020	260120	235544	281.760	12.295352	-56.644980	281.750	-0.390	0.070	0.610	281.710	-1.300	1.000																			1580082944.0	12.03	22.28
26/01/2020 23:55:45	26012020	260120	235545	281.580	12.295362	-56.645037	281.590	-0.440	-0.000	0.420	281.550	-1.400	0.800																			1580082945.0	11.97	22.17
26/01/2020 23:55:46	26012020	260120	235546	281.560	12.295370	-56.645092	281.600	-0.230	-0.370	0.170	281.580	-1.800	0.600																			1580082946.0	12.11	22.43
26/01/2020 23:55:47	26012020	260120	235547	281.710	12.295380	-56.645150	281.750	0.190	-0.820	0.060	281.750	-2.200	0.400																			1580082947.0	12.42	23.00
26/01/2020 23:55:48	26012020	260120	235548	281.900	12.295390	-56.645208	281.920	0.540	-0.920	0.200	281.930	-2.300	0.600																			1580082948.0	12.50	23.15
26/01/2020 23:55:49	26012020	260120	235549	282.020	12.295403	-56.645265	282.030	0.560	-0.550	0.490	282.030	-1.900	0.900																			1580082949.0	12.14	22.48
26/01/2020 23:55:50	26012020	260120	235550	282.060	12.295418	-56.645318	282.070	0.270	-0.070	0.740	282.060	-1.500	1.100																			1580082950.0	11.74	21.74
26/01/2020 23:55:51	26012020	260120	235551	282.030	12.295430	-56.645372	282.040	-0.080	0.160	0.740	282.020	-1.200	1.100																			1580082951.0	11.73	21.72
26/01/2020 23:55:52	26012020	260120	235552	281.980	12.295442	-56.645428	281.990	-0.250	0.080	0.490	281.970	-1.300	0.900																			1580082952.0	12.03	22.28
26/01/2020 23:55:53	26012020	260120	235553	281.940	12.295452	-56.645485	281.950	-0.180	-0.180	0.270	281.930	-1.600	0.600																			1580082953.0	12.34	22.85
26/01/2020 23:55:54	26012020	260120	235554	281.940	12.295462	-56.645543	281.960	0.000	-0.430	0.210	281.940	-1.800	0.600																			1580082954.0	12.48	23.11
26/01/2020 23:55:55	26012020	260120	235555	281.920	12.295472	-56.645602	281.920	0.110	-0.460	0.330	281.910	-1.800	0.700																			1580082955.0	12.41	22.98
26/01/2020 23:55:56	26012020	260120	235556	281.830	12.295485	-56.645657	281.830	0.040	-0.250	0.530	281.810	-1.600	0.900																			1580082956.0	12.13	22.46
26/01/2020 23:55:57	26012020	260120	235557	281.760	12.295497	-56.645712	281.750	-0.170	0.020	0.600	281.750	-1.400	1.000																			1580082957.0	11.85	21.95
26/01/2020 23:55:58	26012020	260120	235558	281.740	12.295507	-56.645767	281.760	-0.340	0.040	0.520	281.750	-1.300	0.900																			1580082958.0	11.78	21.82
26/01/2020 23:55:59	26012020	260120	235559	281.810	12.295517	-56.645822	281.880	-0.270	-0.330	0.320	281.830	-1.700	0.700																			1580082959.0	12.06	22.34
26/01/2020 23:56:00	26012020	260120	235600	282.080	12.295527	-56.645880	282.130	0.050	-0.790	0.110	282.140	-2.200	0.500	1015.50	25.90	26.00	20.90	21.00	-1.00	74.00	74.00	379.00	24.80	54.00	2.20	82.00	5.20	15	3914.00	27.50	27.50	1580082960.0	12.47	23.09
26/01/2020 23:56:01	26012020	260120	235601	282.380	12.295538	-56.645938	282.420	0.400	-0.940	0.080	282.420	-2.300	0.500																			1580082961.0	12.59	23.32
26/01/2020 23:56:02	26012020	260120	235602	282.550	12.295550	-56.645995	282.570	0.510	-0.620	0.200	282.560	-2.000	0.600																			1580082962.0	12.28	22.74
26/01/2020 23:56:03	26012020	260120	235603	282.540	12.295563	-56.646050	282.540	0.270	-0.090	0.300	282.520	-1.500	0.700																			1580082963.0	11.89	22.02
26/01/2020 23:56:04	26012020	260120	235604	282.390	12.295577	-56.646105	282.370	-0.140	0.240	0.300	282.350	-1.200	0.700																			1580082964.0	11.76	21.78
26/01/2020 23:56:05	26012020	260120	235605	282.210	12.295587	-56.646160	282.200	-0.450	0.220	0.170	282.180	-1.200	0.500																			1580082965.0	11.97	22.17
26/01/2020 23:56:06	26012020	260120	235606	282.100	12.295597	-56.646217	282.110	-0.480	-0.020	-0.020	282.090	-1.400	0.400																			1580082966.0	12.23	22.65
26/01/2020 23:56:07	26012020	260120	235607	282.070	12.295605	-56.646275	282.070	-0.190	-0.340	-0.150	282.080	-1.700	0.200																			1580082967.0	12.38	22.93
26/01/2020 23:56:08	26012020	260120	235608	282.110	12.295617	-56.646332	282.120	0.190	-0.570	-0.100	282.130	-2.000	0.300																			1580082968.0	12.39	22.95
26/01/2020 23:56:09	26012020	260120	235609	282.160	12.295630	-56.646388	282.180	0.400	-0.570	0.130	282.170	-2.000	0.500																			1580082969.0	12.31	22.80
26/01/2020 23:56:10	26012020	260120	235610	282.180	12.295643	-56.646445	282.190	0.280	-0.370	0.380	282.170	-1.800	0.700																			1580082970.0	12.09	22.39
26/01/2020 23:56:11	26012020	260120	235611	282.160	12.295657	-56.646500	282.170	-0.030	-0.180	0.460	282.150	-1.600	0.800																			1580082971.0	11.93	22.09
26/01/2020 23:56:12	26012020	260120	235612	282.170	12.295668	-56.646555	282.190	-0.250	-0.150	0.330	282.180	-1.500	0.700																			1580082972.0	11.98	22.19
26/01/2020 23:56:13	26012020	260120	235613	282.240	12.295678	-56.646612	282.270	-0.210	-0.280	0.180	282.250	-1.700	0.600																			1580082973.0	12.21	22.61
26/01/2020 23:56:14	26012020	260120	235614	282.320	12.295688	-56.646668	282.350	0.020	-0.400	0.200	282.330	-1.800	0.600																			1580082974.0	12.37	22.91
26/01/2020 23:56:15	26012020	260120	235615	282.410	12.295700	-56.646727	282.440	0.220	-0.360	0.370	282.430	-1.700	0.700																			1580082975.0	12.35	22.87
26/01/2020 23:56:16	26012020	260120	235616	282.490	12.295713	-56.646782	282.520	0.250	-0.190	0.550	282.500	-1.600	0.900																			1580082976.0	12.14	22.48
26/01/2020 23:56:17	26012020	260120	235617	282.530	12.295728	-56.646837	282.550	0.120	-0.090	0.620	282.530	-1.500	1.000																			1580082977.0	12.03	22.28
26/01/2020 23:56:18	26012020	260120	235618	282.540	12.295740	-56.646893	282.560	-0.090	-0.110	0.580	282.550	-1.500	0.900																			1580082978.0	12.08	22.37
26/01/2020 23:56:19	26012020	260120	235619	282.580	12.295752	-56.646948	282.620	-0.290	-0.190	0.440	282.590	-1.600	0.800																			1580082979.0	12.14	22.48
26/01/2020 23:56:20	26012020	260120	235620	282.600	12.295762	-56.647005	282.630	-0.400	-0.300	0.280	282.600	-1.700	0.700																			1580082980.0	12.13	22.46
26/01/2020 23:56:21	26012020	260120	235621	282.590	12.295772	-56.647062	282.590	-0.300	-0.480	0.190	282.580	-1.900	0.600																			1580082981.0	12.16	22.52
26/01/2020 23:56:22	26012020	260120	235622	282.520	12.295780	-56.647120	282.520	0.040	-0.700	0.300	282.500	-2.100	0.700																			1580082982.0	12.30	22.78
26/01/2020 23:56:23	26012020	260120	235623	282.470	12.295793	-56.647177	282.490	0.440	-0.740	0.630	282.450	-2.100	1.000																			1580082983.0	12.42	23.00
26/01/2020 23:56:24	26012020	260120	235624	282.390	12.295807	-56.647233	282.410	0.650	-0.480	0.990	282.360	-1.900	1.400																			1580082984.0	12.33	22.84
26/01/2020 23:56:25	26012020	260120	235625	282.260	12.295822	-56.647288	282.220	0.530	-0.030	1.120	282.220	-1.400	1.500																			1580082985.0	12.11	22.43
26/01/2020 23:56:26	26012020	260120	235626	281.980	12.295837	-56.647343	281.990	0.110	0.410	0.910	281.940	-1.000	1.300																			1580082986.0	11.90	22.04
26/01/2020 23:56:27	26012020	260120	235627	281.850	12.295847	-56.647398	281.870	-0.370	0.540	0.420	281.850	-0.800	0.800																			1580082987.0	11.84	21.93
26/01/2020 23:56:28	26012020	260120	235628	281.970	12.295857	-56.647453	282.030	-0.600	0.160	-0.160	282.030	-1.200	0.200																			1580082988.0	12.06	22.34
26/01/2020 23:56:29	26012020	260120	235629	282.340	12.295865	-56.647513	282.420	-0.430	-0.570	-0.530	282.440	-1.900	-0.200																			1580082989.0	12.52	23.19
26/01/2020 23:56:30	26012020	260120	235630	282.840	12.295875	-56.647572	282.940	-0.010	-1.120	-0.490	282.940	-2.500	-0.100																			1580082990.0	12.79	23.69
26/01/2020 23:56:31	26012020	260120	235631	283.280	12.295887	-56.647630	283.360	0.310	-1.110	-0.090	283.350	-2.500	0.300																			1580082991.0	12.58	23.30
26/01/2020 23:56:32	26012020	260120	235632	283.510	12.295902	-56.647685	283.560	0.310	-0.600	0.410	283.520	-2.000	0.800																			1580082992.0	12.07	22.35
26/01/2020 23:56:33	26012020	260120	235633	283.470	12.295917	-56.647738	283.500	0.030	-0.030	0.740	283.430	-1.400	1.100																			1580082993.0	11.68	21.63
26/01/2020 23:56:34	26012020	260120	235634	283.230	12.295928	-56.647793	283.230	-0.270	0.210	0.730	283.160	-1.200	1.100																			1580082994.0	11.71	21.69
26/01/2020 23:56:35	26012020	260120	235635	282.970	12.295940	-56.647848	282.890	-0.340	0.030	0.510	282.900	-1.400	0.900																			1580082995.0	12.10	22.41
26/01/2020 23:56:36	26012020	260120	235636	282.560	12.295950	-56.647907	282.560	-0.170	-0.350	0.320	282.490	-1.700	0.700																			1580082996.0	12.49	23.13
26/01/2020 23:56:37	26012020	260120	235637	282.230	12.295962	-56.647965	282.220	0.060	-0.590	0.270	282.160	-2.000	0.600																			1580082997.0	12.66	23.45
26/01/2020 23:56:38	26012020	260120	235638	281.920	12.295973	-56.648023	281.930	0.140	-0.450	0.400	281.880	-1.800	0.800																			1580082998.0	12.44	23.04
26/01/2020 23:56:39	26012020	260120	235639	281.730	12.295987	-56.648078	281.760	0.070	-0.040	0.630	281.700	-1.400	1.000																			1580082999.0	12.03	22.28
26/01/2020 23:56:40	26012020	260120	235640	281.640	12.296000	-56.648133	281.670	-0.020	0.280	0.800	281.630	-1.100	1.200																			1580083000.0	11.79	21.84
26/01/2020 23:56:41	26012020	260120	235641	281.670	12.296012	-56.648187	281.730	0.010	0.260	0.750	281.710	-1.100	1.100																			1580083001.0	11.86	21.96
26/01/2020 23:56:42	26012020	260120	235642	281.920	12.296023	-56.648243	282.000	0.210	-0.060	0.510	281.990	-1.400	0.900																			1580083002.0	12.18	22.56
26/01/2020 23:56:43	26012020	260120	235643	282.330	12.296035	-56.648302	282.430	0.440	-0.430	0.250	282.430	-1.800	0.600																			1580083003.0	12.37	22.91
26/01/2020 23:56:44	26012020	260120	235644	282.830	12.296048	-56.648358	282.930	0.540	-0.620	0.080	282.930	-2.000	0.400																			1580083004.0	12.29	22.76
26/01/2020 23:56:45	26012020	260120	235645	283.250	12.296060	-56.648413	283.330	0.430	-0.650	0.100	283.320	-2.000	0.500																			1580083005.0	12.07	22.35
26/01/2020 23:56:46	26012020	260120	235646	283.450	12.296073	-56.648468	283.490	0.160	-0.670	0.330	283.460	-2.100	0.700																			1580083006.0	11.98	22.19
26/01/2020 23:56:47	26012020	260120	235647	283.420	12.296087	-56.648523	283.390	-0.160	-0.690	0.600	283.380	-2.100	1.000																			1580083007.0	12.09	22.39
26/01/2020 23:56:48	26012020	260120	235648	283.030	12.296100	-56.648580	283.010	-0.450	-0.640	0.820	282.930	-2.000	1.200																			1580083008.0	12.22	22.63
26/01/2020 23:56:49	26012020	260120	235649	282.580	12.296112	-56.648637	282.400	-0.660	-0.480	0.950	282.450	-1.900	1.300																			1580083009.0	12.28	22.74
26/01/2020 23:56:50	26012020	260120	235650	281.800	12.296122	-56.648693	281.770	-0.770	-0.220	0.900	281.700	-1.600	1.300																			1580083010.0	12.25	22.69
26/01/2020 23:56:51	26012020	260120	235651	281.320	12.296130	-56.648752	281.300	-0.710	-0.010	0.670	281.260	-1.400	1.000																			1580083011.0	12.22	22.63
26/01/2020 23:56:52	26012020	260120	235652	281.150	12.296140	-56.648808	281.180	-0.400	0.020	0.420	281.160	-1.400	0.800																			1580083012.0	12.29	22.76
26/01/2020 23:56:53	26012020	260120	235653	281.310	12.296150	-56.648867	281.340	0.090	-0.050	0.310	281.360	-1.400	0.700																			1580083013.0	12.46	23.08
26/01/2020 23:56:54	26012020	260120	235654	281.630	12.296162	-56.648923	281.680	0.560	0.010	0.390	281.710	-1.400	0.800																			1580083014.0	12.49	23.13
26/01/2020 23:56:55	26012020	260120	235655	282.000	12.296177	-56.648980	282.060	0.760	0.260	0.560	282.080	-1.100	0.900																			1580083015.0	12.23	22.65
26/01/2020 23:56:56	26012020	260120	235656	282.360	12.296192	-56.649033	282.420	0.640	0.430	0.620	282.420	-1.000	1.000																			1580083016.0	11.87	21.98
26/01/2020 23:56:57	26012020	260120	235657	282.640	12.296207	-56.649088	282.690	0.370	0.230	0.500	282.690	-1.200	0.900																			1580083017.0	11.79	21.84
26/01/2020 23:56:58	26012020	260120	235658	282.820	12.296217	-56.649143	282.840	0.140	-0.300	0.240	282.840	-1.700	0.600																			1580083018.0	12.03	22.28
26/01/2020 23:56:59	26012020	260120	235659	282.880	12.296228	-56.649200	282.880	0.020	-0.840	0.000	282.880	-2.200	0.400																			1580083019.0	12.26	22.71
26/01/2020 23:57:00	26012020	260120	235700	282.820	12.296237	-56.649258	282.820	0.020	-1.190	-0.000	282.800	-2.600	0.400	1015.50	25.90	26.00	21.10	21.10	-1.00	74.00	74.00	379.00	24.80	47.00	2.10	84.00	5.10	15	3937.00	27.50	27.50	1580083020.0	12.26	22.71
26/01/2020 23:57:01	26012020	260120	235701	282.700	12.296248	-56.649315	282.650	0.050	-1.260	0.270	282.660	-2.600	0.600																			1580083021.0	12.18	22.56
26/01/2020 23:57:02	26012020	260120	235702	282.430	12.296262	-56.649370	282.420	0.070	-1.060	0.650	282.380	-2.400	1.000																			1580083022.0	12.12	22.45
26/01/2020 23:57:03	26012020	260120	235703	282.160	12.296275	-56.649425	282.150	0.000	-0.700	0.930	282.110	-2.100	1.300																			1580083023.0	12.13	22.46
26/01/2020 23:57:04	26012020	260120	235704	281.910	12.296288	-56.649482	281.890	-0.180	-0.230	0.950	281.870	-1.600	1.300																			1580083024.0	12.19	22.58
26/01/2020 23:57:05	26012020	260120	235705	281.700	12.296300	-56.649538	281.690	-0.440	0.260	0.720	281.660	-1.100	1.100																			1580083025.0	12.20	22.59
26/01/2020 23:57:06	26012020	260120	235706	281.530	12.296310	-56.649595	281.540	-0.650	0.620	0.460	281.500	-0.800	0.800																			1580083026.0	12.15	22.50
26/01/2020 23:57:07	26012020	260120	235707	281.470	12.296320	-56.649652	281.510	-0.620	0.660	0.280	281.480	-0.700	0.700																			1580083027.0	12.20	22.59
26/01/2020 23:57:08	26012020	260120	235708	281.600	12.296330	-56.649708	281.650	-0.300	0.350	0.200	281.650	-1.000	0.600																			1580083028.0	12.33	22.84
26/01/2020 23:57:09	26012020	260120	235709	281.870	12.296340	-56.649767	281.930	0.180	-0.130	0.280	281.930	-1.500	0.700																			1580083029.0	12.48	23.11
26/01/2020 23:57:10	26012020	260120	235710	282.140	12.296353	-56.649823	282.200	0.550	-0.500	0.530	282.190	-1.900	0.900																			1580083030.0	12.46	23.08
26/01/2020 23:57:11	26012020	260120	235711	282.310	12.296368	-56.649880	282.400	0.640	-0.630	0.780	282.350	-2.000	1.200																			1580083031.0	12.20	22.59
26/01/2020 23:57:12	26012020	260120	235712	282.450	12.296382	-56.649935	282.490	0.460	-0.590	0.860	282.450	-2.000	1.200																			1580083032.0	11.89	22.02
26/01/2020 23:57:13	26012020	260120	235713	282.450	12.296393	-56.649988	282.460	0.220	-0.580	0.730	282.440	-2.000	1.100																			1580083033.0	11.81	21.87
26/01/2020 23:57:14	26012020	260120	235714	282.380	12.296405	-56.650045	282.380	0.090	-0.660	0.530	282.360	-2.000	0.900																			1580083034.0	11.97	22.17
26/01/2020 23:57:15	26012020	260120	235715	282.300	12.296415	-56.650102	282.260	0.110	-0.710	0.420	282.260	-2.100	0.800																			1580083035.0	12.23	22.65
26/01/2020 23:57:16	26012020	260120	235716	282.060	12.296427	-56.650158	282.040	0.140	-0.570	0.480	282.020	-1.900	0.900																			1580083036.0	12.32	22.82
26/01/2020 23:57:17	26012020	260120	235717	281.750	12.296440	-56.650215	281.710	0.000	-0.230	0.630	281.670	-1.600	1.000																			1580083037.0	12.20	22.59
26/01/2020 23:57:18	26012020	260120	235718	281.390	12.296452	-56.650270	281.370	-0.280	0.100	0.710	281.330	-1.300	1.100																			1580083038.0	12.06	22.34
26/01/2020 23:57:19	26012020	260120	235719	281.170	12.296463	-56.650327	281.190	-0.560	0.180	0.560	281.160	-1.200	0.900																			1580083039.0	12.10	22.41
26/01/2020 23:57:20	26012020	260120	235720	281.220	12.296473	-56.650383	281.250	-0.640	0.030	0.250	281.260	-1.400	0.600																			1580083040.0	12.30	22.78
26/01/2020 23:57:21	26012020	260120	235721	281.470	12.296482	-56.650442	281.510	-0.460	-0.180	0.010	281.530	-1.600	0.400																			1580083041.0	12.42	23.00
26/01/2020 23:57:22	26012020	260120	235722	281.770	12.296492	-56.650500	281.810	-0.110	-0.330	0.050	281.830	-1.700	0.400																			1580083042.0	12.41	22.98
26/01/2020 23:57:23	26012020	260120	235723	281.990	12.296503	-56.650557	282.060	0.250	-0.300	0.390	282.030	-1.700	0.800																			1580083043.0	12.27	22.72
26/01/2020 23:57:24	26012020	260120	235724	282.150	12.296517	-56.650612	282.160	0.450	-0.130	0.880	282.150	-1.500	1.300																			1580083044.0	12.03	22.28
26/01/2020 23:57:25	26012020	260120	235725	282.030	12.296530	-56.650667	282.000	0.470	-0.020	1.300	281.970	-1.400	1.700																			1580083045.0	11.86	21.96
26/01/2020 23:57:26	26012020	260120	235726	281.710	12.296543	-56.650720	281.690	0.360	-0.100	1.400	281.640	-1.500	1.800																			1580083046.0	11.88	22.00
26/01/2020 23:57:27	26012020	260120	235727	281.390	12.296557	-56.650775	281.380	0.190	-0.370	1.070	281.350	-1.800	1.500																			1580083047.0	12.02	22.26
26/01/2020 23:57:28	26012020	260120	235728	281.220	12.296567	-56.650832	281.230	0.070	-0.770	0.520	281.220	-2.200	0.900																			1580083048.0	12.19	22.58
26/01/2020 23:57:29	26012020	260120	235729	281.280	12.296575	-56.650890	281.310	0.020	-1.140	-0.030	281.320	-2.500	0.400																			1580083049.0	12.38	22.93
26/01/2020 23:57:30	26012020	260120	235730	281.520	12.296585	-56.650948	281.550	0.000	-1.220	-0.300	281.570	-2.600	0.100																			1580083050.0	12.49	23.13
26/01/2020 23:57:31	26012020	260120	235731	281.770	12.296595	-56.651007	281.790	-0.060	-0.880	-0.170	281.820	-2.300	0.200																			1580083051.0	12.38	22.93
26/01/2020 23:57:32	26012020	260120	235732	281.960	12.296607	-56.651062	281.980	-0.220	-0.200	0.150	281.990	-1.600	0.500																			1580083052.0	12.16	22.52
26/01/2020 23:57:33	26012020	260120	235733	282.050	12.296620	-56.651117	282.070	-0.470	0.480	0.420	282.060	-0.900	0.800																			1580083053.0	11.97	22.17
26/01/2020 23:57:34	26012020	260120	235734	282.040	12.296632	-56.651173	282.040	-0.670	0.820	0.470	282.030	-0.600	0.900																			1580083054.0	12.00	22.22
26/01/2020 23:57:35	26012020	260120	235735	281.930	12.296643	-56.651230	281.920	-0.680	0.730	0.330	281.890	-0.700	0.700																			1580083055.0	12.23	22.65
26/01/2020 23:57:36	26012020	260120	235736	281.760	12.296652	-56.651288	281.760	-0.460	0.370	0.230	281.730	-1.000	0.600																			1580083056.0	12.42	23.00
26/01/2020 23:57:37	26012020	260120	235737	281.650	12.296662	-56.651345	281.630	-0.050	-0.090	0.280	281.630	-1.500	0.700																			1580083057.0	12.40	22.96
26/01/2020 23:57:38	26012020	260120	235738	281.540	12.296672	-56.651402	281.530	0.430	-0.540	0.460	281.530	-1.900	0.800																			1580083058.0	12.28	22.74
26/01/2020 23:57:39	26012020	260120	235739	281.480	12.296685	-56.651458	281.460	0.750	-0.810	0.660	281.460	-2.200	1.000																			1580083059.0	12.18	22.56
26/01/2020 23:57:40	26012020	260120	235740	281.380	12.296698	-56.651513	281.390	0.770	-0.840	0.800	281.370	-2.200	1.200																			1580083060.0	12.00	22.22
26/01/2020 23:57:41	26012020	260120	235741	281.340	12.296712	-56.651568	281.350	0.510	-0.720	0.790	281.340	-2.100	1.200																			1580083061.0	11.81	21.87
26/01/2020 23:57:42	26012020	260120	235742	281.370	12.296722	-56.651622	281.390	0.180	-0.600	0.600	281.390	-2.000	1.000																			1580083062.0	11.78	21.82
26/01/2020 23:57:43	26012020	260120	235743	281.500	12.296732	-56.651678	281.540	-0.020	-0.550	0.300	281.550	-1.900	0.700																			1580083063.0	11.96	22.15
26/01/2020 23:57:44	26012020	260120	235744	281.740	12.296742	-56.651735	281.780	-0.040	-0.530	0.080	281.780	-1.900	0.500																			1580083064.0	12.19	22.58
26/01/2020 23:57:45	26012020	260120	235745	281.990	12.296753	-56.651792	282.030	0.010	-0.500	0.010	282.040	-1.900	0.400																			1580083065.0	12.39	22.95
26/01/2020 23:57:46	26012020	260120	235746	282.200	12.296765	-56.651850	282.220	-0.060	-0.370	0.100	282.220	-1.800	0.500																			1580083066.0	12.49	23.13
26/01/2020 23:57:47	26012020	260120	235747	282.240	12.296778	-56.651907	282.240	-0.300	-0.080	0.250	282.220	-1.500	0.600																			1580083067.0	12.41	22.98
26/01/2020 23:57:48	26012020	260120	235748	282.090	12.296790	-56.651963	282.080	-0.590	0.200	0.350	282.040	-1.200	0.700																			1580083068.0	12.21	22.61
26/01/2020 23:57:49	26012020	260120	235749	281.870	12.296800	-56.652020	281.810	-0.700	0.220	0.410	281.820	-1.200	0.800																			1580083069.0	12.18	22.56
26/01/2020 23:57:50	26012020	260120	235750	281.580	12.296810	-56.652078	281.590	-0.550	0.010	0.440	281.540	-1.400	0.800																			1580083070.0	12.40	22.96
26/01/2020 23:57:51	26012020	260120	235751	281.450	12.296820	-56.652137	281.430	-0.240	-0.150	0.430	281.430	-1.500	0.800																			1580083071.0	12.49	23.13
26/01/2020 23:57:52	26012020	260120	235752	281.310	12.296830	-56.652193	281.300	0.020	-0.110	0.420	281.280	-1.500	0.800																			1580083072.0	12.27	22.72
26/01/2020 23:57:53	26012020	260120	235753	281.170	12.296840	-56.652248	281.170	0.180	0.040	0.460	281.150	-1.300	0.900																			1580083073.0	11.96	22.15
26/01/2020 23:57:54	26012020	260120	235754	281.050	12.296852	-56.652303	281.050	0.270	0.100	0.550	281.030	-1.300	0.900																			1580083074.0	11.78	21.82
26/01/2020 23:57:55	26012020	260120	235755	280.980	12.296863	-56.652358	280.980	0.360	-0.070	0.680	280.970	-1.400	1.100																			1580083075.0	11.81	21.87
26/01/2020 23:57:56	26012020	260120	235756	280.990	12.296875	-56.652413	281.020	0.500	-0.450	0.760	281.020	-1.800	1.100																			1580083076.0	11.98	22.19
26/01/2020 23:57:57	26012020	260120	235757	281.200	12.296887	-56.652470	281.260	0.650	-0.930	0.700	281.260	-2.300	1.100																			1580083077.0	12.20	22.59
26/01/2020 23:57:58	26012020	260120	235758	281.570	12.296900	-56.652527	281.650	0.720	-1.240	0.490	281.650	-2.600	0.900																			1580083078.0	12.34	22.85
26/01/2020 23:57:59	26012020	260120	235759	281.880	12.296912	-56.652583	281.990	0.570	-1.180	0.350	281.940	-2.600	0.700																			1580083079.0	12.33	22.84
26/01/2020 23:58:00	26012020	260120	235800	282.140	12.296925	-56.652640	282.160	0.150	-0.740	0.360	282.150	-2.100	0.700	1015.50	26.00	26.00	21.20	21.20	-1.00	75.00	74.00	379.00	24.80	51.00	2.80	76.00	5.00	15	3815.00	27.50	27.50	1580083080.0	12.13	22.46
26/01/2020 23:58:01	26012020	260120	235801	282.110	12.296937	-56.652695	282.100	-0.410	-0.220	0.420	282.080	-1.600	0.800																			1580083081.0	11.96	22.15
26/01/2020 23:58:02	26012020	260120	235802	281.920	12.296947	-56.652750	281.910	-0.880	0.080	0.400	281.870	-1.300	0.800																			1580083082.0	12.07	22.35
26/01/2020 23:58:03	26012020	260120	235803	281.740	12.296955	-56.652808	281.710	-1.090	0.140	0.280	281.710	-1.200	0.700																			1580083083.0	12.37	22.91
26/01/2020 23:58:04	26012020	260120	235804	281.560	12.296963	-56.652867	281.570	-1.000	0.140	0.180	281.540	-1.200	0.600																			1580083084.0	12.56	23.26
26/01/2020 23:58:05	26012020	260120	235805	281.480	12.296972	-56.652927	281.500	-0.660	0.140	0.240	281.470	-1.200	0.600																			1580083085.0	12.50	23.15
26/01/2020 23:58:06	26012020	260120	235806	281.440	12.296982	-56.652983	281.470	-0.170	0.110	0.500	281.440	-1.300	0.900																			1580083086.0	12.39	22.95
26/01/2020 23:58:07	26012020	260120	235807	281.490	12.296993	-56.653040	281.520	0.340	0.020	0.840	281.510	-1.400	1.200																			1580083087.0	12.31	22.80
26/01/2020 23:58:08	26012020	260120	235808	281.590	12.297007	-56.653097	281.620	0.690	-0.070	1.040	281.600	-1.500	1.400																			1580083088.0	12.24	22.67
26/01/2020 23:58:09	26012020	260120	235809	281.610	12.297020	-56.653152	281.620	0.750	-0.090	0.970	281.610	-1.500	1.400																			1580083089.0	12.09	22.39
26/01/2020 23:58:10	26012020	260120	235810	281.600	12.297033	-56.653207	281.610	0.520	-0.080	0.660	281.600	-1.500	1.000																			1580083090.0	11.84	21.93
26/01/2020 23:58:11	26012020	260120	235811	281.670	12.297043	-56.653262	281.700	0.200	-0.220	0.260	281.710	-1.600	0.600																			1580083091.0	11.70	21.67
26/01/2020 23:58:12	26012020	260120	235812	281.860	12.297053	-56.653317	281.910	0.020	-0.620	-0.050	281.910	-2.000	0.300																			1580083092.0	11.87	21.98
26/01/2020 23:58:13	26012020	260120	235813	282.100	12.297062	-56.653373	282.160	0.090	-1.080	-0.160	282.150	-2.500	0.200																			1580083093.0	12.23	22.65
26/01/2020 23:58:14	26012020	260120	235814	282.320	12.297073	-56.653432	282.360	0.280	-1.240	-0.020	282.360	-2.600	0.400																			1580083094.0	12.41	22.98
26/01/2020 23:58:15	26012020	260120	235815	282.460	12.297085	-56.653488	282.500	0.350	-0.980	0.260	282.470	-2.400	0.600																			1580083095.0	12.29	22.76
26/01/2020 23:58:16	26012020	260120	235816	282.460	12.297100	-56.653543	282.480	0.170	-0.450	0.520	282.440	-1.800	0.900																			1580083096.0	12.10	22.41
26/01/2020 23:58:17	26012020	260120	235817	282.330	12.297112	-56.653598	282.330	-0.220	0.060	0.540	282.300	-1.300	0.900																			1580083097.0	12.01	22.24
26/01/2020 23:58:18	26012020	260120	235818	282.160	12.297123	-56.653655	282.150	-0.650	0.380	0.250	282.130	-1.000	0.600																			1580083098.0	12.06	22.34
26/01/2020 23:58:19	26012020	260120	235819	282.030	12.297132	-56.653712	282.030	-0.900	0.360	-0.140	282.020	-1.000	0.300																			1580083099.0	12.24	22.67
26/01/2020 23:58:20	26012020	260120	235820	281.980	12.297140	-56.653770	281.990	-0.840	0.050	-0.410	281.980	-1.300	-0.000																			1580083100.0	12.48	23.11
26/01/2020 23:58:21	26012020	260120	235821	282.030	12.297148	-56.653830	282.050	-0.490	-0.310	-0.370	282.050	-1.700	0.000																			1580083101.0	12.65	23.43
26/01/2020 23:58:22	26012020	260120	235822	282.180	12.297158	-56.653888	282.230	0.030	-0.440	0.020	282.220	-1.800	0.400																			1580083102.0	12.54	23.22
26/01/2020 23:58:23	26012020	260120	235823	282.330	12.297173	-56.653943	282.370	0.470	-0.310	0.520	282.340	-1.700	0.900																			1580083103.0	12.23	22.65
26/01/2020 23:58:24	26012020	260120	235824	282.340	12.297188	-56.653998	282.350	0.660	-0.110	0.880	282.320	-1.500	1.300																			1580083104.0	11.96	22.15
26/01/2020 23:58:25	26012020	260120	235825	282.210	12.297203	-56.654052	282.210	0.560	0.010	0.950	282.180	-1.400	1.300																			1580083105.0	11.86	21.96
26/01/2020 23:58:26	26012020	260120	235826	282.040	12.297217	-56.654107	282.040	0.280	-0.020	0.770	282.010	-1.400	1.200																			1580083106.0	11.89	22.02
26/01/2020 23:58:27	26012020	260120	235827	281.900	12.297227	-56.654162	281.910	0.040	-0.190	0.500	281.880	-1.600	0.900																			1580083107.0	11.96	22.15
26/01/2020 23:58:28	26012020	260120	235828	281.830	12.297237	-56.654218	281.860	-0.050	-0.420	0.200	281.830	-1.800	0.600																			1580083108.0	12.06	22.34
26/01/2020 23:58:29	26012020	260120	235829	281.890	12.297247	-56.654275	281.940	0.000	-0.640	-0.030	281.920	-2.000	0.400																			1580083109.0	12.15	22.50
26/01/2020 23:58:30	26012020	260120	235830	282.080	12.297257	-56.654332	282.120	0.100	-0.790	-0.090	282.110	-2.200	0.300																			1580083110.0	12.21	22.61
26/01/2020 23:58:31	26012020	260120	235831	282.310	12.297268	-56.654388	282.360	0.140	-0.830	0.090	282.360	-2.200	0.500																			1580083111.0	12.23	22.65
26/01/2020 23:58:32	26012020	260120	235832	282.540	12.297282	-56.654445	282.590	0.110	-0.760	0.320	282.580	-2.100	0.700																			1580083112.0	12.26	22.71
26/01/2020 23:58:33	26012020	260120	235833	282.720	12.297295	-56.654502	282.760	-0.010	-0.570	0.430	282.760	-2.000	0.800																			1580083113.0	12.30	22.78
26/01/2020 23:58:34	26012020	260120	235834	282.860	12.297307	-56.654558	282.880	-0.180	-0.280	0.390	282.870	-1.700	0.800																			1580083114.0	12.27	22.72
26/01/2020 23:58:35	26012020	260120	235835	282.880	12.297318	-56.654615	282.880	-0.360	0.070	0.250	282.860	-1.300	0.600																			1580083115.0	12.23	22.65
26/01/2020 23:58:36	26012020	260120	235836	282.730	12.297328	-56.654672	282.720	-0.490	0.390	0.140	282.680	-1.000	0.500																			1580083116.0	12.13	22.46
26/01/2020 23:58:37	26012020	260120	235837	282.440	12.297338	-56.654727	282.420	-0.520	0.530	0.140	282.380	-0.900	0.500																			1580083117.0	12.07	22.35
26/01/2020 23:58:38	26012020	260120	235838	282.140	12.297348	-56.654783	282.130	-0.410	0.390	0.230	282.080	-1.000	0.600																			1580083118.0	12.09	22.39
26/01/2020 23:58:39	26012020	260120	235839	281.890	12.297360	-56.654840	281.900	-0.110	0.020	0.400	281.860	-1.400	0.800																			1580083119.0	12.19	22.58
26/01/2020 23:58:40	26012020	260120	235840	281.770	12.297373	-56.654897	281.810	0.310	-0.390	0.640	281.770	-1.800	1.000																			1580083120.0	12.26	22.71
26/01/2020 23:58:41	26012020	260120	235841	281.800	12.297387	-56.654953	281.870	0.680	-0.700	0.840	281.820	-2.100	1.200																			1580083121.0	12.24	22.67
26/01/2020 23:58:42	26012020	260120	235842	282.020	12.297402	-56.655008	282.090	0.830	-0.830	0.890	282.060	-2.200	1.300																			1580083122.0	12.15	22.50
26/01/2020 23:58:43	26012020	260120	235843	282.300	12.297415	-56.655063	282.370	0.730	-0.800	0.710	282.360	-2.200	1.100																			1580083123.0	12.06	22.34
26/01/2020 23:58:44	26012020	260120	235844	282.600	12.297428	-56.655118	282.670	0.440	-0.640	0.380	282.650	-2.000	0.800																			1580083124.0	12.03	22.28
26/01/2020 23:58:45	26012020	260120	235845	282.820	12.297438	-56.655175	282.880	0.050	-0.400	0.120	282.840	-1.800	0.500																			1580083125.0	12.05	22.32
26/01/2020 23:58:46	26012020	260120	235846	282.880	12.297448	-56.655232	282.920	-0.370	-0.140	-0.020	282.870	-1.500	0.400																			1580083126.0	12.06	22.34
26/01/2020 23:58:47	26012020	260120	235847	282.790	12.297458	-56.655287	282.820	-0.730	0.030	-0.060	282.760	-1.400	0.300																			1580083127.0	12.08	22.37
26/01/2020 23:58:48	26012020	260120	235848	282.650	12.297468	-56.655343	282.680	-0.890	0.020	-0.010	282.620	-1.400	0.400																			1580083128.0	12.14	22.48
26/01/2020 23:58:49	26012020	260120	235849	282.520	12.297478	-56.655402	282.540	-0.770	-0.230	0.150	282.490	-1.600	0.500																			1580083129.0	12.28	22.74
26/01/2020 23:58:50	26012020	260120	235850	282.480	12.297490	-56.655458	282.530	-0.370	-0.600	0.310	282.490	-2.000	0.700																			1580083130.0	12.52	23.19
26/01/2020 23:58:51	26012020	260120	235851	282.560	12.297502	-56.655518	282.670	0.200	-0.850	0.500	282.590	-2.200	0.900																			1580083131.0	12.69	23.50
26/01/2020 23:58:52	26012020	260120	235852	282.750	12.297515	-56.655575	282.810	0.640	-0.680	0.740	282.760	-2.100	1.100																			1580083132.0	12.60	23.34
26/01/2020 23:58:53	26012020	260120	235853	282.770	12.297530	-56.655632	282.780	0.720	-0.090	0.950	282.760	-1.500	1.300																			1580083133.0	12.22	22.63
26/01/2020 23:58:54	26012020	260120	235854	282.580	12.297545	-56.655685	282.580	0.420	0.550	0.970	282.530	-0.800	1.300																			1580083134.0	11.81	21.87
26/01/2020 23:58:55	26012020	260120	235855	282.370	12.297558	-56.655738	282.320	-0.050	0.830	0.640	282.320	-0.600	1.000																			1580083135.0	11.67	21.61
26/01/2020 23:58:56	26012020	260120	235856	282.140	12.297568	-56.655793	282.160	-0.360	0.530	0.110	282.130	-0.900	0.500																			1580083136.0	11.91	22.06
26/01/2020 23:58:57	26012020	260120	235857	282.140	12.297577	-56.655852	282.180	-0.290	-0.210	-0.340	282.160	-1.600	0.100																			1580083137.0	12.35	22.87
26/01/2020 23:58:58	26012020	260120	235858	282.260	12.297585	-56.655912	282.310	0.050	-0.910	-0.430	282.290	-2.300	-0.000																			1580083138.0	12.67	23.46
26/01/2020 23:58:59	26012020	260120	235859	282.390	12.297597	-56.655968	282.430	0.340	-1.100	-0.120	282.410	-2.500	0.300																			1580083139.0	12.49	23.13
26/01/2020 23:59:00	26012020	260120	235900	282.420	12.297610	-56.656023	282.450	0.360	-0.810	0.310	282.420	-2.200	0.700	1015.50	26.00	26.00	21.10	21.10	-1.00	74.00	74.00	379.00	24.80	63.00	2.70	77.00	5.60	15	3801.00	27.50	27.50	1580083140.0	11.99	22.21
26/01/2020 23:59:01	26012020	260120	235901	282.390	12.297625	-56.656077	282.420	0.140	-0.460	0.600	282.390	-1.900	1.000																			1580083141.0	11.62	21.52
26/01/2020 23:59:02	26012020	260120	235902	282.420	12.297638	-56.656132	282.460	-0.100	-0.400	0.570	282.430	-1.800	1.000																			1580083142.0	11.75	21.76
26/01/2020 23:59:03	26012020	260120	235903	282.560	12.297650	-56.656188	282.640	-0.170	-0.640	0.340	282.610	-2.000	0.700																			1580083143.0	12.23	22.65
26/01/2020 23:59:04	26012020	260120	235904	282.820	12.297662	-56.656247	282.910	-0.070	-0.800	0.130	282.880	-2.200	0.500																			1580083144.0	12.64	23.41
26/01/2020 23:59:05	26012020	260120	235905	283.020	12.297673	-56.656305	283.110	0.020	-0.560	0.140	283.050	-2.000	0.500																			1580083145.0	12.63	23.39
26/01/2020 23:59:06	26012020	260120	235906	283.110	12.297685	-56.656362	283.140	-0.060	-0.010	0.380	283.100	-1.400	0.800																			1580083146.0	12.29	22.76
26/01/2020 23:59:07	26012020	260120	235907	282.950	12.297698	-56.656417	282.960	-0.290	0.500	0.570	282.900	-0.900	0.900																			1580083147.0	12.00	22.22
26/01/2020 23:59:08	26012020	260120	235908	282.660	12.297710	-56.656472	282.650	-0.430	0.620	0.550	282.600	-0.800	0.900																			1580083148.0	12.04	22.30
26/01/2020 23:59:09	26012020	260120	235909	282.360	12.297722	-56.656530	282.350	-0.350	0.350	0.360	282.310	-1.000	0.800																			1580083149.0	12.33	22.84
26/01/2020 23:59:10	26012020	260120	235910	282.100	12.297732	-56.656588	282.110	-0.080	-0.040	0.210	282.050	-1.400	0.600																			1580083150.0	12.53	23.21
26/01/2020 23:59:11	26012020	260120	235911	281.910	12.297743	-56.656645	281.930	0.190	-0.300	0.140	281.880	-1.700	0.500																			1580083151.0	12.42	23.00
26/01/2020 23:59:12	26012020	260120	235912	281.830	12.297753	-56.656702	281.860	0.330	-0.410	0.100	281.830	-1.800	0.500																			1580083152.0	12.12	22.45
26/01/2020 23:59:13	26012020	260120	235913	281.880	12.297767	-56.656757	281.910	0.330	-0.520	0.120	281.900	-1.900	0.500																			1580083153.0	11.89	22.02
26/01/2020 23:59:14	26012020	260120	235914	282.030	12.297778	-56.656812	282.080	0.300	-0.730	0.210	282.080	-2.100	0.600																			1580083154.0	11.95	22.13
26/01/2020 23:59:15	26012020	260120	235915	282.270	12.297792	-56.656867	282.340	0.260	-0.880	0.350	282.330	-2.300	0.700																			1580083155.0	12.15	22.50
26/01/2020 23:59:16	26012020	260120	235916	282.580	12.297807	-56.656923	282.660	0.200	-0.770	0.480	282.640	-2.200	0.900																			1580083156.0	12.20	22.59
26/01/2020 23:59:17	26012020	260120	235917	282.790	12.297818	-56.656978	282.910	0.080	-0.440	0.560	282.830	-1.800	0.900																			1580083157.0	12.05	22.32
26/01/2020 23:59:18	26012020	260120	235918	282.930	12.297832	-56.657033	282.990	-0.060	-0.110	0.610	282.930	-1.500	1.000																			1580083158.0	11.99	22.21
26/01/2020 23:59:19	26012020	260120	235919	282.860	12.297843	-56.657090	282.860	-0.150	0.070	0.690	282.820	-1.300	1.100																			1580083159.0	12.09	22.39
26/01/2020 23:59:20	26012020	260120	235920	282.600	12.297855	-56.657147	282.600	-0.170	0.050	0.790	282.540	-1.300	1.200																			1580083160.0	12.29	22.76
26/01/2020 23:59:21	26012020	260120	235921	282.270	12.297867	-56.657205	282.270	-0.130	-0.090	0.880	282.210	-1.500	1.300																			1580083161.0	12.42	23.00
26/01/2020 23:59:22	26012020	260120	235922	281.930	12.297878	-56.657262	281.930	-0.090	-0.230	0.900	281.880	-1.600	1.300																			1580083162.0	12.46	23.08
26/01/2020 23:59:23	26012020	260120	235923	281.710	12.297890	-56.657318	281.730	-0.090	-0.300	0.730	281.690	-1.700	1.100																			1580083163.0	12.36	22.89
26/01/2020 23:59:24	26012020	260120	235924	281.670	12.297900	-56.657377	281.700	-0.090	-0.370	0.420	281.680	-1.800	0.800																			1580083164.0	12.24	22.67
26/01/2020 23:59:25	26012020	260120	235925	281.770	12.297910	-56.657433	281.820	-0.050	-0.480	0.150	281.810	-1.900	0.500																			1580083165.0	12.25	22.69
26/01/2020 23:59:26	26012020	260120	235926	281.940	12.297922	-56.657490	282.000	-0.000	-0.500	0.080	281.980	-1.900	0.500																			1580083166.0	12.31	22.80
26/01/2020 23:59:27	26012020	260120	235927	282.110	12.297933	-56.657547	282.160	-0.010	-0.330	0.210	282.140	-1.700	0.600																			1580083167.0	12.21	22.61
26/01/2020 23:59:28	26012020	260120	235928	282.260	12.297945	-56.657602	282.300	-0.090	-0.100	0.360	282.280	-1.500	0.700																			1580083168.0	12.00	22.22
26/01/2020 23:59:29	26012020	260120	235929	282.420	12.297957	-56.657657	282.480	-0.120	-0.040	0.340	282.460	-1.400	0.700																			1580083169.0	11.94	22.11
26/01/2020 23:59:30	26012020	260120	235930	282.620	12.297968	-56.657713	282.670	-0.020	-0.200	0.210	282.660	-1.600	0.600																			1580083170.0	12.14	22.48
26/01/2020 23:59:31	26012020	260120	235931	282.760	12.297980	-56.657772	282.840	0.190	-0.440	0.130	282.790	-1.800	0.500																			1580083171.0	12.39	22.95
26/01/2020 23:59:32	26012020	260120	235932	282.870	12.297992	-56.657828	282.900	0.350	-0.460	0.180	282.870	-1.800	0.600																			1580083172.0	12.46	23.08
26/01/2020 23:59:33	26012020	260120	235933	282.800	12.298005	-56.657885	282.810	0.290	-0.190	0.280	282.760	-1.600	0.700																			1580083173.0	12.22	22.63
26/01/2020 23:59:34	26012020	260120	235934	282.570	12.298018	-56.657940	282.570	0.030	0.140	0.260	282.520	-1.300	0.600																			1580083174.0	11.94	22.11
26/01/2020 23:59:35	26012020	260120	235935	282.300	12.298030	-56.657995	282.290	-0.240	0.240	0.110	282.250	-1.200	0.500																			1580083175.0	11.84	21.93
26/01/2020 23:59:36	26012020	260120	235936	282.050	12.298040	-56.658050	282.040	-0.310	-0.070	-0.050	282.010	-1.500	0.300																			1580083176.0	12.05	22.32
26/01/2020 23:59:37	26012020	260120	235937	281.880	12.298050	-56.658108	281.880	-0.130	-0.640	-0.150	281.870	-2.000	0.200																			1580083177.0	12.42	23.00
26/01/2020 23:59:38	26012020	260120	235938	281.850	12.298062	-56.658167	281.860	0.180	-1.110	-0.190	281.860	-2.500	0.200																			1580083178.0	12.66	23.45
26/01/2020 23:59:39	26012020	260120	235939	281.920	12.298075	-56.658225	281.930	0.350	-1.120	-0.110	281.930	-2.500	0.300																			1580083179.0	12.58	23.30
26/01/2020 23:59:40	26012020	260120	235940	281.990	12.298088	-56.658282	282.010	0.240	-0.650	0.120	282.000	-2.000	0.500																			1580083180.0	12.16	22.52
26/01/2020 23:59:41	26012020	260120	235941	282.050	12.298102	-56.658335	282.070	-0.080	-0.090	0.350	282.070	-1.500	0.700																			1580083181.0	11.81	21.87
26/01/2020 23:59:42	26012020	260120	235942	282.150	12.298113	-56.658390	282.180	-0.380	0.200	0.420	282.170	-1.200	0.800																			1580083182.0	11.84	21.93
26/01/2020 23:59:43	26012020	260120	235943	282.270	12.298125	-56.658447	282.330	-0.480	0.150	0.310	282.310	-1.200	0.700																			1580083183.0	12.17	22.54
26/01/2020 23:59:44	26012020	260120	235944	282.500	12.298137	-56.658503	282.530	-0.390	-0.020	0.120	282.540	-1.400	0.500																			1580083184.0	12.45	23.06
26/01/2020 23:59:45	26012020	260120	235945	282.630	12.298147	-56.658562	282.680	-0.190	-0.150	-0.000	282.660	-1.500	0.400																			1580083185.0	12.49	23.13
26/01/2020 23:59:46	26012020	260120	235946	282.720	12.298158	-56.658620	282.730	-0.010	-0.170	0.090	282.720	-1.600	0.500																			1580083186.0	12.38	22.93
26/01/2020 23:59:47	26012020	260120	235947	282.630	12.298170	-56.658675	282.610	0.110	-0.090	0.470	282.580	-1.500	0.800																			1580083187.0	12.20	22.59
26/01/2020 23:59:48	26012020	260120	235948	282.350	12.298183	-56.658732	282.320	0.160	0.020	0.900	282.280	-1.400	1.300																			1580083188.0	12.06	22.34
26/01/2020 23:59:49	26012020	260120	235949	281.950	12.298197	-56.658787	281.910	0.190	0.040	1.130	281.870	-1.400	1.500																			1580083189.0	11.94	22.11
26/01/2020 23:59:50	26012020	260120	235950	281.570	12.298210	-56.658842	281.530	0.250	-0.180	1.030	281.510	-1.600	1.400																			1580083190.0	11.96	22.15
26/01/2020 23:59:51	26012020	260120	235951	281.340	12.298222	-56.658897	281.320	0.360	-0.660	0.740	281.320	-2.000	1.100																			1580083191.0	12.18	22.56
26/01/2020 23:59:52	26012020	260120	235952	281.280	12.298233	-56.658955	281.280	0.440	-1.100	0.420	281.290	-2.500	0.800																			1580083192.0	12.44	23.04
26/01/2020 23:59:53	26012020	260120	235953	281.350	12.298245	-56.659013	281.370	0.350	-1.140	0.150	281.380	-2.500	0.500																			1580083193.0	12.44	23.04
26/01/2020 23:59:54	26012020	260120	235954	281.520	12.298255	-56.659068	281.560	0.060	-0.720	-0.040	281.560	-2.100	0.300																			1580083194.0	12.10	22.41
26/01/2020 23:59:55	26012020	260120	235955	281.770	12.298267	-56.659123	281.810	-0.300	-0.210	-0.120	281.830	-1.600	0.300																			1580083195.0	11.78	21.82
26/01/2020 23:59:56	26012020	260120	235956	282.080	12.298277	-56.659178	282.130	-0.490	0.020	-0.070	282.150	-1.400	0.300																			1580083196.0	11.89	22.02
26/01/2020 23:59:57	26012020	260120	235957	282.430	12.298287	-56.659235	282.490	-0.450	-0.030	0.070	282.500	-1.400	0.400																			1580083197.0	12.29	22.76
26/01/2020 23:59:58	26012020	260120	235958	282.710	12.298300	-56.659293	282.740	-0.270	-0.080	0.310	282.740	-1.500	0.700																			1580083198.0	12.57	23.28
26/01/2020 23:59:59	26012020	260120	235959	282.750	12.298312	-56.659352	282.750	-0.140	0.010	0.570	282.720	-1.400	0.900																			1580083199.0	12.49	23.13
